<?xml version="1.0" encoding="UTF-8" standalone="no" ?>
<gpx xmlns="http://www.topografix.com/GPX/1/1" xmlns:xsi="http://www.w3.org/2001/XMLSchema-instance" xsi:schemaLocation="http://www.topografix.com/GPX/1/1 http://www.topografix.com/GPX/1/1/gpx.xsd" version="1.1" creator="VisuGPX - https://www.visugpx.com">
  <metadata>
    <name>suite voyage</name>
  </metadata>
  <trk>
    <name><![CDATA[T10]]></name>
    <trkseg>
      <trkpt lat="48.41557" lon="-4.79198">
        <ele>29.4</ele>
        <time>2020-06-09T11:03:03Z</time>
      </trkpt>
      <trkpt lat="48.41556" lon="-4.79197">
        <ele>29.4</ele>
        <time>2020-06-09T11:03:04Z</time>
      </trkpt>
      <trkpt lat="48.41554" lon="-4.79197">
        <ele>29.4</ele>
        <time>2020-06-09T11:03:05Z</time>
      </trkpt>
      <trkpt lat="48.41553" lon="-4.79197">
        <ele>29.3</ele>
        <time>2020-06-09T11:03:06Z</time>
      </trkpt>
      <trkpt lat="48.41552" lon="-4.79197">
        <ele>29.3</ele>
        <time>2020-06-09T11:03:08Z</time>
      </trkpt>
      <trkpt lat="48.41551" lon="-4.79196">
        <ele>29.3</ele>
        <time>2020-06-09T11:03:09Z</time>
      </trkpt>
      <trkpt lat="48.4155" lon="-4.79196">
        <ele>29.3</ele>
        <time>2020-06-09T11:03:10Z</time>
      </trkpt>
      <trkpt lat="48.41549" lon="-4.79196">
        <ele>29.2</ele>
        <time>2020-06-09T11:03:11Z</time>
      </trkpt>
      <trkpt lat="48.41548" lon="-4.79196">
        <ele>29.2</ele>
        <time>2020-06-09T11:03:12Z</time>
      </trkpt>
      <trkpt lat="48.41547" lon="-4.79195">
        <ele>29.2</ele>
        <time>2020-06-09T11:03:13Z</time>
      </trkpt>
      <trkpt lat="48.41546" lon="-4.79195">
        <ele>29.1</ele>
        <time>2020-06-09T11:04:25Z</time>
      </trkpt>
      <trkpt lat="48.41545" lon="-4.79195">
        <ele>29.1</ele>
        <time>2020-06-09T11:04:26Z</time>
      </trkpt>
      <trkpt lat="48.41542" lon="-4.79195">
        <ele>29</ele>
        <time>2020-06-09T11:04:27Z</time>
      </trkpt>
      <trkpt lat="48.41541" lon="-4.79194">
        <ele>29</ele>
        <time>2020-06-09T11:04:28Z</time>
      </trkpt>
      <trkpt lat="48.4154" lon="-4.79194">
        <ele>29</ele>
        <time>2020-06-09T11:04:29Z</time>
      </trkpt>
      <trkpt lat="48.41538" lon="-4.79194">
        <ele>28.9</ele>
        <time>2020-06-09T11:04:30Z</time>
      </trkpt>
      <trkpt lat="48.41538" lon="-4.79193">
        <ele>28.9</ele>
        <time>2020-06-09T11:04:31Z</time>
      </trkpt>
      <trkpt lat="48.41536" lon="-4.79191">
        <ele>28.9</ele>
        <time>2020-06-09T11:04:32Z</time>
      </trkpt>
      <trkpt lat="48.41535" lon="-4.79191">
        <ele>28.8</ele>
        <time>2020-06-09T11:04:33Z</time>
      </trkpt>
      <trkpt lat="48.41534" lon="-4.7919">
        <ele>28.8</ele>
        <time>2020-06-09T11:04:34Z</time>
      </trkpt>
      <trkpt lat="48.41531" lon="-4.7919">
        <ele>28.7</ele>
        <time>2020-06-09T11:04:35Z</time>
      </trkpt>
      <trkpt lat="48.4153" lon="-4.79189">
        <ele>28.7</ele>
        <time>2020-06-09T11:04:36Z</time>
      </trkpt>
      <trkpt lat="48.41527" lon="-4.79189">
        <ele>28.7</ele>
        <time>2020-06-09T11:04:37Z</time>
      </trkpt>
      <trkpt lat="48.41526" lon="-4.79189">
        <ele>28.7</ele>
        <time>2020-06-09T11:04:38Z</time>
      </trkpt>
      <trkpt lat="48.41522" lon="-4.79189">
        <ele>28.6</ele>
        <time>2020-06-09T11:04:39Z</time>
      </trkpt>
      <trkpt lat="48.4152" lon="-4.79189">
        <ele>28.6</ele>
        <time>2020-06-09T11:04:40Z</time>
      </trkpt>
      <trkpt lat="48.41516" lon="-4.79188">
        <ele>28.5</ele>
        <time>2020-06-09T11:04:41Z</time>
      </trkpt>
      <trkpt lat="48.41511" lon="-4.79187">
        <ele>28.5</ele>
        <time>2020-06-09T11:04:42Z</time>
      </trkpt>
      <trkpt lat="48.41506" lon="-4.79185">
        <ele>28.4</ele>
        <time>2020-06-09T11:04:43Z</time>
      </trkpt>
      <trkpt lat="48.41501" lon="-4.79184">
        <ele>28.4</ele>
        <time>2020-06-09T11:04:44Z</time>
      </trkpt>
      <trkpt lat="48.41495" lon="-4.79184">
        <ele>28.4</ele>
        <time>2020-06-09T11:04:45Z</time>
      </trkpt>
      <trkpt lat="48.4149" lon="-4.79184">
        <ele>28.4</ele>
        <time>2020-06-09T11:04:46Z</time>
      </trkpt>
      <trkpt lat="48.41485" lon="-4.79184">
        <ele>28.5</ele>
        <time>2020-06-09T11:04:47Z</time>
      </trkpt>
      <trkpt lat="48.41481" lon="-4.79184">
        <ele>28.6</ele>
        <time>2020-06-09T11:04:48Z</time>
      </trkpt>
      <trkpt lat="48.41477" lon="-4.79185">
        <ele>28.7</ele>
        <time>2020-06-09T11:04:49Z</time>
      </trkpt>
      <trkpt lat="48.41475" lon="-4.79185">
        <ele>28.8</ele>
        <time>2020-06-09T11:04:50Z</time>
      </trkpt>
      <trkpt lat="48.41475" lon="-4.79186">
        <ele>28.8</ele>
        <time>2020-06-09T11:04:51Z</time>
      </trkpt>
      <trkpt lat="48.41473" lon="-4.79185">
        <ele>28.8</ele>
        <time>2020-06-09T11:04:52Z</time>
      </trkpt>
      <trkpt lat="48.41473" lon="-4.79185">
        <ele>28.8</ele>
        <time>2020-06-09T11:04:53Z</time>
      </trkpt>
      <trkpt lat="48.41473" lon="-4.79185">
        <ele>28.8</ele>
        <time>2020-06-09T11:04:54Z</time>
      </trkpt>
      <trkpt lat="48.41473" lon="-4.79184">
        <ele>28.8</ele>
        <time>2020-06-09T11:04:55Z</time>
      </trkpt>
      <trkpt lat="48.41472" lon="-4.79186">
        <ele>28.9</ele>
        <time>2020-06-09T11:04:56Z</time>
      </trkpt>
      <trkpt lat="48.41471" lon="-4.79185">
        <ele>28.9</ele>
        <time>2020-06-09T11:04:57Z</time>
      </trkpt>
      <trkpt lat="48.41471" lon="-4.79185">
        <ele>28.9</ele>
        <time>2020-06-09T11:04:58Z</time>
      </trkpt>
      <trkpt lat="48.4147" lon="-4.79184">
        <ele>29</ele>
        <time>2020-06-09T11:04:59Z</time>
      </trkpt>
      <trkpt lat="48.41469" lon="-4.79183">
        <ele>29</ele>
        <time>2020-06-09T11:05:00Z</time>
      </trkpt>
      <trkpt lat="48.41469" lon="-4.79183">
        <ele>29</ele>
        <time>2020-06-09T11:05:01Z</time>
      </trkpt>
      <trkpt lat="48.41469" lon="-4.79183">
        <ele>29</ele>
        <time>2020-06-09T11:05:02Z</time>
      </trkpt>
      <trkpt lat="48.41469" lon="-4.79183">
        <ele>29</ele>
        <time>2020-06-09T11:05:03Z</time>
      </trkpt>
      <trkpt lat="48.41469" lon="-4.79183">
        <ele>29</ele>
        <time>2020-06-09T11:05:04Z</time>
      </trkpt>
      <trkpt lat="48.41469" lon="-4.79183">
        <ele>29</ele>
        <time>2020-06-09T11:05:05Z</time>
      </trkpt>
      <trkpt lat="48.4147" lon="-4.79183">
        <ele>29</ele>
        <time>2020-06-09T11:05:06Z</time>
      </trkpt>
      <trkpt lat="48.4147" lon="-4.79182">
        <ele>29.1</ele>
        <time>2020-06-09T11:05:07Z</time>
      </trkpt>
      <trkpt lat="48.4147" lon="-4.79182">
        <ele>29.1</ele>
        <time>2020-06-09T11:05:08Z</time>
      </trkpt>
      <trkpt lat="48.4147" lon="-4.79182">
        <ele>29.1</ele>
        <time>2020-06-09T11:05:09Z</time>
      </trkpt>
      <trkpt lat="48.4147" lon="-4.79182">
        <ele>29.1</ele>
        <time>2020-06-09T11:05:10Z</time>
      </trkpt>
      <trkpt lat="48.4147" lon="-4.79182">
        <ele>29.1</ele>
        <time>2020-06-09T11:05:11Z</time>
      </trkpt>
      <trkpt lat="48.41471" lon="-4.79182">
        <ele>29.1</ele>
        <time>2020-06-09T11:05:12Z</time>
      </trkpt>
      <trkpt lat="48.41471" lon="-4.79182">
        <ele>29.1</ele>
        <time>2020-06-09T11:05:13Z</time>
      </trkpt>
      <trkpt lat="48.41471" lon="-4.79181">
        <ele>29.1</ele>
        <time>2020-06-09T11:05:14Z</time>
      </trkpt>
      <trkpt lat="48.4147" lon="-4.79181">
        <ele>29.2</ele>
        <time>2020-06-09T11:05:15Z</time>
      </trkpt>
      <trkpt lat="48.41471" lon="-4.79181">
        <ele>29.2</ele>
        <time>2020-06-09T11:05:16Z</time>
      </trkpt>
      <trkpt lat="48.41472" lon="-4.7918">
        <ele>29.2</ele>
        <time>2020-06-09T11:05:17Z</time>
      </trkpt>
      <trkpt lat="48.41473" lon="-4.79178">
        <ele>29.3</ele>
        <time>2020-06-09T11:05:18Z</time>
      </trkpt>
      <trkpt lat="48.41472" lon="-4.79176">
        <ele>29.3</ele>
        <time>2020-06-09T11:05:19Z</time>
      </trkpt>
      <trkpt lat="48.41472" lon="-4.79171">
        <ele>29.4</ele>
        <time>2020-06-09T11:05:20Z</time>
      </trkpt>
      <trkpt lat="48.41471" lon="-4.7917">
        <ele>29.5</ele>
        <time>2020-06-09T11:05:21Z</time>
      </trkpt>
      <trkpt lat="48.41471" lon="-4.79165">
        <ele>29.6</ele>
        <time>2020-06-09T11:05:22Z</time>
      </trkpt>
      <trkpt lat="48.41471" lon="-4.79163">
        <ele>29.7</ele>
        <time>2020-06-09T11:05:23Z</time>
      </trkpt>
      <trkpt lat="48.4147" lon="-4.79159">
        <ele>29.8</ele>
        <time>2020-06-09T11:05:24Z</time>
      </trkpt>
      <trkpt lat="48.4147" lon="-4.79155">
        <ele>30</ele>
        <time>2020-06-09T11:05:25Z</time>
      </trkpt>
      <trkpt lat="48.4147" lon="-4.79149">
        <ele>30.1</ele>
        <time>2020-06-09T11:05:26Z</time>
      </trkpt>
      <trkpt lat="48.4147" lon="-4.79148">
        <ele>30.2</ele>
        <time>2020-06-09T11:05:27Z</time>
      </trkpt>
      <trkpt lat="48.4147" lon="-4.79145">
        <ele>30.3</ele>
        <time>2020-06-09T11:05:28Z</time>
      </trkpt>
      <trkpt lat="48.4147" lon="-4.79143">
        <ele>30.4</ele>
        <time>2020-06-09T11:05:29Z</time>
      </trkpt>
      <trkpt lat="48.4147" lon="-4.79141">
        <ele>30.4</ele>
        <time>2020-06-09T11:05:30Z</time>
      </trkpt>
      <trkpt lat="48.4147" lon="-4.79137">
        <ele>30.6</ele>
        <time>2020-06-09T11:05:31Z</time>
      </trkpt>
      <trkpt lat="48.41469" lon="-4.79135">
        <ele>30.6</ele>
        <time>2020-06-09T11:05:32Z</time>
      </trkpt>
      <trkpt lat="48.41469" lon="-4.7913">
        <ele>30.8</ele>
        <time>2020-06-09T11:05:33Z</time>
      </trkpt>
      <trkpt lat="48.41469" lon="-4.79128">
        <ele>30.9</ele>
        <time>2020-06-09T11:05:34Z</time>
      </trkpt>
      <trkpt lat="48.41469" lon="-4.79122">
        <ele>31.1</ele>
        <time>2020-06-09T11:05:35Z</time>
      </trkpt>
      <trkpt lat="48.41469" lon="-4.79121">
        <ele>31.2</ele>
        <time>2020-06-09T11:05:36Z</time>
      </trkpt>
      <trkpt lat="48.41469" lon="-4.79115">
        <ele>31.4</ele>
        <time>2020-06-09T11:05:37Z</time>
      </trkpt>
      <trkpt lat="48.41469" lon="-4.79113">
        <ele>31.5</ele>
        <time>2020-06-09T11:05:38Z</time>
      </trkpt>
      <trkpt lat="48.41469" lon="-4.79108">
        <ele>31.7</ele>
        <time>2020-06-09T11:05:39Z</time>
      </trkpt>
      <trkpt lat="48.41468" lon="-4.79106">
        <ele>31.7</ele>
        <time>2020-06-09T11:05:40Z</time>
      </trkpt>
      <trkpt lat="48.41469" lon="-4.79101">
        <ele>32</ele>
        <time>2020-06-09T11:05:41Z</time>
      </trkpt>
      <trkpt lat="48.41469" lon="-4.79099">
        <ele>32</ele>
        <time>2020-06-09T11:05:42Z</time>
      </trkpt>
      <trkpt lat="48.41468" lon="-4.79094">
        <ele>32.3</ele>
        <time>2020-06-09T11:05:43Z</time>
      </trkpt>
      <trkpt lat="48.41467" lon="-4.79093">
        <ele>32.3</ele>
        <time>2020-06-09T11:05:44Z</time>
      </trkpt>
      <trkpt lat="48.41466" lon="-4.79087">
        <ele>32.6</ele>
        <time>2020-06-09T11:05:45Z</time>
      </trkpt>
      <trkpt lat="48.41466" lon="-4.79086">
        <ele>32.7</ele>
        <time>2020-06-09T11:05:46Z</time>
      </trkpt>
      <trkpt lat="48.41466" lon="-4.79081">
        <ele>32.9</ele>
        <time>2020-06-09T11:05:47Z</time>
      </trkpt>
      <trkpt lat="48.41467" lon="-4.7908">
        <ele>33</ele>
        <time>2020-06-09T11:05:48Z</time>
      </trkpt>
      <trkpt lat="48.41467" lon="-4.79076">
        <ele>33.2</ele>
        <time>2020-06-09T11:05:49Z</time>
      </trkpt>
      <trkpt lat="48.41467" lon="-4.79075">
        <ele>33.2</ele>
        <time>2020-06-09T11:05:50Z</time>
      </trkpt>
      <trkpt lat="48.41467" lon="-4.7907">
        <ele>33.5</ele>
        <time>2020-06-09T11:05:51Z</time>
      </trkpt>
      <trkpt lat="48.41467" lon="-4.79068">
        <ele>33.6</ele>
        <time>2020-06-09T11:05:52Z</time>
      </trkpt>
      <trkpt lat="48.41467" lon="-4.79063">
        <ele>33.8</ele>
        <time>2020-06-09T11:05:53Z</time>
      </trkpt>
      <trkpt lat="48.41467" lon="-4.79061">
        <ele>33.9</ele>
        <time>2020-06-09T11:05:54Z</time>
      </trkpt>
      <trkpt lat="48.41467" lon="-4.79056">
        <ele>34.2</ele>
        <time>2020-06-09T11:05:55Z</time>
      </trkpt>
      <trkpt lat="48.41467" lon="-4.79054">
        <ele>34.3</ele>
        <time>2020-06-09T11:05:56Z</time>
      </trkpt>
      <trkpt lat="48.41467" lon="-4.79049">
        <ele>34.5</ele>
        <time>2020-06-09T11:05:57Z</time>
      </trkpt>
      <trkpt lat="48.41467" lon="-4.79047">
        <ele>34.6</ele>
        <time>2020-06-09T11:05:58Z</time>
      </trkpt>
      <trkpt lat="48.41467" lon="-4.79042">
        <ele>34.9</ele>
        <time>2020-06-09T11:05:59Z</time>
      </trkpt>
      <trkpt lat="48.41467" lon="-4.7904">
        <ele>35</ele>
        <time>2020-06-09T11:06:00Z</time>
      </trkpt>
      <trkpt lat="48.41466" lon="-4.79035">
        <ele>35.2</ele>
        <time>2020-06-09T11:06:01Z</time>
      </trkpt>
      <trkpt lat="48.41466" lon="-4.79034">
        <ele>35.3</ele>
        <time>2020-06-09T11:06:02Z</time>
      </trkpt>
      <trkpt lat="48.41465" lon="-4.79028">
        <ele>35.5</ele>
        <time>2020-06-09T11:06:03Z</time>
      </trkpt>
      <trkpt lat="48.41465" lon="-4.79026">
        <ele>35.6</ele>
        <time>2020-06-09T11:06:04Z</time>
      </trkpt>
      <trkpt lat="48.41464" lon="-4.79023">
        <ele>35.8</ele>
        <time>2020-06-09T11:06:05Z</time>
      </trkpt>
      <trkpt lat="48.41464" lon="-4.79021">
        <ele>35.9</ele>
        <time>2020-06-09T11:06:06Z</time>
      </trkpt>
      <trkpt lat="48.41463" lon="-4.79016">
        <ele>36.1</ele>
        <time>2020-06-09T11:06:07Z</time>
      </trkpt>
      <trkpt lat="48.41463" lon="-4.79014">
        <ele>36.2</ele>
        <time>2020-06-09T11:06:08Z</time>
      </trkpt>
      <trkpt lat="48.41463" lon="-4.79009">
        <ele>36.4</ele>
        <time>2020-06-09T11:06:09Z</time>
      </trkpt>
      <trkpt lat="48.41463" lon="-4.79008">
        <ele>36.4</ele>
        <time>2020-06-09T11:06:10Z</time>
      </trkpt>
      <trkpt lat="48.41462" lon="-4.79003">
        <ele>36.7</ele>
        <time>2020-06-09T11:06:11Z</time>
      </trkpt>
      <trkpt lat="48.41462" lon="-4.79001">
        <ele>36.8</ele>
        <time>2020-06-09T11:06:12Z</time>
      </trkpt>
      <trkpt lat="48.41462" lon="-4.78996">
        <ele>37</ele>
        <time>2020-06-09T11:06:13Z</time>
      </trkpt>
      <trkpt lat="48.41461" lon="-4.78995">
        <ele>37</ele>
        <time>2020-06-09T11:06:14Z</time>
      </trkpt>
      <trkpt lat="48.41461" lon="-4.7899">
        <ele>37.3</ele>
        <time>2020-06-09T11:06:15Z</time>
      </trkpt>
      <trkpt lat="48.41461" lon="-4.78988">
        <ele>37.3</ele>
        <time>2020-06-09T11:06:16Z</time>
      </trkpt>
      <trkpt lat="48.4146" lon="-4.78986">
        <ele>37.5</ele>
        <time>2020-06-09T11:06:17Z</time>
      </trkpt>
      <trkpt lat="48.4146" lon="-4.78983">
        <ele>37.6</ele>
        <time>2020-06-09T11:06:18Z</time>
      </trkpt>
      <trkpt lat="48.4146" lon="-4.78978">
        <ele>37.8</ele>
        <time>2020-06-09T11:06:19Z</time>
      </trkpt>
      <trkpt lat="48.41459" lon="-4.78977">
        <ele>37.9</ele>
        <time>2020-06-09T11:06:20Z</time>
      </trkpt>
      <trkpt lat="48.41459" lon="-4.78972">
        <ele>38.1</ele>
        <time>2020-06-09T11:06:21Z</time>
      </trkpt>
      <trkpt lat="48.41459" lon="-4.7897">
        <ele>38.2</ele>
        <time>2020-06-09T11:06:22Z</time>
      </trkpt>
      <trkpt lat="48.41458" lon="-4.78964">
        <ele>38.5</ele>
        <time>2020-06-09T11:06:23Z</time>
      </trkpt>
      <trkpt lat="48.41458" lon="-4.78962">
        <ele>38.6</ele>
        <time>2020-06-09T11:06:24Z</time>
      </trkpt>
      <trkpt lat="48.41458" lon="-4.78957">
        <ele>38.9</ele>
        <time>2020-06-09T11:06:25Z</time>
      </trkpt>
      <trkpt lat="48.41458" lon="-4.78956">
        <ele>38.9</ele>
        <time>2020-06-09T11:06:26Z</time>
      </trkpt>
      <trkpt lat="48.41458" lon="-4.7895">
        <ele>39.2</ele>
        <time>2020-06-09T11:06:27Z</time>
      </trkpt>
      <trkpt lat="48.41458" lon="-4.78949">
        <ele>39.3</ele>
        <time>2020-06-09T11:06:28Z</time>
      </trkpt>
      <trkpt lat="48.41456" lon="-4.78944">
        <ele>39.5</ele>
        <time>2020-06-09T11:06:29Z</time>
      </trkpt>
      <trkpt lat="48.41456" lon="-4.78943">
        <ele>39.6</ele>
        <time>2020-06-09T11:06:30Z</time>
      </trkpt>
      <trkpt lat="48.41456" lon="-4.78937">
        <ele>39.9</ele>
        <time>2020-06-09T11:06:31Z</time>
      </trkpt>
      <trkpt lat="48.41456" lon="-4.78936">
        <ele>40</ele>
        <time>2020-06-09T11:06:32Z</time>
      </trkpt>
      <trkpt lat="48.41456" lon="-4.78934">
        <ele>40</ele>
        <time>2020-06-09T11:06:33Z</time>
      </trkpt>
      <trkpt lat="48.41455" lon="-4.78931">
        <ele>40.2</ele>
        <time>2020-06-09T11:06:34Z</time>
      </trkpt>
      <trkpt lat="48.41455" lon="-4.78926">
        <ele>40.4</ele>
        <time>2020-06-09T11:06:35Z</time>
      </trkpt>
      <trkpt lat="48.41455" lon="-4.78924">
        <ele>40.5</ele>
        <time>2020-06-09T11:06:36Z</time>
      </trkpt>
      <trkpt lat="48.41455" lon="-4.7892">
        <ele>40.7</ele>
        <time>2020-06-09T11:06:37Z</time>
      </trkpt>
      <trkpt lat="48.41455" lon="-4.78919">
        <ele>40.8</ele>
        <time>2020-06-09T11:06:38Z</time>
      </trkpt>
      <trkpt lat="48.41454" lon="-4.78914">
        <ele>41</ele>
        <time>2020-06-09T11:06:39Z</time>
      </trkpt>
      <trkpt lat="48.41454" lon="-4.78912">
        <ele>41.1</ele>
        <time>2020-06-09T11:06:40Z</time>
      </trkpt>
      <trkpt lat="48.41453" lon="-4.78908">
        <ele>41.3</ele>
        <time>2020-06-09T11:06:41Z</time>
      </trkpt>
      <trkpt lat="48.41453" lon="-4.78907">
        <ele>41.4</ele>
        <time>2020-06-09T11:06:42Z</time>
      </trkpt>
      <trkpt lat="48.41452" lon="-4.78903">
        <ele>41.6</ele>
        <time>2020-06-09T11:06:43Z</time>
      </trkpt>
      <trkpt lat="48.41452" lon="-4.78902">
        <ele>41.6</ele>
        <time>2020-06-09T11:06:44Z</time>
      </trkpt>
      <trkpt lat="48.41451" lon="-4.78897">
        <ele>41.9</ele>
        <time>2020-06-09T11:06:45Z</time>
      </trkpt>
      <trkpt lat="48.41451" lon="-4.78895">
        <ele>42</ele>
        <time>2020-06-09T11:06:46Z</time>
      </trkpt>
      <trkpt lat="48.41451" lon="-4.7889">
        <ele>42.2</ele>
        <time>2020-06-09T11:06:47Z</time>
      </trkpt>
      <trkpt lat="48.41451" lon="-4.78888">
        <ele>42.3</ele>
        <time>2020-06-09T11:06:48Z</time>
      </trkpt>
      <trkpt lat="48.41452" lon="-4.78883">
        <ele>42.6</ele>
        <time>2020-06-09T11:06:49Z</time>
      </trkpt>
      <trkpt lat="48.41452" lon="-4.78881">
        <ele>42.7</ele>
        <time>2020-06-09T11:06:50Z</time>
      </trkpt>
      <trkpt lat="48.41452" lon="-4.78879">
        <ele>42.8</ele>
        <time>2020-06-09T11:06:51Z</time>
      </trkpt>
      <trkpt lat="48.41452" lon="-4.78877">
        <ele>42.9</ele>
        <time>2020-06-09T11:06:52Z</time>
      </trkpt>
      <trkpt lat="48.41451" lon="-4.78874">
        <ele>43</ele>
        <time>2020-06-09T11:06:53Z</time>
      </trkpt>
      <trkpt lat="48.41451" lon="-4.78872">
        <ele>43.1</ele>
        <time>2020-06-09T11:06:54Z</time>
      </trkpt>
      <trkpt lat="48.41451" lon="-4.78869">
        <ele>43.3</ele>
        <time>2020-06-09T11:06:55Z</time>
      </trkpt>
      <trkpt lat="48.4145" lon="-4.78867">
        <ele>43.3</ele>
        <time>2020-06-09T11:06:56Z</time>
      </trkpt>
      <trkpt lat="48.4145" lon="-4.78866">
        <ele>43.4</ele>
        <time>2020-06-09T11:06:57Z</time>
      </trkpt>
      <trkpt lat="48.4145" lon="-4.78864">
        <ele>43.5</ele>
        <time>2020-06-09T11:06:58Z</time>
      </trkpt>
      <trkpt lat="48.41449" lon="-4.78862">
        <ele>43.6</ele>
        <time>2020-06-09T11:06:59Z</time>
      </trkpt>
      <trkpt lat="48.41449" lon="-4.7886">
        <ele>43.7</ele>
        <time>2020-06-09T11:07:00Z</time>
      </trkpt>
      <trkpt lat="48.41449" lon="-4.78858">
        <ele>43.8</ele>
        <time>2020-06-09T11:07:01Z</time>
      </trkpt>
      <trkpt lat="48.4145" lon="-4.78857">
        <ele>43.8</ele>
        <time>2020-06-09T11:07:02Z</time>
      </trkpt>
      <trkpt lat="48.4145" lon="-4.78854">
        <ele>43.9</ele>
        <time>2020-06-09T11:07:03Z</time>
      </trkpt>
      <trkpt lat="48.41451" lon="-4.78853">
        <ele>44</ele>
        <time>2020-06-09T11:07:04Z</time>
      </trkpt>
      <trkpt lat="48.41452" lon="-4.7885">
        <ele>44.1</ele>
        <time>2020-06-09T11:07:05Z</time>
      </trkpt>
      <trkpt lat="48.41453" lon="-4.78849">
        <ele>44.4</ele>
        <time>2020-06-09T11:07:06Z</time>
      </trkpt>
      <trkpt lat="48.41454" lon="-4.78849">
        <ele>44.4</ele>
        <time>2020-06-09T11:07:07Z</time>
      </trkpt>
      <trkpt lat="48.41455" lon="-4.78848">
        <ele>44.5</ele>
        <time>2020-06-09T11:07:08Z</time>
      </trkpt>
      <trkpt lat="48.41456" lon="-4.78847">
        <ele>44.5</ele>
        <time>2020-06-09T11:07:09Z</time>
      </trkpt>
      <trkpt lat="48.41457" lon="-4.78847">
        <ele>44.5</ele>
        <time>2020-06-09T11:07:10Z</time>
      </trkpt>
      <trkpt lat="48.41458" lon="-4.78847">
        <ele>44.5</ele>
        <time>2020-06-09T11:07:11Z</time>
      </trkpt>
      <trkpt lat="48.41459" lon="-4.78845">
        <ele>44.5</ele>
        <time>2020-06-09T11:07:12Z</time>
      </trkpt>
      <trkpt lat="48.41461" lon="-4.78844">
        <ele>44.5</ele>
        <time>2020-06-09T11:07:13Z</time>
      </trkpt>
      <trkpt lat="48.41463" lon="-4.78842">
        <ele>44.6</ele>
        <time>2020-06-09T11:07:14Z</time>
      </trkpt>
      <trkpt lat="48.41464" lon="-4.78842">
        <ele>44.6</ele>
        <time>2020-06-09T11:07:15Z</time>
      </trkpt>
      <trkpt lat="48.41465" lon="-4.78842">
        <ele>44.6</ele>
        <time>2020-06-09T11:07:16Z</time>
      </trkpt>
      <trkpt lat="48.41467" lon="-4.78841">
        <ele>44.6</ele>
        <time>2020-06-09T11:07:17Z</time>
      </trkpt>
      <trkpt lat="48.41468" lon="-4.78841">
        <ele>44.6</ele>
        <time>2020-06-09T11:07:18Z</time>
      </trkpt>
      <trkpt lat="48.41471" lon="-4.78839">
        <ele>44.6</ele>
        <time>2020-06-09T11:07:19Z</time>
      </trkpt>
      <trkpt lat="48.41472" lon="-4.78839">
        <ele>44.6</ele>
        <time>2020-06-09T11:07:20Z</time>
      </trkpt>
      <trkpt lat="48.41475" lon="-4.78838">
        <ele>44.6</ele>
        <time>2020-06-09T11:07:21Z</time>
      </trkpt>
      <trkpt lat="48.41476" lon="-4.78838">
        <ele>44.6</ele>
        <time>2020-06-09T11:07:22Z</time>
      </trkpt>
      <trkpt lat="48.41479" lon="-4.78838">
        <ele>44.6</ele>
        <time>2020-06-09T11:07:23Z</time>
      </trkpt>
      <trkpt lat="48.41482" lon="-4.78838">
        <ele>44.5</ele>
        <time>2020-06-09T11:07:24Z</time>
      </trkpt>
      <trkpt lat="48.41483" lon="-4.78838">
        <ele>44.5</ele>
        <time>2020-06-09T11:07:25Z</time>
      </trkpt>
      <trkpt lat="48.41486" lon="-4.78837">
        <ele>44.5</ele>
        <time>2020-06-09T11:07:26Z</time>
      </trkpt>
      <trkpt lat="48.41487" lon="-4.78837">
        <ele>44.5</ele>
        <time>2020-06-09T11:07:27Z</time>
      </trkpt>
      <trkpt lat="48.41491" lon="-4.78836">
        <ele>44.4</ele>
        <time>2020-06-09T11:07:28Z</time>
      </trkpt>
      <trkpt lat="48.41493" lon="-4.78835">
        <ele>44.4</ele>
        <time>2020-06-09T11:07:29Z</time>
      </trkpt>
      <trkpt lat="48.41496" lon="-4.78834">
        <ele>44.3</ele>
        <time>2020-06-09T11:07:30Z</time>
      </trkpt>
      <trkpt lat="48.415" lon="-4.78833">
        <ele>44.3</ele>
        <time>2020-06-09T11:07:31Z</time>
      </trkpt>
      <trkpt lat="48.41501" lon="-4.78832">
        <ele>44.2</ele>
        <time>2020-06-09T11:07:32Z</time>
      </trkpt>
      <trkpt lat="48.41505" lon="-4.78831">
        <ele>44.1</ele>
        <time>2020-06-09T11:07:33Z</time>
      </trkpt>
      <trkpt lat="48.41506" lon="-4.7883">
        <ele>44.1</ele>
        <time>2020-06-09T11:07:34Z</time>
      </trkpt>
      <trkpt lat="48.41509" lon="-4.78826">
        <ele>44</ele>
        <time>2020-06-09T11:07:35Z</time>
      </trkpt>
      <trkpt lat="48.41513" lon="-4.78823">
        <ele>43.9</ele>
        <time>2020-06-09T11:07:36Z</time>
      </trkpt>
      <trkpt lat="48.41517" lon="-4.7882">
        <ele>43.7</ele>
        <time>2020-06-09T11:07:37Z</time>
      </trkpt>
      <trkpt lat="48.4152" lon="-4.78817">
        <ele>43.6</ele>
        <time>2020-06-09T11:07:38Z</time>
      </trkpt>
      <trkpt lat="48.41523" lon="-4.78815">
        <ele>43.5</ele>
        <time>2020-06-09T11:07:39Z</time>
      </trkpt>
      <trkpt lat="48.41527" lon="-4.78812">
        <ele>43.4</ele>
        <time>2020-06-09T11:07:40Z</time>
      </trkpt>
      <trkpt lat="48.41531" lon="-4.7881">
        <ele>43.3</ele>
        <time>2020-06-09T11:07:41Z</time>
      </trkpt>
      <trkpt lat="48.41534" lon="-4.78808">
        <ele>43.1</ele>
        <time>2020-06-09T11:07:42Z</time>
      </trkpt>
      <trkpt lat="48.41539" lon="-4.78806">
        <ele>43</ele>
        <time>2020-06-09T11:07:43Z</time>
      </trkpt>
      <trkpt lat="48.41543" lon="-4.78803">
        <ele>42.8</ele>
        <time>2020-06-09T11:07:44Z</time>
      </trkpt>
      <trkpt lat="48.41547" lon="-4.78801">
        <ele>42.7</ele>
        <time>2020-06-09T11:07:45Z</time>
      </trkpt>
      <trkpt lat="48.41552" lon="-4.78799">
        <ele>42.6</ele>
        <time>2020-06-09T11:07:46Z</time>
      </trkpt>
      <trkpt lat="48.41556" lon="-4.78796">
        <ele>42.4</ele>
        <time>2020-06-09T11:07:47Z</time>
      </trkpt>
      <trkpt lat="48.4156" lon="-4.78794">
        <ele>42.3</ele>
        <time>2020-06-09T11:07:48Z</time>
      </trkpt>
      <trkpt lat="48.41565" lon="-4.78792">
        <ele>42.2</ele>
        <time>2020-06-09T11:07:49Z</time>
      </trkpt>
      <trkpt lat="48.4157" lon="-4.78789">
        <ele>42</ele>
        <time>2020-06-09T11:07:50Z</time>
      </trkpt>
      <trkpt lat="48.41573" lon="-4.78786">
        <ele>41.9</ele>
        <time>2020-06-09T11:07:51Z</time>
      </trkpt>
      <trkpt lat="48.41577" lon="-4.78782">
        <ele>41.7</ele>
        <time>2020-06-09T11:07:52Z</time>
      </trkpt>
      <trkpt lat="48.41582" lon="-4.78779">
        <ele>41.6</ele>
        <time>2020-06-09T11:07:53Z</time>
      </trkpt>
      <trkpt lat="48.41587" lon="-4.78776">
        <ele>41.4</ele>
        <time>2020-06-09T11:07:54Z</time>
      </trkpt>
      <trkpt lat="48.41592" lon="-4.78773">
        <ele>41.3</ele>
        <time>2020-06-09T11:07:55Z</time>
      </trkpt>
      <trkpt lat="48.41596" lon="-4.7877">
        <ele>41.2</ele>
        <time>2020-06-09T11:07:56Z</time>
      </trkpt>
      <trkpt lat="48.41601" lon="-4.78767">
        <ele>41.1</ele>
        <time>2020-06-09T11:07:57Z</time>
      </trkpt>
      <trkpt lat="48.41606" lon="-4.78763">
        <ele>41.1</ele>
        <time>2020-06-09T11:07:58Z</time>
      </trkpt>
      <trkpt lat="48.41611" lon="-4.7876">
        <ele>41.1</ele>
        <time>2020-06-09T11:07:59Z</time>
      </trkpt>
      <trkpt lat="48.41615" lon="-4.78756">
        <ele>41.1</ele>
        <time>2020-06-09T11:08:00Z</time>
      </trkpt>
      <trkpt lat="48.4162" lon="-4.78752">
        <ele>41.1</ele>
        <time>2020-06-09T11:08:01Z</time>
      </trkpt>
      <trkpt lat="48.41625" lon="-4.78749">
        <ele>41.2</ele>
        <time>2020-06-09T11:08:02Z</time>
      </trkpt>
      <trkpt lat="48.4163" lon="-4.78745">
        <ele>41.3</ele>
        <time>2020-06-09T11:08:03Z</time>
      </trkpt>
      <trkpt lat="48.41634" lon="-4.78742">
        <ele>41.5</ele>
        <time>2020-06-09T11:08:04Z</time>
      </trkpt>
      <trkpt lat="48.41638" lon="-4.78739">
        <ele>41.7</ele>
        <time>2020-06-09T11:08:05Z</time>
      </trkpt>
      <trkpt lat="48.41642" lon="-4.78737">
        <ele>41.9</ele>
        <time>2020-06-09T11:08:06Z</time>
      </trkpt>
      <trkpt lat="48.41646" lon="-4.78735">
        <ele>42.2</ele>
        <time>2020-06-09T11:08:07Z</time>
      </trkpt>
      <trkpt lat="48.41649" lon="-4.78733">
        <ele>42.3</ele>
        <time>2020-06-09T11:08:08Z</time>
      </trkpt>
      <trkpt lat="48.41653" lon="-4.78731">
        <ele>42.4</ele>
        <time>2020-06-09T11:08:09Z</time>
      </trkpt>
      <trkpt lat="48.41656" lon="-4.78729">
        <ele>42.4</ele>
        <time>2020-06-09T11:08:10Z</time>
      </trkpt>
      <trkpt lat="48.41659" lon="-4.78727">
        <ele>42.5</ele>
        <time>2020-06-09T11:08:11Z</time>
      </trkpt>
      <trkpt lat="48.41662" lon="-4.78725">
        <ele>42.6</ele>
        <time>2020-06-09T11:08:12Z</time>
      </trkpt>
      <trkpt lat="48.41666" lon="-4.78723">
        <ele>42.7</ele>
        <time>2020-06-09T11:08:13Z</time>
      </trkpt>
      <trkpt lat="48.41669" lon="-4.7872">
        <ele>42.8</ele>
        <time>2020-06-09T11:08:14Z</time>
      </trkpt>
      <trkpt lat="48.41672" lon="-4.78719">
        <ele>43</ele>
        <time>2020-06-09T11:08:15Z</time>
      </trkpt>
      <trkpt lat="48.41675" lon="-4.78717">
        <ele>43.1</ele>
        <time>2020-06-09T11:08:16Z</time>
      </trkpt>
      <trkpt lat="48.41678" lon="-4.78715">
        <ele>43.1</ele>
        <time>2020-06-09T11:08:17Z</time>
      </trkpt>
      <trkpt lat="48.4168" lon="-4.78713">
        <ele>43.2</ele>
        <time>2020-06-09T11:08:18Z</time>
      </trkpt>
      <trkpt lat="48.41684" lon="-4.7871">
        <ele>43.4</ele>
        <time>2020-06-09T11:08:19Z</time>
      </trkpt>
      <trkpt lat="48.41685" lon="-4.78709">
        <ele>43.4</ele>
        <time>2020-06-09T11:08:20Z</time>
      </trkpt>
      <trkpt lat="48.41689" lon="-4.78706">
        <ele>43.5</ele>
        <time>2020-06-09T11:08:21Z</time>
      </trkpt>
      <trkpt lat="48.4169" lon="-4.78706">
        <ele>43.5</ele>
        <time>2020-06-09T11:08:22Z</time>
      </trkpt>
      <trkpt lat="48.41693" lon="-4.78704">
        <ele>43.6</ele>
        <time>2020-06-09T11:08:23Z</time>
      </trkpt>
      <trkpt lat="48.41696" lon="-4.78701">
        <ele>43.7</ele>
        <time>2020-06-09T11:08:24Z</time>
      </trkpt>
      <trkpt lat="48.41699" lon="-4.787">
        <ele>43.8</ele>
        <time>2020-06-09T11:08:25Z</time>
      </trkpt>
      <trkpt lat="48.41703" lon="-4.78699">
        <ele>43.9</ele>
        <time>2020-06-09T11:08:26Z</time>
      </trkpt>
      <trkpt lat="48.41704" lon="-4.78698">
        <ele>43.9</ele>
        <time>2020-06-09T11:08:27Z</time>
      </trkpt>
      <trkpt lat="48.41707" lon="-4.78695">
        <ele>43.9</ele>
        <time>2020-06-09T11:08:28Z</time>
      </trkpt>
      <trkpt lat="48.41709" lon="-4.78694">
        <ele>43.9</ele>
        <time>2020-06-09T11:08:29Z</time>
      </trkpt>
      <trkpt lat="48.41711" lon="-4.78693">
        <ele>44</ele>
        <time>2020-06-09T11:08:30Z</time>
      </trkpt>
      <trkpt lat="48.41714" lon="-4.78692">
        <ele>44</ele>
        <time>2020-06-09T11:08:31Z</time>
      </trkpt>
      <trkpt lat="48.41717" lon="-4.78691">
        <ele>43.9</ele>
        <time>2020-06-09T11:08:32Z</time>
      </trkpt>
      <trkpt lat="48.41721" lon="-4.78689">
        <ele>43.9</ele>
        <time>2020-06-09T11:08:33Z</time>
      </trkpt>
      <trkpt lat="48.41722" lon="-4.78688">
        <ele>43.9</ele>
        <time>2020-06-09T11:08:34Z</time>
      </trkpt>
      <trkpt lat="48.41723" lon="-4.78686">
        <ele>43.9</ele>
        <time>2020-06-09T11:08:35Z</time>
      </trkpt>
      <trkpt lat="48.41725" lon="-4.78686">
        <ele>43.8</ele>
        <time>2020-06-09T11:08:36Z</time>
      </trkpt>
      <trkpt lat="48.41728" lon="-4.78685">
        <ele>43.8</ele>
        <time>2020-06-09T11:08:37Z</time>
      </trkpt>
      <trkpt lat="48.41729" lon="-4.78684">
        <ele>43.7</ele>
        <time>2020-06-09T11:08:38Z</time>
      </trkpt>
      <trkpt lat="48.41732" lon="-4.78682">
        <ele>43.6</ele>
        <time>2020-06-09T11:08:39Z</time>
      </trkpt>
      <trkpt lat="48.41736" lon="-4.78681">
        <ele>43.5</ele>
        <time>2020-06-09T11:08:40Z</time>
      </trkpt>
      <trkpt lat="48.41738" lon="-4.7868">
        <ele>43.4</ele>
        <time>2020-06-09T11:08:41Z</time>
      </trkpt>
      <trkpt lat="48.41741" lon="-4.78678">
        <ele>43.2</ele>
        <time>2020-06-09T11:08:42Z</time>
      </trkpt>
      <trkpt lat="48.41744" lon="-4.78677">
        <ele>43.1</ele>
        <time>2020-06-09T11:08:43Z</time>
      </trkpt>
      <trkpt lat="48.41749" lon="-4.78675">
        <ele>42.8</ele>
        <time>2020-06-09T11:08:44Z</time>
      </trkpt>
      <trkpt lat="48.41753" lon="-4.78674">
        <ele>42.5</ele>
        <time>2020-06-09T11:08:45Z</time>
      </trkpt>
      <trkpt lat="48.41758" lon="-4.78673">
        <ele>42.2</ele>
        <time>2020-06-09T11:08:46Z</time>
      </trkpt>
      <trkpt lat="48.41763" lon="-4.78674">
        <ele>41.8</ele>
        <time>2020-06-09T11:08:47Z</time>
      </trkpt>
      <trkpt lat="48.41768" lon="-4.78675">
        <ele>41.7</ele>
        <time>2020-06-09T11:08:48Z</time>
      </trkpt>
      <trkpt lat="48.41774" lon="-4.78676">
        <ele>41</ele>
        <time>2020-06-09T11:08:49Z</time>
      </trkpt>
      <trkpt lat="48.41779" lon="-4.78677">
        <ele>40.4</ele>
        <time>2020-06-09T11:08:50Z</time>
      </trkpt>
      <trkpt lat="48.41785" lon="-4.78677">
        <ele>39.8</ele>
        <time>2020-06-09T11:08:51Z</time>
      </trkpt>
      <trkpt lat="48.4179" lon="-4.78679">
        <ele>39.2</ele>
        <time>2020-06-09T11:08:52Z</time>
      </trkpt>
      <trkpt lat="48.41796" lon="-4.78682">
        <ele>38.5</ele>
        <time>2020-06-09T11:08:53Z</time>
      </trkpt>
      <trkpt lat="48.41803" lon="-4.78684">
        <ele>37.8</ele>
        <time>2020-06-09T11:08:54Z</time>
      </trkpt>
      <trkpt lat="48.4181" lon="-4.78687">
        <ele>37</ele>
        <time>2020-06-09T11:08:55Z</time>
      </trkpt>
      <trkpt lat="48.41817" lon="-4.7869">
        <ele>36.2</ele>
        <time>2020-06-09T11:08:56Z</time>
      </trkpt>
      <trkpt lat="48.41823" lon="-4.78693">
        <ele>35.5</ele>
        <time>2020-06-09T11:08:57Z</time>
      </trkpt>
      <trkpt lat="48.41828" lon="-4.78695">
        <ele>34.9</ele>
        <time>2020-06-09T11:08:58Z</time>
      </trkpt>
      <trkpt lat="48.41832" lon="-4.78696">
        <ele>34.5</ele>
        <time>2020-06-09T11:08:59Z</time>
      </trkpt>
      <trkpt lat="48.41837" lon="-4.78698">
        <ele>33.7</ele>
        <time>2020-06-09T11:09:00Z</time>
      </trkpt>
      <trkpt lat="48.41841" lon="-4.78699">
        <ele>33.3</ele>
        <time>2020-06-09T11:09:01Z</time>
      </trkpt>
      <trkpt lat="48.41846" lon="-4.78701">
        <ele>32.8</ele>
        <time>2020-06-09T11:09:02Z</time>
      </trkpt>
      <trkpt lat="48.41852" lon="-4.78703">
        <ele>32.2</ele>
        <time>2020-06-09T11:09:03Z</time>
      </trkpt>
      <trkpt lat="48.41859" lon="-4.78705">
        <ele>31.6</ele>
        <time>2020-06-09T11:09:04Z</time>
      </trkpt>
      <trkpt lat="48.41865" lon="-4.78708">
        <ele>31.1</ele>
        <time>2020-06-09T11:09:05Z</time>
      </trkpt>
      <trkpt lat="48.41872" lon="-4.7871">
        <ele>30.5</ele>
        <time>2020-06-09T11:09:06Z</time>
      </trkpt>
      <trkpt lat="48.41879" lon="-4.78712">
        <ele>29.9</ele>
        <time>2020-06-09T11:09:07Z</time>
      </trkpt>
      <trkpt lat="48.41887" lon="-4.78714">
        <ele>29.2</ele>
        <time>2020-06-09T11:09:08Z</time>
      </trkpt>
      <trkpt lat="48.41896" lon="-4.78716">
        <ele>27.6</ele>
        <time>2020-06-09T11:09:09Z</time>
      </trkpt>
      <trkpt lat="48.41905" lon="-4.78719">
        <ele>26.9</ele>
        <time>2020-06-09T11:09:10Z</time>
      </trkpt>
      <trkpt lat="48.41915" lon="-4.78721">
        <ele>26.1</ele>
        <time>2020-06-09T11:09:11Z</time>
      </trkpt>
      <trkpt lat="48.41924" lon="-4.78722">
        <ele>25.4</ele>
        <time>2020-06-09T11:09:12Z</time>
      </trkpt>
      <trkpt lat="48.41935" lon="-4.78723">
        <ele>24.7</ele>
        <time>2020-06-09T11:09:13Z</time>
      </trkpt>
      <trkpt lat="48.41945" lon="-4.78724">
        <ele>24.2</ele>
        <time>2020-06-09T11:09:14Z</time>
      </trkpt>
      <trkpt lat="48.41955" lon="-4.78724">
        <ele>23.7</ele>
        <time>2020-06-09T11:09:15Z</time>
      </trkpt>
      <trkpt lat="48.41964" lon="-4.78725">
        <ele>23.2</ele>
        <time>2020-06-09T11:09:16Z</time>
      </trkpt>
      <trkpt lat="48.41974" lon="-4.78727">
        <ele>22.7</ele>
        <time>2020-06-09T11:09:17Z</time>
      </trkpt>
      <trkpt lat="48.41983" lon="-4.78728">
        <ele>22.2</ele>
        <time>2020-06-09T11:09:18Z</time>
      </trkpt>
      <trkpt lat="48.41993" lon="-4.78729">
        <ele>21.7</ele>
        <time>2020-06-09T11:09:19Z</time>
      </trkpt>
      <trkpt lat="48.42002" lon="-4.78729">
        <ele>21.2</ele>
        <time>2020-06-09T11:09:20Z</time>
      </trkpt>
      <trkpt lat="48.4201" lon="-4.7873">
        <ele>20.8</ele>
        <time>2020-06-09T11:09:21Z</time>
      </trkpt>
      <trkpt lat="48.42019" lon="-4.7873">
        <ele>20.5</ele>
        <time>2020-06-09T11:09:22Z</time>
      </trkpt>
      <trkpt lat="48.42027" lon="-4.78729">
        <ele>20.1</ele>
        <time>2020-06-09T11:09:23Z</time>
      </trkpt>
      <trkpt lat="48.42035" lon="-4.78729">
        <ele>19.8</ele>
        <time>2020-06-09T11:09:24Z</time>
      </trkpt>
      <trkpt lat="48.42043" lon="-4.78728">
        <ele>19.5</ele>
        <time>2020-06-09T11:09:25Z</time>
      </trkpt>
      <trkpt lat="48.4205" lon="-4.78728">
        <ele>19.2</ele>
        <time>2020-06-09T11:09:26Z</time>
      </trkpt>
      <trkpt lat="48.42058" lon="-4.78728">
        <ele>18.9</ele>
        <time>2020-06-09T11:09:27Z</time>
      </trkpt>
      <trkpt lat="48.42065" lon="-4.78728">
        <ele>18.6</ele>
        <time>2020-06-09T11:09:28Z</time>
      </trkpt>
      <trkpt lat="48.42073" lon="-4.78728">
        <ele>18.3</ele>
        <time>2020-06-09T11:09:29Z</time>
      </trkpt>
      <trkpt lat="48.4208" lon="-4.78727">
        <ele>18.1</ele>
        <time>2020-06-09T11:09:30Z</time>
      </trkpt>
      <trkpt lat="48.42088" lon="-4.78727">
        <ele>17.8</ele>
        <time>2020-06-09T11:09:31Z</time>
      </trkpt>
      <trkpt lat="48.42095" lon="-4.78728">
        <ele>17.6</ele>
        <time>2020-06-09T11:09:32Z</time>
      </trkpt>
      <trkpt lat="48.42103" lon="-4.78727">
        <ele>17.3</ele>
        <time>2020-06-09T11:09:33Z</time>
      </trkpt>
      <trkpt lat="48.4211" lon="-4.78727">
        <ele>17.1</ele>
        <time>2020-06-09T11:09:34Z</time>
      </trkpt>
      <trkpt lat="48.42117" lon="-4.78726">
        <ele>16.8</ele>
        <time>2020-06-09T11:09:35Z</time>
      </trkpt>
      <trkpt lat="48.42125" lon="-4.78726">
        <ele>16.6</ele>
        <time>2020-06-09T11:09:36Z</time>
      </trkpt>
      <trkpt lat="48.42132" lon="-4.78725">
        <ele>16.3</ele>
        <time>2020-06-09T11:09:37Z</time>
      </trkpt>
      <trkpt lat="48.4214" lon="-4.78725">
        <ele>16.1</ele>
        <time>2020-06-09T11:09:38Z</time>
      </trkpt>
      <trkpt lat="48.42147" lon="-4.78725">
        <ele>15.9</ele>
        <time>2020-06-09T11:09:39Z</time>
      </trkpt>
      <trkpt lat="48.42154" lon="-4.78726">
        <ele>15.8</ele>
        <time>2020-06-09T11:09:40Z</time>
      </trkpt>
      <trkpt lat="48.4216" lon="-4.78726">
        <ele>15.8</ele>
        <time>2020-06-09T11:09:41Z</time>
      </trkpt>
      <trkpt lat="48.42166" lon="-4.78727">
        <ele>15.8</ele>
        <time>2020-06-09T11:09:42Z</time>
      </trkpt>
      <trkpt lat="48.42171" lon="-4.78726">
        <ele>15.8</ele>
        <time>2020-06-09T11:09:43Z</time>
      </trkpt>
      <trkpt lat="48.42176" lon="-4.78726">
        <ele>15.9</ele>
        <time>2020-06-09T11:09:44Z</time>
      </trkpt>
      <trkpt lat="48.42182" lon="-4.78726">
        <ele>16</ele>
        <time>2020-06-09T11:09:45Z</time>
      </trkpt>
      <trkpt lat="48.42188" lon="-4.78727">
        <ele>16</ele>
        <time>2020-06-09T11:09:46Z</time>
      </trkpt>
      <trkpt lat="48.42193" lon="-4.78727">
        <ele>16.1</ele>
        <time>2020-06-09T11:09:47Z</time>
      </trkpt>
      <trkpt lat="48.42198" lon="-4.78726">
        <ele>16.1</ele>
        <time>2020-06-09T11:09:48Z</time>
      </trkpt>
      <trkpt lat="48.42202" lon="-4.78722">
        <ele>16.1</ele>
        <time>2020-06-09T11:09:49Z</time>
      </trkpt>
      <trkpt lat="48.42202" lon="-4.78717">
        <ele>16.4</ele>
        <time>2020-06-09T11:09:50Z</time>
      </trkpt>
      <trkpt lat="48.42202" lon="-4.78712">
        <ele>16.6</ele>
        <time>2020-06-09T11:09:51Z</time>
      </trkpt>
      <trkpt lat="48.42201" lon="-4.78707">
        <ele>16.7</ele>
        <time>2020-06-09T11:09:52Z</time>
      </trkpt>
      <trkpt lat="48.422" lon="-4.78704">
        <ele>16.9</ele>
        <time>2020-06-09T11:09:53Z</time>
      </trkpt>
      <trkpt lat="48.42198" lon="-4.78698">
        <ele>17.1</ele>
        <time>2020-06-09T11:09:54Z</time>
      </trkpt>
      <trkpt lat="48.42198" lon="-4.78697">
        <ele>17.1</ele>
        <time>2020-06-09T11:09:55Z</time>
      </trkpt>
      <trkpt lat="48.42195" lon="-4.78695">
        <ele>17.3</ele>
        <time>2020-06-09T11:09:56Z</time>
      </trkpt>
      <trkpt lat="48.42193" lon="-4.7869">
        <ele>17.4</ele>
        <time>2020-06-09T11:09:57Z</time>
      </trkpt>
      <trkpt lat="48.42193" lon="-4.78689">
        <ele>17.5</ele>
        <time>2020-06-09T11:09:58Z</time>
      </trkpt>
      <trkpt lat="48.42191" lon="-4.78686">
        <ele>17.6</ele>
        <time>2020-06-09T11:09:59Z</time>
      </trkpt>
      <trkpt lat="48.42191" lon="-4.78681">
        <ele>17.8</ele>
        <time>2020-06-09T11:10:00Z</time>
      </trkpt>
      <trkpt lat="48.42191" lon="-4.78679">
        <ele>17.8</ele>
        <time>2020-06-09T11:10:01Z</time>
      </trkpt>
      <trkpt lat="48.4219" lon="-4.78675">
        <ele>18</ele>
        <time>2020-06-09T11:10:02Z</time>
      </trkpt>
      <trkpt lat="48.4219" lon="-4.78673">
        <ele>18</ele>
        <time>2020-06-09T11:10:03Z</time>
      </trkpt>
      <trkpt lat="48.4219" lon="-4.78669">
        <ele>18.1</ele>
        <time>2020-06-09T11:10:04Z</time>
      </trkpt>
      <trkpt lat="48.4219" lon="-4.78667">
        <ele>18.2</ele>
        <time>2020-06-09T11:10:05Z</time>
      </trkpt>
      <trkpt lat="48.4219" lon="-4.78662">
        <ele>18.3</ele>
        <time>2020-06-09T11:10:06Z</time>
      </trkpt>
      <trkpt lat="48.42189" lon="-4.78661">
        <ele>18.5</ele>
        <time>2020-06-09T11:10:07Z</time>
      </trkpt>
      <trkpt lat="48.4219" lon="-4.78657">
        <ele>18.7</ele>
        <time>2020-06-09T11:10:08Z</time>
      </trkpt>
      <trkpt lat="48.4219" lon="-4.78655">
        <ele>18.8</ele>
        <time>2020-06-09T11:10:09Z</time>
      </trkpt>
      <trkpt lat="48.42191" lon="-4.78651">
        <ele>18.9</ele>
        <time>2020-06-09T11:10:10Z</time>
      </trkpt>
      <trkpt lat="48.42191" lon="-4.78649">
        <ele>19</ele>
        <time>2020-06-09T11:10:11Z</time>
      </trkpt>
      <trkpt lat="48.42191" lon="-4.78644">
        <ele>19.3</ele>
        <time>2020-06-09T11:10:12Z</time>
      </trkpt>
      <trkpt lat="48.42191" lon="-4.78643">
        <ele>19.3</ele>
        <time>2020-06-09T11:10:13Z</time>
      </trkpt>
      <trkpt lat="48.42192" lon="-4.78638">
        <ele>19.5</ele>
        <time>2020-06-09T11:10:14Z</time>
      </trkpt>
      <trkpt lat="48.42192" lon="-4.78637">
        <ele>19.5</ele>
        <time>2020-06-09T11:10:15Z</time>
      </trkpt>
      <trkpt lat="48.42193" lon="-4.78632">
        <ele>19.7</ele>
        <time>2020-06-09T11:10:16Z</time>
      </trkpt>
      <trkpt lat="48.42193" lon="-4.78631">
        <ele>19.8</ele>
        <time>2020-06-09T11:10:17Z</time>
      </trkpt>
      <trkpt lat="48.42194" lon="-4.78627">
        <ele>19.9</ele>
        <time>2020-06-09T11:10:18Z</time>
      </trkpt>
      <trkpt lat="48.42195" lon="-4.78625">
        <ele>20</ele>
        <time>2020-06-09T11:10:19Z</time>
      </trkpt>
      <trkpt lat="48.42196" lon="-4.78621">
        <ele>20.1</ele>
        <time>2020-06-09T11:10:20Z</time>
      </trkpt>
      <trkpt lat="48.42199" lon="-4.78619">
        <ele>20.9</ele>
        <time>2020-06-09T11:10:21Z</time>
      </trkpt>
      <trkpt lat="48.422" lon="-4.78618">
        <ele>21</ele>
        <time>2020-06-09T11:10:22Z</time>
      </trkpt>
      <trkpt lat="48.42202" lon="-4.78614">
        <ele>21.2</ele>
        <time>2020-06-09T11:10:23Z</time>
      </trkpt>
      <trkpt lat="48.42203" lon="-4.78614">
        <ele>21.2</ele>
        <time>2020-06-09T11:10:24Z</time>
      </trkpt>
      <trkpt lat="48.42207" lon="-4.78612">
        <ele>21.4</ele>
        <time>2020-06-09T11:10:25Z</time>
      </trkpt>
      <trkpt lat="48.42208" lon="-4.78611">
        <ele>21.5</ele>
        <time>2020-06-09T11:10:26Z</time>
      </trkpt>
      <trkpt lat="48.42212" lon="-4.78611">
        <ele>21.6</ele>
        <time>2020-06-09T11:10:27Z</time>
      </trkpt>
      <trkpt lat="48.42213" lon="-4.78611">
        <ele>21.7</ele>
        <time>2020-06-09T11:10:28Z</time>
      </trkpt>
      <trkpt lat="48.42217" lon="-4.78611">
        <ele>21.8</ele>
        <time>2020-06-09T11:10:29Z</time>
      </trkpt>
      <trkpt lat="48.42218" lon="-4.78611">
        <ele>21.9</ele>
        <time>2020-06-09T11:10:30Z</time>
      </trkpt>
      <trkpt lat="48.42221" lon="-4.78611">
        <ele>22</ele>
        <time>2020-06-09T11:10:31Z</time>
      </trkpt>
      <trkpt lat="48.42223" lon="-4.78611">
        <ele>22</ele>
        <time>2020-06-09T11:10:32Z</time>
      </trkpt>
      <trkpt lat="48.42226" lon="-4.7861">
        <ele>22.2</ele>
        <time>2020-06-09T11:10:33Z</time>
      </trkpt>
      <trkpt lat="48.42227" lon="-4.7861">
        <ele>22.2</ele>
        <time>2020-06-09T11:10:34Z</time>
      </trkpt>
      <trkpt lat="48.42231" lon="-4.7861">
        <ele>22.4</ele>
        <time>2020-06-09T11:10:35Z</time>
      </trkpt>
      <trkpt lat="48.42233" lon="-4.78609">
        <ele>22.4</ele>
        <time>2020-06-09T11:10:36Z</time>
      </trkpt>
      <trkpt lat="48.42235" lon="-4.78609">
        <ele>22.5</ele>
        <time>2020-06-09T11:10:37Z</time>
      </trkpt>
      <trkpt lat="48.42238" lon="-4.78609">
        <ele>22.6</ele>
        <time>2020-06-09T11:10:38Z</time>
      </trkpt>
      <trkpt lat="48.42241" lon="-4.78609">
        <ele>22.7</ele>
        <time>2020-06-09T11:10:39Z</time>
      </trkpt>
      <trkpt lat="48.42244" lon="-4.78608">
        <ele>22.8</ele>
        <time>2020-06-09T11:10:40Z</time>
      </trkpt>
      <trkpt lat="48.42247" lon="-4.78608">
        <ele>22.9</ele>
        <time>2020-06-09T11:10:41Z</time>
      </trkpt>
      <trkpt lat="48.4225" lon="-4.78608">
        <ele>23</ele>
        <time>2020-06-09T11:10:42Z</time>
      </trkpt>
      <trkpt lat="48.42252" lon="-4.78608">
        <ele>23.1</ele>
        <time>2020-06-09T11:10:43Z</time>
      </trkpt>
      <trkpt lat="48.42255" lon="-4.78609">
        <ele>23.2</ele>
        <time>2020-06-09T11:10:44Z</time>
      </trkpt>
      <trkpt lat="48.42257" lon="-4.78609">
        <ele>23.2</ele>
        <time>2020-06-09T11:10:45Z</time>
      </trkpt>
      <trkpt lat="48.42261" lon="-4.78609">
        <ele>23.3</ele>
        <time>2020-06-09T11:10:46Z</time>
      </trkpt>
      <trkpt lat="48.42262" lon="-4.78609">
        <ele>23.3</ele>
        <time>2020-06-09T11:10:47Z</time>
      </trkpt>
      <trkpt lat="48.42266" lon="-4.78609">
        <ele>23.4</ele>
        <time>2020-06-09T11:10:48Z</time>
      </trkpt>
      <trkpt lat="48.42267" lon="-4.78609">
        <ele>23.4</ele>
        <time>2020-06-09T11:10:49Z</time>
      </trkpt>
      <trkpt lat="48.42271" lon="-4.78609">
        <ele>23.4</ele>
        <time>2020-06-09T11:10:51Z</time>
      </trkpt>
      <trkpt lat="48.42272" lon="-4.78609">
        <ele>23.4</ele>
        <time>2020-06-09T11:10:52Z</time>
      </trkpt>
      <trkpt lat="48.42276" lon="-4.7861">
        <ele>23.4</ele>
        <time>2020-06-09T11:10:53Z</time>
      </trkpt>
      <trkpt lat="48.42277" lon="-4.78611">
        <ele>23.4</ele>
        <time>2020-06-09T11:10:54Z</time>
      </trkpt>
      <trkpt lat="48.42281" lon="-4.78611">
        <ele>23.4</ele>
        <time>2020-06-09T11:10:55Z</time>
      </trkpt>
      <trkpt lat="48.42282" lon="-4.7861">
        <ele>23.4</ele>
        <time>2020-06-09T11:10:56Z</time>
      </trkpt>
      <trkpt lat="48.42285" lon="-4.78609">
        <ele>23.4</ele>
        <time>2020-06-09T11:10:57Z</time>
      </trkpt>
      <trkpt lat="48.42288" lon="-4.78609">
        <ele>23.3</ele>
        <time>2020-06-09T11:10:58Z</time>
      </trkpt>
      <trkpt lat="48.42291" lon="-4.78609">
        <ele>23.3</ele>
        <time>2020-06-09T11:10:59Z</time>
      </trkpt>
      <trkpt lat="48.42294" lon="-4.78609">
        <ele>23.3</ele>
        <time>2020-06-09T11:11:00Z</time>
      </trkpt>
      <trkpt lat="48.42298" lon="-4.78608">
        <ele>23.2</ele>
        <time>2020-06-09T11:11:01Z</time>
      </trkpt>
      <trkpt lat="48.42302" lon="-4.78609">
        <ele>23.1</ele>
        <time>2020-06-09T11:11:02Z</time>
      </trkpt>
      <trkpt lat="48.42305" lon="-4.78609">
        <ele>23.1</ele>
        <time>2020-06-09T11:11:03Z</time>
      </trkpt>
      <trkpt lat="48.42309" lon="-4.7861">
        <ele>23</ele>
        <time>2020-06-09T11:11:04Z</time>
      </trkpt>
      <trkpt lat="48.42313" lon="-4.7861">
        <ele>22.9</ele>
        <time>2020-06-09T11:11:05Z</time>
      </trkpt>
      <trkpt lat="48.42316" lon="-4.7861">
        <ele>22.9</ele>
        <time>2020-06-09T11:11:06Z</time>
      </trkpt>
      <trkpt lat="48.4232" lon="-4.78609">
        <ele>22.8</ele>
        <time>2020-06-09T11:11:07Z</time>
      </trkpt>
      <trkpt lat="48.42323" lon="-4.78608">
        <ele>22.8</ele>
        <time>2020-06-09T11:11:08Z</time>
      </trkpt>
      <trkpt lat="48.42326" lon="-4.78607">
        <ele>22.7</ele>
        <time>2020-06-09T11:11:09Z</time>
      </trkpt>
      <trkpt lat="48.42328" lon="-4.78607">
        <ele>22.7</ele>
        <time>2020-06-09T11:11:10Z</time>
      </trkpt>
      <trkpt lat="48.42332" lon="-4.78608">
        <ele>22.6</ele>
        <time>2020-06-09T11:11:11Z</time>
      </trkpt>
      <trkpt lat="48.42335" lon="-4.7861">
        <ele>22.6</ele>
        <time>2020-06-09T11:11:12Z</time>
      </trkpt>
      <trkpt lat="48.42338" lon="-4.78611">
        <ele>22.5</ele>
        <time>2020-06-09T11:11:13Z</time>
      </trkpt>
      <trkpt lat="48.42341" lon="-4.78612">
        <ele>22.4</ele>
        <time>2020-06-09T11:11:14Z</time>
      </trkpt>
      <trkpt lat="48.42344" lon="-4.78612">
        <ele>22.3</ele>
        <time>2020-06-09T11:11:15Z</time>
      </trkpt>
      <trkpt lat="48.42347" lon="-4.78614">
        <ele>22.2</ele>
        <time>2020-06-09T11:11:16Z</time>
      </trkpt>
      <trkpt lat="48.4235" lon="-4.78614">
        <ele>22.2</ele>
        <time>2020-06-09T11:11:17Z</time>
      </trkpt>
      <trkpt lat="48.42353" lon="-4.78615">
        <ele>22.1</ele>
        <time>2020-06-09T11:11:18Z</time>
      </trkpt>
      <trkpt lat="48.42356" lon="-4.78615">
        <ele>22</ele>
        <time>2020-06-09T11:11:19Z</time>
      </trkpt>
      <trkpt lat="48.42359" lon="-4.78616">
        <ele>21.8</ele>
        <time>2020-06-09T11:11:20Z</time>
      </trkpt>
      <trkpt lat="48.42362" lon="-4.78616">
        <ele>21.7</ele>
        <time>2020-06-09T11:11:21Z</time>
      </trkpt>
      <trkpt lat="48.42365" lon="-4.78617">
        <ele>21.6</ele>
        <time>2020-06-09T11:11:22Z</time>
      </trkpt>
      <trkpt lat="48.42368" lon="-4.78617">
        <ele>21.5</ele>
        <time>2020-06-09T11:11:23Z</time>
      </trkpt>
      <trkpt lat="48.42372" lon="-4.78618">
        <ele>21.4</ele>
        <time>2020-06-09T11:11:24Z</time>
      </trkpt>
      <trkpt lat="48.42375" lon="-4.78619">
        <ele>21.3</ele>
        <time>2020-06-09T11:11:25Z</time>
      </trkpt>
      <trkpt lat="48.42379" lon="-4.7862">
        <ele>21.1</ele>
        <time>2020-06-09T11:11:26Z</time>
      </trkpt>
      <trkpt lat="48.42382" lon="-4.7862">
        <ele>21</ele>
        <time>2020-06-09T11:11:27Z</time>
      </trkpt>
      <trkpt lat="48.42386" lon="-4.78619">
        <ele>20.9</ele>
        <time>2020-06-09T11:11:28Z</time>
      </trkpt>
      <trkpt lat="48.4239" lon="-4.78618">
        <ele>20.7</ele>
        <time>2020-06-09T11:11:29Z</time>
      </trkpt>
      <trkpt lat="48.42395" lon="-4.78619">
        <ele>20.6</ele>
        <time>2020-06-09T11:11:30Z</time>
      </trkpt>
      <trkpt lat="48.42399" lon="-4.78619">
        <ele>20.4</ele>
        <time>2020-06-09T11:11:31Z</time>
      </trkpt>
      <trkpt lat="48.42404" lon="-4.7862">
        <ele>20.3</ele>
        <time>2020-06-09T11:11:32Z</time>
      </trkpt>
      <trkpt lat="48.42408" lon="-4.7862">
        <ele>20.1</ele>
        <time>2020-06-09T11:11:33Z</time>
      </trkpt>
      <trkpt lat="48.42413" lon="-4.78622">
        <ele>20</ele>
        <time>2020-06-09T11:11:34Z</time>
      </trkpt>
      <trkpt lat="48.42417" lon="-4.78624">
        <ele>19.8</ele>
        <time>2020-06-09T11:11:35Z</time>
      </trkpt>
      <trkpt lat="48.42422" lon="-4.78625">
        <ele>19.6</ele>
        <time>2020-06-09T11:11:36Z</time>
      </trkpt>
      <trkpt lat="48.42427" lon="-4.78626">
        <ele>19.5</ele>
        <time>2020-06-09T11:11:37Z</time>
      </trkpt>
      <trkpt lat="48.42432" lon="-4.78627">
        <ele>19.3</ele>
        <time>2020-06-09T11:11:38Z</time>
      </trkpt>
      <trkpt lat="48.42436" lon="-4.78628">
        <ele>19.2</ele>
        <time>2020-06-09T11:11:39Z</time>
      </trkpt>
      <trkpt lat="48.4244" lon="-4.7863">
        <ele>19.1</ele>
        <time>2020-06-09T11:11:40Z</time>
      </trkpt>
      <trkpt lat="48.42443" lon="-4.7863">
        <ele>19</ele>
        <time>2020-06-09T11:11:41Z</time>
      </trkpt>
      <trkpt lat="48.42447" lon="-4.78632">
        <ele>18.9</ele>
        <time>2020-06-09T11:11:42Z</time>
      </trkpt>
      <trkpt lat="48.4245" lon="-4.78634">
        <ele>18.8</ele>
        <time>2020-06-09T11:11:43Z</time>
      </trkpt>
      <trkpt lat="48.42453" lon="-4.78636">
        <ele>18.8</ele>
        <time>2020-06-09T11:11:44Z</time>
      </trkpt>
      <trkpt lat="48.42456" lon="-4.78638">
        <ele>18.8</ele>
        <time>2020-06-09T11:11:45Z</time>
      </trkpt>
      <trkpt lat="48.42459" lon="-4.78639">
        <ele>18.7</ele>
        <time>2020-06-09T11:11:46Z</time>
      </trkpt>
      <trkpt lat="48.42462" lon="-4.78639">
        <ele>18.7</ele>
        <time>2020-06-09T11:11:47Z</time>
      </trkpt>
      <trkpt lat="48.42463" lon="-4.7864">
        <ele>18.7</ele>
        <time>2020-06-09T11:11:48Z</time>
      </trkpt>
      <trkpt lat="48.42466" lon="-4.78639">
        <ele>18.6</ele>
        <time>2020-06-09T11:11:49Z</time>
      </trkpt>
      <trkpt lat="48.42467" lon="-4.78639">
        <ele>18.6</ele>
        <time>2020-06-09T11:11:50Z</time>
      </trkpt>
      <trkpt lat="48.42471" lon="-4.7864">
        <ele>18.6</ele>
        <time>2020-06-09T11:11:51Z</time>
      </trkpt>
      <trkpt lat="48.42472" lon="-4.7864">
        <ele>18.6</ele>
        <time>2020-06-09T11:11:52Z</time>
      </trkpt>
      <trkpt lat="48.42476" lon="-4.78641">
        <ele>18.5</ele>
        <time>2020-06-09T11:11:53Z</time>
      </trkpt>
      <trkpt lat="48.42477" lon="-4.78642">
        <ele>18.5</ele>
        <time>2020-06-09T11:11:54Z</time>
      </trkpt>
      <trkpt lat="48.42481" lon="-4.78642">
        <ele>18.5</ele>
        <time>2020-06-09T11:11:55Z</time>
      </trkpt>
      <trkpt lat="48.42482" lon="-4.78642">
        <ele>18.5</ele>
        <time>2020-06-09T11:11:56Z</time>
      </trkpt>
      <trkpt lat="48.42486" lon="-4.78642">
        <ele>18.5</ele>
        <time>2020-06-09T11:11:57Z</time>
      </trkpt>
      <trkpt lat="48.42488" lon="-4.78642">
        <ele>18.4</ele>
        <time>2020-06-09T11:11:58Z</time>
      </trkpt>
      <trkpt lat="48.42492" lon="-4.78642">
        <ele>18.4</ele>
        <time>2020-06-09T11:11:59Z</time>
      </trkpt>
      <trkpt lat="48.42493" lon="-4.78642">
        <ele>18.4</ele>
        <time>2020-06-09T11:12:00Z</time>
      </trkpt>
      <trkpt lat="48.42496" lon="-4.78641">
        <ele>18.4</ele>
        <time>2020-06-09T11:12:01Z</time>
      </trkpt>
      <trkpt lat="48.425" lon="-4.78642">
        <ele>18.4</ele>
        <time>2020-06-09T11:12:02Z</time>
      </trkpt>
      <trkpt lat="48.42501" lon="-4.78642">
        <ele>18.4</ele>
        <time>2020-06-09T11:12:03Z</time>
      </trkpt>
      <trkpt lat="48.42504" lon="-4.78642">
        <ele>18.4</ele>
        <time>2020-06-09T11:12:04Z</time>
      </trkpt>
      <trkpt lat="48.42507" lon="-4.78642">
        <ele>18.4</ele>
        <time>2020-06-09T11:12:05Z</time>
      </trkpt>
      <trkpt lat="48.4251" lon="-4.78642">
        <ele>18.4</ele>
        <time>2020-06-09T11:12:06Z</time>
      </trkpt>
      <trkpt lat="48.42512" lon="-4.78642">
        <ele>18.4</ele>
        <time>2020-06-09T11:12:07Z</time>
      </trkpt>
      <trkpt lat="48.42516" lon="-4.78641">
        <ele>18.4</ele>
        <time>2020-06-09T11:12:08Z</time>
      </trkpt>
      <trkpt lat="48.42518" lon="-4.78641">
        <ele>18.4</ele>
        <time>2020-06-09T11:12:09Z</time>
      </trkpt>
      <trkpt lat="48.42522" lon="-4.7864">
        <ele>18.4</ele>
        <time>2020-06-09T11:12:10Z</time>
      </trkpt>
      <trkpt lat="48.42523" lon="-4.78641">
        <ele>18.4</ele>
        <time>2020-06-09T11:12:11Z</time>
      </trkpt>
      <trkpt lat="48.42526" lon="-4.78642">
        <ele>18.5</ele>
        <time>2020-06-09T11:12:12Z</time>
      </trkpt>
      <trkpt lat="48.42528" lon="-4.78642">
        <ele>18.5</ele>
        <time>2020-06-09T11:12:13Z</time>
      </trkpt>
      <trkpt lat="48.42531" lon="-4.78641">
        <ele>18.5</ele>
        <time>2020-06-09T11:12:14Z</time>
      </trkpt>
      <trkpt lat="48.42533" lon="-4.7864">
        <ele>18.5</ele>
        <time>2020-06-09T11:12:15Z</time>
      </trkpt>
      <trkpt lat="48.42536" lon="-4.7864">
        <ele>18.5</ele>
        <time>2020-06-09T11:12:16Z</time>
      </trkpt>
      <trkpt lat="48.42539" lon="-4.78641">
        <ele>18.6</ele>
        <time>2020-06-09T11:12:17Z</time>
      </trkpt>
      <trkpt lat="48.42541" lon="-4.78641">
        <ele>18.6</ele>
        <time>2020-06-09T11:12:18Z</time>
      </trkpt>
      <trkpt lat="48.42543" lon="-4.78642">
        <ele>18.6</ele>
        <time>2020-06-09T11:12:19Z</time>
      </trkpt>
      <trkpt lat="48.42546" lon="-4.78642">
        <ele>18.6</ele>
        <time>2020-06-09T11:12:20Z</time>
      </trkpt>
      <trkpt lat="48.42549" lon="-4.78642">
        <ele>18.6</ele>
        <time>2020-06-09T11:12:21Z</time>
      </trkpt>
      <trkpt lat="48.42552" lon="-4.78641">
        <ele>18.5</ele>
        <time>2020-06-09T11:12:22Z</time>
      </trkpt>
      <trkpt lat="48.42556" lon="-4.78642">
        <ele>18.5</ele>
        <time>2020-06-09T11:12:23Z</time>
      </trkpt>
      <trkpt lat="48.42559" lon="-4.78641">
        <ele>18.5</ele>
        <time>2020-06-09T11:12:24Z</time>
      </trkpt>
      <trkpt lat="48.42563" lon="-4.7864">
        <ele>18.5</ele>
        <time>2020-06-09T11:12:25Z</time>
      </trkpt>
      <trkpt lat="48.42566" lon="-4.78639">
        <ele>18.5</ele>
        <time>2020-06-09T11:12:26Z</time>
      </trkpt>
      <trkpt lat="48.42569" lon="-4.7864">
        <ele>18.5</ele>
        <time>2020-06-09T11:12:27Z</time>
      </trkpt>
      <trkpt lat="48.42572" lon="-4.78639">
        <ele>18.5</ele>
        <time>2020-06-09T11:12:28Z</time>
      </trkpt>
      <trkpt lat="48.42575" lon="-4.78639">
        <ele>18.5</ele>
        <time>2020-06-09T11:12:29Z</time>
      </trkpt>
      <trkpt lat="48.42577" lon="-4.78639">
        <ele>18.5</ele>
        <time>2020-06-09T11:12:30Z</time>
      </trkpt>
      <trkpt lat="48.4258" lon="-4.7864">
        <ele>18.5</ele>
        <time>2020-06-09T11:12:31Z</time>
      </trkpt>
      <trkpt lat="48.42583" lon="-4.7864">
        <ele>18.6</ele>
        <time>2020-06-09T11:12:32Z</time>
      </trkpt>
      <trkpt lat="48.42586" lon="-4.78639">
        <ele>18.6</ele>
        <time>2020-06-09T11:12:33Z</time>
      </trkpt>
      <trkpt lat="48.42589" lon="-4.78637">
        <ele>18.6</ele>
        <time>2020-06-09T11:12:34Z</time>
      </trkpt>
      <trkpt lat="48.42591" lon="-4.78638">
        <ele>18.6</ele>
        <time>2020-06-09T11:12:35Z</time>
      </trkpt>
      <trkpt lat="48.42594" lon="-4.78638">
        <ele>18.6</ele>
        <time>2020-06-09T11:12:36Z</time>
      </trkpt>
      <trkpt lat="48.42597" lon="-4.78637">
        <ele>18.6</ele>
        <time>2020-06-09T11:12:37Z</time>
      </trkpt>
      <trkpt lat="48.426" lon="-4.78638">
        <ele>18.6</ele>
        <time>2020-06-09T11:12:38Z</time>
      </trkpt>
      <trkpt lat="48.42603" lon="-4.78638">
        <ele>18.6</ele>
        <time>2020-06-09T11:12:39Z</time>
      </trkpt>
      <trkpt lat="48.42606" lon="-4.78638">
        <ele>18.6</ele>
        <time>2020-06-09T11:12:40Z</time>
      </trkpt>
      <trkpt lat="48.42609" lon="-4.78638">
        <ele>18.6</ele>
        <time>2020-06-09T11:12:41Z</time>
      </trkpt>
      <trkpt lat="48.42612" lon="-4.78638">
        <ele>18.7</ele>
        <time>2020-06-09T11:12:42Z</time>
      </trkpt>
      <trkpt lat="48.42615" lon="-4.78638">
        <ele>18.7</ele>
        <time>2020-06-09T11:12:43Z</time>
      </trkpt>
      <trkpt lat="48.42618" lon="-4.78638">
        <ele>18.7</ele>
        <time>2020-06-09T11:12:44Z</time>
      </trkpt>
      <trkpt lat="48.42622" lon="-4.78637">
        <ele>18.7</ele>
        <time>2020-06-09T11:12:45Z</time>
      </trkpt>
      <trkpt lat="48.42625" lon="-4.78638">
        <ele>18.7</ele>
        <time>2020-06-09T11:12:46Z</time>
      </trkpt>
      <trkpt lat="48.42628" lon="-4.78638">
        <ele>18.7</ele>
        <time>2020-06-09T11:12:47Z</time>
      </trkpt>
      <trkpt lat="48.42631" lon="-4.78638">
        <ele>18.8</ele>
        <time>2020-06-09T11:12:48Z</time>
      </trkpt>
      <trkpt lat="48.42634" lon="-4.78638">
        <ele>18.8</ele>
        <time>2020-06-09T11:12:49Z</time>
      </trkpt>
      <trkpt lat="48.42637" lon="-4.78639">
        <ele>18.9</ele>
        <time>2020-06-09T11:12:50Z</time>
      </trkpt>
      <trkpt lat="48.4264" lon="-4.78638">
        <ele>18.9</ele>
        <time>2020-06-09T11:12:51Z</time>
      </trkpt>
      <trkpt lat="48.42643" lon="-4.78638">
        <ele>19</ele>
        <time>2020-06-09T11:12:52Z</time>
      </trkpt>
      <trkpt lat="48.42647" lon="-4.78637">
        <ele>19.1</ele>
        <time>2020-06-09T11:12:53Z</time>
      </trkpt>
      <trkpt lat="48.42648" lon="-4.78637">
        <ele>19.1</ele>
        <time>2020-06-09T11:12:54Z</time>
      </trkpt>
      <trkpt lat="48.42651" lon="-4.78635">
        <ele>19.2</ele>
        <time>2020-06-09T11:12:55Z</time>
      </trkpt>
      <trkpt lat="48.42653" lon="-4.78634">
        <ele>19.3</ele>
        <time>2020-06-09T11:12:56Z</time>
      </trkpt>
      <trkpt lat="48.42656" lon="-4.78634">
        <ele>19.4</ele>
        <time>2020-06-09T11:12:57Z</time>
      </trkpt>
      <trkpt lat="48.42657" lon="-4.78633">
        <ele>19.4</ele>
        <time>2020-06-09T11:12:58Z</time>
      </trkpt>
      <trkpt lat="48.4266" lon="-4.78633">
        <ele>19.5</ele>
        <time>2020-06-09T11:12:59Z</time>
      </trkpt>
      <trkpt lat="48.42661" lon="-4.78632">
        <ele>19.5</ele>
        <time>2020-06-09T11:13:00Z</time>
      </trkpt>
      <trkpt lat="48.42664" lon="-4.7863">
        <ele>19.6</ele>
        <time>2020-06-09T11:13:01Z</time>
      </trkpt>
      <trkpt lat="48.42665" lon="-4.78629">
        <ele>19.7</ele>
        <time>2020-06-09T11:13:02Z</time>
      </trkpt>
      <trkpt lat="48.42669" lon="-4.78627">
        <ele>19.8</ele>
        <time>2020-06-09T11:13:03Z</time>
      </trkpt>
      <trkpt lat="48.4267" lon="-4.78627">
        <ele>19.8</ele>
        <time>2020-06-09T11:13:04Z</time>
      </trkpt>
      <trkpt lat="48.42674" lon="-4.78625">
        <ele>19.9</ele>
        <time>2020-06-09T11:13:05Z</time>
      </trkpt>
      <trkpt lat="48.42675" lon="-4.78624">
        <ele>19.9</ele>
        <time>2020-06-09T11:13:06Z</time>
      </trkpt>
      <trkpt lat="48.42678" lon="-4.78622">
        <ele>20</ele>
        <time>2020-06-09T11:13:07Z</time>
      </trkpt>
      <trkpt lat="48.42679" lon="-4.78622">
        <ele>20</ele>
        <time>2020-06-09T11:13:08Z</time>
      </trkpt>
      <trkpt lat="48.42683" lon="-4.78619">
        <ele>20</ele>
        <time>2020-06-09T11:13:09Z</time>
      </trkpt>
      <trkpt lat="48.42684" lon="-4.78619">
        <ele>20</ele>
        <time>2020-06-09T11:13:10Z</time>
      </trkpt>
      <trkpt lat="48.42686" lon="-4.78618">
        <ele>20</ele>
        <time>2020-06-09T11:13:11Z</time>
      </trkpt>
      <trkpt lat="48.4269" lon="-4.78617">
        <ele>20</ele>
        <time>2020-06-09T11:13:12Z</time>
      </trkpt>
      <trkpt lat="48.42692" lon="-4.78617">
        <ele>20</ele>
        <time>2020-06-09T11:13:13Z</time>
      </trkpt>
      <trkpt lat="48.42696" lon="-4.78616">
        <ele>19.9</ele>
        <time>2020-06-09T11:13:14Z</time>
      </trkpt>
      <trkpt lat="48.42697" lon="-4.78616">
        <ele>19.9</ele>
        <time>2020-06-09T11:13:15Z</time>
      </trkpt>
      <trkpt lat="48.42701" lon="-4.78614">
        <ele>19.8</ele>
        <time>2020-06-09T11:13:16Z</time>
      </trkpt>
      <trkpt lat="48.42704" lon="-4.78613">
        <ele>19.8</ele>
        <time>2020-06-09T11:13:17Z</time>
      </trkpt>
      <trkpt lat="48.42708" lon="-4.78612">
        <ele>19.8</ele>
        <time>2020-06-09T11:13:18Z</time>
      </trkpt>
      <trkpt lat="48.42712" lon="-4.78611">
        <ele>19.7</ele>
        <time>2020-06-09T11:13:19Z</time>
      </trkpt>
      <trkpt lat="48.42717" lon="-4.78611">
        <ele>19.6</ele>
        <time>2020-06-09T11:13:20Z</time>
      </trkpt>
      <trkpt lat="48.42722" lon="-4.7861">
        <ele>19.4</ele>
        <time>2020-06-09T11:13:21Z</time>
      </trkpt>
      <trkpt lat="48.42727" lon="-4.78609">
        <ele>19.3</ele>
        <time>2020-06-09T11:13:22Z</time>
      </trkpt>
      <trkpt lat="48.42733" lon="-4.78608">
        <ele>19.1</ele>
        <time>2020-06-09T11:13:23Z</time>
      </trkpt>
      <trkpt lat="48.42737" lon="-4.78606">
        <ele>19</ele>
        <time>2020-06-09T11:13:24Z</time>
      </trkpt>
      <trkpt lat="48.42743" lon="-4.78605">
        <ele>18.8</ele>
        <time>2020-06-09T11:13:25Z</time>
      </trkpt>
      <trkpt lat="48.42749" lon="-4.78603">
        <ele>18.7</ele>
        <time>2020-06-09T11:13:26Z</time>
      </trkpt>
      <trkpt lat="48.42754" lon="-4.78602">
        <ele>18.6</ele>
        <time>2020-06-09T11:13:27Z</time>
      </trkpt>
      <trkpt lat="48.4276" lon="-4.78601">
        <ele>18.5</ele>
        <time>2020-06-09T11:13:28Z</time>
      </trkpt>
      <trkpt lat="48.42765" lon="-4.78599">
        <ele>18.4</ele>
        <time>2020-06-09T11:13:29Z</time>
      </trkpt>
      <trkpt lat="48.4277" lon="-4.78598">
        <ele>18.3</ele>
        <time>2020-06-09T11:13:30Z</time>
      </trkpt>
      <trkpt lat="48.42775" lon="-4.78597">
        <ele>18.2</ele>
        <time>2020-06-09T11:13:31Z</time>
      </trkpt>
      <trkpt lat="48.4278" lon="-4.78596">
        <ele>18.2</ele>
        <time>2020-06-09T11:13:32Z</time>
      </trkpt>
      <trkpt lat="48.42785" lon="-4.78594">
        <ele>18.2</ele>
        <time>2020-06-09T11:13:33Z</time>
      </trkpt>
      <trkpt lat="48.4279" lon="-4.78593">
        <ele>18.2</ele>
        <time>2020-06-09T11:13:34Z</time>
      </trkpt>
      <trkpt lat="48.42795" lon="-4.78592">
        <ele>18.2</ele>
        <time>2020-06-09T11:13:35Z</time>
      </trkpt>
      <trkpt lat="48.42799" lon="-4.78592">
        <ele>18.2</ele>
        <time>2020-06-09T11:13:36Z</time>
      </trkpt>
      <trkpt lat="48.42804" lon="-4.78591">
        <ele>18.2</ele>
        <time>2020-06-09T11:13:37Z</time>
      </trkpt>
      <trkpt lat="48.42809" lon="-4.7859">
        <ele>18.2</ele>
        <time>2020-06-09T11:13:38Z</time>
      </trkpt>
      <trkpt lat="48.42813" lon="-4.7859">
        <ele>18.2</ele>
        <time>2020-06-09T11:13:39Z</time>
      </trkpt>
      <trkpt lat="48.42817" lon="-4.78588">
        <ele>18.3</ele>
        <time>2020-06-09T11:13:40Z</time>
      </trkpt>
      <trkpt lat="48.42822" lon="-4.78587">
        <ele>18.3</ele>
        <time>2020-06-09T11:13:41Z</time>
      </trkpt>
      <trkpt lat="48.42826" lon="-4.78587">
        <ele>18.3</ele>
        <time>2020-06-09T11:13:42Z</time>
      </trkpt>
      <trkpt lat="48.4283" lon="-4.78586">
        <ele>18.4</ele>
        <time>2020-06-09T11:13:43Z</time>
      </trkpt>
      <trkpt lat="48.42833" lon="-4.78585">
        <ele>18.4</ele>
        <time>2020-06-09T11:13:44Z</time>
      </trkpt>
      <trkpt lat="48.42837" lon="-4.78584">
        <ele>18.5</ele>
        <time>2020-06-09T11:13:45Z</time>
      </trkpt>
      <trkpt lat="48.42842" lon="-4.78583">
        <ele>18.6</ele>
        <time>2020-06-09T11:13:46Z</time>
      </trkpt>
      <trkpt lat="48.42845" lon="-4.78582">
        <ele>18.7</ele>
        <time>2020-06-09T11:13:47Z</time>
      </trkpt>
      <trkpt lat="48.42849" lon="-4.78581">
        <ele>18.8</ele>
        <time>2020-06-09T11:13:48Z</time>
      </trkpt>
      <trkpt lat="48.42853" lon="-4.7858">
        <ele>18.9</ele>
        <time>2020-06-09T11:13:49Z</time>
      </trkpt>
      <trkpt lat="48.42856" lon="-4.78579">
        <ele>19</ele>
        <time>2020-06-09T11:13:50Z</time>
      </trkpt>
      <trkpt lat="48.4286" lon="-4.78576">
        <ele>19.1</ele>
        <time>2020-06-09T11:13:51Z</time>
      </trkpt>
      <trkpt lat="48.42863" lon="-4.78574">
        <ele>19.2</ele>
        <time>2020-06-09T11:13:52Z</time>
      </trkpt>
      <trkpt lat="48.42867" lon="-4.78572">
        <ele>19.4</ele>
        <time>2020-06-09T11:13:53Z</time>
      </trkpt>
      <trkpt lat="48.42869" lon="-4.7857">
        <ele>19.5</ele>
        <time>2020-06-09T11:13:54Z</time>
      </trkpt>
      <trkpt lat="48.42872" lon="-4.78569">
        <ele>19.6</ele>
        <time>2020-06-09T11:13:55Z</time>
      </trkpt>
      <trkpt lat="48.42875" lon="-4.78567">
        <ele>19.8</ele>
        <time>2020-06-09T11:13:56Z</time>
      </trkpt>
      <trkpt lat="48.42877" lon="-4.78564">
        <ele>19.9</ele>
        <time>2020-06-09T11:13:57Z</time>
      </trkpt>
      <trkpt lat="48.4288" lon="-4.7856">
        <ele>20</ele>
        <time>2020-06-09T11:13:58Z</time>
      </trkpt>
      <trkpt lat="48.42881" lon="-4.78559">
        <ele>20.1</ele>
        <time>2020-06-09T11:13:59Z</time>
      </trkpt>
      <trkpt lat="48.42883" lon="-4.78554">
        <ele>20.2</ele>
        <time>2020-06-09T11:14:00Z</time>
      </trkpt>
      <trkpt lat="48.42884" lon="-4.78553">
        <ele>20.2</ele>
        <time>2020-06-09T11:14:01Z</time>
      </trkpt>
      <trkpt lat="48.42885" lon="-4.78549">
        <ele>20.3</ele>
        <time>2020-06-09T11:14:02Z</time>
      </trkpt>
      <trkpt lat="48.42886" lon="-4.78547">
        <ele>20.3</ele>
        <time>2020-06-09T11:14:03Z</time>
      </trkpt>
      <trkpt lat="48.42888" lon="-4.78542">
        <ele>20.3</ele>
        <time>2020-06-09T11:14:04Z</time>
      </trkpt>
      <trkpt lat="48.42888" lon="-4.7854">
        <ele>20.3</ele>
        <time>2020-06-09T11:14:05Z</time>
      </trkpt>
      <trkpt lat="48.42889" lon="-4.78535">
        <ele>20.3</ele>
        <time>2020-06-09T11:14:06Z</time>
      </trkpt>
      <trkpt lat="48.42889" lon="-4.7853">
        <ele>20.2</ele>
        <time>2020-06-09T11:14:07Z</time>
      </trkpt>
      <trkpt lat="48.42889" lon="-4.78524">
        <ele>20.1</ele>
        <time>2020-06-09T11:14:08Z</time>
      </trkpt>
      <trkpt lat="48.42888" lon="-4.78517">
        <ele>20</ele>
        <time>2020-06-09T11:14:09Z</time>
      </trkpt>
      <trkpt lat="48.42887" lon="-4.7851">
        <ele>19.8</ele>
        <time>2020-06-09T11:14:10Z</time>
      </trkpt>
      <trkpt lat="48.42887" lon="-4.78501">
        <ele>19.6</ele>
        <time>2020-06-09T11:14:11Z</time>
      </trkpt>
      <trkpt lat="48.42888" lon="-4.78493">
        <ele>19.4</ele>
        <time>2020-06-09T11:14:12Z</time>
      </trkpt>
      <trkpt lat="48.42887" lon="-4.78485">
        <ele>19.2</ele>
        <time>2020-06-09T11:14:13Z</time>
      </trkpt>
      <trkpt lat="48.42887" lon="-4.78478">
        <ele>19</ele>
        <time>2020-06-09T11:14:14Z</time>
      </trkpt>
      <trkpt lat="48.42887" lon="-4.78471">
        <ele>18.8</ele>
        <time>2020-06-09T11:14:15Z</time>
      </trkpt>
      <trkpt lat="48.42886" lon="-4.78464">
        <ele>18.7</ele>
        <time>2020-06-09T11:14:16Z</time>
      </trkpt>
      <trkpt lat="48.42885" lon="-4.78458">
        <ele>18.5</ele>
        <time>2020-06-09T11:14:17Z</time>
      </trkpt>
      <trkpt lat="48.42883" lon="-4.78451">
        <ele>18.4</ele>
        <time>2020-06-09T11:14:18Z</time>
      </trkpt>
      <trkpt lat="48.4288" lon="-4.78444">
        <ele>18.2</ele>
        <time>2020-06-09T11:14:19Z</time>
      </trkpt>
      <trkpt lat="48.42879" lon="-4.78435">
        <ele>18.1</ele>
        <time>2020-06-09T11:14:20Z</time>
      </trkpt>
      <trkpt lat="48.42878" lon="-4.78428">
        <ele>18.1</ele>
        <time>2020-06-09T11:14:21Z</time>
      </trkpt>
      <trkpt lat="48.42877" lon="-4.7842">
        <ele>18</ele>
        <time>2020-06-09T11:14:22Z</time>
      </trkpt>
      <trkpt lat="48.42873" lon="-4.78415">
        <ele>18</ele>
        <time>2020-06-09T11:14:23Z</time>
      </trkpt>
      <trkpt lat="48.42871" lon="-4.78409">
        <ele>18</ele>
        <time>2020-06-09T11:14:24Z</time>
      </trkpt>
      <trkpt lat="48.4287" lon="-4.78403">
        <ele>17.9</ele>
        <time>2020-06-09T11:14:25Z</time>
      </trkpt>
      <trkpt lat="48.42868" lon="-4.78397">
        <ele>17.9</ele>
        <time>2020-06-09T11:14:26Z</time>
      </trkpt>
      <trkpt lat="48.42865" lon="-4.78391">
        <ele>17.8</ele>
        <time>2020-06-09T11:14:27Z</time>
      </trkpt>
      <trkpt lat="48.42863" lon="-4.78385">
        <ele>17.7</ele>
        <time>2020-06-09T11:14:28Z</time>
      </trkpt>
      <trkpt lat="48.42862" lon="-4.78379">
        <ele>17.6</ele>
        <time>2020-06-09T11:14:29Z</time>
      </trkpt>
      <trkpt lat="48.4286" lon="-4.78373">
        <ele>17.6</ele>
        <time>2020-06-09T11:14:30Z</time>
      </trkpt>
      <trkpt lat="48.42856" lon="-4.78362">
        <ele>17.4</ele>
        <time>2020-06-09T11:14:31Z</time>
      </trkpt>
      <trkpt lat="48.42853" lon="-4.78355">
        <ele>17.3</ele>
        <time>2020-06-09T11:14:32Z</time>
      </trkpt>
      <trkpt lat="48.4285" lon="-4.78351">
        <ele>17.2</ele>
        <time>2020-06-09T11:14:33Z</time>
      </trkpt>
      <trkpt lat="48.42847" lon="-4.78344">
        <ele>17.1</ele>
        <time>2020-06-09T11:14:34Z</time>
      </trkpt>
      <trkpt lat="48.42843" lon="-4.78333">
        <ele>17</ele>
        <time>2020-06-09T11:14:36Z</time>
      </trkpt>
      <trkpt lat="48.42839" lon="-4.78328">
        <ele>16.9</ele>
        <time>2020-06-09T11:14:37Z</time>
      </trkpt>
      <trkpt lat="48.42836" lon="-4.78323">
        <ele>16.9</ele>
        <time>2020-06-09T11:14:38Z</time>
      </trkpt>
      <trkpt lat="48.42834" lon="-4.78318">
        <ele>16.8</ele>
        <time>2020-06-09T11:14:39Z</time>
      </trkpt>
      <trkpt lat="48.42831" lon="-4.78315">
        <ele>16.8</ele>
        <time>2020-06-09T11:14:40Z</time>
      </trkpt>
      <trkpt lat="48.42828" lon="-4.7831">
        <ele>16.8</ele>
        <time>2020-06-09T11:14:41Z</time>
      </trkpt>
      <trkpt lat="48.42826" lon="-4.78306">
        <ele>16.8</ele>
        <time>2020-06-09T11:14:42Z</time>
      </trkpt>
      <trkpt lat="48.42824" lon="-4.78302">
        <ele>16.8</ele>
        <time>2020-06-09T11:14:43Z</time>
      </trkpt>
      <trkpt lat="48.42821" lon="-4.78297">
        <ele>16.8</ele>
        <time>2020-06-09T11:14:44Z</time>
      </trkpt>
      <trkpt lat="48.42819" lon="-4.78293">
        <ele>16.9</ele>
        <time>2020-06-09T11:14:45Z</time>
      </trkpt>
      <trkpt lat="48.42816" lon="-4.78289">
        <ele>16.9</ele>
        <time>2020-06-09T11:14:46Z</time>
      </trkpt>
      <trkpt lat="48.42814" lon="-4.78285">
        <ele>17</ele>
        <time>2020-06-09T11:14:47Z</time>
      </trkpt>
      <trkpt lat="48.42811" lon="-4.78281">
        <ele>17.1</ele>
        <time>2020-06-09T11:14:48Z</time>
      </trkpt>
      <trkpt lat="48.42808" lon="-4.78278">
        <ele>17.2</ele>
        <time>2020-06-09T11:14:49Z</time>
      </trkpt>
      <trkpt lat="48.42806" lon="-4.78275">
        <ele>17.2</ele>
        <time>2020-06-09T11:14:50Z</time>
      </trkpt>
      <trkpt lat="48.42803" lon="-4.78272">
        <ele>17.4</ele>
        <time>2020-06-09T11:14:51Z</time>
      </trkpt>
      <trkpt lat="48.42799" lon="-4.7827">
        <ele>17.5</ele>
        <time>2020-06-09T11:14:52Z</time>
      </trkpt>
      <trkpt lat="48.42797" lon="-4.78269">
        <ele>17.5</ele>
        <time>2020-06-09T11:14:53Z</time>
      </trkpt>
      <trkpt lat="48.42795" lon="-4.78266">
        <ele>17.6</ele>
        <time>2020-06-09T11:14:54Z</time>
      </trkpt>
      <trkpt lat="48.42792" lon="-4.78262">
        <ele>17.8</ele>
        <time>2020-06-09T11:14:55Z</time>
      </trkpt>
      <trkpt lat="48.42791" lon="-4.78261">
        <ele>17.9</ele>
        <time>2020-06-09T11:14:56Z</time>
      </trkpt>
      <trkpt lat="48.42788" lon="-4.78257">
        <ele>18</ele>
        <time>2020-06-09T11:14:57Z</time>
      </trkpt>
      <trkpt lat="48.42786" lon="-4.78256">
        <ele>18.1</ele>
        <time>2020-06-09T11:14:58Z</time>
      </trkpt>
      <trkpt lat="48.42783" lon="-4.78252">
        <ele>18.3</ele>
        <time>2020-06-09T11:14:59Z</time>
      </trkpt>
      <trkpt lat="48.42782" lon="-4.78251">
        <ele>18.3</ele>
        <time>2020-06-09T11:15:00Z</time>
      </trkpt>
      <trkpt lat="48.42779" lon="-4.78248">
        <ele>18.5</ele>
        <time>2020-06-09T11:15:01Z</time>
      </trkpt>
      <trkpt lat="48.42778" lon="-4.78247">
        <ele>18.5</ele>
        <time>2020-06-09T11:15:02Z</time>
      </trkpt>
      <trkpt lat="48.42777" lon="-4.78245">
        <ele>18.6</ele>
        <time>2020-06-09T11:15:03Z</time>
      </trkpt>
      <trkpt lat="48.42777" lon="-4.78244">
        <ele>18.7</ele>
        <time>2020-06-09T11:15:04Z</time>
      </trkpt>
      <trkpt lat="48.42776" lon="-4.78244">
        <ele>18.7</ele>
        <time>2020-06-09T11:15:05Z</time>
      </trkpt>
      <trkpt lat="48.42773" lon="-4.78241">
        <ele>18.9</ele>
        <time>2020-06-09T11:15:06Z</time>
      </trkpt>
      <trkpt lat="48.42772" lon="-4.7824">
        <ele>18.9</ele>
        <time>2020-06-09T11:15:07Z</time>
      </trkpt>
      <trkpt lat="48.4277" lon="-4.78236">
        <ele>19.1</ele>
        <time>2020-06-09T11:15:08Z</time>
      </trkpt>
      <trkpt lat="48.42769" lon="-4.78235">
        <ele>19.1</ele>
        <time>2020-06-09T11:15:09Z</time>
      </trkpt>
      <trkpt lat="48.42766" lon="-4.78231">
        <ele>19.3</ele>
        <time>2020-06-09T11:15:10Z</time>
      </trkpt>
      <trkpt lat="48.42765" lon="-4.7823">
        <ele>19.4</ele>
        <time>2020-06-09T11:15:11Z</time>
      </trkpt>
      <trkpt lat="48.42763" lon="-4.78226">
        <ele>19.6</ele>
        <time>2020-06-09T11:15:12Z</time>
      </trkpt>
      <trkpt lat="48.42762" lon="-4.78225">
        <ele>19.7</ele>
        <time>2020-06-09T11:15:13Z</time>
      </trkpt>
      <trkpt lat="48.42759" lon="-4.7822">
        <ele>19.9</ele>
        <time>2020-06-09T11:15:14Z</time>
      </trkpt>
      <trkpt lat="48.42758" lon="-4.78219">
        <ele>20</ele>
        <time>2020-06-09T11:15:15Z</time>
      </trkpt>
      <trkpt lat="48.42755" lon="-4.78216">
        <ele>20.2</ele>
        <time>2020-06-09T11:15:16Z</time>
      </trkpt>
      <trkpt lat="48.42753" lon="-4.78213">
        <ele>20.4</ele>
        <time>2020-06-09T11:15:17Z</time>
      </trkpt>
      <trkpt lat="48.4275" lon="-4.78209">
        <ele>20.8</ele>
        <time>2020-06-09T11:15:18Z</time>
      </trkpt>
      <trkpt lat="48.42749" lon="-4.78208">
        <ele>20.9</ele>
        <time>2020-06-09T11:15:19Z</time>
      </trkpt>
      <trkpt lat="48.42747" lon="-4.78203">
        <ele>21.2</ele>
        <time>2020-06-09T11:15:20Z</time>
      </trkpt>
      <trkpt lat="48.42747" lon="-4.78201">
        <ele>21.3</ele>
        <time>2020-06-09T11:15:21Z</time>
      </trkpt>
      <trkpt lat="48.42745" lon="-4.78198">
        <ele>21.5</ele>
        <time>2020-06-09T11:15:22Z</time>
      </trkpt>
      <trkpt lat="48.42744" lon="-4.78196">
        <ele>21.6</ele>
        <time>2020-06-09T11:15:23Z</time>
      </trkpt>
      <trkpt lat="48.42743" lon="-4.78192">
        <ele>21.9</ele>
        <time>2020-06-09T11:15:24Z</time>
      </trkpt>
      <trkpt lat="48.42742" lon="-4.7819">
        <ele>22</ele>
        <time>2020-06-09T11:15:25Z</time>
      </trkpt>
      <trkpt lat="48.42741" lon="-4.78186">
        <ele>22.3</ele>
        <time>2020-06-09T11:15:26Z</time>
      </trkpt>
      <trkpt lat="48.4274" lon="-4.78182">
        <ele>22.6</ele>
        <time>2020-06-09T11:15:27Z</time>
      </trkpt>
      <trkpt lat="48.42739" lon="-4.78181">
        <ele>22.7</ele>
        <time>2020-06-09T11:15:28Z</time>
      </trkpt>
      <trkpt lat="48.42738" lon="-4.78177">
        <ele>22.9</ele>
        <time>2020-06-09T11:15:29Z</time>
      </trkpt>
      <trkpt lat="48.42737" lon="-4.78172">
        <ele>23.2</ele>
        <time>2020-06-09T11:15:30Z</time>
      </trkpt>
      <trkpt lat="48.42737" lon="-4.7817">
        <ele>23.3</ele>
        <time>2020-06-09T11:15:31Z</time>
      </trkpt>
      <trkpt lat="48.42735" lon="-4.78165">
        <ele>23.6</ele>
        <time>2020-06-09T11:15:32Z</time>
      </trkpt>
      <trkpt lat="48.42735" lon="-4.78163">
        <ele>23.6</ele>
        <time>2020-06-09T11:15:33Z</time>
      </trkpt>
      <trkpt lat="48.42734" lon="-4.78157">
        <ele>24.1</ele>
        <time>2020-06-09T11:15:34Z</time>
      </trkpt>
      <trkpt lat="48.42734" lon="-4.78155">
        <ele>24.2</ele>
        <time>2020-06-09T11:15:35Z</time>
      </trkpt>
      <trkpt lat="48.42733" lon="-4.78151">
        <ele>24.5</ele>
        <time>2020-06-09T11:15:36Z</time>
      </trkpt>
      <trkpt lat="48.42733" lon="-4.78149">
        <ele>24.5</ele>
        <time>2020-06-09T11:15:37Z</time>
      </trkpt>
      <trkpt lat="48.42732" lon="-4.78144">
        <ele>24.9</ele>
        <time>2020-06-09T11:15:38Z</time>
      </trkpt>
      <trkpt lat="48.42732" lon="-4.78142">
        <ele>25</ele>
        <time>2020-06-09T11:15:39Z</time>
      </trkpt>
      <trkpt lat="48.42731" lon="-4.78138">
        <ele>25.2</ele>
        <time>2020-06-09T11:15:40Z</time>
      </trkpt>
      <trkpt lat="48.42731" lon="-4.78136">
        <ele>25.3</ele>
        <time>2020-06-09T11:15:41Z</time>
      </trkpt>
      <trkpt lat="48.4273" lon="-4.78132">
        <ele>25.6</ele>
        <time>2020-06-09T11:15:42Z</time>
      </trkpt>
      <trkpt lat="48.42731" lon="-4.78129">
        <ele>25.7</ele>
        <time>2020-06-09T11:15:43Z</time>
      </trkpt>
      <trkpt lat="48.4273" lon="-4.78127">
        <ele>25.9</ele>
        <time>2020-06-09T11:15:44Z</time>
      </trkpt>
      <trkpt lat="48.4273" lon="-4.78124">
        <ele>26</ele>
        <time>2020-06-09T11:15:45Z</time>
      </trkpt>
      <trkpt lat="48.42729" lon="-4.78119">
        <ele>26.3</ele>
        <time>2020-06-09T11:15:46Z</time>
      </trkpt>
      <trkpt lat="48.42728" lon="-4.78117">
        <ele>26.4</ele>
        <time>2020-06-09T11:15:47Z</time>
      </trkpt>
      <trkpt lat="48.42727" lon="-4.78113">
        <ele>26.7</ele>
        <time>2020-06-09T11:15:48Z</time>
      </trkpt>
      <trkpt lat="48.42727" lon="-4.78108">
        <ele>26.9</ele>
        <time>2020-06-09T11:15:49Z</time>
      </trkpt>
      <trkpt lat="48.42727" lon="-4.78106">
        <ele>27</ele>
        <time>2020-06-09T11:15:50Z</time>
      </trkpt>
      <trkpt lat="48.42726" lon="-4.78101">
        <ele>27.3</ele>
        <time>2020-06-09T11:15:51Z</time>
      </trkpt>
      <trkpt lat="48.42726" lon="-4.78099">
        <ele>27.4</ele>
        <time>2020-06-09T11:15:52Z</time>
      </trkpt>
      <trkpt lat="48.42724" lon="-4.78095">
        <ele>27.6</ele>
        <time>2020-06-09T11:15:53Z</time>
      </trkpt>
      <trkpt lat="48.42724" lon="-4.78093">
        <ele>27.7</ele>
        <time>2020-06-09T11:15:54Z</time>
      </trkpt>
      <trkpt lat="48.42723" lon="-4.7809">
        <ele>27.9</ele>
        <time>2020-06-09T11:15:55Z</time>
      </trkpt>
      <trkpt lat="48.42722" lon="-4.78088">
        <ele>28</ele>
        <time>2020-06-09T11:15:56Z</time>
      </trkpt>
      <trkpt lat="48.42722" lon="-4.78083">
        <ele>28.2</ele>
        <time>2020-06-09T11:15:57Z</time>
      </trkpt>
      <trkpt lat="48.42721" lon="-4.78081">
        <ele>28.3</ele>
        <time>2020-06-09T11:15:58Z</time>
      </trkpt>
      <trkpt lat="48.4272" lon="-4.78076">
        <ele>28.6</ele>
        <time>2020-06-09T11:15:59Z</time>
      </trkpt>
      <trkpt lat="48.42719" lon="-4.78074">
        <ele>28.7</ele>
        <time>2020-06-09T11:16:00Z</time>
      </trkpt>
      <trkpt lat="48.42718" lon="-4.78069">
        <ele>28.9</ele>
        <time>2020-06-09T11:16:01Z</time>
      </trkpt>
      <trkpt lat="48.42717" lon="-4.78067">
        <ele>29</ele>
        <time>2020-06-09T11:16:02Z</time>
      </trkpt>
      <trkpt lat="48.42716" lon="-4.78063">
        <ele>29.2</ele>
        <time>2020-06-09T11:16:03Z</time>
      </trkpt>
      <trkpt lat="48.42716" lon="-4.78061">
        <ele>29.3</ele>
        <time>2020-06-09T11:16:04Z</time>
      </trkpt>
      <trkpt lat="48.42714" lon="-4.78057">
        <ele>29.6</ele>
        <time>2020-06-09T11:16:05Z</time>
      </trkpt>
      <trkpt lat="48.42714" lon="-4.78055">
        <ele>29.7</ele>
        <time>2020-06-09T11:16:06Z</time>
      </trkpt>
      <trkpt lat="48.42713" lon="-4.78051">
        <ele>29.9</ele>
        <time>2020-06-09T11:16:07Z</time>
      </trkpt>
      <trkpt lat="48.42712" lon="-4.7805">
        <ele>30</ele>
        <time>2020-06-09T11:16:08Z</time>
      </trkpt>
      <trkpt lat="48.42711" lon="-4.78045">
        <ele>30.2</ele>
        <time>2020-06-09T11:16:09Z</time>
      </trkpt>
      <trkpt lat="48.42711" lon="-4.78043">
        <ele>30.3</ele>
        <time>2020-06-09T11:16:10Z</time>
      </trkpt>
      <trkpt lat="48.4271" lon="-4.78038">
        <ele>30.6</ele>
        <time>2020-06-09T11:16:11Z</time>
      </trkpt>
      <trkpt lat="48.42709" lon="-4.78036">
        <ele>30.7</ele>
        <time>2020-06-09T11:16:12Z</time>
      </trkpt>
      <trkpt lat="48.42709" lon="-4.78032">
        <ele>31</ele>
        <time>2020-06-09T11:16:13Z</time>
      </trkpt>
      <trkpt lat="48.42707" lon="-4.78026">
        <ele>31.3</ele>
        <time>2020-06-09T11:16:14Z</time>
      </trkpt>
      <trkpt lat="48.42707" lon="-4.78025">
        <ele>31.5</ele>
        <time>2020-06-09T11:16:15Z</time>
      </trkpt>
      <trkpt lat="48.42706" lon="-4.7802">
        <ele>31.7</ele>
        <time>2020-06-09T11:16:16Z</time>
      </trkpt>
      <trkpt lat="48.42706" lon="-4.78015">
        <ele>32</ele>
        <time>2020-06-09T11:16:17Z</time>
      </trkpt>
      <trkpt lat="48.42706" lon="-4.78014">
        <ele>32.1</ele>
        <time>2020-06-09T11:16:18Z</time>
      </trkpt>
      <trkpt lat="48.42707" lon="-4.78009">
        <ele>32.5</ele>
        <time>2020-06-09T11:16:19Z</time>
      </trkpt>
      <trkpt lat="48.42708" lon="-4.78008">
        <ele>32.7</ele>
        <time>2020-06-09T11:16:20Z</time>
      </trkpt>
      <trkpt lat="48.42709" lon="-4.78005">
        <ele>32.8</ele>
        <time>2020-06-09T11:16:21Z</time>
      </trkpt>
      <trkpt lat="48.4271" lon="-4.78004">
        <ele>32.8</ele>
        <time>2020-06-09T11:16:22Z</time>
      </trkpt>
      <trkpt lat="48.42714" lon="-4.78001">
        <ele>32.9</ele>
        <time>2020-06-09T11:16:23Z</time>
      </trkpt>
      <trkpt lat="48.42715" lon="-4.77999">
        <ele>32.9</ele>
        <time>2020-06-09T11:16:24Z</time>
      </trkpt>
      <trkpt lat="48.42718" lon="-4.77998">
        <ele>33</ele>
        <time>2020-06-09T11:16:25Z</time>
      </trkpt>
      <trkpt lat="48.42719" lon="-4.77997">
        <ele>33</ele>
        <time>2020-06-09T11:16:26Z</time>
      </trkpt>
      <trkpt lat="48.42723" lon="-4.77995">
        <ele>33.1</ele>
        <time>2020-06-09T11:16:27Z</time>
      </trkpt>
      <trkpt lat="48.42724" lon="-4.77994">
        <ele>33.1</ele>
        <time>2020-06-09T11:16:28Z</time>
      </trkpt>
      <trkpt lat="48.42726" lon="-4.77992">
        <ele>33.1</ele>
        <time>2020-06-09T11:16:29Z</time>
      </trkpt>
      <trkpt lat="48.42729" lon="-4.7799">
        <ele>33.2</ele>
        <time>2020-06-09T11:16:30Z</time>
      </trkpt>
      <trkpt lat="48.42732" lon="-4.77988">
        <ele>33.2</ele>
        <time>2020-06-09T11:16:31Z</time>
      </trkpt>
      <trkpt lat="48.42735" lon="-4.77987">
        <ele>33.2</ele>
        <time>2020-06-09T11:16:32Z</time>
      </trkpt>
      <trkpt lat="48.42738" lon="-4.77986">
        <ele>33.3</ele>
        <time>2020-06-09T11:16:33Z</time>
      </trkpt>
      <trkpt lat="48.4274" lon="-4.77985">
        <ele>33.3</ele>
        <time>2020-06-09T11:16:34Z</time>
      </trkpt>
      <trkpt lat="48.42741" lon="-4.77984">
        <ele>33.3</ele>
        <time>2020-06-09T11:16:35Z</time>
      </trkpt>
      <trkpt lat="48.42743" lon="-4.77983">
        <ele>33.3</ele>
        <time>2020-06-09T11:16:36Z</time>
      </trkpt>
      <trkpt lat="48.42746" lon="-4.77981">
        <ele>33.3</ele>
        <time>2020-06-09T11:16:37Z</time>
      </trkpt>
      <trkpt lat="48.42747" lon="-4.7798">
        <ele>33.4</ele>
        <time>2020-06-09T11:16:38Z</time>
      </trkpt>
      <trkpt lat="48.42749" lon="-4.77978">
        <ele>33.3</ele>
        <time>2020-06-09T11:16:39Z</time>
      </trkpt>
      <trkpt lat="48.4275" lon="-4.77977">
        <ele>33.3</ele>
        <time>2020-06-09T11:16:40Z</time>
      </trkpt>
      <trkpt lat="48.42753" lon="-4.77974">
        <ele>33.3</ele>
        <time>2020-06-09T11:16:41Z</time>
      </trkpt>
      <trkpt lat="48.42754" lon="-4.77973">
        <ele>33.3</ele>
        <time>2020-06-09T11:16:42Z</time>
      </trkpt>
      <trkpt lat="48.42757" lon="-4.7797">
        <ele>33.3</ele>
        <time>2020-06-09T11:16:43Z</time>
      </trkpt>
      <trkpt lat="48.42759" lon="-4.77968">
        <ele>33.3</ele>
        <time>2020-06-09T11:16:44Z</time>
      </trkpt>
      <trkpt lat="48.42762" lon="-4.77966">
        <ele>33.3</ele>
        <time>2020-06-09T11:16:45Z</time>
      </trkpt>
      <trkpt lat="48.42766" lon="-4.77963">
        <ele>33.3</ele>
        <time>2020-06-09T11:16:46Z</time>
      </trkpt>
      <trkpt lat="48.4277" lon="-4.7796">
        <ele>33.3</ele>
        <time>2020-06-09T11:16:47Z</time>
      </trkpt>
      <trkpt lat="48.42773" lon="-4.77957">
        <ele>33.3</ele>
        <time>2020-06-09T11:16:48Z</time>
      </trkpt>
      <trkpt lat="48.42776" lon="-4.77956">
        <ele>33.3</ele>
        <time>2020-06-09T11:16:49Z</time>
      </trkpt>
      <trkpt lat="48.4278" lon="-4.77954">
        <ele>33.3</ele>
        <time>2020-06-09T11:16:50Z</time>
      </trkpt>
      <trkpt lat="48.42784" lon="-4.77951">
        <ele>33.3</ele>
        <time>2020-06-09T11:16:51Z</time>
      </trkpt>
      <trkpt lat="48.42787" lon="-4.77949">
        <ele>33.3</ele>
        <time>2020-06-09T11:16:52Z</time>
      </trkpt>
      <trkpt lat="48.42791" lon="-4.77947">
        <ele>33.3</ele>
        <time>2020-06-09T11:16:53Z</time>
      </trkpt>
      <trkpt lat="48.42794" lon="-4.77945">
        <ele>33.3</ele>
        <time>2020-06-09T11:16:54Z</time>
      </trkpt>
      <trkpt lat="48.42797" lon="-4.77944">
        <ele>33.4</ele>
        <time>2020-06-09T11:16:55Z</time>
      </trkpt>
      <trkpt lat="48.428" lon="-4.77944">
        <ele>33.4</ele>
        <time>2020-06-09T11:16:56Z</time>
      </trkpt>
      <trkpt lat="48.42803" lon="-4.77944">
        <ele>33.4</ele>
        <time>2020-06-09T11:16:57Z</time>
      </trkpt>
      <trkpt lat="48.42807" lon="-4.77944">
        <ele>33.4</ele>
        <time>2020-06-09T11:16:58Z</time>
      </trkpt>
      <trkpt lat="48.42811" lon="-4.77943">
        <ele>33.4</ele>
        <time>2020-06-09T11:16:59Z</time>
      </trkpt>
      <trkpt lat="48.42815" lon="-4.77943">
        <ele>33.4</ele>
        <time>2020-06-09T11:17:00Z</time>
      </trkpt>
      <trkpt lat="48.42818" lon="-4.77941">
        <ele>33.4</ele>
        <time>2020-06-09T11:17:01Z</time>
      </trkpt>
      <trkpt lat="48.42821" lon="-4.7794">
        <ele>33.4</ele>
        <time>2020-06-09T11:17:02Z</time>
      </trkpt>
      <trkpt lat="48.42824" lon="-4.77938">
        <ele>33.4</ele>
        <time>2020-06-09T11:17:04Z</time>
      </trkpt>
      <trkpt lat="48.42826" lon="-4.77937">
        <ele>33.4</ele>
        <time>2020-06-09T11:17:05Z</time>
      </trkpt>
      <trkpt lat="48.42829" lon="-4.77937">
        <ele>33.4</ele>
        <time>2020-06-09T11:17:06Z</time>
      </trkpt>
      <trkpt lat="48.42831" lon="-4.77937">
        <ele>33.4</ele>
        <time>2020-06-09T11:17:07Z</time>
      </trkpt>
      <trkpt lat="48.42834" lon="-4.77938">
        <ele>33.4</ele>
        <time>2020-06-09T11:17:08Z</time>
      </trkpt>
      <trkpt lat="48.42836" lon="-4.77938">
        <ele>33.4</ele>
        <time>2020-06-09T11:17:09Z</time>
      </trkpt>
      <trkpt lat="48.4284" lon="-4.77937">
        <ele>33.5</ele>
        <time>2020-06-09T11:17:10Z</time>
      </trkpt>
      <trkpt lat="48.42842" lon="-4.77937">
        <ele>33.5</ele>
        <time>2020-06-09T11:17:11Z</time>
      </trkpt>
      <trkpt lat="48.42845" lon="-4.77936">
        <ele>33.5</ele>
        <time>2020-06-09T11:17:12Z</time>
      </trkpt>
      <trkpt lat="48.42849" lon="-4.77936">
        <ele>33.5</ele>
        <time>2020-06-09T11:17:13Z</time>
      </trkpt>
      <trkpt lat="48.42852" lon="-4.77935">
        <ele>33.5</ele>
        <time>2020-06-09T11:17:14Z</time>
      </trkpt>
      <trkpt lat="48.42855" lon="-4.77935">
        <ele>33.4</ele>
        <time>2020-06-09T11:17:15Z</time>
      </trkpt>
      <trkpt lat="48.42859" lon="-4.77933">
        <ele>33.4</ele>
        <time>2020-06-09T11:17:16Z</time>
      </trkpt>
      <trkpt lat="48.4286" lon="-4.77932">
        <ele>33.4</ele>
        <time>2020-06-09T11:17:17Z</time>
      </trkpt>
      <trkpt lat="48.42863" lon="-4.77932">
        <ele>33.4</ele>
        <time>2020-06-09T11:17:18Z</time>
      </trkpt>
      <trkpt lat="48.42866" lon="-4.77932">
        <ele>33.3</ele>
        <time>2020-06-09T11:17:19Z</time>
      </trkpt>
      <trkpt lat="48.42869" lon="-4.77931">
        <ele>33.2</ele>
        <time>2020-06-09T11:17:20Z</time>
      </trkpt>
      <trkpt lat="48.42872" lon="-4.77933">
        <ele>32.9</ele>
        <time>2020-06-09T11:17:21Z</time>
      </trkpt>
      <trkpt lat="48.42873" lon="-4.77934">
        <ele>32.8</ele>
        <time>2020-06-09T11:17:22Z</time>
      </trkpt>
      <trkpt lat="48.42875" lon="-4.77937">
        <ele>32.4</ele>
        <time>2020-06-09T11:17:23Z</time>
      </trkpt>
      <trkpt lat="48.42877" lon="-4.77942">
        <ele>32</ele>
        <time>2020-06-09T11:17:24Z</time>
      </trkpt>
      <trkpt lat="48.42879" lon="-4.77948">
        <ele>31.6</ele>
        <time>2020-06-09T11:17:25Z</time>
      </trkpt>
      <trkpt lat="48.4288" lon="-4.77954">
        <ele>31.1</ele>
        <time>2020-06-09T11:17:26Z</time>
      </trkpt>
      <trkpt lat="48.42882" lon="-4.77961">
        <ele>30.4</ele>
        <time>2020-06-09T11:17:27Z</time>
      </trkpt>
      <trkpt lat="48.42884" lon="-4.77969">
        <ele>29.7</ele>
        <time>2020-06-09T11:17:28Z</time>
      </trkpt>
      <trkpt lat="48.42886" lon="-4.77978">
        <ele>28.9</ele>
        <time>2020-06-09T11:17:29Z</time>
      </trkpt>
      <trkpt lat="48.42889" lon="-4.77987">
        <ele>28.1</ele>
        <time>2020-06-09T11:17:30Z</time>
      </trkpt>
      <trkpt lat="48.42892" lon="-4.77999">
        <ele>27.2</ele>
        <time>2020-06-09T11:17:31Z</time>
      </trkpt>
      <trkpt lat="48.42896" lon="-4.78011">
        <ele>26.2</ele>
        <time>2020-06-09T11:17:32Z</time>
      </trkpt>
      <trkpt lat="48.429" lon="-4.78023">
        <ele>25.2</ele>
        <time>2020-06-09T11:17:33Z</time>
      </trkpt>
      <trkpt lat="48.42905" lon="-4.78036">
        <ele>24.2</ele>
        <time>2020-06-09T11:17:34Z</time>
      </trkpt>
      <trkpt lat="48.4291" lon="-4.78049">
        <ele>23.3</ele>
        <time>2020-06-09T11:17:35Z</time>
      </trkpt>
      <trkpt lat="48.42914" lon="-4.78063">
        <ele>22.4</ele>
        <time>2020-06-09T11:17:36Z</time>
      </trkpt>
      <trkpt lat="48.42919" lon="-4.78076">
        <ele>21.8</ele>
        <time>2020-06-09T11:17:37Z</time>
      </trkpt>
      <trkpt lat="48.42924" lon="-4.78089">
        <ele>21.2</ele>
        <time>2020-06-09T11:17:38Z</time>
      </trkpt>
      <trkpt lat="48.42928" lon="-4.781">
        <ele>21.6</ele>
        <time>2020-06-09T11:17:39Z</time>
      </trkpt>
      <trkpt lat="48.42931" lon="-4.78112">
        <ele>20.9</ele>
        <time>2020-06-09T11:17:40Z</time>
      </trkpt>
      <trkpt lat="48.42935" lon="-4.78123">
        <ele>20.2</ele>
        <time>2020-06-09T11:17:41Z</time>
      </trkpt>
      <trkpt lat="48.42937" lon="-4.78135">
        <ele>19.6</ele>
        <time>2020-06-09T11:17:42Z</time>
      </trkpt>
      <trkpt lat="48.4294" lon="-4.78147">
        <ele>18.9</ele>
        <time>2020-06-09T11:17:43Z</time>
      </trkpt>
      <trkpt lat="48.42942" lon="-4.78159">
        <ele>18.1</ele>
        <time>2020-06-09T11:17:44Z</time>
      </trkpt>
      <trkpt lat="48.42944" lon="-4.78171">
        <ele>17.4</ele>
        <time>2020-06-09T11:17:45Z</time>
      </trkpt>
      <trkpt lat="48.42947" lon="-4.78183">
        <ele>16.6</ele>
        <time>2020-06-09T11:17:46Z</time>
      </trkpt>
      <trkpt lat="48.4295" lon="-4.78195">
        <ele>15.7</ele>
        <time>2020-06-09T11:17:47Z</time>
      </trkpt>
      <trkpt lat="48.42953" lon="-4.78207">
        <ele>14.7</ele>
        <time>2020-06-09T11:17:48Z</time>
      </trkpt>
      <trkpt lat="48.42956" lon="-4.7822">
        <ele>13.7</ele>
        <time>2020-06-09T11:17:49Z</time>
      </trkpt>
      <trkpt lat="48.4296" lon="-4.78232">
        <ele>12.7</ele>
        <time>2020-06-09T11:17:50Z</time>
      </trkpt>
      <trkpt lat="48.42964" lon="-4.78245">
        <ele>11.6</ele>
        <time>2020-06-09T11:17:51Z</time>
      </trkpt>
      <trkpt lat="48.42968" lon="-4.78257">
        <ele>10.6</ele>
        <time>2020-06-09T11:17:52Z</time>
      </trkpt>
      <trkpt lat="48.42972" lon="-4.78269">
        <ele>9.6</ele>
        <time>2020-06-09T11:17:53Z</time>
      </trkpt>
      <trkpt lat="48.42976" lon="-4.78281">
        <ele>8.6</ele>
        <time>2020-06-09T11:17:54Z</time>
      </trkpt>
      <trkpt lat="48.42981" lon="-4.78293">
        <ele>7.7</ele>
        <time>2020-06-09T11:17:55Z</time>
      </trkpt>
      <trkpt lat="48.42987" lon="-4.78305">
        <ele>7</ele>
        <time>2020-06-09T11:17:56Z</time>
      </trkpt>
      <trkpt lat="48.42994" lon="-4.78315">
        <ele>6.5</ele>
        <time>2020-06-09T11:17:57Z</time>
      </trkpt>
      <trkpt lat="48.43002" lon="-4.78323">
        <ele>6.2</ele>
        <time>2020-06-09T11:17:58Z</time>
      </trkpt>
      <trkpt lat="48.4301" lon="-4.7833">
        <ele>6.2</ele>
        <time>2020-06-09T11:17:59Z</time>
      </trkpt>
      <trkpt lat="48.43019" lon="-4.78336">
        <ele>6.3</ele>
        <time>2020-06-09T11:18:00Z</time>
      </trkpt>
      <trkpt lat="48.43026" lon="-4.78342">
        <ele>6.5</ele>
        <time>2020-06-09T11:18:01Z</time>
      </trkpt>
      <trkpt lat="48.43034" lon="-4.78344">
        <ele>6.8</ele>
        <time>2020-06-09T11:18:02Z</time>
      </trkpt>
      <trkpt lat="48.4304" lon="-4.78346">
        <ele>7</ele>
        <time>2020-06-09T11:18:03Z</time>
      </trkpt>
      <trkpt lat="48.43051" lon="-4.78351">
        <ele>7.6</ele>
        <time>2020-06-09T11:18:04Z</time>
      </trkpt>
      <trkpt lat="48.43056" lon="-4.78354">
        <ele>7.8</ele>
        <time>2020-06-09T11:18:05Z</time>
      </trkpt>
      <trkpt lat="48.43061" lon="-4.78358">
        <ele>8</ele>
        <time>2020-06-09T11:18:06Z</time>
      </trkpt>
      <trkpt lat="48.43066" lon="-4.7836">
        <ele>8.2</ele>
        <time>2020-06-09T11:18:07Z</time>
      </trkpt>
      <trkpt lat="48.43071" lon="-4.78362">
        <ele>8.4</ele>
        <time>2020-06-09T11:18:08Z</time>
      </trkpt>
      <trkpt lat="48.43076" lon="-4.78363">
        <ele>8.7</ele>
        <time>2020-06-09T11:18:09Z</time>
      </trkpt>
      <trkpt lat="48.43081" lon="-4.78364">
        <ele>8.9</ele>
        <time>2020-06-09T11:18:10Z</time>
      </trkpt>
      <trkpt lat="48.43086" lon="-4.78365">
        <ele>9.2</ele>
        <time>2020-06-09T11:18:11Z</time>
      </trkpt>
      <trkpt lat="48.4309" lon="-4.78367">
        <ele>9.4</ele>
        <time>2020-06-09T11:18:12Z</time>
      </trkpt>
      <trkpt lat="48.43095" lon="-4.78368">
        <ele>9.6</ele>
        <time>2020-06-09T11:18:13Z</time>
      </trkpt>
      <trkpt lat="48.43099" lon="-4.78369">
        <ele>9.8</ele>
        <time>2020-06-09T11:18:14Z</time>
      </trkpt>
      <trkpt lat="48.43103" lon="-4.7837">
        <ele>10.1</ele>
        <time>2020-06-09T11:18:15Z</time>
      </trkpt>
      <trkpt lat="48.43106" lon="-4.7837">
        <ele>10.3</ele>
        <time>2020-06-09T11:18:16Z</time>
      </trkpt>
      <trkpt lat="48.4311" lon="-4.7837">
        <ele>10.4</ele>
        <time>2020-06-09T11:18:17Z</time>
      </trkpt>
      <trkpt lat="48.43113" lon="-4.7837">
        <ele>10.6</ele>
        <time>2020-06-09T11:18:18Z</time>
      </trkpt>
      <trkpt lat="48.43116" lon="-4.78369">
        <ele>10.8</ele>
        <time>2020-06-09T11:18:19Z</time>
      </trkpt>
      <trkpt lat="48.4312" lon="-4.78369">
        <ele>11</ele>
        <time>2020-06-09T11:18:20Z</time>
      </trkpt>
      <trkpt lat="48.43123" lon="-4.78368">
        <ele>11.2</ele>
        <time>2020-06-09T11:18:21Z</time>
      </trkpt>
      <trkpt lat="48.43127" lon="-4.78368">
        <ele>11.4</ele>
        <time>2020-06-09T11:18:22Z</time>
      </trkpt>
      <trkpt lat="48.4313" lon="-4.78369">
        <ele>11.5</ele>
        <time>2020-06-09T11:18:23Z</time>
      </trkpt>
      <trkpt lat="48.43133" lon="-4.7837">
        <ele>11.7</ele>
        <time>2020-06-09T11:18:24Z</time>
      </trkpt>
      <trkpt lat="48.43137" lon="-4.7837">
        <ele>11.8</ele>
        <time>2020-06-09T11:18:25Z</time>
      </trkpt>
      <trkpt lat="48.43138" lon="-4.7837">
        <ele>11.9</ele>
        <time>2020-06-09T11:18:26Z</time>
      </trkpt>
      <trkpt lat="48.43141" lon="-4.7837">
        <ele>12</ele>
        <time>2020-06-09T11:18:27Z</time>
      </trkpt>
      <trkpt lat="48.43144" lon="-4.7837">
        <ele>12.1</ele>
        <time>2020-06-09T11:18:28Z</time>
      </trkpt>
      <trkpt lat="48.43147" lon="-4.7837">
        <ele>12.2</ele>
        <time>2020-06-09T11:18:29Z</time>
      </trkpt>
      <trkpt lat="48.4315" lon="-4.78371">
        <ele>12.2</ele>
        <time>2020-06-09T11:18:30Z</time>
      </trkpt>
      <trkpt lat="48.43153" lon="-4.78372">
        <ele>12.3</ele>
        <time>2020-06-09T11:18:31Z</time>
      </trkpt>
      <trkpt lat="48.43156" lon="-4.78374">
        <ele>12.4</ele>
        <time>2020-06-09T11:18:32Z</time>
      </trkpt>
      <trkpt lat="48.4316" lon="-4.78375">
        <ele>12.5</ele>
        <time>2020-06-09T11:18:33Z</time>
      </trkpt>
      <trkpt lat="48.43163" lon="-4.78375">
        <ele>12.6</ele>
        <time>2020-06-09T11:18:34Z</time>
      </trkpt>
      <trkpt lat="48.43167" lon="-4.78375">
        <ele>12.6</ele>
        <time>2020-06-09T11:18:35Z</time>
      </trkpt>
      <trkpt lat="48.43171" lon="-4.78377">
        <ele>12.7</ele>
        <time>2020-06-09T11:18:36Z</time>
      </trkpt>
      <trkpt lat="48.43174" lon="-4.78377">
        <ele>12.7</ele>
        <time>2020-06-09T11:18:37Z</time>
      </trkpt>
      <trkpt lat="48.43178" lon="-4.78377">
        <ele>12.8</ele>
        <time>2020-06-09T11:18:38Z</time>
      </trkpt>
      <trkpt lat="48.43182" lon="-4.78377">
        <ele>12.8</ele>
        <time>2020-06-09T11:18:39Z</time>
      </trkpt>
      <trkpt lat="48.43186" lon="-4.78377">
        <ele>12.9</ele>
        <time>2020-06-09T11:18:40Z</time>
      </trkpt>
      <trkpt lat="48.4319" lon="-4.78376">
        <ele>12.9</ele>
        <time>2020-06-09T11:18:41Z</time>
      </trkpt>
      <trkpt lat="48.43194" lon="-4.78377">
        <ele>12.9</ele>
        <time>2020-06-09T11:18:42Z</time>
      </trkpt>
      <trkpt lat="48.43198" lon="-4.78377">
        <ele>12.9</ele>
        <time>2020-06-09T11:18:43Z</time>
      </trkpt>
      <trkpt lat="48.43202" lon="-4.78377">
        <ele>12.9</ele>
        <time>2020-06-09T11:18:44Z</time>
      </trkpt>
      <trkpt lat="48.43207" lon="-4.78377">
        <ele>12.9</ele>
        <time>2020-06-09T11:18:45Z</time>
      </trkpt>
      <trkpt lat="48.43212" lon="-4.78377">
        <ele>13</ele>
        <time>2020-06-09T11:18:46Z</time>
      </trkpt>
      <trkpt lat="48.43216" lon="-4.78377">
        <ele>13.1</ele>
        <time>2020-06-09T11:18:47Z</time>
      </trkpt>
      <trkpt lat="48.43221" lon="-4.78378">
        <ele>13.1</ele>
        <time>2020-06-09T11:18:48Z</time>
      </trkpt>
      <trkpt lat="48.43225" lon="-4.78379">
        <ele>13.2</ele>
        <time>2020-06-09T11:18:49Z</time>
      </trkpt>
      <trkpt lat="48.4323" lon="-4.7838">
        <ele>13.3</ele>
        <time>2020-06-09T11:18:50Z</time>
      </trkpt>
      <trkpt lat="48.43234" lon="-4.78381">
        <ele>13.4</ele>
        <time>2020-06-09T11:18:51Z</time>
      </trkpt>
      <trkpt lat="48.43238" lon="-4.78383">
        <ele>13.4</ele>
        <time>2020-06-09T11:18:52Z</time>
      </trkpt>
      <trkpt lat="48.43242" lon="-4.78385">
        <ele>13.5</ele>
        <time>2020-06-09T11:18:53Z</time>
      </trkpt>
      <trkpt lat="48.43246" lon="-4.78387">
        <ele>13.6</ele>
        <time>2020-06-09T11:18:54Z</time>
      </trkpt>
      <trkpt lat="48.43249" lon="-4.78389">
        <ele>13.7</ele>
        <time>2020-06-09T11:18:55Z</time>
      </trkpt>
      <trkpt lat="48.43253" lon="-4.78391">
        <ele>13.8</ele>
        <time>2020-06-09T11:18:56Z</time>
      </trkpt>
      <trkpt lat="48.43257" lon="-4.78393">
        <ele>13.9</ele>
        <time>2020-06-09T11:18:57Z</time>
      </trkpt>
      <trkpt lat="48.4326" lon="-4.78396">
        <ele>14</ele>
        <time>2020-06-09T11:18:58Z</time>
      </trkpt>
      <trkpt lat="48.43264" lon="-4.78397">
        <ele>14.1</ele>
        <time>2020-06-09T11:18:59Z</time>
      </trkpt>
      <trkpt lat="48.43267" lon="-4.78399">
        <ele>14.2</ele>
        <time>2020-06-09T11:19:00Z</time>
      </trkpt>
      <trkpt lat="48.4327" lon="-4.78401">
        <ele>14.3</ele>
        <time>2020-06-09T11:19:01Z</time>
      </trkpt>
      <trkpt lat="48.43273" lon="-4.78404">
        <ele>14.4</ele>
        <time>2020-06-09T11:19:02Z</time>
      </trkpt>
      <trkpt lat="48.43276" lon="-4.78406">
        <ele>14.5</ele>
        <time>2020-06-09T11:19:03Z</time>
      </trkpt>
      <trkpt lat="48.43279" lon="-4.78408">
        <ele>14.6</ele>
        <time>2020-06-09T11:19:04Z</time>
      </trkpt>
      <trkpt lat="48.43282" lon="-4.78411">
        <ele>14.7</ele>
        <time>2020-06-09T11:19:05Z</time>
      </trkpt>
      <trkpt lat="48.43285" lon="-4.78412">
        <ele>14.7</ele>
        <time>2020-06-09T11:19:06Z</time>
      </trkpt>
      <trkpt lat="48.43288" lon="-4.78414">
        <ele>14.8</ele>
        <time>2020-06-09T11:19:07Z</time>
      </trkpt>
      <trkpt lat="48.43292" lon="-4.78416">
        <ele>14.9</ele>
        <time>2020-06-09T11:19:08Z</time>
      </trkpt>
      <trkpt lat="48.43294" lon="-4.78419">
        <ele>14.9</ele>
        <time>2020-06-09T11:19:09Z</time>
      </trkpt>
      <trkpt lat="48.43297" lon="-4.78421">
        <ele>15</ele>
        <time>2020-06-09T11:19:10Z</time>
      </trkpt>
      <trkpt lat="48.433" lon="-4.78424">
        <ele>15</ele>
        <time>2020-06-09T11:19:11Z</time>
      </trkpt>
      <trkpt lat="48.43303" lon="-4.78425">
        <ele>15</ele>
        <time>2020-06-09T11:19:12Z</time>
      </trkpt>
      <trkpt lat="48.43306" lon="-4.78427">
        <ele>15</ele>
        <time>2020-06-09T11:19:13Z</time>
      </trkpt>
      <trkpt lat="48.43309" lon="-4.78429">
        <ele>15</ele>
        <time>2020-06-09T11:19:14Z</time>
      </trkpt>
      <trkpt lat="48.43312" lon="-4.78431">
        <ele>15</ele>
        <time>2020-06-09T11:19:15Z</time>
      </trkpt>
      <trkpt lat="48.43315" lon="-4.78433">
        <ele>15</ele>
        <time>2020-06-09T11:19:16Z</time>
      </trkpt>
      <trkpt lat="48.43318" lon="-4.78434">
        <ele>15</ele>
        <time>2020-06-09T11:19:17Z</time>
      </trkpt>
      <trkpt lat="48.43321" lon="-4.78436">
        <ele>15</ele>
        <time>2020-06-09T11:19:18Z</time>
      </trkpt>
      <trkpt lat="48.43324" lon="-4.78438">
        <ele>15</ele>
        <time>2020-06-09T11:19:19Z</time>
      </trkpt>
      <trkpt lat="48.43326" lon="-4.78441">
        <ele>15</ele>
        <time>2020-06-09T11:19:20Z</time>
      </trkpt>
      <trkpt lat="48.43329" lon="-4.78444">
        <ele>14.9</ele>
        <time>2020-06-09T11:19:21Z</time>
      </trkpt>
      <trkpt lat="48.43331" lon="-4.78447">
        <ele>14.9</ele>
        <time>2020-06-09T11:19:22Z</time>
      </trkpt>
      <trkpt lat="48.43333" lon="-4.78449">
        <ele>14.8</ele>
        <time>2020-06-09T11:19:23Z</time>
      </trkpt>
      <trkpt lat="48.43336" lon="-4.78451">
        <ele>14.8</ele>
        <time>2020-06-09T11:19:24Z</time>
      </trkpt>
      <trkpt lat="48.43339" lon="-4.78453">
        <ele>14.7</ele>
        <time>2020-06-09T11:19:25Z</time>
      </trkpt>
      <trkpt lat="48.43342" lon="-4.78456">
        <ele>14.6</ele>
        <time>2020-06-09T11:19:26Z</time>
      </trkpt>
      <trkpt lat="48.43345" lon="-4.78459">
        <ele>14.5</ele>
        <time>2020-06-09T11:19:27Z</time>
      </trkpt>
      <trkpt lat="48.43348" lon="-4.78462">
        <ele>14.4</ele>
        <time>2020-06-09T11:19:28Z</time>
      </trkpt>
      <trkpt lat="48.43352" lon="-4.78465">
        <ele>14.3</ele>
        <time>2020-06-09T11:19:29Z</time>
      </trkpt>
      <trkpt lat="48.43356" lon="-4.78468">
        <ele>14.1</ele>
        <time>2020-06-09T11:19:30Z</time>
      </trkpt>
      <trkpt lat="48.43361" lon="-4.78471">
        <ele>13.9</ele>
        <time>2020-06-09T11:19:31Z</time>
      </trkpt>
      <trkpt lat="48.43366" lon="-4.78474">
        <ele>13.8</ele>
        <time>2020-06-09T11:19:32Z</time>
      </trkpt>
      <trkpt lat="48.43371" lon="-4.78477">
        <ele>13.6</ele>
        <time>2020-06-09T11:19:33Z</time>
      </trkpt>
      <trkpt lat="48.43376" lon="-4.78481">
        <ele>13.4</ele>
        <time>2020-06-09T11:19:34Z</time>
      </trkpt>
      <trkpt lat="48.43382" lon="-4.78484">
        <ele>13.2</ele>
        <time>2020-06-09T11:19:35Z</time>
      </trkpt>
      <trkpt lat="48.43387" lon="-4.78488">
        <ele>13.1</ele>
        <time>2020-06-09T11:19:36Z</time>
      </trkpt>
      <trkpt lat="48.43392" lon="-4.78491">
        <ele>13.1</ele>
        <time>2020-06-09T11:19:37Z</time>
      </trkpt>
      <trkpt lat="48.43396" lon="-4.78494">
        <ele>13.2</ele>
        <time>2020-06-09T11:19:38Z</time>
      </trkpt>
      <trkpt lat="48.43399" lon="-4.78495">
        <ele>13.3</ele>
        <time>2020-06-09T11:19:39Z</time>
      </trkpt>
      <trkpt lat="48.43403" lon="-4.78497">
        <ele>13.4</ele>
        <time>2020-06-09T11:19:40Z</time>
      </trkpt>
      <trkpt lat="48.43406" lon="-4.78499">
        <ele>13.5</ele>
        <time>2020-06-09T11:19:41Z</time>
      </trkpt>
      <trkpt lat="48.43408" lon="-4.78502">
        <ele>13.6</ele>
        <time>2020-06-09T11:19:42Z</time>
      </trkpt>
      <trkpt lat="48.43411" lon="-4.78505">
        <ele>13.8</ele>
        <time>2020-06-09T11:19:43Z</time>
      </trkpt>
      <trkpt lat="48.43414" lon="-4.78508">
        <ele>13.9</ele>
        <time>2020-06-09T11:19:44Z</time>
      </trkpt>
      <trkpt lat="48.43416" lon="-4.7851">
        <ele>13.9</ele>
        <time>2020-06-09T11:19:45Z</time>
      </trkpt>
      <trkpt lat="48.43419" lon="-4.78511">
        <ele>14</ele>
        <time>2020-06-09T11:19:46Z</time>
      </trkpt>
      <trkpt lat="48.43422" lon="-4.78513">
        <ele>14.1</ele>
        <time>2020-06-09T11:19:47Z</time>
      </trkpt>
      <trkpt lat="48.43425" lon="-4.78515">
        <ele>14.2</ele>
        <time>2020-06-09T11:19:48Z</time>
      </trkpt>
      <trkpt lat="48.43427" lon="-4.78517">
        <ele>14.3</ele>
        <time>2020-06-09T11:19:49Z</time>
      </trkpt>
      <trkpt lat="48.4343" lon="-4.78518">
        <ele>14.3</ele>
        <time>2020-06-09T11:19:50Z</time>
      </trkpt>
      <trkpt lat="48.43433" lon="-4.78519">
        <ele>14.4</ele>
        <time>2020-06-09T11:19:51Z</time>
      </trkpt>
      <trkpt lat="48.43436" lon="-4.78519">
        <ele>14.5</ele>
        <time>2020-06-09T11:19:52Z</time>
      </trkpt>
      <trkpt lat="48.43439" lon="-4.78519">
        <ele>14.5</ele>
        <time>2020-06-09T11:19:53Z</time>
      </trkpt>
      <trkpt lat="48.43442" lon="-4.78519">
        <ele>14.6</ele>
        <time>2020-06-09T11:19:54Z</time>
      </trkpt>
      <trkpt lat="48.43444" lon="-4.7852">
        <ele>14.6</ele>
        <time>2020-06-09T11:19:55Z</time>
      </trkpt>
      <trkpt lat="48.43447" lon="-4.7852">
        <ele>14.6</ele>
        <time>2020-06-09T11:19:56Z</time>
      </trkpt>
      <trkpt lat="48.4345" lon="-4.7852">
        <ele>14.7</ele>
        <time>2020-06-09T11:19:57Z</time>
      </trkpt>
      <trkpt lat="48.43453" lon="-4.7852">
        <ele>14.7</ele>
        <time>2020-06-09T11:19:58Z</time>
      </trkpt>
      <trkpt lat="48.43456" lon="-4.78519">
        <ele>14.7</ele>
        <time>2020-06-09T11:19:59Z</time>
      </trkpt>
      <trkpt lat="48.43459" lon="-4.78519">
        <ele>14.7</ele>
        <time>2020-06-09T11:20:00Z</time>
      </trkpt>
      <trkpt lat="48.43463" lon="-4.7852">
        <ele>14.7</ele>
        <time>2020-06-09T11:20:01Z</time>
      </trkpt>
      <trkpt lat="48.43466" lon="-4.78519">
        <ele>14.7</ele>
        <time>2020-06-09T11:20:02Z</time>
      </trkpt>
      <trkpt lat="48.43469" lon="-4.78519">
        <ele>14.7</ele>
        <time>2020-06-09T11:20:03Z</time>
      </trkpt>
      <trkpt lat="48.43472" lon="-4.78517">
        <ele>14.8</ele>
        <time>2020-06-09T11:20:04Z</time>
      </trkpt>
      <trkpt lat="48.43475" lon="-4.78516">
        <ele>14.8</ele>
        <time>2020-06-09T11:20:05Z</time>
      </trkpt>
      <trkpt lat="48.43478" lon="-4.78515">
        <ele>14.8</ele>
        <time>2020-06-09T11:20:06Z</time>
      </trkpt>
      <trkpt lat="48.43482" lon="-4.78513">
        <ele>14.8</ele>
        <time>2020-06-09T11:20:07Z</time>
      </trkpt>
      <trkpt lat="48.43485" lon="-4.78512">
        <ele>14.8</ele>
        <time>2020-06-09T11:20:08Z</time>
      </trkpt>
      <trkpt lat="48.43489" lon="-4.78511">
        <ele>14.8</ele>
        <time>2020-06-09T11:20:09Z</time>
      </trkpt>
      <trkpt lat="48.43492" lon="-4.78508">
        <ele>14.8</ele>
        <time>2020-06-09T11:20:10Z</time>
      </trkpt>
      <trkpt lat="48.43496" lon="-4.78506">
        <ele>14.8</ele>
        <time>2020-06-09T11:20:11Z</time>
      </trkpt>
      <trkpt lat="48.43499" lon="-4.78504">
        <ele>14.8</ele>
        <time>2020-06-09T11:20:12Z</time>
      </trkpt>
      <trkpt lat="48.43502" lon="-4.78501">
        <ele>14.7</ele>
        <time>2020-06-09T11:20:13Z</time>
      </trkpt>
      <trkpt lat="48.43506" lon="-4.78498">
        <ele>14.7</ele>
        <time>2020-06-09T11:20:14Z</time>
      </trkpt>
      <trkpt lat="48.43509" lon="-4.78496">
        <ele>14.7</ele>
        <time>2020-06-09T11:20:15Z</time>
      </trkpt>
      <trkpt lat="48.43512" lon="-4.78493">
        <ele>14.6</ele>
        <time>2020-06-09T11:20:16Z</time>
      </trkpt>
      <trkpt lat="48.43516" lon="-4.7849">
        <ele>14.6</ele>
        <time>2020-06-09T11:20:17Z</time>
      </trkpt>
      <trkpt lat="48.43519" lon="-4.78487">
        <ele>14.5</ele>
        <time>2020-06-09T11:20:18Z</time>
      </trkpt>
      <trkpt lat="48.43522" lon="-4.78484">
        <ele>14.5</ele>
        <time>2020-06-09T11:20:19Z</time>
      </trkpt>
      <trkpt lat="48.43525" lon="-4.78481">
        <ele>14.4</ele>
        <time>2020-06-09T11:20:20Z</time>
      </trkpt>
      <trkpt lat="48.43529" lon="-4.78478">
        <ele>14.3</ele>
        <time>2020-06-09T11:20:21Z</time>
      </trkpt>
      <trkpt lat="48.43532" lon="-4.78475">
        <ele>14.2</ele>
        <time>2020-06-09T11:20:22Z</time>
      </trkpt>
      <trkpt lat="48.43536" lon="-4.78472">
        <ele>14.2</ele>
        <time>2020-06-09T11:20:23Z</time>
      </trkpt>
      <trkpt lat="48.4354" lon="-4.7847">
        <ele>14.1</ele>
        <time>2020-06-09T11:20:24Z</time>
      </trkpt>
      <trkpt lat="48.43543" lon="-4.78468">
        <ele>14.1</ele>
        <time>2020-06-09T11:20:25Z</time>
      </trkpt>
      <trkpt lat="48.43547" lon="-4.78466">
        <ele>14</ele>
        <time>2020-06-09T11:20:26Z</time>
      </trkpt>
      <trkpt lat="48.43551" lon="-4.78463">
        <ele>13.9</ele>
        <time>2020-06-09T11:20:27Z</time>
      </trkpt>
      <trkpt lat="48.43554" lon="-4.7846">
        <ele>13.8</ele>
        <time>2020-06-09T11:20:28Z</time>
      </trkpt>
      <trkpt lat="48.43558" lon="-4.78456">
        <ele>13.7</ele>
        <time>2020-06-09T11:20:29Z</time>
      </trkpt>
      <trkpt lat="48.43561" lon="-4.78451">
        <ele>13.7</ele>
        <time>2020-06-09T11:20:30Z</time>
      </trkpt>
      <trkpt lat="48.43566" lon="-4.78449">
        <ele>13.6</ele>
        <time>2020-06-09T11:20:31Z</time>
      </trkpt>
      <trkpt lat="48.4357" lon="-4.78445">
        <ele>13.6</ele>
        <time>2020-06-09T11:20:32Z</time>
      </trkpt>
      <trkpt lat="48.43573" lon="-4.78442">
        <ele>13.6</ele>
        <time>2020-06-09T11:20:33Z</time>
      </trkpt>
      <trkpt lat="48.43577" lon="-4.78439">
        <ele>13.6</ele>
        <time>2020-06-09T11:20:34Z</time>
      </trkpt>
      <trkpt lat="48.43581" lon="-4.78436">
        <ele>13.6</ele>
        <time>2020-06-09T11:20:35Z</time>
      </trkpt>
      <trkpt lat="48.43585" lon="-4.78433">
        <ele>13.6</ele>
        <time>2020-06-09T11:20:36Z</time>
      </trkpt>
      <trkpt lat="48.43589" lon="-4.78431">
        <ele>13.7</ele>
        <time>2020-06-09T11:20:37Z</time>
      </trkpt>
      <trkpt lat="48.43592" lon="-4.78428">
        <ele>13.7</ele>
        <time>2020-06-09T11:20:38Z</time>
      </trkpt>
      <trkpt lat="48.43596" lon="-4.78427">
        <ele>13.7</ele>
        <time>2020-06-09T11:20:39Z</time>
      </trkpt>
      <trkpt lat="48.43599" lon="-4.78425">
        <ele>13.8</ele>
        <time>2020-06-09T11:20:40Z</time>
      </trkpt>
      <trkpt lat="48.43603" lon="-4.78423">
        <ele>13.8</ele>
        <time>2020-06-09T11:20:41Z</time>
      </trkpt>
      <trkpt lat="48.43606" lon="-4.7842">
        <ele>13.8</ele>
        <time>2020-06-09T11:20:42Z</time>
      </trkpt>
      <trkpt lat="48.43609" lon="-4.78418">
        <ele>13.7</ele>
        <time>2020-06-09T11:20:43Z</time>
      </trkpt>
      <trkpt lat="48.43613" lon="-4.78416">
        <ele>13.7</ele>
        <time>2020-06-09T11:20:44Z</time>
      </trkpt>
      <trkpt lat="48.43616" lon="-4.78413">
        <ele>13.7</ele>
        <time>2020-06-09T11:20:45Z</time>
      </trkpt>
      <trkpt lat="48.4362" lon="-4.78411">
        <ele>13.6</ele>
        <time>2020-06-09T11:20:46Z</time>
      </trkpt>
      <trkpt lat="48.43623" lon="-4.78409">
        <ele>13.6</ele>
        <time>2020-06-09T11:20:47Z</time>
      </trkpt>
      <trkpt lat="48.43627" lon="-4.78407">
        <ele>13.5</ele>
        <time>2020-06-09T11:20:48Z</time>
      </trkpt>
      <trkpt lat="48.4363" lon="-4.78404">
        <ele>13.4</ele>
        <time>2020-06-09T11:20:49Z</time>
      </trkpt>
      <trkpt lat="48.43634" lon="-4.784">
        <ele>13.4</ele>
        <time>2020-06-09T11:20:50Z</time>
      </trkpt>
      <trkpt lat="48.43637" lon="-4.78397">
        <ele>13.3</ele>
        <time>2020-06-09T11:20:51Z</time>
      </trkpt>
      <trkpt lat="48.43641" lon="-4.78395">
        <ele>13.3</ele>
        <time>2020-06-09T11:20:52Z</time>
      </trkpt>
      <trkpt lat="48.43644" lon="-4.78392">
        <ele>13.2</ele>
        <time>2020-06-09T11:20:53Z</time>
      </trkpt>
      <trkpt lat="48.43647" lon="-4.78389">
        <ele>13.2</ele>
        <time>2020-06-09T11:20:54Z</time>
      </trkpt>
      <trkpt lat="48.43651" lon="-4.78386">
        <ele>13.1</ele>
        <time>2020-06-09T11:20:55Z</time>
      </trkpt>
      <trkpt lat="48.43654" lon="-4.78383">
        <ele>13.1</ele>
        <time>2020-06-09T11:20:56Z</time>
      </trkpt>
      <trkpt lat="48.43657" lon="-4.78379">
        <ele>13</ele>
        <time>2020-06-09T11:20:57Z</time>
      </trkpt>
      <trkpt lat="48.4366" lon="-4.78376">
        <ele>13</ele>
        <time>2020-06-09T11:20:58Z</time>
      </trkpt>
      <trkpt lat="48.43663" lon="-4.78372">
        <ele>12.9</ele>
        <time>2020-06-09T11:20:59Z</time>
      </trkpt>
      <trkpt lat="48.43666" lon="-4.78369">
        <ele>12.9</ele>
        <time>2020-06-09T11:21:00Z</time>
      </trkpt>
      <trkpt lat="48.4367" lon="-4.78365">
        <ele>12.8</ele>
        <time>2020-06-09T11:21:01Z</time>
      </trkpt>
      <trkpt lat="48.43673" lon="-4.78362">
        <ele>12.7</ele>
        <time>2020-06-09T11:21:02Z</time>
      </trkpt>
      <trkpt lat="48.43676" lon="-4.78358">
        <ele>12.6</ele>
        <time>2020-06-09T11:21:03Z</time>
      </trkpt>
      <trkpt lat="48.43678" lon="-4.78353">
        <ele>12.6</ele>
        <time>2020-06-09T11:21:04Z</time>
      </trkpt>
      <trkpt lat="48.43678" lon="-4.78346">
        <ele>12.7</ele>
        <time>2020-06-09T11:21:05Z</time>
      </trkpt>
      <trkpt lat="48.43679" lon="-4.78341">
        <ele>12.7</ele>
        <time>2020-06-09T11:21:06Z</time>
      </trkpt>
      <trkpt lat="48.4368" lon="-4.78335">
        <ele>12.7</ele>
        <time>2020-06-09T11:21:07Z</time>
      </trkpt>
      <trkpt lat="48.43681" lon="-4.7833">
        <ele>12.7</ele>
        <time>2020-06-09T11:21:08Z</time>
      </trkpt>
      <trkpt lat="48.43682" lon="-4.78324">
        <ele>12.7</ele>
        <time>2020-06-09T11:21:09Z</time>
      </trkpt>
      <trkpt lat="48.43683" lon="-4.78318">
        <ele>12.6</ele>
        <time>2020-06-09T11:21:10Z</time>
      </trkpt>
      <trkpt lat="48.43682" lon="-4.78312">
        <ele>12.6</ele>
        <time>2020-06-09T11:21:11Z</time>
      </trkpt>
      <trkpt lat="48.43682" lon="-4.78306">
        <ele>12.6</ele>
        <time>2020-06-09T11:21:12Z</time>
      </trkpt>
      <trkpt lat="48.43682" lon="-4.783">
        <ele>12.6</ele>
        <time>2020-06-09T11:21:13Z</time>
      </trkpt>
      <trkpt lat="48.43682" lon="-4.78294">
        <ele>12.5</ele>
        <time>2020-06-09T11:21:14Z</time>
      </trkpt>
      <trkpt lat="48.43682" lon="-4.78288">
        <ele>12.5</ele>
        <time>2020-06-09T11:21:15Z</time>
      </trkpt>
      <trkpt lat="48.43683" lon="-4.78283">
        <ele>12.4</ele>
        <time>2020-06-09T11:21:16Z</time>
      </trkpt>
      <trkpt lat="48.43682" lon="-4.78277">
        <ele>12.4</ele>
        <time>2020-06-09T11:21:17Z</time>
      </trkpt>
      <trkpt lat="48.43682" lon="-4.78272">
        <ele>12.4</ele>
        <time>2020-06-09T11:21:18Z</time>
      </trkpt>
      <trkpt lat="48.43682" lon="-4.78267">
        <ele>12.3</ele>
        <time>2020-06-09T11:21:19Z</time>
      </trkpt>
      <trkpt lat="48.43683" lon="-4.78262">
        <ele>12.3</ele>
        <time>2020-06-09T11:21:20Z</time>
      </trkpt>
      <trkpt lat="48.43683" lon="-4.78256">
        <ele>12.2</ele>
        <time>2020-06-09T11:21:21Z</time>
      </trkpt>
      <trkpt lat="48.43683" lon="-4.78251">
        <ele>12.2</ele>
        <time>2020-06-09T11:21:22Z</time>
      </trkpt>
      <trkpt lat="48.43683" lon="-4.78245">
        <ele>12.2</ele>
        <time>2020-06-09T11:21:23Z</time>
      </trkpt>
      <trkpt lat="48.43683" lon="-4.78239">
        <ele>12.1</ele>
        <time>2020-06-09T11:21:24Z</time>
      </trkpt>
      <trkpt lat="48.43683" lon="-4.78233">
        <ele>12.1</ele>
        <time>2020-06-09T11:21:25Z</time>
      </trkpt>
      <trkpt lat="48.43683" lon="-4.78227">
        <ele>12</ele>
        <time>2020-06-09T11:21:26Z</time>
      </trkpt>
      <trkpt lat="48.43684" lon="-4.78221">
        <ele>12</ele>
        <time>2020-06-09T11:21:27Z</time>
      </trkpt>
      <trkpt lat="48.43684" lon="-4.78215">
        <ele>11.9</ele>
        <time>2020-06-09T11:21:28Z</time>
      </trkpt>
      <trkpt lat="48.43684" lon="-4.78208">
        <ele>11.9</ele>
        <time>2020-06-09T11:21:29Z</time>
      </trkpt>
      <trkpt lat="48.43683" lon="-4.78202">
        <ele>11.9</ele>
        <time>2020-06-09T11:21:30Z</time>
      </trkpt>
      <trkpt lat="48.43683" lon="-4.78197">
        <ele>11.8</ele>
        <time>2020-06-09T11:21:31Z</time>
      </trkpt>
      <trkpt lat="48.43683" lon="-4.78191">
        <ele>11.8</ele>
        <time>2020-06-09T11:21:32Z</time>
      </trkpt>
      <trkpt lat="48.43683" lon="-4.78185">
        <ele>11.7</ele>
        <time>2020-06-09T11:21:33Z</time>
      </trkpt>
      <trkpt lat="48.43683" lon="-4.78178">
        <ele>11.7</ele>
        <time>2020-06-09T11:21:34Z</time>
      </trkpt>
      <trkpt lat="48.43684" lon="-4.78172">
        <ele>11.6</ele>
        <time>2020-06-09T11:21:35Z</time>
      </trkpt>
      <trkpt lat="48.43684" lon="-4.78165">
        <ele>11.6</ele>
        <time>2020-06-09T11:21:36Z</time>
      </trkpt>
      <trkpt lat="48.43684" lon="-4.78159">
        <ele>11.6</ele>
        <time>2020-06-09T11:21:37Z</time>
      </trkpt>
      <trkpt lat="48.43684" lon="-4.78153">
        <ele>11.5</ele>
        <time>2020-06-09T11:21:38Z</time>
      </trkpt>
      <trkpt lat="48.43684" lon="-4.78147">
        <ele>11.5</ele>
        <time>2020-06-09T11:21:39Z</time>
      </trkpt>
      <trkpt lat="48.43684" lon="-4.78141">
        <ele>11.5</ele>
        <time>2020-06-09T11:21:40Z</time>
      </trkpt>
      <trkpt lat="48.43684" lon="-4.78135">
        <ele>11.5</ele>
        <time>2020-06-09T11:21:41Z</time>
      </trkpt>
      <trkpt lat="48.43685" lon="-4.78129">
        <ele>11.5</ele>
        <time>2020-06-09T11:21:42Z</time>
      </trkpt>
      <trkpt lat="48.43685" lon="-4.78123">
        <ele>11.4</ele>
        <time>2020-06-09T11:21:43Z</time>
      </trkpt>
      <trkpt lat="48.43684" lon="-4.78117">
        <ele>11.4</ele>
        <time>2020-06-09T11:21:44Z</time>
      </trkpt>
      <trkpt lat="48.43683" lon="-4.7811">
        <ele>11.3</ele>
        <time>2020-06-09T11:21:45Z</time>
      </trkpt>
      <trkpt lat="48.43683" lon="-4.78104">
        <ele>11.3</ele>
        <time>2020-06-09T11:21:46Z</time>
      </trkpt>
      <trkpt lat="48.43682" lon="-4.78098">
        <ele>11.2</ele>
        <time>2020-06-09T11:21:47Z</time>
      </trkpt>
      <trkpt lat="48.43682" lon="-4.78091">
        <ele>11.1</ele>
        <time>2020-06-09T11:21:48Z</time>
      </trkpt>
      <trkpt lat="48.43682" lon="-4.78085">
        <ele>11.1</ele>
        <time>2020-06-09T11:21:49Z</time>
      </trkpt>
      <trkpt lat="48.43682" lon="-4.78079">
        <ele>11</ele>
        <time>2020-06-09T11:21:50Z</time>
      </trkpt>
      <trkpt lat="48.43682" lon="-4.78073">
        <ele>11</ele>
        <time>2020-06-09T11:21:51Z</time>
      </trkpt>
      <trkpt lat="48.43682" lon="-4.78067">
        <ele>10.9</ele>
        <time>2020-06-09T11:21:52Z</time>
      </trkpt>
      <trkpt lat="48.43683" lon="-4.78061">
        <ele>10.9</ele>
        <time>2020-06-09T11:21:53Z</time>
      </trkpt>
      <trkpt lat="48.43684" lon="-4.78055">
        <ele>10.8</ele>
        <time>2020-06-09T11:21:54Z</time>
      </trkpt>
      <trkpt lat="48.43685" lon="-4.78049">
        <ele>10.8</ele>
        <time>2020-06-09T11:21:55Z</time>
      </trkpt>
      <trkpt lat="48.43686" lon="-4.78044">
        <ele>10.7</ele>
        <time>2020-06-09T11:21:56Z</time>
      </trkpt>
      <trkpt lat="48.43688" lon="-4.78039">
        <ele>10.7</ele>
        <time>2020-06-09T11:21:57Z</time>
      </trkpt>
      <trkpt lat="48.4369" lon="-4.78035">
        <ele>10.6</ele>
        <time>2020-06-09T11:21:58Z</time>
      </trkpt>
      <trkpt lat="48.43693" lon="-4.7803">
        <ele>10.6</ele>
        <time>2020-06-09T11:21:59Z</time>
      </trkpt>
      <trkpt lat="48.43696" lon="-4.78027">
        <ele>10.6</ele>
        <time>2020-06-09T11:22:00Z</time>
      </trkpt>
      <trkpt lat="48.43699" lon="-4.78024">
        <ele>10.5</ele>
        <time>2020-06-09T11:22:01Z</time>
      </trkpt>
      <trkpt lat="48.43701" lon="-4.78022">
        <ele>10.5</ele>
        <time>2020-06-09T11:22:02Z</time>
      </trkpt>
      <trkpt lat="48.43703" lon="-4.78019">
        <ele>10.5</ele>
        <time>2020-06-09T11:22:03Z</time>
      </trkpt>
      <trkpt lat="48.43706" lon="-4.78015">
        <ele>10.5</ele>
        <time>2020-06-09T11:22:04Z</time>
      </trkpt>
      <trkpt lat="48.43707" lon="-4.78014">
        <ele>10.4</ele>
        <time>2020-06-09T11:22:05Z</time>
      </trkpt>
      <trkpt lat="48.43709" lon="-4.78014">
        <ele>10.4</ele>
        <time>2020-06-09T11:22:06Z</time>
      </trkpt>
      <trkpt lat="48.4371" lon="-4.78014">
        <ele>10.3</ele>
        <time>2020-06-09T11:22:07Z</time>
      </trkpt>
      <trkpt lat="48.43711" lon="-4.78015">
        <ele>10.3</ele>
        <time>2020-06-09T11:22:08Z</time>
      </trkpt>
      <trkpt lat="48.43713" lon="-4.78017">
        <ele>10.2</ele>
        <time>2020-06-09T11:22:09Z</time>
      </trkpt>
      <trkpt lat="48.43714" lon="-4.78019">
        <ele>10.2</ele>
        <time>2020-06-09T11:22:10Z</time>
      </trkpt>
      <trkpt lat="48.43714" lon="-4.78024">
        <ele>10.1</ele>
        <time>2020-06-09T11:22:11Z</time>
      </trkpt>
      <trkpt lat="48.43715" lon="-4.78026">
        <ele>10</ele>
        <time>2020-06-09T11:22:12Z</time>
      </trkpt>
      <trkpt lat="48.43715" lon="-4.7803">
        <ele>9.9</ele>
        <time>2020-06-09T11:22:13Z</time>
      </trkpt>
      <trkpt lat="48.43716" lon="-4.78032">
        <ele>9.9</ele>
        <time>2020-06-09T11:22:14Z</time>
      </trkpt>
      <trkpt lat="48.43716" lon="-4.78036">
        <ele>9.8</ele>
        <time>2020-06-09T11:22:15Z</time>
      </trkpt>
      <trkpt lat="48.43717" lon="-4.78038">
        <ele>9.7</ele>
        <time>2020-06-09T11:22:16Z</time>
      </trkpt>
      <trkpt lat="48.43718" lon="-4.78043">
        <ele>9.6</ele>
        <time>2020-06-09T11:22:17Z</time>
      </trkpt>
      <trkpt lat="48.43718" lon="-4.78045">
        <ele>9.6</ele>
        <time>2020-06-09T11:22:18Z</time>
      </trkpt>
      <trkpt lat="48.43719" lon="-4.78049">
        <ele>9.5</ele>
        <time>2020-06-09T11:22:19Z</time>
      </trkpt>
      <trkpt lat="48.43721" lon="-4.78053">
        <ele>9.4</ele>
        <time>2020-06-09T11:22:20Z</time>
      </trkpt>
      <trkpt lat="48.43723" lon="-4.78056">
        <ele>9.4</ele>
        <time>2020-06-09T11:22:21Z</time>
      </trkpt>
      <trkpt lat="48.43724" lon="-4.7806">
        <ele>9.3</ele>
        <time>2020-06-09T11:22:22Z</time>
      </trkpt>
      <trkpt lat="48.43726" lon="-4.78064">
        <ele>9.2</ele>
        <time>2020-06-09T11:22:23Z</time>
      </trkpt>
      <trkpt lat="48.43726" lon="-4.78069">
        <ele>9.2</ele>
        <time>2020-06-09T11:22:24Z</time>
      </trkpt>
      <trkpt lat="48.43727" lon="-4.78073">
        <ele>9.1</ele>
        <time>2020-06-09T11:22:25Z</time>
      </trkpt>
      <trkpt lat="48.43728" lon="-4.78078">
        <ele>9.1</ele>
        <time>2020-06-09T11:22:26Z</time>
      </trkpt>
      <trkpt lat="48.43729" lon="-4.78083">
        <ele>9.1</ele>
        <time>2020-06-09T11:22:27Z</time>
      </trkpt>
      <trkpt lat="48.4373" lon="-4.78088">
        <ele>9</ele>
        <time>2020-06-09T11:22:28Z</time>
      </trkpt>
      <trkpt lat="48.4373" lon="-4.78092">
        <ele>9</ele>
        <time>2020-06-09T11:22:29Z</time>
      </trkpt>
      <trkpt lat="48.43733" lon="-4.78096">
        <ele>8.9</ele>
        <time>2020-06-09T11:22:30Z</time>
      </trkpt>
      <trkpt lat="48.43735" lon="-4.781">
        <ele>8.9</ele>
        <time>2020-06-09T11:22:31Z</time>
      </trkpt>
      <trkpt lat="48.43736" lon="-4.78104">
        <ele>8.8</ele>
        <time>2020-06-09T11:22:32Z</time>
      </trkpt>
      <trkpt lat="48.43737" lon="-4.78108">
        <ele>8.8</ele>
        <time>2020-06-09T11:22:33Z</time>
      </trkpt>
      <trkpt lat="48.43739" lon="-4.78113">
        <ele>8.7</ele>
        <time>2020-06-09T11:22:34Z</time>
      </trkpt>
      <trkpt lat="48.43742" lon="-4.78117">
        <ele>8.6</ele>
        <time>2020-06-09T11:22:35Z</time>
      </trkpt>
      <trkpt lat="48.43745" lon="-4.7812">
        <ele>8.5</ele>
        <time>2020-06-09T11:22:36Z</time>
      </trkpt>
      <trkpt lat="48.43749" lon="-4.78123">
        <ele>8.4</ele>
        <time>2020-06-09T11:22:37Z</time>
      </trkpt>
      <trkpt lat="48.43751" lon="-4.78127">
        <ele>8.3</ele>
        <time>2020-06-09T11:22:38Z</time>
      </trkpt>
      <trkpt lat="48.43754" lon="-4.78131">
        <ele>8.2</ele>
        <time>2020-06-09T11:22:39Z</time>
      </trkpt>
      <trkpt lat="48.43757" lon="-4.78135">
        <ele>8.1</ele>
        <time>2020-06-09T11:22:40Z</time>
      </trkpt>
      <trkpt lat="48.4376" lon="-4.78138">
        <ele>8</ele>
        <time>2020-06-09T11:22:41Z</time>
      </trkpt>
      <trkpt lat="48.43762" lon="-4.78141">
        <ele>7.9</ele>
        <time>2020-06-09T11:22:42Z</time>
      </trkpt>
      <trkpt lat="48.43765" lon="-4.78143">
        <ele>7.8</ele>
        <time>2020-06-09T11:22:43Z</time>
      </trkpt>
      <trkpt lat="48.43769" lon="-4.78145">
        <ele>7.7</ele>
        <time>2020-06-09T11:22:44Z</time>
      </trkpt>
      <trkpt lat="48.43772" lon="-4.78145">
        <ele>7.6</ele>
        <time>2020-06-09T11:22:45Z</time>
      </trkpt>
      <trkpt lat="48.43776" lon="-4.78145">
        <ele>7.5</ele>
        <time>2020-06-09T11:22:46Z</time>
      </trkpt>
      <trkpt lat="48.4378" lon="-4.78145">
        <ele>7.4</ele>
        <time>2020-06-09T11:22:47Z</time>
      </trkpt>
      <trkpt lat="48.43784" lon="-4.78145">
        <ele>7.3</ele>
        <time>2020-06-09T11:22:48Z</time>
      </trkpt>
      <trkpt lat="48.43787" lon="-4.78145">
        <ele>7.2</ele>
        <time>2020-06-09T11:22:49Z</time>
      </trkpt>
      <trkpt lat="48.43791" lon="-4.78145">
        <ele>7.1</ele>
        <time>2020-06-09T11:22:50Z</time>
      </trkpt>
      <trkpt lat="48.43794" lon="-4.78143">
        <ele>7</ele>
        <time>2020-06-09T11:22:51Z</time>
      </trkpt>
      <trkpt lat="48.43798" lon="-4.78142">
        <ele>7</ele>
        <time>2020-06-09T11:22:52Z</time>
      </trkpt>
      <trkpt lat="48.43801" lon="-4.78139">
        <ele>6.9</ele>
        <time>2020-06-09T11:22:53Z</time>
      </trkpt>
      <trkpt lat="48.43804" lon="-4.78137">
        <ele>6.8</ele>
        <time>2020-06-09T11:22:54Z</time>
      </trkpt>
      <trkpt lat="48.43807" lon="-4.78134">
        <ele>6.8</ele>
        <time>2020-06-09T11:22:55Z</time>
      </trkpt>
      <trkpt lat="48.4381" lon="-4.78132">
        <ele>6.7</ele>
        <time>2020-06-09T11:22:56Z</time>
      </trkpt>
      <trkpt lat="48.43813" lon="-4.78129">
        <ele>6.7</ele>
        <time>2020-06-09T11:22:57Z</time>
      </trkpt>
      <trkpt lat="48.43816" lon="-4.78125">
        <ele>6.6</ele>
        <time>2020-06-09T11:22:58Z</time>
      </trkpt>
      <trkpt lat="48.43818" lon="-4.78121">
        <ele>6.6</ele>
        <time>2020-06-09T11:22:59Z</time>
      </trkpt>
      <trkpt lat="48.4382" lon="-4.78116">
        <ele>6.5</ele>
        <time>2020-06-09T11:23:00Z</time>
      </trkpt>
      <trkpt lat="48.43821" lon="-4.78112">
        <ele>6.5</ele>
        <time>2020-06-09T11:23:01Z</time>
      </trkpt>
      <trkpt lat="48.43823" lon="-4.78107">
        <ele>6.4</ele>
        <time>2020-06-09T11:23:02Z</time>
      </trkpt>
      <trkpt lat="48.43825" lon="-4.78102">
        <ele>6.4</ele>
        <time>2020-06-09T11:23:03Z</time>
      </trkpt>
      <trkpt lat="48.43827" lon="-4.78097">
        <ele>6.3</ele>
        <time>2020-06-09T11:23:04Z</time>
      </trkpt>
      <trkpt lat="48.43829" lon="-4.78092">
        <ele>6.3</ele>
        <time>2020-06-09T11:23:05Z</time>
      </trkpt>
      <trkpt lat="48.4383" lon="-4.78087">
        <ele>6.2</ele>
        <time>2020-06-09T11:23:06Z</time>
      </trkpt>
      <trkpt lat="48.43831" lon="-4.78081">
        <ele>6.2</ele>
        <time>2020-06-09T11:23:07Z</time>
      </trkpt>
      <trkpt lat="48.43833" lon="-4.78076">
        <ele>6.2</ele>
        <time>2020-06-09T11:23:08Z</time>
      </trkpt>
      <trkpt lat="48.43834" lon="-4.78069">
        <ele>6.2</ele>
        <time>2020-06-09T11:23:09Z</time>
      </trkpt>
      <trkpt lat="48.43835" lon="-4.78063">
        <ele>6.3</ele>
        <time>2020-06-09T11:23:10Z</time>
      </trkpt>
      <trkpt lat="48.43837" lon="-4.78057">
        <ele>6.3</ele>
        <time>2020-06-09T11:23:11Z</time>
      </trkpt>
      <trkpt lat="48.43838" lon="-4.78051">
        <ele>6.3</ele>
        <time>2020-06-09T11:23:12Z</time>
      </trkpt>
      <trkpt lat="48.43839" lon="-4.78045">
        <ele>6.4</ele>
        <time>2020-06-09T11:23:13Z</time>
      </trkpt>
      <trkpt lat="48.4384" lon="-4.78039">
        <ele>6.4</ele>
        <time>2020-06-09T11:23:14Z</time>
      </trkpt>
      <trkpt lat="48.4384" lon="-4.78034">
        <ele>6.5</ele>
        <time>2020-06-09T11:23:15Z</time>
      </trkpt>
      <trkpt lat="48.4384" lon="-4.78028">
        <ele>6.6</ele>
        <time>2020-06-09T11:23:16Z</time>
      </trkpt>
      <trkpt lat="48.4384" lon="-4.78023">
        <ele>6.7</ele>
        <time>2020-06-09T11:23:17Z</time>
      </trkpt>
      <trkpt lat="48.4384" lon="-4.78017">
        <ele>6.7</ele>
        <time>2020-06-09T11:23:18Z</time>
      </trkpt>
      <trkpt lat="48.4384" lon="-4.78011">
        <ele>6.8</ele>
        <time>2020-06-09T11:23:19Z</time>
      </trkpt>
      <trkpt lat="48.43841" lon="-4.78006">
        <ele>6.9</ele>
        <time>2020-06-09T11:23:20Z</time>
      </trkpt>
      <trkpt lat="48.43842" lon="-4.78">
        <ele>7</ele>
        <time>2020-06-09T11:23:21Z</time>
      </trkpt>
      <trkpt lat="48.43844" lon="-4.77995">
        <ele>7.1</ele>
        <time>2020-06-09T11:23:22Z</time>
      </trkpt>
      <trkpt lat="48.43845" lon="-4.7799">
        <ele>7.2</ele>
        <time>2020-06-09T11:23:23Z</time>
      </trkpt>
      <trkpt lat="48.43846" lon="-4.77984">
        <ele>7.3</ele>
        <time>2020-06-09T11:23:24Z</time>
      </trkpt>
      <trkpt lat="48.43848" lon="-4.77979">
        <ele>7.4</ele>
        <time>2020-06-09T11:23:25Z</time>
      </trkpt>
      <trkpt lat="48.43849" lon="-4.77974">
        <ele>7.5</ele>
        <time>2020-06-09T11:23:26Z</time>
      </trkpt>
      <trkpt lat="48.4385" lon="-4.77969">
        <ele>7.6</ele>
        <time>2020-06-09T11:23:27Z</time>
      </trkpt>
      <trkpt lat="48.43852" lon="-4.77965">
        <ele>7.6</ele>
        <time>2020-06-09T11:23:28Z</time>
      </trkpt>
      <trkpt lat="48.43853" lon="-4.77961">
        <ele>7.7</ele>
        <time>2020-06-09T11:23:29Z</time>
      </trkpt>
      <trkpt lat="48.43855" lon="-4.77957">
        <ele>7.8</ele>
        <time>2020-06-09T11:23:30Z</time>
      </trkpt>
      <trkpt lat="48.43858" lon="-4.77954">
        <ele>7.9</ele>
        <time>2020-06-09T11:23:31Z</time>
      </trkpt>
      <trkpt lat="48.43861" lon="-4.77951">
        <ele>8</ele>
        <time>2020-06-09T11:23:32Z</time>
      </trkpt>
      <trkpt lat="48.43864" lon="-4.77947">
        <ele>8.1</ele>
        <time>2020-06-09T11:23:33Z</time>
      </trkpt>
      <trkpt lat="48.43866" lon="-4.77943">
        <ele>8.2</ele>
        <time>2020-06-09T11:23:34Z</time>
      </trkpt>
      <trkpt lat="48.43869" lon="-4.7794">
        <ele>8.3</ele>
        <time>2020-06-09T11:23:35Z</time>
      </trkpt>
      <trkpt lat="48.43871" lon="-4.77936">
        <ele>8.3</ele>
        <time>2020-06-09T11:23:36Z</time>
      </trkpt>
      <trkpt lat="48.43874" lon="-4.77933">
        <ele>8.4</ele>
        <time>2020-06-09T11:23:37Z</time>
      </trkpt>
      <trkpt lat="48.43877" lon="-4.7793">
        <ele>8.5</ele>
        <time>2020-06-09T11:23:38Z</time>
      </trkpt>
      <trkpt lat="48.4388" lon="-4.77927">
        <ele>8.6</ele>
        <time>2020-06-09T11:23:39Z</time>
      </trkpt>
      <trkpt lat="48.43883" lon="-4.77924">
        <ele>8.8</ele>
        <time>2020-06-09T11:23:40Z</time>
      </trkpt>
      <trkpt lat="48.43886" lon="-4.77921">
        <ele>8.9</ele>
        <time>2020-06-09T11:23:41Z</time>
      </trkpt>
      <trkpt lat="48.43889" lon="-4.77919">
        <ele>9</ele>
        <time>2020-06-09T11:23:42Z</time>
      </trkpt>
      <trkpt lat="48.43892" lon="-4.77917">
        <ele>9.2</ele>
        <time>2020-06-09T11:23:43Z</time>
      </trkpt>
      <trkpt lat="48.43895" lon="-4.77914">
        <ele>9.3</ele>
        <time>2020-06-09T11:23:44Z</time>
      </trkpt>
      <trkpt lat="48.43898" lon="-4.77912">
        <ele>9.4</ele>
        <time>2020-06-09T11:23:45Z</time>
      </trkpt>
      <trkpt lat="48.43901" lon="-4.7791">
        <ele>9.5</ele>
        <time>2020-06-09T11:23:46Z</time>
      </trkpt>
      <trkpt lat="48.43904" lon="-4.77908">
        <ele>9.7</ele>
        <time>2020-06-09T11:23:47Z</time>
      </trkpt>
      <trkpt lat="48.43907" lon="-4.77905">
        <ele>9.8</ele>
        <time>2020-06-09T11:23:48Z</time>
      </trkpt>
      <trkpt lat="48.4391" lon="-4.77901">
        <ele>9.9</ele>
        <time>2020-06-09T11:23:49Z</time>
      </trkpt>
      <trkpt lat="48.43912" lon="-4.77897">
        <ele>10.1</ele>
        <time>2020-06-09T11:23:50Z</time>
      </trkpt>
      <trkpt lat="48.43915" lon="-4.77894">
        <ele>10.2</ele>
        <time>2020-06-09T11:23:51Z</time>
      </trkpt>
      <trkpt lat="48.43918" lon="-4.7789">
        <ele>10.3</ele>
        <time>2020-06-09T11:23:52Z</time>
      </trkpt>
      <trkpt lat="48.43921" lon="-4.77888">
        <ele>10.4</ele>
        <time>2020-06-09T11:23:53Z</time>
      </trkpt>
      <trkpt lat="48.43924" lon="-4.77884">
        <ele>10.5</ele>
        <time>2020-06-09T11:23:54Z</time>
      </trkpt>
      <trkpt lat="48.43927" lon="-4.77881">
        <ele>10.5</ele>
        <time>2020-06-09T11:23:55Z</time>
      </trkpt>
      <trkpt lat="48.43929" lon="-4.77877">
        <ele>10.5</ele>
        <time>2020-06-09T11:23:56Z</time>
      </trkpt>
      <trkpt lat="48.43932" lon="-4.77874">
        <ele>10.7</ele>
        <time>2020-06-09T11:23:57Z</time>
      </trkpt>
      <trkpt lat="48.43935" lon="-4.77871">
        <ele>10.8</ele>
        <time>2020-06-09T11:23:58Z</time>
      </trkpt>
      <trkpt lat="48.43938" lon="-4.77869">
        <ele>11</ele>
        <time>2020-06-09T11:23:59Z</time>
      </trkpt>
      <trkpt lat="48.43941" lon="-4.77868">
        <ele>11.1</ele>
        <time>2020-06-09T11:24:00Z</time>
      </trkpt>
      <trkpt lat="48.43944" lon="-4.77868">
        <ele>11.2</ele>
        <time>2020-06-09T11:24:01Z</time>
      </trkpt>
      <trkpt lat="48.43947" lon="-4.77865">
        <ele>11.4</ele>
        <time>2020-06-09T11:24:02Z</time>
      </trkpt>
      <trkpt lat="48.4395" lon="-4.77863">
        <ele>11.6</ele>
        <time>2020-06-09T11:24:03Z</time>
      </trkpt>
      <trkpt lat="48.43953" lon="-4.77861">
        <ele>11.7</ele>
        <time>2020-06-09T11:24:04Z</time>
      </trkpt>
      <trkpt lat="48.43956" lon="-4.77858">
        <ele>11.9</ele>
        <time>2020-06-09T11:24:05Z</time>
      </trkpt>
      <trkpt lat="48.43958" lon="-4.77856">
        <ele>12</ele>
        <time>2020-06-09T11:24:06Z</time>
      </trkpt>
      <trkpt lat="48.43961" lon="-4.77854">
        <ele>12.1</ele>
        <time>2020-06-09T11:24:07Z</time>
      </trkpt>
      <trkpt lat="48.43963" lon="-4.77852">
        <ele>12.3</ele>
        <time>2020-06-09T11:24:08Z</time>
      </trkpt>
      <trkpt lat="48.43966" lon="-4.7785">
        <ele>12.4</ele>
        <time>2020-06-09T11:24:09Z</time>
      </trkpt>
      <trkpt lat="48.43969" lon="-4.77849">
        <ele>12.6</ele>
        <time>2020-06-09T11:24:10Z</time>
      </trkpt>
      <trkpt lat="48.43971" lon="-4.77847">
        <ele>12.7</ele>
        <time>2020-06-09T11:24:11Z</time>
      </trkpt>
      <trkpt lat="48.43974" lon="-4.77844">
        <ele>12.8</ele>
        <time>2020-06-09T11:24:12Z</time>
      </trkpt>
      <trkpt lat="48.43975" lon="-4.77843">
        <ele>12.9</ele>
        <time>2020-06-09T11:24:13Z</time>
      </trkpt>
      <trkpt lat="48.43979" lon="-4.7784">
        <ele>13</ele>
        <time>2020-06-09T11:24:14Z</time>
      </trkpt>
      <trkpt lat="48.4398" lon="-4.77839">
        <ele>13.1</ele>
        <time>2020-06-09T11:24:15Z</time>
      </trkpt>
      <trkpt lat="48.43982" lon="-4.77837">
        <ele>13.2</ele>
        <time>2020-06-09T11:24:16Z</time>
      </trkpt>
      <trkpt lat="48.43984" lon="-4.77834">
        <ele>13.3</ele>
        <time>2020-06-09T11:24:17Z</time>
      </trkpt>
      <trkpt lat="48.43986" lon="-4.77831">
        <ele>13.4</ele>
        <time>2020-06-09T11:24:18Z</time>
      </trkpt>
      <trkpt lat="48.43989" lon="-4.77831">
        <ele>13.5</ele>
        <time>2020-06-09T11:24:19Z</time>
      </trkpt>
      <trkpt lat="48.43992" lon="-4.77829">
        <ele>13.6</ele>
        <time>2020-06-09T11:24:20Z</time>
      </trkpt>
      <trkpt lat="48.43995" lon="-4.77825">
        <ele>13.7</ele>
        <time>2020-06-09T11:24:21Z</time>
      </trkpt>
      <trkpt lat="48.43996" lon="-4.77824">
        <ele>13.7</ele>
        <time>2020-06-09T11:24:22Z</time>
      </trkpt>
      <trkpt lat="48.43999" lon="-4.77821">
        <ele>13.8</ele>
        <time>2020-06-09T11:24:23Z</time>
      </trkpt>
      <trkpt lat="48.44001" lon="-4.77818">
        <ele>13.9</ele>
        <time>2020-06-09T11:24:24Z</time>
      </trkpt>
      <trkpt lat="48.44003" lon="-4.77816">
        <ele>14</ele>
        <time>2020-06-09T11:24:25Z</time>
      </trkpt>
      <trkpt lat="48.44006" lon="-4.77814">
        <ele>14</ele>
        <time>2020-06-09T11:24:26Z</time>
      </trkpt>
      <trkpt lat="48.44009" lon="-4.77812">
        <ele>14.1</ele>
        <time>2020-06-09T11:24:27Z</time>
      </trkpt>
      <trkpt lat="48.44011" lon="-4.77809">
        <ele>14.1</ele>
        <time>2020-06-09T11:24:28Z</time>
      </trkpt>
      <trkpt lat="48.44014" lon="-4.77805">
        <ele>14.2</ele>
        <time>2020-06-09T11:24:29Z</time>
      </trkpt>
      <trkpt lat="48.44015" lon="-4.77803">
        <ele>14.2</ele>
        <time>2020-06-09T11:24:30Z</time>
      </trkpt>
      <trkpt lat="48.44018" lon="-4.77801">
        <ele>14.3</ele>
        <time>2020-06-09T11:24:31Z</time>
      </trkpt>
      <trkpt lat="48.44021" lon="-4.778">
        <ele>14.3</ele>
        <time>2020-06-09T11:24:32Z</time>
      </trkpt>
      <trkpt lat="48.44024" lon="-4.77799">
        <ele>14.4</ele>
        <time>2020-06-09T11:24:33Z</time>
      </trkpt>
      <trkpt lat="48.44027" lon="-4.77798">
        <ele>14.4</ele>
        <time>2020-06-09T11:24:34Z</time>
      </trkpt>
      <trkpt lat="48.4403" lon="-4.77796">
        <ele>14.5</ele>
        <time>2020-06-09T11:24:35Z</time>
      </trkpt>
      <trkpt lat="48.44032" lon="-4.77794">
        <ele>14.5</ele>
        <time>2020-06-09T11:24:36Z</time>
      </trkpt>
      <trkpt lat="48.44035" lon="-4.77793">
        <ele>14.6</ele>
        <time>2020-06-09T11:24:37Z</time>
      </trkpt>
      <trkpt lat="48.44038" lon="-4.77792">
        <ele>14.6</ele>
        <time>2020-06-09T11:24:38Z</time>
      </trkpt>
      <trkpt lat="48.44041" lon="-4.7779">
        <ele>14.6</ele>
        <time>2020-06-09T11:24:39Z</time>
      </trkpt>
      <trkpt lat="48.44044" lon="-4.77788">
        <ele>14.7</ele>
        <time>2020-06-09T11:24:40Z</time>
      </trkpt>
      <trkpt lat="48.44046" lon="-4.77787">
        <ele>14.7</ele>
        <time>2020-06-09T11:24:41Z</time>
      </trkpt>
      <trkpt lat="48.44049" lon="-4.77785">
        <ele>14.7</ele>
        <time>2020-06-09T11:24:42Z</time>
      </trkpt>
      <trkpt lat="48.44052" lon="-4.77784">
        <ele>14.8</ele>
        <time>2020-06-09T11:24:43Z</time>
      </trkpt>
      <trkpt lat="48.44055" lon="-4.77784">
        <ele>14.8</ele>
        <time>2020-06-09T11:24:44Z</time>
      </trkpt>
      <trkpt lat="48.44058" lon="-4.77783">
        <ele>14.8</ele>
        <time>2020-06-09T11:24:45Z</time>
      </trkpt>
      <trkpt lat="48.44061" lon="-4.77782">
        <ele>14.8</ele>
        <time>2020-06-09T11:24:46Z</time>
      </trkpt>
      <trkpt lat="48.44064" lon="-4.77781">
        <ele>14.9</ele>
        <time>2020-06-09T11:24:47Z</time>
      </trkpt>
      <trkpt lat="48.44067" lon="-4.7778">
        <ele>14.9</ele>
        <time>2020-06-09T11:24:48Z</time>
      </trkpt>
      <trkpt lat="48.44069" lon="-4.77778">
        <ele>14.9</ele>
        <time>2020-06-09T11:24:49Z</time>
      </trkpt>
      <trkpt lat="48.44072" lon="-4.77777">
        <ele>14.9</ele>
        <time>2020-06-09T11:24:50Z</time>
      </trkpt>
      <trkpt lat="48.44075" lon="-4.77777">
        <ele>14.9</ele>
        <time>2020-06-09T11:24:51Z</time>
      </trkpt>
      <trkpt lat="48.44078" lon="-4.77776">
        <ele>15</ele>
        <time>2020-06-09T11:24:52Z</time>
      </trkpt>
      <trkpt lat="48.44081" lon="-4.77776">
        <ele>15</ele>
        <time>2020-06-09T11:24:53Z</time>
      </trkpt>
      <trkpt lat="48.44085" lon="-4.77774">
        <ele>15</ele>
        <time>2020-06-09T11:24:54Z</time>
      </trkpt>
      <trkpt lat="48.44086" lon="-4.77774">
        <ele>15</ele>
        <time>2020-06-09T11:24:55Z</time>
      </trkpt>
      <trkpt lat="48.4409" lon="-4.77772">
        <ele>15</ele>
        <time>2020-06-09T11:24:56Z</time>
      </trkpt>
      <trkpt lat="48.44091" lon="-4.77772">
        <ele>15</ele>
        <time>2020-06-09T11:24:57Z</time>
      </trkpt>
      <trkpt lat="48.44094" lon="-4.77771">
        <ele>15.1</ele>
        <time>2020-06-09T11:24:58Z</time>
      </trkpt>
      <trkpt lat="48.44097" lon="-4.7777">
        <ele>15.1</ele>
        <time>2020-06-09T11:24:59Z</time>
      </trkpt>
      <trkpt lat="48.441" lon="-4.77768">
        <ele>15.1</ele>
        <time>2020-06-09T11:25:00Z</time>
      </trkpt>
      <trkpt lat="48.44103" lon="-4.77766">
        <ele>15.1</ele>
        <time>2020-06-09T11:25:01Z</time>
      </trkpt>
      <trkpt lat="48.44105" lon="-4.77764">
        <ele>15.1</ele>
        <time>2020-06-09T11:25:02Z</time>
      </trkpt>
      <trkpt lat="48.44108" lon="-4.77762">
        <ele>15.1</ele>
        <time>2020-06-09T11:25:03Z</time>
      </trkpt>
      <trkpt lat="48.44111" lon="-4.7776">
        <ele>15.1</ele>
        <time>2020-06-09T11:25:04Z</time>
      </trkpt>
      <trkpt lat="48.44114" lon="-4.77758">
        <ele>15.2</ele>
        <time>2020-06-09T11:25:05Z</time>
      </trkpt>
      <trkpt lat="48.44116" lon="-4.77756">
        <ele>15.2</ele>
        <time>2020-06-09T11:25:06Z</time>
      </trkpt>
      <trkpt lat="48.44119" lon="-4.77752">
        <ele>15.2</ele>
        <time>2020-06-09T11:25:07Z</time>
      </trkpt>
      <trkpt lat="48.44121" lon="-4.77749">
        <ele>15.2</ele>
        <time>2020-06-09T11:25:08Z</time>
      </trkpt>
      <trkpt lat="48.44123" lon="-4.77744">
        <ele>15.2</ele>
        <time>2020-06-09T11:25:09Z</time>
      </trkpt>
      <trkpt lat="48.44123" lon="-4.77742">
        <ele>15.2</ele>
        <time>2020-06-09T11:25:10Z</time>
      </trkpt>
      <trkpt lat="48.44125" lon="-4.77739">
        <ele>15.2</ele>
        <time>2020-06-09T11:25:11Z</time>
      </trkpt>
      <trkpt lat="48.44127" lon="-4.77736">
        <ele>15.2</ele>
        <time>2020-06-09T11:25:12Z</time>
      </trkpt>
      <trkpt lat="48.4413" lon="-4.77734">
        <ele>15.2</ele>
        <time>2020-06-09T11:25:13Z</time>
      </trkpt>
      <trkpt lat="48.44132" lon="-4.77731">
        <ele>15.2</ele>
        <time>2020-06-09T11:25:14Z</time>
      </trkpt>
      <trkpt lat="48.44135" lon="-4.77728">
        <ele>15.2</ele>
        <time>2020-06-09T11:25:15Z</time>
      </trkpt>
      <trkpt lat="48.44136" lon="-4.77726">
        <ele>15.2</ele>
        <time>2020-06-09T11:25:16Z</time>
      </trkpt>
      <trkpt lat="48.44139" lon="-4.77723">
        <ele>15.1</ele>
        <time>2020-06-09T11:25:17Z</time>
      </trkpt>
      <trkpt lat="48.4414" lon="-4.77722">
        <ele>15.1</ele>
        <time>2020-06-09T11:25:18Z</time>
      </trkpt>
      <trkpt lat="48.44142" lon="-4.77717">
        <ele>15.1</ele>
        <time>2020-06-09T11:25:19Z</time>
      </trkpt>
      <trkpt lat="48.44143" lon="-4.77716">
        <ele>15.1</ele>
        <time>2020-06-09T11:25:20Z</time>
      </trkpt>
      <trkpt lat="48.44146" lon="-4.77713">
        <ele>15.1</ele>
        <time>2020-06-09T11:25:21Z</time>
      </trkpt>
      <trkpt lat="48.44148" lon="-4.77709">
        <ele>15.1</ele>
        <time>2020-06-09T11:25:22Z</time>
      </trkpt>
      <trkpt lat="48.4415" lon="-4.77705">
        <ele>15.1</ele>
        <time>2020-06-09T11:25:23Z</time>
      </trkpt>
      <trkpt lat="48.44152" lon="-4.77702">
        <ele>15</ele>
        <time>2020-06-09T11:25:24Z</time>
      </trkpt>
      <trkpt lat="48.44154" lon="-4.77698">
        <ele>15</ele>
        <time>2020-06-09T11:25:25Z</time>
      </trkpt>
      <trkpt lat="48.44155" lon="-4.77695">
        <ele>15</ele>
        <time>2020-06-09T11:25:26Z</time>
      </trkpt>
      <trkpt lat="48.44157" lon="-4.77692">
        <ele>15</ele>
        <time>2020-06-09T11:25:27Z</time>
      </trkpt>
      <trkpt lat="48.44159" lon="-4.77688">
        <ele>14.9</ele>
        <time>2020-06-09T11:25:28Z</time>
      </trkpt>
      <trkpt lat="48.44161" lon="-4.77685">
        <ele>14.9</ele>
        <time>2020-06-09T11:25:29Z</time>
      </trkpt>
      <trkpt lat="48.44164" lon="-4.77683">
        <ele>14.9</ele>
        <time>2020-06-09T11:25:30Z</time>
      </trkpt>
      <trkpt lat="48.44166" lon="-4.77679">
        <ele>14.8</ele>
        <time>2020-06-09T11:25:31Z</time>
      </trkpt>
      <trkpt lat="48.44167" lon="-4.77677">
        <ele>14.8</ele>
        <time>2020-06-09T11:25:32Z</time>
      </trkpt>
      <trkpt lat="48.4417" lon="-4.77674">
        <ele>14.8</ele>
        <time>2020-06-09T11:25:33Z</time>
      </trkpt>
      <trkpt lat="48.44171" lon="-4.77672">
        <ele>14.7</ele>
        <time>2020-06-09T11:25:34Z</time>
      </trkpt>
    </trkseg>
  </trk>
  <trk>
    <name><![CDATA[T13]]></name>
    <trkseg>
      <trkpt lat="49.40333" lon="-1.78047">
        <ele>85.1</ele>
        <time>2020-06-14T16:24:10Z</time>
      </trkpt>
      <trkpt lat="49.40334" lon="-1.78045">
        <ele>85.1</ele>
        <time>2020-06-14T16:24:11Z</time>
      </trkpt>
      <trkpt lat="49.40335" lon="-1.78044">
        <ele>85</ele>
        <time>2020-06-14T16:24:12Z</time>
      </trkpt>
      <trkpt lat="49.40335" lon="-1.78043">
        <ele>85</ele>
        <time>2020-06-14T16:24:13Z</time>
      </trkpt>
      <trkpt lat="49.40337" lon="-1.78044">
        <ele>85</ele>
        <time>2020-06-14T16:24:14Z</time>
      </trkpt>
      <trkpt lat="49.40339" lon="-1.78045">
        <ele>84.9</ele>
        <time>2020-06-14T16:24:15Z</time>
      </trkpt>
      <trkpt lat="49.4034" lon="-1.78046">
        <ele>84.9</ele>
        <time>2020-06-14T16:24:16Z</time>
      </trkpt>
      <trkpt lat="49.40342" lon="-1.78047">
        <ele>84.9</ele>
        <time>2020-06-14T16:24:17Z</time>
      </trkpt>
      <trkpt lat="49.40343" lon="-1.78048">
        <ele>84.8</ele>
        <time>2020-06-14T16:24:18Z</time>
      </trkpt>
      <trkpt lat="49.40345" lon="-1.78049">
        <ele>84.8</ele>
        <time>2020-06-14T16:24:19Z</time>
      </trkpt>
      <trkpt lat="49.40346" lon="-1.7805">
        <ele>84.7</ele>
        <time>2020-06-14T16:24:20Z</time>
      </trkpt>
      <trkpt lat="49.40348" lon="-1.78051">
        <ele>84.7</ele>
        <time>2020-06-14T16:35:30Z</time>
      </trkpt>
      <trkpt lat="49.4035" lon="-1.78052">
        <ele>84.6</ele>
        <time>2020-06-14T16:35:31Z</time>
      </trkpt>
      <trkpt lat="49.40353" lon="-1.78056">
        <ele>84.5</ele>
        <time>2020-06-14T16:35:32Z</time>
      </trkpt>
      <trkpt lat="49.40354" lon="-1.78057">
        <ele>84.4</ele>
        <time>2020-06-14T16:35:33Z</time>
      </trkpt>
      <trkpt lat="49.40357" lon="-1.78059">
        <ele>84.3</ele>
        <time>2020-06-14T16:35:34Z</time>
      </trkpt>
      <trkpt lat="49.4036" lon="-1.78062">
        <ele>84.2</ele>
        <time>2020-06-14T16:35:35Z</time>
      </trkpt>
      <trkpt lat="49.40363" lon="-1.78066">
        <ele>84.1</ele>
        <time>2020-06-14T16:35:36Z</time>
      </trkpt>
      <trkpt lat="49.40365" lon="-1.78069">
        <ele>83.9</ele>
        <time>2020-06-14T16:35:37Z</time>
      </trkpt>
      <trkpt lat="49.40368" lon="-1.78073">
        <ele>83.7</ele>
        <time>2020-06-14T16:35:38Z</time>
      </trkpt>
      <trkpt lat="49.40371" lon="-1.78078">
        <ele>83.5</ele>
        <time>2020-06-14T16:35:39Z</time>
      </trkpt>
      <trkpt lat="49.40374" lon="-1.78081">
        <ele>83.4</ele>
        <time>2020-06-14T16:35:40Z</time>
      </trkpt>
      <trkpt lat="49.40378" lon="-1.78086">
        <ele>83.2</ele>
        <time>2020-06-14T16:35:41Z</time>
      </trkpt>
      <trkpt lat="49.40381" lon="-1.7809">
        <ele>83</ele>
        <time>2020-06-14T16:35:42Z</time>
      </trkpt>
      <trkpt lat="49.40386" lon="-1.78095">
        <ele>82.8</ele>
        <time>2020-06-14T16:35:43Z</time>
      </trkpt>
      <trkpt lat="49.4039" lon="-1.781">
        <ele>82.6</ele>
        <time>2020-06-14T16:35:44Z</time>
      </trkpt>
      <trkpt lat="49.40394" lon="-1.78105">
        <ele>82.4</ele>
        <time>2020-06-14T16:35:45Z</time>
      </trkpt>
      <trkpt lat="49.40398" lon="-1.7811">
        <ele>82.1</ele>
        <time>2020-06-14T16:35:46Z</time>
      </trkpt>
      <trkpt lat="49.40403" lon="-1.78116">
        <ele>81.9</ele>
        <time>2020-06-14T16:35:47Z</time>
      </trkpt>
      <trkpt lat="49.40407" lon="-1.78122">
        <ele>81.7</ele>
        <time>2020-06-14T16:35:48Z</time>
      </trkpt>
      <trkpt lat="49.40411" lon="-1.78127">
        <ele>81.6</ele>
        <time>2020-06-14T16:35:49Z</time>
      </trkpt>
      <trkpt lat="49.40415" lon="-1.78132">
        <ele>81.4</ele>
        <time>2020-06-14T16:35:50Z</time>
      </trkpt>
      <trkpt lat="49.40419" lon="-1.78137">
        <ele>81.2</ele>
        <time>2020-06-14T16:35:51Z</time>
      </trkpt>
      <trkpt lat="49.40423" lon="-1.78142">
        <ele>80.9</ele>
        <time>2020-06-14T16:35:52Z</time>
      </trkpt>
      <trkpt lat="49.40427" lon="-1.78148">
        <ele>80.7</ele>
        <time>2020-06-14T16:35:53Z</time>
      </trkpt>
      <trkpt lat="49.40431" lon="-1.78154">
        <ele>80.4</ele>
        <time>2020-06-14T16:35:54Z</time>
      </trkpt>
      <trkpt lat="49.40435" lon="-1.78159">
        <ele>80.2</ele>
        <time>2020-06-14T16:35:55Z</time>
      </trkpt>
      <trkpt lat="49.40439" lon="-1.78163">
        <ele>79.9</ele>
        <time>2020-06-14T16:35:56Z</time>
      </trkpt>
      <trkpt lat="49.40442" lon="-1.78168">
        <ele>79.7</ele>
        <time>2020-06-14T16:35:57Z</time>
      </trkpt>
      <trkpt lat="49.40444" lon="-1.78172">
        <ele>79.6</ele>
        <time>2020-06-14T16:35:58Z</time>
      </trkpt>
      <trkpt lat="49.40447" lon="-1.78176">
        <ele>79.4</ele>
        <time>2020-06-14T16:35:59Z</time>
      </trkpt>
      <trkpt lat="49.40451" lon="-1.78181">
        <ele>79.2</ele>
        <time>2020-06-14T16:36:00Z</time>
      </trkpt>
      <trkpt lat="49.40455" lon="-1.78186">
        <ele>79</ele>
        <time>2020-06-14T16:36:01Z</time>
      </trkpt>
      <trkpt lat="49.40459" lon="-1.78191">
        <ele>78.8</ele>
        <time>2020-06-14T16:36:02Z</time>
      </trkpt>
      <trkpt lat="49.40464" lon="-1.78197">
        <ele>78.6</ele>
        <time>2020-06-14T16:36:03Z</time>
      </trkpt>
      <trkpt lat="49.40469" lon="-1.78204">
        <ele>78.4</ele>
        <time>2020-06-14T16:36:04Z</time>
      </trkpt>
      <trkpt lat="49.40474" lon="-1.7821">
        <ele>78.2</ele>
        <time>2020-06-14T16:36:05Z</time>
      </trkpt>
      <trkpt lat="49.40479" lon="-1.78215">
        <ele>78</ele>
        <time>2020-06-14T16:36:06Z</time>
      </trkpt>
      <trkpt lat="49.40484" lon="-1.78219">
        <ele>77.9</ele>
        <time>2020-06-14T16:36:07Z</time>
      </trkpt>
      <trkpt lat="49.40489" lon="-1.78225">
        <ele>77.7</ele>
        <time>2020-06-14T16:36:08Z</time>
      </trkpt>
      <trkpt lat="49.40493" lon="-1.7823">
        <ele>77.6</ele>
        <time>2020-06-14T16:36:09Z</time>
      </trkpt>
      <trkpt lat="49.40498" lon="-1.78236">
        <ele>77.4</ele>
        <time>2020-06-14T16:36:10Z</time>
      </trkpt>
      <trkpt lat="49.40504" lon="-1.78241">
        <ele>77.2</ele>
        <time>2020-06-14T16:36:11Z</time>
      </trkpt>
      <trkpt lat="49.40507" lon="-1.78245">
        <ele>77.1</ele>
        <time>2020-06-14T16:36:12Z</time>
      </trkpt>
      <trkpt lat="49.40512" lon="-1.78251">
        <ele>76.9</ele>
        <time>2020-06-14T16:36:13Z</time>
      </trkpt>
      <trkpt lat="49.40515" lon="-1.78257">
        <ele>76.8</ele>
        <time>2020-06-14T16:36:14Z</time>
      </trkpt>
      <trkpt lat="49.40517" lon="-1.78263">
        <ele>76.7</ele>
        <time>2020-06-14T16:36:15Z</time>
      </trkpt>
      <trkpt lat="49.40515" lon="-1.7827">
        <ele>76.8</ele>
        <time>2020-06-14T16:36:16Z</time>
      </trkpt>
      <trkpt lat="49.40511" lon="-1.78277">
        <ele>76.9</ele>
        <time>2020-06-14T16:36:17Z</time>
      </trkpt>
      <trkpt lat="49.40506" lon="-1.78284">
        <ele>76.9</ele>
        <time>2020-06-14T16:36:18Z</time>
      </trkpt>
      <trkpt lat="49.40502" lon="-1.7829">
        <ele>76.9</ele>
        <time>2020-06-14T16:36:19Z</time>
      </trkpt>
      <trkpt lat="49.40498" lon="-1.78295">
        <ele>76.9</ele>
        <time>2020-06-14T16:36:20Z</time>
      </trkpt>
      <trkpt lat="49.40495" lon="-1.78298">
        <ele>76.9</ele>
        <time>2020-06-14T16:36:21Z</time>
      </trkpt>
      <trkpt lat="49.4049" lon="-1.78304">
        <ele>77</ele>
        <time>2020-06-14T16:36:22Z</time>
      </trkpt>
      <trkpt lat="49.40486" lon="-1.78307">
        <ele>77</ele>
        <time>2020-06-14T16:36:23Z</time>
      </trkpt>
      <trkpt lat="49.40482" lon="-1.78312">
        <ele>77</ele>
        <time>2020-06-14T16:36:24Z</time>
      </trkpt>
      <trkpt lat="49.40479" lon="-1.78317">
        <ele>77.1</ele>
        <time>2020-06-14T16:36:25Z</time>
      </trkpt>
      <trkpt lat="49.40475" lon="-1.78322">
        <ele>77.2</ele>
        <time>2020-06-14T16:36:26Z</time>
      </trkpt>
      <trkpt lat="49.40472" lon="-1.78328">
        <ele>77.3</ele>
        <time>2020-06-14T16:36:27Z</time>
      </trkpt>
      <trkpt lat="49.4047" lon="-1.78333">
        <ele>77.5</ele>
        <time>2020-06-14T16:36:28Z</time>
      </trkpt>
      <trkpt lat="49.40469" lon="-1.78339">
        <ele>77.6</ele>
        <time>2020-06-14T16:36:29Z</time>
      </trkpt>
      <trkpt lat="49.40469" lon="-1.78344">
        <ele>77.7</ele>
        <time>2020-06-14T16:36:30Z</time>
      </trkpt>
      <trkpt lat="49.40471" lon="-1.78348">
        <ele>77.9</ele>
        <time>2020-06-14T16:36:31Z</time>
      </trkpt>
      <trkpt lat="49.40474" lon="-1.78352">
        <ele>77.8</ele>
        <time>2020-06-14T16:36:32Z</time>
      </trkpt>
      <trkpt lat="49.40476" lon="-1.78353">
        <ele>77.7</ele>
        <time>2020-06-14T16:36:33Z</time>
      </trkpt>
      <trkpt lat="49.40481" lon="-1.78355">
        <ele>77.5</ele>
        <time>2020-06-14T16:36:34Z</time>
      </trkpt>
      <trkpt lat="49.40486" lon="-1.78356">
        <ele>77.3</ele>
        <time>2020-06-14T16:36:35Z</time>
      </trkpt>
      <trkpt lat="49.40491" lon="-1.78357">
        <ele>77.1</ele>
        <time>2020-06-14T16:36:36Z</time>
      </trkpt>
      <trkpt lat="49.40496" lon="-1.78358">
        <ele>76.9</ele>
        <time>2020-06-14T16:36:37Z</time>
      </trkpt>
      <trkpt lat="49.40502" lon="-1.78358">
        <ele>76.7</ele>
        <time>2020-06-14T16:36:38Z</time>
      </trkpt>
      <trkpt lat="49.40507" lon="-1.78357">
        <ele>76.5</ele>
        <time>2020-06-14T16:36:39Z</time>
      </trkpt>
      <trkpt lat="49.40512" lon="-1.78358">
        <ele>76.4</ele>
        <time>2020-06-14T16:36:40Z</time>
      </trkpt>
      <trkpt lat="49.40518" lon="-1.78359">
        <ele>76.2</ele>
        <time>2020-06-14T16:36:41Z</time>
      </trkpt>
      <trkpt lat="49.40524" lon="-1.7836">
        <ele>76.1</ele>
        <time>2020-06-14T16:36:42Z</time>
      </trkpt>
      <trkpt lat="49.40531" lon="-1.78361">
        <ele>75.9</ele>
        <time>2020-06-14T16:36:43Z</time>
      </trkpt>
      <trkpt lat="49.40537" lon="-1.78361">
        <ele>75.8</ele>
        <time>2020-06-14T16:36:44Z</time>
      </trkpt>
      <trkpt lat="49.40543" lon="-1.78361">
        <ele>75.7</ele>
        <time>2020-06-14T16:36:45Z</time>
      </trkpt>
      <trkpt lat="49.40548" lon="-1.78363">
        <ele>75.6</ele>
        <time>2020-06-14T16:36:46Z</time>
      </trkpt>
      <trkpt lat="49.40554" lon="-1.78363">
        <ele>75.5</ele>
        <time>2020-06-14T16:36:47Z</time>
      </trkpt>
      <trkpt lat="49.4056" lon="-1.78363">
        <ele>75.4</ele>
        <time>2020-06-14T16:36:48Z</time>
      </trkpt>
      <trkpt lat="49.40566" lon="-1.78363">
        <ele>75.3</ele>
        <time>2020-06-14T16:36:49Z</time>
      </trkpt>
      <trkpt lat="49.40572" lon="-1.78364">
        <ele>75.2</ele>
        <time>2020-06-14T16:36:50Z</time>
      </trkpt>
      <trkpt lat="49.40578" lon="-1.78364">
        <ele>75.2</ele>
        <time>2020-06-14T16:36:51Z</time>
      </trkpt>
      <trkpt lat="49.40584" lon="-1.78364">
        <ele>75.1</ele>
        <time>2020-06-14T16:36:52Z</time>
      </trkpt>
      <trkpt lat="49.40591" lon="-1.78364">
        <ele>75</ele>
        <time>2020-06-14T16:36:53Z</time>
      </trkpt>
      <trkpt lat="49.40597" lon="-1.78364">
        <ele>75</ele>
        <time>2020-06-14T16:36:54Z</time>
      </trkpt>
      <trkpt lat="49.40603" lon="-1.78364">
        <ele>75</ele>
        <time>2020-06-14T16:36:55Z</time>
      </trkpt>
      <trkpt lat="49.40609" lon="-1.78364">
        <ele>75</ele>
        <time>2020-06-14T16:36:56Z</time>
      </trkpt>
      <trkpt lat="49.40615" lon="-1.78364">
        <ele>75</ele>
        <time>2020-06-14T16:36:57Z</time>
      </trkpt>
      <trkpt lat="49.40621" lon="-1.78364">
        <ele>75</ele>
        <time>2020-06-14T16:36:58Z</time>
      </trkpt>
      <trkpt lat="49.40627" lon="-1.78363">
        <ele>75</ele>
        <time>2020-06-14T16:36:59Z</time>
      </trkpt>
      <trkpt lat="49.40633" lon="-1.78363">
        <ele>74.9</ele>
        <time>2020-06-14T16:37:00Z</time>
      </trkpt>
      <trkpt lat="49.4064" lon="-1.78363">
        <ele>74.9</ele>
        <time>2020-06-14T16:37:01Z</time>
      </trkpt>
      <trkpt lat="49.40645" lon="-1.78363">
        <ele>74.9</ele>
        <time>2020-06-14T16:37:02Z</time>
      </trkpt>
      <trkpt lat="49.40651" lon="-1.78363">
        <ele>74.9</ele>
        <time>2020-06-14T16:37:03Z</time>
      </trkpt>
      <trkpt lat="49.40657" lon="-1.78364">
        <ele>74.9</ele>
        <time>2020-06-14T16:37:04Z</time>
      </trkpt>
      <trkpt lat="49.40663" lon="-1.78364">
        <ele>75</ele>
        <time>2020-06-14T16:37:05Z</time>
      </trkpt>
      <trkpt lat="49.40669" lon="-1.78363">
        <ele>75</ele>
        <time>2020-06-14T16:37:06Z</time>
      </trkpt>
      <trkpt lat="49.40675" lon="-1.78363">
        <ele>75</ele>
        <time>2020-06-14T16:37:07Z</time>
      </trkpt>
      <trkpt lat="49.40681" lon="-1.78363">
        <ele>75.1</ele>
        <time>2020-06-14T16:37:08Z</time>
      </trkpt>
      <trkpt lat="49.40687" lon="-1.78362">
        <ele>75.1</ele>
        <time>2020-06-14T16:37:09Z</time>
      </trkpt>
      <trkpt lat="49.40693" lon="-1.78362">
        <ele>75.1</ele>
        <time>2020-06-14T16:37:10Z</time>
      </trkpt>
      <trkpt lat="49.40698" lon="-1.78361">
        <ele>75.2</ele>
        <time>2020-06-14T16:37:11Z</time>
      </trkpt>
      <trkpt lat="49.40704" lon="-1.78361">
        <ele>75.2</ele>
        <time>2020-06-14T16:37:12Z</time>
      </trkpt>
      <trkpt lat="49.4071" lon="-1.7836">
        <ele>75.3</ele>
        <time>2020-06-14T16:37:13Z</time>
      </trkpt>
      <trkpt lat="49.40715" lon="-1.7836">
        <ele>75.3</ele>
        <time>2020-06-14T16:37:14Z</time>
      </trkpt>
      <trkpt lat="49.40722" lon="-1.7836">
        <ele>75.4</ele>
        <time>2020-06-14T16:37:15Z</time>
      </trkpt>
      <trkpt lat="49.40728" lon="-1.7836">
        <ele>75.4</ele>
        <time>2020-06-14T16:37:16Z</time>
      </trkpt>
      <trkpt lat="49.40734" lon="-1.7836">
        <ele>75.4</ele>
        <time>2020-06-14T16:37:17Z</time>
      </trkpt>
      <trkpt lat="49.40741" lon="-1.7836">
        <ele>75.5</ele>
        <time>2020-06-14T16:37:18Z</time>
      </trkpt>
      <trkpt lat="49.40746" lon="-1.7836">
        <ele>75.5</ele>
        <time>2020-06-14T16:37:19Z</time>
      </trkpt>
      <trkpt lat="49.40753" lon="-1.78359">
        <ele>75.6</ele>
        <time>2020-06-14T16:37:20Z</time>
      </trkpt>
      <trkpt lat="49.40757" lon="-1.78358">
        <ele>75.6</ele>
        <time>2020-06-14T16:37:21Z</time>
      </trkpt>
      <trkpt lat="49.40762" lon="-1.78358">
        <ele>75.6</ele>
        <time>2020-06-14T16:37:22Z</time>
      </trkpt>
      <trkpt lat="49.40768" lon="-1.78358">
        <ele>75.7</ele>
        <time>2020-06-14T16:37:23Z</time>
      </trkpt>
      <trkpt lat="49.40773" lon="-1.78358">
        <ele>75.8</ele>
        <time>2020-06-14T16:37:24Z</time>
      </trkpt>
      <trkpt lat="49.40779" lon="-1.78359">
        <ele>75.8</ele>
        <time>2020-06-14T16:37:25Z</time>
      </trkpt>
      <trkpt lat="49.40785" lon="-1.7836">
        <ele>75.9</ele>
        <time>2020-06-14T16:37:26Z</time>
      </trkpt>
      <trkpt lat="49.4079" lon="-1.78359">
        <ele>75.9</ele>
        <time>2020-06-14T16:37:27Z</time>
      </trkpt>
      <trkpt lat="49.40797" lon="-1.78359">
        <ele>75.9</ele>
        <time>2020-06-14T16:37:28Z</time>
      </trkpt>
      <trkpt lat="49.40802" lon="-1.78358">
        <ele>75.9</ele>
        <time>2020-06-14T16:37:29Z</time>
      </trkpt>
      <trkpt lat="49.40808" lon="-1.78358">
        <ele>76</ele>
        <time>2020-06-14T16:37:30Z</time>
      </trkpt>
      <trkpt lat="49.40814" lon="-1.78357">
        <ele>76</ele>
        <time>2020-06-14T16:37:31Z</time>
      </trkpt>
      <trkpt lat="49.4082" lon="-1.78356">
        <ele>76.1</ele>
        <time>2020-06-14T16:37:32Z</time>
      </trkpt>
      <trkpt lat="49.40827" lon="-1.78355">
        <ele>76.2</ele>
        <time>2020-06-14T16:37:33Z</time>
      </trkpt>
      <trkpt lat="49.40833" lon="-1.78355">
        <ele>76.3</ele>
        <time>2020-06-14T16:37:34Z</time>
      </trkpt>
      <trkpt lat="49.40839" lon="-1.78354">
        <ele>76.3</ele>
        <time>2020-06-14T16:37:35Z</time>
      </trkpt>
      <trkpt lat="49.40845" lon="-1.78354">
        <ele>76.4</ele>
        <time>2020-06-14T16:37:36Z</time>
      </trkpt>
      <trkpt lat="49.40851" lon="-1.78353">
        <ele>76.5</ele>
        <time>2020-06-14T16:37:37Z</time>
      </trkpt>
      <trkpt lat="49.40856" lon="-1.78353">
        <ele>76.5</ele>
        <time>2020-06-14T16:37:38Z</time>
      </trkpt>
      <trkpt lat="49.4086" lon="-1.78352">
        <ele>76.6</ele>
        <time>2020-06-14T16:37:39Z</time>
      </trkpt>
      <trkpt lat="49.40863" lon="-1.78352">
        <ele>76.6</ele>
        <time>2020-06-14T16:37:40Z</time>
      </trkpt>
      <trkpt lat="49.40867" lon="-1.78352">
        <ele>76.6</ele>
        <time>2020-06-14T16:37:41Z</time>
      </trkpt>
      <trkpt lat="49.40871" lon="-1.78352">
        <ele>76.7</ele>
        <time>2020-06-14T16:37:42Z</time>
      </trkpt>
      <trkpt lat="49.40875" lon="-1.78352">
        <ele>76.7</ele>
        <time>2020-06-14T16:37:43Z</time>
      </trkpt>
      <trkpt lat="49.40878" lon="-1.78351">
        <ele>76.7</ele>
        <time>2020-06-14T16:37:44Z</time>
      </trkpt>
      <trkpt lat="49.40881" lon="-1.78352">
        <ele>76.8</ele>
        <time>2020-06-14T16:37:45Z</time>
      </trkpt>
      <trkpt lat="49.40883" lon="-1.7836">
        <ele>76.8</ele>
        <time>2020-06-14T16:37:46Z</time>
      </trkpt>
      <trkpt lat="49.40882" lon="-1.78368">
        <ele>76.9</ele>
        <time>2020-06-14T16:37:47Z</time>
      </trkpt>
      <trkpt lat="49.40883" lon="-1.78374">
        <ele>77</ele>
        <time>2020-06-14T16:37:48Z</time>
      </trkpt>
      <trkpt lat="49.40883" lon="-1.78381">
        <ele>77</ele>
        <time>2020-06-14T16:37:49Z</time>
      </trkpt>
      <trkpt lat="49.40883" lon="-1.78386">
        <ele>77.1</ele>
        <time>2020-06-14T16:37:50Z</time>
      </trkpt>
      <trkpt lat="49.40884" lon="-1.78392">
        <ele>77.1</ele>
        <time>2020-06-14T16:37:51Z</time>
      </trkpt>
      <trkpt lat="49.40884" lon="-1.78396">
        <ele>77.1</ele>
        <time>2020-06-14T16:37:52Z</time>
      </trkpt>
      <trkpt lat="49.40885" lon="-1.78401">
        <ele>77.1</ele>
        <time>2020-06-14T16:37:53Z</time>
      </trkpt>
      <trkpt lat="49.40884" lon="-1.78406">
        <ele>77.2</ele>
        <time>2020-06-14T16:37:54Z</time>
      </trkpt>
      <trkpt lat="49.40884" lon="-1.78407">
        <ele>77.2</ele>
        <time>2020-06-14T16:37:55Z</time>
      </trkpt>
      <trkpt lat="49.40884" lon="-1.78412">
        <ele>77.2</ele>
        <time>2020-06-14T16:37:56Z</time>
      </trkpt>
      <trkpt lat="49.40884" lon="-1.78415">
        <ele>77.2</ele>
        <time>2020-06-14T16:37:57Z</time>
      </trkpt>
      <trkpt lat="49.40884" lon="-1.7842">
        <ele>77.3</ele>
        <time>2020-06-14T16:37:58Z</time>
      </trkpt>
      <trkpt lat="49.40885" lon="-1.78419">
        <ele>77.3</ele>
        <time>2020-06-14T16:37:59Z</time>
      </trkpt>
      <trkpt lat="49.40884" lon="-1.78424">
        <ele>77.3</ele>
        <time>2020-06-14T16:38:00Z</time>
      </trkpt>
      <trkpt lat="49.40883" lon="-1.78427">
        <ele>77.4</ele>
        <time>2020-06-14T16:38:01Z</time>
      </trkpt>
      <trkpt lat="49.40882" lon="-1.78429">
        <ele>77.4</ele>
        <time>2020-06-14T16:38:02Z</time>
      </trkpt>
      <trkpt lat="49.40879" lon="-1.78433">
        <ele>77.4</ele>
        <time>2020-06-14T16:38:03Z</time>
      </trkpt>
      <trkpt lat="49.40877" lon="-1.78438">
        <ele>77.5</ele>
        <time>2020-06-14T16:38:04Z</time>
      </trkpt>
      <trkpt lat="49.40875" lon="-1.78443">
        <ele>77.5</ele>
        <time>2020-06-14T16:38:05Z</time>
      </trkpt>
      <trkpt lat="49.40872" lon="-1.78449">
        <ele>77.6</ele>
        <time>2020-06-14T16:38:06Z</time>
      </trkpt>
      <trkpt lat="49.40869" lon="-1.78455">
        <ele>77.6</ele>
        <time>2020-06-14T16:38:07Z</time>
      </trkpt>
      <trkpt lat="49.40866" lon="-1.78462">
        <ele>77.6</ele>
        <time>2020-06-14T16:38:08Z</time>
      </trkpt>
      <trkpt lat="49.40862" lon="-1.78469">
        <ele>77.7</ele>
        <time>2020-06-14T16:38:09Z</time>
      </trkpt>
      <trkpt lat="49.40859" lon="-1.78477">
        <ele>77.8</ele>
        <time>2020-06-14T16:38:10Z</time>
      </trkpt>
      <trkpt lat="49.40855" lon="-1.78483">
        <ele>77.8</ele>
        <time>2020-06-14T16:38:11Z</time>
      </trkpt>
      <trkpt lat="49.40851" lon="-1.78492">
        <ele>78</ele>
        <time>2020-06-14T16:38:12Z</time>
      </trkpt>
      <trkpt lat="49.40847" lon="-1.78499">
        <ele>78.1</ele>
        <time>2020-06-14T16:38:13Z</time>
      </trkpt>
      <trkpt lat="49.40843" lon="-1.78505">
        <ele>78.2</ele>
        <time>2020-06-14T16:38:14Z</time>
      </trkpt>
      <trkpt lat="49.40839" lon="-1.78513">
        <ele>78.3</ele>
        <time>2020-06-14T16:38:15Z</time>
      </trkpt>
      <trkpt lat="49.40835" lon="-1.78521">
        <ele>78.4</ele>
        <time>2020-06-14T16:38:16Z</time>
      </trkpt>
      <trkpt lat="49.40831" lon="-1.78528">
        <ele>78.5</ele>
        <time>2020-06-14T16:38:17Z</time>
      </trkpt>
      <trkpt lat="49.40827" lon="-1.78536">
        <ele>78.6</ele>
        <time>2020-06-14T16:38:18Z</time>
      </trkpt>
      <trkpt lat="49.40823" lon="-1.78542">
        <ele>78.6</ele>
        <time>2020-06-14T16:38:19Z</time>
      </trkpt>
      <trkpt lat="49.4082" lon="-1.78548">
        <ele>78.6</ele>
        <time>2020-06-14T16:38:20Z</time>
      </trkpt>
      <trkpt lat="49.40817" lon="-1.78553">
        <ele>78.6</ele>
        <time>2020-06-14T16:38:21Z</time>
      </trkpt>
      <trkpt lat="49.40814" lon="-1.78559">
        <ele>78.7</ele>
        <time>2020-06-14T16:38:22Z</time>
      </trkpt>
      <trkpt lat="49.40812" lon="-1.78564">
        <ele>78.7</ele>
        <time>2020-06-14T16:38:23Z</time>
      </trkpt>
      <trkpt lat="49.40809" lon="-1.78571">
        <ele>78.7</ele>
        <time>2020-06-14T16:38:24Z</time>
      </trkpt>
      <trkpt lat="49.40806" lon="-1.78578">
        <ele>78.7</ele>
        <time>2020-06-14T16:38:25Z</time>
      </trkpt>
      <trkpt lat="49.40804" lon="-1.78584">
        <ele>78.7</ele>
        <time>2020-06-14T16:38:26Z</time>
      </trkpt>
      <trkpt lat="49.40803" lon="-1.78589">
        <ele>78.7</ele>
        <time>2020-06-14T16:38:27Z</time>
      </trkpt>
      <trkpt lat="49.408" lon="-1.78594">
        <ele>78.7</ele>
        <time>2020-06-14T16:38:28Z</time>
      </trkpt>
      <trkpt lat="49.40797" lon="-1.78601">
        <ele>78.8</ele>
        <time>2020-06-14T16:38:29Z</time>
      </trkpt>
      <trkpt lat="49.40794" lon="-1.78608">
        <ele>78.8</ele>
        <time>2020-06-14T16:38:30Z</time>
      </trkpt>
      <trkpt lat="49.40792" lon="-1.78613">
        <ele>78.8</ele>
        <time>2020-06-14T16:38:31Z</time>
      </trkpt>
      <trkpt lat="49.4079" lon="-1.78616">
        <ele>78.8</ele>
        <time>2020-06-14T16:38:32Z</time>
      </trkpt>
      <trkpt lat="49.40789" lon="-1.78621">
        <ele>78.8</ele>
        <time>2020-06-14T16:38:33Z</time>
      </trkpt>
      <trkpt lat="49.40788" lon="-1.78627">
        <ele>78.8</ele>
        <time>2020-06-14T16:38:34Z</time>
      </trkpt>
      <trkpt lat="49.4079" lon="-1.78634">
        <ele>78.7</ele>
        <time>2020-06-14T16:38:35Z</time>
      </trkpt>
      <trkpt lat="49.40792" lon="-1.7864">
        <ele>78.7</ele>
        <time>2020-06-14T16:38:36Z</time>
      </trkpt>
      <trkpt lat="49.40795" lon="-1.78648">
        <ele>78.6</ele>
        <time>2020-06-14T16:38:37Z</time>
      </trkpt>
      <trkpt lat="49.40798" lon="-1.78656">
        <ele>78.6</ele>
        <time>2020-06-14T16:38:38Z</time>
      </trkpt>
      <trkpt lat="49.408" lon="-1.78663">
        <ele>78.5</ele>
        <time>2020-06-14T16:38:39Z</time>
      </trkpt>
      <trkpt lat="49.40803" lon="-1.7867">
        <ele>78.5</ele>
        <time>2020-06-14T16:38:40Z</time>
      </trkpt>
      <trkpt lat="49.40806" lon="-1.78677">
        <ele>78.5</ele>
        <time>2020-06-14T16:38:41Z</time>
      </trkpt>
      <trkpt lat="49.40809" lon="-1.78683">
        <ele>78.5</ele>
        <time>2020-06-14T16:38:42Z</time>
      </trkpt>
      <trkpt lat="49.40811" lon="-1.78688">
        <ele>78.5</ele>
        <time>2020-06-14T16:38:43Z</time>
      </trkpt>
      <trkpt lat="49.40814" lon="-1.78693">
        <ele>78.5</ele>
        <time>2020-06-14T16:38:44Z</time>
      </trkpt>
      <trkpt lat="49.40817" lon="-1.78699">
        <ele>78.5</ele>
        <time>2020-06-14T16:38:45Z</time>
      </trkpt>
      <trkpt lat="49.4082" lon="-1.78704">
        <ele>78.4</ele>
        <time>2020-06-14T16:38:46Z</time>
      </trkpt>
      <trkpt lat="49.40824" lon="-1.78709">
        <ele>78.4</ele>
        <time>2020-06-14T16:38:47Z</time>
      </trkpt>
      <trkpt lat="49.40828" lon="-1.78712">
        <ele>78.4</ele>
        <time>2020-06-14T16:38:48Z</time>
      </trkpt>
      <trkpt lat="49.40832" lon="-1.78714">
        <ele>78.4</ele>
        <time>2020-06-14T16:38:49Z</time>
      </trkpt>
      <trkpt lat="49.40838" lon="-1.78713">
        <ele>78.4</ele>
        <time>2020-06-14T16:38:50Z</time>
      </trkpt>
      <trkpt lat="49.40842" lon="-1.78713">
        <ele>78.4</ele>
        <time>2020-06-14T16:38:51Z</time>
      </trkpt>
      <trkpt lat="49.40848" lon="-1.78713">
        <ele>78.4</ele>
        <time>2020-06-14T16:38:52Z</time>
      </trkpt>
      <trkpt lat="49.40852" lon="-1.78713">
        <ele>78.4</ele>
        <time>2020-06-14T16:38:53Z</time>
      </trkpt>
      <trkpt lat="49.40856" lon="-1.78713">
        <ele>78.4</ele>
        <time>2020-06-14T16:38:54Z</time>
      </trkpt>
      <trkpt lat="49.4086" lon="-1.78712">
        <ele>78.4</ele>
        <time>2020-06-14T16:38:55Z</time>
      </trkpt>
      <trkpt lat="49.40864" lon="-1.78712">
        <ele>78.4</ele>
        <time>2020-06-14T16:38:56Z</time>
      </trkpt>
      <trkpt lat="49.40868" lon="-1.78712">
        <ele>78.4</ele>
        <time>2020-06-14T16:38:57Z</time>
      </trkpt>
      <trkpt lat="49.40871" lon="-1.78712">
        <ele>78.4</ele>
        <time>2020-06-14T16:38:58Z</time>
      </trkpt>
      <trkpt lat="49.40876" lon="-1.78713">
        <ele>78.4</ele>
        <time>2020-06-14T16:38:59Z</time>
      </trkpt>
      <trkpt lat="49.4088" lon="-1.78714">
        <ele>78.3</ele>
        <time>2020-06-14T16:39:00Z</time>
      </trkpt>
      <trkpt lat="49.40884" lon="-1.78714">
        <ele>78.3</ele>
        <time>2020-06-14T16:39:01Z</time>
      </trkpt>
      <trkpt lat="49.40888" lon="-1.78715">
        <ele>78.3</ele>
        <time>2020-06-14T16:39:02Z</time>
      </trkpt>
      <trkpt lat="49.40893" lon="-1.78716">
        <ele>78.2</ele>
        <time>2020-06-14T16:39:03Z</time>
      </trkpt>
      <trkpt lat="49.40898" lon="-1.78717">
        <ele>78.2</ele>
        <time>2020-06-14T16:39:04Z</time>
      </trkpt>
      <trkpt lat="49.40904" lon="-1.7872">
        <ele>78.1</ele>
        <time>2020-06-14T16:39:05Z</time>
      </trkpt>
      <trkpt lat="49.40908" lon="-1.78723">
        <ele>78</ele>
        <time>2020-06-14T16:39:06Z</time>
      </trkpt>
      <trkpt lat="49.40912" lon="-1.78727">
        <ele>77.9</ele>
        <time>2020-06-14T16:39:07Z</time>
      </trkpt>
      <trkpt lat="49.40916" lon="-1.78731">
        <ele>77.8</ele>
        <time>2020-06-14T16:39:08Z</time>
      </trkpt>
      <trkpt lat="49.40921" lon="-1.78734">
        <ele>77.7</ele>
        <time>2020-06-14T16:39:09Z</time>
      </trkpt>
      <trkpt lat="49.40925" lon="-1.78737">
        <ele>77.6</ele>
        <time>2020-06-14T16:39:10Z</time>
      </trkpt>
      <trkpt lat="49.40929" lon="-1.78741">
        <ele>77.5</ele>
        <time>2020-06-14T16:39:11Z</time>
      </trkpt>
      <trkpt lat="49.40933" lon="-1.78744">
        <ele>77.4</ele>
        <time>2020-06-14T16:39:12Z</time>
      </trkpt>
      <trkpt lat="49.40937" lon="-1.78747">
        <ele>77.4</ele>
        <time>2020-06-14T16:39:13Z</time>
      </trkpt>
      <trkpt lat="49.40941" lon="-1.78751">
        <ele>77.4</ele>
        <time>2020-06-14T16:39:14Z</time>
      </trkpt>
      <trkpt lat="49.40946" lon="-1.78753">
        <ele>77.4</ele>
        <time>2020-06-14T16:39:15Z</time>
      </trkpt>
      <trkpt lat="49.40951" lon="-1.78756">
        <ele>77.3</ele>
        <time>2020-06-14T16:39:16Z</time>
      </trkpt>
      <trkpt lat="49.40955" lon="-1.78758">
        <ele>77.1</ele>
        <time>2020-06-14T16:39:17Z</time>
      </trkpt>
      <trkpt lat="49.40961" lon="-1.7876">
        <ele>76.9</ele>
        <time>2020-06-14T16:39:18Z</time>
      </trkpt>
      <trkpt lat="49.40967" lon="-1.78762">
        <ele>76.7</ele>
        <time>2020-06-14T16:39:19Z</time>
      </trkpt>
      <trkpt lat="49.40972" lon="-1.78764">
        <ele>76.5</ele>
        <time>2020-06-14T16:39:20Z</time>
      </trkpt>
      <trkpt lat="49.40976" lon="-1.78765">
        <ele>76.3</ele>
        <time>2020-06-14T16:39:21Z</time>
      </trkpt>
      <trkpt lat="49.40981" lon="-1.78766">
        <ele>76.1</ele>
        <time>2020-06-14T16:39:22Z</time>
      </trkpt>
      <trkpt lat="49.40986" lon="-1.78768">
        <ele>76</ele>
        <time>2020-06-14T16:39:23Z</time>
      </trkpt>
      <trkpt lat="49.40991" lon="-1.78769">
        <ele>75.8</ele>
        <time>2020-06-14T16:39:24Z</time>
      </trkpt>
      <trkpt lat="49.40997" lon="-1.78772">
        <ele>75.6</ele>
        <time>2020-06-14T16:39:25Z</time>
      </trkpt>
      <trkpt lat="49.41001" lon="-1.78774">
        <ele>75.4</ele>
        <time>2020-06-14T16:39:26Z</time>
      </trkpt>
      <trkpt lat="49.41004" lon="-1.78776">
        <ele>75.3</ele>
        <time>2020-06-14T16:39:27Z</time>
      </trkpt>
      <trkpt lat="49.41007" lon="-1.7878">
        <ele>75.2</ele>
        <time>2020-06-14T16:39:28Z</time>
      </trkpt>
      <trkpt lat="49.41009" lon="-1.78782">
        <ele>75.1</ele>
        <time>2020-06-14T16:39:29Z</time>
      </trkpt>
      <trkpt lat="49.41012" lon="-1.78786">
        <ele>75</ele>
        <time>2020-06-14T16:39:30Z</time>
      </trkpt>
      <trkpt lat="49.41014" lon="-1.78791">
        <ele>74.9</ele>
        <time>2020-06-14T16:39:31Z</time>
      </trkpt>
      <trkpt lat="49.41015" lon="-1.78797">
        <ele>74.8</ele>
        <time>2020-06-14T16:39:32Z</time>
      </trkpt>
      <trkpt lat="49.41016" lon="-1.78804">
        <ele>74.6</ele>
        <time>2020-06-14T16:39:33Z</time>
      </trkpt>
      <trkpt lat="49.41016" lon="-1.7881">
        <ele>74.4</ele>
        <time>2020-06-14T16:39:34Z</time>
      </trkpt>
      <trkpt lat="49.41016" lon="-1.78817">
        <ele>74.3</ele>
        <time>2020-06-14T16:39:35Z</time>
      </trkpt>
      <trkpt lat="49.41016" lon="-1.78822">
        <ele>74.1</ele>
        <time>2020-06-14T16:39:36Z</time>
      </trkpt>
      <trkpt lat="49.41017" lon="-1.78829">
        <ele>73.9</ele>
        <time>2020-06-14T16:39:37Z</time>
      </trkpt>
      <trkpt lat="49.41018" lon="-1.78834">
        <ele>73.8</ele>
        <time>2020-06-14T16:39:38Z</time>
      </trkpt>
      <trkpt lat="49.41019" lon="-1.7884">
        <ele>73.5</ele>
        <time>2020-06-14T16:39:39Z</time>
      </trkpt>
      <trkpt lat="49.41022" lon="-1.78845">
        <ele>73.3</ele>
        <time>2020-06-14T16:39:40Z</time>
      </trkpt>
      <trkpt lat="49.41026" lon="-1.78849">
        <ele>73</ele>
        <time>2020-06-14T16:39:41Z</time>
      </trkpt>
      <trkpt lat="49.41031" lon="-1.78851">
        <ele>72.7</ele>
        <time>2020-06-14T16:39:42Z</time>
      </trkpt>
      <trkpt lat="49.41035" lon="-1.78853">
        <ele>72.5</ele>
        <time>2020-06-14T16:39:43Z</time>
      </trkpt>
      <trkpt lat="49.41039" lon="-1.78854">
        <ele>72.2</ele>
        <time>2020-06-14T16:39:44Z</time>
      </trkpt>
      <trkpt lat="49.41044" lon="-1.78855">
        <ele>71.9</ele>
        <time>2020-06-14T16:39:45Z</time>
      </trkpt>
      <trkpt lat="49.41048" lon="-1.78855">
        <ele>71.6</ele>
        <time>2020-06-14T16:39:46Z</time>
      </trkpt>
      <trkpt lat="49.41052" lon="-1.78856">
        <ele>71.3</ele>
        <time>2020-06-14T16:39:47Z</time>
      </trkpt>
      <trkpt lat="49.41056" lon="-1.78856">
        <ele>71.1</ele>
        <time>2020-06-14T16:39:48Z</time>
      </trkpt>
      <trkpt lat="49.41059" lon="-1.78857">
        <ele>70.9</ele>
        <time>2020-06-14T16:39:49Z</time>
      </trkpt>
      <trkpt lat="49.41064" lon="-1.78859">
        <ele>70.6</ele>
        <time>2020-06-14T16:39:50Z</time>
      </trkpt>
      <trkpt lat="49.41068" lon="-1.78861">
        <ele>70.4</ele>
        <time>2020-06-14T16:39:51Z</time>
      </trkpt>
      <trkpt lat="49.41071" lon="-1.78864">
        <ele>70.2</ele>
        <time>2020-06-14T16:39:52Z</time>
      </trkpt>
      <trkpt lat="49.41075" lon="-1.78869">
        <ele>69.9</ele>
        <time>2020-06-14T16:39:53Z</time>
      </trkpt>
      <trkpt lat="49.41079" lon="-1.78875">
        <ele>69.7</ele>
        <time>2020-06-14T16:39:54Z</time>
      </trkpt>
      <trkpt lat="49.41084" lon="-1.78882">
        <ele>69.3</ele>
        <time>2020-06-14T16:39:55Z</time>
      </trkpt>
      <trkpt lat="49.41088" lon="-1.78889">
        <ele>69</ele>
        <time>2020-06-14T16:39:56Z</time>
      </trkpt>
      <trkpt lat="49.41091" lon="-1.78895">
        <ele>68.8</ele>
        <time>2020-06-14T16:39:57Z</time>
      </trkpt>
      <trkpt lat="49.41093" lon="-1.789">
        <ele>68.6</ele>
        <time>2020-06-14T16:39:58Z</time>
      </trkpt>
      <trkpt lat="49.41096" lon="-1.78904">
        <ele>68.4</ele>
        <time>2020-06-14T16:39:59Z</time>
      </trkpt>
      <trkpt lat="49.41098" lon="-1.78909">
        <ele>68.2</ele>
        <time>2020-06-14T16:40:00Z</time>
      </trkpt>
      <trkpt lat="49.41101" lon="-1.78913">
        <ele>68</ele>
        <time>2020-06-14T16:40:01Z</time>
      </trkpt>
      <trkpt lat="49.41105" lon="-1.78918">
        <ele>67.8</ele>
        <time>2020-06-14T16:40:02Z</time>
      </trkpt>
      <trkpt lat="49.41107" lon="-1.78923">
        <ele>67.5</ele>
        <time>2020-06-14T16:40:03Z</time>
      </trkpt>
      <trkpt lat="49.4111" lon="-1.78928">
        <ele>67.3</ele>
        <time>2020-06-14T16:40:04Z</time>
      </trkpt>
      <trkpt lat="49.41113" lon="-1.78933">
        <ele>67.1</ele>
        <time>2020-06-14T16:40:05Z</time>
      </trkpt>
      <trkpt lat="49.41117" lon="-1.78937">
        <ele>66.8</ele>
        <time>2020-06-14T16:40:06Z</time>
      </trkpt>
      <trkpt lat="49.4112" lon="-1.78942">
        <ele>66.6</ele>
        <time>2020-06-14T16:40:07Z</time>
      </trkpt>
      <trkpt lat="49.41124" lon="-1.78947">
        <ele>66.3</ele>
        <time>2020-06-14T16:40:08Z</time>
      </trkpt>
      <trkpt lat="49.41126" lon="-1.78952">
        <ele>66.1</ele>
        <time>2020-06-14T16:40:09Z</time>
      </trkpt>
      <trkpt lat="49.41128" lon="-1.78956">
        <ele>65.9</ele>
        <time>2020-06-14T16:40:10Z</time>
      </trkpt>
      <trkpt lat="49.4113" lon="-1.7896">
        <ele>65.6</ele>
        <time>2020-06-14T16:40:11Z</time>
      </trkpt>
      <trkpt lat="49.41133" lon="-1.78965">
        <ele>65.3</ele>
        <time>2020-06-14T16:40:12Z</time>
      </trkpt>
      <trkpt lat="49.41136" lon="-1.7897">
        <ele>64.9</ele>
        <time>2020-06-14T16:40:13Z</time>
      </trkpt>
      <trkpt lat="49.41139" lon="-1.78976">
        <ele>64.4</ele>
        <time>2020-06-14T16:40:14Z</time>
      </trkpt>
      <trkpt lat="49.41142" lon="-1.78982">
        <ele>63.9</ele>
        <time>2020-06-14T16:40:15Z</time>
      </trkpt>
      <trkpt lat="49.41146" lon="-1.7899">
        <ele>63.2</ele>
        <time>2020-06-14T16:40:16Z</time>
      </trkpt>
      <trkpt lat="49.41149" lon="-1.79">
        <ele>62.4</ele>
        <time>2020-06-14T16:40:17Z</time>
      </trkpt>
      <trkpt lat="49.41154" lon="-1.79008">
        <ele>61.5</ele>
        <time>2020-06-14T16:40:18Z</time>
      </trkpt>
      <trkpt lat="49.4116" lon="-1.79017">
        <ele>60.5</ele>
        <time>2020-06-14T16:40:19Z</time>
      </trkpt>
      <trkpt lat="49.41167" lon="-1.79026">
        <ele>59.3</ele>
        <time>2020-06-14T16:40:20Z</time>
      </trkpt>
      <trkpt lat="49.41174" lon="-1.79035">
        <ele>58.2</ele>
        <time>2020-06-14T16:40:21Z</time>
      </trkpt>
      <trkpt lat="49.41181" lon="-1.79042">
        <ele>57.1</ele>
        <time>2020-06-14T16:40:22Z</time>
      </trkpt>
      <trkpt lat="49.41187" lon="-1.79049">
        <ele>56.1</ele>
        <time>2020-06-14T16:40:23Z</time>
      </trkpt>
      <trkpt lat="49.41194" lon="-1.79055">
        <ele>55.2</ele>
        <time>2020-06-14T16:40:24Z</time>
      </trkpt>
      <trkpt lat="49.41202" lon="-1.79062">
        <ele>54.2</ele>
        <time>2020-06-14T16:40:25Z</time>
      </trkpt>
      <trkpt lat="49.41209" lon="-1.79068">
        <ele>53.2</ele>
        <time>2020-06-14T16:40:26Z</time>
      </trkpt>
      <trkpt lat="49.41217" lon="-1.79075">
        <ele>52.3</ele>
        <time>2020-06-14T16:40:27Z</time>
      </trkpt>
      <trkpt lat="49.41225" lon="-1.79085">
        <ele>51.4</ele>
        <time>2020-06-14T16:40:28Z</time>
      </trkpt>
      <trkpt lat="49.41232" lon="-1.79096">
        <ele>50.6</ele>
        <time>2020-06-14T16:40:29Z</time>
      </trkpt>
      <trkpt lat="49.41236" lon="-1.79109">
        <ele>50</ele>
        <time>2020-06-14T16:40:30Z</time>
      </trkpt>
      <trkpt lat="49.41239" lon="-1.79122">
        <ele>49.4</ele>
        <time>2020-06-14T16:40:31Z</time>
      </trkpt>
      <trkpt lat="49.41241" lon="-1.79135">
        <ele>48.9</ele>
        <time>2020-06-14T16:40:32Z</time>
      </trkpt>
      <trkpt lat="49.41242" lon="-1.79149">
        <ele>48.5</ele>
        <time>2020-06-14T16:40:33Z</time>
      </trkpt>
      <trkpt lat="49.41241" lon="-1.79161">
        <ele>48.1</ele>
        <time>2020-06-14T16:40:34Z</time>
      </trkpt>
      <trkpt lat="49.4124" lon="-1.79174">
        <ele>47.8</ele>
        <time>2020-06-14T16:40:35Z</time>
      </trkpt>
      <trkpt lat="49.41238" lon="-1.79185">
        <ele>47.4</ele>
        <time>2020-06-14T16:40:36Z</time>
      </trkpt>
      <trkpt lat="49.41236" lon="-1.79197">
        <ele>47</ele>
        <time>2020-06-14T16:40:37Z</time>
      </trkpt>
      <trkpt lat="49.41235" lon="-1.79209">
        <ele>46.6</ele>
        <time>2020-06-14T16:40:38Z</time>
      </trkpt>
      <trkpt lat="49.41234" lon="-1.79222">
        <ele>46.1</ele>
        <time>2020-06-14T16:40:39Z</time>
      </trkpt>
      <trkpt lat="49.41234" lon="-1.79236">
        <ele>45.6</ele>
        <time>2020-06-14T16:40:40Z</time>
      </trkpt>
      <trkpt lat="49.41235" lon="-1.79251">
        <ele>45</ele>
        <time>2020-06-14T16:40:41Z</time>
      </trkpt>
      <trkpt lat="49.41237" lon="-1.79266">
        <ele>44.5</ele>
        <time>2020-06-14T16:40:42Z</time>
      </trkpt>
      <trkpt lat="49.4124" lon="-1.79281">
        <ele>43.9</ele>
        <time>2020-06-14T16:40:43Z</time>
      </trkpt>
      <trkpt lat="49.41242" lon="-1.79296">
        <ele>43.3</ele>
        <time>2020-06-14T16:40:44Z</time>
      </trkpt>
      <trkpt lat="49.41245" lon="-1.79311">
        <ele>42.8</ele>
        <time>2020-06-14T16:40:45Z</time>
      </trkpt>
      <trkpt lat="49.4125" lon="-1.79325">
        <ele>42.3</ele>
        <time>2020-06-14T16:40:46Z</time>
      </trkpt>
      <trkpt lat="49.41255" lon="-1.79339">
        <ele>41.8</ele>
        <time>2020-06-14T16:40:47Z</time>
      </trkpt>
      <trkpt lat="49.4126" lon="-1.79352">
        <ele>41.5</ele>
        <time>2020-06-14T16:40:48Z</time>
      </trkpt>
      <trkpt lat="49.41264" lon="-1.79367">
        <ele>41.2</ele>
        <time>2020-06-14T16:40:49Z</time>
      </trkpt>
      <trkpt lat="49.41271" lon="-1.79377">
        <ele>41</ele>
        <time>2020-06-14T16:40:50Z</time>
      </trkpt>
      <trkpt lat="49.41279" lon="-1.79387">
        <ele>40.8</ele>
        <time>2020-06-14T16:40:51Z</time>
      </trkpt>
      <trkpt lat="49.41284" lon="-1.79399">
        <ele>40.7</ele>
        <time>2020-06-14T16:40:52Z</time>
      </trkpt>
      <trkpt lat="49.4129" lon="-1.7941">
        <ele>40.6</ele>
        <time>2020-06-14T16:40:53Z</time>
      </trkpt>
      <trkpt lat="49.41296" lon="-1.79422">
        <ele>40.5</ele>
        <time>2020-06-14T16:40:54Z</time>
      </trkpt>
      <trkpt lat="49.41303" lon="-1.79432">
        <ele>40.4</ele>
        <time>2020-06-14T16:40:55Z</time>
      </trkpt>
      <trkpt lat="49.41309" lon="-1.79442">
        <ele>40.4</ele>
        <time>2020-06-14T16:40:56Z</time>
      </trkpt>
      <trkpt lat="49.41315" lon="-1.79451">
        <ele>40.3</ele>
        <time>2020-06-14T16:40:57Z</time>
      </trkpt>
      <trkpt lat="49.41321" lon="-1.7946">
        <ele>40.2</ele>
        <time>2020-06-14T16:40:58Z</time>
      </trkpt>
      <trkpt lat="49.41327" lon="-1.79469">
        <ele>40.1</ele>
        <time>2020-06-14T16:40:59Z</time>
      </trkpt>
      <trkpt lat="49.41333" lon="-1.79477">
        <ele>40.1</ele>
        <time>2020-06-14T16:41:00Z</time>
      </trkpt>
      <trkpt lat="49.41338" lon="-1.79486">
        <ele>40</ele>
        <time>2020-06-14T16:41:01Z</time>
      </trkpt>
      <trkpt lat="49.41343" lon="-1.79495">
        <ele>39.8</ele>
        <time>2020-06-14T16:41:02Z</time>
      </trkpt>
      <trkpt lat="49.41349" lon="-1.79502">
        <ele>39.5</ele>
        <time>2020-06-14T16:41:03Z</time>
      </trkpt>
      <trkpt lat="49.41354" lon="-1.79511">
        <ele>39.1</ele>
        <time>2020-06-14T16:41:04Z</time>
      </trkpt>
      <trkpt lat="49.41358" lon="-1.79521">
        <ele>38.6</ele>
        <time>2020-06-14T16:41:05Z</time>
      </trkpt>
      <trkpt lat="49.41364" lon="-1.79532">
        <ele>37.8</ele>
        <time>2020-06-14T16:41:06Z</time>
      </trkpt>
      <trkpt lat="49.4137" lon="-1.79542">
        <ele>36.9</ele>
        <time>2020-06-14T16:41:07Z</time>
      </trkpt>
      <trkpt lat="49.41376" lon="-1.79553">
        <ele>35.9</ele>
        <time>2020-06-14T16:41:08Z</time>
      </trkpt>
      <trkpt lat="49.41381" lon="-1.79565">
        <ele>34.7</ele>
        <time>2020-06-14T16:41:09Z</time>
      </trkpt>
      <trkpt lat="49.41387" lon="-1.79576">
        <ele>33.6</ele>
        <time>2020-06-14T16:41:10Z</time>
      </trkpt>
      <trkpt lat="49.41393" lon="-1.79586">
        <ele>32.5</ele>
        <time>2020-06-14T16:41:11Z</time>
      </trkpt>
      <trkpt lat="49.414" lon="-1.79596">
        <ele>31.5</ele>
        <time>2020-06-14T16:41:12Z</time>
      </trkpt>
      <trkpt lat="49.41408" lon="-1.79605">
        <ele>30.7</ele>
        <time>2020-06-14T16:41:13Z</time>
      </trkpt>
      <trkpt lat="49.41416" lon="-1.79614">
        <ele>30</ele>
        <time>2020-06-14T16:41:14Z</time>
      </trkpt>
      <trkpt lat="49.41424" lon="-1.79622">
        <ele>29.6</ele>
        <time>2020-06-14T16:41:15Z</time>
      </trkpt>
      <trkpt lat="49.41433" lon="-1.79632">
        <ele>29.2</ele>
        <time>2020-06-14T16:41:16Z</time>
      </trkpt>
      <trkpt lat="49.4144" lon="-1.79642">
        <ele>29</ele>
        <time>2020-06-14T16:41:17Z</time>
      </trkpt>
      <trkpt lat="49.41448" lon="-1.7965">
        <ele>29</ele>
        <time>2020-06-14T16:41:18Z</time>
      </trkpt>
      <trkpt lat="49.41455" lon="-1.79656">
        <ele>29</ele>
        <time>2020-06-14T16:41:19Z</time>
      </trkpt>
      <trkpt lat="49.41463" lon="-1.79661">
        <ele>29</ele>
        <time>2020-06-14T16:41:20Z</time>
      </trkpt>
      <trkpt lat="49.41469" lon="-1.79665">
        <ele>29.1</ele>
        <time>2020-06-14T16:41:21Z</time>
      </trkpt>
      <trkpt lat="49.41474" lon="-1.79668">
        <ele>29.1</ele>
        <time>2020-06-14T16:41:22Z</time>
      </trkpt>
      <trkpt lat="49.41478" lon="-1.7967">
        <ele>29.1</ele>
        <time>2020-06-14T16:41:23Z</time>
      </trkpt>
      <trkpt lat="49.41481" lon="-1.79672">
        <ele>29.2</ele>
        <time>2020-06-14T16:41:24Z</time>
      </trkpt>
      <trkpt lat="49.41484" lon="-1.79673">
        <ele>29.2</ele>
        <time>2020-06-14T16:41:25Z</time>
      </trkpt>
      <trkpt lat="49.41486" lon="-1.79675">
        <ele>29.3</ele>
        <time>2020-06-14T16:41:26Z</time>
      </trkpt>
      <trkpt lat="49.41488" lon="-1.79672">
        <ele>29.3</ele>
        <time>2020-06-14T16:41:27Z</time>
      </trkpt>
      <trkpt lat="49.41489" lon="-1.79672">
        <ele>29.3</ele>
        <time>2020-06-14T16:41:28Z</time>
      </trkpt>
      <trkpt lat="49.41489" lon="-1.79672">
        <ele>29.3</ele>
        <time>2020-06-14T16:41:29Z</time>
      </trkpt>
      <trkpt lat="49.41488" lon="-1.79672">
        <ele>29.3</ele>
        <time>2020-06-14T16:41:30Z</time>
      </trkpt>
      <trkpt lat="49.41489" lon="-1.79672">
        <ele>29.3</ele>
        <time>2020-06-14T16:41:31Z</time>
      </trkpt>
      <trkpt lat="49.41489" lon="-1.79671">
        <ele>29.4</ele>
        <time>2020-06-14T16:41:32Z</time>
      </trkpt>
      <trkpt lat="49.4149" lon="-1.7967">
        <ele>29.4</ele>
        <time>2020-06-14T16:41:33Z</time>
      </trkpt>
      <trkpt lat="49.41489" lon="-1.7967">
        <ele>29.4</ele>
        <time>2020-06-14T16:41:34Z</time>
      </trkpt>
      <trkpt lat="49.4149" lon="-1.79671">
        <ele>29.4</ele>
        <time>2020-06-14T16:41:35Z</time>
      </trkpt>
      <trkpt lat="49.4149" lon="-1.79671">
        <ele>29.4</ele>
        <time>2020-06-14T16:41:36Z</time>
      </trkpt>
      <trkpt lat="49.4149" lon="-1.79671">
        <ele>29.4</ele>
        <time>2020-06-14T16:41:37Z</time>
      </trkpt>
      <trkpt lat="49.41489" lon="-1.79673">
        <ele>29.4</ele>
        <time>2020-06-14T16:41:38Z</time>
      </trkpt>
      <trkpt lat="49.41489" lon="-1.79672">
        <ele>29.4</ele>
        <time>2020-06-14T16:41:39Z</time>
      </trkpt>
      <trkpt lat="49.41489" lon="-1.79673">
        <ele>29.4</ele>
        <time>2020-06-14T16:41:40Z</time>
      </trkpt>
      <trkpt lat="49.41489" lon="-1.79673">
        <ele>29.4</ele>
        <time>2020-06-14T16:41:41Z</time>
      </trkpt>
      <trkpt lat="49.41488" lon="-1.79673">
        <ele>29.4</ele>
        <time>2020-06-14T16:41:42Z</time>
      </trkpt>
      <trkpt lat="49.41488" lon="-1.79672">
        <ele>29.4</ele>
        <time>2020-06-14T16:41:43Z</time>
      </trkpt>
      <trkpt lat="49.41488" lon="-1.79672">
        <ele>29.4</ele>
        <time>2020-06-14T16:41:44Z</time>
      </trkpt>
      <trkpt lat="49.41488" lon="-1.79672">
        <ele>29.4</ele>
        <time>2020-06-14T16:41:45Z</time>
      </trkpt>
      <trkpt lat="49.41493" lon="-1.7968">
        <ele>29.5</ele>
        <time>2020-06-14T16:42:06Z</time>
      </trkpt>
      <trkpt lat="49.41494" lon="-1.79681">
        <ele>29.5</ele>
        <time>2020-06-14T16:42:07Z</time>
      </trkpt>
      <trkpt lat="49.41497" lon="-1.79685">
        <ele>29.6</ele>
        <time>2020-06-14T16:42:08Z</time>
      </trkpt>
      <trkpt lat="49.41498" lon="-1.79686">
        <ele>29.6</ele>
        <time>2020-06-14T16:42:09Z</time>
      </trkpt>
      <trkpt lat="49.41502" lon="-1.79689">
        <ele>29.7</ele>
        <time>2020-06-14T16:42:10Z</time>
      </trkpt>
      <trkpt lat="49.41503" lon="-1.7969">
        <ele>29.8</ele>
        <time>2020-06-14T16:42:11Z</time>
      </trkpt>
      <trkpt lat="49.41505" lon="-1.79691">
        <ele>29.9</ele>
        <time>2020-06-14T16:42:12Z</time>
      </trkpt>
      <trkpt lat="49.41508" lon="-1.79693">
        <ele>30</ele>
        <time>2020-06-14T16:42:13Z</time>
      </trkpt>
      <trkpt lat="49.41511" lon="-1.79696">
        <ele>30.1</ele>
        <time>2020-06-14T16:42:14Z</time>
      </trkpt>
      <trkpt lat="49.41514" lon="-1.79697">
        <ele>30.2</ele>
        <time>2020-06-14T16:42:15Z</time>
      </trkpt>
      <trkpt lat="49.41518" lon="-1.79696">
        <ele>30.5</ele>
        <time>2020-06-14T16:42:16Z</time>
      </trkpt>
      <trkpt lat="49.41521" lon="-1.79698">
        <ele>30.7</ele>
        <time>2020-06-14T16:42:17Z</time>
      </trkpt>
      <trkpt lat="49.41524" lon="-1.79697">
        <ele>30.9</ele>
        <time>2020-06-14T16:42:18Z</time>
      </trkpt>
      <trkpt lat="49.41528" lon="-1.79697">
        <ele>31.6</ele>
        <time>2020-06-14T16:42:19Z</time>
      </trkpt>
      <trkpt lat="49.41529" lon="-1.79697">
        <ele>31.8</ele>
        <time>2020-06-14T16:42:20Z</time>
      </trkpt>
      <trkpt lat="49.41532" lon="-1.79695">
        <ele>32.3</ele>
        <time>2020-06-14T16:42:21Z</time>
      </trkpt>
      <trkpt lat="49.41533" lon="-1.79695">
        <ele>32.4</ele>
        <time>2020-06-14T16:42:22Z</time>
      </trkpt>
      <trkpt lat="49.41536" lon="-1.79691">
        <ele>32.8</ele>
        <time>2020-06-14T16:42:23Z</time>
      </trkpt>
      <trkpt lat="49.41536" lon="-1.7969">
        <ele>32.9</ele>
        <time>2020-06-14T16:42:24Z</time>
      </trkpt>
      <trkpt lat="49.41538" lon="-1.79687">
        <ele>33.2</ele>
        <time>2020-06-14T16:42:25Z</time>
      </trkpt>
      <trkpt lat="49.41541" lon="-1.79684">
        <ele>33.5</ele>
        <time>2020-06-14T16:42:26Z</time>
      </trkpt>
      <trkpt lat="49.41544" lon="-1.79681">
        <ele>33.7</ele>
        <time>2020-06-14T16:42:27Z</time>
      </trkpt>
      <trkpt lat="49.41547" lon="-1.79678">
        <ele>34</ele>
        <time>2020-06-14T16:42:28Z</time>
      </trkpt>
      <trkpt lat="49.41549" lon="-1.79675">
        <ele>34.3</ele>
        <time>2020-06-14T16:42:29Z</time>
      </trkpt>
      <trkpt lat="49.41553" lon="-1.79674">
        <ele>34.5</ele>
        <time>2020-06-14T16:42:30Z</time>
      </trkpt>
      <trkpt lat="49.41557" lon="-1.79675">
        <ele>34.9</ele>
        <time>2020-06-14T16:42:31Z</time>
      </trkpt>
      <trkpt lat="49.41558" lon="-1.79675">
        <ele>35</ele>
        <time>2020-06-14T16:42:32Z</time>
      </trkpt>
      <trkpt lat="49.41561" lon="-1.79673">
        <ele>35.3</ele>
        <time>2020-06-14T16:42:33Z</time>
      </trkpt>
      <trkpt lat="49.41564" lon="-1.79672">
        <ele>35.5</ele>
        <time>2020-06-14T16:42:34Z</time>
      </trkpt>
      <trkpt lat="49.41568" lon="-1.79671">
        <ele>35.9</ele>
        <time>2020-06-14T16:42:35Z</time>
      </trkpt>
      <trkpt lat="49.41572" lon="-1.79668">
        <ele>36.3</ele>
        <time>2020-06-14T16:42:36Z</time>
      </trkpt>
      <trkpt lat="49.41574" lon="-1.79667">
        <ele>36.4</ele>
        <time>2020-06-14T16:42:37Z</time>
      </trkpt>
      <trkpt lat="49.41577" lon="-1.79665">
        <ele>36.7</ele>
        <time>2020-06-14T16:42:38Z</time>
      </trkpt>
      <trkpt lat="49.4158" lon="-1.79664">
        <ele>37</ele>
        <time>2020-06-14T16:42:39Z</time>
      </trkpt>
      <trkpt lat="49.41581" lon="-1.79664">
        <ele>37.1</ele>
        <time>2020-06-14T16:42:40Z</time>
      </trkpt>
      <trkpt lat="49.41584" lon="-1.79663">
        <ele>37.4</ele>
        <time>2020-06-14T16:42:41Z</time>
      </trkpt>
      <trkpt lat="49.41587" lon="-1.79662">
        <ele>37.7</ele>
        <time>2020-06-14T16:42:42Z</time>
      </trkpt>
      <trkpt lat="49.4159" lon="-1.79661">
        <ele>38.1</ele>
        <time>2020-06-14T16:42:43Z</time>
      </trkpt>
      <trkpt lat="49.41594" lon="-1.79662">
        <ele>38.4</ele>
        <time>2020-06-14T16:42:44Z</time>
      </trkpt>
      <trkpt lat="49.41595" lon="-1.79662">
        <ele>38.5</ele>
        <time>2020-06-14T16:42:45Z</time>
      </trkpt>
      <trkpt lat="49.41596" lon="-1.79664">
        <ele>38.7</ele>
        <time>2020-06-14T16:42:46Z</time>
      </trkpt>
      <trkpt lat="49.41597" lon="-1.79664">
        <ele>38.9</ele>
        <time>2020-06-14T16:42:47Z</time>
      </trkpt>
      <trkpt lat="49.41599" lon="-1.79665">
        <ele>39.1</ele>
        <time>2020-06-14T16:42:48Z</time>
      </trkpt>
      <trkpt lat="49.41601" lon="-1.79665">
        <ele>39.2</ele>
        <time>2020-06-14T16:42:49Z</time>
      </trkpt>
      <trkpt lat="49.41602" lon="-1.79665">
        <ele>39.4</ele>
        <time>2020-06-14T16:42:50Z</time>
      </trkpt>
      <trkpt lat="49.41604" lon="-1.79665">
        <ele>39.6</ele>
        <time>2020-06-14T16:42:51Z</time>
      </trkpt>
      <trkpt lat="49.41606" lon="-1.79666">
        <ele>39.9</ele>
        <time>2020-06-14T16:42:52Z</time>
      </trkpt>
      <trkpt lat="49.41607" lon="-1.79666">
        <ele>40</ele>
        <time>2020-06-14T16:42:53Z</time>
      </trkpt>
      <trkpt lat="49.41609" lon="-1.79666">
        <ele>40.2</ele>
        <time>2020-06-14T16:42:54Z</time>
      </trkpt>
      <trkpt lat="49.4161" lon="-1.79666">
        <ele>40.4</ele>
        <time>2020-06-14T16:42:55Z</time>
      </trkpt>
      <trkpt lat="49.41613" lon="-1.79667">
        <ele>40.7</ele>
        <time>2020-06-14T16:42:56Z</time>
      </trkpt>
      <trkpt lat="49.41614" lon="-1.79668">
        <ele>40.9</ele>
        <time>2020-06-14T16:42:57Z</time>
      </trkpt>
      <trkpt lat="49.41617" lon="-1.79669">
        <ele>41.3</ele>
        <time>2020-06-14T16:42:58Z</time>
      </trkpt>
      <trkpt lat="49.4162" lon="-1.7967">
        <ele>41.6</ele>
        <time>2020-06-14T16:42:59Z</time>
      </trkpt>
      <trkpt lat="49.41621" lon="-1.79671">
        <ele>41.7</ele>
        <time>2020-06-14T16:43:00Z</time>
      </trkpt>
      <trkpt lat="49.41624" lon="-1.79672">
        <ele>42.1</ele>
        <time>2020-06-14T16:43:01Z</time>
      </trkpt>
      <trkpt lat="49.41625" lon="-1.79672">
        <ele>42.2</ele>
        <time>2020-06-14T16:43:02Z</time>
      </trkpt>
      <trkpt lat="49.41628" lon="-1.79672">
        <ele>42.5</ele>
        <time>2020-06-14T16:43:03Z</time>
      </trkpt>
      <trkpt lat="49.41629" lon="-1.79671">
        <ele>42.6</ele>
        <time>2020-06-14T16:43:04Z</time>
      </trkpt>
      <trkpt lat="49.41633" lon="-1.79671">
        <ele>43.1</ele>
        <time>2020-06-14T16:43:05Z</time>
      </trkpt>
      <trkpt lat="49.41635" lon="-1.79671">
        <ele>43.3</ele>
        <time>2020-06-14T16:43:06Z</time>
      </trkpt>
      <trkpt lat="49.41639" lon="-1.79672">
        <ele>43.7</ele>
        <time>2020-06-14T16:43:07Z</time>
      </trkpt>
      <trkpt lat="49.41641" lon="-1.79673">
        <ele>43.8</ele>
        <time>2020-06-14T16:43:08Z</time>
      </trkpt>
      <trkpt lat="49.41644" lon="-1.79674">
        <ele>44.2</ele>
        <time>2020-06-14T16:43:09Z</time>
      </trkpt>
      <trkpt lat="49.41645" lon="-1.79675">
        <ele>44.3</ele>
        <time>2020-06-14T16:43:10Z</time>
      </trkpt>
      <trkpt lat="49.41648" lon="-1.79675">
        <ele>44.6</ele>
        <time>2020-06-14T16:43:11Z</time>
      </trkpt>
      <trkpt lat="49.41651" lon="-1.79675">
        <ele>44.9</ele>
        <time>2020-06-14T16:43:12Z</time>
      </trkpt>
      <trkpt lat="49.41652" lon="-1.79676">
        <ele>45</ele>
        <time>2020-06-14T16:43:13Z</time>
      </trkpt>
      <trkpt lat="49.41656" lon="-1.79675">
        <ele>45.4</ele>
        <time>2020-06-14T16:43:14Z</time>
      </trkpt>
      <trkpt lat="49.41659" lon="-1.79676">
        <ele>45.7</ele>
        <time>2020-06-14T16:43:15Z</time>
      </trkpt>
      <trkpt lat="49.4166" lon="-1.79676">
        <ele>45.8</ele>
        <time>2020-06-14T16:43:16Z</time>
      </trkpt>
      <trkpt lat="49.41663" lon="-1.79677">
        <ele>46.1</ele>
        <time>2020-06-14T16:43:17Z</time>
      </trkpt>
      <trkpt lat="49.41666" lon="-1.79678">
        <ele>46.5</ele>
        <time>2020-06-14T16:43:18Z</time>
      </trkpt>
      <trkpt lat="49.41669" lon="-1.79679">
        <ele>46.8</ele>
        <time>2020-06-14T16:43:19Z</time>
      </trkpt>
      <trkpt lat="49.41673" lon="-1.7968">
        <ele>47.1</ele>
        <time>2020-06-14T16:43:20Z</time>
      </trkpt>
      <trkpt lat="49.41674" lon="-1.7968">
        <ele>47.2</ele>
        <time>2020-06-14T16:43:21Z</time>
      </trkpt>
      <trkpt lat="49.41677" lon="-1.7968">
        <ele>47.5</ele>
        <time>2020-06-14T16:43:22Z</time>
      </trkpt>
      <trkpt lat="49.4168" lon="-1.79681">
        <ele>47.8</ele>
        <time>2020-06-14T16:43:23Z</time>
      </trkpt>
      <trkpt lat="49.41683" lon="-1.79682">
        <ele>48.1</ele>
        <time>2020-06-14T16:43:24Z</time>
      </trkpt>
      <trkpt lat="49.41687" lon="-1.79682">
        <ele>48.4</ele>
        <time>2020-06-14T16:43:25Z</time>
      </trkpt>
      <trkpt lat="49.41688" lon="-1.79682">
        <ele>48.6</ele>
        <time>2020-06-14T16:43:26Z</time>
      </trkpt>
      <trkpt lat="49.41691" lon="-1.79681">
        <ele>48.8</ele>
        <time>2020-06-14T16:43:27Z</time>
      </trkpt>
      <trkpt lat="49.41694" lon="-1.79681">
        <ele>49.1</ele>
        <time>2020-06-14T16:43:28Z</time>
      </trkpt>
      <trkpt lat="49.41695" lon="-1.79681">
        <ele>49.2</ele>
        <time>2020-06-14T16:43:29Z</time>
      </trkpt>
      <trkpt lat="49.41698" lon="-1.79681">
        <ele>49.5</ele>
        <time>2020-06-14T16:43:30Z</time>
      </trkpt>
      <trkpt lat="49.41701" lon="-1.7968">
        <ele>49.8</ele>
        <time>2020-06-14T16:43:31Z</time>
      </trkpt>
      <trkpt lat="49.41704" lon="-1.7968">
        <ele>50.2</ele>
        <time>2020-06-14T16:43:32Z</time>
      </trkpt>
      <trkpt lat="49.41707" lon="-1.79679">
        <ele>50.5</ele>
        <time>2020-06-14T16:43:33Z</time>
      </trkpt>
      <trkpt lat="49.41711" lon="-1.79678">
        <ele>50.9</ele>
        <time>2020-06-14T16:43:34Z</time>
      </trkpt>
      <trkpt lat="49.41713" lon="-1.79677">
        <ele>51.1</ele>
        <time>2020-06-14T16:43:35Z</time>
      </trkpt>
      <trkpt lat="49.41717" lon="-1.79676">
        <ele>51.5</ele>
        <time>2020-06-14T16:43:36Z</time>
      </trkpt>
      <trkpt lat="49.41719" lon="-1.79675">
        <ele>51.7</ele>
        <time>2020-06-14T16:43:37Z</time>
      </trkpt>
      <trkpt lat="49.41722" lon="-1.79676">
        <ele>52</ele>
        <time>2020-06-14T16:43:38Z</time>
      </trkpt>
      <trkpt lat="49.41724" lon="-1.79676">
        <ele>52.2</ele>
        <time>2020-06-14T16:43:39Z</time>
      </trkpt>
      <trkpt lat="49.41727" lon="-1.79676">
        <ele>52.5</ele>
        <time>2020-06-14T16:43:40Z</time>
      </trkpt>
      <trkpt lat="49.41731" lon="-1.79676">
        <ele>53</ele>
        <time>2020-06-14T16:43:41Z</time>
      </trkpt>
      <trkpt lat="49.41736" lon="-1.79674">
        <ele>53.4</ele>
        <time>2020-06-14T16:43:42Z</time>
      </trkpt>
      <trkpt lat="49.4174" lon="-1.79674">
        <ele>53.8</ele>
        <time>2020-06-14T16:43:43Z</time>
      </trkpt>
      <trkpt lat="49.41741" lon="-1.79675">
        <ele>53.9</ele>
        <time>2020-06-14T16:43:44Z</time>
      </trkpt>
      <trkpt lat="49.41744" lon="-1.79674">
        <ele>54.2</ele>
        <time>2020-06-14T16:43:45Z</time>
      </trkpt>
      <trkpt lat="49.41747" lon="-1.79674">
        <ele>54.6</ele>
        <time>2020-06-14T16:43:46Z</time>
      </trkpt>
      <trkpt lat="49.41749" lon="-1.79674">
        <ele>54.7</ele>
        <time>2020-06-14T16:43:47Z</time>
      </trkpt>
      <trkpt lat="49.41752" lon="-1.79674">
        <ele>55</ele>
        <time>2020-06-14T16:43:48Z</time>
      </trkpt>
      <trkpt lat="49.41755" lon="-1.79674">
        <ele>55.3</ele>
        <time>2020-06-14T16:43:49Z</time>
      </trkpt>
      <trkpt lat="49.41758" lon="-1.79674">
        <ele>55.5</ele>
        <time>2020-06-14T16:43:50Z</time>
      </trkpt>
      <trkpt lat="49.41761" lon="-1.79673">
        <ele>55.8</ele>
        <time>2020-06-14T16:43:51Z</time>
      </trkpt>
      <trkpt lat="49.41762" lon="-1.79673">
        <ele>55.9</ele>
        <time>2020-06-14T16:43:52Z</time>
      </trkpt>
      <trkpt lat="49.41766" lon="-1.79673">
        <ele>56.1</ele>
        <time>2020-06-14T16:43:53Z</time>
      </trkpt>
      <trkpt lat="49.41769" lon="-1.79674">
        <ele>56.3</ele>
        <time>2020-06-14T16:43:54Z</time>
      </trkpt>
      <trkpt lat="49.41773" lon="-1.79675">
        <ele>56.6</ele>
        <time>2020-06-14T16:43:55Z</time>
      </trkpt>
      <trkpt lat="49.41773" lon="-1.79676">
        <ele>56.6</ele>
        <time>2020-06-14T16:43:56Z</time>
      </trkpt>
      <trkpt lat="49.41777" lon="-1.79676">
        <ele>56.9</ele>
        <time>2020-06-14T16:43:57Z</time>
      </trkpt>
      <trkpt lat="49.41778" lon="-1.79676">
        <ele>56.9</ele>
        <time>2020-06-14T16:43:58Z</time>
      </trkpt>
      <trkpt lat="49.41781" lon="-1.79677">
        <ele>57.1</ele>
        <time>2020-06-14T16:43:59Z</time>
      </trkpt>
      <trkpt lat="49.41784" lon="-1.79677">
        <ele>57.3</ele>
        <time>2020-06-14T16:44:00Z</time>
      </trkpt>
      <trkpt lat="49.41787" lon="-1.79676">
        <ele>57.5</ele>
        <time>2020-06-14T16:44:01Z</time>
      </trkpt>
      <trkpt lat="49.41791" lon="-1.79677">
        <ele>57.6</ele>
        <time>2020-06-14T16:44:02Z</time>
      </trkpt>
      <trkpt lat="49.41792" lon="-1.79677">
        <ele>57.7</ele>
        <time>2020-06-14T16:44:03Z</time>
      </trkpt>
      <trkpt lat="49.41796" lon="-1.79678">
        <ele>57.8</ele>
        <time>2020-06-14T16:44:04Z</time>
      </trkpt>
      <trkpt lat="49.41799" lon="-1.79678">
        <ele>58</ele>
        <time>2020-06-14T16:44:05Z</time>
      </trkpt>
      <trkpt lat="49.41803" lon="-1.79678">
        <ele>58.1</ele>
        <time>2020-06-14T16:44:06Z</time>
      </trkpt>
      <trkpt lat="49.41806" lon="-1.79678">
        <ele>58.1</ele>
        <time>2020-06-14T16:44:07Z</time>
      </trkpt>
      <trkpt lat="49.4181" lon="-1.79678">
        <ele>58.2</ele>
        <time>2020-06-14T16:44:08Z</time>
      </trkpt>
      <trkpt lat="49.41813" lon="-1.79678">
        <ele>58.3</ele>
        <time>2020-06-14T16:44:09Z</time>
      </trkpt>
      <trkpt lat="49.41816" lon="-1.79677">
        <ele>58.3</ele>
        <time>2020-06-14T16:44:10Z</time>
      </trkpt>
      <trkpt lat="49.41821" lon="-1.79676">
        <ele>58.3</ele>
        <time>2020-06-14T16:44:11Z</time>
      </trkpt>
      <trkpt lat="49.41822" lon="-1.79676">
        <ele>58.4</ele>
        <time>2020-06-14T16:44:12Z</time>
      </trkpt>
      <trkpt lat="49.41826" lon="-1.79675">
        <ele>58.4</ele>
        <time>2020-06-14T16:44:13Z</time>
      </trkpt>
      <trkpt lat="49.4183" lon="-1.79675">
        <ele>58.4</ele>
        <time>2020-06-14T16:44:14Z</time>
      </trkpt>
      <trkpt lat="49.41835" lon="-1.79674">
        <ele>58.4</ele>
        <time>2020-06-14T16:44:15Z</time>
      </trkpt>
      <trkpt lat="49.41838" lon="-1.79674">
        <ele>58.5</ele>
        <time>2020-06-14T16:44:16Z</time>
      </trkpt>
      <trkpt lat="49.41841" lon="-1.79675">
        <ele>58.5</ele>
        <time>2020-06-14T16:44:17Z</time>
      </trkpt>
      <trkpt lat="49.41845" lon="-1.79674">
        <ele>58.5</ele>
        <time>2020-06-14T16:44:18Z</time>
      </trkpt>
      <trkpt lat="49.41848" lon="-1.79674">
        <ele>58.5</ele>
        <time>2020-06-14T16:44:19Z</time>
      </trkpt>
      <trkpt lat="49.41853" lon="-1.79674">
        <ele>58.6</ele>
        <time>2020-06-14T16:44:20Z</time>
      </trkpt>
      <trkpt lat="49.41856" lon="-1.79673">
        <ele>58.6</ele>
        <time>2020-06-14T16:44:21Z</time>
      </trkpt>
      <trkpt lat="49.4186" lon="-1.79673">
        <ele>58.6</ele>
        <time>2020-06-14T16:44:22Z</time>
      </trkpt>
      <trkpt lat="49.41864" lon="-1.79671">
        <ele>58.6</ele>
        <time>2020-06-14T16:44:23Z</time>
      </trkpt>
      <trkpt lat="49.41869" lon="-1.79671">
        <ele>58.6</ele>
        <time>2020-06-14T16:44:24Z</time>
      </trkpt>
      <trkpt lat="49.41873" lon="-1.7967">
        <ele>58.6</ele>
        <time>2020-06-14T16:44:25Z</time>
      </trkpt>
      <trkpt lat="49.41877" lon="-1.79669">
        <ele>58.6</ele>
        <time>2020-06-14T16:44:26Z</time>
      </trkpt>
      <trkpt lat="49.41881" lon="-1.79669">
        <ele>58.6</ele>
        <time>2020-06-14T16:44:27Z</time>
      </trkpt>
      <trkpt lat="49.41884" lon="-1.79669">
        <ele>58.6</ele>
        <time>2020-06-14T16:44:28Z</time>
      </trkpt>
      <trkpt lat="49.41888" lon="-1.79668">
        <ele>58.6</ele>
        <time>2020-06-14T16:44:29Z</time>
      </trkpt>
      <trkpt lat="49.41892" lon="-1.79667">
        <ele>58.7</ele>
        <time>2020-06-14T16:44:30Z</time>
      </trkpt>
      <trkpt lat="49.41897" lon="-1.79667">
        <ele>58.7</ele>
        <time>2020-06-14T16:44:31Z</time>
      </trkpt>
      <trkpt lat="49.41901" lon="-1.79666">
        <ele>58.7</ele>
        <time>2020-06-14T16:44:32Z</time>
      </trkpt>
      <trkpt lat="49.41906" lon="-1.79665">
        <ele>58.8</ele>
        <time>2020-06-14T16:44:33Z</time>
      </trkpt>
      <trkpt lat="49.4191" lon="-1.79665">
        <ele>58.8</ele>
        <time>2020-06-14T16:44:34Z</time>
      </trkpt>
      <trkpt lat="49.41914" lon="-1.79664">
        <ele>58.8</ele>
        <time>2020-06-14T16:44:35Z</time>
      </trkpt>
      <trkpt lat="49.41918" lon="-1.79664">
        <ele>58.8</ele>
        <time>2020-06-14T16:44:36Z</time>
      </trkpt>
      <trkpt lat="49.41922" lon="-1.79662">
        <ele>58.9</ele>
        <time>2020-06-14T16:44:37Z</time>
      </trkpt>
      <trkpt lat="49.41926" lon="-1.79661">
        <ele>58.9</ele>
        <time>2020-06-14T16:44:38Z</time>
      </trkpt>
      <trkpt lat="49.41931" lon="-1.79659">
        <ele>58.9</ele>
        <time>2020-06-14T16:44:39Z</time>
      </trkpt>
      <trkpt lat="49.41935" lon="-1.7966">
        <ele>58.9</ele>
        <time>2020-06-14T16:44:40Z</time>
      </trkpt>
      <trkpt lat="49.4194" lon="-1.79659">
        <ele>59</ele>
        <time>2020-06-14T16:44:41Z</time>
      </trkpt>
      <trkpt lat="49.41945" lon="-1.79658">
        <ele>59</ele>
        <time>2020-06-14T16:44:42Z</time>
      </trkpt>
      <trkpt lat="49.41948" lon="-1.79658">
        <ele>59</ele>
        <time>2020-06-14T16:44:43Z</time>
      </trkpt>
      <trkpt lat="49.41952" lon="-1.79658">
        <ele>59.1</ele>
        <time>2020-06-14T16:44:44Z</time>
      </trkpt>
      <trkpt lat="49.41956" lon="-1.79658">
        <ele>59.1</ele>
        <time>2020-06-14T16:44:45Z</time>
      </trkpt>
      <trkpt lat="49.4196" lon="-1.79657">
        <ele>59.1</ele>
        <time>2020-06-14T16:44:46Z</time>
      </trkpt>
      <trkpt lat="49.41963" lon="-1.79656">
        <ele>59.1</ele>
        <time>2020-06-14T16:44:47Z</time>
      </trkpt>
      <trkpt lat="49.41967" lon="-1.79656">
        <ele>59.2</ele>
        <time>2020-06-14T16:44:48Z</time>
      </trkpt>
      <trkpt lat="49.41972" lon="-1.79656">
        <ele>59.2</ele>
        <time>2020-06-14T16:44:49Z</time>
      </trkpt>
      <trkpt lat="49.41977" lon="-1.79656">
        <ele>59.2</ele>
        <time>2020-06-14T16:44:50Z</time>
      </trkpt>
      <trkpt lat="49.41981" lon="-1.79655">
        <ele>59.2</ele>
        <time>2020-06-14T16:44:51Z</time>
      </trkpt>
      <trkpt lat="49.41984" lon="-1.79655">
        <ele>59.2</ele>
        <time>2020-06-14T16:44:52Z</time>
      </trkpt>
      <trkpt lat="49.41987" lon="-1.79655">
        <ele>59.1</ele>
        <time>2020-06-14T16:44:53Z</time>
      </trkpt>
      <trkpt lat="49.41993" lon="-1.79654">
        <ele>59.1</ele>
        <time>2020-06-14T16:44:54Z</time>
      </trkpt>
      <trkpt lat="49.41997" lon="-1.79654">
        <ele>59</ele>
        <time>2020-06-14T16:44:55Z</time>
      </trkpt>
      <trkpt lat="49.42001" lon="-1.79653">
        <ele>59</ele>
        <time>2020-06-14T16:44:56Z</time>
      </trkpt>
      <trkpt lat="49.42006" lon="-1.79652">
        <ele>58.9</ele>
        <time>2020-06-14T16:44:57Z</time>
      </trkpt>
      <trkpt lat="49.42009" lon="-1.79653">
        <ele>58.8</ele>
        <time>2020-06-14T16:44:58Z</time>
      </trkpt>
      <trkpt lat="49.42014" lon="-1.79652">
        <ele>58.7</ele>
        <time>2020-06-14T16:44:59Z</time>
      </trkpt>
      <trkpt lat="49.4202" lon="-1.79651">
        <ele>58.6</ele>
        <time>2020-06-14T16:45:00Z</time>
      </trkpt>
      <trkpt lat="49.42025" lon="-1.79651">
        <ele>58.4</ele>
        <time>2020-06-14T16:45:01Z</time>
      </trkpt>
      <trkpt lat="49.42029" lon="-1.79652">
        <ele>58.2</ele>
        <time>2020-06-14T16:45:02Z</time>
      </trkpt>
      <trkpt lat="49.42034" lon="-1.79653">
        <ele>57.9</ele>
        <time>2020-06-14T16:45:03Z</time>
      </trkpt>
      <trkpt lat="49.42039" lon="-1.79653">
        <ele>57.6</ele>
        <time>2020-06-14T16:45:04Z</time>
      </trkpt>
      <trkpt lat="49.42044" lon="-1.79654">
        <ele>57.4</ele>
        <time>2020-06-14T16:45:05Z</time>
      </trkpt>
      <trkpt lat="49.42049" lon="-1.79655">
        <ele>57</ele>
        <time>2020-06-14T16:45:06Z</time>
      </trkpt>
      <trkpt lat="49.42055" lon="-1.79657">
        <ele>56.6</ele>
        <time>2020-06-14T16:45:07Z</time>
      </trkpt>
      <trkpt lat="49.42061" lon="-1.79658">
        <ele>56.1</ele>
        <time>2020-06-14T16:45:08Z</time>
      </trkpt>
      <trkpt lat="49.42068" lon="-1.7966">
        <ele>55.6</ele>
        <time>2020-06-14T16:45:09Z</time>
      </trkpt>
      <trkpt lat="49.42075" lon="-1.79661">
        <ele>55.1</ele>
        <time>2020-06-14T16:45:10Z</time>
      </trkpt>
      <trkpt lat="49.42081" lon="-1.79663">
        <ele>54.7</ele>
        <time>2020-06-14T16:45:11Z</time>
      </trkpt>
      <trkpt lat="49.42089" lon="-1.79664">
        <ele>54.2</ele>
        <time>2020-06-14T16:45:12Z</time>
      </trkpt>
      <trkpt lat="49.42098" lon="-1.79667">
        <ele>53.6</ele>
        <time>2020-06-14T16:45:13Z</time>
      </trkpt>
      <trkpt lat="49.42108" lon="-1.79668">
        <ele>53</ele>
        <time>2020-06-14T16:45:14Z</time>
      </trkpt>
      <trkpt lat="49.42116" lon="-1.7967">
        <ele>52.5</ele>
        <time>2020-06-14T16:45:15Z</time>
      </trkpt>
      <trkpt lat="49.42124" lon="-1.79671">
        <ele>52</ele>
        <time>2020-06-14T16:45:16Z</time>
      </trkpt>
      <trkpt lat="49.42133" lon="-1.79672">
        <ele>51.5</ele>
        <time>2020-06-14T16:45:17Z</time>
      </trkpt>
      <trkpt lat="49.42142" lon="-1.79674">
        <ele>51</ele>
        <time>2020-06-14T16:45:18Z</time>
      </trkpt>
      <trkpt lat="49.4215" lon="-1.79675">
        <ele>50.7</ele>
        <time>2020-06-14T16:45:19Z</time>
      </trkpt>
      <trkpt lat="49.42159" lon="-1.79678">
        <ele>50.4</ele>
        <time>2020-06-14T16:45:20Z</time>
      </trkpt>
      <trkpt lat="49.42167" lon="-1.79679">
        <ele>50.2</ele>
        <time>2020-06-14T16:45:21Z</time>
      </trkpt>
      <trkpt lat="49.42175" lon="-1.7968">
        <ele>49.9</ele>
        <time>2020-06-14T16:45:22Z</time>
      </trkpt>
      <trkpt lat="49.42184" lon="-1.79681">
        <ele>49.6</ele>
        <time>2020-06-14T16:45:23Z</time>
      </trkpt>
      <trkpt lat="49.42192" lon="-1.79683">
        <ele>49.3</ele>
        <time>2020-06-14T16:45:24Z</time>
      </trkpt>
      <trkpt lat="49.422" lon="-1.79685">
        <ele>49</ele>
        <time>2020-06-14T16:45:25Z</time>
      </trkpt>
      <trkpt lat="49.42208" lon="-1.79688">
        <ele>48.7</ele>
        <time>2020-06-14T16:45:27Z</time>
      </trkpt>
      <trkpt lat="49.42216" lon="-1.7969">
        <ele>48.6</ele>
        <time>2020-06-14T16:45:28Z</time>
      </trkpt>
      <trkpt lat="49.42224" lon="-1.79691">
        <ele>48.5</ele>
        <time>2020-06-14T16:45:29Z</time>
      </trkpt>
      <trkpt lat="49.42233" lon="-1.79692">
        <ele>48.6</ele>
        <time>2020-06-14T16:45:30Z</time>
      </trkpt>
      <trkpt lat="49.42241" lon="-1.79694">
        <ele>48.8</ele>
        <time>2020-06-14T16:45:31Z</time>
      </trkpt>
      <trkpt lat="49.4225" lon="-1.79697">
        <ele>49.2</ele>
        <time>2020-06-14T16:45:32Z</time>
      </trkpt>
      <trkpt lat="49.42258" lon="-1.79698">
        <ele>49.5</ele>
        <time>2020-06-14T16:45:33Z</time>
      </trkpt>
      <trkpt lat="49.42265" lon="-1.79701">
        <ele>49.7</ele>
        <time>2020-06-14T16:45:34Z</time>
      </trkpt>
      <trkpt lat="49.42271" lon="-1.79702">
        <ele>49.9</ele>
        <time>2020-06-14T16:45:35Z</time>
      </trkpt>
      <trkpt lat="49.42276" lon="-1.79703">
        <ele>50.2</ele>
        <time>2020-06-14T16:45:36Z</time>
      </trkpt>
      <trkpt lat="49.4228" lon="-1.79704">
        <ele>50.3</ele>
        <time>2020-06-14T16:45:37Z</time>
      </trkpt>
      <trkpt lat="49.42284" lon="-1.79704">
        <ele>50.5</ele>
        <time>2020-06-14T16:45:38Z</time>
      </trkpt>
      <trkpt lat="49.42287" lon="-1.79704">
        <ele>50.7</ele>
        <time>2020-06-14T16:45:39Z</time>
      </trkpt>
      <trkpt lat="49.42291" lon="-1.79704">
        <ele>50.8</ele>
        <time>2020-06-14T16:45:40Z</time>
      </trkpt>
      <trkpt lat="49.42295" lon="-1.79703">
        <ele>51</ele>
        <time>2020-06-14T16:45:41Z</time>
      </trkpt>
      <trkpt lat="49.42299" lon="-1.79702">
        <ele>51.1</ele>
        <time>2020-06-14T16:45:42Z</time>
      </trkpt>
      <trkpt lat="49.42303" lon="-1.79702">
        <ele>51.2</ele>
        <time>2020-06-14T16:45:43Z</time>
      </trkpt>
      <trkpt lat="49.42307" lon="-1.79702">
        <ele>51.4</ele>
        <time>2020-06-14T16:45:44Z</time>
      </trkpt>
      <trkpt lat="49.42315" lon="-1.79703">
        <ele>51.5</ele>
        <time>2020-06-14T16:45:45Z</time>
      </trkpt>
      <trkpt lat="49.4232" lon="-1.79703">
        <ele>51.6</ele>
        <time>2020-06-14T16:45:46Z</time>
      </trkpt>
      <trkpt lat="49.42324" lon="-1.79704">
        <ele>51.6</ele>
        <time>2020-06-14T16:45:47Z</time>
      </trkpt>
      <trkpt lat="49.42329" lon="-1.79706">
        <ele>51.7</ele>
        <time>2020-06-14T16:45:48Z</time>
      </trkpt>
      <trkpt lat="49.42333" lon="-1.79707">
        <ele>51.7</ele>
        <time>2020-06-14T16:45:49Z</time>
      </trkpt>
      <trkpt lat="49.42338" lon="-1.79708">
        <ele>51.7</ele>
        <time>2020-06-14T16:45:50Z</time>
      </trkpt>
      <trkpt lat="49.42342" lon="-1.79707">
        <ele>51.7</ele>
        <time>2020-06-14T16:45:51Z</time>
      </trkpt>
      <trkpt lat="49.42347" lon="-1.79706">
        <ele>51.6</ele>
        <time>2020-06-14T16:45:52Z</time>
      </trkpt>
      <trkpt lat="49.42352" lon="-1.79707">
        <ele>51.6</ele>
        <time>2020-06-14T16:45:53Z</time>
      </trkpt>
      <trkpt lat="49.42357" lon="-1.79707">
        <ele>51.6</ele>
        <time>2020-06-14T16:45:54Z</time>
      </trkpt>
      <trkpt lat="49.42362" lon="-1.79708">
        <ele>51.6</ele>
        <time>2020-06-14T16:45:55Z</time>
      </trkpt>
      <trkpt lat="49.42367" lon="-1.79709">
        <ele>51.6</ele>
        <time>2020-06-14T16:45:56Z</time>
      </trkpt>
      <trkpt lat="49.42372" lon="-1.79709">
        <ele>51.5</ele>
        <time>2020-06-14T16:45:57Z</time>
      </trkpt>
      <trkpt lat="49.42377" lon="-1.79711">
        <ele>51.5</ele>
        <time>2020-06-14T16:45:58Z</time>
      </trkpt>
      <trkpt lat="49.42382" lon="-1.79712">
        <ele>51.5</ele>
        <time>2020-06-14T16:45:59Z</time>
      </trkpt>
      <trkpt lat="49.42387" lon="-1.79713">
        <ele>51.4</ele>
        <time>2020-06-14T16:46:00Z</time>
      </trkpt>
      <trkpt lat="49.42391" lon="-1.79716">
        <ele>51.4</ele>
        <time>2020-06-14T16:46:01Z</time>
      </trkpt>
      <trkpt lat="49.42396" lon="-1.79719">
        <ele>51.4</ele>
        <time>2020-06-14T16:46:02Z</time>
      </trkpt>
      <trkpt lat="49.424" lon="-1.79722">
        <ele>51.3</ele>
        <time>2020-06-14T16:46:03Z</time>
      </trkpt>
      <trkpt lat="49.42404" lon="-1.79726">
        <ele>51.3</ele>
        <time>2020-06-14T16:46:04Z</time>
      </trkpt>
      <trkpt lat="49.42409" lon="-1.7973">
        <ele>51.3</ele>
        <time>2020-06-14T16:46:05Z</time>
      </trkpt>
      <trkpt lat="49.42413" lon="-1.79733">
        <ele>51.2</ele>
        <time>2020-06-14T16:46:06Z</time>
      </trkpt>
      <trkpt lat="49.42417" lon="-1.79736">
        <ele>51.2</ele>
        <time>2020-06-14T16:46:07Z</time>
      </trkpt>
      <trkpt lat="49.42421" lon="-1.79739">
        <ele>51.1</ele>
        <time>2020-06-14T16:46:08Z</time>
      </trkpt>
      <trkpt lat="49.42425" lon="-1.79743">
        <ele>51.1</ele>
        <time>2020-06-14T16:46:09Z</time>
      </trkpt>
      <trkpt lat="49.42428" lon="-1.79749">
        <ele>51</ele>
        <time>2020-06-14T16:46:10Z</time>
      </trkpt>
      <trkpt lat="49.42432" lon="-1.79753">
        <ele>50.9</ele>
        <time>2020-06-14T16:46:11Z</time>
      </trkpt>
      <trkpt lat="49.42435" lon="-1.79759">
        <ele>50.7</ele>
        <time>2020-06-14T16:46:12Z</time>
      </trkpt>
      <trkpt lat="49.42438" lon="-1.79764">
        <ele>50.6</ele>
        <time>2020-06-14T16:46:13Z</time>
      </trkpt>
      <trkpt lat="49.42441" lon="-1.79769">
        <ele>50.5</ele>
        <time>2020-06-14T16:46:14Z</time>
      </trkpt>
      <trkpt lat="49.42444" lon="-1.79775">
        <ele>50.4</ele>
        <time>2020-06-14T16:46:15Z</time>
      </trkpt>
      <trkpt lat="49.42447" lon="-1.79781">
        <ele>50.3</ele>
        <time>2020-06-14T16:46:16Z</time>
      </trkpt>
      <trkpt lat="49.42451" lon="-1.79787">
        <ele>50.2</ele>
        <time>2020-06-14T16:46:17Z</time>
      </trkpt>
      <trkpt lat="49.42454" lon="-1.79794">
        <ele>50.1</ele>
        <time>2020-06-14T16:46:18Z</time>
      </trkpt>
      <trkpt lat="49.42458" lon="-1.798">
        <ele>50.1</ele>
        <time>2020-06-14T16:46:19Z</time>
      </trkpt>
      <trkpt lat="49.42461" lon="-1.79807">
        <ele>50.1</ele>
        <time>2020-06-14T16:46:20Z</time>
      </trkpt>
      <trkpt lat="49.42465" lon="-1.79814">
        <ele>50</ele>
        <time>2020-06-14T16:46:21Z</time>
      </trkpt>
      <trkpt lat="49.42468" lon="-1.79821">
        <ele>50</ele>
        <time>2020-06-14T16:46:22Z</time>
      </trkpt>
      <trkpt lat="49.42471" lon="-1.79829">
        <ele>50</ele>
        <time>2020-06-14T16:46:23Z</time>
      </trkpt>
      <trkpt lat="49.42475" lon="-1.79836">
        <ele>50</ele>
        <time>2020-06-14T16:46:24Z</time>
      </trkpt>
      <trkpt lat="49.42478" lon="-1.79843">
        <ele>50</ele>
        <time>2020-06-14T16:46:25Z</time>
      </trkpt>
      <trkpt lat="49.42481" lon="-1.7985">
        <ele>50</ele>
        <time>2020-06-14T16:46:26Z</time>
      </trkpt>
      <trkpt lat="49.42484" lon="-1.79857">
        <ele>50</ele>
        <time>2020-06-14T16:46:27Z</time>
      </trkpt>
      <trkpt lat="49.42489" lon="-1.79863">
        <ele>50.1</ele>
        <time>2020-06-14T16:46:28Z</time>
      </trkpt>
      <trkpt lat="49.42492" lon="-1.7987">
        <ele>50.2</ele>
        <time>2020-06-14T16:46:29Z</time>
      </trkpt>
      <trkpt lat="49.42495" lon="-1.79877">
        <ele>50.3</ele>
        <time>2020-06-14T16:46:30Z</time>
      </trkpt>
      <trkpt lat="49.42499" lon="-1.79884">
        <ele>50.3</ele>
        <time>2020-06-14T16:46:31Z</time>
      </trkpt>
      <trkpt lat="49.42502" lon="-1.7989">
        <ele>50.4</ele>
        <time>2020-06-14T16:46:32Z</time>
      </trkpt>
      <trkpt lat="49.42506" lon="-1.79896">
        <ele>50.5</ele>
        <time>2020-06-14T16:46:33Z</time>
      </trkpt>
      <trkpt lat="49.42509" lon="-1.79902">
        <ele>50.6</ele>
        <time>2020-06-14T16:46:34Z</time>
      </trkpt>
      <trkpt lat="49.42513" lon="-1.79907">
        <ele>50.7</ele>
        <time>2020-06-14T16:46:35Z</time>
      </trkpt>
      <trkpt lat="49.42515" lon="-1.79913">
        <ele>50.8</ele>
        <time>2020-06-14T16:46:36Z</time>
      </trkpt>
      <trkpt lat="49.42518" lon="-1.79919">
        <ele>50.9</ele>
        <time>2020-06-14T16:46:37Z</time>
      </trkpt>
      <trkpt lat="49.42521" lon="-1.79924">
        <ele>50.9</ele>
        <time>2020-06-14T16:46:38Z</time>
      </trkpt>
      <trkpt lat="49.42523" lon="-1.7993">
        <ele>51</ele>
        <time>2020-06-14T16:46:39Z</time>
      </trkpt>
      <trkpt lat="49.42526" lon="-1.79936">
        <ele>51.1</ele>
        <time>2020-06-14T16:46:40Z</time>
      </trkpt>
      <trkpt lat="49.42528" lon="-1.79943">
        <ele>51.2</ele>
        <time>2020-06-14T16:46:41Z</time>
      </trkpt>
      <trkpt lat="49.4253" lon="-1.7995">
        <ele>51.2</ele>
        <time>2020-06-14T16:46:42Z</time>
      </trkpt>
      <trkpt lat="49.42533" lon="-1.79957">
        <ele>51.3</ele>
        <time>2020-06-14T16:46:43Z</time>
      </trkpt>
      <trkpt lat="49.42535" lon="-1.79964">
        <ele>51.3</ele>
        <time>2020-06-14T16:46:44Z</time>
      </trkpt>
      <trkpt lat="49.42539" lon="-1.7997">
        <ele>51.3</ele>
        <time>2020-06-14T16:46:45Z</time>
      </trkpt>
      <trkpt lat="49.42542" lon="-1.79975">
        <ele>51.4</ele>
        <time>2020-06-14T16:46:46Z</time>
      </trkpt>
      <trkpt lat="49.42548" lon="-1.79976">
        <ele>51.4</ele>
        <time>2020-06-14T16:46:47Z</time>
      </trkpt>
      <trkpt lat="49.42553" lon="-1.79977">
        <ele>51.5</ele>
        <time>2020-06-14T16:46:48Z</time>
      </trkpt>
      <trkpt lat="49.42559" lon="-1.79978">
        <ele>51.5</ele>
        <time>2020-06-14T16:46:49Z</time>
      </trkpt>
      <trkpt lat="49.42564" lon="-1.7998">
        <ele>51.6</ele>
        <time>2020-06-14T16:46:50Z</time>
      </trkpt>
      <trkpt lat="49.42569" lon="-1.7998">
        <ele>51.6</ele>
        <time>2020-06-14T16:46:51Z</time>
      </trkpt>
      <trkpt lat="49.42574" lon="-1.7998">
        <ele>51.6</ele>
        <time>2020-06-14T16:46:52Z</time>
      </trkpt>
      <trkpt lat="49.42579" lon="-1.79981">
        <ele>51.5</ele>
        <time>2020-06-14T16:46:53Z</time>
      </trkpt>
      <trkpt lat="49.42583" lon="-1.79982">
        <ele>51.5</ele>
        <time>2020-06-14T16:46:54Z</time>
      </trkpt>
      <trkpt lat="49.42588" lon="-1.79981">
        <ele>51.4</ele>
        <time>2020-06-14T16:46:55Z</time>
      </trkpt>
      <trkpt lat="49.42592" lon="-1.79981">
        <ele>51.3</ele>
        <time>2020-06-14T16:46:56Z</time>
      </trkpt>
      <trkpt lat="49.42597" lon="-1.79983">
        <ele>51.1</ele>
        <time>2020-06-14T16:46:57Z</time>
      </trkpt>
      <trkpt lat="49.42602" lon="-1.79982">
        <ele>51</ele>
        <time>2020-06-14T16:46:58Z</time>
      </trkpt>
      <trkpt lat="49.42607" lon="-1.79984">
        <ele>50.8</ele>
        <time>2020-06-14T16:46:59Z</time>
      </trkpt>
      <trkpt lat="49.42612" lon="-1.79986">
        <ele>50.6</ele>
        <time>2020-06-14T16:47:00Z</time>
      </trkpt>
      <trkpt lat="49.42617" lon="-1.79988">
        <ele>50.3</ele>
        <time>2020-06-14T16:47:01Z</time>
      </trkpt>
      <trkpt lat="49.42623" lon="-1.7999">
        <ele>50</ele>
        <time>2020-06-14T16:47:02Z</time>
      </trkpt>
      <trkpt lat="49.42629" lon="-1.79993">
        <ele>49.7</ele>
        <time>2020-06-14T16:47:03Z</time>
      </trkpt>
      <trkpt lat="49.42635" lon="-1.79996">
        <ele>49.4</ele>
        <time>2020-06-14T16:47:04Z</time>
      </trkpt>
      <trkpt lat="49.42642" lon="-1.79999">
        <ele>49.1</ele>
        <time>2020-06-14T16:47:05Z</time>
      </trkpt>
      <trkpt lat="49.42648" lon="-1.80003">
        <ele>48.7</ele>
        <time>2020-06-14T16:47:06Z</time>
      </trkpt>
      <trkpt lat="49.42654" lon="-1.80006">
        <ele>48.3</ele>
        <time>2020-06-14T16:47:07Z</time>
      </trkpt>
      <trkpt lat="49.42661" lon="-1.80009">
        <ele>47.9</ele>
        <time>2020-06-14T16:47:08Z</time>
      </trkpt>
      <trkpt lat="49.42668" lon="-1.80013">
        <ele>47.4</ele>
        <time>2020-06-14T16:47:09Z</time>
      </trkpt>
      <trkpt lat="49.42675" lon="-1.80018">
        <ele>46.9</ele>
        <time>2020-06-14T16:47:10Z</time>
      </trkpt>
      <trkpt lat="49.42682" lon="-1.80021">
        <ele>46.4</ele>
        <time>2020-06-14T16:47:11Z</time>
      </trkpt>
      <trkpt lat="49.4269" lon="-1.80026">
        <ele>45.9</ele>
        <time>2020-06-14T16:47:12Z</time>
      </trkpt>
      <trkpt lat="49.42697" lon="-1.80031">
        <ele>45.3</ele>
        <time>2020-06-14T16:47:13Z</time>
      </trkpt>
      <trkpt lat="49.42705" lon="-1.80035">
        <ele>44.7</ele>
        <time>2020-06-14T16:47:14Z</time>
      </trkpt>
      <trkpt lat="49.42713" lon="-1.8004">
        <ele>44.2</ele>
        <time>2020-06-14T16:47:15Z</time>
      </trkpt>
      <trkpt lat="49.42721" lon="-1.80044">
        <ele>43.7</ele>
        <time>2020-06-14T16:47:16Z</time>
      </trkpt>
      <trkpt lat="49.4273" lon="-1.80048">
        <ele>43.2</ele>
        <time>2020-06-14T16:47:17Z</time>
      </trkpt>
      <trkpt lat="49.42739" lon="-1.80053">
        <ele>42.7</ele>
        <time>2020-06-14T16:47:18Z</time>
      </trkpt>
      <trkpt lat="49.42747" lon="-1.80057">
        <ele>42.4</ele>
        <time>2020-06-14T16:47:19Z</time>
      </trkpt>
      <trkpt lat="49.42755" lon="-1.80062">
        <ele>42</ele>
        <time>2020-06-14T16:47:20Z</time>
      </trkpt>
      <trkpt lat="49.42764" lon="-1.80066">
        <ele>41.7</ele>
        <time>2020-06-14T16:47:21Z</time>
      </trkpt>
      <trkpt lat="49.42772" lon="-1.8007">
        <ele>41.3</ele>
        <time>2020-06-14T16:47:22Z</time>
      </trkpt>
      <trkpt lat="49.4278" lon="-1.80075">
        <ele>41</ele>
        <time>2020-06-14T16:47:23Z</time>
      </trkpt>
      <trkpt lat="49.42788" lon="-1.80079">
        <ele>40.7</ele>
        <time>2020-06-14T16:47:24Z</time>
      </trkpt>
      <trkpt lat="49.42796" lon="-1.80083">
        <ele>40.3</ele>
        <time>2020-06-14T16:47:25Z</time>
      </trkpt>
      <trkpt lat="49.42804" lon="-1.80089">
        <ele>39.9</ele>
        <time>2020-06-14T16:47:26Z</time>
      </trkpt>
      <trkpt lat="49.42812" lon="-1.80094">
        <ele>39.7</ele>
        <time>2020-06-14T16:47:27Z</time>
      </trkpt>
      <trkpt lat="49.4282" lon="-1.801">
        <ele>39.4</ele>
        <time>2020-06-14T16:47:28Z</time>
      </trkpt>
      <trkpt lat="49.42827" lon="-1.80107">
        <ele>39</ele>
        <time>2020-06-14T16:47:29Z</time>
      </trkpt>
      <trkpt lat="49.42834" lon="-1.80114">
        <ele>38.7</ele>
        <time>2020-06-14T16:47:30Z</time>
      </trkpt>
      <trkpt lat="49.42841" lon="-1.80121">
        <ele>38.4</ele>
        <time>2020-06-14T16:47:31Z</time>
      </trkpt>
      <trkpt lat="49.42847" lon="-1.80127">
        <ele>38.2</ele>
        <time>2020-06-14T16:47:32Z</time>
      </trkpt>
      <trkpt lat="49.42852" lon="-1.80133">
        <ele>38</ele>
        <time>2020-06-14T16:47:33Z</time>
      </trkpt>
      <trkpt lat="49.42858" lon="-1.80137">
        <ele>37.8</ele>
        <time>2020-06-14T16:47:34Z</time>
      </trkpt>
      <trkpt lat="49.42863" lon="-1.80142">
        <ele>37.6</ele>
        <time>2020-06-14T16:47:35Z</time>
      </trkpt>
      <trkpt lat="49.42869" lon="-1.80147">
        <ele>37.4</ele>
        <time>2020-06-14T16:47:36Z</time>
      </trkpt>
      <trkpt lat="49.42874" lon="-1.80153">
        <ele>37.3</ele>
        <time>2020-06-14T16:47:37Z</time>
      </trkpt>
      <trkpt lat="49.42879" lon="-1.8016">
        <ele>36.9</ele>
        <time>2020-06-14T16:47:38Z</time>
      </trkpt>
      <trkpt lat="49.42884" lon="-1.80167">
        <ele>36.6</ele>
        <time>2020-06-14T16:47:39Z</time>
      </trkpt>
      <trkpt lat="49.42889" lon="-1.80175">
        <ele>36.2</ele>
        <time>2020-06-14T16:47:40Z</time>
      </trkpt>
      <trkpt lat="49.42893" lon="-1.80184">
        <ele>35.9</ele>
        <time>2020-06-14T16:47:41Z</time>
      </trkpt>
      <trkpt lat="49.42897" lon="-1.80193">
        <ele>35.5</ele>
        <time>2020-06-14T16:47:42Z</time>
      </trkpt>
      <trkpt lat="49.42902" lon="-1.80203">
        <ele>35.1</ele>
        <time>2020-06-14T16:47:43Z</time>
      </trkpt>
      <trkpt lat="49.42906" lon="-1.80212">
        <ele>34.8</ele>
        <time>2020-06-14T16:47:44Z</time>
      </trkpt>
      <trkpt lat="49.4291" lon="-1.80222">
        <ele>34.5</ele>
        <time>2020-06-14T16:47:45Z</time>
      </trkpt>
      <trkpt lat="49.42914" lon="-1.80231">
        <ele>34.2</ele>
        <time>2020-06-14T16:47:46Z</time>
      </trkpt>
      <trkpt lat="49.42918" lon="-1.8024">
        <ele>34</ele>
        <time>2020-06-14T16:47:47Z</time>
      </trkpt>
      <trkpt lat="49.42922" lon="-1.80249">
        <ele>33.8</ele>
        <time>2020-06-14T16:47:48Z</time>
      </trkpt>
      <trkpt lat="49.42926" lon="-1.80258">
        <ele>33.5</ele>
        <time>2020-06-14T16:47:49Z</time>
      </trkpt>
      <trkpt lat="49.4293" lon="-1.80267">
        <ele>33.4</ele>
        <time>2020-06-14T16:47:50Z</time>
      </trkpt>
      <trkpt lat="49.42934" lon="-1.80276">
        <ele>33.3</ele>
        <time>2020-06-14T16:47:51Z</time>
      </trkpt>
      <trkpt lat="49.42939" lon="-1.80284">
        <ele>33.2</ele>
        <time>2020-06-14T16:47:52Z</time>
      </trkpt>
      <trkpt lat="49.42944" lon="-1.8029">
        <ele>33</ele>
        <time>2020-06-14T16:47:53Z</time>
      </trkpt>
      <trkpt lat="49.42949" lon="-1.80297">
        <ele>32.9</ele>
        <time>2020-06-14T16:47:54Z</time>
      </trkpt>
      <trkpt lat="49.42953" lon="-1.80305">
        <ele>32.7</ele>
        <time>2020-06-14T16:47:55Z</time>
      </trkpt>
      <trkpt lat="49.42956" lon="-1.80313">
        <ele>32.6</ele>
        <time>2020-06-14T16:47:56Z</time>
      </trkpt>
      <trkpt lat="49.4296" lon="-1.8032">
        <ele>32.5</ele>
        <time>2020-06-14T16:47:57Z</time>
      </trkpt>
      <trkpt lat="49.42963" lon="-1.80328">
        <ele>32.3</ele>
        <time>2020-06-14T16:47:58Z</time>
      </trkpt>
      <trkpt lat="49.42966" lon="-1.80336">
        <ele>32.2</ele>
        <time>2020-06-14T16:47:59Z</time>
      </trkpt>
      <trkpt lat="49.42968" lon="-1.80343">
        <ele>32.1</ele>
        <time>2020-06-14T16:48:00Z</time>
      </trkpt>
      <trkpt lat="49.4297" lon="-1.80351">
        <ele>32</ele>
        <time>2020-06-14T16:48:01Z</time>
      </trkpt>
      <trkpt lat="49.42971" lon="-1.80359">
        <ele>31.9</ele>
        <time>2020-06-14T16:48:02Z</time>
      </trkpt>
      <trkpt lat="49.42972" lon="-1.80367">
        <ele>31.7</ele>
        <time>2020-06-14T16:48:03Z</time>
      </trkpt>
      <trkpt lat="49.42973" lon="-1.80375">
        <ele>31.6</ele>
        <time>2020-06-14T16:48:04Z</time>
      </trkpt>
      <trkpt lat="49.42975" lon="-1.80382">
        <ele>31.4</ele>
        <time>2020-06-14T16:48:05Z</time>
      </trkpt>
      <trkpt lat="49.42976" lon="-1.8039">
        <ele>31.2</ele>
        <time>2020-06-14T16:48:06Z</time>
      </trkpt>
      <trkpt lat="49.42976" lon="-1.80399">
        <ele>31</ele>
        <time>2020-06-14T16:48:07Z</time>
      </trkpt>
      <trkpt lat="49.42977" lon="-1.80407">
        <ele>30.7</ele>
        <time>2020-06-14T16:48:08Z</time>
      </trkpt>
      <trkpt lat="49.42978" lon="-1.80416">
        <ele>30.4</ele>
        <time>2020-06-14T16:48:09Z</time>
      </trkpt>
      <trkpt lat="49.42978" lon="-1.80425">
        <ele>30.2</ele>
        <time>2020-06-14T16:48:10Z</time>
      </trkpt>
      <trkpt lat="49.42979" lon="-1.80433">
        <ele>29.9</ele>
        <time>2020-06-14T16:48:11Z</time>
      </trkpt>
      <trkpt lat="49.42979" lon="-1.80441">
        <ele>29.7</ele>
        <time>2020-06-14T16:48:12Z</time>
      </trkpt>
      <trkpt lat="49.42978" lon="-1.80449">
        <ele>29.5</ele>
        <time>2020-06-14T16:48:13Z</time>
      </trkpt>
      <trkpt lat="49.42978" lon="-1.80456">
        <ele>29.3</ele>
        <time>2020-06-14T16:48:14Z</time>
      </trkpt>
      <trkpt lat="49.42981" lon="-1.80461">
        <ele>28.6</ele>
        <time>2020-06-14T16:48:15Z</time>
      </trkpt>
      <trkpt lat="49.42982" lon="-1.80466">
        <ele>28.5</ele>
        <time>2020-06-14T16:48:16Z</time>
      </trkpt>
      <trkpt lat="49.42985" lon="-1.80468">
        <ele>28.3</ele>
        <time>2020-06-14T16:48:17Z</time>
      </trkpt>
      <trkpt lat="49.42989" lon="-1.80467">
        <ele>28.1</ele>
        <time>2020-06-14T16:48:18Z</time>
      </trkpt>
      <trkpt lat="49.42994" lon="-1.80467">
        <ele>27.8</ele>
        <time>2020-06-14T16:48:19Z</time>
      </trkpt>
      <trkpt lat="49.42999" lon="-1.80466">
        <ele>27.5</ele>
        <time>2020-06-14T16:48:20Z</time>
      </trkpt>
      <trkpt lat="49.43004" lon="-1.80467">
        <ele>27.1</ele>
        <time>2020-06-14T16:48:21Z</time>
      </trkpt>
      <trkpt lat="49.43009" lon="-1.80467">
        <ele>26.8</ele>
        <time>2020-06-14T16:48:22Z</time>
      </trkpt>
      <trkpt lat="49.43014" lon="-1.80467">
        <ele>26.4</ele>
        <time>2020-06-14T16:48:23Z</time>
      </trkpt>
      <trkpt lat="49.4302" lon="-1.80468">
        <ele>26</ele>
        <time>2020-06-14T16:48:24Z</time>
      </trkpt>
      <trkpt lat="49.43026" lon="-1.80469">
        <ele>25.6</ele>
        <time>2020-06-14T16:48:25Z</time>
      </trkpt>
      <trkpt lat="49.43032" lon="-1.80468">
        <ele>25.2</ele>
        <time>2020-06-14T16:48:26Z</time>
      </trkpt>
      <trkpt lat="49.43038" lon="-1.80467">
        <ele>24.8</ele>
        <time>2020-06-14T16:48:27Z</time>
      </trkpt>
      <trkpt lat="49.43045" lon="-1.80468">
        <ele>24.4</ele>
        <time>2020-06-14T16:48:28Z</time>
      </trkpt>
      <trkpt lat="49.43052" lon="-1.80469">
        <ele>23.9</ele>
        <time>2020-06-14T16:48:29Z</time>
      </trkpt>
      <trkpt lat="49.43059" lon="-1.80468">
        <ele>23.4</ele>
        <time>2020-06-14T16:48:30Z</time>
      </trkpt>
      <trkpt lat="49.43066" lon="-1.80469">
        <ele>22.7</ele>
        <time>2020-06-14T16:48:31Z</time>
      </trkpt>
      <trkpt lat="49.43074" lon="-1.80467">
        <ele>22.1</ele>
        <time>2020-06-14T16:48:32Z</time>
      </trkpt>
      <trkpt lat="49.43082" lon="-1.80468">
        <ele>21.4</ele>
        <time>2020-06-14T16:48:33Z</time>
      </trkpt>
      <trkpt lat="49.43091" lon="-1.80469">
        <ele>20.7</ele>
        <time>2020-06-14T16:48:34Z</time>
      </trkpt>
      <trkpt lat="49.431" lon="-1.80469">
        <ele>20</ele>
        <time>2020-06-14T16:48:35Z</time>
      </trkpt>
      <trkpt lat="49.43109" lon="-1.80468">
        <ele>19.4</ele>
        <time>2020-06-14T16:48:36Z</time>
      </trkpt>
      <trkpt lat="49.43118" lon="-1.80468">
        <ele>18.7</ele>
        <time>2020-06-14T16:48:37Z</time>
      </trkpt>
      <trkpt lat="49.43128" lon="-1.80468">
        <ele>18</ele>
        <time>2020-06-14T16:48:38Z</time>
      </trkpt>
      <trkpt lat="49.43138" lon="-1.80468">
        <ele>17.5</ele>
        <time>2020-06-14T16:48:39Z</time>
      </trkpt>
      <trkpt lat="49.43147" lon="-1.80469">
        <ele>17</ele>
        <time>2020-06-14T16:48:40Z</time>
      </trkpt>
      <trkpt lat="49.43157" lon="-1.80469">
        <ele>16.7</ele>
        <time>2020-06-14T16:48:41Z</time>
      </trkpt>
      <trkpt lat="49.43166" lon="-1.8047">
        <ele>16.4</ele>
        <time>2020-06-14T16:48:42Z</time>
      </trkpt>
      <trkpt lat="49.43176" lon="-1.8047">
        <ele>16.1</ele>
        <time>2020-06-14T16:48:43Z</time>
      </trkpt>
      <trkpt lat="49.43184" lon="-1.80471">
        <ele>16</ele>
        <time>2020-06-14T16:48:44Z</time>
      </trkpt>
      <trkpt lat="49.43193" lon="-1.80472">
        <ele>15.8</ele>
        <time>2020-06-14T16:48:45Z</time>
      </trkpt>
      <trkpt lat="49.43202" lon="-1.80471">
        <ele>15.7</ele>
        <time>2020-06-14T16:48:46Z</time>
      </trkpt>
      <trkpt lat="49.4321" lon="-1.80471">
        <ele>15.6</ele>
        <time>2020-06-14T16:48:47Z</time>
      </trkpt>
      <trkpt lat="49.43218" lon="-1.8047">
        <ele>15.5</ele>
        <time>2020-06-14T16:48:48Z</time>
      </trkpt>
      <trkpt lat="49.43226" lon="-1.8047">
        <ele>15.4</ele>
        <time>2020-06-14T16:48:49Z</time>
      </trkpt>
      <trkpt lat="49.43234" lon="-1.8047">
        <ele>15.4</ele>
        <time>2020-06-14T16:48:50Z</time>
      </trkpt>
      <trkpt lat="49.43242" lon="-1.8047">
        <ele>15.3</ele>
        <time>2020-06-14T16:48:51Z</time>
      </trkpt>
      <trkpt lat="49.4325" lon="-1.8047">
        <ele>15.3</ele>
        <time>2020-06-14T16:48:52Z</time>
      </trkpt>
      <trkpt lat="49.43258" lon="-1.80469">
        <ele>15.2</ele>
        <time>2020-06-14T16:48:53Z</time>
      </trkpt>
      <trkpt lat="49.43266" lon="-1.80468">
        <ele>15.1</ele>
        <time>2020-06-14T16:48:54Z</time>
      </trkpt>
      <trkpt lat="49.43273" lon="-1.80467">
        <ele>15</ele>
        <time>2020-06-14T16:48:55Z</time>
      </trkpt>
      <trkpt lat="49.43281" lon="-1.80466">
        <ele>15</ele>
        <time>2020-06-14T16:48:56Z</time>
      </trkpt>
      <trkpt lat="49.43289" lon="-1.80465">
        <ele>15</ele>
        <time>2020-06-14T16:48:57Z</time>
      </trkpt>
      <trkpt lat="49.43296" lon="-1.80464">
        <ele>15</ele>
        <time>2020-06-14T16:48:58Z</time>
      </trkpt>
      <trkpt lat="49.43304" lon="-1.80463">
        <ele>14.9</ele>
        <time>2020-06-14T16:48:59Z</time>
      </trkpt>
      <trkpt lat="49.43311" lon="-1.8046">
        <ele>14.9</ele>
        <time>2020-06-14T16:49:00Z</time>
      </trkpt>
      <trkpt lat="49.43318" lon="-1.80459">
        <ele>14.8</ele>
        <time>2020-06-14T16:49:01Z</time>
      </trkpt>
      <trkpt lat="49.43325" lon="-1.80458">
        <ele>14.8</ele>
        <time>2020-06-14T16:49:02Z</time>
      </trkpt>
      <trkpt lat="49.43332" lon="-1.80457">
        <ele>14.7</ele>
        <time>2020-06-14T16:49:03Z</time>
      </trkpt>
      <trkpt lat="49.43339" lon="-1.80456">
        <ele>14.7</ele>
        <time>2020-06-14T16:49:04Z</time>
      </trkpt>
      <trkpt lat="49.43346" lon="-1.80454">
        <ele>14.6</ele>
        <time>2020-06-14T16:49:05Z</time>
      </trkpt>
      <trkpt lat="49.43352" lon="-1.80453">
        <ele>14.6</ele>
        <time>2020-06-14T16:49:06Z</time>
      </trkpt>
      <trkpt lat="49.43359" lon="-1.80452">
        <ele>14.5</ele>
        <time>2020-06-14T16:49:07Z</time>
      </trkpt>
      <trkpt lat="49.43366" lon="-1.8045">
        <ele>14.4</ele>
        <time>2020-06-14T16:49:08Z</time>
      </trkpt>
      <trkpt lat="49.43373" lon="-1.8045">
        <ele>14.3</ele>
        <time>2020-06-14T16:49:09Z</time>
      </trkpt>
      <trkpt lat="49.43379" lon="-1.8045">
        <ele>14.3</ele>
        <time>2020-06-14T16:49:10Z</time>
      </trkpt>
      <trkpt lat="49.43386" lon="-1.80449">
        <ele>14.2</ele>
        <time>2020-06-14T16:49:11Z</time>
      </trkpt>
      <trkpt lat="49.43392" lon="-1.80447">
        <ele>14.2</ele>
        <time>2020-06-14T16:49:12Z</time>
      </trkpt>
      <trkpt lat="49.43399" lon="-1.80447">
        <ele>14.2</ele>
        <time>2020-06-14T16:49:13Z</time>
      </trkpt>
      <trkpt lat="49.43405" lon="-1.80446">
        <ele>14.2</ele>
        <time>2020-06-14T16:49:14Z</time>
      </trkpt>
      <trkpt lat="49.43412" lon="-1.80445">
        <ele>14.2</ele>
        <time>2020-06-14T16:49:15Z</time>
      </trkpt>
      <trkpt lat="49.43419" lon="-1.80444">
        <ele>14.2</ele>
        <time>2020-06-14T16:49:16Z</time>
      </trkpt>
      <trkpt lat="49.43426" lon="-1.80443">
        <ele>14.1</ele>
        <time>2020-06-14T16:49:17Z</time>
      </trkpt>
      <trkpt lat="49.43432" lon="-1.80441">
        <ele>14.1</ele>
        <time>2020-06-14T16:49:18Z</time>
      </trkpt>
      <trkpt lat="49.43439" lon="-1.80441">
        <ele>14.2</ele>
        <time>2020-06-14T16:49:19Z</time>
      </trkpt>
      <trkpt lat="49.43446" lon="-1.8044">
        <ele>14.2</ele>
        <time>2020-06-14T16:49:20Z</time>
      </trkpt>
      <trkpt lat="49.43452" lon="-1.80439">
        <ele>14.2</ele>
        <time>2020-06-14T16:49:21Z</time>
      </trkpt>
      <trkpt lat="49.43459" lon="-1.8044">
        <ele>14.3</ele>
        <time>2020-06-14T16:49:22Z</time>
      </trkpt>
      <trkpt lat="49.43465" lon="-1.80439">
        <ele>14.3</ele>
        <time>2020-06-14T16:49:23Z</time>
      </trkpt>
      <trkpt lat="49.43471" lon="-1.80439">
        <ele>14.4</ele>
        <time>2020-06-14T16:49:24Z</time>
      </trkpt>
      <trkpt lat="49.43477" lon="-1.80437">
        <ele>14.4</ele>
        <time>2020-06-14T16:49:25Z</time>
      </trkpt>
      <trkpt lat="49.43483" lon="-1.80437">
        <ele>14.5</ele>
        <time>2020-06-14T16:49:26Z</time>
      </trkpt>
      <trkpt lat="49.43488" lon="-1.80437">
        <ele>14.6</ele>
        <time>2020-06-14T16:49:27Z</time>
      </trkpt>
      <trkpt lat="49.43494" lon="-1.80437">
        <ele>14.6</ele>
        <time>2020-06-14T16:49:28Z</time>
      </trkpt>
      <trkpt lat="49.435" lon="-1.80436">
        <ele>14.7</ele>
        <time>2020-06-14T16:49:29Z</time>
      </trkpt>
      <trkpt lat="49.43505" lon="-1.80435">
        <ele>14.7</ele>
        <time>2020-06-14T16:49:30Z</time>
      </trkpt>
      <trkpt lat="49.4351" lon="-1.80435">
        <ele>14.8</ele>
        <time>2020-06-14T16:49:31Z</time>
      </trkpt>
      <trkpt lat="49.43515" lon="-1.80433">
        <ele>14.8</ele>
        <time>2020-06-14T16:49:32Z</time>
      </trkpt>
      <trkpt lat="49.4352" lon="-1.80432">
        <ele>14.9</ele>
        <time>2020-06-14T16:49:33Z</time>
      </trkpt>
      <trkpt lat="49.43525" lon="-1.80432">
        <ele>15</ele>
        <time>2020-06-14T16:49:34Z</time>
      </trkpt>
      <trkpt lat="49.43529" lon="-1.80431">
        <ele>15.1</ele>
        <time>2020-06-14T16:49:35Z</time>
      </trkpt>
      <trkpt lat="49.43533" lon="-1.80431">
        <ele>15.1</ele>
        <time>2020-06-14T16:49:36Z</time>
      </trkpt>
      <trkpt lat="49.43537" lon="-1.80434">
        <ele>15.2</ele>
        <time>2020-06-14T16:49:37Z</time>
      </trkpt>
      <trkpt lat="49.43538" lon="-1.80438">
        <ele>15.2</ele>
        <time>2020-06-14T16:49:38Z</time>
      </trkpt>
      <trkpt lat="49.43536" lon="-1.80445">
        <ele>15</ele>
        <time>2020-06-14T16:49:39Z</time>
      </trkpt>
      <trkpt lat="49.43535" lon="-1.80452">
        <ele>15</ele>
        <time>2020-06-14T16:49:40Z</time>
      </trkpt>
      <trkpt lat="49.43534" lon="-1.80459">
        <ele>14.9</ele>
        <time>2020-06-14T16:49:41Z</time>
      </trkpt>
      <trkpt lat="49.43534" lon="-1.80467">
        <ele>14.8</ele>
        <time>2020-06-14T16:49:42Z</time>
      </trkpt>
      <trkpt lat="49.43534" lon="-1.80475">
        <ele>14.8</ele>
        <time>2020-06-14T16:49:43Z</time>
      </trkpt>
      <trkpt lat="49.43534" lon="-1.80483">
        <ele>14.7</ele>
        <time>2020-06-14T16:49:44Z</time>
      </trkpt>
      <trkpt lat="49.43534" lon="-1.80491">
        <ele>14.7</ele>
        <time>2020-06-14T16:49:45Z</time>
      </trkpt>
      <trkpt lat="49.43534" lon="-1.80498">
        <ele>14.7</ele>
        <time>2020-06-14T16:49:46Z</time>
      </trkpt>
      <trkpt lat="49.43535" lon="-1.80505">
        <ele>14.7</ele>
        <time>2020-06-14T16:49:47Z</time>
      </trkpt>
      <trkpt lat="49.43535" lon="-1.80512">
        <ele>14.7</ele>
        <time>2020-06-14T16:49:48Z</time>
      </trkpt>
      <trkpt lat="49.43539" lon="-1.80514">
        <ele>14.7</ele>
        <time>2020-06-14T16:49:49Z</time>
      </trkpt>
      <trkpt lat="49.43544" lon="-1.80516">
        <ele>14.6</ele>
        <time>2020-06-14T16:49:50Z</time>
      </trkpt>
      <trkpt lat="49.43549" lon="-1.80516">
        <ele>14.6</ele>
        <time>2020-06-14T16:49:51Z</time>
      </trkpt>
      <trkpt lat="49.43554" lon="-1.80518">
        <ele>14.6</ele>
        <time>2020-06-14T16:49:52Z</time>
      </trkpt>
      <trkpt lat="49.43559" lon="-1.80518">
        <ele>14.5</ele>
        <time>2020-06-14T16:49:53Z</time>
      </trkpt>
      <trkpt lat="49.43565" lon="-1.80519">
        <ele>14.5</ele>
        <time>2020-06-14T16:49:54Z</time>
      </trkpt>
      <trkpt lat="49.4357" lon="-1.80519">
        <ele>14.4</ele>
        <time>2020-06-14T16:49:55Z</time>
      </trkpt>
      <trkpt lat="49.43575" lon="-1.80518">
        <ele>14.3</ele>
        <time>2020-06-14T16:49:56Z</time>
      </trkpt>
      <trkpt lat="49.43581" lon="-1.80519">
        <ele>14.3</ele>
        <time>2020-06-14T16:49:57Z</time>
      </trkpt>
      <trkpt lat="49.43586" lon="-1.80519">
        <ele>14.2</ele>
        <time>2020-06-14T16:49:58Z</time>
      </trkpt>
      <trkpt lat="49.43592" lon="-1.80521">
        <ele>14.1</ele>
        <time>2020-06-14T16:49:59Z</time>
      </trkpt>
      <trkpt lat="49.43598" lon="-1.80523">
        <ele>14</ele>
        <time>2020-06-14T16:50:00Z</time>
      </trkpt>
      <trkpt lat="49.43603" lon="-1.80525">
        <ele>13.9</ele>
        <time>2020-06-14T16:50:01Z</time>
      </trkpt>
      <trkpt lat="49.43609" lon="-1.80525">
        <ele>13.8</ele>
        <time>2020-06-14T16:50:02Z</time>
      </trkpt>
      <trkpt lat="49.43615" lon="-1.80525">
        <ele>13.8</ele>
        <time>2020-06-14T16:50:03Z</time>
      </trkpt>
      <trkpt lat="49.43621" lon="-1.80526">
        <ele>13.7</ele>
        <time>2020-06-14T16:50:04Z</time>
      </trkpt>
      <trkpt lat="49.43627" lon="-1.80526">
        <ele>13.7</ele>
        <time>2020-06-14T16:50:05Z</time>
      </trkpt>
      <trkpt lat="49.43633" lon="-1.80526">
        <ele>13.6</ele>
        <time>2020-06-14T16:50:06Z</time>
      </trkpt>
      <trkpt lat="49.43639" lon="-1.80527">
        <ele>13.5</ele>
        <time>2020-06-14T16:50:07Z</time>
      </trkpt>
      <trkpt lat="49.43645" lon="-1.80528">
        <ele>13.4</ele>
        <time>2020-06-14T16:50:08Z</time>
      </trkpt>
      <trkpt lat="49.43651" lon="-1.80529">
        <ele>13.4</ele>
        <time>2020-06-14T16:50:09Z</time>
      </trkpt>
      <trkpt lat="49.43656" lon="-1.80531">
        <ele>13.3</ele>
        <time>2020-06-14T16:50:10Z</time>
      </trkpt>
      <trkpt lat="49.43662" lon="-1.80533">
        <ele>13.2</ele>
        <time>2020-06-14T16:50:11Z</time>
      </trkpt>
      <trkpt lat="49.43668" lon="-1.80535">
        <ele>13.1</ele>
        <time>2020-06-14T16:50:12Z</time>
      </trkpt>
      <trkpt lat="49.43673" lon="-1.80537">
        <ele>13.1</ele>
        <time>2020-06-14T16:50:13Z</time>
      </trkpt>
      <trkpt lat="49.43679" lon="-1.80537">
        <ele>13</ele>
        <time>2020-06-14T16:50:14Z</time>
      </trkpt>
      <trkpt lat="49.43685" lon="-1.80537">
        <ele>12.9</ele>
        <time>2020-06-14T16:50:15Z</time>
      </trkpt>
      <trkpt lat="49.43691" lon="-1.80538">
        <ele>12.9</ele>
        <time>2020-06-14T16:50:16Z</time>
      </trkpt>
      <trkpt lat="49.43697" lon="-1.8054">
        <ele>12.8</ele>
        <time>2020-06-14T16:50:17Z</time>
      </trkpt>
      <trkpt lat="49.43703" lon="-1.80543">
        <ele>12.7</ele>
        <time>2020-06-14T16:50:18Z</time>
      </trkpt>
      <trkpt lat="49.43709" lon="-1.80545">
        <ele>12.7</ele>
        <time>2020-06-14T16:50:19Z</time>
      </trkpt>
      <trkpt lat="49.43715" lon="-1.80546">
        <ele>12.6</ele>
        <time>2020-06-14T16:50:20Z</time>
      </trkpt>
      <trkpt lat="49.43721" lon="-1.80548">
        <ele>12.6</ele>
        <time>2020-06-14T16:50:21Z</time>
      </trkpt>
      <trkpt lat="49.43727" lon="-1.8055">
        <ele>12.5</ele>
        <time>2020-06-14T16:50:22Z</time>
      </trkpt>
      <trkpt lat="49.43733" lon="-1.80551">
        <ele>12.4</ele>
        <time>2020-06-14T16:50:23Z</time>
      </trkpt>
      <trkpt lat="49.43739" lon="-1.80552">
        <ele>12.4</ele>
        <time>2020-06-14T16:50:24Z</time>
      </trkpt>
      <trkpt lat="49.43745" lon="-1.80552">
        <ele>12.3</ele>
        <time>2020-06-14T16:50:25Z</time>
      </trkpt>
      <trkpt lat="49.43751" lon="-1.80554">
        <ele>12.3</ele>
        <time>2020-06-14T16:50:26Z</time>
      </trkpt>
      <trkpt lat="49.43756" lon="-1.80555">
        <ele>12.2</ele>
        <time>2020-06-14T16:50:27Z</time>
      </trkpt>
      <trkpt lat="49.43762" lon="-1.80557">
        <ele>12.1</ele>
        <time>2020-06-14T16:50:28Z</time>
      </trkpt>
      <trkpt lat="49.43768" lon="-1.80558">
        <ele>12.1</ele>
        <time>2020-06-14T16:50:29Z</time>
      </trkpt>
      <trkpt lat="49.43774" lon="-1.80559">
        <ele>12</ele>
        <time>2020-06-14T16:50:30Z</time>
      </trkpt>
      <trkpt lat="49.43779" lon="-1.80561">
        <ele>12</ele>
        <time>2020-06-14T16:50:31Z</time>
      </trkpt>
      <trkpt lat="49.43785" lon="-1.8056">
        <ele>11.9</ele>
        <time>2020-06-14T16:50:32Z</time>
      </trkpt>
      <trkpt lat="49.43791" lon="-1.80561">
        <ele>11.9</ele>
        <time>2020-06-14T16:50:33Z</time>
      </trkpt>
      <trkpt lat="49.43796" lon="-1.80563">
        <ele>11.9</ele>
        <time>2020-06-14T16:50:34Z</time>
      </trkpt>
      <trkpt lat="49.43802" lon="-1.80564">
        <ele>11.9</ele>
        <time>2020-06-14T16:50:35Z</time>
      </trkpt>
      <trkpt lat="49.43808" lon="-1.80564">
        <ele>11.9</ele>
        <time>2020-06-14T16:50:36Z</time>
      </trkpt>
      <trkpt lat="49.43814" lon="-1.80565">
        <ele>11.8</ele>
        <time>2020-06-14T16:50:37Z</time>
      </trkpt>
      <trkpt lat="49.4382" lon="-1.80566">
        <ele>11.8</ele>
        <time>2020-06-14T16:50:38Z</time>
      </trkpt>
      <trkpt lat="49.43826" lon="-1.80567">
        <ele>11.8</ele>
        <time>2020-06-14T16:50:39Z</time>
      </trkpt>
      <trkpt lat="49.43832" lon="-1.80568">
        <ele>11.7</ele>
        <time>2020-06-14T16:50:40Z</time>
      </trkpt>
      <trkpt lat="49.43838" lon="-1.80569">
        <ele>11.7</ele>
        <time>2020-06-14T16:50:41Z</time>
      </trkpt>
      <trkpt lat="49.43844" lon="-1.8057">
        <ele>11.7</ele>
        <time>2020-06-14T16:50:42Z</time>
      </trkpt>
      <trkpt lat="49.4385" lon="-1.80569">
        <ele>11.7</ele>
        <time>2020-06-14T16:50:43Z</time>
      </trkpt>
      <trkpt lat="49.43856" lon="-1.80571">
        <ele>11.6</ele>
        <time>2020-06-14T16:50:44Z</time>
      </trkpt>
      <trkpt lat="49.43862" lon="-1.80571">
        <ele>11.6</ele>
        <time>2020-06-14T16:50:45Z</time>
      </trkpt>
      <trkpt lat="49.43868" lon="-1.80571">
        <ele>11.6</ele>
        <time>2020-06-14T16:50:46Z</time>
      </trkpt>
      <trkpt lat="49.43874" lon="-1.80572">
        <ele>11.6</ele>
        <time>2020-06-14T16:50:47Z</time>
      </trkpt>
      <trkpt lat="49.43879" lon="-1.80574">
        <ele>11.6</ele>
        <time>2020-06-14T16:50:48Z</time>
      </trkpt>
      <trkpt lat="49.43885" lon="-1.80576">
        <ele>11.6</ele>
        <time>2020-06-14T16:50:49Z</time>
      </trkpt>
      <trkpt lat="49.43891" lon="-1.80577">
        <ele>11.6</ele>
        <time>2020-06-14T16:50:50Z</time>
      </trkpt>
      <trkpt lat="49.43896" lon="-1.80578">
        <ele>11.6</ele>
        <time>2020-06-14T16:50:51Z</time>
      </trkpt>
      <trkpt lat="49.43902" lon="-1.80579">
        <ele>11.6</ele>
        <time>2020-06-14T16:50:52Z</time>
      </trkpt>
      <trkpt lat="49.43908" lon="-1.80579">
        <ele>11.6</ele>
        <time>2020-06-14T16:50:53Z</time>
      </trkpt>
      <trkpt lat="49.43913" lon="-1.8058">
        <ele>11.6</ele>
        <time>2020-06-14T16:50:54Z</time>
      </trkpt>
      <trkpt lat="49.43919" lon="-1.80579">
        <ele>11.6</ele>
        <time>2020-06-14T16:50:55Z</time>
      </trkpt>
      <trkpt lat="49.43924" lon="-1.80581">
        <ele>11.6</ele>
        <time>2020-06-14T16:50:56Z</time>
      </trkpt>
      <trkpt lat="49.4393" lon="-1.80582">
        <ele>11.6</ele>
        <time>2020-06-14T16:50:57Z</time>
      </trkpt>
      <trkpt lat="49.43936" lon="-1.80584">
        <ele>11.6</ele>
        <time>2020-06-14T16:50:58Z</time>
      </trkpt>
      <trkpt lat="49.43942" lon="-1.80585">
        <ele>11.6</ele>
        <time>2020-06-14T16:50:59Z</time>
      </trkpt>
      <trkpt lat="49.43947" lon="-1.80587">
        <ele>11.6</ele>
        <time>2020-06-14T16:51:00Z</time>
      </trkpt>
      <trkpt lat="49.43953" lon="-1.80588">
        <ele>11.6</ele>
        <time>2020-06-14T16:51:01Z</time>
      </trkpt>
      <trkpt lat="49.43958" lon="-1.8059">
        <ele>11.6</ele>
        <time>2020-06-14T16:51:02Z</time>
      </trkpt>
      <trkpt lat="49.43964" lon="-1.80591">
        <ele>11.7</ele>
        <time>2020-06-14T16:51:03Z</time>
      </trkpt>
      <trkpt lat="49.43969" lon="-1.80592">
        <ele>11.7</ele>
        <time>2020-06-14T16:51:04Z</time>
      </trkpt>
      <trkpt lat="49.43975" lon="-1.80591">
        <ele>11.7</ele>
        <time>2020-06-14T16:51:05Z</time>
      </trkpt>
      <trkpt lat="49.43981" lon="-1.80591">
        <ele>11.7</ele>
        <time>2020-06-14T16:51:06Z</time>
      </trkpt>
      <trkpt lat="49.43986" lon="-1.80591">
        <ele>11.7</ele>
        <time>2020-06-14T16:51:07Z</time>
      </trkpt>
      <trkpt lat="49.43992" lon="-1.80592">
        <ele>11.8</ele>
        <time>2020-06-14T16:51:08Z</time>
      </trkpt>
      <trkpt lat="49.43997" lon="-1.80592">
        <ele>11.8</ele>
        <time>2020-06-14T16:51:09Z</time>
      </trkpt>
      <trkpt lat="49.44003" lon="-1.80593">
        <ele>11.9</ele>
        <time>2020-06-14T16:51:10Z</time>
      </trkpt>
      <trkpt lat="49.44008" lon="-1.80594">
        <ele>12</ele>
        <time>2020-06-14T16:51:11Z</time>
      </trkpt>
      <trkpt lat="49.44013" lon="-1.80593">
        <ele>12.1</ele>
        <time>2020-06-14T16:51:12Z</time>
      </trkpt>
      <trkpt lat="49.44018" lon="-1.80593">
        <ele>12.3</ele>
        <time>2020-06-14T16:51:13Z</time>
      </trkpt>
      <trkpt lat="49.44023" lon="-1.80594">
        <ele>12.4</ele>
        <time>2020-06-14T16:51:14Z</time>
      </trkpt>
      <trkpt lat="49.44027" lon="-1.80595">
        <ele>12.5</ele>
        <time>2020-06-14T16:51:15Z</time>
      </trkpt>
      <trkpt lat="49.44031" lon="-1.80596">
        <ele>12.5</ele>
        <time>2020-06-14T16:51:16Z</time>
      </trkpt>
      <trkpt lat="49.44036" lon="-1.80596">
        <ele>12.5</ele>
        <time>2020-06-14T16:51:17Z</time>
      </trkpt>
      <trkpt lat="49.44041" lon="-1.80598">
        <ele>12.5</ele>
        <time>2020-06-14T16:51:18Z</time>
      </trkpt>
      <trkpt lat="49.44045" lon="-1.806">
        <ele>12.5</ele>
        <time>2020-06-14T16:51:19Z</time>
      </trkpt>
      <trkpt lat="49.4405" lon="-1.80601">
        <ele>12.4</ele>
        <time>2020-06-14T16:51:20Z</time>
      </trkpt>
      <trkpt lat="49.44054" lon="-1.80602">
        <ele>12.4</ele>
        <time>2020-06-14T16:51:21Z</time>
      </trkpt>
      <trkpt lat="49.44059" lon="-1.80601">
        <ele>12.3</ele>
        <time>2020-06-14T16:51:22Z</time>
      </trkpt>
      <trkpt lat="49.44063" lon="-1.806">
        <ele>12.3</ele>
        <time>2020-06-14T16:51:23Z</time>
      </trkpt>
      <trkpt lat="49.44068" lon="-1.80599">
        <ele>12.3</ele>
        <time>2020-06-14T16:51:24Z</time>
      </trkpt>
      <trkpt lat="49.44073" lon="-1.80595">
        <ele>12.2</ele>
        <time>2020-06-14T16:51:25Z</time>
      </trkpt>
      <trkpt lat="49.44079" lon="-1.80595">
        <ele>12.2</ele>
        <time>2020-06-14T16:51:26Z</time>
      </trkpt>
      <trkpt lat="49.44084" lon="-1.80594">
        <ele>12.2</ele>
        <time>2020-06-14T16:51:27Z</time>
      </trkpt>
      <trkpt lat="49.44089" lon="-1.80592">
        <ele>12.2</ele>
        <time>2020-06-14T16:51:28Z</time>
      </trkpt>
      <trkpt lat="49.44094" lon="-1.80591">
        <ele>12.2</ele>
        <time>2020-06-14T16:51:29Z</time>
      </trkpt>
      <trkpt lat="49.44099" lon="-1.80588">
        <ele>12.2</ele>
        <time>2020-06-14T16:51:30Z</time>
      </trkpt>
      <trkpt lat="49.44104" lon="-1.80585">
        <ele>12.2</ele>
        <time>2020-06-14T16:51:31Z</time>
      </trkpt>
      <trkpt lat="49.4411" lon="-1.80584">
        <ele>12.2</ele>
        <time>2020-06-14T16:51:32Z</time>
      </trkpt>
      <trkpt lat="49.44115" lon="-1.80582">
        <ele>12.2</ele>
        <time>2020-06-14T16:51:33Z</time>
      </trkpt>
      <trkpt lat="49.4412" lon="-1.80581">
        <ele>12.2</ele>
        <time>2020-06-14T16:51:34Z</time>
      </trkpt>
      <trkpt lat="49.44125" lon="-1.80578">
        <ele>12.2</ele>
        <time>2020-06-14T16:51:35Z</time>
      </trkpt>
      <trkpt lat="49.4413" lon="-1.80577">
        <ele>12.2</ele>
        <time>2020-06-14T16:51:36Z</time>
      </trkpt>
      <trkpt lat="49.44136" lon="-1.80576">
        <ele>12.2</ele>
        <time>2020-06-14T16:51:37Z</time>
      </trkpt>
      <trkpt lat="49.44141" lon="-1.80574">
        <ele>12.2</ele>
        <time>2020-06-14T16:51:38Z</time>
      </trkpt>
      <trkpt lat="49.44146" lon="-1.80572">
        <ele>12.2</ele>
        <time>2020-06-14T16:51:39Z</time>
      </trkpt>
      <trkpt lat="49.44151" lon="-1.8057">
        <ele>12.1</ele>
        <time>2020-06-14T16:51:40Z</time>
      </trkpt>
      <trkpt lat="49.44157" lon="-1.8057">
        <ele>12.1</ele>
        <time>2020-06-14T16:51:41Z</time>
      </trkpt>
      <trkpt lat="49.44162" lon="-1.80568">
        <ele>12.1</ele>
        <time>2020-06-14T16:51:42Z</time>
      </trkpt>
      <trkpt lat="49.44167" lon="-1.80567">
        <ele>12.1</ele>
        <time>2020-06-14T16:51:43Z</time>
      </trkpt>
      <trkpt lat="49.44172" lon="-1.80565">
        <ele>12.2</ele>
        <time>2020-06-14T16:51:44Z</time>
      </trkpt>
      <trkpt lat="49.44178" lon="-1.80563">
        <ele>12.2</ele>
        <time>2020-06-14T16:51:45Z</time>
      </trkpt>
      <trkpt lat="49.44183" lon="-1.8056">
        <ele>12.1</ele>
        <time>2020-06-14T16:51:46Z</time>
      </trkpt>
      <trkpt lat="49.44189" lon="-1.80559">
        <ele>12</ele>
        <time>2020-06-14T16:51:47Z</time>
      </trkpt>
      <trkpt lat="49.44195" lon="-1.80557">
        <ele>11.9</ele>
        <time>2020-06-14T16:51:48Z</time>
      </trkpt>
      <trkpt lat="49.442" lon="-1.80555">
        <ele>11.8</ele>
        <time>2020-06-14T16:51:49Z</time>
      </trkpt>
      <trkpt lat="49.44206" lon="-1.80553">
        <ele>11.7</ele>
        <time>2020-06-14T16:51:50Z</time>
      </trkpt>
      <trkpt lat="49.44211" lon="-1.80551">
        <ele>11.6</ele>
        <time>2020-06-14T16:51:51Z</time>
      </trkpt>
      <trkpt lat="49.44217" lon="-1.8055">
        <ele>11.5</ele>
        <time>2020-06-14T16:51:52Z</time>
      </trkpt>
      <trkpt lat="49.44223" lon="-1.80548">
        <ele>11.5</ele>
        <time>2020-06-14T16:51:53Z</time>
      </trkpt>
      <trkpt lat="49.44228" lon="-1.80547">
        <ele>11.4</ele>
        <time>2020-06-14T16:51:54Z</time>
      </trkpt>
      <trkpt lat="49.44233" lon="-1.80546">
        <ele>11.3</ele>
        <time>2020-06-14T16:51:55Z</time>
      </trkpt>
      <trkpt lat="49.44238" lon="-1.80544">
        <ele>11.2</ele>
        <time>2020-06-14T16:51:56Z</time>
      </trkpt>
      <trkpt lat="49.44243" lon="-1.80543">
        <ele>11.2</ele>
        <time>2020-06-14T16:51:57Z</time>
      </trkpt>
      <trkpt lat="49.44248" lon="-1.80541">
        <ele>11.1</ele>
        <time>2020-06-14T16:51:58Z</time>
      </trkpt>
      <trkpt lat="49.44253" lon="-1.8054">
        <ele>11.1</ele>
        <time>2020-06-14T16:51:59Z</time>
      </trkpt>
      <trkpt lat="49.44258" lon="-1.80538">
        <ele>11</ele>
        <time>2020-06-14T16:52:00Z</time>
      </trkpt>
      <trkpt lat="49.44262" lon="-1.80537">
        <ele>11</ele>
        <time>2020-06-14T16:52:01Z</time>
      </trkpt>
      <trkpt lat="49.44266" lon="-1.80535">
        <ele>11</ele>
        <time>2020-06-14T16:52:02Z</time>
      </trkpt>
      <trkpt lat="49.44269" lon="-1.80534">
        <ele>11</ele>
        <time>2020-06-14T16:52:03Z</time>
      </trkpt>
      <trkpt lat="49.44273" lon="-1.80532">
        <ele>11</ele>
        <time>2020-06-14T16:52:04Z</time>
      </trkpt>
      <trkpt lat="49.44277" lon="-1.80527">
        <ele>10.9</ele>
        <time>2020-06-14T16:52:05Z</time>
      </trkpt>
      <trkpt lat="49.44279" lon="-1.80519">
        <ele>10.8</ele>
        <time>2020-06-14T16:52:06Z</time>
      </trkpt>
      <trkpt lat="49.44281" lon="-1.80512">
        <ele>10.8</ele>
        <time>2020-06-14T16:52:07Z</time>
      </trkpt>
      <trkpt lat="49.44283" lon="-1.80505">
        <ele>10.7</ele>
        <time>2020-06-14T16:52:08Z</time>
      </trkpt>
      <trkpt lat="49.44285" lon="-1.80498">
        <ele>10.7</ele>
        <time>2020-06-14T16:52:09Z</time>
      </trkpt>
      <trkpt lat="49.44287" lon="-1.80491">
        <ele>10.6</ele>
        <time>2020-06-14T16:52:10Z</time>
      </trkpt>
      <trkpt lat="49.44289" lon="-1.80484">
        <ele>10.6</ele>
        <time>2020-06-14T16:52:11Z</time>
      </trkpt>
      <trkpt lat="49.4429" lon="-1.80478">
        <ele>10.6</ele>
        <time>2020-06-14T16:52:12Z</time>
      </trkpt>
      <trkpt lat="49.4429" lon="-1.80471">
        <ele>10.6</ele>
        <time>2020-06-14T16:52:13Z</time>
      </trkpt>
      <trkpt lat="49.44291" lon="-1.80464">
        <ele>10.6</ele>
        <time>2020-06-14T16:52:14Z</time>
      </trkpt>
      <trkpt lat="49.44292" lon="-1.80457">
        <ele>10.7</ele>
        <time>2020-06-14T16:52:15Z</time>
      </trkpt>
      <trkpt lat="49.44294" lon="-1.8045">
        <ele>10.7</ele>
        <time>2020-06-14T16:52:16Z</time>
      </trkpt>
      <trkpt lat="49.44296" lon="-1.80444">
        <ele>10.7</ele>
        <time>2020-06-14T16:52:17Z</time>
      </trkpt>
      <trkpt lat="49.44298" lon="-1.80438">
        <ele>10.8</ele>
        <time>2020-06-14T16:52:18Z</time>
      </trkpt>
      <trkpt lat="49.44299" lon="-1.80433">
        <ele>10.8</ele>
        <time>2020-06-14T16:52:19Z</time>
      </trkpt>
      <trkpt lat="49.44301" lon="-1.80429">
        <ele>10.8</ele>
        <time>2020-06-14T16:52:20Z</time>
      </trkpt>
      <trkpt lat="49.44303" lon="-1.80426">
        <ele>10.9</ele>
        <time>2020-06-14T16:52:21Z</time>
      </trkpt>
      <trkpt lat="49.44306" lon="-1.80424">
        <ele>10.9</ele>
        <time>2020-06-14T16:52:22Z</time>
      </trkpt>
      <trkpt lat="49.4431" lon="-1.80424">
        <ele>10.5</ele>
        <time>2020-06-14T16:52:23Z</time>
      </trkpt>
      <trkpt lat="49.44313" lon="-1.80426">
        <ele>10.4</ele>
        <time>2020-06-14T16:52:24Z</time>
      </trkpt>
      <trkpt lat="49.44317" lon="-1.8043">
        <ele>10.3</ele>
        <time>2020-06-14T16:52:25Z</time>
      </trkpt>
      <trkpt lat="49.44322" lon="-1.80433">
        <ele>10.1</ele>
        <time>2020-06-14T16:52:26Z</time>
      </trkpt>
      <trkpt lat="49.44327" lon="-1.80436">
        <ele>10</ele>
        <time>2020-06-14T16:52:27Z</time>
      </trkpt>
      <trkpt lat="49.44331" lon="-1.80439">
        <ele>9.9</ele>
        <time>2020-06-14T16:52:28Z</time>
      </trkpt>
      <trkpt lat="49.44336" lon="-1.80443">
        <ele>9.8</ele>
        <time>2020-06-14T16:52:29Z</time>
      </trkpt>
      <trkpt lat="49.44341" lon="-1.80446">
        <ele>9.8</ele>
        <time>2020-06-14T16:52:30Z</time>
      </trkpt>
      <trkpt lat="49.44346" lon="-1.8045">
        <ele>9.7</ele>
        <time>2020-06-14T16:52:31Z</time>
      </trkpt>
      <trkpt lat="49.44351" lon="-1.80454">
        <ele>9.7</ele>
        <time>2020-06-14T16:52:32Z</time>
      </trkpt>
      <trkpt lat="49.44356" lon="-1.80456">
        <ele>9.6</ele>
        <time>2020-06-14T16:52:33Z</time>
      </trkpt>
      <trkpt lat="49.44362" lon="-1.80459">
        <ele>9.6</ele>
        <time>2020-06-14T16:52:34Z</time>
      </trkpt>
      <trkpt lat="49.44367" lon="-1.80461">
        <ele>9.6</ele>
        <time>2020-06-14T16:52:35Z</time>
      </trkpt>
      <trkpt lat="49.44373" lon="-1.80463">
        <ele>9.5</ele>
        <time>2020-06-14T16:52:36Z</time>
      </trkpt>
      <trkpt lat="49.44378" lon="-1.80465">
        <ele>9.4</ele>
        <time>2020-06-14T16:52:37Z</time>
      </trkpt>
      <trkpt lat="49.44384" lon="-1.80466">
        <ele>9.4</ele>
        <time>2020-06-14T16:52:38Z</time>
      </trkpt>
      <trkpt lat="49.44389" lon="-1.80467">
        <ele>9.3</ele>
        <time>2020-06-14T16:52:39Z</time>
      </trkpt>
      <trkpt lat="49.44395" lon="-1.80466">
        <ele>9.2</ele>
        <time>2020-06-14T16:52:40Z</time>
      </trkpt>
      <trkpt lat="49.444" lon="-1.80465">
        <ele>9.1</ele>
        <time>2020-06-14T16:52:41Z</time>
      </trkpt>
      <trkpt lat="49.44405" lon="-1.80464">
        <ele>9.1</ele>
        <time>2020-06-14T16:52:42Z</time>
      </trkpt>
      <trkpt lat="49.44411" lon="-1.80464">
        <ele>9</ele>
        <time>2020-06-14T16:52:43Z</time>
      </trkpt>
      <trkpt lat="49.44417" lon="-1.80465">
        <ele>9</ele>
        <time>2020-06-14T16:52:44Z</time>
      </trkpt>
      <trkpt lat="49.44422" lon="-1.80467">
        <ele>8.9</ele>
        <time>2020-06-14T16:52:45Z</time>
      </trkpt>
      <trkpt lat="49.44428" lon="-1.80469">
        <ele>8.9</ele>
        <time>2020-06-14T16:52:46Z</time>
      </trkpt>
      <trkpt lat="49.44434" lon="-1.80472">
        <ele>8.9</ele>
        <time>2020-06-14T16:52:47Z</time>
      </trkpt>
      <trkpt lat="49.44439" lon="-1.80474">
        <ele>8.9</ele>
        <time>2020-06-14T16:52:48Z</time>
      </trkpt>
      <trkpt lat="49.44445" lon="-1.80477">
        <ele>8.9</ele>
        <time>2020-06-14T16:52:49Z</time>
      </trkpt>
      <trkpt lat="49.4445" lon="-1.8048">
        <ele>8.9</ele>
        <time>2020-06-14T16:52:50Z</time>
      </trkpt>
      <trkpt lat="49.44455" lon="-1.80484">
        <ele>8.8</ele>
        <time>2020-06-14T16:52:51Z</time>
      </trkpt>
      <trkpt lat="49.44461" lon="-1.80486">
        <ele>8.8</ele>
        <time>2020-06-14T16:52:52Z</time>
      </trkpt>
      <trkpt lat="49.44466" lon="-1.80488">
        <ele>8.8</ele>
        <time>2020-06-14T16:52:53Z</time>
      </trkpt>
      <trkpt lat="49.44471" lon="-1.80491">
        <ele>8.8</ele>
        <time>2020-06-14T16:52:54Z</time>
      </trkpt>
      <trkpt lat="49.44477" lon="-1.80493">
        <ele>8.8</ele>
        <time>2020-06-14T16:52:55Z</time>
      </trkpt>
      <trkpt lat="49.44482" lon="-1.80495">
        <ele>8.7</ele>
        <time>2020-06-14T16:52:56Z</time>
      </trkpt>
      <trkpt lat="49.44488" lon="-1.80496">
        <ele>8.7</ele>
        <time>2020-06-14T16:52:57Z</time>
      </trkpt>
      <trkpt lat="49.44493" lon="-1.80497">
        <ele>8.7</ele>
        <time>2020-06-14T16:52:58Z</time>
      </trkpt>
      <trkpt lat="49.44498" lon="-1.80498">
        <ele>8.7</ele>
        <time>2020-06-14T16:52:59Z</time>
      </trkpt>
      <trkpt lat="49.44503" lon="-1.80499">
        <ele>8.7</ele>
        <time>2020-06-14T16:53:00Z</time>
      </trkpt>
      <trkpt lat="49.44509" lon="-1.80499">
        <ele>8.7</ele>
        <time>2020-06-14T16:53:01Z</time>
      </trkpt>
      <trkpt lat="49.44514" lon="-1.805">
        <ele>8.7</ele>
        <time>2020-06-14T16:53:02Z</time>
      </trkpt>
      <trkpt lat="49.44519" lon="-1.80501">
        <ele>8.7</ele>
        <time>2020-06-14T16:53:03Z</time>
      </trkpt>
      <trkpt lat="49.44524" lon="-1.80502">
        <ele>8.7</ele>
        <time>2020-06-14T16:53:04Z</time>
      </trkpt>
      <trkpt lat="49.4453" lon="-1.80502">
        <ele>8.7</ele>
        <time>2020-06-14T16:53:05Z</time>
      </trkpt>
      <trkpt lat="49.44535" lon="-1.80502">
        <ele>8.7</ele>
        <time>2020-06-14T16:53:06Z</time>
      </trkpt>
      <trkpt lat="49.4454" lon="-1.80503">
        <ele>8.8</ele>
        <time>2020-06-14T16:53:07Z</time>
      </trkpt>
      <trkpt lat="49.44546" lon="-1.80503">
        <ele>8.8</ele>
        <time>2020-06-14T16:53:08Z</time>
      </trkpt>
      <trkpt lat="49.44551" lon="-1.80504">
        <ele>8.9</ele>
        <time>2020-06-14T16:53:09Z</time>
      </trkpt>
      <trkpt lat="49.44556" lon="-1.80507">
        <ele>9</ele>
        <time>2020-06-14T16:53:10Z</time>
      </trkpt>
      <trkpt lat="49.44561" lon="-1.8051">
        <ele>9</ele>
        <time>2020-06-14T16:53:11Z</time>
      </trkpt>
      <trkpt lat="49.44566" lon="-1.80511">
        <ele>9</ele>
        <time>2020-06-14T16:53:12Z</time>
      </trkpt>
      <trkpt lat="49.44571" lon="-1.80513">
        <ele>9</ele>
        <time>2020-06-14T16:53:13Z</time>
      </trkpt>
      <trkpt lat="49.44577" lon="-1.80513">
        <ele>9</ele>
        <time>2020-06-14T16:53:14Z</time>
      </trkpt>
      <trkpt lat="49.44582" lon="-1.80514">
        <ele>9.1</ele>
        <time>2020-06-14T16:53:15Z</time>
      </trkpt>
      <trkpt lat="49.44587" lon="-1.80515">
        <ele>9.1</ele>
        <time>2020-06-14T16:53:16Z</time>
      </trkpt>
      <trkpt lat="49.44592" lon="-1.80518">
        <ele>9.1</ele>
        <time>2020-06-14T16:53:17Z</time>
      </trkpt>
      <trkpt lat="49.44597" lon="-1.80521">
        <ele>9.2</ele>
        <time>2020-06-14T16:53:18Z</time>
      </trkpt>
      <trkpt lat="49.44601" lon="-1.80523">
        <ele>9.2</ele>
        <time>2020-06-14T16:53:19Z</time>
      </trkpt>
      <trkpt lat="49.44606" lon="-1.80525">
        <ele>9.3</ele>
        <time>2020-06-14T16:53:20Z</time>
      </trkpt>
      <trkpt lat="49.44611" lon="-1.80527">
        <ele>9.4</ele>
        <time>2020-06-14T16:53:21Z</time>
      </trkpt>
      <trkpt lat="49.44615" lon="-1.80527">
        <ele>9.4</ele>
        <time>2020-06-14T16:53:22Z</time>
      </trkpt>
      <trkpt lat="49.4462" lon="-1.80528">
        <ele>9.5</ele>
        <time>2020-06-14T16:53:23Z</time>
      </trkpt>
      <trkpt lat="49.44624" lon="-1.8053">
        <ele>9.5</ele>
        <time>2020-06-14T16:53:24Z</time>
      </trkpt>
      <trkpt lat="49.44629" lon="-1.80532">
        <ele>9.6</ele>
        <time>2020-06-14T16:53:25Z</time>
      </trkpt>
      <trkpt lat="49.44633" lon="-1.80534">
        <ele>9.7</ele>
        <time>2020-06-14T16:53:26Z</time>
      </trkpt>
      <trkpt lat="49.44638" lon="-1.80535">
        <ele>9.8</ele>
        <time>2020-06-14T16:53:27Z</time>
      </trkpt>
      <trkpt lat="49.44642" lon="-1.80537">
        <ele>9.8</ele>
        <time>2020-06-14T16:53:28Z</time>
      </trkpt>
      <trkpt lat="49.44647" lon="-1.80539">
        <ele>9.9</ele>
        <time>2020-06-14T16:53:29Z</time>
      </trkpt>
      <trkpt lat="49.44651" lon="-1.8054">
        <ele>10</ele>
        <time>2020-06-14T16:53:30Z</time>
      </trkpt>
      <trkpt lat="49.44655" lon="-1.80542">
        <ele>10</ele>
        <time>2020-06-14T16:53:31Z</time>
      </trkpt>
      <trkpt lat="49.4466" lon="-1.80541">
        <ele>10.1</ele>
        <time>2020-06-14T16:53:32Z</time>
      </trkpt>
      <trkpt lat="49.44664" lon="-1.80544">
        <ele>10.2</ele>
        <time>2020-06-14T16:53:33Z</time>
      </trkpt>
      <trkpt lat="49.44668" lon="-1.80546">
        <ele>10.3</ele>
        <time>2020-06-14T16:53:34Z</time>
      </trkpt>
      <trkpt lat="49.44673" lon="-1.80547">
        <ele>10.4</ele>
        <time>2020-06-14T16:53:35Z</time>
      </trkpt>
      <trkpt lat="49.44677" lon="-1.80546">
        <ele>10.5</ele>
        <time>2020-06-14T16:53:36Z</time>
      </trkpt>
      <trkpt lat="49.44681" lon="-1.80549">
        <ele>10.5</ele>
        <time>2020-06-14T16:53:37Z</time>
      </trkpt>
      <trkpt lat="49.44685" lon="-1.80551">
        <ele>10.5</ele>
        <time>2020-06-14T16:53:38Z</time>
      </trkpt>
      <trkpt lat="49.44688" lon="-1.80553">
        <ele>10.5</ele>
        <time>2020-06-14T16:53:39Z</time>
      </trkpt>
      <trkpt lat="49.44693" lon="-1.80555">
        <ele>10.5</ele>
        <time>2020-06-14T16:53:40Z</time>
      </trkpt>
      <trkpt lat="49.44697" lon="-1.80558">
        <ele>10.5</ele>
        <time>2020-06-14T16:53:41Z</time>
      </trkpt>
      <trkpt lat="49.44702" lon="-1.8056">
        <ele>10.4</ele>
        <time>2020-06-14T16:53:42Z</time>
      </trkpt>
      <trkpt lat="49.44707" lon="-1.80564">
        <ele>10.4</ele>
        <time>2020-06-14T16:53:43Z</time>
      </trkpt>
      <trkpt lat="49.44711" lon="-1.80567">
        <ele>10.3</ele>
        <time>2020-06-14T16:53:44Z</time>
      </trkpt>
      <trkpt lat="49.44717" lon="-1.80569">
        <ele>10.2</ele>
        <time>2020-06-14T16:53:45Z</time>
      </trkpt>
      <trkpt lat="49.44722" lon="-1.80571">
        <ele>10.2</ele>
        <time>2020-06-14T16:53:46Z</time>
      </trkpt>
      <trkpt lat="49.44727" lon="-1.80573">
        <ele>10.1</ele>
        <time>2020-06-14T16:53:47Z</time>
      </trkpt>
      <trkpt lat="49.44732" lon="-1.80576">
        <ele>10</ele>
        <time>2020-06-14T16:53:48Z</time>
      </trkpt>
      <trkpt lat="49.44737" lon="-1.80578">
        <ele>10</ele>
        <time>2020-06-14T16:53:49Z</time>
      </trkpt>
      <trkpt lat="49.44743" lon="-1.80581">
        <ele>10</ele>
        <time>2020-06-14T16:53:50Z</time>
      </trkpt>
      <trkpt lat="49.44747" lon="-1.80585">
        <ele>10</ele>
        <time>2020-06-14T16:53:51Z</time>
      </trkpt>
      <trkpt lat="49.44752" lon="-1.80586">
        <ele>9.9</ele>
        <time>2020-06-14T16:53:52Z</time>
      </trkpt>
      <trkpt lat="49.44757" lon="-1.80589">
        <ele>9.9</ele>
        <time>2020-06-14T16:53:53Z</time>
      </trkpt>
      <trkpt lat="49.44762" lon="-1.80592">
        <ele>9.9</ele>
        <time>2020-06-14T16:53:54Z</time>
      </trkpt>
      <trkpt lat="49.44767" lon="-1.80596">
        <ele>9.8</ele>
        <time>2020-06-14T16:53:55Z</time>
      </trkpt>
      <trkpt lat="49.44772" lon="-1.80598">
        <ele>9.8</ele>
        <time>2020-06-14T16:53:56Z</time>
      </trkpt>
      <trkpt lat="49.44777" lon="-1.80601">
        <ele>9.7</ele>
        <time>2020-06-14T16:53:57Z</time>
      </trkpt>
      <trkpt lat="49.44782" lon="-1.80604">
        <ele>9.7</ele>
        <time>2020-06-14T16:53:58Z</time>
      </trkpt>
      <trkpt lat="49.44787" lon="-1.80605">
        <ele>9.6</ele>
        <time>2020-06-14T16:53:59Z</time>
      </trkpt>
      <trkpt lat="49.44792" lon="-1.80607">
        <ele>9.6</ele>
        <time>2020-06-14T16:54:00Z</time>
      </trkpt>
      <trkpt lat="49.44797" lon="-1.80608">
        <ele>9.6</ele>
        <time>2020-06-14T16:54:01Z</time>
      </trkpt>
      <trkpt lat="49.44802" lon="-1.8061">
        <ele>9.6</ele>
        <time>2020-06-14T16:54:02Z</time>
      </trkpt>
      <trkpt lat="49.44807" lon="-1.80613">
        <ele>9.6</ele>
        <time>2020-06-14T16:54:03Z</time>
      </trkpt>
      <trkpt lat="49.44813" lon="-1.80614">
        <ele>9.5</ele>
        <time>2020-06-14T16:54:04Z</time>
      </trkpt>
      <trkpt lat="49.44818" lon="-1.80616">
        <ele>9.4</ele>
        <time>2020-06-14T16:54:05Z</time>
      </trkpt>
      <trkpt lat="49.44823" lon="-1.80618">
        <ele>9.3</ele>
        <time>2020-06-14T16:54:06Z</time>
      </trkpt>
      <trkpt lat="49.44828" lon="-1.80621">
        <ele>9.2</ele>
        <time>2020-06-14T16:54:07Z</time>
      </trkpt>
      <trkpt lat="49.44833" lon="-1.80623">
        <ele>9.2</ele>
        <time>2020-06-14T16:54:08Z</time>
      </trkpt>
      <trkpt lat="49.44837" lon="-1.80626">
        <ele>9.1</ele>
        <time>2020-06-14T16:54:09Z</time>
      </trkpt>
      <trkpt lat="49.44841" lon="-1.80632">
        <ele>9</ele>
        <time>2020-06-14T16:54:10Z</time>
      </trkpt>
      <trkpt lat="49.44846" lon="-1.80636">
        <ele>8.9</ele>
        <time>2020-06-14T16:54:11Z</time>
      </trkpt>
      <trkpt lat="49.4485" lon="-1.80639">
        <ele>8.8</ele>
        <time>2020-06-14T16:54:12Z</time>
      </trkpt>
      <trkpt lat="49.44853" lon="-1.80645">
        <ele>8.8</ele>
        <time>2020-06-14T16:54:13Z</time>
      </trkpt>
      <trkpt lat="49.44857" lon="-1.80649">
        <ele>8.7</ele>
        <time>2020-06-14T16:54:14Z</time>
      </trkpt>
      <trkpt lat="49.44857" lon="-1.80655">
        <ele>8.6</ele>
        <time>2020-06-14T16:54:15Z</time>
      </trkpt>
      <trkpt lat="49.44859" lon="-1.80662">
        <ele>8.5</ele>
        <time>2020-06-14T16:54:16Z</time>
      </trkpt>
      <trkpt lat="49.44862" lon="-1.80669">
        <ele>8.4</ele>
        <time>2020-06-14T16:54:17Z</time>
      </trkpt>
      <trkpt lat="49.44866" lon="-1.80676">
        <ele>8.4</ele>
        <time>2020-06-14T16:54:18Z</time>
      </trkpt>
      <trkpt lat="49.4487" lon="-1.80682">
        <ele>8.3</ele>
        <time>2020-06-14T16:54:19Z</time>
      </trkpt>
      <trkpt lat="49.44874" lon="-1.80688">
        <ele>8.2</ele>
        <time>2020-06-14T16:54:20Z</time>
      </trkpt>
      <trkpt lat="49.44878" lon="-1.80694">
        <ele>8.1</ele>
        <time>2020-06-14T16:54:21Z</time>
      </trkpt>
      <trkpt lat="49.44882" lon="-1.807">
        <ele>8</ele>
        <time>2020-06-14T16:54:22Z</time>
      </trkpt>
      <trkpt lat="49.44886" lon="-1.80705">
        <ele>8</ele>
        <time>2020-06-14T16:54:23Z</time>
      </trkpt>
      <trkpt lat="49.44891" lon="-1.80707">
        <ele>8.1</ele>
        <time>2020-06-14T16:54:24Z</time>
      </trkpt>
      <trkpt lat="49.44897" lon="-1.80704">
        <ele>8.2</ele>
        <time>2020-06-14T16:54:25Z</time>
      </trkpt>
      <trkpt lat="49.44902" lon="-1.80702">
        <ele>8.2</ele>
        <time>2020-06-14T16:54:26Z</time>
      </trkpt>
      <trkpt lat="49.44907" lon="-1.80702">
        <ele>8.3</ele>
        <time>2020-06-14T16:54:27Z</time>
      </trkpt>
      <trkpt lat="49.44912" lon="-1.80701">
        <ele>8.4</ele>
        <time>2020-06-14T16:54:28Z</time>
      </trkpt>
      <trkpt lat="49.44917" lon="-1.80701">
        <ele>8.5</ele>
        <time>2020-06-14T16:54:29Z</time>
      </trkpt>
      <trkpt lat="49.44921" lon="-1.80702">
        <ele>8.5</ele>
        <time>2020-06-14T16:54:30Z</time>
      </trkpt>
      <trkpt lat="49.44926" lon="-1.80702">
        <ele>8.6</ele>
        <time>2020-06-14T16:54:31Z</time>
      </trkpt>
      <trkpt lat="49.4493" lon="-1.80704">
        <ele>8.6</ele>
        <time>2020-06-14T16:54:32Z</time>
      </trkpt>
      <trkpt lat="49.44933" lon="-1.80706">
        <ele>8.6</ele>
        <time>2020-06-14T16:54:33Z</time>
      </trkpt>
      <trkpt lat="49.44936" lon="-1.80711">
        <ele>8.7</ele>
        <time>2020-06-14T16:54:34Z</time>
      </trkpt>
      <trkpt lat="49.4494" lon="-1.80714">
        <ele>8.6</ele>
        <time>2020-06-14T16:54:35Z</time>
      </trkpt>
      <trkpt lat="49.44944" lon="-1.80719">
        <ele>8.6</ele>
        <time>2020-06-14T16:54:36Z</time>
      </trkpt>
      <trkpt lat="49.44948" lon="-1.80724">
        <ele>8.6</ele>
        <time>2020-06-14T16:54:37Z</time>
      </trkpt>
      <trkpt lat="49.44952" lon="-1.80729">
        <ele>8.7</ele>
        <time>2020-06-14T16:54:38Z</time>
      </trkpt>
      <trkpt lat="49.44956" lon="-1.80733">
        <ele>8.7</ele>
        <time>2020-06-14T16:54:39Z</time>
      </trkpt>
      <trkpt lat="49.4496" lon="-1.80738">
        <ele>8.8</ele>
        <time>2020-06-14T16:54:40Z</time>
      </trkpt>
      <trkpt lat="49.44964" lon="-1.80741">
        <ele>8.9</ele>
        <time>2020-06-14T16:54:41Z</time>
      </trkpt>
      <trkpt lat="49.44968" lon="-1.80744">
        <ele>9</ele>
        <time>2020-06-14T16:54:42Z</time>
      </trkpt>
      <trkpt lat="49.44972" lon="-1.80748">
        <ele>9</ele>
        <time>2020-06-14T16:54:43Z</time>
      </trkpt>
      <trkpt lat="49.44976" lon="-1.80752">
        <ele>9.1</ele>
        <time>2020-06-14T16:54:44Z</time>
      </trkpt>
      <trkpt lat="49.4498" lon="-1.80756">
        <ele>9.2</ele>
        <time>2020-06-14T16:54:45Z</time>
      </trkpt>
      <trkpt lat="49.44983" lon="-1.80761">
        <ele>9.2</ele>
        <time>2020-06-14T16:54:46Z</time>
      </trkpt>
      <trkpt lat="49.44987" lon="-1.80765">
        <ele>9.2</ele>
        <time>2020-06-14T16:54:47Z</time>
      </trkpt>
      <trkpt lat="49.4499" lon="-1.80769">
        <ele>9.3</ele>
        <time>2020-06-14T16:54:48Z</time>
      </trkpt>
      <trkpt lat="49.44994" lon="-1.80773">
        <ele>9.3</ele>
        <time>2020-06-14T16:54:49Z</time>
      </trkpt>
      <trkpt lat="49.44997" lon="-1.80777">
        <ele>9.3</ele>
        <time>2020-06-14T16:54:50Z</time>
      </trkpt>
      <trkpt lat="49.45002" lon="-1.80779">
        <ele>9.4</ele>
        <time>2020-06-14T16:54:51Z</time>
      </trkpt>
      <trkpt lat="49.45006" lon="-1.80782">
        <ele>9.4</ele>
        <time>2020-06-14T16:54:52Z</time>
      </trkpt>
      <trkpt lat="49.45009" lon="-1.80786">
        <ele>9.5</ele>
        <time>2020-06-14T16:54:53Z</time>
      </trkpt>
      <trkpt lat="49.45014" lon="-1.80789">
        <ele>9.5</ele>
        <time>2020-06-14T16:54:54Z</time>
      </trkpt>
      <trkpt lat="49.45018" lon="-1.80793">
        <ele>9.6</ele>
        <time>2020-06-14T16:54:55Z</time>
      </trkpt>
      <trkpt lat="49.45022" lon="-1.80796">
        <ele>9.7</ele>
        <time>2020-06-14T16:54:56Z</time>
      </trkpt>
      <trkpt lat="49.45026" lon="-1.808">
        <ele>9.7</ele>
        <time>2020-06-14T16:54:57Z</time>
      </trkpt>
      <trkpt lat="49.4503" lon="-1.80803">
        <ele>9.8</ele>
        <time>2020-06-14T16:54:58Z</time>
      </trkpt>
      <trkpt lat="49.45034" lon="-1.80806">
        <ele>9.9</ele>
        <time>2020-06-14T16:54:59Z</time>
      </trkpt>
      <trkpt lat="49.45038" lon="-1.80809">
        <ele>9.9</ele>
        <time>2020-06-14T16:55:00Z</time>
      </trkpt>
      <trkpt lat="49.45042" lon="-1.80811">
        <ele>10</ele>
        <time>2020-06-14T16:55:01Z</time>
      </trkpt>
      <trkpt lat="49.45047" lon="-1.80816">
        <ele>10</ele>
        <time>2020-06-14T16:55:02Z</time>
      </trkpt>
      <trkpt lat="49.45053" lon="-1.80818">
        <ele>10</ele>
        <time>2020-06-14T16:55:03Z</time>
      </trkpt>
      <trkpt lat="49.45058" lon="-1.80821">
        <ele>10.1</ele>
        <time>2020-06-14T16:55:04Z</time>
      </trkpt>
      <trkpt lat="49.45064" lon="-1.80824">
        <ele>10.1</ele>
        <time>2020-06-14T16:55:05Z</time>
      </trkpt>
      <trkpt lat="49.4507" lon="-1.80825">
        <ele>10.2</ele>
        <time>2020-06-14T16:55:06Z</time>
      </trkpt>
      <trkpt lat="49.45075" lon="-1.80827">
        <ele>10.2</ele>
        <time>2020-06-14T16:55:07Z</time>
      </trkpt>
      <trkpt lat="49.4508" lon="-1.8083">
        <ele>10.3</ele>
        <time>2020-06-14T16:55:08Z</time>
      </trkpt>
      <trkpt lat="49.45085" lon="-1.80832">
        <ele>10.3</ele>
        <time>2020-06-14T16:55:09Z</time>
      </trkpt>
      <trkpt lat="49.4509" lon="-1.80834">
        <ele>10.3</ele>
        <time>2020-06-14T16:55:10Z</time>
      </trkpt>
      <trkpt lat="49.45095" lon="-1.80837">
        <ele>10.3</ele>
        <time>2020-06-14T16:55:11Z</time>
      </trkpt>
      <trkpt lat="49.451" lon="-1.80839">
        <ele>10.4</ele>
        <time>2020-06-14T16:55:12Z</time>
      </trkpt>
      <trkpt lat="49.45105" lon="-1.80842">
        <ele>10.4</ele>
        <time>2020-06-14T16:55:13Z</time>
      </trkpt>
      <trkpt lat="49.4511" lon="-1.80845">
        <ele>10.5</ele>
        <time>2020-06-14T16:55:14Z</time>
      </trkpt>
      <trkpt lat="49.45115" lon="-1.80848">
        <ele>10.5</ele>
        <time>2020-06-14T16:55:15Z</time>
      </trkpt>
      <trkpt lat="49.45119" lon="-1.80851">
        <ele>10.6</ele>
        <time>2020-06-14T16:55:16Z</time>
      </trkpt>
      <trkpt lat="49.45124" lon="-1.80853">
        <ele>10.7</ele>
        <time>2020-06-14T16:55:17Z</time>
      </trkpt>
      <trkpt lat="49.45129" lon="-1.80858">
        <ele>10.8</ele>
        <time>2020-06-14T16:55:18Z</time>
      </trkpt>
      <trkpt lat="49.45133" lon="-1.80862">
        <ele>10.9</ele>
        <time>2020-06-14T16:55:19Z</time>
      </trkpt>
      <trkpt lat="49.45138" lon="-1.80863">
        <ele>10.9</ele>
        <time>2020-06-14T16:55:20Z</time>
      </trkpt>
      <trkpt lat="49.45143" lon="-1.80865">
        <ele>11</ele>
        <time>2020-06-14T16:55:21Z</time>
      </trkpt>
      <trkpt lat="49.45148" lon="-1.80869">
        <ele>11</ele>
        <time>2020-06-14T16:55:22Z</time>
      </trkpt>
      <trkpt lat="49.45152" lon="-1.80872">
        <ele>11.1</ele>
        <time>2020-06-14T16:55:23Z</time>
      </trkpt>
      <trkpt lat="49.45157" lon="-1.80874">
        <ele>11.2</ele>
        <time>2020-06-14T16:55:24Z</time>
      </trkpt>
      <trkpt lat="49.45162" lon="-1.80875">
        <ele>11.3</ele>
        <time>2020-06-14T16:55:25Z</time>
      </trkpt>
      <trkpt lat="49.45167" lon="-1.80877">
        <ele>11.4</ele>
        <time>2020-06-14T16:55:26Z</time>
      </trkpt>
      <trkpt lat="49.45171" lon="-1.8088">
        <ele>11.5</ele>
        <time>2020-06-14T16:55:27Z</time>
      </trkpt>
      <trkpt lat="49.45176" lon="-1.80882">
        <ele>11.5</ele>
        <time>2020-06-14T16:55:28Z</time>
      </trkpt>
      <trkpt lat="49.4518" lon="-1.80885">
        <ele>11.6</ele>
        <time>2020-06-14T16:55:29Z</time>
      </trkpt>
      <trkpt lat="49.45184" lon="-1.80887">
        <ele>11.6</ele>
        <time>2020-06-14T16:55:30Z</time>
      </trkpt>
      <trkpt lat="49.45189" lon="-1.8089">
        <ele>11.6</ele>
        <time>2020-06-14T16:55:31Z</time>
      </trkpt>
      <trkpt lat="49.45194" lon="-1.80891">
        <ele>11.6</ele>
        <time>2020-06-14T16:55:32Z</time>
      </trkpt>
      <trkpt lat="49.45198" lon="-1.80892">
        <ele>11.6</ele>
        <time>2020-06-14T16:55:33Z</time>
      </trkpt>
      <trkpt lat="49.45203" lon="-1.80892">
        <ele>11.6</ele>
        <time>2020-06-14T16:55:34Z</time>
      </trkpt>
      <trkpt lat="49.45207" lon="-1.80894">
        <ele>11.6</ele>
        <time>2020-06-14T16:55:35Z</time>
      </trkpt>
      <trkpt lat="49.45211" lon="-1.80897">
        <ele>11.5</ele>
        <time>2020-06-14T16:55:36Z</time>
      </trkpt>
      <trkpt lat="49.45215" lon="-1.80901">
        <ele>11.5</ele>
        <time>2020-06-14T16:55:37Z</time>
      </trkpt>
      <trkpt lat="49.45219" lon="-1.80905">
        <ele>11.5</ele>
        <time>2020-06-14T16:55:38Z</time>
      </trkpt>
      <trkpt lat="49.45222" lon="-1.80912">
        <ele>11.4</ele>
        <time>2020-06-14T16:55:39Z</time>
      </trkpt>
      <trkpt lat="49.45223" lon="-1.8092">
        <ele>11.3</ele>
        <time>2020-06-14T16:55:40Z</time>
      </trkpt>
      <trkpt lat="49.45223" lon="-1.80929">
        <ele>11.2</ele>
        <time>2020-06-14T16:55:41Z</time>
      </trkpt>
      <trkpt lat="49.45224" lon="-1.80938">
        <ele>11</ele>
        <time>2020-06-14T16:55:42Z</time>
      </trkpt>
      <trkpt lat="49.45225" lon="-1.80947">
        <ele>10.9</ele>
        <time>2020-06-14T16:55:43Z</time>
      </trkpt>
      <trkpt lat="49.45227" lon="-1.80956">
        <ele>10.7</ele>
        <time>2020-06-14T16:55:44Z</time>
      </trkpt>
      <trkpt lat="49.45231" lon="-1.80964">
        <ele>10.5</ele>
        <time>2020-06-14T16:55:45Z</time>
      </trkpt>
      <trkpt lat="49.45236" lon="-1.80968">
        <ele>10.4</ele>
        <time>2020-06-14T16:55:46Z</time>
      </trkpt>
      <trkpt lat="49.45243" lon="-1.8097">
        <ele>10.2</ele>
        <time>2020-06-14T16:55:47Z</time>
      </trkpt>
      <trkpt lat="49.45249" lon="-1.80972">
        <ele>10.1</ele>
        <time>2020-06-14T16:55:48Z</time>
      </trkpt>
      <trkpt lat="49.45254" lon="-1.80975">
        <ele>10</ele>
        <time>2020-06-14T16:55:49Z</time>
      </trkpt>
      <trkpt lat="49.4526" lon="-1.80979">
        <ele>9.8</ele>
        <time>2020-06-14T16:55:50Z</time>
      </trkpt>
      <trkpt lat="49.45265" lon="-1.80984">
        <ele>9.7</ele>
        <time>2020-06-14T16:55:51Z</time>
      </trkpt>
      <trkpt lat="49.45271" lon="-1.80988">
        <ele>9.5</ele>
        <time>2020-06-14T16:55:52Z</time>
      </trkpt>
      <trkpt lat="49.45275" lon="-1.80994">
        <ele>9.4</ele>
        <time>2020-06-14T16:55:53Z</time>
      </trkpt>
      <trkpt lat="49.4528" lon="-1.80999">
        <ele>9.3</ele>
        <time>2020-06-14T16:55:54Z</time>
      </trkpt>
      <trkpt lat="49.45283" lon="-1.81007">
        <ele>9.2</ele>
        <time>2020-06-14T16:55:55Z</time>
      </trkpt>
      <trkpt lat="49.45287" lon="-1.81015">
        <ele>9.1</ele>
        <time>2020-06-14T16:55:56Z</time>
      </trkpt>
      <trkpt lat="49.4529" lon="-1.81022">
        <ele>9</ele>
        <time>2020-06-14T16:55:57Z</time>
      </trkpt>
      <trkpt lat="49.45295" lon="-1.81026">
        <ele>8.8</ele>
        <time>2020-06-14T16:55:58Z</time>
      </trkpt>
      <trkpt lat="49.45301" lon="-1.81028">
        <ele>8.9</ele>
        <time>2020-06-14T16:55:59Z</time>
      </trkpt>
      <trkpt lat="49.45306" lon="-1.81027">
        <ele>8.9</ele>
        <time>2020-06-14T16:56:00Z</time>
      </trkpt>
      <trkpt lat="49.45312" lon="-1.81025">
        <ele>9</ele>
        <time>2020-06-14T16:56:01Z</time>
      </trkpt>
      <trkpt lat="49.45317" lon="-1.81023">
        <ele>9</ele>
        <time>2020-06-14T16:56:02Z</time>
      </trkpt>
      <trkpt lat="49.45322" lon="-1.8102">
        <ele>9.1</ele>
        <time>2020-06-14T16:56:03Z</time>
      </trkpt>
      <trkpt lat="49.45327" lon="-1.81018">
        <ele>9.1</ele>
        <time>2020-06-14T16:56:04Z</time>
      </trkpt>
      <trkpt lat="49.45332" lon="-1.81016">
        <ele>9.4</ele>
        <time>2020-06-14T16:56:05Z</time>
      </trkpt>
      <trkpt lat="49.45337" lon="-1.81014">
        <ele>9.7</ele>
        <time>2020-06-14T16:56:06Z</time>
      </trkpt>
      <trkpt lat="49.45342" lon="-1.81014">
        <ele>9.9</ele>
        <time>2020-06-14T16:56:07Z</time>
      </trkpt>
      <trkpt lat="49.45346" lon="-1.81014">
        <ele>10.1</ele>
        <time>2020-06-14T16:56:08Z</time>
      </trkpt>
      <trkpt lat="49.45351" lon="-1.81012">
        <ele>10.3</ele>
        <time>2020-06-14T16:56:09Z</time>
      </trkpt>
      <trkpt lat="49.45356" lon="-1.81013">
        <ele>10.4</ele>
        <time>2020-06-14T16:56:10Z</time>
      </trkpt>
      <trkpt lat="49.4536" lon="-1.81013">
        <ele>10.6</ele>
        <time>2020-06-14T16:56:11Z</time>
      </trkpt>
      <trkpt lat="49.45364" lon="-1.81016">
        <ele>10.7</ele>
        <time>2020-06-14T16:56:12Z</time>
      </trkpt>
      <trkpt lat="49.45368" lon="-1.81019">
        <ele>10.8</ele>
        <time>2020-06-14T16:56:13Z</time>
      </trkpt>
      <trkpt lat="49.45373" lon="-1.81021">
        <ele>11</ele>
        <time>2020-06-14T16:56:14Z</time>
      </trkpt>
      <trkpt lat="49.45377" lon="-1.81023">
        <ele>11.1</ele>
        <time>2020-06-14T16:56:15Z</time>
      </trkpt>
      <trkpt lat="49.45382" lon="-1.81026">
        <ele>11.2</ele>
        <time>2020-06-14T16:56:16Z</time>
      </trkpt>
      <trkpt lat="49.45387" lon="-1.81028">
        <ele>11.3</ele>
        <time>2020-06-14T16:56:17Z</time>
      </trkpt>
      <trkpt lat="49.45391" lon="-1.8103">
        <ele>11.4</ele>
        <time>2020-06-14T16:56:18Z</time>
      </trkpt>
      <trkpt lat="49.45396" lon="-1.81033">
        <ele>11.5</ele>
        <time>2020-06-14T16:56:19Z</time>
      </trkpt>
      <trkpt lat="49.454" lon="-1.81037">
        <ele>11.6</ele>
        <time>2020-06-14T16:56:20Z</time>
      </trkpt>
      <trkpt lat="49.45405" lon="-1.81041">
        <ele>11.7</ele>
        <time>2020-06-14T16:56:21Z</time>
      </trkpt>
      <trkpt lat="49.45408" lon="-1.81046">
        <ele>11.7</ele>
        <time>2020-06-14T16:56:22Z</time>
      </trkpt>
      <trkpt lat="49.45412" lon="-1.8105">
        <ele>11.8</ele>
        <time>2020-06-14T16:56:23Z</time>
      </trkpt>
      <trkpt lat="49.45416" lon="-1.81053">
        <ele>11.8</ele>
        <time>2020-06-14T16:56:24Z</time>
      </trkpt>
      <trkpt lat="49.4542" lon="-1.81057">
        <ele>11.9</ele>
        <time>2020-06-14T16:56:25Z</time>
      </trkpt>
      <trkpt lat="49.45424" lon="-1.81061">
        <ele>11.9</ele>
        <time>2020-06-14T16:56:26Z</time>
      </trkpt>
      <trkpt lat="49.45428" lon="-1.81065">
        <ele>11.9</ele>
        <time>2020-06-14T16:56:27Z</time>
      </trkpt>
      <trkpt lat="49.45432" lon="-1.81068">
        <ele>11.9</ele>
        <time>2020-06-14T16:56:28Z</time>
      </trkpt>
      <trkpt lat="49.45436" lon="-1.81071">
        <ele>12</ele>
        <time>2020-06-14T16:56:29Z</time>
      </trkpt>
      <trkpt lat="49.45441" lon="-1.81075">
        <ele>12</ele>
        <time>2020-06-14T16:56:30Z</time>
      </trkpt>
      <trkpt lat="49.45445" lon="-1.8108">
        <ele>12</ele>
        <time>2020-06-14T16:56:31Z</time>
      </trkpt>
      <trkpt lat="49.45449" lon="-1.81084">
        <ele>12</ele>
        <time>2020-06-14T16:56:32Z</time>
      </trkpt>
      <trkpt lat="49.45453" lon="-1.8109">
        <ele>11.9</ele>
        <time>2020-06-14T16:56:33Z</time>
      </trkpt>
      <trkpt lat="49.45456" lon="-1.81094">
        <ele>11.9</ele>
        <time>2020-06-14T16:56:34Z</time>
      </trkpt>
      <trkpt lat="49.45461" lon="-1.81099">
        <ele>11.9</ele>
        <time>2020-06-14T16:56:35Z</time>
      </trkpt>
      <trkpt lat="49.45464" lon="-1.81104">
        <ele>11.8</ele>
        <time>2020-06-14T16:56:36Z</time>
      </trkpt>
      <trkpt lat="49.45469" lon="-1.81109">
        <ele>11.8</ele>
        <time>2020-06-14T16:56:37Z</time>
      </trkpt>
      <trkpt lat="49.45473" lon="-1.81113">
        <ele>11.8</ele>
        <time>2020-06-14T16:56:38Z</time>
      </trkpt>
      <trkpt lat="49.45477" lon="-1.81119">
        <ele>11.7</ele>
        <time>2020-06-14T16:56:39Z</time>
      </trkpt>
      <trkpt lat="49.45482" lon="-1.81124">
        <ele>11.7</ele>
        <time>2020-06-14T16:56:40Z</time>
      </trkpt>
      <trkpt lat="49.45487" lon="-1.81128">
        <ele>11.6</ele>
        <time>2020-06-14T16:56:41Z</time>
      </trkpt>
      <trkpt lat="49.45492" lon="-1.81132">
        <ele>11.6</ele>
        <time>2020-06-14T16:56:42Z</time>
      </trkpt>
      <trkpt lat="49.45497" lon="-1.81135">
        <ele>11.5</ele>
        <time>2020-06-14T16:56:43Z</time>
      </trkpt>
      <trkpt lat="49.45502" lon="-1.81139">
        <ele>11.4</ele>
        <time>2020-06-14T16:56:44Z</time>
      </trkpt>
      <trkpt lat="49.45506" lon="-1.81144">
        <ele>11.2</ele>
        <time>2020-06-14T16:56:45Z</time>
      </trkpt>
      <trkpt lat="49.45511" lon="-1.81149">
        <ele>11.1</ele>
        <time>2020-06-14T16:56:46Z</time>
      </trkpt>
      <trkpt lat="49.45515" lon="-1.81154">
        <ele>10.9</ele>
        <time>2020-06-14T16:56:47Z</time>
      </trkpt>
      <trkpt lat="49.4552" lon="-1.81158">
        <ele>10.7</ele>
        <time>2020-06-14T16:56:48Z</time>
      </trkpt>
      <trkpt lat="49.45525" lon="-1.81162">
        <ele>10.5</ele>
        <time>2020-06-14T16:56:49Z</time>
      </trkpt>
      <trkpt lat="49.45529" lon="-1.81167">
        <ele>10.3</ele>
        <time>2020-06-14T16:56:50Z</time>
      </trkpt>
      <trkpt lat="49.45534" lon="-1.81171">
        <ele>10.3</ele>
        <time>2020-06-14T16:56:51Z</time>
      </trkpt>
      <trkpt lat="49.45539" lon="-1.81175">
        <ele>10.3</ele>
        <time>2020-06-14T16:56:52Z</time>
      </trkpt>
      <trkpt lat="49.45544" lon="-1.8118">
        <ele>10.1</ele>
        <time>2020-06-14T16:56:53Z</time>
      </trkpt>
      <trkpt lat="49.45549" lon="-1.81186">
        <ele>9.9</ele>
        <time>2020-06-14T16:56:54Z</time>
      </trkpt>
      <trkpt lat="49.45554" lon="-1.8119">
        <ele>9.7</ele>
        <time>2020-06-14T16:56:55Z</time>
      </trkpt>
      <trkpt lat="49.4556" lon="-1.81194">
        <ele>9.6</ele>
        <time>2020-06-14T16:56:56Z</time>
      </trkpt>
      <trkpt lat="49.45566" lon="-1.81198">
        <ele>9.4</ele>
        <time>2020-06-14T16:56:57Z</time>
      </trkpt>
      <trkpt lat="49.45572" lon="-1.81203">
        <ele>9.3</ele>
        <time>2020-06-14T16:56:58Z</time>
      </trkpt>
      <trkpt lat="49.45577" lon="-1.81207">
        <ele>9.1</ele>
        <time>2020-06-14T16:56:59Z</time>
      </trkpt>
      <trkpt lat="49.45583" lon="-1.81208">
        <ele>9</ele>
        <time>2020-06-14T16:57:00Z</time>
      </trkpt>
      <trkpt lat="49.4559" lon="-1.8121">
        <ele>8.9</ele>
        <time>2020-06-14T16:57:01Z</time>
      </trkpt>
      <trkpt lat="49.45596" lon="-1.81212">
        <ele>8.8</ele>
        <time>2020-06-14T16:57:02Z</time>
      </trkpt>
      <trkpt lat="49.45602" lon="-1.81214">
        <ele>8.7</ele>
        <time>2020-06-14T16:57:03Z</time>
      </trkpt>
      <trkpt lat="49.45608" lon="-1.81215">
        <ele>8.6</ele>
        <time>2020-06-14T16:57:04Z</time>
      </trkpt>
      <trkpt lat="49.45615" lon="-1.81216">
        <ele>8.5</ele>
        <time>2020-06-14T16:57:05Z</time>
      </trkpt>
      <trkpt lat="49.45621" lon="-1.81217">
        <ele>8.4</ele>
        <time>2020-06-14T16:57:06Z</time>
      </trkpt>
      <trkpt lat="49.45627" lon="-1.81217">
        <ele>8.3</ele>
        <time>2020-06-14T16:57:07Z</time>
      </trkpt>
      <trkpt lat="49.45632" lon="-1.81217">
        <ele>8.3</ele>
        <time>2020-06-14T16:57:08Z</time>
      </trkpt>
      <trkpt lat="49.45638" lon="-1.81218">
        <ele>8.2</ele>
        <time>2020-06-14T16:57:09Z</time>
      </trkpt>
      <trkpt lat="49.45644" lon="-1.81219">
        <ele>8.1</ele>
        <time>2020-06-14T16:57:10Z</time>
      </trkpt>
      <trkpt lat="49.45651" lon="-1.81219">
        <ele>8</ele>
        <time>2020-06-14T16:57:11Z</time>
      </trkpt>
      <trkpt lat="49.45657" lon="-1.8122">
        <ele>8</ele>
        <time>2020-06-14T16:57:12Z</time>
      </trkpt>
      <trkpt lat="49.45664" lon="-1.81221">
        <ele>7.9</ele>
        <time>2020-06-14T16:57:13Z</time>
      </trkpt>
      <trkpt lat="49.45671" lon="-1.81222">
        <ele>7.8</ele>
        <time>2020-06-14T16:57:14Z</time>
      </trkpt>
      <trkpt lat="49.45677" lon="-1.81221">
        <ele>7.7</ele>
        <time>2020-06-14T16:57:15Z</time>
      </trkpt>
      <trkpt lat="49.45684" lon="-1.81221">
        <ele>7.7</ele>
        <time>2020-06-14T16:57:16Z</time>
      </trkpt>
      <trkpt lat="49.4569" lon="-1.81223">
        <ele>7.6</ele>
        <time>2020-06-14T16:57:17Z</time>
      </trkpt>
      <trkpt lat="49.45696" lon="-1.81223">
        <ele>7.5</ele>
        <time>2020-06-14T16:57:18Z</time>
      </trkpt>
      <trkpt lat="49.45703" lon="-1.81223">
        <ele>7.5</ele>
        <time>2020-06-14T16:57:19Z</time>
      </trkpt>
      <trkpt lat="49.45709" lon="-1.81224">
        <ele>7.4</ele>
        <time>2020-06-14T16:57:20Z</time>
      </trkpt>
      <trkpt lat="49.45715" lon="-1.81224">
        <ele>7.4</ele>
        <time>2020-06-14T16:57:21Z</time>
      </trkpt>
      <trkpt lat="49.45721" lon="-1.81224">
        <ele>7.4</ele>
        <time>2020-06-14T16:57:22Z</time>
      </trkpt>
      <trkpt lat="49.45728" lon="-1.81226">
        <ele>7.4</ele>
        <time>2020-06-14T16:57:23Z</time>
      </trkpt>
      <trkpt lat="49.45734" lon="-1.81227">
        <ele>7.4</ele>
        <time>2020-06-14T16:57:24Z</time>
      </trkpt>
      <trkpt lat="49.4574" lon="-1.8123">
        <ele>7.4</ele>
        <time>2020-06-14T16:57:25Z</time>
      </trkpt>
      <trkpt lat="49.45746" lon="-1.81232">
        <ele>7.4</ele>
        <time>2020-06-14T16:57:26Z</time>
      </trkpt>
      <trkpt lat="49.45752" lon="-1.81235">
        <ele>7.4</ele>
        <time>2020-06-14T16:57:27Z</time>
      </trkpt>
      <trkpt lat="49.45758" lon="-1.81238">
        <ele>7.4</ele>
        <time>2020-06-14T16:57:28Z</time>
      </trkpt>
      <trkpt lat="49.45763" lon="-1.81241">
        <ele>7.5</ele>
        <time>2020-06-14T16:57:29Z</time>
      </trkpt>
      <trkpt lat="49.45769" lon="-1.81244">
        <ele>7.5</ele>
        <time>2020-06-14T16:57:30Z</time>
      </trkpt>
      <trkpt lat="49.45775" lon="-1.81246">
        <ele>7.6</ele>
        <time>2020-06-14T16:57:31Z</time>
      </trkpt>
      <trkpt lat="49.45781" lon="-1.81249">
        <ele>7.7</ele>
        <time>2020-06-14T16:57:32Z</time>
      </trkpt>
      <trkpt lat="49.45786" lon="-1.81253">
        <ele>7.8</ele>
        <time>2020-06-14T16:57:33Z</time>
      </trkpt>
      <trkpt lat="49.45791" lon="-1.81256">
        <ele>7.8</ele>
        <time>2020-06-14T16:57:34Z</time>
      </trkpt>
      <trkpt lat="49.45796" lon="-1.8126">
        <ele>7.9</ele>
        <time>2020-06-14T16:57:35Z</time>
      </trkpt>
      <trkpt lat="49.45801" lon="-1.81263">
        <ele>7.9</ele>
        <time>2020-06-14T16:57:36Z</time>
      </trkpt>
      <trkpt lat="49.45805" lon="-1.81266">
        <ele>7.9</ele>
        <time>2020-06-14T16:57:37Z</time>
      </trkpt>
      <trkpt lat="49.4581" lon="-1.81269">
        <ele>7.9</ele>
        <time>2020-06-14T16:57:38Z</time>
      </trkpt>
      <trkpt lat="49.45815" lon="-1.81272">
        <ele>7.9</ele>
        <time>2020-06-14T16:57:39Z</time>
      </trkpt>
      <trkpt lat="49.45819" lon="-1.81276">
        <ele>7.9</ele>
        <time>2020-06-14T16:57:40Z</time>
      </trkpt>
      <trkpt lat="49.45823" lon="-1.81279">
        <ele>7.9</ele>
        <time>2020-06-14T16:57:41Z</time>
      </trkpt>
      <trkpt lat="49.45828" lon="-1.81281">
        <ele>7.9</ele>
        <time>2020-06-14T16:57:42Z</time>
      </trkpt>
      <trkpt lat="49.45833" lon="-1.81284">
        <ele>7.9</ele>
        <time>2020-06-14T16:57:43Z</time>
      </trkpt>
      <trkpt lat="49.45837" lon="-1.81287">
        <ele>8</ele>
        <time>2020-06-14T16:57:44Z</time>
      </trkpt>
      <trkpt lat="49.45842" lon="-1.81291">
        <ele>8</ele>
        <time>2020-06-14T16:57:45Z</time>
      </trkpt>
      <trkpt lat="49.45846" lon="-1.81295">
        <ele>8</ele>
        <time>2020-06-14T16:57:46Z</time>
      </trkpt>
      <trkpt lat="49.45851" lon="-1.81298">
        <ele>8</ele>
        <time>2020-06-14T16:57:47Z</time>
      </trkpt>
      <trkpt lat="49.45856" lon="-1.81299">
        <ele>8</ele>
        <time>2020-06-14T16:57:48Z</time>
      </trkpt>
      <trkpt lat="49.45861" lon="-1.81299">
        <ele>8.1</ele>
        <time>2020-06-14T16:57:49Z</time>
      </trkpt>
      <trkpt lat="49.45867" lon="-1.81298">
        <ele>8.2</ele>
        <time>2020-06-14T16:57:50Z</time>
      </trkpt>
      <trkpt lat="49.45872" lon="-1.81299">
        <ele>8.2</ele>
        <time>2020-06-14T16:57:51Z</time>
      </trkpt>
      <trkpt lat="49.45876" lon="-1.81299">
        <ele>8.3</ele>
        <time>2020-06-14T16:57:52Z</time>
      </trkpt>
      <trkpt lat="49.45881" lon="-1.81299">
        <ele>8.4</ele>
        <time>2020-06-14T16:57:53Z</time>
      </trkpt>
      <trkpt lat="49.45886" lon="-1.81301">
        <ele>8.5</ele>
        <time>2020-06-14T16:57:54Z</time>
      </trkpt>
      <trkpt lat="49.45891" lon="-1.81302">
        <ele>8.5</ele>
        <time>2020-06-14T16:57:55Z</time>
      </trkpt>
      <trkpt lat="49.45896" lon="-1.81304">
        <ele>8.4</ele>
        <time>2020-06-14T16:57:56Z</time>
      </trkpt>
      <trkpt lat="49.45901" lon="-1.81306">
        <ele>8.4</ele>
        <time>2020-06-14T16:57:57Z</time>
      </trkpt>
      <trkpt lat="49.45906" lon="-1.81307">
        <ele>8.3</ele>
        <time>2020-06-14T16:57:58Z</time>
      </trkpt>
      <trkpt lat="49.45911" lon="-1.81307">
        <ele>8.3</ele>
        <time>2020-06-14T16:57:59Z</time>
      </trkpt>
      <trkpt lat="49.45916" lon="-1.81307">
        <ele>8.3</ele>
        <time>2020-06-14T16:58:00Z</time>
      </trkpt>
      <trkpt lat="49.45921" lon="-1.81306">
        <ele>8.3</ele>
        <time>2020-06-14T16:58:01Z</time>
      </trkpt>
      <trkpt lat="49.45926" lon="-1.81308">
        <ele>8.2</ele>
        <time>2020-06-14T16:58:02Z</time>
      </trkpt>
      <trkpt lat="49.45931" lon="-1.8131">
        <ele>8.3</ele>
        <time>2020-06-14T16:58:03Z</time>
      </trkpt>
      <trkpt lat="49.45936" lon="-1.81311">
        <ele>8.3</ele>
        <time>2020-06-14T16:58:04Z</time>
      </trkpt>
      <trkpt lat="49.45941" lon="-1.81312">
        <ele>8.4</ele>
        <time>2020-06-14T16:58:05Z</time>
      </trkpt>
      <trkpt lat="49.45945" lon="-1.81312">
        <ele>8.6</ele>
        <time>2020-06-14T16:58:06Z</time>
      </trkpt>
      <trkpt lat="49.4595" lon="-1.81311">
        <ele>8.7</ele>
        <time>2020-06-14T16:58:07Z</time>
      </trkpt>
      <trkpt lat="49.45954" lon="-1.81307">
        <ele>8.9</ele>
        <time>2020-06-14T16:58:08Z</time>
      </trkpt>
      <trkpt lat="49.45958" lon="-1.81302">
        <ele>9</ele>
        <time>2020-06-14T16:58:09Z</time>
      </trkpt>
      <trkpt lat="49.45963" lon="-1.813">
        <ele>9.2</ele>
        <time>2020-06-14T16:58:10Z</time>
      </trkpt>
      <trkpt lat="49.45968" lon="-1.81298">
        <ele>9.4</ele>
        <time>2020-06-14T16:58:11Z</time>
      </trkpt>
      <trkpt lat="49.45973" lon="-1.81299">
        <ele>9.6</ele>
        <time>2020-06-14T16:58:12Z</time>
      </trkpt>
      <trkpt lat="49.45976" lon="-1.81299">
        <ele>9.8</ele>
        <time>2020-06-14T16:58:13Z</time>
      </trkpt>
      <trkpt lat="49.45979" lon="-1.81298">
        <ele>10</ele>
        <time>2020-06-14T16:58:14Z</time>
      </trkpt>
      <trkpt lat="49.45983" lon="-1.81299">
        <ele>10.1</ele>
        <time>2020-06-14T16:58:15Z</time>
      </trkpt>
      <trkpt lat="49.45986" lon="-1.81299">
        <ele>10.3</ele>
        <time>2020-06-14T16:58:16Z</time>
      </trkpt>
      <trkpt lat="49.45991" lon="-1.81295">
        <ele>10.6</ele>
        <time>2020-06-14T16:58:17Z</time>
      </trkpt>
      <trkpt lat="49.45993" lon="-1.81298">
        <ele>10.9</ele>
        <time>2020-06-14T16:58:18Z</time>
      </trkpt>
      <trkpt lat="49.45997" lon="-1.813">
        <ele>11.1</ele>
        <time>2020-06-14T16:58:19Z</time>
      </trkpt>
      <trkpt lat="49.45999" lon="-1.81302">
        <ele>11.3</ele>
        <time>2020-06-14T16:58:20Z</time>
      </trkpt>
      <trkpt lat="49.46003" lon="-1.813">
        <ele>11.5</ele>
        <time>2020-06-14T16:58:21Z</time>
      </trkpt>
      <trkpt lat="49.46006" lon="-1.813">
        <ele>11.7</ele>
        <time>2020-06-14T16:58:22Z</time>
      </trkpt>
      <trkpt lat="49.46009" lon="-1.81302">
        <ele>11.9</ele>
        <time>2020-06-14T16:58:23Z</time>
      </trkpt>
      <trkpt lat="49.46011" lon="-1.81305">
        <ele>12.2</ele>
        <time>2020-06-14T16:58:24Z</time>
      </trkpt>
      <trkpt lat="49.46014" lon="-1.81309">
        <ele>12.4</ele>
        <time>2020-06-14T16:58:25Z</time>
      </trkpt>
      <trkpt lat="49.46017" lon="-1.81314">
        <ele>12.6</ele>
        <time>2020-06-14T16:58:26Z</time>
      </trkpt>
      <trkpt lat="49.46019" lon="-1.81319">
        <ele>12.8</ele>
        <time>2020-06-14T16:58:27Z</time>
      </trkpt>
      <trkpt lat="49.46022" lon="-1.81323">
        <ele>12.9</ele>
        <time>2020-06-14T16:58:28Z</time>
      </trkpt>
      <trkpt lat="49.46024" lon="-1.81329">
        <ele>13.1</ele>
        <time>2020-06-14T16:58:29Z</time>
      </trkpt>
      <trkpt lat="49.46026" lon="-1.81334">
        <ele>13.3</ele>
        <time>2020-06-14T16:58:30Z</time>
      </trkpt>
      <trkpt lat="49.4603" lon="-1.8134">
        <ele>13.5</ele>
        <time>2020-06-14T16:58:31Z</time>
      </trkpt>
      <trkpt lat="49.46033" lon="-1.81346">
        <ele>13.7</ele>
        <time>2020-06-14T16:58:32Z</time>
      </trkpt>
      <trkpt lat="49.46038" lon="-1.8135">
        <ele>14</ele>
        <time>2020-06-14T16:58:33Z</time>
      </trkpt>
      <trkpt lat="49.46041" lon="-1.81354">
        <ele>14.1</ele>
        <time>2020-06-14T16:58:34Z</time>
      </trkpt>
      <trkpt lat="49.46045" lon="-1.81357">
        <ele>14.2</ele>
        <time>2020-06-14T16:58:35Z</time>
      </trkpt>
      <trkpt lat="49.46049" lon="-1.81362">
        <ele>14.3</ele>
        <time>2020-06-14T16:58:36Z</time>
      </trkpt>
      <trkpt lat="49.46052" lon="-1.81365">
        <ele>14.3</ele>
        <time>2020-06-14T16:58:37Z</time>
      </trkpt>
      <trkpt lat="49.46054" lon="-1.81368">
        <ele>14.4</ele>
        <time>2020-06-14T16:58:38Z</time>
      </trkpt>
      <trkpt lat="49.46058" lon="-1.81371">
        <ele>14.4</ele>
        <time>2020-06-14T16:58:39Z</time>
      </trkpt>
      <trkpt lat="49.46059" lon="-1.81373">
        <ele>14.4</ele>
        <time>2020-06-14T16:58:40Z</time>
      </trkpt>
      <trkpt lat="49.46062" lon="-1.81377">
        <ele>14.4</ele>
        <time>2020-06-14T16:58:41Z</time>
      </trkpt>
      <trkpt lat="49.46063" lon="-1.81379">
        <ele>14.4</ele>
        <time>2020-06-14T16:58:42Z</time>
      </trkpt>
      <trkpt lat="49.46066" lon="-1.81384">
        <ele>14.3</ele>
        <time>2020-06-14T16:58:43Z</time>
      </trkpt>
      <trkpt lat="49.46068" lon="-1.81389">
        <ele>14.3</ele>
        <time>2020-06-14T16:58:44Z</time>
      </trkpt>
      <trkpt lat="49.46071" lon="-1.81393">
        <ele>14.2</ele>
        <time>2020-06-14T16:58:45Z</time>
      </trkpt>
      <trkpt lat="49.46075" lon="-1.81399">
        <ele>14.1</ele>
        <time>2020-06-14T16:58:46Z</time>
      </trkpt>
      <trkpt lat="49.46078" lon="-1.81404">
        <ele>13.9</ele>
        <time>2020-06-14T16:58:47Z</time>
      </trkpt>
      <trkpt lat="49.46082" lon="-1.81411">
        <ele>13.7</ele>
        <time>2020-06-14T16:58:48Z</time>
      </trkpt>
      <trkpt lat="49.46086" lon="-1.81417">
        <ele>13.5</ele>
        <time>2020-06-14T16:58:49Z</time>
      </trkpt>
      <trkpt lat="49.4609" lon="-1.81422">
        <ele>13.3</ele>
        <time>2020-06-14T16:58:50Z</time>
      </trkpt>
      <trkpt lat="49.46093" lon="-1.81429">
        <ele>13</ele>
        <time>2020-06-14T16:58:51Z</time>
      </trkpt>
      <trkpt lat="49.46097" lon="-1.81436">
        <ele>12.8</ele>
        <time>2020-06-14T16:58:52Z</time>
      </trkpt>
      <trkpt lat="49.46098" lon="-1.81446">
        <ele>12.5</ele>
        <time>2020-06-14T16:58:53Z</time>
      </trkpt>
      <trkpt lat="49.46099" lon="-1.81455">
        <ele>12.3</ele>
        <time>2020-06-14T16:58:54Z</time>
      </trkpt>
      <trkpt lat="49.461" lon="-1.81466">
        <ele>12</ele>
        <time>2020-06-14T16:58:55Z</time>
      </trkpt>
      <trkpt lat="49.46101" lon="-1.81475">
        <ele>11.7</ele>
        <time>2020-06-14T16:58:56Z</time>
      </trkpt>
      <trkpt lat="49.46103" lon="-1.81486">
        <ele>11.5</ele>
        <time>2020-06-14T16:58:57Z</time>
      </trkpt>
      <trkpt lat="49.46104" lon="-1.81497">
        <ele>11.2</ele>
        <time>2020-06-14T16:58:58Z</time>
      </trkpt>
      <trkpt lat="49.46105" lon="-1.81508">
        <ele>11</ele>
        <time>2020-06-14T16:58:59Z</time>
      </trkpt>
      <trkpt lat="49.46107" lon="-1.81519">
        <ele>10.8</ele>
        <time>2020-06-14T16:59:00Z</time>
      </trkpt>
      <trkpt lat="49.46108" lon="-1.81529">
        <ele>10.6</ele>
        <time>2020-06-14T16:59:01Z</time>
      </trkpt>
      <trkpt lat="49.4611" lon="-1.81539">
        <ele>10.4</ele>
        <time>2020-06-14T16:59:02Z</time>
      </trkpt>
      <trkpt lat="49.46111" lon="-1.81549">
        <ele>10.1</ele>
        <time>2020-06-14T16:59:03Z</time>
      </trkpt>
      <trkpt lat="49.46113" lon="-1.81559">
        <ele>9.9</ele>
        <time>2020-06-14T16:59:04Z</time>
      </trkpt>
      <trkpt lat="49.46115" lon="-1.81569">
        <ele>9.8</ele>
        <time>2020-06-14T16:59:05Z</time>
      </trkpt>
      <trkpt lat="49.46117" lon="-1.8158">
        <ele>9.5</ele>
        <time>2020-06-14T16:59:06Z</time>
      </trkpt>
      <trkpt lat="49.46119" lon="-1.81591">
        <ele>9.3</ele>
        <time>2020-06-14T16:59:07Z</time>
      </trkpt>
      <trkpt lat="49.46121" lon="-1.81602">
        <ele>9.1</ele>
        <time>2020-06-14T16:59:08Z</time>
      </trkpt>
      <trkpt lat="49.46123" lon="-1.81613">
        <ele>9</ele>
        <time>2020-06-14T16:59:09Z</time>
      </trkpt>
      <trkpt lat="49.46125" lon="-1.81623">
        <ele>8.8</ele>
        <time>2020-06-14T16:59:10Z</time>
      </trkpt>
      <trkpt lat="49.46127" lon="-1.81634">
        <ele>8.7</ele>
        <time>2020-06-14T16:59:11Z</time>
      </trkpt>
      <trkpt lat="49.46128" lon="-1.81644">
        <ele>8.6</ele>
        <time>2020-06-14T16:59:12Z</time>
      </trkpt>
      <trkpt lat="49.4613" lon="-1.81655">
        <ele>8.4</ele>
        <time>2020-06-14T16:59:13Z</time>
      </trkpt>
      <trkpt lat="49.46133" lon="-1.81665">
        <ele>8.3</ele>
        <time>2020-06-14T16:59:14Z</time>
      </trkpt>
      <trkpt lat="49.46135" lon="-1.81675">
        <ele>8.2</ele>
        <time>2020-06-14T16:59:15Z</time>
      </trkpt>
      <trkpt lat="49.46137" lon="-1.81685">
        <ele>8.1</ele>
        <time>2020-06-14T16:59:16Z</time>
      </trkpt>
      <trkpt lat="49.46139" lon="-1.81696">
        <ele>7.9</ele>
        <time>2020-06-14T16:59:17Z</time>
      </trkpt>
      <trkpt lat="49.46141" lon="-1.81706">
        <ele>7.8</ele>
        <time>2020-06-14T16:59:18Z</time>
      </trkpt>
      <trkpt lat="49.46143" lon="-1.81716">
        <ele>7.6</ele>
        <time>2020-06-14T16:59:19Z</time>
      </trkpt>
      <trkpt lat="49.46145" lon="-1.81726">
        <ele>7.5</ele>
        <time>2020-06-14T16:59:20Z</time>
      </trkpt>
      <trkpt lat="49.46147" lon="-1.81736">
        <ele>7.5</ele>
        <time>2020-06-14T16:59:21Z</time>
      </trkpt>
      <trkpt lat="49.4615" lon="-1.81746">
        <ele>7.4</ele>
        <time>2020-06-14T16:59:22Z</time>
      </trkpt>
      <trkpt lat="49.46152" lon="-1.81756">
        <ele>7.3</ele>
        <time>2020-06-14T16:59:23Z</time>
      </trkpt>
      <trkpt lat="49.46154" lon="-1.81766">
        <ele>7.2</ele>
        <time>2020-06-14T16:59:24Z</time>
      </trkpt>
      <trkpt lat="49.46157" lon="-1.81776">
        <ele>7.2</ele>
        <time>2020-06-14T16:59:25Z</time>
      </trkpt>
      <trkpt lat="49.46158" lon="-1.81785">
        <ele>7.1</ele>
        <time>2020-06-14T16:59:26Z</time>
      </trkpt>
      <trkpt lat="49.4616" lon="-1.81795">
        <ele>7</ele>
        <time>2020-06-14T16:59:27Z</time>
      </trkpt>
      <trkpt lat="49.46161" lon="-1.81805">
        <ele>6.9</ele>
        <time>2020-06-14T16:59:28Z</time>
      </trkpt>
      <trkpt lat="49.46162" lon="-1.81816">
        <ele>6.9</ele>
        <time>2020-06-14T16:59:29Z</time>
      </trkpt>
      <trkpt lat="49.46163" lon="-1.81826">
        <ele>6.8</ele>
        <time>2020-06-14T16:59:30Z</time>
      </trkpt>
      <trkpt lat="49.46165" lon="-1.81835">
        <ele>6.8</ele>
        <time>2020-06-14T16:59:31Z</time>
      </trkpt>
      <trkpt lat="49.46167" lon="-1.81845">
        <ele>6.8</ele>
        <time>2020-06-14T16:59:32Z</time>
      </trkpt>
      <trkpt lat="49.46168" lon="-1.81854">
        <ele>6.8</ele>
        <time>2020-06-14T16:59:33Z</time>
      </trkpt>
      <trkpt lat="49.4617" lon="-1.81863">
        <ele>6.8</ele>
        <time>2020-06-14T16:59:34Z</time>
      </trkpt>
      <trkpt lat="49.46172" lon="-1.81872">
        <ele>6.9</ele>
        <time>2020-06-14T16:59:35Z</time>
      </trkpt>
      <trkpt lat="49.46174" lon="-1.81881">
        <ele>6.9</ele>
        <time>2020-06-14T16:59:36Z</time>
      </trkpt>
      <trkpt lat="49.46176" lon="-1.81889">
        <ele>6.9</ele>
        <time>2020-06-14T16:59:37Z</time>
      </trkpt>
      <trkpt lat="49.46178" lon="-1.81898">
        <ele>6.9</ele>
        <time>2020-06-14T16:59:38Z</time>
      </trkpt>
      <trkpt lat="49.46181" lon="-1.81906">
        <ele>6.8</ele>
        <time>2020-06-14T16:59:39Z</time>
      </trkpt>
      <trkpt lat="49.46185" lon="-1.81912">
        <ele>6.7</ele>
        <time>2020-06-14T16:59:40Z</time>
      </trkpt>
      <trkpt lat="49.4619" lon="-1.81917">
        <ele>6.7</ele>
        <time>2020-06-14T16:59:41Z</time>
      </trkpt>
      <trkpt lat="49.46195" lon="-1.81921">
        <ele>6.6</ele>
        <time>2020-06-14T16:59:42Z</time>
      </trkpt>
      <trkpt lat="49.462" lon="-1.81926">
        <ele>6.5</ele>
        <time>2020-06-14T16:59:43Z</time>
      </trkpt>
      <trkpt lat="49.46205" lon="-1.8193">
        <ele>6.5</ele>
        <time>2020-06-14T16:59:44Z</time>
      </trkpt>
      <trkpt lat="49.46209" lon="-1.81935">
        <ele>6.4</ele>
        <time>2020-06-14T16:59:45Z</time>
      </trkpt>
      <trkpt lat="49.46214" lon="-1.8194">
        <ele>6.4</ele>
        <time>2020-06-14T16:59:46Z</time>
      </trkpt>
      <trkpt lat="49.46218" lon="-1.81944">
        <ele>6.3</ele>
        <time>2020-06-14T16:59:47Z</time>
      </trkpt>
      <trkpt lat="49.46223" lon="-1.81949">
        <ele>6.4</ele>
        <time>2020-06-14T16:59:48Z</time>
      </trkpt>
      <trkpt lat="49.46228" lon="-1.81952">
        <ele>6.4</ele>
        <time>2020-06-14T16:59:49Z</time>
      </trkpt>
      <trkpt lat="49.46233" lon="-1.81955">
        <ele>6.4</ele>
        <time>2020-06-14T16:59:50Z</time>
      </trkpt>
      <trkpt lat="49.46237" lon="-1.81959">
        <ele>6.5</ele>
        <time>2020-06-14T16:59:51Z</time>
      </trkpt>
      <trkpt lat="49.46242" lon="-1.81964">
        <ele>6.6</ele>
        <time>2020-06-14T16:59:52Z</time>
      </trkpt>
      <trkpt lat="49.46246" lon="-1.81968">
        <ele>6.6</ele>
        <time>2020-06-14T16:59:53Z</time>
      </trkpt>
      <trkpt lat="49.4625" lon="-1.81973">
        <ele>6.7</ele>
        <time>2020-06-14T16:59:54Z</time>
      </trkpt>
      <trkpt lat="49.46254" lon="-1.81977">
        <ele>6.8</ele>
        <time>2020-06-14T16:59:55Z</time>
      </trkpt>
      <trkpt lat="49.46258" lon="-1.8198">
        <ele>6.9</ele>
        <time>2020-06-14T16:59:56Z</time>
      </trkpt>
      <trkpt lat="49.46263" lon="-1.81984">
        <ele>7.1</ele>
        <time>2020-06-14T16:59:57Z</time>
      </trkpt>
      <trkpt lat="49.46267" lon="-1.81988">
        <ele>7.2</ele>
        <time>2020-06-14T16:59:58Z</time>
      </trkpt>
      <trkpt lat="49.46271" lon="-1.81992">
        <ele>7.3</ele>
        <time>2020-06-14T16:59:59Z</time>
      </trkpt>
      <trkpt lat="49.46275" lon="-1.81996">
        <ele>7.5</ele>
        <time>2020-06-14T17:00:00Z</time>
      </trkpt>
      <trkpt lat="49.46279" lon="-1.82">
        <ele>7.6</ele>
        <time>2020-06-14T17:00:01Z</time>
      </trkpt>
      <trkpt lat="49.46283" lon="-1.82004">
        <ele>7.7</ele>
        <time>2020-06-14T17:00:02Z</time>
      </trkpt>
      <trkpt lat="49.46287" lon="-1.82009">
        <ele>7.8</ele>
        <time>2020-06-14T17:00:03Z</time>
      </trkpt>
      <trkpt lat="49.46291" lon="-1.82013">
        <ele>7.9</ele>
        <time>2020-06-14T17:00:04Z</time>
      </trkpt>
      <trkpt lat="49.46295" lon="-1.82017">
        <ele>8</ele>
        <time>2020-06-14T17:00:05Z</time>
      </trkpt>
      <trkpt lat="49.46298" lon="-1.82022">
        <ele>8</ele>
        <time>2020-06-14T17:00:06Z</time>
      </trkpt>
      <trkpt lat="49.46302" lon="-1.82026">
        <ele>8.1</ele>
        <time>2020-06-14T17:00:07Z</time>
      </trkpt>
      <trkpt lat="49.46306" lon="-1.82031">
        <ele>8.2</ele>
        <time>2020-06-14T17:00:08Z</time>
      </trkpt>
      <trkpt lat="49.46309" lon="-1.82036">
        <ele>8.3</ele>
        <time>2020-06-14T17:00:09Z</time>
      </trkpt>
      <trkpt lat="49.46313" lon="-1.82041">
        <ele>8.4</ele>
        <time>2020-06-14T17:00:10Z</time>
      </trkpt>
      <trkpt lat="49.46317" lon="-1.82046">
        <ele>8.5</ele>
        <time>2020-06-14T17:00:11Z</time>
      </trkpt>
      <trkpt lat="49.46321" lon="-1.8205">
        <ele>8.5</ele>
        <time>2020-06-14T17:00:12Z</time>
      </trkpt>
      <trkpt lat="49.46324" lon="-1.82055">
        <ele>8.6</ele>
        <time>2020-06-14T17:00:13Z</time>
      </trkpt>
      <trkpt lat="49.46328" lon="-1.8206">
        <ele>8.7</ele>
        <time>2020-06-14T17:00:14Z</time>
      </trkpt>
      <trkpt lat="49.46331" lon="-1.82066">
        <ele>8.8</ele>
        <time>2020-06-14T17:00:15Z</time>
      </trkpt>
      <trkpt lat="49.46334" lon="-1.82071">
        <ele>8.9</ele>
        <time>2020-06-14T17:00:16Z</time>
      </trkpt>
      <trkpt lat="49.46337" lon="-1.82076">
        <ele>9</ele>
        <time>2020-06-14T17:00:17Z</time>
      </trkpt>
      <trkpt lat="49.46341" lon="-1.8208">
        <ele>9.1</ele>
        <time>2020-06-14T17:00:18Z</time>
      </trkpt>
      <trkpt lat="49.46345" lon="-1.82086">
        <ele>9.3</ele>
        <time>2020-06-14T17:00:19Z</time>
      </trkpt>
      <trkpt lat="49.46348" lon="-1.82091">
        <ele>9.4</ele>
        <time>2020-06-14T17:00:20Z</time>
      </trkpt>
      <trkpt lat="49.46352" lon="-1.82095">
        <ele>9.5</ele>
        <time>2020-06-14T17:00:21Z</time>
      </trkpt>
      <trkpt lat="49.46356" lon="-1.821">
        <ele>9.5</ele>
        <time>2020-06-14T17:00:22Z</time>
      </trkpt>
      <trkpt lat="49.46359" lon="-1.82105">
        <ele>9.6</ele>
        <time>2020-06-14T17:00:23Z</time>
      </trkpt>
      <trkpt lat="49.46363" lon="-1.8211">
        <ele>9.6</ele>
        <time>2020-06-14T17:00:24Z</time>
      </trkpt>
      <trkpt lat="49.46367" lon="-1.82114">
        <ele>9.7</ele>
        <time>2020-06-14T17:00:25Z</time>
      </trkpt>
      <trkpt lat="49.46372" lon="-1.82114">
        <ele>9.7</ele>
        <time>2020-06-14T17:00:26Z</time>
      </trkpt>
      <trkpt lat="49.46377" lon="-1.82115">
        <ele>9.8</ele>
        <time>2020-06-14T17:00:27Z</time>
      </trkpt>
      <trkpt lat="49.46381" lon="-1.82116">
        <ele>9.8</ele>
        <time>2020-06-14T17:00:28Z</time>
      </trkpt>
      <trkpt lat="49.46386" lon="-1.82118">
        <ele>9.9</ele>
        <time>2020-06-14T17:00:29Z</time>
      </trkpt>
      <trkpt lat="49.46391" lon="-1.82119">
        <ele>9.9</ele>
        <time>2020-06-14T17:00:30Z</time>
      </trkpt>
      <trkpt lat="49.46396" lon="-1.82122">
        <ele>9.9</ele>
        <time>2020-06-14T17:00:31Z</time>
      </trkpt>
      <trkpt lat="49.464" lon="-1.82125">
        <ele>10</ele>
        <time>2020-06-14T17:00:32Z</time>
      </trkpt>
      <trkpt lat="49.46405" lon="-1.82128">
        <ele>10</ele>
        <time>2020-06-14T17:00:33Z</time>
      </trkpt>
      <trkpt lat="49.46409" lon="-1.82132">
        <ele>10</ele>
        <time>2020-06-14T17:00:34Z</time>
      </trkpt>
      <trkpt lat="49.46414" lon="-1.82134">
        <ele>10</ele>
        <time>2020-06-14T17:00:35Z</time>
      </trkpt>
      <trkpt lat="49.46418" lon="-1.82137">
        <ele>10</ele>
        <time>2020-06-14T17:00:36Z</time>
      </trkpt>
      <trkpt lat="49.46422" lon="-1.82139">
        <ele>10</ele>
        <time>2020-06-14T17:00:37Z</time>
      </trkpt>
      <trkpt lat="49.46427" lon="-1.82143">
        <ele>10</ele>
        <time>2020-06-14T17:00:38Z</time>
      </trkpt>
      <trkpt lat="49.46431" lon="-1.82147">
        <ele>10</ele>
        <time>2020-06-14T17:00:39Z</time>
      </trkpt>
      <trkpt lat="49.46436" lon="-1.82152">
        <ele>10</ele>
        <time>2020-06-14T17:00:40Z</time>
      </trkpt>
      <trkpt lat="49.4644" lon="-1.82157">
        <ele>10</ele>
        <time>2020-06-14T17:00:41Z</time>
      </trkpt>
      <trkpt lat="49.46444" lon="-1.82161">
        <ele>10</ele>
        <time>2020-06-14T17:00:42Z</time>
      </trkpt>
      <trkpt lat="49.46449" lon="-1.82166">
        <ele>10</ele>
        <time>2020-06-14T17:00:43Z</time>
      </trkpt>
      <trkpt lat="49.46453" lon="-1.8217">
        <ele>9.9</ele>
        <time>2020-06-14T17:00:44Z</time>
      </trkpt>
      <trkpt lat="49.46458" lon="-1.82173">
        <ele>9.9</ele>
        <time>2020-06-14T17:00:45Z</time>
      </trkpt>
      <trkpt lat="49.46463" lon="-1.82177">
        <ele>9.9</ele>
        <time>2020-06-14T17:00:46Z</time>
      </trkpt>
      <trkpt lat="49.46468" lon="-1.8218">
        <ele>9.9</ele>
        <time>2020-06-14T17:00:47Z</time>
      </trkpt>
      <trkpt lat="49.46473" lon="-1.82184">
        <ele>9.9</ele>
        <time>2020-06-14T17:00:48Z</time>
      </trkpt>
      <trkpt lat="49.46478" lon="-1.82188">
        <ele>9.8</ele>
        <time>2020-06-14T17:00:49Z</time>
      </trkpt>
      <trkpt lat="49.46482" lon="-1.82193">
        <ele>9.8</ele>
        <time>2020-06-14T17:00:50Z</time>
      </trkpt>
      <trkpt lat="49.46486" lon="-1.82199">
        <ele>9.8</ele>
        <time>2020-06-14T17:00:51Z</time>
      </trkpt>
      <trkpt lat="49.46489" lon="-1.82205">
        <ele>9.7</ele>
        <time>2020-06-14T17:00:52Z</time>
      </trkpt>
      <trkpt lat="49.46493" lon="-1.82211">
        <ele>9.7</ele>
        <time>2020-06-14T17:00:53Z</time>
      </trkpt>
      <trkpt lat="49.46497" lon="-1.82215">
        <ele>9.7</ele>
        <time>2020-06-14T17:00:54Z</time>
      </trkpt>
      <trkpt lat="49.46501" lon="-1.8222">
        <ele>9.7</ele>
        <time>2020-06-14T17:00:55Z</time>
      </trkpt>
      <trkpt lat="49.46505" lon="-1.82225">
        <ele>9.7</ele>
        <time>2020-06-14T17:00:56Z</time>
      </trkpt>
      <trkpt lat="49.46509" lon="-1.82229">
        <ele>9.6</ele>
        <time>2020-06-14T17:00:57Z</time>
      </trkpt>
      <trkpt lat="49.46513" lon="-1.82235">
        <ele>9.6</ele>
        <time>2020-06-14T17:00:58Z</time>
      </trkpt>
      <trkpt lat="49.46517" lon="-1.82241">
        <ele>9.5</ele>
        <time>2020-06-14T17:00:59Z</time>
      </trkpt>
      <trkpt lat="49.46521" lon="-1.82247">
        <ele>9.4</ele>
        <time>2020-06-14T17:01:00Z</time>
      </trkpt>
      <trkpt lat="49.46525" lon="-1.82253">
        <ele>9.3</ele>
        <time>2020-06-14T17:01:01Z</time>
      </trkpt>
      <trkpt lat="49.46529" lon="-1.8226">
        <ele>9.2</ele>
        <time>2020-06-14T17:01:02Z</time>
      </trkpt>
      <trkpt lat="49.46533" lon="-1.82266">
        <ele>9.1</ele>
        <time>2020-06-14T17:01:03Z</time>
      </trkpt>
      <trkpt lat="49.46536" lon="-1.82274">
        <ele>8.9</ele>
        <time>2020-06-14T17:01:04Z</time>
      </trkpt>
      <trkpt lat="49.4654" lon="-1.82281">
        <ele>8.8</ele>
        <time>2020-06-14T17:01:05Z</time>
      </trkpt>
      <trkpt lat="49.46544" lon="-1.82288">
        <ele>8.6</ele>
        <time>2020-06-14T17:01:06Z</time>
      </trkpt>
      <trkpt lat="49.46548" lon="-1.82295">
        <ele>8.4</ele>
        <time>2020-06-14T17:01:07Z</time>
      </trkpt>
      <trkpt lat="49.46551" lon="-1.82303">
        <ele>8.3</ele>
        <time>2020-06-14T17:01:08Z</time>
      </trkpt>
      <trkpt lat="49.46555" lon="-1.8231">
        <ele>8.2</ele>
        <time>2020-06-14T17:01:09Z</time>
      </trkpt>
      <trkpt lat="49.46559" lon="-1.82318">
        <ele>8</ele>
        <time>2020-06-14T17:01:10Z</time>
      </trkpt>
      <trkpt lat="49.46562" lon="-1.82325">
        <ele>7.9</ele>
        <time>2020-06-14T17:01:11Z</time>
      </trkpt>
      <trkpt lat="49.46567" lon="-1.82333">
        <ele>7.8</ele>
        <time>2020-06-14T17:01:12Z</time>
      </trkpt>
      <trkpt lat="49.4657" lon="-1.82341">
        <ele>7.6</ele>
        <time>2020-06-14T17:01:13Z</time>
      </trkpt>
      <trkpt lat="49.46573" lon="-1.82349">
        <ele>7.5</ele>
        <time>2020-06-14T17:01:14Z</time>
      </trkpt>
      <trkpt lat="49.46577" lon="-1.82357">
        <ele>7.3</ele>
        <time>2020-06-14T17:01:15Z</time>
      </trkpt>
      <trkpt lat="49.46581" lon="-1.82365">
        <ele>7.2</ele>
        <time>2020-06-14T17:01:16Z</time>
      </trkpt>
      <trkpt lat="49.46585" lon="-1.82372">
        <ele>7</ele>
        <time>2020-06-14T17:01:17Z</time>
      </trkpt>
      <trkpt lat="49.46588" lon="-1.8238">
        <ele>6.8</ele>
        <time>2020-06-14T17:01:18Z</time>
      </trkpt>
      <trkpt lat="49.46593" lon="-1.82387">
        <ele>6.7</ele>
        <time>2020-06-14T17:01:19Z</time>
      </trkpt>
      <trkpt lat="49.46597" lon="-1.82394">
        <ele>6.6</ele>
        <time>2020-06-14T17:01:20Z</time>
      </trkpt>
      <trkpt lat="49.46601" lon="-1.82402">
        <ele>6.5</ele>
        <time>2020-06-14T17:01:21Z</time>
      </trkpt>
      <trkpt lat="49.46605" lon="-1.8241">
        <ele>6.4</ele>
        <time>2020-06-14T17:01:22Z</time>
      </trkpt>
      <trkpt lat="49.46609" lon="-1.82417">
        <ele>6.3</ele>
        <time>2020-06-14T17:01:23Z</time>
      </trkpt>
      <trkpt lat="49.46614" lon="-1.82424">
        <ele>6.3</ele>
        <time>2020-06-14T17:01:24Z</time>
      </trkpt>
      <trkpt lat="49.46617" lon="-1.82432">
        <ele>6.2</ele>
        <time>2020-06-14T17:01:25Z</time>
      </trkpt>
      <trkpt lat="49.46621" lon="-1.8244">
        <ele>6.1</ele>
        <time>2020-06-14T17:01:26Z</time>
      </trkpt>
      <trkpt lat="49.46625" lon="-1.82447">
        <ele>6</ele>
        <time>2020-06-14T17:01:27Z</time>
      </trkpt>
      <trkpt lat="49.46629" lon="-1.82455">
        <ele>6</ele>
        <time>2020-06-14T17:01:28Z</time>
      </trkpt>
      <trkpt lat="49.46633" lon="-1.82462">
        <ele>5.9</ele>
        <time>2020-06-14T17:01:29Z</time>
      </trkpt>
      <trkpt lat="49.46636" lon="-1.82469">
        <ele>5.8</ele>
        <time>2020-06-14T17:01:30Z</time>
      </trkpt>
      <trkpt lat="49.4664" lon="-1.82476">
        <ele>5.6</ele>
        <time>2020-06-14T17:01:31Z</time>
      </trkpt>
      <trkpt lat="49.46644" lon="-1.82483">
        <ele>5.5</ele>
        <time>2020-06-14T17:01:32Z</time>
      </trkpt>
      <trkpt lat="49.46648" lon="-1.82491">
        <ele>5.5</ele>
        <time>2020-06-14T17:01:33Z</time>
      </trkpt>
      <trkpt lat="49.46652" lon="-1.82498">
        <ele>5.4</ele>
        <time>2020-06-14T17:01:34Z</time>
      </trkpt>
      <trkpt lat="49.46656" lon="-1.82505">
        <ele>5.3</ele>
        <time>2020-06-14T17:01:35Z</time>
      </trkpt>
      <trkpt lat="49.46659" lon="-1.82513">
        <ele>5.3</ele>
        <time>2020-06-14T17:01:36Z</time>
      </trkpt>
      <trkpt lat="49.46663" lon="-1.8252">
        <ele>5.3</ele>
        <time>2020-06-14T17:01:37Z</time>
      </trkpt>
      <trkpt lat="49.46667" lon="-1.82528">
        <ele>5.3</ele>
        <time>2020-06-14T17:01:38Z</time>
      </trkpt>
      <trkpt lat="49.4667" lon="-1.82536">
        <ele>5.2</ele>
        <time>2020-06-14T17:01:39Z</time>
      </trkpt>
      <trkpt lat="49.46675" lon="-1.82543">
        <ele>5.2</ele>
        <time>2020-06-14T17:01:40Z</time>
      </trkpt>
      <trkpt lat="49.46678" lon="-1.8255">
        <ele>5.2</ele>
        <time>2020-06-14T17:01:41Z</time>
      </trkpt>
      <trkpt lat="49.46681" lon="-1.82558">
        <ele>5.3</ele>
        <time>2020-06-14T17:01:42Z</time>
      </trkpt>
      <trkpt lat="49.46685" lon="-1.82565">
        <ele>5.3</ele>
        <time>2020-06-14T17:01:43Z</time>
      </trkpt>
      <trkpt lat="49.46689" lon="-1.82572">
        <ele>5.3</ele>
        <time>2020-06-14T17:01:44Z</time>
      </trkpt>
      <trkpt lat="49.46693" lon="-1.82578">
        <ele>5.4</ele>
        <time>2020-06-14T17:01:45Z</time>
      </trkpt>
      <trkpt lat="49.46696" lon="-1.82585">
        <ele>5.5</ele>
        <time>2020-06-14T17:01:46Z</time>
      </trkpt>
      <trkpt lat="49.46699" lon="-1.82592">
        <ele>5.6</ele>
        <time>2020-06-14T17:01:47Z</time>
      </trkpt>
      <trkpt lat="49.46703" lon="-1.82599">
        <ele>5.6</ele>
        <time>2020-06-14T17:01:48Z</time>
      </trkpt>
      <trkpt lat="49.46708" lon="-1.82604">
        <ele>5.7</ele>
        <time>2020-06-14T17:01:49Z</time>
      </trkpt>
      <trkpt lat="49.46711" lon="-1.8261">
        <ele>5.8</ele>
        <time>2020-06-14T17:01:50Z</time>
      </trkpt>
      <trkpt lat="49.46714" lon="-1.82616">
        <ele>5.9</ele>
        <time>2020-06-14T17:01:51Z</time>
      </trkpt>
      <trkpt lat="49.46717" lon="-1.82623">
        <ele>6</ele>
        <time>2020-06-14T17:01:52Z</time>
      </trkpt>
      <trkpt lat="49.4672" lon="-1.82629">
        <ele>6.1</ele>
        <time>2020-06-14T17:01:53Z</time>
      </trkpt>
      <trkpt lat="49.46723" lon="-1.82635">
        <ele>6.1</ele>
        <time>2020-06-14T17:01:54Z</time>
      </trkpt>
      <trkpt lat="49.46725" lon="-1.82642">
        <ele>6.2</ele>
        <time>2020-06-14T17:01:55Z</time>
      </trkpt>
      <trkpt lat="49.46728" lon="-1.82648">
        <ele>6.3</ele>
        <time>2020-06-14T17:01:56Z</time>
      </trkpt>
      <trkpt lat="49.46731" lon="-1.82654">
        <ele>6.4</ele>
        <time>2020-06-14T17:01:57Z</time>
      </trkpt>
      <trkpt lat="49.46734" lon="-1.8266">
        <ele>6.5</ele>
        <time>2020-06-14T17:01:58Z</time>
      </trkpt>
      <trkpt lat="49.46737" lon="-1.82666">
        <ele>6.5</ele>
        <time>2020-06-14T17:01:59Z</time>
      </trkpt>
      <trkpt lat="49.4674" lon="-1.82671">
        <ele>6.6</ele>
        <time>2020-06-14T17:02:00Z</time>
      </trkpt>
      <trkpt lat="49.46743" lon="-1.82676">
        <ele>6.6</ele>
        <time>2020-06-14T17:02:01Z</time>
      </trkpt>
      <trkpt lat="49.46745" lon="-1.82683">
        <ele>6.6</ele>
        <time>2020-06-14T17:02:02Z</time>
      </trkpt>
      <trkpt lat="49.46748" lon="-1.82688">
        <ele>6.7</ele>
        <time>2020-06-14T17:02:03Z</time>
      </trkpt>
      <trkpt lat="49.46752" lon="-1.82693">
        <ele>6.7</ele>
        <time>2020-06-14T17:02:04Z</time>
      </trkpt>
      <trkpt lat="49.46754" lon="-1.82699">
        <ele>6.7</ele>
        <time>2020-06-14T17:02:05Z</time>
      </trkpt>
      <trkpt lat="49.46758" lon="-1.82704">
        <ele>6.7</ele>
        <time>2020-06-14T17:02:06Z</time>
      </trkpt>
      <trkpt lat="49.46761" lon="-1.8271">
        <ele>6.7</ele>
        <time>2020-06-14T17:02:07Z</time>
      </trkpt>
      <trkpt lat="49.46764" lon="-1.82716">
        <ele>6.7</ele>
        <time>2020-06-14T17:02:08Z</time>
      </trkpt>
      <trkpt lat="49.46767" lon="-1.82722">
        <ele>6.7</ele>
        <time>2020-06-14T17:02:09Z</time>
      </trkpt>
      <trkpt lat="49.46771" lon="-1.82729">
        <ele>6.7</ele>
        <time>2020-06-14T17:02:10Z</time>
      </trkpt>
      <trkpt lat="49.46774" lon="-1.82735">
        <ele>6.7</ele>
        <time>2020-06-14T17:02:11Z</time>
      </trkpt>
      <trkpt lat="49.46778" lon="-1.82741">
        <ele>6.7</ele>
        <time>2020-06-14T17:02:12Z</time>
      </trkpt>
      <trkpt lat="49.46781" lon="-1.82747">
        <ele>6.7</ele>
        <time>2020-06-14T17:02:13Z</time>
      </trkpt>
      <trkpt lat="49.46785" lon="-1.82754">
        <ele>6.6</ele>
        <time>2020-06-14T17:02:14Z</time>
      </trkpt>
      <trkpt lat="49.46788" lon="-1.8276">
        <ele>6.6</ele>
        <time>2020-06-14T17:02:15Z</time>
      </trkpt>
      <trkpt lat="49.46792" lon="-1.82766">
        <ele>6.6</ele>
        <time>2020-06-14T17:02:16Z</time>
      </trkpt>
      <trkpt lat="49.46795" lon="-1.82772">
        <ele>6.6</ele>
        <time>2020-06-14T17:02:17Z</time>
      </trkpt>
      <trkpt lat="49.46799" lon="-1.82779">
        <ele>6.5</ele>
        <time>2020-06-14T17:02:18Z</time>
      </trkpt>
      <trkpt lat="49.46802" lon="-1.82785">
        <ele>6.5</ele>
        <time>2020-06-14T17:02:19Z</time>
      </trkpt>
      <trkpt lat="49.46806" lon="-1.82791">
        <ele>6.4</ele>
        <time>2020-06-14T17:02:20Z</time>
      </trkpt>
      <trkpt lat="49.46809" lon="-1.82797">
        <ele>6.4</ele>
        <time>2020-06-14T17:02:21Z</time>
      </trkpt>
      <trkpt lat="49.46811" lon="-1.82804">
        <ele>6.3</ele>
        <time>2020-06-14T17:02:22Z</time>
      </trkpt>
      <trkpt lat="49.46814" lon="-1.82811">
        <ele>6.2</ele>
        <time>2020-06-14T17:02:23Z</time>
      </trkpt>
      <trkpt lat="49.46818" lon="-1.82816">
        <ele>6.2</ele>
        <time>2020-06-14T17:02:24Z</time>
      </trkpt>
      <trkpt lat="49.46822" lon="-1.82821">
        <ele>6.2</ele>
        <time>2020-06-14T17:02:25Z</time>
      </trkpt>
      <trkpt lat="49.46826" lon="-1.82827">
        <ele>6.1</ele>
        <time>2020-06-14T17:02:26Z</time>
      </trkpt>
      <trkpt lat="49.46829" lon="-1.82833">
        <ele>6</ele>
        <time>2020-06-14T17:02:27Z</time>
      </trkpt>
      <trkpt lat="49.46832" lon="-1.8284">
        <ele>5.9</ele>
        <time>2020-06-14T17:02:28Z</time>
      </trkpt>
      <trkpt lat="49.46836" lon="-1.82846">
        <ele>5.9</ele>
        <time>2020-06-14T17:02:29Z</time>
      </trkpt>
      <trkpt lat="49.4684" lon="-1.82852">
        <ele>5.8</ele>
        <time>2020-06-14T17:02:30Z</time>
      </trkpt>
      <trkpt lat="49.46843" lon="-1.82858">
        <ele>5.7</ele>
        <time>2020-06-14T17:02:31Z</time>
      </trkpt>
      <trkpt lat="49.46847" lon="-1.82864">
        <ele>5.7</ele>
        <time>2020-06-14T17:02:32Z</time>
      </trkpt>
      <trkpt lat="49.4685" lon="-1.8287">
        <ele>5.6</ele>
        <time>2020-06-14T17:02:33Z</time>
      </trkpt>
      <trkpt lat="49.46854" lon="-1.82876">
        <ele>5.5</ele>
        <time>2020-06-14T17:02:34Z</time>
      </trkpt>
      <trkpt lat="49.46858" lon="-1.82881">
        <ele>5.5</ele>
        <time>2020-06-14T17:02:35Z</time>
      </trkpt>
      <trkpt lat="49.46861" lon="-1.82886">
        <ele>5.4</ele>
        <time>2020-06-14T17:02:36Z</time>
      </trkpt>
      <trkpt lat="49.46866" lon="-1.82892">
        <ele>5.4</ele>
        <time>2020-06-14T17:02:37Z</time>
      </trkpt>
      <trkpt lat="49.4687" lon="-1.82898">
        <ele>5.3</ele>
        <time>2020-06-14T17:02:38Z</time>
      </trkpt>
      <trkpt lat="49.46874" lon="-1.82904">
        <ele>5.2</ele>
        <time>2020-06-14T17:02:39Z</time>
      </trkpt>
      <trkpt lat="49.46878" lon="-1.8291">
        <ele>5.2</ele>
        <time>2020-06-14T17:02:40Z</time>
      </trkpt>
      <trkpt lat="49.46882" lon="-1.82915">
        <ele>5.2</ele>
        <time>2020-06-14T17:02:41Z</time>
      </trkpt>
      <trkpt lat="49.46886" lon="-1.82921">
        <ele>5.2</ele>
        <time>2020-06-14T17:02:42Z</time>
      </trkpt>
      <trkpt lat="49.46891" lon="-1.82926">
        <ele>5.1</ele>
        <time>2020-06-14T17:02:43Z</time>
      </trkpt>
      <trkpt lat="49.46896" lon="-1.82931">
        <ele>5.1</ele>
        <time>2020-06-14T17:02:44Z</time>
      </trkpt>
      <trkpt lat="49.46901" lon="-1.82934">
        <ele>5.1</ele>
        <time>2020-06-14T17:02:45Z</time>
      </trkpt>
      <trkpt lat="49.46907" lon="-1.82938">
        <ele>5.2</ele>
        <time>2020-06-14T17:02:46Z</time>
      </trkpt>
      <trkpt lat="49.46911" lon="-1.82943">
        <ele>5.2</ele>
        <time>2020-06-14T17:02:47Z</time>
      </trkpt>
      <trkpt lat="49.46916" lon="-1.82947">
        <ele>5.2</ele>
        <time>2020-06-14T17:02:48Z</time>
      </trkpt>
      <trkpt lat="49.4692" lon="-1.82954">
        <ele>5.2</ele>
        <time>2020-06-14T17:02:49Z</time>
      </trkpt>
      <trkpt lat="49.46925" lon="-1.82959">
        <ele>5.2</ele>
        <time>2020-06-14T17:02:50Z</time>
      </trkpt>
      <trkpt lat="49.46929" lon="-1.82964">
        <ele>5.3</ele>
        <time>2020-06-14T17:02:51Z</time>
      </trkpt>
      <trkpt lat="49.46933" lon="-1.82969">
        <ele>5.3</ele>
        <time>2020-06-14T17:02:52Z</time>
      </trkpt>
      <trkpt lat="49.46938" lon="-1.82973">
        <ele>5.4</ele>
        <time>2020-06-14T17:02:53Z</time>
      </trkpt>
      <trkpt lat="49.46942" lon="-1.82978">
        <ele>5.5</ele>
        <time>2020-06-14T17:02:54Z</time>
      </trkpt>
      <trkpt lat="49.46945" lon="-1.82983">
        <ele>5.5</ele>
        <time>2020-06-14T17:02:55Z</time>
      </trkpt>
      <trkpt lat="49.46949" lon="-1.82988">
        <ele>5.6</ele>
        <time>2020-06-14T17:02:56Z</time>
      </trkpt>
      <trkpt lat="49.46952" lon="-1.82993">
        <ele>5.7</ele>
        <time>2020-06-14T17:02:57Z</time>
      </trkpt>
      <trkpt lat="49.46955" lon="-1.83">
        <ele>5.7</ele>
        <time>2020-06-14T17:02:58Z</time>
      </trkpt>
      <trkpt lat="49.46959" lon="-1.83004">
        <ele>5.8</ele>
        <time>2020-06-14T17:02:59Z</time>
      </trkpt>
      <trkpt lat="49.46963" lon="-1.83007">
        <ele>5.9</ele>
        <time>2020-06-14T17:03:00Z</time>
      </trkpt>
      <trkpt lat="49.46966" lon="-1.83011">
        <ele>6</ele>
        <time>2020-06-14T17:03:01Z</time>
      </trkpt>
      <trkpt lat="49.46969" lon="-1.83016">
        <ele>6</ele>
        <time>2020-06-14T17:03:02Z</time>
      </trkpt>
      <trkpt lat="49.46972" lon="-1.83021">
        <ele>6.1</ele>
        <time>2020-06-14T17:03:03Z</time>
      </trkpt>
      <trkpt lat="49.46976" lon="-1.83026">
        <ele>6.1</ele>
        <time>2020-06-14T17:03:04Z</time>
      </trkpt>
      <trkpt lat="49.46979" lon="-1.8303">
        <ele>6.2</ele>
        <time>2020-06-14T17:03:05Z</time>
      </trkpt>
      <trkpt lat="49.46982" lon="-1.83034">
        <ele>6.3</ele>
        <time>2020-06-14T17:03:06Z</time>
      </trkpt>
      <trkpt lat="49.46986" lon="-1.83038">
        <ele>6.4</ele>
        <time>2020-06-14T17:03:07Z</time>
      </trkpt>
      <trkpt lat="49.46989" lon="-1.83043">
        <ele>6.4</ele>
        <time>2020-06-14T17:03:08Z</time>
      </trkpt>
      <trkpt lat="49.46992" lon="-1.83048">
        <ele>6.5</ele>
        <time>2020-06-14T17:03:09Z</time>
      </trkpt>
      <trkpt lat="49.46996" lon="-1.83053">
        <ele>6.6</ele>
        <time>2020-06-14T17:03:10Z</time>
      </trkpt>
      <trkpt lat="49.46999" lon="-1.83058">
        <ele>6.7</ele>
        <time>2020-06-14T17:03:11Z</time>
      </trkpt>
      <trkpt lat="49.47002" lon="-1.83063">
        <ele>6.6</ele>
        <time>2020-06-14T17:03:12Z</time>
      </trkpt>
      <trkpt lat="49.47005" lon="-1.83069">
        <ele>6.6</ele>
        <time>2020-06-14T17:03:13Z</time>
      </trkpt>
      <trkpt lat="49.47008" lon="-1.83074">
        <ele>6.5</ele>
        <time>2020-06-14T17:03:14Z</time>
      </trkpt>
      <trkpt lat="49.47012" lon="-1.83079">
        <ele>6.5</ele>
        <time>2020-06-14T17:03:15Z</time>
      </trkpt>
      <trkpt lat="49.47015" lon="-1.83085">
        <ele>6.4</ele>
        <time>2020-06-14T17:03:16Z</time>
      </trkpt>
      <trkpt lat="49.47018" lon="-1.83091">
        <ele>6.3</ele>
        <time>2020-06-14T17:03:17Z</time>
      </trkpt>
      <trkpt lat="49.47021" lon="-1.83097">
        <ele>6.3</ele>
        <time>2020-06-14T17:03:18Z</time>
      </trkpt>
      <trkpt lat="49.47024" lon="-1.83104">
        <ele>6.2</ele>
        <time>2020-06-14T17:03:19Z</time>
      </trkpt>
      <trkpt lat="49.47027" lon="-1.83112">
        <ele>6.1</ele>
        <time>2020-06-14T17:03:20Z</time>
      </trkpt>
      <trkpt lat="49.4703" lon="-1.83118">
        <ele>6.1</ele>
        <time>2020-06-14T17:03:21Z</time>
      </trkpt>
      <trkpt lat="49.47034" lon="-1.83125">
        <ele>6.1</ele>
        <time>2020-06-14T17:03:22Z</time>
      </trkpt>
      <trkpt lat="49.47037" lon="-1.83131">
        <ele>6.1</ele>
        <time>2020-06-14T17:03:23Z</time>
      </trkpt>
      <trkpt lat="49.4704" lon="-1.83137">
        <ele>6</ele>
        <time>2020-06-14T17:03:24Z</time>
      </trkpt>
      <trkpt lat="49.47043" lon="-1.83143">
        <ele>6</ele>
        <time>2020-06-14T17:03:25Z</time>
      </trkpt>
      <trkpt lat="49.47046" lon="-1.83148">
        <ele>6</ele>
        <time>2020-06-14T17:03:26Z</time>
      </trkpt>
      <trkpt lat="49.4705" lon="-1.83154">
        <ele>6</ele>
        <time>2020-06-14T17:03:27Z</time>
      </trkpt>
      <trkpt lat="49.47054" lon="-1.83159">
        <ele>6</ele>
        <time>2020-06-14T17:03:28Z</time>
      </trkpt>
      <trkpt lat="49.47059" lon="-1.83165">
        <ele>6.1</ele>
        <time>2020-06-14T17:03:29Z</time>
      </trkpt>
      <trkpt lat="49.47062" lon="-1.83172">
        <ele>6.1</ele>
        <time>2020-06-14T17:03:30Z</time>
      </trkpt>
      <trkpt lat="49.47066" lon="-1.83178">
        <ele>6.1</ele>
        <time>2020-06-14T17:03:31Z</time>
      </trkpt>
      <trkpt lat="49.47069" lon="-1.83185">
        <ele>6.2</ele>
        <time>2020-06-14T17:03:32Z</time>
      </trkpt>
      <trkpt lat="49.47071" lon="-1.83192">
        <ele>6.2</ele>
        <time>2020-06-14T17:03:33Z</time>
      </trkpt>
      <trkpt lat="49.47074" lon="-1.83199">
        <ele>6.3</ele>
        <time>2020-06-14T17:03:34Z</time>
      </trkpt>
      <trkpt lat="49.47076" lon="-1.83206">
        <ele>6.4</ele>
        <time>2020-06-14T17:03:35Z</time>
      </trkpt>
      <trkpt lat="49.47079" lon="-1.83212">
        <ele>6.5</ele>
        <time>2020-06-14T17:03:36Z</time>
      </trkpt>
      <trkpt lat="49.47082" lon="-1.83218">
        <ele>6.5</ele>
        <time>2020-06-14T17:03:37Z</time>
      </trkpt>
      <trkpt lat="49.47086" lon="-1.83222">
        <ele>6.6</ele>
        <time>2020-06-14T17:03:38Z</time>
      </trkpt>
      <trkpt lat="49.4709" lon="-1.83225">
        <ele>6.7</ele>
        <time>2020-06-14T17:03:39Z</time>
      </trkpt>
      <trkpt lat="49.47095" lon="-1.83225">
        <ele>6.8</ele>
        <time>2020-06-14T17:03:40Z</time>
      </trkpt>
      <trkpt lat="49.471" lon="-1.83225">
        <ele>6.9</ele>
        <time>2020-06-14T17:03:41Z</time>
      </trkpt>
      <trkpt lat="49.47105" lon="-1.83226">
        <ele>7</ele>
        <time>2020-06-14T17:03:42Z</time>
      </trkpt>
      <trkpt lat="49.47109" lon="-1.83226">
        <ele>7.2</ele>
        <time>2020-06-14T17:03:43Z</time>
      </trkpt>
      <trkpt lat="49.47114" lon="-1.83226">
        <ele>7.4</ele>
        <time>2020-06-14T17:03:44Z</time>
      </trkpt>
      <trkpt lat="49.47118" lon="-1.83225">
        <ele>7.5</ele>
        <time>2020-06-14T17:03:45Z</time>
      </trkpt>
      <trkpt lat="49.47123" lon="-1.83225">
        <ele>7.7</ele>
        <time>2020-06-14T17:03:46Z</time>
      </trkpt>
      <trkpt lat="49.47127" lon="-1.83226">
        <ele>7.9</ele>
        <time>2020-06-14T17:03:47Z</time>
      </trkpt>
      <trkpt lat="49.47131" lon="-1.83225">
        <ele>8</ele>
        <time>2020-06-14T17:03:48Z</time>
      </trkpt>
      <trkpt lat="49.47134" lon="-1.83224">
        <ele>8.2</ele>
        <time>2020-06-14T17:03:49Z</time>
      </trkpt>
      <trkpt lat="49.47138" lon="-1.83224">
        <ele>8.4</ele>
        <time>2020-06-14T17:03:50Z</time>
      </trkpt>
      <trkpt lat="49.47141" lon="-1.83223">
        <ele>8.7</ele>
        <time>2020-06-14T17:03:51Z</time>
      </trkpt>
      <trkpt lat="49.47145" lon="-1.83221">
        <ele>8.9</ele>
        <time>2020-06-14T17:03:52Z</time>
      </trkpt>
      <trkpt lat="49.47148" lon="-1.83217">
        <ele>9.2</ele>
        <time>2020-06-14T17:03:53Z</time>
      </trkpt>
      <trkpt lat="49.47151" lon="-1.83214">
        <ele>9.6</ele>
        <time>2020-06-14T17:03:54Z</time>
      </trkpt>
      <trkpt lat="49.47154" lon="-1.8321">
        <ele>9.9</ele>
        <time>2020-06-14T17:03:55Z</time>
      </trkpt>
      <trkpt lat="49.47158" lon="-1.83208">
        <ele>10.2</ele>
        <time>2020-06-14T17:03:56Z</time>
      </trkpt>
      <trkpt lat="49.47161" lon="-1.83205">
        <ele>10.5</ele>
        <time>2020-06-14T17:03:57Z</time>
      </trkpt>
      <trkpt lat="49.47165" lon="-1.83203">
        <ele>10.9</ele>
        <time>2020-06-14T17:03:58Z</time>
      </trkpt>
      <trkpt lat="49.47168" lon="-1.832">
        <ele>11.2</ele>
        <time>2020-06-14T17:03:59Z</time>
      </trkpt>
      <trkpt lat="49.47172" lon="-1.83199">
        <ele>11.6</ele>
        <time>2020-06-14T17:04:00Z</time>
      </trkpt>
      <trkpt lat="49.47177" lon="-1.83197">
        <ele>12</ele>
        <time>2020-06-14T17:04:01Z</time>
      </trkpt>
      <trkpt lat="49.47181" lon="-1.83195">
        <ele>12.5</ele>
        <time>2020-06-14T17:04:02Z</time>
      </trkpt>
      <trkpt lat="49.47186" lon="-1.83193">
        <ele>13</ele>
        <time>2020-06-14T17:04:03Z</time>
      </trkpt>
      <trkpt lat="49.4719" lon="-1.83192">
        <ele>13.4</ele>
        <time>2020-06-14T17:04:04Z</time>
      </trkpt>
      <trkpt lat="49.47192" lon="-1.8319">
        <ele>13.7</ele>
        <time>2020-06-14T17:04:05Z</time>
      </trkpt>
      <trkpt lat="49.47197" lon="-1.83188">
        <ele>14.2</ele>
        <time>2020-06-14T17:04:06Z</time>
      </trkpt>
      <trkpt lat="49.47198" lon="-1.83187">
        <ele>14.4</ele>
        <time>2020-06-14T17:04:07Z</time>
      </trkpt>
      <trkpt lat="49.47201" lon="-1.83185">
        <ele>14.7</ele>
        <time>2020-06-14T17:04:08Z</time>
      </trkpt>
      <trkpt lat="49.47202" lon="-1.83184">
        <ele>14.9</ele>
        <time>2020-06-14T17:04:09Z</time>
      </trkpt>
      <trkpt lat="49.47205" lon="-1.83181">
        <ele>15.3</ele>
        <time>2020-06-14T17:04:10Z</time>
      </trkpt>
      <trkpt lat="49.47209" lon="-1.83178">
        <ele>15.7</ele>
        <time>2020-06-14T17:04:11Z</time>
      </trkpt>
      <trkpt lat="49.4721" lon="-1.83176">
        <ele>16</ele>
        <time>2020-06-14T17:04:12Z</time>
      </trkpt>
      <trkpt lat="49.47213" lon="-1.83173">
        <ele>16.4</ele>
        <time>2020-06-14T17:04:13Z</time>
      </trkpt>
      <trkpt lat="49.47217" lon="-1.83169">
        <ele>16.9</ele>
        <time>2020-06-14T17:04:14Z</time>
      </trkpt>
      <trkpt lat="49.4722" lon="-1.83164">
        <ele>17.5</ele>
        <time>2020-06-14T17:04:15Z</time>
      </trkpt>
      <trkpt lat="49.47222" lon="-1.83162">
        <ele>17.7</ele>
        <time>2020-06-14T17:04:16Z</time>
      </trkpt>
      <trkpt lat="49.47224" lon="-1.83159">
        <ele>18.1</ele>
        <time>2020-06-14T17:04:17Z</time>
      </trkpt>
      <trkpt lat="49.47226" lon="-1.83156">
        <ele>18.5</ele>
        <time>2020-06-14T17:04:18Z</time>
      </trkpt>
      <trkpt lat="49.47227" lon="-1.83155">
        <ele>18.6</ele>
        <time>2020-06-14T17:04:19Z</time>
      </trkpt>
      <trkpt lat="49.47229" lon="-1.8315">
        <ele>19.2</ele>
        <time>2020-06-14T17:04:20Z</time>
      </trkpt>
      <trkpt lat="49.47231" lon="-1.83146">
        <ele>19.6</ele>
        <time>2020-06-14T17:04:21Z</time>
      </trkpt>
      <trkpt lat="49.47232" lon="-1.83145">
        <ele>19.8</ele>
        <time>2020-06-14T17:04:22Z</time>
      </trkpt>
      <trkpt lat="49.47235" lon="-1.83141">
        <ele>20.3</ele>
        <time>2020-06-14T17:04:23Z</time>
      </trkpt>
      <trkpt lat="49.47236" lon="-1.83139">
        <ele>20.6</ele>
        <time>2020-06-14T17:04:24Z</time>
      </trkpt>
      <trkpt lat="49.47237" lon="-1.83136">
        <ele>20.9</ele>
        <time>2020-06-14T17:04:25Z</time>
      </trkpt>
      <trkpt lat="49.47237" lon="-1.83135">
        <ele>21</ele>
        <time>2020-06-14T17:04:26Z</time>
      </trkpt>
      <trkpt lat="49.47238" lon="-1.83134">
        <ele>21.1</ele>
        <time>2020-06-14T17:04:27Z</time>
      </trkpt>
      <trkpt lat="49.47239" lon="-1.83133">
        <ele>21.3</ele>
        <time>2020-06-14T17:04:28Z</time>
      </trkpt>
      <trkpt lat="49.47239" lon="-1.83129">
        <ele>21.6</ele>
        <time>2020-06-14T17:04:29Z</time>
      </trkpt>
      <trkpt lat="49.4724" lon="-1.83124">
        <ele>22.1</ele>
        <time>2020-06-14T17:04:30Z</time>
      </trkpt>
      <trkpt lat="49.4724" lon="-1.83122">
        <ele>22.3</ele>
        <time>2020-06-14T17:04:31Z</time>
      </trkpt>
      <trkpt lat="49.47242" lon="-1.83117">
        <ele>22.8</ele>
        <time>2020-06-14T17:04:32Z</time>
      </trkpt>
      <trkpt lat="49.47242" lon="-1.83116">
        <ele>23</ele>
        <time>2020-06-14T17:04:33Z</time>
      </trkpt>
      <trkpt lat="49.47243" lon="-1.83112">
        <ele>23.4</ele>
        <time>2020-06-14T17:04:34Z</time>
      </trkpt>
      <trkpt lat="49.47243" lon="-1.8311">
        <ele>23.6</ele>
        <time>2020-06-14T17:04:35Z</time>
      </trkpt>
      <trkpt lat="49.47245" lon="-1.83106">
        <ele>24</ele>
        <time>2020-06-14T17:04:36Z</time>
      </trkpt>
      <trkpt lat="49.47245" lon="-1.831">
        <ele>24.6</ele>
        <time>2020-06-14T17:04:37Z</time>
      </trkpt>
      <trkpt lat="49.47246" lon="-1.83099">
        <ele>24.7</ele>
        <time>2020-06-14T17:04:38Z</time>
      </trkpt>
      <trkpt lat="49.47246" lon="-1.83094">
        <ele>25.2</ele>
        <time>2020-06-14T17:04:39Z</time>
      </trkpt>
      <trkpt lat="49.47246" lon="-1.83092">
        <ele>25.3</ele>
        <time>2020-06-14T17:04:40Z</time>
      </trkpt>
      <trkpt lat="49.47247" lon="-1.83086">
        <ele>25.9</ele>
        <time>2020-06-14T17:04:41Z</time>
      </trkpt>
      <trkpt lat="49.47247" lon="-1.83084">
        <ele>26.1</ele>
        <time>2020-06-14T17:04:42Z</time>
      </trkpt>
      <trkpt lat="49.47248" lon="-1.8308">
        <ele>26.6</ele>
        <time>2020-06-14T17:04:43Z</time>
      </trkpt>
      <trkpt lat="49.47248" lon="-1.83078">
        <ele>26.8</ele>
        <time>2020-06-14T17:04:44Z</time>
      </trkpt>
      <trkpt lat="49.47249" lon="-1.83073">
        <ele>27.3</ele>
        <time>2020-06-14T17:04:45Z</time>
      </trkpt>
      <trkpt lat="49.47249" lon="-1.83071">
        <ele>27.5</ele>
        <time>2020-06-14T17:04:46Z</time>
      </trkpt>
      <trkpt lat="49.4725" lon="-1.83066">
        <ele>28</ele>
        <time>2020-06-14T17:04:47Z</time>
      </trkpt>
      <trkpt lat="49.4725" lon="-1.83064">
        <ele>28.1</ele>
        <time>2020-06-14T17:04:48Z</time>
      </trkpt>
      <trkpt lat="49.47252" lon="-1.8306">
        <ele>28.6</ele>
        <time>2020-06-14T17:04:49Z</time>
      </trkpt>
      <trkpt lat="49.47252" lon="-1.83059">
        <ele>28.7</ele>
        <time>2020-06-14T17:04:50Z</time>
      </trkpt>
      <trkpt lat="49.47253" lon="-1.83054">
        <ele>29.2</ele>
        <time>2020-06-14T17:04:51Z</time>
      </trkpt>
      <trkpt lat="49.47253" lon="-1.83052">
        <ele>29.4</ele>
        <time>2020-06-14T17:04:52Z</time>
      </trkpt>
      <trkpt lat="49.47254" lon="-1.83048">
        <ele>29.8</ele>
        <time>2020-06-14T17:04:53Z</time>
      </trkpt>
      <trkpt lat="49.47255" lon="-1.83046">
        <ele>30</ele>
        <time>2020-06-14T17:04:54Z</time>
      </trkpt>
      <trkpt lat="49.47255" lon="-1.83042">
        <ele>30.5</ele>
        <time>2020-06-14T17:04:55Z</time>
      </trkpt>
      <trkpt lat="49.47256" lon="-1.8304">
        <ele>30.6</ele>
        <time>2020-06-14T17:04:56Z</time>
      </trkpt>
      <trkpt lat="49.47257" lon="-1.83036">
        <ele>31.1</ele>
        <time>2020-06-14T17:04:57Z</time>
      </trkpt>
      <trkpt lat="49.47257" lon="-1.83035">
        <ele>31.2</ele>
        <time>2020-06-14T17:04:58Z</time>
      </trkpt>
      <trkpt lat="49.47258" lon="-1.83032">
        <ele>31.5</ele>
        <time>2020-06-14T17:04:59Z</time>
      </trkpt>
      <trkpt lat="49.47258" lon="-1.8303">
        <ele>31.7</ele>
        <time>2020-06-14T17:05:00Z</time>
      </trkpt>
      <trkpt lat="49.47259" lon="-1.83027">
        <ele>32</ele>
        <time>2020-06-14T17:05:01Z</time>
      </trkpt>
      <trkpt lat="49.47259" lon="-1.83025">
        <ele>32.2</ele>
        <time>2020-06-14T17:05:02Z</time>
      </trkpt>
      <trkpt lat="49.47261" lon="-1.83021">
        <ele>33</ele>
        <time>2020-06-14T17:05:03Z</time>
      </trkpt>
      <trkpt lat="49.47262" lon="-1.8302">
        <ele>33.1</ele>
        <time>2020-06-14T17:05:04Z</time>
      </trkpt>
      <trkpt lat="49.47264" lon="-1.83017">
        <ele>33.4</ele>
        <time>2020-06-14T17:05:05Z</time>
      </trkpt>
      <trkpt lat="49.47265" lon="-1.83016">
        <ele>33.5</ele>
        <time>2020-06-14T17:05:06Z</time>
      </trkpt>
      <trkpt lat="49.47267" lon="-1.83013">
        <ele>33.9</ele>
        <time>2020-06-14T17:05:07Z</time>
      </trkpt>
      <trkpt lat="49.47267" lon="-1.83012">
        <ele>34</ele>
        <time>2020-06-14T17:05:08Z</time>
      </trkpt>
      <trkpt lat="49.47269" lon="-1.83011">
        <ele>34.2</ele>
        <time>2020-06-14T17:05:09Z</time>
      </trkpt>
      <trkpt lat="49.4727" lon="-1.8301">
        <ele>34.4</ele>
        <time>2020-06-14T17:05:10Z</time>
      </trkpt>
      <trkpt lat="49.47274" lon="-1.8301">
        <ele>34.8</ele>
        <time>2020-06-14T17:05:11Z</time>
      </trkpt>
      <trkpt lat="49.47275" lon="-1.8301">
        <ele>34.9</ele>
        <time>2020-06-14T17:05:12Z</time>
      </trkpt>
      <trkpt lat="49.47277" lon="-1.83011">
        <ele>35.3</ele>
        <time>2020-06-14T17:05:13Z</time>
      </trkpt>
      <trkpt lat="49.47278" lon="-1.83012">
        <ele>35.4</ele>
        <time>2020-06-14T17:05:14Z</time>
      </trkpt>
      <trkpt lat="49.47281" lon="-1.83013">
        <ele>35.7</ele>
        <time>2020-06-14T17:05:15Z</time>
      </trkpt>
      <trkpt lat="49.47282" lon="-1.83013">
        <ele>35.8</ele>
        <time>2020-06-14T17:05:16Z</time>
      </trkpt>
      <trkpt lat="49.47285" lon="-1.83015">
        <ele>36.1</ele>
        <time>2020-06-14T17:05:17Z</time>
      </trkpt>
      <trkpt lat="49.47286" lon="-1.83015">
        <ele>36.3</ele>
        <time>2020-06-14T17:05:18Z</time>
      </trkpt>
      <trkpt lat="49.47287" lon="-1.83016">
        <ele>36.5</ele>
        <time>2020-06-14T17:05:19Z</time>
      </trkpt>
      <trkpt lat="49.47289" lon="-1.83017">
        <ele>36.7</ele>
        <time>2020-06-14T17:05:20Z</time>
      </trkpt>
      <trkpt lat="49.47292" lon="-1.83018">
        <ele>37</ele>
        <time>2020-06-14T17:05:21Z</time>
      </trkpt>
      <trkpt lat="49.47293" lon="-1.83018">
        <ele>37.2</ele>
        <time>2020-06-14T17:05:22Z</time>
      </trkpt>
      <trkpt lat="49.47295" lon="-1.83018">
        <ele>37.4</ele>
        <time>2020-06-14T17:05:23Z</time>
      </trkpt>
      <trkpt lat="49.47296" lon="-1.8302">
        <ele>37.6</ele>
        <time>2020-06-14T17:05:24Z</time>
      </trkpt>
      <trkpt lat="49.47299" lon="-1.83021">
        <ele>37.9</ele>
        <time>2020-06-14T17:05:25Z</time>
      </trkpt>
      <trkpt lat="49.473" lon="-1.83021">
        <ele>38</ele>
        <time>2020-06-14T17:05:26Z</time>
      </trkpt>
      <trkpt lat="49.47302" lon="-1.83022">
        <ele>38.2</ele>
        <time>2020-06-14T17:05:27Z</time>
      </trkpt>
      <trkpt lat="49.47304" lon="-1.83023">
        <ele>38.4</ele>
        <time>2020-06-14T17:05:28Z</time>
      </trkpt>
      <trkpt lat="49.47306" lon="-1.83023">
        <ele>38.6</ele>
        <time>2020-06-14T17:05:29Z</time>
      </trkpt>
      <trkpt lat="49.47307" lon="-1.83024">
        <ele>38.8</ele>
        <time>2020-06-14T17:05:30Z</time>
      </trkpt>
      <trkpt lat="49.47309" lon="-1.83024">
        <ele>39.4</ele>
        <time>2020-06-14T17:05:31Z</time>
      </trkpt>
      <trkpt lat="49.4731" lon="-1.83025">
        <ele>39.7</ele>
        <time>2020-06-14T17:05:32Z</time>
      </trkpt>
      <trkpt lat="49.47312" lon="-1.83026">
        <ele>39.9</ele>
        <time>2020-06-14T17:05:33Z</time>
      </trkpt>
      <trkpt lat="49.47313" lon="-1.83027">
        <ele>40.1</ele>
        <time>2020-06-14T17:05:34Z</time>
      </trkpt>
      <trkpt lat="49.47314" lon="-1.83027">
        <ele>40.2</ele>
        <time>2020-06-14T17:05:35Z</time>
      </trkpt>
      <trkpt lat="49.47316" lon="-1.83028">
        <ele>40.4</ele>
        <time>2020-06-14T17:05:36Z</time>
      </trkpt>
      <trkpt lat="49.47318" lon="-1.83028">
        <ele>40.7</ele>
        <time>2020-06-14T17:05:37Z</time>
      </trkpt>
      <trkpt lat="49.47321" lon="-1.8303">
        <ele>41.1</ele>
        <time>2020-06-14T17:05:38Z</time>
      </trkpt>
      <trkpt lat="49.47321" lon="-1.83031">
        <ele>41.2</ele>
        <time>2020-06-14T17:05:39Z</time>
      </trkpt>
      <trkpt lat="49.47323" lon="-1.83032">
        <ele>41.4</ele>
        <time>2020-06-14T17:05:40Z</time>
      </trkpt>
      <trkpt lat="49.47324" lon="-1.83034">
        <ele>41.6</ele>
        <time>2020-06-14T17:05:41Z</time>
      </trkpt>
      <trkpt lat="49.47326" lon="-1.83034">
        <ele>41.8</ele>
        <time>2020-06-14T17:05:42Z</time>
      </trkpt>
      <trkpt lat="49.47327" lon="-1.83035">
        <ele>42</ele>
        <time>2020-06-14T17:05:43Z</time>
      </trkpt>
      <trkpt lat="49.4733" lon="-1.83036">
        <ele>42.4</ele>
        <time>2020-06-14T17:05:44Z</time>
      </trkpt>
      <trkpt lat="49.47331" lon="-1.83036">
        <ele>42.5</ele>
        <time>2020-06-14T17:05:45Z</time>
      </trkpt>
      <trkpt lat="49.47335" lon="-1.83036">
        <ele>43</ele>
        <time>2020-06-14T17:05:46Z</time>
      </trkpt>
      <trkpt lat="49.47336" lon="-1.83036">
        <ele>43.1</ele>
        <time>2020-06-14T17:05:47Z</time>
      </trkpt>
      <trkpt lat="49.47339" lon="-1.83037">
        <ele>43.5</ele>
        <time>2020-06-14T17:05:48Z</time>
      </trkpt>
      <trkpt lat="49.4734" lon="-1.83037">
        <ele>43.7</ele>
        <time>2020-06-14T17:05:49Z</time>
      </trkpt>
      <trkpt lat="49.47341" lon="-1.83039">
        <ele>43.9</ele>
        <time>2020-06-14T17:05:50Z</time>
      </trkpt>
      <trkpt lat="49.47343" lon="-1.83041">
        <ele>44.1</ele>
        <time>2020-06-14T17:05:51Z</time>
      </trkpt>
      <trkpt lat="49.47345" lon="-1.83043">
        <ele>44.5</ele>
        <time>2020-06-14T17:05:52Z</time>
      </trkpt>
      <trkpt lat="49.47346" lon="-1.83043">
        <ele>44.7</ele>
        <time>2020-06-14T17:05:53Z</time>
      </trkpt>
      <trkpt lat="49.47347" lon="-1.83044">
        <ele>44.8</ele>
        <time>2020-06-14T17:05:54Z</time>
      </trkpt>
      <trkpt lat="49.47349" lon="-1.83044">
        <ele>45.1</ele>
        <time>2020-06-14T17:05:55Z</time>
      </trkpt>
      <trkpt lat="49.4735" lon="-1.83045">
        <ele>45.3</ele>
        <time>2020-06-14T17:05:56Z</time>
      </trkpt>
      <trkpt lat="49.47352" lon="-1.83045">
        <ele>45.5</ele>
        <time>2020-06-14T17:05:57Z</time>
      </trkpt>
      <trkpt lat="49.47355" lon="-1.83046">
        <ele>45.9</ele>
        <time>2020-06-14T17:05:58Z</time>
      </trkpt>
      <trkpt lat="49.47356" lon="-1.83046">
        <ele>46.1</ele>
        <time>2020-06-14T17:05:59Z</time>
      </trkpt>
      <trkpt lat="49.47358" lon="-1.83046">
        <ele>46.3</ele>
        <time>2020-06-14T17:06:00Z</time>
      </trkpt>
      <trkpt lat="49.47359" lon="-1.83046">
        <ele>46.6</ele>
        <time>2020-06-14T17:06:01Z</time>
      </trkpt>
      <trkpt lat="49.47361" lon="-1.83047">
        <ele>46.8</ele>
        <time>2020-06-14T17:06:02Z</time>
      </trkpt>
      <trkpt lat="49.47363" lon="-1.83048">
        <ele>47.1</ele>
        <time>2020-06-14T17:06:03Z</time>
      </trkpt>
      <trkpt lat="49.47364" lon="-1.83048">
        <ele>47.3</ele>
        <time>2020-06-14T17:06:04Z</time>
      </trkpt>
      <trkpt lat="49.47366" lon="-1.83047">
        <ele>47.5</ele>
        <time>2020-06-14T17:06:05Z</time>
      </trkpt>
      <trkpt lat="49.47367" lon="-1.83046">
        <ele>47.7</ele>
        <time>2020-06-14T17:06:06Z</time>
      </trkpt>
      <trkpt lat="49.47369" lon="-1.83045">
        <ele>48</ele>
        <time>2020-06-14T17:06:07Z</time>
      </trkpt>
      <trkpt lat="49.47372" lon="-1.83043">
        <ele>48.4</ele>
        <time>2020-06-14T17:06:08Z</time>
      </trkpt>
      <trkpt lat="49.47373" lon="-1.83042">
        <ele>48.5</ele>
        <time>2020-06-14T17:06:09Z</time>
      </trkpt>
      <trkpt lat="49.47375" lon="-1.83042">
        <ele>48.9</ele>
        <time>2020-06-14T17:06:10Z</time>
      </trkpt>
      <trkpt lat="49.47379" lon="-1.8304">
        <ele>49.3</ele>
        <time>2020-06-14T17:06:11Z</time>
      </trkpt>
      <trkpt lat="49.4738" lon="-1.83039">
        <ele>49.5</ele>
        <time>2020-06-14T17:06:12Z</time>
      </trkpt>
      <trkpt lat="49.47383" lon="-1.83038">
        <ele>49.9</ele>
        <time>2020-06-14T17:06:13Z</time>
      </trkpt>
      <trkpt lat="49.47384" lon="-1.83037">
        <ele>50</ele>
        <time>2020-06-14T17:06:14Z</time>
      </trkpt>
      <trkpt lat="49.47387" lon="-1.83035">
        <ele>50.4</ele>
        <time>2020-06-14T17:06:15Z</time>
      </trkpt>
      <trkpt lat="49.47388" lon="-1.83034">
        <ele>50.5</ele>
        <time>2020-06-14T17:06:16Z</time>
      </trkpt>
      <trkpt lat="49.47389" lon="-1.83033">
        <ele>50.6</ele>
        <time>2020-06-14T17:06:17Z</time>
      </trkpt>
      <trkpt lat="49.4739" lon="-1.83031">
        <ele>50.8</ele>
        <time>2020-06-14T17:06:18Z</time>
      </trkpt>
      <trkpt lat="49.47394" lon="-1.83029">
        <ele>51.2</ele>
        <time>2020-06-14T17:06:19Z</time>
      </trkpt>
      <trkpt lat="49.47395" lon="-1.83028">
        <ele>51.3</ele>
        <time>2020-06-14T17:06:20Z</time>
      </trkpt>
      <trkpt lat="49.47397" lon="-1.83026">
        <ele>51.6</ele>
        <time>2020-06-14T17:06:21Z</time>
      </trkpt>
      <trkpt lat="49.47398" lon="-1.83025">
        <ele>51.7</ele>
        <time>2020-06-14T17:06:22Z</time>
      </trkpt>
      <trkpt lat="49.474" lon="-1.83024">
        <ele>51.8</ele>
        <time>2020-06-14T17:06:23Z</time>
      </trkpt>
      <trkpt lat="49.47401" lon="-1.83023">
        <ele>52</ele>
        <time>2020-06-14T17:06:24Z</time>
      </trkpt>
      <trkpt lat="49.47404" lon="-1.83021">
        <ele>52.2</ele>
        <time>2020-06-14T17:06:25Z</time>
      </trkpt>
      <trkpt lat="49.47405" lon="-1.8302">
        <ele>52.3</ele>
        <time>2020-06-14T17:06:26Z</time>
      </trkpt>
      <trkpt lat="49.47407" lon="-1.83017">
        <ele>52.6</ele>
        <time>2020-06-14T17:06:27Z</time>
      </trkpt>
      <trkpt lat="49.47408" lon="-1.83016">
        <ele>52.7</ele>
        <time>2020-06-14T17:06:28Z</time>
      </trkpt>
      <trkpt lat="49.47412" lon="-1.83014">
        <ele>53.1</ele>
        <time>2020-06-14T17:06:29Z</time>
      </trkpt>
      <trkpt lat="49.47413" lon="-1.83013">
        <ele>53.2</ele>
        <time>2020-06-14T17:06:30Z</time>
      </trkpt>
      <trkpt lat="49.47415" lon="-1.83012">
        <ele>53.4</ele>
        <time>2020-06-14T17:06:31Z</time>
      </trkpt>
      <trkpt lat="49.47416" lon="-1.83012">
        <ele>53.5</ele>
        <time>2020-06-14T17:06:32Z</time>
      </trkpt>
      <trkpt lat="49.47419" lon="-1.8301">
        <ele>53.8</ele>
        <time>2020-06-14T17:06:33Z</time>
      </trkpt>
      <trkpt lat="49.4742" lon="-1.8301">
        <ele>53.8</ele>
        <time>2020-06-14T17:06:34Z</time>
      </trkpt>
      <trkpt lat="49.47423" lon="-1.83008">
        <ele>54.1</ele>
        <time>2020-06-14T17:06:35Z</time>
      </trkpt>
      <trkpt lat="49.47424" lon="-1.83007">
        <ele>54.3</ele>
        <time>2020-06-14T17:06:36Z</time>
      </trkpt>
      <trkpt lat="49.47426" lon="-1.83004">
        <ele>54.5</ele>
        <time>2020-06-14T17:06:37Z</time>
      </trkpt>
      <trkpt lat="49.47429" lon="-1.83002">
        <ele>54.8</ele>
        <time>2020-06-14T17:06:38Z</time>
      </trkpt>
      <trkpt lat="49.4743" lon="-1.83001">
        <ele>54.9</ele>
        <time>2020-06-14T17:06:39Z</time>
      </trkpt>
      <trkpt lat="49.47433" lon="-1.83">
        <ele>55.2</ele>
        <time>2020-06-14T17:06:40Z</time>
      </trkpt>
      <trkpt lat="49.47434" lon="-1.83">
        <ele>55.3</ele>
        <time>2020-06-14T17:06:41Z</time>
      </trkpt>
      <trkpt lat="49.47437" lon="-1.82998">
        <ele>55.6</ele>
        <time>2020-06-14T17:06:42Z</time>
      </trkpt>
      <trkpt lat="49.47439" lon="-1.82998">
        <ele>55.7</ele>
        <time>2020-06-14T17:06:43Z</time>
      </trkpt>
      <trkpt lat="49.47442" lon="-1.82996">
        <ele>55.9</ele>
        <time>2020-06-14T17:06:44Z</time>
      </trkpt>
      <trkpt lat="49.47443" lon="-1.82995">
        <ele>56</ele>
        <time>2020-06-14T17:06:45Z</time>
      </trkpt>
      <trkpt lat="49.47447" lon="-1.82994">
        <ele>56.3</ele>
        <time>2020-06-14T17:06:46Z</time>
      </trkpt>
      <trkpt lat="49.47448" lon="-1.82993">
        <ele>56.4</ele>
        <time>2020-06-14T17:06:47Z</time>
      </trkpt>
      <trkpt lat="49.47451" lon="-1.82992">
        <ele>56.6</ele>
        <time>2020-06-14T17:06:48Z</time>
      </trkpt>
      <trkpt lat="49.47452" lon="-1.82991">
        <ele>56.7</ele>
        <time>2020-06-14T17:06:49Z</time>
      </trkpt>
      <trkpt lat="49.47456" lon="-1.8299">
        <ele>56.9</ele>
        <time>2020-06-14T17:06:50Z</time>
      </trkpt>
      <trkpt lat="49.47457" lon="-1.82989">
        <ele>57</ele>
        <time>2020-06-14T17:06:51Z</time>
      </trkpt>
      <trkpt lat="49.47461" lon="-1.82989">
        <ele>57.2</ele>
        <time>2020-06-14T17:06:52Z</time>
      </trkpt>
      <trkpt lat="49.47464" lon="-1.82988">
        <ele>57.4</ele>
        <time>2020-06-14T17:06:53Z</time>
      </trkpt>
      <trkpt lat="49.47467" lon="-1.82988">
        <ele>57.6</ele>
        <time>2020-06-14T17:06:54Z</time>
      </trkpt>
      <trkpt lat="49.4747" lon="-1.82987">
        <ele>57.7</ele>
        <time>2020-06-14T17:06:55Z</time>
      </trkpt>
      <trkpt lat="49.47473" lon="-1.82987">
        <ele>57.9</ele>
        <time>2020-06-14T17:06:56Z</time>
      </trkpt>
      <trkpt lat="49.47476" lon="-1.82986">
        <ele>58</ele>
        <time>2020-06-14T17:06:57Z</time>
      </trkpt>
      <trkpt lat="49.47479" lon="-1.82986">
        <ele>58.2</ele>
        <time>2020-06-14T17:06:58Z</time>
      </trkpt>
      <trkpt lat="49.47482" lon="-1.82986">
        <ele>58.4</ele>
        <time>2020-06-14T17:06:59Z</time>
      </trkpt>
      <trkpt lat="49.47485" lon="-1.82986">
        <ele>58.6</ele>
        <time>2020-06-14T17:07:00Z</time>
      </trkpt>
      <trkpt lat="49.47489" lon="-1.82985">
        <ele>58.8</ele>
        <time>2020-06-14T17:07:01Z</time>
      </trkpt>
      <trkpt lat="49.47491" lon="-1.82984">
        <ele>58.9</ele>
        <time>2020-06-14T17:07:02Z</time>
      </trkpt>
      <trkpt lat="49.47494" lon="-1.82984">
        <ele>59.1</ele>
        <time>2020-06-14T17:07:03Z</time>
      </trkpt>
      <trkpt lat="49.47496" lon="-1.82985">
        <ele>59.2</ele>
        <time>2020-06-14T17:07:04Z</time>
      </trkpt>
      <trkpt lat="49.47499" lon="-1.82985">
        <ele>59.4</ele>
        <time>2020-06-14T17:07:05Z</time>
      </trkpt>
      <trkpt lat="49.47502" lon="-1.82985">
        <ele>59.6</ele>
        <time>2020-06-14T17:07:06Z</time>
      </trkpt>
      <trkpt lat="49.47505" lon="-1.82986">
        <ele>59.7</ele>
        <time>2020-06-14T17:07:07Z</time>
      </trkpt>
      <trkpt lat="49.47508" lon="-1.82986">
        <ele>59.9</ele>
        <time>2020-06-14T17:07:08Z</time>
      </trkpt>
      <trkpt lat="49.47511" lon="-1.82986">
        <ele>60</ele>
        <time>2020-06-14T17:07:09Z</time>
      </trkpt>
      <trkpt lat="49.47515" lon="-1.82987">
        <ele>60.2</ele>
        <time>2020-06-14T17:07:10Z</time>
      </trkpt>
      <trkpt lat="49.47516" lon="-1.82987">
        <ele>60.3</ele>
        <time>2020-06-14T17:07:11Z</time>
      </trkpt>
      <trkpt lat="49.47519" lon="-1.82987">
        <ele>60.4</ele>
        <time>2020-06-14T17:07:12Z</time>
      </trkpt>
      <trkpt lat="49.47522" lon="-1.82988">
        <ele>60.6</ele>
        <time>2020-06-14T17:07:13Z</time>
      </trkpt>
      <trkpt lat="49.47525" lon="-1.82988">
        <ele>60.7</ele>
        <time>2020-06-14T17:07:14Z</time>
      </trkpt>
      <trkpt lat="49.47528" lon="-1.82988">
        <ele>60.9</ele>
        <time>2020-06-14T17:07:15Z</time>
      </trkpt>
      <trkpt lat="49.47532" lon="-1.82989">
        <ele>61</ele>
        <time>2020-06-14T17:07:16Z</time>
      </trkpt>
      <trkpt lat="49.47533" lon="-1.8299">
        <ele>61.1</ele>
        <time>2020-06-14T17:07:17Z</time>
      </trkpt>
      <trkpt lat="49.47536" lon="-1.82991">
        <ele>61.3</ele>
        <time>2020-06-14T17:07:18Z</time>
      </trkpt>
      <trkpt lat="49.47539" lon="-1.82992">
        <ele>61.4</ele>
        <time>2020-06-14T17:07:19Z</time>
      </trkpt>
      <trkpt lat="49.47542" lon="-1.82992">
        <ele>61.5</ele>
        <time>2020-06-14T17:07:20Z</time>
      </trkpt>
      <trkpt lat="49.47545" lon="-1.82992">
        <ele>61.7</ele>
        <time>2020-06-14T17:07:21Z</time>
      </trkpt>
      <trkpt lat="49.47548" lon="-1.82993">
        <ele>61.8</ele>
        <time>2020-06-14T17:07:22Z</time>
      </trkpt>
      <trkpt lat="49.47551" lon="-1.82993">
        <ele>61.9</ele>
        <time>2020-06-14T17:07:23Z</time>
      </trkpt>
      <trkpt lat="49.47554" lon="-1.82993">
        <ele>62.1</ele>
        <time>2020-06-14T17:07:24Z</time>
      </trkpt>
      <trkpt lat="49.47556" lon="-1.82994">
        <ele>62.2</ele>
        <time>2020-06-14T17:07:25Z</time>
      </trkpt>
      <trkpt lat="49.47559" lon="-1.82994">
        <ele>62.3</ele>
        <time>2020-06-14T17:07:26Z</time>
      </trkpt>
      <trkpt lat="49.47563" lon="-1.82994">
        <ele>62.4</ele>
        <time>2020-06-14T17:07:27Z</time>
      </trkpt>
      <trkpt lat="49.47566" lon="-1.82995">
        <ele>62.5</ele>
        <time>2020-06-14T17:07:28Z</time>
      </trkpt>
      <trkpt lat="49.47569" lon="-1.82996">
        <ele>62.6</ele>
        <time>2020-06-14T17:07:29Z</time>
      </trkpt>
      <trkpt lat="49.47573" lon="-1.82995">
        <ele>62.8</ele>
        <time>2020-06-14T17:07:30Z</time>
      </trkpt>
      <trkpt lat="49.47575" lon="-1.82995">
        <ele>62.8</ele>
        <time>2020-06-14T17:07:31Z</time>
      </trkpt>
      <trkpt lat="49.47577" lon="-1.82996">
        <ele>62.9</ele>
        <time>2020-06-14T17:07:32Z</time>
      </trkpt>
      <trkpt lat="49.4758" lon="-1.82996">
        <ele>63</ele>
        <time>2020-06-14T17:07:33Z</time>
      </trkpt>
      <trkpt lat="49.47584" lon="-1.82997">
        <ele>63.1</ele>
        <time>2020-06-14T17:07:34Z</time>
      </trkpt>
      <trkpt lat="49.47587" lon="-1.82997">
        <ele>63.1</ele>
        <time>2020-06-14T17:07:35Z</time>
      </trkpt>
      <trkpt lat="49.47591" lon="-1.82998">
        <ele>63.2</ele>
        <time>2020-06-14T17:07:36Z</time>
      </trkpt>
      <trkpt lat="49.47594" lon="-1.82998">
        <ele>63.3</ele>
        <time>2020-06-14T17:07:37Z</time>
      </trkpt>
      <trkpt lat="49.47598" lon="-1.82999">
        <ele>63.3</ele>
        <time>2020-06-14T17:07:38Z</time>
      </trkpt>
      <trkpt lat="49.47601" lon="-1.83">
        <ele>63.4</ele>
        <time>2020-06-14T17:07:39Z</time>
      </trkpt>
      <trkpt lat="49.47604" lon="-1.83">
        <ele>63.5</ele>
        <time>2020-06-14T17:07:40Z</time>
      </trkpt>
      <trkpt lat="49.47608" lon="-1.83">
        <ele>63.5</ele>
        <time>2020-06-14T17:07:41Z</time>
      </trkpt>
      <trkpt lat="49.47611" lon="-1.83001">
        <ele>63.6</ele>
        <time>2020-06-14T17:07:42Z</time>
      </trkpt>
      <trkpt lat="49.47615" lon="-1.83">
        <ele>63.7</ele>
        <time>2020-06-14T17:07:43Z</time>
      </trkpt>
      <trkpt lat="49.47618" lon="-1.83002">
        <ele>63.7</ele>
        <time>2020-06-14T17:07:44Z</time>
      </trkpt>
      <trkpt lat="49.47621" lon="-1.83003">
        <ele>63.7</ele>
        <time>2020-06-14T17:07:45Z</time>
      </trkpt>
      <trkpt lat="49.47625" lon="-1.83003">
        <ele>63.7</ele>
        <time>2020-06-14T17:07:46Z</time>
      </trkpt>
      <trkpt lat="49.47629" lon="-1.83004">
        <ele>63.8</ele>
        <time>2020-06-14T17:07:47Z</time>
      </trkpt>
      <trkpt lat="49.47632" lon="-1.83004">
        <ele>63.8</ele>
        <time>2020-06-14T17:07:48Z</time>
      </trkpt>
      <trkpt lat="49.47636" lon="-1.83005">
        <ele>63.7</ele>
        <time>2020-06-14T17:07:49Z</time>
      </trkpt>
      <trkpt lat="49.4764" lon="-1.83005">
        <ele>63.7</ele>
        <time>2020-06-14T17:07:50Z</time>
      </trkpt>
      <trkpt lat="49.47644" lon="-1.83005">
        <ele>63.7</ele>
        <time>2020-06-14T17:07:51Z</time>
      </trkpt>
      <trkpt lat="49.47648" lon="-1.83004">
        <ele>63.7</ele>
        <time>2020-06-14T17:07:52Z</time>
      </trkpt>
      <trkpt lat="49.47652" lon="-1.83004">
        <ele>63.6</ele>
        <time>2020-06-14T17:07:53Z</time>
      </trkpt>
      <trkpt lat="49.47657" lon="-1.83003">
        <ele>63.5</ele>
        <time>2020-06-14T17:07:54Z</time>
      </trkpt>
      <trkpt lat="49.47661" lon="-1.83003">
        <ele>63.4</ele>
        <time>2020-06-14T17:07:55Z</time>
      </trkpt>
      <trkpt lat="49.47666" lon="-1.83002">
        <ele>63.3</ele>
        <time>2020-06-14T17:07:56Z</time>
      </trkpt>
      <trkpt lat="49.47671" lon="-1.83002">
        <ele>63.2</ele>
        <time>2020-06-14T17:07:57Z</time>
      </trkpt>
      <trkpt lat="49.47675" lon="-1.83002">
        <ele>63</ele>
        <time>2020-06-14T17:07:58Z</time>
      </trkpt>
      <trkpt lat="49.4768" lon="-1.83002">
        <ele>62.9</ele>
        <time>2020-06-14T17:07:59Z</time>
      </trkpt>
      <trkpt lat="49.47685" lon="-1.83">
        <ele>62.8</ele>
        <time>2020-06-14T17:08:00Z</time>
      </trkpt>
      <trkpt lat="49.4769" lon="-1.83">
        <ele>62.7</ele>
        <time>2020-06-14T17:08:01Z</time>
      </trkpt>
      <trkpt lat="49.47695" lon="-1.82998">
        <ele>62.5</ele>
        <time>2020-06-14T17:08:02Z</time>
      </trkpt>
      <trkpt lat="49.477" lon="-1.82995">
        <ele>62.4</ele>
        <time>2020-06-14T17:08:03Z</time>
      </trkpt>
      <trkpt lat="49.47704" lon="-1.82992">
        <ele>62.3</ele>
        <time>2020-06-14T17:08:04Z</time>
      </trkpt>
      <trkpt lat="49.47708" lon="-1.8299">
        <ele>62.2</ele>
        <time>2020-06-14T17:08:05Z</time>
      </trkpt>
      <trkpt lat="49.47711" lon="-1.82988">
        <ele>62.1</ele>
        <time>2020-06-14T17:08:06Z</time>
      </trkpt>
      <trkpt lat="49.47715" lon="-1.82986">
        <ele>61.9</ele>
        <time>2020-06-14T17:08:07Z</time>
      </trkpt>
      <trkpt lat="49.47719" lon="-1.82983">
        <ele>61.8</ele>
        <time>2020-06-14T17:08:08Z</time>
      </trkpt>
      <trkpt lat="49.47722" lon="-1.82979">
        <ele>61.7</ele>
        <time>2020-06-14T17:08:09Z</time>
      </trkpt>
      <trkpt lat="49.47726" lon="-1.82976">
        <ele>61.5</ele>
        <time>2020-06-14T17:08:10Z</time>
      </trkpt>
      <trkpt lat="49.4773" lon="-1.82972">
        <ele>61.4</ele>
        <time>2020-06-14T17:08:11Z</time>
      </trkpt>
      <trkpt lat="49.47734" lon="-1.82968">
        <ele>61.2</ele>
        <time>2020-06-14T17:08:12Z</time>
      </trkpt>
      <trkpt lat="49.47739" lon="-1.82964">
        <ele>60.9</ele>
        <time>2020-06-14T17:08:13Z</time>
      </trkpt>
      <trkpt lat="49.47743" lon="-1.8296">
        <ele>60.7</ele>
        <time>2020-06-14T17:08:14Z</time>
      </trkpt>
      <trkpt lat="49.47747" lon="-1.82954">
        <ele>60.5</ele>
        <time>2020-06-14T17:08:15Z</time>
      </trkpt>
      <trkpt lat="49.47751" lon="-1.8295">
        <ele>60.2</ele>
        <time>2020-06-14T17:08:16Z</time>
      </trkpt>
      <trkpt lat="49.47756" lon="-1.82946">
        <ele>59.9</ele>
        <time>2020-06-14T17:08:17Z</time>
      </trkpt>
      <trkpt lat="49.47762" lon="-1.82945">
        <ele>59.6</ele>
        <time>2020-06-14T17:08:18Z</time>
      </trkpt>
      <trkpt lat="49.47767" lon="-1.82943">
        <ele>59.2</ele>
        <time>2020-06-14T17:08:19Z</time>
      </trkpt>
      <trkpt lat="49.47775" lon="-1.82942">
        <ele>58.8</ele>
        <time>2020-06-14T17:08:20Z</time>
      </trkpt>
      <trkpt lat="49.4778" lon="-1.8294">
        <ele>58.4</ele>
        <time>2020-06-14T17:08:21Z</time>
      </trkpt>
      <trkpt lat="49.47787" lon="-1.82937">
        <ele>58</ele>
        <time>2020-06-14T17:08:22Z</time>
      </trkpt>
      <trkpt lat="49.47794" lon="-1.82935">
        <ele>57.5</ele>
        <time>2020-06-14T17:08:23Z</time>
      </trkpt>
      <trkpt lat="49.47799" lon="-1.82932">
        <ele>57.2</ele>
        <time>2020-06-14T17:08:24Z</time>
      </trkpt>
      <trkpt lat="49.47805" lon="-1.8293">
        <ele>56.8</ele>
        <time>2020-06-14T17:08:25Z</time>
      </trkpt>
      <trkpt lat="49.47812" lon="-1.82927">
        <ele>56.2</ele>
        <time>2020-06-14T17:08:26Z</time>
      </trkpt>
      <trkpt lat="49.47817" lon="-1.82924">
        <ele>55.9</ele>
        <time>2020-06-14T17:08:27Z</time>
      </trkpt>
      <trkpt lat="49.47823" lon="-1.82921">
        <ele>55.4</ele>
        <time>2020-06-14T17:08:28Z</time>
      </trkpt>
      <trkpt lat="49.47828" lon="-1.82919">
        <ele>55</ele>
        <time>2020-06-14T17:08:29Z</time>
      </trkpt>
      <trkpt lat="49.47834" lon="-1.82919">
        <ele>54.7</ele>
        <time>2020-06-14T17:08:30Z</time>
      </trkpt>
      <trkpt lat="49.4784" lon="-1.82921">
        <ele>54.3</ele>
        <time>2020-06-14T17:08:31Z</time>
      </trkpt>
      <trkpt lat="49.47845" lon="-1.82923">
        <ele>54</ele>
        <time>2020-06-14T17:08:32Z</time>
      </trkpt>
      <trkpt lat="49.47852" lon="-1.82926">
        <ele>53.7</ele>
        <time>2020-06-14T17:08:33Z</time>
      </trkpt>
      <trkpt lat="49.47859" lon="-1.82928">
        <ele>53.4</ele>
        <time>2020-06-14T17:08:34Z</time>
      </trkpt>
      <trkpt lat="49.47865" lon="-1.82928">
        <ele>53.4</ele>
        <time>2020-06-14T17:08:35Z</time>
      </trkpt>
      <trkpt lat="49.47871" lon="-1.82925">
        <ele>53.5</ele>
        <time>2020-06-14T17:08:36Z</time>
      </trkpt>
      <trkpt lat="49.47877" lon="-1.8292">
        <ele>53.6</ele>
        <time>2020-06-14T17:08:37Z</time>
      </trkpt>
      <trkpt lat="49.47882" lon="-1.82917">
        <ele>53.7</ele>
        <time>2020-06-14T17:08:38Z</time>
      </trkpt>
      <trkpt lat="49.47889" lon="-1.82913">
        <ele>53.8</ele>
        <time>2020-06-14T17:08:39Z</time>
      </trkpt>
      <trkpt lat="49.47894" lon="-1.8291">
        <ele>53.9</ele>
        <time>2020-06-14T17:08:40Z</time>
      </trkpt>
      <trkpt lat="49.479" lon="-1.82906">
        <ele>54</ele>
        <time>2020-06-14T17:08:41Z</time>
      </trkpt>
      <trkpt lat="49.47903" lon="-1.82903">
        <ele>54</ele>
        <time>2020-06-14T17:08:42Z</time>
      </trkpt>
      <trkpt lat="49.47908" lon="-1.829">
        <ele>54</ele>
        <time>2020-06-14T17:08:43Z</time>
      </trkpt>
      <trkpt lat="49.47911" lon="-1.82896">
        <ele>54</ele>
        <time>2020-06-14T17:08:44Z</time>
      </trkpt>
      <trkpt lat="49.47915" lon="-1.82894">
        <ele>54</ele>
        <time>2020-06-14T17:08:45Z</time>
      </trkpt>
      <trkpt lat="49.47919" lon="-1.8289">
        <ele>53.9</ele>
        <time>2020-06-14T17:08:46Z</time>
      </trkpt>
      <trkpt lat="49.47924" lon="-1.82887">
        <ele>53.7</ele>
        <time>2020-06-14T17:08:47Z</time>
      </trkpt>
      <trkpt lat="49.47928" lon="-1.82884">
        <ele>53.3</ele>
        <time>2020-06-14T17:08:48Z</time>
      </trkpt>
      <trkpt lat="49.47933" lon="-1.82882">
        <ele>52.9</ele>
        <time>2020-06-14T17:08:49Z</time>
      </trkpt>
      <trkpt lat="49.47937" lon="-1.82879">
        <ele>52.4</ele>
        <time>2020-06-14T17:08:50Z</time>
      </trkpt>
      <trkpt lat="49.47943" lon="-1.82877">
        <ele>51.8</ele>
        <time>2020-06-14T17:08:51Z</time>
      </trkpt>
      <trkpt lat="49.4795" lon="-1.82875">
        <ele>51</ele>
        <time>2020-06-14T17:08:52Z</time>
      </trkpt>
      <trkpt lat="49.47956" lon="-1.82872">
        <ele>50.3</ele>
        <time>2020-06-14T17:08:53Z</time>
      </trkpt>
      <trkpt lat="49.47963" lon="-1.8287">
        <ele>49.5</ele>
        <time>2020-06-14T17:08:54Z</time>
      </trkpt>
      <trkpt lat="49.47971" lon="-1.82866">
        <ele>48.7</ele>
        <time>2020-06-14T17:08:55Z</time>
      </trkpt>
      <trkpt lat="49.47979" lon="-1.82863">
        <ele>47.8</ele>
        <time>2020-06-14T17:08:56Z</time>
      </trkpt>
      <trkpt lat="49.47987" lon="-1.82858">
        <ele>47</ele>
        <time>2020-06-14T17:08:57Z</time>
      </trkpt>
      <trkpt lat="49.47997" lon="-1.82851">
        <ele>46</ele>
        <time>2020-06-14T17:08:58Z</time>
      </trkpt>
      <trkpt lat="49.48007" lon="-1.82844">
        <ele>44.9</ele>
        <time>2020-06-14T17:08:59Z</time>
      </trkpt>
      <trkpt lat="49.48017" lon="-1.82837">
        <ele>43.9</ele>
        <time>2020-06-14T17:09:00Z</time>
      </trkpt>
      <trkpt lat="49.48027" lon="-1.82831">
        <ele>43.1</ele>
        <time>2020-06-14T17:09:01Z</time>
      </trkpt>
      <trkpt lat="49.48038" lon="-1.82826">
        <ele>42.3</ele>
        <time>2020-06-14T17:09:02Z</time>
      </trkpt>
      <trkpt lat="49.48049" lon="-1.82822">
        <ele>41.5</ele>
        <time>2020-06-14T17:09:03Z</time>
      </trkpt>
      <trkpt lat="49.48061" lon="-1.82818">
        <ele>40.7</ele>
        <time>2020-06-14T17:09:04Z</time>
      </trkpt>
      <trkpt lat="49.48072" lon="-1.82814">
        <ele>40</ele>
        <time>2020-06-14T17:09:05Z</time>
      </trkpt>
      <trkpt lat="49.48083" lon="-1.8281">
        <ele>39.3</ele>
        <time>2020-06-14T17:09:06Z</time>
      </trkpt>
      <trkpt lat="49.48094" lon="-1.82806">
        <ele>38.7</ele>
        <time>2020-06-14T17:09:07Z</time>
      </trkpt>
      <trkpt lat="49.48105" lon="-1.82802">
        <ele>38.1</ele>
        <time>2020-06-14T17:09:08Z</time>
      </trkpt>
      <trkpt lat="49.48116" lon="-1.82798">
        <ele>37.5</ele>
        <time>2020-06-14T17:09:09Z</time>
      </trkpt>
      <trkpt lat="49.48126" lon="-1.82793">
        <ele>37</ele>
        <time>2020-06-14T17:09:10Z</time>
      </trkpt>
      <trkpt lat="49.48136" lon="-1.82789">
        <ele>36.5</ele>
        <time>2020-06-14T17:09:11Z</time>
      </trkpt>
      <trkpt lat="49.48147" lon="-1.82784">
        <ele>36</ele>
        <time>2020-06-14T17:09:12Z</time>
      </trkpt>
      <trkpt lat="49.48156" lon="-1.82778">
        <ele>35.6</ele>
        <time>2020-06-14T17:09:13Z</time>
      </trkpt>
      <trkpt lat="49.48166" lon="-1.82773">
        <ele>35.1</ele>
        <time>2020-06-14T17:09:14Z</time>
      </trkpt>
      <trkpt lat="49.48175" lon="-1.82768">
        <ele>34.7</ele>
        <time>2020-06-14T17:09:15Z</time>
      </trkpt>
      <trkpt lat="49.48184" lon="-1.82763">
        <ele>34.3</ele>
        <time>2020-06-14T17:09:16Z</time>
      </trkpt>
      <trkpt lat="49.48193" lon="-1.82759">
        <ele>34</ele>
        <time>2020-06-14T17:09:17Z</time>
      </trkpt>
      <trkpt lat="49.48202" lon="-1.82755">
        <ele>33.6</ele>
        <time>2020-06-14T17:09:18Z</time>
      </trkpt>
      <trkpt lat="49.48212" lon="-1.82751">
        <ele>33.2</ele>
        <time>2020-06-14T17:09:19Z</time>
      </trkpt>
      <trkpt lat="49.4822" lon="-1.82747">
        <ele>32.9</ele>
        <time>2020-06-14T17:09:20Z</time>
      </trkpt>
      <trkpt lat="49.48229" lon="-1.82743">
        <ele>32.6</ele>
        <time>2020-06-14T17:09:21Z</time>
      </trkpt>
      <trkpt lat="49.48238" lon="-1.82739">
        <ele>32.3</ele>
        <time>2020-06-14T17:09:22Z</time>
      </trkpt>
      <trkpt lat="49.48247" lon="-1.82736">
        <ele>32</ele>
        <time>2020-06-14T17:09:23Z</time>
      </trkpt>
      <trkpt lat="49.48256" lon="-1.82732">
        <ele>31.7</ele>
        <time>2020-06-14T17:09:24Z</time>
      </trkpt>
      <trkpt lat="49.48264" lon="-1.82729">
        <ele>31.5</ele>
        <time>2020-06-14T17:09:25Z</time>
      </trkpt>
      <trkpt lat="49.48273" lon="-1.82725">
        <ele>31.2</ele>
        <time>2020-06-14T17:09:26Z</time>
      </trkpt>
      <trkpt lat="49.48281" lon="-1.82722">
        <ele>30.9</ele>
        <time>2020-06-14T17:09:27Z</time>
      </trkpt>
      <trkpt lat="49.4829" lon="-1.8272">
        <ele>30.6</ele>
        <time>2020-06-14T17:09:28Z</time>
      </trkpt>
      <trkpt lat="49.48298" lon="-1.82718">
        <ele>30.3</ele>
        <time>2020-06-14T17:09:29Z</time>
      </trkpt>
      <trkpt lat="49.48306" lon="-1.82719">
        <ele>29.9</ele>
        <time>2020-06-14T17:09:30Z</time>
      </trkpt>
      <trkpt lat="49.48315" lon="-1.82719">
        <ele>29.4</ele>
        <time>2020-06-14T17:09:31Z</time>
      </trkpt>
      <trkpt lat="49.48324" lon="-1.8272">
        <ele>28.9</ele>
        <time>2020-06-14T17:09:32Z</time>
      </trkpt>
      <trkpt lat="49.48333" lon="-1.82721">
        <ele>28.3</ele>
        <time>2020-06-14T17:09:33Z</time>
      </trkpt>
      <trkpt lat="49.48342" lon="-1.82722">
        <ele>27.6</ele>
        <time>2020-06-14T17:09:34Z</time>
      </trkpt>
      <trkpt lat="49.48351" lon="-1.82724">
        <ele>27</ele>
        <time>2020-06-14T17:09:35Z</time>
      </trkpt>
      <trkpt lat="49.48361" lon="-1.82726">
        <ele>26.3</ele>
        <time>2020-06-14T17:09:36Z</time>
      </trkpt>
      <trkpt lat="49.4837" lon="-1.8273">
        <ele>25.7</ele>
        <time>2020-06-14T17:09:37Z</time>
      </trkpt>
      <trkpt lat="49.4838" lon="-1.82734">
        <ele>25.1</ele>
        <time>2020-06-14T17:09:38Z</time>
      </trkpt>
      <trkpt lat="49.48389" lon="-1.82741">
        <ele>24.5</ele>
        <time>2020-06-14T17:09:39Z</time>
      </trkpt>
      <trkpt lat="49.48398" lon="-1.82749">
        <ele>23.9</ele>
        <time>2020-06-14T17:09:40Z</time>
      </trkpt>
      <trkpt lat="49.48407" lon="-1.82757">
        <ele>23.3</ele>
        <time>2020-06-14T17:09:41Z</time>
      </trkpt>
      <trkpt lat="49.48416" lon="-1.82765">
        <ele>22.7</ele>
        <time>2020-06-14T17:09:42Z</time>
      </trkpt>
      <trkpt lat="49.48424" lon="-1.82772">
        <ele>22.2</ele>
        <time>2020-06-14T17:09:43Z</time>
      </trkpt>
      <trkpt lat="49.48432" lon="-1.8278">
        <ele>21.7</ele>
        <time>2020-06-14T17:09:44Z</time>
      </trkpt>
      <trkpt lat="49.4844" lon="-1.82788">
        <ele>21.3</ele>
        <time>2020-06-14T17:09:45Z</time>
      </trkpt>
      <trkpt lat="49.48448" lon="-1.82796">
        <ele>20.9</ele>
        <time>2020-06-14T17:09:46Z</time>
      </trkpt>
      <trkpt lat="49.48455" lon="-1.82802">
        <ele>20.6</ele>
        <time>2020-06-14T17:09:47Z</time>
      </trkpt>
      <trkpt lat="49.48461" lon="-1.82808">
        <ele>20.3</ele>
        <time>2020-06-14T17:09:48Z</time>
      </trkpt>
      <trkpt lat="49.48467" lon="-1.82813">
        <ele>20.1</ele>
        <time>2020-06-14T17:09:49Z</time>
      </trkpt>
      <trkpt lat="49.48473" lon="-1.82818">
        <ele>19.8</ele>
        <time>2020-06-14T17:09:50Z</time>
      </trkpt>
      <trkpt lat="49.4848" lon="-1.82821">
        <ele>19.5</ele>
        <time>2020-06-14T17:09:51Z</time>
      </trkpt>
      <trkpt lat="49.48487" lon="-1.82823">
        <ele>19.2</ele>
        <time>2020-06-14T17:09:52Z</time>
      </trkpt>
      <trkpt lat="49.48493" lon="-1.82826">
        <ele>18.9</ele>
        <time>2020-06-14T17:09:53Z</time>
      </trkpt>
      <trkpt lat="49.485" lon="-1.82829">
        <ele>18.6</ele>
        <time>2020-06-14T17:09:54Z</time>
      </trkpt>
      <trkpt lat="49.48506" lon="-1.82831">
        <ele>18.4</ele>
        <time>2020-06-14T17:09:55Z</time>
      </trkpt>
      <trkpt lat="49.48512" lon="-1.82834">
        <ele>18.1</ele>
        <time>2020-06-14T17:09:56Z</time>
      </trkpt>
      <trkpt lat="49.48517" lon="-1.82836">
        <ele>17.9</ele>
        <time>2020-06-14T17:09:57Z</time>
      </trkpt>
      <trkpt lat="49.48523" lon="-1.82837">
        <ele>17.7</ele>
        <time>2020-06-14T17:09:58Z</time>
      </trkpt>
      <trkpt lat="49.4853" lon="-1.82838">
        <ele>17.5</ele>
        <time>2020-06-14T17:09:59Z</time>
      </trkpt>
      <trkpt lat="49.48536" lon="-1.82839">
        <ele>17.4</ele>
        <time>2020-06-14T17:10:00Z</time>
      </trkpt>
      <trkpt lat="49.48542" lon="-1.82841">
        <ele>17.2</ele>
        <time>2020-06-14T17:10:01Z</time>
      </trkpt>
      <trkpt lat="49.48547" lon="-1.82845">
        <ele>17</ele>
        <time>2020-06-14T17:10:02Z</time>
      </trkpt>
      <trkpt lat="49.48553" lon="-1.82846">
        <ele>16.9</ele>
        <time>2020-06-14T17:10:03Z</time>
      </trkpt>
      <trkpt lat="49.48558" lon="-1.82848">
        <ele>16.8</ele>
        <time>2020-06-14T17:10:04Z</time>
      </trkpt>
      <trkpt lat="49.48563" lon="-1.82849">
        <ele>16.7</ele>
        <time>2020-06-14T17:10:05Z</time>
      </trkpt>
      <trkpt lat="49.48568" lon="-1.8285">
        <ele>16.6</ele>
        <time>2020-06-14T17:10:06Z</time>
      </trkpt>
      <trkpt lat="49.48572" lon="-1.82851">
        <ele>16.5</ele>
        <time>2020-06-14T17:10:07Z</time>
      </trkpt>
      <trkpt lat="49.48576" lon="-1.82855">
        <ele>16.5</ele>
        <time>2020-06-14T17:10:08Z</time>
      </trkpt>
      <trkpt lat="49.48578" lon="-1.82861">
        <ele>16.4</ele>
        <time>2020-06-14T17:10:09Z</time>
      </trkpt>
      <trkpt lat="49.4858" lon="-1.82869">
        <ele>16.4</ele>
        <time>2020-06-14T17:10:10Z</time>
      </trkpt>
      <trkpt lat="49.48583" lon="-1.82876">
        <ele>16.4</ele>
        <time>2020-06-14T17:10:11Z</time>
      </trkpt>
      <trkpt lat="49.48585" lon="-1.82883">
        <ele>16.4</ele>
        <time>2020-06-14T17:10:12Z</time>
      </trkpt>
      <trkpt lat="49.48587" lon="-1.8289">
        <ele>16.4</ele>
        <time>2020-06-14T17:10:13Z</time>
      </trkpt>
      <trkpt lat="49.48588" lon="-1.82895">
        <ele>16.3</ele>
        <time>2020-06-14T17:10:14Z</time>
      </trkpt>
      <trkpt lat="49.48592" lon="-1.82898">
        <ele>16.3</ele>
        <time>2020-06-14T17:10:15Z</time>
      </trkpt>
      <trkpt lat="49.48593" lon="-1.82899">
        <ele>16.2</ele>
        <time>2020-06-14T17:10:16Z</time>
      </trkpt>
      <trkpt lat="49.48597" lon="-1.82897">
        <ele>16.2</ele>
        <time>2020-06-14T17:10:17Z</time>
      </trkpt>
      <trkpt lat="49.48601" lon="-1.82894">
        <ele>16.1</ele>
        <time>2020-06-14T17:10:18Z</time>
      </trkpt>
      <trkpt lat="49.48606" lon="-1.82893">
        <ele>15.9</ele>
        <time>2020-06-14T17:10:19Z</time>
      </trkpt>
      <trkpt lat="49.48611" lon="-1.8289">
        <ele>15.8</ele>
        <time>2020-06-14T17:10:20Z</time>
      </trkpt>
      <trkpt lat="49.48616" lon="-1.8289">
        <ele>15.6</ele>
        <time>2020-06-14T17:10:21Z</time>
      </trkpt>
      <trkpt lat="49.48622" lon="-1.82888">
        <ele>15.5</ele>
        <time>2020-06-14T17:10:22Z</time>
      </trkpt>
      <trkpt lat="49.48628" lon="-1.82885">
        <ele>15.3</ele>
        <time>2020-06-14T17:10:23Z</time>
      </trkpt>
      <trkpt lat="49.48633" lon="-1.82884">
        <ele>15.3</ele>
        <time>2020-06-14T17:10:24Z</time>
      </trkpt>
      <trkpt lat="49.48638" lon="-1.82883">
        <ele>15.3</ele>
        <time>2020-06-14T17:10:25Z</time>
      </trkpt>
      <trkpt lat="49.48642" lon="-1.82881">
        <ele>15.2</ele>
        <time>2020-06-14T17:10:26Z</time>
      </trkpt>
      <trkpt lat="49.48647" lon="-1.82879">
        <ele>15.1</ele>
        <time>2020-06-14T17:10:27Z</time>
      </trkpt>
      <trkpt lat="49.48652" lon="-1.82877">
        <ele>15.1</ele>
        <time>2020-06-14T17:10:28Z</time>
      </trkpt>
      <trkpt lat="49.48657" lon="-1.82877">
        <ele>15</ele>
        <time>2020-06-14T17:10:29Z</time>
      </trkpt>
      <trkpt lat="49.48661" lon="-1.82875">
        <ele>14.9</ele>
        <time>2020-06-14T17:10:30Z</time>
      </trkpt>
      <trkpt lat="49.48666" lon="-1.82874">
        <ele>14.9</ele>
        <time>2020-06-14T17:10:31Z</time>
      </trkpt>
      <trkpt lat="49.48671" lon="-1.82876">
        <ele>14.8</ele>
        <time>2020-06-14T17:10:32Z</time>
      </trkpt>
      <trkpt lat="49.48676" lon="-1.82878">
        <ele>14.7</ele>
        <time>2020-06-14T17:10:33Z</time>
      </trkpt>
      <trkpt lat="49.48682" lon="-1.82879">
        <ele>14.7</ele>
        <time>2020-06-14T17:10:34Z</time>
      </trkpt>
      <trkpt lat="49.48688" lon="-1.82875">
        <ele>14.7</ele>
        <time>2020-06-14T17:10:35Z</time>
      </trkpt>
      <trkpt lat="49.48693" lon="-1.82877">
        <ele>14.6</ele>
        <time>2020-06-14T17:10:36Z</time>
      </trkpt>
      <trkpt lat="49.48697" lon="-1.8288">
        <ele>14.6</ele>
        <time>2020-06-14T17:10:37Z</time>
      </trkpt>
      <trkpt lat="49.48701" lon="-1.82883">
        <ele>14.5</ele>
        <time>2020-06-14T17:10:38Z</time>
      </trkpt>
      <trkpt lat="49.48707" lon="-1.82883">
        <ele>14.5</ele>
        <time>2020-06-14T17:10:39Z</time>
      </trkpt>
      <trkpt lat="49.48712" lon="-1.82884">
        <ele>14.4</ele>
        <time>2020-06-14T17:10:40Z</time>
      </trkpt>
      <trkpt lat="49.48717" lon="-1.82885">
        <ele>14.4</ele>
        <time>2020-06-14T17:10:41Z</time>
      </trkpt>
      <trkpt lat="49.48722" lon="-1.82889">
        <ele>14.3</ele>
        <time>2020-06-14T17:10:42Z</time>
      </trkpt>
      <trkpt lat="49.48727" lon="-1.82892">
        <ele>14.3</ele>
        <time>2020-06-14T17:10:43Z</time>
      </trkpt>
      <trkpt lat="49.48732" lon="-1.82894">
        <ele>14.3</ele>
        <time>2020-06-14T17:10:44Z</time>
      </trkpt>
      <trkpt lat="49.48738" lon="-1.82889">
        <ele>14.3</ele>
        <time>2020-06-14T17:10:45Z</time>
      </trkpt>
      <trkpt lat="49.48743" lon="-1.82887">
        <ele>14.3</ele>
        <time>2020-06-14T17:10:46Z</time>
      </trkpt>
      <trkpt lat="49.48748" lon="-1.82883">
        <ele>14.4</ele>
        <time>2020-06-14T17:10:47Z</time>
      </trkpt>
      <trkpt lat="49.48753" lon="-1.82882">
        <ele>14.5</ele>
        <time>2020-06-14T17:10:48Z</time>
      </trkpt>
      <trkpt lat="49.48757" lon="-1.82884">
        <ele>14.6</ele>
        <time>2020-06-14T17:10:49Z</time>
      </trkpt>
      <trkpt lat="49.48761" lon="-1.82886">
        <ele>14.7</ele>
        <time>2020-06-14T17:10:50Z</time>
      </trkpt>
      <trkpt lat="49.48766" lon="-1.82888">
        <ele>14.7</ele>
        <time>2020-06-14T17:10:51Z</time>
      </trkpt>
      <trkpt lat="49.4877" lon="-1.82888">
        <ele>14.8</ele>
        <time>2020-06-14T17:10:52Z</time>
      </trkpt>
      <trkpt lat="49.48773" lon="-1.82891">
        <ele>14.9</ele>
        <time>2020-06-14T17:10:53Z</time>
      </trkpt>
      <trkpt lat="49.48777" lon="-1.82893">
        <ele>15</ele>
        <time>2020-06-14T17:10:54Z</time>
      </trkpt>
      <trkpt lat="49.48781" lon="-1.82895">
        <ele>15.1</ele>
        <time>2020-06-14T17:10:55Z</time>
      </trkpt>
      <trkpt lat="49.48786" lon="-1.82895">
        <ele>15.2</ele>
        <time>2020-06-14T17:10:56Z</time>
      </trkpt>
      <trkpt lat="49.4879" lon="-1.82894">
        <ele>15.3</ele>
        <time>2020-06-14T17:10:57Z</time>
      </trkpt>
      <trkpt lat="49.48793" lon="-1.82892">
        <ele>15.3</ele>
        <time>2020-06-14T17:10:58Z</time>
      </trkpt>
      <trkpt lat="49.48796" lon="-1.8289">
        <ele>15.4</ele>
        <time>2020-06-14T17:10:59Z</time>
      </trkpt>
      <trkpt lat="49.488" lon="-1.82888">
        <ele>15.4</ele>
        <time>2020-06-14T17:11:00Z</time>
      </trkpt>
      <trkpt lat="49.48804" lon="-1.82887">
        <ele>15.5</ele>
        <time>2020-06-14T17:11:01Z</time>
      </trkpt>
      <trkpt lat="49.48808" lon="-1.82886">
        <ele>15.6</ele>
        <time>2020-06-14T17:11:02Z</time>
      </trkpt>
      <trkpt lat="49.48812" lon="-1.82885">
        <ele>15.7</ele>
        <time>2020-06-14T17:11:03Z</time>
      </trkpt>
      <trkpt lat="49.48816" lon="-1.82882">
        <ele>15.7</ele>
        <time>2020-06-14T17:11:04Z</time>
      </trkpt>
      <trkpt lat="49.4882" lon="-1.82876">
        <ele>15.8</ele>
        <time>2020-06-14T17:11:05Z</time>
      </trkpt>
      <trkpt lat="49.48823" lon="-1.82875">
        <ele>15.9</ele>
        <time>2020-06-14T17:11:06Z</time>
      </trkpt>
      <trkpt lat="49.48828" lon="-1.82872">
        <ele>16</ele>
        <time>2020-06-14T17:11:07Z</time>
      </trkpt>
      <trkpt lat="49.48832" lon="-1.8287">
        <ele>16.1</ele>
        <time>2020-06-14T17:11:08Z</time>
      </trkpt>
      <trkpt lat="49.48837" lon="-1.82869">
        <ele>16.2</ele>
        <time>2020-06-14T17:11:09Z</time>
      </trkpt>
      <trkpt lat="49.48842" lon="-1.8287">
        <ele>16.3</ele>
        <time>2020-06-14T17:11:10Z</time>
      </trkpt>
      <trkpt lat="49.48846" lon="-1.8287">
        <ele>16.4</ele>
        <time>2020-06-14T17:11:11Z</time>
      </trkpt>
      <trkpt lat="49.4885" lon="-1.82871">
        <ele>16.5</ele>
        <time>2020-06-14T17:11:12Z</time>
      </trkpt>
      <trkpt lat="49.48855" lon="-1.82873">
        <ele>16.7</ele>
        <time>2020-06-14T17:11:13Z</time>
      </trkpt>
      <trkpt lat="49.48859" lon="-1.82873">
        <ele>16.8</ele>
        <time>2020-06-14T17:11:14Z</time>
      </trkpt>
      <trkpt lat="49.48863" lon="-1.82873">
        <ele>16.9</ele>
        <time>2020-06-14T17:11:15Z</time>
      </trkpt>
      <trkpt lat="49.48867" lon="-1.82872">
        <ele>17</ele>
        <time>2020-06-14T17:11:16Z</time>
      </trkpt>
      <trkpt lat="49.48871" lon="-1.82871">
        <ele>17.1</ele>
        <time>2020-06-14T17:11:17Z</time>
      </trkpt>
      <trkpt lat="49.48875" lon="-1.8287">
        <ele>17.2</ele>
        <time>2020-06-14T17:11:18Z</time>
      </trkpt>
      <trkpt lat="49.48879" lon="-1.82868">
        <ele>17.3</ele>
        <time>2020-06-14T17:11:19Z</time>
      </trkpt>
      <trkpt lat="49.48883" lon="-1.82867">
        <ele>17.4</ele>
        <time>2020-06-14T17:11:20Z</time>
      </trkpt>
      <trkpt lat="49.48887" lon="-1.82865">
        <ele>17.5</ele>
        <time>2020-06-14T17:11:21Z</time>
      </trkpt>
      <trkpt lat="49.48891" lon="-1.82865">
        <ele>17.6</ele>
        <time>2020-06-14T17:11:22Z</time>
      </trkpt>
      <trkpt lat="49.48896" lon="-1.82862">
        <ele>17.7</ele>
        <time>2020-06-14T17:11:23Z</time>
      </trkpt>
      <trkpt lat="49.489" lon="-1.82861">
        <ele>17.8</ele>
        <time>2020-06-14T17:11:24Z</time>
      </trkpt>
      <trkpt lat="49.48904" lon="-1.82858">
        <ele>17.9</ele>
        <time>2020-06-14T17:11:25Z</time>
      </trkpt>
      <trkpt lat="49.48908" lon="-1.82856">
        <ele>18</ele>
        <time>2020-06-14T17:11:26Z</time>
      </trkpt>
      <trkpt lat="49.48912" lon="-1.82852">
        <ele>18.1</ele>
        <time>2020-06-14T17:11:27Z</time>
      </trkpt>
      <trkpt lat="49.48916" lon="-1.82851">
        <ele>18.2</ele>
        <time>2020-06-14T17:11:28Z</time>
      </trkpt>
      <trkpt lat="49.4892" lon="-1.82849">
        <ele>18.2</ele>
        <time>2020-06-14T17:11:29Z</time>
      </trkpt>
      <trkpt lat="49.48923" lon="-1.82848">
        <ele>18.3</ele>
        <time>2020-06-14T17:11:30Z</time>
      </trkpt>
      <trkpt lat="49.48929" lon="-1.82847">
        <ele>18.3</ele>
        <time>2020-06-14T17:11:31Z</time>
      </trkpt>
      <trkpt lat="49.48933" lon="-1.82846">
        <ele>18.3</ele>
        <time>2020-06-14T17:11:32Z</time>
      </trkpt>
      <trkpt lat="49.48936" lon="-1.82849">
        <ele>18.3</ele>
        <time>2020-06-14T17:11:33Z</time>
      </trkpt>
      <trkpt lat="49.48939" lon="-1.82849">
        <ele>18.4</ele>
        <time>2020-06-14T17:11:34Z</time>
      </trkpt>
      <trkpt lat="49.48943" lon="-1.8285">
        <ele>18.4</ele>
        <time>2020-06-14T17:11:35Z</time>
      </trkpt>
      <trkpt lat="49.48946" lon="-1.8285">
        <ele>18.4</ele>
        <time>2020-06-14T17:11:36Z</time>
      </trkpt>
      <trkpt lat="49.4895" lon="-1.82848">
        <ele>18.5</ele>
        <time>2020-06-14T17:11:37Z</time>
      </trkpt>
      <trkpt lat="49.48954" lon="-1.82845">
        <ele>18.5</ele>
        <time>2020-06-14T17:11:38Z</time>
      </trkpt>
      <trkpt lat="49.4896" lon="-1.82841">
        <ele>18.4</ele>
        <time>2020-06-14T17:11:39Z</time>
      </trkpt>
      <trkpt lat="49.48964" lon="-1.82839">
        <ele>18.3</ele>
        <time>2020-06-14T17:11:40Z</time>
      </trkpt>
      <trkpt lat="49.48969" lon="-1.82836">
        <ele>18.2</ele>
        <time>2020-06-14T17:11:41Z</time>
      </trkpt>
      <trkpt lat="49.48973" lon="-1.82833">
        <ele>18.1</ele>
        <time>2020-06-14T17:11:42Z</time>
      </trkpt>
      <trkpt lat="49.48977" lon="-1.82831">
        <ele>18</ele>
        <time>2020-06-14T17:11:43Z</time>
      </trkpt>
      <trkpt lat="49.48981" lon="-1.82828">
        <ele>17.8</ele>
        <time>2020-06-14T17:11:44Z</time>
      </trkpt>
      <trkpt lat="49.48983" lon="-1.82825">
        <ele>17.7</ele>
        <time>2020-06-14T17:11:45Z</time>
      </trkpt>
      <trkpt lat="49.48987" lon="-1.82823">
        <ele>17.6</ele>
        <time>2020-06-14T17:11:46Z</time>
      </trkpt>
      <trkpt lat="49.48991" lon="-1.8282">
        <ele>17.4</ele>
        <time>2020-06-14T17:11:47Z</time>
      </trkpt>
      <trkpt lat="49.48995" lon="-1.82818">
        <ele>17.1</ele>
        <time>2020-06-14T17:11:48Z</time>
      </trkpt>
      <trkpt lat="49.49" lon="-1.82816">
        <ele>16.9</ele>
        <time>2020-06-14T17:11:49Z</time>
      </trkpt>
      <trkpt lat="49.49003" lon="-1.82814">
        <ele>16.7</ele>
        <time>2020-06-14T17:11:50Z</time>
      </trkpt>
      <trkpt lat="49.49008" lon="-1.82812">
        <ele>16.3</ele>
        <time>2020-06-14T17:11:51Z</time>
      </trkpt>
      <trkpt lat="49.49014" lon="-1.82808">
        <ele>15.9</ele>
        <time>2020-06-14T17:11:52Z</time>
      </trkpt>
      <trkpt lat="49.4902" lon="-1.82805">
        <ele>15.5</ele>
        <time>2020-06-14T17:11:53Z</time>
      </trkpt>
      <trkpt lat="49.49026" lon="-1.828">
        <ele>15</ele>
        <time>2020-06-14T17:11:54Z</time>
      </trkpt>
      <trkpt lat="49.49033" lon="-1.82794">
        <ele>14.5</ele>
        <time>2020-06-14T17:11:55Z</time>
      </trkpt>
      <trkpt lat="49.49039" lon="-1.82789">
        <ele>14.1</ele>
        <time>2020-06-14T17:11:56Z</time>
      </trkpt>
      <trkpt lat="49.49045" lon="-1.82785">
        <ele>13.7</ele>
        <time>2020-06-14T17:11:57Z</time>
      </trkpt>
      <trkpt lat="49.49052" lon="-1.82781">
        <ele>13.3</ele>
        <time>2020-06-14T17:11:58Z</time>
      </trkpt>
      <trkpt lat="49.4906" lon="-1.82775">
        <ele>13</ele>
        <time>2020-06-14T17:11:59Z</time>
      </trkpt>
      <trkpt lat="49.49067" lon="-1.82769">
        <ele>12.6</ele>
        <time>2020-06-14T17:12:00Z</time>
      </trkpt>
      <trkpt lat="49.49075" lon="-1.82764">
        <ele>12.4</ele>
        <time>2020-06-14T17:12:01Z</time>
      </trkpt>
      <trkpt lat="49.49082" lon="-1.82759">
        <ele>12.2</ele>
        <time>2020-06-14T17:12:02Z</time>
      </trkpt>
      <trkpt lat="49.49089" lon="-1.82754">
        <ele>12.1</ele>
        <time>2020-06-14T17:12:03Z</time>
      </trkpt>
      <trkpt lat="49.49095" lon="-1.82749">
        <ele>12</ele>
        <time>2020-06-14T17:12:04Z</time>
      </trkpt>
      <trkpt lat="49.49102" lon="-1.82744">
        <ele>12</ele>
        <time>2020-06-14T17:12:05Z</time>
      </trkpt>
      <trkpt lat="49.49109" lon="-1.82741">
        <ele>11.9</ele>
        <time>2020-06-14T17:12:06Z</time>
      </trkpt>
      <trkpt lat="49.49116" lon="-1.8274">
        <ele>11.9</ele>
        <time>2020-06-14T17:12:07Z</time>
      </trkpt>
      <trkpt lat="49.49124" lon="-1.82738">
        <ele>12</ele>
        <time>2020-06-14T17:12:08Z</time>
      </trkpt>
      <trkpt lat="49.4913" lon="-1.82737">
        <ele>12</ele>
        <time>2020-06-14T17:12:09Z</time>
      </trkpt>
      <trkpt lat="49.49135" lon="-1.82735">
        <ele>12.1</ele>
        <time>2020-06-14T17:12:10Z</time>
      </trkpt>
      <trkpt lat="49.49139" lon="-1.82734">
        <ele>12.2</ele>
        <time>2020-06-14T17:12:11Z</time>
      </trkpt>
      <trkpt lat="49.49144" lon="-1.82733">
        <ele>12.2</ele>
        <time>2020-06-14T17:12:12Z</time>
      </trkpt>
      <trkpt lat="49.49149" lon="-1.82736">
        <ele>12.1</ele>
        <time>2020-06-14T17:12:13Z</time>
      </trkpt>
      <trkpt lat="49.49154" lon="-1.8274">
        <ele>11.9</ele>
        <time>2020-06-14T17:12:14Z</time>
      </trkpt>
      <trkpt lat="49.49161" lon="-1.82745">
        <ele>11.8</ele>
        <time>2020-06-14T17:12:15Z</time>
      </trkpt>
      <trkpt lat="49.49164" lon="-1.82754">
        <ele>11.6</ele>
        <time>2020-06-14T17:12:16Z</time>
      </trkpt>
      <trkpt lat="49.49167" lon="-1.82763">
        <ele>11.4</ele>
        <time>2020-06-14T17:12:17Z</time>
      </trkpt>
      <trkpt lat="49.4917" lon="-1.82773">
        <ele>11.2</ele>
        <time>2020-06-14T17:12:18Z</time>
      </trkpt>
      <trkpt lat="49.49172" lon="-1.82783">
        <ele>11.1</ele>
        <time>2020-06-14T17:12:19Z</time>
      </trkpt>
      <trkpt lat="49.49175" lon="-1.82794">
        <ele>11.1</ele>
        <time>2020-06-14T17:12:20Z</time>
      </trkpt>
      <trkpt lat="49.49179" lon="-1.82804">
        <ele>11.1</ele>
        <time>2020-06-14T17:12:21Z</time>
      </trkpt>
      <trkpt lat="49.49184" lon="-1.82812">
        <ele>11.1</ele>
        <time>2020-06-14T17:12:22Z</time>
      </trkpt>
      <trkpt lat="49.4919" lon="-1.82817">
        <ele>11.2</ele>
        <time>2020-06-14T17:12:23Z</time>
      </trkpt>
      <trkpt lat="49.49196" lon="-1.82821">
        <ele>11.3</ele>
        <time>2020-06-14T17:12:24Z</time>
      </trkpt>
      <trkpt lat="49.49203" lon="-1.82821">
        <ele>11.4</ele>
        <time>2020-06-14T17:12:25Z</time>
      </trkpt>
      <trkpt lat="49.49209" lon="-1.82822">
        <ele>11.6</ele>
        <time>2020-06-14T17:12:26Z</time>
      </trkpt>
      <trkpt lat="49.49215" lon="-1.82823">
        <ele>11.8</ele>
        <time>2020-06-14T17:12:27Z</time>
      </trkpt>
      <trkpt lat="49.49221" lon="-1.82824">
        <ele>12</ele>
        <time>2020-06-14T17:12:28Z</time>
      </trkpt>
      <trkpt lat="49.49227" lon="-1.82825">
        <ele>12.3</ele>
        <time>2020-06-14T17:12:29Z</time>
      </trkpt>
      <trkpt lat="49.49233" lon="-1.82825">
        <ele>12.5</ele>
        <time>2020-06-14T17:12:30Z</time>
      </trkpt>
      <trkpt lat="49.49238" lon="-1.82824">
        <ele>12.8</ele>
        <time>2020-06-14T17:12:31Z</time>
      </trkpt>
      <trkpt lat="49.49244" lon="-1.82825">
        <ele>13</ele>
        <time>2020-06-14T17:12:32Z</time>
      </trkpt>
      <trkpt lat="49.49249" lon="-1.82826">
        <ele>13.3</ele>
        <time>2020-06-14T17:12:33Z</time>
      </trkpt>
      <trkpt lat="49.49254" lon="-1.82827">
        <ele>13.6</ele>
        <time>2020-06-14T17:12:34Z</time>
      </trkpt>
      <trkpt lat="49.49259" lon="-1.82827">
        <ele>13.8</ele>
        <time>2020-06-14T17:12:35Z</time>
      </trkpt>
      <trkpt lat="49.49264" lon="-1.82827">
        <ele>14.1</ele>
        <time>2020-06-14T17:12:36Z</time>
      </trkpt>
      <trkpt lat="49.49268" lon="-1.82827">
        <ele>14.3</ele>
        <time>2020-06-14T17:12:37Z</time>
      </trkpt>
      <trkpt lat="49.49273" lon="-1.82828">
        <ele>14.6</ele>
        <time>2020-06-14T17:12:38Z</time>
      </trkpt>
      <trkpt lat="49.49277" lon="-1.82829">
        <ele>14.8</ele>
        <time>2020-06-14T17:12:39Z</time>
      </trkpt>
      <trkpt lat="49.49281" lon="-1.82828">
        <ele>15</ele>
        <time>2020-06-14T17:12:40Z</time>
      </trkpt>
      <trkpt lat="49.49285" lon="-1.8283">
        <ele>15.2</ele>
        <time>2020-06-14T17:12:41Z</time>
      </trkpt>
      <trkpt lat="49.49288" lon="-1.82831">
        <ele>15.4</ele>
        <time>2020-06-14T17:12:42Z</time>
      </trkpt>
      <trkpt lat="49.49291" lon="-1.82831">
        <ele>15.5</ele>
        <time>2020-06-14T17:12:43Z</time>
      </trkpt>
      <trkpt lat="49.49294" lon="-1.82831">
        <ele>15.6</ele>
        <time>2020-06-14T17:12:44Z</time>
      </trkpt>
      <trkpt lat="49.49297" lon="-1.82831">
        <ele>15.8</ele>
        <time>2020-06-14T17:12:45Z</time>
      </trkpt>
      <trkpt lat="49.49301" lon="-1.82831">
        <ele>15.9</ele>
        <time>2020-06-14T17:12:46Z</time>
      </trkpt>
      <trkpt lat="49.49304" lon="-1.82832">
        <ele>16.1</ele>
        <time>2020-06-14T17:12:47Z</time>
      </trkpt>
      <trkpt lat="49.49307" lon="-1.82834">
        <ele>16.3</ele>
        <time>2020-06-14T17:12:48Z</time>
      </trkpt>
      <trkpt lat="49.4931" lon="-1.82836">
        <ele>16.4</ele>
        <time>2020-06-14T17:12:49Z</time>
      </trkpt>
      <trkpt lat="49.49313" lon="-1.82837">
        <ele>16.6</ele>
        <time>2020-06-14T17:12:50Z</time>
      </trkpt>
      <trkpt lat="49.49315" lon="-1.8284">
        <ele>16.8</ele>
        <time>2020-06-14T17:12:51Z</time>
      </trkpt>
      <trkpt lat="49.49318" lon="-1.82842">
        <ele>17</ele>
        <time>2020-06-14T17:12:52Z</time>
      </trkpt>
      <trkpt lat="49.49322" lon="-1.82843">
        <ele>17.2</ele>
        <time>2020-06-14T17:12:53Z</time>
      </trkpt>
      <trkpt lat="49.49325" lon="-1.82845">
        <ele>17.4</ele>
        <time>2020-06-14T17:12:54Z</time>
      </trkpt>
      <trkpt lat="49.49328" lon="-1.82847">
        <ele>17.6</ele>
        <time>2020-06-14T17:12:55Z</time>
      </trkpt>
      <trkpt lat="49.49333" lon="-1.8285">
        <ele>17.9</ele>
        <time>2020-06-14T17:12:56Z</time>
      </trkpt>
      <trkpt lat="49.49336" lon="-1.82853">
        <ele>18.1</ele>
        <time>2020-06-14T17:12:57Z</time>
      </trkpt>
      <trkpt lat="49.49339" lon="-1.82856">
        <ele>18.3</ele>
        <time>2020-06-14T17:12:58Z</time>
      </trkpt>
      <trkpt lat="49.49342" lon="-1.82858">
        <ele>18.4</ele>
        <time>2020-06-14T17:12:59Z</time>
      </trkpt>
      <trkpt lat="49.49345" lon="-1.8286">
        <ele>18.6</ele>
        <time>2020-06-14T17:13:00Z</time>
      </trkpt>
      <trkpt lat="49.49348" lon="-1.82862">
        <ele>18.8</ele>
        <time>2020-06-14T17:13:01Z</time>
      </trkpt>
      <trkpt lat="49.49352" lon="-1.82863">
        <ele>19.1</ele>
        <time>2020-06-14T17:13:02Z</time>
      </trkpt>
      <trkpt lat="49.49355" lon="-1.82865">
        <ele>19.3</ele>
        <time>2020-06-14T17:13:03Z</time>
      </trkpt>
      <trkpt lat="49.49358" lon="-1.82866">
        <ele>19.4</ele>
        <time>2020-06-14T17:13:04Z</time>
      </trkpt>
      <trkpt lat="49.49362" lon="-1.82869">
        <ele>19.7</ele>
        <time>2020-06-14T17:13:05Z</time>
      </trkpt>
      <trkpt lat="49.49363" lon="-1.82869">
        <ele>19.7</ele>
        <time>2020-06-14T17:13:06Z</time>
      </trkpt>
      <trkpt lat="49.49368" lon="-1.82872">
        <ele>20</ele>
        <time>2020-06-14T17:13:07Z</time>
      </trkpt>
      <trkpt lat="49.4937" lon="-1.82874">
        <ele>20.2</ele>
        <time>2020-06-14T17:13:08Z</time>
      </trkpt>
      <trkpt lat="49.49374" lon="-1.82877">
        <ele>20.4</ele>
        <time>2020-06-14T17:13:09Z</time>
      </trkpt>
      <trkpt lat="49.49377" lon="-1.8288">
        <ele>20.6</ele>
        <time>2020-06-14T17:13:10Z</time>
      </trkpt>
      <trkpt lat="49.4938" lon="-1.82882">
        <ele>20.8</ele>
        <time>2020-06-14T17:13:11Z</time>
      </trkpt>
      <trkpt lat="49.49384" lon="-1.82885">
        <ele>21</ele>
        <time>2020-06-14T17:13:12Z</time>
      </trkpt>
      <trkpt lat="49.49387" lon="-1.82887">
        <ele>21.1</ele>
        <time>2020-06-14T17:13:13Z</time>
      </trkpt>
      <trkpt lat="49.4939" lon="-1.8289">
        <ele>21.3</ele>
        <time>2020-06-14T17:13:14Z</time>
      </trkpt>
      <trkpt lat="49.49393" lon="-1.82892">
        <ele>21.4</ele>
        <time>2020-06-14T17:13:15Z</time>
      </trkpt>
      <trkpt lat="49.49396" lon="-1.82895">
        <ele>21.5</ele>
        <time>2020-06-14T17:13:16Z</time>
      </trkpt>
      <trkpt lat="49.49399" lon="-1.82898">
        <ele>21.6</ele>
        <time>2020-06-14T17:13:17Z</time>
      </trkpt>
      <trkpt lat="49.49401" lon="-1.82899">
        <ele>21.6</ele>
        <time>2020-06-14T17:13:18Z</time>
      </trkpt>
      <trkpt lat="49.49404" lon="-1.82902">
        <ele>21.7</ele>
        <time>2020-06-14T17:13:19Z</time>
      </trkpt>
      <trkpt lat="49.49406" lon="-1.82904">
        <ele>21.8</ele>
        <time>2020-06-14T17:13:20Z</time>
      </trkpt>
      <trkpt lat="49.49409" lon="-1.82907">
        <ele>21.9</ele>
        <time>2020-06-14T17:13:21Z</time>
      </trkpt>
      <trkpt lat="49.49412" lon="-1.82909">
        <ele>21.9</ele>
        <time>2020-06-14T17:13:22Z</time>
      </trkpt>
      <trkpt lat="49.49415" lon="-1.82912">
        <ele>22</ele>
        <time>2020-06-14T17:13:23Z</time>
      </trkpt>
      <trkpt lat="49.49418" lon="-1.82914">
        <ele>22</ele>
        <time>2020-06-14T17:13:24Z</time>
      </trkpt>
      <trkpt lat="49.49422" lon="-1.82917">
        <ele>22.1</ele>
        <time>2020-06-14T17:13:25Z</time>
      </trkpt>
      <trkpt lat="49.49426" lon="-1.8292">
        <ele>22.1</ele>
        <time>2020-06-14T17:13:26Z</time>
      </trkpt>
      <trkpt lat="49.4943" lon="-1.82922">
        <ele>22</ele>
        <time>2020-06-14T17:13:27Z</time>
      </trkpt>
      <trkpt lat="49.49434" lon="-1.82925">
        <ele>22</ele>
        <time>2020-06-14T17:13:28Z</time>
      </trkpt>
      <trkpt lat="49.49438" lon="-1.82928">
        <ele>22</ele>
        <time>2020-06-14T17:13:29Z</time>
      </trkpt>
      <trkpt lat="49.4944" lon="-1.82931">
        <ele>21.9</ele>
        <time>2020-06-14T17:13:30Z</time>
      </trkpt>
      <trkpt lat="49.49444" lon="-1.82933">
        <ele>21.8</ele>
        <time>2020-06-14T17:13:31Z</time>
      </trkpt>
      <trkpt lat="49.49449" lon="-1.82935">
        <ele>21.7</ele>
        <time>2020-06-14T17:13:32Z</time>
      </trkpt>
      <trkpt lat="49.49452" lon="-1.8294">
        <ele>21.6</ele>
        <time>2020-06-14T17:13:33Z</time>
      </trkpt>
      <trkpt lat="49.49456" lon="-1.82947">
        <ele>21.4</ele>
        <time>2020-06-14T17:13:34Z</time>
      </trkpt>
      <trkpt lat="49.4946" lon="-1.82956">
        <ele>21.1</ele>
        <time>2020-06-14T17:13:35Z</time>
      </trkpt>
      <trkpt lat="49.49464" lon="-1.82965">
        <ele>20.8</ele>
        <time>2020-06-14T17:13:36Z</time>
      </trkpt>
      <trkpt lat="49.49468" lon="-1.82973">
        <ele>20.5</ele>
        <time>2020-06-14T17:13:37Z</time>
      </trkpt>
      <trkpt lat="49.4947" lon="-1.82981">
        <ele>20.3</ele>
        <time>2020-06-14T17:13:38Z</time>
      </trkpt>
      <trkpt lat="49.49474" lon="-1.8299">
        <ele>20</ele>
        <time>2020-06-14T17:13:39Z</time>
      </trkpt>
      <trkpt lat="49.49479" lon="-1.83">
        <ele>19.7</ele>
        <time>2020-06-14T17:13:40Z</time>
      </trkpt>
      <trkpt lat="49.49483" lon="-1.8301">
        <ele>19.4</ele>
        <time>2020-06-14T17:13:41Z</time>
      </trkpt>
      <trkpt lat="49.49486" lon="-1.83019">
        <ele>19.1</ele>
        <time>2020-06-14T17:13:42Z</time>
      </trkpt>
      <trkpt lat="49.49489" lon="-1.83029">
        <ele>18.8</ele>
        <time>2020-06-14T17:13:43Z</time>
      </trkpt>
      <trkpt lat="49.49493" lon="-1.83039">
        <ele>18.2</ele>
        <time>2020-06-14T17:13:44Z</time>
      </trkpt>
      <trkpt lat="49.49497" lon="-1.83048">
        <ele>18.1</ele>
        <time>2020-06-14T17:13:45Z</time>
      </trkpt>
      <trkpt lat="49.49503" lon="-1.83055">
        <ele>17.9</ele>
        <time>2020-06-14T17:13:46Z</time>
      </trkpt>
      <trkpt lat="49.49509" lon="-1.83061">
        <ele>17.8</ele>
        <time>2020-06-14T17:13:47Z</time>
      </trkpt>
      <trkpt lat="49.49516" lon="-1.83067">
        <ele>17.6</ele>
        <time>2020-06-14T17:13:48Z</time>
      </trkpt>
      <trkpt lat="49.49521" lon="-1.83074">
        <ele>17.5</ele>
        <time>2020-06-14T17:13:49Z</time>
      </trkpt>
      <trkpt lat="49.49525" lon="-1.83084">
        <ele>17.3</ele>
        <time>2020-06-14T17:13:50Z</time>
      </trkpt>
      <trkpt lat="49.49527" lon="-1.83095">
        <ele>17.2</ele>
        <time>2020-06-14T17:13:51Z</time>
      </trkpt>
      <trkpt lat="49.49529" lon="-1.83106">
        <ele>17.1</ele>
        <time>2020-06-14T17:13:52Z</time>
      </trkpt>
      <trkpt lat="49.49529" lon="-1.83119">
        <ele>16.9</ele>
        <time>2020-06-14T17:13:53Z</time>
      </trkpt>
      <trkpt lat="49.49529" lon="-1.83132">
        <ele>16.8</ele>
        <time>2020-06-14T17:13:54Z</time>
      </trkpt>
      <trkpt lat="49.4953" lon="-1.83144">
        <ele>16.6</ele>
        <time>2020-06-14T17:13:55Z</time>
      </trkpt>
      <trkpt lat="49.4953" lon="-1.83156">
        <ele>16.5</ele>
        <time>2020-06-14T17:13:56Z</time>
      </trkpt>
      <trkpt lat="49.49531" lon="-1.83168">
        <ele>16.3</ele>
        <time>2020-06-14T17:13:57Z</time>
      </trkpt>
      <trkpt lat="49.49531" lon="-1.8318">
        <ele>16.2</ele>
        <time>2020-06-14T17:13:58Z</time>
      </trkpt>
      <trkpt lat="49.49532" lon="-1.83192">
        <ele>16.1</ele>
        <time>2020-06-14T17:13:59Z</time>
      </trkpt>
      <trkpt lat="49.49533" lon="-1.83204">
        <ele>15.9</ele>
        <time>2020-06-14T17:14:00Z</time>
      </trkpt>
      <trkpt lat="49.49535" lon="-1.83216">
        <ele>15.4</ele>
        <time>2020-06-14T17:14:01Z</time>
      </trkpt>
      <trkpt lat="49.49538" lon="-1.83228">
        <ele>15.2</ele>
        <time>2020-06-14T17:14:02Z</time>
      </trkpt>
      <trkpt lat="49.49541" lon="-1.83239">
        <ele>15</ele>
        <time>2020-06-14T17:14:03Z</time>
      </trkpt>
      <trkpt lat="49.49543" lon="-1.83251">
        <ele>14.8</ele>
        <time>2020-06-14T17:14:04Z</time>
      </trkpt>
      <trkpt lat="49.49546" lon="-1.83263">
        <ele>14.6</ele>
        <time>2020-06-14T17:14:05Z</time>
      </trkpt>
      <trkpt lat="49.49548" lon="-1.83274">
        <ele>14.4</ele>
        <time>2020-06-14T17:14:06Z</time>
      </trkpt>
      <trkpt lat="49.4955" lon="-1.83286">
        <ele>14.2</ele>
        <time>2020-06-14T17:14:07Z</time>
      </trkpt>
      <trkpt lat="49.49552" lon="-1.83298">
        <ele>13.9</ele>
        <time>2020-06-14T17:14:08Z</time>
      </trkpt>
      <trkpt lat="49.49554" lon="-1.83309">
        <ele>13.7</ele>
        <time>2020-06-14T17:14:09Z</time>
      </trkpt>
      <trkpt lat="49.49556" lon="-1.83321">
        <ele>13.6</ele>
        <time>2020-06-14T17:14:10Z</time>
      </trkpt>
      <trkpt lat="49.49558" lon="-1.83333">
        <ele>13.4</ele>
        <time>2020-06-14T17:14:11Z</time>
      </trkpt>
      <trkpt lat="49.4956" lon="-1.83344">
        <ele>13.2</ele>
        <time>2020-06-14T17:14:12Z</time>
      </trkpt>
      <trkpt lat="49.49563" lon="-1.83355">
        <ele>13.1</ele>
        <time>2020-06-14T17:14:13Z</time>
      </trkpt>
      <trkpt lat="49.49566" lon="-1.83366">
        <ele>12.9</ele>
        <time>2020-06-14T17:14:14Z</time>
      </trkpt>
      <trkpt lat="49.49569" lon="-1.83376">
        <ele>12.8</ele>
        <time>2020-06-14T17:14:15Z</time>
      </trkpt>
      <trkpt lat="49.49573" lon="-1.83385">
        <ele>12.6</ele>
        <time>2020-06-14T17:14:16Z</time>
      </trkpt>
      <trkpt lat="49.49577" lon="-1.83395">
        <ele>12.4</ele>
        <time>2020-06-14T17:14:17Z</time>
      </trkpt>
      <trkpt lat="49.49581" lon="-1.83405">
        <ele>12.2</ele>
        <time>2020-06-14T17:14:18Z</time>
      </trkpt>
      <trkpt lat="49.49585" lon="-1.83415">
        <ele>12.1</ele>
        <time>2020-06-14T17:14:19Z</time>
      </trkpt>
      <trkpt lat="49.4959" lon="-1.83425">
        <ele>11.9</ele>
        <time>2020-06-14T17:14:20Z</time>
      </trkpt>
      <trkpt lat="49.49594" lon="-1.83435">
        <ele>11.8</ele>
        <time>2020-06-14T17:14:21Z</time>
      </trkpt>
      <trkpt lat="49.49597" lon="-1.83446">
        <ele>11.7</ele>
        <time>2020-06-14T17:14:22Z</time>
      </trkpt>
      <trkpt lat="49.496" lon="-1.83457">
        <ele>11.6</ele>
        <time>2020-06-14T17:14:23Z</time>
      </trkpt>
      <trkpt lat="49.49602" lon="-1.83468">
        <ele>11.6</ele>
        <time>2020-06-14T17:14:24Z</time>
      </trkpt>
      <trkpt lat="49.49605" lon="-1.83479">
        <ele>11.5</ele>
        <time>2020-06-14T17:14:25Z</time>
      </trkpt>
      <trkpt lat="49.49608" lon="-1.8349">
        <ele>11.5</ele>
        <time>2020-06-14T17:14:26Z</time>
      </trkpt>
      <trkpt lat="49.49611" lon="-1.835">
        <ele>11.4</ele>
        <time>2020-06-14T17:14:27Z</time>
      </trkpt>
      <trkpt lat="49.49614" lon="-1.83511">
        <ele>11.4</ele>
        <time>2020-06-14T17:14:28Z</time>
      </trkpt>
      <trkpt lat="49.49617" lon="-1.83521">
        <ele>11.3</ele>
        <time>2020-06-14T17:14:29Z</time>
      </trkpt>
      <trkpt lat="49.4962" lon="-1.83531">
        <ele>11.2</ele>
        <time>2020-06-14T17:14:30Z</time>
      </trkpt>
      <trkpt lat="49.49623" lon="-1.83541">
        <ele>11.1</ele>
        <time>2020-06-14T17:14:31Z</time>
      </trkpt>
      <trkpt lat="49.49626" lon="-1.83551">
        <ele>11</ele>
        <time>2020-06-14T17:14:32Z</time>
      </trkpt>
      <trkpt lat="49.49628" lon="-1.83562">
        <ele>10.9</ele>
        <time>2020-06-14T17:14:33Z</time>
      </trkpt>
      <trkpt lat="49.49631" lon="-1.83572">
        <ele>10.9</ele>
        <time>2020-06-14T17:14:34Z</time>
      </trkpt>
      <trkpt lat="49.49634" lon="-1.83583">
        <ele>10.8</ele>
        <time>2020-06-14T17:14:35Z</time>
      </trkpt>
      <trkpt lat="49.49636" lon="-1.83594">
        <ele>10.7</ele>
        <time>2020-06-14T17:14:36Z</time>
      </trkpt>
      <trkpt lat="49.49639" lon="-1.83604">
        <ele>10.7</ele>
        <time>2020-06-14T17:14:37Z</time>
      </trkpt>
      <trkpt lat="49.49642" lon="-1.83615">
        <ele>10.6</ele>
        <time>2020-06-14T17:14:38Z</time>
      </trkpt>
      <trkpt lat="49.49645" lon="-1.83625">
        <ele>10.6</ele>
        <time>2020-06-14T17:14:39Z</time>
      </trkpt>
      <trkpt lat="49.49648" lon="-1.83636">
        <ele>10.6</ele>
        <time>2020-06-14T17:14:40Z</time>
      </trkpt>
      <trkpt lat="49.49651" lon="-1.83646">
        <ele>10.5</ele>
        <time>2020-06-14T17:14:41Z</time>
      </trkpt>
      <trkpt lat="49.49653" lon="-1.83657">
        <ele>10.5</ele>
        <time>2020-06-14T17:14:42Z</time>
      </trkpt>
      <trkpt lat="49.49656" lon="-1.83667">
        <ele>10.5</ele>
        <time>2020-06-14T17:14:43Z</time>
      </trkpt>
      <trkpt lat="49.49659" lon="-1.83677">
        <ele>10.5</ele>
        <time>2020-06-14T17:14:44Z</time>
      </trkpt>
      <trkpt lat="49.49661" lon="-1.83688">
        <ele>10.4</ele>
        <time>2020-06-14T17:14:45Z</time>
      </trkpt>
      <trkpt lat="49.49663" lon="-1.83698">
        <ele>10.4</ele>
        <time>2020-06-14T17:14:46Z</time>
      </trkpt>
      <trkpt lat="49.49667" lon="-1.83707">
        <ele>10.4</ele>
        <time>2020-06-14T17:14:47Z</time>
      </trkpt>
      <trkpt lat="49.4967" lon="-1.83717">
        <ele>10.4</ele>
        <time>2020-06-14T17:14:48Z</time>
      </trkpt>
      <trkpt lat="49.49672" lon="-1.83726">
        <ele>10.4</ele>
        <time>2020-06-14T17:14:49Z</time>
      </trkpt>
      <trkpt lat="49.49674" lon="-1.83736">
        <ele>10.4</ele>
        <time>2020-06-14T17:14:50Z</time>
      </trkpt>
      <trkpt lat="49.49675" lon="-1.83746">
        <ele>10.3</ele>
        <time>2020-06-14T17:14:51Z</time>
      </trkpt>
      <trkpt lat="49.49676" lon="-1.83757">
        <ele>10.3</ele>
        <time>2020-06-14T17:14:52Z</time>
      </trkpt>
      <trkpt lat="49.49677" lon="-1.83767">
        <ele>10.3</ele>
        <time>2020-06-14T17:14:53Z</time>
      </trkpt>
      <trkpt lat="49.49677" lon="-1.83777">
        <ele>10.3</ele>
        <time>2020-06-14T17:14:54Z</time>
      </trkpt>
      <trkpt lat="49.49677" lon="-1.83788">
        <ele>10.3</ele>
        <time>2020-06-14T17:14:55Z</time>
      </trkpt>
      <trkpt lat="49.49677" lon="-1.83798">
        <ele>10.3</ele>
        <time>2020-06-14T17:14:56Z</time>
      </trkpt>
      <trkpt lat="49.49676" lon="-1.83808">
        <ele>10.3</ele>
        <time>2020-06-14T17:14:57Z</time>
      </trkpt>
      <trkpt lat="49.49677" lon="-1.83819">
        <ele>10.3</ele>
        <time>2020-06-14T17:14:58Z</time>
      </trkpt>
      <trkpt lat="49.49677" lon="-1.83829">
        <ele>10.3</ele>
        <time>2020-06-14T17:14:59Z</time>
      </trkpt>
      <trkpt lat="49.49677" lon="-1.83839">
        <ele>10.3</ele>
        <time>2020-06-14T17:15:00Z</time>
      </trkpt>
      <trkpt lat="49.49678" lon="-1.83849">
        <ele>10.4</ele>
        <time>2020-06-14T17:15:01Z</time>
      </trkpt>
      <trkpt lat="49.49678" lon="-1.83859">
        <ele>10.4</ele>
        <time>2020-06-14T17:15:02Z</time>
      </trkpt>
      <trkpt lat="49.49679" lon="-1.8387">
        <ele>10.4</ele>
        <time>2020-06-14T17:15:03Z</time>
      </trkpt>
      <trkpt lat="49.49679" lon="-1.83879">
        <ele>10.4</ele>
        <time>2020-06-14T17:15:04Z</time>
      </trkpt>
      <trkpt lat="49.4968" lon="-1.83889">
        <ele>10.3</ele>
        <time>2020-06-14T17:15:05Z</time>
      </trkpt>
      <trkpt lat="49.49681" lon="-1.83899">
        <ele>10.3</ele>
        <time>2020-06-14T17:15:06Z</time>
      </trkpt>
      <trkpt lat="49.49682" lon="-1.83908">
        <ele>10.3</ele>
        <time>2020-06-14T17:15:07Z</time>
      </trkpt>
      <trkpt lat="49.49681" lon="-1.83918">
        <ele>10.3</ele>
        <time>2020-06-14T17:15:08Z</time>
      </trkpt>
      <trkpt lat="49.49682" lon="-1.83928">
        <ele>10.2</ele>
        <time>2020-06-14T17:15:09Z</time>
      </trkpt>
      <trkpt lat="49.49682" lon="-1.83938">
        <ele>10.2</ele>
        <time>2020-06-14T17:15:10Z</time>
      </trkpt>
      <trkpt lat="49.49682" lon="-1.83948">
        <ele>10.1</ele>
        <time>2020-06-14T17:15:11Z</time>
      </trkpt>
      <trkpt lat="49.49683" lon="-1.83958">
        <ele>10.1</ele>
        <time>2020-06-14T17:15:12Z</time>
      </trkpt>
      <trkpt lat="49.49685" lon="-1.83969">
        <ele>10.1</ele>
        <time>2020-06-14T17:15:13Z</time>
      </trkpt>
      <trkpt lat="49.49686" lon="-1.83979">
        <ele>10.1</ele>
        <time>2020-06-14T17:15:14Z</time>
      </trkpt>
      <trkpt lat="49.49688" lon="-1.83989">
        <ele>10.1</ele>
        <time>2020-06-14T17:15:15Z</time>
      </trkpt>
      <trkpt lat="49.4969" lon="-1.83999">
        <ele>10.1</ele>
        <time>2020-06-14T17:15:16Z</time>
      </trkpt>
      <trkpt lat="49.49693" lon="-1.84008">
        <ele>10.1</ele>
        <time>2020-06-14T17:15:17Z</time>
      </trkpt>
      <trkpt lat="49.49695" lon="-1.84018">
        <ele>10.1</ele>
        <time>2020-06-14T17:15:18Z</time>
      </trkpt>
      <trkpt lat="49.49697" lon="-1.84027">
        <ele>10.1</ele>
        <time>2020-06-14T17:15:19Z</time>
      </trkpt>
      <trkpt lat="49.497" lon="-1.84036">
        <ele>10</ele>
        <time>2020-06-14T17:15:20Z</time>
      </trkpt>
      <trkpt lat="49.49703" lon="-1.84045">
        <ele>10</ele>
        <time>2020-06-14T17:15:21Z</time>
      </trkpt>
      <trkpt lat="49.49705" lon="-1.84055">
        <ele>10</ele>
        <time>2020-06-14T17:15:22Z</time>
      </trkpt>
      <trkpt lat="49.49709" lon="-1.84063">
        <ele>10</ele>
        <time>2020-06-14T17:15:23Z</time>
      </trkpt>
      <trkpt lat="49.49713" lon="-1.84071">
        <ele>10</ele>
        <time>2020-06-14T17:15:24Z</time>
      </trkpt>
      <trkpt lat="49.49716" lon="-1.84078">
        <ele>10</ele>
        <time>2020-06-14T17:15:25Z</time>
      </trkpt>
      <trkpt lat="49.4972" lon="-1.84087">
        <ele>10</ele>
        <time>2020-06-14T17:15:26Z</time>
      </trkpt>
      <trkpt lat="49.49723" lon="-1.84095">
        <ele>10</ele>
        <time>2020-06-14T17:15:27Z</time>
      </trkpt>
      <trkpt lat="49.49726" lon="-1.84103">
        <ele>9.9</ele>
        <time>2020-06-14T17:15:28Z</time>
      </trkpt>
      <trkpt lat="49.4973" lon="-1.84111">
        <ele>9.8</ele>
        <time>2020-06-14T17:15:29Z</time>
      </trkpt>
      <trkpt lat="49.49734" lon="-1.84119">
        <ele>9.8</ele>
        <time>2020-06-14T17:15:30Z</time>
      </trkpt>
      <trkpt lat="49.49738" lon="-1.84126">
        <ele>9.7</ele>
        <time>2020-06-14T17:15:31Z</time>
      </trkpt>
      <trkpt lat="49.49742" lon="-1.84134">
        <ele>9.7</ele>
        <time>2020-06-14T17:15:32Z</time>
      </trkpt>
      <trkpt lat="49.49746" lon="-1.84142">
        <ele>9.6</ele>
        <time>2020-06-14T17:15:33Z</time>
      </trkpt>
      <trkpt lat="49.49749" lon="-1.8415">
        <ele>9.5</ele>
        <time>2020-06-14T17:15:34Z</time>
      </trkpt>
      <trkpt lat="49.49753" lon="-1.84158">
        <ele>9.5</ele>
        <time>2020-06-14T17:15:35Z</time>
      </trkpt>
      <trkpt lat="49.49759" lon="-1.84165">
        <ele>9.4</ele>
        <time>2020-06-14T17:15:36Z</time>
      </trkpt>
      <trkpt lat="49.49764" lon="-1.84172">
        <ele>9.3</ele>
        <time>2020-06-14T17:15:37Z</time>
      </trkpt>
      <trkpt lat="49.49769" lon="-1.8418">
        <ele>9.3</ele>
        <time>2020-06-14T17:15:38Z</time>
      </trkpt>
      <trkpt lat="49.49774" lon="-1.84187">
        <ele>9.2</ele>
        <time>2020-06-14T17:15:39Z</time>
      </trkpt>
      <trkpt lat="49.4978" lon="-1.84192">
        <ele>9.2</ele>
        <time>2020-06-14T17:15:40Z</time>
      </trkpt>
      <trkpt lat="49.49785" lon="-1.84198">
        <ele>9.1</ele>
        <time>2020-06-14T17:15:41Z</time>
      </trkpt>
      <trkpt lat="49.49791" lon="-1.84204">
        <ele>9.1</ele>
        <time>2020-06-14T17:15:42Z</time>
      </trkpt>
      <trkpt lat="49.49797" lon="-1.84209">
        <ele>9</ele>
        <time>2020-06-14T17:15:43Z</time>
      </trkpt>
      <trkpt lat="49.49802" lon="-1.84214">
        <ele>8.9</ele>
        <time>2020-06-14T17:15:44Z</time>
      </trkpt>
      <trkpt lat="49.49808" lon="-1.8422">
        <ele>8.8</ele>
        <time>2020-06-14T17:15:45Z</time>
      </trkpt>
      <trkpt lat="49.49814" lon="-1.84224">
        <ele>8.8</ele>
        <time>2020-06-14T17:15:46Z</time>
      </trkpt>
      <trkpt lat="49.49819" lon="-1.84228">
        <ele>8.7</ele>
        <time>2020-06-14T17:15:47Z</time>
      </trkpt>
      <trkpt lat="49.49825" lon="-1.84233">
        <ele>8.7</ele>
        <time>2020-06-14T17:15:48Z</time>
      </trkpt>
      <trkpt lat="49.4983" lon="-1.84238">
        <ele>8.7</ele>
        <time>2020-06-14T17:15:49Z</time>
      </trkpt>
      <trkpt lat="49.49836" lon="-1.84244">
        <ele>8.7</ele>
        <time>2020-06-14T17:15:50Z</time>
      </trkpt>
      <trkpt lat="49.49841" lon="-1.84249">
        <ele>8.7</ele>
        <time>2020-06-14T17:15:51Z</time>
      </trkpt>
      <trkpt lat="49.49846" lon="-1.84254">
        <ele>8.7</ele>
        <time>2020-06-14T17:15:52Z</time>
      </trkpt>
      <trkpt lat="49.49851" lon="-1.8426">
        <ele>8.7</ele>
        <time>2020-06-14T17:15:53Z</time>
      </trkpt>
      <trkpt lat="49.49856" lon="-1.84266">
        <ele>8.8</ele>
        <time>2020-06-14T17:15:54Z</time>
      </trkpt>
      <trkpt lat="49.49861" lon="-1.84271">
        <ele>8.8</ele>
        <time>2020-06-14T17:15:55Z</time>
      </trkpt>
      <trkpt lat="49.49866" lon="-1.84277">
        <ele>8.9</ele>
        <time>2020-06-14T17:15:56Z</time>
      </trkpt>
      <trkpt lat="49.49871" lon="-1.84284">
        <ele>8.9</ele>
        <time>2020-06-14T17:15:57Z</time>
      </trkpt>
      <trkpt lat="49.49876" lon="-1.8429">
        <ele>8.9</ele>
        <time>2020-06-14T17:15:58Z</time>
      </trkpt>
      <trkpt lat="49.4988" lon="-1.84297">
        <ele>9</ele>
        <time>2020-06-14T17:15:59Z</time>
      </trkpt>
      <trkpt lat="49.49884" lon="-1.84304">
        <ele>9</ele>
        <time>2020-06-14T17:16:00Z</time>
      </trkpt>
      <trkpt lat="49.49889" lon="-1.8431">
        <ele>9</ele>
        <time>2020-06-14T17:16:01Z</time>
      </trkpt>
      <trkpt lat="49.49893" lon="-1.84317">
        <ele>9</ele>
        <time>2020-06-14T17:16:02Z</time>
      </trkpt>
      <trkpt lat="49.49898" lon="-1.84324">
        <ele>9</ele>
        <time>2020-06-14T17:16:03Z</time>
      </trkpt>
      <trkpt lat="49.49902" lon="-1.8433">
        <ele>9.1</ele>
        <time>2020-06-14T17:16:04Z</time>
      </trkpt>
      <trkpt lat="49.49906" lon="-1.84337">
        <ele>9.1</ele>
        <time>2020-06-14T17:16:05Z</time>
      </trkpt>
      <trkpt lat="49.49911" lon="-1.84344">
        <ele>9.1</ele>
        <time>2020-06-14T17:16:06Z</time>
      </trkpt>
      <trkpt lat="49.49916" lon="-1.84349">
        <ele>9.1</ele>
        <time>2020-06-14T17:16:07Z</time>
      </trkpt>
      <trkpt lat="49.4992" lon="-1.84355">
        <ele>9.1</ele>
        <time>2020-06-14T17:16:08Z</time>
      </trkpt>
      <trkpt lat="49.49925" lon="-1.84361">
        <ele>9.1</ele>
        <time>2020-06-14T17:16:09Z</time>
      </trkpt>
      <trkpt lat="49.49929" lon="-1.84368">
        <ele>9.1</ele>
        <time>2020-06-14T17:16:10Z</time>
      </trkpt>
      <trkpt lat="49.49934" lon="-1.84373">
        <ele>9.1</ele>
        <time>2020-06-14T17:16:11Z</time>
      </trkpt>
      <trkpt lat="49.49939" lon="-1.84377">
        <ele>9.1</ele>
        <time>2020-06-14T17:16:12Z</time>
      </trkpt>
      <trkpt lat="49.49944" lon="-1.84382">
        <ele>9.1</ele>
        <time>2020-06-14T17:16:13Z</time>
      </trkpt>
      <trkpt lat="49.4995" lon="-1.84385">
        <ele>9.1</ele>
        <time>2020-06-14T17:16:14Z</time>
      </trkpt>
      <trkpt lat="49.49955" lon="-1.84389">
        <ele>9.1</ele>
        <time>2020-06-14T17:16:15Z</time>
      </trkpt>
      <trkpt lat="49.49961" lon="-1.84393">
        <ele>9.1</ele>
        <time>2020-06-14T17:16:16Z</time>
      </trkpt>
      <trkpt lat="49.49966" lon="-1.84396">
        <ele>9.1</ele>
        <time>2020-06-14T17:16:17Z</time>
      </trkpt>
      <trkpt lat="49.49971" lon="-1.844">
        <ele>9.1</ele>
        <time>2020-06-14T17:16:18Z</time>
      </trkpt>
      <trkpt lat="49.49976" lon="-1.84404">
        <ele>9.1</ele>
        <time>2020-06-14T17:16:19Z</time>
      </trkpt>
      <trkpt lat="49.49981" lon="-1.84409">
        <ele>9.1</ele>
        <time>2020-06-14T17:16:20Z</time>
      </trkpt>
      <trkpt lat="49.49986" lon="-1.84414">
        <ele>9.1</ele>
        <time>2020-06-14T17:16:21Z</time>
      </trkpt>
      <trkpt lat="49.49991" lon="-1.84417">
        <ele>9.1</ele>
        <time>2020-06-14T17:16:22Z</time>
      </trkpt>
      <trkpt lat="49.49997" lon="-1.84421">
        <ele>9</ele>
        <time>2020-06-14T17:16:23Z</time>
      </trkpt>
      <trkpt lat="49.50002" lon="-1.84425">
        <ele>9</ele>
        <time>2020-06-14T17:16:24Z</time>
      </trkpt>
      <trkpt lat="49.50008" lon="-1.8443">
        <ele>9</ele>
        <time>2020-06-14T17:16:25Z</time>
      </trkpt>
      <trkpt lat="49.50013" lon="-1.84435">
        <ele>9.1</ele>
        <time>2020-06-14T17:16:26Z</time>
      </trkpt>
      <trkpt lat="49.50017" lon="-1.84441">
        <ele>9.1</ele>
        <time>2020-06-14T17:16:27Z</time>
      </trkpt>
      <trkpt lat="49.50023" lon="-1.84445">
        <ele>9.1</ele>
        <time>2020-06-14T17:16:28Z</time>
      </trkpt>
      <trkpt lat="49.50028" lon="-1.8445">
        <ele>9.1</ele>
        <time>2020-06-14T17:16:29Z</time>
      </trkpt>
      <trkpt lat="49.50031" lon="-1.84457">
        <ele>9.1</ele>
        <time>2020-06-14T17:16:30Z</time>
      </trkpt>
      <trkpt lat="49.50036" lon="-1.84463">
        <ele>9.2</ele>
        <time>2020-06-14T17:16:31Z</time>
      </trkpt>
      <trkpt lat="49.50041" lon="-1.84468">
        <ele>9.2</ele>
        <time>2020-06-14T17:16:32Z</time>
      </trkpt>
      <trkpt lat="49.50046" lon="-1.84474">
        <ele>9.2</ele>
        <time>2020-06-14T17:16:33Z</time>
      </trkpt>
      <trkpt lat="49.5005" lon="-1.84479">
        <ele>9.3</ele>
        <time>2020-06-14T17:16:34Z</time>
      </trkpt>
      <trkpt lat="49.50055" lon="-1.84486">
        <ele>9.3</ele>
        <time>2020-06-14T17:16:35Z</time>
      </trkpt>
      <trkpt lat="49.5006" lon="-1.84491">
        <ele>9.3</ele>
        <time>2020-06-14T17:16:36Z</time>
      </trkpt>
      <trkpt lat="49.50064" lon="-1.84497">
        <ele>9.3</ele>
        <time>2020-06-14T17:16:37Z</time>
      </trkpt>
      <trkpt lat="49.5007" lon="-1.84502">
        <ele>9.4</ele>
        <time>2020-06-14T17:16:38Z</time>
      </trkpt>
      <trkpt lat="49.50075" lon="-1.84508">
        <ele>9.5</ele>
        <time>2020-06-14T17:16:39Z</time>
      </trkpt>
      <trkpt lat="49.5008" lon="-1.84512">
        <ele>9.6</ele>
        <time>2020-06-14T17:16:40Z</time>
      </trkpt>
      <trkpt lat="49.50087" lon="-1.84514">
        <ele>9.7</ele>
        <time>2020-06-14T17:16:41Z</time>
      </trkpt>
      <trkpt lat="49.50093" lon="-1.84517">
        <ele>9.7</ele>
        <time>2020-06-14T17:16:42Z</time>
      </trkpt>
      <trkpt lat="49.50098" lon="-1.8452">
        <ele>9.8</ele>
        <time>2020-06-14T17:16:43Z</time>
      </trkpt>
      <trkpt lat="49.50103" lon="-1.84525">
        <ele>9.8</ele>
        <time>2020-06-14T17:16:44Z</time>
      </trkpt>
      <trkpt lat="49.50108" lon="-1.84529">
        <ele>9.9</ele>
        <time>2020-06-14T17:16:45Z</time>
      </trkpt>
      <trkpt lat="49.50113" lon="-1.84534">
        <ele>9.9</ele>
        <time>2020-06-14T17:16:46Z</time>
      </trkpt>
      <trkpt lat="49.50117" lon="-1.84538">
        <ele>10</ele>
        <time>2020-06-14T17:16:47Z</time>
      </trkpt>
      <trkpt lat="49.50122" lon="-1.84542">
        <ele>10</ele>
        <time>2020-06-14T17:16:48Z</time>
      </trkpt>
      <trkpt lat="49.50127" lon="-1.84546">
        <ele>10.1</ele>
        <time>2020-06-14T17:16:49Z</time>
      </trkpt>
      <trkpt lat="49.50132" lon="-1.84549">
        <ele>10</ele>
        <time>2020-06-14T17:16:50Z</time>
      </trkpt>
      <trkpt lat="49.50136" lon="-1.84553">
        <ele>10</ele>
        <time>2020-06-14T17:16:51Z</time>
      </trkpt>
      <trkpt lat="49.50141" lon="-1.84556">
        <ele>9.9</ele>
        <time>2020-06-14T17:16:52Z</time>
      </trkpt>
      <trkpt lat="49.50146" lon="-1.84561">
        <ele>9.9</ele>
        <time>2020-06-14T17:16:53Z</time>
      </trkpt>
      <trkpt lat="49.50151" lon="-1.84565">
        <ele>9.8</ele>
        <time>2020-06-14T17:16:54Z</time>
      </trkpt>
      <trkpt lat="49.50156" lon="-1.84569">
        <ele>9.8</ele>
        <time>2020-06-14T17:16:55Z</time>
      </trkpt>
      <trkpt lat="49.50162" lon="-1.84573">
        <ele>9.7</ele>
        <time>2020-06-14T17:16:56Z</time>
      </trkpt>
      <trkpt lat="49.50167" lon="-1.84577">
        <ele>9.7</ele>
        <time>2020-06-14T17:16:57Z</time>
      </trkpt>
      <trkpt lat="49.50172" lon="-1.84581">
        <ele>9.7</ele>
        <time>2020-06-14T17:16:58Z</time>
      </trkpt>
      <trkpt lat="49.50178" lon="-1.84585">
        <ele>9.7</ele>
        <time>2020-06-14T17:16:59Z</time>
      </trkpt>
      <trkpt lat="49.50183" lon="-1.84587">
        <ele>9.6</ele>
        <time>2020-06-14T17:17:00Z</time>
      </trkpt>
      <trkpt lat="49.50189" lon="-1.8459">
        <ele>9.6</ele>
        <time>2020-06-14T17:17:01Z</time>
      </trkpt>
      <trkpt lat="49.50194" lon="-1.84593">
        <ele>9.6</ele>
        <time>2020-06-14T17:17:02Z</time>
      </trkpt>
      <trkpt lat="49.50199" lon="-1.84596">
        <ele>9.6</ele>
        <time>2020-06-14T17:17:03Z</time>
      </trkpt>
      <trkpt lat="49.50205" lon="-1.846">
        <ele>9.6</ele>
        <time>2020-06-14T17:17:04Z</time>
      </trkpt>
      <trkpt lat="49.5021" lon="-1.84603">
        <ele>9.5</ele>
        <time>2020-06-14T17:17:05Z</time>
      </trkpt>
      <trkpt lat="49.50216" lon="-1.84606">
        <ele>9.5</ele>
        <time>2020-06-14T17:17:06Z</time>
      </trkpt>
      <trkpt lat="49.50221" lon="-1.8461">
        <ele>9.5</ele>
        <time>2020-06-14T17:17:07Z</time>
      </trkpt>
      <trkpt lat="49.50227" lon="-1.84611">
        <ele>9.5</ele>
        <time>2020-06-14T17:17:08Z</time>
      </trkpt>
      <trkpt lat="49.50232" lon="-1.84614">
        <ele>9.5</ele>
        <time>2020-06-14T17:17:09Z</time>
      </trkpt>
      <trkpt lat="49.50238" lon="-1.84614">
        <ele>9.5</ele>
        <time>2020-06-14T17:17:10Z</time>
      </trkpt>
      <trkpt lat="49.50244" lon="-1.84614">
        <ele>9.6</ele>
        <time>2020-06-14T17:17:11Z</time>
      </trkpt>
      <trkpt lat="49.5025" lon="-1.84614">
        <ele>9.6</ele>
        <time>2020-06-14T17:17:12Z</time>
      </trkpt>
      <trkpt lat="49.50256" lon="-1.84614">
        <ele>9.7</ele>
        <time>2020-06-14T17:17:13Z</time>
      </trkpt>
      <trkpt lat="49.50262" lon="-1.84613">
        <ele>9.7</ele>
        <time>2020-06-14T17:17:14Z</time>
      </trkpt>
      <trkpt lat="49.50267" lon="-1.84612">
        <ele>9.8</ele>
        <time>2020-06-14T17:17:15Z</time>
      </trkpt>
      <trkpt lat="49.50272" lon="-1.84613">
        <ele>9.8</ele>
        <time>2020-06-14T17:17:16Z</time>
      </trkpt>
      <trkpt lat="49.50277" lon="-1.84613">
        <ele>9.9</ele>
        <time>2020-06-14T17:17:17Z</time>
      </trkpt>
      <trkpt lat="49.50283" lon="-1.84612">
        <ele>10</ele>
        <time>2020-06-14T17:17:18Z</time>
      </trkpt>
      <trkpt lat="49.50288" lon="-1.84612">
        <ele>10</ele>
        <time>2020-06-14T17:17:19Z</time>
      </trkpt>
      <trkpt lat="49.50293" lon="-1.84613">
        <ele>10.1</ele>
        <time>2020-06-14T17:17:20Z</time>
      </trkpt>
      <trkpt lat="49.50299" lon="-1.84613">
        <ele>10.2</ele>
        <time>2020-06-14T17:17:21Z</time>
      </trkpt>
      <trkpt lat="49.50304" lon="-1.84614">
        <ele>10.2</ele>
        <time>2020-06-14T17:17:22Z</time>
      </trkpt>
      <trkpt lat="49.50309" lon="-1.84616">
        <ele>10.3</ele>
        <time>2020-06-14T17:17:23Z</time>
      </trkpt>
      <trkpt lat="49.50314" lon="-1.84616">
        <ele>10.4</ele>
        <time>2020-06-14T17:17:24Z</time>
      </trkpt>
      <trkpt lat="49.50319" lon="-1.84617">
        <ele>10.5</ele>
        <time>2020-06-14T17:17:25Z</time>
      </trkpt>
      <trkpt lat="49.50325" lon="-1.84619">
        <ele>10.5</ele>
        <time>2020-06-14T17:17:26Z</time>
      </trkpt>
      <trkpt lat="49.5033" lon="-1.84621">
        <ele>10.6</ele>
        <time>2020-06-14T17:17:27Z</time>
      </trkpt>
      <trkpt lat="49.50335" lon="-1.84624">
        <ele>10.7</ele>
        <time>2020-06-14T17:17:28Z</time>
      </trkpt>
      <trkpt lat="49.5034" lon="-1.84625">
        <ele>10.8</ele>
        <time>2020-06-14T17:17:29Z</time>
      </trkpt>
      <trkpt lat="49.50345" lon="-1.84627">
        <ele>10.8</ele>
        <time>2020-06-14T17:17:30Z</time>
      </trkpt>
      <trkpt lat="49.5035" lon="-1.8463">
        <ele>10.9</ele>
        <time>2020-06-14T17:17:31Z</time>
      </trkpt>
      <trkpt lat="49.50355" lon="-1.84633">
        <ele>10.9</ele>
        <time>2020-06-14T17:17:32Z</time>
      </trkpt>
      <trkpt lat="49.5036" lon="-1.84635">
        <ele>10.9</ele>
        <time>2020-06-14T17:17:33Z</time>
      </trkpt>
      <trkpt lat="49.50365" lon="-1.84638">
        <ele>11</ele>
        <time>2020-06-14T17:17:34Z</time>
      </trkpt>
      <trkpt lat="49.5037" lon="-1.84641">
        <ele>11</ele>
        <time>2020-06-14T17:17:35Z</time>
      </trkpt>
      <trkpt lat="49.50375" lon="-1.84642">
        <ele>11.1</ele>
        <time>2020-06-14T17:17:36Z</time>
      </trkpt>
      <trkpt lat="49.5038" lon="-1.84644">
        <ele>11.2</ele>
        <time>2020-06-14T17:17:37Z</time>
      </trkpt>
      <trkpt lat="49.50386" lon="-1.84645">
        <ele>11.3</ele>
        <time>2020-06-14T17:17:38Z</time>
      </trkpt>
      <trkpt lat="49.50391" lon="-1.84645">
        <ele>11.3</ele>
        <time>2020-06-14T17:17:39Z</time>
      </trkpt>
      <trkpt lat="49.50396" lon="-1.84645">
        <ele>11.4</ele>
        <time>2020-06-14T17:17:40Z</time>
      </trkpt>
      <trkpt lat="49.50402" lon="-1.84646">
        <ele>11.4</ele>
        <time>2020-06-14T17:17:41Z</time>
      </trkpt>
      <trkpt lat="49.50407" lon="-1.84648">
        <ele>11.5</ele>
        <time>2020-06-14T17:17:42Z</time>
      </trkpt>
      <trkpt lat="49.50412" lon="-1.84647">
        <ele>11.5</ele>
        <time>2020-06-14T17:17:43Z</time>
      </trkpt>
      <trkpt lat="49.50417" lon="-1.84647">
        <ele>11.6</ele>
        <time>2020-06-14T17:17:44Z</time>
      </trkpt>
      <trkpt lat="49.50421" lon="-1.84646">
        <ele>11.7</ele>
        <time>2020-06-14T17:17:45Z</time>
      </trkpt>
      <trkpt lat="49.50426" lon="-1.84646">
        <ele>11.7</ele>
        <time>2020-06-14T17:17:46Z</time>
      </trkpt>
      <trkpt lat="49.5043" lon="-1.84645">
        <ele>11.8</ele>
        <time>2020-06-14T17:17:47Z</time>
      </trkpt>
      <trkpt lat="49.50435" lon="-1.84645">
        <ele>11.8</ele>
        <time>2020-06-14T17:17:48Z</time>
      </trkpt>
      <trkpt lat="49.50439" lon="-1.84643">
        <ele>11.8</ele>
        <time>2020-06-14T17:17:49Z</time>
      </trkpt>
      <trkpt lat="49.50443" lon="-1.84643">
        <ele>11.9</ele>
        <time>2020-06-14T17:17:50Z</time>
      </trkpt>
      <trkpt lat="49.50447" lon="-1.84643">
        <ele>11.9</ele>
        <time>2020-06-14T17:17:51Z</time>
      </trkpt>
      <trkpt lat="49.50452" lon="-1.84642">
        <ele>12</ele>
        <time>2020-06-14T17:17:52Z</time>
      </trkpt>
      <trkpt lat="49.50456" lon="-1.84643">
        <ele>12</ele>
        <time>2020-06-14T17:17:53Z</time>
      </trkpt>
      <trkpt lat="49.50461" lon="-1.84643">
        <ele>12</ele>
        <time>2020-06-14T17:17:54Z</time>
      </trkpt>
      <trkpt lat="49.50466" lon="-1.84643">
        <ele>12.1</ele>
        <time>2020-06-14T17:17:55Z</time>
      </trkpt>
      <trkpt lat="49.50472" lon="-1.84643">
        <ele>12.2</ele>
        <time>2020-06-14T17:17:56Z</time>
      </trkpt>
      <trkpt lat="49.50478" lon="-1.84644">
        <ele>12.3</ele>
        <time>2020-06-14T17:17:57Z</time>
      </trkpt>
      <trkpt lat="49.50483" lon="-1.84646">
        <ele>12.4</ele>
        <time>2020-06-14T17:17:58Z</time>
      </trkpt>
      <trkpt lat="49.50488" lon="-1.84648">
        <ele>12.5</ele>
        <time>2020-06-14T17:17:59Z</time>
      </trkpt>
      <trkpt lat="49.50493" lon="-1.84649">
        <ele>12.6</ele>
        <time>2020-06-14T17:18:00Z</time>
      </trkpt>
      <trkpt lat="49.50498" lon="-1.84651">
        <ele>12.7</ele>
        <time>2020-06-14T17:18:01Z</time>
      </trkpt>
      <trkpt lat="49.50502" lon="-1.84652">
        <ele>12.9</ele>
        <time>2020-06-14T17:18:02Z</time>
      </trkpt>
      <trkpt lat="49.50507" lon="-1.84654">
        <ele>13</ele>
        <time>2020-06-14T17:18:03Z</time>
      </trkpt>
      <trkpt lat="49.50512" lon="-1.84655">
        <ele>13.1</ele>
        <time>2020-06-14T17:18:04Z</time>
      </trkpt>
      <trkpt lat="49.50516" lon="-1.84657">
        <ele>13.2</ele>
        <time>2020-06-14T17:18:05Z</time>
      </trkpt>
      <trkpt lat="49.5052" lon="-1.84659">
        <ele>13.3</ele>
        <time>2020-06-14T17:18:06Z</time>
      </trkpt>
      <trkpt lat="49.50524" lon="-1.8466">
        <ele>13.3</ele>
        <time>2020-06-14T17:18:07Z</time>
      </trkpt>
      <trkpt lat="49.50528" lon="-1.84661">
        <ele>13.4</ele>
        <time>2020-06-14T17:18:08Z</time>
      </trkpt>
      <trkpt lat="49.50531" lon="-1.84663">
        <ele>13.5</ele>
        <time>2020-06-14T17:18:09Z</time>
      </trkpt>
      <trkpt lat="49.50535" lon="-1.84663">
        <ele>13.6</ele>
        <time>2020-06-14T17:18:10Z</time>
      </trkpt>
      <trkpt lat="49.50539" lon="-1.84663">
        <ele>13.7</ele>
        <time>2020-06-14T17:18:11Z</time>
      </trkpt>
      <trkpt lat="49.50543" lon="-1.84663">
        <ele>13.8</ele>
        <time>2020-06-14T17:18:12Z</time>
      </trkpt>
      <trkpt lat="49.50547" lon="-1.84662">
        <ele>13.9</ele>
        <time>2020-06-14T17:18:13Z</time>
      </trkpt>
      <trkpt lat="49.50551" lon="-1.84661">
        <ele>14</ele>
        <time>2020-06-14T17:18:14Z</time>
      </trkpt>
      <trkpt lat="49.50555" lon="-1.8466">
        <ele>14</ele>
        <time>2020-06-14T17:18:15Z</time>
      </trkpt>
      <trkpt lat="49.50558" lon="-1.84659">
        <ele>14.3</ele>
        <time>2020-06-14T17:18:16Z</time>
      </trkpt>
      <trkpt lat="49.50563" lon="-1.84658">
        <ele>14.4</ele>
        <time>2020-06-14T17:18:17Z</time>
      </trkpt>
      <trkpt lat="49.50567" lon="-1.84656">
        <ele>14.6</ele>
        <time>2020-06-14T17:18:18Z</time>
      </trkpt>
      <trkpt lat="49.5057" lon="-1.84655">
        <ele>14.7</ele>
        <time>2020-06-14T17:18:19Z</time>
      </trkpt>
      <trkpt lat="49.50574" lon="-1.84653">
        <ele>14.8</ele>
        <time>2020-06-14T17:18:20Z</time>
      </trkpt>
      <trkpt lat="49.50577" lon="-1.84652">
        <ele>15</ele>
        <time>2020-06-14T17:18:21Z</time>
      </trkpt>
      <trkpt lat="49.50581" lon="-1.84651">
        <ele>15.1</ele>
        <time>2020-06-14T17:18:22Z</time>
      </trkpt>
      <trkpt lat="49.50584" lon="-1.8465">
        <ele>15.2</ele>
        <time>2020-06-14T17:18:23Z</time>
      </trkpt>
      <trkpt lat="49.50587" lon="-1.84648">
        <ele>15.3</ele>
        <time>2020-06-14T17:18:24Z</time>
      </trkpt>
      <trkpt lat="49.5059" lon="-1.84646">
        <ele>15.5</ele>
        <time>2020-06-14T17:18:25Z</time>
      </trkpt>
      <trkpt lat="49.50594" lon="-1.84645">
        <ele>15.6</ele>
        <time>2020-06-14T17:18:26Z</time>
      </trkpt>
      <trkpt lat="49.50597" lon="-1.84643">
        <ele>15.7</ele>
        <time>2020-06-14T17:18:27Z</time>
      </trkpt>
      <trkpt lat="49.50599" lon="-1.84641">
        <ele>15.9</ele>
        <time>2020-06-14T17:18:28Z</time>
      </trkpt>
      <trkpt lat="49.50603" lon="-1.8464">
        <ele>16</ele>
        <time>2020-06-14T17:18:29Z</time>
      </trkpt>
      <trkpt lat="49.50606" lon="-1.84639">
        <ele>16.1</ele>
        <time>2020-06-14T17:18:30Z</time>
      </trkpt>
      <trkpt lat="49.50609" lon="-1.84637">
        <ele>16.3</ele>
        <time>2020-06-14T17:18:31Z</time>
      </trkpt>
      <trkpt lat="49.50613" lon="-1.84636">
        <ele>16.4</ele>
        <time>2020-06-14T17:18:32Z</time>
      </trkpt>
      <trkpt lat="49.50616" lon="-1.84635">
        <ele>16.6</ele>
        <time>2020-06-14T17:18:33Z</time>
      </trkpt>
      <trkpt lat="49.50619" lon="-1.84636">
        <ele>16.7</ele>
        <time>2020-06-14T17:18:34Z</time>
      </trkpt>
      <trkpt lat="49.50623" lon="-1.84638">
        <ele>16.8</ele>
        <time>2020-06-14T17:18:35Z</time>
      </trkpt>
      <trkpt lat="49.50626" lon="-1.8464">
        <ele>16.8</ele>
        <time>2020-06-14T17:18:36Z</time>
      </trkpt>
      <trkpt lat="49.5063" lon="-1.84643">
        <ele>16.9</ele>
        <time>2020-06-14T17:18:37Z</time>
      </trkpt>
      <trkpt lat="49.50634" lon="-1.84645">
        <ele>16.9</ele>
        <time>2020-06-14T17:18:38Z</time>
      </trkpt>
      <trkpt lat="49.50637" lon="-1.84647">
        <ele>16.9</ele>
        <time>2020-06-14T17:18:39Z</time>
      </trkpt>
      <trkpt lat="49.50641" lon="-1.84648">
        <ele>16.9</ele>
        <time>2020-06-14T17:18:40Z</time>
      </trkpt>
      <trkpt lat="49.50645" lon="-1.8465">
        <ele>16.9</ele>
        <time>2020-06-14T17:18:41Z</time>
      </trkpt>
      <trkpt lat="49.50648" lon="-1.84654">
        <ele>16.9</ele>
        <time>2020-06-14T17:18:42Z</time>
      </trkpt>
      <trkpt lat="49.50652" lon="-1.84658">
        <ele>17</ele>
        <time>2020-06-14T17:18:43Z</time>
      </trkpt>
      <trkpt lat="49.50656" lon="-1.8466">
        <ele>17</ele>
        <time>2020-06-14T17:18:44Z</time>
      </trkpt>
      <trkpt lat="49.5066" lon="-1.84662">
        <ele>17.1</ele>
        <time>2020-06-14T17:18:45Z</time>
      </trkpt>
      <trkpt lat="49.50664" lon="-1.84663">
        <ele>17.2</ele>
        <time>2020-06-14T17:18:46Z</time>
      </trkpt>
      <trkpt lat="49.50667" lon="-1.84664">
        <ele>17.3</ele>
        <time>2020-06-14T17:18:47Z</time>
      </trkpt>
      <trkpt lat="49.50671" lon="-1.84664">
        <ele>17.4</ele>
        <time>2020-06-14T17:18:48Z</time>
      </trkpt>
      <trkpt lat="49.50674" lon="-1.84666">
        <ele>17.6</ele>
        <time>2020-06-14T17:18:49Z</time>
      </trkpt>
      <trkpt lat="49.50677" lon="-1.84665">
        <ele>17.7</ele>
        <time>2020-06-14T17:18:50Z</time>
      </trkpt>
      <trkpt lat="49.50681" lon="-1.84664">
        <ele>17.9</ele>
        <time>2020-06-14T17:18:51Z</time>
      </trkpt>
      <trkpt lat="49.50684" lon="-1.84663">
        <ele>18.1</ele>
        <time>2020-06-14T17:18:52Z</time>
      </trkpt>
      <trkpt lat="49.50687" lon="-1.84662">
        <ele>18.6</ele>
        <time>2020-06-14T17:18:53Z</time>
      </trkpt>
      <trkpt lat="49.50689" lon="-1.84658">
        <ele>18.8</ele>
        <time>2020-06-14T17:18:54Z</time>
      </trkpt>
      <trkpt lat="49.50692" lon="-1.84657">
        <ele>18.9</ele>
        <time>2020-06-14T17:18:55Z</time>
      </trkpt>
      <trkpt lat="49.50696" lon="-1.84654">
        <ele>19.1</ele>
        <time>2020-06-14T17:18:56Z</time>
      </trkpt>
      <trkpt lat="49.50697" lon="-1.84654">
        <ele>19.2</ele>
        <time>2020-06-14T17:18:57Z</time>
      </trkpt>
      <trkpt lat="49.507" lon="-1.84652">
        <ele>19.4</ele>
        <time>2020-06-14T17:18:58Z</time>
      </trkpt>
      <trkpt lat="49.50703" lon="-1.8465">
        <ele>19.6</ele>
        <time>2020-06-14T17:18:59Z</time>
      </trkpt>
      <trkpt lat="49.50705" lon="-1.84649">
        <ele>19.7</ele>
        <time>2020-06-14T17:19:00Z</time>
      </trkpt>
      <trkpt lat="49.50707" lon="-1.84646">
        <ele>19.8</ele>
        <time>2020-06-14T17:19:01Z</time>
      </trkpt>
      <trkpt lat="49.5071" lon="-1.84644">
        <ele>20</ele>
        <time>2020-06-14T17:19:02Z</time>
      </trkpt>
      <trkpt lat="49.50713" lon="-1.84644">
        <ele>20.2</ele>
        <time>2020-06-14T17:19:03Z</time>
      </trkpt>
      <trkpt lat="49.50715" lon="-1.84644">
        <ele>20.3</ele>
        <time>2020-06-14T17:19:04Z</time>
      </trkpt>
      <trkpt lat="49.50718" lon="-1.84643">
        <ele>20.5</ele>
        <time>2020-06-14T17:19:05Z</time>
      </trkpt>
      <trkpt lat="49.5072" lon="-1.84643">
        <ele>20.6</ele>
        <time>2020-06-14T17:19:06Z</time>
      </trkpt>
      <trkpt lat="49.50724" lon="-1.84641">
        <ele>20.8</ele>
        <time>2020-06-14T17:19:07Z</time>
      </trkpt>
      <trkpt lat="49.50725" lon="-1.8464">
        <ele>20.9</ele>
        <time>2020-06-14T17:19:08Z</time>
      </trkpt>
      <trkpt lat="49.50728" lon="-1.84639">
        <ele>21.1</ele>
        <time>2020-06-14T17:19:09Z</time>
      </trkpt>
      <trkpt lat="49.5073" lon="-1.84638">
        <ele>21.3</ele>
        <time>2020-06-14T17:19:10Z</time>
      </trkpt>
      <trkpt lat="49.50734" lon="-1.84637">
        <ele>21.6</ele>
        <time>2020-06-14T17:19:11Z</time>
      </trkpt>
      <trkpt lat="49.50736" lon="-1.84637">
        <ele>21.7</ele>
        <time>2020-06-14T17:19:12Z</time>
      </trkpt>
      <trkpt lat="49.50739" lon="-1.84637">
        <ele>21.9</ele>
        <time>2020-06-14T17:19:13Z</time>
      </trkpt>
      <trkpt lat="49.50741" lon="-1.84636">
        <ele>22.1</ele>
        <time>2020-06-14T17:19:14Z</time>
      </trkpt>
      <trkpt lat="49.50744" lon="-1.84635">
        <ele>22.4</ele>
        <time>2020-06-14T17:19:15Z</time>
      </trkpt>
      <trkpt lat="49.50748" lon="-1.84635">
        <ele>22.7</ele>
        <time>2020-06-14T17:19:16Z</time>
      </trkpt>
      <trkpt lat="49.50749" lon="-1.84635">
        <ele>22.8</ele>
        <time>2020-06-14T17:19:17Z</time>
      </trkpt>
      <trkpt lat="49.50752" lon="-1.84635">
        <ele>23.1</ele>
        <time>2020-06-14T17:19:18Z</time>
      </trkpt>
      <trkpt lat="49.50755" lon="-1.84634">
        <ele>23.3</ele>
        <time>2020-06-14T17:19:19Z</time>
      </trkpt>
      <trkpt lat="49.50758" lon="-1.84633">
        <ele>23.6</ele>
        <time>2020-06-14T17:19:20Z</time>
      </trkpt>
      <trkpt lat="49.50762" lon="-1.84634">
        <ele>23.9</ele>
        <time>2020-06-14T17:19:21Z</time>
      </trkpt>
      <trkpt lat="49.50765" lon="-1.84632">
        <ele>24.3</ele>
        <time>2020-06-14T17:19:22Z</time>
      </trkpt>
      <trkpt lat="49.50767" lon="-1.84632">
        <ele>24.4</ele>
        <time>2020-06-14T17:19:23Z</time>
      </trkpt>
      <trkpt lat="49.50771" lon="-1.84631">
        <ele>24.8</ele>
        <time>2020-06-14T17:19:24Z</time>
      </trkpt>
      <trkpt lat="49.50774" lon="-1.84631">
        <ele>25.1</ele>
        <time>2020-06-14T17:19:25Z</time>
      </trkpt>
      <trkpt lat="49.50777" lon="-1.8463">
        <ele>25.5</ele>
        <time>2020-06-14T17:19:26Z</time>
      </trkpt>
      <trkpt lat="49.50779" lon="-1.8463">
        <ele>25.6</ele>
        <time>2020-06-14T17:19:27Z</time>
      </trkpt>
      <trkpt lat="49.50781" lon="-1.84629">
        <ele>25.9</ele>
        <time>2020-06-14T17:19:28Z</time>
      </trkpt>
      <trkpt lat="49.50782" lon="-1.84628">
        <ele>26</ele>
        <time>2020-06-14T17:19:29Z</time>
      </trkpt>
      <trkpt lat="49.50784" lon="-1.84628">
        <ele>26.2</ele>
        <time>2020-06-14T17:19:30Z</time>
      </trkpt>
      <trkpt lat="49.50785" lon="-1.84627">
        <ele>26.3</ele>
        <time>2020-06-14T17:19:31Z</time>
      </trkpt>
      <trkpt lat="49.50788" lon="-1.84627">
        <ele>26.6</ele>
        <time>2020-06-14T17:19:32Z</time>
      </trkpt>
      <trkpt lat="49.50792" lon="-1.84625">
        <ele>27.1</ele>
        <time>2020-06-14T17:19:33Z</time>
      </trkpt>
      <trkpt lat="49.50794" lon="-1.84624">
        <ele>27.3</ele>
        <time>2020-06-14T17:19:34Z</time>
      </trkpt>
      <trkpt lat="49.50797" lon="-1.84622">
        <ele>27.6</ele>
        <time>2020-06-14T17:19:35Z</time>
      </trkpt>
      <trkpt lat="49.508" lon="-1.8462">
        <ele>28</ele>
        <time>2020-06-14T17:19:36Z</time>
      </trkpt>
      <trkpt lat="49.50803" lon="-1.84618">
        <ele>28.5</ele>
        <time>2020-06-14T17:19:37Z</time>
      </trkpt>
      <trkpt lat="49.50806" lon="-1.84617">
        <ele>28.9</ele>
        <time>2020-06-14T17:19:38Z</time>
      </trkpt>
      <trkpt lat="49.5081" lon="-1.84615">
        <ele>29.4</ele>
        <time>2020-06-14T17:19:39Z</time>
      </trkpt>
      <trkpt lat="49.50812" lon="-1.84614">
        <ele>29.6</ele>
        <time>2020-06-14T17:19:40Z</time>
      </trkpt>
      <trkpt lat="49.50814" lon="-1.84613">
        <ele>29.9</ele>
        <time>2020-06-14T17:19:41Z</time>
      </trkpt>
      <trkpt lat="49.50815" lon="-1.84612">
        <ele>30</ele>
        <time>2020-06-14T17:19:42Z</time>
      </trkpt>
      <trkpt lat="49.50818" lon="-1.84611">
        <ele>30.4</ele>
        <time>2020-06-14T17:19:43Z</time>
      </trkpt>
      <trkpt lat="49.50821" lon="-1.84609">
        <ele>30.9</ele>
        <time>2020-06-14T17:19:44Z</time>
      </trkpt>
      <trkpt lat="49.50822" lon="-1.84608">
        <ele>31</ele>
        <time>2020-06-14T17:19:45Z</time>
      </trkpt>
      <trkpt lat="49.50825" lon="-1.84606">
        <ele>31.3</ele>
        <time>2020-06-14T17:19:46Z</time>
      </trkpt>
      <trkpt lat="49.50828" lon="-1.84605">
        <ele>31.7</ele>
        <time>2020-06-14T17:19:47Z</time>
      </trkpt>
      <trkpt lat="49.50829" lon="-1.84604">
        <ele>31.9</ele>
        <time>2020-06-14T17:19:48Z</time>
      </trkpt>
      <trkpt lat="49.5083" lon="-1.84602">
        <ele>32.1</ele>
        <time>2020-06-14T17:19:49Z</time>
      </trkpt>
      <trkpt lat="49.50833" lon="-1.84601">
        <ele>32.5</ele>
        <time>2020-06-14T17:19:50Z</time>
      </trkpt>
      <trkpt lat="49.50834" lon="-1.84601">
        <ele>32.6</ele>
        <time>2020-06-14T17:19:51Z</time>
      </trkpt>
      <trkpt lat="49.50837" lon="-1.846">
        <ele>33</ele>
        <time>2020-06-14T17:19:52Z</time>
      </trkpt>
      <trkpt lat="49.50838" lon="-1.84599">
        <ele>33.1</ele>
        <time>2020-06-14T17:19:53Z</time>
      </trkpt>
      <trkpt lat="49.50841" lon="-1.84597">
        <ele>33.4</ele>
        <time>2020-06-14T17:19:54Z</time>
      </trkpt>
      <trkpt lat="49.50843" lon="-1.84596">
        <ele>33.7</ele>
        <time>2020-06-14T17:19:55Z</time>
      </trkpt>
      <trkpt lat="49.50844" lon="-1.84596">
        <ele>33.8</ele>
        <time>2020-06-14T17:19:56Z</time>
      </trkpt>
      <trkpt lat="49.50845" lon="-1.84596">
        <ele>33.9</ele>
        <time>2020-06-14T17:19:57Z</time>
      </trkpt>
      <trkpt lat="49.50847" lon="-1.84595">
        <ele>34.1</ele>
        <time>2020-06-14T17:19:58Z</time>
      </trkpt>
      <trkpt lat="49.5085" lon="-1.84595">
        <ele>34.4</ele>
        <time>2020-06-14T17:19:59Z</time>
      </trkpt>
      <trkpt lat="49.50853" lon="-1.84596">
        <ele>34.7</ele>
        <time>2020-06-14T17:20:00Z</time>
      </trkpt>
      <trkpt lat="49.50854" lon="-1.84596">
        <ele>34.8</ele>
        <time>2020-06-14T17:20:01Z</time>
      </trkpt>
      <trkpt lat="49.50857" lon="-1.84598">
        <ele>34.8</ele>
        <time>2020-06-14T17:20:02Z</time>
      </trkpt>
      <trkpt lat="49.50858" lon="-1.84599">
        <ele>34.8</ele>
        <time>2020-06-14T17:20:03Z</time>
      </trkpt>
      <trkpt lat="49.50861" lon="-1.84601">
        <ele>34.9</ele>
        <time>2020-06-14T17:20:04Z</time>
      </trkpt>
      <trkpt lat="49.50864" lon="-1.84603">
        <ele>34.9</ele>
        <time>2020-06-14T17:20:05Z</time>
      </trkpt>
      <trkpt lat="49.50867" lon="-1.84605">
        <ele>34.9</ele>
        <time>2020-06-14T17:20:06Z</time>
      </trkpt>
      <trkpt lat="49.5087" lon="-1.84607">
        <ele>34.9</ele>
        <time>2020-06-14T17:20:07Z</time>
      </trkpt>
      <trkpt lat="49.50873" lon="-1.8461">
        <ele>34.9</ele>
        <time>2020-06-14T17:20:08Z</time>
      </trkpt>
      <trkpt lat="49.50876" lon="-1.84614">
        <ele>34.8</ele>
        <time>2020-06-14T17:20:09Z</time>
      </trkpt>
      <trkpt lat="49.50879" lon="-1.84618">
        <ele>34.8</ele>
        <time>2020-06-14T17:20:10Z</time>
      </trkpt>
      <trkpt lat="49.50882" lon="-1.84623">
        <ele>34.8</ele>
        <time>2020-06-14T17:20:11Z</time>
      </trkpt>
      <trkpt lat="49.50885" lon="-1.84628">
        <ele>34.7</ele>
        <time>2020-06-14T17:20:12Z</time>
      </trkpt>
      <trkpt lat="49.50888" lon="-1.84633">
        <ele>34.7</ele>
        <time>2020-06-14T17:20:13Z</time>
      </trkpt>
      <trkpt lat="49.50892" lon="-1.84637">
        <ele>34.7</ele>
        <time>2020-06-14T17:20:14Z</time>
      </trkpt>
      <trkpt lat="49.50896" lon="-1.84641">
        <ele>34.6</ele>
        <time>2020-06-14T17:20:15Z</time>
      </trkpt>
      <trkpt lat="49.50899" lon="-1.84646">
        <ele>34.6</ele>
        <time>2020-06-14T17:20:16Z</time>
      </trkpt>
      <trkpt lat="49.50902" lon="-1.84652">
        <ele>34.6</ele>
        <time>2020-06-14T17:20:17Z</time>
      </trkpt>
      <trkpt lat="49.50903" lon="-1.84656">
        <ele>34.6</ele>
        <time>2020-06-14T17:20:18Z</time>
      </trkpt>
      <trkpt lat="49.50906" lon="-1.84662">
        <ele>34.5</ele>
        <time>2020-06-14T17:20:19Z</time>
      </trkpt>
      <trkpt lat="49.50909" lon="-1.84666">
        <ele>34.5</ele>
        <time>2020-06-14T17:20:20Z</time>
      </trkpt>
      <trkpt lat="49.50911" lon="-1.84668">
        <ele>34.4</ele>
        <time>2020-06-14T17:20:21Z</time>
      </trkpt>
      <trkpt lat="49.50914" lon="-1.84672">
        <ele>34.4</ele>
        <time>2020-06-14T17:20:22Z</time>
      </trkpt>
      <trkpt lat="49.50916" lon="-1.84673">
        <ele>34.3</ele>
        <time>2020-06-14T17:20:23Z</time>
      </trkpt>
      <trkpt lat="49.50918" lon="-1.84677">
        <ele>34.3</ele>
        <time>2020-06-14T17:20:24Z</time>
      </trkpt>
      <trkpt lat="49.50921" lon="-1.84679">
        <ele>34.2</ele>
        <time>2020-06-14T17:20:25Z</time>
      </trkpt>
      <trkpt lat="49.50923" lon="-1.84684">
        <ele>34.1</ele>
        <time>2020-06-14T17:20:26Z</time>
      </trkpt>
      <trkpt lat="49.50925" lon="-1.84688">
        <ele>34.1</ele>
        <time>2020-06-14T17:20:27Z</time>
      </trkpt>
      <trkpt lat="49.50927" lon="-1.84691">
        <ele>34</ele>
        <time>2020-06-14T17:20:28Z</time>
      </trkpt>
      <trkpt lat="49.5093" lon="-1.84695">
        <ele>33.9</ele>
        <time>2020-06-14T17:20:29Z</time>
      </trkpt>
      <trkpt lat="49.50931" lon="-1.84698">
        <ele>33.8</ele>
        <time>2020-06-14T17:20:30Z</time>
      </trkpt>
      <trkpt lat="49.50934" lon="-1.84701">
        <ele>33.7</ele>
        <time>2020-06-14T17:20:31Z</time>
      </trkpt>
      <trkpt lat="49.50937" lon="-1.84706">
        <ele>33.5</ele>
        <time>2020-06-14T17:20:32Z</time>
      </trkpt>
      <trkpt lat="49.5094" lon="-1.8471">
        <ele>33.4</ele>
        <time>2020-06-14T17:20:33Z</time>
      </trkpt>
      <trkpt lat="49.50943" lon="-1.84715">
        <ele>33.2</ele>
        <time>2020-06-14T17:20:34Z</time>
      </trkpt>
      <trkpt lat="49.50946" lon="-1.8472">
        <ele>33</ele>
        <time>2020-06-14T17:20:35Z</time>
      </trkpt>
      <trkpt lat="49.5095" lon="-1.84726">
        <ele>32.8</ele>
        <time>2020-06-14T17:20:36Z</time>
      </trkpt>
      <trkpt lat="49.50953" lon="-1.84732">
        <ele>32.6</ele>
        <time>2020-06-14T17:20:37Z</time>
      </trkpt>
      <trkpt lat="49.50958" lon="-1.84738">
        <ele>32.3</ele>
        <time>2020-06-14T17:20:38Z</time>
      </trkpt>
      <trkpt lat="49.50961" lon="-1.84744">
        <ele>32.1</ele>
        <time>2020-06-14T17:20:39Z</time>
      </trkpt>
      <trkpt lat="49.50965" lon="-1.8475">
        <ele>31.8</ele>
        <time>2020-06-14T17:20:40Z</time>
      </trkpt>
      <trkpt lat="49.5097" lon="-1.84756">
        <ele>31.5</ele>
        <time>2020-06-14T17:20:41Z</time>
      </trkpt>
      <trkpt lat="49.50974" lon="-1.84762">
        <ele>31.2</ele>
        <time>2020-06-14T17:20:42Z</time>
      </trkpt>
      <trkpt lat="49.50978" lon="-1.84768">
        <ele>31</ele>
        <time>2020-06-14T17:20:43Z</time>
      </trkpt>
      <trkpt lat="49.50982" lon="-1.84775">
        <ele>30.7</ele>
        <time>2020-06-14T17:20:44Z</time>
      </trkpt>
      <trkpt lat="49.50987" lon="-1.84783">
        <ele>30.4</ele>
        <time>2020-06-14T17:20:45Z</time>
      </trkpt>
      <trkpt lat="49.50992" lon="-1.8479">
        <ele>30.1</ele>
        <time>2020-06-14T17:20:46Z</time>
      </trkpt>
      <trkpt lat="49.50997" lon="-1.84797">
        <ele>29.9</ele>
        <time>2020-06-14T17:20:47Z</time>
      </trkpt>
      <trkpt lat="49.51002" lon="-1.84805">
        <ele>29.7</ele>
        <time>2020-06-14T17:20:48Z</time>
      </trkpt>
      <trkpt lat="49.51007" lon="-1.84812">
        <ele>29.6</ele>
        <time>2020-06-14T17:20:49Z</time>
      </trkpt>
      <trkpt lat="49.51012" lon="-1.84821">
        <ele>29.6</ele>
        <time>2020-06-14T17:20:50Z</time>
      </trkpt>
      <trkpt lat="49.51015" lon="-1.8483">
        <ele>29.6</ele>
        <time>2020-06-14T17:20:51Z</time>
      </trkpt>
      <trkpt lat="49.51017" lon="-1.84838">
        <ele>29.6</ele>
        <time>2020-06-14T17:20:52Z</time>
      </trkpt>
      <trkpt lat="49.5102" lon="-1.84845">
        <ele>29.6</ele>
        <time>2020-06-14T17:20:53Z</time>
      </trkpt>
      <trkpt lat="49.51023" lon="-1.84852">
        <ele>29.6</ele>
        <time>2020-06-14T17:20:54Z</time>
      </trkpt>
      <trkpt lat="49.51025" lon="-1.84858">
        <ele>29.6</ele>
        <time>2020-06-14T17:20:55Z</time>
      </trkpt>
      <trkpt lat="49.51026" lon="-1.84865">
        <ele>29.6</ele>
        <time>2020-06-14T17:20:56Z</time>
      </trkpt>
      <trkpt lat="49.51029" lon="-1.8487">
        <ele>29.6</ele>
        <time>2020-06-14T17:20:57Z</time>
      </trkpt>
      <trkpt lat="49.5103" lon="-1.84877">
        <ele>29.5</ele>
        <time>2020-06-14T17:20:58Z</time>
      </trkpt>
      <trkpt lat="49.51031" lon="-1.84881">
        <ele>29.5</ele>
        <time>2020-06-14T17:20:59Z</time>
      </trkpt>
      <trkpt lat="49.51034" lon="-1.84888">
        <ele>29.5</ele>
        <time>2020-06-14T17:21:00Z</time>
      </trkpt>
      <trkpt lat="49.51036" lon="-1.84895">
        <ele>29.4</ele>
        <time>2020-06-14T17:21:01Z</time>
      </trkpt>
      <trkpt lat="49.51039" lon="-1.84903">
        <ele>29.4</ele>
        <time>2020-06-14T17:21:02Z</time>
      </trkpt>
      <trkpt lat="49.51042" lon="-1.84911">
        <ele>29.3</ele>
        <time>2020-06-14T17:21:03Z</time>
      </trkpt>
      <trkpt lat="49.51045" lon="-1.84919">
        <ele>29.3</ele>
        <time>2020-06-14T17:21:04Z</time>
      </trkpt>
      <trkpt lat="49.51047" lon="-1.84926">
        <ele>29.3</ele>
        <time>2020-06-14T17:21:05Z</time>
      </trkpt>
      <trkpt lat="49.51049" lon="-1.84931">
        <ele>29.3</ele>
        <time>2020-06-14T17:21:06Z</time>
      </trkpt>
      <trkpt lat="49.51051" lon="-1.8494">
        <ele>29.2</ele>
        <time>2020-06-14T17:21:07Z</time>
      </trkpt>
      <trkpt lat="49.51054" lon="-1.84948">
        <ele>29.2</ele>
        <time>2020-06-14T17:21:08Z</time>
      </trkpt>
      <trkpt lat="49.51057" lon="-1.84956">
        <ele>29.2</ele>
        <time>2020-06-14T17:21:09Z</time>
      </trkpt>
      <trkpt lat="49.51061" lon="-1.84963">
        <ele>29.1</ele>
        <time>2020-06-14T17:21:10Z</time>
      </trkpt>
      <trkpt lat="49.51064" lon="-1.84969">
        <ele>29.1</ele>
        <time>2020-06-14T17:21:11Z</time>
      </trkpt>
      <trkpt lat="49.51067" lon="-1.84976">
        <ele>29</ele>
        <time>2020-06-14T17:21:12Z</time>
      </trkpt>
      <trkpt lat="49.5107" lon="-1.84982">
        <ele>29</ele>
        <time>2020-06-14T17:21:13Z</time>
      </trkpt>
      <trkpt lat="49.51072" lon="-1.84989">
        <ele>28.9</ele>
        <time>2020-06-14T17:21:14Z</time>
      </trkpt>
      <trkpt lat="49.51074" lon="-1.84997">
        <ele>28.8</ele>
        <time>2020-06-14T17:21:15Z</time>
      </trkpt>
      <trkpt lat="49.51077" lon="-1.85006">
        <ele>28.7</ele>
        <time>2020-06-14T17:21:16Z</time>
      </trkpt>
      <trkpt lat="49.5108" lon="-1.85014">
        <ele>28.6</ele>
        <time>2020-06-14T17:21:17Z</time>
      </trkpt>
      <trkpt lat="49.51083" lon="-1.85023">
        <ele>28.5</ele>
        <time>2020-06-14T17:21:18Z</time>
      </trkpt>
      <trkpt lat="49.51085" lon="-1.85032">
        <ele>28.5</ele>
        <time>2020-06-14T17:21:19Z</time>
      </trkpt>
      <trkpt lat="49.51087" lon="-1.85041">
        <ele>28.5</ele>
        <time>2020-06-14T17:21:20Z</time>
      </trkpt>
      <trkpt lat="49.5109" lon="-1.8505">
        <ele>28.5</ele>
        <time>2020-06-14T17:21:21Z</time>
      </trkpt>
      <trkpt lat="49.51093" lon="-1.85058">
        <ele>28.6</ele>
        <time>2020-06-14T17:21:22Z</time>
      </trkpt>
      <trkpt lat="49.51095" lon="-1.85066">
        <ele>28.7</ele>
        <time>2020-06-14T17:21:23Z</time>
      </trkpt>
      <trkpt lat="49.51098" lon="-1.85073">
        <ele>28.9</ele>
        <time>2020-06-14T17:21:24Z</time>
      </trkpt>
      <trkpt lat="49.51101" lon="-1.85081">
        <ele>29.1</ele>
        <time>2020-06-14T17:21:25Z</time>
      </trkpt>
      <trkpt lat="49.51104" lon="-1.85088">
        <ele>29.3</ele>
        <time>2020-06-14T17:21:26Z</time>
      </trkpt>
      <trkpt lat="49.51107" lon="-1.85095">
        <ele>29.6</ele>
        <time>2020-06-14T17:21:27Z</time>
      </trkpt>
      <trkpt lat="49.51109" lon="-1.85102">
        <ele>29.8</ele>
        <time>2020-06-14T17:21:28Z</time>
      </trkpt>
      <trkpt lat="49.5111" lon="-1.85107">
        <ele>30</ele>
        <time>2020-06-14T17:21:29Z</time>
      </trkpt>
      <trkpt lat="49.51111" lon="-1.85111">
        <ele>30.2</ele>
        <time>2020-06-14T17:21:30Z</time>
      </trkpt>
      <trkpt lat="49.51113" lon="-1.85115">
        <ele>30.4</ele>
        <time>2020-06-14T17:21:31Z</time>
      </trkpt>
      <trkpt lat="49.51113" lon="-1.8512">
        <ele>30.6</ele>
        <time>2020-06-14T17:21:32Z</time>
      </trkpt>
      <trkpt lat="49.51115" lon="-1.85126">
        <ele>30.9</ele>
        <time>2020-06-14T17:21:33Z</time>
      </trkpt>
      <trkpt lat="49.51116" lon="-1.85131">
        <ele>31.1</ele>
        <time>2020-06-14T17:21:34Z</time>
      </trkpt>
      <trkpt lat="49.51116" lon="-1.85133">
        <ele>31.2</ele>
        <time>2020-06-14T17:21:35Z</time>
      </trkpt>
      <trkpt lat="49.51117" lon="-1.85137">
        <ele>31.4</ele>
        <time>2020-06-14T17:21:36Z</time>
      </trkpt>
      <trkpt lat="49.51117" lon="-1.85139">
        <ele>31.5</ele>
        <time>2020-06-14T17:21:37Z</time>
      </trkpt>
      <trkpt lat="49.51118" lon="-1.85141">
        <ele>31.6</ele>
        <time>2020-06-14T17:21:38Z</time>
      </trkpt>
      <trkpt lat="49.51118" lon="-1.85143">
        <ele>31.7</ele>
        <time>2020-06-14T17:21:39Z</time>
      </trkpt>
      <trkpt lat="49.5112" lon="-1.85147">
        <ele>31.9</ele>
        <time>2020-06-14T17:21:40Z</time>
      </trkpt>
      <trkpt lat="49.51121" lon="-1.85148">
        <ele>32</ele>
        <time>2020-06-14T17:21:41Z</time>
      </trkpt>
      <trkpt lat="49.51121" lon="-1.8515">
        <ele>32.1</ele>
        <time>2020-06-14T17:21:42Z</time>
      </trkpt>
      <trkpt lat="49.51122" lon="-1.85152">
        <ele>32.2</ele>
        <time>2020-06-14T17:21:43Z</time>
      </trkpt>
      <trkpt lat="49.51122" lon="-1.85152">
        <ele>32.2</ele>
        <time>2020-06-14T17:21:44Z</time>
      </trkpt>
      <trkpt lat="49.51122" lon="-1.85154">
        <ele>32.3</ele>
        <time>2020-06-14T17:21:45Z</time>
      </trkpt>
      <trkpt lat="49.51122" lon="-1.85157">
        <ele>32.4</ele>
        <time>2020-06-14T17:21:46Z</time>
      </trkpt>
      <trkpt lat="49.51122" lon="-1.85158">
        <ele>32.5</ele>
        <time>2020-06-14T17:21:47Z</time>
      </trkpt>
      <trkpt lat="49.51123" lon="-1.85161">
        <ele>32.6</ele>
        <time>2020-06-14T17:21:48Z</time>
      </trkpt>
      <trkpt lat="49.51125" lon="-1.85165">
        <ele>32.8</ele>
        <time>2020-06-14T17:21:49Z</time>
      </trkpt>
      <trkpt lat="49.51125" lon="-1.85167">
        <ele>32.9</ele>
        <time>2020-06-14T17:21:50Z</time>
      </trkpt>
      <trkpt lat="49.51126" lon="-1.85168">
        <ele>32.9</ele>
        <time>2020-06-14T17:21:51Z</time>
      </trkpt>
      <trkpt lat="49.51126" lon="-1.85169">
        <ele>33</ele>
        <time>2020-06-14T17:21:52Z</time>
      </trkpt>
      <trkpt lat="49.51127" lon="-1.85171">
        <ele>33.1</ele>
        <time>2020-06-14T17:21:53Z</time>
      </trkpt>
      <trkpt lat="49.51128" lon="-1.85175">
        <ele>33.2</ele>
        <time>2020-06-14T17:21:54Z</time>
      </trkpt>
      <trkpt lat="49.51129" lon="-1.85176">
        <ele>33.3</ele>
        <time>2020-06-14T17:21:55Z</time>
      </trkpt>
      <trkpt lat="49.51131" lon="-1.85182">
        <ele>33.5</ele>
        <time>2020-06-14T17:21:56Z</time>
      </trkpt>
      <trkpt lat="49.51134" lon="-1.85189">
        <ele>33.8</ele>
        <time>2020-06-14T17:21:57Z</time>
      </trkpt>
      <trkpt lat="49.51137" lon="-1.85196">
        <ele>34</ele>
        <time>2020-06-14T17:21:58Z</time>
      </trkpt>
      <trkpt lat="49.5114" lon="-1.85204">
        <ele>34.2</ele>
        <time>2020-06-14T17:21:59Z</time>
      </trkpt>
      <trkpt lat="49.51143" lon="-1.85212">
        <ele>34.3</ele>
        <time>2020-06-14T17:22:00Z</time>
      </trkpt>
      <trkpt lat="49.51145" lon="-1.8522">
        <ele>34.4</ele>
        <time>2020-06-14T17:22:01Z</time>
      </trkpt>
      <trkpt lat="49.51146" lon="-1.85228">
        <ele>34.4</ele>
        <time>2020-06-14T17:22:02Z</time>
      </trkpt>
      <trkpt lat="49.51148" lon="-1.85236">
        <ele>34.3</ele>
        <time>2020-06-14T17:22:03Z</time>
      </trkpt>
      <trkpt lat="49.5115" lon="-1.85245">
        <ele>34.2</ele>
        <time>2020-06-14T17:22:04Z</time>
      </trkpt>
      <trkpt lat="49.51153" lon="-1.85255">
        <ele>34.1</ele>
        <time>2020-06-14T17:22:05Z</time>
      </trkpt>
      <trkpt lat="49.51156" lon="-1.85265">
        <ele>34</ele>
        <time>2020-06-14T17:22:06Z</time>
      </trkpt>
      <trkpt lat="49.51159" lon="-1.85276">
        <ele>33.9</ele>
        <time>2020-06-14T17:22:07Z</time>
      </trkpt>
      <trkpt lat="49.51162" lon="-1.85287">
        <ele>33.9</ele>
        <time>2020-06-14T17:22:08Z</time>
      </trkpt>
      <trkpt lat="49.51163" lon="-1.85297">
        <ele>33.8</ele>
        <time>2020-06-14T17:22:09Z</time>
      </trkpt>
      <trkpt lat="49.51165" lon="-1.85305">
        <ele>33.8</ele>
        <time>2020-06-14T17:22:10Z</time>
      </trkpt>
      <trkpt lat="49.51166" lon="-1.85315">
        <ele>33.7</ele>
        <time>2020-06-14T17:22:11Z</time>
      </trkpt>
      <trkpt lat="49.51167" lon="-1.85327">
        <ele>33.5</ele>
        <time>2020-06-14T17:22:12Z</time>
      </trkpt>
      <trkpt lat="49.51167" lon="-1.85339">
        <ele>33.3</ele>
        <time>2020-06-14T17:22:13Z</time>
      </trkpt>
      <trkpt lat="49.51167" lon="-1.8535">
        <ele>32.8</ele>
        <time>2020-06-14T17:22:14Z</time>
      </trkpt>
      <trkpt lat="49.51166" lon="-1.85362">
        <ele>32.3</ele>
        <time>2020-06-14T17:22:15Z</time>
      </trkpt>
      <trkpt lat="49.51166" lon="-1.85374">
        <ele>31.7</ele>
        <time>2020-06-14T17:22:16Z</time>
      </trkpt>
      <trkpt lat="49.51166" lon="-1.85387">
        <ele>30.9</ele>
        <time>2020-06-14T17:22:17Z</time>
      </trkpt>
      <trkpt lat="49.51166" lon="-1.854">
        <ele>30.1</ele>
        <time>2020-06-14T17:22:18Z</time>
      </trkpt>
      <trkpt lat="49.51167" lon="-1.85413">
        <ele>29.2</ele>
        <time>2020-06-14T17:22:19Z</time>
      </trkpt>
      <trkpt lat="49.51167" lon="-1.85428">
        <ele>28.3</ele>
        <time>2020-06-14T17:22:20Z</time>
      </trkpt>
      <trkpt lat="49.51168" lon="-1.85443">
        <ele>27.4</ele>
        <time>2020-06-14T17:22:21Z</time>
      </trkpt>
      <trkpt lat="49.51169" lon="-1.85459">
        <ele>26.6</ele>
        <time>2020-06-14T17:22:22Z</time>
      </trkpt>
      <trkpt lat="49.51172" lon="-1.85474">
        <ele>27</ele>
        <time>2020-06-14T17:22:23Z</time>
      </trkpt>
      <trkpt lat="49.51175" lon="-1.8549">
        <ele>27.3</ele>
        <time>2020-06-14T17:22:24Z</time>
      </trkpt>
      <trkpt lat="49.5118" lon="-1.85505">
        <ele>27.6</ele>
        <time>2020-06-14T17:22:25Z</time>
      </trkpt>
      <trkpt lat="49.51185" lon="-1.85518">
        <ele>28</ele>
        <time>2020-06-14T17:22:26Z</time>
      </trkpt>
      <trkpt lat="49.5119" lon="-1.85531">
        <ele>28.4</ele>
        <time>2020-06-14T17:22:27Z</time>
      </trkpt>
      <trkpt lat="49.51195" lon="-1.85544">
        <ele>28.8</ele>
        <time>2020-06-14T17:22:28Z</time>
      </trkpt>
      <trkpt lat="49.512" lon="-1.85556">
        <ele>29.3</ele>
        <time>2020-06-14T17:22:29Z</time>
      </trkpt>
      <trkpt lat="49.51204" lon="-1.85567">
        <ele>29.9</ele>
        <time>2020-06-14T17:22:30Z</time>
      </trkpt>
      <trkpt lat="49.51208" lon="-1.85578">
        <ele>30.4</ele>
        <time>2020-06-14T17:22:31Z</time>
      </trkpt>
      <trkpt lat="49.51211" lon="-1.85589">
        <ele>31</ele>
        <time>2020-06-14T17:22:32Z</time>
      </trkpt>
      <trkpt lat="49.51215" lon="-1.85599">
        <ele>31.4</ele>
        <time>2020-06-14T17:22:33Z</time>
      </trkpt>
      <trkpt lat="49.51218" lon="-1.85609">
        <ele>31.9</ele>
        <time>2020-06-14T17:22:34Z</time>
      </trkpt>
      <trkpt lat="49.51219" lon="-1.85619">
        <ele>32.3</ele>
        <time>2020-06-14T17:22:35Z</time>
      </trkpt>
      <trkpt lat="49.51222" lon="-1.85628">
        <ele>32.7</ele>
        <time>2020-06-14T17:22:36Z</time>
      </trkpt>
      <trkpt lat="49.51225" lon="-1.85638">
        <ele>33.1</ele>
        <time>2020-06-14T17:22:37Z</time>
      </trkpt>
      <trkpt lat="49.51227" lon="-1.85647">
        <ele>33.5</ele>
        <time>2020-06-14T17:22:38Z</time>
      </trkpt>
      <trkpt lat="49.51229" lon="-1.85655">
        <ele>33.9</ele>
        <time>2020-06-14T17:22:39Z</time>
      </trkpt>
      <trkpt lat="49.51232" lon="-1.85663">
        <ele>34.3</ele>
        <time>2020-06-14T17:22:40Z</time>
      </trkpt>
      <trkpt lat="49.51234" lon="-1.8567">
        <ele>34.6</ele>
        <time>2020-06-14T17:22:41Z</time>
      </trkpt>
      <trkpt lat="49.51236" lon="-1.85677">
        <ele>35</ele>
        <time>2020-06-14T17:22:42Z</time>
      </trkpt>
      <trkpt lat="49.51238" lon="-1.85684">
        <ele>35.3</ele>
        <time>2020-06-14T17:22:43Z</time>
      </trkpt>
      <trkpt lat="49.51241" lon="-1.8569">
        <ele>35.6</ele>
        <time>2020-06-14T17:22:44Z</time>
      </trkpt>
      <trkpt lat="49.51245" lon="-1.85696">
        <ele>36</ele>
        <time>2020-06-14T17:22:45Z</time>
      </trkpt>
      <trkpt lat="49.51248" lon="-1.85701">
        <ele>36.3</ele>
        <time>2020-06-14T17:22:46Z</time>
      </trkpt>
      <trkpt lat="49.51251" lon="-1.85707">
        <ele>36.7</ele>
        <time>2020-06-14T17:22:47Z</time>
      </trkpt>
      <trkpt lat="49.51255" lon="-1.85713">
        <ele>37.1</ele>
        <time>2020-06-14T17:22:48Z</time>
      </trkpt>
      <trkpt lat="49.51258" lon="-1.85718">
        <ele>37.4</ele>
        <time>2020-06-14T17:22:49Z</time>
      </trkpt>
      <trkpt lat="49.51261" lon="-1.85723">
        <ele>37.7</ele>
        <time>2020-06-14T17:22:50Z</time>
      </trkpt>
      <trkpt lat="49.51264" lon="-1.85729">
        <ele>38</ele>
        <time>2020-06-14T17:22:51Z</time>
      </trkpt>
      <trkpt lat="49.51266" lon="-1.85734">
        <ele>38.3</ele>
        <time>2020-06-14T17:22:52Z</time>
      </trkpt>
      <trkpt lat="49.51269" lon="-1.85739">
        <ele>38.6</ele>
        <time>2020-06-14T17:22:53Z</time>
      </trkpt>
      <trkpt lat="49.51271" lon="-1.85743">
        <ele>38.9</ele>
        <time>2020-06-14T17:22:54Z</time>
      </trkpt>
      <trkpt lat="49.51274" lon="-1.85748">
        <ele>39.1</ele>
        <time>2020-06-14T17:22:55Z</time>
      </trkpt>
      <trkpt lat="49.51275" lon="-1.85753">
        <ele>39.4</ele>
        <time>2020-06-14T17:22:56Z</time>
      </trkpt>
      <trkpt lat="49.51276" lon="-1.85759">
        <ele>39.6</ele>
        <time>2020-06-14T17:22:57Z</time>
      </trkpt>
      <trkpt lat="49.51277" lon="-1.85765">
        <ele>39.9</ele>
        <time>2020-06-14T17:22:58Z</time>
      </trkpt>
      <trkpt lat="49.51276" lon="-1.85771">
        <ele>40.1</ele>
        <time>2020-06-14T17:22:59Z</time>
      </trkpt>
      <trkpt lat="49.51276" lon="-1.85778">
        <ele>40.3</ele>
        <time>2020-06-14T17:23:00Z</time>
      </trkpt>
      <trkpt lat="49.51277" lon="-1.85783">
        <ele>40.5</ele>
        <time>2020-06-14T17:23:01Z</time>
      </trkpt>
      <trkpt lat="49.51278" lon="-1.85789">
        <ele>40.7</ele>
        <time>2020-06-14T17:23:02Z</time>
      </trkpt>
      <trkpt lat="49.51279" lon="-1.85795">
        <ele>40.8</ele>
        <time>2020-06-14T17:23:03Z</time>
      </trkpt>
      <trkpt lat="49.51279" lon="-1.85801">
        <ele>41</ele>
        <time>2020-06-14T17:23:04Z</time>
      </trkpt>
      <trkpt lat="49.51279" lon="-1.85806">
        <ele>41.2</ele>
        <time>2020-06-14T17:23:05Z</time>
      </trkpt>
      <trkpt lat="49.51279" lon="-1.85811">
        <ele>41.5</ele>
        <time>2020-06-14T17:23:06Z</time>
      </trkpt>
      <trkpt lat="49.51279" lon="-1.85817">
        <ele>41.9</ele>
        <time>2020-06-14T17:23:07Z</time>
      </trkpt>
      <trkpt lat="49.51279" lon="-1.85824">
        <ele>42.4</ele>
        <time>2020-06-14T17:23:08Z</time>
      </trkpt>
      <trkpt lat="49.51279" lon="-1.85829">
        <ele>42.7</ele>
        <time>2020-06-14T17:23:09Z</time>
      </trkpt>
      <trkpt lat="49.51279" lon="-1.85831">
        <ele>42.8</ele>
        <time>2020-06-14T17:23:10Z</time>
      </trkpt>
      <trkpt lat="49.5128" lon="-1.85836">
        <ele>43.2</ele>
        <time>2020-06-14T17:23:11Z</time>
      </trkpt>
      <trkpt lat="49.51281" lon="-1.8584">
        <ele>43.5</ele>
        <time>2020-06-14T17:23:12Z</time>
      </trkpt>
      <trkpt lat="49.51282" lon="-1.85842">
        <ele>43.6</ele>
        <time>2020-06-14T17:23:13Z</time>
      </trkpt>
      <trkpt lat="49.51283" lon="-1.85845">
        <ele>43.8</ele>
        <time>2020-06-14T17:23:14Z</time>
      </trkpt>
      <trkpt lat="49.51284" lon="-1.85845">
        <ele>43.9</ele>
        <time>2020-06-14T17:23:15Z</time>
      </trkpt>
      <trkpt lat="49.51286" lon="-1.85849">
        <ele>44.3</ele>
        <time>2020-06-14T17:23:16Z</time>
      </trkpt>
      <trkpt lat="49.51287" lon="-1.8585">
        <ele>44.4</ele>
        <time>2020-06-14T17:23:17Z</time>
      </trkpt>
      <trkpt lat="49.51289" lon="-1.85855">
        <ele>44.8</ele>
        <time>2020-06-14T17:23:18Z</time>
      </trkpt>
      <trkpt lat="49.5129" lon="-1.85858">
        <ele>45</ele>
        <time>2020-06-14T17:23:19Z</time>
      </trkpt>
      <trkpt lat="49.51293" lon="-1.85861">
        <ele>45.4</ele>
        <time>2020-06-14T17:23:20Z</time>
      </trkpt>
      <trkpt lat="49.51295" lon="-1.85863">
        <ele>45.5</ele>
        <time>2020-06-14T17:23:21Z</time>
      </trkpt>
      <trkpt lat="49.51297" lon="-1.85865">
        <ele>45.8</ele>
        <time>2020-06-14T17:23:22Z</time>
      </trkpt>
      <trkpt lat="49.51298" lon="-1.85866">
        <ele>46</ele>
        <time>2020-06-14T17:23:23Z</time>
      </trkpt>
      <trkpt lat="49.51301" lon="-1.8587">
        <ele>46.4</ele>
        <time>2020-06-14T17:23:24Z</time>
      </trkpt>
      <trkpt lat="49.51302" lon="-1.85871">
        <ele>46.5</ele>
        <time>2020-06-14T17:23:25Z</time>
      </trkpt>
      <trkpt lat="49.51304" lon="-1.85873">
        <ele>46.7</ele>
        <time>2020-06-14T17:23:26Z</time>
      </trkpt>
      <trkpt lat="49.51305" lon="-1.85874">
        <ele>46.9</ele>
        <time>2020-06-14T17:23:27Z</time>
      </trkpt>
      <trkpt lat="49.51307" lon="-1.85877">
        <ele>47.2</ele>
        <time>2020-06-14T17:23:28Z</time>
      </trkpt>
      <trkpt lat="49.5131" lon="-1.85881">
        <ele>47.6</ele>
        <time>2020-06-14T17:23:29Z</time>
      </trkpt>
      <trkpt lat="49.51311" lon="-1.85883">
        <ele>47.7</ele>
        <time>2020-06-14T17:23:30Z</time>
      </trkpt>
      <trkpt lat="49.51313" lon="-1.85886">
        <ele>48.1</ele>
        <time>2020-06-14T17:23:31Z</time>
      </trkpt>
      <trkpt lat="49.51313" lon="-1.85888">
        <ele>48.2</ele>
        <time>2020-06-14T17:23:32Z</time>
      </trkpt>
      <trkpt lat="49.51316" lon="-1.85891">
        <ele>48.6</ele>
        <time>2020-06-14T17:23:33Z</time>
      </trkpt>
      <trkpt lat="49.51317" lon="-1.85892">
        <ele>48.7</ele>
        <time>2020-06-14T17:23:34Z</time>
      </trkpt>
      <trkpt lat="49.51319" lon="-1.85895">
        <ele>49</ele>
        <time>2020-06-14T17:23:35Z</time>
      </trkpt>
      <trkpt lat="49.5132" lon="-1.85896">
        <ele>49.2</ele>
        <time>2020-06-14T17:23:36Z</time>
      </trkpt>
      <trkpt lat="49.51322" lon="-1.859">
        <ele>49.5</ele>
        <time>2020-06-14T17:23:37Z</time>
      </trkpt>
      <trkpt lat="49.51323" lon="-1.85901">
        <ele>49.6</ele>
        <time>2020-06-14T17:23:38Z</time>
      </trkpt>
      <trkpt lat="49.51324" lon="-1.85906">
        <ele>50</ele>
        <time>2020-06-14T17:23:39Z</time>
      </trkpt>
      <trkpt lat="49.51324" lon="-1.85908">
        <ele>50.1</ele>
        <time>2020-06-14T17:23:40Z</time>
      </trkpt>
      <trkpt lat="49.51326" lon="-1.85911">
        <ele>50.5</ele>
        <time>2020-06-14T17:23:41Z</time>
      </trkpt>
      <trkpt lat="49.51327" lon="-1.85912">
        <ele>50.6</ele>
        <time>2020-06-14T17:23:42Z</time>
      </trkpt>
      <trkpt lat="49.51329" lon="-1.85917">
        <ele>51</ele>
        <time>2020-06-14T17:23:43Z</time>
      </trkpt>
      <trkpt lat="49.51329" lon="-1.85918">
        <ele>51.1</ele>
        <time>2020-06-14T17:23:44Z</time>
      </trkpt>
      <trkpt lat="49.51331" lon="-1.85923">
        <ele>51.4</ele>
        <time>2020-06-14T17:23:45Z</time>
      </trkpt>
      <trkpt lat="49.51331" lon="-1.85924">
        <ele>51.6</ele>
        <time>2020-06-14T17:23:46Z</time>
      </trkpt>
      <trkpt lat="49.51333" lon="-1.85928">
        <ele>51.9</ele>
        <time>2020-06-14T17:23:47Z</time>
      </trkpt>
      <trkpt lat="49.51333" lon="-1.8593">
        <ele>52.1</ele>
        <time>2020-06-14T17:23:48Z</time>
      </trkpt>
      <trkpt lat="49.51335" lon="-1.85934">
        <ele>52.4</ele>
        <time>2020-06-14T17:23:49Z</time>
      </trkpt>
      <trkpt lat="49.51335" lon="-1.85935">
        <ele>52.5</ele>
        <time>2020-06-14T17:23:50Z</time>
      </trkpt>
      <trkpt lat="49.51337" lon="-1.8594">
        <ele>52.9</ele>
        <time>2020-06-14T17:23:51Z</time>
      </trkpt>
      <trkpt lat="49.51337" lon="-1.85941">
        <ele>53</ele>
        <time>2020-06-14T17:23:52Z</time>
      </trkpt>
      <trkpt lat="49.51337" lon="-1.85946">
        <ele>53.4</ele>
        <time>2020-06-14T17:23:53Z</time>
      </trkpt>
      <trkpt lat="49.51337" lon="-1.85948">
        <ele>53.5</ele>
        <time>2020-06-14T17:23:54Z</time>
      </trkpt>
      <trkpt lat="49.51338" lon="-1.85953">
        <ele>53.9</ele>
        <time>2020-06-14T17:23:55Z</time>
      </trkpt>
      <trkpt lat="49.51338" lon="-1.85954">
        <ele>54</ele>
        <time>2020-06-14T17:23:56Z</time>
      </trkpt>
      <trkpt lat="49.51339" lon="-1.85959">
        <ele>54.3</ele>
        <time>2020-06-14T17:23:57Z</time>
      </trkpt>
      <trkpt lat="49.51339" lon="-1.8596">
        <ele>54.4</ele>
        <time>2020-06-14T17:23:58Z</time>
      </trkpt>
      <trkpt lat="49.51339" lon="-1.85962">
        <ele>54.6</ele>
        <time>2020-06-14T17:23:59Z</time>
      </trkpt>
      <trkpt lat="49.5134" lon="-1.85965">
        <ele>54.8</ele>
        <time>2020-06-14T17:24:00Z</time>
      </trkpt>
      <trkpt lat="49.51342" lon="-1.8597">
        <ele>55.2</ele>
        <time>2020-06-14T17:24:01Z</time>
      </trkpt>
      <trkpt lat="49.51342" lon="-1.85971">
        <ele>55.4</ele>
        <time>2020-06-14T17:24:02Z</time>
      </trkpt>
      <trkpt lat="49.51343" lon="-1.85976">
        <ele>55.7</ele>
        <time>2020-06-14T17:24:03Z</time>
      </trkpt>
      <trkpt lat="49.51343" lon="-1.85978">
        <ele>55.9</ele>
        <time>2020-06-14T17:24:04Z</time>
      </trkpt>
      <trkpt lat="49.51344" lon="-1.85983">
        <ele>56.3</ele>
        <time>2020-06-14T17:24:05Z</time>
      </trkpt>
      <trkpt lat="49.51344" lon="-1.85985">
        <ele>56.4</ele>
        <time>2020-06-14T17:24:06Z</time>
      </trkpt>
      <trkpt lat="49.51344" lon="-1.8599">
        <ele>56.8</ele>
        <time>2020-06-14T17:24:07Z</time>
      </trkpt>
      <trkpt lat="49.51344" lon="-1.85991">
        <ele>56.9</ele>
        <time>2020-06-14T17:24:08Z</time>
      </trkpt>
      <trkpt lat="49.51345" lon="-1.85996">
        <ele>57.3</ele>
        <time>2020-06-14T17:24:09Z</time>
      </trkpt>
      <trkpt lat="49.51345" lon="-1.85998">
        <ele>57.5</ele>
        <time>2020-06-14T17:24:10Z</time>
      </trkpt>
      <trkpt lat="49.51346" lon="-1.86003">
        <ele>57.8</ele>
        <time>2020-06-14T17:24:11Z</time>
      </trkpt>
      <trkpt lat="49.51346" lon="-1.86005">
        <ele>58</ele>
        <time>2020-06-14T17:24:12Z</time>
      </trkpt>
      <trkpt lat="49.51346" lon="-1.86007">
        <ele>58.1</ele>
        <time>2020-06-14T17:24:13Z</time>
      </trkpt>
      <trkpt lat="49.51347" lon="-1.8601">
        <ele>58.4</ele>
        <time>2020-06-14T17:24:14Z</time>
      </trkpt>
      <trkpt lat="49.51349" lon="-1.86015">
        <ele>58.8</ele>
        <time>2020-06-14T17:24:15Z</time>
      </trkpt>
      <trkpt lat="49.51349" lon="-1.86017">
        <ele>58.9</ele>
        <time>2020-06-14T17:24:16Z</time>
      </trkpt>
      <trkpt lat="49.5135" lon="-1.86022">
        <ele>59.4</ele>
        <time>2020-06-14T17:24:17Z</time>
      </trkpt>
      <trkpt lat="49.51351" lon="-1.86024">
        <ele>59.5</ele>
        <time>2020-06-14T17:24:18Z</time>
      </trkpt>
      <trkpt lat="49.51351" lon="-1.86029">
        <ele>59.9</ele>
        <time>2020-06-14T17:24:19Z</time>
      </trkpt>
      <trkpt lat="49.51352" lon="-1.8603">
        <ele>60</ele>
        <time>2020-06-14T17:24:20Z</time>
      </trkpt>
      <trkpt lat="49.51352" lon="-1.86035">
        <ele>60.4</ele>
        <time>2020-06-14T17:24:21Z</time>
      </trkpt>
      <trkpt lat="49.51352" lon="-1.86037">
        <ele>60.5</ele>
        <time>2020-06-14T17:24:22Z</time>
      </trkpt>
      <trkpt lat="49.51353" lon="-1.86039">
        <ele>60.7</ele>
        <time>2020-06-14T17:24:23Z</time>
      </trkpt>
      <trkpt lat="49.51353" lon="-1.86041">
        <ele>60.8</ele>
        <time>2020-06-14T17:24:24Z</time>
      </trkpt>
      <trkpt lat="49.51354" lon="-1.86046">
        <ele>61.2</ele>
        <time>2020-06-14T17:24:25Z</time>
      </trkpt>
      <trkpt lat="49.51355" lon="-1.86047">
        <ele>61.3</ele>
        <time>2020-06-14T17:24:26Z</time>
      </trkpt>
      <trkpt lat="49.51355" lon="-1.86049">
        <ele>61.5</ele>
        <time>2020-06-14T17:24:27Z</time>
      </trkpt>
      <trkpt lat="49.51356" lon="-1.86052">
        <ele>61.6</ele>
        <time>2020-06-14T17:24:28Z</time>
      </trkpt>
      <trkpt lat="49.51357" lon="-1.86057">
        <ele>62.3</ele>
        <time>2020-06-14T17:24:29Z</time>
      </trkpt>
      <trkpt lat="49.51357" lon="-1.86059">
        <ele>62.4</ele>
        <time>2020-06-14T17:24:30Z</time>
      </trkpt>
      <trkpt lat="49.51358" lon="-1.86063">
        <ele>62.6</ele>
        <time>2020-06-14T17:24:31Z</time>
      </trkpt>
      <trkpt lat="49.51358" lon="-1.86064">
        <ele>62.6</ele>
        <time>2020-06-14T17:24:32Z</time>
      </trkpt>
      <trkpt lat="49.51359" lon="-1.86068">
        <ele>62.8</ele>
        <time>2020-06-14T17:24:33Z</time>
      </trkpt>
      <trkpt lat="49.51361" lon="-1.86073">
        <ele>63</ele>
        <time>2020-06-14T17:24:34Z</time>
      </trkpt>
      <trkpt lat="49.51361" lon="-1.86074">
        <ele>63.1</ele>
        <time>2020-06-14T17:24:35Z</time>
      </trkpt>
      <trkpt lat="49.51363" lon="-1.86078">
        <ele>63.2</ele>
        <time>2020-06-14T17:24:36Z</time>
      </trkpt>
      <trkpt lat="49.51365" lon="-1.86081">
        <ele>63.4</ele>
        <time>2020-06-14T17:24:37Z</time>
      </trkpt>
      <trkpt lat="49.51366" lon="-1.86082">
        <ele>63.4</ele>
        <time>2020-06-14T17:24:38Z</time>
      </trkpt>
      <trkpt lat="49.51369" lon="-1.86084">
        <ele>63.8</ele>
        <time>2020-06-14T17:24:39Z</time>
      </trkpt>
      <trkpt lat="49.5137" lon="-1.86085">
        <ele>63.9</ele>
        <time>2020-06-14T17:24:40Z</time>
      </trkpt>
      <trkpt lat="49.51374" lon="-1.86087">
        <ele>64.2</ele>
        <time>2020-06-14T17:24:41Z</time>
      </trkpt>
      <trkpt lat="49.51375" lon="-1.86088">
        <ele>64.4</ele>
        <time>2020-06-14T17:24:42Z</time>
      </trkpt>
      <trkpt lat="49.51378" lon="-1.8609">
        <ele>64.6</ele>
        <time>2020-06-14T17:24:43Z</time>
      </trkpt>
      <trkpt lat="49.51381" lon="-1.86091">
        <ele>64.9</ele>
        <time>2020-06-14T17:24:44Z</time>
      </trkpt>
      <trkpt lat="49.51383" lon="-1.86091">
        <ele>65</ele>
        <time>2020-06-14T17:24:45Z</time>
      </trkpt>
      <trkpt lat="49.51386" lon="-1.86091">
        <ele>65.4</ele>
        <time>2020-06-14T17:24:46Z</time>
      </trkpt>
      <trkpt lat="49.51387" lon="-1.86091">
        <ele>65.5</ele>
        <time>2020-06-14T17:24:47Z</time>
      </trkpt>
      <trkpt lat="49.51391" lon="-1.86092">
        <ele>65.8</ele>
        <time>2020-06-14T17:24:48Z</time>
      </trkpt>
      <trkpt lat="49.51392" lon="-1.86093">
        <ele>65.9</ele>
        <time>2020-06-14T17:24:49Z</time>
      </trkpt>
      <trkpt lat="49.51395" lon="-1.86094">
        <ele>66.2</ele>
        <time>2020-06-14T17:24:50Z</time>
      </trkpt>
      <trkpt lat="49.51395" lon="-1.86094">
        <ele>66.3</ele>
        <time>2020-06-14T17:24:51Z</time>
      </trkpt>
      <trkpt lat="49.51398" lon="-1.86096">
        <ele>66.6</ele>
        <time>2020-06-14T17:24:52Z</time>
      </trkpt>
      <trkpt lat="49.51399" lon="-1.86097">
        <ele>66.7</ele>
        <time>2020-06-14T17:24:53Z</time>
      </trkpt>
      <trkpt lat="49.51402" lon="-1.86098">
        <ele>67</ele>
        <time>2020-06-14T17:24:54Z</time>
      </trkpt>
      <trkpt lat="49.51404" lon="-1.86098">
        <ele>67.2</ele>
        <time>2020-06-14T17:24:55Z</time>
      </trkpt>
      <trkpt lat="49.51407" lon="-1.86099">
        <ele>67.5</ele>
        <time>2020-06-14T17:24:56Z</time>
      </trkpt>
      <trkpt lat="49.51408" lon="-1.861">
        <ele>67.6</ele>
        <time>2020-06-14T17:24:57Z</time>
      </trkpt>
      <trkpt lat="49.5141" lon="-1.86101">
        <ele>67.9</ele>
        <time>2020-06-14T17:24:58Z</time>
      </trkpt>
      <trkpt lat="49.51411" lon="-1.86101">
        <ele>68</ele>
        <time>2020-06-14T17:24:59Z</time>
      </trkpt>
      <trkpt lat="49.51415" lon="-1.86102">
        <ele>68.3</ele>
        <time>2020-06-14T17:25:00Z</time>
      </trkpt>
      <trkpt lat="49.51416" lon="-1.86103">
        <ele>68.4</ele>
        <time>2020-06-14T17:25:01Z</time>
      </trkpt>
      <trkpt lat="49.5142" lon="-1.86105">
        <ele>68.8</ele>
        <time>2020-06-14T17:25:02Z</time>
      </trkpt>
      <trkpt lat="49.51421" lon="-1.86105">
        <ele>68.9</ele>
        <time>2020-06-14T17:25:03Z</time>
      </trkpt>
      <trkpt lat="49.51424" lon="-1.86107">
        <ele>69.2</ele>
        <time>2020-06-14T17:25:04Z</time>
      </trkpt>
      <trkpt lat="49.51425" lon="-1.86107">
        <ele>69.3</ele>
        <time>2020-06-14T17:25:05Z</time>
      </trkpt>
      <trkpt lat="49.51428" lon="-1.86109">
        <ele>69.6</ele>
        <time>2020-06-14T17:25:06Z</time>
      </trkpt>
      <trkpt lat="49.51429" lon="-1.8611">
        <ele>69.7</ele>
        <time>2020-06-14T17:25:07Z</time>
      </trkpt>
      <trkpt lat="49.51433" lon="-1.86111">
        <ele>70.1</ele>
        <time>2020-06-14T17:25:08Z</time>
      </trkpt>
      <trkpt lat="49.51434" lon="-1.86112">
        <ele>70.2</ele>
        <time>2020-06-14T17:25:09Z</time>
      </trkpt>
      <trkpt lat="49.51438" lon="-1.86113">
        <ele>70.5</ele>
        <time>2020-06-14T17:25:10Z</time>
      </trkpt>
      <trkpt lat="49.51439" lon="-1.86114">
        <ele>70.6</ele>
        <time>2020-06-14T17:25:11Z</time>
      </trkpt>
      <trkpt lat="49.51443" lon="-1.86114">
        <ele>70.9</ele>
        <time>2020-06-14T17:25:12Z</time>
      </trkpt>
      <trkpt lat="49.51444" lon="-1.86115">
        <ele>71</ele>
        <time>2020-06-14T17:25:13Z</time>
      </trkpt>
      <trkpt lat="49.51446" lon="-1.86117">
        <ele>71.3</ele>
        <time>2020-06-14T17:25:14Z</time>
      </trkpt>
      <trkpt lat="49.51449" lon="-1.86119">
        <ele>71.5</ele>
        <time>2020-06-14T17:25:15Z</time>
      </trkpt>
      <trkpt lat="49.51451" lon="-1.86122">
        <ele>71.8</ele>
        <time>2020-06-14T17:25:16Z</time>
      </trkpt>
      <trkpt lat="49.51454" lon="-1.86124">
        <ele>72</ele>
        <time>2020-06-14T17:25:17Z</time>
      </trkpt>
      <trkpt lat="49.51457" lon="-1.86128">
        <ele>72.3</ele>
        <time>2020-06-14T17:25:18Z</time>
      </trkpt>
      <trkpt lat="49.5146" lon="-1.86131">
        <ele>72.6</ele>
        <time>2020-06-14T17:25:19Z</time>
      </trkpt>
      <trkpt lat="49.51463" lon="-1.86135">
        <ele>72.9</ele>
        <time>2020-06-14T17:25:20Z</time>
      </trkpt>
      <trkpt lat="49.51466" lon="-1.86138">
        <ele>73.2</ele>
        <time>2020-06-14T17:25:21Z</time>
      </trkpt>
      <trkpt lat="49.51468" lon="-1.86142">
        <ele>73.4</ele>
        <time>2020-06-14T17:25:22Z</time>
      </trkpt>
      <trkpt lat="49.51471" lon="-1.86145">
        <ele>73.6</ele>
        <time>2020-06-14T17:25:23Z</time>
      </trkpt>
      <trkpt lat="49.51475" lon="-1.86149">
        <ele>73.9</ele>
        <time>2020-06-14T17:25:24Z</time>
      </trkpt>
      <trkpt lat="49.51476" lon="-1.86151">
        <ele>74.1</ele>
        <time>2020-06-14T17:25:25Z</time>
      </trkpt>
      <trkpt lat="49.51479" lon="-1.86154">
        <ele>74.3</ele>
        <time>2020-06-14T17:25:26Z</time>
      </trkpt>
      <trkpt lat="49.51483" lon="-1.86156">
        <ele>74.5</ele>
        <time>2020-06-14T17:25:27Z</time>
      </trkpt>
      <trkpt lat="49.51484" lon="-1.86157">
        <ele>74.6</ele>
        <time>2020-06-14T17:25:28Z</time>
      </trkpt>
      <trkpt lat="49.51487" lon="-1.86159">
        <ele>74.8</ele>
        <time>2020-06-14T17:25:29Z</time>
      </trkpt>
      <trkpt lat="49.51491" lon="-1.8616">
        <ele>75</ele>
        <time>2020-06-14T17:25:30Z</time>
      </trkpt>
      <trkpt lat="49.51494" lon="-1.86161">
        <ele>75.2</ele>
        <time>2020-06-14T17:25:31Z</time>
      </trkpt>
      <trkpt lat="49.51497" lon="-1.86162">
        <ele>75.4</ele>
        <time>2020-06-14T17:25:32Z</time>
      </trkpt>
      <trkpt lat="49.515" lon="-1.86163">
        <ele>75.5</ele>
        <time>2020-06-14T17:25:33Z</time>
      </trkpt>
      <trkpt lat="49.51503" lon="-1.86164">
        <ele>75.7</ele>
        <time>2020-06-14T17:25:34Z</time>
      </trkpt>
      <trkpt lat="49.51506" lon="-1.86166">
        <ele>75.9</ele>
        <time>2020-06-14T17:25:35Z</time>
      </trkpt>
      <trkpt lat="49.5151" lon="-1.86169">
        <ele>76.1</ele>
        <time>2020-06-14T17:25:36Z</time>
      </trkpt>
      <trkpt lat="49.51512" lon="-1.8617">
        <ele>76.2</ele>
        <time>2020-06-14T17:25:37Z</time>
      </trkpt>
      <trkpt lat="49.51514" lon="-1.86171">
        <ele>76.4</ele>
        <time>2020-06-14T17:25:38Z</time>
      </trkpt>
      <trkpt lat="49.51517" lon="-1.86174">
        <ele>76.5</ele>
        <time>2020-06-14T17:25:39Z</time>
      </trkpt>
      <trkpt lat="49.5152" lon="-1.86177">
        <ele>76.7</ele>
        <time>2020-06-14T17:25:40Z</time>
      </trkpt>
      <trkpt lat="49.51523" lon="-1.86181">
        <ele>76.9</ele>
        <time>2020-06-14T17:25:41Z</time>
      </trkpt>
      <trkpt lat="49.51525" lon="-1.86186">
        <ele>77</ele>
        <time>2020-06-14T17:25:42Z</time>
      </trkpt>
      <trkpt lat="49.51527" lon="-1.8619">
        <ele>77.1</ele>
        <time>2020-06-14T17:25:43Z</time>
      </trkpt>
      <trkpt lat="49.51529" lon="-1.86195">
        <ele>77.2</ele>
        <time>2020-06-14T17:25:44Z</time>
      </trkpt>
      <trkpt lat="49.51531" lon="-1.86199">
        <ele>77.4</ele>
        <time>2020-06-14T17:25:45Z</time>
      </trkpt>
      <trkpt lat="49.51532" lon="-1.86204">
        <ele>77.5</ele>
        <time>2020-06-14T17:25:46Z</time>
      </trkpt>
      <trkpt lat="49.51534" lon="-1.86209">
        <ele>77.6</ele>
        <time>2020-06-14T17:25:47Z</time>
      </trkpt>
      <trkpt lat="49.51537" lon="-1.86214">
        <ele>77.7</ele>
        <time>2020-06-14T17:25:48Z</time>
      </trkpt>
      <trkpt lat="49.51539" lon="-1.86219">
        <ele>77.8</ele>
        <time>2020-06-14T17:25:49Z</time>
      </trkpt>
      <trkpt lat="49.51541" lon="-1.86224">
        <ele>78</ele>
        <time>2020-06-14T17:25:50Z</time>
      </trkpt>
      <trkpt lat="49.51543" lon="-1.86229">
        <ele>78.1</ele>
        <time>2020-06-14T17:25:51Z</time>
      </trkpt>
      <trkpt lat="49.51545" lon="-1.86235">
        <ele>78.2</ele>
        <time>2020-06-14T17:25:52Z</time>
      </trkpt>
      <trkpt lat="49.51547" lon="-1.8624">
        <ele>78.3</ele>
        <time>2020-06-14T17:25:53Z</time>
      </trkpt>
      <trkpt lat="49.51549" lon="-1.86246">
        <ele>78.3</ele>
        <time>2020-06-14T17:25:54Z</time>
      </trkpt>
      <trkpt lat="49.51551" lon="-1.86252">
        <ele>78.4</ele>
        <time>2020-06-14T17:25:55Z</time>
      </trkpt>
      <trkpt lat="49.51553" lon="-1.86257">
        <ele>78.4</ele>
        <time>2020-06-14T17:25:56Z</time>
      </trkpt>
      <trkpt lat="49.51556" lon="-1.86262">
        <ele>78.4</ele>
        <time>2020-06-14T17:25:57Z</time>
      </trkpt>
      <trkpt lat="49.51557" lon="-1.86267">
        <ele>78.5</ele>
        <time>2020-06-14T17:25:58Z</time>
      </trkpt>
      <trkpt lat="49.51559" lon="-1.86272">
        <ele>78.5</ele>
        <time>2020-06-14T17:25:59Z</time>
      </trkpt>
      <trkpt lat="49.51562" lon="-1.86278">
        <ele>78.6</ele>
        <time>2020-06-14T17:26:00Z</time>
      </trkpt>
      <trkpt lat="49.51565" lon="-1.86283">
        <ele>78.6</ele>
        <time>2020-06-14T17:26:01Z</time>
      </trkpt>
      <trkpt lat="49.51568" lon="-1.86289">
        <ele>78.7</ele>
        <time>2020-06-14T17:26:02Z</time>
      </trkpt>
      <trkpt lat="49.51571" lon="-1.86295">
        <ele>78.7</ele>
        <time>2020-06-14T17:26:03Z</time>
      </trkpt>
      <trkpt lat="49.51575" lon="-1.86299">
        <ele>78.8</ele>
        <time>2020-06-14T17:26:04Z</time>
      </trkpt>
      <trkpt lat="49.51578" lon="-1.86305">
        <ele>78.9</ele>
        <time>2020-06-14T17:26:05Z</time>
      </trkpt>
      <trkpt lat="49.51582" lon="-1.86311">
        <ele>79</ele>
        <time>2020-06-14T17:26:06Z</time>
      </trkpt>
      <trkpt lat="49.51586" lon="-1.86316">
        <ele>79.1</ele>
        <time>2020-06-14T17:26:07Z</time>
      </trkpt>
      <trkpt lat="49.51589" lon="-1.86321">
        <ele>79.2</ele>
        <time>2020-06-14T17:26:08Z</time>
      </trkpt>
      <trkpt lat="49.51594" lon="-1.86326">
        <ele>79.3</ele>
        <time>2020-06-14T17:26:09Z</time>
      </trkpt>
      <trkpt lat="49.51598" lon="-1.86331">
        <ele>79.5</ele>
        <time>2020-06-14T17:26:10Z</time>
      </trkpt>
      <trkpt lat="49.51602" lon="-1.86336">
        <ele>79.5</ele>
        <time>2020-06-14T17:26:11Z</time>
      </trkpt>
      <trkpt lat="49.51605" lon="-1.86342">
        <ele>79.6</ele>
        <time>2020-06-14T17:26:12Z</time>
      </trkpt>
      <trkpt lat="49.51608" lon="-1.86347">
        <ele>79.7</ele>
        <time>2020-06-14T17:26:13Z</time>
      </trkpt>
      <trkpt lat="49.51612" lon="-1.86352">
        <ele>79.7</ele>
        <time>2020-06-14T17:26:14Z</time>
      </trkpt>
      <trkpt lat="49.51615" lon="-1.86357">
        <ele>79.8</ele>
        <time>2020-06-14T17:26:15Z</time>
      </trkpt>
      <trkpt lat="49.51619" lon="-1.86363">
        <ele>79.9</ele>
        <time>2020-06-14T17:26:16Z</time>
      </trkpt>
      <trkpt lat="49.51623" lon="-1.86369">
        <ele>80.1</ele>
        <time>2020-06-14T17:26:17Z</time>
      </trkpt>
      <trkpt lat="49.51627" lon="-1.86376">
        <ele>80.2</ele>
        <time>2020-06-14T17:26:18Z</time>
      </trkpt>
      <trkpt lat="49.5163" lon="-1.86382">
        <ele>80.4</ele>
        <time>2020-06-14T17:26:19Z</time>
      </trkpt>
      <trkpt lat="49.51634" lon="-1.86387">
        <ele>80.5</ele>
        <time>2020-06-14T17:26:20Z</time>
      </trkpt>
      <trkpt lat="49.51638" lon="-1.86392">
        <ele>80.7</ele>
        <time>2020-06-14T17:26:21Z</time>
      </trkpt>
      <trkpt lat="49.51642" lon="-1.86397">
        <ele>80.9</ele>
        <time>2020-06-14T17:26:22Z</time>
      </trkpt>
      <trkpt lat="49.51646" lon="-1.86401">
        <ele>81.1</ele>
        <time>2020-06-14T17:26:23Z</time>
      </trkpt>
      <trkpt lat="49.51649" lon="-1.86406">
        <ele>81.2</ele>
        <time>2020-06-14T17:26:24Z</time>
      </trkpt>
      <trkpt lat="49.51652" lon="-1.86411">
        <ele>81.4</ele>
        <time>2020-06-14T17:26:25Z</time>
      </trkpt>
      <trkpt lat="49.51655" lon="-1.86415">
        <ele>81.6</ele>
        <time>2020-06-14T17:26:26Z</time>
      </trkpt>
      <trkpt lat="49.51658" lon="-1.86418">
        <ele>81.7</ele>
        <time>2020-06-14T17:26:27Z</time>
      </trkpt>
      <trkpt lat="49.51661" lon="-1.86421">
        <ele>81.8</ele>
        <time>2020-06-14T17:26:28Z</time>
      </trkpt>
      <trkpt lat="49.51665" lon="-1.86422">
        <ele>82</ele>
        <time>2020-06-14T17:26:29Z</time>
      </trkpt>
      <trkpt lat="49.51669" lon="-1.86421">
        <ele>81.9</ele>
        <time>2020-06-14T17:26:30Z</time>
      </trkpt>
      <trkpt lat="49.51673" lon="-1.86418">
        <ele>81.9</ele>
        <time>2020-06-14T17:26:31Z</time>
      </trkpt>
      <trkpt lat="49.51675" lon="-1.86415">
        <ele>81.9</ele>
        <time>2020-06-14T17:26:32Z</time>
      </trkpt>
      <trkpt lat="49.51678" lon="-1.8641">
        <ele>81.9</ele>
        <time>2020-06-14T17:26:33Z</time>
      </trkpt>
      <trkpt lat="49.5168" lon="-1.86405">
        <ele>81.8</ele>
        <time>2020-06-14T17:26:34Z</time>
      </trkpt>
      <trkpt lat="49.51683" lon="-1.86398">
        <ele>81.8</ele>
        <time>2020-06-14T17:26:35Z</time>
      </trkpt>
      <trkpt lat="49.51686" lon="-1.86391">
        <ele>81.7</ele>
        <time>2020-06-14T17:26:36Z</time>
      </trkpt>
      <trkpt lat="49.51688" lon="-1.86384">
        <ele>81.7</ele>
        <time>2020-06-14T17:26:37Z</time>
      </trkpt>
      <trkpt lat="49.5169" lon="-1.86377">
        <ele>81.6</ele>
        <time>2020-06-14T17:26:38Z</time>
      </trkpt>
      <trkpt lat="49.51693" lon="-1.86371">
        <ele>81.5</ele>
        <time>2020-06-14T17:26:39Z</time>
      </trkpt>
      <trkpt lat="49.51696" lon="-1.86364">
        <ele>81.5</ele>
        <time>2020-06-14T17:26:40Z</time>
      </trkpt>
      <trkpt lat="49.517" lon="-1.86358">
        <ele>81.4</ele>
        <time>2020-06-14T17:26:41Z</time>
      </trkpt>
      <trkpt lat="49.51703" lon="-1.86351">
        <ele>81.4</ele>
        <time>2020-06-14T17:26:42Z</time>
      </trkpt>
      <trkpt lat="49.51705" lon="-1.86344">
        <ele>81.3</ele>
        <time>2020-06-14T17:26:43Z</time>
      </trkpt>
      <trkpt lat="49.51708" lon="-1.86338">
        <ele>81.3</ele>
        <time>2020-06-14T17:26:44Z</time>
      </trkpt>
      <trkpt lat="49.51711" lon="-1.86332">
        <ele>81.3</ele>
        <time>2020-06-14T17:26:45Z</time>
      </trkpt>
      <trkpt lat="49.51714" lon="-1.86326">
        <ele>81.3</ele>
        <time>2020-06-14T17:26:46Z</time>
      </trkpt>
      <trkpt lat="49.51716" lon="-1.8632">
        <ele>81.4</ele>
        <time>2020-06-14T17:26:47Z</time>
      </trkpt>
      <trkpt lat="49.51718" lon="-1.86315">
        <ele>81.4</ele>
        <time>2020-06-14T17:26:48Z</time>
      </trkpt>
      <trkpt lat="49.5172" lon="-1.86311">
        <ele>81.4</ele>
        <time>2020-06-14T17:26:49Z</time>
      </trkpt>
      <trkpt lat="49.51721" lon="-1.8631">
        <ele>81.4</ele>
        <time>2020-06-14T17:26:50Z</time>
      </trkpt>
      <trkpt lat="49.5172" lon="-1.86309">
        <ele>81.4</ele>
        <time>2020-06-14T17:26:51Z</time>
      </trkpt>
      <trkpt lat="49.51721" lon="-1.86309">
        <ele>81.4</ele>
        <time>2020-06-14T17:26:52Z</time>
      </trkpt>
      <trkpt lat="49.51721" lon="-1.86309">
        <ele>81.4</ele>
        <time>2020-06-14T17:26:53Z</time>
      </trkpt>
      <trkpt lat="49.51722" lon="-1.8631">
        <ele>81.4</ele>
        <time>2020-06-14T17:26:54Z</time>
      </trkpt>
      <trkpt lat="49.51722" lon="-1.8631">
        <ele>81.4</ele>
        <time>2020-06-14T17:26:55Z</time>
      </trkpt>
      <trkpt lat="49.51723" lon="-1.8631">
        <ele>81.4</ele>
        <time>2020-06-14T17:26:56Z</time>
      </trkpt>
      <trkpt lat="49.51723" lon="-1.86311">
        <ele>81.4</ele>
        <time>2020-06-14T17:26:57Z</time>
      </trkpt>
      <trkpt lat="49.51724" lon="-1.86311">
        <ele>81.4</ele>
        <time>2020-06-14T17:26:58Z</time>
      </trkpt>
      <trkpt lat="49.51724" lon="-1.86311">
        <ele>81.4</ele>
        <time>2020-06-14T17:26:59Z</time>
      </trkpt>
      <trkpt lat="49.51725" lon="-1.86312">
        <ele>81.4</ele>
        <time>2020-06-14T17:27:00Z</time>
      </trkpt>
      <trkpt lat="49.51728" lon="-1.86314">
        <ele>81.4</ele>
        <time>2020-06-14T17:27:01Z</time>
      </trkpt>
      <trkpt lat="49.5173" lon="-1.86318">
        <ele>81.5</ele>
        <time>2020-06-14T17:27:02Z</time>
      </trkpt>
      <trkpt lat="49.51733" lon="-1.86323">
        <ele>81.5</ele>
        <time>2020-06-14T17:27:03Z</time>
      </trkpt>
      <trkpt lat="49.51736" lon="-1.86327">
        <ele>81.6</ele>
        <time>2020-06-14T17:27:04Z</time>
      </trkpt>
      <trkpt lat="49.51739" lon="-1.86331">
        <ele>81.6</ele>
        <time>2020-06-14T17:27:05Z</time>
      </trkpt>
      <trkpt lat="49.51742" lon="-1.86335">
        <ele>81.7</ele>
        <time>2020-06-14T17:27:06Z</time>
      </trkpt>
      <trkpt lat="49.51745" lon="-1.8634">
        <ele>81.7</ele>
        <time>2020-06-14T17:27:07Z</time>
      </trkpt>
      <trkpt lat="49.51748" lon="-1.86343">
        <ele>81.8</ele>
        <time>2020-06-14T17:27:08Z</time>
      </trkpt>
      <trkpt lat="49.51751" lon="-1.86348">
        <ele>81.8</ele>
        <time>2020-06-14T17:27:09Z</time>
      </trkpt>
      <trkpt lat="49.51754" lon="-1.86351">
        <ele>81.9</ele>
        <time>2020-06-14T17:27:10Z</time>
      </trkpt>
      <trkpt lat="49.51757" lon="-1.86354">
        <ele>81.9</ele>
        <time>2020-06-14T17:27:11Z</time>
      </trkpt>
      <trkpt lat="49.5176" lon="-1.86357">
        <ele>81.9</ele>
        <time>2020-06-14T17:27:12Z</time>
      </trkpt>
      <trkpt lat="49.51764" lon="-1.8636">
        <ele>82</ele>
        <time>2020-06-14T17:27:13Z</time>
      </trkpt>
      <trkpt lat="49.51767" lon="-1.86364">
        <ele>82.1</ele>
        <time>2020-06-14T17:27:14Z</time>
      </trkpt>
      <trkpt lat="49.51771" lon="-1.86369">
        <ele>82.2</ele>
        <time>2020-06-14T17:27:15Z</time>
      </trkpt>
      <trkpt lat="49.51774" lon="-1.86373">
        <ele>82.2</ele>
        <time>2020-06-14T17:27:16Z</time>
      </trkpt>
      <trkpt lat="49.51778" lon="-1.86376">
        <ele>82.3</ele>
        <time>2020-06-14T17:27:17Z</time>
      </trkpt>
      <trkpt lat="49.51781" lon="-1.86381">
        <ele>82.4</ele>
        <time>2020-06-14T17:27:18Z</time>
      </trkpt>
      <trkpt lat="49.51784" lon="-1.86387">
        <ele>82.5</ele>
        <time>2020-06-14T17:27:19Z</time>
      </trkpt>
      <trkpt lat="49.51788" lon="-1.86393">
        <ele>82.6</ele>
        <time>2020-06-14T17:27:20Z</time>
      </trkpt>
      <trkpt lat="49.51791" lon="-1.86398">
        <ele>82.7</ele>
        <time>2020-06-14T17:27:21Z</time>
      </trkpt>
      <trkpt lat="49.51795" lon="-1.86402">
        <ele>82.8</ele>
        <time>2020-06-14T17:27:22Z</time>
      </trkpt>
      <trkpt lat="49.51798" lon="-1.86405">
        <ele>82.9</ele>
        <time>2020-06-14T17:27:23Z</time>
      </trkpt>
      <trkpt lat="49.518" lon="-1.8641">
        <ele>82.9</ele>
        <time>2020-06-14T17:27:24Z</time>
      </trkpt>
      <trkpt lat="49.51803" lon="-1.86415">
        <ele>83</ele>
        <time>2020-06-14T17:27:25Z</time>
      </trkpt>
      <trkpt lat="49.51806" lon="-1.8642">
        <ele>83.1</ele>
        <time>2020-06-14T17:27:26Z</time>
      </trkpt>
      <trkpt lat="49.5181" lon="-1.86425">
        <ele>83.1</ele>
        <time>2020-06-14T17:27:27Z</time>
      </trkpt>
      <trkpt lat="49.51813" lon="-1.8643">
        <ele>83.2</ele>
        <time>2020-06-14T17:27:28Z</time>
      </trkpt>
      <trkpt lat="49.51816" lon="-1.86434">
        <ele>83.2</ele>
        <time>2020-06-14T17:27:29Z</time>
      </trkpt>
      <trkpt lat="49.51819" lon="-1.8644">
        <ele>83.3</ele>
        <time>2020-06-14T17:27:30Z</time>
      </trkpt>
      <trkpt lat="49.51822" lon="-1.86446">
        <ele>83.3</ele>
        <time>2020-06-14T17:27:31Z</time>
      </trkpt>
      <trkpt lat="49.51825" lon="-1.86452">
        <ele>83.3</ele>
        <time>2020-06-14T17:27:32Z</time>
      </trkpt>
      <trkpt lat="49.51829" lon="-1.86458">
        <ele>83.3</ele>
        <time>2020-06-14T17:27:33Z</time>
      </trkpt>
      <trkpt lat="49.51832" lon="-1.86464">
        <ele>83.3</ele>
        <time>2020-06-14T17:27:34Z</time>
      </trkpt>
      <trkpt lat="49.51836" lon="-1.8647">
        <ele>83.3</ele>
        <time>2020-06-14T17:27:35Z</time>
      </trkpt>
      <trkpt lat="49.51839" lon="-1.86476">
        <ele>83.3</ele>
        <time>2020-06-14T17:27:36Z</time>
      </trkpt>
      <trkpt lat="49.51843" lon="-1.86482">
        <ele>83.3</ele>
        <time>2020-06-14T17:27:37Z</time>
      </trkpt>
      <trkpt lat="49.51845" lon="-1.86487">
        <ele>83.3</ele>
        <time>2020-06-14T17:27:38Z</time>
      </trkpt>
      <trkpt lat="49.51849" lon="-1.86493">
        <ele>83.3</ele>
        <time>2020-06-14T17:27:39Z</time>
      </trkpt>
      <trkpt lat="49.51852" lon="-1.86497">
        <ele>83.3</ele>
        <time>2020-06-14T17:27:40Z</time>
      </trkpt>
      <trkpt lat="49.51855" lon="-1.86503">
        <ele>83.2</ele>
        <time>2020-06-14T17:27:41Z</time>
      </trkpt>
      <trkpt lat="49.51859" lon="-1.86508">
        <ele>83.2</ele>
        <time>2020-06-14T17:27:42Z</time>
      </trkpt>
      <trkpt lat="49.51863" lon="-1.86513">
        <ele>83.1</ele>
        <time>2020-06-14T17:27:43Z</time>
      </trkpt>
      <trkpt lat="49.51867" lon="-1.86518">
        <ele>83</ele>
        <time>2020-06-14T17:27:44Z</time>
      </trkpt>
      <trkpt lat="49.5187" lon="-1.86522">
        <ele>82.9</ele>
        <time>2020-06-14T17:27:45Z</time>
      </trkpt>
      <trkpt lat="49.51872" lon="-1.86527">
        <ele>82.8</ele>
        <time>2020-06-14T17:27:46Z</time>
      </trkpt>
      <trkpt lat="49.51876" lon="-1.86532">
        <ele>82.6</ele>
        <time>2020-06-14T17:27:47Z</time>
      </trkpt>
      <trkpt lat="49.51879" lon="-1.86536">
        <ele>82.5</ele>
        <time>2020-06-14T17:27:48Z</time>
      </trkpt>
      <trkpt lat="49.51882" lon="-1.86539">
        <ele>82.4</ele>
        <time>2020-06-14T17:27:49Z</time>
      </trkpt>
      <trkpt lat="49.51885" lon="-1.86545">
        <ele>82.2</ele>
        <time>2020-06-14T17:27:50Z</time>
      </trkpt>
      <trkpt lat="49.51889" lon="-1.8655">
        <ele>82</ele>
        <time>2020-06-14T17:27:51Z</time>
      </trkpt>
      <trkpt lat="49.51892" lon="-1.86555">
        <ele>81.8</ele>
        <time>2020-06-14T17:27:52Z</time>
      </trkpt>
      <trkpt lat="49.51896" lon="-1.86561">
        <ele>81.5</ele>
        <time>2020-06-14T17:27:53Z</time>
      </trkpt>
      <trkpt lat="49.51899" lon="-1.86567">
        <ele>81.3</ele>
        <time>2020-06-14T17:27:54Z</time>
      </trkpt>
      <trkpt lat="49.51903" lon="-1.86575">
        <ele>80.9</ele>
        <time>2020-06-14T17:27:55Z</time>
      </trkpt>
      <trkpt lat="49.51909" lon="-1.86582">
        <ele>80.5</ele>
        <time>2020-06-14T17:27:56Z</time>
      </trkpt>
      <trkpt lat="49.51912" lon="-1.86591">
        <ele>80.1</ele>
        <time>2020-06-14T17:27:57Z</time>
      </trkpt>
      <trkpt lat="49.51915" lon="-1.86601">
        <ele>79.6</ele>
        <time>2020-06-14T17:27:58Z</time>
      </trkpt>
      <trkpt lat="49.51918" lon="-1.86612">
        <ele>79.1</ele>
        <time>2020-06-14T17:27:59Z</time>
      </trkpt>
      <trkpt lat="49.51922" lon="-1.86623">
        <ele>78.7</ele>
        <time>2020-06-14T17:28:00Z</time>
      </trkpt>
      <trkpt lat="49.51926" lon="-1.86635">
        <ele>78.2</ele>
        <time>2020-06-14T17:28:01Z</time>
      </trkpt>
      <trkpt lat="49.51931" lon="-1.86645">
        <ele>77.9</ele>
        <time>2020-06-14T17:28:02Z</time>
      </trkpt>
      <trkpt lat="49.51937" lon="-1.86655">
        <ele>78.1</ele>
        <time>2020-06-14T17:28:03Z</time>
      </trkpt>
      <trkpt lat="49.51943" lon="-1.86663">
        <ele>77.7</ele>
        <time>2020-06-14T17:28:04Z</time>
      </trkpt>
      <trkpt lat="49.51949" lon="-1.86669">
        <ele>77.4</ele>
        <time>2020-06-14T17:28:05Z</time>
      </trkpt>
      <trkpt lat="49.51958" lon="-1.86674">
        <ele>77</ele>
        <time>2020-06-14T17:28:06Z</time>
      </trkpt>
      <trkpt lat="49.51965" lon="-1.86677">
        <ele>76.7</ele>
        <time>2020-06-14T17:28:07Z</time>
      </trkpt>
      <trkpt lat="49.51973" lon="-1.8668">
        <ele>76.4</ele>
        <time>2020-06-14T17:28:08Z</time>
      </trkpt>
      <trkpt lat="49.5198" lon="-1.86684">
        <ele>76.1</ele>
        <time>2020-06-14T17:28:09Z</time>
      </trkpt>
      <trkpt lat="49.51986" lon="-1.86687">
        <ele>76.1</ele>
        <time>2020-06-14T17:28:10Z</time>
      </trkpt>
      <trkpt lat="49.51992" lon="-1.86691">
        <ele>76.1</ele>
        <time>2020-06-14T17:28:11Z</time>
      </trkpt>
      <trkpt lat="49.51998" lon="-1.86693">
        <ele>76.1</ele>
        <time>2020-06-14T17:28:12Z</time>
      </trkpt>
      <trkpt lat="49.52005" lon="-1.86696">
        <ele>76.1</ele>
        <time>2020-06-14T17:28:13Z</time>
      </trkpt>
      <trkpt lat="49.52011" lon="-1.867">
        <ele>76.1</ele>
        <time>2020-06-14T17:28:14Z</time>
      </trkpt>
      <trkpt lat="49.52018" lon="-1.86703">
        <ele>76.2</ele>
        <time>2020-06-14T17:28:15Z</time>
      </trkpt>
      <trkpt lat="49.52024" lon="-1.86705">
        <ele>76.2</ele>
        <time>2020-06-14T17:28:16Z</time>
      </trkpt>
      <trkpt lat="49.52031" lon="-1.86706">
        <ele>76.2</ele>
        <time>2020-06-14T17:28:17Z</time>
      </trkpt>
      <trkpt lat="49.52037" lon="-1.86708">
        <ele>76.2</ele>
        <time>2020-06-14T17:28:18Z</time>
      </trkpt>
      <trkpt lat="49.52043" lon="-1.8671">
        <ele>76.2</ele>
        <time>2020-06-14T17:28:19Z</time>
      </trkpt>
      <trkpt lat="49.52049" lon="-1.8671">
        <ele>76.3</ele>
        <time>2020-06-14T17:28:20Z</time>
      </trkpt>
      <trkpt lat="49.52055" lon="-1.86712">
        <ele>76.4</ele>
        <time>2020-06-14T17:28:21Z</time>
      </trkpt>
      <trkpt lat="49.5206" lon="-1.86713">
        <ele>76.4</ele>
        <time>2020-06-14T17:28:22Z</time>
      </trkpt>
      <trkpt lat="49.52066" lon="-1.86715">
        <ele>76.5</ele>
        <time>2020-06-14T17:28:23Z</time>
      </trkpt>
      <trkpt lat="49.52072" lon="-1.86717">
        <ele>76.7</ele>
        <time>2020-06-14T17:28:24Z</time>
      </trkpt>
      <trkpt lat="49.52077" lon="-1.86719">
        <ele>76.8</ele>
        <time>2020-06-14T17:28:25Z</time>
      </trkpt>
      <trkpt lat="49.52082" lon="-1.86722">
        <ele>76.9</ele>
        <time>2020-06-14T17:28:26Z</time>
      </trkpt>
      <trkpt lat="49.52087" lon="-1.86726">
        <ele>77</ele>
        <time>2020-06-14T17:28:27Z</time>
      </trkpt>
      <trkpt lat="49.52092" lon="-1.86729">
        <ele>77.1</ele>
        <time>2020-06-14T17:28:28Z</time>
      </trkpt>
      <trkpt lat="49.52096" lon="-1.86734">
        <ele>77.2</ele>
        <time>2020-06-14T17:28:29Z</time>
      </trkpt>
      <trkpt lat="49.52101" lon="-1.86738">
        <ele>77.3</ele>
        <time>2020-06-14T17:28:30Z</time>
      </trkpt>
      <trkpt lat="49.52105" lon="-1.86743">
        <ele>77.3</ele>
        <time>2020-06-14T17:28:31Z</time>
      </trkpt>
      <trkpt lat="49.52109" lon="-1.86748">
        <ele>77.4</ele>
        <time>2020-06-14T17:28:32Z</time>
      </trkpt>
      <trkpt lat="49.52113" lon="-1.86752">
        <ele>77.5</ele>
        <time>2020-06-14T17:28:33Z</time>
      </trkpt>
      <trkpt lat="49.52117" lon="-1.86756">
        <ele>77.6</ele>
        <time>2020-06-14T17:28:34Z</time>
      </trkpt>
      <trkpt lat="49.52122" lon="-1.86761">
        <ele>77.8</ele>
        <time>2020-06-14T17:28:35Z</time>
      </trkpt>
      <trkpt lat="49.52126" lon="-1.86765">
        <ele>77.9</ele>
        <time>2020-06-14T17:28:36Z</time>
      </trkpt>
      <trkpt lat="49.52131" lon="-1.86769">
        <ele>78</ele>
        <time>2020-06-14T17:28:37Z</time>
      </trkpt>
      <trkpt lat="49.52135" lon="-1.86773">
        <ele>78.2</ele>
        <time>2020-06-14T17:28:38Z</time>
      </trkpt>
      <trkpt lat="49.52139" lon="-1.86777">
        <ele>78.3</ele>
        <time>2020-06-14T17:28:39Z</time>
      </trkpt>
      <trkpt lat="49.52144" lon="-1.86782">
        <ele>78.4</ele>
        <time>2020-06-14T17:28:40Z</time>
      </trkpt>
      <trkpt lat="49.52148" lon="-1.86787">
        <ele>78.5</ele>
        <time>2020-06-14T17:28:41Z</time>
      </trkpt>
      <trkpt lat="49.52153" lon="-1.86791">
        <ele>78.7</ele>
        <time>2020-06-14T17:28:42Z</time>
      </trkpt>
      <trkpt lat="49.52157" lon="-1.86795">
        <ele>78.8</ele>
        <time>2020-06-14T17:28:43Z</time>
      </trkpt>
      <trkpt lat="49.52161" lon="-1.868">
        <ele>79</ele>
        <time>2020-06-14T17:28:44Z</time>
      </trkpt>
      <trkpt lat="49.52165" lon="-1.86805">
        <ele>79.2</ele>
        <time>2020-06-14T17:28:45Z</time>
      </trkpt>
      <trkpt lat="49.52169" lon="-1.86809">
        <ele>79.4</ele>
        <time>2020-06-14T17:28:46Z</time>
      </trkpt>
      <trkpt lat="49.52172" lon="-1.86814">
        <ele>79.5</ele>
        <time>2020-06-14T17:28:47Z</time>
      </trkpt>
      <trkpt lat="49.52175" lon="-1.86819">
        <ele>79.7</ele>
        <time>2020-06-14T17:28:48Z</time>
      </trkpt>
      <trkpt lat="49.52179" lon="-1.86824">
        <ele>79.9</ele>
        <time>2020-06-14T17:28:49Z</time>
      </trkpt>
      <trkpt lat="49.52183" lon="-1.86828">
        <ele>80.1</ele>
        <time>2020-06-14T17:28:50Z</time>
      </trkpt>
      <trkpt lat="49.52186" lon="-1.86834">
        <ele>80.3</ele>
        <time>2020-06-14T17:28:51Z</time>
      </trkpt>
      <trkpt lat="49.52189" lon="-1.8684">
        <ele>80.4</ele>
        <time>2020-06-14T17:28:52Z</time>
      </trkpt>
      <trkpt lat="49.52192" lon="-1.86844">
        <ele>80.6</ele>
        <time>2020-06-14T17:28:53Z</time>
      </trkpt>
      <trkpt lat="49.52196" lon="-1.86847">
        <ele>80.7</ele>
        <time>2020-06-14T17:28:54Z</time>
      </trkpt>
      <trkpt lat="49.52201" lon="-1.86848">
        <ele>80.8</ele>
        <time>2020-06-14T17:28:55Z</time>
      </trkpt>
      <trkpt lat="49.52206" lon="-1.86848">
        <ele>81</ele>
        <time>2020-06-14T17:28:56Z</time>
      </trkpt>
      <trkpt lat="49.5221" lon="-1.86847">
        <ele>81.1</ele>
        <time>2020-06-14T17:28:57Z</time>
      </trkpt>
      <trkpt lat="49.52214" lon="-1.86847">
        <ele>81.2</ele>
        <time>2020-06-14T17:28:58Z</time>
      </trkpt>
      <trkpt lat="49.52219" lon="-1.86847">
        <ele>81.2</ele>
        <time>2020-06-14T17:28:59Z</time>
      </trkpt>
      <trkpt lat="49.52223" lon="-1.86849">
        <ele>81.3</ele>
        <time>2020-06-14T17:29:00Z</time>
      </trkpt>
      <trkpt lat="49.52228" lon="-1.86851">
        <ele>81.3</ele>
        <time>2020-06-14T17:29:01Z</time>
      </trkpt>
      <trkpt lat="49.52232" lon="-1.86855">
        <ele>81.2</ele>
        <time>2020-06-14T17:29:02Z</time>
      </trkpt>
      <trkpt lat="49.52235" lon="-1.86859">
        <ele>81</ele>
        <time>2020-06-14T17:29:03Z</time>
      </trkpt>
      <trkpt lat="49.52238" lon="-1.86861">
        <ele>80.9</ele>
        <time>2020-06-14T17:29:04Z</time>
      </trkpt>
      <trkpt lat="49.52242" lon="-1.86861">
        <ele>80.8</ele>
        <time>2020-06-14T17:29:05Z</time>
      </trkpt>
      <trkpt lat="49.52246" lon="-1.86859">
        <ele>80.6</ele>
        <time>2020-06-14T17:29:06Z</time>
      </trkpt>
      <trkpt lat="49.52249" lon="-1.86854">
        <ele>80.4</ele>
        <time>2020-06-14T17:29:07Z</time>
      </trkpt>
      <trkpt lat="49.52253" lon="-1.86848">
        <ele>80.2</ele>
        <time>2020-06-14T17:29:08Z</time>
      </trkpt>
      <trkpt lat="49.52256" lon="-1.86843">
        <ele>79.9</ele>
        <time>2020-06-14T17:29:09Z</time>
      </trkpt>
      <trkpt lat="49.5226" lon="-1.86839">
        <ele>79.7</ele>
        <time>2020-06-14T17:29:10Z</time>
      </trkpt>
      <trkpt lat="49.52263" lon="-1.86834">
        <ele>79.4</ele>
        <time>2020-06-14T17:29:11Z</time>
      </trkpt>
      <trkpt lat="49.52267" lon="-1.86829">
        <ele>79.1</ele>
        <time>2020-06-14T17:29:12Z</time>
      </trkpt>
      <trkpt lat="49.52271" lon="-1.86824">
        <ele>78.8</ele>
        <time>2020-06-14T17:29:13Z</time>
      </trkpt>
      <trkpt lat="49.52274" lon="-1.86819">
        <ele>78.6</ele>
        <time>2020-06-14T17:29:14Z</time>
      </trkpt>
      <trkpt lat="49.52278" lon="-1.86814">
        <ele>78.3</ele>
        <time>2020-06-14T17:29:15Z</time>
      </trkpt>
      <trkpt lat="49.52282" lon="-1.86809">
        <ele>78</ele>
        <time>2020-06-14T17:29:16Z</time>
      </trkpt>
      <trkpt lat="49.52289" lon="-1.86804">
        <ele>77.5</ele>
        <time>2020-06-14T17:29:17Z</time>
      </trkpt>
      <trkpt lat="49.52295" lon="-1.86801">
        <ele>77.1</ele>
        <time>2020-06-14T17:29:18Z</time>
      </trkpt>
      <trkpt lat="49.52303" lon="-1.86799">
        <ele>76.5</ele>
        <time>2020-06-14T17:29:19Z</time>
      </trkpt>
      <trkpt lat="49.52312" lon="-1.86797">
        <ele>75.9</ele>
        <time>2020-06-14T17:29:20Z</time>
      </trkpt>
      <trkpt lat="49.5232" lon="-1.86796">
        <ele>75.3</ele>
        <time>2020-06-14T17:29:21Z</time>
      </trkpt>
      <trkpt lat="49.52327" lon="-1.86794">
        <ele>74.7</ele>
        <time>2020-06-14T17:29:22Z</time>
      </trkpt>
      <trkpt lat="49.52335" lon="-1.86793">
        <ele>74.1</ele>
        <time>2020-06-14T17:29:23Z</time>
      </trkpt>
      <trkpt lat="49.52344" lon="-1.86793">
        <ele>73.4</ele>
        <time>2020-06-14T17:29:24Z</time>
      </trkpt>
      <trkpt lat="49.52353" lon="-1.86791">
        <ele>72.8</ele>
        <time>2020-06-14T17:29:25Z</time>
      </trkpt>
      <trkpt lat="49.52362" lon="-1.86789">
        <ele>72.1</ele>
        <time>2020-06-14T17:29:26Z</time>
      </trkpt>
      <trkpt lat="49.52371" lon="-1.86788">
        <ele>71.5</ele>
        <time>2020-06-14T17:29:27Z</time>
      </trkpt>
      <trkpt lat="49.5238" lon="-1.86787">
        <ele>70.9</ele>
        <time>2020-06-14T17:29:28Z</time>
      </trkpt>
      <trkpt lat="49.52389" lon="-1.86785">
        <ele>70.2</ele>
        <time>2020-06-14T17:29:29Z</time>
      </trkpt>
      <trkpt lat="49.52398" lon="-1.86785">
        <ele>69.7</ele>
        <time>2020-06-14T17:29:30Z</time>
      </trkpt>
      <trkpt lat="49.52408" lon="-1.86786">
        <ele>69.1</ele>
        <time>2020-06-14T17:29:31Z</time>
      </trkpt>
      <trkpt lat="49.52417" lon="-1.86788">
        <ele>68.6</ele>
        <time>2020-06-14T17:29:32Z</time>
      </trkpt>
      <trkpt lat="49.52426" lon="-1.86791">
        <ele>68.1</ele>
        <time>2020-06-14T17:29:33Z</time>
      </trkpt>
      <trkpt lat="49.52436" lon="-1.86793">
        <ele>67.7</ele>
        <time>2020-06-14T17:29:34Z</time>
      </trkpt>
      <trkpt lat="49.52445" lon="-1.86794">
        <ele>67.4</ele>
        <time>2020-06-14T17:29:35Z</time>
      </trkpt>
      <trkpt lat="49.52455" lon="-1.86793">
        <ele>67.2</ele>
        <time>2020-06-14T17:29:36Z</time>
      </trkpt>
      <trkpt lat="49.52464" lon="-1.86791">
        <ele>67</ele>
        <time>2020-06-14T17:29:37Z</time>
      </trkpt>
      <trkpt lat="49.52474" lon="-1.86789">
        <ele>66.9</ele>
        <time>2020-06-14T17:29:38Z</time>
      </trkpt>
      <trkpt lat="49.52483" lon="-1.86786">
        <ele>66.8</ele>
        <time>2020-06-14T17:29:39Z</time>
      </trkpt>
      <trkpt lat="49.52491" lon="-1.86779">
        <ele>66.7</ele>
        <time>2020-06-14T17:29:40Z</time>
      </trkpt>
      <trkpt lat="49.52499" lon="-1.86773">
        <ele>66.8</ele>
        <time>2020-06-14T17:29:41Z</time>
      </trkpt>
      <trkpt lat="49.52507" lon="-1.86767">
        <ele>67.1</ele>
        <time>2020-06-14T17:29:42Z</time>
      </trkpt>
      <trkpt lat="49.52515" lon="-1.86762">
        <ele>67.2</ele>
        <time>2020-06-14T17:29:43Z</time>
      </trkpt>
      <trkpt lat="49.52523" lon="-1.86758">
        <ele>67.2</ele>
        <time>2020-06-14T17:29:44Z</time>
      </trkpt>
      <trkpt lat="49.52531" lon="-1.86756">
        <ele>67.3</ele>
        <time>2020-06-14T17:29:45Z</time>
      </trkpt>
      <trkpt lat="49.52538" lon="-1.86755">
        <ele>67.3</ele>
        <time>2020-06-14T17:29:46Z</time>
      </trkpt>
      <trkpt lat="49.52545" lon="-1.86753">
        <ele>67.4</ele>
        <time>2020-06-14T17:29:47Z</time>
      </trkpt>
      <trkpt lat="49.52553" lon="-1.86753">
        <ele>67.4</ele>
        <time>2020-06-14T17:29:48Z</time>
      </trkpt>
      <trkpt lat="49.5256" lon="-1.86751">
        <ele>67.5</ele>
        <time>2020-06-14T17:29:49Z</time>
      </trkpt>
      <trkpt lat="49.52567" lon="-1.86752">
        <ele>67.5</ele>
        <time>2020-06-14T17:29:50Z</time>
      </trkpt>
      <trkpt lat="49.52574" lon="-1.86752">
        <ele>67.5</ele>
        <time>2020-06-14T17:29:51Z</time>
      </trkpt>
      <trkpt lat="49.52581" lon="-1.8675">
        <ele>67.4</ele>
        <time>2020-06-14T17:29:52Z</time>
      </trkpt>
      <trkpt lat="49.52587" lon="-1.86749">
        <ele>67.4</ele>
        <time>2020-06-14T17:29:53Z</time>
      </trkpt>
      <trkpt lat="49.52594" lon="-1.86749">
        <ele>67.3</ele>
        <time>2020-06-14T17:29:54Z</time>
      </trkpt>
      <trkpt lat="49.52601" lon="-1.86748">
        <ele>67.2</ele>
        <time>2020-06-14T17:29:55Z</time>
      </trkpt>
      <trkpt lat="49.52607" lon="-1.86747">
        <ele>67.1</ele>
        <time>2020-06-14T17:29:56Z</time>
      </trkpt>
      <trkpt lat="49.52614" lon="-1.86745">
        <ele>67</ele>
        <time>2020-06-14T17:29:57Z</time>
      </trkpt>
      <trkpt lat="49.52622" lon="-1.86744">
        <ele>66.8</ele>
        <time>2020-06-14T17:29:58Z</time>
      </trkpt>
      <trkpt lat="49.5263" lon="-1.86743">
        <ele>66.7</ele>
        <time>2020-06-14T17:29:59Z</time>
      </trkpt>
      <trkpt lat="49.52638" lon="-1.86742">
        <ele>66.6</ele>
        <time>2020-06-14T17:30:00Z</time>
      </trkpt>
      <trkpt lat="49.52647" lon="-1.86739">
        <ele>66.4</ele>
        <time>2020-06-14T17:30:01Z</time>
      </trkpt>
      <trkpt lat="49.52655" lon="-1.86737">
        <ele>66.3</ele>
        <time>2020-06-14T17:30:02Z</time>
      </trkpt>
      <trkpt lat="49.52664" lon="-1.86736">
        <ele>66.1</ele>
        <time>2020-06-14T17:30:03Z</time>
      </trkpt>
      <trkpt lat="49.52673" lon="-1.86735">
        <ele>65.9</ele>
        <time>2020-06-14T17:30:04Z</time>
      </trkpt>
      <trkpt lat="49.52681" lon="-1.86734">
        <ele>65.8</ele>
        <time>2020-06-14T17:30:05Z</time>
      </trkpt>
      <trkpt lat="49.52689" lon="-1.86733">
        <ele>65.7</ele>
        <time>2020-06-14T17:30:06Z</time>
      </trkpt>
      <trkpt lat="49.52697" lon="-1.86732">
        <ele>65.6</ele>
        <time>2020-06-14T17:30:07Z</time>
      </trkpt>
      <trkpt lat="49.52704" lon="-1.86731">
        <ele>65.6</ele>
        <time>2020-06-14T17:30:08Z</time>
      </trkpt>
      <trkpt lat="49.52712" lon="-1.86731">
        <ele>65.4</ele>
        <time>2020-06-14T17:30:09Z</time>
      </trkpt>
      <trkpt lat="49.52719" lon="-1.86731">
        <ele>65.3</ele>
        <time>2020-06-14T17:30:10Z</time>
      </trkpt>
      <trkpt lat="49.52727" lon="-1.8673">
        <ele>65.2</ele>
        <time>2020-06-14T17:30:11Z</time>
      </trkpt>
      <trkpt lat="49.52735" lon="-1.86729">
        <ele>65.1</ele>
        <time>2020-06-14T17:30:12Z</time>
      </trkpt>
      <trkpt lat="49.52743" lon="-1.86728">
        <ele>65.1</ele>
        <time>2020-06-14T17:30:13Z</time>
      </trkpt>
      <trkpt lat="49.52751" lon="-1.86726">
        <ele>65.1</ele>
        <time>2020-06-14T17:30:14Z</time>
      </trkpt>
      <trkpt lat="49.52758" lon="-1.86726">
        <ele>65.1</ele>
        <time>2020-06-14T17:30:15Z</time>
      </trkpt>
      <trkpt lat="49.52766" lon="-1.86725">
        <ele>65.2</ele>
        <time>2020-06-14T17:30:16Z</time>
      </trkpt>
      <trkpt lat="49.52773" lon="-1.86722">
        <ele>65.4</ele>
        <time>2020-06-14T17:30:17Z</time>
      </trkpt>
      <trkpt lat="49.52781" lon="-1.86719">
        <ele>65.5</ele>
        <time>2020-06-14T17:30:18Z</time>
      </trkpt>
      <trkpt lat="49.52787" lon="-1.86718">
        <ele>65.6</ele>
        <time>2020-06-14T17:30:19Z</time>
      </trkpt>
      <trkpt lat="49.52793" lon="-1.86716">
        <ele>65.8</ele>
        <time>2020-06-14T17:30:20Z</time>
      </trkpt>
      <trkpt lat="49.528" lon="-1.86716">
        <ele>66</ele>
        <time>2020-06-14T17:30:21Z</time>
      </trkpt>
      <trkpt lat="49.52806" lon="-1.86716">
        <ele>66.2</ele>
        <time>2020-06-14T17:30:22Z</time>
      </trkpt>
      <trkpt lat="49.52811" lon="-1.86715">
        <ele>66.4</ele>
        <time>2020-06-14T17:30:23Z</time>
      </trkpt>
      <trkpt lat="49.52818" lon="-1.86714">
        <ele>66.6</ele>
        <time>2020-06-14T17:30:24Z</time>
      </trkpt>
      <trkpt lat="49.52824" lon="-1.86714">
        <ele>66.9</ele>
        <time>2020-06-14T17:30:25Z</time>
      </trkpt>
      <trkpt lat="49.5283" lon="-1.86713">
        <ele>67.1</ele>
        <time>2020-06-14T17:30:26Z</time>
      </trkpt>
      <trkpt lat="49.52836" lon="-1.86712">
        <ele>67.4</ele>
        <time>2020-06-14T17:30:27Z</time>
      </trkpt>
      <trkpt lat="49.52842" lon="-1.86712">
        <ele>67.6</ele>
        <time>2020-06-14T17:30:28Z</time>
      </trkpt>
      <trkpt lat="49.52849" lon="-1.86707">
        <ele>67.9</ele>
        <time>2020-06-14T17:30:29Z</time>
      </trkpt>
      <trkpt lat="49.52855" lon="-1.86706">
        <ele>68.2</ele>
        <time>2020-06-14T17:30:30Z</time>
      </trkpt>
      <trkpt lat="49.5286" lon="-1.86705">
        <ele>68.4</ele>
        <time>2020-06-14T17:30:31Z</time>
      </trkpt>
      <trkpt lat="49.52866" lon="-1.86705">
        <ele>68.6</ele>
        <time>2020-06-14T17:30:32Z</time>
      </trkpt>
      <trkpt lat="49.52871" lon="-1.86703">
        <ele>68.8</ele>
        <time>2020-06-14T17:30:33Z</time>
      </trkpt>
      <trkpt lat="49.52877" lon="-1.86702">
        <ele>69.1</ele>
        <time>2020-06-14T17:30:34Z</time>
      </trkpt>
      <trkpt lat="49.52883" lon="-1.86701">
        <ele>69.4</ele>
        <time>2020-06-14T17:30:35Z</time>
      </trkpt>
      <trkpt lat="49.5289" lon="-1.867">
        <ele>69.8</ele>
        <time>2020-06-14T17:30:36Z</time>
      </trkpt>
      <trkpt lat="49.52896" lon="-1.86699">
        <ele>70.1</ele>
        <time>2020-06-14T17:30:37Z</time>
      </trkpt>
      <trkpt lat="49.52901" lon="-1.86698">
        <ele>70.4</ele>
        <time>2020-06-14T17:30:38Z</time>
      </trkpt>
      <trkpt lat="49.52908" lon="-1.86697">
        <ele>70.7</ele>
        <time>2020-06-14T17:30:39Z</time>
      </trkpt>
      <trkpt lat="49.52913" lon="-1.86696">
        <ele>71</ele>
        <time>2020-06-14T17:30:40Z</time>
      </trkpt>
      <trkpt lat="49.52918" lon="-1.86695">
        <ele>71.2</ele>
        <time>2020-06-14T17:30:41Z</time>
      </trkpt>
      <trkpt lat="49.52924" lon="-1.86694">
        <ele>71.4</ele>
        <time>2020-06-14T17:30:42Z</time>
      </trkpt>
      <trkpt lat="49.52929" lon="-1.86693">
        <ele>71.6</ele>
        <time>2020-06-14T17:30:43Z</time>
      </trkpt>
      <trkpt lat="49.52935" lon="-1.86693">
        <ele>71.8</ele>
        <time>2020-06-14T17:30:44Z</time>
      </trkpt>
      <trkpt lat="49.5294" lon="-1.86692">
        <ele>72</ele>
        <time>2020-06-14T17:30:45Z</time>
      </trkpt>
      <trkpt lat="49.52945" lon="-1.8669">
        <ele>72.2</ele>
        <time>2020-06-14T17:30:46Z</time>
      </trkpt>
      <trkpt lat="49.5295" lon="-1.86686">
        <ele>72.4</ele>
        <time>2020-06-14T17:30:47Z</time>
      </trkpt>
      <trkpt lat="49.52956" lon="-1.86681">
        <ele>72.5</ele>
        <time>2020-06-14T17:30:48Z</time>
      </trkpt>
      <trkpt lat="49.52962" lon="-1.86676">
        <ele>72.7</ele>
        <time>2020-06-14T17:30:49Z</time>
      </trkpt>
      <trkpt lat="49.52968" lon="-1.8667">
        <ele>72.8</ele>
        <time>2020-06-14T17:30:50Z</time>
      </trkpt>
      <trkpt lat="49.52973" lon="-1.86665">
        <ele>72.9</ele>
        <time>2020-06-14T17:30:51Z</time>
      </trkpt>
      <trkpt lat="49.52978" lon="-1.86661">
        <ele>72.9</ele>
        <time>2020-06-14T17:30:52Z</time>
      </trkpt>
      <trkpt lat="49.52982" lon="-1.86657">
        <ele>72.9</ele>
        <time>2020-06-14T17:30:53Z</time>
      </trkpt>
      <trkpt lat="49.52987" lon="-1.86652">
        <ele>73</ele>
        <time>2020-06-14T17:30:54Z</time>
      </trkpt>
      <trkpt lat="49.52991" lon="-1.86649">
        <ele>73</ele>
        <time>2020-06-14T17:30:55Z</time>
      </trkpt>
      <trkpt lat="49.52996" lon="-1.86646">
        <ele>73</ele>
        <time>2020-06-14T17:30:56Z</time>
      </trkpt>
      <trkpt lat="49.53002" lon="-1.86642">
        <ele>73</ele>
        <time>2020-06-14T17:30:57Z</time>
      </trkpt>
      <trkpt lat="49.53007" lon="-1.86637">
        <ele>73.1</ele>
        <time>2020-06-14T17:30:58Z</time>
      </trkpt>
      <trkpt lat="49.53012" lon="-1.86632">
        <ele>73.1</ele>
        <time>2020-06-14T17:30:59Z</time>
      </trkpt>
      <trkpt lat="49.53017" lon="-1.86628">
        <ele>73.1</ele>
        <time>2020-06-14T17:31:00Z</time>
      </trkpt>
      <trkpt lat="49.5302" lon="-1.86626">
        <ele>73.1</ele>
        <time>2020-06-14T17:31:01Z</time>
      </trkpt>
      <trkpt lat="49.53025" lon="-1.86624">
        <ele>73.1</ele>
        <time>2020-06-14T17:31:02Z</time>
      </trkpt>
      <trkpt lat="49.53031" lon="-1.86622">
        <ele>73.1</ele>
        <time>2020-06-14T17:31:03Z</time>
      </trkpt>
      <trkpt lat="49.53037" lon="-1.8662">
        <ele>73.1</ele>
        <time>2020-06-14T17:31:04Z</time>
      </trkpt>
      <trkpt lat="49.53042" lon="-1.8662">
        <ele>73.1</ele>
        <time>2020-06-14T17:31:05Z</time>
      </trkpt>
      <trkpt lat="49.53047" lon="-1.86618">
        <ele>73.1</ele>
        <time>2020-06-14T17:31:06Z</time>
      </trkpt>
      <trkpt lat="49.53053" lon="-1.86616">
        <ele>73.1</ele>
        <time>2020-06-14T17:31:07Z</time>
      </trkpt>
      <trkpt lat="49.53059" lon="-1.86616">
        <ele>73</ele>
        <time>2020-06-14T17:31:08Z</time>
      </trkpt>
      <trkpt lat="49.53065" lon="-1.86615">
        <ele>73</ele>
        <time>2020-06-14T17:31:09Z</time>
      </trkpt>
      <trkpt lat="49.53071" lon="-1.86614">
        <ele>72.9</ele>
        <time>2020-06-14T17:31:10Z</time>
      </trkpt>
      <trkpt lat="49.53078" lon="-1.86614">
        <ele>72.8</ele>
        <time>2020-06-14T17:31:11Z</time>
      </trkpt>
      <trkpt lat="49.53084" lon="-1.86613">
        <ele>72.8</ele>
        <time>2020-06-14T17:31:12Z</time>
      </trkpt>
      <trkpt lat="49.5309" lon="-1.86613">
        <ele>72.7</ele>
        <time>2020-06-14T17:31:13Z</time>
      </trkpt>
      <trkpt lat="49.53096" lon="-1.86613">
        <ele>72.7</ele>
        <time>2020-06-14T17:31:14Z</time>
      </trkpt>
      <trkpt lat="49.53102" lon="-1.86612">
        <ele>72.7</ele>
        <time>2020-06-14T17:31:15Z</time>
      </trkpt>
      <trkpt lat="49.53107" lon="-1.86612">
        <ele>72.8</ele>
        <time>2020-06-14T17:31:16Z</time>
      </trkpt>
      <trkpt lat="49.53113" lon="-1.86611">
        <ele>72.8</ele>
        <time>2020-06-14T17:31:17Z</time>
      </trkpt>
      <trkpt lat="49.53119" lon="-1.8661">
        <ele>72.8</ele>
        <time>2020-06-14T17:31:18Z</time>
      </trkpt>
      <trkpt lat="49.53125" lon="-1.86609">
        <ele>72.9</ele>
        <time>2020-06-14T17:31:19Z</time>
      </trkpt>
      <trkpt lat="49.5313" lon="-1.86608">
        <ele>72.9</ele>
        <time>2020-06-14T17:31:20Z</time>
      </trkpt>
      <trkpt lat="49.53135" lon="-1.86607">
        <ele>73</ele>
        <time>2020-06-14T17:31:21Z</time>
      </trkpt>
      <trkpt lat="49.53141" lon="-1.86606">
        <ele>73</ele>
        <time>2020-06-14T17:31:22Z</time>
      </trkpt>
      <trkpt lat="49.53145" lon="-1.86606">
        <ele>73.1</ele>
        <time>2020-06-14T17:31:23Z</time>
      </trkpt>
      <trkpt lat="49.53149" lon="-1.86606">
        <ele>73.1</ele>
        <time>2020-06-14T17:31:24Z</time>
      </trkpt>
      <trkpt lat="49.53155" lon="-1.86606">
        <ele>73.1</ele>
        <time>2020-06-14T17:31:25Z</time>
      </trkpt>
      <trkpt lat="49.53159" lon="-1.86607">
        <ele>73.2</ele>
        <time>2020-06-14T17:31:26Z</time>
      </trkpt>
      <trkpt lat="49.53166" lon="-1.86607">
        <ele>73.2</ele>
        <time>2020-06-14T17:31:27Z</time>
      </trkpt>
      <trkpt lat="49.53173" lon="-1.86607">
        <ele>73.3</ele>
        <time>2020-06-14T17:31:28Z</time>
      </trkpt>
      <trkpt lat="49.53179" lon="-1.86606">
        <ele>73.3</ele>
        <time>2020-06-14T17:31:29Z</time>
      </trkpt>
      <trkpt lat="49.53184" lon="-1.86606">
        <ele>73.3</ele>
        <time>2020-06-14T17:31:30Z</time>
      </trkpt>
      <trkpt lat="49.5319" lon="-1.86605">
        <ele>73.4</ele>
        <time>2020-06-14T17:31:31Z</time>
      </trkpt>
      <trkpt lat="49.53195" lon="-1.86603">
        <ele>73.5</ele>
        <time>2020-06-14T17:31:32Z</time>
      </trkpt>
      <trkpt lat="49.53199" lon="-1.86598">
        <ele>73.5</ele>
        <time>2020-06-14T17:31:33Z</time>
      </trkpt>
      <trkpt lat="49.53202" lon="-1.86593">
        <ele>73.6</ele>
        <time>2020-06-14T17:31:34Z</time>
      </trkpt>
      <trkpt lat="49.53206" lon="-1.86585">
        <ele>73.7</ele>
        <time>2020-06-14T17:31:35Z</time>
      </trkpt>
      <trkpt lat="49.53209" lon="-1.86578">
        <ele>73.8</ele>
        <time>2020-06-14T17:31:36Z</time>
      </trkpt>
      <trkpt lat="49.53212" lon="-1.86571">
        <ele>73.8</ele>
        <time>2020-06-14T17:31:37Z</time>
      </trkpt>
      <trkpt lat="49.53216" lon="-1.86566">
        <ele>73.8</ele>
        <time>2020-06-14T17:31:38Z</time>
      </trkpt>
      <trkpt lat="49.5322" lon="-1.86561">
        <ele>73.8</ele>
        <time>2020-06-14T17:31:39Z</time>
      </trkpt>
      <trkpt lat="49.53223" lon="-1.86558">
        <ele>73.7</ele>
        <time>2020-06-14T17:31:40Z</time>
      </trkpt>
      <trkpt lat="49.53229" lon="-1.86556">
        <ele>73.6</ele>
        <time>2020-06-14T17:31:41Z</time>
      </trkpt>
      <trkpt lat="49.53234" lon="-1.86557">
        <ele>73.6</ele>
        <time>2020-06-14T17:31:42Z</time>
      </trkpt>
      <trkpt lat="49.53239" lon="-1.86558">
        <ele>73.5</ele>
        <time>2020-06-14T17:31:43Z</time>
      </trkpt>
      <trkpt lat="49.53244" lon="-1.86558">
        <ele>73.4</ele>
        <time>2020-06-14T17:31:44Z</time>
      </trkpt>
      <trkpt lat="49.53248" lon="-1.86557">
        <ele>73.4</ele>
        <time>2020-06-14T17:31:45Z</time>
      </trkpt>
      <trkpt lat="49.53253" lon="-1.86556">
        <ele>73.3</ele>
        <time>2020-06-14T17:31:46Z</time>
      </trkpt>
      <trkpt lat="49.5326" lon="-1.86558">
        <ele>73.2</ele>
        <time>2020-06-14T17:31:47Z</time>
      </trkpt>
      <trkpt lat="49.53265" lon="-1.86557">
        <ele>73.1</ele>
        <time>2020-06-14T17:31:48Z</time>
      </trkpt>
      <trkpt lat="49.53271" lon="-1.86556">
        <ele>73</ele>
        <time>2020-06-14T17:31:49Z</time>
      </trkpt>
      <trkpt lat="49.53278" lon="-1.86555">
        <ele>72.9</ele>
        <time>2020-06-14T17:31:50Z</time>
      </trkpt>
      <trkpt lat="49.53283" lon="-1.86553">
        <ele>72.9</ele>
        <time>2020-06-14T17:31:51Z</time>
      </trkpt>
      <trkpt lat="49.53288" lon="-1.86553">
        <ele>72.8</ele>
        <time>2020-06-14T17:31:52Z</time>
      </trkpt>
      <trkpt lat="49.53293" lon="-1.86552">
        <ele>72.7</ele>
        <time>2020-06-14T17:31:53Z</time>
      </trkpt>
      <trkpt lat="49.53298" lon="-1.86553">
        <ele>72.7</ele>
        <time>2020-06-14T17:31:54Z</time>
      </trkpt>
      <trkpt lat="49.53303" lon="-1.86554">
        <ele>72.7</ele>
        <time>2020-06-14T17:31:55Z</time>
      </trkpt>
      <trkpt lat="49.53309" lon="-1.86557">
        <ele>72.7</ele>
        <time>2020-06-14T17:31:56Z</time>
      </trkpt>
      <trkpt lat="49.53316" lon="-1.86558">
        <ele>72.8</ele>
        <time>2020-06-14T17:31:57Z</time>
      </trkpt>
      <trkpt lat="49.5332" lon="-1.86561">
        <ele>72.8</ele>
        <time>2020-06-14T17:31:58Z</time>
      </trkpt>
      <trkpt lat="49.53324" lon="-1.86565">
        <ele>72.9</ele>
        <time>2020-06-14T17:31:59Z</time>
      </trkpt>
      <trkpt lat="49.53328" lon="-1.86568">
        <ele>72.9</ele>
        <time>2020-06-14T17:32:00Z</time>
      </trkpt>
      <trkpt lat="49.53333" lon="-1.86572">
        <ele>73</ele>
        <time>2020-06-14T17:32:01Z</time>
      </trkpt>
      <trkpt lat="49.53338" lon="-1.86575">
        <ele>73</ele>
        <time>2020-06-14T17:32:02Z</time>
      </trkpt>
      <trkpt lat="49.53343" lon="-1.86577">
        <ele>73.1</ele>
        <time>2020-06-14T17:32:03Z</time>
      </trkpt>
      <trkpt lat="49.53347" lon="-1.8658">
        <ele>73.1</ele>
        <time>2020-06-14T17:32:04Z</time>
      </trkpt>
      <trkpt lat="49.53352" lon="-1.86581">
        <ele>73.2</ele>
        <time>2020-06-14T17:32:05Z</time>
      </trkpt>
      <trkpt lat="49.53358" lon="-1.86581">
        <ele>73.2</ele>
        <time>2020-06-14T17:32:06Z</time>
      </trkpt>
      <trkpt lat="49.53364" lon="-1.86581">
        <ele>73.3</ele>
        <time>2020-06-14T17:32:07Z</time>
      </trkpt>
      <trkpt lat="49.53369" lon="-1.86581">
        <ele>73.3</ele>
        <time>2020-06-14T17:32:08Z</time>
      </trkpt>
      <trkpt lat="49.53375" lon="-1.8658">
        <ele>73.3</ele>
        <time>2020-06-14T17:32:09Z</time>
      </trkpt>
      <trkpt lat="49.5338" lon="-1.86579">
        <ele>73.3</ele>
        <time>2020-06-14T17:32:10Z</time>
      </trkpt>
      <trkpt lat="49.53386" lon="-1.86578">
        <ele>73.3</ele>
        <time>2020-06-14T17:32:11Z</time>
      </trkpt>
      <trkpt lat="49.53392" lon="-1.86576">
        <ele>73.3</ele>
        <time>2020-06-14T17:32:12Z</time>
      </trkpt>
      <trkpt lat="49.53397" lon="-1.86575">
        <ele>73.3</ele>
        <time>2020-06-14T17:32:13Z</time>
      </trkpt>
      <trkpt lat="49.53402" lon="-1.86574">
        <ele>73.3</ele>
        <time>2020-06-14T17:32:14Z</time>
      </trkpt>
      <trkpt lat="49.53407" lon="-1.86573">
        <ele>73.4</ele>
        <time>2020-06-14T17:32:15Z</time>
      </trkpt>
      <trkpt lat="49.53413" lon="-1.86572">
        <ele>73.4</ele>
        <time>2020-06-14T17:32:16Z</time>
      </trkpt>
      <trkpt lat="49.53419" lon="-1.86572">
        <ele>73.4</ele>
        <time>2020-06-14T17:32:17Z</time>
      </trkpt>
      <trkpt lat="49.53424" lon="-1.86571">
        <ele>73.4</ele>
        <time>2020-06-14T17:32:18Z</time>
      </trkpt>
      <trkpt lat="49.5343" lon="-1.8657">
        <ele>73.4</ele>
        <time>2020-06-14T17:32:19Z</time>
      </trkpt>
      <trkpt lat="49.53435" lon="-1.86569">
        <ele>73.3</ele>
        <time>2020-06-14T17:32:20Z</time>
      </trkpt>
      <trkpt lat="49.5344" lon="-1.86569">
        <ele>73.2</ele>
        <time>2020-06-14T17:32:21Z</time>
      </trkpt>
      <trkpt lat="49.53445" lon="-1.86569">
        <ele>73.1</ele>
        <time>2020-06-14T17:32:22Z</time>
      </trkpt>
      <trkpt lat="49.53451" lon="-1.86568">
        <ele>72.9</ele>
        <time>2020-06-14T17:32:23Z</time>
      </trkpt>
      <trkpt lat="49.53457" lon="-1.86567">
        <ele>72.8</ele>
        <time>2020-06-14T17:32:24Z</time>
      </trkpt>
      <trkpt lat="49.53461" lon="-1.86566">
        <ele>72.7</ele>
        <time>2020-06-14T17:32:25Z</time>
      </trkpt>
      <trkpt lat="49.53467" lon="-1.86566">
        <ele>72.5</ele>
        <time>2020-06-14T17:32:26Z</time>
      </trkpt>
      <trkpt lat="49.53471" lon="-1.86565">
        <ele>72.4</ele>
        <time>2020-06-14T17:32:27Z</time>
      </trkpt>
      <trkpt lat="49.53478" lon="-1.86564">
        <ele>72.2</ele>
        <time>2020-06-14T17:32:28Z</time>
      </trkpt>
      <trkpt lat="49.53485" lon="-1.86563">
        <ele>72</ele>
        <time>2020-06-14T17:32:29Z</time>
      </trkpt>
      <trkpt lat="49.53491" lon="-1.86563">
        <ele>71.8</ele>
        <time>2020-06-14T17:32:30Z</time>
      </trkpt>
      <trkpt lat="49.53498" lon="-1.86561">
        <ele>71.6</ele>
        <time>2020-06-14T17:32:31Z</time>
      </trkpt>
      <trkpt lat="49.53505" lon="-1.8656">
        <ele>71.3</ele>
        <time>2020-06-14T17:32:32Z</time>
      </trkpt>
      <trkpt lat="49.5351" lon="-1.86559">
        <ele>71.1</ele>
        <time>2020-06-14T17:32:33Z</time>
      </trkpt>
      <trkpt lat="49.53517" lon="-1.86558">
        <ele>70.9</ele>
        <time>2020-06-14T17:32:34Z</time>
      </trkpt>
      <trkpt lat="49.53524" lon="-1.86557">
        <ele>70.6</ele>
        <time>2020-06-14T17:32:35Z</time>
      </trkpt>
      <trkpt lat="49.5353" lon="-1.86556">
        <ele>70.4</ele>
        <time>2020-06-14T17:32:36Z</time>
      </trkpt>
      <trkpt lat="49.53537" lon="-1.86556">
        <ele>70.2</ele>
        <time>2020-06-14T17:32:37Z</time>
      </trkpt>
      <trkpt lat="49.53544" lon="-1.86555">
        <ele>69.9</ele>
        <time>2020-06-14T17:32:38Z</time>
      </trkpt>
      <trkpt lat="49.5355" lon="-1.86555">
        <ele>69.7</ele>
        <time>2020-06-14T17:32:39Z</time>
      </trkpt>
      <trkpt lat="49.53557" lon="-1.86555">
        <ele>69.5</ele>
        <time>2020-06-14T17:32:40Z</time>
      </trkpt>
      <trkpt lat="49.53564" lon="-1.86554">
        <ele>69.2</ele>
        <time>2020-06-14T17:32:41Z</time>
      </trkpt>
      <trkpt lat="49.53571" lon="-1.86554">
        <ele>68.8</ele>
        <time>2020-06-14T17:32:42Z</time>
      </trkpt>
      <trkpt lat="49.53578" lon="-1.86553">
        <ele>68.4</ele>
        <time>2020-06-14T17:32:43Z</time>
      </trkpt>
      <trkpt lat="49.53585" lon="-1.86553">
        <ele>68.2</ele>
        <time>2020-06-14T17:32:44Z</time>
      </trkpt>
      <trkpt lat="49.53592" lon="-1.86552">
        <ele>67.9</ele>
        <time>2020-06-14T17:32:45Z</time>
      </trkpt>
      <trkpt lat="49.536" lon="-1.86551">
        <ele>67.6</ele>
        <time>2020-06-14T17:32:46Z</time>
      </trkpt>
      <trkpt lat="49.53608" lon="-1.86551">
        <ele>67.3</ele>
        <time>2020-06-14T17:32:47Z</time>
      </trkpt>
      <trkpt lat="49.53615" lon="-1.86551">
        <ele>67</ele>
        <time>2020-06-14T17:32:48Z</time>
      </trkpt>
      <trkpt lat="49.53623" lon="-1.8655">
        <ele>66.8</ele>
        <time>2020-06-14T17:32:49Z</time>
      </trkpt>
      <trkpt lat="49.5363" lon="-1.86549">
        <ele>66.5</ele>
        <time>2020-06-14T17:32:50Z</time>
      </trkpt>
      <trkpt lat="49.53639" lon="-1.86546">
        <ele>66.2</ele>
        <time>2020-06-14T17:32:51Z</time>
      </trkpt>
      <trkpt lat="49.53646" lon="-1.86546">
        <ele>65.9</ele>
        <time>2020-06-14T17:32:52Z</time>
      </trkpt>
      <trkpt lat="49.53654" lon="-1.86546">
        <ele>65.7</ele>
        <time>2020-06-14T17:32:53Z</time>
      </trkpt>
      <trkpt lat="49.53661" lon="-1.86546">
        <ele>65.4</ele>
        <time>2020-06-14T17:32:54Z</time>
      </trkpt>
      <trkpt lat="49.53669" lon="-1.86546">
        <ele>65.1</ele>
        <time>2020-06-14T17:32:55Z</time>
      </trkpt>
      <trkpt lat="49.53677" lon="-1.86546">
        <ele>64.8</ele>
        <time>2020-06-14T17:32:56Z</time>
      </trkpt>
      <trkpt lat="49.53684" lon="-1.86544">
        <ele>64.6</ele>
        <time>2020-06-14T17:32:57Z</time>
      </trkpt>
      <trkpt lat="49.53692" lon="-1.86543">
        <ele>64.3</ele>
        <time>2020-06-14T17:32:58Z</time>
      </trkpt>
      <trkpt lat="49.53701" lon="-1.86541">
        <ele>64</ele>
        <time>2020-06-14T17:32:59Z</time>
      </trkpt>
      <trkpt lat="49.53709" lon="-1.8654">
        <ele>63.6</ele>
        <time>2020-06-14T17:33:00Z</time>
      </trkpt>
      <trkpt lat="49.53717" lon="-1.86538">
        <ele>63.4</ele>
        <time>2020-06-14T17:33:01Z</time>
      </trkpt>
      <trkpt lat="49.53725" lon="-1.86537">
        <ele>63.1</ele>
        <time>2020-06-14T17:33:02Z</time>
      </trkpt>
      <trkpt lat="49.53733" lon="-1.86536">
        <ele>62.9</ele>
        <time>2020-06-14T17:33:03Z</time>
      </trkpt>
      <trkpt lat="49.53741" lon="-1.86534">
        <ele>62.6</ele>
        <time>2020-06-14T17:33:04Z</time>
      </trkpt>
      <trkpt lat="49.53749" lon="-1.86533">
        <ele>62.4</ele>
        <time>2020-06-14T17:33:05Z</time>
      </trkpt>
      <trkpt lat="49.53757" lon="-1.86533">
        <ele>62.2</ele>
        <time>2020-06-14T17:33:06Z</time>
      </trkpt>
      <trkpt lat="49.53765" lon="-1.86531">
        <ele>61.9</ele>
        <time>2020-06-14T17:33:07Z</time>
      </trkpt>
      <trkpt lat="49.53772" lon="-1.86532">
        <ele>61.7</ele>
        <time>2020-06-14T17:33:08Z</time>
      </trkpt>
      <trkpt lat="49.5378" lon="-1.86531">
        <ele>61.4</ele>
        <time>2020-06-14T17:33:09Z</time>
      </trkpt>
      <trkpt lat="49.53788" lon="-1.86529">
        <ele>61.4</ele>
        <time>2020-06-14T17:33:10Z</time>
      </trkpt>
      <trkpt lat="49.53796" lon="-1.86528">
        <ele>61.3</ele>
        <time>2020-06-14T17:33:11Z</time>
      </trkpt>
      <trkpt lat="49.53804" lon="-1.86527">
        <ele>61.1</ele>
        <time>2020-06-14T17:33:12Z</time>
      </trkpt>
      <trkpt lat="49.53812" lon="-1.86526">
        <ele>61</ele>
        <time>2020-06-14T17:33:13Z</time>
      </trkpt>
      <trkpt lat="49.5382" lon="-1.86526">
        <ele>60.8</ele>
        <time>2020-06-14T17:33:14Z</time>
      </trkpt>
      <trkpt lat="49.53828" lon="-1.86526">
        <ele>60.6</ele>
        <time>2020-06-14T17:33:15Z</time>
      </trkpt>
      <trkpt lat="49.53836" lon="-1.86525">
        <ele>60.4</ele>
        <time>2020-06-14T17:33:16Z</time>
      </trkpt>
      <trkpt lat="49.53844" lon="-1.86523">
        <ele>60.2</ele>
        <time>2020-06-14T17:33:17Z</time>
      </trkpt>
      <trkpt lat="49.53852" lon="-1.86522">
        <ele>60.1</ele>
        <time>2020-06-14T17:33:18Z</time>
      </trkpt>
      <trkpt lat="49.5386" lon="-1.86519">
        <ele>59.9</ele>
        <time>2020-06-14T17:33:19Z</time>
      </trkpt>
      <trkpt lat="49.53868" lon="-1.86518">
        <ele>59.8</ele>
        <time>2020-06-14T17:33:20Z</time>
      </trkpt>
      <trkpt lat="49.53876" lon="-1.86516">
        <ele>59.7</ele>
        <time>2020-06-14T17:33:21Z</time>
      </trkpt>
      <trkpt lat="49.53883" lon="-1.86514">
        <ele>59.6</ele>
        <time>2020-06-14T17:33:22Z</time>
      </trkpt>
      <trkpt lat="49.53891" lon="-1.86512">
        <ele>59.5</ele>
        <time>2020-06-14T17:33:23Z</time>
      </trkpt>
      <trkpt lat="49.53898" lon="-1.86511">
        <ele>59.5</ele>
        <time>2020-06-14T17:33:24Z</time>
      </trkpt>
      <trkpt lat="49.53906" lon="-1.86509">
        <ele>59.1</ele>
        <time>2020-06-14T17:33:25Z</time>
      </trkpt>
      <trkpt lat="49.53914" lon="-1.86508">
        <ele>58.9</ele>
        <time>2020-06-14T17:33:26Z</time>
      </trkpt>
      <trkpt lat="49.53921" lon="-1.86506">
        <ele>58.7</ele>
        <time>2020-06-14T17:33:27Z</time>
      </trkpt>
      <trkpt lat="49.53929" lon="-1.86505">
        <ele>58.5</ele>
        <time>2020-06-14T17:33:28Z</time>
      </trkpt>
      <trkpt lat="49.53936" lon="-1.86504">
        <ele>58.3</ele>
        <time>2020-06-14T17:33:29Z</time>
      </trkpt>
      <trkpt lat="49.53944" lon="-1.86503">
        <ele>58.1</ele>
        <time>2020-06-14T17:33:30Z</time>
      </trkpt>
      <trkpt lat="49.53951" lon="-1.86503">
        <ele>57.9</ele>
        <time>2020-06-14T17:33:31Z</time>
      </trkpt>
      <trkpt lat="49.53959" lon="-1.86503">
        <ele>57.7</ele>
        <time>2020-06-14T17:33:32Z</time>
      </trkpt>
      <trkpt lat="49.53966" lon="-1.86505">
        <ele>57.5</ele>
        <time>2020-06-14T17:33:33Z</time>
      </trkpt>
      <trkpt lat="49.53974" lon="-1.86505">
        <ele>57.3</ele>
        <time>2020-06-14T17:33:34Z</time>
      </trkpt>
      <trkpt lat="49.53982" lon="-1.86506">
        <ele>57.1</ele>
        <time>2020-06-14T17:33:35Z</time>
      </trkpt>
      <trkpt lat="49.53989" lon="-1.86507">
        <ele>57</ele>
        <time>2020-06-14T17:33:36Z</time>
      </trkpt>
      <trkpt lat="49.53997" lon="-1.86507">
        <ele>56.9</ele>
        <time>2020-06-14T17:33:37Z</time>
      </trkpt>
      <trkpt lat="49.54004" lon="-1.86507">
        <ele>56.8</ele>
        <time>2020-06-14T17:33:38Z</time>
      </trkpt>
      <trkpt lat="49.54012" lon="-1.86506">
        <ele>56.7</ele>
        <time>2020-06-14T17:33:39Z</time>
      </trkpt>
      <trkpt lat="49.54018" lon="-1.86505">
        <ele>56.7</ele>
        <time>2020-06-14T17:33:40Z</time>
      </trkpt>
      <trkpt lat="49.54025" lon="-1.86502">
        <ele>56.6</ele>
        <time>2020-06-14T17:33:41Z</time>
      </trkpt>
      <trkpt lat="49.54032" lon="-1.865">
        <ele>56.5</ele>
        <time>2020-06-14T17:33:42Z</time>
      </trkpt>
      <trkpt lat="49.54039" lon="-1.86498">
        <ele>56.5</ele>
        <time>2020-06-14T17:33:43Z</time>
      </trkpt>
      <trkpt lat="49.54045" lon="-1.86496">
        <ele>56.4</ele>
        <time>2020-06-14T17:33:44Z</time>
      </trkpt>
      <trkpt lat="49.54052" lon="-1.86494">
        <ele>56.4</ele>
        <time>2020-06-14T17:33:45Z</time>
      </trkpt>
      <trkpt lat="49.54058" lon="-1.86492">
        <ele>56.4</ele>
        <time>2020-06-14T17:33:46Z</time>
      </trkpt>
      <trkpt lat="49.54065" lon="-1.86491">
        <ele>56.3</ele>
        <time>2020-06-14T17:33:47Z</time>
      </trkpt>
      <trkpt lat="49.54071" lon="-1.86488">
        <ele>56.3</ele>
        <time>2020-06-14T17:33:48Z</time>
      </trkpt>
      <trkpt lat="49.54077" lon="-1.86488">
        <ele>56.3</ele>
        <time>2020-06-14T17:33:49Z</time>
      </trkpt>
      <trkpt lat="49.54083" lon="-1.86487">
        <ele>56.2</ele>
        <time>2020-06-14T17:33:50Z</time>
      </trkpt>
      <trkpt lat="49.54089" lon="-1.86485">
        <ele>56.1</ele>
        <time>2020-06-14T17:33:51Z</time>
      </trkpt>
      <trkpt lat="49.54095" lon="-1.86483">
        <ele>56</ele>
        <time>2020-06-14T17:33:52Z</time>
      </trkpt>
      <trkpt lat="49.541" lon="-1.86482">
        <ele>56</ele>
        <time>2020-06-14T17:33:53Z</time>
      </trkpt>
      <trkpt lat="49.54105" lon="-1.86479">
        <ele>55.9</ele>
        <time>2020-06-14T17:33:54Z</time>
      </trkpt>
      <trkpt lat="49.5411" lon="-1.86478">
        <ele>55.8</ele>
        <time>2020-06-14T17:33:55Z</time>
      </trkpt>
      <trkpt lat="49.54115" lon="-1.86475">
        <ele>55.8</ele>
        <time>2020-06-14T17:33:56Z</time>
      </trkpt>
      <trkpt lat="49.5412" lon="-1.86473">
        <ele>55.7</ele>
        <time>2020-06-14T17:33:57Z</time>
      </trkpt>
      <trkpt lat="49.54125" lon="-1.86471">
        <ele>55.7</ele>
        <time>2020-06-14T17:33:58Z</time>
      </trkpt>
      <trkpt lat="49.54131" lon="-1.86469">
        <ele>55.7</ele>
        <time>2020-06-14T17:33:59Z</time>
      </trkpt>
      <trkpt lat="49.54137" lon="-1.86467">
        <ele>55.6</ele>
        <time>2020-06-14T17:34:00Z</time>
      </trkpt>
      <trkpt lat="49.54143" lon="-1.86465">
        <ele>55.6</ele>
        <time>2020-06-14T17:34:01Z</time>
      </trkpt>
      <trkpt lat="49.54148" lon="-1.86464">
        <ele>55.5</ele>
        <time>2020-06-14T17:34:02Z</time>
      </trkpt>
      <trkpt lat="49.54154" lon="-1.86462">
        <ele>55.4</ele>
        <time>2020-06-14T17:34:03Z</time>
      </trkpt>
      <trkpt lat="49.5416" lon="-1.86459">
        <ele>55.4</ele>
        <time>2020-06-14T17:34:04Z</time>
      </trkpt>
      <trkpt lat="49.54166" lon="-1.86457">
        <ele>55.3</ele>
        <time>2020-06-14T17:34:05Z</time>
      </trkpt>
      <trkpt lat="49.54173" lon="-1.86453">
        <ele>55.3</ele>
        <time>2020-06-14T17:34:06Z</time>
      </trkpt>
      <trkpt lat="49.54179" lon="-1.86451">
        <ele>55.2</ele>
        <time>2020-06-14T17:34:07Z</time>
      </trkpt>
      <trkpt lat="49.54185" lon="-1.86448">
        <ele>55.1</ele>
        <time>2020-06-14T17:34:08Z</time>
      </trkpt>
      <trkpt lat="49.54191" lon="-1.86444">
        <ele>55.1</ele>
        <time>2020-06-14T17:34:09Z</time>
      </trkpt>
      <trkpt lat="49.54197" lon="-1.86441">
        <ele>55</ele>
        <time>2020-06-14T17:34:10Z</time>
      </trkpt>
      <trkpt lat="49.54204" lon="-1.86438">
        <ele>54.9</ele>
        <time>2020-06-14T17:34:11Z</time>
      </trkpt>
      <trkpt lat="49.54211" lon="-1.86435">
        <ele>54.8</ele>
        <time>2020-06-14T17:34:12Z</time>
      </trkpt>
      <trkpt lat="49.54217" lon="-1.86432">
        <ele>54.7</ele>
        <time>2020-06-14T17:34:13Z</time>
      </trkpt>
      <trkpt lat="49.54224" lon="-1.86429">
        <ele>54.6</ele>
        <time>2020-06-14T17:34:14Z</time>
      </trkpt>
      <trkpt lat="49.54231" lon="-1.86425">
        <ele>54.4</ele>
        <time>2020-06-14T17:34:15Z</time>
      </trkpt>
      <trkpt lat="49.54237" lon="-1.86422">
        <ele>54.3</ele>
        <time>2020-06-14T17:34:16Z</time>
      </trkpt>
      <trkpt lat="49.54244" lon="-1.8642">
        <ele>54.2</ele>
        <time>2020-06-14T17:34:17Z</time>
      </trkpt>
      <trkpt lat="49.5425" lon="-1.86417">
        <ele>54.1</ele>
        <time>2020-06-14T17:34:18Z</time>
      </trkpt>
      <trkpt lat="49.54256" lon="-1.86415">
        <ele>53.9</ele>
        <time>2020-06-14T17:34:19Z</time>
      </trkpt>
      <trkpt lat="49.54263" lon="-1.86413">
        <ele>53.8</ele>
        <time>2020-06-14T17:34:20Z</time>
      </trkpt>
      <trkpt lat="49.54269" lon="-1.8641">
        <ele>53.6</ele>
        <time>2020-06-14T17:34:21Z</time>
      </trkpt>
      <trkpt lat="49.54275" lon="-1.86408">
        <ele>53.4</ele>
        <time>2020-06-14T17:34:22Z</time>
      </trkpt>
      <trkpt lat="49.54281" lon="-1.86407">
        <ele>53.3</ele>
        <time>2020-06-14T17:34:23Z</time>
      </trkpt>
      <trkpt lat="49.54288" lon="-1.86405">
        <ele>53.1</ele>
        <time>2020-06-14T17:34:24Z</time>
      </trkpt>
      <trkpt lat="49.54295" lon="-1.86404">
        <ele>52.8</ele>
        <time>2020-06-14T17:34:25Z</time>
      </trkpt>
      <trkpt lat="49.54302" lon="-1.86402">
        <ele>52.6</ele>
        <time>2020-06-14T17:34:26Z</time>
      </trkpt>
      <trkpt lat="49.54308" lon="-1.864">
        <ele>52.3</ele>
        <time>2020-06-14T17:34:27Z</time>
      </trkpt>
      <trkpt lat="49.54315" lon="-1.86398">
        <ele>52.1</ele>
        <time>2020-06-14T17:34:28Z</time>
      </trkpt>
      <trkpt lat="49.54322" lon="-1.86396">
        <ele>51.8</ele>
        <time>2020-06-14T17:34:29Z</time>
      </trkpt>
      <trkpt lat="49.54329" lon="-1.86395">
        <ele>51.5</ele>
        <time>2020-06-14T17:34:30Z</time>
      </trkpt>
      <trkpt lat="49.54336" lon="-1.86393">
        <ele>51.1</ele>
        <time>2020-06-14T17:34:31Z</time>
      </trkpt>
      <trkpt lat="49.54343" lon="-1.86391">
        <ele>50.8</ele>
        <time>2020-06-14T17:34:32Z</time>
      </trkpt>
      <trkpt lat="49.54351" lon="-1.86391">
        <ele>50.4</ele>
        <time>2020-06-14T17:34:33Z</time>
      </trkpt>
      <trkpt lat="49.54358" lon="-1.86389">
        <ele>50.2</ele>
        <time>2020-06-14T17:34:34Z</time>
      </trkpt>
      <trkpt lat="49.54366" lon="-1.86387">
        <ele>49.7</ele>
        <time>2020-06-14T17:34:35Z</time>
      </trkpt>
      <trkpt lat="49.54373" lon="-1.86383">
        <ele>49.3</ele>
        <time>2020-06-14T17:34:36Z</time>
      </trkpt>
      <trkpt lat="49.54381" lon="-1.8638">
        <ele>48.8</ele>
        <time>2020-06-14T17:34:37Z</time>
      </trkpt>
      <trkpt lat="49.54388" lon="-1.86377">
        <ele>48.3</ele>
        <time>2020-06-14T17:34:38Z</time>
      </trkpt>
      <trkpt lat="49.54396" lon="-1.86374">
        <ele>47.9</ele>
        <time>2020-06-14T17:34:39Z</time>
      </trkpt>
      <trkpt lat="49.54403" lon="-1.8637">
        <ele>47.4</ele>
        <time>2020-06-14T17:34:40Z</time>
      </trkpt>
      <trkpt lat="49.54411" lon="-1.86366">
        <ele>46.9</ele>
        <time>2020-06-14T17:34:41Z</time>
      </trkpt>
      <trkpt lat="49.54418" lon="-1.86361">
        <ele>46.3</ele>
        <time>2020-06-14T17:34:42Z</time>
      </trkpt>
      <trkpt lat="49.54427" lon="-1.86358">
        <ele>45.8</ele>
        <time>2020-06-14T17:34:43Z</time>
      </trkpt>
      <trkpt lat="49.54435" lon="-1.86353">
        <ele>45.3</ele>
        <time>2020-06-14T17:34:44Z</time>
      </trkpt>
      <trkpt lat="49.54443" lon="-1.86351">
        <ele>44.8</ele>
        <time>2020-06-14T17:34:45Z</time>
      </trkpt>
      <trkpt lat="49.54452" lon="-1.86347">
        <ele>44.4</ele>
        <time>2020-06-14T17:34:46Z</time>
      </trkpt>
      <trkpt lat="49.54461" lon="-1.86343">
        <ele>43.8</ele>
        <time>2020-06-14T17:34:47Z</time>
      </trkpt>
      <trkpt lat="49.5447" lon="-1.86338">
        <ele>43.4</ele>
        <time>2020-06-14T17:34:48Z</time>
      </trkpt>
      <trkpt lat="49.54479" lon="-1.86334">
        <ele>42.9</ele>
        <time>2020-06-14T17:34:49Z</time>
      </trkpt>
      <trkpt lat="49.54488" lon="-1.86328">
        <ele>42.5</ele>
        <time>2020-06-14T17:34:50Z</time>
      </trkpt>
      <trkpt lat="49.54497" lon="-1.86323">
        <ele>42</ele>
        <time>2020-06-14T17:34:51Z</time>
      </trkpt>
      <trkpt lat="49.54506" lon="-1.86318">
        <ele>41.6</ele>
        <time>2020-06-14T17:34:52Z</time>
      </trkpt>
      <trkpt lat="49.54515" lon="-1.86314">
        <ele>41.2</ele>
        <time>2020-06-14T17:34:53Z</time>
      </trkpt>
      <trkpt lat="49.54524" lon="-1.86311">
        <ele>40.8</ele>
        <time>2020-06-14T17:34:54Z</time>
      </trkpt>
      <trkpt lat="49.54532" lon="-1.86306">
        <ele>40.5</ele>
        <time>2020-06-14T17:34:55Z</time>
      </trkpt>
      <trkpt lat="49.5454" lon="-1.863">
        <ele>40.1</ele>
        <time>2020-06-14T17:34:56Z</time>
      </trkpt>
      <trkpt lat="49.54548" lon="-1.86294">
        <ele>39.7</ele>
        <time>2020-06-14T17:34:57Z</time>
      </trkpt>
      <trkpt lat="49.54556" lon="-1.86287">
        <ele>39.4</ele>
        <time>2020-06-14T17:34:58Z</time>
      </trkpt>
      <trkpt lat="49.54564" lon="-1.8628">
        <ele>39</ele>
        <time>2020-06-14T17:34:59Z</time>
      </trkpt>
      <trkpt lat="49.54571" lon="-1.86273">
        <ele>38.7</ele>
        <time>2020-06-14T17:35:00Z</time>
      </trkpt>
      <trkpt lat="49.54579" lon="-1.86265">
        <ele>38.5</ele>
        <time>2020-06-14T17:35:01Z</time>
      </trkpt>
      <trkpt lat="49.54587" lon="-1.86258">
        <ele>38.3</ele>
        <time>2020-06-14T17:35:02Z</time>
      </trkpt>
      <trkpt lat="49.54593" lon="-1.86248">
        <ele>38.1</ele>
        <time>2020-06-14T17:35:03Z</time>
      </trkpt>
      <trkpt lat="49.54599" lon="-1.86241">
        <ele>37.8</ele>
        <time>2020-06-14T17:35:04Z</time>
      </trkpt>
      <trkpt lat="49.54606" lon="-1.86234">
        <ele>37.6</ele>
        <time>2020-06-14T17:35:05Z</time>
      </trkpt>
      <trkpt lat="49.54613" lon="-1.86228">
        <ele>37.4</ele>
        <time>2020-06-14T17:35:06Z</time>
      </trkpt>
      <trkpt lat="49.54619" lon="-1.86221">
        <ele>37.2</ele>
        <time>2020-06-14T17:35:07Z</time>
      </trkpt>
      <trkpt lat="49.54625" lon="-1.86214">
        <ele>37.1</ele>
        <time>2020-06-14T17:35:08Z</time>
      </trkpt>
      <trkpt lat="49.54631" lon="-1.86208">
        <ele>37</ele>
        <time>2020-06-14T17:35:09Z</time>
      </trkpt>
      <trkpt lat="49.54637" lon="-1.862">
        <ele>36.9</ele>
        <time>2020-06-14T17:35:10Z</time>
      </trkpt>
      <trkpt lat="49.54643" lon="-1.86194">
        <ele>36.7</ele>
        <time>2020-06-14T17:35:11Z</time>
      </trkpt>
      <trkpt lat="49.54648" lon="-1.86187">
        <ele>36.7</ele>
        <time>2020-06-14T17:35:12Z</time>
      </trkpt>
      <trkpt lat="49.54653" lon="-1.86181">
        <ele>36.6</ele>
        <time>2020-06-14T17:35:13Z</time>
      </trkpt>
      <trkpt lat="49.54658" lon="-1.86175">
        <ele>36.6</ele>
        <time>2020-06-14T17:35:14Z</time>
      </trkpt>
      <trkpt lat="49.54664" lon="-1.86169">
        <ele>36.5</ele>
        <time>2020-06-14T17:35:15Z</time>
      </trkpt>
      <trkpt lat="49.54669" lon="-1.86162">
        <ele>36.4</ele>
        <time>2020-06-14T17:35:16Z</time>
      </trkpt>
      <trkpt lat="49.54674" lon="-1.86157">
        <ele>36.3</ele>
        <time>2020-06-14T17:35:17Z</time>
      </trkpt>
      <trkpt lat="49.54679" lon="-1.86151">
        <ele>36.3</ele>
        <time>2020-06-14T17:35:18Z</time>
      </trkpt>
      <trkpt lat="49.54683" lon="-1.86145">
        <ele>36.2</ele>
        <time>2020-06-14T17:35:19Z</time>
      </trkpt>
      <trkpt lat="49.54688" lon="-1.86139">
        <ele>36.3</ele>
        <time>2020-06-14T17:35:20Z</time>
      </trkpt>
      <trkpt lat="49.54692" lon="-1.86133">
        <ele>36.3</ele>
        <time>2020-06-14T17:35:21Z</time>
      </trkpt>
      <trkpt lat="49.54696" lon="-1.86127">
        <ele>36.3</ele>
        <time>2020-06-14T17:35:22Z</time>
      </trkpt>
      <trkpt lat="49.547" lon="-1.86121">
        <ele>36.3</ele>
        <time>2020-06-14T17:35:23Z</time>
      </trkpt>
      <trkpt lat="49.54703" lon="-1.86114">
        <ele>36.3</ele>
        <time>2020-06-14T17:35:24Z</time>
      </trkpt>
      <trkpt lat="49.54707" lon="-1.86106">
        <ele>36.3</ele>
        <time>2020-06-14T17:35:25Z</time>
      </trkpt>
      <trkpt lat="49.5471" lon="-1.861">
        <ele>36.4</ele>
        <time>2020-06-14T17:35:26Z</time>
      </trkpt>
      <trkpt lat="49.54714" lon="-1.86094">
        <ele>36.5</ele>
        <time>2020-06-14T17:35:27Z</time>
      </trkpt>
      <trkpt lat="49.54717" lon="-1.86088">
        <ele>36.6</ele>
        <time>2020-06-14T17:35:28Z</time>
      </trkpt>
      <trkpt lat="49.54721" lon="-1.86082">
        <ele>36.7</ele>
        <time>2020-06-14T17:35:29Z</time>
      </trkpt>
      <trkpt lat="49.54725" lon="-1.86076">
        <ele>36.9</ele>
        <time>2020-06-14T17:35:30Z</time>
      </trkpt>
      <trkpt lat="49.54729" lon="-1.8607">
        <ele>37</ele>
        <time>2020-06-14T17:35:31Z</time>
      </trkpt>
      <trkpt lat="49.54733" lon="-1.86065">
        <ele>37.2</ele>
        <time>2020-06-14T17:35:32Z</time>
      </trkpt>
      <trkpt lat="49.54736" lon="-1.8606">
        <ele>37.3</ele>
        <time>2020-06-14T17:35:33Z</time>
      </trkpt>
      <trkpt lat="49.54739" lon="-1.86054">
        <ele>37.5</ele>
        <time>2020-06-14T17:35:34Z</time>
      </trkpt>
      <trkpt lat="49.54742" lon="-1.86048">
        <ele>37.7</ele>
        <time>2020-06-14T17:35:35Z</time>
      </trkpt>
      <trkpt lat="49.54746" lon="-1.86043">
        <ele>37.8</ele>
        <time>2020-06-14T17:35:36Z</time>
      </trkpt>
      <trkpt lat="49.5475" lon="-1.86038">
        <ele>38</ele>
        <time>2020-06-14T17:35:37Z</time>
      </trkpt>
      <trkpt lat="49.54755" lon="-1.86034">
        <ele>38.1</ele>
        <time>2020-06-14T17:35:38Z</time>
      </trkpt>
      <trkpt lat="49.54758" lon="-1.86028">
        <ele>38.2</ele>
        <time>2020-06-14T17:35:39Z</time>
      </trkpt>
      <trkpt lat="49.54761" lon="-1.86023">
        <ele>38.3</ele>
        <time>2020-06-14T17:35:40Z</time>
      </trkpt>
      <trkpt lat="49.54765" lon="-1.86019">
        <ele>38.4</ele>
        <time>2020-06-14T17:35:41Z</time>
      </trkpt>
      <trkpt lat="49.54769" lon="-1.86015">
        <ele>38.5</ele>
        <time>2020-06-14T17:35:42Z</time>
      </trkpt>
      <trkpt lat="49.54772" lon="-1.86011">
        <ele>38.6</ele>
        <time>2020-06-14T17:35:43Z</time>
      </trkpt>
      <trkpt lat="49.54775" lon="-1.86005">
        <ele>38.8</ele>
        <time>2020-06-14T17:35:44Z</time>
      </trkpt>
      <trkpt lat="49.54777" lon="-1.86002">
        <ele>38.9</ele>
        <time>2020-06-14T17:35:45Z</time>
      </trkpt>
      <trkpt lat="49.5478" lon="-1.85999">
        <ele>39</ele>
        <time>2020-06-14T17:35:46Z</time>
      </trkpt>
      <trkpt lat="49.54783" lon="-1.85995">
        <ele>39.1</ele>
        <time>2020-06-14T17:35:47Z</time>
      </trkpt>
      <trkpt lat="49.54787" lon="-1.85991">
        <ele>39.2</ele>
        <time>2020-06-14T17:35:48Z</time>
      </trkpt>
      <trkpt lat="49.5479" lon="-1.85987">
        <ele>39.3</ele>
        <time>2020-06-14T17:35:49Z</time>
      </trkpt>
      <trkpt lat="49.54794" lon="-1.85983">
        <ele>39.4</ele>
        <time>2020-06-14T17:35:50Z</time>
      </trkpt>
      <trkpt lat="49.54797" lon="-1.8598">
        <ele>39.5</ele>
        <time>2020-06-14T17:35:51Z</time>
      </trkpt>
      <trkpt lat="49.54801" lon="-1.85976">
        <ele>39.6</ele>
        <time>2020-06-14T17:35:52Z</time>
      </trkpt>
      <trkpt lat="49.54806" lon="-1.85971">
        <ele>39.7</ele>
        <time>2020-06-14T17:35:53Z</time>
      </trkpt>
      <trkpt lat="49.5481" lon="-1.85967">
        <ele>39.8</ele>
        <time>2020-06-14T17:35:54Z</time>
      </trkpt>
      <trkpt lat="49.54814" lon="-1.85964">
        <ele>39.8</ele>
        <time>2020-06-14T17:35:55Z</time>
      </trkpt>
      <trkpt lat="49.54817" lon="-1.85963">
        <ele>39.8</ele>
        <time>2020-06-14T17:35:56Z</time>
      </trkpt>
      <trkpt lat="49.54822" lon="-1.85961">
        <ele>39.7</ele>
        <time>2020-06-14T17:35:57Z</time>
      </trkpt>
      <trkpt lat="49.54826" lon="-1.85961">
        <ele>39.7</ele>
        <time>2020-06-14T17:35:58Z</time>
      </trkpt>
      <trkpt lat="49.54831" lon="-1.8596">
        <ele>39.6</ele>
        <time>2020-06-14T17:35:59Z</time>
      </trkpt>
      <trkpt lat="49.54835" lon="-1.85959">
        <ele>39.5</ele>
        <time>2020-06-14T17:36:00Z</time>
      </trkpt>
      <trkpt lat="49.5484" lon="-1.85957">
        <ele>39.3</ele>
        <time>2020-06-14T17:36:01Z</time>
      </trkpt>
      <trkpt lat="49.54845" lon="-1.85956">
        <ele>39.2</ele>
        <time>2020-06-14T17:36:02Z</time>
      </trkpt>
      <trkpt lat="49.54851" lon="-1.85954">
        <ele>39</ele>
        <time>2020-06-14T17:36:03Z</time>
      </trkpt>
      <trkpt lat="49.54856" lon="-1.85952">
        <ele>38.8</ele>
        <time>2020-06-14T17:36:04Z</time>
      </trkpt>
      <trkpt lat="49.54862" lon="-1.85951">
        <ele>38.5</ele>
        <time>2020-06-14T17:36:05Z</time>
      </trkpt>
      <trkpt lat="49.54867" lon="-1.85951">
        <ele>38.3</ele>
        <time>2020-06-14T17:36:06Z</time>
      </trkpt>
      <trkpt lat="49.54872" lon="-1.85951">
        <ele>38.1</ele>
        <time>2020-06-14T17:36:07Z</time>
      </trkpt>
      <trkpt lat="49.54878" lon="-1.8595">
        <ele>37.8</ele>
        <time>2020-06-14T17:36:08Z</time>
      </trkpt>
      <trkpt lat="49.54883" lon="-1.85949">
        <ele>37.5</ele>
        <time>2020-06-14T17:36:09Z</time>
      </trkpt>
      <trkpt lat="49.54889" lon="-1.85948">
        <ele>37.2</ele>
        <time>2020-06-14T17:36:10Z</time>
      </trkpt>
      <trkpt lat="49.54896" lon="-1.85949">
        <ele>36.8</ele>
        <time>2020-06-14T17:36:11Z</time>
      </trkpt>
      <trkpt lat="49.54903" lon="-1.8595">
        <ele>36.4</ele>
        <time>2020-06-14T17:36:12Z</time>
      </trkpt>
      <trkpt lat="49.54911" lon="-1.8595">
        <ele>36</ele>
        <time>2020-06-14T17:36:13Z</time>
      </trkpt>
      <trkpt lat="49.54917" lon="-1.8595">
        <ele>35.7</ele>
        <time>2020-06-14T17:36:14Z</time>
      </trkpt>
      <trkpt lat="49.54923" lon="-1.85949">
        <ele>35.3</ele>
        <time>2020-06-14T17:36:15Z</time>
      </trkpt>
      <trkpt lat="49.54929" lon="-1.85949">
        <ele>34.8</ele>
        <time>2020-06-14T17:36:16Z</time>
      </trkpt>
      <trkpt lat="49.54935" lon="-1.85948">
        <ele>34.4</ele>
        <time>2020-06-14T17:36:17Z</time>
      </trkpt>
      <trkpt lat="49.54942" lon="-1.85947">
        <ele>33.9</ele>
        <time>2020-06-14T17:36:18Z</time>
      </trkpt>
      <trkpt lat="49.54946" lon="-1.85945">
        <ele>33.5</ele>
        <time>2020-06-14T17:36:19Z</time>
      </trkpt>
      <trkpt lat="49.54951" lon="-1.85944">
        <ele>33.1</ele>
        <time>2020-06-14T17:36:20Z</time>
      </trkpt>
      <trkpt lat="49.54957" lon="-1.85942">
        <ele>32.6</ele>
        <time>2020-06-14T17:36:21Z</time>
      </trkpt>
      <trkpt lat="49.54961" lon="-1.85941">
        <ele>32.2</ele>
        <time>2020-06-14T17:36:22Z</time>
      </trkpt>
      <trkpt lat="49.54964" lon="-1.85939">
        <ele>31.8</ele>
        <time>2020-06-14T17:36:23Z</time>
      </trkpt>
      <trkpt lat="49.54967" lon="-1.85935">
        <ele>31.5</ele>
        <time>2020-06-14T17:36:24Z</time>
      </trkpt>
      <trkpt lat="49.5497" lon="-1.85932">
        <ele>31.2</ele>
        <time>2020-06-14T17:36:25Z</time>
      </trkpt>
      <trkpt lat="49.54972" lon="-1.85928">
        <ele>30.8</ele>
        <time>2020-06-14T17:36:26Z</time>
      </trkpt>
      <trkpt lat="49.54976" lon="-1.85925">
        <ele>30.4</ele>
        <time>2020-06-14T17:36:27Z</time>
      </trkpt>
      <trkpt lat="49.5498" lon="-1.8592">
        <ele>29.7</ele>
        <time>2020-06-14T17:36:28Z</time>
      </trkpt>
      <trkpt lat="49.54986" lon="-1.85914">
        <ele>29</ele>
        <time>2020-06-14T17:36:29Z</time>
      </trkpt>
      <trkpt lat="49.54991" lon="-1.85907">
        <ele>28.2</ele>
        <time>2020-06-14T17:36:30Z</time>
      </trkpt>
      <trkpt lat="49.54997" lon="-1.85901">
        <ele>27.4</ele>
        <time>2020-06-14T17:36:31Z</time>
      </trkpt>
      <trkpt lat="49.55004" lon="-1.85895">
        <ele>26.5</ele>
        <time>2020-06-14T17:36:32Z</time>
      </trkpt>
      <trkpt lat="49.55009" lon="-1.8589">
        <ele>25.7</ele>
        <time>2020-06-14T17:36:33Z</time>
      </trkpt>
      <trkpt lat="49.55016" lon="-1.85886">
        <ele>24.9</ele>
        <time>2020-06-14T17:36:34Z</time>
      </trkpt>
      <trkpt lat="49.55021" lon="-1.85883">
        <ele>24.2</ele>
        <time>2020-06-14T17:36:35Z</time>
      </trkpt>
      <trkpt lat="49.55027" lon="-1.8588">
        <ele>23.5</ele>
        <time>2020-06-14T17:36:36Z</time>
      </trkpt>
      <trkpt lat="49.55032" lon="-1.85878">
        <ele>22.9</ele>
        <time>2020-06-14T17:36:37Z</time>
      </trkpt>
      <trkpt lat="49.55037" lon="-1.85875">
        <ele>22.3</ele>
        <time>2020-06-14T17:36:38Z</time>
      </trkpt>
      <trkpt lat="49.55042" lon="-1.85871">
        <ele>21.6</ele>
        <time>2020-06-14T17:36:39Z</time>
      </trkpt>
      <trkpt lat="49.55048" lon="-1.85868">
        <ele>20.9</ele>
        <time>2020-06-14T17:36:40Z</time>
      </trkpt>
      <trkpt lat="49.55055" lon="-1.85864">
        <ele>20.2</ele>
        <time>2020-06-14T17:36:41Z</time>
      </trkpt>
      <trkpt lat="49.55061" lon="-1.85861">
        <ele>19.4</ele>
        <time>2020-06-14T17:36:42Z</time>
      </trkpt>
      <trkpt lat="49.55066" lon="-1.85858">
        <ele>19</ele>
        <time>2020-06-14T17:36:43Z</time>
      </trkpt>
      <trkpt lat="49.55072" lon="-1.85854">
        <ele>18.4</ele>
        <time>2020-06-14T17:36:44Z</time>
      </trkpt>
      <trkpt lat="49.55076" lon="-1.85846">
        <ele>17.8</ele>
        <time>2020-06-14T17:36:45Z</time>
      </trkpt>
      <trkpt lat="49.55079" lon="-1.85836">
        <ele>17.2</ele>
        <time>2020-06-14T17:36:46Z</time>
      </trkpt>
      <trkpt lat="49.5508" lon="-1.85826">
        <ele>16.7</ele>
        <time>2020-06-14T17:36:47Z</time>
      </trkpt>
      <trkpt lat="49.5508" lon="-1.85814">
        <ele>16.2</ele>
        <time>2020-06-14T17:36:48Z</time>
      </trkpt>
      <trkpt lat="49.5508" lon="-1.85803">
        <ele>15.7</ele>
        <time>2020-06-14T17:36:49Z</time>
      </trkpt>
      <trkpt lat="49.55079" lon="-1.85792">
        <ele>15.4</ele>
        <time>2020-06-14T17:36:50Z</time>
      </trkpt>
      <trkpt lat="49.55077" lon="-1.8578">
        <ele>15.1</ele>
        <time>2020-06-14T17:36:51Z</time>
      </trkpt>
      <trkpt lat="49.55074" lon="-1.85769">
        <ele>14.8</ele>
        <time>2020-06-14T17:36:52Z</time>
      </trkpt>
      <trkpt lat="49.5507" lon="-1.85758">
        <ele>14.6</ele>
        <time>2020-06-14T17:36:53Z</time>
      </trkpt>
      <trkpt lat="49.55065" lon="-1.85748">
        <ele>14.5</ele>
        <time>2020-06-14T17:36:54Z</time>
      </trkpt>
      <trkpt lat="49.55059" lon="-1.85741">
        <ele>14.3</ele>
        <time>2020-06-14T17:36:55Z</time>
      </trkpt>
      <trkpt lat="49.55052" lon="-1.85734">
        <ele>14.2</ele>
        <time>2020-06-14T17:36:56Z</time>
      </trkpt>
      <trkpt lat="49.55046" lon="-1.85728">
        <ele>14.1</ele>
        <time>2020-06-14T17:36:57Z</time>
      </trkpt>
      <trkpt lat="49.5504" lon="-1.85722">
        <ele>14</ele>
        <time>2020-06-14T17:36:58Z</time>
      </trkpt>
      <trkpt lat="49.55035" lon="-1.85717">
        <ele>14</ele>
        <time>2020-06-14T17:36:59Z</time>
      </trkpt>
      <trkpt lat="49.5503" lon="-1.85712">
        <ele>14.1</ele>
        <time>2020-06-14T17:37:00Z</time>
      </trkpt>
      <trkpt lat="49.55025" lon="-1.85706">
        <ele>14.1</ele>
        <time>2020-06-14T17:37:01Z</time>
      </trkpt>
      <trkpt lat="49.5502" lon="-1.857">
        <ele>14.2</ele>
        <time>2020-06-14T17:37:02Z</time>
      </trkpt>
      <trkpt lat="49.55016" lon="-1.85695">
        <ele>14.2</ele>
        <time>2020-06-14T17:37:03Z</time>
      </trkpt>
      <trkpt lat="49.55011" lon="-1.85689">
        <ele>14.3</ele>
        <time>2020-06-14T17:37:04Z</time>
      </trkpt>
      <trkpt lat="49.55007" lon="-1.85684">
        <ele>14.4</ele>
        <time>2020-06-14T17:37:05Z</time>
      </trkpt>
      <trkpt lat="49.55005" lon="-1.85677">
        <ele>14.5</ele>
        <time>2020-06-14T17:37:06Z</time>
      </trkpt>
      <trkpt lat="49.55002" lon="-1.85672">
        <ele>14.6</ele>
        <time>2020-06-14T17:37:07Z</time>
      </trkpt>
      <trkpt lat="49.55004" lon="-1.85665">
        <ele>14.6</ele>
        <time>2020-06-14T17:37:08Z</time>
      </trkpt>
      <trkpt lat="49.55006" lon="-1.85659">
        <ele>14.6</ele>
        <time>2020-06-14T17:37:09Z</time>
      </trkpt>
      <trkpt lat="49.55008" lon="-1.85657">
        <ele>14.6</ele>
        <time>2020-06-14T17:37:10Z</time>
      </trkpt>
      <trkpt lat="49.55011" lon="-1.85656">
        <ele>14.5</ele>
        <time>2020-06-14T17:37:11Z</time>
      </trkpt>
      <trkpt lat="49.55016" lon="-1.85655">
        <ele>14.3</ele>
        <time>2020-06-14T17:37:12Z</time>
      </trkpt>
      <trkpt lat="49.55021" lon="-1.85657">
        <ele>13.9</ele>
        <time>2020-06-14T17:37:13Z</time>
      </trkpt>
      <trkpt lat="49.55026" lon="-1.85659">
        <ele>13.6</ele>
        <time>2020-06-14T17:37:14Z</time>
      </trkpt>
      <trkpt lat="49.55031" lon="-1.85664">
        <ele>13.2</ele>
        <time>2020-06-14T17:37:15Z</time>
      </trkpt>
      <trkpt lat="49.55036" lon="-1.85668">
        <ele>12.8</ele>
        <time>2020-06-14T17:37:16Z</time>
      </trkpt>
      <trkpt lat="49.5504" lon="-1.85673">
        <ele>12.5</ele>
        <time>2020-06-14T17:37:17Z</time>
      </trkpt>
      <trkpt lat="49.55045" lon="-1.85677">
        <ele>12.2</ele>
        <time>2020-06-14T17:37:18Z</time>
      </trkpt>
      <trkpt lat="49.5505" lon="-1.85682">
        <ele>11.8</ele>
        <time>2020-06-14T17:37:19Z</time>
      </trkpt>
      <trkpt lat="49.55055" lon="-1.85687">
        <ele>11.4</ele>
        <time>2020-06-14T17:37:20Z</time>
      </trkpt>
      <trkpt lat="49.5506" lon="-1.85692">
        <ele>11.1</ele>
        <time>2020-06-14T17:37:21Z</time>
      </trkpt>
      <trkpt lat="49.55066" lon="-1.85694">
        <ele>10.7</ele>
        <time>2020-06-14T17:37:22Z</time>
      </trkpt>
      <trkpt lat="49.55073" lon="-1.85694">
        <ele>10.3</ele>
        <time>2020-06-14T17:37:23Z</time>
      </trkpt>
      <trkpt lat="49.5508" lon="-1.85691">
        <ele>10.1</ele>
        <time>2020-06-14T17:37:24Z</time>
      </trkpt>
      <trkpt lat="49.55088" lon="-1.85686">
        <ele>9.8</ele>
        <time>2020-06-14T17:37:25Z</time>
      </trkpt>
      <trkpt lat="49.55096" lon="-1.85681">
        <ele>9.4</ele>
        <time>2020-06-14T17:37:26Z</time>
      </trkpt>
      <trkpt lat="49.55104" lon="-1.85677">
        <ele>9.1</ele>
        <time>2020-06-14T17:37:27Z</time>
      </trkpt>
      <trkpt lat="49.55112" lon="-1.85672">
        <ele>8.8</ele>
        <time>2020-06-14T17:37:28Z</time>
      </trkpt>
      <trkpt lat="49.55121" lon="-1.85668">
        <ele>8.4</ele>
        <time>2020-06-14T17:37:29Z</time>
      </trkpt>
      <trkpt lat="49.55129" lon="-1.85664">
        <ele>8.1</ele>
        <time>2020-06-14T17:37:30Z</time>
      </trkpt>
      <trkpt lat="49.55137" lon="-1.85661">
        <ele>7.8</ele>
        <time>2020-06-14T17:37:31Z</time>
      </trkpt>
      <trkpt lat="49.55146" lon="-1.85656">
        <ele>7.6</ele>
        <time>2020-06-14T17:37:32Z</time>
      </trkpt>
      <trkpt lat="49.55154" lon="-1.85653">
        <ele>7.4</ele>
        <time>2020-06-14T17:37:33Z</time>
      </trkpt>
      <trkpt lat="49.55162" lon="-1.85649">
        <ele>7.3</ele>
        <time>2020-06-14T17:37:34Z</time>
      </trkpt>
      <trkpt lat="49.55171" lon="-1.85646">
        <ele>7.4</ele>
        <time>2020-06-14T17:37:35Z</time>
      </trkpt>
      <trkpt lat="49.55179" lon="-1.85644">
        <ele>7.5</ele>
        <time>2020-06-14T17:37:36Z</time>
      </trkpt>
      <trkpt lat="49.55187" lon="-1.85643">
        <ele>7.6</ele>
        <time>2020-06-14T17:37:37Z</time>
      </trkpt>
      <trkpt lat="49.55194" lon="-1.85643">
        <ele>7.6</ele>
        <time>2020-06-14T17:37:38Z</time>
      </trkpt>
      <trkpt lat="49.552" lon="-1.85644">
        <ele>7.7</ele>
        <time>2020-06-14T17:37:39Z</time>
      </trkpt>
      <trkpt lat="49.55207" lon="-1.85644">
        <ele>7.7</ele>
        <time>2020-06-14T17:37:40Z</time>
      </trkpt>
      <trkpt lat="49.55213" lon="-1.85646">
        <ele>8</ele>
        <time>2020-06-14T17:37:41Z</time>
      </trkpt>
      <trkpt lat="49.55218" lon="-1.85648">
        <ele>8</ele>
        <time>2020-06-14T17:37:42Z</time>
      </trkpt>
      <trkpt lat="49.55224" lon="-1.8565">
        <ele>7.9</ele>
        <time>2020-06-14T17:37:43Z</time>
      </trkpt>
      <trkpt lat="49.55229" lon="-1.85651">
        <ele>7.9</ele>
        <time>2020-06-14T17:37:44Z</time>
      </trkpt>
      <trkpt lat="49.55234" lon="-1.85652">
        <ele>7.9</ele>
        <time>2020-06-14T17:37:45Z</time>
      </trkpt>
      <trkpt lat="49.55239" lon="-1.85653">
        <ele>7.9</ele>
        <time>2020-06-14T17:37:46Z</time>
      </trkpt>
      <trkpt lat="49.55244" lon="-1.85655">
        <ele>7.9</ele>
        <time>2020-06-14T17:37:47Z</time>
      </trkpt>
      <trkpt lat="49.55248" lon="-1.85658">
        <ele>8.2</ele>
        <time>2020-06-14T17:37:48Z</time>
      </trkpt>
      <trkpt lat="49.55252" lon="-1.85659">
        <ele>8.5</ele>
        <time>2020-06-14T17:37:49Z</time>
      </trkpt>
      <trkpt lat="49.55256" lon="-1.8566">
        <ele>8.8</ele>
        <time>2020-06-14T17:37:50Z</time>
      </trkpt>
      <trkpt lat="49.55259" lon="-1.85661">
        <ele>9</ele>
        <time>2020-06-14T17:37:51Z</time>
      </trkpt>
      <trkpt lat="49.55263" lon="-1.85663">
        <ele>9.3</ele>
        <time>2020-06-14T17:37:52Z</time>
      </trkpt>
      <trkpt lat="49.55267" lon="-1.85665">
        <ele>9.6</ele>
        <time>2020-06-14T17:37:53Z</time>
      </trkpt>
      <trkpt lat="49.55272" lon="-1.85665">
        <ele>9.9</ele>
        <time>2020-06-14T17:37:54Z</time>
      </trkpt>
      <trkpt lat="49.55275" lon="-1.85666">
        <ele>10.2</ele>
        <time>2020-06-14T17:37:55Z</time>
      </trkpt>
      <trkpt lat="49.55279" lon="-1.85668">
        <ele>10.5</ele>
        <time>2020-06-14T17:37:56Z</time>
      </trkpt>
      <trkpt lat="49.55282" lon="-1.85668">
        <ele>10.7</ele>
        <time>2020-06-14T17:37:57Z</time>
      </trkpt>
      <trkpt lat="49.55286" lon="-1.85669">
        <ele>11</ele>
        <time>2020-06-14T17:37:58Z</time>
      </trkpt>
      <trkpt lat="49.55289" lon="-1.85671">
        <ele>11.3</ele>
        <time>2020-06-14T17:37:59Z</time>
      </trkpt>
      <trkpt lat="49.55293" lon="-1.85672">
        <ele>11.6</ele>
        <time>2020-06-14T17:38:00Z</time>
      </trkpt>
      <trkpt lat="49.55297" lon="-1.85672">
        <ele>11.8</ele>
        <time>2020-06-14T17:38:01Z</time>
      </trkpt>
      <trkpt lat="49.553" lon="-1.85672">
        <ele>12.1</ele>
        <time>2020-06-14T17:38:02Z</time>
      </trkpt>
      <trkpt lat="49.55305" lon="-1.85673">
        <ele>12.4</ele>
        <time>2020-06-14T17:38:03Z</time>
      </trkpt>
      <trkpt lat="49.55309" lon="-1.85673">
        <ele>12.7</ele>
        <time>2020-06-14T17:38:04Z</time>
      </trkpt>
      <trkpt lat="49.55311" lon="-1.85673">
        <ele>12.8</ele>
        <time>2020-06-14T17:38:05Z</time>
      </trkpt>
      <trkpt lat="49.55315" lon="-1.85675">
        <ele>13.2</ele>
        <time>2020-06-14T17:38:06Z</time>
      </trkpt>
      <trkpt lat="49.5532" lon="-1.85676">
        <ele>13.5</ele>
        <time>2020-06-14T17:38:07Z</time>
      </trkpt>
      <trkpt lat="49.55324" lon="-1.85676">
        <ele>13.8</ele>
        <time>2020-06-14T17:38:08Z</time>
      </trkpt>
      <trkpt lat="49.55327" lon="-1.85678">
        <ele>14.1</ele>
        <time>2020-06-14T17:38:09Z</time>
      </trkpt>
      <trkpt lat="49.55331" lon="-1.85679">
        <ele>14.4</ele>
        <time>2020-06-14T17:38:10Z</time>
      </trkpt>
      <trkpt lat="49.55335" lon="-1.8568">
        <ele>14.7</ele>
        <time>2020-06-14T17:38:11Z</time>
      </trkpt>
      <trkpt lat="49.55338" lon="-1.8568">
        <ele>14.9</ele>
        <time>2020-06-14T17:38:12Z</time>
      </trkpt>
      <trkpt lat="49.55341" lon="-1.8568">
        <ele>15.2</ele>
        <time>2020-06-14T17:38:13Z</time>
      </trkpt>
      <trkpt lat="49.55345" lon="-1.85679">
        <ele>15.4</ele>
        <time>2020-06-14T17:38:14Z</time>
      </trkpt>
      <trkpt lat="49.55349" lon="-1.85678">
        <ele>15.9</ele>
        <time>2020-06-14T17:38:15Z</time>
      </trkpt>
      <trkpt lat="49.55354" lon="-1.85676">
        <ele>16.3</ele>
        <time>2020-06-14T17:38:16Z</time>
      </trkpt>
      <trkpt lat="49.55358" lon="-1.85674">
        <ele>16.7</ele>
        <time>2020-06-14T17:38:17Z</time>
      </trkpt>
      <trkpt lat="49.55361" lon="-1.85672">
        <ele>17.1</ele>
        <time>2020-06-14T17:38:18Z</time>
      </trkpt>
      <trkpt lat="49.55365" lon="-1.85671">
        <ele>17.3</ele>
        <time>2020-06-14T17:38:19Z</time>
      </trkpt>
      <trkpt lat="49.55368" lon="-1.85669">
        <ele>17.6</ele>
        <time>2020-06-14T17:38:20Z</time>
      </trkpt>
      <trkpt lat="49.55372" lon="-1.85664">
        <ele>18</ele>
        <time>2020-06-14T17:38:21Z</time>
      </trkpt>
      <trkpt lat="49.55373" lon="-1.85662">
        <ele>18.2</ele>
        <time>2020-06-14T17:38:22Z</time>
      </trkpt>
      <trkpt lat="49.55377" lon="-1.85658">
        <ele>18.5</ele>
        <time>2020-06-14T17:38:23Z</time>
      </trkpt>
      <trkpt lat="49.5538" lon="-1.85655">
        <ele>18.8</ele>
        <time>2020-06-14T17:38:24Z</time>
      </trkpt>
      <trkpt lat="49.55383" lon="-1.85651">
        <ele>19.1</ele>
        <time>2020-06-14T17:38:25Z</time>
      </trkpt>
      <trkpt lat="49.55385" lon="-1.85648">
        <ele>19.4</ele>
        <time>2020-06-14T17:38:26Z</time>
      </trkpt>
      <trkpt lat="49.55388" lon="-1.85644">
        <ele>19.6</ele>
        <time>2020-06-14T17:38:27Z</time>
      </trkpt>
      <trkpt lat="49.55389" lon="-1.85643">
        <ele>19.7</ele>
        <time>2020-06-14T17:38:28Z</time>
      </trkpt>
      <trkpt lat="49.55391" lon="-1.8564">
        <ele>20</ele>
        <time>2020-06-14T17:38:29Z</time>
      </trkpt>
      <trkpt lat="49.55395" lon="-1.85634">
        <ele>20.4</ele>
        <time>2020-06-14T17:38:30Z</time>
      </trkpt>
      <trkpt lat="49.55397" lon="-1.8563">
        <ele>20.6</ele>
        <time>2020-06-14T17:38:31Z</time>
      </trkpt>
      <trkpt lat="49.554" lon="-1.85627">
        <ele>21</ele>
        <time>2020-06-14T17:38:32Z</time>
      </trkpt>
      <trkpt lat="49.55402" lon="-1.85625">
        <ele>21.1</ele>
        <time>2020-06-14T17:38:33Z</time>
      </trkpt>
      <trkpt lat="49.55405" lon="-1.85622">
        <ele>21.4</ele>
        <time>2020-06-14T17:38:34Z</time>
      </trkpt>
      <trkpt lat="49.55408" lon="-1.85619">
        <ele>21.7</ele>
        <time>2020-06-14T17:38:35Z</time>
      </trkpt>
      <trkpt lat="49.55409" lon="-1.85617">
        <ele>21.8</ele>
        <time>2020-06-14T17:38:36Z</time>
      </trkpt>
      <trkpt lat="49.55412" lon="-1.85612">
        <ele>22.1</ele>
        <time>2020-06-14T17:38:37Z</time>
      </trkpt>
      <trkpt lat="49.55414" lon="-1.85607">
        <ele>22.4</ele>
        <time>2020-06-14T17:38:38Z</time>
      </trkpt>
      <trkpt lat="49.55417" lon="-1.85604">
        <ele>22.6</ele>
        <time>2020-06-14T17:38:39Z</time>
      </trkpt>
      <trkpt lat="49.5542" lon="-1.85601">
        <ele>22.9</ele>
        <time>2020-06-14T17:38:40Z</time>
      </trkpt>
      <trkpt lat="49.55422" lon="-1.85597">
        <ele>23.1</ele>
        <time>2020-06-14T17:38:41Z</time>
      </trkpt>
      <trkpt lat="49.55425" lon="-1.85593">
        <ele>23.3</ele>
        <time>2020-06-14T17:38:42Z</time>
      </trkpt>
      <trkpt lat="49.55428" lon="-1.85589">
        <ele>23.6</ele>
        <time>2020-06-14T17:38:43Z</time>
      </trkpt>
      <trkpt lat="49.5543" lon="-1.85586">
        <ele>23.8</ele>
        <time>2020-06-14T17:38:44Z</time>
      </trkpt>
      <trkpt lat="49.55433" lon="-1.85581">
        <ele>24</ele>
        <time>2020-06-14T17:38:45Z</time>
      </trkpt>
      <trkpt lat="49.55434" lon="-1.85577">
        <ele>24.2</ele>
        <time>2020-06-14T17:38:46Z</time>
      </trkpt>
      <trkpt lat="49.55437" lon="-1.85571">
        <ele>24.4</ele>
        <time>2020-06-14T17:38:47Z</time>
      </trkpt>
      <trkpt lat="49.5544" lon="-1.85567">
        <ele>24.5</ele>
        <time>2020-06-14T17:38:48Z</time>
      </trkpt>
      <trkpt lat="49.55443" lon="-1.85562">
        <ele>24.6</ele>
        <time>2020-06-14T17:38:49Z</time>
      </trkpt>
      <trkpt lat="49.55446" lon="-1.85558">
        <ele>24.7</ele>
        <time>2020-06-14T17:38:50Z</time>
      </trkpt>
      <trkpt lat="49.55447" lon="-1.85556">
        <ele>24.8</ele>
        <time>2020-06-14T17:38:51Z</time>
      </trkpt>
      <trkpt lat="49.5545" lon="-1.85552">
        <ele>24.9</ele>
        <time>2020-06-14T17:38:52Z</time>
      </trkpt>
      <trkpt lat="49.55453" lon="-1.85547">
        <ele>25</ele>
        <time>2020-06-14T17:38:53Z</time>
      </trkpt>
      <trkpt lat="49.55454" lon="-1.85543">
        <ele>25.1</ele>
        <time>2020-06-14T17:38:54Z</time>
      </trkpt>
      <trkpt lat="49.55456" lon="-1.85538">
        <ele>25.2</ele>
        <time>2020-06-14T17:38:55Z</time>
      </trkpt>
      <trkpt lat="49.55459" lon="-1.85533">
        <ele>25.2</ele>
        <time>2020-06-14T17:38:56Z</time>
      </trkpt>
      <trkpt lat="49.55461" lon="-1.85528">
        <ele>25.3</ele>
        <time>2020-06-14T17:38:57Z</time>
      </trkpt>
      <trkpt lat="49.55463" lon="-1.85523">
        <ele>25.4</ele>
        <time>2020-06-14T17:38:58Z</time>
      </trkpt>
      <trkpt lat="49.55466" lon="-1.85518">
        <ele>25.4</ele>
        <time>2020-06-14T17:38:59Z</time>
      </trkpt>
      <trkpt lat="49.55468" lon="-1.85513">
        <ele>25.5</ele>
        <time>2020-06-14T17:39:00Z</time>
      </trkpt>
      <trkpt lat="49.55471" lon="-1.85509">
        <ele>25.5</ele>
        <time>2020-06-14T17:39:01Z</time>
      </trkpt>
      <trkpt lat="49.55474" lon="-1.85504">
        <ele>25.6</ele>
        <time>2020-06-14T17:39:02Z</time>
      </trkpt>
      <trkpt lat="49.55477" lon="-1.85499">
        <ele>25.6</ele>
        <time>2020-06-14T17:39:03Z</time>
      </trkpt>
      <trkpt lat="49.5548" lon="-1.85495">
        <ele>25.7</ele>
        <time>2020-06-14T17:39:04Z</time>
      </trkpt>
      <trkpt lat="49.55484" lon="-1.85489">
        <ele>25.8</ele>
        <time>2020-06-14T17:39:05Z</time>
      </trkpt>
      <trkpt lat="49.55487" lon="-1.85484">
        <ele>25.9</ele>
        <time>2020-06-14T17:39:06Z</time>
      </trkpt>
      <trkpt lat="49.5549" lon="-1.85479">
        <ele>25.9</ele>
        <time>2020-06-14T17:39:07Z</time>
      </trkpt>
      <trkpt lat="49.55492" lon="-1.85474">
        <ele>26</ele>
        <time>2020-06-14T17:39:08Z</time>
      </trkpt>
      <trkpt lat="49.55495" lon="-1.85469">
        <ele>26.1</ele>
        <time>2020-06-14T17:39:09Z</time>
      </trkpt>
      <trkpt lat="49.55498" lon="-1.85463">
        <ele>26.1</ele>
        <time>2020-06-14T17:39:10Z</time>
      </trkpt>
      <trkpt lat="49.555" lon="-1.85459">
        <ele>26.2</ele>
        <time>2020-06-14T17:39:11Z</time>
      </trkpt>
      <trkpt lat="49.55502" lon="-1.85453">
        <ele>26.2</ele>
        <time>2020-06-14T17:39:12Z</time>
      </trkpt>
      <trkpt lat="49.55505" lon="-1.85447">
        <ele>26.3</ele>
        <time>2020-06-14T17:39:13Z</time>
      </trkpt>
      <trkpt lat="49.55507" lon="-1.85441">
        <ele>26.3</ele>
        <time>2020-06-14T17:39:14Z</time>
      </trkpt>
      <trkpt lat="49.5551" lon="-1.85435">
        <ele>26.3</ele>
        <time>2020-06-14T17:39:15Z</time>
      </trkpt>
      <trkpt lat="49.55514" lon="-1.8543">
        <ele>26.4</ele>
        <time>2020-06-14T17:39:16Z</time>
      </trkpt>
      <trkpt lat="49.55517" lon="-1.85424">
        <ele>26.4</ele>
        <time>2020-06-14T17:39:17Z</time>
      </trkpt>
      <trkpt lat="49.55519" lon="-1.85418">
        <ele>26.4</ele>
        <time>2020-06-14T17:39:18Z</time>
      </trkpt>
      <trkpt lat="49.55521" lon="-1.85412">
        <ele>26.5</ele>
        <time>2020-06-14T17:39:19Z</time>
      </trkpt>
      <trkpt lat="49.55524" lon="-1.85407">
        <ele>26.5</ele>
        <time>2020-06-14T17:39:20Z</time>
      </trkpt>
      <trkpt lat="49.55527" lon="-1.85402">
        <ele>26.6</ele>
        <time>2020-06-14T17:39:21Z</time>
      </trkpt>
      <trkpt lat="49.5553" lon="-1.85397">
        <ele>26.7</ele>
        <time>2020-06-14T17:39:22Z</time>
      </trkpt>
      <trkpt lat="49.55532" lon="-1.85391">
        <ele>26.7</ele>
        <time>2020-06-14T17:39:23Z</time>
      </trkpt>
      <trkpt lat="49.55534" lon="-1.85385">
        <ele>26.8</ele>
        <time>2020-06-14T17:39:24Z</time>
      </trkpt>
      <trkpt lat="49.55536" lon="-1.8538">
        <ele>26.9</ele>
        <time>2020-06-14T17:39:25Z</time>
      </trkpt>
      <trkpt lat="49.55539" lon="-1.85375">
        <ele>26.9</ele>
        <time>2020-06-14T17:39:26Z</time>
      </trkpt>
      <trkpt lat="49.55541" lon="-1.85369">
        <ele>27</ele>
        <time>2020-06-14T17:39:27Z</time>
      </trkpt>
      <trkpt lat="49.55542" lon="-1.85365">
        <ele>27</ele>
        <time>2020-06-14T17:39:28Z</time>
      </trkpt>
      <trkpt lat="49.55544" lon="-1.85361">
        <ele>27</ele>
        <time>2020-06-14T17:39:29Z</time>
      </trkpt>
      <trkpt lat="49.55546" lon="-1.85354">
        <ele>27.1</ele>
        <time>2020-06-14T17:39:30Z</time>
      </trkpt>
      <trkpt lat="49.55548" lon="-1.8535">
        <ele>27.2</ele>
        <time>2020-06-14T17:39:31Z</time>
      </trkpt>
      <trkpt lat="49.5555" lon="-1.85344">
        <ele>27.2</ele>
        <time>2020-06-14T17:39:32Z</time>
      </trkpt>
      <trkpt lat="49.55553" lon="-1.85339">
        <ele>27.3</ele>
        <time>2020-06-14T17:39:33Z</time>
      </trkpt>
      <trkpt lat="49.55556" lon="-1.85334">
        <ele>27.3</ele>
        <time>2020-06-14T17:39:34Z</time>
      </trkpt>
      <trkpt lat="49.55558" lon="-1.85331">
        <ele>27.4</ele>
        <time>2020-06-14T17:39:35Z</time>
      </trkpt>
      <trkpt lat="49.55561" lon="-1.85326">
        <ele>27.4</ele>
        <time>2020-06-14T17:39:36Z</time>
      </trkpt>
      <trkpt lat="49.55563" lon="-1.8532">
        <ele>27.5</ele>
        <time>2020-06-14T17:39:37Z</time>
      </trkpt>
      <trkpt lat="49.55566" lon="-1.85314">
        <ele>27.6</ele>
        <time>2020-06-14T17:39:38Z</time>
      </trkpt>
      <trkpt lat="49.55568" lon="-1.85307">
        <ele>27.7</ele>
        <time>2020-06-14T17:39:39Z</time>
      </trkpt>
      <trkpt lat="49.55571" lon="-1.85302">
        <ele>27.8</ele>
        <time>2020-06-14T17:39:40Z</time>
      </trkpt>
      <trkpt lat="49.55573" lon="-1.85296">
        <ele>27.9</ele>
        <time>2020-06-14T17:39:41Z</time>
      </trkpt>
      <trkpt lat="49.55577" lon="-1.85292">
        <ele>28</ele>
        <time>2020-06-14T17:39:42Z</time>
      </trkpt>
      <trkpt lat="49.5558" lon="-1.85286">
        <ele>28.1</ele>
        <time>2020-06-14T17:39:43Z</time>
      </trkpt>
      <trkpt lat="49.55582" lon="-1.85282">
        <ele>28.2</ele>
        <time>2020-06-14T17:39:44Z</time>
      </trkpt>
      <trkpt lat="49.55585" lon="-1.85276">
        <ele>28.3</ele>
        <time>2020-06-14T17:39:45Z</time>
      </trkpt>
      <trkpt lat="49.55588" lon="-1.85271">
        <ele>28.4</ele>
        <time>2020-06-14T17:39:46Z</time>
      </trkpt>
      <trkpt lat="49.5559" lon="-1.85265">
        <ele>28.5</ele>
        <time>2020-06-14T17:39:47Z</time>
      </trkpt>
      <trkpt lat="49.55591" lon="-1.85261">
        <ele>28.6</ele>
        <time>2020-06-14T17:39:48Z</time>
      </trkpt>
      <trkpt lat="49.55594" lon="-1.85256">
        <ele>28.7</ele>
        <time>2020-06-14T17:39:49Z</time>
      </trkpt>
      <trkpt lat="49.55597" lon="-1.85251">
        <ele>28.8</ele>
        <time>2020-06-14T17:39:50Z</time>
      </trkpt>
      <trkpt lat="49.55599" lon="-1.85245">
        <ele>29</ele>
        <time>2020-06-14T17:39:51Z</time>
      </trkpt>
      <trkpt lat="49.55601" lon="-1.85242">
        <ele>29.1</ele>
        <time>2020-06-14T17:39:52Z</time>
      </trkpt>
      <trkpt lat="49.55604" lon="-1.85238">
        <ele>29.2</ele>
        <time>2020-06-14T17:39:53Z</time>
      </trkpt>
      <trkpt lat="49.55607" lon="-1.85233">
        <ele>29.4</ele>
        <time>2020-06-14T17:39:54Z</time>
      </trkpt>
      <trkpt lat="49.55608" lon="-1.85227">
        <ele>29.5</ele>
        <time>2020-06-14T17:39:55Z</time>
      </trkpt>
      <trkpt lat="49.55611" lon="-1.85222">
        <ele>29.7</ele>
        <time>2020-06-14T17:39:56Z</time>
      </trkpt>
      <trkpt lat="49.55613" lon="-1.85217">
        <ele>29.9</ele>
        <time>2020-06-14T17:39:57Z</time>
      </trkpt>
      <trkpt lat="49.55614" lon="-1.85213">
        <ele>30.1</ele>
        <time>2020-06-14T17:39:58Z</time>
      </trkpt>
      <trkpt lat="49.55618" lon="-1.85209">
        <ele>30.3</ele>
        <time>2020-06-14T17:39:59Z</time>
      </trkpt>
      <trkpt lat="49.5562" lon="-1.85207">
        <ele>30.4</ele>
        <time>2020-06-14T17:40:00Z</time>
      </trkpt>
      <trkpt lat="49.55622" lon="-1.85204">
        <ele>30.5</ele>
        <time>2020-06-14T17:40:01Z</time>
      </trkpt>
      <trkpt lat="49.55625" lon="-1.85198">
        <ele>30.8</ele>
        <time>2020-06-14T17:40:02Z</time>
      </trkpt>
      <trkpt lat="49.5563" lon="-1.85193">
        <ele>31.1</ele>
        <time>2020-06-14T17:40:03Z</time>
      </trkpt>
      <trkpt lat="49.55632" lon="-1.8519">
        <ele>31.3</ele>
        <time>2020-06-14T17:40:04Z</time>
      </trkpt>
      <trkpt lat="49.55635" lon="-1.85187">
        <ele>31.5</ele>
        <time>2020-06-14T17:40:05Z</time>
      </trkpt>
      <trkpt lat="49.55637" lon="-1.85184">
        <ele>31.7</ele>
        <time>2020-06-14T17:40:06Z</time>
      </trkpt>
      <trkpt lat="49.55641" lon="-1.8518">
        <ele>32</ele>
        <time>2020-06-14T17:40:07Z</time>
      </trkpt>
      <trkpt lat="49.55644" lon="-1.85176">
        <ele>32.3</ele>
        <time>2020-06-14T17:40:08Z</time>
      </trkpt>
      <trkpt lat="49.55647" lon="-1.85173">
        <ele>32.5</ele>
        <time>2020-06-14T17:40:09Z</time>
      </trkpt>
      <trkpt lat="49.5565" lon="-1.85169">
        <ele>32.8</ele>
        <time>2020-06-14T17:40:10Z</time>
      </trkpt>
      <trkpt lat="49.55654" lon="-1.85166">
        <ele>33.1</ele>
        <time>2020-06-14T17:40:11Z</time>
      </trkpt>
      <trkpt lat="49.55658" lon="-1.85161">
        <ele>33.4</ele>
        <time>2020-06-14T17:40:12Z</time>
      </trkpt>
      <trkpt lat="49.55661" lon="-1.85158">
        <ele>33.7</ele>
        <time>2020-06-14T17:40:13Z</time>
      </trkpt>
      <trkpt lat="49.55665" lon="-1.85155">
        <ele>33.9</ele>
        <time>2020-06-14T17:40:14Z</time>
      </trkpt>
      <trkpt lat="49.55667" lon="-1.85152">
        <ele>34.2</ele>
        <time>2020-06-14T17:40:15Z</time>
      </trkpt>
      <trkpt lat="49.55671" lon="-1.85149">
        <ele>34.4</ele>
        <time>2020-06-14T17:40:16Z</time>
      </trkpt>
      <trkpt lat="49.55674" lon="-1.85146">
        <ele>34.7</ele>
        <time>2020-06-14T17:40:17Z</time>
      </trkpt>
      <trkpt lat="49.55677" lon="-1.85142">
        <ele>35</ele>
        <time>2020-06-14T17:40:18Z</time>
      </trkpt>
      <trkpt lat="49.55681" lon="-1.85137">
        <ele>35.4</ele>
        <time>2020-06-14T17:40:19Z</time>
      </trkpt>
      <trkpt lat="49.55684" lon="-1.85135">
        <ele>35.7</ele>
        <time>2020-06-14T17:40:20Z</time>
      </trkpt>
      <trkpt lat="49.55685" lon="-1.85134">
        <ele>35.8</ele>
        <time>2020-06-14T17:40:21Z</time>
      </trkpt>
      <trkpt lat="49.55688" lon="-1.85131">
        <ele>36.1</ele>
        <time>2020-06-14T17:40:22Z</time>
      </trkpt>
      <trkpt lat="49.55691" lon="-1.85128">
        <ele>36.3</ele>
        <time>2020-06-14T17:40:23Z</time>
      </trkpt>
      <trkpt lat="49.55693" lon="-1.85126">
        <ele>36.5</ele>
        <time>2020-06-14T17:40:24Z</time>
      </trkpt>
      <trkpt lat="49.55695" lon="-1.85123">
        <ele>36.7</ele>
        <time>2020-06-14T17:40:25Z</time>
      </trkpt>
      <trkpt lat="49.557" lon="-1.85117">
        <ele>37.2</ele>
        <time>2020-06-14T17:40:26Z</time>
      </trkpt>
      <trkpt lat="49.55703" lon="-1.85113">
        <ele>37.5</ele>
        <time>2020-06-14T17:40:27Z</time>
      </trkpt>
      <trkpt lat="49.55706" lon="-1.85109">
        <ele>37.9</ele>
        <time>2020-06-14T17:40:28Z</time>
      </trkpt>
      <trkpt lat="49.55709" lon="-1.85105">
        <ele>38.2</ele>
        <time>2020-06-14T17:40:29Z</time>
      </trkpt>
      <trkpt lat="49.55713" lon="-1.85101">
        <ele>38.6</ele>
        <time>2020-06-14T17:40:30Z</time>
      </trkpt>
      <trkpt lat="49.55715" lon="-1.85099">
        <ele>38.8</ele>
        <time>2020-06-14T17:40:31Z</time>
      </trkpt>
      <trkpt lat="49.55718" lon="-1.85095">
        <ele>39.1</ele>
        <time>2020-06-14T17:40:32Z</time>
      </trkpt>
      <trkpt lat="49.5572" lon="-1.85091">
        <ele>39.3</ele>
        <time>2020-06-14T17:40:33Z</time>
      </trkpt>
      <trkpt lat="49.55722" lon="-1.85088">
        <ele>39.6</ele>
        <time>2020-06-14T17:40:34Z</time>
      </trkpt>
      <trkpt lat="49.55724" lon="-1.85084">
        <ele>39.8</ele>
        <time>2020-06-14T17:40:35Z</time>
      </trkpt>
      <trkpt lat="49.55728" lon="-1.8508">
        <ele>40.2</ele>
        <time>2020-06-14T17:40:36Z</time>
      </trkpt>
      <trkpt lat="49.5573" lon="-1.85076">
        <ele>40.5</ele>
        <time>2020-06-14T17:40:37Z</time>
      </trkpt>
      <trkpt lat="49.55733" lon="-1.85072">
        <ele>40.8</ele>
        <time>2020-06-14T17:40:38Z</time>
      </trkpt>
      <trkpt lat="49.55736" lon="-1.85068">
        <ele>41.1</ele>
        <time>2020-06-14T17:40:39Z</time>
      </trkpt>
      <trkpt lat="49.55739" lon="-1.85064">
        <ele>41.4</ele>
        <time>2020-06-14T17:40:40Z</time>
      </trkpt>
      <trkpt lat="49.55741" lon="-1.85062">
        <ele>41.6</ele>
        <time>2020-06-14T17:40:41Z</time>
      </trkpt>
      <trkpt lat="49.55744" lon="-1.85057">
        <ele>41.9</ele>
        <time>2020-06-14T17:40:42Z</time>
      </trkpt>
      <trkpt lat="49.55746" lon="-1.85052">
        <ele>42.2</ele>
        <time>2020-06-14T17:40:43Z</time>
      </trkpt>
      <trkpt lat="49.55747" lon="-1.8505">
        <ele>42.3</ele>
        <time>2020-06-14T17:40:44Z</time>
      </trkpt>
      <trkpt lat="49.55749" lon="-1.85045">
        <ele>42.6</ele>
        <time>2020-06-14T17:40:45Z</time>
      </trkpt>
      <trkpt lat="49.55752" lon="-1.85039">
        <ele>42.9</ele>
        <time>2020-06-14T17:40:46Z</time>
      </trkpt>
      <trkpt lat="49.55755" lon="-1.85034">
        <ele>43.2</ele>
        <time>2020-06-14T17:40:47Z</time>
      </trkpt>
      <trkpt lat="49.55758" lon="-1.85029">
        <ele>43.5</ele>
        <time>2020-06-14T17:40:48Z</time>
      </trkpt>
      <trkpt lat="49.5576" lon="-1.85025">
        <ele>43.8</ele>
        <time>2020-06-14T17:40:49Z</time>
      </trkpt>
      <trkpt lat="49.55761" lon="-1.85017">
        <ele>44.2</ele>
        <time>2020-06-14T17:40:50Z</time>
      </trkpt>
      <trkpt lat="49.55762" lon="-1.85008">
        <ele>44.6</ele>
        <time>2020-06-14T17:40:51Z</time>
      </trkpt>
      <trkpt lat="49.55763" lon="-1.85003">
        <ele>44.9</ele>
        <time>2020-06-14T17:40:52Z</time>
      </trkpt>
      <trkpt lat="49.55764" lon="-1.84998">
        <ele>45.2</ele>
        <time>2020-06-14T17:40:53Z</time>
      </trkpt>
      <trkpt lat="49.55764" lon="-1.84993">
        <ele>45.5</ele>
        <time>2020-06-14T17:40:54Z</time>
      </trkpt>
      <trkpt lat="49.55763" lon="-1.84987">
        <ele>45.8</ele>
        <time>2020-06-14T17:40:55Z</time>
      </trkpt>
      <trkpt lat="49.55763" lon="-1.84982">
        <ele>46.1</ele>
        <time>2020-06-14T17:40:56Z</time>
      </trkpt>
      <trkpt lat="49.55763" lon="-1.84981">
        <ele>46.1</ele>
        <time>2020-06-14T17:40:57Z</time>
      </trkpt>
      <trkpt lat="49.55764" lon="-1.84976">
        <ele>46.4</ele>
        <time>2020-06-14T17:40:58Z</time>
      </trkpt>
      <trkpt lat="49.55763" lon="-1.84974">
        <ele>46.5</ele>
        <time>2020-06-14T17:40:59Z</time>
      </trkpt>
      <trkpt lat="49.55764" lon="-1.84968">
        <ele>46.9</ele>
        <time>2020-06-14T17:41:00Z</time>
      </trkpt>
      <trkpt lat="49.55764" lon="-1.84966">
        <ele>47</ele>
        <time>2020-06-14T17:41:01Z</time>
      </trkpt>
      <trkpt lat="49.55763" lon="-1.84962">
        <ele>47.2</ele>
        <time>2020-06-14T17:41:02Z</time>
      </trkpt>
      <trkpt lat="49.55762" lon="-1.84957">
        <ele>47.4</ele>
        <time>2020-06-14T17:41:03Z</time>
      </trkpt>
      <trkpt lat="49.55762" lon="-1.84952">
        <ele>47.7</ele>
        <time>2020-06-14T17:41:04Z</time>
      </trkpt>
      <trkpt lat="49.55761" lon="-1.84948">
        <ele>48</ele>
        <time>2020-06-14T17:41:05Z</time>
      </trkpt>
      <trkpt lat="49.5576" lon="-1.84941">
        <ele>48.3</ele>
        <time>2020-06-14T17:41:06Z</time>
      </trkpt>
      <trkpt lat="49.5576" lon="-1.84938">
        <ele>48.4</ele>
        <time>2020-06-14T17:41:07Z</time>
      </trkpt>
      <trkpt lat="49.55759" lon="-1.84933">
        <ele>48.7</ele>
        <time>2020-06-14T17:41:08Z</time>
      </trkpt>
      <trkpt lat="49.55759" lon="-1.84929">
        <ele>48.9</ele>
        <time>2020-06-14T17:41:09Z</time>
      </trkpt>
      <trkpt lat="49.55758" lon="-1.84922">
        <ele>49.2</ele>
        <time>2020-06-14T17:41:10Z</time>
      </trkpt>
      <trkpt lat="49.55758" lon="-1.84916">
        <ele>49.5</ele>
        <time>2020-06-14T17:41:11Z</time>
      </trkpt>
      <trkpt lat="49.55757" lon="-1.84911">
        <ele>49.7</ele>
        <time>2020-06-14T17:41:12Z</time>
      </trkpt>
      <trkpt lat="49.55757" lon="-1.84906">
        <ele>49.9</ele>
        <time>2020-06-14T17:41:13Z</time>
      </trkpt>
      <trkpt lat="49.55756" lon="-1.849">
        <ele>50.2</ele>
        <time>2020-06-14T17:41:14Z</time>
      </trkpt>
      <trkpt lat="49.55756" lon="-1.84898">
        <ele>50.3</ele>
        <time>2020-06-14T17:41:15Z</time>
      </trkpt>
      <trkpt lat="49.55756" lon="-1.84893">
        <ele>50.5</ele>
        <time>2020-06-14T17:41:16Z</time>
      </trkpt>
      <trkpt lat="49.55756" lon="-1.84888">
        <ele>50.8</ele>
        <time>2020-06-14T17:41:17Z</time>
      </trkpt>
      <trkpt lat="49.55756" lon="-1.84883">
        <ele>51</ele>
        <time>2020-06-14T17:41:18Z</time>
      </trkpt>
      <trkpt lat="49.55755" lon="-1.84878">
        <ele>51.2</ele>
        <time>2020-06-14T17:41:19Z</time>
      </trkpt>
      <trkpt lat="49.55756" lon="-1.84873">
        <ele>51.4</ele>
        <time>2020-06-14T17:41:20Z</time>
      </trkpt>
      <trkpt lat="49.55756" lon="-1.84868">
        <ele>51.6</ele>
        <time>2020-06-14T17:41:21Z</time>
      </trkpt>
      <trkpt lat="49.55756" lon="-1.84862">
        <ele>51.9</ele>
        <time>2020-06-14T17:41:22Z</time>
      </trkpt>
      <trkpt lat="49.55755" lon="-1.84857">
        <ele>52.1</ele>
        <time>2020-06-14T17:41:23Z</time>
      </trkpt>
      <trkpt lat="49.55755" lon="-1.84852">
        <ele>52.4</ele>
        <time>2020-06-14T17:41:24Z</time>
      </trkpt>
      <trkpt lat="49.55755" lon="-1.84847">
        <ele>52.6</ele>
        <time>2020-06-14T17:41:25Z</time>
      </trkpt>
      <trkpt lat="49.55754" lon="-1.84843">
        <ele>52.7</ele>
        <time>2020-06-14T17:41:26Z</time>
      </trkpt>
      <trkpt lat="49.55754" lon="-1.84837">
        <ele>52.9</ele>
        <time>2020-06-14T17:41:27Z</time>
      </trkpt>
      <trkpt lat="49.55753" lon="-1.84832">
        <ele>53</ele>
        <time>2020-06-14T17:41:28Z</time>
      </trkpt>
      <trkpt lat="49.55752" lon="-1.84826">
        <ele>53.1</ele>
        <time>2020-06-14T17:41:29Z</time>
      </trkpt>
      <trkpt lat="49.55752" lon="-1.84822">
        <ele>53.3</ele>
        <time>2020-06-14T17:41:30Z</time>
      </trkpt>
      <trkpt lat="49.5575" lon="-1.84816">
        <ele>53.4</ele>
        <time>2020-06-14T17:41:31Z</time>
      </trkpt>
      <trkpt lat="49.55749" lon="-1.8481">
        <ele>53.5</ele>
        <time>2020-06-14T17:41:32Z</time>
      </trkpt>
      <trkpt lat="49.55749" lon="-1.84805">
        <ele>53.6</ele>
        <time>2020-06-14T17:41:33Z</time>
      </trkpt>
      <trkpt lat="49.55748" lon="-1.848">
        <ele>53.6</ele>
        <time>2020-06-14T17:41:34Z</time>
      </trkpt>
      <trkpt lat="49.55747" lon="-1.84795">
        <ele>53.7</ele>
        <time>2020-06-14T17:41:35Z</time>
      </trkpt>
      <trkpt lat="49.55747" lon="-1.8479">
        <ele>53.7</ele>
        <time>2020-06-14T17:41:36Z</time>
      </trkpt>
      <trkpt lat="49.55746" lon="-1.84784">
        <ele>53.8</ele>
        <time>2020-06-14T17:41:37Z</time>
      </trkpt>
      <trkpt lat="49.55745" lon="-1.84778">
        <ele>53.8</ele>
        <time>2020-06-14T17:41:38Z</time>
      </trkpt>
      <trkpt lat="49.55744" lon="-1.84772">
        <ele>53.9</ele>
        <time>2020-06-14T17:41:39Z</time>
      </trkpt>
      <trkpt lat="49.55742" lon="-1.84767">
        <ele>53.9</ele>
        <time>2020-06-14T17:41:40Z</time>
      </trkpt>
      <trkpt lat="49.55741" lon="-1.84761">
        <ele>53.9</ele>
        <time>2020-06-14T17:41:41Z</time>
      </trkpt>
      <trkpt lat="49.55739" lon="-1.84754">
        <ele>53.9</ele>
        <time>2020-06-14T17:41:42Z</time>
      </trkpt>
      <trkpt lat="49.55737" lon="-1.84748">
        <ele>53.9</ele>
        <time>2020-06-14T17:41:43Z</time>
      </trkpt>
      <trkpt lat="49.55735" lon="-1.84741">
        <ele>53.8</ele>
        <time>2020-06-14T17:41:44Z</time>
      </trkpt>
      <trkpt lat="49.55734" lon="-1.84735">
        <ele>53.8</ele>
        <time>2020-06-14T17:41:45Z</time>
      </trkpt>
      <trkpt lat="49.55732" lon="-1.84727">
        <ele>53.8</ele>
        <time>2020-06-14T17:41:46Z</time>
      </trkpt>
      <trkpt lat="49.5573" lon="-1.84719">
        <ele>53.7</ele>
        <time>2020-06-14T17:41:47Z</time>
      </trkpt>
      <trkpt lat="49.55729" lon="-1.84713">
        <ele>53.7</ele>
        <time>2020-06-14T17:41:48Z</time>
      </trkpt>
      <trkpt lat="49.55728" lon="-1.84706">
        <ele>53.6</ele>
        <time>2020-06-14T17:41:49Z</time>
      </trkpt>
      <trkpt lat="49.55728" lon="-1.847">
        <ele>53.5</ele>
        <time>2020-06-14T17:41:50Z</time>
      </trkpt>
      <trkpt lat="49.55729" lon="-1.84694">
        <ele>53.5</ele>
        <time>2020-06-14T17:41:51Z</time>
      </trkpt>
      <trkpt lat="49.55732" lon="-1.84691">
        <ele>53.5</ele>
        <time>2020-06-14T17:41:52Z</time>
      </trkpt>
      <trkpt lat="49.55737" lon="-1.84691">
        <ele>53.5</ele>
        <time>2020-06-14T17:41:53Z</time>
      </trkpt>
      <trkpt lat="49.55742" lon="-1.8469">
        <ele>53.4</ele>
        <time>2020-06-14T17:41:54Z</time>
      </trkpt>
      <trkpt lat="49.55749" lon="-1.8469">
        <ele>53.4</ele>
        <time>2020-06-14T17:41:55Z</time>
      </trkpt>
      <trkpt lat="49.55755" lon="-1.84691">
        <ele>53.3</ele>
        <time>2020-06-14T17:41:56Z</time>
      </trkpt>
      <trkpt lat="49.5576" lon="-1.84691">
        <ele>53.3</ele>
        <time>2020-06-14T17:41:57Z</time>
      </trkpt>
      <trkpt lat="49.55764" lon="-1.84691">
        <ele>53.3</ele>
        <time>2020-06-14T17:41:58Z</time>
      </trkpt>
      <trkpt lat="49.55769" lon="-1.84691">
        <ele>53.3</ele>
        <time>2020-06-14T17:41:59Z</time>
      </trkpt>
      <trkpt lat="49.55773" lon="-1.8469">
        <ele>53.3</ele>
        <time>2020-06-14T17:42:00Z</time>
      </trkpt>
      <trkpt lat="49.55777" lon="-1.84689">
        <ele>53.3</ele>
        <time>2020-06-14T17:42:01Z</time>
      </trkpt>
      <trkpt lat="49.55782" lon="-1.84689">
        <ele>53.3</ele>
        <time>2020-06-14T17:42:02Z</time>
      </trkpt>
      <trkpt lat="49.55786" lon="-1.84688">
        <ele>53.3</ele>
        <time>2020-06-14T17:42:03Z</time>
      </trkpt>
      <trkpt lat="49.5579" lon="-1.84687">
        <ele>53.3</ele>
        <time>2020-06-14T17:42:04Z</time>
      </trkpt>
      <trkpt lat="49.55795" lon="-1.84686">
        <ele>53.3</ele>
        <time>2020-06-14T17:42:05Z</time>
      </trkpt>
      <trkpt lat="49.55799" lon="-1.84685">
        <ele>53.3</ele>
        <time>2020-06-14T17:42:06Z</time>
      </trkpt>
      <trkpt lat="49.55804" lon="-1.84684">
        <ele>53.3</ele>
        <time>2020-06-14T17:42:07Z</time>
      </trkpt>
      <trkpt lat="49.55808" lon="-1.84683">
        <ele>53.3</ele>
        <time>2020-06-14T17:42:08Z</time>
      </trkpt>
      <trkpt lat="49.55813" lon="-1.8468">
        <ele>53.3</ele>
        <time>2020-06-14T17:42:09Z</time>
      </trkpt>
      <trkpt lat="49.55816" lon="-1.8468">
        <ele>53.3</ele>
        <time>2020-06-14T17:42:10Z</time>
      </trkpt>
      <trkpt lat="49.5582" lon="-1.84678">
        <ele>53.3</ele>
        <time>2020-06-14T17:42:11Z</time>
      </trkpt>
      <trkpt lat="49.55825" lon="-1.84676">
        <ele>53.3</ele>
        <time>2020-06-14T17:42:12Z</time>
      </trkpt>
      <trkpt lat="49.55828" lon="-1.84673">
        <ele>53.3</ele>
        <time>2020-06-14T17:42:13Z</time>
      </trkpt>
      <trkpt lat="49.5583" lon="-1.84667">
        <ele>53.3</ele>
        <time>2020-06-14T17:42:14Z</time>
      </trkpt>
      <trkpt lat="49.55831" lon="-1.84661">
        <ele>53.3</ele>
        <time>2020-06-14T17:42:15Z</time>
      </trkpt>
      <trkpt lat="49.5583" lon="-1.84655">
        <ele>53.3</ele>
        <time>2020-06-14T17:42:16Z</time>
      </trkpt>
      <trkpt lat="49.55829" lon="-1.84647">
        <ele>53.3</ele>
        <time>2020-06-14T17:42:17Z</time>
      </trkpt>
      <trkpt lat="49.55828" lon="-1.84641">
        <ele>53.3</ele>
        <time>2020-06-14T17:42:18Z</time>
      </trkpt>
      <trkpt lat="49.55827" lon="-1.84634">
        <ele>53.3</ele>
        <time>2020-06-14T17:42:19Z</time>
      </trkpt>
      <trkpt lat="49.55827" lon="-1.84628">
        <ele>53.2</ele>
        <time>2020-06-14T17:42:20Z</time>
      </trkpt>
      <trkpt lat="49.55826" lon="-1.84621">
        <ele>53.1</ele>
        <time>2020-06-14T17:42:21Z</time>
      </trkpt>
      <trkpt lat="49.55824" lon="-1.84613">
        <ele>53</ele>
        <time>2020-06-14T17:42:22Z</time>
      </trkpt>
      <trkpt lat="49.55823" lon="-1.84605">
        <ele>52.9</ele>
        <time>2020-06-14T17:42:23Z</time>
      </trkpt>
      <trkpt lat="49.55823" lon="-1.84599">
        <ele>52.9</ele>
        <time>2020-06-14T17:42:24Z</time>
      </trkpt>
      <trkpt lat="49.55822" lon="-1.84593">
        <ele>52.8</ele>
        <time>2020-06-14T17:42:25Z</time>
      </trkpt>
      <trkpt lat="49.55821" lon="-1.84585">
        <ele>52.7</ele>
        <time>2020-06-14T17:42:26Z</time>
      </trkpt>
      <trkpt lat="49.5582" lon="-1.84576">
        <ele>52.5</ele>
        <time>2020-06-14T17:42:27Z</time>
      </trkpt>
      <trkpt lat="49.5582" lon="-1.84569">
        <ele>52.4</ele>
        <time>2020-06-14T17:42:28Z</time>
      </trkpt>
      <trkpt lat="49.55819" lon="-1.84561">
        <ele>52.2</ele>
        <time>2020-06-14T17:42:29Z</time>
      </trkpt>
      <trkpt lat="49.55818" lon="-1.84553">
        <ele>52</ele>
        <time>2020-06-14T17:42:30Z</time>
      </trkpt>
      <trkpt lat="49.55817" lon="-1.84544">
        <ele>51.9</ele>
        <time>2020-06-14T17:42:31Z</time>
      </trkpt>
      <trkpt lat="49.55817" lon="-1.84536">
        <ele>51.7</ele>
        <time>2020-06-14T17:42:32Z</time>
      </trkpt>
      <trkpt lat="49.55816" lon="-1.84527">
        <ele>51.5</ele>
        <time>2020-06-14T17:42:33Z</time>
      </trkpt>
      <trkpt lat="49.55816" lon="-1.84518">
        <ele>51.4</ele>
        <time>2020-06-14T17:42:34Z</time>
      </trkpt>
      <trkpt lat="49.55815" lon="-1.84509">
        <ele>51.2</ele>
        <time>2020-06-14T17:42:35Z</time>
      </trkpt>
      <trkpt lat="49.55816" lon="-1.84497">
        <ele>51</ele>
        <time>2020-06-14T17:42:36Z</time>
      </trkpt>
      <trkpt lat="49.55816" lon="-1.84487">
        <ele>50.8</ele>
        <time>2020-06-14T17:42:37Z</time>
      </trkpt>
      <trkpt lat="49.55817" lon="-1.84478">
        <ele>50.6</ele>
        <time>2020-06-14T17:42:38Z</time>
      </trkpt>
      <trkpt lat="49.55817" lon="-1.84469">
        <ele>50.5</ele>
        <time>2020-06-14T17:42:39Z</time>
      </trkpt>
      <trkpt lat="49.55818" lon="-1.84461">
        <ele>50.3</ele>
        <time>2020-06-14T17:42:40Z</time>
      </trkpt>
      <trkpt lat="49.55818" lon="-1.84453">
        <ele>50.2</ele>
        <time>2020-06-14T17:42:41Z</time>
      </trkpt>
      <trkpt lat="49.55818" lon="-1.84445">
        <ele>50</ele>
        <time>2020-06-14T17:42:42Z</time>
      </trkpt>
      <trkpt lat="49.55818" lon="-1.84437">
        <ele>49.9</ele>
        <time>2020-06-14T17:42:43Z</time>
      </trkpt>
      <trkpt lat="49.55818" lon="-1.84429">
        <ele>49.7</ele>
        <time>2020-06-14T17:42:44Z</time>
      </trkpt>
      <trkpt lat="49.55818" lon="-1.84421">
        <ele>49.6</ele>
        <time>2020-06-14T17:42:45Z</time>
      </trkpt>
      <trkpt lat="49.55818" lon="-1.84414">
        <ele>49.4</ele>
        <time>2020-06-14T17:42:46Z</time>
      </trkpt>
      <trkpt lat="49.55818" lon="-1.84407">
        <ele>49.3</ele>
        <time>2020-06-14T17:42:47Z</time>
      </trkpt>
      <trkpt lat="49.55819" lon="-1.84399">
        <ele>49.2</ele>
        <time>2020-06-14T17:42:48Z</time>
      </trkpt>
      <trkpt lat="49.55819" lon="-1.84392">
        <ele>49.1</ele>
        <time>2020-06-14T17:42:49Z</time>
      </trkpt>
      <trkpt lat="49.55819" lon="-1.84386">
        <ele>49</ele>
        <time>2020-06-14T17:42:50Z</time>
      </trkpt>
      <trkpt lat="49.55819" lon="-1.8438">
        <ele>48.9</ele>
        <time>2020-06-14T17:42:51Z</time>
      </trkpt>
      <trkpt lat="49.55819" lon="-1.84376">
        <ele>48.9</ele>
        <time>2020-06-14T17:42:52Z</time>
      </trkpt>
      <trkpt lat="49.55818" lon="-1.84371">
        <ele>48.8</ele>
        <time>2020-06-14T17:42:53Z</time>
      </trkpt>
      <trkpt lat="49.55818" lon="-1.84369">
        <ele>48.8</ele>
        <time>2020-06-14T17:42:54Z</time>
      </trkpt>
      <trkpt lat="49.55814" lon="-1.84367">
        <ele>49.6</ele>
        <time>2020-06-14T17:42:55Z</time>
      </trkpt>
      <trkpt lat="49.55812" lon="-1.84367">
        <ele>49.7</ele>
        <time>2020-06-14T17:42:56Z</time>
      </trkpt>
      <trkpt lat="49.55809" lon="-1.84366">
        <ele>49.9</ele>
        <time>2020-06-14T17:42:57Z</time>
      </trkpt>
      <trkpt lat="49.55805" lon="-1.84365">
        <ele>50.2</ele>
        <time>2020-06-14T17:42:58Z</time>
      </trkpt>
      <trkpt lat="49.55802" lon="-1.84364">
        <ele>50.4</ele>
        <time>2020-06-14T17:42:59Z</time>
      </trkpt>
      <trkpt lat="49.55798" lon="-1.84362">
        <ele>50.7</ele>
        <time>2020-06-14T17:43:00Z</time>
      </trkpt>
      <trkpt lat="49.55794" lon="-1.8436">
        <ele>50.9</ele>
        <time>2020-06-14T17:43:01Z</time>
      </trkpt>
      <trkpt lat="49.5579" lon="-1.84358">
        <ele>51.2</ele>
        <time>2020-06-14T17:43:02Z</time>
      </trkpt>
      <trkpt lat="49.55787" lon="-1.84356">
        <ele>51.5</ele>
        <time>2020-06-14T17:43:03Z</time>
      </trkpt>
      <trkpt lat="49.55784" lon="-1.84353">
        <ele>51.7</ele>
        <time>2020-06-14T17:43:04Z</time>
      </trkpt>
      <trkpt lat="49.55782" lon="-1.84351">
        <ele>51.9</ele>
        <time>2020-06-14T17:43:05Z</time>
      </trkpt>
      <trkpt lat="49.55779" lon="-1.84346">
        <ele>52.2</ele>
        <time>2020-06-14T17:43:06Z</time>
      </trkpt>
      <trkpt lat="49.55778" lon="-1.84344">
        <ele>52.3</ele>
        <time>2020-06-14T17:43:07Z</time>
      </trkpt>
      <trkpt lat="49.55776" lon="-1.84341">
        <ele>52.5</ele>
        <time>2020-06-14T17:43:08Z</time>
      </trkpt>
      <trkpt lat="49.55774" lon="-1.84337">
        <ele>52.7</ele>
        <time>2020-06-14T17:43:09Z</time>
      </trkpt>
      <trkpt lat="49.55771" lon="-1.84333">
        <ele>53</ele>
        <time>2020-06-14T17:43:10Z</time>
      </trkpt>
      <trkpt lat="49.5577" lon="-1.84328">
        <ele>53.2</ele>
        <time>2020-06-14T17:43:11Z</time>
      </trkpt>
      <trkpt lat="49.55769" lon="-1.84323">
        <ele>53.5</ele>
        <time>2020-06-14T17:43:12Z</time>
      </trkpt>
      <trkpt lat="49.55767" lon="-1.8432">
        <ele>53.7</ele>
        <time>2020-06-14T17:43:13Z</time>
      </trkpt>
      <trkpt lat="49.55766" lon="-1.84315">
        <ele>53.9</ele>
        <time>2020-06-14T17:43:14Z</time>
      </trkpt>
      <trkpt lat="49.55764" lon="-1.84311">
        <ele>54.2</ele>
        <time>2020-06-14T17:43:15Z</time>
      </trkpt>
      <trkpt lat="49.55762" lon="-1.84308">
        <ele>54.4</ele>
        <time>2020-06-14T17:43:16Z</time>
      </trkpt>
      <trkpt lat="49.55759" lon="-1.84305">
        <ele>54.7</ele>
        <time>2020-06-14T17:43:17Z</time>
      </trkpt>
      <trkpt lat="49.55757" lon="-1.84301">
        <ele>54.9</ele>
        <time>2020-06-14T17:43:18Z</time>
      </trkpt>
      <trkpt lat="49.55755" lon="-1.84296">
        <ele>55.2</ele>
        <time>2020-06-14T17:43:19Z</time>
      </trkpt>
      <trkpt lat="49.55753" lon="-1.84293">
        <ele>55.5</ele>
        <time>2020-06-14T17:43:20Z</time>
      </trkpt>
      <trkpt lat="49.55751" lon="-1.84289">
        <ele>55.7</ele>
        <time>2020-06-14T17:43:21Z</time>
      </trkpt>
      <trkpt lat="49.55749" lon="-1.84285">
        <ele>56</ele>
        <time>2020-06-14T17:43:22Z</time>
      </trkpt>
      <trkpt lat="49.55747" lon="-1.84282">
        <ele>56.2</ele>
        <time>2020-06-14T17:43:23Z</time>
      </trkpt>
      <trkpt lat="49.55744" lon="-1.84279">
        <ele>56.5</ele>
        <time>2020-06-14T17:43:24Z</time>
      </trkpt>
      <trkpt lat="49.55742" lon="-1.84276">
        <ele>56.8</ele>
        <time>2020-06-14T17:43:25Z</time>
      </trkpt>
      <trkpt lat="49.55741" lon="-1.84273">
        <ele>57</ele>
        <time>2020-06-14T17:43:26Z</time>
      </trkpt>
      <trkpt lat="49.55739" lon="-1.84268">
        <ele>57.4</ele>
        <time>2020-06-14T17:43:27Z</time>
      </trkpt>
      <trkpt lat="49.55737" lon="-1.84264">
        <ele>57.7</ele>
        <time>2020-06-14T17:43:28Z</time>
      </trkpt>
      <trkpt lat="49.55735" lon="-1.8426">
        <ele>58.1</ele>
        <time>2020-06-14T17:43:29Z</time>
      </trkpt>
      <trkpt lat="49.55733" lon="-1.84256">
        <ele>58.5</ele>
        <time>2020-06-14T17:43:30Z</time>
      </trkpt>
      <trkpt lat="49.55732" lon="-1.84252">
        <ele>58.8</ele>
        <time>2020-06-14T17:43:31Z</time>
      </trkpt>
      <trkpt lat="49.5573" lon="-1.84247">
        <ele>59.3</ele>
        <time>2020-06-14T17:43:32Z</time>
      </trkpt>
      <trkpt lat="49.5573" lon="-1.84242">
        <ele>59.2</ele>
        <time>2020-06-14T17:43:33Z</time>
      </trkpt>
      <trkpt lat="49.55729" lon="-1.84237">
        <ele>59.2</ele>
        <time>2020-06-14T17:43:34Z</time>
      </trkpt>
      <trkpt lat="49.55729" lon="-1.84233">
        <ele>59.2</ele>
        <time>2020-06-14T17:43:35Z</time>
      </trkpt>
      <trkpt lat="49.55731" lon="-1.84226">
        <ele>59.2</ele>
        <time>2020-06-14T17:43:36Z</time>
      </trkpt>
      <trkpt lat="49.55732" lon="-1.84224">
        <ele>59.2</ele>
        <time>2020-06-14T17:43:37Z</time>
      </trkpt>
      <trkpt lat="49.55733" lon="-1.84218">
        <ele>59.2</ele>
        <time>2020-06-14T17:43:38Z</time>
      </trkpt>
      <trkpt lat="49.55735" lon="-1.84212">
        <ele>59.3</ele>
        <time>2020-06-14T17:43:39Z</time>
      </trkpt>
      <trkpt lat="49.55737" lon="-1.84208">
        <ele>59.4</ele>
        <time>2020-06-14T17:43:40Z</time>
      </trkpt>
      <trkpt lat="49.55739" lon="-1.84203">
        <ele>59.4</ele>
        <time>2020-06-14T17:43:41Z</time>
      </trkpt>
      <trkpt lat="49.5574" lon="-1.84197">
        <ele>59.5</ele>
        <time>2020-06-14T17:43:42Z</time>
      </trkpt>
      <trkpt lat="49.55742" lon="-1.84191">
        <ele>59.7</ele>
        <time>2020-06-14T17:43:43Z</time>
      </trkpt>
      <trkpt lat="49.55744" lon="-1.84186">
        <ele>59.9</ele>
        <time>2020-06-14T17:43:44Z</time>
      </trkpt>
      <trkpt lat="49.55745" lon="-1.84181">
        <ele>60</ele>
        <time>2020-06-14T17:43:45Z</time>
      </trkpt>
      <trkpt lat="49.55746" lon="-1.84175">
        <ele>60.2</ele>
        <time>2020-06-14T17:43:46Z</time>
      </trkpt>
      <trkpt lat="49.55748" lon="-1.84169">
        <ele>60.4</ele>
        <time>2020-06-14T17:43:47Z</time>
      </trkpt>
      <trkpt lat="49.55749" lon="-1.84167">
        <ele>60.5</ele>
        <time>2020-06-14T17:43:48Z</time>
      </trkpt>
      <trkpt lat="49.5575" lon="-1.84163">
        <ele>60.7</ele>
        <time>2020-06-14T17:43:49Z</time>
      </trkpt>
      <trkpt lat="49.55751" lon="-1.84159">
        <ele>60.9</ele>
        <time>2020-06-14T17:43:50Z</time>
      </trkpt>
      <trkpt lat="49.55752" lon="-1.84155">
        <ele>61</ele>
        <time>2020-06-14T17:43:51Z</time>
      </trkpt>
      <trkpt lat="49.55753" lon="-1.84149">
        <ele>61.3</ele>
        <time>2020-06-14T17:43:52Z</time>
      </trkpt>
      <trkpt lat="49.55755" lon="-1.84145">
        <ele>61.5</ele>
        <time>2020-06-14T17:43:53Z</time>
      </trkpt>
      <trkpt lat="49.55756" lon="-1.8414">
        <ele>61.7</ele>
        <time>2020-06-14T17:43:54Z</time>
      </trkpt>
      <trkpt lat="49.55757" lon="-1.84135">
        <ele>61.9</ele>
        <time>2020-06-14T17:43:55Z</time>
      </trkpt>
      <trkpt lat="49.55759" lon="-1.84131">
        <ele>62.3</ele>
        <time>2020-06-14T17:43:56Z</time>
      </trkpt>
      <trkpt lat="49.5576" lon="-1.8413">
        <ele>62.4</ele>
        <time>2020-06-14T17:43:57Z</time>
      </trkpt>
      <trkpt lat="49.55762" lon="-1.84127">
        <ele>62.6</ele>
        <time>2020-06-14T17:43:58Z</time>
      </trkpt>
      <trkpt lat="49.55764" lon="-1.84124">
        <ele>62.9</ele>
        <time>2020-06-14T17:43:59Z</time>
      </trkpt>
      <trkpt lat="49.55766" lon="-1.8412">
        <ele>63.1</ele>
        <time>2020-06-14T17:44:00Z</time>
      </trkpt>
      <trkpt lat="49.55768" lon="-1.84117">
        <ele>63.3</ele>
        <time>2020-06-14T17:44:01Z</time>
      </trkpt>
      <trkpt lat="49.55771" lon="-1.84112">
        <ele>63.6</ele>
        <time>2020-06-14T17:44:02Z</time>
      </trkpt>
      <trkpt lat="49.55772" lon="-1.8411">
        <ele>63.7</ele>
        <time>2020-06-14T17:44:03Z</time>
      </trkpt>
      <trkpt lat="49.55775" lon="-1.84107">
        <ele>64</ele>
        <time>2020-06-14T17:44:04Z</time>
      </trkpt>
      <trkpt lat="49.55777" lon="-1.84106">
        <ele>64.1</ele>
        <time>2020-06-14T17:44:05Z</time>
      </trkpt>
      <trkpt lat="49.55779" lon="-1.84105">
        <ele>64.3</ele>
        <time>2020-06-14T17:44:06Z</time>
      </trkpt>
      <trkpt lat="49.55782" lon="-1.84103">
        <ele>64.5</ele>
        <time>2020-06-14T17:44:07Z</time>
      </trkpt>
      <trkpt lat="49.55784" lon="-1.84101">
        <ele>64.7</ele>
        <time>2020-06-14T17:44:08Z</time>
      </trkpt>
      <trkpt lat="49.55788" lon="-1.84095">
        <ele>65.1</ele>
        <time>2020-06-14T17:44:09Z</time>
      </trkpt>
      <trkpt lat="49.5579" lon="-1.84092">
        <ele>65.3</ele>
        <time>2020-06-14T17:44:10Z</time>
      </trkpt>
      <trkpt lat="49.55793" lon="-1.84089">
        <ele>65.5</ele>
        <time>2020-06-14T17:44:11Z</time>
      </trkpt>
      <trkpt lat="49.55797" lon="-1.84086">
        <ele>65.8</ele>
        <time>2020-06-14T17:44:12Z</time>
      </trkpt>
      <trkpt lat="49.55798" lon="-1.84085">
        <ele>65.9</ele>
        <time>2020-06-14T17:44:13Z</time>
      </trkpt>
      <trkpt lat="49.55801" lon="-1.84083">
        <ele>66.2</ele>
        <time>2020-06-14T17:44:14Z</time>
      </trkpt>
      <trkpt lat="49.55803" lon="-1.8408">
        <ele>66.4</ele>
        <time>2020-06-14T17:44:15Z</time>
      </trkpt>
      <trkpt lat="49.55804" lon="-1.84076">
        <ele>66.6</ele>
        <time>2020-06-14T17:44:16Z</time>
      </trkpt>
      <trkpt lat="49.55806" lon="-1.84072">
        <ele>66.8</ele>
        <time>2020-06-14T17:44:17Z</time>
      </trkpt>
      <trkpt lat="49.55808" lon="-1.84068">
        <ele>67.1</ele>
        <time>2020-06-14T17:44:18Z</time>
      </trkpt>
      <trkpt lat="49.5581" lon="-1.84065">
        <ele>67.3</ele>
        <time>2020-06-14T17:44:19Z</time>
      </trkpt>
      <trkpt lat="49.55812" lon="-1.84062">
        <ele>67.5</ele>
        <time>2020-06-14T17:44:20Z</time>
      </trkpt>
      <trkpt lat="49.55815" lon="-1.8406">
        <ele>67.7</ele>
        <time>2020-06-14T17:44:21Z</time>
      </trkpt>
      <trkpt lat="49.55817" lon="-1.84056">
        <ele>68</ele>
        <time>2020-06-14T17:44:22Z</time>
      </trkpt>
      <trkpt lat="49.55819" lon="-1.84051">
        <ele>68.3</ele>
        <time>2020-06-14T17:44:23Z</time>
      </trkpt>
      <trkpt lat="49.55819" lon="-1.84049">
        <ele>68.3</ele>
        <time>2020-06-14T17:44:24Z</time>
      </trkpt>
      <trkpt lat="49.55821" lon="-1.84046">
        <ele>68.6</ele>
        <time>2020-06-14T17:44:25Z</time>
      </trkpt>
      <trkpt lat="49.55823" lon="-1.84043">
        <ele>68.8</ele>
        <time>2020-06-14T17:44:26Z</time>
      </trkpt>
      <trkpt lat="49.55824" lon="-1.84039">
        <ele>69</ele>
        <time>2020-06-14T17:44:27Z</time>
      </trkpt>
      <trkpt lat="49.55826" lon="-1.84034">
        <ele>69.2</ele>
        <time>2020-06-14T17:44:28Z</time>
      </trkpt>
      <trkpt lat="49.55828" lon="-1.84029">
        <ele>69.5</ele>
        <time>2020-06-14T17:44:29Z</time>
      </trkpt>
      <trkpt lat="49.55829" lon="-1.84026">
        <ele>69.6</ele>
        <time>2020-06-14T17:44:30Z</time>
      </trkpt>
      <trkpt lat="49.55831" lon="-1.8402">
        <ele>70</ele>
        <time>2020-06-14T17:44:31Z</time>
      </trkpt>
      <trkpt lat="49.55833" lon="-1.84015">
        <ele>70.5</ele>
        <time>2020-06-14T17:44:32Z</time>
      </trkpt>
      <trkpt lat="49.55835" lon="-1.84011">
        <ele>70.6</ele>
        <time>2020-06-14T17:44:33Z</time>
      </trkpt>
      <trkpt lat="49.55837" lon="-1.84005">
        <ele>70.8</ele>
        <time>2020-06-14T17:44:34Z</time>
      </trkpt>
      <trkpt lat="49.55837" lon="-1.84004">
        <ele>70.8</ele>
        <time>2020-06-14T17:44:35Z</time>
      </trkpt>
      <trkpt lat="49.55838" lon="-1.84">
        <ele>71</ele>
        <time>2020-06-14T17:44:36Z</time>
      </trkpt>
      <trkpt lat="49.5584" lon="-1.83997">
        <ele>71.1</ele>
        <time>2020-06-14T17:44:37Z</time>
      </trkpt>
      <trkpt lat="49.55843" lon="-1.83993">
        <ele>71.3</ele>
        <time>2020-06-14T17:44:38Z</time>
      </trkpt>
      <trkpt lat="49.55844" lon="-1.83992">
        <ele>71.3</ele>
        <time>2020-06-14T17:44:39Z</time>
      </trkpt>
      <trkpt lat="49.55845" lon="-1.83987">
        <ele>71.5</ele>
        <time>2020-06-14T17:44:40Z</time>
      </trkpt>
      <trkpt lat="49.55847" lon="-1.83982">
        <ele>71.6</ele>
        <time>2020-06-14T17:44:41Z</time>
      </trkpt>
      <trkpt lat="49.55848" lon="-1.83977">
        <ele>71.7</ele>
        <time>2020-06-14T17:44:42Z</time>
      </trkpt>
      <trkpt lat="49.5585" lon="-1.83971">
        <ele>71.9</ele>
        <time>2020-06-14T17:44:43Z</time>
      </trkpt>
      <trkpt lat="49.5585" lon="-1.83966">
        <ele>72</ele>
        <time>2020-06-14T17:44:44Z</time>
      </trkpt>
      <trkpt lat="49.55852" lon="-1.8396">
        <ele>72</ele>
        <time>2020-06-14T17:44:45Z</time>
      </trkpt>
      <trkpt lat="49.55853" lon="-1.83958">
        <ele>72.1</ele>
        <time>2020-06-14T17:44:46Z</time>
      </trkpt>
      <trkpt lat="49.55854" lon="-1.83954">
        <ele>72.1</ele>
        <time>2020-06-14T17:44:47Z</time>
      </trkpt>
      <trkpt lat="49.55855" lon="-1.83949">
        <ele>72.2</ele>
        <time>2020-06-14T17:44:48Z</time>
      </trkpt>
      <trkpt lat="49.55856" lon="-1.83944">
        <ele>72.3</ele>
        <time>2020-06-14T17:44:49Z</time>
      </trkpt>
      <trkpt lat="49.55856" lon="-1.83938">
        <ele>72.4</ele>
        <time>2020-06-14T17:44:50Z</time>
      </trkpt>
      <trkpt lat="49.55857" lon="-1.83933">
        <ele>72.4</ele>
        <time>2020-06-14T17:44:51Z</time>
      </trkpt>
      <trkpt lat="49.55858" lon="-1.83927">
        <ele>72.5</ele>
        <time>2020-06-14T17:44:52Z</time>
      </trkpt>
      <trkpt lat="49.55859" lon="-1.83921">
        <ele>72.6</ele>
        <time>2020-06-14T17:44:53Z</time>
      </trkpt>
      <trkpt lat="49.5586" lon="-1.83915">
        <ele>72.7</ele>
        <time>2020-06-14T17:44:54Z</time>
      </trkpt>
      <trkpt lat="49.55862" lon="-1.83909">
        <ele>72.7</ele>
        <time>2020-06-14T17:44:55Z</time>
      </trkpt>
      <trkpt lat="49.55864" lon="-1.83903">
        <ele>72.7</ele>
        <time>2020-06-14T17:44:56Z</time>
      </trkpt>
      <trkpt lat="49.55865" lon="-1.83896">
        <ele>72.7</ele>
        <time>2020-06-14T17:44:57Z</time>
      </trkpt>
      <trkpt lat="49.55866" lon="-1.8389">
        <ele>72.7</ele>
        <time>2020-06-14T17:44:58Z</time>
      </trkpt>
      <trkpt lat="49.55868" lon="-1.83882">
        <ele>72.7</ele>
        <time>2020-06-14T17:44:59Z</time>
      </trkpt>
      <trkpt lat="49.55869" lon="-1.83876">
        <ele>72.7</ele>
        <time>2020-06-14T17:45:00Z</time>
      </trkpt>
      <trkpt lat="49.5587" lon="-1.83869">
        <ele>72.7</ele>
        <time>2020-06-14T17:45:01Z</time>
      </trkpt>
      <trkpt lat="49.55871" lon="-1.83862">
        <ele>72.7</ele>
        <time>2020-06-14T17:45:02Z</time>
      </trkpt>
      <trkpt lat="49.55872" lon="-1.83856">
        <ele>72.8</ele>
        <time>2020-06-14T17:45:03Z</time>
      </trkpt>
      <trkpt lat="49.55873" lon="-1.83849">
        <ele>72.8</ele>
        <time>2020-06-14T17:45:04Z</time>
      </trkpt>
      <trkpt lat="49.55875" lon="-1.83842">
        <ele>72.8</ele>
        <time>2020-06-14T17:45:05Z</time>
      </trkpt>
      <trkpt lat="49.55876" lon="-1.83835">
        <ele>72.9</ele>
        <time>2020-06-14T17:45:06Z</time>
      </trkpt>
      <trkpt lat="49.55878" lon="-1.83828">
        <ele>72.9</ele>
        <time>2020-06-14T17:45:07Z</time>
      </trkpt>
      <trkpt lat="49.55879" lon="-1.83821">
        <ele>72.9</ele>
        <time>2020-06-14T17:45:08Z</time>
      </trkpt>
      <trkpt lat="49.5588" lon="-1.83814">
        <ele>72.9</ele>
        <time>2020-06-14T17:45:09Z</time>
      </trkpt>
      <trkpt lat="49.55881" lon="-1.83807">
        <ele>72.9</ele>
        <time>2020-06-14T17:45:10Z</time>
      </trkpt>
      <trkpt lat="49.55882" lon="-1.838">
        <ele>72.9</ele>
        <time>2020-06-14T17:45:11Z</time>
      </trkpt>
      <trkpt lat="49.55883" lon="-1.83793">
        <ele>72.9</ele>
        <time>2020-06-14T17:45:12Z</time>
      </trkpt>
      <trkpt lat="49.55884" lon="-1.83786">
        <ele>72.9</ele>
        <time>2020-06-14T17:45:13Z</time>
      </trkpt>
      <trkpt lat="49.55885" lon="-1.8378">
        <ele>73</ele>
        <time>2020-06-14T17:45:14Z</time>
      </trkpt>
      <trkpt lat="49.55886" lon="-1.83773">
        <ele>73</ele>
        <time>2020-06-14T17:45:15Z</time>
      </trkpt>
      <trkpt lat="49.55887" lon="-1.83767">
        <ele>73</ele>
        <time>2020-06-14T17:45:16Z</time>
      </trkpt>
      <trkpt lat="49.55889" lon="-1.8376">
        <ele>73.1</ele>
        <time>2020-06-14T17:45:17Z</time>
      </trkpt>
      <trkpt lat="49.5589" lon="-1.83754">
        <ele>73.2</ele>
        <time>2020-06-14T17:45:18Z</time>
      </trkpt>
      <trkpt lat="49.5589" lon="-1.83747">
        <ele>73.3</ele>
        <time>2020-06-14T17:45:19Z</time>
      </trkpt>
      <trkpt lat="49.55891" lon="-1.83739">
        <ele>73.4</ele>
        <time>2020-06-14T17:45:20Z</time>
      </trkpt>
      <trkpt lat="49.55893" lon="-1.83732">
        <ele>73.5</ele>
        <time>2020-06-14T17:45:21Z</time>
      </trkpt>
      <trkpt lat="49.55894" lon="-1.83725">
        <ele>73.5</ele>
        <time>2020-06-14T17:45:22Z</time>
      </trkpt>
      <trkpt lat="49.55896" lon="-1.83718">
        <ele>73.6</ele>
        <time>2020-06-14T17:45:23Z</time>
      </trkpt>
      <trkpt lat="49.55899" lon="-1.83709">
        <ele>73.7</ele>
        <time>2020-06-14T17:45:24Z</time>
      </trkpt>
      <trkpt lat="49.559" lon="-1.83702">
        <ele>73.8</ele>
        <time>2020-06-14T17:45:25Z</time>
      </trkpt>
      <trkpt lat="49.55902" lon="-1.83696">
        <ele>73.9</ele>
        <time>2020-06-14T17:45:26Z</time>
      </trkpt>
      <trkpt lat="49.55903" lon="-1.83688">
        <ele>74</ele>
        <time>2020-06-14T17:45:27Z</time>
      </trkpt>
      <trkpt lat="49.55904" lon="-1.83681">
        <ele>74.2</ele>
        <time>2020-06-14T17:45:28Z</time>
      </trkpt>
      <trkpt lat="49.55906" lon="-1.83674">
        <ele>74.3</ele>
        <time>2020-06-14T17:45:29Z</time>
      </trkpt>
      <trkpt lat="49.55907" lon="-1.83668">
        <ele>74.5</ele>
        <time>2020-06-14T17:45:30Z</time>
      </trkpt>
      <trkpt lat="49.5591" lon="-1.83663">
        <ele>74.6</ele>
        <time>2020-06-14T17:45:31Z</time>
      </trkpt>
      <trkpt lat="49.55911" lon="-1.83657">
        <ele>74.7</ele>
        <time>2020-06-14T17:45:32Z</time>
      </trkpt>
      <trkpt lat="49.55913" lon="-1.83651">
        <ele>74.8</ele>
        <time>2020-06-14T17:45:33Z</time>
      </trkpt>
      <trkpt lat="49.55915" lon="-1.83645">
        <ele>74.9</ele>
        <time>2020-06-14T17:45:34Z</time>
      </trkpt>
      <trkpt lat="49.55916" lon="-1.83639">
        <ele>74.9</ele>
        <time>2020-06-14T17:45:35Z</time>
      </trkpt>
      <trkpt lat="49.55918" lon="-1.83634">
        <ele>74.8</ele>
        <time>2020-06-14T17:45:36Z</time>
      </trkpt>
      <trkpt lat="49.5592" lon="-1.83628">
        <ele>74.3</ele>
        <time>2020-06-14T17:45:37Z</time>
      </trkpt>
      <trkpt lat="49.55922" lon="-1.83622">
        <ele>74.6</ele>
        <time>2020-06-14T17:45:38Z</time>
      </trkpt>
      <trkpt lat="49.55925" lon="-1.83616">
        <ele>74.9</ele>
        <time>2020-06-14T17:45:39Z</time>
      </trkpt>
      <trkpt lat="49.55927" lon="-1.8361">
        <ele>75.2</ele>
        <time>2020-06-14T17:45:40Z</time>
      </trkpt>
      <trkpt lat="49.55928" lon="-1.83603">
        <ele>75.4</ele>
        <time>2020-06-14T17:45:41Z</time>
      </trkpt>
      <trkpt lat="49.55929" lon="-1.83597">
        <ele>75.6</ele>
        <time>2020-06-14T17:45:42Z</time>
      </trkpt>
      <trkpt lat="49.5593" lon="-1.83591">
        <ele>75.7</ele>
        <time>2020-06-14T17:45:43Z</time>
      </trkpt>
      <trkpt lat="49.55931" lon="-1.83585">
        <ele>75.9</ele>
        <time>2020-06-14T17:45:44Z</time>
      </trkpt>
      <trkpt lat="49.55933" lon="-1.8358">
        <ele>76.1</ele>
        <time>2020-06-14T17:45:45Z</time>
      </trkpt>
      <trkpt lat="49.55935" lon="-1.83575">
        <ele>76.2</ele>
        <time>2020-06-14T17:45:46Z</time>
      </trkpt>
      <trkpt lat="49.55936" lon="-1.83569">
        <ele>76.5</ele>
        <time>2020-06-14T17:45:47Z</time>
      </trkpt>
      <trkpt lat="49.55938" lon="-1.83564">
        <ele>76.7</ele>
        <time>2020-06-14T17:45:48Z</time>
      </trkpt>
      <trkpt lat="49.5594" lon="-1.83558">
        <ele>76.9</ele>
        <time>2020-06-14T17:45:49Z</time>
      </trkpt>
      <trkpt lat="49.55943" lon="-1.83552">
        <ele>77.2</ele>
        <time>2020-06-14T17:45:50Z</time>
      </trkpt>
      <trkpt lat="49.55945" lon="-1.83547">
        <ele>77.4</ele>
        <time>2020-06-14T17:45:51Z</time>
      </trkpt>
      <trkpt lat="49.55947" lon="-1.83541">
        <ele>77.7</ele>
        <time>2020-06-14T17:45:52Z</time>
      </trkpt>
      <trkpt lat="49.55949" lon="-1.83534">
        <ele>77.9</ele>
        <time>2020-06-14T17:45:53Z</time>
      </trkpt>
      <trkpt lat="49.55951" lon="-1.83528">
        <ele>78.2</ele>
        <time>2020-06-14T17:45:54Z</time>
      </trkpt>
      <trkpt lat="49.55953" lon="-1.83522">
        <ele>78.4</ele>
        <time>2020-06-14T17:45:55Z</time>
      </trkpt>
      <trkpt lat="49.55954" lon="-1.83516">
        <ele>78.6</ele>
        <time>2020-06-14T17:45:56Z</time>
      </trkpt>
      <trkpt lat="49.55956" lon="-1.8351">
        <ele>78.8</ele>
        <time>2020-06-14T17:45:57Z</time>
      </trkpt>
      <trkpt lat="49.55959" lon="-1.83504">
        <ele>79</ele>
        <time>2020-06-14T17:45:58Z</time>
      </trkpt>
      <trkpt lat="49.55962" lon="-1.83498">
        <ele>79.3</ele>
        <time>2020-06-14T17:45:59Z</time>
      </trkpt>
      <trkpt lat="49.55964" lon="-1.83493">
        <ele>79.5</ele>
        <time>2020-06-14T17:46:00Z</time>
      </trkpt>
      <trkpt lat="49.55966" lon="-1.83488">
        <ele>79.6</ele>
        <time>2020-06-14T17:46:01Z</time>
      </trkpt>
      <trkpt lat="49.55968" lon="-1.83483">
        <ele>79.8</ele>
        <time>2020-06-14T17:46:02Z</time>
      </trkpt>
      <trkpt lat="49.5597" lon="-1.83478">
        <ele>80</ele>
        <time>2020-06-14T17:46:03Z</time>
      </trkpt>
      <trkpt lat="49.55972" lon="-1.83473">
        <ele>80.2</ele>
        <time>2020-06-14T17:46:04Z</time>
      </trkpt>
      <trkpt lat="49.55974" lon="-1.83468">
        <ele>80.4</ele>
        <time>2020-06-14T17:46:05Z</time>
      </trkpt>
      <trkpt lat="49.55976" lon="-1.83462">
        <ele>80.6</ele>
        <time>2020-06-14T17:46:06Z</time>
      </trkpt>
      <trkpt lat="49.55978" lon="-1.83457">
        <ele>80.7</ele>
        <time>2020-06-14T17:46:07Z</time>
      </trkpt>
      <trkpt lat="49.55982" lon="-1.83449">
        <ele>81</ele>
        <time>2020-06-14T17:46:08Z</time>
      </trkpt>
      <trkpt lat="49.55984" lon="-1.83444">
        <ele>81.2</ele>
        <time>2020-06-14T17:46:09Z</time>
      </trkpt>
      <trkpt lat="49.55985" lon="-1.83439">
        <ele>81.4</ele>
        <time>2020-06-14T17:46:10Z</time>
      </trkpt>
      <trkpt lat="49.55987" lon="-1.83434">
        <ele>81.5</ele>
        <time>2020-06-14T17:46:11Z</time>
      </trkpt>
      <trkpt lat="49.55989" lon="-1.83428">
        <ele>81.7</ele>
        <time>2020-06-14T17:46:12Z</time>
      </trkpt>
      <trkpt lat="49.55991" lon="-1.83422">
        <ele>81.9</ele>
        <time>2020-06-14T17:46:13Z</time>
      </trkpt>
      <trkpt lat="49.55993" lon="-1.83416">
        <ele>82</ele>
        <time>2020-06-14T17:46:14Z</time>
      </trkpt>
      <trkpt lat="49.55996" lon="-1.8341">
        <ele>82.2</ele>
        <time>2020-06-14T17:46:15Z</time>
      </trkpt>
      <trkpt lat="49.55997" lon="-1.83404">
        <ele>82.3</ele>
        <time>2020-06-14T17:46:16Z</time>
      </trkpt>
      <trkpt lat="49.55998" lon="-1.83398">
        <ele>82.4</ele>
        <time>2020-06-14T17:46:17Z</time>
      </trkpt>
      <trkpt lat="49.56" lon="-1.83391">
        <ele>82.6</ele>
        <time>2020-06-14T17:46:18Z</time>
      </trkpt>
      <trkpt lat="49.56002" lon="-1.83385">
        <ele>82.7</ele>
        <time>2020-06-14T17:46:19Z</time>
      </trkpt>
      <trkpt lat="49.56004" lon="-1.8338">
        <ele>82.9</ele>
        <time>2020-06-14T17:46:20Z</time>
      </trkpt>
      <trkpt lat="49.56006" lon="-1.83374">
        <ele>83</ele>
        <time>2020-06-14T17:46:21Z</time>
      </trkpt>
      <trkpt lat="49.56008" lon="-1.83367">
        <ele>83.2</ele>
        <time>2020-06-14T17:46:22Z</time>
      </trkpt>
      <trkpt lat="49.5601" lon="-1.83362">
        <ele>83.3</ele>
        <time>2020-06-14T17:46:23Z</time>
      </trkpt>
      <trkpt lat="49.56011" lon="-1.83354">
        <ele>83.4</ele>
        <time>2020-06-14T17:46:24Z</time>
      </trkpt>
      <trkpt lat="49.56012" lon="-1.83348">
        <ele>83.5</ele>
        <time>2020-06-14T17:46:25Z</time>
      </trkpt>
      <trkpt lat="49.56014" lon="-1.83341">
        <ele>83.7</ele>
        <time>2020-06-14T17:46:26Z</time>
      </trkpt>
      <trkpt lat="49.56016" lon="-1.83335">
        <ele>83.8</ele>
        <time>2020-06-14T17:46:27Z</time>
      </trkpt>
      <trkpt lat="49.56018" lon="-1.8333">
        <ele>83.9</ele>
        <time>2020-06-14T17:46:28Z</time>
      </trkpt>
      <trkpt lat="49.5602" lon="-1.83324">
        <ele>84.1</ele>
        <time>2020-06-14T17:46:29Z</time>
      </trkpt>
      <trkpt lat="49.56022" lon="-1.83318">
        <ele>84.2</ele>
        <time>2020-06-14T17:46:30Z</time>
      </trkpt>
      <trkpt lat="49.56024" lon="-1.83312">
        <ele>84.3</ele>
        <time>2020-06-14T17:46:31Z</time>
      </trkpt>
      <trkpt lat="49.56025" lon="-1.83305">
        <ele>84.3</ele>
        <time>2020-06-14T17:46:32Z</time>
      </trkpt>
      <trkpt lat="49.56027" lon="-1.83299">
        <ele>84.4</ele>
        <time>2020-06-14T17:46:33Z</time>
      </trkpt>
      <trkpt lat="49.56028" lon="-1.83293">
        <ele>84.4</ele>
        <time>2020-06-14T17:46:34Z</time>
      </trkpt>
      <trkpt lat="49.5603" lon="-1.83288">
        <ele>84.5</ele>
        <time>2020-06-14T17:46:35Z</time>
      </trkpt>
      <trkpt lat="49.56032" lon="-1.83283">
        <ele>84.5</ele>
        <time>2020-06-14T17:46:36Z</time>
      </trkpt>
      <trkpt lat="49.56033" lon="-1.83276">
        <ele>84.6</ele>
        <time>2020-06-14T17:46:37Z</time>
      </trkpt>
      <trkpt lat="49.56035" lon="-1.8327">
        <ele>84.6</ele>
        <time>2020-06-14T17:46:38Z</time>
      </trkpt>
      <trkpt lat="49.56036" lon="-1.83264">
        <ele>84.7</ele>
        <time>2020-06-14T17:46:39Z</time>
      </trkpt>
      <trkpt lat="49.56037" lon="-1.83258">
        <ele>84.7</ele>
        <time>2020-06-14T17:46:40Z</time>
      </trkpt>
      <trkpt lat="49.56038" lon="-1.83251">
        <ele>84.7</ele>
        <time>2020-06-14T17:46:41Z</time>
      </trkpt>
      <trkpt lat="49.56039" lon="-1.83245">
        <ele>84.7</ele>
        <time>2020-06-14T17:46:42Z</time>
      </trkpt>
      <trkpt lat="49.56041" lon="-1.8324">
        <ele>84.7</ele>
        <time>2020-06-14T17:46:43Z</time>
      </trkpt>
      <trkpt lat="49.56042" lon="-1.83236">
        <ele>84.7</ele>
        <time>2020-06-14T17:46:44Z</time>
      </trkpt>
      <trkpt lat="49.56043" lon="-1.83234">
        <ele>84.8</ele>
        <time>2020-06-14T17:46:45Z</time>
      </trkpt>
      <trkpt lat="49.56044" lon="-1.83233">
        <ele>84.8</ele>
        <time>2020-06-14T17:46:46Z</time>
      </trkpt>
      <trkpt lat="49.56044" lon="-1.83233">
        <ele>84.8</ele>
        <time>2020-06-14T17:46:47Z</time>
      </trkpt>
      <trkpt lat="49.56045" lon="-1.83234">
        <ele>84.8</ele>
        <time>2020-06-14T17:46:48Z</time>
      </trkpt>
      <trkpt lat="49.56044" lon="-1.83234">
        <ele>84.8</ele>
        <time>2020-06-14T17:46:49Z</time>
      </trkpt>
      <trkpt lat="49.56045" lon="-1.83236">
        <ele>84.7</ele>
        <time>2020-06-14T17:46:50Z</time>
      </trkpt>
      <trkpt lat="49.56045" lon="-1.83237">
        <ele>84.7</ele>
        <time>2020-06-14T17:46:51Z</time>
      </trkpt>
      <trkpt lat="49.56045" lon="-1.83236">
        <ele>84.7</ele>
        <time>2020-06-14T17:46:52Z</time>
      </trkpt>
      <trkpt lat="49.56045" lon="-1.83234">
        <ele>84.7</ele>
        <time>2020-06-14T17:46:53Z</time>
      </trkpt>
      <trkpt lat="49.56045" lon="-1.83233">
        <ele>84.7</ele>
        <time>2020-06-14T17:46:54Z</time>
      </trkpt>
      <trkpt lat="49.56045" lon="-1.83231">
        <ele>84.7</ele>
        <time>2020-06-14T17:46:55Z</time>
      </trkpt>
      <trkpt lat="49.56045" lon="-1.8323">
        <ele>84.7</ele>
        <time>2020-06-14T17:46:56Z</time>
      </trkpt>
      <trkpt lat="49.56045" lon="-1.83228">
        <ele>84.7</ele>
        <time>2020-06-14T17:46:57Z</time>
      </trkpt>
      <trkpt lat="49.56045" lon="-1.83227">
        <ele>84.7</ele>
        <time>2020-06-14T17:47:16Z</time>
      </trkpt>
      <trkpt lat="49.56045" lon="-1.83225">
        <ele>84.7</ele>
        <time>2020-06-14T17:47:17Z</time>
      </trkpt>
      <trkpt lat="49.56046" lon="-1.83221">
        <ele>84.6</ele>
        <time>2020-06-14T17:47:18Z</time>
      </trkpt>
      <trkpt lat="49.56047" lon="-1.83215">
        <ele>84.5</ele>
        <time>2020-06-14T17:47:19Z</time>
      </trkpt>
      <trkpt lat="49.56047" lon="-1.83213">
        <ele>84.5</ele>
        <time>2020-06-14T17:47:20Z</time>
      </trkpt>
      <trkpt lat="49.56048" lon="-1.83209">
        <ele>84.5</ele>
        <time>2020-06-14T17:47:21Z</time>
      </trkpt>
      <trkpt lat="49.56048" lon="-1.83204">
        <ele>84.4</ele>
        <time>2020-06-14T17:47:22Z</time>
      </trkpt>
      <trkpt lat="49.56048" lon="-1.83202">
        <ele>84.4</ele>
        <time>2020-06-14T17:47:23Z</time>
      </trkpt>
      <trkpt lat="49.56048" lon="-1.832">
        <ele>84.4</ele>
        <time>2020-06-14T17:47:24Z</time>
      </trkpt>
      <trkpt lat="49.56048" lon="-1.83202">
        <ele>84.3</ele>
        <time>2020-06-14T17:47:25Z</time>
      </trkpt>
      <trkpt lat="49.56049" lon="-1.83204">
        <ele>84.3</ele>
        <time>2020-06-14T17:47:26Z</time>
      </trkpt>
      <trkpt lat="49.56048" lon="-1.83205">
        <ele>84.3</ele>
        <time>2020-06-14T17:47:27Z</time>
      </trkpt>
      <trkpt lat="49.56048" lon="-1.83205">
        <ele>84.3</ele>
        <time>2020-06-14T17:47:28Z</time>
      </trkpt>
      <trkpt lat="49.56048" lon="-1.83205">
        <ele>84.3</ele>
        <time>2020-06-14T17:47:29Z</time>
      </trkpt>
      <trkpt lat="49.56047" lon="-1.83206">
        <ele>84.3</ele>
        <time>2020-06-14T17:47:30Z</time>
      </trkpt>
      <trkpt lat="49.56047" lon="-1.83206">
        <ele>84.3</ele>
        <time>2020-06-14T17:47:31Z</time>
      </trkpt>
      <trkpt lat="49.56047" lon="-1.83206">
        <ele>84.3</ele>
        <time>2020-06-14T17:47:32Z</time>
      </trkpt>
      <trkpt lat="49.56047" lon="-1.83206">
        <ele>84.3</ele>
        <time>2020-06-14T17:47:33Z</time>
      </trkpt>
      <trkpt lat="49.56047" lon="-1.83206">
        <ele>84.3</ele>
        <time>2020-06-14T17:47:34Z</time>
      </trkpt>
      <trkpt lat="49.56047" lon="-1.83206">
        <ele>84.3</ele>
        <time>2020-06-14T17:47:35Z</time>
      </trkpt>
      <trkpt lat="49.56047" lon="-1.83206">
        <ele>84.3</ele>
        <time>2020-06-14T17:47:36Z</time>
      </trkpt>
      <trkpt lat="49.56048" lon="-1.83194">
        <ele>84.1</ele>
        <time>2020-06-14T17:48:44Z</time>
      </trkpt>
      <trkpt lat="49.56049" lon="-1.83189">
        <ele>84.1</ele>
        <time>2020-06-14T17:48:45Z</time>
      </trkpt>
      <trkpt lat="49.5605" lon="-1.83183">
        <ele>83.9</ele>
        <time>2020-06-14T17:48:46Z</time>
      </trkpt>
      <trkpt lat="49.56052" lon="-1.83177">
        <ele>83.8</ele>
        <time>2020-06-14T17:48:47Z</time>
      </trkpt>
      <trkpt lat="49.56052" lon="-1.8317">
        <ele>83.6</ele>
        <time>2020-06-14T17:48:48Z</time>
      </trkpt>
      <trkpt lat="49.56054" lon="-1.83161">
        <ele>83.3</ele>
        <time>2020-06-14T17:48:49Z</time>
      </trkpt>
      <trkpt lat="49.56055" lon="-1.83151">
        <ele>83</ele>
        <time>2020-06-14T17:48:50Z</time>
      </trkpt>
      <trkpt lat="49.56056" lon="-1.83142">
        <ele>82.8</ele>
        <time>2020-06-14T17:48:51Z</time>
      </trkpt>
      <trkpt lat="49.56056" lon="-1.83133">
        <ele>82.6</ele>
        <time>2020-06-14T17:48:52Z</time>
      </trkpt>
      <trkpt lat="49.56056" lon="-1.83125">
        <ele>82.5</ele>
        <time>2020-06-14T17:48:53Z</time>
      </trkpt>
      <trkpt lat="49.56055" lon="-1.83116">
        <ele>82.4</ele>
        <time>2020-06-14T17:48:54Z</time>
      </trkpt>
      <trkpt lat="49.56056" lon="-1.83108">
        <ele>82.3</ele>
        <time>2020-06-14T17:48:55Z</time>
      </trkpt>
      <trkpt lat="49.56056" lon="-1.83099">
        <ele>82.2</ele>
        <time>2020-06-14T17:48:56Z</time>
      </trkpt>
      <trkpt lat="49.56055" lon="-1.83088">
        <ele>82.1</ele>
        <time>2020-06-14T17:48:57Z</time>
      </trkpt>
      <trkpt lat="49.56055" lon="-1.83079">
        <ele>82</ele>
        <time>2020-06-14T17:48:58Z</time>
      </trkpt>
      <trkpt lat="49.56055" lon="-1.83069">
        <ele>81.8</ele>
        <time>2020-06-14T17:48:59Z</time>
      </trkpt>
      <trkpt lat="49.56055" lon="-1.83059">
        <ele>81.7</ele>
        <time>2020-06-14T17:49:00Z</time>
      </trkpt>
      <trkpt lat="49.56055" lon="-1.8305">
        <ele>81.5</ele>
        <time>2020-06-14T17:49:01Z</time>
      </trkpt>
      <trkpt lat="49.56056" lon="-1.83041">
        <ele>81.4</ele>
        <time>2020-06-14T17:49:02Z</time>
      </trkpt>
      <trkpt lat="49.56055" lon="-1.83031">
        <ele>81.3</ele>
        <time>2020-06-14T17:49:03Z</time>
      </trkpt>
      <trkpt lat="49.56055" lon="-1.83022">
        <ele>81.1</ele>
        <time>2020-06-14T17:49:04Z</time>
      </trkpt>
      <trkpt lat="49.56055" lon="-1.83012">
        <ele>80.8</ele>
        <time>2020-06-14T17:49:05Z</time>
      </trkpt>
      <trkpt lat="49.56056" lon="-1.83004">
        <ele>80.6</ele>
        <time>2020-06-14T17:49:06Z</time>
      </trkpt>
      <trkpt lat="49.56056" lon="-1.82994">
        <ele>80.5</ele>
        <time>2020-06-14T17:49:07Z</time>
      </trkpt>
      <trkpt lat="49.56057" lon="-1.82983">
        <ele>80.4</ele>
        <time>2020-06-14T17:49:08Z</time>
      </trkpt>
      <trkpt lat="49.56057" lon="-1.82973">
        <ele>80.2</ele>
        <time>2020-06-14T17:49:09Z</time>
      </trkpt>
      <trkpt lat="49.56057" lon="-1.82963">
        <ele>79.9</ele>
        <time>2020-06-14T17:49:10Z</time>
      </trkpt>
      <trkpt lat="49.56058" lon="-1.82953">
        <ele>79.7</ele>
        <time>2020-06-14T17:49:11Z</time>
      </trkpt>
      <trkpt lat="49.56058" lon="-1.82942">
        <ele>79.5</ele>
        <time>2020-06-14T17:49:12Z</time>
      </trkpt>
      <trkpt lat="49.56059" lon="-1.82931">
        <ele>79.3</ele>
        <time>2020-06-14T17:49:13Z</time>
      </trkpt>
      <trkpt lat="49.5606" lon="-1.82919">
        <ele>79</ele>
        <time>2020-06-14T17:49:14Z</time>
      </trkpt>
      <trkpt lat="49.5606" lon="-1.82908">
        <ele>78.7</ele>
        <time>2020-06-14T17:49:15Z</time>
      </trkpt>
      <trkpt lat="49.5606" lon="-1.82898">
        <ele>78.3</ele>
        <time>2020-06-14T17:49:16Z</time>
      </trkpt>
      <trkpt lat="49.56061" lon="-1.82886">
        <ele>78</ele>
        <time>2020-06-14T17:49:17Z</time>
      </trkpt>
      <trkpt lat="49.56061" lon="-1.82874">
        <ele>77.7</ele>
        <time>2020-06-14T17:49:18Z</time>
      </trkpt>
      <trkpt lat="49.56061" lon="-1.82863">
        <ele>77.4</ele>
        <time>2020-06-14T17:49:19Z</time>
      </trkpt>
      <trkpt lat="49.56062" lon="-1.82851">
        <ele>77</ele>
        <time>2020-06-14T17:49:20Z</time>
      </trkpt>
      <trkpt lat="49.56062" lon="-1.82839">
        <ele>76.7</ele>
        <time>2020-06-14T17:49:21Z</time>
      </trkpt>
      <trkpt lat="49.56063" lon="-1.82826">
        <ele>76.3</ele>
        <time>2020-06-14T17:49:22Z</time>
      </trkpt>
      <trkpt lat="49.56063" lon="-1.82814">
        <ele>75.8</ele>
        <time>2020-06-14T17:49:23Z</time>
      </trkpt>
      <trkpt lat="49.56063" lon="-1.82802">
        <ele>75.4</ele>
        <time>2020-06-14T17:49:24Z</time>
      </trkpt>
      <trkpt lat="49.56064" lon="-1.8279">
        <ele>74.7</ele>
        <time>2020-06-14T17:49:25Z</time>
      </trkpt>
      <trkpt lat="49.56064" lon="-1.82777">
        <ele>74</ele>
        <time>2020-06-14T17:49:26Z</time>
      </trkpt>
      <trkpt lat="49.56064" lon="-1.82764">
        <ele>73.2</ele>
        <time>2020-06-14T17:49:27Z</time>
      </trkpt>
      <trkpt lat="49.56064" lon="-1.82751">
        <ele>72.4</ele>
        <time>2020-06-14T17:49:28Z</time>
      </trkpt>
      <trkpt lat="49.56063" lon="-1.82739">
        <ele>71.6</ele>
        <time>2020-06-14T17:49:29Z</time>
      </trkpt>
      <trkpt lat="49.56061" lon="-1.82726">
        <ele>70.8</ele>
        <time>2020-06-14T17:49:30Z</time>
      </trkpt>
      <trkpt lat="49.56059" lon="-1.82714">
        <ele>70</ele>
        <time>2020-06-14T17:49:31Z</time>
      </trkpt>
      <trkpt lat="49.56057" lon="-1.82702">
        <ele>69.2</ele>
        <time>2020-06-14T17:49:32Z</time>
      </trkpt>
      <trkpt lat="49.56054" lon="-1.8269">
        <ele>68.5</ele>
        <time>2020-06-14T17:49:33Z</time>
      </trkpt>
      <trkpt lat="49.56052" lon="-1.82679">
        <ele>67.8</ele>
        <time>2020-06-14T17:49:34Z</time>
      </trkpt>
      <trkpt lat="49.5605" lon="-1.82669">
        <ele>67.1</ele>
        <time>2020-06-14T17:49:35Z</time>
      </trkpt>
      <trkpt lat="49.56048" lon="-1.82661">
        <ele>66.6</ele>
        <time>2020-06-14T17:49:36Z</time>
      </trkpt>
      <trkpt lat="49.56047" lon="-1.82654">
        <ele>66</ele>
        <time>2020-06-14T17:49:37Z</time>
      </trkpt>
      <trkpt lat="49.56049" lon="-1.82648">
        <ele>65.5</ele>
        <time>2020-06-14T17:49:38Z</time>
      </trkpt>
      <trkpt lat="49.56052" lon="-1.82643">
        <ele>64.3</ele>
        <time>2020-06-14T17:49:39Z</time>
      </trkpt>
      <trkpt lat="49.56055" lon="-1.82639">
        <ele>64.1</ele>
        <time>2020-06-14T17:49:40Z</time>
      </trkpt>
      <trkpt lat="49.56059" lon="-1.82636">
        <ele>63.8</ele>
        <time>2020-06-14T17:49:41Z</time>
      </trkpt>
      <trkpt lat="49.56062" lon="-1.82634">
        <ele>63.6</ele>
        <time>2020-06-14T17:49:42Z</time>
      </trkpt>
      <trkpt lat="49.56066" lon="-1.82633">
        <ele>63.5</ele>
        <time>2020-06-14T17:49:43Z</time>
      </trkpt>
      <trkpt lat="49.56069" lon="-1.82629">
        <ele>63.3</ele>
        <time>2020-06-14T17:49:44Z</time>
      </trkpt>
      <trkpt lat="49.5607" lon="-1.82624">
        <ele>63.8</ele>
        <time>2020-06-14T17:49:45Z</time>
      </trkpt>
      <trkpt lat="49.5607" lon="-1.82618">
        <ele>64.1</ele>
        <time>2020-06-14T17:49:46Z</time>
      </trkpt>
      <trkpt lat="49.56068" lon="-1.82613">
        <ele>64.3</ele>
        <time>2020-06-14T17:49:47Z</time>
      </trkpt>
      <trkpt lat="49.56068" lon="-1.82608">
        <ele>64.4</ele>
        <time>2020-06-14T17:49:48Z</time>
      </trkpt>
      <trkpt lat="49.56067" lon="-1.82603">
        <ele>64.6</ele>
        <time>2020-06-14T17:49:49Z</time>
      </trkpt>
      <trkpt lat="49.56068" lon="-1.82598">
        <ele>64.7</ele>
        <time>2020-06-14T17:49:50Z</time>
      </trkpt>
      <trkpt lat="49.5607" lon="-1.82595">
        <ele>64.8</ele>
        <time>2020-06-14T17:49:51Z</time>
      </trkpt>
      <trkpt lat="49.56072" lon="-1.82591">
        <ele>65</ele>
        <time>2020-06-14T17:49:52Z</time>
      </trkpt>
      <trkpt lat="49.56074" lon="-1.82586">
        <ele>65.2</ele>
        <time>2020-06-14T17:49:53Z</time>
      </trkpt>
      <trkpt lat="49.56076" lon="-1.82582">
        <ele>65.4</ele>
        <time>2020-06-14T17:49:54Z</time>
      </trkpt>
      <trkpt lat="49.56078" lon="-1.82578">
        <ele>65.6</ele>
        <time>2020-06-14T17:49:55Z</time>
      </trkpt>
      <trkpt lat="49.5608" lon="-1.82574">
        <ele>65.8</ele>
        <time>2020-06-14T17:49:56Z</time>
      </trkpt>
      <trkpt lat="49.56081" lon="-1.8257">
        <ele>66.1</ele>
        <time>2020-06-14T17:49:57Z</time>
      </trkpt>
      <trkpt lat="49.56083" lon="-1.82566">
        <ele>66.4</ele>
        <time>2020-06-14T17:49:58Z</time>
      </trkpt>
      <trkpt lat="49.56086" lon="-1.82563">
        <ele>66.7</ele>
        <time>2020-06-14T17:49:59Z</time>
      </trkpt>
      <trkpt lat="49.56089" lon="-1.82559">
        <ele>67.1</ele>
        <time>2020-06-14T17:50:00Z</time>
      </trkpt>
      <trkpt lat="49.5609" lon="-1.82555">
        <ele>67.4</ele>
        <time>2020-06-14T17:50:01Z</time>
      </trkpt>
      <trkpt lat="49.56091" lon="-1.8255">
        <ele>67.7</ele>
        <time>2020-06-14T17:50:02Z</time>
      </trkpt>
      <trkpt lat="49.56091" lon="-1.82546">
        <ele>68</ele>
        <time>2020-06-14T17:50:03Z</time>
      </trkpt>
      <trkpt lat="49.56091" lon="-1.8254">
        <ele>68.4</ele>
        <time>2020-06-14T17:50:04Z</time>
      </trkpt>
      <trkpt lat="49.56091" lon="-1.82538">
        <ele>68.6</ele>
        <time>2020-06-14T17:50:05Z</time>
      </trkpt>
      <trkpt lat="49.56089" lon="-1.82534">
        <ele>68.9</ele>
        <time>2020-06-14T17:50:06Z</time>
      </trkpt>
      <trkpt lat="49.56089" lon="-1.82529">
        <ele>69.2</ele>
        <time>2020-06-14T17:50:07Z</time>
      </trkpt>
      <trkpt lat="49.56088" lon="-1.82524">
        <ele>69.6</ele>
        <time>2020-06-14T17:50:08Z</time>
      </trkpt>
      <trkpt lat="49.56087" lon="-1.82519">
        <ele>69.9</ele>
        <time>2020-06-14T17:50:09Z</time>
      </trkpt>
      <trkpt lat="49.56086" lon="-1.82513">
        <ele>70.3</ele>
        <time>2020-06-14T17:50:10Z</time>
      </trkpt>
      <trkpt lat="49.56086" lon="-1.82511">
        <ele>70.4</ele>
        <time>2020-06-14T17:50:11Z</time>
      </trkpt>
      <trkpt lat="49.56084" lon="-1.82505">
        <ele>70.8</ele>
        <time>2020-06-14T17:50:12Z</time>
      </trkpt>
      <trkpt lat="49.56084" lon="-1.82503">
        <ele>70.9</ele>
        <time>2020-06-14T17:50:13Z</time>
      </trkpt>
      <trkpt lat="49.56083" lon="-1.82497">
        <ele>71.2</ele>
        <time>2020-06-14T17:50:14Z</time>
      </trkpt>
      <trkpt lat="49.56081" lon="-1.82492">
        <ele>71.5</ele>
        <time>2020-06-14T17:50:15Z</time>
      </trkpt>
      <trkpt lat="49.56081" lon="-1.82485">
        <ele>71.8</ele>
        <time>2020-06-14T17:50:16Z</time>
      </trkpt>
      <trkpt lat="49.56081" lon="-1.82479">
        <ele>72.2</ele>
        <time>2020-06-14T17:50:17Z</time>
      </trkpt>
      <trkpt lat="49.5608" lon="-1.82474">
        <ele>72.5</ele>
        <time>2020-06-14T17:50:18Z</time>
      </trkpt>
      <trkpt lat="49.56079" lon="-1.8247">
        <ele>72.7</ele>
        <time>2020-06-14T17:50:19Z</time>
      </trkpt>
      <trkpt lat="49.56078" lon="-1.82468">
        <ele>72.9</ele>
        <time>2020-06-14T17:50:20Z</time>
      </trkpt>
      <trkpt lat="49.56078" lon="-1.82464">
        <ele>73.1</ele>
        <time>2020-06-14T17:50:21Z</time>
      </trkpt>
      <trkpt lat="49.56077" lon="-1.8246">
        <ele>73.4</ele>
        <time>2020-06-14T17:50:22Z</time>
      </trkpt>
      <trkpt lat="49.56077" lon="-1.82454">
        <ele>73.7</ele>
        <time>2020-06-14T17:50:23Z</time>
      </trkpt>
      <trkpt lat="49.56078" lon="-1.8245">
        <ele>74</ele>
        <time>2020-06-14T17:50:24Z</time>
      </trkpt>
      <trkpt lat="49.56077" lon="-1.82445">
        <ele>74.2</ele>
        <time>2020-06-14T17:50:25Z</time>
      </trkpt>
      <trkpt lat="49.56077" lon="-1.82441">
        <ele>74.4</ele>
        <time>2020-06-14T17:50:26Z</time>
      </trkpt>
      <trkpt lat="49.56076" lon="-1.82435">
        <ele>74.8</ele>
        <time>2020-06-14T17:50:27Z</time>
      </trkpt>
      <trkpt lat="49.56076" lon="-1.82433">
        <ele>74.9</ele>
        <time>2020-06-14T17:50:28Z</time>
      </trkpt>
      <trkpt lat="49.56075" lon="-1.82427">
        <ele>75.2</ele>
        <time>2020-06-14T17:50:29Z</time>
      </trkpt>
      <trkpt lat="49.56075" lon="-1.82425">
        <ele>75.4</ele>
        <time>2020-06-14T17:50:30Z</time>
      </trkpt>
      <trkpt lat="49.56074" lon="-1.8242">
        <ele>75.6</ele>
        <time>2020-06-14T17:50:31Z</time>
      </trkpt>
      <trkpt lat="49.56075" lon="-1.82415">
        <ele>75.9</ele>
        <time>2020-06-14T17:50:32Z</time>
      </trkpt>
      <trkpt lat="49.56075" lon="-1.82413">
        <ele>76.1</ele>
        <time>2020-06-14T17:50:33Z</time>
      </trkpt>
      <trkpt lat="49.56075" lon="-1.82408">
        <ele>76.3</ele>
        <time>2020-06-14T17:50:34Z</time>
      </trkpt>
      <trkpt lat="49.56074" lon="-1.82403">
        <ele>76.5</ele>
        <time>2020-06-14T17:50:35Z</time>
      </trkpt>
      <trkpt lat="49.56074" lon="-1.82398">
        <ele>76.7</ele>
        <time>2020-06-14T17:50:36Z</time>
      </trkpt>
      <trkpt lat="49.56074" lon="-1.82394">
        <ele>76.9</ele>
        <time>2020-06-14T17:50:37Z</time>
      </trkpt>
      <trkpt lat="49.56074" lon="-1.82387">
        <ele>77.1</ele>
        <time>2020-06-14T17:50:38Z</time>
      </trkpt>
      <trkpt lat="49.56075" lon="-1.82382">
        <ele>77.3</ele>
        <time>2020-06-14T17:50:39Z</time>
      </trkpt>
      <trkpt lat="49.56075" lon="-1.8238">
        <ele>77.4</ele>
        <time>2020-06-14T17:50:40Z</time>
      </trkpt>
      <trkpt lat="49.56075" lon="-1.82375">
        <ele>77.5</ele>
        <time>2020-06-14T17:50:41Z</time>
      </trkpt>
      <trkpt lat="49.56075" lon="-1.8237">
        <ele>77.6</ele>
        <time>2020-06-14T17:50:42Z</time>
      </trkpt>
      <trkpt lat="49.56076" lon="-1.82365">
        <ele>77.8</ele>
        <time>2020-06-14T17:50:43Z</time>
      </trkpt>
      <trkpt lat="49.56076" lon="-1.8236">
        <ele>77.9</ele>
        <time>2020-06-14T17:50:44Z</time>
      </trkpt>
      <trkpt lat="49.56076" lon="-1.82355">
        <ele>78</ele>
        <time>2020-06-14T17:50:45Z</time>
      </trkpt>
      <trkpt lat="49.56077" lon="-1.8235">
        <ele>78</ele>
        <time>2020-06-14T17:50:46Z</time>
      </trkpt>
      <trkpt lat="49.56077" lon="-1.82345">
        <ele>78.1</ele>
        <time>2020-06-14T17:50:47Z</time>
      </trkpt>
      <trkpt lat="49.56078" lon="-1.82341">
        <ele>78.1</ele>
        <time>2020-06-14T17:50:48Z</time>
      </trkpt>
      <trkpt lat="49.56079" lon="-1.82336">
        <ele>78.1</ele>
        <time>2020-06-14T17:50:49Z</time>
      </trkpt>
      <trkpt lat="49.5608" lon="-1.82332">
        <ele>78.2</ele>
        <time>2020-06-14T17:50:50Z</time>
      </trkpt>
      <trkpt lat="49.56081" lon="-1.82328">
        <ele>78.2</ele>
        <time>2020-06-14T17:50:51Z</time>
      </trkpt>
      <trkpt lat="49.56083" lon="-1.82323">
        <ele>78.2</ele>
        <time>2020-06-14T17:50:52Z</time>
      </trkpt>
      <trkpt lat="49.56085" lon="-1.82318">
        <ele>78.2</ele>
        <time>2020-06-14T17:50:53Z</time>
      </trkpt>
      <trkpt lat="49.56087" lon="-1.82312">
        <ele>78.2</ele>
        <time>2020-06-14T17:50:54Z</time>
      </trkpt>
      <trkpt lat="49.56089" lon="-1.82308">
        <ele>78.1</ele>
        <time>2020-06-14T17:50:55Z</time>
      </trkpt>
      <trkpt lat="49.56092" lon="-1.82301">
        <ele>77.9</ele>
        <time>2020-06-14T17:50:56Z</time>
      </trkpt>
      <trkpt lat="49.56094" lon="-1.82294">
        <ele>77.7</ele>
        <time>2020-06-14T17:50:57Z</time>
      </trkpt>
      <trkpt lat="49.56098" lon="-1.82288">
        <ele>77.5</ele>
        <time>2020-06-14T17:50:58Z</time>
      </trkpt>
      <trkpt lat="49.561" lon="-1.82282">
        <ele>77.4</ele>
        <time>2020-06-14T17:50:59Z</time>
      </trkpt>
      <trkpt lat="49.56103" lon="-1.82276">
        <ele>77.2</ele>
        <time>2020-06-14T17:51:00Z</time>
      </trkpt>
      <trkpt lat="49.56105" lon="-1.82268">
        <ele>76.9</ele>
        <time>2020-06-14T17:51:01Z</time>
      </trkpt>
      <trkpt lat="49.56106" lon="-1.82262">
        <ele>76.7</ele>
        <time>2020-06-14T17:51:02Z</time>
      </trkpt>
      <trkpt lat="49.56107" lon="-1.82257">
        <ele>76.6</ele>
        <time>2020-06-14T17:51:03Z</time>
      </trkpt>
      <trkpt lat="49.5611" lon="-1.8225">
        <ele>76.3</ele>
        <time>2020-06-14T17:51:04Z</time>
      </trkpt>
      <trkpt lat="49.56113" lon="-1.82242">
        <ele>76.1</ele>
        <time>2020-06-14T17:51:05Z</time>
      </trkpt>
      <trkpt lat="49.56117" lon="-1.82234">
        <ele>75.8</ele>
        <time>2020-06-14T17:51:06Z</time>
      </trkpt>
      <trkpt lat="49.56121" lon="-1.82226">
        <ele>75.5</ele>
        <time>2020-06-14T17:51:07Z</time>
      </trkpt>
      <trkpt lat="49.56125" lon="-1.82221">
        <ele>75.1</ele>
        <time>2020-06-14T17:51:08Z</time>
      </trkpt>
      <trkpt lat="49.5613" lon="-1.82214">
        <ele>74.5</ele>
        <time>2020-06-14T17:51:09Z</time>
      </trkpt>
      <trkpt lat="49.56134" lon="-1.82206">
        <ele>73.9</ele>
        <time>2020-06-14T17:51:10Z</time>
      </trkpt>
      <trkpt lat="49.56138" lon="-1.82199">
        <ele>73.3</ele>
        <time>2020-06-14T17:51:11Z</time>
      </trkpt>
      <trkpt lat="49.56141" lon="-1.82192">
        <ele>72.6</ele>
        <time>2020-06-14T17:51:12Z</time>
      </trkpt>
      <trkpt lat="49.56144" lon="-1.82186">
        <ele>72.2</ele>
        <time>2020-06-14T17:51:13Z</time>
      </trkpt>
      <trkpt lat="49.56146" lon="-1.82181">
        <ele>72.1</ele>
        <time>2020-06-14T17:51:14Z</time>
      </trkpt>
      <trkpt lat="49.56148" lon="-1.82177">
        <ele>71.9</ele>
        <time>2020-06-14T17:51:15Z</time>
      </trkpt>
      <trkpt lat="49.56149" lon="-1.82175">
        <ele>71.8</ele>
        <time>2020-06-14T17:51:16Z</time>
      </trkpt>
      <trkpt lat="49.56151" lon="-1.8217">
        <ele>71.6</ele>
        <time>2020-06-14T17:51:17Z</time>
      </trkpt>
      <trkpt lat="49.56154" lon="-1.82164">
        <ele>71.3</ele>
        <time>2020-06-14T17:51:18Z</time>
      </trkpt>
      <trkpt lat="49.56157" lon="-1.82158">
        <ele>70.9</ele>
        <time>2020-06-14T17:51:19Z</time>
      </trkpt>
      <trkpt lat="49.56159" lon="-1.82151">
        <ele>70.5</ele>
        <time>2020-06-14T17:51:20Z</time>
      </trkpt>
      <trkpt lat="49.56162" lon="-1.82145">
        <ele>70.1</ele>
        <time>2020-06-14T17:51:21Z</time>
      </trkpt>
      <trkpt lat="49.56165" lon="-1.82139">
        <ele>69.7</ele>
        <time>2020-06-14T17:51:22Z</time>
      </trkpt>
      <trkpt lat="49.56167" lon="-1.82134">
        <ele>69.3</ele>
        <time>2020-06-14T17:51:23Z</time>
      </trkpt>
      <trkpt lat="49.5617" lon="-1.82129">
        <ele>68.9</ele>
        <time>2020-06-14T17:51:24Z</time>
      </trkpt>
      <trkpt lat="49.56173" lon="-1.82123">
        <ele>68.5</ele>
        <time>2020-06-14T17:51:25Z</time>
      </trkpt>
      <trkpt lat="49.56177" lon="-1.82118">
        <ele>68.1</ele>
        <time>2020-06-14T17:51:26Z</time>
      </trkpt>
      <trkpt lat="49.56181" lon="-1.82114">
        <ele>67.7</ele>
        <time>2020-06-14T17:51:27Z</time>
      </trkpt>
      <trkpt lat="49.56185" lon="-1.8211">
        <ele>67.4</ele>
        <time>2020-06-14T17:51:28Z</time>
      </trkpt>
      <trkpt lat="49.56188" lon="-1.82106">
        <ele>67.1</ele>
        <time>2020-06-14T17:51:29Z</time>
      </trkpt>
      <trkpt lat="49.56193" lon="-1.82101">
        <ele>66.7</ele>
        <time>2020-06-14T17:51:30Z</time>
      </trkpt>
      <trkpt lat="49.56196" lon="-1.82096">
        <ele>66.4</ele>
        <time>2020-06-14T17:51:31Z</time>
      </trkpt>
      <trkpt lat="49.562" lon="-1.82092">
        <ele>66</ele>
        <time>2020-06-14T17:51:32Z</time>
      </trkpt>
      <trkpt lat="49.56204" lon="-1.82089">
        <ele>65.8</ele>
        <time>2020-06-14T17:51:33Z</time>
      </trkpt>
      <trkpt lat="49.56207" lon="-1.82086">
        <ele>65.5</ele>
        <time>2020-06-14T17:51:34Z</time>
      </trkpt>
      <trkpt lat="49.5621" lon="-1.82082">
        <ele>65.2</ele>
        <time>2020-06-14T17:51:35Z</time>
      </trkpt>
      <trkpt lat="49.56216" lon="-1.82074">
        <ele>64.7</ele>
        <time>2020-06-14T17:51:36Z</time>
      </trkpt>
      <trkpt lat="49.5622" lon="-1.82069">
        <ele>64.3</ele>
        <time>2020-06-14T17:51:37Z</time>
      </trkpt>
      <trkpt lat="49.56223" lon="-1.82063">
        <ele>64</ele>
        <time>2020-06-14T17:51:38Z</time>
      </trkpt>
      <trkpt lat="49.56227" lon="-1.82058">
        <ele>63.6</ele>
        <time>2020-06-14T17:51:39Z</time>
      </trkpt>
      <trkpt lat="49.5623" lon="-1.82052">
        <ele>63.2</ele>
        <time>2020-06-14T17:51:40Z</time>
      </trkpt>
      <trkpt lat="49.56236" lon="-1.82045">
        <ele>62.6</ele>
        <time>2020-06-14T17:51:41Z</time>
      </trkpt>
      <trkpt lat="49.56241" lon="-1.82038">
        <ele>62.1</ele>
        <time>2020-06-14T17:51:42Z</time>
      </trkpt>
      <trkpt lat="49.56246" lon="-1.82029">
        <ele>61.6</ele>
        <time>2020-06-14T17:51:43Z</time>
      </trkpt>
      <trkpt lat="49.56252" lon="-1.82024">
        <ele>61.1</ele>
        <time>2020-06-14T17:51:44Z</time>
      </trkpt>
      <trkpt lat="49.56257" lon="-1.82018">
        <ele>60.7</ele>
        <time>2020-06-14T17:51:45Z</time>
      </trkpt>
      <trkpt lat="49.56261" lon="-1.82014">
        <ele>60.3</ele>
        <time>2020-06-14T17:51:46Z</time>
      </trkpt>
      <trkpt lat="49.56265" lon="-1.82011">
        <ele>60</ele>
        <time>2020-06-14T17:51:47Z</time>
      </trkpt>
      <trkpt lat="49.56269" lon="-1.82007">
        <ele>59.6</ele>
        <time>2020-06-14T17:51:48Z</time>
      </trkpt>
      <trkpt lat="49.56274" lon="-1.82002">
        <ele>59.2</ele>
        <time>2020-06-14T17:51:49Z</time>
      </trkpt>
      <trkpt lat="49.56279" lon="-1.81996">
        <ele>58.8</ele>
        <time>2020-06-14T17:51:50Z</time>
      </trkpt>
      <trkpt lat="49.56282" lon="-1.81992">
        <ele>58.5</ele>
        <time>2020-06-14T17:51:51Z</time>
      </trkpt>
      <trkpt lat="49.56286" lon="-1.81987">
        <ele>58.2</ele>
        <time>2020-06-14T17:51:52Z</time>
      </trkpt>
      <trkpt lat="49.5629" lon="-1.81981">
        <ele>57.8</ele>
        <time>2020-06-14T17:51:53Z</time>
      </trkpt>
      <trkpt lat="49.56295" lon="-1.81975">
        <ele>57.4</ele>
        <time>2020-06-14T17:51:54Z</time>
      </trkpt>
      <trkpt lat="49.563" lon="-1.81966">
        <ele>56.9</ele>
        <time>2020-06-14T17:51:55Z</time>
      </trkpt>
      <trkpt lat="49.56305" lon="-1.81957">
        <ele>56.4</ele>
        <time>2020-06-14T17:51:56Z</time>
      </trkpt>
      <trkpt lat="49.56309" lon="-1.8195">
        <ele>56.1</ele>
        <time>2020-06-14T17:51:57Z</time>
      </trkpt>
      <trkpt lat="49.56313" lon="-1.8194">
        <ele>55.6</ele>
        <time>2020-06-14T17:51:58Z</time>
      </trkpt>
      <trkpt lat="49.56317" lon="-1.81931">
        <ele>55.3</ele>
        <time>2020-06-14T17:51:59Z</time>
      </trkpt>
      <trkpt lat="49.56321" lon="-1.81923">
        <ele>55</ele>
        <time>2020-06-14T17:52:00Z</time>
      </trkpt>
      <trkpt lat="49.56324" lon="-1.81914">
        <ele>54.7</ele>
        <time>2020-06-14T17:52:01Z</time>
      </trkpt>
      <trkpt lat="49.56327" lon="-1.81909">
        <ele>54.5</ele>
        <time>2020-06-14T17:52:02Z</time>
      </trkpt>
      <trkpt lat="49.5633" lon="-1.81903">
        <ele>54.2</ele>
        <time>2020-06-14T17:52:03Z</time>
      </trkpt>
      <trkpt lat="49.56334" lon="-1.81896">
        <ele>53.9</ele>
        <time>2020-06-14T17:52:04Z</time>
      </trkpt>
      <trkpt lat="49.56339" lon="-1.8189">
        <ele>53.5</ele>
        <time>2020-06-14T17:52:05Z</time>
      </trkpt>
      <trkpt lat="49.56343" lon="-1.81884">
        <ele>53.2</ele>
        <time>2020-06-14T17:52:06Z</time>
      </trkpt>
      <trkpt lat="49.56348" lon="-1.81877">
        <ele>52.8</ele>
        <time>2020-06-14T17:52:07Z</time>
      </trkpt>
      <trkpt lat="49.56353" lon="-1.81871">
        <ele>52.5</ele>
        <time>2020-06-14T17:52:08Z</time>
      </trkpt>
      <trkpt lat="49.56358" lon="-1.81864">
        <ele>52</ele>
        <time>2020-06-14T17:52:09Z</time>
      </trkpt>
      <trkpt lat="49.56364" lon="-1.81858">
        <ele>51.5</ele>
        <time>2020-06-14T17:52:10Z</time>
      </trkpt>
      <trkpt lat="49.5637" lon="-1.8185">
        <ele>51.1</ele>
        <time>2020-06-14T17:52:11Z</time>
      </trkpt>
      <trkpt lat="49.56376" lon="-1.81843">
        <ele>50.7</ele>
        <time>2020-06-14T17:52:12Z</time>
      </trkpt>
      <trkpt lat="49.56382" lon="-1.81835">
        <ele>50.3</ele>
        <time>2020-06-14T17:52:13Z</time>
      </trkpt>
      <trkpt lat="49.56387" lon="-1.81827">
        <ele>49.9</ele>
        <time>2020-06-14T17:52:14Z</time>
      </trkpt>
      <trkpt lat="49.56392" lon="-1.81818">
        <ele>49.5</ele>
        <time>2020-06-14T17:52:15Z</time>
      </trkpt>
      <trkpt lat="49.56397" lon="-1.8181">
        <ele>49.2</ele>
        <time>2020-06-14T17:52:16Z</time>
      </trkpt>
      <trkpt lat="49.56402" lon="-1.81803">
        <ele>48.8</ele>
        <time>2020-06-14T17:52:17Z</time>
      </trkpt>
      <trkpt lat="49.56407" lon="-1.81795">
        <ele>48.5</ele>
        <time>2020-06-14T17:52:18Z</time>
      </trkpt>
      <trkpt lat="49.56412" lon="-1.81788">
        <ele>48.2</ele>
        <time>2020-06-14T17:52:19Z</time>
      </trkpt>
      <trkpt lat="49.56418" lon="-1.8178">
        <ele>48</ele>
        <time>2020-06-14T17:52:20Z</time>
      </trkpt>
      <trkpt lat="49.56426" lon="-1.81775">
        <ele>47.7</ele>
        <time>2020-06-14T17:52:21Z</time>
      </trkpt>
      <trkpt lat="49.56434" lon="-1.81768">
        <ele>47.3</ele>
        <time>2020-06-14T17:52:22Z</time>
      </trkpt>
      <trkpt lat="49.56442" lon="-1.8176">
        <ele>47</ele>
        <time>2020-06-14T17:52:23Z</time>
      </trkpt>
      <trkpt lat="49.5645" lon="-1.8175">
        <ele>46.6</ele>
        <time>2020-06-14T17:52:24Z</time>
      </trkpt>
      <trkpt lat="49.56457" lon="-1.81742">
        <ele>46.4</ele>
        <time>2020-06-14T17:52:25Z</time>
      </trkpt>
      <trkpt lat="49.56465" lon="-1.81732">
        <ele>46.1</ele>
        <time>2020-06-14T17:52:26Z</time>
      </trkpt>
      <trkpt lat="49.5647" lon="-1.81724">
        <ele>46</ele>
        <time>2020-06-14T17:52:27Z</time>
      </trkpt>
      <trkpt lat="49.56472" lon="-1.81718">
        <ele>45.9</ele>
        <time>2020-06-14T17:52:28Z</time>
      </trkpt>
      <trkpt lat="49.56474" lon="-1.8171">
        <ele>45.8</ele>
        <time>2020-06-14T17:52:29Z</time>
      </trkpt>
      <trkpt lat="49.56475" lon="-1.81704">
        <ele>46</ele>
        <time>2020-06-14T17:52:30Z</time>
      </trkpt>
      <trkpt lat="49.56475" lon="-1.81697">
        <ele>46.3</ele>
        <time>2020-06-14T17:52:31Z</time>
      </trkpt>
      <trkpt lat="49.56474" lon="-1.81692">
        <ele>46.4</ele>
        <time>2020-06-14T17:52:32Z</time>
      </trkpt>
      <trkpt lat="49.56473" lon="-1.81688">
        <ele>46.6</ele>
        <time>2020-06-14T17:52:33Z</time>
      </trkpt>
      <trkpt lat="49.56472" lon="-1.81683">
        <ele>46.7</ele>
        <time>2020-06-14T17:52:34Z</time>
      </trkpt>
      <trkpt lat="49.56471" lon="-1.81677">
        <ele>46.9</ele>
        <time>2020-06-14T17:52:35Z</time>
      </trkpt>
      <trkpt lat="49.56471" lon="-1.8167">
        <ele>47.1</ele>
        <time>2020-06-14T17:52:36Z</time>
      </trkpt>
      <trkpt lat="49.56472" lon="-1.81664">
        <ele>47.3</ele>
        <time>2020-06-14T17:52:37Z</time>
      </trkpt>
      <trkpt lat="49.56471" lon="-1.81659">
        <ele>47.5</ele>
        <time>2020-06-14T17:52:38Z</time>
      </trkpt>
      <trkpt lat="49.56471" lon="-1.81653">
        <ele>47.6</ele>
        <time>2020-06-14T17:52:39Z</time>
      </trkpt>
      <trkpt lat="49.56471" lon="-1.81646">
        <ele>47.8</ele>
        <time>2020-06-14T17:52:40Z</time>
      </trkpt>
      <trkpt lat="49.5647" lon="-1.8164">
        <ele>47.9</ele>
        <time>2020-06-14T17:52:41Z</time>
      </trkpt>
      <trkpt lat="49.5647" lon="-1.81635">
        <ele>48</ele>
        <time>2020-06-14T17:52:42Z</time>
      </trkpt>
      <trkpt lat="49.56462" lon="-1.81629">
        <ele>48.3</ele>
        <time>2020-06-14T17:52:43Z</time>
      </trkpt>
      <trkpt lat="49.56462" lon="-1.81623">
        <ele>48.4</ele>
        <time>2020-06-14T17:52:44Z</time>
      </trkpt>
      <trkpt lat="49.56461" lon="-1.81616">
        <ele>48.6</ele>
        <time>2020-06-14T17:52:45Z</time>
      </trkpt>
      <trkpt lat="49.56461" lon="-1.8161">
        <ele>48.7</ele>
        <time>2020-06-14T17:52:46Z</time>
      </trkpt>
      <trkpt lat="49.56461" lon="-1.81604">
        <ele>48.8</ele>
        <time>2020-06-14T17:52:47Z</time>
      </trkpt>
      <trkpt lat="49.56461" lon="-1.81599">
        <ele>48.9</ele>
        <time>2020-06-14T17:52:48Z</time>
      </trkpt>
      <trkpt lat="49.5646" lon="-1.81594">
        <ele>48.9</ele>
        <time>2020-06-14T17:52:49Z</time>
      </trkpt>
      <trkpt lat="49.5646" lon="-1.81588">
        <ele>49</ele>
        <time>2020-06-14T17:52:50Z</time>
      </trkpt>
      <trkpt lat="49.5646" lon="-1.81583">
        <ele>49.1</ele>
        <time>2020-06-14T17:52:51Z</time>
      </trkpt>
      <trkpt lat="49.56461" lon="-1.81576">
        <ele>49.1</ele>
        <time>2020-06-14T17:52:52Z</time>
      </trkpt>
      <trkpt lat="49.56462" lon="-1.81574">
        <ele>49.1</ele>
        <time>2020-06-14T17:52:53Z</time>
      </trkpt>
      <trkpt lat="49.56461" lon="-1.81567">
        <ele>49</ele>
        <time>2020-06-14T17:52:54Z</time>
      </trkpt>
      <trkpt lat="49.5646" lon="-1.81565">
        <ele>49</ele>
        <time>2020-06-14T17:52:55Z</time>
      </trkpt>
      <trkpt lat="49.5646" lon="-1.81559">
        <ele>48.9</ele>
        <time>2020-06-14T17:52:56Z</time>
      </trkpt>
      <trkpt lat="49.5646" lon="-1.81554">
        <ele>48.8</ele>
        <time>2020-06-14T17:52:57Z</time>
      </trkpt>
      <trkpt lat="49.56461" lon="-1.81549">
        <ele>48.6</ele>
        <time>2020-06-14T17:52:58Z</time>
      </trkpt>
      <trkpt lat="49.56461" lon="-1.81543">
        <ele>48.5</ele>
        <time>2020-06-14T17:52:59Z</time>
      </trkpt>
      <trkpt lat="49.56462" lon="-1.81538">
        <ele>48.3</ele>
        <time>2020-06-14T17:53:00Z</time>
      </trkpt>
      <trkpt lat="49.56463" lon="-1.81532">
        <ele>48.2</ele>
        <time>2020-06-14T17:53:01Z</time>
      </trkpt>
      <trkpt lat="49.56465" lon="-1.81527">
        <ele>48</ele>
        <time>2020-06-14T17:53:02Z</time>
      </trkpt>
      <trkpt lat="49.56469" lon="-1.81521">
        <ele>47.3</ele>
        <time>2020-06-14T17:53:03Z</time>
      </trkpt>
      <trkpt lat="49.56473" lon="-1.81517">
        <ele>47.1</ele>
        <time>2020-06-14T17:53:04Z</time>
      </trkpt>
      <trkpt lat="49.56477" lon="-1.81514">
        <ele>46.9</ele>
        <time>2020-06-14T17:53:05Z</time>
      </trkpt>
      <trkpt lat="49.56481" lon="-1.81512">
        <ele>46.7</ele>
        <time>2020-06-14T17:53:06Z</time>
      </trkpt>
      <trkpt lat="49.56485" lon="-1.81507">
        <ele>46.5</ele>
        <time>2020-06-14T17:53:07Z</time>
      </trkpt>
      <trkpt lat="49.56489" lon="-1.81502">
        <ele>46.3</ele>
        <time>2020-06-14T17:53:08Z</time>
      </trkpt>
      <trkpt lat="49.56492" lon="-1.81495">
        <ele>46.1</ele>
        <time>2020-06-14T17:53:09Z</time>
      </trkpt>
      <trkpt lat="49.56496" lon="-1.81491">
        <ele>46</ele>
        <time>2020-06-14T17:53:10Z</time>
      </trkpt>
      <trkpt lat="49.565" lon="-1.81488">
        <ele>45.8</ele>
        <time>2020-06-14T17:53:11Z</time>
      </trkpt>
      <trkpt lat="49.56505" lon="-1.81484">
        <ele>45.7</ele>
        <time>2020-06-14T17:53:12Z</time>
      </trkpt>
      <trkpt lat="49.56508" lon="-1.81479">
        <ele>45.6</ele>
        <time>2020-06-14T17:53:13Z</time>
      </trkpt>
      <trkpt lat="49.56512" lon="-1.81475">
        <ele>45.5</ele>
        <time>2020-06-14T17:53:14Z</time>
      </trkpt>
      <trkpt lat="49.56515" lon="-1.8147">
        <ele>45.5</ele>
        <time>2020-06-14T17:53:15Z</time>
      </trkpt>
      <trkpt lat="49.56518" lon="-1.81466">
        <ele>45.6</ele>
        <time>2020-06-14T17:53:16Z</time>
      </trkpt>
      <trkpt lat="49.56522" lon="-1.81464">
        <ele>45.7</ele>
        <time>2020-06-14T17:53:17Z</time>
      </trkpt>
      <trkpt lat="49.56523" lon="-1.81459">
        <ele>45.8</ele>
        <time>2020-06-14T17:53:18Z</time>
      </trkpt>
      <trkpt lat="49.56526" lon="-1.81455">
        <ele>45.9</ele>
        <time>2020-06-14T17:53:19Z</time>
      </trkpt>
      <trkpt lat="49.56528" lon="-1.8145">
        <ele>46</ele>
        <time>2020-06-14T17:53:20Z</time>
      </trkpt>
      <trkpt lat="49.5653" lon="-1.81445">
        <ele>46.2</ele>
        <time>2020-06-14T17:53:21Z</time>
      </trkpt>
      <trkpt lat="49.56532" lon="-1.81441">
        <ele>46.3</ele>
        <time>2020-06-14T17:53:22Z</time>
      </trkpt>
      <trkpt lat="49.56533" lon="-1.81437">
        <ele>46.4</ele>
        <time>2020-06-14T17:53:23Z</time>
      </trkpt>
      <trkpt lat="49.56533" lon="-1.81433">
        <ele>46.5</ele>
        <time>2020-06-14T17:53:24Z</time>
      </trkpt>
      <trkpt lat="49.56535" lon="-1.81428">
        <ele>46.7</ele>
        <time>2020-06-14T17:53:25Z</time>
      </trkpt>
      <trkpt lat="49.56536" lon="-1.81426">
        <ele>46.8</ele>
        <time>2020-06-14T17:53:26Z</time>
      </trkpt>
      <trkpt lat="49.56536" lon="-1.81418">
        <ele>47.1</ele>
        <time>2020-06-14T17:53:27Z</time>
      </trkpt>
      <trkpt lat="49.56535" lon="-1.81415">
        <ele>47.2</ele>
        <time>2020-06-14T17:53:28Z</time>
      </trkpt>
      <trkpt lat="49.56536" lon="-1.8141">
        <ele>47.4</ele>
        <time>2020-06-14T17:53:29Z</time>
      </trkpt>
      <trkpt lat="49.56538" lon="-1.81406">
        <ele>47.6</ele>
        <time>2020-06-14T17:53:30Z</time>
      </trkpt>
      <trkpt lat="49.56538" lon="-1.81402">
        <ele>47.8</ele>
        <time>2020-06-14T17:53:31Z</time>
      </trkpt>
      <trkpt lat="49.5654" lon="-1.81396">
        <ele>48.1</ele>
        <time>2020-06-14T17:53:32Z</time>
      </trkpt>
      <trkpt lat="49.56541" lon="-1.81395">
        <ele>48.1</ele>
        <time>2020-06-14T17:53:33Z</time>
      </trkpt>
      <trkpt lat="49.56543" lon="-1.8139">
        <ele>48.4</ele>
        <time>2020-06-14T17:53:34Z</time>
      </trkpt>
      <trkpt lat="49.56544" lon="-1.81388">
        <ele>48.5</ele>
        <time>2020-06-14T17:53:35Z</time>
      </trkpt>
      <trkpt lat="49.56546" lon="-1.81384">
        <ele>48.7</ele>
        <time>2020-06-14T17:53:36Z</time>
      </trkpt>
      <trkpt lat="49.56547" lon="-1.8138">
        <ele>49</ele>
        <time>2020-06-14T17:53:37Z</time>
      </trkpt>
      <trkpt lat="49.56549" lon="-1.81376">
        <ele>49.2</ele>
        <time>2020-06-14T17:53:38Z</time>
      </trkpt>
      <trkpt lat="49.5655" lon="-1.81372">
        <ele>49.4</ele>
        <time>2020-06-14T17:53:39Z</time>
      </trkpt>
      <trkpt lat="49.56553" lon="-1.81367">
        <ele>49.8</ele>
        <time>2020-06-14T17:53:40Z</time>
      </trkpt>
      <trkpt lat="49.56553" lon="-1.81365">
        <ele>49.9</ele>
        <time>2020-06-14T17:53:41Z</time>
      </trkpt>
      <trkpt lat="49.56555" lon="-1.8136">
        <ele>50.2</ele>
        <time>2020-06-14T17:53:42Z</time>
      </trkpt>
      <trkpt lat="49.56556" lon="-1.81358">
        <ele>50.3</ele>
        <time>2020-06-14T17:53:43Z</time>
      </trkpt>
      <trkpt lat="49.56558" lon="-1.81354">
        <ele>50.6</ele>
        <time>2020-06-14T17:53:44Z</time>
      </trkpt>
      <trkpt lat="49.56559" lon="-1.8135">
        <ele>50.9</ele>
        <time>2020-06-14T17:53:45Z</time>
      </trkpt>
      <trkpt lat="49.56561" lon="-1.81346">
        <ele>51.1</ele>
        <time>2020-06-14T17:53:46Z</time>
      </trkpt>
      <trkpt lat="49.56562" lon="-1.81342">
        <ele>51.4</ele>
        <time>2020-06-14T17:53:47Z</time>
      </trkpt>
      <trkpt lat="49.56565" lon="-1.81338">
        <ele>51.7</ele>
        <time>2020-06-14T17:53:48Z</time>
      </trkpt>
      <trkpt lat="49.56565" lon="-1.81336">
        <ele>51.8</ele>
        <time>2020-06-14T17:53:49Z</time>
      </trkpt>
      <trkpt lat="49.56567" lon="-1.81331">
        <ele>52.1</ele>
        <time>2020-06-14T17:53:50Z</time>
      </trkpt>
      <trkpt lat="49.56568" lon="-1.8133">
        <ele>52.2</ele>
        <time>2020-06-14T17:53:51Z</time>
      </trkpt>
      <trkpt lat="49.56569" lon="-1.81324">
        <ele>52.5</ele>
        <time>2020-06-14T17:53:52Z</time>
      </trkpt>
      <trkpt lat="49.5657" lon="-1.81323">
        <ele>52.7</ele>
        <time>2020-06-14T17:53:53Z</time>
      </trkpt>
      <trkpt lat="49.56572" lon="-1.81318">
        <ele>53</ele>
        <time>2020-06-14T17:53:54Z</time>
      </trkpt>
      <trkpt lat="49.56572" lon="-1.81316">
        <ele>53.1</ele>
        <time>2020-06-14T17:53:55Z</time>
      </trkpt>
      <trkpt lat="49.56574" lon="-1.81312">
        <ele>53.3</ele>
        <time>2020-06-14T17:53:56Z</time>
      </trkpt>
      <trkpt lat="49.56576" lon="-1.81307">
        <ele>53.7</ele>
        <time>2020-06-14T17:53:57Z</time>
      </trkpt>
      <trkpt lat="49.56576" lon="-1.81305">
        <ele>53.8</ele>
        <time>2020-06-14T17:53:58Z</time>
      </trkpt>
      <trkpt lat="49.56578" lon="-1.81302">
        <ele>54</ele>
        <time>2020-06-14T17:53:59Z</time>
      </trkpt>
      <trkpt lat="49.5658" lon="-1.81298">
        <ele>54.3</ele>
        <time>2020-06-14T17:54:00Z</time>
      </trkpt>
      <trkpt lat="49.56582" lon="-1.81294">
        <ele>54.5</ele>
        <time>2020-06-14T17:54:01Z</time>
      </trkpt>
      <trkpt lat="49.56583" lon="-1.8129">
        <ele>54.7</ele>
        <time>2020-06-14T17:54:02Z</time>
      </trkpt>
      <trkpt lat="49.56585" lon="-1.81284">
        <ele>55</ele>
        <time>2020-06-14T17:54:03Z</time>
      </trkpt>
      <trkpt lat="49.56586" lon="-1.81282">
        <ele>55.1</ele>
        <time>2020-06-14T17:54:04Z</time>
      </trkpt>
      <trkpt lat="49.56587" lon="-1.81278">
        <ele>55.3</ele>
        <time>2020-06-14T17:54:05Z</time>
      </trkpt>
      <trkpt lat="49.56589" lon="-1.81273">
        <ele>55.5</ele>
        <time>2020-06-14T17:54:06Z</time>
      </trkpt>
      <trkpt lat="49.5659" lon="-1.81271">
        <ele>55.6</ele>
        <time>2020-06-14T17:54:07Z</time>
      </trkpt>
      <trkpt lat="49.56592" lon="-1.81267">
        <ele>55.8</ele>
        <time>2020-06-14T17:54:08Z</time>
      </trkpt>
      <trkpt lat="49.56593" lon="-1.81265">
        <ele>55.9</ele>
        <time>2020-06-14T17:54:09Z</time>
      </trkpt>
      <trkpt lat="49.56595" lon="-1.8126">
        <ele>56.1</ele>
        <time>2020-06-14T17:54:10Z</time>
      </trkpt>
      <trkpt lat="49.56596" lon="-1.81257">
        <ele>56.3</ele>
        <time>2020-06-14T17:54:11Z</time>
      </trkpt>
      <trkpt lat="49.56597" lon="-1.81252">
        <ele>56.5</ele>
        <time>2020-06-14T17:54:12Z</time>
      </trkpt>
      <trkpt lat="49.56599" lon="-1.81248">
        <ele>56.7</ele>
        <time>2020-06-14T17:54:13Z</time>
      </trkpt>
      <trkpt lat="49.56601" lon="-1.81243">
        <ele>57</ele>
        <time>2020-06-14T17:54:14Z</time>
      </trkpt>
      <trkpt lat="49.56602" lon="-1.81241">
        <ele>57.1</ele>
        <time>2020-06-14T17:54:15Z</time>
      </trkpt>
      <trkpt lat="49.56604" lon="-1.81237">
        <ele>57.3</ele>
        <time>2020-06-14T17:54:16Z</time>
      </trkpt>
      <trkpt lat="49.56605" lon="-1.81235">
        <ele>57.4</ele>
        <time>2020-06-14T17:54:17Z</time>
      </trkpt>
      <trkpt lat="49.56606" lon="-1.81231">
        <ele>57.6</ele>
        <time>2020-06-14T17:54:18Z</time>
      </trkpt>
      <trkpt lat="49.56608" lon="-1.81228">
        <ele>57.8</ele>
        <time>2020-06-14T17:54:19Z</time>
      </trkpt>
      <trkpt lat="49.5661" lon="-1.81223">
        <ele>58.1</ele>
        <time>2020-06-14T17:54:20Z</time>
      </trkpt>
      <trkpt lat="49.5661" lon="-1.81221">
        <ele>58.1</ele>
        <time>2020-06-14T17:54:21Z</time>
      </trkpt>
      <trkpt lat="49.56612" lon="-1.81216">
        <ele>58.4</ele>
        <time>2020-06-14T17:54:22Z</time>
      </trkpt>
      <trkpt lat="49.56613" lon="-1.81215">
        <ele>58.5</ele>
        <time>2020-06-14T17:54:23Z</time>
      </trkpt>
      <trkpt lat="49.56614" lon="-1.81211">
        <ele>58.7</ele>
        <time>2020-06-14T17:54:24Z</time>
      </trkpt>
      <trkpt lat="49.56615" lon="-1.81209">
        <ele>58.8</ele>
        <time>2020-06-14T17:54:25Z</time>
      </trkpt>
      <trkpt lat="49.56616" lon="-1.81205">
        <ele>59</ele>
        <time>2020-06-14T17:54:26Z</time>
      </trkpt>
      <trkpt lat="49.56617" lon="-1.81201">
        <ele>59.2</ele>
        <time>2020-06-14T17:54:27Z</time>
      </trkpt>
      <trkpt lat="49.56619" lon="-1.81197">
        <ele>59.4</ele>
        <time>2020-06-14T17:54:28Z</time>
      </trkpt>
      <trkpt lat="49.56621" lon="-1.81191">
        <ele>59.7</ele>
        <time>2020-06-14T17:54:29Z</time>
      </trkpt>
      <trkpt lat="49.56622" lon="-1.8119">
        <ele>59.8</ele>
        <time>2020-06-14T17:54:30Z</time>
      </trkpt>
      <trkpt lat="49.56623" lon="-1.81186">
        <ele>60</ele>
        <time>2020-06-14T17:54:31Z</time>
      </trkpt>
      <trkpt lat="49.56624" lon="-1.81182">
        <ele>60.2</ele>
        <time>2020-06-14T17:54:32Z</time>
      </trkpt>
      <trkpt lat="49.56626" lon="-1.81178">
        <ele>60.4</ele>
        <time>2020-06-14T17:54:33Z</time>
      </trkpt>
      <trkpt lat="49.56627" lon="-1.81174">
        <ele>60.6</ele>
        <time>2020-06-14T17:54:34Z</time>
      </trkpt>
      <trkpt lat="49.56629" lon="-1.81169">
        <ele>60.8</ele>
        <time>2020-06-14T17:54:35Z</time>
      </trkpt>
      <trkpt lat="49.5663" lon="-1.81167">
        <ele>60.9</ele>
        <time>2020-06-14T17:54:36Z</time>
      </trkpt>
      <trkpt lat="49.56631" lon="-1.81162">
        <ele>61.2</ele>
        <time>2020-06-14T17:54:37Z</time>
      </trkpt>
      <trkpt lat="49.56632" lon="-1.8116">
        <ele>61.3</ele>
        <time>2020-06-14T17:54:38Z</time>
      </trkpt>
      <trkpt lat="49.56634" lon="-1.81155">
        <ele>61.6</ele>
        <time>2020-06-14T17:54:39Z</time>
      </trkpt>
      <trkpt lat="49.56634" lon="-1.81153">
        <ele>61.7</ele>
        <time>2020-06-14T17:54:40Z</time>
      </trkpt>
      <trkpt lat="49.56636" lon="-1.8115">
        <ele>61.9</ele>
        <time>2020-06-14T17:54:41Z</time>
      </trkpt>
      <trkpt lat="49.56637" lon="-1.81145">
        <ele>62.1</ele>
        <time>2020-06-14T17:54:42Z</time>
      </trkpt>
      <trkpt lat="49.56638" lon="-1.81141">
        <ele>62.3</ele>
        <time>2020-06-14T17:54:43Z</time>
      </trkpt>
      <trkpt lat="49.56639" lon="-1.81137">
        <ele>62.5</ele>
        <time>2020-06-14T17:54:44Z</time>
      </trkpt>
      <trkpt lat="49.5664" lon="-1.81131">
        <ele>62.7</ele>
        <time>2020-06-14T17:54:45Z</time>
      </trkpt>
      <trkpt lat="49.56641" lon="-1.81129">
        <ele>62.8</ele>
        <time>2020-06-14T17:54:46Z</time>
      </trkpt>
      <trkpt lat="49.56643" lon="-1.81124">
        <ele>63.1</ele>
        <time>2020-06-14T17:54:47Z</time>
      </trkpt>
      <trkpt lat="49.56643" lon="-1.81122">
        <ele>63.2</ele>
        <time>2020-06-14T17:54:48Z</time>
      </trkpt>
      <trkpt lat="49.56644" lon="-1.81118">
        <ele>63.3</ele>
        <time>2020-06-14T17:54:49Z</time>
      </trkpt>
      <trkpt lat="49.56645" lon="-1.81114">
        <ele>63.5</ele>
        <time>2020-06-14T17:54:50Z</time>
      </trkpt>
      <trkpt lat="49.56647" lon="-1.8111">
        <ele>63.7</ele>
        <time>2020-06-14T17:54:51Z</time>
      </trkpt>
      <trkpt lat="49.56649" lon="-1.81105">
        <ele>63.9</ele>
        <time>2020-06-14T17:54:52Z</time>
      </trkpt>
      <trkpt lat="49.56649" lon="-1.81103">
        <ele>64</ele>
        <time>2020-06-14T17:54:53Z</time>
      </trkpt>
      <trkpt lat="49.56651" lon="-1.81097">
        <ele>64.3</ele>
        <time>2020-06-14T17:54:54Z</time>
      </trkpt>
      <trkpt lat="49.56652" lon="-1.81095">
        <ele>64.4</ele>
        <time>2020-06-14T17:54:55Z</time>
      </trkpt>
      <trkpt lat="49.56654" lon="-1.81091">
        <ele>64.6</ele>
        <time>2020-06-14T17:54:56Z</time>
      </trkpt>
      <trkpt lat="49.56655" lon="-1.81087">
        <ele>64.8</ele>
        <time>2020-06-14T17:54:57Z</time>
      </trkpt>
      <trkpt lat="49.56657" lon="-1.81081">
        <ele>65</ele>
        <time>2020-06-14T17:54:58Z</time>
      </trkpt>
      <trkpt lat="49.56658" lon="-1.81079">
        <ele>65.1</ele>
        <time>2020-06-14T17:54:59Z</time>
      </trkpt>
      <trkpt lat="49.56659" lon="-1.81075">
        <ele>65.3</ele>
        <time>2020-06-14T17:55:00Z</time>
      </trkpt>
      <trkpt lat="49.5666" lon="-1.8107">
        <ele>65.5</ele>
        <time>2020-06-14T17:55:01Z</time>
      </trkpt>
      <trkpt lat="49.56661" lon="-1.81066">
        <ele>65.7</ele>
        <time>2020-06-14T17:55:02Z</time>
      </trkpt>
      <trkpt lat="49.56662" lon="-1.8106">
        <ele>65.9</ele>
        <time>2020-06-14T17:55:03Z</time>
      </trkpt>
      <trkpt lat="49.56663" lon="-1.81058">
        <ele>66</ele>
        <time>2020-06-14T17:55:04Z</time>
      </trkpt>
      <trkpt lat="49.56664" lon="-1.81054">
        <ele>66.1</ele>
        <time>2020-06-14T17:55:05Z</time>
      </trkpt>
      <trkpt lat="49.56666" lon="-1.8105">
        <ele>66.3</ele>
        <time>2020-06-14T17:55:06Z</time>
      </trkpt>
      <trkpt lat="49.56666" lon="-1.81048">
        <ele>66.4</ele>
        <time>2020-06-14T17:55:07Z</time>
      </trkpt>
      <trkpt lat="49.56667" lon="-1.81044">
        <ele>66.5</ele>
        <time>2020-06-14T17:55:08Z</time>
      </trkpt>
      <trkpt lat="49.56668" lon="-1.8104">
        <ele>66.6</ele>
        <time>2020-06-14T17:55:09Z</time>
      </trkpt>
      <trkpt lat="49.56669" lon="-1.81034">
        <ele>66.8</ele>
        <time>2020-06-14T17:55:10Z</time>
      </trkpt>
      <trkpt lat="49.5667" lon="-1.81032">
        <ele>66.8</ele>
        <time>2020-06-14T17:55:11Z</time>
      </trkpt>
      <trkpt lat="49.56671" lon="-1.81028">
        <ele>66.9</ele>
        <time>2020-06-14T17:55:12Z</time>
      </trkpt>
      <trkpt lat="49.56673" lon="-1.81024">
        <ele>66.9</ele>
        <time>2020-06-14T17:55:13Z</time>
      </trkpt>
      <trkpt lat="49.56674" lon="-1.81019">
        <ele>66.9</ele>
        <time>2020-06-14T17:55:14Z</time>
      </trkpt>
      <trkpt lat="49.56674" lon="-1.81017">
        <ele>66.9</ele>
        <time>2020-06-14T17:55:15Z</time>
      </trkpt>
      <trkpt lat="49.56675" lon="-1.81012">
        <ele>66.8</ele>
        <time>2020-06-14T17:55:16Z</time>
      </trkpt>
      <trkpt lat="49.56675" lon="-1.8101">
        <ele>66.8</ele>
        <time>2020-06-14T17:55:17Z</time>
      </trkpt>
      <trkpt lat="49.56676" lon="-1.81006">
        <ele>67.2</ele>
        <time>2020-06-14T17:55:18Z</time>
      </trkpt>
      <trkpt lat="49.56677" lon="-1.81002">
        <ele>67.5</ele>
        <time>2020-06-14T17:55:19Z</time>
      </trkpt>
      <trkpt lat="49.56677" lon="-1.80997">
        <ele>67.8</ele>
        <time>2020-06-14T17:55:20Z</time>
      </trkpt>
      <trkpt lat="49.56678" lon="-1.80993">
        <ele>68</ele>
        <time>2020-06-14T17:55:21Z</time>
      </trkpt>
      <trkpt lat="49.56679" lon="-1.80988">
        <ele>68.3</ele>
        <time>2020-06-14T17:55:22Z</time>
      </trkpt>
      <trkpt lat="49.5668" lon="-1.80984">
        <ele>68.5</ele>
        <time>2020-06-14T17:55:23Z</time>
      </trkpt>
      <trkpt lat="49.56681" lon="-1.80979">
        <ele>68.7</ele>
        <time>2020-06-14T17:55:24Z</time>
      </trkpt>
      <trkpt lat="49.56682" lon="-1.80975">
        <ele>68.8</ele>
        <time>2020-06-14T17:55:25Z</time>
      </trkpt>
      <trkpt lat="49.56683" lon="-1.80971">
        <ele>69</ele>
        <time>2020-06-14T17:55:26Z</time>
      </trkpt>
      <trkpt lat="49.56684" lon="-1.80966">
        <ele>69.1</ele>
        <time>2020-06-14T17:55:27Z</time>
      </trkpt>
      <trkpt lat="49.56685" lon="-1.80961">
        <ele>69.3</ele>
        <time>2020-06-14T17:55:28Z</time>
      </trkpt>
      <trkpt lat="49.56686" lon="-1.80956">
        <ele>69.4</ele>
        <time>2020-06-14T17:55:29Z</time>
      </trkpt>
      <trkpt lat="49.56687" lon="-1.80954">
        <ele>69.5</ele>
        <time>2020-06-14T17:55:30Z</time>
      </trkpt>
      <trkpt lat="49.56687" lon="-1.80948">
        <ele>69.6</ele>
        <time>2020-06-14T17:55:31Z</time>
      </trkpt>
      <trkpt lat="49.56688" lon="-1.80946">
        <ele>69.7</ele>
        <time>2020-06-14T17:55:32Z</time>
      </trkpt>
      <trkpt lat="49.56688" lon="-1.80942">
        <ele>69.8</ele>
        <time>2020-06-14T17:55:33Z</time>
      </trkpt>
      <trkpt lat="49.56689" lon="-1.80937">
        <ele>69.9</ele>
        <time>2020-06-14T17:55:34Z</time>
      </trkpt>
      <trkpt lat="49.5669" lon="-1.80932">
        <ele>70.2</ele>
        <time>2020-06-14T17:55:35Z</time>
      </trkpt>
      <trkpt lat="49.5669" lon="-1.8093">
        <ele>70.2</ele>
        <time>2020-06-14T17:55:36Z</time>
      </trkpt>
      <trkpt lat="49.56691" lon="-1.80925">
        <ele>70.4</ele>
        <time>2020-06-14T17:55:37Z</time>
      </trkpt>
      <trkpt lat="49.56692" lon="-1.80921">
        <ele>70.5</ele>
        <time>2020-06-14T17:55:38Z</time>
      </trkpt>
      <trkpt lat="49.56692" lon="-1.80917">
        <ele>70.7</ele>
        <time>2020-06-14T17:55:39Z</time>
      </trkpt>
      <trkpt lat="49.56692" lon="-1.80912">
        <ele>70.8</ele>
        <time>2020-06-14T17:55:40Z</time>
      </trkpt>
      <trkpt lat="49.56693" lon="-1.80907">
        <ele>71</ele>
        <time>2020-06-14T17:55:41Z</time>
      </trkpt>
      <trkpt lat="49.56694" lon="-1.80902">
        <ele>71.1</ele>
        <time>2020-06-14T17:55:42Z</time>
      </trkpt>
      <trkpt lat="49.56694" lon="-1.80898">
        <ele>71.3</ele>
        <time>2020-06-14T17:55:43Z</time>
      </trkpt>
      <trkpt lat="49.56695" lon="-1.80892">
        <ele>71.5</ele>
        <time>2020-06-14T17:55:44Z</time>
      </trkpt>
      <trkpt lat="49.56695" lon="-1.80889">
        <ele>71.6</ele>
        <time>2020-06-14T17:55:45Z</time>
      </trkpt>
      <trkpt lat="49.56696" lon="-1.80885">
        <ele>71.7</ele>
        <time>2020-06-14T17:55:46Z</time>
      </trkpt>
      <trkpt lat="49.56697" lon="-1.80881">
        <ele>71.9</ele>
        <time>2020-06-14T17:55:47Z</time>
      </trkpt>
      <trkpt lat="49.56698" lon="-1.80876">
        <ele>72.1</ele>
        <time>2020-06-14T17:55:48Z</time>
      </trkpt>
      <trkpt lat="49.56698" lon="-1.80871">
        <ele>72.3</ele>
        <time>2020-06-14T17:55:49Z</time>
      </trkpt>
      <trkpt lat="49.56699" lon="-1.80866">
        <ele>72.5</ele>
        <time>2020-06-14T17:55:50Z</time>
      </trkpt>
      <trkpt lat="49.567" lon="-1.80861">
        <ele>72.7</ele>
        <time>2020-06-14T17:55:51Z</time>
      </trkpt>
      <trkpt lat="49.56701" lon="-1.80857">
        <ele>72.8</ele>
        <time>2020-06-14T17:55:52Z</time>
      </trkpt>
      <trkpt lat="49.56702" lon="-1.80852">
        <ele>73</ele>
        <time>2020-06-14T17:55:53Z</time>
      </trkpt>
      <trkpt lat="49.56703" lon="-1.80847">
        <ele>73.2</ele>
        <time>2020-06-14T17:55:54Z</time>
      </trkpt>
      <trkpt lat="49.56704" lon="-1.80842">
        <ele>73.3</ele>
        <time>2020-06-14T17:55:55Z</time>
      </trkpt>
      <trkpt lat="49.56705" lon="-1.80837">
        <ele>73.5</ele>
        <time>2020-06-14T17:55:56Z</time>
      </trkpt>
      <trkpt lat="49.56706" lon="-1.80831">
        <ele>73.8</ele>
        <time>2020-06-14T17:55:57Z</time>
      </trkpt>
      <trkpt lat="49.56708" lon="-1.80826">
        <ele>74</ele>
        <time>2020-06-14T17:55:58Z</time>
      </trkpt>
      <trkpt lat="49.56708" lon="-1.80821">
        <ele>74.2</ele>
        <time>2020-06-14T17:55:59Z</time>
      </trkpt>
      <trkpt lat="49.56709" lon="-1.80816">
        <ele>74.3</ele>
        <time>2020-06-14T17:56:00Z</time>
      </trkpt>
      <trkpt lat="49.5671" lon="-1.80812">
        <ele>74.5</ele>
        <time>2020-06-14T17:56:01Z</time>
      </trkpt>
      <trkpt lat="49.56711" lon="-1.80807">
        <ele>74.7</ele>
        <time>2020-06-14T17:56:02Z</time>
      </trkpt>
      <trkpt lat="49.56711" lon="-1.80802">
        <ele>74.8</ele>
        <time>2020-06-14T17:56:03Z</time>
      </trkpt>
      <trkpt lat="49.56711" lon="-1.80795">
        <ele>75</ele>
        <time>2020-06-14T17:56:04Z</time>
      </trkpt>
      <trkpt lat="49.56711" lon="-1.80793">
        <ele>75.1</ele>
        <time>2020-06-14T17:56:05Z</time>
      </trkpt>
      <trkpt lat="49.56711" lon="-1.80788">
        <ele>75.2</ele>
        <time>2020-06-14T17:56:06Z</time>
      </trkpt>
      <trkpt lat="49.56712" lon="-1.80782">
        <ele>75.4</ele>
        <time>2020-06-14T17:56:07Z</time>
      </trkpt>
      <trkpt lat="49.56712" lon="-1.80777">
        <ele>75.6</ele>
        <time>2020-06-14T17:56:08Z</time>
      </trkpt>
      <trkpt lat="49.56712" lon="-1.80771">
        <ele>75.9</ele>
        <time>2020-06-14T17:56:09Z</time>
      </trkpt>
      <trkpt lat="49.56714" lon="-1.80767">
        <ele>76.1</ele>
        <time>2020-06-14T17:56:10Z</time>
      </trkpt>
      <trkpt lat="49.56714" lon="-1.8076">
        <ele>76.3</ele>
        <time>2020-06-14T17:56:11Z</time>
      </trkpt>
      <trkpt lat="49.56714" lon="-1.80757">
        <ele>76.4</ele>
        <time>2020-06-14T17:56:12Z</time>
      </trkpt>
      <trkpt lat="49.56714" lon="-1.80752">
        <ele>76.6</ele>
        <time>2020-06-14T17:56:13Z</time>
      </trkpt>
      <trkpt lat="49.56715" lon="-1.80748">
        <ele>76.7</ele>
        <time>2020-06-14T17:56:14Z</time>
      </trkpt>
      <trkpt lat="49.56716" lon="-1.80743">
        <ele>76.9</ele>
        <time>2020-06-14T17:56:15Z</time>
      </trkpt>
      <trkpt lat="49.56717" lon="-1.80738">
        <ele>77</ele>
        <time>2020-06-14T17:56:16Z</time>
      </trkpt>
      <trkpt lat="49.56717" lon="-1.80732">
        <ele>77.1</ele>
        <time>2020-06-14T17:56:17Z</time>
      </trkpt>
      <trkpt lat="49.56717" lon="-1.80727">
        <ele>77.3</ele>
        <time>2020-06-14T17:56:18Z</time>
      </trkpt>
      <trkpt lat="49.56717" lon="-1.80722">
        <ele>77.4</ele>
        <time>2020-06-14T17:56:19Z</time>
      </trkpt>
      <trkpt lat="49.56718" lon="-1.80717">
        <ele>77.5</ele>
        <time>2020-06-14T17:56:20Z</time>
      </trkpt>
      <trkpt lat="49.56718" lon="-1.80711">
        <ele>77.7</ele>
        <time>2020-06-14T17:56:21Z</time>
      </trkpt>
      <trkpt lat="49.56718" lon="-1.80705">
        <ele>77.9</ele>
        <time>2020-06-14T17:56:22Z</time>
      </trkpt>
      <trkpt lat="49.56718" lon="-1.807">
        <ele>78</ele>
        <time>2020-06-14T17:56:23Z</time>
      </trkpt>
      <trkpt lat="49.56718" lon="-1.80695">
        <ele>78.1</ele>
        <time>2020-06-14T17:56:24Z</time>
      </trkpt>
      <trkpt lat="49.56718" lon="-1.8069">
        <ele>78.2</ele>
        <time>2020-06-14T17:56:25Z</time>
      </trkpt>
      <trkpt lat="49.56719" lon="-1.80685">
        <ele>78.3</ele>
        <time>2020-06-14T17:56:26Z</time>
      </trkpt>
      <trkpt lat="49.56719" lon="-1.8068">
        <ele>78.4</ele>
        <time>2020-06-14T17:56:27Z</time>
      </trkpt>
      <trkpt lat="49.56721" lon="-1.80676">
        <ele>78.5</ele>
        <time>2020-06-14T17:56:28Z</time>
      </trkpt>
      <trkpt lat="49.56721" lon="-1.80671">
        <ele>78.6</ele>
        <time>2020-06-14T17:56:29Z</time>
      </trkpt>
      <trkpt lat="49.56721" lon="-1.80666">
        <ele>78.7</ele>
        <time>2020-06-14T17:56:30Z</time>
      </trkpt>
      <trkpt lat="49.56722" lon="-1.8066">
        <ele>78.8</ele>
        <time>2020-06-14T17:56:31Z</time>
      </trkpt>
      <trkpt lat="49.56722" lon="-1.80655">
        <ele>79</ele>
        <time>2020-06-14T17:56:32Z</time>
      </trkpt>
      <trkpt lat="49.56722" lon="-1.80649">
        <ele>79.1</ele>
        <time>2020-06-14T17:56:33Z</time>
      </trkpt>
      <trkpt lat="49.56722" lon="-1.80643">
        <ele>79.3</ele>
        <time>2020-06-14T17:56:34Z</time>
      </trkpt>
      <trkpt lat="49.56724" lon="-1.80638">
        <ele>79.4</ele>
        <time>2020-06-14T17:56:35Z</time>
      </trkpt>
      <trkpt lat="49.56725" lon="-1.80632">
        <ele>79.6</ele>
        <time>2020-06-14T17:56:36Z</time>
      </trkpt>
      <trkpt lat="49.56726" lon="-1.80628">
        <ele>79.7</ele>
        <time>2020-06-14T17:56:37Z</time>
      </trkpt>
      <trkpt lat="49.56726" lon="-1.80623">
        <ele>79.8</ele>
        <time>2020-06-14T17:56:38Z</time>
      </trkpt>
      <trkpt lat="49.56728" lon="-1.80618">
        <ele>79.9</ele>
        <time>2020-06-14T17:56:39Z</time>
      </trkpt>
      <trkpt lat="49.56729" lon="-1.80612">
        <ele>80.1</ele>
        <time>2020-06-14T17:56:40Z</time>
      </trkpt>
      <trkpt lat="49.56731" lon="-1.80608">
        <ele>80.2</ele>
        <time>2020-06-14T17:56:41Z</time>
      </trkpt>
      <trkpt lat="49.56732" lon="-1.80602">
        <ele>80.3</ele>
        <time>2020-06-14T17:56:42Z</time>
      </trkpt>
      <trkpt lat="49.56733" lon="-1.80597">
        <ele>80.4</ele>
        <time>2020-06-14T17:56:43Z</time>
      </trkpt>
      <trkpt lat="49.56734" lon="-1.80592">
        <ele>80.6</ele>
        <time>2020-06-14T17:56:44Z</time>
      </trkpt>
      <trkpt lat="49.56735" lon="-1.80587">
        <ele>80.7</ele>
        <time>2020-06-14T17:56:45Z</time>
      </trkpt>
      <trkpt lat="49.56735" lon="-1.80582">
        <ele>80.9</ele>
        <time>2020-06-14T17:56:46Z</time>
      </trkpt>
      <trkpt lat="49.56736" lon="-1.80577">
        <ele>81</ele>
        <time>2020-06-14T17:56:47Z</time>
      </trkpt>
      <trkpt lat="49.56736" lon="-1.80572">
        <ele>81.2</ele>
        <time>2020-06-14T17:56:48Z</time>
      </trkpt>
      <trkpt lat="49.56736" lon="-1.80567">
        <ele>81.3</ele>
        <time>2020-06-14T17:56:49Z</time>
      </trkpt>
      <trkpt lat="49.56736" lon="-1.80561">
        <ele>81.4</ele>
        <time>2020-06-14T17:56:50Z</time>
      </trkpt>
      <trkpt lat="49.56737" lon="-1.80555">
        <ele>81.5</ele>
        <time>2020-06-14T17:56:51Z</time>
      </trkpt>
      <trkpt lat="49.56738" lon="-1.80549">
        <ele>81.7</ele>
        <time>2020-06-14T17:56:52Z</time>
      </trkpt>
      <trkpt lat="49.56739" lon="-1.80545">
        <ele>81.8</ele>
        <time>2020-06-14T17:56:53Z</time>
      </trkpt>
      <trkpt lat="49.5674" lon="-1.80539">
        <ele>81.9</ele>
        <time>2020-06-14T17:56:54Z</time>
      </trkpt>
      <trkpt lat="49.5674" lon="-1.80534">
        <ele>82.1</ele>
        <time>2020-06-14T17:56:55Z</time>
      </trkpt>
      <trkpt lat="49.56741" lon="-1.80528">
        <ele>82.2</ele>
        <time>2020-06-14T17:56:56Z</time>
      </trkpt>
      <trkpt lat="49.56742" lon="-1.80523">
        <ele>82.3</ele>
        <time>2020-06-14T17:56:57Z</time>
      </trkpt>
      <trkpt lat="49.56743" lon="-1.80518">
        <ele>82.4</ele>
        <time>2020-06-14T17:56:58Z</time>
      </trkpt>
      <trkpt lat="49.56745" lon="-1.80514">
        <ele>82.4</ele>
        <time>2020-06-14T17:56:59Z</time>
      </trkpt>
      <trkpt lat="49.56746" lon="-1.80509">
        <ele>82.4</ele>
        <time>2020-06-14T17:57:00Z</time>
      </trkpt>
      <trkpt lat="49.56748" lon="-1.80503">
        <ele>82.5</ele>
        <time>2020-06-14T17:57:01Z</time>
      </trkpt>
      <trkpt lat="49.56749" lon="-1.80498">
        <ele>82.5</ele>
        <time>2020-06-14T17:57:02Z</time>
      </trkpt>
      <trkpt lat="49.56751" lon="-1.80492">
        <ele>82.5</ele>
        <time>2020-06-14T17:57:03Z</time>
      </trkpt>
      <trkpt lat="49.56753" lon="-1.80486">
        <ele>82.4</ele>
        <time>2020-06-14T17:57:04Z</time>
      </trkpt>
      <trkpt lat="49.56755" lon="-1.80479">
        <ele>82.4</ele>
        <time>2020-06-14T17:57:05Z</time>
      </trkpt>
      <trkpt lat="49.56757" lon="-1.80473">
        <ele>82.3</ele>
        <time>2020-06-14T17:57:06Z</time>
      </trkpt>
      <trkpt lat="49.56759" lon="-1.80466">
        <ele>82.3</ele>
        <time>2020-06-14T17:57:07Z</time>
      </trkpt>
      <trkpt lat="49.56761" lon="-1.80458">
        <ele>82.2</ele>
        <time>2020-06-14T17:57:08Z</time>
      </trkpt>
      <trkpt lat="49.56762" lon="-1.80451">
        <ele>82.2</ele>
        <time>2020-06-14T17:57:09Z</time>
      </trkpt>
      <trkpt lat="49.56765" lon="-1.80444">
        <ele>82.2</ele>
        <time>2020-06-14T17:57:10Z</time>
      </trkpt>
      <trkpt lat="49.56766" lon="-1.80436">
        <ele>82.1</ele>
        <time>2020-06-14T17:57:11Z</time>
      </trkpt>
      <trkpt lat="49.56769" lon="-1.80428">
        <ele>82.1</ele>
        <time>2020-06-14T17:57:12Z</time>
      </trkpt>
      <trkpt lat="49.56771" lon="-1.80421">
        <ele>82.1</ele>
        <time>2020-06-14T17:57:13Z</time>
      </trkpt>
      <trkpt lat="49.56772" lon="-1.80414">
        <ele>82</ele>
        <time>2020-06-14T17:57:14Z</time>
      </trkpt>
      <trkpt lat="49.56774" lon="-1.80407">
        <ele>82</ele>
        <time>2020-06-14T17:57:15Z</time>
      </trkpt>
      <trkpt lat="49.56776" lon="-1.80399">
        <ele>82</ele>
        <time>2020-06-14T17:57:16Z</time>
      </trkpt>
      <trkpt lat="49.56778" lon="-1.8039">
        <ele>81.9</ele>
        <time>2020-06-14T17:57:17Z</time>
      </trkpt>
      <trkpt lat="49.5678" lon="-1.80382">
        <ele>81.9</ele>
        <time>2020-06-14T17:57:18Z</time>
      </trkpt>
      <trkpt lat="49.56782" lon="-1.80374">
        <ele>81.9</ele>
        <time>2020-06-14T17:57:19Z</time>
      </trkpt>
      <trkpt lat="49.56783" lon="-1.80367">
        <ele>82</ele>
        <time>2020-06-14T17:57:20Z</time>
      </trkpt>
      <trkpt lat="49.56785" lon="-1.8036">
        <ele>82.1</ele>
        <time>2020-06-14T17:57:21Z</time>
      </trkpt>
      <trkpt lat="49.56786" lon="-1.80354">
        <ele>82.2</ele>
        <time>2020-06-14T17:57:22Z</time>
      </trkpt>
      <trkpt lat="49.56787" lon="-1.80348">
        <ele>82.3</ele>
        <time>2020-06-14T17:57:23Z</time>
      </trkpt>
      <trkpt lat="49.56788" lon="-1.80342">
        <ele>82.4</ele>
        <time>2020-06-14T17:57:24Z</time>
      </trkpt>
      <trkpt lat="49.5679" lon="-1.80336">
        <ele>82.5</ele>
        <time>2020-06-14T17:57:25Z</time>
      </trkpt>
      <trkpt lat="49.5679" lon="-1.8033">
        <ele>82.7</ele>
        <time>2020-06-14T17:57:26Z</time>
      </trkpt>
      <trkpt lat="49.56792" lon="-1.80324">
        <ele>82.9</ele>
        <time>2020-06-14T17:57:27Z</time>
      </trkpt>
      <trkpt lat="49.56793" lon="-1.80318">
        <ele>83</ele>
        <time>2020-06-14T17:57:28Z</time>
      </trkpt>
      <trkpt lat="49.56794" lon="-1.80312">
        <ele>83.2</ele>
        <time>2020-06-14T17:57:29Z</time>
      </trkpt>
      <trkpt lat="49.56796" lon="-1.80306">
        <ele>83.4</ele>
        <time>2020-06-14T17:57:30Z</time>
      </trkpt>
      <trkpt lat="49.56799" lon="-1.80302">
        <ele>83.5</ele>
        <time>2020-06-14T17:57:31Z</time>
      </trkpt>
      <trkpt lat="49.56801" lon="-1.80298">
        <ele>83.6</ele>
        <time>2020-06-14T17:57:32Z</time>
      </trkpt>
      <trkpt lat="49.56803" lon="-1.80293">
        <ele>83.8</ele>
        <time>2020-06-14T17:57:33Z</time>
      </trkpt>
      <trkpt lat="49.56804" lon="-1.80289">
        <ele>83.8</ele>
        <time>2020-06-14T17:57:34Z</time>
      </trkpt>
      <trkpt lat="49.56806" lon="-1.80284">
        <ele>83.9</ele>
        <time>2020-06-14T17:57:35Z</time>
      </trkpt>
      <trkpt lat="49.56808" lon="-1.80279">
        <ele>84</ele>
        <time>2020-06-14T17:57:36Z</time>
      </trkpt>
      <trkpt lat="49.5681" lon="-1.80273">
        <ele>84.1</ele>
        <time>2020-06-14T17:57:37Z</time>
      </trkpt>
      <trkpt lat="49.56812" lon="-1.80268">
        <ele>84.2</ele>
        <time>2020-06-14T17:57:38Z</time>
      </trkpt>
      <trkpt lat="49.56814" lon="-1.80263">
        <ele>84.2</ele>
        <time>2020-06-14T17:57:39Z</time>
      </trkpt>
      <trkpt lat="49.56816" lon="-1.80258">
        <ele>84.3</ele>
        <time>2020-06-14T17:57:40Z</time>
      </trkpt>
      <trkpt lat="49.56817" lon="-1.80253">
        <ele>84.4</ele>
        <time>2020-06-14T17:57:41Z</time>
      </trkpt>
      <trkpt lat="49.5682" lon="-1.80246">
        <ele>84.5</ele>
        <time>2020-06-14T17:57:42Z</time>
      </trkpt>
      <trkpt lat="49.56822" lon="-1.80241">
        <ele>84.6</ele>
        <time>2020-06-14T17:57:43Z</time>
      </trkpt>
      <trkpt lat="49.56824" lon="-1.80235">
        <ele>84.7</ele>
        <time>2020-06-14T17:57:44Z</time>
      </trkpt>
      <trkpt lat="49.56827" lon="-1.80231">
        <ele>84.8</ele>
        <time>2020-06-14T17:57:45Z</time>
      </trkpt>
      <trkpt lat="49.56829" lon="-1.80226">
        <ele>84.8</ele>
        <time>2020-06-14T17:57:46Z</time>
      </trkpt>
      <trkpt lat="49.56832" lon="-1.80221">
        <ele>84.8</ele>
        <time>2020-06-14T17:57:47Z</time>
      </trkpt>
      <trkpt lat="49.56834" lon="-1.80215">
        <ele>84.9</ele>
        <time>2020-06-14T17:57:48Z</time>
      </trkpt>
      <trkpt lat="49.56835" lon="-1.80209">
        <ele>85</ele>
        <time>2020-06-14T17:57:49Z</time>
      </trkpt>
      <trkpt lat="49.56837" lon="-1.80203">
        <ele>85.1</ele>
        <time>2020-06-14T17:57:50Z</time>
      </trkpt>
      <trkpt lat="49.5684" lon="-1.80198">
        <ele>85.3</ele>
        <time>2020-06-14T17:57:51Z</time>
      </trkpt>
      <trkpt lat="49.56842" lon="-1.80193">
        <ele>85.5</ele>
        <time>2020-06-14T17:57:52Z</time>
      </trkpt>
      <trkpt lat="49.56844" lon="-1.80187">
        <ele>85.6</ele>
        <time>2020-06-14T17:57:53Z</time>
      </trkpt>
      <trkpt lat="49.56846" lon="-1.80182">
        <ele>85.8</ele>
        <time>2020-06-14T17:57:54Z</time>
      </trkpt>
      <trkpt lat="49.56849" lon="-1.80177">
        <ele>85.9</ele>
        <time>2020-06-14T17:57:55Z</time>
      </trkpt>
      <trkpt lat="49.56851" lon="-1.80172">
        <ele>86</ele>
        <time>2020-06-14T17:57:56Z</time>
      </trkpt>
      <trkpt lat="49.56854" lon="-1.80167">
        <ele>86</ele>
        <time>2020-06-14T17:57:57Z</time>
      </trkpt>
      <trkpt lat="49.56856" lon="-1.80161">
        <ele>86.1</ele>
        <time>2020-06-14T17:57:58Z</time>
      </trkpt>
      <trkpt lat="49.56858" lon="-1.80156">
        <ele>86.1</ele>
        <time>2020-06-14T17:57:59Z</time>
      </trkpt>
      <trkpt lat="49.5686" lon="-1.8015">
        <ele>86.2</ele>
        <time>2020-06-14T17:58:00Z</time>
      </trkpt>
      <trkpt lat="49.56862" lon="-1.80145">
        <ele>86.2</ele>
        <time>2020-06-14T17:58:01Z</time>
      </trkpt>
      <trkpt lat="49.56864" lon="-1.8014">
        <ele>86.3</ele>
        <time>2020-06-14T17:58:02Z</time>
      </trkpt>
      <trkpt lat="49.56865" lon="-1.80135">
        <ele>86.4</ele>
        <time>2020-06-14T17:58:03Z</time>
      </trkpt>
      <trkpt lat="49.56867" lon="-1.8013">
        <ele>86.5</ele>
        <time>2020-06-14T17:58:04Z</time>
      </trkpt>
      <trkpt lat="49.5687" lon="-1.80125">
        <ele>86.6</ele>
        <time>2020-06-14T17:58:05Z</time>
      </trkpt>
      <trkpt lat="49.56872" lon="-1.80121">
        <ele>86.8</ele>
        <time>2020-06-14T17:58:06Z</time>
      </trkpt>
      <trkpt lat="49.56875" lon="-1.80116">
        <ele>86.9</ele>
        <time>2020-06-14T17:58:07Z</time>
      </trkpt>
      <trkpt lat="49.56877" lon="-1.8011">
        <ele>87</ele>
        <time>2020-06-14T17:58:08Z</time>
      </trkpt>
      <trkpt lat="49.5688" lon="-1.80106">
        <ele>87.1</ele>
        <time>2020-06-14T17:58:09Z</time>
      </trkpt>
      <trkpt lat="49.56882" lon="-1.80101">
        <ele>87.1</ele>
        <time>2020-06-14T17:58:10Z</time>
      </trkpt>
      <trkpt lat="49.56884" lon="-1.80097">
        <ele>87.2</ele>
        <time>2020-06-14T17:58:11Z</time>
      </trkpt>
      <trkpt lat="49.56884" lon="-1.80092">
        <ele>87.2</ele>
        <time>2020-06-14T17:58:12Z</time>
      </trkpt>
      <trkpt lat="49.56885" lon="-1.80087">
        <ele>87.2</ele>
        <time>2020-06-14T17:58:13Z</time>
      </trkpt>
      <trkpt lat="49.56886" lon="-1.80084">
        <ele>87.2</ele>
        <time>2020-06-14T17:58:14Z</time>
      </trkpt>
      <trkpt lat="49.56887" lon="-1.8008">
        <ele>87.3</ele>
        <time>2020-06-14T17:58:15Z</time>
      </trkpt>
      <trkpt lat="49.56889" lon="-1.80075">
        <ele>87.3</ele>
        <time>2020-06-14T17:58:16Z</time>
      </trkpt>
      <trkpt lat="49.56891" lon="-1.8007">
        <ele>87.3</ele>
        <time>2020-06-14T17:58:17Z</time>
      </trkpt>
      <trkpt lat="49.56893" lon="-1.80064">
        <ele>87.3</ele>
        <time>2020-06-14T17:58:18Z</time>
      </trkpt>
      <trkpt lat="49.56895" lon="-1.80059">
        <ele>87.3</ele>
        <time>2020-06-14T17:58:19Z</time>
      </trkpt>
      <trkpt lat="49.56897" lon="-1.80054">
        <ele>87.3</ele>
        <time>2020-06-14T17:58:20Z</time>
      </trkpt>
      <trkpt lat="49.569" lon="-1.80049">
        <ele>87.3</ele>
        <time>2020-06-14T17:58:21Z</time>
      </trkpt>
      <trkpt lat="49.56902" lon="-1.80044">
        <ele>87.2</ele>
        <time>2020-06-14T17:58:22Z</time>
      </trkpt>
      <trkpt lat="49.56904" lon="-1.80039">
        <ele>87.2</ele>
        <time>2020-06-14T17:58:23Z</time>
      </trkpt>
      <trkpt lat="49.56906" lon="-1.80034">
        <ele>87.1</ele>
        <time>2020-06-14T17:58:24Z</time>
      </trkpt>
      <trkpt lat="49.56909" lon="-1.80028">
        <ele>87.1</ele>
        <time>2020-06-14T17:58:25Z</time>
      </trkpt>
      <trkpt lat="49.56911" lon="-1.80023">
        <ele>87</ele>
        <time>2020-06-14T17:58:26Z</time>
      </trkpt>
      <trkpt lat="49.56913" lon="-1.80019">
        <ele>87</ele>
        <time>2020-06-14T17:58:27Z</time>
      </trkpt>
      <trkpt lat="49.56916" lon="-1.80014">
        <ele>86.9</ele>
        <time>2020-06-14T17:58:28Z</time>
      </trkpt>
      <trkpt lat="49.56919" lon="-1.80008">
        <ele>86.9</ele>
        <time>2020-06-14T17:58:29Z</time>
      </trkpt>
      <trkpt lat="49.5692" lon="-1.80002">
        <ele>86.8</ele>
        <time>2020-06-14T17:58:30Z</time>
      </trkpt>
      <trkpt lat="49.56923" lon="-1.79995">
        <ele>86.7</ele>
        <time>2020-06-14T17:58:31Z</time>
      </trkpt>
      <trkpt lat="49.56925" lon="-1.79988">
        <ele>86.7</ele>
        <time>2020-06-14T17:58:32Z</time>
      </trkpt>
      <trkpt lat="49.56927" lon="-1.7998">
        <ele>86.6</ele>
        <time>2020-06-14T17:58:33Z</time>
      </trkpt>
      <trkpt lat="49.56929" lon="-1.79973">
        <ele>86.5</ele>
        <time>2020-06-14T17:58:34Z</time>
      </trkpt>
      <trkpt lat="49.56931" lon="-1.79965">
        <ele>86.4</ele>
        <time>2020-06-14T17:58:35Z</time>
      </trkpt>
      <trkpt lat="49.56933" lon="-1.79956">
        <ele>86.4</ele>
        <time>2020-06-14T17:58:36Z</time>
      </trkpt>
      <trkpt lat="49.56935" lon="-1.79949">
        <ele>86.3</ele>
        <time>2020-06-14T17:58:37Z</time>
      </trkpt>
      <trkpt lat="49.56937" lon="-1.79941">
        <ele>86.2</ele>
        <time>2020-06-14T17:58:38Z</time>
      </trkpt>
      <trkpt lat="49.56939" lon="-1.79934">
        <ele>86.1</ele>
        <time>2020-06-14T17:58:39Z</time>
      </trkpt>
      <trkpt lat="49.56942" lon="-1.79927">
        <ele>86.1</ele>
        <time>2020-06-14T17:58:40Z</time>
      </trkpt>
      <trkpt lat="49.56944" lon="-1.7992">
        <ele>86.1</ele>
        <time>2020-06-14T17:58:41Z</time>
      </trkpt>
      <trkpt lat="49.56946" lon="-1.79914">
        <ele>86.1</ele>
        <time>2020-06-14T17:58:42Z</time>
      </trkpt>
      <trkpt lat="49.56948" lon="-1.79907">
        <ele>86</ele>
        <time>2020-06-14T17:58:43Z</time>
      </trkpt>
      <trkpt lat="49.5695" lon="-1.79899">
        <ele>86.1</ele>
        <time>2020-06-14T17:58:44Z</time>
      </trkpt>
      <trkpt lat="49.56952" lon="-1.79892">
        <ele>86.1</ele>
        <time>2020-06-14T17:58:45Z</time>
      </trkpt>
      <trkpt lat="49.56954" lon="-1.79885">
        <ele>86.1</ele>
        <time>2020-06-14T17:58:46Z</time>
      </trkpt>
      <trkpt lat="49.56957" lon="-1.79878">
        <ele>86.1</ele>
        <time>2020-06-14T17:58:47Z</time>
      </trkpt>
      <trkpt lat="49.56959" lon="-1.79871">
        <ele>86.1</ele>
        <time>2020-06-14T17:58:48Z</time>
      </trkpt>
      <trkpt lat="49.56961" lon="-1.79864">
        <ele>86.1</ele>
        <time>2020-06-14T17:58:49Z</time>
      </trkpt>
      <trkpt lat="49.56962" lon="-1.79857">
        <ele>86.1</ele>
        <time>2020-06-14T17:58:50Z</time>
      </trkpt>
      <trkpt lat="49.56964" lon="-1.79849">
        <ele>86.1</ele>
        <time>2020-06-14T17:58:51Z</time>
      </trkpt>
      <trkpt lat="49.56967" lon="-1.79841">
        <ele>86.1</ele>
        <time>2020-06-14T17:58:52Z</time>
      </trkpt>
      <trkpt lat="49.56969" lon="-1.79834">
        <ele>86.2</ele>
        <time>2020-06-14T17:58:53Z</time>
      </trkpt>
      <trkpt lat="49.56971" lon="-1.79827">
        <ele>86.2</ele>
        <time>2020-06-14T17:58:54Z</time>
      </trkpt>
      <trkpt lat="49.56973" lon="-1.7982">
        <ele>86.3</ele>
        <time>2020-06-14T17:58:55Z</time>
      </trkpt>
      <trkpt lat="49.56975" lon="-1.79813">
        <ele>86.4</ele>
        <time>2020-06-14T17:58:56Z</time>
      </trkpt>
      <trkpt lat="49.56976" lon="-1.79805">
        <ele>86.4</ele>
        <time>2020-06-14T17:58:57Z</time>
      </trkpt>
      <trkpt lat="49.56978" lon="-1.79798">
        <ele>86.6</ele>
        <time>2020-06-14T17:58:58Z</time>
      </trkpt>
      <trkpt lat="49.56979" lon="-1.79791">
        <ele>86.7</ele>
        <time>2020-06-14T17:58:59Z</time>
      </trkpt>
      <trkpt lat="49.56981" lon="-1.79785">
        <ele>86.8</ele>
        <time>2020-06-14T17:59:00Z</time>
      </trkpt>
      <trkpt lat="49.56983" lon="-1.79778">
        <ele>87</ele>
        <time>2020-06-14T17:59:01Z</time>
      </trkpt>
      <trkpt lat="49.56984" lon="-1.79772">
        <ele>87.1</ele>
        <time>2020-06-14T17:59:02Z</time>
      </trkpt>
      <trkpt lat="49.56985" lon="-1.79766">
        <ele>87.1</ele>
        <time>2020-06-14T17:59:03Z</time>
      </trkpt>
      <trkpt lat="49.56986" lon="-1.79759">
        <ele>87.1</ele>
        <time>2020-06-14T17:59:04Z</time>
      </trkpt>
      <trkpt lat="49.56987" lon="-1.79752">
        <ele>87.1</ele>
        <time>2020-06-14T17:59:05Z</time>
      </trkpt>
      <trkpt lat="49.56987" lon="-1.79746">
        <ele>87.1</ele>
        <time>2020-06-14T17:59:06Z</time>
      </trkpt>
      <trkpt lat="49.56988" lon="-1.79739">
        <ele>87.1</ele>
        <time>2020-06-14T17:59:07Z</time>
      </trkpt>
      <trkpt lat="49.56989" lon="-1.79733">
        <ele>87.1</ele>
        <time>2020-06-14T17:59:08Z</time>
      </trkpt>
      <trkpt lat="49.5699" lon="-1.79726">
        <ele>87.1</ele>
        <time>2020-06-14T17:59:09Z</time>
      </trkpt>
      <trkpt lat="49.5699" lon="-1.7972">
        <ele>87</ele>
        <time>2020-06-14T17:59:10Z</time>
      </trkpt>
      <trkpt lat="49.56991" lon="-1.79715">
        <ele>86.9</ele>
        <time>2020-06-14T17:59:11Z</time>
      </trkpt>
      <trkpt lat="49.56989" lon="-1.7971">
        <ele>86.8</ele>
        <time>2020-06-14T17:59:12Z</time>
      </trkpt>
      <trkpt lat="49.56987" lon="-1.79704">
        <ele>86.7</ele>
        <time>2020-06-14T17:59:13Z</time>
      </trkpt>
      <trkpt lat="49.56986" lon="-1.79697">
        <ele>86.5</ele>
        <time>2020-06-14T17:59:14Z</time>
      </trkpt>
      <trkpt lat="49.56986" lon="-1.79688">
        <ele>86.2</ele>
        <time>2020-06-14T17:59:15Z</time>
      </trkpt>
      <trkpt lat="49.56986" lon="-1.79679">
        <ele>85.9</ele>
        <time>2020-06-14T17:59:16Z</time>
      </trkpt>
      <trkpt lat="49.56986" lon="-1.79667">
        <ele>85.6</ele>
        <time>2020-06-14T17:59:17Z</time>
      </trkpt>
      <trkpt lat="49.56986" lon="-1.79656">
        <ele>85.3</ele>
        <time>2020-06-14T17:59:18Z</time>
      </trkpt>
      <trkpt lat="49.56988" lon="-1.79647">
        <ele>85.1</ele>
        <time>2020-06-14T17:59:19Z</time>
      </trkpt>
      <trkpt lat="49.56988" lon="-1.79634">
        <ele>84.8</ele>
        <time>2020-06-14T17:59:20Z</time>
      </trkpt>
      <trkpt lat="49.56989" lon="-1.79625">
        <ele>84.7</ele>
        <time>2020-06-14T17:59:21Z</time>
      </trkpt>
      <trkpt lat="49.56992" lon="-1.79614">
        <ele>84.5</ele>
        <time>2020-06-14T17:59:22Z</time>
      </trkpt>
      <trkpt lat="49.56996" lon="-1.79606">
        <ele>84.2</ele>
        <time>2020-06-14T17:59:23Z</time>
      </trkpt>
      <trkpt lat="49.57001" lon="-1.79601">
        <ele>84</ele>
        <time>2020-06-14T17:59:24Z</time>
      </trkpt>
      <trkpt lat="49.57005" lon="-1.79597">
        <ele>83.9</ele>
        <time>2020-06-14T17:59:25Z</time>
      </trkpt>
      <trkpt lat="49.57009" lon="-1.79591">
        <ele>83.6</ele>
        <time>2020-06-14T17:59:26Z</time>
      </trkpt>
      <trkpt lat="49.57011" lon="-1.79588">
        <ele>83.5</ele>
        <time>2020-06-14T17:59:27Z</time>
      </trkpt>
      <trkpt lat="49.57013" lon="-1.79581">
        <ele>83.2</ele>
        <time>2020-06-14T17:59:28Z</time>
      </trkpt>
      <trkpt lat="49.57014" lon="-1.79576">
        <ele>83</ele>
        <time>2020-06-14T17:59:29Z</time>
      </trkpt>
      <trkpt lat="49.57016" lon="-1.79572">
        <ele>82.8</ele>
        <time>2020-06-14T17:59:30Z</time>
      </trkpt>
      <trkpt lat="49.57019" lon="-1.7957">
        <ele>82.6</ele>
        <time>2020-06-14T17:59:31Z</time>
      </trkpt>
      <trkpt lat="49.57022" lon="-1.79567">
        <ele>82.5</ele>
        <time>2020-06-14T17:59:32Z</time>
      </trkpt>
      <trkpt lat="49.57026" lon="-1.79563">
        <ele>82.2</ele>
        <time>2020-06-14T17:59:33Z</time>
      </trkpt>
      <trkpt lat="49.57029" lon="-1.7956">
        <ele>82.1</ele>
        <time>2020-06-14T17:59:34Z</time>
      </trkpt>
      <trkpt lat="49.57034" lon="-1.79555">
        <ele>81.9</ele>
        <time>2020-06-14T17:59:35Z</time>
      </trkpt>
      <trkpt lat="49.57038" lon="-1.79552">
        <ele>81.8</ele>
        <time>2020-06-14T17:59:36Z</time>
      </trkpt>
      <trkpt lat="49.57041" lon="-1.79549">
        <ele>81.7</ele>
        <time>2020-06-14T17:59:37Z</time>
      </trkpt>
      <trkpt lat="49.57045" lon="-1.79546">
        <ele>81.6</ele>
        <time>2020-06-14T17:59:38Z</time>
      </trkpt>
      <trkpt lat="49.57048" lon="-1.79543">
        <ele>81.5</ele>
        <time>2020-06-14T17:59:39Z</time>
      </trkpt>
      <trkpt lat="49.57054" lon="-1.79541">
        <ele>81.4</ele>
        <time>2020-06-14T17:59:40Z</time>
      </trkpt>
      <trkpt lat="49.57058" lon="-1.79542">
        <ele>81.4</ele>
        <time>2020-06-14T17:59:41Z</time>
      </trkpt>
      <trkpt lat="49.57063" lon="-1.79543">
        <ele>81.1</ele>
        <time>2020-06-14T17:59:42Z</time>
      </trkpt>
      <trkpt lat="49.57068" lon="-1.79545">
        <ele>80.8</ele>
        <time>2020-06-14T17:59:43Z</time>
      </trkpt>
      <trkpt lat="49.57072" lon="-1.79546">
        <ele>80.6</ele>
        <time>2020-06-14T17:59:44Z</time>
      </trkpt>
      <trkpt lat="49.57078" lon="-1.79548">
        <ele>80.2</ele>
        <time>2020-06-14T17:59:45Z</time>
      </trkpt>
      <trkpt lat="49.57083" lon="-1.79549">
        <ele>79.9</ele>
        <time>2020-06-14T17:59:46Z</time>
      </trkpt>
      <trkpt lat="49.57089" lon="-1.79549">
        <ele>79.6</ele>
        <time>2020-06-14T17:59:47Z</time>
      </trkpt>
      <trkpt lat="49.57095" lon="-1.7955">
        <ele>79.4</ele>
        <time>2020-06-14T17:59:48Z</time>
      </trkpt>
      <trkpt lat="49.571" lon="-1.7955">
        <ele>79.1</ele>
        <time>2020-06-14T17:59:49Z</time>
      </trkpt>
      <trkpt lat="49.57107" lon="-1.79552">
        <ele>79</ele>
        <time>2020-06-14T17:59:50Z</time>
      </trkpt>
      <trkpt lat="49.57113" lon="-1.79553">
        <ele>78.8</ele>
        <time>2020-06-14T17:59:51Z</time>
      </trkpt>
      <trkpt lat="49.5712" lon="-1.79555">
        <ele>78.7</ele>
        <time>2020-06-14T17:59:52Z</time>
      </trkpt>
      <trkpt lat="49.57126" lon="-1.79556">
        <ele>78.6</ele>
        <time>2020-06-14T17:59:53Z</time>
      </trkpt>
      <trkpt lat="49.57131" lon="-1.79558">
        <ele>78.6</ele>
        <time>2020-06-14T17:59:54Z</time>
      </trkpt>
      <trkpt lat="49.57136" lon="-1.7956">
        <ele>78.6</ele>
        <time>2020-06-14T17:59:55Z</time>
      </trkpt>
      <trkpt lat="49.57141" lon="-1.79562">
        <ele>78.6</ele>
        <time>2020-06-14T17:59:56Z</time>
      </trkpt>
      <trkpt lat="49.57146" lon="-1.79564">
        <ele>78.6</ele>
        <time>2020-06-14T17:59:57Z</time>
      </trkpt>
      <trkpt lat="49.57152" lon="-1.79567">
        <ele>78.7</ele>
        <time>2020-06-14T17:59:58Z</time>
      </trkpt>
      <trkpt lat="49.57158" lon="-1.7957">
        <ele>78.7</ele>
        <time>2020-06-14T17:59:59Z</time>
      </trkpt>
      <trkpt lat="49.57164" lon="-1.79573">
        <ele>78.8</ele>
        <time>2020-06-14T18:00:00Z</time>
      </trkpt>
      <trkpt lat="49.57169" lon="-1.79576">
        <ele>78.9</ele>
        <time>2020-06-14T18:00:01Z</time>
      </trkpt>
      <trkpt lat="49.57173" lon="-1.79578">
        <ele>79</ele>
        <time>2020-06-14T18:00:02Z</time>
      </trkpt>
      <trkpt lat="49.57176" lon="-1.7958">
        <ele>79.1</ele>
        <time>2020-06-14T18:00:03Z</time>
      </trkpt>
      <trkpt lat="49.57181" lon="-1.79584">
        <ele>79.1</ele>
        <time>2020-06-14T18:00:04Z</time>
      </trkpt>
      <trkpt lat="49.57186" lon="-1.79586">
        <ele>79.2</ele>
        <time>2020-06-14T18:00:05Z</time>
      </trkpt>
      <trkpt lat="49.5719" lon="-1.79588">
        <ele>79.2</ele>
        <time>2020-06-14T18:00:06Z</time>
      </trkpt>
      <trkpt lat="49.57195" lon="-1.7959">
        <ele>79.2</ele>
        <time>2020-06-14T18:00:07Z</time>
      </trkpt>
      <trkpt lat="49.57198" lon="-1.79592">
        <ele>79.2</ele>
        <time>2020-06-14T18:00:08Z</time>
      </trkpt>
      <trkpt lat="49.57202" lon="-1.79592">
        <ele>79.2</ele>
        <time>2020-06-14T18:00:09Z</time>
      </trkpt>
      <trkpt lat="49.57206" lon="-1.79593">
        <ele>79.2</ele>
        <time>2020-06-14T18:00:10Z</time>
      </trkpt>
      <trkpt lat="49.5721" lon="-1.79593">
        <ele>79.1</ele>
        <time>2020-06-14T18:00:11Z</time>
      </trkpt>
      <trkpt lat="49.57215" lon="-1.79593">
        <ele>79</ele>
        <time>2020-06-14T18:00:12Z</time>
      </trkpt>
      <trkpt lat="49.57221" lon="-1.79592">
        <ele>78.8</ele>
        <time>2020-06-14T18:00:13Z</time>
      </trkpt>
      <trkpt lat="49.57225" lon="-1.79591">
        <ele>78.6</ele>
        <time>2020-06-14T18:00:14Z</time>
      </trkpt>
      <trkpt lat="49.5723" lon="-1.79588">
        <ele>78.4</ele>
        <time>2020-06-14T18:00:15Z</time>
      </trkpt>
      <trkpt lat="49.57238" lon="-1.79584">
        <ele>78</ele>
        <time>2020-06-14T18:00:16Z</time>
      </trkpt>
      <trkpt lat="49.57245" lon="-1.79581">
        <ele>77.6</ele>
        <time>2020-06-14T18:00:17Z</time>
      </trkpt>
      <trkpt lat="49.57252" lon="-1.79578">
        <ele>77.3</ele>
        <time>2020-06-14T18:00:18Z</time>
      </trkpt>
      <trkpt lat="49.57258" lon="-1.79574">
        <ele>76.9</ele>
        <time>2020-06-14T18:00:19Z</time>
      </trkpt>
      <trkpt lat="49.57264" lon="-1.7957">
        <ele>76.6</ele>
        <time>2020-06-14T18:00:20Z</time>
      </trkpt>
      <trkpt lat="49.57269" lon="-1.79568">
        <ele>76.2</ele>
        <time>2020-06-14T18:00:21Z</time>
      </trkpt>
      <trkpt lat="49.57274" lon="-1.79565">
        <ele>75.9</ele>
        <time>2020-06-14T18:00:22Z</time>
      </trkpt>
      <trkpt lat="49.5728" lon="-1.79561">
        <ele>75.4</ele>
        <time>2020-06-14T18:00:23Z</time>
      </trkpt>
      <trkpt lat="49.57285" lon="-1.79557">
        <ele>74.9</ele>
        <time>2020-06-14T18:00:24Z</time>
      </trkpt>
      <trkpt lat="49.57291" lon="-1.79551">
        <ele>74.2</ele>
        <time>2020-06-14T18:00:25Z</time>
      </trkpt>
      <trkpt lat="49.57296" lon="-1.79545">
        <ele>73.6</ele>
        <time>2020-06-14T18:00:26Z</time>
      </trkpt>
      <trkpt lat="49.57302" lon="-1.79537">
        <ele>72.8</ele>
        <time>2020-06-14T18:00:27Z</time>
      </trkpt>
      <trkpt lat="49.57309" lon="-1.79529">
        <ele>71.9</ele>
        <time>2020-06-14T18:00:28Z</time>
      </trkpt>
      <trkpt lat="49.57316" lon="-1.7952">
        <ele>70.7</ele>
        <time>2020-06-14T18:00:29Z</time>
      </trkpt>
      <trkpt lat="49.57323" lon="-1.7951">
        <ele>69.5</ele>
        <time>2020-06-14T18:00:30Z</time>
      </trkpt>
      <trkpt lat="49.57331" lon="-1.795">
        <ele>68.3</ele>
        <time>2020-06-14T18:00:31Z</time>
      </trkpt>
      <trkpt lat="49.57338" lon="-1.79492">
        <ele>67.3</ele>
        <time>2020-06-14T18:00:32Z</time>
      </trkpt>
      <trkpt lat="49.57346" lon="-1.79484">
        <ele>66.3</ele>
        <time>2020-06-14T18:00:33Z</time>
      </trkpt>
      <trkpt lat="49.57356" lon="-1.79475">
        <ele>65</ele>
        <time>2020-06-14T18:00:34Z</time>
      </trkpt>
      <trkpt lat="49.57366" lon="-1.79468">
        <ele>63.8</ele>
        <time>2020-06-14T18:00:35Z</time>
      </trkpt>
      <trkpt lat="49.57377" lon="-1.79464">
        <ele>62.7</ele>
        <time>2020-06-14T18:00:36Z</time>
      </trkpt>
      <trkpt lat="49.5739" lon="-1.79458">
        <ele>61.7</ele>
        <time>2020-06-14T18:00:37Z</time>
      </trkpt>
      <trkpt lat="49.574" lon="-1.79454">
        <ele>61.2</ele>
        <time>2020-06-14T18:00:38Z</time>
      </trkpt>
      <trkpt lat="49.5741" lon="-1.7945">
        <ele>60.8</ele>
        <time>2020-06-14T18:00:39Z</time>
      </trkpt>
      <trkpt lat="49.57419" lon="-1.79446">
        <ele>60.7</ele>
        <time>2020-06-14T18:00:40Z</time>
      </trkpt>
      <trkpt lat="49.57427" lon="-1.79442">
        <ele>60.6</ele>
        <time>2020-06-14T18:00:41Z</time>
      </trkpt>
      <trkpt lat="49.57434" lon="-1.79439">
        <ele>60.6</ele>
        <time>2020-06-14T18:00:42Z</time>
      </trkpt>
      <trkpt lat="49.57441" lon="-1.79437">
        <ele>60.7</ele>
        <time>2020-06-14T18:00:43Z</time>
      </trkpt>
      <trkpt lat="49.57447" lon="-1.79435">
        <ele>60.7</ele>
        <time>2020-06-14T18:00:44Z</time>
      </trkpt>
      <trkpt lat="49.57452" lon="-1.79433">
        <ele>60.8</ele>
        <time>2020-06-14T18:00:45Z</time>
      </trkpt>
      <trkpt lat="49.57458" lon="-1.79431">
        <ele>60.8</ele>
        <time>2020-06-14T18:00:46Z</time>
      </trkpt>
      <trkpt lat="49.57463" lon="-1.79429">
        <ele>63</ele>
        <time>2020-06-14T18:00:47Z</time>
      </trkpt>
      <trkpt lat="49.57468" lon="-1.79428">
        <ele>62.9</ele>
        <time>2020-06-14T18:00:48Z</time>
      </trkpt>
      <trkpt lat="49.57473" lon="-1.79428">
        <ele>62.7</ele>
        <time>2020-06-14T18:00:49Z</time>
      </trkpt>
      <trkpt lat="49.57477" lon="-1.7943">
        <ele>62.7</ele>
        <time>2020-06-14T18:00:50Z</time>
      </trkpt>
      <trkpt lat="49.57479" lon="-1.79436">
        <ele>62.8</ele>
        <time>2020-06-14T18:00:51Z</time>
      </trkpt>
      <trkpt lat="49.57481" lon="-1.7944">
        <ele>62.9</ele>
        <time>2020-06-14T18:00:52Z</time>
      </trkpt>
      <trkpt lat="49.57483" lon="-1.79444">
        <ele>62.9</ele>
        <time>2020-06-14T18:00:53Z</time>
      </trkpt>
      <trkpt lat="49.57485" lon="-1.79447">
        <ele>63</ele>
        <time>2020-06-14T18:00:54Z</time>
      </trkpt>
      <trkpt lat="49.57489" lon="-1.79448">
        <ele>63</ele>
        <time>2020-06-14T18:00:55Z</time>
      </trkpt>
      <trkpt lat="49.5749" lon="-1.79447">
        <ele>63.6</ele>
        <time>2020-06-14T18:00:56Z</time>
      </trkpt>
      <trkpt lat="49.57493" lon="-1.79447">
        <ele>63.7</ele>
        <time>2020-06-14T18:00:57Z</time>
      </trkpt>
      <trkpt lat="49.57497" lon="-1.79445">
        <ele>63.9</ele>
        <time>2020-06-14T18:00:58Z</time>
      </trkpt>
      <trkpt lat="49.57498" lon="-1.79444">
        <ele>63.9</ele>
        <time>2020-06-14T18:00:59Z</time>
      </trkpt>
      <trkpt lat="49.57501" lon="-1.79442">
        <ele>64.1</ele>
        <time>2020-06-14T18:01:00Z</time>
      </trkpt>
      <trkpt lat="49.57504" lon="-1.7944">
        <ele>64.2</ele>
        <time>2020-06-14T18:01:01Z</time>
      </trkpt>
      <trkpt lat="49.57506" lon="-1.79438">
        <ele>64.3</ele>
        <time>2020-06-14T18:01:02Z</time>
      </trkpt>
      <trkpt lat="49.57509" lon="-1.79437">
        <ele>64.5</ele>
        <time>2020-06-14T18:01:03Z</time>
      </trkpt>
      <trkpt lat="49.57512" lon="-1.79437">
        <ele>64.6</ele>
        <time>2020-06-14T18:01:04Z</time>
      </trkpt>
      <trkpt lat="49.57516" lon="-1.79438">
        <ele>64.9</ele>
        <time>2020-06-14T18:01:05Z</time>
      </trkpt>
      <trkpt lat="49.5752" lon="-1.79437">
        <ele>65.1</ele>
        <time>2020-06-14T18:01:06Z</time>
      </trkpt>
      <trkpt lat="49.57523" lon="-1.79437">
        <ele>65.3</ele>
        <time>2020-06-14T18:01:07Z</time>
      </trkpt>
      <trkpt lat="49.57527" lon="-1.79438">
        <ele>65.6</ele>
        <time>2020-06-14T18:01:08Z</time>
      </trkpt>
      <trkpt lat="49.57532" lon="-1.79438">
        <ele>65.9</ele>
        <time>2020-06-14T18:01:09Z</time>
      </trkpt>
      <trkpt lat="49.57536" lon="-1.79439">
        <ele>66.2</ele>
        <time>2020-06-14T18:01:10Z</time>
      </trkpt>
      <trkpt lat="49.57539" lon="-1.79439">
        <ele>66.4</ele>
        <time>2020-06-14T18:01:11Z</time>
      </trkpt>
      <trkpt lat="49.57544" lon="-1.79442">
        <ele>66.8</ele>
        <time>2020-06-14T18:01:12Z</time>
      </trkpt>
      <trkpt lat="49.57546" lon="-1.79444">
        <ele>67</ele>
        <time>2020-06-14T18:01:13Z</time>
      </trkpt>
      <trkpt lat="49.57549" lon="-1.79446">
        <ele>67.3</ele>
        <time>2020-06-14T18:01:14Z</time>
      </trkpt>
      <trkpt lat="49.57552" lon="-1.79448">
        <ele>67.5</ele>
        <time>2020-06-14T18:01:15Z</time>
      </trkpt>
      <trkpt lat="49.57556" lon="-1.79451">
        <ele>67.8</ele>
        <time>2020-06-14T18:01:16Z</time>
      </trkpt>
      <trkpt lat="49.57558" lon="-1.79454">
        <ele>68.1</ele>
        <time>2020-06-14T18:01:17Z</time>
      </trkpt>
      <trkpt lat="49.57561" lon="-1.79457">
        <ele>68.3</ele>
        <time>2020-06-14T18:01:18Z</time>
      </trkpt>
      <trkpt lat="49.57563" lon="-1.7946">
        <ele>68.5</ele>
        <time>2020-06-14T18:01:19Z</time>
      </trkpt>
      <trkpt lat="49.57566" lon="-1.79462">
        <ele>68.7</ele>
        <time>2020-06-14T18:01:20Z</time>
      </trkpt>
      <trkpt lat="49.57568" lon="-1.79463">
        <ele>68.9</ele>
        <time>2020-06-14T18:01:21Z</time>
      </trkpt>
      <trkpt lat="49.57572" lon="-1.79464">
        <ele>69.2</ele>
        <time>2020-06-14T18:01:22Z</time>
      </trkpt>
      <trkpt lat="49.57575" lon="-1.79467">
        <ele>69.5</ele>
        <time>2020-06-14T18:01:23Z</time>
      </trkpt>
      <trkpt lat="49.57578" lon="-1.7947">
        <ele>69.7</ele>
        <time>2020-06-14T18:01:24Z</time>
      </trkpt>
      <trkpt lat="49.57582" lon="-1.79473">
        <ele>70</ele>
        <time>2020-06-14T18:01:25Z</time>
      </trkpt>
      <trkpt lat="49.57585" lon="-1.79477">
        <ele>70.3</ele>
        <time>2020-06-14T18:01:26Z</time>
      </trkpt>
      <trkpt lat="49.57589" lon="-1.7948">
        <ele>70.6</ele>
        <time>2020-06-14T18:01:27Z</time>
      </trkpt>
      <trkpt lat="49.57593" lon="-1.79483">
        <ele>70.9</ele>
        <time>2020-06-14T18:01:28Z</time>
      </trkpt>
      <trkpt lat="49.57596" lon="-1.79485">
        <ele>71.1</ele>
        <time>2020-06-14T18:01:29Z</time>
      </trkpt>
      <trkpt lat="49.57599" lon="-1.79487">
        <ele>71.4</ele>
        <time>2020-06-14T18:01:30Z</time>
      </trkpt>
      <trkpt lat="49.57602" lon="-1.79488">
        <ele>71.6</ele>
        <time>2020-06-14T18:01:31Z</time>
      </trkpt>
      <trkpt lat="49.57605" lon="-1.7949">
        <ele>71.8</ele>
        <time>2020-06-14T18:01:32Z</time>
      </trkpt>
      <trkpt lat="49.57607" lon="-1.79492">
        <ele>72</ele>
        <time>2020-06-14T18:01:33Z</time>
      </trkpt>
      <trkpt lat="49.5761" lon="-1.79494">
        <ele>72.2</ele>
        <time>2020-06-14T18:01:34Z</time>
      </trkpt>
      <trkpt lat="49.57613" lon="-1.79496">
        <ele>72.4</ele>
        <time>2020-06-14T18:01:35Z</time>
      </trkpt>
      <trkpt lat="49.57617" lon="-1.79498">
        <ele>72.6</ele>
        <time>2020-06-14T18:01:36Z</time>
      </trkpt>
      <trkpt lat="49.57618" lon="-1.79499">
        <ele>72.7</ele>
        <time>2020-06-14T18:01:37Z</time>
      </trkpt>
      <trkpt lat="49.57621" lon="-1.79501">
        <ele>73</ele>
        <time>2020-06-14T18:01:38Z</time>
      </trkpt>
      <trkpt lat="49.57624" lon="-1.79504">
        <ele>73.1</ele>
        <time>2020-06-14T18:01:39Z</time>
      </trkpt>
      <trkpt lat="49.57627" lon="-1.79506">
        <ele>73.3</ele>
        <time>2020-06-14T18:01:40Z</time>
      </trkpt>
      <trkpt lat="49.57632" lon="-1.79508">
        <ele>73.6</ele>
        <time>2020-06-14T18:01:41Z</time>
      </trkpt>
      <trkpt lat="49.57635" lon="-1.7951">
        <ele>73.8</ele>
        <time>2020-06-14T18:01:42Z</time>
      </trkpt>
      <trkpt lat="49.57639" lon="-1.79511">
        <ele>74.1</ele>
        <time>2020-06-14T18:01:43Z</time>
      </trkpt>
      <trkpt lat="49.57642" lon="-1.79514">
        <ele>74.3</ele>
        <time>2020-06-14T18:01:44Z</time>
      </trkpt>
      <trkpt lat="49.57645" lon="-1.79517">
        <ele>74.4</ele>
        <time>2020-06-14T18:01:45Z</time>
      </trkpt>
      <trkpt lat="49.57647" lon="-1.7952">
        <ele>74.6</ele>
        <time>2020-06-14T18:01:46Z</time>
      </trkpt>
      <trkpt lat="49.57652" lon="-1.79523">
        <ele>74.9</ele>
        <time>2020-06-14T18:01:47Z</time>
      </trkpt>
      <trkpt lat="49.57654" lon="-1.79525">
        <ele>75</ele>
        <time>2020-06-14T18:01:48Z</time>
      </trkpt>
      <trkpt lat="49.57659" lon="-1.79529">
        <ele>75.4</ele>
        <time>2020-06-14T18:01:49Z</time>
      </trkpt>
      <trkpt lat="49.57663" lon="-1.79533">
        <ele>75.6</ele>
        <time>2020-06-14T18:01:50Z</time>
      </trkpt>
      <trkpt lat="49.57667" lon="-1.79535">
        <ele>75.9</ele>
        <time>2020-06-14T18:01:51Z</time>
      </trkpt>
      <trkpt lat="49.57671" lon="-1.79537">
        <ele>76.1</ele>
        <time>2020-06-14T18:01:52Z</time>
      </trkpt>
      <trkpt lat="49.57673" lon="-1.79539">
        <ele>76.3</ele>
        <time>2020-06-14T18:01:53Z</time>
      </trkpt>
      <trkpt lat="49.57677" lon="-1.79541">
        <ele>76.5</ele>
        <time>2020-06-14T18:01:54Z</time>
      </trkpt>
      <trkpt lat="49.57681" lon="-1.79544">
        <ele>76.7</ele>
        <time>2020-06-14T18:01:55Z</time>
      </trkpt>
      <trkpt lat="49.57685" lon="-1.79547">
        <ele>77</ele>
        <time>2020-06-14T18:01:56Z</time>
      </trkpt>
      <trkpt lat="49.57688" lon="-1.79548">
        <ele>77.1</ele>
        <time>2020-06-14T18:01:57Z</time>
      </trkpt>
      <trkpt lat="49.5769" lon="-1.79551">
        <ele>77.3</ele>
        <time>2020-06-14T18:01:58Z</time>
      </trkpt>
      <trkpt lat="49.57694" lon="-1.79554">
        <ele>77.6</ele>
        <time>2020-06-14T18:01:59Z</time>
      </trkpt>
      <trkpt lat="49.57696" lon="-1.79555">
        <ele>77.7</ele>
        <time>2020-06-14T18:02:00Z</time>
      </trkpt>
      <trkpt lat="49.57699" lon="-1.79557">
        <ele>77.9</ele>
        <time>2020-06-14T18:02:01Z</time>
      </trkpt>
      <trkpt lat="49.57702" lon="-1.7956">
        <ele>78.1</ele>
        <time>2020-06-14T18:02:02Z</time>
      </trkpt>
      <trkpt lat="49.57706" lon="-1.79563">
        <ele>78.3</ele>
        <time>2020-06-14T18:02:03Z</time>
      </trkpt>
      <trkpt lat="49.57708" lon="-1.79565">
        <ele>78.5</ele>
        <time>2020-06-14T18:02:04Z</time>
      </trkpt>
      <trkpt lat="49.57712" lon="-1.79568">
        <ele>78.8</ele>
        <time>2020-06-14T18:02:05Z</time>
      </trkpt>
      <trkpt lat="49.57715" lon="-1.7957">
        <ele>78.9</ele>
        <time>2020-06-14T18:02:06Z</time>
      </trkpt>
      <trkpt lat="49.57718" lon="-1.79573">
        <ele>79.2</ele>
        <time>2020-06-14T18:02:07Z</time>
      </trkpt>
      <trkpt lat="49.57721" lon="-1.79575">
        <ele>79.3</ele>
        <time>2020-06-14T18:02:08Z</time>
      </trkpt>
      <trkpt lat="49.57725" lon="-1.79578">
        <ele>79.6</ele>
        <time>2020-06-14T18:02:09Z</time>
      </trkpt>
      <trkpt lat="49.57728" lon="-1.7958">
        <ele>79.8</ele>
        <time>2020-06-14T18:02:10Z</time>
      </trkpt>
      <trkpt lat="49.57733" lon="-1.79583">
        <ele>80.1</ele>
        <time>2020-06-14T18:02:11Z</time>
      </trkpt>
      <trkpt lat="49.57736" lon="-1.79585">
        <ele>80.3</ele>
        <time>2020-06-14T18:02:12Z</time>
      </trkpt>
      <trkpt lat="49.57739" lon="-1.79588">
        <ele>80.5</ele>
        <time>2020-06-14T18:02:13Z</time>
      </trkpt>
      <trkpt lat="49.57742" lon="-1.79591">
        <ele>80.7</ele>
        <time>2020-06-14T18:02:14Z</time>
      </trkpt>
      <trkpt lat="49.57745" lon="-1.79592">
        <ele>80.9</ele>
        <time>2020-06-14T18:02:15Z</time>
      </trkpt>
      <trkpt lat="49.57748" lon="-1.79594">
        <ele>81.1</ele>
        <time>2020-06-14T18:02:16Z</time>
      </trkpt>
      <trkpt lat="49.57752" lon="-1.79597">
        <ele>81.4</ele>
        <time>2020-06-14T18:02:17Z</time>
      </trkpt>
      <trkpt lat="49.57757" lon="-1.796">
        <ele>81.7</ele>
        <time>2020-06-14T18:02:18Z</time>
      </trkpt>
      <trkpt lat="49.5776" lon="-1.79604">
        <ele>81.9</ele>
        <time>2020-06-14T18:02:19Z</time>
      </trkpt>
      <trkpt lat="49.57764" lon="-1.79607">
        <ele>82.2</ele>
        <time>2020-06-14T18:02:20Z</time>
      </trkpt>
      <trkpt lat="49.57768" lon="-1.79611">
        <ele>82.5</ele>
        <time>2020-06-14T18:02:21Z</time>
      </trkpt>
      <trkpt lat="49.57772" lon="-1.79613">
        <ele>82.8</ele>
        <time>2020-06-14T18:02:22Z</time>
      </trkpt>
      <trkpt lat="49.57776" lon="-1.79617">
        <ele>83</ele>
        <time>2020-06-14T18:02:23Z</time>
      </trkpt>
      <trkpt lat="49.57779" lon="-1.79619">
        <ele>83.3</ele>
        <time>2020-06-14T18:02:24Z</time>
      </trkpt>
      <trkpt lat="49.57783" lon="-1.79621">
        <ele>83.5</ele>
        <time>2020-06-14T18:02:25Z</time>
      </trkpt>
      <trkpt lat="49.57787" lon="-1.79623">
        <ele>83.7</ele>
        <time>2020-06-14T18:02:26Z</time>
      </trkpt>
      <trkpt lat="49.57791" lon="-1.79625">
        <ele>83.9</ele>
        <time>2020-06-14T18:02:27Z</time>
      </trkpt>
      <trkpt lat="49.57794" lon="-1.79628">
        <ele>84.1</ele>
        <time>2020-06-14T18:02:28Z</time>
      </trkpt>
      <trkpt lat="49.57797" lon="-1.7963">
        <ele>84.3</ele>
        <time>2020-06-14T18:02:29Z</time>
      </trkpt>
      <trkpt lat="49.57801" lon="-1.79632">
        <ele>84.5</ele>
        <time>2020-06-14T18:02:30Z</time>
      </trkpt>
      <trkpt lat="49.57805" lon="-1.79635">
        <ele>84.8</ele>
        <time>2020-06-14T18:02:31Z</time>
      </trkpt>
      <trkpt lat="49.57809" lon="-1.79638">
        <ele>85</ele>
        <time>2020-06-14T18:02:32Z</time>
      </trkpt>
      <trkpt lat="49.57813" lon="-1.79641">
        <ele>85.2</ele>
        <time>2020-06-14T18:02:33Z</time>
      </trkpt>
      <trkpt lat="49.57817" lon="-1.79644">
        <ele>85.4</ele>
        <time>2020-06-14T18:02:34Z</time>
      </trkpt>
      <trkpt lat="49.5782" lon="-1.79646">
        <ele>85.6</ele>
        <time>2020-06-14T18:02:35Z</time>
      </trkpt>
      <trkpt lat="49.57824" lon="-1.79649">
        <ele>85.8</ele>
        <time>2020-06-14T18:02:36Z</time>
      </trkpt>
      <trkpt lat="49.57827" lon="-1.79651">
        <ele>85.9</ele>
        <time>2020-06-14T18:02:37Z</time>
      </trkpt>
      <trkpt lat="49.5783" lon="-1.79654">
        <ele>86.1</ele>
        <time>2020-06-14T18:02:38Z</time>
      </trkpt>
      <trkpt lat="49.57834" lon="-1.79656">
        <ele>86.3</ele>
        <time>2020-06-14T18:02:39Z</time>
      </trkpt>
      <trkpt lat="49.57838" lon="-1.79659">
        <ele>86.5</ele>
        <time>2020-06-14T18:02:40Z</time>
      </trkpt>
      <trkpt lat="49.57842" lon="-1.79661">
        <ele>86.6</ele>
        <time>2020-06-14T18:02:41Z</time>
      </trkpt>
      <trkpt lat="49.57845" lon="-1.79664">
        <ele>86.7</ele>
        <time>2020-06-14T18:02:42Z</time>
      </trkpt>
      <trkpt lat="49.57848" lon="-1.79667">
        <ele>86.9</ele>
        <time>2020-06-14T18:02:43Z</time>
      </trkpt>
      <trkpt lat="49.57853" lon="-1.79669">
        <ele>87</ele>
        <time>2020-06-14T18:02:44Z</time>
      </trkpt>
      <trkpt lat="49.57857" lon="-1.79672">
        <ele>87.2</ele>
        <time>2020-06-14T18:02:45Z</time>
      </trkpt>
      <trkpt lat="49.57862" lon="-1.79674">
        <ele>87.3</ele>
        <time>2020-06-14T18:02:46Z</time>
      </trkpt>
      <trkpt lat="49.57866" lon="-1.79677">
        <ele>87.4</ele>
        <time>2020-06-14T18:02:47Z</time>
      </trkpt>
      <trkpt lat="49.5787" lon="-1.7968">
        <ele>87.5</ele>
        <time>2020-06-14T18:02:48Z</time>
      </trkpt>
      <trkpt lat="49.57874" lon="-1.79682">
        <ele>87.6</ele>
        <time>2020-06-14T18:02:49Z</time>
      </trkpt>
      <trkpt lat="49.57877" lon="-1.79685">
        <ele>87.7</ele>
        <time>2020-06-14T18:02:50Z</time>
      </trkpt>
      <trkpt lat="49.57881" lon="-1.79687">
        <ele>87.8</ele>
        <time>2020-06-14T18:02:51Z</time>
      </trkpt>
      <trkpt lat="49.57884" lon="-1.7969">
        <ele>87.9</ele>
        <time>2020-06-14T18:02:52Z</time>
      </trkpt>
      <trkpt lat="49.57888" lon="-1.79693">
        <ele>88.1</ele>
        <time>2020-06-14T18:02:53Z</time>
      </trkpt>
      <trkpt lat="49.5789" lon="-1.79695">
        <ele>88.2</ele>
        <time>2020-06-14T18:02:54Z</time>
      </trkpt>
      <trkpt lat="49.57893" lon="-1.79697">
        <ele>88.3</ele>
        <time>2020-06-14T18:02:55Z</time>
      </trkpt>
      <trkpt lat="49.57897" lon="-1.79699">
        <ele>88.4</ele>
        <time>2020-06-14T18:02:56Z</time>
      </trkpt>
      <trkpt lat="49.579" lon="-1.79701">
        <ele>88.5</ele>
        <time>2020-06-14T18:02:57Z</time>
      </trkpt>
      <trkpt lat="49.57904" lon="-1.79704">
        <ele>88.6</ele>
        <time>2020-06-14T18:02:58Z</time>
      </trkpt>
      <trkpt lat="49.57909" lon="-1.79709">
        <ele>88.8</ele>
        <time>2020-06-14T18:02:59Z</time>
      </trkpt>
      <trkpt lat="49.57913" lon="-1.79712">
        <ele>88.9</ele>
        <time>2020-06-14T18:03:00Z</time>
      </trkpt>
      <trkpt lat="49.57917" lon="-1.79714">
        <ele>89</ele>
        <time>2020-06-14T18:03:01Z</time>
      </trkpt>
      <trkpt lat="49.57921" lon="-1.79716">
        <ele>89.1</ele>
        <time>2020-06-14T18:03:02Z</time>
      </trkpt>
      <trkpt lat="49.57924" lon="-1.79719">
        <ele>89.2</ele>
        <time>2020-06-14T18:03:03Z</time>
      </trkpt>
      <trkpt lat="49.57928" lon="-1.79722">
        <ele>89.3</ele>
        <time>2020-06-14T18:03:04Z</time>
      </trkpt>
      <trkpt lat="49.57931" lon="-1.79725">
        <ele>89.4</ele>
        <time>2020-06-14T18:03:05Z</time>
      </trkpt>
      <trkpt lat="49.57935" lon="-1.79728">
        <ele>89.5</ele>
        <time>2020-06-14T18:03:06Z</time>
      </trkpt>
      <trkpt lat="49.57938" lon="-1.7973">
        <ele>89.6</ele>
        <time>2020-06-14T18:03:07Z</time>
      </trkpt>
      <trkpt lat="49.57941" lon="-1.79732">
        <ele>89.7</ele>
        <time>2020-06-14T18:03:08Z</time>
      </trkpt>
      <trkpt lat="49.57945" lon="-1.79734">
        <ele>89.7</ele>
        <time>2020-06-14T18:03:09Z</time>
      </trkpt>
      <trkpt lat="49.57949" lon="-1.79737">
        <ele>89.8</ele>
        <time>2020-06-14T18:03:10Z</time>
      </trkpt>
      <trkpt lat="49.57953" lon="-1.7974">
        <ele>89.9</ele>
        <time>2020-06-14T18:03:11Z</time>
      </trkpt>
      <trkpt lat="49.57957" lon="-1.79742">
        <ele>89.9</ele>
        <time>2020-06-14T18:03:12Z</time>
      </trkpt>
      <trkpt lat="49.57961" lon="-1.79745">
        <ele>90</ele>
        <time>2020-06-14T18:03:13Z</time>
      </trkpt>
      <trkpt lat="49.57965" lon="-1.79748">
        <ele>90.1</ele>
        <time>2020-06-14T18:03:14Z</time>
      </trkpt>
      <trkpt lat="49.5797" lon="-1.79752">
        <ele>90.1</ele>
        <time>2020-06-14T18:03:15Z</time>
      </trkpt>
      <trkpt lat="49.57974" lon="-1.79755">
        <ele>90.2</ele>
        <time>2020-06-14T18:03:16Z</time>
      </trkpt>
      <trkpt lat="49.57978" lon="-1.79757">
        <ele>90.2</ele>
        <time>2020-06-14T18:03:17Z</time>
      </trkpt>
      <trkpt lat="49.57981" lon="-1.7976">
        <ele>90.2</ele>
        <time>2020-06-14T18:03:18Z</time>
      </trkpt>
      <trkpt lat="49.57986" lon="-1.79763">
        <ele>90.3</ele>
        <time>2020-06-14T18:03:19Z</time>
      </trkpt>
      <trkpt lat="49.5799" lon="-1.79766">
        <ele>90.4</ele>
        <time>2020-06-14T18:03:20Z</time>
      </trkpt>
      <trkpt lat="49.57993" lon="-1.79769">
        <ele>90.4</ele>
        <time>2020-06-14T18:03:21Z</time>
      </trkpt>
      <trkpt lat="49.57996" lon="-1.79771">
        <ele>90.4</ele>
        <time>2020-06-14T18:03:22Z</time>
      </trkpt>
      <trkpt lat="49.57999" lon="-1.79774">
        <ele>90.5</ele>
        <time>2020-06-14T18:03:23Z</time>
      </trkpt>
      <trkpt lat="49.58003" lon="-1.79778">
        <ele>90.5</ele>
        <time>2020-06-14T18:03:24Z</time>
      </trkpt>
      <trkpt lat="49.58007" lon="-1.79782">
        <ele>90.5</ele>
        <time>2020-06-14T18:03:25Z</time>
      </trkpt>
      <trkpt lat="49.58011" lon="-1.79786">
        <ele>90.5</ele>
        <time>2020-06-14T18:03:26Z</time>
      </trkpt>
      <trkpt lat="49.58015" lon="-1.7979">
        <ele>90.5</ele>
        <time>2020-06-14T18:03:27Z</time>
      </trkpt>
      <trkpt lat="49.5802" lon="-1.79794">
        <ele>90.4</ele>
        <time>2020-06-14T18:03:28Z</time>
      </trkpt>
      <trkpt lat="49.58024" lon="-1.79798">
        <ele>90.3</ele>
        <time>2020-06-14T18:03:29Z</time>
      </trkpt>
      <trkpt lat="49.58028" lon="-1.79801">
        <ele>90.3</ele>
        <time>2020-06-14T18:03:30Z</time>
      </trkpt>
      <trkpt lat="49.58032" lon="-1.79805">
        <ele>90.3</ele>
        <time>2020-06-14T18:03:31Z</time>
      </trkpt>
      <trkpt lat="49.58035" lon="-1.79809">
        <ele>90.2</ele>
        <time>2020-06-14T18:03:32Z</time>
      </trkpt>
      <trkpt lat="49.58039" lon="-1.79814">
        <ele>90.1</ele>
        <time>2020-06-14T18:03:33Z</time>
      </trkpt>
      <trkpt lat="49.58043" lon="-1.79818">
        <ele>90.1</ele>
        <time>2020-06-14T18:03:34Z</time>
      </trkpt>
      <trkpt lat="49.58047" lon="-1.79822">
        <ele>89.9</ele>
        <time>2020-06-14T18:03:35Z</time>
      </trkpt>
      <trkpt lat="49.58052" lon="-1.79827">
        <ele>89.8</ele>
        <time>2020-06-14T18:03:36Z</time>
      </trkpt>
      <trkpt lat="49.58056" lon="-1.79833">
        <ele>89.7</ele>
        <time>2020-06-14T18:03:37Z</time>
      </trkpt>
      <trkpt lat="49.58059" lon="-1.79838">
        <ele>89.6</ele>
        <time>2020-06-14T18:03:38Z</time>
      </trkpt>
      <trkpt lat="49.58064" lon="-1.79842">
        <ele>89.4</ele>
        <time>2020-06-14T18:03:39Z</time>
      </trkpt>
      <trkpt lat="49.58067" lon="-1.79846">
        <ele>89.3</ele>
        <time>2020-06-14T18:03:40Z</time>
      </trkpt>
      <trkpt lat="49.58071" lon="-1.79849">
        <ele>89.2</ele>
        <time>2020-06-14T18:03:41Z</time>
      </trkpt>
      <trkpt lat="49.58075" lon="-1.79852">
        <ele>89.1</ele>
        <time>2020-06-14T18:03:42Z</time>
      </trkpt>
      <trkpt lat="49.5808" lon="-1.79855">
        <ele>89</ele>
        <time>2020-06-14T18:03:43Z</time>
      </trkpt>
      <trkpt lat="49.58085" lon="-1.79857">
        <ele>88.8</ele>
        <time>2020-06-14T18:03:44Z</time>
      </trkpt>
      <trkpt lat="49.5809" lon="-1.79859">
        <ele>88.6</ele>
        <time>2020-06-14T18:03:45Z</time>
      </trkpt>
      <trkpt lat="49.58096" lon="-1.7986">
        <ele>88.2</ele>
        <time>2020-06-14T18:03:46Z</time>
      </trkpt>
      <trkpt lat="49.58102" lon="-1.7986">
        <ele>87.8</ele>
        <time>2020-06-14T18:03:47Z</time>
      </trkpt>
      <trkpt lat="49.58108" lon="-1.79861">
        <ele>87.3</ele>
        <time>2020-06-14T18:03:48Z</time>
      </trkpt>
      <trkpt lat="49.58115" lon="-1.79859">
        <ele>86.7</ele>
        <time>2020-06-14T18:03:49Z</time>
      </trkpt>
      <trkpt lat="49.58122" lon="-1.79857">
        <ele>86.2</ele>
        <time>2020-06-14T18:03:50Z</time>
      </trkpt>
      <trkpt lat="49.58129" lon="-1.79854">
        <ele>85.7</ele>
        <time>2020-06-14T18:03:51Z</time>
      </trkpt>
      <trkpt lat="49.58137" lon="-1.79849">
        <ele>85</ele>
        <time>2020-06-14T18:03:52Z</time>
      </trkpt>
      <trkpt lat="49.58145" lon="-1.79844">
        <ele>84.5</ele>
        <time>2020-06-14T18:03:53Z</time>
      </trkpt>
      <trkpt lat="49.58152" lon="-1.79839">
        <ele>84.2</ele>
        <time>2020-06-14T18:03:54Z</time>
      </trkpt>
      <trkpt lat="49.5816" lon="-1.79834">
        <ele>83.9</ele>
        <time>2020-06-14T18:03:55Z</time>
      </trkpt>
      <trkpt lat="49.58167" lon="-1.7983">
        <ele>83.8</ele>
        <time>2020-06-14T18:03:56Z</time>
      </trkpt>
      <trkpt lat="49.58173" lon="-1.79826">
        <ele>83.8</ele>
        <time>2020-06-14T18:03:57Z</time>
      </trkpt>
      <trkpt lat="49.5818" lon="-1.79822">
        <ele>83.9</ele>
        <time>2020-06-14T18:03:58Z</time>
      </trkpt>
      <trkpt lat="49.58188" lon="-1.79819">
        <ele>84.1</ele>
        <time>2020-06-14T18:03:59Z</time>
      </trkpt>
      <trkpt lat="49.58194" lon="-1.79815">
        <ele>84.3</ele>
        <time>2020-06-14T18:04:00Z</time>
      </trkpt>
      <trkpt lat="49.582" lon="-1.79812">
        <ele>84.7</ele>
        <time>2020-06-14T18:04:01Z</time>
      </trkpt>
      <trkpt lat="49.58206" lon="-1.79808">
        <ele>85</ele>
        <time>2020-06-14T18:04:02Z</time>
      </trkpt>
      <trkpt lat="49.58211" lon="-1.79803">
        <ele>85.4</ele>
        <time>2020-06-14T18:04:03Z</time>
      </trkpt>
      <trkpt lat="49.58215" lon="-1.79797">
        <ele>85.8</ele>
        <time>2020-06-14T18:04:04Z</time>
      </trkpt>
      <trkpt lat="49.5822" lon="-1.79794">
        <ele>86.2</ele>
        <time>2020-06-14T18:04:05Z</time>
      </trkpt>
      <trkpt lat="49.58225" lon="-1.79791">
        <ele>86.6</ele>
        <time>2020-06-14T18:04:06Z</time>
      </trkpt>
      <trkpt lat="49.5823" lon="-1.79789">
        <ele>87</ele>
        <time>2020-06-14T18:04:07Z</time>
      </trkpt>
      <trkpt lat="49.58235" lon="-1.79788">
        <ele>87.4</ele>
        <time>2020-06-14T18:04:08Z</time>
      </trkpt>
      <trkpt lat="49.5824" lon="-1.79786">
        <ele>87.8</ele>
        <time>2020-06-14T18:04:09Z</time>
      </trkpt>
      <trkpt lat="49.58244" lon="-1.79783">
        <ele>88.2</ele>
        <time>2020-06-14T18:04:10Z</time>
      </trkpt>
      <trkpt lat="49.58248" lon="-1.79781">
        <ele>88.5</ele>
        <time>2020-06-14T18:04:11Z</time>
      </trkpt>
      <trkpt lat="49.58252" lon="-1.79778">
        <ele>88.8</ele>
        <time>2020-06-14T18:04:12Z</time>
      </trkpt>
      <trkpt lat="49.58257" lon="-1.79776">
        <ele>89.2</ele>
        <time>2020-06-14T18:04:13Z</time>
      </trkpt>
      <trkpt lat="49.58261" lon="-1.79773">
        <ele>89.6</ele>
        <time>2020-06-14T18:04:14Z</time>
      </trkpt>
      <trkpt lat="49.58266" lon="-1.7977">
        <ele>89.9</ele>
        <time>2020-06-14T18:04:15Z</time>
      </trkpt>
      <trkpt lat="49.5827" lon="-1.79768">
        <ele>90.3</ele>
        <time>2020-06-14T18:04:16Z</time>
      </trkpt>
      <trkpt lat="49.58274" lon="-1.79767">
        <ele>90.6</ele>
        <time>2020-06-14T18:04:17Z</time>
      </trkpt>
      <trkpt lat="49.58278" lon="-1.79764">
        <ele>91</ele>
        <time>2020-06-14T18:04:18Z</time>
      </trkpt>
      <trkpt lat="49.58282" lon="-1.79762">
        <ele>91.3</ele>
        <time>2020-06-14T18:04:19Z</time>
      </trkpt>
      <trkpt lat="49.58286" lon="-1.7976">
        <ele>91.6</ele>
        <time>2020-06-14T18:04:20Z</time>
      </trkpt>
      <trkpt lat="49.5829" lon="-1.79756">
        <ele>92</ele>
        <time>2020-06-14T18:04:21Z</time>
      </trkpt>
      <trkpt lat="49.58293" lon="-1.79754">
        <ele>92.2</ele>
        <time>2020-06-14T18:04:22Z</time>
      </trkpt>
      <trkpt lat="49.58296" lon="-1.79752">
        <ele>92.5</ele>
        <time>2020-06-14T18:04:23Z</time>
      </trkpt>
      <trkpt lat="49.58299" lon="-1.79749">
        <ele>92.8</ele>
        <time>2020-06-14T18:04:24Z</time>
      </trkpt>
      <trkpt lat="49.58303" lon="-1.79744">
        <ele>93.2</ele>
        <time>2020-06-14T18:04:25Z</time>
      </trkpt>
      <trkpt lat="49.58306" lon="-1.79741">
        <ele>93.5</ele>
        <time>2020-06-14T18:04:26Z</time>
      </trkpt>
      <trkpt lat="49.58309" lon="-1.79738">
        <ele>93.7</ele>
        <time>2020-06-14T18:04:27Z</time>
      </trkpt>
      <trkpt lat="49.58312" lon="-1.79735">
        <ele>94</ele>
        <time>2020-06-14T18:04:28Z</time>
      </trkpt>
      <trkpt lat="49.58317" lon="-1.79731">
        <ele>94.4</ele>
        <time>2020-06-14T18:04:29Z</time>
      </trkpt>
      <trkpt lat="49.5832" lon="-1.79729">
        <ele>94.6</ele>
        <time>2020-06-14T18:04:30Z</time>
      </trkpt>
      <trkpt lat="49.58321" lon="-1.79728">
        <ele>94.7</ele>
        <time>2020-06-14T18:04:31Z</time>
      </trkpt>
      <trkpt lat="49.58325" lon="-1.79723">
        <ele>95</ele>
        <time>2020-06-14T18:04:32Z</time>
      </trkpt>
      <trkpt lat="49.58328" lon="-1.79721">
        <ele>95.2</ele>
        <time>2020-06-14T18:04:33Z</time>
      </trkpt>
      <trkpt lat="49.58333" lon="-1.79717">
        <ele>95.5</ele>
        <time>2020-06-14T18:04:34Z</time>
      </trkpt>
      <trkpt lat="49.58336" lon="-1.79714">
        <ele>95.7</ele>
        <time>2020-06-14T18:04:35Z</time>
      </trkpt>
      <trkpt lat="49.5834" lon="-1.79712">
        <ele>95.9</ele>
        <time>2020-06-14T18:04:36Z</time>
      </trkpt>
      <trkpt lat="49.58342" lon="-1.7971">
        <ele>96.1</ele>
        <time>2020-06-14T18:04:37Z</time>
      </trkpt>
      <trkpt lat="49.58345" lon="-1.79707">
        <ele>96.2</ele>
        <time>2020-06-14T18:04:38Z</time>
      </trkpt>
      <trkpt lat="49.58346" lon="-1.79706">
        <ele>96.3</ele>
        <time>2020-06-14T18:04:39Z</time>
      </trkpt>
      <trkpt lat="49.58349" lon="-1.79703">
        <ele>96.5</ele>
        <time>2020-06-14T18:04:40Z</time>
      </trkpt>
      <trkpt lat="49.58352" lon="-1.797">
        <ele>96.6</ele>
        <time>2020-06-14T18:04:41Z</time>
      </trkpt>
      <trkpt lat="49.58353" lon="-1.79698">
        <ele>96.7</ele>
        <time>2020-06-14T18:04:42Z</time>
      </trkpt>
      <trkpt lat="49.58355" lon="-1.79695">
        <ele>96.8</ele>
        <time>2020-06-14T18:04:43Z</time>
      </trkpt>
      <trkpt lat="49.58359" lon="-1.79691">
        <ele>97</ele>
        <time>2020-06-14T18:04:44Z</time>
      </trkpt>
      <trkpt lat="49.5836" lon="-1.7969">
        <ele>97</ele>
        <time>2020-06-14T18:04:45Z</time>
      </trkpt>
      <trkpt lat="49.58363" lon="-1.79688">
        <ele>97.2</ele>
        <time>2020-06-14T18:04:46Z</time>
      </trkpt>
      <trkpt lat="49.58364" lon="-1.79687">
        <ele>97.2</ele>
        <time>2020-06-14T18:04:47Z</time>
      </trkpt>
      <trkpt lat="49.58366" lon="-1.79684">
        <ele>97.2</ele>
        <time>2020-06-14T18:04:48Z</time>
      </trkpt>
      <trkpt lat="49.58366" lon="-1.79683">
        <ele>97.3</ele>
        <time>2020-06-14T18:04:49Z</time>
      </trkpt>
      <trkpt lat="49.58367" lon="-1.79682">
        <ele>97.3</ele>
        <time>2020-06-14T18:04:50Z</time>
      </trkpt>
      <trkpt lat="49.58369" lon="-1.79681">
        <ele>97.4</ele>
        <time>2020-06-14T18:04:51Z</time>
      </trkpt>
      <trkpt lat="49.5837" lon="-1.7968">
        <ele>97.5</ele>
        <time>2020-06-14T18:04:52Z</time>
      </trkpt>
      <trkpt lat="49.58373" lon="-1.79676">
        <ele>97.6</ele>
        <time>2020-06-14T18:04:53Z</time>
      </trkpt>
      <trkpt lat="49.58376" lon="-1.79673">
        <ele>97.7</ele>
        <time>2020-06-14T18:04:54Z</time>
      </trkpt>
      <trkpt lat="49.58379" lon="-1.79671">
        <ele>97.7</ele>
        <time>2020-06-14T18:04:55Z</time>
      </trkpt>
      <trkpt lat="49.5838" lon="-1.79667">
        <ele>97.8</ele>
        <time>2020-06-14T18:04:56Z</time>
      </trkpt>
      <trkpt lat="49.58382" lon="-1.79664">
        <ele>97.9</ele>
        <time>2020-06-14T18:04:57Z</time>
      </trkpt>
      <trkpt lat="49.58385" lon="-1.79658">
        <ele>97.9</ele>
        <time>2020-06-14T18:04:58Z</time>
      </trkpt>
      <trkpt lat="49.58387" lon="-1.79654">
        <ele>98</ele>
        <time>2020-06-14T18:04:59Z</time>
      </trkpt>
      <trkpt lat="49.58391" lon="-1.79647">
        <ele>98</ele>
        <time>2020-06-14T18:05:00Z</time>
      </trkpt>
      <trkpt lat="49.58394" lon="-1.79641">
        <ele>98.1</ele>
        <time>2020-06-14T18:05:01Z</time>
      </trkpt>
      <trkpt lat="49.58396" lon="-1.79636">
        <ele>98.1</ele>
        <time>2020-06-14T18:05:02Z</time>
      </trkpt>
      <trkpt lat="49.58398" lon="-1.7963">
        <ele>98.2</ele>
        <time>2020-06-14T18:05:03Z</time>
      </trkpt>
      <trkpt lat="49.584" lon="-1.79625">
        <ele>98.2</ele>
        <time>2020-06-14T18:05:04Z</time>
      </trkpt>
      <trkpt lat="49.58402" lon="-1.79621">
        <ele>98.3</ele>
        <time>2020-06-14T18:05:05Z</time>
      </trkpt>
      <trkpt lat="49.58405" lon="-1.79616">
        <ele>98.3</ele>
        <time>2020-06-14T18:05:06Z</time>
      </trkpt>
      <trkpt lat="49.58408" lon="-1.79611">
        <ele>98.4</ele>
        <time>2020-06-14T18:05:07Z</time>
      </trkpt>
      <trkpt lat="49.5841" lon="-1.79603">
        <ele>98.4</ele>
        <time>2020-06-14T18:05:08Z</time>
      </trkpt>
      <trkpt lat="49.58413" lon="-1.79598">
        <ele>98.5</ele>
        <time>2020-06-14T18:05:09Z</time>
      </trkpt>
      <trkpt lat="49.58416" lon="-1.79592">
        <ele>98.6</ele>
        <time>2020-06-14T18:05:10Z</time>
      </trkpt>
      <trkpt lat="49.58418" lon="-1.79587">
        <ele>98.6</ele>
        <time>2020-06-14T18:05:11Z</time>
      </trkpt>
      <trkpt lat="49.58421" lon="-1.79583">
        <ele>98.7</ele>
        <time>2020-06-14T18:05:12Z</time>
      </trkpt>
      <trkpt lat="49.58423" lon="-1.79578">
        <ele>98.8</ele>
        <time>2020-06-14T18:05:13Z</time>
      </trkpt>
      <trkpt lat="49.58426" lon="-1.79573">
        <ele>98.8</ele>
        <time>2020-06-14T18:05:14Z</time>
      </trkpt>
      <trkpt lat="49.58429" lon="-1.79568">
        <ele>98.9</ele>
        <time>2020-06-14T18:05:15Z</time>
      </trkpt>
      <trkpt lat="49.58431" lon="-1.79563">
        <ele>98.9</ele>
        <time>2020-06-14T18:05:16Z</time>
      </trkpt>
      <trkpt lat="49.58434" lon="-1.79559">
        <ele>98.9</ele>
        <time>2020-06-14T18:05:17Z</time>
      </trkpt>
      <trkpt lat="49.58437" lon="-1.79552">
        <ele>99</ele>
        <time>2020-06-14T18:05:18Z</time>
      </trkpt>
      <trkpt lat="49.5844" lon="-1.79548">
        <ele>99</ele>
        <time>2020-06-14T18:05:19Z</time>
      </trkpt>
      <trkpt lat="49.58443" lon="-1.79542">
        <ele>99</ele>
        <time>2020-06-14T18:05:20Z</time>
      </trkpt>
      <trkpt lat="49.58445" lon="-1.79536">
        <ele>99.1</ele>
        <time>2020-06-14T18:05:21Z</time>
      </trkpt>
      <trkpt lat="49.58447" lon="-1.79531">
        <ele>99.1</ele>
        <time>2020-06-14T18:05:22Z</time>
      </trkpt>
      <trkpt lat="49.58448" lon="-1.79527">
        <ele>99.1</ele>
        <time>2020-06-14T18:05:23Z</time>
      </trkpt>
      <trkpt lat="49.58451" lon="-1.79522">
        <ele>99.2</ele>
        <time>2020-06-14T18:05:24Z</time>
      </trkpt>
      <trkpt lat="49.58454" lon="-1.79518">
        <ele>99.2</ele>
        <time>2020-06-14T18:05:25Z</time>
      </trkpt>
      <trkpt lat="49.58457" lon="-1.79512">
        <ele>99.2</ele>
        <time>2020-06-14T18:05:26Z</time>
      </trkpt>
      <trkpt lat="49.5846" lon="-1.79507">
        <ele>99.3</ele>
        <time>2020-06-14T18:05:27Z</time>
      </trkpt>
      <trkpt lat="49.58463" lon="-1.79503">
        <ele>99.3</ele>
        <time>2020-06-14T18:05:28Z</time>
      </trkpt>
      <trkpt lat="49.58465" lon="-1.79497">
        <ele>99.3</ele>
        <time>2020-06-14T18:05:29Z</time>
      </trkpt>
      <trkpt lat="49.58468" lon="-1.79491">
        <ele>99.4</ele>
        <time>2020-06-14T18:05:30Z</time>
      </trkpt>
      <trkpt lat="49.58472" lon="-1.79486">
        <ele>99.4</ele>
        <time>2020-06-14T18:05:31Z</time>
      </trkpt>
      <trkpt lat="49.58476" lon="-1.7948">
        <ele>99.5</ele>
        <time>2020-06-14T18:05:32Z</time>
      </trkpt>
      <trkpt lat="49.58479" lon="-1.79475">
        <ele>99.6</ele>
        <time>2020-06-14T18:05:33Z</time>
      </trkpt>
      <trkpt lat="49.58482" lon="-1.79469">
        <ele>99.6</ele>
        <time>2020-06-14T18:05:34Z</time>
      </trkpt>
      <trkpt lat="49.58485" lon="-1.79464">
        <ele>99.7</ele>
        <time>2020-06-14T18:05:35Z</time>
      </trkpt>
      <trkpt lat="49.58488" lon="-1.79458">
        <ele>99.8</ele>
        <time>2020-06-14T18:05:36Z</time>
      </trkpt>
      <trkpt lat="49.5849" lon="-1.79452">
        <ele>99.9</ele>
        <time>2020-06-14T18:05:37Z</time>
      </trkpt>
      <trkpt lat="49.58493" lon="-1.79447">
        <ele>99.9</ele>
        <time>2020-06-14T18:05:38Z</time>
      </trkpt>
      <trkpt lat="49.58496" lon="-1.79442">
        <ele>99.9</ele>
        <time>2020-06-14T18:05:39Z</time>
      </trkpt>
      <trkpt lat="49.58499" lon="-1.79436">
        <ele>99.9</ele>
        <time>2020-06-14T18:05:40Z</time>
      </trkpt>
      <trkpt lat="49.58502" lon="-1.79431">
        <ele>99.8</ele>
        <time>2020-06-14T18:05:41Z</time>
      </trkpt>
      <trkpt lat="49.58506" lon="-1.79426">
        <ele>99.8</ele>
        <time>2020-06-14T18:05:42Z</time>
      </trkpt>
      <trkpt lat="49.58508" lon="-1.79421">
        <ele>99.8</ele>
        <time>2020-06-14T18:05:43Z</time>
      </trkpt>
      <trkpt lat="49.58511" lon="-1.79417">
        <ele>99.8</ele>
        <time>2020-06-14T18:05:44Z</time>
      </trkpt>
      <trkpt lat="49.58513" lon="-1.79411">
        <ele>99.9</ele>
        <time>2020-06-14T18:05:45Z</time>
      </trkpt>
      <trkpt lat="49.58516" lon="-1.79405">
        <ele>99.9</ele>
        <time>2020-06-14T18:05:46Z</time>
      </trkpt>
      <trkpt lat="49.58519" lon="-1.79397">
        <ele>99.9</ele>
        <time>2020-06-14T18:05:47Z</time>
      </trkpt>
      <trkpt lat="49.58523" lon="-1.79392">
        <ele>99.9</ele>
        <time>2020-06-14T18:05:48Z</time>
      </trkpt>
      <trkpt lat="49.58526" lon="-1.79386">
        <ele>99.9</ele>
        <time>2020-06-14T18:05:49Z</time>
      </trkpt>
      <trkpt lat="49.58529" lon="-1.7938">
        <ele>99.9</ele>
        <time>2020-06-14T18:05:50Z</time>
      </trkpt>
      <trkpt lat="49.58532" lon="-1.79375">
        <ele>100</ele>
        <time>2020-06-14T18:05:51Z</time>
      </trkpt>
      <trkpt lat="49.58536" lon="-1.79369">
        <ele>100</ele>
        <time>2020-06-14T18:05:52Z</time>
      </trkpt>
      <trkpt lat="49.58539" lon="-1.79363">
        <ele>100</ele>
        <time>2020-06-14T18:05:53Z</time>
      </trkpt>
      <trkpt lat="49.58542" lon="-1.79357">
        <ele>100</ele>
        <time>2020-06-14T18:05:54Z</time>
      </trkpt>
      <trkpt lat="49.58545" lon="-1.79352">
        <ele>100</ele>
        <time>2020-06-14T18:05:55Z</time>
      </trkpt>
      <trkpt lat="49.58548" lon="-1.79347">
        <ele>100</ele>
        <time>2020-06-14T18:05:56Z</time>
      </trkpt>
      <trkpt lat="49.58551" lon="-1.79342">
        <ele>100.1</ele>
        <time>2020-06-14T18:05:57Z</time>
      </trkpt>
      <trkpt lat="49.58553" lon="-1.79336">
        <ele>100.1</ele>
        <time>2020-06-14T18:05:58Z</time>
      </trkpt>
      <trkpt lat="49.58557" lon="-1.79328">
        <ele>100.2</ele>
        <time>2020-06-14T18:05:59Z</time>
      </trkpt>
      <trkpt lat="49.5856" lon="-1.79322">
        <ele>100.2</ele>
        <time>2020-06-14T18:06:00Z</time>
      </trkpt>
      <trkpt lat="49.58564" lon="-1.79316">
        <ele>100.3</ele>
        <time>2020-06-14T18:06:01Z</time>
      </trkpt>
      <trkpt lat="49.58567" lon="-1.7931">
        <ele>100.4</ele>
        <time>2020-06-14T18:06:02Z</time>
      </trkpt>
      <trkpt lat="49.5857" lon="-1.79306">
        <ele>100.4</ele>
        <time>2020-06-14T18:06:03Z</time>
      </trkpt>
      <trkpt lat="49.58572" lon="-1.79302">
        <ele>100.5</ele>
        <time>2020-06-14T18:06:04Z</time>
      </trkpt>
      <trkpt lat="49.58575" lon="-1.79297">
        <ele>100.5</ele>
        <time>2020-06-14T18:06:05Z</time>
      </trkpt>
      <trkpt lat="49.58578" lon="-1.79291">
        <ele>100.6</ele>
        <time>2020-06-14T18:06:06Z</time>
      </trkpt>
      <trkpt lat="49.58582" lon="-1.79284">
        <ele>100.6</ele>
        <time>2020-06-14T18:06:07Z</time>
      </trkpt>
      <trkpt lat="49.58585" lon="-1.79278">
        <ele>100.7</ele>
        <time>2020-06-14T18:06:08Z</time>
      </trkpt>
      <trkpt lat="49.58589" lon="-1.79271">
        <ele>100.8</ele>
        <time>2020-06-14T18:06:09Z</time>
      </trkpt>
      <trkpt lat="49.58593" lon="-1.79263">
        <ele>100.9</ele>
        <time>2020-06-14T18:06:10Z</time>
      </trkpt>
      <trkpt lat="49.58597" lon="-1.79256">
        <ele>101</ele>
        <time>2020-06-14T18:06:11Z</time>
      </trkpt>
      <trkpt lat="49.586" lon="-1.79252">
        <ele>101</ele>
        <time>2020-06-14T18:06:12Z</time>
      </trkpt>
      <trkpt lat="49.58603" lon="-1.79246">
        <ele>101.1</ele>
        <time>2020-06-14T18:06:13Z</time>
      </trkpt>
      <trkpt lat="49.58606" lon="-1.79241">
        <ele>101.1</ele>
        <time>2020-06-14T18:06:14Z</time>
      </trkpt>
      <trkpt lat="49.58609" lon="-1.79234">
        <ele>101.2</ele>
        <time>2020-06-14T18:06:15Z</time>
      </trkpt>
      <trkpt lat="49.58611" lon="-1.79228">
        <ele>101.3</ele>
        <time>2020-06-14T18:06:16Z</time>
      </trkpt>
      <trkpt lat="49.58613" lon="-1.79223">
        <ele>101.4</ele>
        <time>2020-06-14T18:06:17Z</time>
      </trkpt>
      <trkpt lat="49.58616" lon="-1.79217">
        <ele>101.5</ele>
        <time>2020-06-14T18:06:18Z</time>
      </trkpt>
      <trkpt lat="49.58619" lon="-1.79212">
        <ele>101.6</ele>
        <time>2020-06-14T18:06:19Z</time>
      </trkpt>
      <trkpt lat="49.58621" lon="-1.79206">
        <ele>101.7</ele>
        <time>2020-06-14T18:06:20Z</time>
      </trkpt>
      <trkpt lat="49.58624" lon="-1.79201">
        <ele>101.8</ele>
        <time>2020-06-14T18:06:21Z</time>
      </trkpt>
      <trkpt lat="49.58627" lon="-1.79196">
        <ele>101.9</ele>
        <time>2020-06-14T18:06:22Z</time>
      </trkpt>
      <trkpt lat="49.58629" lon="-1.79189">
        <ele>102</ele>
        <time>2020-06-14T18:06:23Z</time>
      </trkpt>
      <trkpt lat="49.58632" lon="-1.79182">
        <ele>102.1</ele>
        <time>2020-06-14T18:06:24Z</time>
      </trkpt>
      <trkpt lat="49.58636" lon="-1.79176">
        <ele>102.3</ele>
        <time>2020-06-14T18:06:25Z</time>
      </trkpt>
      <trkpt lat="49.58639" lon="-1.7917">
        <ele>102.4</ele>
        <time>2020-06-14T18:06:26Z</time>
      </trkpt>
      <trkpt lat="49.58642" lon="-1.79165">
        <ele>102.5</ele>
        <time>2020-06-14T18:06:27Z</time>
      </trkpt>
      <trkpt lat="49.58645" lon="-1.7916">
        <ele>102.6</ele>
        <time>2020-06-14T18:06:28Z</time>
      </trkpt>
      <trkpt lat="49.58648" lon="-1.79156">
        <ele>102.7</ele>
        <time>2020-06-14T18:06:29Z</time>
      </trkpt>
      <trkpt lat="49.58652" lon="-1.7915">
        <ele>102.8</ele>
        <time>2020-06-14T18:06:30Z</time>
      </trkpt>
      <trkpt lat="49.58655" lon="-1.79145">
        <ele>102.9</ele>
        <time>2020-06-14T18:06:31Z</time>
      </trkpt>
      <trkpt lat="49.58659" lon="-1.79139">
        <ele>103.1</ele>
        <time>2020-06-14T18:06:32Z</time>
      </trkpt>
      <trkpt lat="49.58662" lon="-1.79133">
        <ele>103.2</ele>
        <time>2020-06-14T18:06:33Z</time>
      </trkpt>
      <trkpt lat="49.58666" lon="-1.79129">
        <ele>103.2</ele>
        <time>2020-06-14T18:06:34Z</time>
      </trkpt>
      <trkpt lat="49.58669" lon="-1.79124">
        <ele>103.3</ele>
        <time>2020-06-14T18:06:35Z</time>
      </trkpt>
      <trkpt lat="49.58674" lon="-1.79121">
        <ele>103.3</ele>
        <time>2020-06-14T18:06:36Z</time>
      </trkpt>
      <trkpt lat="49.58678" lon="-1.79116">
        <ele>103.3</ele>
        <time>2020-06-14T18:06:37Z</time>
      </trkpt>
      <trkpt lat="49.58682" lon="-1.79113">
        <ele>103.3</ele>
        <time>2020-06-14T18:06:38Z</time>
      </trkpt>
      <trkpt lat="49.58686" lon="-1.79108">
        <ele>103.3</ele>
        <time>2020-06-14T18:06:39Z</time>
      </trkpt>
      <trkpt lat="49.58689" lon="-1.79104">
        <ele>103.4</ele>
        <time>2020-06-14T18:06:40Z</time>
      </trkpt>
      <trkpt lat="49.58692" lon="-1.791">
        <ele>103.4</ele>
        <time>2020-06-14T18:06:41Z</time>
      </trkpt>
      <trkpt lat="49.58695" lon="-1.79096">
        <ele>103.5</ele>
        <time>2020-06-14T18:06:42Z</time>
      </trkpt>
      <trkpt lat="49.58699" lon="-1.79093">
        <ele>103.6</ele>
        <time>2020-06-14T18:06:43Z</time>
      </trkpt>
      <trkpt lat="49.58703" lon="-1.79088">
        <ele>103.6</ele>
        <time>2020-06-14T18:06:44Z</time>
      </trkpt>
      <trkpt lat="49.58707" lon="-1.79084">
        <ele>103.7</ele>
        <time>2020-06-14T18:06:45Z</time>
      </trkpt>
      <trkpt lat="49.58711" lon="-1.7908">
        <ele>103.8</ele>
        <time>2020-06-14T18:06:46Z</time>
      </trkpt>
      <trkpt lat="49.58715" lon="-1.79077">
        <ele>103.8</ele>
        <time>2020-06-14T18:06:47Z</time>
      </trkpt>
      <trkpt lat="49.58719" lon="-1.79074">
        <ele>103.8</ele>
        <time>2020-06-14T18:06:48Z</time>
      </trkpt>
      <trkpt lat="49.58722" lon="-1.79069">
        <ele>103.9</ele>
        <time>2020-06-14T18:06:49Z</time>
      </trkpt>
      <trkpt lat="49.58726" lon="-1.79065">
        <ele>103.9</ele>
        <time>2020-06-14T18:06:50Z</time>
      </trkpt>
      <trkpt lat="49.5873" lon="-1.79061">
        <ele>104</ele>
        <time>2020-06-14T18:06:51Z</time>
      </trkpt>
      <trkpt lat="49.58734" lon="-1.79057">
        <ele>104</ele>
        <time>2020-06-14T18:06:52Z</time>
      </trkpt>
      <trkpt lat="49.58739" lon="-1.79052">
        <ele>104</ele>
        <time>2020-06-14T18:06:53Z</time>
      </trkpt>
      <trkpt lat="49.58742" lon="-1.79047">
        <ele>104</ele>
        <time>2020-06-14T18:06:54Z</time>
      </trkpt>
      <trkpt lat="49.58746" lon="-1.79043">
        <ele>104.1</ele>
        <time>2020-06-14T18:06:55Z</time>
      </trkpt>
      <trkpt lat="49.5875" lon="-1.79039">
        <ele>104.1</ele>
        <time>2020-06-14T18:06:56Z</time>
      </trkpt>
      <trkpt lat="49.58755" lon="-1.79034">
        <ele>104.1</ele>
        <time>2020-06-14T18:06:57Z</time>
      </trkpt>
      <trkpt lat="49.58759" lon="-1.7903">
        <ele>104.1</ele>
        <time>2020-06-14T18:06:58Z</time>
      </trkpt>
      <trkpt lat="49.58762" lon="-1.79025">
        <ele>104.1</ele>
        <time>2020-06-14T18:06:59Z</time>
      </trkpt>
      <trkpt lat="49.58767" lon="-1.7902">
        <ele>104.1</ele>
        <time>2020-06-14T18:07:00Z</time>
      </trkpt>
      <trkpt lat="49.58771" lon="-1.79015">
        <ele>104</ele>
        <time>2020-06-14T18:07:01Z</time>
      </trkpt>
      <trkpt lat="49.58775" lon="-1.79011">
        <ele>104</ele>
        <time>2020-06-14T18:07:02Z</time>
      </trkpt>
      <trkpt lat="49.58779" lon="-1.79005">
        <ele>104</ele>
        <time>2020-06-14T18:07:03Z</time>
      </trkpt>
      <trkpt lat="49.58784" lon="-1.78998">
        <ele>104</ele>
        <time>2020-06-14T18:07:04Z</time>
      </trkpt>
      <trkpt lat="49.58787" lon="-1.78992">
        <ele>104</ele>
        <time>2020-06-14T18:07:05Z</time>
      </trkpt>
      <trkpt lat="49.58791" lon="-1.78987">
        <ele>104</ele>
        <time>2020-06-14T18:07:06Z</time>
      </trkpt>
      <trkpt lat="49.58795" lon="-1.78981">
        <ele>104</ele>
        <time>2020-06-14T18:07:07Z</time>
      </trkpt>
      <trkpt lat="49.58799" lon="-1.78975">
        <ele>104</ele>
        <time>2020-06-14T18:07:08Z</time>
      </trkpt>
      <trkpt lat="49.58803" lon="-1.78969">
        <ele>104.1</ele>
        <time>2020-06-14T18:07:09Z</time>
      </trkpt>
      <trkpt lat="49.58806" lon="-1.78963">
        <ele>104.1</ele>
        <time>2020-06-14T18:07:10Z</time>
      </trkpt>
      <trkpt lat="49.5881" lon="-1.78956">
        <ele>104.1</ele>
        <time>2020-06-14T18:07:11Z</time>
      </trkpt>
      <trkpt lat="49.58814" lon="-1.78951">
        <ele>104.2</ele>
        <time>2020-06-14T18:07:12Z</time>
      </trkpt>
      <trkpt lat="49.58818" lon="-1.78945">
        <ele>104.2</ele>
        <time>2020-06-14T18:07:13Z</time>
      </trkpt>
      <trkpt lat="49.58822" lon="-1.78939">
        <ele>104.3</ele>
        <time>2020-06-14T18:07:14Z</time>
      </trkpt>
      <trkpt lat="49.58825" lon="-1.78934">
        <ele>104.4</ele>
        <time>2020-06-14T18:07:15Z</time>
      </trkpt>
      <trkpt lat="49.58827" lon="-1.78929">
        <ele>104.5</ele>
        <time>2020-06-14T18:07:16Z</time>
      </trkpt>
      <trkpt lat="49.58831" lon="-1.78922">
        <ele>104.6</ele>
        <time>2020-06-14T18:07:17Z</time>
      </trkpt>
      <trkpt lat="49.58834" lon="-1.78916">
        <ele>104.7</ele>
        <time>2020-06-14T18:07:18Z</time>
      </trkpt>
      <trkpt lat="49.58837" lon="-1.7891">
        <ele>104.9</ele>
        <time>2020-06-14T18:07:19Z</time>
      </trkpt>
      <trkpt lat="49.58839" lon="-1.78904">
        <ele>105</ele>
        <time>2020-06-14T18:07:20Z</time>
      </trkpt>
      <trkpt lat="49.58842" lon="-1.78898">
        <ele>105.1</ele>
        <time>2020-06-14T18:07:21Z</time>
      </trkpt>
      <trkpt lat="49.58845" lon="-1.78891">
        <ele>105.2</ele>
        <time>2020-06-14T18:07:22Z</time>
      </trkpt>
      <trkpt lat="49.58847" lon="-1.78884">
        <ele>105.4</ele>
        <time>2020-06-14T18:07:23Z</time>
      </trkpt>
      <trkpt lat="49.58849" lon="-1.78877">
        <ele>105.5</ele>
        <time>2020-06-14T18:07:24Z</time>
      </trkpt>
      <trkpt lat="49.58852" lon="-1.78871">
        <ele>105.6</ele>
        <time>2020-06-14T18:07:25Z</time>
      </trkpt>
      <trkpt lat="49.58854" lon="-1.78863">
        <ele>105.7</ele>
        <time>2020-06-14T18:07:26Z</time>
      </trkpt>
      <trkpt lat="49.58856" lon="-1.78854">
        <ele>105.9</ele>
        <time>2020-06-14T18:07:27Z</time>
      </trkpt>
      <trkpt lat="49.58858" lon="-1.78846">
        <ele>106</ele>
        <time>2020-06-14T18:07:28Z</time>
      </trkpt>
      <trkpt lat="49.5886" lon="-1.78838">
        <ele>106.1</ele>
        <time>2020-06-14T18:07:29Z</time>
      </trkpt>
      <trkpt lat="49.58861" lon="-1.78829">
        <ele>106.2</ele>
        <time>2020-06-14T18:07:30Z</time>
      </trkpt>
      <trkpt lat="49.58862" lon="-1.7882">
        <ele>106.3</ele>
        <time>2020-06-14T18:07:31Z</time>
      </trkpt>
      <trkpt lat="49.58863" lon="-1.78812">
        <ele>106.4</ele>
        <time>2020-06-14T18:07:32Z</time>
      </trkpt>
      <trkpt lat="49.58864" lon="-1.78804">
        <ele>106.4</ele>
        <time>2020-06-14T18:07:33Z</time>
      </trkpt>
      <trkpt lat="49.58865" lon="-1.78796">
        <ele>106.5</ele>
        <time>2020-06-14T18:07:34Z</time>
      </trkpt>
      <trkpt lat="49.58867" lon="-1.78787">
        <ele>106.6</ele>
        <time>2020-06-14T18:07:35Z</time>
      </trkpt>
      <trkpt lat="49.58867" lon="-1.7878">
        <ele>106.7</ele>
        <time>2020-06-14T18:07:36Z</time>
      </trkpt>
      <trkpt lat="49.58867" lon="-1.78771">
        <ele>106.9</ele>
        <time>2020-06-14T18:07:37Z</time>
      </trkpt>
      <trkpt lat="49.58867" lon="-1.78762">
        <ele>107</ele>
        <time>2020-06-14T18:07:38Z</time>
      </trkpt>
      <trkpt lat="49.58867" lon="-1.78754">
        <ele>107.1</ele>
        <time>2020-06-14T18:07:39Z</time>
      </trkpt>
      <trkpt lat="49.58868" lon="-1.78746">
        <ele>107.2</ele>
        <time>2020-06-14T18:07:40Z</time>
      </trkpt>
      <trkpt lat="49.58868" lon="-1.78736">
        <ele>107.3</ele>
        <time>2020-06-14T18:07:41Z</time>
      </trkpt>
      <trkpt lat="49.58869" lon="-1.78727">
        <ele>107.4</ele>
        <time>2020-06-14T18:07:42Z</time>
      </trkpt>
      <trkpt lat="49.5887" lon="-1.7872">
        <ele>107.4</ele>
        <time>2020-06-14T18:07:43Z</time>
      </trkpt>
      <trkpt lat="49.58871" lon="-1.78713">
        <ele>107.5</ele>
        <time>2020-06-14T18:07:44Z</time>
      </trkpt>
      <trkpt lat="49.58872" lon="-1.78706">
        <ele>107.6</ele>
        <time>2020-06-14T18:07:45Z</time>
      </trkpt>
      <trkpt lat="49.58873" lon="-1.78698">
        <ele>107.6</ele>
        <time>2020-06-14T18:07:46Z</time>
      </trkpt>
      <trkpt lat="49.58874" lon="-1.78692">
        <ele>107.6</ele>
        <time>2020-06-14T18:07:47Z</time>
      </trkpt>
      <trkpt lat="49.58874" lon="-1.78684">
        <ele>107.7</ele>
        <time>2020-06-14T18:07:48Z</time>
      </trkpt>
      <trkpt lat="49.58875" lon="-1.78676">
        <ele>107.7</ele>
        <time>2020-06-14T18:07:49Z</time>
      </trkpt>
      <trkpt lat="49.58875" lon="-1.78669">
        <ele>107.7</ele>
        <time>2020-06-14T18:07:50Z</time>
      </trkpt>
      <trkpt lat="49.58877" lon="-1.7866">
        <ele>107.7</ele>
        <time>2020-06-14T18:07:51Z</time>
      </trkpt>
      <trkpt lat="49.58878" lon="-1.78652">
        <ele>107.7</ele>
        <time>2020-06-14T18:07:52Z</time>
      </trkpt>
      <trkpt lat="49.58879" lon="-1.78644">
        <ele>107.8</ele>
        <time>2020-06-14T18:07:53Z</time>
      </trkpt>
      <trkpt lat="49.5888" lon="-1.78634">
        <ele>107.8</ele>
        <time>2020-06-14T18:07:54Z</time>
      </trkpt>
      <trkpt lat="49.5888" lon="-1.78624">
        <ele>107.9</ele>
        <time>2020-06-14T18:07:55Z</time>
      </trkpt>
      <trkpt lat="49.58881" lon="-1.78615">
        <ele>107.9</ele>
        <time>2020-06-14T18:07:56Z</time>
      </trkpt>
      <trkpt lat="49.58883" lon="-1.78605">
        <ele>107.9</ele>
        <time>2020-06-14T18:07:57Z</time>
      </trkpt>
      <trkpt lat="49.58884" lon="-1.78597">
        <ele>107.9</ele>
        <time>2020-06-14T18:07:58Z</time>
      </trkpt>
      <trkpt lat="49.58885" lon="-1.78587">
        <ele>107.9</ele>
        <time>2020-06-14T18:07:59Z</time>
      </trkpt>
      <trkpt lat="49.58886" lon="-1.78579">
        <ele>107.9</ele>
        <time>2020-06-14T18:08:00Z</time>
      </trkpt>
      <trkpt lat="49.58887" lon="-1.7857">
        <ele>108</ele>
        <time>2020-06-14T18:08:01Z</time>
      </trkpt>
      <trkpt lat="49.58888" lon="-1.78562">
        <ele>108</ele>
        <time>2020-06-14T18:08:02Z</time>
      </trkpt>
      <trkpt lat="49.58889" lon="-1.78553">
        <ele>108</ele>
        <time>2020-06-14T18:08:03Z</time>
      </trkpt>
      <trkpt lat="49.5889" lon="-1.78544">
        <ele>108.1</ele>
        <time>2020-06-14T18:08:04Z</time>
      </trkpt>
      <trkpt lat="49.58892" lon="-1.78535">
        <ele>108.1</ele>
        <time>2020-06-14T18:08:05Z</time>
      </trkpt>
      <trkpt lat="49.58893" lon="-1.78526">
        <ele>108.1</ele>
        <time>2020-06-14T18:08:06Z</time>
      </trkpt>
      <trkpt lat="49.58894" lon="-1.78517">
        <ele>108.1</ele>
        <time>2020-06-14T18:08:07Z</time>
      </trkpt>
      <trkpt lat="49.58895" lon="-1.78508">
        <ele>108.1</ele>
        <time>2020-06-14T18:08:08Z</time>
      </trkpt>
      <trkpt lat="49.58897" lon="-1.78499">
        <ele>108.2</ele>
        <time>2020-06-14T18:08:09Z</time>
      </trkpt>
      <trkpt lat="49.58898" lon="-1.78491">
        <ele>108.2</ele>
        <time>2020-06-14T18:08:10Z</time>
      </trkpt>
      <trkpt lat="49.589" lon="-1.78482">
        <ele>108.3</ele>
        <time>2020-06-14T18:08:11Z</time>
      </trkpt>
      <trkpt lat="49.58901" lon="-1.78474">
        <ele>108.3</ele>
        <time>2020-06-14T18:08:12Z</time>
      </trkpt>
      <trkpt lat="49.58903" lon="-1.78466">
        <ele>108.4</ele>
        <time>2020-06-14T18:08:13Z</time>
      </trkpt>
      <trkpt lat="49.58905" lon="-1.78456">
        <ele>108.5</ele>
        <time>2020-06-14T18:08:14Z</time>
      </trkpt>
      <trkpt lat="49.58907" lon="-1.7845">
        <ele>108.5</ele>
        <time>2020-06-14T18:08:15Z</time>
      </trkpt>
      <trkpt lat="49.58909" lon="-1.78445">
        <ele>108.5</ele>
        <time>2020-06-14T18:08:16Z</time>
      </trkpt>
      <trkpt lat="49.58911" lon="-1.78436">
        <ele>108.5</ele>
        <time>2020-06-14T18:08:17Z</time>
      </trkpt>
      <trkpt lat="49.58913" lon="-1.78427">
        <ele>108.6</ele>
        <time>2020-06-14T18:08:18Z</time>
      </trkpt>
      <trkpt lat="49.58916" lon="-1.78418">
        <ele>108.6</ele>
        <time>2020-06-14T18:08:19Z</time>
      </trkpt>
      <trkpt lat="49.5892" lon="-1.7841">
        <ele>108.6</ele>
        <time>2020-06-14T18:08:20Z</time>
      </trkpt>
      <trkpt lat="49.58923" lon="-1.78402">
        <ele>108.7</ele>
        <time>2020-06-14T18:08:21Z</time>
      </trkpt>
      <trkpt lat="49.58927" lon="-1.78398">
        <ele>108.7</ele>
        <time>2020-06-14T18:08:22Z</time>
      </trkpt>
      <trkpt lat="49.58931" lon="-1.78391">
        <ele>108.7</ele>
        <time>2020-06-14T18:08:23Z</time>
      </trkpt>
      <trkpt lat="49.58935" lon="-1.78385">
        <ele>108.7</ele>
        <time>2020-06-14T18:08:24Z</time>
      </trkpt>
      <trkpt lat="49.58939" lon="-1.78378">
        <ele>108.7</ele>
        <time>2020-06-14T18:08:25Z</time>
      </trkpt>
      <trkpt lat="49.58942" lon="-1.78372">
        <ele>108.7</ele>
        <time>2020-06-14T18:08:26Z</time>
      </trkpt>
      <trkpt lat="49.58945" lon="-1.78368">
        <ele>108.7</ele>
        <time>2020-06-14T18:08:27Z</time>
      </trkpt>
      <trkpt lat="49.58949" lon="-1.78361">
        <ele>108.8</ele>
        <time>2020-06-14T18:08:28Z</time>
      </trkpt>
      <trkpt lat="49.58953" lon="-1.78355">
        <ele>108.8</ele>
        <time>2020-06-14T18:08:29Z</time>
      </trkpt>
      <trkpt lat="49.58957" lon="-1.78347">
        <ele>108.8</ele>
        <time>2020-06-14T18:08:30Z</time>
      </trkpt>
      <trkpt lat="49.58962" lon="-1.78339">
        <ele>108.8</ele>
        <time>2020-06-14T18:08:31Z</time>
      </trkpt>
      <trkpt lat="49.58966" lon="-1.78332">
        <ele>108.8</ele>
        <time>2020-06-14T18:08:32Z</time>
      </trkpt>
      <trkpt lat="49.58971" lon="-1.78326">
        <ele>108.8</ele>
        <time>2020-06-14T18:08:33Z</time>
      </trkpt>
      <trkpt lat="49.58975" lon="-1.7832">
        <ele>108.8</ele>
        <time>2020-06-14T18:08:34Z</time>
      </trkpt>
      <trkpt lat="49.5898" lon="-1.78314">
        <ele>108.8</ele>
        <time>2020-06-14T18:08:35Z</time>
      </trkpt>
      <trkpt lat="49.58984" lon="-1.78308">
        <ele>108.9</ele>
        <time>2020-06-14T18:08:36Z</time>
      </trkpt>
      <trkpt lat="49.58988" lon="-1.78301">
        <ele>108.9</ele>
        <time>2020-06-14T18:08:37Z</time>
      </trkpt>
      <trkpt lat="49.58992" lon="-1.78295">
        <ele>108.9</ele>
        <time>2020-06-14T18:08:38Z</time>
      </trkpt>
      <trkpt lat="49.58996" lon="-1.78288">
        <ele>108.9</ele>
        <time>2020-06-14T18:08:39Z</time>
      </trkpt>
      <trkpt lat="49.59" lon="-1.78281">
        <ele>108.9</ele>
        <time>2020-06-14T18:08:40Z</time>
      </trkpt>
      <trkpt lat="49.59004" lon="-1.78274">
        <ele>108.9</ele>
        <time>2020-06-14T18:08:41Z</time>
      </trkpt>
      <trkpt lat="49.59008" lon="-1.78268">
        <ele>108.9</ele>
        <time>2020-06-14T18:08:42Z</time>
      </trkpt>
      <trkpt lat="49.59012" lon="-1.78262">
        <ele>108.9</ele>
        <time>2020-06-14T18:08:43Z</time>
      </trkpt>
      <trkpt lat="49.59016" lon="-1.78256">
        <ele>108.9</ele>
        <time>2020-06-14T18:08:44Z</time>
      </trkpt>
      <trkpt lat="49.5902" lon="-1.7825">
        <ele>108.9</ele>
        <time>2020-06-14T18:08:45Z</time>
      </trkpt>
      <trkpt lat="49.59024" lon="-1.78244">
        <ele>108.8</ele>
        <time>2020-06-14T18:08:46Z</time>
      </trkpt>
      <trkpt lat="49.59027" lon="-1.78237">
        <ele>108.7</ele>
        <time>2020-06-14T18:08:47Z</time>
      </trkpt>
      <trkpt lat="49.59031" lon="-1.7823">
        <ele>108.7</ele>
        <time>2020-06-14T18:08:48Z</time>
      </trkpt>
      <trkpt lat="49.59035" lon="-1.78223">
        <ele>108.6</ele>
        <time>2020-06-14T18:08:49Z</time>
      </trkpt>
      <trkpt lat="49.59039" lon="-1.78216">
        <ele>108.5</ele>
        <time>2020-06-14T18:08:50Z</time>
      </trkpt>
      <trkpt lat="49.59043" lon="-1.7821">
        <ele>108.5</ele>
        <time>2020-06-14T18:08:51Z</time>
      </trkpt>
      <trkpt lat="49.59047" lon="-1.78203">
        <ele>108.4</ele>
        <time>2020-06-14T18:08:52Z</time>
      </trkpt>
      <trkpt lat="49.59051" lon="-1.78196">
        <ele>108.4</ele>
        <time>2020-06-14T18:08:53Z</time>
      </trkpt>
      <trkpt lat="49.59055" lon="-1.78189">
        <ele>108.4</ele>
        <time>2020-06-14T18:08:54Z</time>
      </trkpt>
      <trkpt lat="49.59057" lon="-1.78182">
        <ele>108.4</ele>
        <time>2020-06-14T18:08:55Z</time>
      </trkpt>
      <trkpt lat="49.5906" lon="-1.78175">
        <ele>108.4</ele>
        <time>2020-06-14T18:08:56Z</time>
      </trkpt>
      <trkpt lat="49.59063" lon="-1.78168">
        <ele>108.4</ele>
        <time>2020-06-14T18:08:57Z</time>
      </trkpt>
      <trkpt lat="49.59067" lon="-1.7816">
        <ele>108.4</ele>
        <time>2020-06-14T18:08:58Z</time>
      </trkpt>
      <trkpt lat="49.59071" lon="-1.78151">
        <ele>108.4</ele>
        <time>2020-06-14T18:08:59Z</time>
      </trkpt>
      <trkpt lat="49.59075" lon="-1.78145">
        <ele>108.3</ele>
        <time>2020-06-14T18:09:00Z</time>
      </trkpt>
      <trkpt lat="49.59079" lon="-1.78136">
        <ele>108.3</ele>
        <time>2020-06-14T18:09:01Z</time>
      </trkpt>
      <trkpt lat="49.59082" lon="-1.78129">
        <ele>108.3</ele>
        <time>2020-06-14T18:09:02Z</time>
      </trkpt>
      <trkpt lat="49.59085" lon="-1.7812">
        <ele>108.2</ele>
        <time>2020-06-14T18:09:03Z</time>
      </trkpt>
      <trkpt lat="49.59089" lon="-1.78113">
        <ele>108.1</ele>
        <time>2020-06-14T18:09:04Z</time>
      </trkpt>
      <trkpt lat="49.59092" lon="-1.78107">
        <ele>108.1</ele>
        <time>2020-06-14T18:09:05Z</time>
      </trkpt>
      <trkpt lat="49.59096" lon="-1.78098">
        <ele>108</ele>
        <time>2020-06-14T18:09:06Z</time>
      </trkpt>
      <trkpt lat="49.59099" lon="-1.78091">
        <ele>107.9</ele>
        <time>2020-06-14T18:09:07Z</time>
      </trkpt>
      <trkpt lat="49.59102" lon="-1.78084">
        <ele>107.9</ele>
        <time>2020-06-14T18:09:08Z</time>
      </trkpt>
      <trkpt lat="49.59106" lon="-1.78076">
        <ele>107.8</ele>
        <time>2020-06-14T18:09:09Z</time>
      </trkpt>
      <trkpt lat="49.59109" lon="-1.78068">
        <ele>107.8</ele>
        <time>2020-06-14T18:09:10Z</time>
      </trkpt>
      <trkpt lat="49.59112" lon="-1.78061">
        <ele>107.7</ele>
        <time>2020-06-14T18:09:11Z</time>
      </trkpt>
      <trkpt lat="49.59115" lon="-1.78055">
        <ele>107.7</ele>
        <time>2020-06-14T18:09:12Z</time>
      </trkpt>
      <trkpt lat="49.59118" lon="-1.78047">
        <ele>107.6</ele>
        <time>2020-06-14T18:09:13Z</time>
      </trkpt>
      <trkpt lat="49.59121" lon="-1.78039">
        <ele>107.6</ele>
        <time>2020-06-14T18:09:14Z</time>
      </trkpt>
      <trkpt lat="49.59125" lon="-1.7803">
        <ele>107.5</ele>
        <time>2020-06-14T18:09:15Z</time>
      </trkpt>
      <trkpt lat="49.59127" lon="-1.78022">
        <ele>107.5</ele>
        <time>2020-06-14T18:09:16Z</time>
      </trkpt>
      <trkpt lat="49.5913" lon="-1.78015">
        <ele>107.5</ele>
        <time>2020-06-14T18:09:17Z</time>
      </trkpt>
      <trkpt lat="49.59134" lon="-1.78007">
        <ele>107.4</ele>
        <time>2020-06-14T18:09:18Z</time>
      </trkpt>
      <trkpt lat="49.59136" lon="-1.77999">
        <ele>107.4</ele>
        <time>2020-06-14T18:09:19Z</time>
      </trkpt>
      <trkpt lat="49.59139" lon="-1.77991">
        <ele>107.4</ele>
        <time>2020-06-14T18:09:20Z</time>
      </trkpt>
      <trkpt lat="49.59141" lon="-1.77984">
        <ele>107.4</ele>
        <time>2020-06-14T18:09:21Z</time>
      </trkpt>
      <trkpt lat="49.59144" lon="-1.77977">
        <ele>107.4</ele>
        <time>2020-06-14T18:09:22Z</time>
      </trkpt>
      <trkpt lat="49.59147" lon="-1.77969">
        <ele>107.3</ele>
        <time>2020-06-14T18:09:23Z</time>
      </trkpt>
      <trkpt lat="49.5915" lon="-1.77961">
        <ele>107.3</ele>
        <time>2020-06-14T18:09:24Z</time>
      </trkpt>
      <trkpt lat="49.59154" lon="-1.77954">
        <ele>107.3</ele>
        <time>2020-06-14T18:09:25Z</time>
      </trkpt>
      <trkpt lat="49.59157" lon="-1.77948">
        <ele>107.4</ele>
        <time>2020-06-14T18:09:26Z</time>
      </trkpt>
      <trkpt lat="49.5916" lon="-1.7794">
        <ele>107.4</ele>
        <time>2020-06-14T18:09:27Z</time>
      </trkpt>
      <trkpt lat="49.59163" lon="-1.77932">
        <ele>107.4</ele>
        <time>2020-06-14T18:09:28Z</time>
      </trkpt>
      <trkpt lat="49.59167" lon="-1.77924">
        <ele>107.4</ele>
        <time>2020-06-14T18:09:29Z</time>
      </trkpt>
      <trkpt lat="49.5917" lon="-1.77917">
        <ele>107.5</ele>
        <time>2020-06-14T18:09:30Z</time>
      </trkpt>
      <trkpt lat="49.59173" lon="-1.7791">
        <ele>107.5</ele>
        <time>2020-06-14T18:09:31Z</time>
      </trkpt>
      <trkpt lat="49.59175" lon="-1.77903">
        <ele>107.5</ele>
        <time>2020-06-14T18:09:32Z</time>
      </trkpt>
      <trkpt lat="49.59178" lon="-1.77894">
        <ele>107.6</ele>
        <time>2020-06-14T18:09:33Z</time>
      </trkpt>
      <trkpt lat="49.59181" lon="-1.77886">
        <ele>107.6</ele>
        <time>2020-06-14T18:09:34Z</time>
      </trkpt>
      <trkpt lat="49.59184" lon="-1.77878">
        <ele>107.7</ele>
        <time>2020-06-14T18:09:35Z</time>
      </trkpt>
      <trkpt lat="49.59187" lon="-1.77869">
        <ele>107.7</ele>
        <time>2020-06-14T18:09:36Z</time>
      </trkpt>
      <trkpt lat="49.5919" lon="-1.77863">
        <ele>107.7</ele>
        <time>2020-06-14T18:09:37Z</time>
      </trkpt>
      <trkpt lat="49.59193" lon="-1.77855">
        <ele>107.7</ele>
        <time>2020-06-14T18:09:38Z</time>
      </trkpt>
      <trkpt lat="49.59195" lon="-1.77847">
        <ele>107.7</ele>
        <time>2020-06-14T18:09:39Z</time>
      </trkpt>
      <trkpt lat="49.59197" lon="-1.7784">
        <ele>107.7</ele>
        <time>2020-06-14T18:09:40Z</time>
      </trkpt>
      <trkpt lat="49.592" lon="-1.77833">
        <ele>107.7</ele>
        <time>2020-06-14T18:09:41Z</time>
      </trkpt>
      <trkpt lat="49.59202" lon="-1.77825">
        <ele>107.7</ele>
        <time>2020-06-14T18:09:42Z</time>
      </trkpt>
      <trkpt lat="49.59205" lon="-1.77817">
        <ele>107.8</ele>
        <time>2020-06-14T18:09:43Z</time>
      </trkpt>
      <trkpt lat="49.59209" lon="-1.77809">
        <ele>107.8</ele>
        <time>2020-06-14T18:09:44Z</time>
      </trkpt>
      <trkpt lat="49.59212" lon="-1.77802">
        <ele>107.8</ele>
        <time>2020-06-14T18:09:45Z</time>
      </trkpt>
      <trkpt lat="49.59215" lon="-1.77794">
        <ele>107.8</ele>
        <time>2020-06-14T18:09:46Z</time>
      </trkpt>
      <trkpt lat="49.59218" lon="-1.77787">
        <ele>107.8</ele>
        <time>2020-06-14T18:09:47Z</time>
      </trkpt>
      <trkpt lat="49.59221" lon="-1.77779">
        <ele>107.7</ele>
        <time>2020-06-14T18:09:48Z</time>
      </trkpt>
      <trkpt lat="49.59224" lon="-1.77771">
        <ele>107.7</ele>
        <time>2020-06-14T18:09:49Z</time>
      </trkpt>
      <trkpt lat="49.59227" lon="-1.77763">
        <ele>107.7</ele>
        <time>2020-06-14T18:09:50Z</time>
      </trkpt>
      <trkpt lat="49.5923" lon="-1.77754">
        <ele>107.7</ele>
        <time>2020-06-14T18:09:51Z</time>
      </trkpt>
      <trkpt lat="49.59233" lon="-1.77747">
        <ele>107.7</ele>
        <time>2020-06-14T18:09:52Z</time>
      </trkpt>
      <trkpt lat="49.59236" lon="-1.77738">
        <ele>107.7</ele>
        <time>2020-06-14T18:09:53Z</time>
      </trkpt>
      <trkpt lat="49.59239" lon="-1.77731">
        <ele>107.7</ele>
        <time>2020-06-14T18:09:54Z</time>
      </trkpt>
      <trkpt lat="49.59242" lon="-1.77723">
        <ele>107.7</ele>
        <time>2020-06-14T18:09:55Z</time>
      </trkpt>
      <trkpt lat="49.59244" lon="-1.77717">
        <ele>107.7</ele>
        <time>2020-06-14T18:09:56Z</time>
      </trkpt>
      <trkpt lat="49.59247" lon="-1.7771">
        <ele>107.7</ele>
        <time>2020-06-14T18:09:57Z</time>
      </trkpt>
      <trkpt lat="49.59249" lon="-1.77702">
        <ele>107.7</ele>
        <time>2020-06-14T18:09:58Z</time>
      </trkpt>
      <trkpt lat="49.59252" lon="-1.77695">
        <ele>107.8</ele>
        <time>2020-06-14T18:09:59Z</time>
      </trkpt>
      <trkpt lat="49.59255" lon="-1.77688">
        <ele>107.8</ele>
        <time>2020-06-14T18:10:00Z</time>
      </trkpt>
      <trkpt lat="49.59258" lon="-1.7768">
        <ele>107.8</ele>
        <time>2020-06-14T18:10:01Z</time>
      </trkpt>
      <trkpt lat="49.59261" lon="-1.77673">
        <ele>107.8</ele>
        <time>2020-06-14T18:10:02Z</time>
      </trkpt>
      <trkpt lat="49.59264" lon="-1.77665">
        <ele>107.8</ele>
        <time>2020-06-14T18:10:03Z</time>
      </trkpt>
      <trkpt lat="49.59268" lon="-1.77657">
        <ele>107.9</ele>
        <time>2020-06-14T18:10:04Z</time>
      </trkpt>
      <trkpt lat="49.59271" lon="-1.7765">
        <ele>107.9</ele>
        <time>2020-06-14T18:10:05Z</time>
      </trkpt>
      <trkpt lat="49.59274" lon="-1.77644">
        <ele>107.9</ele>
        <time>2020-06-14T18:10:06Z</time>
      </trkpt>
      <trkpt lat="49.59278" lon="-1.77637">
        <ele>108.1</ele>
        <time>2020-06-14T18:10:07Z</time>
      </trkpt>
      <trkpt lat="49.59281" lon="-1.7763">
        <ele>108.2</ele>
        <time>2020-06-14T18:10:08Z</time>
      </trkpt>
      <trkpt lat="49.59285" lon="-1.77625">
        <ele>108.2</ele>
        <time>2020-06-14T18:10:09Z</time>
      </trkpt>
      <trkpt lat="49.59289" lon="-1.7762">
        <ele>108.2</ele>
        <time>2020-06-14T18:10:10Z</time>
      </trkpt>
      <trkpt lat="49.59294" lon="-1.77616">
        <ele>108.3</ele>
        <time>2020-06-14T18:10:11Z</time>
      </trkpt>
      <trkpt lat="49.59298" lon="-1.7761">
        <ele>108.3</ele>
        <time>2020-06-14T18:10:12Z</time>
      </trkpt>
      <trkpt lat="49.59303" lon="-1.77604">
        <ele>108.3</ele>
        <time>2020-06-14T18:10:13Z</time>
      </trkpt>
      <trkpt lat="49.59307" lon="-1.77598">
        <ele>108.4</ele>
        <time>2020-06-14T18:10:14Z</time>
      </trkpt>
      <trkpt lat="49.59312" lon="-1.77591">
        <ele>108.5</ele>
        <time>2020-06-14T18:10:15Z</time>
      </trkpt>
      <trkpt lat="49.59316" lon="-1.77585">
        <ele>108.5</ele>
        <time>2020-06-14T18:10:16Z</time>
      </trkpt>
      <trkpt lat="49.59321" lon="-1.77579">
        <ele>108.6</ele>
        <time>2020-06-14T18:10:17Z</time>
      </trkpt>
      <trkpt lat="49.59324" lon="-1.77573">
        <ele>108.7</ele>
        <time>2020-06-14T18:10:18Z</time>
      </trkpt>
      <trkpt lat="49.59327" lon="-1.77568">
        <ele>108.7</ele>
        <time>2020-06-14T18:10:19Z</time>
      </trkpt>
      <trkpt lat="49.59332" lon="-1.77563">
        <ele>108.8</ele>
        <time>2020-06-14T18:10:20Z</time>
      </trkpt>
      <trkpt lat="49.59337" lon="-1.77556">
        <ele>109</ele>
        <time>2020-06-14T18:10:21Z</time>
      </trkpt>
      <trkpt lat="49.59342" lon="-1.77551">
        <ele>109.4</ele>
        <time>2020-06-14T18:10:22Z</time>
      </trkpt>
      <trkpt lat="49.59346" lon="-1.77545">
        <ele>109.3</ele>
        <time>2020-06-14T18:10:23Z</time>
      </trkpt>
      <trkpt lat="49.5935" lon="-1.7754">
        <ele>109.3</ele>
        <time>2020-06-14T18:10:24Z</time>
      </trkpt>
      <trkpt lat="49.59354" lon="-1.77534">
        <ele>109.2</ele>
        <time>2020-06-14T18:10:25Z</time>
      </trkpt>
      <trkpt lat="49.59358" lon="-1.77526">
        <ele>109.2</ele>
        <time>2020-06-14T18:10:26Z</time>
      </trkpt>
      <trkpt lat="49.59361" lon="-1.77518">
        <ele>109.1</ele>
        <time>2020-06-14T18:10:27Z</time>
      </trkpt>
      <trkpt lat="49.59364" lon="-1.77511">
        <ele>109.1</ele>
        <time>2020-06-14T18:10:28Z</time>
      </trkpt>
      <trkpt lat="49.59367" lon="-1.77504">
        <ele>109</ele>
        <time>2020-06-14T18:10:29Z</time>
      </trkpt>
      <trkpt lat="49.5937" lon="-1.77498">
        <ele>109</ele>
        <time>2020-06-14T18:10:30Z</time>
      </trkpt>
      <trkpt lat="49.59373" lon="-1.77492">
        <ele>109</ele>
        <time>2020-06-14T18:10:31Z</time>
      </trkpt>
      <trkpt lat="49.59376" lon="-1.77485">
        <ele>109</ele>
        <time>2020-06-14T18:10:32Z</time>
      </trkpt>
      <trkpt lat="49.59379" lon="-1.77478">
        <ele>109</ele>
        <time>2020-06-14T18:10:33Z</time>
      </trkpt>
      <trkpt lat="49.59382" lon="-1.77472">
        <ele>109</ele>
        <time>2020-06-14T18:10:34Z</time>
      </trkpt>
      <trkpt lat="49.59385" lon="-1.77465">
        <ele>109</ele>
        <time>2020-06-14T18:10:35Z</time>
      </trkpt>
      <trkpt lat="49.59389" lon="-1.77458">
        <ele>109</ele>
        <time>2020-06-14T18:10:36Z</time>
      </trkpt>
      <trkpt lat="49.59392" lon="-1.77452">
        <ele>109</ele>
        <time>2020-06-14T18:10:37Z</time>
      </trkpt>
      <trkpt lat="49.59395" lon="-1.77445">
        <ele>109</ele>
        <time>2020-06-14T18:10:38Z</time>
      </trkpt>
      <trkpt lat="49.59399" lon="-1.77437">
        <ele>108.9</ele>
        <time>2020-06-14T18:10:39Z</time>
      </trkpt>
      <trkpt lat="49.59403" lon="-1.77431">
        <ele>108.9</ele>
        <time>2020-06-14T18:10:40Z</time>
      </trkpt>
      <trkpt lat="49.59406" lon="-1.77423">
        <ele>108.8</ele>
        <time>2020-06-14T18:10:41Z</time>
      </trkpt>
      <trkpt lat="49.5941" lon="-1.77416">
        <ele>108.7</ele>
        <time>2020-06-14T18:10:42Z</time>
      </trkpt>
      <trkpt lat="49.59414" lon="-1.77408">
        <ele>108.7</ele>
        <time>2020-06-14T18:10:43Z</time>
      </trkpt>
      <trkpt lat="49.59418" lon="-1.77399">
        <ele>108.6</ele>
        <time>2020-06-14T18:10:44Z</time>
      </trkpt>
      <trkpt lat="49.5942" lon="-1.77395">
        <ele>108.5</ele>
        <time>2020-06-14T18:10:45Z</time>
      </trkpt>
      <trkpt lat="49.59424" lon="-1.77389">
        <ele>108.4</ele>
        <time>2020-06-14T18:10:46Z</time>
      </trkpt>
      <trkpt lat="49.59427" lon="-1.77382">
        <ele>108.3</ele>
        <time>2020-06-14T18:10:47Z</time>
      </trkpt>
      <trkpt lat="49.59431" lon="-1.77374">
        <ele>108.2</ele>
        <time>2020-06-14T18:10:48Z</time>
      </trkpt>
      <trkpt lat="49.59435" lon="-1.77367">
        <ele>108.1</ele>
        <time>2020-06-14T18:10:49Z</time>
      </trkpt>
      <trkpt lat="49.59438" lon="-1.77359">
        <ele>107.9</ele>
        <time>2020-06-14T18:10:50Z</time>
      </trkpt>
      <trkpt lat="49.5944" lon="-1.77352">
        <ele>107.8</ele>
        <time>2020-06-14T18:10:51Z</time>
      </trkpt>
      <trkpt lat="49.59442" lon="-1.77346">
        <ele>107.7</ele>
        <time>2020-06-14T18:10:52Z</time>
      </trkpt>
      <trkpt lat="49.59444" lon="-1.77341">
        <ele>107.6</ele>
        <time>2020-06-14T18:10:53Z</time>
      </trkpt>
      <trkpt lat="49.59445" lon="-1.77337">
        <ele>107.5</ele>
        <time>2020-06-14T18:10:54Z</time>
      </trkpt>
      <trkpt lat="49.59447" lon="-1.77333">
        <ele>107.5</ele>
        <time>2020-06-14T18:10:55Z</time>
      </trkpt>
      <trkpt lat="49.59448" lon="-1.77328">
        <ele>107.4</ele>
        <time>2020-06-14T18:10:56Z</time>
      </trkpt>
      <trkpt lat="49.59449" lon="-1.77322">
        <ele>107.3</ele>
        <time>2020-06-14T18:10:57Z</time>
      </trkpt>
      <trkpt lat="49.5945" lon="-1.77316">
        <ele>107.2</ele>
        <time>2020-06-14T18:10:58Z</time>
      </trkpt>
      <trkpt lat="49.59448" lon="-1.77309">
        <ele>107.1</ele>
        <time>2020-06-14T18:10:59Z</time>
      </trkpt>
      <trkpt lat="49.59448" lon="-1.77301">
        <ele>107.1</ele>
        <time>2020-06-14T18:11:00Z</time>
      </trkpt>
      <trkpt lat="49.59448" lon="-1.77295">
        <ele>107</ele>
        <time>2020-06-14T18:11:01Z</time>
      </trkpt>
      <trkpt lat="49.59448" lon="-1.77289">
        <ele>106.9</ele>
        <time>2020-06-14T18:11:02Z</time>
      </trkpt>
      <trkpt lat="49.59446" lon="-1.77282">
        <ele>106.8</ele>
        <time>2020-06-14T18:11:03Z</time>
      </trkpt>
      <trkpt lat="49.59446" lon="-1.77277">
        <ele>106.7</ele>
        <time>2020-06-14T18:11:04Z</time>
      </trkpt>
      <trkpt lat="49.59446" lon="-1.77271">
        <ele>106.6</ele>
        <time>2020-06-14T18:11:05Z</time>
      </trkpt>
      <trkpt lat="49.5945" lon="-1.77267">
        <ele>106.4</ele>
        <time>2020-06-14T18:11:06Z</time>
      </trkpt>
      <trkpt lat="49.59453" lon="-1.77262">
        <ele>106.2</ele>
        <time>2020-06-14T18:11:07Z</time>
      </trkpt>
      <trkpt lat="49.59455" lon="-1.77255">
        <ele>106</ele>
        <time>2020-06-14T18:11:08Z</time>
      </trkpt>
      <trkpt lat="49.59456" lon="-1.77248">
        <ele>105.7</ele>
        <time>2020-06-14T18:11:09Z</time>
      </trkpt>
      <trkpt lat="49.59458" lon="-1.77242">
        <ele>105.5</ele>
        <time>2020-06-14T18:11:10Z</time>
      </trkpt>
      <trkpt lat="49.5946" lon="-1.77232">
        <ele>105.2</ele>
        <time>2020-06-14T18:11:11Z</time>
      </trkpt>
      <trkpt lat="49.59462" lon="-1.77224">
        <ele>104.9</ele>
        <time>2020-06-14T18:11:12Z</time>
      </trkpt>
      <trkpt lat="49.59463" lon="-1.77216">
        <ele>104.7</ele>
        <time>2020-06-14T18:11:13Z</time>
      </trkpt>
      <trkpt lat="49.59465" lon="-1.77207">
        <ele>104.5</ele>
        <time>2020-06-14T18:11:14Z</time>
      </trkpt>
      <trkpt lat="49.59466" lon="-1.77198">
        <ele>104.2</ele>
        <time>2020-06-14T18:11:15Z</time>
      </trkpt>
      <trkpt lat="49.59467" lon="-1.7719">
        <ele>103.9</ele>
        <time>2020-06-14T18:11:16Z</time>
      </trkpt>
      <trkpt lat="49.59468" lon="-1.77181">
        <ele>103.6</ele>
        <time>2020-06-14T18:11:17Z</time>
      </trkpt>
      <trkpt lat="49.5947" lon="-1.77174">
        <ele>103.4</ele>
        <time>2020-06-14T18:11:18Z</time>
      </trkpt>
      <trkpt lat="49.59472" lon="-1.77168">
        <ele>103.2</ele>
        <time>2020-06-14T18:11:19Z</time>
      </trkpt>
      <trkpt lat="49.59474" lon="-1.7716">
        <ele>102.9</ele>
        <time>2020-06-14T18:11:20Z</time>
      </trkpt>
      <trkpt lat="49.59476" lon="-1.77149">
        <ele>102.4</ele>
        <time>2020-06-14T18:11:21Z</time>
      </trkpt>
      <trkpt lat="49.59478" lon="-1.77139">
        <ele>102.1</ele>
        <time>2020-06-14T18:11:22Z</time>
      </trkpt>
      <trkpt lat="49.59479" lon="-1.77129">
        <ele>101.8</ele>
        <time>2020-06-14T18:11:23Z</time>
      </trkpt>
      <trkpt lat="49.59481" lon="-1.77119">
        <ele>101.6</ele>
        <time>2020-06-14T18:11:24Z</time>
      </trkpt>
      <trkpt lat="49.59483" lon="-1.77107">
        <ele>101.3</ele>
        <time>2020-06-14T18:11:25Z</time>
      </trkpt>
      <trkpt lat="49.59486" lon="-1.77097">
        <ele>101</ele>
        <time>2020-06-14T18:11:26Z</time>
      </trkpt>
      <trkpt lat="49.59488" lon="-1.77087">
        <ele>100.8</ele>
        <time>2020-06-14T18:11:27Z</time>
      </trkpt>
      <trkpt lat="49.59489" lon="-1.77078">
        <ele>100.6</ele>
        <time>2020-06-14T18:11:28Z</time>
      </trkpt>
      <trkpt lat="49.59491" lon="-1.77068">
        <ele>100.4</ele>
        <time>2020-06-14T18:11:29Z</time>
      </trkpt>
      <trkpt lat="49.59493" lon="-1.77058">
        <ele>100.2</ele>
        <time>2020-06-14T18:11:30Z</time>
      </trkpt>
      <trkpt lat="49.59494" lon="-1.77048">
        <ele>99.9</ele>
        <time>2020-06-14T18:11:31Z</time>
      </trkpt>
      <trkpt lat="49.59493" lon="-1.77039">
        <ele>99.8</ele>
        <time>2020-06-14T18:11:32Z</time>
      </trkpt>
      <trkpt lat="49.59493" lon="-1.77028">
        <ele>99.6</ele>
        <time>2020-06-14T18:11:33Z</time>
      </trkpt>
      <trkpt lat="49.59493" lon="-1.77018">
        <ele>99.4</ele>
        <time>2020-06-14T18:11:34Z</time>
      </trkpt>
      <trkpt lat="49.59493" lon="-1.77008">
        <ele>99.2</ele>
        <time>2020-06-14T18:11:35Z</time>
      </trkpt>
      <trkpt lat="49.59492" lon="-1.76999">
        <ele>99</ele>
        <time>2020-06-14T18:11:36Z</time>
      </trkpt>
      <trkpt lat="49.59491" lon="-1.76989">
        <ele>98.8</ele>
        <time>2020-06-14T18:11:37Z</time>
      </trkpt>
      <trkpt lat="49.59488" lon="-1.7698">
        <ele>98.6</ele>
        <time>2020-06-14T18:11:38Z</time>
      </trkpt>
      <trkpt lat="49.59486" lon="-1.76971">
        <ele>98.4</ele>
        <time>2020-06-14T18:11:39Z</time>
      </trkpt>
      <trkpt lat="49.59485" lon="-1.7696">
        <ele>98.2</ele>
        <time>2020-06-14T18:11:40Z</time>
      </trkpt>
      <trkpt lat="49.59484" lon="-1.7695">
        <ele>97.9</ele>
        <time>2020-06-14T18:11:41Z</time>
      </trkpt>
      <trkpt lat="49.59482" lon="-1.7694">
        <ele>97.7</ele>
        <time>2020-06-14T18:11:42Z</time>
      </trkpt>
      <trkpt lat="49.59481" lon="-1.76929">
        <ele>97.5</ele>
        <time>2020-06-14T18:11:43Z</time>
      </trkpt>
      <trkpt lat="49.59479" lon="-1.76919">
        <ele>97.3</ele>
        <time>2020-06-14T18:11:44Z</time>
      </trkpt>
      <trkpt lat="49.59478" lon="-1.76908">
        <ele>97.1</ele>
        <time>2020-06-14T18:11:45Z</time>
      </trkpt>
      <trkpt lat="49.59478" lon="-1.76897">
        <ele>96.9</ele>
        <time>2020-06-14T18:11:46Z</time>
      </trkpt>
      <trkpt lat="49.59479" lon="-1.76886">
        <ele>96.8</ele>
        <time>2020-06-14T18:11:47Z</time>
      </trkpt>
      <trkpt lat="49.59481" lon="-1.76875">
        <ele>96.6</ele>
        <time>2020-06-14T18:11:48Z</time>
      </trkpt>
      <trkpt lat="49.59483" lon="-1.76865">
        <ele>96.5</ele>
        <time>2020-06-14T18:11:49Z</time>
      </trkpt>
      <trkpt lat="49.59485" lon="-1.76855">
        <ele>96.4</ele>
        <time>2020-06-14T18:11:50Z</time>
      </trkpt>
      <trkpt lat="49.59488" lon="-1.76846">
        <ele>96.3</ele>
        <time>2020-06-14T18:11:51Z</time>
      </trkpt>
      <trkpt lat="49.59491" lon="-1.76837">
        <ele>96.2</ele>
        <time>2020-06-14T18:11:52Z</time>
      </trkpt>
      <trkpt lat="49.59493" lon="-1.76828">
        <ele>96.1</ele>
        <time>2020-06-14T18:11:53Z</time>
      </trkpt>
      <trkpt lat="49.59494" lon="-1.76818">
        <ele>95.9</ele>
        <time>2020-06-14T18:11:54Z</time>
      </trkpt>
      <trkpt lat="49.59495" lon="-1.7681">
        <ele>95.8</ele>
        <time>2020-06-14T18:11:55Z</time>
      </trkpt>
      <trkpt lat="49.59497" lon="-1.76801">
        <ele>95.6</ele>
        <time>2020-06-14T18:11:56Z</time>
      </trkpt>
      <trkpt lat="49.59498" lon="-1.76793">
        <ele>95.5</ele>
        <time>2020-06-14T18:11:57Z</time>
      </trkpt>
      <trkpt lat="49.59501" lon="-1.76785">
        <ele>95.4</ele>
        <time>2020-06-14T18:11:58Z</time>
      </trkpt>
      <trkpt lat="49.59502" lon="-1.76776">
        <ele>95.3</ele>
        <time>2020-06-14T18:11:59Z</time>
      </trkpt>
      <trkpt lat="49.59503" lon="-1.76767">
        <ele>95.2</ele>
        <time>2020-06-14T18:12:00Z</time>
      </trkpt>
      <trkpt lat="49.59504" lon="-1.76758">
        <ele>95.1</ele>
        <time>2020-06-14T18:12:01Z</time>
      </trkpt>
      <trkpt lat="49.59505" lon="-1.76749">
        <ele>95.1</ele>
        <time>2020-06-14T18:12:02Z</time>
      </trkpt>
      <trkpt lat="49.59506" lon="-1.7674">
        <ele>95.1</ele>
        <time>2020-06-14T18:12:03Z</time>
      </trkpt>
      <trkpt lat="49.59507" lon="-1.76731">
        <ele>95</ele>
        <time>2020-06-14T18:12:04Z</time>
      </trkpt>
      <trkpt lat="49.59509" lon="-1.76722">
        <ele>95</ele>
        <time>2020-06-14T18:12:05Z</time>
      </trkpt>
      <trkpt lat="49.59511" lon="-1.76713">
        <ele>95</ele>
        <time>2020-06-14T18:12:06Z</time>
      </trkpt>
      <trkpt lat="49.59512" lon="-1.76705">
        <ele>94.9</ele>
        <time>2020-06-14T18:12:07Z</time>
      </trkpt>
      <trkpt lat="49.59513" lon="-1.76696">
        <ele>94.9</ele>
        <time>2020-06-14T18:12:08Z</time>
      </trkpt>
      <trkpt lat="49.59514" lon="-1.76687">
        <ele>94.9</ele>
        <time>2020-06-14T18:12:09Z</time>
      </trkpt>
      <trkpt lat="49.59515" lon="-1.76678">
        <ele>94.8</ele>
        <time>2020-06-14T18:12:10Z</time>
      </trkpt>
      <trkpt lat="49.59517" lon="-1.76669">
        <ele>94.8</ele>
        <time>2020-06-14T18:12:11Z</time>
      </trkpt>
      <trkpt lat="49.59519" lon="-1.76661">
        <ele>94.8</ele>
        <time>2020-06-14T18:12:12Z</time>
      </trkpt>
      <trkpt lat="49.59521" lon="-1.76652">
        <ele>94.7</ele>
        <time>2020-06-14T18:12:13Z</time>
      </trkpt>
      <trkpt lat="49.59522" lon="-1.76644">
        <ele>94.7</ele>
        <time>2020-06-14T18:12:14Z</time>
      </trkpt>
      <trkpt lat="49.59524" lon="-1.76635">
        <ele>94.7</ele>
        <time>2020-06-14T18:12:15Z</time>
      </trkpt>
      <trkpt lat="49.59525" lon="-1.76626">
        <ele>94.7</ele>
        <time>2020-06-14T18:12:16Z</time>
      </trkpt>
      <trkpt lat="49.59526" lon="-1.76617">
        <ele>94.7</ele>
        <time>2020-06-14T18:12:17Z</time>
      </trkpt>
      <trkpt lat="49.59528" lon="-1.76609">
        <ele>94.7</ele>
        <time>2020-06-14T18:12:18Z</time>
      </trkpt>
      <trkpt lat="49.59529" lon="-1.766">
        <ele>94.7</ele>
        <time>2020-06-14T18:12:19Z</time>
      </trkpt>
      <trkpt lat="49.5953" lon="-1.76591">
        <ele>94.7</ele>
        <time>2020-06-14T18:12:20Z</time>
      </trkpt>
      <trkpt lat="49.59532" lon="-1.76583">
        <ele>94.7</ele>
        <time>2020-06-14T18:12:21Z</time>
      </trkpt>
      <trkpt lat="49.59534" lon="-1.76574">
        <ele>94.7</ele>
        <time>2020-06-14T18:12:22Z</time>
      </trkpt>
      <trkpt lat="49.59536" lon="-1.76566">
        <ele>94.7</ele>
        <time>2020-06-14T18:12:23Z</time>
      </trkpt>
      <trkpt lat="49.59536" lon="-1.76557">
        <ele>94.7</ele>
        <time>2020-06-14T18:12:24Z</time>
      </trkpt>
      <trkpt lat="49.59538" lon="-1.76548">
        <ele>94.7</ele>
        <time>2020-06-14T18:12:25Z</time>
      </trkpt>
      <trkpt lat="49.5954" lon="-1.76539">
        <ele>94.6</ele>
        <time>2020-06-14T18:12:26Z</time>
      </trkpt>
      <trkpt lat="49.59541" lon="-1.7653">
        <ele>94.6</ele>
        <time>2020-06-14T18:12:27Z</time>
      </trkpt>
      <trkpt lat="49.59542" lon="-1.76522">
        <ele>94.6</ele>
        <time>2020-06-14T18:12:28Z</time>
      </trkpt>
      <trkpt lat="49.59543" lon="-1.76513">
        <ele>94.6</ele>
        <time>2020-06-14T18:12:29Z</time>
      </trkpt>
      <trkpt lat="49.59545" lon="-1.76504">
        <ele>94.6</ele>
        <time>2020-06-14T18:12:30Z</time>
      </trkpt>
      <trkpt lat="49.59547" lon="-1.76496">
        <ele>94.6</ele>
        <time>2020-06-14T18:12:31Z</time>
      </trkpt>
      <trkpt lat="49.59549" lon="-1.76487">
        <ele>94.6</ele>
        <time>2020-06-14T18:12:32Z</time>
      </trkpt>
      <trkpt lat="49.5955" lon="-1.76478">
        <ele>94.6</ele>
        <time>2020-06-14T18:12:33Z</time>
      </trkpt>
      <trkpt lat="49.59551" lon="-1.76469">
        <ele>94.6</ele>
        <time>2020-06-14T18:12:34Z</time>
      </trkpt>
      <trkpt lat="49.59551" lon="-1.7646">
        <ele>94.5</ele>
        <time>2020-06-14T18:12:35Z</time>
      </trkpt>
      <trkpt lat="49.59552" lon="-1.7645">
        <ele>94.5</ele>
        <time>2020-06-14T18:12:36Z</time>
      </trkpt>
      <trkpt lat="49.59552" lon="-1.76442">
        <ele>94.5</ele>
        <time>2020-06-14T18:12:37Z</time>
      </trkpt>
      <trkpt lat="49.59552" lon="-1.76434">
        <ele>94.5</ele>
        <time>2020-06-14T18:12:38Z</time>
      </trkpt>
      <trkpt lat="49.59552" lon="-1.76424">
        <ele>94.5</ele>
        <time>2020-06-14T18:12:39Z</time>
      </trkpt>
      <trkpt lat="49.59552" lon="-1.76416">
        <ele>94.5</ele>
        <time>2020-06-14T18:12:40Z</time>
      </trkpt>
      <trkpt lat="49.59552" lon="-1.76407">
        <ele>94.5</ele>
        <time>2020-06-14T18:12:41Z</time>
      </trkpt>
      <trkpt lat="49.59553" lon="-1.76399">
        <ele>94.5</ele>
        <time>2020-06-14T18:12:42Z</time>
      </trkpt>
      <trkpt lat="49.59552" lon="-1.76389">
        <ele>94.5</ele>
        <time>2020-06-14T18:12:43Z</time>
      </trkpt>
      <trkpt lat="49.59551" lon="-1.7638">
        <ele>94.4</ele>
        <time>2020-06-14T18:12:44Z</time>
      </trkpt>
      <trkpt lat="49.59551" lon="-1.76371">
        <ele>94.4</ele>
        <time>2020-06-14T18:12:45Z</time>
      </trkpt>
      <trkpt lat="49.5955" lon="-1.76363">
        <ele>94.3</ele>
        <time>2020-06-14T18:12:46Z</time>
      </trkpt>
      <trkpt lat="49.59549" lon="-1.76353">
        <ele>94.3</ele>
        <time>2020-06-14T18:12:47Z</time>
      </trkpt>
      <trkpt lat="49.59548" lon="-1.76343">
        <ele>94.2</ele>
        <time>2020-06-14T18:12:48Z</time>
      </trkpt>
      <trkpt lat="49.59547" lon="-1.76334">
        <ele>94.1</ele>
        <time>2020-06-14T18:12:49Z</time>
      </trkpt>
      <trkpt lat="49.59547" lon="-1.76324">
        <ele>94.1</ele>
        <time>2020-06-14T18:12:50Z</time>
      </trkpt>
      <trkpt lat="49.59546" lon="-1.76314">
        <ele>94</ele>
        <time>2020-06-14T18:12:51Z</time>
      </trkpt>
      <trkpt lat="49.59546" lon="-1.76302">
        <ele>93.9</ele>
        <time>2020-06-14T18:12:52Z</time>
      </trkpt>
      <trkpt lat="49.59546" lon="-1.76292">
        <ele>93.8</ele>
        <time>2020-06-14T18:12:53Z</time>
      </trkpt>
      <trkpt lat="49.59547" lon="-1.76281">
        <ele>93.7</ele>
        <time>2020-06-14T18:12:54Z</time>
      </trkpt>
      <trkpt lat="49.59547" lon="-1.7627">
        <ele>93.6</ele>
        <time>2020-06-14T18:12:55Z</time>
      </trkpt>
      <trkpt lat="49.59548" lon="-1.7626">
        <ele>93.5</ele>
        <time>2020-06-14T18:12:56Z</time>
      </trkpt>
      <trkpt lat="49.59548" lon="-1.76249">
        <ele>93.4</ele>
        <time>2020-06-14T18:12:57Z</time>
      </trkpt>
      <trkpt lat="49.59549" lon="-1.76239">
        <ele>93.2</ele>
        <time>2020-06-14T18:12:58Z</time>
      </trkpt>
      <trkpt lat="49.5955" lon="-1.76228">
        <ele>93.1</ele>
        <time>2020-06-14T18:12:59Z</time>
      </trkpt>
      <trkpt lat="49.59551" lon="-1.76218">
        <ele>92.9</ele>
        <time>2020-06-14T18:13:00Z</time>
      </trkpt>
      <trkpt lat="49.5955" lon="-1.76208">
        <ele>92.8</ele>
        <time>2020-06-14T18:13:01Z</time>
      </trkpt>
      <trkpt lat="49.59548" lon="-1.76199">
        <ele>92.6</ele>
        <time>2020-06-14T18:13:02Z</time>
      </trkpt>
      <trkpt lat="49.59547" lon="-1.76189">
        <ele>92.4</ele>
        <time>2020-06-14T18:13:03Z</time>
      </trkpt>
      <trkpt lat="49.59547" lon="-1.76179">
        <ele>92.3</ele>
        <time>2020-06-14T18:13:04Z</time>
      </trkpt>
      <trkpt lat="49.59548" lon="-1.76169">
        <ele>92.1</ele>
        <time>2020-06-14T18:13:05Z</time>
      </trkpt>
      <trkpt lat="49.59549" lon="-1.76159">
        <ele>91.9</ele>
        <time>2020-06-14T18:13:06Z</time>
      </trkpt>
      <trkpt lat="49.5955" lon="-1.76149">
        <ele>91.7</ele>
        <time>2020-06-14T18:13:07Z</time>
      </trkpt>
      <trkpt lat="49.59551" lon="-1.76139">
        <ele>91.6</ele>
        <time>2020-06-14T18:13:08Z</time>
      </trkpt>
      <trkpt lat="49.59551" lon="-1.76129">
        <ele>91.4</ele>
        <time>2020-06-14T18:13:09Z</time>
      </trkpt>
      <trkpt lat="49.59552" lon="-1.76119">
        <ele>91.3</ele>
        <time>2020-06-14T18:13:10Z</time>
      </trkpt>
      <trkpt lat="49.59553" lon="-1.7611">
        <ele>91.1</ele>
        <time>2020-06-14T18:13:11Z</time>
      </trkpt>
      <trkpt lat="49.59554" lon="-1.761">
        <ele>90.9</ele>
        <time>2020-06-14T18:13:12Z</time>
      </trkpt>
      <trkpt lat="49.59555" lon="-1.76091">
        <ele>90.8</ele>
        <time>2020-06-14T18:13:13Z</time>
      </trkpt>
      <trkpt lat="49.59556" lon="-1.76081">
        <ele>90.6</ele>
        <time>2020-06-14T18:13:14Z</time>
      </trkpt>
      <trkpt lat="49.59557" lon="-1.76072">
        <ele>90.4</ele>
        <time>2020-06-14T18:13:15Z</time>
      </trkpt>
      <trkpt lat="49.59559" lon="-1.76062">
        <ele>90.2</ele>
        <time>2020-06-14T18:13:16Z</time>
      </trkpt>
      <trkpt lat="49.5956" lon="-1.76052">
        <ele>90</ele>
        <time>2020-06-14T18:13:17Z</time>
      </trkpt>
      <trkpt lat="49.59562" lon="-1.76042">
        <ele>89.9</ele>
        <time>2020-06-14T18:13:18Z</time>
      </trkpt>
      <trkpt lat="49.59563" lon="-1.76033">
        <ele>89.7</ele>
        <time>2020-06-14T18:13:19Z</time>
      </trkpt>
      <trkpt lat="49.59564" lon="-1.76023">
        <ele>89.5</ele>
        <time>2020-06-14T18:13:20Z</time>
      </trkpt>
      <trkpt lat="49.59566" lon="-1.76013">
        <ele>89.3</ele>
        <time>2020-06-14T18:13:21Z</time>
      </trkpt>
      <trkpt lat="49.59568" lon="-1.76004">
        <ele>89.1</ele>
        <time>2020-06-14T18:13:22Z</time>
      </trkpt>
      <trkpt lat="49.59571" lon="-1.75994">
        <ele>88.8</ele>
        <time>2020-06-14T18:13:23Z</time>
      </trkpt>
      <trkpt lat="49.59573" lon="-1.75985">
        <ele>88.6</ele>
        <time>2020-06-14T18:13:24Z</time>
      </trkpt>
      <trkpt lat="49.59576" lon="-1.75975">
        <ele>88.3</ele>
        <time>2020-06-14T18:13:25Z</time>
      </trkpt>
      <trkpt lat="49.59578" lon="-1.75965">
        <ele>88</ele>
        <time>2020-06-14T18:13:26Z</time>
      </trkpt>
      <trkpt lat="49.59581" lon="-1.75955">
        <ele>87.6</ele>
        <time>2020-06-14T18:13:27Z</time>
      </trkpt>
      <trkpt lat="49.59584" lon="-1.75945">
        <ele>87.3</ele>
        <time>2020-06-14T18:13:28Z</time>
      </trkpt>
      <trkpt lat="49.59586" lon="-1.75934">
        <ele>86.9</ele>
        <time>2020-06-14T18:13:29Z</time>
      </trkpt>
      <trkpt lat="49.5959" lon="-1.75923">
        <ele>86.5</ele>
        <time>2020-06-14T18:13:30Z</time>
      </trkpt>
      <trkpt lat="49.59592" lon="-1.75912">
        <ele>86</ele>
        <time>2020-06-14T18:13:31Z</time>
      </trkpt>
      <trkpt lat="49.59595" lon="-1.75901">
        <ele>85.6</ele>
        <time>2020-06-14T18:13:32Z</time>
      </trkpt>
      <trkpt lat="49.59598" lon="-1.75889">
        <ele>85.2</ele>
        <time>2020-06-14T18:13:33Z</time>
      </trkpt>
      <trkpt lat="49.59601" lon="-1.75877">
        <ele>84.7</ele>
        <time>2020-06-14T18:13:34Z</time>
      </trkpt>
      <trkpt lat="49.59603" lon="-1.75865">
        <ele>84.3</ele>
        <time>2020-06-14T18:13:35Z</time>
      </trkpt>
      <trkpt lat="49.59606" lon="-1.75852">
        <ele>83.9</ele>
        <time>2020-06-14T18:13:36Z</time>
      </trkpt>
      <trkpt lat="49.59608" lon="-1.7584">
        <ele>83.5</ele>
        <time>2020-06-14T18:13:37Z</time>
      </trkpt>
      <trkpt lat="49.59609" lon="-1.75827">
        <ele>83.1</ele>
        <time>2020-06-14T18:13:38Z</time>
      </trkpt>
      <trkpt lat="49.59611" lon="-1.75814">
        <ele>82.8</ele>
        <time>2020-06-14T18:13:39Z</time>
      </trkpt>
      <trkpt lat="49.59612" lon="-1.75801">
        <ele>82.5</ele>
        <time>2020-06-14T18:13:40Z</time>
      </trkpt>
      <trkpt lat="49.59613" lon="-1.75788">
        <ele>82.1</ele>
        <time>2020-06-14T18:13:41Z</time>
      </trkpt>
      <trkpt lat="49.59615" lon="-1.75775">
        <ele>81.7</ele>
        <time>2020-06-14T18:13:42Z</time>
      </trkpt>
      <trkpt lat="49.59616" lon="-1.75762">
        <ele>81.3</ele>
        <time>2020-06-14T18:13:43Z</time>
      </trkpt>
      <trkpt lat="49.59616" lon="-1.7575">
        <ele>80.9</ele>
        <time>2020-06-14T18:13:44Z</time>
      </trkpt>
      <trkpt lat="49.59615" lon="-1.75737">
        <ele>80.5</ele>
        <time>2020-06-14T18:13:45Z</time>
      </trkpt>
      <trkpt lat="49.59613" lon="-1.75724">
        <ele>80.1</ele>
        <time>2020-06-14T18:13:46Z</time>
      </trkpt>
      <trkpt lat="49.59611" lon="-1.75712">
        <ele>79.6</ele>
        <time>2020-06-14T18:13:47Z</time>
      </trkpt>
      <trkpt lat="49.59609" lon="-1.75699">
        <ele>79.1</ele>
        <time>2020-06-14T18:13:48Z</time>
      </trkpt>
      <trkpt lat="49.59607" lon="-1.75686">
        <ele>78.5</ele>
        <time>2020-06-14T18:13:49Z</time>
      </trkpt>
      <trkpt lat="49.59606" lon="-1.75673">
        <ele>78</ele>
        <time>2020-06-14T18:13:50Z</time>
      </trkpt>
      <trkpt lat="49.59605" lon="-1.7566">
        <ele>77.4</ele>
        <time>2020-06-14T18:13:51Z</time>
      </trkpt>
      <trkpt lat="49.59605" lon="-1.75646">
        <ele>76.8</ele>
        <time>2020-06-14T18:13:52Z</time>
      </trkpt>
      <trkpt lat="49.59607" lon="-1.75632">
        <ele>76.2</ele>
        <time>2020-06-14T18:13:53Z</time>
      </trkpt>
      <trkpt lat="49.59609" lon="-1.75618">
        <ele>75.7</ele>
        <time>2020-06-14T18:13:54Z</time>
      </trkpt>
      <trkpt lat="49.59611" lon="-1.75605">
        <ele>75.3</ele>
        <time>2020-06-14T18:13:55Z</time>
      </trkpt>
      <trkpt lat="49.59614" lon="-1.75592">
        <ele>74.8</ele>
        <time>2020-06-14T18:13:56Z</time>
      </trkpt>
      <trkpt lat="49.59618" lon="-1.7558">
        <ele>74.4</ele>
        <time>2020-06-14T18:13:57Z</time>
      </trkpt>
      <trkpt lat="49.59623" lon="-1.75568">
        <ele>74</ele>
        <time>2020-06-14T18:13:58Z</time>
      </trkpt>
      <trkpt lat="49.59627" lon="-1.75557">
        <ele>73.6</ele>
        <time>2020-06-14T18:13:59Z</time>
      </trkpt>
      <trkpt lat="49.59632" lon="-1.75546">
        <ele>73.2</ele>
        <time>2020-06-14T18:14:00Z</time>
      </trkpt>
      <trkpt lat="49.59637" lon="-1.75535">
        <ele>73</ele>
        <time>2020-06-14T18:14:01Z</time>
      </trkpt>
      <trkpt lat="49.59643" lon="-1.75526">
        <ele>72.9</ele>
        <time>2020-06-14T18:14:02Z</time>
      </trkpt>
      <trkpt lat="49.59649" lon="-1.75517">
        <ele>72.8</ele>
        <time>2020-06-14T18:14:03Z</time>
      </trkpt>
      <trkpt lat="49.59654" lon="-1.75508">
        <ele>72.8</ele>
        <time>2020-06-14T18:14:04Z</time>
      </trkpt>
      <trkpt lat="49.59658" lon="-1.75499">
        <ele>72.8</ele>
        <time>2020-06-14T18:14:05Z</time>
      </trkpt>
      <trkpt lat="49.59663" lon="-1.7549">
        <ele>73.5</ele>
        <time>2020-06-14T18:14:06Z</time>
      </trkpt>
      <trkpt lat="49.59667" lon="-1.75481">
        <ele>73.2</ele>
        <time>2020-06-14T18:14:07Z</time>
      </trkpt>
      <trkpt lat="49.59672" lon="-1.75472">
        <ele>72.9</ele>
        <time>2020-06-14T18:14:08Z</time>
      </trkpt>
      <trkpt lat="49.59676" lon="-1.75463">
        <ele>72.7</ele>
        <time>2020-06-14T18:14:09Z</time>
      </trkpt>
      <trkpt lat="49.59681" lon="-1.75455">
        <ele>72.3</ele>
        <time>2020-06-14T18:14:10Z</time>
      </trkpt>
      <trkpt lat="49.59686" lon="-1.75446">
        <ele>72.2</ele>
        <time>2020-06-14T18:14:11Z</time>
      </trkpt>
      <trkpt lat="49.59691" lon="-1.75438">
        <ele>72.2</ele>
        <time>2020-06-14T18:14:12Z</time>
      </trkpt>
      <trkpt lat="49.59695" lon="-1.75431">
        <ele>72.2</ele>
        <time>2020-06-14T18:14:13Z</time>
      </trkpt>
      <trkpt lat="49.597" lon="-1.75424">
        <ele>72.3</ele>
        <time>2020-06-14T18:14:14Z</time>
      </trkpt>
      <trkpt lat="49.59705" lon="-1.75417">
        <ele>72.4</ele>
        <time>2020-06-14T18:14:15Z</time>
      </trkpt>
      <trkpt lat="49.59709" lon="-1.7541">
        <ele>72.5</ele>
        <time>2020-06-14T18:14:16Z</time>
      </trkpt>
      <trkpt lat="49.59713" lon="-1.75404">
        <ele>72.6</ele>
        <time>2020-06-14T18:14:17Z</time>
      </trkpt>
      <trkpt lat="49.59718" lon="-1.75399">
        <ele>72.8</ele>
        <time>2020-06-14T18:14:18Z</time>
      </trkpt>
      <trkpt lat="49.59723" lon="-1.75394">
        <ele>73</ele>
        <time>2020-06-14T18:14:19Z</time>
      </trkpt>
      <trkpt lat="49.59727" lon="-1.75388">
        <ele>73.1</ele>
        <time>2020-06-14T18:14:20Z</time>
      </trkpt>
      <trkpt lat="49.59732" lon="-1.75384">
        <ele>73.3</ele>
        <time>2020-06-14T18:14:21Z</time>
      </trkpt>
      <trkpt lat="49.59738" lon="-1.75381">
        <ele>73.5</ele>
        <time>2020-06-14T18:14:22Z</time>
      </trkpt>
      <trkpt lat="49.59743" lon="-1.75378">
        <ele>73.6</ele>
        <time>2020-06-14T18:14:23Z</time>
      </trkpt>
      <trkpt lat="49.59748" lon="-1.75374">
        <ele>73.7</ele>
        <time>2020-06-14T18:14:24Z</time>
      </trkpt>
      <trkpt lat="49.59752" lon="-1.75367">
        <ele>73.9</ele>
        <time>2020-06-14T18:14:25Z</time>
      </trkpt>
      <trkpt lat="49.59756" lon="-1.75361">
        <ele>74</ele>
        <time>2020-06-14T18:14:26Z</time>
      </trkpt>
      <trkpt lat="49.5976" lon="-1.75354">
        <ele>74</ele>
        <time>2020-06-14T18:14:27Z</time>
      </trkpt>
      <trkpt lat="49.59763" lon="-1.75348">
        <ele>74.1</ele>
        <time>2020-06-14T18:14:28Z</time>
      </trkpt>
      <trkpt lat="49.59766" lon="-1.75342">
        <ele>74.2</ele>
        <time>2020-06-14T18:14:29Z</time>
      </trkpt>
      <trkpt lat="49.59768" lon="-1.75333">
        <ele>74.3</ele>
        <time>2020-06-14T18:14:30Z</time>
      </trkpt>
      <trkpt lat="49.59769" lon="-1.75323">
        <ele>74.4</ele>
        <time>2020-06-14T18:14:31Z</time>
      </trkpt>
      <trkpt lat="49.5977" lon="-1.75314">
        <ele>74.5</ele>
        <time>2020-06-14T18:14:32Z</time>
      </trkpt>
      <trkpt lat="49.59772" lon="-1.75306">
        <ele>74.6</ele>
        <time>2020-06-14T18:14:33Z</time>
      </trkpt>
      <trkpt lat="49.59773" lon="-1.75298">
        <ele>74.7</ele>
        <time>2020-06-14T18:14:34Z</time>
      </trkpt>
      <trkpt lat="49.59775" lon="-1.7529">
        <ele>74.8</ele>
        <time>2020-06-14T18:14:35Z</time>
      </trkpt>
      <trkpt lat="49.59777" lon="-1.75283">
        <ele>75</ele>
        <time>2020-06-14T18:14:36Z</time>
      </trkpt>
      <trkpt lat="49.59779" lon="-1.75274">
        <ele>75.1</ele>
        <time>2020-06-14T18:14:37Z</time>
      </trkpt>
      <trkpt lat="49.5978" lon="-1.75265">
        <ele>75.2</ele>
        <time>2020-06-14T18:14:38Z</time>
      </trkpt>
      <trkpt lat="49.59782" lon="-1.75255">
        <ele>75.4</ele>
        <time>2020-06-14T18:14:39Z</time>
      </trkpt>
      <trkpt lat="49.59784" lon="-1.75245">
        <ele>75.6</ele>
        <time>2020-06-14T18:14:40Z</time>
      </trkpt>
      <trkpt lat="49.59786" lon="-1.7524">
        <ele>75.7</ele>
        <time>2020-06-14T18:14:41Z</time>
      </trkpt>
      <trkpt lat="49.59788" lon="-1.75234">
        <ele>75.9</ele>
        <time>2020-06-14T18:14:42Z</time>
      </trkpt>
      <trkpt lat="49.59789" lon="-1.75227">
        <ele>76</ele>
        <time>2020-06-14T18:14:43Z</time>
      </trkpt>
      <trkpt lat="49.5979" lon="-1.75219">
        <ele>76.2</ele>
        <time>2020-06-14T18:14:44Z</time>
      </trkpt>
      <trkpt lat="49.59791" lon="-1.7521">
        <ele>76.3</ele>
        <time>2020-06-14T18:14:45Z</time>
      </trkpt>
      <trkpt lat="49.59792" lon="-1.75201">
        <ele>76.5</ele>
        <time>2020-06-14T18:14:46Z</time>
      </trkpt>
      <trkpt lat="49.59793" lon="-1.75193">
        <ele>76.6</ele>
        <time>2020-06-14T18:14:47Z</time>
      </trkpt>
      <trkpt lat="49.59794" lon="-1.75184">
        <ele>76.8</ele>
        <time>2020-06-14T18:14:48Z</time>
      </trkpt>
      <trkpt lat="49.59795" lon="-1.75176">
        <ele>76.9</ele>
        <time>2020-06-14T18:14:49Z</time>
      </trkpt>
      <trkpt lat="49.59796" lon="-1.75168">
        <ele>77.1</ele>
        <time>2020-06-14T18:14:50Z</time>
      </trkpt>
      <trkpt lat="49.59799" lon="-1.7516">
        <ele>77.2</ele>
        <time>2020-06-14T18:14:51Z</time>
      </trkpt>
      <trkpt lat="49.59801" lon="-1.75152">
        <ele>77.4</ele>
        <time>2020-06-14T18:14:52Z</time>
      </trkpt>
      <trkpt lat="49.59802" lon="-1.75144">
        <ele>77.6</ele>
        <time>2020-06-14T18:14:53Z</time>
      </trkpt>
      <trkpt lat="49.59804" lon="-1.75136">
        <ele>77.8</ele>
        <time>2020-06-14T18:14:54Z</time>
      </trkpt>
      <trkpt lat="49.59805" lon="-1.7513">
        <ele>77.9</ele>
        <time>2020-06-14T18:14:55Z</time>
      </trkpt>
      <trkpt lat="49.59807" lon="-1.75122">
        <ele>78</ele>
        <time>2020-06-14T18:14:56Z</time>
      </trkpt>
      <trkpt lat="49.59808" lon="-1.75114">
        <ele>78.1</ele>
        <time>2020-06-14T18:14:57Z</time>
      </trkpt>
      <trkpt lat="49.59809" lon="-1.75104">
        <ele>78.3</ele>
        <time>2020-06-14T18:14:58Z</time>
      </trkpt>
      <trkpt lat="49.5981" lon="-1.75097">
        <ele>78.5</ele>
        <time>2020-06-14T18:14:59Z</time>
      </trkpt>
      <trkpt lat="49.59812" lon="-1.75091">
        <ele>78.6</ele>
        <time>2020-06-14T18:15:00Z</time>
      </trkpt>
      <trkpt lat="49.59813" lon="-1.75083">
        <ele>78.8</ele>
        <time>2020-06-14T18:15:01Z</time>
      </trkpt>
      <trkpt lat="49.59815" lon="-1.75075">
        <ele>79</ele>
        <time>2020-06-14T18:15:02Z</time>
      </trkpt>
      <trkpt lat="49.59815" lon="-1.75067">
        <ele>79.1</ele>
        <time>2020-06-14T18:15:03Z</time>
      </trkpt>
      <trkpt lat="49.59815" lon="-1.7506">
        <ele>79.2</ele>
        <time>2020-06-14T18:15:04Z</time>
      </trkpt>
      <trkpt lat="49.59815" lon="-1.75052">
        <ele>79.3</ele>
        <time>2020-06-14T18:15:05Z</time>
      </trkpt>
      <trkpt lat="49.59815" lon="-1.75044">
        <ele>79.4</ele>
        <time>2020-06-14T18:15:06Z</time>
      </trkpt>
      <trkpt lat="49.59817" lon="-1.75036">
        <ele>79.6</ele>
        <time>2020-06-14T18:15:07Z</time>
      </trkpt>
      <trkpt lat="49.59819" lon="-1.7503">
        <ele>79.7</ele>
        <time>2020-06-14T18:15:08Z</time>
      </trkpt>
      <trkpt lat="49.5982" lon="-1.75022">
        <ele>79.8</ele>
        <time>2020-06-14T18:15:09Z</time>
      </trkpt>
      <trkpt lat="49.59822" lon="-1.75014">
        <ele>80</ele>
        <time>2020-06-14T18:15:10Z</time>
      </trkpt>
      <trkpt lat="49.59824" lon="-1.75003">
        <ele>80.2</ele>
        <time>2020-06-14T18:15:11Z</time>
      </trkpt>
      <trkpt lat="49.59824" lon="-1.74995">
        <ele>80.4</ele>
        <time>2020-06-14T18:15:12Z</time>
      </trkpt>
      <trkpt lat="49.59826" lon="-1.74986">
        <ele>80.6</ele>
        <time>2020-06-14T18:15:13Z</time>
      </trkpt>
      <trkpt lat="49.59828" lon="-1.74977">
        <ele>80.8</ele>
        <time>2020-06-14T18:15:14Z</time>
      </trkpt>
      <trkpt lat="49.5983" lon="-1.74969">
        <ele>80.9</ele>
        <time>2020-06-14T18:15:15Z</time>
      </trkpt>
      <trkpt lat="49.59833" lon="-1.7496">
        <ele>81.1</ele>
        <time>2020-06-14T18:15:16Z</time>
      </trkpt>
      <trkpt lat="49.59837" lon="-1.74952">
        <ele>81.3</ele>
        <time>2020-06-14T18:15:17Z</time>
      </trkpt>
      <trkpt lat="49.5984" lon="-1.74945">
        <ele>81.5</ele>
        <time>2020-06-14T18:15:18Z</time>
      </trkpt>
      <trkpt lat="49.59843" lon="-1.74939">
        <ele>81.6</ele>
        <time>2020-06-14T18:15:19Z</time>
      </trkpt>
      <trkpt lat="49.59847" lon="-1.74932">
        <ele>81.8</ele>
        <time>2020-06-14T18:15:20Z</time>
      </trkpt>
      <trkpt lat="49.59849" lon="-1.74925">
        <ele>81.9</ele>
        <time>2020-06-14T18:15:21Z</time>
      </trkpt>
      <trkpt lat="49.59851" lon="-1.7492">
        <ele>82</ele>
        <time>2020-06-14T18:15:22Z</time>
      </trkpt>
      <trkpt lat="49.59854" lon="-1.74916">
        <ele>82.2</ele>
        <time>2020-06-14T18:15:23Z</time>
      </trkpt>
      <trkpt lat="49.59857" lon="-1.74909">
        <ele>82.4</ele>
        <time>2020-06-14T18:15:24Z</time>
      </trkpt>
      <trkpt lat="49.59861" lon="-1.74903">
        <ele>82.6</ele>
        <time>2020-06-14T18:15:25Z</time>
      </trkpt>
      <trkpt lat="49.59864" lon="-1.74899">
        <ele>82.7</ele>
        <time>2020-06-14T18:15:26Z</time>
      </trkpt>
      <trkpt lat="49.59866" lon="-1.74894">
        <ele>82.8</ele>
        <time>2020-06-14T18:15:27Z</time>
      </trkpt>
      <trkpt lat="49.5987" lon="-1.7489">
        <ele>83</ele>
        <time>2020-06-14T18:15:28Z</time>
      </trkpt>
      <trkpt lat="49.59873" lon="-1.74884">
        <ele>83.2</ele>
        <time>2020-06-14T18:15:29Z</time>
      </trkpt>
      <trkpt lat="49.59877" lon="-1.74878">
        <ele>83.4</ele>
        <time>2020-06-14T18:15:30Z</time>
      </trkpt>
      <trkpt lat="49.5988" lon="-1.74872">
        <ele>83.6</ele>
        <time>2020-06-14T18:15:31Z</time>
      </trkpt>
      <trkpt lat="49.59885" lon="-1.74866">
        <ele>83.8</ele>
        <time>2020-06-14T18:15:32Z</time>
      </trkpt>
      <trkpt lat="49.59888" lon="-1.7486">
        <ele>84</ele>
        <time>2020-06-14T18:15:33Z</time>
      </trkpt>
      <trkpt lat="49.59891" lon="-1.74855">
        <ele>84.1</ele>
        <time>2020-06-14T18:15:34Z</time>
      </trkpt>
      <trkpt lat="49.59893" lon="-1.74849">
        <ele>84.3</ele>
        <time>2020-06-14T18:15:35Z</time>
      </trkpt>
      <trkpt lat="49.59897" lon="-1.74841">
        <ele>84.5</ele>
        <time>2020-06-14T18:15:36Z</time>
      </trkpt>
      <trkpt lat="49.59901" lon="-1.74835">
        <ele>84.7</ele>
        <time>2020-06-14T18:15:37Z</time>
      </trkpt>
      <trkpt lat="49.59904" lon="-1.74829">
        <ele>84.9</ele>
        <time>2020-06-14T18:15:38Z</time>
      </trkpt>
      <trkpt lat="49.59907" lon="-1.74824">
        <ele>85.1</ele>
        <time>2020-06-14T18:15:39Z</time>
      </trkpt>
      <trkpt lat="49.59908" lon="-1.74819">
        <ele>85.2</ele>
        <time>2020-06-14T18:15:40Z</time>
      </trkpt>
      <trkpt lat="49.59911" lon="-1.74814">
        <ele>85.3</ele>
        <time>2020-06-14T18:15:41Z</time>
      </trkpt>
      <trkpt lat="49.59913" lon="-1.74809">
        <ele>85.5</ele>
        <time>2020-06-14T18:15:42Z</time>
      </trkpt>
      <trkpt lat="49.59916" lon="-1.74804">
        <ele>85.7</ele>
        <time>2020-06-14T18:15:43Z</time>
      </trkpt>
      <trkpt lat="49.59921" lon="-1.74798">
        <ele>86</ele>
        <time>2020-06-14T18:15:44Z</time>
      </trkpt>
      <trkpt lat="49.59926" lon="-1.74793">
        <ele>86.2</ele>
        <time>2020-06-14T18:15:45Z</time>
      </trkpt>
      <trkpt lat="49.59931" lon="-1.74789">
        <ele>86.5</ele>
        <time>2020-06-14T18:15:46Z</time>
      </trkpt>
      <trkpt lat="49.59935" lon="-1.74785">
        <ele>86.7</ele>
        <time>2020-06-14T18:15:47Z</time>
      </trkpt>
      <trkpt lat="49.59938" lon="-1.74781">
        <ele>86.9</ele>
        <time>2020-06-14T18:15:48Z</time>
      </trkpt>
      <trkpt lat="49.59941" lon="-1.74776">
        <ele>87.2</ele>
        <time>2020-06-14T18:15:49Z</time>
      </trkpt>
      <trkpt lat="49.59945" lon="-1.74773">
        <ele>87.4</ele>
        <time>2020-06-14T18:15:50Z</time>
      </trkpt>
      <trkpt lat="49.59949" lon="-1.7477">
        <ele>87.6</ele>
        <time>2020-06-14T18:15:51Z</time>
      </trkpt>
      <trkpt lat="49.59952" lon="-1.74765">
        <ele>87.8</ele>
        <time>2020-06-14T18:15:52Z</time>
      </trkpt>
      <trkpt lat="49.59954" lon="-1.74762">
        <ele>88</ele>
        <time>2020-06-14T18:15:53Z</time>
      </trkpt>
      <trkpt lat="49.59959" lon="-1.74755">
        <ele>88.3</ele>
        <time>2020-06-14T18:15:54Z</time>
      </trkpt>
      <trkpt lat="49.59963" lon="-1.74751">
        <ele>88.6</ele>
        <time>2020-06-14T18:15:55Z</time>
      </trkpt>
      <trkpt lat="49.59966" lon="-1.74747">
        <ele>88.8</ele>
        <time>2020-06-14T18:15:56Z</time>
      </trkpt>
      <trkpt lat="49.59969" lon="-1.74744">
        <ele>88.9</ele>
        <time>2020-06-14T18:15:57Z</time>
      </trkpt>
      <trkpt lat="49.59974" lon="-1.7474">
        <ele>89.2</ele>
        <time>2020-06-14T18:15:58Z</time>
      </trkpt>
      <trkpt lat="49.59977" lon="-1.74737">
        <ele>89.4</ele>
        <time>2020-06-14T18:15:59Z</time>
      </trkpt>
      <trkpt lat="49.59978" lon="-1.74736">
        <ele>89.5</ele>
        <time>2020-06-14T18:16:00Z</time>
      </trkpt>
      <trkpt lat="49.5998" lon="-1.74733">
        <ele>89.6</ele>
        <time>2020-06-14T18:16:01Z</time>
      </trkpt>
      <trkpt lat="49.59982" lon="-1.74729">
        <ele>89.8</ele>
        <time>2020-06-14T18:16:02Z</time>
      </trkpt>
      <trkpt lat="49.59984" lon="-1.74724">
        <ele>90</ele>
        <time>2020-06-14T18:16:03Z</time>
      </trkpt>
      <trkpt lat="49.59988" lon="-1.74721">
        <ele>90.2</ele>
        <time>2020-06-14T18:16:04Z</time>
      </trkpt>
      <trkpt lat="49.5999" lon="-1.74718">
        <ele>90.5</ele>
        <time>2020-06-14T18:16:05Z</time>
      </trkpt>
      <trkpt lat="49.59993" lon="-1.74715">
        <ele>90.6</ele>
        <time>2020-06-14T18:16:06Z</time>
      </trkpt>
      <trkpt lat="49.59995" lon="-1.74711">
        <ele>90.9</ele>
        <time>2020-06-14T18:16:07Z</time>
      </trkpt>
      <trkpt lat="49.59997" lon="-1.74707">
        <ele>91.1</ele>
        <time>2020-06-14T18:16:08Z</time>
      </trkpt>
      <trkpt lat="49.6" lon="-1.74704">
        <ele>91.3</ele>
        <time>2020-06-14T18:16:09Z</time>
      </trkpt>
      <trkpt lat="49.60004" lon="-1.747">
        <ele>91.5</ele>
        <time>2020-06-14T18:16:10Z</time>
      </trkpt>
      <trkpt lat="49.60007" lon="-1.74696">
        <ele>91.8</ele>
        <time>2020-06-14T18:16:11Z</time>
      </trkpt>
      <trkpt lat="49.60011" lon="-1.7469">
        <ele>92.1</ele>
        <time>2020-06-14T18:16:12Z</time>
      </trkpt>
      <trkpt lat="49.60015" lon="-1.74685">
        <ele>92.4</ele>
        <time>2020-06-14T18:16:13Z</time>
      </trkpt>
      <trkpt lat="49.60018" lon="-1.7468">
        <ele>92.7</ele>
        <time>2020-06-14T18:16:14Z</time>
      </trkpt>
      <trkpt lat="49.6002" lon="-1.74676">
        <ele>92.8</ele>
        <time>2020-06-14T18:16:15Z</time>
      </trkpt>
      <trkpt lat="49.60022" lon="-1.74671">
        <ele>93.1</ele>
        <time>2020-06-14T18:16:16Z</time>
      </trkpt>
      <trkpt lat="49.60024" lon="-1.74668">
        <ele>93.3</ele>
        <time>2020-06-14T18:16:17Z</time>
      </trkpt>
      <trkpt lat="49.60025" lon="-1.74664">
        <ele>93.4</ele>
        <time>2020-06-14T18:16:18Z</time>
      </trkpt>
      <trkpt lat="49.60028" lon="-1.74659">
        <ele>93.7</ele>
        <time>2020-06-14T18:16:19Z</time>
      </trkpt>
      <trkpt lat="49.60031" lon="-1.74653">
        <ele>93.9</ele>
        <time>2020-06-14T18:16:20Z</time>
      </trkpt>
      <trkpt lat="49.60033" lon="-1.74648">
        <ele>94.1</ele>
        <time>2020-06-14T18:16:21Z</time>
      </trkpt>
      <trkpt lat="49.60035" lon="-1.74642">
        <ele>94.4</ele>
        <time>2020-06-14T18:16:22Z</time>
      </trkpt>
      <trkpt lat="49.60038" lon="-1.74637">
        <ele>94.6</ele>
        <time>2020-06-14T18:16:23Z</time>
      </trkpt>
      <trkpt lat="49.60041" lon="-1.74631">
        <ele>94.9</ele>
        <time>2020-06-14T18:16:24Z</time>
      </trkpt>
      <trkpt lat="49.60044" lon="-1.74625">
        <ele>95.1</ele>
        <time>2020-06-14T18:16:25Z</time>
      </trkpt>
      <trkpt lat="49.60046" lon="-1.7462">
        <ele>95.3</ele>
        <time>2020-06-14T18:16:26Z</time>
      </trkpt>
      <trkpt lat="49.60048" lon="-1.74614">
        <ele>95.5</ele>
        <time>2020-06-14T18:16:27Z</time>
      </trkpt>
      <trkpt lat="49.6005" lon="-1.74609">
        <ele>95.7</ele>
        <time>2020-06-14T18:16:28Z</time>
      </trkpt>
      <trkpt lat="49.60051" lon="-1.74603">
        <ele>96</ele>
        <time>2020-06-14T18:16:29Z</time>
      </trkpt>
      <trkpt lat="49.60053" lon="-1.74598">
        <ele>96.2</ele>
        <time>2020-06-14T18:16:30Z</time>
      </trkpt>
      <trkpt lat="49.60055" lon="-1.74593">
        <ele>96.3</ele>
        <time>2020-06-14T18:16:31Z</time>
      </trkpt>
      <trkpt lat="49.60056" lon="-1.74587">
        <ele>96.5</ele>
        <time>2020-06-14T18:16:32Z</time>
      </trkpt>
      <trkpt lat="49.60058" lon="-1.74582">
        <ele>96.7</ele>
        <time>2020-06-14T18:16:33Z</time>
      </trkpt>
      <trkpt lat="49.60059" lon="-1.74578">
        <ele>96.8</ele>
        <time>2020-06-14T18:16:34Z</time>
      </trkpt>
      <trkpt lat="49.6006" lon="-1.74574">
        <ele>97</ele>
        <time>2020-06-14T18:16:35Z</time>
      </trkpt>
      <trkpt lat="49.60062" lon="-1.74568">
        <ele>97.2</ele>
        <time>2020-06-14T18:16:36Z</time>
      </trkpt>
      <trkpt lat="49.60062" lon="-1.74564">
        <ele>97.3</ele>
        <time>2020-06-14T18:16:37Z</time>
      </trkpt>
      <trkpt lat="49.60064" lon="-1.74559">
        <ele>97.4</ele>
        <time>2020-06-14T18:16:38Z</time>
      </trkpt>
      <trkpt lat="49.60065" lon="-1.74553">
        <ele>97.7</ele>
        <time>2020-06-14T18:16:39Z</time>
      </trkpt>
      <trkpt lat="49.60067" lon="-1.74548">
        <ele>97.8</ele>
        <time>2020-06-14T18:16:40Z</time>
      </trkpt>
      <trkpt lat="49.60069" lon="-1.74542">
        <ele>98</ele>
        <time>2020-06-14T18:16:41Z</time>
      </trkpt>
      <trkpt lat="49.60071" lon="-1.74537">
        <ele>98.2</ele>
        <time>2020-06-14T18:16:42Z</time>
      </trkpt>
      <trkpt lat="49.60072" lon="-1.74532">
        <ele>98.3</ele>
        <time>2020-06-14T18:16:43Z</time>
      </trkpt>
      <trkpt lat="49.60074" lon="-1.74528">
        <ele>98.5</ele>
        <time>2020-06-14T18:16:44Z</time>
      </trkpt>
      <trkpt lat="49.60076" lon="-1.74522">
        <ele>98.6</ele>
        <time>2020-06-14T18:16:45Z</time>
      </trkpt>
      <trkpt lat="49.60079" lon="-1.74516">
        <ele>98.8</ele>
        <time>2020-06-14T18:16:46Z</time>
      </trkpt>
      <trkpt lat="49.60081" lon="-1.7451">
        <ele>99</ele>
        <time>2020-06-14T18:16:47Z</time>
      </trkpt>
      <trkpt lat="49.60084" lon="-1.74506">
        <ele>99.1</ele>
        <time>2020-06-14T18:16:48Z</time>
      </trkpt>
      <trkpt lat="49.60086" lon="-1.745">
        <ele>99.3</ele>
        <time>2020-06-14T18:16:49Z</time>
      </trkpt>
      <trkpt lat="49.60088" lon="-1.74495">
        <ele>99.4</ele>
        <time>2020-06-14T18:16:50Z</time>
      </trkpt>
      <trkpt lat="49.60089" lon="-1.7449">
        <ele>99.6</ele>
        <time>2020-06-14T18:16:51Z</time>
      </trkpt>
      <trkpt lat="49.60091" lon="-1.74484">
        <ele>99.7</ele>
        <time>2020-06-14T18:16:52Z</time>
      </trkpt>
      <trkpt lat="49.60092" lon="-1.74479">
        <ele>99.8</ele>
        <time>2020-06-14T18:16:53Z</time>
      </trkpt>
      <trkpt lat="49.60094" lon="-1.74472">
        <ele>99.9</ele>
        <time>2020-06-14T18:16:54Z</time>
      </trkpt>
      <trkpt lat="49.60094" lon="-1.7447">
        <ele>100</ele>
        <time>2020-06-14T18:16:55Z</time>
      </trkpt>
      <trkpt lat="49.60096" lon="-1.74465">
        <ele>100</ele>
        <time>2020-06-14T18:16:56Z</time>
      </trkpt>
      <trkpt lat="49.60098" lon="-1.7446">
        <ele>100.1</ele>
        <time>2020-06-14T18:16:57Z</time>
      </trkpt>
      <trkpt lat="49.601" lon="-1.74454">
        <ele>100.2</ele>
        <time>2020-06-14T18:16:58Z</time>
      </trkpt>
      <trkpt lat="49.60102" lon="-1.74448">
        <ele>100.3</ele>
        <time>2020-06-14T18:16:59Z</time>
      </trkpt>
      <trkpt lat="49.60104" lon="-1.74442">
        <ele>100.4</ele>
        <time>2020-06-14T18:17:00Z</time>
      </trkpt>
      <trkpt lat="49.60105" lon="-1.74436">
        <ele>100.6</ele>
        <time>2020-06-14T18:17:01Z</time>
      </trkpt>
      <trkpt lat="49.60107" lon="-1.7443">
        <ele>100.7</ele>
        <time>2020-06-14T18:17:02Z</time>
      </trkpt>
      <trkpt lat="49.6011" lon="-1.74425">
        <ele>100.8</ele>
        <time>2020-06-14T18:17:03Z</time>
      </trkpt>
      <trkpt lat="49.60112" lon="-1.7442">
        <ele>100.9</ele>
        <time>2020-06-14T18:17:04Z</time>
      </trkpt>
      <trkpt lat="49.60114" lon="-1.74414">
        <ele>101</ele>
        <time>2020-06-14T18:17:05Z</time>
      </trkpt>
      <trkpt lat="49.60115" lon="-1.7441">
        <ele>101</ele>
        <time>2020-06-14T18:17:06Z</time>
      </trkpt>
      <trkpt lat="49.60117" lon="-1.74405">
        <ele>101.1</ele>
        <time>2020-06-14T18:17:07Z</time>
      </trkpt>
      <trkpt lat="49.60119" lon="-1.744">
        <ele>101.2</ele>
        <time>2020-06-14T18:17:08Z</time>
      </trkpt>
      <trkpt lat="49.60121" lon="-1.74395">
        <ele>101.3</ele>
        <time>2020-06-14T18:17:09Z</time>
      </trkpt>
      <trkpt lat="49.60122" lon="-1.74389">
        <ele>101.3</ele>
        <time>2020-06-14T18:17:10Z</time>
      </trkpt>
      <trkpt lat="49.60123" lon="-1.74383">
        <ele>101.4</ele>
        <time>2020-06-14T18:17:11Z</time>
      </trkpt>
      <trkpt lat="49.60125" lon="-1.74378">
        <ele>101.5</ele>
        <time>2020-06-14T18:17:12Z</time>
      </trkpt>
      <trkpt lat="49.60129" lon="-1.74371">
        <ele>101.6</ele>
        <time>2020-06-14T18:17:13Z</time>
      </trkpt>
      <trkpt lat="49.60131" lon="-1.74365">
        <ele>101.7</ele>
        <time>2020-06-14T18:17:14Z</time>
      </trkpt>
      <trkpt lat="49.60134" lon="-1.7436">
        <ele>101.8</ele>
        <time>2020-06-14T18:17:15Z</time>
      </trkpt>
      <trkpt lat="49.60137" lon="-1.74354">
        <ele>101.9</ele>
        <time>2020-06-14T18:17:16Z</time>
      </trkpt>
      <trkpt lat="49.6014" lon="-1.74348">
        <ele>102</ele>
        <time>2020-06-14T18:17:17Z</time>
      </trkpt>
      <trkpt lat="49.60142" lon="-1.74343">
        <ele>102.1</ele>
        <time>2020-06-14T18:17:18Z</time>
      </trkpt>
      <trkpt lat="49.60144" lon="-1.74338">
        <ele>102.1</ele>
        <time>2020-06-14T18:17:19Z</time>
      </trkpt>
      <trkpt lat="49.60146" lon="-1.74332">
        <ele>102.2</ele>
        <time>2020-06-14T18:17:20Z</time>
      </trkpt>
      <trkpt lat="49.60149" lon="-1.74326">
        <ele>102.4</ele>
        <time>2020-06-14T18:17:21Z</time>
      </trkpt>
      <trkpt lat="49.60152" lon="-1.74319">
        <ele>102.5</ele>
        <time>2020-06-14T18:17:22Z</time>
      </trkpt>
      <trkpt lat="49.60155" lon="-1.74313">
        <ele>102.7</ele>
        <time>2020-06-14T18:17:23Z</time>
      </trkpt>
      <trkpt lat="49.60158" lon="-1.74307">
        <ele>102.8</ele>
        <time>2020-06-14T18:17:24Z</time>
      </trkpt>
      <trkpt lat="49.60161" lon="-1.74302">
        <ele>102.9</ele>
        <time>2020-06-14T18:17:25Z</time>
      </trkpt>
      <trkpt lat="49.60164" lon="-1.74297">
        <ele>103</ele>
        <time>2020-06-14T18:17:26Z</time>
      </trkpt>
      <trkpt lat="49.60167" lon="-1.74293">
        <ele>103.1</ele>
        <time>2020-06-14T18:17:27Z</time>
      </trkpt>
      <trkpt lat="49.6017" lon="-1.74288">
        <ele>103.3</ele>
        <time>2020-06-14T18:17:28Z</time>
      </trkpt>
      <trkpt lat="49.60171" lon="-1.74286">
        <ele>103.3</ele>
        <time>2020-06-14T18:17:29Z</time>
      </trkpt>
      <trkpt lat="49.60174" lon="-1.7428">
        <ele>103.4</ele>
        <time>2020-06-14T18:17:30Z</time>
      </trkpt>
      <trkpt lat="49.60177" lon="-1.74274">
        <ele>103.5</ele>
        <time>2020-06-14T18:17:31Z</time>
      </trkpt>
      <trkpt lat="49.6018" lon="-1.74271">
        <ele>103.6</ele>
        <time>2020-06-14T18:17:32Z</time>
      </trkpt>
      <trkpt lat="49.60183" lon="-1.74265">
        <ele>103.8</ele>
        <time>2020-06-14T18:17:33Z</time>
      </trkpt>
      <trkpt lat="49.60185" lon="-1.74256">
        <ele>103.9</ele>
        <time>2020-06-14T18:17:34Z</time>
      </trkpt>
      <trkpt lat="49.60188" lon="-1.74249">
        <ele>104</ele>
        <time>2020-06-14T18:17:35Z</time>
      </trkpt>
      <trkpt lat="49.60191" lon="-1.74243">
        <ele>104.1</ele>
        <time>2020-06-14T18:17:36Z</time>
      </trkpt>
      <trkpt lat="49.60193" lon="-1.74237">
        <ele>104.1</ele>
        <time>2020-06-14T18:17:37Z</time>
      </trkpt>
      <trkpt lat="49.60196" lon="-1.7423">
        <ele>104.2</ele>
        <time>2020-06-14T18:17:38Z</time>
      </trkpt>
      <trkpt lat="49.60199" lon="-1.74223">
        <ele>104.4</ele>
        <time>2020-06-14T18:17:39Z</time>
      </trkpt>
      <trkpt lat="49.60201" lon="-1.74215">
        <ele>104.5</ele>
        <time>2020-06-14T18:17:40Z</time>
      </trkpt>
      <trkpt lat="49.60204" lon="-1.74208">
        <ele>104.6</ele>
        <time>2020-06-14T18:17:41Z</time>
      </trkpt>
      <trkpt lat="49.60205" lon="-1.74202">
        <ele>104.7</ele>
        <time>2020-06-14T18:17:42Z</time>
      </trkpt>
      <trkpt lat="49.60208" lon="-1.74197">
        <ele>104.7</ele>
        <time>2020-06-14T18:17:43Z</time>
      </trkpt>
      <trkpt lat="49.6021" lon="-1.7419">
        <ele>104.8</ele>
        <time>2020-06-14T18:17:44Z</time>
      </trkpt>
      <trkpt lat="49.60212" lon="-1.74184">
        <ele>104.8</ele>
        <time>2020-06-14T18:17:45Z</time>
      </trkpt>
      <trkpt lat="49.60214" lon="-1.74177">
        <ele>104.9</ele>
        <time>2020-06-14T18:17:46Z</time>
      </trkpt>
      <trkpt lat="49.60216" lon="-1.7417">
        <ele>104.9</ele>
        <time>2020-06-14T18:17:47Z</time>
      </trkpt>
      <trkpt lat="49.60218" lon="-1.74162">
        <ele>105</ele>
        <time>2020-06-14T18:17:48Z</time>
      </trkpt>
      <trkpt lat="49.60221" lon="-1.74155">
        <ele>105.1</ele>
        <time>2020-06-14T18:17:49Z</time>
      </trkpt>
      <trkpt lat="49.60225" lon="-1.74148">
        <ele>105.3</ele>
        <time>2020-06-14T18:17:50Z</time>
      </trkpt>
      <trkpt lat="49.60228" lon="-1.74141">
        <ele>105.5</ele>
        <time>2020-06-14T18:17:51Z</time>
      </trkpt>
      <trkpt lat="49.6023" lon="-1.74135">
        <ele>105.6</ele>
        <time>2020-06-14T18:17:52Z</time>
      </trkpt>
      <trkpt lat="49.60233" lon="-1.74129">
        <ele>105.7</ele>
        <time>2020-06-14T18:17:53Z</time>
      </trkpt>
      <trkpt lat="49.60236" lon="-1.74123">
        <ele>105.8</ele>
        <time>2020-06-14T18:17:54Z</time>
      </trkpt>
      <trkpt lat="49.60237" lon="-1.74117">
        <ele>106</ele>
        <time>2020-06-14T18:17:55Z</time>
      </trkpt>
      <trkpt lat="49.6024" lon="-1.74109">
        <ele>106.1</ele>
        <time>2020-06-14T18:17:56Z</time>
      </trkpt>
      <trkpt lat="49.60242" lon="-1.74103">
        <ele>106.2</ele>
        <time>2020-06-14T18:17:57Z</time>
      </trkpt>
      <trkpt lat="49.60244" lon="-1.74098">
        <ele>106.3</ele>
        <time>2020-06-14T18:17:58Z</time>
      </trkpt>
      <trkpt lat="49.60245" lon="-1.74092">
        <ele>106.5</ele>
        <time>2020-06-14T18:17:59Z</time>
      </trkpt>
      <trkpt lat="49.60247" lon="-1.74085">
        <ele>106.6</ele>
        <time>2020-06-14T18:18:00Z</time>
      </trkpt>
      <trkpt lat="49.60248" lon="-1.74077">
        <ele>106.7</ele>
        <time>2020-06-14T18:18:01Z</time>
      </trkpt>
      <trkpt lat="49.60249" lon="-1.7407">
        <ele>106.9</ele>
        <time>2020-06-14T18:18:02Z</time>
      </trkpt>
      <trkpt lat="49.60251" lon="-1.74063">
        <ele>107</ele>
        <time>2020-06-14T18:18:03Z</time>
      </trkpt>
      <trkpt lat="49.60253" lon="-1.74058">
        <ele>107.1</ele>
        <time>2020-06-14T18:18:04Z</time>
      </trkpt>
      <trkpt lat="49.60254" lon="-1.74051">
        <ele>107.2</ele>
        <time>2020-06-14T18:18:05Z</time>
      </trkpt>
      <trkpt lat="49.60256" lon="-1.74044">
        <ele>107.3</ele>
        <time>2020-06-14T18:18:06Z</time>
      </trkpt>
      <trkpt lat="49.60257" lon="-1.74038">
        <ele>107.5</ele>
        <time>2020-06-14T18:18:07Z</time>
      </trkpt>
      <trkpt lat="49.60258" lon="-1.74031">
        <ele>107.6</ele>
        <time>2020-06-14T18:18:08Z</time>
      </trkpt>
      <trkpt lat="49.60259" lon="-1.74024">
        <ele>107.7</ele>
        <time>2020-06-14T18:18:09Z</time>
      </trkpt>
      <trkpt lat="49.60261" lon="-1.74018">
        <ele>107.8</ele>
        <time>2020-06-14T18:18:10Z</time>
      </trkpt>
      <trkpt lat="49.60263" lon="-1.74011">
        <ele>107.9</ele>
        <time>2020-06-14T18:18:11Z</time>
      </trkpt>
      <trkpt lat="49.60265" lon="-1.74005">
        <ele>108</ele>
        <time>2020-06-14T18:18:12Z</time>
      </trkpt>
      <trkpt lat="49.60268" lon="-1.73999">
        <ele>108.2</ele>
        <time>2020-06-14T18:18:13Z</time>
      </trkpt>
      <trkpt lat="49.60271" lon="-1.73992">
        <ele>108.3</ele>
        <time>2020-06-14T18:18:14Z</time>
      </trkpt>
      <trkpt lat="49.60273" lon="-1.73985">
        <ele>108.4</ele>
        <time>2020-06-14T18:18:15Z</time>
      </trkpt>
      <trkpt lat="49.60274" lon="-1.73977">
        <ele>108.4</ele>
        <time>2020-06-14T18:18:16Z</time>
      </trkpt>
      <trkpt lat="49.60277" lon="-1.7397">
        <ele>108.5</ele>
        <time>2020-06-14T18:18:17Z</time>
      </trkpt>
      <trkpt lat="49.60279" lon="-1.73964">
        <ele>108.6</ele>
        <time>2020-06-14T18:18:18Z</time>
      </trkpt>
      <trkpt lat="49.6028" lon="-1.73958">
        <ele>108.6</ele>
        <time>2020-06-14T18:18:19Z</time>
      </trkpt>
      <trkpt lat="49.60282" lon="-1.73952">
        <ele>108.7</ele>
        <time>2020-06-14T18:18:20Z</time>
      </trkpt>
      <trkpt lat="49.60283" lon="-1.73945">
        <ele>108.8</ele>
        <time>2020-06-14T18:18:21Z</time>
      </trkpt>
      <trkpt lat="49.60286" lon="-1.73938">
        <ele>108.9</ele>
        <time>2020-06-14T18:18:22Z</time>
      </trkpt>
      <trkpt lat="49.60288" lon="-1.7393">
        <ele>109</ele>
        <time>2020-06-14T18:18:23Z</time>
      </trkpt>
      <trkpt lat="49.6029" lon="-1.73924">
        <ele>109.1</ele>
        <time>2020-06-14T18:18:24Z</time>
      </trkpt>
      <trkpt lat="49.60293" lon="-1.73916">
        <ele>109.2</ele>
        <time>2020-06-14T18:18:25Z</time>
      </trkpt>
      <trkpt lat="49.60295" lon="-1.73906">
        <ele>109.3</ele>
        <time>2020-06-14T18:18:26Z</time>
      </trkpt>
      <trkpt lat="49.60296" lon="-1.739">
        <ele>109.4</ele>
        <time>2020-06-14T18:18:27Z</time>
      </trkpt>
      <trkpt lat="49.60297" lon="-1.73894">
        <ele>109.5</ele>
        <time>2020-06-14T18:18:28Z</time>
      </trkpt>
      <trkpt lat="49.603" lon="-1.73888">
        <ele>109.5</ele>
        <time>2020-06-14T18:18:29Z</time>
      </trkpt>
      <trkpt lat="49.60302" lon="-1.73881">
        <ele>109.6</ele>
        <time>2020-06-14T18:18:30Z</time>
      </trkpt>
      <trkpt lat="49.60305" lon="-1.73874">
        <ele>109.6</ele>
        <time>2020-06-14T18:18:31Z</time>
      </trkpt>
      <trkpt lat="49.60307" lon="-1.73868">
        <ele>109.7</ele>
        <time>2020-06-14T18:18:32Z</time>
      </trkpt>
      <trkpt lat="49.60309" lon="-1.73861">
        <ele>109.7</ele>
        <time>2020-06-14T18:18:33Z</time>
      </trkpt>
      <trkpt lat="49.60312" lon="-1.73854">
        <ele>109.8</ele>
        <time>2020-06-14T18:18:34Z</time>
      </trkpt>
      <trkpt lat="49.60316" lon="-1.73847">
        <ele>109.8</ele>
        <time>2020-06-14T18:18:35Z</time>
      </trkpt>
      <trkpt lat="49.6032" lon="-1.7384">
        <ele>109.9</ele>
        <time>2020-06-14T18:18:36Z</time>
      </trkpt>
      <trkpt lat="49.60321" lon="-1.73833">
        <ele>109.9</ele>
        <time>2020-06-14T18:18:37Z</time>
      </trkpt>
      <trkpt lat="49.60323" lon="-1.73827">
        <ele>110</ele>
        <time>2020-06-14T18:18:38Z</time>
      </trkpt>
      <trkpt lat="49.60325" lon="-1.73819">
        <ele>110.1</ele>
        <time>2020-06-14T18:18:39Z</time>
      </trkpt>
      <trkpt lat="49.60329" lon="-1.73812">
        <ele>110.1</ele>
        <time>2020-06-14T18:18:40Z</time>
      </trkpt>
      <trkpt lat="49.60332" lon="-1.73805">
        <ele>110.2</ele>
        <time>2020-06-14T18:18:41Z</time>
      </trkpt>
      <trkpt lat="49.60335" lon="-1.73798">
        <ele>110.3</ele>
        <time>2020-06-14T18:18:42Z</time>
      </trkpt>
      <trkpt lat="49.60337" lon="-1.7379">
        <ele>110.3</ele>
        <time>2020-06-14T18:18:43Z</time>
      </trkpt>
      <trkpt lat="49.60339" lon="-1.73784">
        <ele>110.4</ele>
        <time>2020-06-14T18:18:44Z</time>
      </trkpt>
      <trkpt lat="49.60341" lon="-1.73777">
        <ele>110.4</ele>
        <time>2020-06-14T18:18:45Z</time>
      </trkpt>
      <trkpt lat="49.60343" lon="-1.73772">
        <ele>110.5</ele>
        <time>2020-06-14T18:18:46Z</time>
      </trkpt>
      <trkpt lat="49.60345" lon="-1.73765">
        <ele>110.5</ele>
        <time>2020-06-14T18:18:47Z</time>
      </trkpt>
      <trkpt lat="49.60346" lon="-1.73759">
        <ele>110.6</ele>
        <time>2020-06-14T18:18:48Z</time>
      </trkpt>
      <trkpt lat="49.60347" lon="-1.73752">
        <ele>110.7</ele>
        <time>2020-06-14T18:18:49Z</time>
      </trkpt>
      <trkpt lat="49.60349" lon="-1.73744">
        <ele>110.8</ele>
        <time>2020-06-14T18:18:50Z</time>
      </trkpt>
      <trkpt lat="49.6035" lon="-1.73737">
        <ele>110.8</ele>
        <time>2020-06-14T18:18:51Z</time>
      </trkpt>
      <trkpt lat="49.60352" lon="-1.73728">
        <ele>110.9</ele>
        <time>2020-06-14T18:18:52Z</time>
      </trkpt>
      <trkpt lat="49.60353" lon="-1.73721">
        <ele>110.9</ele>
        <time>2020-06-14T18:18:53Z</time>
      </trkpt>
      <trkpt lat="49.60357" lon="-1.73713">
        <ele>111</ele>
        <time>2020-06-14T18:18:54Z</time>
      </trkpt>
      <trkpt lat="49.60359" lon="-1.73705">
        <ele>111.1</ele>
        <time>2020-06-14T18:18:55Z</time>
      </trkpt>
      <trkpt lat="49.60361" lon="-1.73697">
        <ele>111.2</ele>
        <time>2020-06-14T18:18:56Z</time>
      </trkpt>
      <trkpt lat="49.60362" lon="-1.73691">
        <ele>111.3</ele>
        <time>2020-06-14T18:18:57Z</time>
      </trkpt>
      <trkpt lat="49.60363" lon="-1.73683">
        <ele>111.4</ele>
        <time>2020-06-14T18:18:58Z</time>
      </trkpt>
      <trkpt lat="49.60365" lon="-1.73677">
        <ele>111.5</ele>
        <time>2020-06-14T18:18:59Z</time>
      </trkpt>
      <trkpt lat="49.60367" lon="-1.7367">
        <ele>111.6</ele>
        <time>2020-06-14T18:19:00Z</time>
      </trkpt>
      <trkpt lat="49.60369" lon="-1.73664">
        <ele>111.7</ele>
        <time>2020-06-14T18:19:01Z</time>
      </trkpt>
      <trkpt lat="49.60371" lon="-1.73658">
        <ele>111.8</ele>
        <time>2020-06-14T18:19:02Z</time>
      </trkpt>
      <trkpt lat="49.60374" lon="-1.73651">
        <ele>112</ele>
        <time>2020-06-14T18:19:03Z</time>
      </trkpt>
      <trkpt lat="49.60377" lon="-1.73642">
        <ele>112.1</ele>
        <time>2020-06-14T18:19:04Z</time>
      </trkpt>
      <trkpt lat="49.6038" lon="-1.73635">
        <ele>112.3</ele>
        <time>2020-06-14T18:19:05Z</time>
      </trkpt>
      <trkpt lat="49.60384" lon="-1.73628">
        <ele>112.5</ele>
        <time>2020-06-14T18:19:06Z</time>
      </trkpt>
      <trkpt lat="49.60389" lon="-1.73621">
        <ele>112.7</ele>
        <time>2020-06-14T18:19:07Z</time>
      </trkpt>
      <trkpt lat="49.6039" lon="-1.73615">
        <ele>112.9</ele>
        <time>2020-06-14T18:19:08Z</time>
      </trkpt>
      <trkpt lat="49.60392" lon="-1.73607">
        <ele>113</ele>
        <time>2020-06-14T18:19:09Z</time>
      </trkpt>
      <trkpt lat="49.60395" lon="-1.736">
        <ele>113.1</ele>
        <time>2020-06-14T18:19:10Z</time>
      </trkpt>
      <trkpt lat="49.60396" lon="-1.73593">
        <ele>113.2</ele>
        <time>2020-06-14T18:19:11Z</time>
      </trkpt>
      <trkpt lat="49.60396" lon="-1.73584">
        <ele>113.3</ele>
        <time>2020-06-14T18:19:12Z</time>
      </trkpt>
      <trkpt lat="49.60395" lon="-1.73576">
        <ele>113.3</ele>
        <time>2020-06-14T18:19:13Z</time>
      </trkpt>
      <trkpt lat="49.60395" lon="-1.73569">
        <ele>113.3</ele>
        <time>2020-06-14T18:19:14Z</time>
      </trkpt>
      <trkpt lat="49.60397" lon="-1.7356">
        <ele>113.5</ele>
        <time>2020-06-14T18:19:15Z</time>
      </trkpt>
      <trkpt lat="49.604" lon="-1.73553">
        <ele>113.7</ele>
        <time>2020-06-14T18:19:16Z</time>
      </trkpt>
      <trkpt lat="49.60404" lon="-1.73547">
        <ele>113.9</ele>
        <time>2020-06-14T18:19:17Z</time>
      </trkpt>
      <trkpt lat="49.60409" lon="-1.73543">
        <ele>113.9</ele>
        <time>2020-06-14T18:19:18Z</time>
      </trkpt>
      <trkpt lat="49.60413" lon="-1.73539">
        <ele>114</ele>
        <time>2020-06-14T18:19:19Z</time>
      </trkpt>
      <trkpt lat="49.60419" lon="-1.73537">
        <ele>114</ele>
        <time>2020-06-14T18:19:20Z</time>
      </trkpt>
      <trkpt lat="49.60424" lon="-1.73533">
        <ele>114.4</ele>
        <time>2020-06-14T18:19:21Z</time>
      </trkpt>
      <trkpt lat="49.60428" lon="-1.73528">
        <ele>114.6</ele>
        <time>2020-06-14T18:19:22Z</time>
      </trkpt>
      <trkpt lat="49.60432" lon="-1.73523">
        <ele>114.7</ele>
        <time>2020-06-14T18:19:23Z</time>
      </trkpt>
      <trkpt lat="49.60436" lon="-1.73516">
        <ele>114.9</ele>
        <time>2020-06-14T18:19:24Z</time>
      </trkpt>
      <trkpt lat="49.60439" lon="-1.73508">
        <ele>115.2</ele>
        <time>2020-06-14T18:19:25Z</time>
      </trkpt>
      <trkpt lat="49.60441" lon="-1.73502">
        <ele>115.4</ele>
        <time>2020-06-14T18:19:26Z</time>
      </trkpt>
      <trkpt lat="49.60444" lon="-1.73496">
        <ele>115.6</ele>
        <time>2020-06-14T18:19:27Z</time>
      </trkpt>
      <trkpt lat="49.60446" lon="-1.7349">
        <ele>115.8</ele>
        <time>2020-06-14T18:19:28Z</time>
      </trkpt>
      <trkpt lat="49.60448" lon="-1.73484">
        <ele>116</ele>
        <time>2020-06-14T18:19:29Z</time>
      </trkpt>
      <trkpt lat="49.60449" lon="-1.7348">
        <ele>116.2</ele>
        <time>2020-06-14T18:19:30Z</time>
      </trkpt>
      <trkpt lat="49.6045" lon="-1.73475">
        <ele>116.3</ele>
        <time>2020-06-14T18:19:31Z</time>
      </trkpt>
      <trkpt lat="49.60451" lon="-1.73471">
        <ele>116.5</ele>
        <time>2020-06-14T18:19:32Z</time>
      </trkpt>
      <trkpt lat="49.60454" lon="-1.73467">
        <ele>116.7</ele>
        <time>2020-06-14T18:19:33Z</time>
      </trkpt>
      <trkpt lat="49.60456" lon="-1.73462">
        <ele>117</ele>
        <time>2020-06-14T18:19:34Z</time>
      </trkpt>
      <trkpt lat="49.60459" lon="-1.73457">
        <ele>117.2</ele>
        <time>2020-06-14T18:19:35Z</time>
      </trkpt>
      <trkpt lat="49.60461" lon="-1.73452">
        <ele>117.4</ele>
        <time>2020-06-14T18:19:36Z</time>
      </trkpt>
      <trkpt lat="49.60463" lon="-1.73447">
        <ele>117.7</ele>
        <time>2020-06-14T18:19:37Z</time>
      </trkpt>
      <trkpt lat="49.60466" lon="-1.73443">
        <ele>117.9</ele>
        <time>2020-06-14T18:19:38Z</time>
      </trkpt>
      <trkpt lat="49.60468" lon="-1.73438">
        <ele>118.2</ele>
        <time>2020-06-14T18:19:39Z</time>
      </trkpt>
      <trkpt lat="49.60471" lon="-1.73432">
        <ele>118.4</ele>
        <time>2020-06-14T18:19:40Z</time>
      </trkpt>
      <trkpt lat="49.60473" lon="-1.73427">
        <ele>118.7</ele>
        <time>2020-06-14T18:19:41Z</time>
      </trkpt>
      <trkpt lat="49.60475" lon="-1.73421">
        <ele>119</ele>
        <time>2020-06-14T18:19:42Z</time>
      </trkpt>
      <trkpt lat="49.60477" lon="-1.73417">
        <ele>119.3</ele>
        <time>2020-06-14T18:19:43Z</time>
      </trkpt>
      <trkpt lat="49.60479" lon="-1.73412">
        <ele>119.5</ele>
        <time>2020-06-14T18:19:44Z</time>
      </trkpt>
      <trkpt lat="49.60482" lon="-1.73406">
        <ele>119.8</ele>
        <time>2020-06-14T18:19:45Z</time>
      </trkpt>
      <trkpt lat="49.60484" lon="-1.734">
        <ele>120.2</ele>
        <time>2020-06-14T18:19:46Z</time>
      </trkpt>
      <trkpt lat="49.60486" lon="-1.73394">
        <ele>120.4</ele>
        <time>2020-06-14T18:19:47Z</time>
      </trkpt>
      <trkpt lat="49.60488" lon="-1.73389">
        <ele>120.7</ele>
        <time>2020-06-14T18:19:48Z</time>
      </trkpt>
      <trkpt lat="49.60491" lon="-1.73383">
        <ele>121</ele>
        <time>2020-06-14T18:19:49Z</time>
      </trkpt>
      <trkpt lat="49.60493" lon="-1.73378">
        <ele>121.3</ele>
        <time>2020-06-14T18:19:50Z</time>
      </trkpt>
      <trkpt lat="49.60494" lon="-1.73373">
        <ele>121.5</ele>
        <time>2020-06-14T18:19:51Z</time>
      </trkpt>
      <trkpt lat="49.60496" lon="-1.73368">
        <ele>121.7</ele>
        <time>2020-06-14T18:19:52Z</time>
      </trkpt>
      <trkpt lat="49.60498" lon="-1.73364">
        <ele>121.9</ele>
        <time>2020-06-14T18:19:53Z</time>
      </trkpt>
      <trkpt lat="49.60499" lon="-1.7336">
        <ele>122.1</ele>
        <time>2020-06-14T18:19:54Z</time>
      </trkpt>
      <trkpt lat="49.60501" lon="-1.73355">
        <ele>122.4</ele>
        <time>2020-06-14T18:19:55Z</time>
      </trkpt>
      <trkpt lat="49.60503" lon="-1.7335">
        <ele>122.6</ele>
        <time>2020-06-14T18:19:56Z</time>
      </trkpt>
      <trkpt lat="49.60505" lon="-1.73345">
        <ele>122.9</ele>
        <time>2020-06-14T18:19:57Z</time>
      </trkpt>
      <trkpt lat="49.60507" lon="-1.73339">
        <ele>123.2</ele>
        <time>2020-06-14T18:19:58Z</time>
      </trkpt>
      <trkpt lat="49.6051" lon="-1.73332">
        <ele>123.5</ele>
        <time>2020-06-14T18:19:59Z</time>
      </trkpt>
      <trkpt lat="49.60512" lon="-1.73325">
        <ele>123.7</ele>
        <time>2020-06-14T18:20:00Z</time>
      </trkpt>
      <trkpt lat="49.60514" lon="-1.73318">
        <ele>124</ele>
        <time>2020-06-14T18:20:01Z</time>
      </trkpt>
      <trkpt lat="49.60516" lon="-1.73312">
        <ele>124.2</ele>
        <time>2020-06-14T18:20:02Z</time>
      </trkpt>
      <trkpt lat="49.60517" lon="-1.73307">
        <ele>124.4</ele>
        <time>2020-06-14T18:20:03Z</time>
      </trkpt>
      <trkpt lat="49.60519" lon="-1.73301">
        <ele>124.6</ele>
        <time>2020-06-14T18:20:04Z</time>
      </trkpt>
      <trkpt lat="49.6052" lon="-1.73294">
        <ele>124.8</ele>
        <time>2020-06-14T18:20:05Z</time>
      </trkpt>
      <trkpt lat="49.60521" lon="-1.73288">
        <ele>125</ele>
        <time>2020-06-14T18:20:06Z</time>
      </trkpt>
      <trkpt lat="49.60522" lon="-1.73282">
        <ele>125.1</ele>
        <time>2020-06-14T18:20:07Z</time>
      </trkpt>
      <trkpt lat="49.60524" lon="-1.73277">
        <ele>125.3</ele>
        <time>2020-06-14T18:20:08Z</time>
      </trkpt>
      <trkpt lat="49.60526" lon="-1.73271">
        <ele>125.5</ele>
        <time>2020-06-14T18:20:09Z</time>
      </trkpt>
      <trkpt lat="49.60528" lon="-1.73265">
        <ele>125.6</ele>
        <time>2020-06-14T18:20:10Z</time>
      </trkpt>
      <trkpt lat="49.60531" lon="-1.7326">
        <ele>125.8</ele>
        <time>2020-06-14T18:20:11Z</time>
      </trkpt>
      <trkpt lat="49.60533" lon="-1.73254">
        <ele>126</ele>
        <time>2020-06-14T18:20:12Z</time>
      </trkpt>
      <trkpt lat="49.60534" lon="-1.73248">
        <ele>126.1</ele>
        <time>2020-06-14T18:20:13Z</time>
      </trkpt>
      <trkpt lat="49.60536" lon="-1.73242">
        <ele>126.3</ele>
        <time>2020-06-14T18:20:14Z</time>
      </trkpt>
      <trkpt lat="49.60538" lon="-1.73235">
        <ele>126.4</ele>
        <time>2020-06-14T18:20:15Z</time>
      </trkpt>
      <trkpt lat="49.6054" lon="-1.73228">
        <ele>126.5</ele>
        <time>2020-06-14T18:20:16Z</time>
      </trkpt>
      <trkpt lat="49.60542" lon="-1.73221">
        <ele>126.7</ele>
        <time>2020-06-14T18:20:17Z</time>
      </trkpt>
      <trkpt lat="49.60544" lon="-1.73214">
        <ele>126.8</ele>
        <time>2020-06-14T18:20:18Z</time>
      </trkpt>
      <trkpt lat="49.60546" lon="-1.73208">
        <ele>126.9</ele>
        <time>2020-06-14T18:20:19Z</time>
      </trkpt>
      <trkpt lat="49.60547" lon="-1.73201">
        <ele>127</ele>
        <time>2020-06-14T18:20:20Z</time>
      </trkpt>
      <trkpt lat="49.60549" lon="-1.73194">
        <ele>127.1</ele>
        <time>2020-06-14T18:20:21Z</time>
      </trkpt>
      <trkpt lat="49.60552" lon="-1.73188">
        <ele>127.2</ele>
        <time>2020-06-14T18:20:22Z</time>
      </trkpt>
      <trkpt lat="49.60554" lon="-1.73181">
        <ele>127.3</ele>
        <time>2020-06-14T18:20:23Z</time>
      </trkpt>
      <trkpt lat="49.60556" lon="-1.73174">
        <ele>127.4</ele>
        <time>2020-06-14T18:20:24Z</time>
      </trkpt>
      <trkpt lat="49.60559" lon="-1.73167">
        <ele>127.4</ele>
        <time>2020-06-14T18:20:25Z</time>
      </trkpt>
      <trkpt lat="49.60561" lon="-1.73161">
        <ele>127.5</ele>
        <time>2020-06-14T18:20:26Z</time>
      </trkpt>
      <trkpt lat="49.60563" lon="-1.73154">
        <ele>127.6</ele>
        <time>2020-06-14T18:20:27Z</time>
      </trkpt>
      <trkpt lat="49.60565" lon="-1.73146">
        <ele>127.6</ele>
        <time>2020-06-14T18:20:28Z</time>
      </trkpt>
      <trkpt lat="49.60567" lon="-1.7314">
        <ele>127.5</ele>
        <time>2020-06-14T18:20:29Z</time>
      </trkpt>
      <trkpt lat="49.60569" lon="-1.73133">
        <ele>127.4</ele>
        <time>2020-06-14T18:20:30Z</time>
      </trkpt>
      <trkpt lat="49.60572" lon="-1.73127">
        <ele>127.3</ele>
        <time>2020-06-14T18:20:31Z</time>
      </trkpt>
      <trkpt lat="49.60574" lon="-1.7312">
        <ele>127.2</ele>
        <time>2020-06-14T18:20:32Z</time>
      </trkpt>
      <trkpt lat="49.60575" lon="-1.73114">
        <ele>127.1</ele>
        <time>2020-06-14T18:20:33Z</time>
      </trkpt>
      <trkpt lat="49.60578" lon="-1.73107">
        <ele>127</ele>
        <time>2020-06-14T18:20:34Z</time>
      </trkpt>
      <trkpt lat="49.6058" lon="-1.73101">
        <ele>127</ele>
        <time>2020-06-14T18:20:35Z</time>
      </trkpt>
      <trkpt lat="49.60583" lon="-1.73094">
        <ele>126.9</ele>
        <time>2020-06-14T18:20:36Z</time>
      </trkpt>
      <trkpt lat="49.60584" lon="-1.73088">
        <ele>126.8</ele>
        <time>2020-06-14T18:20:37Z</time>
      </trkpt>
      <trkpt lat="49.60585" lon="-1.73081">
        <ele>126.7</ele>
        <time>2020-06-14T18:20:38Z</time>
      </trkpt>
      <trkpt lat="49.60587" lon="-1.73074">
        <ele>126.6</ele>
        <time>2020-06-14T18:20:39Z</time>
      </trkpt>
      <trkpt lat="49.60589" lon="-1.73068">
        <ele>126.5</ele>
        <time>2020-06-14T18:20:40Z</time>
      </trkpt>
      <trkpt lat="49.60591" lon="-1.73062">
        <ele>126.4</ele>
        <time>2020-06-14T18:20:41Z</time>
      </trkpt>
      <trkpt lat="49.60592" lon="-1.73055">
        <ele>126.3</ele>
        <time>2020-06-14T18:20:42Z</time>
      </trkpt>
      <trkpt lat="49.60593" lon="-1.73047">
        <ele>126.2</ele>
        <time>2020-06-14T18:20:43Z</time>
      </trkpt>
      <trkpt lat="49.60595" lon="-1.73038">
        <ele>126</ele>
        <time>2020-06-14T18:20:44Z</time>
      </trkpt>
      <trkpt lat="49.60597" lon="-1.7303">
        <ele>125.9</ele>
        <time>2020-06-14T18:20:45Z</time>
      </trkpt>
      <trkpt lat="49.60597" lon="-1.73023">
        <ele>125.7</ele>
        <time>2020-06-14T18:20:46Z</time>
      </trkpt>
      <trkpt lat="49.60598" lon="-1.73014">
        <ele>125.5</ele>
        <time>2020-06-14T18:20:47Z</time>
      </trkpt>
      <trkpt lat="49.60599" lon="-1.73006">
        <ele>125.3</ele>
        <time>2020-06-14T18:20:48Z</time>
      </trkpt>
      <trkpt lat="49.606" lon="-1.72997">
        <ele>125.1</ele>
        <time>2020-06-14T18:20:49Z</time>
      </trkpt>
      <trkpt lat="49.60601" lon="-1.72988">
        <ele>124.8</ele>
        <time>2020-06-14T18:20:50Z</time>
      </trkpt>
      <trkpt lat="49.60601" lon="-1.7298">
        <ele>124.5</ele>
        <time>2020-06-14T18:20:51Z</time>
      </trkpt>
      <trkpt lat="49.60602" lon="-1.72971">
        <ele>124.2</ele>
        <time>2020-06-14T18:20:52Z</time>
      </trkpt>
      <trkpt lat="49.60602" lon="-1.72962">
        <ele>124</ele>
        <time>2020-06-14T18:20:53Z</time>
      </trkpt>
      <trkpt lat="49.60602" lon="-1.72951">
        <ele>123.6</ele>
        <time>2020-06-14T18:20:54Z</time>
      </trkpt>
      <trkpt lat="49.60602" lon="-1.72941">
        <ele>123.2</ele>
        <time>2020-06-14T18:20:55Z</time>
      </trkpt>
      <trkpt lat="49.60602" lon="-1.7293">
        <ele>122.9</ele>
        <time>2020-06-14T18:20:56Z</time>
      </trkpt>
      <trkpt lat="49.60602" lon="-1.72919">
        <ele>122.5</ele>
        <time>2020-06-14T18:20:57Z</time>
      </trkpt>
      <trkpt lat="49.60602" lon="-1.72908">
        <ele>122.1</ele>
        <time>2020-06-14T18:20:58Z</time>
      </trkpt>
      <trkpt lat="49.60601" lon="-1.72898">
        <ele>121.7</ele>
        <time>2020-06-14T18:20:59Z</time>
      </trkpt>
      <trkpt lat="49.606" lon="-1.72887">
        <ele>121.3</ele>
        <time>2020-06-14T18:21:00Z</time>
      </trkpt>
      <trkpt lat="49.606" lon="-1.72876">
        <ele>121</ele>
        <time>2020-06-14T18:21:01Z</time>
      </trkpt>
      <trkpt lat="49.60599" lon="-1.72865">
        <ele>120.7</ele>
        <time>2020-06-14T18:21:02Z</time>
      </trkpt>
      <trkpt lat="49.60599" lon="-1.72853">
        <ele>120.4</ele>
        <time>2020-06-14T18:21:03Z</time>
      </trkpt>
      <trkpt lat="49.60598" lon="-1.7284">
        <ele>120</ele>
        <time>2020-06-14T18:21:04Z</time>
      </trkpt>
      <trkpt lat="49.60598" lon="-1.72829">
        <ele>119.7</ele>
        <time>2020-06-14T18:21:05Z</time>
      </trkpt>
      <trkpt lat="49.60597" lon="-1.72816">
        <ele>119.4</ele>
        <time>2020-06-14T18:21:06Z</time>
      </trkpt>
      <trkpt lat="49.60598" lon="-1.72803">
        <ele>119</ele>
        <time>2020-06-14T18:21:07Z</time>
      </trkpt>
      <trkpt lat="49.60598" lon="-1.72791">
        <ele>118.6</ele>
        <time>2020-06-14T18:21:08Z</time>
      </trkpt>
      <trkpt lat="49.60598" lon="-1.72778">
        <ele>118.3</ele>
        <time>2020-06-14T18:21:09Z</time>
      </trkpt>
      <trkpt lat="49.60598" lon="-1.72765">
        <ele>118.1</ele>
        <time>2020-06-14T18:21:10Z</time>
      </trkpt>
      <trkpt lat="49.60599" lon="-1.72753">
        <ele>117.8</ele>
        <time>2020-06-14T18:21:11Z</time>
      </trkpt>
      <trkpt lat="49.606" lon="-1.7274">
        <ele>117.5</ele>
        <time>2020-06-14T18:21:12Z</time>
      </trkpt>
      <trkpt lat="49.60601" lon="-1.72728">
        <ele>117.3</ele>
        <time>2020-06-14T18:21:13Z</time>
      </trkpt>
      <trkpt lat="49.60603" lon="-1.72716">
        <ele>117</ele>
        <time>2020-06-14T18:21:14Z</time>
      </trkpt>
      <trkpt lat="49.60603" lon="-1.72704">
        <ele>116.7</ele>
        <time>2020-06-14T18:21:15Z</time>
      </trkpt>
      <trkpt lat="49.60604" lon="-1.72691">
        <ele>116.4</ele>
        <time>2020-06-14T18:21:16Z</time>
      </trkpt>
      <trkpt lat="49.60607" lon="-1.72678">
        <ele>116</ele>
        <time>2020-06-14T18:21:17Z</time>
      </trkpt>
      <trkpt lat="49.60609" lon="-1.72666">
        <ele>115.6</ele>
        <time>2020-06-14T18:21:18Z</time>
      </trkpt>
      <trkpt lat="49.60611" lon="-1.72654">
        <ele>115.2</ele>
        <time>2020-06-14T18:21:19Z</time>
      </trkpt>
      <trkpt lat="49.60614" lon="-1.72641">
        <ele>114.8</ele>
        <time>2020-06-14T18:21:20Z</time>
      </trkpt>
      <trkpt lat="49.60616" lon="-1.72628">
        <ele>114.4</ele>
        <time>2020-06-14T18:21:21Z</time>
      </trkpt>
      <trkpt lat="49.60619" lon="-1.72616">
        <ele>114</ele>
        <time>2020-06-14T18:21:22Z</time>
      </trkpt>
      <trkpt lat="49.60622" lon="-1.72603">
        <ele>113.6</ele>
        <time>2020-06-14T18:21:23Z</time>
      </trkpt>
      <trkpt lat="49.60626" lon="-1.7259">
        <ele>113.2</ele>
        <time>2020-06-14T18:21:24Z</time>
      </trkpt>
      <trkpt lat="49.6063" lon="-1.72577">
        <ele>112.7</ele>
        <time>2020-06-14T18:21:25Z</time>
      </trkpt>
      <trkpt lat="49.60633" lon="-1.72564">
        <ele>112.2</ele>
        <time>2020-06-14T18:21:26Z</time>
      </trkpt>
      <trkpt lat="49.60637" lon="-1.72551">
        <ele>111.6</ele>
        <time>2020-06-14T18:21:27Z</time>
      </trkpt>
      <trkpt lat="49.60641" lon="-1.72539">
        <ele>111.1</ele>
        <time>2020-06-14T18:21:28Z</time>
      </trkpt>
      <trkpt lat="49.60645" lon="-1.72526">
        <ele>110.6</ele>
        <time>2020-06-14T18:21:29Z</time>
      </trkpt>
      <trkpt lat="49.60649" lon="-1.72513">
        <ele>110.1</ele>
        <time>2020-06-14T18:21:30Z</time>
      </trkpt>
      <trkpt lat="49.60653" lon="-1.72499">
        <ele>109.6</ele>
        <time>2020-06-14T18:21:31Z</time>
      </trkpt>
      <trkpt lat="49.60658" lon="-1.72486">
        <ele>109</ele>
        <time>2020-06-14T18:21:32Z</time>
      </trkpt>
      <trkpt lat="49.60662" lon="-1.72474">
        <ele>108.5</ele>
        <time>2020-06-14T18:21:33Z</time>
      </trkpt>
      <trkpt lat="49.60666" lon="-1.7246">
        <ele>107.9</ele>
        <time>2020-06-14T18:21:34Z</time>
      </trkpt>
      <trkpt lat="49.6067" lon="-1.72447">
        <ele>107.3</ele>
        <time>2020-06-14T18:21:35Z</time>
      </trkpt>
      <trkpt lat="49.60675" lon="-1.72433">
        <ele>106.7</ele>
        <time>2020-06-14T18:21:36Z</time>
      </trkpt>
      <trkpt lat="49.6068" lon="-1.7242">
        <ele>106</ele>
        <time>2020-06-14T18:21:37Z</time>
      </trkpt>
      <trkpt lat="49.60685" lon="-1.72407">
        <ele>105.4</ele>
        <time>2020-06-14T18:21:38Z</time>
      </trkpt>
      <trkpt lat="49.60689" lon="-1.72393">
        <ele>104.7</ele>
        <time>2020-06-14T18:21:39Z</time>
      </trkpt>
      <trkpt lat="49.60694" lon="-1.72379">
        <ele>104</ele>
        <time>2020-06-14T18:21:40Z</time>
      </trkpt>
      <trkpt lat="49.60698" lon="-1.72364">
        <ele>103.3</ele>
        <time>2020-06-14T18:21:41Z</time>
      </trkpt>
      <trkpt lat="49.60703" lon="-1.7235">
        <ele>102.6</ele>
        <time>2020-06-14T18:21:42Z</time>
      </trkpt>
      <trkpt lat="49.60708" lon="-1.72336">
        <ele>101.9</ele>
        <time>2020-06-14T18:21:43Z</time>
      </trkpt>
      <trkpt lat="49.60713" lon="-1.72322">
        <ele>101.2</ele>
        <time>2020-06-14T18:21:44Z</time>
      </trkpt>
      <trkpt lat="49.60717" lon="-1.72307">
        <ele>100.6</ele>
        <time>2020-06-14T18:21:45Z</time>
      </trkpt>
      <trkpt lat="49.60721" lon="-1.72293">
        <ele>99.9</ele>
        <time>2020-06-14T18:21:46Z</time>
      </trkpt>
      <trkpt lat="49.60726" lon="-1.72279">
        <ele>99.3</ele>
        <time>2020-06-14T18:21:47Z</time>
      </trkpt>
      <trkpt lat="49.60731" lon="-1.72265">
        <ele>98.7</ele>
        <time>2020-06-14T18:21:48Z</time>
      </trkpt>
      <trkpt lat="49.60736" lon="-1.72251">
        <ele>98.2</ele>
        <time>2020-06-14T18:21:49Z</time>
      </trkpt>
      <trkpt lat="49.60741" lon="-1.72238">
        <ele>97.8</ele>
        <time>2020-06-14T18:21:50Z</time>
      </trkpt>
      <trkpt lat="49.60746" lon="-1.72224">
        <ele>97.5</ele>
        <time>2020-06-14T18:21:51Z</time>
      </trkpt>
      <trkpt lat="49.60749" lon="-1.72209">
        <ele>97.4</ele>
        <time>2020-06-14T18:21:52Z</time>
      </trkpt>
      <trkpt lat="49.60754" lon="-1.72196">
        <ele>97.4</ele>
        <time>2020-06-14T18:21:53Z</time>
      </trkpt>
      <trkpt lat="49.60758" lon="-1.72182">
        <ele>97.2</ele>
        <time>2020-06-14T18:21:54Z</time>
      </trkpt>
      <trkpt lat="49.60762" lon="-1.72169">
        <ele>96.9</ele>
        <time>2020-06-14T18:21:55Z</time>
      </trkpt>
      <trkpt lat="49.60766" lon="-1.72156">
        <ele>96.7</ele>
        <time>2020-06-14T18:21:56Z</time>
      </trkpt>
      <trkpt lat="49.6077" lon="-1.72143">
        <ele>96.6</ele>
        <time>2020-06-14T18:21:57Z</time>
      </trkpt>
      <trkpt lat="49.60774" lon="-1.72131">
        <ele>96.7</ele>
        <time>2020-06-14T18:21:58Z</time>
      </trkpt>
      <trkpt lat="49.60777" lon="-1.72119">
        <ele>96.8</ele>
        <time>2020-06-14T18:21:59Z</time>
      </trkpt>
      <trkpt lat="49.6078" lon="-1.72107">
        <ele>96.9</ele>
        <time>2020-06-14T18:22:00Z</time>
      </trkpt>
      <trkpt lat="49.60785" lon="-1.72097">
        <ele>97</ele>
        <time>2020-06-14T18:22:01Z</time>
      </trkpt>
      <trkpt lat="49.60788" lon="-1.72086">
        <ele>97.1</ele>
        <time>2020-06-14T18:22:02Z</time>
      </trkpt>
      <trkpt lat="49.60792" lon="-1.72076">
        <ele>97.2</ele>
        <time>2020-06-14T18:22:03Z</time>
      </trkpt>
      <trkpt lat="49.60795" lon="-1.72065">
        <ele>97.2</ele>
        <time>2020-06-14T18:22:04Z</time>
      </trkpt>
      <trkpt lat="49.60799" lon="-1.72055">
        <ele>97.2</ele>
        <time>2020-06-14T18:22:05Z</time>
      </trkpt>
      <trkpt lat="49.60803" lon="-1.72046">
        <ele>97.2</ele>
        <time>2020-06-14T18:22:06Z</time>
      </trkpt>
      <trkpt lat="49.60806" lon="-1.72037">
        <ele>97.2</ele>
        <time>2020-06-14T18:22:07Z</time>
      </trkpt>
      <trkpt lat="49.6081" lon="-1.72028">
        <ele>97.2</ele>
        <time>2020-06-14T18:22:08Z</time>
      </trkpt>
      <trkpt lat="49.60813" lon="-1.72019">
        <ele>97.1</ele>
        <time>2020-06-14T18:22:09Z</time>
      </trkpt>
      <trkpt lat="49.60817" lon="-1.72011">
        <ele>97</ele>
        <time>2020-06-14T18:22:10Z</time>
      </trkpt>
      <trkpt lat="49.6082" lon="-1.72001">
        <ele>96.9</ele>
        <time>2020-06-14T18:22:11Z</time>
      </trkpt>
      <trkpt lat="49.60824" lon="-1.71993">
        <ele>96.8</ele>
        <time>2020-06-14T18:22:12Z</time>
      </trkpt>
      <trkpt lat="49.60828" lon="-1.71984">
        <ele>96.7</ele>
        <time>2020-06-14T18:22:13Z</time>
      </trkpt>
      <trkpt lat="49.60831" lon="-1.71975">
        <ele>96.5</ele>
        <time>2020-06-14T18:22:14Z</time>
      </trkpt>
      <trkpt lat="49.60835" lon="-1.71967">
        <ele>96.4</ele>
        <time>2020-06-14T18:22:15Z</time>
      </trkpt>
      <trkpt lat="49.60838" lon="-1.71957">
        <ele>96.2</ele>
        <time>2020-06-14T18:22:16Z</time>
      </trkpt>
      <trkpt lat="49.60842" lon="-1.71949">
        <ele>96</ele>
        <time>2020-06-14T18:22:17Z</time>
      </trkpt>
      <trkpt lat="49.60846" lon="-1.7194">
        <ele>95.7</ele>
        <time>2020-06-14T18:22:18Z</time>
      </trkpt>
      <trkpt lat="49.60849" lon="-1.71931">
        <ele>95.5</ele>
        <time>2020-06-14T18:22:19Z</time>
      </trkpt>
      <trkpt lat="49.60852" lon="-1.71922">
        <ele>95.2</ele>
        <time>2020-06-14T18:22:20Z</time>
      </trkpt>
      <trkpt lat="49.60855" lon="-1.71913">
        <ele>94.9</ele>
        <time>2020-06-14T18:22:21Z</time>
      </trkpt>
      <trkpt lat="49.60858" lon="-1.71903">
        <ele>94.6</ele>
        <time>2020-06-14T18:22:22Z</time>
      </trkpt>
      <trkpt lat="49.60863" lon="-1.71894">
        <ele>94.2</ele>
        <time>2020-06-14T18:22:23Z</time>
      </trkpt>
      <trkpt lat="49.60867" lon="-1.71885">
        <ele>93.8</ele>
        <time>2020-06-14T18:22:24Z</time>
      </trkpt>
      <trkpt lat="49.60871" lon="-1.71875">
        <ele>93.3</ele>
        <time>2020-06-14T18:22:25Z</time>
      </trkpt>
      <trkpt lat="49.60875" lon="-1.71865">
        <ele>92.8</ele>
        <time>2020-06-14T18:22:26Z</time>
      </trkpt>
      <trkpt lat="49.60879" lon="-1.71854">
        <ele>92.3</ele>
        <time>2020-06-14T18:22:27Z</time>
      </trkpt>
      <trkpt lat="49.60882" lon="-1.71843">
        <ele>91.8</ele>
        <time>2020-06-14T18:22:28Z</time>
      </trkpt>
      <trkpt lat="49.60885" lon="-1.71831">
        <ele>91.2</ele>
        <time>2020-06-14T18:22:29Z</time>
      </trkpt>
      <trkpt lat="49.60888" lon="-1.71818">
        <ele>90.6</ele>
        <time>2020-06-14T18:22:30Z</time>
      </trkpt>
      <trkpt lat="49.60891" lon="-1.71805">
        <ele>90</ele>
        <time>2020-06-14T18:22:31Z</time>
      </trkpt>
      <trkpt lat="49.60894" lon="-1.71791">
        <ele>89.5</ele>
        <time>2020-06-14T18:22:32Z</time>
      </trkpt>
      <trkpt lat="49.60897" lon="-1.71778">
        <ele>89</ele>
        <time>2020-06-14T18:22:33Z</time>
      </trkpt>
      <trkpt lat="49.60899" lon="-1.71764">
        <ele>88.5</ele>
        <time>2020-06-14T18:22:34Z</time>
      </trkpt>
      <trkpt lat="49.60902" lon="-1.7175">
        <ele>88</ele>
        <time>2020-06-14T18:22:35Z</time>
      </trkpt>
      <trkpt lat="49.60904" lon="-1.71736">
        <ele>87.6</ele>
        <time>2020-06-14T18:22:36Z</time>
      </trkpt>
      <trkpt lat="49.60906" lon="-1.71722">
        <ele>87.1</ele>
        <time>2020-06-14T18:22:37Z</time>
      </trkpt>
      <trkpt lat="49.60909" lon="-1.71709">
        <ele>86.7</ele>
        <time>2020-06-14T18:22:38Z</time>
      </trkpt>
      <trkpt lat="49.60912" lon="-1.71695">
        <ele>86.4</ele>
        <time>2020-06-14T18:22:39Z</time>
      </trkpt>
      <trkpt lat="49.60916" lon="-1.71682">
        <ele>86.1</ele>
        <time>2020-06-14T18:22:40Z</time>
      </trkpt>
      <trkpt lat="49.60919" lon="-1.71668">
        <ele>85.8</ele>
        <time>2020-06-14T18:22:41Z</time>
      </trkpt>
      <trkpt lat="49.60924" lon="-1.71655">
        <ele>85.5</ele>
        <time>2020-06-14T18:22:42Z</time>
      </trkpt>
      <trkpt lat="49.60928" lon="-1.71642">
        <ele>85.2</ele>
        <time>2020-06-14T18:22:43Z</time>
      </trkpt>
      <trkpt lat="49.60932" lon="-1.71629">
        <ele>84.9</ele>
        <time>2020-06-14T18:22:44Z</time>
      </trkpt>
      <trkpt lat="49.60936" lon="-1.71617">
        <ele>84.7</ele>
        <time>2020-06-14T18:22:45Z</time>
      </trkpt>
      <trkpt lat="49.60941" lon="-1.71606">
        <ele>84.6</ele>
        <time>2020-06-14T18:22:46Z</time>
      </trkpt>
      <trkpt lat="49.60947" lon="-1.71595">
        <ele>84.5</ele>
        <time>2020-06-14T18:22:47Z</time>
      </trkpt>
      <trkpt lat="49.60952" lon="-1.71583">
        <ele>84.4</ele>
        <time>2020-06-14T18:22:48Z</time>
      </trkpt>
      <trkpt lat="49.60957" lon="-1.71573">
        <ele>84.2</ele>
        <time>2020-06-14T18:22:49Z</time>
      </trkpt>
      <trkpt lat="49.60963" lon="-1.71562">
        <ele>84.1</ele>
        <time>2020-06-14T18:22:50Z</time>
      </trkpt>
      <trkpt lat="49.60968" lon="-1.71551">
        <ele>84</ele>
        <time>2020-06-14T18:22:51Z</time>
      </trkpt>
      <trkpt lat="49.60974" lon="-1.71541">
        <ele>83.8</ele>
        <time>2020-06-14T18:22:52Z</time>
      </trkpt>
      <trkpt lat="49.60979" lon="-1.7153">
        <ele>83.6</ele>
        <time>2020-06-14T18:22:53Z</time>
      </trkpt>
      <trkpt lat="49.60985" lon="-1.7152">
        <ele>83.4</ele>
        <time>2020-06-14T18:22:54Z</time>
      </trkpt>
      <trkpt lat="49.60991" lon="-1.71509">
        <ele>83.2</ele>
        <time>2020-06-14T18:22:55Z</time>
      </trkpt>
      <trkpt lat="49.60996" lon="-1.71499">
        <ele>83.1</ele>
        <time>2020-06-14T18:22:56Z</time>
      </trkpt>
      <trkpt lat="49.61002" lon="-1.71488">
        <ele>83</ele>
        <time>2020-06-14T18:22:57Z</time>
      </trkpt>
      <trkpt lat="49.61007" lon="-1.71477">
        <ele>82.8</ele>
        <time>2020-06-14T18:22:58Z</time>
      </trkpt>
      <trkpt lat="49.61011" lon="-1.71465">
        <ele>82.7</ele>
        <time>2020-06-14T18:22:59Z</time>
      </trkpt>
      <trkpt lat="49.61016" lon="-1.71454">
        <ele>82.5</ele>
        <time>2020-06-14T18:23:00Z</time>
      </trkpt>
      <trkpt lat="49.61021" lon="-1.71443">
        <ele>82.3</ele>
        <time>2020-06-14T18:23:01Z</time>
      </trkpt>
      <trkpt lat="49.61026" lon="-1.71431">
        <ele>82.1</ele>
        <time>2020-06-14T18:23:02Z</time>
      </trkpt>
      <trkpt lat="49.61031" lon="-1.7142">
        <ele>81.9</ele>
        <time>2020-06-14T18:23:03Z</time>
      </trkpt>
      <trkpt lat="49.61036" lon="-1.71409">
        <ele>81.7</ele>
        <time>2020-06-14T18:23:04Z</time>
      </trkpt>
      <trkpt lat="49.61041" lon="-1.71397">
        <ele>81.6</ele>
        <time>2020-06-14T18:23:05Z</time>
      </trkpt>
      <trkpt lat="49.61046" lon="-1.71386">
        <ele>81.5</ele>
        <time>2020-06-14T18:23:06Z</time>
      </trkpt>
      <trkpt lat="49.6105" lon="-1.71374">
        <ele>81.4</ele>
        <time>2020-06-14T18:23:07Z</time>
      </trkpt>
      <trkpt lat="49.61055" lon="-1.71363">
        <ele>81.3</ele>
        <time>2020-06-14T18:23:08Z</time>
      </trkpt>
      <trkpt lat="49.61059" lon="-1.71351">
        <ele>81.2</ele>
        <time>2020-06-14T18:23:09Z</time>
      </trkpt>
      <trkpt lat="49.61064" lon="-1.7134">
        <ele>81.2</ele>
        <time>2020-06-14T18:23:10Z</time>
      </trkpt>
      <trkpt lat="49.61068" lon="-1.71329">
        <ele>81.2</ele>
        <time>2020-06-14T18:23:11Z</time>
      </trkpt>
      <trkpt lat="49.61073" lon="-1.71317">
        <ele>81.2</ele>
        <time>2020-06-14T18:23:12Z</time>
      </trkpt>
      <trkpt lat="49.61076" lon="-1.71305">
        <ele>81.3</ele>
        <time>2020-06-14T18:23:13Z</time>
      </trkpt>
      <trkpt lat="49.61078" lon="-1.71292">
        <ele>81.5</ele>
        <time>2020-06-14T18:23:14Z</time>
      </trkpt>
      <trkpt lat="49.6108" lon="-1.71279">
        <ele>81.6</ele>
        <time>2020-06-14T18:23:15Z</time>
      </trkpt>
      <trkpt lat="49.61081" lon="-1.71266">
        <ele>81.8</ele>
        <time>2020-06-14T18:23:16Z</time>
      </trkpt>
      <trkpt lat="49.61082" lon="-1.71253">
        <ele>82.1</ele>
        <time>2020-06-14T18:23:17Z</time>
      </trkpt>
      <trkpt lat="49.61082" lon="-1.7124">
        <ele>82.4</ele>
        <time>2020-06-14T18:23:18Z</time>
      </trkpt>
      <trkpt lat="49.61082" lon="-1.71228">
        <ele>82.8</ele>
        <time>2020-06-14T18:23:19Z</time>
      </trkpt>
      <trkpt lat="49.61082" lon="-1.71215">
        <ele>83.3</ele>
        <time>2020-06-14T18:23:20Z</time>
      </trkpt>
      <trkpt lat="49.61081" lon="-1.71203">
        <ele>83.9</ele>
        <time>2020-06-14T18:23:21Z</time>
      </trkpt>
      <trkpt lat="49.61081" lon="-1.71192">
        <ele>84.7</ele>
        <time>2020-06-14T18:23:22Z</time>
      </trkpt>
      <trkpt lat="49.61081" lon="-1.71181">
        <ele>85.2</ele>
        <time>2020-06-14T18:23:23Z</time>
      </trkpt>
      <trkpt lat="49.61081" lon="-1.7117">
        <ele>85.5</ele>
        <time>2020-06-14T18:23:24Z</time>
      </trkpt>
      <trkpt lat="49.61081" lon="-1.7116">
        <ele>85.8</ele>
        <time>2020-06-14T18:23:25Z</time>
      </trkpt>
      <trkpt lat="49.61081" lon="-1.7115">
        <ele>86</ele>
        <time>2020-06-14T18:23:26Z</time>
      </trkpt>
      <trkpt lat="49.61081" lon="-1.7114">
        <ele>86.3</ele>
        <time>2020-06-14T18:23:27Z</time>
      </trkpt>
      <trkpt lat="49.61081" lon="-1.71132">
        <ele>86.5</ele>
        <time>2020-06-14T18:23:28Z</time>
      </trkpt>
      <trkpt lat="49.61081" lon="-1.71124">
        <ele>86.8</ele>
        <time>2020-06-14T18:23:29Z</time>
      </trkpt>
      <trkpt lat="49.61081" lon="-1.71116">
        <ele>87</ele>
        <time>2020-06-14T18:23:30Z</time>
      </trkpt>
      <trkpt lat="49.61082" lon="-1.71109">
        <ele>87.3</ele>
        <time>2020-06-14T18:23:31Z</time>
      </trkpt>
      <trkpt lat="49.61084" lon="-1.71102">
        <ele>87.7</ele>
        <time>2020-06-14T18:23:32Z</time>
      </trkpt>
      <trkpt lat="49.61085" lon="-1.71095">
        <ele>88</ele>
        <time>2020-06-14T18:23:33Z</time>
      </trkpt>
      <trkpt lat="49.61086" lon="-1.71088">
        <ele>88.3</ele>
        <time>2020-06-14T18:23:34Z</time>
      </trkpt>
      <trkpt lat="49.61088" lon="-1.71083">
        <ele>88.6</ele>
        <time>2020-06-14T18:23:35Z</time>
      </trkpt>
      <trkpt lat="49.6109" lon="-1.71078">
        <ele>88.9</ele>
        <time>2020-06-14T18:23:36Z</time>
      </trkpt>
      <trkpt lat="49.61092" lon="-1.71073">
        <ele>89.1</ele>
        <time>2020-06-14T18:23:37Z</time>
      </trkpt>
      <trkpt lat="49.61093" lon="-1.71067">
        <ele>89.4</ele>
        <time>2020-06-14T18:23:38Z</time>
      </trkpt>
      <trkpt lat="49.61094" lon="-1.71062">
        <ele>89.6</ele>
        <time>2020-06-14T18:23:39Z</time>
      </trkpt>
      <trkpt lat="49.61095" lon="-1.71057">
        <ele>89.9</ele>
        <time>2020-06-14T18:23:40Z</time>
      </trkpt>
      <trkpt lat="49.61096" lon="-1.71052">
        <ele>90.1</ele>
        <time>2020-06-14T18:23:41Z</time>
      </trkpt>
      <trkpt lat="49.61096" lon="-1.71046">
        <ele>90.4</ele>
        <time>2020-06-14T18:23:42Z</time>
      </trkpt>
      <trkpt lat="49.61097" lon="-1.71041">
        <ele>90.6</ele>
        <time>2020-06-14T18:23:43Z</time>
      </trkpt>
      <trkpt lat="49.61098" lon="-1.71037">
        <ele>90.9</ele>
        <time>2020-06-14T18:23:44Z</time>
      </trkpt>
      <trkpt lat="49.61099" lon="-1.71031">
        <ele>91.2</ele>
        <time>2020-06-14T18:23:45Z</time>
      </trkpt>
      <trkpt lat="49.61099" lon="-1.71028">
        <ele>91.3</ele>
        <time>2020-06-14T18:23:46Z</time>
      </trkpt>
      <trkpt lat="49.61099" lon="-1.71024">
        <ele>91.4</ele>
        <time>2020-06-14T18:23:47Z</time>
      </trkpt>
      <trkpt lat="49.61099" lon="-1.7102">
        <ele>91.6</ele>
        <time>2020-06-14T18:23:48Z</time>
      </trkpt>
      <trkpt lat="49.61099" lon="-1.71014">
        <ele>91.9</ele>
        <time>2020-06-14T18:23:49Z</time>
      </trkpt>
      <trkpt lat="49.611" lon="-1.71012">
        <ele>91.9</ele>
        <time>2020-06-14T18:23:50Z</time>
      </trkpt>
      <trkpt lat="49.611" lon="-1.71008">
        <ele>92.1</ele>
        <time>2020-06-14T18:23:51Z</time>
      </trkpt>
      <trkpt lat="49.61101" lon="-1.71003">
        <ele>92.3</ele>
        <time>2020-06-14T18:23:52Z</time>
      </trkpt>
      <trkpt lat="49.61101" lon="-1.71">
        <ele>92.5</ele>
        <time>2020-06-14T18:23:53Z</time>
      </trkpt>
      <trkpt lat="49.61102" lon="-1.70995">
        <ele>92.7</ele>
        <time>2020-06-14T18:23:54Z</time>
      </trkpt>
      <trkpt lat="49.61103" lon="-1.7099">
        <ele>92.9</ele>
        <time>2020-06-14T18:23:55Z</time>
      </trkpt>
      <trkpt lat="49.61104" lon="-1.70988">
        <ele>93</ele>
        <time>2020-06-14T18:23:56Z</time>
      </trkpt>
      <trkpt lat="49.61104" lon="-1.70983">
        <ele>93.2</ele>
        <time>2020-06-14T18:23:57Z</time>
      </trkpt>
      <trkpt lat="49.61105" lon="-1.70979">
        <ele>93.4</ele>
        <time>2020-06-14T18:23:58Z</time>
      </trkpt>
      <trkpt lat="49.61105" lon="-1.70975">
        <ele>93.6</ele>
        <time>2020-06-14T18:23:59Z</time>
      </trkpt>
      <trkpt lat="49.61105" lon="-1.70968">
        <ele>93.8</ele>
        <time>2020-06-14T18:24:00Z</time>
      </trkpt>
      <trkpt lat="49.61106" lon="-1.70964">
        <ele>94</ele>
        <time>2020-06-14T18:24:01Z</time>
      </trkpt>
      <trkpt lat="49.61107" lon="-1.70959">
        <ele>94.3</ele>
        <time>2020-06-14T18:24:02Z</time>
      </trkpt>
      <trkpt lat="49.61108" lon="-1.70953">
        <ele>94.6</ele>
        <time>2020-06-14T18:24:03Z</time>
      </trkpt>
      <trkpt lat="49.6111" lon="-1.70948">
        <ele>94.8</ele>
        <time>2020-06-14T18:24:04Z</time>
      </trkpt>
      <trkpt lat="49.6111" lon="-1.70946">
        <ele>94.9</ele>
        <time>2020-06-14T18:24:05Z</time>
      </trkpt>
      <trkpt lat="49.61111" lon="-1.70942">
        <ele>95.1</ele>
        <time>2020-06-14T18:24:06Z</time>
      </trkpt>
      <trkpt lat="49.61111" lon="-1.7094">
        <ele>95.2</ele>
        <time>2020-06-14T18:24:07Z</time>
      </trkpt>
      <trkpt lat="49.61112" lon="-1.70936">
        <ele>95.4</ele>
        <time>2020-06-14T18:24:08Z</time>
      </trkpt>
      <trkpt lat="49.61114" lon="-1.70931">
        <ele>95.6</ele>
        <time>2020-06-14T18:24:09Z</time>
      </trkpt>
      <trkpt lat="49.61114" lon="-1.70926">
        <ele>95.8</ele>
        <time>2020-06-14T18:24:10Z</time>
      </trkpt>
      <trkpt lat="49.61115" lon="-1.70922">
        <ele>95.9</ele>
        <time>2020-06-14T18:24:11Z</time>
      </trkpt>
      <trkpt lat="49.61117" lon="-1.70916">
        <ele>96.1</ele>
        <time>2020-06-14T18:24:12Z</time>
      </trkpt>
      <trkpt lat="49.61118" lon="-1.70911">
        <ele>96.3</ele>
        <time>2020-06-14T18:24:13Z</time>
      </trkpt>
      <trkpt lat="49.6112" lon="-1.70905">
        <ele>96.5</ele>
        <time>2020-06-14T18:24:14Z</time>
      </trkpt>
      <trkpt lat="49.61122" lon="-1.70901">
        <ele>96.6</ele>
        <time>2020-06-14T18:24:15Z</time>
      </trkpt>
      <trkpt lat="49.61122" lon="-1.709">
        <ele>96.7</ele>
        <time>2020-06-14T18:24:16Z</time>
      </trkpt>
      <trkpt lat="49.61123" lon="-1.70894">
        <ele>96.9</ele>
        <time>2020-06-14T18:24:17Z</time>
      </trkpt>
      <trkpt lat="49.61123" lon="-1.70893">
        <ele>96.9</ele>
        <time>2020-06-14T18:24:18Z</time>
      </trkpt>
      <trkpt lat="49.61124" lon="-1.70888">
        <ele>97.1</ele>
        <time>2020-06-14T18:24:19Z</time>
      </trkpt>
      <trkpt lat="49.61125" lon="-1.70884">
        <ele>97.2</ele>
        <time>2020-06-14T18:24:20Z</time>
      </trkpt>
      <trkpt lat="49.61126" lon="-1.70879">
        <ele>97.4</ele>
        <time>2020-06-14T18:24:21Z</time>
      </trkpt>
      <trkpt lat="49.61127" lon="-1.70875">
        <ele>97.6</ele>
        <time>2020-06-14T18:24:22Z</time>
      </trkpt>
      <trkpt lat="49.61128" lon="-1.70871">
        <ele>97.7</ele>
        <time>2020-06-14T18:24:23Z</time>
      </trkpt>
      <trkpt lat="49.6113" lon="-1.70865">
        <ele>98</ele>
        <time>2020-06-14T18:24:24Z</time>
      </trkpt>
      <trkpt lat="49.61131" lon="-1.70862">
        <ele>98.1</ele>
        <time>2020-06-14T18:24:25Z</time>
      </trkpt>
      <trkpt lat="49.61131" lon="-1.70857">
        <ele>98.2</ele>
        <time>2020-06-14T18:24:26Z</time>
      </trkpt>
      <trkpt lat="49.61131" lon="-1.70851">
        <ele>98.4</ele>
        <time>2020-06-14T18:24:27Z</time>
      </trkpt>
      <trkpt lat="49.61132" lon="-1.70846">
        <ele>98.5</ele>
        <time>2020-06-14T18:24:28Z</time>
      </trkpt>
      <trkpt lat="49.61133" lon="-1.7084">
        <ele>98.7</ele>
        <time>2020-06-14T18:24:29Z</time>
      </trkpt>
      <trkpt lat="49.61134" lon="-1.70835">
        <ele>98.8</ele>
        <time>2020-06-14T18:24:30Z</time>
      </trkpt>
      <trkpt lat="49.61135" lon="-1.70831">
        <ele>98.9</ele>
        <time>2020-06-14T18:24:31Z</time>
      </trkpt>
      <trkpt lat="49.61136" lon="-1.70825">
        <ele>99.1</ele>
        <time>2020-06-14T18:24:32Z</time>
      </trkpt>
      <trkpt lat="49.61136" lon="-1.7082">
        <ele>99.2</ele>
        <time>2020-06-14T18:24:33Z</time>
      </trkpt>
      <trkpt lat="49.61137" lon="-1.70815">
        <ele>99.3</ele>
        <time>2020-06-14T18:24:34Z</time>
      </trkpt>
      <trkpt lat="49.61138" lon="-1.7081">
        <ele>99.5</ele>
        <time>2020-06-14T18:24:35Z</time>
      </trkpt>
      <trkpt lat="49.61138" lon="-1.70806">
        <ele>99.6</ele>
        <time>2020-06-14T18:24:36Z</time>
      </trkpt>
      <trkpt lat="49.6114" lon="-1.70801">
        <ele>99.7</ele>
        <time>2020-06-14T18:24:37Z</time>
      </trkpt>
      <trkpt lat="49.61142" lon="-1.70795">
        <ele>99.9</ele>
        <time>2020-06-14T18:24:38Z</time>
      </trkpt>
      <trkpt lat="49.61142" lon="-1.70793">
        <ele>100</ele>
        <time>2020-06-14T18:24:39Z</time>
      </trkpt>
      <trkpt lat="49.61143" lon="-1.70786">
        <ele>100.2</ele>
        <time>2020-06-14T18:24:40Z</time>
      </trkpt>
      <trkpt lat="49.61145" lon="-1.7078">
        <ele>100.3</ele>
        <time>2020-06-14T18:24:41Z</time>
      </trkpt>
      <trkpt lat="49.61146" lon="-1.70773">
        <ele>100.5</ele>
        <time>2020-06-14T18:24:42Z</time>
      </trkpt>
      <trkpt lat="49.61147" lon="-1.70766">
        <ele>100.7</ele>
        <time>2020-06-14T18:24:43Z</time>
      </trkpt>
      <trkpt lat="49.61149" lon="-1.70761">
        <ele>100.9</ele>
        <time>2020-06-14T18:24:44Z</time>
      </trkpt>
      <trkpt lat="49.6115" lon="-1.70756">
        <ele>101</ele>
        <time>2020-06-14T18:24:45Z</time>
      </trkpt>
      <trkpt lat="49.61151" lon="-1.70751">
        <ele>101.2</ele>
        <time>2020-06-14T18:24:46Z</time>
      </trkpt>
      <trkpt lat="49.61152" lon="-1.70746">
        <ele>101.3</ele>
        <time>2020-06-14T18:24:47Z</time>
      </trkpt>
      <trkpt lat="49.61152" lon="-1.70739">
        <ele>101.5</ele>
        <time>2020-06-14T18:24:48Z</time>
      </trkpt>
      <trkpt lat="49.61152" lon="-1.70736">
        <ele>101.6</ele>
        <time>2020-06-14T18:24:49Z</time>
      </trkpt>
      <trkpt lat="49.61153" lon="-1.70729">
        <ele>101.8</ele>
        <time>2020-06-14T18:24:50Z</time>
      </trkpt>
      <trkpt lat="49.61154" lon="-1.70724">
        <ele>101.9</ele>
        <time>2020-06-14T18:24:51Z</time>
      </trkpt>
      <trkpt lat="49.61155" lon="-1.70722">
        <ele>102</ele>
        <time>2020-06-14T18:24:52Z</time>
      </trkpt>
      <trkpt lat="49.61156" lon="-1.70717">
        <ele>102.1</ele>
        <time>2020-06-14T18:24:53Z</time>
      </trkpt>
      <trkpt lat="49.61157" lon="-1.70711">
        <ele>102.3</ele>
        <time>2020-06-14T18:24:54Z</time>
      </trkpt>
      <trkpt lat="49.61159" lon="-1.70704">
        <ele>102.5</ele>
        <time>2020-06-14T18:24:55Z</time>
      </trkpt>
      <trkpt lat="49.6116" lon="-1.70698">
        <ele>102.7</ele>
        <time>2020-06-14T18:24:56Z</time>
      </trkpt>
      <trkpt lat="49.61162" lon="-1.70692">
        <ele>102.8</ele>
        <time>2020-06-14T18:24:57Z</time>
      </trkpt>
      <trkpt lat="49.61163" lon="-1.70685">
        <ele>103.1</ele>
        <time>2020-06-14T18:24:58Z</time>
      </trkpt>
      <trkpt lat="49.61164" lon="-1.7068">
        <ele>103.2</ele>
        <time>2020-06-14T18:24:59Z</time>
      </trkpt>
      <trkpt lat="49.61165" lon="-1.70675">
        <ele>103.4</ele>
        <time>2020-06-14T18:25:00Z</time>
      </trkpt>
      <trkpt lat="49.61166" lon="-1.70668">
        <ele>103.6</ele>
        <time>2020-06-14T18:25:01Z</time>
      </trkpt>
      <trkpt lat="49.61167" lon="-1.70664">
        <ele>103.8</ele>
        <time>2020-06-14T18:25:02Z</time>
      </trkpt>
      <trkpt lat="49.61168" lon="-1.70658">
        <ele>104</ele>
        <time>2020-06-14T18:25:03Z</time>
      </trkpt>
      <trkpt lat="49.61169" lon="-1.70652">
        <ele>104.1</ele>
        <time>2020-06-14T18:25:04Z</time>
      </trkpt>
      <trkpt lat="49.6117" lon="-1.70648">
        <ele>104.3</ele>
        <time>2020-06-14T18:25:05Z</time>
      </trkpt>
      <trkpt lat="49.6117" lon="-1.70644">
        <ele>104.4</ele>
        <time>2020-06-14T18:25:06Z</time>
      </trkpt>
      <trkpt lat="49.61171" lon="-1.70638">
        <ele>104.6</ele>
        <time>2020-06-14T18:25:07Z</time>
      </trkpt>
      <trkpt lat="49.61171" lon="-1.70636">
        <ele>104.6</ele>
        <time>2020-06-14T18:25:08Z</time>
      </trkpt>
      <trkpt lat="49.61172" lon="-1.7063">
        <ele>104.8</ele>
        <time>2020-06-14T18:25:09Z</time>
      </trkpt>
      <trkpt lat="49.61172" lon="-1.70625">
        <ele>105</ele>
        <time>2020-06-14T18:25:10Z</time>
      </trkpt>
      <trkpt lat="49.61173" lon="-1.7062">
        <ele>105.1</ele>
        <time>2020-06-14T18:25:11Z</time>
      </trkpt>
      <trkpt lat="49.61174" lon="-1.70614">
        <ele>105.3</ele>
        <time>2020-06-14T18:25:12Z</time>
      </trkpt>
      <trkpt lat="49.61175" lon="-1.70608">
        <ele>105.5</ele>
        <time>2020-06-14T18:25:13Z</time>
      </trkpt>
      <trkpt lat="49.61176" lon="-1.70602">
        <ele>105.7</ele>
        <time>2020-06-14T18:25:14Z</time>
      </trkpt>
      <trkpt lat="49.61177" lon="-1.70598">
        <ele>105.8</ele>
        <time>2020-06-14T18:25:15Z</time>
      </trkpt>
      <trkpt lat="49.61178" lon="-1.70592">
        <ele>106</ele>
        <time>2020-06-14T18:25:16Z</time>
      </trkpt>
      <trkpt lat="49.6118" lon="-1.70586">
        <ele>106.2</ele>
        <time>2020-06-14T18:25:17Z</time>
      </trkpt>
      <trkpt lat="49.61181" lon="-1.70579">
        <ele>106.4</ele>
        <time>2020-06-14T18:25:18Z</time>
      </trkpt>
      <trkpt lat="49.61182" lon="-1.70574">
        <ele>106.5</ele>
        <time>2020-06-14T18:25:19Z</time>
      </trkpt>
      <trkpt lat="49.61183" lon="-1.70569">
        <ele>106.7</ele>
        <time>2020-06-14T18:25:20Z</time>
      </trkpt>
      <trkpt lat="49.61185" lon="-1.70564">
        <ele>106.9</ele>
        <time>2020-06-14T18:25:21Z</time>
      </trkpt>
      <trkpt lat="49.61186" lon="-1.7056">
        <ele>107</ele>
        <time>2020-06-14T18:25:22Z</time>
      </trkpt>
      <trkpt lat="49.61187" lon="-1.70554">
        <ele>107.1</ele>
        <time>2020-06-14T18:25:23Z</time>
      </trkpt>
      <trkpt lat="49.61187" lon="-1.70548">
        <ele>107.3</ele>
        <time>2020-06-14T18:25:24Z</time>
      </trkpt>
      <trkpt lat="49.61187" lon="-1.70543">
        <ele>107.5</ele>
        <time>2020-06-14T18:25:25Z</time>
      </trkpt>
      <trkpt lat="49.61188" lon="-1.70538">
        <ele>107.7</ele>
        <time>2020-06-14T18:25:26Z</time>
      </trkpt>
      <trkpt lat="49.61188" lon="-1.70534">
        <ele>107.8</ele>
        <time>2020-06-14T18:25:27Z</time>
      </trkpt>
      <trkpt lat="49.61188" lon="-1.70529">
        <ele>108</ele>
        <time>2020-06-14T18:25:28Z</time>
      </trkpt>
      <trkpt lat="49.61188" lon="-1.70525">
        <ele>108.1</ele>
        <time>2020-06-14T18:25:29Z</time>
      </trkpt>
      <trkpt lat="49.61188" lon="-1.70519">
        <ele>108.3</ele>
        <time>2020-06-14T18:25:30Z</time>
      </trkpt>
      <trkpt lat="49.61189" lon="-1.70517">
        <ele>108.4</ele>
        <time>2020-06-14T18:25:31Z</time>
      </trkpt>
      <trkpt lat="49.61189" lon="-1.70513">
        <ele>108.5</ele>
        <time>2020-06-14T18:25:32Z</time>
      </trkpt>
      <trkpt lat="49.6119" lon="-1.70509">
        <ele>108.7</ele>
        <time>2020-06-14T18:25:33Z</time>
      </trkpt>
      <trkpt lat="49.61191" lon="-1.70504">
        <ele>108.8</ele>
        <time>2020-06-14T18:25:34Z</time>
      </trkpt>
      <trkpt lat="49.61192" lon="-1.70499">
        <ele>109</ele>
        <time>2020-06-14T18:25:35Z</time>
      </trkpt>
      <trkpt lat="49.61194" lon="-1.70491">
        <ele>109.3</ele>
        <time>2020-06-14T18:25:36Z</time>
      </trkpt>
      <trkpt lat="49.61196" lon="-1.70485">
        <ele>109.5</ele>
        <time>2020-06-14T18:25:37Z</time>
      </trkpt>
      <trkpt lat="49.61197" lon="-1.7048">
        <ele>109.7</ele>
        <time>2020-06-14T18:25:38Z</time>
      </trkpt>
      <trkpt lat="49.61198" lon="-1.70474">
        <ele>110</ele>
        <time>2020-06-14T18:25:39Z</time>
      </trkpt>
      <trkpt lat="49.61198" lon="-1.70467">
        <ele>110.2</ele>
        <time>2020-06-14T18:25:40Z</time>
      </trkpt>
      <trkpt lat="49.612" lon="-1.70462">
        <ele>110.5</ele>
        <time>2020-06-14T18:25:41Z</time>
      </trkpt>
      <trkpt lat="49.612" lon="-1.70459">
        <ele>110.6</ele>
        <time>2020-06-14T18:25:42Z</time>
      </trkpt>
      <trkpt lat="49.61202" lon="-1.70454">
        <ele>110.8</ele>
        <time>2020-06-14T18:25:43Z</time>
      </trkpt>
      <trkpt lat="49.61203" lon="-1.70448">
        <ele>111.1</ele>
        <time>2020-06-14T18:25:44Z</time>
      </trkpt>
      <trkpt lat="49.61204" lon="-1.70442">
        <ele>111.4</ele>
        <time>2020-06-14T18:25:45Z</time>
      </trkpt>
      <trkpt lat="49.61205" lon="-1.70436">
        <ele>111.7</ele>
        <time>2020-06-14T18:25:46Z</time>
      </trkpt>
      <trkpt lat="49.61206" lon="-1.7043">
        <ele>111.9</ele>
        <time>2020-06-14T18:25:47Z</time>
      </trkpt>
      <trkpt lat="49.61208" lon="-1.70423">
        <ele>112.3</ele>
        <time>2020-06-14T18:25:48Z</time>
      </trkpt>
      <trkpt lat="49.6121" lon="-1.70416">
        <ele>112.7</ele>
        <time>2020-06-14T18:25:49Z</time>
      </trkpt>
      <trkpt lat="49.61211" lon="-1.70411">
        <ele>112.9</ele>
        <time>2020-06-14T18:25:50Z</time>
      </trkpt>
      <trkpt lat="49.61213" lon="-1.70407">
        <ele>113.1</ele>
        <time>2020-06-14T18:25:51Z</time>
      </trkpt>
      <trkpt lat="49.61215" lon="-1.70402">
        <ele>113.4</ele>
        <time>2020-06-14T18:25:52Z</time>
      </trkpt>
      <trkpt lat="49.61215" lon="-1.70397">
        <ele>113.6</ele>
        <time>2020-06-14T18:25:53Z</time>
      </trkpt>
      <trkpt lat="49.61215" lon="-1.70392">
        <ele>113.9</ele>
        <time>2020-06-14T18:25:54Z</time>
      </trkpt>
      <trkpt lat="49.61215" lon="-1.7039">
        <ele>114</ele>
        <time>2020-06-14T18:25:55Z</time>
      </trkpt>
      <trkpt lat="49.61217" lon="-1.70386">
        <ele>114.3</ele>
        <time>2020-06-14T18:25:56Z</time>
      </trkpt>
      <trkpt lat="49.61217" lon="-1.7038">
        <ele>114.6</ele>
        <time>2020-06-14T18:25:57Z</time>
      </trkpt>
      <trkpt lat="49.61218" lon="-1.70375">
        <ele>114.8</ele>
        <time>2020-06-14T18:25:58Z</time>
      </trkpt>
      <trkpt lat="49.61219" lon="-1.70368">
        <ele>115.1</ele>
        <time>2020-06-14T18:25:59Z</time>
      </trkpt>
      <trkpt lat="49.6122" lon="-1.70362">
        <ele>115.5</ele>
        <time>2020-06-14T18:26:00Z</time>
      </trkpt>
      <trkpt lat="49.61222" lon="-1.70358">
        <ele>115.8</ele>
        <time>2020-06-14T18:26:01Z</time>
      </trkpt>
      <trkpt lat="49.61223" lon="-1.70353">
        <ele>116.1</ele>
        <time>2020-06-14T18:26:02Z</time>
      </trkpt>
      <trkpt lat="49.61225" lon="-1.70348">
        <ele>116.4</ele>
        <time>2020-06-14T18:26:03Z</time>
      </trkpt>
      <trkpt lat="49.61226" lon="-1.70342">
        <ele>116.7</ele>
        <time>2020-06-14T18:26:04Z</time>
      </trkpt>
      <trkpt lat="49.61227" lon="-1.70338">
        <ele>117</ele>
        <time>2020-06-14T18:26:05Z</time>
      </trkpt>
      <trkpt lat="49.61228" lon="-1.70334">
        <ele>117.3</ele>
        <time>2020-06-14T18:26:06Z</time>
      </trkpt>
      <trkpt lat="49.6123" lon="-1.70329">
        <ele>117.7</ele>
        <time>2020-06-14T18:26:07Z</time>
      </trkpt>
      <trkpt lat="49.61232" lon="-1.70323">
        <ele>118.1</ele>
        <time>2020-06-14T18:26:08Z</time>
      </trkpt>
      <trkpt lat="49.61232" lon="-1.70316">
        <ele>118.5</ele>
        <time>2020-06-14T18:26:09Z</time>
      </trkpt>
      <trkpt lat="49.61232" lon="-1.70313">
        <ele>118.7</ele>
        <time>2020-06-14T18:26:10Z</time>
      </trkpt>
      <trkpt lat="49.61232" lon="-1.70309">
        <ele>119</ele>
        <time>2020-06-14T18:26:11Z</time>
      </trkpt>
      <trkpt lat="49.61232" lon="-1.70303">
        <ele>119.4</ele>
        <time>2020-06-14T18:26:12Z</time>
      </trkpt>
      <trkpt lat="49.61232" lon="-1.70301">
        <ele>119.6</ele>
        <time>2020-06-14T18:26:13Z</time>
      </trkpt>
      <trkpt lat="49.61233" lon="-1.70296">
        <ele>119.9</ele>
        <time>2020-06-14T18:26:14Z</time>
      </trkpt>
      <trkpt lat="49.61233" lon="-1.70294">
        <ele>120</ele>
        <time>2020-06-14T18:26:15Z</time>
      </trkpt>
      <trkpt lat="49.61235" lon="-1.7029">
        <ele>120.3</ele>
        <time>2020-06-14T18:26:16Z</time>
      </trkpt>
      <trkpt lat="49.61237" lon="-1.70285">
        <ele>120.5</ele>
        <time>2020-06-14T18:26:17Z</time>
      </trkpt>
      <trkpt lat="49.61239" lon="-1.70282">
        <ele>120.7</ele>
        <time>2020-06-14T18:26:18Z</time>
      </trkpt>
      <trkpt lat="49.6124" lon="-1.70278">
        <ele>120.8</ele>
        <time>2020-06-14T18:26:19Z</time>
      </trkpt>
      <trkpt lat="49.61243" lon="-1.70272">
        <ele>121</ele>
        <time>2020-06-14T18:26:20Z</time>
      </trkpt>
      <trkpt lat="49.61244" lon="-1.70269">
        <ele>121.2</ele>
        <time>2020-06-14T18:26:21Z</time>
      </trkpt>
      <trkpt lat="49.61246" lon="-1.70264">
        <ele>121.4</ele>
        <time>2020-06-14T18:26:22Z</time>
      </trkpt>
      <trkpt lat="49.61247" lon="-1.70258">
        <ele>121.6</ele>
        <time>2020-06-14T18:26:23Z</time>
      </trkpt>
      <trkpt lat="49.61248" lon="-1.70253">
        <ele>121.8</ele>
        <time>2020-06-14T18:26:24Z</time>
      </trkpt>
      <trkpt lat="49.6125" lon="-1.70249">
        <ele>122</ele>
        <time>2020-06-14T18:26:25Z</time>
      </trkpt>
      <trkpt lat="49.61252" lon="-1.70244">
        <ele>122.3</ele>
        <time>2020-06-14T18:26:26Z</time>
      </trkpt>
      <trkpt lat="49.61254" lon="-1.7024">
        <ele>122.5</ele>
        <time>2020-06-14T18:26:27Z</time>
      </trkpt>
      <trkpt lat="49.61256" lon="-1.70234">
        <ele>122.8</ele>
        <time>2020-06-14T18:26:28Z</time>
      </trkpt>
      <trkpt lat="49.61258" lon="-1.70227">
        <ele>123.2</ele>
        <time>2020-06-14T18:26:29Z</time>
      </trkpt>
      <trkpt lat="49.6126" lon="-1.70222">
        <ele>123.5</ele>
        <time>2020-06-14T18:26:30Z</time>
      </trkpt>
      <trkpt lat="49.61262" lon="-1.70217">
        <ele>123.8</ele>
        <time>2020-06-14T18:26:31Z</time>
      </trkpt>
      <trkpt lat="49.61263" lon="-1.70212">
        <ele>124.2</ele>
        <time>2020-06-14T18:26:32Z</time>
      </trkpt>
      <trkpt lat="49.61265" lon="-1.70208">
        <ele>124.4</ele>
        <time>2020-06-14T18:26:33Z</time>
      </trkpt>
      <trkpt lat="49.61266" lon="-1.70206">
        <ele>124.5</ele>
        <time>2020-06-14T18:26:34Z</time>
      </trkpt>
      <trkpt lat="49.61267" lon="-1.70204">
        <ele>124.6</ele>
        <time>2020-06-14T18:26:35Z</time>
      </trkpt>
      <trkpt lat="49.61269" lon="-1.702">
        <ele>124.8</ele>
        <time>2020-06-14T18:26:36Z</time>
      </trkpt>
      <trkpt lat="49.61271" lon="-1.70196">
        <ele>124.9</ele>
        <time>2020-06-14T18:26:37Z</time>
      </trkpt>
      <trkpt lat="49.61272" lon="-1.70192">
        <ele>125.1</ele>
        <time>2020-06-14T18:26:38Z</time>
      </trkpt>
      <trkpt lat="49.61275" lon="-1.70185">
        <ele>125.4</ele>
        <time>2020-06-14T18:26:39Z</time>
      </trkpt>
      <trkpt lat="49.61276" lon="-1.70179">
        <ele>125.6</ele>
        <time>2020-06-14T18:26:40Z</time>
      </trkpt>
      <trkpt lat="49.61278" lon="-1.70175">
        <ele>125.8</ele>
        <time>2020-06-14T18:26:41Z</time>
      </trkpt>
      <trkpt lat="49.61279" lon="-1.7017">
        <ele>126</ele>
        <time>2020-06-14T18:26:42Z</time>
      </trkpt>
      <trkpt lat="49.6128" lon="-1.70165">
        <ele>126.2</ele>
        <time>2020-06-14T18:26:43Z</time>
      </trkpt>
      <trkpt lat="49.61282" lon="-1.7016">
        <ele>126.4</ele>
        <time>2020-06-14T18:26:44Z</time>
      </trkpt>
      <trkpt lat="49.61284" lon="-1.70154">
        <ele>126.7</ele>
        <time>2020-06-14T18:26:45Z</time>
      </trkpt>
      <trkpt lat="49.61284" lon="-1.70152">
        <ele>126.9</ele>
        <time>2020-06-14T18:26:46Z</time>
      </trkpt>
      <trkpt lat="49.61285" lon="-1.70148">
        <ele>127.1</ele>
        <time>2020-06-14T18:26:47Z</time>
      </trkpt>
      <trkpt lat="49.61286" lon="-1.70144">
        <ele>127.3</ele>
        <time>2020-06-14T18:26:48Z</time>
      </trkpt>
      <trkpt lat="49.61288" lon="-1.70139">
        <ele>127.5</ele>
        <time>2020-06-14T18:26:49Z</time>
      </trkpt>
      <trkpt lat="49.61289" lon="-1.70134">
        <ele>127.8</ele>
        <time>2020-06-14T18:26:50Z</time>
      </trkpt>
      <trkpt lat="49.61289" lon="-1.7013">
        <ele>128</ele>
        <time>2020-06-14T18:26:51Z</time>
      </trkpt>
      <trkpt lat="49.61288" lon="-1.70125">
        <ele>128.3</ele>
        <time>2020-06-14T18:26:52Z</time>
      </trkpt>
      <trkpt lat="49.6129" lon="-1.70119">
        <ele>128.6</ele>
        <time>2020-06-14T18:26:53Z</time>
      </trkpt>
      <trkpt lat="49.6129" lon="-1.70117">
        <ele>128.7</ele>
        <time>2020-06-14T18:26:54Z</time>
      </trkpt>
      <trkpt lat="49.61291" lon="-1.70112">
        <ele>128.9</ele>
        <time>2020-06-14T18:26:55Z</time>
      </trkpt>
      <trkpt lat="49.61292" lon="-1.70106">
        <ele>129.3</ele>
        <time>2020-06-14T18:26:56Z</time>
      </trkpt>
      <trkpt lat="49.61292" lon="-1.70101">
        <ele>129.5</ele>
        <time>2020-06-14T18:26:57Z</time>
      </trkpt>
      <trkpt lat="49.61292" lon="-1.70099">
        <ele>129.7</ele>
        <time>2020-06-14T18:26:58Z</time>
      </trkpt>
      <trkpt lat="49.61293" lon="-1.70094">
        <ele>129.9</ele>
        <time>2020-06-14T18:26:59Z</time>
      </trkpt>
      <trkpt lat="49.61294" lon="-1.7009">
        <ele>130.2</ele>
        <time>2020-06-14T18:27:00Z</time>
      </trkpt>
      <trkpt lat="49.61296" lon="-1.70086">
        <ele>130.5</ele>
        <time>2020-06-14T18:27:01Z</time>
      </trkpt>
      <trkpt lat="49.61298" lon="-1.70083">
        <ele>130.7</ele>
        <time>2020-06-14T18:27:02Z</time>
      </trkpt>
      <trkpt lat="49.61299" lon="-1.70077">
        <ele>131.1</ele>
        <time>2020-06-14T18:27:03Z</time>
      </trkpt>
      <trkpt lat="49.61299" lon="-1.70074">
        <ele>131.2</ele>
        <time>2020-06-14T18:27:04Z</time>
      </trkpt>
      <trkpt lat="49.613" lon="-1.7007">
        <ele>131.5</ele>
        <time>2020-06-14T18:27:05Z</time>
      </trkpt>
      <trkpt lat="49.61301" lon="-1.70064">
        <ele>131.9</ele>
        <time>2020-06-14T18:27:06Z</time>
      </trkpt>
      <trkpt lat="49.61301" lon="-1.7006">
        <ele>132</ele>
        <time>2020-06-14T18:27:07Z</time>
      </trkpt>
      <trkpt lat="49.61302" lon="-1.70055">
        <ele>132.3</ele>
        <time>2020-06-14T18:27:08Z</time>
      </trkpt>
      <trkpt lat="49.61303" lon="-1.70053">
        <ele>132.4</ele>
        <time>2020-06-14T18:27:09Z</time>
      </trkpt>
      <trkpt lat="49.61303" lon="-1.70047">
        <ele>132.7</ele>
        <time>2020-06-14T18:27:10Z</time>
      </trkpt>
      <trkpt lat="49.61304" lon="-1.70042">
        <ele>132.9</ele>
        <time>2020-06-14T18:27:11Z</time>
      </trkpt>
      <trkpt lat="49.61305" lon="-1.70037">
        <ele>133.2</ele>
        <time>2020-06-14T18:27:12Z</time>
      </trkpt>
      <trkpt lat="49.61305" lon="-1.70033">
        <ele>133.4</ele>
        <time>2020-06-14T18:27:13Z</time>
      </trkpt>
      <trkpt lat="49.61308" lon="-1.70029">
        <ele>133.6</ele>
        <time>2020-06-14T18:27:14Z</time>
      </trkpt>
      <trkpt lat="49.61308" lon="-1.70028">
        <ele>133.7</ele>
        <time>2020-06-14T18:27:15Z</time>
      </trkpt>
      <trkpt lat="49.6131" lon="-1.70024">
        <ele>133.9</ele>
        <time>2020-06-14T18:27:16Z</time>
      </trkpt>
      <trkpt lat="49.6131" lon="-1.70019">
        <ele>134.2</ele>
        <time>2020-06-14T18:27:17Z</time>
      </trkpt>
      <trkpt lat="49.61311" lon="-1.70017">
        <ele>134.3</ele>
        <time>2020-06-14T18:27:18Z</time>
      </trkpt>
      <trkpt lat="49.61312" lon="-1.70012">
        <ele>134.6</ele>
        <time>2020-06-14T18:27:19Z</time>
      </trkpt>
      <trkpt lat="49.61312" lon="-1.7001">
        <ele>134.7</ele>
        <time>2020-06-14T18:27:20Z</time>
      </trkpt>
      <trkpt lat="49.61313" lon="-1.70005">
        <ele>135</ele>
        <time>2020-06-14T18:27:21Z</time>
      </trkpt>
      <trkpt lat="49.61314" lon="-1.70001">
        <ele>135.2</ele>
        <time>2020-06-14T18:27:22Z</time>
      </trkpt>
      <trkpt lat="49.61315" lon="-1.69996">
        <ele>135.5</ele>
        <time>2020-06-14T18:27:23Z</time>
      </trkpt>
      <trkpt lat="49.61315" lon="-1.69994">
        <ele>135.6</ele>
        <time>2020-06-14T18:27:24Z</time>
      </trkpt>
      <trkpt lat="49.61315" lon="-1.69992">
        <ele>135.8</ele>
        <time>2020-06-14T18:27:25Z</time>
      </trkpt>
      <trkpt lat="49.61315" lon="-1.69989">
        <ele>135.9</ele>
        <time>2020-06-14T18:27:26Z</time>
      </trkpt>
      <trkpt lat="49.61315" lon="-1.69983">
        <ele>136.2</ele>
        <time>2020-06-14T18:27:27Z</time>
      </trkpt>
      <trkpt lat="49.61316" lon="-1.69978">
        <ele>136.5</ele>
        <time>2020-06-14T18:27:28Z</time>
      </trkpt>
      <trkpt lat="49.61316" lon="-1.69976">
        <ele>136.6</ele>
        <time>2020-06-14T18:27:29Z</time>
      </trkpt>
      <trkpt lat="49.61318" lon="-1.69972">
        <ele>136.9</ele>
        <time>2020-06-14T18:27:30Z</time>
      </trkpt>
      <trkpt lat="49.61318" lon="-1.6997">
        <ele>137</ele>
        <time>2020-06-14T18:27:31Z</time>
      </trkpt>
      <trkpt lat="49.61318" lon="-1.69965">
        <ele>137.3</ele>
        <time>2020-06-14T18:27:32Z</time>
      </trkpt>
      <trkpt lat="49.61318" lon="-1.6996">
        <ele>137.5</ele>
        <time>2020-06-14T18:27:33Z</time>
      </trkpt>
      <trkpt lat="49.61319" lon="-1.69956">
        <ele>137.7</ele>
        <time>2020-06-14T18:27:34Z</time>
      </trkpt>
      <trkpt lat="49.6132" lon="-1.6995">
        <ele>138</ele>
        <time>2020-06-14T18:27:35Z</time>
      </trkpt>
      <trkpt lat="49.61321" lon="-1.69948">
        <ele>138.1</ele>
        <time>2020-06-14T18:27:36Z</time>
      </trkpt>
      <trkpt lat="49.61322" lon="-1.69942">
        <ele>138.4</ele>
        <time>2020-06-14T18:27:37Z</time>
      </trkpt>
      <trkpt lat="49.61323" lon="-1.69938">
        <ele>138.6</ele>
        <time>2020-06-14T18:27:38Z</time>
      </trkpt>
      <trkpt lat="49.61325" lon="-1.69932">
        <ele>139</ele>
        <time>2020-06-14T18:27:39Z</time>
      </trkpt>
      <trkpt lat="49.61326" lon="-1.69927">
        <ele>139.2</ele>
        <time>2020-06-14T18:27:40Z</time>
      </trkpt>
      <trkpt lat="49.61327" lon="-1.69923">
        <ele>139.5</ele>
        <time>2020-06-14T18:27:41Z</time>
      </trkpt>
      <trkpt lat="49.61328" lon="-1.69919">
        <ele>139.7</ele>
        <time>2020-06-14T18:27:42Z</time>
      </trkpt>
      <trkpt lat="49.61329" lon="-1.69914">
        <ele>139.9</ele>
        <time>2020-06-14T18:27:43Z</time>
      </trkpt>
      <trkpt lat="49.6133" lon="-1.69909">
        <ele>140.2</ele>
        <time>2020-06-14T18:27:44Z</time>
      </trkpt>
      <trkpt lat="49.61331" lon="-1.69904">
        <ele>140.5</ele>
        <time>2020-06-14T18:27:45Z</time>
      </trkpt>
      <trkpt lat="49.61331" lon="-1.69899">
        <ele>140.8</ele>
        <time>2020-06-14T18:27:46Z</time>
      </trkpt>
      <trkpt lat="49.61332" lon="-1.69895">
        <ele>141</ele>
        <time>2020-06-14T18:27:47Z</time>
      </trkpt>
      <trkpt lat="49.61333" lon="-1.69889">
        <ele>141.3</ele>
        <time>2020-06-14T18:27:48Z</time>
      </trkpt>
      <trkpt lat="49.61334" lon="-1.69884">
        <ele>141.5</ele>
        <time>2020-06-14T18:27:49Z</time>
      </trkpt>
      <trkpt lat="49.61336" lon="-1.69878">
        <ele>141.8</ele>
        <time>2020-06-14T18:27:50Z</time>
      </trkpt>
      <trkpt lat="49.61336" lon="-1.69876">
        <ele>141.9</ele>
        <time>2020-06-14T18:27:51Z</time>
      </trkpt>
      <trkpt lat="49.61337" lon="-1.69872">
        <ele>142.1</ele>
        <time>2020-06-14T18:27:52Z</time>
      </trkpt>
      <trkpt lat="49.61339" lon="-1.69867">
        <ele>142.3</ele>
        <time>2020-06-14T18:27:53Z</time>
      </trkpt>
      <trkpt lat="49.6134" lon="-1.69863">
        <ele>142.5</ele>
        <time>2020-06-14T18:27:54Z</time>
      </trkpt>
      <trkpt lat="49.61341" lon="-1.69859">
        <ele>142.7</ele>
        <time>2020-06-14T18:27:55Z</time>
      </trkpt>
      <trkpt lat="49.61342" lon="-1.69853">
        <ele>143</ele>
        <time>2020-06-14T18:27:56Z</time>
      </trkpt>
      <trkpt lat="49.61343" lon="-1.69851">
        <ele>143.1</ele>
        <time>2020-06-14T18:27:57Z</time>
      </trkpt>
      <trkpt lat="49.61344" lon="-1.69846">
        <ele>143.3</ele>
        <time>2020-06-14T18:27:58Z</time>
      </trkpt>
      <trkpt lat="49.61344" lon="-1.69841">
        <ele>143.5</ele>
        <time>2020-06-14T18:27:59Z</time>
      </trkpt>
      <trkpt lat="49.61345" lon="-1.69836">
        <ele>143.7</ele>
        <time>2020-06-14T18:28:00Z</time>
      </trkpt>
      <trkpt lat="49.61345" lon="-1.69834">
        <ele>143.8</ele>
        <time>2020-06-14T18:28:01Z</time>
      </trkpt>
      <trkpt lat="49.61345" lon="-1.6983">
        <ele>144</ele>
        <time>2020-06-14T18:28:02Z</time>
      </trkpt>
      <trkpt lat="49.61346" lon="-1.69824">
        <ele>144.2</ele>
        <time>2020-06-14T18:28:03Z</time>
      </trkpt>
      <trkpt lat="49.61347" lon="-1.69822">
        <ele>144.3</ele>
        <time>2020-06-14T18:28:04Z</time>
      </trkpt>
      <trkpt lat="49.61348" lon="-1.69817">
        <ele>144.5</ele>
        <time>2020-06-14T18:28:05Z</time>
      </trkpt>
      <trkpt lat="49.61348" lon="-1.69814">
        <ele>144.6</ele>
        <time>2020-06-14T18:28:06Z</time>
      </trkpt>
      <trkpt lat="49.61349" lon="-1.69808">
        <ele>144.8</ele>
        <time>2020-06-14T18:28:07Z</time>
      </trkpt>
      <trkpt lat="49.61349" lon="-1.69805">
        <ele>144.9</ele>
        <time>2020-06-14T18:28:08Z</time>
      </trkpt>
      <trkpt lat="49.61349" lon="-1.69801">
        <ele>145.1</ele>
        <time>2020-06-14T18:28:09Z</time>
      </trkpt>
      <trkpt lat="49.61351" lon="-1.69795">
        <ele>145.3</ele>
        <time>2020-06-14T18:28:10Z</time>
      </trkpt>
      <trkpt lat="49.61351" lon="-1.69793">
        <ele>145.3</ele>
        <time>2020-06-14T18:28:11Z</time>
      </trkpt>
      <trkpt lat="49.61352" lon="-1.69787">
        <ele>145.5</ele>
        <time>2020-06-14T18:28:12Z</time>
      </trkpt>
      <trkpt lat="49.61352" lon="-1.69781">
        <ele>145.7</ele>
        <time>2020-06-14T18:28:13Z</time>
      </trkpt>
      <trkpt lat="49.61352" lon="-1.6978">
        <ele>145.7</ele>
        <time>2020-06-14T18:28:14Z</time>
      </trkpt>
      <trkpt lat="49.61353" lon="-1.69776">
        <ele>145.8</ele>
        <time>2020-06-14T18:28:15Z</time>
      </trkpt>
      <trkpt lat="49.61353" lon="-1.69775">
        <ele>145.9</ele>
        <time>2020-06-14T18:28:16Z</time>
      </trkpt>
      <trkpt lat="49.61355" lon="-1.6977">
        <ele>146</ele>
        <time>2020-06-14T18:28:17Z</time>
      </trkpt>
      <trkpt lat="49.61356" lon="-1.69765">
        <ele>146.1</ele>
        <time>2020-06-14T18:28:18Z</time>
      </trkpt>
      <trkpt lat="49.61355" lon="-1.69759">
        <ele>146.3</ele>
        <time>2020-06-14T18:28:19Z</time>
      </trkpt>
      <trkpt lat="49.61355" lon="-1.69756">
        <ele>146.4</ele>
        <time>2020-06-14T18:28:20Z</time>
      </trkpt>
      <trkpt lat="49.61356" lon="-1.69749">
        <ele>146.5</ele>
        <time>2020-06-14T18:28:21Z</time>
      </trkpt>
      <trkpt lat="49.61357" lon="-1.69744">
        <ele>146.6</ele>
        <time>2020-06-14T18:28:22Z</time>
      </trkpt>
      <trkpt lat="49.61358" lon="-1.69739">
        <ele>146.7</ele>
        <time>2020-06-14T18:28:23Z</time>
      </trkpt>
      <trkpt lat="49.61359" lon="-1.69734">
        <ele>146.8</ele>
        <time>2020-06-14T18:28:24Z</time>
      </trkpt>
      <trkpt lat="49.6136" lon="-1.69729">
        <ele>146.9</ele>
        <time>2020-06-14T18:28:25Z</time>
      </trkpt>
      <trkpt lat="49.61361" lon="-1.69724">
        <ele>147</ele>
        <time>2020-06-14T18:28:26Z</time>
      </trkpt>
      <trkpt lat="49.61361" lon="-1.69718">
        <ele>147.1</ele>
        <time>2020-06-14T18:28:27Z</time>
      </trkpt>
      <trkpt lat="49.61362" lon="-1.69711">
        <ele>147.2</ele>
        <time>2020-06-14T18:28:28Z</time>
      </trkpt>
      <trkpt lat="49.61363" lon="-1.69705">
        <ele>147.2</ele>
        <time>2020-06-14T18:28:29Z</time>
      </trkpt>
      <trkpt lat="49.61363" lon="-1.69702">
        <ele>147.3</ele>
        <time>2020-06-14T18:28:30Z</time>
      </trkpt>
      <trkpt lat="49.61364" lon="-1.69696">
        <ele>147.3</ele>
        <time>2020-06-14T18:28:31Z</time>
      </trkpt>
      <trkpt lat="49.61365" lon="-1.69692">
        <ele>147.3</ele>
        <time>2020-06-14T18:28:32Z</time>
      </trkpt>
      <trkpt lat="49.61367" lon="-1.69686">
        <ele>147.4</ele>
        <time>2020-06-14T18:28:33Z</time>
      </trkpt>
      <trkpt lat="49.61368" lon="-1.69684">
        <ele>147.4</ele>
        <time>2020-06-14T18:28:34Z</time>
      </trkpt>
      <trkpt lat="49.6137" lon="-1.69678">
        <ele>147.4</ele>
        <time>2020-06-14T18:28:35Z</time>
      </trkpt>
      <trkpt lat="49.61371" lon="-1.69672">
        <ele>147.4</ele>
        <time>2020-06-14T18:28:36Z</time>
      </trkpt>
      <trkpt lat="49.61372" lon="-1.69668">
        <ele>147.4</ele>
        <time>2020-06-14T18:28:37Z</time>
      </trkpt>
      <trkpt lat="49.61373" lon="-1.6966">
        <ele>147.4</ele>
        <time>2020-06-14T18:28:38Z</time>
      </trkpt>
      <trkpt lat="49.61373" lon="-1.69652">
        <ele>147.4</ele>
        <time>2020-06-14T18:28:39Z</time>
      </trkpt>
      <trkpt lat="49.61374" lon="-1.69645">
        <ele>147.4</ele>
        <time>2020-06-14T18:28:40Z</time>
      </trkpt>
      <trkpt lat="49.61375" lon="-1.6964">
        <ele>147.4</ele>
        <time>2020-06-14T18:28:41Z</time>
      </trkpt>
      <trkpt lat="49.61376" lon="-1.69635">
        <ele>147.4</ele>
        <time>2020-06-14T18:28:42Z</time>
      </trkpt>
      <trkpt lat="49.61377" lon="-1.69629">
        <ele>147.4</ele>
        <time>2020-06-14T18:28:43Z</time>
      </trkpt>
      <trkpt lat="49.61378" lon="-1.69624">
        <ele>147.4</ele>
        <time>2020-06-14T18:28:44Z</time>
      </trkpt>
      <trkpt lat="49.61379" lon="-1.69619">
        <ele>147.4</ele>
        <time>2020-06-14T18:28:45Z</time>
      </trkpt>
      <trkpt lat="49.6138" lon="-1.69613">
        <ele>147.3</ele>
        <time>2020-06-14T18:28:46Z</time>
      </trkpt>
      <trkpt lat="49.61381" lon="-1.69607">
        <ele>147.3</ele>
        <time>2020-06-14T18:28:47Z</time>
      </trkpt>
      <trkpt lat="49.61383" lon="-1.69601">
        <ele>147.3</ele>
        <time>2020-06-14T18:28:48Z</time>
      </trkpt>
      <trkpt lat="49.61383" lon="-1.69593">
        <ele>147.2</ele>
        <time>2020-06-14T18:28:49Z</time>
      </trkpt>
      <trkpt lat="49.61385" lon="-1.69587">
        <ele>147.1</ele>
        <time>2020-06-14T18:28:50Z</time>
      </trkpt>
      <trkpt lat="49.61386" lon="-1.69581">
        <ele>147.1</ele>
        <time>2020-06-14T18:28:51Z</time>
      </trkpt>
      <trkpt lat="49.61387" lon="-1.69575">
        <ele>147</ele>
        <time>2020-06-14T18:28:52Z</time>
      </trkpt>
      <trkpt lat="49.61388" lon="-1.69569">
        <ele>147</ele>
        <time>2020-06-14T18:28:53Z</time>
      </trkpt>
      <trkpt lat="49.61389" lon="-1.69563">
        <ele>146.9</ele>
        <time>2020-06-14T18:28:54Z</time>
      </trkpt>
      <trkpt lat="49.6139" lon="-1.69556">
        <ele>146.8</ele>
        <time>2020-06-14T18:28:55Z</time>
      </trkpt>
      <trkpt lat="49.61392" lon="-1.69552">
        <ele>146.7</ele>
        <time>2020-06-14T18:28:56Z</time>
      </trkpt>
      <trkpt lat="49.61393" lon="-1.69546">
        <ele>146.6</ele>
        <time>2020-06-14T18:28:57Z</time>
      </trkpt>
      <trkpt lat="49.61394" lon="-1.6954">
        <ele>146.5</ele>
        <time>2020-06-14T18:28:58Z</time>
      </trkpt>
      <trkpt lat="49.61395" lon="-1.69535">
        <ele>146.4</ele>
        <time>2020-06-14T18:28:59Z</time>
      </trkpt>
      <trkpt lat="49.61396" lon="-1.69529">
        <ele>146.3</ele>
        <time>2020-06-14T18:29:00Z</time>
      </trkpt>
      <trkpt lat="49.61397" lon="-1.69523">
        <ele>146.2</ele>
        <time>2020-06-14T18:29:01Z</time>
      </trkpt>
      <trkpt lat="49.61399" lon="-1.69518">
        <ele>146.1</ele>
        <time>2020-06-14T18:29:02Z</time>
      </trkpt>
      <trkpt lat="49.61401" lon="-1.69511">
        <ele>146</ele>
        <time>2020-06-14T18:29:03Z</time>
      </trkpt>
      <trkpt lat="49.61402" lon="-1.69506">
        <ele>145.9</ele>
        <time>2020-06-14T18:29:04Z</time>
      </trkpt>
      <trkpt lat="49.61402" lon="-1.69499">
        <ele>145.8</ele>
        <time>2020-06-14T18:29:05Z</time>
      </trkpt>
      <trkpt lat="49.61401" lon="-1.69494">
        <ele>145.7</ele>
        <time>2020-06-14T18:29:06Z</time>
      </trkpt>
      <trkpt lat="49.614" lon="-1.69487">
        <ele>145.5</ele>
        <time>2020-06-14T18:29:07Z</time>
      </trkpt>
      <trkpt lat="49.614" lon="-1.69483">
        <ele>145.4</ele>
        <time>2020-06-14T18:29:08Z</time>
      </trkpt>
      <trkpt lat="49.61401" lon="-1.69475">
        <ele>145.2</ele>
        <time>2020-06-14T18:29:09Z</time>
      </trkpt>
      <trkpt lat="49.61402" lon="-1.69468">
        <ele>145.1</ele>
        <time>2020-06-14T18:29:10Z</time>
      </trkpt>
      <trkpt lat="49.61403" lon="-1.69459">
        <ele>144.9</ele>
        <time>2020-06-14T18:29:11Z</time>
      </trkpt>
      <trkpt lat="49.61404" lon="-1.69452">
        <ele>144.7</ele>
        <time>2020-06-14T18:29:12Z</time>
      </trkpt>
      <trkpt lat="49.61404" lon="-1.69443">
        <ele>144.5</ele>
        <time>2020-06-14T18:29:13Z</time>
      </trkpt>
      <trkpt lat="49.61406" lon="-1.69435">
        <ele>144.4</ele>
        <time>2020-06-14T18:29:14Z</time>
      </trkpt>
      <trkpt lat="49.61407" lon="-1.69426">
        <ele>144.2</ele>
        <time>2020-06-14T18:29:15Z</time>
      </trkpt>
      <trkpt lat="49.61408" lon="-1.69416">
        <ele>144</ele>
        <time>2020-06-14T18:29:16Z</time>
      </trkpt>
      <trkpt lat="49.61409" lon="-1.69407">
        <ele>143.8</ele>
        <time>2020-06-14T18:29:17Z</time>
      </trkpt>
      <trkpt lat="49.6141" lon="-1.69398">
        <ele>143.6</ele>
        <time>2020-06-14T18:29:18Z</time>
      </trkpt>
      <trkpt lat="49.6141" lon="-1.69389">
        <ele>143.4</ele>
        <time>2020-06-14T18:29:19Z</time>
      </trkpt>
      <trkpt lat="49.61411" lon="-1.69381">
        <ele>143.3</ele>
        <time>2020-06-14T18:29:20Z</time>
      </trkpt>
      <trkpt lat="49.61412" lon="-1.69372">
        <ele>143.2</ele>
        <time>2020-06-14T18:29:21Z</time>
      </trkpt>
      <trkpt lat="49.61412" lon="-1.69364">
        <ele>143</ele>
        <time>2020-06-14T18:29:22Z</time>
      </trkpt>
      <trkpt lat="49.61414" lon="-1.69356">
        <ele>142.9</ele>
        <time>2020-06-14T18:29:23Z</time>
      </trkpt>
      <trkpt lat="49.61415" lon="-1.69348">
        <ele>142.8</ele>
        <time>2020-06-14T18:29:24Z</time>
      </trkpt>
      <trkpt lat="49.61414" lon="-1.69338">
        <ele>142.6</ele>
        <time>2020-06-14T18:29:25Z</time>
      </trkpt>
      <trkpt lat="49.61414" lon="-1.6933">
        <ele>142.5</ele>
        <time>2020-06-14T18:29:26Z</time>
      </trkpt>
      <trkpt lat="49.61414" lon="-1.69322">
        <ele>142.4</ele>
        <time>2020-06-14T18:29:27Z</time>
      </trkpt>
      <trkpt lat="49.61415" lon="-1.69314">
        <ele>142.2</ele>
        <time>2020-06-14T18:29:28Z</time>
      </trkpt>
      <trkpt lat="49.61417" lon="-1.69307">
        <ele>142.1</ele>
        <time>2020-06-14T18:29:29Z</time>
      </trkpt>
      <trkpt lat="49.61419" lon="-1.69299">
        <ele>142</ele>
        <time>2020-06-14T18:29:30Z</time>
      </trkpt>
      <trkpt lat="49.6142" lon="-1.6929">
        <ele>141.9</ele>
        <time>2020-06-14T18:29:31Z</time>
      </trkpt>
      <trkpt lat="49.61421" lon="-1.69281">
        <ele>141.8</ele>
        <time>2020-06-14T18:29:32Z</time>
      </trkpt>
      <trkpt lat="49.61421" lon="-1.69273">
        <ele>141.7</ele>
        <time>2020-06-14T18:29:33Z</time>
      </trkpt>
      <trkpt lat="49.61421" lon="-1.69263">
        <ele>141.6</ele>
        <time>2020-06-14T18:29:34Z</time>
      </trkpt>
      <trkpt lat="49.61422" lon="-1.69256">
        <ele>141.5</ele>
        <time>2020-06-14T18:29:35Z</time>
      </trkpt>
      <trkpt lat="49.61423" lon="-1.69247">
        <ele>141.4</ele>
        <time>2020-06-14T18:29:36Z</time>
      </trkpt>
      <trkpt lat="49.61425" lon="-1.69237">
        <ele>141.3</ele>
        <time>2020-06-14T18:29:37Z</time>
      </trkpt>
      <trkpt lat="49.61426" lon="-1.69228">
        <ele>141.3</ele>
        <time>2020-06-14T18:29:38Z</time>
      </trkpt>
      <trkpt lat="49.61429" lon="-1.6922">
        <ele>141.3</ele>
        <time>2020-06-14T18:29:39Z</time>
      </trkpt>
      <trkpt lat="49.61429" lon="-1.69213">
        <ele>141.3</ele>
        <time>2020-06-14T18:29:40Z</time>
      </trkpt>
      <trkpt lat="49.61431" lon="-1.69204">
        <ele>141.3</ele>
        <time>2020-06-14T18:29:41Z</time>
      </trkpt>
      <trkpt lat="49.61432" lon="-1.69196">
        <ele>141.4</ele>
        <time>2020-06-14T18:29:42Z</time>
      </trkpt>
      <trkpt lat="49.61432" lon="-1.69188">
        <ele>141.6</ele>
        <time>2020-06-14T18:29:43Z</time>
      </trkpt>
      <trkpt lat="49.61433" lon="-1.69179">
        <ele>141.8</ele>
        <time>2020-06-14T18:29:44Z</time>
      </trkpt>
      <trkpt lat="49.61433" lon="-1.69171">
        <ele>142</ele>
        <time>2020-06-14T18:29:45Z</time>
      </trkpt>
      <trkpt lat="49.61434" lon="-1.69162">
        <ele>142.1</ele>
        <time>2020-06-14T18:29:46Z</time>
      </trkpt>
      <trkpt lat="49.61434" lon="-1.69153">
        <ele>142.1</ele>
        <time>2020-06-14T18:29:47Z</time>
      </trkpt>
      <trkpt lat="49.61435" lon="-1.69144">
        <ele>142.1</ele>
        <time>2020-06-14T18:29:48Z</time>
      </trkpt>
      <trkpt lat="49.61436" lon="-1.69136">
        <ele>142</ele>
        <time>2020-06-14T18:29:49Z</time>
      </trkpt>
      <trkpt lat="49.61437" lon="-1.69127">
        <ele>142</ele>
        <time>2020-06-14T18:29:50Z</time>
      </trkpt>
      <trkpt lat="49.61438" lon="-1.6912">
        <ele>142</ele>
        <time>2020-06-14T18:29:51Z</time>
      </trkpt>
      <trkpt lat="49.61439" lon="-1.69112">
        <ele>142</ele>
        <time>2020-06-14T18:29:52Z</time>
      </trkpt>
      <trkpt lat="49.6144" lon="-1.69103">
        <ele>141.9</ele>
        <time>2020-06-14T18:29:53Z</time>
      </trkpt>
      <trkpt lat="49.61441" lon="-1.69095">
        <ele>141.9</ele>
        <time>2020-06-14T18:29:54Z</time>
      </trkpt>
      <trkpt lat="49.61442" lon="-1.69088">
        <ele>141.9</ele>
        <time>2020-06-14T18:29:55Z</time>
      </trkpt>
      <trkpt lat="49.61444" lon="-1.69079">
        <ele>141.9</ele>
        <time>2020-06-14T18:29:56Z</time>
      </trkpt>
      <trkpt lat="49.61445" lon="-1.69071">
        <ele>141.9</ele>
        <time>2020-06-14T18:29:57Z</time>
      </trkpt>
      <trkpt lat="49.61446" lon="-1.69063">
        <ele>142</ele>
        <time>2020-06-14T18:29:58Z</time>
      </trkpt>
      <trkpt lat="49.61447" lon="-1.69055">
        <ele>142</ele>
        <time>2020-06-14T18:29:59Z</time>
      </trkpt>
      <trkpt lat="49.61447" lon="-1.69048">
        <ele>142</ele>
        <time>2020-06-14T18:30:00Z</time>
      </trkpt>
      <trkpt lat="49.61448" lon="-1.69042">
        <ele>142</ele>
        <time>2020-06-14T18:30:01Z</time>
      </trkpt>
      <trkpt lat="49.61449" lon="-1.69034">
        <ele>142</ele>
        <time>2020-06-14T18:30:02Z</time>
      </trkpt>
      <trkpt lat="49.6145" lon="-1.69027">
        <ele>142</ele>
        <time>2020-06-14T18:30:03Z</time>
      </trkpt>
      <trkpt lat="49.61451" lon="-1.6902">
        <ele>142</ele>
        <time>2020-06-14T18:30:04Z</time>
      </trkpt>
      <trkpt lat="49.61452" lon="-1.69012">
        <ele>142</ele>
        <time>2020-06-14T18:30:05Z</time>
      </trkpt>
      <trkpt lat="49.61453" lon="-1.69004">
        <ele>142</ele>
        <time>2020-06-14T18:30:06Z</time>
      </trkpt>
      <trkpt lat="49.61453" lon="-1.68996">
        <ele>142</ele>
        <time>2020-06-14T18:30:07Z</time>
      </trkpt>
      <trkpt lat="49.61454" lon="-1.68988">
        <ele>142</ele>
        <time>2020-06-14T18:30:08Z</time>
      </trkpt>
      <trkpt lat="49.61455" lon="-1.6898">
        <ele>142</ele>
        <time>2020-06-14T18:30:09Z</time>
      </trkpt>
      <trkpt lat="49.61456" lon="-1.68974">
        <ele>142</ele>
        <time>2020-06-14T18:30:10Z</time>
      </trkpt>
      <trkpt lat="49.61457" lon="-1.68966">
        <ele>142.1</ele>
        <time>2020-06-14T18:30:11Z</time>
      </trkpt>
      <trkpt lat="49.61458" lon="-1.68959">
        <ele>142.1</ele>
        <time>2020-06-14T18:30:12Z</time>
      </trkpt>
      <trkpt lat="49.61459" lon="-1.6895">
        <ele>142.1</ele>
        <time>2020-06-14T18:30:13Z</time>
      </trkpt>
      <trkpt lat="49.61459" lon="-1.68941">
        <ele>142.1</ele>
        <time>2020-06-14T18:30:14Z</time>
      </trkpt>
      <trkpt lat="49.61461" lon="-1.68932">
        <ele>142.1</ele>
        <time>2020-06-14T18:30:15Z</time>
      </trkpt>
      <trkpt lat="49.61462" lon="-1.68924">
        <ele>142.1</ele>
        <time>2020-06-14T18:30:16Z</time>
      </trkpt>
      <trkpt lat="49.61464" lon="-1.68916">
        <ele>142.1</ele>
        <time>2020-06-14T18:30:17Z</time>
      </trkpt>
      <trkpt lat="49.61464" lon="-1.68908">
        <ele>142.1</ele>
        <time>2020-06-14T18:30:18Z</time>
      </trkpt>
      <trkpt lat="49.61465" lon="-1.68902">
        <ele>142.1</ele>
        <time>2020-06-14T18:30:19Z</time>
      </trkpt>
      <trkpt lat="49.61466" lon="-1.68894">
        <ele>142.1</ele>
        <time>2020-06-14T18:30:20Z</time>
      </trkpt>
      <trkpt lat="49.61467" lon="-1.68885">
        <ele>142.1</ele>
        <time>2020-06-14T18:30:21Z</time>
      </trkpt>
      <trkpt lat="49.61467" lon="-1.68877">
        <ele>142.1</ele>
        <time>2020-06-14T18:30:22Z</time>
      </trkpt>
      <trkpt lat="49.61468" lon="-1.68869">
        <ele>142.1</ele>
        <time>2020-06-14T18:30:23Z</time>
      </trkpt>
      <trkpt lat="49.61469" lon="-1.68861">
        <ele>142.1</ele>
        <time>2020-06-14T18:30:24Z</time>
      </trkpt>
      <trkpt lat="49.61469" lon="-1.68853">
        <ele>142.1</ele>
        <time>2020-06-14T18:30:25Z</time>
      </trkpt>
      <trkpt lat="49.6147" lon="-1.68845">
        <ele>142.1</ele>
        <time>2020-06-14T18:30:26Z</time>
      </trkpt>
      <trkpt lat="49.61471" lon="-1.68837">
        <ele>142</ele>
        <time>2020-06-14T18:30:27Z</time>
      </trkpt>
      <trkpt lat="49.61472" lon="-1.68829">
        <ele>142</ele>
        <time>2020-06-14T18:30:28Z</time>
      </trkpt>
      <trkpt lat="49.61473" lon="-1.68821">
        <ele>142</ele>
        <time>2020-06-14T18:30:29Z</time>
      </trkpt>
      <trkpt lat="49.61473" lon="-1.68813">
        <ele>142</ele>
        <time>2020-06-14T18:30:30Z</time>
      </trkpt>
      <trkpt lat="49.61474" lon="-1.68804">
        <ele>142</ele>
        <time>2020-06-14T18:30:31Z</time>
      </trkpt>
      <trkpt lat="49.61476" lon="-1.68798">
        <ele>142</ele>
        <time>2020-06-14T18:30:32Z</time>
      </trkpt>
      <trkpt lat="49.61478" lon="-1.6879">
        <ele>142</ele>
        <time>2020-06-14T18:30:33Z</time>
      </trkpt>
      <trkpt lat="49.61479" lon="-1.68782">
        <ele>142</ele>
        <time>2020-06-14T18:30:34Z</time>
      </trkpt>
      <trkpt lat="49.6148" lon="-1.68776">
        <ele>141.9</ele>
        <time>2020-06-14T18:30:35Z</time>
      </trkpt>
      <trkpt lat="49.6148" lon="-1.68768">
        <ele>141.9</ele>
        <time>2020-06-14T18:30:36Z</time>
      </trkpt>
      <trkpt lat="49.6148" lon="-1.68762">
        <ele>141.9</ele>
        <time>2020-06-14T18:30:37Z</time>
      </trkpt>
      <trkpt lat="49.61481" lon="-1.68755">
        <ele>141.9</ele>
        <time>2020-06-14T18:30:38Z</time>
      </trkpt>
      <trkpt lat="49.61482" lon="-1.68748">
        <ele>141.9</ele>
        <time>2020-06-14T18:30:39Z</time>
      </trkpt>
      <trkpt lat="49.61482" lon="-1.68741">
        <ele>141.9</ele>
        <time>2020-06-14T18:30:40Z</time>
      </trkpt>
      <trkpt lat="49.61483" lon="-1.68734">
        <ele>141.9</ele>
        <time>2020-06-14T18:30:41Z</time>
      </trkpt>
      <trkpt lat="49.61484" lon="-1.68727">
        <ele>141.9</ele>
        <time>2020-06-14T18:30:42Z</time>
      </trkpt>
      <trkpt lat="49.61485" lon="-1.6872">
        <ele>141.9</ele>
        <time>2020-06-14T18:30:43Z</time>
      </trkpt>
      <trkpt lat="49.61486" lon="-1.68712">
        <ele>141.8</ele>
        <time>2020-06-14T18:30:44Z</time>
      </trkpt>
      <trkpt lat="49.61487" lon="-1.68704">
        <ele>141.8</ele>
        <time>2020-06-14T18:30:45Z</time>
      </trkpt>
      <trkpt lat="49.61489" lon="-1.68697">
        <ele>141.8</ele>
        <time>2020-06-14T18:30:46Z</time>
      </trkpt>
      <trkpt lat="49.61492" lon="-1.68689">
        <ele>141.8</ele>
        <time>2020-06-14T18:30:47Z</time>
      </trkpt>
      <trkpt lat="49.61494" lon="-1.6868">
        <ele>141.8</ele>
        <time>2020-06-14T18:30:48Z</time>
      </trkpt>
      <trkpt lat="49.61496" lon="-1.68673">
        <ele>141.8</ele>
        <time>2020-06-14T18:30:49Z</time>
      </trkpt>
      <trkpt lat="49.61499" lon="-1.68665">
        <ele>141.7</ele>
        <time>2020-06-14T18:30:50Z</time>
      </trkpt>
      <trkpt lat="49.61501" lon="-1.68658">
        <ele>141.7</ele>
        <time>2020-06-14T18:30:51Z</time>
      </trkpt>
      <trkpt lat="49.61503" lon="-1.68651">
        <ele>141.7</ele>
        <time>2020-06-14T18:30:52Z</time>
      </trkpt>
      <trkpt lat="49.61504" lon="-1.68646">
        <ele>141.7</ele>
        <time>2020-06-14T18:30:53Z</time>
      </trkpt>
      <trkpt lat="49.61505" lon="-1.6864">
        <ele>141.7</ele>
        <time>2020-06-14T18:30:54Z</time>
      </trkpt>
      <trkpt lat="49.61507" lon="-1.68634">
        <ele>141.7</ele>
        <time>2020-06-14T18:30:55Z</time>
      </trkpt>
      <trkpt lat="49.61508" lon="-1.68627">
        <ele>141.7</ele>
        <time>2020-06-14T18:30:56Z</time>
      </trkpt>
      <trkpt lat="49.6151" lon="-1.6862">
        <ele>141.7</ele>
        <time>2020-06-14T18:30:57Z</time>
      </trkpt>
      <trkpt lat="49.61512" lon="-1.68614">
        <ele>141.7</ele>
        <time>2020-06-14T18:30:58Z</time>
      </trkpt>
      <trkpt lat="49.61514" lon="-1.68607">
        <ele>141.7</ele>
        <time>2020-06-14T18:30:59Z</time>
      </trkpt>
      <trkpt lat="49.61517" lon="-1.68601">
        <ele>141.7</ele>
        <time>2020-06-14T18:31:00Z</time>
      </trkpt>
      <trkpt lat="49.61521" lon="-1.68596">
        <ele>141.7</ele>
        <time>2020-06-14T18:31:01Z</time>
      </trkpt>
      <trkpt lat="49.61525" lon="-1.68589">
        <ele>141.7</ele>
        <time>2020-06-14T18:31:02Z</time>
      </trkpt>
      <trkpt lat="49.61527" lon="-1.68583">
        <ele>141.6</ele>
        <time>2020-06-14T18:31:03Z</time>
      </trkpt>
      <trkpt lat="49.61532" lon="-1.68575">
        <ele>141.6</ele>
        <time>2020-06-14T18:31:04Z</time>
      </trkpt>
      <trkpt lat="49.61534" lon="-1.68567">
        <ele>141.6</ele>
        <time>2020-06-14T18:31:05Z</time>
      </trkpt>
      <trkpt lat="49.61538" lon="-1.68561">
        <ele>141.6</ele>
        <time>2020-06-14T18:31:06Z</time>
      </trkpt>
      <trkpt lat="49.61541" lon="-1.68554">
        <ele>141.5</ele>
        <time>2020-06-14T18:31:07Z</time>
      </trkpt>
      <trkpt lat="49.61545" lon="-1.68546">
        <ele>141.5</ele>
        <time>2020-06-14T18:31:08Z</time>
      </trkpt>
      <trkpt lat="49.61548" lon="-1.68539">
        <ele>141.5</ele>
        <time>2020-06-14T18:31:09Z</time>
      </trkpt>
      <trkpt lat="49.61551" lon="-1.68533">
        <ele>141.5</ele>
        <time>2020-06-14T18:31:10Z</time>
      </trkpt>
      <trkpt lat="49.61554" lon="-1.68527">
        <ele>141.5</ele>
        <time>2020-06-14T18:31:11Z</time>
      </trkpt>
      <trkpt lat="49.61558" lon="-1.6852">
        <ele>141.5</ele>
        <time>2020-06-14T18:31:12Z</time>
      </trkpt>
      <trkpt lat="49.61561" lon="-1.68514">
        <ele>141.5</ele>
        <time>2020-06-14T18:31:13Z</time>
      </trkpt>
      <trkpt lat="49.61565" lon="-1.68508">
        <ele>141.5</ele>
        <time>2020-06-14T18:31:14Z</time>
      </trkpt>
      <trkpt lat="49.61568" lon="-1.68502">
        <ele>141.5</ele>
        <time>2020-06-14T18:31:15Z</time>
      </trkpt>
      <trkpt lat="49.61572" lon="-1.68496">
        <ele>141.4</ele>
        <time>2020-06-14T18:31:16Z</time>
      </trkpt>
      <trkpt lat="49.61575" lon="-1.68489">
        <ele>141.4</ele>
        <time>2020-06-14T18:31:17Z</time>
      </trkpt>
      <trkpt lat="49.61578" lon="-1.68482">
        <ele>141.3</ele>
        <time>2020-06-14T18:31:18Z</time>
      </trkpt>
      <trkpt lat="49.61581" lon="-1.68477">
        <ele>141.3</ele>
        <time>2020-06-14T18:31:19Z</time>
      </trkpt>
      <trkpt lat="49.61583" lon="-1.68471">
        <ele>141.2</ele>
        <time>2020-06-14T18:31:20Z</time>
      </trkpt>
      <trkpt lat="49.61586" lon="-1.68466">
        <ele>141.2</ele>
        <time>2020-06-14T18:31:21Z</time>
      </trkpt>
      <trkpt lat="49.61589" lon="-1.68461">
        <ele>141.1</ele>
        <time>2020-06-14T18:31:22Z</time>
      </trkpt>
      <trkpt lat="49.61592" lon="-1.68454">
        <ele>141.1</ele>
        <time>2020-06-14T18:31:23Z</time>
      </trkpt>
      <trkpt lat="49.61596" lon="-1.68447">
        <ele>141.1</ele>
        <time>2020-06-14T18:31:24Z</time>
      </trkpt>
      <trkpt lat="49.61599" lon="-1.6844">
        <ele>141</ele>
        <time>2020-06-14T18:31:25Z</time>
      </trkpt>
      <trkpt lat="49.61603" lon="-1.68433">
        <ele>141</ele>
        <time>2020-06-14T18:31:26Z</time>
      </trkpt>
      <trkpt lat="49.61606" lon="-1.68427">
        <ele>140.9</ele>
        <time>2020-06-14T18:31:27Z</time>
      </trkpt>
      <trkpt lat="49.6161" lon="-1.68421">
        <ele>140.8</ele>
        <time>2020-06-14T18:31:28Z</time>
      </trkpt>
      <trkpt lat="49.61614" lon="-1.68414">
        <ele>140.7</ele>
        <time>2020-06-14T18:31:29Z</time>
      </trkpt>
      <trkpt lat="49.61617" lon="-1.68406">
        <ele>140.7</ele>
        <time>2020-06-14T18:31:30Z</time>
      </trkpt>
      <trkpt lat="49.6162" lon="-1.684">
        <ele>140.6</ele>
        <time>2020-06-14T18:31:31Z</time>
      </trkpt>
      <trkpt lat="49.61624" lon="-1.68394">
        <ele>140.6</ele>
        <time>2020-06-14T18:31:32Z</time>
      </trkpt>
      <trkpt lat="49.61627" lon="-1.68386">
        <ele>140.5</ele>
        <time>2020-06-14T18:31:33Z</time>
      </trkpt>
      <trkpt lat="49.61631" lon="-1.68379">
        <ele>140.4</ele>
        <time>2020-06-14T18:31:34Z</time>
      </trkpt>
      <trkpt lat="49.61634" lon="-1.68372">
        <ele>140.4</ele>
        <time>2020-06-14T18:31:35Z</time>
      </trkpt>
      <trkpt lat="49.61636" lon="-1.68366">
        <ele>140.3</ele>
        <time>2020-06-14T18:31:36Z</time>
      </trkpt>
      <trkpt lat="49.61639" lon="-1.68359">
        <ele>140.2</ele>
        <time>2020-06-14T18:31:37Z</time>
      </trkpt>
      <trkpt lat="49.61641" lon="-1.68352">
        <ele>140.1</ele>
        <time>2020-06-14T18:31:38Z</time>
      </trkpt>
      <trkpt lat="49.61644" lon="-1.68344">
        <ele>140.1</ele>
        <time>2020-06-14T18:31:39Z</time>
      </trkpt>
      <trkpt lat="49.61647" lon="-1.68335">
        <ele>140</ele>
        <time>2020-06-14T18:31:40Z</time>
      </trkpt>
      <trkpt lat="49.61648" lon="-1.68327">
        <ele>139.9</ele>
        <time>2020-06-14T18:31:41Z</time>
      </trkpt>
      <trkpt lat="49.61651" lon="-1.68319">
        <ele>139.8</ele>
        <time>2020-06-14T18:31:42Z</time>
      </trkpt>
      <trkpt lat="49.61653" lon="-1.68311">
        <ele>139.8</ele>
        <time>2020-06-14T18:31:43Z</time>
      </trkpt>
      <trkpt lat="49.61655" lon="-1.68303">
        <ele>139.8</ele>
        <time>2020-06-14T18:31:44Z</time>
      </trkpt>
      <trkpt lat="49.61657" lon="-1.68296">
        <ele>139.8</ele>
        <time>2020-06-14T18:31:45Z</time>
      </trkpt>
      <trkpt lat="49.61659" lon="-1.68289">
        <ele>139.9</ele>
        <time>2020-06-14T18:31:46Z</time>
      </trkpt>
      <trkpt lat="49.61662" lon="-1.68281">
        <ele>140</ele>
        <time>2020-06-14T18:31:47Z</time>
      </trkpt>
      <trkpt lat="49.61663" lon="-1.68273">
        <ele>140.1</ele>
        <time>2020-06-14T18:31:48Z</time>
      </trkpt>
      <trkpt lat="49.61665" lon="-1.68267">
        <ele>140.2</ele>
        <time>2020-06-14T18:31:49Z</time>
      </trkpt>
      <trkpt lat="49.61667" lon="-1.68259">
        <ele>140.2</ele>
        <time>2020-06-14T18:31:50Z</time>
      </trkpt>
      <trkpt lat="49.61668" lon="-1.68251">
        <ele>140.2</ele>
        <time>2020-06-14T18:31:51Z</time>
      </trkpt>
      <trkpt lat="49.61669" lon="-1.68243">
        <ele>140.2</ele>
        <time>2020-06-14T18:31:52Z</time>
      </trkpt>
      <trkpt lat="49.6167" lon="-1.68235">
        <ele>140.2</ele>
        <time>2020-06-14T18:31:53Z</time>
      </trkpt>
      <trkpt lat="49.61671" lon="-1.68227">
        <ele>140.2</ele>
        <time>2020-06-14T18:31:54Z</time>
      </trkpt>
      <trkpt lat="49.61672" lon="-1.68219">
        <ele>140.2</ele>
        <time>2020-06-14T18:31:55Z</time>
      </trkpt>
      <trkpt lat="49.61673" lon="-1.68211">
        <ele>140.3</ele>
        <time>2020-06-14T18:31:56Z</time>
      </trkpt>
      <trkpt lat="49.61675" lon="-1.68204">
        <ele>140.3</ele>
        <time>2020-06-14T18:31:57Z</time>
      </trkpt>
      <trkpt lat="49.61675" lon="-1.68196">
        <ele>140.4</ele>
        <time>2020-06-14T18:31:58Z</time>
      </trkpt>
      <trkpt lat="49.61675" lon="-1.68188">
        <ele>140.4</ele>
        <time>2020-06-14T18:31:59Z</time>
      </trkpt>
      <trkpt lat="49.61676" lon="-1.68179">
        <ele>140.5</ele>
        <time>2020-06-14T18:32:00Z</time>
      </trkpt>
      <trkpt lat="49.61676" lon="-1.68171">
        <ele>140.6</ele>
        <time>2020-06-14T18:32:01Z</time>
      </trkpt>
      <trkpt lat="49.61677" lon="-1.68163">
        <ele>140.7</ele>
        <time>2020-06-14T18:32:02Z</time>
      </trkpt>
      <trkpt lat="49.61678" lon="-1.68155">
        <ele>140.8</ele>
        <time>2020-06-14T18:32:03Z</time>
      </trkpt>
      <trkpt lat="49.61677" lon="-1.68148">
        <ele>140.9</ele>
        <time>2020-06-14T18:32:04Z</time>
      </trkpt>
      <trkpt lat="49.61677" lon="-1.6814">
        <ele>141</ele>
        <time>2020-06-14T18:32:05Z</time>
      </trkpt>
      <trkpt lat="49.61677" lon="-1.68132">
        <ele>141.2</ele>
        <time>2020-06-14T18:32:06Z</time>
      </trkpt>
      <trkpt lat="49.61677" lon="-1.68125">
        <ele>141.3</ele>
        <time>2020-06-14T18:32:07Z</time>
      </trkpt>
      <trkpt lat="49.61676" lon="-1.68117">
        <ele>141.4</ele>
        <time>2020-06-14T18:32:08Z</time>
      </trkpt>
      <trkpt lat="49.61675" lon="-1.6811">
        <ele>141.5</ele>
        <time>2020-06-14T18:32:09Z</time>
      </trkpt>
      <trkpt lat="49.61675" lon="-1.68103">
        <ele>141.6</ele>
        <time>2020-06-14T18:32:10Z</time>
      </trkpt>
      <trkpt lat="49.61674" lon="-1.68094">
        <ele>141.8</ele>
        <time>2020-06-14T18:32:11Z</time>
      </trkpt>
      <trkpt lat="49.61674" lon="-1.68087">
        <ele>142</ele>
        <time>2020-06-14T18:32:12Z</time>
      </trkpt>
      <trkpt lat="49.61673" lon="-1.6808">
        <ele>142.1</ele>
        <time>2020-06-14T18:32:13Z</time>
      </trkpt>
      <trkpt lat="49.61673" lon="-1.68073">
        <ele>142.3</ele>
        <time>2020-06-14T18:32:14Z</time>
      </trkpt>
      <trkpt lat="49.61673" lon="-1.68066">
        <ele>142.4</ele>
        <time>2020-06-14T18:32:15Z</time>
      </trkpt>
      <trkpt lat="49.61673" lon="-1.68058">
        <ele>142.6</ele>
        <time>2020-06-14T18:32:16Z</time>
      </trkpt>
      <trkpt lat="49.61673" lon="-1.6805">
        <ele>142.8</ele>
        <time>2020-06-14T18:32:17Z</time>
      </trkpt>
      <trkpt lat="49.61674" lon="-1.68043">
        <ele>143</ele>
        <time>2020-06-14T18:32:18Z</time>
      </trkpt>
      <trkpt lat="49.61674" lon="-1.68035">
        <ele>143.2</ele>
        <time>2020-06-14T18:32:19Z</time>
      </trkpt>
      <trkpt lat="49.61675" lon="-1.68027">
        <ele>143.4</ele>
        <time>2020-06-14T18:32:20Z</time>
      </trkpt>
      <trkpt lat="49.61675" lon="-1.6802">
        <ele>143.6</ele>
        <time>2020-06-14T18:32:21Z</time>
      </trkpt>
      <trkpt lat="49.61676" lon="-1.68013">
        <ele>143.8</ele>
        <time>2020-06-14T18:32:22Z</time>
      </trkpt>
      <trkpt lat="49.61676" lon="-1.68006">
        <ele>144</ele>
        <time>2020-06-14T18:32:23Z</time>
      </trkpt>
      <trkpt lat="49.61677" lon="-1.67999">
        <ele>144.2</ele>
        <time>2020-06-14T18:32:24Z</time>
      </trkpt>
      <trkpt lat="49.61678" lon="-1.67993">
        <ele>144.4</ele>
        <time>2020-06-14T18:32:25Z</time>
      </trkpt>
      <trkpt lat="49.61679" lon="-1.67986">
        <ele>144.6</ele>
        <time>2020-06-14T18:32:26Z</time>
      </trkpt>
      <trkpt lat="49.61681" lon="-1.67978">
        <ele>144.7</ele>
        <time>2020-06-14T18:32:27Z</time>
      </trkpt>
      <trkpt lat="49.61682" lon="-1.67972">
        <ele>144.8</ele>
        <time>2020-06-14T18:32:28Z</time>
      </trkpt>
      <trkpt lat="49.61682" lon="-1.67966">
        <ele>144.9</ele>
        <time>2020-06-14T18:32:29Z</time>
      </trkpt>
      <trkpt lat="49.61684" lon="-1.67959">
        <ele>145</ele>
        <time>2020-06-14T18:32:30Z</time>
      </trkpt>
      <trkpt lat="49.61686" lon="-1.67952">
        <ele>145.2</ele>
        <time>2020-06-14T18:32:31Z</time>
      </trkpt>
      <trkpt lat="49.61688" lon="-1.67946">
        <ele>145.3</ele>
        <time>2020-06-14T18:32:32Z</time>
      </trkpt>
      <trkpt lat="49.6169" lon="-1.67938">
        <ele>145.4</ele>
        <time>2020-06-14T18:32:33Z</time>
      </trkpt>
      <trkpt lat="49.61692" lon="-1.67929">
        <ele>145.5</ele>
        <time>2020-06-14T18:32:34Z</time>
      </trkpt>
      <trkpt lat="49.61693" lon="-1.67922">
        <ele>145.7</ele>
        <time>2020-06-14T18:32:35Z</time>
      </trkpt>
      <trkpt lat="49.61694" lon="-1.67914">
        <ele>145.8</ele>
        <time>2020-06-14T18:32:36Z</time>
      </trkpt>
      <trkpt lat="49.61696" lon="-1.67907">
        <ele>145.9</ele>
        <time>2020-06-14T18:32:37Z</time>
      </trkpt>
      <trkpt lat="49.61697" lon="-1.679">
        <ele>146</ele>
        <time>2020-06-14T18:32:38Z</time>
      </trkpt>
      <trkpt lat="49.61699" lon="-1.67893">
        <ele>146.1</ele>
        <time>2020-06-14T18:32:39Z</time>
      </trkpt>
      <trkpt lat="49.61701" lon="-1.67887">
        <ele>146.2</ele>
        <time>2020-06-14T18:32:40Z</time>
      </trkpt>
      <trkpt lat="49.61702" lon="-1.6788">
        <ele>146.3</ele>
        <time>2020-06-14T18:32:41Z</time>
      </trkpt>
      <trkpt lat="49.61704" lon="-1.67872">
        <ele>146.4</ele>
        <time>2020-06-14T18:32:42Z</time>
      </trkpt>
      <trkpt lat="49.61705" lon="-1.67865">
        <ele>146.5</ele>
        <time>2020-06-14T18:32:43Z</time>
      </trkpt>
      <trkpt lat="49.61707" lon="-1.67858">
        <ele>146.6</ele>
        <time>2020-06-14T18:32:44Z</time>
      </trkpt>
      <trkpt lat="49.61709" lon="-1.67852">
        <ele>146.7</ele>
        <time>2020-06-14T18:32:45Z</time>
      </trkpt>
      <trkpt lat="49.61711" lon="-1.67845">
        <ele>146.8</ele>
        <time>2020-06-14T18:32:46Z</time>
      </trkpt>
      <trkpt lat="49.61713" lon="-1.67838">
        <ele>146.8</ele>
        <time>2020-06-14T18:32:47Z</time>
      </trkpt>
      <trkpt lat="49.61714" lon="-1.67831">
        <ele>146.9</ele>
        <time>2020-06-14T18:32:48Z</time>
      </trkpt>
      <trkpt lat="49.61716" lon="-1.67825">
        <ele>147</ele>
        <time>2020-06-14T18:32:49Z</time>
      </trkpt>
      <trkpt lat="49.61718" lon="-1.67818">
        <ele>147.1</ele>
        <time>2020-06-14T18:32:50Z</time>
      </trkpt>
      <trkpt lat="49.6172" lon="-1.67811">
        <ele>147.1</ele>
        <time>2020-06-14T18:32:51Z</time>
      </trkpt>
      <trkpt lat="49.61721" lon="-1.67804">
        <ele>147.2</ele>
        <time>2020-06-14T18:32:52Z</time>
      </trkpt>
      <trkpt lat="49.61722" lon="-1.67798">
        <ele>147.3</ele>
        <time>2020-06-14T18:32:53Z</time>
      </trkpt>
      <trkpt lat="49.61723" lon="-1.67791">
        <ele>147.3</ele>
        <time>2020-06-14T18:32:54Z</time>
      </trkpt>
      <trkpt lat="49.61725" lon="-1.67785">
        <ele>147.4</ele>
        <time>2020-06-14T18:32:55Z</time>
      </trkpt>
      <trkpt lat="49.61726" lon="-1.67778">
        <ele>147.5</ele>
        <time>2020-06-14T18:32:56Z</time>
      </trkpt>
      <trkpt lat="49.61727" lon="-1.6777">
        <ele>147.6</ele>
        <time>2020-06-14T18:32:57Z</time>
      </trkpt>
      <trkpt lat="49.61729" lon="-1.67763">
        <ele>147.7</ele>
        <time>2020-06-14T18:32:58Z</time>
      </trkpt>
      <trkpt lat="49.6173" lon="-1.67756">
        <ele>147.7</ele>
        <time>2020-06-14T18:32:59Z</time>
      </trkpt>
      <trkpt lat="49.61731" lon="-1.67749">
        <ele>147.8</ele>
        <time>2020-06-14T18:33:00Z</time>
      </trkpt>
      <trkpt lat="49.61731" lon="-1.67742">
        <ele>147.9</ele>
        <time>2020-06-14T18:33:01Z</time>
      </trkpt>
      <trkpt lat="49.61733" lon="-1.67736">
        <ele>147.9</ele>
        <time>2020-06-14T18:33:02Z</time>
      </trkpt>
      <trkpt lat="49.61735" lon="-1.67728">
        <ele>148.1</ele>
        <time>2020-06-14T18:33:03Z</time>
      </trkpt>
      <trkpt lat="49.61737" lon="-1.67721">
        <ele>148.1</ele>
        <time>2020-06-14T18:33:04Z</time>
      </trkpt>
      <trkpt lat="49.61739" lon="-1.67715">
        <ele>148.2</ele>
        <time>2020-06-14T18:33:05Z</time>
      </trkpt>
      <trkpt lat="49.61741" lon="-1.67708">
        <ele>148.3</ele>
        <time>2020-06-14T18:33:06Z</time>
      </trkpt>
      <trkpt lat="49.61741" lon="-1.67702">
        <ele>148.3</ele>
        <time>2020-06-14T18:33:07Z</time>
      </trkpt>
      <trkpt lat="49.61742" lon="-1.67695">
        <ele>148.4</ele>
        <time>2020-06-14T18:33:08Z</time>
      </trkpt>
      <trkpt lat="49.61744" lon="-1.67688">
        <ele>148.4</ele>
        <time>2020-06-14T18:33:09Z</time>
      </trkpt>
      <trkpt lat="49.61746" lon="-1.6768">
        <ele>148.4</ele>
        <time>2020-06-14T18:33:10Z</time>
      </trkpt>
      <trkpt lat="49.61748" lon="-1.67672">
        <ele>148.4</ele>
        <time>2020-06-14T18:33:11Z</time>
      </trkpt>
      <trkpt lat="49.6175" lon="-1.67663">
        <ele>148.4</ele>
        <time>2020-06-14T18:33:12Z</time>
      </trkpt>
      <trkpt lat="49.61752" lon="-1.67654">
        <ele>148.4</ele>
        <time>2020-06-14T18:33:13Z</time>
      </trkpt>
      <trkpt lat="49.61755" lon="-1.67647">
        <ele>148.3</ele>
        <time>2020-06-14T18:33:14Z</time>
      </trkpt>
      <trkpt lat="49.61755" lon="-1.67639">
        <ele>148.2</ele>
        <time>2020-06-14T18:33:15Z</time>
      </trkpt>
      <trkpt lat="49.61756" lon="-1.67632">
        <ele>148.1</ele>
        <time>2020-06-14T18:33:16Z</time>
      </trkpt>
      <trkpt lat="49.61758" lon="-1.67625">
        <ele>147.9</ele>
        <time>2020-06-14T18:33:17Z</time>
      </trkpt>
      <trkpt lat="49.61759" lon="-1.67616">
        <ele>147.7</ele>
        <time>2020-06-14T18:33:18Z</time>
      </trkpt>
      <trkpt lat="49.6176" lon="-1.67607">
        <ele>147.6</ele>
        <time>2020-06-14T18:33:19Z</time>
      </trkpt>
      <trkpt lat="49.61762" lon="-1.67599">
        <ele>147.5</ele>
        <time>2020-06-14T18:33:20Z</time>
      </trkpt>
      <trkpt lat="49.61764" lon="-1.67591">
        <ele>147.3</ele>
        <time>2020-06-14T18:33:21Z</time>
      </trkpt>
      <trkpt lat="49.61766" lon="-1.67583">
        <ele>147.2</ele>
        <time>2020-06-14T18:33:22Z</time>
      </trkpt>
      <trkpt lat="49.61767" lon="-1.67575">
        <ele>147.1</ele>
        <time>2020-06-14T18:33:23Z</time>
      </trkpt>
      <trkpt lat="49.61769" lon="-1.67566">
        <ele>147</ele>
        <time>2020-06-14T18:33:24Z</time>
      </trkpt>
      <trkpt lat="49.6177" lon="-1.67557">
        <ele>146.9</ele>
        <time>2020-06-14T18:33:25Z</time>
      </trkpt>
      <trkpt lat="49.61773" lon="-1.67549">
        <ele>146.8</ele>
        <time>2020-06-14T18:33:26Z</time>
      </trkpt>
      <trkpt lat="49.61775" lon="-1.6754">
        <ele>146.7</ele>
        <time>2020-06-14T18:33:27Z</time>
      </trkpt>
      <trkpt lat="49.61777" lon="-1.67531">
        <ele>146.5</ele>
        <time>2020-06-14T18:33:28Z</time>
      </trkpt>
      <trkpt lat="49.61779" lon="-1.67522">
        <ele>146.4</ele>
        <time>2020-06-14T18:33:29Z</time>
      </trkpt>
      <trkpt lat="49.61781" lon="-1.67513">
        <ele>146.3</ele>
        <time>2020-06-14T18:33:30Z</time>
      </trkpt>
      <trkpt lat="49.61782" lon="-1.67504">
        <ele>146.1</ele>
        <time>2020-06-14T18:33:31Z</time>
      </trkpt>
      <trkpt lat="49.61784" lon="-1.67495">
        <ele>145.9</ele>
        <time>2020-06-14T18:33:32Z</time>
      </trkpt>
      <trkpt lat="49.61786" lon="-1.67485">
        <ele>145.7</ele>
        <time>2020-06-14T18:33:33Z</time>
      </trkpt>
      <trkpt lat="49.61789" lon="-1.67475">
        <ele>145.5</ele>
        <time>2020-06-14T18:33:34Z</time>
      </trkpt>
      <trkpt lat="49.61791" lon="-1.67464">
        <ele>145.3</ele>
        <time>2020-06-14T18:33:35Z</time>
      </trkpt>
      <trkpt lat="49.61793" lon="-1.67452">
        <ele>145.1</ele>
        <time>2020-06-14T18:33:36Z</time>
      </trkpt>
      <trkpt lat="49.61794" lon="-1.67442">
        <ele>144.9</ele>
        <time>2020-06-14T18:33:37Z</time>
      </trkpt>
      <trkpt lat="49.61797" lon="-1.6743">
        <ele>144.7</ele>
        <time>2020-06-14T18:33:38Z</time>
      </trkpt>
      <trkpt lat="49.618" lon="-1.67418">
        <ele>144.5</ele>
        <time>2020-06-14T18:33:39Z</time>
      </trkpt>
      <trkpt lat="49.61803" lon="-1.67408">
        <ele>144.4</ele>
        <time>2020-06-14T18:33:40Z</time>
      </trkpt>
      <trkpt lat="49.61805" lon="-1.67398">
        <ele>144.2</ele>
        <time>2020-06-14T18:33:41Z</time>
      </trkpt>
      <trkpt lat="49.61807" lon="-1.67387">
        <ele>144</ele>
        <time>2020-06-14T18:33:42Z</time>
      </trkpt>
      <trkpt lat="49.61809" lon="-1.67377">
        <ele>143.9</ele>
        <time>2020-06-14T18:33:43Z</time>
      </trkpt>
      <trkpt lat="49.61811" lon="-1.67366">
        <ele>143.7</ele>
        <time>2020-06-14T18:33:44Z</time>
      </trkpt>
      <trkpt lat="49.61813" lon="-1.67355">
        <ele>143.5</ele>
        <time>2020-06-14T18:33:45Z</time>
      </trkpt>
      <trkpt lat="49.61814" lon="-1.67344">
        <ele>143.3</ele>
        <time>2020-06-14T18:33:46Z</time>
      </trkpt>
      <trkpt lat="49.61816" lon="-1.67333">
        <ele>143</ele>
        <time>2020-06-14T18:33:47Z</time>
      </trkpt>
      <trkpt lat="49.61818" lon="-1.67321">
        <ele>142.8</ele>
        <time>2020-06-14T18:33:48Z</time>
      </trkpt>
      <trkpt lat="49.6182" lon="-1.6731">
        <ele>142.5</ele>
        <time>2020-06-14T18:33:49Z</time>
      </trkpt>
      <trkpt lat="49.61822" lon="-1.67299">
        <ele>142.2</ele>
        <time>2020-06-14T18:33:50Z</time>
      </trkpt>
      <trkpt lat="49.61824" lon="-1.67288">
        <ele>141.9</ele>
        <time>2020-06-14T18:33:51Z</time>
      </trkpt>
      <trkpt lat="49.61826" lon="-1.67277">
        <ele>141.6</ele>
        <time>2020-06-14T18:33:52Z</time>
      </trkpt>
      <trkpt lat="49.61829" lon="-1.67266">
        <ele>141.3</ele>
        <time>2020-06-14T18:33:53Z</time>
      </trkpt>
      <trkpt lat="49.61831" lon="-1.67255">
        <ele>140.9</ele>
        <time>2020-06-14T18:33:54Z</time>
      </trkpt>
      <trkpt lat="49.61833" lon="-1.67243">
        <ele>140.6</ele>
        <time>2020-06-14T18:33:55Z</time>
      </trkpt>
      <trkpt lat="49.61836" lon="-1.67232">
        <ele>140.3</ele>
        <time>2020-06-14T18:33:56Z</time>
      </trkpt>
      <trkpt lat="49.61839" lon="-1.6722">
        <ele>139.9</ele>
        <time>2020-06-14T18:33:57Z</time>
      </trkpt>
      <trkpt lat="49.61841" lon="-1.67208">
        <ele>139.6</ele>
        <time>2020-06-14T18:33:58Z</time>
      </trkpt>
      <trkpt lat="49.61844" lon="-1.67197">
        <ele>139.3</ele>
        <time>2020-06-14T18:33:59Z</time>
      </trkpt>
      <trkpt lat="49.61847" lon="-1.67185">
        <ele>139</ele>
        <time>2020-06-14T18:34:00Z</time>
      </trkpt>
      <trkpt lat="49.61849" lon="-1.67172">
        <ele>138.7</ele>
        <time>2020-06-14T18:34:01Z</time>
      </trkpt>
      <trkpt lat="49.61851" lon="-1.6716">
        <ele>138.3</ele>
        <time>2020-06-14T18:34:02Z</time>
      </trkpt>
      <trkpt lat="49.61854" lon="-1.67147">
        <ele>138</ele>
        <time>2020-06-14T18:34:03Z</time>
      </trkpt>
      <trkpt lat="49.61856" lon="-1.67135">
        <ele>137.6</ele>
        <time>2020-06-14T18:34:04Z</time>
      </trkpt>
      <trkpt lat="49.61858" lon="-1.67122">
        <ele>137.3</ele>
        <time>2020-06-14T18:34:05Z</time>
      </trkpt>
      <trkpt lat="49.6186" lon="-1.67109">
        <ele>137</ele>
        <time>2020-06-14T18:34:06Z</time>
      </trkpt>
      <trkpt lat="49.61862" lon="-1.67097">
        <ele>136.6</ele>
        <time>2020-06-14T18:34:07Z</time>
      </trkpt>
      <trkpt lat="49.61865" lon="-1.67084">
        <ele>136.4</ele>
        <time>2020-06-14T18:34:08Z</time>
      </trkpt>
      <trkpt lat="49.61867" lon="-1.67071">
        <ele>136.2</ele>
        <time>2020-06-14T18:34:09Z</time>
      </trkpt>
      <trkpt lat="49.6187" lon="-1.67058">
        <ele>135.9</ele>
        <time>2020-06-14T18:34:10Z</time>
      </trkpt>
      <trkpt lat="49.61872" lon="-1.67045">
        <ele>135.8</ele>
        <time>2020-06-14T18:34:11Z</time>
      </trkpt>
      <trkpt lat="49.61875" lon="-1.67033">
        <ele>135.7</ele>
        <time>2020-06-14T18:34:12Z</time>
      </trkpt>
      <trkpt lat="49.61878" lon="-1.6702">
        <ele>135.8</ele>
        <time>2020-06-14T18:34:13Z</time>
      </trkpt>
      <trkpt lat="49.61881" lon="-1.67008">
        <ele>135.9</ele>
        <time>2020-06-14T18:34:14Z</time>
      </trkpt>
      <trkpt lat="49.61884" lon="-1.66996">
        <ele>135.9</ele>
        <time>2020-06-14T18:34:15Z</time>
      </trkpt>
      <trkpt lat="49.61888" lon="-1.66985">
        <ele>135.8</ele>
        <time>2020-06-14T18:34:16Z</time>
      </trkpt>
      <trkpt lat="49.61891" lon="-1.66973">
        <ele>135.7</ele>
        <time>2020-06-14T18:34:17Z</time>
      </trkpt>
      <trkpt lat="49.61895" lon="-1.66963">
        <ele>135.6</ele>
        <time>2020-06-14T18:34:18Z</time>
      </trkpt>
      <trkpt lat="49.61899" lon="-1.66952">
        <ele>135.5</ele>
        <time>2020-06-14T18:34:19Z</time>
      </trkpt>
      <trkpt lat="49.61903" lon="-1.66941">
        <ele>135.4</ele>
        <time>2020-06-14T18:34:20Z</time>
      </trkpt>
      <trkpt lat="49.61907" lon="-1.66931">
        <ele>135.4</ele>
        <time>2020-06-14T18:34:21Z</time>
      </trkpt>
      <trkpt lat="49.61911" lon="-1.66921">
        <ele>135.5</ele>
        <time>2020-06-14T18:34:22Z</time>
      </trkpt>
      <trkpt lat="49.61915" lon="-1.66912">
        <ele>135.5</ele>
        <time>2020-06-14T18:34:23Z</time>
      </trkpt>
      <trkpt lat="49.61919" lon="-1.66902">
        <ele>135.5</ele>
        <time>2020-06-14T18:34:24Z</time>
      </trkpt>
      <trkpt lat="49.61923" lon="-1.66892">
        <ele>135.4</ele>
        <time>2020-06-14T18:34:25Z</time>
      </trkpt>
      <trkpt lat="49.61926" lon="-1.66883">
        <ele>135.5</ele>
        <time>2020-06-14T18:34:26Z</time>
      </trkpt>
      <trkpt lat="49.61931" lon="-1.66874">
        <ele>135.5</ele>
        <time>2020-06-14T18:34:27Z</time>
      </trkpt>
      <trkpt lat="49.61935" lon="-1.66865">
        <ele>135.6</ele>
        <time>2020-06-14T18:34:28Z</time>
      </trkpt>
      <trkpt lat="49.61938" lon="-1.66856">
        <ele>135.6</ele>
        <time>2020-06-14T18:34:29Z</time>
      </trkpt>
      <trkpt lat="49.61941" lon="-1.66846">
        <ele>135.7</ele>
        <time>2020-06-14T18:34:30Z</time>
      </trkpt>
      <trkpt lat="49.61945" lon="-1.66837">
        <ele>135.7</ele>
        <time>2020-06-14T18:34:31Z</time>
      </trkpt>
      <trkpt lat="49.61948" lon="-1.66828">
        <ele>135.8</ele>
        <time>2020-06-14T18:34:32Z</time>
      </trkpt>
      <trkpt lat="49.61951" lon="-1.66819">
        <ele>135.9</ele>
        <time>2020-06-14T18:34:33Z</time>
      </trkpt>
      <trkpt lat="49.61955" lon="-1.6681">
        <ele>136</ele>
        <time>2020-06-14T18:34:34Z</time>
      </trkpt>
      <trkpt lat="49.61958" lon="-1.66802">
        <ele>136.1</ele>
        <time>2020-06-14T18:34:35Z</time>
      </trkpt>
      <trkpt lat="49.61962" lon="-1.66793">
        <ele>136.2</ele>
        <time>2020-06-14T18:34:36Z</time>
      </trkpt>
      <trkpt lat="49.61965" lon="-1.66784">
        <ele>136.3</ele>
        <time>2020-06-14T18:34:37Z</time>
      </trkpt>
      <trkpt lat="49.61968" lon="-1.66775">
        <ele>136.4</ele>
        <time>2020-06-14T18:34:38Z</time>
      </trkpt>
      <trkpt lat="49.61972" lon="-1.66766">
        <ele>136.5</ele>
        <time>2020-06-14T18:34:39Z</time>
      </trkpt>
      <trkpt lat="49.61974" lon="-1.66757">
        <ele>136.5</ele>
        <time>2020-06-14T18:34:40Z</time>
      </trkpt>
      <trkpt lat="49.61978" lon="-1.66748">
        <ele>136.6</ele>
        <time>2020-06-14T18:34:41Z</time>
      </trkpt>
      <trkpt lat="49.61981" lon="-1.66739">
        <ele>136.5</ele>
        <time>2020-06-14T18:34:42Z</time>
      </trkpt>
      <trkpt lat="49.61984" lon="-1.6673">
        <ele>136.6</ele>
        <time>2020-06-14T18:34:43Z</time>
      </trkpt>
      <trkpt lat="49.61987" lon="-1.66721">
        <ele>136.6</ele>
        <time>2020-06-14T18:34:44Z</time>
      </trkpt>
      <trkpt lat="49.61989" lon="-1.66712">
        <ele>136.6</ele>
        <time>2020-06-14T18:34:45Z</time>
      </trkpt>
      <trkpt lat="49.61991" lon="-1.66703">
        <ele>136.6</ele>
        <time>2020-06-14T18:34:46Z</time>
      </trkpt>
      <trkpt lat="49.61993" lon="-1.66693">
        <ele>136.6</ele>
        <time>2020-06-14T18:34:47Z</time>
      </trkpt>
      <trkpt lat="49.61995" lon="-1.66683">
        <ele>136.6</ele>
        <time>2020-06-14T18:34:48Z</time>
      </trkpt>
      <trkpt lat="49.61997" lon="-1.66674">
        <ele>136.6</ele>
        <time>2020-06-14T18:34:49Z</time>
      </trkpt>
      <trkpt lat="49.61999" lon="-1.66664">
        <ele>136.6</ele>
        <time>2020-06-14T18:34:50Z</time>
      </trkpt>
      <trkpt lat="49.62002" lon="-1.66655">
        <ele>136.6</ele>
        <time>2020-06-14T18:34:51Z</time>
      </trkpt>
      <trkpt lat="49.62004" lon="-1.66646">
        <ele>136.6</ele>
        <time>2020-06-14T18:34:52Z</time>
      </trkpt>
      <trkpt lat="49.62006" lon="-1.66636">
        <ele>136.6</ele>
        <time>2020-06-14T18:34:53Z</time>
      </trkpt>
      <trkpt lat="49.62009" lon="-1.66627">
        <ele>136.6</ele>
        <time>2020-06-14T18:34:54Z</time>
      </trkpt>
      <trkpt lat="49.62011" lon="-1.66618">
        <ele>136.5</ele>
        <time>2020-06-14T18:34:55Z</time>
      </trkpt>
      <trkpt lat="49.62014" lon="-1.66609">
        <ele>136.4</ele>
        <time>2020-06-14T18:34:56Z</time>
      </trkpt>
      <trkpt lat="49.62017" lon="-1.666">
        <ele>136.3</ele>
        <time>2020-06-14T18:34:57Z</time>
      </trkpt>
      <trkpt lat="49.6202" lon="-1.66591">
        <ele>136.2</ele>
        <time>2020-06-14T18:34:58Z</time>
      </trkpt>
      <trkpt lat="49.62023" lon="-1.66582">
        <ele>136.1</ele>
        <time>2020-06-14T18:34:59Z</time>
      </trkpt>
      <trkpt lat="49.62026" lon="-1.66573">
        <ele>136</ele>
        <time>2020-06-14T18:35:00Z</time>
      </trkpt>
      <trkpt lat="49.62029" lon="-1.66564">
        <ele>135.9</ele>
        <time>2020-06-14T18:35:01Z</time>
      </trkpt>
      <trkpt lat="49.62032" lon="-1.66555">
        <ele>135.8</ele>
        <time>2020-06-14T18:35:02Z</time>
      </trkpt>
      <trkpt lat="49.62035" lon="-1.66546">
        <ele>135.7</ele>
        <time>2020-06-14T18:35:03Z</time>
      </trkpt>
      <trkpt lat="49.62038" lon="-1.66537">
        <ele>135.5</ele>
        <time>2020-06-14T18:35:04Z</time>
      </trkpt>
      <trkpt lat="49.62041" lon="-1.66528">
        <ele>135.3</ele>
        <time>2020-06-14T18:35:05Z</time>
      </trkpt>
      <trkpt lat="49.62044" lon="-1.6652">
        <ele>135.1</ele>
        <time>2020-06-14T18:35:06Z</time>
      </trkpt>
      <trkpt lat="49.62046" lon="-1.66511">
        <ele>135</ele>
        <time>2020-06-14T18:35:07Z</time>
      </trkpt>
      <trkpt lat="49.62049" lon="-1.66502">
        <ele>134.8</ele>
        <time>2020-06-14T18:35:08Z</time>
      </trkpt>
      <trkpt lat="49.62052" lon="-1.66494">
        <ele>134.6</ele>
        <time>2020-06-14T18:35:09Z</time>
      </trkpt>
      <trkpt lat="49.62055" lon="-1.66485">
        <ele>134.5</ele>
        <time>2020-06-14T18:35:10Z</time>
      </trkpt>
      <trkpt lat="49.62058" lon="-1.66475">
        <ele>134.3</ele>
        <time>2020-06-14T18:35:11Z</time>
      </trkpt>
      <trkpt lat="49.62061" lon="-1.66466">
        <ele>134.2</ele>
        <time>2020-06-14T18:35:12Z</time>
      </trkpt>
      <trkpt lat="49.62064" lon="-1.66456">
        <ele>134</ele>
        <time>2020-06-14T18:35:13Z</time>
      </trkpt>
      <trkpt lat="49.62067" lon="-1.66447">
        <ele>133.9</ele>
        <time>2020-06-14T18:35:14Z</time>
      </trkpt>
      <trkpt lat="49.6207" lon="-1.66437">
        <ele>133.7</ele>
        <time>2020-06-14T18:35:15Z</time>
      </trkpt>
      <trkpt lat="49.62073" lon="-1.66428">
        <ele>133.5</ele>
        <time>2020-06-14T18:35:16Z</time>
      </trkpt>
      <trkpt lat="49.62077" lon="-1.66419">
        <ele>133.3</ele>
        <time>2020-06-14T18:35:17Z</time>
      </trkpt>
      <trkpt lat="49.6208" lon="-1.66411">
        <ele>133.2</ele>
        <time>2020-06-14T18:35:18Z</time>
      </trkpt>
      <trkpt lat="49.62083" lon="-1.66402">
        <ele>133</ele>
        <time>2020-06-14T18:35:19Z</time>
      </trkpt>
      <trkpt lat="49.62086" lon="-1.66392">
        <ele>132.8</ele>
        <time>2020-06-14T18:35:20Z</time>
      </trkpt>
      <trkpt lat="49.6209" lon="-1.66383">
        <ele>132.7</ele>
        <time>2020-06-14T18:35:21Z</time>
      </trkpt>
      <trkpt lat="49.62093" lon="-1.66373">
        <ele>132.5</ele>
        <time>2020-06-14T18:35:22Z</time>
      </trkpt>
      <trkpt lat="49.62096" lon="-1.66364">
        <ele>132.4</ele>
        <time>2020-06-14T18:35:23Z</time>
      </trkpt>
      <trkpt lat="49.62099" lon="-1.66354">
        <ele>132.3</ele>
        <time>2020-06-14T18:35:24Z</time>
      </trkpt>
      <trkpt lat="49.62102" lon="-1.66344">
        <ele>132.2</ele>
        <time>2020-06-14T18:35:25Z</time>
      </trkpt>
      <trkpt lat="49.62106" lon="-1.66334">
        <ele>132.1</ele>
        <time>2020-06-14T18:35:26Z</time>
      </trkpt>
      <trkpt lat="49.62108" lon="-1.66324">
        <ele>132</ele>
        <time>2020-06-14T18:35:27Z</time>
      </trkpt>
      <trkpt lat="49.62111" lon="-1.66315">
        <ele>132</ele>
        <time>2020-06-14T18:35:28Z</time>
      </trkpt>
      <trkpt lat="49.62114" lon="-1.66305">
        <ele>131.9</ele>
        <time>2020-06-14T18:35:29Z</time>
      </trkpt>
      <trkpt lat="49.62117" lon="-1.66296">
        <ele>131.7</ele>
        <time>2020-06-14T18:35:30Z</time>
      </trkpt>
      <trkpt lat="49.62119" lon="-1.66287">
        <ele>131.6</ele>
        <time>2020-06-14T18:35:31Z</time>
      </trkpt>
      <trkpt lat="49.62122" lon="-1.66278">
        <ele>131.5</ele>
        <time>2020-06-14T18:35:32Z</time>
      </trkpt>
      <trkpt lat="49.62124" lon="-1.66269">
        <ele>131.4</ele>
        <time>2020-06-14T18:35:33Z</time>
      </trkpt>
      <trkpt lat="49.62126" lon="-1.66261">
        <ele>131.4</ele>
        <time>2020-06-14T18:35:34Z</time>
      </trkpt>
      <trkpt lat="49.62129" lon="-1.66252">
        <ele>131.3</ele>
        <time>2020-06-14T18:35:35Z</time>
      </trkpt>
      <trkpt lat="49.6213" lon="-1.66244">
        <ele>131.2</ele>
        <time>2020-06-14T18:35:36Z</time>
      </trkpt>
      <trkpt lat="49.62132" lon="-1.66235">
        <ele>131.1</ele>
        <time>2020-06-14T18:35:37Z</time>
      </trkpt>
      <trkpt lat="49.62133" lon="-1.66226">
        <ele>131</ele>
        <time>2020-06-14T18:35:38Z</time>
      </trkpt>
      <trkpt lat="49.62134" lon="-1.66218">
        <ele>130.9</ele>
        <time>2020-06-14T18:35:39Z</time>
      </trkpt>
      <trkpt lat="49.62134" lon="-1.66209">
        <ele>130.8</ele>
        <time>2020-06-14T18:35:40Z</time>
      </trkpt>
      <trkpt lat="49.62134" lon="-1.662">
        <ele>130.8</ele>
        <time>2020-06-14T18:35:41Z</time>
      </trkpt>
      <trkpt lat="49.62135" lon="-1.66192">
        <ele>130.7</ele>
        <time>2020-06-14T18:35:42Z</time>
      </trkpt>
      <trkpt lat="49.62136" lon="-1.66184">
        <ele>130.6</ele>
        <time>2020-06-14T18:35:43Z</time>
      </trkpt>
      <trkpt lat="49.62137" lon="-1.66176">
        <ele>130.5</ele>
        <time>2020-06-14T18:35:44Z</time>
      </trkpt>
      <trkpt lat="49.62138" lon="-1.66168">
        <ele>130.3</ele>
        <time>2020-06-14T18:35:45Z</time>
      </trkpt>
      <trkpt lat="49.62139" lon="-1.6616">
        <ele>130.2</ele>
        <time>2020-06-14T18:35:46Z</time>
      </trkpt>
      <trkpt lat="49.62139" lon="-1.66152">
        <ele>130</ele>
        <time>2020-06-14T18:35:47Z</time>
      </trkpt>
      <trkpt lat="49.6214" lon="-1.66145">
        <ele>129.9</ele>
        <time>2020-06-14T18:35:48Z</time>
      </trkpt>
      <trkpt lat="49.62139" lon="-1.66137">
        <ele>129.7</ele>
        <time>2020-06-14T18:35:49Z</time>
      </trkpt>
      <trkpt lat="49.62139" lon="-1.66129">
        <ele>129.6</ele>
        <time>2020-06-14T18:35:50Z</time>
      </trkpt>
      <trkpt lat="49.62139" lon="-1.66122">
        <ele>129.5</ele>
        <time>2020-06-14T18:35:51Z</time>
      </trkpt>
      <trkpt lat="49.62137" lon="-1.66116">
        <ele>129.4</ele>
        <time>2020-06-14T18:35:52Z</time>
      </trkpt>
      <trkpt lat="49.62137" lon="-1.66111">
        <ele>129.3</ele>
        <time>2020-06-14T18:35:53Z</time>
      </trkpt>
      <trkpt lat="49.62138" lon="-1.66107">
        <ele>129.2</ele>
        <time>2020-06-14T18:35:54Z</time>
      </trkpt>
      <trkpt lat="49.6214" lon="-1.66105">
        <ele>129.5</ele>
        <time>2020-06-14T18:35:55Z</time>
      </trkpt>
      <trkpt lat="49.62143" lon="-1.66104">
        <ele>129.7</ele>
        <time>2020-06-14T18:35:56Z</time>
      </trkpt>
      <trkpt lat="49.62146" lon="-1.66106">
        <ele>129.8</ele>
        <time>2020-06-14T18:35:57Z</time>
      </trkpt>
      <trkpt lat="49.62149" lon="-1.66106">
        <ele>130</ele>
        <time>2020-06-14T18:35:58Z</time>
      </trkpt>
      <trkpt lat="49.62151" lon="-1.66106">
        <ele>130.1</ele>
        <time>2020-06-14T18:35:59Z</time>
      </trkpt>
      <trkpt lat="49.62154" lon="-1.66104">
        <ele>130.3</ele>
        <time>2020-06-14T18:36:00Z</time>
      </trkpt>
      <trkpt lat="49.62156" lon="-1.66099">
        <ele>130.5</ele>
        <time>2020-06-14T18:36:01Z</time>
      </trkpt>
      <trkpt lat="49.62158" lon="-1.66097">
        <ele>130.6</ele>
        <time>2020-06-14T18:36:02Z</time>
      </trkpt>
      <trkpt lat="49.62161" lon="-1.66096">
        <ele>130.8</ele>
        <time>2020-06-14T18:36:03Z</time>
      </trkpt>
      <trkpt lat="49.62164" lon="-1.66094">
        <ele>131</ele>
        <time>2020-06-14T18:36:04Z</time>
      </trkpt>
      <trkpt lat="49.62166" lon="-1.66091">
        <ele>131.1</ele>
        <time>2020-06-14T18:36:05Z</time>
      </trkpt>
      <trkpt lat="49.62169" lon="-1.66087">
        <ele>131.3</ele>
        <time>2020-06-14T18:36:06Z</time>
      </trkpt>
      <trkpt lat="49.62171" lon="-1.66082">
        <ele>131.6</ele>
        <time>2020-06-14T18:36:07Z</time>
      </trkpt>
      <trkpt lat="49.62174" lon="-1.66078">
        <ele>131.8</ele>
        <time>2020-06-14T18:36:08Z</time>
      </trkpt>
      <trkpt lat="49.62176" lon="-1.66074">
        <ele>132</ele>
        <time>2020-06-14T18:36:09Z</time>
      </trkpt>
      <trkpt lat="49.62178" lon="-1.66069">
        <ele>132.3</ele>
        <time>2020-06-14T18:36:10Z</time>
      </trkpt>
      <trkpt lat="49.62181" lon="-1.66064">
        <ele>132.6</ele>
        <time>2020-06-14T18:36:11Z</time>
      </trkpt>
      <trkpt lat="49.62182" lon="-1.66058">
        <ele>132.8</ele>
        <time>2020-06-14T18:36:12Z</time>
      </trkpt>
      <trkpt lat="49.62185" lon="-1.66052">
        <ele>133</ele>
        <time>2020-06-14T18:36:13Z</time>
      </trkpt>
      <trkpt lat="49.62187" lon="-1.66047">
        <ele>133.3</ele>
        <time>2020-06-14T18:36:14Z</time>
      </trkpt>
      <trkpt lat="49.62189" lon="-1.66042">
        <ele>133.4</ele>
        <time>2020-06-14T18:36:15Z</time>
      </trkpt>
      <trkpt lat="49.62191" lon="-1.66036">
        <ele>133.4</ele>
        <time>2020-06-14T18:36:16Z</time>
      </trkpt>
      <trkpt lat="49.62194" lon="-1.6603">
        <ele>133.5</ele>
        <time>2020-06-14T18:36:17Z</time>
      </trkpt>
      <trkpt lat="49.62196" lon="-1.66024">
        <ele>133.6</ele>
        <time>2020-06-14T18:36:18Z</time>
      </trkpt>
      <trkpt lat="49.622" lon="-1.66019">
        <ele>133.7</ele>
        <time>2020-06-14T18:36:19Z</time>
      </trkpt>
      <trkpt lat="49.62203" lon="-1.66014">
        <ele>133.7</ele>
        <time>2020-06-14T18:36:20Z</time>
      </trkpt>
      <trkpt lat="49.62208" lon="-1.66009">
        <ele>133.8</ele>
        <time>2020-06-14T18:36:21Z</time>
      </trkpt>
      <trkpt lat="49.62213" lon="-1.66004">
        <ele>133.9</ele>
        <time>2020-06-14T18:36:22Z</time>
      </trkpt>
      <trkpt lat="49.62217" lon="-1.66">
        <ele>134</ele>
        <time>2020-06-14T18:36:23Z</time>
      </trkpt>
      <trkpt lat="49.62221" lon="-1.65997">
        <ele>134</ele>
        <time>2020-06-14T18:36:24Z</time>
      </trkpt>
      <trkpt lat="49.62226" lon="-1.65992">
        <ele>134.1</ele>
        <time>2020-06-14T18:36:25Z</time>
      </trkpt>
      <trkpt lat="49.6223" lon="-1.65988">
        <ele>134.1</ele>
        <time>2020-06-14T18:36:26Z</time>
      </trkpt>
      <trkpt lat="49.62234" lon="-1.65985">
        <ele>134.1</ele>
        <time>2020-06-14T18:36:27Z</time>
      </trkpt>
      <trkpt lat="49.62238" lon="-1.65981">
        <ele>134</ele>
        <time>2020-06-14T18:36:28Z</time>
      </trkpt>
      <trkpt lat="49.62241" lon="-1.65976">
        <ele>133.9</ele>
        <time>2020-06-14T18:36:29Z</time>
      </trkpt>
      <trkpt lat="49.62244" lon="-1.65972">
        <ele>134</ele>
        <time>2020-06-14T18:36:30Z</time>
      </trkpt>
      <trkpt lat="49.62247" lon="-1.65967">
        <ele>134</ele>
        <time>2020-06-14T18:36:31Z</time>
      </trkpt>
      <trkpt lat="49.62251" lon="-1.65963">
        <ele>134</ele>
        <time>2020-06-14T18:36:32Z</time>
      </trkpt>
      <trkpt lat="49.62254" lon="-1.65959">
        <ele>134.1</ele>
        <time>2020-06-14T18:36:33Z</time>
      </trkpt>
      <trkpt lat="49.62257" lon="-1.65956">
        <ele>134.1</ele>
        <time>2020-06-14T18:36:34Z</time>
      </trkpt>
      <trkpt lat="49.62259" lon="-1.65952">
        <ele>134.1</ele>
        <time>2020-06-14T18:36:35Z</time>
      </trkpt>
      <trkpt lat="49.62262" lon="-1.65949">
        <ele>134.1</ele>
        <time>2020-06-14T18:36:36Z</time>
      </trkpt>
      <trkpt lat="49.62266" lon="-1.65947">
        <ele>134.1</ele>
        <time>2020-06-14T18:36:37Z</time>
      </trkpt>
      <trkpt lat="49.62269" lon="-1.65945">
        <ele>134</ele>
        <time>2020-06-14T18:36:38Z</time>
      </trkpt>
      <trkpt lat="49.62272" lon="-1.65943">
        <ele>133.9</ele>
        <time>2020-06-14T18:36:39Z</time>
      </trkpt>
      <trkpt lat="49.62276" lon="-1.6594">
        <ele>133.8</ele>
        <time>2020-06-14T18:36:40Z</time>
      </trkpt>
      <trkpt lat="49.62279" lon="-1.65936">
        <ele>133.7</ele>
        <time>2020-06-14T18:36:41Z</time>
      </trkpt>
      <trkpt lat="49.62283" lon="-1.65931">
        <ele>133.6</ele>
        <time>2020-06-14T18:36:42Z</time>
      </trkpt>
      <trkpt lat="49.62286" lon="-1.65926">
        <ele>133.4</ele>
        <time>2020-06-14T18:36:43Z</time>
      </trkpt>
      <trkpt lat="49.62289" lon="-1.65921">
        <ele>133.2</ele>
        <time>2020-06-14T18:36:44Z</time>
      </trkpt>
      <trkpt lat="49.62292" lon="-1.65918">
        <ele>133.1</ele>
        <time>2020-06-14T18:36:45Z</time>
      </trkpt>
      <trkpt lat="49.62296" lon="-1.65914">
        <ele>132.8</ele>
        <time>2020-06-14T18:36:46Z</time>
      </trkpt>
      <trkpt lat="49.62299" lon="-1.65909">
        <ele>132.6</ele>
        <time>2020-06-14T18:36:47Z</time>
      </trkpt>
      <trkpt lat="49.62303" lon="-1.65906">
        <ele>132.4</ele>
        <time>2020-06-14T18:36:48Z</time>
      </trkpt>
      <trkpt lat="49.62307" lon="-1.65901">
        <ele>132.1</ele>
        <time>2020-06-14T18:36:49Z</time>
      </trkpt>
      <trkpt lat="49.62311" lon="-1.65896">
        <ele>131.8</ele>
        <time>2020-06-14T18:36:50Z</time>
      </trkpt>
      <trkpt lat="49.62315" lon="-1.65892">
        <ele>131.5</ele>
        <time>2020-06-14T18:36:51Z</time>
      </trkpt>
      <trkpt lat="49.62319" lon="-1.65886">
        <ele>131.2</ele>
        <time>2020-06-14T18:36:52Z</time>
      </trkpt>
      <trkpt lat="49.62324" lon="-1.6588">
        <ele>130.9</ele>
        <time>2020-06-14T18:36:53Z</time>
      </trkpt>
      <trkpt lat="49.62328" lon="-1.65874">
        <ele>130.6</ele>
        <time>2020-06-14T18:36:54Z</time>
      </trkpt>
      <trkpt lat="49.62333" lon="-1.65866">
        <ele>130.2</ele>
        <time>2020-06-14T18:36:55Z</time>
      </trkpt>
      <trkpt lat="49.62338" lon="-1.65858">
        <ele>129.7</ele>
        <time>2020-06-14T18:36:56Z</time>
      </trkpt>
      <trkpt lat="49.62343" lon="-1.65848">
        <ele>129.3</ele>
        <time>2020-06-14T18:36:57Z</time>
      </trkpt>
      <trkpt lat="49.62347" lon="-1.65839">
        <ele>129</ele>
        <time>2020-06-14T18:36:58Z</time>
      </trkpt>
      <trkpt lat="49.62352" lon="-1.65829">
        <ele>128.6</ele>
        <time>2020-06-14T18:36:59Z</time>
      </trkpt>
      <trkpt lat="49.62356" lon="-1.65819">
        <ele>128.3</ele>
        <time>2020-06-14T18:37:00Z</time>
      </trkpt>
      <trkpt lat="49.62361" lon="-1.65809">
        <ele>128</ele>
        <time>2020-06-14T18:37:01Z</time>
      </trkpt>
      <trkpt lat="49.62366" lon="-1.658">
        <ele>127.7</ele>
        <time>2020-06-14T18:37:02Z</time>
      </trkpt>
      <trkpt lat="49.62371" lon="-1.65791">
        <ele>127.3</ele>
        <time>2020-06-14T18:37:03Z</time>
      </trkpt>
      <trkpt lat="49.62376" lon="-1.65782">
        <ele>127.2</ele>
        <time>2020-06-14T18:37:04Z</time>
      </trkpt>
      <trkpt lat="49.6238" lon="-1.65774">
        <ele>127</ele>
        <time>2020-06-14T18:37:05Z</time>
      </trkpt>
      <trkpt lat="49.62384" lon="-1.65765">
        <ele>126.8</ele>
        <time>2020-06-14T18:37:06Z</time>
      </trkpt>
      <trkpt lat="49.62388" lon="-1.65756">
        <ele>126.5</ele>
        <time>2020-06-14T18:37:07Z</time>
      </trkpt>
      <trkpt lat="49.62392" lon="-1.65747">
        <ele>126.2</ele>
        <time>2020-06-14T18:37:08Z</time>
      </trkpt>
      <trkpt lat="49.62396" lon="-1.65737">
        <ele>125.9</ele>
        <time>2020-06-14T18:37:09Z</time>
      </trkpt>
      <trkpt lat="49.624" lon="-1.65727">
        <ele>125.6</ele>
        <time>2020-06-14T18:37:10Z</time>
      </trkpt>
      <trkpt lat="49.62405" lon="-1.65718">
        <ele>125.4</ele>
        <time>2020-06-14T18:37:11Z</time>
      </trkpt>
      <trkpt lat="49.6241" lon="-1.65709">
        <ele>125.2</ele>
        <time>2020-06-14T18:37:12Z</time>
      </trkpt>
      <trkpt lat="49.62415" lon="-1.65701">
        <ele>125</ele>
        <time>2020-06-14T18:37:13Z</time>
      </trkpt>
      <trkpt lat="49.62419" lon="-1.65692">
        <ele>124.8</ele>
        <time>2020-06-14T18:37:14Z</time>
      </trkpt>
      <trkpt lat="49.62424" lon="-1.65683">
        <ele>124.7</ele>
        <time>2020-06-14T18:37:15Z</time>
      </trkpt>
      <trkpt lat="49.62429" lon="-1.65675">
        <ele>124.5</ele>
        <time>2020-06-14T18:37:16Z</time>
      </trkpt>
      <trkpt lat="49.62433" lon="-1.65667">
        <ele>124.4</ele>
        <time>2020-06-14T18:37:17Z</time>
      </trkpt>
      <trkpt lat="49.62438" lon="-1.6566">
        <ele>124.3</ele>
        <time>2020-06-14T18:37:18Z</time>
      </trkpt>
      <trkpt lat="49.62442" lon="-1.65652">
        <ele>124.1</ele>
        <time>2020-06-14T18:37:19Z</time>
      </trkpt>
      <trkpt lat="49.62446" lon="-1.65644">
        <ele>124</ele>
        <time>2020-06-14T18:37:20Z</time>
      </trkpt>
      <trkpt lat="49.6245" lon="-1.65637">
        <ele>123.9</ele>
        <time>2020-06-14T18:37:21Z</time>
      </trkpt>
      <trkpt lat="49.62454" lon="-1.65631">
        <ele>123.7</ele>
        <time>2020-06-14T18:37:22Z</time>
      </trkpt>
      <trkpt lat="49.62457" lon="-1.65625">
        <ele>123.6</ele>
        <time>2020-06-14T18:37:23Z</time>
      </trkpt>
      <trkpt lat="49.62461" lon="-1.65621">
        <ele>123.4</ele>
        <time>2020-06-14T18:37:24Z</time>
      </trkpt>
      <trkpt lat="49.62465" lon="-1.65616">
        <ele>123.2</ele>
        <time>2020-06-14T18:37:25Z</time>
      </trkpt>
      <trkpt lat="49.62469" lon="-1.6561">
        <ele>123</ele>
        <time>2020-06-14T18:37:26Z</time>
      </trkpt>
      <trkpt lat="49.62473" lon="-1.65605">
        <ele>122.7</ele>
        <time>2020-06-14T18:37:27Z</time>
      </trkpt>
      <trkpt lat="49.62476" lon="-1.65599">
        <ele>122.4</ele>
        <time>2020-06-14T18:37:28Z</time>
      </trkpt>
      <trkpt lat="49.6248" lon="-1.65594">
        <ele>122.1</ele>
        <time>2020-06-14T18:37:29Z</time>
      </trkpt>
      <trkpt lat="49.62484" lon="-1.6559">
        <ele>121.7</ele>
        <time>2020-06-14T18:37:30Z</time>
      </trkpt>
      <trkpt lat="49.62488" lon="-1.65586">
        <ele>121.3</ele>
        <time>2020-06-14T18:37:31Z</time>
      </trkpt>
      <trkpt lat="49.62491" lon="-1.65581">
        <ele>121</ele>
        <time>2020-06-14T18:37:32Z</time>
      </trkpt>
      <trkpt lat="49.62495" lon="-1.65576">
        <ele>120.6</ele>
        <time>2020-06-14T18:37:33Z</time>
      </trkpt>
      <trkpt lat="49.62498" lon="-1.6557">
        <ele>120.2</ele>
        <time>2020-06-14T18:37:34Z</time>
      </trkpt>
      <trkpt lat="49.62501" lon="-1.65563">
        <ele>119.8</ele>
        <time>2020-06-14T18:37:35Z</time>
      </trkpt>
      <trkpt lat="49.62504" lon="-1.65556">
        <ele>119.3</ele>
        <time>2020-06-14T18:37:36Z</time>
      </trkpt>
      <trkpt lat="49.62508" lon="-1.65549">
        <ele>118.9</ele>
        <time>2020-06-14T18:37:37Z</time>
      </trkpt>
      <trkpt lat="49.62512" lon="-1.65543">
        <ele>118.4</ele>
        <time>2020-06-14T18:37:38Z</time>
      </trkpt>
      <trkpt lat="49.62516" lon="-1.65538">
        <ele>118</ele>
        <time>2020-06-14T18:37:39Z</time>
      </trkpt>
      <trkpt lat="49.62519" lon="-1.65532">
        <ele>117.6</ele>
        <time>2020-06-14T18:37:40Z</time>
      </trkpt>
      <trkpt lat="49.62523" lon="-1.65525">
        <ele>117.2</ele>
        <time>2020-06-14T18:37:41Z</time>
      </trkpt>
      <trkpt lat="49.62526" lon="-1.65517">
        <ele>116.7</ele>
        <time>2020-06-14T18:37:42Z</time>
      </trkpt>
      <trkpt lat="49.6253" lon="-1.65509">
        <ele>116.2</ele>
        <time>2020-06-14T18:37:43Z</time>
      </trkpt>
      <trkpt lat="49.62534" lon="-1.65501">
        <ele>115.8</ele>
        <time>2020-06-14T18:37:44Z</time>
      </trkpt>
      <trkpt lat="49.62539" lon="-1.65492">
        <ele>115.3</ele>
        <time>2020-06-14T18:37:45Z</time>
      </trkpt>
      <trkpt lat="49.62544" lon="-1.65484">
        <ele>114.9</ele>
        <time>2020-06-14T18:37:46Z</time>
      </trkpt>
      <trkpt lat="49.62548" lon="-1.65476">
        <ele>114.5</ele>
        <time>2020-06-14T18:37:47Z</time>
      </trkpt>
      <trkpt lat="49.62552" lon="-1.65469">
        <ele>114.2</ele>
        <time>2020-06-14T18:37:48Z</time>
      </trkpt>
      <trkpt lat="49.62555" lon="-1.65464">
        <ele>113.8</ele>
        <time>2020-06-14T18:37:49Z</time>
      </trkpt>
      <trkpt lat="49.62559" lon="-1.65459">
        <ele>113.5</ele>
        <time>2020-06-14T18:37:50Z</time>
      </trkpt>
      <trkpt lat="49.62562" lon="-1.65454">
        <ele>113.2</ele>
        <time>2020-06-14T18:37:51Z</time>
      </trkpt>
      <trkpt lat="49.62566" lon="-1.65448">
        <ele>112.9</ele>
        <time>2020-06-14T18:37:52Z</time>
      </trkpt>
      <trkpt lat="49.6257" lon="-1.6544">
        <ele>112.5</ele>
        <time>2020-06-14T18:37:53Z</time>
      </trkpt>
      <trkpt lat="49.62573" lon="-1.65431">
        <ele>112</ele>
        <time>2020-06-14T18:37:54Z</time>
      </trkpt>
      <trkpt lat="49.62577" lon="-1.65422">
        <ele>111.5</ele>
        <time>2020-06-14T18:37:55Z</time>
      </trkpt>
      <trkpt lat="49.62581" lon="-1.65414">
        <ele>111.1</ele>
        <time>2020-06-14T18:37:56Z</time>
      </trkpt>
      <trkpt lat="49.62584" lon="-1.65406">
        <ele>110.6</ele>
        <time>2020-06-14T18:37:57Z</time>
      </trkpt>
      <trkpt lat="49.62588" lon="-1.65397">
        <ele>110</ele>
        <time>2020-06-14T18:37:58Z</time>
      </trkpt>
      <trkpt lat="49.62593" lon="-1.65388">
        <ele>109.4</ele>
        <time>2020-06-14T18:37:59Z</time>
      </trkpt>
      <trkpt lat="49.62598" lon="-1.65379">
        <ele>108.8</ele>
        <time>2020-06-14T18:38:00Z</time>
      </trkpt>
      <trkpt lat="49.62603" lon="-1.6537">
        <ele>108.1</ele>
        <time>2020-06-14T18:38:01Z</time>
      </trkpt>
      <trkpt lat="49.62609" lon="-1.65361">
        <ele>107.5</ele>
        <time>2020-06-14T18:38:02Z</time>
      </trkpt>
      <trkpt lat="49.62614" lon="-1.6535">
        <ele>106.7</ele>
        <time>2020-06-14T18:38:03Z</time>
      </trkpt>
      <trkpt lat="49.62621" lon="-1.65339">
        <ele>105.5</ele>
        <time>2020-06-14T18:38:04Z</time>
      </trkpt>
      <trkpt lat="49.62629" lon="-1.65327">
        <ele>104.1</ele>
        <time>2020-06-14T18:38:05Z</time>
      </trkpt>
      <trkpt lat="49.62636" lon="-1.65315">
        <ele>102.7</ele>
        <time>2020-06-14T18:38:06Z</time>
      </trkpt>
      <trkpt lat="49.62642" lon="-1.65303">
        <ele>101.6</ele>
        <time>2020-06-14T18:38:07Z</time>
      </trkpt>
      <trkpt lat="49.62649" lon="-1.65292">
        <ele>100.7</ele>
        <time>2020-06-14T18:38:08Z</time>
      </trkpt>
      <trkpt lat="49.62654" lon="-1.65283">
        <ele>100</ele>
        <time>2020-06-14T18:38:09Z</time>
      </trkpt>
      <trkpt lat="49.62659" lon="-1.65274">
        <ele>99.3</ele>
        <time>2020-06-14T18:38:10Z</time>
      </trkpt>
      <trkpt lat="49.62665" lon="-1.65265">
        <ele>98.4</ele>
        <time>2020-06-14T18:38:11Z</time>
      </trkpt>
      <trkpt lat="49.62671" lon="-1.65255">
        <ele>97.6</ele>
        <time>2020-06-14T18:38:12Z</time>
      </trkpt>
      <trkpt lat="49.62675" lon="-1.65244">
        <ele>96.9</ele>
        <time>2020-06-14T18:38:13Z</time>
      </trkpt>
      <trkpt lat="49.6268" lon="-1.65233">
        <ele>96.3</ele>
        <time>2020-06-14T18:38:14Z</time>
      </trkpt>
      <trkpt lat="49.62685" lon="-1.65223">
        <ele>95.9</ele>
        <time>2020-06-14T18:38:15Z</time>
      </trkpt>
      <trkpt lat="49.62689" lon="-1.65213">
        <ele>95.5</ele>
        <time>2020-06-14T18:38:16Z</time>
      </trkpt>
      <trkpt lat="49.62693" lon="-1.65203">
        <ele>95.1</ele>
        <time>2020-06-14T18:38:17Z</time>
      </trkpt>
      <trkpt lat="49.62698" lon="-1.65191">
        <ele>94.7</ele>
        <time>2020-06-14T18:38:18Z</time>
      </trkpt>
      <trkpt lat="49.62702" lon="-1.65179">
        <ele>94.2</ele>
        <time>2020-06-14T18:38:19Z</time>
      </trkpt>
      <trkpt lat="49.62707" lon="-1.65167">
        <ele>93.6</ele>
        <time>2020-06-14T18:38:20Z</time>
      </trkpt>
      <trkpt lat="49.62711" lon="-1.65156">
        <ele>93.1</ele>
        <time>2020-06-14T18:38:21Z</time>
      </trkpt>
      <trkpt lat="49.62716" lon="-1.65144">
        <ele>92.7</ele>
        <time>2020-06-14T18:38:22Z</time>
      </trkpt>
      <trkpt lat="49.62721" lon="-1.65134">
        <ele>92.4</ele>
        <time>2020-06-14T18:38:23Z</time>
      </trkpt>
      <trkpt lat="49.62726" lon="-1.65125">
        <ele>92.2</ele>
        <time>2020-06-14T18:38:24Z</time>
      </trkpt>
      <trkpt lat="49.62731" lon="-1.65117">
        <ele>91.9</ele>
        <time>2020-06-14T18:38:25Z</time>
      </trkpt>
      <trkpt lat="49.62735" lon="-1.65107">
        <ele>91.7</ele>
        <time>2020-06-14T18:38:26Z</time>
      </trkpt>
      <trkpt lat="49.6274" lon="-1.65097">
        <ele>91.5</ele>
        <time>2020-06-14T18:38:27Z</time>
      </trkpt>
      <trkpt lat="49.62744" lon="-1.65088">
        <ele>91.3</ele>
        <time>2020-06-14T18:38:28Z</time>
      </trkpt>
      <trkpt lat="49.62749" lon="-1.65078">
        <ele>91.1</ele>
        <time>2020-06-14T18:38:29Z</time>
      </trkpt>
      <trkpt lat="49.62753" lon="-1.65069">
        <ele>90.9</ele>
        <time>2020-06-14T18:38:30Z</time>
      </trkpt>
      <trkpt lat="49.62758" lon="-1.65058">
        <ele>90.6</ele>
        <time>2020-06-14T18:38:31Z</time>
      </trkpt>
      <trkpt lat="49.62762" lon="-1.65049">
        <ele>90.4</ele>
        <time>2020-06-14T18:38:32Z</time>
      </trkpt>
      <trkpt lat="49.62766" lon="-1.65041">
        <ele>90.3</ele>
        <time>2020-06-14T18:38:33Z</time>
      </trkpt>
      <trkpt lat="49.62771" lon="-1.65034">
        <ele>90.1</ele>
        <time>2020-06-14T18:38:34Z</time>
      </trkpt>
      <trkpt lat="49.62776" lon="-1.65027">
        <ele>90</ele>
        <time>2020-06-14T18:38:35Z</time>
      </trkpt>
      <trkpt lat="49.62781" lon="-1.6502">
        <ele>90</ele>
        <time>2020-06-14T18:38:36Z</time>
      </trkpt>
      <trkpt lat="49.62786" lon="-1.65014">
        <ele>89.9</ele>
        <time>2020-06-14T18:38:37Z</time>
      </trkpt>
      <trkpt lat="49.62792" lon="-1.65007">
        <ele>89.8</ele>
        <time>2020-06-14T18:38:38Z</time>
      </trkpt>
      <trkpt lat="49.62798" lon="-1.65001">
        <ele>89.8</ele>
        <time>2020-06-14T18:38:39Z</time>
      </trkpt>
      <trkpt lat="49.62803" lon="-1.64993">
        <ele>89.5</ele>
        <time>2020-06-14T18:38:40Z</time>
      </trkpt>
      <trkpt lat="49.62808" lon="-1.64986">
        <ele>89.3</ele>
        <time>2020-06-14T18:38:41Z</time>
      </trkpt>
      <trkpt lat="49.62813" lon="-1.64981">
        <ele>89.1</ele>
        <time>2020-06-14T18:38:42Z</time>
      </trkpt>
      <trkpt lat="49.62817" lon="-1.64976">
        <ele>88.9</ele>
        <time>2020-06-14T18:38:43Z</time>
      </trkpt>
      <trkpt lat="49.6282" lon="-1.64973">
        <ele>88.8</ele>
        <time>2020-06-14T18:38:44Z</time>
      </trkpt>
      <trkpt lat="49.62822" lon="-1.64969">
        <ele>88.6</ele>
        <time>2020-06-14T18:38:45Z</time>
      </trkpt>
      <trkpt lat="49.62825" lon="-1.64964">
        <ele>88.4</ele>
        <time>2020-06-14T18:38:46Z</time>
      </trkpt>
      <trkpt lat="49.62829" lon="-1.64959">
        <ele>87.8</ele>
        <time>2020-06-14T18:38:47Z</time>
      </trkpt>
      <trkpt lat="49.62833" lon="-1.64954">
        <ele>87.9</ele>
        <time>2020-06-14T18:38:48Z</time>
      </trkpt>
      <trkpt lat="49.62835" lon="-1.64946">
        <ele>88</ele>
        <time>2020-06-14T18:38:49Z</time>
      </trkpt>
      <trkpt lat="49.62835" lon="-1.64939">
        <ele>88.1</ele>
        <time>2020-06-14T18:38:50Z</time>
      </trkpt>
      <trkpt lat="49.62836" lon="-1.64931">
        <ele>88.1</ele>
        <time>2020-06-14T18:38:51Z</time>
      </trkpt>
      <trkpt lat="49.62838" lon="-1.64925">
        <ele>88.2</ele>
        <time>2020-06-14T18:38:52Z</time>
      </trkpt>
      <trkpt lat="49.62839" lon="-1.64919">
        <ele>88.3</ele>
        <time>2020-06-14T18:38:53Z</time>
      </trkpt>
      <trkpt lat="49.62841" lon="-1.64914">
        <ele>88.3</ele>
        <time>2020-06-14T18:38:54Z</time>
      </trkpt>
      <trkpt lat="49.62843" lon="-1.6491">
        <ele>88.4</ele>
        <time>2020-06-14T18:38:55Z</time>
      </trkpt>
      <trkpt lat="49.62844" lon="-1.64904">
        <ele>88.4</ele>
        <time>2020-06-14T18:38:56Z</time>
      </trkpt>
      <trkpt lat="49.62846" lon="-1.649">
        <ele>88.3</ele>
        <time>2020-06-14T18:38:57Z</time>
      </trkpt>
      <trkpt lat="49.62849" lon="-1.64896">
        <ele>88.2</ele>
        <time>2020-06-14T18:38:58Z</time>
      </trkpt>
      <trkpt lat="49.62851" lon="-1.6489">
        <ele>88</ele>
        <time>2020-06-14T18:38:59Z</time>
      </trkpt>
      <trkpt lat="49.62854" lon="-1.64885">
        <ele>87.8</ele>
        <time>2020-06-14T18:39:00Z</time>
      </trkpt>
      <trkpt lat="49.62857" lon="-1.64878">
        <ele>87.6</ele>
        <time>2020-06-14T18:39:01Z</time>
      </trkpt>
      <trkpt lat="49.62859" lon="-1.6487">
        <ele>87.4</ele>
        <time>2020-06-14T18:39:02Z</time>
      </trkpt>
      <trkpt lat="49.62863" lon="-1.64864">
        <ele>87.1</ele>
        <time>2020-06-14T18:39:03Z</time>
      </trkpt>
      <trkpt lat="49.62866" lon="-1.64857">
        <ele>86.9</ele>
        <time>2020-06-14T18:39:04Z</time>
      </trkpt>
      <trkpt lat="49.6287" lon="-1.6485">
        <ele>86.7</ele>
        <time>2020-06-14T18:39:05Z</time>
      </trkpt>
      <trkpt lat="49.62874" lon="-1.64844">
        <ele>86.4</ele>
        <time>2020-06-14T18:39:06Z</time>
      </trkpt>
      <trkpt lat="49.62878" lon="-1.64837">
        <ele>86.2</ele>
        <time>2020-06-14T18:39:07Z</time>
      </trkpt>
      <trkpt lat="49.62882" lon="-1.6483">
        <ele>85.9</ele>
        <time>2020-06-14T18:39:08Z</time>
      </trkpt>
      <trkpt lat="49.62885" lon="-1.64822">
        <ele>85.6</ele>
        <time>2020-06-14T18:39:09Z</time>
      </trkpt>
      <trkpt lat="49.62889" lon="-1.64814">
        <ele>85.4</ele>
        <time>2020-06-14T18:39:10Z</time>
      </trkpt>
      <trkpt lat="49.62893" lon="-1.64806">
        <ele>85.1</ele>
        <time>2020-06-14T18:39:11Z</time>
      </trkpt>
      <trkpt lat="49.62897" lon="-1.64798">
        <ele>84.8</ele>
        <time>2020-06-14T18:39:12Z</time>
      </trkpt>
      <trkpt lat="49.629" lon="-1.6479">
        <ele>84.5</ele>
        <time>2020-06-14T18:39:13Z</time>
      </trkpt>
      <trkpt lat="49.62904" lon="-1.64782">
        <ele>84.2</ele>
        <time>2020-06-14T18:39:14Z</time>
      </trkpt>
      <trkpt lat="49.62908" lon="-1.64774">
        <ele>84</ele>
        <time>2020-06-14T18:39:15Z</time>
      </trkpt>
      <trkpt lat="49.62911" lon="-1.64766">
        <ele>83.8</ele>
        <time>2020-06-14T18:39:16Z</time>
      </trkpt>
      <trkpt lat="49.62915" lon="-1.64759">
        <ele>83.7</ele>
        <time>2020-06-14T18:39:17Z</time>
      </trkpt>
      <trkpt lat="49.62918" lon="-1.64751">
        <ele>83.5</ele>
        <time>2020-06-14T18:39:18Z</time>
      </trkpt>
      <trkpt lat="49.62921" lon="-1.64745">
        <ele>83.4</ele>
        <time>2020-06-14T18:39:19Z</time>
      </trkpt>
      <trkpt lat="49.62924" lon="-1.64738">
        <ele>83.3</ele>
        <time>2020-06-14T18:39:20Z</time>
      </trkpt>
      <trkpt lat="49.62927" lon="-1.64731">
        <ele>83.2</ele>
        <time>2020-06-14T18:39:21Z</time>
      </trkpt>
      <trkpt lat="49.6293" lon="-1.64724">
        <ele>83.2</ele>
        <time>2020-06-14T18:39:22Z</time>
      </trkpt>
      <trkpt lat="49.62933" lon="-1.64716">
        <ele>83.1</ele>
        <time>2020-06-14T18:39:23Z</time>
      </trkpt>
      <trkpt lat="49.62937" lon="-1.6471">
        <ele>82.9</ele>
        <time>2020-06-14T18:39:24Z</time>
      </trkpt>
      <trkpt lat="49.6294" lon="-1.64704">
        <ele>82.8</ele>
        <time>2020-06-14T18:39:25Z</time>
      </trkpt>
      <trkpt lat="49.62943" lon="-1.64697">
        <ele>82.6</ele>
        <time>2020-06-14T18:39:26Z</time>
      </trkpt>
      <trkpt lat="49.62947" lon="-1.6469">
        <ele>82.5</ele>
        <time>2020-06-14T18:39:27Z</time>
      </trkpt>
      <trkpt lat="49.6295" lon="-1.64683">
        <ele>82.3</ele>
        <time>2020-06-14T18:39:28Z</time>
      </trkpt>
      <trkpt lat="49.62954" lon="-1.64676">
        <ele>82.2</ele>
        <time>2020-06-14T18:39:29Z</time>
      </trkpt>
      <trkpt lat="49.62957" lon="-1.64667">
        <ele>82</ele>
        <time>2020-06-14T18:39:30Z</time>
      </trkpt>
      <trkpt lat="49.62961" lon="-1.64658">
        <ele>81.9</ele>
        <time>2020-06-14T18:39:31Z</time>
      </trkpt>
      <trkpt lat="49.62965" lon="-1.6465">
        <ele>81.8</ele>
        <time>2020-06-14T18:39:32Z</time>
      </trkpt>
      <trkpt lat="49.62968" lon="-1.64642">
        <ele>81.8</ele>
        <time>2020-06-14T18:39:33Z</time>
      </trkpt>
      <trkpt lat="49.62972" lon="-1.64634">
        <ele>81.7</ele>
        <time>2020-06-14T18:39:34Z</time>
      </trkpt>
      <trkpt lat="49.62976" lon="-1.64626">
        <ele>81.6</ele>
        <time>2020-06-14T18:39:35Z</time>
      </trkpt>
      <trkpt lat="49.62979" lon="-1.64618">
        <ele>81.5</ele>
        <time>2020-06-14T18:39:36Z</time>
      </trkpt>
      <trkpt lat="49.62983" lon="-1.64609">
        <ele>81.5</ele>
        <time>2020-06-14T18:39:37Z</time>
      </trkpt>
      <trkpt lat="49.62986" lon="-1.64601">
        <ele>81.4</ele>
        <time>2020-06-14T18:39:38Z</time>
      </trkpt>
      <trkpt lat="49.6299" lon="-1.64592">
        <ele>81.3</ele>
        <time>2020-06-14T18:39:39Z</time>
      </trkpt>
      <trkpt lat="49.62994" lon="-1.64584">
        <ele>81.2</ele>
        <time>2020-06-14T18:39:40Z</time>
      </trkpt>
      <trkpt lat="49.62997" lon="-1.64577">
        <ele>81.1</ele>
        <time>2020-06-14T18:39:41Z</time>
      </trkpt>
      <trkpt lat="49.63001" lon="-1.64569">
        <ele>81</ele>
        <time>2020-06-14T18:39:42Z</time>
      </trkpt>
      <trkpt lat="49.63005" lon="-1.64562">
        <ele>80.9</ele>
        <time>2020-06-14T18:39:43Z</time>
      </trkpt>
      <trkpt lat="49.63009" lon="-1.64554">
        <ele>80.9</ele>
        <time>2020-06-14T18:39:44Z</time>
      </trkpt>
      <trkpt lat="49.63012" lon="-1.64547">
        <ele>80.8</ele>
        <time>2020-06-14T18:39:45Z</time>
      </trkpt>
      <trkpt lat="49.63015" lon="-1.6454">
        <ele>80.8</ele>
        <time>2020-06-14T18:39:46Z</time>
      </trkpt>
      <trkpt lat="49.63019" lon="-1.64534">
        <ele>80.8</ele>
        <time>2020-06-14T18:39:47Z</time>
      </trkpt>
      <trkpt lat="49.63022" lon="-1.64526">
        <ele>80.8</ele>
        <time>2020-06-14T18:39:48Z</time>
      </trkpt>
      <trkpt lat="49.63025" lon="-1.64519">
        <ele>80.7</ele>
        <time>2020-06-14T18:39:49Z</time>
      </trkpt>
      <trkpt lat="49.63028" lon="-1.64513">
        <ele>80.7</ele>
        <time>2020-06-14T18:39:50Z</time>
      </trkpt>
      <trkpt lat="49.63031" lon="-1.64507">
        <ele>80.7</ele>
        <time>2020-06-14T18:39:51Z</time>
      </trkpt>
      <trkpt lat="49.63035" lon="-1.64501">
        <ele>80.7</ele>
        <time>2020-06-14T18:39:52Z</time>
      </trkpt>
      <trkpt lat="49.63038" lon="-1.64495">
        <ele>80.7</ele>
        <time>2020-06-14T18:39:53Z</time>
      </trkpt>
      <trkpt lat="49.63041" lon="-1.64489">
        <ele>80.7</ele>
        <time>2020-06-14T18:39:54Z</time>
      </trkpt>
      <trkpt lat="49.63043" lon="-1.64481">
        <ele>80.6</ele>
        <time>2020-06-14T18:39:55Z</time>
      </trkpt>
      <trkpt lat="49.63045" lon="-1.64475">
        <ele>80.6</ele>
        <time>2020-06-14T18:39:56Z</time>
      </trkpt>
      <trkpt lat="49.63048" lon="-1.6447">
        <ele>80.6</ele>
        <time>2020-06-14T18:39:57Z</time>
      </trkpt>
      <trkpt lat="49.63051" lon="-1.64465">
        <ele>80.6</ele>
        <time>2020-06-14T18:39:58Z</time>
      </trkpt>
      <trkpt lat="49.63053" lon="-1.64461">
        <ele>80.5</ele>
        <time>2020-06-14T18:39:59Z</time>
      </trkpt>
      <trkpt lat="49.63055" lon="-1.64455">
        <ele>80.5</ele>
        <time>2020-06-14T18:40:00Z</time>
      </trkpt>
      <trkpt lat="49.63057" lon="-1.6445">
        <ele>80.4</ele>
        <time>2020-06-14T18:40:01Z</time>
      </trkpt>
      <trkpt lat="49.63059" lon="-1.64445">
        <ele>80.4</ele>
        <time>2020-06-14T18:40:02Z</time>
      </trkpt>
      <trkpt lat="49.63062" lon="-1.64441">
        <ele>80.3</ele>
        <time>2020-06-14T18:40:03Z</time>
      </trkpt>
      <trkpt lat="49.63066" lon="-1.64437">
        <ele>80.2</ele>
        <time>2020-06-14T18:40:04Z</time>
      </trkpt>
      <trkpt lat="49.63069" lon="-1.64432">
        <ele>80.2</ele>
        <time>2020-06-14T18:40:05Z</time>
      </trkpt>
      <trkpt lat="49.63072" lon="-1.64427">
        <ele>80.1</ele>
        <time>2020-06-14T18:40:06Z</time>
      </trkpt>
      <trkpt lat="49.63074" lon="-1.64422">
        <ele>80.1</ele>
        <time>2020-06-14T18:40:07Z</time>
      </trkpt>
      <trkpt lat="49.63077" lon="-1.64417">
        <ele>80</ele>
        <time>2020-06-14T18:40:08Z</time>
      </trkpt>
      <trkpt lat="49.63079" lon="-1.6441">
        <ele>79.9</ele>
        <time>2020-06-14T18:40:09Z</time>
      </trkpt>
      <trkpt lat="49.63082" lon="-1.64405">
        <ele>79.8</ele>
        <time>2020-06-14T18:40:10Z</time>
      </trkpt>
      <trkpt lat="49.63085" lon="-1.64399">
        <ele>79.7</ele>
        <time>2020-06-14T18:40:11Z</time>
      </trkpt>
      <trkpt lat="49.63087" lon="-1.64392">
        <ele>79.7</ele>
        <time>2020-06-14T18:40:12Z</time>
      </trkpt>
      <trkpt lat="49.63089" lon="-1.64386">
        <ele>79.6</ele>
        <time>2020-06-14T18:40:13Z</time>
      </trkpt>
      <trkpt lat="49.63093" lon="-1.6438">
        <ele>79.5</ele>
        <time>2020-06-14T18:40:14Z</time>
      </trkpt>
      <trkpt lat="49.63096" lon="-1.64374">
        <ele>79.4</ele>
        <time>2020-06-14T18:40:15Z</time>
      </trkpt>
      <trkpt lat="49.63099" lon="-1.64367">
        <ele>79.2</ele>
        <time>2020-06-14T18:40:16Z</time>
      </trkpt>
      <trkpt lat="49.63102" lon="-1.6436">
        <ele>79.1</ele>
        <time>2020-06-14T18:40:17Z</time>
      </trkpt>
      <trkpt lat="49.63104" lon="-1.64353">
        <ele>79</ele>
        <time>2020-06-14T18:40:18Z</time>
      </trkpt>
      <trkpt lat="49.63107" lon="-1.64346">
        <ele>78.9</ele>
        <time>2020-06-14T18:40:19Z</time>
      </trkpt>
      <trkpt lat="49.63109" lon="-1.64339">
        <ele>78.8</ele>
        <time>2020-06-14T18:40:20Z</time>
      </trkpt>
      <trkpt lat="49.63113" lon="-1.64333">
        <ele>78.7</ele>
        <time>2020-06-14T18:40:21Z</time>
      </trkpt>
      <trkpt lat="49.63116" lon="-1.64328">
        <ele>78.6</ele>
        <time>2020-06-14T18:40:22Z</time>
      </trkpt>
      <trkpt lat="49.6312" lon="-1.64322">
        <ele>78.5</ele>
        <time>2020-06-14T18:40:23Z</time>
      </trkpt>
      <trkpt lat="49.63124" lon="-1.64316">
        <ele>78.4</ele>
        <time>2020-06-14T18:40:24Z</time>
      </trkpt>
      <trkpt lat="49.63127" lon="-1.6431">
        <ele>78.4</ele>
        <time>2020-06-14T18:40:25Z</time>
      </trkpt>
      <trkpt lat="49.63131" lon="-1.64303">
        <ele>78.3</ele>
        <time>2020-06-14T18:40:26Z</time>
      </trkpt>
      <trkpt lat="49.63133" lon="-1.64296">
        <ele>78.3</ele>
        <time>2020-06-14T18:40:27Z</time>
      </trkpt>
      <trkpt lat="49.63136" lon="-1.64289">
        <ele>78.2</ele>
        <time>2020-06-14T18:40:28Z</time>
      </trkpt>
      <trkpt lat="49.63138" lon="-1.64281">
        <ele>78.2</ele>
        <time>2020-06-14T18:40:29Z</time>
      </trkpt>
      <trkpt lat="49.63141" lon="-1.64274">
        <ele>78.2</ele>
        <time>2020-06-14T18:40:30Z</time>
      </trkpt>
      <trkpt lat="49.63144" lon="-1.64267">
        <ele>78.1</ele>
        <time>2020-06-14T18:40:31Z</time>
      </trkpt>
      <trkpt lat="49.63147" lon="-1.6426">
        <ele>78.1</ele>
        <time>2020-06-14T18:40:32Z</time>
      </trkpt>
      <trkpt lat="49.6315" lon="-1.64252">
        <ele>78</ele>
        <time>2020-06-14T18:40:33Z</time>
      </trkpt>
      <trkpt lat="49.63153" lon="-1.64246">
        <ele>78</ele>
        <time>2020-06-14T18:40:34Z</time>
      </trkpt>
      <trkpt lat="49.63156" lon="-1.64239">
        <ele>77.9</ele>
        <time>2020-06-14T18:40:35Z</time>
      </trkpt>
      <trkpt lat="49.63158" lon="-1.64232">
        <ele>77.9</ele>
        <time>2020-06-14T18:40:36Z</time>
      </trkpt>
      <trkpt lat="49.63161" lon="-1.64225">
        <ele>77.9</ele>
        <time>2020-06-14T18:40:37Z</time>
      </trkpt>
      <trkpt lat="49.63164" lon="-1.64218">
        <ele>77.8</ele>
        <time>2020-06-14T18:40:38Z</time>
      </trkpt>
      <trkpt lat="49.63166" lon="-1.64209">
        <ele>77.7</ele>
        <time>2020-06-14T18:40:39Z</time>
      </trkpt>
      <trkpt lat="49.63169" lon="-1.64202">
        <ele>77.6</ele>
        <time>2020-06-14T18:40:40Z</time>
      </trkpt>
      <trkpt lat="49.63171" lon="-1.64195">
        <ele>77.5</ele>
        <time>2020-06-14T18:40:41Z</time>
      </trkpt>
      <trkpt lat="49.63175" lon="-1.64188">
        <ele>77.4</ele>
        <time>2020-06-14T18:40:42Z</time>
      </trkpt>
      <trkpt lat="49.63177" lon="-1.64181">
        <ele>77.3</ele>
        <time>2020-06-14T18:40:43Z</time>
      </trkpt>
      <trkpt lat="49.6318" lon="-1.64175">
        <ele>77.3</ele>
        <time>2020-06-14T18:40:44Z</time>
      </trkpt>
      <trkpt lat="49.63182" lon="-1.64168">
        <ele>77.2</ele>
        <time>2020-06-14T18:40:45Z</time>
      </trkpt>
      <trkpt lat="49.63184" lon="-1.64162">
        <ele>77.1</ele>
        <time>2020-06-14T18:40:46Z</time>
      </trkpt>
      <trkpt lat="49.63185" lon="-1.64154">
        <ele>77.1</ele>
        <time>2020-06-14T18:40:47Z</time>
      </trkpt>
      <trkpt lat="49.63185" lon="-1.64146">
        <ele>77.1</ele>
        <time>2020-06-14T18:40:48Z</time>
      </trkpt>
      <trkpt lat="49.63186" lon="-1.64138">
        <ele>77</ele>
        <time>2020-06-14T18:40:49Z</time>
      </trkpt>
      <trkpt lat="49.63186" lon="-1.64131">
        <ele>76.9</ele>
        <time>2020-06-14T18:40:50Z</time>
      </trkpt>
      <trkpt lat="49.63187" lon="-1.64124">
        <ele>76.9</ele>
        <time>2020-06-14T18:40:51Z</time>
      </trkpt>
      <trkpt lat="49.63186" lon="-1.64117">
        <ele>76.8</ele>
        <time>2020-06-14T18:40:52Z</time>
      </trkpt>
      <trkpt lat="49.63187" lon="-1.64109">
        <ele>76.7</ele>
        <time>2020-06-14T18:40:53Z</time>
      </trkpt>
      <trkpt lat="49.63187" lon="-1.64101">
        <ele>76.6</ele>
        <time>2020-06-14T18:40:54Z</time>
      </trkpt>
      <trkpt lat="49.63188" lon="-1.64093">
        <ele>76.5</ele>
        <time>2020-06-14T18:40:55Z</time>
      </trkpt>
      <trkpt lat="49.63189" lon="-1.64085">
        <ele>76.5</ele>
        <time>2020-06-14T18:40:56Z</time>
      </trkpt>
      <trkpt lat="49.6319" lon="-1.64077">
        <ele>76.4</ele>
        <time>2020-06-14T18:40:57Z</time>
      </trkpt>
      <trkpt lat="49.6319" lon="-1.64068">
        <ele>76.4</ele>
        <time>2020-06-14T18:40:58Z</time>
      </trkpt>
      <trkpt lat="49.6319" lon="-1.6406">
        <ele>76.4</ele>
        <time>2020-06-14T18:40:59Z</time>
      </trkpt>
      <trkpt lat="49.63193" lon="-1.64053">
        <ele>76.4</ele>
        <time>2020-06-14T18:41:00Z</time>
      </trkpt>
      <trkpt lat="49.63195" lon="-1.64047">
        <ele>76.4</ele>
        <time>2020-06-14T18:41:01Z</time>
      </trkpt>
      <trkpt lat="49.63196" lon="-1.64039">
        <ele>76.4</ele>
        <time>2020-06-14T18:41:02Z</time>
      </trkpt>
      <trkpt lat="49.63199" lon="-1.64032">
        <ele>76.5</ele>
        <time>2020-06-14T18:41:03Z</time>
      </trkpt>
      <trkpt lat="49.63202" lon="-1.64026">
        <ele>76.5</ele>
        <time>2020-06-14T18:41:04Z</time>
      </trkpt>
      <trkpt lat="49.63204" lon="-1.6402">
        <ele>76.6</ele>
        <time>2020-06-14T18:41:05Z</time>
      </trkpt>
      <trkpt lat="49.63207" lon="-1.64013">
        <ele>76.6</ele>
        <time>2020-06-14T18:41:06Z</time>
      </trkpt>
      <trkpt lat="49.63209" lon="-1.64006">
        <ele>76.7</ele>
        <time>2020-06-14T18:41:07Z</time>
      </trkpt>
      <trkpt lat="49.63211" lon="-1.63999">
        <ele>76.8</ele>
        <time>2020-06-14T18:41:08Z</time>
      </trkpt>
      <trkpt lat="49.63214" lon="-1.63992">
        <ele>76.9</ele>
        <time>2020-06-14T18:41:09Z</time>
      </trkpt>
      <trkpt lat="49.63215" lon="-1.63985">
        <ele>77</ele>
        <time>2020-06-14T18:41:10Z</time>
      </trkpt>
      <trkpt lat="49.63218" lon="-1.63978">
        <ele>77.1</ele>
        <time>2020-06-14T18:41:11Z</time>
      </trkpt>
      <trkpt lat="49.6322" lon="-1.63972">
        <ele>77.2</ele>
        <time>2020-06-14T18:41:12Z</time>
      </trkpt>
      <trkpt lat="49.63223" lon="-1.63966">
        <ele>77.3</ele>
        <time>2020-06-14T18:41:13Z</time>
      </trkpt>
      <trkpt lat="49.63226" lon="-1.6396">
        <ele>77.3</ele>
        <time>2020-06-14T18:41:14Z</time>
      </trkpt>
      <trkpt lat="49.63228" lon="-1.63954">
        <ele>77.3</ele>
        <time>2020-06-14T18:41:15Z</time>
      </trkpt>
      <trkpt lat="49.6323" lon="-1.63948">
        <ele>77.3</ele>
        <time>2020-06-14T18:41:16Z</time>
      </trkpt>
      <trkpt lat="49.63233" lon="-1.63941">
        <ele>77.2</ele>
        <time>2020-06-14T18:41:17Z</time>
      </trkpt>
      <trkpt lat="49.63236" lon="-1.63936">
        <ele>77.1</ele>
        <time>2020-06-14T18:41:18Z</time>
      </trkpt>
      <trkpt lat="49.6324" lon="-1.6393">
        <ele>77</ele>
        <time>2020-06-14T18:41:19Z</time>
      </trkpt>
      <trkpt lat="49.63243" lon="-1.63925">
        <ele>76.8</ele>
        <time>2020-06-14T18:41:20Z</time>
      </trkpt>
      <trkpt lat="49.63245" lon="-1.63918">
        <ele>76.7</ele>
        <time>2020-06-14T18:41:21Z</time>
      </trkpt>
      <trkpt lat="49.63247" lon="-1.63911">
        <ele>76.5</ele>
        <time>2020-06-14T18:41:22Z</time>
      </trkpt>
      <trkpt lat="49.6325" lon="-1.63904">
        <ele>76.3</ele>
        <time>2020-06-14T18:41:23Z</time>
      </trkpt>
      <trkpt lat="49.63252" lon="-1.63898">
        <ele>76.1</ele>
        <time>2020-06-14T18:41:24Z</time>
      </trkpt>
      <trkpt lat="49.63254" lon="-1.63891">
        <ele>75.9</ele>
        <time>2020-06-14T18:41:25Z</time>
      </trkpt>
      <trkpt lat="49.63257" lon="-1.63885">
        <ele>75.6</ele>
        <time>2020-06-14T18:41:26Z</time>
      </trkpt>
      <trkpt lat="49.63261" lon="-1.63879">
        <ele>75.4</ele>
        <time>2020-06-14T18:41:27Z</time>
      </trkpt>
      <trkpt lat="49.63264" lon="-1.63873">
        <ele>75.2</ele>
        <time>2020-06-14T18:41:28Z</time>
      </trkpt>
      <trkpt lat="49.63267" lon="-1.63866">
        <ele>75</ele>
        <time>2020-06-14T18:41:29Z</time>
      </trkpt>
      <trkpt lat="49.6327" lon="-1.63859">
        <ele>74.7</ele>
        <time>2020-06-14T18:41:30Z</time>
      </trkpt>
      <trkpt lat="49.63273" lon="-1.63851">
        <ele>74.5</ele>
        <time>2020-06-14T18:41:31Z</time>
      </trkpt>
      <trkpt lat="49.63276" lon="-1.63844">
        <ele>74.2</ele>
        <time>2020-06-14T18:41:32Z</time>
      </trkpt>
      <trkpt lat="49.63279" lon="-1.63835">
        <ele>73.9</ele>
        <time>2020-06-14T18:41:33Z</time>
      </trkpt>
      <trkpt lat="49.63282" lon="-1.63828">
        <ele>73.7</ele>
        <time>2020-06-14T18:41:34Z</time>
      </trkpt>
      <trkpt lat="49.63285" lon="-1.6382">
        <ele>73.4</ele>
        <time>2020-06-14T18:41:35Z</time>
      </trkpt>
      <trkpt lat="49.63288" lon="-1.63812">
        <ele>73.2</ele>
        <time>2020-06-14T18:41:36Z</time>
      </trkpt>
      <trkpt lat="49.63293" lon="-1.63806">
        <ele>72.9</ele>
        <time>2020-06-14T18:41:37Z</time>
      </trkpt>
      <trkpt lat="49.63298" lon="-1.63799">
        <ele>72.7</ele>
        <time>2020-06-14T18:41:38Z</time>
      </trkpt>
      <trkpt lat="49.63302" lon="-1.63792">
        <ele>72.5</ele>
        <time>2020-06-14T18:41:39Z</time>
      </trkpt>
      <trkpt lat="49.63305" lon="-1.63784">
        <ele>72.2</ele>
        <time>2020-06-14T18:41:40Z</time>
      </trkpt>
      <trkpt lat="49.6331" lon="-1.63777">
        <ele>72</ele>
        <time>2020-06-14T18:41:41Z</time>
      </trkpt>
      <trkpt lat="49.63313" lon="-1.63771">
        <ele>71.8</ele>
        <time>2020-06-14T18:41:42Z</time>
      </trkpt>
      <trkpt lat="49.63317" lon="-1.63765">
        <ele>71.6</ele>
        <time>2020-06-14T18:41:43Z</time>
      </trkpt>
      <trkpt lat="49.63321" lon="-1.63758">
        <ele>71.3</ele>
        <time>2020-06-14T18:41:44Z</time>
      </trkpt>
      <trkpt lat="49.63325" lon="-1.63752">
        <ele>71</ele>
        <time>2020-06-14T18:41:45Z</time>
      </trkpt>
      <trkpt lat="49.63329" lon="-1.63745">
        <ele>70.8</ele>
        <time>2020-06-14T18:41:46Z</time>
      </trkpt>
      <trkpt lat="49.63332" lon="-1.63737">
        <ele>70.5</ele>
        <time>2020-06-14T18:41:47Z</time>
      </trkpt>
      <trkpt lat="49.63335" lon="-1.63729">
        <ele>70.2</ele>
        <time>2020-06-14T18:41:48Z</time>
      </trkpt>
      <trkpt lat="49.63338" lon="-1.63722">
        <ele>70</ele>
        <time>2020-06-14T18:41:49Z</time>
      </trkpt>
      <trkpt lat="49.63341" lon="-1.63714">
        <ele>69.7</ele>
        <time>2020-06-14T18:41:50Z</time>
      </trkpt>
      <trkpt lat="49.63345" lon="-1.63706">
        <ele>69.4</ele>
        <time>2020-06-14T18:41:51Z</time>
      </trkpt>
      <trkpt lat="49.63348" lon="-1.63699">
        <ele>69.1</ele>
        <time>2020-06-14T18:41:52Z</time>
      </trkpt>
      <trkpt lat="49.63351" lon="-1.63693">
        <ele>69</ele>
        <time>2020-06-14T18:41:53Z</time>
      </trkpt>
      <trkpt lat="49.63354" lon="-1.63686">
        <ele>69</ele>
        <time>2020-06-14T18:41:54Z</time>
      </trkpt>
      <trkpt lat="49.63357" lon="-1.63681">
        <ele>68.9</ele>
        <time>2020-06-14T18:41:55Z</time>
      </trkpt>
      <trkpt lat="49.63358" lon="-1.63675">
        <ele>68.9</ele>
        <time>2020-06-14T18:41:56Z</time>
      </trkpt>
      <trkpt lat="49.63357" lon="-1.6367">
        <ele>68.8</ele>
        <time>2020-06-14T18:41:57Z</time>
      </trkpt>
      <trkpt lat="49.63356" lon="-1.63668">
        <ele>68.8</ele>
        <time>2020-06-14T18:41:58Z</time>
      </trkpt>
      <trkpt lat="49.63357" lon="-1.63663">
        <ele>68.8</ele>
        <time>2020-06-14T18:41:59Z</time>
      </trkpt>
      <trkpt lat="49.63357" lon="-1.63661">
        <ele>68.5</ele>
        <time>2020-06-14T18:42:00Z</time>
      </trkpt>
      <trkpt lat="49.63358" lon="-1.63657">
        <ele>68.4</ele>
        <time>2020-06-14T18:42:01Z</time>
      </trkpt>
      <trkpt lat="49.63361" lon="-1.63653">
        <ele>68.2</ele>
        <time>2020-06-14T18:42:02Z</time>
      </trkpt>
      <trkpt lat="49.63363" lon="-1.63649">
        <ele>68</ele>
        <time>2020-06-14T18:42:03Z</time>
      </trkpt>
      <trkpt lat="49.63366" lon="-1.63646">
        <ele>67.8</ele>
        <time>2020-06-14T18:42:04Z</time>
      </trkpt>
      <trkpt lat="49.6337" lon="-1.63643">
        <ele>67.6</ele>
        <time>2020-06-14T18:42:05Z</time>
      </trkpt>
      <trkpt lat="49.63374" lon="-1.63639">
        <ele>67.4</ele>
        <time>2020-06-14T18:42:06Z</time>
      </trkpt>
      <trkpt lat="49.63377" lon="-1.63634">
        <ele>67.1</ele>
        <time>2020-06-14T18:42:07Z</time>
      </trkpt>
      <trkpt lat="49.63381" lon="-1.63631">
        <ele>66.9</ele>
        <time>2020-06-14T18:42:08Z</time>
      </trkpt>
      <trkpt lat="49.63385" lon="-1.63629">
        <ele>66.7</ele>
        <time>2020-06-14T18:42:09Z</time>
      </trkpt>
      <trkpt lat="49.63389" lon="-1.63626">
        <ele>66.5</ele>
        <time>2020-06-14T18:42:10Z</time>
      </trkpt>
      <trkpt lat="49.63392" lon="-1.63622">
        <ele>66.3</ele>
        <time>2020-06-14T18:42:11Z</time>
      </trkpt>
      <trkpt lat="49.63395" lon="-1.63618">
        <ele>66.1</ele>
        <time>2020-06-14T18:42:12Z</time>
      </trkpt>
      <trkpt lat="49.63398" lon="-1.63613">
        <ele>65.8</ele>
        <time>2020-06-14T18:42:13Z</time>
      </trkpt>
      <trkpt lat="49.63402" lon="-1.63608">
        <ele>65.5</ele>
        <time>2020-06-14T18:42:14Z</time>
      </trkpt>
      <trkpt lat="49.63407" lon="-1.63604">
        <ele>65.2</ele>
        <time>2020-06-14T18:42:15Z</time>
      </trkpt>
      <trkpt lat="49.63412" lon="-1.636">
        <ele>64.8</ele>
        <time>2020-06-14T18:42:16Z</time>
      </trkpt>
      <trkpt lat="49.63417" lon="-1.63595">
        <ele>64.5</ele>
        <time>2020-06-14T18:42:17Z</time>
      </trkpt>
      <trkpt lat="49.63422" lon="-1.63589">
        <ele>64.1</ele>
        <time>2020-06-14T18:42:18Z</time>
      </trkpt>
      <trkpt lat="49.63428" lon="-1.63585">
        <ele>63.8</ele>
        <time>2020-06-14T18:42:19Z</time>
      </trkpt>
      <trkpt lat="49.63434" lon="-1.63581">
        <ele>63.4</ele>
        <time>2020-06-14T18:42:20Z</time>
      </trkpt>
      <trkpt lat="49.6344" lon="-1.63576">
        <ele>63</ele>
        <time>2020-06-14T18:42:21Z</time>
      </trkpt>
      <trkpt lat="49.63446" lon="-1.63571">
        <ele>62.4</ele>
        <time>2020-06-14T18:42:22Z</time>
      </trkpt>
      <trkpt lat="49.63452" lon="-1.63566">
        <ele>62.1</ele>
        <time>2020-06-14T18:42:23Z</time>
      </trkpt>
      <trkpt lat="49.63458" lon="-1.63562">
        <ele>61.8</ele>
        <time>2020-06-14T18:42:24Z</time>
      </trkpt>
      <trkpt lat="49.63464" lon="-1.63558">
        <ele>61.5</ele>
        <time>2020-06-14T18:42:25Z</time>
      </trkpt>
      <trkpt lat="49.6347" lon="-1.63558">
        <ele>61.2</ele>
        <time>2020-06-14T18:42:26Z</time>
      </trkpt>
      <trkpt lat="49.63476" lon="-1.63559">
        <ele>61</ele>
        <time>2020-06-14T18:42:27Z</time>
      </trkpt>
      <trkpt lat="49.63482" lon="-1.63562">
        <ele>60.8</ele>
        <time>2020-06-14T18:42:28Z</time>
      </trkpt>
      <trkpt lat="49.63487" lon="-1.63564">
        <ele>60.5</ele>
        <time>2020-06-14T18:42:29Z</time>
      </trkpt>
      <trkpt lat="49.63491" lon="-1.63566">
        <ele>60.4</ele>
        <time>2020-06-14T18:42:30Z</time>
      </trkpt>
      <trkpt lat="49.63495" lon="-1.63569">
        <ele>60.2</ele>
        <time>2020-06-14T18:42:31Z</time>
      </trkpt>
      <trkpt lat="49.63498" lon="-1.63572">
        <ele>60</ele>
        <time>2020-06-14T18:42:32Z</time>
      </trkpt>
      <trkpt lat="49.63501" lon="-1.63575">
        <ele>59.9</ele>
        <time>2020-06-14T18:42:33Z</time>
      </trkpt>
      <trkpt lat="49.63504" lon="-1.63576">
        <ele>59.7</ele>
        <time>2020-06-14T18:42:34Z</time>
      </trkpt>
      <trkpt lat="49.63507" lon="-1.6358">
        <ele>59.6</ele>
        <time>2020-06-14T18:42:35Z</time>
      </trkpt>
      <trkpt lat="49.63509" lon="-1.63583">
        <ele>59.6</ele>
        <time>2020-06-14T18:42:36Z</time>
      </trkpt>
      <trkpt lat="49.63512" lon="-1.63586">
        <ele>59.5</ele>
        <time>2020-06-14T18:42:37Z</time>
      </trkpt>
      <trkpt lat="49.63515" lon="-1.63587">
        <ele>59.4</ele>
        <time>2020-06-14T18:42:38Z</time>
      </trkpt>
      <trkpt lat="49.63518" lon="-1.63588">
        <ele>59.3</ele>
        <time>2020-06-14T18:42:39Z</time>
      </trkpt>
      <trkpt lat="49.63519" lon="-1.63589">
        <ele>59.3</ele>
        <time>2020-06-14T18:42:40Z</time>
      </trkpt>
      <trkpt lat="49.63521" lon="-1.63592">
        <ele>59.2</ele>
        <time>2020-06-14T18:42:41Z</time>
      </trkpt>
      <trkpt lat="49.63522" lon="-1.63594">
        <ele>59.2</ele>
        <time>2020-06-14T18:42:42Z</time>
      </trkpt>
      <trkpt lat="49.63523" lon="-1.63595">
        <ele>59.1</ele>
        <time>2020-06-14T18:42:43Z</time>
      </trkpt>
      <trkpt lat="49.63524" lon="-1.63597">
        <ele>59.1</ele>
        <time>2020-06-14T18:42:44Z</time>
      </trkpt>
      <trkpt lat="49.63526" lon="-1.63599">
        <ele>59</ele>
        <time>2020-06-14T18:42:45Z</time>
      </trkpt>
      <trkpt lat="49.63527" lon="-1.63601">
        <ele>59</ele>
        <time>2020-06-14T18:42:46Z</time>
      </trkpt>
      <trkpt lat="49.63528" lon="-1.63601">
        <ele>58.9</ele>
        <time>2020-06-14T18:42:47Z</time>
      </trkpt>
      <trkpt lat="49.63529" lon="-1.63599">
        <ele>58.9</ele>
        <time>2020-06-14T18:42:48Z</time>
      </trkpt>
      <trkpt lat="49.63529" lon="-1.63598">
        <ele>58.9</ele>
        <time>2020-06-14T18:42:49Z</time>
      </trkpt>
      <trkpt lat="49.63529" lon="-1.63597">
        <ele>58.8</ele>
        <time>2020-06-14T18:42:50Z</time>
      </trkpt>
      <trkpt lat="49.6353" lon="-1.63597">
        <ele>58.8</ele>
        <time>2020-06-14T18:42:51Z</time>
      </trkpt>
      <trkpt lat="49.6353" lon="-1.63596">
        <ele>58.8</ele>
        <time>2020-06-14T18:42:52Z</time>
      </trkpt>
      <trkpt lat="49.63531" lon="-1.63595">
        <ele>58.8</ele>
        <time>2020-06-14T18:42:53Z</time>
      </trkpt>
      <trkpt lat="49.63531" lon="-1.63595">
        <ele>58.8</ele>
        <time>2020-06-14T18:42:54Z</time>
      </trkpt>
      <trkpt lat="49.63531" lon="-1.63598">
        <ele>58.7</ele>
        <time>2020-06-14T18:42:55Z</time>
      </trkpt>
      <trkpt lat="49.63531" lon="-1.636">
        <ele>58.6</ele>
        <time>2020-06-14T18:42:56Z</time>
      </trkpt>
      <trkpt lat="49.63532" lon="-1.63602">
        <ele>58.6</ele>
        <time>2020-06-14T18:42:57Z</time>
      </trkpt>
      <trkpt lat="49.63532" lon="-1.63604">
        <ele>58.6</ele>
        <time>2020-06-14T18:42:58Z</time>
      </trkpt>
      <trkpt lat="49.63533" lon="-1.63606">
        <ele>58.5</ele>
        <time>2020-06-14T18:43:25Z</time>
      </trkpt>
      <trkpt lat="49.63533" lon="-1.63608">
        <ele>58.5</ele>
        <time>2020-06-14T18:43:26Z</time>
      </trkpt>
      <trkpt lat="49.63536" lon="-1.63612">
        <ele>58.3</ele>
        <time>2020-06-14T18:43:27Z</time>
      </trkpt>
      <trkpt lat="49.63537" lon="-1.63613">
        <ele>58.3</ele>
        <time>2020-06-14T18:43:28Z</time>
      </trkpt>
      <trkpt lat="49.63539" lon="-1.63617">
        <ele>58.2</ele>
        <time>2020-06-14T18:43:29Z</time>
      </trkpt>
      <trkpt lat="49.6354" lon="-1.63619">
        <ele>58.1</ele>
        <time>2020-06-14T18:43:30Z</time>
      </trkpt>
      <trkpt lat="49.63543" lon="-1.63621">
        <ele>58</ele>
        <time>2020-06-14T18:43:31Z</time>
      </trkpt>
      <trkpt lat="49.63546" lon="-1.63623">
        <ele>57.9</ele>
        <time>2020-06-14T18:43:32Z</time>
      </trkpt>
      <trkpt lat="49.63548" lon="-1.63627">
        <ele>57.8</ele>
        <time>2020-06-14T18:43:33Z</time>
      </trkpt>
      <trkpt lat="49.63551" lon="-1.63629">
        <ele>57.7</ele>
        <time>2020-06-14T18:43:34Z</time>
      </trkpt>
      <trkpt lat="49.63553" lon="-1.63632">
        <ele>57.6</ele>
        <time>2020-06-14T18:43:35Z</time>
      </trkpt>
      <trkpt lat="49.63556" lon="-1.63635">
        <ele>57.5</ele>
        <time>2020-06-14T18:43:36Z</time>
      </trkpt>
      <trkpt lat="49.63558" lon="-1.63638">
        <ele>57.4</ele>
        <time>2020-06-14T18:43:37Z</time>
      </trkpt>
      <trkpt lat="49.6356" lon="-1.63641">
        <ele>57.3</ele>
        <time>2020-06-14T18:43:38Z</time>
      </trkpt>
      <trkpt lat="49.63562" lon="-1.63645">
        <ele>57.2</ele>
        <time>2020-06-14T18:43:39Z</time>
      </trkpt>
      <trkpt lat="49.63564" lon="-1.63648">
        <ele>57</ele>
        <time>2020-06-14T18:43:40Z</time>
      </trkpt>
      <trkpt lat="49.63567" lon="-1.63652">
        <ele>56.9</ele>
        <time>2020-06-14T18:43:41Z</time>
      </trkpt>
      <trkpt lat="49.63571" lon="-1.63656">
        <ele>56.7</ele>
        <time>2020-06-14T18:43:42Z</time>
      </trkpt>
      <trkpt lat="49.63574" lon="-1.63661">
        <ele>56.6</ele>
        <time>2020-06-14T18:43:43Z</time>
      </trkpt>
      <trkpt lat="49.63578" lon="-1.63666">
        <ele>56.5</ele>
        <time>2020-06-14T18:43:44Z</time>
      </trkpt>
      <trkpt lat="49.63582" lon="-1.63669">
        <ele>56.3</ele>
        <time>2020-06-14T18:43:45Z</time>
      </trkpt>
      <trkpt lat="49.63586" lon="-1.63672">
        <ele>56.1</ele>
        <time>2020-06-14T18:43:46Z</time>
      </trkpt>
      <trkpt lat="49.6359" lon="-1.63676">
        <ele>56</ele>
        <time>2020-06-14T18:43:47Z</time>
      </trkpt>
      <trkpt lat="49.63594" lon="-1.6368">
        <ele>55.8</ele>
        <time>2020-06-14T18:43:48Z</time>
      </trkpt>
      <trkpt lat="49.63598" lon="-1.63682">
        <ele>55.6</ele>
        <time>2020-06-14T18:43:49Z</time>
      </trkpt>
      <trkpt lat="49.63602" lon="-1.63683">
        <ele>55.5</ele>
        <time>2020-06-14T18:43:50Z</time>
      </trkpt>
      <trkpt lat="49.63606" lon="-1.63679">
        <ele>55.3</ele>
        <time>2020-06-14T18:43:51Z</time>
      </trkpt>
      <trkpt lat="49.63609" lon="-1.63674">
        <ele>55.3</ele>
        <time>2020-06-14T18:43:52Z</time>
      </trkpt>
      <trkpt lat="49.63612" lon="-1.63668">
        <ele>55.3</ele>
        <time>2020-06-14T18:43:53Z</time>
      </trkpt>
      <trkpt lat="49.63614" lon="-1.63662">
        <ele>55.3</ele>
        <time>2020-06-14T18:43:54Z</time>
      </trkpt>
      <trkpt lat="49.63615" lon="-1.63656">
        <ele>55.3</ele>
        <time>2020-06-14T18:43:55Z</time>
      </trkpt>
      <trkpt lat="49.63616" lon="-1.63652">
        <ele>55.3</ele>
        <time>2020-06-14T18:43:56Z</time>
      </trkpt>
      <trkpt lat="49.63617" lon="-1.63646">
        <ele>55.3</ele>
        <time>2020-06-14T18:43:57Z</time>
      </trkpt>
      <trkpt lat="49.63617" lon="-1.63644">
        <ele>55.2</ele>
        <time>2020-06-14T18:43:58Z</time>
      </trkpt>
      <trkpt lat="49.63617" lon="-1.63642">
        <ele>55.2</ele>
        <time>2020-06-14T18:43:59Z</time>
      </trkpt>
      <trkpt lat="49.63618" lon="-1.63639">
        <ele>55.2</ele>
        <time>2020-06-14T18:44:00Z</time>
      </trkpt>
      <trkpt lat="49.63618" lon="-1.63637">
        <ele>55.2</ele>
        <time>2020-06-14T18:44:01Z</time>
      </trkpt>
      <trkpt lat="49.63618" lon="-1.63634">
        <ele>55.1</ele>
        <time>2020-06-14T18:44:02Z</time>
      </trkpt>
      <trkpt lat="49.63618" lon="-1.63632">
        <ele>55.1</ele>
        <time>2020-06-14T18:44:03Z</time>
      </trkpt>
      <trkpt lat="49.63618" lon="-1.6363">
        <ele>55.1</ele>
        <time>2020-06-14T18:44:04Z</time>
      </trkpt>
      <trkpt lat="49.63618" lon="-1.63629">
        <ele>55</ele>
        <time>2020-06-14T18:44:05Z</time>
      </trkpt>
      <trkpt lat="49.63617" lon="-1.63626">
        <ele>55</ele>
        <time>2020-06-14T18:44:06Z</time>
      </trkpt>
      <trkpt lat="49.63616" lon="-1.63625">
        <ele>55</ele>
        <time>2020-06-14T18:44:07Z</time>
      </trkpt>
      <trkpt lat="49.63616" lon="-1.63624">
        <ele>55</ele>
        <time>2020-06-14T18:44:08Z</time>
      </trkpt>
      <trkpt lat="49.63615" lon="-1.63622">
        <ele>54.9</ele>
        <time>2020-06-14T18:44:09Z</time>
      </trkpt>
      <trkpt lat="49.63613" lon="-1.63621">
        <ele>54.9</ele>
        <time>2020-06-14T18:44:10Z</time>
      </trkpt>
      <trkpt lat="49.63612" lon="-1.63618">
        <ele>54.8</ele>
        <time>2020-06-14T18:44:11Z</time>
      </trkpt>
      <trkpt lat="49.63612" lon="-1.63617">
        <ele>54.8</ele>
        <time>2020-06-14T18:44:12Z</time>
      </trkpt>
      <trkpt lat="49.63612" lon="-1.63615">
        <ele>54.7</ele>
        <time>2020-06-14T18:44:13Z</time>
      </trkpt>
      <trkpt lat="49.63611" lon="-1.63611">
        <ele>54.6</ele>
        <time>2020-06-14T18:44:14Z</time>
      </trkpt>
      <trkpt lat="49.6361" lon="-1.63609">
        <ele>54.6</ele>
        <time>2020-06-14T18:44:15Z</time>
      </trkpt>
      <trkpt lat="49.6361" lon="-1.63603">
        <ele>54.4</ele>
        <time>2020-06-14T18:44:16Z</time>
      </trkpt>
      <trkpt lat="49.63609" lon="-1.63601">
        <ele>54.4</ele>
        <time>2020-06-14T18:44:17Z</time>
      </trkpt>
      <trkpt lat="49.63608" lon="-1.63597">
        <ele>54.3</ele>
        <time>2020-06-14T18:44:18Z</time>
      </trkpt>
      <trkpt lat="49.63606" lon="-1.63592">
        <ele>54.1</ele>
        <time>2020-06-14T18:44:19Z</time>
      </trkpt>
      <trkpt lat="49.63604" lon="-1.63585">
        <ele>53.9</ele>
        <time>2020-06-14T18:44:20Z</time>
      </trkpt>
      <trkpt lat="49.63602" lon="-1.63578">
        <ele>53.7</ele>
        <time>2020-06-14T18:44:21Z</time>
      </trkpt>
      <trkpt lat="49.636" lon="-1.63572">
        <ele>53.5</ele>
        <time>2020-06-14T18:44:22Z</time>
      </trkpt>
      <trkpt lat="49.63597" lon="-1.63566">
        <ele>53.3</ele>
        <time>2020-06-14T18:44:23Z</time>
      </trkpt>
      <trkpt lat="49.63595" lon="-1.63559">
        <ele>53.1</ele>
        <time>2020-06-14T18:44:24Z</time>
      </trkpt>
      <trkpt lat="49.63592" lon="-1.63552">
        <ele>52.9</ele>
        <time>2020-06-14T18:44:25Z</time>
      </trkpt>
      <trkpt lat="49.63589" lon="-1.63545">
        <ele>52.6</ele>
        <time>2020-06-14T18:44:26Z</time>
      </trkpt>
      <trkpt lat="49.63587" lon="-1.63537">
        <ele>52.4</ele>
        <time>2020-06-14T18:44:27Z</time>
      </trkpt>
      <trkpt lat="49.63584" lon="-1.63529">
        <ele>52.1</ele>
        <time>2020-06-14T18:44:28Z</time>
      </trkpt>
      <trkpt lat="49.63582" lon="-1.6352">
        <ele>51.8</ele>
        <time>2020-06-14T18:44:29Z</time>
      </trkpt>
      <trkpt lat="49.63579" lon="-1.63511">
        <ele>51.5</ele>
        <time>2020-06-14T18:44:30Z</time>
      </trkpt>
      <trkpt lat="49.63575" lon="-1.63502">
        <ele>51.1</ele>
        <time>2020-06-14T18:44:31Z</time>
      </trkpt>
      <trkpt lat="49.63572" lon="-1.63493">
        <ele>50.8</ele>
        <time>2020-06-14T18:44:32Z</time>
      </trkpt>
      <trkpt lat="49.63569" lon="-1.63483">
        <ele>50.4</ele>
        <time>2020-06-14T18:44:33Z</time>
      </trkpt>
      <trkpt lat="49.63565" lon="-1.63473">
        <ele>50</ele>
        <time>2020-06-14T18:44:34Z</time>
      </trkpt>
      <trkpt lat="49.63563" lon="-1.63462">
        <ele>49.6</ele>
        <time>2020-06-14T18:44:35Z</time>
      </trkpt>
      <trkpt lat="49.63563" lon="-1.63451">
        <ele>49.2</ele>
        <time>2020-06-14T18:44:36Z</time>
      </trkpt>
      <trkpt lat="49.63565" lon="-1.63442">
        <ele>48.8</ele>
        <time>2020-06-14T18:44:37Z</time>
      </trkpt>
      <trkpt lat="49.63569" lon="-1.63435">
        <ele>48.5</ele>
        <time>2020-06-14T18:44:38Z</time>
      </trkpt>
      <trkpt lat="49.63575" lon="-1.6343">
        <ele>48</ele>
        <time>2020-06-14T18:44:39Z</time>
      </trkpt>
      <trkpt lat="49.63582" lon="-1.63429">
        <ele>47.6</ele>
        <time>2020-06-14T18:44:40Z</time>
      </trkpt>
      <trkpt lat="49.63588" lon="-1.63431">
        <ele>47.2</ele>
        <time>2020-06-14T18:44:41Z</time>
      </trkpt>
      <trkpt lat="49.63594" lon="-1.63436">
        <ele>46.8</ele>
        <time>2020-06-14T18:44:42Z</time>
      </trkpt>
      <trkpt lat="49.636" lon="-1.63442">
        <ele>46.4</ele>
        <time>2020-06-14T18:44:43Z</time>
      </trkpt>
      <trkpt lat="49.63605" lon="-1.63448">
        <ele>46.1</ele>
        <time>2020-06-14T18:44:44Z</time>
      </trkpt>
      <trkpt lat="49.63611" lon="-1.63454">
        <ele>45.8</ele>
        <time>2020-06-14T18:44:45Z</time>
      </trkpt>
      <trkpt lat="49.63617" lon="-1.63461">
        <ele>45.4</ele>
        <time>2020-06-14T18:44:46Z</time>
      </trkpt>
      <trkpt lat="49.63622" lon="-1.63469">
        <ele>45.1</ele>
        <time>2020-06-14T18:44:47Z</time>
      </trkpt>
      <trkpt lat="49.63627" lon="-1.63477">
        <ele>44.8</ele>
        <time>2020-06-14T18:44:48Z</time>
      </trkpt>
      <trkpt lat="49.63632" lon="-1.63484">
        <ele>44.5</ele>
        <time>2020-06-14T18:44:49Z</time>
      </trkpt>
      <trkpt lat="49.63638" lon="-1.63491">
        <ele>44.2</ele>
        <time>2020-06-14T18:44:50Z</time>
      </trkpt>
      <trkpt lat="49.63643" lon="-1.63498">
        <ele>43.9</ele>
        <time>2020-06-14T18:44:51Z</time>
      </trkpt>
      <trkpt lat="49.63649" lon="-1.63505">
        <ele>43.6</ele>
        <time>2020-06-14T18:44:52Z</time>
      </trkpt>
      <trkpt lat="49.63655" lon="-1.63512">
        <ele>43.3</ele>
        <time>2020-06-14T18:44:53Z</time>
      </trkpt>
      <trkpt lat="49.6366" lon="-1.6352">
        <ele>43</ele>
        <time>2020-06-14T18:44:54Z</time>
      </trkpt>
      <trkpt lat="49.63666" lon="-1.63527">
        <ele>42.8</ele>
        <time>2020-06-14T18:44:55Z</time>
      </trkpt>
      <trkpt lat="49.63671" lon="-1.63535">
        <ele>42.6</ele>
        <time>2020-06-14T18:44:56Z</time>
      </trkpt>
      <trkpt lat="49.63676" lon="-1.6354">
        <ele>42.4</ele>
        <time>2020-06-14T18:44:57Z</time>
      </trkpt>
      <trkpt lat="49.63681" lon="-1.63543">
        <ele>42.3</ele>
        <time>2020-06-14T18:44:58Z</time>
      </trkpt>
      <trkpt lat="49.63687" lon="-1.63544">
        <ele>42.1</ele>
        <time>2020-06-14T18:44:59Z</time>
      </trkpt>
      <trkpt lat="49.63694" lon="-1.63541">
        <ele>41.9</ele>
        <time>2020-06-14T18:45:00Z</time>
      </trkpt>
      <trkpt lat="49.63698" lon="-1.63534">
        <ele>41.6</ele>
        <time>2020-06-14T18:45:01Z</time>
      </trkpt>
      <trkpt lat="49.63699" lon="-1.63524">
        <ele>41.3</ele>
        <time>2020-06-14T18:45:02Z</time>
      </trkpt>
      <trkpt lat="49.63698" lon="-1.63513">
        <ele>40.9</ele>
        <time>2020-06-14T18:45:03Z</time>
      </trkpt>
      <trkpt lat="49.63695" lon="-1.63503">
        <ele>40.4</ele>
        <time>2020-06-14T18:45:04Z</time>
      </trkpt>
      <trkpt lat="49.63691" lon="-1.63492">
        <ele>39.8</ele>
        <time>2020-06-14T18:45:05Z</time>
      </trkpt>
      <trkpt lat="49.63686" lon="-1.63482">
        <ele>39.1</ele>
        <time>2020-06-14T18:45:06Z</time>
      </trkpt>
      <trkpt lat="49.6368" lon="-1.63472">
        <ele>38.5</ele>
        <time>2020-06-14T18:45:07Z</time>
      </trkpt>
      <trkpt lat="49.63674" lon="-1.63463">
        <ele>37.8</ele>
        <time>2020-06-14T18:45:08Z</time>
      </trkpt>
      <trkpt lat="49.63669" lon="-1.63452">
        <ele>37.1</ele>
        <time>2020-06-14T18:45:09Z</time>
      </trkpt>
      <trkpt lat="49.63665" lon="-1.63442">
        <ele>36.5</ele>
        <time>2020-06-14T18:45:10Z</time>
      </trkpt>
      <trkpt lat="49.63662" lon="-1.63434">
        <ele>36.1</ele>
        <time>2020-06-14T18:45:11Z</time>
      </trkpt>
      <trkpt lat="49.63658" lon="-1.63427">
        <ele>35.7</ele>
        <time>2020-06-14T18:45:12Z</time>
      </trkpt>
      <trkpt lat="49.63655" lon="-1.6342">
        <ele>35.3</ele>
        <time>2020-06-14T18:45:13Z</time>
      </trkpt>
      <trkpt lat="49.63653" lon="-1.63414">
        <ele>35</ele>
        <time>2020-06-14T18:45:14Z</time>
      </trkpt>
      <trkpt lat="49.6365" lon="-1.6341">
        <ele>34.7</ele>
        <time>2020-06-14T18:45:15Z</time>
      </trkpt>
      <trkpt lat="49.63647" lon="-1.63406">
        <ele>34.4</ele>
        <time>2020-06-14T18:45:16Z</time>
      </trkpt>
      <trkpt lat="49.63644" lon="-1.63403">
        <ele>34.2</ele>
        <time>2020-06-14T18:45:17Z</time>
      </trkpt>
      <trkpt lat="49.63643" lon="-1.63402">
        <ele>34.1</ele>
        <time>2020-06-14T18:45:18Z</time>
      </trkpt>
      <trkpt lat="49.63642" lon="-1.63401">
        <ele>34</ele>
        <time>2020-06-14T18:45:19Z</time>
      </trkpt>
      <trkpt lat="49.63643" lon="-1.63397">
        <ele>33.8</ele>
        <time>2020-06-14T18:45:20Z</time>
      </trkpt>
      <trkpt lat="49.63644" lon="-1.63396">
        <ele>33.8</ele>
        <time>2020-06-14T18:45:21Z</time>
      </trkpt>
      <trkpt lat="49.63644" lon="-1.63395">
        <ele>33.7</ele>
        <time>2020-06-14T18:45:22Z</time>
      </trkpt>
      <trkpt lat="49.63644" lon="-1.63395">
        <ele>33.7</ele>
        <time>2020-06-14T18:45:23Z</time>
      </trkpt>
      <trkpt lat="49.63644" lon="-1.63396">
        <ele>33.7</ele>
        <time>2020-06-14T18:45:24Z</time>
      </trkpt>
      <trkpt lat="49.63643" lon="-1.63396">
        <ele>33.6</ele>
        <time>2020-06-14T18:45:25Z</time>
      </trkpt>
      <trkpt lat="49.63643" lon="-1.63397">
        <ele>33.6</ele>
        <time>2020-06-14T18:45:26Z</time>
      </trkpt>
      <trkpt lat="49.63643" lon="-1.63397">
        <ele>33.6</ele>
        <time>2020-06-14T18:45:27Z</time>
      </trkpt>
      <trkpt lat="49.63643" lon="-1.63396">
        <ele>33.6</ele>
        <time>2020-06-14T18:45:28Z</time>
      </trkpt>
      <trkpt lat="49.63644" lon="-1.63395">
        <ele>33.5</ele>
        <time>2020-06-14T18:45:29Z</time>
      </trkpt>
      <trkpt lat="49.63644" lon="-1.63395">
        <ele>33.5</ele>
        <time>2020-06-14T18:45:30Z</time>
      </trkpt>
      <trkpt lat="49.63643" lon="-1.63395">
        <ele>33.5</ele>
        <time>2020-06-14T18:45:31Z</time>
      </trkpt>
      <trkpt lat="49.63638" lon="-1.63393">
        <ele>33.1</ele>
        <time>2020-06-14T18:45:51Z</time>
      </trkpt>
      <trkpt lat="49.63638" lon="-1.63393">
        <ele>33.1</ele>
        <time>2020-06-14T18:45:52Z</time>
      </trkpt>
      <trkpt lat="49.63639" lon="-1.63395">
        <ele>33</ele>
        <time>2020-06-14T18:45:53Z</time>
      </trkpt>
      <trkpt lat="49.63639" lon="-1.63397">
        <ele>32.8</ele>
        <time>2020-06-14T18:45:54Z</time>
      </trkpt>
      <trkpt lat="49.63639" lon="-1.63395">
        <ele>32.7</ele>
        <time>2020-06-14T18:45:55Z</time>
      </trkpt>
      <trkpt lat="49.63638" lon="-1.63394">
        <ele>32.7</ele>
        <time>2020-06-14T18:45:56Z</time>
      </trkpt>
      <trkpt lat="49.63638" lon="-1.63394">
        <ele>32.6</ele>
        <time>2020-06-14T18:45:57Z</time>
      </trkpt>
      <trkpt lat="49.63638" lon="-1.63393">
        <ele>32.6</ele>
        <time>2020-06-14T18:45:58Z</time>
      </trkpt>
      <trkpt lat="49.63638" lon="-1.63393">
        <ele>32.6</ele>
        <time>2020-06-14T18:45:59Z</time>
      </trkpt>
      <trkpt lat="49.63637" lon="-1.63392">
        <ele>32.5</ele>
        <time>2020-06-14T18:46:00Z</time>
      </trkpt>
      <trkpt lat="49.63637" lon="-1.63392">
        <ele>32.5</ele>
        <time>2020-06-14T18:46:01Z</time>
      </trkpt>
      <trkpt lat="49.63637" lon="-1.63391">
        <ele>32.4</ele>
        <time>2020-06-14T18:46:02Z</time>
      </trkpt>
      <trkpt lat="49.63637" lon="-1.6339">
        <ele>32.4</ele>
        <time>2020-06-14T18:46:03Z</time>
      </trkpt>
      <trkpt lat="49.63637" lon="-1.6339">
        <ele>32.4</ele>
        <time>2020-06-14T18:46:04Z</time>
      </trkpt>
      <trkpt lat="49.63636" lon="-1.63389">
        <ele>32.3</ele>
        <time>2020-06-14T18:46:05Z</time>
      </trkpt>
      <trkpt lat="49.63636" lon="-1.63389">
        <ele>32.3</ele>
        <time>2020-06-14T18:46:06Z</time>
      </trkpt>
      <trkpt lat="49.63636" lon="-1.63388">
        <ele>32.2</ele>
        <time>2020-06-14T18:46:07Z</time>
      </trkpt>
      <trkpt lat="49.63636" lon="-1.63388">
        <ele>32.2</ele>
        <time>2020-06-14T18:46:29Z</time>
      </trkpt>
      <trkpt lat="49.63636" lon="-1.63387">
        <ele>32.1</ele>
        <time>2020-06-14T18:46:30Z</time>
      </trkpt>
      <trkpt lat="49.63634" lon="-1.63381">
        <ele>31.7</ele>
        <time>2020-06-14T18:46:31Z</time>
      </trkpt>
      <trkpt lat="49.63633" lon="-1.6338">
        <ele>31.6</ele>
        <time>2020-06-14T18:46:32Z</time>
      </trkpt>
      <trkpt lat="49.63631" lon="-1.63375">
        <ele>31.4</ele>
        <time>2020-06-14T18:46:33Z</time>
      </trkpt>
      <trkpt lat="49.63629" lon="-1.6337">
        <ele>31.3</ele>
        <time>2020-06-14T18:46:34Z</time>
      </trkpt>
      <trkpt lat="49.63627" lon="-1.63365">
        <ele>31.1</ele>
        <time>2020-06-14T18:46:35Z</time>
      </trkpt>
      <trkpt lat="49.63625" lon="-1.6336">
        <ele>30.8</ele>
        <time>2020-06-14T18:46:36Z</time>
      </trkpt>
      <trkpt lat="49.63622" lon="-1.63354">
        <ele>30.6</ele>
        <time>2020-06-14T18:46:37Z</time>
      </trkpt>
      <trkpt lat="49.63619" lon="-1.63348">
        <ele>30.3</ele>
        <time>2020-06-14T18:46:38Z</time>
      </trkpt>
      <trkpt lat="49.63616" lon="-1.63342">
        <ele>29.9</ele>
        <time>2020-06-14T18:46:39Z</time>
      </trkpt>
      <trkpt lat="49.6361" lon="-1.63334">
        <ele>29.5</ele>
        <time>2020-06-14T18:46:40Z</time>
      </trkpt>
      <trkpt lat="49.63606" lon="-1.63326">
        <ele>29.1</ele>
        <time>2020-06-14T18:46:41Z</time>
      </trkpt>
      <trkpt lat="49.63603" lon="-1.63316">
        <ele>28.7</ele>
        <time>2020-06-14T18:46:42Z</time>
      </trkpt>
      <trkpt lat="49.636" lon="-1.63308">
        <ele>28.4</ele>
        <time>2020-06-14T18:46:43Z</time>
      </trkpt>
      <trkpt lat="49.63597" lon="-1.63303">
        <ele>28.2</ele>
        <time>2020-06-14T18:46:44Z</time>
      </trkpt>
      <trkpt lat="49.63596" lon="-1.63298">
        <ele>28</ele>
        <time>2020-06-14T18:46:45Z</time>
      </trkpt>
      <trkpt lat="49.63596" lon="-1.63297">
        <ele>28</ele>
        <time>2020-06-14T18:46:46Z</time>
      </trkpt>
      <trkpt lat="49.63595" lon="-1.63296">
        <ele>27.9</ele>
        <time>2020-06-14T18:46:47Z</time>
      </trkpt>
      <trkpt lat="49.63594" lon="-1.63294">
        <ele>27.8</ele>
        <time>2020-06-14T18:46:48Z</time>
      </trkpt>
      <trkpt lat="49.63594" lon="-1.63293">
        <ele>27.8</ele>
        <time>2020-06-14T18:46:49Z</time>
      </trkpt>
      <trkpt lat="49.63595" lon="-1.63289">
        <ele>27.7</ele>
        <time>2020-06-14T18:46:50Z</time>
      </trkpt>
      <trkpt lat="49.63596" lon="-1.63286">
        <ele>27.6</ele>
        <time>2020-06-14T18:46:51Z</time>
      </trkpt>
      <trkpt lat="49.63597" lon="-1.63286">
        <ele>27.5</ele>
        <time>2020-06-14T18:46:52Z</time>
      </trkpt>
      <trkpt lat="49.63597" lon="-1.63286">
        <ele>27.5</ele>
        <time>2020-06-14T18:46:53Z</time>
      </trkpt>
      <trkpt lat="49.63598" lon="-1.63285">
        <ele>27.5</ele>
        <time>2020-06-14T18:46:54Z</time>
      </trkpt>
      <trkpt lat="49.63598" lon="-1.63287">
        <ele>27.4</ele>
        <time>2020-06-14T18:46:55Z</time>
      </trkpt>
      <trkpt lat="49.63598" lon="-1.63289">
        <ele>27.3</ele>
        <time>2020-06-14T18:46:56Z</time>
      </trkpt>
      <trkpt lat="49.63598" lon="-1.63286">
        <ele>27.3</ele>
        <time>2020-06-14T18:46:57Z</time>
      </trkpt>
      <trkpt lat="49.63598" lon="-1.63286">
        <ele>27.2</ele>
        <time>2020-06-14T18:46:58Z</time>
      </trkpt>
      <trkpt lat="49.63598" lon="-1.63287">
        <ele>27.2</ele>
        <time>2020-06-14T18:46:59Z</time>
      </trkpt>
      <trkpt lat="49.63598" lon="-1.63289">
        <ele>27.2</ele>
        <time>2020-06-14T18:47:00Z</time>
      </trkpt>
      <trkpt lat="49.63598" lon="-1.63289">
        <ele>27.1</ele>
        <time>2020-06-14T18:47:01Z</time>
      </trkpt>
      <trkpt lat="49.636" lon="-1.63292">
        <ele>27.3</ele>
        <time>2020-06-14T18:47:02Z</time>
      </trkpt>
      <trkpt lat="49.63602" lon="-1.63295">
        <ele>27.4</ele>
        <time>2020-06-14T18:47:03Z</time>
      </trkpt>
      <trkpt lat="49.63603" lon="-1.63298">
        <ele>27.5</ele>
        <time>2020-06-14T18:47:04Z</time>
      </trkpt>
      <trkpt lat="49.63604" lon="-1.63301">
        <ele>27.7</ele>
        <time>2020-06-14T18:47:05Z</time>
      </trkpt>
      <trkpt lat="49.63605" lon="-1.63301">
        <ele>27.7</ele>
        <time>2020-06-14T18:47:06Z</time>
      </trkpt>
      <trkpt lat="49.63605" lon="-1.63305">
        <ele>27.9</ele>
        <time>2020-06-14T18:47:07Z</time>
      </trkpt>
      <trkpt lat="49.63606" lon="-1.63307">
        <ele>27.9</ele>
        <time>2020-06-14T18:47:08Z</time>
      </trkpt>
      <trkpt lat="49.63608" lon="-1.63312">
        <ele>28.2</ele>
        <time>2020-06-14T18:47:09Z</time>
      </trkpt>
      <trkpt lat="49.63608" lon="-1.63314">
        <ele>28.2</ele>
        <time>2020-06-14T18:47:10Z</time>
      </trkpt>
      <trkpt lat="49.6361" lon="-1.63318">
        <ele>28.4</ele>
        <time>2020-06-14T18:47:11Z</time>
      </trkpt>
      <trkpt lat="49.63613" lon="-1.63321">
        <ele>28.6</ele>
        <time>2020-06-14T18:47:12Z</time>
      </trkpt>
      <trkpt lat="49.63614" lon="-1.63325">
        <ele>28.8</ele>
        <time>2020-06-14T18:47:13Z</time>
      </trkpt>
      <trkpt lat="49.63615" lon="-1.63327">
        <ele>28.9</ele>
        <time>2020-06-14T18:47:14Z</time>
      </trkpt>
      <trkpt lat="49.63616" lon="-1.63331">
        <ele>29.1</ele>
        <time>2020-06-14T18:47:15Z</time>
      </trkpt>
      <trkpt lat="49.63618" lon="-1.63334">
        <ele>29.3</ele>
        <time>2020-06-14T18:47:16Z</time>
      </trkpt>
      <trkpt lat="49.63621" lon="-1.63338">
        <ele>29.6</ele>
        <time>2020-06-14T18:47:17Z</time>
      </trkpt>
      <trkpt lat="49.63623" lon="-1.63342">
        <ele>29.8</ele>
        <time>2020-06-14T18:47:18Z</time>
      </trkpt>
      <trkpt lat="49.63624" lon="-1.63343">
        <ele>29.9</ele>
        <time>2020-06-14T18:47:19Z</time>
      </trkpt>
      <trkpt lat="49.63625" lon="-1.63348">
        <ele>30.2</ele>
        <time>2020-06-14T18:47:20Z</time>
      </trkpt>
      <trkpt lat="49.63626" lon="-1.6335">
        <ele>30.3</ele>
        <time>2020-06-14T18:47:21Z</time>
      </trkpt>
      <trkpt lat="49.63629" lon="-1.63355">
        <ele>30.6</ele>
        <time>2020-06-14T18:47:22Z</time>
      </trkpt>
      <trkpt lat="49.6363" lon="-1.63358">
        <ele>30.7</ele>
        <time>2020-06-14T18:47:23Z</time>
      </trkpt>
      <trkpt lat="49.63632" lon="-1.63361">
        <ele>30.9</ele>
        <time>2020-06-14T18:47:24Z</time>
      </trkpt>
      <trkpt lat="49.63632" lon="-1.63362">
        <ele>31</ele>
        <time>2020-06-14T18:47:25Z</time>
      </trkpt>
      <trkpt lat="49.63634" lon="-1.63365">
        <ele>31.1</ele>
        <time>2020-06-14T18:47:26Z</time>
      </trkpt>
      <trkpt lat="49.63634" lon="-1.63367">
        <ele>31.2</ele>
        <time>2020-06-14T18:47:27Z</time>
      </trkpt>
      <trkpt lat="49.63635" lon="-1.6337">
        <ele>31.4</ele>
        <time>2020-06-14T18:47:28Z</time>
      </trkpt>
      <trkpt lat="49.63636" lon="-1.63374">
        <ele>31.5</ele>
        <time>2020-06-14T18:47:29Z</time>
      </trkpt>
      <trkpt lat="49.63637" lon="-1.63376">
        <ele>31.6</ele>
        <time>2020-06-14T18:47:30Z</time>
      </trkpt>
      <trkpt lat="49.63639" lon="-1.63378">
        <ele>31.8</ele>
        <time>2020-06-14T18:47:31Z</time>
      </trkpt>
      <trkpt lat="49.63641" lon="-1.63381">
        <ele>32.1</ele>
        <time>2020-06-14T18:47:32Z</time>
      </trkpt>
      <trkpt lat="49.63642" lon="-1.63382">
        <ele>32.2</ele>
        <time>2020-06-14T18:47:33Z</time>
      </trkpt>
      <trkpt lat="49.63643" lon="-1.63384">
        <ele>32.3</ele>
        <time>2020-06-14T18:47:34Z</time>
      </trkpt>
      <trkpt lat="49.63643" lon="-1.63385">
        <ele>32.4</ele>
        <time>2020-06-14T18:47:35Z</time>
      </trkpt>
      <trkpt lat="49.63643" lon="-1.63387">
        <ele>32.5</ele>
        <time>2020-06-14T18:47:36Z</time>
      </trkpt>
      <trkpt lat="49.63644" lon="-1.63387">
        <ele>32.6</ele>
        <time>2020-06-14T18:47:37Z</time>
      </trkpt>
      <trkpt lat="49.63644" lon="-1.63387">
        <ele>32.6</ele>
        <time>2020-06-14T18:47:38Z</time>
      </trkpt>
      <trkpt lat="49.63643" lon="-1.63386">
        <ele>32.7</ele>
        <time>2020-06-14T18:47:39Z</time>
      </trkpt>
      <trkpt lat="49.63644" lon="-1.63387">
        <ele>32.8</ele>
        <time>2020-06-14T18:47:40Z</time>
      </trkpt>
      <trkpt lat="49.63644" lon="-1.63386">
        <ele>32.9</ele>
        <time>2020-06-14T18:47:41Z</time>
      </trkpt>
      <trkpt lat="49.63643" lon="-1.63384">
        <ele>33</ele>
        <time>2020-06-14T18:47:42Z</time>
      </trkpt>
      <trkpt lat="49.63643" lon="-1.63383">
        <ele>33.1</ele>
        <time>2020-06-14T18:47:43Z</time>
      </trkpt>
      <trkpt lat="49.63643" lon="-1.63384">
        <ele>33.1</ele>
        <time>2020-06-14T18:47:44Z</time>
      </trkpt>
      <trkpt lat="49.63644" lon="-1.63384">
        <ele>33.1</ele>
        <time>2020-06-14T18:47:45Z</time>
      </trkpt>
      <trkpt lat="49.63644" lon="-1.63385">
        <ele>33.2</ele>
        <time>2020-06-14T18:47:46Z</time>
      </trkpt>
      <trkpt lat="49.63644" lon="-1.63384">
        <ele>33.2</ele>
        <time>2020-06-14T18:47:47Z</time>
      </trkpt>
      <trkpt lat="49.63645" lon="-1.63384">
        <ele>33.3</ele>
        <time>2020-06-14T18:47:48Z</time>
      </trkpt>
      <trkpt lat="49.63646" lon="-1.63388">
        <ele>33.4</ele>
        <time>2020-06-14T18:47:49Z</time>
      </trkpt>
      <trkpt lat="49.63647" lon="-1.63392">
        <ele>33.6</ele>
        <time>2020-06-14T18:47:50Z</time>
      </trkpt>
      <trkpt lat="49.63648" lon="-1.63397">
        <ele>33.8</ele>
        <time>2020-06-14T18:47:51Z</time>
      </trkpt>
      <trkpt lat="49.63649" lon="-1.63398">
        <ele>33.9</ele>
        <time>2020-06-14T18:47:52Z</time>
      </trkpt>
      <trkpt lat="49.6365" lon="-1.63403">
        <ele>34.1</ele>
        <time>2020-06-14T18:47:53Z</time>
      </trkpt>
      <trkpt lat="49.63651" lon="-1.63408">
        <ele>34.3</ele>
        <time>2020-06-14T18:47:54Z</time>
      </trkpt>
      <trkpt lat="49.63652" lon="-1.6341">
        <ele>34.5</ele>
        <time>2020-06-14T18:47:55Z</time>
      </trkpt>
      <trkpt lat="49.63654" lon="-1.63416">
        <ele>34.7</ele>
        <time>2020-06-14T18:47:56Z</time>
      </trkpt>
      <trkpt lat="49.63655" lon="-1.63418">
        <ele>34.8</ele>
        <time>2020-06-14T18:47:57Z</time>
      </trkpt>
      <trkpt lat="49.63657" lon="-1.63421">
        <ele>35</ele>
        <time>2020-06-14T18:47:58Z</time>
      </trkpt>
      <trkpt lat="49.63659" lon="-1.63426">
        <ele>35.3</ele>
        <time>2020-06-14T18:47:59Z</time>
      </trkpt>
      <trkpt lat="49.63661" lon="-1.63429">
        <ele>35.5</ele>
        <time>2020-06-14T18:48:00Z</time>
      </trkpt>
      <trkpt lat="49.63662" lon="-1.6343">
        <ele>35.6</ele>
        <time>2020-06-14T18:48:01Z</time>
      </trkpt>
      <trkpt lat="49.63664" lon="-1.63434">
        <ele>35.8</ele>
        <time>2020-06-14T18:48:02Z</time>
      </trkpt>
      <trkpt lat="49.63664" lon="-1.63436">
        <ele>35.9</ele>
        <time>2020-06-14T18:48:03Z</time>
      </trkpt>
      <trkpt lat="49.63667" lon="-1.6344">
        <ele>36.2</ele>
        <time>2020-06-14T18:48:04Z</time>
      </trkpt>
      <trkpt lat="49.63668" lon="-1.63442">
        <ele>36.3</ele>
        <time>2020-06-14T18:48:05Z</time>
      </trkpt>
      <trkpt lat="49.6367" lon="-1.63447">
        <ele>36.6</ele>
        <time>2020-06-14T18:48:06Z</time>
      </trkpt>
      <trkpt lat="49.63673" lon="-1.63451">
        <ele>36.8</ele>
        <time>2020-06-14T18:48:07Z</time>
      </trkpt>
      <trkpt lat="49.63674" lon="-1.63452">
        <ele>36.9</ele>
        <time>2020-06-14T18:48:08Z</time>
      </trkpt>
      <trkpt lat="49.63676" lon="-1.63456">
        <ele>37.2</ele>
        <time>2020-06-14T18:48:09Z</time>
      </trkpt>
      <trkpt lat="49.63676" lon="-1.63457">
        <ele>37.2</ele>
        <time>2020-06-14T18:48:10Z</time>
      </trkpt>
      <trkpt lat="49.63679" lon="-1.63462">
        <ele>37.5</ele>
        <time>2020-06-14T18:48:11Z</time>
      </trkpt>
      <trkpt lat="49.63679" lon="-1.63464">
        <ele>37.7</ele>
        <time>2020-06-14T18:48:12Z</time>
      </trkpt>
      <trkpt lat="49.63682" lon="-1.63469">
        <ele>38</ele>
        <time>2020-06-14T18:48:13Z</time>
      </trkpt>
      <trkpt lat="49.63683" lon="-1.63471">
        <ele>38.1</ele>
        <time>2020-06-14T18:48:14Z</time>
      </trkpt>
      <trkpt lat="49.63684" lon="-1.63475">
        <ele>38.3</ele>
        <time>2020-06-14T18:48:15Z</time>
      </trkpt>
      <trkpt lat="49.63686" lon="-1.63478">
        <ele>38.6</ele>
        <time>2020-06-14T18:48:16Z</time>
      </trkpt>
      <trkpt lat="49.63688" lon="-1.63483">
        <ele>38.8</ele>
        <time>2020-06-14T18:48:17Z</time>
      </trkpt>
      <trkpt lat="49.63689" lon="-1.63485">
        <ele>39</ele>
        <time>2020-06-14T18:48:18Z</time>
      </trkpt>
      <trkpt lat="49.6369" lon="-1.63489">
        <ele>39.2</ele>
        <time>2020-06-14T18:48:19Z</time>
      </trkpt>
      <trkpt lat="49.63693" lon="-1.63494">
        <ele>39.5</ele>
        <time>2020-06-14T18:48:20Z</time>
      </trkpt>
      <trkpt lat="49.63693" lon="-1.63497">
        <ele>39.6</ele>
        <time>2020-06-14T18:48:21Z</time>
      </trkpt>
      <trkpt lat="49.63695" lon="-1.63501">
        <ele>39.9</ele>
        <time>2020-06-14T18:48:22Z</time>
      </trkpt>
      <trkpt lat="49.63696" lon="-1.63506">
        <ele>40.1</ele>
        <time>2020-06-14T18:48:23Z</time>
      </trkpt>
      <trkpt lat="49.63697" lon="-1.6351">
        <ele>40.3</ele>
        <time>2020-06-14T18:48:24Z</time>
      </trkpt>
      <trkpt lat="49.63698" lon="-1.63514">
        <ele>40.5</ele>
        <time>2020-06-14T18:48:25Z</time>
      </trkpt>
      <trkpt lat="49.63698" lon="-1.63516">
        <ele>40.6</ele>
        <time>2020-06-14T18:48:26Z</time>
      </trkpt>
      <trkpt lat="49.63699" lon="-1.6352">
        <ele>40.8</ele>
        <time>2020-06-14T18:48:27Z</time>
      </trkpt>
      <trkpt lat="49.637" lon="-1.63525">
        <ele>41</ele>
        <time>2020-06-14T18:48:28Z</time>
      </trkpt>
      <trkpt lat="49.637" lon="-1.6353">
        <ele>41.1</ele>
        <time>2020-06-14T18:48:29Z</time>
      </trkpt>
      <trkpt lat="49.637" lon="-1.63531">
        <ele>41.2</ele>
        <time>2020-06-14T18:48:30Z</time>
      </trkpt>
      <trkpt lat="49.63699" lon="-1.63535">
        <ele>41.4</ele>
        <time>2020-06-14T18:48:31Z</time>
      </trkpt>
      <trkpt lat="49.63696" lon="-1.63539">
        <ele>41.5</ele>
        <time>2020-06-14T18:48:32Z</time>
      </trkpt>
      <trkpt lat="49.63694" lon="-1.63543">
        <ele>41.7</ele>
        <time>2020-06-14T18:48:33Z</time>
      </trkpt>
      <trkpt lat="49.63691" lon="-1.63545">
        <ele>41.8</ele>
        <time>2020-06-14T18:48:34Z</time>
      </trkpt>
      <trkpt lat="49.63688" lon="-1.63546">
        <ele>41.9</ele>
        <time>2020-06-14T18:48:35Z</time>
      </trkpt>
      <trkpt lat="49.63684" lon="-1.63547">
        <ele>42</ele>
        <time>2020-06-14T18:48:36Z</time>
      </trkpt>
      <trkpt lat="49.63681" lon="-1.63547">
        <ele>42.1</ele>
        <time>2020-06-14T18:48:37Z</time>
      </trkpt>
      <trkpt lat="49.63677" lon="-1.63546">
        <ele>42.2</ele>
        <time>2020-06-14T18:48:38Z</time>
      </trkpt>
      <trkpt lat="49.63675" lon="-1.63546">
        <ele>42.3</ele>
        <time>2020-06-14T18:48:39Z</time>
      </trkpt>
      <trkpt lat="49.63672" lon="-1.63543">
        <ele>42.4</ele>
        <time>2020-06-14T18:48:40Z</time>
      </trkpt>
      <trkpt lat="49.63669" lon="-1.63541">
        <ele>42.5</ele>
        <time>2020-06-14T18:48:41Z</time>
      </trkpt>
      <trkpt lat="49.63666" lon="-1.63537">
        <ele>42.6</ele>
        <time>2020-06-14T18:48:42Z</time>
      </trkpt>
      <trkpt lat="49.63663" lon="-1.63532">
        <ele>42.7</ele>
        <time>2020-06-14T18:48:43Z</time>
      </trkpt>
      <trkpt lat="49.6366" lon="-1.63529">
        <ele>42.8</ele>
        <time>2020-06-14T18:48:44Z</time>
      </trkpt>
      <trkpt lat="49.63657" lon="-1.63526">
        <ele>42.9</ele>
        <time>2020-06-14T18:48:45Z</time>
      </trkpt>
      <trkpt lat="49.63654" lon="-1.63523">
        <ele>43</ele>
        <time>2020-06-14T18:48:46Z</time>
      </trkpt>
      <trkpt lat="49.63651" lon="-1.63521">
        <ele>43.1</ele>
        <time>2020-06-14T18:48:47Z</time>
      </trkpt>
      <trkpt lat="49.63648" lon="-1.63517">
        <ele>43.3</ele>
        <time>2020-06-14T18:48:48Z</time>
      </trkpt>
      <trkpt lat="49.63644" lon="-1.63513">
        <ele>43.4</ele>
        <time>2020-06-14T18:48:49Z</time>
      </trkpt>
      <trkpt lat="49.6364" lon="-1.63509">
        <ele>43.6</ele>
        <time>2020-06-14T18:48:50Z</time>
      </trkpt>
      <trkpt lat="49.63635" lon="-1.63503">
        <ele>43.8</ele>
        <time>2020-06-14T18:48:51Z</time>
      </trkpt>
      <trkpt lat="49.63632" lon="-1.63499">
        <ele>44.1</ele>
        <time>2020-06-14T18:48:52Z</time>
      </trkpt>
      <trkpt lat="49.63628" lon="-1.63494">
        <ele>44.3</ele>
        <time>2020-06-14T18:48:53Z</time>
      </trkpt>
      <trkpt lat="49.63626" lon="-1.63492">
        <ele>44.4</ele>
        <time>2020-06-14T18:48:54Z</time>
      </trkpt>
      <trkpt lat="49.63623" lon="-1.63488">
        <ele>44.6</ele>
        <time>2020-06-14T18:48:55Z</time>
      </trkpt>
      <trkpt lat="49.63619" lon="-1.63484">
        <ele>44.7</ele>
        <time>2020-06-14T18:48:56Z</time>
      </trkpt>
      <trkpt lat="49.63616" lon="-1.63481">
        <ele>44.9</ele>
        <time>2020-06-14T18:48:57Z</time>
      </trkpt>
      <trkpt lat="49.63612" lon="-1.63477">
        <ele>45.1</ele>
        <time>2020-06-14T18:48:58Z</time>
      </trkpt>
      <trkpt lat="49.63609" lon="-1.63474">
        <ele>45.2</ele>
        <time>2020-06-14T18:48:59Z</time>
      </trkpt>
      <trkpt lat="49.63606" lon="-1.63469">
        <ele>45.4</ele>
        <time>2020-06-14T18:49:00Z</time>
      </trkpt>
      <trkpt lat="49.63603" lon="-1.63464">
        <ele>45.6</ele>
        <time>2020-06-14T18:49:01Z</time>
      </trkpt>
      <trkpt lat="49.63599" lon="-1.63459">
        <ele>45.9</ele>
        <time>2020-06-14T18:49:02Z</time>
      </trkpt>
      <trkpt lat="49.63596" lon="-1.63455">
        <ele>46</ele>
        <time>2020-06-14T18:49:03Z</time>
      </trkpt>
      <trkpt lat="49.63593" lon="-1.6345">
        <ele>46.3</ele>
        <time>2020-06-14T18:49:04Z</time>
      </trkpt>
      <trkpt lat="49.63591" lon="-1.63447">
        <ele>46.4</ele>
        <time>2020-06-14T18:49:05Z</time>
      </trkpt>
      <trkpt lat="49.63588" lon="-1.63444">
        <ele>46.6</ele>
        <time>2020-06-14T18:49:06Z</time>
      </trkpt>
      <trkpt lat="49.63584" lon="-1.6344">
        <ele>46.8</ele>
        <time>2020-06-14T18:49:07Z</time>
      </trkpt>
      <trkpt lat="49.63581" lon="-1.63436">
        <ele>47</ele>
        <time>2020-06-14T18:49:08Z</time>
      </trkpt>
      <trkpt lat="49.63578" lon="-1.63433">
        <ele>47.2</ele>
        <time>2020-06-14T18:49:09Z</time>
      </trkpt>
      <trkpt lat="49.63574" lon="-1.63431">
        <ele>47.5</ele>
        <time>2020-06-14T18:49:10Z</time>
      </trkpt>
      <trkpt lat="49.63569" lon="-1.63432">
        <ele>47.8</ele>
        <time>2020-06-14T18:49:11Z</time>
      </trkpt>
      <trkpt lat="49.63565" lon="-1.63436">
        <ele>48.1</ele>
        <time>2020-06-14T18:49:12Z</time>
      </trkpt>
      <trkpt lat="49.63563" lon="-1.63443">
        <ele>48.4</ele>
        <time>2020-06-14T18:49:13Z</time>
      </trkpt>
      <trkpt lat="49.63562" lon="-1.63449">
        <ele>48.7</ele>
        <time>2020-06-14T18:49:14Z</time>
      </trkpt>
      <trkpt lat="49.63564" lon="-1.63459">
        <ele>49</ele>
        <time>2020-06-14T18:49:15Z</time>
      </trkpt>
      <trkpt lat="49.63565" lon="-1.63464">
        <ele>49.2</ele>
        <time>2020-06-14T18:49:16Z</time>
      </trkpt>
      <trkpt lat="49.63567" lon="-1.6347">
        <ele>49.5</ele>
        <time>2020-06-14T18:49:17Z</time>
      </trkpt>
      <trkpt lat="49.63569" lon="-1.63474">
        <ele>49.7</ele>
        <time>2020-06-14T18:49:18Z</time>
      </trkpt>
      <trkpt lat="49.63571" lon="-1.63479">
        <ele>49.9</ele>
        <time>2020-06-14T18:49:19Z</time>
      </trkpt>
      <trkpt lat="49.63573" lon="-1.63486">
        <ele>50.1</ele>
        <time>2020-06-14T18:49:20Z</time>
      </trkpt>
      <trkpt lat="49.63575" lon="-1.63491">
        <ele>50.3</ele>
        <time>2020-06-14T18:49:21Z</time>
      </trkpt>
      <trkpt lat="49.63576" lon="-1.63495">
        <ele>50.4</ele>
        <time>2020-06-14T18:49:22Z</time>
      </trkpt>
      <trkpt lat="49.63579" lon="-1.63501">
        <ele>50.7</ele>
        <time>2020-06-14T18:49:23Z</time>
      </trkpt>
      <trkpt lat="49.6358" lon="-1.63504">
        <ele>50.8</ele>
        <time>2020-06-14T18:49:24Z</time>
      </trkpt>
      <trkpt lat="49.63582" lon="-1.63509">
        <ele>51</ele>
        <time>2020-06-14T18:49:25Z</time>
      </trkpt>
      <trkpt lat="49.63584" lon="-1.63515">
        <ele>51.2</ele>
        <time>2020-06-14T18:49:26Z</time>
      </trkpt>
      <trkpt lat="49.63587" lon="-1.63523">
        <ele>51.5</ele>
        <time>2020-06-14T18:49:27Z</time>
      </trkpt>
      <trkpt lat="49.63589" lon="-1.63529">
        <ele>51.8</ele>
        <time>2020-06-14T18:49:28Z</time>
      </trkpt>
      <trkpt lat="49.6359" lon="-1.63536">
        <ele>52</ele>
        <time>2020-06-14T18:49:29Z</time>
      </trkpt>
      <trkpt lat="49.63591" lon="-1.63538">
        <ele>52.1</ele>
        <time>2020-06-14T18:49:30Z</time>
      </trkpt>
      <trkpt lat="49.63594" lon="-1.63544">
        <ele>52.3</ele>
        <time>2020-06-14T18:49:31Z</time>
      </trkpt>
      <trkpt lat="49.63595" lon="-1.63546">
        <ele>52.3</ele>
        <time>2020-06-14T18:49:32Z</time>
      </trkpt>
      <trkpt lat="49.63596" lon="-1.63551">
        <ele>52.5</ele>
        <time>2020-06-14T18:49:33Z</time>
      </trkpt>
      <trkpt lat="49.63599" lon="-1.63557">
        <ele>52.7</ele>
        <time>2020-06-14T18:49:34Z</time>
      </trkpt>
      <trkpt lat="49.636" lon="-1.63561">
        <ele>52.8</ele>
        <time>2020-06-14T18:49:35Z</time>
      </trkpt>
      <trkpt lat="49.63602" lon="-1.63566">
        <ele>53</ele>
        <time>2020-06-14T18:49:36Z</time>
      </trkpt>
      <trkpt lat="49.63604" lon="-1.63571">
        <ele>53.2</ele>
        <time>2020-06-14T18:49:37Z</time>
      </trkpt>
      <trkpt lat="49.63605" lon="-1.63577">
        <ele>53.3</ele>
        <time>2020-06-14T18:49:38Z</time>
      </trkpt>
      <trkpt lat="49.63607" lon="-1.63582">
        <ele>53.5</ele>
        <time>2020-06-14T18:49:39Z</time>
      </trkpt>
      <trkpt lat="49.63608" lon="-1.63587">
        <ele>53.6</ele>
        <time>2020-06-14T18:49:40Z</time>
      </trkpt>
      <trkpt lat="49.6361" lon="-1.63593">
        <ele>53.8</ele>
        <time>2020-06-14T18:49:41Z</time>
      </trkpt>
      <trkpt lat="49.63612" lon="-1.63599">
        <ele>53.9</ele>
        <time>2020-06-14T18:49:42Z</time>
      </trkpt>
      <trkpt lat="49.63614" lon="-1.63602">
        <ele>54.1</ele>
        <time>2020-06-14T18:49:43Z</time>
      </trkpt>
      <trkpt lat="49.63616" lon="-1.63608">
        <ele>54.2</ele>
        <time>2020-06-14T18:49:44Z</time>
      </trkpt>
      <trkpt lat="49.63618" lon="-1.63612">
        <ele>54.4</ele>
        <time>2020-06-14T18:49:45Z</time>
      </trkpt>
      <trkpt lat="49.63619" lon="-1.63617">
        <ele>54.5</ele>
        <time>2020-06-14T18:49:46Z</time>
      </trkpt>
      <trkpt lat="49.63621" lon="-1.63622">
        <ele>54.6</ele>
        <time>2020-06-14T18:49:47Z</time>
      </trkpt>
      <trkpt lat="49.63623" lon="-1.63627">
        <ele>54.7</ele>
        <time>2020-06-14T18:49:48Z</time>
      </trkpt>
      <trkpt lat="49.63625" lon="-1.63634">
        <ele>54.9</ele>
        <time>2020-06-14T18:49:49Z</time>
      </trkpt>
      <trkpt lat="49.63626" lon="-1.63639">
        <ele>55</ele>
        <time>2020-06-14T18:49:50Z</time>
      </trkpt>
      <trkpt lat="49.63627" lon="-1.63647">
        <ele>55.1</ele>
        <time>2020-06-14T18:49:51Z</time>
      </trkpt>
      <trkpt lat="49.63627" lon="-1.63652">
        <ele>55.2</ele>
        <time>2020-06-14T18:49:52Z</time>
      </trkpt>
      <trkpt lat="49.63627" lon="-1.63657">
        <ele>55.2</ele>
        <time>2020-06-14T18:49:53Z</time>
      </trkpt>
      <trkpt lat="49.63627" lon="-1.63663">
        <ele>55.3</ele>
        <time>2020-06-14T18:49:54Z</time>
      </trkpt>
      <trkpt lat="49.63627" lon="-1.63669">
        <ele>55.3</ele>
        <time>2020-06-14T18:49:55Z</time>
      </trkpt>
      <trkpt lat="49.63626" lon="-1.63674">
        <ele>55.3</ele>
        <time>2020-06-14T18:49:56Z</time>
      </trkpt>
      <trkpt lat="49.63623" lon="-1.63678">
        <ele>55.3</ele>
        <time>2020-06-14T18:49:57Z</time>
      </trkpt>
      <trkpt lat="49.63621" lon="-1.63682">
        <ele>55.3</ele>
        <time>2020-06-14T18:49:58Z</time>
      </trkpt>
      <trkpt lat="49.6362" lon="-1.63688">
        <ele>55</ele>
        <time>2020-06-14T18:49:59Z</time>
      </trkpt>
      <trkpt lat="49.63619" lon="-1.63691">
        <ele>54.9</ele>
        <time>2020-06-14T18:50:00Z</time>
      </trkpt>
      <trkpt lat="49.63619" lon="-1.63698">
        <ele>54.6</ele>
        <time>2020-06-14T18:50:01Z</time>
      </trkpt>
      <trkpt lat="49.6362" lon="-1.63704">
        <ele>54.1</ele>
        <time>2020-06-14T18:50:02Z</time>
      </trkpt>
      <trkpt lat="49.63622" lon="-1.63713">
        <ele>53.8</ele>
        <time>2020-06-14T18:50:03Z</time>
      </trkpt>
      <trkpt lat="49.63624" lon="-1.63719">
        <ele>53.6</ele>
        <time>2020-06-14T18:50:04Z</time>
      </trkpt>
      <trkpt lat="49.63626" lon="-1.63724">
        <ele>53.2</ele>
        <time>2020-06-14T18:50:05Z</time>
      </trkpt>
      <trkpt lat="49.63632" lon="-1.63727">
        <ele>52.5</ele>
        <time>2020-06-14T18:50:06Z</time>
      </trkpt>
      <trkpt lat="49.63638" lon="-1.63725">
        <ele>51.8</ele>
        <time>2020-06-14T18:50:07Z</time>
      </trkpt>
      <trkpt lat="49.63644" lon="-1.63724">
        <ele>51.1</ele>
        <time>2020-06-14T18:50:08Z</time>
      </trkpt>
      <trkpt lat="49.63651" lon="-1.63724">
        <ele>50.3</ele>
        <time>2020-06-14T18:50:09Z</time>
      </trkpt>
      <trkpt lat="49.63658" lon="-1.63726">
        <ele>49.5</ele>
        <time>2020-06-14T18:50:10Z</time>
      </trkpt>
      <trkpt lat="49.63665" lon="-1.6373">
        <ele>48.7</ele>
        <time>2020-06-14T18:50:11Z</time>
      </trkpt>
      <trkpt lat="49.63672" lon="-1.63736">
        <ele>47.8</ele>
        <time>2020-06-14T18:50:12Z</time>
      </trkpt>
      <trkpt lat="49.63681" lon="-1.63742">
        <ele>46.7</ele>
        <time>2020-06-14T18:50:13Z</time>
      </trkpt>
      <trkpt lat="49.63689" lon="-1.63749">
        <ele>45.7</ele>
        <time>2020-06-14T18:50:14Z</time>
      </trkpt>
      <trkpt lat="49.63698" lon="-1.63755">
        <ele>44.6</ele>
        <time>2020-06-14T18:50:15Z</time>
      </trkpt>
      <trkpt lat="49.63706" lon="-1.63763">
        <ele>43.6</ele>
        <time>2020-06-14T18:50:16Z</time>
      </trkpt>
      <trkpt lat="49.63715" lon="-1.63771">
        <ele>42.5</ele>
        <time>2020-06-14T18:50:17Z</time>
      </trkpt>
      <trkpt lat="49.63724" lon="-1.63779">
        <ele>41.4</ele>
        <time>2020-06-14T18:50:18Z</time>
      </trkpt>
      <trkpt lat="49.63733" lon="-1.63786">
        <ele>40.4</ele>
        <time>2020-06-14T18:50:19Z</time>
      </trkpt>
      <trkpt lat="49.63742" lon="-1.63793">
        <ele>39.3</ele>
        <time>2020-06-14T18:50:20Z</time>
      </trkpt>
      <trkpt lat="49.6375" lon="-1.63801">
        <ele>38.3</ele>
        <time>2020-06-14T18:50:21Z</time>
      </trkpt>
      <trkpt lat="49.63756" lon="-1.63808">
        <ele>37.4</ele>
        <time>2020-06-14T18:50:22Z</time>
      </trkpt>
      <trkpt lat="49.63762" lon="-1.63816">
        <ele>36.5</ele>
        <time>2020-06-14T18:50:23Z</time>
      </trkpt>
      <trkpt lat="49.63768" lon="-1.63823">
        <ele>35.7</ele>
        <time>2020-06-14T18:50:24Z</time>
      </trkpt>
      <trkpt lat="49.63774" lon="-1.6383">
        <ele>34.8</ele>
        <time>2020-06-14T18:50:25Z</time>
      </trkpt>
      <trkpt lat="49.63782" lon="-1.63834">
        <ele>33.8</ele>
        <time>2020-06-14T18:50:26Z</time>
      </trkpt>
      <trkpt lat="49.6379" lon="-1.63837">
        <ele>32.7</ele>
        <time>2020-06-14T18:50:27Z</time>
      </trkpt>
      <trkpt lat="49.63799" lon="-1.63837">
        <ele>31.7</ele>
        <time>2020-06-14T18:50:28Z</time>
      </trkpt>
      <trkpt lat="49.63807" lon="-1.63837">
        <ele>30.7</ele>
        <time>2020-06-14T18:50:29Z</time>
      </trkpt>
      <trkpt lat="49.63816" lon="-1.63835">
        <ele>29.8</ele>
        <time>2020-06-14T18:50:30Z</time>
      </trkpt>
      <trkpt lat="49.63824" lon="-1.63832">
        <ele>28.9</ele>
        <time>2020-06-14T18:50:31Z</time>
      </trkpt>
      <trkpt lat="49.63831" lon="-1.63828">
        <ele>28</ele>
        <time>2020-06-14T18:50:32Z</time>
      </trkpt>
      <trkpt lat="49.63838" lon="-1.63822">
        <ele>27.1</ele>
        <time>2020-06-14T18:50:33Z</time>
      </trkpt>
      <trkpt lat="49.63845" lon="-1.63815">
        <ele>26.2</ele>
        <time>2020-06-14T18:50:34Z</time>
      </trkpt>
      <trkpt lat="49.63853" lon="-1.63808">
        <ele>25.3</ele>
        <time>2020-06-14T18:50:35Z</time>
      </trkpt>
      <trkpt lat="49.63861" lon="-1.63801">
        <ele>24.4</ele>
        <time>2020-06-14T18:50:36Z</time>
      </trkpt>
      <trkpt lat="49.63868" lon="-1.63794">
        <ele>23.5</ele>
        <time>2020-06-14T18:50:37Z</time>
      </trkpt>
      <trkpt lat="49.63875" lon="-1.63788">
        <ele>22.7</ele>
        <time>2020-06-14T18:50:38Z</time>
      </trkpt>
      <trkpt lat="49.63881" lon="-1.63785">
        <ele>22</ele>
        <time>2020-06-14T18:50:39Z</time>
      </trkpt>
      <trkpt lat="49.63887" lon="-1.63783">
        <ele>21.4</ele>
        <time>2020-06-14T18:50:40Z</time>
      </trkpt>
      <trkpt lat="49.63893" lon="-1.63782">
        <ele>20.8</ele>
        <time>2020-06-14T18:50:41Z</time>
      </trkpt>
      <trkpt lat="49.63898" lon="-1.63783">
        <ele>20.4</ele>
        <time>2020-06-14T18:50:42Z</time>
      </trkpt>
      <trkpt lat="49.63903" lon="-1.63784">
        <ele>20</ele>
        <time>2020-06-14T18:50:43Z</time>
      </trkpt>
      <trkpt lat="49.63907" lon="-1.63784">
        <ele>19.7</ele>
        <time>2020-06-14T18:50:44Z</time>
      </trkpt>
      <trkpt lat="49.63912" lon="-1.63784">
        <ele>19.3</ele>
        <time>2020-06-14T18:50:45Z</time>
      </trkpt>
      <trkpt lat="49.63915" lon="-1.63779">
        <ele>19.1</ele>
        <time>2020-06-14T18:50:46Z</time>
      </trkpt>
      <trkpt lat="49.63919" lon="-1.63773">
        <ele>19</ele>
        <time>2020-06-14T18:50:47Z</time>
      </trkpt>
      <trkpt lat="49.63922" lon="-1.63767">
        <ele>18.8</ele>
        <time>2020-06-14T18:50:48Z</time>
      </trkpt>
      <trkpt lat="49.63924" lon="-1.6376">
        <ele>18.6</ele>
        <time>2020-06-14T18:50:49Z</time>
      </trkpt>
      <trkpt lat="49.63925" lon="-1.63753">
        <ele>18.4</ele>
        <time>2020-06-14T18:50:50Z</time>
      </trkpt>
      <trkpt lat="49.63927" lon="-1.63745">
        <ele>18.2</ele>
        <time>2020-06-14T18:50:51Z</time>
      </trkpt>
      <trkpt lat="49.63929" lon="-1.63739">
        <ele>18</ele>
        <time>2020-06-14T18:50:52Z</time>
      </trkpt>
      <trkpt lat="49.6393" lon="-1.63733">
        <ele>17.8</ele>
        <time>2020-06-14T18:50:53Z</time>
      </trkpt>
      <trkpt lat="49.63931" lon="-1.63729">
        <ele>17.7</ele>
        <time>2020-06-14T18:50:54Z</time>
      </trkpt>
      <trkpt lat="49.63932" lon="-1.63724">
        <ele>17.6</ele>
        <time>2020-06-14T18:50:55Z</time>
      </trkpt>
      <trkpt lat="49.63933" lon="-1.6372">
        <ele>17.5</ele>
        <time>2020-06-14T18:50:56Z</time>
      </trkpt>
      <trkpt lat="49.63935" lon="-1.63716">
        <ele>17.4</ele>
        <time>2020-06-14T18:50:57Z</time>
      </trkpt>
      <trkpt lat="49.63936" lon="-1.63712">
        <ele>17.3</ele>
        <time>2020-06-14T18:50:58Z</time>
      </trkpt>
      <trkpt lat="49.63936" lon="-1.63706">
        <ele>17.2</ele>
        <time>2020-06-14T18:50:59Z</time>
      </trkpt>
      <trkpt lat="49.63937" lon="-1.63701">
        <ele>17.1</ele>
        <time>2020-06-14T18:51:00Z</time>
      </trkpt>
      <trkpt lat="49.63937" lon="-1.63697">
        <ele>17</ele>
        <time>2020-06-14T18:51:01Z</time>
      </trkpt>
      <trkpt lat="49.63938" lon="-1.63692">
        <ele>16.9</ele>
        <time>2020-06-14T18:51:02Z</time>
      </trkpt>
      <trkpt lat="49.63938" lon="-1.63687">
        <ele>16.9</ele>
        <time>2020-06-14T18:51:03Z</time>
      </trkpt>
      <trkpt lat="49.63939" lon="-1.63682">
        <ele>16.8</ele>
        <time>2020-06-14T18:51:04Z</time>
      </trkpt>
      <trkpt lat="49.63939" lon="-1.63677">
        <ele>16.8</ele>
        <time>2020-06-14T18:51:05Z</time>
      </trkpt>
      <trkpt lat="49.63939" lon="-1.63672">
        <ele>16.8</ele>
        <time>2020-06-14T18:51:06Z</time>
      </trkpt>
      <trkpt lat="49.63938" lon="-1.63669">
        <ele>16.7</ele>
        <time>2020-06-14T18:51:07Z</time>
      </trkpt>
      <trkpt lat="49.63938" lon="-1.63667">
        <ele>16.7</ele>
        <time>2020-06-14T18:51:08Z</time>
      </trkpt>
      <trkpt lat="49.63938" lon="-1.63666">
        <ele>16.7</ele>
        <time>2020-06-14T18:51:09Z</time>
      </trkpt>
      <trkpt lat="49.63938" lon="-1.63665">
        <ele>16.7</ele>
        <time>2020-06-14T18:51:10Z</time>
      </trkpt>
      <trkpt lat="49.63938" lon="-1.63665">
        <ele>16.7</ele>
        <time>2020-06-14T18:51:11Z</time>
      </trkpt>
      <trkpt lat="49.63938" lon="-1.63665">
        <ele>16.7</ele>
        <time>2020-06-14T18:51:12Z</time>
      </trkpt>
      <trkpt lat="49.63938" lon="-1.63665">
        <ele>16.7</ele>
        <time>2020-06-14T18:51:13Z</time>
      </trkpt>
      <trkpt lat="49.63939" lon="-1.63664">
        <ele>16.6</ele>
        <time>2020-06-14T18:51:14Z</time>
      </trkpt>
      <trkpt lat="49.63939" lon="-1.63664">
        <ele>16.6</ele>
        <time>2020-06-14T18:51:15Z</time>
      </trkpt>
      <trkpt lat="49.63939" lon="-1.63663">
        <ele>16.6</ele>
        <time>2020-06-14T18:51:16Z</time>
      </trkpt>
      <trkpt lat="49.63939" lon="-1.63663">
        <ele>16.6</ele>
        <time>2020-06-14T18:51:17Z</time>
      </trkpt>
      <trkpt lat="49.63939" lon="-1.63663">
        <ele>16.6</ele>
        <time>2020-06-14T18:51:18Z</time>
      </trkpt>
      <trkpt lat="49.63938" lon="-1.63662">
        <ele>16.6</ele>
        <time>2020-06-14T18:51:19Z</time>
      </trkpt>
      <trkpt lat="49.63938" lon="-1.63662">
        <ele>16.6</ele>
        <time>2020-06-14T18:51:20Z</time>
      </trkpt>
      <trkpt lat="49.63938" lon="-1.63662">
        <ele>16.6</ele>
        <time>2020-06-14T18:51:21Z</time>
      </trkpt>
      <trkpt lat="49.63938" lon="-1.63662">
        <ele>16.6</ele>
        <time>2020-06-14T18:51:22Z</time>
      </trkpt>
    </trkseg>
  </trk>
  <trk>
    <name><![CDATA[T12]]></name>
    <trkseg>
      <trkpt lat="48.98265" lon="-1.45413">
        <ele>19.8</ele>
        <time>2020-06-12T03:33:02Z</time>
      </trkpt>
      <trkpt lat="48.98278" lon="-1.45397">
        <ele>19.5</ele>
        <time>2020-06-12T03:33:03Z</time>
      </trkpt>
      <trkpt lat="48.98295" lon="-1.45471">
        <ele>18</ele>
        <time>2020-06-12T03:33:05Z</time>
      </trkpt>
      <trkpt lat="48.98296" lon="-1.45487">
        <ele>17.8</ele>
        <time>2020-06-12T03:33:06Z</time>
      </trkpt>
      <trkpt lat="48.983" lon="-1.45496">
        <ele>17.6</ele>
        <time>2020-06-12T03:33:07Z</time>
      </trkpt>
      <trkpt lat="48.98302" lon="-1.45505">
        <ele>17.6</ele>
        <time>2020-06-12T03:33:08Z</time>
      </trkpt>
      <trkpt lat="48.98309" lon="-1.45522">
        <ele>17.4</ele>
        <time>2020-06-12T03:33:09Z</time>
      </trkpt>
      <trkpt lat="48.98313" lon="-1.4553">
        <ele>17.3</ele>
        <time>2020-06-12T03:33:10Z</time>
      </trkpt>
      <trkpt lat="48.98317" lon="-1.45539">
        <ele>17.3</ele>
        <time>2020-06-12T03:33:11Z</time>
      </trkpt>
      <trkpt lat="48.98321" lon="-1.45548">
        <ele>17.4</ele>
        <time>2020-06-12T03:33:12Z</time>
      </trkpt>
      <trkpt lat="48.98325" lon="-1.45556">
        <ele>17.4</ele>
        <time>2020-06-12T03:33:15Z</time>
      </trkpt>
      <trkpt lat="48.9833" lon="-1.45565">
        <ele>17.4</ele>
        <time>2020-06-12T03:33:16Z</time>
      </trkpt>
      <trkpt lat="48.98333" lon="-1.45572">
        <ele>17.4</ele>
        <time>2020-06-12T03:33:17Z</time>
      </trkpt>
      <trkpt lat="48.98336" lon="-1.45578">
        <ele>17.4</ele>
        <time>2020-06-12T03:33:18Z</time>
      </trkpt>
      <trkpt lat="48.98338" lon="-1.45583">
        <ele>17.4</ele>
        <time>2020-06-12T03:33:19Z</time>
      </trkpt>
      <trkpt lat="48.98343" lon="-1.45596">
        <ele>17.3</ele>
        <time>2020-06-12T03:33:20Z</time>
      </trkpt>
      <trkpt lat="48.98345" lon="-1.45601">
        <ele>17.3</ele>
        <time>2020-06-12T03:33:21Z</time>
      </trkpt>
      <trkpt lat="48.98348" lon="-1.45609">
        <ele>17.3</ele>
        <time>2020-06-12T03:33:22Z</time>
      </trkpt>
      <trkpt lat="48.9835" lon="-1.45615">
        <ele>17.3</ele>
        <time>2020-06-12T03:33:23Z</time>
      </trkpt>
      <trkpt lat="48.98352" lon="-1.45619">
        <ele>17.3</ele>
        <time>2020-06-12T03:33:24Z</time>
      </trkpt>
      <trkpt lat="48.98354" lon="-1.45625">
        <ele>17.3</ele>
        <time>2020-06-12T03:33:25Z</time>
      </trkpt>
      <trkpt lat="48.98359" lon="-1.45632">
        <ele>17.4</ele>
        <time>2020-06-12T03:33:26Z</time>
      </trkpt>
      <trkpt lat="48.98362" lon="-1.45637">
        <ele>17.4</ele>
        <time>2020-06-12T03:33:27Z</time>
      </trkpt>
      <trkpt lat="48.98365" lon="-1.45644">
        <ele>17.4</ele>
        <time>2020-06-12T03:33:28Z</time>
      </trkpt>
      <trkpt lat="48.98369" lon="-1.45648">
        <ele>17.4</ele>
        <time>2020-06-12T03:33:29Z</time>
      </trkpt>
      <trkpt lat="48.98374" lon="-1.45652">
        <ele>17.4</ele>
        <time>2020-06-12T03:33:30Z</time>
      </trkpt>
      <trkpt lat="48.98379" lon="-1.45658">
        <ele>17.4</ele>
        <time>2020-06-12T03:33:31Z</time>
      </trkpt>
      <trkpt lat="48.98383" lon="-1.45662">
        <ele>17.4</ele>
        <time>2020-06-12T03:33:32Z</time>
      </trkpt>
      <trkpt lat="48.98384" lon="-1.45669">
        <ele>17.4</ele>
        <time>2020-06-12T03:33:33Z</time>
      </trkpt>
      <trkpt lat="48.98387" lon="-1.45674">
        <ele>17.4</ele>
        <time>2020-06-12T03:33:34Z</time>
      </trkpt>
      <trkpt lat="48.98391" lon="-1.45681">
        <ele>17.4</ele>
        <time>2020-06-12T03:33:35Z</time>
      </trkpt>
      <trkpt lat="48.98395" lon="-1.45686">
        <ele>17.3</ele>
        <time>2020-06-12T03:33:36Z</time>
      </trkpt>
      <trkpt lat="48.98398" lon="-1.45691">
        <ele>17.3</ele>
        <time>2020-06-12T03:33:37Z</time>
      </trkpt>
      <trkpt lat="48.98402" lon="-1.45697">
        <ele>17.3</ele>
        <time>2020-06-12T03:33:38Z</time>
      </trkpt>
      <trkpt lat="48.98406" lon="-1.45703">
        <ele>17.3</ele>
        <time>2020-06-12T03:33:39Z</time>
      </trkpt>
      <trkpt lat="48.9841" lon="-1.4571">
        <ele>17.3</ele>
        <time>2020-06-12T03:33:40Z</time>
      </trkpt>
      <trkpt lat="48.98415" lon="-1.45714">
        <ele>17.3</ele>
        <time>2020-06-12T03:33:41Z</time>
      </trkpt>
      <trkpt lat="48.98419" lon="-1.45718">
        <ele>17.3</ele>
        <time>2020-06-12T03:33:42Z</time>
      </trkpt>
      <trkpt lat="48.98423" lon="-1.45723">
        <ele>17.2</ele>
        <time>2020-06-12T03:33:43Z</time>
      </trkpt>
      <trkpt lat="48.98427" lon="-1.45728">
        <ele>17.1</ele>
        <time>2020-06-12T03:33:44Z</time>
      </trkpt>
      <trkpt lat="48.98431" lon="-1.45733">
        <ele>17</ele>
        <time>2020-06-12T03:33:45Z</time>
      </trkpt>
      <trkpt lat="48.98435" lon="-1.45738">
        <ele>16.9</ele>
        <time>2020-06-12T03:33:46Z</time>
      </trkpt>
      <trkpt lat="48.98439" lon="-1.45743">
        <ele>16.8</ele>
        <time>2020-06-12T03:33:47Z</time>
      </trkpt>
      <trkpt lat="48.98444" lon="-1.45747">
        <ele>16.7</ele>
        <time>2020-06-12T03:33:48Z</time>
      </trkpt>
      <trkpt lat="48.98448" lon="-1.45752">
        <ele>16.6</ele>
        <time>2020-06-12T03:33:49Z</time>
      </trkpt>
      <trkpt lat="48.98452" lon="-1.45757">
        <ele>16.6</ele>
        <time>2020-06-12T03:33:50Z</time>
      </trkpt>
      <trkpt lat="48.98455" lon="-1.4576">
        <ele>16.5</ele>
        <time>2020-06-12T03:33:51Z</time>
      </trkpt>
      <trkpt lat="48.98459" lon="-1.45764">
        <ele>16.4</ele>
        <time>2020-06-12T03:33:52Z</time>
      </trkpt>
      <trkpt lat="48.98463" lon="-1.45768">
        <ele>16.3</ele>
        <time>2020-06-12T03:33:53Z</time>
      </trkpt>
      <trkpt lat="48.98467" lon="-1.45773">
        <ele>16.3</ele>
        <time>2020-06-12T03:33:54Z</time>
      </trkpt>
      <trkpt lat="48.98471" lon="-1.45777">
        <ele>16.2</ele>
        <time>2020-06-12T03:33:55Z</time>
      </trkpt>
      <trkpt lat="48.98476" lon="-1.45782">
        <ele>16.1</ele>
        <time>2020-06-12T03:33:56Z</time>
      </trkpt>
      <trkpt lat="48.9848" lon="-1.45787">
        <ele>16.1</ele>
        <time>2020-06-12T03:33:57Z</time>
      </trkpt>
      <trkpt lat="48.98483" lon="-1.45791">
        <ele>16</ele>
        <time>2020-06-12T03:33:58Z</time>
      </trkpt>
      <trkpt lat="48.98486" lon="-1.45797">
        <ele>15.9</ele>
        <time>2020-06-12T03:33:59Z</time>
      </trkpt>
      <trkpt lat="48.98491" lon="-1.45804">
        <ele>15.8</ele>
        <time>2020-06-12T03:34:00Z</time>
      </trkpt>
      <trkpt lat="48.98493" lon="-1.45811">
        <ele>15.7</ele>
        <time>2020-06-12T03:34:01Z</time>
      </trkpt>
      <trkpt lat="48.98494" lon="-1.4582">
        <ele>15.5</ele>
        <time>2020-06-12T03:34:02Z</time>
      </trkpt>
      <trkpt lat="48.98495" lon="-1.45828">
        <ele>15.4</ele>
        <time>2020-06-12T03:34:03Z</time>
      </trkpt>
      <trkpt lat="48.98495" lon="-1.45837">
        <ele>15.3</ele>
        <time>2020-06-12T03:34:04Z</time>
      </trkpt>
      <trkpt lat="48.98496" lon="-1.45845">
        <ele>15.2</ele>
        <time>2020-06-12T03:34:05Z</time>
      </trkpt>
      <trkpt lat="48.98498" lon="-1.45855">
        <ele>14.9</ele>
        <time>2020-06-12T03:34:06Z</time>
      </trkpt>
      <trkpt lat="48.985" lon="-1.45862">
        <ele>14.8</ele>
        <time>2020-06-12T03:34:07Z</time>
      </trkpt>
      <trkpt lat="48.98503" lon="-1.45866">
        <ele>14.6</ele>
        <time>2020-06-12T03:34:08Z</time>
      </trkpt>
      <trkpt lat="48.98508" lon="-1.45869">
        <ele>14.5</ele>
        <time>2020-06-12T03:34:09Z</time>
      </trkpt>
      <trkpt lat="48.98513" lon="-1.45871">
        <ele>14.3</ele>
        <time>2020-06-12T03:34:10Z</time>
      </trkpt>
      <trkpt lat="48.98519" lon="-1.45873">
        <ele>14.1</ele>
        <time>2020-06-12T03:34:11Z</time>
      </trkpt>
      <trkpt lat="48.98524" lon="-1.45875">
        <ele>13.9</ele>
        <time>2020-06-12T03:34:12Z</time>
      </trkpt>
      <trkpt lat="48.98529" lon="-1.45879">
        <ele>13.7</ele>
        <time>2020-06-12T03:34:13Z</time>
      </trkpt>
      <trkpt lat="48.98535" lon="-1.45882">
        <ele>13.5</ele>
        <time>2020-06-12T03:34:14Z</time>
      </trkpt>
      <trkpt lat="48.98541" lon="-1.45885">
        <ele>13.3</ele>
        <time>2020-06-12T03:34:15Z</time>
      </trkpt>
      <trkpt lat="48.98547" lon="-1.45887">
        <ele>13</ele>
        <time>2020-06-12T03:34:16Z</time>
      </trkpt>
      <trkpt lat="48.98553" lon="-1.4589">
        <ele>12.7</ele>
        <time>2020-06-12T03:34:17Z</time>
      </trkpt>
      <trkpt lat="48.98559" lon="-1.45893">
        <ele>12.4</ele>
        <time>2020-06-12T03:34:18Z</time>
      </trkpt>
      <trkpt lat="48.98567" lon="-1.45894">
        <ele>12.1</ele>
        <time>2020-06-12T03:34:19Z</time>
      </trkpt>
      <trkpt lat="48.98573" lon="-1.45897">
        <ele>11.8</ele>
        <time>2020-06-12T03:34:20Z</time>
      </trkpt>
      <trkpt lat="48.9858" lon="-1.45901">
        <ele>11.5</ele>
        <time>2020-06-12T03:34:21Z</time>
      </trkpt>
      <trkpt lat="48.98588" lon="-1.45903">
        <ele>11.1</ele>
        <time>2020-06-12T03:34:22Z</time>
      </trkpt>
      <trkpt lat="48.98595" lon="-1.45906">
        <ele>10.7</ele>
        <time>2020-06-12T03:34:23Z</time>
      </trkpt>
      <trkpt lat="48.98602" lon="-1.45909">
        <ele>10.3</ele>
        <time>2020-06-12T03:34:24Z</time>
      </trkpt>
      <trkpt lat="48.98609" lon="-1.45913">
        <ele>10</ele>
        <time>2020-06-12T03:34:25Z</time>
      </trkpt>
      <trkpt lat="48.98616" lon="-1.45916">
        <ele>9.8</ele>
        <time>2020-06-12T03:34:26Z</time>
      </trkpt>
      <trkpt lat="48.98624" lon="-1.4592">
        <ele>9.6</ele>
        <time>2020-06-12T03:34:27Z</time>
      </trkpt>
      <trkpt lat="48.98631" lon="-1.45923">
        <ele>9.4</ele>
        <time>2020-06-12T03:34:28Z</time>
      </trkpt>
      <trkpt lat="48.98638" lon="-1.45927">
        <ele>9.4</ele>
        <time>2020-06-12T03:34:29Z</time>
      </trkpt>
      <trkpt lat="48.98645" lon="-1.4593">
        <ele>9.3</ele>
        <time>2020-06-12T03:34:30Z</time>
      </trkpt>
      <trkpt lat="48.9865" lon="-1.45934">
        <ele>9.2</ele>
        <time>2020-06-12T03:34:31Z</time>
      </trkpt>
      <trkpt lat="48.98655" lon="-1.45939">
        <ele>9.2</ele>
        <time>2020-06-12T03:34:32Z</time>
      </trkpt>
      <trkpt lat="48.98659" lon="-1.45945">
        <ele>9.2</ele>
        <time>2020-06-12T03:34:33Z</time>
      </trkpt>
      <trkpt lat="48.98664" lon="-1.45951">
        <ele>9.2</ele>
        <time>2020-06-12T03:34:34Z</time>
      </trkpt>
      <trkpt lat="48.98668" lon="-1.45957">
        <ele>9.2</ele>
        <time>2020-06-12T03:34:35Z</time>
      </trkpt>
      <trkpt lat="48.98673" lon="-1.45963">
        <ele>9.4</ele>
        <time>2020-06-12T03:34:36Z</time>
      </trkpt>
      <trkpt lat="48.98677" lon="-1.45969">
        <ele>9.5</ele>
        <time>2020-06-12T03:34:37Z</time>
      </trkpt>
      <trkpt lat="48.98681" lon="-1.45975">
        <ele>9.7</ele>
        <time>2020-06-12T03:34:38Z</time>
      </trkpt>
      <trkpt lat="48.98686" lon="-1.4598">
        <ele>9.9</ele>
        <time>2020-06-12T03:34:39Z</time>
      </trkpt>
      <trkpt lat="48.9869" lon="-1.45986">
        <ele>10.1</ele>
        <time>2020-06-12T03:34:40Z</time>
      </trkpt>
      <trkpt lat="48.98694" lon="-1.45988">
        <ele>10.3</ele>
        <time>2020-06-12T03:34:41Z</time>
      </trkpt>
      <trkpt lat="48.98698" lon="-1.45992">
        <ele>10.4</ele>
        <time>2020-06-12T03:34:42Z</time>
      </trkpt>
      <trkpt lat="48.98701" lon="-1.45996">
        <ele>10.6</ele>
        <time>2020-06-12T03:34:43Z</time>
      </trkpt>
      <trkpt lat="48.98704" lon="-1.45998">
        <ele>10.7</ele>
        <time>2020-06-12T03:34:44Z</time>
      </trkpt>
      <trkpt lat="48.98708" lon="-1.46001">
        <ele>11</ele>
        <time>2020-06-12T03:34:45Z</time>
      </trkpt>
      <trkpt lat="48.98712" lon="-1.46005">
        <ele>11.2</ele>
        <time>2020-06-12T03:34:46Z</time>
      </trkpt>
      <trkpt lat="48.98716" lon="-1.46008">
        <ele>11.4</ele>
        <time>2020-06-12T03:34:47Z</time>
      </trkpt>
      <trkpt lat="48.9872" lon="-1.46011">
        <ele>11.7</ele>
        <time>2020-06-12T03:34:48Z</time>
      </trkpt>
      <trkpt lat="48.98724" lon="-1.46014">
        <ele>11.9</ele>
        <time>2020-06-12T03:34:49Z</time>
      </trkpt>
      <trkpt lat="48.98726" lon="-1.46017">
        <ele>12.1</ele>
        <time>2020-06-12T03:34:50Z</time>
      </trkpt>
      <trkpt lat="48.9873" lon="-1.4602">
        <ele>12.3</ele>
        <time>2020-06-12T03:34:51Z</time>
      </trkpt>
      <trkpt lat="48.98733" lon="-1.46023">
        <ele>12.5</ele>
        <time>2020-06-12T03:34:52Z</time>
      </trkpt>
      <trkpt lat="48.98738" lon="-1.46026">
        <ele>12.7</ele>
        <time>2020-06-12T03:34:53Z</time>
      </trkpt>
      <trkpt lat="48.9874" lon="-1.46029">
        <ele>12.9</ele>
        <time>2020-06-12T03:34:54Z</time>
      </trkpt>
      <trkpt lat="48.98744" lon="-1.4603">
        <ele>13</ele>
        <time>2020-06-12T03:34:55Z</time>
      </trkpt>
      <trkpt lat="48.98747" lon="-1.46033">
        <ele>13.1</ele>
        <time>2020-06-12T03:34:56Z</time>
      </trkpt>
      <trkpt lat="48.98751" lon="-1.46035">
        <ele>13.3</ele>
        <time>2020-06-12T03:34:57Z</time>
      </trkpt>
      <trkpt lat="48.98755" lon="-1.46037">
        <ele>13.4</ele>
        <time>2020-06-12T03:34:58Z</time>
      </trkpt>
      <trkpt lat="48.98759" lon="-1.4604">
        <ele>13.5</ele>
        <time>2020-06-12T03:34:59Z</time>
      </trkpt>
      <trkpt lat="48.98762" lon="-1.46043">
        <ele>13.6</ele>
        <time>2020-06-12T03:35:00Z</time>
      </trkpt>
      <trkpt lat="48.98765" lon="-1.46045">
        <ele>13.7</ele>
        <time>2020-06-12T03:35:01Z</time>
      </trkpt>
      <trkpt lat="48.98769" lon="-1.46046">
        <ele>13.8</ele>
        <time>2020-06-12T03:35:02Z</time>
      </trkpt>
      <trkpt lat="48.98773" lon="-1.46048">
        <ele>13.9</ele>
        <time>2020-06-12T03:35:03Z</time>
      </trkpt>
      <trkpt lat="48.98776" lon="-1.46051">
        <ele>14</ele>
        <time>2020-06-12T03:35:04Z</time>
      </trkpt>
      <trkpt lat="48.9878" lon="-1.46054">
        <ele>14</ele>
        <time>2020-06-12T03:35:05Z</time>
      </trkpt>
      <trkpt lat="48.98783" lon="-1.46056">
        <ele>14.1</ele>
        <time>2020-06-12T03:35:06Z</time>
      </trkpt>
      <trkpt lat="48.98784" lon="-1.46057">
        <ele>14.2</ele>
        <time>2020-06-12T03:35:07Z</time>
      </trkpt>
      <trkpt lat="48.98787" lon="-1.46059">
        <ele>14.2</ele>
        <time>2020-06-12T03:35:08Z</time>
      </trkpt>
      <trkpt lat="48.98789" lon="-1.4606">
        <ele>14.3</ele>
        <time>2020-06-12T03:35:09Z</time>
      </trkpt>
      <trkpt lat="48.98793" lon="-1.46061">
        <ele>14.4</ele>
        <time>2020-06-12T03:35:10Z</time>
      </trkpt>
      <trkpt lat="48.98797" lon="-1.46064">
        <ele>14.5</ele>
        <time>2020-06-12T03:35:11Z</time>
      </trkpt>
      <trkpt lat="48.988" lon="-1.46066">
        <ele>14.6</ele>
        <time>2020-06-12T03:35:12Z</time>
      </trkpt>
      <trkpt lat="48.98803" lon="-1.46068">
        <ele>14.6</ele>
        <time>2020-06-12T03:35:13Z</time>
      </trkpt>
      <trkpt lat="48.98805" lon="-1.4607">
        <ele>14.7</ele>
        <time>2020-06-12T03:35:14Z</time>
      </trkpt>
      <trkpt lat="48.98806" lon="-1.4607">
        <ele>14.7</ele>
        <time>2020-06-12T03:35:15Z</time>
      </trkpt>
      <trkpt lat="48.98806" lon="-1.46069">
        <ele>14.7</ele>
        <time>2020-06-12T03:35:16Z</time>
      </trkpt>
      <trkpt lat="48.98806" lon="-1.46069">
        <ele>14.7</ele>
        <time>2020-06-12T03:35:17Z</time>
      </trkpt>
      <trkpt lat="48.98806" lon="-1.46068">
        <ele>14.7</ele>
        <time>2020-06-12T03:35:18Z</time>
      </trkpt>
      <trkpt lat="48.98805" lon="-1.46067">
        <ele>14.7</ele>
        <time>2020-06-12T03:35:19Z</time>
      </trkpt>
      <trkpt lat="48.98806" lon="-1.46068">
        <ele>14.7</ele>
        <time>2020-06-12T03:35:20Z</time>
      </trkpt>
      <trkpt lat="48.98806" lon="-1.46068">
        <ele>14.7</ele>
        <time>2020-06-12T03:35:21Z</time>
      </trkpt>
      <trkpt lat="48.98806" lon="-1.46068">
        <ele>14.7</ele>
        <time>2020-06-12T03:35:22Z</time>
      </trkpt>
      <trkpt lat="48.98806" lon="-1.46069">
        <ele>14.7</ele>
        <time>2020-06-12T03:35:23Z</time>
      </trkpt>
      <trkpt lat="48.98806" lon="-1.46069">
        <ele>14.7</ele>
        <time>2020-06-12T03:35:24Z</time>
      </trkpt>
      <trkpt lat="48.98806" lon="-1.46069">
        <ele>14.7</ele>
        <time>2020-06-12T03:35:25Z</time>
      </trkpt>
      <trkpt lat="48.98806" lon="-1.46067">
        <ele>14.8</ele>
        <time>2020-06-12T03:35:26Z</time>
      </trkpt>
      <trkpt lat="48.98806" lon="-1.46067">
        <ele>14.8</ele>
        <time>2020-06-12T03:35:27Z</time>
      </trkpt>
      <trkpt lat="48.98807" lon="-1.46067">
        <ele>14.8</ele>
        <time>2020-06-12T03:35:28Z</time>
      </trkpt>
      <trkpt lat="48.98807" lon="-1.46067">
        <ele>14.8</ele>
        <time>2020-06-12T03:35:29Z</time>
      </trkpt>
      <trkpt lat="48.98808" lon="-1.46067">
        <ele>14.8</ele>
        <time>2020-06-12T03:35:30Z</time>
      </trkpt>
      <trkpt lat="48.98809" lon="-1.46067">
        <ele>14.8</ele>
        <time>2020-06-12T03:35:31Z</time>
      </trkpt>
      <trkpt lat="48.98813" lon="-1.46069">
        <ele>14.9</ele>
        <time>2020-06-12T03:35:32Z</time>
      </trkpt>
      <trkpt lat="48.98814" lon="-1.46069">
        <ele>14.9</ele>
        <time>2020-06-12T03:35:33Z</time>
      </trkpt>
      <trkpt lat="48.98816" lon="-1.46072">
        <ele>14.9</ele>
        <time>2020-06-12T03:35:34Z</time>
      </trkpt>
      <trkpt lat="48.98818" lon="-1.46073">
        <ele>14.9</ele>
        <time>2020-06-12T03:35:35Z</time>
      </trkpt>
      <trkpt lat="48.9882" lon="-1.46074">
        <ele>14.9</ele>
        <time>2020-06-12T03:35:36Z</time>
      </trkpt>
      <trkpt lat="48.98822" lon="-1.46076">
        <ele>15</ele>
        <time>2020-06-12T03:35:37Z</time>
      </trkpt>
      <trkpt lat="48.98823" lon="-1.46077">
        <ele>15</ele>
        <time>2020-06-12T03:35:38Z</time>
      </trkpt>
      <trkpt lat="48.98826" lon="-1.46077">
        <ele>15</ele>
        <time>2020-06-12T03:35:39Z</time>
      </trkpt>
      <trkpt lat="48.98827" lon="-1.46078">
        <ele>15</ele>
        <time>2020-06-12T03:35:40Z</time>
      </trkpt>
      <trkpt lat="48.98828" lon="-1.46078">
        <ele>15</ele>
        <time>2020-06-12T03:35:41Z</time>
      </trkpt>
      <trkpt lat="48.98831" lon="-1.46078">
        <ele>15</ele>
        <time>2020-06-12T03:35:42Z</time>
      </trkpt>
      <trkpt lat="48.98832" lon="-1.46078">
        <ele>15.1</ele>
        <time>2020-06-12T03:35:43Z</time>
      </trkpt>
      <trkpt lat="48.98835" lon="-1.46079">
        <ele>15.1</ele>
        <time>2020-06-12T03:35:44Z</time>
      </trkpt>
      <trkpt lat="48.98838" lon="-1.4608">
        <ele>15.1</ele>
        <time>2020-06-12T03:35:45Z</time>
      </trkpt>
      <trkpt lat="48.98842" lon="-1.46082">
        <ele>15.1</ele>
        <time>2020-06-12T03:35:46Z</time>
      </trkpt>
      <trkpt lat="48.98845" lon="-1.46084">
        <ele>15.2</ele>
        <time>2020-06-12T03:35:47Z</time>
      </trkpt>
      <trkpt lat="48.98847" lon="-1.46086">
        <ele>15.2</ele>
        <time>2020-06-12T03:35:48Z</time>
      </trkpt>
      <trkpt lat="48.98851" lon="-1.46087">
        <ele>15.2</ele>
        <time>2020-06-12T03:35:49Z</time>
      </trkpt>
      <trkpt lat="48.98854" lon="-1.4609">
        <ele>15.2</ele>
        <time>2020-06-12T03:35:50Z</time>
      </trkpt>
      <trkpt lat="48.98858" lon="-1.46092">
        <ele>15.3</ele>
        <time>2020-06-12T03:35:51Z</time>
      </trkpt>
      <trkpt lat="48.98862" lon="-1.46094">
        <ele>15.3</ele>
        <time>2020-06-12T03:35:52Z</time>
      </trkpt>
      <trkpt lat="48.98865" lon="-1.46097">
        <ele>15.3</ele>
        <time>2020-06-12T03:35:53Z</time>
      </trkpt>
      <trkpt lat="48.98869" lon="-1.46099">
        <ele>15.3</ele>
        <time>2020-06-12T03:35:54Z</time>
      </trkpt>
      <trkpt lat="48.98873" lon="-1.46101">
        <ele>15.3</ele>
        <time>2020-06-12T03:35:55Z</time>
      </trkpt>
      <trkpt lat="48.98877" lon="-1.46103">
        <ele>15.3</ele>
        <time>2020-06-12T03:35:56Z</time>
      </trkpt>
      <trkpt lat="48.98881" lon="-1.46105">
        <ele>15.3</ele>
        <time>2020-06-12T03:35:57Z</time>
      </trkpt>
      <trkpt lat="48.98886" lon="-1.46107">
        <ele>15.3</ele>
        <time>2020-06-12T03:35:58Z</time>
      </trkpt>
      <trkpt lat="48.98891" lon="-1.4611">
        <ele>15.3</ele>
        <time>2020-06-12T03:35:59Z</time>
      </trkpt>
      <trkpt lat="48.98895" lon="-1.46114">
        <ele>15.3</ele>
        <time>2020-06-12T03:36:00Z</time>
      </trkpt>
      <trkpt lat="48.98897" lon="-1.46115">
        <ele>15.3</ele>
        <time>2020-06-12T03:36:01Z</time>
      </trkpt>
      <trkpt lat="48.98901" lon="-1.46117">
        <ele>15.3</ele>
        <time>2020-06-12T03:36:02Z</time>
      </trkpt>
      <trkpt lat="48.98905" lon="-1.4612">
        <ele>15.2</ele>
        <time>2020-06-12T03:36:03Z</time>
      </trkpt>
      <trkpt lat="48.9891" lon="-1.46122">
        <ele>15.2</ele>
        <time>2020-06-12T03:36:04Z</time>
      </trkpt>
      <trkpt lat="48.98914" lon="-1.46124">
        <ele>15.1</ele>
        <time>2020-06-12T03:36:05Z</time>
      </trkpt>
      <trkpt lat="48.98919" lon="-1.46126">
        <ele>15</ele>
        <time>2020-06-12T03:36:06Z</time>
      </trkpt>
      <trkpt lat="48.98923" lon="-1.46129">
        <ele>14.9</ele>
        <time>2020-06-12T03:36:07Z</time>
      </trkpt>
      <trkpt lat="48.98926" lon="-1.46131">
        <ele>14.9</ele>
        <time>2020-06-12T03:36:08Z</time>
      </trkpt>
      <trkpt lat="48.9893" lon="-1.46135">
        <ele>14.8</ele>
        <time>2020-06-12T03:36:09Z</time>
      </trkpt>
      <trkpt lat="48.98935" lon="-1.46139">
        <ele>14.7</ele>
        <time>2020-06-12T03:36:10Z</time>
      </trkpt>
      <trkpt lat="48.98941" lon="-1.46141">
        <ele>14.6</ele>
        <time>2020-06-12T03:36:11Z</time>
      </trkpt>
      <trkpt lat="48.98947" lon="-1.46143">
        <ele>14.5</ele>
        <time>2020-06-12T03:36:12Z</time>
      </trkpt>
      <trkpt lat="48.98953" lon="-1.46144">
        <ele>14.5</ele>
        <time>2020-06-12T03:36:13Z</time>
      </trkpt>
      <trkpt lat="48.98959" lon="-1.46145">
        <ele>14.4</ele>
        <time>2020-06-12T03:36:14Z</time>
      </trkpt>
      <trkpt lat="48.98964" lon="-1.46147">
        <ele>14.4</ele>
        <time>2020-06-12T03:36:15Z</time>
      </trkpt>
      <trkpt lat="48.98969" lon="-1.46148">
        <ele>14.4</ele>
        <time>2020-06-12T03:36:16Z</time>
      </trkpt>
      <trkpt lat="48.98974" lon="-1.46148">
        <ele>14.4</ele>
        <time>2020-06-12T03:36:17Z</time>
      </trkpt>
      <trkpt lat="48.98978" lon="-1.4615">
        <ele>14.4</ele>
        <time>2020-06-12T03:36:18Z</time>
      </trkpt>
      <trkpt lat="48.98983" lon="-1.46152">
        <ele>14.3</ele>
        <time>2020-06-12T03:36:19Z</time>
      </trkpt>
      <trkpt lat="48.98989" lon="-1.46155">
        <ele>14.3</ele>
        <time>2020-06-12T03:36:20Z</time>
      </trkpt>
      <trkpt lat="48.98995" lon="-1.46156">
        <ele>14.2</ele>
        <time>2020-06-12T03:36:21Z</time>
      </trkpt>
      <trkpt lat="48.99" lon="-1.46158">
        <ele>14.2</ele>
        <time>2020-06-12T03:36:22Z</time>
      </trkpt>
      <trkpt lat="48.99006" lon="-1.46158">
        <ele>14.2</ele>
        <time>2020-06-12T03:36:23Z</time>
      </trkpt>
      <trkpt lat="48.99012" lon="-1.4616">
        <ele>14.1</ele>
        <time>2020-06-12T03:36:24Z</time>
      </trkpt>
      <trkpt lat="48.99018" lon="-1.4616">
        <ele>14.1</ele>
        <time>2020-06-12T03:36:25Z</time>
      </trkpt>
      <trkpt lat="48.99024" lon="-1.46162">
        <ele>14.1</ele>
        <time>2020-06-12T03:36:26Z</time>
      </trkpt>
      <trkpt lat="48.9903" lon="-1.46162">
        <ele>14.1</ele>
        <time>2020-06-12T03:36:27Z</time>
      </trkpt>
      <trkpt lat="48.99035" lon="-1.46163">
        <ele>14.1</ele>
        <time>2020-06-12T03:36:28Z</time>
      </trkpt>
      <trkpt lat="48.9904" lon="-1.46164">
        <ele>14.1</ele>
        <time>2020-06-12T03:36:29Z</time>
      </trkpt>
      <trkpt lat="48.99045" lon="-1.46166">
        <ele>14.1</ele>
        <time>2020-06-12T03:36:30Z</time>
      </trkpt>
      <trkpt lat="48.99051" lon="-1.46165">
        <ele>14.1</ele>
        <time>2020-06-12T03:36:31Z</time>
      </trkpt>
      <trkpt lat="48.99056" lon="-1.46168">
        <ele>14</ele>
        <time>2020-06-12T03:36:32Z</time>
      </trkpt>
      <trkpt lat="48.99061" lon="-1.46166">
        <ele>14</ele>
        <time>2020-06-12T03:36:33Z</time>
      </trkpt>
      <trkpt lat="48.99066" lon="-1.46164">
        <ele>13.9</ele>
        <time>2020-06-12T03:36:34Z</time>
      </trkpt>
      <trkpt lat="48.99071" lon="-1.46165">
        <ele>13.8</ele>
        <time>2020-06-12T03:36:35Z</time>
      </trkpt>
      <trkpt lat="48.99075" lon="-1.46163">
        <ele>13.8</ele>
        <time>2020-06-12T03:36:36Z</time>
      </trkpt>
      <trkpt lat="48.99079" lon="-1.46163">
        <ele>13.8</ele>
        <time>2020-06-12T03:36:37Z</time>
      </trkpt>
      <trkpt lat="48.99083" lon="-1.46161">
        <ele>13.9</ele>
        <time>2020-06-12T03:36:38Z</time>
      </trkpt>
      <trkpt lat="48.99088" lon="-1.46158">
        <ele>13.9</ele>
        <time>2020-06-12T03:36:39Z</time>
      </trkpt>
      <trkpt lat="48.99092" lon="-1.46157">
        <ele>13.9</ele>
        <time>2020-06-12T03:36:40Z</time>
      </trkpt>
      <trkpt lat="48.99096" lon="-1.46155">
        <ele>14</ele>
        <time>2020-06-12T03:36:41Z</time>
      </trkpt>
      <trkpt lat="48.99101" lon="-1.46152">
        <ele>14.1</ele>
        <time>2020-06-12T03:36:42Z</time>
      </trkpt>
      <trkpt lat="48.99105" lon="-1.4615">
        <ele>14.1</ele>
        <time>2020-06-12T03:36:43Z</time>
      </trkpt>
      <trkpt lat="48.9911" lon="-1.46147">
        <ele>14.3</ele>
        <time>2020-06-12T03:36:44Z</time>
      </trkpt>
      <trkpt lat="48.99115" lon="-1.46144">
        <ele>14.4</ele>
        <time>2020-06-12T03:36:45Z</time>
      </trkpt>
      <trkpt lat="48.99119" lon="-1.46141">
        <ele>14.6</ele>
        <time>2020-06-12T03:36:46Z</time>
      </trkpt>
      <trkpt lat="48.99124" lon="-1.46139">
        <ele>14.7</ele>
        <time>2020-06-12T03:36:47Z</time>
      </trkpt>
      <trkpt lat="48.99128" lon="-1.46137">
        <ele>14.9</ele>
        <time>2020-06-12T03:36:48Z</time>
      </trkpt>
      <trkpt lat="48.99132" lon="-1.46134">
        <ele>15</ele>
        <time>2020-06-12T03:36:49Z</time>
      </trkpt>
      <trkpt lat="48.99136" lon="-1.46133">
        <ele>15.2</ele>
        <time>2020-06-12T03:36:50Z</time>
      </trkpt>
      <trkpt lat="48.99141" lon="-1.4613">
        <ele>15.3</ele>
        <time>2020-06-12T03:36:51Z</time>
      </trkpt>
      <trkpt lat="48.99145" lon="-1.46128">
        <ele>15.5</ele>
        <time>2020-06-12T03:36:52Z</time>
      </trkpt>
      <trkpt lat="48.99149" lon="-1.46126">
        <ele>15.6</ele>
        <time>2020-06-12T03:36:53Z</time>
      </trkpt>
      <trkpt lat="48.99152" lon="-1.46124">
        <ele>15.8</ele>
        <time>2020-06-12T03:36:54Z</time>
      </trkpt>
      <trkpt lat="48.99157" lon="-1.46122">
        <ele>16</ele>
        <time>2020-06-12T03:36:55Z</time>
      </trkpt>
      <trkpt lat="48.9916" lon="-1.4612">
        <ele>16.1</ele>
        <time>2020-06-12T03:36:56Z</time>
      </trkpt>
      <trkpt lat="48.99163" lon="-1.46118">
        <ele>16.2</ele>
        <time>2020-06-12T03:36:57Z</time>
      </trkpt>
      <trkpt lat="48.99166" lon="-1.46117">
        <ele>16.4</ele>
        <time>2020-06-12T03:36:58Z</time>
      </trkpt>
      <trkpt lat="48.9917" lon="-1.46115">
        <ele>16.5</ele>
        <time>2020-06-12T03:36:59Z</time>
      </trkpt>
      <trkpt lat="48.99174" lon="-1.46113">
        <ele>16.6</ele>
        <time>2020-06-12T03:37:00Z</time>
      </trkpt>
      <trkpt lat="48.99178" lon="-1.46111">
        <ele>16.8</ele>
        <time>2020-06-12T03:37:01Z</time>
      </trkpt>
      <trkpt lat="48.99181" lon="-1.4611">
        <ele>16.9</ele>
        <time>2020-06-12T03:37:02Z</time>
      </trkpt>
      <trkpt lat="48.99184" lon="-1.46109">
        <ele>16.9</ele>
        <time>2020-06-12T03:37:03Z</time>
      </trkpt>
      <trkpt lat="48.99188" lon="-1.46107">
        <ele>17</ele>
        <time>2020-06-12T03:37:04Z</time>
      </trkpt>
      <trkpt lat="48.99192" lon="-1.46107">
        <ele>17.1</ele>
        <time>2020-06-12T03:37:05Z</time>
      </trkpt>
      <trkpt lat="48.99197" lon="-1.46106">
        <ele>17.2</ele>
        <time>2020-06-12T03:37:06Z</time>
      </trkpt>
      <trkpt lat="48.99201" lon="-1.46104">
        <ele>17.3</ele>
        <time>2020-06-12T03:37:07Z</time>
      </trkpt>
      <trkpt lat="48.99205" lon="-1.46102">
        <ele>17.4</ele>
        <time>2020-06-12T03:37:08Z</time>
      </trkpt>
      <trkpt lat="48.99209" lon="-1.46099">
        <ele>17.5</ele>
        <time>2020-06-12T03:37:09Z</time>
      </trkpt>
      <trkpt lat="48.99215" lon="-1.46096">
        <ele>17.6</ele>
        <time>2020-06-12T03:37:10Z</time>
      </trkpt>
      <trkpt lat="48.99218" lon="-1.46094">
        <ele>17.6</ele>
        <time>2020-06-12T03:37:11Z</time>
      </trkpt>
      <trkpt lat="48.99223" lon="-1.46088">
        <ele>17.6</ele>
        <time>2020-06-12T03:37:12Z</time>
      </trkpt>
      <trkpt lat="48.99228" lon="-1.46087">
        <ele>17.8</ele>
        <time>2020-06-12T03:37:13Z</time>
      </trkpt>
      <trkpt lat="48.99232" lon="-1.46085">
        <ele>18</ele>
        <time>2020-06-12T03:37:14Z</time>
      </trkpt>
      <trkpt lat="48.99235" lon="-1.46083">
        <ele>18.1</ele>
        <time>2020-06-12T03:37:15Z</time>
      </trkpt>
      <trkpt lat="48.99239" lon="-1.46082">
        <ele>18.2</ele>
        <time>2020-06-12T03:37:16Z</time>
      </trkpt>
      <trkpt lat="48.99243" lon="-1.4608">
        <ele>18.3</ele>
        <time>2020-06-12T03:37:17Z</time>
      </trkpt>
      <trkpt lat="48.99247" lon="-1.46078">
        <ele>18.3</ele>
        <time>2020-06-12T03:37:18Z</time>
      </trkpt>
      <trkpt lat="48.9925" lon="-1.46076">
        <ele>18.4</ele>
        <time>2020-06-12T03:37:19Z</time>
      </trkpt>
      <trkpt lat="48.99254" lon="-1.46073">
        <ele>18.5</ele>
        <time>2020-06-12T03:37:20Z</time>
      </trkpt>
      <trkpt lat="48.99257" lon="-1.46071">
        <ele>18.6</ele>
        <time>2020-06-12T03:37:21Z</time>
      </trkpt>
      <trkpt lat="48.99261" lon="-1.46069">
        <ele>18.7</ele>
        <time>2020-06-12T03:37:22Z</time>
      </trkpt>
      <trkpt lat="48.99264" lon="-1.46067">
        <ele>18.8</ele>
        <time>2020-06-12T03:37:23Z</time>
      </trkpt>
      <trkpt lat="48.99268" lon="-1.46065">
        <ele>18.9</ele>
        <time>2020-06-12T03:37:24Z</time>
      </trkpt>
      <trkpt lat="48.99272" lon="-1.46063">
        <ele>19</ele>
        <time>2020-06-12T03:37:25Z</time>
      </trkpt>
      <trkpt lat="48.99276" lon="-1.46061">
        <ele>19.1</ele>
        <time>2020-06-12T03:37:26Z</time>
      </trkpt>
      <trkpt lat="48.9928" lon="-1.46059">
        <ele>19.2</ele>
        <time>2020-06-12T03:37:27Z</time>
      </trkpt>
      <trkpt lat="48.99284" lon="-1.46058">
        <ele>19.2</ele>
        <time>2020-06-12T03:37:28Z</time>
      </trkpt>
      <trkpt lat="48.99289" lon="-1.46057">
        <ele>19.3</ele>
        <time>2020-06-12T03:37:29Z</time>
      </trkpt>
      <trkpt lat="48.99292" lon="-1.46057">
        <ele>19.4</ele>
        <time>2020-06-12T03:37:30Z</time>
      </trkpt>
      <trkpt lat="48.99295" lon="-1.46056">
        <ele>19.4</ele>
        <time>2020-06-12T03:37:31Z</time>
      </trkpt>
      <trkpt lat="48.99299" lon="-1.46056">
        <ele>19.5</ele>
        <time>2020-06-12T03:37:32Z</time>
      </trkpt>
      <trkpt lat="48.99303" lon="-1.46055">
        <ele>19.6</ele>
        <time>2020-06-12T03:37:33Z</time>
      </trkpt>
      <trkpt lat="48.99307" lon="-1.46054">
        <ele>19.6</ele>
        <time>2020-06-12T03:37:34Z</time>
      </trkpt>
      <trkpt lat="48.99311" lon="-1.46054">
        <ele>19.6</ele>
        <time>2020-06-12T03:37:35Z</time>
      </trkpt>
      <trkpt lat="48.99315" lon="-1.46054">
        <ele>19.6</ele>
        <time>2020-06-12T03:37:36Z</time>
      </trkpt>
      <trkpt lat="48.99319" lon="-1.46053">
        <ele>19.6</ele>
        <time>2020-06-12T03:37:37Z</time>
      </trkpt>
      <trkpt lat="48.99323" lon="-1.46053">
        <ele>19.6</ele>
        <time>2020-06-12T03:37:38Z</time>
      </trkpt>
      <trkpt lat="48.99328" lon="-1.46053">
        <ele>19.6</ele>
        <time>2020-06-12T03:37:39Z</time>
      </trkpt>
      <trkpt lat="48.99333" lon="-1.46054">
        <ele>19.5</ele>
        <time>2020-06-12T03:37:40Z</time>
      </trkpt>
      <trkpt lat="48.99337" lon="-1.46054">
        <ele>19.4</ele>
        <time>2020-06-12T03:37:41Z</time>
      </trkpt>
      <trkpt lat="48.99342" lon="-1.46053">
        <ele>19.4</ele>
        <time>2020-06-12T03:37:42Z</time>
      </trkpt>
      <trkpt lat="48.99347" lon="-1.46053">
        <ele>19.3</ele>
        <time>2020-06-12T03:37:43Z</time>
      </trkpt>
      <trkpt lat="48.99353" lon="-1.46054">
        <ele>19.2</ele>
        <time>2020-06-12T03:37:44Z</time>
      </trkpt>
      <trkpt lat="48.99358" lon="-1.46055">
        <ele>19.1</ele>
        <time>2020-06-12T03:37:45Z</time>
      </trkpt>
      <trkpt lat="48.99364" lon="-1.46055">
        <ele>19.1</ele>
        <time>2020-06-12T03:37:46Z</time>
      </trkpt>
      <trkpt lat="48.99368" lon="-1.46054">
        <ele>19</ele>
        <time>2020-06-12T03:37:47Z</time>
      </trkpt>
      <trkpt lat="48.99373" lon="-1.46054">
        <ele>19</ele>
        <time>2020-06-12T03:37:48Z</time>
      </trkpt>
      <trkpt lat="48.99376" lon="-1.46055">
        <ele>18.9</ele>
        <time>2020-06-12T03:37:49Z</time>
      </trkpt>
      <trkpt lat="48.99382" lon="-1.46053">
        <ele>18.9</ele>
        <time>2020-06-12T03:37:50Z</time>
      </trkpt>
      <trkpt lat="48.99387" lon="-1.46051">
        <ele>18.8</ele>
        <time>2020-06-12T03:37:51Z</time>
      </trkpt>
      <trkpt lat="48.99391" lon="-1.4605">
        <ele>18.8</ele>
        <time>2020-06-12T03:37:52Z</time>
      </trkpt>
      <trkpt lat="48.99396" lon="-1.4605">
        <ele>18.7</ele>
        <time>2020-06-12T03:37:53Z</time>
      </trkpt>
      <trkpt lat="48.99401" lon="-1.46049">
        <ele>18.7</ele>
        <time>2020-06-12T03:37:54Z</time>
      </trkpt>
      <trkpt lat="48.99406" lon="-1.46048">
        <ele>18.6</ele>
        <time>2020-06-12T03:37:55Z</time>
      </trkpt>
      <trkpt lat="48.9941" lon="-1.46047">
        <ele>18.5</ele>
        <time>2020-06-12T03:37:56Z</time>
      </trkpt>
      <trkpt lat="48.99415" lon="-1.46046">
        <ele>18.5</ele>
        <time>2020-06-12T03:37:57Z</time>
      </trkpt>
      <trkpt lat="48.9942" lon="-1.46046">
        <ele>18.4</ele>
        <time>2020-06-12T03:37:58Z</time>
      </trkpt>
      <trkpt lat="48.99425" lon="-1.46046">
        <ele>18.3</ele>
        <time>2020-06-12T03:37:59Z</time>
      </trkpt>
      <trkpt lat="48.9943" lon="-1.46047">
        <ele>18.2</ele>
        <time>2020-06-12T03:38:00Z</time>
      </trkpt>
      <trkpt lat="48.99436" lon="-1.46046">
        <ele>18.1</ele>
        <time>2020-06-12T03:38:01Z</time>
      </trkpt>
      <trkpt lat="48.99441" lon="-1.46047">
        <ele>17.9</ele>
        <time>2020-06-12T03:38:02Z</time>
      </trkpt>
      <trkpt lat="48.99446" lon="-1.46047">
        <ele>17.7</ele>
        <time>2020-06-12T03:38:03Z</time>
      </trkpt>
      <trkpt lat="48.99451" lon="-1.46046">
        <ele>17.4</ele>
        <time>2020-06-12T03:38:04Z</time>
      </trkpt>
      <trkpt lat="48.99456" lon="-1.46046">
        <ele>17.2</ele>
        <time>2020-06-12T03:38:05Z</time>
      </trkpt>
      <trkpt lat="48.9946" lon="-1.46046">
        <ele>16.9</ele>
        <time>2020-06-12T03:38:06Z</time>
      </trkpt>
      <trkpt lat="48.99466" lon="-1.46047">
        <ele>16.5</ele>
        <time>2020-06-12T03:38:07Z</time>
      </trkpt>
      <trkpt lat="48.9947" lon="-1.46049">
        <ele>16.2</ele>
        <time>2020-06-12T03:38:08Z</time>
      </trkpt>
      <trkpt lat="48.99474" lon="-1.46051">
        <ele>15.9</ele>
        <time>2020-06-12T03:38:09Z</time>
      </trkpt>
      <trkpt lat="48.99479" lon="-1.46054">
        <ele>15.4</ele>
        <time>2020-06-12T03:38:10Z</time>
      </trkpt>
      <trkpt lat="48.99483" lon="-1.46058">
        <ele>15</ele>
        <time>2020-06-12T03:38:11Z</time>
      </trkpt>
      <trkpt lat="48.99488" lon="-1.46062">
        <ele>14.5</ele>
        <time>2020-06-12T03:38:12Z</time>
      </trkpt>
      <trkpt lat="48.99492" lon="-1.46067">
        <ele>14.1</ele>
        <time>2020-06-12T03:38:13Z</time>
      </trkpt>
      <trkpt lat="48.99496" lon="-1.4607">
        <ele>13.7</ele>
        <time>2020-06-12T03:38:14Z</time>
      </trkpt>
      <trkpt lat="48.995" lon="-1.46072">
        <ele>13.3</ele>
        <time>2020-06-12T03:38:15Z</time>
      </trkpt>
      <trkpt lat="48.99503" lon="-1.46075">
        <ele>13.1</ele>
        <time>2020-06-12T03:38:16Z</time>
      </trkpt>
      <trkpt lat="48.99507" lon="-1.46077">
        <ele>12.7</ele>
        <time>2020-06-12T03:38:17Z</time>
      </trkpt>
      <trkpt lat="48.9951" lon="-1.46078">
        <ele>12.4</ele>
        <time>2020-06-12T03:38:18Z</time>
      </trkpt>
      <trkpt lat="48.99514" lon="-1.46081">
        <ele>12</ele>
        <time>2020-06-12T03:38:19Z</time>
      </trkpt>
      <trkpt lat="48.99518" lon="-1.46083">
        <ele>11.5</ele>
        <time>2020-06-12T03:38:20Z</time>
      </trkpt>
      <trkpt lat="48.99523" lon="-1.46084">
        <ele>11</ele>
        <time>2020-06-12T03:38:21Z</time>
      </trkpt>
      <trkpt lat="48.99527" lon="-1.46087">
        <ele>10.6</ele>
        <time>2020-06-12T03:38:22Z</time>
      </trkpt>
      <trkpt lat="48.99531" lon="-1.4609">
        <ele>10.4</ele>
        <time>2020-06-12T03:38:23Z</time>
      </trkpt>
      <trkpt lat="48.99534" lon="-1.46092">
        <ele>10.2</ele>
        <time>2020-06-12T03:38:24Z</time>
      </trkpt>
      <trkpt lat="48.99537" lon="-1.46095">
        <ele>9.9</ele>
        <time>2020-06-12T03:38:25Z</time>
      </trkpt>
      <trkpt lat="48.9954" lon="-1.46098">
        <ele>9.8</ele>
        <time>2020-06-12T03:38:26Z</time>
      </trkpt>
      <trkpt lat="48.99542" lon="-1.461">
        <ele>9.6</ele>
        <time>2020-06-12T03:38:27Z</time>
      </trkpt>
      <trkpt lat="48.99545" lon="-1.46101">
        <ele>9.5</ele>
        <time>2020-06-12T03:38:28Z</time>
      </trkpt>
      <trkpt lat="48.99546" lon="-1.46101">
        <ele>9.4</ele>
        <time>2020-06-12T03:38:29Z</time>
      </trkpt>
      <trkpt lat="48.99549" lon="-1.46107">
        <ele>9.2</ele>
        <time>2020-06-12T03:38:30Z</time>
      </trkpt>
      <trkpt lat="48.9955" lon="-1.4611">
        <ele>9.1</ele>
        <time>2020-06-12T03:38:31Z</time>
      </trkpt>
      <trkpt lat="48.9955" lon="-1.46115">
        <ele>8.9</ele>
        <time>2020-06-12T03:38:32Z</time>
      </trkpt>
      <trkpt lat="48.99551" lon="-1.46119">
        <ele>8.8</ele>
        <time>2020-06-12T03:38:33Z</time>
      </trkpt>
      <trkpt lat="48.99549" lon="-1.46123">
        <ele>8.7</ele>
        <time>2020-06-12T03:38:34Z</time>
      </trkpt>
      <trkpt lat="48.99547" lon="-1.46128">
        <ele>8.5</ele>
        <time>2020-06-12T03:38:35Z</time>
      </trkpt>
      <trkpt lat="48.99547" lon="-1.4613">
        <ele>8.5</ele>
        <time>2020-06-12T03:38:36Z</time>
      </trkpt>
      <trkpt lat="48.99544" lon="-1.46135">
        <ele>8.5</ele>
        <time>2020-06-12T03:38:37Z</time>
      </trkpt>
      <trkpt lat="48.99544" lon="-1.46137">
        <ele>8.5</ele>
        <time>2020-06-12T03:38:38Z</time>
      </trkpt>
      <trkpt lat="48.99542" lon="-1.46143">
        <ele>8.4</ele>
        <time>2020-06-12T03:38:39Z</time>
      </trkpt>
      <trkpt lat="48.99541" lon="-1.46149">
        <ele>8.4</ele>
        <time>2020-06-12T03:38:40Z</time>
      </trkpt>
      <trkpt lat="48.99539" lon="-1.46156">
        <ele>8.4</ele>
        <time>2020-06-12T03:38:41Z</time>
      </trkpt>
      <trkpt lat="48.99538" lon="-1.46163">
        <ele>8.4</ele>
        <time>2020-06-12T03:38:42Z</time>
      </trkpt>
      <trkpt lat="48.99537" lon="-1.4617">
        <ele>8.4</ele>
        <time>2020-06-12T03:38:43Z</time>
      </trkpt>
      <trkpt lat="48.99536" lon="-1.46179">
        <ele>8.4</ele>
        <time>2020-06-12T03:38:44Z</time>
      </trkpt>
      <trkpt lat="48.99535" lon="-1.46188">
        <ele>8.5</ele>
        <time>2020-06-12T03:38:45Z</time>
      </trkpt>
      <trkpt lat="48.99533" lon="-1.46195">
        <ele>8.5</ele>
        <time>2020-06-12T03:38:46Z</time>
      </trkpt>
      <trkpt lat="48.99532" lon="-1.46203">
        <ele>8.6</ele>
        <time>2020-06-12T03:38:47Z</time>
      </trkpt>
      <trkpt lat="48.99531" lon="-1.4621">
        <ele>8.7</ele>
        <time>2020-06-12T03:38:48Z</time>
      </trkpt>
      <trkpt lat="48.99529" lon="-1.46217">
        <ele>8.8</ele>
        <time>2020-06-12T03:38:49Z</time>
      </trkpt>
      <trkpt lat="48.99527" lon="-1.46224">
        <ele>8.8</ele>
        <time>2020-06-12T03:38:50Z</time>
      </trkpt>
      <trkpt lat="48.99526" lon="-1.46231">
        <ele>8.9</ele>
        <time>2020-06-12T03:38:51Z</time>
      </trkpt>
      <trkpt lat="48.99524" lon="-1.46238">
        <ele>9</ele>
        <time>2020-06-12T03:38:52Z</time>
      </trkpt>
      <trkpt lat="48.99522" lon="-1.46246">
        <ele>9.1</ele>
        <time>2020-06-12T03:38:53Z</time>
      </trkpt>
      <trkpt lat="48.9952" lon="-1.46253">
        <ele>9.2</ele>
        <time>2020-06-12T03:38:54Z</time>
      </trkpt>
      <trkpt lat="48.99518" lon="-1.46261">
        <ele>9.2</ele>
        <time>2020-06-12T03:38:55Z</time>
      </trkpt>
      <trkpt lat="48.99516" lon="-1.46267">
        <ele>9.3</ele>
        <time>2020-06-12T03:38:56Z</time>
      </trkpt>
      <trkpt lat="48.99513" lon="-1.46273">
        <ele>9.4</ele>
        <time>2020-06-12T03:38:57Z</time>
      </trkpt>
      <trkpt lat="48.9951" lon="-1.46277">
        <ele>9.5</ele>
        <time>2020-06-12T03:38:58Z</time>
      </trkpt>
      <trkpt lat="48.99506" lon="-1.46281">
        <ele>9.6</ele>
        <time>2020-06-12T03:38:59Z</time>
      </trkpt>
      <trkpt lat="48.99503" lon="-1.46286">
        <ele>9.6</ele>
        <time>2020-06-12T03:39:00Z</time>
      </trkpt>
      <trkpt lat="48.99501" lon="-1.46291">
        <ele>9.7</ele>
        <time>2020-06-12T03:39:01Z</time>
      </trkpt>
      <trkpt lat="48.99498" lon="-1.46296">
        <ele>9.7</ele>
        <time>2020-06-12T03:39:02Z</time>
      </trkpt>
      <trkpt lat="48.99496" lon="-1.46302">
        <ele>9.8</ele>
        <time>2020-06-12T03:39:03Z</time>
      </trkpt>
      <trkpt lat="48.99493" lon="-1.46307">
        <ele>9.9</ele>
        <time>2020-06-12T03:39:04Z</time>
      </trkpt>
      <trkpt lat="48.99489" lon="-1.46312">
        <ele>9.9</ele>
        <time>2020-06-12T03:39:05Z</time>
      </trkpt>
      <trkpt lat="48.99486" lon="-1.46318">
        <ele>10</ele>
        <time>2020-06-12T03:39:06Z</time>
      </trkpt>
      <trkpt lat="48.99483" lon="-1.46323">
        <ele>10.1</ele>
        <time>2020-06-12T03:39:07Z</time>
      </trkpt>
      <trkpt lat="48.99479" lon="-1.46327">
        <ele>10.1</ele>
        <time>2020-06-12T03:39:08Z</time>
      </trkpt>
      <trkpt lat="48.99476" lon="-1.46331">
        <ele>10.2</ele>
        <time>2020-06-12T03:39:09Z</time>
      </trkpt>
      <trkpt lat="48.99473" lon="-1.46335">
        <ele>10.2</ele>
        <time>2020-06-12T03:39:10Z</time>
      </trkpt>
      <trkpt lat="48.9947" lon="-1.4634">
        <ele>10.4</ele>
        <time>2020-06-12T03:39:11Z</time>
      </trkpt>
      <trkpt lat="48.99468" lon="-1.46344">
        <ele>10.4</ele>
        <time>2020-06-12T03:39:12Z</time>
      </trkpt>
      <trkpt lat="48.99466" lon="-1.46348">
        <ele>10.4</ele>
        <time>2020-06-12T03:39:13Z</time>
      </trkpt>
      <trkpt lat="48.99462" lon="-1.46353">
        <ele>10.4</ele>
        <time>2020-06-12T03:39:14Z</time>
      </trkpt>
      <trkpt lat="48.99461" lon="-1.46359">
        <ele>10.4</ele>
        <time>2020-06-12T03:39:15Z</time>
      </trkpt>
      <trkpt lat="48.99462" lon="-1.46362">
        <ele>10.5</ele>
        <time>2020-06-12T03:39:16Z</time>
      </trkpt>
      <trkpt lat="48.99463" lon="-1.46368">
        <ele>10.3</ele>
        <time>2020-06-12T03:39:17Z</time>
      </trkpt>
      <trkpt lat="48.99465" lon="-1.46375">
        <ele>10.2</ele>
        <time>2020-06-12T03:39:18Z</time>
      </trkpt>
      <trkpt lat="48.99466" lon="-1.46383">
        <ele>10.1</ele>
        <time>2020-06-12T03:39:19Z</time>
      </trkpt>
      <trkpt lat="48.99468" lon="-1.46389">
        <ele>10</ele>
        <time>2020-06-12T03:39:20Z</time>
      </trkpt>
      <trkpt lat="48.9947" lon="-1.46395">
        <ele>9.9</ele>
        <time>2020-06-12T03:39:21Z</time>
      </trkpt>
      <trkpt lat="48.99475" lon="-1.46401">
        <ele>9.9</ele>
        <time>2020-06-12T03:39:22Z</time>
      </trkpt>
      <trkpt lat="48.99479" lon="-1.46405">
        <ele>9.9</ele>
        <time>2020-06-12T03:39:23Z</time>
      </trkpt>
      <trkpt lat="48.99483" lon="-1.4641">
        <ele>10</ele>
        <time>2020-06-12T03:39:24Z</time>
      </trkpt>
      <trkpt lat="48.99487" lon="-1.46414">
        <ele>10.1</ele>
        <time>2020-06-12T03:39:25Z</time>
      </trkpt>
      <trkpt lat="48.99491" lon="-1.46419">
        <ele>10.2</ele>
        <time>2020-06-12T03:39:26Z</time>
      </trkpt>
      <trkpt lat="48.99495" lon="-1.46422">
        <ele>10.3</ele>
        <time>2020-06-12T03:39:27Z</time>
      </trkpt>
      <trkpt lat="48.99499" lon="-1.46425">
        <ele>10.2</ele>
        <time>2020-06-12T03:39:28Z</time>
      </trkpt>
      <trkpt lat="48.99503" lon="-1.46428">
        <ele>10.2</ele>
        <time>2020-06-12T03:39:29Z</time>
      </trkpt>
      <trkpt lat="48.99506" lon="-1.46432">
        <ele>10.2</ele>
        <time>2020-06-12T03:39:30Z</time>
      </trkpt>
      <trkpt lat="48.9951" lon="-1.46436">
        <ele>10.1</ele>
        <time>2020-06-12T03:39:31Z</time>
      </trkpt>
      <trkpt lat="48.99512" lon="-1.4644">
        <ele>10.1</ele>
        <time>2020-06-12T03:39:32Z</time>
      </trkpt>
      <trkpt lat="48.99515" lon="-1.46443">
        <ele>10.1</ele>
        <time>2020-06-12T03:39:33Z</time>
      </trkpt>
      <trkpt lat="48.99518" lon="-1.46447">
        <ele>10.2</ele>
        <time>2020-06-12T03:39:34Z</time>
      </trkpt>
      <trkpt lat="48.99521" lon="-1.46451">
        <ele>10.2</ele>
        <time>2020-06-12T03:39:35Z</time>
      </trkpt>
      <trkpt lat="48.99525" lon="-1.46456">
        <ele>10.2</ele>
        <time>2020-06-12T03:39:36Z</time>
      </trkpt>
      <trkpt lat="48.99528" lon="-1.4646">
        <ele>10.3</ele>
        <time>2020-06-12T03:39:37Z</time>
      </trkpt>
      <trkpt lat="48.99531" lon="-1.46464">
        <ele>10.3</ele>
        <time>2020-06-12T03:39:38Z</time>
      </trkpt>
      <trkpt lat="48.99534" lon="-1.46469">
        <ele>10.4</ele>
        <time>2020-06-12T03:39:39Z</time>
      </trkpt>
      <trkpt lat="48.99538" lon="-1.46476">
        <ele>10.6</ele>
        <time>2020-06-12T03:39:40Z</time>
      </trkpt>
      <trkpt lat="48.9954" lon="-1.46482">
        <ele>10.7</ele>
        <time>2020-06-12T03:39:41Z</time>
      </trkpt>
      <trkpt lat="48.99542" lon="-1.46488">
        <ele>10.8</ele>
        <time>2020-06-12T03:39:42Z</time>
      </trkpt>
      <trkpt lat="48.99544" lon="-1.46495">
        <ele>11</ele>
        <time>2020-06-12T03:39:43Z</time>
      </trkpt>
      <trkpt lat="48.99545" lon="-1.46501">
        <ele>11.1</ele>
        <time>2020-06-12T03:39:44Z</time>
      </trkpt>
      <trkpt lat="48.99546" lon="-1.46507">
        <ele>11.2</ele>
        <time>2020-06-12T03:39:45Z</time>
      </trkpt>
      <trkpt lat="48.99546" lon="-1.46513">
        <ele>11.4</ele>
        <time>2020-06-12T03:39:46Z</time>
      </trkpt>
      <trkpt lat="48.99546" lon="-1.46519">
        <ele>11.5</ele>
        <time>2020-06-12T03:39:47Z</time>
      </trkpt>
      <trkpt lat="48.99546" lon="-1.46525">
        <ele>11.7</ele>
        <time>2020-06-12T03:39:48Z</time>
      </trkpt>
      <trkpt lat="48.99547" lon="-1.46531">
        <ele>11.8</ele>
        <time>2020-06-12T03:39:49Z</time>
      </trkpt>
      <trkpt lat="48.99547" lon="-1.46537">
        <ele>12</ele>
        <time>2020-06-12T03:39:50Z</time>
      </trkpt>
      <trkpt lat="48.99547" lon="-1.46543">
        <ele>12.1</ele>
        <time>2020-06-12T03:39:51Z</time>
      </trkpt>
      <trkpt lat="48.99547" lon="-1.46549">
        <ele>12.2</ele>
        <time>2020-06-12T03:39:52Z</time>
      </trkpt>
      <trkpt lat="48.99547" lon="-1.46555">
        <ele>12.4</ele>
        <time>2020-06-12T03:39:53Z</time>
      </trkpt>
      <trkpt lat="48.99547" lon="-1.46559">
        <ele>12.5</ele>
        <time>2020-06-12T03:39:54Z</time>
      </trkpt>
      <trkpt lat="48.99547" lon="-1.46565">
        <ele>12.6</ele>
        <time>2020-06-12T03:39:55Z</time>
      </trkpt>
      <trkpt lat="48.99546" lon="-1.46569">
        <ele>12.7</ele>
        <time>2020-06-12T03:39:56Z</time>
      </trkpt>
      <trkpt lat="48.99546" lon="-1.46574">
        <ele>12.8</ele>
        <time>2020-06-12T03:39:57Z</time>
      </trkpt>
      <trkpt lat="48.99546" lon="-1.46579">
        <ele>12.9</ele>
        <time>2020-06-12T03:39:58Z</time>
      </trkpt>
      <trkpt lat="48.99547" lon="-1.46585">
        <ele>13</ele>
        <time>2020-06-12T03:39:59Z</time>
      </trkpt>
      <trkpt lat="48.99548" lon="-1.46591">
        <ele>13.1</ele>
        <time>2020-06-12T03:40:00Z</time>
      </trkpt>
      <trkpt lat="48.99549" lon="-1.46596">
        <ele>13.2</ele>
        <time>2020-06-12T03:40:01Z</time>
      </trkpt>
      <trkpt lat="48.9955" lon="-1.46601">
        <ele>13.3</ele>
        <time>2020-06-12T03:40:02Z</time>
      </trkpt>
      <trkpt lat="48.9955" lon="-1.46607">
        <ele>13.4</ele>
        <time>2020-06-12T03:40:03Z</time>
      </trkpt>
      <trkpt lat="48.99551" lon="-1.46612">
        <ele>13.5</ele>
        <time>2020-06-12T03:40:04Z</time>
      </trkpt>
      <trkpt lat="48.99553" lon="-1.46617">
        <ele>13.6</ele>
        <time>2020-06-12T03:40:05Z</time>
      </trkpt>
      <trkpt lat="48.99555" lon="-1.46623">
        <ele>13.6</ele>
        <time>2020-06-12T03:40:06Z</time>
      </trkpt>
      <trkpt lat="48.99556" lon="-1.46628">
        <ele>13.7</ele>
        <time>2020-06-12T03:40:07Z</time>
      </trkpt>
      <trkpt lat="48.99558" lon="-1.46633">
        <ele>13.8</ele>
        <time>2020-06-12T03:40:08Z</time>
      </trkpt>
      <trkpt lat="48.9956" lon="-1.46639">
        <ele>13.8</ele>
        <time>2020-06-12T03:40:09Z</time>
      </trkpt>
      <trkpt lat="48.99562" lon="-1.46644">
        <ele>13.9</ele>
        <time>2020-06-12T03:40:10Z</time>
      </trkpt>
      <trkpt lat="48.99563" lon="-1.46649">
        <ele>13.9</ele>
        <time>2020-06-12T03:40:11Z</time>
      </trkpt>
      <trkpt lat="48.99564" lon="-1.46654">
        <ele>14</ele>
        <time>2020-06-12T03:40:12Z</time>
      </trkpt>
      <trkpt lat="48.99565" lon="-1.4666">
        <ele>14</ele>
        <time>2020-06-12T03:40:13Z</time>
      </trkpt>
      <trkpt lat="48.99567" lon="-1.46667">
        <ele>14</ele>
        <time>2020-06-12T03:40:14Z</time>
      </trkpt>
      <trkpt lat="48.99568" lon="-1.46674">
        <ele>14.1</ele>
        <time>2020-06-12T03:40:15Z</time>
      </trkpt>
      <trkpt lat="48.9957" lon="-1.4668">
        <ele>14.1</ele>
        <time>2020-06-12T03:40:16Z</time>
      </trkpt>
      <trkpt lat="48.99573" lon="-1.46686">
        <ele>14.1</ele>
        <time>2020-06-12T03:40:17Z</time>
      </trkpt>
      <trkpt lat="48.99575" lon="-1.46693">
        <ele>14.1</ele>
        <time>2020-06-12T03:40:18Z</time>
      </trkpt>
      <trkpt lat="48.99577" lon="-1.46699">
        <ele>14.1</ele>
        <time>2020-06-12T03:40:19Z</time>
      </trkpt>
      <trkpt lat="48.99579" lon="-1.46704">
        <ele>14.1</ele>
        <time>2020-06-12T03:40:20Z</time>
      </trkpt>
      <trkpt lat="48.99581" lon="-1.46711">
        <ele>14.1</ele>
        <time>2020-06-12T03:40:21Z</time>
      </trkpt>
      <trkpt lat="48.99582" lon="-1.46718">
        <ele>14.1</ele>
        <time>2020-06-12T03:40:22Z</time>
      </trkpt>
      <trkpt lat="48.99584" lon="-1.46725">
        <ele>14.1</ele>
        <time>2020-06-12T03:40:23Z</time>
      </trkpt>
      <trkpt lat="48.99586" lon="-1.46732">
        <ele>14.1</ele>
        <time>2020-06-12T03:40:24Z</time>
      </trkpt>
      <trkpt lat="48.99588" lon="-1.4674">
        <ele>14.1</ele>
        <time>2020-06-12T03:40:25Z</time>
      </trkpt>
      <trkpt lat="48.9959" lon="-1.46749">
        <ele>14.1</ele>
        <time>2020-06-12T03:40:26Z</time>
      </trkpt>
      <trkpt lat="48.99592" lon="-1.46759">
        <ele>14.1</ele>
        <time>2020-06-12T03:40:27Z</time>
      </trkpt>
      <trkpt lat="48.99593" lon="-1.46767">
        <ele>14.1</ele>
        <time>2020-06-12T03:40:28Z</time>
      </trkpt>
      <trkpt lat="48.99595" lon="-1.46774">
        <ele>14.1</ele>
        <time>2020-06-12T03:40:29Z</time>
      </trkpt>
      <trkpt lat="48.99597" lon="-1.46781">
        <ele>14.1</ele>
        <time>2020-06-12T03:40:30Z</time>
      </trkpt>
      <trkpt lat="48.99599" lon="-1.46788">
        <ele>14.1</ele>
        <time>2020-06-12T03:40:31Z</time>
      </trkpt>
      <trkpt lat="48.99602" lon="-1.46796">
        <ele>14.1</ele>
        <time>2020-06-12T03:40:32Z</time>
      </trkpt>
      <trkpt lat="48.99604" lon="-1.46804">
        <ele>14.1</ele>
        <time>2020-06-12T03:40:33Z</time>
      </trkpt>
      <trkpt lat="48.99606" lon="-1.4681">
        <ele>14.1</ele>
        <time>2020-06-12T03:40:34Z</time>
      </trkpt>
      <trkpt lat="48.99608" lon="-1.46816">
        <ele>14.1</ele>
        <time>2020-06-12T03:40:35Z</time>
      </trkpt>
      <trkpt lat="48.9961" lon="-1.46824">
        <ele>14.1</ele>
        <time>2020-06-12T03:40:36Z</time>
      </trkpt>
      <trkpt lat="48.99612" lon="-1.46831">
        <ele>14.1</ele>
        <time>2020-06-12T03:40:37Z</time>
      </trkpt>
      <trkpt lat="48.99614" lon="-1.46839">
        <ele>14.1</ele>
        <time>2020-06-12T03:40:38Z</time>
      </trkpt>
      <trkpt lat="48.99616" lon="-1.46847">
        <ele>14.1</ele>
        <time>2020-06-12T03:40:39Z</time>
      </trkpt>
      <trkpt lat="48.99618" lon="-1.46854">
        <ele>14.1</ele>
        <time>2020-06-12T03:40:40Z</time>
      </trkpt>
      <trkpt lat="48.99621" lon="-1.46861">
        <ele>14.1</ele>
        <time>2020-06-12T03:40:41Z</time>
      </trkpt>
      <trkpt lat="48.99623" lon="-1.46868">
        <ele>14.1</ele>
        <time>2020-06-12T03:40:42Z</time>
      </trkpt>
      <trkpt lat="48.99625" lon="-1.46875">
        <ele>14.1</ele>
        <time>2020-06-12T03:40:43Z</time>
      </trkpt>
      <trkpt lat="48.99627" lon="-1.46883">
        <ele>14.2</ele>
        <time>2020-06-12T03:40:44Z</time>
      </trkpt>
      <trkpt lat="48.9963" lon="-1.46891">
        <ele>14.2</ele>
        <time>2020-06-12T03:40:45Z</time>
      </trkpt>
      <trkpt lat="48.99632" lon="-1.46899">
        <ele>14.2</ele>
        <time>2020-06-12T03:40:46Z</time>
      </trkpt>
      <trkpt lat="48.99633" lon="-1.46907">
        <ele>14.3</ele>
        <time>2020-06-12T03:40:47Z</time>
      </trkpt>
      <trkpt lat="48.99635" lon="-1.46915">
        <ele>14.3</ele>
        <time>2020-06-12T03:40:48Z</time>
      </trkpt>
      <trkpt lat="48.99637" lon="-1.46923">
        <ele>14.3</ele>
        <time>2020-06-12T03:40:49Z</time>
      </trkpt>
      <trkpt lat="48.9964" lon="-1.46931">
        <ele>14.3</ele>
        <time>2020-06-12T03:40:50Z</time>
      </trkpt>
      <trkpt lat="48.99641" lon="-1.46938">
        <ele>14.3</ele>
        <time>2020-06-12T03:40:51Z</time>
      </trkpt>
      <trkpt lat="48.99644" lon="-1.46946">
        <ele>14.4</ele>
        <time>2020-06-12T03:40:52Z</time>
      </trkpt>
      <trkpt lat="48.99646" lon="-1.46953">
        <ele>14.4</ele>
        <time>2020-06-12T03:40:53Z</time>
      </trkpt>
      <trkpt lat="48.99648" lon="-1.4696">
        <ele>14.4</ele>
        <time>2020-06-12T03:40:54Z</time>
      </trkpt>
      <trkpt lat="48.99651" lon="-1.46966">
        <ele>14.4</ele>
        <time>2020-06-12T03:40:55Z</time>
      </trkpt>
      <trkpt lat="48.99653" lon="-1.46972">
        <ele>14.5</ele>
        <time>2020-06-12T03:40:56Z</time>
      </trkpt>
      <trkpt lat="48.99655" lon="-1.46979">
        <ele>14.5</ele>
        <time>2020-06-12T03:40:57Z</time>
      </trkpt>
      <trkpt lat="48.99657" lon="-1.46986">
        <ele>14.5</ele>
        <time>2020-06-12T03:40:58Z</time>
      </trkpt>
      <trkpt lat="48.99659" lon="-1.46992">
        <ele>14.6</ele>
        <time>2020-06-12T03:40:59Z</time>
      </trkpt>
      <trkpt lat="48.99661" lon="-1.47">
        <ele>14.6</ele>
        <time>2020-06-12T03:41:00Z</time>
      </trkpt>
      <trkpt lat="48.99663" lon="-1.47007">
        <ele>14.7</ele>
        <time>2020-06-12T03:41:01Z</time>
      </trkpt>
      <trkpt lat="48.99664" lon="-1.47013">
        <ele>14.7</ele>
        <time>2020-06-12T03:41:02Z</time>
      </trkpt>
      <trkpt lat="48.99666" lon="-1.47019">
        <ele>14.8</ele>
        <time>2020-06-12T03:41:03Z</time>
      </trkpt>
      <trkpt lat="48.99667" lon="-1.47027">
        <ele>14.8</ele>
        <time>2020-06-12T03:41:04Z</time>
      </trkpt>
      <trkpt lat="48.99668" lon="-1.47034">
        <ele>14.9</ele>
        <time>2020-06-12T03:41:05Z</time>
      </trkpt>
      <trkpt lat="48.99669" lon="-1.47041">
        <ele>14.9</ele>
        <time>2020-06-12T03:41:06Z</time>
      </trkpt>
      <trkpt lat="48.99669" lon="-1.47048">
        <ele>15</ele>
        <time>2020-06-12T03:41:07Z</time>
      </trkpt>
      <trkpt lat="48.9967" lon="-1.47056">
        <ele>15</ele>
        <time>2020-06-12T03:41:08Z</time>
      </trkpt>
      <trkpt lat="48.99671" lon="-1.47062">
        <ele>15.1</ele>
        <time>2020-06-12T03:41:09Z</time>
      </trkpt>
      <trkpt lat="48.99672" lon="-1.47069">
        <ele>15.2</ele>
        <time>2020-06-12T03:41:10Z</time>
      </trkpt>
      <trkpt lat="48.99673" lon="-1.47076">
        <ele>15.3</ele>
        <time>2020-06-12T03:41:11Z</time>
      </trkpt>
      <trkpt lat="48.99674" lon="-1.47083">
        <ele>15.3</ele>
        <time>2020-06-12T03:41:12Z</time>
      </trkpt>
      <trkpt lat="48.99674" lon="-1.4709">
        <ele>15.4</ele>
        <time>2020-06-12T03:41:13Z</time>
      </trkpt>
      <trkpt lat="48.99674" lon="-1.47097">
        <ele>15.5</ele>
        <time>2020-06-12T03:41:14Z</time>
      </trkpt>
      <trkpt lat="48.99675" lon="-1.47104">
        <ele>15.6</ele>
        <time>2020-06-12T03:41:15Z</time>
      </trkpt>
      <trkpt lat="48.99675" lon="-1.47112">
        <ele>15.7</ele>
        <time>2020-06-12T03:41:16Z</time>
      </trkpt>
      <trkpt lat="48.99676" lon="-1.47119">
        <ele>15.8</ele>
        <time>2020-06-12T03:41:17Z</time>
      </trkpt>
      <trkpt lat="48.99676" lon="-1.47127">
        <ele>15.9</ele>
        <time>2020-06-12T03:41:18Z</time>
      </trkpt>
      <trkpt lat="48.99676" lon="-1.47134">
        <ele>16</ele>
        <time>2020-06-12T03:41:19Z</time>
      </trkpt>
      <trkpt lat="48.99677" lon="-1.47141">
        <ele>16</ele>
        <time>2020-06-12T03:41:20Z</time>
      </trkpt>
      <trkpt lat="48.99677" lon="-1.47148">
        <ele>16.1</ele>
        <time>2020-06-12T03:41:21Z</time>
      </trkpt>
      <trkpt lat="48.99676" lon="-1.47155">
        <ele>16.2</ele>
        <time>2020-06-12T03:41:22Z</time>
      </trkpt>
      <trkpt lat="48.99676" lon="-1.47161">
        <ele>16.2</ele>
        <time>2020-06-12T03:41:23Z</time>
      </trkpt>
      <trkpt lat="48.99677" lon="-1.47168">
        <ele>16.3</ele>
        <time>2020-06-12T03:41:24Z</time>
      </trkpt>
      <trkpt lat="48.99676" lon="-1.47175">
        <ele>16.4</ele>
        <time>2020-06-12T03:41:25Z</time>
      </trkpt>
      <trkpt lat="48.99675" lon="-1.47181">
        <ele>16.4</ele>
        <time>2020-06-12T03:41:26Z</time>
      </trkpt>
      <trkpt lat="48.99675" lon="-1.47187">
        <ele>16.5</ele>
        <time>2020-06-12T03:41:27Z</time>
      </trkpt>
      <trkpt lat="48.99674" lon="-1.47193">
        <ele>16.5</ele>
        <time>2020-06-12T03:41:28Z</time>
      </trkpt>
      <trkpt lat="48.99675" lon="-1.47199">
        <ele>16.5</ele>
        <time>2020-06-12T03:41:29Z</time>
      </trkpt>
      <trkpt lat="48.99675" lon="-1.47205">
        <ele>16.5</ele>
        <time>2020-06-12T03:41:30Z</time>
      </trkpt>
      <trkpt lat="48.99677" lon="-1.47213">
        <ele>16.4</ele>
        <time>2020-06-12T03:41:31Z</time>
      </trkpt>
      <trkpt lat="48.99679" lon="-1.47219">
        <ele>16.2</ele>
        <time>2020-06-12T03:41:32Z</time>
      </trkpt>
      <trkpt lat="48.99681" lon="-1.47226">
        <ele>16</ele>
        <time>2020-06-12T03:41:33Z</time>
      </trkpt>
      <trkpt lat="48.99684" lon="-1.47233">
        <ele>15.9</ele>
        <time>2020-06-12T03:41:34Z</time>
      </trkpt>
      <trkpt lat="48.99686" lon="-1.4724">
        <ele>15.7</ele>
        <time>2020-06-12T03:41:35Z</time>
      </trkpt>
      <trkpt lat="48.9969" lon="-1.47247">
        <ele>15.6</ele>
        <time>2020-06-12T03:41:36Z</time>
      </trkpt>
      <trkpt lat="48.99693" lon="-1.47254">
        <ele>15.5</ele>
        <time>2020-06-12T03:41:37Z</time>
      </trkpt>
      <trkpt lat="48.99696" lon="-1.47261">
        <ele>15.5</ele>
        <time>2020-06-12T03:41:38Z</time>
      </trkpt>
      <trkpt lat="48.997" lon="-1.47267">
        <ele>15.4</ele>
        <time>2020-06-12T03:41:39Z</time>
      </trkpt>
      <trkpt lat="48.99703" lon="-1.47274">
        <ele>15.3</ele>
        <time>2020-06-12T03:41:40Z</time>
      </trkpt>
      <trkpt lat="48.99707" lon="-1.47281">
        <ele>15.2</ele>
        <time>2020-06-12T03:41:41Z</time>
      </trkpt>
      <trkpt lat="48.9971" lon="-1.47288">
        <ele>15.1</ele>
        <time>2020-06-12T03:41:42Z</time>
      </trkpt>
      <trkpt lat="48.99714" lon="-1.47295">
        <ele>15</ele>
        <time>2020-06-12T03:41:43Z</time>
      </trkpt>
      <trkpt lat="48.99718" lon="-1.47301">
        <ele>14.9</ele>
        <time>2020-06-12T03:41:44Z</time>
      </trkpt>
      <trkpt lat="48.99722" lon="-1.47309">
        <ele>14.8</ele>
        <time>2020-06-12T03:41:45Z</time>
      </trkpt>
      <trkpt lat="48.99726" lon="-1.47315">
        <ele>14.7</ele>
        <time>2020-06-12T03:41:46Z</time>
      </trkpt>
      <trkpt lat="48.99729" lon="-1.47323">
        <ele>14.6</ele>
        <time>2020-06-12T03:41:47Z</time>
      </trkpt>
      <trkpt lat="48.99733" lon="-1.47329">
        <ele>14.5</ele>
        <time>2020-06-12T03:41:48Z</time>
      </trkpt>
      <trkpt lat="48.99736" lon="-1.47336">
        <ele>14.4</ele>
        <time>2020-06-12T03:41:49Z</time>
      </trkpt>
      <trkpt lat="48.9974" lon="-1.47343">
        <ele>14.3</ele>
        <time>2020-06-12T03:41:50Z</time>
      </trkpt>
      <trkpt lat="48.99743" lon="-1.47349">
        <ele>14.1</ele>
        <time>2020-06-12T03:41:51Z</time>
      </trkpt>
      <trkpt lat="48.99747" lon="-1.47355">
        <ele>14</ele>
        <time>2020-06-12T03:41:52Z</time>
      </trkpt>
      <trkpt lat="48.99751" lon="-1.47361">
        <ele>13.9</ele>
        <time>2020-06-12T03:41:53Z</time>
      </trkpt>
      <trkpt lat="48.99755" lon="-1.47367">
        <ele>13.9</ele>
        <time>2020-06-12T03:41:54Z</time>
      </trkpt>
      <trkpt lat="48.99759" lon="-1.47374">
        <ele>13.8</ele>
        <time>2020-06-12T03:41:55Z</time>
      </trkpt>
      <trkpt lat="48.99763" lon="-1.4738">
        <ele>13.7</ele>
        <time>2020-06-12T03:41:56Z</time>
      </trkpt>
      <trkpt lat="48.99766" lon="-1.47387">
        <ele>13.7</ele>
        <time>2020-06-12T03:41:57Z</time>
      </trkpt>
      <trkpt lat="48.9977" lon="-1.47394">
        <ele>13.6</ele>
        <time>2020-06-12T03:41:58Z</time>
      </trkpt>
      <trkpt lat="48.99773" lon="-1.47401">
        <ele>13.6</ele>
        <time>2020-06-12T03:41:59Z</time>
      </trkpt>
      <trkpt lat="48.99777" lon="-1.47408">
        <ele>13.5</ele>
        <time>2020-06-12T03:42:00Z</time>
      </trkpt>
      <trkpt lat="48.9978" lon="-1.47414">
        <ele>13.4</ele>
        <time>2020-06-12T03:42:01Z</time>
      </trkpt>
      <trkpt lat="48.99783" lon="-1.47421">
        <ele>13.3</ele>
        <time>2020-06-12T03:42:02Z</time>
      </trkpt>
      <trkpt lat="48.99787" lon="-1.47428">
        <ele>13.1</ele>
        <time>2020-06-12T03:42:03Z</time>
      </trkpt>
      <trkpt lat="48.9979" lon="-1.47435">
        <ele>13.1</ele>
        <time>2020-06-12T03:42:04Z</time>
      </trkpt>
      <trkpt lat="48.99793" lon="-1.47442">
        <ele>13</ele>
        <time>2020-06-12T03:42:05Z</time>
      </trkpt>
      <trkpt lat="48.99796" lon="-1.4745">
        <ele>12.9</ele>
        <time>2020-06-12T03:42:06Z</time>
      </trkpt>
      <trkpt lat="48.99797" lon="-1.47458">
        <ele>12.9</ele>
        <time>2020-06-12T03:42:07Z</time>
      </trkpt>
      <trkpt lat="48.99799" lon="-1.47466">
        <ele>12.9</ele>
        <time>2020-06-12T03:42:08Z</time>
      </trkpt>
      <trkpt lat="48.99801" lon="-1.47473">
        <ele>12.8</ele>
        <time>2020-06-12T03:42:09Z</time>
      </trkpt>
      <trkpt lat="48.99803" lon="-1.47481">
        <ele>12.8</ele>
        <time>2020-06-12T03:42:10Z</time>
      </trkpt>
      <trkpt lat="48.99805" lon="-1.47488">
        <ele>12.7</ele>
        <time>2020-06-12T03:42:11Z</time>
      </trkpt>
      <trkpt lat="48.99806" lon="-1.47496">
        <ele>12.7</ele>
        <time>2020-06-12T03:42:12Z</time>
      </trkpt>
      <trkpt lat="48.99808" lon="-1.47504">
        <ele>12.7</ele>
        <time>2020-06-12T03:42:13Z</time>
      </trkpt>
      <trkpt lat="48.9981" lon="-1.47511">
        <ele>12.6</ele>
        <time>2020-06-12T03:42:14Z</time>
      </trkpt>
      <trkpt lat="48.99811" lon="-1.47519">
        <ele>12.6</ele>
        <time>2020-06-12T03:42:15Z</time>
      </trkpt>
      <trkpt lat="48.99813" lon="-1.47526">
        <ele>12.6</ele>
        <time>2020-06-12T03:42:16Z</time>
      </trkpt>
      <trkpt lat="48.99815" lon="-1.47533">
        <ele>12.6</ele>
        <time>2020-06-12T03:42:17Z</time>
      </trkpt>
      <trkpt lat="48.99816" lon="-1.4754">
        <ele>12.6</ele>
        <time>2020-06-12T03:42:18Z</time>
      </trkpt>
      <trkpt lat="48.99817" lon="-1.47548">
        <ele>12.5</ele>
        <time>2020-06-12T03:42:19Z</time>
      </trkpt>
      <trkpt lat="48.99818" lon="-1.47556">
        <ele>12.5</ele>
        <time>2020-06-12T03:42:20Z</time>
      </trkpt>
      <trkpt lat="48.99819" lon="-1.47565">
        <ele>12.4</ele>
        <time>2020-06-12T03:42:21Z</time>
      </trkpt>
      <trkpt lat="48.99821" lon="-1.47573">
        <ele>12.3</ele>
        <time>2020-06-12T03:42:22Z</time>
      </trkpt>
      <trkpt lat="48.99823" lon="-1.47581">
        <ele>12.2</ele>
        <time>2020-06-12T03:42:23Z</time>
      </trkpt>
      <trkpt lat="48.99824" lon="-1.47589">
        <ele>12.2</ele>
        <time>2020-06-12T03:42:24Z</time>
      </trkpt>
      <trkpt lat="48.99826" lon="-1.47598">
        <ele>12.1</ele>
        <time>2020-06-12T03:42:25Z</time>
      </trkpt>
      <trkpt lat="48.99827" lon="-1.47606">
        <ele>12</ele>
        <time>2020-06-12T03:42:26Z</time>
      </trkpt>
      <trkpt lat="48.99829" lon="-1.47614">
        <ele>11.9</ele>
        <time>2020-06-12T03:42:27Z</time>
      </trkpt>
      <trkpt lat="48.9983" lon="-1.47623">
        <ele>11.8</ele>
        <time>2020-06-12T03:42:28Z</time>
      </trkpt>
      <trkpt lat="48.99832" lon="-1.4763">
        <ele>11.7</ele>
        <time>2020-06-12T03:42:29Z</time>
      </trkpt>
      <trkpt lat="48.99834" lon="-1.47638">
        <ele>11.6</ele>
        <time>2020-06-12T03:42:30Z</time>
      </trkpt>
      <trkpt lat="48.99836" lon="-1.47645">
        <ele>11.5</ele>
        <time>2020-06-12T03:42:31Z</time>
      </trkpt>
      <trkpt lat="48.99837" lon="-1.47652">
        <ele>11.5</ele>
        <time>2020-06-12T03:42:32Z</time>
      </trkpt>
      <trkpt lat="48.99839" lon="-1.4766">
        <ele>11.4</ele>
        <time>2020-06-12T03:42:33Z</time>
      </trkpt>
      <trkpt lat="48.99841" lon="-1.47668">
        <ele>11.3</ele>
        <time>2020-06-12T03:42:34Z</time>
      </trkpt>
      <trkpt lat="48.99843" lon="-1.47676">
        <ele>11.3</ele>
        <time>2020-06-12T03:42:35Z</time>
      </trkpt>
      <trkpt lat="48.99846" lon="-1.47685">
        <ele>11.3</ele>
        <time>2020-06-12T03:42:36Z</time>
      </trkpt>
      <trkpt lat="48.99848" lon="-1.47694">
        <ele>11.2</ele>
        <time>2020-06-12T03:42:37Z</time>
      </trkpt>
      <trkpt lat="48.9985" lon="-1.47703">
        <ele>11.1</ele>
        <time>2020-06-12T03:42:38Z</time>
      </trkpt>
      <trkpt lat="48.99853" lon="-1.47711">
        <ele>11.2</ele>
        <time>2020-06-12T03:42:39Z</time>
      </trkpt>
      <trkpt lat="48.99855" lon="-1.47719">
        <ele>11.2</ele>
        <time>2020-06-12T03:42:40Z</time>
      </trkpt>
      <trkpt lat="48.99858" lon="-1.47727">
        <ele>11.2</ele>
        <time>2020-06-12T03:42:41Z</time>
      </trkpt>
      <trkpt lat="48.99861" lon="-1.47736">
        <ele>11.1</ele>
        <time>2020-06-12T03:42:42Z</time>
      </trkpt>
      <trkpt lat="48.99863" lon="-1.47743">
        <ele>11.1</ele>
        <time>2020-06-12T03:42:43Z</time>
      </trkpt>
      <trkpt lat="48.99867" lon="-1.4775">
        <ele>11.1</ele>
        <time>2020-06-12T03:42:44Z</time>
      </trkpt>
      <trkpt lat="48.9987" lon="-1.47757">
        <ele>11</ele>
        <time>2020-06-12T03:42:45Z</time>
      </trkpt>
      <trkpt lat="48.99873" lon="-1.47765">
        <ele>11</ele>
        <time>2020-06-12T03:42:46Z</time>
      </trkpt>
      <trkpt lat="48.99876" lon="-1.47773">
        <ele>10.9</ele>
        <time>2020-06-12T03:42:47Z</time>
      </trkpt>
      <trkpt lat="48.9988" lon="-1.47781">
        <ele>10.9</ele>
        <time>2020-06-12T03:42:48Z</time>
      </trkpt>
      <trkpt lat="48.99884" lon="-1.47789">
        <ele>10.7</ele>
        <time>2020-06-12T03:42:49Z</time>
      </trkpt>
      <trkpt lat="48.99888" lon="-1.47797">
        <ele>10.6</ele>
        <time>2020-06-12T03:42:50Z</time>
      </trkpt>
      <trkpt lat="48.99892" lon="-1.47804">
        <ele>10.5</ele>
        <time>2020-06-12T03:42:51Z</time>
      </trkpt>
      <trkpt lat="48.99895" lon="-1.47811">
        <ele>10.5</ele>
        <time>2020-06-12T03:42:52Z</time>
      </trkpt>
      <trkpt lat="48.99899" lon="-1.47819">
        <ele>10.5</ele>
        <time>2020-06-12T03:42:53Z</time>
      </trkpt>
      <trkpt lat="48.99903" lon="-1.47828">
        <ele>10.6</ele>
        <time>2020-06-12T03:42:54Z</time>
      </trkpt>
      <trkpt lat="48.99907" lon="-1.47837">
        <ele>10.7</ele>
        <time>2020-06-12T03:42:55Z</time>
      </trkpt>
      <trkpt lat="48.9991" lon="-1.47845">
        <ele>10.8</ele>
        <time>2020-06-12T03:42:56Z</time>
      </trkpt>
      <trkpt lat="48.99913" lon="-1.47852">
        <ele>10.9</ele>
        <time>2020-06-12T03:42:57Z</time>
      </trkpt>
      <trkpt lat="48.99916" lon="-1.47859">
        <ele>11</ele>
        <time>2020-06-12T03:42:58Z</time>
      </trkpt>
      <trkpt lat="48.9992" lon="-1.47865">
        <ele>11</ele>
        <time>2020-06-12T03:42:59Z</time>
      </trkpt>
      <trkpt lat="48.99922" lon="-1.47871">
        <ele>11.1</ele>
        <time>2020-06-12T03:43:00Z</time>
      </trkpt>
      <trkpt lat="48.99925" lon="-1.47876">
        <ele>11.2</ele>
        <time>2020-06-12T03:43:01Z</time>
      </trkpt>
      <trkpt lat="48.99928" lon="-1.47881">
        <ele>11.3</ele>
        <time>2020-06-12T03:43:02Z</time>
      </trkpt>
      <trkpt lat="48.99931" lon="-1.47887">
        <ele>11.4</ele>
        <time>2020-06-12T03:43:03Z</time>
      </trkpt>
      <trkpt lat="48.99934" lon="-1.47894">
        <ele>11.5</ele>
        <time>2020-06-12T03:43:04Z</time>
      </trkpt>
      <trkpt lat="48.99937" lon="-1.47899">
        <ele>11.7</ele>
        <time>2020-06-12T03:43:05Z</time>
      </trkpt>
      <trkpt lat="48.9994" lon="-1.47905">
        <ele>11.8</ele>
        <time>2020-06-12T03:43:06Z</time>
      </trkpt>
      <trkpt lat="48.99943" lon="-1.47911">
        <ele>11.9</ele>
        <time>2020-06-12T03:43:07Z</time>
      </trkpt>
      <trkpt lat="48.99945" lon="-1.47916">
        <ele>12.1</ele>
        <time>2020-06-12T03:43:08Z</time>
      </trkpt>
      <trkpt lat="48.99948" lon="-1.47921">
        <ele>12.3</ele>
        <time>2020-06-12T03:43:09Z</time>
      </trkpt>
      <trkpt lat="48.9995" lon="-1.47925">
        <ele>12.4</ele>
        <time>2020-06-12T03:43:10Z</time>
      </trkpt>
      <trkpt lat="48.99953" lon="-1.47929">
        <ele>12.6</ele>
        <time>2020-06-12T03:43:11Z</time>
      </trkpt>
      <trkpt lat="48.99956" lon="-1.47933">
        <ele>12.6</ele>
        <time>2020-06-12T03:43:12Z</time>
      </trkpt>
      <trkpt lat="48.9996" lon="-1.47937">
        <ele>12.6</ele>
        <time>2020-06-12T03:43:13Z</time>
      </trkpt>
      <trkpt lat="48.99965" lon="-1.47941">
        <ele>12.7</ele>
        <time>2020-06-12T03:43:14Z</time>
      </trkpt>
      <trkpt lat="48.9997" lon="-1.47944">
        <ele>12.7</ele>
        <time>2020-06-12T03:43:15Z</time>
      </trkpt>
      <trkpt lat="48.99973" lon="-1.47947">
        <ele>12.7</ele>
        <time>2020-06-12T03:43:16Z</time>
      </trkpt>
      <trkpt lat="48.99977" lon="-1.47952">
        <ele>12.8</ele>
        <time>2020-06-12T03:43:17Z</time>
      </trkpt>
      <trkpt lat="48.99981" lon="-1.47956">
        <ele>12.8</ele>
        <time>2020-06-12T03:43:18Z</time>
      </trkpt>
      <trkpt lat="48.99985" lon="-1.4796">
        <ele>12.8</ele>
        <time>2020-06-12T03:43:19Z</time>
      </trkpt>
      <trkpt lat="48.99989" lon="-1.47964">
        <ele>12.9</ele>
        <time>2020-06-12T03:43:20Z</time>
      </trkpt>
      <trkpt lat="48.99992" lon="-1.47968">
        <ele>12.9</ele>
        <time>2020-06-12T03:43:21Z</time>
      </trkpt>
      <trkpt lat="48.99994" lon="-1.47972">
        <ele>13</ele>
        <time>2020-06-12T03:43:22Z</time>
      </trkpt>
      <trkpt lat="48.99998" lon="-1.47976">
        <ele>13</ele>
        <time>2020-06-12T03:43:23Z</time>
      </trkpt>
      <trkpt lat="49.00001" lon="-1.47981">
        <ele>13.1</ele>
        <time>2020-06-12T03:43:24Z</time>
      </trkpt>
      <trkpt lat="49.00006" lon="-1.47984">
        <ele>13.1</ele>
        <time>2020-06-12T03:43:25Z</time>
      </trkpt>
      <trkpt lat="49.00009" lon="-1.47988">
        <ele>13.2</ele>
        <time>2020-06-12T03:43:26Z</time>
      </trkpt>
      <trkpt lat="49.00013" lon="-1.47993">
        <ele>13.2</ele>
        <time>2020-06-12T03:43:27Z</time>
      </trkpt>
      <trkpt lat="49.00016" lon="-1.47997">
        <ele>13.2</ele>
        <time>2020-06-12T03:43:28Z</time>
      </trkpt>
      <trkpt lat="49.0002" lon="-1.48">
        <ele>13.3</ele>
        <time>2020-06-12T03:43:29Z</time>
      </trkpt>
      <trkpt lat="49.00024" lon="-1.48004">
        <ele>13.3</ele>
        <time>2020-06-12T03:43:30Z</time>
      </trkpt>
      <trkpt lat="49.00026" lon="-1.48007">
        <ele>13.3</ele>
        <time>2020-06-12T03:43:31Z</time>
      </trkpt>
      <trkpt lat="49.00031" lon="-1.48011">
        <ele>13.3</ele>
        <time>2020-06-12T03:43:32Z</time>
      </trkpt>
      <trkpt lat="49.00034" lon="-1.48015">
        <ele>13.4</ele>
        <time>2020-06-12T03:43:33Z</time>
      </trkpt>
      <trkpt lat="49.00038" lon="-1.48018">
        <ele>13.4</ele>
        <time>2020-06-12T03:43:34Z</time>
      </trkpt>
      <trkpt lat="49.00042" lon="-1.48022">
        <ele>13.5</ele>
        <time>2020-06-12T03:43:35Z</time>
      </trkpt>
      <trkpt lat="49.00045" lon="-1.48026">
        <ele>13.5</ele>
        <time>2020-06-12T03:43:36Z</time>
      </trkpt>
      <trkpt lat="49.00048" lon="-1.48029">
        <ele>13.5</ele>
        <time>2020-06-12T03:43:37Z</time>
      </trkpt>
      <trkpt lat="49.00052" lon="-1.48032">
        <ele>13.4</ele>
        <time>2020-06-12T03:43:38Z</time>
      </trkpt>
      <trkpt lat="49.00056" lon="-1.48035">
        <ele>13.3</ele>
        <time>2020-06-12T03:43:39Z</time>
      </trkpt>
      <trkpt lat="49.00061" lon="-1.48036">
        <ele>13.3</ele>
        <time>2020-06-12T03:43:40Z</time>
      </trkpt>
      <trkpt lat="49.00065" lon="-1.48039">
        <ele>13.2</ele>
        <time>2020-06-12T03:43:41Z</time>
      </trkpt>
      <trkpt lat="49.0007" lon="-1.48039">
        <ele>13.1</ele>
        <time>2020-06-12T03:43:42Z</time>
      </trkpt>
      <trkpt lat="49.00075" lon="-1.4804">
        <ele>13</ele>
        <time>2020-06-12T03:43:43Z</time>
      </trkpt>
      <trkpt lat="49.0008" lon="-1.4804">
        <ele>12.9</ele>
        <time>2020-06-12T03:43:44Z</time>
      </trkpt>
      <trkpt lat="49.00085" lon="-1.4804">
        <ele>12.8</ele>
        <time>2020-06-12T03:43:45Z</time>
      </trkpt>
      <trkpt lat="49.0009" lon="-1.4804">
        <ele>12.8</ele>
        <time>2020-06-12T03:43:46Z</time>
      </trkpt>
      <trkpt lat="49.00096" lon="-1.4804">
        <ele>12.7</ele>
        <time>2020-06-12T03:43:47Z</time>
      </trkpt>
      <trkpt lat="49.00101" lon="-1.4804">
        <ele>12.6</ele>
        <time>2020-06-12T03:43:48Z</time>
      </trkpt>
      <trkpt lat="49.00106" lon="-1.4804">
        <ele>12.5</ele>
        <time>2020-06-12T03:43:49Z</time>
      </trkpt>
      <trkpt lat="49.00111" lon="-1.48039">
        <ele>12.5</ele>
        <time>2020-06-12T03:43:50Z</time>
      </trkpt>
      <trkpt lat="49.00115" lon="-1.4804">
        <ele>12.4</ele>
        <time>2020-06-12T03:43:51Z</time>
      </trkpt>
      <trkpt lat="49.0012" lon="-1.4804">
        <ele>12.3</ele>
        <time>2020-06-12T03:43:52Z</time>
      </trkpt>
      <trkpt lat="49.00124" lon="-1.4804">
        <ele>12.3</ele>
        <time>2020-06-12T03:43:53Z</time>
      </trkpt>
      <trkpt lat="49.00129" lon="-1.4804">
        <ele>12.2</ele>
        <time>2020-06-12T03:43:54Z</time>
      </trkpt>
      <trkpt lat="49.00133" lon="-1.48041">
        <ele>12.1</ele>
        <time>2020-06-12T03:43:55Z</time>
      </trkpt>
      <trkpt lat="49.00138" lon="-1.4804">
        <ele>12.1</ele>
        <time>2020-06-12T03:43:56Z</time>
      </trkpt>
      <trkpt lat="49.00143" lon="-1.48041">
        <ele>12</ele>
        <time>2020-06-12T03:43:57Z</time>
      </trkpt>
      <trkpt lat="49.00148" lon="-1.48042">
        <ele>12</ele>
        <time>2020-06-12T03:43:58Z</time>
      </trkpt>
      <trkpt lat="49.00154" lon="-1.48043">
        <ele>12</ele>
        <time>2020-06-12T03:43:59Z</time>
      </trkpt>
      <trkpt lat="49.0016" lon="-1.48044">
        <ele>12</ele>
        <time>2020-06-12T03:44:00Z</time>
      </trkpt>
      <trkpt lat="49.00166" lon="-1.48045">
        <ele>12</ele>
        <time>2020-06-12T03:44:01Z</time>
      </trkpt>
      <trkpt lat="49.00171" lon="-1.48048">
        <ele>12</ele>
        <time>2020-06-12T03:44:02Z</time>
      </trkpt>
      <trkpt lat="49.00176" lon="-1.48053">
        <ele>11.9</ele>
        <time>2020-06-12T03:44:03Z</time>
      </trkpt>
      <trkpt lat="49.0018" lon="-1.48058">
        <ele>11.9</ele>
        <time>2020-06-12T03:44:04Z</time>
      </trkpt>
      <trkpt lat="49.00185" lon="-1.48064">
        <ele>11.8</ele>
        <time>2020-06-12T03:44:05Z</time>
      </trkpt>
      <trkpt lat="49.00189" lon="-1.48071">
        <ele>11.7</ele>
        <time>2020-06-12T03:44:06Z</time>
      </trkpt>
      <trkpt lat="49.00193" lon="-1.48075">
        <ele>11.7</ele>
        <time>2020-06-12T03:44:07Z</time>
      </trkpt>
      <trkpt lat="49.00197" lon="-1.48081">
        <ele>11.6</ele>
        <time>2020-06-12T03:44:08Z</time>
      </trkpt>
      <trkpt lat="49.00199" lon="-1.48088">
        <ele>11.6</ele>
        <time>2020-06-12T03:44:09Z</time>
      </trkpt>
      <trkpt lat="49.00202" lon="-1.48093">
        <ele>11.6</ele>
        <time>2020-06-12T03:44:10Z</time>
      </trkpt>
      <trkpt lat="49.00204" lon="-1.48099">
        <ele>11.6</ele>
        <time>2020-06-12T03:44:11Z</time>
      </trkpt>
      <trkpt lat="49.00207" lon="-1.48106">
        <ele>11.6</ele>
        <time>2020-06-12T03:44:12Z</time>
      </trkpt>
      <trkpt lat="49.0021" lon="-1.48112">
        <ele>11.6</ele>
        <time>2020-06-12T03:44:13Z</time>
      </trkpt>
      <trkpt lat="49.00213" lon="-1.48119">
        <ele>11.6</ele>
        <time>2020-06-12T03:44:14Z</time>
      </trkpt>
      <trkpt lat="49.00216" lon="-1.48125">
        <ele>11.7</ele>
        <time>2020-06-12T03:44:15Z</time>
      </trkpt>
      <trkpt lat="49.00219" lon="-1.4813">
        <ele>11.7</ele>
        <time>2020-06-12T03:44:16Z</time>
      </trkpt>
      <trkpt lat="49.00221" lon="-1.48136">
        <ele>11.7</ele>
        <time>2020-06-12T03:44:17Z</time>
      </trkpt>
      <trkpt lat="49.00224" lon="-1.48142">
        <ele>11.8</ele>
        <time>2020-06-12T03:44:18Z</time>
      </trkpt>
      <trkpt lat="49.00228" lon="-1.48149">
        <ele>11.9</ele>
        <time>2020-06-12T03:44:19Z</time>
      </trkpt>
      <trkpt lat="49.00232" lon="-1.48155">
        <ele>12</ele>
        <time>2020-06-12T03:44:20Z</time>
      </trkpt>
      <trkpt lat="49.00234" lon="-1.48161">
        <ele>12.1</ele>
        <time>2020-06-12T03:44:21Z</time>
      </trkpt>
      <trkpt lat="49.00237" lon="-1.48168">
        <ele>12.2</ele>
        <time>2020-06-12T03:44:22Z</time>
      </trkpt>
      <trkpt lat="49.0024" lon="-1.48174">
        <ele>12.3</ele>
        <time>2020-06-12T03:44:23Z</time>
      </trkpt>
      <trkpt lat="49.00242" lon="-1.48181">
        <ele>12.4</ele>
        <time>2020-06-12T03:44:24Z</time>
      </trkpt>
      <trkpt lat="49.00244" lon="-1.48187">
        <ele>12.5</ele>
        <time>2020-06-12T03:44:25Z</time>
      </trkpt>
      <trkpt lat="49.00246" lon="-1.48193">
        <ele>12.6</ele>
        <time>2020-06-12T03:44:26Z</time>
      </trkpt>
      <trkpt lat="49.00248" lon="-1.482">
        <ele>12.7</ele>
        <time>2020-06-12T03:44:27Z</time>
      </trkpt>
      <trkpt lat="49.00249" lon="-1.48207">
        <ele>12.8</ele>
        <time>2020-06-12T03:44:28Z</time>
      </trkpt>
      <trkpt lat="49.0025" lon="-1.48213">
        <ele>12.9</ele>
        <time>2020-06-12T03:44:29Z</time>
      </trkpt>
      <trkpt lat="49.00251" lon="-1.48221">
        <ele>13</ele>
        <time>2020-06-12T03:44:30Z</time>
      </trkpt>
      <trkpt lat="49.00251" lon="-1.48227">
        <ele>13</ele>
        <time>2020-06-12T03:44:31Z</time>
      </trkpt>
      <trkpt lat="49.00251" lon="-1.48234">
        <ele>13.1</ele>
        <time>2020-06-12T03:44:32Z</time>
      </trkpt>
      <trkpt lat="49.00252" lon="-1.48241">
        <ele>13.2</ele>
        <time>2020-06-12T03:44:33Z</time>
      </trkpt>
      <trkpt lat="49.00253" lon="-1.48247">
        <ele>13.3</ele>
        <time>2020-06-12T03:44:34Z</time>
      </trkpt>
      <trkpt lat="49.00253" lon="-1.48253">
        <ele>13.5</ele>
        <time>2020-06-12T03:44:35Z</time>
      </trkpt>
      <trkpt lat="49.00253" lon="-1.48259">
        <ele>13.6</ele>
        <time>2020-06-12T03:44:36Z</time>
      </trkpt>
      <trkpt lat="49.00254" lon="-1.48264">
        <ele>13.7</ele>
        <time>2020-06-12T03:44:37Z</time>
      </trkpt>
      <trkpt lat="49.00254" lon="-1.4827">
        <ele>13.8</ele>
        <time>2020-06-12T03:44:38Z</time>
      </trkpt>
      <trkpt lat="49.00255" lon="-1.48277">
        <ele>14</ele>
        <time>2020-06-12T03:44:39Z</time>
      </trkpt>
      <trkpt lat="49.00256" lon="-1.48283">
        <ele>14.1</ele>
        <time>2020-06-12T03:44:40Z</time>
      </trkpt>
      <trkpt lat="49.00257" lon="-1.48289">
        <ele>14.2</ele>
        <time>2020-06-12T03:44:41Z</time>
      </trkpt>
      <trkpt lat="49.00258" lon="-1.48295">
        <ele>14.4</ele>
        <time>2020-06-12T03:44:42Z</time>
      </trkpt>
      <trkpt lat="49.00258" lon="-1.48303">
        <ele>14.5</ele>
        <time>2020-06-12T03:44:43Z</time>
      </trkpt>
      <trkpt lat="49.00259" lon="-1.4831">
        <ele>14.7</ele>
        <time>2020-06-12T03:44:44Z</time>
      </trkpt>
      <trkpt lat="49.0026" lon="-1.48317">
        <ele>14.8</ele>
        <time>2020-06-12T03:44:45Z</time>
      </trkpt>
      <trkpt lat="49.00261" lon="-1.48324">
        <ele>15</ele>
        <time>2020-06-12T03:44:46Z</time>
      </trkpt>
      <trkpt lat="49.00262" lon="-1.4833">
        <ele>15.2</ele>
        <time>2020-06-12T03:44:47Z</time>
      </trkpt>
      <trkpt lat="49.00262" lon="-1.48335">
        <ele>15.4</ele>
        <time>2020-06-12T03:44:48Z</time>
      </trkpt>
      <trkpt lat="49.00263" lon="-1.48341">
        <ele>15.5</ele>
        <time>2020-06-12T03:44:49Z</time>
      </trkpt>
      <trkpt lat="49.00263" lon="-1.48345">
        <ele>15.7</ele>
        <time>2020-06-12T03:44:50Z</time>
      </trkpt>
      <trkpt lat="49.00263" lon="-1.48352">
        <ele>15.9</ele>
        <time>2020-06-12T03:44:51Z</time>
      </trkpt>
      <trkpt lat="49.00264" lon="-1.48358">
        <ele>16.1</ele>
        <time>2020-06-12T03:44:52Z</time>
      </trkpt>
      <trkpt lat="49.00265" lon="-1.48364">
        <ele>16.2</ele>
        <time>2020-06-12T03:44:53Z</time>
      </trkpt>
      <trkpt lat="49.00265" lon="-1.48369">
        <ele>16.4</ele>
        <time>2020-06-12T03:44:54Z</time>
      </trkpt>
      <trkpt lat="49.00266" lon="-1.48374">
        <ele>16.6</ele>
        <time>2020-06-12T03:44:55Z</time>
      </trkpt>
      <trkpt lat="49.00267" lon="-1.4838">
        <ele>16.7</ele>
        <time>2020-06-12T03:44:56Z</time>
      </trkpt>
      <trkpt lat="49.00268" lon="-1.48385">
        <ele>16.9</ele>
        <time>2020-06-12T03:44:57Z</time>
      </trkpt>
      <trkpt lat="49.00268" lon="-1.4839">
        <ele>17.1</ele>
        <time>2020-06-12T03:44:58Z</time>
      </trkpt>
      <trkpt lat="49.00269" lon="-1.48394">
        <ele>17.2</ele>
        <time>2020-06-12T03:44:59Z</time>
      </trkpt>
      <trkpt lat="49.0027" lon="-1.48399">
        <ele>17.4</ele>
        <time>2020-06-12T03:45:00Z</time>
      </trkpt>
      <trkpt lat="49.00271" lon="-1.48403">
        <ele>17.6</ele>
        <time>2020-06-12T03:45:01Z</time>
      </trkpt>
      <trkpt lat="49.00271" lon="-1.48408">
        <ele>17.7</ele>
        <time>2020-06-12T03:45:02Z</time>
      </trkpt>
      <trkpt lat="49.00272" lon="-1.48414">
        <ele>17.9</ele>
        <time>2020-06-12T03:45:03Z</time>
      </trkpt>
      <trkpt lat="49.00273" lon="-1.48417">
        <ele>18</ele>
        <time>2020-06-12T03:45:04Z</time>
      </trkpt>
      <trkpt lat="49.00274" lon="-1.48422">
        <ele>18.2</ele>
        <time>2020-06-12T03:45:05Z</time>
      </trkpt>
      <trkpt lat="49.00275" lon="-1.48425">
        <ele>18.3</ele>
        <time>2020-06-12T03:45:06Z</time>
      </trkpt>
      <trkpt lat="49.00275" lon="-1.48429">
        <ele>18.4</ele>
        <time>2020-06-12T03:45:07Z</time>
      </trkpt>
      <trkpt lat="49.00276" lon="-1.48435">
        <ele>18.6</ele>
        <time>2020-06-12T03:45:08Z</time>
      </trkpt>
      <trkpt lat="49.00277" lon="-1.4844">
        <ele>18.8</ele>
        <time>2020-06-12T03:45:09Z</time>
      </trkpt>
      <trkpt lat="49.00277" lon="-1.48445">
        <ele>18.9</ele>
        <time>2020-06-12T03:45:10Z</time>
      </trkpt>
      <trkpt lat="49.00278" lon="-1.48451">
        <ele>19.1</ele>
        <time>2020-06-12T03:45:11Z</time>
      </trkpt>
      <trkpt lat="49.00278" lon="-1.48457">
        <ele>19.3</ele>
        <time>2020-06-12T03:45:12Z</time>
      </trkpt>
      <trkpt lat="49.00279" lon="-1.48462">
        <ele>19.5</ele>
        <time>2020-06-12T03:45:13Z</time>
      </trkpt>
      <trkpt lat="49.0028" lon="-1.48466">
        <ele>19.6</ele>
        <time>2020-06-12T03:45:14Z</time>
      </trkpt>
      <trkpt lat="49.00281" lon="-1.48471">
        <ele>19.8</ele>
        <time>2020-06-12T03:45:15Z</time>
      </trkpt>
      <trkpt lat="49.00281" lon="-1.48476">
        <ele>20</ele>
        <time>2020-06-12T03:45:16Z</time>
      </trkpt>
      <trkpt lat="49.00281" lon="-1.48481">
        <ele>20.2</ele>
        <time>2020-06-12T03:45:17Z</time>
      </trkpt>
      <trkpt lat="49.00282" lon="-1.48488">
        <ele>20.4</ele>
        <time>2020-06-12T03:45:18Z</time>
      </trkpt>
      <trkpt lat="49.00282" lon="-1.4849">
        <ele>20.5</ele>
        <time>2020-06-12T03:45:19Z</time>
      </trkpt>
      <trkpt lat="49.00282" lon="-1.48494">
        <ele>20.6</ele>
        <time>2020-06-12T03:45:20Z</time>
      </trkpt>
      <trkpt lat="49.00283" lon="-1.48499">
        <ele>20.8</ele>
        <time>2020-06-12T03:45:21Z</time>
      </trkpt>
      <trkpt lat="49.00283" lon="-1.48505">
        <ele>21</ele>
        <time>2020-06-12T03:45:22Z</time>
      </trkpt>
      <trkpt lat="49.00284" lon="-1.48507">
        <ele>21</ele>
        <time>2020-06-12T03:45:23Z</time>
      </trkpt>
      <trkpt lat="49.00284" lon="-1.48511">
        <ele>21.2</ele>
        <time>2020-06-12T03:45:24Z</time>
      </trkpt>
      <trkpt lat="49.00285" lon="-1.48515">
        <ele>21.3</ele>
        <time>2020-06-12T03:45:25Z</time>
      </trkpt>
      <trkpt lat="49.00287" lon="-1.4852">
        <ele>21.5</ele>
        <time>2020-06-12T03:45:26Z</time>
      </trkpt>
      <trkpt lat="49.00287" lon="-1.48524">
        <ele>21.6</ele>
        <time>2020-06-12T03:45:27Z</time>
      </trkpt>
      <trkpt lat="49.00287" lon="-1.48529">
        <ele>21.8</ele>
        <time>2020-06-12T03:45:28Z</time>
      </trkpt>
      <trkpt lat="49.00288" lon="-1.48534">
        <ele>22</ele>
        <time>2020-06-12T03:45:29Z</time>
      </trkpt>
      <trkpt lat="49.00289" lon="-1.4854">
        <ele>22.2</ele>
        <time>2020-06-12T03:45:30Z</time>
      </trkpt>
      <trkpt lat="49.0029" lon="-1.48544">
        <ele>22.4</ele>
        <time>2020-06-12T03:45:31Z</time>
      </trkpt>
      <trkpt lat="49.00291" lon="-1.48549">
        <ele>22.5</ele>
        <time>2020-06-12T03:45:32Z</time>
      </trkpt>
      <trkpt lat="49.00291" lon="-1.48553">
        <ele>22.7</ele>
        <time>2020-06-12T03:45:33Z</time>
      </trkpt>
      <trkpt lat="49.00291" lon="-1.48558">
        <ele>22.9</ele>
        <time>2020-06-12T03:45:34Z</time>
      </trkpt>
      <trkpt lat="49.00292" lon="-1.48563">
        <ele>23.1</ele>
        <time>2020-06-12T03:45:35Z</time>
      </trkpt>
      <trkpt lat="49.00292" lon="-1.48566">
        <ele>23.2</ele>
        <time>2020-06-12T03:45:36Z</time>
      </trkpt>
      <trkpt lat="49.00294" lon="-1.48571">
        <ele>23.4</ele>
        <time>2020-06-12T03:45:37Z</time>
      </trkpt>
      <trkpt lat="49.00294" lon="-1.48577">
        <ele>23.6</ele>
        <time>2020-06-12T03:45:38Z</time>
      </trkpt>
      <trkpt lat="49.00294" lon="-1.48581">
        <ele>23.7</ele>
        <time>2020-06-12T03:45:39Z</time>
      </trkpt>
      <trkpt lat="49.00295" lon="-1.48587">
        <ele>24</ele>
        <time>2020-06-12T03:45:40Z</time>
      </trkpt>
      <trkpt lat="49.00296" lon="-1.48591">
        <ele>24.1</ele>
        <time>2020-06-12T03:45:41Z</time>
      </trkpt>
      <trkpt lat="49.00296" lon="-1.48596">
        <ele>24.3</ele>
        <time>2020-06-12T03:45:42Z</time>
      </trkpt>
      <trkpt lat="49.00297" lon="-1.48602">
        <ele>24.6</ele>
        <time>2020-06-12T03:45:43Z</time>
      </trkpt>
      <trkpt lat="49.00298" lon="-1.48607">
        <ele>24.8</ele>
        <time>2020-06-12T03:45:44Z</time>
      </trkpt>
      <trkpt lat="49.00299" lon="-1.48613">
        <ele>25</ele>
        <time>2020-06-12T03:45:45Z</time>
      </trkpt>
      <trkpt lat="49.00299" lon="-1.48619">
        <ele>25.2</ele>
        <time>2020-06-12T03:45:46Z</time>
      </trkpt>
      <trkpt lat="49.003" lon="-1.48625">
        <ele>25.4</ele>
        <time>2020-06-12T03:45:47Z</time>
      </trkpt>
      <trkpt lat="49.003" lon="-1.48631">
        <ele>25.5</ele>
        <time>2020-06-12T03:45:48Z</time>
      </trkpt>
      <trkpt lat="49.00301" lon="-1.48637">
        <ele>25.6</ele>
        <time>2020-06-12T03:45:49Z</time>
      </trkpt>
      <trkpt lat="49.00302" lon="-1.48643">
        <ele>25.9</ele>
        <time>2020-06-12T03:45:50Z</time>
      </trkpt>
      <trkpt lat="49.00303" lon="-1.48648">
        <ele>26.1</ele>
        <time>2020-06-12T03:45:51Z</time>
      </trkpt>
      <trkpt lat="49.00304" lon="-1.48654">
        <ele>26.3</ele>
        <time>2020-06-12T03:45:52Z</time>
      </trkpt>
      <trkpt lat="49.00305" lon="-1.4866">
        <ele>26.5</ele>
        <time>2020-06-12T03:45:53Z</time>
      </trkpt>
      <trkpt lat="49.00305" lon="-1.48665">
        <ele>26.6</ele>
        <time>2020-06-12T03:45:54Z</time>
      </trkpt>
      <trkpt lat="49.00306" lon="-1.48671">
        <ele>26.8</ele>
        <time>2020-06-12T03:45:55Z</time>
      </trkpt>
      <trkpt lat="49.00307" lon="-1.48676">
        <ele>27</ele>
        <time>2020-06-12T03:45:56Z</time>
      </trkpt>
      <trkpt lat="49.00307" lon="-1.48682">
        <ele>27.2</ele>
        <time>2020-06-12T03:45:57Z</time>
      </trkpt>
      <trkpt lat="49.00308" lon="-1.48689">
        <ele>27.4</ele>
        <time>2020-06-12T03:45:58Z</time>
      </trkpt>
      <trkpt lat="49.00309" lon="-1.48694">
        <ele>27.6</ele>
        <time>2020-06-12T03:45:59Z</time>
      </trkpt>
      <trkpt lat="49.0031" lon="-1.48701">
        <ele>27.9</ele>
        <time>2020-06-12T03:46:00Z</time>
      </trkpt>
      <trkpt lat="49.0031" lon="-1.48707">
        <ele>28.1</ele>
        <time>2020-06-12T03:46:01Z</time>
      </trkpt>
      <trkpt lat="49.00311" lon="-1.48713">
        <ele>28.3</ele>
        <time>2020-06-12T03:46:02Z</time>
      </trkpt>
      <trkpt lat="49.00311" lon="-1.4872">
        <ele>28.6</ele>
        <time>2020-06-12T03:46:03Z</time>
      </trkpt>
      <trkpt lat="49.00312" lon="-1.48726">
        <ele>28.8</ele>
        <time>2020-06-12T03:46:04Z</time>
      </trkpt>
      <trkpt lat="49.00314" lon="-1.48731">
        <ele>29.2</ele>
        <time>2020-06-12T03:46:05Z</time>
      </trkpt>
      <trkpt lat="49.00316" lon="-1.48735">
        <ele>29.4</ele>
        <time>2020-06-12T03:46:06Z</time>
      </trkpt>
      <trkpt lat="49.00318" lon="-1.48739">
        <ele>29.5</ele>
        <time>2020-06-12T03:46:07Z</time>
      </trkpt>
      <trkpt lat="49.00321" lon="-1.48743">
        <ele>29.7</ele>
        <time>2020-06-12T03:46:08Z</time>
      </trkpt>
      <trkpt lat="49.00323" lon="-1.48747">
        <ele>29.9</ele>
        <time>2020-06-12T03:46:09Z</time>
      </trkpt>
      <trkpt lat="49.00325" lon="-1.48751">
        <ele>30.2</ele>
        <time>2020-06-12T03:46:10Z</time>
      </trkpt>
      <trkpt lat="49.00327" lon="-1.48754">
        <ele>30.3</ele>
        <time>2020-06-12T03:46:11Z</time>
      </trkpt>
      <trkpt lat="49.0033" lon="-1.48755">
        <ele>30.5</ele>
        <time>2020-06-12T03:46:12Z</time>
      </trkpt>
      <trkpt lat="49.00333" lon="-1.48758">
        <ele>30.7</ele>
        <time>2020-06-12T03:46:13Z</time>
      </trkpt>
      <trkpt lat="49.00335" lon="-1.4876">
        <ele>30.9</ele>
        <time>2020-06-12T03:46:14Z</time>
      </trkpt>
      <trkpt lat="49.00338" lon="-1.48763">
        <ele>31.2</ele>
        <time>2020-06-12T03:46:15Z</time>
      </trkpt>
      <trkpt lat="49.00339" lon="-1.48764">
        <ele>31.2</ele>
        <time>2020-06-12T03:46:16Z</time>
      </trkpt>
      <trkpt lat="49.00342" lon="-1.48767">
        <ele>31.5</ele>
        <time>2020-06-12T03:46:17Z</time>
      </trkpt>
      <trkpt lat="49.00344" lon="-1.48768">
        <ele>31.6</ele>
        <time>2020-06-12T03:46:18Z</time>
      </trkpt>
      <trkpt lat="49.00347" lon="-1.4877">
        <ele>31.8</ele>
        <time>2020-06-12T03:46:19Z</time>
      </trkpt>
      <trkpt lat="49.0035" lon="-1.48772">
        <ele>32.1</ele>
        <time>2020-06-12T03:46:20Z</time>
      </trkpt>
      <trkpt lat="49.00351" lon="-1.48773">
        <ele>32.2</ele>
        <time>2020-06-12T03:46:21Z</time>
      </trkpt>
      <trkpt lat="49.00355" lon="-1.48774">
        <ele>32.5</ele>
        <time>2020-06-12T03:46:22Z</time>
      </trkpt>
      <trkpt lat="49.00357" lon="-1.48775">
        <ele>32.6</ele>
        <time>2020-06-12T03:46:23Z</time>
      </trkpt>
      <trkpt lat="49.0036" lon="-1.48777">
        <ele>32.8</ele>
        <time>2020-06-12T03:46:24Z</time>
      </trkpt>
      <trkpt lat="49.00362" lon="-1.4878">
        <ele>33</ele>
        <time>2020-06-12T03:46:25Z</time>
      </trkpt>
      <trkpt lat="49.00366" lon="-1.48782">
        <ele>33.3</ele>
        <time>2020-06-12T03:46:26Z</time>
      </trkpt>
      <trkpt lat="49.00367" lon="-1.48783">
        <ele>33.4</ele>
        <time>2020-06-12T03:46:27Z</time>
      </trkpt>
      <trkpt lat="49.0037" lon="-1.48784">
        <ele>33.6</ele>
        <time>2020-06-12T03:46:28Z</time>
      </trkpt>
      <trkpt lat="49.00371" lon="-1.48785">
        <ele>33.7</ele>
        <time>2020-06-12T03:46:29Z</time>
      </trkpt>
      <trkpt lat="49.00374" lon="-1.48787">
        <ele>33.9</ele>
        <time>2020-06-12T03:46:30Z</time>
      </trkpt>
      <trkpt lat="49.00376" lon="-1.48789">
        <ele>34.1</ele>
        <time>2020-06-12T03:46:31Z</time>
      </trkpt>
      <trkpt lat="49.00379" lon="-1.48791">
        <ele>34.3</ele>
        <time>2020-06-12T03:46:32Z</time>
      </trkpt>
      <trkpt lat="49.00382" lon="-1.48793">
        <ele>34.5</ele>
        <time>2020-06-12T03:46:33Z</time>
      </trkpt>
      <trkpt lat="49.00385" lon="-1.48794">
        <ele>34.7</ele>
        <time>2020-06-12T03:46:34Z</time>
      </trkpt>
      <trkpt lat="49.00387" lon="-1.48795">
        <ele>35</ele>
        <time>2020-06-12T03:46:35Z</time>
      </trkpt>
      <trkpt lat="49.0039" lon="-1.48797">
        <ele>35.2</ele>
        <time>2020-06-12T03:46:36Z</time>
      </trkpt>
      <trkpt lat="49.00394" lon="-1.48798">
        <ele>35.5</ele>
        <time>2020-06-12T03:46:37Z</time>
      </trkpt>
      <trkpt lat="49.00395" lon="-1.48799">
        <ele>35.5</ele>
        <time>2020-06-12T03:46:38Z</time>
      </trkpt>
      <trkpt lat="49.00398" lon="-1.488">
        <ele>35.8</ele>
        <time>2020-06-12T03:46:39Z</time>
      </trkpt>
      <trkpt lat="49.00399" lon="-1.48801">
        <ele>35.8</ele>
        <time>2020-06-12T03:46:40Z</time>
      </trkpt>
      <trkpt lat="49.00402" lon="-1.48803">
        <ele>36.1</ele>
        <time>2020-06-12T03:46:41Z</time>
      </trkpt>
      <trkpt lat="49.00403" lon="-1.48804">
        <ele>36.1</ele>
        <time>2020-06-12T03:46:42Z</time>
      </trkpt>
      <trkpt lat="49.00405" lon="-1.48806">
        <ele>36.3</ele>
        <time>2020-06-12T03:46:43Z</time>
      </trkpt>
      <trkpt lat="49.00406" lon="-1.48806">
        <ele>36.4</ele>
        <time>2020-06-12T03:46:44Z</time>
      </trkpt>
      <trkpt lat="49.00409" lon="-1.4881">
        <ele>36.6</ele>
        <time>2020-06-12T03:46:45Z</time>
      </trkpt>
      <trkpt lat="49.00411" lon="-1.48813">
        <ele>36.9</ele>
        <time>2020-06-12T03:46:46Z</time>
      </trkpt>
      <trkpt lat="49.00414" lon="-1.48816">
        <ele>37.1</ele>
        <time>2020-06-12T03:46:47Z</time>
      </trkpt>
      <trkpt lat="49.00416" lon="-1.48819">
        <ele>37.3</ele>
        <time>2020-06-12T03:46:48Z</time>
      </trkpt>
      <trkpt lat="49.00419" lon="-1.48822">
        <ele>37.6</ele>
        <time>2020-06-12T03:46:49Z</time>
      </trkpt>
      <trkpt lat="49.0042" lon="-1.48823">
        <ele>37.7</ele>
        <time>2020-06-12T03:46:50Z</time>
      </trkpt>
      <trkpt lat="49.00423" lon="-1.48825">
        <ele>37.9</ele>
        <time>2020-06-12T03:46:51Z</time>
      </trkpt>
      <trkpt lat="49.00425" lon="-1.48828">
        <ele>38.1</ele>
        <time>2020-06-12T03:46:52Z</time>
      </trkpt>
      <trkpt lat="49.00428" lon="-1.48831">
        <ele>38.3</ele>
        <time>2020-06-12T03:46:53Z</time>
      </trkpt>
      <trkpt lat="49.00429" lon="-1.48832">
        <ele>38.4</ele>
        <time>2020-06-12T03:46:54Z</time>
      </trkpt>
      <trkpt lat="49.00432" lon="-1.48834">
        <ele>38.6</ele>
        <time>2020-06-12T03:46:55Z</time>
      </trkpt>
      <trkpt lat="49.00433" lon="-1.48835">
        <ele>38.7</ele>
        <time>2020-06-12T03:46:56Z</time>
      </trkpt>
      <trkpt lat="49.00435" lon="-1.48837">
        <ele>38.9</ele>
        <time>2020-06-12T03:46:57Z</time>
      </trkpt>
      <trkpt lat="49.00437" lon="-1.48837">
        <ele>39</ele>
        <time>2020-06-12T03:46:58Z</time>
      </trkpt>
      <trkpt lat="49.0044" lon="-1.4884">
        <ele>39.3</ele>
        <time>2020-06-12T03:46:59Z</time>
      </trkpt>
      <trkpt lat="49.00441" lon="-1.48841">
        <ele>39.3</ele>
        <time>2020-06-12T03:47:00Z</time>
      </trkpt>
      <trkpt lat="49.00444" lon="-1.48843">
        <ele>39.6</ele>
        <time>2020-06-12T03:47:01Z</time>
      </trkpt>
      <trkpt lat="49.00445" lon="-1.48843">
        <ele>39.6</ele>
        <time>2020-06-12T03:47:02Z</time>
      </trkpt>
      <trkpt lat="49.00448" lon="-1.48845">
        <ele>39.8</ele>
        <time>2020-06-12T03:47:03Z</time>
      </trkpt>
      <trkpt lat="49.0045" lon="-1.48848">
        <ele>40</ele>
        <time>2020-06-12T03:47:04Z</time>
      </trkpt>
      <trkpt lat="49.00453" lon="-1.4885">
        <ele>40.2</ele>
        <time>2020-06-12T03:47:05Z</time>
      </trkpt>
      <trkpt lat="49.00455" lon="-1.48854">
        <ele>40.4</ele>
        <time>2020-06-12T03:47:06Z</time>
      </trkpt>
      <trkpt lat="49.00457" lon="-1.48856">
        <ele>40.6</ele>
        <time>2020-06-12T03:47:07Z</time>
      </trkpt>
      <trkpt lat="49.0046" lon="-1.48859">
        <ele>40.8</ele>
        <time>2020-06-12T03:47:08Z</time>
      </trkpt>
      <trkpt lat="49.00463" lon="-1.48863">
        <ele>41</ele>
        <time>2020-06-12T03:47:09Z</time>
      </trkpt>
      <trkpt lat="49.00465" lon="-1.48866">
        <ele>41.2</ele>
        <time>2020-06-12T03:47:10Z</time>
      </trkpt>
      <trkpt lat="49.00468" lon="-1.4887">
        <ele>41.5</ele>
        <time>2020-06-12T03:47:11Z</time>
      </trkpt>
      <trkpt lat="49.0047" lon="-1.48873">
        <ele>41.7</ele>
        <time>2020-06-12T03:47:12Z</time>
      </trkpt>
      <trkpt lat="49.00471" lon="-1.48874">
        <ele>41.8</ele>
        <time>2020-06-12T03:47:13Z</time>
      </trkpt>
      <trkpt lat="49.00474" lon="-1.48877">
        <ele>42</ele>
        <time>2020-06-12T03:47:14Z</time>
      </trkpt>
      <trkpt lat="49.00476" lon="-1.4888">
        <ele>42.1</ele>
        <time>2020-06-12T03:47:15Z</time>
      </trkpt>
      <trkpt lat="49.00478" lon="-1.48883">
        <ele>42.3</ele>
        <time>2020-06-12T03:47:16Z</time>
      </trkpt>
      <trkpt lat="49.00479" lon="-1.48885">
        <ele>42.4</ele>
        <time>2020-06-12T03:47:17Z</time>
      </trkpt>
      <trkpt lat="49.00481" lon="-1.48889">
        <ele>42.6</ele>
        <time>2020-06-12T03:47:18Z</time>
      </trkpt>
      <trkpt lat="49.00481" lon="-1.48891">
        <ele>42.7</ele>
        <time>2020-06-12T03:47:19Z</time>
      </trkpt>
      <trkpt lat="49.00484" lon="-1.48896">
        <ele>42.9</ele>
        <time>2020-06-12T03:47:20Z</time>
      </trkpt>
      <trkpt lat="49.00484" lon="-1.48898">
        <ele>43</ele>
        <time>2020-06-12T03:47:21Z</time>
      </trkpt>
      <trkpt lat="49.00486" lon="-1.48901">
        <ele>43.1</ele>
        <time>2020-06-12T03:47:22Z</time>
      </trkpt>
      <trkpt lat="49.00488" lon="-1.48905">
        <ele>43.3</ele>
        <time>2020-06-12T03:47:23Z</time>
      </trkpt>
      <trkpt lat="49.0049" lon="-1.48909">
        <ele>43.5</ele>
        <time>2020-06-12T03:47:24Z</time>
      </trkpt>
      <trkpt lat="49.00493" lon="-1.48913">
        <ele>43.7</ele>
        <time>2020-06-12T03:47:25Z</time>
      </trkpt>
      <trkpt lat="49.00493" lon="-1.48914">
        <ele>43.7</ele>
        <time>2020-06-12T03:47:26Z</time>
      </trkpt>
      <trkpt lat="49.00495" lon="-1.48919">
        <ele>43.9</ele>
        <time>2020-06-12T03:47:27Z</time>
      </trkpt>
      <trkpt lat="49.00496" lon="-1.48924">
        <ele>44.1</ele>
        <time>2020-06-12T03:47:28Z</time>
      </trkpt>
      <trkpt lat="49.00498" lon="-1.48928">
        <ele>44.2</ele>
        <time>2020-06-12T03:47:29Z</time>
      </trkpt>
      <trkpt lat="49.00501" lon="-1.48932">
        <ele>44.4</ele>
        <time>2020-06-12T03:47:30Z</time>
      </trkpt>
      <trkpt lat="49.00503" lon="-1.48936">
        <ele>44.6</ele>
        <time>2020-06-12T03:47:31Z</time>
      </trkpt>
      <trkpt lat="49.00504" lon="-1.48941">
        <ele>44.8</ele>
        <time>2020-06-12T03:47:32Z</time>
      </trkpt>
      <trkpt lat="49.00507" lon="-1.48945">
        <ele>45</ele>
        <time>2020-06-12T03:47:33Z</time>
      </trkpt>
      <trkpt lat="49.00509" lon="-1.48949">
        <ele>45.2</ele>
        <time>2020-06-12T03:47:34Z</time>
      </trkpt>
      <trkpt lat="49.00511" lon="-1.48953">
        <ele>45.3</ele>
        <time>2020-06-12T03:47:35Z</time>
      </trkpt>
      <trkpt lat="49.00513" lon="-1.48957">
        <ele>45.6</ele>
        <time>2020-06-12T03:47:36Z</time>
      </trkpt>
      <trkpt lat="49.00515" lon="-1.4896">
        <ele>45.8</ele>
        <time>2020-06-12T03:47:37Z</time>
      </trkpt>
      <trkpt lat="49.00518" lon="-1.48964">
        <ele>46</ele>
        <time>2020-06-12T03:47:38Z</time>
      </trkpt>
      <trkpt lat="49.0052" lon="-1.48969">
        <ele>46.1</ele>
        <time>2020-06-12T03:47:39Z</time>
      </trkpt>
      <trkpt lat="49.00522" lon="-1.48973">
        <ele>46.3</ele>
        <time>2020-06-12T03:47:40Z</time>
      </trkpt>
      <trkpt lat="49.00525" lon="-1.48977">
        <ele>46.4</ele>
        <time>2020-06-12T03:47:41Z</time>
      </trkpt>
      <trkpt lat="49.00527" lon="-1.48981">
        <ele>46.6</ele>
        <time>2020-06-12T03:47:42Z</time>
      </trkpt>
      <trkpt lat="49.0053" lon="-1.48985">
        <ele>46.8</ele>
        <time>2020-06-12T03:47:43Z</time>
      </trkpt>
      <trkpt lat="49.00531" lon="-1.48986">
        <ele>46.8</ele>
        <time>2020-06-12T03:47:44Z</time>
      </trkpt>
      <trkpt lat="49.00534" lon="-1.48991">
        <ele>47</ele>
        <time>2020-06-12T03:47:45Z</time>
      </trkpt>
      <trkpt lat="49.00535" lon="-1.48993">
        <ele>47.1</ele>
        <time>2020-06-12T03:47:46Z</time>
      </trkpt>
      <trkpt lat="49.00537" lon="-1.48997">
        <ele>47.3</ele>
        <time>2020-06-12T03:47:47Z</time>
      </trkpt>
      <trkpt lat="49.00539" lon="-1.49001">
        <ele>47.4</ele>
        <time>2020-06-12T03:47:48Z</time>
      </trkpt>
      <trkpt lat="49.00541" lon="-1.49005">
        <ele>47.6</ele>
        <time>2020-06-12T03:47:49Z</time>
      </trkpt>
      <trkpt lat="49.00543" lon="-1.49009">
        <ele>47.7</ele>
        <time>2020-06-12T03:47:50Z</time>
      </trkpt>
      <trkpt lat="49.00544" lon="-1.49014">
        <ele>47.9</ele>
        <time>2020-06-12T03:47:51Z</time>
      </trkpt>
      <trkpt lat="49.00546" lon="-1.49019">
        <ele>48</ele>
        <time>2020-06-12T03:47:52Z</time>
      </trkpt>
      <trkpt lat="49.00547" lon="-1.49024">
        <ele>48.2</ele>
        <time>2020-06-12T03:47:53Z</time>
      </trkpt>
      <trkpt lat="49.00549" lon="-1.49029">
        <ele>48.3</ele>
        <time>2020-06-12T03:47:54Z</time>
      </trkpt>
      <trkpt lat="49.0055" lon="-1.49034">
        <ele>48.4</ele>
        <time>2020-06-12T03:47:55Z</time>
      </trkpt>
      <trkpt lat="49.00552" lon="-1.4904">
        <ele>48.5</ele>
        <time>2020-06-12T03:47:56Z</time>
      </trkpt>
      <trkpt lat="49.00554" lon="-1.49046">
        <ele>48.7</ele>
        <time>2020-06-12T03:47:57Z</time>
      </trkpt>
      <trkpt lat="49.00555" lon="-1.49052">
        <ele>48.8</ele>
        <time>2020-06-12T03:47:58Z</time>
      </trkpt>
      <trkpt lat="49.00557" lon="-1.49058">
        <ele>49</ele>
        <time>2020-06-12T03:47:59Z</time>
      </trkpt>
      <trkpt lat="49.00558" lon="-1.49064">
        <ele>49.1</ele>
        <time>2020-06-12T03:48:00Z</time>
      </trkpt>
      <trkpt lat="49.00559" lon="-1.49069">
        <ele>49.2</ele>
        <time>2020-06-12T03:48:01Z</time>
      </trkpt>
      <trkpt lat="49.0056" lon="-1.49074">
        <ele>49.3</ele>
        <time>2020-06-12T03:48:02Z</time>
      </trkpt>
      <trkpt lat="49.00561" lon="-1.4908">
        <ele>49.4</ele>
        <time>2020-06-12T03:48:03Z</time>
      </trkpt>
      <trkpt lat="49.00562" lon="-1.49085">
        <ele>49.5</ele>
        <time>2020-06-12T03:48:04Z</time>
      </trkpt>
      <trkpt lat="49.00563" lon="-1.49091">
        <ele>49.6</ele>
        <time>2020-06-12T03:48:05Z</time>
      </trkpt>
      <trkpt lat="49.00564" lon="-1.49097">
        <ele>49.7</ele>
        <time>2020-06-12T03:48:06Z</time>
      </trkpt>
      <trkpt lat="49.00565" lon="-1.49102">
        <ele>49.8</ele>
        <time>2020-06-12T03:48:07Z</time>
      </trkpt>
      <trkpt lat="49.00566" lon="-1.49106">
        <ele>49.9</ele>
        <time>2020-06-12T03:48:08Z</time>
      </trkpt>
      <trkpt lat="49.00567" lon="-1.4911">
        <ele>50</ele>
        <time>2020-06-12T03:48:09Z</time>
      </trkpt>
      <trkpt lat="49.00568" lon="-1.49115">
        <ele>50.1</ele>
        <time>2020-06-12T03:48:10Z</time>
      </trkpt>
      <trkpt lat="49.00569" lon="-1.4912">
        <ele>50.2</ele>
        <time>2020-06-12T03:48:11Z</time>
      </trkpt>
      <trkpt lat="49.0057" lon="-1.49125">
        <ele>50.3</ele>
        <time>2020-06-12T03:48:12Z</time>
      </trkpt>
      <trkpt lat="49.00571" lon="-1.49131">
        <ele>50.4</ele>
        <time>2020-06-12T03:48:13Z</time>
      </trkpt>
      <trkpt lat="49.00573" lon="-1.49136">
        <ele>50.5</ele>
        <time>2020-06-12T03:48:14Z</time>
      </trkpt>
      <trkpt lat="49.00573" lon="-1.49141">
        <ele>50.6</ele>
        <time>2020-06-12T03:48:15Z</time>
      </trkpt>
      <trkpt lat="49.00574" lon="-1.49146">
        <ele>50.7</ele>
        <time>2020-06-12T03:48:16Z</time>
      </trkpt>
      <trkpt lat="49.00576" lon="-1.49151">
        <ele>50.8</ele>
        <time>2020-06-12T03:48:17Z</time>
      </trkpt>
      <trkpt lat="49.00577" lon="-1.49156">
        <ele>50.9</ele>
        <time>2020-06-12T03:48:18Z</time>
      </trkpt>
      <trkpt lat="49.00579" lon="-1.49161">
        <ele>51</ele>
        <time>2020-06-12T03:48:19Z</time>
      </trkpt>
      <trkpt lat="49.00581" lon="-1.49166">
        <ele>51</ele>
        <time>2020-06-12T03:48:20Z</time>
      </trkpt>
      <trkpt lat="49.00582" lon="-1.49171">
        <ele>51.1</ele>
        <time>2020-06-12T03:48:21Z</time>
      </trkpt>
      <trkpt lat="49.00584" lon="-1.49176">
        <ele>51.1</ele>
        <time>2020-06-12T03:48:22Z</time>
      </trkpt>
      <trkpt lat="49.00585" lon="-1.4918">
        <ele>51.1</ele>
        <time>2020-06-12T03:48:23Z</time>
      </trkpt>
      <trkpt lat="49.00586" lon="-1.49186">
        <ele>51.1</ele>
        <time>2020-06-12T03:48:24Z</time>
      </trkpt>
      <trkpt lat="49.00587" lon="-1.49191">
        <ele>51.3</ele>
        <time>2020-06-12T03:48:25Z</time>
      </trkpt>
      <trkpt lat="49.00589" lon="-1.49197">
        <ele>51.3</ele>
        <time>2020-06-12T03:48:26Z</time>
      </trkpt>
      <trkpt lat="49.0059" lon="-1.49203">
        <ele>51.4</ele>
        <time>2020-06-12T03:48:27Z</time>
      </trkpt>
      <trkpt lat="49.00591" lon="-1.49209">
        <ele>51.4</ele>
        <time>2020-06-12T03:48:28Z</time>
      </trkpt>
      <trkpt lat="49.00593" lon="-1.49215">
        <ele>51.5</ele>
        <time>2020-06-12T03:48:29Z</time>
      </trkpt>
      <trkpt lat="49.00594" lon="-1.49221">
        <ele>51.5</ele>
        <time>2020-06-12T03:48:30Z</time>
      </trkpt>
      <trkpt lat="49.00595" lon="-1.49226">
        <ele>51.6</ele>
        <time>2020-06-12T03:48:31Z</time>
      </trkpt>
      <trkpt lat="49.00596" lon="-1.49232">
        <ele>51.6</ele>
        <time>2020-06-12T03:48:32Z</time>
      </trkpt>
      <trkpt lat="49.00598" lon="-1.49238">
        <ele>51.6</ele>
        <time>2020-06-12T03:48:33Z</time>
      </trkpt>
      <trkpt lat="49.00599" lon="-1.49244">
        <ele>51.6</ele>
        <time>2020-06-12T03:48:34Z</time>
      </trkpt>
      <trkpt lat="49.00601" lon="-1.49251">
        <ele>51.7</ele>
        <time>2020-06-12T03:48:35Z</time>
      </trkpt>
      <trkpt lat="49.00602" lon="-1.49258">
        <ele>51.7</ele>
        <time>2020-06-12T03:48:36Z</time>
      </trkpt>
      <trkpt lat="49.00604" lon="-1.49264">
        <ele>51.7</ele>
        <time>2020-06-12T03:48:37Z</time>
      </trkpt>
      <trkpt lat="49.00605" lon="-1.4927">
        <ele>51.7</ele>
        <time>2020-06-12T03:48:38Z</time>
      </trkpt>
      <trkpt lat="49.00607" lon="-1.49277">
        <ele>51.7</ele>
        <time>2020-06-12T03:48:39Z</time>
      </trkpt>
      <trkpt lat="49.00609" lon="-1.49283">
        <ele>51.7</ele>
        <time>2020-06-12T03:48:40Z</time>
      </trkpt>
      <trkpt lat="49.0061" lon="-1.49289">
        <ele>51.7</ele>
        <time>2020-06-12T03:48:41Z</time>
      </trkpt>
      <trkpt lat="49.00612" lon="-1.49295">
        <ele>51.7</ele>
        <time>2020-06-12T03:48:42Z</time>
      </trkpt>
      <trkpt lat="49.00613" lon="-1.49302">
        <ele>51.7</ele>
        <time>2020-06-12T03:48:43Z</time>
      </trkpt>
      <trkpt lat="49.00614" lon="-1.49308">
        <ele>51.7</ele>
        <time>2020-06-12T03:48:44Z</time>
      </trkpt>
      <trkpt lat="49.00615" lon="-1.49315">
        <ele>51.7</ele>
        <time>2020-06-12T03:48:45Z</time>
      </trkpt>
      <trkpt lat="49.00617" lon="-1.49322">
        <ele>51.7</ele>
        <time>2020-06-12T03:48:46Z</time>
      </trkpt>
      <trkpt lat="49.00618" lon="-1.49329">
        <ele>51.7</ele>
        <time>2020-06-12T03:48:47Z</time>
      </trkpt>
      <trkpt lat="49.00619" lon="-1.49336">
        <ele>51.6</ele>
        <time>2020-06-12T03:48:48Z</time>
      </trkpt>
      <trkpt lat="49.00621" lon="-1.49344">
        <ele>51.6</ele>
        <time>2020-06-12T03:48:49Z</time>
      </trkpt>
      <trkpt lat="49.00622" lon="-1.49351">
        <ele>51.5</ele>
        <time>2020-06-12T03:48:50Z</time>
      </trkpt>
      <trkpt lat="49.00624" lon="-1.49358">
        <ele>51.5</ele>
        <time>2020-06-12T03:48:51Z</time>
      </trkpt>
      <trkpt lat="49.00626" lon="-1.49366">
        <ele>51.5</ele>
        <time>2020-06-12T03:48:52Z</time>
      </trkpt>
      <trkpt lat="49.00628" lon="-1.49372">
        <ele>51.4</ele>
        <time>2020-06-12T03:48:53Z</time>
      </trkpt>
      <trkpt lat="49.0063" lon="-1.49379">
        <ele>51.4</ele>
        <time>2020-06-12T03:48:54Z</time>
      </trkpt>
      <trkpt lat="49.00632" lon="-1.49386">
        <ele>51.4</ele>
        <time>2020-06-12T03:48:55Z</time>
      </trkpt>
      <trkpt lat="49.00634" lon="-1.49392">
        <ele>51.3</ele>
        <time>2020-06-12T03:48:56Z</time>
      </trkpt>
      <trkpt lat="49.00636" lon="-1.49398">
        <ele>51.3</ele>
        <time>2020-06-12T03:48:57Z</time>
      </trkpt>
      <trkpt lat="49.00638" lon="-1.49406">
        <ele>51.3</ele>
        <time>2020-06-12T03:48:58Z</time>
      </trkpt>
      <trkpt lat="49.0064" lon="-1.49414">
        <ele>51.2</ele>
        <time>2020-06-12T03:48:59Z</time>
      </trkpt>
      <trkpt lat="49.00642" lon="-1.49422">
        <ele>51.2</ele>
        <time>2020-06-12T03:49:00Z</time>
      </trkpt>
      <trkpt lat="49.00644" lon="-1.4943">
        <ele>51.2</ele>
        <time>2020-06-12T03:49:01Z</time>
      </trkpt>
      <trkpt lat="49.00647" lon="-1.49438">
        <ele>51.2</ele>
        <time>2020-06-12T03:49:02Z</time>
      </trkpt>
      <trkpt lat="49.0065" lon="-1.49446">
        <ele>51.2</ele>
        <time>2020-06-12T03:49:03Z</time>
      </trkpt>
      <trkpt lat="49.00651" lon="-1.49454">
        <ele>51.2</ele>
        <time>2020-06-12T03:49:04Z</time>
      </trkpt>
      <trkpt lat="49.00653" lon="-1.49462">
        <ele>51.2</ele>
        <time>2020-06-12T03:49:05Z</time>
      </trkpt>
      <trkpt lat="49.00656" lon="-1.4947">
        <ele>51.2</ele>
        <time>2020-06-12T03:49:06Z</time>
      </trkpt>
      <trkpt lat="49.00658" lon="-1.49479">
        <ele>51.1</ele>
        <time>2020-06-12T03:49:07Z</time>
      </trkpt>
      <trkpt lat="49.00661" lon="-1.49487">
        <ele>51.1</ele>
        <time>2020-06-12T03:49:08Z</time>
      </trkpt>
      <trkpt lat="49.00663" lon="-1.49495">
        <ele>51</ele>
        <time>2020-06-12T03:49:09Z</time>
      </trkpt>
      <trkpt lat="49.00667" lon="-1.49504">
        <ele>51</ele>
        <time>2020-06-12T03:49:10Z</time>
      </trkpt>
      <trkpt lat="49.0067" lon="-1.49512">
        <ele>50.9</ele>
        <time>2020-06-12T03:49:11Z</time>
      </trkpt>
      <trkpt lat="49.00672" lon="-1.4952">
        <ele>50.9</ele>
        <time>2020-06-12T03:49:12Z</time>
      </trkpt>
      <trkpt lat="49.00676" lon="-1.49528">
        <ele>50.8</ele>
        <time>2020-06-12T03:49:13Z</time>
      </trkpt>
      <trkpt lat="49.0068" lon="-1.49537">
        <ele>50.8</ele>
        <time>2020-06-12T03:49:14Z</time>
      </trkpt>
      <trkpt lat="49.00683" lon="-1.49544">
        <ele>50.7</ele>
        <time>2020-06-12T03:49:15Z</time>
      </trkpt>
      <trkpt lat="49.00687" lon="-1.49552">
        <ele>50.6</ele>
        <time>2020-06-12T03:49:16Z</time>
      </trkpt>
      <trkpt lat="49.0069" lon="-1.49559">
        <ele>50.6</ele>
        <time>2020-06-12T03:49:17Z</time>
      </trkpt>
      <trkpt lat="49.00694" lon="-1.49567">
        <ele>50.5</ele>
        <time>2020-06-12T03:49:18Z</time>
      </trkpt>
      <trkpt lat="49.00698" lon="-1.49575">
        <ele>50.4</ele>
        <time>2020-06-12T03:49:19Z</time>
      </trkpt>
      <trkpt lat="49.00702" lon="-1.49584">
        <ele>50.3</ele>
        <time>2020-06-12T03:49:20Z</time>
      </trkpt>
      <trkpt lat="49.00705" lon="-1.49592">
        <ele>50.3</ele>
        <time>2020-06-12T03:49:21Z</time>
      </trkpt>
      <trkpt lat="49.00709" lon="-1.496">
        <ele>50.2</ele>
        <time>2020-06-12T03:49:22Z</time>
      </trkpt>
      <trkpt lat="49.00713" lon="-1.49608">
        <ele>50.1</ele>
        <time>2020-06-12T03:49:23Z</time>
      </trkpt>
      <trkpt lat="49.00717" lon="-1.49615">
        <ele>50</ele>
        <time>2020-06-12T03:49:24Z</time>
      </trkpt>
      <trkpt lat="49.00721" lon="-1.49624">
        <ele>50</ele>
        <time>2020-06-12T03:49:25Z</time>
      </trkpt>
      <trkpt lat="49.00725" lon="-1.49632">
        <ele>49.9</ele>
        <time>2020-06-12T03:49:26Z</time>
      </trkpt>
      <trkpt lat="49.00728" lon="-1.49639">
        <ele>49.9</ele>
        <time>2020-06-12T03:49:27Z</time>
      </trkpt>
      <trkpt lat="49.00732" lon="-1.49648">
        <ele>49.9</ele>
        <time>2020-06-12T03:49:28Z</time>
      </trkpt>
      <trkpt lat="49.00737" lon="-1.49656">
        <ele>49.8</ele>
        <time>2020-06-12T03:49:29Z</time>
      </trkpt>
      <trkpt lat="49.00741" lon="-1.49663">
        <ele>49.8</ele>
        <time>2020-06-12T03:49:30Z</time>
      </trkpt>
      <trkpt lat="49.00745" lon="-1.4967">
        <ele>49.7</ele>
        <time>2020-06-12T03:49:31Z</time>
      </trkpt>
      <trkpt lat="49.00749" lon="-1.49678">
        <ele>49.7</ele>
        <time>2020-06-12T03:49:32Z</time>
      </trkpt>
      <trkpt lat="49.00753" lon="-1.49685">
        <ele>49.7</ele>
        <time>2020-06-12T03:49:33Z</time>
      </trkpt>
      <trkpt lat="49.00757" lon="-1.49693">
        <ele>49.6</ele>
        <time>2020-06-12T03:49:34Z</time>
      </trkpt>
      <trkpt lat="49.00761" lon="-1.497">
        <ele>49.6</ele>
        <time>2020-06-12T03:49:35Z</time>
      </trkpt>
      <trkpt lat="49.00765" lon="-1.49709">
        <ele>49.6</ele>
        <time>2020-06-12T03:49:36Z</time>
      </trkpt>
      <trkpt lat="49.00769" lon="-1.49716">
        <ele>49.5</ele>
        <time>2020-06-12T03:49:37Z</time>
      </trkpt>
      <trkpt lat="49.00772" lon="-1.49724">
        <ele>49.5</ele>
        <time>2020-06-12T03:49:38Z</time>
      </trkpt>
      <trkpt lat="49.00776" lon="-1.49731">
        <ele>49.5</ele>
        <time>2020-06-12T03:49:39Z</time>
      </trkpt>
      <trkpt lat="49.0078" lon="-1.49739">
        <ele>49.4</ele>
        <time>2020-06-12T03:49:40Z</time>
      </trkpt>
      <trkpt lat="49.00783" lon="-1.49746">
        <ele>49.3</ele>
        <time>2020-06-12T03:49:41Z</time>
      </trkpt>
      <trkpt lat="49.00787" lon="-1.49754">
        <ele>49.1</ele>
        <time>2020-06-12T03:49:42Z</time>
      </trkpt>
      <trkpt lat="49.00791" lon="-1.4976">
        <ele>49</ele>
        <time>2020-06-12T03:49:43Z</time>
      </trkpt>
      <trkpt lat="49.00794" lon="-1.49766">
        <ele>49</ele>
        <time>2020-06-12T03:49:44Z</time>
      </trkpt>
      <trkpt lat="49.00799" lon="-1.49773">
        <ele>48.8</ele>
        <time>2020-06-12T03:49:45Z</time>
      </trkpt>
      <trkpt lat="49.00803" lon="-1.4978">
        <ele>48.8</ele>
        <time>2020-06-12T03:49:46Z</time>
      </trkpt>
      <trkpt lat="49.00808" lon="-1.49785">
        <ele>48.8</ele>
        <time>2020-06-12T03:49:47Z</time>
      </trkpt>
      <trkpt lat="49.00811" lon="-1.49789">
        <ele>48.7</ele>
        <time>2020-06-12T03:49:48Z</time>
      </trkpt>
      <trkpt lat="49.00816" lon="-1.49795">
        <ele>48.7</ele>
        <time>2020-06-12T03:49:49Z</time>
      </trkpt>
      <trkpt lat="49.0082" lon="-1.49802">
        <ele>48.6</ele>
        <time>2020-06-12T03:49:50Z</time>
      </trkpt>
      <trkpt lat="49.00824" lon="-1.49808">
        <ele>48.5</ele>
        <time>2020-06-12T03:49:51Z</time>
      </trkpt>
      <trkpt lat="49.00828" lon="-1.49814">
        <ele>48.5</ele>
        <time>2020-06-12T03:49:52Z</time>
      </trkpt>
      <trkpt lat="49.00832" lon="-1.4982">
        <ele>48.4</ele>
        <time>2020-06-12T03:49:53Z</time>
      </trkpt>
      <trkpt lat="49.00837" lon="-1.49825">
        <ele>48.3</ele>
        <time>2020-06-12T03:49:54Z</time>
      </trkpt>
      <trkpt lat="49.00842" lon="-1.49831">
        <ele>48.2</ele>
        <time>2020-06-12T03:49:55Z</time>
      </trkpt>
      <trkpt lat="49.00846" lon="-1.49837">
        <ele>48.1</ele>
        <time>2020-06-12T03:49:56Z</time>
      </trkpt>
      <trkpt lat="49.0085" lon="-1.49845">
        <ele>47.9</ele>
        <time>2020-06-12T03:49:57Z</time>
      </trkpt>
      <trkpt lat="49.00855" lon="-1.49852">
        <ele>47.6</ele>
        <time>2020-06-12T03:49:58Z</time>
      </trkpt>
      <trkpt lat="49.00859" lon="-1.49858">
        <ele>47.4</ele>
        <time>2020-06-12T03:49:59Z</time>
      </trkpt>
      <trkpt lat="49.00863" lon="-1.49864">
        <ele>47.1</ele>
        <time>2020-06-12T03:50:00Z</time>
      </trkpt>
      <trkpt lat="49.00868" lon="-1.4987">
        <ele>46.9</ele>
        <time>2020-06-12T03:50:01Z</time>
      </trkpt>
      <trkpt lat="49.00873" lon="-1.49876">
        <ele>46.6</ele>
        <time>2020-06-12T03:50:02Z</time>
      </trkpt>
      <trkpt lat="49.00878" lon="-1.49882">
        <ele>46.3</ele>
        <time>2020-06-12T03:50:03Z</time>
      </trkpt>
      <trkpt lat="49.00883" lon="-1.49888">
        <ele>46.1</ele>
        <time>2020-06-12T03:50:04Z</time>
      </trkpt>
      <trkpt lat="49.00888" lon="-1.49895">
        <ele>45.8</ele>
        <time>2020-06-12T03:50:05Z</time>
      </trkpt>
      <trkpt lat="49.00894" lon="-1.49902">
        <ele>45.4</ele>
        <time>2020-06-12T03:50:06Z</time>
      </trkpt>
      <trkpt lat="49.009" lon="-1.49909">
        <ele>45.1</ele>
        <time>2020-06-12T03:50:07Z</time>
      </trkpt>
      <trkpt lat="49.00905" lon="-1.49916">
        <ele>44.7</ele>
        <time>2020-06-12T03:50:08Z</time>
      </trkpt>
      <trkpt lat="49.00911" lon="-1.49923">
        <ele>44.4</ele>
        <time>2020-06-12T03:50:09Z</time>
      </trkpt>
      <trkpt lat="49.00916" lon="-1.49929">
        <ele>44</ele>
        <time>2020-06-12T03:50:10Z</time>
      </trkpt>
      <trkpt lat="49.00922" lon="-1.49936">
        <ele>43.7</ele>
        <time>2020-06-12T03:50:11Z</time>
      </trkpt>
      <trkpt lat="49.00929" lon="-1.49943">
        <ele>43.4</ele>
        <time>2020-06-12T03:50:12Z</time>
      </trkpt>
      <trkpt lat="49.00935" lon="-1.4995">
        <ele>43.1</ele>
        <time>2020-06-12T03:50:13Z</time>
      </trkpt>
      <trkpt lat="49.00942" lon="-1.49958">
        <ele>42.7</ele>
        <time>2020-06-12T03:50:14Z</time>
      </trkpt>
      <trkpt lat="49.00948" lon="-1.49966">
        <ele>42.3</ele>
        <time>2020-06-12T03:50:15Z</time>
      </trkpt>
      <trkpt lat="49.00953" lon="-1.49975">
        <ele>41.8</ele>
        <time>2020-06-12T03:50:16Z</time>
      </trkpt>
      <trkpt lat="49.0096" lon="-1.49982">
        <ele>41.4</ele>
        <time>2020-06-12T03:50:17Z</time>
      </trkpt>
      <trkpt lat="49.00966" lon="-1.4999">
        <ele>41</ele>
        <time>2020-06-12T03:50:18Z</time>
      </trkpt>
      <trkpt lat="49.00973" lon="-1.49997">
        <ele>40.6</ele>
        <time>2020-06-12T03:50:19Z</time>
      </trkpt>
      <trkpt lat="49.00979" lon="-1.50005">
        <ele>40.1</ele>
        <time>2020-06-12T03:50:20Z</time>
      </trkpt>
      <trkpt lat="49.00987" lon="-1.50013">
        <ele>39.7</ele>
        <time>2020-06-12T03:50:21Z</time>
      </trkpt>
      <trkpt lat="49.00993" lon="-1.5002">
        <ele>39.3</ele>
        <time>2020-06-12T03:50:22Z</time>
      </trkpt>
      <trkpt lat="49.01" lon="-1.50028">
        <ele>38.8</ele>
        <time>2020-06-12T03:50:23Z</time>
      </trkpt>
      <trkpt lat="49.01006" lon="-1.50036">
        <ele>38.4</ele>
        <time>2020-06-12T03:50:24Z</time>
      </trkpt>
      <trkpt lat="49.01013" lon="-1.50043">
        <ele>37.9</ele>
        <time>2020-06-12T03:50:25Z</time>
      </trkpt>
      <trkpt lat="49.01019" lon="-1.5005">
        <ele>37.5</ele>
        <time>2020-06-12T03:50:26Z</time>
      </trkpt>
      <trkpt lat="49.01027" lon="-1.50054">
        <ele>37</ele>
        <time>2020-06-12T03:50:27Z</time>
      </trkpt>
      <trkpt lat="49.01035" lon="-1.50057">
        <ele>36.5</ele>
        <time>2020-06-12T03:50:28Z</time>
      </trkpt>
      <trkpt lat="49.01042" lon="-1.50062">
        <ele>36</ele>
        <time>2020-06-12T03:50:29Z</time>
      </trkpt>
      <trkpt lat="49.0105" lon="-1.50066">
        <ele>35.5</ele>
        <time>2020-06-12T03:50:30Z</time>
      </trkpt>
      <trkpt lat="49.01057" lon="-1.50071">
        <ele>35.1</ele>
        <time>2020-06-12T03:50:31Z</time>
      </trkpt>
      <trkpt lat="49.01065" lon="-1.50074">
        <ele>34.6</ele>
        <time>2020-06-12T03:50:32Z</time>
      </trkpt>
      <trkpt lat="49.01073" lon="-1.50077">
        <ele>34.2</ele>
        <time>2020-06-12T03:50:33Z</time>
      </trkpt>
      <trkpt lat="49.0108" lon="-1.50081">
        <ele>33.8</ele>
        <time>2020-06-12T03:50:34Z</time>
      </trkpt>
      <trkpt lat="49.01087" lon="-1.50085">
        <ele>33.4</ele>
        <time>2020-06-12T03:50:35Z</time>
      </trkpt>
      <trkpt lat="49.01095" lon="-1.50089">
        <ele>33.1</ele>
        <time>2020-06-12T03:50:36Z</time>
      </trkpt>
      <trkpt lat="49.01102" lon="-1.50092">
        <ele>32.7</ele>
        <time>2020-06-12T03:50:37Z</time>
      </trkpt>
      <trkpt lat="49.0111" lon="-1.50096">
        <ele>32.3</ele>
        <time>2020-06-12T03:50:38Z</time>
      </trkpt>
      <trkpt lat="49.01117" lon="-1.50101">
        <ele>31.9</ele>
        <time>2020-06-12T03:50:39Z</time>
      </trkpt>
      <trkpt lat="49.01124" lon="-1.50107">
        <ele>31.4</ele>
        <time>2020-06-12T03:50:40Z</time>
      </trkpt>
      <trkpt lat="49.0113" lon="-1.50115">
        <ele>30.8</ele>
        <time>2020-06-12T03:50:41Z</time>
      </trkpt>
      <trkpt lat="49.01137" lon="-1.50123">
        <ele>30.3</ele>
        <time>2020-06-12T03:50:42Z</time>
      </trkpt>
      <trkpt lat="49.01142" lon="-1.50132">
        <ele>29.8</ele>
        <time>2020-06-12T03:50:43Z</time>
      </trkpt>
      <trkpt lat="49.01147" lon="-1.50143">
        <ele>29.3</ele>
        <time>2020-06-12T03:50:44Z</time>
      </trkpt>
      <trkpt lat="49.01151" lon="-1.50154">
        <ele>28.8</ele>
        <time>2020-06-12T03:50:45Z</time>
      </trkpt>
      <trkpt lat="49.01154" lon="-1.50166">
        <ele>28.3</ele>
        <time>2020-06-12T03:50:46Z</time>
      </trkpt>
      <trkpt lat="49.01157" lon="-1.50178">
        <ele>27.8</ele>
        <time>2020-06-12T03:50:47Z</time>
      </trkpt>
      <trkpt lat="49.01161" lon="-1.50191">
        <ele>27.3</ele>
        <time>2020-06-12T03:50:48Z</time>
      </trkpt>
      <trkpt lat="49.01163" lon="-1.50204">
        <ele>26.8</ele>
        <time>2020-06-12T03:50:49Z</time>
      </trkpt>
      <trkpt lat="49.01166" lon="-1.50217">
        <ele>26.3</ele>
        <time>2020-06-12T03:50:50Z</time>
      </trkpt>
      <trkpt lat="49.01169" lon="-1.50231">
        <ele>25.7</ele>
        <time>2020-06-12T03:50:51Z</time>
      </trkpt>
      <trkpt lat="49.01172" lon="-1.50244">
        <ele>25.3</ele>
        <time>2020-06-12T03:50:52Z</time>
      </trkpt>
      <trkpt lat="49.01174" lon="-1.50258">
        <ele>24.8</ele>
        <time>2020-06-12T03:50:53Z</time>
      </trkpt>
      <trkpt lat="49.01177" lon="-1.50272">
        <ele>24.3</ele>
        <time>2020-06-12T03:50:54Z</time>
      </trkpt>
      <trkpt lat="49.0118" lon="-1.50286">
        <ele>23.8</ele>
        <time>2020-06-12T03:50:55Z</time>
      </trkpt>
      <trkpt lat="49.01182" lon="-1.503">
        <ele>23.4</ele>
        <time>2020-06-12T03:50:56Z</time>
      </trkpt>
      <trkpt lat="49.01185" lon="-1.50314">
        <ele>23</ele>
        <time>2020-06-12T03:50:57Z</time>
      </trkpt>
      <trkpt lat="49.01188" lon="-1.50328">
        <ele>22.7</ele>
        <time>2020-06-12T03:50:58Z</time>
      </trkpt>
      <trkpt lat="49.01192" lon="-1.50342">
        <ele>22.4</ele>
        <time>2020-06-12T03:50:59Z</time>
      </trkpt>
      <trkpt lat="49.01196" lon="-1.50355">
        <ele>22.2</ele>
        <time>2020-06-12T03:51:00Z</time>
      </trkpt>
      <trkpt lat="49.012" lon="-1.50368">
        <ele>21.8</ele>
        <time>2020-06-12T03:51:01Z</time>
      </trkpt>
      <trkpt lat="49.01204" lon="-1.50381">
        <ele>21.6</ele>
        <time>2020-06-12T03:51:02Z</time>
      </trkpt>
      <trkpt lat="49.01209" lon="-1.50393">
        <ele>21.4</ele>
        <time>2020-06-12T03:51:03Z</time>
      </trkpt>
      <trkpt lat="49.01214" lon="-1.50404">
        <ele>21.2</ele>
        <time>2020-06-12T03:51:04Z</time>
      </trkpt>
      <trkpt lat="49.01218" lon="-1.50416">
        <ele>21.1</ele>
        <time>2020-06-12T03:51:05Z</time>
      </trkpt>
      <trkpt lat="49.01223" lon="-1.50427">
        <ele>20.9</ele>
        <time>2020-06-12T03:51:06Z</time>
      </trkpt>
      <trkpt lat="49.01227" lon="-1.50438">
        <ele>20.8</ele>
        <time>2020-06-12T03:51:07Z</time>
      </trkpt>
      <trkpt lat="49.01232" lon="-1.50448">
        <ele>20.7</ele>
        <time>2020-06-12T03:51:08Z</time>
      </trkpt>
      <trkpt lat="49.01236" lon="-1.50459">
        <ele>20.6</ele>
        <time>2020-06-12T03:51:09Z</time>
      </trkpt>
      <trkpt lat="49.01241" lon="-1.50468">
        <ele>20.5</ele>
        <time>2020-06-12T03:51:10Z</time>
      </trkpt>
      <trkpt lat="49.01245" lon="-1.50478">
        <ele>20.4</ele>
        <time>2020-06-12T03:51:11Z</time>
      </trkpt>
      <trkpt lat="49.01249" lon="-1.50487">
        <ele>20.3</ele>
        <time>2020-06-12T03:51:12Z</time>
      </trkpt>
      <trkpt lat="49.01254" lon="-1.50496">
        <ele>20.3</ele>
        <time>2020-06-12T03:51:13Z</time>
      </trkpt>
      <trkpt lat="49.01258" lon="-1.50505">
        <ele>20.2</ele>
        <time>2020-06-12T03:51:14Z</time>
      </trkpt>
      <trkpt lat="49.01263" lon="-1.50513">
        <ele>20.1</ele>
        <time>2020-06-12T03:51:15Z</time>
      </trkpt>
      <trkpt lat="49.01268" lon="-1.50522">
        <ele>20.1</ele>
        <time>2020-06-12T03:51:16Z</time>
      </trkpt>
      <trkpt lat="49.01272" lon="-1.5053">
        <ele>20.1</ele>
        <time>2020-06-12T03:51:17Z</time>
      </trkpt>
      <trkpt lat="49.01275" lon="-1.50538">
        <ele>20</ele>
        <time>2020-06-12T03:51:18Z</time>
      </trkpt>
      <trkpt lat="49.01279" lon="-1.50546">
        <ele>20</ele>
        <time>2020-06-12T03:51:19Z</time>
      </trkpt>
      <trkpt lat="49.01283" lon="-1.50553">
        <ele>19.9</ele>
        <time>2020-06-12T03:51:20Z</time>
      </trkpt>
      <trkpt lat="49.01288" lon="-1.50561">
        <ele>19.9</ele>
        <time>2020-06-12T03:51:21Z</time>
      </trkpt>
      <trkpt lat="49.01292" lon="-1.50568">
        <ele>19.8</ele>
        <time>2020-06-12T03:51:22Z</time>
      </trkpt>
      <trkpt lat="49.01296" lon="-1.50575">
        <ele>19.7</ele>
        <time>2020-06-12T03:51:23Z</time>
      </trkpt>
      <trkpt lat="49.01299" lon="-1.50583">
        <ele>19.7</ele>
        <time>2020-06-12T03:51:24Z</time>
      </trkpt>
      <trkpt lat="49.01301" lon="-1.50592">
        <ele>19.6</ele>
        <time>2020-06-12T03:51:25Z</time>
      </trkpt>
      <trkpt lat="49.01305" lon="-1.506">
        <ele>19.5</ele>
        <time>2020-06-12T03:51:26Z</time>
      </trkpt>
      <trkpt lat="49.01308" lon="-1.50608">
        <ele>19.5</ele>
        <time>2020-06-12T03:51:27Z</time>
      </trkpt>
      <trkpt lat="49.01312" lon="-1.50615">
        <ele>19.4</ele>
        <time>2020-06-12T03:51:28Z</time>
      </trkpt>
      <trkpt lat="49.01315" lon="-1.50623">
        <ele>19.4</ele>
        <time>2020-06-12T03:51:29Z</time>
      </trkpt>
      <trkpt lat="49.01319" lon="-1.5063">
        <ele>19.3</ele>
        <time>2020-06-12T03:51:30Z</time>
      </trkpt>
      <trkpt lat="49.01323" lon="-1.50638">
        <ele>19.2</ele>
        <time>2020-06-12T03:51:31Z</time>
      </trkpt>
      <trkpt lat="49.01326" lon="-1.50647">
        <ele>19</ele>
        <time>2020-06-12T03:51:32Z</time>
      </trkpt>
      <trkpt lat="49.01332" lon="-1.50652">
        <ele>18.9</ele>
        <time>2020-06-12T03:51:33Z</time>
      </trkpt>
      <trkpt lat="49.01337" lon="-1.5066">
        <ele>18.8</ele>
        <time>2020-06-12T03:51:34Z</time>
      </trkpt>
      <trkpt lat="49.01343" lon="-1.50666">
        <ele>18.6</ele>
        <time>2020-06-12T03:51:35Z</time>
      </trkpt>
      <trkpt lat="49.01349" lon="-1.50671">
        <ele>18.5</ele>
        <time>2020-06-12T03:51:36Z</time>
      </trkpt>
      <trkpt lat="49.01355" lon="-1.50676">
        <ele>18.3</ele>
        <time>2020-06-12T03:51:37Z</time>
      </trkpt>
      <trkpt lat="49.01361" lon="-1.50682">
        <ele>18.1</ele>
        <time>2020-06-12T03:51:38Z</time>
      </trkpt>
      <trkpt lat="49.01368" lon="-1.50688">
        <ele>17.9</ele>
        <time>2020-06-12T03:51:39Z</time>
      </trkpt>
      <trkpt lat="49.01374" lon="-1.50691">
        <ele>17.7</ele>
        <time>2020-06-12T03:51:40Z</time>
      </trkpt>
      <trkpt lat="49.01381" lon="-1.50696">
        <ele>17.5</ele>
        <time>2020-06-12T03:51:41Z</time>
      </trkpt>
      <trkpt lat="49.01388" lon="-1.507">
        <ele>17.2</ele>
        <time>2020-06-12T03:51:42Z</time>
      </trkpt>
      <trkpt lat="49.01394" lon="-1.50704">
        <ele>17</ele>
        <time>2020-06-12T03:51:43Z</time>
      </trkpt>
      <trkpt lat="49.01399" lon="-1.50709">
        <ele>16.8</ele>
        <time>2020-06-12T03:51:44Z</time>
      </trkpt>
      <trkpt lat="49.01405" lon="-1.50713">
        <ele>16.6</ele>
        <time>2020-06-12T03:51:45Z</time>
      </trkpt>
      <trkpt lat="49.0141" lon="-1.50716">
        <ele>16.5</ele>
        <time>2020-06-12T03:51:46Z</time>
      </trkpt>
      <trkpt lat="49.01415" lon="-1.5072">
        <ele>16.4</ele>
        <time>2020-06-12T03:51:47Z</time>
      </trkpt>
      <trkpt lat="49.01421" lon="-1.50724">
        <ele>16.2</ele>
        <time>2020-06-12T03:51:48Z</time>
      </trkpt>
      <trkpt lat="49.01426" lon="-1.50728">
        <ele>16.1</ele>
        <time>2020-06-12T03:51:49Z</time>
      </trkpt>
      <trkpt lat="49.01431" lon="-1.50732">
        <ele>16</ele>
        <time>2020-06-12T03:51:50Z</time>
      </trkpt>
      <trkpt lat="49.01436" lon="-1.50735">
        <ele>16</ele>
        <time>2020-06-12T03:51:51Z</time>
      </trkpt>
      <trkpt lat="49.01442" lon="-1.50739">
        <ele>15.9</ele>
        <time>2020-06-12T03:51:52Z</time>
      </trkpt>
      <trkpt lat="49.01447" lon="-1.50742">
        <ele>15.8</ele>
        <time>2020-06-12T03:51:53Z</time>
      </trkpt>
      <trkpt lat="49.0145" lon="-1.50745">
        <ele>15.7</ele>
        <time>2020-06-12T03:51:54Z</time>
      </trkpt>
      <trkpt lat="49.01455" lon="-1.50748">
        <ele>15.7</ele>
        <time>2020-06-12T03:51:55Z</time>
      </trkpt>
      <trkpt lat="49.01458" lon="-1.50752">
        <ele>15.6</ele>
        <time>2020-06-12T03:51:56Z</time>
      </trkpt>
      <trkpt lat="49.01462" lon="-1.50754">
        <ele>15.6</ele>
        <time>2020-06-12T03:51:57Z</time>
      </trkpt>
      <trkpt lat="49.01466" lon="-1.50756">
        <ele>15.5</ele>
        <time>2020-06-12T03:51:58Z</time>
      </trkpt>
      <trkpt lat="49.0147" lon="-1.50757">
        <ele>15.5</ele>
        <time>2020-06-12T03:51:59Z</time>
      </trkpt>
      <trkpt lat="49.01475" lon="-1.50758">
        <ele>15.4</ele>
        <time>2020-06-12T03:52:00Z</time>
      </trkpt>
      <trkpt lat="49.0148" lon="-1.50759">
        <ele>15.4</ele>
        <time>2020-06-12T03:52:01Z</time>
      </trkpt>
      <trkpt lat="49.01485" lon="-1.50759">
        <ele>15.3</ele>
        <time>2020-06-12T03:52:02Z</time>
      </trkpt>
      <trkpt lat="49.0149" lon="-1.50759">
        <ele>15.3</ele>
        <time>2020-06-12T03:52:03Z</time>
      </trkpt>
      <trkpt lat="49.01495" lon="-1.50759">
        <ele>15.3</ele>
        <time>2020-06-12T03:52:04Z</time>
      </trkpt>
      <trkpt lat="49.01499" lon="-1.5076">
        <ele>15.3</ele>
        <time>2020-06-12T03:52:05Z</time>
      </trkpt>
      <trkpt lat="49.01504" lon="-1.50761">
        <ele>15.2</ele>
        <time>2020-06-12T03:52:06Z</time>
      </trkpt>
      <trkpt lat="49.01509" lon="-1.50762">
        <ele>15.2</ele>
        <time>2020-06-12T03:52:07Z</time>
      </trkpt>
      <trkpt lat="49.01513" lon="-1.50763">
        <ele>15.2</ele>
        <time>2020-06-12T03:52:08Z</time>
      </trkpt>
      <trkpt lat="49.01518" lon="-1.50764">
        <ele>15.2</ele>
        <time>2020-06-12T03:52:09Z</time>
      </trkpt>
      <trkpt lat="49.01523" lon="-1.50764">
        <ele>15.2</ele>
        <time>2020-06-12T03:52:10Z</time>
      </trkpt>
      <trkpt lat="49.01527" lon="-1.50765">
        <ele>15.2</ele>
        <time>2020-06-12T03:52:11Z</time>
      </trkpt>
      <trkpt lat="49.01531" lon="-1.50766">
        <ele>15.2</ele>
        <time>2020-06-12T03:52:12Z</time>
      </trkpt>
      <trkpt lat="49.01534" lon="-1.50768">
        <ele>15.2</ele>
        <time>2020-06-12T03:52:13Z</time>
      </trkpt>
      <trkpt lat="49.01539" lon="-1.50769">
        <ele>15.2</ele>
        <time>2020-06-12T03:52:14Z</time>
      </trkpt>
      <trkpt lat="49.01542" lon="-1.50779">
        <ele>15.1</ele>
        <time>2020-06-12T03:52:15Z</time>
      </trkpt>
      <trkpt lat="49.01546" lon="-1.5078">
        <ele>15.1</ele>
        <time>2020-06-12T03:52:16Z</time>
      </trkpt>
      <trkpt lat="49.01551" lon="-1.50786">
        <ele>15.1</ele>
        <time>2020-06-12T03:52:17Z</time>
      </trkpt>
      <trkpt lat="49.01556" lon="-1.50796">
        <ele>15.2</ele>
        <time>2020-06-12T03:52:18Z</time>
      </trkpt>
      <trkpt lat="49.01562" lon="-1.50804">
        <ele>15.3</ele>
        <time>2020-06-12T03:52:19Z</time>
      </trkpt>
      <trkpt lat="49.01566" lon="-1.50811">
        <ele>15.5</ele>
        <time>2020-06-12T03:52:20Z</time>
      </trkpt>
      <trkpt lat="49.01571" lon="-1.50818">
        <ele>15.7</ele>
        <time>2020-06-12T03:52:21Z</time>
      </trkpt>
      <trkpt lat="49.01576" lon="-1.50821">
        <ele>15.8</ele>
        <time>2020-06-12T03:52:22Z</time>
      </trkpt>
      <trkpt lat="49.01581" lon="-1.50825">
        <ele>16</ele>
        <time>2020-06-12T03:52:23Z</time>
      </trkpt>
      <trkpt lat="49.01585" lon="-1.50826">
        <ele>16.1</ele>
        <time>2020-06-12T03:52:24Z</time>
      </trkpt>
      <trkpt lat="49.01592" lon="-1.50831">
        <ele>16.3</ele>
        <time>2020-06-12T03:52:25Z</time>
      </trkpt>
      <trkpt lat="49.01598" lon="-1.50833">
        <ele>16.5</ele>
        <time>2020-06-12T03:52:26Z</time>
      </trkpt>
      <trkpt lat="49.01602" lon="-1.50833">
        <ele>16.5</ele>
        <time>2020-06-12T03:52:27Z</time>
      </trkpt>
      <trkpt lat="49.01607" lon="-1.5083">
        <ele>16</ele>
        <time>2020-06-12T03:52:28Z</time>
      </trkpt>
      <trkpt lat="49.01612" lon="-1.50823">
        <ele>15.5</ele>
        <time>2020-06-12T03:52:29Z</time>
      </trkpt>
      <trkpt lat="49.01617" lon="-1.50817">
        <ele>15</ele>
        <time>2020-06-12T03:52:30Z</time>
      </trkpt>
      <trkpt lat="49.01621" lon="-1.5081">
        <ele>14.6</ele>
        <time>2020-06-12T03:52:31Z</time>
      </trkpt>
      <trkpt lat="49.01625" lon="-1.50804">
        <ele>14.2</ele>
        <time>2020-06-12T03:52:32Z</time>
      </trkpt>
      <trkpt lat="49.01631" lon="-1.50798">
        <ele>13.7</ele>
        <time>2020-06-12T03:52:33Z</time>
      </trkpt>
      <trkpt lat="49.01636" lon="-1.50791">
        <ele>13.3</ele>
        <time>2020-06-12T03:52:34Z</time>
      </trkpt>
      <trkpt lat="49.01642" lon="-1.50787">
        <ele>12.9</ele>
        <time>2020-06-12T03:52:35Z</time>
      </trkpt>
      <trkpt lat="49.01648" lon="-1.5078">
        <ele>12.4</ele>
        <time>2020-06-12T03:52:36Z</time>
      </trkpt>
      <trkpt lat="49.01654" lon="-1.50774">
        <ele>12</ele>
        <time>2020-06-12T03:52:37Z</time>
      </trkpt>
      <trkpt lat="49.0166" lon="-1.50768">
        <ele>11.6</ele>
        <time>2020-06-12T03:52:38Z</time>
      </trkpt>
      <trkpt lat="49.01666" lon="-1.50762">
        <ele>11.3</ele>
        <time>2020-06-12T03:52:39Z</time>
      </trkpt>
      <trkpt lat="49.01673" lon="-1.50755">
        <ele>10.9</ele>
        <time>2020-06-12T03:52:40Z</time>
      </trkpt>
      <trkpt lat="49.01679" lon="-1.50749">
        <ele>10.5</ele>
        <time>2020-06-12T03:52:41Z</time>
      </trkpt>
      <trkpt lat="49.01686" lon="-1.50742">
        <ele>10.2</ele>
        <time>2020-06-12T03:52:42Z</time>
      </trkpt>
      <trkpt lat="49.01692" lon="-1.50736">
        <ele>9.9</ele>
        <time>2020-06-12T03:52:43Z</time>
      </trkpt>
      <trkpt lat="49.01697" lon="-1.5073">
        <ele>9.7</ele>
        <time>2020-06-12T03:52:44Z</time>
      </trkpt>
      <trkpt lat="49.01704" lon="-1.50723">
        <ele>9.4</ele>
        <time>2020-06-12T03:52:45Z</time>
      </trkpt>
      <trkpt lat="49.01709" lon="-1.50717">
        <ele>9.2</ele>
        <time>2020-06-12T03:52:46Z</time>
      </trkpt>
      <trkpt lat="49.01714" lon="-1.50711">
        <ele>9</ele>
        <time>2020-06-12T03:52:47Z</time>
      </trkpt>
      <trkpt lat="49.0172" lon="-1.50705">
        <ele>8.9</ele>
        <time>2020-06-12T03:52:48Z</time>
      </trkpt>
      <trkpt lat="49.01726" lon="-1.507">
        <ele>8.7</ele>
        <time>2020-06-12T03:52:49Z</time>
      </trkpt>
      <trkpt lat="49.01732" lon="-1.50694">
        <ele>8.6</ele>
        <time>2020-06-12T03:52:50Z</time>
      </trkpt>
      <trkpt lat="49.01738" lon="-1.5069">
        <ele>8.5</ele>
        <time>2020-06-12T03:52:51Z</time>
      </trkpt>
      <trkpt lat="49.01745" lon="-1.50686">
        <ele>8.3</ele>
        <time>2020-06-12T03:52:52Z</time>
      </trkpt>
      <trkpt lat="49.01752" lon="-1.50681">
        <ele>8.1</ele>
        <time>2020-06-12T03:52:53Z</time>
      </trkpt>
      <trkpt lat="49.01758" lon="-1.50677">
        <ele>8</ele>
        <time>2020-06-12T03:52:54Z</time>
      </trkpt>
      <trkpt lat="49.01763" lon="-1.50672">
        <ele>7.9</ele>
        <time>2020-06-12T03:52:55Z</time>
      </trkpt>
      <trkpt lat="49.01769" lon="-1.50667">
        <ele>7.8</ele>
        <time>2020-06-12T03:52:56Z</time>
      </trkpt>
      <trkpt lat="49.01775" lon="-1.50662">
        <ele>7.7</ele>
        <time>2020-06-12T03:52:57Z</time>
      </trkpt>
      <trkpt lat="49.01781" lon="-1.50657">
        <ele>7.5</ele>
        <time>2020-06-12T03:52:58Z</time>
      </trkpt>
      <trkpt lat="49.01786" lon="-1.5065">
        <ele>7.4</ele>
        <time>2020-06-12T03:52:59Z</time>
      </trkpt>
      <trkpt lat="49.01791" lon="-1.50645">
        <ele>7.4</ele>
        <time>2020-06-12T03:53:00Z</time>
      </trkpt>
      <trkpt lat="49.01797" lon="-1.5064">
        <ele>7.4</ele>
        <time>2020-06-12T03:53:01Z</time>
      </trkpt>
      <trkpt lat="49.01803" lon="-1.50634">
        <ele>7.4</ele>
        <time>2020-06-12T03:53:02Z</time>
      </trkpt>
      <trkpt lat="49.01809" lon="-1.50629">
        <ele>7.4</ele>
        <time>2020-06-12T03:53:03Z</time>
      </trkpt>
      <trkpt lat="49.01814" lon="-1.50624">
        <ele>7.4</ele>
        <time>2020-06-12T03:53:04Z</time>
      </trkpt>
      <trkpt lat="49.0182" lon="-1.5062">
        <ele>7.4</ele>
        <time>2020-06-12T03:53:05Z</time>
      </trkpt>
      <trkpt lat="49.01826" lon="-1.50616">
        <ele>7.5</ele>
        <time>2020-06-12T03:53:06Z</time>
      </trkpt>
      <trkpt lat="49.01831" lon="-1.50609">
        <ele>7.5</ele>
        <time>2020-06-12T03:53:07Z</time>
      </trkpt>
      <trkpt lat="49.01836" lon="-1.50604">
        <ele>7.5</ele>
        <time>2020-06-12T03:53:08Z</time>
      </trkpt>
      <trkpt lat="49.01841" lon="-1.50599">
        <ele>7.6</ele>
        <time>2020-06-12T03:53:09Z</time>
      </trkpt>
      <trkpt lat="49.01847" lon="-1.50595">
        <ele>7.6</ele>
        <time>2020-06-12T03:53:10Z</time>
      </trkpt>
      <trkpt lat="49.01852" lon="-1.50589">
        <ele>7.7</ele>
        <time>2020-06-12T03:53:11Z</time>
      </trkpt>
      <trkpt lat="49.01857" lon="-1.50586">
        <ele>7.7</ele>
        <time>2020-06-12T03:53:12Z</time>
      </trkpt>
      <trkpt lat="49.01863" lon="-1.50581">
        <ele>7.8</ele>
        <time>2020-06-12T03:53:13Z</time>
      </trkpt>
      <trkpt lat="49.01868" lon="-1.50576">
        <ele>7.9</ele>
        <time>2020-06-12T03:53:14Z</time>
      </trkpt>
      <trkpt lat="49.01873" lon="-1.50571">
        <ele>7.9</ele>
        <time>2020-06-12T03:53:15Z</time>
      </trkpt>
      <trkpt lat="49.01878" lon="-1.50569">
        <ele>7.9</ele>
        <time>2020-06-12T03:53:16Z</time>
      </trkpt>
      <trkpt lat="49.01883" lon="-1.50566">
        <ele>8</ele>
        <time>2020-06-12T03:53:17Z</time>
      </trkpt>
      <trkpt lat="49.0189" lon="-1.5056">
        <ele>8</ele>
        <time>2020-06-12T03:53:18Z</time>
      </trkpt>
      <trkpt lat="49.01896" lon="-1.50556">
        <ele>8</ele>
        <time>2020-06-12T03:53:19Z</time>
      </trkpt>
      <trkpt lat="49.01901" lon="-1.50553">
        <ele>8</ele>
        <time>2020-06-12T03:53:20Z</time>
      </trkpt>
      <trkpt lat="49.01906" lon="-1.5055">
        <ele>8</ele>
        <time>2020-06-12T03:53:21Z</time>
      </trkpt>
      <trkpt lat="49.01911" lon="-1.50549">
        <ele>8.1</ele>
        <time>2020-06-12T03:53:22Z</time>
      </trkpt>
      <trkpt lat="49.01917" lon="-1.50546">
        <ele>8.1</ele>
        <time>2020-06-12T03:53:23Z</time>
      </trkpt>
      <trkpt lat="49.01922" lon="-1.50543">
        <ele>8.1</ele>
        <time>2020-06-12T03:53:24Z</time>
      </trkpt>
      <trkpt lat="49.01926" lon="-1.50539">
        <ele>8.1</ele>
        <time>2020-06-12T03:53:25Z</time>
      </trkpt>
      <trkpt lat="49.0193" lon="-1.50534">
        <ele>8.2</ele>
        <time>2020-06-12T03:53:26Z</time>
      </trkpt>
      <trkpt lat="49.01935" lon="-1.5053">
        <ele>8.2</ele>
        <time>2020-06-12T03:53:27Z</time>
      </trkpt>
      <trkpt lat="49.0194" lon="-1.50527">
        <ele>8.2</ele>
        <time>2020-06-12T03:53:28Z</time>
      </trkpt>
      <trkpt lat="49.01944" lon="-1.50523">
        <ele>8.3</ele>
        <time>2020-06-12T03:53:29Z</time>
      </trkpt>
      <trkpt lat="49.01948" lon="-1.5052">
        <ele>8.3</ele>
        <time>2020-06-12T03:53:30Z</time>
      </trkpt>
      <trkpt lat="49.01954" lon="-1.50515">
        <ele>8.4</ele>
        <time>2020-06-12T03:53:31Z</time>
      </trkpt>
      <trkpt lat="49.01959" lon="-1.50511">
        <ele>8.5</ele>
        <time>2020-06-12T03:53:32Z</time>
      </trkpt>
      <trkpt lat="49.01963" lon="-1.50509">
        <ele>8.5</ele>
        <time>2020-06-12T03:53:33Z</time>
      </trkpt>
      <trkpt lat="49.01968" lon="-1.50507">
        <ele>8.6</ele>
        <time>2020-06-12T03:53:34Z</time>
      </trkpt>
      <trkpt lat="49.01973" lon="-1.50503">
        <ele>8.7</ele>
        <time>2020-06-12T03:53:35Z</time>
      </trkpt>
      <trkpt lat="49.01979" lon="-1.505">
        <ele>8.8</ele>
        <time>2020-06-12T03:53:36Z</time>
      </trkpt>
      <trkpt lat="49.01984" lon="-1.50496">
        <ele>8.9</ele>
        <time>2020-06-12T03:53:37Z</time>
      </trkpt>
      <trkpt lat="49.01989" lon="-1.50493">
        <ele>9</ele>
        <time>2020-06-12T03:53:38Z</time>
      </trkpt>
      <trkpt lat="49.01993" lon="-1.5049">
        <ele>9</ele>
        <time>2020-06-12T03:53:39Z</time>
      </trkpt>
      <trkpt lat="49.01998" lon="-1.50487">
        <ele>9.1</ele>
        <time>2020-06-12T03:53:40Z</time>
      </trkpt>
      <trkpt lat="49.02004" lon="-1.50484">
        <ele>9.2</ele>
        <time>2020-06-12T03:53:41Z</time>
      </trkpt>
      <trkpt lat="49.02009" lon="-1.50479">
        <ele>9.1</ele>
        <time>2020-06-12T03:53:42Z</time>
      </trkpt>
      <trkpt lat="49.02014" lon="-1.50476">
        <ele>9.1</ele>
        <time>2020-06-12T03:53:43Z</time>
      </trkpt>
      <trkpt lat="49.02019" lon="-1.50472">
        <ele>9.1</ele>
        <time>2020-06-12T03:53:44Z</time>
      </trkpt>
      <trkpt lat="49.02024" lon="-1.50469">
        <ele>9.2</ele>
        <time>2020-06-12T03:53:45Z</time>
      </trkpt>
      <trkpt lat="49.02028" lon="-1.50465">
        <ele>9.2</ele>
        <time>2020-06-12T03:53:46Z</time>
      </trkpt>
      <trkpt lat="49.02033" lon="-1.50463">
        <ele>9.2</ele>
        <time>2020-06-12T03:53:47Z</time>
      </trkpt>
      <trkpt lat="49.02037" lon="-1.50459">
        <ele>9.3</ele>
        <time>2020-06-12T03:53:48Z</time>
      </trkpt>
      <trkpt lat="49.02041" lon="-1.50456">
        <ele>9.4</ele>
        <time>2020-06-12T03:53:49Z</time>
      </trkpt>
      <trkpt lat="49.02046" lon="-1.50454">
        <ele>9.5</ele>
        <time>2020-06-12T03:53:50Z</time>
      </trkpt>
      <trkpt lat="49.0205" lon="-1.5045">
        <ele>9.6</ele>
        <time>2020-06-12T03:53:51Z</time>
      </trkpt>
      <trkpt lat="49.02054" lon="-1.50446">
        <ele>9.7</ele>
        <time>2020-06-12T03:53:52Z</time>
      </trkpt>
      <trkpt lat="49.02058" lon="-1.50442">
        <ele>9.8</ele>
        <time>2020-06-12T03:53:53Z</time>
      </trkpt>
      <trkpt lat="49.02062" lon="-1.50438">
        <ele>9.9</ele>
        <time>2020-06-12T03:53:54Z</time>
      </trkpt>
      <trkpt lat="49.02067" lon="-1.50435">
        <ele>10.1</ele>
        <time>2020-06-12T03:53:55Z</time>
      </trkpt>
      <trkpt lat="49.02071" lon="-1.50432">
        <ele>10.2</ele>
        <time>2020-06-12T03:53:56Z</time>
      </trkpt>
      <trkpt lat="49.02075" lon="-1.5043">
        <ele>10.4</ele>
        <time>2020-06-12T03:53:57Z</time>
      </trkpt>
      <trkpt lat="49.0208" lon="-1.50428">
        <ele>10.5</ele>
        <time>2020-06-12T03:53:58Z</time>
      </trkpt>
      <trkpt lat="49.02084" lon="-1.50425">
        <ele>10.7</ele>
        <time>2020-06-12T03:53:59Z</time>
      </trkpt>
      <trkpt lat="49.02087" lon="-1.50424">
        <ele>10.8</ele>
        <time>2020-06-12T03:54:00Z</time>
      </trkpt>
      <trkpt lat="49.02091" lon="-1.50422">
        <ele>11</ele>
        <time>2020-06-12T03:54:01Z</time>
      </trkpt>
      <trkpt lat="49.02095" lon="-1.5042">
        <ele>11.1</ele>
        <time>2020-06-12T03:54:02Z</time>
      </trkpt>
      <trkpt lat="49.02099" lon="-1.50417">
        <ele>11.2</ele>
        <time>2020-06-12T03:54:03Z</time>
      </trkpt>
      <trkpt lat="49.02102" lon="-1.50415">
        <ele>11.4</ele>
        <time>2020-06-12T03:54:04Z</time>
      </trkpt>
      <trkpt lat="49.02106" lon="-1.50411">
        <ele>11.5</ele>
        <time>2020-06-12T03:54:05Z</time>
      </trkpt>
      <trkpt lat="49.0211" lon="-1.50409">
        <ele>11.7</ele>
        <time>2020-06-12T03:54:06Z</time>
      </trkpt>
      <trkpt lat="49.02114" lon="-1.50406">
        <ele>11.8</ele>
        <time>2020-06-12T03:54:07Z</time>
      </trkpt>
      <trkpt lat="49.02117" lon="-1.50405">
        <ele>12</ele>
        <time>2020-06-12T03:54:08Z</time>
      </trkpt>
      <trkpt lat="49.02122" lon="-1.50404">
        <ele>12.3</ele>
        <time>2020-06-12T03:54:09Z</time>
      </trkpt>
      <trkpt lat="49.02125" lon="-1.50402">
        <ele>12.4</ele>
        <time>2020-06-12T03:54:10Z</time>
      </trkpt>
      <trkpt lat="49.02129" lon="-1.504">
        <ele>12.5</ele>
        <time>2020-06-12T03:54:11Z</time>
      </trkpt>
      <trkpt lat="49.02133" lon="-1.504">
        <ele>12.6</ele>
        <time>2020-06-12T03:54:12Z</time>
      </trkpt>
      <trkpt lat="49.02134" lon="-1.50399">
        <ele>12.7</ele>
        <time>2020-06-12T03:54:13Z</time>
      </trkpt>
      <trkpt lat="49.02138" lon="-1.50399">
        <ele>12.8</ele>
        <time>2020-06-12T03:54:14Z</time>
      </trkpt>
      <trkpt lat="49.02141" lon="-1.50397">
        <ele>12.9</ele>
        <time>2020-06-12T03:54:15Z</time>
      </trkpt>
      <trkpt lat="49.02144" lon="-1.50397">
        <ele>13</ele>
        <time>2020-06-12T03:54:16Z</time>
      </trkpt>
      <trkpt lat="49.02147" lon="-1.50396">
        <ele>13.1</ele>
        <time>2020-06-12T03:54:17Z</time>
      </trkpt>
      <trkpt lat="49.0215" lon="-1.50396">
        <ele>13.2</ele>
        <time>2020-06-12T03:54:18Z</time>
      </trkpt>
      <trkpt lat="49.02155" lon="-1.50397">
        <ele>13.4</ele>
        <time>2020-06-12T03:54:19Z</time>
      </trkpt>
      <trkpt lat="49.02159" lon="-1.50396">
        <ele>13.5</ele>
        <time>2020-06-12T03:54:20Z</time>
      </trkpt>
      <trkpt lat="49.02163" lon="-1.50396">
        <ele>13.6</ele>
        <time>2020-06-12T03:54:21Z</time>
      </trkpt>
      <trkpt lat="49.02167" lon="-1.50393">
        <ele>13.7</ele>
        <time>2020-06-12T03:54:22Z</time>
      </trkpt>
      <trkpt lat="49.02171" lon="-1.50394">
        <ele>13.8</ele>
        <time>2020-06-12T03:54:23Z</time>
      </trkpt>
      <trkpt lat="49.02176" lon="-1.50393">
        <ele>14</ele>
        <time>2020-06-12T03:54:24Z</time>
      </trkpt>
      <trkpt lat="49.0218" lon="-1.5039">
        <ele>14.1</ele>
        <time>2020-06-12T03:54:25Z</time>
      </trkpt>
      <trkpt lat="49.02184" lon="-1.50387">
        <ele>14.2</ele>
        <time>2020-06-12T03:54:26Z</time>
      </trkpt>
      <trkpt lat="49.02188" lon="-1.50385">
        <ele>14.3</ele>
        <time>2020-06-12T03:54:27Z</time>
      </trkpt>
      <trkpt lat="49.02193" lon="-1.50384">
        <ele>14.4</ele>
        <time>2020-06-12T03:54:28Z</time>
      </trkpt>
      <trkpt lat="49.02197" lon="-1.50383">
        <ele>14.4</ele>
        <time>2020-06-12T03:54:29Z</time>
      </trkpt>
      <trkpt lat="49.02201" lon="-1.50381">
        <ele>14.5</ele>
        <time>2020-06-12T03:54:30Z</time>
      </trkpt>
      <trkpt lat="49.02205" lon="-1.5038">
        <ele>14.5</ele>
        <time>2020-06-12T03:54:31Z</time>
      </trkpt>
      <trkpt lat="49.02209" lon="-1.5038">
        <ele>14.6</ele>
        <time>2020-06-12T03:54:32Z</time>
      </trkpt>
      <trkpt lat="49.02213" lon="-1.50381">
        <ele>14.6</ele>
        <time>2020-06-12T03:54:33Z</time>
      </trkpt>
      <trkpt lat="49.02217" lon="-1.50383">
        <ele>14.7</ele>
        <time>2020-06-12T03:54:34Z</time>
      </trkpt>
      <trkpt lat="49.02221" lon="-1.50386">
        <ele>14.8</ele>
        <time>2020-06-12T03:54:35Z</time>
      </trkpt>
      <trkpt lat="49.02224" lon="-1.50389">
        <ele>14.8</ele>
        <time>2020-06-12T03:54:36Z</time>
      </trkpt>
      <trkpt lat="49.02229" lon="-1.5039">
        <ele>14.8</ele>
        <time>2020-06-12T03:54:37Z</time>
      </trkpt>
      <trkpt lat="49.02233" lon="-1.50393">
        <ele>14.8</ele>
        <time>2020-06-12T03:54:38Z</time>
      </trkpt>
      <trkpt lat="49.02236" lon="-1.50393">
        <ele>14.9</ele>
        <time>2020-06-12T03:54:39Z</time>
      </trkpt>
      <trkpt lat="49.0224" lon="-1.50394">
        <ele>14.9</ele>
        <time>2020-06-12T03:54:40Z</time>
      </trkpt>
      <trkpt lat="49.02244" lon="-1.50396">
        <ele>15</ele>
        <time>2020-06-12T03:54:41Z</time>
      </trkpt>
      <trkpt lat="49.02248" lon="-1.50397">
        <ele>15.1</ele>
        <time>2020-06-12T03:54:42Z</time>
      </trkpt>
      <trkpt lat="49.02251" lon="-1.50399">
        <ele>15.2</ele>
        <time>2020-06-12T03:54:43Z</time>
      </trkpt>
      <trkpt lat="49.02254" lon="-1.50401">
        <ele>15.2</ele>
        <time>2020-06-12T03:54:44Z</time>
      </trkpt>
      <trkpt lat="49.02258" lon="-1.50403">
        <ele>15.3</ele>
        <time>2020-06-12T03:54:45Z</time>
      </trkpt>
      <trkpt lat="49.02261" lon="-1.50405">
        <ele>15.4</ele>
        <time>2020-06-12T03:54:46Z</time>
      </trkpt>
      <trkpt lat="49.02265" lon="-1.50407">
        <ele>15.5</ele>
        <time>2020-06-12T03:54:47Z</time>
      </trkpt>
      <trkpt lat="49.02268" lon="-1.50409">
        <ele>15.6</ele>
        <time>2020-06-12T03:54:48Z</time>
      </trkpt>
      <trkpt lat="49.02271" lon="-1.50411">
        <ele>15.6</ele>
        <time>2020-06-12T03:54:49Z</time>
      </trkpt>
      <trkpt lat="49.02275" lon="-1.50413">
        <ele>15.7</ele>
        <time>2020-06-12T03:54:50Z</time>
      </trkpt>
      <trkpt lat="49.02279" lon="-1.50415">
        <ele>15.8</ele>
        <time>2020-06-12T03:54:51Z</time>
      </trkpt>
      <trkpt lat="49.02282" lon="-1.50417">
        <ele>15.8</ele>
        <time>2020-06-12T03:54:52Z</time>
      </trkpt>
      <trkpt lat="49.02286" lon="-1.50419">
        <ele>15.9</ele>
        <time>2020-06-12T03:54:53Z</time>
      </trkpt>
      <trkpt lat="49.02289" lon="-1.50421">
        <ele>16</ele>
        <time>2020-06-12T03:54:54Z</time>
      </trkpt>
      <trkpt lat="49.02293" lon="-1.50423">
        <ele>16</ele>
        <time>2020-06-12T03:54:55Z</time>
      </trkpt>
      <trkpt lat="49.02297" lon="-1.50425">
        <ele>16.1</ele>
        <time>2020-06-12T03:54:56Z</time>
      </trkpt>
      <trkpt lat="49.02301" lon="-1.50427">
        <ele>16.2</ele>
        <time>2020-06-12T03:54:57Z</time>
      </trkpt>
      <trkpt lat="49.02306" lon="-1.5043">
        <ele>16.3</ele>
        <time>2020-06-12T03:54:58Z</time>
      </trkpt>
      <trkpt lat="49.02309" lon="-1.50432">
        <ele>16.3</ele>
        <time>2020-06-12T03:54:59Z</time>
      </trkpt>
      <trkpt lat="49.02314" lon="-1.50435">
        <ele>16.4</ele>
        <time>2020-06-12T03:55:00Z</time>
      </trkpt>
      <trkpt lat="49.02318" lon="-1.50438">
        <ele>16.4</ele>
        <time>2020-06-12T03:55:01Z</time>
      </trkpt>
      <trkpt lat="49.02322" lon="-1.50442">
        <ele>16.5</ele>
        <time>2020-06-12T03:55:02Z</time>
      </trkpt>
      <trkpt lat="49.02327" lon="-1.50444">
        <ele>16.5</ele>
        <time>2020-06-12T03:55:03Z</time>
      </trkpt>
      <trkpt lat="49.02331" lon="-1.50449">
        <ele>16.5</ele>
        <time>2020-06-12T03:55:04Z</time>
      </trkpt>
      <trkpt lat="49.02336" lon="-1.50452">
        <ele>16.5</ele>
        <time>2020-06-12T03:55:05Z</time>
      </trkpt>
      <trkpt lat="49.0234" lon="-1.50456">
        <ele>16.6</ele>
        <time>2020-06-12T03:55:06Z</time>
      </trkpt>
      <trkpt lat="49.02344" lon="-1.5046">
        <ele>16.6</ele>
        <time>2020-06-12T03:55:07Z</time>
      </trkpt>
      <trkpt lat="49.02349" lon="-1.50464">
        <ele>16.6</ele>
        <time>2020-06-12T03:55:08Z</time>
      </trkpt>
      <trkpt lat="49.02353" lon="-1.50467">
        <ele>16.6</ele>
        <time>2020-06-12T03:55:09Z</time>
      </trkpt>
      <trkpt lat="49.02357" lon="-1.5047">
        <ele>16.6</ele>
        <time>2020-06-12T03:55:10Z</time>
      </trkpt>
      <trkpt lat="49.02361" lon="-1.50475">
        <ele>16.6</ele>
        <time>2020-06-12T03:55:11Z</time>
      </trkpt>
      <trkpt lat="49.02366" lon="-1.50479">
        <ele>16.6</ele>
        <time>2020-06-12T03:55:12Z</time>
      </trkpt>
      <trkpt lat="49.02371" lon="-1.50482">
        <ele>16.7</ele>
        <time>2020-06-12T03:55:13Z</time>
      </trkpt>
      <trkpt lat="49.02374" lon="-1.50486">
        <ele>16.7</ele>
        <time>2020-06-12T03:55:14Z</time>
      </trkpt>
      <trkpt lat="49.02378" lon="-1.50489">
        <ele>16.7</ele>
        <time>2020-06-12T03:55:15Z</time>
      </trkpt>
      <trkpt lat="49.02382" lon="-1.50493">
        <ele>16.7</ele>
        <time>2020-06-12T03:55:16Z</time>
      </trkpt>
      <trkpt lat="49.02386" lon="-1.50497">
        <ele>16.6</ele>
        <time>2020-06-12T03:55:17Z</time>
      </trkpt>
      <trkpt lat="49.02391" lon="-1.50501">
        <ele>16.6</ele>
        <time>2020-06-12T03:55:18Z</time>
      </trkpt>
      <trkpt lat="49.02395" lon="-1.50505">
        <ele>16.6</ele>
        <time>2020-06-12T03:55:19Z</time>
      </trkpt>
      <trkpt lat="49.02399" lon="-1.50508">
        <ele>16.6</ele>
        <time>2020-06-12T03:55:20Z</time>
      </trkpt>
      <trkpt lat="49.02403" lon="-1.50511">
        <ele>16.5</ele>
        <time>2020-06-12T03:55:21Z</time>
      </trkpt>
      <trkpt lat="49.02408" lon="-1.50515">
        <ele>16.5</ele>
        <time>2020-06-12T03:55:22Z</time>
      </trkpt>
      <trkpt lat="49.02412" lon="-1.50519">
        <ele>16.5</ele>
        <time>2020-06-12T03:55:23Z</time>
      </trkpt>
      <trkpt lat="49.02416" lon="-1.50523">
        <ele>16.5</ele>
        <time>2020-06-12T03:55:24Z</time>
      </trkpt>
      <trkpt lat="49.0242" lon="-1.50527">
        <ele>16.5</ele>
        <time>2020-06-12T03:55:25Z</time>
      </trkpt>
      <trkpt lat="49.02425" lon="-1.50531">
        <ele>16.5</ele>
        <time>2020-06-12T03:55:26Z</time>
      </trkpt>
      <trkpt lat="49.02429" lon="-1.50535">
        <ele>16.5</ele>
        <time>2020-06-12T03:55:27Z</time>
      </trkpt>
      <trkpt lat="49.02433" lon="-1.5054">
        <ele>16.5</ele>
        <time>2020-06-12T03:55:28Z</time>
      </trkpt>
      <trkpt lat="49.02437" lon="-1.50543">
        <ele>16.5</ele>
        <time>2020-06-12T03:55:29Z</time>
      </trkpt>
      <trkpt lat="49.02441" lon="-1.50547">
        <ele>16.5</ele>
        <time>2020-06-12T03:55:30Z</time>
      </trkpt>
      <trkpt lat="49.02445" lon="-1.50551">
        <ele>16.4</ele>
        <time>2020-06-12T03:55:31Z</time>
      </trkpt>
      <trkpt lat="49.0245" lon="-1.50555">
        <ele>16.4</ele>
        <time>2020-06-12T03:55:32Z</time>
      </trkpt>
      <trkpt lat="49.02454" lon="-1.5056">
        <ele>16.3</ele>
        <time>2020-06-12T03:55:33Z</time>
      </trkpt>
      <trkpt lat="49.02458" lon="-1.50563">
        <ele>16.2</ele>
        <time>2020-06-12T03:55:34Z</time>
      </trkpt>
      <trkpt lat="49.02462" lon="-1.50567">
        <ele>16.1</ele>
        <time>2020-06-12T03:55:35Z</time>
      </trkpt>
      <trkpt lat="49.02467" lon="-1.50569">
        <ele>16.1</ele>
        <time>2020-06-12T03:55:36Z</time>
      </trkpt>
      <trkpt lat="49.02471" lon="-1.50573">
        <ele>16</ele>
        <time>2020-06-12T03:55:37Z</time>
      </trkpt>
      <trkpt lat="49.02475" lon="-1.50577">
        <ele>15.9</ele>
        <time>2020-06-12T03:55:38Z</time>
      </trkpt>
      <trkpt lat="49.0248" lon="-1.50581">
        <ele>15.9</ele>
        <time>2020-06-12T03:55:39Z</time>
      </trkpt>
      <trkpt lat="49.02484" lon="-1.50586">
        <ele>15.8</ele>
        <time>2020-06-12T03:55:40Z</time>
      </trkpt>
      <trkpt lat="49.02489" lon="-1.5059">
        <ele>15.7</ele>
        <time>2020-06-12T03:55:41Z</time>
      </trkpt>
      <trkpt lat="49.02494" lon="-1.50594">
        <ele>15.6</ele>
        <time>2020-06-12T03:55:42Z</time>
      </trkpt>
      <trkpt lat="49.02499" lon="-1.50598">
        <ele>15.5</ele>
        <time>2020-06-12T03:55:43Z</time>
      </trkpt>
      <trkpt lat="49.02504" lon="-1.50603">
        <ele>15.4</ele>
        <time>2020-06-12T03:55:44Z</time>
      </trkpt>
      <trkpt lat="49.02508" lon="-1.50607">
        <ele>15.3</ele>
        <time>2020-06-12T03:55:45Z</time>
      </trkpt>
      <trkpt lat="49.02514" lon="-1.50611">
        <ele>15.2</ele>
        <time>2020-06-12T03:55:46Z</time>
      </trkpt>
      <trkpt lat="49.02519" lon="-1.50616">
        <ele>15.1</ele>
        <time>2020-06-12T03:55:47Z</time>
      </trkpt>
      <trkpt lat="49.02524" lon="-1.50621">
        <ele>14.9</ele>
        <time>2020-06-12T03:55:48Z</time>
      </trkpt>
      <trkpt lat="49.02531" lon="-1.50625">
        <ele>14.8</ele>
        <time>2020-06-12T03:55:49Z</time>
      </trkpt>
      <trkpt lat="49.02535" lon="-1.5063">
        <ele>14.7</ele>
        <time>2020-06-12T03:55:50Z</time>
      </trkpt>
      <trkpt lat="49.0254" lon="-1.50635">
        <ele>14.6</ele>
        <time>2020-06-12T03:55:51Z</time>
      </trkpt>
      <trkpt lat="49.02543" lon="-1.5064">
        <ele>14.5</ele>
        <time>2020-06-12T03:55:52Z</time>
      </trkpt>
      <trkpt lat="49.02548" lon="-1.50644">
        <ele>14.4</ele>
        <time>2020-06-12T03:55:53Z</time>
      </trkpt>
      <trkpt lat="49.02552" lon="-1.50649">
        <ele>14.2</ele>
        <time>2020-06-12T03:55:54Z</time>
      </trkpt>
      <trkpt lat="49.02557" lon="-1.50654">
        <ele>14.1</ele>
        <time>2020-06-12T03:55:55Z</time>
      </trkpt>
      <trkpt lat="49.02562" lon="-1.5066">
        <ele>14</ele>
        <time>2020-06-12T03:55:56Z</time>
      </trkpt>
      <trkpt lat="49.02567" lon="-1.50666">
        <ele>13.9</ele>
        <time>2020-06-12T03:55:57Z</time>
      </trkpt>
      <trkpt lat="49.02571" lon="-1.5067">
        <ele>13.9</ele>
        <time>2020-06-12T03:55:58Z</time>
      </trkpt>
      <trkpt lat="49.02577" lon="-1.50676">
        <ele>13.8</ele>
        <time>2020-06-12T03:55:59Z</time>
      </trkpt>
      <trkpt lat="49.02582" lon="-1.50681">
        <ele>13.8</ele>
        <time>2020-06-12T03:56:00Z</time>
      </trkpt>
      <trkpt lat="49.02586" lon="-1.50687">
        <ele>13.8</ele>
        <time>2020-06-12T03:56:01Z</time>
      </trkpt>
      <trkpt lat="49.02591" lon="-1.50692">
        <ele>13.8</ele>
        <time>2020-06-12T03:56:02Z</time>
      </trkpt>
      <trkpt lat="49.02595" lon="-1.50697">
        <ele>13.7</ele>
        <time>2020-06-12T03:56:03Z</time>
      </trkpt>
      <trkpt lat="49.02599" lon="-1.50701">
        <ele>13.7</ele>
        <time>2020-06-12T03:56:04Z</time>
      </trkpt>
      <trkpt lat="49.02602" lon="-1.50708">
        <ele>13.6</ele>
        <time>2020-06-12T03:56:05Z</time>
      </trkpt>
      <trkpt lat="49.02607" lon="-1.50715">
        <ele>13.4</ele>
        <time>2020-06-12T03:56:06Z</time>
      </trkpt>
      <trkpt lat="49.02613" lon="-1.50722">
        <ele>13.3</ele>
        <time>2020-06-12T03:56:07Z</time>
      </trkpt>
      <trkpt lat="49.02618" lon="-1.50728">
        <ele>13.1</ele>
        <time>2020-06-12T03:56:08Z</time>
      </trkpt>
      <trkpt lat="49.02623" lon="-1.50734">
        <ele>13</ele>
        <time>2020-06-12T03:56:09Z</time>
      </trkpt>
      <trkpt lat="49.02628" lon="-1.5074">
        <ele>12.8</ele>
        <time>2020-06-12T03:56:10Z</time>
      </trkpt>
      <trkpt lat="49.02632" lon="-1.50747">
        <ele>12.7</ele>
        <time>2020-06-12T03:56:11Z</time>
      </trkpt>
      <trkpt lat="49.02636" lon="-1.50752">
        <ele>12.6</ele>
        <time>2020-06-12T03:56:12Z</time>
      </trkpt>
      <trkpt lat="49.02641" lon="-1.50758">
        <ele>12.5</ele>
        <time>2020-06-12T03:56:13Z</time>
      </trkpt>
      <trkpt lat="49.02645" lon="-1.50764">
        <ele>12.4</ele>
        <time>2020-06-12T03:56:14Z</time>
      </trkpt>
      <trkpt lat="49.02651" lon="-1.5077">
        <ele>12.4</ele>
        <time>2020-06-12T03:56:15Z</time>
      </trkpt>
      <trkpt lat="49.02655" lon="-1.50776">
        <ele>12.3</ele>
        <time>2020-06-12T03:56:16Z</time>
      </trkpt>
      <trkpt lat="49.02659" lon="-1.50783">
        <ele>12.3</ele>
        <time>2020-06-12T03:56:17Z</time>
      </trkpt>
      <trkpt lat="49.02663" lon="-1.5079">
        <ele>12.2</ele>
        <time>2020-06-12T03:56:18Z</time>
      </trkpt>
      <trkpt lat="49.02668" lon="-1.50797">
        <ele>12.2</ele>
        <time>2020-06-12T03:56:19Z</time>
      </trkpt>
      <trkpt lat="49.02673" lon="-1.50803">
        <ele>12.2</ele>
        <time>2020-06-12T03:56:20Z</time>
      </trkpt>
      <trkpt lat="49.02678" lon="-1.50809">
        <ele>12.3</ele>
        <time>2020-06-12T03:56:21Z</time>
      </trkpt>
      <trkpt lat="49.02684" lon="-1.50817">
        <ele>12.2</ele>
        <time>2020-06-12T03:56:22Z</time>
      </trkpt>
      <trkpt lat="49.02688" lon="-1.50823">
        <ele>12.2</ele>
        <time>2020-06-12T03:56:23Z</time>
      </trkpt>
      <trkpt lat="49.02692" lon="-1.5083">
        <ele>12.1</ele>
        <time>2020-06-12T03:56:24Z</time>
      </trkpt>
      <trkpt lat="49.02696" lon="-1.50835">
        <ele>12.1</ele>
        <time>2020-06-12T03:56:25Z</time>
      </trkpt>
      <trkpt lat="49.027" lon="-1.50842">
        <ele>12</ele>
        <time>2020-06-12T03:56:26Z</time>
      </trkpt>
      <trkpt lat="49.02703" lon="-1.50849">
        <ele>12</ele>
        <time>2020-06-12T03:56:27Z</time>
      </trkpt>
      <trkpt lat="49.02709" lon="-1.50857">
        <ele>11.9</ele>
        <time>2020-06-12T03:56:28Z</time>
      </trkpt>
      <trkpt lat="49.02712" lon="-1.50863">
        <ele>11.9</ele>
        <time>2020-06-12T03:56:29Z</time>
      </trkpt>
      <trkpt lat="49.02715" lon="-1.50869">
        <ele>11.9</ele>
        <time>2020-06-12T03:56:30Z</time>
      </trkpt>
      <trkpt lat="49.02719" lon="-1.50876">
        <ele>11.9</ele>
        <time>2020-06-12T03:56:31Z</time>
      </trkpt>
      <trkpt lat="49.02721" lon="-1.50883">
        <ele>11.9</ele>
        <time>2020-06-12T03:56:32Z</time>
      </trkpt>
      <trkpt lat="49.02725" lon="-1.50889">
        <ele>11.9</ele>
        <time>2020-06-12T03:56:33Z</time>
      </trkpt>
      <trkpt lat="49.02728" lon="-1.50894">
        <ele>11.9</ele>
        <time>2020-06-12T03:56:34Z</time>
      </trkpt>
      <trkpt lat="49.02732" lon="-1.50901">
        <ele>11.9</ele>
        <time>2020-06-12T03:56:35Z</time>
      </trkpt>
      <trkpt lat="49.02735" lon="-1.50905">
        <ele>11.9</ele>
        <time>2020-06-12T03:56:36Z</time>
      </trkpt>
      <trkpt lat="49.02736" lon="-1.50905">
        <ele>11.9</ele>
        <time>2020-06-12T03:56:37Z</time>
      </trkpt>
      <trkpt lat="49.02737" lon="-1.50909">
        <ele>12</ele>
        <time>2020-06-12T03:56:38Z</time>
      </trkpt>
      <trkpt lat="49.0274" lon="-1.50913">
        <ele>11.9</ele>
        <time>2020-06-12T03:56:39Z</time>
      </trkpt>
      <trkpt lat="49.02741" lon="-1.50914">
        <ele>11.9</ele>
        <time>2020-06-12T03:56:40Z</time>
      </trkpt>
      <trkpt lat="49.02743" lon="-1.5092">
        <ele>11.9</ele>
        <time>2020-06-12T03:56:41Z</time>
      </trkpt>
      <trkpt lat="49.02745" lon="-1.50922">
        <ele>11.9</ele>
        <time>2020-06-12T03:56:42Z</time>
      </trkpt>
      <trkpt lat="49.02747" lon="-1.50926">
        <ele>11.9</ele>
        <time>2020-06-12T03:56:43Z</time>
      </trkpt>
      <trkpt lat="49.02748" lon="-1.50927">
        <ele>11.9</ele>
        <time>2020-06-12T03:56:44Z</time>
      </trkpt>
      <trkpt lat="49.02751" lon="-1.5093">
        <ele>11.9</ele>
        <time>2020-06-12T03:56:45Z</time>
      </trkpt>
      <trkpt lat="49.02752" lon="-1.50932">
        <ele>11.9</ele>
        <time>2020-06-12T03:56:46Z</time>
      </trkpt>
      <trkpt lat="49.02754" lon="-1.50934">
        <ele>11.9</ele>
        <time>2020-06-12T03:56:47Z</time>
      </trkpt>
      <trkpt lat="49.02755" lon="-1.50936">
        <ele>11.9</ele>
        <time>2020-06-12T03:56:48Z</time>
      </trkpt>
      <trkpt lat="49.02756" lon="-1.50937">
        <ele>11.9</ele>
        <time>2020-06-12T03:56:49Z</time>
      </trkpt>
      <trkpt lat="49.02758" lon="-1.50939">
        <ele>11.9</ele>
        <time>2020-06-12T03:56:50Z</time>
      </trkpt>
      <trkpt lat="49.02759" lon="-1.5094">
        <ele>11.9</ele>
        <time>2020-06-12T03:56:51Z</time>
      </trkpt>
      <trkpt lat="49.02761" lon="-1.50941">
        <ele>11.9</ele>
        <time>2020-06-12T03:56:52Z</time>
      </trkpt>
      <trkpt lat="49.02762" lon="-1.50944">
        <ele>11.9</ele>
        <time>2020-06-12T03:56:53Z</time>
      </trkpt>
      <trkpt lat="49.02763" lon="-1.50945">
        <ele>11.9</ele>
        <time>2020-06-12T03:56:54Z</time>
      </trkpt>
      <trkpt lat="49.02763" lon="-1.50947">
        <ele>11.9</ele>
        <time>2020-06-12T03:56:55Z</time>
      </trkpt>
      <trkpt lat="49.02763" lon="-1.50947">
        <ele>11.9</ele>
        <time>2020-06-12T03:56:56Z</time>
      </trkpt>
      <trkpt lat="49.02762" lon="-1.50948">
        <ele>11.9</ele>
        <time>2020-06-12T03:56:57Z</time>
      </trkpt>
      <trkpt lat="49.02761" lon="-1.50947">
        <ele>11.9</ele>
        <time>2020-06-12T03:56:58Z</time>
      </trkpt>
      <trkpt lat="49.02761" lon="-1.50946">
        <ele>11.9</ele>
        <time>2020-06-12T03:56:59Z</time>
      </trkpt>
      <trkpt lat="49.02761" lon="-1.50946">
        <ele>11.9</ele>
        <time>2020-06-12T03:57:00Z</time>
      </trkpt>
      <trkpt lat="49.0276" lon="-1.50946">
        <ele>11.9</ele>
        <time>2020-06-12T03:57:01Z</time>
      </trkpt>
      <trkpt lat="49.0276" lon="-1.50946">
        <ele>11.9</ele>
        <time>2020-06-12T03:57:02Z</time>
      </trkpt>
      <trkpt lat="49.0276" lon="-1.50947">
        <ele>11.9</ele>
        <time>2020-06-12T03:57:03Z</time>
      </trkpt>
      <trkpt lat="49.0276" lon="-1.50947">
        <ele>11.9</ele>
        <time>2020-06-12T03:57:04Z</time>
      </trkpt>
      <trkpt lat="49.0276" lon="-1.50948">
        <ele>11.9</ele>
        <time>2020-06-12T03:57:05Z</time>
      </trkpt>
      <trkpt lat="49.02764" lon="-1.50949">
        <ele>11.9</ele>
        <time>2020-06-12T03:58:02Z</time>
      </trkpt>
      <trkpt lat="49.02765" lon="-1.5095">
        <ele>11.9</ele>
        <time>2020-06-12T03:58:03Z</time>
      </trkpt>
      <trkpt lat="49.02766" lon="-1.50951">
        <ele>11.9</ele>
        <time>2020-06-12T03:58:04Z</time>
      </trkpt>
      <trkpt lat="49.02767" lon="-1.50951">
        <ele>11.9</ele>
        <time>2020-06-12T03:58:05Z</time>
      </trkpt>
      <trkpt lat="49.02767" lon="-1.5095">
        <ele>11.9</ele>
        <time>2020-06-12T03:58:06Z</time>
      </trkpt>
      <trkpt lat="49.02767" lon="-1.5095">
        <ele>11.9</ele>
        <time>2020-06-12T03:58:07Z</time>
      </trkpt>
      <trkpt lat="49.02768" lon="-1.5095">
        <ele>11.9</ele>
        <time>2020-06-12T03:58:08Z</time>
      </trkpt>
      <trkpt lat="49.02768" lon="-1.50949">
        <ele>11.9</ele>
        <time>2020-06-12T03:58:09Z</time>
      </trkpt>
      <trkpt lat="49.02769" lon="-1.50949">
        <ele>11.9</ele>
        <time>2020-06-12T03:58:10Z</time>
      </trkpt>
      <trkpt lat="49.02769" lon="-1.50949">
        <ele>11.9</ele>
        <time>2020-06-12T03:58:11Z</time>
      </trkpt>
      <trkpt lat="49.0277" lon="-1.50948">
        <ele>11.9</ele>
        <time>2020-06-12T03:58:12Z</time>
      </trkpt>
      <trkpt lat="49.0277" lon="-1.50948">
        <ele>11.9</ele>
        <time>2020-06-12T03:58:13Z</time>
      </trkpt>
      <trkpt lat="49.0277" lon="-1.50948">
        <ele>11.9</ele>
        <time>2020-06-12T03:58:14Z</time>
      </trkpt>
      <trkpt lat="49.02771" lon="-1.50947">
        <ele>11.9</ele>
        <time>2020-06-12T03:59:06Z</time>
      </trkpt>
      <trkpt lat="49.02771" lon="-1.50947">
        <ele>11.9</ele>
        <time>2020-06-12T03:59:07Z</time>
      </trkpt>
      <trkpt lat="49.02772" lon="-1.50947">
        <ele>11.8</ele>
        <time>2020-06-12T03:59:08Z</time>
      </trkpt>
      <trkpt lat="49.02772" lon="-1.50946">
        <ele>11.8</ele>
        <time>2020-06-12T03:59:09Z</time>
      </trkpt>
      <trkpt lat="49.02772" lon="-1.50946">
        <ele>11.8</ele>
        <time>2020-06-12T03:59:10Z</time>
      </trkpt>
      <trkpt lat="49.02773" lon="-1.50946">
        <ele>11.8</ele>
        <time>2020-06-12T03:59:11Z</time>
      </trkpt>
      <trkpt lat="49.02773" lon="-1.50945">
        <ele>11.8</ele>
        <time>2020-06-12T03:59:12Z</time>
      </trkpt>
      <trkpt lat="49.02774" lon="-1.50945">
        <ele>11.8</ele>
        <time>2020-06-12T03:59:13Z</time>
      </trkpt>
      <trkpt lat="49.02774" lon="-1.50945">
        <ele>11.8</ele>
        <time>2020-06-12T03:59:14Z</time>
      </trkpt>
      <trkpt lat="49.02774" lon="-1.50944">
        <ele>11.8</ele>
        <time>2020-06-12T03:59:15Z</time>
      </trkpt>
      <trkpt lat="49.02775" lon="-1.50944">
        <ele>11.8</ele>
        <time>2020-06-12T03:59:16Z</time>
      </trkpt>
      <trkpt lat="49.02775" lon="-1.50944">
        <ele>11.8</ele>
        <time>2020-06-12T03:59:17Z</time>
      </trkpt>
      <trkpt lat="49.02776" lon="-1.50943">
        <ele>11.8</ele>
        <time>2020-06-12T04:04:26Z</time>
      </trkpt>
      <trkpt lat="49.02776" lon="-1.50943">
        <ele>11.8</ele>
        <time>2020-06-12T04:04:27Z</time>
      </trkpt>
      <trkpt lat="49.0278" lon="-1.50943">
        <ele>11.7</ele>
        <time>2020-06-12T04:04:28Z</time>
      </trkpt>
      <trkpt lat="49.02783" lon="-1.50943">
        <ele>11.7</ele>
        <time>2020-06-12T04:04:29Z</time>
      </trkpt>
      <trkpt lat="49.02786" lon="-1.50944">
        <ele>11.6</ele>
        <time>2020-06-12T04:04:30Z</time>
      </trkpt>
      <trkpt lat="49.0279" lon="-1.50946">
        <ele>11.5</ele>
        <time>2020-06-12T04:04:31Z</time>
      </trkpt>
      <trkpt lat="49.02794" lon="-1.50945">
        <ele>11.4</ele>
        <time>2020-06-12T04:04:32Z</time>
      </trkpt>
      <trkpt lat="49.02798" lon="-1.50948">
        <ele>11.3</ele>
        <time>2020-06-12T04:04:33Z</time>
      </trkpt>
      <trkpt lat="49.02803" lon="-1.50951">
        <ele>11.1</ele>
        <time>2020-06-12T04:04:34Z</time>
      </trkpt>
      <trkpt lat="49.02807" lon="-1.50955">
        <ele>11</ele>
        <time>2020-06-12T04:04:35Z</time>
      </trkpt>
      <trkpt lat="49.02811" lon="-1.50959">
        <ele>10.9</ele>
        <time>2020-06-12T04:04:36Z</time>
      </trkpt>
      <trkpt lat="49.02816" lon="-1.50965">
        <ele>10.8</ele>
        <time>2020-06-12T04:04:37Z</time>
      </trkpt>
      <trkpt lat="49.02821" lon="-1.50969">
        <ele>10.7</ele>
        <time>2020-06-12T04:04:38Z</time>
      </trkpt>
      <trkpt lat="49.02826" lon="-1.50974">
        <ele>10.7</ele>
        <time>2020-06-12T04:04:39Z</time>
      </trkpt>
      <trkpt lat="49.0283" lon="-1.50979">
        <ele>10.7</ele>
        <time>2020-06-12T04:04:40Z</time>
      </trkpt>
      <trkpt lat="49.02834" lon="-1.50983">
        <ele>10.7</ele>
        <time>2020-06-12T04:04:41Z</time>
      </trkpt>
      <trkpt lat="49.02837" lon="-1.50988">
        <ele>10.8</ele>
        <time>2020-06-12T04:04:42Z</time>
      </trkpt>
      <trkpt lat="49.0284" lon="-1.50993">
        <ele>10.8</ele>
        <time>2020-06-12T04:04:43Z</time>
      </trkpt>
      <trkpt lat="49.02843" lon="-1.50996">
        <ele>10.9</ele>
        <time>2020-06-12T04:04:44Z</time>
      </trkpt>
      <trkpt lat="49.02847" lon="-1.51">
        <ele>11</ele>
        <time>2020-06-12T04:04:45Z</time>
      </trkpt>
      <trkpt lat="49.02849" lon="-1.51004">
        <ele>11.1</ele>
        <time>2020-06-12T04:04:46Z</time>
      </trkpt>
      <trkpt lat="49.02853" lon="-1.51007">
        <ele>11.2</ele>
        <time>2020-06-12T04:04:47Z</time>
      </trkpt>
      <trkpt lat="49.02856" lon="-1.5101">
        <ele>11.3</ele>
        <time>2020-06-12T04:04:48Z</time>
      </trkpt>
      <trkpt lat="49.02859" lon="-1.51014">
        <ele>11.4</ele>
        <time>2020-06-12T04:04:49Z</time>
      </trkpt>
      <trkpt lat="49.02863" lon="-1.51017">
        <ele>11.5</ele>
        <time>2020-06-12T04:04:50Z</time>
      </trkpt>
      <trkpt lat="49.02865" lon="-1.51024">
        <ele>11.6</ele>
        <time>2020-06-12T04:04:51Z</time>
      </trkpt>
      <trkpt lat="49.02868" lon="-1.51028">
        <ele>11.7</ele>
        <time>2020-06-12T04:04:52Z</time>
      </trkpt>
      <trkpt lat="49.02871" lon="-1.51032">
        <ele>11.9</ele>
        <time>2020-06-12T04:04:53Z</time>
      </trkpt>
      <trkpt lat="49.02873" lon="-1.51036">
        <ele>12</ele>
        <time>2020-06-12T04:04:54Z</time>
      </trkpt>
      <trkpt lat="49.02876" lon="-1.51039">
        <ele>12.2</ele>
        <time>2020-06-12T04:04:55Z</time>
      </trkpt>
      <trkpt lat="49.02878" lon="-1.51042">
        <ele>12.3</ele>
        <time>2020-06-12T04:04:56Z</time>
      </trkpt>
      <trkpt lat="49.02881" lon="-1.51046">
        <ele>12.4</ele>
        <time>2020-06-12T04:04:57Z</time>
      </trkpt>
      <trkpt lat="49.02884" lon="-1.51048">
        <ele>12.5</ele>
        <time>2020-06-12T04:04:58Z</time>
      </trkpt>
      <trkpt lat="49.02887" lon="-1.51052">
        <ele>12.6</ele>
        <time>2020-06-12T04:04:59Z</time>
      </trkpt>
      <trkpt lat="49.0289" lon="-1.51055">
        <ele>12.8</ele>
        <time>2020-06-12T04:05:00Z</time>
      </trkpt>
      <trkpt lat="49.02893" lon="-1.51058">
        <ele>12.9</ele>
        <time>2020-06-12T04:05:01Z</time>
      </trkpt>
      <trkpt lat="49.02896" lon="-1.51061">
        <ele>13.1</ele>
        <time>2020-06-12T04:05:02Z</time>
      </trkpt>
      <trkpt lat="49.02898" lon="-1.51063">
        <ele>13.2</ele>
        <time>2020-06-12T04:05:03Z</time>
      </trkpt>
      <trkpt lat="49.02901" lon="-1.51066">
        <ele>13.4</ele>
        <time>2020-06-12T04:05:04Z</time>
      </trkpt>
      <trkpt lat="49.02905" lon="-1.51069">
        <ele>13.6</ele>
        <time>2020-06-12T04:05:05Z</time>
      </trkpt>
      <trkpt lat="49.02906" lon="-1.51071">
        <ele>13.7</ele>
        <time>2020-06-12T04:05:06Z</time>
      </trkpt>
      <trkpt lat="49.02908" lon="-1.51074">
        <ele>13.8</ele>
        <time>2020-06-12T04:05:07Z</time>
      </trkpt>
      <trkpt lat="49.02911" lon="-1.51077">
        <ele>14</ele>
        <time>2020-06-12T04:05:08Z</time>
      </trkpt>
      <trkpt lat="49.02913" lon="-1.51081">
        <ele>14.2</ele>
        <time>2020-06-12T04:05:09Z</time>
      </trkpt>
      <trkpt lat="49.02916" lon="-1.51086">
        <ele>14.4</ele>
        <time>2020-06-12T04:05:10Z</time>
      </trkpt>
      <trkpt lat="49.02918" lon="-1.51089">
        <ele>14.5</ele>
        <time>2020-06-12T04:05:11Z</time>
      </trkpt>
      <trkpt lat="49.02921" lon="-1.51093">
        <ele>14.7</ele>
        <time>2020-06-12T04:05:12Z</time>
      </trkpt>
      <trkpt lat="49.02923" lon="-1.51096">
        <ele>14.9</ele>
        <time>2020-06-12T04:05:13Z</time>
      </trkpt>
      <trkpt lat="49.02926" lon="-1.511">
        <ele>15</ele>
        <time>2020-06-12T04:05:14Z</time>
      </trkpt>
      <trkpt lat="49.02928" lon="-1.51103">
        <ele>15.2</ele>
        <time>2020-06-12T04:05:15Z</time>
      </trkpt>
      <trkpt lat="49.02931" lon="-1.51107">
        <ele>15.3</ele>
        <time>2020-06-12T04:05:16Z</time>
      </trkpt>
      <trkpt lat="49.02934" lon="-1.51109">
        <ele>15.5</ele>
        <time>2020-06-12T04:05:17Z</time>
      </trkpt>
      <trkpt lat="49.02936" lon="-1.51111">
        <ele>15.6</ele>
        <time>2020-06-12T04:05:18Z</time>
      </trkpt>
      <trkpt lat="49.02939" lon="-1.51114">
        <ele>15.7</ele>
        <time>2020-06-12T04:05:19Z</time>
      </trkpt>
      <trkpt lat="49.02942" lon="-1.51116">
        <ele>15.9</ele>
        <time>2020-06-12T04:05:20Z</time>
      </trkpt>
      <trkpt lat="49.02946" lon="-1.51118">
        <ele>16</ele>
        <time>2020-06-12T04:05:21Z</time>
      </trkpt>
      <trkpt lat="49.02949" lon="-1.5112">
        <ele>16.2</ele>
        <time>2020-06-12T04:05:22Z</time>
      </trkpt>
      <trkpt lat="49.02953" lon="-1.51122">
        <ele>16.3</ele>
        <time>2020-06-12T04:05:23Z</time>
      </trkpt>
      <trkpt lat="49.02954" lon="-1.51128">
        <ele>16.5</ele>
        <time>2020-06-12T04:05:24Z</time>
      </trkpt>
      <trkpt lat="49.02957" lon="-1.5113">
        <ele>16.6</ele>
        <time>2020-06-12T04:05:25Z</time>
      </trkpt>
      <trkpt lat="49.02958" lon="-1.51131">
        <ele>16.7</ele>
        <time>2020-06-12T04:05:26Z</time>
      </trkpt>
      <trkpt lat="49.0296" lon="-1.51135">
        <ele>16.8</ele>
        <time>2020-06-12T04:05:27Z</time>
      </trkpt>
      <trkpt lat="49.02963" lon="-1.51138">
        <ele>17</ele>
        <time>2020-06-12T04:05:28Z</time>
      </trkpt>
      <trkpt lat="49.02966" lon="-1.51142">
        <ele>17.1</ele>
        <time>2020-06-12T04:05:29Z</time>
      </trkpt>
      <trkpt lat="49.02969" lon="-1.51145">
        <ele>17.2</ele>
        <time>2020-06-12T04:05:30Z</time>
      </trkpt>
      <trkpt lat="49.02972" lon="-1.51148">
        <ele>17.3</ele>
        <time>2020-06-12T04:05:31Z</time>
      </trkpt>
      <trkpt lat="49.02975" lon="-1.51152">
        <ele>17.5</ele>
        <time>2020-06-12T04:05:32Z</time>
      </trkpt>
      <trkpt lat="49.02978" lon="-1.51157">
        <ele>17.6</ele>
        <time>2020-06-12T04:05:33Z</time>
      </trkpt>
      <trkpt lat="49.02981" lon="-1.51162">
        <ele>17.7</ele>
        <time>2020-06-12T04:05:34Z</time>
      </trkpt>
      <trkpt lat="49.02984" lon="-1.51166">
        <ele>17.8</ele>
        <time>2020-06-12T04:05:35Z</time>
      </trkpt>
      <trkpt lat="49.02986" lon="-1.51169">
        <ele>17.8</ele>
        <time>2020-06-12T04:05:36Z</time>
      </trkpt>
      <trkpt lat="49.02989" lon="-1.51174">
        <ele>17.9</ele>
        <time>2020-06-12T04:05:37Z</time>
      </trkpt>
      <trkpt lat="49.02992" lon="-1.51178">
        <ele>18</ele>
        <time>2020-06-12T04:05:38Z</time>
      </trkpt>
      <trkpt lat="49.02996" lon="-1.51181">
        <ele>18</ele>
        <time>2020-06-12T04:05:39Z</time>
      </trkpt>
      <trkpt lat="49.02999" lon="-1.51185">
        <ele>18.1</ele>
        <time>2020-06-12T04:05:40Z</time>
      </trkpt>
      <trkpt lat="49.03002" lon="-1.51189">
        <ele>18.1</ele>
        <time>2020-06-12T04:05:41Z</time>
      </trkpt>
      <trkpt lat="49.03006" lon="-1.51193">
        <ele>18.2</ele>
        <time>2020-06-12T04:05:42Z</time>
      </trkpt>
      <trkpt lat="49.03009" lon="-1.51197">
        <ele>18.2</ele>
        <time>2020-06-12T04:05:43Z</time>
      </trkpt>
      <trkpt lat="49.03012" lon="-1.512">
        <ele>18.2</ele>
        <time>2020-06-12T04:05:44Z</time>
      </trkpt>
      <trkpt lat="49.03015" lon="-1.51205">
        <ele>18.3</ele>
        <time>2020-06-12T04:05:45Z</time>
      </trkpt>
      <trkpt lat="49.03018" lon="-1.51209">
        <ele>18.3</ele>
        <time>2020-06-12T04:05:46Z</time>
      </trkpt>
      <trkpt lat="49.03021" lon="-1.51213">
        <ele>18.4</ele>
        <time>2020-06-12T04:05:47Z</time>
      </trkpt>
      <trkpt lat="49.03024" lon="-1.51218">
        <ele>18.4</ele>
        <time>2020-06-12T04:05:48Z</time>
      </trkpt>
      <trkpt lat="49.03027" lon="-1.51222">
        <ele>18.5</ele>
        <time>2020-06-12T04:05:49Z</time>
      </trkpt>
      <trkpt lat="49.0303" lon="-1.51227">
        <ele>18.5</ele>
        <time>2020-06-12T04:05:50Z</time>
      </trkpt>
      <trkpt lat="49.03033" lon="-1.51231">
        <ele>18.5</ele>
        <time>2020-06-12T04:05:51Z</time>
      </trkpt>
      <trkpt lat="49.03035" lon="-1.51235">
        <ele>18.6</ele>
        <time>2020-06-12T04:05:52Z</time>
      </trkpt>
      <trkpt lat="49.03039" lon="-1.5124">
        <ele>18.6</ele>
        <time>2020-06-12T04:05:53Z</time>
      </trkpt>
      <trkpt lat="49.03043" lon="-1.51246">
        <ele>18.9</ele>
        <time>2020-06-12T04:05:54Z</time>
      </trkpt>
      <trkpt lat="49.03045" lon="-1.51251">
        <ele>19</ele>
        <time>2020-06-12T04:05:55Z</time>
      </trkpt>
      <trkpt lat="49.03048" lon="-1.51256">
        <ele>19</ele>
        <time>2020-06-12T04:05:56Z</time>
      </trkpt>
      <trkpt lat="49.03051" lon="-1.51261">
        <ele>19</ele>
        <time>2020-06-12T04:05:57Z</time>
      </trkpt>
      <trkpt lat="49.03053" lon="-1.51268">
        <ele>19</ele>
        <time>2020-06-12T04:05:58Z</time>
      </trkpt>
      <trkpt lat="49.03056" lon="-1.51274">
        <ele>18.9</ele>
        <time>2020-06-12T04:05:59Z</time>
      </trkpt>
      <trkpt lat="49.03059" lon="-1.51281">
        <ele>18.9</ele>
        <time>2020-06-12T04:06:00Z</time>
      </trkpt>
      <trkpt lat="49.03063" lon="-1.51286">
        <ele>18.8</ele>
        <time>2020-06-12T04:06:01Z</time>
      </trkpt>
      <trkpt lat="49.03066" lon="-1.51292">
        <ele>18.8</ele>
        <time>2020-06-12T04:06:02Z</time>
      </trkpt>
      <trkpt lat="49.0307" lon="-1.51298">
        <ele>18.8</ele>
        <time>2020-06-12T04:06:03Z</time>
      </trkpt>
      <trkpt lat="49.03073" lon="-1.51304">
        <ele>18.7</ele>
        <time>2020-06-12T04:06:04Z</time>
      </trkpt>
      <trkpt lat="49.03076" lon="-1.5131">
        <ele>18.7</ele>
        <time>2020-06-12T04:06:05Z</time>
      </trkpt>
      <trkpt lat="49.03078" lon="-1.51315">
        <ele>18.7</ele>
        <time>2020-06-12T04:06:06Z</time>
      </trkpt>
      <trkpt lat="49.03081" lon="-1.51321">
        <ele>18.6</ele>
        <time>2020-06-12T04:06:07Z</time>
      </trkpt>
      <trkpt lat="49.03085" lon="-1.51326">
        <ele>18.6</ele>
        <time>2020-06-12T04:06:08Z</time>
      </trkpt>
      <trkpt lat="49.03088" lon="-1.51332">
        <ele>18.5</ele>
        <time>2020-06-12T04:06:09Z</time>
      </trkpt>
      <trkpt lat="49.03092" lon="-1.51338">
        <ele>18.4</ele>
        <time>2020-06-12T04:06:10Z</time>
      </trkpt>
      <trkpt lat="49.03096" lon="-1.51344">
        <ele>18.3</ele>
        <time>2020-06-12T04:06:11Z</time>
      </trkpt>
      <trkpt lat="49.03099" lon="-1.5135">
        <ele>18.2</ele>
        <time>2020-06-12T04:06:12Z</time>
      </trkpt>
      <trkpt lat="49.03102" lon="-1.51357">
        <ele>18.2</ele>
        <time>2020-06-12T04:06:13Z</time>
      </trkpt>
      <trkpt lat="49.03106" lon="-1.51364">
        <ele>18.2</ele>
        <time>2020-06-12T04:06:14Z</time>
      </trkpt>
      <trkpt lat="49.03108" lon="-1.5137">
        <ele>18.1</ele>
        <time>2020-06-12T04:06:15Z</time>
      </trkpt>
      <trkpt lat="49.03111" lon="-1.51376">
        <ele>18.1</ele>
        <time>2020-06-12T04:06:16Z</time>
      </trkpt>
      <trkpt lat="49.03114" lon="-1.51381">
        <ele>18.1</ele>
        <time>2020-06-12T04:06:17Z</time>
      </trkpt>
      <trkpt lat="49.03116" lon="-1.51386">
        <ele>18.1</ele>
        <time>2020-06-12T04:06:18Z</time>
      </trkpt>
      <trkpt lat="49.03118" lon="-1.51391">
        <ele>18.1</ele>
        <time>2020-06-12T04:06:19Z</time>
      </trkpt>
      <trkpt lat="49.03121" lon="-1.51398">
        <ele>18</ele>
        <time>2020-06-12T04:06:20Z</time>
      </trkpt>
      <trkpt lat="49.03123" lon="-1.51404">
        <ele>18</ele>
        <time>2020-06-12T04:06:21Z</time>
      </trkpt>
      <trkpt lat="49.03126" lon="-1.5141">
        <ele>18</ele>
        <time>2020-06-12T04:06:22Z</time>
      </trkpt>
      <trkpt lat="49.0313" lon="-1.51416">
        <ele>17.9</ele>
        <time>2020-06-12T04:06:23Z</time>
      </trkpt>
      <trkpt lat="49.03132" lon="-1.51423">
        <ele>17.8</ele>
        <time>2020-06-12T04:06:24Z</time>
      </trkpt>
      <trkpt lat="49.03135" lon="-1.51431">
        <ele>17.7</ele>
        <time>2020-06-12T04:06:25Z</time>
      </trkpt>
      <trkpt lat="49.03138" lon="-1.51439">
        <ele>17.6</ele>
        <time>2020-06-12T04:06:26Z</time>
      </trkpt>
      <trkpt lat="49.0314" lon="-1.51446">
        <ele>17.5</ele>
        <time>2020-06-12T04:06:27Z</time>
      </trkpt>
      <trkpt lat="49.03141" lon="-1.51452">
        <ele>17.4</ele>
        <time>2020-06-12T04:06:28Z</time>
      </trkpt>
      <trkpt lat="49.03143" lon="-1.51459">
        <ele>17.3</ele>
        <time>2020-06-12T04:06:29Z</time>
      </trkpt>
      <trkpt lat="49.03145" lon="-1.51465">
        <ele>17.1</ele>
        <time>2020-06-12T04:06:30Z</time>
      </trkpt>
      <trkpt lat="49.03147" lon="-1.51472">
        <ele>17</ele>
        <time>2020-06-12T04:06:31Z</time>
      </trkpt>
      <trkpt lat="49.0315" lon="-1.51479">
        <ele>16.8</ele>
        <time>2020-06-12T04:06:32Z</time>
      </trkpt>
      <trkpt lat="49.03152" lon="-1.51486">
        <ele>16.7</ele>
        <time>2020-06-12T04:06:33Z</time>
      </trkpt>
      <trkpt lat="49.03155" lon="-1.51493">
        <ele>16.5</ele>
        <time>2020-06-12T04:06:34Z</time>
      </trkpt>
      <trkpt lat="49.03158" lon="-1.515">
        <ele>16.5</ele>
        <time>2020-06-12T04:06:35Z</time>
      </trkpt>
      <trkpt lat="49.0316" lon="-1.51507">
        <ele>16.4</ele>
        <time>2020-06-12T04:06:36Z</time>
      </trkpt>
      <trkpt lat="49.03163" lon="-1.51515">
        <ele>16.3</ele>
        <time>2020-06-12T04:06:37Z</time>
      </trkpt>
      <trkpt lat="49.03167" lon="-1.51523">
        <ele>16.2</ele>
        <time>2020-06-12T04:06:38Z</time>
      </trkpt>
      <trkpt lat="49.0317" lon="-1.5153">
        <ele>16.1</ele>
        <time>2020-06-12T04:06:39Z</time>
      </trkpt>
      <trkpt lat="49.03174" lon="-1.51537">
        <ele>16</ele>
        <time>2020-06-12T04:06:40Z</time>
      </trkpt>
      <trkpt lat="49.03179" lon="-1.51544">
        <ele>15.9</ele>
        <time>2020-06-12T04:06:41Z</time>
      </trkpt>
      <trkpt lat="49.03183" lon="-1.51551">
        <ele>15.8</ele>
        <time>2020-06-12T04:06:42Z</time>
      </trkpt>
      <trkpt lat="49.03188" lon="-1.51558">
        <ele>15.8</ele>
        <time>2020-06-12T04:06:43Z</time>
      </trkpt>
      <trkpt lat="49.03192" lon="-1.51565">
        <ele>15.8</ele>
        <time>2020-06-12T04:06:44Z</time>
      </trkpt>
      <trkpt lat="49.03195" lon="-1.51571">
        <ele>15.8</ele>
        <time>2020-06-12T04:06:45Z</time>
      </trkpt>
      <trkpt lat="49.03198" lon="-1.51577">
        <ele>15.8</ele>
        <time>2020-06-12T04:06:46Z</time>
      </trkpt>
      <trkpt lat="49.03201" lon="-1.51583">
        <ele>15.8</ele>
        <time>2020-06-12T04:06:47Z</time>
      </trkpt>
      <trkpt lat="49.03204" lon="-1.5159">
        <ele>15.8</ele>
        <time>2020-06-12T04:06:48Z</time>
      </trkpt>
      <trkpt lat="49.03208" lon="-1.51596">
        <ele>15.9</ele>
        <time>2020-06-12T04:06:49Z</time>
      </trkpt>
      <trkpt lat="49.03212" lon="-1.51603">
        <ele>15.9</ele>
        <time>2020-06-12T04:06:50Z</time>
      </trkpt>
      <trkpt lat="49.03215" lon="-1.51608">
        <ele>15.9</ele>
        <time>2020-06-12T04:06:51Z</time>
      </trkpt>
      <trkpt lat="49.03218" lon="-1.51615">
        <ele>15.9</ele>
        <time>2020-06-12T04:06:52Z</time>
      </trkpt>
      <trkpt lat="49.03222" lon="-1.51619">
        <ele>15.8</ele>
        <time>2020-06-12T04:06:53Z</time>
      </trkpt>
      <trkpt lat="49.03226" lon="-1.51624">
        <ele>15.8</ele>
        <time>2020-06-12T04:06:54Z</time>
      </trkpt>
      <trkpt lat="49.0323" lon="-1.51629">
        <ele>15.8</ele>
        <time>2020-06-12T04:06:55Z</time>
      </trkpt>
      <trkpt lat="49.03233" lon="-1.51635">
        <ele>15.7</ele>
        <time>2020-06-12T04:06:56Z</time>
      </trkpt>
      <trkpt lat="49.03236" lon="-1.51641">
        <ele>15.6</ele>
        <time>2020-06-12T04:06:57Z</time>
      </trkpt>
      <trkpt lat="49.03239" lon="-1.51647">
        <ele>15.6</ele>
        <time>2020-06-12T04:06:58Z</time>
      </trkpt>
      <trkpt lat="49.03243" lon="-1.51653">
        <ele>15.5</ele>
        <time>2020-06-12T04:06:59Z</time>
      </trkpt>
      <trkpt lat="49.03247" lon="-1.51659">
        <ele>15.4</ele>
        <time>2020-06-12T04:07:00Z</time>
      </trkpt>
      <trkpt lat="49.03251" lon="-1.51665">
        <ele>15.3</ele>
        <time>2020-06-12T04:07:01Z</time>
      </trkpt>
      <trkpt lat="49.03255" lon="-1.51671">
        <ele>15.3</ele>
        <time>2020-06-12T04:07:02Z</time>
      </trkpt>
      <trkpt lat="49.03259" lon="-1.51676">
        <ele>15.2</ele>
        <time>2020-06-12T04:07:03Z</time>
      </trkpt>
      <trkpt lat="49.03263" lon="-1.51682">
        <ele>15.1</ele>
        <time>2020-06-12T04:07:04Z</time>
      </trkpt>
      <trkpt lat="49.03267" lon="-1.51689">
        <ele>15.1</ele>
        <time>2020-06-12T04:07:05Z</time>
      </trkpt>
      <trkpt lat="49.0327" lon="-1.51694">
        <ele>15</ele>
        <time>2020-06-12T04:07:06Z</time>
      </trkpt>
      <trkpt lat="49.03274" lon="-1.517">
        <ele>14.9</ele>
        <time>2020-06-12T04:07:07Z</time>
      </trkpt>
      <trkpt lat="49.03278" lon="-1.51706">
        <ele>14.8</ele>
        <time>2020-06-12T04:07:08Z</time>
      </trkpt>
      <trkpt lat="49.03282" lon="-1.51712">
        <ele>14.7</ele>
        <time>2020-06-12T04:07:09Z</time>
      </trkpt>
      <trkpt lat="49.03287" lon="-1.51718">
        <ele>14.5</ele>
        <time>2020-06-12T04:07:10Z</time>
      </trkpt>
      <trkpt lat="49.03292" lon="-1.51725">
        <ele>14.3</ele>
        <time>2020-06-12T04:07:11Z</time>
      </trkpt>
      <trkpt lat="49.03296" lon="-1.51732">
        <ele>14.1</ele>
        <time>2020-06-12T04:07:12Z</time>
      </trkpt>
      <trkpt lat="49.033" lon="-1.51738">
        <ele>14</ele>
        <time>2020-06-12T04:07:13Z</time>
      </trkpt>
      <trkpt lat="49.03303" lon="-1.51744">
        <ele>13.8</ele>
        <time>2020-06-12T04:07:14Z</time>
      </trkpt>
      <trkpt lat="49.03307" lon="-1.51751">
        <ele>13.6</ele>
        <time>2020-06-12T04:07:15Z</time>
      </trkpt>
      <trkpt lat="49.03311" lon="-1.51757">
        <ele>13.4</ele>
        <time>2020-06-12T04:07:16Z</time>
      </trkpt>
      <trkpt lat="49.03314" lon="-1.51764">
        <ele>13.2</ele>
        <time>2020-06-12T04:07:17Z</time>
      </trkpt>
      <trkpt lat="49.03317" lon="-1.5177">
        <ele>13.1</ele>
        <time>2020-06-12T04:07:18Z</time>
      </trkpt>
      <trkpt lat="49.03321" lon="-1.51777">
        <ele>12.9</ele>
        <time>2020-06-12T04:07:19Z</time>
      </trkpt>
      <trkpt lat="49.03324" lon="-1.51783">
        <ele>12.7</ele>
        <time>2020-06-12T04:07:20Z</time>
      </trkpt>
      <trkpt lat="49.03329" lon="-1.51789">
        <ele>12.5</ele>
        <time>2020-06-12T04:07:21Z</time>
      </trkpt>
      <trkpt lat="49.03333" lon="-1.51795">
        <ele>12.3</ele>
        <time>2020-06-12T04:07:22Z</time>
      </trkpt>
      <trkpt lat="49.03336" lon="-1.51801">
        <ele>12.1</ele>
        <time>2020-06-12T04:07:23Z</time>
      </trkpt>
      <trkpt lat="49.0334" lon="-1.51809">
        <ele>11.9</ele>
        <time>2020-06-12T04:07:24Z</time>
      </trkpt>
      <trkpt lat="49.03344" lon="-1.51816">
        <ele>11.7</ele>
        <time>2020-06-12T04:07:25Z</time>
      </trkpt>
      <trkpt lat="49.03348" lon="-1.51824">
        <ele>11.4</ele>
        <time>2020-06-12T04:07:26Z</time>
      </trkpt>
      <trkpt lat="49.03353" lon="-1.51832">
        <ele>11.1</ele>
        <time>2020-06-12T04:07:27Z</time>
      </trkpt>
      <trkpt lat="49.0336" lon="-1.5184">
        <ele>10.9</ele>
        <time>2020-06-12T04:07:28Z</time>
      </trkpt>
      <trkpt lat="49.03365" lon="-1.51849">
        <ele>10.8</ele>
        <time>2020-06-12T04:07:29Z</time>
      </trkpt>
      <trkpt lat="49.0337" lon="-1.51858">
        <ele>10.6</ele>
        <time>2020-06-12T04:07:30Z</time>
      </trkpt>
      <trkpt lat="49.03375" lon="-1.51867">
        <ele>10.5</ele>
        <time>2020-06-12T04:07:31Z</time>
      </trkpt>
      <trkpt lat="49.03379" lon="-1.51876">
        <ele>10.5</ele>
        <time>2020-06-12T04:07:32Z</time>
      </trkpt>
      <trkpt lat="49.03383" lon="-1.51884">
        <ele>10.5</ele>
        <time>2020-06-12T04:07:33Z</time>
      </trkpt>
      <trkpt lat="49.03387" lon="-1.51891">
        <ele>10.5</ele>
        <time>2020-06-12T04:07:34Z</time>
      </trkpt>
      <trkpt lat="49.03391" lon="-1.51898">
        <ele>10.5</ele>
        <time>2020-06-12T04:07:35Z</time>
      </trkpt>
      <trkpt lat="49.03394" lon="-1.51906">
        <ele>10.7</ele>
        <time>2020-06-12T04:07:36Z</time>
      </trkpt>
      <trkpt lat="49.03397" lon="-1.51913">
        <ele>10.9</ele>
        <time>2020-06-12T04:07:37Z</time>
      </trkpt>
      <trkpt lat="49.03399" lon="-1.51919">
        <ele>11</ele>
        <time>2020-06-12T04:07:38Z</time>
      </trkpt>
      <trkpt lat="49.03401" lon="-1.51925">
        <ele>11.1</ele>
        <time>2020-06-12T04:07:39Z</time>
      </trkpt>
      <trkpt lat="49.03403" lon="-1.51931">
        <ele>11.3</ele>
        <time>2020-06-12T04:07:40Z</time>
      </trkpt>
      <trkpt lat="49.03405" lon="-1.51937">
        <ele>11.4</ele>
        <time>2020-06-12T04:07:41Z</time>
      </trkpt>
      <trkpt lat="49.03408" lon="-1.51943">
        <ele>11.6</ele>
        <time>2020-06-12T04:07:42Z</time>
      </trkpt>
      <trkpt lat="49.0341" lon="-1.51949">
        <ele>11.7</ele>
        <time>2020-06-12T04:07:43Z</time>
      </trkpt>
      <trkpt lat="49.03412" lon="-1.51955">
        <ele>11.9</ele>
        <time>2020-06-12T04:07:44Z</time>
      </trkpt>
      <trkpt lat="49.03415" lon="-1.51961">
        <ele>12</ele>
        <time>2020-06-12T04:07:45Z</time>
      </trkpt>
      <trkpt lat="49.03417" lon="-1.51967">
        <ele>12.2</ele>
        <time>2020-06-12T04:07:46Z</time>
      </trkpt>
      <trkpt lat="49.03418" lon="-1.51973">
        <ele>12.3</ele>
        <time>2020-06-12T04:07:47Z</time>
      </trkpt>
      <trkpt lat="49.0342" lon="-1.51979">
        <ele>12.5</ele>
        <time>2020-06-12T04:07:48Z</time>
      </trkpt>
      <trkpt lat="49.03422" lon="-1.51984">
        <ele>12.7</ele>
        <time>2020-06-12T04:07:49Z</time>
      </trkpt>
      <trkpt lat="49.03423" lon="-1.5199">
        <ele>12.8</ele>
        <time>2020-06-12T04:07:50Z</time>
      </trkpt>
      <trkpt lat="49.03425" lon="-1.51995">
        <ele>13</ele>
        <time>2020-06-12T04:07:51Z</time>
      </trkpt>
      <trkpt lat="49.03427" lon="-1.52">
        <ele>13.1</ele>
        <time>2020-06-12T04:07:52Z</time>
      </trkpt>
      <trkpt lat="49.03428" lon="-1.52006">
        <ele>13.3</ele>
        <time>2020-06-12T04:07:53Z</time>
      </trkpt>
      <trkpt lat="49.03429" lon="-1.52011">
        <ele>13.4</ele>
        <time>2020-06-12T04:07:54Z</time>
      </trkpt>
      <trkpt lat="49.0343" lon="-1.52017">
        <ele>13.5</ele>
        <time>2020-06-12T04:07:55Z</time>
      </trkpt>
      <trkpt lat="49.03432" lon="-1.52024">
        <ele>13.6</ele>
        <time>2020-06-12T04:07:56Z</time>
      </trkpt>
      <trkpt lat="49.03434" lon="-1.5203">
        <ele>13.7</ele>
        <time>2020-06-12T04:07:57Z</time>
      </trkpt>
      <trkpt lat="49.03436" lon="-1.52036">
        <ele>13.8</ele>
        <time>2020-06-12T04:07:58Z</time>
      </trkpt>
      <trkpt lat="49.03437" lon="-1.5204">
        <ele>13.8</ele>
        <time>2020-06-12T04:07:59Z</time>
      </trkpt>
      <trkpt lat="49.03439" lon="-1.52045">
        <ele>13.9</ele>
        <time>2020-06-12T04:08:00Z</time>
      </trkpt>
      <trkpt lat="49.0344" lon="-1.52047">
        <ele>13.9</ele>
        <time>2020-06-12T04:08:01Z</time>
      </trkpt>
      <trkpt lat="49.03442" lon="-1.52053">
        <ele>14</ele>
        <time>2020-06-12T04:08:02Z</time>
      </trkpt>
      <trkpt lat="49.03444" lon="-1.52057">
        <ele>14</ele>
        <time>2020-06-12T04:08:03Z</time>
      </trkpt>
      <trkpt lat="49.03446" lon="-1.52063">
        <ele>14.1</ele>
        <time>2020-06-12T04:08:04Z</time>
      </trkpt>
      <trkpt lat="49.03446" lon="-1.52065">
        <ele>14.1</ele>
        <time>2020-06-12T04:08:05Z</time>
      </trkpt>
      <trkpt lat="49.03448" lon="-1.52071">
        <ele>14.2</ele>
        <time>2020-06-12T04:08:06Z</time>
      </trkpt>
      <trkpt lat="49.03449" lon="-1.52077">
        <ele>14.3</ele>
        <time>2020-06-12T04:08:07Z</time>
      </trkpt>
      <trkpt lat="49.03451" lon="-1.52083">
        <ele>14.3</ele>
        <time>2020-06-12T04:08:08Z</time>
      </trkpt>
      <trkpt lat="49.03452" lon="-1.52089">
        <ele>14.4</ele>
        <time>2020-06-12T04:08:09Z</time>
      </trkpt>
      <trkpt lat="49.03454" lon="-1.52095">
        <ele>14.4</ele>
        <time>2020-06-12T04:08:10Z</time>
      </trkpt>
      <trkpt lat="49.03456" lon="-1.521">
        <ele>14.5</ele>
        <time>2020-06-12T04:08:11Z</time>
      </trkpt>
      <trkpt lat="49.03458" lon="-1.52105">
        <ele>14.5</ele>
        <time>2020-06-12T04:08:12Z</time>
      </trkpt>
      <trkpt lat="49.0346" lon="-1.52109">
        <ele>14.5</ele>
        <time>2020-06-12T04:08:13Z</time>
      </trkpt>
      <trkpt lat="49.03461" lon="-1.52115">
        <ele>14.5</ele>
        <time>2020-06-12T04:08:14Z</time>
      </trkpt>
      <trkpt lat="49.03463" lon="-1.5212">
        <ele>14.4</ele>
        <time>2020-06-12T04:08:15Z</time>
      </trkpt>
      <trkpt lat="49.03464" lon="-1.52127">
        <ele>14.4</ele>
        <time>2020-06-12T04:08:16Z</time>
      </trkpt>
      <trkpt lat="49.03467" lon="-1.52133">
        <ele>14.3</ele>
        <time>2020-06-12T04:08:17Z</time>
      </trkpt>
      <trkpt lat="49.03469" lon="-1.5214">
        <ele>14.3</ele>
        <time>2020-06-12T04:08:18Z</time>
      </trkpt>
      <trkpt lat="49.03471" lon="-1.52146">
        <ele>14.2</ele>
        <time>2020-06-12T04:08:19Z</time>
      </trkpt>
      <trkpt lat="49.03473" lon="-1.52153">
        <ele>14.1</ele>
        <time>2020-06-12T04:08:20Z</time>
      </trkpt>
      <trkpt lat="49.03476" lon="-1.5216">
        <ele>14</ele>
        <time>2020-06-12T04:08:21Z</time>
      </trkpt>
      <trkpt lat="49.03479" lon="-1.52167">
        <ele>13.9</ele>
        <time>2020-06-12T04:08:22Z</time>
      </trkpt>
      <trkpt lat="49.03481" lon="-1.52174">
        <ele>13.7</ele>
        <time>2020-06-12T04:08:23Z</time>
      </trkpt>
      <trkpt lat="49.03483" lon="-1.52182">
        <ele>13.5</ele>
        <time>2020-06-12T04:08:24Z</time>
      </trkpt>
      <trkpt lat="49.03485" lon="-1.5219">
        <ele>13.3</ele>
        <time>2020-06-12T04:08:25Z</time>
      </trkpt>
      <trkpt lat="49.03487" lon="-1.52198">
        <ele>13.2</ele>
        <time>2020-06-12T04:08:26Z</time>
      </trkpt>
      <trkpt lat="49.03488" lon="-1.52207">
        <ele>13</ele>
        <time>2020-06-12T04:08:27Z</time>
      </trkpt>
      <trkpt lat="49.0349" lon="-1.52216">
        <ele>12.8</ele>
        <time>2020-06-12T04:08:28Z</time>
      </trkpt>
      <trkpt lat="49.0349" lon="-1.52225">
        <ele>12.7</ele>
        <time>2020-06-12T04:08:29Z</time>
      </trkpt>
      <trkpt lat="49.03493" lon="-1.52234">
        <ele>12.5</ele>
        <time>2020-06-12T04:08:30Z</time>
      </trkpt>
      <trkpt lat="49.03495" lon="-1.52243">
        <ele>12.3</ele>
        <time>2020-06-12T04:08:31Z</time>
      </trkpt>
      <trkpt lat="49.03497" lon="-1.52252">
        <ele>12.2</ele>
        <time>2020-06-12T04:08:32Z</time>
      </trkpt>
      <trkpt lat="49.03497" lon="-1.5226">
        <ele>12</ele>
        <time>2020-06-12T04:08:33Z</time>
      </trkpt>
      <trkpt lat="49.03499" lon="-1.52268">
        <ele>11.8</ele>
        <time>2020-06-12T04:08:34Z</time>
      </trkpt>
      <trkpt lat="49.03501" lon="-1.52276">
        <ele>11.6</ele>
        <time>2020-06-12T04:08:35Z</time>
      </trkpt>
      <trkpt lat="49.03503" lon="-1.52287">
        <ele>11.4</ele>
        <time>2020-06-12T04:08:36Z</time>
      </trkpt>
      <trkpt lat="49.03504" lon="-1.52297">
        <ele>11.2</ele>
        <time>2020-06-12T04:08:37Z</time>
      </trkpt>
      <trkpt lat="49.03506" lon="-1.52307">
        <ele>11</ele>
        <time>2020-06-12T04:08:38Z</time>
      </trkpt>
      <trkpt lat="49.03508" lon="-1.52316">
        <ele>10.9</ele>
        <time>2020-06-12T04:08:39Z</time>
      </trkpt>
      <trkpt lat="49.03509" lon="-1.52325">
        <ele>10.8</ele>
        <time>2020-06-12T04:08:40Z</time>
      </trkpt>
      <trkpt lat="49.03511" lon="-1.52334">
        <ele>10.7</ele>
        <time>2020-06-12T04:08:41Z</time>
      </trkpt>
      <trkpt lat="49.03513" lon="-1.52343">
        <ele>10.6</ele>
        <time>2020-06-12T04:08:42Z</time>
      </trkpt>
      <trkpt lat="49.03516" lon="-1.52352">
        <ele>10.5</ele>
        <time>2020-06-12T04:08:43Z</time>
      </trkpt>
      <trkpt lat="49.03519" lon="-1.5236">
        <ele>10.5</ele>
        <time>2020-06-12T04:08:44Z</time>
      </trkpt>
      <trkpt lat="49.03523" lon="-1.5237">
        <ele>10.6</ele>
        <time>2020-06-12T04:08:45Z</time>
      </trkpt>
      <trkpt lat="49.03527" lon="-1.52378">
        <ele>10.6</ele>
        <time>2020-06-12T04:08:46Z</time>
      </trkpt>
      <trkpt lat="49.03531" lon="-1.52385">
        <ele>10.4</ele>
        <time>2020-06-12T04:08:47Z</time>
      </trkpt>
      <trkpt lat="49.03534" lon="-1.52391">
        <ele>10.3</ele>
        <time>2020-06-12T04:08:48Z</time>
      </trkpt>
      <trkpt lat="49.03538" lon="-1.52396">
        <ele>10.2</ele>
        <time>2020-06-12T04:08:49Z</time>
      </trkpt>
      <trkpt lat="49.03541" lon="-1.52403">
        <ele>10.1</ele>
        <time>2020-06-12T04:08:50Z</time>
      </trkpt>
      <trkpt lat="49.03545" lon="-1.5241">
        <ele>9.9</ele>
        <time>2020-06-12T04:08:51Z</time>
      </trkpt>
      <trkpt lat="49.03549" lon="-1.52415">
        <ele>9.8</ele>
        <time>2020-06-12T04:08:52Z</time>
      </trkpt>
      <trkpt lat="49.03553" lon="-1.52421">
        <ele>9.6</ele>
        <time>2020-06-12T04:08:53Z</time>
      </trkpt>
      <trkpt lat="49.03558" lon="-1.52427">
        <ele>9.5</ele>
        <time>2020-06-12T04:08:54Z</time>
      </trkpt>
      <trkpt lat="49.03561" lon="-1.52433">
        <ele>9.4</ele>
        <time>2020-06-12T04:08:55Z</time>
      </trkpt>
      <trkpt lat="49.03565" lon="-1.5244">
        <ele>9.3</ele>
        <time>2020-06-12T04:08:56Z</time>
      </trkpt>
      <trkpt lat="49.03569" lon="-1.52448">
        <ele>9.2</ele>
        <time>2020-06-12T04:08:57Z</time>
      </trkpt>
      <trkpt lat="49.03573" lon="-1.52456">
        <ele>9.2</ele>
        <time>2020-06-12T04:08:58Z</time>
      </trkpt>
      <trkpt lat="49.03577" lon="-1.52464">
        <ele>9.1</ele>
        <time>2020-06-12T04:08:59Z</time>
      </trkpt>
      <trkpt lat="49.03579" lon="-1.52474">
        <ele>9</ele>
        <time>2020-06-12T04:09:00Z</time>
      </trkpt>
      <trkpt lat="49.0358" lon="-1.52483">
        <ele>8.9</ele>
        <time>2020-06-12T04:09:01Z</time>
      </trkpt>
      <trkpt lat="49.03582" lon="-1.52491">
        <ele>8.9</ele>
        <time>2020-06-12T04:09:02Z</time>
      </trkpt>
      <trkpt lat="49.03582" lon="-1.52498">
        <ele>8.9</ele>
        <time>2020-06-12T04:09:03Z</time>
      </trkpt>
      <trkpt lat="49.03584" lon="-1.52507">
        <ele>8.8</ele>
        <time>2020-06-12T04:09:04Z</time>
      </trkpt>
      <trkpt lat="49.03585" lon="-1.52514">
        <ele>8.8</ele>
        <time>2020-06-12T04:09:05Z</time>
      </trkpt>
      <trkpt lat="49.03586" lon="-1.52521">
        <ele>8.8</ele>
        <time>2020-06-12T04:09:06Z</time>
      </trkpt>
      <trkpt lat="49.03586" lon="-1.52528">
        <ele>8.8</ele>
        <time>2020-06-12T04:09:07Z</time>
      </trkpt>
      <trkpt lat="49.03587" lon="-1.52536">
        <ele>8.9</ele>
        <time>2020-06-12T04:09:08Z</time>
      </trkpt>
      <trkpt lat="49.03588" lon="-1.52544">
        <ele>8.9</ele>
        <time>2020-06-12T04:09:09Z</time>
      </trkpt>
      <trkpt lat="49.0359" lon="-1.52554">
        <ele>8.9</ele>
        <time>2020-06-12T04:09:10Z</time>
      </trkpt>
      <trkpt lat="49.03591" lon="-1.52561">
        <ele>9</ele>
        <time>2020-06-12T04:09:11Z</time>
      </trkpt>
      <trkpt lat="49.03592" lon="-1.52569">
        <ele>9</ele>
        <time>2020-06-12T04:09:12Z</time>
      </trkpt>
      <trkpt lat="49.03594" lon="-1.52575">
        <ele>9</ele>
        <time>2020-06-12T04:09:13Z</time>
      </trkpt>
      <trkpt lat="49.03595" lon="-1.52582">
        <ele>9</ele>
        <time>2020-06-12T04:09:14Z</time>
      </trkpt>
      <trkpt lat="49.03596" lon="-1.52587">
        <ele>9</ele>
        <time>2020-06-12T04:09:15Z</time>
      </trkpt>
      <trkpt lat="49.03598" lon="-1.52592">
        <ele>9</ele>
        <time>2020-06-12T04:09:16Z</time>
      </trkpt>
      <trkpt lat="49.036" lon="-1.52598">
        <ele>9</ele>
        <time>2020-06-12T04:09:17Z</time>
      </trkpt>
      <trkpt lat="49.03603" lon="-1.52604">
        <ele>9.1</ele>
        <time>2020-06-12T04:09:18Z</time>
      </trkpt>
      <trkpt lat="49.03604" lon="-1.52611">
        <ele>9.1</ele>
        <time>2020-06-12T04:09:19Z</time>
      </trkpt>
      <trkpt lat="49.03606" lon="-1.52617">
        <ele>9.2</ele>
        <time>2020-06-12T04:09:20Z</time>
      </trkpt>
      <trkpt lat="49.03608" lon="-1.52624">
        <ele>9.2</ele>
        <time>2020-06-12T04:09:21Z</time>
      </trkpt>
      <trkpt lat="49.0361" lon="-1.52631">
        <ele>9.3</ele>
        <time>2020-06-12T04:09:22Z</time>
      </trkpt>
      <trkpt lat="49.03611" lon="-1.52638">
        <ele>9.3</ele>
        <time>2020-06-12T04:09:23Z</time>
      </trkpt>
      <trkpt lat="49.03613" lon="-1.52644">
        <ele>9.4</ele>
        <time>2020-06-12T04:09:24Z</time>
      </trkpt>
      <trkpt lat="49.03614" lon="-1.5265">
        <ele>9.4</ele>
        <time>2020-06-12T04:09:25Z</time>
      </trkpt>
      <trkpt lat="49.03616" lon="-1.52656">
        <ele>9.4</ele>
        <time>2020-06-12T04:09:26Z</time>
      </trkpt>
      <trkpt lat="49.03618" lon="-1.52663">
        <ele>9.5</ele>
        <time>2020-06-12T04:09:27Z</time>
      </trkpt>
      <trkpt lat="49.03619" lon="-1.52669">
        <ele>9.5</ele>
        <time>2020-06-12T04:09:28Z</time>
      </trkpt>
      <trkpt lat="49.03621" lon="-1.52676">
        <ele>9.5</ele>
        <time>2020-06-12T04:09:29Z</time>
      </trkpt>
      <trkpt lat="49.03623" lon="-1.52683">
        <ele>9.5</ele>
        <time>2020-06-12T04:09:30Z</time>
      </trkpt>
      <trkpt lat="49.03624" lon="-1.52688">
        <ele>9.5</ele>
        <time>2020-06-12T04:09:31Z</time>
      </trkpt>
      <trkpt lat="49.03626" lon="-1.52694">
        <ele>9.5</ele>
        <time>2020-06-12T04:09:32Z</time>
      </trkpt>
      <trkpt lat="49.03627" lon="-1.527">
        <ele>9.5</ele>
        <time>2020-06-12T04:09:33Z</time>
      </trkpt>
      <trkpt lat="49.03629" lon="-1.52706">
        <ele>9.5</ele>
        <time>2020-06-12T04:09:34Z</time>
      </trkpt>
      <trkpt lat="49.03631" lon="-1.52713">
        <ele>9.5</ele>
        <time>2020-06-12T04:09:35Z</time>
      </trkpt>
      <trkpt lat="49.03632" lon="-1.52718">
        <ele>9.5</ele>
        <time>2020-06-12T04:09:36Z</time>
      </trkpt>
      <trkpt lat="49.03633" lon="-1.52725">
        <ele>9.5</ele>
        <time>2020-06-12T04:09:37Z</time>
      </trkpt>
      <trkpt lat="49.03634" lon="-1.52733">
        <ele>9.5</ele>
        <time>2020-06-12T04:09:38Z</time>
      </trkpt>
      <trkpt lat="49.03636" lon="-1.52739">
        <ele>9.5</ele>
        <time>2020-06-12T04:09:39Z</time>
      </trkpt>
      <trkpt lat="49.03637" lon="-1.52745">
        <ele>9.6</ele>
        <time>2020-06-12T04:09:40Z</time>
      </trkpt>
      <trkpt lat="49.03639" lon="-1.52752">
        <ele>9.6</ele>
        <time>2020-06-12T04:09:41Z</time>
      </trkpt>
      <trkpt lat="49.03641" lon="-1.52757">
        <ele>9.7</ele>
        <time>2020-06-12T04:09:42Z</time>
      </trkpt>
      <trkpt lat="49.03642" lon="-1.52763">
        <ele>9.7</ele>
        <time>2020-06-12T04:09:43Z</time>
      </trkpt>
      <trkpt lat="49.03643" lon="-1.52769">
        <ele>9.7</ele>
        <time>2020-06-12T04:09:44Z</time>
      </trkpt>
      <trkpt lat="49.03645" lon="-1.52774">
        <ele>9.7</ele>
        <time>2020-06-12T04:09:45Z</time>
      </trkpt>
      <trkpt lat="49.03646" lon="-1.5278">
        <ele>9.7</ele>
        <time>2020-06-12T04:09:46Z</time>
      </trkpt>
      <trkpt lat="49.03647" lon="-1.52787">
        <ele>9.7</ele>
        <time>2020-06-12T04:09:47Z</time>
      </trkpt>
      <trkpt lat="49.03648" lon="-1.52793">
        <ele>9.8</ele>
        <time>2020-06-12T04:09:48Z</time>
      </trkpt>
      <trkpt lat="49.03649" lon="-1.528">
        <ele>9.8</ele>
        <time>2020-06-12T04:09:49Z</time>
      </trkpt>
      <trkpt lat="49.0365" lon="-1.52807">
        <ele>9.9</ele>
        <time>2020-06-12T04:09:50Z</time>
      </trkpt>
      <trkpt lat="49.0365" lon="-1.52813">
        <ele>10</ele>
        <time>2020-06-12T04:09:51Z</time>
      </trkpt>
      <trkpt lat="49.03649" lon="-1.52819">
        <ele>10.1</ele>
        <time>2020-06-12T04:09:52Z</time>
      </trkpt>
      <trkpt lat="49.03649" lon="-1.52826">
        <ele>10.2</ele>
        <time>2020-06-12T04:09:53Z</time>
      </trkpt>
      <trkpt lat="49.03646" lon="-1.5283">
        <ele>10.3</ele>
        <time>2020-06-12T04:09:54Z</time>
      </trkpt>
      <trkpt lat="49.03643" lon="-1.52835">
        <ele>10.4</ele>
        <time>2020-06-12T04:09:55Z</time>
      </trkpt>
      <trkpt lat="49.03642" lon="-1.52839">
        <ele>10.5</ele>
        <time>2020-06-12T04:09:56Z</time>
      </trkpt>
      <trkpt lat="49.0364" lon="-1.52844">
        <ele>10.5</ele>
        <time>2020-06-12T04:09:57Z</time>
      </trkpt>
      <trkpt lat="49.03639" lon="-1.52849">
        <ele>10.7</ele>
        <time>2020-06-12T04:09:58Z</time>
      </trkpt>
      <trkpt lat="49.03641" lon="-1.52855">
        <ele>10.7</ele>
        <time>2020-06-12T04:09:59Z</time>
      </trkpt>
      <trkpt lat="49.03643" lon="-1.5286">
        <ele>10.7</ele>
        <time>2020-06-12T04:10:00Z</time>
      </trkpt>
      <trkpt lat="49.03645" lon="-1.52865">
        <ele>10.7</ele>
        <time>2020-06-12T04:10:01Z</time>
      </trkpt>
      <trkpt lat="49.03647" lon="-1.5287">
        <ele>10.7</ele>
        <time>2020-06-12T04:10:02Z</time>
      </trkpt>
      <trkpt lat="49.03649" lon="-1.52875">
        <ele>10.7</ele>
        <time>2020-06-12T04:10:03Z</time>
      </trkpt>
      <trkpt lat="49.03651" lon="-1.52881">
        <ele>10.8</ele>
        <time>2020-06-12T04:10:04Z</time>
      </trkpt>
      <trkpt lat="49.03653" lon="-1.52886">
        <ele>10.8</ele>
        <time>2020-06-12T04:10:05Z</time>
      </trkpt>
      <trkpt lat="49.03656" lon="-1.52892">
        <ele>10.8</ele>
        <time>2020-06-12T04:10:06Z</time>
      </trkpt>
      <trkpt lat="49.03658" lon="-1.52897">
        <ele>10.9</ele>
        <time>2020-06-12T04:10:07Z</time>
      </trkpt>
      <trkpt lat="49.0366" lon="-1.52903">
        <ele>10.9</ele>
        <time>2020-06-12T04:10:08Z</time>
      </trkpt>
      <trkpt lat="49.03662" lon="-1.52909">
        <ele>10.9</ele>
        <time>2020-06-12T04:10:09Z</time>
      </trkpt>
      <trkpt lat="49.03664" lon="-1.52914">
        <ele>10.9</ele>
        <time>2020-06-12T04:10:10Z</time>
      </trkpt>
      <trkpt lat="49.03667" lon="-1.52919">
        <ele>10.9</ele>
        <time>2020-06-12T04:10:11Z</time>
      </trkpt>
      <trkpt lat="49.03669" lon="-1.52925">
        <ele>11</ele>
        <time>2020-06-12T04:10:12Z</time>
      </trkpt>
      <trkpt lat="49.03671" lon="-1.52931">
        <ele>11</ele>
        <time>2020-06-12T04:10:13Z</time>
      </trkpt>
      <trkpt lat="49.03674" lon="-1.52936">
        <ele>11</ele>
        <time>2020-06-12T04:10:14Z</time>
      </trkpt>
      <trkpt lat="49.03676" lon="-1.52942">
        <ele>11.1</ele>
        <time>2020-06-12T04:10:15Z</time>
      </trkpt>
      <trkpt lat="49.03678" lon="-1.52948">
        <ele>11.1</ele>
        <time>2020-06-12T04:10:16Z</time>
      </trkpt>
      <trkpt lat="49.03681" lon="-1.52953">
        <ele>11.2</ele>
        <time>2020-06-12T04:10:17Z</time>
      </trkpt>
      <trkpt lat="49.03683" lon="-1.52959">
        <ele>11.3</ele>
        <time>2020-06-12T04:10:18Z</time>
      </trkpt>
      <trkpt lat="49.03685" lon="-1.52964">
        <ele>11.3</ele>
        <time>2020-06-12T04:10:19Z</time>
      </trkpt>
      <trkpt lat="49.03687" lon="-1.5297">
        <ele>11.4</ele>
        <time>2020-06-12T04:10:20Z</time>
      </trkpt>
      <trkpt lat="49.03689" lon="-1.52976">
        <ele>11.4</ele>
        <time>2020-06-12T04:10:21Z</time>
      </trkpt>
      <trkpt lat="49.03692" lon="-1.52982">
        <ele>11.5</ele>
        <time>2020-06-12T04:10:22Z</time>
      </trkpt>
      <trkpt lat="49.03695" lon="-1.52987">
        <ele>11.6</ele>
        <time>2020-06-12T04:10:23Z</time>
      </trkpt>
      <trkpt lat="49.03697" lon="-1.52994">
        <ele>11.6</ele>
        <time>2020-06-12T04:10:24Z</time>
      </trkpt>
      <trkpt lat="49.037" lon="-1.53">
        <ele>11.7</ele>
        <time>2020-06-12T04:10:25Z</time>
      </trkpt>
      <trkpt lat="49.03702" lon="-1.53006">
        <ele>11.8</ele>
        <time>2020-06-12T04:10:26Z</time>
      </trkpt>
      <trkpt lat="49.03704" lon="-1.53012">
        <ele>11.8</ele>
        <time>2020-06-12T04:10:27Z</time>
      </trkpt>
      <trkpt lat="49.03707" lon="-1.53018">
        <ele>11.9</ele>
        <time>2020-06-12T04:10:28Z</time>
      </trkpt>
      <trkpt lat="49.03709" lon="-1.53025">
        <ele>12</ele>
        <time>2020-06-12T04:10:29Z</time>
      </trkpt>
      <trkpt lat="49.03712" lon="-1.53032">
        <ele>12</ele>
        <time>2020-06-12T04:10:30Z</time>
      </trkpt>
      <trkpt lat="49.03714" lon="-1.53038">
        <ele>12.1</ele>
        <time>2020-06-12T04:10:31Z</time>
      </trkpt>
      <trkpt lat="49.03716" lon="-1.53044">
        <ele>12.1</ele>
        <time>2020-06-12T04:10:32Z</time>
      </trkpt>
      <trkpt lat="49.03719" lon="-1.5305">
        <ele>12.1</ele>
        <time>2020-06-12T04:10:33Z</time>
      </trkpt>
      <trkpt lat="49.03722" lon="-1.53056">
        <ele>12.2</ele>
        <time>2020-06-12T04:10:34Z</time>
      </trkpt>
      <trkpt lat="49.03724" lon="-1.53061">
        <ele>12.2</ele>
        <time>2020-06-12T04:10:35Z</time>
      </trkpt>
      <trkpt lat="49.03727" lon="-1.53067">
        <ele>12.3</ele>
        <time>2020-06-12T04:10:36Z</time>
      </trkpt>
      <trkpt lat="49.0373" lon="-1.53072">
        <ele>12.4</ele>
        <time>2020-06-12T04:10:37Z</time>
      </trkpt>
      <trkpt lat="49.03732" lon="-1.53078">
        <ele>12.4</ele>
        <time>2020-06-12T04:10:38Z</time>
      </trkpt>
      <trkpt lat="49.03734" lon="-1.53084">
        <ele>12.5</ele>
        <time>2020-06-12T04:10:39Z</time>
      </trkpt>
      <trkpt lat="49.03736" lon="-1.5309">
        <ele>12.5</ele>
        <time>2020-06-12T04:10:40Z</time>
      </trkpt>
      <trkpt lat="49.03739" lon="-1.53097">
        <ele>12.6</ele>
        <time>2020-06-12T04:10:41Z</time>
      </trkpt>
      <trkpt lat="49.03741" lon="-1.53103">
        <ele>12.6</ele>
        <time>2020-06-12T04:10:42Z</time>
      </trkpt>
      <trkpt lat="49.03744" lon="-1.5311">
        <ele>12.7</ele>
        <time>2020-06-12T04:10:43Z</time>
      </trkpt>
      <trkpt lat="49.03747" lon="-1.53116">
        <ele>12.8</ele>
        <time>2020-06-12T04:10:44Z</time>
      </trkpt>
      <trkpt lat="49.03749" lon="-1.53122">
        <ele>12.8</ele>
        <time>2020-06-12T04:10:45Z</time>
      </trkpt>
      <trkpt lat="49.03751" lon="-1.53128">
        <ele>12.9</ele>
        <time>2020-06-12T04:10:46Z</time>
      </trkpt>
      <trkpt lat="49.03754" lon="-1.53134">
        <ele>12.9</ele>
        <time>2020-06-12T04:10:47Z</time>
      </trkpt>
      <trkpt lat="49.03756" lon="-1.5314">
        <ele>12.9</ele>
        <time>2020-06-12T04:10:48Z</time>
      </trkpt>
      <trkpt lat="49.03758" lon="-1.53146">
        <ele>13</ele>
        <time>2020-06-12T04:10:49Z</time>
      </trkpt>
      <trkpt lat="49.0376" lon="-1.53152">
        <ele>13</ele>
        <time>2020-06-12T04:10:50Z</time>
      </trkpt>
      <trkpt lat="49.03762" lon="-1.53158">
        <ele>13</ele>
        <time>2020-06-12T04:10:51Z</time>
      </trkpt>
      <trkpt lat="49.03764" lon="-1.53164">
        <ele>13.1</ele>
        <time>2020-06-12T04:10:52Z</time>
      </trkpt>
      <trkpt lat="49.03766" lon="-1.53171">
        <ele>13.1</ele>
        <time>2020-06-12T04:10:53Z</time>
      </trkpt>
      <trkpt lat="49.03769" lon="-1.53177">
        <ele>13.2</ele>
        <time>2020-06-12T04:10:54Z</time>
      </trkpt>
      <trkpt lat="49.03771" lon="-1.53183">
        <ele>13.3</ele>
        <time>2020-06-12T04:10:55Z</time>
      </trkpt>
      <trkpt lat="49.03774" lon="-1.53189">
        <ele>13.3</ele>
        <time>2020-06-12T04:10:56Z</time>
      </trkpt>
      <trkpt lat="49.03777" lon="-1.53194">
        <ele>13.4</ele>
        <time>2020-06-12T04:10:57Z</time>
      </trkpt>
      <trkpt lat="49.03778" lon="-1.53199">
        <ele>13.4</ele>
        <time>2020-06-12T04:10:58Z</time>
      </trkpt>
      <trkpt lat="49.0378" lon="-1.53204">
        <ele>13.5</ele>
        <time>2020-06-12T04:10:59Z</time>
      </trkpt>
      <trkpt lat="49.03782" lon="-1.53209">
        <ele>13.5</ele>
        <time>2020-06-12T04:11:00Z</time>
      </trkpt>
      <trkpt lat="49.03785" lon="-1.53215">
        <ele>13.6</ele>
        <time>2020-06-12T04:11:01Z</time>
      </trkpt>
      <trkpt lat="49.03787" lon="-1.53221">
        <ele>13.6</ele>
        <time>2020-06-12T04:11:02Z</time>
      </trkpt>
      <trkpt lat="49.0379" lon="-1.53226">
        <ele>13.6</ele>
        <time>2020-06-12T04:11:03Z</time>
      </trkpt>
      <trkpt lat="49.03792" lon="-1.53232">
        <ele>13.7</ele>
        <time>2020-06-12T04:11:04Z</time>
      </trkpt>
      <trkpt lat="49.03793" lon="-1.53237">
        <ele>13.7</ele>
        <time>2020-06-12T04:11:05Z</time>
      </trkpt>
      <trkpt lat="49.03795" lon="-1.53242">
        <ele>13.8</ele>
        <time>2020-06-12T04:11:06Z</time>
      </trkpt>
      <trkpt lat="49.03798" lon="-1.53247">
        <ele>13.8</ele>
        <time>2020-06-12T04:11:07Z</time>
      </trkpt>
      <trkpt lat="49.038" lon="-1.53254">
        <ele>13.9</ele>
        <time>2020-06-12T04:11:08Z</time>
      </trkpt>
      <trkpt lat="49.03803" lon="-1.5326">
        <ele>13.9</ele>
        <time>2020-06-12T04:11:09Z</time>
      </trkpt>
      <trkpt lat="49.03806" lon="-1.53265">
        <ele>14</ele>
        <time>2020-06-12T04:11:10Z</time>
      </trkpt>
      <trkpt lat="49.03808" lon="-1.53271">
        <ele>14</ele>
        <time>2020-06-12T04:11:11Z</time>
      </trkpt>
      <trkpt lat="49.0381" lon="-1.53277">
        <ele>14.1</ele>
        <time>2020-06-12T04:11:12Z</time>
      </trkpt>
      <trkpt lat="49.03812" lon="-1.53283">
        <ele>14.1</ele>
        <time>2020-06-12T04:11:13Z</time>
      </trkpt>
      <trkpt lat="49.03815" lon="-1.53288">
        <ele>14.2</ele>
        <time>2020-06-12T04:11:14Z</time>
      </trkpt>
      <trkpt lat="49.03818" lon="-1.53293">
        <ele>14.2</ele>
        <time>2020-06-12T04:11:15Z</time>
      </trkpt>
      <trkpt lat="49.0382" lon="-1.53298">
        <ele>14.3</ele>
        <time>2020-06-12T04:11:16Z</time>
      </trkpt>
      <trkpt lat="49.03822" lon="-1.53303">
        <ele>14.3</ele>
        <time>2020-06-12T04:11:17Z</time>
      </trkpt>
      <trkpt lat="49.03824" lon="-1.53309">
        <ele>14.4</ele>
        <time>2020-06-12T04:11:18Z</time>
      </trkpt>
      <trkpt lat="49.03826" lon="-1.53314">
        <ele>14.4</ele>
        <time>2020-06-12T04:11:19Z</time>
      </trkpt>
      <trkpt lat="49.03828" lon="-1.5332">
        <ele>14.5</ele>
        <time>2020-06-12T04:11:20Z</time>
      </trkpt>
      <trkpt lat="49.0383" lon="-1.53325">
        <ele>14.5</ele>
        <time>2020-06-12T04:11:21Z</time>
      </trkpt>
      <trkpt lat="49.03832" lon="-1.53331">
        <ele>14.6</ele>
        <time>2020-06-12T04:11:22Z</time>
      </trkpt>
      <trkpt lat="49.03834" lon="-1.53336">
        <ele>14.6</ele>
        <time>2020-06-12T04:11:23Z</time>
      </trkpt>
      <trkpt lat="49.03836" lon="-1.53342">
        <ele>14.7</ele>
        <time>2020-06-12T04:11:24Z</time>
      </trkpt>
      <trkpt lat="49.03838" lon="-1.53349">
        <ele>14.7</ele>
        <time>2020-06-12T04:11:25Z</time>
      </trkpt>
      <trkpt lat="49.0384" lon="-1.53355">
        <ele>14.8</ele>
        <time>2020-06-12T04:11:26Z</time>
      </trkpt>
      <trkpt lat="49.03842" lon="-1.53361">
        <ele>14.8</ele>
        <time>2020-06-12T04:11:27Z</time>
      </trkpt>
      <trkpt lat="49.03845" lon="-1.53367">
        <ele>14.9</ele>
        <time>2020-06-12T04:11:28Z</time>
      </trkpt>
      <trkpt lat="49.03847" lon="-1.53373">
        <ele>14.9</ele>
        <time>2020-06-12T04:11:29Z</time>
      </trkpt>
      <trkpt lat="49.03849" lon="-1.5338">
        <ele>15</ele>
        <time>2020-06-12T04:11:30Z</time>
      </trkpt>
      <trkpt lat="49.03851" lon="-1.53386">
        <ele>15</ele>
        <time>2020-06-12T04:11:31Z</time>
      </trkpt>
      <trkpt lat="49.03854" lon="-1.53393">
        <ele>15.1</ele>
        <time>2020-06-12T04:11:32Z</time>
      </trkpt>
      <trkpt lat="49.03857" lon="-1.53399">
        <ele>15.1</ele>
        <time>2020-06-12T04:11:33Z</time>
      </trkpt>
      <trkpt lat="49.0386" lon="-1.53405">
        <ele>15.2</ele>
        <time>2020-06-12T04:11:34Z</time>
      </trkpt>
      <trkpt lat="49.03862" lon="-1.53411">
        <ele>15.2</ele>
        <time>2020-06-12T04:11:35Z</time>
      </trkpt>
      <trkpt lat="49.03864" lon="-1.53416">
        <ele>15.3</ele>
        <time>2020-06-12T04:11:36Z</time>
      </trkpt>
      <trkpt lat="49.03866" lon="-1.53422">
        <ele>15.3</ele>
        <time>2020-06-12T04:11:37Z</time>
      </trkpt>
      <trkpt lat="49.03868" lon="-1.53427">
        <ele>15.4</ele>
        <time>2020-06-12T04:11:38Z</time>
      </trkpt>
      <trkpt lat="49.03871" lon="-1.53433">
        <ele>15.4</ele>
        <time>2020-06-12T04:11:39Z</time>
      </trkpt>
      <trkpt lat="49.03872" lon="-1.53438">
        <ele>15.5</ele>
        <time>2020-06-12T04:11:40Z</time>
      </trkpt>
      <trkpt lat="49.03874" lon="-1.53444">
        <ele>15.5</ele>
        <time>2020-06-12T04:11:41Z</time>
      </trkpt>
      <trkpt lat="49.03877" lon="-1.5345">
        <ele>15.5</ele>
        <time>2020-06-12T04:11:42Z</time>
      </trkpt>
      <trkpt lat="49.03879" lon="-1.53456">
        <ele>15.6</ele>
        <time>2020-06-12T04:11:43Z</time>
      </trkpt>
      <trkpt lat="49.03881" lon="-1.53461">
        <ele>15.6</ele>
        <time>2020-06-12T04:11:44Z</time>
      </trkpt>
      <trkpt lat="49.03883" lon="-1.53467">
        <ele>15.6</ele>
        <time>2020-06-12T04:11:45Z</time>
      </trkpt>
      <trkpt lat="49.03884" lon="-1.53474">
        <ele>15.6</ele>
        <time>2020-06-12T04:11:46Z</time>
      </trkpt>
      <trkpt lat="49.03886" lon="-1.53479">
        <ele>15.7</ele>
        <time>2020-06-12T04:11:47Z</time>
      </trkpt>
      <trkpt lat="49.03888" lon="-1.53485">
        <ele>15.7</ele>
        <time>2020-06-12T04:11:48Z</time>
      </trkpt>
      <trkpt lat="49.03889" lon="-1.5349">
        <ele>15.7</ele>
        <time>2020-06-12T04:11:49Z</time>
      </trkpt>
      <trkpt lat="49.03892" lon="-1.53496">
        <ele>15.8</ele>
        <time>2020-06-12T04:11:50Z</time>
      </trkpt>
      <trkpt lat="49.03894" lon="-1.53502">
        <ele>15.8</ele>
        <time>2020-06-12T04:11:51Z</time>
      </trkpt>
      <trkpt lat="49.03897" lon="-1.53508">
        <ele>15.9</ele>
        <time>2020-06-12T04:11:52Z</time>
      </trkpt>
      <trkpt lat="49.03899" lon="-1.53513">
        <ele>16</ele>
        <time>2020-06-12T04:11:53Z</time>
      </trkpt>
      <trkpt lat="49.03901" lon="-1.5352">
        <ele>16</ele>
        <time>2020-06-12T04:11:54Z</time>
      </trkpt>
      <trkpt lat="49.03903" lon="-1.53525">
        <ele>16.1</ele>
        <time>2020-06-12T04:11:55Z</time>
      </trkpt>
      <trkpt lat="49.03905" lon="-1.5353">
        <ele>16.1</ele>
        <time>2020-06-12T04:11:56Z</time>
      </trkpt>
      <trkpt lat="49.03908" lon="-1.53535">
        <ele>16.2</ele>
        <time>2020-06-12T04:11:57Z</time>
      </trkpt>
      <trkpt lat="49.0391" lon="-1.5354">
        <ele>16.2</ele>
        <time>2020-06-12T04:11:58Z</time>
      </trkpt>
      <trkpt lat="49.03912" lon="-1.53547">
        <ele>16.3</ele>
        <time>2020-06-12T04:11:59Z</time>
      </trkpt>
      <trkpt lat="49.03914" lon="-1.53553">
        <ele>16.4</ele>
        <time>2020-06-12T04:12:00Z</time>
      </trkpt>
      <trkpt lat="49.03917" lon="-1.53559">
        <ele>16.4</ele>
        <time>2020-06-12T04:12:01Z</time>
      </trkpt>
      <trkpt lat="49.03919" lon="-1.53566">
        <ele>16.5</ele>
        <time>2020-06-12T04:12:02Z</time>
      </trkpt>
      <trkpt lat="49.03921" lon="-1.53571">
        <ele>16.5</ele>
        <time>2020-06-12T04:12:03Z</time>
      </trkpt>
      <trkpt lat="49.03923" lon="-1.53578">
        <ele>16.6</ele>
        <time>2020-06-12T04:12:04Z</time>
      </trkpt>
      <trkpt lat="49.03924" lon="-1.53584">
        <ele>16.7</ele>
        <time>2020-06-12T04:12:05Z</time>
      </trkpt>
      <trkpt lat="49.03926" lon="-1.53588">
        <ele>16.7</ele>
        <time>2020-06-12T04:12:06Z</time>
      </trkpt>
      <trkpt lat="49.03927" lon="-1.53594">
        <ele>16.8</ele>
        <time>2020-06-12T04:12:07Z</time>
      </trkpt>
      <trkpt lat="49.03928" lon="-1.53599">
        <ele>16.9</ele>
        <time>2020-06-12T04:12:08Z</time>
      </trkpt>
      <trkpt lat="49.0393" lon="-1.53604">
        <ele>17</ele>
        <time>2020-06-12T04:12:09Z</time>
      </trkpt>
      <trkpt lat="49.03932" lon="-1.5361">
        <ele>17.1</ele>
        <time>2020-06-12T04:12:10Z</time>
      </trkpt>
      <trkpt lat="49.03934" lon="-1.53616">
        <ele>17.2</ele>
        <time>2020-06-12T04:12:11Z</time>
      </trkpt>
      <trkpt lat="49.03936" lon="-1.53621">
        <ele>17.3</ele>
        <time>2020-06-12T04:12:12Z</time>
      </trkpt>
      <trkpt lat="49.03939" lon="-1.53626">
        <ele>17.3</ele>
        <time>2020-06-12T04:12:13Z</time>
      </trkpt>
      <trkpt lat="49.03941" lon="-1.53631">
        <ele>17.4</ele>
        <time>2020-06-12T04:12:14Z</time>
      </trkpt>
      <trkpt lat="49.03943" lon="-1.53636">
        <ele>17.5</ele>
        <time>2020-06-12T04:12:15Z</time>
      </trkpt>
      <trkpt lat="49.03945" lon="-1.53643">
        <ele>17.5</ele>
        <time>2020-06-12T04:12:16Z</time>
      </trkpt>
      <trkpt lat="49.03947" lon="-1.53648">
        <ele>17.6</ele>
        <time>2020-06-12T04:12:17Z</time>
      </trkpt>
      <trkpt lat="49.03948" lon="-1.53654">
        <ele>17.7</ele>
        <time>2020-06-12T04:12:18Z</time>
      </trkpt>
      <trkpt lat="49.03949" lon="-1.5366">
        <ele>17.8</ele>
        <time>2020-06-12T04:12:19Z</time>
      </trkpt>
      <trkpt lat="49.03951" lon="-1.53665">
        <ele>17.9</ele>
        <time>2020-06-12T04:12:20Z</time>
      </trkpt>
      <trkpt lat="49.03953" lon="-1.5367">
        <ele>18</ele>
        <time>2020-06-12T04:12:21Z</time>
      </trkpt>
      <trkpt lat="49.03955" lon="-1.53675">
        <ele>18.1</ele>
        <time>2020-06-12T04:12:22Z</time>
      </trkpt>
      <trkpt lat="49.03957" lon="-1.5368">
        <ele>18.1</ele>
        <time>2020-06-12T04:12:23Z</time>
      </trkpt>
      <trkpt lat="49.03958" lon="-1.53685">
        <ele>18.2</ele>
        <time>2020-06-12T04:12:24Z</time>
      </trkpt>
      <trkpt lat="49.0396" lon="-1.5369">
        <ele>18.3</ele>
        <time>2020-06-12T04:12:25Z</time>
      </trkpt>
      <trkpt lat="49.03962" lon="-1.53695">
        <ele>18.3</ele>
        <time>2020-06-12T04:12:26Z</time>
      </trkpt>
      <trkpt lat="49.03964" lon="-1.53699">
        <ele>18.4</ele>
        <time>2020-06-12T04:12:27Z</time>
      </trkpt>
      <trkpt lat="49.03966" lon="-1.53703">
        <ele>18.4</ele>
        <time>2020-06-12T04:12:28Z</time>
      </trkpt>
      <trkpt lat="49.03968" lon="-1.53709">
        <ele>18.5</ele>
        <time>2020-06-12T04:12:29Z</time>
      </trkpt>
      <trkpt lat="49.0397" lon="-1.53713">
        <ele>18.5</ele>
        <time>2020-06-12T04:12:30Z</time>
      </trkpt>
      <trkpt lat="49.03972" lon="-1.53718">
        <ele>18.6</ele>
        <time>2020-06-12T04:12:31Z</time>
      </trkpt>
      <trkpt lat="49.03973" lon="-1.53724">
        <ele>18.6</ele>
        <time>2020-06-12T04:12:32Z</time>
      </trkpt>
      <trkpt lat="49.03975" lon="-1.5373">
        <ele>18.7</ele>
        <time>2020-06-12T04:12:33Z</time>
      </trkpt>
      <trkpt lat="49.03977" lon="-1.53735">
        <ele>18.7</ele>
        <time>2020-06-12T04:12:34Z</time>
      </trkpt>
      <trkpt lat="49.03979" lon="-1.53741">
        <ele>18.8</ele>
        <time>2020-06-12T04:12:35Z</time>
      </trkpt>
      <trkpt lat="49.0398" lon="-1.53747">
        <ele>18.8</ele>
        <time>2020-06-12T04:12:36Z</time>
      </trkpt>
      <trkpt lat="49.03981" lon="-1.53752">
        <ele>18.8</ele>
        <time>2020-06-12T04:12:37Z</time>
      </trkpt>
      <trkpt lat="49.03983" lon="-1.53758">
        <ele>18.9</ele>
        <time>2020-06-12T04:12:38Z</time>
      </trkpt>
      <trkpt lat="49.03985" lon="-1.53764">
        <ele>18.9</ele>
        <time>2020-06-12T04:12:39Z</time>
      </trkpt>
      <trkpt lat="49.03987" lon="-1.5377">
        <ele>19</ele>
        <time>2020-06-12T04:12:40Z</time>
      </trkpt>
      <trkpt lat="49.0399" lon="-1.53776">
        <ele>19</ele>
        <time>2020-06-12T04:12:41Z</time>
      </trkpt>
      <trkpt lat="49.03992" lon="-1.53782">
        <ele>19</ele>
        <time>2020-06-12T04:12:42Z</time>
      </trkpt>
      <trkpt lat="49.03994" lon="-1.53787">
        <ele>19</ele>
        <time>2020-06-12T04:12:43Z</time>
      </trkpt>
      <trkpt lat="49.03996" lon="-1.53793">
        <ele>19</ele>
        <time>2020-06-12T04:12:44Z</time>
      </trkpt>
      <trkpt lat="49.03998" lon="-1.53798">
        <ele>19</ele>
        <time>2020-06-12T04:12:45Z</time>
      </trkpt>
      <trkpt lat="49.04" lon="-1.53804">
        <ele>19</ele>
        <time>2020-06-12T04:12:46Z</time>
      </trkpt>
      <trkpt lat="49.04001" lon="-1.53809">
        <ele>19</ele>
        <time>2020-06-12T04:12:47Z</time>
      </trkpt>
      <trkpt lat="49.04003" lon="-1.53815">
        <ele>19</ele>
        <time>2020-06-12T04:12:48Z</time>
      </trkpt>
      <trkpt lat="49.04006" lon="-1.53821">
        <ele>18.9</ele>
        <time>2020-06-12T04:12:49Z</time>
      </trkpt>
      <trkpt lat="49.04008" lon="-1.53827">
        <ele>18.9</ele>
        <time>2020-06-12T04:12:50Z</time>
      </trkpt>
      <trkpt lat="49.0401" lon="-1.53833">
        <ele>18.9</ele>
        <time>2020-06-12T04:12:51Z</time>
      </trkpt>
      <trkpt lat="49.04012" lon="-1.5384">
        <ele>18.9</ele>
        <time>2020-06-12T04:12:52Z</time>
      </trkpt>
      <trkpt lat="49.04014" lon="-1.53846">
        <ele>18.8</ele>
        <time>2020-06-12T04:12:53Z</time>
      </trkpt>
      <trkpt lat="49.04016" lon="-1.53853">
        <ele>18.8</ele>
        <time>2020-06-12T04:12:54Z</time>
      </trkpt>
      <trkpt lat="49.04018" lon="-1.53859">
        <ele>18.7</ele>
        <time>2020-06-12T04:12:55Z</time>
      </trkpt>
      <trkpt lat="49.04021" lon="-1.53867">
        <ele>18.6</ele>
        <time>2020-06-12T04:12:56Z</time>
      </trkpt>
      <trkpt lat="49.04023" lon="-1.53874">
        <ele>18.6</ele>
        <time>2020-06-12T04:12:57Z</time>
      </trkpt>
      <trkpt lat="49.04026" lon="-1.53881">
        <ele>18.5</ele>
        <time>2020-06-12T04:12:58Z</time>
      </trkpt>
      <trkpt lat="49.04028" lon="-1.53888">
        <ele>18.4</ele>
        <time>2020-06-12T04:12:59Z</time>
      </trkpt>
      <trkpt lat="49.04031" lon="-1.53896">
        <ele>18.3</ele>
        <time>2020-06-12T04:13:00Z</time>
      </trkpt>
      <trkpt lat="49.04034" lon="-1.53902">
        <ele>18.2</ele>
        <time>2020-06-12T04:13:01Z</time>
      </trkpt>
      <trkpt lat="49.04036" lon="-1.53909">
        <ele>18.2</ele>
        <time>2020-06-12T04:13:02Z</time>
      </trkpt>
      <trkpt lat="49.04038" lon="-1.53916">
        <ele>18.1</ele>
        <time>2020-06-12T04:13:03Z</time>
      </trkpt>
      <trkpt lat="49.0404" lon="-1.53923">
        <ele>18</ele>
        <time>2020-06-12T04:13:04Z</time>
      </trkpt>
      <trkpt lat="49.04042" lon="-1.5393">
        <ele>17.9</ele>
        <time>2020-06-12T04:13:05Z</time>
      </trkpt>
      <trkpt lat="49.04044" lon="-1.53937">
        <ele>17.8</ele>
        <time>2020-06-12T04:13:06Z</time>
      </trkpt>
      <trkpt lat="49.04048" lon="-1.53944">
        <ele>17.7</ele>
        <time>2020-06-12T04:13:07Z</time>
      </trkpt>
      <trkpt lat="49.0405" lon="-1.5395">
        <ele>17.5</ele>
        <time>2020-06-12T04:13:08Z</time>
      </trkpt>
      <trkpt lat="49.04053" lon="-1.53957">
        <ele>17.4</ele>
        <time>2020-06-12T04:13:09Z</time>
      </trkpt>
      <trkpt lat="49.04055" lon="-1.53964">
        <ele>17.3</ele>
        <time>2020-06-12T04:13:10Z</time>
      </trkpt>
      <trkpt lat="49.04058" lon="-1.53971">
        <ele>17.1</ele>
        <time>2020-06-12T04:13:11Z</time>
      </trkpt>
      <trkpt lat="49.0406" lon="-1.53978">
        <ele>17</ele>
        <time>2020-06-12T04:13:12Z</time>
      </trkpt>
      <trkpt lat="49.04062" lon="-1.53985">
        <ele>16.9</ele>
        <time>2020-06-12T04:13:13Z</time>
      </trkpt>
      <trkpt lat="49.04065" lon="-1.53992">
        <ele>16.7</ele>
        <time>2020-06-12T04:13:14Z</time>
      </trkpt>
      <trkpt lat="49.04068" lon="-1.54">
        <ele>16.5</ele>
        <time>2020-06-12T04:13:15Z</time>
      </trkpt>
      <trkpt lat="49.0407" lon="-1.54007">
        <ele>16.3</ele>
        <time>2020-06-12T04:13:16Z</time>
      </trkpt>
      <trkpt lat="49.04073" lon="-1.54015">
        <ele>16.1</ele>
        <time>2020-06-12T04:13:17Z</time>
      </trkpt>
      <trkpt lat="49.04075" lon="-1.54023">
        <ele>15.9</ele>
        <time>2020-06-12T04:13:18Z</time>
      </trkpt>
      <trkpt lat="49.04078" lon="-1.5403">
        <ele>15.7</ele>
        <time>2020-06-12T04:13:19Z</time>
      </trkpt>
      <trkpt lat="49.0408" lon="-1.54038">
        <ele>15.4</ele>
        <time>2020-06-12T04:13:20Z</time>
      </trkpt>
      <trkpt lat="49.04082" lon="-1.54045">
        <ele>15.2</ele>
        <time>2020-06-12T04:13:21Z</time>
      </trkpt>
      <trkpt lat="49.04085" lon="-1.54053">
        <ele>15</ele>
        <time>2020-06-12T04:13:22Z</time>
      </trkpt>
      <trkpt lat="49.04088" lon="-1.54061">
        <ele>14.7</ele>
        <time>2020-06-12T04:13:23Z</time>
      </trkpt>
      <trkpt lat="49.04091" lon="-1.54067">
        <ele>14.5</ele>
        <time>2020-06-12T04:13:24Z</time>
      </trkpt>
      <trkpt lat="49.04094" lon="-1.54075">
        <ele>14.2</ele>
        <time>2020-06-12T04:13:25Z</time>
      </trkpt>
      <trkpt lat="49.04097" lon="-1.54084">
        <ele>14</ele>
        <time>2020-06-12T04:13:26Z</time>
      </trkpt>
      <trkpt lat="49.041" lon="-1.54094">
        <ele>13.6</ele>
        <time>2020-06-12T04:13:27Z</time>
      </trkpt>
      <trkpt lat="49.04102" lon="-1.54103">
        <ele>13.4</ele>
        <time>2020-06-12T04:13:28Z</time>
      </trkpt>
      <trkpt lat="49.04105" lon="-1.54111">
        <ele>13.1</ele>
        <time>2020-06-12T04:13:29Z</time>
      </trkpt>
      <trkpt lat="49.04108" lon="-1.54121">
        <ele>12.8</ele>
        <time>2020-06-12T04:13:30Z</time>
      </trkpt>
      <trkpt lat="49.04112" lon="-1.5413">
        <ele>12.5</ele>
        <time>2020-06-12T04:13:31Z</time>
      </trkpt>
      <trkpt lat="49.04114" lon="-1.5414">
        <ele>12.2</ele>
        <time>2020-06-12T04:13:32Z</time>
      </trkpt>
      <trkpt lat="49.04117" lon="-1.54149">
        <ele>11.9</ele>
        <time>2020-06-12T04:13:33Z</time>
      </trkpt>
      <trkpt lat="49.04121" lon="-1.54159">
        <ele>11.6</ele>
        <time>2020-06-12T04:13:34Z</time>
      </trkpt>
      <trkpt lat="49.04124" lon="-1.54169">
        <ele>11.3</ele>
        <time>2020-06-12T04:13:35Z</time>
      </trkpt>
      <trkpt lat="49.04127" lon="-1.54179">
        <ele>11</ele>
        <time>2020-06-12T04:13:36Z</time>
      </trkpt>
      <trkpt lat="49.0413" lon="-1.54189">
        <ele>10.6</ele>
        <time>2020-06-12T04:13:37Z</time>
      </trkpt>
      <trkpt lat="49.04133" lon="-1.54199">
        <ele>10.3</ele>
        <time>2020-06-12T04:13:38Z</time>
      </trkpt>
      <trkpt lat="49.04136" lon="-1.54209">
        <ele>10</ele>
        <time>2020-06-12T04:13:39Z</time>
      </trkpt>
      <trkpt lat="49.04139" lon="-1.5422">
        <ele>9.7</ele>
        <time>2020-06-12T04:13:40Z</time>
      </trkpt>
      <trkpt lat="49.04142" lon="-1.5423">
        <ele>9.6</ele>
        <time>2020-06-12T04:13:41Z</time>
      </trkpt>
      <trkpt lat="49.04144" lon="-1.54241">
        <ele>9.4</ele>
        <time>2020-06-12T04:13:42Z</time>
      </trkpt>
      <trkpt lat="49.04147" lon="-1.54251">
        <ele>9.4</ele>
        <time>2020-06-12T04:13:43Z</time>
      </trkpt>
      <trkpt lat="49.0415" lon="-1.54261">
        <ele>9.3</ele>
        <time>2020-06-12T04:13:44Z</time>
      </trkpt>
      <trkpt lat="49.04151" lon="-1.54272">
        <ele>9.2</ele>
        <time>2020-06-12T04:13:45Z</time>
      </trkpt>
      <trkpt lat="49.04153" lon="-1.54282">
        <ele>9.2</ele>
        <time>2020-06-12T04:13:46Z</time>
      </trkpt>
      <trkpt lat="49.04155" lon="-1.54291">
        <ele>9.2</ele>
        <time>2020-06-12T04:13:47Z</time>
      </trkpt>
      <trkpt lat="49.04157" lon="-1.54301">
        <ele>9.2</ele>
        <time>2020-06-12T04:13:48Z</time>
      </trkpt>
      <trkpt lat="49.0416" lon="-1.5431">
        <ele>9.3</ele>
        <time>2020-06-12T04:13:49Z</time>
      </trkpt>
      <trkpt lat="49.04161" lon="-1.54319">
        <ele>9.4</ele>
        <time>2020-06-12T04:13:50Z</time>
      </trkpt>
      <trkpt lat="49.04163" lon="-1.54328">
        <ele>9.5</ele>
        <time>2020-06-12T04:13:51Z</time>
      </trkpt>
      <trkpt lat="49.04165" lon="-1.54336">
        <ele>9.5</ele>
        <time>2020-06-12T04:13:52Z</time>
      </trkpt>
      <trkpt lat="49.04167" lon="-1.54344">
        <ele>9.6</ele>
        <time>2020-06-12T04:13:53Z</time>
      </trkpt>
      <trkpt lat="49.04168" lon="-1.54353">
        <ele>9.7</ele>
        <time>2020-06-12T04:13:54Z</time>
      </trkpt>
      <trkpt lat="49.04169" lon="-1.54361">
        <ele>9.8</ele>
        <time>2020-06-12T04:13:55Z</time>
      </trkpt>
      <trkpt lat="49.04171" lon="-1.54369">
        <ele>9.9</ele>
        <time>2020-06-12T04:13:56Z</time>
      </trkpt>
      <trkpt lat="49.04172" lon="-1.54376">
        <ele>10</ele>
        <time>2020-06-12T04:13:57Z</time>
      </trkpt>
      <trkpt lat="49.04173" lon="-1.54383">
        <ele>10.1</ele>
        <time>2020-06-12T04:13:58Z</time>
      </trkpt>
      <trkpt lat="49.04175" lon="-1.5439">
        <ele>10.2</ele>
        <time>2020-06-12T04:13:59Z</time>
      </trkpt>
      <trkpt lat="49.04175" lon="-1.54397">
        <ele>10.4</ele>
        <time>2020-06-12T04:14:00Z</time>
      </trkpt>
      <trkpt lat="49.04176" lon="-1.54404">
        <ele>10.5</ele>
        <time>2020-06-12T04:14:01Z</time>
      </trkpt>
      <trkpt lat="49.04177" lon="-1.54411">
        <ele>10.6</ele>
        <time>2020-06-12T04:14:02Z</time>
      </trkpt>
      <trkpt lat="49.04178" lon="-1.54418">
        <ele>10.8</ele>
        <time>2020-06-12T04:14:03Z</time>
      </trkpt>
      <trkpt lat="49.04179" lon="-1.54425">
        <ele>10.9</ele>
        <time>2020-06-12T04:14:04Z</time>
      </trkpt>
      <trkpt lat="49.04181" lon="-1.54432">
        <ele>11</ele>
        <time>2020-06-12T04:14:05Z</time>
      </trkpt>
      <trkpt lat="49.04182" lon="-1.5444">
        <ele>11.1</ele>
        <time>2020-06-12T04:14:06Z</time>
      </trkpt>
      <trkpt lat="49.04183" lon="-1.54446">
        <ele>11.2</ele>
        <time>2020-06-12T04:14:07Z</time>
      </trkpt>
      <trkpt lat="49.04184" lon="-1.54454">
        <ele>11.3</ele>
        <time>2020-06-12T04:14:08Z</time>
      </trkpt>
      <trkpt lat="49.04185" lon="-1.54461">
        <ele>11.4</ele>
        <time>2020-06-12T04:14:09Z</time>
      </trkpt>
      <trkpt lat="49.04187" lon="-1.54467">
        <ele>11.6</ele>
        <time>2020-06-12T04:14:10Z</time>
      </trkpt>
      <trkpt lat="49.04187" lon="-1.54472">
        <ele>11.6</ele>
        <time>2020-06-12T04:14:11Z</time>
      </trkpt>
      <trkpt lat="49.04188" lon="-1.54479">
        <ele>11.7</ele>
        <time>2020-06-12T04:14:12Z</time>
      </trkpt>
      <trkpt lat="49.04189" lon="-1.54485">
        <ele>11.8</ele>
        <time>2020-06-12T04:14:13Z</time>
      </trkpt>
      <trkpt lat="49.0419" lon="-1.54491">
        <ele>11.9</ele>
        <time>2020-06-12T04:14:14Z</time>
      </trkpt>
      <trkpt lat="49.04191" lon="-1.54497">
        <ele>12</ele>
        <time>2020-06-12T04:14:15Z</time>
      </trkpt>
      <trkpt lat="49.04193" lon="-1.54505">
        <ele>12.1</ele>
        <time>2020-06-12T04:14:16Z</time>
      </trkpt>
      <trkpt lat="49.04193" lon="-1.54511">
        <ele>12.2</ele>
        <time>2020-06-12T04:14:17Z</time>
      </trkpt>
      <trkpt lat="49.04194" lon="-1.54518">
        <ele>12.3</ele>
        <time>2020-06-12T04:14:18Z</time>
      </trkpt>
      <trkpt lat="49.04196" lon="-1.54526">
        <ele>12.4</ele>
        <time>2020-06-12T04:14:19Z</time>
      </trkpt>
      <trkpt lat="49.04197" lon="-1.54533">
        <ele>12.5</ele>
        <time>2020-06-12T04:14:20Z</time>
      </trkpt>
      <trkpt lat="49.04197" lon="-1.5454">
        <ele>12.6</ele>
        <time>2020-06-12T04:14:21Z</time>
      </trkpt>
      <trkpt lat="49.04198" lon="-1.54546">
        <ele>12.7</ele>
        <time>2020-06-12T04:14:22Z</time>
      </trkpt>
      <trkpt lat="49.04199" lon="-1.54552">
        <ele>12.8</ele>
        <time>2020-06-12T04:14:23Z</time>
      </trkpt>
      <trkpt lat="49.042" lon="-1.54557">
        <ele>12.8</ele>
        <time>2020-06-12T04:14:24Z</time>
      </trkpt>
      <trkpt lat="49.042" lon="-1.54564">
        <ele>12.9</ele>
        <time>2020-06-12T04:14:25Z</time>
      </trkpt>
      <trkpt lat="49.04201" lon="-1.54568">
        <ele>13</ele>
        <time>2020-06-12T04:14:26Z</time>
      </trkpt>
      <trkpt lat="49.04202" lon="-1.54574">
        <ele>13</ele>
        <time>2020-06-12T04:14:27Z</time>
      </trkpt>
      <trkpt lat="49.04203" lon="-1.5458">
        <ele>13.1</ele>
        <time>2020-06-12T04:14:28Z</time>
      </trkpt>
      <trkpt lat="49.04204" lon="-1.54585">
        <ele>13.2</ele>
        <time>2020-06-12T04:14:29Z</time>
      </trkpt>
      <trkpt lat="49.04204" lon="-1.54591">
        <ele>13.2</ele>
        <time>2020-06-12T04:14:30Z</time>
      </trkpt>
      <trkpt lat="49.04205" lon="-1.54597">
        <ele>13.3</ele>
        <time>2020-06-12T04:14:31Z</time>
      </trkpt>
      <trkpt lat="49.04206" lon="-1.54602">
        <ele>13.4</ele>
        <time>2020-06-12T04:14:32Z</time>
      </trkpt>
      <trkpt lat="49.04207" lon="-1.54608">
        <ele>13.5</ele>
        <time>2020-06-12T04:14:33Z</time>
      </trkpt>
      <trkpt lat="49.04207" lon="-1.54613">
        <ele>13.6</ele>
        <time>2020-06-12T04:14:34Z</time>
      </trkpt>
      <trkpt lat="49.04208" lon="-1.54618">
        <ele>13.7</ele>
        <time>2020-06-12T04:14:35Z</time>
      </trkpt>
      <trkpt lat="49.04209" lon="-1.54623">
        <ele>13.8</ele>
        <time>2020-06-12T04:14:36Z</time>
      </trkpt>
      <trkpt lat="49.0421" lon="-1.54629">
        <ele>13.9</ele>
        <time>2020-06-12T04:14:37Z</time>
      </trkpt>
      <trkpt lat="49.0421" lon="-1.54634">
        <ele>14</ele>
        <time>2020-06-12T04:14:38Z</time>
      </trkpt>
      <trkpt lat="49.0421" lon="-1.54641">
        <ele>14.1</ele>
        <time>2020-06-12T04:14:39Z</time>
      </trkpt>
      <trkpt lat="49.04211" lon="-1.54647">
        <ele>14.2</ele>
        <time>2020-06-12T04:14:40Z</time>
      </trkpt>
      <trkpt lat="49.04212" lon="-1.54652">
        <ele>14.3</ele>
        <time>2020-06-12T04:14:41Z</time>
      </trkpt>
      <trkpt lat="49.04213" lon="-1.54658">
        <ele>14.3</ele>
        <time>2020-06-12T04:14:42Z</time>
      </trkpt>
      <trkpt lat="49.04214" lon="-1.54664">
        <ele>14.4</ele>
        <time>2020-06-12T04:14:43Z</time>
      </trkpt>
      <trkpt lat="49.04215" lon="-1.5467">
        <ele>14.5</ele>
        <time>2020-06-12T04:14:44Z</time>
      </trkpt>
      <trkpt lat="49.04216" lon="-1.54675">
        <ele>14.6</ele>
        <time>2020-06-12T04:14:45Z</time>
      </trkpt>
      <trkpt lat="49.04217" lon="-1.5468">
        <ele>14.7</ele>
        <time>2020-06-12T04:14:46Z</time>
      </trkpt>
      <trkpt lat="49.04218" lon="-1.54685">
        <ele>14.7</ele>
        <time>2020-06-12T04:14:47Z</time>
      </trkpt>
      <trkpt lat="49.04218" lon="-1.54691">
        <ele>14.8</ele>
        <time>2020-06-12T04:14:48Z</time>
      </trkpt>
      <trkpt lat="49.04219" lon="-1.54697">
        <ele>14.9</ele>
        <time>2020-06-12T04:14:49Z</time>
      </trkpt>
      <trkpt lat="49.0422" lon="-1.54702">
        <ele>14.9</ele>
        <time>2020-06-12T04:14:50Z</time>
      </trkpt>
      <trkpt lat="49.0422" lon="-1.54707">
        <ele>15</ele>
        <time>2020-06-12T04:14:51Z</time>
      </trkpt>
      <trkpt lat="49.0422" lon="-1.54713">
        <ele>15.1</ele>
        <time>2020-06-12T04:14:52Z</time>
      </trkpt>
      <trkpt lat="49.04221" lon="-1.54719">
        <ele>15.2</ele>
        <time>2020-06-12T04:14:53Z</time>
      </trkpt>
      <trkpt lat="49.04222" lon="-1.54725">
        <ele>15.3</ele>
        <time>2020-06-12T04:14:54Z</time>
      </trkpt>
      <trkpt lat="49.04222" lon="-1.54731">
        <ele>15.4</ele>
        <time>2020-06-12T04:14:55Z</time>
      </trkpt>
      <trkpt lat="49.04223" lon="-1.54736">
        <ele>15.4</ele>
        <time>2020-06-12T04:14:56Z</time>
      </trkpt>
      <trkpt lat="49.04224" lon="-1.54741">
        <ele>15.5</ele>
        <time>2020-06-12T04:14:57Z</time>
      </trkpt>
      <trkpt lat="49.04224" lon="-1.54746">
        <ele>15.6</ele>
        <time>2020-06-12T04:14:58Z</time>
      </trkpt>
      <trkpt lat="49.04225" lon="-1.54751">
        <ele>15.7</ele>
        <time>2020-06-12T04:14:59Z</time>
      </trkpt>
      <trkpt lat="49.04225" lon="-1.54757">
        <ele>15.8</ele>
        <time>2020-06-12T04:15:00Z</time>
      </trkpt>
      <trkpt lat="49.04227" lon="-1.54763">
        <ele>15.9</ele>
        <time>2020-06-12T04:15:01Z</time>
      </trkpt>
      <trkpt lat="49.04228" lon="-1.54769">
        <ele>16</ele>
        <time>2020-06-12T04:15:02Z</time>
      </trkpt>
      <trkpt lat="49.04229" lon="-1.54774">
        <ele>16.1</ele>
        <time>2020-06-12T04:15:03Z</time>
      </trkpt>
      <trkpt lat="49.04229" lon="-1.5478">
        <ele>16.2</ele>
        <time>2020-06-12T04:15:04Z</time>
      </trkpt>
      <trkpt lat="49.0423" lon="-1.54785">
        <ele>16.3</ele>
        <time>2020-06-12T04:15:05Z</time>
      </trkpt>
      <trkpt lat="49.04231" lon="-1.5479">
        <ele>16.4</ele>
        <time>2020-06-12T04:15:06Z</time>
      </trkpt>
      <trkpt lat="49.04232" lon="-1.54796">
        <ele>16.5</ele>
        <time>2020-06-12T04:15:07Z</time>
      </trkpt>
      <trkpt lat="49.04234" lon="-1.54799">
        <ele>16.6</ele>
        <time>2020-06-12T04:15:08Z</time>
      </trkpt>
      <trkpt lat="49.04235" lon="-1.54803">
        <ele>16.6</ele>
        <time>2020-06-12T04:15:09Z</time>
      </trkpt>
      <trkpt lat="49.04237" lon="-1.54807">
        <ele>16.7</ele>
        <time>2020-06-12T04:15:10Z</time>
      </trkpt>
      <trkpt lat="49.0424" lon="-1.5481">
        <ele>16.8</ele>
        <time>2020-06-12T04:15:11Z</time>
      </trkpt>
      <trkpt lat="49.04244" lon="-1.54812">
        <ele>18.2</ele>
        <time>2020-06-12T04:15:12Z</time>
      </trkpt>
      <trkpt lat="49.04245" lon="-1.54813">
        <ele>18.3</ele>
        <time>2020-06-12T04:15:13Z</time>
      </trkpt>
      <trkpt lat="49.04248" lon="-1.54814">
        <ele>18.7</ele>
        <time>2020-06-12T04:15:14Z</time>
      </trkpt>
      <trkpt lat="49.04249" lon="-1.54814">
        <ele>18.7</ele>
        <time>2020-06-12T04:15:15Z</time>
      </trkpt>
      <trkpt lat="49.04251" lon="-1.54813">
        <ele>18.9</ele>
        <time>2020-06-12T04:15:16Z</time>
      </trkpt>
      <trkpt lat="49.04252" lon="-1.54812">
        <ele>19</ele>
        <time>2020-06-12T04:15:17Z</time>
      </trkpt>
      <trkpt lat="49.04254" lon="-1.54812">
        <ele>19.1</ele>
        <time>2020-06-12T04:15:18Z</time>
      </trkpt>
      <trkpt lat="49.04255" lon="-1.54812">
        <ele>19.2</ele>
        <time>2020-06-12T04:15:19Z</time>
      </trkpt>
      <trkpt lat="49.04256" lon="-1.54814">
        <ele>19.3</ele>
        <time>2020-06-12T04:15:20Z</time>
      </trkpt>
      <trkpt lat="49.04257" lon="-1.54815">
        <ele>19.4</ele>
        <time>2020-06-12T04:15:21Z</time>
      </trkpt>
      <trkpt lat="49.04259" lon="-1.54818">
        <ele>19.6</ele>
        <time>2020-06-12T04:15:22Z</time>
      </trkpt>
      <trkpt lat="49.0426" lon="-1.54819">
        <ele>19.6</ele>
        <time>2020-06-12T04:15:23Z</time>
      </trkpt>
      <trkpt lat="49.04262" lon="-1.54822">
        <ele>19.8</ele>
        <time>2020-06-12T04:15:24Z</time>
      </trkpt>
      <trkpt lat="49.04263" lon="-1.54822">
        <ele>19.9</ele>
        <time>2020-06-12T04:15:25Z</time>
      </trkpt>
      <trkpt lat="49.04264" lon="-1.54823">
        <ele>20</ele>
        <time>2020-06-12T04:15:26Z</time>
      </trkpt>
      <trkpt lat="49.04265" lon="-1.54823">
        <ele>20</ele>
        <time>2020-06-12T04:15:27Z</time>
      </trkpt>
      <trkpt lat="49.04266" lon="-1.54824">
        <ele>20.1</ele>
        <time>2020-06-12T04:15:28Z</time>
      </trkpt>
      <trkpt lat="49.04268" lon="-1.54826">
        <ele>20.2</ele>
        <time>2020-06-12T04:15:29Z</time>
      </trkpt>
      <trkpt lat="49.04269" lon="-1.54826">
        <ele>20.3</ele>
        <time>2020-06-12T04:15:30Z</time>
      </trkpt>
      <trkpt lat="49.0427" lon="-1.54826">
        <ele>20.3</ele>
        <time>2020-06-12T04:15:31Z</time>
      </trkpt>
      <trkpt lat="49.0427" lon="-1.54824">
        <ele>20.4</ele>
        <time>2020-06-12T04:15:32Z</time>
      </trkpt>
      <trkpt lat="49.04271" lon="-1.54823">
        <ele>20.4</ele>
        <time>2020-06-12T04:15:33Z</time>
      </trkpt>
      <trkpt lat="49.04271" lon="-1.54822">
        <ele>20.5</ele>
        <time>2020-06-12T04:15:34Z</time>
      </trkpt>
      <trkpt lat="49.04274" lon="-1.54821">
        <ele>20.7</ele>
        <time>2020-06-12T04:15:35Z</time>
      </trkpt>
      <trkpt lat="49.04275" lon="-1.54819">
        <ele>20.7</ele>
        <time>2020-06-12T04:15:36Z</time>
      </trkpt>
      <trkpt lat="49.04277" lon="-1.54817">
        <ele>20.9</ele>
        <time>2020-06-12T04:15:37Z</time>
      </trkpt>
      <trkpt lat="49.04279" lon="-1.54814">
        <ele>21.1</ele>
        <time>2020-06-12T04:15:38Z</time>
      </trkpt>
      <trkpt lat="49.0428" lon="-1.54813">
        <ele>21.2</ele>
        <time>2020-06-12T04:15:39Z</time>
      </trkpt>
      <trkpt lat="49.04282" lon="-1.54811">
        <ele>21.3</ele>
        <time>2020-06-12T04:15:40Z</time>
      </trkpt>
      <trkpt lat="49.04283" lon="-1.5481">
        <ele>21.4</ele>
        <time>2020-06-12T04:15:41Z</time>
      </trkpt>
      <trkpt lat="49.04286" lon="-1.54807">
        <ele>21.6</ele>
        <time>2020-06-12T04:15:42Z</time>
      </trkpt>
      <trkpt lat="49.04287" lon="-1.54806">
        <ele>21.7</ele>
        <time>2020-06-12T04:15:43Z</time>
      </trkpt>
      <trkpt lat="49.04288" lon="-1.54805">
        <ele>21.8</ele>
        <time>2020-06-12T04:15:44Z</time>
      </trkpt>
      <trkpt lat="49.04289" lon="-1.54803">
        <ele>21.9</ele>
        <time>2020-06-12T04:15:45Z</time>
      </trkpt>
      <trkpt lat="49.04292" lon="-1.54801">
        <ele>22.1</ele>
        <time>2020-06-12T04:15:46Z</time>
      </trkpt>
      <trkpt lat="49.04293" lon="-1.548">
        <ele>22.1</ele>
        <time>2020-06-12T04:15:47Z</time>
      </trkpt>
      <trkpt lat="49.04296" lon="-1.54798">
        <ele>22.3</ele>
        <time>2020-06-12T04:15:48Z</time>
      </trkpt>
      <trkpt lat="49.04296" lon="-1.54797">
        <ele>22.4</ele>
        <time>2020-06-12T04:15:49Z</time>
      </trkpt>
      <trkpt lat="49.043" lon="-1.54795">
        <ele>22.6</ele>
        <time>2020-06-12T04:15:50Z</time>
      </trkpt>
      <trkpt lat="49.04301" lon="-1.54794">
        <ele>22.7</ele>
        <time>2020-06-12T04:15:51Z</time>
      </trkpt>
      <trkpt lat="49.04302" lon="-1.54793">
        <ele>22.8</ele>
        <time>2020-06-12T04:15:52Z</time>
      </trkpt>
      <trkpt lat="49.04303" lon="-1.54792">
        <ele>22.9</ele>
        <time>2020-06-12T04:15:53Z</time>
      </trkpt>
      <trkpt lat="49.04306" lon="-1.54789">
        <ele>23.2</ele>
        <time>2020-06-12T04:15:54Z</time>
      </trkpt>
      <trkpt lat="49.04307" lon="-1.54789">
        <ele>23.3</ele>
        <time>2020-06-12T04:15:55Z</time>
      </trkpt>
      <trkpt lat="49.0431" lon="-1.54788">
        <ele>23.5</ele>
        <time>2020-06-12T04:15:56Z</time>
      </trkpt>
      <trkpt lat="49.04311" lon="-1.54787">
        <ele>23.5</ele>
        <time>2020-06-12T04:15:57Z</time>
      </trkpt>
      <trkpt lat="49.04313" lon="-1.54784">
        <ele>23.7</ele>
        <time>2020-06-12T04:15:58Z</time>
      </trkpt>
      <trkpt lat="49.04313" lon="-1.54782">
        <ele>23.8</ele>
        <time>2020-06-12T04:15:59Z</time>
      </trkpt>
      <trkpt lat="49.04316" lon="-1.5478">
        <ele>24.1</ele>
        <time>2020-06-12T04:16:00Z</time>
      </trkpt>
      <trkpt lat="49.04317" lon="-1.54779">
        <ele>24.1</ele>
        <time>2020-06-12T04:16:01Z</time>
      </trkpt>
      <trkpt lat="49.0432" lon="-1.54775">
        <ele>24.4</ele>
        <time>2020-06-12T04:16:02Z</time>
      </trkpt>
      <trkpt lat="49.04321" lon="-1.54773">
        <ele>24.5</ele>
        <time>2020-06-12T04:16:03Z</time>
      </trkpt>
      <trkpt lat="49.04323" lon="-1.54771">
        <ele>24.7</ele>
        <time>2020-06-12T04:16:04Z</time>
      </trkpt>
      <trkpt lat="49.04324" lon="-1.5477">
        <ele>24.8</ele>
        <time>2020-06-12T04:16:05Z</time>
      </trkpt>
      <trkpt lat="49.04326" lon="-1.54768">
        <ele>24.9</ele>
        <time>2020-06-12T04:16:06Z</time>
      </trkpt>
      <trkpt lat="49.04327" lon="-1.54768">
        <ele>25</ele>
        <time>2020-06-12T04:16:07Z</time>
      </trkpt>
      <trkpt lat="49.0433" lon="-1.54764">
        <ele>25.3</ele>
        <time>2020-06-12T04:16:08Z</time>
      </trkpt>
      <trkpt lat="49.04331" lon="-1.54763">
        <ele>25.4</ele>
        <time>2020-06-12T04:16:09Z</time>
      </trkpt>
      <trkpt lat="49.04332" lon="-1.54762">
        <ele>25.5</ele>
        <time>2020-06-12T04:16:10Z</time>
      </trkpt>
      <trkpt lat="49.04333" lon="-1.54762">
        <ele>25.5</ele>
        <time>2020-06-12T04:16:11Z</time>
      </trkpt>
      <trkpt lat="49.04333" lon="-1.54761">
        <ele>25.6</ele>
        <time>2020-06-12T04:16:12Z</time>
      </trkpt>
      <trkpt lat="49.04335" lon="-1.5476">
        <ele>25.7</ele>
        <time>2020-06-12T04:16:13Z</time>
      </trkpt>
      <trkpt lat="49.04336" lon="-1.54759">
        <ele>25.9</ele>
        <time>2020-06-12T04:16:14Z</time>
      </trkpt>
      <trkpt lat="49.04337" lon="-1.54758">
        <ele>25.9</ele>
        <time>2020-06-12T04:16:15Z</time>
      </trkpt>
      <trkpt lat="49.04339" lon="-1.54758">
        <ele>26.1</ele>
        <time>2020-06-12T04:16:16Z</time>
      </trkpt>
      <trkpt lat="49.04339" lon="-1.54758">
        <ele>26.1</ele>
        <time>2020-06-12T04:16:17Z</time>
      </trkpt>
      <trkpt lat="49.04341" lon="-1.54755">
        <ele>26.3</ele>
        <time>2020-06-12T04:16:18Z</time>
      </trkpt>
      <trkpt lat="49.04342" lon="-1.54754">
        <ele>26.4</ele>
        <time>2020-06-12T04:16:19Z</time>
      </trkpt>
      <trkpt lat="49.04343" lon="-1.54753">
        <ele>26.5</ele>
        <time>2020-06-12T04:16:20Z</time>
      </trkpt>
      <trkpt lat="49.04345" lon="-1.5475">
        <ele>26.7</ele>
        <time>2020-06-12T04:16:21Z</time>
      </trkpt>
      <trkpt lat="49.04346" lon="-1.5475">
        <ele>26.8</ele>
        <time>2020-06-12T04:16:22Z</time>
      </trkpt>
      <trkpt lat="49.04349" lon="-1.54748">
        <ele>27.1</ele>
        <time>2020-06-12T04:16:23Z</time>
      </trkpt>
      <trkpt lat="49.0435" lon="-1.54747">
        <ele>27.2</ele>
        <time>2020-06-12T04:16:24Z</time>
      </trkpt>
      <trkpt lat="49.04353" lon="-1.54745">
        <ele>27.4</ele>
        <time>2020-06-12T04:16:25Z</time>
      </trkpt>
      <trkpt lat="49.04354" lon="-1.54745">
        <ele>27.5</ele>
        <time>2020-06-12T04:16:26Z</time>
      </trkpt>
      <trkpt lat="49.04356" lon="-1.54745">
        <ele>27.6</ele>
        <time>2020-06-12T04:16:27Z</time>
      </trkpt>
      <trkpt lat="49.04358" lon="-1.54744">
        <ele>27.7</ele>
        <time>2020-06-12T04:16:28Z</time>
      </trkpt>
      <trkpt lat="49.04359" lon="-1.54743">
        <ele>27.9</ele>
        <time>2020-06-12T04:16:29Z</time>
      </trkpt>
      <trkpt lat="49.04361" lon="-1.54743">
        <ele>28</ele>
        <time>2020-06-12T04:16:30Z</time>
      </trkpt>
      <trkpt lat="49.04364" lon="-1.54741">
        <ele>28.2</ele>
        <time>2020-06-12T04:16:31Z</time>
      </trkpt>
      <trkpt lat="49.04365" lon="-1.54741">
        <ele>28.3</ele>
        <time>2020-06-12T04:16:32Z</time>
      </trkpt>
      <trkpt lat="49.04368" lon="-1.5474">
        <ele>28.5</ele>
        <time>2020-06-12T04:16:33Z</time>
      </trkpt>
      <trkpt lat="49.04371" lon="-1.5474">
        <ele>28.7</ele>
        <time>2020-06-12T04:16:34Z</time>
      </trkpt>
      <trkpt lat="49.04373" lon="-1.54741">
        <ele>28.8</ele>
        <time>2020-06-12T04:16:35Z</time>
      </trkpt>
      <trkpt lat="49.04374" lon="-1.54741">
        <ele>28.9</ele>
        <time>2020-06-12T04:16:36Z</time>
      </trkpt>
      <trkpt lat="49.04376" lon="-1.54742">
        <ele>29</ele>
        <time>2020-06-12T04:16:37Z</time>
      </trkpt>
      <trkpt lat="49.04378" lon="-1.54743">
        <ele>29.2</ele>
        <time>2020-06-12T04:16:38Z</time>
      </trkpt>
      <trkpt lat="49.04379" lon="-1.54743">
        <ele>29.2</ele>
        <time>2020-06-12T04:16:39Z</time>
      </trkpt>
      <trkpt lat="49.0438" lon="-1.54744">
        <ele>29.3</ele>
        <time>2020-06-12T04:16:40Z</time>
      </trkpt>
      <trkpt lat="49.04382" lon="-1.54745">
        <ele>29.5</ele>
        <time>2020-06-12T04:16:41Z</time>
      </trkpt>
      <trkpt lat="49.04385" lon="-1.54746">
        <ele>29.6</ele>
        <time>2020-06-12T04:16:42Z</time>
      </trkpt>
      <trkpt lat="49.04386" lon="-1.54747">
        <ele>29.7</ele>
        <time>2020-06-12T04:16:43Z</time>
      </trkpt>
      <trkpt lat="49.04389" lon="-1.54747">
        <ele>29.9</ele>
        <time>2020-06-12T04:16:44Z</time>
      </trkpt>
      <trkpt lat="49.0439" lon="-1.54747">
        <ele>29.9</ele>
        <time>2020-06-12T04:16:45Z</time>
      </trkpt>
      <trkpt lat="49.04392" lon="-1.54748">
        <ele>30.1</ele>
        <time>2020-06-12T04:16:46Z</time>
      </trkpt>
      <trkpt lat="49.04393" lon="-1.54748">
        <ele>30.2</ele>
        <time>2020-06-12T04:16:47Z</time>
      </trkpt>
      <trkpt lat="49.04397" lon="-1.54749">
        <ele>30.4</ele>
        <time>2020-06-12T04:16:48Z</time>
      </trkpt>
      <trkpt lat="49.04398" lon="-1.54749">
        <ele>30.5</ele>
        <time>2020-06-12T04:16:49Z</time>
      </trkpt>
      <trkpt lat="49.04401" lon="-1.54751">
        <ele>30.7</ele>
        <time>2020-06-12T04:16:50Z</time>
      </trkpt>
      <trkpt lat="49.04402" lon="-1.54751">
        <ele>30.7</ele>
        <time>2020-06-12T04:16:51Z</time>
      </trkpt>
      <trkpt lat="49.04404" lon="-1.54752">
        <ele>30.9</ele>
        <time>2020-06-12T04:16:52Z</time>
      </trkpt>
      <trkpt lat="49.04405" lon="-1.54752">
        <ele>31</ele>
        <time>2020-06-12T04:16:53Z</time>
      </trkpt>
      <trkpt lat="49.04408" lon="-1.54754">
        <ele>31.1</ele>
        <time>2020-06-12T04:16:54Z</time>
      </trkpt>
      <trkpt lat="49.04409" lon="-1.54755">
        <ele>31.2</ele>
        <time>2020-06-12T04:16:55Z</time>
      </trkpt>
      <trkpt lat="49.04412" lon="-1.54757">
        <ele>31.4</ele>
        <time>2020-06-12T04:16:56Z</time>
      </trkpt>
      <trkpt lat="49.04413" lon="-1.54758">
        <ele>31.5</ele>
        <time>2020-06-12T04:16:57Z</time>
      </trkpt>
      <trkpt lat="49.04416" lon="-1.5476">
        <ele>31.7</ele>
        <time>2020-06-12T04:16:58Z</time>
      </trkpt>
      <trkpt lat="49.04417" lon="-1.5476">
        <ele>31.7</ele>
        <time>2020-06-12T04:16:59Z</time>
      </trkpt>
      <trkpt lat="49.04419" lon="-1.54761">
        <ele>31.9</ele>
        <time>2020-06-12T04:17:00Z</time>
      </trkpt>
      <trkpt lat="49.0442" lon="-1.54762">
        <ele>31.9</ele>
        <time>2020-06-12T04:17:01Z</time>
      </trkpt>
      <trkpt lat="49.04421" lon="-1.54763">
        <ele>32</ele>
        <time>2020-06-12T04:17:02Z</time>
      </trkpt>
      <trkpt lat="49.04423" lon="-1.54763">
        <ele>32.1</ele>
        <time>2020-06-12T04:17:03Z</time>
      </trkpt>
      <trkpt lat="49.04426" lon="-1.54765">
        <ele>32.3</ele>
        <time>2020-06-12T04:17:04Z</time>
      </trkpt>
      <trkpt lat="49.04427" lon="-1.54765">
        <ele>32.4</ele>
        <time>2020-06-12T04:17:05Z</time>
      </trkpt>
      <trkpt lat="49.04428" lon="-1.54766">
        <ele>32.5</ele>
        <time>2020-06-12T04:17:06Z</time>
      </trkpt>
      <trkpt lat="49.0443" lon="-1.54767">
        <ele>32.6</ele>
        <time>2020-06-12T04:17:07Z</time>
      </trkpt>
      <trkpt lat="49.04431" lon="-1.54768">
        <ele>32.7</ele>
        <time>2020-06-12T04:17:08Z</time>
      </trkpt>
      <trkpt lat="49.04433" lon="-1.54769">
        <ele>32.8</ele>
        <time>2020-06-12T04:17:09Z</time>
      </trkpt>
      <trkpt lat="49.04435" lon="-1.5477">
        <ele>33</ele>
        <time>2020-06-12T04:17:10Z</time>
      </trkpt>
      <trkpt lat="49.04436" lon="-1.54771">
        <ele>33</ele>
        <time>2020-06-12T04:17:11Z</time>
      </trkpt>
      <trkpt lat="49.04439" lon="-1.54773">
        <ele>33.2</ele>
        <time>2020-06-12T04:17:12Z</time>
      </trkpt>
      <trkpt lat="49.0444" lon="-1.54774">
        <ele>33.3</ele>
        <time>2020-06-12T04:17:13Z</time>
      </trkpt>
      <trkpt lat="49.04442" lon="-1.54777">
        <ele>33.5</ele>
        <time>2020-06-12T04:17:14Z</time>
      </trkpt>
      <trkpt lat="49.04443" lon="-1.54778">
        <ele>33.6</ele>
        <time>2020-06-12T04:17:15Z</time>
      </trkpt>
      <trkpt lat="49.04446" lon="-1.54779">
        <ele>33.8</ele>
        <time>2020-06-12T04:17:16Z</time>
      </trkpt>
      <trkpt lat="49.04447" lon="-1.54779">
        <ele>33.8</ele>
        <time>2020-06-12T04:17:17Z</time>
      </trkpt>
      <trkpt lat="49.0445" lon="-1.54779">
        <ele>34</ele>
        <time>2020-06-12T04:17:18Z</time>
      </trkpt>
      <trkpt lat="49.04452" lon="-1.54779">
        <ele>34.1</ele>
        <time>2020-06-12T04:17:19Z</time>
      </trkpt>
      <trkpt lat="49.04454" lon="-1.54781">
        <ele>34.3</ele>
        <time>2020-06-12T04:17:20Z</time>
      </trkpt>
      <trkpt lat="49.04455" lon="-1.54781">
        <ele>34.3</ele>
        <time>2020-06-12T04:17:21Z</time>
      </trkpt>
      <trkpt lat="49.04458" lon="-1.54782">
        <ele>34.5</ele>
        <time>2020-06-12T04:17:22Z</time>
      </trkpt>
      <trkpt lat="49.04459" lon="-1.54782">
        <ele>34.5</ele>
        <time>2020-06-12T04:17:23Z</time>
      </trkpt>
      <trkpt lat="49.04462" lon="-1.54783">
        <ele>34.7</ele>
        <time>2020-06-12T04:17:24Z</time>
      </trkpt>
      <trkpt lat="49.04463" lon="-1.54784">
        <ele>34.7</ele>
        <time>2020-06-12T04:17:25Z</time>
      </trkpt>
      <trkpt lat="49.04465" lon="-1.54785">
        <ele>34.9</ele>
        <time>2020-06-12T04:17:26Z</time>
      </trkpt>
      <trkpt lat="49.04466" lon="-1.54786">
        <ele>35</ele>
        <time>2020-06-12T04:17:27Z</time>
      </trkpt>
      <trkpt lat="49.04467" lon="-1.54788">
        <ele>35.1</ele>
        <time>2020-06-12T04:17:28Z</time>
      </trkpt>
      <trkpt lat="49.04468" lon="-1.54789">
        <ele>35.2</ele>
        <time>2020-06-12T04:17:29Z</time>
      </trkpt>
      <trkpt lat="49.04469" lon="-1.5479">
        <ele>35.3</ele>
        <time>2020-06-12T04:17:30Z</time>
      </trkpt>
      <trkpt lat="49.04471" lon="-1.54791">
        <ele>35.5</ele>
        <time>2020-06-12T04:17:31Z</time>
      </trkpt>
      <trkpt lat="49.04474" lon="-1.54792">
        <ele>35.7</ele>
        <time>2020-06-12T04:17:32Z</time>
      </trkpt>
      <trkpt lat="49.04475" lon="-1.54792">
        <ele>35.8</ele>
        <time>2020-06-12T04:17:33Z</time>
      </trkpt>
      <trkpt lat="49.04477" lon="-1.54793">
        <ele>35.9</ele>
        <time>2020-06-12T04:17:34Z</time>
      </trkpt>
      <trkpt lat="49.04478" lon="-1.54795">
        <ele>36</ele>
        <time>2020-06-12T04:17:35Z</time>
      </trkpt>
      <trkpt lat="49.04482" lon="-1.54795">
        <ele>36.3</ele>
        <time>2020-06-12T04:17:36Z</time>
      </trkpt>
      <trkpt lat="49.04483" lon="-1.54795">
        <ele>36.3</ele>
        <time>2020-06-12T04:17:37Z</time>
      </trkpt>
      <trkpt lat="49.04486" lon="-1.54796">
        <ele>36.6</ele>
        <time>2020-06-12T04:17:38Z</time>
      </trkpt>
      <trkpt lat="49.04487" lon="-1.54797">
        <ele>36.7</ele>
        <time>2020-06-12T04:17:39Z</time>
      </trkpt>
      <trkpt lat="49.04489" lon="-1.54799">
        <ele>36.9</ele>
        <time>2020-06-12T04:17:40Z</time>
      </trkpt>
      <trkpt lat="49.0449" lon="-1.54799">
        <ele>36.9</ele>
        <time>2020-06-12T04:17:41Z</time>
      </trkpt>
      <trkpt lat="49.04492" lon="-1.548">
        <ele>37.1</ele>
        <time>2020-06-12T04:17:42Z</time>
      </trkpt>
      <trkpt lat="49.04493" lon="-1.54801">
        <ele>37.2</ele>
        <time>2020-06-12T04:17:43Z</time>
      </trkpt>
      <trkpt lat="49.04496" lon="-1.54801">
        <ele>37.4</ele>
        <time>2020-06-12T04:17:44Z</time>
      </trkpt>
      <trkpt lat="49.04497" lon="-1.54802">
        <ele>37.5</ele>
        <time>2020-06-12T04:17:45Z</time>
      </trkpt>
      <trkpt lat="49.045" lon="-1.54804">
        <ele>37.8</ele>
        <time>2020-06-12T04:17:46Z</time>
      </trkpt>
      <trkpt lat="49.04501" lon="-1.54804">
        <ele>37.8</ele>
        <time>2020-06-12T04:17:47Z</time>
      </trkpt>
      <trkpt lat="49.04504" lon="-1.54805">
        <ele>38.1</ele>
        <time>2020-06-12T04:17:48Z</time>
      </trkpt>
      <trkpt lat="49.04505" lon="-1.54806">
        <ele>38.2</ele>
        <time>2020-06-12T04:17:49Z</time>
      </trkpt>
      <trkpt lat="49.04508" lon="-1.54807">
        <ele>38.4</ele>
        <time>2020-06-12T04:17:50Z</time>
      </trkpt>
      <trkpt lat="49.04509" lon="-1.54807">
        <ele>38.5</ele>
        <time>2020-06-12T04:17:51Z</time>
      </trkpt>
      <trkpt lat="49.04511" lon="-1.54808">
        <ele>38.7</ele>
        <time>2020-06-12T04:17:52Z</time>
      </trkpt>
      <trkpt lat="49.04512" lon="-1.5481">
        <ele>38.8</ele>
        <time>2020-06-12T04:17:53Z</time>
      </trkpt>
      <trkpt lat="49.04515" lon="-1.54812">
        <ele>39.1</ele>
        <time>2020-06-12T04:17:54Z</time>
      </trkpt>
      <trkpt lat="49.04516" lon="-1.54813">
        <ele>39.2</ele>
        <time>2020-06-12T04:17:55Z</time>
      </trkpt>
      <trkpt lat="49.04519" lon="-1.54815">
        <ele>39.5</ele>
        <time>2020-06-12T04:17:56Z</time>
      </trkpt>
      <trkpt lat="49.0452" lon="-1.54816">
        <ele>39.6</ele>
        <time>2020-06-12T04:17:57Z</time>
      </trkpt>
      <trkpt lat="49.04523" lon="-1.54818">
        <ele>39.9</ele>
        <time>2020-06-12T04:17:58Z</time>
      </trkpt>
      <trkpt lat="49.04524" lon="-1.54819">
        <ele>40</ele>
        <time>2020-06-12T04:17:59Z</time>
      </trkpt>
      <trkpt lat="49.04526" lon="-1.5482">
        <ele>40.1</ele>
        <time>2020-06-12T04:18:00Z</time>
      </trkpt>
      <trkpt lat="49.04527" lon="-1.54821">
        <ele>40.2</ele>
        <time>2020-06-12T04:18:01Z</time>
      </trkpt>
      <trkpt lat="49.04529" lon="-1.54822">
        <ele>40.4</ele>
        <time>2020-06-12T04:18:02Z</time>
      </trkpt>
      <trkpt lat="49.0453" lon="-1.54823">
        <ele>40.5</ele>
        <time>2020-06-12T04:18:03Z</time>
      </trkpt>
      <trkpt lat="49.0453" lon="-1.54824">
        <ele>40.6</ele>
        <time>2020-06-12T04:18:04Z</time>
      </trkpt>
      <trkpt lat="49.04532" lon="-1.54825">
        <ele>40.7</ele>
        <time>2020-06-12T04:18:05Z</time>
      </trkpt>
      <trkpt lat="49.04534" lon="-1.54826">
        <ele>40.9</ele>
        <time>2020-06-12T04:18:06Z</time>
      </trkpt>
      <trkpt lat="49.04536" lon="-1.54828">
        <ele>41.1</ele>
        <time>2020-06-12T04:18:07Z</time>
      </trkpt>
      <trkpt lat="49.04537" lon="-1.54829">
        <ele>41.2</ele>
        <time>2020-06-12T04:18:08Z</time>
      </trkpt>
      <trkpt lat="49.0454" lon="-1.54829">
        <ele>41.4</ele>
        <time>2020-06-12T04:18:09Z</time>
      </trkpt>
      <trkpt lat="49.04541" lon="-1.5483">
        <ele>41.5</ele>
        <time>2020-06-12T04:18:10Z</time>
      </trkpt>
      <trkpt lat="49.04544" lon="-1.54831">
        <ele>41.7</ele>
        <time>2020-06-12T04:18:11Z</time>
      </trkpt>
      <trkpt lat="49.04544" lon="-1.54832">
        <ele>41.8</ele>
        <time>2020-06-12T04:18:12Z</time>
      </trkpt>
      <trkpt lat="49.04546" lon="-1.54833">
        <ele>42</ele>
        <time>2020-06-12T04:18:13Z</time>
      </trkpt>
      <trkpt lat="49.04547" lon="-1.54833">
        <ele>42.1</ele>
        <time>2020-06-12T04:18:14Z</time>
      </trkpt>
      <trkpt lat="49.04548" lon="-1.54833">
        <ele>42.1</ele>
        <time>2020-06-12T04:18:15Z</time>
      </trkpt>
      <trkpt lat="49.0455" lon="-1.54834">
        <ele>42.3</ele>
        <time>2020-06-12T04:18:16Z</time>
      </trkpt>
      <trkpt lat="49.04551" lon="-1.54834">
        <ele>42.4</ele>
        <time>2020-06-12T04:18:17Z</time>
      </trkpt>
      <trkpt lat="49.04554" lon="-1.54836">
        <ele>42.7</ele>
        <time>2020-06-12T04:18:18Z</time>
      </trkpt>
      <trkpt lat="49.04555" lon="-1.54836">
        <ele>42.8</ele>
        <time>2020-06-12T04:18:19Z</time>
      </trkpt>
      <trkpt lat="49.04559" lon="-1.54838">
        <ele>43.1</ele>
        <time>2020-06-12T04:18:20Z</time>
      </trkpt>
      <trkpt lat="49.0456" lon="-1.54838">
        <ele>43.2</ele>
        <time>2020-06-12T04:18:21Z</time>
      </trkpt>
      <trkpt lat="49.04562" lon="-1.54838">
        <ele>43.4</ele>
        <time>2020-06-12T04:18:22Z</time>
      </trkpt>
      <trkpt lat="49.04563" lon="-1.54839">
        <ele>43.5</ele>
        <time>2020-06-12T04:18:23Z</time>
      </trkpt>
      <trkpt lat="49.04564" lon="-1.54842">
        <ele>43.7</ele>
        <time>2020-06-12T04:18:24Z</time>
      </trkpt>
      <trkpt lat="49.04565" lon="-1.54843">
        <ele>43.8</ele>
        <time>2020-06-12T04:18:25Z</time>
      </trkpt>
      <trkpt lat="49.04567" lon="-1.54844">
        <ele>44</ele>
        <time>2020-06-12T04:18:26Z</time>
      </trkpt>
      <trkpt lat="49.04568" lon="-1.54846">
        <ele>44.1</ele>
        <time>2020-06-12T04:18:27Z</time>
      </trkpt>
      <trkpt lat="49.04569" lon="-1.54847">
        <ele>44.3</ele>
        <time>2020-06-12T04:18:28Z</time>
      </trkpt>
      <trkpt lat="49.04571" lon="-1.54848">
        <ele>44.4</ele>
        <time>2020-06-12T04:18:29Z</time>
      </trkpt>
      <trkpt lat="49.04573" lon="-1.54849">
        <ele>44.7</ele>
        <time>2020-06-12T04:18:30Z</time>
      </trkpt>
      <trkpt lat="49.04574" lon="-1.54849">
        <ele>44.7</ele>
        <time>2020-06-12T04:18:31Z</time>
      </trkpt>
      <trkpt lat="49.04577" lon="-1.54852">
        <ele>45.1</ele>
        <time>2020-06-12T04:18:32Z</time>
      </trkpt>
      <trkpt lat="49.04578" lon="-1.54853">
        <ele>45.1</ele>
        <time>2020-06-12T04:18:33Z</time>
      </trkpt>
      <trkpt lat="49.04581" lon="-1.54853">
        <ele>45.4</ele>
        <time>2020-06-12T04:18:34Z</time>
      </trkpt>
      <trkpt lat="49.04583" lon="-1.54853">
        <ele>45.5</ele>
        <time>2020-06-12T04:18:35Z</time>
      </trkpt>
      <trkpt lat="49.04584" lon="-1.54854">
        <ele>45.6</ele>
        <time>2020-06-12T04:18:36Z</time>
      </trkpt>
      <trkpt lat="49.04585" lon="-1.54855">
        <ele>45.6</ele>
        <time>2020-06-12T04:18:37Z</time>
      </trkpt>
      <trkpt lat="49.04586" lon="-1.54855">
        <ele>45.7</ele>
        <time>2020-06-12T04:18:38Z</time>
      </trkpt>
      <trkpt lat="49.04587" lon="-1.54855">
        <ele>45.8</ele>
        <time>2020-06-12T04:18:39Z</time>
      </trkpt>
      <trkpt lat="49.04589" lon="-1.54853">
        <ele>45.9</ele>
        <time>2020-06-12T04:18:40Z</time>
      </trkpt>
      <trkpt lat="49.04591" lon="-1.54851">
        <ele>46.1</ele>
        <time>2020-06-12T04:18:41Z</time>
      </trkpt>
      <trkpt lat="49.04592" lon="-1.5485">
        <ele>46.1</ele>
        <time>2020-06-12T04:18:42Z</time>
      </trkpt>
      <trkpt lat="49.04594" lon="-1.54846">
        <ele>46.2</ele>
        <time>2020-06-12T04:18:43Z</time>
      </trkpt>
      <trkpt lat="49.04595" lon="-1.54845">
        <ele>46.2</ele>
        <time>2020-06-12T04:18:44Z</time>
      </trkpt>
      <trkpt lat="49.04596" lon="-1.54843">
        <ele>46.2</ele>
        <time>2020-06-12T04:18:45Z</time>
      </trkpt>
      <trkpt lat="49.04596" lon="-1.54841">
        <ele>46.3</ele>
        <time>2020-06-12T04:18:46Z</time>
      </trkpt>
      <trkpt lat="49.04597" lon="-1.5484">
        <ele>46.3</ele>
        <time>2020-06-12T04:18:47Z</time>
      </trkpt>
      <trkpt lat="49.04599" lon="-1.54838">
        <ele>46.4</ele>
        <time>2020-06-12T04:18:48Z</time>
      </trkpt>
      <trkpt lat="49.04601" lon="-1.54838">
        <ele>46.4</ele>
        <time>2020-06-12T04:18:49Z</time>
      </trkpt>
      <trkpt lat="49.04602" lon="-1.54839">
        <ele>46.4</ele>
        <time>2020-06-12T04:18:50Z</time>
      </trkpt>
      <trkpt lat="49.04604" lon="-1.54839">
        <ele>46.4</ele>
        <time>2020-06-12T04:18:51Z</time>
      </trkpt>
      <trkpt lat="49.04605" lon="-1.5484">
        <ele>46.5</ele>
        <time>2020-06-12T04:18:52Z</time>
      </trkpt>
      <trkpt lat="49.04607" lon="-1.5484">
        <ele>46.5</ele>
        <time>2020-06-12T04:18:53Z</time>
      </trkpt>
      <trkpt lat="49.04609" lon="-1.54841">
        <ele>46.5</ele>
        <time>2020-06-12T04:18:54Z</time>
      </trkpt>
      <trkpt lat="49.04612" lon="-1.54841">
        <ele>46.6</ele>
        <time>2020-06-12T04:18:55Z</time>
      </trkpt>
      <trkpt lat="49.04614" lon="-1.54841">
        <ele>46.6</ele>
        <time>2020-06-12T04:18:56Z</time>
      </trkpt>
      <trkpt lat="49.04617" lon="-1.5484">
        <ele>46.6</ele>
        <time>2020-06-12T04:18:57Z</time>
      </trkpt>
      <trkpt lat="49.04619" lon="-1.54838">
        <ele>46.7</ele>
        <time>2020-06-12T04:18:58Z</time>
      </trkpt>
      <trkpt lat="49.04623" lon="-1.54837">
        <ele>46.7</ele>
        <time>2020-06-12T04:18:59Z</time>
      </trkpt>
      <trkpt lat="49.04624" lon="-1.54836">
        <ele>46.7</ele>
        <time>2020-06-12T04:19:00Z</time>
      </trkpt>
      <trkpt lat="49.04628" lon="-1.54835">
        <ele>46.8</ele>
        <time>2020-06-12T04:19:01Z</time>
      </trkpt>
      <trkpt lat="49.04629" lon="-1.54835">
        <ele>46.8</ele>
        <time>2020-06-12T04:19:02Z</time>
      </trkpt>
      <trkpt lat="49.04632" lon="-1.54834">
        <ele>46.9</ele>
        <time>2020-06-12T04:19:03Z</time>
      </trkpt>
      <trkpt lat="49.04633" lon="-1.54834">
        <ele>46.9</ele>
        <time>2020-06-12T04:19:04Z</time>
      </trkpt>
      <trkpt lat="49.04637" lon="-1.54835">
        <ele>47</ele>
        <time>2020-06-12T04:19:05Z</time>
      </trkpt>
      <trkpt lat="49.04638" lon="-1.54835">
        <ele>47</ele>
        <time>2020-06-12T04:19:06Z</time>
      </trkpt>
      <trkpt lat="49.04642" lon="-1.54835">
        <ele>47.1</ele>
        <time>2020-06-12T04:19:07Z</time>
      </trkpt>
      <trkpt lat="49.04643" lon="-1.54836">
        <ele>47.1</ele>
        <time>2020-06-12T04:19:08Z</time>
      </trkpt>
      <trkpt lat="49.04646" lon="-1.54836">
        <ele>47.2</ele>
        <time>2020-06-12T04:19:09Z</time>
      </trkpt>
      <trkpt lat="49.04647" lon="-1.54836">
        <ele>47.2</ele>
        <time>2020-06-12T04:19:10Z</time>
      </trkpt>
      <trkpt lat="49.04651" lon="-1.54836">
        <ele>47.3</ele>
        <time>2020-06-12T04:19:11Z</time>
      </trkpt>
      <trkpt lat="49.04652" lon="-1.54836">
        <ele>47.4</ele>
        <time>2020-06-12T04:19:12Z</time>
      </trkpt>
      <trkpt lat="49.04655" lon="-1.54836">
        <ele>47.5</ele>
        <time>2020-06-12T04:19:13Z</time>
      </trkpt>
      <trkpt lat="49.04656" lon="-1.54835">
        <ele>47.5</ele>
        <time>2020-06-12T04:19:14Z</time>
      </trkpt>
      <trkpt lat="49.04658" lon="-1.54836">
        <ele>47.5</ele>
        <time>2020-06-12T04:19:15Z</time>
      </trkpt>
      <trkpt lat="49.0466" lon="-1.54837">
        <ele>47.6</ele>
        <time>2020-06-12T04:19:16Z</time>
      </trkpt>
      <trkpt lat="49.04663" lon="-1.54838">
        <ele>47.7</ele>
        <time>2020-06-12T04:19:17Z</time>
      </trkpt>
      <trkpt lat="49.04664" lon="-1.54839">
        <ele>47.7</ele>
        <time>2020-06-12T04:19:18Z</time>
      </trkpt>
      <trkpt lat="49.04667" lon="-1.54839">
        <ele>47.8</ele>
        <time>2020-06-12T04:19:19Z</time>
      </trkpt>
      <trkpt lat="49.0467" lon="-1.5484">
        <ele>47.9</ele>
        <time>2020-06-12T04:19:20Z</time>
      </trkpt>
      <trkpt lat="49.04672" lon="-1.54841">
        <ele>47.9</ele>
        <time>2020-06-12T04:19:21Z</time>
      </trkpt>
      <trkpt lat="49.04673" lon="-1.54842">
        <ele>47.9</ele>
        <time>2020-06-12T04:19:22Z</time>
      </trkpt>
      <trkpt lat="49.04676" lon="-1.54843">
        <ele>48</ele>
        <time>2020-06-12T04:19:23Z</time>
      </trkpt>
      <trkpt lat="49.04677" lon="-1.54843">
        <ele>48</ele>
        <time>2020-06-12T04:19:24Z</time>
      </trkpt>
      <trkpt lat="49.04679" lon="-1.54843">
        <ele>48.1</ele>
        <time>2020-06-12T04:19:25Z</time>
      </trkpt>
      <trkpt lat="49.04681" lon="-1.54843">
        <ele>48.1</ele>
        <time>2020-06-12T04:19:26Z</time>
      </trkpt>
      <trkpt lat="49.04683" lon="-1.54844">
        <ele>48.2</ele>
        <time>2020-06-12T04:19:27Z</time>
      </trkpt>
      <trkpt lat="49.04687" lon="-1.54845">
        <ele>48.2</ele>
        <time>2020-06-12T04:19:28Z</time>
      </trkpt>
      <trkpt lat="49.04692" lon="-1.54845">
        <ele>48.3</ele>
        <time>2020-06-12T04:19:29Z</time>
      </trkpt>
      <trkpt lat="49.04695" lon="-1.54845">
        <ele>48.3</ele>
        <time>2020-06-12T04:19:30Z</time>
      </trkpt>
      <trkpt lat="49.04699" lon="-1.54845">
        <ele>48.4</ele>
        <time>2020-06-12T04:19:31Z</time>
      </trkpt>
      <trkpt lat="49.04703" lon="-1.54845">
        <ele>48.4</ele>
        <time>2020-06-12T04:19:32Z</time>
      </trkpt>
      <trkpt lat="49.04707" lon="-1.54844">
        <ele>48.4</ele>
        <time>2020-06-12T04:19:33Z</time>
      </trkpt>
      <trkpt lat="49.04711" lon="-1.54844">
        <ele>48.4</ele>
        <time>2020-06-12T04:19:34Z</time>
      </trkpt>
      <trkpt lat="49.04715" lon="-1.54845">
        <ele>48.4</ele>
        <time>2020-06-12T04:19:35Z</time>
      </trkpt>
      <trkpt lat="49.04718" lon="-1.54845">
        <ele>48.4</ele>
        <time>2020-06-12T04:19:36Z</time>
      </trkpt>
      <trkpt lat="49.04722" lon="-1.54846">
        <ele>48.4</ele>
        <time>2020-06-12T04:19:37Z</time>
      </trkpt>
      <trkpt lat="49.04723" lon="-1.54846">
        <ele>48.4</ele>
        <time>2020-06-12T04:19:38Z</time>
      </trkpt>
      <trkpt lat="49.04726" lon="-1.54846">
        <ele>48.3</ele>
        <time>2020-06-12T04:19:39Z</time>
      </trkpt>
      <trkpt lat="49.0473" lon="-1.54846">
        <ele>48.3</ele>
        <time>2020-06-12T04:19:40Z</time>
      </trkpt>
      <trkpt lat="49.04732" lon="-1.54847">
        <ele>48.2</ele>
        <time>2020-06-12T04:19:41Z</time>
      </trkpt>
      <trkpt lat="49.04736" lon="-1.54849">
        <ele>48.2</ele>
        <time>2020-06-12T04:19:42Z</time>
      </trkpt>
      <trkpt lat="49.04739" lon="-1.54851">
        <ele>48.2</ele>
        <time>2020-06-12T04:19:43Z</time>
      </trkpt>
      <trkpt lat="49.04742" lon="-1.54854">
        <ele>48.1</ele>
        <time>2020-06-12T04:19:44Z</time>
      </trkpt>
      <trkpt lat="49.04745" lon="-1.54856">
        <ele>48.1</ele>
        <time>2020-06-12T04:19:45Z</time>
      </trkpt>
      <trkpt lat="49.04749" lon="-1.54857">
        <ele>48</ele>
        <time>2020-06-12T04:19:46Z</time>
      </trkpt>
      <trkpt lat="49.04752" lon="-1.54858">
        <ele>47.9</ele>
        <time>2020-06-12T04:19:47Z</time>
      </trkpt>
      <trkpt lat="49.04755" lon="-1.54861">
        <ele>47.9</ele>
        <time>2020-06-12T04:19:48Z</time>
      </trkpt>
      <trkpt lat="49.04757" lon="-1.54865">
        <ele>47.7</ele>
        <time>2020-06-12T04:19:49Z</time>
      </trkpt>
      <trkpt lat="49.04758" lon="-1.54867">
        <ele>47.7</ele>
        <time>2020-06-12T04:19:50Z</time>
      </trkpt>
      <trkpt lat="49.0476" lon="-1.54871">
        <ele>47.6</ele>
        <time>2020-06-12T04:19:51Z</time>
      </trkpt>
      <trkpt lat="49.04766" lon="-1.54875">
        <ele>47.4</ele>
        <time>2020-06-12T04:19:52Z</time>
      </trkpt>
      <trkpt lat="49.04771" lon="-1.5488">
        <ele>47.2</ele>
        <time>2020-06-12T04:19:53Z</time>
      </trkpt>
      <trkpt lat="49.04775" lon="-1.54885">
        <ele>47</ele>
        <time>2020-06-12T04:19:54Z</time>
      </trkpt>
      <trkpt lat="49.04779" lon="-1.5489">
        <ele>46.8</ele>
        <time>2020-06-12T04:19:55Z</time>
      </trkpt>
      <trkpt lat="49.04784" lon="-1.54897">
        <ele>46.5</ele>
        <time>2020-06-12T04:19:56Z</time>
      </trkpt>
      <trkpt lat="49.04789" lon="-1.54903">
        <ele>46.2</ele>
        <time>2020-06-12T04:19:57Z</time>
      </trkpt>
      <trkpt lat="49.04794" lon="-1.54909">
        <ele>46</ele>
        <time>2020-06-12T04:19:58Z</time>
      </trkpt>
      <trkpt lat="49.04799" lon="-1.54914">
        <ele>45.7</ele>
        <time>2020-06-12T04:19:59Z</time>
      </trkpt>
      <trkpt lat="49.04804" lon="-1.54918">
        <ele>45.5</ele>
        <time>2020-06-12T04:20:00Z</time>
      </trkpt>
      <trkpt lat="49.04809" lon="-1.54924">
        <ele>45.3</ele>
        <time>2020-06-12T04:20:01Z</time>
      </trkpt>
      <trkpt lat="49.04815" lon="-1.54929">
        <ele>45</ele>
        <time>2020-06-12T04:20:02Z</time>
      </trkpt>
      <trkpt lat="49.0482" lon="-1.54935">
        <ele>44.8</ele>
        <time>2020-06-12T04:20:03Z</time>
      </trkpt>
      <trkpt lat="49.04825" lon="-1.54941">
        <ele>44.5</ele>
        <time>2020-06-12T04:20:04Z</time>
      </trkpt>
      <trkpt lat="49.0483" lon="-1.54947">
        <ele>44.3</ele>
        <time>2020-06-12T04:20:05Z</time>
      </trkpt>
      <trkpt lat="49.04834" lon="-1.54952">
        <ele>44.1</ele>
        <time>2020-06-12T04:20:06Z</time>
      </trkpt>
      <trkpt lat="49.04841" lon="-1.54957">
        <ele>43.9</ele>
        <time>2020-06-12T04:20:07Z</time>
      </trkpt>
      <trkpt lat="49.04846" lon="-1.54963">
        <ele>43.6</ele>
        <time>2020-06-12T04:20:08Z</time>
      </trkpt>
      <trkpt lat="49.04851" lon="-1.54968">
        <ele>43.4</ele>
        <time>2020-06-12T04:20:09Z</time>
      </trkpt>
      <trkpt lat="49.04856" lon="-1.54972">
        <ele>43.2</ele>
        <time>2020-06-12T04:20:10Z</time>
      </trkpt>
      <trkpt lat="49.04862" lon="-1.54977">
        <ele>42.9</ele>
        <time>2020-06-12T04:20:11Z</time>
      </trkpt>
      <trkpt lat="49.04869" lon="-1.54983">
        <ele>42.5</ele>
        <time>2020-06-12T04:20:12Z</time>
      </trkpt>
      <trkpt lat="49.04875" lon="-1.54988">
        <ele>42.3</ele>
        <time>2020-06-12T04:20:13Z</time>
      </trkpt>
      <trkpt lat="49.04881" lon="-1.54993">
        <ele>41.9</ele>
        <time>2020-06-12T04:20:14Z</time>
      </trkpt>
      <trkpt lat="49.04887" lon="-1.54999">
        <ele>41.7</ele>
        <time>2020-06-12T04:20:15Z</time>
      </trkpt>
      <trkpt lat="49.04892" lon="-1.55005">
        <ele>41.4</ele>
        <time>2020-06-12T04:20:16Z</time>
      </trkpt>
      <trkpt lat="49.04898" lon="-1.55008">
        <ele>41.1</ele>
        <time>2020-06-12T04:20:17Z</time>
      </trkpt>
      <trkpt lat="49.04904" lon="-1.55015">
        <ele>40.8</ele>
        <time>2020-06-12T04:20:18Z</time>
      </trkpt>
      <trkpt lat="49.0491" lon="-1.5502">
        <ele>40.6</ele>
        <time>2020-06-12T04:20:19Z</time>
      </trkpt>
      <trkpt lat="49.04916" lon="-1.55024">
        <ele>40.4</ele>
        <time>2020-06-12T04:20:20Z</time>
      </trkpt>
      <trkpt lat="49.04921" lon="-1.55028">
        <ele>40.2</ele>
        <time>2020-06-12T04:20:21Z</time>
      </trkpt>
      <trkpt lat="49.04927" lon="-1.55033">
        <ele>39.9</ele>
        <time>2020-06-12T04:20:22Z</time>
      </trkpt>
      <trkpt lat="49.04932" lon="-1.55038">
        <ele>39.6</ele>
        <time>2020-06-12T04:20:23Z</time>
      </trkpt>
      <trkpt lat="49.04937" lon="-1.55043">
        <ele>39.3</ele>
        <time>2020-06-12T04:20:24Z</time>
      </trkpt>
      <trkpt lat="49.04942" lon="-1.55047">
        <ele>39</ele>
        <time>2020-06-12T04:20:25Z</time>
      </trkpt>
      <trkpt lat="49.04947" lon="-1.55053">
        <ele>38.6</ele>
        <time>2020-06-12T04:20:26Z</time>
      </trkpt>
      <trkpt lat="49.04951" lon="-1.55057">
        <ele>38.4</ele>
        <time>2020-06-12T04:20:27Z</time>
      </trkpt>
      <trkpt lat="49.04954" lon="-1.55062">
        <ele>38.1</ele>
        <time>2020-06-12T04:20:28Z</time>
      </trkpt>
      <trkpt lat="49.04959" lon="-1.55065">
        <ele>37.8</ele>
        <time>2020-06-12T04:20:29Z</time>
      </trkpt>
      <trkpt lat="49.04963" lon="-1.5507">
        <ele>37.5</ele>
        <time>2020-06-12T04:20:30Z</time>
      </trkpt>
      <trkpt lat="49.04966" lon="-1.55077">
        <ele>37.1</ele>
        <time>2020-06-12T04:20:31Z</time>
      </trkpt>
      <trkpt lat="49.0497" lon="-1.55083">
        <ele>36.7</ele>
        <time>2020-06-12T04:20:32Z</time>
      </trkpt>
      <trkpt lat="49.04975" lon="-1.55088">
        <ele>36.4</ele>
        <time>2020-06-12T04:20:33Z</time>
      </trkpt>
      <trkpt lat="49.04979" lon="-1.55093">
        <ele>36</ele>
        <time>2020-06-12T04:20:34Z</time>
      </trkpt>
      <trkpt lat="49.04982" lon="-1.55097">
        <ele>35.6</ele>
        <time>2020-06-12T04:20:35Z</time>
      </trkpt>
      <trkpt lat="49.04986" lon="-1.55102">
        <ele>35.2</ele>
        <time>2020-06-12T04:20:36Z</time>
      </trkpt>
      <trkpt lat="49.0499" lon="-1.55107">
        <ele>34.8</ele>
        <time>2020-06-12T04:20:37Z</time>
      </trkpt>
      <trkpt lat="49.04994" lon="-1.55113">
        <ele>34.4</ele>
        <time>2020-06-12T04:20:38Z</time>
      </trkpt>
      <trkpt lat="49.04998" lon="-1.55117">
        <ele>34.1</ele>
        <time>2020-06-12T04:20:39Z</time>
      </trkpt>
      <trkpt lat="49.05003" lon="-1.55121">
        <ele>33.7</ele>
        <time>2020-06-12T04:20:40Z</time>
      </trkpt>
      <trkpt lat="49.05007" lon="-1.55125">
        <ele>33.3</ele>
        <time>2020-06-12T04:20:41Z</time>
      </trkpt>
      <trkpt lat="49.05012" lon="-1.5513">
        <ele>32.8</ele>
        <time>2020-06-12T04:20:42Z</time>
      </trkpt>
      <trkpt lat="49.05017" lon="-1.55134">
        <ele>32.4</ele>
        <time>2020-06-12T04:20:43Z</time>
      </trkpt>
      <trkpt lat="49.05021" lon="-1.55139">
        <ele>31.9</ele>
        <time>2020-06-12T04:20:44Z</time>
      </trkpt>
      <trkpt lat="49.05024" lon="-1.55144">
        <ele>31.5</ele>
        <time>2020-06-12T04:20:45Z</time>
      </trkpt>
      <trkpt lat="49.05029" lon="-1.5515">
        <ele>31.1</ele>
        <time>2020-06-12T04:20:46Z</time>
      </trkpt>
      <trkpt lat="49.05034" lon="-1.55156">
        <ele>30.5</ele>
        <time>2020-06-12T04:20:47Z</time>
      </trkpt>
      <trkpt lat="49.05038" lon="-1.55162">
        <ele>30</ele>
        <time>2020-06-12T04:20:48Z</time>
      </trkpt>
      <trkpt lat="49.05043" lon="-1.55168">
        <ele>29.5</ele>
        <time>2020-06-12T04:20:49Z</time>
      </trkpt>
      <trkpt lat="49.05047" lon="-1.55174">
        <ele>29</ele>
        <time>2020-06-12T04:20:50Z</time>
      </trkpt>
      <trkpt lat="49.05053" lon="-1.5518">
        <ele>28.4</ele>
        <time>2020-06-12T04:20:51Z</time>
      </trkpt>
      <trkpt lat="49.05061" lon="-1.55187">
        <ele>27.7</ele>
        <time>2020-06-12T04:20:52Z</time>
      </trkpt>
      <trkpt lat="49.0507" lon="-1.55193">
        <ele>26.8</ele>
        <time>2020-06-12T04:20:53Z</time>
      </trkpt>
      <trkpt lat="49.05079" lon="-1.55201">
        <ele>25.9</ele>
        <time>2020-06-12T04:20:54Z</time>
      </trkpt>
      <trkpt lat="49.05086" lon="-1.55209">
        <ele>25.1</ele>
        <time>2020-06-12T04:20:55Z</time>
      </trkpt>
      <trkpt lat="49.05094" lon="-1.55217">
        <ele>24.2</ele>
        <time>2020-06-12T04:20:56Z</time>
      </trkpt>
      <trkpt lat="49.05103" lon="-1.55225">
        <ele>23.3</ele>
        <time>2020-06-12T04:20:57Z</time>
      </trkpt>
      <trkpt lat="49.05111" lon="-1.55234">
        <ele>22.5</ele>
        <time>2020-06-12T04:20:58Z</time>
      </trkpt>
      <trkpt lat="49.05119" lon="-1.55241">
        <ele>21.8</ele>
        <time>2020-06-12T04:20:59Z</time>
      </trkpt>
      <trkpt lat="49.05126" lon="-1.55249">
        <ele>21.1</ele>
        <time>2020-06-12T04:21:00Z</time>
      </trkpt>
      <trkpt lat="49.05134" lon="-1.55257">
        <ele>20.4</ele>
        <time>2020-06-12T04:21:01Z</time>
      </trkpt>
      <trkpt lat="49.05143" lon="-1.55264">
        <ele>19.8</ele>
        <time>2020-06-12T04:21:02Z</time>
      </trkpt>
      <trkpt lat="49.05151" lon="-1.55272">
        <ele>19.3</ele>
        <time>2020-06-12T04:21:03Z</time>
      </trkpt>
      <trkpt lat="49.05158" lon="-1.5528">
        <ele>19</ele>
        <time>2020-06-12T04:21:04Z</time>
      </trkpt>
      <trkpt lat="49.05166" lon="-1.55287">
        <ele>18.8</ele>
        <time>2020-06-12T04:21:05Z</time>
      </trkpt>
      <trkpt lat="49.05174" lon="-1.55292">
        <ele>18.7</ele>
        <time>2020-06-12T04:21:06Z</time>
      </trkpt>
      <trkpt lat="49.05181" lon="-1.55296">
        <ele>18.7</ele>
        <time>2020-06-12T04:21:07Z</time>
      </trkpt>
      <trkpt lat="49.05189" lon="-1.55299">
        <ele>18.7</ele>
        <time>2020-06-12T04:21:08Z</time>
      </trkpt>
      <trkpt lat="49.05196" lon="-1.553">
        <ele>17.9</ele>
        <time>2020-06-12T04:21:09Z</time>
      </trkpt>
      <trkpt lat="49.05203" lon="-1.553">
        <ele>17.6</ele>
        <time>2020-06-12T04:21:10Z</time>
      </trkpt>
      <trkpt lat="49.0521" lon="-1.55298">
        <ele>17.3</ele>
        <time>2020-06-12T04:21:11Z</time>
      </trkpt>
      <trkpt lat="49.05215" lon="-1.55295">
        <ele>17.2</ele>
        <time>2020-06-12T04:21:12Z</time>
      </trkpt>
      <trkpt lat="49.0522" lon="-1.55291">
        <ele>17.2</ele>
        <time>2020-06-12T04:21:13Z</time>
      </trkpt>
      <trkpt lat="49.05224" lon="-1.55287">
        <ele>17.3</ele>
        <time>2020-06-12T04:21:14Z</time>
      </trkpt>
      <trkpt lat="49.05228" lon="-1.55282">
        <ele>17.4</ele>
        <time>2020-06-12T04:21:15Z</time>
      </trkpt>
      <trkpt lat="49.05231" lon="-1.55277">
        <ele>17.5</ele>
        <time>2020-06-12T04:21:16Z</time>
      </trkpt>
      <trkpt lat="49.05234" lon="-1.55272">
        <ele>17.6</ele>
        <time>2020-06-12T04:21:17Z</time>
      </trkpt>
      <trkpt lat="49.05237" lon="-1.55268">
        <ele>17.7</ele>
        <time>2020-06-12T04:21:18Z</time>
      </trkpt>
      <trkpt lat="49.0524" lon="-1.55265">
        <ele>17.8</ele>
        <time>2020-06-12T04:21:19Z</time>
      </trkpt>
      <trkpt lat="49.05242" lon="-1.5526">
        <ele>17.9</ele>
        <time>2020-06-12T04:21:20Z</time>
      </trkpt>
      <trkpt lat="49.05244" lon="-1.55256">
        <ele>18</ele>
        <time>2020-06-12T04:21:21Z</time>
      </trkpt>
      <trkpt lat="49.05248" lon="-1.55253">
        <ele>18.2</ele>
        <time>2020-06-12T04:21:22Z</time>
      </trkpt>
      <trkpt lat="49.05251" lon="-1.55249">
        <ele>18.4</ele>
        <time>2020-06-12T04:21:23Z</time>
      </trkpt>
      <trkpt lat="49.05253" lon="-1.55246">
        <ele>18.5</ele>
        <time>2020-06-12T04:21:24Z</time>
      </trkpt>
      <trkpt lat="49.05255" lon="-1.55242">
        <ele>18.6</ele>
        <time>2020-06-12T04:21:25Z</time>
      </trkpt>
      <trkpt lat="49.05257" lon="-1.55238">
        <ele>18.8</ele>
        <time>2020-06-12T04:21:26Z</time>
      </trkpt>
      <trkpt lat="49.05258" lon="-1.55234">
        <ele>19</ele>
        <time>2020-06-12T04:21:27Z</time>
      </trkpt>
      <trkpt lat="49.0526" lon="-1.55229">
        <ele>19.2</ele>
        <time>2020-06-12T04:21:28Z</time>
      </trkpt>
      <trkpt lat="49.05261" lon="-1.55226">
        <ele>19.3</ele>
        <time>2020-06-12T04:21:29Z</time>
      </trkpt>
      <trkpt lat="49.05263" lon="-1.55222">
        <ele>19.5</ele>
        <time>2020-06-12T04:21:30Z</time>
      </trkpt>
      <trkpt lat="49.05265" lon="-1.55219">
        <ele>19.6</ele>
        <time>2020-06-12T04:21:31Z</time>
      </trkpt>
      <trkpt lat="49.05267" lon="-1.55215">
        <ele>19.8</ele>
        <time>2020-06-12T04:21:32Z</time>
      </trkpt>
      <trkpt lat="49.05269" lon="-1.55211">
        <ele>20</ele>
        <time>2020-06-12T04:21:33Z</time>
      </trkpt>
      <trkpt lat="49.05271" lon="-1.55206">
        <ele>20.2</ele>
        <time>2020-06-12T04:21:34Z</time>
      </trkpt>
      <trkpt lat="49.05272" lon="-1.55201">
        <ele>20.5</ele>
        <time>2020-06-12T04:21:35Z</time>
      </trkpt>
      <trkpt lat="49.05274" lon="-1.55196">
        <ele>20.7</ele>
        <time>2020-06-12T04:21:36Z</time>
      </trkpt>
      <trkpt lat="49.05276" lon="-1.55191">
        <ele>20.9</ele>
        <time>2020-06-12T04:21:37Z</time>
      </trkpt>
      <trkpt lat="49.05278" lon="-1.55187">
        <ele>21.2</ele>
        <time>2020-06-12T04:21:38Z</time>
      </trkpt>
      <trkpt lat="49.05279" lon="-1.55185">
        <ele>21.3</ele>
        <time>2020-06-12T04:21:39Z</time>
      </trkpt>
      <trkpt lat="49.0528" lon="-1.55181">
        <ele>21.5</ele>
        <time>2020-06-12T04:21:40Z</time>
      </trkpt>
      <trkpt lat="49.05281" lon="-1.55177">
        <ele>21.7</ele>
        <time>2020-06-12T04:21:41Z</time>
      </trkpt>
      <trkpt lat="49.05283" lon="-1.55172">
        <ele>22.1</ele>
        <time>2020-06-12T04:21:42Z</time>
      </trkpt>
      <trkpt lat="49.05283" lon="-1.5517">
        <ele>22.2</ele>
        <time>2020-06-12T04:21:43Z</time>
      </trkpt>
      <trkpt lat="49.05284" lon="-1.55165">
        <ele>22.4</ele>
        <time>2020-06-12T04:21:44Z</time>
      </trkpt>
      <trkpt lat="49.05284" lon="-1.55164">
        <ele>22.5</ele>
        <time>2020-06-12T04:21:45Z</time>
      </trkpt>
      <trkpt lat="49.05286" lon="-1.5516">
        <ele>22.8</ele>
        <time>2020-06-12T04:21:46Z</time>
      </trkpt>
      <trkpt lat="49.05286" lon="-1.55159">
        <ele>22.8</ele>
        <time>2020-06-12T04:21:47Z</time>
      </trkpt>
      <trkpt lat="49.05288" lon="-1.55155">
        <ele>23.1</ele>
        <time>2020-06-12T04:21:48Z</time>
      </trkpt>
      <trkpt lat="49.05289" lon="-1.55154">
        <ele>23.2</ele>
        <time>2020-06-12T04:21:49Z</time>
      </trkpt>
      <trkpt lat="49.05291" lon="-1.5515">
        <ele>23.5</ele>
        <time>2020-06-12T04:21:50Z</time>
      </trkpt>
      <trkpt lat="49.05292" lon="-1.55149">
        <ele>23.6</ele>
        <time>2020-06-12T04:21:51Z</time>
      </trkpt>
      <trkpt lat="49.05293" lon="-1.55148">
        <ele>23.7</ele>
        <time>2020-06-12T04:21:52Z</time>
      </trkpt>
      <trkpt lat="49.05294" lon="-1.55146">
        <ele>23.8</ele>
        <time>2020-06-12T04:21:53Z</time>
      </trkpt>
      <trkpt lat="49.05296" lon="-1.55141">
        <ele>24</ele>
        <time>2020-06-12T04:21:54Z</time>
      </trkpt>
      <trkpt lat="49.05297" lon="-1.55139">
        <ele>24.1</ele>
        <time>2020-06-12T04:21:55Z</time>
      </trkpt>
      <trkpt lat="49.05298" lon="-1.55135">
        <ele>24.3</ele>
        <time>2020-06-12T04:21:56Z</time>
      </trkpt>
      <trkpt lat="49.05299" lon="-1.55133">
        <ele>24.4</ele>
        <time>2020-06-12T04:21:57Z</time>
      </trkpt>
      <trkpt lat="49.05301" lon="-1.55131">
        <ele>24.6</ele>
        <time>2020-06-12T04:21:58Z</time>
      </trkpt>
      <trkpt lat="49.05305" lon="-1.55128">
        <ele>24.9</ele>
        <time>2020-06-12T04:21:59Z</time>
      </trkpt>
      <trkpt lat="49.05306" lon="-1.55127">
        <ele>25</ele>
        <time>2020-06-12T04:22:00Z</time>
      </trkpt>
      <trkpt lat="49.0531" lon="-1.55125">
        <ele>25.2</ele>
        <time>2020-06-12T04:22:01Z</time>
      </trkpt>
      <trkpt lat="49.05311" lon="-1.55124">
        <ele>25.3</ele>
        <time>2020-06-12T04:22:02Z</time>
      </trkpt>
      <trkpt lat="49.05313" lon="-1.55123">
        <ele>25.4</ele>
        <time>2020-06-12T04:22:03Z</time>
      </trkpt>
      <trkpt lat="49.05314" lon="-1.55123">
        <ele>25.4</ele>
        <time>2020-06-12T04:22:04Z</time>
      </trkpt>
      <trkpt lat="49.05317" lon="-1.55121">
        <ele>25.6</ele>
        <time>2020-06-12T04:22:05Z</time>
      </trkpt>
      <trkpt lat="49.05318" lon="-1.5512">
        <ele>25.7</ele>
        <time>2020-06-12T04:22:06Z</time>
      </trkpt>
      <trkpt lat="49.05321" lon="-1.55119">
        <ele>25.9</ele>
        <time>2020-06-12T04:22:07Z</time>
      </trkpt>
      <trkpt lat="49.05322" lon="-1.55118">
        <ele>25.9</ele>
        <time>2020-06-12T04:22:08Z</time>
      </trkpt>
      <trkpt lat="49.05325" lon="-1.55117">
        <ele>26.1</ele>
        <time>2020-06-12T04:22:09Z</time>
      </trkpt>
      <trkpt lat="49.05326" lon="-1.55117">
        <ele>26.2</ele>
        <time>2020-06-12T04:22:10Z</time>
      </trkpt>
      <trkpt lat="49.05327" lon="-1.55116">
        <ele>26.2</ele>
        <time>2020-06-12T04:22:11Z</time>
      </trkpt>
      <trkpt lat="49.05329" lon="-1.55115">
        <ele>26.4</ele>
        <time>2020-06-12T04:22:12Z</time>
      </trkpt>
      <trkpt lat="49.0533" lon="-1.55115">
        <ele>26.4</ele>
        <time>2020-06-12T04:22:13Z</time>
      </trkpt>
      <trkpt lat="49.05332" lon="-1.55114">
        <ele>26.5</ele>
        <time>2020-06-12T04:22:14Z</time>
      </trkpt>
      <trkpt lat="49.05334" lon="-1.55114">
        <ele>26.7</ele>
        <time>2020-06-12T04:22:15Z</time>
      </trkpt>
      <trkpt lat="49.05335" lon="-1.55114">
        <ele>26.8</ele>
        <time>2020-06-12T04:22:16Z</time>
      </trkpt>
      <trkpt lat="49.05337" lon="-1.55113">
        <ele>26.9</ele>
        <time>2020-06-12T04:22:17Z</time>
      </trkpt>
      <trkpt lat="49.05339" lon="-1.55112">
        <ele>27</ele>
        <time>2020-06-12T04:22:18Z</time>
      </trkpt>
      <trkpt lat="49.05341" lon="-1.5511">
        <ele>27.2</ele>
        <time>2020-06-12T04:22:19Z</time>
      </trkpt>
      <trkpt lat="49.05345" lon="-1.5511">
        <ele>27.4</ele>
        <time>2020-06-12T04:22:20Z</time>
      </trkpt>
      <trkpt lat="49.05346" lon="-1.55109">
        <ele>27.5</ele>
        <time>2020-06-12T04:22:21Z</time>
      </trkpt>
      <trkpt lat="49.05349" lon="-1.55109">
        <ele>27.7</ele>
        <time>2020-06-12T04:22:22Z</time>
      </trkpt>
      <trkpt lat="49.0535" lon="-1.55108">
        <ele>27.8</ele>
        <time>2020-06-12T04:22:23Z</time>
      </trkpt>
      <trkpt lat="49.05353" lon="-1.55108">
        <ele>28</ele>
        <time>2020-06-12T04:22:24Z</time>
      </trkpt>
      <trkpt lat="49.05354" lon="-1.55108">
        <ele>28.1</ele>
        <time>2020-06-12T04:22:25Z</time>
      </trkpt>
      <trkpt lat="49.05357" lon="-1.55107">
        <ele>28.3</ele>
        <time>2020-06-12T04:22:26Z</time>
      </trkpt>
      <trkpt lat="49.05358" lon="-1.55107">
        <ele>28.3</ele>
        <time>2020-06-12T04:22:27Z</time>
      </trkpt>
      <trkpt lat="49.05362" lon="-1.55107">
        <ele>28.5</ele>
        <time>2020-06-12T04:22:28Z</time>
      </trkpt>
      <trkpt lat="49.05363" lon="-1.55107">
        <ele>28.6</ele>
        <time>2020-06-12T04:22:29Z</time>
      </trkpt>
      <trkpt lat="49.05367" lon="-1.55108">
        <ele>28.9</ele>
        <time>2020-06-12T04:22:30Z</time>
      </trkpt>
      <trkpt lat="49.05368" lon="-1.55108">
        <ele>28.9</ele>
        <time>2020-06-12T04:22:31Z</time>
      </trkpt>
      <trkpt lat="49.05371" lon="-1.55107">
        <ele>29.1</ele>
        <time>2020-06-12T04:22:32Z</time>
      </trkpt>
      <trkpt lat="49.05372" lon="-1.55106">
        <ele>29.2</ele>
        <time>2020-06-12T04:22:33Z</time>
      </trkpt>
      <trkpt lat="49.05374" lon="-1.55105">
        <ele>29.4</ele>
        <time>2020-06-12T04:22:34Z</time>
      </trkpt>
      <trkpt lat="49.05376" lon="-1.55104">
        <ele>29.5</ele>
        <time>2020-06-12T04:22:35Z</time>
      </trkpt>
      <trkpt lat="49.05379" lon="-1.55104">
        <ele>29.7</ele>
        <time>2020-06-12T04:22:36Z</time>
      </trkpt>
      <trkpt lat="49.0538" lon="-1.55104">
        <ele>29.8</ele>
        <time>2020-06-12T04:22:37Z</time>
      </trkpt>
      <trkpt lat="49.05382" lon="-1.55104">
        <ele>29.9</ele>
        <time>2020-06-12T04:22:38Z</time>
      </trkpt>
      <trkpt lat="49.05383" lon="-1.55104">
        <ele>30</ele>
        <time>2020-06-12T04:22:39Z</time>
      </trkpt>
      <trkpt lat="49.05386" lon="-1.55105">
        <ele>30.2</ele>
        <time>2020-06-12T04:22:40Z</time>
      </trkpt>
      <trkpt lat="49.05387" lon="-1.55105">
        <ele>30.3</ele>
        <time>2020-06-12T04:22:41Z</time>
      </trkpt>
      <trkpt lat="49.05389" lon="-1.55105">
        <ele>30.4</ele>
        <time>2020-06-12T04:22:42Z</time>
      </trkpt>
      <trkpt lat="49.05391" lon="-1.55105">
        <ele>30.5</ele>
        <time>2020-06-12T04:22:43Z</time>
      </trkpt>
      <trkpt lat="49.05394" lon="-1.55104">
        <ele>30.7</ele>
        <time>2020-06-12T04:22:44Z</time>
      </trkpt>
      <trkpt lat="49.05394" lon="-1.55104">
        <ele>30.7</ele>
        <time>2020-06-12T04:22:45Z</time>
      </trkpt>
      <trkpt lat="49.05397" lon="-1.55104">
        <ele>30.5</ele>
        <time>2020-06-12T04:22:46Z</time>
      </trkpt>
      <trkpt lat="49.05398" lon="-1.55103">
        <ele>30.5</ele>
        <time>2020-06-12T04:22:47Z</time>
      </trkpt>
      <trkpt lat="49.054" lon="-1.55102">
        <ele>30.3</ele>
        <time>2020-06-12T04:22:48Z</time>
      </trkpt>
      <trkpt lat="49.05401" lon="-1.55102">
        <ele>30.3</ele>
        <time>2020-06-12T04:22:49Z</time>
      </trkpt>
      <trkpt lat="49.05403" lon="-1.55104">
        <ele>30.1</ele>
        <time>2020-06-12T04:22:50Z</time>
      </trkpt>
      <trkpt lat="49.05403" lon="-1.55104">
        <ele>30.1</ele>
        <time>2020-06-12T04:22:51Z</time>
      </trkpt>
      <trkpt lat="49.05405" lon="-1.55104">
        <ele>30</ele>
        <time>2020-06-12T04:22:52Z</time>
      </trkpt>
      <trkpt lat="49.05404" lon="-1.55104">
        <ele>30</ele>
        <time>2020-06-12T04:22:53Z</time>
      </trkpt>
      <trkpt lat="49.05403" lon="-1.55104">
        <ele>29.9</ele>
        <time>2020-06-12T04:22:54Z</time>
      </trkpt>
      <trkpt lat="49.05401" lon="-1.55104">
        <ele>29.8</ele>
        <time>2020-06-12T04:22:55Z</time>
      </trkpt>
      <trkpt lat="49.054" lon="-1.55104">
        <ele>29.8</ele>
        <time>2020-06-12T04:22:56Z</time>
      </trkpt>
      <trkpt lat="49.05399" lon="-1.55104">
        <ele>29.7</ele>
        <time>2020-06-12T04:22:57Z</time>
      </trkpt>
      <trkpt lat="49.05398" lon="-1.55104">
        <ele>29.6</ele>
        <time>2020-06-12T04:22:58Z</time>
      </trkpt>
      <trkpt lat="49.05396" lon="-1.55104">
        <ele>29.6</ele>
        <time>2020-06-12T04:22:59Z</time>
      </trkpt>
      <trkpt lat="49.05395" lon="-1.55104">
        <ele>29.5</ele>
        <time>2020-06-12T04:23:00Z</time>
      </trkpt>
      <trkpt lat="49.05394" lon="-1.55104">
        <ele>29.4</ele>
        <time>2020-06-12T04:23:01Z</time>
      </trkpt>
      <trkpt lat="49.05393" lon="-1.55105">
        <ele>29.3</ele>
        <time>2020-06-12T04:23:12Z</time>
      </trkpt>
      <trkpt lat="49.05391" lon="-1.55105">
        <ele>29.3</ele>
        <time>2020-06-12T04:23:13Z</time>
      </trkpt>
      <trkpt lat="49.05386" lon="-1.55105">
        <ele>29</ele>
        <time>2020-06-12T04:23:14Z</time>
      </trkpt>
      <trkpt lat="49.05381" lon="-1.55105">
        <ele>28.7</ele>
        <time>2020-06-12T04:23:15Z</time>
      </trkpt>
      <trkpt lat="49.05375" lon="-1.55106">
        <ele>28.4</ele>
        <time>2020-06-12T04:23:16Z</time>
      </trkpt>
      <trkpt lat="49.05369" lon="-1.55107">
        <ele>28</ele>
        <time>2020-06-12T04:23:17Z</time>
      </trkpt>
      <trkpt lat="49.05364" lon="-1.55107">
        <ele>27.8</ele>
        <time>2020-06-12T04:23:18Z</time>
      </trkpt>
      <trkpt lat="49.05357" lon="-1.55107">
        <ele>27.4</ele>
        <time>2020-06-12T04:23:19Z</time>
      </trkpt>
      <trkpt lat="49.0535" lon="-1.55109">
        <ele>27</ele>
        <time>2020-06-12T04:23:20Z</time>
      </trkpt>
      <trkpt lat="49.05343" lon="-1.55111">
        <ele>26.6</ele>
        <time>2020-06-12T04:23:21Z</time>
      </trkpt>
      <trkpt lat="49.05336" lon="-1.55115">
        <ele>26.2</ele>
        <time>2020-06-12T04:23:22Z</time>
      </trkpt>
      <trkpt lat="49.05329" lon="-1.55118">
        <ele>25.9</ele>
        <time>2020-06-12T04:23:23Z</time>
      </trkpt>
      <trkpt lat="49.05324" lon="-1.55121">
        <ele>25.6</ele>
        <time>2020-06-12T04:23:24Z</time>
      </trkpt>
      <trkpt lat="49.05318" lon="-1.55125">
        <ele>25.3</ele>
        <time>2020-06-12T04:23:25Z</time>
      </trkpt>
      <trkpt lat="49.05314" lon="-1.55131">
        <ele>25</ele>
        <time>2020-06-12T04:23:26Z</time>
      </trkpt>
      <trkpt lat="49.05311" lon="-1.55134">
        <ele>24.9</ele>
        <time>2020-06-12T04:23:27Z</time>
      </trkpt>
      <trkpt lat="49.05309" lon="-1.55138">
        <ele>24.7</ele>
        <time>2020-06-12T04:23:28Z</time>
      </trkpt>
      <trkpt lat="49.05306" lon="-1.55142">
        <ele>24.5</ele>
        <time>2020-06-12T04:23:29Z</time>
      </trkpt>
      <trkpt lat="49.05304" lon="-1.55146">
        <ele>24.2</ele>
        <time>2020-06-12T04:23:30Z</time>
      </trkpt>
      <trkpt lat="49.05302" lon="-1.5515">
        <ele>23.9</ele>
        <time>2020-06-12T04:23:31Z</time>
      </trkpt>
      <trkpt lat="49.05301" lon="-1.55151">
        <ele>23.8</ele>
        <time>2020-06-12T04:23:32Z</time>
      </trkpt>
      <trkpt lat="49.05301" lon="-1.55153">
        <ele>23.7</ele>
        <time>2020-06-12T04:23:33Z</time>
      </trkpt>
      <trkpt lat="49.05301" lon="-1.55152">
        <ele>23.7</ele>
        <time>2020-06-12T04:23:34Z</time>
      </trkpt>
      <trkpt lat="49.053" lon="-1.55153">
        <ele>23.6</ele>
        <time>2020-06-12T04:23:35Z</time>
      </trkpt>
      <trkpt lat="49.053" lon="-1.55154">
        <ele>23.6</ele>
        <time>2020-06-12T04:23:36Z</time>
      </trkpt>
      <trkpt lat="49.053" lon="-1.55155">
        <ele>23.5</ele>
        <time>2020-06-12T04:23:37Z</time>
      </trkpt>
      <trkpt lat="49.053" lon="-1.55156">
        <ele>23.4</ele>
        <time>2020-06-12T04:23:38Z</time>
      </trkpt>
      <trkpt lat="49.05299" lon="-1.55157">
        <ele>23.4</ele>
        <time>2020-06-12T04:23:39Z</time>
      </trkpt>
      <trkpt lat="49.05299" lon="-1.55158">
        <ele>23.3</ele>
        <time>2020-06-12T04:23:40Z</time>
      </trkpt>
      <trkpt lat="49.05298" lon="-1.55159">
        <ele>23.2</ele>
        <time>2020-06-12T04:23:41Z</time>
      </trkpt>
      <trkpt lat="49.05297" lon="-1.5516">
        <ele>23.1</ele>
        <time>2020-06-12T04:23:42Z</time>
      </trkpt>
      <trkpt lat="49.05297" lon="-1.55161">
        <ele>23.1</ele>
        <time>2020-06-12T04:23:43Z</time>
      </trkpt>
      <trkpt lat="49.05296" lon="-1.55162">
        <ele>23</ele>
        <time>2020-06-12T04:25:18Z</time>
      </trkpt>
      <trkpt lat="49.05296" lon="-1.55163">
        <ele>22.9</ele>
        <time>2020-06-12T04:25:19Z</time>
      </trkpt>
      <trkpt lat="49.05295" lon="-1.55167">
        <ele>22.7</ele>
        <time>2020-06-12T04:25:20Z</time>
      </trkpt>
      <trkpt lat="49.05294" lon="-1.55168">
        <ele>22.6</ele>
        <time>2020-06-12T04:25:21Z</time>
      </trkpt>
      <trkpt lat="49.05292" lon="-1.55172">
        <ele>22.4</ele>
        <time>2020-06-12T04:25:22Z</time>
      </trkpt>
      <trkpt lat="49.0529" lon="-1.55176">
        <ele>22.1</ele>
        <time>2020-06-12T04:25:23Z</time>
      </trkpt>
      <trkpt lat="49.05288" lon="-1.5518">
        <ele>21.9</ele>
        <time>2020-06-12T04:25:24Z</time>
      </trkpt>
      <trkpt lat="49.05287" lon="-1.55186">
        <ele>21.6</ele>
        <time>2020-06-12T04:25:25Z</time>
      </trkpt>
      <trkpt lat="49.05285" lon="-1.55191">
        <ele>21.3</ele>
        <time>2020-06-12T04:25:26Z</time>
      </trkpt>
      <trkpt lat="49.05282" lon="-1.55197">
        <ele>21</ele>
        <time>2020-06-12T04:25:27Z</time>
      </trkpt>
      <trkpt lat="49.0528" lon="-1.55202">
        <ele>20.7</ele>
        <time>2020-06-12T04:25:28Z</time>
      </trkpt>
      <trkpt lat="49.05276" lon="-1.55209">
        <ele>20.3</ele>
        <time>2020-06-12T04:25:29Z</time>
      </trkpt>
      <trkpt lat="49.05273" lon="-1.55216">
        <ele>20</ele>
        <time>2020-06-12T04:25:30Z</time>
      </trkpt>
      <trkpt lat="49.0527" lon="-1.55224">
        <ele>19.7</ele>
        <time>2020-06-12T04:25:31Z</time>
      </trkpt>
      <trkpt lat="49.05266" lon="-1.55231">
        <ele>19.3</ele>
        <time>2020-06-12T04:25:32Z</time>
      </trkpt>
      <trkpt lat="49.05263" lon="-1.5524">
        <ele>19</ele>
        <time>2020-06-12T04:25:33Z</time>
      </trkpt>
      <trkpt lat="49.0526" lon="-1.5525">
        <ele>18.6</ele>
        <time>2020-06-12T04:25:34Z</time>
      </trkpt>
      <trkpt lat="49.05256" lon="-1.55259">
        <ele>18.3</ele>
        <time>2020-06-12T04:25:35Z</time>
      </trkpt>
      <trkpt lat="49.05252" lon="-1.55269">
        <ele>18</ele>
        <time>2020-06-12T04:25:36Z</time>
      </trkpt>
      <trkpt lat="49.05247" lon="-1.55278">
        <ele>17.8</ele>
        <time>2020-06-12T04:25:37Z</time>
      </trkpt>
      <trkpt lat="49.05241" lon="-1.55286">
        <ele>17.6</ele>
        <time>2020-06-12T04:25:38Z</time>
      </trkpt>
      <trkpt lat="49.05234" lon="-1.55293">
        <ele>17.4</ele>
        <time>2020-06-12T04:25:39Z</time>
      </trkpt>
      <trkpt lat="49.05227" lon="-1.55298">
        <ele>17.2</ele>
        <time>2020-06-12T04:25:40Z</time>
      </trkpt>
      <trkpt lat="49.05219" lon="-1.553">
        <ele>17.2</ele>
        <time>2020-06-12T04:25:41Z</time>
      </trkpt>
      <trkpt lat="49.05212" lon="-1.553">
        <ele>17.3</ele>
        <time>2020-06-12T04:25:42Z</time>
      </trkpt>
      <trkpt lat="49.05205" lon="-1.55299">
        <ele>17.6</ele>
        <time>2020-06-12T04:25:43Z</time>
      </trkpt>
      <trkpt lat="49.05198" lon="-1.55298">
        <ele>17.9</ele>
        <time>2020-06-12T04:25:44Z</time>
      </trkpt>
      <trkpt lat="49.0519" lon="-1.55297">
        <ele>18.4</ele>
        <time>2020-06-12T04:25:45Z</time>
      </trkpt>
      <trkpt lat="49.05184" lon="-1.55293">
        <ele>18.7</ele>
        <time>2020-06-12T04:25:46Z</time>
      </trkpt>
      <trkpt lat="49.05179" lon="-1.55289">
        <ele>18.7</ele>
        <time>2020-06-12T04:25:47Z</time>
      </trkpt>
      <trkpt lat="49.05173" lon="-1.55285">
        <ele>18.8</ele>
        <time>2020-06-12T04:25:48Z</time>
      </trkpt>
      <trkpt lat="49.05168" lon="-1.5528">
        <ele>18.8</ele>
        <time>2020-06-12T04:25:49Z</time>
      </trkpt>
      <trkpt lat="49.05164" lon="-1.55275">
        <ele>19</ele>
        <time>2020-06-12T04:25:50Z</time>
      </trkpt>
      <trkpt lat="49.05159" lon="-1.55271">
        <ele>19.2</ele>
        <time>2020-06-12T04:25:51Z</time>
      </trkpt>
      <trkpt lat="49.05156" lon="-1.55267">
        <ele>19.4</ele>
        <time>2020-06-12T04:25:52Z</time>
      </trkpt>
      <trkpt lat="49.05152" lon="-1.55264">
        <ele>19.6</ele>
        <time>2020-06-12T04:25:53Z</time>
      </trkpt>
      <trkpt lat="49.05149" lon="-1.55261">
        <ele>19.8</ele>
        <time>2020-06-12T04:25:54Z</time>
      </trkpt>
      <trkpt lat="49.05146" lon="-1.55258">
        <ele>20</ele>
        <time>2020-06-12T04:25:55Z</time>
      </trkpt>
      <trkpt lat="49.05143" lon="-1.55254">
        <ele>20.3</ele>
        <time>2020-06-12T04:25:56Z</time>
      </trkpt>
      <trkpt lat="49.0514" lon="-1.55251">
        <ele>20.5</ele>
        <time>2020-06-12T04:25:57Z</time>
      </trkpt>
      <trkpt lat="49.05137" lon="-1.55248">
        <ele>20.8</ele>
        <time>2020-06-12T04:25:58Z</time>
      </trkpt>
      <trkpt lat="49.05135" lon="-1.55245">
        <ele>21</ele>
        <time>2020-06-12T04:25:59Z</time>
      </trkpt>
      <trkpt lat="49.05132" lon="-1.55243">
        <ele>21.2</ele>
        <time>2020-06-12T04:26:00Z</time>
      </trkpt>
      <trkpt lat="49.05129" lon="-1.55241">
        <ele>21.5</ele>
        <time>2020-06-12T04:26:01Z</time>
      </trkpt>
      <trkpt lat="49.05125" lon="-1.55238">
        <ele>21.7</ele>
        <time>2020-06-12T04:26:02Z</time>
      </trkpt>
      <trkpt lat="49.05123" lon="-1.55235">
        <ele>21.9</ele>
        <time>2020-06-12T04:26:03Z</time>
      </trkpt>
      <trkpt lat="49.05119" lon="-1.55233">
        <ele>22.3</ele>
        <time>2020-06-12T04:26:04Z</time>
      </trkpt>
      <trkpt lat="49.05116" lon="-1.55229">
        <ele>22.6</ele>
        <time>2020-06-12T04:26:05Z</time>
      </trkpt>
      <trkpt lat="49.05113" lon="-1.55228">
        <ele>22.8</ele>
        <time>2020-06-12T04:26:06Z</time>
      </trkpt>
      <trkpt lat="49.0511" lon="-1.55224">
        <ele>23.1</ele>
        <time>2020-06-12T04:26:07Z</time>
      </trkpt>
      <trkpt lat="49.05109" lon="-1.55223">
        <ele>23.3</ele>
        <time>2020-06-12T04:26:08Z</time>
      </trkpt>
      <trkpt lat="49.05105" lon="-1.55221">
        <ele>23.6</ele>
        <time>2020-06-12T04:26:09Z</time>
      </trkpt>
      <trkpt lat="49.05104" lon="-1.5522">
        <ele>23.7</ele>
        <time>2020-06-12T04:26:10Z</time>
      </trkpt>
      <trkpt lat="49.05101" lon="-1.55216">
        <ele>24</ele>
        <time>2020-06-12T04:26:11Z</time>
      </trkpt>
      <trkpt lat="49.051" lon="-1.55215">
        <ele>24.1</ele>
        <time>2020-06-12T04:26:12Z</time>
      </trkpt>
      <trkpt lat="49.05098" lon="-1.55213">
        <ele>24.4</ele>
        <time>2020-06-12T04:26:13Z</time>
      </trkpt>
      <trkpt lat="49.05095" lon="-1.5521">
        <ele>24.6</ele>
        <time>2020-06-12T04:26:14Z</time>
      </trkpt>
      <trkpt lat="49.05093" lon="-1.55207">
        <ele>24.9</ele>
        <time>2020-06-12T04:26:15Z</time>
      </trkpt>
      <trkpt lat="49.05092" lon="-1.55205">
        <ele>25</ele>
        <time>2020-06-12T04:26:16Z</time>
      </trkpt>
      <trkpt lat="49.05089" lon="-1.55202">
        <ele>25.3</ele>
        <time>2020-06-12T04:26:17Z</time>
      </trkpt>
      <trkpt lat="49.05086" lon="-1.55199">
        <ele>25.6</ele>
        <time>2020-06-12T04:26:18Z</time>
      </trkpt>
      <trkpt lat="49.05086" lon="-1.55199">
        <ele>25.6</ele>
        <time>2020-06-12T04:26:19Z</time>
      </trkpt>
      <trkpt lat="49.05083" lon="-1.55196">
        <ele>25.9</ele>
        <time>2020-06-12T04:26:20Z</time>
      </trkpt>
      <trkpt lat="49.05082" lon="-1.55195">
        <ele>26</ele>
        <time>2020-06-12T04:26:21Z</time>
      </trkpt>
      <trkpt lat="49.05079" lon="-1.55192">
        <ele>26.3</ele>
        <time>2020-06-12T04:26:22Z</time>
      </trkpt>
      <trkpt lat="49.05078" lon="-1.55191">
        <ele>26.5</ele>
        <time>2020-06-12T04:26:23Z</time>
      </trkpt>
      <trkpt lat="49.05075" lon="-1.55188">
        <ele>26.7</ele>
        <time>2020-06-12T04:26:24Z</time>
      </trkpt>
      <trkpt lat="49.05072" lon="-1.55186">
        <ele>27</ele>
        <time>2020-06-12T04:26:25Z</time>
      </trkpt>
      <trkpt lat="49.05071" lon="-1.55185">
        <ele>27.1</ele>
        <time>2020-06-12T04:26:26Z</time>
      </trkpt>
      <trkpt lat="49.05068" lon="-1.55183">
        <ele>27.4</ele>
        <time>2020-06-12T04:26:27Z</time>
      </trkpt>
      <trkpt lat="49.05065" lon="-1.5518">
        <ele>27.7</ele>
        <time>2020-06-12T04:26:28Z</time>
      </trkpt>
      <trkpt lat="49.05063" lon="-1.55178">
        <ele>27.9</ele>
        <time>2020-06-12T04:26:29Z</time>
      </trkpt>
      <trkpt lat="49.05061" lon="-1.55175">
        <ele>28.2</ele>
        <time>2020-06-12T04:26:30Z</time>
      </trkpt>
      <trkpt lat="49.0506" lon="-1.55174">
        <ele>28.3</ele>
        <time>2020-06-12T04:26:31Z</time>
      </trkpt>
      <trkpt lat="49.05057" lon="-1.55172">
        <ele>28.6</ele>
        <time>2020-06-12T04:26:32Z</time>
      </trkpt>
      <trkpt lat="49.05054" lon="-1.55169">
        <ele>28.8</ele>
        <time>2020-06-12T04:26:33Z</time>
      </trkpt>
      <trkpt lat="49.05053" lon="-1.55168">
        <ele>28.9</ele>
        <time>2020-06-12T04:26:34Z</time>
      </trkpt>
      <trkpt lat="49.05051" lon="-1.55165">
        <ele>29.2</ele>
        <time>2020-06-12T04:26:35Z</time>
      </trkpt>
      <trkpt lat="49.0505" lon="-1.55164">
        <ele>29.3</ele>
        <time>2020-06-12T04:26:36Z</time>
      </trkpt>
      <trkpt lat="49.05047" lon="-1.55162">
        <ele>29.5</ele>
        <time>2020-06-12T04:26:37Z</time>
      </trkpt>
      <trkpt lat="49.05046" lon="-1.55161">
        <ele>29.6</ele>
        <time>2020-06-12T04:26:38Z</time>
      </trkpt>
      <trkpt lat="49.05044" lon="-1.55159">
        <ele>29.8</ele>
        <time>2020-06-12T04:26:39Z</time>
      </trkpt>
      <trkpt lat="49.05043" lon="-1.55158">
        <ele>29.9</ele>
        <time>2020-06-12T04:26:40Z</time>
      </trkpt>
      <trkpt lat="49.05039" lon="-1.55155">
        <ele>30.2</ele>
        <time>2020-06-12T04:26:41Z</time>
      </trkpt>
      <trkpt lat="49.05038" lon="-1.55154">
        <ele>30.4</ele>
        <time>2020-06-12T04:26:42Z</time>
      </trkpt>
      <trkpt lat="49.05035" lon="-1.55152">
        <ele>30.6</ele>
        <time>2020-06-12T04:26:43Z</time>
      </trkpt>
      <trkpt lat="49.05032" lon="-1.55149">
        <ele>30.9</ele>
        <time>2020-06-12T04:26:44Z</time>
      </trkpt>
      <trkpt lat="49.05031" lon="-1.55149">
        <ele>31</ele>
        <time>2020-06-12T04:26:45Z</time>
      </trkpt>
      <trkpt lat="49.05028" lon="-1.55147">
        <ele>31.2</ele>
        <time>2020-06-12T04:26:46Z</time>
      </trkpt>
      <trkpt lat="49.05027" lon="-1.55146">
        <ele>31.3</ele>
        <time>2020-06-12T04:26:47Z</time>
      </trkpt>
      <trkpt lat="49.05024" lon="-1.55144">
        <ele>31.6</ele>
        <time>2020-06-12T04:26:48Z</time>
      </trkpt>
      <trkpt lat="49.05023" lon="-1.55143">
        <ele>31.7</ele>
        <time>2020-06-12T04:26:49Z</time>
      </trkpt>
      <trkpt lat="49.05021" lon="-1.5514">
        <ele>31.9</ele>
        <time>2020-06-12T04:26:50Z</time>
      </trkpt>
      <trkpt lat="49.05021" lon="-1.55139">
        <ele>32</ele>
        <time>2020-06-12T04:26:51Z</time>
      </trkpt>
      <trkpt lat="49.05018" lon="-1.55137">
        <ele>32.2</ele>
        <time>2020-06-12T04:26:52Z</time>
      </trkpt>
      <trkpt lat="49.05015" lon="-1.55133">
        <ele>32.5</ele>
        <time>2020-06-12T04:26:53Z</time>
      </trkpt>
      <trkpt lat="49.05014" lon="-1.55132">
        <ele>32.6</ele>
        <time>2020-06-12T04:26:54Z</time>
      </trkpt>
      <trkpt lat="49.05012" lon="-1.55129">
        <ele>32.9</ele>
        <time>2020-06-12T04:26:55Z</time>
      </trkpt>
      <trkpt lat="49.05009" lon="-1.55126">
        <ele>33.1</ele>
        <time>2020-06-12T04:26:56Z</time>
      </trkpt>
      <trkpt lat="49.05008" lon="-1.55125">
        <ele>33.2</ele>
        <time>2020-06-12T04:26:57Z</time>
      </trkpt>
      <trkpt lat="49.05005" lon="-1.55124">
        <ele>33.5</ele>
        <time>2020-06-12T04:26:58Z</time>
      </trkpt>
      <trkpt lat="49.05004" lon="-1.55123">
        <ele>33.6</ele>
        <time>2020-06-12T04:26:59Z</time>
      </trkpt>
      <trkpt lat="49.05002" lon="-1.55122">
        <ele>33.7</ele>
        <time>2020-06-12T04:27:00Z</time>
      </trkpt>
      <trkpt lat="49.05001" lon="-1.55121">
        <ele>33.8</ele>
        <time>2020-06-12T04:27:01Z</time>
      </trkpt>
      <trkpt lat="49.04998" lon="-1.5512">
        <ele>34.1</ele>
        <time>2020-06-12T04:27:02Z</time>
      </trkpt>
      <trkpt lat="49.04997" lon="-1.55119">
        <ele>34.1</ele>
        <time>2020-06-12T04:27:03Z</time>
      </trkpt>
      <trkpt lat="49.04995" lon="-1.55117">
        <ele>34.3</ele>
        <time>2020-06-12T04:27:04Z</time>
      </trkpt>
      <trkpt lat="49.04994" lon="-1.55117">
        <ele>34.4</ele>
        <time>2020-06-12T04:27:05Z</time>
      </trkpt>
      <trkpt lat="49.04991" lon="-1.55113">
        <ele>34.6</ele>
        <time>2020-06-12T04:27:06Z</time>
      </trkpt>
      <trkpt lat="49.0499" lon="-1.55112">
        <ele>34.7</ele>
        <time>2020-06-12T04:27:07Z</time>
      </trkpt>
      <trkpt lat="49.04987" lon="-1.55109">
        <ele>35</ele>
        <time>2020-06-12T04:27:08Z</time>
      </trkpt>
      <trkpt lat="49.04986" lon="-1.55108">
        <ele>35.1</ele>
        <time>2020-06-12T04:27:09Z</time>
      </trkpt>
      <trkpt lat="49.04983" lon="-1.55106">
        <ele>35.3</ele>
        <time>2020-06-12T04:27:10Z</time>
      </trkpt>
      <trkpt lat="49.04982" lon="-1.55105">
        <ele>35.4</ele>
        <time>2020-06-12T04:27:11Z</time>
      </trkpt>
      <trkpt lat="49.04979" lon="-1.55102">
        <ele>35.7</ele>
        <time>2020-06-12T04:27:12Z</time>
      </trkpt>
      <trkpt lat="49.04979" lon="-1.55101">
        <ele>35.7</ele>
        <time>2020-06-12T04:27:13Z</time>
      </trkpt>
      <trkpt lat="49.04976" lon="-1.55097">
        <ele>36</ele>
        <time>2020-06-12T04:27:14Z</time>
      </trkpt>
      <trkpt lat="49.04975" lon="-1.55096">
        <ele>36.1</ele>
        <time>2020-06-12T04:27:15Z</time>
      </trkpt>
      <trkpt lat="49.04973" lon="-1.55092">
        <ele>36.3</ele>
        <time>2020-06-12T04:27:16Z</time>
      </trkpt>
      <trkpt lat="49.04972" lon="-1.55091">
        <ele>36.4</ele>
        <time>2020-06-12T04:27:17Z</time>
      </trkpt>
      <trkpt lat="49.04969" lon="-1.55089">
        <ele>36.6</ele>
        <time>2020-06-12T04:27:18Z</time>
      </trkpt>
      <trkpt lat="49.04969" lon="-1.55087">
        <ele>36.7</ele>
        <time>2020-06-12T04:27:19Z</time>
      </trkpt>
      <trkpt lat="49.04965" lon="-1.55086">
        <ele>36.9</ele>
        <time>2020-06-12T04:27:20Z</time>
      </trkpt>
      <trkpt lat="49.04964" lon="-1.55085">
        <ele>37</ele>
        <time>2020-06-12T04:27:21Z</time>
      </trkpt>
      <trkpt lat="49.04963" lon="-1.55084">
        <ele>37.1</ele>
        <time>2020-06-12T04:27:22Z</time>
      </trkpt>
      <trkpt lat="49.04961" lon="-1.55083">
        <ele>37.2</ele>
        <time>2020-06-12T04:27:23Z</time>
      </trkpt>
      <trkpt lat="49.0496" lon="-1.55082">
        <ele>37.3</ele>
        <time>2020-06-12T04:27:24Z</time>
      </trkpt>
      <trkpt lat="49.04958" lon="-1.55079">
        <ele>37.5</ele>
        <time>2020-06-12T04:27:25Z</time>
      </trkpt>
      <trkpt lat="49.04957" lon="-1.55078">
        <ele>37.6</ele>
        <time>2020-06-12T04:27:26Z</time>
      </trkpt>
      <trkpt lat="49.04956" lon="-1.55073">
        <ele>37.7</ele>
        <time>2020-06-12T04:27:27Z</time>
      </trkpt>
      <trkpt lat="49.04955" lon="-1.55072">
        <ele>37.8</ele>
        <time>2020-06-12T04:27:28Z</time>
      </trkpt>
      <trkpt lat="49.04953" lon="-1.55067">
        <ele>38</ele>
        <time>2020-06-12T04:27:29Z</time>
      </trkpt>
      <trkpt lat="49.04953" lon="-1.55065">
        <ele>38.1</ele>
        <time>2020-06-12T04:27:30Z</time>
      </trkpt>
      <trkpt lat="49.04951" lon="-1.55061">
        <ele>38.3</ele>
        <time>2020-06-12T04:27:31Z</time>
      </trkpt>
      <trkpt lat="49.04949" lon="-1.55058">
        <ele>38.5</ele>
        <time>2020-06-12T04:27:32Z</time>
      </trkpt>
      <trkpt lat="49.04946" lon="-1.55055">
        <ele>38.7</ele>
        <time>2020-06-12T04:27:33Z</time>
      </trkpt>
      <trkpt lat="49.04943" lon="-1.55052">
        <ele>38.9</ele>
        <time>2020-06-12T04:27:34Z</time>
      </trkpt>
      <trkpt lat="49.0494" lon="-1.5505">
        <ele>39</ele>
        <time>2020-06-12T04:27:35Z</time>
      </trkpt>
      <trkpt lat="49.04938" lon="-1.55046">
        <ele>39.2</ele>
        <time>2020-06-12T04:27:36Z</time>
      </trkpt>
      <trkpt lat="49.04937" lon="-1.55045">
        <ele>39.3</ele>
        <time>2020-06-12T04:27:37Z</time>
      </trkpt>
      <trkpt lat="49.04935" lon="-1.55042">
        <ele>39.4</ele>
        <time>2020-06-12T04:27:38Z</time>
      </trkpt>
      <trkpt lat="49.04934" lon="-1.55041">
        <ele>39.5</ele>
        <time>2020-06-12T04:27:39Z</time>
      </trkpt>
      <trkpt lat="49.04931" lon="-1.55037">
        <ele>39.7</ele>
        <time>2020-06-12T04:27:40Z</time>
      </trkpt>
      <trkpt lat="49.04929" lon="-1.55036">
        <ele>39.8</ele>
        <time>2020-06-12T04:27:41Z</time>
      </trkpt>
      <trkpt lat="49.04926" lon="-1.55034">
        <ele>39.9</ele>
        <time>2020-06-12T04:27:42Z</time>
      </trkpt>
      <trkpt lat="49.04924" lon="-1.55032">
        <ele>40.1</ele>
        <time>2020-06-12T04:27:43Z</time>
      </trkpt>
      <trkpt lat="49.04921" lon="-1.55029">
        <ele>40.2</ele>
        <time>2020-06-12T04:27:44Z</time>
      </trkpt>
      <trkpt lat="49.0492" lon="-1.55027">
        <ele>40.3</ele>
        <time>2020-06-12T04:27:45Z</time>
      </trkpt>
      <trkpt lat="49.04917" lon="-1.55023">
        <ele>40.4</ele>
        <time>2020-06-12T04:27:46Z</time>
      </trkpt>
      <trkpt lat="49.04916" lon="-1.55022">
        <ele>40.5</ele>
        <time>2020-06-12T04:27:47Z</time>
      </trkpt>
      <trkpt lat="49.04912" lon="-1.5502">
        <ele>40.6</ele>
        <time>2020-06-12T04:27:48Z</time>
      </trkpt>
      <trkpt lat="49.0491" lon="-1.55018">
        <ele>40.6</ele>
        <time>2020-06-12T04:27:49Z</time>
      </trkpt>
      <trkpt lat="49.04907" lon="-1.55016">
        <ele>40.7</ele>
        <time>2020-06-12T04:27:50Z</time>
      </trkpt>
      <trkpt lat="49.04903" lon="-1.55015">
        <ele>40.9</ele>
        <time>2020-06-12T04:27:51Z</time>
      </trkpt>
      <trkpt lat="49.04902" lon="-1.55014">
        <ele>40.9</ele>
        <time>2020-06-12T04:27:52Z</time>
      </trkpt>
      <trkpt lat="49.04898" lon="-1.55012">
        <ele>41.1</ele>
        <time>2020-06-12T04:27:53Z</time>
      </trkpt>
      <trkpt lat="49.04897" lon="-1.55011">
        <ele>41.1</ele>
        <time>2020-06-12T04:27:54Z</time>
      </trkpt>
      <trkpt lat="49.04894" lon="-1.55009">
        <ele>41.2</ele>
        <time>2020-06-12T04:27:55Z</time>
      </trkpt>
      <trkpt lat="49.04891" lon="-1.55006">
        <ele>41.4</ele>
        <time>2020-06-12T04:27:56Z</time>
      </trkpt>
      <trkpt lat="49.04889" lon="-1.55005">
        <ele>41.5</ele>
        <time>2020-06-12T04:27:57Z</time>
      </trkpt>
      <trkpt lat="49.04886" lon="-1.55002">
        <ele>41.6</ele>
        <time>2020-06-12T04:27:58Z</time>
      </trkpt>
      <trkpt lat="49.04885" lon="-1.55001">
        <ele>41.7</ele>
        <time>2020-06-12T04:27:59Z</time>
      </trkpt>
      <trkpt lat="49.04883" lon="-1.54999">
        <ele>41.8</ele>
        <time>2020-06-12T04:28:00Z</time>
      </trkpt>
      <trkpt lat="49.0488" lon="-1.54995">
        <ele>41.9</ele>
        <time>2020-06-12T04:28:01Z</time>
      </trkpt>
      <trkpt lat="49.04879" lon="-1.54994">
        <ele>42</ele>
        <time>2020-06-12T04:28:02Z</time>
      </trkpt>
      <trkpt lat="49.04876" lon="-1.54991">
        <ele>42.1</ele>
        <time>2020-06-12T04:28:03Z</time>
      </trkpt>
      <trkpt lat="49.04875" lon="-1.5499">
        <ele>42.2</ele>
        <time>2020-06-12T04:28:04Z</time>
      </trkpt>
      <trkpt lat="49.04871" lon="-1.54986">
        <ele>42.4</ele>
        <time>2020-06-12T04:28:05Z</time>
      </trkpt>
      <trkpt lat="49.0487" lon="-1.54985">
        <ele>42.4</ele>
        <time>2020-06-12T04:28:06Z</time>
      </trkpt>
      <trkpt lat="49.04867" lon="-1.54984">
        <ele>42.5</ele>
        <time>2020-06-12T04:28:07Z</time>
      </trkpt>
      <trkpt lat="49.04865" lon="-1.54982">
        <ele>42.7</ele>
        <time>2020-06-12T04:28:08Z</time>
      </trkpt>
      <trkpt lat="49.04862" lon="-1.54979">
        <ele>42.8</ele>
        <time>2020-06-12T04:28:09Z</time>
      </trkpt>
      <trkpt lat="49.04861" lon="-1.54977">
        <ele>42.9</ele>
        <time>2020-06-12T04:28:10Z</time>
      </trkpt>
      <trkpt lat="49.04858" lon="-1.54974">
        <ele>43</ele>
        <time>2020-06-12T04:28:11Z</time>
      </trkpt>
      <trkpt lat="49.04857" lon="-1.54973">
        <ele>43.1</ele>
        <time>2020-06-12T04:28:12Z</time>
      </trkpt>
      <trkpt lat="49.04854" lon="-1.54969">
        <ele>43.2</ele>
        <time>2020-06-12T04:28:13Z</time>
      </trkpt>
      <trkpt lat="49.04853" lon="-1.54968">
        <ele>43.3</ele>
        <time>2020-06-12T04:28:14Z</time>
      </trkpt>
      <trkpt lat="49.04851" lon="-1.54966">
        <ele>43.4</ele>
        <time>2020-06-12T04:28:15Z</time>
      </trkpt>
      <trkpt lat="49.0485" lon="-1.54965">
        <ele>43.4</ele>
        <time>2020-06-12T04:28:16Z</time>
      </trkpt>
      <trkpt lat="49.04848" lon="-1.54963">
        <ele>43.5</ele>
        <time>2020-06-12T04:28:17Z</time>
      </trkpt>
      <trkpt lat="49.04847" lon="-1.54962">
        <ele>43.5</ele>
        <time>2020-06-12T04:28:18Z</time>
      </trkpt>
      <trkpt lat="49.04844" lon="-1.54959">
        <ele>43.7</ele>
        <time>2020-06-12T04:28:19Z</time>
      </trkpt>
      <trkpt lat="49.04842" lon="-1.54956">
        <ele>43.8</ele>
        <time>2020-06-12T04:28:20Z</time>
      </trkpt>
      <trkpt lat="49.04839" lon="-1.54953">
        <ele>43.9</ele>
        <time>2020-06-12T04:28:21Z</time>
      </trkpt>
      <trkpt lat="49.04837" lon="-1.54951">
        <ele>44.1</ele>
        <time>2020-06-12T04:28:22Z</time>
      </trkpt>
      <trkpt lat="49.04836" lon="-1.5495">
        <ele>44.1</ele>
        <time>2020-06-12T04:28:23Z</time>
      </trkpt>
      <trkpt lat="49.04834" lon="-1.54947">
        <ele>44.2</ele>
        <time>2020-06-12T04:28:24Z</time>
      </trkpt>
      <trkpt lat="49.0483" lon="-1.54943">
        <ele>44.3</ele>
        <time>2020-06-12T04:28:25Z</time>
      </trkpt>
      <trkpt lat="49.04829" lon="-1.54942">
        <ele>44.4</ele>
        <time>2020-06-12T04:28:26Z</time>
      </trkpt>
      <trkpt lat="49.04826" lon="-1.54938">
        <ele>44.5</ele>
        <time>2020-06-12T04:28:27Z</time>
      </trkpt>
      <trkpt lat="49.04825" lon="-1.54937">
        <ele>44.6</ele>
        <time>2020-06-12T04:28:28Z</time>
      </trkpt>
      <trkpt lat="49.04822" lon="-1.54935">
        <ele>44.7</ele>
        <time>2020-06-12T04:28:29Z</time>
      </trkpt>
      <trkpt lat="49.04822" lon="-1.54935">
        <ele>44.7</ele>
        <time>2020-06-12T04:28:30Z</time>
      </trkpt>
      <trkpt lat="49.04818" lon="-1.54933">
        <ele>44.8</ele>
        <time>2020-06-12T04:28:31Z</time>
      </trkpt>
      <trkpt lat="49.04817" lon="-1.54933">
        <ele>44.9</ele>
        <time>2020-06-12T04:28:32Z</time>
      </trkpt>
      <trkpt lat="49.04813" lon="-1.5493">
        <ele>45</ele>
        <time>2020-06-12T04:28:33Z</time>
      </trkpt>
      <trkpt lat="49.04812" lon="-1.54928">
        <ele>45.1</ele>
        <time>2020-06-12T04:28:34Z</time>
      </trkpt>
      <trkpt lat="49.04809" lon="-1.54924">
        <ele>45.3</ele>
        <time>2020-06-12T04:28:35Z</time>
      </trkpt>
      <trkpt lat="49.04808" lon="-1.54922">
        <ele>45.4</ele>
        <time>2020-06-12T04:28:36Z</time>
      </trkpt>
      <trkpt lat="49.04805" lon="-1.54918">
        <ele>45.5</ele>
        <time>2020-06-12T04:28:37Z</time>
      </trkpt>
      <trkpt lat="49.04802" lon="-1.54916">
        <ele>45.6</ele>
        <time>2020-06-12T04:28:38Z</time>
      </trkpt>
      <trkpt lat="49.04799" lon="-1.54913">
        <ele>45.7</ele>
        <time>2020-06-12T04:28:39Z</time>
      </trkpt>
      <trkpt lat="49.04797" lon="-1.54911">
        <ele>45.9</ele>
        <time>2020-06-12T04:28:40Z</time>
      </trkpt>
      <trkpt lat="49.04794" lon="-1.54908">
        <ele>46</ele>
        <time>2020-06-12T04:28:41Z</time>
      </trkpt>
      <trkpt lat="49.0479" lon="-1.54906">
        <ele>46.2</ele>
        <time>2020-06-12T04:28:42Z</time>
      </trkpt>
      <trkpt lat="49.04789" lon="-1.54905">
        <ele>46.2</ele>
        <time>2020-06-12T04:28:43Z</time>
      </trkpt>
      <trkpt lat="49.04786" lon="-1.54903">
        <ele>46.4</ele>
        <time>2020-06-12T04:28:44Z</time>
      </trkpt>
      <trkpt lat="49.04783" lon="-1.54901">
        <ele>46.5</ele>
        <time>2020-06-12T04:28:45Z</time>
      </trkpt>
      <trkpt lat="49.04781" lon="-1.54899">
        <ele>46.6</ele>
        <time>2020-06-12T04:28:46Z</time>
      </trkpt>
      <trkpt lat="49.04778" lon="-1.54898">
        <ele>46.7</ele>
        <time>2020-06-12T04:28:47Z</time>
      </trkpt>
      <trkpt lat="49.04776" lon="-1.54896">
        <ele>46.9</ele>
        <time>2020-06-12T04:28:48Z</time>
      </trkpt>
      <trkpt lat="49.04773" lon="-1.54893">
        <ele>47</ele>
        <time>2020-06-12T04:28:49Z</time>
      </trkpt>
      <trkpt lat="49.04771" lon="-1.5489">
        <ele>47.1</ele>
        <time>2020-06-12T04:28:50Z</time>
      </trkpt>
      <trkpt lat="49.04769" lon="-1.54886">
        <ele>47.2</ele>
        <time>2020-06-12T04:28:51Z</time>
      </trkpt>
      <trkpt lat="49.04767" lon="-1.54881">
        <ele>47.3</ele>
        <time>2020-06-12T04:28:52Z</time>
      </trkpt>
      <trkpt lat="49.04766" lon="-1.5488">
        <ele>47.4</ele>
        <time>2020-06-12T04:28:53Z</time>
      </trkpt>
      <trkpt lat="49.04764" lon="-1.54878">
        <ele>47.5</ele>
        <time>2020-06-12T04:28:54Z</time>
      </trkpt>
      <trkpt lat="49.04761" lon="-1.54875">
        <ele>47.6</ele>
        <time>2020-06-12T04:28:55Z</time>
      </trkpt>
      <trkpt lat="49.04758" lon="-1.54871">
        <ele>47.7</ele>
        <time>2020-06-12T04:28:56Z</time>
      </trkpt>
      <trkpt lat="49.04757" lon="-1.5487">
        <ele>47.7</ele>
        <time>2020-06-12T04:28:57Z</time>
      </trkpt>
      <trkpt lat="49.04754" lon="-1.54868">
        <ele>47.8</ele>
        <time>2020-06-12T04:28:58Z</time>
      </trkpt>
      <trkpt lat="49.04753" lon="-1.54867">
        <ele>47.8</ele>
        <time>2020-06-12T04:28:59Z</time>
      </trkpt>
      <trkpt lat="49.0475" lon="-1.54866">
        <ele>47.9</ele>
        <time>2020-06-12T04:29:00Z</time>
      </trkpt>
      <trkpt lat="49.04748" lon="-1.54865">
        <ele>48</ele>
        <time>2020-06-12T04:29:01Z</time>
      </trkpt>
      <trkpt lat="49.04745" lon="-1.54862">
        <ele>48.1</ele>
        <time>2020-06-12T04:29:02Z</time>
      </trkpt>
      <trkpt lat="49.04745" lon="-1.54861">
        <ele>48.1</ele>
        <time>2020-06-12T04:29:03Z</time>
      </trkpt>
      <trkpt lat="49.04741" lon="-1.5486">
        <ele>48.1</ele>
        <time>2020-06-12T04:29:04Z</time>
      </trkpt>
      <trkpt lat="49.04738" lon="-1.54858">
        <ele>48.2</ele>
        <time>2020-06-12T04:29:05Z</time>
      </trkpt>
      <trkpt lat="49.04735" lon="-1.54856">
        <ele>48.2</ele>
        <time>2020-06-12T04:29:06Z</time>
      </trkpt>
      <trkpt lat="49.04734" lon="-1.54855">
        <ele>48.2</ele>
        <time>2020-06-12T04:29:07Z</time>
      </trkpt>
      <trkpt lat="49.0473" lon="-1.54853">
        <ele>48.3</ele>
        <time>2020-06-12T04:29:08Z</time>
      </trkpt>
      <trkpt lat="49.04728" lon="-1.54852">
        <ele>48.3</ele>
        <time>2020-06-12T04:29:09Z</time>
      </trkpt>
      <trkpt lat="49.04725" lon="-1.5485">
        <ele>48.3</ele>
        <time>2020-06-12T04:29:10Z</time>
      </trkpt>
      <trkpt lat="49.04722" lon="-1.54849">
        <ele>48.4</ele>
        <time>2020-06-12T04:29:11Z</time>
      </trkpt>
      <trkpt lat="49.0472" lon="-1.54848">
        <ele>48.4</ele>
        <time>2020-06-12T04:29:12Z</time>
      </trkpt>
      <trkpt lat="49.04717" lon="-1.54847">
        <ele>48.4</ele>
        <time>2020-06-12T04:29:13Z</time>
      </trkpt>
      <trkpt lat="49.04715" lon="-1.54846">
        <ele>48.4</ele>
        <time>2020-06-12T04:29:14Z</time>
      </trkpt>
      <trkpt lat="49.04712" lon="-1.54843">
        <ele>48.4</ele>
        <time>2020-06-12T04:29:15Z</time>
      </trkpt>
      <trkpt lat="49.04709" lon="-1.54842">
        <ele>48.4</ele>
        <time>2020-06-12T04:29:16Z</time>
      </trkpt>
      <trkpt lat="49.04705" lon="-1.54842">
        <ele>48.4</ele>
        <time>2020-06-12T04:29:17Z</time>
      </trkpt>
      <trkpt lat="49.04702" lon="-1.54842">
        <ele>48.4</ele>
        <time>2020-06-12T04:29:18Z</time>
      </trkpt>
      <trkpt lat="49.04699" lon="-1.54842">
        <ele>48.4</ele>
        <time>2020-06-12T04:29:19Z</time>
      </trkpt>
      <trkpt lat="49.04695" lon="-1.54842">
        <ele>48.3</ele>
        <time>2020-06-12T04:29:20Z</time>
      </trkpt>
      <trkpt lat="49.04692" lon="-1.54842">
        <ele>48.3</ele>
        <time>2020-06-12T04:29:21Z</time>
      </trkpt>
      <trkpt lat="49.04689" lon="-1.54842">
        <ele>48.3</ele>
        <time>2020-06-12T04:29:22Z</time>
      </trkpt>
      <trkpt lat="49.04686" lon="-1.54843">
        <ele>48.2</ele>
        <time>2020-06-12T04:29:23Z</time>
      </trkpt>
      <trkpt lat="49.04683" lon="-1.54845">
        <ele>48.1</ele>
        <time>2020-06-12T04:29:24Z</time>
      </trkpt>
      <trkpt lat="49.04679" lon="-1.54845">
        <ele>48.1</ele>
        <time>2020-06-12T04:29:25Z</time>
      </trkpt>
      <trkpt lat="49.04675" lon="-1.54843">
        <ele>48</ele>
        <time>2020-06-12T04:29:26Z</time>
      </trkpt>
      <trkpt lat="49.04671" lon="-1.54843">
        <ele>47.9</ele>
        <time>2020-06-12T04:29:27Z</time>
      </trkpt>
      <trkpt lat="49.04666" lon="-1.54842">
        <ele>47.8</ele>
        <time>2020-06-12T04:29:28Z</time>
      </trkpt>
      <trkpt lat="49.04662" lon="-1.54841">
        <ele>47.6</ele>
        <time>2020-06-12T04:29:29Z</time>
      </trkpt>
      <trkpt lat="49.04656" lon="-1.54839">
        <ele>47.5</ele>
        <time>2020-06-12T04:29:30Z</time>
      </trkpt>
      <trkpt lat="49.04652" lon="-1.54838">
        <ele>47.4</ele>
        <time>2020-06-12T04:29:31Z</time>
      </trkpt>
      <trkpt lat="49.04647" lon="-1.54837">
        <ele>47.2</ele>
        <time>2020-06-12T04:29:32Z</time>
      </trkpt>
      <trkpt lat="49.04641" lon="-1.54836">
        <ele>47.1</ele>
        <time>2020-06-12T04:29:33Z</time>
      </trkpt>
      <trkpt lat="49.04636" lon="-1.54836">
        <ele>47</ele>
        <time>2020-06-12T04:29:34Z</time>
      </trkpt>
      <trkpt lat="49.0463" lon="-1.54836">
        <ele>46.9</ele>
        <time>2020-06-12T04:29:35Z</time>
      </trkpt>
      <trkpt lat="49.04625" lon="-1.54837">
        <ele>46.8</ele>
        <time>2020-06-12T04:29:36Z</time>
      </trkpt>
      <trkpt lat="49.04621" lon="-1.54835">
        <ele>46.7</ele>
        <time>2020-06-12T04:29:37Z</time>
      </trkpt>
      <trkpt lat="49.04616" lon="-1.54835">
        <ele>46.6</ele>
        <time>2020-06-12T04:29:38Z</time>
      </trkpt>
      <trkpt lat="49.04612" lon="-1.54835">
        <ele>46.6</ele>
        <time>2020-06-12T04:29:39Z</time>
      </trkpt>
      <trkpt lat="49.04607" lon="-1.54837">
        <ele>46.5</ele>
        <time>2020-06-12T04:29:40Z</time>
      </trkpt>
      <trkpt lat="49.04603" lon="-1.54837">
        <ele>46.3</ele>
        <time>2020-06-12T04:29:41Z</time>
      </trkpt>
      <trkpt lat="49.04601" lon="-1.54838">
        <ele>46.3</ele>
        <time>2020-06-12T04:29:42Z</time>
      </trkpt>
      <trkpt lat="49.046" lon="-1.54839">
        <ele>46.3</ele>
        <time>2020-06-12T04:29:43Z</time>
      </trkpt>
      <trkpt lat="49.04599" lon="-1.54847">
        <ele>46.2</ele>
        <time>2020-06-12T04:29:44Z</time>
      </trkpt>
      <trkpt lat="49.04598" lon="-1.54855">
        <ele>46.1</ele>
        <time>2020-06-12T04:29:45Z</time>
      </trkpt>
      <trkpt lat="49.04595" lon="-1.54862">
        <ele>46</ele>
        <time>2020-06-12T04:29:46Z</time>
      </trkpt>
      <trkpt lat="49.04592" lon="-1.54867">
        <ele>45.9</ele>
        <time>2020-06-12T04:29:47Z</time>
      </trkpt>
      <trkpt lat="49.04589" lon="-1.54872">
        <ele>45.9</ele>
        <time>2020-06-12T04:29:48Z</time>
      </trkpt>
      <trkpt lat="49.04587" lon="-1.54876">
        <ele>45.9</ele>
        <time>2020-06-12T04:29:49Z</time>
      </trkpt>
      <trkpt lat="49.04585" lon="-1.5488">
        <ele>45.8</ele>
        <time>2020-06-12T04:29:50Z</time>
      </trkpt>
      <trkpt lat="49.04583" lon="-1.54884">
        <ele>45.8</ele>
        <time>2020-06-12T04:29:51Z</time>
      </trkpt>
      <trkpt lat="49.0458" lon="-1.54889">
        <ele>45.7</ele>
        <time>2020-06-12T04:29:52Z</time>
      </trkpt>
      <trkpt lat="49.04578" lon="-1.54893">
        <ele>45.7</ele>
        <time>2020-06-12T04:29:53Z</time>
      </trkpt>
      <trkpt lat="49.04576" lon="-1.54897">
        <ele>45.6</ele>
        <time>2020-06-12T04:29:54Z</time>
      </trkpt>
      <trkpt lat="49.04574" lon="-1.54901">
        <ele>45.5</ele>
        <time>2020-06-12T04:29:55Z</time>
      </trkpt>
      <trkpt lat="49.04571" lon="-1.54906">
        <ele>45.5</ele>
        <time>2020-06-12T04:29:56Z</time>
      </trkpt>
      <trkpt lat="49.04569" lon="-1.5491">
        <ele>45.4</ele>
        <time>2020-06-12T04:29:57Z</time>
      </trkpt>
      <trkpt lat="49.04567" lon="-1.54914">
        <ele>45.3</ele>
        <time>2020-06-12T04:29:58Z</time>
      </trkpt>
      <trkpt lat="49.04564" lon="-1.54921">
        <ele>45.2</ele>
        <time>2020-06-12T04:29:59Z</time>
      </trkpt>
      <trkpt lat="49.04559" lon="-1.54926">
        <ele>45.1</ele>
        <time>2020-06-12T04:30:00Z</time>
      </trkpt>
      <trkpt lat="49.04556" lon="-1.54934">
        <ele>45</ele>
        <time>2020-06-12T04:30:01Z</time>
      </trkpt>
      <trkpt lat="49.04552" lon="-1.54943">
        <ele>44.8</ele>
        <time>2020-06-12T04:30:02Z</time>
      </trkpt>
      <trkpt lat="49.04548" lon="-1.54951">
        <ele>44.6</ele>
        <time>2020-06-12T04:30:03Z</time>
      </trkpt>
      <trkpt lat="49.04545" lon="-1.54959">
        <ele>44.4</ele>
        <time>2020-06-12T04:30:04Z</time>
      </trkpt>
      <trkpt lat="49.0454" lon="-1.54967">
        <ele>44.2</ele>
        <time>2020-06-12T04:30:05Z</time>
      </trkpt>
      <trkpt lat="49.04536" lon="-1.54974">
        <ele>44</ele>
        <time>2020-06-12T04:30:06Z</time>
      </trkpt>
      <trkpt lat="49.04532" lon="-1.54981">
        <ele>43.8</ele>
        <time>2020-06-12T04:30:07Z</time>
      </trkpt>
      <trkpt lat="49.04528" lon="-1.5499">
        <ele>43.6</ele>
        <time>2020-06-12T04:30:08Z</time>
      </trkpt>
      <trkpt lat="49.04523" lon="-1.54996">
        <ele>43.4</ele>
        <time>2020-06-12T04:30:09Z</time>
      </trkpt>
      <trkpt lat="49.04519" lon="-1.55004">
        <ele>43.2</ele>
        <time>2020-06-12T04:30:10Z</time>
      </trkpt>
      <trkpt lat="49.04516" lon="-1.55012">
        <ele>43</ele>
        <time>2020-06-12T04:30:11Z</time>
      </trkpt>
      <trkpt lat="49.04511" lon="-1.55021">
        <ele>42.8</ele>
        <time>2020-06-12T04:30:12Z</time>
      </trkpt>
      <trkpt lat="49.04507" lon="-1.55029">
        <ele>42.6</ele>
        <time>2020-06-12T04:30:13Z</time>
      </trkpt>
      <trkpt lat="49.04504" lon="-1.55037">
        <ele>42.3</ele>
        <time>2020-06-12T04:30:14Z</time>
      </trkpt>
      <trkpt lat="49.045" lon="-1.55047">
        <ele>42</ele>
        <time>2020-06-12T04:30:15Z</time>
      </trkpt>
      <trkpt lat="49.04495" lon="-1.55057">
        <ele>41.7</ele>
        <time>2020-06-12T04:30:16Z</time>
      </trkpt>
      <trkpt lat="49.0449" lon="-1.55064">
        <ele>41.4</ele>
        <time>2020-06-12T04:30:17Z</time>
      </trkpt>
      <trkpt lat="49.04485" lon="-1.55074">
        <ele>41.1</ele>
        <time>2020-06-12T04:30:18Z</time>
      </trkpt>
      <trkpt lat="49.0448" lon="-1.55082">
        <ele>40.8</ele>
        <time>2020-06-12T04:30:19Z</time>
      </trkpt>
      <trkpt lat="49.04475" lon="-1.55091">
        <ele>40.5</ele>
        <time>2020-06-12T04:30:20Z</time>
      </trkpt>
      <trkpt lat="49.04469" lon="-1.55099">
        <ele>40.2</ele>
        <time>2020-06-12T04:30:21Z</time>
      </trkpt>
      <trkpt lat="49.04463" lon="-1.55108">
        <ele>39.8</ele>
        <time>2020-06-12T04:30:22Z</time>
      </trkpt>
      <trkpt lat="49.04457" lon="-1.55117">
        <ele>39.5</ele>
        <time>2020-06-12T04:30:23Z</time>
      </trkpt>
      <trkpt lat="49.04451" lon="-1.55125">
        <ele>39.1</ele>
        <time>2020-06-12T04:30:24Z</time>
      </trkpt>
      <trkpt lat="49.04444" lon="-1.55135">
        <ele>38.9</ele>
        <time>2020-06-12T04:30:25Z</time>
      </trkpt>
      <trkpt lat="49.04438" lon="-1.55144">
        <ele>38.6</ele>
        <time>2020-06-12T04:30:26Z</time>
      </trkpt>
      <trkpt lat="49.04432" lon="-1.55154">
        <ele>38.3</ele>
        <time>2020-06-12T04:30:27Z</time>
      </trkpt>
      <trkpt lat="49.04427" lon="-1.55163">
        <ele>37.9</ele>
        <time>2020-06-12T04:30:28Z</time>
      </trkpt>
      <trkpt lat="49.04422" lon="-1.55172">
        <ele>37.6</ele>
        <time>2020-06-12T04:30:29Z</time>
      </trkpt>
      <trkpt lat="49.04418" lon="-1.55181">
        <ele>37.4</ele>
        <time>2020-06-12T04:30:30Z</time>
      </trkpt>
      <trkpt lat="49.04415" lon="-1.55192">
        <ele>36.4</ele>
        <time>2020-06-12T04:30:31Z</time>
      </trkpt>
      <trkpt lat="49.04413" lon="-1.55205">
        <ele>35.7</ele>
        <time>2020-06-12T04:30:32Z</time>
      </trkpt>
      <trkpt lat="49.04411" lon="-1.55218">
        <ele>35.3</ele>
        <time>2020-06-12T04:30:33Z</time>
      </trkpt>
      <trkpt lat="49.04411" lon="-1.5523">
        <ele>35.1</ele>
        <time>2020-06-12T04:30:34Z</time>
      </trkpt>
      <trkpt lat="49.04411" lon="-1.55242">
        <ele>35</ele>
        <time>2020-06-12T04:30:35Z</time>
      </trkpt>
      <trkpt lat="49.04412" lon="-1.55256">
        <ele>34.9</ele>
        <time>2020-06-12T04:30:36Z</time>
      </trkpt>
      <trkpt lat="49.04412" lon="-1.55268">
        <ele>35</ele>
        <time>2020-06-12T04:30:37Z</time>
      </trkpt>
      <trkpt lat="49.04413" lon="-1.55279">
        <ele>35.1</ele>
        <time>2020-06-12T04:30:38Z</time>
      </trkpt>
      <trkpt lat="49.04414" lon="-1.5529">
        <ele>35.1</ele>
        <time>2020-06-12T04:30:39Z</time>
      </trkpt>
      <trkpt lat="49.04414" lon="-1.55301">
        <ele>35.1</ele>
        <time>2020-06-12T04:30:40Z</time>
      </trkpt>
      <trkpt lat="49.04414" lon="-1.55312">
        <ele>35</ele>
        <time>2020-06-12T04:30:41Z</time>
      </trkpt>
      <trkpt lat="49.04414" lon="-1.55321">
        <ele>35.1</ele>
        <time>2020-06-12T04:30:42Z</time>
      </trkpt>
      <trkpt lat="49.04414" lon="-1.5533">
        <ele>35.1</ele>
        <time>2020-06-12T04:30:43Z</time>
      </trkpt>
      <trkpt lat="49.04414" lon="-1.55339">
        <ele>35.2</ele>
        <time>2020-06-12T04:30:44Z</time>
      </trkpt>
      <trkpt lat="49.04415" lon="-1.55347">
        <ele>35.2</ele>
        <time>2020-06-12T04:30:45Z</time>
      </trkpt>
      <trkpt lat="49.04415" lon="-1.55354">
        <ele>35.3</ele>
        <time>2020-06-12T04:30:46Z</time>
      </trkpt>
      <trkpt lat="49.04416" lon="-1.55363">
        <ele>35.4</ele>
        <time>2020-06-12T04:30:47Z</time>
      </trkpt>
      <trkpt lat="49.04417" lon="-1.55371">
        <ele>35.4</ele>
        <time>2020-06-12T04:30:48Z</time>
      </trkpt>
      <trkpt lat="49.04418" lon="-1.55378">
        <ele>35.5</ele>
        <time>2020-06-12T04:30:49Z</time>
      </trkpt>
      <trkpt lat="49.04419" lon="-1.55385">
        <ele>35.5</ele>
        <time>2020-06-12T04:30:50Z</time>
      </trkpt>
      <trkpt lat="49.0442" lon="-1.55393">
        <ele>35.6</ele>
        <time>2020-06-12T04:30:51Z</time>
      </trkpt>
      <trkpt lat="49.04423" lon="-1.55398">
        <ele>35.6</ele>
        <time>2020-06-12T04:30:52Z</time>
      </trkpt>
      <trkpt lat="49.04424" lon="-1.55404">
        <ele>35.6</ele>
        <time>2020-06-12T04:30:53Z</time>
      </trkpt>
      <trkpt lat="49.04427" lon="-1.5541">
        <ele>35.7</ele>
        <time>2020-06-12T04:30:54Z</time>
      </trkpt>
      <trkpt lat="49.0443" lon="-1.55416">
        <ele>35.8</ele>
        <time>2020-06-12T04:30:55Z</time>
      </trkpt>
      <trkpt lat="49.04434" lon="-1.5542">
        <ele>36</ele>
        <time>2020-06-12T04:30:56Z</time>
      </trkpt>
      <trkpt lat="49.04438" lon="-1.55424">
        <ele>36.1</ele>
        <time>2020-06-12T04:30:57Z</time>
      </trkpt>
      <trkpt lat="49.04442" lon="-1.55429">
        <ele>36.3</ele>
        <time>2020-06-12T04:30:58Z</time>
      </trkpt>
      <trkpt lat="49.04445" lon="-1.55433">
        <ele>36.5</ele>
        <time>2020-06-12T04:30:59Z</time>
      </trkpt>
      <trkpt lat="49.04449" lon="-1.55438">
        <ele>36.6</ele>
        <time>2020-06-12T04:31:00Z</time>
      </trkpt>
      <trkpt lat="49.04452" lon="-1.55442">
        <ele>36.7</ele>
        <time>2020-06-12T04:31:01Z</time>
      </trkpt>
      <trkpt lat="49.04457" lon="-1.55447">
        <ele>36.7</ele>
        <time>2020-06-12T04:31:02Z</time>
      </trkpt>
      <trkpt lat="49.04461" lon="-1.55452">
        <ele>36.8</ele>
        <time>2020-06-12T04:31:03Z</time>
      </trkpt>
      <trkpt lat="49.04466" lon="-1.55455">
        <ele>36.8</ele>
        <time>2020-06-12T04:31:04Z</time>
      </trkpt>
      <trkpt lat="49.04472" lon="-1.55459">
        <ele>36.8</ele>
        <time>2020-06-12T04:31:05Z</time>
      </trkpt>
      <trkpt lat="49.04477" lon="-1.55462">
        <ele>36.8</ele>
        <time>2020-06-12T04:31:06Z</time>
      </trkpt>
      <trkpt lat="49.0448" lon="-1.55465">
        <ele>36.8</ele>
        <time>2020-06-12T04:31:07Z</time>
      </trkpt>
      <trkpt lat="49.04484" lon="-1.55468">
        <ele>36.8</ele>
        <time>2020-06-12T04:31:08Z</time>
      </trkpt>
      <trkpt lat="49.04488" lon="-1.55471">
        <ele>36.8</ele>
        <time>2020-06-12T04:31:09Z</time>
      </trkpt>
      <trkpt lat="49.04491" lon="-1.55474">
        <ele>36.8</ele>
        <time>2020-06-12T04:31:10Z</time>
      </trkpt>
      <trkpt lat="49.04496" lon="-1.55479">
        <ele>36.8</ele>
        <time>2020-06-12T04:31:11Z</time>
      </trkpt>
      <trkpt lat="49.045" lon="-1.55481">
        <ele>36.8</ele>
        <time>2020-06-12T04:31:12Z</time>
      </trkpt>
      <trkpt lat="49.04505" lon="-1.55484">
        <ele>36.8</ele>
        <time>2020-06-12T04:31:13Z</time>
      </trkpt>
      <trkpt lat="49.04509" lon="-1.55488">
        <ele>36.8</ele>
        <time>2020-06-12T04:31:14Z</time>
      </trkpt>
      <trkpt lat="49.04512" lon="-1.5549">
        <ele>36.8</ele>
        <time>2020-06-12T04:31:15Z</time>
      </trkpt>
      <trkpt lat="49.04516" lon="-1.55493">
        <ele>36.8</ele>
        <time>2020-06-12T04:31:16Z</time>
      </trkpt>
      <trkpt lat="49.0452" lon="-1.55496">
        <ele>36.7</ele>
        <time>2020-06-12T04:31:17Z</time>
      </trkpt>
      <trkpt lat="49.04525" lon="-1.55499">
        <ele>36.7</ele>
        <time>2020-06-12T04:31:18Z</time>
      </trkpt>
      <trkpt lat="49.04531" lon="-1.55503">
        <ele>36.7</ele>
        <time>2020-06-12T04:31:19Z</time>
      </trkpt>
      <trkpt lat="49.04536" lon="-1.55505">
        <ele>36.6</ele>
        <time>2020-06-12T04:31:20Z</time>
      </trkpt>
      <trkpt lat="49.0454" lon="-1.55508">
        <ele>36.6</ele>
        <time>2020-06-12T04:31:21Z</time>
      </trkpt>
      <trkpt lat="49.04544" lon="-1.5551">
        <ele>36.5</ele>
        <time>2020-06-12T04:31:22Z</time>
      </trkpt>
      <trkpt lat="49.04549" lon="-1.55512">
        <ele>36.5</ele>
        <time>2020-06-12T04:31:23Z</time>
      </trkpt>
      <trkpt lat="49.04552" lon="-1.55515">
        <ele>36.5</ele>
        <time>2020-06-12T04:31:24Z</time>
      </trkpt>
      <trkpt lat="49.04557" lon="-1.55517">
        <ele>36.4</ele>
        <time>2020-06-12T04:31:25Z</time>
      </trkpt>
      <trkpt lat="49.04562" lon="-1.55519">
        <ele>36.4</ele>
        <time>2020-06-12T04:31:26Z</time>
      </trkpt>
      <trkpt lat="49.04566" lon="-1.55523">
        <ele>36.4</ele>
        <time>2020-06-12T04:31:27Z</time>
      </trkpt>
      <trkpt lat="49.04571" lon="-1.55525">
        <ele>36.3</ele>
        <time>2020-06-12T04:31:28Z</time>
      </trkpt>
      <trkpt lat="49.04575" lon="-1.55527">
        <ele>36.3</ele>
        <time>2020-06-12T04:31:29Z</time>
      </trkpt>
      <trkpt lat="49.04581" lon="-1.5553">
        <ele>36.2</ele>
        <time>2020-06-12T04:31:30Z</time>
      </trkpt>
      <trkpt lat="49.04587" lon="-1.55534">
        <ele>36.1</ele>
        <time>2020-06-12T04:31:31Z</time>
      </trkpt>
      <trkpt lat="49.04593" lon="-1.55537">
        <ele>36.1</ele>
        <time>2020-06-12T04:31:32Z</time>
      </trkpt>
      <trkpt lat="49.04597" lon="-1.55539">
        <ele>36</ele>
        <time>2020-06-12T04:31:33Z</time>
      </trkpt>
      <trkpt lat="49.04601" lon="-1.55542">
        <ele>35.9</ele>
        <time>2020-06-12T04:31:34Z</time>
      </trkpt>
      <trkpt lat="49.04606" lon="-1.55545">
        <ele>35.9</ele>
        <time>2020-06-12T04:31:35Z</time>
      </trkpt>
      <trkpt lat="49.0461" lon="-1.55548">
        <ele>35.8</ele>
        <time>2020-06-12T04:31:36Z</time>
      </trkpt>
      <trkpt lat="49.04614" lon="-1.5555">
        <ele>35.7</ele>
        <time>2020-06-12T04:31:37Z</time>
      </trkpt>
      <trkpt lat="49.04618" lon="-1.55552">
        <ele>35.7</ele>
        <time>2020-06-12T04:31:38Z</time>
      </trkpt>
      <trkpt lat="49.04622" lon="-1.55556">
        <ele>35.6</ele>
        <time>2020-06-12T04:31:39Z</time>
      </trkpt>
      <trkpt lat="49.04627" lon="-1.55557">
        <ele>35.5</ele>
        <time>2020-06-12T04:31:40Z</time>
      </trkpt>
      <trkpt lat="49.04632" lon="-1.5556">
        <ele>35.5</ele>
        <time>2020-06-12T04:31:41Z</time>
      </trkpt>
      <trkpt lat="49.04637" lon="-1.55562">
        <ele>35.3</ele>
        <time>2020-06-12T04:31:42Z</time>
      </trkpt>
      <trkpt lat="49.04642" lon="-1.55566">
        <ele>35.2</ele>
        <time>2020-06-12T04:31:43Z</time>
      </trkpt>
      <trkpt lat="49.04647" lon="-1.55568">
        <ele>35.1</ele>
        <time>2020-06-12T04:31:44Z</time>
      </trkpt>
      <trkpt lat="49.04652" lon="-1.5557">
        <ele>35</ele>
        <time>2020-06-12T04:31:45Z</time>
      </trkpt>
      <trkpt lat="49.04657" lon="-1.55572">
        <ele>34.9</ele>
        <time>2020-06-12T04:31:46Z</time>
      </trkpt>
      <trkpt lat="49.04661" lon="-1.55574">
        <ele>34.8</ele>
        <time>2020-06-12T04:31:47Z</time>
      </trkpt>
      <trkpt lat="49.04667" lon="-1.55575">
        <ele>34.6</ele>
        <time>2020-06-12T04:31:48Z</time>
      </trkpt>
      <trkpt lat="49.04671" lon="-1.55578">
        <ele>34.5</ele>
        <time>2020-06-12T04:31:49Z</time>
      </trkpt>
      <trkpt lat="49.04676" lon="-1.55581">
        <ele>34.4</ele>
        <time>2020-06-12T04:31:50Z</time>
      </trkpt>
      <trkpt lat="49.0468" lon="-1.55584">
        <ele>34.3</ele>
        <time>2020-06-12T04:31:51Z</time>
      </trkpt>
      <trkpt lat="49.04685" lon="-1.55586">
        <ele>34.1</ele>
        <time>2020-06-12T04:31:52Z</time>
      </trkpt>
      <trkpt lat="49.0469" lon="-1.55588">
        <ele>34</ele>
        <time>2020-06-12T04:31:53Z</time>
      </trkpt>
      <trkpt lat="49.04695" lon="-1.5559">
        <ele>33.8</ele>
        <time>2020-06-12T04:31:54Z</time>
      </trkpt>
      <trkpt lat="49.04699" lon="-1.55593">
        <ele>33.6</ele>
        <time>2020-06-12T04:31:55Z</time>
      </trkpt>
      <trkpt lat="49.04704" lon="-1.55596">
        <ele>33.5</ele>
        <time>2020-06-12T04:31:56Z</time>
      </trkpt>
      <trkpt lat="49.04709" lon="-1.556">
        <ele>33.3</ele>
        <time>2020-06-12T04:31:57Z</time>
      </trkpt>
      <trkpt lat="49.04714" lon="-1.55605">
        <ele>33</ele>
        <time>2020-06-12T04:31:58Z</time>
      </trkpt>
      <trkpt lat="49.04719" lon="-1.5561">
        <ele>32.8</ele>
        <time>2020-06-12T04:31:59Z</time>
      </trkpt>
      <trkpt lat="49.04724" lon="-1.55614">
        <ele>32.6</ele>
        <time>2020-06-12T04:32:00Z</time>
      </trkpt>
      <trkpt lat="49.04729" lon="-1.55618">
        <ele>32.3</ele>
        <time>2020-06-12T04:32:01Z</time>
      </trkpt>
      <trkpt lat="49.04734" lon="-1.55622">
        <ele>32.1</ele>
        <time>2020-06-12T04:32:02Z</time>
      </trkpt>
      <trkpt lat="49.04739" lon="-1.55626">
        <ele>31.9</ele>
        <time>2020-06-12T04:32:03Z</time>
      </trkpt>
      <trkpt lat="49.04744" lon="-1.5563">
        <ele>31.7</ele>
        <time>2020-06-12T04:32:04Z</time>
      </trkpt>
      <trkpt lat="49.04749" lon="-1.55635">
        <ele>31.5</ele>
        <time>2020-06-12T04:32:05Z</time>
      </trkpt>
      <trkpt lat="49.04755" lon="-1.5564">
        <ele>31.2</ele>
        <time>2020-06-12T04:32:06Z</time>
      </trkpt>
      <trkpt lat="49.04761" lon="-1.55645">
        <ele>30.6</ele>
        <time>2020-06-12T04:32:07Z</time>
      </trkpt>
      <trkpt lat="49.04767" lon="-1.5565">
        <ele>30.3</ele>
        <time>2020-06-12T04:32:08Z</time>
      </trkpt>
      <trkpt lat="49.04773" lon="-1.55655">
        <ele>29.9</ele>
        <time>2020-06-12T04:32:09Z</time>
      </trkpt>
      <trkpt lat="49.04778" lon="-1.55661">
        <ele>29.6</ele>
        <time>2020-06-12T04:32:10Z</time>
      </trkpt>
      <trkpt lat="49.04784" lon="-1.55667">
        <ele>29.2</ele>
        <time>2020-06-12T04:32:11Z</time>
      </trkpt>
      <trkpt lat="49.04789" lon="-1.55672">
        <ele>28.9</ele>
        <time>2020-06-12T04:32:12Z</time>
      </trkpt>
      <trkpt lat="49.04795" lon="-1.55679">
        <ele>28.5</ele>
        <time>2020-06-12T04:32:13Z</time>
      </trkpt>
      <trkpt lat="49.04801" lon="-1.55685">
        <ele>28.2</ele>
        <time>2020-06-12T04:32:14Z</time>
      </trkpt>
      <trkpt lat="49.04807" lon="-1.55692">
        <ele>27.8</ele>
        <time>2020-06-12T04:32:15Z</time>
      </trkpt>
      <trkpt lat="49.04814" lon="-1.557">
        <ele>27.4</ele>
        <time>2020-06-12T04:32:16Z</time>
      </trkpt>
      <trkpt lat="49.0482" lon="-1.55708">
        <ele>27</ele>
        <time>2020-06-12T04:32:17Z</time>
      </trkpt>
      <trkpt lat="49.04826" lon="-1.55715">
        <ele>26.5</ele>
        <time>2020-06-12T04:32:18Z</time>
      </trkpt>
      <trkpt lat="49.04832" lon="-1.55723">
        <ele>26</ele>
        <time>2020-06-12T04:32:19Z</time>
      </trkpt>
      <trkpt lat="49.04839" lon="-1.55731">
        <ele>25.5</ele>
        <time>2020-06-12T04:32:20Z</time>
      </trkpt>
      <trkpt lat="49.04846" lon="-1.55739">
        <ele>25</ele>
        <time>2020-06-12T04:32:21Z</time>
      </trkpt>
      <trkpt lat="49.04852" lon="-1.55747">
        <ele>24.4</ele>
        <time>2020-06-12T04:32:22Z</time>
      </trkpt>
      <trkpt lat="49.04859" lon="-1.55756">
        <ele>23.8</ele>
        <time>2020-06-12T04:32:23Z</time>
      </trkpt>
      <trkpt lat="49.04864" lon="-1.55765">
        <ele>23.2</ele>
        <time>2020-06-12T04:32:24Z</time>
      </trkpt>
      <trkpt lat="49.0487" lon="-1.55775">
        <ele>22.5</ele>
        <time>2020-06-12T04:32:25Z</time>
      </trkpt>
      <trkpt lat="49.04876" lon="-1.55785">
        <ele>21.8</ele>
        <time>2020-06-12T04:32:26Z</time>
      </trkpt>
      <trkpt lat="49.04883" lon="-1.55795">
        <ele>21.1</ele>
        <time>2020-06-12T04:32:27Z</time>
      </trkpt>
      <trkpt lat="49.04889" lon="-1.55806">
        <ele>20.4</ele>
        <time>2020-06-12T04:32:28Z</time>
      </trkpt>
      <trkpt lat="49.04896" lon="-1.55816">
        <ele>19.8</ele>
        <time>2020-06-12T04:32:29Z</time>
      </trkpt>
      <trkpt lat="49.04902" lon="-1.55826">
        <ele>19.2</ele>
        <time>2020-06-12T04:32:30Z</time>
      </trkpt>
      <trkpt lat="49.04909" lon="-1.55837">
        <ele>18.6</ele>
        <time>2020-06-12T04:32:31Z</time>
      </trkpt>
      <trkpt lat="49.04915" lon="-1.55849">
        <ele>18</ele>
        <time>2020-06-12T04:32:32Z</time>
      </trkpt>
      <trkpt lat="49.04922" lon="-1.5586">
        <ele>17.3</ele>
        <time>2020-06-12T04:32:33Z</time>
      </trkpt>
      <trkpt lat="49.04929" lon="-1.55872">
        <ele>16.7</ele>
        <time>2020-06-12T04:32:34Z</time>
      </trkpt>
      <trkpt lat="49.04936" lon="-1.55883">
        <ele>16.2</ele>
        <time>2020-06-12T04:32:35Z</time>
      </trkpt>
      <trkpt lat="49.04944" lon="-1.55894">
        <ele>15.8</ele>
        <time>2020-06-12T04:32:36Z</time>
      </trkpt>
      <trkpt lat="49.0495" lon="-1.55906">
        <ele>15.4</ele>
        <time>2020-06-12T04:32:37Z</time>
      </trkpt>
      <trkpt lat="49.04957" lon="-1.55916">
        <ele>15.1</ele>
        <time>2020-06-12T04:32:38Z</time>
      </trkpt>
      <trkpt lat="49.04963" lon="-1.55926">
        <ele>15</ele>
        <time>2020-06-12T04:32:39Z</time>
      </trkpt>
      <trkpt lat="49.04969" lon="-1.55937">
        <ele>14.9</ele>
        <time>2020-06-12T04:32:40Z</time>
      </trkpt>
      <trkpt lat="49.04974" lon="-1.55947">
        <ele>14.9</ele>
        <time>2020-06-12T04:32:41Z</time>
      </trkpt>
      <trkpt lat="49.0498" lon="-1.55955">
        <ele>14.9</ele>
        <time>2020-06-12T04:32:42Z</time>
      </trkpt>
      <trkpt lat="49.04985" lon="-1.55963">
        <ele>15</ele>
        <time>2020-06-12T04:32:43Z</time>
      </trkpt>
      <trkpt lat="49.04991" lon="-1.55971">
        <ele>15.2</ele>
        <time>2020-06-12T04:32:44Z</time>
      </trkpt>
      <trkpt lat="49.04996" lon="-1.55979">
        <ele>15.4</ele>
        <time>2020-06-12T04:32:45Z</time>
      </trkpt>
      <trkpt lat="49.05001" lon="-1.55987">
        <ele>15.7</ele>
        <time>2020-06-12T04:32:46Z</time>
      </trkpt>
      <trkpt lat="49.05005" lon="-1.55995">
        <ele>15.9</ele>
        <time>2020-06-12T04:32:47Z</time>
      </trkpt>
      <trkpt lat="49.05011" lon="-1.56001">
        <ele>16.2</ele>
        <time>2020-06-12T04:32:48Z</time>
      </trkpt>
      <trkpt lat="49.05015" lon="-1.56008">
        <ele>16.6</ele>
        <time>2020-06-12T04:32:49Z</time>
      </trkpt>
      <trkpt lat="49.0502" lon="-1.56013">
        <ele>16.9</ele>
        <time>2020-06-12T04:32:50Z</time>
      </trkpt>
      <trkpt lat="49.05023" lon="-1.5602">
        <ele>17.3</ele>
        <time>2020-06-12T04:32:51Z</time>
      </trkpt>
      <trkpt lat="49.05027" lon="-1.56024">
        <ele>17.6</ele>
        <time>2020-06-12T04:32:52Z</time>
      </trkpt>
      <trkpt lat="49.0503" lon="-1.5603">
        <ele>17.9</ele>
        <time>2020-06-12T04:32:53Z</time>
      </trkpt>
      <trkpt lat="49.05032" lon="-1.56035">
        <ele>18.3</ele>
        <time>2020-06-12T04:32:54Z</time>
      </trkpt>
      <trkpt lat="49.05034" lon="-1.5604">
        <ele>18.6</ele>
        <time>2020-06-12T04:32:55Z</time>
      </trkpt>
      <trkpt lat="49.05037" lon="-1.56044">
        <ele>18.8</ele>
        <time>2020-06-12T04:32:56Z</time>
      </trkpt>
      <trkpt lat="49.0504" lon="-1.56047">
        <ele>19.1</ele>
        <time>2020-06-12T04:32:57Z</time>
      </trkpt>
      <trkpt lat="49.05042" lon="-1.56051">
        <ele>19.4</ele>
        <time>2020-06-12T04:32:58Z</time>
      </trkpt>
      <trkpt lat="49.05044" lon="-1.56055">
        <ele>19.7</ele>
        <time>2020-06-12T04:32:59Z</time>
      </trkpt>
      <trkpt lat="49.05047" lon="-1.56059">
        <ele>19.9</ele>
        <time>2020-06-12T04:33:00Z</time>
      </trkpt>
      <trkpt lat="49.05049" lon="-1.56063">
        <ele>20.2</ele>
        <time>2020-06-12T04:33:01Z</time>
      </trkpt>
      <trkpt lat="49.05051" lon="-1.56067">
        <ele>20.5</ele>
        <time>2020-06-12T04:33:02Z</time>
      </trkpt>
      <trkpt lat="49.05053" lon="-1.5607">
        <ele>20.8</ele>
        <time>2020-06-12T04:33:03Z</time>
      </trkpt>
      <trkpt lat="49.05055" lon="-1.56073">
        <ele>21.1</ele>
        <time>2020-06-12T04:33:04Z</time>
      </trkpt>
      <trkpt lat="49.05057" lon="-1.56076">
        <ele>21.4</ele>
        <time>2020-06-12T04:33:05Z</time>
      </trkpt>
      <trkpt lat="49.0506" lon="-1.56078">
        <ele>21.6</ele>
        <time>2020-06-12T04:33:06Z</time>
      </trkpt>
      <trkpt lat="49.05062" lon="-1.56082">
        <ele>21.9</ele>
        <time>2020-06-12T04:33:07Z</time>
      </trkpt>
      <trkpt lat="49.05064" lon="-1.56086">
        <ele>22.2</ele>
        <time>2020-06-12T04:33:08Z</time>
      </trkpt>
      <trkpt lat="49.05066" lon="-1.5609">
        <ele>22.5</ele>
        <time>2020-06-12T04:33:09Z</time>
      </trkpt>
      <trkpt lat="49.05068" lon="-1.56092">
        <ele>22.7</ele>
        <time>2020-06-12T04:33:10Z</time>
      </trkpt>
      <trkpt lat="49.05071" lon="-1.56096">
        <ele>23</ele>
        <time>2020-06-12T04:33:11Z</time>
      </trkpt>
      <trkpt lat="49.05072" lon="-1.56098">
        <ele>23.1</ele>
        <time>2020-06-12T04:33:12Z</time>
      </trkpt>
      <trkpt lat="49.05074" lon="-1.56102">
        <ele>23.4</ele>
        <time>2020-06-12T04:33:13Z</time>
      </trkpt>
      <trkpt lat="49.05075" lon="-1.56104">
        <ele>23.6</ele>
        <time>2020-06-12T04:33:14Z</time>
      </trkpt>
      <trkpt lat="49.05076" lon="-1.56106">
        <ele>23.7</ele>
        <time>2020-06-12T04:33:15Z</time>
      </trkpt>
      <trkpt lat="49.05078" lon="-1.5611">
        <ele>23.9</ele>
        <time>2020-06-12T04:33:16Z</time>
      </trkpt>
      <trkpt lat="49.05079" lon="-1.5611">
        <ele>23.9</ele>
        <time>2020-06-12T04:33:17Z</time>
      </trkpt>
      <trkpt lat="49.05082" lon="-1.56115">
        <ele>24.2</ele>
        <time>2020-06-12T04:33:18Z</time>
      </trkpt>
      <trkpt lat="49.05083" lon="-1.56117">
        <ele>24.3</ele>
        <time>2020-06-12T04:33:19Z</time>
      </trkpt>
      <trkpt lat="49.05085" lon="-1.5612">
        <ele>24.5</ele>
        <time>2020-06-12T04:33:20Z</time>
      </trkpt>
      <trkpt lat="49.05088" lon="-1.56123">
        <ele>24.7</ele>
        <time>2020-06-12T04:33:21Z</time>
      </trkpt>
      <trkpt lat="49.05089" lon="-1.56124">
        <ele>24.8</ele>
        <time>2020-06-12T04:33:22Z</time>
      </trkpt>
      <trkpt lat="49.05091" lon="-1.56126">
        <ele>25</ele>
        <time>2020-06-12T04:33:23Z</time>
      </trkpt>
      <trkpt lat="49.05092" lon="-1.56127">
        <ele>25</ele>
        <time>2020-06-12T04:33:24Z</time>
      </trkpt>
      <trkpt lat="49.05094" lon="-1.56129">
        <ele>25.2</ele>
        <time>2020-06-12T04:33:25Z</time>
      </trkpt>
      <trkpt lat="49.05097" lon="-1.56132">
        <ele>25.5</ele>
        <time>2020-06-12T04:33:26Z</time>
      </trkpt>
      <trkpt lat="49.05099" lon="-1.56135">
        <ele>25.7</ele>
        <time>2020-06-12T04:33:27Z</time>
      </trkpt>
      <trkpt lat="49.05102" lon="-1.56139">
        <ele>25.9</ele>
        <time>2020-06-12T04:33:28Z</time>
      </trkpt>
      <trkpt lat="49.05103" lon="-1.56141">
        <ele>26.1</ele>
        <time>2020-06-12T04:33:29Z</time>
      </trkpt>
      <trkpt lat="49.05106" lon="-1.56144">
        <ele>26.3</ele>
        <time>2020-06-12T04:33:30Z</time>
      </trkpt>
      <trkpt lat="49.05107" lon="-1.56146">
        <ele>26.4</ele>
        <time>2020-06-12T04:33:31Z</time>
      </trkpt>
      <trkpt lat="49.05109" lon="-1.56149">
        <ele>26.6</ele>
        <time>2020-06-12T04:33:32Z</time>
      </trkpt>
      <trkpt lat="49.0511" lon="-1.5615">
        <ele>26.6</ele>
        <time>2020-06-12T04:33:33Z</time>
      </trkpt>
      <trkpt lat="49.05112" lon="-1.56154">
        <ele>26.8</ele>
        <time>2020-06-12T04:33:34Z</time>
      </trkpt>
      <trkpt lat="49.05113" lon="-1.56155">
        <ele>26.9</ele>
        <time>2020-06-12T04:33:35Z</time>
      </trkpt>
      <trkpt lat="49.05115" lon="-1.56159">
        <ele>27.1</ele>
        <time>2020-06-12T04:33:36Z</time>
      </trkpt>
      <trkpt lat="49.05116" lon="-1.5616">
        <ele>27.2</ele>
        <time>2020-06-12T04:33:37Z</time>
      </trkpt>
      <trkpt lat="49.05119" lon="-1.56163">
        <ele>27.4</ele>
        <time>2020-06-12T04:33:38Z</time>
      </trkpt>
      <trkpt lat="49.0512" lon="-1.56164">
        <ele>27.4</ele>
        <time>2020-06-12T04:33:39Z</time>
      </trkpt>
      <trkpt lat="49.05123" lon="-1.56168">
        <ele>27.6</ele>
        <time>2020-06-12T04:33:40Z</time>
      </trkpt>
      <trkpt lat="49.05123" lon="-1.56169">
        <ele>27.7</ele>
        <time>2020-06-12T04:33:41Z</time>
      </trkpt>
      <trkpt lat="49.05126" lon="-1.56172">
        <ele>27.9</ele>
        <time>2020-06-12T04:33:42Z</time>
      </trkpt>
      <trkpt lat="49.05127" lon="-1.56174">
        <ele>28</ele>
        <time>2020-06-12T04:33:43Z</time>
      </trkpt>
      <trkpt lat="49.05129" lon="-1.56177">
        <ele>28.1</ele>
        <time>2020-06-12T04:33:44Z</time>
      </trkpt>
      <trkpt lat="49.05132" lon="-1.5618">
        <ele>28.3</ele>
        <time>2020-06-12T04:33:45Z</time>
      </trkpt>
      <trkpt lat="49.05133" lon="-1.56181">
        <ele>28.4</ele>
        <time>2020-06-12T04:33:46Z</time>
      </trkpt>
      <trkpt lat="49.05137" lon="-1.56184">
        <ele>28.6</ele>
        <time>2020-06-12T04:33:47Z</time>
      </trkpt>
      <trkpt lat="49.05138" lon="-1.56184">
        <ele>28.7</ele>
        <time>2020-06-12T04:33:48Z</time>
      </trkpt>
      <trkpt lat="49.0514" lon="-1.56186">
        <ele>28.8</ele>
        <time>2020-06-12T04:33:49Z</time>
      </trkpt>
      <trkpt lat="49.05143" lon="-1.5619">
        <ele>29</ele>
        <time>2020-06-12T04:33:50Z</time>
      </trkpt>
      <trkpt lat="49.05146" lon="-1.56193">
        <ele>29.2</ele>
        <time>2020-06-12T04:33:51Z</time>
      </trkpt>
      <trkpt lat="49.05147" lon="-1.56194">
        <ele>29.3</ele>
        <time>2020-06-12T04:33:52Z</time>
      </trkpt>
      <trkpt lat="49.05149" lon="-1.56198">
        <ele>29.5</ele>
        <time>2020-06-12T04:33:53Z</time>
      </trkpt>
      <trkpt lat="49.05151" lon="-1.56199">
        <ele>29.6</ele>
        <time>2020-06-12T04:33:54Z</time>
      </trkpt>
      <trkpt lat="49.05153" lon="-1.56202">
        <ele>29.8</ele>
        <time>2020-06-12T04:33:55Z</time>
      </trkpt>
      <trkpt lat="49.05156" lon="-1.56204">
        <ele>30</ele>
        <time>2020-06-12T04:33:56Z</time>
      </trkpt>
      <trkpt lat="49.05157" lon="-1.56205">
        <ele>30.1</ele>
        <time>2020-06-12T04:33:57Z</time>
      </trkpt>
      <trkpt lat="49.05161" lon="-1.56208">
        <ele>30.3</ele>
        <time>2020-06-12T04:33:58Z</time>
      </trkpt>
      <trkpt lat="49.05162" lon="-1.56209">
        <ele>30.3</ele>
        <time>2020-06-12T04:33:59Z</time>
      </trkpt>
      <trkpt lat="49.05164" lon="-1.56211">
        <ele>30.5</ele>
        <time>2020-06-12T04:34:00Z</time>
      </trkpt>
      <trkpt lat="49.05168" lon="-1.56214">
        <ele>30.9</ele>
        <time>2020-06-12T04:34:01Z</time>
      </trkpt>
      <trkpt lat="49.05169" lon="-1.56215">
        <ele>30.9</ele>
        <time>2020-06-12T04:34:02Z</time>
      </trkpt>
      <trkpt lat="49.05172" lon="-1.56219">
        <ele>31.1</ele>
        <time>2020-06-12T04:34:03Z</time>
      </trkpt>
      <trkpt lat="49.05172" lon="-1.56219">
        <ele>31.2</ele>
        <time>2020-06-12T04:34:04Z</time>
      </trkpt>
      <trkpt lat="49.05175" lon="-1.56223">
        <ele>31.3</ele>
        <time>2020-06-12T04:34:05Z</time>
      </trkpt>
      <trkpt lat="49.05176" lon="-1.56224">
        <ele>31.4</ele>
        <time>2020-06-12T04:34:06Z</time>
      </trkpt>
      <trkpt lat="49.05179" lon="-1.56227">
        <ele>31.6</ele>
        <time>2020-06-12T04:34:07Z</time>
      </trkpt>
      <trkpt lat="49.0518" lon="-1.56228">
        <ele>31.6</ele>
        <time>2020-06-12T04:34:08Z</time>
      </trkpt>
      <trkpt lat="49.05182" lon="-1.56232">
        <ele>31.8</ele>
        <time>2020-06-12T04:34:09Z</time>
      </trkpt>
      <trkpt lat="49.05183" lon="-1.56233">
        <ele>31.8</ele>
        <time>2020-06-12T04:34:10Z</time>
      </trkpt>
      <trkpt lat="49.05186" lon="-1.56235">
        <ele>32</ele>
        <time>2020-06-12T04:34:11Z</time>
      </trkpt>
      <trkpt lat="49.05187" lon="-1.56235">
        <ele>32</ele>
        <time>2020-06-12T04:34:12Z</time>
      </trkpt>
      <trkpt lat="49.05189" lon="-1.56238">
        <ele>32.2</ele>
        <time>2020-06-12T04:34:13Z</time>
      </trkpt>
      <trkpt lat="49.05192" lon="-1.5624">
        <ele>32.3</ele>
        <time>2020-06-12T04:34:14Z</time>
      </trkpt>
      <trkpt lat="49.05195" lon="-1.56242">
        <ele>32.5</ele>
        <time>2020-06-12T04:34:15Z</time>
      </trkpt>
      <trkpt lat="49.05196" lon="-1.56243">
        <ele>32.5</ele>
        <time>2020-06-12T04:34:16Z</time>
      </trkpt>
      <trkpt lat="49.05199" lon="-1.56244">
        <ele>32.7</ele>
        <time>2020-06-12T04:34:17Z</time>
      </trkpt>
      <trkpt lat="49.052" lon="-1.56245">
        <ele>32.8</ele>
        <time>2020-06-12T04:34:18Z</time>
      </trkpt>
      <trkpt lat="49.05203" lon="-1.56249">
        <ele>33</ele>
        <time>2020-06-12T04:34:19Z</time>
      </trkpt>
      <trkpt lat="49.05204" lon="-1.5625">
        <ele>33</ele>
        <time>2020-06-12T04:34:20Z</time>
      </trkpt>
      <trkpt lat="49.05208" lon="-1.56253">
        <ele>33.2</ele>
        <time>2020-06-12T04:34:21Z</time>
      </trkpt>
      <trkpt lat="49.05209" lon="-1.56255">
        <ele>33.3</ele>
        <time>2020-06-12T04:34:22Z</time>
      </trkpt>
      <trkpt lat="49.05212" lon="-1.56258">
        <ele>33.4</ele>
        <time>2020-06-12T04:34:23Z</time>
      </trkpt>
      <trkpt lat="49.05213" lon="-1.56259">
        <ele>33.5</ele>
        <time>2020-06-12T04:34:24Z</time>
      </trkpt>
      <trkpt lat="49.05216" lon="-1.56262">
        <ele>33.7</ele>
        <time>2020-06-12T04:34:25Z</time>
      </trkpt>
      <trkpt lat="49.05218" lon="-1.56264">
        <ele>33.8</ele>
        <time>2020-06-12T04:34:26Z</time>
      </trkpt>
      <trkpt lat="49.05222" lon="-1.56267">
        <ele>34</ele>
        <time>2020-06-12T04:34:27Z</time>
      </trkpt>
      <trkpt lat="49.05223" lon="-1.56268">
        <ele>34</ele>
        <time>2020-06-12T04:34:28Z</time>
      </trkpt>
      <trkpt lat="49.05226" lon="-1.5627">
        <ele>34.2</ele>
        <time>2020-06-12T04:34:29Z</time>
      </trkpt>
      <trkpt lat="49.05228" lon="-1.5627">
        <ele>34.3</ele>
        <time>2020-06-12T04:34:30Z</time>
      </trkpt>
      <trkpt lat="49.05231" lon="-1.56273">
        <ele>34.5</ele>
        <time>2020-06-12T04:34:31Z</time>
      </trkpt>
      <trkpt lat="49.05233" lon="-1.56275">
        <ele>34.6</ele>
        <time>2020-06-12T04:34:32Z</time>
      </trkpt>
      <trkpt lat="49.05236" lon="-1.56278">
        <ele>34.7</ele>
        <time>2020-06-12T04:34:33Z</time>
      </trkpt>
      <trkpt lat="49.05237" lon="-1.56279">
        <ele>34.8</ele>
        <time>2020-06-12T04:34:34Z</time>
      </trkpt>
      <trkpt lat="49.0524" lon="-1.56282">
        <ele>34.9</ele>
        <time>2020-06-12T04:34:35Z</time>
      </trkpt>
      <trkpt lat="49.05241" lon="-1.56283">
        <ele>35</ele>
        <time>2020-06-12T04:34:36Z</time>
      </trkpt>
      <trkpt lat="49.05244" lon="-1.56284">
        <ele>35.2</ele>
        <time>2020-06-12T04:34:37Z</time>
      </trkpt>
      <trkpt lat="49.05249" lon="-1.56286">
        <ele>35.3</ele>
        <time>2020-06-12T04:34:38Z</time>
      </trkpt>
      <trkpt lat="49.0525" lon="-1.56287">
        <ele>35.4</ele>
        <time>2020-06-12T04:34:39Z</time>
      </trkpt>
      <trkpt lat="49.05253" lon="-1.56289">
        <ele>35.5</ele>
        <time>2020-06-12T04:34:40Z</time>
      </trkpt>
      <trkpt lat="49.05256" lon="-1.56293">
        <ele>35.7</ele>
        <time>2020-06-12T04:34:41Z</time>
      </trkpt>
      <trkpt lat="49.05257" lon="-1.56294">
        <ele>35.8</ele>
        <time>2020-06-12T04:34:42Z</time>
      </trkpt>
      <trkpt lat="49.0526" lon="-1.56296">
        <ele>35.9</ele>
        <time>2020-06-12T04:34:43Z</time>
      </trkpt>
      <trkpt lat="49.05262" lon="-1.56296">
        <ele>36</ele>
        <time>2020-06-12T04:34:44Z</time>
      </trkpt>
      <trkpt lat="49.05265" lon="-1.56298">
        <ele>36.1</ele>
        <time>2020-06-12T04:34:45Z</time>
      </trkpt>
      <trkpt lat="49.05266" lon="-1.56299">
        <ele>36.2</ele>
        <time>2020-06-12T04:34:46Z</time>
      </trkpt>
      <trkpt lat="49.05269" lon="-1.56302">
        <ele>36.3</ele>
        <time>2020-06-12T04:34:47Z</time>
      </trkpt>
      <trkpt lat="49.0527" lon="-1.56303">
        <ele>36.4</ele>
        <time>2020-06-12T04:34:48Z</time>
      </trkpt>
      <trkpt lat="49.05272" lon="-1.56305">
        <ele>36.5</ele>
        <time>2020-06-12T04:34:49Z</time>
      </trkpt>
      <trkpt lat="49.05274" lon="-1.56308">
        <ele>36.6</ele>
        <time>2020-06-12T04:34:50Z</time>
      </trkpt>
      <trkpt lat="49.05277" lon="-1.5631">
        <ele>36.7</ele>
        <time>2020-06-12T04:34:51Z</time>
      </trkpt>
      <trkpt lat="49.05279" lon="-1.56313">
        <ele>36.8</ele>
        <time>2020-06-12T04:34:52Z</time>
      </trkpt>
      <trkpt lat="49.05282" lon="-1.56314">
        <ele>36.9</ele>
        <time>2020-06-12T04:34:53Z</time>
      </trkpt>
      <trkpt lat="49.05285" lon="-1.56317">
        <ele>37.1</ele>
        <time>2020-06-12T04:34:54Z</time>
      </trkpt>
      <trkpt lat="49.05286" lon="-1.56319">
        <ele>37.2</ele>
        <time>2020-06-12T04:34:55Z</time>
      </trkpt>
      <trkpt lat="49.0529" lon="-1.56321">
        <ele>37.3</ele>
        <time>2020-06-12T04:34:56Z</time>
      </trkpt>
      <trkpt lat="49.05291" lon="-1.56322">
        <ele>37.4</ele>
        <time>2020-06-12T04:34:57Z</time>
      </trkpt>
      <trkpt lat="49.05293" lon="-1.56325">
        <ele>37.5</ele>
        <time>2020-06-12T04:34:58Z</time>
      </trkpt>
      <trkpt lat="49.05296" lon="-1.56327">
        <ele>37.6</ele>
        <time>2020-06-12T04:34:59Z</time>
      </trkpt>
      <trkpt lat="49.05299" lon="-1.56329">
        <ele>37.7</ele>
        <time>2020-06-12T04:35:00Z</time>
      </trkpt>
      <trkpt lat="49.05302" lon="-1.56331">
        <ele>37.8</ele>
        <time>2020-06-12T04:35:01Z</time>
      </trkpt>
      <trkpt lat="49.05306" lon="-1.56334">
        <ele>38</ele>
        <time>2020-06-12T04:35:02Z</time>
      </trkpt>
      <trkpt lat="49.05307" lon="-1.56336">
        <ele>38.1</ele>
        <time>2020-06-12T04:35:03Z</time>
      </trkpt>
      <trkpt lat="49.0531" lon="-1.56338">
        <ele>38.2</ele>
        <time>2020-06-12T04:35:04Z</time>
      </trkpt>
      <trkpt lat="49.05313" lon="-1.56341">
        <ele>38.3</ele>
        <time>2020-06-12T04:35:05Z</time>
      </trkpt>
      <trkpt lat="49.05314" lon="-1.56342">
        <ele>38.4</ele>
        <time>2020-06-12T04:35:06Z</time>
      </trkpt>
      <trkpt lat="49.05317" lon="-1.56344">
        <ele>38.5</ele>
        <time>2020-06-12T04:35:07Z</time>
      </trkpt>
      <trkpt lat="49.0532" lon="-1.56347">
        <ele>38.6</ele>
        <time>2020-06-12T04:35:08Z</time>
      </trkpt>
      <trkpt lat="49.05321" lon="-1.56347">
        <ele>38.6</ele>
        <time>2020-06-12T04:35:09Z</time>
      </trkpt>
      <trkpt lat="49.05324" lon="-1.5635">
        <ele>38.8</ele>
        <time>2020-06-12T04:35:10Z</time>
      </trkpt>
      <trkpt lat="49.05326" lon="-1.56351">
        <ele>38.8</ele>
        <time>2020-06-12T04:35:11Z</time>
      </trkpt>
      <trkpt lat="49.05329" lon="-1.56355">
        <ele>39</ele>
        <time>2020-06-12T04:35:12Z</time>
      </trkpt>
      <trkpt lat="49.0533" lon="-1.56356">
        <ele>39</ele>
        <time>2020-06-12T04:35:13Z</time>
      </trkpt>
      <trkpt lat="49.05333" lon="-1.56358">
        <ele>39.1</ele>
        <time>2020-06-12T04:35:14Z</time>
      </trkpt>
      <trkpt lat="49.05336" lon="-1.5636">
        <ele>39.3</ele>
        <time>2020-06-12T04:35:15Z</time>
      </trkpt>
      <trkpt lat="49.05339" lon="-1.56363">
        <ele>39.4</ele>
        <time>2020-06-12T04:35:16Z</time>
      </trkpt>
      <trkpt lat="49.05341" lon="-1.56365">
        <ele>39.5</ele>
        <time>2020-06-12T04:35:17Z</time>
      </trkpt>
      <trkpt lat="49.05344" lon="-1.56368">
        <ele>39.6</ele>
        <time>2020-06-12T04:35:18Z</time>
      </trkpt>
      <trkpt lat="49.05347" lon="-1.5637">
        <ele>39.8</ele>
        <time>2020-06-12T04:35:19Z</time>
      </trkpt>
      <trkpt lat="49.05349" lon="-1.56371">
        <ele>39.8</ele>
        <time>2020-06-12T04:35:20Z</time>
      </trkpt>
      <trkpt lat="49.05352" lon="-1.56374">
        <ele>39.9</ele>
        <time>2020-06-12T04:35:21Z</time>
      </trkpt>
      <trkpt lat="49.05355" lon="-1.56375">
        <ele>40</ele>
        <time>2020-06-12T04:35:22Z</time>
      </trkpt>
      <trkpt lat="49.05358" lon="-1.56377">
        <ele>40.1</ele>
        <time>2020-06-12T04:35:23Z</time>
      </trkpt>
      <trkpt lat="49.05361" lon="-1.56379">
        <ele>40.2</ele>
        <time>2020-06-12T04:35:24Z</time>
      </trkpt>
      <trkpt lat="49.05363" lon="-1.56382">
        <ele>40.3</ele>
        <time>2020-06-12T04:35:25Z</time>
      </trkpt>
      <trkpt lat="49.05366" lon="-1.56384">
        <ele>40.4</ele>
        <time>2020-06-12T04:35:26Z</time>
      </trkpt>
      <trkpt lat="49.05369" lon="-1.56386">
        <ele>40.5</ele>
        <time>2020-06-12T04:35:27Z</time>
      </trkpt>
      <trkpt lat="49.05371" lon="-1.56388">
        <ele>40.6</ele>
        <time>2020-06-12T04:35:28Z</time>
      </trkpt>
      <trkpt lat="49.05374" lon="-1.56391">
        <ele>40.6</ele>
        <time>2020-06-12T04:35:29Z</time>
      </trkpt>
      <trkpt lat="49.05378" lon="-1.56393">
        <ele>40.7</ele>
        <time>2020-06-12T04:35:30Z</time>
      </trkpt>
      <trkpt lat="49.05379" lon="-1.56394">
        <ele>40.7</ele>
        <time>2020-06-12T04:35:31Z</time>
      </trkpt>
      <trkpt lat="49.05382" lon="-1.56396">
        <ele>40.8</ele>
        <time>2020-06-12T04:35:32Z</time>
      </trkpt>
      <trkpt lat="49.05386" lon="-1.56399">
        <ele>40.8</ele>
        <time>2020-06-12T04:35:33Z</time>
      </trkpt>
      <trkpt lat="49.05387" lon="-1.56401">
        <ele>40.8</ele>
        <time>2020-06-12T04:35:34Z</time>
      </trkpt>
      <trkpt lat="49.0539" lon="-1.56402">
        <ele>40.9</ele>
        <time>2020-06-12T04:35:35Z</time>
      </trkpt>
      <trkpt lat="49.05393" lon="-1.56405">
        <ele>40.9</ele>
        <time>2020-06-12T04:35:36Z</time>
      </trkpt>
      <trkpt lat="49.05396" lon="-1.56407">
        <ele>40.9</ele>
        <time>2020-06-12T04:35:37Z</time>
      </trkpt>
      <trkpt lat="49.05399" lon="-1.5641">
        <ele>40.9</ele>
        <time>2020-06-12T04:35:38Z</time>
      </trkpt>
      <trkpt lat="49.05402" lon="-1.56413">
        <ele>41</ele>
        <time>2020-06-12T04:35:39Z</time>
      </trkpt>
      <trkpt lat="49.05405" lon="-1.56416">
        <ele>41.1</ele>
        <time>2020-06-12T04:35:40Z</time>
      </trkpt>
      <trkpt lat="49.05408" lon="-1.56418">
        <ele>41.2</ele>
        <time>2020-06-12T04:35:41Z</time>
      </trkpt>
      <trkpt lat="49.0541" lon="-1.56421">
        <ele>41.2</ele>
        <time>2020-06-12T04:35:42Z</time>
      </trkpt>
      <trkpt lat="49.05413" lon="-1.56423">
        <ele>41.3</ele>
        <time>2020-06-12T04:35:43Z</time>
      </trkpt>
      <trkpt lat="49.05416" lon="-1.56426">
        <ele>41.3</ele>
        <time>2020-06-12T04:35:44Z</time>
      </trkpt>
      <trkpt lat="49.0542" lon="-1.56427">
        <ele>41.4</ele>
        <time>2020-06-12T04:35:45Z</time>
      </trkpt>
      <trkpt lat="49.05423" lon="-1.5643">
        <ele>41.5</ele>
        <time>2020-06-12T04:35:46Z</time>
      </trkpt>
      <trkpt lat="49.05425" lon="-1.56433">
        <ele>41.5</ele>
        <time>2020-06-12T04:35:47Z</time>
      </trkpt>
      <trkpt lat="49.05428" lon="-1.56436">
        <ele>41.6</ele>
        <time>2020-06-12T04:35:48Z</time>
      </trkpt>
      <trkpt lat="49.0543" lon="-1.56437">
        <ele>41.7</ele>
        <time>2020-06-12T04:35:49Z</time>
      </trkpt>
      <trkpt lat="49.05432" lon="-1.5644">
        <ele>41.7</ele>
        <time>2020-06-12T04:35:50Z</time>
      </trkpt>
      <trkpt lat="49.05435" lon="-1.56444">
        <ele>41.8</ele>
        <time>2020-06-12T04:35:51Z</time>
      </trkpt>
      <trkpt lat="49.05438" lon="-1.56447">
        <ele>41.9</ele>
        <time>2020-06-12T04:35:52Z</time>
      </trkpt>
      <trkpt lat="49.0544" lon="-1.56449">
        <ele>42</ele>
        <time>2020-06-12T04:35:53Z</time>
      </trkpt>
      <trkpt lat="49.05443" lon="-1.56451">
        <ele>42</ele>
        <time>2020-06-12T04:35:54Z</time>
      </trkpt>
      <trkpt lat="49.05447" lon="-1.56453">
        <ele>42.1</ele>
        <time>2020-06-12T04:35:55Z</time>
      </trkpt>
      <trkpt lat="49.05448" lon="-1.56454">
        <ele>42.2</ele>
        <time>2020-06-12T04:35:56Z</time>
      </trkpt>
      <trkpt lat="49.0545" lon="-1.56456">
        <ele>42.2</ele>
        <time>2020-06-12T04:35:57Z</time>
      </trkpt>
      <trkpt lat="49.05453" lon="-1.56459">
        <ele>42.3</ele>
        <time>2020-06-12T04:35:58Z</time>
      </trkpt>
      <trkpt lat="49.05456" lon="-1.56461">
        <ele>42.4</ele>
        <time>2020-06-12T04:35:59Z</time>
      </trkpt>
      <trkpt lat="49.05459" lon="-1.56463">
        <ele>42.5</ele>
        <time>2020-06-12T04:36:00Z</time>
      </trkpt>
      <trkpt lat="49.05463" lon="-1.56466">
        <ele>42.6</ele>
        <time>2020-06-12T04:36:01Z</time>
      </trkpt>
      <trkpt lat="49.05465" lon="-1.56469">
        <ele>42.7</ele>
        <time>2020-06-12T04:36:02Z</time>
      </trkpt>
      <trkpt lat="49.05468" lon="-1.56471">
        <ele>42.8</ele>
        <time>2020-06-12T04:36:03Z</time>
      </trkpt>
      <trkpt lat="49.05471" lon="-1.56473">
        <ele>42.8</ele>
        <time>2020-06-12T04:36:04Z</time>
      </trkpt>
      <trkpt lat="49.05474" lon="-1.56476">
        <ele>42.9</ele>
        <time>2020-06-12T04:36:05Z</time>
      </trkpt>
      <trkpt lat="49.05477" lon="-1.56478">
        <ele>43</ele>
        <time>2020-06-12T04:36:06Z</time>
      </trkpt>
      <trkpt lat="49.0548" lon="-1.5648">
        <ele>43.1</ele>
        <time>2020-06-12T04:36:07Z</time>
      </trkpt>
      <trkpt lat="49.05482" lon="-1.56482">
        <ele>43.1</ele>
        <time>2020-06-12T04:36:08Z</time>
      </trkpt>
      <trkpt lat="49.05485" lon="-1.56484">
        <ele>43.2</ele>
        <time>2020-06-12T04:36:09Z</time>
      </trkpt>
      <trkpt lat="49.05488" lon="-1.56485">
        <ele>43.3</ele>
        <time>2020-06-12T04:36:10Z</time>
      </trkpt>
      <trkpt lat="49.05491" lon="-1.56488">
        <ele>43.3</ele>
        <time>2020-06-12T04:36:11Z</time>
      </trkpt>
      <trkpt lat="49.05494" lon="-1.56491">
        <ele>43.4</ele>
        <time>2020-06-12T04:36:12Z</time>
      </trkpt>
      <trkpt lat="49.05497" lon="-1.56493">
        <ele>43.5</ele>
        <time>2020-06-12T04:36:13Z</time>
      </trkpt>
      <trkpt lat="49.055" lon="-1.56497">
        <ele>43.5</ele>
        <time>2020-06-12T04:36:14Z</time>
      </trkpt>
      <trkpt lat="49.05503" lon="-1.56498">
        <ele>43.6</ele>
        <time>2020-06-12T04:36:15Z</time>
      </trkpt>
      <trkpt lat="49.05506" lon="-1.565">
        <ele>43.6</ele>
        <time>2020-06-12T04:36:16Z</time>
      </trkpt>
      <trkpt lat="49.05509" lon="-1.56503">
        <ele>43.7</ele>
        <time>2020-06-12T04:36:17Z</time>
      </trkpt>
      <trkpt lat="49.05512" lon="-1.56506">
        <ele>43.8</ele>
        <time>2020-06-12T04:36:18Z</time>
      </trkpt>
      <trkpt lat="49.05515" lon="-1.56508">
        <ele>43.9</ele>
        <time>2020-06-12T04:36:19Z</time>
      </trkpt>
      <trkpt lat="49.05518" lon="-1.56511">
        <ele>43.9</ele>
        <time>2020-06-12T04:36:20Z</time>
      </trkpt>
      <trkpt lat="49.0552" lon="-1.56514">
        <ele>44</ele>
        <time>2020-06-12T04:36:21Z</time>
      </trkpt>
      <trkpt lat="49.05523" lon="-1.56516">
        <ele>44</ele>
        <time>2020-06-12T04:36:22Z</time>
      </trkpt>
      <trkpt lat="49.05526" lon="-1.56518">
        <ele>44.1</ele>
        <time>2020-06-12T04:36:23Z</time>
      </trkpt>
      <trkpt lat="49.05529" lon="-1.56521">
        <ele>44.2</ele>
        <time>2020-06-12T04:36:24Z</time>
      </trkpt>
      <trkpt lat="49.05532" lon="-1.56523">
        <ele>44.2</ele>
        <time>2020-06-12T04:36:25Z</time>
      </trkpt>
      <trkpt lat="49.05534" lon="-1.56525">
        <ele>44.3</ele>
        <time>2020-06-12T04:36:26Z</time>
      </trkpt>
      <trkpt lat="49.05537" lon="-1.56527">
        <ele>44.3</ele>
        <time>2020-06-12T04:36:27Z</time>
      </trkpt>
      <trkpt lat="49.0554" lon="-1.56529">
        <ele>44.4</ele>
        <time>2020-06-12T04:36:28Z</time>
      </trkpt>
      <trkpt lat="49.05543" lon="-1.56532">
        <ele>44.4</ele>
        <time>2020-06-12T04:36:29Z</time>
      </trkpt>
      <trkpt lat="49.05545" lon="-1.56535">
        <ele>44.5</ele>
        <time>2020-06-12T04:36:30Z</time>
      </trkpt>
      <trkpt lat="49.05548" lon="-1.56537">
        <ele>44.5</ele>
        <time>2020-06-12T04:36:31Z</time>
      </trkpt>
      <trkpt lat="49.05551" lon="-1.5654">
        <ele>44.6</ele>
        <time>2020-06-12T04:36:32Z</time>
      </trkpt>
      <trkpt lat="49.05553" lon="-1.56542">
        <ele>44.6</ele>
        <time>2020-06-12T04:36:33Z</time>
      </trkpt>
      <trkpt lat="49.05556" lon="-1.56544">
        <ele>44.7</ele>
        <time>2020-06-12T04:36:34Z</time>
      </trkpt>
      <trkpt lat="49.05558" lon="-1.56547">
        <ele>44.8</ele>
        <time>2020-06-12T04:36:35Z</time>
      </trkpt>
      <trkpt lat="49.05561" lon="-1.56549">
        <ele>44.8</ele>
        <time>2020-06-12T04:36:36Z</time>
      </trkpt>
      <trkpt lat="49.05564" lon="-1.56551">
        <ele>44.9</ele>
        <time>2020-06-12T04:36:37Z</time>
      </trkpt>
      <trkpt lat="49.05567" lon="-1.56553">
        <ele>45</ele>
        <time>2020-06-12T04:36:38Z</time>
      </trkpt>
      <trkpt lat="49.0557" lon="-1.56556">
        <ele>45.1</ele>
        <time>2020-06-12T04:36:39Z</time>
      </trkpt>
      <trkpt lat="49.05573" lon="-1.56559">
        <ele>45.1</ele>
        <time>2020-06-12T04:36:40Z</time>
      </trkpt>
      <trkpt lat="49.05576" lon="-1.56561">
        <ele>45.2</ele>
        <time>2020-06-12T04:36:41Z</time>
      </trkpt>
      <trkpt lat="49.05579" lon="-1.56564">
        <ele>45.2</ele>
        <time>2020-06-12T04:36:42Z</time>
      </trkpt>
      <trkpt lat="49.05583" lon="-1.56566">
        <ele>45.1</ele>
        <time>2020-06-12T04:36:43Z</time>
      </trkpt>
      <trkpt lat="49.05587" lon="-1.56569">
        <ele>45.1</ele>
        <time>2020-06-12T04:36:44Z</time>
      </trkpt>
      <trkpt lat="49.0559" lon="-1.56572">
        <ele>45.1</ele>
        <time>2020-06-12T04:36:45Z</time>
      </trkpt>
      <trkpt lat="49.05593" lon="-1.56575">
        <ele>45.1</ele>
        <time>2020-06-12T04:36:46Z</time>
      </trkpt>
      <trkpt lat="49.05596" lon="-1.56576">
        <ele>45.2</ele>
        <time>2020-06-12T04:36:47Z</time>
      </trkpt>
      <trkpt lat="49.056" lon="-1.56579">
        <ele>45.2</ele>
        <time>2020-06-12T04:36:48Z</time>
      </trkpt>
      <trkpt lat="49.05603" lon="-1.56582">
        <ele>45.2</ele>
        <time>2020-06-12T04:36:49Z</time>
      </trkpt>
      <trkpt lat="49.05606" lon="-1.56585">
        <ele>45.2</ele>
        <time>2020-06-12T04:36:50Z</time>
      </trkpt>
      <trkpt lat="49.05609" lon="-1.56588">
        <ele>45.3</ele>
        <time>2020-06-12T04:36:51Z</time>
      </trkpt>
      <trkpt lat="49.05612" lon="-1.56591">
        <ele>45.3</ele>
        <time>2020-06-12T04:36:52Z</time>
      </trkpt>
      <trkpt lat="49.05615" lon="-1.56593">
        <ele>45.3</ele>
        <time>2020-06-12T04:36:53Z</time>
      </trkpt>
      <trkpt lat="49.05619" lon="-1.56595">
        <ele>45.4</ele>
        <time>2020-06-12T04:36:54Z</time>
      </trkpt>
      <trkpt lat="49.05622" lon="-1.56597">
        <ele>45.4</ele>
        <time>2020-06-12T04:36:55Z</time>
      </trkpt>
      <trkpt lat="49.05625" lon="-1.566">
        <ele>45.4</ele>
        <time>2020-06-12T04:36:56Z</time>
      </trkpt>
      <trkpt lat="49.05629" lon="-1.56603">
        <ele>45.5</ele>
        <time>2020-06-12T04:36:57Z</time>
      </trkpt>
      <trkpt lat="49.05632" lon="-1.56606">
        <ele>45.5</ele>
        <time>2020-06-12T04:36:58Z</time>
      </trkpt>
      <trkpt lat="49.05635" lon="-1.56609">
        <ele>45.6</ele>
        <time>2020-06-12T04:36:59Z</time>
      </trkpt>
      <trkpt lat="49.05638" lon="-1.56611">
        <ele>45.6</ele>
        <time>2020-06-12T04:37:00Z</time>
      </trkpt>
      <trkpt lat="49.05641" lon="-1.56615">
        <ele>45.6</ele>
        <time>2020-06-12T04:37:01Z</time>
      </trkpt>
      <trkpt lat="49.05644" lon="-1.56617">
        <ele>45.6</ele>
        <time>2020-06-12T04:37:02Z</time>
      </trkpt>
      <trkpt lat="49.05647" lon="-1.5662">
        <ele>45.7</ele>
        <time>2020-06-12T04:37:03Z</time>
      </trkpt>
      <trkpt lat="49.0565" lon="-1.56622">
        <ele>45.7</ele>
        <time>2020-06-12T04:37:04Z</time>
      </trkpt>
      <trkpt lat="49.05654" lon="-1.56624">
        <ele>45.7</ele>
        <time>2020-06-12T04:37:05Z</time>
      </trkpt>
      <trkpt lat="49.05657" lon="-1.56627">
        <ele>45.7</ele>
        <time>2020-06-12T04:37:06Z</time>
      </trkpt>
      <trkpt lat="49.0566" lon="-1.5663">
        <ele>45.7</ele>
        <time>2020-06-12T04:37:07Z</time>
      </trkpt>
      <trkpt lat="49.05664" lon="-1.56633">
        <ele>45.8</ele>
        <time>2020-06-12T04:37:08Z</time>
      </trkpt>
      <trkpt lat="49.05667" lon="-1.56635">
        <ele>45.8</ele>
        <time>2020-06-12T04:37:09Z</time>
      </trkpt>
      <trkpt lat="49.05671" lon="-1.56638">
        <ele>45.8</ele>
        <time>2020-06-12T04:37:10Z</time>
      </trkpt>
      <trkpt lat="49.05674" lon="-1.56641">
        <ele>45.8</ele>
        <time>2020-06-12T04:37:11Z</time>
      </trkpt>
      <trkpt lat="49.05677" lon="-1.56644">
        <ele>45.9</ele>
        <time>2020-06-12T04:37:12Z</time>
      </trkpt>
      <trkpt lat="49.05681" lon="-1.56647">
        <ele>45.9</ele>
        <time>2020-06-12T04:37:13Z</time>
      </trkpt>
      <trkpt lat="49.05684" lon="-1.5665">
        <ele>45.9</ele>
        <time>2020-06-12T04:37:14Z</time>
      </trkpt>
      <trkpt lat="49.05688" lon="-1.56653">
        <ele>46</ele>
        <time>2020-06-12T04:37:15Z</time>
      </trkpt>
      <trkpt lat="49.05691" lon="-1.56656">
        <ele>46</ele>
        <time>2020-06-12T04:37:16Z</time>
      </trkpt>
      <trkpt lat="49.05695" lon="-1.56659">
        <ele>46</ele>
        <time>2020-06-12T04:37:17Z</time>
      </trkpt>
      <trkpt lat="49.05698" lon="-1.56663">
        <ele>46.1</ele>
        <time>2020-06-12T04:37:18Z</time>
      </trkpt>
      <trkpt lat="49.05702" lon="-1.56666">
        <ele>46.1</ele>
        <time>2020-06-12T04:37:19Z</time>
      </trkpt>
      <trkpt lat="49.05705" lon="-1.56669">
        <ele>46.1</ele>
        <time>2020-06-12T04:37:20Z</time>
      </trkpt>
      <trkpt lat="49.05709" lon="-1.56672">
        <ele>46.2</ele>
        <time>2020-06-12T04:37:21Z</time>
      </trkpt>
      <trkpt lat="49.05713" lon="-1.56674">
        <ele>46.2</ele>
        <time>2020-06-12T04:37:22Z</time>
      </trkpt>
      <trkpt lat="49.05716" lon="-1.56677">
        <ele>46.2</ele>
        <time>2020-06-12T04:37:23Z</time>
      </trkpt>
      <trkpt lat="49.0572" lon="-1.56679">
        <ele>46.3</ele>
        <time>2020-06-12T04:37:24Z</time>
      </trkpt>
      <trkpt lat="49.05723" lon="-1.56683">
        <ele>46.3</ele>
        <time>2020-06-12T04:37:25Z</time>
      </trkpt>
      <trkpt lat="49.05727" lon="-1.56685">
        <ele>46.3</ele>
        <time>2020-06-12T04:37:26Z</time>
      </trkpt>
      <trkpt lat="49.0573" lon="-1.56687">
        <ele>46.4</ele>
        <time>2020-06-12T04:37:27Z</time>
      </trkpt>
      <trkpt lat="49.05733" lon="-1.5669">
        <ele>46.4</ele>
        <time>2020-06-12T04:37:28Z</time>
      </trkpt>
      <trkpt lat="49.05737" lon="-1.56693">
        <ele>46.4</ele>
        <time>2020-06-12T04:37:29Z</time>
      </trkpt>
      <trkpt lat="49.0574" lon="-1.56696">
        <ele>46.4</ele>
        <time>2020-06-12T04:37:30Z</time>
      </trkpt>
      <trkpt lat="49.05743" lon="-1.56699">
        <ele>46.4</ele>
        <time>2020-06-12T04:37:31Z</time>
      </trkpt>
      <trkpt lat="49.05746" lon="-1.56702">
        <ele>46.4</ele>
        <time>2020-06-12T04:37:32Z</time>
      </trkpt>
      <trkpt lat="49.05749" lon="-1.56705">
        <ele>46.4</ele>
        <time>2020-06-12T04:37:33Z</time>
      </trkpt>
      <trkpt lat="49.05753" lon="-1.56707">
        <ele>46.5</ele>
        <time>2020-06-12T04:37:34Z</time>
      </trkpt>
      <trkpt lat="49.05756" lon="-1.5671">
        <ele>46.5</ele>
        <time>2020-06-12T04:37:35Z</time>
      </trkpt>
      <trkpt lat="49.05759" lon="-1.56713">
        <ele>46.5</ele>
        <time>2020-06-12T04:37:36Z</time>
      </trkpt>
      <trkpt lat="49.05762" lon="-1.56716">
        <ele>46.5</ele>
        <time>2020-06-12T04:37:37Z</time>
      </trkpt>
      <trkpt lat="49.05765" lon="-1.56718">
        <ele>46.6</ele>
        <time>2020-06-12T04:37:38Z</time>
      </trkpt>
      <trkpt lat="49.05769" lon="-1.5672">
        <ele>46.6</ele>
        <time>2020-06-12T04:37:39Z</time>
      </trkpt>
      <trkpt lat="49.05772" lon="-1.56723">
        <ele>46.6</ele>
        <time>2020-06-12T04:37:40Z</time>
      </trkpt>
      <trkpt lat="49.05776" lon="-1.56726">
        <ele>46.7</ele>
        <time>2020-06-12T04:37:41Z</time>
      </trkpt>
      <trkpt lat="49.05779" lon="-1.5673">
        <ele>46.7</ele>
        <time>2020-06-12T04:37:42Z</time>
      </trkpt>
      <trkpt lat="49.05783" lon="-1.56733">
        <ele>46.7</ele>
        <time>2020-06-12T04:37:43Z</time>
      </trkpt>
      <trkpt lat="49.05786" lon="-1.56735">
        <ele>46.7</ele>
        <time>2020-06-12T04:37:44Z</time>
      </trkpt>
      <trkpt lat="49.0579" lon="-1.56738">
        <ele>46.8</ele>
        <time>2020-06-12T04:37:45Z</time>
      </trkpt>
      <trkpt lat="49.05793" lon="-1.5674">
        <ele>46.8</ele>
        <time>2020-06-12T04:37:46Z</time>
      </trkpt>
      <trkpt lat="49.05797" lon="-1.56743">
        <ele>46.8</ele>
        <time>2020-06-12T04:37:47Z</time>
      </trkpt>
      <trkpt lat="49.058" lon="-1.56745">
        <ele>46.8</ele>
        <time>2020-06-12T04:37:48Z</time>
      </trkpt>
      <trkpt lat="49.05803" lon="-1.56748">
        <ele>46.8</ele>
        <time>2020-06-12T04:37:49Z</time>
      </trkpt>
      <trkpt lat="49.05806" lon="-1.56751">
        <ele>46.9</ele>
        <time>2020-06-12T04:37:50Z</time>
      </trkpt>
      <trkpt lat="49.05809" lon="-1.56754">
        <ele>46.9</ele>
        <time>2020-06-12T04:37:51Z</time>
      </trkpt>
      <trkpt lat="49.05813" lon="-1.56757">
        <ele>46.9</ele>
        <time>2020-06-12T04:37:52Z</time>
      </trkpt>
      <trkpt lat="49.05816" lon="-1.56761">
        <ele>46.9</ele>
        <time>2020-06-12T04:37:53Z</time>
      </trkpt>
      <trkpt lat="49.05819" lon="-1.56764">
        <ele>47</ele>
        <time>2020-06-12T04:37:54Z</time>
      </trkpt>
      <trkpt lat="49.05822" lon="-1.56767">
        <ele>47</ele>
        <time>2020-06-12T04:37:55Z</time>
      </trkpt>
      <trkpt lat="49.05825" lon="-1.5677">
        <ele>47</ele>
        <time>2020-06-12T04:37:56Z</time>
      </trkpt>
      <trkpt lat="49.05827" lon="-1.56772">
        <ele>47</ele>
        <time>2020-06-12T04:37:57Z</time>
      </trkpt>
      <trkpt lat="49.05831" lon="-1.56774">
        <ele>47</ele>
        <time>2020-06-12T04:37:58Z</time>
      </trkpt>
      <trkpt lat="49.05834" lon="-1.56776">
        <ele>47</ele>
        <time>2020-06-12T04:37:59Z</time>
      </trkpt>
      <trkpt lat="49.05836" lon="-1.56779">
        <ele>47.1</ele>
        <time>2020-06-12T04:38:00Z</time>
      </trkpt>
      <trkpt lat="49.05839" lon="-1.5678">
        <ele>47.1</ele>
        <time>2020-06-12T04:38:01Z</time>
      </trkpt>
      <trkpt lat="49.05842" lon="-1.56782">
        <ele>47.1</ele>
        <time>2020-06-12T04:38:02Z</time>
      </trkpt>
      <trkpt lat="49.05844" lon="-1.56785">
        <ele>47.1</ele>
        <time>2020-06-12T04:38:03Z</time>
      </trkpt>
      <trkpt lat="49.05847" lon="-1.56789">
        <ele>47</ele>
        <time>2020-06-12T04:38:04Z</time>
      </trkpt>
      <trkpt lat="49.05849" lon="-1.5679">
        <ele>47</ele>
        <time>2020-06-12T04:38:05Z</time>
      </trkpt>
      <trkpt lat="49.05851" lon="-1.56792">
        <ele>47</ele>
        <time>2020-06-12T04:38:06Z</time>
      </trkpt>
      <trkpt lat="49.05855" lon="-1.56794">
        <ele>46.9</ele>
        <time>2020-06-12T04:38:07Z</time>
      </trkpt>
      <trkpt lat="49.05856" lon="-1.56794">
        <ele>46.9</ele>
        <time>2020-06-12T04:38:08Z</time>
      </trkpt>
      <trkpt lat="49.05859" lon="-1.56796">
        <ele>46.8</ele>
        <time>2020-06-12T04:38:09Z</time>
      </trkpt>
      <trkpt lat="49.0586" lon="-1.56797">
        <ele>46.8</ele>
        <time>2020-06-12T04:38:10Z</time>
      </trkpt>
      <trkpt lat="49.05861" lon="-1.56797">
        <ele>46.8</ele>
        <time>2020-06-12T04:38:11Z</time>
      </trkpt>
      <trkpt lat="49.05862" lon="-1.56797">
        <ele>46.8</ele>
        <time>2020-06-12T04:38:12Z</time>
      </trkpt>
      <trkpt lat="49.05863" lon="-1.56797">
        <ele>46.7</ele>
        <time>2020-06-12T04:38:13Z</time>
      </trkpt>
      <trkpt lat="49.05865" lon="-1.56798">
        <ele>46.7</ele>
        <time>2020-06-12T04:38:14Z</time>
      </trkpt>
      <trkpt lat="49.05866" lon="-1.56799">
        <ele>46.7</ele>
        <time>2020-06-12T04:38:15Z</time>
      </trkpt>
      <trkpt lat="49.05867" lon="-1.568">
        <ele>46.7</ele>
        <time>2020-06-12T04:38:16Z</time>
      </trkpt>
      <trkpt lat="49.05869" lon="-1.56801">
        <ele>46.6</ele>
        <time>2020-06-12T04:38:17Z</time>
      </trkpt>
      <trkpt lat="49.0587" lon="-1.56802">
        <ele>46.6</ele>
        <time>2020-06-12T04:38:18Z</time>
      </trkpt>
      <trkpt lat="49.05871" lon="-1.56803">
        <ele>46.6</ele>
        <time>2020-06-12T04:38:19Z</time>
      </trkpt>
      <trkpt lat="49.05873" lon="-1.56804">
        <ele>46.6</ele>
        <time>2020-06-12T04:38:20Z</time>
      </trkpt>
      <trkpt lat="49.05874" lon="-1.56805">
        <ele>46.6</ele>
        <time>2020-06-12T04:38:21Z</time>
      </trkpt>
      <trkpt lat="49.05875" lon="-1.56806">
        <ele>46.5</ele>
        <time>2020-06-12T04:40:37Z</time>
      </trkpt>
      <trkpt lat="49.05877" lon="-1.56807">
        <ele>46.5</ele>
        <time>2020-06-12T04:40:38Z</time>
      </trkpt>
      <trkpt lat="49.05879" lon="-1.5681">
        <ele>46.5</ele>
        <time>2020-06-12T04:40:39Z</time>
      </trkpt>
      <trkpt lat="49.05882" lon="-1.56812">
        <ele>46.4</ele>
        <time>2020-06-12T04:40:40Z</time>
      </trkpt>
      <trkpt lat="49.05886" lon="-1.56814">
        <ele>46.4</ele>
        <time>2020-06-12T04:40:41Z</time>
      </trkpt>
      <trkpt lat="49.05889" lon="-1.56815">
        <ele>46.4</ele>
        <time>2020-06-12T04:40:42Z</time>
      </trkpt>
      <trkpt lat="49.05892" lon="-1.56818">
        <ele>46.4</ele>
        <time>2020-06-12T04:40:43Z</time>
      </trkpt>
      <trkpt lat="49.05896" lon="-1.56821">
        <ele>46.4</ele>
        <time>2020-06-12T04:40:44Z</time>
      </trkpt>
      <trkpt lat="49.059" lon="-1.56823">
        <ele>46.4</ele>
        <time>2020-06-12T04:40:45Z</time>
      </trkpt>
      <trkpt lat="49.05903" lon="-1.56827">
        <ele>46.4</ele>
        <time>2020-06-12T04:40:46Z</time>
      </trkpt>
      <trkpt lat="49.05908" lon="-1.5683">
        <ele>46.4</ele>
        <time>2020-06-12T04:40:47Z</time>
      </trkpt>
      <trkpt lat="49.05911" lon="-1.56834">
        <ele>46.4</ele>
        <time>2020-06-12T04:40:48Z</time>
      </trkpt>
      <trkpt lat="49.05915" lon="-1.56839">
        <ele>46.4</ele>
        <time>2020-06-12T04:40:49Z</time>
      </trkpt>
      <trkpt lat="49.05919" lon="-1.56844">
        <ele>46.4</ele>
        <time>2020-06-12T04:40:50Z</time>
      </trkpt>
      <trkpt lat="49.05923" lon="-1.56848">
        <ele>46.4</ele>
        <time>2020-06-12T04:40:51Z</time>
      </trkpt>
      <trkpt lat="49.05927" lon="-1.56853">
        <ele>46.4</ele>
        <time>2020-06-12T04:40:52Z</time>
      </trkpt>
      <trkpt lat="49.05931" lon="-1.56855">
        <ele>46.4</ele>
        <time>2020-06-12T04:40:53Z</time>
      </trkpt>
      <trkpt lat="49.05935" lon="-1.56858">
        <ele>46.4</ele>
        <time>2020-06-12T04:40:54Z</time>
      </trkpt>
      <trkpt lat="49.05939" lon="-1.56862">
        <ele>46.3</ele>
        <time>2020-06-12T04:40:55Z</time>
      </trkpt>
      <trkpt lat="49.05943" lon="-1.56865">
        <ele>46.3</ele>
        <time>2020-06-12T04:40:56Z</time>
      </trkpt>
      <trkpt lat="49.05947" lon="-1.56869">
        <ele>46.3</ele>
        <time>2020-06-12T04:40:57Z</time>
      </trkpt>
      <trkpt lat="49.0595" lon="-1.56872">
        <ele>46.3</ele>
        <time>2020-06-12T04:40:58Z</time>
      </trkpt>
      <trkpt lat="49.05955" lon="-1.56876">
        <ele>46.3</ele>
        <time>2020-06-12T04:40:59Z</time>
      </trkpt>
      <trkpt lat="49.05959" lon="-1.56879">
        <ele>46.2</ele>
        <time>2020-06-12T04:41:00Z</time>
      </trkpt>
      <trkpt lat="49.05963" lon="-1.56883">
        <ele>46.2</ele>
        <time>2020-06-12T04:41:01Z</time>
      </trkpt>
      <trkpt lat="49.05967" lon="-1.56887">
        <ele>46.2</ele>
        <time>2020-06-12T04:41:02Z</time>
      </trkpt>
      <trkpt lat="49.05971" lon="-1.5689">
        <ele>46.2</ele>
        <time>2020-06-12T04:41:03Z</time>
      </trkpt>
      <trkpt lat="49.05976" lon="-1.56893">
        <ele>46.1</ele>
        <time>2020-06-12T04:41:04Z</time>
      </trkpt>
      <trkpt lat="49.05981" lon="-1.56899">
        <ele>46.1</ele>
        <time>2020-06-12T04:41:05Z</time>
      </trkpt>
      <trkpt lat="49.05985" lon="-1.56902">
        <ele>46.1</ele>
        <time>2020-06-12T04:41:06Z</time>
      </trkpt>
      <trkpt lat="49.05988" lon="-1.56905">
        <ele>46.1</ele>
        <time>2020-06-12T04:41:07Z</time>
      </trkpt>
      <trkpt lat="49.05993" lon="-1.56908">
        <ele>46.1</ele>
        <time>2020-06-12T04:41:08Z</time>
      </trkpt>
      <trkpt lat="49.05997" lon="-1.56911">
        <ele>46.1</ele>
        <time>2020-06-12T04:41:09Z</time>
      </trkpt>
      <trkpt lat="49.06002" lon="-1.56915">
        <ele>46</ele>
        <time>2020-06-12T04:41:10Z</time>
      </trkpt>
      <trkpt lat="49.06007" lon="-1.56918">
        <ele>46</ele>
        <time>2020-06-12T04:41:11Z</time>
      </trkpt>
      <trkpt lat="49.06012" lon="-1.56923">
        <ele>45.9</ele>
        <time>2020-06-12T04:41:12Z</time>
      </trkpt>
      <trkpt lat="49.06017" lon="-1.56927">
        <ele>45.9</ele>
        <time>2020-06-12T04:41:13Z</time>
      </trkpt>
      <trkpt lat="49.06022" lon="-1.56931">
        <ele>45.8</ele>
        <time>2020-06-12T04:41:14Z</time>
      </trkpt>
      <trkpt lat="49.06028" lon="-1.56935">
        <ele>45.8</ele>
        <time>2020-06-12T04:41:15Z</time>
      </trkpt>
      <trkpt lat="49.06032" lon="-1.5694">
        <ele>45.8</ele>
        <time>2020-06-12T04:41:16Z</time>
      </trkpt>
      <trkpt lat="49.06037" lon="-1.56944">
        <ele>45.8</ele>
        <time>2020-06-12T04:41:17Z</time>
      </trkpt>
      <trkpt lat="49.06042" lon="-1.56948">
        <ele>45.8</ele>
        <time>2020-06-12T04:41:18Z</time>
      </trkpt>
      <trkpt lat="49.06047" lon="-1.56952">
        <ele>45.8</ele>
        <time>2020-06-12T04:41:19Z</time>
      </trkpt>
      <trkpt lat="49.06052" lon="-1.56957">
        <ele>45.8</ele>
        <time>2020-06-12T04:41:20Z</time>
      </trkpt>
      <trkpt lat="49.06057" lon="-1.56962">
        <ele>45.8</ele>
        <time>2020-06-12T04:41:21Z</time>
      </trkpt>
      <trkpt lat="49.06062" lon="-1.56966">
        <ele>45.9</ele>
        <time>2020-06-12T04:41:22Z</time>
      </trkpt>
      <trkpt lat="49.06068" lon="-1.56969">
        <ele>45.9</ele>
        <time>2020-06-12T04:41:23Z</time>
      </trkpt>
      <trkpt lat="49.06072" lon="-1.56974">
        <ele>46</ele>
        <time>2020-06-12T04:41:24Z</time>
      </trkpt>
      <trkpt lat="49.06077" lon="-1.56979">
        <ele>46.1</ele>
        <time>2020-06-12T04:41:25Z</time>
      </trkpt>
      <trkpt lat="49.06083" lon="-1.56984">
        <ele>45.9</ele>
        <time>2020-06-12T04:41:26Z</time>
      </trkpt>
      <trkpt lat="49.06088" lon="-1.56989">
        <ele>45.8</ele>
        <time>2020-06-12T04:41:27Z</time>
      </trkpt>
      <trkpt lat="49.06093" lon="-1.56993">
        <ele>45.7</ele>
        <time>2020-06-12T04:41:28Z</time>
      </trkpt>
      <trkpt lat="49.06098" lon="-1.56998">
        <ele>45.6</ele>
        <time>2020-06-12T04:41:29Z</time>
      </trkpt>
      <trkpt lat="49.06103" lon="-1.57001">
        <ele>45.6</ele>
        <time>2020-06-12T04:41:30Z</time>
      </trkpt>
      <trkpt lat="49.06108" lon="-1.57005">
        <ele>45.5</ele>
        <time>2020-06-12T04:41:31Z</time>
      </trkpt>
      <trkpt lat="49.06113" lon="-1.57011">
        <ele>45.4</ele>
        <time>2020-06-12T04:41:32Z</time>
      </trkpt>
      <trkpt lat="49.06118" lon="-1.57015">
        <ele>45.4</ele>
        <time>2020-06-12T04:41:33Z</time>
      </trkpt>
      <trkpt lat="49.06123" lon="-1.57018">
        <ele>45.3</ele>
        <time>2020-06-12T04:41:34Z</time>
      </trkpt>
      <trkpt lat="49.06128" lon="-1.57021">
        <ele>45.3</ele>
        <time>2020-06-12T04:41:35Z</time>
      </trkpt>
      <trkpt lat="49.06133" lon="-1.57024">
        <ele>45.2</ele>
        <time>2020-06-12T04:41:36Z</time>
      </trkpt>
      <trkpt lat="49.06138" lon="-1.5703">
        <ele>45.2</ele>
        <time>2020-06-12T04:41:37Z</time>
      </trkpt>
      <trkpt lat="49.06143" lon="-1.57034">
        <ele>45.1</ele>
        <time>2020-06-12T04:41:38Z</time>
      </trkpt>
      <trkpt lat="49.06149" lon="-1.57039">
        <ele>45</ele>
        <time>2020-06-12T04:41:39Z</time>
      </trkpt>
      <trkpt lat="49.06155" lon="-1.57044">
        <ele>44.9</ele>
        <time>2020-06-12T04:41:40Z</time>
      </trkpt>
      <trkpt lat="49.0616" lon="-1.57049">
        <ele>44.8</ele>
        <time>2020-06-12T04:41:41Z</time>
      </trkpt>
      <trkpt lat="49.06166" lon="-1.57053">
        <ele>44.7</ele>
        <time>2020-06-12T04:41:42Z</time>
      </trkpt>
      <trkpt lat="49.06172" lon="-1.57057">
        <ele>44.6</ele>
        <time>2020-06-12T04:41:43Z</time>
      </trkpt>
      <trkpt lat="49.06179" lon="-1.57063">
        <ele>44.6</ele>
        <time>2020-06-12T04:41:44Z</time>
      </trkpt>
      <trkpt lat="49.06184" lon="-1.57068">
        <ele>44.6</ele>
        <time>2020-06-12T04:41:45Z</time>
      </trkpt>
      <trkpt lat="49.0619" lon="-1.57072">
        <ele>44.5</ele>
        <time>2020-06-12T04:41:46Z</time>
      </trkpt>
      <trkpt lat="49.06195" lon="-1.57077">
        <ele>44.5</ele>
        <time>2020-06-12T04:41:47Z</time>
      </trkpt>
      <trkpt lat="49.06202" lon="-1.57081">
        <ele>44.4</ele>
        <time>2020-06-12T04:41:48Z</time>
      </trkpt>
      <trkpt lat="49.06208" lon="-1.57086">
        <ele>44.2</ele>
        <time>2020-06-12T04:41:49Z</time>
      </trkpt>
      <trkpt lat="49.06214" lon="-1.57092">
        <ele>44.1</ele>
        <time>2020-06-12T04:41:50Z</time>
      </trkpt>
      <trkpt lat="49.0622" lon="-1.57096">
        <ele>44</ele>
        <time>2020-06-12T04:41:51Z</time>
      </trkpt>
      <trkpt lat="49.06226" lon="-1.57101">
        <ele>44</ele>
        <time>2020-06-12T04:41:52Z</time>
      </trkpt>
      <trkpt lat="49.06231" lon="-1.57106">
        <ele>44</ele>
        <time>2020-06-12T04:41:53Z</time>
      </trkpt>
      <trkpt lat="49.06236" lon="-1.5711">
        <ele>43.9</ele>
        <time>2020-06-12T04:41:54Z</time>
      </trkpt>
      <trkpt lat="49.06241" lon="-1.57115">
        <ele>43.9</ele>
        <time>2020-06-12T04:41:55Z</time>
      </trkpt>
      <trkpt lat="49.06246" lon="-1.5712">
        <ele>43.8</ele>
        <time>2020-06-12T04:41:56Z</time>
      </trkpt>
      <trkpt lat="49.0625" lon="-1.57123">
        <ele>43.8</ele>
        <time>2020-06-12T04:41:57Z</time>
      </trkpt>
      <trkpt lat="49.06254" lon="-1.57127">
        <ele>43.7</ele>
        <time>2020-06-12T04:41:58Z</time>
      </trkpt>
      <trkpt lat="49.06259" lon="-1.57131">
        <ele>43.7</ele>
        <time>2020-06-12T04:41:59Z</time>
      </trkpt>
      <trkpt lat="49.06264" lon="-1.57134">
        <ele>43.6</ele>
        <time>2020-06-12T04:42:00Z</time>
      </trkpt>
      <trkpt lat="49.06269" lon="-1.57139">
        <ele>43.5</ele>
        <time>2020-06-12T04:42:01Z</time>
      </trkpt>
      <trkpt lat="49.06274" lon="-1.57143">
        <ele>43.5</ele>
        <time>2020-06-12T04:42:02Z</time>
      </trkpt>
      <trkpt lat="49.06279" lon="-1.57147">
        <ele>43.4</ele>
        <time>2020-06-12T04:42:03Z</time>
      </trkpt>
      <trkpt lat="49.06285" lon="-1.57152">
        <ele>43.4</ele>
        <time>2020-06-12T04:42:04Z</time>
      </trkpt>
      <trkpt lat="49.06292" lon="-1.57157">
        <ele>43.2</ele>
        <time>2020-06-12T04:42:05Z</time>
      </trkpt>
      <trkpt lat="49.06298" lon="-1.57162">
        <ele>43.1</ele>
        <time>2020-06-12T04:42:06Z</time>
      </trkpt>
      <trkpt lat="49.06304" lon="-1.57167">
        <ele>43</ele>
        <time>2020-06-12T04:42:07Z</time>
      </trkpt>
      <trkpt lat="49.06309" lon="-1.57172">
        <ele>42.9</ele>
        <time>2020-06-12T04:42:08Z</time>
      </trkpt>
      <trkpt lat="49.06315" lon="-1.57176">
        <ele>42.9</ele>
        <time>2020-06-12T04:42:09Z</time>
      </trkpt>
      <trkpt lat="49.06321" lon="-1.5718">
        <ele>42.8</ele>
        <time>2020-06-12T04:42:10Z</time>
      </trkpt>
      <trkpt lat="49.06328" lon="-1.57186">
        <ele>42.8</ele>
        <time>2020-06-12T04:42:11Z</time>
      </trkpt>
      <trkpt lat="49.06334" lon="-1.57191">
        <ele>42.7</ele>
        <time>2020-06-12T04:42:12Z</time>
      </trkpt>
      <trkpt lat="49.06339" lon="-1.57195">
        <ele>42.7</ele>
        <time>2020-06-12T04:42:13Z</time>
      </trkpt>
      <trkpt lat="49.06344" lon="-1.572">
        <ele>42.6</ele>
        <time>2020-06-12T04:42:14Z</time>
      </trkpt>
      <trkpt lat="49.0635" lon="-1.57203">
        <ele>42.5</ele>
        <time>2020-06-12T04:42:15Z</time>
      </trkpt>
      <trkpt lat="49.06355" lon="-1.57207">
        <ele>42.5</ele>
        <time>2020-06-12T04:42:16Z</time>
      </trkpt>
      <trkpt lat="49.0636" lon="-1.57212">
        <ele>42.4</ele>
        <time>2020-06-12T04:42:17Z</time>
      </trkpt>
      <trkpt lat="49.06365" lon="-1.57216">
        <ele>42.3</ele>
        <time>2020-06-12T04:42:18Z</time>
      </trkpt>
      <trkpt lat="49.06371" lon="-1.57221">
        <ele>42.2</ele>
        <time>2020-06-12T04:42:19Z</time>
      </trkpt>
      <trkpt lat="49.06375" lon="-1.57226">
        <ele>42.1</ele>
        <time>2020-06-12T04:42:20Z</time>
      </trkpt>
      <trkpt lat="49.06381" lon="-1.57229">
        <ele>42.1</ele>
        <time>2020-06-12T04:42:21Z</time>
      </trkpt>
      <trkpt lat="49.06387" lon="-1.57233">
        <ele>42</ele>
        <time>2020-06-12T04:42:22Z</time>
      </trkpt>
      <trkpt lat="49.06392" lon="-1.57238">
        <ele>42</ele>
        <time>2020-06-12T04:42:23Z</time>
      </trkpt>
      <trkpt lat="49.06396" lon="-1.57242">
        <ele>41.9</ele>
        <time>2020-06-12T04:42:24Z</time>
      </trkpt>
      <trkpt lat="49.06402" lon="-1.57246">
        <ele>41.9</ele>
        <time>2020-06-12T04:42:25Z</time>
      </trkpt>
      <trkpt lat="49.06407" lon="-1.5725">
        <ele>41.9</ele>
        <time>2020-06-12T04:42:26Z</time>
      </trkpt>
      <trkpt lat="49.06412" lon="-1.57255">
        <ele>41.9</ele>
        <time>2020-06-12T04:42:27Z</time>
      </trkpt>
      <trkpt lat="49.06417" lon="-1.5726">
        <ele>41.8</ele>
        <time>2020-06-12T04:42:28Z</time>
      </trkpt>
      <trkpt lat="49.06422" lon="-1.57264">
        <ele>41.8</ele>
        <time>2020-06-12T04:42:29Z</time>
      </trkpt>
      <trkpt lat="49.06427" lon="-1.57268">
        <ele>41.7</ele>
        <time>2020-06-12T04:42:30Z</time>
      </trkpt>
      <trkpt lat="49.06432" lon="-1.57272">
        <ele>41.7</ele>
        <time>2020-06-12T04:42:31Z</time>
      </trkpt>
      <trkpt lat="49.06439" lon="-1.57277">
        <ele>41.6</ele>
        <time>2020-06-12T04:42:32Z</time>
      </trkpt>
      <trkpt lat="49.06443" lon="-1.57282">
        <ele>41.5</ele>
        <time>2020-06-12T04:42:33Z</time>
      </trkpt>
      <trkpt lat="49.06449" lon="-1.57287">
        <ele>41.5</ele>
        <time>2020-06-12T04:42:34Z</time>
      </trkpt>
      <trkpt lat="49.06453" lon="-1.57292">
        <ele>41.4</ele>
        <time>2020-06-12T04:42:35Z</time>
      </trkpt>
      <trkpt lat="49.06457" lon="-1.57296">
        <ele>41.3</ele>
        <time>2020-06-12T04:42:36Z</time>
      </trkpt>
      <trkpt lat="49.06463" lon="-1.573">
        <ele>41.3</ele>
        <time>2020-06-12T04:42:37Z</time>
      </trkpt>
      <trkpt lat="49.06468" lon="-1.57305">
        <ele>41.2</ele>
        <time>2020-06-12T04:42:38Z</time>
      </trkpt>
      <trkpt lat="49.06474" lon="-1.5731">
        <ele>41.2</ele>
        <time>2020-06-12T04:42:39Z</time>
      </trkpt>
      <trkpt lat="49.0648" lon="-1.57313">
        <ele>41.3</ele>
        <time>2020-06-12T04:42:40Z</time>
      </trkpt>
      <trkpt lat="49.06486" lon="-1.57318">
        <ele>41.3</ele>
        <time>2020-06-12T04:42:41Z</time>
      </trkpt>
      <trkpt lat="49.0649" lon="-1.57323">
        <ele>41.3</ele>
        <time>2020-06-12T04:42:42Z</time>
      </trkpt>
      <trkpt lat="49.06496" lon="-1.57326">
        <ele>41.1</ele>
        <time>2020-06-12T04:42:43Z</time>
      </trkpt>
      <trkpt lat="49.065" lon="-1.57331">
        <ele>40.9</ele>
        <time>2020-06-12T04:42:44Z</time>
      </trkpt>
      <trkpt lat="49.06506" lon="-1.57334">
        <ele>40.8</ele>
        <time>2020-06-12T04:42:45Z</time>
      </trkpt>
      <trkpt lat="49.06511" lon="-1.57339">
        <ele>40.7</ele>
        <time>2020-06-12T04:42:46Z</time>
      </trkpt>
      <trkpt lat="49.06515" lon="-1.57343">
        <ele>40.6</ele>
        <time>2020-06-12T04:42:47Z</time>
      </trkpt>
      <trkpt lat="49.0652" lon="-1.57347">
        <ele>40.5</ele>
        <time>2020-06-12T04:42:48Z</time>
      </trkpt>
      <trkpt lat="49.06525" lon="-1.57351">
        <ele>40.4</ele>
        <time>2020-06-12T04:42:49Z</time>
      </trkpt>
      <trkpt lat="49.06531" lon="-1.57355">
        <ele>40.3</ele>
        <time>2020-06-12T04:42:50Z</time>
      </trkpt>
      <trkpt lat="49.06537" lon="-1.57359">
        <ele>40.2</ele>
        <time>2020-06-12T04:42:51Z</time>
      </trkpt>
      <trkpt lat="49.06543" lon="-1.57364">
        <ele>40.1</ele>
        <time>2020-06-12T04:42:52Z</time>
      </trkpt>
      <trkpt lat="49.06548" lon="-1.57368">
        <ele>40</ele>
        <time>2020-06-12T04:42:53Z</time>
      </trkpt>
      <trkpt lat="49.06553" lon="-1.57372">
        <ele>39.9</ele>
        <time>2020-06-12T04:42:54Z</time>
      </trkpt>
      <trkpt lat="49.06557" lon="-1.57376">
        <ele>39.8</ele>
        <time>2020-06-12T04:42:55Z</time>
      </trkpt>
      <trkpt lat="49.06562" lon="-1.5738">
        <ele>39.7</ele>
        <time>2020-06-12T04:42:56Z</time>
      </trkpt>
      <trkpt lat="49.06567" lon="-1.57384">
        <ele>39.6</ele>
        <time>2020-06-12T04:42:57Z</time>
      </trkpt>
      <trkpt lat="49.06572" lon="-1.57388">
        <ele>39.5</ele>
        <time>2020-06-12T04:42:58Z</time>
      </trkpt>
      <trkpt lat="49.06577" lon="-1.57393">
        <ele>39.3</ele>
        <time>2020-06-12T04:42:59Z</time>
      </trkpt>
      <trkpt lat="49.06582" lon="-1.57398">
        <ele>39.2</ele>
        <time>2020-06-12T04:43:00Z</time>
      </trkpt>
      <trkpt lat="49.06587" lon="-1.57404">
        <ele>39.1</ele>
        <time>2020-06-12T04:43:01Z</time>
      </trkpt>
      <trkpt lat="49.06593" lon="-1.57408">
        <ele>39</ele>
        <time>2020-06-12T04:43:02Z</time>
      </trkpt>
      <trkpt lat="49.06598" lon="-1.57413">
        <ele>38.9</ele>
        <time>2020-06-12T04:43:03Z</time>
      </trkpt>
      <trkpt lat="49.06603" lon="-1.57417">
        <ele>38.8</ele>
        <time>2020-06-12T04:43:04Z</time>
      </trkpt>
      <trkpt lat="49.06608" lon="-1.57421">
        <ele>38.7</ele>
        <time>2020-06-12T04:43:05Z</time>
      </trkpt>
      <trkpt lat="49.06613" lon="-1.57426">
        <ele>38.5</ele>
        <time>2020-06-12T04:43:06Z</time>
      </trkpt>
      <trkpt lat="49.06618" lon="-1.5743">
        <ele>38.4</ele>
        <time>2020-06-12T04:43:07Z</time>
      </trkpt>
      <trkpt lat="49.06623" lon="-1.57433">
        <ele>38.3</ele>
        <time>2020-06-12T04:43:08Z</time>
      </trkpt>
      <trkpt lat="49.06628" lon="-1.57437">
        <ele>38.2</ele>
        <time>2020-06-12T04:43:09Z</time>
      </trkpt>
      <trkpt lat="49.06633" lon="-1.57442">
        <ele>38.1</ele>
        <time>2020-06-12T04:43:10Z</time>
      </trkpt>
      <trkpt lat="49.06638" lon="-1.57447">
        <ele>38</ele>
        <time>2020-06-12T04:43:11Z</time>
      </trkpt>
      <trkpt lat="49.06642" lon="-1.57451">
        <ele>37.9</ele>
        <time>2020-06-12T04:43:12Z</time>
      </trkpt>
      <trkpt lat="49.06648" lon="-1.57455">
        <ele>37.8</ele>
        <time>2020-06-12T04:43:13Z</time>
      </trkpt>
      <trkpt lat="49.06654" lon="-1.57459">
        <ele>37.7</ele>
        <time>2020-06-12T04:43:14Z</time>
      </trkpt>
      <trkpt lat="49.06661" lon="-1.57463">
        <ele>37.5</ele>
        <time>2020-06-12T04:43:15Z</time>
      </trkpt>
      <trkpt lat="49.06666" lon="-1.57467">
        <ele>37.4</ele>
        <time>2020-06-12T04:43:16Z</time>
      </trkpt>
      <trkpt lat="49.06672" lon="-1.57473">
        <ele>37.3</ele>
        <time>2020-06-12T04:43:17Z</time>
      </trkpt>
      <trkpt lat="49.06677" lon="-1.57477">
        <ele>37.2</ele>
        <time>2020-06-12T04:43:18Z</time>
      </trkpt>
      <trkpt lat="49.06682" lon="-1.57482">
        <ele>37.2</ele>
        <time>2020-06-12T04:43:19Z</time>
      </trkpt>
      <trkpt lat="49.06688" lon="-1.57487">
        <ele>37</ele>
        <time>2020-06-12T04:43:20Z</time>
      </trkpt>
      <trkpt lat="49.06694" lon="-1.57493">
        <ele>36.9</ele>
        <time>2020-06-12T04:43:21Z</time>
      </trkpt>
      <trkpt lat="49.06698" lon="-1.57498">
        <ele>36.8</ele>
        <time>2020-06-12T04:43:22Z</time>
      </trkpt>
      <trkpt lat="49.06704" lon="-1.57502">
        <ele>36.7</ele>
        <time>2020-06-12T04:43:23Z</time>
      </trkpt>
      <trkpt lat="49.06709" lon="-1.57506">
        <ele>36.6</ele>
        <time>2020-06-12T04:43:24Z</time>
      </trkpt>
      <trkpt lat="49.06714" lon="-1.5751">
        <ele>36.5</ele>
        <time>2020-06-12T04:43:25Z</time>
      </trkpt>
      <trkpt lat="49.06719" lon="-1.57515">
        <ele>36.4</ele>
        <time>2020-06-12T04:43:26Z</time>
      </trkpt>
      <trkpt lat="49.06726" lon="-1.57519">
        <ele>36.3</ele>
        <time>2020-06-12T04:43:27Z</time>
      </trkpt>
      <trkpt lat="49.06732" lon="-1.57522">
        <ele>36.2</ele>
        <time>2020-06-12T04:43:28Z</time>
      </trkpt>
      <trkpt lat="49.0674" lon="-1.57525">
        <ele>36.1</ele>
        <time>2020-06-12T04:43:29Z</time>
      </trkpt>
      <trkpt lat="49.06746" lon="-1.57526">
        <ele>36.1</ele>
        <time>2020-06-12T04:43:30Z</time>
      </trkpt>
      <trkpt lat="49.06753" lon="-1.57525">
        <ele>36.1</ele>
        <time>2020-06-12T04:43:31Z</time>
      </trkpt>
      <trkpt lat="49.06758" lon="-1.57526">
        <ele>36.1</ele>
        <time>2020-06-12T04:43:32Z</time>
      </trkpt>
      <trkpt lat="49.06764" lon="-1.5753">
        <ele>36</ele>
        <time>2020-06-12T04:43:33Z</time>
      </trkpt>
      <trkpt lat="49.06768" lon="-1.57535">
        <ele>35.9</ele>
        <time>2020-06-12T04:43:34Z</time>
      </trkpt>
      <trkpt lat="49.06771" lon="-1.57545">
        <ele>35.8</ele>
        <time>2020-06-12T04:43:35Z</time>
      </trkpt>
      <trkpt lat="49.06775" lon="-1.57553">
        <ele>35.6</ele>
        <time>2020-06-12T04:43:36Z</time>
      </trkpt>
      <trkpt lat="49.0678" lon="-1.57559">
        <ele>35.5</ele>
        <time>2020-06-12T04:43:37Z</time>
      </trkpt>
      <trkpt lat="49.06784" lon="-1.57565">
        <ele>35.3</ele>
        <time>2020-06-12T04:43:38Z</time>
      </trkpt>
      <trkpt lat="49.06789" lon="-1.57569">
        <ele>35.2</ele>
        <time>2020-06-12T04:43:39Z</time>
      </trkpt>
      <trkpt lat="49.06795" lon="-1.57573">
        <ele>35</ele>
        <time>2020-06-12T04:43:40Z</time>
      </trkpt>
      <trkpt lat="49.068" lon="-1.57577">
        <ele>34.9</ele>
        <time>2020-06-12T04:43:41Z</time>
      </trkpt>
      <trkpt lat="49.06805" lon="-1.5758">
        <ele>34.8</ele>
        <time>2020-06-12T04:43:42Z</time>
      </trkpt>
      <trkpt lat="49.0681" lon="-1.57584">
        <ele>34.6</ele>
        <time>2020-06-12T04:43:43Z</time>
      </trkpt>
      <trkpt lat="49.06814" lon="-1.57589">
        <ele>34.5</ele>
        <time>2020-06-12T04:43:44Z</time>
      </trkpt>
      <trkpt lat="49.0682" lon="-1.57593">
        <ele>34.4</ele>
        <time>2020-06-12T04:43:45Z</time>
      </trkpt>
      <trkpt lat="49.06825" lon="-1.57597">
        <ele>34.3</ele>
        <time>2020-06-12T04:43:46Z</time>
      </trkpt>
      <trkpt lat="49.06829" lon="-1.57601">
        <ele>34.2</ele>
        <time>2020-06-12T04:43:47Z</time>
      </trkpt>
      <trkpt lat="49.06834" lon="-1.57605">
        <ele>34.1</ele>
        <time>2020-06-12T04:43:48Z</time>
      </trkpt>
      <trkpt lat="49.06839" lon="-1.57609">
        <ele>34</ele>
        <time>2020-06-12T04:43:49Z</time>
      </trkpt>
      <trkpt lat="49.06844" lon="-1.57613">
        <ele>33.8</ele>
        <time>2020-06-12T04:43:50Z</time>
      </trkpt>
      <trkpt lat="49.06849" lon="-1.57618">
        <ele>33.7</ele>
        <time>2020-06-12T04:43:51Z</time>
      </trkpt>
      <trkpt lat="49.06854" lon="-1.57623">
        <ele>33.6</ele>
        <time>2020-06-12T04:43:52Z</time>
      </trkpt>
      <trkpt lat="49.06859" lon="-1.57628">
        <ele>33.4</ele>
        <time>2020-06-12T04:43:53Z</time>
      </trkpt>
      <trkpt lat="49.06864" lon="-1.57634">
        <ele>33.3</ele>
        <time>2020-06-12T04:43:54Z</time>
      </trkpt>
      <trkpt lat="49.06869" lon="-1.5764">
        <ele>33.1</ele>
        <time>2020-06-12T04:43:55Z</time>
      </trkpt>
      <trkpt lat="49.06875" lon="-1.57646">
        <ele>33</ele>
        <time>2020-06-12T04:43:56Z</time>
      </trkpt>
      <trkpt lat="49.0688" lon="-1.57651">
        <ele>32.9</ele>
        <time>2020-06-12T04:43:57Z</time>
      </trkpt>
      <trkpt lat="49.06886" lon="-1.57658">
        <ele>32.7</ele>
        <time>2020-06-12T04:43:58Z</time>
      </trkpt>
      <trkpt lat="49.06891" lon="-1.57662">
        <ele>32.6</ele>
        <time>2020-06-12T04:43:59Z</time>
      </trkpt>
      <trkpt lat="49.06898" lon="-1.57668">
        <ele>32.5</ele>
        <time>2020-06-12T04:44:00Z</time>
      </trkpt>
      <trkpt lat="49.06903" lon="-1.57673">
        <ele>32.4</ele>
        <time>2020-06-12T04:44:01Z</time>
      </trkpt>
      <trkpt lat="49.06909" lon="-1.5768">
        <ele>32.2</ele>
        <time>2020-06-12T04:44:02Z</time>
      </trkpt>
      <trkpt lat="49.06914" lon="-1.57689">
        <ele>32</ele>
        <time>2020-06-12T04:44:03Z</time>
      </trkpt>
      <trkpt lat="49.06919" lon="-1.57695">
        <ele>31.8</ele>
        <time>2020-06-12T04:44:04Z</time>
      </trkpt>
      <trkpt lat="49.06924" lon="-1.57701">
        <ele>31.6</ele>
        <time>2020-06-12T04:44:05Z</time>
      </trkpt>
      <trkpt lat="49.06928" lon="-1.57708">
        <ele>31.5</ele>
        <time>2020-06-12T04:44:06Z</time>
      </trkpt>
      <trkpt lat="49.06933" lon="-1.57715">
        <ele>31.3</ele>
        <time>2020-06-12T04:44:07Z</time>
      </trkpt>
      <trkpt lat="49.06938" lon="-1.5772">
        <ele>31.1</ele>
        <time>2020-06-12T04:44:08Z</time>
      </trkpt>
      <trkpt lat="49.06943" lon="-1.57726">
        <ele>30.9</ele>
        <time>2020-06-12T04:44:09Z</time>
      </trkpt>
      <trkpt lat="49.06949" lon="-1.57734">
        <ele>30.6</ele>
        <time>2020-06-12T04:44:10Z</time>
      </trkpt>
      <trkpt lat="49.06954" lon="-1.57741">
        <ele>30.3</ele>
        <time>2020-06-12T04:44:11Z</time>
      </trkpt>
      <trkpt lat="49.0696" lon="-1.57749">
        <ele>30</ele>
        <time>2020-06-12T04:44:12Z</time>
      </trkpt>
      <trkpt lat="49.06965" lon="-1.57756">
        <ele>29.7</ele>
        <time>2020-06-12T04:44:13Z</time>
      </trkpt>
      <trkpt lat="49.06971" lon="-1.57764">
        <ele>29.5</ele>
        <time>2020-06-12T04:44:14Z</time>
      </trkpt>
      <trkpt lat="49.06977" lon="-1.57771">
        <ele>29.2</ele>
        <time>2020-06-12T04:44:15Z</time>
      </trkpt>
      <trkpt lat="49.06983" lon="-1.57778">
        <ele>28.9</ele>
        <time>2020-06-12T04:44:16Z</time>
      </trkpt>
      <trkpt lat="49.06989" lon="-1.57786">
        <ele>28.6</ele>
        <time>2020-06-12T04:44:17Z</time>
      </trkpt>
      <trkpt lat="49.06995" lon="-1.57794">
        <ele>28.4</ele>
        <time>2020-06-12T04:44:18Z</time>
      </trkpt>
      <trkpt lat="49.07001" lon="-1.57802">
        <ele>28.1</ele>
        <time>2020-06-12T04:44:19Z</time>
      </trkpt>
      <trkpt lat="49.07007" lon="-1.57809">
        <ele>27.9</ele>
        <time>2020-06-12T04:44:20Z</time>
      </trkpt>
      <trkpt lat="49.07013" lon="-1.57817">
        <ele>27.5</ele>
        <time>2020-06-12T04:44:21Z</time>
      </trkpt>
      <trkpt lat="49.07019" lon="-1.57826">
        <ele>27.2</ele>
        <time>2020-06-12T04:44:22Z</time>
      </trkpt>
      <trkpt lat="49.07026" lon="-1.57833">
        <ele>26.8</ele>
        <time>2020-06-12T04:44:23Z</time>
      </trkpt>
      <trkpt lat="49.07031" lon="-1.57841">
        <ele>26.5</ele>
        <time>2020-06-12T04:44:24Z</time>
      </trkpt>
      <trkpt lat="49.07037" lon="-1.57849">
        <ele>26.1</ele>
        <time>2020-06-12T04:44:25Z</time>
      </trkpt>
      <trkpt lat="49.07043" lon="-1.57858">
        <ele>25.7</ele>
        <time>2020-06-12T04:44:26Z</time>
      </trkpt>
      <trkpt lat="49.07049" lon="-1.57867">
        <ele>25.3</ele>
        <time>2020-06-12T04:44:27Z</time>
      </trkpt>
      <trkpt lat="49.07055" lon="-1.57875">
        <ele>24.9</ele>
        <time>2020-06-12T04:44:28Z</time>
      </trkpt>
      <trkpt lat="49.07062" lon="-1.57884">
        <ele>24.5</ele>
        <time>2020-06-12T04:44:29Z</time>
      </trkpt>
      <trkpt lat="49.07069" lon="-1.57892">
        <ele>24</ele>
        <time>2020-06-12T04:44:30Z</time>
      </trkpt>
      <trkpt lat="49.07076" lon="-1.57901">
        <ele>23.5</ele>
        <time>2020-06-12T04:44:31Z</time>
      </trkpt>
      <trkpt lat="49.07084" lon="-1.57911">
        <ele>22.9</ele>
        <time>2020-06-12T04:44:32Z</time>
      </trkpt>
      <trkpt lat="49.07092" lon="-1.5792">
        <ele>22.3</ele>
        <time>2020-06-12T04:44:33Z</time>
      </trkpt>
      <trkpt lat="49.07099" lon="-1.5793">
        <ele>21.8</ele>
        <time>2020-06-12T04:44:34Z</time>
      </trkpt>
      <trkpt lat="49.07106" lon="-1.57939">
        <ele>21.2</ele>
        <time>2020-06-12T04:44:35Z</time>
      </trkpt>
      <trkpt lat="49.07113" lon="-1.57949">
        <ele>20.7</ele>
        <time>2020-06-12T04:44:36Z</time>
      </trkpt>
      <trkpt lat="49.0712" lon="-1.57959">
        <ele>20.2</ele>
        <time>2020-06-12T04:44:37Z</time>
      </trkpt>
      <trkpt lat="49.07128" lon="-1.57969">
        <ele>19.5</ele>
        <time>2020-06-12T04:44:38Z</time>
      </trkpt>
      <trkpt lat="49.07135" lon="-1.57979">
        <ele>18.5</ele>
        <time>2020-06-12T04:44:39Z</time>
      </trkpt>
      <trkpt lat="49.07143" lon="-1.57988">
        <ele>18.1</ele>
        <time>2020-06-12T04:44:40Z</time>
      </trkpt>
      <trkpt lat="49.0715" lon="-1.57998">
        <ele>17.6</ele>
        <time>2020-06-12T04:44:41Z</time>
      </trkpt>
      <trkpt lat="49.07158" lon="-1.58007">
        <ele>16.9</ele>
        <time>2020-06-12T04:44:42Z</time>
      </trkpt>
      <trkpt lat="49.07166" lon="-1.58017">
        <ele>16.4</ele>
        <time>2020-06-12T04:44:43Z</time>
      </trkpt>
      <trkpt lat="49.07174" lon="-1.58028">
        <ele>15.9</ele>
        <time>2020-06-12T04:44:44Z</time>
      </trkpt>
      <trkpt lat="49.07181" lon="-1.58038">
        <ele>15.4</ele>
        <time>2020-06-12T04:44:45Z</time>
      </trkpt>
      <trkpt lat="49.07189" lon="-1.58048">
        <ele>15</ele>
        <time>2020-06-12T04:44:46Z</time>
      </trkpt>
      <trkpt lat="49.07197" lon="-1.58058">
        <ele>14.7</ele>
        <time>2020-06-12T04:44:47Z</time>
      </trkpt>
      <trkpt lat="49.07205" lon="-1.58067">
        <ele>14.3</ele>
        <time>2020-06-12T04:44:48Z</time>
      </trkpt>
      <trkpt lat="49.07212" lon="-1.58076">
        <ele>13.9</ele>
        <time>2020-06-12T04:44:49Z</time>
      </trkpt>
      <trkpt lat="49.0722" lon="-1.58086">
        <ele>13.6</ele>
        <time>2020-06-12T04:44:50Z</time>
      </trkpt>
      <trkpt lat="49.07227" lon="-1.58096">
        <ele>13.3</ele>
        <time>2020-06-12T04:44:51Z</time>
      </trkpt>
      <trkpt lat="49.07234" lon="-1.58105">
        <ele>13.1</ele>
        <time>2020-06-12T04:44:52Z</time>
      </trkpt>
      <trkpt lat="49.07241" lon="-1.58115">
        <ele>12.8</ele>
        <time>2020-06-12T04:44:53Z</time>
      </trkpt>
      <trkpt lat="49.07248" lon="-1.58124">
        <ele>12.6</ele>
        <time>2020-06-12T04:44:54Z</time>
      </trkpt>
      <trkpt lat="49.07255" lon="-1.58132">
        <ele>12.5</ele>
        <time>2020-06-12T04:44:55Z</time>
      </trkpt>
      <trkpt lat="49.07261" lon="-1.5814">
        <ele>12.5</ele>
        <time>2020-06-12T04:44:56Z</time>
      </trkpt>
      <trkpt lat="49.07268" lon="-1.5815">
        <ele>12.4</ele>
        <time>2020-06-12T04:44:57Z</time>
      </trkpt>
      <trkpt lat="49.07274" lon="-1.58159">
        <ele>12.4</ele>
        <time>2020-06-12T04:44:58Z</time>
      </trkpt>
      <trkpt lat="49.0728" lon="-1.58167">
        <ele>12.4</ele>
        <time>2020-06-12T04:44:59Z</time>
      </trkpt>
      <trkpt lat="49.07287" lon="-1.58176">
        <ele>12.3</ele>
        <time>2020-06-12T04:45:00Z</time>
      </trkpt>
      <trkpt lat="49.07293" lon="-1.58184">
        <ele>12.3</ele>
        <time>2020-06-12T04:45:01Z</time>
      </trkpt>
      <trkpt lat="49.07299" lon="-1.58192">
        <ele>12.3</ele>
        <time>2020-06-12T04:45:02Z</time>
      </trkpt>
      <trkpt lat="49.07306" lon="-1.582">
        <ele>12.3</ele>
        <time>2020-06-12T04:45:03Z</time>
      </trkpt>
      <trkpt lat="49.07312" lon="-1.58208">
        <ele>12.3</ele>
        <time>2020-06-12T04:45:04Z</time>
      </trkpt>
      <trkpt lat="49.07318" lon="-1.58215">
        <ele>12.3</ele>
        <time>2020-06-12T04:45:05Z</time>
      </trkpt>
      <trkpt lat="49.07324" lon="-1.58223">
        <ele>12.4</ele>
        <time>2020-06-12T04:45:06Z</time>
      </trkpt>
      <trkpt lat="49.0733" lon="-1.58231">
        <ele>12.1</ele>
        <time>2020-06-12T04:45:07Z</time>
      </trkpt>
      <trkpt lat="49.07335" lon="-1.58238">
        <ele>12</ele>
        <time>2020-06-12T04:45:08Z</time>
      </trkpt>
      <trkpt lat="49.07341" lon="-1.58245">
        <ele>11.9</ele>
        <time>2020-06-12T04:45:09Z</time>
      </trkpt>
      <trkpt lat="49.07347" lon="-1.58251">
        <ele>11.9</ele>
        <time>2020-06-12T04:45:10Z</time>
      </trkpt>
      <trkpt lat="49.07353" lon="-1.58258">
        <ele>11.9</ele>
        <time>2020-06-12T04:45:11Z</time>
      </trkpt>
      <trkpt lat="49.07358" lon="-1.58264">
        <ele>11.9</ele>
        <time>2020-06-12T04:45:12Z</time>
      </trkpt>
      <trkpt lat="49.07364" lon="-1.58271">
        <ele>11.9</ele>
        <time>2020-06-12T04:45:13Z</time>
      </trkpt>
      <trkpt lat="49.07369" lon="-1.58278">
        <ele>11.9</ele>
        <time>2020-06-12T04:45:14Z</time>
      </trkpt>
      <trkpt lat="49.07374" lon="-1.58285">
        <ele>12</ele>
        <time>2020-06-12T04:45:15Z</time>
      </trkpt>
      <trkpt lat="49.07379" lon="-1.58292">
        <ele>12</ele>
        <time>2020-06-12T04:45:16Z</time>
      </trkpt>
      <trkpt lat="49.07385" lon="-1.58298">
        <ele>12</ele>
        <time>2020-06-12T04:45:17Z</time>
      </trkpt>
      <trkpt lat="49.07391" lon="-1.58303">
        <ele>12</ele>
        <time>2020-06-12T04:45:18Z</time>
      </trkpt>
      <trkpt lat="49.07396" lon="-1.58309">
        <ele>12</ele>
        <time>2020-06-12T04:45:19Z</time>
      </trkpt>
      <trkpt lat="49.07401" lon="-1.58315">
        <ele>12</ele>
        <time>2020-06-12T04:45:20Z</time>
      </trkpt>
      <trkpt lat="49.07406" lon="-1.58319">
        <ele>11.9</ele>
        <time>2020-06-12T04:45:21Z</time>
      </trkpt>
      <trkpt lat="49.07411" lon="-1.58325">
        <ele>11.9</ele>
        <time>2020-06-12T04:45:22Z</time>
      </trkpt>
      <trkpt lat="49.07416" lon="-1.58331">
        <ele>11.8</ele>
        <time>2020-06-12T04:45:23Z</time>
      </trkpt>
      <trkpt lat="49.07422" lon="-1.58336">
        <ele>11.7</ele>
        <time>2020-06-12T04:45:24Z</time>
      </trkpt>
      <trkpt lat="49.07427" lon="-1.58341">
        <ele>11.6</ele>
        <time>2020-06-12T04:45:25Z</time>
      </trkpt>
      <trkpt lat="49.07433" lon="-1.58346">
        <ele>11.6</ele>
        <time>2020-06-12T04:45:26Z</time>
      </trkpt>
      <trkpt lat="49.07438" lon="-1.58353">
        <ele>11.5</ele>
        <time>2020-06-12T04:45:27Z</time>
      </trkpt>
      <trkpt lat="49.07443" lon="-1.58359">
        <ele>11.5</ele>
        <time>2020-06-12T04:45:28Z</time>
      </trkpt>
      <trkpt lat="49.07448" lon="-1.58365">
        <ele>11.5</ele>
        <time>2020-06-12T04:45:29Z</time>
      </trkpt>
      <trkpt lat="49.07454" lon="-1.58372">
        <ele>11.5</ele>
        <time>2020-06-12T04:45:30Z</time>
      </trkpt>
      <trkpt lat="49.07459" lon="-1.58378">
        <ele>11.5</ele>
        <time>2020-06-12T04:45:31Z</time>
      </trkpt>
      <trkpt lat="49.07465" lon="-1.58382">
        <ele>11.5</ele>
        <time>2020-06-12T04:45:32Z</time>
      </trkpt>
      <trkpt lat="49.0747" lon="-1.58387">
        <ele>11.4</ele>
        <time>2020-06-12T04:45:33Z</time>
      </trkpt>
      <trkpt lat="49.07474" lon="-1.58392">
        <ele>11.4</ele>
        <time>2020-06-12T04:45:34Z</time>
      </trkpt>
      <trkpt lat="49.0748" lon="-1.58398">
        <ele>11.4</ele>
        <time>2020-06-12T04:45:35Z</time>
      </trkpt>
      <trkpt lat="49.07486" lon="-1.58402">
        <ele>11.3</ele>
        <time>2020-06-12T04:45:36Z</time>
      </trkpt>
      <trkpt lat="49.07491" lon="-1.58409">
        <ele>11.3</ele>
        <time>2020-06-12T04:45:37Z</time>
      </trkpt>
      <trkpt lat="49.07498" lon="-1.58416">
        <ele>11.3</ele>
        <time>2020-06-12T04:45:38Z</time>
      </trkpt>
      <trkpt lat="49.07503" lon="-1.58421">
        <ele>11.3</ele>
        <time>2020-06-12T04:45:39Z</time>
      </trkpt>
      <trkpt lat="49.07508" lon="-1.58427">
        <ele>11.2</ele>
        <time>2020-06-12T04:45:40Z</time>
      </trkpt>
      <trkpt lat="49.07514" lon="-1.58433">
        <ele>11</ele>
        <time>2020-06-12T04:45:41Z</time>
      </trkpt>
      <trkpt lat="49.07519" lon="-1.58439">
        <ele>10.9</ele>
        <time>2020-06-12T04:45:42Z</time>
      </trkpt>
      <trkpt lat="49.07524" lon="-1.58444">
        <ele>10.8</ele>
        <time>2020-06-12T04:45:43Z</time>
      </trkpt>
      <trkpt lat="49.0753" lon="-1.5845">
        <ele>10.7</ele>
        <time>2020-06-12T04:45:44Z</time>
      </trkpt>
      <trkpt lat="49.07535" lon="-1.58456">
        <ele>10.6</ele>
        <time>2020-06-12T04:45:45Z</time>
      </trkpt>
      <trkpt lat="49.07539" lon="-1.58461">
        <ele>10.6</ele>
        <time>2020-06-12T04:45:46Z</time>
      </trkpt>
      <trkpt lat="49.07544" lon="-1.58466">
        <ele>10.6</ele>
        <time>2020-06-12T04:45:47Z</time>
      </trkpt>
      <trkpt lat="49.0755" lon="-1.58471">
        <ele>10.6</ele>
        <time>2020-06-12T04:45:48Z</time>
      </trkpt>
      <trkpt lat="49.07555" lon="-1.58477">
        <ele>10.6</ele>
        <time>2020-06-12T04:45:49Z</time>
      </trkpt>
      <trkpt lat="49.0756" lon="-1.58482">
        <ele>10.6</ele>
        <time>2020-06-12T04:45:50Z</time>
      </trkpt>
      <trkpt lat="49.07566" lon="-1.58488">
        <ele>10.6</ele>
        <time>2020-06-12T04:45:51Z</time>
      </trkpt>
      <trkpt lat="49.0757" lon="-1.58494">
        <ele>10.6</ele>
        <time>2020-06-12T04:45:52Z</time>
      </trkpt>
      <trkpt lat="49.07575" lon="-1.585">
        <ele>10.5</ele>
        <time>2020-06-12T04:45:53Z</time>
      </trkpt>
      <trkpt lat="49.0758" lon="-1.58505">
        <ele>10.5</ele>
        <time>2020-06-12T04:45:54Z</time>
      </trkpt>
      <trkpt lat="49.07584" lon="-1.5851">
        <ele>10.5</ele>
        <time>2020-06-12T04:45:55Z</time>
      </trkpt>
      <trkpt lat="49.0759" lon="-1.58516">
        <ele>10.5</ele>
        <time>2020-06-12T04:45:56Z</time>
      </trkpt>
      <trkpt lat="49.07596" lon="-1.58522">
        <ele>10.5</ele>
        <time>2020-06-12T04:45:57Z</time>
      </trkpt>
      <trkpt lat="49.07602" lon="-1.58528">
        <ele>10.5</ele>
        <time>2020-06-12T04:45:58Z</time>
      </trkpt>
      <trkpt lat="49.07607" lon="-1.58534">
        <ele>10.5</ele>
        <time>2020-06-12T04:45:59Z</time>
      </trkpt>
      <trkpt lat="49.07611" lon="-1.58539">
        <ele>10.5</ele>
        <time>2020-06-12T04:46:00Z</time>
      </trkpt>
      <trkpt lat="49.07616" lon="-1.58544">
        <ele>10.5</ele>
        <time>2020-06-12T04:46:01Z</time>
      </trkpt>
      <trkpt lat="49.0762" lon="-1.5855">
        <ele>10.5</ele>
        <time>2020-06-12T04:46:02Z</time>
      </trkpt>
      <trkpt lat="49.07625" lon="-1.58554">
        <ele>10.5</ele>
        <time>2020-06-12T04:46:03Z</time>
      </trkpt>
      <trkpt lat="49.0763" lon="-1.58559">
        <ele>10.5</ele>
        <time>2020-06-12T04:46:04Z</time>
      </trkpt>
      <trkpt lat="49.07636" lon="-1.58565">
        <ele>10.5</ele>
        <time>2020-06-12T04:46:05Z</time>
      </trkpt>
      <trkpt lat="49.07641" lon="-1.58572">
        <ele>10.6</ele>
        <time>2020-06-12T04:46:06Z</time>
      </trkpt>
      <trkpt lat="49.07647" lon="-1.58577">
        <ele>10.7</ele>
        <time>2020-06-12T04:46:07Z</time>
      </trkpt>
      <trkpt lat="49.07652" lon="-1.58581">
        <ele>10.5</ele>
        <time>2020-06-12T04:46:08Z</time>
      </trkpt>
      <trkpt lat="49.07657" lon="-1.58586">
        <ele>10.3</ele>
        <time>2020-06-12T04:46:09Z</time>
      </trkpt>
      <trkpt lat="49.07662" lon="-1.58591">
        <ele>10.2</ele>
        <time>2020-06-12T04:46:10Z</time>
      </trkpt>
      <trkpt lat="49.07667" lon="-1.58597">
        <ele>10</ele>
        <time>2020-06-12T04:46:11Z</time>
      </trkpt>
      <trkpt lat="49.07672" lon="-1.58603">
        <ele>9.9</ele>
        <time>2020-06-12T04:46:12Z</time>
      </trkpt>
      <trkpt lat="49.07676" lon="-1.58607">
        <ele>9.8</ele>
        <time>2020-06-12T04:46:13Z</time>
      </trkpt>
      <trkpt lat="49.07681" lon="-1.58612">
        <ele>9.8</ele>
        <time>2020-06-12T04:46:14Z</time>
      </trkpt>
      <trkpt lat="49.07686" lon="-1.58618">
        <ele>9.7</ele>
        <time>2020-06-12T04:46:15Z</time>
      </trkpt>
      <trkpt lat="49.07692" lon="-1.58624">
        <ele>9.6</ele>
        <time>2020-06-12T04:46:16Z</time>
      </trkpt>
      <trkpt lat="49.07697" lon="-1.58629">
        <ele>9.5</ele>
        <time>2020-06-12T04:46:17Z</time>
      </trkpt>
      <trkpt lat="49.07701" lon="-1.58635">
        <ele>9.4</ele>
        <time>2020-06-12T04:46:18Z</time>
      </trkpt>
      <trkpt lat="49.07706" lon="-1.5864">
        <ele>9.4</ele>
        <time>2020-06-12T04:46:19Z</time>
      </trkpt>
      <trkpt lat="49.0771" lon="-1.58645">
        <ele>9.3</ele>
        <time>2020-06-12T04:46:20Z</time>
      </trkpt>
      <trkpt lat="49.07715" lon="-1.58651">
        <ele>9.3</ele>
        <time>2020-06-12T04:46:21Z</time>
      </trkpt>
      <trkpt lat="49.07721" lon="-1.58656">
        <ele>9.3</ele>
        <time>2020-06-12T04:46:22Z</time>
      </trkpt>
      <trkpt lat="49.07725" lon="-1.5866">
        <ele>9.2</ele>
        <time>2020-06-12T04:46:23Z</time>
      </trkpt>
      <trkpt lat="49.07729" lon="-1.58666">
        <ele>9.2</ele>
        <time>2020-06-12T04:46:24Z</time>
      </trkpt>
      <trkpt lat="49.07736" lon="-1.5867">
        <ele>9.2</ele>
        <time>2020-06-12T04:46:25Z</time>
      </trkpt>
      <trkpt lat="49.07741" lon="-1.58676">
        <ele>9.2</ele>
        <time>2020-06-12T04:46:26Z</time>
      </trkpt>
      <trkpt lat="49.07747" lon="-1.58681">
        <ele>9.2</ele>
        <time>2020-06-12T04:46:27Z</time>
      </trkpt>
      <trkpt lat="49.07753" lon="-1.58688">
        <ele>9.1</ele>
        <time>2020-06-12T04:46:28Z</time>
      </trkpt>
      <trkpt lat="49.07758" lon="-1.58693">
        <ele>9.1</ele>
        <time>2020-06-12T04:46:29Z</time>
      </trkpt>
      <trkpt lat="49.07763" lon="-1.58698">
        <ele>9</ele>
        <time>2020-06-12T04:46:30Z</time>
      </trkpt>
      <trkpt lat="49.07769" lon="-1.58703">
        <ele>9</ele>
        <time>2020-06-12T04:46:31Z</time>
      </trkpt>
      <trkpt lat="49.07774" lon="-1.58708">
        <ele>8.9</ele>
        <time>2020-06-12T04:46:32Z</time>
      </trkpt>
      <trkpt lat="49.07779" lon="-1.58712">
        <ele>8.9</ele>
        <time>2020-06-12T04:46:33Z</time>
      </trkpt>
      <trkpt lat="49.07784" lon="-1.58717">
        <ele>8.9</ele>
        <time>2020-06-12T04:46:34Z</time>
      </trkpt>
      <trkpt lat="49.07789" lon="-1.58723">
        <ele>9</ele>
        <time>2020-06-12T04:46:35Z</time>
      </trkpt>
      <trkpt lat="49.07794" lon="-1.58729">
        <ele>9.3</ele>
        <time>2020-06-12T04:46:36Z</time>
      </trkpt>
      <trkpt lat="49.07798" lon="-1.58734">
        <ele>9.1</ele>
        <time>2020-06-12T04:46:37Z</time>
      </trkpt>
      <trkpt lat="49.07803" lon="-1.58739">
        <ele>9</ele>
        <time>2020-06-12T04:46:38Z</time>
      </trkpt>
      <trkpt lat="49.07809" lon="-1.58745">
        <ele>8.9</ele>
        <time>2020-06-12T04:46:39Z</time>
      </trkpt>
      <trkpt lat="49.07814" lon="-1.58751">
        <ele>8.9</ele>
        <time>2020-06-12T04:46:40Z</time>
      </trkpt>
      <trkpt lat="49.07819" lon="-1.58757">
        <ele>8.8</ele>
        <time>2020-06-12T04:46:41Z</time>
      </trkpt>
      <trkpt lat="49.07822" lon="-1.58761">
        <ele>8.8</ele>
        <time>2020-06-12T04:46:42Z</time>
      </trkpt>
      <trkpt lat="49.07826" lon="-1.58766">
        <ele>8.8</ele>
        <time>2020-06-12T04:46:43Z</time>
      </trkpt>
      <trkpt lat="49.0783" lon="-1.5877">
        <ele>8.8</ele>
        <time>2020-06-12T04:46:44Z</time>
      </trkpt>
      <trkpt lat="49.07834" lon="-1.58775">
        <ele>8.7</ele>
        <time>2020-06-12T04:46:45Z</time>
      </trkpt>
      <trkpt lat="49.07839" lon="-1.58779">
        <ele>8.7</ele>
        <time>2020-06-12T04:46:46Z</time>
      </trkpt>
      <trkpt lat="49.07843" lon="-1.58785">
        <ele>8.7</ele>
        <time>2020-06-12T04:46:47Z</time>
      </trkpt>
      <trkpt lat="49.07848" lon="-1.5879">
        <ele>8.7</ele>
        <time>2020-06-12T04:46:48Z</time>
      </trkpt>
      <trkpt lat="49.07852" lon="-1.58795">
        <ele>8.6</ele>
        <time>2020-06-12T04:46:49Z</time>
      </trkpt>
      <trkpt lat="49.07857" lon="-1.588">
        <ele>8.6</ele>
        <time>2020-06-12T04:46:50Z</time>
      </trkpt>
      <trkpt lat="49.07862" lon="-1.58806">
        <ele>8.6</ele>
        <time>2020-06-12T04:46:51Z</time>
      </trkpt>
      <trkpt lat="49.07868" lon="-1.58811">
        <ele>8.5</ele>
        <time>2020-06-12T04:46:52Z</time>
      </trkpt>
      <trkpt lat="49.07872" lon="-1.58816">
        <ele>8.5</ele>
        <time>2020-06-12T04:46:53Z</time>
      </trkpt>
      <trkpt lat="49.07876" lon="-1.58822">
        <ele>8.5</ele>
        <time>2020-06-12T04:46:54Z</time>
      </trkpt>
      <trkpt lat="49.07881" lon="-1.58826">
        <ele>8.4</ele>
        <time>2020-06-12T04:46:55Z</time>
      </trkpt>
      <trkpt lat="49.07886" lon="-1.5883">
        <ele>8.4</ele>
        <time>2020-06-12T04:46:56Z</time>
      </trkpt>
      <trkpt lat="49.07891" lon="-1.58835">
        <ele>8.4</ele>
        <time>2020-06-12T04:46:57Z</time>
      </trkpt>
      <trkpt lat="49.07895" lon="-1.5884">
        <ele>8.3</ele>
        <time>2020-06-12T04:46:58Z</time>
      </trkpt>
      <trkpt lat="49.079" lon="-1.58845">
        <ele>8.3</ele>
        <time>2020-06-12T04:46:59Z</time>
      </trkpt>
      <trkpt lat="49.07905" lon="-1.5885">
        <ele>8.3</ele>
        <time>2020-06-12T04:47:00Z</time>
      </trkpt>
      <trkpt lat="49.07909" lon="-1.58854">
        <ele>8.2</ele>
        <time>2020-06-12T04:47:01Z</time>
      </trkpt>
      <trkpt lat="49.07914" lon="-1.58859">
        <ele>8.2</ele>
        <time>2020-06-12T04:47:02Z</time>
      </trkpt>
      <trkpt lat="49.07918" lon="-1.58864">
        <ele>8.2</ele>
        <time>2020-06-12T04:47:03Z</time>
      </trkpt>
      <trkpt lat="49.07922" lon="-1.58868">
        <ele>8.2</ele>
        <time>2020-06-12T04:47:04Z</time>
      </trkpt>
      <trkpt lat="49.07926" lon="-1.58874">
        <ele>8.1</ele>
        <time>2020-06-12T04:47:05Z</time>
      </trkpt>
      <trkpt lat="49.07931" lon="-1.5888">
        <ele>8.1</ele>
        <time>2020-06-12T04:47:06Z</time>
      </trkpt>
      <trkpt lat="49.07936" lon="-1.58884">
        <ele>8.1</ele>
        <time>2020-06-12T04:47:07Z</time>
      </trkpt>
      <trkpt lat="49.07941" lon="-1.58889">
        <ele>8.1</ele>
        <time>2020-06-12T04:47:08Z</time>
      </trkpt>
      <trkpt lat="49.07946" lon="-1.58894">
        <ele>8.2</ele>
        <time>2020-06-12T04:47:09Z</time>
      </trkpt>
      <trkpt lat="49.07951" lon="-1.58898">
        <ele>8.3</ele>
        <time>2020-06-12T04:47:10Z</time>
      </trkpt>
      <trkpt lat="49.07955" lon="-1.58904">
        <ele>8.4</ele>
        <time>2020-06-12T04:47:11Z</time>
      </trkpt>
      <trkpt lat="49.0796" lon="-1.58911">
        <ele>8.5</ele>
        <time>2020-06-12T04:47:12Z</time>
      </trkpt>
      <trkpt lat="49.07965" lon="-1.58917">
        <ele>8.4</ele>
        <time>2020-06-12T04:47:13Z</time>
      </trkpt>
      <trkpt lat="49.0797" lon="-1.58924">
        <ele>8.3</ele>
        <time>2020-06-12T04:47:14Z</time>
      </trkpt>
      <trkpt lat="49.07974" lon="-1.5893">
        <ele>8.2</ele>
        <time>2020-06-12T04:47:15Z</time>
      </trkpt>
      <trkpt lat="49.07979" lon="-1.58936">
        <ele>8.2</ele>
        <time>2020-06-12T04:47:16Z</time>
      </trkpt>
      <trkpt lat="49.07983" lon="-1.58942">
        <ele>8.1</ele>
        <time>2020-06-12T04:47:17Z</time>
      </trkpt>
      <trkpt lat="49.07988" lon="-1.58948">
        <ele>8.1</ele>
        <time>2020-06-12T04:47:18Z</time>
      </trkpt>
      <trkpt lat="49.07992" lon="-1.58954">
        <ele>8.1</ele>
        <time>2020-06-12T04:47:19Z</time>
      </trkpt>
      <trkpt lat="49.07996" lon="-1.5896">
        <ele>8.1</ele>
        <time>2020-06-12T04:47:20Z</time>
      </trkpt>
      <trkpt lat="49.08001" lon="-1.58967">
        <ele>8.1</ele>
        <time>2020-06-12T04:47:21Z</time>
      </trkpt>
      <trkpt lat="49.08005" lon="-1.58973">
        <ele>8.1</ele>
        <time>2020-06-12T04:47:22Z</time>
      </trkpt>
      <trkpt lat="49.0801" lon="-1.58979">
        <ele>8</ele>
        <time>2020-06-12T04:47:23Z</time>
      </trkpt>
      <trkpt lat="49.08015" lon="-1.58984">
        <ele>8</ele>
        <time>2020-06-12T04:47:24Z</time>
      </trkpt>
      <trkpt lat="49.08019" lon="-1.58991">
        <ele>8</ele>
        <time>2020-06-12T04:47:25Z</time>
      </trkpt>
      <trkpt lat="49.08023" lon="-1.58998">
        <ele>8</ele>
        <time>2020-06-12T04:47:26Z</time>
      </trkpt>
      <trkpt lat="49.08027" lon="-1.59004">
        <ele>8</ele>
        <time>2020-06-12T04:47:27Z</time>
      </trkpt>
      <trkpt lat="49.08032" lon="-1.5901">
        <ele>8</ele>
        <time>2020-06-12T04:47:28Z</time>
      </trkpt>
      <trkpt lat="49.08036" lon="-1.59015">
        <ele>8</ele>
        <time>2020-06-12T04:47:29Z</time>
      </trkpt>
      <trkpt lat="49.08041" lon="-1.5902">
        <ele>8</ele>
        <time>2020-06-12T04:47:30Z</time>
      </trkpt>
      <trkpt lat="49.08045" lon="-1.59026">
        <ele>8</ele>
        <time>2020-06-12T04:47:31Z</time>
      </trkpt>
      <trkpt lat="49.0805" lon="-1.59032">
        <ele>8</ele>
        <time>2020-06-12T04:47:32Z</time>
      </trkpt>
      <trkpt lat="49.08054" lon="-1.59038">
        <ele>8</ele>
        <time>2020-06-12T04:47:33Z</time>
      </trkpt>
      <trkpt lat="49.08058" lon="-1.59044">
        <ele>8</ele>
        <time>2020-06-12T04:47:34Z</time>
      </trkpt>
      <trkpt lat="49.08062" lon="-1.59049">
        <ele>8</ele>
        <time>2020-06-12T04:47:35Z</time>
      </trkpt>
      <trkpt lat="49.08066" lon="-1.59054">
        <ele>8.1</ele>
        <time>2020-06-12T04:47:36Z</time>
      </trkpt>
      <trkpt lat="49.08071" lon="-1.59059">
        <ele>8.1</ele>
        <time>2020-06-12T04:47:37Z</time>
      </trkpt>
      <trkpt lat="49.08076" lon="-1.59063">
        <ele>8.1</ele>
        <time>2020-06-12T04:47:38Z</time>
      </trkpt>
      <trkpt lat="49.0808" lon="-1.59068">
        <ele>8.1</ele>
        <time>2020-06-12T04:47:39Z</time>
      </trkpt>
      <trkpt lat="49.08084" lon="-1.59073">
        <ele>8.1</ele>
        <time>2020-06-12T04:47:40Z</time>
      </trkpt>
      <trkpt lat="49.08088" lon="-1.59079">
        <ele>8.2</ele>
        <time>2020-06-12T04:47:41Z</time>
      </trkpt>
      <trkpt lat="49.08092" lon="-1.59083">
        <ele>8.2</ele>
        <time>2020-06-12T04:47:42Z</time>
      </trkpt>
      <trkpt lat="49.08096" lon="-1.59089">
        <ele>8.2</ele>
        <time>2020-06-12T04:47:43Z</time>
      </trkpt>
      <trkpt lat="49.081" lon="-1.59095">
        <ele>8.3</ele>
        <time>2020-06-12T04:47:44Z</time>
      </trkpt>
      <trkpt lat="49.08104" lon="-1.591">
        <ele>8.4</ele>
        <time>2020-06-12T04:47:45Z</time>
      </trkpt>
      <trkpt lat="49.08108" lon="-1.59105">
        <ele>8.4</ele>
        <time>2020-06-12T04:47:46Z</time>
      </trkpt>
      <trkpt lat="49.08112" lon="-1.59111">
        <ele>8.5</ele>
        <time>2020-06-12T04:47:47Z</time>
      </trkpt>
      <trkpt lat="49.08116" lon="-1.59116">
        <ele>8.5</ele>
        <time>2020-06-12T04:47:48Z</time>
      </trkpt>
      <trkpt lat="49.08119" lon="-1.59121">
        <ele>8.5</ele>
        <time>2020-06-12T04:47:49Z</time>
      </trkpt>
      <trkpt lat="49.08123" lon="-1.59127">
        <ele>8.5</ele>
        <time>2020-06-12T04:47:50Z</time>
      </trkpt>
      <trkpt lat="49.08128" lon="-1.59132">
        <ele>8.6</ele>
        <time>2020-06-12T04:47:51Z</time>
      </trkpt>
      <trkpt lat="49.08132" lon="-1.59138">
        <ele>8.6</ele>
        <time>2020-06-12T04:47:52Z</time>
      </trkpt>
      <trkpt lat="49.08136" lon="-1.59144">
        <ele>8.6</ele>
        <time>2020-06-12T04:47:53Z</time>
      </trkpt>
      <trkpt lat="49.0814" lon="-1.59149">
        <ele>8.6</ele>
        <time>2020-06-12T04:47:54Z</time>
      </trkpt>
      <trkpt lat="49.08145" lon="-1.59154">
        <ele>8.6</ele>
        <time>2020-06-12T04:47:55Z</time>
      </trkpt>
      <trkpt lat="49.08148" lon="-1.5916">
        <ele>8.6</ele>
        <time>2020-06-12T04:47:56Z</time>
      </trkpt>
      <trkpt lat="49.08152" lon="-1.59166">
        <ele>8.6</ele>
        <time>2020-06-12T04:47:57Z</time>
      </trkpt>
      <trkpt lat="49.08155" lon="-1.5917">
        <ele>8.6</ele>
        <time>2020-06-12T04:47:58Z</time>
      </trkpt>
      <trkpt lat="49.08159" lon="-1.59175">
        <ele>8.6</ele>
        <time>2020-06-12T04:47:59Z</time>
      </trkpt>
      <trkpt lat="49.08162" lon="-1.59179">
        <ele>8.6</ele>
        <time>2020-06-12T04:48:00Z</time>
      </trkpt>
      <trkpt lat="49.08166" lon="-1.59184">
        <ele>8.6</ele>
        <time>2020-06-12T04:48:01Z</time>
      </trkpt>
      <trkpt lat="49.08171" lon="-1.5919">
        <ele>8.7</ele>
        <time>2020-06-12T04:48:02Z</time>
      </trkpt>
      <trkpt lat="49.08175" lon="-1.59195">
        <ele>8.7</ele>
        <time>2020-06-12T04:48:03Z</time>
      </trkpt>
      <trkpt lat="49.08179" lon="-1.59202">
        <ele>8.8</ele>
        <time>2020-06-12T04:48:04Z</time>
      </trkpt>
      <trkpt lat="49.08184" lon="-1.59206">
        <ele>8.8</ele>
        <time>2020-06-12T04:48:05Z</time>
      </trkpt>
      <trkpt lat="49.08188" lon="-1.59211">
        <ele>8.8</ele>
        <time>2020-06-12T04:48:06Z</time>
      </trkpt>
      <trkpt lat="49.08192" lon="-1.59217">
        <ele>8.9</ele>
        <time>2020-06-12T04:48:07Z</time>
      </trkpt>
      <trkpt lat="49.08196" lon="-1.59222">
        <ele>8.9</ele>
        <time>2020-06-12T04:48:08Z</time>
      </trkpt>
      <trkpt lat="49.082" lon="-1.59226">
        <ele>8.9</ele>
        <time>2020-06-12T04:48:09Z</time>
      </trkpt>
      <trkpt lat="49.08204" lon="-1.59231">
        <ele>8.9</ele>
        <time>2020-06-12T04:48:10Z</time>
      </trkpt>
      <trkpt lat="49.08208" lon="-1.59237">
        <ele>8.9</ele>
        <time>2020-06-12T04:48:11Z</time>
      </trkpt>
      <trkpt lat="49.08212" lon="-1.59242">
        <ele>8.9</ele>
        <time>2020-06-12T04:48:12Z</time>
      </trkpt>
      <trkpt lat="49.08216" lon="-1.59247">
        <ele>8.9</ele>
        <time>2020-06-12T04:48:13Z</time>
      </trkpt>
      <trkpt lat="49.08219" lon="-1.59252">
        <ele>8.9</ele>
        <time>2020-06-12T04:48:14Z</time>
      </trkpt>
      <trkpt lat="49.08223" lon="-1.59257">
        <ele>8.9</ele>
        <time>2020-06-12T04:48:15Z</time>
      </trkpt>
      <trkpt lat="49.08228" lon="-1.59263">
        <ele>8.9</ele>
        <time>2020-06-12T04:48:16Z</time>
      </trkpt>
      <trkpt lat="49.08232" lon="-1.59268">
        <ele>9</ele>
        <time>2020-06-12T04:48:17Z</time>
      </trkpt>
      <trkpt lat="49.08235" lon="-1.59274">
        <ele>9</ele>
        <time>2020-06-12T04:48:18Z</time>
      </trkpt>
      <trkpt lat="49.0824" lon="-1.5928">
        <ele>9</ele>
        <time>2020-06-12T04:48:19Z</time>
      </trkpt>
      <trkpt lat="49.08244" lon="-1.59286">
        <ele>9</ele>
        <time>2020-06-12T04:48:20Z</time>
      </trkpt>
      <trkpt lat="49.08248" lon="-1.59291">
        <ele>9.1</ele>
        <time>2020-06-12T04:48:21Z</time>
      </trkpt>
      <trkpt lat="49.08252" lon="-1.59296">
        <ele>9.1</ele>
        <time>2020-06-12T04:48:22Z</time>
      </trkpt>
      <trkpt lat="49.08256" lon="-1.59301">
        <ele>9.1</ele>
        <time>2020-06-12T04:48:23Z</time>
      </trkpt>
      <trkpt lat="49.0826" lon="-1.59305">
        <ele>9</ele>
        <time>2020-06-12T04:48:24Z</time>
      </trkpt>
      <trkpt lat="49.08263" lon="-1.59311">
        <ele>9</ele>
        <time>2020-06-12T04:48:25Z</time>
      </trkpt>
      <trkpt lat="49.08267" lon="-1.59316">
        <ele>8.9</ele>
        <time>2020-06-12T04:48:26Z</time>
      </trkpt>
      <trkpt lat="49.08271" lon="-1.59322">
        <ele>8.7</ele>
        <time>2020-06-12T04:48:27Z</time>
      </trkpt>
      <trkpt lat="49.08275" lon="-1.59327">
        <ele>8.5</ele>
        <time>2020-06-12T04:48:28Z</time>
      </trkpt>
      <trkpt lat="49.08279" lon="-1.59332">
        <ele>8.2</ele>
        <time>2020-06-12T04:48:29Z</time>
      </trkpt>
      <trkpt lat="49.08282" lon="-1.59337">
        <ele>8</ele>
        <time>2020-06-12T04:48:30Z</time>
      </trkpt>
      <trkpt lat="49.08286" lon="-1.59341">
        <ele>7.8</ele>
        <time>2020-06-12T04:48:31Z</time>
      </trkpt>
      <trkpt lat="49.0829" lon="-1.59345">
        <ele>7.7</ele>
        <time>2020-06-12T04:48:32Z</time>
      </trkpt>
      <trkpt lat="49.08294" lon="-1.5935">
        <ele>7.6</ele>
        <time>2020-06-12T04:48:33Z</time>
      </trkpt>
      <trkpt lat="49.08298" lon="-1.59356">
        <ele>7.5</ele>
        <time>2020-06-12T04:48:34Z</time>
      </trkpt>
      <trkpt lat="49.08302" lon="-1.59361">
        <ele>7.5</ele>
        <time>2020-06-12T04:48:35Z</time>
      </trkpt>
      <trkpt lat="49.08306" lon="-1.59366">
        <ele>7.4</ele>
        <time>2020-06-12T04:48:36Z</time>
      </trkpt>
      <trkpt lat="49.0831" lon="-1.59371">
        <ele>7.4</ele>
        <time>2020-06-12T04:48:37Z</time>
      </trkpt>
      <trkpt lat="49.08313" lon="-1.59375">
        <ele>7.4</ele>
        <time>2020-06-12T04:48:38Z</time>
      </trkpt>
      <trkpt lat="49.08317" lon="-1.5938">
        <ele>7.4</ele>
        <time>2020-06-12T04:48:39Z</time>
      </trkpt>
      <trkpt lat="49.08321" lon="-1.59385">
        <ele>7.4</ele>
        <time>2020-06-12T04:48:40Z</time>
      </trkpt>
      <trkpt lat="49.08325" lon="-1.5939">
        <ele>7.4</ele>
        <time>2020-06-12T04:48:41Z</time>
      </trkpt>
      <trkpt lat="49.08329" lon="-1.59395">
        <ele>7.3</ele>
        <time>2020-06-12T04:48:42Z</time>
      </trkpt>
      <trkpt lat="49.08333" lon="-1.59401">
        <ele>7.3</ele>
        <time>2020-06-12T04:48:43Z</time>
      </trkpt>
      <trkpt lat="49.08337" lon="-1.59406">
        <ele>7.3</ele>
        <time>2020-06-12T04:48:44Z</time>
      </trkpt>
      <trkpt lat="49.08341" lon="-1.59411">
        <ele>7.3</ele>
        <time>2020-06-12T04:48:45Z</time>
      </trkpt>
      <trkpt lat="49.08345" lon="-1.59416">
        <ele>7.3</ele>
        <time>2020-06-12T04:48:46Z</time>
      </trkpt>
      <trkpt lat="49.08349" lon="-1.59421">
        <ele>7.3</ele>
        <time>2020-06-12T04:48:47Z</time>
      </trkpt>
      <trkpt lat="49.08353" lon="-1.59427">
        <ele>7.3</ele>
        <time>2020-06-12T04:48:48Z</time>
      </trkpt>
      <trkpt lat="49.08356" lon="-1.59431">
        <ele>7.3</ele>
        <time>2020-06-12T04:48:49Z</time>
      </trkpt>
      <trkpt lat="49.0836" lon="-1.59436">
        <ele>7.3</ele>
        <time>2020-06-12T04:48:50Z</time>
      </trkpt>
      <trkpt lat="49.08363" lon="-1.5944">
        <ele>7.3</ele>
        <time>2020-06-12T04:48:51Z</time>
      </trkpt>
      <trkpt lat="49.08367" lon="-1.59446">
        <ele>7.3</ele>
        <time>2020-06-12T04:48:52Z</time>
      </trkpt>
      <trkpt lat="49.0837" lon="-1.59451">
        <ele>7.3</ele>
        <time>2020-06-12T04:48:53Z</time>
      </trkpt>
      <trkpt lat="49.08373" lon="-1.59457">
        <ele>7.3</ele>
        <time>2020-06-12T04:48:54Z</time>
      </trkpt>
      <trkpt lat="49.08377" lon="-1.59463">
        <ele>7.3</ele>
        <time>2020-06-12T04:48:55Z</time>
      </trkpt>
      <trkpt lat="49.08381" lon="-1.59469">
        <ele>7.3</ele>
        <time>2020-06-12T04:48:56Z</time>
      </trkpt>
      <trkpt lat="49.08385" lon="-1.59472">
        <ele>7.3</ele>
        <time>2020-06-12T04:48:57Z</time>
      </trkpt>
      <trkpt lat="49.08389" lon="-1.59478">
        <ele>7.3</ele>
        <time>2020-06-12T04:48:58Z</time>
      </trkpt>
      <trkpt lat="49.08393" lon="-1.59484">
        <ele>7.3</ele>
        <time>2020-06-12T04:48:59Z</time>
      </trkpt>
      <trkpt lat="49.08397" lon="-1.5949">
        <ele>7.3</ele>
        <time>2020-06-12T04:49:00Z</time>
      </trkpt>
      <trkpt lat="49.084" lon="-1.59496">
        <ele>7.3</ele>
        <time>2020-06-12T04:49:01Z</time>
      </trkpt>
      <trkpt lat="49.08404" lon="-1.59501">
        <ele>7.3</ele>
        <time>2020-06-12T04:49:02Z</time>
      </trkpt>
      <trkpt lat="49.08408" lon="-1.59507">
        <ele>7.3</ele>
        <time>2020-06-12T04:49:03Z</time>
      </trkpt>
      <trkpt lat="49.08412" lon="-1.59512">
        <ele>7.3</ele>
        <time>2020-06-12T04:49:04Z</time>
      </trkpt>
      <trkpt lat="49.08416" lon="-1.59518">
        <ele>7.3</ele>
        <time>2020-06-12T04:49:05Z</time>
      </trkpt>
      <trkpt lat="49.08421" lon="-1.59524">
        <ele>7.3</ele>
        <time>2020-06-12T04:49:06Z</time>
      </trkpt>
      <trkpt lat="49.08425" lon="-1.5953">
        <ele>7.4</ele>
        <time>2020-06-12T04:49:07Z</time>
      </trkpt>
      <trkpt lat="49.08429" lon="-1.59536">
        <ele>7.5</ele>
        <time>2020-06-12T04:49:08Z</time>
      </trkpt>
      <trkpt lat="49.08434" lon="-1.59541">
        <ele>7.7</ele>
        <time>2020-06-12T04:49:09Z</time>
      </trkpt>
      <trkpt lat="49.08439" lon="-1.59547">
        <ele>8</ele>
        <time>2020-06-12T04:49:10Z</time>
      </trkpt>
      <trkpt lat="49.08444" lon="-1.59552">
        <ele>7.8</ele>
        <time>2020-06-12T04:49:11Z</time>
      </trkpt>
      <trkpt lat="49.08448" lon="-1.59557">
        <ele>7.7</ele>
        <time>2020-06-12T04:49:12Z</time>
      </trkpt>
      <trkpt lat="49.08452" lon="-1.59563">
        <ele>7.6</ele>
        <time>2020-06-12T04:49:13Z</time>
      </trkpt>
      <trkpt lat="49.08456" lon="-1.59568">
        <ele>7.6</ele>
        <time>2020-06-12T04:49:14Z</time>
      </trkpt>
      <trkpt lat="49.0846" lon="-1.59573">
        <ele>7.6</ele>
        <time>2020-06-12T04:49:15Z</time>
      </trkpt>
      <trkpt lat="49.08464" lon="-1.59579">
        <ele>7.6</ele>
        <time>2020-06-12T04:49:16Z</time>
      </trkpt>
      <trkpt lat="49.08468" lon="-1.59585">
        <ele>7.6</ele>
        <time>2020-06-12T04:49:17Z</time>
      </trkpt>
      <trkpt lat="49.08472" lon="-1.5959">
        <ele>7.6</ele>
        <time>2020-06-12T04:49:18Z</time>
      </trkpt>
      <trkpt lat="49.08475" lon="-1.59595">
        <ele>7.6</ele>
        <time>2020-06-12T04:49:19Z</time>
      </trkpt>
      <trkpt lat="49.08479" lon="-1.596">
        <ele>7.6</ele>
        <time>2020-06-12T04:49:20Z</time>
      </trkpt>
      <trkpt lat="49.08483" lon="-1.59604">
        <ele>7.6</ele>
        <time>2020-06-12T04:49:21Z</time>
      </trkpt>
      <trkpt lat="49.08487" lon="-1.5961">
        <ele>7.6</ele>
        <time>2020-06-12T04:49:22Z</time>
      </trkpt>
      <trkpt lat="49.08491" lon="-1.59614">
        <ele>7.6</ele>
        <time>2020-06-12T04:49:23Z</time>
      </trkpt>
      <trkpt lat="49.08495" lon="-1.59619">
        <ele>7.7</ele>
        <time>2020-06-12T04:49:24Z</time>
      </trkpt>
      <trkpt lat="49.08499" lon="-1.59625">
        <ele>7.7</ele>
        <time>2020-06-12T04:49:25Z</time>
      </trkpt>
      <trkpt lat="49.08503" lon="-1.59629">
        <ele>7.8</ele>
        <time>2020-06-12T04:49:26Z</time>
      </trkpt>
      <trkpt lat="49.08506" lon="-1.59634">
        <ele>7.8</ele>
        <time>2020-06-12T04:49:27Z</time>
      </trkpt>
      <trkpt lat="49.08509" lon="-1.59639">
        <ele>7.8</ele>
        <time>2020-06-12T04:49:28Z</time>
      </trkpt>
      <trkpt lat="49.08512" lon="-1.59643">
        <ele>7.9</ele>
        <time>2020-06-12T04:49:29Z</time>
      </trkpt>
      <trkpt lat="49.08516" lon="-1.59648">
        <ele>7.9</ele>
        <time>2020-06-12T04:49:30Z</time>
      </trkpt>
      <trkpt lat="49.08519" lon="-1.59654">
        <ele>7.9</ele>
        <time>2020-06-12T04:49:31Z</time>
      </trkpt>
      <trkpt lat="49.08523" lon="-1.5966">
        <ele>8</ele>
        <time>2020-06-12T04:49:32Z</time>
      </trkpt>
      <trkpt lat="49.08528" lon="-1.59666">
        <ele>8</ele>
        <time>2020-06-12T04:49:33Z</time>
      </trkpt>
      <trkpt lat="49.08532" lon="-1.59672">
        <ele>8</ele>
        <time>2020-06-12T04:49:34Z</time>
      </trkpt>
      <trkpt lat="49.08536" lon="-1.59678">
        <ele>8</ele>
        <time>2020-06-12T04:49:35Z</time>
      </trkpt>
      <trkpt lat="49.0854" lon="-1.59684">
        <ele>8.1</ele>
        <time>2020-06-12T04:49:36Z</time>
      </trkpt>
      <trkpt lat="49.08545" lon="-1.59689">
        <ele>8.1</ele>
        <time>2020-06-12T04:49:37Z</time>
      </trkpt>
      <trkpt lat="49.0855" lon="-1.59695">
        <ele>8.2</ele>
        <time>2020-06-12T04:49:38Z</time>
      </trkpt>
      <trkpt lat="49.08555" lon="-1.597">
        <ele>8.2</ele>
        <time>2020-06-12T04:49:39Z</time>
      </trkpt>
      <trkpt lat="49.08559" lon="-1.59705">
        <ele>8.3</ele>
        <time>2020-06-12T04:49:40Z</time>
      </trkpt>
      <trkpt lat="49.08563" lon="-1.5971">
        <ele>8.4</ele>
        <time>2020-06-12T04:49:41Z</time>
      </trkpt>
      <trkpt lat="49.08568" lon="-1.59716">
        <ele>8.4</ele>
        <time>2020-06-12T04:49:42Z</time>
      </trkpt>
      <trkpt lat="49.08572" lon="-1.59721">
        <ele>8.3</ele>
        <time>2020-06-12T04:49:43Z</time>
      </trkpt>
      <trkpt lat="49.08576" lon="-1.59725">
        <ele>8.1</ele>
        <time>2020-06-12T04:49:44Z</time>
      </trkpt>
      <trkpt lat="49.0858" lon="-1.59731">
        <ele>7.7</ele>
        <time>2020-06-12T04:49:45Z</time>
      </trkpt>
      <trkpt lat="49.08584" lon="-1.59737">
        <ele>7.5</ele>
        <time>2020-06-12T04:49:46Z</time>
      </trkpt>
      <trkpt lat="49.0859" lon="-1.59742">
        <ele>7.4</ele>
        <time>2020-06-12T04:49:47Z</time>
      </trkpt>
      <trkpt lat="49.08594" lon="-1.59747">
        <ele>7.2</ele>
        <time>2020-06-12T04:49:48Z</time>
      </trkpt>
      <trkpt lat="49.08599" lon="-1.59751">
        <ele>7.2</ele>
        <time>2020-06-12T04:49:49Z</time>
      </trkpt>
      <trkpt lat="49.08603" lon="-1.59756">
        <ele>7.1</ele>
        <time>2020-06-12T04:49:50Z</time>
      </trkpt>
      <trkpt lat="49.08607" lon="-1.59761">
        <ele>7.1</ele>
        <time>2020-06-12T04:49:51Z</time>
      </trkpt>
      <trkpt lat="49.08611" lon="-1.59766">
        <ele>7</ele>
        <time>2020-06-12T04:49:52Z</time>
      </trkpt>
      <trkpt lat="49.08614" lon="-1.59771">
        <ele>7</ele>
        <time>2020-06-12T04:49:53Z</time>
      </trkpt>
      <trkpt lat="49.08618" lon="-1.59776">
        <ele>7</ele>
        <time>2020-06-12T04:49:54Z</time>
      </trkpt>
      <trkpt lat="49.08623" lon="-1.59781">
        <ele>7</ele>
        <time>2020-06-12T04:49:55Z</time>
      </trkpt>
      <trkpt lat="49.08628" lon="-1.59786">
        <ele>6.9</ele>
        <time>2020-06-12T04:49:56Z</time>
      </trkpt>
      <trkpt lat="49.08632" lon="-1.59792">
        <ele>6.9</ele>
        <time>2020-06-12T04:49:57Z</time>
      </trkpt>
      <trkpt lat="49.08638" lon="-1.59797">
        <ele>6.9</ele>
        <time>2020-06-12T04:49:58Z</time>
      </trkpt>
      <trkpt lat="49.08644" lon="-1.59802">
        <ele>6.9</ele>
        <time>2020-06-12T04:49:59Z</time>
      </trkpt>
      <trkpt lat="49.08648" lon="-1.59807">
        <ele>6.9</ele>
        <time>2020-06-12T04:50:00Z</time>
      </trkpt>
      <trkpt lat="49.08653" lon="-1.59811">
        <ele>6.9</ele>
        <time>2020-06-12T04:50:01Z</time>
      </trkpt>
      <trkpt lat="49.08657" lon="-1.59815">
        <ele>6.9</ele>
        <time>2020-06-12T04:50:02Z</time>
      </trkpt>
      <trkpt lat="49.08662" lon="-1.59818">
        <ele>6.9</ele>
        <time>2020-06-12T04:50:03Z</time>
      </trkpt>
      <trkpt lat="49.08667" lon="-1.59822">
        <ele>6.9</ele>
        <time>2020-06-12T04:50:04Z</time>
      </trkpt>
      <trkpt lat="49.08672" lon="-1.59826">
        <ele>6.9</ele>
        <time>2020-06-12T04:50:05Z</time>
      </trkpt>
      <trkpt lat="49.08677" lon="-1.59831">
        <ele>6.9</ele>
        <time>2020-06-12T04:50:06Z</time>
      </trkpt>
      <trkpt lat="49.08681" lon="-1.59834">
        <ele>6.9</ele>
        <time>2020-06-12T04:50:07Z</time>
      </trkpt>
      <trkpt lat="49.08686" lon="-1.59838">
        <ele>6.9</ele>
        <time>2020-06-12T04:50:08Z</time>
      </trkpt>
      <trkpt lat="49.08691" lon="-1.59841">
        <ele>6.9</ele>
        <time>2020-06-12T04:50:09Z</time>
      </trkpt>
      <trkpt lat="49.08696" lon="-1.59847">
        <ele>6.9</ele>
        <time>2020-06-12T04:50:10Z</time>
      </trkpt>
      <trkpt lat="49.08701" lon="-1.59851">
        <ele>6.9</ele>
        <time>2020-06-12T04:50:11Z</time>
      </trkpt>
      <trkpt lat="49.08706" lon="-1.59854">
        <ele>6.9</ele>
        <time>2020-06-12T04:50:12Z</time>
      </trkpt>
      <trkpt lat="49.0871" lon="-1.59858">
        <ele>6.9</ele>
        <time>2020-06-12T04:50:13Z</time>
      </trkpt>
      <trkpt lat="49.08713" lon="-1.59862">
        <ele>7</ele>
        <time>2020-06-12T04:50:14Z</time>
      </trkpt>
      <trkpt lat="49.08716" lon="-1.59864">
        <ele>7</ele>
        <time>2020-06-12T04:50:15Z</time>
      </trkpt>
      <trkpt lat="49.08719" lon="-1.59869">
        <ele>7</ele>
        <time>2020-06-12T04:50:16Z</time>
      </trkpt>
      <trkpt lat="49.08723" lon="-1.59872">
        <ele>7</ele>
        <time>2020-06-12T04:50:17Z</time>
      </trkpt>
      <trkpt lat="49.08726" lon="-1.59877">
        <ele>7.1</ele>
        <time>2020-06-12T04:50:18Z</time>
      </trkpt>
      <trkpt lat="49.0873" lon="-1.59879">
        <ele>7.1</ele>
        <time>2020-06-12T04:50:19Z</time>
      </trkpt>
      <trkpt lat="49.08734" lon="-1.59881">
        <ele>7.1</ele>
        <time>2020-06-12T04:50:20Z</time>
      </trkpt>
      <trkpt lat="49.08738" lon="-1.59883">
        <ele>7.1</ele>
        <time>2020-06-12T04:50:21Z</time>
      </trkpt>
      <trkpt lat="49.08742" lon="-1.59887">
        <ele>7.2</ele>
        <time>2020-06-12T04:50:22Z</time>
      </trkpt>
      <trkpt lat="49.08746" lon="-1.5989">
        <ele>7.3</ele>
        <time>2020-06-12T04:50:23Z</time>
      </trkpt>
      <trkpt lat="49.08751" lon="-1.59893">
        <ele>7.3</ele>
        <time>2020-06-12T04:50:24Z</time>
      </trkpt>
      <trkpt lat="49.08756" lon="-1.59895">
        <ele>7.4</ele>
        <time>2020-06-12T04:50:25Z</time>
      </trkpt>
      <trkpt lat="49.0876" lon="-1.59898">
        <ele>7.6</ele>
        <time>2020-06-12T04:50:26Z</time>
      </trkpt>
      <trkpt lat="49.08764" lon="-1.59901">
        <ele>7.7</ele>
        <time>2020-06-12T04:50:27Z</time>
      </trkpt>
      <trkpt lat="49.08768" lon="-1.59903">
        <ele>7.8</ele>
        <time>2020-06-12T04:50:28Z</time>
      </trkpt>
      <trkpt lat="49.08773" lon="-1.59905">
        <ele>7.8</ele>
        <time>2020-06-12T04:50:29Z</time>
      </trkpt>
      <trkpt lat="49.08777" lon="-1.59906">
        <ele>7.8</ele>
        <time>2020-06-12T04:50:30Z</time>
      </trkpt>
      <trkpt lat="49.08782" lon="-1.5991">
        <ele>7.9</ele>
        <time>2020-06-12T04:50:31Z</time>
      </trkpt>
      <trkpt lat="49.08787" lon="-1.59913">
        <ele>7.9</ele>
        <time>2020-06-12T04:50:32Z</time>
      </trkpt>
      <trkpt lat="49.08791" lon="-1.59915">
        <ele>7.9</ele>
        <time>2020-06-12T04:50:33Z</time>
      </trkpt>
      <trkpt lat="49.08795" lon="-1.59917">
        <ele>7.9</ele>
        <time>2020-06-12T04:50:34Z</time>
      </trkpt>
      <trkpt lat="49.08799" lon="-1.59918">
        <ele>8</ele>
        <time>2020-06-12T04:50:35Z</time>
      </trkpt>
      <trkpt lat="49.08803" lon="-1.5992">
        <ele>8</ele>
        <time>2020-06-12T04:50:36Z</time>
      </trkpt>
      <trkpt lat="49.08807" lon="-1.59921">
        <ele>8.1</ele>
        <time>2020-06-12T04:50:37Z</time>
      </trkpt>
      <trkpt lat="49.0881" lon="-1.59924">
        <ele>8.1</ele>
        <time>2020-06-12T04:50:38Z</time>
      </trkpt>
      <trkpt lat="49.08812" lon="-1.59926">
        <ele>8.2</ele>
        <time>2020-06-12T04:50:39Z</time>
      </trkpt>
      <trkpt lat="49.08815" lon="-1.59928">
        <ele>8.2</ele>
        <time>2020-06-12T04:50:40Z</time>
      </trkpt>
      <trkpt lat="49.08817" lon="-1.59932">
        <ele>8.2</ele>
        <time>2020-06-12T04:50:41Z</time>
      </trkpt>
      <trkpt lat="49.08818" lon="-1.59934">
        <ele>8.2</ele>
        <time>2020-06-12T04:50:42Z</time>
      </trkpt>
      <trkpt lat="49.08818" lon="-1.59939">
        <ele>8.1</ele>
        <time>2020-06-12T04:50:43Z</time>
      </trkpt>
      <trkpt lat="49.08818" lon="-1.5994">
        <ele>8.1</ele>
        <time>2020-06-12T04:50:44Z</time>
      </trkpt>
      <trkpt lat="49.08817" lon="-1.59945">
        <ele>8.1</ele>
        <time>2020-06-12T04:50:45Z</time>
      </trkpt>
      <trkpt lat="49.08815" lon="-1.59949">
        <ele>8</ele>
        <time>2020-06-12T04:50:46Z</time>
      </trkpt>
      <trkpt lat="49.08814" lon="-1.59954">
        <ele>7.9</ele>
        <time>2020-06-12T04:50:47Z</time>
      </trkpt>
      <trkpt lat="49.08811" lon="-1.59958">
        <ele>7.9</ele>
        <time>2020-06-12T04:50:48Z</time>
      </trkpt>
      <trkpt lat="49.08809" lon="-1.59961">
        <ele>7.9</ele>
        <time>2020-06-12T04:50:49Z</time>
      </trkpt>
      <trkpt lat="49.08807" lon="-1.59964">
        <ele>7.9</ele>
        <time>2020-06-12T04:50:50Z</time>
      </trkpt>
      <trkpt lat="49.08805" lon="-1.59968">
        <ele>8</ele>
        <time>2020-06-12T04:50:51Z</time>
      </trkpt>
      <trkpt lat="49.08803" lon="-1.59971">
        <ele>8</ele>
        <time>2020-06-12T04:50:52Z</time>
      </trkpt>
      <trkpt lat="49.08802" lon="-1.59973">
        <ele>8</ele>
        <time>2020-06-12T04:50:53Z</time>
      </trkpt>
      <trkpt lat="49.08801" lon="-1.59975">
        <ele>8.1</ele>
        <time>2020-06-12T04:50:54Z</time>
      </trkpt>
      <trkpt lat="49.08801" lon="-1.59976">
        <ele>8.1</ele>
        <time>2020-06-12T04:50:55Z</time>
      </trkpt>
      <trkpt lat="49.08801" lon="-1.59975">
        <ele>8.1</ele>
        <time>2020-06-12T04:50:56Z</time>
      </trkpt>
      <trkpt lat="49.08801" lon="-1.59975">
        <ele>8.1</ele>
        <time>2020-06-12T04:50:57Z</time>
      </trkpt>
      <trkpt lat="49.08802" lon="-1.59975">
        <ele>8.1</ele>
        <time>2020-06-12T04:50:58Z</time>
      </trkpt>
      <trkpt lat="49.08803" lon="-1.59974">
        <ele>8.1</ele>
        <time>2020-06-12T04:50:59Z</time>
      </trkpt>
      <trkpt lat="49.08803" lon="-1.59974">
        <ele>8.1</ele>
        <time>2020-06-12T04:51:00Z</time>
      </trkpt>
      <trkpt lat="49.08804" lon="-1.59974">
        <ele>8.1</ele>
        <time>2020-06-12T04:51:01Z</time>
      </trkpt>
      <trkpt lat="49.08805" lon="-1.59973">
        <ele>8.1</ele>
        <time>2020-06-12T04:51:02Z</time>
      </trkpt>
      <trkpt lat="49.08805" lon="-1.59973">
        <ele>8.1</ele>
        <time>2020-06-12T04:51:03Z</time>
      </trkpt>
      <trkpt lat="49.08805" lon="-1.59973">
        <ele>8.1</ele>
        <time>2020-06-12T04:51:04Z</time>
      </trkpt>
      <trkpt lat="49.08805" lon="-1.59973">
        <ele>8.1</ele>
        <time>2020-06-12T04:51:05Z</time>
      </trkpt>
      <trkpt lat="49.08789" lon="-1.6">
        <ele>6.4</ele>
        <time>2020-06-12T04:56:09Z</time>
      </trkpt>
      <trkpt lat="49.08789" lon="-1.6">
        <ele>6.4</ele>
        <time>2020-06-12T04:56:10Z</time>
      </trkpt>
      <trkpt lat="49.08789" lon="-1.6">
        <ele>6.4</ele>
        <time>2020-06-12T04:56:11Z</time>
      </trkpt>
      <trkpt lat="49.08789" lon="-1.6">
        <ele>6.4</ele>
        <time>2020-06-12T04:56:12Z</time>
      </trkpt>
      <trkpt lat="49.08789" lon="-1.6">
        <ele>6.4</ele>
        <time>2020-06-12T04:56:13Z</time>
      </trkpt>
      <trkpt lat="49.08789" lon="-1.6">
        <ele>6.4</ele>
        <time>2020-06-12T04:56:14Z</time>
      </trkpt>
      <trkpt lat="49.08789" lon="-1.6">
        <ele>6.4</ele>
        <time>2020-06-12T04:56:15Z</time>
      </trkpt>
      <trkpt lat="49.08789" lon="-1.6">
        <ele>6.4</ele>
        <time>2020-06-12T04:56:16Z</time>
      </trkpt>
      <trkpt lat="49.08789" lon="-1.6">
        <ele>6.4</ele>
        <time>2020-06-12T04:56:17Z</time>
      </trkpt>
      <trkpt lat="49.08789" lon="-1.6">
        <ele>6.4</ele>
        <time>2020-06-12T04:56:18Z</time>
      </trkpt>
      <trkpt lat="49.08789" lon="-1.6">
        <ele>6.4</ele>
        <time>2020-06-12T04:56:19Z</time>
      </trkpt>
      <trkpt lat="49.08789" lon="-1.6">
        <ele>6.4</ele>
        <time>2020-06-12T04:56:20Z</time>
      </trkpt>
      <trkpt lat="49.08789" lon="-1.6">
        <ele>6.4</ele>
        <time>2020-06-12T04:56:21Z</time>
      </trkpt>
      <trkpt lat="49.08789" lon="-1.60001">
        <ele>6.4</ele>
        <time>2020-06-12T04:56:22Z</time>
      </trkpt>
      <trkpt lat="49.08789" lon="-1.60001">
        <ele>6.4</ele>
        <time>2020-06-12T04:56:23Z</time>
      </trkpt>
      <trkpt lat="49.088" lon="-1.60008">
        <ele>6.3</ele>
        <time>2020-06-12T04:58:59Z</time>
      </trkpt>
      <trkpt lat="49.08801" lon="-1.60007">
        <ele>6.3</ele>
        <time>2020-06-12T04:59:00Z</time>
      </trkpt>
      <trkpt lat="49.08801" lon="-1.60007">
        <ele>6.4</ele>
        <time>2020-06-12T04:59:01Z</time>
      </trkpt>
      <trkpt lat="49.08802" lon="-1.60007">
        <ele>6.4</ele>
        <time>2020-06-12T04:59:02Z</time>
      </trkpt>
      <trkpt lat="49.08802" lon="-1.60006">
        <ele>6.4</ele>
        <time>2020-06-12T04:59:03Z</time>
      </trkpt>
      <trkpt lat="49.08803" lon="-1.60005">
        <ele>6.5</ele>
        <time>2020-06-12T04:59:04Z</time>
      </trkpt>
      <trkpt lat="49.08802" lon="-1.60005">
        <ele>6.6</ele>
        <time>2020-06-12T04:59:05Z</time>
      </trkpt>
      <trkpt lat="49.088" lon="-1.60003">
        <ele>6.7</ele>
        <time>2020-06-12T04:59:06Z</time>
      </trkpt>
      <trkpt lat="49.088" lon="-1.59998">
        <ele>6.9</ele>
        <time>2020-06-12T04:59:07Z</time>
      </trkpt>
      <trkpt lat="49.088" lon="-1.59995">
        <ele>7</ele>
        <time>2020-06-12T04:59:08Z</time>
      </trkpt>
      <trkpt lat="49.088" lon="-1.59994">
        <ele>7</ele>
        <time>2020-06-12T04:59:09Z</time>
      </trkpt>
      <trkpt lat="49.088" lon="-1.59994">
        <ele>7</ele>
        <time>2020-06-12T04:59:10Z</time>
      </trkpt>
      <trkpt lat="49.088" lon="-1.59993">
        <ele>7.1</ele>
        <time>2020-06-12T04:59:11Z</time>
      </trkpt>
      <trkpt lat="49.088" lon="-1.5999">
        <ele>7.2</ele>
        <time>2020-06-12T04:59:12Z</time>
      </trkpt>
      <trkpt lat="49.088" lon="-1.59988">
        <ele>7.3</ele>
        <time>2020-06-12T04:59:13Z</time>
      </trkpt>
      <trkpt lat="49.088" lon="-1.59986">
        <ele>7.4</ele>
        <time>2020-06-12T04:59:14Z</time>
      </trkpt>
      <trkpt lat="49.088" lon="-1.59984">
        <ele>7.4</ele>
        <time>2020-06-12T04:59:15Z</time>
      </trkpt>
      <trkpt lat="49.088" lon="-1.59984">
        <ele>7.4</ele>
        <time>2020-06-12T04:59:16Z</time>
      </trkpt>
      <trkpt lat="49.088" lon="-1.59983">
        <ele>7.5</ele>
        <time>2020-06-12T04:59:17Z</time>
      </trkpt>
      <trkpt lat="49.088" lon="-1.59969">
        <ele>7.9</ele>
        <time>2020-06-12T05:01:06Z</time>
      </trkpt>
      <trkpt lat="49.08799" lon="-1.59965">
        <ele>8</ele>
        <time>2020-06-12T05:01:07Z</time>
      </trkpt>
      <trkpt lat="49.08799" lon="-1.59962">
        <ele>8.1</ele>
        <time>2020-06-12T05:01:08Z</time>
      </trkpt>
      <trkpt lat="49.08799" lon="-1.5996">
        <ele>8.2</ele>
        <time>2020-06-12T05:01:09Z</time>
      </trkpt>
      <trkpt lat="49.08799" lon="-1.59958">
        <ele>8.3</ele>
        <time>2020-06-12T05:01:10Z</time>
      </trkpt>
      <trkpt lat="49.08799" lon="-1.59953">
        <ele>7.9</ele>
        <time>2020-06-12T05:01:11Z</time>
      </trkpt>
      <trkpt lat="49.088" lon="-1.59952">
        <ele>7.9</ele>
        <time>2020-06-12T05:01:12Z</time>
      </trkpt>
      <trkpt lat="49.08801" lon="-1.59946">
        <ele>8</ele>
        <time>2020-06-12T05:01:13Z</time>
      </trkpt>
      <trkpt lat="49.08802" lon="-1.59942">
        <ele>8.1</ele>
        <time>2020-06-12T05:01:14Z</time>
      </trkpt>
      <trkpt lat="49.08804" lon="-1.59939">
        <ele>8.1</ele>
        <time>2020-06-12T05:01:15Z</time>
      </trkpt>
      <trkpt lat="49.08807" lon="-1.59934">
        <ele>8.2</ele>
        <time>2020-06-12T05:01:16Z</time>
      </trkpt>
      <trkpt lat="49.08807" lon="-1.59932">
        <ele>8.2</ele>
        <time>2020-06-12T05:01:17Z</time>
      </trkpt>
      <trkpt lat="49.08809" lon="-1.59928">
        <ele>8.2</ele>
        <time>2020-06-12T05:01:18Z</time>
      </trkpt>
      <trkpt lat="49.0881" lon="-1.59924">
        <ele>8.2</ele>
        <time>2020-06-12T05:01:19Z</time>
      </trkpt>
      <trkpt lat="49.08813" lon="-1.59918">
        <ele>8.2</ele>
        <time>2020-06-12T05:01:20Z</time>
      </trkpt>
      <trkpt lat="49.08814" lon="-1.59916">
        <ele>8.2</ele>
        <time>2020-06-12T05:01:21Z</time>
      </trkpt>
      <trkpt lat="49.08817" lon="-1.59909">
        <ele>8.2</ele>
        <time>2020-06-12T05:01:22Z</time>
      </trkpt>
      <trkpt lat="49.08819" lon="-1.59903">
        <ele>8.2</ele>
        <time>2020-06-12T05:01:23Z</time>
      </trkpt>
      <trkpt lat="49.08821" lon="-1.59896">
        <ele>8.2</ele>
        <time>2020-06-12T05:01:24Z</time>
      </trkpt>
      <trkpt lat="49.08823" lon="-1.5989">
        <ele>8.1</ele>
        <time>2020-06-12T05:01:25Z</time>
      </trkpt>
      <trkpt lat="49.08825" lon="-1.59884">
        <ele>8</ele>
        <time>2020-06-12T05:01:26Z</time>
      </trkpt>
      <trkpt lat="49.08826" lon="-1.59876">
        <ele>7.9</ele>
        <time>2020-06-12T05:01:27Z</time>
      </trkpt>
      <trkpt lat="49.08829" lon="-1.59869">
        <ele>7.7</ele>
        <time>2020-06-12T05:01:28Z</time>
      </trkpt>
      <trkpt lat="49.08833" lon="-1.59859">
        <ele>7.5</ele>
        <time>2020-06-12T05:01:29Z</time>
      </trkpt>
      <trkpt lat="49.08836" lon="-1.59849">
        <ele>7.3</ele>
        <time>2020-06-12T05:01:30Z</time>
      </trkpt>
      <trkpt lat="49.08839" lon="-1.59839">
        <ele>7.1</ele>
        <time>2020-06-12T05:01:31Z</time>
      </trkpt>
      <trkpt lat="49.08841" lon="-1.59831">
        <ele>7.1</ele>
        <time>2020-06-12T05:01:32Z</time>
      </trkpt>
      <trkpt lat="49.08844" lon="-1.59823">
        <ele>7</ele>
        <time>2020-06-12T05:01:33Z</time>
      </trkpt>
      <trkpt lat="49.08847" lon="-1.59816">
        <ele>6.6</ele>
        <time>2020-06-12T05:01:34Z</time>
      </trkpt>
      <trkpt lat="49.08849" lon="-1.59809">
        <ele>6.4</ele>
        <time>2020-06-12T05:01:35Z</time>
      </trkpt>
      <trkpt lat="49.08852" lon="-1.59802">
        <ele>6.3</ele>
        <time>2020-06-12T05:01:36Z</time>
      </trkpt>
      <trkpt lat="49.08856" lon="-1.59796">
        <ele>6.4</ele>
        <time>2020-06-12T05:01:37Z</time>
      </trkpt>
      <trkpt lat="49.08858" lon="-1.5979">
        <ele>6.5</ele>
        <time>2020-06-12T05:01:38Z</time>
      </trkpt>
      <trkpt lat="49.0886" lon="-1.59786">
        <ele>6.6</ele>
        <time>2020-06-12T05:01:39Z</time>
      </trkpt>
      <trkpt lat="49.08861" lon="-1.59781">
        <ele>6.8</ele>
        <time>2020-06-12T05:01:40Z</time>
      </trkpt>
      <trkpt lat="49.08861" lon="-1.5978">
        <ele>6.8</ele>
        <time>2020-06-12T05:01:41Z</time>
      </trkpt>
      <trkpt lat="49.08862" lon="-1.59775">
        <ele>6.9</ele>
        <time>2020-06-12T05:01:42Z</time>
      </trkpt>
      <trkpt lat="49.08862" lon="-1.59771">
        <ele>7</ele>
        <time>2020-06-12T05:01:43Z</time>
      </trkpt>
      <trkpt lat="49.08864" lon="-1.59764">
        <ele>7.1</ele>
        <time>2020-06-12T05:01:44Z</time>
      </trkpt>
      <trkpt lat="49.08864" lon="-1.59758">
        <ele>7.2</ele>
        <time>2020-06-12T05:01:45Z</time>
      </trkpt>
      <trkpt lat="49.08865" lon="-1.59753">
        <ele>7.3</ele>
        <time>2020-06-12T05:01:46Z</time>
      </trkpt>
      <trkpt lat="49.08866" lon="-1.59747">
        <ele>7.5</ele>
        <time>2020-06-12T05:01:47Z</time>
      </trkpt>
      <trkpt lat="49.08868" lon="-1.59741">
        <ele>7.6</ele>
        <time>2020-06-12T05:01:48Z</time>
      </trkpt>
      <trkpt lat="49.08869" lon="-1.59736">
        <ele>7.7</ele>
        <time>2020-06-12T05:01:49Z</time>
      </trkpt>
      <trkpt lat="49.0887" lon="-1.5973">
        <ele>7.8</ele>
        <time>2020-06-12T05:01:50Z</time>
      </trkpt>
      <trkpt lat="49.08871" lon="-1.59725">
        <ele>7.9</ele>
        <time>2020-06-12T05:01:51Z</time>
      </trkpt>
      <trkpt lat="49.08872" lon="-1.59719">
        <ele>8</ele>
        <time>2020-06-12T05:01:52Z</time>
      </trkpt>
      <trkpt lat="49.08873" lon="-1.59715">
        <ele>8.1</ele>
        <time>2020-06-12T05:01:53Z</time>
      </trkpt>
      <trkpt lat="49.08874" lon="-1.59711">
        <ele>8.2</ele>
        <time>2020-06-12T05:01:54Z</time>
      </trkpt>
      <trkpt lat="49.08875" lon="-1.59705">
        <ele>8.1</ele>
        <time>2020-06-12T05:01:55Z</time>
      </trkpt>
      <trkpt lat="49.08875" lon="-1.59703">
        <ele>7.9</ele>
        <time>2020-06-12T05:01:56Z</time>
      </trkpt>
      <trkpt lat="49.08876" lon="-1.59697">
        <ele>7.8</ele>
        <time>2020-06-12T05:01:57Z</time>
      </trkpt>
      <trkpt lat="49.08876" lon="-1.59688">
        <ele>7.7</ele>
        <time>2020-06-12T05:01:58Z</time>
      </trkpt>
      <trkpt lat="49.08879" lon="-1.59683">
        <ele>7.5</ele>
        <time>2020-06-12T05:01:59Z</time>
      </trkpt>
      <trkpt lat="49.08882" lon="-1.59681">
        <ele>7.4</ele>
        <time>2020-06-12T05:02:00Z</time>
      </trkpt>
      <trkpt lat="49.08885" lon="-1.5968">
        <ele>7.3</ele>
        <time>2020-06-12T05:02:01Z</time>
      </trkpt>
      <trkpt lat="49.08888" lon="-1.59676">
        <ele>7.2</ele>
        <time>2020-06-12T05:02:02Z</time>
      </trkpt>
      <trkpt lat="49.08892" lon="-1.59673">
        <ele>7.1</ele>
        <time>2020-06-12T05:02:03Z</time>
      </trkpt>
      <trkpt lat="49.08896" lon="-1.5967">
        <ele>7</ele>
        <time>2020-06-12T05:02:04Z</time>
      </trkpt>
      <trkpt lat="49.08899" lon="-1.5967">
        <ele>6.9</ele>
        <time>2020-06-12T05:02:05Z</time>
      </trkpt>
      <trkpt lat="49.08903" lon="-1.5967">
        <ele>6.8</ele>
        <time>2020-06-12T05:02:06Z</time>
      </trkpt>
      <trkpt lat="49.08907" lon="-1.59669">
        <ele>6.8</ele>
        <time>2020-06-12T05:02:07Z</time>
      </trkpt>
      <trkpt lat="49.08911" lon="-1.5967">
        <ele>6.8</ele>
        <time>2020-06-12T05:02:08Z</time>
      </trkpt>
      <trkpt lat="49.08916" lon="-1.5967">
        <ele>6.8</ele>
        <time>2020-06-12T05:02:09Z</time>
      </trkpt>
      <trkpt lat="49.0892" lon="-1.59671">
        <ele>6.9</ele>
        <time>2020-06-12T05:02:10Z</time>
      </trkpt>
      <trkpt lat="49.08924" lon="-1.59672">
        <ele>7</ele>
        <time>2020-06-12T05:02:11Z</time>
      </trkpt>
      <trkpt lat="49.08928" lon="-1.59673">
        <ele>7.1</ele>
        <time>2020-06-12T05:02:12Z</time>
      </trkpt>
      <trkpt lat="49.08931" lon="-1.59674">
        <ele>7.2</ele>
        <time>2020-06-12T05:02:13Z</time>
      </trkpt>
      <trkpt lat="49.08936" lon="-1.59674">
        <ele>7.3</ele>
        <time>2020-06-12T05:02:14Z</time>
      </trkpt>
      <trkpt lat="49.08941" lon="-1.59671">
        <ele>7.4</ele>
        <time>2020-06-12T05:02:15Z</time>
      </trkpt>
      <trkpt lat="49.08946" lon="-1.59672">
        <ele>7.5</ele>
        <time>2020-06-12T05:02:16Z</time>
      </trkpt>
      <trkpt lat="49.0895" lon="-1.59672">
        <ele>7.6</ele>
        <time>2020-06-12T05:02:17Z</time>
      </trkpt>
      <trkpt lat="49.08953" lon="-1.59675">
        <ele>7.6</ele>
        <time>2020-06-12T05:02:18Z</time>
      </trkpt>
      <trkpt lat="49.08957" lon="-1.59676">
        <ele>7.7</ele>
        <time>2020-06-12T05:02:19Z</time>
      </trkpt>
      <trkpt lat="49.08962" lon="-1.59676">
        <ele>7.7</ele>
        <time>2020-06-12T05:02:20Z</time>
      </trkpt>
      <trkpt lat="49.08966" lon="-1.59676">
        <ele>7.8</ele>
        <time>2020-06-12T05:02:21Z</time>
      </trkpt>
      <trkpt lat="49.08971" lon="-1.59676">
        <ele>7.8</ele>
        <time>2020-06-12T05:02:22Z</time>
      </trkpt>
      <trkpt lat="49.08975" lon="-1.59675">
        <ele>7.9</ele>
        <time>2020-06-12T05:02:23Z</time>
      </trkpt>
      <trkpt lat="49.0898" lon="-1.59676">
        <ele>7.9</ele>
        <time>2020-06-12T05:02:24Z</time>
      </trkpt>
      <trkpt lat="49.08985" lon="-1.59675">
        <ele>8</ele>
        <time>2020-06-12T05:02:25Z</time>
      </trkpt>
      <trkpt lat="49.08989" lon="-1.59675">
        <ele>8.1</ele>
        <time>2020-06-12T05:02:26Z</time>
      </trkpt>
      <trkpt lat="49.08993" lon="-1.59674">
        <ele>8.3</ele>
        <time>2020-06-12T05:02:27Z</time>
      </trkpt>
      <trkpt lat="49.08996" lon="-1.59674">
        <ele>8.4</ele>
        <time>2020-06-12T05:02:28Z</time>
      </trkpt>
      <trkpt lat="49.09" lon="-1.59674">
        <ele>8.5</ele>
        <time>2020-06-12T05:02:29Z</time>
      </trkpt>
      <trkpt lat="49.09004" lon="-1.59672">
        <ele>8.6</ele>
        <time>2020-06-12T05:02:30Z</time>
      </trkpt>
      <trkpt lat="49.09008" lon="-1.5967">
        <ele>8.7</ele>
        <time>2020-06-12T05:02:31Z</time>
      </trkpt>
      <trkpt lat="49.09012" lon="-1.59669">
        <ele>8.8</ele>
        <time>2020-06-12T05:02:32Z</time>
      </trkpt>
      <trkpt lat="49.09016" lon="-1.59666">
        <ele>8.9</ele>
        <time>2020-06-12T05:02:33Z</time>
      </trkpt>
      <trkpt lat="49.09018" lon="-1.59664">
        <ele>8.8</ele>
        <time>2020-06-12T05:02:34Z</time>
      </trkpt>
      <trkpt lat="49.0902" lon="-1.5966">
        <ele>8.6</ele>
        <time>2020-06-12T05:02:35Z</time>
      </trkpt>
      <trkpt lat="49.0902" lon="-1.59655">
        <ele>8.4</ele>
        <time>2020-06-12T05:02:36Z</time>
      </trkpt>
      <trkpt lat="49.09019" lon="-1.5965">
        <ele>8.2</ele>
        <time>2020-06-12T05:02:37Z</time>
      </trkpt>
      <trkpt lat="49.09018" lon="-1.59645">
        <ele>8.1</ele>
        <time>2020-06-12T05:02:38Z</time>
      </trkpt>
      <trkpt lat="49.09017" lon="-1.59639">
        <ele>7.9</ele>
        <time>2020-06-12T05:02:39Z</time>
      </trkpt>
      <trkpt lat="49.09015" lon="-1.59633">
        <ele>7.7</ele>
        <time>2020-06-12T05:02:40Z</time>
      </trkpt>
      <trkpt lat="49.09014" lon="-1.59627">
        <ele>7.6</ele>
        <time>2020-06-12T05:02:41Z</time>
      </trkpt>
      <trkpt lat="49.09012" lon="-1.59619">
        <ele>7.5</ele>
        <time>2020-06-12T05:02:42Z</time>
      </trkpt>
      <trkpt lat="49.09011" lon="-1.59612">
        <ele>7.4</ele>
        <time>2020-06-12T05:02:43Z</time>
      </trkpt>
      <trkpt lat="49.0901" lon="-1.59606">
        <ele>7.5</ele>
        <time>2020-06-12T05:02:44Z</time>
      </trkpt>
      <trkpt lat="49.09009" lon="-1.59598">
        <ele>7.5</ele>
        <time>2020-06-12T05:02:45Z</time>
      </trkpt>
      <trkpt lat="49.09007" lon="-1.59592">
        <ele>7.6</ele>
        <time>2020-06-12T05:02:46Z</time>
      </trkpt>
      <trkpt lat="49.09006" lon="-1.59584">
        <ele>7.8</ele>
        <time>2020-06-12T05:02:47Z</time>
      </trkpt>
      <trkpt lat="49.09005" lon="-1.59577">
        <ele>7.9</ele>
        <time>2020-06-12T05:02:48Z</time>
      </trkpt>
      <trkpt lat="49.09005" lon="-1.5957">
        <ele>7.9</ele>
        <time>2020-06-12T05:02:49Z</time>
      </trkpt>
      <trkpt lat="49.09005" lon="-1.59564">
        <ele>8</ele>
        <time>2020-06-12T05:02:50Z</time>
      </trkpt>
      <trkpt lat="49.09005" lon="-1.59558">
        <ele>8</ele>
        <time>2020-06-12T05:02:51Z</time>
      </trkpt>
      <trkpt lat="49.09003" lon="-1.59551">
        <ele>7.9</ele>
        <time>2020-06-12T05:02:52Z</time>
      </trkpt>
      <trkpt lat="49.09002" lon="-1.59544">
        <ele>7.9</ele>
        <time>2020-06-12T05:02:53Z</time>
      </trkpt>
      <trkpt lat="49.09001" lon="-1.59538">
        <ele>7.9</ele>
        <time>2020-06-12T05:02:54Z</time>
      </trkpt>
      <trkpt lat="49.09002" lon="-1.5953">
        <ele>7.9</ele>
        <time>2020-06-12T05:02:55Z</time>
      </trkpt>
      <trkpt lat="49.09001" lon="-1.59523">
        <ele>7.9</ele>
        <time>2020-06-12T05:02:56Z</time>
      </trkpt>
      <trkpt lat="49.09" lon="-1.59514">
        <ele>7.9</ele>
        <time>2020-06-12T05:02:57Z</time>
      </trkpt>
      <trkpt lat="49.09" lon="-1.59506">
        <ele>7.8</ele>
        <time>2020-06-12T05:02:58Z</time>
      </trkpt>
      <trkpt lat="49.09" lon="-1.59498">
        <ele>7.8</ele>
        <time>2020-06-12T05:02:59Z</time>
      </trkpt>
      <trkpt lat="49.08999" lon="-1.59492">
        <ele>7.9</ele>
        <time>2020-06-12T05:03:00Z</time>
      </trkpt>
      <trkpt lat="49.08999" lon="-1.59487">
        <ele>7.9</ele>
        <time>2020-06-12T05:03:01Z</time>
      </trkpt>
      <trkpt lat="49.08997" lon="-1.59481">
        <ele>7.9</ele>
        <time>2020-06-12T05:03:02Z</time>
      </trkpt>
      <trkpt lat="49.08996" lon="-1.59475">
        <ele>7.9</ele>
        <time>2020-06-12T05:03:03Z</time>
      </trkpt>
      <trkpt lat="49.08996" lon="-1.59469">
        <ele>7.9</ele>
        <time>2020-06-12T05:03:04Z</time>
      </trkpt>
      <trkpt lat="49.08995" lon="-1.59462">
        <ele>7.9</ele>
        <time>2020-06-12T05:03:05Z</time>
      </trkpt>
      <trkpt lat="49.08994" lon="-1.59456">
        <ele>7.8</ele>
        <time>2020-06-12T05:03:06Z</time>
      </trkpt>
      <trkpt lat="49.08993" lon="-1.59451">
        <ele>7.8</ele>
        <time>2020-06-12T05:03:07Z</time>
      </trkpt>
      <trkpt lat="49.08991" lon="-1.59445">
        <ele>7.8</ele>
        <time>2020-06-12T05:03:08Z</time>
      </trkpt>
      <trkpt lat="49.0899" lon="-1.59438">
        <ele>7.7</ele>
        <time>2020-06-12T05:03:09Z</time>
      </trkpt>
      <trkpt lat="49.08989" lon="-1.59431">
        <ele>7.7</ele>
        <time>2020-06-12T05:03:10Z</time>
      </trkpt>
      <trkpt lat="49.08988" lon="-1.59425">
        <ele>7.8</ele>
        <time>2020-06-12T05:03:11Z</time>
      </trkpt>
      <trkpt lat="49.08987" lon="-1.59419">
        <ele>7.8</ele>
        <time>2020-06-12T05:03:12Z</time>
      </trkpt>
      <trkpt lat="49.08986" lon="-1.59414">
        <ele>7.8</ele>
        <time>2020-06-12T05:03:13Z</time>
      </trkpt>
      <trkpt lat="49.08985" lon="-1.59409">
        <ele>7.8</ele>
        <time>2020-06-12T05:03:14Z</time>
      </trkpt>
      <trkpt lat="49.08984" lon="-1.59403">
        <ele>7.9</ele>
        <time>2020-06-12T05:03:15Z</time>
      </trkpt>
      <trkpt lat="49.08983" lon="-1.59398">
        <ele>7.9</ele>
        <time>2020-06-12T05:03:16Z</time>
      </trkpt>
      <trkpt lat="49.08982" lon="-1.59391">
        <ele>8</ele>
        <time>2020-06-12T05:03:17Z</time>
      </trkpt>
      <trkpt lat="49.0898" lon="-1.59381">
        <ele>8.1</ele>
        <time>2020-06-12T05:03:18Z</time>
      </trkpt>
      <trkpt lat="49.0898" lon="-1.59374">
        <ele>8.1</ele>
        <time>2020-06-12T05:03:19Z</time>
      </trkpt>
      <trkpt lat="49.08979" lon="-1.59366">
        <ele>8.1</ele>
        <time>2020-06-12T05:03:20Z</time>
      </trkpt>
      <trkpt lat="49.08979" lon="-1.59358">
        <ele>8</ele>
        <time>2020-06-12T05:03:21Z</time>
      </trkpt>
      <trkpt lat="49.08981" lon="-1.59351">
        <ele>8</ele>
        <time>2020-06-12T05:03:22Z</time>
      </trkpt>
      <trkpt lat="49.08981" lon="-1.59343">
        <ele>7.9</ele>
        <time>2020-06-12T05:03:23Z</time>
      </trkpt>
      <trkpt lat="49.08982" lon="-1.59337">
        <ele>7.9</ele>
        <time>2020-06-12T05:03:24Z</time>
      </trkpt>
      <trkpt lat="49.08982" lon="-1.5933">
        <ele>8</ele>
        <time>2020-06-12T05:03:25Z</time>
      </trkpt>
      <trkpt lat="49.08983" lon="-1.59324">
        <ele>8</ele>
        <time>2020-06-12T05:03:26Z</time>
      </trkpt>
      <trkpt lat="49.08984" lon="-1.59317">
        <ele>8.1</ele>
        <time>2020-06-12T05:03:27Z</time>
      </trkpt>
      <trkpt lat="49.08985" lon="-1.59308">
        <ele>8.1</ele>
        <time>2020-06-12T05:03:28Z</time>
      </trkpt>
      <trkpt lat="49.08986" lon="-1.593">
        <ele>8.2</ele>
        <time>2020-06-12T05:03:29Z</time>
      </trkpt>
      <trkpt lat="49.08987" lon="-1.59293">
        <ele>8.3</ele>
        <time>2020-06-12T05:03:30Z</time>
      </trkpt>
      <trkpt lat="49.08987" lon="-1.59286">
        <ele>8.4</ele>
        <time>2020-06-12T05:03:31Z</time>
      </trkpt>
      <trkpt lat="49.08987" lon="-1.59279">
        <ele>8.4</ele>
        <time>2020-06-12T05:03:32Z</time>
      </trkpt>
      <trkpt lat="49.08988" lon="-1.59273">
        <ele>8.4</ele>
        <time>2020-06-12T05:03:33Z</time>
      </trkpt>
      <trkpt lat="49.08988" lon="-1.59266">
        <ele>8.5</ele>
        <time>2020-06-12T05:03:34Z</time>
      </trkpt>
      <trkpt lat="49.08988" lon="-1.59258">
        <ele>8.5</ele>
        <time>2020-06-12T05:03:35Z</time>
      </trkpt>
      <trkpt lat="49.08989" lon="-1.59252">
        <ele>8.5</ele>
        <time>2020-06-12T05:03:36Z</time>
      </trkpt>
      <trkpt lat="49.08988" lon="-1.59243">
        <ele>8.5</ele>
        <time>2020-06-12T05:03:37Z</time>
      </trkpt>
      <trkpt lat="49.08988" lon="-1.59233">
        <ele>8.4</ele>
        <time>2020-06-12T05:03:38Z</time>
      </trkpt>
      <trkpt lat="49.08987" lon="-1.59224">
        <ele>8.4</ele>
        <time>2020-06-12T05:03:39Z</time>
      </trkpt>
      <trkpt lat="49.08986" lon="-1.59213">
        <ele>8.4</ele>
        <time>2020-06-12T05:03:40Z</time>
      </trkpt>
      <trkpt lat="49.08986" lon="-1.59204">
        <ele>8.3</ele>
        <time>2020-06-12T05:03:41Z</time>
      </trkpt>
      <trkpt lat="49.08986" lon="-1.59194">
        <ele>8.3</ele>
        <time>2020-06-12T05:03:42Z</time>
      </trkpt>
      <trkpt lat="49.08986" lon="-1.59185">
        <ele>8.3</ele>
        <time>2020-06-12T05:03:43Z</time>
      </trkpt>
      <trkpt lat="49.08985" lon="-1.59175">
        <ele>8.3</ele>
        <time>2020-06-12T05:03:44Z</time>
      </trkpt>
      <trkpt lat="49.08985" lon="-1.59166">
        <ele>8.4</ele>
        <time>2020-06-12T05:03:45Z</time>
      </trkpt>
      <trkpt lat="49.08984" lon="-1.59157">
        <ele>8.5</ele>
        <time>2020-06-12T05:03:46Z</time>
      </trkpt>
      <trkpt lat="49.08982" lon="-1.59149">
        <ele>8.6</ele>
        <time>2020-06-12T05:03:47Z</time>
      </trkpt>
      <trkpt lat="49.08982" lon="-1.59141">
        <ele>8.7</ele>
        <time>2020-06-12T05:03:48Z</time>
      </trkpt>
      <trkpt lat="49.08982" lon="-1.59135">
        <ele>8.7</ele>
        <time>2020-06-12T05:03:49Z</time>
      </trkpt>
      <trkpt lat="49.08983" lon="-1.59128">
        <ele>8.8</ele>
        <time>2020-06-12T05:03:50Z</time>
      </trkpt>
      <trkpt lat="49.08985" lon="-1.59122">
        <ele>8.7</ele>
        <time>2020-06-12T05:03:51Z</time>
      </trkpt>
      <trkpt lat="49.08986" lon="-1.59116">
        <ele>8.7</ele>
        <time>2020-06-12T05:03:52Z</time>
      </trkpt>
      <trkpt lat="49.08987" lon="-1.5911">
        <ele>8.6</ele>
        <time>2020-06-12T05:03:53Z</time>
      </trkpt>
      <trkpt lat="49.08988" lon="-1.59104">
        <ele>8.5</ele>
        <time>2020-06-12T05:03:54Z</time>
      </trkpt>
      <trkpt lat="49.08989" lon="-1.59098">
        <ele>8.4</ele>
        <time>2020-06-12T05:03:55Z</time>
      </trkpt>
      <trkpt lat="49.08989" lon="-1.59093">
        <ele>8.4</ele>
        <time>2020-06-12T05:03:56Z</time>
      </trkpt>
      <trkpt lat="49.0899" lon="-1.59087">
        <ele>8.4</ele>
        <time>2020-06-12T05:03:57Z</time>
      </trkpt>
      <trkpt lat="49.0899" lon="-1.59082">
        <ele>8.5</ele>
        <time>2020-06-12T05:03:58Z</time>
      </trkpt>
      <trkpt lat="49.08989" lon="-1.59077">
        <ele>8.5</ele>
        <time>2020-06-12T05:03:59Z</time>
      </trkpt>
      <trkpt lat="49.08989" lon="-1.59072">
        <ele>8.6</ele>
        <time>2020-06-12T05:04:00Z</time>
      </trkpt>
      <trkpt lat="49.08987" lon="-1.59067">
        <ele>8.7</ele>
        <time>2020-06-12T05:04:01Z</time>
      </trkpt>
      <trkpt lat="49.08985" lon="-1.59062">
        <ele>8.8</ele>
        <time>2020-06-12T05:04:02Z</time>
      </trkpt>
      <trkpt lat="49.08985" lon="-1.59056">
        <ele>9</ele>
        <time>2020-06-12T05:04:03Z</time>
      </trkpt>
      <trkpt lat="49.08984" lon="-1.5905">
        <ele>9.1</ele>
        <time>2020-06-12T05:04:04Z</time>
      </trkpt>
      <trkpt lat="49.08982" lon="-1.59044">
        <ele>9.2</ele>
        <time>2020-06-12T05:04:05Z</time>
      </trkpt>
      <trkpt lat="49.0898" lon="-1.59036">
        <ele>9.3</ele>
        <time>2020-06-12T05:04:06Z</time>
      </trkpt>
      <trkpt lat="49.08978" lon="-1.59027">
        <ele>9.3</ele>
        <time>2020-06-12T05:04:07Z</time>
      </trkpt>
      <trkpt lat="49.08977" lon="-1.59019">
        <ele>9.3</ele>
        <time>2020-06-12T05:04:08Z</time>
      </trkpt>
      <trkpt lat="49.08976" lon="-1.5901">
        <ele>9.3</ele>
        <time>2020-06-12T05:04:09Z</time>
      </trkpt>
      <trkpt lat="49.08975" lon="-1.58998">
        <ele>9.3</ele>
        <time>2020-06-12T05:04:10Z</time>
      </trkpt>
      <trkpt lat="49.08974" lon="-1.58989">
        <ele>9.2</ele>
        <time>2020-06-12T05:04:11Z</time>
      </trkpt>
      <trkpt lat="49.08973" lon="-1.58983">
        <ele>9.2</ele>
        <time>2020-06-12T05:04:12Z</time>
      </trkpt>
      <trkpt lat="49.08971" lon="-1.58975">
        <ele>9.1</ele>
        <time>2020-06-12T05:04:13Z</time>
      </trkpt>
      <trkpt lat="49.08971" lon="-1.58967">
        <ele>9.1</ele>
        <time>2020-06-12T05:04:14Z</time>
      </trkpt>
      <trkpt lat="49.08971" lon="-1.58959">
        <ele>9</ele>
        <time>2020-06-12T05:04:15Z</time>
      </trkpt>
      <trkpt lat="49.08971" lon="-1.5895">
        <ele>9</ele>
        <time>2020-06-12T05:04:16Z</time>
      </trkpt>
      <trkpt lat="49.0897" lon="-1.58942">
        <ele>8.9</ele>
        <time>2020-06-12T05:04:17Z</time>
      </trkpt>
      <trkpt lat="49.0897" lon="-1.58932">
        <ele>8.8</ele>
        <time>2020-06-12T05:04:18Z</time>
      </trkpt>
      <trkpt lat="49.08971" lon="-1.58923">
        <ele>8.7</ele>
        <time>2020-06-12T05:04:19Z</time>
      </trkpt>
      <trkpt lat="49.08971" lon="-1.58916">
        <ele>8.7</ele>
        <time>2020-06-12T05:04:20Z</time>
      </trkpt>
      <trkpt lat="49.08972" lon="-1.5891">
        <ele>8.6</ele>
        <time>2020-06-12T05:04:21Z</time>
      </trkpt>
      <trkpt lat="49.08974" lon="-1.58902">
        <ele>8.6</ele>
        <time>2020-06-12T05:04:22Z</time>
      </trkpt>
      <trkpt lat="49.08974" lon="-1.58893">
        <ele>8.6</ele>
        <time>2020-06-12T05:04:23Z</time>
      </trkpt>
      <trkpt lat="49.08975" lon="-1.58883">
        <ele>8.6</ele>
        <time>2020-06-12T05:04:24Z</time>
      </trkpt>
      <trkpt lat="49.08975" lon="-1.58874">
        <ele>8.6</ele>
        <time>2020-06-12T05:04:25Z</time>
      </trkpt>
      <trkpt lat="49.08975" lon="-1.58865">
        <ele>8.7</ele>
        <time>2020-06-12T05:04:26Z</time>
      </trkpt>
      <trkpt lat="49.08976" lon="-1.58856">
        <ele>8.9</ele>
        <time>2020-06-12T05:04:27Z</time>
      </trkpt>
      <trkpt lat="49.08977" lon="-1.58848">
        <ele>9.2</ele>
        <time>2020-06-12T05:04:28Z</time>
      </trkpt>
      <trkpt lat="49.08978" lon="-1.5884">
        <ele>9.5</ele>
        <time>2020-06-12T05:04:29Z</time>
      </trkpt>
      <trkpt lat="49.08979" lon="-1.58833">
        <ele>9.7</ele>
        <time>2020-06-12T05:04:30Z</time>
      </trkpt>
      <trkpt lat="49.08979" lon="-1.58824">
        <ele>9.9</ele>
        <time>2020-06-12T05:04:31Z</time>
      </trkpt>
      <trkpt lat="49.08979" lon="-1.58816">
        <ele>10</ele>
        <time>2020-06-12T05:04:32Z</time>
      </trkpt>
      <trkpt lat="49.0898" lon="-1.58808">
        <ele>10</ele>
        <time>2020-06-12T05:04:33Z</time>
      </trkpt>
      <trkpt lat="49.08981" lon="-1.58801">
        <ele>10</ele>
        <time>2020-06-12T05:04:34Z</time>
      </trkpt>
      <trkpt lat="49.08982" lon="-1.58793">
        <ele>9.9</ele>
        <time>2020-06-12T05:04:35Z</time>
      </trkpt>
      <trkpt lat="49.08984" lon="-1.58785">
        <ele>9.9</ele>
        <time>2020-06-12T05:04:36Z</time>
      </trkpt>
      <trkpt lat="49.08985" lon="-1.58777">
        <ele>9.9</ele>
        <time>2020-06-12T05:04:37Z</time>
      </trkpt>
      <trkpt lat="49.08986" lon="-1.58769">
        <ele>9.9</ele>
        <time>2020-06-12T05:04:38Z</time>
      </trkpt>
      <trkpt lat="49.08986" lon="-1.58762">
        <ele>10</ele>
        <time>2020-06-12T05:04:39Z</time>
      </trkpt>
      <trkpt lat="49.08988" lon="-1.58754">
        <ele>10.1</ele>
        <time>2020-06-12T05:04:40Z</time>
      </trkpt>
      <trkpt lat="49.08989" lon="-1.58745">
        <ele>10.3</ele>
        <time>2020-06-12T05:04:41Z</time>
      </trkpt>
      <trkpt lat="49.08991" lon="-1.58738">
        <ele>10.4</ele>
        <time>2020-06-12T05:04:42Z</time>
      </trkpt>
      <trkpt lat="49.08991" lon="-1.58731">
        <ele>10.5</ele>
        <time>2020-06-12T05:04:43Z</time>
      </trkpt>
      <trkpt lat="49.08992" lon="-1.58724">
        <ele>10.7</ele>
        <time>2020-06-12T05:04:44Z</time>
      </trkpt>
      <trkpt lat="49.08993" lon="-1.58716">
        <ele>10.8</ele>
        <time>2020-06-12T05:04:45Z</time>
      </trkpt>
      <trkpt lat="49.08993" lon="-1.58709">
        <ele>10.9</ele>
        <time>2020-06-12T05:04:46Z</time>
      </trkpt>
      <trkpt lat="49.08995" lon="-1.58702">
        <ele>10.9</ele>
        <time>2020-06-12T05:04:47Z</time>
      </trkpt>
      <trkpt lat="49.08996" lon="-1.58696">
        <ele>11</ele>
        <time>2020-06-12T05:04:48Z</time>
      </trkpt>
      <trkpt lat="49.08998" lon="-1.5869">
        <ele>11.1</ele>
        <time>2020-06-12T05:04:49Z</time>
      </trkpt>
      <trkpt lat="49.08999" lon="-1.58684">
        <ele>11.2</ele>
        <time>2020-06-12T05:04:50Z</time>
      </trkpt>
      <trkpt lat="49.09" lon="-1.58677">
        <ele>11.3</ele>
        <time>2020-06-12T05:04:51Z</time>
      </trkpt>
      <trkpt lat="49.09001" lon="-1.5867">
        <ele>11.5</ele>
        <time>2020-06-12T05:04:52Z</time>
      </trkpt>
      <trkpt lat="49.09002" lon="-1.58664">
        <ele>11.6</ele>
        <time>2020-06-12T05:04:53Z</time>
      </trkpt>
      <trkpt lat="49.09004" lon="-1.58658">
        <ele>11.7</ele>
        <time>2020-06-12T05:04:54Z</time>
      </trkpt>
      <trkpt lat="49.09006" lon="-1.58651">
        <ele>11.8</ele>
        <time>2020-06-12T05:04:55Z</time>
      </trkpt>
      <trkpt lat="49.09008" lon="-1.58645">
        <ele>11.9</ele>
        <time>2020-06-12T05:04:56Z</time>
      </trkpt>
      <trkpt lat="49.0901" lon="-1.58638">
        <ele>11.9</ele>
        <time>2020-06-12T05:04:57Z</time>
      </trkpt>
      <trkpt lat="49.09013" lon="-1.58632">
        <ele>11.9</ele>
        <time>2020-06-12T05:04:58Z</time>
      </trkpt>
      <trkpt lat="49.09015" lon="-1.58626">
        <ele>11.8</ele>
        <time>2020-06-12T05:04:59Z</time>
      </trkpt>
      <trkpt lat="49.09016" lon="-1.5862">
        <ele>11.8</ele>
        <time>2020-06-12T05:05:00Z</time>
      </trkpt>
      <trkpt lat="49.09019" lon="-1.5861">
        <ele>11.7</ele>
        <time>2020-06-12T05:05:01Z</time>
      </trkpt>
      <trkpt lat="49.09022" lon="-1.58604">
        <ele>11.6</ele>
        <time>2020-06-12T05:05:02Z</time>
      </trkpt>
      <trkpt lat="49.09025" lon="-1.58598">
        <ele>11.6</ele>
        <time>2020-06-12T05:05:03Z</time>
      </trkpt>
      <trkpt lat="49.09028" lon="-1.5859">
        <ele>11.5</ele>
        <time>2020-06-12T05:05:04Z</time>
      </trkpt>
      <trkpt lat="49.0903" lon="-1.58582">
        <ele>11.5</ele>
        <time>2020-06-12T05:05:05Z</time>
      </trkpt>
      <trkpt lat="49.09033" lon="-1.58575">
        <ele>11.4</ele>
        <time>2020-06-12T05:05:06Z</time>
      </trkpt>
      <trkpt lat="49.09036" lon="-1.58569">
        <ele>11.4</ele>
        <time>2020-06-12T05:05:07Z</time>
      </trkpt>
      <trkpt lat="49.09039" lon="-1.58564">
        <ele>11.4</ele>
        <time>2020-06-12T05:05:08Z</time>
      </trkpt>
      <trkpt lat="49.09041" lon="-1.58558">
        <ele>11.4</ele>
        <time>2020-06-12T05:05:09Z</time>
      </trkpt>
      <trkpt lat="49.09044" lon="-1.58553">
        <ele>11.4</ele>
        <time>2020-06-12T05:05:10Z</time>
      </trkpt>
      <trkpt lat="49.09046" lon="-1.58548">
        <ele>11.3</ele>
        <time>2020-06-12T05:05:11Z</time>
      </trkpt>
      <trkpt lat="49.09049" lon="-1.58543">
        <ele>11.3</ele>
        <time>2020-06-12T05:05:12Z</time>
      </trkpt>
      <trkpt lat="49.09051" lon="-1.58539">
        <ele>11.3</ele>
        <time>2020-06-12T05:05:13Z</time>
      </trkpt>
      <trkpt lat="49.09053" lon="-1.58534">
        <ele>11.2</ele>
        <time>2020-06-12T05:05:14Z</time>
      </trkpt>
      <trkpt lat="49.09055" lon="-1.5853">
        <ele>11.2</ele>
        <time>2020-06-12T05:05:15Z</time>
      </trkpt>
      <trkpt lat="49.09057" lon="-1.58526">
        <ele>11.1</ele>
        <time>2020-06-12T05:05:16Z</time>
      </trkpt>
      <trkpt lat="49.09059" lon="-1.58522">
        <ele>11.1</ele>
        <time>2020-06-12T05:05:17Z</time>
      </trkpt>
      <trkpt lat="49.09061" lon="-1.58517">
        <ele>11</ele>
        <time>2020-06-12T05:05:18Z</time>
      </trkpt>
      <trkpt lat="49.09062" lon="-1.58511">
        <ele>10.9</ele>
        <time>2020-06-12T05:05:19Z</time>
      </trkpt>
      <trkpt lat="49.09062" lon="-1.58509">
        <ele>10.9</ele>
        <time>2020-06-12T05:05:20Z</time>
      </trkpt>
      <trkpt lat="49.09061" lon="-1.58503">
        <ele>11.2</ele>
        <time>2020-06-12T05:05:21Z</time>
      </trkpt>
      <trkpt lat="49.09061" lon="-1.58501">
        <ele>11.2</ele>
        <time>2020-06-12T05:05:22Z</time>
      </trkpt>
      <trkpt lat="49.0906" lon="-1.58497">
        <ele>11.4</ele>
        <time>2020-06-12T05:05:23Z</time>
      </trkpt>
      <trkpt lat="49.09059" lon="-1.58492">
        <ele>11.5</ele>
        <time>2020-06-12T05:05:24Z</time>
      </trkpt>
      <trkpt lat="49.09058" lon="-1.58487">
        <ele>11.6</ele>
        <time>2020-06-12T05:05:25Z</time>
      </trkpt>
      <trkpt lat="49.09058" lon="-1.58481">
        <ele>11.8</ele>
        <time>2020-06-12T05:05:26Z</time>
      </trkpt>
      <trkpt lat="49.09057" lon="-1.58474">
        <ele>12</ele>
        <time>2020-06-12T05:05:27Z</time>
      </trkpt>
      <trkpt lat="49.09056" lon="-1.5847">
        <ele>12.1</ele>
        <time>2020-06-12T05:05:28Z</time>
      </trkpt>
      <trkpt lat="49.09056" lon="-1.58465">
        <ele>12.3</ele>
        <time>2020-06-12T05:05:29Z</time>
      </trkpt>
      <trkpt lat="49.09056" lon="-1.5846">
        <ele>12.4</ele>
        <time>2020-06-12T05:05:30Z</time>
      </trkpt>
      <trkpt lat="49.09057" lon="-1.58455">
        <ele>12.6</ele>
        <time>2020-06-12T05:05:31Z</time>
      </trkpt>
      <trkpt lat="49.09058" lon="-1.58448">
        <ele>12.5</ele>
        <time>2020-06-12T05:05:32Z</time>
      </trkpt>
      <trkpt lat="49.09058" lon="-1.58441">
        <ele>12.5</ele>
        <time>2020-06-12T05:05:33Z</time>
      </trkpt>
      <trkpt lat="49.09059" lon="-1.58434">
        <ele>12.4</ele>
        <time>2020-06-12T05:05:34Z</time>
      </trkpt>
      <trkpt lat="49.0906" lon="-1.58427">
        <ele>12.4</ele>
        <time>2020-06-12T05:05:35Z</time>
      </trkpt>
      <trkpt lat="49.0906" lon="-1.58421">
        <ele>12.4</ele>
        <time>2020-06-12T05:05:36Z</time>
      </trkpt>
      <trkpt lat="49.0906" lon="-1.58413">
        <ele>12.4</ele>
        <time>2020-06-12T05:05:37Z</time>
      </trkpt>
      <trkpt lat="49.0906" lon="-1.58406">
        <ele>12.4</ele>
        <time>2020-06-12T05:05:38Z</time>
      </trkpt>
      <trkpt lat="49.0906" lon="-1.584">
        <ele>12.5</ele>
        <time>2020-06-12T05:05:39Z</time>
      </trkpt>
      <trkpt lat="49.09059" lon="-1.58394">
        <ele>12.5</ele>
        <time>2020-06-12T05:05:40Z</time>
      </trkpt>
      <trkpt lat="49.09059" lon="-1.58388">
        <ele>12.5</ele>
        <time>2020-06-12T05:05:41Z</time>
      </trkpt>
      <trkpt lat="49.09058" lon="-1.58382">
        <ele>12.5</ele>
        <time>2020-06-12T05:05:42Z</time>
      </trkpt>
      <trkpt lat="49.09058" lon="-1.58375">
        <ele>12.6</ele>
        <time>2020-06-12T05:05:43Z</time>
      </trkpt>
      <trkpt lat="49.09057" lon="-1.58369">
        <ele>12.6</ele>
        <time>2020-06-12T05:05:44Z</time>
      </trkpt>
      <trkpt lat="49.09056" lon="-1.58363">
        <ele>12.6</ele>
        <time>2020-06-12T05:05:45Z</time>
      </trkpt>
      <trkpt lat="49.09055" lon="-1.58357">
        <ele>12.6</ele>
        <time>2020-06-12T05:05:46Z</time>
      </trkpt>
      <trkpt lat="49.09053" lon="-1.58351">
        <ele>12.7</ele>
        <time>2020-06-12T05:05:47Z</time>
      </trkpt>
      <trkpt lat="49.09052" lon="-1.58343">
        <ele>12.7</ele>
        <time>2020-06-12T05:05:48Z</time>
      </trkpt>
      <trkpt lat="49.09049" lon="-1.58337">
        <ele>12.8</ele>
        <time>2020-06-12T05:05:49Z</time>
      </trkpt>
      <trkpt lat="49.09047" lon="-1.58328">
        <ele>12.8</ele>
        <time>2020-06-12T05:05:50Z</time>
      </trkpt>
      <trkpt lat="49.09045" lon="-1.58322">
        <ele>12.8</ele>
        <time>2020-06-12T05:05:51Z</time>
      </trkpt>
      <trkpt lat="49.09042" lon="-1.58314">
        <ele>12.8</ele>
        <time>2020-06-12T05:05:52Z</time>
      </trkpt>
      <trkpt lat="49.0904" lon="-1.58306">
        <ele>12.8</ele>
        <time>2020-06-12T05:05:53Z</time>
      </trkpt>
      <trkpt lat="49.09038" lon="-1.58299">
        <ele>12.8</ele>
        <time>2020-06-12T05:05:54Z</time>
      </trkpt>
      <trkpt lat="49.09037" lon="-1.58291">
        <ele>12.8</ele>
        <time>2020-06-12T05:05:55Z</time>
      </trkpt>
      <trkpt lat="49.09035" lon="-1.58283">
        <ele>12.8</ele>
        <time>2020-06-12T05:05:56Z</time>
      </trkpt>
      <trkpt lat="49.09033" lon="-1.58277">
        <ele>12.8</ele>
        <time>2020-06-12T05:05:57Z</time>
      </trkpt>
      <trkpt lat="49.09031" lon="-1.58272">
        <ele>12.9</ele>
        <time>2020-06-12T05:05:58Z</time>
      </trkpt>
      <trkpt lat="49.09029" lon="-1.58265">
        <ele>12.9</ele>
        <time>2020-06-12T05:05:59Z</time>
      </trkpt>
      <trkpt lat="49.09026" lon="-1.58257">
        <ele>13</ele>
        <time>2020-06-12T05:06:00Z</time>
      </trkpt>
      <trkpt lat="49.09023" lon="-1.5825">
        <ele>13</ele>
        <time>2020-06-12T05:06:01Z</time>
      </trkpt>
      <trkpt lat="49.09019" lon="-1.58244">
        <ele>13.1</ele>
        <time>2020-06-12T05:06:02Z</time>
      </trkpt>
      <trkpt lat="49.09017" lon="-1.5824">
        <ele>13.1</ele>
        <time>2020-06-12T05:06:03Z</time>
      </trkpt>
      <trkpt lat="49.09015" lon="-1.58233">
        <ele>13.1</ele>
        <time>2020-06-12T05:06:04Z</time>
      </trkpt>
      <trkpt lat="49.09013" lon="-1.58227">
        <ele>13.1</ele>
        <time>2020-06-12T05:06:05Z</time>
      </trkpt>
      <trkpt lat="49.09012" lon="-1.58223">
        <ele>13.1</ele>
        <time>2020-06-12T05:06:06Z</time>
      </trkpt>
      <trkpt lat="49.0901" lon="-1.58217">
        <ele>13.1</ele>
        <time>2020-06-12T05:06:07Z</time>
      </trkpt>
      <trkpt lat="49.09008" lon="-1.58211">
        <ele>13.1</ele>
        <time>2020-06-12T05:06:08Z</time>
      </trkpt>
      <trkpt lat="49.09007" lon="-1.58204">
        <ele>13.1</ele>
        <time>2020-06-12T05:06:09Z</time>
      </trkpt>
      <trkpt lat="49.09006" lon="-1.58198">
        <ele>13.1</ele>
        <time>2020-06-12T05:06:10Z</time>
      </trkpt>
      <trkpt lat="49.09005" lon="-1.58191">
        <ele>13.1</ele>
        <time>2020-06-12T05:06:11Z</time>
      </trkpt>
      <trkpt lat="49.09004" lon="-1.58184">
        <ele>13.2</ele>
        <time>2020-06-12T05:06:12Z</time>
      </trkpt>
      <trkpt lat="49.09004" lon="-1.58177">
        <ele>13.2</ele>
        <time>2020-06-12T05:06:13Z</time>
      </trkpt>
      <trkpt lat="49.09004" lon="-1.58171">
        <ele>13.2</ele>
        <time>2020-06-12T05:06:14Z</time>
      </trkpt>
      <trkpt lat="49.09004" lon="-1.58165">
        <ele>13.3</ele>
        <time>2020-06-12T05:06:15Z</time>
      </trkpt>
      <trkpt lat="49.09003" lon="-1.58159">
        <ele>13.3</ele>
        <time>2020-06-12T05:06:16Z</time>
      </trkpt>
      <trkpt lat="49.09004" lon="-1.58153">
        <ele>13.3</ele>
        <time>2020-06-12T05:06:17Z</time>
      </trkpt>
      <trkpt lat="49.09004" lon="-1.58147">
        <ele>13.3</ele>
        <time>2020-06-12T05:06:18Z</time>
      </trkpt>
      <trkpt lat="49.09004" lon="-1.5814">
        <ele>13.3</ele>
        <time>2020-06-12T05:06:19Z</time>
      </trkpt>
      <trkpt lat="49.09004" lon="-1.58133">
        <ele>13.3</ele>
        <time>2020-06-12T05:06:20Z</time>
      </trkpt>
      <trkpt lat="49.09006" lon="-1.58127">
        <ele>13.3</ele>
        <time>2020-06-12T05:06:21Z</time>
      </trkpt>
      <trkpt lat="49.09006" lon="-1.58122">
        <ele>13.4</ele>
        <time>2020-06-12T05:06:22Z</time>
      </trkpt>
      <trkpt lat="49.09006" lon="-1.58118">
        <ele>13.4</ele>
        <time>2020-06-12T05:06:23Z</time>
      </trkpt>
      <trkpt lat="49.09007" lon="-1.58112">
        <ele>13.4</ele>
        <time>2020-06-12T05:06:24Z</time>
      </trkpt>
      <trkpt lat="49.09007" lon="-1.58104">
        <ele>13.4</ele>
        <time>2020-06-12T05:06:25Z</time>
      </trkpt>
      <trkpt lat="49.09007" lon="-1.58097">
        <ele>13.5</ele>
        <time>2020-06-12T05:06:26Z</time>
      </trkpt>
      <trkpt lat="49.09008" lon="-1.58089">
        <ele>13.5</ele>
        <time>2020-06-12T05:06:27Z</time>
      </trkpt>
      <trkpt lat="49.09008" lon="-1.58081">
        <ele>13.6</ele>
        <time>2020-06-12T05:06:28Z</time>
      </trkpt>
      <trkpt lat="49.09009" lon="-1.58074">
        <ele>13.6</ele>
        <time>2020-06-12T05:06:29Z</time>
      </trkpt>
      <trkpt lat="49.09009" lon="-1.58066">
        <ele>13.7</ele>
        <time>2020-06-12T05:06:30Z</time>
      </trkpt>
      <trkpt lat="49.09008" lon="-1.58058">
        <ele>13.7</ele>
        <time>2020-06-12T05:06:31Z</time>
      </trkpt>
      <trkpt lat="49.09007" lon="-1.5805">
        <ele>13.8</ele>
        <time>2020-06-12T05:06:32Z</time>
      </trkpt>
      <trkpt lat="49.09006" lon="-1.58045">
        <ele>13.8</ele>
        <time>2020-06-12T05:06:33Z</time>
      </trkpt>
      <trkpt lat="49.09005" lon="-1.58037">
        <ele>13.9</ele>
        <time>2020-06-12T05:06:34Z</time>
      </trkpt>
      <trkpt lat="49.09004" lon="-1.5803">
        <ele>14</ele>
        <time>2020-06-12T05:06:35Z</time>
      </trkpt>
      <trkpt lat="49.09004" lon="-1.58023">
        <ele>14</ele>
        <time>2020-06-12T05:06:36Z</time>
      </trkpt>
      <trkpt lat="49.09003" lon="-1.58016">
        <ele>14.1</ele>
        <time>2020-06-12T05:06:37Z</time>
      </trkpt>
      <trkpt lat="49.09003" lon="-1.58009">
        <ele>14.1</ele>
        <time>2020-06-12T05:06:38Z</time>
      </trkpt>
      <trkpt lat="49.09002" lon="-1.58002">
        <ele>14.1</ele>
        <time>2020-06-12T05:06:39Z</time>
      </trkpt>
      <trkpt lat="49.09001" lon="-1.57994">
        <ele>14.2</ele>
        <time>2020-06-12T05:06:40Z</time>
      </trkpt>
      <trkpt lat="49.09001" lon="-1.57986">
        <ele>14.2</ele>
        <time>2020-06-12T05:06:41Z</time>
      </trkpt>
      <trkpt lat="49.09001" lon="-1.57979">
        <ele>14.2</ele>
        <time>2020-06-12T05:06:42Z</time>
      </trkpt>
      <trkpt lat="49.09003" lon="-1.57971">
        <ele>14.2</ele>
        <time>2020-06-12T05:06:43Z</time>
      </trkpt>
      <trkpt lat="49.09004" lon="-1.57963">
        <ele>14.2</ele>
        <time>2020-06-12T05:06:44Z</time>
      </trkpt>
      <trkpt lat="49.09005" lon="-1.57955">
        <ele>14.2</ele>
        <time>2020-06-12T05:06:45Z</time>
      </trkpt>
      <trkpt lat="49.09006" lon="-1.57948">
        <ele>14.1</ele>
        <time>2020-06-12T05:06:46Z</time>
      </trkpt>
      <trkpt lat="49.09007" lon="-1.5794">
        <ele>14.1</ele>
        <time>2020-06-12T05:06:47Z</time>
      </trkpt>
      <trkpt lat="49.09007" lon="-1.57931">
        <ele>14.1</ele>
        <time>2020-06-12T05:06:48Z</time>
      </trkpt>
      <trkpt lat="49.09007" lon="-1.57923">
        <ele>14.1</ele>
        <time>2020-06-12T05:06:49Z</time>
      </trkpt>
      <trkpt lat="49.09008" lon="-1.57916">
        <ele>14.1</ele>
        <time>2020-06-12T05:06:50Z</time>
      </trkpt>
      <trkpt lat="49.09009" lon="-1.57908">
        <ele>14.1</ele>
        <time>2020-06-12T05:06:51Z</time>
      </trkpt>
      <trkpt lat="49.09011" lon="-1.57902">
        <ele>14.1</ele>
        <time>2020-06-12T05:06:52Z</time>
      </trkpt>
      <trkpt lat="49.09012" lon="-1.57896">
        <ele>14.1</ele>
        <time>2020-06-12T05:06:53Z</time>
      </trkpt>
      <trkpt lat="49.09014" lon="-1.57889">
        <ele>14.1</ele>
        <time>2020-06-12T05:06:54Z</time>
      </trkpt>
      <trkpt lat="49.09015" lon="-1.57883">
        <ele>14.1</ele>
        <time>2020-06-12T05:06:55Z</time>
      </trkpt>
      <trkpt lat="49.09016" lon="-1.57877">
        <ele>14.1</ele>
        <time>2020-06-12T05:06:56Z</time>
      </trkpt>
      <trkpt lat="49.09017" lon="-1.57871">
        <ele>14.1</ele>
        <time>2020-06-12T05:06:57Z</time>
      </trkpt>
      <trkpt lat="49.09017" lon="-1.57865">
        <ele>14.1</ele>
        <time>2020-06-12T05:06:58Z</time>
      </trkpt>
      <trkpt lat="49.09018" lon="-1.57858">
        <ele>14.1</ele>
        <time>2020-06-12T05:06:59Z</time>
      </trkpt>
      <trkpt lat="49.09019" lon="-1.57852">
        <ele>14.2</ele>
        <time>2020-06-12T05:07:00Z</time>
      </trkpt>
      <trkpt lat="49.0902" lon="-1.57846">
        <ele>14.2</ele>
        <time>2020-06-12T05:07:01Z</time>
      </trkpt>
      <trkpt lat="49.09021" lon="-1.5784">
        <ele>14.3</ele>
        <time>2020-06-12T05:07:02Z</time>
      </trkpt>
      <trkpt lat="49.09022" lon="-1.57833">
        <ele>14.4</ele>
        <time>2020-06-12T05:07:03Z</time>
      </trkpt>
      <trkpt lat="49.09023" lon="-1.57827">
        <ele>14.5</ele>
        <time>2020-06-12T05:07:04Z</time>
      </trkpt>
      <trkpt lat="49.09024" lon="-1.5782">
        <ele>14.6</ele>
        <time>2020-06-12T05:07:05Z</time>
      </trkpt>
      <trkpt lat="49.09026" lon="-1.57813">
        <ele>14.7</ele>
        <time>2020-06-12T05:07:06Z</time>
      </trkpt>
      <trkpt lat="49.09028" lon="-1.57806">
        <ele>14.8</ele>
        <time>2020-06-12T05:07:07Z</time>
      </trkpt>
      <trkpt lat="49.09029" lon="-1.57801">
        <ele>14.8</ele>
        <time>2020-06-12T05:07:08Z</time>
      </trkpt>
      <trkpt lat="49.0903" lon="-1.57795">
        <ele>14.9</ele>
        <time>2020-06-12T05:07:09Z</time>
      </trkpt>
      <trkpt lat="49.0903" lon="-1.57788">
        <ele>15</ele>
        <time>2020-06-12T05:07:10Z</time>
      </trkpt>
      <trkpt lat="49.09031" lon="-1.57782">
        <ele>15</ele>
        <time>2020-06-12T05:07:11Z</time>
      </trkpt>
      <trkpt lat="49.09032" lon="-1.57774">
        <ele>15.1</ele>
        <time>2020-06-12T05:07:12Z</time>
      </trkpt>
      <trkpt lat="49.09034" lon="-1.57767">
        <ele>15.2</ele>
        <time>2020-06-12T05:07:13Z</time>
      </trkpt>
      <trkpt lat="49.09035" lon="-1.57759">
        <ele>15.4</ele>
        <time>2020-06-12T05:07:14Z</time>
      </trkpt>
      <trkpt lat="49.09036" lon="-1.57753">
        <ele>15.5</ele>
        <time>2020-06-12T05:07:15Z</time>
      </trkpt>
      <trkpt lat="49.09036" lon="-1.57746">
        <ele>15.6</ele>
        <time>2020-06-12T05:07:16Z</time>
      </trkpt>
      <trkpt lat="49.09036" lon="-1.57738">
        <ele>15.7</ele>
        <time>2020-06-12T05:07:17Z</time>
      </trkpt>
      <trkpt lat="49.09036" lon="-1.57731">
        <ele>15.8</ele>
        <time>2020-06-12T05:07:18Z</time>
      </trkpt>
      <trkpt lat="49.09036" lon="-1.57723">
        <ele>15.9</ele>
        <time>2020-06-12T05:07:19Z</time>
      </trkpt>
      <trkpt lat="49.09036" lon="-1.57716">
        <ele>16</ele>
        <time>2020-06-12T05:07:20Z</time>
      </trkpt>
      <trkpt lat="49.09037" lon="-1.57709">
        <ele>16.1</ele>
        <time>2020-06-12T05:07:21Z</time>
      </trkpt>
      <trkpt lat="49.09037" lon="-1.57704">
        <ele>16.2</ele>
        <time>2020-06-12T05:07:22Z</time>
      </trkpt>
      <trkpt lat="49.09038" lon="-1.57698">
        <ele>16.3</ele>
        <time>2020-06-12T05:07:23Z</time>
      </trkpt>
      <trkpt lat="49.09037" lon="-1.57693">
        <ele>16.3</ele>
        <time>2020-06-12T05:07:24Z</time>
      </trkpt>
      <trkpt lat="49.09037" lon="-1.57688">
        <ele>16.4</ele>
        <time>2020-06-12T05:07:25Z</time>
      </trkpt>
      <trkpt lat="49.09037" lon="-1.57682">
        <ele>16.5</ele>
        <time>2020-06-12T05:07:26Z</time>
      </trkpt>
      <trkpt lat="49.09037" lon="-1.57677">
        <ele>16.6</ele>
        <time>2020-06-12T05:07:27Z</time>
      </trkpt>
      <trkpt lat="49.09037" lon="-1.57671">
        <ele>16.7</ele>
        <time>2020-06-12T05:07:28Z</time>
      </trkpt>
      <trkpt lat="49.09037" lon="-1.57665">
        <ele>16.8</ele>
        <time>2020-06-12T05:07:29Z</time>
      </trkpt>
      <trkpt lat="49.09037" lon="-1.5766">
        <ele>16.9</ele>
        <time>2020-06-12T05:07:30Z</time>
      </trkpt>
      <trkpt lat="49.09037" lon="-1.57654">
        <ele>17</ele>
        <time>2020-06-12T05:07:31Z</time>
      </trkpt>
      <trkpt lat="49.09037" lon="-1.57648">
        <ele>17.1</ele>
        <time>2020-06-12T05:07:32Z</time>
      </trkpt>
      <trkpt lat="49.09038" lon="-1.57641">
        <ele>17.2</ele>
        <time>2020-06-12T05:07:33Z</time>
      </trkpt>
      <trkpt lat="49.09038" lon="-1.57634">
        <ele>17.3</ele>
        <time>2020-06-12T05:07:34Z</time>
      </trkpt>
      <trkpt lat="49.09038" lon="-1.57627">
        <ele>17.4</ele>
        <time>2020-06-12T05:07:35Z</time>
      </trkpt>
      <trkpt lat="49.09038" lon="-1.57619">
        <ele>17.5</ele>
        <time>2020-06-12T05:07:36Z</time>
      </trkpt>
      <trkpt lat="49.09037" lon="-1.57612">
        <ele>17.6</ele>
        <time>2020-06-12T05:07:37Z</time>
      </trkpt>
      <trkpt lat="49.09038" lon="-1.57605">
        <ele>17.7</ele>
        <time>2020-06-12T05:07:38Z</time>
      </trkpt>
      <trkpt lat="49.09037" lon="-1.57599">
        <ele>17.8</ele>
        <time>2020-06-12T05:07:39Z</time>
      </trkpt>
      <trkpt lat="49.09037" lon="-1.57593">
        <ele>17.8</ele>
        <time>2020-06-12T05:07:40Z</time>
      </trkpt>
      <trkpt lat="49.09036" lon="-1.57585">
        <ele>17.9</ele>
        <time>2020-06-12T05:07:41Z</time>
      </trkpt>
      <trkpt lat="49.09035" lon="-1.57576">
        <ele>17.9</ele>
        <time>2020-06-12T05:07:42Z</time>
      </trkpt>
      <trkpt lat="49.09034" lon="-1.57566">
        <ele>18</ele>
        <time>2020-06-12T05:07:43Z</time>
      </trkpt>
      <trkpt lat="49.09032" lon="-1.57558">
        <ele>18</ele>
        <time>2020-06-12T05:07:44Z</time>
      </trkpt>
      <trkpt lat="49.09031" lon="-1.57551">
        <ele>18</ele>
        <time>2020-06-12T05:07:45Z</time>
      </trkpt>
      <trkpt lat="49.0903" lon="-1.57544">
        <ele>18.1</ele>
        <time>2020-06-12T05:07:46Z</time>
      </trkpt>
      <trkpt lat="49.09029" lon="-1.57539">
        <ele>18.1</ele>
        <time>2020-06-12T05:07:47Z</time>
      </trkpt>
      <trkpt lat="49.09029" lon="-1.57534">
        <ele>18.2</ele>
        <time>2020-06-12T05:07:48Z</time>
      </trkpt>
      <trkpt lat="49.09028" lon="-1.57529">
        <ele>18.2</ele>
        <time>2020-06-12T05:07:49Z</time>
      </trkpt>
      <trkpt lat="49.09028" lon="-1.57524">
        <ele>18.3</ele>
        <time>2020-06-12T05:07:50Z</time>
      </trkpt>
      <trkpt lat="49.09029" lon="-1.5752">
        <ele>18.4</ele>
        <time>2020-06-12T05:07:51Z</time>
      </trkpt>
      <trkpt lat="49.09029" lon="-1.57514">
        <ele>18.5</ele>
        <time>2020-06-12T05:07:52Z</time>
      </trkpt>
      <trkpt lat="49.09029" lon="-1.57509">
        <ele>18.6</ele>
        <time>2020-06-12T05:07:53Z</time>
      </trkpt>
      <trkpt lat="49.09029" lon="-1.57504">
        <ele>18.6</ele>
        <time>2020-06-12T05:07:54Z</time>
      </trkpt>
      <trkpt lat="49.09028" lon="-1.57498">
        <ele>18.7</ele>
        <time>2020-06-12T05:07:55Z</time>
      </trkpt>
      <trkpt lat="49.09028" lon="-1.57492">
        <ele>18.8</ele>
        <time>2020-06-12T05:07:56Z</time>
      </trkpt>
      <trkpt lat="49.09027" lon="-1.57486">
        <ele>18.9</ele>
        <time>2020-06-12T05:07:57Z</time>
      </trkpt>
      <trkpt lat="49.09026" lon="-1.5748">
        <ele>19</ele>
        <time>2020-06-12T05:07:58Z</time>
      </trkpt>
      <trkpt lat="49.09026" lon="-1.57474">
        <ele>19.1</ele>
        <time>2020-06-12T05:07:59Z</time>
      </trkpt>
      <trkpt lat="49.09026" lon="-1.57468">
        <ele>19.2</ele>
        <time>2020-06-12T05:08:00Z</time>
      </trkpt>
      <trkpt lat="49.09026" lon="-1.57462">
        <ele>19.3</ele>
        <time>2020-06-12T05:08:01Z</time>
      </trkpt>
      <trkpt lat="49.09026" lon="-1.57455">
        <ele>19.5</ele>
        <time>2020-06-12T05:08:02Z</time>
      </trkpt>
      <trkpt lat="49.09026" lon="-1.57449">
        <ele>19.6</ele>
        <time>2020-06-12T05:08:03Z</time>
      </trkpt>
      <trkpt lat="49.09026" lon="-1.57443">
        <ele>19.8</ele>
        <time>2020-06-12T05:08:04Z</time>
      </trkpt>
      <trkpt lat="49.09025" lon="-1.57436">
        <ele>19.9</ele>
        <time>2020-06-12T05:08:05Z</time>
      </trkpt>
      <trkpt lat="49.09026" lon="-1.5743">
        <ele>20</ele>
        <time>2020-06-12T05:08:06Z</time>
      </trkpt>
      <trkpt lat="49.09027" lon="-1.57424">
        <ele>20.1</ele>
        <time>2020-06-12T05:08:07Z</time>
      </trkpt>
      <trkpt lat="49.09027" lon="-1.57419">
        <ele>20.2</ele>
        <time>2020-06-12T05:08:08Z</time>
      </trkpt>
      <trkpt lat="49.09027" lon="-1.57413">
        <ele>20.4</ele>
        <time>2020-06-12T05:08:09Z</time>
      </trkpt>
      <trkpt lat="49.09028" lon="-1.57407">
        <ele>20.5</ele>
        <time>2020-06-12T05:08:10Z</time>
      </trkpt>
      <trkpt lat="49.09028" lon="-1.57401">
        <ele>20.6</ele>
        <time>2020-06-12T05:08:11Z</time>
      </trkpt>
      <trkpt lat="49.09028" lon="-1.57396">
        <ele>20.7</ele>
        <time>2020-06-12T05:08:12Z</time>
      </trkpt>
      <trkpt lat="49.09028" lon="-1.5739">
        <ele>20.8</ele>
        <time>2020-06-12T05:08:13Z</time>
      </trkpt>
      <trkpt lat="49.09028" lon="-1.57384">
        <ele>20.9</ele>
        <time>2020-06-12T05:08:14Z</time>
      </trkpt>
      <trkpt lat="49.09028" lon="-1.57378">
        <ele>21</ele>
        <time>2020-06-12T05:08:15Z</time>
      </trkpt>
      <trkpt lat="49.09029" lon="-1.57372">
        <ele>21</ele>
        <time>2020-06-12T05:08:16Z</time>
      </trkpt>
      <trkpt lat="49.09029" lon="-1.57366">
        <ele>21.1</ele>
        <time>2020-06-12T05:08:17Z</time>
      </trkpt>
      <trkpt lat="49.09029" lon="-1.57359">
        <ele>21.2</ele>
        <time>2020-06-12T05:08:18Z</time>
      </trkpt>
      <trkpt lat="49.0903" lon="-1.57354">
        <ele>21.3</ele>
        <time>2020-06-12T05:08:19Z</time>
      </trkpt>
      <trkpt lat="49.0903" lon="-1.57348">
        <ele>21.4</ele>
        <time>2020-06-12T05:08:20Z</time>
      </trkpt>
      <trkpt lat="49.0903" lon="-1.57342">
        <ele>21.6</ele>
        <time>2020-06-12T05:08:21Z</time>
      </trkpt>
      <trkpt lat="49.0903" lon="-1.57336">
        <ele>21.7</ele>
        <time>2020-06-12T05:08:22Z</time>
      </trkpt>
      <trkpt lat="49.0903" lon="-1.5733">
        <ele>21.9</ele>
        <time>2020-06-12T05:08:23Z</time>
      </trkpt>
      <trkpt lat="49.0903" lon="-1.57324">
        <ele>22.1</ele>
        <time>2020-06-12T05:08:24Z</time>
      </trkpt>
      <trkpt lat="49.0903" lon="-1.57317">
        <ele>22.4</ele>
        <time>2020-06-12T05:08:25Z</time>
      </trkpt>
      <trkpt lat="49.0903" lon="-1.57311">
        <ele>22.5</ele>
        <time>2020-06-12T05:08:26Z</time>
      </trkpt>
      <trkpt lat="49.09031" lon="-1.57306">
        <ele>22.6</ele>
        <time>2020-06-12T05:08:27Z</time>
      </trkpt>
      <trkpt lat="49.09031" lon="-1.573">
        <ele>22.7</ele>
        <time>2020-06-12T05:08:28Z</time>
      </trkpt>
      <trkpt lat="49.09031" lon="-1.57294">
        <ele>22.8</ele>
        <time>2020-06-12T05:08:29Z</time>
      </trkpt>
      <trkpt lat="49.09032" lon="-1.57289">
        <ele>22.8</ele>
        <time>2020-06-12T05:08:30Z</time>
      </trkpt>
      <trkpt lat="49.09032" lon="-1.57283">
        <ele>22.9</ele>
        <time>2020-06-12T05:08:31Z</time>
      </trkpt>
      <trkpt lat="49.09033" lon="-1.57276">
        <ele>23</ele>
        <time>2020-06-12T05:08:32Z</time>
      </trkpt>
      <trkpt lat="49.09034" lon="-1.5727">
        <ele>23.1</ele>
        <time>2020-06-12T05:08:33Z</time>
      </trkpt>
      <trkpt lat="49.09034" lon="-1.57264">
        <ele>23.2</ele>
        <time>2020-06-12T05:08:34Z</time>
      </trkpt>
      <trkpt lat="49.09034" lon="-1.57258">
        <ele>23.3</ele>
        <time>2020-06-12T05:08:35Z</time>
      </trkpt>
      <trkpt lat="49.09034" lon="-1.57252">
        <ele>23.5</ele>
        <time>2020-06-12T05:08:36Z</time>
      </trkpt>
      <trkpt lat="49.09034" lon="-1.57246">
        <ele>23.7</ele>
        <time>2020-06-12T05:08:37Z</time>
      </trkpt>
      <trkpt lat="49.09035" lon="-1.57239">
        <ele>23.8</ele>
        <time>2020-06-12T05:08:38Z</time>
      </trkpt>
      <trkpt lat="49.09035" lon="-1.57234">
        <ele>24</ele>
        <time>2020-06-12T05:08:39Z</time>
      </trkpt>
      <trkpt lat="49.09035" lon="-1.57228">
        <ele>24.1</ele>
        <time>2020-06-12T05:08:40Z</time>
      </trkpt>
      <trkpt lat="49.09038" lon="-1.57223">
        <ele>24.2</ele>
        <time>2020-06-12T05:08:41Z</time>
      </trkpt>
      <trkpt lat="49.0904" lon="-1.5722">
        <ele>24.2</ele>
        <time>2020-06-12T05:08:42Z</time>
      </trkpt>
      <trkpt lat="49.09043" lon="-1.57219">
        <ele>24.1</ele>
        <time>2020-06-12T05:08:43Z</time>
      </trkpt>
      <trkpt lat="49.09046" lon="-1.57218">
        <ele>24</ele>
        <time>2020-06-12T05:08:44Z</time>
      </trkpt>
      <trkpt lat="49.09048" lon="-1.57218">
        <ele>24</ele>
        <time>2020-06-12T05:08:45Z</time>
      </trkpt>
      <trkpt lat="49.09051" lon="-1.57219">
        <ele>23.8</ele>
        <time>2020-06-12T05:08:46Z</time>
      </trkpt>
      <trkpt lat="49.09052" lon="-1.57219">
        <ele>23.8</ele>
        <time>2020-06-12T05:08:47Z</time>
      </trkpt>
      <trkpt lat="49.09056" lon="-1.5722">
        <ele>23.6</ele>
        <time>2020-06-12T05:08:48Z</time>
      </trkpt>
      <trkpt lat="49.09057" lon="-1.57221">
        <ele>23.6</ele>
        <time>2020-06-12T05:08:49Z</time>
      </trkpt>
      <trkpt lat="49.09061" lon="-1.57224">
        <ele>23.4</ele>
        <time>2020-06-12T05:08:50Z</time>
      </trkpt>
      <trkpt lat="49.09062" lon="-1.57225">
        <ele>23.3</ele>
        <time>2020-06-12T05:08:51Z</time>
      </trkpt>
      <trkpt lat="49.09065" lon="-1.57226">
        <ele>23.2</ele>
        <time>2020-06-12T05:08:52Z</time>
      </trkpt>
      <trkpt lat="49.09069" lon="-1.57227">
        <ele>23</ele>
        <time>2020-06-12T05:08:53Z</time>
      </trkpt>
      <trkpt lat="49.09072" lon="-1.57229">
        <ele>22.8</ele>
        <time>2020-06-12T05:08:54Z</time>
      </trkpt>
      <trkpt lat="49.09075" lon="-1.5723">
        <ele>22.7</ele>
        <time>2020-06-12T05:08:55Z</time>
      </trkpt>
      <trkpt lat="49.09079" lon="-1.57232">
        <ele>22.5</ele>
        <time>2020-06-12T05:08:56Z</time>
      </trkpt>
      <trkpt lat="49.09083" lon="-1.57234">
        <ele>22.3</ele>
        <time>2020-06-12T05:08:57Z</time>
      </trkpt>
      <trkpt lat="49.09088" lon="-1.57236">
        <ele>22</ele>
        <time>2020-06-12T05:08:58Z</time>
      </trkpt>
      <trkpt lat="49.09093" lon="-1.57238">
        <ele>21.8</ele>
        <time>2020-06-12T05:08:59Z</time>
      </trkpt>
      <trkpt lat="49.09098" lon="-1.57239">
        <ele>21.7</ele>
        <time>2020-06-12T05:09:00Z</time>
      </trkpt>
      <trkpt lat="49.09103" lon="-1.57242">
        <ele>21.5</ele>
        <time>2020-06-12T05:09:01Z</time>
      </trkpt>
      <trkpt lat="49.09107" lon="-1.57245">
        <ele>21.3</ele>
        <time>2020-06-12T05:09:02Z</time>
      </trkpt>
      <trkpt lat="49.09111" lon="-1.57248">
        <ele>21.2</ele>
        <time>2020-06-12T05:09:03Z</time>
      </trkpt>
      <trkpt lat="49.09117" lon="-1.57253">
        <ele>20.9</ele>
        <time>2020-06-12T05:09:04Z</time>
      </trkpt>
      <trkpt lat="49.09123" lon="-1.57255">
        <ele>20.7</ele>
        <time>2020-06-12T05:09:05Z</time>
      </trkpt>
      <trkpt lat="49.09129" lon="-1.57257">
        <ele>20.5</ele>
        <time>2020-06-12T05:09:06Z</time>
      </trkpt>
      <trkpt lat="49.09134" lon="-1.57259">
        <ele>20.3</ele>
        <time>2020-06-12T05:09:07Z</time>
      </trkpt>
      <trkpt lat="49.09137" lon="-1.57261">
        <ele>20</ele>
        <time>2020-06-12T05:09:08Z</time>
      </trkpt>
      <trkpt lat="49.09141" lon="-1.57263">
        <ele>20.2</ele>
        <time>2020-06-12T05:09:09Z</time>
      </trkpt>
      <trkpt lat="49.09142" lon="-1.57264">
        <ele>20.2</ele>
        <time>2020-06-12T05:09:10Z</time>
      </trkpt>
      <trkpt lat="49.09145" lon="-1.57266">
        <ele>20.3</ele>
        <time>2020-06-12T05:09:11Z</time>
      </trkpt>
      <trkpt lat="49.09145" lon="-1.57267">
        <ele>20.3</ele>
        <time>2020-06-12T05:09:12Z</time>
      </trkpt>
      <trkpt lat="49.09146" lon="-1.57268">
        <ele>20.3</ele>
        <time>2020-06-12T05:09:13Z</time>
      </trkpt>
      <trkpt lat="49.09147" lon="-1.57267">
        <ele>20.4</ele>
        <time>2020-06-12T05:09:14Z</time>
      </trkpt>
      <trkpt lat="49.09147" lon="-1.57267">
        <ele>20.4</ele>
        <time>2020-06-12T05:09:15Z</time>
      </trkpt>
      <trkpt lat="49.09148" lon="-1.57267">
        <ele>20.4</ele>
        <time>2020-06-12T05:09:16Z</time>
      </trkpt>
      <trkpt lat="49.09148" lon="-1.57267">
        <ele>20.4</ele>
        <time>2020-06-12T05:09:17Z</time>
      </trkpt>
      <trkpt lat="49.09148" lon="-1.57268">
        <ele>20.4</ele>
        <time>2020-06-12T05:09:18Z</time>
      </trkpt>
      <trkpt lat="49.09148" lon="-1.57268">
        <ele>20.4</ele>
        <time>2020-06-12T05:09:19Z</time>
      </trkpt>
      <trkpt lat="49.09148" lon="-1.57267">
        <ele>20.4</ele>
        <time>2020-06-12T05:09:20Z</time>
      </trkpt>
      <trkpt lat="49.09149" lon="-1.57266">
        <ele>20.5</ele>
        <time>2020-06-12T05:09:21Z</time>
      </trkpt>
      <trkpt lat="49.09149" lon="-1.57265">
        <ele>20.5</ele>
        <time>2020-06-12T05:09:22Z</time>
      </trkpt>
      <trkpt lat="49.09149" lon="-1.57264">
        <ele>20.5</ele>
        <time>2020-06-12T05:09:23Z</time>
      </trkpt>
      <trkpt lat="49.0915" lon="-1.57263">
        <ele>20.5</ele>
        <time>2020-06-12T05:09:24Z</time>
      </trkpt>
      <trkpt lat="49.09149" lon="-1.57263">
        <ele>20.5</ele>
        <time>2020-06-12T05:09:25Z</time>
      </trkpt>
      <trkpt lat="49.09149" lon="-1.5726">
        <ele>20.5</ele>
        <time>2020-06-12T05:09:26Z</time>
      </trkpt>
      <trkpt lat="49.0915" lon="-1.57258">
        <ele>20.6</ele>
        <time>2020-06-12T05:09:27Z</time>
      </trkpt>
      <trkpt lat="49.09152" lon="-1.57254">
        <ele>20.6</ele>
        <time>2020-06-12T05:09:28Z</time>
      </trkpt>
      <trkpt lat="49.09152" lon="-1.57253">
        <ele>20.6</ele>
        <time>2020-06-12T05:09:29Z</time>
      </trkpt>
      <trkpt lat="49.09155" lon="-1.57248">
        <ele>20.7</ele>
        <time>2020-06-12T05:09:30Z</time>
      </trkpt>
      <trkpt lat="49.09155" lon="-1.57246">
        <ele>20.7</ele>
        <time>2020-06-12T05:09:31Z</time>
      </trkpt>
      <trkpt lat="49.09157" lon="-1.57242">
        <ele>20.7</ele>
        <time>2020-06-12T05:09:32Z</time>
      </trkpt>
      <trkpt lat="49.09158" lon="-1.57237">
        <ele>20.7</ele>
        <time>2020-06-12T05:09:33Z</time>
      </trkpt>
      <trkpt lat="49.09159" lon="-1.57235">
        <ele>20.7</ele>
        <time>2020-06-12T05:09:34Z</time>
      </trkpt>
      <trkpt lat="49.09159" lon="-1.5723">
        <ele>20.7</ele>
        <time>2020-06-12T05:09:35Z</time>
      </trkpt>
      <trkpt lat="49.09159" lon="-1.57223">
        <ele>20.6</ele>
        <time>2020-06-12T05:09:36Z</time>
      </trkpt>
      <trkpt lat="49.0916" lon="-1.57219">
        <ele>20.6</ele>
        <time>2020-06-12T05:09:37Z</time>
      </trkpt>
      <trkpt lat="49.09161" lon="-1.57214">
        <ele>20.6</ele>
        <time>2020-06-12T05:09:38Z</time>
      </trkpt>
      <trkpt lat="49.09164" lon="-1.57211">
        <ele>20.6</ele>
        <time>2020-06-12T05:09:39Z</time>
      </trkpt>
      <trkpt lat="49.09164" lon="-1.5721">
        <ele>20.5</ele>
        <time>2020-06-12T05:09:40Z</time>
      </trkpt>
      <trkpt lat="49.09165" lon="-1.57207">
        <ele>20.5</ele>
        <time>2020-06-12T05:09:41Z</time>
      </trkpt>
      <trkpt lat="49.09165" lon="-1.57207">
        <ele>20.5</ele>
        <time>2020-06-12T05:09:42Z</time>
      </trkpt>
      <trkpt lat="49.09166" lon="-1.57206">
        <ele>20.5</ele>
        <time>2020-06-12T05:09:43Z</time>
      </trkpt>
      <trkpt lat="49.09167" lon="-1.57205">
        <ele>20.5</ele>
        <time>2020-06-12T05:09:44Z</time>
      </trkpt>
      <trkpt lat="49.09168" lon="-1.57204">
        <ele>20.5</ele>
        <time>2020-06-12T05:09:45Z</time>
      </trkpt>
      <trkpt lat="49.09168" lon="-1.57202">
        <ele>20.5</ele>
        <time>2020-06-12T05:09:46Z</time>
      </trkpt>
      <trkpt lat="49.09169" lon="-1.572">
        <ele>20.5</ele>
        <time>2020-06-12T05:09:47Z</time>
      </trkpt>
      <trkpt lat="49.09169" lon="-1.57199">
        <ele>20.4</ele>
        <time>2020-06-12T05:09:48Z</time>
      </trkpt>
      <trkpt lat="49.09169" lon="-1.57198">
        <ele>20.4</ele>
        <time>2020-06-12T05:09:49Z</time>
      </trkpt>
      <trkpt lat="49.09167" lon="-1.57195">
        <ele>20.4</ele>
        <time>2020-06-12T05:09:50Z</time>
      </trkpt>
      <trkpt lat="49.09165" lon="-1.57192">
        <ele>20.4</ele>
        <time>2020-06-12T05:09:51Z</time>
      </trkpt>
      <trkpt lat="49.09164" lon="-1.57189">
        <ele>20.3</ele>
        <time>2020-06-12T05:09:52Z</time>
      </trkpt>
      <trkpt lat="49.09162" lon="-1.57186">
        <ele>20.4</ele>
        <time>2020-06-12T05:10:04Z</time>
      </trkpt>
      <trkpt lat="49.0916" lon="-1.57184">
        <ele>20.5</ele>
        <time>2020-06-12T05:10:05Z</time>
      </trkpt>
      <trkpt lat="49.09158" lon="-1.5718">
        <ele>20.6</ele>
        <time>2020-06-12T05:10:06Z</time>
      </trkpt>
      <trkpt lat="49.09155" lon="-1.57177">
        <ele>20.7</ele>
        <time>2020-06-12T05:10:07Z</time>
      </trkpt>
      <trkpt lat="49.09152" lon="-1.57173">
        <ele>20.8</ele>
        <time>2020-06-12T05:10:08Z</time>
      </trkpt>
      <trkpt lat="49.09151" lon="-1.57172">
        <ele>20.8</ele>
        <time>2020-06-12T05:10:09Z</time>
      </trkpt>
      <trkpt lat="49.09149" lon="-1.57169">
        <ele>20.9</ele>
        <time>2020-06-12T05:10:10Z</time>
      </trkpt>
      <trkpt lat="49.09147" lon="-1.57166">
        <ele>21</ele>
        <time>2020-06-12T05:10:11Z</time>
      </trkpt>
      <trkpt lat="49.09144" lon="-1.57162">
        <ele>21.1</ele>
        <time>2020-06-12T05:10:12Z</time>
      </trkpt>
      <trkpt lat="49.09142" lon="-1.57158">
        <ele>21.2</ele>
        <time>2020-06-12T05:10:13Z</time>
      </trkpt>
      <trkpt lat="49.09139" lon="-1.57154">
        <ele>21.3</ele>
        <time>2020-06-12T05:10:14Z</time>
      </trkpt>
      <trkpt lat="49.09137" lon="-1.5715">
        <ele>21.4</ele>
        <time>2020-06-12T05:10:15Z</time>
      </trkpt>
      <trkpt lat="49.09134" lon="-1.57146">
        <ele>21.5</ele>
        <time>2020-06-12T05:10:16Z</time>
      </trkpt>
      <trkpt lat="49.09132" lon="-1.57141">
        <ele>21.6</ele>
        <time>2020-06-12T05:10:17Z</time>
      </trkpt>
      <trkpt lat="49.09129" lon="-1.57137">
        <ele>21.8</ele>
        <time>2020-06-12T05:10:18Z</time>
      </trkpt>
      <trkpt lat="49.09127" lon="-1.57132">
        <ele>21.9</ele>
        <time>2020-06-12T05:10:19Z</time>
      </trkpt>
      <trkpt lat="49.09124" lon="-1.57127">
        <ele>22</ele>
        <time>2020-06-12T05:10:20Z</time>
      </trkpt>
      <trkpt lat="49.09121" lon="-1.57123">
        <ele>22.1</ele>
        <time>2020-06-12T05:10:21Z</time>
      </trkpt>
      <trkpt lat="49.09118" lon="-1.57119">
        <ele>22.3</ele>
        <time>2020-06-12T05:10:22Z</time>
      </trkpt>
      <trkpt lat="49.09116" lon="-1.57115">
        <ele>22.4</ele>
        <time>2020-06-12T05:10:23Z</time>
      </trkpt>
      <trkpt lat="49.09113" lon="-1.5711">
        <ele>22.5</ele>
        <time>2020-06-12T05:10:24Z</time>
      </trkpt>
      <trkpt lat="49.09111" lon="-1.57107">
        <ele>22.6</ele>
        <time>2020-06-12T05:10:25Z</time>
      </trkpt>
      <trkpt lat="49.09108" lon="-1.57103">
        <ele>22.7</ele>
        <time>2020-06-12T05:10:26Z</time>
      </trkpt>
      <trkpt lat="49.09106" lon="-1.57099">
        <ele>22.8</ele>
        <time>2020-06-12T05:10:27Z</time>
      </trkpt>
      <trkpt lat="49.09104" lon="-1.57096">
        <ele>22.8</ele>
        <time>2020-06-12T05:10:28Z</time>
      </trkpt>
      <trkpt lat="49.09101" lon="-1.57091">
        <ele>22.9</ele>
        <time>2020-06-12T05:10:29Z</time>
      </trkpt>
      <trkpt lat="49.09099" lon="-1.57087">
        <ele>23</ele>
        <time>2020-06-12T05:10:30Z</time>
      </trkpt>
      <trkpt lat="49.09096" lon="-1.57083">
        <ele>23.1</ele>
        <time>2020-06-12T05:10:31Z</time>
      </trkpt>
      <trkpt lat="49.09094" lon="-1.5708">
        <ele>23.2</ele>
        <time>2020-06-12T05:10:32Z</time>
      </trkpt>
      <trkpt lat="49.09092" lon="-1.57077">
        <ele>23.3</ele>
        <time>2020-06-12T05:10:33Z</time>
      </trkpt>
      <trkpt lat="49.0909" lon="-1.57073">
        <ele>23.3</ele>
        <time>2020-06-12T05:10:34Z</time>
      </trkpt>
      <trkpt lat="49.09088" lon="-1.5707">
        <ele>23.4</ele>
        <time>2020-06-12T05:10:35Z</time>
      </trkpt>
      <trkpt lat="49.09085" lon="-1.57067">
        <ele>23.5</ele>
        <time>2020-06-12T05:10:36Z</time>
      </trkpt>
      <trkpt lat="49.09083" lon="-1.57064">
        <ele>23.6</ele>
        <time>2020-06-12T05:10:37Z</time>
      </trkpt>
      <trkpt lat="49.09081" lon="-1.5706">
        <ele>23.7</ele>
        <time>2020-06-12T05:10:38Z</time>
      </trkpt>
      <trkpt lat="49.09079" lon="-1.57057">
        <ele>23.7</ele>
        <time>2020-06-12T05:10:39Z</time>
      </trkpt>
      <trkpt lat="49.09077" lon="-1.57054">
        <ele>23.8</ele>
        <time>2020-06-12T05:10:40Z</time>
      </trkpt>
      <trkpt lat="49.09075" lon="-1.57051">
        <ele>23.9</ele>
        <time>2020-06-12T05:10:41Z</time>
      </trkpt>
      <trkpt lat="49.09073" lon="-1.57047">
        <ele>23.9</ele>
        <time>2020-06-12T05:10:42Z</time>
      </trkpt>
      <trkpt lat="49.09071" lon="-1.57043">
        <ele>24</ele>
        <time>2020-06-12T05:10:43Z</time>
      </trkpt>
      <trkpt lat="49.09069" lon="-1.57039">
        <ele>24.1</ele>
        <time>2020-06-12T05:10:44Z</time>
      </trkpt>
      <trkpt lat="49.09067" lon="-1.57035">
        <ele>24.2</ele>
        <time>2020-06-12T05:10:45Z</time>
      </trkpt>
      <trkpt lat="49.09066" lon="-1.57032">
        <ele>24.2</ele>
        <time>2020-06-12T05:10:46Z</time>
      </trkpt>
      <trkpt lat="49.09063" lon="-1.57028">
        <ele>24.3</ele>
        <time>2020-06-12T05:10:47Z</time>
      </trkpt>
      <trkpt lat="49.09061" lon="-1.57024">
        <ele>24.4</ele>
        <time>2020-06-12T05:10:48Z</time>
      </trkpt>
      <trkpt lat="49.09058" lon="-1.57021">
        <ele>24.4</ele>
        <time>2020-06-12T05:10:49Z</time>
      </trkpt>
      <trkpt lat="49.09056" lon="-1.57018">
        <ele>24.5</ele>
        <time>2020-06-12T05:10:50Z</time>
      </trkpt>
      <trkpt lat="49.09055" lon="-1.57015">
        <ele>24.5</ele>
        <time>2020-06-12T05:10:51Z</time>
      </trkpt>
      <trkpt lat="49.09054" lon="-1.57013">
        <ele>24.5</ele>
        <time>2020-06-12T05:10:52Z</time>
      </trkpt>
      <trkpt lat="49.09052" lon="-1.5701">
        <ele>24.6</ele>
        <time>2020-06-12T05:10:53Z</time>
      </trkpt>
      <trkpt lat="49.09049" lon="-1.57008">
        <ele>24.6</ele>
        <time>2020-06-12T05:10:54Z</time>
      </trkpt>
      <trkpt lat="49.09048" lon="-1.57007">
        <ele>24.7</ele>
        <time>2020-06-12T05:10:55Z</time>
      </trkpt>
      <trkpt lat="49.09047" lon="-1.57007">
        <ele>24.7</ele>
        <time>2020-06-12T05:10:56Z</time>
      </trkpt>
      <trkpt lat="49.09046" lon="-1.57008">
        <ele>24.7</ele>
        <time>2020-06-12T05:10:57Z</time>
      </trkpt>
      <trkpt lat="49.09045" lon="-1.57008">
        <ele>24.7</ele>
        <time>2020-06-12T05:10:58Z</time>
      </trkpt>
      <trkpt lat="49.09045" lon="-1.57007">
        <ele>24.7</ele>
        <time>2020-06-12T05:10:59Z</time>
      </trkpt>
      <trkpt lat="49.09047" lon="-1.57004">
        <ele>24.7</ele>
        <time>2020-06-12T05:11:00Z</time>
      </trkpt>
      <trkpt lat="49.09048" lon="-1.57004">
        <ele>24.7</ele>
        <time>2020-06-12T05:11:01Z</time>
      </trkpt>
      <trkpt lat="49.09048" lon="-1.57004">
        <ele>24.7</ele>
        <time>2020-06-12T05:11:02Z</time>
      </trkpt>
      <trkpt lat="49.09049" lon="-1.57005">
        <ele>24.8</ele>
        <time>2020-06-12T05:11:03Z</time>
      </trkpt>
      <trkpt lat="49.09049" lon="-1.57006">
        <ele>24.8</ele>
        <time>2020-06-12T05:11:04Z</time>
      </trkpt>
      <trkpt lat="49.09049" lon="-1.57006">
        <ele>24.8</ele>
        <time>2020-06-12T05:11:05Z</time>
      </trkpt>
      <trkpt lat="49.09049" lon="-1.57006">
        <ele>24.8</ele>
        <time>2020-06-12T05:11:06Z</time>
      </trkpt>
      <trkpt lat="49.09049" lon="-1.57006">
        <ele>24.8</ele>
        <time>2020-06-12T05:11:07Z</time>
      </trkpt>
      <trkpt lat="49.09049" lon="-1.57006">
        <ele>24.8</ele>
        <time>2020-06-12T05:11:08Z</time>
      </trkpt>
      <trkpt lat="49.09049" lon="-1.57006">
        <ele>24.8</ele>
        <time>2020-06-12T05:11:09Z</time>
      </trkpt>
      <trkpt lat="49.0905" lon="-1.57003">
        <ele>24.8</ele>
        <time>2020-06-12T05:12:00Z</time>
      </trkpt>
      <trkpt lat="49.0905" lon="-1.57004">
        <ele>24.8</ele>
        <time>2020-06-12T05:12:01Z</time>
      </trkpt>
      <trkpt lat="49.0905" lon="-1.57007">
        <ele>24.8</ele>
        <time>2020-06-12T05:12:02Z</time>
      </trkpt>
      <trkpt lat="49.09051" lon="-1.57008">
        <ele>24.8</ele>
        <time>2020-06-12T05:12:03Z</time>
      </trkpt>
      <trkpt lat="49.0905" lon="-1.57008">
        <ele>24.8</ele>
        <time>2020-06-12T05:12:04Z</time>
      </trkpt>
      <trkpt lat="49.0905" lon="-1.57007">
        <ele>24.8</ele>
        <time>2020-06-12T05:12:05Z</time>
      </trkpt>
      <trkpt lat="49.0905" lon="-1.57008">
        <ele>24.8</ele>
        <time>2020-06-12T05:12:06Z</time>
      </trkpt>
      <trkpt lat="49.0905" lon="-1.57008">
        <ele>24.8</ele>
        <time>2020-06-12T05:12:07Z</time>
      </trkpt>
      <trkpt lat="49.0905" lon="-1.57008">
        <ele>24.8</ele>
        <time>2020-06-12T05:12:08Z</time>
      </trkpt>
      <trkpt lat="49.0905" lon="-1.57008">
        <ele>24.8</ele>
        <time>2020-06-12T05:12:09Z</time>
      </trkpt>
      <trkpt lat="49.0905" lon="-1.57008">
        <ele>24.8</ele>
        <time>2020-06-12T05:12:10Z</time>
      </trkpt>
      <trkpt lat="49.0905" lon="-1.57008">
        <ele>24.8</ele>
        <time>2020-06-12T05:12:11Z</time>
      </trkpt>
      <trkpt lat="49.0905" lon="-1.57008">
        <ele>24.8</ele>
        <time>2020-06-12T05:12:12Z</time>
      </trkpt>
      <trkpt lat="49.0905" lon="-1.57008">
        <ele>24.8</ele>
        <time>2020-06-12T05:12:13Z</time>
      </trkpt>
      <trkpt lat="49.0905" lon="-1.57008">
        <ele>24.8</ele>
        <time>2020-06-12T05:12:14Z</time>
      </trkpt>
      <trkpt lat="49.09055" lon="-1.57017">
        <ele>24.7</ele>
        <time>2020-06-12T05:12:32Z</time>
      </trkpt>
      <trkpt lat="49.09058" lon="-1.57022">
        <ele>24.7</ele>
        <time>2020-06-12T05:12:33Z</time>
      </trkpt>
      <trkpt lat="49.0906" lon="-1.57027">
        <ele>24.6</ele>
        <time>2020-06-12T05:12:34Z</time>
      </trkpt>
      <trkpt lat="49.09063" lon="-1.57032">
        <ele>24.6</ele>
        <time>2020-06-12T05:12:35Z</time>
      </trkpt>
      <trkpt lat="49.09066" lon="-1.57038">
        <ele>24.5</ele>
        <time>2020-06-12T05:12:36Z</time>
      </trkpt>
      <trkpt lat="49.09069" lon="-1.57043">
        <ele>24.4</ele>
        <time>2020-06-12T05:12:37Z</time>
      </trkpt>
      <trkpt lat="49.09072" lon="-1.57048">
        <ele>24.3</ele>
        <time>2020-06-12T05:12:38Z</time>
      </trkpt>
      <trkpt lat="49.09076" lon="-1.57053">
        <ele>24.2</ele>
        <time>2020-06-12T05:12:39Z</time>
      </trkpt>
      <trkpt lat="49.09079" lon="-1.57059">
        <ele>24</ele>
        <time>2020-06-12T05:12:40Z</time>
      </trkpt>
      <trkpt lat="49.09082" lon="-1.57064">
        <ele>23.9</ele>
        <time>2020-06-12T05:12:41Z</time>
      </trkpt>
      <trkpt lat="49.09086" lon="-1.57069">
        <ele>23.8</ele>
        <time>2020-06-12T05:12:42Z</time>
      </trkpt>
      <trkpt lat="49.09089" lon="-1.57074">
        <ele>23.7</ele>
        <time>2020-06-12T05:12:43Z</time>
      </trkpt>
      <trkpt lat="49.09093" lon="-1.57079">
        <ele>23.5</ele>
        <time>2020-06-12T05:12:44Z</time>
      </trkpt>
      <trkpt lat="49.09097" lon="-1.57083">
        <ele>23.4</ele>
        <time>2020-06-12T05:12:45Z</time>
      </trkpt>
      <trkpt lat="49.09101" lon="-1.57087">
        <ele>23.3</ele>
        <time>2020-06-12T05:12:46Z</time>
      </trkpt>
      <trkpt lat="49.09104" lon="-1.57092">
        <ele>23.1</ele>
        <time>2020-06-12T05:12:47Z</time>
      </trkpt>
      <trkpt lat="49.09108" lon="-1.57098">
        <ele>23</ele>
        <time>2020-06-12T05:12:48Z</time>
      </trkpt>
      <trkpt lat="49.09112" lon="-1.57104">
        <ele>22.9</ele>
        <time>2020-06-12T05:12:49Z</time>
      </trkpt>
      <trkpt lat="49.09116" lon="-1.5711">
        <ele>22.7</ele>
        <time>2020-06-12T05:12:50Z</time>
      </trkpt>
      <trkpt lat="49.0912" lon="-1.57117">
        <ele>22.5</ele>
        <time>2020-06-12T05:12:51Z</time>
      </trkpt>
      <trkpt lat="49.09124" lon="-1.57122">
        <ele>22.4</ele>
        <time>2020-06-12T05:12:52Z</time>
      </trkpt>
      <trkpt lat="49.09127" lon="-1.57129">
        <ele>22.2</ele>
        <time>2020-06-12T05:12:53Z</time>
      </trkpt>
      <trkpt lat="49.09131" lon="-1.57134">
        <ele>22</ele>
        <time>2020-06-12T05:12:54Z</time>
      </trkpt>
      <trkpt lat="49.09135" lon="-1.5714">
        <ele>21.8</ele>
        <time>2020-06-12T05:12:55Z</time>
      </trkpt>
      <trkpt lat="49.09138" lon="-1.57146">
        <ele>21.6</ele>
        <time>2020-06-12T05:12:56Z</time>
      </trkpt>
      <trkpt lat="49.09142" lon="-1.57151">
        <ele>21.5</ele>
        <time>2020-06-12T05:12:57Z</time>
      </trkpt>
      <trkpt lat="49.09146" lon="-1.57157">
        <ele>21.3</ele>
        <time>2020-06-12T05:12:58Z</time>
      </trkpt>
      <trkpt lat="49.0915" lon="-1.57163">
        <ele>21.1</ele>
        <time>2020-06-12T05:12:59Z</time>
      </trkpt>
      <trkpt lat="49.09154" lon="-1.57168">
        <ele>21</ele>
        <time>2020-06-12T05:13:00Z</time>
      </trkpt>
      <trkpt lat="49.09158" lon="-1.57173">
        <ele>20.8</ele>
        <time>2020-06-12T05:13:01Z</time>
      </trkpt>
      <trkpt lat="49.0916" lon="-1.57178">
        <ele>20.7</ele>
        <time>2020-06-12T05:13:02Z</time>
      </trkpt>
      <trkpt lat="49.09163" lon="-1.57183">
        <ele>20.5</ele>
        <time>2020-06-12T05:13:03Z</time>
      </trkpt>
      <trkpt lat="49.09164" lon="-1.57187">
        <ele>20.4</ele>
        <time>2020-06-12T05:13:04Z</time>
      </trkpt>
      <trkpt lat="49.09164" lon="-1.57192">
        <ele>20.3</ele>
        <time>2020-06-12T05:13:05Z</time>
      </trkpt>
      <trkpt lat="49.09162" lon="-1.57196">
        <ele>20.4</ele>
        <time>2020-06-12T05:13:06Z</time>
      </trkpt>
      <trkpt lat="49.09161" lon="-1.572">
        <ele>20.5</ele>
        <time>2020-06-12T05:13:07Z</time>
      </trkpt>
      <trkpt lat="49.0916" lon="-1.57204">
        <ele>20.5</ele>
        <time>2020-06-12T05:13:08Z</time>
      </trkpt>
      <trkpt lat="49.09158" lon="-1.57209">
        <ele>20.6</ele>
        <time>2020-06-12T05:13:09Z</time>
      </trkpt>
      <trkpt lat="49.09157" lon="-1.57213">
        <ele>20.6</ele>
        <time>2020-06-12T05:13:10Z</time>
      </trkpt>
      <trkpt lat="49.09156" lon="-1.57218">
        <ele>20.6</ele>
        <time>2020-06-12T05:13:11Z</time>
      </trkpt>
      <trkpt lat="49.09154" lon="-1.57221">
        <ele>20.7</ele>
        <time>2020-06-12T05:13:12Z</time>
      </trkpt>
      <trkpt lat="49.09152" lon="-1.57225">
        <ele>20.7</ele>
        <time>2020-06-12T05:13:13Z</time>
      </trkpt>
      <trkpt lat="49.0915" lon="-1.5723">
        <ele>20.7</ele>
        <time>2020-06-12T05:13:14Z</time>
      </trkpt>
      <trkpt lat="49.09149" lon="-1.57232">
        <ele>20.7</ele>
        <time>2020-06-12T05:13:15Z</time>
      </trkpt>
      <trkpt lat="49.09147" lon="-1.57237">
        <ele>20.6</ele>
        <time>2020-06-12T05:13:16Z</time>
      </trkpt>
      <trkpt lat="49.09146" lon="-1.57238">
        <ele>20.6</ele>
        <time>2020-06-12T05:13:17Z</time>
      </trkpt>
      <trkpt lat="49.09144" lon="-1.57242">
        <ele>20.5</ele>
        <time>2020-06-12T05:13:18Z</time>
      </trkpt>
      <trkpt lat="49.09142" lon="-1.57245">
        <ele>20.4</ele>
        <time>2020-06-12T05:13:19Z</time>
      </trkpt>
      <trkpt lat="49.09141" lon="-1.57246">
        <ele>20.4</ele>
        <time>2020-06-12T05:13:20Z</time>
      </trkpt>
      <trkpt lat="49.09138" lon="-1.57249">
        <ele>20.2</ele>
        <time>2020-06-12T05:13:21Z</time>
      </trkpt>
      <trkpt lat="49.09137" lon="-1.57249">
        <ele>20.3</ele>
        <time>2020-06-12T05:13:22Z</time>
      </trkpt>
      <trkpt lat="49.09134" lon="-1.5725">
        <ele>20.4</ele>
        <time>2020-06-12T05:13:23Z</time>
      </trkpt>
      <trkpt lat="49.09133" lon="-1.5725">
        <ele>20.4</ele>
        <time>2020-06-12T05:13:24Z</time>
      </trkpt>
      <trkpt lat="49.09129" lon="-1.57251">
        <ele>20.6</ele>
        <time>2020-06-12T05:13:25Z</time>
      </trkpt>
      <trkpt lat="49.09125" lon="-1.57251">
        <ele>20.7</ele>
        <time>2020-06-12T05:13:26Z</time>
      </trkpt>
      <trkpt lat="49.09122" lon="-1.57251">
        <ele>20.8</ele>
        <time>2020-06-12T05:13:27Z</time>
      </trkpt>
      <trkpt lat="49.09119" lon="-1.57248">
        <ele>21</ele>
        <time>2020-06-12T05:13:28Z</time>
      </trkpt>
      <trkpt lat="49.09114" lon="-1.57246">
        <ele>21.1</ele>
        <time>2020-06-12T05:13:29Z</time>
      </trkpt>
      <trkpt lat="49.09109" lon="-1.57244">
        <ele>21.3</ele>
        <time>2020-06-12T05:13:30Z</time>
      </trkpt>
      <trkpt lat="49.09104" lon="-1.57243">
        <ele>21.5</ele>
        <time>2020-06-12T05:13:31Z</time>
      </trkpt>
      <trkpt lat="49.09099" lon="-1.57241">
        <ele>21.6</ele>
        <time>2020-06-12T05:13:32Z</time>
      </trkpt>
      <trkpt lat="49.09095" lon="-1.5724">
        <ele>21.8</ele>
        <time>2020-06-12T05:13:33Z</time>
      </trkpt>
      <trkpt lat="49.09091" lon="-1.57238">
        <ele>21.9</ele>
        <time>2020-06-12T05:13:34Z</time>
      </trkpt>
      <trkpt lat="49.09087" lon="-1.57236">
        <ele>22.1</ele>
        <time>2020-06-12T05:13:35Z</time>
      </trkpt>
      <trkpt lat="49.09084" lon="-1.57234">
        <ele>22.3</ele>
        <time>2020-06-12T05:13:36Z</time>
      </trkpt>
      <trkpt lat="49.09079" lon="-1.57232">
        <ele>22.5</ele>
        <time>2020-06-12T05:13:37Z</time>
      </trkpt>
      <trkpt lat="49.09075" lon="-1.5723">
        <ele>22.7</ele>
        <time>2020-06-12T05:13:38Z</time>
      </trkpt>
      <trkpt lat="49.0907" lon="-1.57227">
        <ele>23</ele>
        <time>2020-06-12T05:13:39Z</time>
      </trkpt>
      <trkpt lat="49.09064" lon="-1.57226">
        <ele>23.2</ele>
        <time>2020-06-12T05:13:40Z</time>
      </trkpt>
      <trkpt lat="49.0906" lon="-1.57224">
        <ele>23.4</ele>
        <time>2020-06-12T05:13:41Z</time>
      </trkpt>
      <trkpt lat="49.09056" lon="-1.57222">
        <ele>23.6</ele>
        <time>2020-06-12T05:13:42Z</time>
      </trkpt>
      <trkpt lat="49.09053" lon="-1.57221">
        <ele>23.8</ele>
        <time>2020-06-12T05:13:43Z</time>
      </trkpt>
      <trkpt lat="49.09049" lon="-1.57219">
        <ele>23.9</ele>
        <time>2020-06-12T05:13:44Z</time>
      </trkpt>
      <trkpt lat="49.09046" lon="-1.57217">
        <ele>24</ele>
        <time>2020-06-12T05:13:45Z</time>
      </trkpt>
      <trkpt lat="49.09043" lon="-1.57217">
        <ele>24.1</ele>
        <time>2020-06-12T05:13:46Z</time>
      </trkpt>
      <trkpt lat="49.0904" lon="-1.57216">
        <ele>24.2</ele>
        <time>2020-06-12T05:13:47Z</time>
      </trkpt>
      <trkpt lat="49.09037" lon="-1.57219">
        <ele>24.2</ele>
        <time>2020-06-12T05:13:48Z</time>
      </trkpt>
      <trkpt lat="49.09036" lon="-1.5722">
        <ele>24.2</ele>
        <time>2020-06-12T05:13:49Z</time>
      </trkpt>
      <trkpt lat="49.09036" lon="-1.57225">
        <ele>24.2</ele>
        <time>2020-06-12T05:13:50Z</time>
      </trkpt>
      <trkpt lat="49.09036" lon="-1.57227">
        <ele>24.1</ele>
        <time>2020-06-12T05:13:51Z</time>
      </trkpt>
      <trkpt lat="49.09036" lon="-1.57232">
        <ele>24</ele>
        <time>2020-06-12T05:13:52Z</time>
      </trkpt>
      <trkpt lat="49.09037" lon="-1.57236">
        <ele>23.9</ele>
        <time>2020-06-12T05:13:53Z</time>
      </trkpt>
      <trkpt lat="49.09037" lon="-1.57243">
        <ele>23.8</ele>
        <time>2020-06-12T05:13:54Z</time>
      </trkpt>
      <trkpt lat="49.09037" lon="-1.57245">
        <ele>23.7</ele>
        <time>2020-06-12T05:13:55Z</time>
      </trkpt>
      <trkpt lat="49.09036" lon="-1.57251">
        <ele>23.6</ele>
        <time>2020-06-12T05:13:56Z</time>
      </trkpt>
      <trkpt lat="49.09037" lon="-1.57256">
        <ele>23.4</ele>
        <time>2020-06-12T05:13:57Z</time>
      </trkpt>
      <trkpt lat="49.09037" lon="-1.57262">
        <ele>23.3</ele>
        <time>2020-06-12T05:13:58Z</time>
      </trkpt>
      <trkpt lat="49.09036" lon="-1.57268">
        <ele>23.1</ele>
        <time>2020-06-12T05:13:59Z</time>
      </trkpt>
      <trkpt lat="49.09036" lon="-1.57275">
        <ele>23</ele>
        <time>2020-06-12T05:14:00Z</time>
      </trkpt>
      <trkpt lat="49.09036" lon="-1.57281">
        <ele>22.9</ele>
        <time>2020-06-12T05:14:01Z</time>
      </trkpt>
      <trkpt lat="49.09035" lon="-1.57288">
        <ele>22.9</ele>
        <time>2020-06-12T05:14:02Z</time>
      </trkpt>
      <trkpt lat="49.09034" lon="-1.57295">
        <ele>22.8</ele>
        <time>2020-06-12T05:14:03Z</time>
      </trkpt>
      <trkpt lat="49.09033" lon="-1.57302">
        <ele>22.7</ele>
        <time>2020-06-12T05:14:04Z</time>
      </trkpt>
      <trkpt lat="49.09033" lon="-1.5731">
        <ele>22.5</ele>
        <time>2020-06-12T05:14:05Z</time>
      </trkpt>
      <trkpt lat="49.09032" lon="-1.57319">
        <ele>22.3</ele>
        <time>2020-06-12T05:14:06Z</time>
      </trkpt>
      <trkpt lat="49.09032" lon="-1.57328">
        <ele>22</ele>
        <time>2020-06-12T05:14:07Z</time>
      </trkpt>
      <trkpt lat="49.09032" lon="-1.57338">
        <ele>21.7</ele>
        <time>2020-06-12T05:14:08Z</time>
      </trkpt>
      <trkpt lat="49.09032" lon="-1.57346">
        <ele>21.5</ele>
        <time>2020-06-12T05:14:09Z</time>
      </trkpt>
      <trkpt lat="49.09031" lon="-1.57356">
        <ele>21.3</ele>
        <time>2020-06-12T05:14:10Z</time>
      </trkpt>
      <trkpt lat="49.09031" lon="-1.57364">
        <ele>21.1</ele>
        <time>2020-06-12T05:14:11Z</time>
      </trkpt>
      <trkpt lat="49.0903" lon="-1.57373">
        <ele>21</ele>
        <time>2020-06-12T05:14:12Z</time>
      </trkpt>
      <trkpt lat="49.09029" lon="-1.57383">
        <ele>20.9</ele>
        <time>2020-06-12T05:14:13Z</time>
      </trkpt>
      <trkpt lat="49.09028" lon="-1.57392">
        <ele>20.8</ele>
        <time>2020-06-12T05:14:14Z</time>
      </trkpt>
      <trkpt lat="49.09028" lon="-1.57401">
        <ele>20.6</ele>
        <time>2020-06-12T05:14:15Z</time>
      </trkpt>
      <trkpt lat="49.09027" lon="-1.5741">
        <ele>20.4</ele>
        <time>2020-06-12T05:14:16Z</time>
      </trkpt>
      <trkpt lat="49.09028" lon="-1.5742">
        <ele>20.2</ele>
        <time>2020-06-12T05:14:17Z</time>
      </trkpt>
      <trkpt lat="49.09028" lon="-1.5743">
        <ele>20</ele>
        <time>2020-06-12T05:14:18Z</time>
      </trkpt>
      <trkpt lat="49.09029" lon="-1.57441">
        <ele>19.8</ele>
        <time>2020-06-12T05:14:19Z</time>
      </trkpt>
      <trkpt lat="49.09028" lon="-1.57454">
        <ele>19.5</ele>
        <time>2020-06-12T05:14:20Z</time>
      </trkpt>
      <trkpt lat="49.09028" lon="-1.57464">
        <ele>19.2</ele>
        <time>2020-06-12T05:14:21Z</time>
      </trkpt>
      <trkpt lat="49.09028" lon="-1.57475">
        <ele>19</ele>
        <time>2020-06-12T05:14:22Z</time>
      </trkpt>
      <trkpt lat="49.09028" lon="-1.57485">
        <ele>18.9</ele>
        <time>2020-06-12T05:14:23Z</time>
      </trkpt>
      <trkpt lat="49.09029" lon="-1.57495">
        <ele>18.8</ele>
        <time>2020-06-12T05:14:24Z</time>
      </trkpt>
      <trkpt lat="49.0903" lon="-1.57504">
        <ele>18.6</ele>
        <time>2020-06-12T05:14:25Z</time>
      </trkpt>
      <trkpt lat="49.0903" lon="-1.57515">
        <ele>18.4</ele>
        <time>2020-06-12T05:14:26Z</time>
      </trkpt>
      <trkpt lat="49.09031" lon="-1.57525">
        <ele>18.3</ele>
        <time>2020-06-12T05:14:27Z</time>
      </trkpt>
      <trkpt lat="49.09031" lon="-1.57534">
        <ele>18.1</ele>
        <time>2020-06-12T05:14:28Z</time>
      </trkpt>
      <trkpt lat="49.09032" lon="-1.57543">
        <ele>18.1</ele>
        <time>2020-06-12T05:14:29Z</time>
      </trkpt>
      <trkpt lat="49.09032" lon="-1.57552">
        <ele>18</ele>
        <time>2020-06-12T05:14:30Z</time>
      </trkpt>
      <trkpt lat="49.09033" lon="-1.57559">
        <ele>18</ele>
        <time>2020-06-12T05:14:31Z</time>
      </trkpt>
      <trkpt lat="49.09034" lon="-1.57568">
        <ele>17.9</ele>
        <time>2020-06-12T05:14:32Z</time>
      </trkpt>
      <trkpt lat="49.09035" lon="-1.57576">
        <ele>17.9</ele>
        <time>2020-06-12T05:14:33Z</time>
      </trkpt>
      <trkpt lat="49.09036" lon="-1.57583">
        <ele>17.9</ele>
        <time>2020-06-12T05:14:34Z</time>
      </trkpt>
      <trkpt lat="49.09037" lon="-1.57591">
        <ele>17.8</ele>
        <time>2020-06-12T05:14:35Z</time>
      </trkpt>
      <trkpt lat="49.09037" lon="-1.576">
        <ele>17.8</ele>
        <time>2020-06-12T05:14:36Z</time>
      </trkpt>
      <trkpt lat="49.09036" lon="-1.57611">
        <ele>17.6</ele>
        <time>2020-06-12T05:14:37Z</time>
      </trkpt>
      <trkpt lat="49.09036" lon="-1.57619">
        <ele>17.5</ele>
        <time>2020-06-12T05:14:38Z</time>
      </trkpt>
      <trkpt lat="49.09037" lon="-1.57629">
        <ele>17.4</ele>
        <time>2020-06-12T05:14:39Z</time>
      </trkpt>
      <trkpt lat="49.09038" lon="-1.57639">
        <ele>17.2</ele>
        <time>2020-06-12T05:14:40Z</time>
      </trkpt>
      <trkpt lat="49.09039" lon="-1.57649">
        <ele>17.1</ele>
        <time>2020-06-12T05:14:41Z</time>
      </trkpt>
      <trkpt lat="49.0904" lon="-1.57658">
        <ele>16.9</ele>
        <time>2020-06-12T05:14:42Z</time>
      </trkpt>
      <trkpt lat="49.09041" lon="-1.57667">
        <ele>16.7</ele>
        <time>2020-06-12T05:14:43Z</time>
      </trkpt>
      <trkpt lat="49.09042" lon="-1.57676">
        <ele>16.6</ele>
        <time>2020-06-12T05:14:44Z</time>
      </trkpt>
      <trkpt lat="49.09041" lon="-1.57686">
        <ele>16.4</ele>
        <time>2020-06-12T05:14:45Z</time>
      </trkpt>
      <trkpt lat="49.09041" lon="-1.57699">
        <ele>16.2</ele>
        <time>2020-06-12T05:14:46Z</time>
      </trkpt>
      <trkpt lat="49.0904" lon="-1.5771">
        <ele>16.1</ele>
        <time>2020-06-12T05:14:47Z</time>
      </trkpt>
      <trkpt lat="49.09039" lon="-1.57722">
        <ele>15.9</ele>
        <time>2020-06-12T05:14:48Z</time>
      </trkpt>
      <trkpt lat="49.09039" lon="-1.57734">
        <ele>15.7</ele>
        <time>2020-06-12T05:14:49Z</time>
      </trkpt>
      <trkpt lat="49.09037" lon="-1.57746">
        <ele>15.6</ele>
        <time>2020-06-12T05:14:50Z</time>
      </trkpt>
      <trkpt lat="49.09037" lon="-1.57757">
        <ele>15.4</ele>
        <time>2020-06-12T05:14:51Z</time>
      </trkpt>
      <trkpt lat="49.09036" lon="-1.57769">
        <ele>15.2</ele>
        <time>2020-06-12T05:14:52Z</time>
      </trkpt>
      <trkpt lat="49.09035" lon="-1.57778">
        <ele>15.1</ele>
        <time>2020-06-12T05:14:53Z</time>
      </trkpt>
      <trkpt lat="49.09033" lon="-1.57788">
        <ele>15</ele>
        <time>2020-06-12T05:14:54Z</time>
      </trkpt>
      <trkpt lat="49.09031" lon="-1.57799">
        <ele>14.9</ele>
        <time>2020-06-12T05:14:55Z</time>
      </trkpt>
      <trkpt lat="49.09029" lon="-1.57809">
        <ele>14.8</ele>
        <time>2020-06-12T05:14:56Z</time>
      </trkpt>
      <trkpt lat="49.09027" lon="-1.57818">
        <ele>14.6</ele>
        <time>2020-06-12T05:14:57Z</time>
      </trkpt>
      <trkpt lat="49.09025" lon="-1.57827">
        <ele>14.5</ele>
        <time>2020-06-12T05:14:58Z</time>
      </trkpt>
      <trkpt lat="49.09023" lon="-1.57836">
        <ele>14.3</ele>
        <time>2020-06-12T05:14:59Z</time>
      </trkpt>
      <trkpt lat="49.09021" lon="-1.57845">
        <ele>14.2</ele>
        <time>2020-06-12T05:15:00Z</time>
      </trkpt>
      <trkpt lat="49.09019" lon="-1.57854">
        <ele>14.1</ele>
        <time>2020-06-12T05:15:01Z</time>
      </trkpt>
      <trkpt lat="49.09017" lon="-1.57862">
        <ele>14.1</ele>
        <time>2020-06-12T05:15:02Z</time>
      </trkpt>
      <trkpt lat="49.09015" lon="-1.57869">
        <ele>14.1</ele>
        <time>2020-06-12T05:15:03Z</time>
      </trkpt>
      <trkpt lat="49.09014" lon="-1.57876">
        <ele>14.1</ele>
        <time>2020-06-12T05:15:04Z</time>
      </trkpt>
      <trkpt lat="49.09013" lon="-1.57885">
        <ele>14.1</ele>
        <time>2020-06-12T05:15:05Z</time>
      </trkpt>
      <trkpt lat="49.09012" lon="-1.57894">
        <ele>14.1</ele>
        <time>2020-06-12T05:15:06Z</time>
      </trkpt>
      <trkpt lat="49.09011" lon="-1.57902">
        <ele>14.1</ele>
        <time>2020-06-12T05:15:07Z</time>
      </trkpt>
      <trkpt lat="49.0901" lon="-1.57909">
        <ele>14.1</ele>
        <time>2020-06-12T05:15:08Z</time>
      </trkpt>
      <trkpt lat="49.09008" lon="-1.57918">
        <ele>14.1</ele>
        <time>2020-06-12T05:15:09Z</time>
      </trkpt>
      <trkpt lat="49.09007" lon="-1.57927">
        <ele>14.1</ele>
        <time>2020-06-12T05:15:10Z</time>
      </trkpt>
      <trkpt lat="49.09006" lon="-1.57936">
        <ele>14.1</ele>
        <time>2020-06-12T05:15:11Z</time>
      </trkpt>
      <trkpt lat="49.09005" lon="-1.57944">
        <ele>14.1</ele>
        <time>2020-06-12T05:15:12Z</time>
      </trkpt>
      <trkpt lat="49.09005" lon="-1.57952">
        <ele>14.2</ele>
        <time>2020-06-12T05:15:13Z</time>
      </trkpt>
      <trkpt lat="49.09003" lon="-1.57961">
        <ele>14.2</ele>
        <time>2020-06-12T05:15:14Z</time>
      </trkpt>
      <trkpt lat="49.09002" lon="-1.57969">
        <ele>14.2</ele>
        <time>2020-06-12T05:15:15Z</time>
      </trkpt>
      <trkpt lat="49.09001" lon="-1.57978">
        <ele>14.2</ele>
        <time>2020-06-12T05:15:16Z</time>
      </trkpt>
      <trkpt lat="49.09" lon="-1.57987">
        <ele>14.2</ele>
        <time>2020-06-12T05:15:17Z</time>
      </trkpt>
      <trkpt lat="49.09001" lon="-1.57994">
        <ele>14.2</ele>
        <time>2020-06-12T05:15:18Z</time>
      </trkpt>
      <trkpt lat="49.09002" lon="-1.58003">
        <ele>14.1</ele>
        <time>2020-06-12T05:15:19Z</time>
      </trkpt>
      <trkpt lat="49.09002" lon="-1.58011">
        <ele>14.1</ele>
        <time>2020-06-12T05:15:20Z</time>
      </trkpt>
      <trkpt lat="49.09003" lon="-1.58019">
        <ele>14</ele>
        <time>2020-06-12T05:15:21Z</time>
      </trkpt>
      <trkpt lat="49.09005" lon="-1.58026">
        <ele>14</ele>
        <time>2020-06-12T05:15:22Z</time>
      </trkpt>
      <trkpt lat="49.09006" lon="-1.58034">
        <ele>13.9</ele>
        <time>2020-06-12T05:15:23Z</time>
      </trkpt>
      <trkpt lat="49.09006" lon="-1.5804">
        <ele>13.8</ele>
        <time>2020-06-12T05:15:24Z</time>
      </trkpt>
      <trkpt lat="49.09006" lon="-1.58048">
        <ele>13.8</ele>
        <time>2020-06-12T05:15:25Z</time>
      </trkpt>
      <trkpt lat="49.09007" lon="-1.58055">
        <ele>13.7</ele>
        <time>2020-06-12T05:15:26Z</time>
      </trkpt>
      <trkpt lat="49.09007" lon="-1.58062">
        <ele>13.7</ele>
        <time>2020-06-12T05:15:27Z</time>
      </trkpt>
      <trkpt lat="49.09007" lon="-1.5807">
        <ele>13.6</ele>
        <time>2020-06-12T05:15:28Z</time>
      </trkpt>
      <trkpt lat="49.09007" lon="-1.5808">
        <ele>13.5</ele>
        <time>2020-06-12T05:15:29Z</time>
      </trkpt>
      <trkpt lat="49.09007" lon="-1.58089">
        <ele>13.5</ele>
        <time>2020-06-12T05:15:30Z</time>
      </trkpt>
      <trkpt lat="49.09007" lon="-1.58098">
        <ele>13.4</ele>
        <time>2020-06-12T05:15:31Z</time>
      </trkpt>
      <trkpt lat="49.09007" lon="-1.58108">
        <ele>13.4</ele>
        <time>2020-06-12T05:15:32Z</time>
      </trkpt>
      <trkpt lat="49.09007" lon="-1.58117">
        <ele>13.4</ele>
        <time>2020-06-12T05:15:33Z</time>
      </trkpt>
      <trkpt lat="49.09007" lon="-1.58126">
        <ele>13.3</ele>
        <time>2020-06-12T05:15:34Z</time>
      </trkpt>
      <trkpt lat="49.09007" lon="-1.58134">
        <ele>13.3</ele>
        <time>2020-06-12T05:15:35Z</time>
      </trkpt>
      <trkpt lat="49.09008" lon="-1.58142">
        <ele>13.3</ele>
        <time>2020-06-12T05:15:36Z</time>
      </trkpt>
      <trkpt lat="49.09008" lon="-1.58149">
        <ele>13.3</ele>
        <time>2020-06-12T05:15:37Z</time>
      </trkpt>
      <trkpt lat="49.09007" lon="-1.58157">
        <ele>13.3</ele>
        <time>2020-06-12T05:15:38Z</time>
      </trkpt>
      <trkpt lat="49.09008" lon="-1.58165">
        <ele>13.2</ele>
        <time>2020-06-12T05:15:39Z</time>
      </trkpt>
      <trkpt lat="49.09008" lon="-1.58174">
        <ele>13.2</ele>
        <time>2020-06-12T05:15:40Z</time>
      </trkpt>
      <trkpt lat="49.09009" lon="-1.58182">
        <ele>13.2</ele>
        <time>2020-06-12T05:15:41Z</time>
      </trkpt>
      <trkpt lat="49.0901" lon="-1.5819">
        <ele>13.1</ele>
        <time>2020-06-12T05:15:42Z</time>
      </trkpt>
      <trkpt lat="49.09012" lon="-1.582">
        <ele>13.1</ele>
        <time>2020-06-12T05:15:43Z</time>
      </trkpt>
      <trkpt lat="49.09014" lon="-1.58209">
        <ele>13.1</ele>
        <time>2020-06-12T05:15:44Z</time>
      </trkpt>
      <trkpt lat="49.09016" lon="-1.58218">
        <ele>13.1</ele>
        <time>2020-06-12T05:15:45Z</time>
      </trkpt>
      <trkpt lat="49.09019" lon="-1.58227">
        <ele>13.1</ele>
        <time>2020-06-12T05:15:46Z</time>
      </trkpt>
      <trkpt lat="49.09021" lon="-1.58235">
        <ele>13.1</ele>
        <time>2020-06-12T05:15:47Z</time>
      </trkpt>
      <trkpt lat="49.09023" lon="-1.58242">
        <ele>13.1</ele>
        <time>2020-06-12T05:15:48Z</time>
      </trkpt>
      <trkpt lat="49.09025" lon="-1.5825">
        <ele>13.1</ele>
        <time>2020-06-12T05:15:49Z</time>
      </trkpt>
      <trkpt lat="49.09028" lon="-1.58258">
        <ele>13</ele>
        <time>2020-06-12T05:15:50Z</time>
      </trkpt>
      <trkpt lat="49.0903" lon="-1.58265">
        <ele>12.9</ele>
        <time>2020-06-12T05:15:51Z</time>
      </trkpt>
      <trkpt lat="49.09032" lon="-1.58271">
        <ele>12.9</ele>
        <time>2020-06-12T05:15:52Z</time>
      </trkpt>
      <trkpt lat="49.09035" lon="-1.58279">
        <ele>12.8</ele>
        <time>2020-06-12T05:15:53Z</time>
      </trkpt>
      <trkpt lat="49.09037" lon="-1.58285">
        <ele>12.8</ele>
        <time>2020-06-12T05:15:54Z</time>
      </trkpt>
      <trkpt lat="49.09039" lon="-1.58292">
        <ele>12.8</ele>
        <time>2020-06-12T05:15:55Z</time>
      </trkpt>
      <trkpt lat="49.09041" lon="-1.58299">
        <ele>12.8</ele>
        <time>2020-06-12T05:15:56Z</time>
      </trkpt>
      <trkpt lat="49.09044" lon="-1.58305">
        <ele>12.8</ele>
        <time>2020-06-12T05:15:57Z</time>
      </trkpt>
      <trkpt lat="49.09046" lon="-1.58313">
        <ele>12.8</ele>
        <time>2020-06-12T05:15:58Z</time>
      </trkpt>
      <trkpt lat="49.09048" lon="-1.5832">
        <ele>12.8</ele>
        <time>2020-06-12T05:15:59Z</time>
      </trkpt>
      <trkpt lat="49.09049" lon="-1.58328">
        <ele>12.8</ele>
        <time>2020-06-12T05:16:00Z</time>
      </trkpt>
      <trkpt lat="49.09051" lon="-1.58337">
        <ele>12.8</ele>
        <time>2020-06-12T05:16:01Z</time>
      </trkpt>
      <trkpt lat="49.09052" lon="-1.58345">
        <ele>12.7</ele>
        <time>2020-06-12T05:16:02Z</time>
      </trkpt>
      <trkpt lat="49.09054" lon="-1.58353">
        <ele>12.6</ele>
        <time>2020-06-12T05:16:03Z</time>
      </trkpt>
      <trkpt lat="49.09055" lon="-1.58361">
        <ele>12.6</ele>
        <time>2020-06-12T05:16:04Z</time>
      </trkpt>
      <trkpt lat="49.09056" lon="-1.58368">
        <ele>12.6</ele>
        <time>2020-06-12T05:16:05Z</time>
      </trkpt>
      <trkpt lat="49.09057" lon="-1.58375">
        <ele>12.6</ele>
        <time>2020-06-12T05:16:06Z</time>
      </trkpt>
      <trkpt lat="49.09058" lon="-1.58382">
        <ele>12.5</ele>
        <time>2020-06-12T05:16:07Z</time>
      </trkpt>
      <trkpt lat="49.09058" lon="-1.58389">
        <ele>12.5</ele>
        <time>2020-06-12T05:16:08Z</time>
      </trkpt>
      <trkpt lat="49.09059" lon="-1.58397">
        <ele>12.5</ele>
        <time>2020-06-12T05:16:09Z</time>
      </trkpt>
      <trkpt lat="49.0906" lon="-1.58405">
        <ele>12.4</ele>
        <time>2020-06-12T05:16:10Z</time>
      </trkpt>
      <trkpt lat="49.0906" lon="-1.58412">
        <ele>12.4</ele>
        <time>2020-06-12T05:16:11Z</time>
      </trkpt>
      <trkpt lat="49.0906" lon="-1.58419">
        <ele>12.4</ele>
        <time>2020-06-12T05:16:12Z</time>
      </trkpt>
      <trkpt lat="49.09061" lon="-1.58426">
        <ele>12.4</ele>
        <time>2020-06-12T05:16:13Z</time>
      </trkpt>
      <trkpt lat="49.0906" lon="-1.58433">
        <ele>12.4</ele>
        <time>2020-06-12T05:16:14Z</time>
      </trkpt>
      <trkpt lat="49.09059" lon="-1.5844">
        <ele>12.5</ele>
        <time>2020-06-12T05:16:15Z</time>
      </trkpt>
      <trkpt lat="49.09059" lon="-1.58448">
        <ele>12.5</ele>
        <time>2020-06-12T05:16:16Z</time>
      </trkpt>
      <trkpt lat="49.09059" lon="-1.58453">
        <ele>12.6</ele>
        <time>2020-06-12T05:16:17Z</time>
      </trkpt>
      <trkpt lat="49.09058" lon="-1.58458">
        <ele>12.5</ele>
        <time>2020-06-12T05:16:18Z</time>
      </trkpt>
      <trkpt lat="49.09058" lon="-1.58459">
        <ele>12.4</ele>
        <time>2020-06-12T05:16:19Z</time>
      </trkpt>
      <trkpt lat="49.09058" lon="-1.58464">
        <ele>12.3</ele>
        <time>2020-06-12T05:16:20Z</time>
      </trkpt>
      <trkpt lat="49.09059" lon="-1.58469">
        <ele>12.1</ele>
        <time>2020-06-12T05:16:21Z</time>
      </trkpt>
      <trkpt lat="49.09059" lon="-1.58472">
        <ele>12.1</ele>
        <time>2020-06-12T05:16:22Z</time>
      </trkpt>
      <trkpt lat="49.09059" lon="-1.58477">
        <ele>11.9</ele>
        <time>2020-06-12T05:16:23Z</time>
      </trkpt>
      <trkpt lat="49.0906" lon="-1.58478">
        <ele>11.9</ele>
        <time>2020-06-12T05:16:24Z</time>
      </trkpt>
      <trkpt lat="49.0906" lon="-1.58483">
        <ele>11.7</ele>
        <time>2020-06-12T05:16:25Z</time>
      </trkpt>
      <trkpt lat="49.0906" lon="-1.58484">
        <ele>11.7</ele>
        <time>2020-06-12T05:16:26Z</time>
      </trkpt>
      <trkpt lat="49.09061" lon="-1.58491">
        <ele>11.5</ele>
        <time>2020-06-12T05:16:27Z</time>
      </trkpt>
      <trkpt lat="49.09061" lon="-1.58493">
        <ele>11.4</ele>
        <time>2020-06-12T05:16:28Z</time>
      </trkpt>
      <trkpt lat="49.09063" lon="-1.58498">
        <ele>11.3</ele>
        <time>2020-06-12T05:16:29Z</time>
      </trkpt>
      <trkpt lat="49.09065" lon="-1.58501">
        <ele>11.2</ele>
        <time>2020-06-12T05:16:30Z</time>
      </trkpt>
      <trkpt lat="49.09066" lon="-1.58505">
        <ele>11.1</ele>
        <time>2020-06-12T05:16:31Z</time>
      </trkpt>
      <trkpt lat="49.09067" lon="-1.58509">
        <ele>11</ele>
        <time>2020-06-12T05:16:32Z</time>
      </trkpt>
      <trkpt lat="49.09068" lon="-1.58513">
        <ele>10.9</ele>
        <time>2020-06-12T05:16:33Z</time>
      </trkpt>
      <trkpt lat="49.09069" lon="-1.58515">
        <ele>10.9</ele>
        <time>2020-06-12T05:16:34Z</time>
      </trkpt>
      <trkpt lat="49.0907" lon="-1.58519">
        <ele>10.8</ele>
        <time>2020-06-12T05:16:35Z</time>
      </trkpt>
      <trkpt lat="49.09072" lon="-1.58523">
        <ele>10.8</ele>
        <time>2020-06-12T05:16:36Z</time>
      </trkpt>
      <trkpt lat="49.09073" lon="-1.58527">
        <ele>10.7</ele>
        <time>2020-06-12T05:16:37Z</time>
      </trkpt>
      <trkpt lat="49.09075" lon="-1.58532">
        <ele>10.7</ele>
        <time>2020-06-12T05:16:38Z</time>
      </trkpt>
      <trkpt lat="49.09077" lon="-1.58537">
        <ele>10.6</ele>
        <time>2020-06-12T05:16:39Z</time>
      </trkpt>
      <trkpt lat="49.09079" lon="-1.58542">
        <ele>10.5</ele>
        <time>2020-06-12T05:16:40Z</time>
      </trkpt>
      <trkpt lat="49.09082" lon="-1.58547">
        <ele>10.5</ele>
        <time>2020-06-12T05:16:41Z</time>
      </trkpt>
      <trkpt lat="49.09085" lon="-1.58553">
        <ele>10.4</ele>
        <time>2020-06-12T05:16:42Z</time>
      </trkpt>
      <trkpt lat="49.09088" lon="-1.58559">
        <ele>10.4</ele>
        <time>2020-06-12T05:16:43Z</time>
      </trkpt>
      <trkpt lat="49.0909" lon="-1.58565">
        <ele>10.3</ele>
        <time>2020-06-12T05:16:44Z</time>
      </trkpt>
      <trkpt lat="49.09092" lon="-1.58572">
        <ele>10.2</ele>
        <time>2020-06-12T05:16:45Z</time>
      </trkpt>
      <trkpt lat="49.09094" lon="-1.58579">
        <ele>10.2</ele>
        <time>2020-06-12T05:16:46Z</time>
      </trkpt>
      <trkpt lat="49.09097" lon="-1.58587">
        <ele>10.1</ele>
        <time>2020-06-12T05:16:47Z</time>
      </trkpt>
      <trkpt lat="49.091" lon="-1.58594">
        <ele>10</ele>
        <time>2020-06-12T05:16:48Z</time>
      </trkpt>
      <trkpt lat="49.09103" lon="-1.586">
        <ele>9.9</ele>
        <time>2020-06-12T05:16:49Z</time>
      </trkpt>
      <trkpt lat="49.09106" lon="-1.58608">
        <ele>9.8</ele>
        <time>2020-06-12T05:16:50Z</time>
      </trkpt>
      <trkpt lat="49.09108" lon="-1.58614">
        <ele>9.8</ele>
        <time>2020-06-12T05:16:51Z</time>
      </trkpt>
      <trkpt lat="49.09111" lon="-1.58621">
        <ele>9.8</ele>
        <time>2020-06-12T05:16:52Z</time>
      </trkpt>
      <trkpt lat="49.09113" lon="-1.58629">
        <ele>9.7</ele>
        <time>2020-06-12T05:16:53Z</time>
      </trkpt>
      <trkpt lat="49.09114" lon="-1.58636">
        <ele>9.7</ele>
        <time>2020-06-12T05:16:54Z</time>
      </trkpt>
      <trkpt lat="49.09116" lon="-1.58643">
        <ele>9.7</ele>
        <time>2020-06-12T05:16:55Z</time>
      </trkpt>
      <trkpt lat="49.09117" lon="-1.5865">
        <ele>9.6</ele>
        <time>2020-06-12T05:16:56Z</time>
      </trkpt>
      <trkpt lat="49.09119" lon="-1.58657">
        <ele>9.5</ele>
        <time>2020-06-12T05:16:57Z</time>
      </trkpt>
      <trkpt lat="49.0912" lon="-1.58664">
        <ele>9.5</ele>
        <time>2020-06-12T05:16:58Z</time>
      </trkpt>
      <trkpt lat="49.09122" lon="-1.58672">
        <ele>9.4</ele>
        <time>2020-06-12T05:16:59Z</time>
      </trkpt>
      <trkpt lat="49.09124" lon="-1.58679">
        <ele>9.3</ele>
        <time>2020-06-12T05:17:00Z</time>
      </trkpt>
      <trkpt lat="49.09127" lon="-1.58686">
        <ele>9.2</ele>
        <time>2020-06-12T05:17:01Z</time>
      </trkpt>
      <trkpt lat="49.09129" lon="-1.58693">
        <ele>9.2</ele>
        <time>2020-06-12T05:17:02Z</time>
      </trkpt>
      <trkpt lat="49.0913" lon="-1.58701">
        <ele>9.1</ele>
        <time>2020-06-12T05:17:03Z</time>
      </trkpt>
      <trkpt lat="49.09132" lon="-1.5871">
        <ele>9</ele>
        <time>2020-06-12T05:17:04Z</time>
      </trkpt>
      <trkpt lat="49.09133" lon="-1.58718">
        <ele>9</ele>
        <time>2020-06-12T05:17:05Z</time>
      </trkpt>
      <trkpt lat="49.09135" lon="-1.58726">
        <ele>8.9</ele>
        <time>2020-06-12T05:17:06Z</time>
      </trkpt>
      <trkpt lat="49.09137" lon="-1.58734">
        <ele>8.8</ele>
        <time>2020-06-12T05:17:07Z</time>
      </trkpt>
      <trkpt lat="49.09139" lon="-1.58742">
        <ele>8.8</ele>
        <time>2020-06-12T05:17:08Z</time>
      </trkpt>
      <trkpt lat="49.09141" lon="-1.58749">
        <ele>8.7</ele>
        <time>2020-06-12T05:17:09Z</time>
      </trkpt>
      <trkpt lat="49.09143" lon="-1.58755">
        <ele>8.7</ele>
        <time>2020-06-12T05:17:10Z</time>
      </trkpt>
      <trkpt lat="49.09146" lon="-1.58762">
        <ele>8.6</ele>
        <time>2020-06-12T05:17:11Z</time>
      </trkpt>
      <trkpt lat="49.0915" lon="-1.5877">
        <ele>8.6</ele>
        <time>2020-06-12T05:17:12Z</time>
      </trkpt>
      <trkpt lat="49.09155" lon="-1.58779">
        <ele>8.6</ele>
        <time>2020-06-12T05:17:13Z</time>
      </trkpt>
      <trkpt lat="49.09159" lon="-1.58787">
        <ele>8.6</ele>
        <time>2020-06-12T05:17:14Z</time>
      </trkpt>
      <trkpt lat="49.09163" lon="-1.58794">
        <ele>8.6</ele>
        <time>2020-06-12T05:17:15Z</time>
      </trkpt>
      <trkpt lat="49.09166" lon="-1.58801">
        <ele>8.6</ele>
        <time>2020-06-12T05:17:16Z</time>
      </trkpt>
      <trkpt lat="49.09169" lon="-1.58808">
        <ele>8.6</ele>
        <time>2020-06-12T05:17:17Z</time>
      </trkpt>
      <trkpt lat="49.09171" lon="-1.58816">
        <ele>8.6</ele>
        <time>2020-06-12T05:17:18Z</time>
      </trkpt>
      <trkpt lat="49.09174" lon="-1.58824">
        <ele>8.7</ele>
        <time>2020-06-12T05:17:19Z</time>
      </trkpt>
      <trkpt lat="49.09176" lon="-1.5883">
        <ele>8.8</ele>
        <time>2020-06-12T05:17:20Z</time>
      </trkpt>
      <trkpt lat="49.09178" lon="-1.58838">
        <ele>8.8</ele>
        <time>2020-06-12T05:17:21Z</time>
      </trkpt>
      <trkpt lat="49.09181" lon="-1.58846">
        <ele>8.7</ele>
        <time>2020-06-12T05:17:22Z</time>
      </trkpt>
      <trkpt lat="49.09183" lon="-1.58855">
        <ele>8.7</ele>
        <time>2020-06-12T05:17:23Z</time>
      </trkpt>
      <trkpt lat="49.09186" lon="-1.58863">
        <ele>8.6</ele>
        <time>2020-06-12T05:17:24Z</time>
      </trkpt>
      <trkpt lat="49.09188" lon="-1.5887">
        <ele>8.6</ele>
        <time>2020-06-12T05:17:25Z</time>
      </trkpt>
      <trkpt lat="49.0919" lon="-1.58878">
        <ele>8.5</ele>
        <time>2020-06-12T05:17:26Z</time>
      </trkpt>
      <trkpt lat="49.09192" lon="-1.58885">
        <ele>8.5</ele>
        <time>2020-06-12T05:17:27Z</time>
      </trkpt>
      <trkpt lat="49.09193" lon="-1.58892">
        <ele>8.4</ele>
        <time>2020-06-12T05:17:28Z</time>
      </trkpt>
      <trkpt lat="49.09193" lon="-1.58899">
        <ele>8.3</ele>
        <time>2020-06-12T05:17:29Z</time>
      </trkpt>
      <trkpt lat="49.09194" lon="-1.58907">
        <ele>8.3</ele>
        <time>2020-06-12T05:17:30Z</time>
      </trkpt>
      <trkpt lat="49.09195" lon="-1.58915">
        <ele>8.2</ele>
        <time>2020-06-12T05:17:31Z</time>
      </trkpt>
      <trkpt lat="49.09196" lon="-1.58923">
        <ele>8.2</ele>
        <time>2020-06-12T05:17:32Z</time>
      </trkpt>
      <trkpt lat="49.09197" lon="-1.58932">
        <ele>8.1</ele>
        <time>2020-06-12T05:17:33Z</time>
      </trkpt>
      <trkpt lat="49.09197" lon="-1.58941">
        <ele>8</ele>
        <time>2020-06-12T05:17:34Z</time>
      </trkpt>
      <trkpt lat="49.09199" lon="-1.5895">
        <ele>8</ele>
        <time>2020-06-12T05:17:35Z</time>
      </trkpt>
      <trkpt lat="49.09201" lon="-1.58959">
        <ele>8</ele>
        <time>2020-06-12T05:17:36Z</time>
      </trkpt>
      <trkpt lat="49.09202" lon="-1.58968">
        <ele>7.9</ele>
        <time>2020-06-12T05:17:37Z</time>
      </trkpt>
      <trkpt lat="49.09203" lon="-1.58977">
        <ele>7.9</ele>
        <time>2020-06-12T05:17:38Z</time>
      </trkpt>
      <trkpt lat="49.09204" lon="-1.58985">
        <ele>7.8</ele>
        <time>2020-06-12T05:17:39Z</time>
      </trkpt>
      <trkpt lat="49.09205" lon="-1.58994">
        <ele>7.8</ele>
        <time>2020-06-12T05:17:40Z</time>
      </trkpt>
      <trkpt lat="49.09206" lon="-1.59003">
        <ele>7.8</ele>
        <time>2020-06-12T05:17:41Z</time>
      </trkpt>
      <trkpt lat="49.09207" lon="-1.59011">
        <ele>7.8</ele>
        <time>2020-06-12T05:17:42Z</time>
      </trkpt>
      <trkpt lat="49.09207" lon="-1.5902">
        <ele>7.8</ele>
        <time>2020-06-12T05:17:43Z</time>
      </trkpt>
      <trkpt lat="49.09208" lon="-1.59028">
        <ele>7.8</ele>
        <time>2020-06-12T05:17:44Z</time>
      </trkpt>
      <trkpt lat="49.09209" lon="-1.59035">
        <ele>7.8</ele>
        <time>2020-06-12T05:17:45Z</time>
      </trkpt>
      <trkpt lat="49.0921" lon="-1.59043">
        <ele>7.7</ele>
        <time>2020-06-12T05:17:46Z</time>
      </trkpt>
      <trkpt lat="49.09211" lon="-1.5905">
        <ele>7.7</ele>
        <time>2020-06-12T05:17:47Z</time>
      </trkpt>
      <trkpt lat="49.09213" lon="-1.59056">
        <ele>7.7</ele>
        <time>2020-06-12T05:17:48Z</time>
      </trkpt>
      <trkpt lat="49.09215" lon="-1.59062">
        <ele>7.6</ele>
        <time>2020-06-12T05:17:49Z</time>
      </trkpt>
      <trkpt lat="49.09216" lon="-1.59068">
        <ele>7.6</ele>
        <time>2020-06-12T05:17:50Z</time>
      </trkpt>
      <trkpt lat="49.09219" lon="-1.59075">
        <ele>7.5</ele>
        <time>2020-06-12T05:17:51Z</time>
      </trkpt>
      <trkpt lat="49.09222" lon="-1.59084">
        <ele>7.4</ele>
        <time>2020-06-12T05:17:52Z</time>
      </trkpt>
      <trkpt lat="49.09224" lon="-1.59093">
        <ele>7.3</ele>
        <time>2020-06-12T05:17:53Z</time>
      </trkpt>
      <trkpt lat="49.09226" lon="-1.59104">
        <ele>7.3</ele>
        <time>2020-06-12T05:17:54Z</time>
      </trkpt>
      <trkpt lat="49.09228" lon="-1.59112">
        <ele>7.3</ele>
        <time>2020-06-12T05:17:55Z</time>
      </trkpt>
      <trkpt lat="49.09229" lon="-1.5912">
        <ele>7.2</ele>
        <time>2020-06-12T05:17:56Z</time>
      </trkpt>
      <trkpt lat="49.0923" lon="-1.59128">
        <ele>7.2</ele>
        <time>2020-06-12T05:17:57Z</time>
      </trkpt>
      <trkpt lat="49.09232" lon="-1.59136">
        <ele>7.2</ele>
        <time>2020-06-12T05:17:58Z</time>
      </trkpt>
      <trkpt lat="49.09233" lon="-1.59143">
        <ele>7.2</ele>
        <time>2020-06-12T05:17:59Z</time>
      </trkpt>
      <trkpt lat="49.09235" lon="-1.5915">
        <ele>7.1</ele>
        <time>2020-06-12T05:18:00Z</time>
      </trkpt>
      <trkpt lat="49.09236" lon="-1.59157">
        <ele>7.1</ele>
        <time>2020-06-12T05:18:01Z</time>
      </trkpt>
      <trkpt lat="49.09238" lon="-1.59164">
        <ele>7.1</ele>
        <time>2020-06-12T05:18:02Z</time>
      </trkpt>
      <trkpt lat="49.09239" lon="-1.59172">
        <ele>7.1</ele>
        <time>2020-06-12T05:18:03Z</time>
      </trkpt>
      <trkpt lat="49.09241" lon="-1.5918">
        <ele>7.1</ele>
        <time>2020-06-12T05:18:04Z</time>
      </trkpt>
      <trkpt lat="49.09242" lon="-1.59186">
        <ele>7.1</ele>
        <time>2020-06-12T05:18:05Z</time>
      </trkpt>
      <trkpt lat="49.09243" lon="-1.59193">
        <ele>7.1</ele>
        <time>2020-06-12T05:18:06Z</time>
      </trkpt>
      <trkpt lat="49.09243" lon="-1.59199">
        <ele>7.1</ele>
        <time>2020-06-12T05:18:07Z</time>
      </trkpt>
      <trkpt lat="49.09244" lon="-1.59204">
        <ele>7</ele>
        <time>2020-06-12T05:18:08Z</time>
      </trkpt>
      <trkpt lat="49.09245" lon="-1.59212">
        <ele>7</ele>
        <time>2020-06-12T05:18:09Z</time>
      </trkpt>
      <trkpt lat="49.09246" lon="-1.5922">
        <ele>7</ele>
        <time>2020-06-12T05:18:10Z</time>
      </trkpt>
      <trkpt lat="49.09248" lon="-1.59226">
        <ele>6.9</ele>
        <time>2020-06-12T05:18:11Z</time>
      </trkpt>
      <trkpt lat="49.09249" lon="-1.59231">
        <ele>6.9</ele>
        <time>2020-06-12T05:18:12Z</time>
      </trkpt>
      <trkpt lat="49.09249" lon="-1.59237">
        <ele>6.9</ele>
        <time>2020-06-12T05:18:13Z</time>
      </trkpt>
      <trkpt lat="49.0925" lon="-1.59243">
        <ele>6.8</ele>
        <time>2020-06-12T05:18:14Z</time>
      </trkpt>
      <trkpt lat="49.09251" lon="-1.59248">
        <ele>6.8</ele>
        <time>2020-06-12T05:18:15Z</time>
      </trkpt>
      <trkpt lat="49.09251" lon="-1.59255">
        <ele>6.8</ele>
        <time>2020-06-12T05:18:16Z</time>
      </trkpt>
      <trkpt lat="49.09252" lon="-1.59262">
        <ele>6.7</ele>
        <time>2020-06-12T05:18:17Z</time>
      </trkpt>
      <trkpt lat="49.09253" lon="-1.59269">
        <ele>6.7</ele>
        <time>2020-06-12T05:18:18Z</time>
      </trkpt>
      <trkpt lat="49.09255" lon="-1.59277">
        <ele>6.7</ele>
        <time>2020-06-12T05:18:19Z</time>
      </trkpt>
      <trkpt lat="49.09259" lon="-1.59288">
        <ele>6.6</ele>
        <time>2020-06-12T05:18:20Z</time>
      </trkpt>
      <trkpt lat="49.09261" lon="-1.59299">
        <ele>6.5</ele>
        <time>2020-06-12T05:18:21Z</time>
      </trkpt>
      <trkpt lat="49.09265" lon="-1.59309">
        <ele>6.4</ele>
        <time>2020-06-12T05:18:22Z</time>
      </trkpt>
      <trkpt lat="49.09267" lon="-1.59318">
        <ele>6.4</ele>
        <time>2020-06-12T05:18:23Z</time>
      </trkpt>
      <trkpt lat="49.09269" lon="-1.59325">
        <ele>6.3</ele>
        <time>2020-06-12T05:18:24Z</time>
      </trkpt>
      <trkpt lat="49.0927" lon="-1.59332">
        <ele>6.3</ele>
        <time>2020-06-12T05:18:25Z</time>
      </trkpt>
      <trkpt lat="49.0927" lon="-1.59338">
        <ele>6.2</ele>
        <time>2020-06-12T05:18:26Z</time>
      </trkpt>
      <trkpt lat="49.0927" lon="-1.59344">
        <ele>6.2</ele>
        <time>2020-06-12T05:18:27Z</time>
      </trkpt>
      <trkpt lat="49.09269" lon="-1.5935">
        <ele>6.2</ele>
        <time>2020-06-12T05:18:28Z</time>
      </trkpt>
      <trkpt lat="49.09267" lon="-1.59357">
        <ele>6.1</ele>
        <time>2020-06-12T05:18:29Z</time>
      </trkpt>
      <trkpt lat="49.09267" lon="-1.59366">
        <ele>6.1</ele>
        <time>2020-06-12T05:18:30Z</time>
      </trkpt>
      <trkpt lat="49.09267" lon="-1.59374">
        <ele>6.1</ele>
        <time>2020-06-12T05:18:31Z</time>
      </trkpt>
      <trkpt lat="49.09266" lon="-1.59383">
        <ele>6.1</ele>
        <time>2020-06-12T05:18:32Z</time>
      </trkpt>
      <trkpt lat="49.09265" lon="-1.59392">
        <ele>6</ele>
        <time>2020-06-12T05:18:33Z</time>
      </trkpt>
      <trkpt lat="49.09265" lon="-1.59399">
        <ele>6</ele>
        <time>2020-06-12T05:18:34Z</time>
      </trkpt>
      <trkpt lat="49.09265" lon="-1.59406">
        <ele>6</ele>
        <time>2020-06-12T05:18:35Z</time>
      </trkpt>
      <trkpt lat="49.09267" lon="-1.59414">
        <ele>6</ele>
        <time>2020-06-12T05:18:36Z</time>
      </trkpt>
      <trkpt lat="49.09268" lon="-1.59424">
        <ele>5.9</ele>
        <time>2020-06-12T05:18:37Z</time>
      </trkpt>
      <trkpt lat="49.09269" lon="-1.59433">
        <ele>5.8</ele>
        <time>2020-06-12T05:18:38Z</time>
      </trkpt>
      <trkpt lat="49.0927" lon="-1.59442">
        <ele>5.8</ele>
        <time>2020-06-12T05:18:39Z</time>
      </trkpt>
      <trkpt lat="49.09272" lon="-1.5945">
        <ele>5.7</ele>
        <time>2020-06-12T05:18:40Z</time>
      </trkpt>
      <trkpt lat="49.09274" lon="-1.59458">
        <ele>5.7</ele>
        <time>2020-06-12T05:18:41Z</time>
      </trkpt>
      <trkpt lat="49.09274" lon="-1.59466">
        <ele>5.6</ele>
        <time>2020-06-12T05:18:42Z</time>
      </trkpt>
      <trkpt lat="49.09275" lon="-1.59474">
        <ele>5.6</ele>
        <time>2020-06-12T05:18:43Z</time>
      </trkpt>
      <trkpt lat="49.09275" lon="-1.59483">
        <ele>5.6</ele>
        <time>2020-06-12T05:18:44Z</time>
      </trkpt>
      <trkpt lat="49.09276" lon="-1.59492">
        <ele>5.5</ele>
        <time>2020-06-12T05:18:45Z</time>
      </trkpt>
      <trkpt lat="49.09276" lon="-1.595">
        <ele>5.5</ele>
        <time>2020-06-12T05:18:46Z</time>
      </trkpt>
      <trkpt lat="49.09277" lon="-1.59508">
        <ele>5.5</ele>
        <time>2020-06-12T05:18:47Z</time>
      </trkpt>
      <trkpt lat="49.09277" lon="-1.59515">
        <ele>5.5</ele>
        <time>2020-06-12T05:18:48Z</time>
      </trkpt>
      <trkpt lat="49.09279" lon="-1.59521">
        <ele>5.4</ele>
        <time>2020-06-12T05:18:49Z</time>
      </trkpt>
      <trkpt lat="49.09281" lon="-1.59528">
        <ele>5.4</ele>
        <time>2020-06-12T05:18:50Z</time>
      </trkpt>
      <trkpt lat="49.09282" lon="-1.59537">
        <ele>5.4</ele>
        <time>2020-06-12T05:18:51Z</time>
      </trkpt>
      <trkpt lat="49.09284" lon="-1.59545">
        <ele>5.4</ele>
        <time>2020-06-12T05:18:52Z</time>
      </trkpt>
      <trkpt lat="49.09285" lon="-1.59552">
        <ele>5.3</ele>
        <time>2020-06-12T05:18:53Z</time>
      </trkpt>
      <trkpt lat="49.09287" lon="-1.59559">
        <ele>5.3</ele>
        <time>2020-06-12T05:18:54Z</time>
      </trkpt>
      <trkpt lat="49.09289" lon="-1.59567">
        <ele>5.2</ele>
        <time>2020-06-12T05:18:55Z</time>
      </trkpt>
      <trkpt lat="49.0929" lon="-1.59574">
        <ele>5.1</ele>
        <time>2020-06-12T05:18:56Z</time>
      </trkpt>
      <trkpt lat="49.09291" lon="-1.59581">
        <ele>5</ele>
        <time>2020-06-12T05:18:57Z</time>
      </trkpt>
      <trkpt lat="49.09293" lon="-1.59588">
        <ele>4.9</ele>
        <time>2020-06-12T05:18:58Z</time>
      </trkpt>
      <trkpt lat="49.09294" lon="-1.59594">
        <ele>4.8</ele>
        <time>2020-06-12T05:18:59Z</time>
      </trkpt>
      <trkpt lat="49.09295" lon="-1.596">
        <ele>4.8</ele>
        <time>2020-06-12T05:19:00Z</time>
      </trkpt>
      <trkpt lat="49.09296" lon="-1.59606">
        <ele>4.7</ele>
        <time>2020-06-12T05:19:01Z</time>
      </trkpt>
      <trkpt lat="49.09297" lon="-1.59613">
        <ele>4.7</ele>
        <time>2020-06-12T05:19:02Z</time>
      </trkpt>
      <trkpt lat="49.09298" lon="-1.59621">
        <ele>4.7</ele>
        <time>2020-06-12T05:19:03Z</time>
      </trkpt>
      <trkpt lat="49.093" lon="-1.59628">
        <ele>4.7</ele>
        <time>2020-06-12T05:19:04Z</time>
      </trkpt>
      <trkpt lat="49.09302" lon="-1.59635">
        <ele>4.7</ele>
        <time>2020-06-12T05:19:05Z</time>
      </trkpt>
      <trkpt lat="49.09304" lon="-1.59642">
        <ele>4.6</ele>
        <time>2020-06-12T05:19:06Z</time>
      </trkpt>
      <trkpt lat="49.09306" lon="-1.5965">
        <ele>4.6</ele>
        <time>2020-06-12T05:19:07Z</time>
      </trkpt>
      <trkpt lat="49.09307" lon="-1.59658">
        <ele>4.6</ele>
        <time>2020-06-12T05:19:08Z</time>
      </trkpt>
      <trkpt lat="49.09308" lon="-1.59668">
        <ele>4.6</ele>
        <time>2020-06-12T05:19:09Z</time>
      </trkpt>
      <trkpt lat="49.09308" lon="-1.59676">
        <ele>4.5</ele>
        <time>2020-06-12T05:19:10Z</time>
      </trkpt>
      <trkpt lat="49.09309" lon="-1.59685">
        <ele>4.5</ele>
        <time>2020-06-12T05:19:11Z</time>
      </trkpt>
      <trkpt lat="49.09309" lon="-1.59694">
        <ele>4.5</ele>
        <time>2020-06-12T05:19:12Z</time>
      </trkpt>
      <trkpt lat="49.09308" lon="-1.59701">
        <ele>4.5</ele>
        <time>2020-06-12T05:19:13Z</time>
      </trkpt>
      <trkpt lat="49.09306" lon="-1.5971">
        <ele>4.5</ele>
        <time>2020-06-12T05:19:14Z</time>
      </trkpt>
      <trkpt lat="49.09304" lon="-1.59719">
        <ele>4.5</ele>
        <time>2020-06-12T05:19:15Z</time>
      </trkpt>
      <trkpt lat="49.09302" lon="-1.59727">
        <ele>4.5</ele>
        <time>2020-06-12T05:19:16Z</time>
      </trkpt>
      <trkpt lat="49.09301" lon="-1.59735">
        <ele>4.6</ele>
        <time>2020-06-12T05:19:17Z</time>
      </trkpt>
      <trkpt lat="49.093" lon="-1.59744">
        <ele>4.6</ele>
        <time>2020-06-12T05:19:18Z</time>
      </trkpt>
      <trkpt lat="49.093" lon="-1.59752">
        <ele>4.7</ele>
        <time>2020-06-12T05:19:19Z</time>
      </trkpt>
      <trkpt lat="49.093" lon="-1.5976">
        <ele>4.8</ele>
        <time>2020-06-12T05:19:20Z</time>
      </trkpt>
      <trkpt lat="49.093" lon="-1.59768">
        <ele>4.8</ele>
        <time>2020-06-12T05:19:21Z</time>
      </trkpt>
      <trkpt lat="49.09301" lon="-1.59776">
        <ele>4.8</ele>
        <time>2020-06-12T05:19:22Z</time>
      </trkpt>
      <trkpt lat="49.093" lon="-1.59782">
        <ele>4.9</ele>
        <time>2020-06-12T05:19:23Z</time>
      </trkpt>
      <trkpt lat="49.093" lon="-1.5979">
        <ele>4.9</ele>
        <time>2020-06-12T05:19:24Z</time>
      </trkpt>
      <trkpt lat="49.09302" lon="-1.59798">
        <ele>4.9</ele>
        <time>2020-06-12T05:19:25Z</time>
      </trkpt>
      <trkpt lat="49.09304" lon="-1.59805">
        <ele>5</ele>
        <time>2020-06-12T05:19:26Z</time>
      </trkpt>
      <trkpt lat="49.09305" lon="-1.59813">
        <ele>5.1</ele>
        <time>2020-06-12T05:19:27Z</time>
      </trkpt>
      <trkpt lat="49.09307" lon="-1.59821">
        <ele>5.1</ele>
        <time>2020-06-12T05:19:28Z</time>
      </trkpt>
      <trkpt lat="49.09308" lon="-1.59828">
        <ele>5.2</ele>
        <time>2020-06-12T05:19:29Z</time>
      </trkpt>
      <trkpt lat="49.09309" lon="-1.59836">
        <ele>5.3</ele>
        <time>2020-06-12T05:19:30Z</time>
      </trkpt>
      <trkpt lat="49.0931" lon="-1.59844">
        <ele>5.4</ele>
        <time>2020-06-12T05:19:31Z</time>
      </trkpt>
      <trkpt lat="49.09311" lon="-1.59851">
        <ele>5.6</ele>
        <time>2020-06-12T05:19:32Z</time>
      </trkpt>
      <trkpt lat="49.09312" lon="-1.59858">
        <ele>5.7</ele>
        <time>2020-06-12T05:19:33Z</time>
      </trkpt>
      <trkpt lat="49.09313" lon="-1.59865">
        <ele>5.8</ele>
        <time>2020-06-12T05:19:34Z</time>
      </trkpt>
      <trkpt lat="49.09314" lon="-1.59871">
        <ele>5.8</ele>
        <time>2020-06-12T05:19:35Z</time>
      </trkpt>
      <trkpt lat="49.09316" lon="-1.59877">
        <ele>5.9</ele>
        <time>2020-06-12T05:19:36Z</time>
      </trkpt>
      <trkpt lat="49.09317" lon="-1.59883">
        <ele>6</ele>
        <time>2020-06-12T05:19:37Z</time>
      </trkpt>
      <trkpt lat="49.09318" lon="-1.59889">
        <ele>6.1</ele>
        <time>2020-06-12T05:19:38Z</time>
      </trkpt>
      <trkpt lat="49.09318" lon="-1.59896">
        <ele>6.3</ele>
        <time>2020-06-12T05:19:39Z</time>
      </trkpt>
      <trkpt lat="49.09319" lon="-1.59903">
        <ele>6.4</ele>
        <time>2020-06-12T05:19:40Z</time>
      </trkpt>
      <trkpt lat="49.09319" lon="-1.59909">
        <ele>6.5</ele>
        <time>2020-06-12T05:19:41Z</time>
      </trkpt>
      <trkpt lat="49.0932" lon="-1.59913">
        <ele>6.6</ele>
        <time>2020-06-12T05:19:42Z</time>
      </trkpt>
      <trkpt lat="49.09323" lon="-1.59916">
        <ele>6.5</ele>
        <time>2020-06-12T05:19:43Z</time>
      </trkpt>
      <trkpt lat="49.09325" lon="-1.59918">
        <ele>6.4</ele>
        <time>2020-06-12T05:19:44Z</time>
      </trkpt>
      <trkpt lat="49.09328" lon="-1.59918">
        <ele>6.4</ele>
        <time>2020-06-12T05:19:45Z</time>
      </trkpt>
      <trkpt lat="49.09331" lon="-1.59918">
        <ele>6.4</ele>
        <time>2020-06-12T05:19:46Z</time>
      </trkpt>
      <trkpt lat="49.09331" lon="-1.59918">
        <ele>6.4</ele>
        <time>2020-06-12T05:19:47Z</time>
      </trkpt>
      <trkpt lat="49.09334" lon="-1.59919">
        <ele>6.3</ele>
        <time>2020-06-12T05:19:48Z</time>
      </trkpt>
      <trkpt lat="49.09334" lon="-1.59918">
        <ele>6.3</ele>
        <time>2020-06-12T05:19:49Z</time>
      </trkpt>
      <trkpt lat="49.09336" lon="-1.59918">
        <ele>6.3</ele>
        <time>2020-06-12T05:19:50Z</time>
      </trkpt>
      <trkpt lat="49.09337" lon="-1.59917">
        <ele>6.3</ele>
        <time>2020-06-12T05:19:51Z</time>
      </trkpt>
      <trkpt lat="49.09338" lon="-1.59916">
        <ele>6.3</ele>
        <time>2020-06-12T05:19:52Z</time>
      </trkpt>
      <trkpt lat="49.09342" lon="-1.59915">
        <ele>6.3</ele>
        <time>2020-06-12T05:19:53Z</time>
      </trkpt>
      <trkpt lat="49.09343" lon="-1.59916">
        <ele>6.3</ele>
        <time>2020-06-12T05:19:54Z</time>
      </trkpt>
      <trkpt lat="49.09346" lon="-1.59915">
        <ele>6.3</ele>
        <time>2020-06-12T05:19:55Z</time>
      </trkpt>
      <trkpt lat="49.09349" lon="-1.59914">
        <ele>6.2</ele>
        <time>2020-06-12T05:19:56Z</time>
      </trkpt>
      <trkpt lat="49.09352" lon="-1.59915">
        <ele>6.2</ele>
        <time>2020-06-12T05:19:57Z</time>
      </trkpt>
      <trkpt lat="49.09356" lon="-1.59913">
        <ele>6.2</ele>
        <time>2020-06-12T05:19:58Z</time>
      </trkpt>
      <trkpt lat="49.0936" lon="-1.59912">
        <ele>6.2</ele>
        <time>2020-06-12T05:19:59Z</time>
      </trkpt>
      <trkpt lat="49.09363" lon="-1.59911">
        <ele>6.2</ele>
        <time>2020-06-12T05:20:00Z</time>
      </trkpt>
      <trkpt lat="49.09368" lon="-1.59911">
        <ele>6.2</ele>
        <time>2020-06-12T05:20:01Z</time>
      </trkpt>
      <trkpt lat="49.09373" lon="-1.5991">
        <ele>6.2</ele>
        <time>2020-06-12T05:20:02Z</time>
      </trkpt>
      <trkpt lat="49.09378" lon="-1.5991">
        <ele>6.2</ele>
        <time>2020-06-12T05:20:03Z</time>
      </trkpt>
      <trkpt lat="49.09382" lon="-1.59909">
        <ele>6.2</ele>
        <time>2020-06-12T05:20:04Z</time>
      </trkpt>
      <trkpt lat="49.09386" lon="-1.59908">
        <ele>6.2</ele>
        <time>2020-06-12T05:20:05Z</time>
      </trkpt>
      <trkpt lat="49.09391" lon="-1.59908">
        <ele>6.2</ele>
        <time>2020-06-12T05:20:06Z</time>
      </trkpt>
      <trkpt lat="49.09395" lon="-1.59908">
        <ele>6.2</ele>
        <time>2020-06-12T05:20:07Z</time>
      </trkpt>
      <trkpt lat="49.094" lon="-1.59909">
        <ele>6.1</ele>
        <time>2020-06-12T05:20:08Z</time>
      </trkpt>
      <trkpt lat="49.09403" lon="-1.59908">
        <ele>6.1</ele>
        <time>2020-06-12T05:20:09Z</time>
      </trkpt>
      <trkpt lat="49.09407" lon="-1.59908">
        <ele>6.1</ele>
        <time>2020-06-12T05:20:10Z</time>
      </trkpt>
      <trkpt lat="49.0941" lon="-1.59908">
        <ele>6.1</ele>
        <time>2020-06-12T05:20:11Z</time>
      </trkpt>
      <trkpt lat="49.09413" lon="-1.59908">
        <ele>6.1</ele>
        <time>2020-06-12T05:20:12Z</time>
      </trkpt>
      <trkpt lat="49.09417" lon="-1.59908">
        <ele>6.1</ele>
        <time>2020-06-12T05:20:13Z</time>
      </trkpt>
      <trkpt lat="49.09421" lon="-1.59906">
        <ele>6</ele>
        <time>2020-06-12T05:20:14Z</time>
      </trkpt>
      <trkpt lat="49.09425" lon="-1.59902">
        <ele>6</ele>
        <time>2020-06-12T05:20:15Z</time>
      </trkpt>
      <trkpt lat="49.09429" lon="-1.59901">
        <ele>6</ele>
        <time>2020-06-12T05:20:16Z</time>
      </trkpt>
      <trkpt lat="49.09435" lon="-1.599">
        <ele>6</ele>
        <time>2020-06-12T05:20:17Z</time>
      </trkpt>
      <trkpt lat="49.09442" lon="-1.59898">
        <ele>5.9</ele>
        <time>2020-06-12T05:20:18Z</time>
      </trkpt>
      <trkpt lat="49.09448" lon="-1.59898">
        <ele>5.9</ele>
        <time>2020-06-12T05:20:19Z</time>
      </trkpt>
      <trkpt lat="49.09453" lon="-1.59897">
        <ele>5.9</ele>
        <time>2020-06-12T05:20:20Z</time>
      </trkpt>
      <trkpt lat="49.09459" lon="-1.59896">
        <ele>5.8</ele>
        <time>2020-06-12T05:20:21Z</time>
      </trkpt>
      <trkpt lat="49.09465" lon="-1.59896">
        <ele>5.8</ele>
        <time>2020-06-12T05:20:22Z</time>
      </trkpt>
      <trkpt lat="49.09471" lon="-1.59895">
        <ele>5.8</ele>
        <time>2020-06-12T05:20:23Z</time>
      </trkpt>
      <trkpt lat="49.09476" lon="-1.59895">
        <ele>5.7</ele>
        <time>2020-06-12T05:20:24Z</time>
      </trkpt>
      <trkpt lat="49.09482" lon="-1.59893">
        <ele>5.7</ele>
        <time>2020-06-12T05:20:25Z</time>
      </trkpt>
      <trkpt lat="49.09488" lon="-1.59893">
        <ele>5.7</ele>
        <time>2020-06-12T05:20:26Z</time>
      </trkpt>
      <trkpt lat="49.09494" lon="-1.59893">
        <ele>5.6</ele>
        <time>2020-06-12T05:20:27Z</time>
      </trkpt>
      <trkpt lat="49.09501" lon="-1.59892">
        <ele>5.6</ele>
        <time>2020-06-12T05:20:28Z</time>
      </trkpt>
      <trkpt lat="49.09506" lon="-1.59891">
        <ele>5.6</ele>
        <time>2020-06-12T05:20:29Z</time>
      </trkpt>
      <trkpt lat="49.09512" lon="-1.5989">
        <ele>5.5</ele>
        <time>2020-06-12T05:20:30Z</time>
      </trkpt>
      <trkpt lat="49.09519" lon="-1.59891">
        <ele>5.5</ele>
        <time>2020-06-12T05:20:31Z</time>
      </trkpt>
      <trkpt lat="49.09525" lon="-1.59891">
        <ele>5.5</ele>
        <time>2020-06-12T05:20:32Z</time>
      </trkpt>
      <trkpt lat="49.0953" lon="-1.59891">
        <ele>5.5</ele>
        <time>2020-06-12T05:20:33Z</time>
      </trkpt>
      <trkpt lat="49.09535" lon="-1.5989">
        <ele>5.5</ele>
        <time>2020-06-12T05:20:34Z</time>
      </trkpt>
      <trkpt lat="49.09543" lon="-1.59889">
        <ele>5.5</ele>
        <time>2020-06-12T05:20:35Z</time>
      </trkpt>
      <trkpt lat="49.09548" lon="-1.59889">
        <ele>5.5</ele>
        <time>2020-06-12T05:20:36Z</time>
      </trkpt>
      <trkpt lat="49.09555" lon="-1.59888">
        <ele>5.6</ele>
        <time>2020-06-12T05:20:37Z</time>
      </trkpt>
      <trkpt lat="49.09561" lon="-1.59887">
        <ele>5.6</ele>
        <time>2020-06-12T05:20:38Z</time>
      </trkpt>
      <trkpt lat="49.09566" lon="-1.59886">
        <ele>5.6</ele>
        <time>2020-06-12T05:20:39Z</time>
      </trkpt>
      <trkpt lat="49.09572" lon="-1.59885">
        <ele>5.6</ele>
        <time>2020-06-12T05:20:40Z</time>
      </trkpt>
      <trkpt lat="49.09577" lon="-1.59884">
        <ele>5.6</ele>
        <time>2020-06-12T05:20:41Z</time>
      </trkpt>
      <trkpt lat="49.09583" lon="-1.59884">
        <ele>5.6</ele>
        <time>2020-06-12T05:20:42Z</time>
      </trkpt>
      <trkpt lat="49.09589" lon="-1.59883">
        <ele>5.6</ele>
        <time>2020-06-12T05:20:43Z</time>
      </trkpt>
      <trkpt lat="49.09594" lon="-1.59882">
        <ele>5.5</ele>
        <time>2020-06-12T05:20:44Z</time>
      </trkpt>
      <trkpt lat="49.09599" lon="-1.5988">
        <ele>5.5</ele>
        <time>2020-06-12T05:20:45Z</time>
      </trkpt>
      <trkpt lat="49.09605" lon="-1.59879">
        <ele>5.5</ele>
        <time>2020-06-12T05:20:46Z</time>
      </trkpt>
      <trkpt lat="49.09611" lon="-1.5988">
        <ele>5.5</ele>
        <time>2020-06-12T05:20:47Z</time>
      </trkpt>
      <trkpt lat="49.09616" lon="-1.59879">
        <ele>5.5</ele>
        <time>2020-06-12T05:20:48Z</time>
      </trkpt>
      <trkpt lat="49.09622" lon="-1.59878">
        <ele>5.5</ele>
        <time>2020-06-12T05:20:49Z</time>
      </trkpt>
      <trkpt lat="49.09628" lon="-1.59877">
        <ele>5.5</ele>
        <time>2020-06-12T05:20:50Z</time>
      </trkpt>
      <trkpt lat="49.09633" lon="-1.59876">
        <ele>5.5</ele>
        <time>2020-06-12T05:20:51Z</time>
      </trkpt>
      <trkpt lat="49.09639" lon="-1.59875">
        <ele>5.5</ele>
        <time>2020-06-12T05:20:52Z</time>
      </trkpt>
      <trkpt lat="49.09644" lon="-1.59876">
        <ele>5.5</ele>
        <time>2020-06-12T05:20:53Z</time>
      </trkpt>
      <trkpt lat="49.0965" lon="-1.59876">
        <ele>5.5</ele>
        <time>2020-06-12T05:20:54Z</time>
      </trkpt>
      <trkpt lat="49.09655" lon="-1.59874">
        <ele>5.5</ele>
        <time>2020-06-12T05:20:55Z</time>
      </trkpt>
      <trkpt lat="49.0966" lon="-1.59873">
        <ele>5.5</ele>
        <time>2020-06-12T05:20:56Z</time>
      </trkpt>
      <trkpt lat="49.09664" lon="-1.59872">
        <ele>5.5</ele>
        <time>2020-06-12T05:20:57Z</time>
      </trkpt>
      <trkpt lat="49.09669" lon="-1.59871">
        <ele>5.5</ele>
        <time>2020-06-12T05:20:58Z</time>
      </trkpt>
      <trkpt lat="49.09673" lon="-1.59869">
        <ele>5.6</ele>
        <time>2020-06-12T05:20:59Z</time>
      </trkpt>
      <trkpt lat="49.09678" lon="-1.59868">
        <ele>5.6</ele>
        <time>2020-06-12T05:21:00Z</time>
      </trkpt>
      <trkpt lat="49.09683" lon="-1.59868">
        <ele>5.7</ele>
        <time>2020-06-12T05:21:01Z</time>
      </trkpt>
      <trkpt lat="49.09687" lon="-1.59868">
        <ele>5.7</ele>
        <time>2020-06-12T05:21:02Z</time>
      </trkpt>
      <trkpt lat="49.09692" lon="-1.59866">
        <ele>5.8</ele>
        <time>2020-06-12T05:21:03Z</time>
      </trkpt>
      <trkpt lat="49.09698" lon="-1.59865">
        <ele>5.8</ele>
        <time>2020-06-12T05:21:04Z</time>
      </trkpt>
      <trkpt lat="49.09703" lon="-1.59864">
        <ele>5.9</ele>
        <time>2020-06-12T05:21:05Z</time>
      </trkpt>
      <trkpt lat="49.09708" lon="-1.59865">
        <ele>5.9</ele>
        <time>2020-06-12T05:21:06Z</time>
      </trkpt>
      <trkpt lat="49.09713" lon="-1.59864">
        <ele>6</ele>
        <time>2020-06-12T05:21:07Z</time>
      </trkpt>
      <trkpt lat="49.09718" lon="-1.59863">
        <ele>6</ele>
        <time>2020-06-12T05:21:08Z</time>
      </trkpt>
      <trkpt lat="49.09723" lon="-1.59862">
        <ele>6</ele>
        <time>2020-06-12T05:21:09Z</time>
      </trkpt>
      <trkpt lat="49.09729" lon="-1.59859">
        <ele>6</ele>
        <time>2020-06-12T05:21:10Z</time>
      </trkpt>
      <trkpt lat="49.09734" lon="-1.59859">
        <ele>6</ele>
        <time>2020-06-12T05:21:11Z</time>
      </trkpt>
      <trkpt lat="49.09738" lon="-1.59856">
        <ele>6</ele>
        <time>2020-06-12T05:21:12Z</time>
      </trkpt>
      <trkpt lat="49.09742" lon="-1.59851">
        <ele>6</ele>
        <time>2020-06-12T05:21:13Z</time>
      </trkpt>
      <trkpt lat="49.09744" lon="-1.59846">
        <ele>6</ele>
        <time>2020-06-12T05:21:14Z</time>
      </trkpt>
      <trkpt lat="49.09747" lon="-1.5984">
        <ele>6</ele>
        <time>2020-06-12T05:21:15Z</time>
      </trkpt>
      <trkpt lat="49.09751" lon="-1.59835">
        <ele>6</ele>
        <time>2020-06-12T05:21:16Z</time>
      </trkpt>
      <trkpt lat="49.09755" lon="-1.59831">
        <ele>6</ele>
        <time>2020-06-12T05:21:17Z</time>
      </trkpt>
      <trkpt lat="49.0976" lon="-1.59828">
        <ele>6</ele>
        <time>2020-06-12T05:21:18Z</time>
      </trkpt>
      <trkpt lat="49.09764" lon="-1.59827">
        <ele>6</ele>
        <time>2020-06-12T05:21:19Z</time>
      </trkpt>
      <trkpt lat="49.09768" lon="-1.59829">
        <ele>6</ele>
        <time>2020-06-12T05:21:20Z</time>
      </trkpt>
      <trkpt lat="49.09773" lon="-1.59832">
        <ele>6</ele>
        <time>2020-06-12T05:21:21Z</time>
      </trkpt>
      <trkpt lat="49.09777" lon="-1.59835">
        <ele>6</ele>
        <time>2020-06-12T05:21:22Z</time>
      </trkpt>
      <trkpt lat="49.09781" lon="-1.59837">
        <ele>6</ele>
        <time>2020-06-12T05:21:23Z</time>
      </trkpt>
      <trkpt lat="49.09786" lon="-1.59839">
        <ele>6</ele>
        <time>2020-06-12T05:21:24Z</time>
      </trkpt>
      <trkpt lat="49.0979" lon="-1.5984">
        <ele>5.9</ele>
        <time>2020-06-12T05:21:25Z</time>
      </trkpt>
      <trkpt lat="49.09795" lon="-1.59841">
        <ele>5.9</ele>
        <time>2020-06-12T05:21:26Z</time>
      </trkpt>
      <trkpt lat="49.098" lon="-1.5984">
        <ele>5.8</ele>
        <time>2020-06-12T05:21:27Z</time>
      </trkpt>
      <trkpt lat="49.09805" lon="-1.59838">
        <ele>5.8</ele>
        <time>2020-06-12T05:21:28Z</time>
      </trkpt>
      <trkpt lat="49.09811" lon="-1.59837">
        <ele>5.8</ele>
        <time>2020-06-12T05:21:29Z</time>
      </trkpt>
      <trkpt lat="49.09816" lon="-1.59834">
        <ele>5.8</ele>
        <time>2020-06-12T05:21:30Z</time>
      </trkpt>
      <trkpt lat="49.0982" lon="-1.59834">
        <ele>5.8</ele>
        <time>2020-06-12T05:21:31Z</time>
      </trkpt>
      <trkpt lat="49.09825" lon="-1.59834">
        <ele>5.8</ele>
        <time>2020-06-12T05:21:32Z</time>
      </trkpt>
      <trkpt lat="49.09829" lon="-1.59834">
        <ele>5.8</ele>
        <time>2020-06-12T05:21:33Z</time>
      </trkpt>
      <trkpt lat="49.09834" lon="-1.59833">
        <ele>5.8</ele>
        <time>2020-06-12T05:21:34Z</time>
      </trkpt>
      <trkpt lat="49.09837" lon="-1.59833">
        <ele>5.7</ele>
        <time>2020-06-12T05:21:35Z</time>
      </trkpt>
      <trkpt lat="49.09841" lon="-1.59832">
        <ele>5.7</ele>
        <time>2020-06-12T05:21:36Z</time>
      </trkpt>
      <trkpt lat="49.09844" lon="-1.59831">
        <ele>5.7</ele>
        <time>2020-06-12T05:21:37Z</time>
      </trkpt>
      <trkpt lat="49.09848" lon="-1.59831">
        <ele>5.7</ele>
        <time>2020-06-12T05:21:38Z</time>
      </trkpt>
      <trkpt lat="49.09852" lon="-1.59831">
        <ele>5.7</ele>
        <time>2020-06-12T05:21:39Z</time>
      </trkpt>
      <trkpt lat="49.09857" lon="-1.59829">
        <ele>5.7</ele>
        <time>2020-06-12T05:21:40Z</time>
      </trkpt>
      <trkpt lat="49.09862" lon="-1.59829">
        <ele>5.8</ele>
        <time>2020-06-12T05:21:41Z</time>
      </trkpt>
      <trkpt lat="49.09866" lon="-1.59829">
        <ele>5.8</ele>
        <time>2020-06-12T05:21:42Z</time>
      </trkpt>
      <trkpt lat="49.09871" lon="-1.59829">
        <ele>5.8</ele>
        <time>2020-06-12T05:21:43Z</time>
      </trkpt>
      <trkpt lat="49.09875" lon="-1.59829">
        <ele>5.8</ele>
        <time>2020-06-12T05:21:44Z</time>
      </trkpt>
      <trkpt lat="49.09879" lon="-1.59828">
        <ele>5.8</ele>
        <time>2020-06-12T05:21:45Z</time>
      </trkpt>
      <trkpt lat="49.09884" lon="-1.59828">
        <ele>5.9</ele>
        <time>2020-06-12T05:21:46Z</time>
      </trkpt>
      <trkpt lat="49.09889" lon="-1.59828">
        <ele>5.9</ele>
        <time>2020-06-12T05:21:47Z</time>
      </trkpt>
      <trkpt lat="49.09893" lon="-1.59827">
        <ele>5.9</ele>
        <time>2020-06-12T05:21:48Z</time>
      </trkpt>
      <trkpt lat="49.09898" lon="-1.59826">
        <ele>5.9</ele>
        <time>2020-06-12T05:21:49Z</time>
      </trkpt>
      <trkpt lat="49.09903" lon="-1.59825">
        <ele>5.9</ele>
        <time>2020-06-12T05:21:50Z</time>
      </trkpt>
      <trkpt lat="49.09908" lon="-1.59823">
        <ele>5.9</ele>
        <time>2020-06-12T05:21:51Z</time>
      </trkpt>
      <trkpt lat="49.09914" lon="-1.59822">
        <ele>5.9</ele>
        <time>2020-06-12T05:21:52Z</time>
      </trkpt>
      <trkpt lat="49.0992" lon="-1.59821">
        <ele>5.8</ele>
        <time>2020-06-12T05:21:53Z</time>
      </trkpt>
      <trkpt lat="49.09926" lon="-1.5982">
        <ele>5.8</ele>
        <time>2020-06-12T05:21:54Z</time>
      </trkpt>
      <trkpt lat="49.0993" lon="-1.5982">
        <ele>5.8</ele>
        <time>2020-06-12T05:21:55Z</time>
      </trkpt>
      <trkpt lat="49.09936" lon="-1.59819">
        <ele>5.7</ele>
        <time>2020-06-12T05:21:56Z</time>
      </trkpt>
      <trkpt lat="49.09941" lon="-1.59818">
        <ele>5.7</ele>
        <time>2020-06-12T05:21:57Z</time>
      </trkpt>
      <trkpt lat="49.09945" lon="-1.59817">
        <ele>5.7</ele>
        <time>2020-06-12T05:21:58Z</time>
      </trkpt>
      <trkpt lat="49.09951" lon="-1.59815">
        <ele>5.7</ele>
        <time>2020-06-12T05:21:59Z</time>
      </trkpt>
      <trkpt lat="49.09957" lon="-1.59814">
        <ele>5.7</ele>
        <time>2020-06-12T05:22:00Z</time>
      </trkpt>
      <trkpt lat="49.09963" lon="-1.59812">
        <ele>5.8</ele>
        <time>2020-06-12T05:22:01Z</time>
      </trkpt>
      <trkpt lat="49.09968" lon="-1.59812">
        <ele>5.8</ele>
        <time>2020-06-12T05:22:02Z</time>
      </trkpt>
      <trkpt lat="49.09973" lon="-1.59812">
        <ele>5.8</ele>
        <time>2020-06-12T05:22:03Z</time>
      </trkpt>
      <trkpt lat="49.09978" lon="-1.5981">
        <ele>5.8</ele>
        <time>2020-06-12T05:22:04Z</time>
      </trkpt>
      <trkpt lat="49.09984" lon="-1.59809">
        <ele>5.8</ele>
        <time>2020-06-12T05:22:05Z</time>
      </trkpt>
      <trkpt lat="49.09991" lon="-1.59808">
        <ele>5.7</ele>
        <time>2020-06-12T05:22:06Z</time>
      </trkpt>
      <trkpt lat="49.09996" lon="-1.59807">
        <ele>5.7</ele>
        <time>2020-06-12T05:22:07Z</time>
      </trkpt>
      <trkpt lat="49.10001" lon="-1.59805">
        <ele>5.7</ele>
        <time>2020-06-12T05:22:08Z</time>
      </trkpt>
      <trkpt lat="49.10006" lon="-1.59803">
        <ele>5.7</ele>
        <time>2020-06-12T05:22:09Z</time>
      </trkpt>
      <trkpt lat="49.10011" lon="-1.59801">
        <ele>5.7</ele>
        <time>2020-06-12T05:22:10Z</time>
      </trkpt>
      <trkpt lat="49.10016" lon="-1.59799">
        <ele>5.6</ele>
        <time>2020-06-12T05:22:11Z</time>
      </trkpt>
      <trkpt lat="49.10022" lon="-1.59797">
        <ele>5.6</ele>
        <time>2020-06-12T05:22:12Z</time>
      </trkpt>
      <trkpt lat="49.10027" lon="-1.59796">
        <ele>5.6</ele>
        <time>2020-06-12T05:22:13Z</time>
      </trkpt>
      <trkpt lat="49.10033" lon="-1.59794">
        <ele>5.6</ele>
        <time>2020-06-12T05:22:14Z</time>
      </trkpt>
      <trkpt lat="49.10038" lon="-1.59793">
        <ele>5.6</ele>
        <time>2020-06-12T05:22:15Z</time>
      </trkpt>
      <trkpt lat="49.10044" lon="-1.59794">
        <ele>5.6</ele>
        <time>2020-06-12T05:22:16Z</time>
      </trkpt>
      <trkpt lat="49.1005" lon="-1.59792">
        <ele>5.5</ele>
        <time>2020-06-12T05:22:17Z</time>
      </trkpt>
      <trkpt lat="49.10056" lon="-1.5979">
        <ele>5.5</ele>
        <time>2020-06-12T05:22:18Z</time>
      </trkpt>
      <trkpt lat="49.10062" lon="-1.5979">
        <ele>5.5</ele>
        <time>2020-06-12T05:22:19Z</time>
      </trkpt>
      <trkpt lat="49.10067" lon="-1.59789">
        <ele>5.4</ele>
        <time>2020-06-12T05:22:20Z</time>
      </trkpt>
      <trkpt lat="49.10073" lon="-1.59787">
        <ele>5.4</ele>
        <time>2020-06-12T05:22:21Z</time>
      </trkpt>
      <trkpt lat="49.10079" lon="-1.59787">
        <ele>5.4</ele>
        <time>2020-06-12T05:22:22Z</time>
      </trkpt>
      <trkpt lat="49.10085" lon="-1.59786">
        <ele>5.4</ele>
        <time>2020-06-12T05:22:23Z</time>
      </trkpt>
      <trkpt lat="49.10091" lon="-1.59784">
        <ele>5.3</ele>
        <time>2020-06-12T05:22:24Z</time>
      </trkpt>
      <trkpt lat="49.10097" lon="-1.59782">
        <ele>5.3</ele>
        <time>2020-06-12T05:22:25Z</time>
      </trkpt>
      <trkpt lat="49.10103" lon="-1.59781">
        <ele>5.3</ele>
        <time>2020-06-12T05:22:26Z</time>
      </trkpt>
      <trkpt lat="49.10109" lon="-1.59781">
        <ele>5.3</ele>
        <time>2020-06-12T05:22:27Z</time>
      </trkpt>
      <trkpt lat="49.10113" lon="-1.59779">
        <ele>5.3</ele>
        <time>2020-06-12T05:22:28Z</time>
      </trkpt>
      <trkpt lat="49.10117" lon="-1.59779">
        <ele>5.2</ele>
        <time>2020-06-12T05:22:29Z</time>
      </trkpt>
      <trkpt lat="49.10122" lon="-1.59777">
        <ele>5.2</ele>
        <time>2020-06-12T05:22:30Z</time>
      </trkpt>
      <trkpt lat="49.10127" lon="-1.59775">
        <ele>5.2</ele>
        <time>2020-06-12T05:22:31Z</time>
      </trkpt>
      <trkpt lat="49.10133" lon="-1.59772">
        <ele>5.2</ele>
        <time>2020-06-12T05:22:32Z</time>
      </trkpt>
      <trkpt lat="49.10139" lon="-1.59771">
        <ele>5.2</ele>
        <time>2020-06-12T05:22:33Z</time>
      </trkpt>
      <trkpt lat="49.10144" lon="-1.59769">
        <ele>5.1</ele>
        <time>2020-06-12T05:22:34Z</time>
      </trkpt>
      <trkpt lat="49.1015" lon="-1.59768">
        <ele>5.1</ele>
        <time>2020-06-12T05:22:35Z</time>
      </trkpt>
      <trkpt lat="49.10155" lon="-1.59766">
        <ele>5.1</ele>
        <time>2020-06-12T05:22:36Z</time>
      </trkpt>
      <trkpt lat="49.10159" lon="-1.59764">
        <ele>5.1</ele>
        <time>2020-06-12T05:22:37Z</time>
      </trkpt>
      <trkpt lat="49.10165" lon="-1.59763">
        <ele>5.1</ele>
        <time>2020-06-12T05:22:38Z</time>
      </trkpt>
      <trkpt lat="49.10172" lon="-1.59762">
        <ele>5.1</ele>
        <time>2020-06-12T05:22:39Z</time>
      </trkpt>
      <trkpt lat="49.10177" lon="-1.5976">
        <ele>5</ele>
        <time>2020-06-12T05:22:40Z</time>
      </trkpt>
      <trkpt lat="49.10183" lon="-1.59758">
        <ele>5</ele>
        <time>2020-06-12T05:22:41Z</time>
      </trkpt>
      <trkpt lat="49.10189" lon="-1.59755">
        <ele>5</ele>
        <time>2020-06-12T05:22:42Z</time>
      </trkpt>
      <trkpt lat="49.10195" lon="-1.59753">
        <ele>5</ele>
        <time>2020-06-12T05:22:43Z</time>
      </trkpt>
      <trkpt lat="49.10201" lon="-1.59751">
        <ele>5</ele>
        <time>2020-06-12T05:22:44Z</time>
      </trkpt>
      <trkpt lat="49.10208" lon="-1.5975">
        <ele>5</ele>
        <time>2020-06-12T05:22:45Z</time>
      </trkpt>
      <trkpt lat="49.10214" lon="-1.59748">
        <ele>5</ele>
        <time>2020-06-12T05:22:46Z</time>
      </trkpt>
      <trkpt lat="49.10219" lon="-1.59746">
        <ele>4.9</ele>
        <time>2020-06-12T05:22:47Z</time>
      </trkpt>
      <trkpt lat="49.10225" lon="-1.59746">
        <ele>4.9</ele>
        <time>2020-06-12T05:22:48Z</time>
      </trkpt>
      <trkpt lat="49.10232" lon="-1.59745">
        <ele>4.9</ele>
        <time>2020-06-12T05:22:49Z</time>
      </trkpt>
      <trkpt lat="49.10238" lon="-1.59743">
        <ele>4.9</ele>
        <time>2020-06-12T05:22:50Z</time>
      </trkpt>
      <trkpt lat="49.10245" lon="-1.59742">
        <ele>4.9</ele>
        <time>2020-06-12T05:22:51Z</time>
      </trkpt>
      <trkpt lat="49.10252" lon="-1.59739">
        <ele>4.8</ele>
        <time>2020-06-12T05:22:52Z</time>
      </trkpt>
      <trkpt lat="49.10257" lon="-1.59737">
        <ele>4.8</ele>
        <time>2020-06-12T05:22:53Z</time>
      </trkpt>
      <trkpt lat="49.10263" lon="-1.59735">
        <ele>4.8</ele>
        <time>2020-06-12T05:22:54Z</time>
      </trkpt>
      <trkpt lat="49.10268" lon="-1.59733">
        <ele>4.9</ele>
        <time>2020-06-12T05:22:55Z</time>
      </trkpt>
      <trkpt lat="49.10273" lon="-1.59732">
        <ele>4.9</ele>
        <time>2020-06-12T05:22:56Z</time>
      </trkpt>
      <trkpt lat="49.10278" lon="-1.5973">
        <ele>4.9</ele>
        <time>2020-06-12T05:22:57Z</time>
      </trkpt>
      <trkpt lat="49.10283" lon="-1.59729">
        <ele>4.9</ele>
        <time>2020-06-12T05:22:58Z</time>
      </trkpt>
      <trkpt lat="49.10287" lon="-1.59727">
        <ele>4.9</ele>
        <time>2020-06-12T05:22:59Z</time>
      </trkpt>
      <trkpt lat="49.10292" lon="-1.59725">
        <ele>4.9</ele>
        <time>2020-06-12T05:23:00Z</time>
      </trkpt>
      <trkpt lat="49.10297" lon="-1.59723">
        <ele>4.9</ele>
        <time>2020-06-12T05:23:01Z</time>
      </trkpt>
      <trkpt lat="49.10302" lon="-1.5972">
        <ele>4.9</ele>
        <time>2020-06-12T05:23:02Z</time>
      </trkpt>
      <trkpt lat="49.10307" lon="-1.59717">
        <ele>4.9</ele>
        <time>2020-06-12T05:23:03Z</time>
      </trkpt>
      <trkpt lat="49.10312" lon="-1.59715">
        <ele>4.8</ele>
        <time>2020-06-12T05:23:04Z</time>
      </trkpt>
      <trkpt lat="49.10318" lon="-1.59712">
        <ele>4.8</ele>
        <time>2020-06-12T05:23:05Z</time>
      </trkpt>
      <trkpt lat="49.10324" lon="-1.59711">
        <ele>4.8</ele>
        <time>2020-06-12T05:23:06Z</time>
      </trkpt>
      <trkpt lat="49.10329" lon="-1.59708">
        <ele>4.8</ele>
        <time>2020-06-12T05:23:07Z</time>
      </trkpt>
      <trkpt lat="49.10333" lon="-1.59707">
        <ele>4.9</ele>
        <time>2020-06-12T05:23:08Z</time>
      </trkpt>
      <trkpt lat="49.10339" lon="-1.59704">
        <ele>4.9</ele>
        <time>2020-06-12T05:23:09Z</time>
      </trkpt>
      <trkpt lat="49.10344" lon="-1.59702">
        <ele>4.9</ele>
        <time>2020-06-12T05:23:10Z</time>
      </trkpt>
      <trkpt lat="49.10349" lon="-1.59701">
        <ele>4.9</ele>
        <time>2020-06-12T05:23:11Z</time>
      </trkpt>
      <trkpt lat="49.10353" lon="-1.59698">
        <ele>4.9</ele>
        <time>2020-06-12T05:23:12Z</time>
      </trkpt>
      <trkpt lat="49.10358" lon="-1.59696">
        <ele>4.9</ele>
        <time>2020-06-12T05:23:13Z</time>
      </trkpt>
      <trkpt lat="49.10362" lon="-1.59694">
        <ele>5</ele>
        <time>2020-06-12T05:23:14Z</time>
      </trkpt>
      <trkpt lat="49.10367" lon="-1.5969">
        <ele>5</ele>
        <time>2020-06-12T05:23:15Z</time>
      </trkpt>
      <trkpt lat="49.1037" lon="-1.59687">
        <ele>5</ele>
        <time>2020-06-12T05:23:16Z</time>
      </trkpt>
      <trkpt lat="49.10376" lon="-1.59685">
        <ele>5</ele>
        <time>2020-06-12T05:23:17Z</time>
      </trkpt>
      <trkpt lat="49.10382" lon="-1.59684">
        <ele>5</ele>
        <time>2020-06-12T05:23:18Z</time>
      </trkpt>
      <trkpt lat="49.10387" lon="-1.59683">
        <ele>5</ele>
        <time>2020-06-12T05:23:19Z</time>
      </trkpt>
      <trkpt lat="49.10393" lon="-1.59681">
        <ele>5</ele>
        <time>2020-06-12T05:23:20Z</time>
      </trkpt>
      <trkpt lat="49.10397" lon="-1.59678">
        <ele>5</ele>
        <time>2020-06-12T05:23:21Z</time>
      </trkpt>
      <trkpt lat="49.10402" lon="-1.59676">
        <ele>5.1</ele>
        <time>2020-06-12T05:23:22Z</time>
      </trkpt>
      <trkpt lat="49.10407" lon="-1.59674">
        <ele>5.1</ele>
        <time>2020-06-12T05:23:23Z</time>
      </trkpt>
      <trkpt lat="49.10411" lon="-1.59673">
        <ele>5.1</ele>
        <time>2020-06-12T05:23:24Z</time>
      </trkpt>
      <trkpt lat="49.10416" lon="-1.59671">
        <ele>5.1</ele>
        <time>2020-06-12T05:23:25Z</time>
      </trkpt>
      <trkpt lat="49.10421" lon="-1.59669">
        <ele>5.1</ele>
        <time>2020-06-12T05:23:26Z</time>
      </trkpt>
      <trkpt lat="49.10426" lon="-1.59667">
        <ele>5.1</ele>
        <time>2020-06-12T05:23:27Z</time>
      </trkpt>
      <trkpt lat="49.10431" lon="-1.59665">
        <ele>5.2</ele>
        <time>2020-06-12T05:23:28Z</time>
      </trkpt>
      <trkpt lat="49.10437" lon="-1.59663">
        <ele>5.2</ele>
        <time>2020-06-12T05:23:29Z</time>
      </trkpt>
      <trkpt lat="49.10443" lon="-1.5966">
        <ele>5.2</ele>
        <time>2020-06-12T05:23:30Z</time>
      </trkpt>
      <trkpt lat="49.10448" lon="-1.59658">
        <ele>5.3</ele>
        <time>2020-06-12T05:23:31Z</time>
      </trkpt>
      <trkpt lat="49.10453" lon="-1.59656">
        <ele>5.3</ele>
        <time>2020-06-12T05:23:32Z</time>
      </trkpt>
      <trkpt lat="49.1046" lon="-1.59655">
        <ele>5.4</ele>
        <time>2020-06-12T05:23:33Z</time>
      </trkpt>
      <trkpt lat="49.10466" lon="-1.59653">
        <ele>5.5</ele>
        <time>2020-06-12T05:23:34Z</time>
      </trkpt>
      <trkpt lat="49.10472" lon="-1.59649">
        <ele>5.7</ele>
        <time>2020-06-12T05:23:35Z</time>
      </trkpt>
      <trkpt lat="49.10477" lon="-1.59647">
        <ele>6.1</ele>
        <time>2020-06-12T05:23:36Z</time>
      </trkpt>
      <trkpt lat="49.10482" lon="-1.59645">
        <ele>6</ele>
        <time>2020-06-12T05:23:37Z</time>
      </trkpt>
      <trkpt lat="49.10487" lon="-1.59643">
        <ele>6</ele>
        <time>2020-06-12T05:23:38Z</time>
      </trkpt>
      <trkpt lat="49.10492" lon="-1.5964">
        <ele>5.9</ele>
        <time>2020-06-12T05:23:39Z</time>
      </trkpt>
      <trkpt lat="49.10496" lon="-1.59637">
        <ele>5.9</ele>
        <time>2020-06-12T05:23:40Z</time>
      </trkpt>
      <trkpt lat="49.10502" lon="-1.59635">
        <ele>5.9</ele>
        <time>2020-06-12T05:23:41Z</time>
      </trkpt>
      <trkpt lat="49.10507" lon="-1.59634">
        <ele>5.9</ele>
        <time>2020-06-12T05:23:42Z</time>
      </trkpt>
      <trkpt lat="49.10513" lon="-1.59633">
        <ele>5.9</ele>
        <time>2020-06-12T05:23:43Z</time>
      </trkpt>
      <trkpt lat="49.10519" lon="-1.5963">
        <ele>5.9</ele>
        <time>2020-06-12T05:23:44Z</time>
      </trkpt>
      <trkpt lat="49.10525" lon="-1.59628">
        <ele>5.9</ele>
        <time>2020-06-12T05:23:45Z</time>
      </trkpt>
      <trkpt lat="49.10531" lon="-1.59626">
        <ele>6</ele>
        <time>2020-06-12T05:23:46Z</time>
      </trkpt>
      <trkpt lat="49.10535" lon="-1.59624">
        <ele>6</ele>
        <time>2020-06-12T05:23:47Z</time>
      </trkpt>
      <trkpt lat="49.10539" lon="-1.59622">
        <ele>6</ele>
        <time>2020-06-12T05:23:48Z</time>
      </trkpt>
      <trkpt lat="49.10544" lon="-1.5962">
        <ele>6</ele>
        <time>2020-06-12T05:23:49Z</time>
      </trkpt>
      <trkpt lat="49.1055" lon="-1.59617">
        <ele>6</ele>
        <time>2020-06-12T05:23:50Z</time>
      </trkpt>
      <trkpt lat="49.10554" lon="-1.59616">
        <ele>6</ele>
        <time>2020-06-12T05:23:51Z</time>
      </trkpt>
      <trkpt lat="49.10559" lon="-1.59614">
        <ele>6.1</ele>
        <time>2020-06-12T05:23:52Z</time>
      </trkpt>
      <trkpt lat="49.10563" lon="-1.5961">
        <ele>6.1</ele>
        <time>2020-06-12T05:23:53Z</time>
      </trkpt>
      <trkpt lat="49.10569" lon="-1.59607">
        <ele>6.1</ele>
        <time>2020-06-12T05:23:54Z</time>
      </trkpt>
      <trkpt lat="49.10575" lon="-1.59605">
        <ele>6.1</ele>
        <time>2020-06-12T05:23:55Z</time>
      </trkpt>
      <trkpt lat="49.1058" lon="-1.59604">
        <ele>6.1</ele>
        <time>2020-06-12T05:23:56Z</time>
      </trkpt>
      <trkpt lat="49.10586" lon="-1.59603">
        <ele>6.1</ele>
        <time>2020-06-12T05:23:57Z</time>
      </trkpt>
      <trkpt lat="49.10591" lon="-1.59601">
        <ele>6.1</ele>
        <time>2020-06-12T05:23:58Z</time>
      </trkpt>
      <trkpt lat="49.10597" lon="-1.59597">
        <ele>6.2</ele>
        <time>2020-06-12T05:23:59Z</time>
      </trkpt>
      <trkpt lat="49.10602" lon="-1.59594">
        <ele>6.2</ele>
        <time>2020-06-12T05:24:00Z</time>
      </trkpt>
      <trkpt lat="49.10606" lon="-1.59591">
        <ele>6.2</ele>
        <time>2020-06-12T05:24:01Z</time>
      </trkpt>
      <trkpt lat="49.10612" lon="-1.59589">
        <ele>6.2</ele>
        <time>2020-06-12T05:24:02Z</time>
      </trkpt>
      <trkpt lat="49.10617" lon="-1.59586">
        <ele>6.2</ele>
        <time>2020-06-12T05:24:03Z</time>
      </trkpt>
      <trkpt lat="49.10622" lon="-1.59583">
        <ele>6.2</ele>
        <time>2020-06-12T05:24:04Z</time>
      </trkpt>
      <trkpt lat="49.10627" lon="-1.59581">
        <ele>6.2</ele>
        <time>2020-06-12T05:24:05Z</time>
      </trkpt>
      <trkpt lat="49.10632" lon="-1.59578">
        <ele>6.3</ele>
        <time>2020-06-12T05:24:06Z</time>
      </trkpt>
      <trkpt lat="49.10637" lon="-1.59575">
        <ele>6.3</ele>
        <time>2020-06-12T05:24:07Z</time>
      </trkpt>
      <trkpt lat="49.10643" lon="-1.59573">
        <ele>6.3</ele>
        <time>2020-06-12T05:24:08Z</time>
      </trkpt>
      <trkpt lat="49.10648" lon="-1.59571">
        <ele>6.3</ele>
        <time>2020-06-12T05:24:09Z</time>
      </trkpt>
      <trkpt lat="49.10654" lon="-1.59569">
        <ele>6.3</ele>
        <time>2020-06-12T05:24:10Z</time>
      </trkpt>
      <trkpt lat="49.10659" lon="-1.59567">
        <ele>6.4</ele>
        <time>2020-06-12T05:24:11Z</time>
      </trkpt>
      <trkpt lat="49.10664" lon="-1.59566">
        <ele>6.4</ele>
        <time>2020-06-12T05:24:12Z</time>
      </trkpt>
      <trkpt lat="49.10669" lon="-1.59564">
        <ele>6.4</ele>
        <time>2020-06-12T05:24:13Z</time>
      </trkpt>
      <trkpt lat="49.10674" lon="-1.59562">
        <ele>6.4</ele>
        <time>2020-06-12T05:24:14Z</time>
      </trkpt>
      <trkpt lat="49.10679" lon="-1.5956">
        <ele>6.4</ele>
        <time>2020-06-12T05:24:15Z</time>
      </trkpt>
      <trkpt lat="49.10683" lon="-1.59558">
        <ele>6.4</ele>
        <time>2020-06-12T05:24:16Z</time>
      </trkpt>
      <trkpt lat="49.10688" lon="-1.59556">
        <ele>6.4</ele>
        <time>2020-06-12T05:24:17Z</time>
      </trkpt>
      <trkpt lat="49.10692" lon="-1.59552">
        <ele>6.4</ele>
        <time>2020-06-12T05:24:18Z</time>
      </trkpt>
      <trkpt lat="49.10697" lon="-1.5955">
        <ele>6.3</ele>
        <time>2020-06-12T05:24:19Z</time>
      </trkpt>
      <trkpt lat="49.10702" lon="-1.59547">
        <ele>6.3</ele>
        <time>2020-06-12T05:24:20Z</time>
      </trkpt>
      <trkpt lat="49.10708" lon="-1.59545">
        <ele>6.3</ele>
        <time>2020-06-12T05:24:21Z</time>
      </trkpt>
      <trkpt lat="49.10713" lon="-1.59542">
        <ele>6.3</ele>
        <time>2020-06-12T05:24:22Z</time>
      </trkpt>
      <trkpt lat="49.10719" lon="-1.5954">
        <ele>6.3</ele>
        <time>2020-06-12T05:24:23Z</time>
      </trkpt>
      <trkpt lat="49.10724" lon="-1.59537">
        <ele>6.2</ele>
        <time>2020-06-12T05:24:24Z</time>
      </trkpt>
      <trkpt lat="49.10729" lon="-1.59533">
        <ele>6.2</ele>
        <time>2020-06-12T05:24:25Z</time>
      </trkpt>
      <trkpt lat="49.10735" lon="-1.59532">
        <ele>6.2</ele>
        <time>2020-06-12T05:24:26Z</time>
      </trkpt>
      <trkpt lat="49.1074" lon="-1.59529">
        <ele>6.2</ele>
        <time>2020-06-12T05:24:27Z</time>
      </trkpt>
      <trkpt lat="49.10746" lon="-1.59525">
        <ele>6.1</ele>
        <time>2020-06-12T05:24:28Z</time>
      </trkpt>
      <trkpt lat="49.10751" lon="-1.59522">
        <ele>6.1</ele>
        <time>2020-06-12T05:24:29Z</time>
      </trkpt>
      <trkpt lat="49.10756" lon="-1.59519">
        <ele>6.1</ele>
        <time>2020-06-12T05:24:30Z</time>
      </trkpt>
      <trkpt lat="49.10761" lon="-1.59516">
        <ele>6.1</ele>
        <time>2020-06-12T05:24:31Z</time>
      </trkpt>
      <trkpt lat="49.10767" lon="-1.59514">
        <ele>6</ele>
        <time>2020-06-12T05:24:32Z</time>
      </trkpt>
      <trkpt lat="49.10772" lon="-1.59512">
        <ele>6</ele>
        <time>2020-06-12T05:24:33Z</time>
      </trkpt>
      <trkpt lat="49.10777" lon="-1.5951">
        <ele>6</ele>
        <time>2020-06-12T05:24:34Z</time>
      </trkpt>
      <trkpt lat="49.10781" lon="-1.59507">
        <ele>6</ele>
        <time>2020-06-12T05:24:35Z</time>
      </trkpt>
      <trkpt lat="49.10786" lon="-1.59504">
        <ele>6</ele>
        <time>2020-06-12T05:24:36Z</time>
      </trkpt>
      <trkpt lat="49.10792" lon="-1.59502">
        <ele>5.9</ele>
        <time>2020-06-12T05:24:37Z</time>
      </trkpt>
      <trkpt lat="49.10798" lon="-1.59499">
        <ele>5.9</ele>
        <time>2020-06-12T05:24:38Z</time>
      </trkpt>
      <trkpt lat="49.10803" lon="-1.59497">
        <ele>5.8</ele>
        <time>2020-06-12T05:24:39Z</time>
      </trkpt>
      <trkpt lat="49.10808" lon="-1.59494">
        <ele>5.8</ele>
        <time>2020-06-12T05:24:40Z</time>
      </trkpt>
      <trkpt lat="49.10813" lon="-1.59491">
        <ele>5.8</ele>
        <time>2020-06-12T05:24:41Z</time>
      </trkpt>
      <trkpt lat="49.10819" lon="-1.59488">
        <ele>5.8</ele>
        <time>2020-06-12T05:24:42Z</time>
      </trkpt>
      <trkpt lat="49.10824" lon="-1.59485">
        <ele>5.8</ele>
        <time>2020-06-12T05:24:43Z</time>
      </trkpt>
      <trkpt lat="49.1083" lon="-1.59482">
        <ele>5.8</ele>
        <time>2020-06-12T05:24:44Z</time>
      </trkpt>
      <trkpt lat="49.10836" lon="-1.59479">
        <ele>5.8</ele>
        <time>2020-06-12T05:24:45Z</time>
      </trkpt>
      <trkpt lat="49.10842" lon="-1.59476">
        <ele>5.8</ele>
        <time>2020-06-12T05:24:46Z</time>
      </trkpt>
      <trkpt lat="49.10847" lon="-1.59473">
        <ele>5.7</ele>
        <time>2020-06-12T05:24:47Z</time>
      </trkpt>
      <trkpt lat="49.10852" lon="-1.59471">
        <ele>5.7</ele>
        <time>2020-06-12T05:24:48Z</time>
      </trkpt>
      <trkpt lat="49.10858" lon="-1.59467">
        <ele>5.7</ele>
        <time>2020-06-12T05:24:49Z</time>
      </trkpt>
      <trkpt lat="49.10863" lon="-1.59464">
        <ele>5.6</ele>
        <time>2020-06-12T05:24:50Z</time>
      </trkpt>
      <trkpt lat="49.10869" lon="-1.59462">
        <ele>5.6</ele>
        <time>2020-06-12T05:24:51Z</time>
      </trkpt>
      <trkpt lat="49.10874" lon="-1.5946">
        <ele>5.6</ele>
        <time>2020-06-12T05:24:52Z</time>
      </trkpt>
      <trkpt lat="49.10879" lon="-1.59457">
        <ele>5.6</ele>
        <time>2020-06-12T05:24:53Z</time>
      </trkpt>
      <trkpt lat="49.10884" lon="-1.59455">
        <ele>5.5</ele>
        <time>2020-06-12T05:24:54Z</time>
      </trkpt>
      <trkpt lat="49.10889" lon="-1.59452">
        <ele>5.5</ele>
        <time>2020-06-12T05:24:55Z</time>
      </trkpt>
      <trkpt lat="49.10894" lon="-1.5945">
        <ele>5.5</ele>
        <time>2020-06-12T05:24:56Z</time>
      </trkpt>
      <trkpt lat="49.10899" lon="-1.59447">
        <ele>5.5</ele>
        <time>2020-06-12T05:24:57Z</time>
      </trkpt>
      <trkpt lat="49.10905" lon="-1.59445">
        <ele>5.4</ele>
        <time>2020-06-12T05:24:58Z</time>
      </trkpt>
      <trkpt lat="49.10911" lon="-1.59441">
        <ele>5.4</ele>
        <time>2020-06-12T05:24:59Z</time>
      </trkpt>
      <trkpt lat="49.10916" lon="-1.59438">
        <ele>5.4</ele>
        <time>2020-06-12T05:25:00Z</time>
      </trkpt>
      <trkpt lat="49.10921" lon="-1.59436">
        <ele>5.4</ele>
        <time>2020-06-12T05:25:01Z</time>
      </trkpt>
      <trkpt lat="49.10926" lon="-1.59433">
        <ele>5.4</ele>
        <time>2020-06-12T05:25:02Z</time>
      </trkpt>
      <trkpt lat="49.10931" lon="-1.59431">
        <ele>5.4</ele>
        <time>2020-06-12T05:25:03Z</time>
      </trkpt>
      <trkpt lat="49.10936" lon="-1.59429">
        <ele>5.3</ele>
        <time>2020-06-12T05:25:04Z</time>
      </trkpt>
      <trkpt lat="49.10941" lon="-1.59425">
        <ele>5.3</ele>
        <time>2020-06-12T05:25:05Z</time>
      </trkpt>
      <trkpt lat="49.10946" lon="-1.59423">
        <ele>5.3</ele>
        <time>2020-06-12T05:25:06Z</time>
      </trkpt>
      <trkpt lat="49.10951" lon="-1.5942">
        <ele>5.3</ele>
        <time>2020-06-12T05:25:07Z</time>
      </trkpt>
      <trkpt lat="49.10957" lon="-1.59417">
        <ele>5.3</ele>
        <time>2020-06-12T05:25:08Z</time>
      </trkpt>
      <trkpt lat="49.10962" lon="-1.59415">
        <ele>5.3</ele>
        <time>2020-06-12T05:25:09Z</time>
      </trkpt>
      <trkpt lat="49.10968" lon="-1.59412">
        <ele>5.2</ele>
        <time>2020-06-12T05:25:10Z</time>
      </trkpt>
      <trkpt lat="49.10973" lon="-1.5941">
        <ele>5.2</ele>
        <time>2020-06-12T05:25:11Z</time>
      </trkpt>
      <trkpt lat="49.10978" lon="-1.59408">
        <ele>5.1</ele>
        <time>2020-06-12T05:25:12Z</time>
      </trkpt>
      <trkpt lat="49.10982" lon="-1.59405">
        <ele>5.1</ele>
        <time>2020-06-12T05:25:13Z</time>
      </trkpt>
      <trkpt lat="49.10987" lon="-1.59402">
        <ele>5</ele>
        <time>2020-06-12T05:25:14Z</time>
      </trkpt>
      <trkpt lat="49.10993" lon="-1.59399">
        <ele>5</ele>
        <time>2020-06-12T05:25:15Z</time>
      </trkpt>
      <trkpt lat="49.10998" lon="-1.59396">
        <ele>4.9</ele>
        <time>2020-06-12T05:25:16Z</time>
      </trkpt>
      <trkpt lat="49.11004" lon="-1.59394">
        <ele>4.9</ele>
        <time>2020-06-12T05:25:17Z</time>
      </trkpt>
      <trkpt lat="49.11009" lon="-1.59391">
        <ele>4.9</ele>
        <time>2020-06-12T05:25:18Z</time>
      </trkpt>
      <trkpt lat="49.11015" lon="-1.59389">
        <ele>4.9</ele>
        <time>2020-06-12T05:25:19Z</time>
      </trkpt>
      <trkpt lat="49.1102" lon="-1.59386">
        <ele>4.9</ele>
        <time>2020-06-12T05:25:20Z</time>
      </trkpt>
      <trkpt lat="49.11025" lon="-1.59383">
        <ele>4.9</ele>
        <time>2020-06-12T05:25:21Z</time>
      </trkpt>
      <trkpt lat="49.1103" lon="-1.5938">
        <ele>4.9</ele>
        <time>2020-06-12T05:25:22Z</time>
      </trkpt>
      <trkpt lat="49.11036" lon="-1.59376">
        <ele>4.8</ele>
        <time>2020-06-12T05:25:23Z</time>
      </trkpt>
      <trkpt lat="49.11041" lon="-1.59374">
        <ele>4.8</ele>
        <time>2020-06-12T05:25:24Z</time>
      </trkpt>
      <trkpt lat="49.11047" lon="-1.59372">
        <ele>4.8</ele>
        <time>2020-06-12T05:25:25Z</time>
      </trkpt>
      <trkpt lat="49.11053" lon="-1.59369">
        <ele>4.7</ele>
        <time>2020-06-12T05:25:26Z</time>
      </trkpt>
      <trkpt lat="49.11058" lon="-1.59367">
        <ele>4.7</ele>
        <time>2020-06-12T05:25:27Z</time>
      </trkpt>
      <trkpt lat="49.11064" lon="-1.59364">
        <ele>4.7</ele>
        <time>2020-06-12T05:25:28Z</time>
      </trkpt>
      <trkpt lat="49.11069" lon="-1.59361">
        <ele>4.7</ele>
        <time>2020-06-12T05:25:29Z</time>
      </trkpt>
      <trkpt lat="49.11074" lon="-1.59358">
        <ele>4.7</ele>
        <time>2020-06-12T05:25:30Z</time>
      </trkpt>
      <trkpt lat="49.1108" lon="-1.59356">
        <ele>4.7</ele>
        <time>2020-06-12T05:25:31Z</time>
      </trkpt>
      <trkpt lat="49.11085" lon="-1.59353">
        <ele>4.8</ele>
        <time>2020-06-12T05:25:32Z</time>
      </trkpt>
      <trkpt lat="49.11091" lon="-1.5935">
        <ele>4.8</ele>
        <time>2020-06-12T05:25:33Z</time>
      </trkpt>
      <trkpt lat="49.11096" lon="-1.59347">
        <ele>4.8</ele>
        <time>2020-06-12T05:25:34Z</time>
      </trkpt>
      <trkpt lat="49.11102" lon="-1.59345">
        <ele>4.7</ele>
        <time>2020-06-12T05:25:35Z</time>
      </trkpt>
      <trkpt lat="49.11108" lon="-1.59342">
        <ele>4.7</ele>
        <time>2020-06-12T05:25:36Z</time>
      </trkpt>
      <trkpt lat="49.11113" lon="-1.5934">
        <ele>4.7</ele>
        <time>2020-06-12T05:25:37Z</time>
      </trkpt>
      <trkpt lat="49.11119" lon="-1.59337">
        <ele>4.7</ele>
        <time>2020-06-12T05:25:38Z</time>
      </trkpt>
      <trkpt lat="49.11124" lon="-1.59334">
        <ele>4.7</ele>
        <time>2020-06-12T05:25:39Z</time>
      </trkpt>
      <trkpt lat="49.1113" lon="-1.59332">
        <ele>4.8</ele>
        <time>2020-06-12T05:25:40Z</time>
      </trkpt>
      <trkpt lat="49.11135" lon="-1.59328">
        <ele>4.8</ele>
        <time>2020-06-12T05:25:41Z</time>
      </trkpt>
      <trkpt lat="49.1114" lon="-1.59326">
        <ele>4.8</ele>
        <time>2020-06-12T05:25:42Z</time>
      </trkpt>
      <trkpt lat="49.11146" lon="-1.59324">
        <ele>4.8</ele>
        <time>2020-06-12T05:25:43Z</time>
      </trkpt>
      <trkpt lat="49.11152" lon="-1.5932">
        <ele>4.8</ele>
        <time>2020-06-12T05:25:44Z</time>
      </trkpt>
      <trkpt lat="49.11158" lon="-1.59317">
        <ele>4.9</ele>
        <time>2020-06-12T05:25:45Z</time>
      </trkpt>
      <trkpt lat="49.11163" lon="-1.59315">
        <ele>5</ele>
        <time>2020-06-12T05:25:46Z</time>
      </trkpt>
      <trkpt lat="49.11169" lon="-1.59312">
        <ele>5.1</ele>
        <time>2020-06-12T05:25:47Z</time>
      </trkpt>
      <trkpt lat="49.11174" lon="-1.59309">
        <ele>5.2</ele>
        <time>2020-06-12T05:25:48Z</time>
      </trkpt>
      <trkpt lat="49.11179" lon="-1.59307">
        <ele>5.3</ele>
        <time>2020-06-12T05:25:49Z</time>
      </trkpt>
      <trkpt lat="49.11185" lon="-1.59304">
        <ele>5.4</ele>
        <time>2020-06-12T05:25:50Z</time>
      </trkpt>
      <trkpt lat="49.1119" lon="-1.593">
        <ele>5.4</ele>
        <time>2020-06-12T05:25:51Z</time>
      </trkpt>
      <trkpt lat="49.11196" lon="-1.59297">
        <ele>5.4</ele>
        <time>2020-06-12T05:25:52Z</time>
      </trkpt>
      <trkpt lat="49.11201" lon="-1.59294">
        <ele>5.4</ele>
        <time>2020-06-12T05:25:53Z</time>
      </trkpt>
      <trkpt lat="49.11206" lon="-1.59294">
        <ele>5.4</ele>
        <time>2020-06-12T05:25:54Z</time>
      </trkpt>
      <trkpt lat="49.11212" lon="-1.59291">
        <ele>5.4</ele>
        <time>2020-06-12T05:25:55Z</time>
      </trkpt>
      <trkpt lat="49.11217" lon="-1.59288">
        <ele>5.4</ele>
        <time>2020-06-12T05:25:56Z</time>
      </trkpt>
      <trkpt lat="49.11223" lon="-1.59285">
        <ele>5.4</ele>
        <time>2020-06-12T05:25:57Z</time>
      </trkpt>
      <trkpt lat="49.11228" lon="-1.59283">
        <ele>5.4</ele>
        <time>2020-06-12T05:25:58Z</time>
      </trkpt>
      <trkpt lat="49.11234" lon="-1.5928">
        <ele>5.4</ele>
        <time>2020-06-12T05:25:59Z</time>
      </trkpt>
      <trkpt lat="49.11239" lon="-1.59277">
        <ele>5.5</ele>
        <time>2020-06-12T05:26:00Z</time>
      </trkpt>
      <trkpt lat="49.11245" lon="-1.59273">
        <ele>5.5</ele>
        <time>2020-06-12T05:26:01Z</time>
      </trkpt>
      <trkpt lat="49.1125" lon="-1.5927">
        <ele>5.5</ele>
        <time>2020-06-12T05:26:02Z</time>
      </trkpt>
      <trkpt lat="49.11255" lon="-1.59266">
        <ele>5.5</ele>
        <time>2020-06-12T05:26:03Z</time>
      </trkpt>
      <trkpt lat="49.1126" lon="-1.59264">
        <ele>5.5</ele>
        <time>2020-06-12T05:26:04Z</time>
      </trkpt>
      <trkpt lat="49.11266" lon="-1.59262">
        <ele>5.5</ele>
        <time>2020-06-12T05:26:05Z</time>
      </trkpt>
      <trkpt lat="49.11271" lon="-1.5926">
        <ele>5.5</ele>
        <time>2020-06-12T05:26:06Z</time>
      </trkpt>
      <trkpt lat="49.11276" lon="-1.59257">
        <ele>5.5</ele>
        <time>2020-06-12T05:26:07Z</time>
      </trkpt>
      <trkpt lat="49.11281" lon="-1.59254">
        <ele>5.5</ele>
        <time>2020-06-12T05:26:08Z</time>
      </trkpt>
      <trkpt lat="49.11287" lon="-1.59252">
        <ele>5.5</ele>
        <time>2020-06-12T05:26:09Z</time>
      </trkpt>
      <trkpt lat="49.11293" lon="-1.59249">
        <ele>5.6</ele>
        <time>2020-06-12T05:26:10Z</time>
      </trkpt>
      <trkpt lat="49.11299" lon="-1.59246">
        <ele>5.6</ele>
        <time>2020-06-12T05:26:11Z</time>
      </trkpt>
      <trkpt lat="49.11305" lon="-1.59243">
        <ele>5.6</ele>
        <time>2020-06-12T05:26:12Z</time>
      </trkpt>
      <trkpt lat="49.1131" lon="-1.5924">
        <ele>5.6</ele>
        <time>2020-06-12T05:26:13Z</time>
      </trkpt>
      <trkpt lat="49.11316" lon="-1.59237">
        <ele>5.6</ele>
        <time>2020-06-12T05:26:14Z</time>
      </trkpt>
      <trkpt lat="49.11322" lon="-1.59235">
        <ele>5.6</ele>
        <time>2020-06-12T05:26:15Z</time>
      </trkpt>
      <trkpt lat="49.11327" lon="-1.59232">
        <ele>5.6</ele>
        <time>2020-06-12T05:26:16Z</time>
      </trkpt>
      <trkpt lat="49.11333" lon="-1.59229">
        <ele>5.6</ele>
        <time>2020-06-12T05:26:17Z</time>
      </trkpt>
      <trkpt lat="49.11338" lon="-1.59227">
        <ele>5.6</ele>
        <time>2020-06-12T05:26:18Z</time>
      </trkpt>
      <trkpt lat="49.11344" lon="-1.59223">
        <ele>5.5</ele>
        <time>2020-06-12T05:26:19Z</time>
      </trkpt>
      <trkpt lat="49.11349" lon="-1.5922">
        <ele>5.5</ele>
        <time>2020-06-12T05:26:20Z</time>
      </trkpt>
      <trkpt lat="49.11355" lon="-1.59217">
        <ele>5.5</ele>
        <time>2020-06-12T05:26:21Z</time>
      </trkpt>
      <trkpt lat="49.11361" lon="-1.59213">
        <ele>5.5</ele>
        <time>2020-06-12T05:26:22Z</time>
      </trkpt>
      <trkpt lat="49.11366" lon="-1.59211">
        <ele>5.5</ele>
        <time>2020-06-12T05:26:23Z</time>
      </trkpt>
      <trkpt lat="49.11371" lon="-1.59209">
        <ele>5.5</ele>
        <time>2020-06-12T05:26:24Z</time>
      </trkpt>
      <trkpt lat="49.11377" lon="-1.59207">
        <ele>5.5</ele>
        <time>2020-06-12T05:26:25Z</time>
      </trkpt>
      <trkpt lat="49.11381" lon="-1.59203">
        <ele>5.5</ele>
        <time>2020-06-12T05:26:26Z</time>
      </trkpt>
      <trkpt lat="49.11387" lon="-1.59201">
        <ele>5.5</ele>
        <time>2020-06-12T05:26:27Z</time>
      </trkpt>
      <trkpt lat="49.11392" lon="-1.59198">
        <ele>5.5</ele>
        <time>2020-06-12T05:26:28Z</time>
      </trkpt>
      <trkpt lat="49.11397" lon="-1.59195">
        <ele>5.5</ele>
        <time>2020-06-12T05:26:29Z</time>
      </trkpt>
      <trkpt lat="49.11403" lon="-1.59193">
        <ele>5.5</ele>
        <time>2020-06-12T05:26:30Z</time>
      </trkpt>
      <trkpt lat="49.11408" lon="-1.5919">
        <ele>5.5</ele>
        <time>2020-06-12T05:26:31Z</time>
      </trkpt>
      <trkpt lat="49.11414" lon="-1.59187">
        <ele>5.5</ele>
        <time>2020-06-12T05:26:32Z</time>
      </trkpt>
      <trkpt lat="49.11419" lon="-1.59184">
        <ele>5.5</ele>
        <time>2020-06-12T05:26:33Z</time>
      </trkpt>
      <trkpt lat="49.11424" lon="-1.59181">
        <ele>5.5</ele>
        <time>2020-06-12T05:26:34Z</time>
      </trkpt>
      <trkpt lat="49.11429" lon="-1.59179">
        <ele>5.5</ele>
        <time>2020-06-12T05:26:35Z</time>
      </trkpt>
      <trkpt lat="49.11434" lon="-1.59176">
        <ele>5.5</ele>
        <time>2020-06-12T05:26:36Z</time>
      </trkpt>
      <trkpt lat="49.1144" lon="-1.59174">
        <ele>5.4</ele>
        <time>2020-06-12T05:26:37Z</time>
      </trkpt>
      <trkpt lat="49.11446" lon="-1.59172">
        <ele>5.4</ele>
        <time>2020-06-12T05:26:38Z</time>
      </trkpt>
      <trkpt lat="49.11451" lon="-1.59169">
        <ele>5.4</ele>
        <time>2020-06-12T05:26:39Z</time>
      </trkpt>
      <trkpt lat="49.11457" lon="-1.59166">
        <ele>5.4</ele>
        <time>2020-06-12T05:26:40Z</time>
      </trkpt>
      <trkpt lat="49.11463" lon="-1.59164">
        <ele>5.4</ele>
        <time>2020-06-12T05:26:41Z</time>
      </trkpt>
      <trkpt lat="49.11468" lon="-1.5916">
        <ele>5.4</ele>
        <time>2020-06-12T05:26:42Z</time>
      </trkpt>
      <trkpt lat="49.11474" lon="-1.59158">
        <ele>5.4</ele>
        <time>2020-06-12T05:26:43Z</time>
      </trkpt>
      <trkpt lat="49.11479" lon="-1.59156">
        <ele>5.4</ele>
        <time>2020-06-12T05:26:44Z</time>
      </trkpt>
      <trkpt lat="49.11485" lon="-1.59153">
        <ele>5.4</ele>
        <time>2020-06-12T05:26:45Z</time>
      </trkpt>
      <trkpt lat="49.11491" lon="-1.5915">
        <ele>5.4</ele>
        <time>2020-06-12T05:26:46Z</time>
      </trkpt>
      <trkpt lat="49.11496" lon="-1.59147">
        <ele>5.4</ele>
        <time>2020-06-12T05:26:47Z</time>
      </trkpt>
      <trkpt lat="49.11502" lon="-1.59144">
        <ele>5.4</ele>
        <time>2020-06-12T05:26:48Z</time>
      </trkpt>
      <trkpt lat="49.11507" lon="-1.59143">
        <ele>5.3</ele>
        <time>2020-06-12T05:26:49Z</time>
      </trkpt>
      <trkpt lat="49.11513" lon="-1.5914">
        <ele>5.3</ele>
        <time>2020-06-12T05:26:50Z</time>
      </trkpt>
      <trkpt lat="49.11518" lon="-1.59137">
        <ele>5.3</ele>
        <time>2020-06-12T05:26:51Z</time>
      </trkpt>
      <trkpt lat="49.11524" lon="-1.59134">
        <ele>5.3</ele>
        <time>2020-06-12T05:26:52Z</time>
      </trkpt>
      <trkpt lat="49.11529" lon="-1.59131">
        <ele>5.3</ele>
        <time>2020-06-12T05:26:53Z</time>
      </trkpt>
      <trkpt lat="49.11535" lon="-1.59129">
        <ele>5.3</ele>
        <time>2020-06-12T05:26:54Z</time>
      </trkpt>
      <trkpt lat="49.1154" lon="-1.59126">
        <ele>5.3</ele>
        <time>2020-06-12T05:26:55Z</time>
      </trkpt>
      <trkpt lat="49.11546" lon="-1.59124">
        <ele>5.3</ele>
        <time>2020-06-12T05:26:56Z</time>
      </trkpt>
      <trkpt lat="49.11551" lon="-1.59121">
        <ele>5.3</ele>
        <time>2020-06-12T05:26:57Z</time>
      </trkpt>
      <trkpt lat="49.11557" lon="-1.59119">
        <ele>5.3</ele>
        <time>2020-06-12T05:26:58Z</time>
      </trkpt>
      <trkpt lat="49.11562" lon="-1.59116">
        <ele>5.2</ele>
        <time>2020-06-12T05:26:59Z</time>
      </trkpt>
      <trkpt lat="49.11568" lon="-1.59113">
        <ele>5.2</ele>
        <time>2020-06-12T05:27:00Z</time>
      </trkpt>
      <trkpt lat="49.11574" lon="-1.5911">
        <ele>5.2</ele>
        <time>2020-06-12T05:27:01Z</time>
      </trkpt>
      <trkpt lat="49.1158" lon="-1.59107">
        <ele>5.1</ele>
        <time>2020-06-12T05:27:02Z</time>
      </trkpt>
      <trkpt lat="49.11585" lon="-1.59104">
        <ele>5.1</ele>
        <time>2020-06-12T05:27:03Z</time>
      </trkpt>
      <trkpt lat="49.1159" lon="-1.59102">
        <ele>5.1</ele>
        <time>2020-06-12T05:27:04Z</time>
      </trkpt>
      <trkpt lat="49.11595" lon="-1.59099">
        <ele>5</ele>
        <time>2020-06-12T05:27:05Z</time>
      </trkpt>
      <trkpt lat="49.116" lon="-1.59096">
        <ele>5</ele>
        <time>2020-06-12T05:27:06Z</time>
      </trkpt>
      <trkpt lat="49.11605" lon="-1.59093">
        <ele>5</ele>
        <time>2020-06-12T05:27:07Z</time>
      </trkpt>
      <trkpt lat="49.1161" lon="-1.59091">
        <ele>4.9</ele>
        <time>2020-06-12T05:27:08Z</time>
      </trkpt>
      <trkpt lat="49.11615" lon="-1.59088">
        <ele>4.9</ele>
        <time>2020-06-12T05:27:09Z</time>
      </trkpt>
      <trkpt lat="49.11621" lon="-1.59086">
        <ele>4.9</ele>
        <time>2020-06-12T05:27:10Z</time>
      </trkpt>
      <trkpt lat="49.11626" lon="-1.59083">
        <ele>4.9</ele>
        <time>2020-06-12T05:27:11Z</time>
      </trkpt>
      <trkpt lat="49.11631" lon="-1.59081">
        <ele>4.9</ele>
        <time>2020-06-12T05:27:12Z</time>
      </trkpt>
      <trkpt lat="49.11637" lon="-1.59078">
        <ele>4.9</ele>
        <time>2020-06-12T05:27:13Z</time>
      </trkpt>
      <trkpt lat="49.11642" lon="-1.59074">
        <ele>4.8</ele>
        <time>2020-06-12T05:27:14Z</time>
      </trkpt>
      <trkpt lat="49.11647" lon="-1.59072">
        <ele>4.8</ele>
        <time>2020-06-12T05:27:15Z</time>
      </trkpt>
      <trkpt lat="49.11652" lon="-1.59069">
        <ele>4.8</ele>
        <time>2020-06-12T05:27:16Z</time>
      </trkpt>
      <trkpt lat="49.11656" lon="-1.59066">
        <ele>4.8</ele>
        <time>2020-06-12T05:27:17Z</time>
      </trkpt>
      <trkpt lat="49.11661" lon="-1.59064">
        <ele>4.8</ele>
        <time>2020-06-12T05:27:18Z</time>
      </trkpt>
      <trkpt lat="49.11666" lon="-1.59061">
        <ele>4.8</ele>
        <time>2020-06-12T05:27:19Z</time>
      </trkpt>
      <trkpt lat="49.11671" lon="-1.59059">
        <ele>4.8</ele>
        <time>2020-06-12T05:27:20Z</time>
      </trkpt>
      <trkpt lat="49.11676" lon="-1.59056">
        <ele>4.8</ele>
        <time>2020-06-12T05:27:21Z</time>
      </trkpt>
      <trkpt lat="49.11681" lon="-1.59053">
        <ele>4.8</ele>
        <time>2020-06-12T05:27:22Z</time>
      </trkpt>
      <trkpt lat="49.11686" lon="-1.59051">
        <ele>4.8</ele>
        <time>2020-06-12T05:27:23Z</time>
      </trkpt>
      <trkpt lat="49.1169" lon="-1.59049">
        <ele>4.9</ele>
        <time>2020-06-12T05:27:24Z</time>
      </trkpt>
      <trkpt lat="49.11695" lon="-1.59047">
        <ele>4.9</ele>
        <time>2020-06-12T05:27:25Z</time>
      </trkpt>
      <trkpt lat="49.11699" lon="-1.59044">
        <ele>4.9</ele>
        <time>2020-06-12T05:27:26Z</time>
      </trkpt>
      <trkpt lat="49.11704" lon="-1.59042">
        <ele>4.9</ele>
        <time>2020-06-12T05:27:27Z</time>
      </trkpt>
      <trkpt lat="49.11709" lon="-1.59039">
        <ele>4.8</ele>
        <time>2020-06-12T05:27:28Z</time>
      </trkpt>
      <trkpt lat="49.11714" lon="-1.59036">
        <ele>4.8</ele>
        <time>2020-06-12T05:27:29Z</time>
      </trkpt>
      <trkpt lat="49.11719" lon="-1.59034">
        <ele>4.8</ele>
        <time>2020-06-12T05:27:30Z</time>
      </trkpt>
      <trkpt lat="49.11724" lon="-1.59032">
        <ele>4.8</ele>
        <time>2020-06-12T05:27:31Z</time>
      </trkpt>
      <trkpt lat="49.1173" lon="-1.59029">
        <ele>4.8</ele>
        <time>2020-06-12T05:27:32Z</time>
      </trkpt>
      <trkpt lat="49.11735" lon="-1.59026">
        <ele>4.8</ele>
        <time>2020-06-12T05:27:33Z</time>
      </trkpt>
      <trkpt lat="49.11741" lon="-1.59024">
        <ele>4.8</ele>
        <time>2020-06-12T05:27:34Z</time>
      </trkpt>
      <trkpt lat="49.11746" lon="-1.59021">
        <ele>4.8</ele>
        <time>2020-06-12T05:27:35Z</time>
      </trkpt>
      <trkpt lat="49.11751" lon="-1.59018">
        <ele>4.9</ele>
        <time>2020-06-12T05:27:36Z</time>
      </trkpt>
      <trkpt lat="49.11757" lon="-1.59016">
        <ele>5</ele>
        <time>2020-06-12T05:27:37Z</time>
      </trkpt>
      <trkpt lat="49.11762" lon="-1.59013">
        <ele>5</ele>
        <time>2020-06-12T05:27:38Z</time>
      </trkpt>
      <trkpt lat="49.11768" lon="-1.5901">
        <ele>5.1</ele>
        <time>2020-06-12T05:27:39Z</time>
      </trkpt>
      <trkpt lat="49.11772" lon="-1.59007">
        <ele>5.1</ele>
        <time>2020-06-12T05:27:40Z</time>
      </trkpt>
      <trkpt lat="49.11778" lon="-1.59004">
        <ele>5</ele>
        <time>2020-06-12T05:27:41Z</time>
      </trkpt>
      <trkpt lat="49.11783" lon="-1.59001">
        <ele>5</ele>
        <time>2020-06-12T05:27:42Z</time>
      </trkpt>
      <trkpt lat="49.11788" lon="-1.58998">
        <ele>5</ele>
        <time>2020-06-12T05:27:43Z</time>
      </trkpt>
      <trkpt lat="49.11793" lon="-1.58996">
        <ele>5</ele>
        <time>2020-06-12T05:27:44Z</time>
      </trkpt>
      <trkpt lat="49.11798" lon="-1.58994">
        <ele>5</ele>
        <time>2020-06-12T05:27:45Z</time>
      </trkpt>
      <trkpt lat="49.11804" lon="-1.58991">
        <ele>5</ele>
        <time>2020-06-12T05:27:46Z</time>
      </trkpt>
      <trkpt lat="49.11809" lon="-1.58989">
        <ele>5</ele>
        <time>2020-06-12T05:27:47Z</time>
      </trkpt>
      <trkpt lat="49.11816" lon="-1.58986">
        <ele>5</ele>
        <time>2020-06-12T05:27:48Z</time>
      </trkpt>
      <trkpt lat="49.11821" lon="-1.58984">
        <ele>5</ele>
        <time>2020-06-12T05:27:49Z</time>
      </trkpt>
      <trkpt lat="49.11827" lon="-1.58981">
        <ele>5.1</ele>
        <time>2020-06-12T05:27:50Z</time>
      </trkpt>
      <trkpt lat="49.11832" lon="-1.58978">
        <ele>5.1</ele>
        <time>2020-06-12T05:27:51Z</time>
      </trkpt>
      <trkpt lat="49.11837" lon="-1.58976">
        <ele>5.1</ele>
        <time>2020-06-12T05:27:52Z</time>
      </trkpt>
      <trkpt lat="49.11843" lon="-1.58973">
        <ele>5.1</ele>
        <time>2020-06-12T05:27:53Z</time>
      </trkpt>
      <trkpt lat="49.11848" lon="-1.58969">
        <ele>5.1</ele>
        <time>2020-06-12T05:27:54Z</time>
      </trkpt>
      <trkpt lat="49.11854" lon="-1.58967">
        <ele>5.1</ele>
        <time>2020-06-12T05:27:55Z</time>
      </trkpt>
      <trkpt lat="49.1186" lon="-1.58965">
        <ele>5.1</ele>
        <time>2020-06-12T05:27:56Z</time>
      </trkpt>
      <trkpt lat="49.11866" lon="-1.58964">
        <ele>5.2</ele>
        <time>2020-06-12T05:27:57Z</time>
      </trkpt>
      <trkpt lat="49.11872" lon="-1.58963">
        <ele>5.2</ele>
        <time>2020-06-12T05:27:58Z</time>
      </trkpt>
      <trkpt lat="49.11877" lon="-1.58961">
        <ele>5.2</ele>
        <time>2020-06-12T05:27:59Z</time>
      </trkpt>
      <trkpt lat="49.11883" lon="-1.5896">
        <ele>5.2</ele>
        <time>2020-06-12T05:28:00Z</time>
      </trkpt>
      <trkpt lat="49.11889" lon="-1.58959">
        <ele>5.2</ele>
        <time>2020-06-12T05:28:01Z</time>
      </trkpt>
      <trkpt lat="49.11894" lon="-1.58958">
        <ele>5.2</ele>
        <time>2020-06-12T05:28:02Z</time>
      </trkpt>
      <trkpt lat="49.11898" lon="-1.58957">
        <ele>5.2</ele>
        <time>2020-06-12T05:28:03Z</time>
      </trkpt>
      <trkpt lat="49.11902" lon="-1.58956">
        <ele>5.2</ele>
        <time>2020-06-12T05:28:04Z</time>
      </trkpt>
      <trkpt lat="49.11907" lon="-1.58954">
        <ele>5.2</ele>
        <time>2020-06-12T05:28:05Z</time>
      </trkpt>
      <trkpt lat="49.11911" lon="-1.58953">
        <ele>5.2</ele>
        <time>2020-06-12T05:28:06Z</time>
      </trkpt>
      <trkpt lat="49.11916" lon="-1.58952">
        <ele>5.2</ele>
        <time>2020-06-12T05:28:07Z</time>
      </trkpt>
      <trkpt lat="49.11921" lon="-1.58951">
        <ele>5.2</ele>
        <time>2020-06-12T05:28:08Z</time>
      </trkpt>
      <trkpt lat="49.11926" lon="-1.5895">
        <ele>5.2</ele>
        <time>2020-06-12T05:28:09Z</time>
      </trkpt>
      <trkpt lat="49.11931" lon="-1.58949">
        <ele>5.2</ele>
        <time>2020-06-12T05:28:10Z</time>
      </trkpt>
      <trkpt lat="49.11936" lon="-1.58948">
        <ele>5.2</ele>
        <time>2020-06-12T05:28:11Z</time>
      </trkpt>
      <trkpt lat="49.11941" lon="-1.58948">
        <ele>5.2</ele>
        <time>2020-06-12T05:28:12Z</time>
      </trkpt>
      <trkpt lat="49.11946" lon="-1.58948">
        <ele>5.2</ele>
        <time>2020-06-12T05:28:13Z</time>
      </trkpt>
      <trkpt lat="49.11951" lon="-1.58948">
        <ele>5.2</ele>
        <time>2020-06-12T05:28:14Z</time>
      </trkpt>
      <trkpt lat="49.11956" lon="-1.58948">
        <ele>5.2</ele>
        <time>2020-06-12T05:28:15Z</time>
      </trkpt>
      <trkpt lat="49.11962" lon="-1.58947">
        <ele>5.1</ele>
        <time>2020-06-12T05:28:16Z</time>
      </trkpt>
      <trkpt lat="49.11967" lon="-1.58945">
        <ele>5.1</ele>
        <time>2020-06-12T05:28:17Z</time>
      </trkpt>
      <trkpt lat="49.11973" lon="-1.58944">
        <ele>5.1</ele>
        <time>2020-06-12T05:28:18Z</time>
      </trkpt>
      <trkpt lat="49.11979" lon="-1.58945">
        <ele>5</ele>
        <time>2020-06-12T05:28:19Z</time>
      </trkpt>
      <trkpt lat="49.11986" lon="-1.58945">
        <ele>5</ele>
        <time>2020-06-12T05:28:20Z</time>
      </trkpt>
      <trkpt lat="49.11992" lon="-1.58946">
        <ele>4.9</ele>
        <time>2020-06-12T05:28:21Z</time>
      </trkpt>
      <trkpt lat="49.11997" lon="-1.58945">
        <ele>4.9</ele>
        <time>2020-06-12T05:28:22Z</time>
      </trkpt>
      <trkpt lat="49.12003" lon="-1.58945">
        <ele>4.9</ele>
        <time>2020-06-12T05:28:23Z</time>
      </trkpt>
      <trkpt lat="49.12009" lon="-1.58944">
        <ele>4.8</ele>
        <time>2020-06-12T05:28:24Z</time>
      </trkpt>
      <trkpt lat="49.12014" lon="-1.58945">
        <ele>4.8</ele>
        <time>2020-06-12T05:28:25Z</time>
      </trkpt>
      <trkpt lat="49.1202" lon="-1.58946">
        <ele>4.7</ele>
        <time>2020-06-12T05:28:26Z</time>
      </trkpt>
      <trkpt lat="49.12025" lon="-1.58945">
        <ele>4.7</ele>
        <time>2020-06-12T05:28:27Z</time>
      </trkpt>
      <trkpt lat="49.1203" lon="-1.58944">
        <ele>4.7</ele>
        <time>2020-06-12T05:28:28Z</time>
      </trkpt>
      <trkpt lat="49.12036" lon="-1.58943">
        <ele>4.6</ele>
        <time>2020-06-12T05:28:29Z</time>
      </trkpt>
      <trkpt lat="49.12041" lon="-1.58942">
        <ele>4.6</ele>
        <time>2020-06-12T05:28:30Z</time>
      </trkpt>
      <trkpt lat="49.12048" lon="-1.58942">
        <ele>4.5</ele>
        <time>2020-06-12T05:28:31Z</time>
      </trkpt>
      <trkpt lat="49.12055" lon="-1.58942">
        <ele>4.5</ele>
        <time>2020-06-12T05:28:32Z</time>
      </trkpt>
      <trkpt lat="49.12061" lon="-1.58943">
        <ele>4.4</ele>
        <time>2020-06-12T05:28:33Z</time>
      </trkpt>
      <trkpt lat="49.12067" lon="-1.58944">
        <ele>4.4</ele>
        <time>2020-06-12T05:28:34Z</time>
      </trkpt>
      <trkpt lat="49.12073" lon="-1.58944">
        <ele>4.3</ele>
        <time>2020-06-12T05:28:35Z</time>
      </trkpt>
      <trkpt lat="49.1208" lon="-1.58945">
        <ele>4.3</ele>
        <time>2020-06-12T05:28:36Z</time>
      </trkpt>
      <trkpt lat="49.12087" lon="-1.58945">
        <ele>4.2</ele>
        <time>2020-06-12T05:28:37Z</time>
      </trkpt>
      <trkpt lat="49.12094" lon="-1.58946">
        <ele>4.2</ele>
        <time>2020-06-12T05:28:38Z</time>
      </trkpt>
      <trkpt lat="49.12099" lon="-1.58945">
        <ele>4.2</ele>
        <time>2020-06-12T05:28:39Z</time>
      </trkpt>
      <trkpt lat="49.12106" lon="-1.58946">
        <ele>4.2</ele>
        <time>2020-06-12T05:28:40Z</time>
      </trkpt>
      <trkpt lat="49.12112" lon="-1.58946">
        <ele>4.2</ele>
        <time>2020-06-12T05:28:41Z</time>
      </trkpt>
      <trkpt lat="49.12119" lon="-1.58946">
        <ele>4.2</ele>
        <time>2020-06-12T05:28:42Z</time>
      </trkpt>
      <trkpt lat="49.12125" lon="-1.58947">
        <ele>4.2</ele>
        <time>2020-06-12T05:28:43Z</time>
      </trkpt>
      <trkpt lat="49.12131" lon="-1.58947">
        <ele>4.2</ele>
        <time>2020-06-12T05:28:44Z</time>
      </trkpt>
      <trkpt lat="49.12136" lon="-1.58947">
        <ele>4.2</ele>
        <time>2020-06-12T05:28:45Z</time>
      </trkpt>
      <trkpt lat="49.12142" lon="-1.58948">
        <ele>4.2</ele>
        <time>2020-06-12T05:28:46Z</time>
      </trkpt>
      <trkpt lat="49.12147" lon="-1.58948">
        <ele>4.2</ele>
        <time>2020-06-12T05:28:47Z</time>
      </trkpt>
      <trkpt lat="49.12152" lon="-1.58947">
        <ele>4.2</ele>
        <time>2020-06-12T05:28:48Z</time>
      </trkpt>
      <trkpt lat="49.12158" lon="-1.5895">
        <ele>4.2</ele>
        <time>2020-06-12T05:28:49Z</time>
      </trkpt>
      <trkpt lat="49.12163" lon="-1.5895">
        <ele>4.2</ele>
        <time>2020-06-12T05:28:50Z</time>
      </trkpt>
      <trkpt lat="49.12169" lon="-1.58949">
        <ele>4.2</ele>
        <time>2020-06-12T05:28:51Z</time>
      </trkpt>
      <trkpt lat="49.12175" lon="-1.58949">
        <ele>4.2</ele>
        <time>2020-06-12T05:28:52Z</time>
      </trkpt>
      <trkpt lat="49.12182" lon="-1.58949">
        <ele>4.3</ele>
        <time>2020-06-12T05:28:53Z</time>
      </trkpt>
      <trkpt lat="49.12188" lon="-1.58948">
        <ele>4.3</ele>
        <time>2020-06-12T05:28:54Z</time>
      </trkpt>
      <trkpt lat="49.12195" lon="-1.58949">
        <ele>4.3</ele>
        <time>2020-06-12T05:28:55Z</time>
      </trkpt>
      <trkpt lat="49.122" lon="-1.5895">
        <ele>4.3</ele>
        <time>2020-06-12T05:28:56Z</time>
      </trkpt>
      <trkpt lat="49.12205" lon="-1.5895">
        <ele>4.4</ele>
        <time>2020-06-12T05:28:57Z</time>
      </trkpt>
      <trkpt lat="49.1221" lon="-1.5895">
        <ele>4.4</ele>
        <time>2020-06-12T05:28:58Z</time>
      </trkpt>
      <trkpt lat="49.12215" lon="-1.58951">
        <ele>4.4</ele>
        <time>2020-06-12T05:28:59Z</time>
      </trkpt>
      <trkpt lat="49.12221" lon="-1.58951">
        <ele>4.4</ele>
        <time>2020-06-12T05:29:00Z</time>
      </trkpt>
      <trkpt lat="49.12227" lon="-1.58951">
        <ele>4.5</ele>
        <time>2020-06-12T05:29:01Z</time>
      </trkpt>
      <trkpt lat="49.12233" lon="-1.58952">
        <ele>4.5</ele>
        <time>2020-06-12T05:29:02Z</time>
      </trkpt>
      <trkpt lat="49.12239" lon="-1.58952">
        <ele>4.5</ele>
        <time>2020-06-12T05:29:03Z</time>
      </trkpt>
      <trkpt lat="49.12245" lon="-1.58952">
        <ele>4.5</ele>
        <time>2020-06-12T05:29:04Z</time>
      </trkpt>
      <trkpt lat="49.1225" lon="-1.58952">
        <ele>4.5</ele>
        <time>2020-06-12T05:29:05Z</time>
      </trkpt>
      <trkpt lat="49.12255" lon="-1.58952">
        <ele>4.5</ele>
        <time>2020-06-12T05:29:06Z</time>
      </trkpt>
      <trkpt lat="49.12261" lon="-1.58952">
        <ele>4.5</ele>
        <time>2020-06-12T05:29:07Z</time>
      </trkpt>
      <trkpt lat="49.12266" lon="-1.58952">
        <ele>4.5</ele>
        <time>2020-06-12T05:29:08Z</time>
      </trkpt>
      <trkpt lat="49.12271" lon="-1.58953">
        <ele>4.5</ele>
        <time>2020-06-12T05:29:09Z</time>
      </trkpt>
      <trkpt lat="49.12277" lon="-1.58952">
        <ele>4.5</ele>
        <time>2020-06-12T05:29:10Z</time>
      </trkpt>
      <trkpt lat="49.12282" lon="-1.58952">
        <ele>4.5</ele>
        <time>2020-06-12T05:29:11Z</time>
      </trkpt>
      <trkpt lat="49.12287" lon="-1.58951">
        <ele>4.5</ele>
        <time>2020-06-12T05:29:12Z</time>
      </trkpt>
      <trkpt lat="49.12293" lon="-1.58951">
        <ele>4.5</ele>
        <time>2020-06-12T05:29:13Z</time>
      </trkpt>
      <trkpt lat="49.12299" lon="-1.58951">
        <ele>4.5</ele>
        <time>2020-06-12T05:29:14Z</time>
      </trkpt>
      <trkpt lat="49.12305" lon="-1.58951">
        <ele>4.5</ele>
        <time>2020-06-12T05:29:15Z</time>
      </trkpt>
      <trkpt lat="49.12311" lon="-1.58952">
        <ele>4.5</ele>
        <time>2020-06-12T05:29:16Z</time>
      </trkpt>
      <trkpt lat="49.12317" lon="-1.58952">
        <ele>4.5</ele>
        <time>2020-06-12T05:29:17Z</time>
      </trkpt>
      <trkpt lat="49.12322" lon="-1.58953">
        <ele>4.5</ele>
        <time>2020-06-12T05:29:18Z</time>
      </trkpt>
      <trkpt lat="49.12328" lon="-1.58953">
        <ele>4.5</ele>
        <time>2020-06-12T05:29:19Z</time>
      </trkpt>
      <trkpt lat="49.12333" lon="-1.58953">
        <ele>4.5</ele>
        <time>2020-06-12T05:29:20Z</time>
      </trkpt>
      <trkpt lat="49.12338" lon="-1.58953">
        <ele>4.5</ele>
        <time>2020-06-12T05:29:21Z</time>
      </trkpt>
      <trkpt lat="49.12343" lon="-1.58954">
        <ele>4.5</ele>
        <time>2020-06-12T05:29:22Z</time>
      </trkpt>
      <trkpt lat="49.12348" lon="-1.58953">
        <ele>4.5</ele>
        <time>2020-06-12T05:29:23Z</time>
      </trkpt>
      <trkpt lat="49.12353" lon="-1.58952">
        <ele>4.5</ele>
        <time>2020-06-12T05:29:24Z</time>
      </trkpt>
      <trkpt lat="49.12359" lon="-1.58953">
        <ele>4.5</ele>
        <time>2020-06-12T05:29:25Z</time>
      </trkpt>
      <trkpt lat="49.12365" lon="-1.58954">
        <ele>4.5</ele>
        <time>2020-06-12T05:29:26Z</time>
      </trkpt>
      <trkpt lat="49.12371" lon="-1.58955">
        <ele>4.5</ele>
        <time>2020-06-12T05:29:27Z</time>
      </trkpt>
      <trkpt lat="49.12377" lon="-1.58956">
        <ele>4.5</ele>
        <time>2020-06-12T05:29:28Z</time>
      </trkpt>
      <trkpt lat="49.12383" lon="-1.58956">
        <ele>4.5</ele>
        <time>2020-06-12T05:29:29Z</time>
      </trkpt>
      <trkpt lat="49.12389" lon="-1.58955">
        <ele>4.4</ele>
        <time>2020-06-12T05:29:30Z</time>
      </trkpt>
      <trkpt lat="49.12394" lon="-1.58956">
        <ele>4.4</ele>
        <time>2020-06-12T05:29:31Z</time>
      </trkpt>
      <trkpt lat="49.124" lon="-1.58956">
        <ele>4.3</ele>
        <time>2020-06-12T05:29:32Z</time>
      </trkpt>
      <trkpt lat="49.12407" lon="-1.58956">
        <ele>4.3</ele>
        <time>2020-06-12T05:29:33Z</time>
      </trkpt>
      <trkpt lat="49.12413" lon="-1.58957">
        <ele>4.3</ele>
        <time>2020-06-12T05:29:34Z</time>
      </trkpt>
      <trkpt lat="49.12419" lon="-1.58957">
        <ele>4.2</ele>
        <time>2020-06-12T05:29:35Z</time>
      </trkpt>
      <trkpt lat="49.12426" lon="-1.58957">
        <ele>4.2</ele>
        <time>2020-06-12T05:29:36Z</time>
      </trkpt>
      <trkpt lat="49.12431" lon="-1.58957">
        <ele>4.2</ele>
        <time>2020-06-12T05:29:37Z</time>
      </trkpt>
      <trkpt lat="49.12437" lon="-1.58957">
        <ele>4.2</ele>
        <time>2020-06-12T05:29:38Z</time>
      </trkpt>
      <trkpt lat="49.12443" lon="-1.58957">
        <ele>4.1</ele>
        <time>2020-06-12T05:29:39Z</time>
      </trkpt>
      <trkpt lat="49.12449" lon="-1.58956">
        <ele>4.1</ele>
        <time>2020-06-12T05:29:40Z</time>
      </trkpt>
      <trkpt lat="49.12454" lon="-1.58955">
        <ele>4.1</ele>
        <time>2020-06-12T05:29:41Z</time>
      </trkpt>
      <trkpt lat="49.1246" lon="-1.58955">
        <ele>4</ele>
        <time>2020-06-12T05:29:42Z</time>
      </trkpt>
      <trkpt lat="49.12466" lon="-1.58955">
        <ele>4</ele>
        <time>2020-06-12T05:29:43Z</time>
      </trkpt>
      <trkpt lat="49.12472" lon="-1.58956">
        <ele>3.9</ele>
        <time>2020-06-12T05:29:44Z</time>
      </trkpt>
      <trkpt lat="49.12478" lon="-1.58956">
        <ele>3.9</ele>
        <time>2020-06-12T05:29:45Z</time>
      </trkpt>
      <trkpt lat="49.12484" lon="-1.58956">
        <ele>3.9</ele>
        <time>2020-06-12T05:29:46Z</time>
      </trkpt>
      <trkpt lat="49.12489" lon="-1.58956">
        <ele>3.8</ele>
        <time>2020-06-12T05:29:47Z</time>
      </trkpt>
      <trkpt lat="49.12494" lon="-1.58956">
        <ele>3.8</ele>
        <time>2020-06-12T05:29:48Z</time>
      </trkpt>
      <trkpt lat="49.125" lon="-1.58956">
        <ele>3.8</ele>
        <time>2020-06-12T05:29:49Z</time>
      </trkpt>
      <trkpt lat="49.12506" lon="-1.58957">
        <ele>3.8</ele>
        <time>2020-06-12T05:29:50Z</time>
      </trkpt>
      <trkpt lat="49.12512" lon="-1.58957">
        <ele>3.8</ele>
        <time>2020-06-12T05:29:51Z</time>
      </trkpt>
      <trkpt lat="49.12518" lon="-1.58959">
        <ele>3.7</ele>
        <time>2020-06-12T05:29:52Z</time>
      </trkpt>
      <trkpt lat="49.12524" lon="-1.58959">
        <ele>3.7</ele>
        <time>2020-06-12T05:29:53Z</time>
      </trkpt>
      <trkpt lat="49.1253" lon="-1.5896">
        <ele>3.7</ele>
        <time>2020-06-12T05:29:54Z</time>
      </trkpt>
      <trkpt lat="49.12536" lon="-1.58961">
        <ele>3.7</ele>
        <time>2020-06-12T05:29:55Z</time>
      </trkpt>
      <trkpt lat="49.12541" lon="-1.58961">
        <ele>3.7</ele>
        <time>2020-06-12T05:29:56Z</time>
      </trkpt>
      <trkpt lat="49.12547" lon="-1.58961">
        <ele>3.7</ele>
        <time>2020-06-12T05:29:57Z</time>
      </trkpt>
      <trkpt lat="49.12553" lon="-1.5896">
        <ele>3.7</ele>
        <time>2020-06-12T05:29:58Z</time>
      </trkpt>
      <trkpt lat="49.12559" lon="-1.58959">
        <ele>3.7</ele>
        <time>2020-06-12T05:29:59Z</time>
      </trkpt>
      <trkpt lat="49.12565" lon="-1.58958">
        <ele>3.7</ele>
        <time>2020-06-12T05:30:00Z</time>
      </trkpt>
      <trkpt lat="49.12571" lon="-1.58958">
        <ele>3.7</ele>
        <time>2020-06-12T05:30:01Z</time>
      </trkpt>
      <trkpt lat="49.12577" lon="-1.58959">
        <ele>3.8</ele>
        <time>2020-06-12T05:30:02Z</time>
      </trkpt>
      <trkpt lat="49.12583" lon="-1.5896">
        <ele>3.8</ele>
        <time>2020-06-12T05:30:03Z</time>
      </trkpt>
      <trkpt lat="49.12589" lon="-1.58961">
        <ele>3.8</ele>
        <time>2020-06-12T05:30:04Z</time>
      </trkpt>
      <trkpt lat="49.12594" lon="-1.5896">
        <ele>3.9</ele>
        <time>2020-06-12T05:30:05Z</time>
      </trkpt>
      <trkpt lat="49.12599" lon="-1.5896">
        <ele>4</ele>
        <time>2020-06-12T05:30:06Z</time>
      </trkpt>
      <trkpt lat="49.12605" lon="-1.5896">
        <ele>4</ele>
        <time>2020-06-12T05:30:07Z</time>
      </trkpt>
      <trkpt lat="49.1261" lon="-1.5896">
        <ele>4.2</ele>
        <time>2020-06-12T05:30:08Z</time>
      </trkpt>
      <trkpt lat="49.12615" lon="-1.58959">
        <ele>4.3</ele>
        <time>2020-06-12T05:30:09Z</time>
      </trkpt>
      <trkpt lat="49.12621" lon="-1.58959">
        <ele>4.6</ele>
        <time>2020-06-12T05:30:10Z</time>
      </trkpt>
      <trkpt lat="49.12626" lon="-1.5896">
        <ele>4.5</ele>
        <time>2020-06-12T05:30:11Z</time>
      </trkpt>
      <trkpt lat="49.12632" lon="-1.5896">
        <ele>4.5</ele>
        <time>2020-06-12T05:30:12Z</time>
      </trkpt>
      <trkpt lat="49.12638" lon="-1.58961">
        <ele>4.5</ele>
        <time>2020-06-12T05:30:13Z</time>
      </trkpt>
      <trkpt lat="49.12644" lon="-1.58961">
        <ele>4.5</ele>
        <time>2020-06-12T05:30:14Z</time>
      </trkpt>
      <trkpt lat="49.12649" lon="-1.58961">
        <ele>4.5</ele>
        <time>2020-06-12T05:30:15Z</time>
      </trkpt>
      <trkpt lat="49.12654" lon="-1.58962">
        <ele>4.6</ele>
        <time>2020-06-12T05:30:16Z</time>
      </trkpt>
      <trkpt lat="49.12658" lon="-1.58963">
        <ele>4.6</ele>
        <time>2020-06-12T05:30:17Z</time>
      </trkpt>
      <trkpt lat="49.12662" lon="-1.58962">
        <ele>4.7</ele>
        <time>2020-06-12T05:30:18Z</time>
      </trkpt>
      <trkpt lat="49.12667" lon="-1.58962">
        <ele>4.7</ele>
        <time>2020-06-12T05:30:19Z</time>
      </trkpt>
      <trkpt lat="49.12672" lon="-1.58963">
        <ele>4.8</ele>
        <time>2020-06-12T05:30:20Z</time>
      </trkpt>
      <trkpt lat="49.12677" lon="-1.58965">
        <ele>4.8</ele>
        <time>2020-06-12T05:30:21Z</time>
      </trkpt>
      <trkpt lat="49.12682" lon="-1.58966">
        <ele>4.9</ele>
        <time>2020-06-12T05:30:22Z</time>
      </trkpt>
      <trkpt lat="49.12687" lon="-1.58966">
        <ele>4.9</ele>
        <time>2020-06-12T05:30:23Z</time>
      </trkpt>
      <trkpt lat="49.12692" lon="-1.58967">
        <ele>4.9</ele>
        <time>2020-06-12T05:30:24Z</time>
      </trkpt>
      <trkpt lat="49.12696" lon="-1.5897">
        <ele>5</ele>
        <time>2020-06-12T05:30:25Z</time>
      </trkpt>
      <trkpt lat="49.127" lon="-1.58971">
        <ele>5</ele>
        <time>2020-06-12T05:30:26Z</time>
      </trkpt>
      <trkpt lat="49.12704" lon="-1.58972">
        <ele>5</ele>
        <time>2020-06-12T05:30:27Z</time>
      </trkpt>
      <trkpt lat="49.12709" lon="-1.58973">
        <ele>5</ele>
        <time>2020-06-12T05:30:28Z</time>
      </trkpt>
      <trkpt lat="49.12716" lon="-1.58974">
        <ele>5</ele>
        <time>2020-06-12T05:30:29Z</time>
      </trkpt>
      <trkpt lat="49.12722" lon="-1.58974">
        <ele>5</ele>
        <time>2020-06-12T05:30:30Z</time>
      </trkpt>
      <trkpt lat="49.12727" lon="-1.58976">
        <ele>5.1</ele>
        <time>2020-06-12T05:30:31Z</time>
      </trkpt>
      <trkpt lat="49.12733" lon="-1.58977">
        <ele>5.1</ele>
        <time>2020-06-12T05:30:32Z</time>
      </trkpt>
      <trkpt lat="49.12739" lon="-1.58978">
        <ele>5.1</ele>
        <time>2020-06-12T05:30:33Z</time>
      </trkpt>
      <trkpt lat="49.12745" lon="-1.58978">
        <ele>5.1</ele>
        <time>2020-06-12T05:30:34Z</time>
      </trkpt>
      <trkpt lat="49.12751" lon="-1.58979">
        <ele>5.1</ele>
        <time>2020-06-12T05:30:35Z</time>
      </trkpt>
      <trkpt lat="49.12755" lon="-1.58981">
        <ele>5.1</ele>
        <time>2020-06-12T05:30:36Z</time>
      </trkpt>
      <trkpt lat="49.12762" lon="-1.5898">
        <ele>5.1</ele>
        <time>2020-06-12T05:30:37Z</time>
      </trkpt>
      <trkpt lat="49.12768" lon="-1.5898">
        <ele>5.1</ele>
        <time>2020-06-12T05:30:38Z</time>
      </trkpt>
      <trkpt lat="49.12774" lon="-1.58982">
        <ele>5.2</ele>
        <time>2020-06-12T05:30:39Z</time>
      </trkpt>
      <trkpt lat="49.12778" lon="-1.58984">
        <ele>5.2</ele>
        <time>2020-06-12T05:30:40Z</time>
      </trkpt>
      <trkpt lat="49.12783" lon="-1.58986">
        <ele>5.2</ele>
        <time>2020-06-12T05:30:41Z</time>
      </trkpt>
      <trkpt lat="49.12788" lon="-1.58989">
        <ele>5.3</ele>
        <time>2020-06-12T05:30:42Z</time>
      </trkpt>
      <trkpt lat="49.12793" lon="-1.58992">
        <ele>5.3</ele>
        <time>2020-06-12T05:30:43Z</time>
      </trkpt>
      <trkpt lat="49.12799" lon="-1.58994">
        <ele>5.4</ele>
        <time>2020-06-12T05:30:44Z</time>
      </trkpt>
      <trkpt lat="49.12804" lon="-1.58996">
        <ele>5.4</ele>
        <time>2020-06-12T05:30:45Z</time>
      </trkpt>
      <trkpt lat="49.12809" lon="-1.58997">
        <ele>5.5</ele>
        <time>2020-06-12T05:30:46Z</time>
      </trkpt>
      <trkpt lat="49.12814" lon="-1.58999">
        <ele>5.5</ele>
        <time>2020-06-12T05:30:47Z</time>
      </trkpt>
      <trkpt lat="49.12819" lon="-1.59002">
        <ele>5.5</ele>
        <time>2020-06-12T05:30:48Z</time>
      </trkpt>
      <trkpt lat="49.12823" lon="-1.59004">
        <ele>5.5</ele>
        <time>2020-06-12T05:30:49Z</time>
      </trkpt>
      <trkpt lat="49.12828" lon="-1.59005">
        <ele>5.5</ele>
        <time>2020-06-12T05:30:50Z</time>
      </trkpt>
      <trkpt lat="49.12833" lon="-1.59008">
        <ele>5.5</ele>
        <time>2020-06-12T05:30:51Z</time>
      </trkpt>
      <trkpt lat="49.12839" lon="-1.5901">
        <ele>5.6</ele>
        <time>2020-06-12T05:30:52Z</time>
      </trkpt>
      <trkpt lat="49.12844" lon="-1.59011">
        <ele>5.6</ele>
        <time>2020-06-12T05:30:53Z</time>
      </trkpt>
      <trkpt lat="49.12849" lon="-1.59013">
        <ele>5.6</ele>
        <time>2020-06-12T05:30:54Z</time>
      </trkpt>
      <trkpt lat="49.12854" lon="-1.59014">
        <ele>5.7</ele>
        <time>2020-06-12T05:30:55Z</time>
      </trkpt>
      <trkpt lat="49.12859" lon="-1.59016">
        <ele>5.7</ele>
        <time>2020-06-12T05:30:56Z</time>
      </trkpt>
      <trkpt lat="49.12864" lon="-1.59017">
        <ele>5.7</ele>
        <time>2020-06-12T05:30:57Z</time>
      </trkpt>
      <trkpt lat="49.12866" lon="-1.5902">
        <ele>5.7</ele>
        <time>2020-06-12T05:30:58Z</time>
      </trkpt>
      <trkpt lat="49.12872" lon="-1.5902">
        <ele>5.7</ele>
        <time>2020-06-12T05:30:59Z</time>
      </trkpt>
      <trkpt lat="49.12875" lon="-1.59022">
        <ele>5.7</ele>
        <time>2020-06-12T05:31:00Z</time>
      </trkpt>
      <trkpt lat="49.12878" lon="-1.59025">
        <ele>5.8</ele>
        <time>2020-06-12T05:31:01Z</time>
      </trkpt>
      <trkpt lat="49.12882" lon="-1.59028">
        <ele>5.8</ele>
        <time>2020-06-12T05:31:02Z</time>
      </trkpt>
      <trkpt lat="49.12887" lon="-1.59029">
        <ele>5.9</ele>
        <time>2020-06-12T05:31:03Z</time>
      </trkpt>
      <trkpt lat="49.12891" lon="-1.5903">
        <ele>5.9</ele>
        <time>2020-06-12T05:31:04Z</time>
      </trkpt>
      <trkpt lat="49.12894" lon="-1.59031">
        <ele>6</ele>
        <time>2020-06-12T05:31:05Z</time>
      </trkpt>
      <trkpt lat="49.12898" lon="-1.59033">
        <ele>6</ele>
        <time>2020-06-12T05:31:06Z</time>
      </trkpt>
      <trkpt lat="49.12901" lon="-1.59033">
        <ele>6</ele>
        <time>2020-06-12T05:31:07Z</time>
      </trkpt>
      <trkpt lat="49.12905" lon="-1.59035">
        <ele>6.1</ele>
        <time>2020-06-12T05:31:08Z</time>
      </trkpt>
      <trkpt lat="49.12908" lon="-1.59036">
        <ele>6.1</ele>
        <time>2020-06-12T05:31:09Z</time>
      </trkpt>
      <trkpt lat="49.12911" lon="-1.59038">
        <ele>6.2</ele>
        <time>2020-06-12T05:31:10Z</time>
      </trkpt>
      <trkpt lat="49.12914" lon="-1.5904">
        <ele>6.1</ele>
        <time>2020-06-12T05:31:11Z</time>
      </trkpt>
      <trkpt lat="49.12917" lon="-1.59041">
        <ele>6.1</ele>
        <time>2020-06-12T05:31:12Z</time>
      </trkpt>
      <trkpt lat="49.1292" lon="-1.5904">
        <ele>6</ele>
        <time>2020-06-12T05:31:13Z</time>
      </trkpt>
      <trkpt lat="49.12921" lon="-1.59039">
        <ele>6</ele>
        <time>2020-06-12T05:31:14Z</time>
      </trkpt>
      <trkpt lat="49.12923" lon="-1.59038">
        <ele>6</ele>
        <time>2020-06-12T05:31:15Z</time>
      </trkpt>
      <trkpt lat="49.12924" lon="-1.5904">
        <ele>6</ele>
        <time>2020-06-12T05:31:16Z</time>
      </trkpt>
      <trkpt lat="49.12925" lon="-1.59041">
        <ele>6</ele>
        <time>2020-06-12T05:31:17Z</time>
      </trkpt>
      <trkpt lat="49.12925" lon="-1.59041">
        <ele>6</ele>
        <time>2020-06-12T05:31:18Z</time>
      </trkpt>
      <trkpt lat="49.12925" lon="-1.59041">
        <ele>6</ele>
        <time>2020-06-12T05:31:19Z</time>
      </trkpt>
      <trkpt lat="49.12925" lon="-1.59041">
        <ele>6</ele>
        <time>2020-06-12T05:31:20Z</time>
      </trkpt>
      <trkpt lat="49.12925" lon="-1.59042">
        <ele>6</ele>
        <time>2020-06-12T05:31:21Z</time>
      </trkpt>
      <trkpt lat="49.12925" lon="-1.59042">
        <ele>6</ele>
        <time>2020-06-12T05:31:22Z</time>
      </trkpt>
      <trkpt lat="49.12926" lon="-1.59042">
        <ele>6</ele>
        <time>2020-06-12T05:31:23Z</time>
      </trkpt>
      <trkpt lat="49.12925" lon="-1.59042">
        <ele>6</ele>
        <time>2020-06-12T05:31:24Z</time>
      </trkpt>
      <trkpt lat="49.12926" lon="-1.59041">
        <ele>6</ele>
        <time>2020-06-12T05:31:25Z</time>
      </trkpt>
      <trkpt lat="49.12926" lon="-1.59041">
        <ele>6</ele>
        <time>2020-06-12T05:31:26Z</time>
      </trkpt>
      <trkpt lat="49.12926" lon="-1.5904">
        <ele>6</ele>
        <time>2020-06-12T05:31:27Z</time>
      </trkpt>
      <trkpt lat="49.12926" lon="-1.5904">
        <ele>6</ele>
        <time>2020-06-12T05:31:28Z</time>
      </trkpt>
      <trkpt lat="49.12922" lon="-1.59033">
        <ele>5.9</ele>
        <time>2020-06-12T05:34:49Z</time>
      </trkpt>
      <trkpt lat="49.1292" lon="-1.59033">
        <ele>5.9</ele>
        <time>2020-06-12T05:34:50Z</time>
      </trkpt>
      <trkpt lat="49.12919" lon="-1.59033">
        <ele>5.9</ele>
        <time>2020-06-12T05:34:51Z</time>
      </trkpt>
      <trkpt lat="49.12918" lon="-1.59032">
        <ele>5.8</ele>
        <time>2020-06-12T05:34:52Z</time>
      </trkpt>
      <trkpt lat="49.12917" lon="-1.59031">
        <ele>5.8</ele>
        <time>2020-06-12T05:34:53Z</time>
      </trkpt>
      <trkpt lat="49.12917" lon="-1.59031">
        <ele>5.8</ele>
        <time>2020-06-12T05:34:54Z</time>
      </trkpt>
      <trkpt lat="49.12917" lon="-1.59032">
        <ele>5.8</ele>
        <time>2020-06-12T05:34:55Z</time>
      </trkpt>
      <trkpt lat="49.12917" lon="-1.59033">
        <ele>5.8</ele>
        <time>2020-06-12T05:34:56Z</time>
      </trkpt>
      <trkpt lat="49.12917" lon="-1.59034">
        <ele>5.8</ele>
        <time>2020-06-12T05:34:57Z</time>
      </trkpt>
      <trkpt lat="49.12916" lon="-1.59035">
        <ele>5.8</ele>
        <time>2020-06-12T05:34:58Z</time>
      </trkpt>
      <trkpt lat="49.12916" lon="-1.59036">
        <ele>5.8</ele>
        <time>2020-06-12T05:34:59Z</time>
      </trkpt>
      <trkpt lat="49.12916" lon="-1.59036">
        <ele>5.8</ele>
        <time>2020-06-12T05:35:00Z</time>
      </trkpt>
      <trkpt lat="49.12916" lon="-1.59037">
        <ele>5.8</ele>
        <time>2020-06-12T05:35:01Z</time>
      </trkpt>
      <trkpt lat="49.12916" lon="-1.59038">
        <ele>5.8</ele>
        <time>2020-06-12T05:35:02Z</time>
      </trkpt>
      <trkpt lat="49.12916" lon="-1.59039">
        <ele>5.8</ele>
        <time>2020-06-12T05:35:03Z</time>
      </trkpt>
      <trkpt lat="49.12915" lon="-1.5904">
        <ele>5.8</ele>
        <time>2020-06-12T05:35:08Z</time>
      </trkpt>
      <trkpt lat="49.12915" lon="-1.59041">
        <ele>5.8</ele>
        <time>2020-06-12T05:35:09Z</time>
      </trkpt>
      <trkpt lat="49.12916" lon="-1.59046">
        <ele>5.8</ele>
        <time>2020-06-12T05:35:10Z</time>
      </trkpt>
      <trkpt lat="49.12916" lon="-1.59047">
        <ele>5.8</ele>
        <time>2020-06-12T05:35:11Z</time>
      </trkpt>
      <trkpt lat="49.12918" lon="-1.59051">
        <ele>5.7</ele>
        <time>2020-06-12T05:35:12Z</time>
      </trkpt>
      <trkpt lat="49.12918" lon="-1.59053">
        <ele>5.7</ele>
        <time>2020-06-12T05:35:13Z</time>
      </trkpt>
      <trkpt lat="49.12919" lon="-1.59053">
        <ele>5.7</ele>
        <time>2020-06-12T05:35:14Z</time>
      </trkpt>
      <trkpt lat="49.12919" lon="-1.59054">
        <ele>5.7</ele>
        <time>2020-06-12T05:35:15Z</time>
      </trkpt>
      <trkpt lat="49.12919" lon="-1.59054">
        <ele>5.7</ele>
        <time>2020-06-12T05:35:16Z</time>
      </trkpt>
      <trkpt lat="49.12919" lon="-1.59054">
        <ele>5.7</ele>
        <time>2020-06-12T05:35:17Z</time>
      </trkpt>
      <trkpt lat="49.12919" lon="-1.59054">
        <ele>5.7</ele>
        <time>2020-06-12T05:35:18Z</time>
      </trkpt>
      <trkpt lat="49.12919" lon="-1.59055">
        <ele>5.7</ele>
        <time>2020-06-12T05:35:19Z</time>
      </trkpt>
      <trkpt lat="49.12919" lon="-1.59054">
        <ele>5.7</ele>
        <time>2020-06-12T05:35:20Z</time>
      </trkpt>
      <trkpt lat="49.12919" lon="-1.59055">
        <ele>5.7</ele>
        <time>2020-06-12T05:35:21Z</time>
      </trkpt>
      <trkpt lat="49.12919" lon="-1.59055">
        <ele>5.7</ele>
        <time>2020-06-12T05:35:22Z</time>
      </trkpt>
      <trkpt lat="49.12919" lon="-1.59053">
        <ele>5.7</ele>
        <time>2020-06-12T05:35:23Z</time>
      </trkpt>
      <trkpt lat="49.12919" lon="-1.59051">
        <ele>5.7</ele>
        <time>2020-06-12T05:35:24Z</time>
      </trkpt>
      <trkpt lat="49.1292" lon="-1.5905">
        <ele>5.7</ele>
        <time>2020-06-12T05:35:25Z</time>
      </trkpt>
      <trkpt lat="49.1292" lon="-1.59049">
        <ele>5.7</ele>
        <time>2020-06-12T05:35:26Z</time>
      </trkpt>
      <trkpt lat="49.12921" lon="-1.59047">
        <ele>5.7</ele>
        <time>2020-06-12T05:35:27Z</time>
      </trkpt>
      <trkpt lat="49.12922" lon="-1.59045">
        <ele>5.6</ele>
        <time>2020-06-12T05:35:28Z</time>
      </trkpt>
      <trkpt lat="49.12923" lon="-1.59044">
        <ele>5.6</ele>
        <time>2020-06-12T05:35:29Z</time>
      </trkpt>
      <trkpt lat="49.12923" lon="-1.59042">
        <ele>5.6</ele>
        <time>2020-06-12T05:35:30Z</time>
      </trkpt>
      <trkpt lat="49.12924" lon="-1.59042">
        <ele>5.6</ele>
        <time>2020-06-12T05:35:31Z</time>
      </trkpt>
      <trkpt lat="49.12924" lon="-1.59041">
        <ele>5.6</ele>
        <time>2020-06-12T05:35:32Z</time>
      </trkpt>
      <trkpt lat="49.12925" lon="-1.59042">
        <ele>5.6</ele>
        <time>2020-06-12T05:35:33Z</time>
      </trkpt>
      <trkpt lat="49.12925" lon="-1.59042">
        <ele>5.6</ele>
        <time>2020-06-12T05:35:34Z</time>
      </trkpt>
      <trkpt lat="49.12926" lon="-1.59042">
        <ele>5.6</ele>
        <time>2020-06-12T05:35:35Z</time>
      </trkpt>
      <trkpt lat="49.12927" lon="-1.59043">
        <ele>5.6</ele>
        <time>2020-06-12T05:35:36Z</time>
      </trkpt>
      <trkpt lat="49.12928" lon="-1.59043">
        <ele>5.6</ele>
        <time>2020-06-12T05:35:37Z</time>
      </trkpt>
      <trkpt lat="49.12928" lon="-1.59043">
        <ele>5.6</ele>
        <time>2020-06-12T05:35:38Z</time>
      </trkpt>
      <trkpt lat="49.12929" lon="-1.59044">
        <ele>5.6</ele>
        <time>2020-06-12T05:35:39Z</time>
      </trkpt>
      <trkpt lat="49.1293" lon="-1.59044">
        <ele>5.6</ele>
        <time>2020-06-12T05:35:40Z</time>
      </trkpt>
      <trkpt lat="49.1293" lon="-1.59044">
        <ele>5.6</ele>
        <time>2020-06-12T05:35:41Z</time>
      </trkpt>
      <trkpt lat="49.12931" lon="-1.59045">
        <ele>5.6</ele>
        <time>2020-06-12T05:36:53Z</time>
      </trkpt>
      <trkpt lat="49.12932" lon="-1.59045">
        <ele>5.6</ele>
        <time>2020-06-12T05:36:54Z</time>
      </trkpt>
      <trkpt lat="49.12934" lon="-1.59047">
        <ele>5.6</ele>
        <time>2020-06-12T05:36:55Z</time>
      </trkpt>
      <trkpt lat="49.12937" lon="-1.59049">
        <ele>5.6</ele>
        <time>2020-06-12T05:36:56Z</time>
      </trkpt>
      <trkpt lat="49.12941" lon="-1.59052">
        <ele>5.6</ele>
        <time>2020-06-12T05:36:57Z</time>
      </trkpt>
      <trkpt lat="49.12944" lon="-1.59053">
        <ele>5.6</ele>
        <time>2020-06-12T05:36:58Z</time>
      </trkpt>
      <trkpt lat="49.12947" lon="-1.59054">
        <ele>5.6</ele>
        <time>2020-06-12T05:36:59Z</time>
      </trkpt>
      <trkpt lat="49.12951" lon="-1.59056">
        <ele>5.6</ele>
        <time>2020-06-12T05:37:00Z</time>
      </trkpt>
      <trkpt lat="49.12956" lon="-1.59058">
        <ele>5.6</ele>
        <time>2020-06-12T05:37:01Z</time>
      </trkpt>
      <trkpt lat="49.12961" lon="-1.59061">
        <ele>5.6</ele>
        <time>2020-06-12T05:37:02Z</time>
      </trkpt>
      <trkpt lat="49.12966" lon="-1.59063">
        <ele>5.6</ele>
        <time>2020-06-12T05:37:03Z</time>
      </trkpt>
      <trkpt lat="49.12971" lon="-1.59066">
        <ele>5.6</ele>
        <time>2020-06-12T05:37:04Z</time>
      </trkpt>
      <trkpt lat="49.12976" lon="-1.59067">
        <ele>5.6</ele>
        <time>2020-06-12T05:37:05Z</time>
      </trkpt>
      <trkpt lat="49.12981" lon="-1.59068">
        <ele>5.6</ele>
        <time>2020-06-12T05:37:06Z</time>
      </trkpt>
      <trkpt lat="49.12986" lon="-1.59071">
        <ele>5.6</ele>
        <time>2020-06-12T05:37:07Z</time>
      </trkpt>
      <trkpt lat="49.12991" lon="-1.59072">
        <ele>5.6</ele>
        <time>2020-06-12T05:37:08Z</time>
      </trkpt>
      <trkpt lat="49.12996" lon="-1.59073">
        <ele>5.6</ele>
        <time>2020-06-12T05:37:09Z</time>
      </trkpt>
      <trkpt lat="49.13001" lon="-1.59076">
        <ele>5.7</ele>
        <time>2020-06-12T05:37:10Z</time>
      </trkpt>
      <trkpt lat="49.13007" lon="-1.59078">
        <ele>5.7</ele>
        <time>2020-06-12T05:37:11Z</time>
      </trkpt>
      <trkpt lat="49.13012" lon="-1.59079">
        <ele>5.7</ele>
        <time>2020-06-12T05:37:12Z</time>
      </trkpt>
      <trkpt lat="49.13017" lon="-1.59081">
        <ele>5.7</ele>
        <time>2020-06-12T05:37:13Z</time>
      </trkpt>
      <trkpt lat="49.13024" lon="-1.59084">
        <ele>5.8</ele>
        <time>2020-06-12T05:37:14Z</time>
      </trkpt>
      <trkpt lat="49.13029" lon="-1.59086">
        <ele>5.8</ele>
        <time>2020-06-12T05:37:15Z</time>
      </trkpt>
      <trkpt lat="49.13034" lon="-1.59089">
        <ele>5.8</ele>
        <time>2020-06-12T05:37:16Z</time>
      </trkpt>
      <trkpt lat="49.1304" lon="-1.59092">
        <ele>5.8</ele>
        <time>2020-06-12T05:37:17Z</time>
      </trkpt>
      <trkpt lat="49.13045" lon="-1.59095">
        <ele>5.9</ele>
        <time>2020-06-12T05:37:18Z</time>
      </trkpt>
      <trkpt lat="49.13051" lon="-1.59098">
        <ele>5.9</ele>
        <time>2020-06-12T05:37:19Z</time>
      </trkpt>
      <trkpt lat="49.13057" lon="-1.591">
        <ele>5.9</ele>
        <time>2020-06-12T05:37:20Z</time>
      </trkpt>
      <trkpt lat="49.13063" lon="-1.59102">
        <ele>6</ele>
        <time>2020-06-12T05:37:21Z</time>
      </trkpt>
      <trkpt lat="49.13069" lon="-1.59105">
        <ele>6</ele>
        <time>2020-06-12T05:37:22Z</time>
      </trkpt>
      <trkpt lat="49.13074" lon="-1.59108">
        <ele>6.1</ele>
        <time>2020-06-12T05:37:23Z</time>
      </trkpt>
      <trkpt lat="49.13079" lon="-1.59111">
        <ele>6.1</ele>
        <time>2020-06-12T05:37:24Z</time>
      </trkpt>
      <trkpt lat="49.13084" lon="-1.59113">
        <ele>6.2</ele>
        <time>2020-06-12T05:37:25Z</time>
      </trkpt>
      <trkpt lat="49.1309" lon="-1.59116">
        <ele>6.2</ele>
        <time>2020-06-12T05:37:26Z</time>
      </trkpt>
      <trkpt lat="49.13095" lon="-1.59118">
        <ele>6.2</ele>
        <time>2020-06-12T05:37:27Z</time>
      </trkpt>
      <trkpt lat="49.131" lon="-1.59121">
        <ele>6.3</ele>
        <time>2020-06-12T05:37:28Z</time>
      </trkpt>
      <trkpt lat="49.13105" lon="-1.59123">
        <ele>6.3</ele>
        <time>2020-06-12T05:37:29Z</time>
      </trkpt>
      <trkpt lat="49.1311" lon="-1.59125">
        <ele>6.3</ele>
        <time>2020-06-12T05:37:30Z</time>
      </trkpt>
      <trkpt lat="49.13116" lon="-1.59126">
        <ele>6.4</ele>
        <time>2020-06-12T05:37:31Z</time>
      </trkpt>
      <trkpt lat="49.13121" lon="-1.59128">
        <ele>6.4</ele>
        <time>2020-06-12T05:37:32Z</time>
      </trkpt>
      <trkpt lat="49.13126" lon="-1.5913">
        <ele>6.4</ele>
        <time>2020-06-12T05:37:33Z</time>
      </trkpt>
      <trkpt lat="49.13131" lon="-1.59132">
        <ele>6.5</ele>
        <time>2020-06-12T05:37:34Z</time>
      </trkpt>
      <trkpt lat="49.13136" lon="-1.59134">
        <ele>6.5</ele>
        <time>2020-06-12T05:37:35Z</time>
      </trkpt>
      <trkpt lat="49.13142" lon="-1.59136">
        <ele>6.6</ele>
        <time>2020-06-12T05:37:36Z</time>
      </trkpt>
      <trkpt lat="49.13148" lon="-1.59137">
        <ele>6.6</ele>
        <time>2020-06-12T05:37:37Z</time>
      </trkpt>
      <trkpt lat="49.13153" lon="-1.59139">
        <ele>6.7</ele>
        <time>2020-06-12T05:37:38Z</time>
      </trkpt>
      <trkpt lat="49.13158" lon="-1.5914">
        <ele>6.7</ele>
        <time>2020-06-12T05:37:39Z</time>
      </trkpt>
      <trkpt lat="49.13163" lon="-1.59142">
        <ele>6.8</ele>
        <time>2020-06-12T05:37:40Z</time>
      </trkpt>
      <trkpt lat="49.13169" lon="-1.59143">
        <ele>6.8</ele>
        <time>2020-06-12T05:37:41Z</time>
      </trkpt>
      <trkpt lat="49.13174" lon="-1.59144">
        <ele>6.8</ele>
        <time>2020-06-12T05:37:42Z</time>
      </trkpt>
      <trkpt lat="49.1318" lon="-1.59146">
        <ele>6.9</ele>
        <time>2020-06-12T05:37:43Z</time>
      </trkpt>
      <trkpt lat="49.13185" lon="-1.59148">
        <ele>6.9</ele>
        <time>2020-06-12T05:37:44Z</time>
      </trkpt>
      <trkpt lat="49.1319" lon="-1.59149">
        <ele>7</ele>
        <time>2020-06-12T05:37:45Z</time>
      </trkpt>
      <trkpt lat="49.13196" lon="-1.59151">
        <ele>7</ele>
        <time>2020-06-12T05:37:46Z</time>
      </trkpt>
      <trkpt lat="49.13201" lon="-1.59151">
        <ele>7.1</ele>
        <time>2020-06-12T05:37:47Z</time>
      </trkpt>
      <trkpt lat="49.13206" lon="-1.59153">
        <ele>7.1</ele>
        <time>2020-06-12T05:37:48Z</time>
      </trkpt>
      <trkpt lat="49.13211" lon="-1.59154">
        <ele>7.2</ele>
        <time>2020-06-12T05:37:49Z</time>
      </trkpt>
      <trkpt lat="49.13216" lon="-1.59155">
        <ele>7.3</ele>
        <time>2020-06-12T05:37:50Z</time>
      </trkpt>
      <trkpt lat="49.13221" lon="-1.59155">
        <ele>7.4</ele>
        <time>2020-06-12T05:37:51Z</time>
      </trkpt>
      <trkpt lat="49.13226" lon="-1.59155">
        <ele>7.5</ele>
        <time>2020-06-12T05:37:52Z</time>
      </trkpt>
      <trkpt lat="49.13231" lon="-1.59156">
        <ele>7.7</ele>
        <time>2020-06-12T05:37:53Z</time>
      </trkpt>
      <trkpt lat="49.13237" lon="-1.59156">
        <ele>7.9</ele>
        <time>2020-06-12T05:37:54Z</time>
      </trkpt>
      <trkpt lat="49.13243" lon="-1.59156">
        <ele>8.1</ele>
        <time>2020-06-12T05:37:55Z</time>
      </trkpt>
      <trkpt lat="49.13248" lon="-1.59157">
        <ele>8.3</ele>
        <time>2020-06-12T05:37:56Z</time>
      </trkpt>
      <trkpt lat="49.13253" lon="-1.59157">
        <ele>8.3</ele>
        <time>2020-06-12T05:37:57Z</time>
      </trkpt>
      <trkpt lat="49.13258" lon="-1.59158">
        <ele>8.3</ele>
        <time>2020-06-12T05:37:58Z</time>
      </trkpt>
      <trkpt lat="49.13263" lon="-1.59158">
        <ele>8.3</ele>
        <time>2020-06-12T05:37:59Z</time>
      </trkpt>
      <trkpt lat="49.13268" lon="-1.59159">
        <ele>8.3</ele>
        <time>2020-06-12T05:38:00Z</time>
      </trkpt>
      <trkpt lat="49.13274" lon="-1.59159">
        <ele>8.4</ele>
        <time>2020-06-12T05:38:01Z</time>
      </trkpt>
      <trkpt lat="49.1328" lon="-1.59159">
        <ele>8.4</ele>
        <time>2020-06-12T05:38:02Z</time>
      </trkpt>
      <trkpt lat="49.13285" lon="-1.5916">
        <ele>8.5</ele>
        <time>2020-06-12T05:38:03Z</time>
      </trkpt>
      <trkpt lat="49.13291" lon="-1.5916">
        <ele>8.5</ele>
        <time>2020-06-12T05:38:04Z</time>
      </trkpt>
      <trkpt lat="49.13295" lon="-1.5916">
        <ele>8.6</ele>
        <time>2020-06-12T05:38:05Z</time>
      </trkpt>
      <trkpt lat="49.133" lon="-1.59161">
        <ele>8.6</ele>
        <time>2020-06-12T05:38:06Z</time>
      </trkpt>
      <trkpt lat="49.13306" lon="-1.59161">
        <ele>8.6</ele>
        <time>2020-06-12T05:38:07Z</time>
      </trkpt>
      <trkpt lat="49.13311" lon="-1.59161">
        <ele>8.7</ele>
        <time>2020-06-12T05:38:08Z</time>
      </trkpt>
      <trkpt lat="49.13316" lon="-1.59162">
        <ele>8.7</ele>
        <time>2020-06-12T05:38:09Z</time>
      </trkpt>
      <trkpt lat="49.13322" lon="-1.59162">
        <ele>8.7</ele>
        <time>2020-06-12T05:38:10Z</time>
      </trkpt>
      <trkpt lat="49.13328" lon="-1.59162">
        <ele>8.7</ele>
        <time>2020-06-12T05:38:11Z</time>
      </trkpt>
      <trkpt lat="49.13334" lon="-1.59162">
        <ele>8.8</ele>
        <time>2020-06-12T05:38:12Z</time>
      </trkpt>
      <trkpt lat="49.13338" lon="-1.59161">
        <ele>8.8</ele>
        <time>2020-06-12T05:38:13Z</time>
      </trkpt>
      <trkpt lat="49.13343" lon="-1.5916">
        <ele>8.8</ele>
        <time>2020-06-12T05:38:14Z</time>
      </trkpt>
      <trkpt lat="49.13348" lon="-1.59161">
        <ele>8.9</ele>
        <time>2020-06-12T05:38:15Z</time>
      </trkpt>
      <trkpt lat="49.13353" lon="-1.5916">
        <ele>8.9</ele>
        <time>2020-06-12T05:38:16Z</time>
      </trkpt>
      <trkpt lat="49.13359" lon="-1.59161">
        <ele>9</ele>
        <time>2020-06-12T05:38:17Z</time>
      </trkpt>
      <trkpt lat="49.13364" lon="-1.5916">
        <ele>9</ele>
        <time>2020-06-12T05:38:18Z</time>
      </trkpt>
      <trkpt lat="49.13369" lon="-1.59161">
        <ele>9.1</ele>
        <time>2020-06-12T05:38:19Z</time>
      </trkpt>
      <trkpt lat="49.13374" lon="-1.59161">
        <ele>9.1</ele>
        <time>2020-06-12T05:38:20Z</time>
      </trkpt>
      <trkpt lat="49.13379" lon="-1.5916">
        <ele>9.1</ele>
        <time>2020-06-12T05:38:21Z</time>
      </trkpt>
      <trkpt lat="49.13384" lon="-1.59159">
        <ele>9.1</ele>
        <time>2020-06-12T05:38:22Z</time>
      </trkpt>
      <trkpt lat="49.1339" lon="-1.59159">
        <ele>9.2</ele>
        <time>2020-06-12T05:38:23Z</time>
      </trkpt>
      <trkpt lat="49.13395" lon="-1.59159">
        <ele>9.2</ele>
        <time>2020-06-12T05:38:24Z</time>
      </trkpt>
      <trkpt lat="49.13401" lon="-1.59159">
        <ele>9.2</ele>
        <time>2020-06-12T05:38:25Z</time>
      </trkpt>
      <trkpt lat="49.13407" lon="-1.59159">
        <ele>9.2</ele>
        <time>2020-06-12T05:38:26Z</time>
      </trkpt>
      <trkpt lat="49.13412" lon="-1.59158">
        <ele>9.2</ele>
        <time>2020-06-12T05:38:27Z</time>
      </trkpt>
      <trkpt lat="49.13417" lon="-1.59158">
        <ele>9.2</ele>
        <time>2020-06-12T05:38:28Z</time>
      </trkpt>
      <trkpt lat="49.13423" lon="-1.59157">
        <ele>9.2</ele>
        <time>2020-06-12T05:38:29Z</time>
      </trkpt>
      <trkpt lat="49.13429" lon="-1.59156">
        <ele>9.2</ele>
        <time>2020-06-12T05:38:30Z</time>
      </trkpt>
      <trkpt lat="49.13434" lon="-1.59156">
        <ele>9.3</ele>
        <time>2020-06-12T05:38:31Z</time>
      </trkpt>
      <trkpt lat="49.1344" lon="-1.59156">
        <ele>9.3</ele>
        <time>2020-06-12T05:38:32Z</time>
      </trkpt>
      <trkpt lat="49.13445" lon="-1.59155">
        <ele>9.4</ele>
        <time>2020-06-12T05:38:33Z</time>
      </trkpt>
      <trkpt lat="49.13451" lon="-1.59154">
        <ele>9.4</ele>
        <time>2020-06-12T05:38:34Z</time>
      </trkpt>
      <trkpt lat="49.13456" lon="-1.59152">
        <ele>9.4</ele>
        <time>2020-06-12T05:38:35Z</time>
      </trkpt>
      <trkpt lat="49.13461" lon="-1.59152">
        <ele>9.4</ele>
        <time>2020-06-12T05:38:36Z</time>
      </trkpt>
      <trkpt lat="49.13467" lon="-1.59151">
        <ele>9.3</ele>
        <time>2020-06-12T05:38:37Z</time>
      </trkpt>
      <trkpt lat="49.13472" lon="-1.5915">
        <ele>9.3</ele>
        <time>2020-06-12T05:38:38Z</time>
      </trkpt>
      <trkpt lat="49.13478" lon="-1.5915">
        <ele>9.3</ele>
        <time>2020-06-12T05:38:39Z</time>
      </trkpt>
      <trkpt lat="49.13483" lon="-1.5915">
        <ele>9.3</ele>
        <time>2020-06-12T05:38:40Z</time>
      </trkpt>
      <trkpt lat="49.13488" lon="-1.5915">
        <ele>9.2</ele>
        <time>2020-06-12T05:38:41Z</time>
      </trkpt>
      <trkpt lat="49.13494" lon="-1.5915">
        <ele>9.2</ele>
        <time>2020-06-12T05:38:42Z</time>
      </trkpt>
      <trkpt lat="49.13499" lon="-1.5915">
        <ele>9.2</ele>
        <time>2020-06-12T05:38:43Z</time>
      </trkpt>
      <trkpt lat="49.13504" lon="-1.5915">
        <ele>9.2</ele>
        <time>2020-06-12T05:38:44Z</time>
      </trkpt>
      <trkpt lat="49.13509" lon="-1.5915">
        <ele>9.2</ele>
        <time>2020-06-12T05:38:45Z</time>
      </trkpt>
      <trkpt lat="49.13515" lon="-1.59149">
        <ele>9.1</ele>
        <time>2020-06-12T05:38:46Z</time>
      </trkpt>
      <trkpt lat="49.13521" lon="-1.59148">
        <ele>9.1</ele>
        <time>2020-06-12T05:38:47Z</time>
      </trkpt>
      <trkpt lat="49.13526" lon="-1.59148">
        <ele>9</ele>
        <time>2020-06-12T05:38:48Z</time>
      </trkpt>
      <trkpt lat="49.13532" lon="-1.59147">
        <ele>9</ele>
        <time>2020-06-12T05:38:49Z</time>
      </trkpt>
      <trkpt lat="49.13538" lon="-1.59146">
        <ele>8.9</ele>
        <time>2020-06-12T05:38:50Z</time>
      </trkpt>
      <trkpt lat="49.13544" lon="-1.59146">
        <ele>8.9</ele>
        <time>2020-06-12T05:38:51Z</time>
      </trkpt>
      <trkpt lat="49.1355" lon="-1.59145">
        <ele>8.8</ele>
        <time>2020-06-12T05:38:52Z</time>
      </trkpt>
      <trkpt lat="49.13556" lon="-1.59145">
        <ele>8.8</ele>
        <time>2020-06-12T05:38:53Z</time>
      </trkpt>
      <trkpt lat="49.13562" lon="-1.59144">
        <ele>8.7</ele>
        <time>2020-06-12T05:38:54Z</time>
      </trkpt>
      <trkpt lat="49.13567" lon="-1.59144">
        <ele>8.7</ele>
        <time>2020-06-12T05:38:55Z</time>
      </trkpt>
      <trkpt lat="49.13573" lon="-1.59143">
        <ele>8.6</ele>
        <time>2020-06-12T05:38:56Z</time>
      </trkpt>
      <trkpt lat="49.13579" lon="-1.59142">
        <ele>8.6</ele>
        <time>2020-06-12T05:38:57Z</time>
      </trkpt>
      <trkpt lat="49.13585" lon="-1.59142">
        <ele>8.5</ele>
        <time>2020-06-12T05:38:58Z</time>
      </trkpt>
      <trkpt lat="49.13591" lon="-1.59142">
        <ele>8.5</ele>
        <time>2020-06-12T05:38:59Z</time>
      </trkpt>
      <trkpt lat="49.13597" lon="-1.59142">
        <ele>8.4</ele>
        <time>2020-06-12T05:39:00Z</time>
      </trkpt>
      <trkpt lat="49.13602" lon="-1.59141">
        <ele>8.4</ele>
        <time>2020-06-12T05:39:01Z</time>
      </trkpt>
      <trkpt lat="49.13608" lon="-1.59141">
        <ele>8.4</ele>
        <time>2020-06-12T05:39:02Z</time>
      </trkpt>
      <trkpt lat="49.13615" lon="-1.59141">
        <ele>8.3</ele>
        <time>2020-06-12T05:39:03Z</time>
      </trkpt>
      <trkpt lat="49.1362" lon="-1.59141">
        <ele>8.3</ele>
        <time>2020-06-12T05:39:04Z</time>
      </trkpt>
      <trkpt lat="49.13627" lon="-1.5914">
        <ele>8.2</ele>
        <time>2020-06-12T05:39:05Z</time>
      </trkpt>
      <trkpt lat="49.13633" lon="-1.59139">
        <ele>8.1</ele>
        <time>2020-06-12T05:39:06Z</time>
      </trkpt>
      <trkpt lat="49.1364" lon="-1.59138">
        <ele>8</ele>
        <time>2020-06-12T05:39:07Z</time>
      </trkpt>
      <trkpt lat="49.13647" lon="-1.59138">
        <ele>8</ele>
        <time>2020-06-12T05:39:08Z</time>
      </trkpt>
      <trkpt lat="49.13652" lon="-1.59137">
        <ele>7.9</ele>
        <time>2020-06-12T05:39:09Z</time>
      </trkpt>
      <trkpt lat="49.13657" lon="-1.59137">
        <ele>7.9</ele>
        <time>2020-06-12T05:39:10Z</time>
      </trkpt>
      <trkpt lat="49.13663" lon="-1.59137">
        <ele>7.8</ele>
        <time>2020-06-12T05:39:11Z</time>
      </trkpt>
      <trkpt lat="49.13669" lon="-1.59137">
        <ele>7.7</ele>
        <time>2020-06-12T05:39:12Z</time>
      </trkpt>
      <trkpt lat="49.13674" lon="-1.59136">
        <ele>7.7</ele>
        <time>2020-06-12T05:39:13Z</time>
      </trkpt>
      <trkpt lat="49.13681" lon="-1.59136">
        <ele>7.6</ele>
        <time>2020-06-12T05:39:14Z</time>
      </trkpt>
      <trkpt lat="49.13687" lon="-1.59135">
        <ele>7.5</ele>
        <time>2020-06-12T05:39:15Z</time>
      </trkpt>
      <trkpt lat="49.13693" lon="-1.59135">
        <ele>7.5</ele>
        <time>2020-06-12T05:39:16Z</time>
      </trkpt>
      <trkpt lat="49.13699" lon="-1.59135">
        <ele>7.4</ele>
        <time>2020-06-12T05:39:17Z</time>
      </trkpt>
      <trkpt lat="49.13704" lon="-1.59134">
        <ele>7.3</ele>
        <time>2020-06-12T05:39:18Z</time>
      </trkpt>
      <trkpt lat="49.1371" lon="-1.59134">
        <ele>7.3</ele>
        <time>2020-06-12T05:39:19Z</time>
      </trkpt>
      <trkpt lat="49.13716" lon="-1.59134">
        <ele>7.2</ele>
        <time>2020-06-12T05:39:20Z</time>
      </trkpt>
      <trkpt lat="49.13722" lon="-1.59133">
        <ele>7.1</ele>
        <time>2020-06-12T05:39:21Z</time>
      </trkpt>
      <trkpt lat="49.13728" lon="-1.59133">
        <ele>7.1</ele>
        <time>2020-06-12T05:39:22Z</time>
      </trkpt>
      <trkpt lat="49.13734" lon="-1.59132">
        <ele>7</ele>
        <time>2020-06-12T05:39:23Z</time>
      </trkpt>
      <trkpt lat="49.13741" lon="-1.59132">
        <ele>7</ele>
        <time>2020-06-12T05:39:24Z</time>
      </trkpt>
      <trkpt lat="49.13745" lon="-1.59132">
        <ele>6.9</ele>
        <time>2020-06-12T05:39:25Z</time>
      </trkpt>
      <trkpt lat="49.13751" lon="-1.59132">
        <ele>6.8</ele>
        <time>2020-06-12T05:39:26Z</time>
      </trkpt>
      <trkpt lat="49.13757" lon="-1.59131">
        <ele>6.7</ele>
        <time>2020-06-12T05:39:27Z</time>
      </trkpt>
      <trkpt lat="49.13765" lon="-1.59129">
        <ele>6.6</ele>
        <time>2020-06-12T05:39:28Z</time>
      </trkpt>
      <trkpt lat="49.13771" lon="-1.59129">
        <ele>6.5</ele>
        <time>2020-06-12T05:39:29Z</time>
      </trkpt>
      <trkpt lat="49.13778" lon="-1.59127">
        <ele>6.5</ele>
        <time>2020-06-12T05:39:30Z</time>
      </trkpt>
      <trkpt lat="49.13785" lon="-1.59127">
        <ele>6.4</ele>
        <time>2020-06-12T05:39:31Z</time>
      </trkpt>
      <trkpt lat="49.13791" lon="-1.59126">
        <ele>6.3</ele>
        <time>2020-06-12T05:39:32Z</time>
      </trkpt>
      <trkpt lat="49.13797" lon="-1.59125">
        <ele>6.3</ele>
        <time>2020-06-12T05:39:33Z</time>
      </trkpt>
      <trkpt lat="49.13804" lon="-1.59125">
        <ele>6.2</ele>
        <time>2020-06-12T05:39:34Z</time>
      </trkpt>
      <trkpt lat="49.13809" lon="-1.59124">
        <ele>6.1</ele>
        <time>2020-06-12T05:39:35Z</time>
      </trkpt>
      <trkpt lat="49.13815" lon="-1.59123">
        <ele>6.1</ele>
        <time>2020-06-12T05:39:36Z</time>
      </trkpt>
      <trkpt lat="49.13822" lon="-1.59122">
        <ele>6</ele>
        <time>2020-06-12T05:39:37Z</time>
      </trkpt>
      <trkpt lat="49.13828" lon="-1.59121">
        <ele>5.9</ele>
        <time>2020-06-12T05:39:38Z</time>
      </trkpt>
      <trkpt lat="49.13833" lon="-1.59121">
        <ele>5.9</ele>
        <time>2020-06-12T05:39:39Z</time>
      </trkpt>
      <trkpt lat="49.13839" lon="-1.5912">
        <ele>5.8</ele>
        <time>2020-06-12T05:39:40Z</time>
      </trkpt>
      <trkpt lat="49.13844" lon="-1.59119">
        <ele>5.8</ele>
        <time>2020-06-12T05:39:41Z</time>
      </trkpt>
      <trkpt lat="49.1385" lon="-1.59118">
        <ele>5.7</ele>
        <time>2020-06-12T05:39:42Z</time>
      </trkpt>
      <trkpt lat="49.13855" lon="-1.59116">
        <ele>5.7</ele>
        <time>2020-06-12T05:39:43Z</time>
      </trkpt>
      <trkpt lat="49.1386" lon="-1.59115">
        <ele>5.7</ele>
        <time>2020-06-12T05:39:44Z</time>
      </trkpt>
      <trkpt lat="49.13865" lon="-1.59113">
        <ele>5.8</ele>
        <time>2020-06-12T05:39:45Z</time>
      </trkpt>
      <trkpt lat="49.1387" lon="-1.59111">
        <ele>5.8</ele>
        <time>2020-06-12T05:39:46Z</time>
      </trkpt>
      <trkpt lat="49.13875" lon="-1.5911">
        <ele>5.8</ele>
        <time>2020-06-12T05:39:47Z</time>
      </trkpt>
      <trkpt lat="49.1388" lon="-1.59109">
        <ele>5.9</ele>
        <time>2020-06-12T05:39:48Z</time>
      </trkpt>
      <trkpt lat="49.13886" lon="-1.59106">
        <ele>5.9</ele>
        <time>2020-06-12T05:39:49Z</time>
      </trkpt>
      <trkpt lat="49.13892" lon="-1.59103">
        <ele>5.9</ele>
        <time>2020-06-12T05:39:50Z</time>
      </trkpt>
      <trkpt lat="49.13899" lon="-1.59101">
        <ele>5.9</ele>
        <time>2020-06-12T05:39:51Z</time>
      </trkpt>
      <trkpt lat="49.13905" lon="-1.59099">
        <ele>5.9</ele>
        <time>2020-06-12T05:39:52Z</time>
      </trkpt>
      <trkpt lat="49.13912" lon="-1.59097">
        <ele>5.9</ele>
        <time>2020-06-12T05:39:53Z</time>
      </trkpt>
      <trkpt lat="49.13918" lon="-1.59095">
        <ele>5.9</ele>
        <time>2020-06-12T05:39:54Z</time>
      </trkpt>
      <trkpt lat="49.13924" lon="-1.59093">
        <ele>5.9</ele>
        <time>2020-06-12T05:39:55Z</time>
      </trkpt>
      <trkpt lat="49.13929" lon="-1.59091">
        <ele>5.9</ele>
        <time>2020-06-12T05:39:56Z</time>
      </trkpt>
      <trkpt lat="49.13934" lon="-1.5909">
        <ele>5.9</ele>
        <time>2020-06-12T05:39:57Z</time>
      </trkpt>
      <trkpt lat="49.1394" lon="-1.59088">
        <ele>5.9</ele>
        <time>2020-06-12T05:39:58Z</time>
      </trkpt>
      <trkpt lat="49.13945" lon="-1.59086">
        <ele>5.9</ele>
        <time>2020-06-12T05:39:59Z</time>
      </trkpt>
      <trkpt lat="49.1395" lon="-1.59083">
        <ele>5.9</ele>
        <time>2020-06-12T05:40:00Z</time>
      </trkpt>
      <trkpt lat="49.13955" lon="-1.59081">
        <ele>6</ele>
        <time>2020-06-12T05:40:01Z</time>
      </trkpt>
      <trkpt lat="49.1396" lon="-1.59079">
        <ele>6</ele>
        <time>2020-06-12T05:40:02Z</time>
      </trkpt>
      <trkpt lat="49.13965" lon="-1.59077">
        <ele>6</ele>
        <time>2020-06-12T05:40:03Z</time>
      </trkpt>
      <trkpt lat="49.1397" lon="-1.59075">
        <ele>6</ele>
        <time>2020-06-12T05:40:04Z</time>
      </trkpt>
      <trkpt lat="49.13974" lon="-1.59073">
        <ele>6</ele>
        <time>2020-06-12T05:40:05Z</time>
      </trkpt>
      <trkpt lat="49.1398" lon="-1.5907">
        <ele>6.1</ele>
        <time>2020-06-12T05:40:06Z</time>
      </trkpt>
      <trkpt lat="49.13985" lon="-1.59068">
        <ele>6.1</ele>
        <time>2020-06-12T05:40:07Z</time>
      </trkpt>
      <trkpt lat="49.13991" lon="-1.59066">
        <ele>6.2</ele>
        <time>2020-06-12T05:40:08Z</time>
      </trkpt>
      <trkpt lat="49.13994" lon="-1.59063">
        <ele>6.2</ele>
        <time>2020-06-12T05:40:09Z</time>
      </trkpt>
      <trkpt lat="49.13999" lon="-1.59062">
        <ele>6.2</ele>
        <time>2020-06-12T05:40:10Z</time>
      </trkpt>
      <trkpt lat="49.14004" lon="-1.59061">
        <ele>6.3</ele>
        <time>2020-06-12T05:40:11Z</time>
      </trkpt>
      <trkpt lat="49.1401" lon="-1.5906">
        <ele>6.3</ele>
        <time>2020-06-12T05:40:12Z</time>
      </trkpt>
      <trkpt lat="49.14015" lon="-1.59059">
        <ele>6.3</ele>
        <time>2020-06-12T05:40:13Z</time>
      </trkpt>
      <trkpt lat="49.14021" lon="-1.59056">
        <ele>6.4</ele>
        <time>2020-06-12T05:40:14Z</time>
      </trkpt>
      <trkpt lat="49.14026" lon="-1.59053">
        <ele>6.4</ele>
        <time>2020-06-12T05:40:15Z</time>
      </trkpt>
      <trkpt lat="49.14031" lon="-1.5905">
        <ele>6.4</ele>
        <time>2020-06-12T05:40:16Z</time>
      </trkpt>
      <trkpt lat="49.14036" lon="-1.59048">
        <ele>6.5</ele>
        <time>2020-06-12T05:40:17Z</time>
      </trkpt>
      <trkpt lat="49.14041" lon="-1.59047">
        <ele>6.5</ele>
        <time>2020-06-12T05:40:18Z</time>
      </trkpt>
      <trkpt lat="49.14046" lon="-1.59045">
        <ele>6.5</ele>
        <time>2020-06-12T05:40:19Z</time>
      </trkpt>
      <trkpt lat="49.14051" lon="-1.59044">
        <ele>6.5</ele>
        <time>2020-06-12T05:40:20Z</time>
      </trkpt>
      <trkpt lat="49.14056" lon="-1.59041">
        <ele>6.5</ele>
        <time>2020-06-12T05:40:21Z</time>
      </trkpt>
      <trkpt lat="49.14061" lon="-1.59039">
        <ele>6.5</ele>
        <time>2020-06-12T05:40:22Z</time>
      </trkpt>
      <trkpt lat="49.14066" lon="-1.59037">
        <ele>6.5</ele>
        <time>2020-06-12T05:40:23Z</time>
      </trkpt>
      <trkpt lat="49.14071" lon="-1.59035">
        <ele>6.5</ele>
        <time>2020-06-12T05:40:24Z</time>
      </trkpt>
      <trkpt lat="49.14076" lon="-1.59034">
        <ele>6.5</ele>
        <time>2020-06-12T05:40:25Z</time>
      </trkpt>
      <trkpt lat="49.14081" lon="-1.59031">
        <ele>6.5</ele>
        <time>2020-06-12T05:40:26Z</time>
      </trkpt>
      <trkpt lat="49.14086" lon="-1.59029">
        <ele>6.5</ele>
        <time>2020-06-12T05:40:27Z</time>
      </trkpt>
      <trkpt lat="49.14091" lon="-1.59027">
        <ele>6.5</ele>
        <time>2020-06-12T05:40:28Z</time>
      </trkpt>
      <trkpt lat="49.14096" lon="-1.59025">
        <ele>6.5</ele>
        <time>2020-06-12T05:40:29Z</time>
      </trkpt>
      <trkpt lat="49.14102" lon="-1.59023">
        <ele>6.5</ele>
        <time>2020-06-12T05:40:30Z</time>
      </trkpt>
      <trkpt lat="49.14107" lon="-1.59021">
        <ele>6.5</ele>
        <time>2020-06-12T05:40:31Z</time>
      </trkpt>
      <trkpt lat="49.14113" lon="-1.59019">
        <ele>6.5</ele>
        <time>2020-06-12T05:40:32Z</time>
      </trkpt>
      <trkpt lat="49.14118" lon="-1.59018">
        <ele>6.5</ele>
        <time>2020-06-12T05:40:33Z</time>
      </trkpt>
      <trkpt lat="49.14123" lon="-1.59016">
        <ele>6.5</ele>
        <time>2020-06-12T05:40:34Z</time>
      </trkpt>
      <trkpt lat="49.14127" lon="-1.59015">
        <ele>6.5</ele>
        <time>2020-06-12T05:40:35Z</time>
      </trkpt>
      <trkpt lat="49.14132" lon="-1.59013">
        <ele>6.5</ele>
        <time>2020-06-12T05:40:36Z</time>
      </trkpt>
      <trkpt lat="49.14138" lon="-1.59012">
        <ele>6.5</ele>
        <time>2020-06-12T05:40:37Z</time>
      </trkpt>
      <trkpt lat="49.14143" lon="-1.5901">
        <ele>6.5</ele>
        <time>2020-06-12T05:40:38Z</time>
      </trkpt>
      <trkpt lat="49.14148" lon="-1.59008">
        <ele>6.5</ele>
        <time>2020-06-12T05:40:39Z</time>
      </trkpt>
      <trkpt lat="49.14153" lon="-1.59007">
        <ele>6.5</ele>
        <time>2020-06-12T05:40:40Z</time>
      </trkpt>
      <trkpt lat="49.14159" lon="-1.59005">
        <ele>6.4</ele>
        <time>2020-06-12T05:40:41Z</time>
      </trkpt>
      <trkpt lat="49.14164" lon="-1.59003">
        <ele>6.4</ele>
        <time>2020-06-12T05:40:42Z</time>
      </trkpt>
      <trkpt lat="49.14169" lon="-1.59002">
        <ele>6.4</ele>
        <time>2020-06-12T05:40:43Z</time>
      </trkpt>
      <trkpt lat="49.14174" lon="-1.58999">
        <ele>6.4</ele>
        <time>2020-06-12T05:40:44Z</time>
      </trkpt>
      <trkpt lat="49.1418" lon="-1.58997">
        <ele>6.4</ele>
        <time>2020-06-12T05:40:45Z</time>
      </trkpt>
      <trkpt lat="49.14185" lon="-1.58995">
        <ele>6.4</ele>
        <time>2020-06-12T05:40:46Z</time>
      </trkpt>
      <trkpt lat="49.14191" lon="-1.58994">
        <ele>6.3</ele>
        <time>2020-06-12T05:40:47Z</time>
      </trkpt>
      <trkpt lat="49.14197" lon="-1.58992">
        <ele>6.3</ele>
        <time>2020-06-12T05:40:48Z</time>
      </trkpt>
      <trkpt lat="49.14203" lon="-1.58992">
        <ele>6.2</ele>
        <time>2020-06-12T05:40:49Z</time>
      </trkpt>
      <trkpt lat="49.14209" lon="-1.58992">
        <ele>6.2</ele>
        <time>2020-06-12T05:40:50Z</time>
      </trkpt>
      <trkpt lat="49.14215" lon="-1.58991">
        <ele>6.2</ele>
        <time>2020-06-12T05:40:51Z</time>
      </trkpt>
      <trkpt lat="49.14221" lon="-1.5899">
        <ele>6.1</ele>
        <time>2020-06-12T05:40:52Z</time>
      </trkpt>
      <trkpt lat="49.14227" lon="-1.58989">
        <ele>6.1</ele>
        <time>2020-06-12T05:40:53Z</time>
      </trkpt>
      <trkpt lat="49.14234" lon="-1.58987">
        <ele>6</ele>
        <time>2020-06-12T05:40:54Z</time>
      </trkpt>
      <trkpt lat="49.1424" lon="-1.58985">
        <ele>6</ele>
        <time>2020-06-12T05:40:55Z</time>
      </trkpt>
      <trkpt lat="49.14246" lon="-1.58983">
        <ele>6</ele>
        <time>2020-06-12T05:40:56Z</time>
      </trkpt>
      <trkpt lat="49.1425" lon="-1.58981">
        <ele>5.9</ele>
        <time>2020-06-12T05:40:57Z</time>
      </trkpt>
      <trkpt lat="49.14256" lon="-1.58979">
        <ele>5.9</ele>
        <time>2020-06-12T05:40:58Z</time>
      </trkpt>
      <trkpt lat="49.1426" lon="-1.58977">
        <ele>5.9</ele>
        <time>2020-06-12T05:40:59Z</time>
      </trkpt>
      <trkpt lat="49.14265" lon="-1.58976">
        <ele>5.8</ele>
        <time>2020-06-12T05:41:00Z</time>
      </trkpt>
      <trkpt lat="49.1427" lon="-1.58975">
        <ele>5.8</ele>
        <time>2020-06-12T05:41:01Z</time>
      </trkpt>
      <trkpt lat="49.14275" lon="-1.58973">
        <ele>5.7</ele>
        <time>2020-06-12T05:41:02Z</time>
      </trkpt>
      <trkpt lat="49.14281" lon="-1.5897">
        <ele>5.7</ele>
        <time>2020-06-12T05:41:03Z</time>
      </trkpt>
      <trkpt lat="49.14286" lon="-1.58969">
        <ele>5.7</ele>
        <time>2020-06-12T05:41:04Z</time>
      </trkpt>
      <trkpt lat="49.14291" lon="-1.58967">
        <ele>5.7</ele>
        <time>2020-06-12T05:41:05Z</time>
      </trkpt>
      <trkpt lat="49.14297" lon="-1.58965">
        <ele>5.7</ele>
        <time>2020-06-12T05:41:06Z</time>
      </trkpt>
      <trkpt lat="49.14303" lon="-1.58964">
        <ele>5.6</ele>
        <time>2020-06-12T05:41:07Z</time>
      </trkpt>
      <trkpt lat="49.14309" lon="-1.58963">
        <ele>5.6</ele>
        <time>2020-06-12T05:41:08Z</time>
      </trkpt>
      <trkpt lat="49.14314" lon="-1.58962">
        <ele>5.5</ele>
        <time>2020-06-12T05:41:09Z</time>
      </trkpt>
      <trkpt lat="49.1432" lon="-1.58961">
        <ele>5.5</ele>
        <time>2020-06-12T05:41:10Z</time>
      </trkpt>
      <trkpt lat="49.14325" lon="-1.5896">
        <ele>5.5</ele>
        <time>2020-06-12T05:41:11Z</time>
      </trkpt>
      <trkpt lat="49.1433" lon="-1.58958">
        <ele>5.5</ele>
        <time>2020-06-12T05:41:12Z</time>
      </trkpt>
      <trkpt lat="49.14336" lon="-1.58956">
        <ele>5.4</ele>
        <time>2020-06-12T05:41:13Z</time>
      </trkpt>
      <trkpt lat="49.14341" lon="-1.58953">
        <ele>5.4</ele>
        <time>2020-06-12T05:41:14Z</time>
      </trkpt>
      <trkpt lat="49.14347" lon="-1.58952">
        <ele>5.3</ele>
        <time>2020-06-12T05:41:15Z</time>
      </trkpt>
      <trkpt lat="49.14353" lon="-1.5895">
        <ele>5.3</ele>
        <time>2020-06-12T05:41:16Z</time>
      </trkpt>
      <trkpt lat="49.14359" lon="-1.58949">
        <ele>5.3</ele>
        <time>2020-06-12T05:41:17Z</time>
      </trkpt>
      <trkpt lat="49.14364" lon="-1.58947">
        <ele>5.2</ele>
        <time>2020-06-12T05:41:18Z</time>
      </trkpt>
      <trkpt lat="49.14369" lon="-1.58945">
        <ele>5.2</ele>
        <time>2020-06-12T05:41:19Z</time>
      </trkpt>
      <trkpt lat="49.14375" lon="-1.58944">
        <ele>5.1</ele>
        <time>2020-06-12T05:41:20Z</time>
      </trkpt>
      <trkpt lat="49.1438" lon="-1.58942">
        <ele>5.1</ele>
        <time>2020-06-12T05:41:21Z</time>
      </trkpt>
      <trkpt lat="49.14385" lon="-1.5894">
        <ele>5</ele>
        <time>2020-06-12T05:41:22Z</time>
      </trkpt>
      <trkpt lat="49.14391" lon="-1.58939">
        <ele>5</ele>
        <time>2020-06-12T05:41:23Z</time>
      </trkpt>
      <trkpt lat="49.14396" lon="-1.58937">
        <ele>5</ele>
        <time>2020-06-12T05:41:24Z</time>
      </trkpt>
      <trkpt lat="49.14402" lon="-1.58936">
        <ele>4.9</ele>
        <time>2020-06-12T05:41:25Z</time>
      </trkpt>
      <trkpt lat="49.14407" lon="-1.58934">
        <ele>4.9</ele>
        <time>2020-06-12T05:41:26Z</time>
      </trkpt>
      <trkpt lat="49.14412" lon="-1.58933">
        <ele>4.9</ele>
        <time>2020-06-12T05:41:27Z</time>
      </trkpt>
      <trkpt lat="49.14417" lon="-1.58932">
        <ele>4.8</ele>
        <time>2020-06-12T05:41:28Z</time>
      </trkpt>
      <trkpt lat="49.14423" lon="-1.58929">
        <ele>4.8</ele>
        <time>2020-06-12T05:41:29Z</time>
      </trkpt>
      <trkpt lat="49.14428" lon="-1.58927">
        <ele>4.8</ele>
        <time>2020-06-12T05:41:30Z</time>
      </trkpt>
      <trkpt lat="49.14434" lon="-1.58925">
        <ele>4.7</ele>
        <time>2020-06-12T05:41:31Z</time>
      </trkpt>
      <trkpt lat="49.1444" lon="-1.58923">
        <ele>4.7</ele>
        <time>2020-06-12T05:41:32Z</time>
      </trkpt>
      <trkpt lat="49.14446" lon="-1.58921">
        <ele>4.7</ele>
        <time>2020-06-12T05:41:33Z</time>
      </trkpt>
      <trkpt lat="49.14451" lon="-1.5892">
        <ele>4.6</ele>
        <time>2020-06-12T05:41:34Z</time>
      </trkpt>
      <trkpt lat="49.14457" lon="-1.58918">
        <ele>4.6</ele>
        <time>2020-06-12T05:41:35Z</time>
      </trkpt>
      <trkpt lat="49.14463" lon="-1.58917">
        <ele>4.5</ele>
        <time>2020-06-12T05:41:36Z</time>
      </trkpt>
      <trkpt lat="49.14468" lon="-1.58916">
        <ele>4.5</ele>
        <time>2020-06-12T05:41:37Z</time>
      </trkpt>
      <trkpt lat="49.14474" lon="-1.58915">
        <ele>4.4</ele>
        <time>2020-06-12T05:41:38Z</time>
      </trkpt>
      <trkpt lat="49.1448" lon="-1.58914">
        <ele>4.4</ele>
        <time>2020-06-12T05:41:39Z</time>
      </trkpt>
      <trkpt lat="49.14485" lon="-1.58912">
        <ele>4.3</ele>
        <time>2020-06-12T05:41:40Z</time>
      </trkpt>
      <trkpt lat="49.1449" lon="-1.5891">
        <ele>4.3</ele>
        <time>2020-06-12T05:41:41Z</time>
      </trkpt>
      <trkpt lat="49.14496" lon="-1.58908">
        <ele>4.3</ele>
        <time>2020-06-12T05:41:42Z</time>
      </trkpt>
      <trkpt lat="49.14502" lon="-1.58907">
        <ele>4.3</ele>
        <time>2020-06-12T05:41:43Z</time>
      </trkpt>
      <trkpt lat="49.14507" lon="-1.58906">
        <ele>4.3</ele>
        <time>2020-06-12T05:41:44Z</time>
      </trkpt>
      <trkpt lat="49.14512" lon="-1.58905">
        <ele>4.3</ele>
        <time>2020-06-12T05:41:45Z</time>
      </trkpt>
      <trkpt lat="49.14517" lon="-1.58903">
        <ele>4.3</ele>
        <time>2020-06-12T05:41:46Z</time>
      </trkpt>
      <trkpt lat="49.14522" lon="-1.58902">
        <ele>4.3</ele>
        <time>2020-06-12T05:41:47Z</time>
      </trkpt>
      <trkpt lat="49.14527" lon="-1.58901">
        <ele>4.4</ele>
        <time>2020-06-12T05:41:48Z</time>
      </trkpt>
      <trkpt lat="49.14532" lon="-1.589">
        <ele>4.5</ele>
        <time>2020-06-12T05:41:49Z</time>
      </trkpt>
      <trkpt lat="49.14538" lon="-1.58898">
        <ele>4.5</ele>
        <time>2020-06-12T05:41:50Z</time>
      </trkpt>
      <trkpt lat="49.14544" lon="-1.58895">
        <ele>4.4</ele>
        <time>2020-06-12T05:41:51Z</time>
      </trkpt>
      <trkpt lat="49.14549" lon="-1.58894">
        <ele>4.3</ele>
        <time>2020-06-12T05:41:52Z</time>
      </trkpt>
      <trkpt lat="49.14555" lon="-1.58894">
        <ele>4.3</ele>
        <time>2020-06-12T05:41:53Z</time>
      </trkpt>
      <trkpt lat="49.1456" lon="-1.58892">
        <ele>4.2</ele>
        <time>2020-06-12T05:41:54Z</time>
      </trkpt>
      <trkpt lat="49.14566" lon="-1.5889">
        <ele>4.2</ele>
        <time>2020-06-12T05:41:55Z</time>
      </trkpt>
      <trkpt lat="49.14571" lon="-1.58888">
        <ele>4.2</ele>
        <time>2020-06-12T05:41:56Z</time>
      </trkpt>
      <trkpt lat="49.14576" lon="-1.58887">
        <ele>4.1</ele>
        <time>2020-06-12T05:41:57Z</time>
      </trkpt>
      <trkpt lat="49.14581" lon="-1.58885">
        <ele>4.1</ele>
        <time>2020-06-12T05:41:58Z</time>
      </trkpt>
      <trkpt lat="49.14586" lon="-1.58884">
        <ele>4.1</ele>
        <time>2020-06-12T05:41:59Z</time>
      </trkpt>
      <trkpt lat="49.14591" lon="-1.58882">
        <ele>4.1</ele>
        <time>2020-06-12T05:42:00Z</time>
      </trkpt>
      <trkpt lat="49.14597" lon="-1.5888">
        <ele>4</ele>
        <time>2020-06-12T05:42:01Z</time>
      </trkpt>
      <trkpt lat="49.14603" lon="-1.58879">
        <ele>4</ele>
        <time>2020-06-12T05:42:02Z</time>
      </trkpt>
      <trkpt lat="49.14609" lon="-1.58878">
        <ele>4</ele>
        <time>2020-06-12T05:42:03Z</time>
      </trkpt>
      <trkpt lat="49.14615" lon="-1.58876">
        <ele>4</ele>
        <time>2020-06-12T05:42:04Z</time>
      </trkpt>
      <trkpt lat="49.14621" lon="-1.58874">
        <ele>4</ele>
        <time>2020-06-12T05:42:05Z</time>
      </trkpt>
      <trkpt lat="49.14627" lon="-1.58872">
        <ele>4</ele>
        <time>2020-06-12T05:42:06Z</time>
      </trkpt>
      <trkpt lat="49.14633" lon="-1.5887">
        <ele>4</ele>
        <time>2020-06-12T05:42:07Z</time>
      </trkpt>
      <trkpt lat="49.14638" lon="-1.58869">
        <ele>3.9</ele>
        <time>2020-06-12T05:42:08Z</time>
      </trkpt>
      <trkpt lat="49.14644" lon="-1.58868">
        <ele>3.9</ele>
        <time>2020-06-12T05:42:09Z</time>
      </trkpt>
      <trkpt lat="49.14649" lon="-1.58867">
        <ele>3.9</ele>
        <time>2020-06-12T05:42:10Z</time>
      </trkpt>
      <trkpt lat="49.14654" lon="-1.58866">
        <ele>3.9</ele>
        <time>2020-06-12T05:42:11Z</time>
      </trkpt>
      <trkpt lat="49.14659" lon="-1.58864">
        <ele>3.9</ele>
        <time>2020-06-12T05:42:12Z</time>
      </trkpt>
      <trkpt lat="49.14664" lon="-1.58862">
        <ele>3.9</ele>
        <time>2020-06-12T05:42:13Z</time>
      </trkpt>
      <trkpt lat="49.1467" lon="-1.58859">
        <ele>3.9</ele>
        <time>2020-06-12T05:42:14Z</time>
      </trkpt>
      <trkpt lat="49.14675" lon="-1.58858">
        <ele>3.9</ele>
        <time>2020-06-12T05:42:15Z</time>
      </trkpt>
      <trkpt lat="49.14681" lon="-1.58857">
        <ele>4</ele>
        <time>2020-06-12T05:42:16Z</time>
      </trkpt>
      <trkpt lat="49.14685" lon="-1.58856">
        <ele>4</ele>
        <time>2020-06-12T05:42:17Z</time>
      </trkpt>
      <trkpt lat="49.14691" lon="-1.58855">
        <ele>4</ele>
        <time>2020-06-12T05:42:18Z</time>
      </trkpt>
      <trkpt lat="49.14695" lon="-1.58853">
        <ele>4</ele>
        <time>2020-06-12T05:42:19Z</time>
      </trkpt>
      <trkpt lat="49.147" lon="-1.58852">
        <ele>4</ele>
        <time>2020-06-12T05:42:20Z</time>
      </trkpt>
      <trkpt lat="49.14705" lon="-1.58851">
        <ele>4</ele>
        <time>2020-06-12T05:42:21Z</time>
      </trkpt>
      <trkpt lat="49.1471" lon="-1.58849">
        <ele>4</ele>
        <time>2020-06-12T05:42:22Z</time>
      </trkpt>
      <trkpt lat="49.14716" lon="-1.58848">
        <ele>4</ele>
        <time>2020-06-12T05:42:23Z</time>
      </trkpt>
      <trkpt lat="49.14721" lon="-1.58847">
        <ele>4</ele>
        <time>2020-06-12T05:42:24Z</time>
      </trkpt>
      <trkpt lat="49.14727" lon="-1.58845">
        <ele>4</ele>
        <time>2020-06-12T05:42:25Z</time>
      </trkpt>
      <trkpt lat="49.14732" lon="-1.58843">
        <ele>4</ele>
        <time>2020-06-12T05:42:26Z</time>
      </trkpt>
      <trkpt lat="49.14737" lon="-1.58842">
        <ele>4.1</ele>
        <time>2020-06-12T05:42:27Z</time>
      </trkpt>
      <trkpt lat="49.14743" lon="-1.58841">
        <ele>4.1</ele>
        <time>2020-06-12T05:42:28Z</time>
      </trkpt>
      <trkpt lat="49.14748" lon="-1.58839">
        <ele>4.1</ele>
        <time>2020-06-12T05:42:29Z</time>
      </trkpt>
      <trkpt lat="49.14753" lon="-1.58838">
        <ele>4.1</ele>
        <time>2020-06-12T05:42:30Z</time>
      </trkpt>
      <trkpt lat="49.14758" lon="-1.58836">
        <ele>4.1</ele>
        <time>2020-06-12T05:42:31Z</time>
      </trkpt>
      <trkpt lat="49.14764" lon="-1.58834">
        <ele>4.1</ele>
        <time>2020-06-12T05:42:32Z</time>
      </trkpt>
      <trkpt lat="49.14769" lon="-1.58832">
        <ele>4.1</ele>
        <time>2020-06-12T05:42:33Z</time>
      </trkpt>
      <trkpt lat="49.14774" lon="-1.5883">
        <ele>4.1</ele>
        <time>2020-06-12T05:42:34Z</time>
      </trkpt>
      <trkpt lat="49.14779" lon="-1.58828">
        <ele>4.1</ele>
        <time>2020-06-12T05:42:35Z</time>
      </trkpt>
      <trkpt lat="49.14785" lon="-1.58826">
        <ele>4.1</ele>
        <time>2020-06-12T05:42:36Z</time>
      </trkpt>
      <trkpt lat="49.1479" lon="-1.58825">
        <ele>4.1</ele>
        <time>2020-06-12T05:42:37Z</time>
      </trkpt>
      <trkpt lat="49.14795" lon="-1.58823">
        <ele>4.1</ele>
        <time>2020-06-12T05:42:38Z</time>
      </trkpt>
      <trkpt lat="49.14801" lon="-1.58821">
        <ele>4.1</ele>
        <time>2020-06-12T05:42:39Z</time>
      </trkpt>
      <trkpt lat="49.14807" lon="-1.58819">
        <ele>4.1</ele>
        <time>2020-06-12T05:42:40Z</time>
      </trkpt>
      <trkpt lat="49.14813" lon="-1.58818">
        <ele>4.1</ele>
        <time>2020-06-12T05:42:41Z</time>
      </trkpt>
      <trkpt lat="49.14818" lon="-1.58816">
        <ele>4.1</ele>
        <time>2020-06-12T05:42:42Z</time>
      </trkpt>
      <trkpt lat="49.14824" lon="-1.58815">
        <ele>4</ele>
        <time>2020-06-12T05:42:43Z</time>
      </trkpt>
      <trkpt lat="49.14829" lon="-1.58813">
        <ele>4</ele>
        <time>2020-06-12T05:42:44Z</time>
      </trkpt>
      <trkpt lat="49.14834" lon="-1.58811">
        <ele>4</ele>
        <time>2020-06-12T05:42:45Z</time>
      </trkpt>
      <trkpt lat="49.1484" lon="-1.58809">
        <ele>4</ele>
        <time>2020-06-12T05:42:46Z</time>
      </trkpt>
      <trkpt lat="49.14845" lon="-1.58807">
        <ele>4.1</ele>
        <time>2020-06-12T05:42:47Z</time>
      </trkpt>
      <trkpt lat="49.1485" lon="-1.58806">
        <ele>4.1</ele>
        <time>2020-06-12T05:42:48Z</time>
      </trkpt>
      <trkpt lat="49.14855" lon="-1.58804">
        <ele>4.1</ele>
        <time>2020-06-12T05:42:49Z</time>
      </trkpt>
      <trkpt lat="49.14861" lon="-1.58802">
        <ele>4.1</ele>
        <time>2020-06-12T05:42:50Z</time>
      </trkpt>
      <trkpt lat="49.14867" lon="-1.58801">
        <ele>4.1</ele>
        <time>2020-06-12T05:42:51Z</time>
      </trkpt>
      <trkpt lat="49.14872" lon="-1.58799">
        <ele>4.1</ele>
        <time>2020-06-12T05:42:52Z</time>
      </trkpt>
      <trkpt lat="49.14878" lon="-1.58797">
        <ele>4.1</ele>
        <time>2020-06-12T05:42:53Z</time>
      </trkpt>
      <trkpt lat="49.14883" lon="-1.58796">
        <ele>4.1</ele>
        <time>2020-06-12T05:42:54Z</time>
      </trkpt>
      <trkpt lat="49.14888" lon="-1.58795">
        <ele>4.1</ele>
        <time>2020-06-12T05:42:55Z</time>
      </trkpt>
      <trkpt lat="49.14893" lon="-1.58794">
        <ele>4.1</ele>
        <time>2020-06-12T05:42:56Z</time>
      </trkpt>
      <trkpt lat="49.14899" lon="-1.58792">
        <ele>4.2</ele>
        <time>2020-06-12T05:42:57Z</time>
      </trkpt>
      <trkpt lat="49.14905" lon="-1.58791">
        <ele>4.2</ele>
        <time>2020-06-12T05:42:58Z</time>
      </trkpt>
      <trkpt lat="49.1491" lon="-1.58789">
        <ele>4.2</ele>
        <time>2020-06-12T05:42:59Z</time>
      </trkpt>
      <trkpt lat="49.14915" lon="-1.58787">
        <ele>4.2</ele>
        <time>2020-06-12T05:43:00Z</time>
      </trkpt>
      <trkpt lat="49.1492" lon="-1.58785">
        <ele>4.2</ele>
        <time>2020-06-12T05:43:01Z</time>
      </trkpt>
      <trkpt lat="49.14925" lon="-1.58784">
        <ele>4.1</ele>
        <time>2020-06-12T05:43:02Z</time>
      </trkpt>
      <trkpt lat="49.14931" lon="-1.58783">
        <ele>4.1</ele>
        <time>2020-06-12T05:43:03Z</time>
      </trkpt>
      <trkpt lat="49.14936" lon="-1.58782">
        <ele>4.1</ele>
        <time>2020-06-12T05:43:04Z</time>
      </trkpt>
      <trkpt lat="49.14941" lon="-1.5878">
        <ele>4.1</ele>
        <time>2020-06-12T05:43:05Z</time>
      </trkpt>
      <trkpt lat="49.14947" lon="-1.58778">
        <ele>4.2</ele>
        <time>2020-06-12T05:43:06Z</time>
      </trkpt>
      <trkpt lat="49.14952" lon="-1.58776">
        <ele>4.2</ele>
        <time>2020-06-12T05:43:07Z</time>
      </trkpt>
      <trkpt lat="49.14958" lon="-1.58775">
        <ele>4.2</ele>
        <time>2020-06-12T05:43:08Z</time>
      </trkpt>
      <trkpt lat="49.14964" lon="-1.58775">
        <ele>4.2</ele>
        <time>2020-06-12T05:43:09Z</time>
      </trkpt>
      <trkpt lat="49.1497" lon="-1.58774">
        <ele>4.2</ele>
        <time>2020-06-12T05:43:10Z</time>
      </trkpt>
      <trkpt lat="49.14976" lon="-1.58772">
        <ele>4.2</ele>
        <time>2020-06-12T05:43:11Z</time>
      </trkpt>
      <trkpt lat="49.14981" lon="-1.58771">
        <ele>4.2</ele>
        <time>2020-06-12T05:43:12Z</time>
      </trkpt>
      <trkpt lat="49.14986" lon="-1.5877">
        <ele>4.2</ele>
        <time>2020-06-12T05:43:13Z</time>
      </trkpt>
      <trkpt lat="49.14992" lon="-1.58769">
        <ele>4.2</ele>
        <time>2020-06-12T05:43:14Z</time>
      </trkpt>
      <trkpt lat="49.14998" lon="-1.58768">
        <ele>4.2</ele>
        <time>2020-06-12T05:43:15Z</time>
      </trkpt>
      <trkpt lat="49.15003" lon="-1.58767">
        <ele>4.2</ele>
        <time>2020-06-12T05:43:16Z</time>
      </trkpt>
      <trkpt lat="49.15009" lon="-1.58765">
        <ele>4.3</ele>
        <time>2020-06-12T05:43:17Z</time>
      </trkpt>
      <trkpt lat="49.15014" lon="-1.58764">
        <ele>4.3</ele>
        <time>2020-06-12T05:43:18Z</time>
      </trkpt>
      <trkpt lat="49.1502" lon="-1.58762">
        <ele>4.4</ele>
        <time>2020-06-12T05:43:19Z</time>
      </trkpt>
      <trkpt lat="49.15025" lon="-1.58759">
        <ele>4.4</ele>
        <time>2020-06-12T05:43:20Z</time>
      </trkpt>
      <trkpt lat="49.15031" lon="-1.58758">
        <ele>4.4</ele>
        <time>2020-06-12T05:43:21Z</time>
      </trkpt>
      <trkpt lat="49.15036" lon="-1.58756">
        <ele>4.5</ele>
        <time>2020-06-12T05:43:22Z</time>
      </trkpt>
      <trkpt lat="49.1504" lon="-1.58754">
        <ele>4.5</ele>
        <time>2020-06-12T05:43:23Z</time>
      </trkpt>
      <trkpt lat="49.15045" lon="-1.58753">
        <ele>4.5</ele>
        <time>2020-06-12T05:43:24Z</time>
      </trkpt>
      <trkpt lat="49.15049" lon="-1.58752">
        <ele>4.5</ele>
        <time>2020-06-12T05:43:25Z</time>
      </trkpt>
      <trkpt lat="49.15054" lon="-1.5875">
        <ele>4.5</ele>
        <time>2020-06-12T05:43:26Z</time>
      </trkpt>
      <trkpt lat="49.15059" lon="-1.58749">
        <ele>4.5</ele>
        <time>2020-06-12T05:43:27Z</time>
      </trkpt>
      <trkpt lat="49.15065" lon="-1.58748">
        <ele>4.5</ele>
        <time>2020-06-12T05:43:28Z</time>
      </trkpt>
      <trkpt lat="49.1507" lon="-1.58746">
        <ele>4.5</ele>
        <time>2020-06-12T05:43:29Z</time>
      </trkpt>
      <trkpt lat="49.15076" lon="-1.58744">
        <ele>4.5</ele>
        <time>2020-06-12T05:43:30Z</time>
      </trkpt>
      <trkpt lat="49.15081" lon="-1.58742">
        <ele>4.5</ele>
        <time>2020-06-12T05:43:31Z</time>
      </trkpt>
      <trkpt lat="49.15086" lon="-1.58742">
        <ele>4.5</ele>
        <time>2020-06-12T05:43:32Z</time>
      </trkpt>
      <trkpt lat="49.1509" lon="-1.58741">
        <ele>4.5</ele>
        <time>2020-06-12T05:43:33Z</time>
      </trkpt>
      <trkpt lat="49.15095" lon="-1.58741">
        <ele>4.5</ele>
        <time>2020-06-12T05:43:34Z</time>
      </trkpt>
      <trkpt lat="49.151" lon="-1.5874">
        <ele>4.5</ele>
        <time>2020-06-12T05:43:35Z</time>
      </trkpt>
      <trkpt lat="49.15105" lon="-1.58739">
        <ele>4.6</ele>
        <time>2020-06-12T05:43:36Z</time>
      </trkpt>
      <trkpt lat="49.1511" lon="-1.58739">
        <ele>4.6</ele>
        <time>2020-06-12T05:43:37Z</time>
      </trkpt>
      <trkpt lat="49.15115" lon="-1.58737">
        <ele>4.6</ele>
        <time>2020-06-12T05:43:38Z</time>
      </trkpt>
      <trkpt lat="49.15119" lon="-1.58736">
        <ele>4.6</ele>
        <time>2020-06-12T05:43:39Z</time>
      </trkpt>
      <trkpt lat="49.15125" lon="-1.58735">
        <ele>4.6</ele>
        <time>2020-06-12T05:43:40Z</time>
      </trkpt>
      <trkpt lat="49.1513" lon="-1.58735">
        <ele>4.6</ele>
        <time>2020-06-12T05:43:41Z</time>
      </trkpt>
      <trkpt lat="49.15136" lon="-1.58735">
        <ele>4.6</ele>
        <time>2020-06-12T05:43:42Z</time>
      </trkpt>
      <trkpt lat="49.15141" lon="-1.58735">
        <ele>4.6</ele>
        <time>2020-06-12T05:43:43Z</time>
      </trkpt>
      <trkpt lat="49.15146" lon="-1.58734">
        <ele>4.7</ele>
        <time>2020-06-12T05:43:44Z</time>
      </trkpt>
      <trkpt lat="49.15151" lon="-1.58733">
        <ele>4.7</ele>
        <time>2020-06-12T05:43:45Z</time>
      </trkpt>
      <trkpt lat="49.15157" lon="-1.58734">
        <ele>4.7</ele>
        <time>2020-06-12T05:43:46Z</time>
      </trkpt>
      <trkpt lat="49.15162" lon="-1.58734">
        <ele>4.7</ele>
        <time>2020-06-12T05:43:47Z</time>
      </trkpt>
      <trkpt lat="49.15167" lon="-1.58733">
        <ele>4.7</ele>
        <time>2020-06-12T05:43:48Z</time>
      </trkpt>
      <trkpt lat="49.15172" lon="-1.58732">
        <ele>4.8</ele>
        <time>2020-06-12T05:43:49Z</time>
      </trkpt>
      <trkpt lat="49.15178" lon="-1.58732">
        <ele>4.8</ele>
        <time>2020-06-12T05:43:50Z</time>
      </trkpt>
      <trkpt lat="49.15184" lon="-1.58732">
        <ele>4.9</ele>
        <time>2020-06-12T05:43:51Z</time>
      </trkpt>
      <trkpt lat="49.1519" lon="-1.58733">
        <ele>5</ele>
        <time>2020-06-12T05:43:52Z</time>
      </trkpt>
      <trkpt lat="49.15196" lon="-1.58735">
        <ele>5.1</ele>
        <time>2020-06-12T05:43:53Z</time>
      </trkpt>
      <trkpt lat="49.15201" lon="-1.58736">
        <ele>5.2</ele>
        <time>2020-06-12T05:43:54Z</time>
      </trkpt>
      <trkpt lat="49.15207" lon="-1.58735">
        <ele>5.4</ele>
        <time>2020-06-12T05:43:55Z</time>
      </trkpt>
      <trkpt lat="49.15213" lon="-1.58736">
        <ele>5.5</ele>
        <time>2020-06-12T05:43:56Z</time>
      </trkpt>
      <trkpt lat="49.15218" lon="-1.58736">
        <ele>5.6</ele>
        <time>2020-06-12T05:43:57Z</time>
      </trkpt>
      <trkpt lat="49.15224" lon="-1.58737">
        <ele>5.6</ele>
        <time>2020-06-12T05:43:58Z</time>
      </trkpt>
      <trkpt lat="49.15229" lon="-1.58739">
        <ele>5.6</ele>
        <time>2020-06-12T05:43:59Z</time>
      </trkpt>
      <trkpt lat="49.15234" lon="-1.5874">
        <ele>5.6</ele>
        <time>2020-06-12T05:44:00Z</time>
      </trkpt>
      <trkpt lat="49.1524" lon="-1.58741">
        <ele>5.6</ele>
        <time>2020-06-12T05:44:01Z</time>
      </trkpt>
      <trkpt lat="49.15245" lon="-1.58743">
        <ele>5.6</ele>
        <time>2020-06-12T05:44:02Z</time>
      </trkpt>
      <trkpt lat="49.15251" lon="-1.58744">
        <ele>5.6</ele>
        <time>2020-06-12T05:44:03Z</time>
      </trkpt>
      <trkpt lat="49.15257" lon="-1.58744">
        <ele>5.6</ele>
        <time>2020-06-12T05:44:04Z</time>
      </trkpt>
      <trkpt lat="49.15263" lon="-1.58745">
        <ele>5.6</ele>
        <time>2020-06-12T05:44:05Z</time>
      </trkpt>
      <trkpt lat="49.15269" lon="-1.58747">
        <ele>5.6</ele>
        <time>2020-06-12T05:44:06Z</time>
      </trkpt>
      <trkpt lat="49.15274" lon="-1.58746">
        <ele>5.6</ele>
        <time>2020-06-12T05:44:07Z</time>
      </trkpt>
      <trkpt lat="49.1528" lon="-1.58749">
        <ele>5.6</ele>
        <time>2020-06-12T05:44:08Z</time>
      </trkpt>
      <trkpt lat="49.15285" lon="-1.5875">
        <ele>5.7</ele>
        <time>2020-06-12T05:44:09Z</time>
      </trkpt>
      <trkpt lat="49.15291" lon="-1.58749">
        <ele>5.7</ele>
        <time>2020-06-12T05:44:10Z</time>
      </trkpt>
      <trkpt lat="49.15296" lon="-1.58751">
        <ele>5.7</ele>
        <time>2020-06-12T05:44:11Z</time>
      </trkpt>
      <trkpt lat="49.15301" lon="-1.58753">
        <ele>5.7</ele>
        <time>2020-06-12T05:44:12Z</time>
      </trkpt>
      <trkpt lat="49.15307" lon="-1.58754">
        <ele>5.8</ele>
        <time>2020-06-12T05:44:13Z</time>
      </trkpt>
      <trkpt lat="49.15312" lon="-1.58756">
        <ele>5.8</ele>
        <time>2020-06-12T05:44:14Z</time>
      </trkpt>
      <trkpt lat="49.15317" lon="-1.58757">
        <ele>5.8</ele>
        <time>2020-06-12T05:44:15Z</time>
      </trkpt>
      <trkpt lat="49.15323" lon="-1.58759">
        <ele>5.8</ele>
        <time>2020-06-12T05:44:16Z</time>
      </trkpt>
      <trkpt lat="49.15329" lon="-1.58759">
        <ele>5.8</ele>
        <time>2020-06-12T05:44:17Z</time>
      </trkpt>
      <trkpt lat="49.15334" lon="-1.58761">
        <ele>5.8</ele>
        <time>2020-06-12T05:44:18Z</time>
      </trkpt>
      <trkpt lat="49.1534" lon="-1.58762">
        <ele>5.8</ele>
        <time>2020-06-12T05:44:19Z</time>
      </trkpt>
      <trkpt lat="49.15346" lon="-1.58763">
        <ele>5.8</ele>
        <time>2020-06-12T05:44:20Z</time>
      </trkpt>
      <trkpt lat="49.15352" lon="-1.58765">
        <ele>5.8</ele>
        <time>2020-06-12T05:44:21Z</time>
      </trkpt>
      <trkpt lat="49.15357" lon="-1.58766">
        <ele>5.8</ele>
        <time>2020-06-12T05:44:22Z</time>
      </trkpt>
      <trkpt lat="49.15363" lon="-1.58768">
        <ele>5.9</ele>
        <time>2020-06-12T05:44:23Z</time>
      </trkpt>
      <trkpt lat="49.15369" lon="-1.58769">
        <ele>5.9</ele>
        <time>2020-06-12T05:44:24Z</time>
      </trkpt>
      <trkpt lat="49.15375" lon="-1.58771">
        <ele>6</ele>
        <time>2020-06-12T05:44:25Z</time>
      </trkpt>
      <trkpt lat="49.1538" lon="-1.58772">
        <ele>6</ele>
        <time>2020-06-12T05:44:26Z</time>
      </trkpt>
      <trkpt lat="49.15385" lon="-1.58774">
        <ele>6</ele>
        <time>2020-06-12T05:44:27Z</time>
      </trkpt>
      <trkpt lat="49.15391" lon="-1.58775">
        <ele>6</ele>
        <time>2020-06-12T05:44:28Z</time>
      </trkpt>
      <trkpt lat="49.15396" lon="-1.58777">
        <ele>6</ele>
        <time>2020-06-12T05:44:29Z</time>
      </trkpt>
      <trkpt lat="49.154" lon="-1.58777">
        <ele>6</ele>
        <time>2020-06-12T05:44:30Z</time>
      </trkpt>
      <trkpt lat="49.15405" lon="-1.58779">
        <ele>6</ele>
        <time>2020-06-12T05:44:31Z</time>
      </trkpt>
      <trkpt lat="49.15411" lon="-1.58781">
        <ele>6</ele>
        <time>2020-06-12T05:44:32Z</time>
      </trkpt>
      <trkpt lat="49.15416" lon="-1.58783">
        <ele>6</ele>
        <time>2020-06-12T05:44:33Z</time>
      </trkpt>
      <trkpt lat="49.15421" lon="-1.58784">
        <ele>6</ele>
        <time>2020-06-12T05:44:34Z</time>
      </trkpt>
      <trkpt lat="49.15427" lon="-1.58786">
        <ele>6</ele>
        <time>2020-06-12T05:44:35Z</time>
      </trkpt>
      <trkpt lat="49.15432" lon="-1.5879">
        <ele>6</ele>
        <time>2020-06-12T05:44:36Z</time>
      </trkpt>
      <trkpt lat="49.15437" lon="-1.58791">
        <ele>6.1</ele>
        <time>2020-06-12T05:44:37Z</time>
      </trkpt>
      <trkpt lat="49.15443" lon="-1.58791">
        <ele>6.1</ele>
        <time>2020-06-12T05:44:38Z</time>
      </trkpt>
      <trkpt lat="49.15448" lon="-1.58793">
        <ele>6.1</ele>
        <time>2020-06-12T05:44:39Z</time>
      </trkpt>
      <trkpt lat="49.15453" lon="-1.58795">
        <ele>6.1</ele>
        <time>2020-06-12T05:44:40Z</time>
      </trkpt>
      <trkpt lat="49.15457" lon="-1.58797">
        <ele>6.2</ele>
        <time>2020-06-12T05:44:41Z</time>
      </trkpt>
      <trkpt lat="49.15463" lon="-1.58799">
        <ele>6.2</ele>
        <time>2020-06-12T05:44:42Z</time>
      </trkpt>
      <trkpt lat="49.15469" lon="-1.588">
        <ele>6.2</ele>
        <time>2020-06-12T05:44:43Z</time>
      </trkpt>
      <trkpt lat="49.15475" lon="-1.58801">
        <ele>6.2</ele>
        <time>2020-06-12T05:44:44Z</time>
      </trkpt>
      <trkpt lat="49.1548" lon="-1.58802">
        <ele>6.2</ele>
        <time>2020-06-12T05:44:45Z</time>
      </trkpt>
      <trkpt lat="49.15485" lon="-1.58804">
        <ele>6.2</ele>
        <time>2020-06-12T05:44:46Z</time>
      </trkpt>
      <trkpt lat="49.15491" lon="-1.58805">
        <ele>6.3</ele>
        <time>2020-06-12T05:44:47Z</time>
      </trkpt>
      <trkpt lat="49.15496" lon="-1.58806">
        <ele>6.3</ele>
        <time>2020-06-12T05:44:48Z</time>
      </trkpt>
      <trkpt lat="49.15501" lon="-1.58807">
        <ele>6.3</ele>
        <time>2020-06-12T05:44:49Z</time>
      </trkpt>
      <trkpt lat="49.15507" lon="-1.58808">
        <ele>6.3</ele>
        <time>2020-06-12T05:44:50Z</time>
      </trkpt>
      <trkpt lat="49.15512" lon="-1.5881">
        <ele>6.3</ele>
        <time>2020-06-12T05:44:51Z</time>
      </trkpt>
      <trkpt lat="49.15517" lon="-1.58812">
        <ele>6.3</ele>
        <time>2020-06-12T05:44:52Z</time>
      </trkpt>
      <trkpt lat="49.15522" lon="-1.58814">
        <ele>6.3</ele>
        <time>2020-06-12T05:44:53Z</time>
      </trkpt>
      <trkpt lat="49.15527" lon="-1.58815">
        <ele>6.4</ele>
        <time>2020-06-12T05:44:54Z</time>
      </trkpt>
      <trkpt lat="49.15532" lon="-1.58817">
        <ele>6.4</ele>
        <time>2020-06-12T05:44:55Z</time>
      </trkpt>
      <trkpt lat="49.15538" lon="-1.58817">
        <ele>6.4</ele>
        <time>2020-06-12T05:44:56Z</time>
      </trkpt>
      <trkpt lat="49.15544" lon="-1.58818">
        <ele>6.4</ele>
        <time>2020-06-12T05:44:57Z</time>
      </trkpt>
      <trkpt lat="49.15551" lon="-1.58819">
        <ele>6.5</ele>
        <time>2020-06-12T05:44:58Z</time>
      </trkpt>
      <trkpt lat="49.15556" lon="-1.58821">
        <ele>6.5</ele>
        <time>2020-06-12T05:44:59Z</time>
      </trkpt>
      <trkpt lat="49.15561" lon="-1.58823">
        <ele>6.6</ele>
        <time>2020-06-12T05:45:00Z</time>
      </trkpt>
      <trkpt lat="49.15566" lon="-1.58824">
        <ele>6.6</ele>
        <time>2020-06-12T05:45:01Z</time>
      </trkpt>
      <trkpt lat="49.1557" lon="-1.58826">
        <ele>6.7</ele>
        <time>2020-06-12T05:45:02Z</time>
      </trkpt>
      <trkpt lat="49.15576" lon="-1.58827">
        <ele>6.7</ele>
        <time>2020-06-12T05:45:03Z</time>
      </trkpt>
      <trkpt lat="49.15582" lon="-1.58828">
        <ele>6.8</ele>
        <time>2020-06-12T05:45:04Z</time>
      </trkpt>
      <trkpt lat="49.15587" lon="-1.5883">
        <ele>6.8</ele>
        <time>2020-06-12T05:45:05Z</time>
      </trkpt>
      <trkpt lat="49.15592" lon="-1.58831">
        <ele>6.8</ele>
        <time>2020-06-12T05:45:06Z</time>
      </trkpt>
      <trkpt lat="49.15597" lon="-1.58831">
        <ele>6.8</ele>
        <time>2020-06-12T05:45:07Z</time>
      </trkpt>
      <trkpt lat="49.15603" lon="-1.58832">
        <ele>6.8</ele>
        <time>2020-06-12T05:45:08Z</time>
      </trkpt>
      <trkpt lat="49.15608" lon="-1.58833">
        <ele>6.8</ele>
        <time>2020-06-12T05:45:09Z</time>
      </trkpt>
      <trkpt lat="49.15614" lon="-1.58834">
        <ele>6.8</ele>
        <time>2020-06-12T05:45:10Z</time>
      </trkpt>
      <trkpt lat="49.1562" lon="-1.58835">
        <ele>6.8</ele>
        <time>2020-06-12T05:45:11Z</time>
      </trkpt>
      <trkpt lat="49.15626" lon="-1.58836">
        <ele>6.8</ele>
        <time>2020-06-12T05:45:12Z</time>
      </trkpt>
      <trkpt lat="49.1563" lon="-1.58838">
        <ele>6.8</ele>
        <time>2020-06-12T05:45:13Z</time>
      </trkpt>
      <trkpt lat="49.15635" lon="-1.5884">
        <ele>6.8</ele>
        <time>2020-06-12T05:45:14Z</time>
      </trkpt>
      <trkpt lat="49.15641" lon="-1.58841">
        <ele>6.9</ele>
        <time>2020-06-12T05:45:15Z</time>
      </trkpt>
      <trkpt lat="49.15646" lon="-1.58842">
        <ele>6.9</ele>
        <time>2020-06-12T05:45:16Z</time>
      </trkpt>
      <trkpt lat="49.15651" lon="-1.58844">
        <ele>6.9</ele>
        <time>2020-06-12T05:45:17Z</time>
      </trkpt>
      <trkpt lat="49.15656" lon="-1.58845">
        <ele>6.9</ele>
        <time>2020-06-12T05:45:18Z</time>
      </trkpt>
      <trkpt lat="49.15661" lon="-1.58845">
        <ele>7</ele>
        <time>2020-06-12T05:45:19Z</time>
      </trkpt>
      <trkpt lat="49.15666" lon="-1.58846">
        <ele>7.1</ele>
        <time>2020-06-12T05:45:20Z</time>
      </trkpt>
      <trkpt lat="49.15671" lon="-1.58847">
        <ele>7.1</ele>
        <time>2020-06-12T05:45:21Z</time>
      </trkpt>
      <trkpt lat="49.15676" lon="-1.58848">
        <ele>7.2</ele>
        <time>2020-06-12T05:45:22Z</time>
      </trkpt>
      <trkpt lat="49.15682" lon="-1.58849">
        <ele>7.3</ele>
        <time>2020-06-12T05:45:23Z</time>
      </trkpt>
      <trkpt lat="49.15687" lon="-1.58851">
        <ele>7.4</ele>
        <time>2020-06-12T05:45:24Z</time>
      </trkpt>
      <trkpt lat="49.15693" lon="-1.58851">
        <ele>7.4</ele>
        <time>2020-06-12T05:45:25Z</time>
      </trkpt>
      <trkpt lat="49.15699" lon="-1.58852">
        <ele>7.5</ele>
        <time>2020-06-12T05:45:26Z</time>
      </trkpt>
      <trkpt lat="49.15703" lon="-1.58853">
        <ele>7.5</ele>
        <time>2020-06-12T05:45:27Z</time>
      </trkpt>
      <trkpt lat="49.15708" lon="-1.58853">
        <ele>7.5</ele>
        <time>2020-06-12T05:45:28Z</time>
      </trkpt>
      <trkpt lat="49.15713" lon="-1.58854">
        <ele>7.5</ele>
        <time>2020-06-12T05:45:29Z</time>
      </trkpt>
      <trkpt lat="49.15719" lon="-1.58854">
        <ele>7.6</ele>
        <time>2020-06-12T05:45:30Z</time>
      </trkpt>
      <trkpt lat="49.15724" lon="-1.58855">
        <ele>7.6</ele>
        <time>2020-06-12T05:45:31Z</time>
      </trkpt>
      <trkpt lat="49.15729" lon="-1.58856">
        <ele>7.6</ele>
        <time>2020-06-12T05:45:32Z</time>
      </trkpt>
      <trkpt lat="49.15735" lon="-1.58856">
        <ele>7.6</ele>
        <time>2020-06-12T05:45:33Z</time>
      </trkpt>
      <trkpt lat="49.15741" lon="-1.58857">
        <ele>7.6</ele>
        <time>2020-06-12T05:45:34Z</time>
      </trkpt>
      <trkpt lat="49.15747" lon="-1.58857">
        <ele>7.6</ele>
        <time>2020-06-12T05:45:35Z</time>
      </trkpt>
      <trkpt lat="49.15752" lon="-1.58857">
        <ele>7.6</ele>
        <time>2020-06-12T05:45:36Z</time>
      </trkpt>
      <trkpt lat="49.15758" lon="-1.58858">
        <ele>7.6</ele>
        <time>2020-06-12T05:45:37Z</time>
      </trkpt>
      <trkpt lat="49.15763" lon="-1.58858">
        <ele>7.6</ele>
        <time>2020-06-12T05:45:38Z</time>
      </trkpt>
      <trkpt lat="49.15769" lon="-1.58859">
        <ele>7.7</ele>
        <time>2020-06-12T05:45:39Z</time>
      </trkpt>
      <trkpt lat="49.15774" lon="-1.5886">
        <ele>7.7</ele>
        <time>2020-06-12T05:45:40Z</time>
      </trkpt>
      <trkpt lat="49.1578" lon="-1.58861">
        <ele>7.7</ele>
        <time>2020-06-12T05:45:41Z</time>
      </trkpt>
      <trkpt lat="49.15785" lon="-1.58861">
        <ele>7.7</ele>
        <time>2020-06-12T05:45:42Z</time>
      </trkpt>
      <trkpt lat="49.15791" lon="-1.58862">
        <ele>7.7</ele>
        <time>2020-06-12T05:45:43Z</time>
      </trkpt>
      <trkpt lat="49.15796" lon="-1.58863">
        <ele>7.7</ele>
        <time>2020-06-12T05:45:44Z</time>
      </trkpt>
      <trkpt lat="49.15802" lon="-1.58864">
        <ele>7.7</ele>
        <time>2020-06-12T05:45:45Z</time>
      </trkpt>
      <trkpt lat="49.15807" lon="-1.58865">
        <ele>7.7</ele>
        <time>2020-06-12T05:45:46Z</time>
      </trkpt>
      <trkpt lat="49.15812" lon="-1.58865">
        <ele>7.7</ele>
        <time>2020-06-12T05:45:47Z</time>
      </trkpt>
      <trkpt lat="49.15818" lon="-1.58867">
        <ele>7.7</ele>
        <time>2020-06-12T05:45:48Z</time>
      </trkpt>
      <trkpt lat="49.15825" lon="-1.58868">
        <ele>7.7</ele>
        <time>2020-06-12T05:45:49Z</time>
      </trkpt>
      <trkpt lat="49.1583" lon="-1.58869">
        <ele>7.8</ele>
        <time>2020-06-12T05:45:50Z</time>
      </trkpt>
      <trkpt lat="49.15836" lon="-1.5887">
        <ele>7.8</ele>
        <time>2020-06-12T05:45:51Z</time>
      </trkpt>
      <trkpt lat="49.15841" lon="-1.58871">
        <ele>7.8</ele>
        <time>2020-06-12T05:45:52Z</time>
      </trkpt>
      <trkpt lat="49.15847" lon="-1.58871">
        <ele>7.8</ele>
        <time>2020-06-12T05:45:53Z</time>
      </trkpt>
      <trkpt lat="49.15853" lon="-1.58871">
        <ele>7.9</ele>
        <time>2020-06-12T05:45:54Z</time>
      </trkpt>
      <trkpt lat="49.15858" lon="-1.58871">
        <ele>7.9</ele>
        <time>2020-06-12T05:45:55Z</time>
      </trkpt>
      <trkpt lat="49.15863" lon="-1.58871">
        <ele>7.9</ele>
        <time>2020-06-12T05:45:56Z</time>
      </trkpt>
      <trkpt lat="49.15869" lon="-1.58872">
        <ele>7.9</ele>
        <time>2020-06-12T05:45:57Z</time>
      </trkpt>
      <trkpt lat="49.15874" lon="-1.58874">
        <ele>8</ele>
        <time>2020-06-12T05:45:58Z</time>
      </trkpt>
      <trkpt lat="49.15879" lon="-1.58874">
        <ele>8</ele>
        <time>2020-06-12T05:45:59Z</time>
      </trkpt>
      <trkpt lat="49.15884" lon="-1.58875">
        <ele>8</ele>
        <time>2020-06-12T05:46:00Z</time>
      </trkpt>
      <trkpt lat="49.1589" lon="-1.58876">
        <ele>8</ele>
        <time>2020-06-12T05:46:01Z</time>
      </trkpt>
      <trkpt lat="49.15896" lon="-1.58876">
        <ele>8</ele>
        <time>2020-06-12T05:46:02Z</time>
      </trkpt>
      <trkpt lat="49.15901" lon="-1.58876">
        <ele>8.1</ele>
        <time>2020-06-12T05:46:03Z</time>
      </trkpt>
      <trkpt lat="49.15906" lon="-1.58876">
        <ele>8.1</ele>
        <time>2020-06-12T05:46:04Z</time>
      </trkpt>
      <trkpt lat="49.15911" lon="-1.58876">
        <ele>8.1</ele>
        <time>2020-06-12T05:46:05Z</time>
      </trkpt>
      <trkpt lat="49.15916" lon="-1.58875">
        <ele>8.1</ele>
        <time>2020-06-12T05:46:06Z</time>
      </trkpt>
      <trkpt lat="49.15921" lon="-1.58876">
        <ele>8.1</ele>
        <time>2020-06-12T05:46:07Z</time>
      </trkpt>
      <trkpt lat="49.15927" lon="-1.58876">
        <ele>8.2</ele>
        <time>2020-06-12T05:46:08Z</time>
      </trkpt>
      <trkpt lat="49.15932" lon="-1.58877">
        <ele>8.2</ele>
        <time>2020-06-12T05:46:09Z</time>
      </trkpt>
      <trkpt lat="49.15938" lon="-1.5888">
        <ele>8.2</ele>
        <time>2020-06-12T05:46:10Z</time>
      </trkpt>
      <trkpt lat="49.15943" lon="-1.58881">
        <ele>8.2</ele>
        <time>2020-06-12T05:46:11Z</time>
      </trkpt>
      <trkpt lat="49.15949" lon="-1.58881">
        <ele>8.3</ele>
        <time>2020-06-12T05:46:12Z</time>
      </trkpt>
      <trkpt lat="49.15954" lon="-1.58882">
        <ele>8.3</ele>
        <time>2020-06-12T05:46:13Z</time>
      </trkpt>
      <trkpt lat="49.1596" lon="-1.58883">
        <ele>8.3</ele>
        <time>2020-06-12T05:46:14Z</time>
      </trkpt>
      <trkpt lat="49.15965" lon="-1.58883">
        <ele>8.3</ele>
        <time>2020-06-12T05:46:15Z</time>
      </trkpt>
      <trkpt lat="49.15971" lon="-1.58883">
        <ele>8.3</ele>
        <time>2020-06-12T05:46:16Z</time>
      </trkpt>
      <trkpt lat="49.15977" lon="-1.58881">
        <ele>8.3</ele>
        <time>2020-06-12T05:46:17Z</time>
      </trkpt>
      <trkpt lat="49.15981" lon="-1.58882">
        <ele>8.3</ele>
        <time>2020-06-12T05:46:18Z</time>
      </trkpt>
      <trkpt lat="49.15986" lon="-1.58882">
        <ele>8.3</ele>
        <time>2020-06-12T05:46:19Z</time>
      </trkpt>
      <trkpt lat="49.1599" lon="-1.58883">
        <ele>8.3</ele>
        <time>2020-06-12T05:46:20Z</time>
      </trkpt>
      <trkpt lat="49.15996" lon="-1.58884">
        <ele>8.4</ele>
        <time>2020-06-12T05:46:21Z</time>
      </trkpt>
      <trkpt lat="49.16002" lon="-1.58885">
        <ele>8.4</ele>
        <time>2020-06-12T05:46:22Z</time>
      </trkpt>
      <trkpt lat="49.16007" lon="-1.58886">
        <ele>8.4</ele>
        <time>2020-06-12T05:46:23Z</time>
      </trkpt>
      <trkpt lat="49.16012" lon="-1.58887">
        <ele>8.4</ele>
        <time>2020-06-12T05:46:24Z</time>
      </trkpt>
      <trkpt lat="49.16017" lon="-1.58888">
        <ele>8.4</ele>
        <time>2020-06-12T05:46:25Z</time>
      </trkpt>
      <trkpt lat="49.16022" lon="-1.58889">
        <ele>8.4</ele>
        <time>2020-06-12T05:46:26Z</time>
      </trkpt>
      <trkpt lat="49.16026" lon="-1.5889">
        <ele>8.4</ele>
        <time>2020-06-12T05:46:27Z</time>
      </trkpt>
      <trkpt lat="49.16031" lon="-1.5889">
        <ele>8.4</ele>
        <time>2020-06-12T05:46:28Z</time>
      </trkpt>
      <trkpt lat="49.16036" lon="-1.5889">
        <ele>8.4</ele>
        <time>2020-06-12T05:46:29Z</time>
      </trkpt>
      <trkpt lat="49.16042" lon="-1.5889">
        <ele>8.4</ele>
        <time>2020-06-12T05:46:30Z</time>
      </trkpt>
      <trkpt lat="49.16048" lon="-1.58889">
        <ele>8.4</ele>
        <time>2020-06-12T05:46:31Z</time>
      </trkpt>
      <trkpt lat="49.16053" lon="-1.5889">
        <ele>8.5</ele>
        <time>2020-06-12T05:46:32Z</time>
      </trkpt>
      <trkpt lat="49.16058" lon="-1.5889">
        <ele>8.5</ele>
        <time>2020-06-12T05:46:33Z</time>
      </trkpt>
      <trkpt lat="49.16064" lon="-1.58891">
        <ele>8.5</ele>
        <time>2020-06-12T05:46:34Z</time>
      </trkpt>
      <trkpt lat="49.16069" lon="-1.58893">
        <ele>8.6</ele>
        <time>2020-06-12T05:46:35Z</time>
      </trkpt>
      <trkpt lat="49.16074" lon="-1.58893">
        <ele>8.6</ele>
        <time>2020-06-12T05:46:36Z</time>
      </trkpt>
      <trkpt lat="49.1608" lon="-1.58894">
        <ele>8.6</ele>
        <time>2020-06-12T05:46:37Z</time>
      </trkpt>
      <trkpt lat="49.16085" lon="-1.58894">
        <ele>8.6</ele>
        <time>2020-06-12T05:46:38Z</time>
      </trkpt>
      <trkpt lat="49.16089" lon="-1.58895">
        <ele>8.6</ele>
        <time>2020-06-12T05:46:39Z</time>
      </trkpt>
      <trkpt lat="49.16094" lon="-1.58896">
        <ele>8.6</ele>
        <time>2020-06-12T05:46:40Z</time>
      </trkpt>
      <trkpt lat="49.161" lon="-1.58896">
        <ele>8.6</ele>
        <time>2020-06-12T05:46:41Z</time>
      </trkpt>
      <trkpt lat="49.16106" lon="-1.58896">
        <ele>8.6</ele>
        <time>2020-06-12T05:46:42Z</time>
      </trkpt>
      <trkpt lat="49.16111" lon="-1.58897">
        <ele>8.6</ele>
        <time>2020-06-12T05:46:43Z</time>
      </trkpt>
      <trkpt lat="49.16116" lon="-1.58898">
        <ele>8.6</ele>
        <time>2020-06-12T05:46:44Z</time>
      </trkpt>
      <trkpt lat="49.16122" lon="-1.58898">
        <ele>8.7</ele>
        <time>2020-06-12T05:46:45Z</time>
      </trkpt>
      <trkpt lat="49.16128" lon="-1.58899">
        <ele>8.7</ele>
        <time>2020-06-12T05:46:46Z</time>
      </trkpt>
      <trkpt lat="49.16133" lon="-1.589">
        <ele>8.7</ele>
        <time>2020-06-12T05:46:47Z</time>
      </trkpt>
      <trkpt lat="49.16139" lon="-1.589">
        <ele>8.7</ele>
        <time>2020-06-12T05:46:48Z</time>
      </trkpt>
      <trkpt lat="49.16144" lon="-1.58901">
        <ele>8.7</ele>
        <time>2020-06-12T05:46:49Z</time>
      </trkpt>
      <trkpt lat="49.16149" lon="-1.58902">
        <ele>8.7</ele>
        <time>2020-06-12T05:46:50Z</time>
      </trkpt>
      <trkpt lat="49.16155" lon="-1.58903">
        <ele>8.7</ele>
        <time>2020-06-12T05:46:51Z</time>
      </trkpt>
      <trkpt lat="49.1616" lon="-1.58903">
        <ele>8.8</ele>
        <time>2020-06-12T05:46:52Z</time>
      </trkpt>
      <trkpt lat="49.16166" lon="-1.58904">
        <ele>8.8</ele>
        <time>2020-06-12T05:46:53Z</time>
      </trkpt>
      <trkpt lat="49.16172" lon="-1.58905">
        <ele>8.9</ele>
        <time>2020-06-12T05:46:54Z</time>
      </trkpt>
      <trkpt lat="49.16176" lon="-1.58905">
        <ele>8.9</ele>
        <time>2020-06-12T05:46:55Z</time>
      </trkpt>
      <trkpt lat="49.16181" lon="-1.58905">
        <ele>8.9</ele>
        <time>2020-06-12T05:46:56Z</time>
      </trkpt>
      <trkpt lat="49.16186" lon="-1.58906">
        <ele>9</ele>
        <time>2020-06-12T05:46:57Z</time>
      </trkpt>
      <trkpt lat="49.16191" lon="-1.58906">
        <ele>9</ele>
        <time>2020-06-12T05:46:58Z</time>
      </trkpt>
      <trkpt lat="49.16196" lon="-1.58907">
        <ele>9</ele>
        <time>2020-06-12T05:46:59Z</time>
      </trkpt>
      <trkpt lat="49.16201" lon="-1.58907">
        <ele>9</ele>
        <time>2020-06-12T05:47:00Z</time>
      </trkpt>
      <trkpt lat="49.16207" lon="-1.58907">
        <ele>9</ele>
        <time>2020-06-12T05:47:01Z</time>
      </trkpt>
      <trkpt lat="49.16212" lon="-1.58908">
        <ele>9</ele>
        <time>2020-06-12T05:47:02Z</time>
      </trkpt>
      <trkpt lat="49.16217" lon="-1.58909">
        <ele>9.1</ele>
        <time>2020-06-12T05:47:03Z</time>
      </trkpt>
      <trkpt lat="49.16224" lon="-1.5891">
        <ele>9.1</ele>
        <time>2020-06-12T05:47:04Z</time>
      </trkpt>
      <trkpt lat="49.1623" lon="-1.5891">
        <ele>9.1</ele>
        <time>2020-06-12T05:47:05Z</time>
      </trkpt>
      <trkpt lat="49.16236" lon="-1.5891">
        <ele>9.2</ele>
        <time>2020-06-12T05:47:06Z</time>
      </trkpt>
      <trkpt lat="49.16242" lon="-1.5891">
        <ele>9.2</ele>
        <time>2020-06-12T05:47:07Z</time>
      </trkpt>
      <trkpt lat="49.16247" lon="-1.5891">
        <ele>9.2</ele>
        <time>2020-06-12T05:47:08Z</time>
      </trkpt>
      <trkpt lat="49.16252" lon="-1.58911">
        <ele>9.1</ele>
        <time>2020-06-12T05:47:09Z</time>
      </trkpt>
      <trkpt lat="49.16257" lon="-1.58912">
        <ele>9.1</ele>
        <time>2020-06-12T05:47:10Z</time>
      </trkpt>
      <trkpt lat="49.16262" lon="-1.58912">
        <ele>9.1</ele>
        <time>2020-06-12T05:47:11Z</time>
      </trkpt>
      <trkpt lat="49.16267" lon="-1.58913">
        <ele>9.2</ele>
        <time>2020-06-12T05:47:12Z</time>
      </trkpt>
      <trkpt lat="49.16272" lon="-1.58913">
        <ele>9.2</ele>
        <time>2020-06-12T05:47:13Z</time>
      </trkpt>
      <trkpt lat="49.16278" lon="-1.58914">
        <ele>9.2</ele>
        <time>2020-06-12T05:47:14Z</time>
      </trkpt>
      <trkpt lat="49.16283" lon="-1.58915">
        <ele>9.2</ele>
        <time>2020-06-12T05:47:15Z</time>
      </trkpt>
      <trkpt lat="49.16288" lon="-1.58916">
        <ele>9.2</ele>
        <time>2020-06-12T05:47:16Z</time>
      </trkpt>
      <trkpt lat="49.16293" lon="-1.58916">
        <ele>9.2</ele>
        <time>2020-06-12T05:47:17Z</time>
      </trkpt>
      <trkpt lat="49.16299" lon="-1.58914">
        <ele>9.2</ele>
        <time>2020-06-12T05:47:18Z</time>
      </trkpt>
      <trkpt lat="49.16305" lon="-1.58913">
        <ele>9.2</ele>
        <time>2020-06-12T05:47:19Z</time>
      </trkpt>
      <trkpt lat="49.16311" lon="-1.58914">
        <ele>9.2</ele>
        <time>2020-06-12T05:47:20Z</time>
      </trkpt>
      <trkpt lat="49.16316" lon="-1.58914">
        <ele>9.2</ele>
        <time>2020-06-12T05:47:21Z</time>
      </trkpt>
      <trkpt lat="49.16322" lon="-1.58913">
        <ele>9.2</ele>
        <time>2020-06-12T05:47:22Z</time>
      </trkpt>
      <trkpt lat="49.16328" lon="-1.58913">
        <ele>9.2</ele>
        <time>2020-06-12T05:47:23Z</time>
      </trkpt>
      <trkpt lat="49.16333" lon="-1.58913">
        <ele>9.2</ele>
        <time>2020-06-12T05:47:24Z</time>
      </trkpt>
      <trkpt lat="49.16338" lon="-1.58914">
        <ele>9.2</ele>
        <time>2020-06-12T05:47:25Z</time>
      </trkpt>
      <trkpt lat="49.16343" lon="-1.58914">
        <ele>9.2</ele>
        <time>2020-06-12T05:47:26Z</time>
      </trkpt>
      <trkpt lat="49.16349" lon="-1.58915">
        <ele>9.2</ele>
        <time>2020-06-12T05:47:27Z</time>
      </trkpt>
      <trkpt lat="49.16355" lon="-1.58915">
        <ele>9.2</ele>
        <time>2020-06-12T05:47:28Z</time>
      </trkpt>
      <trkpt lat="49.16361" lon="-1.58914">
        <ele>9.1</ele>
        <time>2020-06-12T05:47:29Z</time>
      </trkpt>
      <trkpt lat="49.16367" lon="-1.58914">
        <ele>9.1</ele>
        <time>2020-06-12T05:47:30Z</time>
      </trkpt>
      <trkpt lat="49.16372" lon="-1.58913">
        <ele>9.1</ele>
        <time>2020-06-12T05:47:31Z</time>
      </trkpt>
      <trkpt lat="49.16378" lon="-1.58912">
        <ele>9</ele>
        <time>2020-06-12T05:47:32Z</time>
      </trkpt>
      <trkpt lat="49.16384" lon="-1.58912">
        <ele>9</ele>
        <time>2020-06-12T05:47:33Z</time>
      </trkpt>
      <trkpt lat="49.1639" lon="-1.58912">
        <ele>9</ele>
        <time>2020-06-12T05:47:34Z</time>
      </trkpt>
      <trkpt lat="49.16395" lon="-1.58911">
        <ele>9</ele>
        <time>2020-06-12T05:47:35Z</time>
      </trkpt>
      <trkpt lat="49.16401" lon="-1.58912">
        <ele>8.9</ele>
        <time>2020-06-12T05:47:36Z</time>
      </trkpt>
      <trkpt lat="49.16406" lon="-1.58911">
        <ele>8.9</ele>
        <time>2020-06-12T05:47:37Z</time>
      </trkpt>
      <trkpt lat="49.16412" lon="-1.58912">
        <ele>8.8</ele>
        <time>2020-06-12T05:47:38Z</time>
      </trkpt>
      <trkpt lat="49.16417" lon="-1.58911">
        <ele>8.8</ele>
        <time>2020-06-12T05:47:39Z</time>
      </trkpt>
      <trkpt lat="49.16424" lon="-1.5891">
        <ele>8.8</ele>
        <time>2020-06-12T05:47:40Z</time>
      </trkpt>
      <trkpt lat="49.1643" lon="-1.58911">
        <ele>8.7</ele>
        <time>2020-06-12T05:47:41Z</time>
      </trkpt>
      <trkpt lat="49.16435" lon="-1.58911">
        <ele>8.7</ele>
        <time>2020-06-12T05:47:42Z</time>
      </trkpt>
      <trkpt lat="49.16441" lon="-1.58909">
        <ele>8.7</ele>
        <time>2020-06-12T05:47:43Z</time>
      </trkpt>
      <trkpt lat="49.16446" lon="-1.5891">
        <ele>8.7</ele>
        <time>2020-06-12T05:47:44Z</time>
      </trkpt>
      <trkpt lat="49.16451" lon="-1.5891">
        <ele>8.7</ele>
        <time>2020-06-12T05:47:45Z</time>
      </trkpt>
      <trkpt lat="49.16455" lon="-1.58909">
        <ele>8.7</ele>
        <time>2020-06-12T05:47:46Z</time>
      </trkpt>
      <trkpt lat="49.1646" lon="-1.58909">
        <ele>8.7</ele>
        <time>2020-06-12T05:47:47Z</time>
      </trkpt>
      <trkpt lat="49.16466" lon="-1.58908">
        <ele>8.7</ele>
        <time>2020-06-12T05:47:48Z</time>
      </trkpt>
      <trkpt lat="49.16471" lon="-1.58907">
        <ele>8.6</ele>
        <time>2020-06-12T05:47:49Z</time>
      </trkpt>
      <trkpt lat="49.16476" lon="-1.58907">
        <ele>8.6</ele>
        <time>2020-06-12T05:47:50Z</time>
      </trkpt>
      <trkpt lat="49.16482" lon="-1.58908">
        <ele>8.5</ele>
        <time>2020-06-12T05:47:51Z</time>
      </trkpt>
      <trkpt lat="49.16488" lon="-1.58909">
        <ele>8.5</ele>
        <time>2020-06-12T05:47:52Z</time>
      </trkpt>
      <trkpt lat="49.16493" lon="-1.58908">
        <ele>8.4</ele>
        <time>2020-06-12T05:47:53Z</time>
      </trkpt>
      <trkpt lat="49.16499" lon="-1.58908">
        <ele>8.4</ele>
        <time>2020-06-12T05:47:54Z</time>
      </trkpt>
      <trkpt lat="49.16504" lon="-1.58907">
        <ele>8.3</ele>
        <time>2020-06-12T05:47:55Z</time>
      </trkpt>
      <trkpt lat="49.1651" lon="-1.58907">
        <ele>8.3</ele>
        <time>2020-06-12T05:47:56Z</time>
      </trkpt>
      <trkpt lat="49.16516" lon="-1.58908">
        <ele>8.3</ele>
        <time>2020-06-12T05:47:57Z</time>
      </trkpt>
      <trkpt lat="49.16522" lon="-1.58907">
        <ele>8.3</ele>
        <time>2020-06-12T05:47:58Z</time>
      </trkpt>
      <trkpt lat="49.16528" lon="-1.58908">
        <ele>8.4</ele>
        <time>2020-06-12T05:47:59Z</time>
      </trkpt>
      <trkpt lat="49.16533" lon="-1.58908">
        <ele>8.4</ele>
        <time>2020-06-12T05:48:00Z</time>
      </trkpt>
      <trkpt lat="49.1654" lon="-1.58907">
        <ele>8.3</ele>
        <time>2020-06-12T05:48:01Z</time>
      </trkpt>
      <trkpt lat="49.16546" lon="-1.58907">
        <ele>8.3</ele>
        <time>2020-06-12T05:48:02Z</time>
      </trkpt>
      <trkpt lat="49.16552" lon="-1.58906">
        <ele>8.2</ele>
        <time>2020-06-12T05:48:03Z</time>
      </trkpt>
      <trkpt lat="49.16557" lon="-1.58905">
        <ele>8.2</ele>
        <time>2020-06-12T05:48:04Z</time>
      </trkpt>
      <trkpt lat="49.16563" lon="-1.58905">
        <ele>8.1</ele>
        <time>2020-06-12T05:48:05Z</time>
      </trkpt>
      <trkpt lat="49.16568" lon="-1.58906">
        <ele>8.1</ele>
        <time>2020-06-12T05:48:06Z</time>
      </trkpt>
      <trkpt lat="49.16574" lon="-1.58907">
        <ele>8.1</ele>
        <time>2020-06-12T05:48:07Z</time>
      </trkpt>
      <trkpt lat="49.1658" lon="-1.58906">
        <ele>8</ele>
        <time>2020-06-12T05:48:08Z</time>
      </trkpt>
      <trkpt lat="49.16585" lon="-1.58906">
        <ele>8</ele>
        <time>2020-06-12T05:48:09Z</time>
      </trkpt>
      <trkpt lat="49.1659" lon="-1.58906">
        <ele>8</ele>
        <time>2020-06-12T05:48:10Z</time>
      </trkpt>
      <trkpt lat="49.16596" lon="-1.58907">
        <ele>8</ele>
        <time>2020-06-12T05:48:11Z</time>
      </trkpt>
      <trkpt lat="49.16602" lon="-1.58907">
        <ele>8.1</ele>
        <time>2020-06-12T05:48:12Z</time>
      </trkpt>
      <trkpt lat="49.16608" lon="-1.58907">
        <ele>8.1</ele>
        <time>2020-06-12T05:48:13Z</time>
      </trkpt>
      <trkpt lat="49.16614" lon="-1.58908">
        <ele>8.1</ele>
        <time>2020-06-12T05:48:14Z</time>
      </trkpt>
      <trkpt lat="49.1662" lon="-1.58908">
        <ele>8.1</ele>
        <time>2020-06-12T05:48:15Z</time>
      </trkpt>
      <trkpt lat="49.16626" lon="-1.58908">
        <ele>8</ele>
        <time>2020-06-12T05:48:16Z</time>
      </trkpt>
      <trkpt lat="49.16632" lon="-1.58909">
        <ele>8</ele>
        <time>2020-06-12T05:48:17Z</time>
      </trkpt>
      <trkpt lat="49.16638" lon="-1.5891">
        <ele>8</ele>
        <time>2020-06-12T05:48:18Z</time>
      </trkpt>
      <trkpt lat="49.16644" lon="-1.58911">
        <ele>8</ele>
        <time>2020-06-12T05:48:19Z</time>
      </trkpt>
      <trkpt lat="49.1665" lon="-1.58912">
        <ele>8</ele>
        <time>2020-06-12T05:48:20Z</time>
      </trkpt>
      <trkpt lat="49.16656" lon="-1.58913">
        <ele>7.9</ele>
        <time>2020-06-12T05:48:21Z</time>
      </trkpt>
      <trkpt lat="49.16662" lon="-1.58913">
        <ele>7.9</ele>
        <time>2020-06-12T05:48:22Z</time>
      </trkpt>
      <trkpt lat="49.16667" lon="-1.58915">
        <ele>7.9</ele>
        <time>2020-06-12T05:48:23Z</time>
      </trkpt>
      <trkpt lat="49.16673" lon="-1.58916">
        <ele>7.9</ele>
        <time>2020-06-12T05:48:24Z</time>
      </trkpt>
      <trkpt lat="49.16678" lon="-1.58916">
        <ele>7.9</ele>
        <time>2020-06-12T05:48:25Z</time>
      </trkpt>
      <trkpt lat="49.16684" lon="-1.58917">
        <ele>7.9</ele>
        <time>2020-06-12T05:48:26Z</time>
      </trkpt>
      <trkpt lat="49.1669" lon="-1.58918">
        <ele>7.9</ele>
        <time>2020-06-12T05:48:27Z</time>
      </trkpt>
      <trkpt lat="49.16696" lon="-1.58917">
        <ele>7.9</ele>
        <time>2020-06-12T05:48:28Z</time>
      </trkpt>
      <trkpt lat="49.16701" lon="-1.58916">
        <ele>7.9</ele>
        <time>2020-06-12T05:48:29Z</time>
      </trkpt>
      <trkpt lat="49.16707" lon="-1.58914">
        <ele>7.9</ele>
        <time>2020-06-12T05:48:30Z</time>
      </trkpt>
      <trkpt lat="49.16713" lon="-1.58912">
        <ele>7.9</ele>
        <time>2020-06-12T05:48:31Z</time>
      </trkpt>
      <trkpt lat="49.16719" lon="-1.58911">
        <ele>7.9</ele>
        <time>2020-06-12T05:48:32Z</time>
      </trkpt>
      <trkpt lat="49.16725" lon="-1.5891">
        <ele>7.9</ele>
        <time>2020-06-12T05:48:33Z</time>
      </trkpt>
      <trkpt lat="49.1673" lon="-1.58908">
        <ele>7.9</ele>
        <time>2020-06-12T05:48:34Z</time>
      </trkpt>
      <trkpt lat="49.16736" lon="-1.58906">
        <ele>7.9</ele>
        <time>2020-06-12T05:48:35Z</time>
      </trkpt>
      <trkpt lat="49.16742" lon="-1.58903">
        <ele>7.8</ele>
        <time>2020-06-12T05:48:36Z</time>
      </trkpt>
      <trkpt lat="49.16748" lon="-1.58899">
        <ele>7.7</ele>
        <time>2020-06-12T05:48:37Z</time>
      </trkpt>
      <trkpt lat="49.16752" lon="-1.58894">
        <ele>7.6</ele>
        <time>2020-06-12T05:48:38Z</time>
      </trkpt>
      <trkpt lat="49.16757" lon="-1.5889">
        <ele>7.6</ele>
        <time>2020-06-12T05:48:39Z</time>
      </trkpt>
      <trkpt lat="49.16762" lon="-1.58887">
        <ele>7.5</ele>
        <time>2020-06-12T05:48:40Z</time>
      </trkpt>
      <trkpt lat="49.16767" lon="-1.58886">
        <ele>7.5</ele>
        <time>2020-06-12T05:48:41Z</time>
      </trkpt>
      <trkpt lat="49.16773" lon="-1.58885">
        <ele>7.4</ele>
        <time>2020-06-12T05:48:42Z</time>
      </trkpt>
      <trkpt lat="49.16778" lon="-1.58887">
        <ele>7.4</ele>
        <time>2020-06-12T05:48:43Z</time>
      </trkpt>
      <trkpt lat="49.16782" lon="-1.58892">
        <ele>7.5</ele>
        <time>2020-06-12T05:48:44Z</time>
      </trkpt>
      <trkpt lat="49.16787" lon="-1.58899">
        <ele>7.5</ele>
        <time>2020-06-12T05:48:45Z</time>
      </trkpt>
      <trkpt lat="49.16791" lon="-1.58904">
        <ele>7.5</ele>
        <time>2020-06-12T05:48:46Z</time>
      </trkpt>
      <trkpt lat="49.16796" lon="-1.5891">
        <ele>7.5</ele>
        <time>2020-06-12T05:48:47Z</time>
      </trkpt>
      <trkpt lat="49.16802" lon="-1.58914">
        <ele>7.5</ele>
        <time>2020-06-12T05:48:48Z</time>
      </trkpt>
      <trkpt lat="49.16807" lon="-1.58916">
        <ele>7.4</ele>
        <time>2020-06-12T05:48:49Z</time>
      </trkpt>
      <trkpt lat="49.16813" lon="-1.58916">
        <ele>7.4</ele>
        <time>2020-06-12T05:48:50Z</time>
      </trkpt>
      <trkpt lat="49.16819" lon="-1.58916">
        <ele>7.4</ele>
        <time>2020-06-12T05:48:51Z</time>
      </trkpt>
      <trkpt lat="49.16825" lon="-1.58916">
        <ele>7.4</ele>
        <time>2020-06-12T05:48:52Z</time>
      </trkpt>
      <trkpt lat="49.16831" lon="-1.58916">
        <ele>7.3</ele>
        <time>2020-06-12T05:48:53Z</time>
      </trkpt>
      <trkpt lat="49.16837" lon="-1.58917">
        <ele>7.3</ele>
        <time>2020-06-12T05:48:54Z</time>
      </trkpt>
      <trkpt lat="49.16844" lon="-1.58917">
        <ele>7.3</ele>
        <time>2020-06-12T05:48:55Z</time>
      </trkpt>
      <trkpt lat="49.1685" lon="-1.58917">
        <ele>7.3</ele>
        <time>2020-06-12T05:48:56Z</time>
      </trkpt>
      <trkpt lat="49.16856" lon="-1.58918">
        <ele>7.3</ele>
        <time>2020-06-12T05:48:57Z</time>
      </trkpt>
      <trkpt lat="49.16862" lon="-1.58918">
        <ele>7.2</ele>
        <time>2020-06-12T05:48:58Z</time>
      </trkpt>
      <trkpt lat="49.16867" lon="-1.58918">
        <ele>7.2</ele>
        <time>2020-06-12T05:48:59Z</time>
      </trkpt>
      <trkpt lat="49.16873" lon="-1.58918">
        <ele>7.2</ele>
        <time>2020-06-12T05:49:00Z</time>
      </trkpt>
      <trkpt lat="49.16878" lon="-1.58918">
        <ele>7.1</ele>
        <time>2020-06-12T05:49:01Z</time>
      </trkpt>
      <trkpt lat="49.16884" lon="-1.58919">
        <ele>7.1</ele>
        <time>2020-06-12T05:49:02Z</time>
      </trkpt>
      <trkpt lat="49.1689" lon="-1.5892">
        <ele>7.1</ele>
        <time>2020-06-12T05:49:03Z</time>
      </trkpt>
      <trkpt lat="49.16895" lon="-1.58921">
        <ele>7.1</ele>
        <time>2020-06-12T05:49:04Z</time>
      </trkpt>
      <trkpt lat="49.169" lon="-1.58923">
        <ele>7</ele>
        <time>2020-06-12T05:49:05Z</time>
      </trkpt>
      <trkpt lat="49.16906" lon="-1.58922">
        <ele>7</ele>
        <time>2020-06-12T05:49:06Z</time>
      </trkpt>
      <trkpt lat="49.16912" lon="-1.58922">
        <ele>7</ele>
        <time>2020-06-12T05:49:07Z</time>
      </trkpt>
      <trkpt lat="49.16919" lon="-1.58923">
        <ele>7</ele>
        <time>2020-06-12T05:49:08Z</time>
      </trkpt>
      <trkpt lat="49.16925" lon="-1.58924">
        <ele>7</ele>
        <time>2020-06-12T05:49:09Z</time>
      </trkpt>
      <trkpt lat="49.16931" lon="-1.58925">
        <ele>7</ele>
        <time>2020-06-12T05:49:10Z</time>
      </trkpt>
      <trkpt lat="49.16937" lon="-1.58927">
        <ele>7</ele>
        <time>2020-06-12T05:49:11Z</time>
      </trkpt>
      <trkpt lat="49.16942" lon="-1.58927">
        <ele>7</ele>
        <time>2020-06-12T05:49:12Z</time>
      </trkpt>
      <trkpt lat="49.16947" lon="-1.58928">
        <ele>7</ele>
        <time>2020-06-12T05:49:13Z</time>
      </trkpt>
      <trkpt lat="49.16953" lon="-1.58929">
        <ele>7.1</ele>
        <time>2020-06-12T05:49:14Z</time>
      </trkpt>
      <trkpt lat="49.16959" lon="-1.5893">
        <ele>7.1</ele>
        <time>2020-06-12T05:49:15Z</time>
      </trkpt>
      <trkpt lat="49.16965" lon="-1.58932">
        <ele>7.1</ele>
        <time>2020-06-12T05:49:16Z</time>
      </trkpt>
      <trkpt lat="49.16971" lon="-1.58932">
        <ele>7.1</ele>
        <time>2020-06-12T05:49:17Z</time>
      </trkpt>
      <trkpt lat="49.16976" lon="-1.58932">
        <ele>7.1</ele>
        <time>2020-06-12T05:49:18Z</time>
      </trkpt>
      <trkpt lat="49.16982" lon="-1.58933">
        <ele>7.1</ele>
        <time>2020-06-12T05:49:19Z</time>
      </trkpt>
      <trkpt lat="49.16988" lon="-1.58933">
        <ele>7.1</ele>
        <time>2020-06-12T05:49:20Z</time>
      </trkpt>
      <trkpt lat="49.16993" lon="-1.58933">
        <ele>7.1</ele>
        <time>2020-06-12T05:49:21Z</time>
      </trkpt>
      <trkpt lat="49.16999" lon="-1.58933">
        <ele>7.1</ele>
        <time>2020-06-12T05:49:22Z</time>
      </trkpt>
      <trkpt lat="49.17005" lon="-1.58933">
        <ele>7.2</ele>
        <time>2020-06-12T05:49:23Z</time>
      </trkpt>
      <trkpt lat="49.1701" lon="-1.58933">
        <ele>7.2</ele>
        <time>2020-06-12T05:49:24Z</time>
      </trkpt>
      <trkpt lat="49.17015" lon="-1.58933">
        <ele>7.2</ele>
        <time>2020-06-12T05:49:25Z</time>
      </trkpt>
      <trkpt lat="49.17021" lon="-1.58932">
        <ele>7.2</ele>
        <time>2020-06-12T05:49:26Z</time>
      </trkpt>
      <trkpt lat="49.17027" lon="-1.58931">
        <ele>7.2</ele>
        <time>2020-06-12T05:49:27Z</time>
      </trkpt>
      <trkpt lat="49.17032" lon="-1.58931">
        <ele>7.3</ele>
        <time>2020-06-12T05:49:28Z</time>
      </trkpt>
      <trkpt lat="49.17037" lon="-1.58931">
        <ele>7.3</ele>
        <time>2020-06-12T05:49:29Z</time>
      </trkpt>
      <trkpt lat="49.17042" lon="-1.58932">
        <ele>7.3</ele>
        <time>2020-06-12T05:49:30Z</time>
      </trkpt>
      <trkpt lat="49.17047" lon="-1.58932">
        <ele>7.3</ele>
        <time>2020-06-12T05:49:31Z</time>
      </trkpt>
      <trkpt lat="49.17053" lon="-1.58932">
        <ele>7.4</ele>
        <time>2020-06-12T05:49:32Z</time>
      </trkpt>
      <trkpt lat="49.17058" lon="-1.58933">
        <ele>7.4</ele>
        <time>2020-06-12T05:49:33Z</time>
      </trkpt>
      <trkpt lat="49.17063" lon="-1.58932">
        <ele>7.4</ele>
        <time>2020-06-12T05:49:34Z</time>
      </trkpt>
      <trkpt lat="49.17069" lon="-1.58931">
        <ele>7.5</ele>
        <time>2020-06-12T05:49:35Z</time>
      </trkpt>
      <trkpt lat="49.17074" lon="-1.5893">
        <ele>7.5</ele>
        <time>2020-06-12T05:49:36Z</time>
      </trkpt>
      <trkpt lat="49.1708" lon="-1.5893">
        <ele>7.5</ele>
        <time>2020-06-12T05:49:37Z</time>
      </trkpt>
      <trkpt lat="49.17085" lon="-1.5893">
        <ele>7.6</ele>
        <time>2020-06-12T05:49:38Z</time>
      </trkpt>
      <trkpt lat="49.17091" lon="-1.58929">
        <ele>7.7</ele>
        <time>2020-06-12T05:49:39Z</time>
      </trkpt>
      <trkpt lat="49.17096" lon="-1.58929">
        <ele>7.8</ele>
        <time>2020-06-12T05:49:40Z</time>
      </trkpt>
      <trkpt lat="49.17101" lon="-1.58928">
        <ele>7.9</ele>
        <time>2020-06-12T05:49:41Z</time>
      </trkpt>
      <trkpt lat="49.17107" lon="-1.58926">
        <ele>8.2</ele>
        <time>2020-06-12T05:49:42Z</time>
      </trkpt>
      <trkpt lat="49.17112" lon="-1.58924">
        <ele>8.2</ele>
        <time>2020-06-12T05:49:43Z</time>
      </trkpt>
      <trkpt lat="49.17118" lon="-1.58923">
        <ele>8.3</ele>
        <time>2020-06-12T05:49:44Z</time>
      </trkpt>
      <trkpt lat="49.17123" lon="-1.58923">
        <ele>8.3</ele>
        <time>2020-06-12T05:49:45Z</time>
      </trkpt>
      <trkpt lat="49.17128" lon="-1.58922">
        <ele>8.3</ele>
        <time>2020-06-12T05:49:46Z</time>
      </trkpt>
      <trkpt lat="49.17133" lon="-1.58921">
        <ele>8.3</ele>
        <time>2020-06-12T05:49:47Z</time>
      </trkpt>
      <trkpt lat="49.17139" lon="-1.58919">
        <ele>8.4</ele>
        <time>2020-06-12T05:49:48Z</time>
      </trkpt>
      <trkpt lat="49.17145" lon="-1.58918">
        <ele>8.4</ele>
        <time>2020-06-12T05:49:49Z</time>
      </trkpt>
      <trkpt lat="49.17151" lon="-1.58916">
        <ele>8.4</ele>
        <time>2020-06-12T05:49:50Z</time>
      </trkpt>
      <trkpt lat="49.17156" lon="-1.58915">
        <ele>8.5</ele>
        <time>2020-06-12T05:49:51Z</time>
      </trkpt>
      <trkpt lat="49.17162" lon="-1.58913">
        <ele>8.5</ele>
        <time>2020-06-12T05:49:52Z</time>
      </trkpt>
      <trkpt lat="49.17168" lon="-1.58911">
        <ele>8.5</ele>
        <time>2020-06-12T05:49:53Z</time>
      </trkpt>
      <trkpt lat="49.17174" lon="-1.58909">
        <ele>8.5</ele>
        <time>2020-06-12T05:49:54Z</time>
      </trkpt>
      <trkpt lat="49.17179" lon="-1.58906">
        <ele>8.6</ele>
        <time>2020-06-12T05:49:55Z</time>
      </trkpt>
      <trkpt lat="49.17185" lon="-1.58905">
        <ele>8.6</ele>
        <time>2020-06-12T05:49:56Z</time>
      </trkpt>
      <trkpt lat="49.1719" lon="-1.58904">
        <ele>8.6</ele>
        <time>2020-06-12T05:49:57Z</time>
      </trkpt>
      <trkpt lat="49.17195" lon="-1.58902">
        <ele>8.6</ele>
        <time>2020-06-12T05:49:58Z</time>
      </trkpt>
      <trkpt lat="49.172" lon="-1.589">
        <ele>8.7</ele>
        <time>2020-06-12T05:49:59Z</time>
      </trkpt>
      <trkpt lat="49.17205" lon="-1.58898">
        <ele>8.7</ele>
        <time>2020-06-12T05:50:00Z</time>
      </trkpt>
      <trkpt lat="49.17211" lon="-1.58896">
        <ele>8.7</ele>
        <time>2020-06-12T05:50:01Z</time>
      </trkpt>
      <trkpt lat="49.17216" lon="-1.58894">
        <ele>8.7</ele>
        <time>2020-06-12T05:50:02Z</time>
      </trkpt>
      <trkpt lat="49.17221" lon="-1.58892">
        <ele>8.7</ele>
        <time>2020-06-12T05:50:03Z</time>
      </trkpt>
      <trkpt lat="49.17227" lon="-1.5889">
        <ele>8.7</ele>
        <time>2020-06-12T05:50:04Z</time>
      </trkpt>
      <trkpt lat="49.17232" lon="-1.58887">
        <ele>8.7</ele>
        <time>2020-06-12T05:50:05Z</time>
      </trkpt>
      <trkpt lat="49.17237" lon="-1.58885">
        <ele>8.7</ele>
        <time>2020-06-12T05:50:06Z</time>
      </trkpt>
      <trkpt lat="49.17242" lon="-1.58882">
        <ele>8.6</ele>
        <time>2020-06-12T05:50:07Z</time>
      </trkpt>
      <trkpt lat="49.17247" lon="-1.5888">
        <ele>8.6</ele>
        <time>2020-06-12T05:50:08Z</time>
      </trkpt>
      <trkpt lat="49.17253" lon="-1.58877">
        <ele>8.6</ele>
        <time>2020-06-12T05:50:09Z</time>
      </trkpt>
      <trkpt lat="49.17258" lon="-1.58875">
        <ele>8.6</ele>
        <time>2020-06-12T05:50:10Z</time>
      </trkpt>
      <trkpt lat="49.17264" lon="-1.58873">
        <ele>8.6</ele>
        <time>2020-06-12T05:50:11Z</time>
      </trkpt>
      <trkpt lat="49.17269" lon="-1.58871">
        <ele>8.6</ele>
        <time>2020-06-12T05:50:12Z</time>
      </trkpt>
      <trkpt lat="49.17275" lon="-1.58869">
        <ele>8.6</ele>
        <time>2020-06-12T05:50:13Z</time>
      </trkpt>
      <trkpt lat="49.1728" lon="-1.58867">
        <ele>8.6</ele>
        <time>2020-06-12T05:50:14Z</time>
      </trkpt>
      <trkpt lat="49.17285" lon="-1.58864">
        <ele>8.7</ele>
        <time>2020-06-12T05:50:15Z</time>
      </trkpt>
      <trkpt lat="49.17291" lon="-1.58862">
        <ele>8.7</ele>
        <time>2020-06-12T05:50:16Z</time>
      </trkpt>
      <trkpt lat="49.17297" lon="-1.5886">
        <ele>8.6</ele>
        <time>2020-06-12T05:50:17Z</time>
      </trkpt>
      <trkpt lat="49.17303" lon="-1.58858">
        <ele>8.6</ele>
        <time>2020-06-12T05:50:18Z</time>
      </trkpt>
      <trkpt lat="49.17308" lon="-1.58855">
        <ele>8.6</ele>
        <time>2020-06-12T05:50:19Z</time>
      </trkpt>
      <trkpt lat="49.17313" lon="-1.58852">
        <ele>8.5</ele>
        <time>2020-06-12T05:50:20Z</time>
      </trkpt>
      <trkpt lat="49.17319" lon="-1.5885">
        <ele>8.5</ele>
        <time>2020-06-12T05:50:21Z</time>
      </trkpt>
      <trkpt lat="49.17325" lon="-1.58848">
        <ele>8.4</ele>
        <time>2020-06-12T05:50:22Z</time>
      </trkpt>
      <trkpt lat="49.17331" lon="-1.58846">
        <ele>8.4</ele>
        <time>2020-06-12T05:50:23Z</time>
      </trkpt>
      <trkpt lat="49.17336" lon="-1.58844">
        <ele>8.4</ele>
        <time>2020-06-12T05:50:24Z</time>
      </trkpt>
      <trkpt lat="49.17342" lon="-1.58842">
        <ele>8.4</ele>
        <time>2020-06-12T05:50:25Z</time>
      </trkpt>
      <trkpt lat="49.17348" lon="-1.5884">
        <ele>8.4</ele>
        <time>2020-06-12T05:50:26Z</time>
      </trkpt>
      <trkpt lat="49.17353" lon="-1.58838">
        <ele>8.3</ele>
        <time>2020-06-12T05:50:27Z</time>
      </trkpt>
      <trkpt lat="49.17359" lon="-1.58835">
        <ele>8.3</ele>
        <time>2020-06-12T05:50:28Z</time>
      </trkpt>
      <trkpt lat="49.17364" lon="-1.58833">
        <ele>8.3</ele>
        <time>2020-06-12T05:50:29Z</time>
      </trkpt>
      <trkpt lat="49.1737" lon="-1.5883">
        <ele>8.3</ele>
        <time>2020-06-12T05:50:30Z</time>
      </trkpt>
      <trkpt lat="49.17376" lon="-1.58827">
        <ele>8.3</ele>
        <time>2020-06-12T05:50:31Z</time>
      </trkpt>
      <trkpt lat="49.17381" lon="-1.58825">
        <ele>8.3</ele>
        <time>2020-06-12T05:50:32Z</time>
      </trkpt>
      <trkpt lat="49.17387" lon="-1.58823">
        <ele>8.2</ele>
        <time>2020-06-12T05:50:33Z</time>
      </trkpt>
      <trkpt lat="49.17393" lon="-1.58821">
        <ele>8.2</ele>
        <time>2020-06-12T05:50:34Z</time>
      </trkpt>
      <trkpt lat="49.17398" lon="-1.58818">
        <ele>8.2</ele>
        <time>2020-06-12T05:50:35Z</time>
      </trkpt>
      <trkpt lat="49.17404" lon="-1.58816">
        <ele>8.2</ele>
        <time>2020-06-12T05:50:36Z</time>
      </trkpt>
      <trkpt lat="49.17409" lon="-1.58814">
        <ele>8.2</ele>
        <time>2020-06-12T05:50:37Z</time>
      </trkpt>
      <trkpt lat="49.17414" lon="-1.58811">
        <ele>8.2</ele>
        <time>2020-06-12T05:50:38Z</time>
      </trkpt>
      <trkpt lat="49.1742" lon="-1.5881">
        <ele>8.1</ele>
        <time>2020-06-12T05:50:39Z</time>
      </trkpt>
      <trkpt lat="49.17426" lon="-1.58808">
        <ele>8.1</ele>
        <time>2020-06-12T05:50:40Z</time>
      </trkpt>
      <trkpt lat="49.17432" lon="-1.58805">
        <ele>8.1</ele>
        <time>2020-06-12T05:50:41Z</time>
      </trkpt>
      <trkpt lat="49.17438" lon="-1.58803">
        <ele>8.1</ele>
        <time>2020-06-12T05:50:42Z</time>
      </trkpt>
      <trkpt lat="49.17444" lon="-1.588">
        <ele>8.1</ele>
        <time>2020-06-12T05:50:43Z</time>
      </trkpt>
      <trkpt lat="49.1745" lon="-1.58797">
        <ele>8.2</ele>
        <time>2020-06-12T05:50:44Z</time>
      </trkpt>
      <trkpt lat="49.17456" lon="-1.58795">
        <ele>8.2</ele>
        <time>2020-06-12T05:50:45Z</time>
      </trkpt>
      <trkpt lat="49.17461" lon="-1.58793">
        <ele>8.2</ele>
        <time>2020-06-12T05:50:46Z</time>
      </trkpt>
      <trkpt lat="49.17467" lon="-1.5879">
        <ele>8.1</ele>
        <time>2020-06-12T05:50:47Z</time>
      </trkpt>
      <trkpt lat="49.17473" lon="-1.58788">
        <ele>8.1</ele>
        <time>2020-06-12T05:50:48Z</time>
      </trkpt>
      <trkpt lat="49.17479" lon="-1.58785">
        <ele>8.1</ele>
        <time>2020-06-12T05:50:49Z</time>
      </trkpt>
      <trkpt lat="49.17484" lon="-1.58783">
        <ele>8</ele>
        <time>2020-06-12T05:50:50Z</time>
      </trkpt>
      <trkpt lat="49.17489" lon="-1.58781">
        <ele>8</ele>
        <time>2020-06-12T05:50:51Z</time>
      </trkpt>
      <trkpt lat="49.17495" lon="-1.58778">
        <ele>8</ele>
        <time>2020-06-12T05:50:52Z</time>
      </trkpt>
      <trkpt lat="49.17501" lon="-1.58775">
        <ele>8</ele>
        <time>2020-06-12T05:50:53Z</time>
      </trkpt>
      <trkpt lat="49.17507" lon="-1.58773">
        <ele>7.9</ele>
        <time>2020-06-12T05:50:54Z</time>
      </trkpt>
      <trkpt lat="49.17513" lon="-1.5877">
        <ele>7.9</ele>
        <time>2020-06-12T05:50:55Z</time>
      </trkpt>
      <trkpt lat="49.1752" lon="-1.58767">
        <ele>7.9</ele>
        <time>2020-06-12T05:50:56Z</time>
      </trkpt>
      <trkpt lat="49.17525" lon="-1.58764">
        <ele>7.8</ele>
        <time>2020-06-12T05:50:57Z</time>
      </trkpt>
      <trkpt lat="49.17532" lon="-1.58761">
        <ele>7.8</ele>
        <time>2020-06-12T05:50:58Z</time>
      </trkpt>
      <trkpt lat="49.17537" lon="-1.58759">
        <ele>7.8</ele>
        <time>2020-06-12T05:50:59Z</time>
      </trkpt>
      <trkpt lat="49.17543" lon="-1.58757">
        <ele>7.8</ele>
        <time>2020-06-12T05:51:00Z</time>
      </trkpt>
      <trkpt lat="49.17549" lon="-1.58755">
        <ele>7.7</ele>
        <time>2020-06-12T05:51:01Z</time>
      </trkpt>
      <trkpt lat="49.17555" lon="-1.58753">
        <ele>7.7</ele>
        <time>2020-06-12T05:51:02Z</time>
      </trkpt>
      <trkpt lat="49.17561" lon="-1.5875">
        <ele>7.6</ele>
        <time>2020-06-12T05:51:03Z</time>
      </trkpt>
      <trkpt lat="49.17568" lon="-1.58748">
        <ele>7.6</ele>
        <time>2020-06-12T05:51:04Z</time>
      </trkpt>
      <trkpt lat="49.17573" lon="-1.58745">
        <ele>7.5</ele>
        <time>2020-06-12T05:51:05Z</time>
      </trkpt>
      <trkpt lat="49.17579" lon="-1.58743">
        <ele>7.5</ele>
        <time>2020-06-12T05:51:06Z</time>
      </trkpt>
      <trkpt lat="49.17585" lon="-1.5874">
        <ele>7.5</ele>
        <time>2020-06-12T05:51:07Z</time>
      </trkpt>
      <trkpt lat="49.1759" lon="-1.58739">
        <ele>7.5</ele>
        <time>2020-06-12T05:51:08Z</time>
      </trkpt>
      <trkpt lat="49.17596" lon="-1.58737">
        <ele>7.5</ele>
        <time>2020-06-12T05:51:09Z</time>
      </trkpt>
      <trkpt lat="49.17602" lon="-1.58735">
        <ele>7.5</ele>
        <time>2020-06-12T05:51:10Z</time>
      </trkpt>
      <trkpt lat="49.17608" lon="-1.58733">
        <ele>7.5</ele>
        <time>2020-06-12T05:51:11Z</time>
      </trkpt>
      <trkpt lat="49.17614" lon="-1.5873">
        <ele>7.5</ele>
        <time>2020-06-12T05:51:12Z</time>
      </trkpt>
      <trkpt lat="49.1762" lon="-1.58728">
        <ele>7.5</ele>
        <time>2020-06-12T05:51:13Z</time>
      </trkpt>
      <trkpt lat="49.17626" lon="-1.58726">
        <ele>7.5</ele>
        <time>2020-06-12T05:51:14Z</time>
      </trkpt>
      <trkpt lat="49.17631" lon="-1.58724">
        <ele>7.5</ele>
        <time>2020-06-12T05:51:15Z</time>
      </trkpt>
      <trkpt lat="49.17636" lon="-1.58721">
        <ele>7.4</ele>
        <time>2020-06-12T05:51:16Z</time>
      </trkpt>
      <trkpt lat="49.17641" lon="-1.58719">
        <ele>7.3</ele>
        <time>2020-06-12T05:51:17Z</time>
      </trkpt>
      <trkpt lat="49.17646" lon="-1.58716">
        <ele>7.3</ele>
        <time>2020-06-12T05:51:18Z</time>
      </trkpt>
      <trkpt lat="49.17651" lon="-1.58714">
        <ele>7.3</ele>
        <time>2020-06-12T05:51:19Z</time>
      </trkpt>
      <trkpt lat="49.17658" lon="-1.58712">
        <ele>7.2</ele>
        <time>2020-06-12T05:51:20Z</time>
      </trkpt>
      <trkpt lat="49.17664" lon="-1.5871">
        <ele>7.1</ele>
        <time>2020-06-12T05:51:21Z</time>
      </trkpt>
      <trkpt lat="49.1767" lon="-1.58709">
        <ele>7.1</ele>
        <time>2020-06-12T05:51:22Z</time>
      </trkpt>
      <trkpt lat="49.17676" lon="-1.58707">
        <ele>7.1</ele>
        <time>2020-06-12T05:51:23Z</time>
      </trkpt>
      <trkpt lat="49.17683" lon="-1.58705">
        <ele>7.1</ele>
        <time>2020-06-12T05:51:24Z</time>
      </trkpt>
      <trkpt lat="49.17689" lon="-1.58703">
        <ele>7.1</ele>
        <time>2020-06-12T05:51:25Z</time>
      </trkpt>
      <trkpt lat="49.17696" lon="-1.587">
        <ele>7.1</ele>
        <time>2020-06-12T05:51:26Z</time>
      </trkpt>
      <trkpt lat="49.17702" lon="-1.58698">
        <ele>7</ele>
        <time>2020-06-12T05:51:27Z</time>
      </trkpt>
      <trkpt lat="49.17707" lon="-1.58695">
        <ele>7</ele>
        <time>2020-06-12T05:51:28Z</time>
      </trkpt>
      <trkpt lat="49.17712" lon="-1.58693">
        <ele>7</ele>
        <time>2020-06-12T05:51:29Z</time>
      </trkpt>
      <trkpt lat="49.17718" lon="-1.5869">
        <ele>7</ele>
        <time>2020-06-12T05:51:30Z</time>
      </trkpt>
      <trkpt lat="49.17724" lon="-1.58688">
        <ele>7</ele>
        <time>2020-06-12T05:51:31Z</time>
      </trkpt>
      <trkpt lat="49.1773" lon="-1.58685">
        <ele>7</ele>
        <time>2020-06-12T05:51:32Z</time>
      </trkpt>
      <trkpt lat="49.17735" lon="-1.58683">
        <ele>7</ele>
        <time>2020-06-12T05:51:33Z</time>
      </trkpt>
      <trkpt lat="49.17741" lon="-1.58682">
        <ele>7</ele>
        <time>2020-06-12T05:51:34Z</time>
      </trkpt>
      <trkpt lat="49.17748" lon="-1.58679">
        <ele>7.1</ele>
        <time>2020-06-12T05:51:35Z</time>
      </trkpt>
      <trkpt lat="49.17755" lon="-1.58677">
        <ele>7.2</ele>
        <time>2020-06-12T05:51:36Z</time>
      </trkpt>
      <trkpt lat="49.17761" lon="-1.58674">
        <ele>7.1</ele>
        <time>2020-06-12T05:51:37Z</time>
      </trkpt>
      <trkpt lat="49.17766" lon="-1.58672">
        <ele>7.1</ele>
        <time>2020-06-12T05:51:38Z</time>
      </trkpt>
      <trkpt lat="49.17773" lon="-1.58671">
        <ele>7.1</ele>
        <time>2020-06-12T05:51:39Z</time>
      </trkpt>
      <trkpt lat="49.17778" lon="-1.58669">
        <ele>7.1</ele>
        <time>2020-06-12T05:51:40Z</time>
      </trkpt>
      <trkpt lat="49.17783" lon="-1.58668">
        <ele>7.1</ele>
        <time>2020-06-12T05:51:41Z</time>
      </trkpt>
      <trkpt lat="49.1779" lon="-1.58665">
        <ele>7.1</ele>
        <time>2020-06-12T05:51:42Z</time>
      </trkpt>
      <trkpt lat="49.17795" lon="-1.58663">
        <ele>7.2</ele>
        <time>2020-06-12T05:51:43Z</time>
      </trkpt>
      <trkpt lat="49.17801" lon="-1.58661">
        <ele>7.3</ele>
        <time>2020-06-12T05:51:44Z</time>
      </trkpt>
      <trkpt lat="49.17809" lon="-1.58657">
        <ele>7.3</ele>
        <time>2020-06-12T05:51:45Z</time>
      </trkpt>
      <trkpt lat="49.17814" lon="-1.58655">
        <ele>7.3</ele>
        <time>2020-06-12T05:51:46Z</time>
      </trkpt>
      <trkpt lat="49.17821" lon="-1.58652">
        <ele>7.3</ele>
        <time>2020-06-12T05:51:47Z</time>
      </trkpt>
      <trkpt lat="49.17826" lon="-1.58649">
        <ele>7.3</ele>
        <time>2020-06-12T05:51:48Z</time>
      </trkpt>
      <trkpt lat="49.17832" lon="-1.58647">
        <ele>7.3</ele>
        <time>2020-06-12T05:51:49Z</time>
      </trkpt>
      <trkpt lat="49.17838" lon="-1.58646">
        <ele>7.3</ele>
        <time>2020-06-12T05:51:50Z</time>
      </trkpt>
      <trkpt lat="49.17845" lon="-1.58643">
        <ele>7.3</ele>
        <time>2020-06-12T05:51:51Z</time>
      </trkpt>
      <trkpt lat="49.17851" lon="-1.58642">
        <ele>7.2</ele>
        <time>2020-06-12T05:51:52Z</time>
      </trkpt>
      <trkpt lat="49.17858" lon="-1.5864">
        <ele>7.2</ele>
        <time>2020-06-12T05:51:53Z</time>
      </trkpt>
      <trkpt lat="49.17864" lon="-1.58638">
        <ele>7.2</ele>
        <time>2020-06-12T05:51:54Z</time>
      </trkpt>
      <trkpt lat="49.1787" lon="-1.58635">
        <ele>7.2</ele>
        <time>2020-06-12T05:51:55Z</time>
      </trkpt>
      <trkpt lat="49.17877" lon="-1.58632">
        <ele>7.2</ele>
        <time>2020-06-12T05:51:56Z</time>
      </trkpt>
      <trkpt lat="49.17882" lon="-1.5863">
        <ele>7.3</ele>
        <time>2020-06-12T05:51:57Z</time>
      </trkpt>
      <trkpt lat="49.17888" lon="-1.58627">
        <ele>7.3</ele>
        <time>2020-06-12T05:51:58Z</time>
      </trkpt>
      <trkpt lat="49.17894" lon="-1.58624">
        <ele>7.3</ele>
        <time>2020-06-12T05:51:59Z</time>
      </trkpt>
      <trkpt lat="49.17899" lon="-1.58621">
        <ele>7.3</ele>
        <time>2020-06-12T05:52:00Z</time>
      </trkpt>
      <trkpt lat="49.17905" lon="-1.58618">
        <ele>7.3</ele>
        <time>2020-06-12T05:52:01Z</time>
      </trkpt>
      <trkpt lat="49.17912" lon="-1.58614">
        <ele>7.3</ele>
        <time>2020-06-12T05:52:02Z</time>
      </trkpt>
      <trkpt lat="49.17918" lon="-1.58611">
        <ele>7.3</ele>
        <time>2020-06-12T05:52:03Z</time>
      </trkpt>
      <trkpt lat="49.17924" lon="-1.58608">
        <ele>7.3</ele>
        <time>2020-06-12T05:52:04Z</time>
      </trkpt>
      <trkpt lat="49.17929" lon="-1.58606">
        <ele>7.3</ele>
        <time>2020-06-12T05:52:05Z</time>
      </trkpt>
      <trkpt lat="49.17934" lon="-1.58603">
        <ele>7.3</ele>
        <time>2020-06-12T05:52:06Z</time>
      </trkpt>
      <trkpt lat="49.17939" lon="-1.586">
        <ele>7.3</ele>
        <time>2020-06-12T05:52:07Z</time>
      </trkpt>
      <trkpt lat="49.17944" lon="-1.58597">
        <ele>7.3</ele>
        <time>2020-06-12T05:52:08Z</time>
      </trkpt>
      <trkpt lat="49.17949" lon="-1.58594">
        <ele>7.4</ele>
        <time>2020-06-12T05:52:09Z</time>
      </trkpt>
      <trkpt lat="49.17954" lon="-1.58592">
        <ele>7.4</ele>
        <time>2020-06-12T05:52:10Z</time>
      </trkpt>
      <trkpt lat="49.17959" lon="-1.58589">
        <ele>7.5</ele>
        <time>2020-06-12T05:52:11Z</time>
      </trkpt>
      <trkpt lat="49.17964" lon="-1.58585">
        <ele>7.5</ele>
        <time>2020-06-12T05:52:12Z</time>
      </trkpt>
      <trkpt lat="49.17968" lon="-1.58581">
        <ele>7.5</ele>
        <time>2020-06-12T05:52:13Z</time>
      </trkpt>
      <trkpt lat="49.17973" lon="-1.58577">
        <ele>7.4</ele>
        <time>2020-06-12T05:52:14Z</time>
      </trkpt>
      <trkpt lat="49.17978" lon="-1.58572">
        <ele>7.4</ele>
        <time>2020-06-12T05:52:15Z</time>
      </trkpt>
      <trkpt lat="49.17984" lon="-1.58568">
        <ele>7.4</ele>
        <time>2020-06-12T05:52:16Z</time>
      </trkpt>
      <trkpt lat="49.1799" lon="-1.58564">
        <ele>7.3</ele>
        <time>2020-06-12T05:52:17Z</time>
      </trkpt>
      <trkpt lat="49.17995" lon="-1.58559">
        <ele>7.3</ele>
        <time>2020-06-12T05:52:18Z</time>
      </trkpt>
      <trkpt lat="49.17999" lon="-1.58556">
        <ele>7.3</ele>
        <time>2020-06-12T05:52:19Z</time>
      </trkpt>
      <trkpt lat="49.18005" lon="-1.58552">
        <ele>7.3</ele>
        <time>2020-06-12T05:52:20Z</time>
      </trkpt>
      <trkpt lat="49.1801" lon="-1.58548">
        <ele>7.3</ele>
        <time>2020-06-12T05:52:21Z</time>
      </trkpt>
      <trkpt lat="49.18015" lon="-1.58544">
        <ele>7.3</ele>
        <time>2020-06-12T05:52:22Z</time>
      </trkpt>
      <trkpt lat="49.18019" lon="-1.5854">
        <ele>7.3</ele>
        <time>2020-06-12T05:52:23Z</time>
      </trkpt>
      <trkpt lat="49.18025" lon="-1.58536">
        <ele>7.3</ele>
        <time>2020-06-12T05:52:24Z</time>
      </trkpt>
      <trkpt lat="49.18029" lon="-1.58532">
        <ele>7.3</ele>
        <time>2020-06-12T05:52:25Z</time>
      </trkpt>
      <trkpt lat="49.18035" lon="-1.58527">
        <ele>7.3</ele>
        <time>2020-06-12T05:52:26Z</time>
      </trkpt>
      <trkpt lat="49.18039" lon="-1.58523">
        <ele>7.3</ele>
        <time>2020-06-12T05:52:27Z</time>
      </trkpt>
      <trkpt lat="49.18045" lon="-1.5852">
        <ele>7.3</ele>
        <time>2020-06-12T05:52:28Z</time>
      </trkpt>
      <trkpt lat="49.1805" lon="-1.58517">
        <ele>7.3</ele>
        <time>2020-06-12T05:52:29Z</time>
      </trkpt>
      <trkpt lat="49.18054" lon="-1.58514">
        <ele>7.3</ele>
        <time>2020-06-12T05:52:30Z</time>
      </trkpt>
      <trkpt lat="49.18059" lon="-1.5851">
        <ele>7.4</ele>
        <time>2020-06-12T05:52:31Z</time>
      </trkpt>
      <trkpt lat="49.18065" lon="-1.58506">
        <ele>7.4</ele>
        <time>2020-06-12T05:52:32Z</time>
      </trkpt>
      <trkpt lat="49.1807" lon="-1.58502">
        <ele>7.4</ele>
        <time>2020-06-12T05:52:33Z</time>
      </trkpt>
      <trkpt lat="49.18075" lon="-1.58498">
        <ele>7.4</ele>
        <time>2020-06-12T05:52:34Z</time>
      </trkpt>
      <trkpt lat="49.1808" lon="-1.58494">
        <ele>7.4</ele>
        <time>2020-06-12T05:52:35Z</time>
      </trkpt>
      <trkpt lat="49.18084" lon="-1.5849">
        <ele>7.4</ele>
        <time>2020-06-12T05:52:36Z</time>
      </trkpt>
      <trkpt lat="49.18088" lon="-1.58487">
        <ele>7.4</ele>
        <time>2020-06-12T05:52:37Z</time>
      </trkpt>
      <trkpt lat="49.18094" lon="-1.58483">
        <ele>7.4</ele>
        <time>2020-06-12T05:52:38Z</time>
      </trkpt>
      <trkpt lat="49.18099" lon="-1.58479">
        <ele>7.4</ele>
        <time>2020-06-12T05:52:39Z</time>
      </trkpt>
      <trkpt lat="49.18103" lon="-1.58476">
        <ele>7.4</ele>
        <time>2020-06-12T05:52:40Z</time>
      </trkpt>
      <trkpt lat="49.18107" lon="-1.58472">
        <ele>7.4</ele>
        <time>2020-06-12T05:52:41Z</time>
      </trkpt>
      <trkpt lat="49.18112" lon="-1.58469">
        <ele>7.4</ele>
        <time>2020-06-12T05:52:42Z</time>
      </trkpt>
      <trkpt lat="49.18116" lon="-1.58465">
        <ele>7.5</ele>
        <time>2020-06-12T05:52:43Z</time>
      </trkpt>
      <trkpt lat="49.1812" lon="-1.5846">
        <ele>7.6</ele>
        <time>2020-06-12T05:52:44Z</time>
      </trkpt>
      <trkpt lat="49.18125" lon="-1.58456">
        <ele>7.7</ele>
        <time>2020-06-12T05:52:45Z</time>
      </trkpt>
      <trkpt lat="49.18129" lon="-1.58451">
        <ele>7.9</ele>
        <time>2020-06-12T05:52:46Z</time>
      </trkpt>
      <trkpt lat="49.18135" lon="-1.58447">
        <ele>7.9</ele>
        <time>2020-06-12T05:52:47Z</time>
      </trkpt>
      <trkpt lat="49.18139" lon="-1.58443">
        <ele>7.9</ele>
        <time>2020-06-12T05:52:48Z</time>
      </trkpt>
      <trkpt lat="49.18145" lon="-1.58439">
        <ele>7.9</ele>
        <time>2020-06-12T05:52:49Z</time>
      </trkpt>
      <trkpt lat="49.18149" lon="-1.58435">
        <ele>7.8</ele>
        <time>2020-06-12T05:52:50Z</time>
      </trkpt>
      <trkpt lat="49.18154" lon="-1.5843">
        <ele>7.8</ele>
        <time>2020-06-12T05:52:51Z</time>
      </trkpt>
      <trkpt lat="49.18159" lon="-1.58427">
        <ele>7.8</ele>
        <time>2020-06-12T05:52:52Z</time>
      </trkpt>
      <trkpt lat="49.18164" lon="-1.58424">
        <ele>7.8</ele>
        <time>2020-06-12T05:52:53Z</time>
      </trkpt>
      <trkpt lat="49.18169" lon="-1.58421">
        <ele>7.7</ele>
        <time>2020-06-12T05:52:54Z</time>
      </trkpt>
      <trkpt lat="49.18174" lon="-1.58418">
        <ele>7.7</ele>
        <time>2020-06-12T05:52:55Z</time>
      </trkpt>
      <trkpt lat="49.1818" lon="-1.58414">
        <ele>7.7</ele>
        <time>2020-06-12T05:52:56Z</time>
      </trkpt>
      <trkpt lat="49.18185" lon="-1.58411">
        <ele>7.7</ele>
        <time>2020-06-12T05:52:57Z</time>
      </trkpt>
      <trkpt lat="49.1819" lon="-1.58408">
        <ele>7.6</ele>
        <time>2020-06-12T05:52:58Z</time>
      </trkpt>
      <trkpt lat="49.18195" lon="-1.58404">
        <ele>7.6</ele>
        <time>2020-06-12T05:52:59Z</time>
      </trkpt>
      <trkpt lat="49.18201" lon="-1.584">
        <ele>7.6</ele>
        <time>2020-06-12T05:53:00Z</time>
      </trkpt>
      <trkpt lat="49.18206" lon="-1.58396">
        <ele>7.5</ele>
        <time>2020-06-12T05:53:01Z</time>
      </trkpt>
      <trkpt lat="49.18212" lon="-1.58392">
        <ele>7.5</ele>
        <time>2020-06-12T05:53:02Z</time>
      </trkpt>
      <trkpt lat="49.18218" lon="-1.58388">
        <ele>7.5</ele>
        <time>2020-06-12T05:53:03Z</time>
      </trkpt>
      <trkpt lat="49.18223" lon="-1.58384">
        <ele>7.4</ele>
        <time>2020-06-12T05:53:04Z</time>
      </trkpt>
      <trkpt lat="49.18229" lon="-1.58381">
        <ele>7.4</ele>
        <time>2020-06-12T05:53:05Z</time>
      </trkpt>
      <trkpt lat="49.18236" lon="-1.58378">
        <ele>7.4</ele>
        <time>2020-06-12T05:53:06Z</time>
      </trkpt>
      <trkpt lat="49.18242" lon="-1.58376">
        <ele>7.4</ele>
        <time>2020-06-12T05:53:07Z</time>
      </trkpt>
      <trkpt lat="49.18248" lon="-1.58373">
        <ele>7.4</ele>
        <time>2020-06-12T05:53:08Z</time>
      </trkpt>
      <trkpt lat="49.18254" lon="-1.58371">
        <ele>7.3</ele>
        <time>2020-06-12T05:53:09Z</time>
      </trkpt>
      <trkpt lat="49.1826" lon="-1.58369">
        <ele>7.3</ele>
        <time>2020-06-12T05:53:10Z</time>
      </trkpt>
      <trkpt lat="49.18266" lon="-1.58366">
        <ele>7.3</ele>
        <time>2020-06-12T05:53:11Z</time>
      </trkpt>
      <trkpt lat="49.18272" lon="-1.58364">
        <ele>7.3</ele>
        <time>2020-06-12T05:53:12Z</time>
      </trkpt>
      <trkpt lat="49.18277" lon="-1.58361">
        <ele>7.3</ele>
        <time>2020-06-12T05:53:13Z</time>
      </trkpt>
      <trkpt lat="49.18284" lon="-1.58359">
        <ele>7.4</ele>
        <time>2020-06-12T05:53:14Z</time>
      </trkpt>
      <trkpt lat="49.1829" lon="-1.58356">
        <ele>7.4</ele>
        <time>2020-06-12T05:53:15Z</time>
      </trkpt>
      <trkpt lat="49.18296" lon="-1.58354">
        <ele>7.3</ele>
        <time>2020-06-12T05:53:16Z</time>
      </trkpt>
      <trkpt lat="49.18301" lon="-1.58352">
        <ele>7.1</ele>
        <time>2020-06-12T05:53:17Z</time>
      </trkpt>
      <trkpt lat="49.18306" lon="-1.58349">
        <ele>7</ele>
        <time>2020-06-12T05:53:18Z</time>
      </trkpt>
      <trkpt lat="49.18312" lon="-1.58347">
        <ele>6.9</ele>
        <time>2020-06-12T05:53:19Z</time>
      </trkpt>
      <trkpt lat="49.18318" lon="-1.58344">
        <ele>6.9</ele>
        <time>2020-06-12T05:53:20Z</time>
      </trkpt>
      <trkpt lat="49.18324" lon="-1.58342">
        <ele>6.9</ele>
        <time>2020-06-12T05:53:21Z</time>
      </trkpt>
      <trkpt lat="49.1833" lon="-1.5834">
        <ele>6.9</ele>
        <time>2020-06-12T05:53:22Z</time>
      </trkpt>
      <trkpt lat="49.18335" lon="-1.58337">
        <ele>6.8</ele>
        <time>2020-06-12T05:53:23Z</time>
      </trkpt>
      <trkpt lat="49.18341" lon="-1.58335">
        <ele>6.8</ele>
        <time>2020-06-12T05:53:24Z</time>
      </trkpt>
      <trkpt lat="49.18346" lon="-1.58332">
        <ele>6.8</ele>
        <time>2020-06-12T05:53:25Z</time>
      </trkpt>
      <trkpt lat="49.18352" lon="-1.58331">
        <ele>6.7</ele>
        <time>2020-06-12T05:53:26Z</time>
      </trkpt>
      <trkpt lat="49.18357" lon="-1.58329">
        <ele>6.7</ele>
        <time>2020-06-12T05:53:27Z</time>
      </trkpt>
      <trkpt lat="49.18363" lon="-1.58326">
        <ele>6.7</ele>
        <time>2020-06-12T05:53:28Z</time>
      </trkpt>
      <trkpt lat="49.18369" lon="-1.58324">
        <ele>6.7</ele>
        <time>2020-06-12T05:53:29Z</time>
      </trkpt>
      <trkpt lat="49.18374" lon="-1.58321">
        <ele>6.6</ele>
        <time>2020-06-12T05:53:30Z</time>
      </trkpt>
      <trkpt lat="49.1838" lon="-1.58319">
        <ele>6.6</ele>
        <time>2020-06-12T05:53:31Z</time>
      </trkpt>
      <trkpt lat="49.18386" lon="-1.58317">
        <ele>6.6</ele>
        <time>2020-06-12T05:53:32Z</time>
      </trkpt>
      <trkpt lat="49.18391" lon="-1.58316">
        <ele>6.6</ele>
        <time>2020-06-12T05:53:33Z</time>
      </trkpt>
      <trkpt lat="49.18396" lon="-1.58314">
        <ele>6.6</ele>
        <time>2020-06-12T05:53:34Z</time>
      </trkpt>
      <trkpt lat="49.18402" lon="-1.58312">
        <ele>6.6</ele>
        <time>2020-06-12T05:53:35Z</time>
      </trkpt>
      <trkpt lat="49.18408" lon="-1.5831">
        <ele>6.7</ele>
        <time>2020-06-12T05:53:36Z</time>
      </trkpt>
      <trkpt lat="49.18414" lon="-1.58308">
        <ele>6.7</ele>
        <time>2020-06-12T05:53:37Z</time>
      </trkpt>
      <trkpt lat="49.18417" lon="-1.58306">
        <ele>6.7</ele>
        <time>2020-06-12T05:53:38Z</time>
      </trkpt>
      <trkpt lat="49.18422" lon="-1.58304">
        <ele>6.7</ele>
        <time>2020-06-12T05:53:39Z</time>
      </trkpt>
      <trkpt lat="49.18427" lon="-1.58302">
        <ele>6.8</ele>
        <time>2020-06-12T05:53:40Z</time>
      </trkpt>
      <trkpt lat="49.18433" lon="-1.58299">
        <ele>6.9</ele>
        <time>2020-06-12T05:53:41Z</time>
      </trkpt>
      <trkpt lat="49.18438" lon="-1.58296">
        <ele>7</ele>
        <time>2020-06-12T05:53:42Z</time>
      </trkpt>
      <trkpt lat="49.18444" lon="-1.58293">
        <ele>7.2</ele>
        <time>2020-06-12T05:53:43Z</time>
      </trkpt>
      <trkpt lat="49.1845" lon="-1.58291">
        <ele>7.1</ele>
        <time>2020-06-12T05:53:44Z</time>
      </trkpt>
      <trkpt lat="49.18455" lon="-1.58289">
        <ele>7</ele>
        <time>2020-06-12T05:53:45Z</time>
      </trkpt>
      <trkpt lat="49.18461" lon="-1.58287">
        <ele>7</ele>
        <time>2020-06-12T05:53:46Z</time>
      </trkpt>
      <trkpt lat="49.18467" lon="-1.58286">
        <ele>7</ele>
        <time>2020-06-12T05:53:47Z</time>
      </trkpt>
      <trkpt lat="49.18472" lon="-1.58283">
        <ele>7</ele>
        <time>2020-06-12T05:53:48Z</time>
      </trkpt>
      <trkpt lat="49.18478" lon="-1.58281">
        <ele>7</ele>
        <time>2020-06-12T05:53:49Z</time>
      </trkpt>
      <trkpt lat="49.18483" lon="-1.58279">
        <ele>7</ele>
        <time>2020-06-12T05:53:50Z</time>
      </trkpt>
      <trkpt lat="49.18487" lon="-1.58277">
        <ele>7.1</ele>
        <time>2020-06-12T05:53:51Z</time>
      </trkpt>
      <trkpt lat="49.18491" lon="-1.58275">
        <ele>7.1</ele>
        <time>2020-06-12T05:53:52Z</time>
      </trkpt>
      <trkpt lat="49.18496" lon="-1.58273">
        <ele>7.1</ele>
        <time>2020-06-12T05:53:53Z</time>
      </trkpt>
      <trkpt lat="49.18501" lon="-1.5827">
        <ele>7.2</ele>
        <time>2020-06-12T05:53:54Z</time>
      </trkpt>
      <trkpt lat="49.18506" lon="-1.58269">
        <ele>7.2</ele>
        <time>2020-06-12T05:53:55Z</time>
      </trkpt>
      <trkpt lat="49.18511" lon="-1.58267">
        <ele>7.3</ele>
        <time>2020-06-12T05:53:56Z</time>
      </trkpt>
      <trkpt lat="49.18516" lon="-1.58266">
        <ele>7.3</ele>
        <time>2020-06-12T05:53:57Z</time>
      </trkpt>
      <trkpt lat="49.18521" lon="-1.58263">
        <ele>7.3</ele>
        <time>2020-06-12T05:53:58Z</time>
      </trkpt>
      <trkpt lat="49.18526" lon="-1.58261">
        <ele>7.3</ele>
        <time>2020-06-12T05:53:59Z</time>
      </trkpt>
      <trkpt lat="49.1853" lon="-1.58259">
        <ele>7.3</ele>
        <time>2020-06-12T05:54:00Z</time>
      </trkpt>
      <trkpt lat="49.18535" lon="-1.58257">
        <ele>7.4</ele>
        <time>2020-06-12T05:54:01Z</time>
      </trkpt>
      <trkpt lat="49.18541" lon="-1.58254">
        <ele>7.4</ele>
        <time>2020-06-12T05:54:02Z</time>
      </trkpt>
      <trkpt lat="49.18546" lon="-1.58252">
        <ele>7.4</ele>
        <time>2020-06-12T05:54:03Z</time>
      </trkpt>
      <trkpt lat="49.18551" lon="-1.58249">
        <ele>7.5</ele>
        <time>2020-06-12T05:54:04Z</time>
      </trkpt>
      <trkpt lat="49.18556" lon="-1.58247">
        <ele>7.5</ele>
        <time>2020-06-12T05:54:05Z</time>
      </trkpt>
      <trkpt lat="49.18562" lon="-1.58246">
        <ele>7.5</ele>
        <time>2020-06-12T05:54:06Z</time>
      </trkpt>
      <trkpt lat="49.18567" lon="-1.58245">
        <ele>7.5</ele>
        <time>2020-06-12T05:54:07Z</time>
      </trkpt>
      <trkpt lat="49.18573" lon="-1.58243">
        <ele>7.6</ele>
        <time>2020-06-12T05:54:08Z</time>
      </trkpt>
      <trkpt lat="49.18578" lon="-1.58242">
        <ele>7.6</ele>
        <time>2020-06-12T05:54:09Z</time>
      </trkpt>
      <trkpt lat="49.18584" lon="-1.5824">
        <ele>7.6</ele>
        <time>2020-06-12T05:54:10Z</time>
      </trkpt>
      <trkpt lat="49.18589" lon="-1.58238">
        <ele>7.6</ele>
        <time>2020-06-12T05:54:11Z</time>
      </trkpt>
      <trkpt lat="49.18594" lon="-1.58235">
        <ele>7.5</ele>
        <time>2020-06-12T05:54:12Z</time>
      </trkpt>
      <trkpt lat="49.18599" lon="-1.58233">
        <ele>7.5</ele>
        <time>2020-06-12T05:54:13Z</time>
      </trkpt>
      <trkpt lat="49.18604" lon="-1.58231">
        <ele>7.5</ele>
        <time>2020-06-12T05:54:14Z</time>
      </trkpt>
      <trkpt lat="49.18609" lon="-1.58229">
        <ele>7.5</ele>
        <time>2020-06-12T05:54:15Z</time>
      </trkpt>
      <trkpt lat="49.18613" lon="-1.58227">
        <ele>7.6</ele>
        <time>2020-06-12T05:54:16Z</time>
      </trkpt>
      <trkpt lat="49.18618" lon="-1.58225">
        <ele>7.6</ele>
        <time>2020-06-12T05:54:17Z</time>
      </trkpt>
      <trkpt lat="49.18623" lon="-1.58222">
        <ele>7.6</ele>
        <time>2020-06-12T05:54:18Z</time>
      </trkpt>
      <trkpt lat="49.18629" lon="-1.5822">
        <ele>7.6</ele>
        <time>2020-06-12T05:54:19Z</time>
      </trkpt>
      <trkpt lat="49.18634" lon="-1.58217">
        <ele>7.7</ele>
        <time>2020-06-12T05:54:20Z</time>
      </trkpt>
      <trkpt lat="49.18639" lon="-1.58214">
        <ele>7.7</ele>
        <time>2020-06-12T05:54:21Z</time>
      </trkpt>
      <trkpt lat="49.18644" lon="-1.58213">
        <ele>7.7</ele>
        <time>2020-06-12T05:54:22Z</time>
      </trkpt>
      <trkpt lat="49.18649" lon="-1.5821">
        <ele>7.7</ele>
        <time>2020-06-12T05:54:23Z</time>
      </trkpt>
      <trkpt lat="49.18654" lon="-1.58208">
        <ele>7.7</ele>
        <time>2020-06-12T05:54:24Z</time>
      </trkpt>
      <trkpt lat="49.1866" lon="-1.58207">
        <ele>7.7</ele>
        <time>2020-06-12T05:54:25Z</time>
      </trkpt>
      <trkpt lat="49.18663" lon="-1.58204">
        <ele>7.7</ele>
        <time>2020-06-12T05:54:26Z</time>
      </trkpt>
      <trkpt lat="49.18669" lon="-1.58202">
        <ele>7.7</ele>
        <time>2020-06-12T05:54:27Z</time>
      </trkpt>
      <trkpt lat="49.18675" lon="-1.58199">
        <ele>7.7</ele>
        <time>2020-06-12T05:54:28Z</time>
      </trkpt>
      <trkpt lat="49.1868" lon="-1.58197">
        <ele>7.7</ele>
        <time>2020-06-12T05:54:29Z</time>
      </trkpt>
      <trkpt lat="49.18685" lon="-1.58195">
        <ele>7.6</ele>
        <time>2020-06-12T05:54:30Z</time>
      </trkpt>
      <trkpt lat="49.18691" lon="-1.58193">
        <ele>7.6</ele>
        <time>2020-06-12T05:54:31Z</time>
      </trkpt>
      <trkpt lat="49.18696" lon="-1.58191">
        <ele>7.7</ele>
        <time>2020-06-12T05:54:32Z</time>
      </trkpt>
      <trkpt lat="49.18702" lon="-1.58189">
        <ele>7.7</ele>
        <time>2020-06-12T05:54:33Z</time>
      </trkpt>
      <trkpt lat="49.18707" lon="-1.58188">
        <ele>7.7</ele>
        <time>2020-06-12T05:54:34Z</time>
      </trkpt>
      <trkpt lat="49.18712" lon="-1.58187">
        <ele>7.7</ele>
        <time>2020-06-12T05:54:35Z</time>
      </trkpt>
      <trkpt lat="49.18717" lon="-1.58186">
        <ele>7.7</ele>
        <time>2020-06-12T05:54:36Z</time>
      </trkpt>
      <trkpt lat="49.18723" lon="-1.58184">
        <ele>7.7</ele>
        <time>2020-06-12T05:54:37Z</time>
      </trkpt>
      <trkpt lat="49.18728" lon="-1.58182">
        <ele>7.7</ele>
        <time>2020-06-12T05:54:38Z</time>
      </trkpt>
      <trkpt lat="49.18734" lon="-1.58181">
        <ele>7.7</ele>
        <time>2020-06-12T05:54:39Z</time>
      </trkpt>
      <trkpt lat="49.1874" lon="-1.58179">
        <ele>7.8</ele>
        <time>2020-06-12T05:54:40Z</time>
      </trkpt>
      <trkpt lat="49.18745" lon="-1.58177">
        <ele>7.8</ele>
        <time>2020-06-12T05:54:41Z</time>
      </trkpt>
      <trkpt lat="49.18751" lon="-1.58174">
        <ele>7.8</ele>
        <time>2020-06-12T05:54:42Z</time>
      </trkpt>
      <trkpt lat="49.18757" lon="-1.58172">
        <ele>7.8</ele>
        <time>2020-06-12T05:54:43Z</time>
      </trkpt>
      <trkpt lat="49.18762" lon="-1.5817">
        <ele>7.8</ele>
        <time>2020-06-12T05:54:44Z</time>
      </trkpt>
      <trkpt lat="49.18767" lon="-1.58168">
        <ele>7.8</ele>
        <time>2020-06-12T05:54:45Z</time>
      </trkpt>
      <trkpt lat="49.18772" lon="-1.58167">
        <ele>7.8</ele>
        <time>2020-06-12T05:54:46Z</time>
      </trkpt>
      <trkpt lat="49.18778" lon="-1.58165">
        <ele>7.8</ele>
        <time>2020-06-12T05:54:47Z</time>
      </trkpt>
      <trkpt lat="49.18783" lon="-1.58164">
        <ele>7.8</ele>
        <time>2020-06-12T05:54:48Z</time>
      </trkpt>
      <trkpt lat="49.18788" lon="-1.58163">
        <ele>7.8</ele>
        <time>2020-06-12T05:54:49Z</time>
      </trkpt>
      <trkpt lat="49.18793" lon="-1.58162">
        <ele>7.8</ele>
        <time>2020-06-12T05:54:50Z</time>
      </trkpt>
      <trkpt lat="49.18798" lon="-1.58161">
        <ele>7.8</ele>
        <time>2020-06-12T05:54:51Z</time>
      </trkpt>
      <trkpt lat="49.18804" lon="-1.58159">
        <ele>7.9</ele>
        <time>2020-06-12T05:54:52Z</time>
      </trkpt>
      <trkpt lat="49.18809" lon="-1.58158">
        <ele>7.9</ele>
        <time>2020-06-12T05:54:53Z</time>
      </trkpt>
      <trkpt lat="49.18814" lon="-1.58156">
        <ele>7.9</ele>
        <time>2020-06-12T05:54:54Z</time>
      </trkpt>
      <trkpt lat="49.18819" lon="-1.58154">
        <ele>7.9</ele>
        <time>2020-06-12T05:54:55Z</time>
      </trkpt>
      <trkpt lat="49.18824" lon="-1.58152">
        <ele>7.9</ele>
        <time>2020-06-12T05:54:56Z</time>
      </trkpt>
      <trkpt lat="49.18829" lon="-1.58151">
        <ele>8</ele>
        <time>2020-06-12T05:54:57Z</time>
      </trkpt>
      <trkpt lat="49.18834" lon="-1.58149">
        <ele>8</ele>
        <time>2020-06-12T05:54:58Z</time>
      </trkpt>
      <trkpt lat="49.18839" lon="-1.58147">
        <ele>8</ele>
        <time>2020-06-12T05:54:59Z</time>
      </trkpt>
      <trkpt lat="49.18844" lon="-1.58146">
        <ele>8</ele>
        <time>2020-06-12T05:55:00Z</time>
      </trkpt>
      <trkpt lat="49.18849" lon="-1.58144">
        <ele>8</ele>
        <time>2020-06-12T05:55:01Z</time>
      </trkpt>
      <trkpt lat="49.18856" lon="-1.58144">
        <ele>8</ele>
        <time>2020-06-12T05:55:02Z</time>
      </trkpt>
      <trkpt lat="49.18861" lon="-1.58143">
        <ele>8</ele>
        <time>2020-06-12T05:55:03Z</time>
      </trkpt>
      <trkpt lat="49.18867" lon="-1.58141">
        <ele>8.1</ele>
        <time>2020-06-12T05:55:04Z</time>
      </trkpt>
      <trkpt lat="49.18873" lon="-1.5814">
        <ele>8.1</ele>
        <time>2020-06-12T05:55:05Z</time>
      </trkpt>
      <trkpt lat="49.18879" lon="-1.58138">
        <ele>8.1</ele>
        <time>2020-06-12T05:55:06Z</time>
      </trkpt>
      <trkpt lat="49.18884" lon="-1.58137">
        <ele>8.1</ele>
        <time>2020-06-12T05:55:07Z</time>
      </trkpt>
      <trkpt lat="49.1889" lon="-1.58136">
        <ele>8.1</ele>
        <time>2020-06-12T05:55:08Z</time>
      </trkpt>
      <trkpt lat="49.18895" lon="-1.58134">
        <ele>8.1</ele>
        <time>2020-06-12T05:55:09Z</time>
      </trkpt>
      <trkpt lat="49.18901" lon="-1.58133">
        <ele>8.1</ele>
        <time>2020-06-12T05:55:10Z</time>
      </trkpt>
      <trkpt lat="49.18906" lon="-1.58132">
        <ele>8.1</ele>
        <time>2020-06-12T05:55:11Z</time>
      </trkpt>
      <trkpt lat="49.18912" lon="-1.58131">
        <ele>8.1</ele>
        <time>2020-06-12T05:55:12Z</time>
      </trkpt>
      <trkpt lat="49.18918" lon="-1.5813">
        <ele>8.1</ele>
        <time>2020-06-12T05:55:13Z</time>
      </trkpt>
      <trkpt lat="49.18923" lon="-1.58128">
        <ele>8.2</ele>
        <time>2020-06-12T05:55:14Z</time>
      </trkpt>
      <trkpt lat="49.18929" lon="-1.58127">
        <ele>8.2</ele>
        <time>2020-06-12T05:55:15Z</time>
      </trkpt>
      <trkpt lat="49.18934" lon="-1.58125">
        <ele>8.2</ele>
        <time>2020-06-12T05:55:16Z</time>
      </trkpt>
      <trkpt lat="49.1894" lon="-1.58124">
        <ele>8.2</ele>
        <time>2020-06-12T05:55:17Z</time>
      </trkpt>
      <trkpt lat="49.18945" lon="-1.58122">
        <ele>8.2</ele>
        <time>2020-06-12T05:55:18Z</time>
      </trkpt>
      <trkpt lat="49.1895" lon="-1.5812">
        <ele>8.3</ele>
        <time>2020-06-12T05:55:19Z</time>
      </trkpt>
      <trkpt lat="49.18955" lon="-1.58119">
        <ele>8.3</ele>
        <time>2020-06-12T05:55:20Z</time>
      </trkpt>
      <trkpt lat="49.1896" lon="-1.58117">
        <ele>8.4</ele>
        <time>2020-06-12T05:55:21Z</time>
      </trkpt>
      <trkpt lat="49.18965" lon="-1.58116">
        <ele>8.5</ele>
        <time>2020-06-12T05:55:22Z</time>
      </trkpt>
      <trkpt lat="49.18971" lon="-1.58115">
        <ele>8.6</ele>
        <time>2020-06-12T05:55:23Z</time>
      </trkpt>
      <trkpt lat="49.18977" lon="-1.58113">
        <ele>8.6</ele>
        <time>2020-06-12T05:55:24Z</time>
      </trkpt>
      <trkpt lat="49.18982" lon="-1.58112">
        <ele>8.6</ele>
        <time>2020-06-12T05:55:25Z</time>
      </trkpt>
      <trkpt lat="49.18988" lon="-1.5811">
        <ele>8.6</ele>
        <time>2020-06-12T05:55:26Z</time>
      </trkpt>
      <trkpt lat="49.18993" lon="-1.58109">
        <ele>8.6</ele>
        <time>2020-06-12T05:55:27Z</time>
      </trkpt>
      <trkpt lat="49.18999" lon="-1.58107">
        <ele>8.6</ele>
        <time>2020-06-12T05:55:28Z</time>
      </trkpt>
      <trkpt lat="49.19004" lon="-1.58106">
        <ele>8.6</ele>
        <time>2020-06-12T05:55:29Z</time>
      </trkpt>
      <trkpt lat="49.19009" lon="-1.58104">
        <ele>8.6</ele>
        <time>2020-06-12T05:55:30Z</time>
      </trkpt>
      <trkpt lat="49.19014" lon="-1.58102">
        <ele>8.6</ele>
        <time>2020-06-12T05:55:31Z</time>
      </trkpt>
      <trkpt lat="49.1902" lon="-1.58101">
        <ele>8.6</ele>
        <time>2020-06-12T05:55:32Z</time>
      </trkpt>
      <trkpt lat="49.19025" lon="-1.581">
        <ele>8.7</ele>
        <time>2020-06-12T05:55:33Z</time>
      </trkpt>
      <trkpt lat="49.19031" lon="-1.58098">
        <ele>8.7</ele>
        <time>2020-06-12T05:55:34Z</time>
      </trkpt>
      <trkpt lat="49.19036" lon="-1.58096">
        <ele>8.8</ele>
        <time>2020-06-12T05:55:35Z</time>
      </trkpt>
      <trkpt lat="49.19041" lon="-1.58095">
        <ele>8.8</ele>
        <time>2020-06-12T05:55:36Z</time>
      </trkpt>
      <trkpt lat="49.19046" lon="-1.58093">
        <ele>8.8</ele>
        <time>2020-06-12T05:55:37Z</time>
      </trkpt>
      <trkpt lat="49.19052" lon="-1.58091">
        <ele>8.8</ele>
        <time>2020-06-12T05:55:38Z</time>
      </trkpt>
      <trkpt lat="49.19057" lon="-1.5809">
        <ele>8.8</ele>
        <time>2020-06-12T05:55:39Z</time>
      </trkpt>
      <trkpt lat="49.19063" lon="-1.58088">
        <ele>8.8</ele>
        <time>2020-06-12T05:55:40Z</time>
      </trkpt>
      <trkpt lat="49.19068" lon="-1.58086">
        <ele>8.8</ele>
        <time>2020-06-12T05:55:41Z</time>
      </trkpt>
      <trkpt lat="49.19074" lon="-1.58084">
        <ele>8.8</ele>
        <time>2020-06-12T05:55:42Z</time>
      </trkpt>
      <trkpt lat="49.19079" lon="-1.58082">
        <ele>8.8</ele>
        <time>2020-06-12T05:55:43Z</time>
      </trkpt>
      <trkpt lat="49.19085" lon="-1.5808">
        <ele>8.8</ele>
        <time>2020-06-12T05:55:44Z</time>
      </trkpt>
      <trkpt lat="49.19089" lon="-1.58078">
        <ele>8.8</ele>
        <time>2020-06-12T05:55:45Z</time>
      </trkpt>
      <trkpt lat="49.19094" lon="-1.58076">
        <ele>8.8</ele>
        <time>2020-06-12T05:55:46Z</time>
      </trkpt>
      <trkpt lat="49.19099" lon="-1.58073">
        <ele>8.8</ele>
        <time>2020-06-12T05:55:47Z</time>
      </trkpt>
      <trkpt lat="49.19104" lon="-1.5807">
        <ele>8.8</ele>
        <time>2020-06-12T05:55:48Z</time>
      </trkpt>
      <trkpt lat="49.19109" lon="-1.58068">
        <ele>8.8</ele>
        <time>2020-06-12T05:55:49Z</time>
      </trkpt>
      <trkpt lat="49.19114" lon="-1.58066">
        <ele>8.8</ele>
        <time>2020-06-12T05:55:50Z</time>
      </trkpt>
      <trkpt lat="49.1912" lon="-1.58063">
        <ele>8.9</ele>
        <time>2020-06-12T05:55:51Z</time>
      </trkpt>
      <trkpt lat="49.19127" lon="-1.58061">
        <ele>8.9</ele>
        <time>2020-06-12T05:55:52Z</time>
      </trkpt>
      <trkpt lat="49.19132" lon="-1.58058">
        <ele>9</ele>
        <time>2020-06-12T05:55:53Z</time>
      </trkpt>
      <trkpt lat="49.19137" lon="-1.58055">
        <ele>9</ele>
        <time>2020-06-12T05:55:54Z</time>
      </trkpt>
      <trkpt lat="49.19142" lon="-1.58052">
        <ele>9</ele>
        <time>2020-06-12T05:55:55Z</time>
      </trkpt>
      <trkpt lat="49.19147" lon="-1.58049">
        <ele>9</ele>
        <time>2020-06-12T05:55:56Z</time>
      </trkpt>
      <trkpt lat="49.19152" lon="-1.58046">
        <ele>8.9</ele>
        <time>2020-06-12T05:55:57Z</time>
      </trkpt>
      <trkpt lat="49.19157" lon="-1.58043">
        <ele>8.9</ele>
        <time>2020-06-12T05:55:58Z</time>
      </trkpt>
      <trkpt lat="49.19162" lon="-1.5804">
        <ele>8.9</ele>
        <time>2020-06-12T05:55:59Z</time>
      </trkpt>
      <trkpt lat="49.19167" lon="-1.58037">
        <ele>9</ele>
        <time>2020-06-12T05:56:00Z</time>
      </trkpt>
      <trkpt lat="49.19173" lon="-1.58035">
        <ele>9</ele>
        <time>2020-06-12T05:56:01Z</time>
      </trkpt>
      <trkpt lat="49.19178" lon="-1.58032">
        <ele>9</ele>
        <time>2020-06-12T05:56:02Z</time>
      </trkpt>
      <trkpt lat="49.19182" lon="-1.58029">
        <ele>8.9</ele>
        <time>2020-06-12T05:56:03Z</time>
      </trkpt>
      <trkpt lat="49.19187" lon="-1.58026">
        <ele>8.9</ele>
        <time>2020-06-12T05:56:04Z</time>
      </trkpt>
      <trkpt lat="49.19192" lon="-1.58022">
        <ele>8.8</ele>
        <time>2020-06-12T05:56:05Z</time>
      </trkpt>
      <trkpt lat="49.19197" lon="-1.58019">
        <ele>8.8</ele>
        <time>2020-06-12T05:56:06Z</time>
      </trkpt>
      <trkpt lat="49.19203" lon="-1.58016">
        <ele>8.7</ele>
        <time>2020-06-12T05:56:07Z</time>
      </trkpt>
      <trkpt lat="49.19207" lon="-1.58012">
        <ele>8.7</ele>
        <time>2020-06-12T05:56:08Z</time>
      </trkpt>
      <trkpt lat="49.19213" lon="-1.58008">
        <ele>8.7</ele>
        <time>2020-06-12T05:56:09Z</time>
      </trkpt>
      <trkpt lat="49.19218" lon="-1.58004">
        <ele>8.7</ele>
        <time>2020-06-12T05:56:10Z</time>
      </trkpt>
      <trkpt lat="49.19223" lon="-1.57999">
        <ele>8.6</ele>
        <time>2020-06-12T05:56:11Z</time>
      </trkpt>
      <trkpt lat="49.19228" lon="-1.57995">
        <ele>8.6</ele>
        <time>2020-06-12T05:56:12Z</time>
      </trkpt>
      <trkpt lat="49.19232" lon="-1.5799">
        <ele>8.6</ele>
        <time>2020-06-12T05:56:13Z</time>
      </trkpt>
      <trkpt lat="49.19236" lon="-1.57986">
        <ele>8.6</ele>
        <time>2020-06-12T05:56:14Z</time>
      </trkpt>
      <trkpt lat="49.19239" lon="-1.57982">
        <ele>8.6</ele>
        <time>2020-06-12T05:56:15Z</time>
      </trkpt>
      <trkpt lat="49.19244" lon="-1.5798">
        <ele>8.6</ele>
        <time>2020-06-12T05:56:16Z</time>
      </trkpt>
      <trkpt lat="49.19248" lon="-1.57976">
        <ele>8.6</ele>
        <time>2020-06-12T05:56:17Z</time>
      </trkpt>
      <trkpt lat="49.19253" lon="-1.57972">
        <ele>8.6</ele>
        <time>2020-06-12T05:56:18Z</time>
      </trkpt>
      <trkpt lat="49.19257" lon="-1.57968">
        <ele>8.6</ele>
        <time>2020-06-12T05:56:19Z</time>
      </trkpt>
      <trkpt lat="49.19262" lon="-1.57963">
        <ele>8.5</ele>
        <time>2020-06-12T05:56:20Z</time>
      </trkpt>
      <trkpt lat="49.19266" lon="-1.5796">
        <ele>8.5</ele>
        <time>2020-06-12T05:56:21Z</time>
      </trkpt>
      <trkpt lat="49.1927" lon="-1.57956">
        <ele>8.5</ele>
        <time>2020-06-12T05:56:22Z</time>
      </trkpt>
      <trkpt lat="49.19275" lon="-1.57952">
        <ele>8.4</ele>
        <time>2020-06-12T05:56:23Z</time>
      </trkpt>
      <trkpt lat="49.1928" lon="-1.57947">
        <ele>8.4</ele>
        <time>2020-06-12T05:56:24Z</time>
      </trkpt>
      <trkpt lat="49.19285" lon="-1.57943">
        <ele>8.4</ele>
        <time>2020-06-12T05:56:25Z</time>
      </trkpt>
      <trkpt lat="49.1929" lon="-1.57939">
        <ele>8.4</ele>
        <time>2020-06-12T05:56:26Z</time>
      </trkpt>
      <trkpt lat="49.19295" lon="-1.57935">
        <ele>8.4</ele>
        <time>2020-06-12T05:56:27Z</time>
      </trkpt>
      <trkpt lat="49.19299" lon="-1.5793">
        <ele>8.4</ele>
        <time>2020-06-12T05:56:28Z</time>
      </trkpt>
      <trkpt lat="49.19303" lon="-1.57927">
        <ele>8.4</ele>
        <time>2020-06-12T05:56:29Z</time>
      </trkpt>
      <trkpt lat="49.19308" lon="-1.57923">
        <ele>8.4</ele>
        <time>2020-06-12T05:56:30Z</time>
      </trkpt>
      <trkpt lat="49.19312" lon="-1.57918">
        <ele>8.4</ele>
        <time>2020-06-12T05:56:31Z</time>
      </trkpt>
      <trkpt lat="49.19317" lon="-1.57915">
        <ele>8.4</ele>
        <time>2020-06-12T05:56:32Z</time>
      </trkpt>
      <trkpt lat="49.19322" lon="-1.57911">
        <ele>8.4</ele>
        <time>2020-06-12T05:56:33Z</time>
      </trkpt>
      <trkpt lat="49.19327" lon="-1.57907">
        <ele>8.5</ele>
        <time>2020-06-12T05:56:34Z</time>
      </trkpt>
      <trkpt lat="49.19331" lon="-1.57903">
        <ele>8.5</ele>
        <time>2020-06-12T05:56:35Z</time>
      </trkpt>
      <trkpt lat="49.19335" lon="-1.57899">
        <ele>8.4</ele>
        <time>2020-06-12T05:56:36Z</time>
      </trkpt>
      <trkpt lat="49.1934" lon="-1.57895">
        <ele>8.4</ele>
        <time>2020-06-12T05:56:37Z</time>
      </trkpt>
      <trkpt lat="49.19345" lon="-1.57891">
        <ele>8.4</ele>
        <time>2020-06-12T05:56:38Z</time>
      </trkpt>
      <trkpt lat="49.19349" lon="-1.57887">
        <ele>8.4</ele>
        <time>2020-06-12T05:56:39Z</time>
      </trkpt>
      <trkpt lat="49.19354" lon="-1.57883">
        <ele>8.4</ele>
        <time>2020-06-12T05:56:40Z</time>
      </trkpt>
      <trkpt lat="49.19358" lon="-1.57879">
        <ele>8.4</ele>
        <time>2020-06-12T05:56:41Z</time>
      </trkpt>
      <trkpt lat="49.19363" lon="-1.57876">
        <ele>8.3</ele>
        <time>2020-06-12T05:56:42Z</time>
      </trkpt>
      <trkpt lat="49.19367" lon="-1.57872">
        <ele>8.3</ele>
        <time>2020-06-12T05:56:43Z</time>
      </trkpt>
      <trkpt lat="49.19372" lon="-1.57868">
        <ele>8.3</ele>
        <time>2020-06-12T05:56:44Z</time>
      </trkpt>
      <trkpt lat="49.19376" lon="-1.57864">
        <ele>8.3</ele>
        <time>2020-06-12T05:56:45Z</time>
      </trkpt>
      <trkpt lat="49.19381" lon="-1.5786">
        <ele>8.3</ele>
        <time>2020-06-12T05:56:46Z</time>
      </trkpt>
      <trkpt lat="49.19386" lon="-1.57856">
        <ele>8.3</ele>
        <time>2020-06-12T05:56:47Z</time>
      </trkpt>
      <trkpt lat="49.1939" lon="-1.57852">
        <ele>8.3</ele>
        <time>2020-06-12T05:56:48Z</time>
      </trkpt>
      <trkpt lat="49.19395" lon="-1.57848">
        <ele>8.2</ele>
        <time>2020-06-12T05:56:49Z</time>
      </trkpt>
      <trkpt lat="49.19399" lon="-1.57845">
        <ele>8.2</ele>
        <time>2020-06-12T05:56:50Z</time>
      </trkpt>
      <trkpt lat="49.19405" lon="-1.57841">
        <ele>8.2</ele>
        <time>2020-06-12T05:56:51Z</time>
      </trkpt>
      <trkpt lat="49.19409" lon="-1.57839">
        <ele>8.2</ele>
        <time>2020-06-12T05:56:52Z</time>
      </trkpt>
      <trkpt lat="49.19413" lon="-1.57836">
        <ele>8.3</ele>
        <time>2020-06-12T05:56:53Z</time>
      </trkpt>
      <trkpt lat="49.19419" lon="-1.57832">
        <ele>8.3</ele>
        <time>2020-06-12T05:56:54Z</time>
      </trkpt>
      <trkpt lat="49.19423" lon="-1.5783">
        <ele>8.3</ele>
        <time>2020-06-12T05:56:55Z</time>
      </trkpt>
      <trkpt lat="49.19428" lon="-1.57827">
        <ele>8.3</ele>
        <time>2020-06-12T05:56:56Z</time>
      </trkpt>
      <trkpt lat="49.19433" lon="-1.57824">
        <ele>8.3</ele>
        <time>2020-06-12T05:56:57Z</time>
      </trkpt>
      <trkpt lat="49.19437" lon="-1.57819">
        <ele>8.3</ele>
        <time>2020-06-12T05:56:58Z</time>
      </trkpt>
      <trkpt lat="49.19442" lon="-1.57817">
        <ele>8.3</ele>
        <time>2020-06-12T05:56:59Z</time>
      </trkpt>
      <trkpt lat="49.19447" lon="-1.57815">
        <ele>8.2</ele>
        <time>2020-06-12T05:57:00Z</time>
      </trkpt>
      <trkpt lat="49.19452" lon="-1.57812">
        <ele>8.2</ele>
        <time>2020-06-12T05:57:01Z</time>
      </trkpt>
      <trkpt lat="49.19457" lon="-1.57809">
        <ele>8.2</ele>
        <time>2020-06-12T05:57:02Z</time>
      </trkpt>
      <trkpt lat="49.19462" lon="-1.57806">
        <ele>8.2</ele>
        <time>2020-06-12T05:57:03Z</time>
      </trkpt>
      <trkpt lat="49.19467" lon="-1.57803">
        <ele>8.2</ele>
        <time>2020-06-12T05:57:04Z</time>
      </trkpt>
      <trkpt lat="49.19472" lon="-1.578">
        <ele>8.2</ele>
        <time>2020-06-12T05:57:05Z</time>
      </trkpt>
      <trkpt lat="49.19476" lon="-1.57799">
        <ele>8.2</ele>
        <time>2020-06-12T05:57:06Z</time>
      </trkpt>
      <trkpt lat="49.19481" lon="-1.57797">
        <ele>8.2</ele>
        <time>2020-06-12T05:57:07Z</time>
      </trkpt>
      <trkpt lat="49.19486" lon="-1.57794">
        <ele>8.1</ele>
        <time>2020-06-12T05:57:08Z</time>
      </trkpt>
      <trkpt lat="49.19492" lon="-1.57791">
        <ele>8.1</ele>
        <time>2020-06-12T05:57:09Z</time>
      </trkpt>
      <trkpt lat="49.19497" lon="-1.57789">
        <ele>8.1</ele>
        <time>2020-06-12T05:57:10Z</time>
      </trkpt>
      <trkpt lat="49.19502" lon="-1.57786">
        <ele>8</ele>
        <time>2020-06-12T05:57:11Z</time>
      </trkpt>
      <trkpt lat="49.19508" lon="-1.57784">
        <ele>8</ele>
        <time>2020-06-12T05:57:12Z</time>
      </trkpt>
      <trkpt lat="49.19514" lon="-1.57782">
        <ele>8</ele>
        <time>2020-06-12T05:57:13Z</time>
      </trkpt>
      <trkpt lat="49.19519" lon="-1.57781">
        <ele>8</ele>
        <time>2020-06-12T05:57:14Z</time>
      </trkpt>
      <trkpt lat="49.19525" lon="-1.57779">
        <ele>8</ele>
        <time>2020-06-12T05:57:15Z</time>
      </trkpt>
      <trkpt lat="49.1953" lon="-1.57776">
        <ele>8</ele>
        <time>2020-06-12T05:57:16Z</time>
      </trkpt>
      <trkpt lat="49.19536" lon="-1.57773">
        <ele>8</ele>
        <time>2020-06-12T05:57:17Z</time>
      </trkpt>
      <trkpt lat="49.19541" lon="-1.57771">
        <ele>8</ele>
        <time>2020-06-12T05:57:18Z</time>
      </trkpt>
      <trkpt lat="49.19546" lon="-1.57767">
        <ele>8</ele>
        <time>2020-06-12T05:57:19Z</time>
      </trkpt>
      <trkpt lat="49.19551" lon="-1.57764">
        <ele>7.9</ele>
        <time>2020-06-12T05:57:20Z</time>
      </trkpt>
      <trkpt lat="49.19556" lon="-1.57761">
        <ele>7.9</ele>
        <time>2020-06-12T05:57:21Z</time>
      </trkpt>
      <trkpt lat="49.1956" lon="-1.5776">
        <ele>7.9</ele>
        <time>2020-06-12T05:57:22Z</time>
      </trkpt>
      <trkpt lat="49.19565" lon="-1.57757">
        <ele>7.9</ele>
        <time>2020-06-12T05:57:23Z</time>
      </trkpt>
      <trkpt lat="49.1957" lon="-1.57756">
        <ele>7.9</ele>
        <time>2020-06-12T05:57:24Z</time>
      </trkpt>
      <trkpt lat="49.19574" lon="-1.57753">
        <ele>7.9</ele>
        <time>2020-06-12T05:57:25Z</time>
      </trkpt>
      <trkpt lat="49.1958" lon="-1.57751">
        <ele>7.9</ele>
        <time>2020-06-12T05:57:26Z</time>
      </trkpt>
      <trkpt lat="49.19585" lon="-1.57749">
        <ele>7.8</ele>
        <time>2020-06-12T05:57:27Z</time>
      </trkpt>
      <trkpt lat="49.1959" lon="-1.57747">
        <ele>7.8</ele>
        <time>2020-06-12T05:57:28Z</time>
      </trkpt>
      <trkpt lat="49.19595" lon="-1.57744">
        <ele>7.8</ele>
        <time>2020-06-12T05:57:29Z</time>
      </trkpt>
      <trkpt lat="49.196" lon="-1.57742">
        <ele>7.8</ele>
        <time>2020-06-12T05:57:30Z</time>
      </trkpt>
      <trkpt lat="49.19605" lon="-1.5774">
        <ele>7.8</ele>
        <time>2020-06-12T05:57:31Z</time>
      </trkpt>
      <trkpt lat="49.19611" lon="-1.57738">
        <ele>7.8</ele>
        <time>2020-06-12T05:57:32Z</time>
      </trkpt>
      <trkpt lat="49.19617" lon="-1.57735">
        <ele>7.8</ele>
        <time>2020-06-12T05:57:33Z</time>
      </trkpt>
      <trkpt lat="49.19622" lon="-1.57732">
        <ele>7.8</ele>
        <time>2020-06-12T05:57:34Z</time>
      </trkpt>
      <trkpt lat="49.19627" lon="-1.5773">
        <ele>7.7</ele>
        <time>2020-06-12T05:57:35Z</time>
      </trkpt>
      <trkpt lat="49.19632" lon="-1.57728">
        <ele>7.7</ele>
        <time>2020-06-12T05:57:36Z</time>
      </trkpt>
      <trkpt lat="49.19637" lon="-1.57726">
        <ele>7.7</ele>
        <time>2020-06-12T05:57:37Z</time>
      </trkpt>
      <trkpt lat="49.19642" lon="-1.57724">
        <ele>7.7</ele>
        <time>2020-06-12T05:57:38Z</time>
      </trkpt>
      <trkpt lat="49.19647" lon="-1.57722">
        <ele>7.7</ele>
        <time>2020-06-12T05:57:39Z</time>
      </trkpt>
      <trkpt lat="49.19651" lon="-1.57721">
        <ele>7.7</ele>
        <time>2020-06-12T05:57:40Z</time>
      </trkpt>
      <trkpt lat="49.19657" lon="-1.57718">
        <ele>7.7</ele>
        <time>2020-06-12T05:57:41Z</time>
      </trkpt>
      <trkpt lat="49.19662" lon="-1.57715">
        <ele>7.7</ele>
        <time>2020-06-12T05:57:42Z</time>
      </trkpt>
      <trkpt lat="49.19666" lon="-1.57714">
        <ele>7.7</ele>
        <time>2020-06-12T05:57:43Z</time>
      </trkpt>
      <trkpt lat="49.19671" lon="-1.57712">
        <ele>7.7</ele>
        <time>2020-06-12T05:57:44Z</time>
      </trkpt>
      <trkpt lat="49.19676" lon="-1.57709">
        <ele>7.6</ele>
        <time>2020-06-12T05:57:45Z</time>
      </trkpt>
      <trkpt lat="49.19681" lon="-1.57707">
        <ele>7.6</ele>
        <time>2020-06-12T05:57:46Z</time>
      </trkpt>
      <trkpt lat="49.19686" lon="-1.57706">
        <ele>7.6</ele>
        <time>2020-06-12T05:57:47Z</time>
      </trkpt>
      <trkpt lat="49.19691" lon="-1.57704">
        <ele>7.6</ele>
        <time>2020-06-12T05:57:48Z</time>
      </trkpt>
      <trkpt lat="49.19695" lon="-1.57702">
        <ele>7.6</ele>
        <time>2020-06-12T05:57:49Z</time>
      </trkpt>
      <trkpt lat="49.197" lon="-1.57701">
        <ele>7.6</ele>
        <time>2020-06-12T05:57:50Z</time>
      </trkpt>
      <trkpt lat="49.19704" lon="-1.57701">
        <ele>7.6</ele>
        <time>2020-06-12T05:57:51Z</time>
      </trkpt>
      <trkpt lat="49.19709" lon="-1.57698">
        <ele>7.6</ele>
        <time>2020-06-12T05:57:52Z</time>
      </trkpt>
      <trkpt lat="49.19713" lon="-1.57696">
        <ele>7.6</ele>
        <time>2020-06-12T05:57:53Z</time>
      </trkpt>
      <trkpt lat="49.19717" lon="-1.57693">
        <ele>7.6</ele>
        <time>2020-06-12T05:57:54Z</time>
      </trkpt>
      <trkpt lat="49.19722" lon="-1.57691">
        <ele>7.5</ele>
        <time>2020-06-12T05:57:55Z</time>
      </trkpt>
      <trkpt lat="49.19727" lon="-1.57689">
        <ele>7.5</ele>
        <time>2020-06-12T05:57:56Z</time>
      </trkpt>
      <trkpt lat="49.19732" lon="-1.57686">
        <ele>7.5</ele>
        <time>2020-06-12T05:57:57Z</time>
      </trkpt>
      <trkpt lat="49.19736" lon="-1.57684">
        <ele>7.5</ele>
        <time>2020-06-12T05:57:58Z</time>
      </trkpt>
      <trkpt lat="49.19741" lon="-1.57682">
        <ele>7.5</ele>
        <time>2020-06-12T05:57:59Z</time>
      </trkpt>
      <trkpt lat="49.19746" lon="-1.5768">
        <ele>7.5</ele>
        <time>2020-06-12T05:58:00Z</time>
      </trkpt>
      <trkpt lat="49.1975" lon="-1.57678">
        <ele>7.5</ele>
        <time>2020-06-12T05:58:01Z</time>
      </trkpt>
      <trkpt lat="49.19755" lon="-1.57676">
        <ele>7.5</ele>
        <time>2020-06-12T05:58:02Z</time>
      </trkpt>
      <trkpt lat="49.1976" lon="-1.57673">
        <ele>7.4</ele>
        <time>2020-06-12T05:58:03Z</time>
      </trkpt>
      <trkpt lat="49.19765" lon="-1.5767">
        <ele>7.4</ele>
        <time>2020-06-12T05:58:04Z</time>
      </trkpt>
      <trkpt lat="49.1977" lon="-1.57668">
        <ele>7.4</ele>
        <time>2020-06-12T05:58:05Z</time>
      </trkpt>
      <trkpt lat="49.19775" lon="-1.57667">
        <ele>7.4</ele>
        <time>2020-06-12T05:58:06Z</time>
      </trkpt>
      <trkpt lat="49.1978" lon="-1.57665">
        <ele>7.4</ele>
        <time>2020-06-12T05:58:07Z</time>
      </trkpt>
      <trkpt lat="49.19785" lon="-1.57663">
        <ele>7.4</ele>
        <time>2020-06-12T05:58:08Z</time>
      </trkpt>
      <trkpt lat="49.1979" lon="-1.5766">
        <ele>7.4</ele>
        <time>2020-06-12T05:58:09Z</time>
      </trkpt>
      <trkpt lat="49.19795" lon="-1.57659">
        <ele>7.4</ele>
        <time>2020-06-12T05:58:10Z</time>
      </trkpt>
      <trkpt lat="49.198" lon="-1.57656">
        <ele>7.3</ele>
        <time>2020-06-12T05:58:11Z</time>
      </trkpt>
      <trkpt lat="49.19805" lon="-1.57656">
        <ele>7.3</ele>
        <time>2020-06-12T05:58:12Z</time>
      </trkpt>
      <trkpt lat="49.1981" lon="-1.57655">
        <ele>7.3</ele>
        <time>2020-06-12T05:58:13Z</time>
      </trkpt>
      <trkpt lat="49.19816" lon="-1.57653">
        <ele>7.3</ele>
        <time>2020-06-12T05:58:14Z</time>
      </trkpt>
      <trkpt lat="49.19821" lon="-1.57651">
        <ele>7.2</ele>
        <time>2020-06-12T05:58:15Z</time>
      </trkpt>
      <trkpt lat="49.19827" lon="-1.57648">
        <ele>7.2</ele>
        <time>2020-06-12T05:58:16Z</time>
      </trkpt>
      <trkpt lat="49.19832" lon="-1.57646">
        <ele>7.2</ele>
        <time>2020-06-12T05:58:17Z</time>
      </trkpt>
      <trkpt lat="49.19837" lon="-1.57645">
        <ele>7.2</ele>
        <time>2020-06-12T05:58:18Z</time>
      </trkpt>
      <trkpt lat="49.19842" lon="-1.57643">
        <ele>7.1</ele>
        <time>2020-06-12T05:58:19Z</time>
      </trkpt>
      <trkpt lat="49.19847" lon="-1.57642">
        <ele>7.1</ele>
        <time>2020-06-12T05:58:20Z</time>
      </trkpt>
      <trkpt lat="49.19853" lon="-1.57641">
        <ele>7.1</ele>
        <time>2020-06-12T05:58:21Z</time>
      </trkpt>
      <trkpt lat="49.19858" lon="-1.57641">
        <ele>7.1</ele>
        <time>2020-06-12T05:58:22Z</time>
      </trkpt>
      <trkpt lat="49.19863" lon="-1.5764">
        <ele>7.1</ele>
        <time>2020-06-12T05:58:23Z</time>
      </trkpt>
      <trkpt lat="49.19868" lon="-1.57639">
        <ele>7.1</ele>
        <time>2020-06-12T05:58:24Z</time>
      </trkpt>
      <trkpt lat="49.19873" lon="-1.57638">
        <ele>7.1</ele>
        <time>2020-06-12T05:58:25Z</time>
      </trkpt>
      <trkpt lat="49.19878" lon="-1.57637">
        <ele>7.1</ele>
        <time>2020-06-12T05:58:26Z</time>
      </trkpt>
      <trkpt lat="49.19883" lon="-1.57635">
        <ele>7.1</ele>
        <time>2020-06-12T05:58:27Z</time>
      </trkpt>
      <trkpt lat="49.19888" lon="-1.57634">
        <ele>7.1</ele>
        <time>2020-06-12T05:58:28Z</time>
      </trkpt>
      <trkpt lat="49.19894" lon="-1.57632">
        <ele>7.2</ele>
        <time>2020-06-12T05:58:29Z</time>
      </trkpt>
      <trkpt lat="49.19899" lon="-1.5763">
        <ele>7.2</ele>
        <time>2020-06-12T05:58:30Z</time>
      </trkpt>
      <trkpt lat="49.19904" lon="-1.5763">
        <ele>7.2</ele>
        <time>2020-06-12T05:58:31Z</time>
      </trkpt>
      <trkpt lat="49.19909" lon="-1.57629">
        <ele>7.3</ele>
        <time>2020-06-12T05:58:32Z</time>
      </trkpt>
      <trkpt lat="49.19915" lon="-1.57627">
        <ele>7.3</ele>
        <time>2020-06-12T05:58:33Z</time>
      </trkpt>
      <trkpt lat="49.19919" lon="-1.57625">
        <ele>7.3</ele>
        <time>2020-06-12T05:58:34Z</time>
      </trkpt>
      <trkpt lat="49.19924" lon="-1.57624">
        <ele>7.3</ele>
        <time>2020-06-12T05:58:35Z</time>
      </trkpt>
      <trkpt lat="49.19929" lon="-1.57623">
        <ele>7.3</ele>
        <time>2020-06-12T05:58:36Z</time>
      </trkpt>
      <trkpt lat="49.19933" lon="-1.57623">
        <ele>7.3</ele>
        <time>2020-06-12T05:58:37Z</time>
      </trkpt>
      <trkpt lat="49.19938" lon="-1.57623">
        <ele>7.3</ele>
        <time>2020-06-12T05:58:38Z</time>
      </trkpt>
      <trkpt lat="49.19942" lon="-1.57622">
        <ele>7.3</ele>
        <time>2020-06-12T05:58:39Z</time>
      </trkpt>
      <trkpt lat="49.19947" lon="-1.5762">
        <ele>7.3</ele>
        <time>2020-06-12T05:58:40Z</time>
      </trkpt>
      <trkpt lat="49.19952" lon="-1.57616">
        <ele>7.2</ele>
        <time>2020-06-12T05:58:41Z</time>
      </trkpt>
      <trkpt lat="49.19955" lon="-1.57612">
        <ele>8.4</ele>
        <time>2020-06-12T05:58:42Z</time>
      </trkpt>
      <trkpt lat="49.19958" lon="-1.57607">
        <ele>8.2</ele>
        <time>2020-06-12T05:58:43Z</time>
      </trkpt>
      <trkpt lat="49.19961" lon="-1.57602">
        <ele>8</ele>
        <time>2020-06-12T05:58:44Z</time>
      </trkpt>
      <trkpt lat="49.19965" lon="-1.57596">
        <ele>7.7</ele>
        <time>2020-06-12T05:58:45Z</time>
      </trkpt>
      <trkpt lat="49.1997" lon="-1.57591">
        <ele>7.4</ele>
        <time>2020-06-12T05:58:46Z</time>
      </trkpt>
      <trkpt lat="49.19974" lon="-1.57587">
        <ele>7.2</ele>
        <time>2020-06-12T05:58:47Z</time>
      </trkpt>
      <trkpt lat="49.19978" lon="-1.57585">
        <ele>7</ele>
        <time>2020-06-12T05:58:48Z</time>
      </trkpt>
      <trkpt lat="49.19982" lon="-1.57582">
        <ele>6.7</ele>
        <time>2020-06-12T05:58:49Z</time>
      </trkpt>
      <trkpt lat="49.19986" lon="-1.57581">
        <ele>6.5</ele>
        <time>2020-06-12T05:58:50Z</time>
      </trkpt>
      <trkpt lat="49.19991" lon="-1.57584">
        <ele>6.6</ele>
        <time>2020-06-12T05:58:51Z</time>
      </trkpt>
      <trkpt lat="49.19995" lon="-1.57587">
        <ele>6.6</ele>
        <time>2020-06-12T05:58:52Z</time>
      </trkpt>
      <trkpt lat="49.19999" lon="-1.5759">
        <ele>6.7</ele>
        <time>2020-06-12T05:58:53Z</time>
      </trkpt>
      <trkpt lat="49.20003" lon="-1.57594">
        <ele>6.7</ele>
        <time>2020-06-12T05:58:54Z</time>
      </trkpt>
      <trkpt lat="49.20007" lon="-1.576">
        <ele>6.8</ele>
        <time>2020-06-12T05:58:55Z</time>
      </trkpt>
      <trkpt lat="49.20011" lon="-1.57604">
        <ele>6.8</ele>
        <time>2020-06-12T05:58:56Z</time>
      </trkpt>
      <trkpt lat="49.20015" lon="-1.57607">
        <ele>6.8</ele>
        <time>2020-06-12T05:58:57Z</time>
      </trkpt>
      <trkpt lat="49.20019" lon="-1.57608">
        <ele>6.8</ele>
        <time>2020-06-12T05:58:58Z</time>
      </trkpt>
      <trkpt lat="49.20024" lon="-1.57608">
        <ele>6.8</ele>
        <time>2020-06-12T05:58:59Z</time>
      </trkpt>
      <trkpt lat="49.20029" lon="-1.57607">
        <ele>6.8</ele>
        <time>2020-06-12T05:59:00Z</time>
      </trkpt>
      <trkpt lat="49.20033" lon="-1.57607">
        <ele>6.8</ele>
        <time>2020-06-12T05:59:01Z</time>
      </trkpt>
      <trkpt lat="49.20038" lon="-1.57606">
        <ele>6.8</ele>
        <time>2020-06-12T05:59:02Z</time>
      </trkpt>
      <trkpt lat="49.20043" lon="-1.57606">
        <ele>6.8</ele>
        <time>2020-06-12T05:59:03Z</time>
      </trkpt>
      <trkpt lat="49.20047" lon="-1.57605">
        <ele>6.8</ele>
        <time>2020-06-12T05:59:04Z</time>
      </trkpt>
      <trkpt lat="49.20052" lon="-1.57605">
        <ele>6.8</ele>
        <time>2020-06-12T05:59:05Z</time>
      </trkpt>
      <trkpt lat="49.20057" lon="-1.57605">
        <ele>6.8</ele>
        <time>2020-06-12T05:59:06Z</time>
      </trkpt>
      <trkpt lat="49.20062" lon="-1.57604">
        <ele>6.8</ele>
        <time>2020-06-12T05:59:07Z</time>
      </trkpt>
      <trkpt lat="49.20067" lon="-1.57603">
        <ele>6.7</ele>
        <time>2020-06-12T05:59:08Z</time>
      </trkpt>
      <trkpt lat="49.20071" lon="-1.57605">
        <ele>6.7</ele>
        <time>2020-06-12T05:59:09Z</time>
      </trkpt>
      <trkpt lat="49.20075" lon="-1.57605">
        <ele>6.7</ele>
        <time>2020-06-12T05:59:10Z</time>
      </trkpt>
      <trkpt lat="49.2008" lon="-1.57604">
        <ele>6.8</ele>
        <time>2020-06-12T05:59:11Z</time>
      </trkpt>
      <trkpt lat="49.20085" lon="-1.57604">
        <ele>6.8</ele>
        <time>2020-06-12T05:59:12Z</time>
      </trkpt>
      <trkpt lat="49.2009" lon="-1.57604">
        <ele>6.8</ele>
        <time>2020-06-12T05:59:13Z</time>
      </trkpt>
      <trkpt lat="49.20094" lon="-1.57604">
        <ele>6.8</ele>
        <time>2020-06-12T05:59:14Z</time>
      </trkpt>
      <trkpt lat="49.20099" lon="-1.57603">
        <ele>6.9</ele>
        <time>2020-06-12T05:59:15Z</time>
      </trkpt>
      <trkpt lat="49.20105" lon="-1.57602">
        <ele>6.9</ele>
        <time>2020-06-12T05:59:16Z</time>
      </trkpt>
      <trkpt lat="49.2011" lon="-1.57601">
        <ele>6.9</ele>
        <time>2020-06-12T05:59:17Z</time>
      </trkpt>
      <trkpt lat="49.20115" lon="-1.576">
        <ele>7</ele>
        <time>2020-06-12T05:59:18Z</time>
      </trkpt>
      <trkpt lat="49.2012" lon="-1.57599">
        <ele>7</ele>
        <time>2020-06-12T05:59:19Z</time>
      </trkpt>
      <trkpt lat="49.20125" lon="-1.57598">
        <ele>7</ele>
        <time>2020-06-12T05:59:20Z</time>
      </trkpt>
      <trkpt lat="49.2013" lon="-1.57597">
        <ele>7.1</ele>
        <time>2020-06-12T05:59:21Z</time>
      </trkpt>
      <trkpt lat="49.20135" lon="-1.57596">
        <ele>7.1</ele>
        <time>2020-06-12T05:59:22Z</time>
      </trkpt>
      <trkpt lat="49.2014" lon="-1.57596">
        <ele>7.1</ele>
        <time>2020-06-12T05:59:23Z</time>
      </trkpt>
      <trkpt lat="49.20145" lon="-1.57595">
        <ele>7.2</ele>
        <time>2020-06-12T05:59:24Z</time>
      </trkpt>
      <trkpt lat="49.20151" lon="-1.57594">
        <ele>7.2</ele>
        <time>2020-06-12T05:59:25Z</time>
      </trkpt>
      <trkpt lat="49.20155" lon="-1.57594">
        <ele>7.3</ele>
        <time>2020-06-12T05:59:26Z</time>
      </trkpt>
      <trkpt lat="49.20161" lon="-1.57592">
        <ele>7.3</ele>
        <time>2020-06-12T05:59:27Z</time>
      </trkpt>
      <trkpt lat="49.20166" lon="-1.5759">
        <ele>7.4</ele>
        <time>2020-06-12T05:59:28Z</time>
      </trkpt>
      <trkpt lat="49.20171" lon="-1.57588">
        <ele>7.5</ele>
        <time>2020-06-12T05:59:29Z</time>
      </trkpt>
      <trkpt lat="49.20176" lon="-1.57587">
        <ele>7.5</ele>
        <time>2020-06-12T05:59:30Z</time>
      </trkpt>
      <trkpt lat="49.20181" lon="-1.57586">
        <ele>7.6</ele>
        <time>2020-06-12T05:59:31Z</time>
      </trkpt>
      <trkpt lat="49.20185" lon="-1.57585">
        <ele>7.7</ele>
        <time>2020-06-12T05:59:32Z</time>
      </trkpt>
      <trkpt lat="49.2019" lon="-1.57584">
        <ele>7.7</ele>
        <time>2020-06-12T05:59:33Z</time>
      </trkpt>
      <trkpt lat="49.20195" lon="-1.57582">
        <ele>7.7</ele>
        <time>2020-06-12T05:59:34Z</time>
      </trkpt>
      <trkpt lat="49.202" lon="-1.57583">
        <ele>7.7</ele>
        <time>2020-06-12T05:59:35Z</time>
      </trkpt>
      <trkpt lat="49.20205" lon="-1.57583">
        <ele>7.7</ele>
        <time>2020-06-12T05:59:36Z</time>
      </trkpt>
      <trkpt lat="49.2021" lon="-1.57583">
        <ele>7.7</ele>
        <time>2020-06-12T05:59:37Z</time>
      </trkpt>
      <trkpt lat="49.20216" lon="-1.57582">
        <ele>7.7</ele>
        <time>2020-06-12T05:59:38Z</time>
      </trkpt>
      <trkpt lat="49.20221" lon="-1.57581">
        <ele>7.7</ele>
        <time>2020-06-12T05:59:39Z</time>
      </trkpt>
      <trkpt lat="49.20226" lon="-1.57581">
        <ele>7.7</ele>
        <time>2020-06-12T05:59:40Z</time>
      </trkpt>
      <trkpt lat="49.2023" lon="-1.5758">
        <ele>7.6</ele>
        <time>2020-06-12T05:59:41Z</time>
      </trkpt>
      <trkpt lat="49.20236" lon="-1.57581">
        <ele>7.6</ele>
        <time>2020-06-12T05:59:42Z</time>
      </trkpt>
      <trkpt lat="49.2024" lon="-1.57581">
        <ele>7.6</ele>
        <time>2020-06-12T05:59:43Z</time>
      </trkpt>
      <trkpt lat="49.20245" lon="-1.5758">
        <ele>7.6</ele>
        <time>2020-06-12T05:59:44Z</time>
      </trkpt>
      <trkpt lat="49.2025" lon="-1.5758">
        <ele>7.6</ele>
        <time>2020-06-12T05:59:45Z</time>
      </trkpt>
      <trkpt lat="49.20255" lon="-1.5758">
        <ele>7.6</ele>
        <time>2020-06-12T05:59:46Z</time>
      </trkpt>
      <trkpt lat="49.2026" lon="-1.5758">
        <ele>7.6</ele>
        <time>2020-06-12T05:59:47Z</time>
      </trkpt>
      <trkpt lat="49.20266" lon="-1.5758">
        <ele>7.6</ele>
        <time>2020-06-12T05:59:48Z</time>
      </trkpt>
      <trkpt lat="49.20271" lon="-1.5758">
        <ele>7.6</ele>
        <time>2020-06-12T05:59:49Z</time>
      </trkpt>
      <trkpt lat="49.20276" lon="-1.5758">
        <ele>7.6</ele>
        <time>2020-06-12T05:59:50Z</time>
      </trkpt>
      <trkpt lat="49.20281" lon="-1.5758">
        <ele>7.6</ele>
        <time>2020-06-12T05:59:51Z</time>
      </trkpt>
      <trkpt lat="49.20285" lon="-1.57579">
        <ele>7.6</ele>
        <time>2020-06-12T05:59:52Z</time>
      </trkpt>
      <trkpt lat="49.20291" lon="-1.57579">
        <ele>7.7</ele>
        <time>2020-06-12T05:59:53Z</time>
      </trkpt>
      <trkpt lat="49.20296" lon="-1.57579">
        <ele>7.7</ele>
        <time>2020-06-12T05:59:54Z</time>
      </trkpt>
      <trkpt lat="49.20302" lon="-1.5758">
        <ele>7.7</ele>
        <time>2020-06-12T05:59:55Z</time>
      </trkpt>
      <trkpt lat="49.20308" lon="-1.57581">
        <ele>7.6</ele>
        <time>2020-06-12T05:59:56Z</time>
      </trkpt>
      <trkpt lat="49.20314" lon="-1.57581">
        <ele>7.6</ele>
        <time>2020-06-12T05:59:57Z</time>
      </trkpt>
      <trkpt lat="49.20319" lon="-1.57582">
        <ele>7.6</ele>
        <time>2020-06-12T05:59:58Z</time>
      </trkpt>
      <trkpt lat="49.20325" lon="-1.57582">
        <ele>7.5</ele>
        <time>2020-06-12T05:59:59Z</time>
      </trkpt>
      <trkpt lat="49.2033" lon="-1.57581">
        <ele>7.5</ele>
        <time>2020-06-12T06:00:00Z</time>
      </trkpt>
      <trkpt lat="49.20337" lon="-1.57581">
        <ele>7.4</ele>
        <time>2020-06-12T06:00:01Z</time>
      </trkpt>
      <trkpt lat="49.20343" lon="-1.57582">
        <ele>7.4</ele>
        <time>2020-06-12T06:00:02Z</time>
      </trkpt>
      <trkpt lat="49.20349" lon="-1.57582">
        <ele>7.3</ele>
        <time>2020-06-12T06:00:03Z</time>
      </trkpt>
      <trkpt lat="49.20354" lon="-1.57582">
        <ele>7.3</ele>
        <time>2020-06-12T06:00:04Z</time>
      </trkpt>
      <trkpt lat="49.2036" lon="-1.57581">
        <ele>7.3</ele>
        <time>2020-06-12T06:00:05Z</time>
      </trkpt>
      <trkpt lat="49.20365" lon="-1.57582">
        <ele>7.3</ele>
        <time>2020-06-12T06:00:06Z</time>
      </trkpt>
      <trkpt lat="49.20371" lon="-1.57582">
        <ele>7.3</ele>
        <time>2020-06-12T06:00:07Z</time>
      </trkpt>
      <trkpt lat="49.20377" lon="-1.57582">
        <ele>7.3</ele>
        <time>2020-06-12T06:00:08Z</time>
      </trkpt>
      <trkpt lat="49.20382" lon="-1.57582">
        <ele>7.3</ele>
        <time>2020-06-12T06:00:09Z</time>
      </trkpt>
      <trkpt lat="49.20389" lon="-1.57582">
        <ele>7.3</ele>
        <time>2020-06-12T06:00:10Z</time>
      </trkpt>
      <trkpt lat="49.20395" lon="-1.57583">
        <ele>7.4</ele>
        <time>2020-06-12T06:00:11Z</time>
      </trkpt>
      <trkpt lat="49.20401" lon="-1.57582">
        <ele>7.4</ele>
        <time>2020-06-12T06:00:12Z</time>
      </trkpt>
      <trkpt lat="49.20406" lon="-1.57582">
        <ele>7.4</ele>
        <time>2020-06-12T06:00:13Z</time>
      </trkpt>
      <trkpt lat="49.20412" lon="-1.57582">
        <ele>7.4</ele>
        <time>2020-06-12T06:00:14Z</time>
      </trkpt>
      <trkpt lat="49.20418" lon="-1.57581">
        <ele>7.4</ele>
        <time>2020-06-12T06:00:15Z</time>
      </trkpt>
      <trkpt lat="49.20424" lon="-1.5758">
        <ele>7.4</ele>
        <time>2020-06-12T06:00:16Z</time>
      </trkpt>
      <trkpt lat="49.20429" lon="-1.5758">
        <ele>7.3</ele>
        <time>2020-06-12T06:00:17Z</time>
      </trkpt>
      <trkpt lat="49.20435" lon="-1.5758">
        <ele>7.3</ele>
        <time>2020-06-12T06:00:18Z</time>
      </trkpt>
      <trkpt lat="49.2044" lon="-1.57581">
        <ele>7.3</ele>
        <time>2020-06-12T06:00:19Z</time>
      </trkpt>
      <trkpt lat="49.20445" lon="-1.57581">
        <ele>7.3</ele>
        <time>2020-06-12T06:00:20Z</time>
      </trkpt>
      <trkpt lat="49.2045" lon="-1.57582">
        <ele>7.3</ele>
        <time>2020-06-12T06:00:21Z</time>
      </trkpt>
      <trkpt lat="49.20456" lon="-1.57583">
        <ele>7.3</ele>
        <time>2020-06-12T06:00:22Z</time>
      </trkpt>
      <trkpt lat="49.20461" lon="-1.57583">
        <ele>7.3</ele>
        <time>2020-06-12T06:00:23Z</time>
      </trkpt>
      <trkpt lat="49.20466" lon="-1.57583">
        <ele>7.3</ele>
        <time>2020-06-12T06:00:24Z</time>
      </trkpt>
      <trkpt lat="49.20471" lon="-1.57583">
        <ele>7.3</ele>
        <time>2020-06-12T06:00:25Z</time>
      </trkpt>
      <trkpt lat="49.20477" lon="-1.57583">
        <ele>7.2</ele>
        <time>2020-06-12T06:00:26Z</time>
      </trkpt>
      <trkpt lat="49.20483" lon="-1.57584">
        <ele>7.2</ele>
        <time>2020-06-12T06:00:27Z</time>
      </trkpt>
      <trkpt lat="49.20489" lon="-1.57584">
        <ele>7.1</ele>
        <time>2020-06-12T06:00:28Z</time>
      </trkpt>
      <trkpt lat="49.20495" lon="-1.57583">
        <ele>7.1</ele>
        <time>2020-06-12T06:00:29Z</time>
      </trkpt>
      <trkpt lat="49.205" lon="-1.57583">
        <ele>7</ele>
        <time>2020-06-12T06:00:30Z</time>
      </trkpt>
      <trkpt lat="49.20505" lon="-1.57583">
        <ele>7</ele>
        <time>2020-06-12T06:00:31Z</time>
      </trkpt>
      <trkpt lat="49.20511" lon="-1.57582">
        <ele>7</ele>
        <time>2020-06-12T06:00:32Z</time>
      </trkpt>
      <trkpt lat="49.20517" lon="-1.57582">
        <ele>7</ele>
        <time>2020-06-12T06:00:33Z</time>
      </trkpt>
      <trkpt lat="49.20522" lon="-1.57582">
        <ele>7</ele>
        <time>2020-06-12T06:00:34Z</time>
      </trkpt>
      <trkpt lat="49.20527" lon="-1.57582">
        <ele>7</ele>
        <time>2020-06-12T06:00:35Z</time>
      </trkpt>
      <trkpt lat="49.20532" lon="-1.57582">
        <ele>7</ele>
        <time>2020-06-12T06:00:36Z</time>
      </trkpt>
      <trkpt lat="49.20537" lon="-1.57581">
        <ele>7</ele>
        <time>2020-06-12T06:00:37Z</time>
      </trkpt>
      <trkpt lat="49.20543" lon="-1.5758">
        <ele>7</ele>
        <time>2020-06-12T06:00:38Z</time>
      </trkpt>
      <trkpt lat="49.20548" lon="-1.57579">
        <ele>6.9</ele>
        <time>2020-06-12T06:00:39Z</time>
      </trkpt>
      <trkpt lat="49.20553" lon="-1.57577">
        <ele>6.9</ele>
        <time>2020-06-12T06:00:40Z</time>
      </trkpt>
      <trkpt lat="49.20559" lon="-1.57576">
        <ele>6.9</ele>
        <time>2020-06-12T06:00:41Z</time>
      </trkpt>
      <trkpt lat="49.20564" lon="-1.57575">
        <ele>6.9</ele>
        <time>2020-06-12T06:00:42Z</time>
      </trkpt>
      <trkpt lat="49.20569" lon="-1.57574">
        <ele>6.9</ele>
        <time>2020-06-12T06:00:43Z</time>
      </trkpt>
      <trkpt lat="49.20574" lon="-1.57573">
        <ele>6.9</ele>
        <time>2020-06-12T06:00:44Z</time>
      </trkpt>
      <trkpt lat="49.20579" lon="-1.57572">
        <ele>6.9</ele>
        <time>2020-06-12T06:00:45Z</time>
      </trkpt>
      <trkpt lat="49.20585" lon="-1.57571">
        <ele>6.9</ele>
        <time>2020-06-12T06:00:46Z</time>
      </trkpt>
      <trkpt lat="49.2059" lon="-1.5757">
        <ele>6.9</ele>
        <time>2020-06-12T06:00:47Z</time>
      </trkpt>
      <trkpt lat="49.20596" lon="-1.57568">
        <ele>6.9</ele>
        <time>2020-06-12T06:00:48Z</time>
      </trkpt>
      <trkpt lat="49.20601" lon="-1.57566">
        <ele>6.9</ele>
        <time>2020-06-12T06:00:49Z</time>
      </trkpt>
      <trkpt lat="49.20606" lon="-1.57564">
        <ele>6.9</ele>
        <time>2020-06-12T06:00:50Z</time>
      </trkpt>
      <trkpt lat="49.20612" lon="-1.57563">
        <ele>6.9</ele>
        <time>2020-06-12T06:00:51Z</time>
      </trkpt>
      <trkpt lat="49.20617" lon="-1.57562">
        <ele>6.9</ele>
        <time>2020-06-12T06:00:52Z</time>
      </trkpt>
      <trkpt lat="49.20622" lon="-1.57561">
        <ele>6.9</ele>
        <time>2020-06-12T06:00:53Z</time>
      </trkpt>
      <trkpt lat="49.20628" lon="-1.57559">
        <ele>6.9</ele>
        <time>2020-06-12T06:00:54Z</time>
      </trkpt>
      <trkpt lat="49.20634" lon="-1.57557">
        <ele>6.8</ele>
        <time>2020-06-12T06:00:55Z</time>
      </trkpt>
      <trkpt lat="49.20639" lon="-1.57555">
        <ele>6.8</ele>
        <time>2020-06-12T06:00:56Z</time>
      </trkpt>
      <trkpt lat="49.20645" lon="-1.57554">
        <ele>6.8</ele>
        <time>2020-06-12T06:00:57Z</time>
      </trkpt>
      <trkpt lat="49.2065" lon="-1.57552">
        <ele>6.7</ele>
        <time>2020-06-12T06:00:58Z</time>
      </trkpt>
      <trkpt lat="49.20655" lon="-1.5755">
        <ele>6.7</ele>
        <time>2020-06-12T06:00:59Z</time>
      </trkpt>
      <trkpt lat="49.2066" lon="-1.57548">
        <ele>6.7</ele>
        <time>2020-06-12T06:01:00Z</time>
      </trkpt>
      <trkpt lat="49.20666" lon="-1.57546">
        <ele>6.7</ele>
        <time>2020-06-12T06:01:01Z</time>
      </trkpt>
      <trkpt lat="49.20671" lon="-1.57545">
        <ele>6.6</ele>
        <time>2020-06-12T06:01:02Z</time>
      </trkpt>
      <trkpt lat="49.20677" lon="-1.57543">
        <ele>6.6</ele>
        <time>2020-06-12T06:01:03Z</time>
      </trkpt>
      <trkpt lat="49.20682" lon="-1.57541">
        <ele>6.5</ele>
        <time>2020-06-12T06:01:04Z</time>
      </trkpt>
      <trkpt lat="49.20688" lon="-1.57539">
        <ele>6.5</ele>
        <time>2020-06-12T06:01:05Z</time>
      </trkpt>
      <trkpt lat="49.20693" lon="-1.57537">
        <ele>6.4</ele>
        <time>2020-06-12T06:01:06Z</time>
      </trkpt>
      <trkpt lat="49.20699" lon="-1.57535">
        <ele>6.3</ele>
        <time>2020-06-12T06:01:07Z</time>
      </trkpt>
      <trkpt lat="49.20704" lon="-1.57533">
        <ele>6.3</ele>
        <time>2020-06-12T06:01:08Z</time>
      </trkpt>
      <trkpt lat="49.20709" lon="-1.57532">
        <ele>6.3</ele>
        <time>2020-06-12T06:01:09Z</time>
      </trkpt>
      <trkpt lat="49.20715" lon="-1.5753">
        <ele>6.2</ele>
        <time>2020-06-12T06:01:10Z</time>
      </trkpt>
      <trkpt lat="49.2072" lon="-1.57528">
        <ele>6.2</ele>
        <time>2020-06-12T06:01:11Z</time>
      </trkpt>
      <trkpt lat="49.20726" lon="-1.57526">
        <ele>6.2</ele>
        <time>2020-06-12T06:01:12Z</time>
      </trkpt>
      <trkpt lat="49.20732" lon="-1.57524">
        <ele>6.1</ele>
        <time>2020-06-12T06:01:13Z</time>
      </trkpt>
      <trkpt lat="49.20737" lon="-1.57522">
        <ele>6.1</ele>
        <time>2020-06-12T06:01:14Z</time>
      </trkpt>
      <trkpt lat="49.20742" lon="-1.5752">
        <ele>6.1</ele>
        <time>2020-06-12T06:01:15Z</time>
      </trkpt>
      <trkpt lat="49.20748" lon="-1.57518">
        <ele>6</ele>
        <time>2020-06-12T06:01:16Z</time>
      </trkpt>
      <trkpt lat="49.20753" lon="-1.57516">
        <ele>6</ele>
        <time>2020-06-12T06:01:17Z</time>
      </trkpt>
      <trkpt lat="49.20758" lon="-1.57515">
        <ele>6</ele>
        <time>2020-06-12T06:01:18Z</time>
      </trkpt>
      <trkpt lat="49.20763" lon="-1.57513">
        <ele>5.9</ele>
        <time>2020-06-12T06:01:19Z</time>
      </trkpt>
      <trkpt lat="49.20768" lon="-1.57511">
        <ele>5.9</ele>
        <time>2020-06-12T06:01:20Z</time>
      </trkpt>
      <trkpt lat="49.20772" lon="-1.57509">
        <ele>5.9</ele>
        <time>2020-06-12T06:01:21Z</time>
      </trkpt>
      <trkpt lat="49.20777" lon="-1.57508">
        <ele>5.9</ele>
        <time>2020-06-12T06:01:22Z</time>
      </trkpt>
      <trkpt lat="49.20782" lon="-1.57506">
        <ele>5.9</ele>
        <time>2020-06-12T06:01:23Z</time>
      </trkpt>
      <trkpt lat="49.20788" lon="-1.57504">
        <ele>5.9</ele>
        <time>2020-06-12T06:01:24Z</time>
      </trkpt>
      <trkpt lat="49.20794" lon="-1.57502">
        <ele>5.9</ele>
        <time>2020-06-12T06:01:25Z</time>
      </trkpt>
      <trkpt lat="49.20799" lon="-1.575">
        <ele>5.9</ele>
        <time>2020-06-12T06:01:26Z</time>
      </trkpt>
      <trkpt lat="49.20804" lon="-1.57499">
        <ele>5.9</ele>
        <time>2020-06-12T06:01:27Z</time>
      </trkpt>
      <trkpt lat="49.20809" lon="-1.57497">
        <ele>5.9</ele>
        <time>2020-06-12T06:01:28Z</time>
      </trkpt>
      <trkpt lat="49.20815" lon="-1.57496">
        <ele>5.9</ele>
        <time>2020-06-12T06:01:29Z</time>
      </trkpt>
      <trkpt lat="49.2082" lon="-1.57493">
        <ele>6</ele>
        <time>2020-06-12T06:01:30Z</time>
      </trkpt>
      <trkpt lat="49.20826" lon="-1.57492">
        <ele>6</ele>
        <time>2020-06-12T06:01:31Z</time>
      </trkpt>
      <trkpt lat="49.20831" lon="-1.5749">
        <ele>6.1</ele>
        <time>2020-06-12T06:01:32Z</time>
      </trkpt>
      <trkpt lat="49.20837" lon="-1.57489">
        <ele>6.2</ele>
        <time>2020-06-12T06:01:33Z</time>
      </trkpt>
      <trkpt lat="49.20842" lon="-1.57487">
        <ele>6.2</ele>
        <time>2020-06-12T06:01:34Z</time>
      </trkpt>
      <trkpt lat="49.20847" lon="-1.57485">
        <ele>6.3</ele>
        <time>2020-06-12T06:01:35Z</time>
      </trkpt>
      <trkpt lat="49.20851" lon="-1.57483">
        <ele>6.3</ele>
        <time>2020-06-12T06:01:36Z</time>
      </trkpt>
      <trkpt lat="49.20856" lon="-1.57482">
        <ele>6.3</ele>
        <time>2020-06-12T06:01:37Z</time>
      </trkpt>
      <trkpt lat="49.20861" lon="-1.57481">
        <ele>6.3</ele>
        <time>2020-06-12T06:01:38Z</time>
      </trkpt>
      <trkpt lat="49.20866" lon="-1.57479">
        <ele>6.3</ele>
        <time>2020-06-12T06:01:39Z</time>
      </trkpt>
      <trkpt lat="49.2087" lon="-1.57477">
        <ele>6.3</ele>
        <time>2020-06-12T06:01:40Z</time>
      </trkpt>
      <trkpt lat="49.20876" lon="-1.57475">
        <ele>6.3</ele>
        <time>2020-06-12T06:01:41Z</time>
      </trkpt>
      <trkpt lat="49.20881" lon="-1.57474">
        <ele>6.3</ele>
        <time>2020-06-12T06:01:42Z</time>
      </trkpt>
      <trkpt lat="49.20886" lon="-1.57472">
        <ele>6.3</ele>
        <time>2020-06-12T06:01:43Z</time>
      </trkpt>
      <trkpt lat="49.20891" lon="-1.57471">
        <ele>6.3</ele>
        <time>2020-06-12T06:01:44Z</time>
      </trkpt>
      <trkpt lat="49.20897" lon="-1.57469">
        <ele>6.3</ele>
        <time>2020-06-12T06:01:45Z</time>
      </trkpt>
      <trkpt lat="49.20901" lon="-1.57468">
        <ele>6.3</ele>
        <time>2020-06-12T06:01:46Z</time>
      </trkpt>
      <trkpt lat="49.20906" lon="-1.57466">
        <ele>6.3</ele>
        <time>2020-06-12T06:01:47Z</time>
      </trkpt>
      <trkpt lat="49.2091" lon="-1.57465">
        <ele>6.4</ele>
        <time>2020-06-12T06:01:48Z</time>
      </trkpt>
      <trkpt lat="49.20915" lon="-1.57463">
        <ele>6.4</ele>
        <time>2020-06-12T06:01:49Z</time>
      </trkpt>
      <trkpt lat="49.20919" lon="-1.57462">
        <ele>6.4</ele>
        <time>2020-06-12T06:01:50Z</time>
      </trkpt>
      <trkpt lat="49.20924" lon="-1.5746">
        <ele>6.4</ele>
        <time>2020-06-12T06:01:51Z</time>
      </trkpt>
      <trkpt lat="49.2093" lon="-1.57458">
        <ele>6.4</ele>
        <time>2020-06-12T06:01:52Z</time>
      </trkpt>
      <trkpt lat="49.20935" lon="-1.57457">
        <ele>6.4</ele>
        <time>2020-06-12T06:01:53Z</time>
      </trkpt>
      <trkpt lat="49.2094" lon="-1.57455">
        <ele>6.4</ele>
        <time>2020-06-12T06:01:54Z</time>
      </trkpt>
      <trkpt lat="49.20945" lon="-1.57454">
        <ele>6.4</ele>
        <time>2020-06-12T06:01:55Z</time>
      </trkpt>
      <trkpt lat="49.2095" lon="-1.57452">
        <ele>6.4</ele>
        <time>2020-06-12T06:01:56Z</time>
      </trkpt>
      <trkpt lat="49.20955" lon="-1.57451">
        <ele>6.4</ele>
        <time>2020-06-12T06:01:57Z</time>
      </trkpt>
      <trkpt lat="49.2096" lon="-1.57449">
        <ele>6.4</ele>
        <time>2020-06-12T06:01:58Z</time>
      </trkpt>
      <trkpt lat="49.20965" lon="-1.57447">
        <ele>6.4</ele>
        <time>2020-06-12T06:01:59Z</time>
      </trkpt>
      <trkpt lat="49.2097" lon="-1.57446">
        <ele>6.4</ele>
        <time>2020-06-12T06:02:00Z</time>
      </trkpt>
      <trkpt lat="49.20975" lon="-1.57444">
        <ele>6.4</ele>
        <time>2020-06-12T06:02:01Z</time>
      </trkpt>
      <trkpt lat="49.20981" lon="-1.57442">
        <ele>6.4</ele>
        <time>2020-06-12T06:02:02Z</time>
      </trkpt>
      <trkpt lat="49.20986" lon="-1.57441">
        <ele>6.4</ele>
        <time>2020-06-12T06:02:03Z</time>
      </trkpt>
      <trkpt lat="49.20991" lon="-1.57439">
        <ele>6.4</ele>
        <time>2020-06-12T06:02:04Z</time>
      </trkpt>
      <trkpt lat="49.20995" lon="-1.57437">
        <ele>6.4</ele>
        <time>2020-06-12T06:02:05Z</time>
      </trkpt>
      <trkpt lat="49.20999" lon="-1.57435">
        <ele>6.5</ele>
        <time>2020-06-12T06:02:06Z</time>
      </trkpt>
      <trkpt lat="49.21004" lon="-1.57434">
        <ele>6.5</ele>
        <time>2020-06-12T06:02:07Z</time>
      </trkpt>
      <trkpt lat="49.2101" lon="-1.57432">
        <ele>6.5</ele>
        <time>2020-06-12T06:02:08Z</time>
      </trkpt>
      <trkpt lat="49.21014" lon="-1.57431">
        <ele>6.5</ele>
        <time>2020-06-12T06:02:09Z</time>
      </trkpt>
      <trkpt lat="49.21019" lon="-1.57429">
        <ele>6.5</ele>
        <time>2020-06-12T06:02:10Z</time>
      </trkpt>
      <trkpt lat="49.21024" lon="-1.57427">
        <ele>6.5</ele>
        <time>2020-06-12T06:02:11Z</time>
      </trkpt>
      <trkpt lat="49.21029" lon="-1.57425">
        <ele>6.5</ele>
        <time>2020-06-12T06:02:12Z</time>
      </trkpt>
      <trkpt lat="49.21034" lon="-1.57423">
        <ele>6.5</ele>
        <time>2020-06-12T06:02:13Z</time>
      </trkpt>
      <trkpt lat="49.21039" lon="-1.57421">
        <ele>6.5</ele>
        <time>2020-06-12T06:02:14Z</time>
      </trkpt>
      <trkpt lat="49.21044" lon="-1.57418">
        <ele>6.5</ele>
        <time>2020-06-12T06:02:15Z</time>
      </trkpt>
      <trkpt lat="49.21048" lon="-1.57415">
        <ele>6.5</ele>
        <time>2020-06-12T06:02:16Z</time>
      </trkpt>
      <trkpt lat="49.21053" lon="-1.57413">
        <ele>6.5</ele>
        <time>2020-06-12T06:02:17Z</time>
      </trkpt>
      <trkpt lat="49.21057" lon="-1.57411">
        <ele>6.5</ele>
        <time>2020-06-12T06:02:18Z</time>
      </trkpt>
      <trkpt lat="49.21063" lon="-1.57408">
        <ele>6.6</ele>
        <time>2020-06-12T06:02:19Z</time>
      </trkpt>
      <trkpt lat="49.21068" lon="-1.57406">
        <ele>6.6</ele>
        <time>2020-06-12T06:02:20Z</time>
      </trkpt>
      <trkpt lat="49.21072" lon="-1.57404">
        <ele>6.6</ele>
        <time>2020-06-12T06:02:21Z</time>
      </trkpt>
      <trkpt lat="49.21076" lon="-1.57401">
        <ele>6.6</ele>
        <time>2020-06-12T06:02:22Z</time>
      </trkpt>
      <trkpt lat="49.21081" lon="-1.57398">
        <ele>6.6</ele>
        <time>2020-06-12T06:02:23Z</time>
      </trkpt>
      <trkpt lat="49.21086" lon="-1.57395">
        <ele>6.6</ele>
        <time>2020-06-12T06:02:24Z</time>
      </trkpt>
      <trkpt lat="49.21091" lon="-1.57392">
        <ele>6.6</ele>
        <time>2020-06-12T06:02:25Z</time>
      </trkpt>
      <trkpt lat="49.21096" lon="-1.5739">
        <ele>6.6</ele>
        <time>2020-06-12T06:02:26Z</time>
      </trkpt>
      <trkpt lat="49.211" lon="-1.57387">
        <ele>6.5</ele>
        <time>2020-06-12T06:02:27Z</time>
      </trkpt>
      <trkpt lat="49.21104" lon="-1.57385">
        <ele>6.5</ele>
        <time>2020-06-12T06:02:28Z</time>
      </trkpt>
      <trkpt lat="49.21109" lon="-1.57382">
        <ele>6.5</ele>
        <time>2020-06-12T06:02:29Z</time>
      </trkpt>
      <trkpt lat="49.21115" lon="-1.57379">
        <ele>6.5</ele>
        <time>2020-06-12T06:02:30Z</time>
      </trkpt>
      <trkpt lat="49.2112" lon="-1.57375">
        <ele>6.5</ele>
        <time>2020-06-12T06:02:31Z</time>
      </trkpt>
      <trkpt lat="49.21125" lon="-1.57372">
        <ele>6.5</ele>
        <time>2020-06-12T06:02:32Z</time>
      </trkpt>
      <trkpt lat="49.2113" lon="-1.57368">
        <ele>6.5</ele>
        <time>2020-06-12T06:02:33Z</time>
      </trkpt>
      <trkpt lat="49.21135" lon="-1.57365">
        <ele>6.5</ele>
        <time>2020-06-12T06:02:34Z</time>
      </trkpt>
      <trkpt lat="49.2114" lon="-1.57361">
        <ele>6.5</ele>
        <time>2020-06-12T06:02:35Z</time>
      </trkpt>
      <trkpt lat="49.21144" lon="-1.57357">
        <ele>6.5</ele>
        <time>2020-06-12T06:02:36Z</time>
      </trkpt>
      <trkpt lat="49.21149" lon="-1.57354">
        <ele>6.5</ele>
        <time>2020-06-12T06:02:37Z</time>
      </trkpt>
      <trkpt lat="49.21154" lon="-1.5735">
        <ele>6.5</ele>
        <time>2020-06-12T06:02:38Z</time>
      </trkpt>
      <trkpt lat="49.21158" lon="-1.57347">
        <ele>6.5</ele>
        <time>2020-06-12T06:02:39Z</time>
      </trkpt>
      <trkpt lat="49.21162" lon="-1.57344">
        <ele>6.5</ele>
        <time>2020-06-12T06:02:40Z</time>
      </trkpt>
      <trkpt lat="49.21167" lon="-1.57341">
        <ele>6.5</ele>
        <time>2020-06-12T06:02:41Z</time>
      </trkpt>
      <trkpt lat="49.21171" lon="-1.57338">
        <ele>6.5</ele>
        <time>2020-06-12T06:02:42Z</time>
      </trkpt>
      <trkpt lat="49.21176" lon="-1.57335">
        <ele>6.6</ele>
        <time>2020-06-12T06:02:43Z</time>
      </trkpt>
      <trkpt lat="49.21181" lon="-1.57331">
        <ele>6.6</ele>
        <time>2020-06-12T06:02:44Z</time>
      </trkpt>
      <trkpt lat="49.21186" lon="-1.57327">
        <ele>6.6</ele>
        <time>2020-06-12T06:02:45Z</time>
      </trkpt>
      <trkpt lat="49.21191" lon="-1.57324">
        <ele>6.6</ele>
        <time>2020-06-12T06:02:46Z</time>
      </trkpt>
      <trkpt lat="49.21196" lon="-1.57321">
        <ele>6.5</ele>
        <time>2020-06-12T06:02:47Z</time>
      </trkpt>
      <trkpt lat="49.212" lon="-1.57317">
        <ele>6.5</ele>
        <time>2020-06-12T06:02:48Z</time>
      </trkpt>
      <trkpt lat="49.21205" lon="-1.57313">
        <ele>6.4</ele>
        <time>2020-06-12T06:02:49Z</time>
      </trkpt>
      <trkpt lat="49.2121" lon="-1.57308">
        <ele>6.4</ele>
        <time>2020-06-12T06:02:50Z</time>
      </trkpt>
      <trkpt lat="49.21215" lon="-1.57304">
        <ele>6.3</ele>
        <time>2020-06-12T06:02:51Z</time>
      </trkpt>
      <trkpt lat="49.2122" lon="-1.573">
        <ele>6.3</ele>
        <time>2020-06-12T06:02:52Z</time>
      </trkpt>
      <trkpt lat="49.21225" lon="-1.57296">
        <ele>6.3</ele>
        <time>2020-06-12T06:02:53Z</time>
      </trkpt>
      <trkpt lat="49.2123" lon="-1.57293">
        <ele>6.3</ele>
        <time>2020-06-12T06:02:54Z</time>
      </trkpt>
      <trkpt lat="49.21235" lon="-1.57289">
        <ele>6.3</ele>
        <time>2020-06-12T06:02:55Z</time>
      </trkpt>
      <trkpt lat="49.21239" lon="-1.57285">
        <ele>6.3</ele>
        <time>2020-06-12T06:02:56Z</time>
      </trkpt>
      <trkpt lat="49.21244" lon="-1.57282">
        <ele>6.3</ele>
        <time>2020-06-12T06:02:57Z</time>
      </trkpt>
      <trkpt lat="49.21248" lon="-1.57278">
        <ele>6.3</ele>
        <time>2020-06-12T06:02:58Z</time>
      </trkpt>
      <trkpt lat="49.21253" lon="-1.57275">
        <ele>6.3</ele>
        <time>2020-06-12T06:02:59Z</time>
      </trkpt>
      <trkpt lat="49.21258" lon="-1.57271">
        <ele>6.3</ele>
        <time>2020-06-12T06:03:00Z</time>
      </trkpt>
      <trkpt lat="49.21263" lon="-1.57266">
        <ele>6.4</ele>
        <time>2020-06-12T06:03:01Z</time>
      </trkpt>
      <trkpt lat="49.21268" lon="-1.57262">
        <ele>6.4</ele>
        <time>2020-06-12T06:03:02Z</time>
      </trkpt>
      <trkpt lat="49.21272" lon="-1.57259">
        <ele>6.4</ele>
        <time>2020-06-12T06:03:03Z</time>
      </trkpt>
      <trkpt lat="49.21277" lon="-1.57255">
        <ele>6.4</ele>
        <time>2020-06-12T06:03:04Z</time>
      </trkpt>
      <trkpt lat="49.21282" lon="-1.57252">
        <ele>6.5</ele>
        <time>2020-06-12T06:03:05Z</time>
      </trkpt>
      <trkpt lat="49.21287" lon="-1.57249">
        <ele>6.5</ele>
        <time>2020-06-12T06:03:06Z</time>
      </trkpt>
      <trkpt lat="49.21292" lon="-1.57245">
        <ele>6.6</ele>
        <time>2020-06-12T06:03:07Z</time>
      </trkpt>
      <trkpt lat="49.21297" lon="-1.57242">
        <ele>6.6</ele>
        <time>2020-06-12T06:03:08Z</time>
      </trkpt>
      <trkpt lat="49.213" lon="-1.57239">
        <ele>6.7</ele>
        <time>2020-06-12T06:03:09Z</time>
      </trkpt>
      <trkpt lat="49.21305" lon="-1.57235">
        <ele>6.7</ele>
        <time>2020-06-12T06:03:10Z</time>
      </trkpt>
      <trkpt lat="49.21309" lon="-1.57232">
        <ele>6.7</ele>
        <time>2020-06-12T06:03:11Z</time>
      </trkpt>
      <trkpt lat="49.21314" lon="-1.57228">
        <ele>6.7</ele>
        <time>2020-06-12T06:03:12Z</time>
      </trkpt>
      <trkpt lat="49.21318" lon="-1.57225">
        <ele>6.6</ele>
        <time>2020-06-12T06:03:13Z</time>
      </trkpt>
      <trkpt lat="49.21323" lon="-1.57221">
        <ele>6.6</ele>
        <time>2020-06-12T06:03:14Z</time>
      </trkpt>
      <trkpt lat="49.21327" lon="-1.57218">
        <ele>6.6</ele>
        <time>2020-06-12T06:03:15Z</time>
      </trkpt>
      <trkpt lat="49.21331" lon="-1.57216">
        <ele>6.5</ele>
        <time>2020-06-12T06:03:16Z</time>
      </trkpt>
      <trkpt lat="49.21335" lon="-1.57214">
        <ele>6.5</ele>
        <time>2020-06-12T06:03:17Z</time>
      </trkpt>
      <trkpt lat="49.21339" lon="-1.57212">
        <ele>6.5</ele>
        <time>2020-06-12T06:03:18Z</time>
      </trkpt>
      <trkpt lat="49.21344" lon="-1.57209">
        <ele>6.5</ele>
        <time>2020-06-12T06:03:19Z</time>
      </trkpt>
      <trkpt lat="49.21348" lon="-1.57207">
        <ele>6.5</ele>
        <time>2020-06-12T06:03:20Z</time>
      </trkpt>
      <trkpt lat="49.21353" lon="-1.57205">
        <ele>6.5</ele>
        <time>2020-06-12T06:03:21Z</time>
      </trkpt>
      <trkpt lat="49.21357" lon="-1.57202">
        <ele>6.5</ele>
        <time>2020-06-12T06:03:22Z</time>
      </trkpt>
      <trkpt lat="49.21362" lon="-1.57199">
        <ele>6.5</ele>
        <time>2020-06-12T06:03:23Z</time>
      </trkpt>
      <trkpt lat="49.21367" lon="-1.57196">
        <ele>6.5</ele>
        <time>2020-06-12T06:03:24Z</time>
      </trkpt>
      <trkpt lat="49.21371" lon="-1.57193">
        <ele>6.5</ele>
        <time>2020-06-12T06:03:25Z</time>
      </trkpt>
      <trkpt lat="49.21376" lon="-1.5719">
        <ele>6.4</ele>
        <time>2020-06-12T06:03:26Z</time>
      </trkpt>
      <trkpt lat="49.21379" lon="-1.57188">
        <ele>6.4</ele>
        <time>2020-06-12T06:03:27Z</time>
      </trkpt>
      <trkpt lat="49.21384" lon="-1.57186">
        <ele>6.4</ele>
        <time>2020-06-12T06:03:28Z</time>
      </trkpt>
      <trkpt lat="49.21388" lon="-1.57183">
        <ele>6.4</ele>
        <time>2020-06-12T06:03:29Z</time>
      </trkpt>
      <trkpt lat="49.21392" lon="-1.5718">
        <ele>6.4</ele>
        <time>2020-06-12T06:03:30Z</time>
      </trkpt>
      <trkpt lat="49.21397" lon="-1.57176">
        <ele>6.4</ele>
        <time>2020-06-12T06:03:31Z</time>
      </trkpt>
      <trkpt lat="49.21401" lon="-1.57172">
        <ele>6.4</ele>
        <time>2020-06-12T06:03:32Z</time>
      </trkpt>
      <trkpt lat="49.21406" lon="-1.57167">
        <ele>6.4</ele>
        <time>2020-06-12T06:03:33Z</time>
      </trkpt>
      <trkpt lat="49.2141" lon="-1.57162">
        <ele>6.4</ele>
        <time>2020-06-12T06:03:34Z</time>
      </trkpt>
      <trkpt lat="49.21414" lon="-1.57159">
        <ele>6.4</ele>
        <time>2020-06-12T06:03:35Z</time>
      </trkpt>
      <trkpt lat="49.21417" lon="-1.57156">
        <ele>6.4</ele>
        <time>2020-06-12T06:03:36Z</time>
      </trkpt>
      <trkpt lat="49.2142" lon="-1.57154">
        <ele>6.4</ele>
        <time>2020-06-12T06:03:37Z</time>
      </trkpt>
      <trkpt lat="49.21425" lon="-1.57151">
        <ele>6.4</ele>
        <time>2020-06-12T06:03:38Z</time>
      </trkpt>
      <trkpt lat="49.21428" lon="-1.57149">
        <ele>6.4</ele>
        <time>2020-06-12T06:03:39Z</time>
      </trkpt>
      <trkpt lat="49.21433" lon="-1.57146">
        <ele>6.4</ele>
        <time>2020-06-12T06:03:40Z</time>
      </trkpt>
      <trkpt lat="49.21437" lon="-1.57142">
        <ele>6.4</ele>
        <time>2020-06-12T06:03:41Z</time>
      </trkpt>
      <trkpt lat="49.21442" lon="-1.57139">
        <ele>6.3</ele>
        <time>2020-06-12T06:03:42Z</time>
      </trkpt>
      <trkpt lat="49.21446" lon="-1.57135">
        <ele>6.3</ele>
        <time>2020-06-12T06:03:43Z</time>
      </trkpt>
      <trkpt lat="49.2145" lon="-1.57131">
        <ele>6.3</ele>
        <time>2020-06-12T06:03:44Z</time>
      </trkpt>
      <trkpt lat="49.21454" lon="-1.57128">
        <ele>6.3</ele>
        <time>2020-06-12T06:03:45Z</time>
      </trkpt>
      <trkpt lat="49.21458" lon="-1.57125">
        <ele>6.2</ele>
        <time>2020-06-12T06:03:46Z</time>
      </trkpt>
      <trkpt lat="49.21463" lon="-1.57121">
        <ele>6.2</ele>
        <time>2020-06-12T06:03:47Z</time>
      </trkpt>
      <trkpt lat="49.21467" lon="-1.57118">
        <ele>6.3</ele>
        <time>2020-06-12T06:03:48Z</time>
      </trkpt>
      <trkpt lat="49.21472" lon="-1.57114">
        <ele>6.3</ele>
        <time>2020-06-12T06:03:49Z</time>
      </trkpt>
      <trkpt lat="49.21477" lon="-1.57111">
        <ele>6.3</ele>
        <time>2020-06-12T06:03:50Z</time>
      </trkpt>
      <trkpt lat="49.21482" lon="-1.57107">
        <ele>6.3</ele>
        <time>2020-06-12T06:03:51Z</time>
      </trkpt>
      <trkpt lat="49.21487" lon="-1.57103">
        <ele>6.3</ele>
        <time>2020-06-12T06:03:52Z</time>
      </trkpt>
      <trkpt lat="49.21492" lon="-1.57099">
        <ele>6.2</ele>
        <time>2020-06-12T06:03:53Z</time>
      </trkpt>
      <trkpt lat="49.21497" lon="-1.57095">
        <ele>6.2</ele>
        <time>2020-06-12T06:03:54Z</time>
      </trkpt>
      <trkpt lat="49.21502" lon="-1.57091">
        <ele>6.2</ele>
        <time>2020-06-12T06:03:55Z</time>
      </trkpt>
      <trkpt lat="49.21507" lon="-1.57087">
        <ele>6.2</ele>
        <time>2020-06-12T06:03:56Z</time>
      </trkpt>
      <trkpt lat="49.21513" lon="-1.57082">
        <ele>6.2</ele>
        <time>2020-06-12T06:03:57Z</time>
      </trkpt>
      <trkpt lat="49.21518" lon="-1.57078">
        <ele>6.1</ele>
        <time>2020-06-12T06:03:58Z</time>
      </trkpt>
      <trkpt lat="49.21523" lon="-1.57074">
        <ele>6.1</ele>
        <time>2020-06-12T06:03:59Z</time>
      </trkpt>
      <trkpt lat="49.21528" lon="-1.57071">
        <ele>6.1</ele>
        <time>2020-06-12T06:04:00Z</time>
      </trkpt>
      <trkpt lat="49.21533" lon="-1.57067">
        <ele>6.1</ele>
        <time>2020-06-12T06:04:01Z</time>
      </trkpt>
      <trkpt lat="49.21538" lon="-1.57064">
        <ele>6.1</ele>
        <time>2020-06-12T06:04:02Z</time>
      </trkpt>
      <trkpt lat="49.21543" lon="-1.5706">
        <ele>6.1</ele>
        <time>2020-06-12T06:04:03Z</time>
      </trkpt>
      <trkpt lat="49.21547" lon="-1.57057">
        <ele>6.1</ele>
        <time>2020-06-12T06:04:04Z</time>
      </trkpt>
      <trkpt lat="49.21553" lon="-1.57054">
        <ele>6.1</ele>
        <time>2020-06-12T06:04:05Z</time>
      </trkpt>
      <trkpt lat="49.21558" lon="-1.57051">
        <ele>6</ele>
        <time>2020-06-12T06:04:06Z</time>
      </trkpt>
      <trkpt lat="49.21563" lon="-1.57047">
        <ele>6</ele>
        <time>2020-06-12T06:04:07Z</time>
      </trkpt>
      <trkpt lat="49.21568" lon="-1.57043">
        <ele>6</ele>
        <time>2020-06-12T06:04:08Z</time>
      </trkpt>
      <trkpt lat="49.21574" lon="-1.57039">
        <ele>6</ele>
        <time>2020-06-12T06:04:09Z</time>
      </trkpt>
      <trkpt lat="49.21579" lon="-1.57036">
        <ele>5.9</ele>
        <time>2020-06-12T06:04:10Z</time>
      </trkpt>
      <trkpt lat="49.21584" lon="-1.57032">
        <ele>5.9</ele>
        <time>2020-06-12T06:04:11Z</time>
      </trkpt>
      <trkpt lat="49.21588" lon="-1.57028">
        <ele>5.9</ele>
        <time>2020-06-12T06:04:12Z</time>
      </trkpt>
      <trkpt lat="49.21593" lon="-1.57025">
        <ele>5.9</ele>
        <time>2020-06-12T06:04:13Z</time>
      </trkpt>
      <trkpt lat="49.21598" lon="-1.57022">
        <ele>5.9</ele>
        <time>2020-06-12T06:04:14Z</time>
      </trkpt>
      <trkpt lat="49.21604" lon="-1.57019">
        <ele>5.9</ele>
        <time>2020-06-12T06:04:15Z</time>
      </trkpt>
      <trkpt lat="49.21608" lon="-1.57015">
        <ele>5.9</ele>
        <time>2020-06-12T06:04:16Z</time>
      </trkpt>
      <trkpt lat="49.21613" lon="-1.57012">
        <ele>5.9</ele>
        <time>2020-06-12T06:04:17Z</time>
      </trkpt>
      <trkpt lat="49.21618" lon="-1.57008">
        <ele>5.9</ele>
        <time>2020-06-12T06:04:18Z</time>
      </trkpt>
      <trkpt lat="49.21623" lon="-1.57005">
        <ele>6</ele>
        <time>2020-06-12T06:04:19Z</time>
      </trkpt>
      <trkpt lat="49.21628" lon="-1.57001">
        <ele>6</ele>
        <time>2020-06-12T06:04:20Z</time>
      </trkpt>
      <trkpt lat="49.21633" lon="-1.56998">
        <ele>6</ele>
        <time>2020-06-12T06:04:21Z</time>
      </trkpt>
      <trkpt lat="49.21637" lon="-1.56995">
        <ele>6</ele>
        <time>2020-06-12T06:04:22Z</time>
      </trkpt>
      <trkpt lat="49.21641" lon="-1.56992">
        <ele>6</ele>
        <time>2020-06-12T06:04:23Z</time>
      </trkpt>
      <trkpt lat="49.21646" lon="-1.56988">
        <ele>6</ele>
        <time>2020-06-12T06:04:24Z</time>
      </trkpt>
      <trkpt lat="49.21651" lon="-1.56985">
        <ele>6</ele>
        <time>2020-06-12T06:04:25Z</time>
      </trkpt>
      <trkpt lat="49.21656" lon="-1.56981">
        <ele>6</ele>
        <time>2020-06-12T06:04:26Z</time>
      </trkpt>
      <trkpt lat="49.2166" lon="-1.56978">
        <ele>6</ele>
        <time>2020-06-12T06:04:27Z</time>
      </trkpt>
      <trkpt lat="49.21665" lon="-1.56975">
        <ele>6</ele>
        <time>2020-06-12T06:04:28Z</time>
      </trkpt>
      <trkpt lat="49.2167" lon="-1.56972">
        <ele>6</ele>
        <time>2020-06-12T06:04:29Z</time>
      </trkpt>
      <trkpt lat="49.21675" lon="-1.56969">
        <ele>5.9</ele>
        <time>2020-06-12T06:04:30Z</time>
      </trkpt>
      <trkpt lat="49.2168" lon="-1.56965">
        <ele>5.9</ele>
        <time>2020-06-12T06:04:31Z</time>
      </trkpt>
      <trkpt lat="49.21684" lon="-1.56962">
        <ele>5.8</ele>
        <time>2020-06-12T06:04:32Z</time>
      </trkpt>
      <trkpt lat="49.21689" lon="-1.56958">
        <ele>5.8</ele>
        <time>2020-06-12T06:04:33Z</time>
      </trkpt>
      <trkpt lat="49.21694" lon="-1.56954">
        <ele>5.8</ele>
        <time>2020-06-12T06:04:34Z</time>
      </trkpt>
      <trkpt lat="49.21699" lon="-1.56951">
        <ele>5.8</ele>
        <time>2020-06-12T06:04:35Z</time>
      </trkpt>
      <trkpt lat="49.21704" lon="-1.56948">
        <ele>5.8</ele>
        <time>2020-06-12T06:04:36Z</time>
      </trkpt>
      <trkpt lat="49.21709" lon="-1.56945">
        <ele>5.8</ele>
        <time>2020-06-12T06:04:37Z</time>
      </trkpt>
      <trkpt lat="49.21714" lon="-1.56942">
        <ele>5.8</ele>
        <time>2020-06-12T06:04:38Z</time>
      </trkpt>
      <trkpt lat="49.21718" lon="-1.56939">
        <ele>5.8</ele>
        <time>2020-06-12T06:04:39Z</time>
      </trkpt>
      <trkpt lat="49.21723" lon="-1.56936">
        <ele>5.8</ele>
        <time>2020-06-12T06:04:40Z</time>
      </trkpt>
      <trkpt lat="49.21728" lon="-1.56933">
        <ele>5.8</ele>
        <time>2020-06-12T06:04:41Z</time>
      </trkpt>
      <trkpt lat="49.21732" lon="-1.56929">
        <ele>5.8</ele>
        <time>2020-06-12T06:04:42Z</time>
      </trkpt>
      <trkpt lat="49.21737" lon="-1.56926">
        <ele>5.8</ele>
        <time>2020-06-12T06:04:43Z</time>
      </trkpt>
      <trkpt lat="49.21742" lon="-1.56923">
        <ele>5.8</ele>
        <time>2020-06-12T06:04:44Z</time>
      </trkpt>
      <trkpt lat="49.21748" lon="-1.56919">
        <ele>5.8</ele>
        <time>2020-06-12T06:04:45Z</time>
      </trkpt>
      <trkpt lat="49.21752" lon="-1.56916">
        <ele>5.8</ele>
        <time>2020-06-12T06:04:46Z</time>
      </trkpt>
      <trkpt lat="49.21757" lon="-1.56913">
        <ele>5.8</ele>
        <time>2020-06-12T06:04:47Z</time>
      </trkpt>
      <trkpt lat="49.21761" lon="-1.5691">
        <ele>5.8</ele>
        <time>2020-06-12T06:04:48Z</time>
      </trkpt>
      <trkpt lat="49.21766" lon="-1.56907">
        <ele>5.8</ele>
        <time>2020-06-12T06:04:49Z</time>
      </trkpt>
      <trkpt lat="49.21771" lon="-1.56905">
        <ele>5.8</ele>
        <time>2020-06-12T06:04:50Z</time>
      </trkpt>
      <trkpt lat="49.21775" lon="-1.56903">
        <ele>5.8</ele>
        <time>2020-06-12T06:04:51Z</time>
      </trkpt>
      <trkpt lat="49.21779" lon="-1.569">
        <ele>5.8</ele>
        <time>2020-06-12T06:04:52Z</time>
      </trkpt>
      <trkpt lat="49.21783" lon="-1.56898">
        <ele>5.9</ele>
        <time>2020-06-12T06:04:53Z</time>
      </trkpt>
      <trkpt lat="49.21787" lon="-1.56896">
        <ele>5.9</ele>
        <time>2020-06-12T06:04:54Z</time>
      </trkpt>
      <trkpt lat="49.2179" lon="-1.56894">
        <ele>6</ele>
        <time>2020-06-12T06:04:55Z</time>
      </trkpt>
      <trkpt lat="49.21794" lon="-1.56891">
        <ele>6</ele>
        <time>2020-06-12T06:04:56Z</time>
      </trkpt>
      <trkpt lat="49.21797" lon="-1.56889">
        <ele>6</ele>
        <time>2020-06-12T06:04:57Z</time>
      </trkpt>
      <trkpt lat="49.21801" lon="-1.56887">
        <ele>6</ele>
        <time>2020-06-12T06:04:58Z</time>
      </trkpt>
      <trkpt lat="49.21804" lon="-1.56885">
        <ele>6</ele>
        <time>2020-06-12T06:04:59Z</time>
      </trkpt>
      <trkpt lat="49.21807" lon="-1.56883">
        <ele>6</ele>
        <time>2020-06-12T06:05:00Z</time>
      </trkpt>
      <trkpt lat="49.2181" lon="-1.56881">
        <ele>6</ele>
        <time>2020-06-12T06:05:01Z</time>
      </trkpt>
      <trkpt lat="49.21813" lon="-1.56878">
        <ele>5.9</ele>
        <time>2020-06-12T06:05:02Z</time>
      </trkpt>
      <trkpt lat="49.21816" lon="-1.56876">
        <ele>5.9</ele>
        <time>2020-06-12T06:05:03Z</time>
      </trkpt>
      <trkpt lat="49.21819" lon="-1.56874">
        <ele>5.9</ele>
        <time>2020-06-12T06:05:04Z</time>
      </trkpt>
      <trkpt lat="49.21822" lon="-1.56872">
        <ele>5.8</ele>
        <time>2020-06-12T06:05:05Z</time>
      </trkpt>
      <trkpt lat="49.21823" lon="-1.56871">
        <ele>5.8</ele>
        <time>2020-06-12T06:05:06Z</time>
      </trkpt>
      <trkpt lat="49.21826" lon="-1.56869">
        <ele>5.8</ele>
        <time>2020-06-12T06:05:07Z</time>
      </trkpt>
      <trkpt lat="49.21828" lon="-1.56866">
        <ele>5.8</ele>
        <time>2020-06-12T06:05:08Z</time>
      </trkpt>
      <trkpt lat="49.21829" lon="-1.56864">
        <ele>5.8</ele>
        <time>2020-06-12T06:05:09Z</time>
      </trkpt>
      <trkpt lat="49.21832" lon="-1.56862">
        <ele>5.8</ele>
        <time>2020-06-12T06:05:10Z</time>
      </trkpt>
      <trkpt lat="49.21836" lon="-1.5686">
        <ele>5.8</ele>
        <time>2020-06-12T06:05:11Z</time>
      </trkpt>
      <trkpt lat="49.21837" lon="-1.56859">
        <ele>5.8</ele>
        <time>2020-06-12T06:05:12Z</time>
      </trkpt>
      <trkpt lat="49.21841" lon="-1.56856">
        <ele>5.8</ele>
        <time>2020-06-12T06:05:13Z</time>
      </trkpt>
      <trkpt lat="49.21842" lon="-1.56855">
        <ele>5.8</ele>
        <time>2020-06-12T06:05:14Z</time>
      </trkpt>
      <trkpt lat="49.21844" lon="-1.56853">
        <ele>5.8</ele>
        <time>2020-06-12T06:05:15Z</time>
      </trkpt>
      <trkpt lat="49.21848" lon="-1.56851">
        <ele>5.8</ele>
        <time>2020-06-12T06:05:16Z</time>
      </trkpt>
      <trkpt lat="49.21851" lon="-1.56849">
        <ele>5.8</ele>
        <time>2020-06-12T06:05:17Z</time>
      </trkpt>
      <trkpt lat="49.21855" lon="-1.56846">
        <ele>5.8</ele>
        <time>2020-06-12T06:05:18Z</time>
      </trkpt>
      <trkpt lat="49.21859" lon="-1.56845">
        <ele>5.8</ele>
        <time>2020-06-12T06:05:19Z</time>
      </trkpt>
      <trkpt lat="49.21862" lon="-1.56843">
        <ele>5.8</ele>
        <time>2020-06-12T06:05:20Z</time>
      </trkpt>
      <trkpt lat="49.21866" lon="-1.5684">
        <ele>5.8</ele>
        <time>2020-06-12T06:05:21Z</time>
      </trkpt>
      <trkpt lat="49.2187" lon="-1.56837">
        <ele>5.8</ele>
        <time>2020-06-12T06:05:22Z</time>
      </trkpt>
      <trkpt lat="49.21874" lon="-1.56835">
        <ele>5.8</ele>
        <time>2020-06-12T06:05:23Z</time>
      </trkpt>
      <trkpt lat="49.21878" lon="-1.56833">
        <ele>5.8</ele>
        <time>2020-06-12T06:05:24Z</time>
      </trkpt>
      <trkpt lat="49.21883" lon="-1.5683">
        <ele>5.9</ele>
        <time>2020-06-12T06:05:25Z</time>
      </trkpt>
      <trkpt lat="49.21887" lon="-1.56827">
        <ele>5.9</ele>
        <time>2020-06-12T06:05:26Z</time>
      </trkpt>
      <trkpt lat="49.21891" lon="-1.56823">
        <ele>5.9</ele>
        <time>2020-06-12T06:05:27Z</time>
      </trkpt>
      <trkpt lat="49.21896" lon="-1.5682">
        <ele>5.9</ele>
        <time>2020-06-12T06:05:28Z</time>
      </trkpt>
      <trkpt lat="49.21901" lon="-1.56816">
        <ele>5.9</ele>
        <time>2020-06-12T06:05:29Z</time>
      </trkpt>
      <trkpt lat="49.21905" lon="-1.56813">
        <ele>5.9</ele>
        <time>2020-06-12T06:05:30Z</time>
      </trkpt>
      <trkpt lat="49.2191" lon="-1.56809">
        <ele>6</ele>
        <time>2020-06-12T06:05:31Z</time>
      </trkpt>
      <trkpt lat="49.21914" lon="-1.56806">
        <ele>6</ele>
        <time>2020-06-12T06:05:32Z</time>
      </trkpt>
      <trkpt lat="49.21919" lon="-1.56804">
        <ele>6.1</ele>
        <time>2020-06-12T06:05:33Z</time>
      </trkpt>
      <trkpt lat="49.21922" lon="-1.56801">
        <ele>6.2</ele>
        <time>2020-06-12T06:05:34Z</time>
      </trkpt>
      <trkpt lat="49.21926" lon="-1.56798">
        <ele>6.2</ele>
        <time>2020-06-12T06:05:35Z</time>
      </trkpt>
      <trkpt lat="49.2193" lon="-1.56795">
        <ele>6.3</ele>
        <time>2020-06-12T06:05:36Z</time>
      </trkpt>
      <trkpt lat="49.21935" lon="-1.56792">
        <ele>6.3</ele>
        <time>2020-06-12T06:05:37Z</time>
      </trkpt>
      <trkpt lat="49.2194" lon="-1.56789">
        <ele>6.4</ele>
        <time>2020-06-12T06:05:38Z</time>
      </trkpt>
      <trkpt lat="49.21944" lon="-1.56785">
        <ele>6.4</ele>
        <time>2020-06-12T06:05:39Z</time>
      </trkpt>
      <trkpt lat="49.21948" lon="-1.56783">
        <ele>6.4</ele>
        <time>2020-06-12T06:05:40Z</time>
      </trkpt>
      <trkpt lat="49.21952" lon="-1.5678">
        <ele>6.5</ele>
        <time>2020-06-12T06:05:41Z</time>
      </trkpt>
      <trkpt lat="49.21956" lon="-1.56777">
        <ele>6.5</ele>
        <time>2020-06-12T06:05:42Z</time>
      </trkpt>
      <trkpt lat="49.21962" lon="-1.56772">
        <ele>6.6</ele>
        <time>2020-06-12T06:05:43Z</time>
      </trkpt>
      <trkpt lat="49.21965" lon="-1.5677">
        <ele>6.6</ele>
        <time>2020-06-12T06:05:44Z</time>
      </trkpt>
      <trkpt lat="49.21969" lon="-1.56766">
        <ele>6.7</ele>
        <time>2020-06-12T06:05:45Z</time>
      </trkpt>
      <trkpt lat="49.21974" lon="-1.56762">
        <ele>6.8</ele>
        <time>2020-06-12T06:05:46Z</time>
      </trkpt>
      <trkpt lat="49.21977" lon="-1.56759">
        <ele>6.8</ele>
        <time>2020-06-12T06:05:47Z</time>
      </trkpt>
      <trkpt lat="49.21981" lon="-1.56756">
        <ele>6.9</ele>
        <time>2020-06-12T06:05:48Z</time>
      </trkpt>
      <trkpt lat="49.21985" lon="-1.56754">
        <ele>7</ele>
        <time>2020-06-12T06:05:49Z</time>
      </trkpt>
      <trkpt lat="49.2199" lon="-1.5675">
        <ele>7.1</ele>
        <time>2020-06-12T06:05:50Z</time>
      </trkpt>
      <trkpt lat="49.21994" lon="-1.56747">
        <ele>7.2</ele>
        <time>2020-06-12T06:05:51Z</time>
      </trkpt>
      <trkpt lat="49.21998" lon="-1.56743">
        <ele>7.3</ele>
        <time>2020-06-12T06:05:52Z</time>
      </trkpt>
      <trkpt lat="49.22003" lon="-1.56739">
        <ele>7.3</ele>
        <time>2020-06-12T06:05:53Z</time>
      </trkpt>
      <trkpt lat="49.22007" lon="-1.56734">
        <ele>7.4</ele>
        <time>2020-06-12T06:05:54Z</time>
      </trkpt>
      <trkpt lat="49.22011" lon="-1.56731">
        <ele>7.5</ele>
        <time>2020-06-12T06:05:55Z</time>
      </trkpt>
      <trkpt lat="49.22015" lon="-1.56729">
        <ele>7.5</ele>
        <time>2020-06-12T06:05:56Z</time>
      </trkpt>
      <trkpt lat="49.22019" lon="-1.56726">
        <ele>7.6</ele>
        <time>2020-06-12T06:05:57Z</time>
      </trkpt>
      <trkpt lat="49.22023" lon="-1.56723">
        <ele>7.7</ele>
        <time>2020-06-12T06:05:58Z</time>
      </trkpt>
      <trkpt lat="49.22027" lon="-1.5672">
        <ele>7.7</ele>
        <time>2020-06-12T06:05:59Z</time>
      </trkpt>
      <trkpt lat="49.22031" lon="-1.56717">
        <ele>7.8</ele>
        <time>2020-06-12T06:06:00Z</time>
      </trkpt>
      <trkpt lat="49.22035" lon="-1.56714">
        <ele>7.9</ele>
        <time>2020-06-12T06:06:01Z</time>
      </trkpt>
      <trkpt lat="49.2204" lon="-1.56711">
        <ele>7.9</ele>
        <time>2020-06-12T06:06:02Z</time>
      </trkpt>
      <trkpt lat="49.22044" lon="-1.56709">
        <ele>8</ele>
        <time>2020-06-12T06:06:03Z</time>
      </trkpt>
      <trkpt lat="49.22048" lon="-1.56707">
        <ele>8.1</ele>
        <time>2020-06-12T06:06:04Z</time>
      </trkpt>
      <trkpt lat="49.22052" lon="-1.56705">
        <ele>8.1</ele>
        <time>2020-06-12T06:06:05Z</time>
      </trkpt>
      <trkpt lat="49.22056" lon="-1.56702">
        <ele>8.2</ele>
        <time>2020-06-12T06:06:06Z</time>
      </trkpt>
      <trkpt lat="49.2206" lon="-1.567">
        <ele>8.3</ele>
        <time>2020-06-12T06:06:07Z</time>
      </trkpt>
      <trkpt lat="49.22065" lon="-1.56697">
        <ele>8.3</ele>
        <time>2020-06-12T06:06:08Z</time>
      </trkpt>
      <trkpt lat="49.22069" lon="-1.56694">
        <ele>8.4</ele>
        <time>2020-06-12T06:06:09Z</time>
      </trkpt>
      <trkpt lat="49.22073" lon="-1.5669">
        <ele>8.5</ele>
        <time>2020-06-12T06:06:10Z</time>
      </trkpt>
      <trkpt lat="49.22077" lon="-1.56687">
        <ele>8.6</ele>
        <time>2020-06-12T06:06:11Z</time>
      </trkpt>
      <trkpt lat="49.22081" lon="-1.56684">
        <ele>8.7</ele>
        <time>2020-06-12T06:06:12Z</time>
      </trkpt>
      <trkpt lat="49.22085" lon="-1.56681">
        <ele>8.8</ele>
        <time>2020-06-12T06:06:13Z</time>
      </trkpt>
      <trkpt lat="49.22089" lon="-1.56679">
        <ele>8.9</ele>
        <time>2020-06-12T06:06:14Z</time>
      </trkpt>
      <trkpt lat="49.22094" lon="-1.56675">
        <ele>9.1</ele>
        <time>2020-06-12T06:06:15Z</time>
      </trkpt>
      <trkpt lat="49.22097" lon="-1.56673">
        <ele>9.2</ele>
        <time>2020-06-12T06:06:16Z</time>
      </trkpt>
      <trkpt lat="49.22101" lon="-1.56671">
        <ele>9.3</ele>
        <time>2020-06-12T06:06:17Z</time>
      </trkpt>
      <trkpt lat="49.22105" lon="-1.56668">
        <ele>9.5</ele>
        <time>2020-06-12T06:06:18Z</time>
      </trkpt>
      <trkpt lat="49.22109" lon="-1.56665">
        <ele>9.5</ele>
        <time>2020-06-12T06:06:19Z</time>
      </trkpt>
      <trkpt lat="49.22113" lon="-1.56663">
        <ele>9.6</ele>
        <time>2020-06-12T06:06:20Z</time>
      </trkpt>
      <trkpt lat="49.22117" lon="-1.56661">
        <ele>9.7</ele>
        <time>2020-06-12T06:06:21Z</time>
      </trkpt>
      <trkpt lat="49.22121" lon="-1.56658">
        <ele>9.7</ele>
        <time>2020-06-12T06:06:22Z</time>
      </trkpt>
      <trkpt lat="49.22124" lon="-1.56655">
        <ele>9.7</ele>
        <time>2020-06-12T06:06:23Z</time>
      </trkpt>
      <trkpt lat="49.22128" lon="-1.56653">
        <ele>9.8</ele>
        <time>2020-06-12T06:06:24Z</time>
      </trkpt>
      <trkpt lat="49.22132" lon="-1.5665">
        <ele>9.9</ele>
        <time>2020-06-12T06:06:25Z</time>
      </trkpt>
      <trkpt lat="49.22135" lon="-1.56648">
        <ele>9.9</ele>
        <time>2020-06-12T06:06:26Z</time>
      </trkpt>
      <trkpt lat="49.22139" lon="-1.56645">
        <ele>10</ele>
        <time>2020-06-12T06:06:27Z</time>
      </trkpt>
      <trkpt lat="49.22143" lon="-1.56641">
        <ele>10.1</ele>
        <time>2020-06-12T06:06:28Z</time>
      </trkpt>
      <trkpt lat="49.22147" lon="-1.56638">
        <ele>10.2</ele>
        <time>2020-06-12T06:06:29Z</time>
      </trkpt>
      <trkpt lat="49.22152" lon="-1.56635">
        <ele>10.2</ele>
        <time>2020-06-12T06:06:30Z</time>
      </trkpt>
      <trkpt lat="49.22156" lon="-1.56632">
        <ele>10.3</ele>
        <time>2020-06-12T06:06:31Z</time>
      </trkpt>
      <trkpt lat="49.22161" lon="-1.5663">
        <ele>10.4</ele>
        <time>2020-06-12T06:06:32Z</time>
      </trkpt>
      <trkpt lat="49.22164" lon="-1.56627">
        <ele>10.5</ele>
        <time>2020-06-12T06:06:33Z</time>
      </trkpt>
      <trkpt lat="49.22169" lon="-1.56624">
        <ele>10.6</ele>
        <time>2020-06-12T06:06:34Z</time>
      </trkpt>
      <trkpt lat="49.22173" lon="-1.56622">
        <ele>10.7</ele>
        <time>2020-06-12T06:06:35Z</time>
      </trkpt>
      <trkpt lat="49.22177" lon="-1.56619">
        <ele>10.8</ele>
        <time>2020-06-12T06:06:36Z</time>
      </trkpt>
      <trkpt lat="49.22181" lon="-1.56616">
        <ele>10.8</ele>
        <time>2020-06-12T06:06:37Z</time>
      </trkpt>
      <trkpt lat="49.22185" lon="-1.56614">
        <ele>10.9</ele>
        <time>2020-06-12T06:06:38Z</time>
      </trkpt>
      <trkpt lat="49.22189" lon="-1.56611">
        <ele>11</ele>
        <time>2020-06-12T06:06:39Z</time>
      </trkpt>
      <trkpt lat="49.22193" lon="-1.56609">
        <ele>11.1</ele>
        <time>2020-06-12T06:06:40Z</time>
      </trkpt>
      <trkpt lat="49.22197" lon="-1.56606">
        <ele>11.2</ele>
        <time>2020-06-12T06:06:41Z</time>
      </trkpt>
      <trkpt lat="49.22201" lon="-1.56603">
        <ele>11.3</ele>
        <time>2020-06-12T06:06:42Z</time>
      </trkpt>
      <trkpt lat="49.22205" lon="-1.566">
        <ele>11.4</ele>
        <time>2020-06-12T06:06:43Z</time>
      </trkpt>
      <trkpt lat="49.2221" lon="-1.56597">
        <ele>11.5</ele>
        <time>2020-06-12T06:06:44Z</time>
      </trkpt>
      <trkpt lat="49.22214" lon="-1.56594">
        <ele>11.5</ele>
        <time>2020-06-12T06:06:45Z</time>
      </trkpt>
      <trkpt lat="49.22218" lon="-1.56591">
        <ele>11.6</ele>
        <time>2020-06-12T06:06:46Z</time>
      </trkpt>
      <trkpt lat="49.22221" lon="-1.56588">
        <ele>11.7</ele>
        <time>2020-06-12T06:06:47Z</time>
      </trkpt>
      <trkpt lat="49.22225" lon="-1.56585">
        <ele>11.8</ele>
        <time>2020-06-12T06:06:48Z</time>
      </trkpt>
      <trkpt lat="49.22229" lon="-1.56583">
        <ele>11.8</ele>
        <time>2020-06-12T06:06:49Z</time>
      </trkpt>
      <trkpt lat="49.22232" lon="-1.5658">
        <ele>11.9</ele>
        <time>2020-06-12T06:06:50Z</time>
      </trkpt>
      <trkpt lat="49.22236" lon="-1.56577">
        <ele>12</ele>
        <time>2020-06-12T06:06:51Z</time>
      </trkpt>
      <trkpt lat="49.2224" lon="-1.56574">
        <ele>12</ele>
        <time>2020-06-12T06:06:52Z</time>
      </trkpt>
      <trkpt lat="49.22244" lon="-1.56571">
        <ele>12.1</ele>
        <time>2020-06-12T06:06:53Z</time>
      </trkpt>
      <trkpt lat="49.22248" lon="-1.56568">
        <ele>12.2</ele>
        <time>2020-06-12T06:06:54Z</time>
      </trkpt>
      <trkpt lat="49.22251" lon="-1.56565">
        <ele>12.3</ele>
        <time>2020-06-12T06:06:55Z</time>
      </trkpt>
      <trkpt lat="49.22255" lon="-1.56562">
        <ele>12.4</ele>
        <time>2020-06-12T06:06:56Z</time>
      </trkpt>
      <trkpt lat="49.22259" lon="-1.56559">
        <ele>12.5</ele>
        <time>2020-06-12T06:06:57Z</time>
      </trkpt>
      <trkpt lat="49.22264" lon="-1.56556">
        <ele>12.5</ele>
        <time>2020-06-12T06:06:58Z</time>
      </trkpt>
      <trkpt lat="49.22269" lon="-1.56552">
        <ele>12.6</ele>
        <time>2020-06-12T06:06:59Z</time>
      </trkpt>
      <trkpt lat="49.22274" lon="-1.56549">
        <ele>12.7</ele>
        <time>2020-06-12T06:07:00Z</time>
      </trkpt>
      <trkpt lat="49.22277" lon="-1.56547">
        <ele>12.8</ele>
        <time>2020-06-12T06:07:01Z</time>
      </trkpt>
      <trkpt lat="49.22281" lon="-1.56544">
        <ele>12.9</ele>
        <time>2020-06-12T06:07:02Z</time>
      </trkpt>
      <trkpt lat="49.22285" lon="-1.56541">
        <ele>12.9</ele>
        <time>2020-06-12T06:07:03Z</time>
      </trkpt>
      <trkpt lat="49.22288" lon="-1.56538">
        <ele>13</ele>
        <time>2020-06-12T06:07:04Z</time>
      </trkpt>
      <trkpt lat="49.22292" lon="-1.56535">
        <ele>13.1</ele>
        <time>2020-06-12T06:07:05Z</time>
      </trkpt>
      <trkpt lat="49.22296" lon="-1.56532">
        <ele>13.1</ele>
        <time>2020-06-12T06:07:06Z</time>
      </trkpt>
      <trkpt lat="49.223" lon="-1.56529">
        <ele>13.2</ele>
        <time>2020-06-12T06:07:07Z</time>
      </trkpt>
      <trkpt lat="49.22304" lon="-1.56527">
        <ele>13.2</ele>
        <time>2020-06-12T06:07:08Z</time>
      </trkpt>
      <trkpt lat="49.22307" lon="-1.56524">
        <ele>13.2</ele>
        <time>2020-06-12T06:07:09Z</time>
      </trkpt>
      <trkpt lat="49.22311" lon="-1.56521">
        <ele>13.3</ele>
        <time>2020-06-12T06:07:10Z</time>
      </trkpt>
      <trkpt lat="49.22315" lon="-1.56519">
        <ele>13.3</ele>
        <time>2020-06-12T06:07:11Z</time>
      </trkpt>
      <trkpt lat="49.22319" lon="-1.56515">
        <ele>13.3</ele>
        <time>2020-06-12T06:07:12Z</time>
      </trkpt>
      <trkpt lat="49.22323" lon="-1.56512">
        <ele>13.3</ele>
        <time>2020-06-12T06:07:13Z</time>
      </trkpt>
      <trkpt lat="49.22327" lon="-1.56509">
        <ele>13.4</ele>
        <time>2020-06-12T06:07:14Z</time>
      </trkpt>
      <trkpt lat="49.22332" lon="-1.56506">
        <ele>13.4</ele>
        <time>2020-06-12T06:07:15Z</time>
      </trkpt>
      <trkpt lat="49.22336" lon="-1.56503">
        <ele>13.4</ele>
        <time>2020-06-12T06:07:16Z</time>
      </trkpt>
      <trkpt lat="49.2234" lon="-1.56501">
        <ele>13.5</ele>
        <time>2020-06-12T06:07:17Z</time>
      </trkpt>
      <trkpt lat="49.22345" lon="-1.56498">
        <ele>13.5</ele>
        <time>2020-06-12T06:07:18Z</time>
      </trkpt>
      <trkpt lat="49.22348" lon="-1.56495">
        <ele>13.5</ele>
        <time>2020-06-12T06:07:19Z</time>
      </trkpt>
      <trkpt lat="49.22352" lon="-1.56492">
        <ele>13.6</ele>
        <time>2020-06-12T06:07:20Z</time>
      </trkpt>
      <trkpt lat="49.22356" lon="-1.56489">
        <ele>13.6</ele>
        <time>2020-06-12T06:07:21Z</time>
      </trkpt>
      <trkpt lat="49.2236" lon="-1.56486">
        <ele>13.6</ele>
        <time>2020-06-12T06:07:22Z</time>
      </trkpt>
      <trkpt lat="49.22363" lon="-1.56483">
        <ele>13.6</ele>
        <time>2020-06-12T06:07:23Z</time>
      </trkpt>
      <trkpt lat="49.22367" lon="-1.56481">
        <ele>13.6</ele>
        <time>2020-06-12T06:07:24Z</time>
      </trkpt>
      <trkpt lat="49.22371" lon="-1.56479">
        <ele>13.7</ele>
        <time>2020-06-12T06:07:25Z</time>
      </trkpt>
      <trkpt lat="49.22375" lon="-1.56476">
        <ele>13.7</ele>
        <time>2020-06-12T06:07:26Z</time>
      </trkpt>
      <trkpt lat="49.2238" lon="-1.56473">
        <ele>13.7</ele>
        <time>2020-06-12T06:07:27Z</time>
      </trkpt>
      <trkpt lat="49.22384" lon="-1.5647">
        <ele>13.7</ele>
        <time>2020-06-12T06:07:28Z</time>
      </trkpt>
      <trkpt lat="49.22389" lon="-1.56469">
        <ele>13.7</ele>
        <time>2020-06-12T06:07:29Z</time>
      </trkpt>
      <trkpt lat="49.22393" lon="-1.56467">
        <ele>13.7</ele>
        <time>2020-06-12T06:07:30Z</time>
      </trkpt>
      <trkpt lat="49.22397" lon="-1.56464">
        <ele>13.8</ele>
        <time>2020-06-12T06:07:31Z</time>
      </trkpt>
      <trkpt lat="49.22401" lon="-1.56463">
        <ele>13.8</ele>
        <time>2020-06-12T06:07:32Z</time>
      </trkpt>
      <trkpt lat="49.22406" lon="-1.56461">
        <ele>13.8</ele>
        <time>2020-06-12T06:07:33Z</time>
      </trkpt>
      <trkpt lat="49.22411" lon="-1.56459">
        <ele>13.8</ele>
        <time>2020-06-12T06:07:34Z</time>
      </trkpt>
      <trkpt lat="49.22416" lon="-1.56457">
        <ele>13.8</ele>
        <time>2020-06-12T06:07:35Z</time>
      </trkpt>
      <trkpt lat="49.22421" lon="-1.56455">
        <ele>13.9</ele>
        <time>2020-06-12T06:07:36Z</time>
      </trkpt>
      <trkpt lat="49.22426" lon="-1.56453">
        <ele>13.9</ele>
        <time>2020-06-12T06:07:37Z</time>
      </trkpt>
      <trkpt lat="49.22431" lon="-1.56451">
        <ele>14</ele>
        <time>2020-06-12T06:07:38Z</time>
      </trkpt>
      <trkpt lat="49.22436" lon="-1.5645">
        <ele>14</ele>
        <time>2020-06-12T06:07:39Z</time>
      </trkpt>
      <trkpt lat="49.22441" lon="-1.56449">
        <ele>14</ele>
        <time>2020-06-12T06:07:40Z</time>
      </trkpt>
      <trkpt lat="49.22446" lon="-1.56448">
        <ele>14.1</ele>
        <time>2020-06-12T06:07:41Z</time>
      </trkpt>
      <trkpt lat="49.22451" lon="-1.56447">
        <ele>14.1</ele>
        <time>2020-06-12T06:07:42Z</time>
      </trkpt>
      <trkpt lat="49.22455" lon="-1.56445">
        <ele>14.1</ele>
        <time>2020-06-12T06:07:43Z</time>
      </trkpt>
      <trkpt lat="49.22459" lon="-1.56445">
        <ele>14.1</ele>
        <time>2020-06-12T06:07:44Z</time>
      </trkpt>
      <trkpt lat="49.22462" lon="-1.56444">
        <ele>14.2</ele>
        <time>2020-06-12T06:07:45Z</time>
      </trkpt>
      <trkpt lat="49.22466" lon="-1.56443">
        <ele>14.2</ele>
        <time>2020-06-12T06:07:46Z</time>
      </trkpt>
      <trkpt lat="49.2247" lon="-1.56442">
        <ele>14.2</ele>
        <time>2020-06-12T06:07:47Z</time>
      </trkpt>
      <trkpt lat="49.22475" lon="-1.56442">
        <ele>14.2</ele>
        <time>2020-06-12T06:07:48Z</time>
      </trkpt>
      <trkpt lat="49.22479" lon="-1.56441">
        <ele>14.3</ele>
        <time>2020-06-12T06:07:49Z</time>
      </trkpt>
      <trkpt lat="49.22484" lon="-1.5644">
        <ele>14.3</ele>
        <time>2020-06-12T06:07:50Z</time>
      </trkpt>
      <trkpt lat="49.22489" lon="-1.5644">
        <ele>14.4</ele>
        <time>2020-06-12T06:07:51Z</time>
      </trkpt>
      <trkpt lat="49.22493" lon="-1.5644">
        <ele>14.4</ele>
        <time>2020-06-12T06:07:52Z</time>
      </trkpt>
      <trkpt lat="49.22497" lon="-1.56439">
        <ele>14.4</ele>
        <time>2020-06-12T06:07:53Z</time>
      </trkpt>
      <trkpt lat="49.22501" lon="-1.56438">
        <ele>14.4</ele>
        <time>2020-06-12T06:07:54Z</time>
      </trkpt>
      <trkpt lat="49.22506" lon="-1.56437">
        <ele>14.4</ele>
        <time>2020-06-12T06:07:55Z</time>
      </trkpt>
      <trkpt lat="49.22511" lon="-1.56435">
        <ele>14.4</ele>
        <time>2020-06-12T06:07:56Z</time>
      </trkpt>
      <trkpt lat="49.22516" lon="-1.56435">
        <ele>14.3</ele>
        <time>2020-06-12T06:07:57Z</time>
      </trkpt>
      <trkpt lat="49.22522" lon="-1.56435">
        <ele>14.3</ele>
        <time>2020-06-12T06:07:58Z</time>
      </trkpt>
      <trkpt lat="49.22527" lon="-1.56435">
        <ele>14.4</ele>
        <time>2020-06-12T06:07:59Z</time>
      </trkpt>
      <trkpt lat="49.22531" lon="-1.56435">
        <ele>14.4</ele>
        <time>2020-06-12T06:08:00Z</time>
      </trkpt>
      <trkpt lat="49.22535" lon="-1.56435">
        <ele>14.4</ele>
        <time>2020-06-12T06:08:01Z</time>
      </trkpt>
      <trkpt lat="49.22539" lon="-1.56436">
        <ele>14.4</ele>
        <time>2020-06-12T06:08:02Z</time>
      </trkpt>
      <trkpt lat="49.22543" lon="-1.56435">
        <ele>14.5</ele>
        <time>2020-06-12T06:08:03Z</time>
      </trkpt>
      <trkpt lat="49.22548" lon="-1.56435">
        <ele>14.5</ele>
        <time>2020-06-12T06:08:04Z</time>
      </trkpt>
      <trkpt lat="49.22553" lon="-1.56435">
        <ele>14.5</ele>
        <time>2020-06-12T06:08:05Z</time>
      </trkpt>
      <trkpt lat="49.22557" lon="-1.56435">
        <ele>14.6</ele>
        <time>2020-06-12T06:08:06Z</time>
      </trkpt>
      <trkpt lat="49.22561" lon="-1.56436">
        <ele>14.6</ele>
        <time>2020-06-12T06:08:07Z</time>
      </trkpt>
      <trkpt lat="49.22566" lon="-1.56436">
        <ele>14.6</ele>
        <time>2020-06-12T06:08:08Z</time>
      </trkpt>
      <trkpt lat="49.22571" lon="-1.56437">
        <ele>14.6</ele>
        <time>2020-06-12T06:08:09Z</time>
      </trkpt>
      <trkpt lat="49.22576" lon="-1.56438">
        <ele>14.6</ele>
        <time>2020-06-12T06:08:10Z</time>
      </trkpt>
      <trkpt lat="49.2258" lon="-1.56439">
        <ele>14.6</ele>
        <time>2020-06-12T06:08:11Z</time>
      </trkpt>
      <trkpt lat="49.22585" lon="-1.56443">
        <ele>14.7</ele>
        <time>2020-06-12T06:08:12Z</time>
      </trkpt>
      <trkpt lat="49.2259" lon="-1.56446">
        <ele>14.7</ele>
        <time>2020-06-12T06:08:13Z</time>
      </trkpt>
      <trkpt lat="49.22594" lon="-1.56448">
        <ele>14.7</ele>
        <time>2020-06-12T06:08:14Z</time>
      </trkpt>
      <trkpt lat="49.22598" lon="-1.5645">
        <ele>14.7</ele>
        <time>2020-06-12T06:08:15Z</time>
      </trkpt>
      <trkpt lat="49.22603" lon="-1.56453">
        <ele>14.7</ele>
        <time>2020-06-12T06:08:16Z</time>
      </trkpt>
      <trkpt lat="49.22607" lon="-1.56454">
        <ele>14.7</ele>
        <time>2020-06-12T06:08:17Z</time>
      </trkpt>
      <trkpt lat="49.22612" lon="-1.56456">
        <ele>14.8</ele>
        <time>2020-06-12T06:08:18Z</time>
      </trkpt>
      <trkpt lat="49.22617" lon="-1.56457">
        <ele>14.8</ele>
        <time>2020-06-12T06:08:19Z</time>
      </trkpt>
      <trkpt lat="49.22622" lon="-1.56458">
        <ele>14.8</ele>
        <time>2020-06-12T06:08:20Z</time>
      </trkpt>
      <trkpt lat="49.22627" lon="-1.5646">
        <ele>14.9</ele>
        <time>2020-06-12T06:08:21Z</time>
      </trkpt>
      <trkpt lat="49.22633" lon="-1.56462">
        <ele>14.9</ele>
        <time>2020-06-12T06:08:22Z</time>
      </trkpt>
      <trkpt lat="49.22638" lon="-1.56463">
        <ele>15</ele>
        <time>2020-06-12T06:08:23Z</time>
      </trkpt>
      <trkpt lat="49.22643" lon="-1.56463">
        <ele>15</ele>
        <time>2020-06-12T06:08:24Z</time>
      </trkpt>
      <trkpt lat="49.22648" lon="-1.56465">
        <ele>15</ele>
        <time>2020-06-12T06:08:25Z</time>
      </trkpt>
      <trkpt lat="49.22653" lon="-1.56467">
        <ele>15</ele>
        <time>2020-06-12T06:08:26Z</time>
      </trkpt>
      <trkpt lat="49.22658" lon="-1.56469">
        <ele>15</ele>
        <time>2020-06-12T06:08:27Z</time>
      </trkpt>
      <trkpt lat="49.22662" lon="-1.56472">
        <ele>15.1</ele>
        <time>2020-06-12T06:08:28Z</time>
      </trkpt>
      <trkpt lat="49.22667" lon="-1.56474">
        <ele>15.1</ele>
        <time>2020-06-12T06:08:29Z</time>
      </trkpt>
      <trkpt lat="49.22672" lon="-1.56477">
        <ele>15.1</ele>
        <time>2020-06-12T06:08:30Z</time>
      </trkpt>
      <trkpt lat="49.22677" lon="-1.56479">
        <ele>15.2</ele>
        <time>2020-06-12T06:08:31Z</time>
      </trkpt>
      <trkpt lat="49.22681" lon="-1.56481">
        <ele>15.2</ele>
        <time>2020-06-12T06:08:32Z</time>
      </trkpt>
      <trkpt lat="49.22686" lon="-1.56484">
        <ele>15.2</ele>
        <time>2020-06-12T06:08:33Z</time>
      </trkpt>
      <trkpt lat="49.22691" lon="-1.56487">
        <ele>15.3</ele>
        <time>2020-06-12T06:08:34Z</time>
      </trkpt>
      <trkpt lat="49.22695" lon="-1.5649">
        <ele>15.3</ele>
        <time>2020-06-12T06:08:35Z</time>
      </trkpt>
      <trkpt lat="49.227" lon="-1.56493">
        <ele>15.3</ele>
        <time>2020-06-12T06:08:36Z</time>
      </trkpt>
      <trkpt lat="49.22705" lon="-1.56495">
        <ele>15.3</ele>
        <time>2020-06-12T06:08:37Z</time>
      </trkpt>
      <trkpt lat="49.22709" lon="-1.56498">
        <ele>15.4</ele>
        <time>2020-06-12T06:08:38Z</time>
      </trkpt>
      <trkpt lat="49.22714" lon="-1.56499">
        <ele>15.4</ele>
        <time>2020-06-12T06:08:39Z</time>
      </trkpt>
      <trkpt lat="49.22718" lon="-1.56501">
        <ele>15.4</ele>
        <time>2020-06-12T06:08:40Z</time>
      </trkpt>
      <trkpt lat="49.22723" lon="-1.56503">
        <ele>15.4</ele>
        <time>2020-06-12T06:08:41Z</time>
      </trkpt>
      <trkpt lat="49.22727" lon="-1.56506">
        <ele>15.4</ele>
        <time>2020-06-12T06:08:42Z</time>
      </trkpt>
      <trkpt lat="49.22732" lon="-1.56509">
        <ele>15.5</ele>
        <time>2020-06-12T06:08:43Z</time>
      </trkpt>
      <trkpt lat="49.22737" lon="-1.5651">
        <ele>15.5</ele>
        <time>2020-06-12T06:08:44Z</time>
      </trkpt>
      <trkpt lat="49.22742" lon="-1.56512">
        <ele>15.6</ele>
        <time>2020-06-12T06:08:45Z</time>
      </trkpt>
      <trkpt lat="49.22746" lon="-1.56515">
        <ele>15.6</ele>
        <time>2020-06-12T06:08:46Z</time>
      </trkpt>
      <trkpt lat="49.2275" lon="-1.56517">
        <ele>15.6</ele>
        <time>2020-06-12T06:08:47Z</time>
      </trkpt>
      <trkpt lat="49.22755" lon="-1.5652">
        <ele>15.6</ele>
        <time>2020-06-12T06:08:48Z</time>
      </trkpt>
      <trkpt lat="49.2276" lon="-1.56522">
        <ele>15.6</ele>
        <time>2020-06-12T06:08:49Z</time>
      </trkpt>
      <trkpt lat="49.22765" lon="-1.56524">
        <ele>15.6</ele>
        <time>2020-06-12T06:08:50Z</time>
      </trkpt>
      <trkpt lat="49.2277" lon="-1.56526">
        <ele>15.6</ele>
        <time>2020-06-12T06:08:51Z</time>
      </trkpt>
      <trkpt lat="49.22775" lon="-1.56528">
        <ele>15.6</ele>
        <time>2020-06-12T06:08:52Z</time>
      </trkpt>
      <trkpt lat="49.2278" lon="-1.56531">
        <ele>15.6</ele>
        <time>2020-06-12T06:08:53Z</time>
      </trkpt>
      <trkpt lat="49.22784" lon="-1.56533">
        <ele>15.6</ele>
        <time>2020-06-12T06:08:54Z</time>
      </trkpt>
      <trkpt lat="49.22788" lon="-1.56535">
        <ele>15.7</ele>
        <time>2020-06-12T06:08:55Z</time>
      </trkpt>
      <trkpt lat="49.22793" lon="-1.56536">
        <ele>15.7</ele>
        <time>2020-06-12T06:08:56Z</time>
      </trkpt>
      <trkpt lat="49.22798" lon="-1.56538">
        <ele>15.7</ele>
        <time>2020-06-12T06:08:57Z</time>
      </trkpt>
      <trkpt lat="49.22803" lon="-1.5654">
        <ele>15.7</ele>
        <time>2020-06-12T06:08:58Z</time>
      </trkpt>
      <trkpt lat="49.22808" lon="-1.56542">
        <ele>15.7</ele>
        <time>2020-06-12T06:08:59Z</time>
      </trkpt>
      <trkpt lat="49.22813" lon="-1.56544">
        <ele>15.8</ele>
        <time>2020-06-12T06:09:00Z</time>
      </trkpt>
      <trkpt lat="49.22817" lon="-1.56547">
        <ele>15.8</ele>
        <time>2020-06-12T06:09:01Z</time>
      </trkpt>
      <trkpt lat="49.22822" lon="-1.5655">
        <ele>15.9</ele>
        <time>2020-06-12T06:09:02Z</time>
      </trkpt>
      <trkpt lat="49.22826" lon="-1.56552">
        <ele>16</ele>
        <time>2020-06-12T06:09:03Z</time>
      </trkpt>
      <trkpt lat="49.2283" lon="-1.56554">
        <ele>16.1</ele>
        <time>2020-06-12T06:09:04Z</time>
      </trkpt>
      <trkpt lat="49.22836" lon="-1.56558">
        <ele>16.2</ele>
        <time>2020-06-12T06:09:05Z</time>
      </trkpt>
      <trkpt lat="49.2284" lon="-1.56561">
        <ele>16.3</ele>
        <time>2020-06-12T06:09:06Z</time>
      </trkpt>
      <trkpt lat="49.22844" lon="-1.56563">
        <ele>16.4</ele>
        <time>2020-06-12T06:09:07Z</time>
      </trkpt>
      <trkpt lat="49.22847" lon="-1.56565">
        <ele>16.4</ele>
        <time>2020-06-12T06:09:08Z</time>
      </trkpt>
      <trkpt lat="49.22851" lon="-1.56568">
        <ele>16.4</ele>
        <time>2020-06-12T06:09:09Z</time>
      </trkpt>
      <trkpt lat="49.22855" lon="-1.56571">
        <ele>16.4</ele>
        <time>2020-06-12T06:09:10Z</time>
      </trkpt>
      <trkpt lat="49.22859" lon="-1.56573">
        <ele>16.4</ele>
        <time>2020-06-12T06:09:11Z</time>
      </trkpt>
      <trkpt lat="49.22862" lon="-1.56577">
        <ele>16.4</ele>
        <time>2020-06-12T06:09:12Z</time>
      </trkpt>
      <trkpt lat="49.22867" lon="-1.5658">
        <ele>16.4</ele>
        <time>2020-06-12T06:09:13Z</time>
      </trkpt>
      <trkpt lat="49.22871" lon="-1.56584">
        <ele>16.4</ele>
        <time>2020-06-12T06:09:14Z</time>
      </trkpt>
      <trkpt lat="49.22876" lon="-1.56586">
        <ele>16.5</ele>
        <time>2020-06-12T06:09:15Z</time>
      </trkpt>
      <trkpt lat="49.22879" lon="-1.56589">
        <ele>16.5</ele>
        <time>2020-06-12T06:09:16Z</time>
      </trkpt>
      <trkpt lat="49.22883" lon="-1.56592">
        <ele>16.5</ele>
        <time>2020-06-12T06:09:17Z</time>
      </trkpt>
      <trkpt lat="49.22887" lon="-1.56596">
        <ele>16.5</ele>
        <time>2020-06-12T06:09:18Z</time>
      </trkpt>
      <trkpt lat="49.22891" lon="-1.56599">
        <ele>16.5</ele>
        <time>2020-06-12T06:09:19Z</time>
      </trkpt>
      <trkpt lat="49.22896" lon="-1.56603">
        <ele>16.5</ele>
        <time>2020-06-12T06:09:20Z</time>
      </trkpt>
      <trkpt lat="49.229" lon="-1.56607">
        <ele>16.5</ele>
        <time>2020-06-12T06:09:21Z</time>
      </trkpt>
      <trkpt lat="49.22904" lon="-1.56612">
        <ele>16.5</ele>
        <time>2020-06-12T06:09:22Z</time>
      </trkpt>
      <trkpt lat="49.22908" lon="-1.56615">
        <ele>16.5</ele>
        <time>2020-06-12T06:09:23Z</time>
      </trkpt>
      <trkpt lat="49.22913" lon="-1.56619">
        <ele>16.5</ele>
        <time>2020-06-12T06:09:24Z</time>
      </trkpt>
      <trkpt lat="49.22917" lon="-1.56623">
        <ele>16.5</ele>
        <time>2020-06-12T06:09:25Z</time>
      </trkpt>
      <trkpt lat="49.2292" lon="-1.56626">
        <ele>16.5</ele>
        <time>2020-06-12T06:09:26Z</time>
      </trkpt>
      <trkpt lat="49.22926" lon="-1.56631">
        <ele>16.5</ele>
        <time>2020-06-12T06:09:27Z</time>
      </trkpt>
      <trkpt lat="49.2293" lon="-1.56635">
        <ele>16.5</ele>
        <time>2020-06-12T06:09:28Z</time>
      </trkpt>
      <trkpt lat="49.22934" lon="-1.56639">
        <ele>16.5</ele>
        <time>2020-06-12T06:09:29Z</time>
      </trkpt>
      <trkpt lat="49.22939" lon="-1.56644">
        <ele>16.5</ele>
        <time>2020-06-12T06:09:30Z</time>
      </trkpt>
      <trkpt lat="49.22944" lon="-1.56649">
        <ele>16.4</ele>
        <time>2020-06-12T06:09:31Z</time>
      </trkpt>
      <trkpt lat="49.22948" lon="-1.56653">
        <ele>16.4</ele>
        <time>2020-06-12T06:09:32Z</time>
      </trkpt>
      <trkpt lat="49.22952" lon="-1.56657">
        <ele>16.4</ele>
        <time>2020-06-12T06:09:33Z</time>
      </trkpt>
      <trkpt lat="49.22957" lon="-1.56662">
        <ele>16.4</ele>
        <time>2020-06-12T06:09:34Z</time>
      </trkpt>
      <trkpt lat="49.22961" lon="-1.56669">
        <ele>16.3</ele>
        <time>2020-06-12T06:09:35Z</time>
      </trkpt>
      <trkpt lat="49.22966" lon="-1.56674">
        <ele>16.2</ele>
        <time>2020-06-12T06:09:36Z</time>
      </trkpt>
      <trkpt lat="49.2297" lon="-1.56679">
        <ele>16.1</ele>
        <time>2020-06-12T06:09:37Z</time>
      </trkpt>
      <trkpt lat="49.22975" lon="-1.56687">
        <ele>16</ele>
        <time>2020-06-12T06:09:38Z</time>
      </trkpt>
      <trkpt lat="49.22979" lon="-1.56691">
        <ele>15.9</ele>
        <time>2020-06-12T06:09:39Z</time>
      </trkpt>
      <trkpt lat="49.22985" lon="-1.56696">
        <ele>15.8</ele>
        <time>2020-06-12T06:09:40Z</time>
      </trkpt>
      <trkpt lat="49.22989" lon="-1.56702">
        <ele>15.7</ele>
        <time>2020-06-12T06:09:41Z</time>
      </trkpt>
      <trkpt lat="49.22994" lon="-1.56709">
        <ele>15.6</ele>
        <time>2020-06-12T06:09:42Z</time>
      </trkpt>
      <trkpt lat="49.22997" lon="-1.56715">
        <ele>15.6</ele>
        <time>2020-06-12T06:09:43Z</time>
      </trkpt>
      <trkpt lat="49.23001" lon="-1.56721">
        <ele>15.5</ele>
        <time>2020-06-12T06:09:44Z</time>
      </trkpt>
      <trkpt lat="49.23005" lon="-1.56727">
        <ele>15.4</ele>
        <time>2020-06-12T06:09:45Z</time>
      </trkpt>
      <trkpt lat="49.23009" lon="-1.56734">
        <ele>15.3</ele>
        <time>2020-06-12T06:09:46Z</time>
      </trkpt>
      <trkpt lat="49.23013" lon="-1.56741">
        <ele>15.2</ele>
        <time>2020-06-12T06:09:47Z</time>
      </trkpt>
      <trkpt lat="49.23017" lon="-1.56748">
        <ele>15.1</ele>
        <time>2020-06-12T06:09:48Z</time>
      </trkpt>
      <trkpt lat="49.23021" lon="-1.56755">
        <ele>15</ele>
        <time>2020-06-12T06:09:49Z</time>
      </trkpt>
      <trkpt lat="49.23027" lon="-1.56764">
        <ele>14.9</ele>
        <time>2020-06-12T06:09:50Z</time>
      </trkpt>
      <trkpt lat="49.23031" lon="-1.56773">
        <ele>14.8</ele>
        <time>2020-06-12T06:09:51Z</time>
      </trkpt>
      <trkpt lat="49.23035" lon="-1.56781">
        <ele>14.7</ele>
        <time>2020-06-12T06:09:52Z</time>
      </trkpt>
      <trkpt lat="49.23039" lon="-1.56788">
        <ele>14.6</ele>
        <time>2020-06-12T06:09:53Z</time>
      </trkpt>
      <trkpt lat="49.23043" lon="-1.56795">
        <ele>14.5</ele>
        <time>2020-06-12T06:09:54Z</time>
      </trkpt>
      <trkpt lat="49.23048" lon="-1.56802">
        <ele>14.4</ele>
        <time>2020-06-12T06:09:55Z</time>
      </trkpt>
      <trkpt lat="49.23052" lon="-1.56809">
        <ele>14.3</ele>
        <time>2020-06-12T06:09:56Z</time>
      </trkpt>
      <trkpt lat="49.23055" lon="-1.56815">
        <ele>14.2</ele>
        <time>2020-06-12T06:09:57Z</time>
      </trkpt>
      <trkpt lat="49.23059" lon="-1.56824">
        <ele>14</ele>
        <time>2020-06-12T06:09:58Z</time>
      </trkpt>
      <trkpt lat="49.23063" lon="-1.56832">
        <ele>13.9</ele>
        <time>2020-06-12T06:09:59Z</time>
      </trkpt>
      <trkpt lat="49.23066" lon="-1.56838">
        <ele>13.8</ele>
        <time>2020-06-12T06:10:00Z</time>
      </trkpt>
      <trkpt lat="49.2307" lon="-1.56845">
        <ele>13.7</ele>
        <time>2020-06-12T06:10:01Z</time>
      </trkpt>
      <trkpt lat="49.23075" lon="-1.56854">
        <ele>13.5</ele>
        <time>2020-06-12T06:10:02Z</time>
      </trkpt>
      <trkpt lat="49.23079" lon="-1.56862">
        <ele>13.4</ele>
        <time>2020-06-12T06:10:03Z</time>
      </trkpt>
      <trkpt lat="49.23084" lon="-1.5687">
        <ele>13.2</ele>
        <time>2020-06-12T06:10:04Z</time>
      </trkpt>
      <trkpt lat="49.23089" lon="-1.56878">
        <ele>13.1</ele>
        <time>2020-06-12T06:10:05Z</time>
      </trkpt>
      <trkpt lat="49.23092" lon="-1.56885">
        <ele>12.9</ele>
        <time>2020-06-12T06:10:06Z</time>
      </trkpt>
      <trkpt lat="49.23097" lon="-1.56892">
        <ele>12.8</ele>
        <time>2020-06-12T06:10:07Z</time>
      </trkpt>
      <trkpt lat="49.231" lon="-1.569">
        <ele>12.7</ele>
        <time>2020-06-12T06:10:08Z</time>
      </trkpt>
      <trkpt lat="49.23105" lon="-1.56908">
        <ele>12.6</ele>
        <time>2020-06-12T06:10:09Z</time>
      </trkpt>
      <trkpt lat="49.23108" lon="-1.56917">
        <ele>12.4</ele>
        <time>2020-06-12T06:10:10Z</time>
      </trkpt>
      <trkpt lat="49.23111" lon="-1.56925">
        <ele>12.3</ele>
        <time>2020-06-12T06:10:11Z</time>
      </trkpt>
      <trkpt lat="49.23115" lon="-1.56933">
        <ele>12.1</ele>
        <time>2020-06-12T06:10:12Z</time>
      </trkpt>
      <trkpt lat="49.23119" lon="-1.56941">
        <ele>12</ele>
        <time>2020-06-12T06:10:13Z</time>
      </trkpt>
      <trkpt lat="49.23123" lon="-1.56949">
        <ele>11.8</ele>
        <time>2020-06-12T06:10:14Z</time>
      </trkpt>
      <trkpt lat="49.23128" lon="-1.56957">
        <ele>11.7</ele>
        <time>2020-06-12T06:10:15Z</time>
      </trkpt>
      <trkpt lat="49.23132" lon="-1.56966">
        <ele>11.5</ele>
        <time>2020-06-12T06:10:16Z</time>
      </trkpt>
      <trkpt lat="49.23136" lon="-1.56973">
        <ele>11.4</ele>
        <time>2020-06-12T06:10:17Z</time>
      </trkpt>
      <trkpt lat="49.2314" lon="-1.5698">
        <ele>11.3</ele>
        <time>2020-06-12T06:10:18Z</time>
      </trkpt>
      <trkpt lat="49.23145" lon="-1.56988">
        <ele>11.2</ele>
        <time>2020-06-12T06:10:19Z</time>
      </trkpt>
      <trkpt lat="49.23149" lon="-1.56995">
        <ele>11.2</ele>
        <time>2020-06-12T06:10:20Z</time>
      </trkpt>
      <trkpt lat="49.23154" lon="-1.57003">
        <ele>11.2</ele>
        <time>2020-06-12T06:10:21Z</time>
      </trkpt>
      <trkpt lat="49.23159" lon="-1.5701">
        <ele>11.2</ele>
        <time>2020-06-12T06:10:22Z</time>
      </trkpt>
      <trkpt lat="49.23164" lon="-1.57018">
        <ele>11.3</ele>
        <time>2020-06-12T06:10:23Z</time>
      </trkpt>
      <trkpt lat="49.23168" lon="-1.57025">
        <ele>11.2</ele>
        <time>2020-06-12T06:10:24Z</time>
      </trkpt>
      <trkpt lat="49.23172" lon="-1.57032">
        <ele>11.1</ele>
        <time>2020-06-12T06:10:25Z</time>
      </trkpt>
      <trkpt lat="49.23176" lon="-1.5704">
        <ele>11.1</ele>
        <time>2020-06-12T06:10:26Z</time>
      </trkpt>
      <trkpt lat="49.2318" lon="-1.57048">
        <ele>11</ele>
        <time>2020-06-12T06:10:27Z</time>
      </trkpt>
      <trkpt lat="49.23184" lon="-1.57055">
        <ele>10.9</ele>
        <time>2020-06-12T06:10:28Z</time>
      </trkpt>
      <trkpt lat="49.23188" lon="-1.57063">
        <ele>10.9</ele>
        <time>2020-06-12T06:10:29Z</time>
      </trkpt>
      <trkpt lat="49.23191" lon="-1.57069">
        <ele>10.8</ele>
        <time>2020-06-12T06:10:30Z</time>
      </trkpt>
      <trkpt lat="49.23195" lon="-1.57077">
        <ele>10.7</ele>
        <time>2020-06-12T06:10:31Z</time>
      </trkpt>
      <trkpt lat="49.23199" lon="-1.57085">
        <ele>10.7</ele>
        <time>2020-06-12T06:10:32Z</time>
      </trkpt>
      <trkpt lat="49.23204" lon="-1.57091">
        <ele>10.7</ele>
        <time>2020-06-12T06:10:33Z</time>
      </trkpt>
      <trkpt lat="49.23207" lon="-1.57098">
        <ele>10.7</ele>
        <time>2020-06-12T06:10:34Z</time>
      </trkpt>
      <trkpt lat="49.23212" lon="-1.57108">
        <ele>10.7</ele>
        <time>2020-06-12T06:10:35Z</time>
      </trkpt>
      <trkpt lat="49.23216" lon="-1.57115">
        <ele>10.7</ele>
        <time>2020-06-12T06:10:36Z</time>
      </trkpt>
      <trkpt lat="49.23219" lon="-1.57121">
        <ele>10.7</ele>
        <time>2020-06-12T06:10:37Z</time>
      </trkpt>
      <trkpt lat="49.23222" lon="-1.57126">
        <ele>10.7</ele>
        <time>2020-06-12T06:10:38Z</time>
      </trkpt>
      <trkpt lat="49.23226" lon="-1.57134">
        <ele>10.7</ele>
        <time>2020-06-12T06:10:39Z</time>
      </trkpt>
      <trkpt lat="49.2323" lon="-1.57142">
        <ele>10.6</ele>
        <time>2020-06-12T06:10:40Z</time>
      </trkpt>
      <trkpt lat="49.23234" lon="-1.57151">
        <ele>10.6</ele>
        <time>2020-06-12T06:10:41Z</time>
      </trkpt>
      <trkpt lat="49.23237" lon="-1.57157">
        <ele>10.6</ele>
        <time>2020-06-12T06:10:42Z</time>
      </trkpt>
      <trkpt lat="49.23241" lon="-1.57165">
        <ele>10.6</ele>
        <time>2020-06-12T06:10:43Z</time>
      </trkpt>
      <trkpt lat="49.23244" lon="-1.57171">
        <ele>10.6</ele>
        <time>2020-06-12T06:10:44Z</time>
      </trkpt>
      <trkpt lat="49.23249" lon="-1.5718">
        <ele>10.6</ele>
        <time>2020-06-12T06:10:45Z</time>
      </trkpt>
      <trkpt lat="49.23252" lon="-1.57187">
        <ele>10.6</ele>
        <time>2020-06-12T06:10:46Z</time>
      </trkpt>
      <trkpt lat="49.23255" lon="-1.57195">
        <ele>10.6</ele>
        <time>2020-06-12T06:10:47Z</time>
      </trkpt>
      <trkpt lat="49.23258" lon="-1.57201">
        <ele>10.6</ele>
        <time>2020-06-12T06:10:48Z</time>
      </trkpt>
      <trkpt lat="49.23261" lon="-1.57207">
        <ele>10.6</ele>
        <time>2020-06-12T06:10:49Z</time>
      </trkpt>
      <trkpt lat="49.23265" lon="-1.57215">
        <ele>10.6</ele>
        <time>2020-06-12T06:10:50Z</time>
      </trkpt>
      <trkpt lat="49.23268" lon="-1.57222">
        <ele>10.7</ele>
        <time>2020-06-12T06:10:51Z</time>
      </trkpt>
      <trkpt lat="49.2327" lon="-1.57227">
        <ele>10.7</ele>
        <time>2020-06-12T06:10:52Z</time>
      </trkpt>
      <trkpt lat="49.23273" lon="-1.57234">
        <ele>10.7</ele>
        <time>2020-06-12T06:10:53Z</time>
      </trkpt>
      <trkpt lat="49.23276" lon="-1.5724">
        <ele>10.7</ele>
        <time>2020-06-12T06:10:54Z</time>
      </trkpt>
      <trkpt lat="49.23278" lon="-1.57246">
        <ele>10.8</ele>
        <time>2020-06-12T06:10:55Z</time>
      </trkpt>
      <trkpt lat="49.23282" lon="-1.57253">
        <ele>10.8</ele>
        <time>2020-06-12T06:10:56Z</time>
      </trkpt>
      <trkpt lat="49.23284" lon="-1.57259">
        <ele>10.8</ele>
        <time>2020-06-12T06:10:57Z</time>
      </trkpt>
      <trkpt lat="49.23287" lon="-1.57264">
        <ele>10.9</ele>
        <time>2020-06-12T06:10:58Z</time>
      </trkpt>
      <trkpt lat="49.2329" lon="-1.5727">
        <ele>10.9</ele>
        <time>2020-06-12T06:10:59Z</time>
      </trkpt>
      <trkpt lat="49.23292" lon="-1.57276">
        <ele>11</ele>
        <time>2020-06-12T06:11:00Z</time>
      </trkpt>
      <trkpt lat="49.23295" lon="-1.57282">
        <ele>11</ele>
        <time>2020-06-12T06:11:01Z</time>
      </trkpt>
      <trkpt lat="49.23297" lon="-1.57288">
        <ele>11.1</ele>
        <time>2020-06-12T06:11:02Z</time>
      </trkpt>
      <trkpt lat="49.233" lon="-1.57294">
        <ele>11.2</ele>
        <time>2020-06-12T06:11:03Z</time>
      </trkpt>
      <trkpt lat="49.23302" lon="-1.573">
        <ele>11.2</ele>
        <time>2020-06-12T06:11:04Z</time>
      </trkpt>
      <trkpt lat="49.23304" lon="-1.57306">
        <ele>11.3</ele>
        <time>2020-06-12T06:11:05Z</time>
      </trkpt>
      <trkpt lat="49.23306" lon="-1.57311">
        <ele>11.3</ele>
        <time>2020-06-12T06:11:06Z</time>
      </trkpt>
      <trkpt lat="49.23308" lon="-1.57316">
        <ele>11.4</ele>
        <time>2020-06-12T06:11:07Z</time>
      </trkpt>
      <trkpt lat="49.2331" lon="-1.57319">
        <ele>11.4</ele>
        <time>2020-06-12T06:11:08Z</time>
      </trkpt>
      <trkpt lat="49.23313" lon="-1.5732">
        <ele>11.4</ele>
        <time>2020-06-12T06:11:09Z</time>
      </trkpt>
      <trkpt lat="49.23316" lon="-1.57321">
        <ele>11.4</ele>
        <time>2020-06-12T06:11:10Z</time>
      </trkpt>
      <trkpt lat="49.23319" lon="-1.57321">
        <ele>11.4</ele>
        <time>2020-06-12T06:11:11Z</time>
      </trkpt>
      <trkpt lat="49.23323" lon="-1.57321">
        <ele>11.4</ele>
        <time>2020-06-12T06:11:12Z</time>
      </trkpt>
      <trkpt lat="49.23327" lon="-1.57318">
        <ele>11.3</ele>
        <time>2020-06-12T06:11:13Z</time>
      </trkpt>
      <trkpt lat="49.23328" lon="-1.57317">
        <ele>11.3</ele>
        <time>2020-06-12T06:11:14Z</time>
      </trkpt>
      <trkpt lat="49.23331" lon="-1.57313">
        <ele>11.4</ele>
        <time>2020-06-12T06:11:15Z</time>
      </trkpt>
      <trkpt lat="49.23333" lon="-1.5731">
        <ele>11.4</ele>
        <time>2020-06-12T06:11:16Z</time>
      </trkpt>
      <trkpt lat="49.23334" lon="-1.57306">
        <ele>11.4</ele>
        <time>2020-06-12T06:11:17Z</time>
      </trkpt>
      <trkpt lat="49.23335" lon="-1.57305">
        <ele>11.4</ele>
        <time>2020-06-12T06:11:18Z</time>
      </trkpt>
      <trkpt lat="49.23337" lon="-1.573">
        <ele>11.4</ele>
        <time>2020-06-12T06:11:19Z</time>
      </trkpt>
      <trkpt lat="49.23337" lon="-1.57299">
        <ele>11.4</ele>
        <time>2020-06-12T06:11:20Z</time>
      </trkpt>
      <trkpt lat="49.23337" lon="-1.57294">
        <ele>11.4</ele>
        <time>2020-06-12T06:11:21Z</time>
      </trkpt>
      <trkpt lat="49.23337" lon="-1.57292">
        <ele>11.4</ele>
        <time>2020-06-12T06:11:22Z</time>
      </trkpt>
      <trkpt lat="49.23337" lon="-1.57288">
        <ele>11.4</ele>
        <time>2020-06-12T06:11:23Z</time>
      </trkpt>
      <trkpt lat="49.23337" lon="-1.57286">
        <ele>11.3</ele>
        <time>2020-06-12T06:11:24Z</time>
      </trkpt>
      <trkpt lat="49.23337" lon="-1.5728">
        <ele>11.3</ele>
        <time>2020-06-12T06:11:25Z</time>
      </trkpt>
      <trkpt lat="49.23337" lon="-1.57278">
        <ele>11.3</ele>
        <time>2020-06-12T06:11:26Z</time>
      </trkpt>
      <trkpt lat="49.23336" lon="-1.57276">
        <ele>11.3</ele>
        <time>2020-06-12T06:11:27Z</time>
      </trkpt>
      <trkpt lat="49.23334" lon="-1.57274">
        <ele>11.3</ele>
        <time>2020-06-12T06:11:28Z</time>
      </trkpt>
      <trkpt lat="49.23331" lon="-1.57276">
        <ele>11.3</ele>
        <time>2020-06-12T06:11:29Z</time>
      </trkpt>
      <trkpt lat="49.2333" lon="-1.57276">
        <ele>11.3</ele>
        <time>2020-06-12T06:11:30Z</time>
      </trkpt>
      <trkpt lat="49.23327" lon="-1.57277">
        <ele>11.3</ele>
        <time>2020-06-12T06:11:31Z</time>
      </trkpt>
      <trkpt lat="49.23326" lon="-1.57277">
        <ele>11.3</ele>
        <time>2020-06-12T06:11:32Z</time>
      </trkpt>
      <trkpt lat="49.23325" lon="-1.57278">
        <ele>11.3</ele>
        <time>2020-06-12T06:11:33Z</time>
      </trkpt>
      <trkpt lat="49.23324" lon="-1.57278">
        <ele>11.3</ele>
        <time>2020-06-12T06:11:34Z</time>
      </trkpt>
      <trkpt lat="49.23322" lon="-1.57279">
        <ele>11.3</ele>
        <time>2020-06-12T06:11:35Z</time>
      </trkpt>
      <trkpt lat="49.2332" lon="-1.57279">
        <ele>11.3</ele>
        <time>2020-06-12T06:11:36Z</time>
      </trkpt>
      <trkpt lat="49.23317" lon="-1.5728">
        <ele>11.2</ele>
        <time>2020-06-12T06:11:37Z</time>
      </trkpt>
      <trkpt lat="49.23314" lon="-1.5728">
        <ele>11.2</ele>
        <time>2020-06-12T06:11:38Z</time>
      </trkpt>
      <trkpt lat="49.23312" lon="-1.5728">
        <ele>11.2</ele>
        <time>2020-06-12T06:11:39Z</time>
      </trkpt>
      <trkpt lat="49.23311" lon="-1.57279">
        <ele>11.2</ele>
        <time>2020-06-12T06:11:40Z</time>
      </trkpt>
      <trkpt lat="49.23311" lon="-1.57277">
        <ele>11.2</ele>
        <time>2020-06-12T06:11:41Z</time>
      </trkpt>
      <trkpt lat="49.2331" lon="-1.57277">
        <ele>11.2</ele>
        <time>2020-06-12T06:11:42Z</time>
      </trkpt>
      <trkpt lat="49.2331" lon="-1.57277">
        <ele>11.2</ele>
        <time>2020-06-12T06:11:43Z</time>
      </trkpt>
      <trkpt lat="49.2331" lon="-1.57277">
        <ele>11.2</ele>
        <time>2020-06-12T06:11:44Z</time>
      </trkpt>
      <trkpt lat="49.2331" lon="-1.57278">
        <ele>11.2</ele>
        <time>2020-06-12T06:11:45Z</time>
      </trkpt>
      <trkpt lat="49.2331" lon="-1.57279">
        <ele>11.2</ele>
        <time>2020-06-12T06:11:46Z</time>
      </trkpt>
      <trkpt lat="49.2331" lon="-1.57279">
        <ele>11.2</ele>
        <time>2020-06-12T06:11:47Z</time>
      </trkpt>
      <trkpt lat="49.2331" lon="-1.57279">
        <ele>11.2</ele>
        <time>2020-06-12T06:11:48Z</time>
      </trkpt>
      <trkpt lat="49.2331" lon="-1.57278">
        <ele>11.2</ele>
        <time>2020-06-12T06:11:49Z</time>
      </trkpt>
      <trkpt lat="49.2331" lon="-1.57279">
        <ele>11.2</ele>
        <time>2020-06-12T06:11:50Z</time>
      </trkpt>
      <trkpt lat="49.2331" lon="-1.5728">
        <ele>11.2</ele>
        <time>2020-06-12T06:11:51Z</time>
      </trkpt>
      <trkpt lat="49.23306" lon="-1.57274">
        <ele>11.2</ele>
        <time>2020-06-12T06:23:37Z</time>
      </trkpt>
      <trkpt lat="49.23305" lon="-1.57275">
        <ele>11.2</ele>
        <time>2020-06-12T06:23:38Z</time>
      </trkpt>
      <trkpt lat="49.23304" lon="-1.57275">
        <ele>11.2</ele>
        <time>2020-06-12T06:23:39Z</time>
      </trkpt>
      <trkpt lat="49.23302" lon="-1.57275">
        <ele>11.2</ele>
        <time>2020-06-12T06:23:40Z</time>
      </trkpt>
      <trkpt lat="49.23302" lon="-1.57275">
        <ele>11.2</ele>
        <time>2020-06-12T06:23:41Z</time>
      </trkpt>
      <trkpt lat="49.23301" lon="-1.57276">
        <ele>11.2</ele>
        <time>2020-06-12T06:23:42Z</time>
      </trkpt>
      <trkpt lat="49.23301" lon="-1.57276">
        <ele>11.2</ele>
        <time>2020-06-12T06:23:43Z</time>
      </trkpt>
      <trkpt lat="49.23301" lon="-1.57276">
        <ele>11.2</ele>
        <time>2020-06-12T06:23:44Z</time>
      </trkpt>
      <trkpt lat="49.23301" lon="-1.57278">
        <ele>11.2</ele>
        <time>2020-06-12T06:23:45Z</time>
      </trkpt>
      <trkpt lat="49.233" lon="-1.57278">
        <ele>11.2</ele>
        <time>2020-06-12T06:23:46Z</time>
      </trkpt>
      <trkpt lat="49.233" lon="-1.57278">
        <ele>11.2</ele>
        <time>2020-06-12T06:23:47Z</time>
      </trkpt>
      <trkpt lat="49.233" lon="-1.57278">
        <ele>11.2</ele>
        <time>2020-06-12T06:23:48Z</time>
      </trkpt>
      <trkpt lat="49.233" lon="-1.57278">
        <ele>11.2</ele>
        <time>2020-06-12T06:23:49Z</time>
      </trkpt>
      <trkpt lat="49.233" lon="-1.57279">
        <ele>11.2</ele>
        <time>2020-06-12T06:23:50Z</time>
      </trkpt>
      <trkpt lat="49.233" lon="-1.57279">
        <ele>11.2</ele>
        <time>2020-06-12T06:23:51Z</time>
      </trkpt>
      <trkpt lat="49.233" lon="-1.57279">
        <ele>11.2</ele>
        <time>2020-06-12T06:23:52Z</time>
      </trkpt>
      <trkpt lat="49.233" lon="-1.57279">
        <ele>11.2</ele>
        <time>2020-06-12T06:23:53Z</time>
      </trkpt>
      <trkpt lat="49.23308" lon="-1.57283">
        <ele>11.2</ele>
        <time>2020-06-12T06:24:04Z</time>
      </trkpt>
      <trkpt lat="49.23309" lon="-1.57284">
        <ele>11.2</ele>
        <time>2020-06-12T06:24:05Z</time>
      </trkpt>
      <trkpt lat="49.23309" lon="-1.57283">
        <ele>11.2</ele>
        <time>2020-06-12T06:24:06Z</time>
      </trkpt>
      <trkpt lat="49.23309" lon="-1.57283">
        <ele>11.2</ele>
        <time>2020-06-12T06:24:07Z</time>
      </trkpt>
      <trkpt lat="49.23309" lon="-1.57283">
        <ele>11.2</ele>
        <time>2020-06-12T06:24:08Z</time>
      </trkpt>
      <trkpt lat="49.23309" lon="-1.57283">
        <ele>11.2</ele>
        <time>2020-06-12T06:24:09Z</time>
      </trkpt>
      <trkpt lat="49.23309" lon="-1.57284">
        <ele>11.2</ele>
        <time>2020-06-12T06:24:10Z</time>
      </trkpt>
      <trkpt lat="49.2331" lon="-1.57284">
        <ele>11.2</ele>
        <time>2020-06-12T06:24:11Z</time>
      </trkpt>
      <trkpt lat="49.23311" lon="-1.57283">
        <ele>11.2</ele>
        <time>2020-06-12T06:24:12Z</time>
      </trkpt>
      <trkpt lat="49.23312" lon="-1.57282">
        <ele>11.2</ele>
        <time>2020-06-12T06:24:13Z</time>
      </trkpt>
      <trkpt lat="49.23312" lon="-1.57282">
        <ele>11.2</ele>
        <time>2020-06-12T06:24:14Z</time>
      </trkpt>
      <trkpt lat="49.23312" lon="-1.57281">
        <ele>11.2</ele>
        <time>2020-06-12T06:24:15Z</time>
      </trkpt>
      <trkpt lat="49.23313" lon="-1.57281">
        <ele>11.2</ele>
        <time>2020-06-12T06:24:16Z</time>
      </trkpt>
      <trkpt lat="49.23313" lon="-1.57281">
        <ele>11.2</ele>
        <time>2020-06-12T06:24:17Z</time>
      </trkpt>
      <trkpt lat="49.23315" lon="-1.57282">
        <ele>11.2</ele>
        <time>2020-06-12T06:24:18Z</time>
      </trkpt>
      <trkpt lat="49.23316" lon="-1.57282">
        <ele>11.2</ele>
        <time>2020-06-12T06:24:19Z</time>
      </trkpt>
      <trkpt lat="49.23316" lon="-1.57282">
        <ele>11.2</ele>
        <time>2020-06-12T06:24:20Z</time>
      </trkpt>
      <trkpt lat="49.23317" lon="-1.57283">
        <ele>11.2</ele>
        <time>2020-06-12T06:24:21Z</time>
      </trkpt>
      <trkpt lat="49.2332" lon="-1.57281">
        <ele>11.3</ele>
        <time>2020-06-12T06:24:22Z</time>
      </trkpt>
      <trkpt lat="49.23321" lon="-1.5728">
        <ele>11.3</ele>
        <time>2020-06-12T06:24:23Z</time>
      </trkpt>
      <trkpt lat="49.23324" lon="-1.57278">
        <ele>11.3</ele>
        <time>2020-06-12T06:24:24Z</time>
      </trkpt>
      <trkpt lat="49.23325" lon="-1.57278">
        <ele>11.3</ele>
        <time>2020-06-12T06:24:25Z</time>
      </trkpt>
      <trkpt lat="49.23326" lon="-1.57276">
        <ele>11.3</ele>
        <time>2020-06-12T06:24:26Z</time>
      </trkpt>
      <trkpt lat="49.23327" lon="-1.57274">
        <ele>11.3</ele>
        <time>2020-06-12T06:24:27Z</time>
      </trkpt>
      <trkpt lat="49.23328" lon="-1.57273">
        <ele>11.3</ele>
        <time>2020-06-12T06:24:28Z</time>
      </trkpt>
      <trkpt lat="49.23329" lon="-1.57271">
        <ele>11.3</ele>
        <time>2020-06-12T06:24:29Z</time>
      </trkpt>
      <trkpt lat="49.2333" lon="-1.57271">
        <ele>11.3</ele>
        <time>2020-06-12T06:24:30Z</time>
      </trkpt>
      <trkpt lat="49.23332" lon="-1.57271">
        <ele>11.3</ele>
        <time>2020-06-12T06:24:31Z</time>
      </trkpt>
      <trkpt lat="49.23332" lon="-1.57271">
        <ele>11.3</ele>
        <time>2020-06-12T06:24:32Z</time>
      </trkpt>
      <trkpt lat="49.23335" lon="-1.57271">
        <ele>11.3</ele>
        <time>2020-06-12T06:24:33Z</time>
      </trkpt>
      <trkpt lat="49.23336" lon="-1.57271">
        <ele>11.3</ele>
        <time>2020-06-12T06:24:34Z</time>
      </trkpt>
      <trkpt lat="49.23338" lon="-1.57276">
        <ele>11.3</ele>
        <time>2020-06-12T06:24:35Z</time>
      </trkpt>
      <trkpt lat="49.23338" lon="-1.57282">
        <ele>11.3</ele>
        <time>2020-06-12T06:24:36Z</time>
      </trkpt>
      <trkpt lat="49.23339" lon="-1.57288">
        <ele>11.3</ele>
        <time>2020-06-12T06:24:37Z</time>
      </trkpt>
      <trkpt lat="49.23339" lon="-1.57293">
        <ele>11.4</ele>
        <time>2020-06-12T06:24:38Z</time>
      </trkpt>
      <trkpt lat="49.23339" lon="-1.57298">
        <ele>11.4</ele>
        <time>2020-06-12T06:24:39Z</time>
      </trkpt>
      <trkpt lat="49.23338" lon="-1.57304">
        <ele>11.4</ele>
        <time>2020-06-12T06:24:40Z</time>
      </trkpt>
      <trkpt lat="49.23338" lon="-1.57311">
        <ele>11.4</ele>
        <time>2020-06-12T06:24:41Z</time>
      </trkpt>
      <trkpt lat="49.23338" lon="-1.57317">
        <ele>11.5</ele>
        <time>2020-06-12T06:24:42Z</time>
      </trkpt>
      <trkpt lat="49.23336" lon="-1.57324">
        <ele>11.5</ele>
        <time>2020-06-12T06:24:43Z</time>
      </trkpt>
      <trkpt lat="49.23335" lon="-1.5733">
        <ele>11.5</ele>
        <time>2020-06-12T06:24:44Z</time>
      </trkpt>
      <trkpt lat="49.23333" lon="-1.57337">
        <ele>11.5</ele>
        <time>2020-06-12T06:24:45Z</time>
      </trkpt>
      <trkpt lat="49.23331" lon="-1.57342">
        <ele>11.5</ele>
        <time>2020-06-12T06:24:46Z</time>
      </trkpt>
      <trkpt lat="49.23329" lon="-1.57347">
        <ele>11.6</ele>
        <time>2020-06-12T06:24:47Z</time>
      </trkpt>
      <trkpt lat="49.23327" lon="-1.57352">
        <ele>11.5</ele>
        <time>2020-06-12T06:24:48Z</time>
      </trkpt>
      <trkpt lat="49.23327" lon="-1.57359">
        <ele>11.5</ele>
        <time>2020-06-12T06:24:49Z</time>
      </trkpt>
      <trkpt lat="49.23328" lon="-1.57365">
        <ele>11.4</ele>
        <time>2020-06-12T06:24:50Z</time>
      </trkpt>
      <trkpt lat="49.23329" lon="-1.5737">
        <ele>11.4</ele>
        <time>2020-06-12T06:24:51Z</time>
      </trkpt>
      <trkpt lat="49.23331" lon="-1.57376">
        <ele>11.4</ele>
        <time>2020-06-12T06:24:52Z</time>
      </trkpt>
      <trkpt lat="49.23335" lon="-1.57381">
        <ele>11.3</ele>
        <time>2020-06-12T06:24:53Z</time>
      </trkpt>
      <trkpt lat="49.23338" lon="-1.57385">
        <ele>11.3</ele>
        <time>2020-06-12T06:24:54Z</time>
      </trkpt>
      <trkpt lat="49.23341" lon="-1.57391">
        <ele>11.3</ele>
        <time>2020-06-12T06:24:55Z</time>
      </trkpt>
      <trkpt lat="49.23344" lon="-1.57397">
        <ele>11.3</ele>
        <time>2020-06-12T06:24:56Z</time>
      </trkpt>
      <trkpt lat="49.23347" lon="-1.57403">
        <ele>11.4</ele>
        <time>2020-06-12T06:24:57Z</time>
      </trkpt>
      <trkpt lat="49.2335" lon="-1.57409">
        <ele>11.4</ele>
        <time>2020-06-12T06:24:58Z</time>
      </trkpt>
      <trkpt lat="49.23354" lon="-1.57415">
        <ele>11.4</ele>
        <time>2020-06-12T06:24:59Z</time>
      </trkpt>
      <trkpt lat="49.23357" lon="-1.57422">
        <ele>11.4</ele>
        <time>2020-06-12T06:25:00Z</time>
      </trkpt>
      <trkpt lat="49.2336" lon="-1.5743">
        <ele>11.5</ele>
        <time>2020-06-12T06:25:01Z</time>
      </trkpt>
      <trkpt lat="49.23363" lon="-1.57437">
        <ele>11.5</ele>
        <time>2020-06-12T06:25:02Z</time>
      </trkpt>
      <trkpt lat="49.23366" lon="-1.57444">
        <ele>11.5</ele>
        <time>2020-06-12T06:25:03Z</time>
      </trkpt>
      <trkpt lat="49.23369" lon="-1.57452">
        <ele>11.5</ele>
        <time>2020-06-12T06:25:04Z</time>
      </trkpt>
      <trkpt lat="49.23372" lon="-1.5746">
        <ele>11.6</ele>
        <time>2020-06-12T06:25:05Z</time>
      </trkpt>
      <trkpt lat="49.23375" lon="-1.57466">
        <ele>11.6</ele>
        <time>2020-06-12T06:25:06Z</time>
      </trkpt>
      <trkpt lat="49.23378" lon="-1.57474">
        <ele>11.6</ele>
        <time>2020-06-12T06:25:07Z</time>
      </trkpt>
      <trkpt lat="49.23382" lon="-1.57481">
        <ele>11.6</ele>
        <time>2020-06-12T06:25:08Z</time>
      </trkpt>
      <trkpt lat="49.23384" lon="-1.57488">
        <ele>11.7</ele>
        <time>2020-06-12T06:25:09Z</time>
      </trkpt>
      <trkpt lat="49.23387" lon="-1.57495">
        <ele>11.7</ele>
        <time>2020-06-12T06:25:10Z</time>
      </trkpt>
      <trkpt lat="49.2339" lon="-1.57503">
        <ele>11.8</ele>
        <time>2020-06-12T06:25:11Z</time>
      </trkpt>
      <trkpt lat="49.23393" lon="-1.5751">
        <ele>11.8</ele>
        <time>2020-06-12T06:25:12Z</time>
      </trkpt>
      <trkpt lat="49.23395" lon="-1.57518">
        <ele>11.8</ele>
        <time>2020-06-12T06:25:13Z</time>
      </trkpt>
      <trkpt lat="49.23398" lon="-1.57525">
        <ele>11.8</ele>
        <time>2020-06-12T06:25:14Z</time>
      </trkpt>
      <trkpt lat="49.23402" lon="-1.57532">
        <ele>11.9</ele>
        <time>2020-06-12T06:25:15Z</time>
      </trkpt>
      <trkpt lat="49.23405" lon="-1.5754">
        <ele>11.9</ele>
        <time>2020-06-12T06:25:16Z</time>
      </trkpt>
      <trkpt lat="49.23409" lon="-1.57549">
        <ele>11.9</ele>
        <time>2020-06-12T06:25:17Z</time>
      </trkpt>
      <trkpt lat="49.23413" lon="-1.57557">
        <ele>11.9</ele>
        <time>2020-06-12T06:25:18Z</time>
      </trkpt>
      <trkpt lat="49.23416" lon="-1.57563">
        <ele>11.9</ele>
        <time>2020-06-12T06:25:19Z</time>
      </trkpt>
      <trkpt lat="49.2342" lon="-1.5757">
        <ele>11.9</ele>
        <time>2020-06-12T06:25:20Z</time>
      </trkpt>
      <trkpt lat="49.23423" lon="-1.57578">
        <ele>11.9</ele>
        <time>2020-06-12T06:25:21Z</time>
      </trkpt>
      <trkpt lat="49.23425" lon="-1.57585">
        <ele>11.9</ele>
        <time>2020-06-12T06:25:22Z</time>
      </trkpt>
      <trkpt lat="49.23428" lon="-1.57592">
        <ele>12</ele>
        <time>2020-06-12T06:25:23Z</time>
      </trkpt>
      <trkpt lat="49.23431" lon="-1.576">
        <ele>12</ele>
        <time>2020-06-12T06:25:24Z</time>
      </trkpt>
      <trkpt lat="49.23433" lon="-1.57608">
        <ele>12</ele>
        <time>2020-06-12T06:25:25Z</time>
      </trkpt>
      <trkpt lat="49.23436" lon="-1.57616">
        <ele>11.9</ele>
        <time>2020-06-12T06:25:26Z</time>
      </trkpt>
      <trkpt lat="49.23439" lon="-1.57623">
        <ele>11.9</ele>
        <time>2020-06-12T06:25:27Z</time>
      </trkpt>
      <trkpt lat="49.23441" lon="-1.57631">
        <ele>11.9</ele>
        <time>2020-06-12T06:25:28Z</time>
      </trkpt>
      <trkpt lat="49.23444" lon="-1.57639">
        <ele>11.8</ele>
        <time>2020-06-12T06:25:29Z</time>
      </trkpt>
      <trkpt lat="49.23448" lon="-1.57646">
        <ele>11.8</ele>
        <time>2020-06-12T06:25:30Z</time>
      </trkpt>
      <trkpt lat="49.2345" lon="-1.57655">
        <ele>11.8</ele>
        <time>2020-06-12T06:25:31Z</time>
      </trkpt>
      <trkpt lat="49.23453" lon="-1.57663">
        <ele>11.7</ele>
        <time>2020-06-12T06:25:32Z</time>
      </trkpt>
      <trkpt lat="49.23456" lon="-1.57671">
        <ele>11.7</ele>
        <time>2020-06-12T06:25:33Z</time>
      </trkpt>
      <trkpt lat="49.23458" lon="-1.57679">
        <ele>11.7</ele>
        <time>2020-06-12T06:25:34Z</time>
      </trkpt>
      <trkpt lat="49.23461" lon="-1.57686">
        <ele>11.7</ele>
        <time>2020-06-12T06:25:35Z</time>
      </trkpt>
      <trkpt lat="49.23463" lon="-1.57693">
        <ele>11.7</ele>
        <time>2020-06-12T06:25:36Z</time>
      </trkpt>
      <trkpt lat="49.23466" lon="-1.57702">
        <ele>11.7</ele>
        <time>2020-06-12T06:25:37Z</time>
      </trkpt>
      <trkpt lat="49.2347" lon="-1.57709">
        <ele>11.5</ele>
        <time>2020-06-12T06:25:38Z</time>
      </trkpt>
      <trkpt lat="49.23472" lon="-1.57717">
        <ele>11.4</ele>
        <time>2020-06-12T06:25:39Z</time>
      </trkpt>
      <trkpt lat="49.23475" lon="-1.57727">
        <ele>11.2</ele>
        <time>2020-06-12T06:25:40Z</time>
      </trkpt>
      <trkpt lat="49.23478" lon="-1.57735">
        <ele>11.1</ele>
        <time>2020-06-12T06:25:41Z</time>
      </trkpt>
      <trkpt lat="49.23481" lon="-1.57744">
        <ele>10.9</ele>
        <time>2020-06-12T06:25:42Z</time>
      </trkpt>
      <trkpt lat="49.23484" lon="-1.57753">
        <ele>10.8</ele>
        <time>2020-06-12T06:25:43Z</time>
      </trkpt>
      <trkpt lat="49.23486" lon="-1.57761">
        <ele>10.7</ele>
        <time>2020-06-12T06:25:44Z</time>
      </trkpt>
      <trkpt lat="49.23489" lon="-1.57769">
        <ele>10.6</ele>
        <time>2020-06-12T06:25:45Z</time>
      </trkpt>
      <trkpt lat="49.23492" lon="-1.57778">
        <ele>10.5</ele>
        <time>2020-06-12T06:25:46Z</time>
      </trkpt>
      <trkpt lat="49.23494" lon="-1.57787">
        <ele>10.4</ele>
        <time>2020-06-12T06:25:47Z</time>
      </trkpt>
      <trkpt lat="49.23497" lon="-1.57796">
        <ele>10.2</ele>
        <time>2020-06-12T06:25:48Z</time>
      </trkpt>
      <trkpt lat="49.235" lon="-1.57805">
        <ele>10.1</ele>
        <time>2020-06-12T06:25:49Z</time>
      </trkpt>
      <trkpt lat="49.23502" lon="-1.57814">
        <ele>9.9</ele>
        <time>2020-06-12T06:25:50Z</time>
      </trkpt>
      <trkpt lat="49.23505" lon="-1.57823">
        <ele>9.8</ele>
        <time>2020-06-12T06:25:51Z</time>
      </trkpt>
      <trkpt lat="49.23508" lon="-1.57831">
        <ele>9.7</ele>
        <time>2020-06-12T06:25:52Z</time>
      </trkpt>
      <trkpt lat="49.23511" lon="-1.57841">
        <ele>9.6</ele>
        <time>2020-06-12T06:25:53Z</time>
      </trkpt>
      <trkpt lat="49.23513" lon="-1.57851">
        <ele>9.4</ele>
        <time>2020-06-12T06:25:54Z</time>
      </trkpt>
      <trkpt lat="49.23516" lon="-1.57861">
        <ele>9.3</ele>
        <time>2020-06-12T06:25:55Z</time>
      </trkpt>
      <trkpt lat="49.23519" lon="-1.57871">
        <ele>9.1</ele>
        <time>2020-06-12T06:25:56Z</time>
      </trkpt>
      <trkpt lat="49.23522" lon="-1.57881">
        <ele>8.9</ele>
        <time>2020-06-12T06:25:57Z</time>
      </trkpt>
      <trkpt lat="49.23525" lon="-1.57892">
        <ele>8.7</ele>
        <time>2020-06-12T06:25:58Z</time>
      </trkpt>
      <trkpt lat="49.23528" lon="-1.57903">
        <ele>8.5</ele>
        <time>2020-06-12T06:25:59Z</time>
      </trkpt>
      <trkpt lat="49.2353" lon="-1.57913">
        <ele>8.4</ele>
        <time>2020-06-12T06:26:00Z</time>
      </trkpt>
      <trkpt lat="49.23533" lon="-1.57923">
        <ele>8.2</ele>
        <time>2020-06-12T06:26:01Z</time>
      </trkpt>
      <trkpt lat="49.23535" lon="-1.57933">
        <ele>8.1</ele>
        <time>2020-06-12T06:26:02Z</time>
      </trkpt>
      <trkpt lat="49.23537" lon="-1.57942">
        <ele>7.9</ele>
        <time>2020-06-12T06:26:03Z</time>
      </trkpt>
      <trkpt lat="49.23539" lon="-1.57952">
        <ele>7.7</ele>
        <time>2020-06-12T06:26:04Z</time>
      </trkpt>
      <trkpt lat="49.23542" lon="-1.57964">
        <ele>7.5</ele>
        <time>2020-06-12T06:26:05Z</time>
      </trkpt>
      <trkpt lat="49.23545" lon="-1.57976">
        <ele>7.3</ele>
        <time>2020-06-12T06:26:06Z</time>
      </trkpt>
      <trkpt lat="49.23548" lon="-1.57987">
        <ele>7.2</ele>
        <time>2020-06-12T06:26:07Z</time>
      </trkpt>
      <trkpt lat="49.23551" lon="-1.57998">
        <ele>7</ele>
        <time>2020-06-12T06:26:08Z</time>
      </trkpt>
      <trkpt lat="49.23554" lon="-1.58009">
        <ele>6.9</ele>
        <time>2020-06-12T06:26:09Z</time>
      </trkpt>
      <trkpt lat="49.23556" lon="-1.5802">
        <ele>6.8</ele>
        <time>2020-06-12T06:26:10Z</time>
      </trkpt>
      <trkpt lat="49.23558" lon="-1.58031">
        <ele>6.6</ele>
        <time>2020-06-12T06:26:11Z</time>
      </trkpt>
      <trkpt lat="49.2356" lon="-1.58042">
        <ele>6.6</ele>
        <time>2020-06-12T06:26:12Z</time>
      </trkpt>
      <trkpt lat="49.23563" lon="-1.58054">
        <ele>6.5</ele>
        <time>2020-06-12T06:26:13Z</time>
      </trkpt>
      <trkpt lat="49.23565" lon="-1.58065">
        <ele>6.5</ele>
        <time>2020-06-12T06:26:14Z</time>
      </trkpt>
      <trkpt lat="49.23567" lon="-1.58075">
        <ele>6.5</ele>
        <time>2020-06-12T06:26:15Z</time>
      </trkpt>
      <trkpt lat="49.23569" lon="-1.58085">
        <ele>6.6</ele>
        <time>2020-06-12T06:26:16Z</time>
      </trkpt>
      <trkpt lat="49.23572" lon="-1.58096">
        <ele>6.6</ele>
        <time>2020-06-12T06:26:17Z</time>
      </trkpt>
      <trkpt lat="49.23574" lon="-1.58106">
        <ele>6.6</ele>
        <time>2020-06-12T06:26:18Z</time>
      </trkpt>
      <trkpt lat="49.23576" lon="-1.58117">
        <ele>6.6</ele>
        <time>2020-06-12T06:26:19Z</time>
      </trkpt>
      <trkpt lat="49.23578" lon="-1.58128">
        <ele>6.6</ele>
        <time>2020-06-12T06:26:20Z</time>
      </trkpt>
      <trkpt lat="49.2358" lon="-1.58138">
        <ele>6.6</ele>
        <time>2020-06-12T06:26:21Z</time>
      </trkpt>
      <trkpt lat="49.23581" lon="-1.58148">
        <ele>6.7</ele>
        <time>2020-06-12T06:26:22Z</time>
      </trkpt>
      <trkpt lat="49.23582" lon="-1.58158">
        <ele>6.8</ele>
        <time>2020-06-12T06:26:23Z</time>
      </trkpt>
      <trkpt lat="49.23583" lon="-1.58168">
        <ele>6.9</ele>
        <time>2020-06-12T06:26:24Z</time>
      </trkpt>
      <trkpt lat="49.23585" lon="-1.58177">
        <ele>7</ele>
        <time>2020-06-12T06:26:25Z</time>
      </trkpt>
      <trkpt lat="49.23586" lon="-1.58187">
        <ele>7.2</ele>
        <time>2020-06-12T06:26:26Z</time>
      </trkpt>
      <trkpt lat="49.23588" lon="-1.58197">
        <ele>7.4</ele>
        <time>2020-06-12T06:26:27Z</time>
      </trkpt>
      <trkpt lat="49.2359" lon="-1.58206">
        <ele>7.5</ele>
        <time>2020-06-12T06:26:28Z</time>
      </trkpt>
      <trkpt lat="49.23591" lon="-1.58217">
        <ele>7.7</ele>
        <time>2020-06-12T06:26:29Z</time>
      </trkpt>
      <trkpt lat="49.23594" lon="-1.58226">
        <ele>7.8</ele>
        <time>2020-06-12T06:26:30Z</time>
      </trkpt>
      <trkpt lat="49.23595" lon="-1.58234">
        <ele>8</ele>
        <time>2020-06-12T06:26:31Z</time>
      </trkpt>
      <trkpt lat="49.23597" lon="-1.58243">
        <ele>8.1</ele>
        <time>2020-06-12T06:26:32Z</time>
      </trkpt>
      <trkpt lat="49.23599" lon="-1.58252">
        <ele>8.3</ele>
        <time>2020-06-12T06:26:33Z</time>
      </trkpt>
      <trkpt lat="49.23601" lon="-1.58259">
        <ele>8.5</ele>
        <time>2020-06-12T06:26:34Z</time>
      </trkpt>
      <trkpt lat="49.23603" lon="-1.58267">
        <ele>8.7</ele>
        <time>2020-06-12T06:26:35Z</time>
      </trkpt>
      <trkpt lat="49.23604" lon="-1.58275">
        <ele>8.9</ele>
        <time>2020-06-12T06:26:36Z</time>
      </trkpt>
      <trkpt lat="49.23606" lon="-1.58283">
        <ele>9.1</ele>
        <time>2020-06-12T06:26:37Z</time>
      </trkpt>
      <trkpt lat="49.23608" lon="-1.58293">
        <ele>9.3</ele>
        <time>2020-06-12T06:26:38Z</time>
      </trkpt>
      <trkpt lat="49.23609" lon="-1.58302">
        <ele>9.5</ele>
        <time>2020-06-12T06:26:39Z</time>
      </trkpt>
      <trkpt lat="49.23611" lon="-1.58309">
        <ele>9.7</ele>
        <time>2020-06-12T06:26:40Z</time>
      </trkpt>
      <trkpt lat="49.23612" lon="-1.58317">
        <ele>9.9</ele>
        <time>2020-06-12T06:26:41Z</time>
      </trkpt>
      <trkpt lat="49.23614" lon="-1.58326">
        <ele>10.1</ele>
        <time>2020-06-12T06:26:42Z</time>
      </trkpt>
      <trkpt lat="49.23615" lon="-1.58335">
        <ele>10.4</ele>
        <time>2020-06-12T06:26:43Z</time>
      </trkpt>
      <trkpt lat="49.23617" lon="-1.58342">
        <ele>10.5</ele>
        <time>2020-06-12T06:26:44Z</time>
      </trkpt>
      <trkpt lat="49.23618" lon="-1.58351">
        <ele>10.7</ele>
        <time>2020-06-12T06:26:45Z</time>
      </trkpt>
      <trkpt lat="49.23621" lon="-1.58358">
        <ele>10.9</ele>
        <time>2020-06-12T06:26:46Z</time>
      </trkpt>
      <trkpt lat="49.23622" lon="-1.58367">
        <ele>11.1</ele>
        <time>2020-06-12T06:26:47Z</time>
      </trkpt>
      <trkpt lat="49.23623" lon="-1.58374">
        <ele>11.2</ele>
        <time>2020-06-12T06:26:48Z</time>
      </trkpt>
      <trkpt lat="49.23625" lon="-1.58382">
        <ele>11.3</ele>
        <time>2020-06-12T06:26:49Z</time>
      </trkpt>
      <trkpt lat="49.23626" lon="-1.5839">
        <ele>11.4</ele>
        <time>2020-06-12T06:26:50Z</time>
      </trkpt>
      <trkpt lat="49.23627" lon="-1.58397">
        <ele>11.5</ele>
        <time>2020-06-12T06:26:51Z</time>
      </trkpt>
      <trkpt lat="49.23628" lon="-1.58404">
        <ele>11.6</ele>
        <time>2020-06-12T06:26:52Z</time>
      </trkpt>
      <trkpt lat="49.23629" lon="-1.58411">
        <ele>11.7</ele>
        <time>2020-06-12T06:26:53Z</time>
      </trkpt>
      <trkpt lat="49.2363" lon="-1.58418">
        <ele>11.8</ele>
        <time>2020-06-12T06:26:54Z</time>
      </trkpt>
      <trkpt lat="49.23632" lon="-1.58426">
        <ele>11.9</ele>
        <time>2020-06-12T06:26:55Z</time>
      </trkpt>
      <trkpt lat="49.23633" lon="-1.58433">
        <ele>12</ele>
        <time>2020-06-12T06:26:56Z</time>
      </trkpt>
      <trkpt lat="49.23634" lon="-1.58439">
        <ele>12.1</ele>
        <time>2020-06-12T06:26:57Z</time>
      </trkpt>
      <trkpt lat="49.23635" lon="-1.58446">
        <ele>12.1</ele>
        <time>2020-06-12T06:26:58Z</time>
      </trkpt>
      <trkpt lat="49.23637" lon="-1.58453">
        <ele>12.2</ele>
        <time>2020-06-12T06:26:59Z</time>
      </trkpt>
      <trkpt lat="49.23638" lon="-1.58462">
        <ele>12.3</ele>
        <time>2020-06-12T06:27:00Z</time>
      </trkpt>
      <trkpt lat="49.23639" lon="-1.5847">
        <ele>12.4</ele>
        <time>2020-06-12T06:27:01Z</time>
      </trkpt>
      <trkpt lat="49.2364" lon="-1.58478">
        <ele>12.4</ele>
        <time>2020-06-12T06:27:02Z</time>
      </trkpt>
      <trkpt lat="49.23641" lon="-1.58485">
        <ele>12.5</ele>
        <time>2020-06-12T06:27:03Z</time>
      </trkpt>
      <trkpt lat="49.23642" lon="-1.58492">
        <ele>12.5</ele>
        <time>2020-06-12T06:27:04Z</time>
      </trkpt>
      <trkpt lat="49.23643" lon="-1.585">
        <ele>12.6</ele>
        <time>2020-06-12T06:27:05Z</time>
      </trkpt>
      <trkpt lat="49.23644" lon="-1.58508">
        <ele>12.7</ele>
        <time>2020-06-12T06:27:06Z</time>
      </trkpt>
      <trkpt lat="49.23645" lon="-1.58516">
        <ele>12.7</ele>
        <time>2020-06-12T06:27:07Z</time>
      </trkpt>
      <trkpt lat="49.23647" lon="-1.58523">
        <ele>12.7</ele>
        <time>2020-06-12T06:27:08Z</time>
      </trkpt>
      <trkpt lat="49.23649" lon="-1.58531">
        <ele>12.7</ele>
        <time>2020-06-12T06:27:09Z</time>
      </trkpt>
      <trkpt lat="49.2365" lon="-1.5854">
        <ele>12.7</ele>
        <time>2020-06-12T06:27:10Z</time>
      </trkpt>
      <trkpt lat="49.23651" lon="-1.58549">
        <ele>12.7</ele>
        <time>2020-06-12T06:27:11Z</time>
      </trkpt>
      <trkpt lat="49.23652" lon="-1.58555">
        <ele>12.8</ele>
        <time>2020-06-12T06:27:12Z</time>
      </trkpt>
      <trkpt lat="49.23654" lon="-1.58563">
        <ele>12.8</ele>
        <time>2020-06-12T06:27:13Z</time>
      </trkpt>
      <trkpt lat="49.23655" lon="-1.58571">
        <ele>12.9</ele>
        <time>2020-06-12T06:27:14Z</time>
      </trkpt>
      <trkpt lat="49.23657" lon="-1.58579">
        <ele>12.9</ele>
        <time>2020-06-12T06:27:15Z</time>
      </trkpt>
      <trkpt lat="49.23659" lon="-1.58587">
        <ele>12.9</ele>
        <time>2020-06-12T06:27:16Z</time>
      </trkpt>
      <trkpt lat="49.2366" lon="-1.58595">
        <ele>13</ele>
        <time>2020-06-12T06:27:17Z</time>
      </trkpt>
      <trkpt lat="49.23661" lon="-1.58604">
        <ele>13</ele>
        <time>2020-06-12T06:27:18Z</time>
      </trkpt>
      <trkpt lat="49.23663" lon="-1.58613">
        <ele>13</ele>
        <time>2020-06-12T06:27:19Z</time>
      </trkpt>
      <trkpt lat="49.23663" lon="-1.58621">
        <ele>12.9</ele>
        <time>2020-06-12T06:27:20Z</time>
      </trkpt>
      <trkpt lat="49.23665" lon="-1.5863">
        <ele>12.8</ele>
        <time>2020-06-12T06:27:21Z</time>
      </trkpt>
      <trkpt lat="49.23667" lon="-1.58639">
        <ele>12.8</ele>
        <time>2020-06-12T06:27:22Z</time>
      </trkpt>
      <trkpt lat="49.23669" lon="-1.58647">
        <ele>12.9</ele>
        <time>2020-06-12T06:27:23Z</time>
      </trkpt>
      <trkpt lat="49.23671" lon="-1.58656">
        <ele>12.9</ele>
        <time>2020-06-12T06:27:24Z</time>
      </trkpt>
      <trkpt lat="49.23673" lon="-1.58663">
        <ele>13</ele>
        <time>2020-06-12T06:27:25Z</time>
      </trkpt>
      <trkpt lat="49.23676" lon="-1.5867">
        <ele>13.1</ele>
        <time>2020-06-12T06:27:26Z</time>
      </trkpt>
      <trkpt lat="49.2368" lon="-1.58676">
        <ele>13.9</ele>
        <time>2020-06-12T06:27:27Z</time>
      </trkpt>
      <trkpt lat="49.23683" lon="-1.58682">
        <ele>13.8</ele>
        <time>2020-06-12T06:27:28Z</time>
      </trkpt>
      <trkpt lat="49.23686" lon="-1.5869">
        <ele>13.6</ele>
        <time>2020-06-12T06:27:29Z</time>
      </trkpt>
      <trkpt lat="49.23688" lon="-1.58699">
        <ele>13.3</ele>
        <time>2020-06-12T06:27:30Z</time>
      </trkpt>
      <trkpt lat="49.23688" lon="-1.58707">
        <ele>13.2</ele>
        <time>2020-06-12T06:27:31Z</time>
      </trkpt>
      <trkpt lat="49.23687" lon="-1.58716">
        <ele>12.9</ele>
        <time>2020-06-12T06:27:32Z</time>
      </trkpt>
      <trkpt lat="49.23687" lon="-1.58725">
        <ele>12.6</ele>
        <time>2020-06-12T06:27:33Z</time>
      </trkpt>
      <trkpt lat="49.23687" lon="-1.58735">
        <ele>12.4</ele>
        <time>2020-06-12T06:27:34Z</time>
      </trkpt>
      <trkpt lat="49.23688" lon="-1.58746">
        <ele>12.4</ele>
        <time>2020-06-12T06:27:35Z</time>
      </trkpt>
      <trkpt lat="49.23689" lon="-1.58755">
        <ele>12.4</ele>
        <time>2020-06-12T06:27:36Z</time>
      </trkpt>
      <trkpt lat="49.23689" lon="-1.58765">
        <ele>12.3</ele>
        <time>2020-06-12T06:27:37Z</time>
      </trkpt>
      <trkpt lat="49.23692" lon="-1.58775">
        <ele>12.2</ele>
        <time>2020-06-12T06:27:38Z</time>
      </trkpt>
      <trkpt lat="49.23694" lon="-1.58785">
        <ele>12.1</ele>
        <time>2020-06-12T06:27:39Z</time>
      </trkpt>
      <trkpt lat="49.23695" lon="-1.58794">
        <ele>12</ele>
        <time>2020-06-12T06:27:40Z</time>
      </trkpt>
      <trkpt lat="49.23697" lon="-1.58804">
        <ele>11.9</ele>
        <time>2020-06-12T06:27:41Z</time>
      </trkpt>
      <trkpt lat="49.23698" lon="-1.58814">
        <ele>11.8</ele>
        <time>2020-06-12T06:27:42Z</time>
      </trkpt>
      <trkpt lat="49.237" lon="-1.58824">
        <ele>11.6</ele>
        <time>2020-06-12T06:27:43Z</time>
      </trkpt>
      <trkpt lat="49.23702" lon="-1.58834">
        <ele>11.4</ele>
        <time>2020-06-12T06:27:44Z</time>
      </trkpt>
      <trkpt lat="49.23703" lon="-1.58844">
        <ele>11.3</ele>
        <time>2020-06-12T06:27:45Z</time>
      </trkpt>
      <trkpt lat="49.23705" lon="-1.58856">
        <ele>11.1</ele>
        <time>2020-06-12T06:27:46Z</time>
      </trkpt>
      <trkpt lat="49.23706" lon="-1.58866">
        <ele>10.9</ele>
        <time>2020-06-12T06:27:47Z</time>
      </trkpt>
      <trkpt lat="49.23707" lon="-1.58876">
        <ele>10.8</ele>
        <time>2020-06-12T06:27:48Z</time>
      </trkpt>
      <trkpt lat="49.23708" lon="-1.58887">
        <ele>10.6</ele>
        <time>2020-06-12T06:27:49Z</time>
      </trkpt>
      <trkpt lat="49.2371" lon="-1.58898">
        <ele>10.4</ele>
        <time>2020-06-12T06:27:50Z</time>
      </trkpt>
      <trkpt lat="49.23711" lon="-1.58909">
        <ele>10.2</ele>
        <time>2020-06-12T06:27:51Z</time>
      </trkpt>
      <trkpt lat="49.23712" lon="-1.58922">
        <ele>9.9</ele>
        <time>2020-06-12T06:27:52Z</time>
      </trkpt>
      <trkpt lat="49.23714" lon="-1.58933">
        <ele>9.7</ele>
        <time>2020-06-12T06:27:53Z</time>
      </trkpt>
      <trkpt lat="49.23715" lon="-1.58945">
        <ele>9.4</ele>
        <time>2020-06-12T06:27:54Z</time>
      </trkpt>
      <trkpt lat="49.23715" lon="-1.58957">
        <ele>9.1</ele>
        <time>2020-06-12T06:27:55Z</time>
      </trkpt>
      <trkpt lat="49.23716" lon="-1.58968">
        <ele>8.9</ele>
        <time>2020-06-12T06:27:56Z</time>
      </trkpt>
      <trkpt lat="49.23717" lon="-1.5898">
        <ele>8.7</ele>
        <time>2020-06-12T06:27:57Z</time>
      </trkpt>
      <trkpt lat="49.23718" lon="-1.58991">
        <ele>8.5</ele>
        <time>2020-06-12T06:27:58Z</time>
      </trkpt>
      <trkpt lat="49.23719" lon="-1.59003">
        <ele>8.4</ele>
        <time>2020-06-12T06:27:59Z</time>
      </trkpt>
      <trkpt lat="49.23719" lon="-1.59015">
        <ele>8.3</ele>
        <time>2020-06-12T06:28:00Z</time>
      </trkpt>
      <trkpt lat="49.23719" lon="-1.59026">
        <ele>8.1</ele>
        <time>2020-06-12T06:28:01Z</time>
      </trkpt>
      <trkpt lat="49.23719" lon="-1.59038">
        <ele>8</ele>
        <time>2020-06-12T06:28:02Z</time>
      </trkpt>
      <trkpt lat="49.2372" lon="-1.59049">
        <ele>7.9</ele>
        <time>2020-06-12T06:28:03Z</time>
      </trkpt>
      <trkpt lat="49.23721" lon="-1.59061">
        <ele>7.8</ele>
        <time>2020-06-12T06:28:04Z</time>
      </trkpt>
      <trkpt lat="49.23721" lon="-1.59073">
        <ele>7.9</ele>
        <time>2020-06-12T06:28:05Z</time>
      </trkpt>
      <trkpt lat="49.23721" lon="-1.59085">
        <ele>7.9</ele>
        <time>2020-06-12T06:28:06Z</time>
      </trkpt>
      <trkpt lat="49.23722" lon="-1.59097">
        <ele>8</ele>
        <time>2020-06-12T06:28:07Z</time>
      </trkpt>
      <trkpt lat="49.23722" lon="-1.59109">
        <ele>8.4</ele>
        <time>2020-06-12T06:28:08Z</time>
      </trkpt>
      <trkpt lat="49.23722" lon="-1.5912">
        <ele>8.4</ele>
        <time>2020-06-12T06:28:09Z</time>
      </trkpt>
      <trkpt lat="49.23722" lon="-1.59131">
        <ele>8.5</ele>
        <time>2020-06-12T06:28:10Z</time>
      </trkpt>
      <trkpt lat="49.23723" lon="-1.59142">
        <ele>8.7</ele>
        <time>2020-06-12T06:28:11Z</time>
      </trkpt>
      <trkpt lat="49.23724" lon="-1.59153">
        <ele>8.8</ele>
        <time>2020-06-12T06:28:12Z</time>
      </trkpt>
      <trkpt lat="49.23724" lon="-1.59164">
        <ele>9</ele>
        <time>2020-06-12T06:28:13Z</time>
      </trkpt>
      <trkpt lat="49.23724" lon="-1.59174">
        <ele>9.1</ele>
        <time>2020-06-12T06:28:14Z</time>
      </trkpt>
      <trkpt lat="49.23725" lon="-1.59184">
        <ele>9.3</ele>
        <time>2020-06-12T06:28:15Z</time>
      </trkpt>
      <trkpt lat="49.23726" lon="-1.59193">
        <ele>9.5</ele>
        <time>2020-06-12T06:28:16Z</time>
      </trkpt>
      <trkpt lat="49.23726" lon="-1.59202">
        <ele>9.6</ele>
        <time>2020-06-12T06:28:17Z</time>
      </trkpt>
      <trkpt lat="49.23726" lon="-1.59212">
        <ele>9.8</ele>
        <time>2020-06-12T06:28:18Z</time>
      </trkpt>
      <trkpt lat="49.23726" lon="-1.59221">
        <ele>10</ele>
        <time>2020-06-12T06:28:19Z</time>
      </trkpt>
      <trkpt lat="49.23725" lon="-1.59232">
        <ele>10.2</ele>
        <time>2020-06-12T06:28:20Z</time>
      </trkpt>
      <trkpt lat="49.23725" lon="-1.59243">
        <ele>10.4</ele>
        <time>2020-06-12T06:28:21Z</time>
      </trkpt>
      <trkpt lat="49.23726" lon="-1.59252">
        <ele>10.6</ele>
        <time>2020-06-12T06:28:22Z</time>
      </trkpt>
      <trkpt lat="49.23725" lon="-1.59263">
        <ele>10.8</ele>
        <time>2020-06-12T06:28:23Z</time>
      </trkpt>
      <trkpt lat="49.23726" lon="-1.59273">
        <ele>11</ele>
        <time>2020-06-12T06:28:24Z</time>
      </trkpt>
      <trkpt lat="49.23726" lon="-1.59283">
        <ele>11.2</ele>
        <time>2020-06-12T06:28:25Z</time>
      </trkpt>
      <trkpt lat="49.23727" lon="-1.59293">
        <ele>11.4</ele>
        <time>2020-06-12T06:28:26Z</time>
      </trkpt>
      <trkpt lat="49.23727" lon="-1.59302">
        <ele>11.6</ele>
        <time>2020-06-12T06:28:27Z</time>
      </trkpt>
      <trkpt lat="49.23728" lon="-1.59311">
        <ele>11.8</ele>
        <time>2020-06-12T06:28:28Z</time>
      </trkpt>
      <trkpt lat="49.23728" lon="-1.59319">
        <ele>12</ele>
        <time>2020-06-12T06:28:29Z</time>
      </trkpt>
      <trkpt lat="49.23729" lon="-1.59326">
        <ele>12.2</ele>
        <time>2020-06-12T06:28:30Z</time>
      </trkpt>
      <trkpt lat="49.23729" lon="-1.59334">
        <ele>12.3</ele>
        <time>2020-06-12T06:28:31Z</time>
      </trkpt>
      <trkpt lat="49.23729" lon="-1.59344">
        <ele>12.4</ele>
        <time>2020-06-12T06:28:32Z</time>
      </trkpt>
      <trkpt lat="49.23729" lon="-1.59351">
        <ele>12.5</ele>
        <time>2020-06-12T06:28:33Z</time>
      </trkpt>
      <trkpt lat="49.23729" lon="-1.59359">
        <ele>12.6</ele>
        <time>2020-06-12T06:28:34Z</time>
      </trkpt>
      <trkpt lat="49.23729" lon="-1.59367">
        <ele>12.7</ele>
        <time>2020-06-12T06:28:35Z</time>
      </trkpt>
      <trkpt lat="49.23729" lon="-1.59374">
        <ele>12.8</ele>
        <time>2020-06-12T06:28:36Z</time>
      </trkpt>
      <trkpt lat="49.2373" lon="-1.59382">
        <ele>12.9</ele>
        <time>2020-06-12T06:28:37Z</time>
      </trkpt>
      <trkpt lat="49.2373" lon="-1.59391">
        <ele>13</ele>
        <time>2020-06-12T06:28:38Z</time>
      </trkpt>
      <trkpt lat="49.23731" lon="-1.59399">
        <ele>13.1</ele>
        <time>2020-06-12T06:28:39Z</time>
      </trkpt>
      <trkpt lat="49.23731" lon="-1.59407">
        <ele>13.2</ele>
        <time>2020-06-12T06:28:40Z</time>
      </trkpt>
      <trkpt lat="49.23731" lon="-1.59415">
        <ele>13.3</ele>
        <time>2020-06-12T06:28:41Z</time>
      </trkpt>
      <trkpt lat="49.23732" lon="-1.59423">
        <ele>13.4</ele>
        <time>2020-06-12T06:28:42Z</time>
      </trkpt>
      <trkpt lat="49.23732" lon="-1.59432">
        <ele>13.4</ele>
        <time>2020-06-12T06:28:43Z</time>
      </trkpt>
      <trkpt lat="49.23731" lon="-1.5944">
        <ele>13.5</ele>
        <time>2020-06-12T06:28:44Z</time>
      </trkpt>
      <trkpt lat="49.23732" lon="-1.59448">
        <ele>13.6</ele>
        <time>2020-06-12T06:28:45Z</time>
      </trkpt>
      <trkpt lat="49.23733" lon="-1.59455">
        <ele>13.6</ele>
        <time>2020-06-12T06:28:46Z</time>
      </trkpt>
      <trkpt lat="49.23733" lon="-1.59463">
        <ele>13.7</ele>
        <time>2020-06-12T06:28:47Z</time>
      </trkpt>
      <trkpt lat="49.23734" lon="-1.59472">
        <ele>13.7</ele>
        <time>2020-06-12T06:28:48Z</time>
      </trkpt>
      <trkpt lat="49.23734" lon="-1.59482">
        <ele>13.7</ele>
        <time>2020-06-12T06:28:49Z</time>
      </trkpt>
      <trkpt lat="49.23734" lon="-1.59491">
        <ele>13.8</ele>
        <time>2020-06-12T06:28:50Z</time>
      </trkpt>
      <trkpt lat="49.23734" lon="-1.59499">
        <ele>13.8</ele>
        <time>2020-06-12T06:28:51Z</time>
      </trkpt>
      <trkpt lat="49.23735" lon="-1.59507">
        <ele>13.9</ele>
        <time>2020-06-12T06:28:52Z</time>
      </trkpt>
      <trkpt lat="49.23735" lon="-1.59516">
        <ele>14</ele>
        <time>2020-06-12T06:28:53Z</time>
      </trkpt>
      <trkpt lat="49.23736" lon="-1.59525">
        <ele>14</ele>
        <time>2020-06-12T06:28:54Z</time>
      </trkpt>
      <trkpt lat="49.23736" lon="-1.59533">
        <ele>14</ele>
        <time>2020-06-12T06:28:55Z</time>
      </trkpt>
      <trkpt lat="49.23736" lon="-1.59542">
        <ele>14.1</ele>
        <time>2020-06-12T06:28:56Z</time>
      </trkpt>
      <trkpt lat="49.23738" lon="-1.59551">
        <ele>14.1</ele>
        <time>2020-06-12T06:28:57Z</time>
      </trkpt>
      <trkpt lat="49.23738" lon="-1.59561">
        <ele>14.1</ele>
        <time>2020-06-12T06:28:58Z</time>
      </trkpt>
      <trkpt lat="49.23738" lon="-1.59569">
        <ele>14.1</ele>
        <time>2020-06-12T06:28:59Z</time>
      </trkpt>
      <trkpt lat="49.23739" lon="-1.59578">
        <ele>14.1</ele>
        <time>2020-06-12T06:29:00Z</time>
      </trkpt>
      <trkpt lat="49.23739" lon="-1.59587">
        <ele>14.1</ele>
        <time>2020-06-12T06:29:01Z</time>
      </trkpt>
      <trkpt lat="49.23739" lon="-1.59595">
        <ele>14.1</ele>
        <time>2020-06-12T06:29:02Z</time>
      </trkpt>
      <trkpt lat="49.23739" lon="-1.59605">
        <ele>14.1</ele>
        <time>2020-06-12T06:29:03Z</time>
      </trkpt>
      <trkpt lat="49.23739" lon="-1.59612">
        <ele>14.1</ele>
        <time>2020-06-12T06:29:04Z</time>
      </trkpt>
      <trkpt lat="49.2374" lon="-1.59622">
        <ele>14.1</ele>
        <time>2020-06-12T06:29:05Z</time>
      </trkpt>
      <trkpt lat="49.2374" lon="-1.59631">
        <ele>14.1</ele>
        <time>2020-06-12T06:29:06Z</time>
      </trkpt>
      <trkpt lat="49.2374" lon="-1.5964">
        <ele>14.2</ele>
        <time>2020-06-12T06:29:07Z</time>
      </trkpt>
      <trkpt lat="49.23741" lon="-1.59649">
        <ele>14.2</ele>
        <time>2020-06-12T06:29:08Z</time>
      </trkpt>
      <trkpt lat="49.23741" lon="-1.59658">
        <ele>14.2</ele>
        <time>2020-06-12T06:29:09Z</time>
      </trkpt>
      <trkpt lat="49.23741" lon="-1.59668">
        <ele>14.2</ele>
        <time>2020-06-12T06:29:10Z</time>
      </trkpt>
      <trkpt lat="49.23742" lon="-1.59678">
        <ele>14.1</ele>
        <time>2020-06-12T06:29:11Z</time>
      </trkpt>
      <trkpt lat="49.23742" lon="-1.59689">
        <ele>14.1</ele>
        <time>2020-06-12T06:29:12Z</time>
      </trkpt>
      <trkpt lat="49.23742" lon="-1.59699">
        <ele>14.1</ele>
        <time>2020-06-12T06:29:13Z</time>
      </trkpt>
      <trkpt lat="49.23743" lon="-1.59711">
        <ele>14</ele>
        <time>2020-06-12T06:29:14Z</time>
      </trkpt>
      <trkpt lat="49.23743" lon="-1.59721">
        <ele>14</ele>
        <time>2020-06-12T06:29:15Z</time>
      </trkpt>
      <trkpt lat="49.23744" lon="-1.59731">
        <ele>14</ele>
        <time>2020-06-12T06:29:16Z</time>
      </trkpt>
      <trkpt lat="49.23743" lon="-1.5974">
        <ele>14.1</ele>
        <time>2020-06-12T06:29:17Z</time>
      </trkpt>
      <trkpt lat="49.23744" lon="-1.5975">
        <ele>14</ele>
        <time>2020-06-12T06:29:18Z</time>
      </trkpt>
      <trkpt lat="49.23744" lon="-1.5976">
        <ele>13.9</ele>
        <time>2020-06-12T06:29:19Z</time>
      </trkpt>
      <trkpt lat="49.23745" lon="-1.59772">
        <ele>13.7</ele>
        <time>2020-06-12T06:29:20Z</time>
      </trkpt>
      <trkpt lat="49.23745" lon="-1.59783">
        <ele>13.6</ele>
        <time>2020-06-12T06:29:21Z</time>
      </trkpt>
      <trkpt lat="49.23746" lon="-1.59795">
        <ele>13.5</ele>
        <time>2020-06-12T06:29:22Z</time>
      </trkpt>
      <trkpt lat="49.23746" lon="-1.59806">
        <ele>13.4</ele>
        <time>2020-06-12T06:29:23Z</time>
      </trkpt>
      <trkpt lat="49.23747" lon="-1.59817">
        <ele>13.2</ele>
        <time>2020-06-12T06:29:24Z</time>
      </trkpt>
      <trkpt lat="49.23747" lon="-1.59829">
        <ele>13.1</ele>
        <time>2020-06-12T06:29:25Z</time>
      </trkpt>
      <trkpt lat="49.23747" lon="-1.5984">
        <ele>13.1</ele>
        <time>2020-06-12T06:29:26Z</time>
      </trkpt>
      <trkpt lat="49.23747" lon="-1.59851">
        <ele>13</ele>
        <time>2020-06-12T06:29:27Z</time>
      </trkpt>
      <trkpt lat="49.23748" lon="-1.59862">
        <ele>12.9</ele>
        <time>2020-06-12T06:29:28Z</time>
      </trkpt>
      <trkpt lat="49.23749" lon="-1.59873">
        <ele>12.8</ele>
        <time>2020-06-12T06:29:29Z</time>
      </trkpt>
      <trkpt lat="49.23749" lon="-1.59885">
        <ele>12.6</ele>
        <time>2020-06-12T06:29:30Z</time>
      </trkpt>
      <trkpt lat="49.2375" lon="-1.59897">
        <ele>12.5</ele>
        <time>2020-06-12T06:29:31Z</time>
      </trkpt>
      <trkpt lat="49.23749" lon="-1.59908">
        <ele>12.4</ele>
        <time>2020-06-12T06:29:32Z</time>
      </trkpt>
      <trkpt lat="49.2375" lon="-1.5992">
        <ele>12.3</ele>
        <time>2020-06-12T06:29:33Z</time>
      </trkpt>
      <trkpt lat="49.2375" lon="-1.59931">
        <ele>12.2</ele>
        <time>2020-06-12T06:29:34Z</time>
      </trkpt>
      <trkpt lat="49.2375" lon="-1.59942">
        <ele>12.1</ele>
        <time>2020-06-12T06:29:35Z</time>
      </trkpt>
      <trkpt lat="49.23751" lon="-1.59953">
        <ele>12</ele>
        <time>2020-06-12T06:29:36Z</time>
      </trkpt>
      <trkpt lat="49.23751" lon="-1.59964">
        <ele>11.9</ele>
        <time>2020-06-12T06:29:37Z</time>
      </trkpt>
      <trkpt lat="49.23751" lon="-1.59977">
        <ele>11.9</ele>
        <time>2020-06-12T06:29:38Z</time>
      </trkpt>
      <trkpt lat="49.23752" lon="-1.59988">
        <ele>11.8</ele>
        <time>2020-06-12T06:29:39Z</time>
      </trkpt>
      <trkpt lat="49.23753" lon="-1.60001">
        <ele>11.7</ele>
        <time>2020-06-12T06:29:40Z</time>
      </trkpt>
      <trkpt lat="49.23753" lon="-1.60014">
        <ele>11.6</ele>
        <time>2020-06-12T06:29:41Z</time>
      </trkpt>
      <trkpt lat="49.23752" lon="-1.60026">
        <ele>11.5</ele>
        <time>2020-06-12T06:29:42Z</time>
      </trkpt>
      <trkpt lat="49.23753" lon="-1.60038">
        <ele>11.4</ele>
        <time>2020-06-12T06:29:43Z</time>
      </trkpt>
      <trkpt lat="49.23753" lon="-1.6005">
        <ele>11.3</ele>
        <time>2020-06-12T06:29:44Z</time>
      </trkpt>
      <trkpt lat="49.23753" lon="-1.60061">
        <ele>11.3</ele>
        <time>2020-06-12T06:29:45Z</time>
      </trkpt>
      <trkpt lat="49.23755" lon="-1.60073">
        <ele>11.2</ele>
        <time>2020-06-12T06:29:46Z</time>
      </trkpt>
      <trkpt lat="49.23755" lon="-1.60084">
        <ele>11.1</ele>
        <time>2020-06-12T06:29:47Z</time>
      </trkpt>
      <trkpt lat="49.23756" lon="-1.60096">
        <ele>11</ele>
        <time>2020-06-12T06:29:48Z</time>
      </trkpt>
      <trkpt lat="49.23757" lon="-1.60109">
        <ele>10.9</ele>
        <time>2020-06-12T06:29:49Z</time>
      </trkpt>
      <trkpt lat="49.23757" lon="-1.60122">
        <ele>10.9</ele>
        <time>2020-06-12T06:29:50Z</time>
      </trkpt>
      <trkpt lat="49.23758" lon="-1.60134">
        <ele>10.8</ele>
        <time>2020-06-12T06:29:51Z</time>
      </trkpt>
      <trkpt lat="49.23758" lon="-1.60146">
        <ele>10.7</ele>
        <time>2020-06-12T06:29:52Z</time>
      </trkpt>
      <trkpt lat="49.23758" lon="-1.60159">
        <ele>10.5</ele>
        <time>2020-06-12T06:29:53Z</time>
      </trkpt>
      <trkpt lat="49.23759" lon="-1.60171">
        <ele>10.4</ele>
        <time>2020-06-12T06:29:54Z</time>
      </trkpt>
      <trkpt lat="49.23759" lon="-1.60184">
        <ele>10.3</ele>
        <time>2020-06-12T06:29:55Z</time>
      </trkpt>
      <trkpt lat="49.23759" lon="-1.60197">
        <ele>10.2</ele>
        <time>2020-06-12T06:29:56Z</time>
      </trkpt>
      <trkpt lat="49.23761" lon="-1.6021">
        <ele>10.1</ele>
        <time>2020-06-12T06:29:57Z</time>
      </trkpt>
      <trkpt lat="49.23761" lon="-1.60223">
        <ele>9.9</ele>
        <time>2020-06-12T06:29:58Z</time>
      </trkpt>
      <trkpt lat="49.23762" lon="-1.60236">
        <ele>9.8</ele>
        <time>2020-06-12T06:29:59Z</time>
      </trkpt>
      <trkpt lat="49.23762" lon="-1.6025">
        <ele>9.7</ele>
        <time>2020-06-12T06:30:00Z</time>
      </trkpt>
      <trkpt lat="49.23762" lon="-1.60262">
        <ele>9.6</ele>
        <time>2020-06-12T06:30:01Z</time>
      </trkpt>
      <trkpt lat="49.23763" lon="-1.60274">
        <ele>9.5</ele>
        <time>2020-06-12T06:30:02Z</time>
      </trkpt>
      <trkpt lat="49.23763" lon="-1.60287">
        <ele>9.4</ele>
        <time>2020-06-12T06:30:03Z</time>
      </trkpt>
      <trkpt lat="49.23764" lon="-1.603">
        <ele>9.2</ele>
        <time>2020-06-12T06:30:04Z</time>
      </trkpt>
      <trkpt lat="49.23764" lon="-1.60313">
        <ele>9.1</ele>
        <time>2020-06-12T06:30:05Z</time>
      </trkpt>
      <trkpt lat="49.23765" lon="-1.60326">
        <ele>9</ele>
        <time>2020-06-12T06:30:06Z</time>
      </trkpt>
      <trkpt lat="49.23765" lon="-1.60339">
        <ele>8.9</ele>
        <time>2020-06-12T06:30:07Z</time>
      </trkpt>
      <trkpt lat="49.23766" lon="-1.60352">
        <ele>8.8</ele>
        <time>2020-06-12T06:30:08Z</time>
      </trkpt>
      <trkpt lat="49.23767" lon="-1.60365">
        <ele>8.7</ele>
        <time>2020-06-12T06:30:09Z</time>
      </trkpt>
      <trkpt lat="49.23768" lon="-1.60378">
        <ele>8.6</ele>
        <time>2020-06-12T06:30:10Z</time>
      </trkpt>
      <trkpt lat="49.23768" lon="-1.60392">
        <ele>8.5</ele>
        <time>2020-06-12T06:30:11Z</time>
      </trkpt>
      <trkpt lat="49.23768" lon="-1.60405">
        <ele>8.4</ele>
        <time>2020-06-12T06:30:12Z</time>
      </trkpt>
      <trkpt lat="49.23769" lon="-1.60418">
        <ele>8.3</ele>
        <time>2020-06-12T06:30:13Z</time>
      </trkpt>
      <trkpt lat="49.23769" lon="-1.6043">
        <ele>8.2</ele>
        <time>2020-06-12T06:30:14Z</time>
      </trkpt>
      <trkpt lat="49.2377" lon="-1.60441">
        <ele>8</ele>
        <time>2020-06-12T06:30:15Z</time>
      </trkpt>
      <trkpt lat="49.23771" lon="-1.60453">
        <ele>7.9</ele>
        <time>2020-06-12T06:30:16Z</time>
      </trkpt>
      <trkpt lat="49.23772" lon="-1.60465">
        <ele>7.8</ele>
        <time>2020-06-12T06:30:17Z</time>
      </trkpt>
      <trkpt lat="49.23773" lon="-1.60478">
        <ele>7.7</ele>
        <time>2020-06-12T06:30:18Z</time>
      </trkpt>
      <trkpt lat="49.23774" lon="-1.6049">
        <ele>7.6</ele>
        <time>2020-06-12T06:30:19Z</time>
      </trkpt>
      <trkpt lat="49.23774" lon="-1.60502">
        <ele>7.6</ele>
        <time>2020-06-12T06:30:20Z</time>
      </trkpt>
      <trkpt lat="49.23774" lon="-1.60513">
        <ele>7.5</ele>
        <time>2020-06-12T06:30:21Z</time>
      </trkpt>
      <trkpt lat="49.23775" lon="-1.60525">
        <ele>7.5</ele>
        <time>2020-06-12T06:30:22Z</time>
      </trkpt>
      <trkpt lat="49.23777" lon="-1.60538">
        <ele>7.4</ele>
        <time>2020-06-12T06:30:23Z</time>
      </trkpt>
      <trkpt lat="49.23777" lon="-1.60551">
        <ele>7.3</ele>
        <time>2020-06-12T06:30:24Z</time>
      </trkpt>
      <trkpt lat="49.23778" lon="-1.60564">
        <ele>7.3</ele>
        <time>2020-06-12T06:30:25Z</time>
      </trkpt>
      <trkpt lat="49.23779" lon="-1.60576">
        <ele>7.3</ele>
        <time>2020-06-12T06:30:26Z</time>
      </trkpt>
      <trkpt lat="49.23779" lon="-1.60586">
        <ele>7.3</ele>
        <time>2020-06-12T06:30:27Z</time>
      </trkpt>
      <trkpt lat="49.23779" lon="-1.60598">
        <ele>7.3</ele>
        <time>2020-06-12T06:30:28Z</time>
      </trkpt>
      <trkpt lat="49.23779" lon="-1.6061">
        <ele>7.3</ele>
        <time>2020-06-12T06:30:29Z</time>
      </trkpt>
      <trkpt lat="49.2378" lon="-1.60622">
        <ele>7.4</ele>
        <time>2020-06-12T06:30:30Z</time>
      </trkpt>
      <trkpt lat="49.2378" lon="-1.60634">
        <ele>7.4</ele>
        <time>2020-06-12T06:30:31Z</time>
      </trkpt>
      <trkpt lat="49.23781" lon="-1.60645">
        <ele>7.5</ele>
        <time>2020-06-12T06:30:32Z</time>
      </trkpt>
      <trkpt lat="49.23782" lon="-1.60656">
        <ele>7.5</ele>
        <time>2020-06-12T06:30:33Z</time>
      </trkpt>
      <trkpt lat="49.23782" lon="-1.60668">
        <ele>7.6</ele>
        <time>2020-06-12T06:30:34Z</time>
      </trkpt>
      <trkpt lat="49.23783" lon="-1.6068">
        <ele>7.6</ele>
        <time>2020-06-12T06:30:35Z</time>
      </trkpt>
      <trkpt lat="49.23783" lon="-1.60692">
        <ele>7.6</ele>
        <time>2020-06-12T06:30:36Z</time>
      </trkpt>
      <trkpt lat="49.23784" lon="-1.60703">
        <ele>7.6</ele>
        <time>2020-06-12T06:30:37Z</time>
      </trkpt>
      <trkpt lat="49.23784" lon="-1.60714">
        <ele>7.6</ele>
        <time>2020-06-12T06:30:38Z</time>
      </trkpt>
      <trkpt lat="49.23784" lon="-1.60724">
        <ele>7.7</ele>
        <time>2020-06-12T06:30:39Z</time>
      </trkpt>
      <trkpt lat="49.23785" lon="-1.60735">
        <ele>7.7</ele>
        <time>2020-06-12T06:30:40Z</time>
      </trkpt>
      <trkpt lat="49.23785" lon="-1.60746">
        <ele>7.7</ele>
        <time>2020-06-12T06:30:41Z</time>
      </trkpt>
      <trkpt lat="49.23785" lon="-1.60757">
        <ele>7.8</ele>
        <time>2020-06-12T06:30:42Z</time>
      </trkpt>
      <trkpt lat="49.23785" lon="-1.60768">
        <ele>7.8</ele>
        <time>2020-06-12T06:30:43Z</time>
      </trkpt>
      <trkpt lat="49.23786" lon="-1.60778">
        <ele>7.9</ele>
        <time>2020-06-12T06:30:44Z</time>
      </trkpt>
      <trkpt lat="49.23786" lon="-1.60788">
        <ele>7.9</ele>
        <time>2020-06-12T06:30:45Z</time>
      </trkpt>
      <trkpt lat="49.23786" lon="-1.60797">
        <ele>8</ele>
        <time>2020-06-12T06:30:46Z</time>
      </trkpt>
      <trkpt lat="49.23787" lon="-1.60808">
        <ele>8</ele>
        <time>2020-06-12T06:30:47Z</time>
      </trkpt>
      <trkpt lat="49.23787" lon="-1.60818">
        <ele>8.1</ele>
        <time>2020-06-12T06:30:48Z</time>
      </trkpt>
      <trkpt lat="49.23788" lon="-1.60827">
        <ele>8.2</ele>
        <time>2020-06-12T06:30:49Z</time>
      </trkpt>
      <trkpt lat="49.23789" lon="-1.60838">
        <ele>8.3</ele>
        <time>2020-06-12T06:30:50Z</time>
      </trkpt>
      <trkpt lat="49.23789" lon="-1.60849">
        <ele>8.4</ele>
        <time>2020-06-12T06:30:51Z</time>
      </trkpt>
      <trkpt lat="49.2379" lon="-1.6086">
        <ele>8.5</ele>
        <time>2020-06-12T06:30:52Z</time>
      </trkpt>
      <trkpt lat="49.23791" lon="-1.6087">
        <ele>8.6</ele>
        <time>2020-06-12T06:30:53Z</time>
      </trkpt>
      <trkpt lat="49.2379" lon="-1.6088">
        <ele>8.7</ele>
        <time>2020-06-12T06:30:54Z</time>
      </trkpt>
      <trkpt lat="49.2379" lon="-1.6089">
        <ele>8.8</ele>
        <time>2020-06-12T06:30:55Z</time>
      </trkpt>
      <trkpt lat="49.23791" lon="-1.60899">
        <ele>8.9</ele>
        <time>2020-06-12T06:30:56Z</time>
      </trkpt>
      <trkpt lat="49.23791" lon="-1.6091">
        <ele>8.9</ele>
        <time>2020-06-12T06:30:57Z</time>
      </trkpt>
      <trkpt lat="49.2379" lon="-1.60921">
        <ele>9</ele>
        <time>2020-06-12T06:30:58Z</time>
      </trkpt>
      <trkpt lat="49.23791" lon="-1.60932">
        <ele>9.1</ele>
        <time>2020-06-12T06:30:59Z</time>
      </trkpt>
      <trkpt lat="49.23792" lon="-1.60942">
        <ele>9.1</ele>
        <time>2020-06-12T06:31:00Z</time>
      </trkpt>
      <trkpt lat="49.23792" lon="-1.60952">
        <ele>9.2</ele>
        <time>2020-06-12T06:31:01Z</time>
      </trkpt>
      <trkpt lat="49.23793" lon="-1.60962">
        <ele>9.2</ele>
        <time>2020-06-12T06:31:02Z</time>
      </trkpt>
      <trkpt lat="49.23793" lon="-1.60972">
        <ele>9.2</ele>
        <time>2020-06-12T06:31:03Z</time>
      </trkpt>
      <trkpt lat="49.23793" lon="-1.60982">
        <ele>9.2</ele>
        <time>2020-06-12T06:31:04Z</time>
      </trkpt>
      <trkpt lat="49.23794" lon="-1.60992">
        <ele>9.3</ele>
        <time>2020-06-12T06:31:05Z</time>
      </trkpt>
      <trkpt lat="49.23794" lon="-1.61002">
        <ele>9.3</ele>
        <time>2020-06-12T06:31:06Z</time>
      </trkpt>
      <trkpt lat="49.23795" lon="-1.61012">
        <ele>9.3</ele>
        <time>2020-06-12T06:31:07Z</time>
      </trkpt>
      <trkpt lat="49.23796" lon="-1.61022">
        <ele>9.3</ele>
        <time>2020-06-12T06:31:08Z</time>
      </trkpt>
      <trkpt lat="49.23796" lon="-1.61031">
        <ele>9.3</ele>
        <time>2020-06-12T06:31:09Z</time>
      </trkpt>
      <trkpt lat="49.23797" lon="-1.61041">
        <ele>9.4</ele>
        <time>2020-06-12T06:31:10Z</time>
      </trkpt>
      <trkpt lat="49.23798" lon="-1.6105">
        <ele>9.4</ele>
        <time>2020-06-12T06:31:11Z</time>
      </trkpt>
      <trkpt lat="49.23799" lon="-1.6106">
        <ele>9.4</ele>
        <time>2020-06-12T06:31:12Z</time>
      </trkpt>
      <trkpt lat="49.23799" lon="-1.61071">
        <ele>9.4</ele>
        <time>2020-06-12T06:31:13Z</time>
      </trkpt>
      <trkpt lat="49.23799" lon="-1.61081">
        <ele>9.4</ele>
        <time>2020-06-12T06:31:14Z</time>
      </trkpt>
      <trkpt lat="49.238" lon="-1.61091">
        <ele>9.4</ele>
        <time>2020-06-12T06:31:15Z</time>
      </trkpt>
      <trkpt lat="49.23801" lon="-1.611">
        <ele>9.4</ele>
        <time>2020-06-12T06:31:16Z</time>
      </trkpt>
      <trkpt lat="49.23801" lon="-1.61109">
        <ele>9.4</ele>
        <time>2020-06-12T06:31:17Z</time>
      </trkpt>
      <trkpt lat="49.23802" lon="-1.6112">
        <ele>9.3</ele>
        <time>2020-06-12T06:31:18Z</time>
      </trkpt>
      <trkpt lat="49.23803" lon="-1.61129">
        <ele>9.3</ele>
        <time>2020-06-12T06:31:19Z</time>
      </trkpt>
      <trkpt lat="49.23803" lon="-1.61139">
        <ele>9.2</ele>
        <time>2020-06-12T06:31:20Z</time>
      </trkpt>
      <trkpt lat="49.23804" lon="-1.61149">
        <ele>9.2</ele>
        <time>2020-06-12T06:31:21Z</time>
      </trkpt>
      <trkpt lat="49.23804" lon="-1.61157">
        <ele>9.2</ele>
        <time>2020-06-12T06:31:22Z</time>
      </trkpt>
      <trkpt lat="49.23805" lon="-1.61165">
        <ele>9.2</ele>
        <time>2020-06-12T06:31:23Z</time>
      </trkpt>
      <trkpt lat="49.23805" lon="-1.61176">
        <ele>9</ele>
        <time>2020-06-12T06:31:24Z</time>
      </trkpt>
      <trkpt lat="49.23805" lon="-1.61188">
        <ele>9</ele>
        <time>2020-06-12T06:31:25Z</time>
      </trkpt>
      <trkpt lat="49.23805" lon="-1.61199">
        <ele>8.9</ele>
        <time>2020-06-12T06:31:26Z</time>
      </trkpt>
      <trkpt lat="49.23805" lon="-1.61209">
        <ele>8.8</ele>
        <time>2020-06-12T06:31:27Z</time>
      </trkpt>
      <trkpt lat="49.23805" lon="-1.6122">
        <ele>8.7</ele>
        <time>2020-06-12T06:31:28Z</time>
      </trkpt>
      <trkpt lat="49.23805" lon="-1.61229">
        <ele>8.6</ele>
        <time>2020-06-12T06:31:29Z</time>
      </trkpt>
      <trkpt lat="49.23805" lon="-1.61239">
        <ele>8.6</ele>
        <time>2020-06-12T06:31:30Z</time>
      </trkpt>
      <trkpt lat="49.23805" lon="-1.61249">
        <ele>8.5</ele>
        <time>2020-06-12T06:31:31Z</time>
      </trkpt>
      <trkpt lat="49.23805" lon="-1.6126">
        <ele>8.4</ele>
        <time>2020-06-12T06:31:32Z</time>
      </trkpt>
      <trkpt lat="49.23806" lon="-1.61272">
        <ele>8.3</ele>
        <time>2020-06-12T06:31:33Z</time>
      </trkpt>
      <trkpt lat="49.23807" lon="-1.61282">
        <ele>8.2</ele>
        <time>2020-06-12T06:31:34Z</time>
      </trkpt>
      <trkpt lat="49.23807" lon="-1.61296">
        <ele>8.1</ele>
        <time>2020-06-12T06:31:35Z</time>
      </trkpt>
      <trkpt lat="49.23807" lon="-1.61308">
        <ele>8.1</ele>
        <time>2020-06-12T06:31:36Z</time>
      </trkpt>
      <trkpt lat="49.23808" lon="-1.61319">
        <ele>8</ele>
        <time>2020-06-12T06:31:37Z</time>
      </trkpt>
      <trkpt lat="49.23809" lon="-1.6133">
        <ele>7.9</ele>
        <time>2020-06-12T06:31:38Z</time>
      </trkpt>
      <trkpt lat="49.23809" lon="-1.61341">
        <ele>7.8</ele>
        <time>2020-06-12T06:31:39Z</time>
      </trkpt>
      <trkpt lat="49.23809" lon="-1.61352">
        <ele>7.7</ele>
        <time>2020-06-12T06:31:40Z</time>
      </trkpt>
      <trkpt lat="49.2381" lon="-1.61363">
        <ele>7.6</ele>
        <time>2020-06-12T06:31:41Z</time>
      </trkpt>
      <trkpt lat="49.2381" lon="-1.61374">
        <ele>7.5</ele>
        <time>2020-06-12T06:31:42Z</time>
      </trkpt>
      <trkpt lat="49.23811" lon="-1.61385">
        <ele>7.5</ele>
        <time>2020-06-12T06:31:43Z</time>
      </trkpt>
      <trkpt lat="49.23811" lon="-1.61396">
        <ele>7.4</ele>
        <time>2020-06-12T06:31:44Z</time>
      </trkpt>
      <trkpt lat="49.23811" lon="-1.61407">
        <ele>7.4</ele>
        <time>2020-06-12T06:31:45Z</time>
      </trkpt>
      <trkpt lat="49.23812" lon="-1.61418">
        <ele>7.4</ele>
        <time>2020-06-12T06:31:46Z</time>
      </trkpt>
      <trkpt lat="49.23812" lon="-1.61428">
        <ele>7.3</ele>
        <time>2020-06-12T06:31:47Z</time>
      </trkpt>
      <trkpt lat="49.23812" lon="-1.6144">
        <ele>7.3</ele>
        <time>2020-06-12T06:31:48Z</time>
      </trkpt>
      <trkpt lat="49.23812" lon="-1.61451">
        <ele>7.4</ele>
        <time>2020-06-12T06:31:49Z</time>
      </trkpt>
      <trkpt lat="49.23813" lon="-1.61462">
        <ele>7.4</ele>
        <time>2020-06-12T06:31:50Z</time>
      </trkpt>
      <trkpt lat="49.23814" lon="-1.61473">
        <ele>7.5</ele>
        <time>2020-06-12T06:31:51Z</time>
      </trkpt>
      <trkpt lat="49.23814" lon="-1.61485">
        <ele>7.5</ele>
        <time>2020-06-12T06:31:52Z</time>
      </trkpt>
      <trkpt lat="49.23815" lon="-1.61496">
        <ele>7.4</ele>
        <time>2020-06-12T06:31:53Z</time>
      </trkpt>
      <trkpt lat="49.23815" lon="-1.61506">
        <ele>7.4</ele>
        <time>2020-06-12T06:31:54Z</time>
      </trkpt>
      <trkpt lat="49.23816" lon="-1.61516">
        <ele>7.4</ele>
        <time>2020-06-12T06:31:55Z</time>
      </trkpt>
      <trkpt lat="49.23816" lon="-1.61527">
        <ele>7.3</ele>
        <time>2020-06-12T06:31:56Z</time>
      </trkpt>
      <trkpt lat="49.23817" lon="-1.61537">
        <ele>7.3</ele>
        <time>2020-06-12T06:31:57Z</time>
      </trkpt>
      <trkpt lat="49.23817" lon="-1.61548">
        <ele>7.2</ele>
        <time>2020-06-12T06:31:58Z</time>
      </trkpt>
      <trkpt lat="49.23818" lon="-1.61558">
        <ele>7.2</ele>
        <time>2020-06-12T06:31:59Z</time>
      </trkpt>
      <trkpt lat="49.23819" lon="-1.61568">
        <ele>7.2</ele>
        <time>2020-06-12T06:32:00Z</time>
      </trkpt>
      <trkpt lat="49.23819" lon="-1.61577">
        <ele>7.2</ele>
        <time>2020-06-12T06:32:01Z</time>
      </trkpt>
      <trkpt lat="49.23821" lon="-1.6159">
        <ele>7.3</ele>
        <time>2020-06-12T06:32:02Z</time>
      </trkpt>
      <trkpt lat="49.23821" lon="-1.616">
        <ele>7.2</ele>
        <time>2020-06-12T06:32:03Z</time>
      </trkpt>
      <trkpt lat="49.23822" lon="-1.61611">
        <ele>7.2</ele>
        <time>2020-06-12T06:32:04Z</time>
      </trkpt>
      <trkpt lat="49.23823" lon="-1.61622">
        <ele>7.2</ele>
        <time>2020-06-12T06:32:05Z</time>
      </trkpt>
      <trkpt lat="49.23824" lon="-1.61633">
        <ele>7.2</ele>
        <time>2020-06-12T06:32:06Z</time>
      </trkpt>
      <trkpt lat="49.23826" lon="-1.61644">
        <ele>7.2</ele>
        <time>2020-06-12T06:32:07Z</time>
      </trkpt>
      <trkpt lat="49.23827" lon="-1.61654">
        <ele>7.2</ele>
        <time>2020-06-12T06:32:08Z</time>
      </trkpt>
      <trkpt lat="49.23828" lon="-1.61664">
        <ele>7.2</ele>
        <time>2020-06-12T06:32:09Z</time>
      </trkpt>
      <trkpt lat="49.23829" lon="-1.61673">
        <ele>7.2</ele>
        <time>2020-06-12T06:32:10Z</time>
      </trkpt>
      <trkpt lat="49.23831" lon="-1.61683">
        <ele>7.2</ele>
        <time>2020-06-12T06:32:11Z</time>
      </trkpt>
      <trkpt lat="49.23832" lon="-1.61693">
        <ele>7.2</ele>
        <time>2020-06-12T06:32:12Z</time>
      </trkpt>
      <trkpt lat="49.23834" lon="-1.61703">
        <ele>7.2</ele>
        <time>2020-06-12T06:32:13Z</time>
      </trkpt>
      <trkpt lat="49.23835" lon="-1.61713">
        <ele>7.2</ele>
        <time>2020-06-12T06:32:14Z</time>
      </trkpt>
      <trkpt lat="49.23837" lon="-1.61723">
        <ele>7.2</ele>
        <time>2020-06-12T06:32:15Z</time>
      </trkpt>
      <trkpt lat="49.23839" lon="-1.61732">
        <ele>7.3</ele>
        <time>2020-06-12T06:32:16Z</time>
      </trkpt>
      <trkpt lat="49.23841" lon="-1.61742">
        <ele>7.3</ele>
        <time>2020-06-12T06:32:17Z</time>
      </trkpt>
      <trkpt lat="49.23843" lon="-1.61753">
        <ele>7.3</ele>
        <time>2020-06-12T06:32:18Z</time>
      </trkpt>
      <trkpt lat="49.23845" lon="-1.61762">
        <ele>7.3</ele>
        <time>2020-06-12T06:32:19Z</time>
      </trkpt>
      <trkpt lat="49.23847" lon="-1.61772">
        <ele>7.2</ele>
        <time>2020-06-12T06:32:20Z</time>
      </trkpt>
      <trkpt lat="49.23851" lon="-1.61781">
        <ele>7.1</ele>
        <time>2020-06-12T06:32:21Z</time>
      </trkpt>
      <trkpt lat="49.23854" lon="-1.61791">
        <ele>6.9</ele>
        <time>2020-06-12T06:32:22Z</time>
      </trkpt>
      <trkpt lat="49.23856" lon="-1.61801">
        <ele>6.8</ele>
        <time>2020-06-12T06:32:23Z</time>
      </trkpt>
      <trkpt lat="49.23859" lon="-1.6181">
        <ele>6.7</ele>
        <time>2020-06-12T06:32:24Z</time>
      </trkpt>
      <trkpt lat="49.23861" lon="-1.61821">
        <ele>6.7</ele>
        <time>2020-06-12T06:32:25Z</time>
      </trkpt>
      <trkpt lat="49.23863" lon="-1.6183">
        <ele>6.6</ele>
        <time>2020-06-12T06:32:26Z</time>
      </trkpt>
      <trkpt lat="49.23866" lon="-1.6184">
        <ele>6.6</ele>
        <time>2020-06-12T06:32:27Z</time>
      </trkpt>
      <trkpt lat="49.23869" lon="-1.6185">
        <ele>6.6</ele>
        <time>2020-06-12T06:32:28Z</time>
      </trkpt>
      <trkpt lat="49.23871" lon="-1.61859">
        <ele>6.7</ele>
        <time>2020-06-12T06:32:29Z</time>
      </trkpt>
      <trkpt lat="49.23875" lon="-1.61869">
        <ele>6.7</ele>
        <time>2020-06-12T06:32:30Z</time>
      </trkpt>
      <trkpt lat="49.23878" lon="-1.61878">
        <ele>6.6</ele>
        <time>2020-06-12T06:32:31Z</time>
      </trkpt>
      <trkpt lat="49.2388" lon="-1.61887">
        <ele>6.6</ele>
        <time>2020-06-12T06:32:32Z</time>
      </trkpt>
      <trkpt lat="49.23884" lon="-1.61896">
        <ele>6.6</ele>
        <time>2020-06-12T06:32:33Z</time>
      </trkpt>
      <trkpt lat="49.23887" lon="-1.61905">
        <ele>6.6</ele>
        <time>2020-06-12T06:32:34Z</time>
      </trkpt>
      <trkpt lat="49.2389" lon="-1.61914">
        <ele>6.6</ele>
        <time>2020-06-12T06:32:35Z</time>
      </trkpt>
      <trkpt lat="49.23892" lon="-1.61923">
        <ele>6.6</ele>
        <time>2020-06-12T06:32:36Z</time>
      </trkpt>
      <trkpt lat="49.23897" lon="-1.61931">
        <ele>6.6</ele>
        <time>2020-06-12T06:32:37Z</time>
      </trkpt>
      <trkpt lat="49.239" lon="-1.61939">
        <ele>6.6</ele>
        <time>2020-06-12T06:32:38Z</time>
      </trkpt>
      <trkpt lat="49.23904" lon="-1.61947">
        <ele>6.6</ele>
        <time>2020-06-12T06:32:39Z</time>
      </trkpt>
      <trkpt lat="49.23907" lon="-1.61956">
        <ele>6.6</ele>
        <time>2020-06-12T06:32:40Z</time>
      </trkpt>
      <trkpt lat="49.23911" lon="-1.61965">
        <ele>6.5</ele>
        <time>2020-06-12T06:32:41Z</time>
      </trkpt>
      <trkpt lat="49.23914" lon="-1.61974">
        <ele>6.5</ele>
        <time>2020-06-12T06:32:42Z</time>
      </trkpt>
      <trkpt lat="49.23918" lon="-1.61982">
        <ele>6.5</ele>
        <time>2020-06-12T06:32:43Z</time>
      </trkpt>
      <trkpt lat="49.23922" lon="-1.6199">
        <ele>6.5</ele>
        <time>2020-06-12T06:32:44Z</time>
      </trkpt>
      <trkpt lat="49.23926" lon="-1.61999">
        <ele>6.5</ele>
        <time>2020-06-12T06:32:45Z</time>
      </trkpt>
      <trkpt lat="49.23931" lon="-1.62008">
        <ele>6.5</ele>
        <time>2020-06-12T06:32:46Z</time>
      </trkpt>
      <trkpt lat="49.23934" lon="-1.62015">
        <ele>6.5</ele>
        <time>2020-06-12T06:32:47Z</time>
      </trkpt>
      <trkpt lat="49.23938" lon="-1.62023">
        <ele>6.6</ele>
        <time>2020-06-12T06:32:48Z</time>
      </trkpt>
      <trkpt lat="49.23943" lon="-1.62032">
        <ele>6.7</ele>
        <time>2020-06-12T06:32:49Z</time>
      </trkpt>
      <trkpt lat="49.23947" lon="-1.62039">
        <ele>6.9</ele>
        <time>2020-06-12T06:32:50Z</time>
      </trkpt>
      <trkpt lat="49.23951" lon="-1.62047">
        <ele>7</ele>
        <time>2020-06-12T06:32:51Z</time>
      </trkpt>
      <trkpt lat="49.23955" lon="-1.62055">
        <ele>7</ele>
        <time>2020-06-12T06:32:52Z</time>
      </trkpt>
      <trkpt lat="49.2396" lon="-1.62063">
        <ele>7</ele>
        <time>2020-06-12T06:32:53Z</time>
      </trkpt>
      <trkpt lat="49.23965" lon="-1.6207">
        <ele>7</ele>
        <time>2020-06-12T06:32:54Z</time>
      </trkpt>
      <trkpt lat="49.23969" lon="-1.62079">
        <ele>7</ele>
        <time>2020-06-12T06:32:55Z</time>
      </trkpt>
      <trkpt lat="49.23974" lon="-1.62086">
        <ele>7.1</ele>
        <time>2020-06-12T06:32:56Z</time>
      </trkpt>
      <trkpt lat="49.23978" lon="-1.62094">
        <ele>7.1</ele>
        <time>2020-06-12T06:32:57Z</time>
      </trkpt>
      <trkpt lat="49.23982" lon="-1.62101">
        <ele>7.1</ele>
        <time>2020-06-12T06:32:58Z</time>
      </trkpt>
      <trkpt lat="49.23987" lon="-1.62108">
        <ele>7.2</ele>
        <time>2020-06-12T06:32:59Z</time>
      </trkpt>
      <trkpt lat="49.23992" lon="-1.62115">
        <ele>7.2</ele>
        <time>2020-06-12T06:33:00Z</time>
      </trkpt>
      <trkpt lat="49.23996" lon="-1.62121">
        <ele>7.2</ele>
        <time>2020-06-12T06:33:01Z</time>
      </trkpt>
      <trkpt lat="49.24001" lon="-1.62127">
        <ele>7.2</ele>
        <time>2020-06-12T06:33:02Z</time>
      </trkpt>
      <trkpt lat="49.24007" lon="-1.62133">
        <ele>7.2</ele>
        <time>2020-06-12T06:33:03Z</time>
      </trkpt>
      <trkpt lat="49.24011" lon="-1.6214">
        <ele>7.2</ele>
        <time>2020-06-12T06:33:04Z</time>
      </trkpt>
      <trkpt lat="49.24016" lon="-1.62146">
        <ele>7.2</ele>
        <time>2020-06-12T06:33:05Z</time>
      </trkpt>
      <trkpt lat="49.24021" lon="-1.62151">
        <ele>7.2</ele>
        <time>2020-06-12T06:33:06Z</time>
      </trkpt>
      <trkpt lat="49.24024" lon="-1.62156">
        <ele>7.3</ele>
        <time>2020-06-12T06:33:07Z</time>
      </trkpt>
      <trkpt lat="49.24028" lon="-1.62163">
        <ele>7.3</ele>
        <time>2020-06-12T06:33:08Z</time>
      </trkpt>
      <trkpt lat="49.24033" lon="-1.6217">
        <ele>7.3</ele>
        <time>2020-06-12T06:33:09Z</time>
      </trkpt>
      <trkpt lat="49.24038" lon="-1.62178">
        <ele>7.3</ele>
        <time>2020-06-12T06:33:10Z</time>
      </trkpt>
      <trkpt lat="49.24045" lon="-1.62184">
        <ele>7.3</ele>
        <time>2020-06-12T06:33:11Z</time>
      </trkpt>
      <trkpt lat="49.24049" lon="-1.62192">
        <ele>7.3</ele>
        <time>2020-06-12T06:33:12Z</time>
      </trkpt>
      <trkpt lat="49.24055" lon="-1.62199">
        <ele>7.3</ele>
        <time>2020-06-12T06:33:13Z</time>
      </trkpt>
      <trkpt lat="49.24059" lon="-1.62205">
        <ele>7.3</ele>
        <time>2020-06-12T06:33:14Z</time>
      </trkpt>
      <trkpt lat="49.24064" lon="-1.62212">
        <ele>7.3</ele>
        <time>2020-06-12T06:33:15Z</time>
      </trkpt>
      <trkpt lat="49.24069" lon="-1.62219">
        <ele>7.3</ele>
        <time>2020-06-12T06:33:16Z</time>
      </trkpt>
      <trkpt lat="49.24073" lon="-1.62226">
        <ele>7.3</ele>
        <time>2020-06-12T06:33:17Z</time>
      </trkpt>
      <trkpt lat="49.24078" lon="-1.62234">
        <ele>7.3</ele>
        <time>2020-06-12T06:33:18Z</time>
      </trkpt>
      <trkpt lat="49.24083" lon="-1.6224">
        <ele>7.3</ele>
        <time>2020-06-12T06:33:19Z</time>
      </trkpt>
      <trkpt lat="49.24087" lon="-1.62247">
        <ele>7.3</ele>
        <time>2020-06-12T06:33:20Z</time>
      </trkpt>
      <trkpt lat="49.24092" lon="-1.62254">
        <ele>7.4</ele>
        <time>2020-06-12T06:33:21Z</time>
      </trkpt>
      <trkpt lat="49.24097" lon="-1.62262">
        <ele>7.4</ele>
        <time>2020-06-12T06:33:22Z</time>
      </trkpt>
      <trkpt lat="49.24101" lon="-1.6227">
        <ele>7.4</ele>
        <time>2020-06-12T06:33:23Z</time>
      </trkpt>
      <trkpt lat="49.24106" lon="-1.62277">
        <ele>7.4</ele>
        <time>2020-06-12T06:33:24Z</time>
      </trkpt>
      <trkpt lat="49.24111" lon="-1.62284">
        <ele>7.4</ele>
        <time>2020-06-12T06:33:25Z</time>
      </trkpt>
      <trkpt lat="49.24116" lon="-1.62291">
        <ele>7.4</ele>
        <time>2020-06-12T06:33:26Z</time>
      </trkpt>
      <trkpt lat="49.24122" lon="-1.62298">
        <ele>7.5</ele>
        <time>2020-06-12T06:33:27Z</time>
      </trkpt>
      <trkpt lat="49.24126" lon="-1.62305">
        <ele>7.5</ele>
        <time>2020-06-12T06:33:28Z</time>
      </trkpt>
      <trkpt lat="49.2413" lon="-1.62311">
        <ele>7.5</ele>
        <time>2020-06-12T06:33:29Z</time>
      </trkpt>
      <trkpt lat="49.24135" lon="-1.62318">
        <ele>7.5</ele>
        <time>2020-06-12T06:33:30Z</time>
      </trkpt>
      <trkpt lat="49.2414" lon="-1.62324">
        <ele>7.6</ele>
        <time>2020-06-12T06:33:31Z</time>
      </trkpt>
      <trkpt lat="49.24144" lon="-1.62331">
        <ele>7.6</ele>
        <time>2020-06-12T06:33:32Z</time>
      </trkpt>
      <trkpt lat="49.24149" lon="-1.62338">
        <ele>7.6</ele>
        <time>2020-06-12T06:33:33Z</time>
      </trkpt>
      <trkpt lat="49.24153" lon="-1.62346">
        <ele>7.6</ele>
        <time>2020-06-12T06:33:34Z</time>
      </trkpt>
      <trkpt lat="49.24158" lon="-1.62352">
        <ele>7.6</ele>
        <time>2020-06-12T06:33:35Z</time>
      </trkpt>
      <trkpt lat="49.24163" lon="-1.62359">
        <ele>7.6</ele>
        <time>2020-06-12T06:33:36Z</time>
      </trkpt>
      <trkpt lat="49.24168" lon="-1.62365">
        <ele>7.5</ele>
        <time>2020-06-12T06:33:37Z</time>
      </trkpt>
      <trkpt lat="49.24172" lon="-1.6237">
        <ele>7.5</ele>
        <time>2020-06-12T06:33:38Z</time>
      </trkpt>
      <trkpt lat="49.24177" lon="-1.62377">
        <ele>7.6</ele>
        <time>2020-06-12T06:33:39Z</time>
      </trkpt>
      <trkpt lat="49.24182" lon="-1.62384">
        <ele>7.6</ele>
        <time>2020-06-12T06:33:40Z</time>
      </trkpt>
      <trkpt lat="49.24187" lon="-1.6239">
        <ele>7.6</ele>
        <time>2020-06-12T06:33:41Z</time>
      </trkpt>
      <trkpt lat="49.24191" lon="-1.62396">
        <ele>7.7</ele>
        <time>2020-06-12T06:33:42Z</time>
      </trkpt>
      <trkpt lat="49.24195" lon="-1.62403">
        <ele>7.7</ele>
        <time>2020-06-12T06:33:43Z</time>
      </trkpt>
      <trkpt lat="49.242" lon="-1.62409">
        <ele>7.7</ele>
        <time>2020-06-12T06:33:44Z</time>
      </trkpt>
      <trkpt lat="49.24204" lon="-1.62416">
        <ele>7.7</ele>
        <time>2020-06-12T06:33:45Z</time>
      </trkpt>
      <trkpt lat="49.24209" lon="-1.62423">
        <ele>7.7</ele>
        <time>2020-06-12T06:33:46Z</time>
      </trkpt>
      <trkpt lat="49.24213" lon="-1.62429">
        <ele>7.8</ele>
        <time>2020-06-12T06:33:47Z</time>
      </trkpt>
      <trkpt lat="49.24218" lon="-1.62435">
        <ele>7.8</ele>
        <time>2020-06-12T06:33:48Z</time>
      </trkpt>
      <trkpt lat="49.24222" lon="-1.6244">
        <ele>7.8</ele>
        <time>2020-06-12T06:33:49Z</time>
      </trkpt>
      <trkpt lat="49.24227" lon="-1.62447">
        <ele>7.8</ele>
        <time>2020-06-12T06:33:50Z</time>
      </trkpt>
      <trkpt lat="49.24231" lon="-1.62453">
        <ele>7.8</ele>
        <time>2020-06-12T06:33:51Z</time>
      </trkpt>
      <trkpt lat="49.24237" lon="-1.6246">
        <ele>7.8</ele>
        <time>2020-06-12T06:33:52Z</time>
      </trkpt>
      <trkpt lat="49.24241" lon="-1.62466">
        <ele>7.8</ele>
        <time>2020-06-12T06:33:53Z</time>
      </trkpt>
      <trkpt lat="49.24246" lon="-1.62471">
        <ele>7.8</ele>
        <time>2020-06-12T06:33:54Z</time>
      </trkpt>
      <trkpt lat="49.24251" lon="-1.62479">
        <ele>7.9</ele>
        <time>2020-06-12T06:33:55Z</time>
      </trkpt>
      <trkpt lat="49.24255" lon="-1.62485">
        <ele>7.9</ele>
        <time>2020-06-12T06:33:56Z</time>
      </trkpt>
      <trkpt lat="49.2426" lon="-1.62492">
        <ele>7.9</ele>
        <time>2020-06-12T06:33:57Z</time>
      </trkpt>
      <trkpt lat="49.24265" lon="-1.62499">
        <ele>8</ele>
        <time>2020-06-12T06:33:58Z</time>
      </trkpt>
      <trkpt lat="49.24268" lon="-1.62505">
        <ele>8</ele>
        <time>2020-06-12T06:33:59Z</time>
      </trkpt>
      <trkpt lat="49.24272" lon="-1.6251">
        <ele>8</ele>
        <time>2020-06-12T06:34:00Z</time>
      </trkpt>
      <trkpt lat="49.24275" lon="-1.62515">
        <ele>8</ele>
        <time>2020-06-12T06:34:01Z</time>
      </trkpt>
      <trkpt lat="49.24279" lon="-1.62522">
        <ele>8</ele>
        <time>2020-06-12T06:34:02Z</time>
      </trkpt>
      <trkpt lat="49.24283" lon="-1.62529">
        <ele>8</ele>
        <time>2020-06-12T06:34:03Z</time>
      </trkpt>
      <trkpt lat="49.24287" lon="-1.62536">
        <ele>8.1</ele>
        <time>2020-06-12T06:34:04Z</time>
      </trkpt>
      <trkpt lat="49.24292" lon="-1.62542">
        <ele>8.1</ele>
        <time>2020-06-12T06:34:05Z</time>
      </trkpt>
      <trkpt lat="49.24297" lon="-1.62548">
        <ele>8.1</ele>
        <time>2020-06-12T06:34:06Z</time>
      </trkpt>
      <trkpt lat="49.24302" lon="-1.62555">
        <ele>8.1</ele>
        <time>2020-06-12T06:34:07Z</time>
      </trkpt>
      <trkpt lat="49.24308" lon="-1.62562">
        <ele>8.1</ele>
        <time>2020-06-12T06:34:08Z</time>
      </trkpt>
      <trkpt lat="49.24313" lon="-1.6257">
        <ele>8.2</ele>
        <time>2020-06-12T06:34:09Z</time>
      </trkpt>
      <trkpt lat="49.24318" lon="-1.62576">
        <ele>8.2</ele>
        <time>2020-06-12T06:34:10Z</time>
      </trkpt>
      <trkpt lat="49.24323" lon="-1.62582">
        <ele>8.2</ele>
        <time>2020-06-12T06:34:11Z</time>
      </trkpt>
      <trkpt lat="49.24328" lon="-1.62589">
        <ele>8.2</ele>
        <time>2020-06-12T06:34:12Z</time>
      </trkpt>
      <trkpt lat="49.24333" lon="-1.62597">
        <ele>8.1</ele>
        <time>2020-06-12T06:34:13Z</time>
      </trkpt>
      <trkpt lat="49.24338" lon="-1.62604">
        <ele>8.1</ele>
        <time>2020-06-12T06:34:14Z</time>
      </trkpt>
      <trkpt lat="49.24342" lon="-1.6261">
        <ele>8.1</ele>
        <time>2020-06-12T06:34:15Z</time>
      </trkpt>
      <trkpt lat="49.24347" lon="-1.62617">
        <ele>8.1</ele>
        <time>2020-06-12T06:34:16Z</time>
      </trkpt>
      <trkpt lat="49.24351" lon="-1.62624">
        <ele>8.1</ele>
        <time>2020-06-12T06:34:17Z</time>
      </trkpt>
      <trkpt lat="49.24356" lon="-1.62632">
        <ele>8.1</ele>
        <time>2020-06-12T06:34:18Z</time>
      </trkpt>
      <trkpt lat="49.2436" lon="-1.62638">
        <ele>8.1</ele>
        <time>2020-06-12T06:34:19Z</time>
      </trkpt>
      <trkpt lat="49.24364" lon="-1.62645">
        <ele>8.1</ele>
        <time>2020-06-12T06:34:20Z</time>
      </trkpt>
      <trkpt lat="49.24368" lon="-1.62652">
        <ele>8.1</ele>
        <time>2020-06-12T06:34:21Z</time>
      </trkpt>
      <trkpt lat="49.24374" lon="-1.6266">
        <ele>8.1</ele>
        <time>2020-06-12T06:34:22Z</time>
      </trkpt>
      <trkpt lat="49.24378" lon="-1.62666">
        <ele>8.1</ele>
        <time>2020-06-12T06:34:23Z</time>
      </trkpt>
      <trkpt lat="49.24382" lon="-1.62671">
        <ele>8.1</ele>
        <time>2020-06-12T06:34:24Z</time>
      </trkpt>
      <trkpt lat="49.24386" lon="-1.62677">
        <ele>8.1</ele>
        <time>2020-06-12T06:34:25Z</time>
      </trkpt>
      <trkpt lat="49.2439" lon="-1.62684">
        <ele>8.1</ele>
        <time>2020-06-12T06:34:26Z</time>
      </trkpt>
      <trkpt lat="49.24395" lon="-1.62691">
        <ele>8.1</ele>
        <time>2020-06-12T06:34:27Z</time>
      </trkpt>
      <trkpt lat="49.244" lon="-1.62698">
        <ele>8</ele>
        <time>2020-06-12T06:34:28Z</time>
      </trkpt>
      <trkpt lat="49.24405" lon="-1.62705">
        <ele>8</ele>
        <time>2020-06-12T06:34:29Z</time>
      </trkpt>
      <trkpt lat="49.24409" lon="-1.62712">
        <ele>8</ele>
        <time>2020-06-12T06:34:30Z</time>
      </trkpt>
      <trkpt lat="49.24414" lon="-1.62719">
        <ele>8</ele>
        <time>2020-06-12T06:34:31Z</time>
      </trkpt>
      <trkpt lat="49.2442" lon="-1.62726">
        <ele>8.1</ele>
        <time>2020-06-12T06:34:32Z</time>
      </trkpt>
      <trkpt lat="49.24425" lon="-1.62734">
        <ele>8.2</ele>
        <time>2020-06-12T06:34:33Z</time>
      </trkpt>
      <trkpt lat="49.2443" lon="-1.62741">
        <ele>8.4</ele>
        <time>2020-06-12T06:34:34Z</time>
      </trkpt>
      <trkpt lat="49.24434" lon="-1.62746">
        <ele>8.4</ele>
        <time>2020-06-12T06:34:35Z</time>
      </trkpt>
      <trkpt lat="49.24439" lon="-1.62752">
        <ele>8.4</ele>
        <time>2020-06-12T06:34:36Z</time>
      </trkpt>
      <trkpt lat="49.24442" lon="-1.62758">
        <ele>8.4</ele>
        <time>2020-06-12T06:34:37Z</time>
      </trkpt>
      <trkpt lat="49.24448" lon="-1.62765">
        <ele>8.4</ele>
        <time>2020-06-12T06:34:38Z</time>
      </trkpt>
      <trkpt lat="49.24452" lon="-1.6277">
        <ele>8.4</ele>
        <time>2020-06-12T06:34:39Z</time>
      </trkpt>
      <trkpt lat="49.24456" lon="-1.62776">
        <ele>8.3</ele>
        <time>2020-06-12T06:34:40Z</time>
      </trkpt>
      <trkpt lat="49.24461" lon="-1.62783">
        <ele>8.3</ele>
        <time>2020-06-12T06:34:41Z</time>
      </trkpt>
      <trkpt lat="49.24465" lon="-1.62786">
        <ele>8.3</ele>
        <time>2020-06-12T06:34:42Z</time>
      </trkpt>
      <trkpt lat="49.24468" lon="-1.62791">
        <ele>8.3</ele>
        <time>2020-06-12T06:34:43Z</time>
      </trkpt>
      <trkpt lat="49.24474" lon="-1.62799">
        <ele>8.3</ele>
        <time>2020-06-12T06:34:44Z</time>
      </trkpt>
      <trkpt lat="49.24478" lon="-1.62805">
        <ele>8.3</ele>
        <time>2020-06-12T06:34:45Z</time>
      </trkpt>
      <trkpt lat="49.24482" lon="-1.62812">
        <ele>8.3</ele>
        <time>2020-06-12T06:34:46Z</time>
      </trkpt>
      <trkpt lat="49.24487" lon="-1.6282">
        <ele>8.2</ele>
        <time>2020-06-12T06:34:47Z</time>
      </trkpt>
      <trkpt lat="49.24492" lon="-1.62827">
        <ele>8.2</ele>
        <time>2020-06-12T06:34:48Z</time>
      </trkpt>
      <trkpt lat="49.24497" lon="-1.62836">
        <ele>8.2</ele>
        <time>2020-06-12T06:34:49Z</time>
      </trkpt>
      <trkpt lat="49.24503" lon="-1.62845">
        <ele>8.1</ele>
        <time>2020-06-12T06:34:50Z</time>
      </trkpt>
      <trkpt lat="49.24508" lon="-1.62854">
        <ele>8.1</ele>
        <time>2020-06-12T06:34:51Z</time>
      </trkpt>
      <trkpt lat="49.24513" lon="-1.62861">
        <ele>8</ele>
        <time>2020-06-12T06:34:52Z</time>
      </trkpt>
      <trkpt lat="49.24518" lon="-1.62869">
        <ele>8</ele>
        <time>2020-06-12T06:34:53Z</time>
      </trkpt>
      <trkpt lat="49.24522" lon="-1.62876">
        <ele>8</ele>
        <time>2020-06-12T06:34:54Z</time>
      </trkpt>
      <trkpt lat="49.24527" lon="-1.62883">
        <ele>8</ele>
        <time>2020-06-12T06:34:55Z</time>
      </trkpt>
      <trkpt lat="49.24532" lon="-1.62891">
        <ele>8</ele>
        <time>2020-06-12T06:34:56Z</time>
      </trkpt>
      <trkpt lat="49.24537" lon="-1.62898">
        <ele>8</ele>
        <time>2020-06-12T06:34:57Z</time>
      </trkpt>
      <trkpt lat="49.24542" lon="-1.62906">
        <ele>7.9</ele>
        <time>2020-06-12T06:34:58Z</time>
      </trkpt>
      <trkpt lat="49.24547" lon="-1.62913">
        <ele>7.9</ele>
        <time>2020-06-12T06:34:59Z</time>
      </trkpt>
      <trkpt lat="49.24551" lon="-1.62919">
        <ele>7.9</ele>
        <time>2020-06-12T06:35:00Z</time>
      </trkpt>
      <trkpt lat="49.24555" lon="-1.62926">
        <ele>7.8</ele>
        <time>2020-06-12T06:35:01Z</time>
      </trkpt>
      <trkpt lat="49.24559" lon="-1.62932">
        <ele>7.8</ele>
        <time>2020-06-12T06:35:02Z</time>
      </trkpt>
      <trkpt lat="49.24563" lon="-1.62938">
        <ele>7.8</ele>
        <time>2020-06-12T06:35:03Z</time>
      </trkpt>
      <trkpt lat="49.24568" lon="-1.62945">
        <ele>7.7</ele>
        <time>2020-06-12T06:35:04Z</time>
      </trkpt>
      <trkpt lat="49.24572" lon="-1.62951">
        <ele>7.7</ele>
        <time>2020-06-12T06:35:05Z</time>
      </trkpt>
      <trkpt lat="49.24577" lon="-1.62959">
        <ele>7.7</ele>
        <time>2020-06-12T06:35:06Z</time>
      </trkpt>
      <trkpt lat="49.24582" lon="-1.62966">
        <ele>7.6</ele>
        <time>2020-06-12T06:35:07Z</time>
      </trkpt>
      <trkpt lat="49.24586" lon="-1.62971">
        <ele>7.6</ele>
        <time>2020-06-12T06:35:08Z</time>
      </trkpt>
      <trkpt lat="49.24591" lon="-1.62977">
        <ele>7.6</ele>
        <time>2020-06-12T06:35:09Z</time>
      </trkpt>
      <trkpt lat="49.24595" lon="-1.62984">
        <ele>7.6</ele>
        <time>2020-06-12T06:35:10Z</time>
      </trkpt>
      <trkpt lat="49.24599" lon="-1.62991">
        <ele>7.5</ele>
        <time>2020-06-12T06:35:11Z</time>
      </trkpt>
      <trkpt lat="49.24604" lon="-1.62998">
        <ele>7.5</ele>
        <time>2020-06-12T06:35:12Z</time>
      </trkpt>
      <trkpt lat="49.24608" lon="-1.63003">
        <ele>7.5</ele>
        <time>2020-06-12T06:35:13Z</time>
      </trkpt>
      <trkpt lat="49.24613" lon="-1.6301">
        <ele>7.4</ele>
        <time>2020-06-12T06:35:14Z</time>
      </trkpt>
      <trkpt lat="49.24619" lon="-1.63018">
        <ele>7.4</ele>
        <time>2020-06-12T06:35:15Z</time>
      </trkpt>
      <trkpt lat="49.24623" lon="-1.63025">
        <ele>7.4</ele>
        <time>2020-06-12T06:35:16Z</time>
      </trkpt>
      <trkpt lat="49.24629" lon="-1.63033">
        <ele>7.3</ele>
        <time>2020-06-12T06:35:17Z</time>
      </trkpt>
      <trkpt lat="49.24634" lon="-1.63041">
        <ele>7.2</ele>
        <time>2020-06-12T06:35:18Z</time>
      </trkpt>
      <trkpt lat="49.24639" lon="-1.63047">
        <ele>7.2</ele>
        <time>2020-06-12T06:35:19Z</time>
      </trkpt>
      <trkpt lat="49.24643" lon="-1.63054">
        <ele>7.2</ele>
        <time>2020-06-12T06:35:20Z</time>
      </trkpt>
      <trkpt lat="49.24648" lon="-1.63061">
        <ele>7.2</ele>
        <time>2020-06-12T06:35:21Z</time>
      </trkpt>
      <trkpt lat="49.24652" lon="-1.63067">
        <ele>7.2</ele>
        <time>2020-06-12T06:35:22Z</time>
      </trkpt>
      <trkpt lat="49.24657" lon="-1.63074">
        <ele>7.2</ele>
        <time>2020-06-12T06:35:23Z</time>
      </trkpt>
      <trkpt lat="49.24662" lon="-1.6308">
        <ele>7.2</ele>
        <time>2020-06-12T06:35:24Z</time>
      </trkpt>
      <trkpt lat="49.24666" lon="-1.63087">
        <ele>7.1</ele>
        <time>2020-06-12T06:35:25Z</time>
      </trkpt>
      <trkpt lat="49.24672" lon="-1.63094">
        <ele>7.1</ele>
        <time>2020-06-12T06:35:26Z</time>
      </trkpt>
      <trkpt lat="49.24677" lon="-1.63102">
        <ele>7</ele>
        <time>2020-06-12T06:35:27Z</time>
      </trkpt>
      <trkpt lat="49.24682" lon="-1.63109">
        <ele>7</ele>
        <time>2020-06-12T06:35:28Z</time>
      </trkpt>
      <trkpt lat="49.24687" lon="-1.63116">
        <ele>7</ele>
        <time>2020-06-12T06:35:29Z</time>
      </trkpt>
      <trkpt lat="49.24691" lon="-1.63122">
        <ele>7</ele>
        <time>2020-06-12T06:35:30Z</time>
      </trkpt>
      <trkpt lat="49.24695" lon="-1.63128">
        <ele>7</ele>
        <time>2020-06-12T06:35:31Z</time>
      </trkpt>
      <trkpt lat="49.247" lon="-1.63135">
        <ele>7</ele>
        <time>2020-06-12T06:35:32Z</time>
      </trkpt>
      <trkpt lat="49.24704" lon="-1.63142">
        <ele>7.1</ele>
        <time>2020-06-12T06:35:33Z</time>
      </trkpt>
      <trkpt lat="49.24708" lon="-1.63149">
        <ele>7.1</ele>
        <time>2020-06-12T06:35:34Z</time>
      </trkpt>
      <trkpt lat="49.24712" lon="-1.63154">
        <ele>7.1</ele>
        <time>2020-06-12T06:35:35Z</time>
      </trkpt>
      <trkpt lat="49.24716" lon="-1.63159">
        <ele>7.1</ele>
        <time>2020-06-12T06:35:36Z</time>
      </trkpt>
      <trkpt lat="49.2472" lon="-1.63165">
        <ele>7.1</ele>
        <time>2020-06-12T06:35:37Z</time>
      </trkpt>
      <trkpt lat="49.24724" lon="-1.63171">
        <ele>7.1</ele>
        <time>2020-06-12T06:35:38Z</time>
      </trkpt>
      <trkpt lat="49.24728" lon="-1.63177">
        <ele>7.1</ele>
        <time>2020-06-12T06:35:39Z</time>
      </trkpt>
      <trkpt lat="49.24732" lon="-1.63183">
        <ele>7.1</ele>
        <time>2020-06-12T06:35:40Z</time>
      </trkpt>
      <trkpt lat="49.24736" lon="-1.63191">
        <ele>7.1</ele>
        <time>2020-06-12T06:35:41Z</time>
      </trkpt>
      <trkpt lat="49.24741" lon="-1.63198">
        <ele>7.1</ele>
        <time>2020-06-12T06:35:42Z</time>
      </trkpt>
      <trkpt lat="49.24747" lon="-1.63206">
        <ele>7.2</ele>
        <time>2020-06-12T06:35:43Z</time>
      </trkpt>
      <trkpt lat="49.24751" lon="-1.63211">
        <ele>7.2</ele>
        <time>2020-06-12T06:35:44Z</time>
      </trkpt>
      <trkpt lat="49.24755" lon="-1.63216">
        <ele>7.2</ele>
        <time>2020-06-12T06:35:45Z</time>
      </trkpt>
      <trkpt lat="49.24759" lon="-1.63224">
        <ele>7.2</ele>
        <time>2020-06-12T06:35:46Z</time>
      </trkpt>
      <trkpt lat="49.24763" lon="-1.63229">
        <ele>7.2</ele>
        <time>2020-06-12T06:35:47Z</time>
      </trkpt>
      <trkpt lat="49.24767" lon="-1.63235">
        <ele>7.2</ele>
        <time>2020-06-12T06:35:48Z</time>
      </trkpt>
      <trkpt lat="49.24771" lon="-1.63242">
        <ele>7.2</ele>
        <time>2020-06-12T06:35:49Z</time>
      </trkpt>
      <trkpt lat="49.24776" lon="-1.63248">
        <ele>7.2</ele>
        <time>2020-06-12T06:35:50Z</time>
      </trkpt>
      <trkpt lat="49.24781" lon="-1.63256">
        <ele>7.3</ele>
        <time>2020-06-12T06:35:51Z</time>
      </trkpt>
      <trkpt lat="49.24786" lon="-1.63261">
        <ele>7.3</ele>
        <time>2020-06-12T06:35:52Z</time>
      </trkpt>
      <trkpt lat="49.2479" lon="-1.63268">
        <ele>7.3</ele>
        <time>2020-06-12T06:35:53Z</time>
      </trkpt>
      <trkpt lat="49.24795" lon="-1.63276">
        <ele>7.2</ele>
        <time>2020-06-12T06:35:54Z</time>
      </trkpt>
      <trkpt lat="49.24801" lon="-1.63282">
        <ele>7.2</ele>
        <time>2020-06-12T06:35:55Z</time>
      </trkpt>
      <trkpt lat="49.24805" lon="-1.63287">
        <ele>7.2</ele>
        <time>2020-06-12T06:35:56Z</time>
      </trkpt>
      <trkpt lat="49.24809" lon="-1.63294">
        <ele>7.2</ele>
        <time>2020-06-12T06:35:57Z</time>
      </trkpt>
      <trkpt lat="49.24812" lon="-1.63301">
        <ele>7.2</ele>
        <time>2020-06-12T06:35:58Z</time>
      </trkpt>
      <trkpt lat="49.24816" lon="-1.63307">
        <ele>7.2</ele>
        <time>2020-06-12T06:35:59Z</time>
      </trkpt>
      <trkpt lat="49.2482" lon="-1.63313">
        <ele>7.3</ele>
        <time>2020-06-12T06:36:00Z</time>
      </trkpt>
      <trkpt lat="49.24825" lon="-1.6332">
        <ele>7.3</ele>
        <time>2020-06-12T06:36:01Z</time>
      </trkpt>
      <trkpt lat="49.2483" lon="-1.63328">
        <ele>7.3</ele>
        <time>2020-06-12T06:36:02Z</time>
      </trkpt>
      <trkpt lat="49.24834" lon="-1.63335">
        <ele>7.4</ele>
        <time>2020-06-12T06:36:03Z</time>
      </trkpt>
      <trkpt lat="49.24839" lon="-1.63339">
        <ele>7.4</ele>
        <time>2020-06-12T06:36:04Z</time>
      </trkpt>
      <trkpt lat="49.24843" lon="-1.63345">
        <ele>7.4</ele>
        <time>2020-06-12T06:36:05Z</time>
      </trkpt>
      <trkpt lat="49.24847" lon="-1.63352">
        <ele>7.5</ele>
        <time>2020-06-12T06:36:06Z</time>
      </trkpt>
      <trkpt lat="49.24852" lon="-1.63359">
        <ele>7.6</ele>
        <time>2020-06-12T06:36:07Z</time>
      </trkpt>
      <trkpt lat="49.24858" lon="-1.63366">
        <ele>7.7</ele>
        <time>2020-06-12T06:36:08Z</time>
      </trkpt>
      <trkpt lat="49.24863" lon="-1.63373">
        <ele>7.9</ele>
        <time>2020-06-12T06:36:09Z</time>
      </trkpt>
      <trkpt lat="49.24867" lon="-1.63379">
        <ele>8</ele>
        <time>2020-06-12T06:36:10Z</time>
      </trkpt>
      <trkpt lat="49.24871" lon="-1.63386">
        <ele>8.2</ele>
        <time>2020-06-12T06:36:11Z</time>
      </trkpt>
      <trkpt lat="49.24875" lon="-1.63392">
        <ele>8.2</ele>
        <time>2020-06-12T06:36:12Z</time>
      </trkpt>
      <trkpt lat="49.24879" lon="-1.63397">
        <ele>8.3</ele>
        <time>2020-06-12T06:36:13Z</time>
      </trkpt>
      <trkpt lat="49.24883" lon="-1.63403">
        <ele>8.3</ele>
        <time>2020-06-12T06:36:14Z</time>
      </trkpt>
      <trkpt lat="49.24888" lon="-1.6341">
        <ele>8.3</ele>
        <time>2020-06-12T06:36:15Z</time>
      </trkpt>
      <trkpt lat="49.24892" lon="-1.63418">
        <ele>8.3</ele>
        <time>2020-06-12T06:36:16Z</time>
      </trkpt>
      <trkpt lat="49.24896" lon="-1.63424">
        <ele>8.3</ele>
        <time>2020-06-12T06:36:17Z</time>
      </trkpt>
      <trkpt lat="49.249" lon="-1.6343">
        <ele>8.4</ele>
        <time>2020-06-12T06:36:18Z</time>
      </trkpt>
      <trkpt lat="49.24904" lon="-1.63438">
        <ele>8.4</ele>
        <time>2020-06-12T06:36:19Z</time>
      </trkpt>
      <trkpt lat="49.24908" lon="-1.63442">
        <ele>8.4</ele>
        <time>2020-06-12T06:36:20Z</time>
      </trkpt>
      <trkpt lat="49.24912" lon="-1.63449">
        <ele>8.5</ele>
        <time>2020-06-12T06:36:21Z</time>
      </trkpt>
      <trkpt lat="49.24917" lon="-1.63455">
        <ele>8.5</ele>
        <time>2020-06-12T06:36:22Z</time>
      </trkpt>
      <trkpt lat="49.24921" lon="-1.6346">
        <ele>8.5</ele>
        <time>2020-06-12T06:36:23Z</time>
      </trkpt>
      <trkpt lat="49.24926" lon="-1.63467">
        <ele>8.5</ele>
        <time>2020-06-12T06:36:24Z</time>
      </trkpt>
      <trkpt lat="49.2493" lon="-1.63474">
        <ele>8.5</ele>
        <time>2020-06-12T06:36:25Z</time>
      </trkpt>
      <trkpt lat="49.24934" lon="-1.63479">
        <ele>8.6</ele>
        <time>2020-06-12T06:36:26Z</time>
      </trkpt>
      <trkpt lat="49.24938" lon="-1.63485">
        <ele>8.6</ele>
        <time>2020-06-12T06:36:27Z</time>
      </trkpt>
      <trkpt lat="49.24943" lon="-1.6349">
        <ele>8.6</ele>
        <time>2020-06-12T06:36:28Z</time>
      </trkpt>
      <trkpt lat="49.24947" lon="-1.63495">
        <ele>8.6</ele>
        <time>2020-06-12T06:36:29Z</time>
      </trkpt>
      <trkpt lat="49.24952" lon="-1.63501">
        <ele>8.6</ele>
        <time>2020-06-12T06:36:30Z</time>
      </trkpt>
      <trkpt lat="49.24956" lon="-1.63507">
        <ele>8.7</ele>
        <time>2020-06-12T06:36:31Z</time>
      </trkpt>
      <trkpt lat="49.24961" lon="-1.63513">
        <ele>8.7</ele>
        <time>2020-06-12T06:36:32Z</time>
      </trkpt>
      <trkpt lat="49.24966" lon="-1.63518">
        <ele>8.7</ele>
        <time>2020-06-12T06:36:33Z</time>
      </trkpt>
      <trkpt lat="49.24969" lon="-1.63522">
        <ele>8.7</ele>
        <time>2020-06-12T06:36:34Z</time>
      </trkpt>
      <trkpt lat="49.24975" lon="-1.63528">
        <ele>8.7</ele>
        <time>2020-06-12T06:36:35Z</time>
      </trkpt>
      <trkpt lat="49.2498" lon="-1.63534">
        <ele>8.7</ele>
        <time>2020-06-12T06:36:36Z</time>
      </trkpt>
      <trkpt lat="49.24984" lon="-1.63539">
        <ele>8.7</ele>
        <time>2020-06-12T06:36:37Z</time>
      </trkpt>
      <trkpt lat="49.24988" lon="-1.63544">
        <ele>8.8</ele>
        <time>2020-06-12T06:36:38Z</time>
      </trkpt>
      <trkpt lat="49.24993" lon="-1.63549">
        <ele>8.8</ele>
        <time>2020-06-12T06:36:39Z</time>
      </trkpt>
      <trkpt lat="49.24997" lon="-1.63554">
        <ele>8.8</ele>
        <time>2020-06-12T06:36:40Z</time>
      </trkpt>
      <trkpt lat="49.25" lon="-1.63559">
        <ele>8.8</ele>
        <time>2020-06-12T06:36:41Z</time>
      </trkpt>
      <trkpt lat="49.25007" lon="-1.63562">
        <ele>8.8</ele>
        <time>2020-06-12T06:36:42Z</time>
      </trkpt>
      <trkpt lat="49.25012" lon="-1.63567">
        <ele>8.8</ele>
        <time>2020-06-12T06:36:43Z</time>
      </trkpt>
      <trkpt lat="49.25018" lon="-1.63573">
        <ele>8.9</ele>
        <time>2020-06-12T06:36:44Z</time>
      </trkpt>
      <trkpt lat="49.25023" lon="-1.63579">
        <ele>8.9</ele>
        <time>2020-06-12T06:36:45Z</time>
      </trkpt>
      <trkpt lat="49.25028" lon="-1.63585">
        <ele>8.9</ele>
        <time>2020-06-12T06:36:46Z</time>
      </trkpt>
      <trkpt lat="49.25032" lon="-1.6359">
        <ele>8.9</ele>
        <time>2020-06-12T06:36:47Z</time>
      </trkpt>
      <trkpt lat="49.25037" lon="-1.63595">
        <ele>8.9</ele>
        <time>2020-06-12T06:36:48Z</time>
      </trkpt>
      <trkpt lat="49.25042" lon="-1.63599">
        <ele>8.9</ele>
        <time>2020-06-12T06:36:49Z</time>
      </trkpt>
      <trkpt lat="49.25047" lon="-1.63603">
        <ele>8.9</ele>
        <time>2020-06-12T06:36:50Z</time>
      </trkpt>
      <trkpt lat="49.25051" lon="-1.63609">
        <ele>8.9</ele>
        <time>2020-06-12T06:36:51Z</time>
      </trkpt>
      <trkpt lat="49.25057" lon="-1.63613">
        <ele>8.9</ele>
        <time>2020-06-12T06:36:52Z</time>
      </trkpt>
      <trkpt lat="49.25062" lon="-1.63617">
        <ele>8.9</ele>
        <time>2020-06-12T06:36:53Z</time>
      </trkpt>
      <trkpt lat="49.25067" lon="-1.63622">
        <ele>8.9</ele>
        <time>2020-06-12T06:36:54Z</time>
      </trkpt>
      <trkpt lat="49.25073" lon="-1.63626">
        <ele>8.9</ele>
        <time>2020-06-12T06:36:55Z</time>
      </trkpt>
      <trkpt lat="49.2508" lon="-1.63629">
        <ele>8.9</ele>
        <time>2020-06-12T06:36:56Z</time>
      </trkpt>
      <trkpt lat="49.25086" lon="-1.63633">
        <ele>9</ele>
        <time>2020-06-12T06:36:57Z</time>
      </trkpt>
      <trkpt lat="49.2509" lon="-1.63638">
        <ele>9</ele>
        <time>2020-06-12T06:36:58Z</time>
      </trkpt>
      <trkpt lat="49.25097" lon="-1.63643">
        <ele>9</ele>
        <time>2020-06-12T06:36:59Z</time>
      </trkpt>
      <trkpt lat="49.25102" lon="-1.63647">
        <ele>9.1</ele>
        <time>2020-06-12T06:37:00Z</time>
      </trkpt>
      <trkpt lat="49.25107" lon="-1.63652">
        <ele>9.1</ele>
        <time>2020-06-12T06:37:01Z</time>
      </trkpt>
      <trkpt lat="49.25112" lon="-1.63656">
        <ele>9.1</ele>
        <time>2020-06-12T06:37:02Z</time>
      </trkpt>
      <trkpt lat="49.25117" lon="-1.6366">
        <ele>9.1</ele>
        <time>2020-06-12T06:37:03Z</time>
      </trkpt>
      <trkpt lat="49.25122" lon="-1.63663">
        <ele>9.2</ele>
        <time>2020-06-12T06:37:04Z</time>
      </trkpt>
      <trkpt lat="49.25128" lon="-1.63667">
        <ele>9.2</ele>
        <time>2020-06-12T06:37:05Z</time>
      </trkpt>
      <trkpt lat="49.25132" lon="-1.6367">
        <ele>9.2</ele>
        <time>2020-06-12T06:37:06Z</time>
      </trkpt>
      <trkpt lat="49.25138" lon="-1.63673">
        <ele>9.2</ele>
        <time>2020-06-12T06:37:07Z</time>
      </trkpt>
      <trkpt lat="49.25143" lon="-1.63676">
        <ele>9.2</ele>
        <time>2020-06-12T06:37:08Z</time>
      </trkpt>
      <trkpt lat="49.25149" lon="-1.63679">
        <ele>9.2</ele>
        <time>2020-06-12T06:37:09Z</time>
      </trkpt>
      <trkpt lat="49.25155" lon="-1.63684">
        <ele>9.2</ele>
        <time>2020-06-12T06:37:10Z</time>
      </trkpt>
      <trkpt lat="49.2516" lon="-1.63687">
        <ele>9.2</ele>
        <time>2020-06-12T06:37:11Z</time>
      </trkpt>
      <trkpt lat="49.25166" lon="-1.6369">
        <ele>9.2</ele>
        <time>2020-06-12T06:37:12Z</time>
      </trkpt>
      <trkpt lat="49.25172" lon="-1.63694">
        <ele>9.2</ele>
        <time>2020-06-12T06:37:13Z</time>
      </trkpt>
      <trkpt lat="49.25178" lon="-1.63697">
        <ele>9.2</ele>
        <time>2020-06-12T06:37:14Z</time>
      </trkpt>
      <trkpt lat="49.25184" lon="-1.637">
        <ele>9.1</ele>
        <time>2020-06-12T06:37:15Z</time>
      </trkpt>
      <trkpt lat="49.25189" lon="-1.63703">
        <ele>9.1</ele>
        <time>2020-06-12T06:37:16Z</time>
      </trkpt>
      <trkpt lat="49.25195" lon="-1.63706">
        <ele>9.1</ele>
        <time>2020-06-12T06:37:17Z</time>
      </trkpt>
      <trkpt lat="49.25201" lon="-1.63709">
        <ele>9.1</ele>
        <time>2020-06-12T06:37:18Z</time>
      </trkpt>
      <trkpt lat="49.25206" lon="-1.63712">
        <ele>9.1</ele>
        <time>2020-06-12T06:37:19Z</time>
      </trkpt>
      <trkpt lat="49.25213" lon="-1.63716">
        <ele>9</ele>
        <time>2020-06-12T06:37:20Z</time>
      </trkpt>
      <trkpt lat="49.2522" lon="-1.63719">
        <ele>9</ele>
        <time>2020-06-12T06:37:21Z</time>
      </trkpt>
      <trkpt lat="49.25227" lon="-1.63722">
        <ele>9</ele>
        <time>2020-06-12T06:37:22Z</time>
      </trkpt>
      <trkpt lat="49.25233" lon="-1.63726">
        <ele>8.9</ele>
        <time>2020-06-12T06:37:23Z</time>
      </trkpt>
      <trkpt lat="49.2524" lon="-1.63728">
        <ele>8.9</ele>
        <time>2020-06-12T06:37:24Z</time>
      </trkpt>
      <trkpt lat="49.25244" lon="-1.63731">
        <ele>8.9</ele>
        <time>2020-06-12T06:37:25Z</time>
      </trkpt>
      <trkpt lat="49.2525" lon="-1.63733">
        <ele>8.9</ele>
        <time>2020-06-12T06:37:26Z</time>
      </trkpt>
      <trkpt lat="49.25256" lon="-1.63735">
        <ele>8.8</ele>
        <time>2020-06-12T06:37:27Z</time>
      </trkpt>
      <trkpt lat="49.25262" lon="-1.63738">
        <ele>8.8</ele>
        <time>2020-06-12T06:37:28Z</time>
      </trkpt>
      <trkpt lat="49.25268" lon="-1.63741">
        <ele>8.8</ele>
        <time>2020-06-12T06:37:29Z</time>
      </trkpt>
      <trkpt lat="49.25274" lon="-1.63744">
        <ele>8.8</ele>
        <time>2020-06-12T06:37:30Z</time>
      </trkpt>
      <trkpt lat="49.25279" lon="-1.63746">
        <ele>8.8</ele>
        <time>2020-06-12T06:37:31Z</time>
      </trkpt>
      <trkpt lat="49.25285" lon="-1.63748">
        <ele>8.7</ele>
        <time>2020-06-12T06:37:32Z</time>
      </trkpt>
      <trkpt lat="49.25291" lon="-1.6375">
        <ele>8.7</ele>
        <time>2020-06-12T06:37:33Z</time>
      </trkpt>
      <trkpt lat="49.25297" lon="-1.63752">
        <ele>8.7</ele>
        <time>2020-06-12T06:37:34Z</time>
      </trkpt>
      <trkpt lat="49.25303" lon="-1.63755">
        <ele>8.6</ele>
        <time>2020-06-12T06:37:35Z</time>
      </trkpt>
      <trkpt lat="49.25309" lon="-1.63758">
        <ele>8.6</ele>
        <time>2020-06-12T06:37:36Z</time>
      </trkpt>
      <trkpt lat="49.25316" lon="-1.63762">
        <ele>8.6</ele>
        <time>2020-06-12T06:37:37Z</time>
      </trkpt>
      <trkpt lat="49.25323" lon="-1.63766">
        <ele>8.5</ele>
        <time>2020-06-12T06:37:38Z</time>
      </trkpt>
      <trkpt lat="49.2533" lon="-1.63768">
        <ele>8.5</ele>
        <time>2020-06-12T06:37:39Z</time>
      </trkpt>
      <trkpt lat="49.25335" lon="-1.63772">
        <ele>8.5</ele>
        <time>2020-06-12T06:37:40Z</time>
      </trkpt>
      <trkpt lat="49.25341" lon="-1.63775">
        <ele>8.5</ele>
        <time>2020-06-12T06:37:41Z</time>
      </trkpt>
      <trkpt lat="49.25347" lon="-1.63778">
        <ele>8.5</ele>
        <time>2020-06-12T06:37:42Z</time>
      </trkpt>
      <trkpt lat="49.25352" lon="-1.63781">
        <ele>8.5</ele>
        <time>2020-06-12T06:37:43Z</time>
      </trkpt>
      <trkpt lat="49.25358" lon="-1.63784">
        <ele>8.4</ele>
        <time>2020-06-12T06:37:44Z</time>
      </trkpt>
      <trkpt lat="49.25365" lon="-1.63787">
        <ele>8.4</ele>
        <time>2020-06-12T06:37:45Z</time>
      </trkpt>
      <trkpt lat="49.25371" lon="-1.6379">
        <ele>8.4</ele>
        <time>2020-06-12T06:37:46Z</time>
      </trkpt>
      <trkpt lat="49.2538" lon="-1.63793">
        <ele>8.4</ele>
        <time>2020-06-12T06:37:47Z</time>
      </trkpt>
      <trkpt lat="49.25387" lon="-1.63797">
        <ele>8.3</ele>
        <time>2020-06-12T06:37:48Z</time>
      </trkpt>
      <trkpt lat="49.2539" lon="-1.63799">
        <ele>8.2</ele>
        <time>2020-06-12T06:37:49Z</time>
      </trkpt>
      <trkpt lat="49.25396" lon="-1.63802">
        <ele>8.2</ele>
        <time>2020-06-12T06:37:50Z</time>
      </trkpt>
      <trkpt lat="49.25403" lon="-1.63804">
        <ele>8.1</ele>
        <time>2020-06-12T06:37:51Z</time>
      </trkpt>
      <trkpt lat="49.2541" lon="-1.63806">
        <ele>8.1</ele>
        <time>2020-06-12T06:37:52Z</time>
      </trkpt>
      <trkpt lat="49.25417" lon="-1.63808">
        <ele>8.1</ele>
        <time>2020-06-12T06:37:53Z</time>
      </trkpt>
      <trkpt lat="49.25424" lon="-1.63811">
        <ele>8.1</ele>
        <time>2020-06-12T06:37:54Z</time>
      </trkpt>
      <trkpt lat="49.25431" lon="-1.63814">
        <ele>8.2</ele>
        <time>2020-06-12T06:37:55Z</time>
      </trkpt>
      <trkpt lat="49.25438" lon="-1.63817">
        <ele>8.2</ele>
        <time>2020-06-12T06:37:56Z</time>
      </trkpt>
      <trkpt lat="49.25444" lon="-1.63819">
        <ele>8.2</ele>
        <time>2020-06-12T06:37:57Z</time>
      </trkpt>
      <trkpt lat="49.2545" lon="-1.63822">
        <ele>8.2</ele>
        <time>2020-06-12T06:37:58Z</time>
      </trkpt>
      <trkpt lat="49.25457" lon="-1.63825">
        <ele>8.2</ele>
        <time>2020-06-12T06:37:59Z</time>
      </trkpt>
      <trkpt lat="49.25463" lon="-1.63829">
        <ele>8.2</ele>
        <time>2020-06-12T06:38:00Z</time>
      </trkpt>
      <trkpt lat="49.25469" lon="-1.63832">
        <ele>8.3</ele>
        <time>2020-06-12T06:38:01Z</time>
      </trkpt>
      <trkpt lat="49.25476" lon="-1.63834">
        <ele>8.3</ele>
        <time>2020-06-12T06:38:02Z</time>
      </trkpt>
      <trkpt lat="49.25482" lon="-1.63837">
        <ele>8.3</ele>
        <time>2020-06-12T06:38:03Z</time>
      </trkpt>
      <trkpt lat="49.25488" lon="-1.6384">
        <ele>8.2</ele>
        <time>2020-06-12T06:38:04Z</time>
      </trkpt>
      <trkpt lat="49.25494" lon="-1.63843">
        <ele>8.2</ele>
        <time>2020-06-12T06:38:05Z</time>
      </trkpt>
      <trkpt lat="49.255" lon="-1.63846">
        <ele>8</ele>
        <time>2020-06-12T06:38:06Z</time>
      </trkpt>
      <trkpt lat="49.25507" lon="-1.63849">
        <ele>7.9</ele>
        <time>2020-06-12T06:38:07Z</time>
      </trkpt>
      <trkpt lat="49.25512" lon="-1.63853">
        <ele>7.8</ele>
        <time>2020-06-12T06:38:08Z</time>
      </trkpt>
      <trkpt lat="49.25518" lon="-1.63857">
        <ele>7.7</ele>
        <time>2020-06-12T06:38:09Z</time>
      </trkpt>
      <trkpt lat="49.25524" lon="-1.6386">
        <ele>7.7</ele>
        <time>2020-06-12T06:38:10Z</time>
      </trkpt>
      <trkpt lat="49.2553" lon="-1.63864">
        <ele>7.7</ele>
        <time>2020-06-12T06:38:11Z</time>
      </trkpt>
      <trkpt lat="49.25535" lon="-1.63867">
        <ele>7.6</ele>
        <time>2020-06-12T06:38:12Z</time>
      </trkpt>
      <trkpt lat="49.25541" lon="-1.63871">
        <ele>7.6</ele>
        <time>2020-06-12T06:38:13Z</time>
      </trkpt>
      <trkpt lat="49.25547" lon="-1.63874">
        <ele>7.6</ele>
        <time>2020-06-12T06:38:14Z</time>
      </trkpt>
      <trkpt lat="49.25553" lon="-1.63878">
        <ele>7.6</ele>
        <time>2020-06-12T06:38:15Z</time>
      </trkpt>
      <trkpt lat="49.25558" lon="-1.63882">
        <ele>7.6</ele>
        <time>2020-06-12T06:38:16Z</time>
      </trkpt>
      <trkpt lat="49.25564" lon="-1.63885">
        <ele>7.6</ele>
        <time>2020-06-12T06:38:17Z</time>
      </trkpt>
      <trkpt lat="49.2557" lon="-1.63889">
        <ele>7.6</ele>
        <time>2020-06-12T06:38:18Z</time>
      </trkpt>
      <trkpt lat="49.25576" lon="-1.63894">
        <ele>7.6</ele>
        <time>2020-06-12T06:38:19Z</time>
      </trkpt>
      <trkpt lat="49.25582" lon="-1.63898">
        <ele>7.6</ele>
        <time>2020-06-12T06:38:20Z</time>
      </trkpt>
      <trkpt lat="49.25588" lon="-1.63902">
        <ele>7.6</ele>
        <time>2020-06-12T06:38:21Z</time>
      </trkpt>
      <trkpt lat="49.25593" lon="-1.63905">
        <ele>7.6</ele>
        <time>2020-06-12T06:38:22Z</time>
      </trkpt>
      <trkpt lat="49.25598" lon="-1.63909">
        <ele>7.6</ele>
        <time>2020-06-12T06:38:23Z</time>
      </trkpt>
      <trkpt lat="49.25603" lon="-1.63913">
        <ele>7.6</ele>
        <time>2020-06-12T06:38:24Z</time>
      </trkpt>
      <trkpt lat="49.25609" lon="-1.63916">
        <ele>7.6</ele>
        <time>2020-06-12T06:38:25Z</time>
      </trkpt>
      <trkpt lat="49.25615" lon="-1.6392">
        <ele>7.6</ele>
        <time>2020-06-12T06:38:26Z</time>
      </trkpt>
      <trkpt lat="49.25621" lon="-1.63923">
        <ele>7.6</ele>
        <time>2020-06-12T06:38:27Z</time>
      </trkpt>
      <trkpt lat="49.25627" lon="-1.63927">
        <ele>7.7</ele>
        <time>2020-06-12T06:38:28Z</time>
      </trkpt>
      <trkpt lat="49.25634" lon="-1.63932">
        <ele>7.7</ele>
        <time>2020-06-12T06:38:29Z</time>
      </trkpt>
      <trkpt lat="49.2564" lon="-1.63937">
        <ele>7.7</ele>
        <time>2020-06-12T06:38:30Z</time>
      </trkpt>
      <trkpt lat="49.25646" lon="-1.6394">
        <ele>7.7</ele>
        <time>2020-06-12T06:38:31Z</time>
      </trkpt>
      <trkpt lat="49.25651" lon="-1.63943">
        <ele>7.7</ele>
        <time>2020-06-12T06:38:32Z</time>
      </trkpt>
      <trkpt lat="49.25656" lon="-1.63946">
        <ele>7.8</ele>
        <time>2020-06-12T06:38:33Z</time>
      </trkpt>
      <trkpt lat="49.25661" lon="-1.63949">
        <ele>7.8</ele>
        <time>2020-06-12T06:38:34Z</time>
      </trkpt>
      <trkpt lat="49.25666" lon="-1.63954">
        <ele>7.8</ele>
        <time>2020-06-12T06:38:35Z</time>
      </trkpt>
      <trkpt lat="49.25672" lon="-1.63957">
        <ele>7.8</ele>
        <time>2020-06-12T06:38:36Z</time>
      </trkpt>
      <trkpt lat="49.25678" lon="-1.63962">
        <ele>7.8</ele>
        <time>2020-06-12T06:38:37Z</time>
      </trkpt>
      <trkpt lat="49.25684" lon="-1.63967">
        <ele>7.9</ele>
        <time>2020-06-12T06:38:38Z</time>
      </trkpt>
      <trkpt lat="49.25689" lon="-1.6397">
        <ele>7.9</ele>
        <time>2020-06-12T06:38:39Z</time>
      </trkpt>
      <trkpt lat="49.25694" lon="-1.63974">
        <ele>7.9</ele>
        <time>2020-06-12T06:38:40Z</time>
      </trkpt>
      <trkpt lat="49.257" lon="-1.63978">
        <ele>8</ele>
        <time>2020-06-12T06:38:41Z</time>
      </trkpt>
      <trkpt lat="49.25706" lon="-1.63982">
        <ele>8</ele>
        <time>2020-06-12T06:38:42Z</time>
      </trkpt>
      <trkpt lat="49.25711" lon="-1.63985">
        <ele>8.1</ele>
        <time>2020-06-12T06:38:43Z</time>
      </trkpt>
      <trkpt lat="49.25716" lon="-1.6399">
        <ele>8.2</ele>
        <time>2020-06-12T06:38:44Z</time>
      </trkpt>
      <trkpt lat="49.25723" lon="-1.63994">
        <ele>8.4</ele>
        <time>2020-06-12T06:38:45Z</time>
      </trkpt>
      <trkpt lat="49.2573" lon="-1.64001">
        <ele>8.2</ele>
        <time>2020-06-12T06:38:46Z</time>
      </trkpt>
      <trkpt lat="49.25736" lon="-1.64006">
        <ele>8.2</ele>
        <time>2020-06-12T06:38:47Z</time>
      </trkpt>
      <trkpt lat="49.25742" lon="-1.6401">
        <ele>8.2</ele>
        <time>2020-06-12T06:38:48Z</time>
      </trkpt>
      <trkpt lat="49.25748" lon="-1.64014">
        <ele>8.2</ele>
        <time>2020-06-12T06:38:49Z</time>
      </trkpt>
      <trkpt lat="49.25753" lon="-1.64017">
        <ele>8.2</ele>
        <time>2020-06-12T06:38:50Z</time>
      </trkpt>
      <trkpt lat="49.25758" lon="-1.64021">
        <ele>8.2</ele>
        <time>2020-06-12T06:38:51Z</time>
      </trkpt>
      <trkpt lat="49.25764" lon="-1.64025">
        <ele>8.2</ele>
        <time>2020-06-12T06:38:52Z</time>
      </trkpt>
      <trkpt lat="49.25769" lon="-1.64027">
        <ele>8.2</ele>
        <time>2020-06-12T06:38:53Z</time>
      </trkpt>
      <trkpt lat="49.25776" lon="-1.64031">
        <ele>8.2</ele>
        <time>2020-06-12T06:38:54Z</time>
      </trkpt>
      <trkpt lat="49.25782" lon="-1.64034">
        <ele>8.2</ele>
        <time>2020-06-12T06:38:55Z</time>
      </trkpt>
      <trkpt lat="49.25787" lon="-1.64037">
        <ele>8.2</ele>
        <time>2020-06-12T06:38:56Z</time>
      </trkpt>
      <trkpt lat="49.25794" lon="-1.64042">
        <ele>8.2</ele>
        <time>2020-06-12T06:38:57Z</time>
      </trkpt>
      <trkpt lat="49.25799" lon="-1.64046">
        <ele>8.2</ele>
        <time>2020-06-12T06:38:58Z</time>
      </trkpt>
      <trkpt lat="49.25804" lon="-1.64051">
        <ele>8.2</ele>
        <time>2020-06-12T06:38:59Z</time>
      </trkpt>
      <trkpt lat="49.25809" lon="-1.64056">
        <ele>8.2</ele>
        <time>2020-06-12T06:39:00Z</time>
      </trkpt>
      <trkpt lat="49.25814" lon="-1.6406">
        <ele>8.2</ele>
        <time>2020-06-12T06:39:01Z</time>
      </trkpt>
      <trkpt lat="49.2582" lon="-1.64065">
        <ele>8.2</ele>
        <time>2020-06-12T06:39:02Z</time>
      </trkpt>
      <trkpt lat="49.25826" lon="-1.6407">
        <ele>8.2</ele>
        <time>2020-06-12T06:39:03Z</time>
      </trkpt>
      <trkpt lat="49.25831" lon="-1.64074">
        <ele>8.2</ele>
        <time>2020-06-12T06:39:04Z</time>
      </trkpt>
      <trkpt lat="49.25836" lon="-1.64079">
        <ele>8.2</ele>
        <time>2020-06-12T06:39:05Z</time>
      </trkpt>
      <trkpt lat="49.25841" lon="-1.64084">
        <ele>8.3</ele>
        <time>2020-06-12T06:39:06Z</time>
      </trkpt>
      <trkpt lat="49.25847" lon="-1.64088">
        <ele>8.3</ele>
        <time>2020-06-12T06:39:07Z</time>
      </trkpt>
      <trkpt lat="49.25854" lon="-1.64094">
        <ele>8.4</ele>
        <time>2020-06-12T06:39:08Z</time>
      </trkpt>
      <trkpt lat="49.25861" lon="-1.64099">
        <ele>8.4</ele>
        <time>2020-06-12T06:39:09Z</time>
      </trkpt>
      <trkpt lat="49.25868" lon="-1.64103">
        <ele>8.4</ele>
        <time>2020-06-12T06:39:10Z</time>
      </trkpt>
      <trkpt lat="49.25873" lon="-1.64107">
        <ele>8.4</ele>
        <time>2020-06-12T06:39:11Z</time>
      </trkpt>
      <trkpt lat="49.25878" lon="-1.64111">
        <ele>8.3</ele>
        <time>2020-06-12T06:39:12Z</time>
      </trkpt>
      <trkpt lat="49.25884" lon="-1.64115">
        <ele>8.3</ele>
        <time>2020-06-12T06:39:13Z</time>
      </trkpt>
      <trkpt lat="49.25889" lon="-1.6412">
        <ele>8.2</ele>
        <time>2020-06-12T06:39:14Z</time>
      </trkpt>
      <trkpt lat="49.25895" lon="-1.64124">
        <ele>8.1</ele>
        <time>2020-06-12T06:39:15Z</time>
      </trkpt>
      <trkpt lat="49.259" lon="-1.64128">
        <ele>8.1</ele>
        <time>2020-06-12T06:39:16Z</time>
      </trkpt>
      <trkpt lat="49.25906" lon="-1.64133">
        <ele>8.1</ele>
        <time>2020-06-12T06:39:17Z</time>
      </trkpt>
      <trkpt lat="49.25912" lon="-1.64139">
        <ele>8.1</ele>
        <time>2020-06-12T06:39:18Z</time>
      </trkpt>
      <trkpt lat="49.25918" lon="-1.64143">
        <ele>8</ele>
        <time>2020-06-12T06:39:19Z</time>
      </trkpt>
      <trkpt lat="49.25923" lon="-1.64148">
        <ele>8</ele>
        <time>2020-06-12T06:39:20Z</time>
      </trkpt>
      <trkpt lat="49.25929" lon="-1.64154">
        <ele>8</ele>
        <time>2020-06-12T06:39:21Z</time>
      </trkpt>
      <trkpt lat="49.25935" lon="-1.64158">
        <ele>8.1</ele>
        <time>2020-06-12T06:39:22Z</time>
      </trkpt>
      <trkpt lat="49.2594" lon="-1.64162">
        <ele>8.1</ele>
        <time>2020-06-12T06:39:23Z</time>
      </trkpt>
      <trkpt lat="49.25946" lon="-1.64167">
        <ele>8.2</ele>
        <time>2020-06-12T06:39:24Z</time>
      </trkpt>
      <trkpt lat="49.25951" lon="-1.64172">
        <ele>8.1</ele>
        <time>2020-06-12T06:39:25Z</time>
      </trkpt>
      <trkpt lat="49.25957" lon="-1.64178">
        <ele>8.1</ele>
        <time>2020-06-12T06:39:26Z</time>
      </trkpt>
      <trkpt lat="49.25962" lon="-1.64183">
        <ele>8.1</ele>
        <time>2020-06-12T06:39:27Z</time>
      </trkpt>
      <trkpt lat="49.25968" lon="-1.64187">
        <ele>8</ele>
        <time>2020-06-12T06:39:28Z</time>
      </trkpt>
      <trkpt lat="49.25973" lon="-1.64193">
        <ele>8</ele>
        <time>2020-06-12T06:39:29Z</time>
      </trkpt>
      <trkpt lat="49.25979" lon="-1.64197">
        <ele>7.9</ele>
        <time>2020-06-12T06:39:30Z</time>
      </trkpt>
      <trkpt lat="49.25985" lon="-1.64202">
        <ele>7.9</ele>
        <time>2020-06-12T06:39:31Z</time>
      </trkpt>
      <trkpt lat="49.25991" lon="-1.64208">
        <ele>7.8</ele>
        <time>2020-06-12T06:39:32Z</time>
      </trkpt>
      <trkpt lat="49.25996" lon="-1.64213">
        <ele>7.8</ele>
        <time>2020-06-12T06:39:33Z</time>
      </trkpt>
      <trkpt lat="49.26002" lon="-1.64218">
        <ele>7.7</ele>
        <time>2020-06-12T06:39:34Z</time>
      </trkpt>
      <trkpt lat="49.26007" lon="-1.64222">
        <ele>7.7</ele>
        <time>2020-06-12T06:39:35Z</time>
      </trkpt>
      <trkpt lat="49.26013" lon="-1.64228">
        <ele>7.7</ele>
        <time>2020-06-12T06:39:36Z</time>
      </trkpt>
      <trkpt lat="49.26019" lon="-1.64235">
        <ele>7.7</ele>
        <time>2020-06-12T06:39:37Z</time>
      </trkpt>
      <trkpt lat="49.26024" lon="-1.6424">
        <ele>7.7</ele>
        <time>2020-06-12T06:39:38Z</time>
      </trkpt>
      <trkpt lat="49.26029" lon="-1.64244">
        <ele>7.7</ele>
        <time>2020-06-12T06:39:39Z</time>
      </trkpt>
      <trkpt lat="49.26036" lon="-1.6425">
        <ele>7.7</ele>
        <time>2020-06-12T06:39:40Z</time>
      </trkpt>
      <trkpt lat="49.26042" lon="-1.64255">
        <ele>7.7</ele>
        <time>2020-06-12T06:39:41Z</time>
      </trkpt>
      <trkpt lat="49.26048" lon="-1.6426">
        <ele>7.6</ele>
        <time>2020-06-12T06:39:42Z</time>
      </trkpt>
      <trkpt lat="49.26055" lon="-1.64264">
        <ele>7.6</ele>
        <time>2020-06-12T06:39:43Z</time>
      </trkpt>
      <trkpt lat="49.26061" lon="-1.6427">
        <ele>7.6</ele>
        <time>2020-06-12T06:39:44Z</time>
      </trkpt>
      <trkpt lat="49.26066" lon="-1.64274">
        <ele>7.5</ele>
        <time>2020-06-12T06:39:45Z</time>
      </trkpt>
      <trkpt lat="49.26072" lon="-1.6428">
        <ele>7.5</ele>
        <time>2020-06-12T06:39:46Z</time>
      </trkpt>
      <trkpt lat="49.26077" lon="-1.64285">
        <ele>7.4</ele>
        <time>2020-06-12T06:39:47Z</time>
      </trkpt>
      <trkpt lat="49.26082" lon="-1.64291">
        <ele>7.4</ele>
        <time>2020-06-12T06:39:48Z</time>
      </trkpt>
      <trkpt lat="49.2609" lon="-1.64295">
        <ele>7.4</ele>
        <time>2020-06-12T06:39:49Z</time>
      </trkpt>
      <trkpt lat="49.26095" lon="-1.64299">
        <ele>7.3</ele>
        <time>2020-06-12T06:39:50Z</time>
      </trkpt>
      <trkpt lat="49.261" lon="-1.64302">
        <ele>7.3</ele>
        <time>2020-06-12T06:39:51Z</time>
      </trkpt>
      <trkpt lat="49.26105" lon="-1.64307">
        <ele>7.3</ele>
        <time>2020-06-12T06:39:52Z</time>
      </trkpt>
      <trkpt lat="49.2611" lon="-1.6431">
        <ele>7.3</ele>
        <time>2020-06-12T06:39:53Z</time>
      </trkpt>
      <trkpt lat="49.26115" lon="-1.64316">
        <ele>7.3</ele>
        <time>2020-06-12T06:39:54Z</time>
      </trkpt>
      <trkpt lat="49.26121" lon="-1.64321">
        <ele>7.4</ele>
        <time>2020-06-12T06:39:55Z</time>
      </trkpt>
      <trkpt lat="49.26125" lon="-1.64327">
        <ele>7.4</ele>
        <time>2020-06-12T06:39:56Z</time>
      </trkpt>
      <trkpt lat="49.26132" lon="-1.6433">
        <ele>7.5</ele>
        <time>2020-06-12T06:39:57Z</time>
      </trkpt>
      <trkpt lat="49.26138" lon="-1.64335">
        <ele>7.3</ele>
        <time>2020-06-12T06:39:58Z</time>
      </trkpt>
      <trkpt lat="49.26144" lon="-1.64339">
        <ele>7.1</ele>
        <time>2020-06-12T06:39:59Z</time>
      </trkpt>
      <trkpt lat="49.26149" lon="-1.64345">
        <ele>7</ele>
        <time>2020-06-12T06:40:00Z</time>
      </trkpt>
      <trkpt lat="49.26154" lon="-1.64351">
        <ele>6.9</ele>
        <time>2020-06-12T06:40:01Z</time>
      </trkpt>
      <trkpt lat="49.2616" lon="-1.64355">
        <ele>6.8</ele>
        <time>2020-06-12T06:40:02Z</time>
      </trkpt>
      <trkpt lat="49.26164" lon="-1.64359">
        <ele>6.8</ele>
        <time>2020-06-12T06:40:03Z</time>
      </trkpt>
      <trkpt lat="49.2617" lon="-1.64364">
        <ele>6.8</ele>
        <time>2020-06-12T06:40:04Z</time>
      </trkpt>
      <trkpt lat="49.26175" lon="-1.64369">
        <ele>6.8</ele>
        <time>2020-06-12T06:40:05Z</time>
      </trkpt>
      <trkpt lat="49.2618" lon="-1.64374">
        <ele>6.9</ele>
        <time>2020-06-12T06:40:06Z</time>
      </trkpt>
      <trkpt lat="49.26185" lon="-1.64378">
        <ele>6.9</ele>
        <time>2020-06-12T06:40:07Z</time>
      </trkpt>
      <trkpt lat="49.2619" lon="-1.64383">
        <ele>6.9</ele>
        <time>2020-06-12T06:40:08Z</time>
      </trkpt>
      <trkpt lat="49.26196" lon="-1.64388">
        <ele>6.9</ele>
        <time>2020-06-12T06:40:09Z</time>
      </trkpt>
      <trkpt lat="49.26201" lon="-1.64392">
        <ele>6.9</ele>
        <time>2020-06-12T06:40:10Z</time>
      </trkpt>
      <trkpt lat="49.26208" lon="-1.64396">
        <ele>7</ele>
        <time>2020-06-12T06:40:11Z</time>
      </trkpt>
      <trkpt lat="49.26214" lon="-1.644">
        <ele>7</ele>
        <time>2020-06-12T06:40:12Z</time>
      </trkpt>
      <trkpt lat="49.26219" lon="-1.64404">
        <ele>7</ele>
        <time>2020-06-12T06:40:13Z</time>
      </trkpt>
      <trkpt lat="49.26224" lon="-1.64409">
        <ele>7.1</ele>
        <time>2020-06-12T06:40:14Z</time>
      </trkpt>
      <trkpt lat="49.26229" lon="-1.64413">
        <ele>7.1</ele>
        <time>2020-06-12T06:40:15Z</time>
      </trkpt>
      <trkpt lat="49.26235" lon="-1.64418">
        <ele>7.2</ele>
        <time>2020-06-12T06:40:16Z</time>
      </trkpt>
      <trkpt lat="49.2624" lon="-1.64423">
        <ele>7.2</ele>
        <time>2020-06-12T06:40:17Z</time>
      </trkpt>
      <trkpt lat="49.26245" lon="-1.64427">
        <ele>7.3</ele>
        <time>2020-06-12T06:40:18Z</time>
      </trkpt>
      <trkpt lat="49.26251" lon="-1.64433">
        <ele>7.3</ele>
        <time>2020-06-12T06:40:19Z</time>
      </trkpt>
      <trkpt lat="49.26256" lon="-1.64436">
        <ele>7.3</ele>
        <time>2020-06-12T06:40:20Z</time>
      </trkpt>
      <trkpt lat="49.26261" lon="-1.6444">
        <ele>7.4</ele>
        <time>2020-06-12T06:40:21Z</time>
      </trkpt>
      <trkpt lat="49.26267" lon="-1.64444">
        <ele>7.4</ele>
        <time>2020-06-12T06:40:22Z</time>
      </trkpt>
      <trkpt lat="49.26272" lon="-1.64449">
        <ele>7.4</ele>
        <time>2020-06-12T06:40:23Z</time>
      </trkpt>
      <trkpt lat="49.26277" lon="-1.64454">
        <ele>7.5</ele>
        <time>2020-06-12T06:40:24Z</time>
      </trkpt>
      <trkpt lat="49.26283" lon="-1.64458">
        <ele>7.5</ele>
        <time>2020-06-12T06:40:25Z</time>
      </trkpt>
      <trkpt lat="49.26288" lon="-1.64462">
        <ele>7.5</ele>
        <time>2020-06-12T06:40:26Z</time>
      </trkpt>
      <trkpt lat="49.26293" lon="-1.64467">
        <ele>7.5</ele>
        <time>2020-06-12T06:40:27Z</time>
      </trkpt>
      <trkpt lat="49.26298" lon="-1.64472">
        <ele>7.5</ele>
        <time>2020-06-12T06:40:28Z</time>
      </trkpt>
      <trkpt lat="49.26303" lon="-1.64477">
        <ele>7.6</ele>
        <time>2020-06-12T06:40:29Z</time>
      </trkpt>
      <trkpt lat="49.26308" lon="-1.64482">
        <ele>7.6</ele>
        <time>2020-06-12T06:40:30Z</time>
      </trkpt>
      <trkpt lat="49.26313" lon="-1.64487">
        <ele>7.6</ele>
        <time>2020-06-12T06:40:31Z</time>
      </trkpt>
      <trkpt lat="49.26319" lon="-1.64492">
        <ele>7.6</ele>
        <time>2020-06-12T06:40:32Z</time>
      </trkpt>
      <trkpt lat="49.26324" lon="-1.64497">
        <ele>7.6</ele>
        <time>2020-06-12T06:40:33Z</time>
      </trkpt>
      <trkpt lat="49.26331" lon="-1.64503">
        <ele>7.6</ele>
        <time>2020-06-12T06:40:34Z</time>
      </trkpt>
      <trkpt lat="49.26338" lon="-1.64507">
        <ele>7.6</ele>
        <time>2020-06-12T06:40:35Z</time>
      </trkpt>
      <trkpt lat="49.26343" lon="-1.64512">
        <ele>7.6</ele>
        <time>2020-06-12T06:40:36Z</time>
      </trkpt>
      <trkpt lat="49.26347" lon="-1.64518">
        <ele>7.6</ele>
        <time>2020-06-12T06:40:37Z</time>
      </trkpt>
      <trkpt lat="49.26353" lon="-1.64522">
        <ele>7.6</ele>
        <time>2020-06-12T06:40:38Z</time>
      </trkpt>
      <trkpt lat="49.26358" lon="-1.64528">
        <ele>7.7</ele>
        <time>2020-06-12T06:40:39Z</time>
      </trkpt>
      <trkpt lat="49.26364" lon="-1.64533">
        <ele>7.7</ele>
        <time>2020-06-12T06:40:40Z</time>
      </trkpt>
      <trkpt lat="49.26371" lon="-1.64537">
        <ele>7.8</ele>
        <time>2020-06-12T06:40:41Z</time>
      </trkpt>
      <trkpt lat="49.26375" lon="-1.6454">
        <ele>7.8</ele>
        <time>2020-06-12T06:40:42Z</time>
      </trkpt>
      <trkpt lat="49.26379" lon="-1.64545">
        <ele>7.9</ele>
        <time>2020-06-12T06:40:43Z</time>
      </trkpt>
      <trkpt lat="49.26384" lon="-1.64549">
        <ele>8</ele>
        <time>2020-06-12T06:40:44Z</time>
      </trkpt>
      <trkpt lat="49.2639" lon="-1.64555">
        <ele>8.2</ele>
        <time>2020-06-12T06:40:45Z</time>
      </trkpt>
      <trkpt lat="49.26396" lon="-1.6456">
        <ele>8.1</ele>
        <time>2020-06-12T06:40:46Z</time>
      </trkpt>
      <trkpt lat="49.26401" lon="-1.64564">
        <ele>8.1</ele>
        <time>2020-06-12T06:40:47Z</time>
      </trkpt>
      <trkpt lat="49.26407" lon="-1.6457">
        <ele>8.1</ele>
        <time>2020-06-12T06:40:48Z</time>
      </trkpt>
      <trkpt lat="49.26412" lon="-1.64575">
        <ele>8</ele>
        <time>2020-06-12T06:40:49Z</time>
      </trkpt>
      <trkpt lat="49.26419" lon="-1.64579">
        <ele>8</ele>
        <time>2020-06-12T06:40:50Z</time>
      </trkpt>
      <trkpt lat="49.26424" lon="-1.64584">
        <ele>8</ele>
        <time>2020-06-12T06:40:51Z</time>
      </trkpt>
      <trkpt lat="49.26429" lon="-1.64588">
        <ele>8</ele>
        <time>2020-06-12T06:40:52Z</time>
      </trkpt>
      <trkpt lat="49.26434" lon="-1.64592">
        <ele>8</ele>
        <time>2020-06-12T06:40:53Z</time>
      </trkpt>
      <trkpt lat="49.2644" lon="-1.64596">
        <ele>8</ele>
        <time>2020-06-12T06:40:54Z</time>
      </trkpt>
      <trkpt lat="49.26445" lon="-1.64601">
        <ele>8</ele>
        <time>2020-06-12T06:40:55Z</time>
      </trkpt>
      <trkpt lat="49.26451" lon="-1.64605">
        <ele>8</ele>
        <time>2020-06-12T06:40:56Z</time>
      </trkpt>
      <trkpt lat="49.26456" lon="-1.6461">
        <ele>7.9</ele>
        <time>2020-06-12T06:40:57Z</time>
      </trkpt>
      <trkpt lat="49.26462" lon="-1.64615">
        <ele>7.9</ele>
        <time>2020-06-12T06:40:58Z</time>
      </trkpt>
      <trkpt lat="49.26468" lon="-1.6462">
        <ele>7.9</ele>
        <time>2020-06-12T06:40:59Z</time>
      </trkpt>
      <trkpt lat="49.26473" lon="-1.64624">
        <ele>7.8</ele>
        <time>2020-06-12T06:41:00Z</time>
      </trkpt>
      <trkpt lat="49.26479" lon="-1.64628">
        <ele>7.8</ele>
        <time>2020-06-12T06:41:01Z</time>
      </trkpt>
      <trkpt lat="49.26484" lon="-1.64633">
        <ele>7.8</ele>
        <time>2020-06-12T06:41:02Z</time>
      </trkpt>
      <trkpt lat="49.2649" lon="-1.64638">
        <ele>7.7</ele>
        <time>2020-06-12T06:41:03Z</time>
      </trkpt>
      <trkpt lat="49.26495" lon="-1.64643">
        <ele>7.7</ele>
        <time>2020-06-12T06:41:04Z</time>
      </trkpt>
      <trkpt lat="49.26501" lon="-1.64647">
        <ele>7.6</ele>
        <time>2020-06-12T06:41:05Z</time>
      </trkpt>
      <trkpt lat="49.26506" lon="-1.64652">
        <ele>7.6</ele>
        <time>2020-06-12T06:41:06Z</time>
      </trkpt>
      <trkpt lat="49.26511" lon="-1.64656">
        <ele>7.6</ele>
        <time>2020-06-12T06:41:07Z</time>
      </trkpt>
      <trkpt lat="49.26517" lon="-1.64661">
        <ele>7.5</ele>
        <time>2020-06-12T06:41:08Z</time>
      </trkpt>
      <trkpt lat="49.26522" lon="-1.64665">
        <ele>7.5</ele>
        <time>2020-06-12T06:41:09Z</time>
      </trkpt>
      <trkpt lat="49.26528" lon="-1.6467">
        <ele>7.4</ele>
        <time>2020-06-12T06:41:10Z</time>
      </trkpt>
      <trkpt lat="49.26534" lon="-1.64675">
        <ele>7.4</ele>
        <time>2020-06-12T06:41:11Z</time>
      </trkpt>
      <trkpt lat="49.2654" lon="-1.6468">
        <ele>7.4</ele>
        <time>2020-06-12T06:41:12Z</time>
      </trkpt>
      <trkpt lat="49.26545" lon="-1.64685">
        <ele>7.5</ele>
        <time>2020-06-12T06:41:13Z</time>
      </trkpt>
      <trkpt lat="49.26551" lon="-1.6469">
        <ele>7.6</ele>
        <time>2020-06-12T06:41:14Z</time>
      </trkpt>
      <trkpt lat="49.26556" lon="-1.64696">
        <ele>7.6</ele>
        <time>2020-06-12T06:41:15Z</time>
      </trkpt>
      <trkpt lat="49.26562" lon="-1.64701">
        <ele>7.5</ele>
        <time>2020-06-12T06:41:16Z</time>
      </trkpt>
      <trkpt lat="49.26566" lon="-1.64703">
        <ele>7.4</ele>
        <time>2020-06-12T06:41:17Z</time>
      </trkpt>
      <trkpt lat="49.26572" lon="-1.64707">
        <ele>7.4</ele>
        <time>2020-06-12T06:41:18Z</time>
      </trkpt>
      <trkpt lat="49.26578" lon="-1.64713">
        <ele>7.3</ele>
        <time>2020-06-12T06:41:19Z</time>
      </trkpt>
      <trkpt lat="49.26583" lon="-1.64718">
        <ele>7.3</ele>
        <time>2020-06-12T06:41:20Z</time>
      </trkpt>
      <trkpt lat="49.26589" lon="-1.64723">
        <ele>7.3</ele>
        <time>2020-06-12T06:41:21Z</time>
      </trkpt>
      <trkpt lat="49.26595" lon="-1.64728">
        <ele>7.2</ele>
        <time>2020-06-12T06:41:22Z</time>
      </trkpt>
      <trkpt lat="49.266" lon="-1.64733">
        <ele>7.2</ele>
        <time>2020-06-12T06:41:23Z</time>
      </trkpt>
      <trkpt lat="49.26605" lon="-1.64738">
        <ele>7.2</ele>
        <time>2020-06-12T06:41:24Z</time>
      </trkpt>
      <trkpt lat="49.26611" lon="-1.64742">
        <ele>7.2</ele>
        <time>2020-06-12T06:41:25Z</time>
      </trkpt>
      <trkpt lat="49.26617" lon="-1.64747">
        <ele>7.2</ele>
        <time>2020-06-12T06:41:26Z</time>
      </trkpt>
      <trkpt lat="49.26622" lon="-1.64752">
        <ele>7.2</ele>
        <time>2020-06-12T06:41:27Z</time>
      </trkpt>
      <trkpt lat="49.26628" lon="-1.64757">
        <ele>7.1</ele>
        <time>2020-06-12T06:41:28Z</time>
      </trkpt>
      <trkpt lat="49.26633" lon="-1.64762">
        <ele>7.1</ele>
        <time>2020-06-12T06:41:29Z</time>
      </trkpt>
      <trkpt lat="49.26639" lon="-1.64766">
        <ele>7.1</ele>
        <time>2020-06-12T06:41:30Z</time>
      </trkpt>
      <trkpt lat="49.26645" lon="-1.64771">
        <ele>7.1</ele>
        <time>2020-06-12T06:41:31Z</time>
      </trkpt>
      <trkpt lat="49.26651" lon="-1.64776">
        <ele>7.2</ele>
        <time>2020-06-12T06:41:32Z</time>
      </trkpt>
      <trkpt lat="49.26657" lon="-1.64781">
        <ele>7.2</ele>
        <time>2020-06-12T06:41:33Z</time>
      </trkpt>
      <trkpt lat="49.26663" lon="-1.64786">
        <ele>7.2</ele>
        <time>2020-06-12T06:41:34Z</time>
      </trkpt>
      <trkpt lat="49.26669" lon="-1.64791">
        <ele>7.2</ele>
        <time>2020-06-12T06:41:35Z</time>
      </trkpt>
      <trkpt lat="49.26674" lon="-1.64796">
        <ele>7.2</ele>
        <time>2020-06-12T06:41:36Z</time>
      </trkpt>
      <trkpt lat="49.2668" lon="-1.64801">
        <ele>7.2</ele>
        <time>2020-06-12T06:41:37Z</time>
      </trkpt>
      <trkpt lat="49.26686" lon="-1.64805">
        <ele>7.3</ele>
        <time>2020-06-12T06:41:38Z</time>
      </trkpt>
      <trkpt lat="49.26691" lon="-1.6481">
        <ele>7.3</ele>
        <time>2020-06-12T06:41:39Z</time>
      </trkpt>
      <trkpt lat="49.26697" lon="-1.64815">
        <ele>7.2</ele>
        <time>2020-06-12T06:41:40Z</time>
      </trkpt>
      <trkpt lat="49.26703" lon="-1.64819">
        <ele>7.1</ele>
        <time>2020-06-12T06:41:41Z</time>
      </trkpt>
      <trkpt lat="49.26708" lon="-1.64824">
        <ele>7.1</ele>
        <time>2020-06-12T06:41:42Z</time>
      </trkpt>
      <trkpt lat="49.26714" lon="-1.64829">
        <ele>7</ele>
        <time>2020-06-12T06:41:43Z</time>
      </trkpt>
      <trkpt lat="49.26719" lon="-1.64833">
        <ele>7</ele>
        <time>2020-06-12T06:41:44Z</time>
      </trkpt>
      <trkpt lat="49.26725" lon="-1.64838">
        <ele>6.9</ele>
        <time>2020-06-12T06:41:45Z</time>
      </trkpt>
      <trkpt lat="49.2673" lon="-1.64842">
        <ele>6.9</ele>
        <time>2020-06-12T06:41:46Z</time>
      </trkpt>
      <trkpt lat="49.26736" lon="-1.64847">
        <ele>6.9</ele>
        <time>2020-06-12T06:41:47Z</time>
      </trkpt>
      <trkpt lat="49.26742" lon="-1.64851">
        <ele>6.9</ele>
        <time>2020-06-12T06:41:48Z</time>
      </trkpt>
      <trkpt lat="49.26747" lon="-1.64856">
        <ele>6.9</ele>
        <time>2020-06-12T06:41:49Z</time>
      </trkpt>
      <trkpt lat="49.26753" lon="-1.6486">
        <ele>6.8</ele>
        <time>2020-06-12T06:41:50Z</time>
      </trkpt>
      <trkpt lat="49.26759" lon="-1.64864">
        <ele>6.8</ele>
        <time>2020-06-12T06:41:51Z</time>
      </trkpt>
      <trkpt lat="49.26766" lon="-1.64868">
        <ele>6.7</ele>
        <time>2020-06-12T06:41:52Z</time>
      </trkpt>
      <trkpt lat="49.26772" lon="-1.64872">
        <ele>6.7</ele>
        <time>2020-06-12T06:41:53Z</time>
      </trkpt>
      <trkpt lat="49.26777" lon="-1.64876">
        <ele>6.7</ele>
        <time>2020-06-12T06:41:54Z</time>
      </trkpt>
      <trkpt lat="49.26783" lon="-1.6488">
        <ele>6.6</ele>
        <time>2020-06-12T06:41:55Z</time>
      </trkpt>
      <trkpt lat="49.26788" lon="-1.64884">
        <ele>6.6</ele>
        <time>2020-06-12T06:41:56Z</time>
      </trkpt>
      <trkpt lat="49.26794" lon="-1.64888">
        <ele>6.6</ele>
        <time>2020-06-12T06:41:57Z</time>
      </trkpt>
      <trkpt lat="49.268" lon="-1.64893">
        <ele>6.7</ele>
        <time>2020-06-12T06:41:58Z</time>
      </trkpt>
      <trkpt lat="49.26807" lon="-1.64899">
        <ele>6.7</ele>
        <time>2020-06-12T06:41:59Z</time>
      </trkpt>
      <trkpt lat="49.26812" lon="-1.64903">
        <ele>6.7</ele>
        <time>2020-06-12T06:42:00Z</time>
      </trkpt>
      <trkpt lat="49.26817" lon="-1.64906">
        <ele>6.8</ele>
        <time>2020-06-12T06:42:01Z</time>
      </trkpt>
      <trkpt lat="49.26822" lon="-1.64911">
        <ele>6.7</ele>
        <time>2020-06-12T06:42:02Z</time>
      </trkpt>
      <trkpt lat="49.26827" lon="-1.64915">
        <ele>6.6</ele>
        <time>2020-06-12T06:42:03Z</time>
      </trkpt>
      <trkpt lat="49.26832" lon="-1.6492">
        <ele>6.5</ele>
        <time>2020-06-12T06:42:04Z</time>
      </trkpt>
      <trkpt lat="49.26839" lon="-1.64924">
        <ele>6.4</ele>
        <time>2020-06-12T06:42:05Z</time>
      </trkpt>
      <trkpt lat="49.26844" lon="-1.64928">
        <ele>6.4</ele>
        <time>2020-06-12T06:42:06Z</time>
      </trkpt>
      <trkpt lat="49.26851" lon="-1.64932">
        <ele>6.3</ele>
        <time>2020-06-12T06:42:07Z</time>
      </trkpt>
      <trkpt lat="49.26856" lon="-1.64936">
        <ele>6.3</ele>
        <time>2020-06-12T06:42:08Z</time>
      </trkpt>
      <trkpt lat="49.26862" lon="-1.6494">
        <ele>6.3</ele>
        <time>2020-06-12T06:42:09Z</time>
      </trkpt>
      <trkpt lat="49.26867" lon="-1.64944">
        <ele>6.3</ele>
        <time>2020-06-12T06:42:10Z</time>
      </trkpt>
      <trkpt lat="49.26873" lon="-1.64947">
        <ele>6.3</ele>
        <time>2020-06-12T06:42:11Z</time>
      </trkpt>
      <trkpt lat="49.26879" lon="-1.64951">
        <ele>6.3</ele>
        <time>2020-06-12T06:42:12Z</time>
      </trkpt>
      <trkpt lat="49.26886" lon="-1.64954">
        <ele>6.3</ele>
        <time>2020-06-12T06:42:13Z</time>
      </trkpt>
      <trkpt lat="49.26892" lon="-1.64958">
        <ele>6.3</ele>
        <time>2020-06-12T06:42:14Z</time>
      </trkpt>
      <trkpt lat="49.26898" lon="-1.64961">
        <ele>6.4</ele>
        <time>2020-06-12T06:42:15Z</time>
      </trkpt>
      <trkpt lat="49.26903" lon="-1.64965">
        <ele>6.4</ele>
        <time>2020-06-12T06:42:16Z</time>
      </trkpt>
      <trkpt lat="49.26908" lon="-1.6497">
        <ele>6.5</ele>
        <time>2020-06-12T06:42:17Z</time>
      </trkpt>
      <trkpt lat="49.26914" lon="-1.64973">
        <ele>6.6</ele>
        <time>2020-06-12T06:42:18Z</time>
      </trkpt>
      <trkpt lat="49.2692" lon="-1.64977">
        <ele>6.6</ele>
        <time>2020-06-12T06:42:19Z</time>
      </trkpt>
      <trkpt lat="49.26926" lon="-1.6498">
        <ele>6.5</ele>
        <time>2020-06-12T06:42:20Z</time>
      </trkpt>
      <trkpt lat="49.26932" lon="-1.64985">
        <ele>6.5</ele>
        <time>2020-06-12T06:42:21Z</time>
      </trkpt>
      <trkpt lat="49.26936" lon="-1.64989">
        <ele>6.5</ele>
        <time>2020-06-12T06:42:22Z</time>
      </trkpt>
      <trkpt lat="49.26942" lon="-1.64993">
        <ele>6.5</ele>
        <time>2020-06-12T06:42:23Z</time>
      </trkpt>
      <trkpt lat="49.26949" lon="-1.64997">
        <ele>6.5</ele>
        <time>2020-06-12T06:42:24Z</time>
      </trkpt>
      <trkpt lat="49.26955" lon="-1.65001">
        <ele>6.5</ele>
        <time>2020-06-12T06:42:25Z</time>
      </trkpt>
      <trkpt lat="49.2696" lon="-1.65005">
        <ele>6.6</ele>
        <time>2020-06-12T06:42:26Z</time>
      </trkpt>
      <trkpt lat="49.26965" lon="-1.65009">
        <ele>6.6</ele>
        <time>2020-06-12T06:42:27Z</time>
      </trkpt>
      <trkpt lat="49.26971" lon="-1.65012">
        <ele>6.6</ele>
        <time>2020-06-12T06:42:28Z</time>
      </trkpt>
      <trkpt lat="49.26976" lon="-1.65017">
        <ele>6.7</ele>
        <time>2020-06-12T06:42:29Z</time>
      </trkpt>
      <trkpt lat="49.26981" lon="-1.6502">
        <ele>6.7</ele>
        <time>2020-06-12T06:42:30Z</time>
      </trkpt>
      <trkpt lat="49.26986" lon="-1.65024">
        <ele>6.7</ele>
        <time>2020-06-12T06:42:31Z</time>
      </trkpt>
      <trkpt lat="49.26992" lon="-1.65027">
        <ele>6.7</ele>
        <time>2020-06-12T06:42:32Z</time>
      </trkpt>
      <trkpt lat="49.26997" lon="-1.65032">
        <ele>6.7</ele>
        <time>2020-06-12T06:42:33Z</time>
      </trkpt>
      <trkpt lat="49.27004" lon="-1.65036">
        <ele>6.7</ele>
        <time>2020-06-12T06:42:34Z</time>
      </trkpt>
      <trkpt lat="49.2701" lon="-1.65041">
        <ele>6.7</ele>
        <time>2020-06-12T06:42:35Z</time>
      </trkpt>
      <trkpt lat="49.27015" lon="-1.65045">
        <ele>6.7</ele>
        <time>2020-06-12T06:42:36Z</time>
      </trkpt>
      <trkpt lat="49.2702" lon="-1.65049">
        <ele>6.7</ele>
        <time>2020-06-12T06:42:37Z</time>
      </trkpt>
      <trkpt lat="49.27026" lon="-1.65054">
        <ele>6.7</ele>
        <time>2020-06-12T06:42:38Z</time>
      </trkpt>
      <trkpt lat="49.27032" lon="-1.65058">
        <ele>6.7</ele>
        <time>2020-06-12T06:42:39Z</time>
      </trkpt>
      <trkpt lat="49.27038" lon="-1.65063">
        <ele>6.7</ele>
        <time>2020-06-12T06:42:40Z</time>
      </trkpt>
      <trkpt lat="49.27044" lon="-1.65068">
        <ele>6.7</ele>
        <time>2020-06-12T06:42:41Z</time>
      </trkpt>
      <trkpt lat="49.2705" lon="-1.65072">
        <ele>6.7</ele>
        <time>2020-06-12T06:42:42Z</time>
      </trkpt>
      <trkpt lat="49.27056" lon="-1.65077">
        <ele>6.8</ele>
        <time>2020-06-12T06:42:43Z</time>
      </trkpt>
      <trkpt lat="49.27061" lon="-1.65081">
        <ele>6.8</ele>
        <time>2020-06-12T06:42:44Z</time>
      </trkpt>
      <trkpt lat="49.27066" lon="-1.65085">
        <ele>6.8</ele>
        <time>2020-06-12T06:42:45Z</time>
      </trkpt>
      <trkpt lat="49.27072" lon="-1.6509">
        <ele>6.9</ele>
        <time>2020-06-12T06:42:46Z</time>
      </trkpt>
      <trkpt lat="49.27077" lon="-1.65095">
        <ele>7</ele>
        <time>2020-06-12T06:42:47Z</time>
      </trkpt>
      <trkpt lat="49.27083" lon="-1.65099">
        <ele>7.1</ele>
        <time>2020-06-12T06:42:48Z</time>
      </trkpt>
      <trkpt lat="49.27088" lon="-1.65104">
        <ele>7.2</ele>
        <time>2020-06-12T06:42:49Z</time>
      </trkpt>
      <trkpt lat="49.27093" lon="-1.65109">
        <ele>7.3</ele>
        <time>2020-06-12T06:42:50Z</time>
      </trkpt>
      <trkpt lat="49.27098" lon="-1.65114">
        <ele>7.2</ele>
        <time>2020-06-12T06:42:51Z</time>
      </trkpt>
      <trkpt lat="49.27103" lon="-1.65119">
        <ele>7.2</ele>
        <time>2020-06-12T06:42:52Z</time>
      </trkpt>
      <trkpt lat="49.27108" lon="-1.65123">
        <ele>7.2</ele>
        <time>2020-06-12T06:42:53Z</time>
      </trkpt>
      <trkpt lat="49.27113" lon="-1.65127">
        <ele>7.2</ele>
        <time>2020-06-12T06:42:54Z</time>
      </trkpt>
      <trkpt lat="49.27118" lon="-1.65132">
        <ele>7.2</ele>
        <time>2020-06-12T06:42:55Z</time>
      </trkpt>
      <trkpt lat="49.27124" lon="-1.65136">
        <ele>7.2</ele>
        <time>2020-06-12T06:42:56Z</time>
      </trkpt>
      <trkpt lat="49.27129" lon="-1.65141">
        <ele>7.2</ele>
        <time>2020-06-12T06:42:57Z</time>
      </trkpt>
      <trkpt lat="49.27134" lon="-1.65145">
        <ele>7.2</ele>
        <time>2020-06-12T06:42:58Z</time>
      </trkpt>
      <trkpt lat="49.27139" lon="-1.65151">
        <ele>7.2</ele>
        <time>2020-06-12T06:42:59Z</time>
      </trkpt>
      <trkpt lat="49.27145" lon="-1.65158">
        <ele>7.2</ele>
        <time>2020-06-12T06:43:00Z</time>
      </trkpt>
      <trkpt lat="49.2715" lon="-1.65163">
        <ele>7.2</ele>
        <time>2020-06-12T06:43:01Z</time>
      </trkpt>
      <trkpt lat="49.27155" lon="-1.65171">
        <ele>7.3</ele>
        <time>2020-06-12T06:43:02Z</time>
      </trkpt>
      <trkpt lat="49.27161" lon="-1.65177">
        <ele>7.3</ele>
        <time>2020-06-12T06:43:03Z</time>
      </trkpt>
      <trkpt lat="49.27167" lon="-1.65183">
        <ele>7.3</ele>
        <time>2020-06-12T06:43:04Z</time>
      </trkpt>
      <trkpt lat="49.27172" lon="-1.65189">
        <ele>7.3</ele>
        <time>2020-06-12T06:43:05Z</time>
      </trkpt>
      <trkpt lat="49.27177" lon="-1.65195">
        <ele>7.3</ele>
        <time>2020-06-12T06:43:06Z</time>
      </trkpt>
      <trkpt lat="49.27182" lon="-1.65201">
        <ele>7.3</ele>
        <time>2020-06-12T06:43:07Z</time>
      </trkpt>
      <trkpt lat="49.27187" lon="-1.65207">
        <ele>7.3</ele>
        <time>2020-06-12T06:43:08Z</time>
      </trkpt>
      <trkpt lat="49.27192" lon="-1.65214">
        <ele>7.3</ele>
        <time>2020-06-12T06:43:09Z</time>
      </trkpt>
      <trkpt lat="49.27197" lon="-1.6522">
        <ele>7.3</ele>
        <time>2020-06-12T06:43:10Z</time>
      </trkpt>
      <trkpt lat="49.27202" lon="-1.65226">
        <ele>7.3</ele>
        <time>2020-06-12T06:43:11Z</time>
      </trkpt>
      <trkpt lat="49.27207" lon="-1.65232">
        <ele>7.3</ele>
        <time>2020-06-12T06:43:12Z</time>
      </trkpt>
      <trkpt lat="49.27212" lon="-1.65237">
        <ele>7.3</ele>
        <time>2020-06-12T06:43:13Z</time>
      </trkpt>
      <trkpt lat="49.27217" lon="-1.65243">
        <ele>7.3</ele>
        <time>2020-06-12T06:43:14Z</time>
      </trkpt>
      <trkpt lat="49.27222" lon="-1.65249">
        <ele>7.4</ele>
        <time>2020-06-12T06:43:15Z</time>
      </trkpt>
      <trkpt lat="49.27228" lon="-1.65255">
        <ele>7.4</ele>
        <time>2020-06-12T06:43:16Z</time>
      </trkpt>
      <trkpt lat="49.27233" lon="-1.65261">
        <ele>7.4</ele>
        <time>2020-06-12T06:43:17Z</time>
      </trkpt>
      <trkpt lat="49.27239" lon="-1.65267">
        <ele>7.4</ele>
        <time>2020-06-12T06:43:18Z</time>
      </trkpt>
      <trkpt lat="49.27244" lon="-1.65272">
        <ele>7.4</ele>
        <time>2020-06-12T06:43:19Z</time>
      </trkpt>
      <trkpt lat="49.27249" lon="-1.65277">
        <ele>7.4</ele>
        <time>2020-06-12T06:43:20Z</time>
      </trkpt>
      <trkpt lat="49.27254" lon="-1.65284">
        <ele>7.4</ele>
        <time>2020-06-12T06:43:21Z</time>
      </trkpt>
      <trkpt lat="49.27259" lon="-1.6529">
        <ele>7.5</ele>
        <time>2020-06-12T06:43:22Z</time>
      </trkpt>
      <trkpt lat="49.27263" lon="-1.65295">
        <ele>7.5</ele>
        <time>2020-06-12T06:43:23Z</time>
      </trkpt>
      <trkpt lat="49.27269" lon="-1.65301">
        <ele>7.7</ele>
        <time>2020-06-12T06:43:24Z</time>
      </trkpt>
      <trkpt lat="49.27275" lon="-1.65307">
        <ele>7.8</ele>
        <time>2020-06-12T06:43:25Z</time>
      </trkpt>
      <trkpt lat="49.2728" lon="-1.65313">
        <ele>8</ele>
        <time>2020-06-12T06:43:26Z</time>
      </trkpt>
      <trkpt lat="49.27284" lon="-1.65319">
        <ele>8</ele>
        <time>2020-06-12T06:43:27Z</time>
      </trkpt>
      <trkpt lat="49.27288" lon="-1.65325">
        <ele>7.9</ele>
        <time>2020-06-12T06:43:28Z</time>
      </trkpt>
      <trkpt lat="49.27293" lon="-1.65333">
        <ele>7.9</ele>
        <time>2020-06-12T06:43:29Z</time>
      </trkpt>
      <trkpt lat="49.27297" lon="-1.65337">
        <ele>7.8</ele>
        <time>2020-06-12T06:43:30Z</time>
      </trkpt>
      <trkpt lat="49.27302" lon="-1.65343">
        <ele>7.8</ele>
        <time>2020-06-12T06:43:31Z</time>
      </trkpt>
      <trkpt lat="49.27307" lon="-1.65348">
        <ele>7.8</ele>
        <time>2020-06-12T06:43:32Z</time>
      </trkpt>
      <trkpt lat="49.27312" lon="-1.6535">
        <ele>7.8</ele>
        <time>2020-06-12T06:43:33Z</time>
      </trkpt>
      <trkpt lat="49.27316" lon="-1.65353">
        <ele>7.8</ele>
        <time>2020-06-12T06:43:34Z</time>
      </trkpt>
      <trkpt lat="49.27321" lon="-1.65358">
        <ele>7.8</ele>
        <time>2020-06-12T06:43:35Z</time>
      </trkpt>
      <trkpt lat="49.27326" lon="-1.65362">
        <ele>7.8</ele>
        <time>2020-06-12T06:43:36Z</time>
      </trkpt>
      <trkpt lat="49.27331" lon="-1.65368">
        <ele>7.9</ele>
        <time>2020-06-12T06:43:37Z</time>
      </trkpt>
      <trkpt lat="49.27337" lon="-1.65375">
        <ele>7.9</ele>
        <time>2020-06-12T06:43:38Z</time>
      </trkpt>
      <trkpt lat="49.27341" lon="-1.65381">
        <ele>7.9</ele>
        <time>2020-06-12T06:43:39Z</time>
      </trkpt>
      <trkpt lat="49.27346" lon="-1.65388">
        <ele>7.9</ele>
        <time>2020-06-12T06:43:40Z</time>
      </trkpt>
      <trkpt lat="49.27351" lon="-1.65392">
        <ele>7.9</ele>
        <time>2020-06-12T06:43:41Z</time>
      </trkpt>
      <trkpt lat="49.27356" lon="-1.65398">
        <ele>7.9</ele>
        <time>2020-06-12T06:43:42Z</time>
      </trkpt>
      <trkpt lat="49.27361" lon="-1.65404">
        <ele>7.9</ele>
        <time>2020-06-12T06:43:43Z</time>
      </trkpt>
      <trkpt lat="49.27366" lon="-1.65411">
        <ele>8</ele>
        <time>2020-06-12T06:43:44Z</time>
      </trkpt>
      <trkpt lat="49.27373" lon="-1.65417">
        <ele>8</ele>
        <time>2020-06-12T06:43:45Z</time>
      </trkpt>
      <trkpt lat="49.27377" lon="-1.65422">
        <ele>8</ele>
        <time>2020-06-12T06:43:46Z</time>
      </trkpt>
      <trkpt lat="49.27382" lon="-1.65428">
        <ele>8</ele>
        <time>2020-06-12T06:43:47Z</time>
      </trkpt>
      <trkpt lat="49.27387" lon="-1.65433">
        <ele>8</ele>
        <time>2020-06-12T06:43:48Z</time>
      </trkpt>
      <trkpt lat="49.27393" lon="-1.65439">
        <ele>8</ele>
        <time>2020-06-12T06:43:49Z</time>
      </trkpt>
      <trkpt lat="49.27398" lon="-1.65443">
        <ele>8</ele>
        <time>2020-06-12T06:43:50Z</time>
      </trkpt>
      <trkpt lat="49.27403" lon="-1.65448">
        <ele>8</ele>
        <time>2020-06-12T06:43:51Z</time>
      </trkpt>
      <trkpt lat="49.27408" lon="-1.65454">
        <ele>8</ele>
        <time>2020-06-12T06:43:52Z</time>
      </trkpt>
      <trkpt lat="49.27414" lon="-1.65459">
        <ele>8</ele>
        <time>2020-06-12T06:43:53Z</time>
      </trkpt>
      <trkpt lat="49.27418" lon="-1.65463">
        <ele>8</ele>
        <time>2020-06-12T06:43:54Z</time>
      </trkpt>
      <trkpt lat="49.27423" lon="-1.65469">
        <ele>8</ele>
        <time>2020-06-12T06:43:55Z</time>
      </trkpt>
      <trkpt lat="49.27429" lon="-1.65476">
        <ele>8</ele>
        <time>2020-06-12T06:43:56Z</time>
      </trkpt>
      <trkpt lat="49.27434" lon="-1.65483">
        <ele>8</ele>
        <time>2020-06-12T06:43:57Z</time>
      </trkpt>
      <trkpt lat="49.27439" lon="-1.65489">
        <ele>7.9</ele>
        <time>2020-06-12T06:43:58Z</time>
      </trkpt>
      <trkpt lat="49.27444" lon="-1.65494">
        <ele>7.9</ele>
        <time>2020-06-12T06:43:59Z</time>
      </trkpt>
      <trkpt lat="49.2745" lon="-1.655">
        <ele>8</ele>
        <time>2020-06-12T06:44:00Z</time>
      </trkpt>
      <trkpt lat="49.27455" lon="-1.65506">
        <ele>8</ele>
        <time>2020-06-12T06:44:01Z</time>
      </trkpt>
      <trkpt lat="49.2746" lon="-1.65511">
        <ele>8</ele>
        <time>2020-06-12T06:44:02Z</time>
      </trkpt>
      <trkpt lat="49.27466" lon="-1.65517">
        <ele>8</ele>
        <time>2020-06-12T06:44:03Z</time>
      </trkpt>
      <trkpt lat="49.27473" lon="-1.65522">
        <ele>8</ele>
        <time>2020-06-12T06:44:04Z</time>
      </trkpt>
      <trkpt lat="49.27478" lon="-1.65528">
        <ele>8</ele>
        <time>2020-06-12T06:44:05Z</time>
      </trkpt>
      <trkpt lat="49.27483" lon="-1.65534">
        <ele>8</ele>
        <time>2020-06-12T06:44:06Z</time>
      </trkpt>
      <trkpt lat="49.27488" lon="-1.6554">
        <ele>7.9</ele>
        <time>2020-06-12T06:44:07Z</time>
      </trkpt>
      <trkpt lat="49.27493" lon="-1.65545">
        <ele>7.9</ele>
        <time>2020-06-12T06:44:08Z</time>
      </trkpt>
      <trkpt lat="49.27499" lon="-1.6555">
        <ele>7.9</ele>
        <time>2020-06-12T06:44:09Z</time>
      </trkpt>
      <trkpt lat="49.27504" lon="-1.65554">
        <ele>7.9</ele>
        <time>2020-06-12T06:44:10Z</time>
      </trkpt>
      <trkpt lat="49.2751" lon="-1.65559">
        <ele>7.8</ele>
        <time>2020-06-12T06:44:11Z</time>
      </trkpt>
      <trkpt lat="49.27516" lon="-1.65564">
        <ele>7.8</ele>
        <time>2020-06-12T06:44:12Z</time>
      </trkpt>
      <trkpt lat="49.27522" lon="-1.65569">
        <ele>7.8</ele>
        <time>2020-06-12T06:44:13Z</time>
      </trkpt>
      <trkpt lat="49.27527" lon="-1.65572">
        <ele>7.8</ele>
        <time>2020-06-12T06:44:14Z</time>
      </trkpt>
      <trkpt lat="49.27533" lon="-1.65576">
        <ele>7.7</ele>
        <time>2020-06-12T06:44:15Z</time>
      </trkpt>
      <trkpt lat="49.27539" lon="-1.6558">
        <ele>7.7</ele>
        <time>2020-06-12T06:44:16Z</time>
      </trkpt>
      <trkpt lat="49.27545" lon="-1.65585">
        <ele>7.7</ele>
        <time>2020-06-12T06:44:17Z</time>
      </trkpt>
      <trkpt lat="49.2755" lon="-1.6559">
        <ele>7.7</ele>
        <time>2020-06-12T06:44:18Z</time>
      </trkpt>
      <trkpt lat="49.27556" lon="-1.65594">
        <ele>7.7</ele>
        <time>2020-06-12T06:44:19Z</time>
      </trkpt>
      <trkpt lat="49.27562" lon="-1.65599">
        <ele>7.6</ele>
        <time>2020-06-12T06:44:20Z</time>
      </trkpt>
      <trkpt lat="49.27568" lon="-1.65603">
        <ele>7.6</ele>
        <time>2020-06-12T06:44:21Z</time>
      </trkpt>
      <trkpt lat="49.27573" lon="-1.65607">
        <ele>7.6</ele>
        <time>2020-06-12T06:44:22Z</time>
      </trkpt>
      <trkpt lat="49.27579" lon="-1.6561">
        <ele>7.6</ele>
        <time>2020-06-12T06:44:23Z</time>
      </trkpt>
      <trkpt lat="49.27585" lon="-1.65613">
        <ele>7.6</ele>
        <time>2020-06-12T06:44:24Z</time>
      </trkpt>
      <trkpt lat="49.27591" lon="-1.65616">
        <ele>7.5</ele>
        <time>2020-06-12T06:44:25Z</time>
      </trkpt>
      <trkpt lat="49.27597" lon="-1.6562">
        <ele>7.5</ele>
        <time>2020-06-12T06:44:26Z</time>
      </trkpt>
      <trkpt lat="49.27603" lon="-1.65624">
        <ele>7.4</ele>
        <time>2020-06-12T06:44:27Z</time>
      </trkpt>
      <trkpt lat="49.27609" lon="-1.65627">
        <ele>7.4</ele>
        <time>2020-06-12T06:44:28Z</time>
      </trkpt>
      <trkpt lat="49.27615" lon="-1.6563">
        <ele>7.3</ele>
        <time>2020-06-12T06:44:29Z</time>
      </trkpt>
      <trkpt lat="49.27621" lon="-1.65633">
        <ele>7.3</ele>
        <time>2020-06-12T06:44:30Z</time>
      </trkpt>
      <trkpt lat="49.27627" lon="-1.65637">
        <ele>7.3</ele>
        <time>2020-06-12T06:44:31Z</time>
      </trkpt>
      <trkpt lat="49.27634" lon="-1.65639">
        <ele>7.2</ele>
        <time>2020-06-12T06:44:32Z</time>
      </trkpt>
      <trkpt lat="49.2764" lon="-1.65642">
        <ele>7.2</ele>
        <time>2020-06-12T06:44:33Z</time>
      </trkpt>
      <trkpt lat="49.27646" lon="-1.65645">
        <ele>7.1</ele>
        <time>2020-06-12T06:44:34Z</time>
      </trkpt>
      <trkpt lat="49.27653" lon="-1.65647">
        <ele>7.1</ele>
        <time>2020-06-12T06:44:35Z</time>
      </trkpt>
      <trkpt lat="49.27659" lon="-1.6565">
        <ele>7.1</ele>
        <time>2020-06-12T06:44:36Z</time>
      </trkpt>
      <trkpt lat="49.27665" lon="-1.65652">
        <ele>7.1</ele>
        <time>2020-06-12T06:44:37Z</time>
      </trkpt>
      <trkpt lat="49.27671" lon="-1.65654">
        <ele>7.1</ele>
        <time>2020-06-12T06:44:38Z</time>
      </trkpt>
      <trkpt lat="49.27677" lon="-1.65656">
        <ele>7.1</ele>
        <time>2020-06-12T06:44:39Z</time>
      </trkpt>
      <trkpt lat="49.27684" lon="-1.65659">
        <ele>7.1</ele>
        <time>2020-06-12T06:44:40Z</time>
      </trkpt>
      <trkpt lat="49.2769" lon="-1.6566">
        <ele>7.1</ele>
        <time>2020-06-12T06:44:41Z</time>
      </trkpt>
      <trkpt lat="49.27697" lon="-1.65662">
        <ele>7</ele>
        <time>2020-06-12T06:44:42Z</time>
      </trkpt>
      <trkpt lat="49.27703" lon="-1.65663">
        <ele>7</ele>
        <time>2020-06-12T06:44:43Z</time>
      </trkpt>
      <trkpt lat="49.27709" lon="-1.65665">
        <ele>7</ele>
        <time>2020-06-12T06:44:44Z</time>
      </trkpt>
      <trkpt lat="49.27715" lon="-1.65667">
        <ele>7</ele>
        <time>2020-06-12T06:44:45Z</time>
      </trkpt>
      <trkpt lat="49.2772" lon="-1.65668">
        <ele>7</ele>
        <time>2020-06-12T06:44:46Z</time>
      </trkpt>
      <trkpt lat="49.27727" lon="-1.65669">
        <ele>6.9</ele>
        <time>2020-06-12T06:44:47Z</time>
      </trkpt>
      <trkpt lat="49.27734" lon="-1.65671">
        <ele>6.9</ele>
        <time>2020-06-12T06:44:48Z</time>
      </trkpt>
      <trkpt lat="49.2774" lon="-1.65673">
        <ele>6.9</ele>
        <time>2020-06-12T06:44:49Z</time>
      </trkpt>
      <trkpt lat="49.27745" lon="-1.65673">
        <ele>6.8</ele>
        <time>2020-06-12T06:44:50Z</time>
      </trkpt>
      <trkpt lat="49.27753" lon="-1.65675">
        <ele>6.8</ele>
        <time>2020-06-12T06:44:51Z</time>
      </trkpt>
      <trkpt lat="49.27759" lon="-1.65676">
        <ele>6.8</ele>
        <time>2020-06-12T06:44:52Z</time>
      </trkpt>
      <trkpt lat="49.27765" lon="-1.65677">
        <ele>6.8</ele>
        <time>2020-06-12T06:44:53Z</time>
      </trkpt>
      <trkpt lat="49.27772" lon="-1.65678">
        <ele>6.7</ele>
        <time>2020-06-12T06:44:54Z</time>
      </trkpt>
      <trkpt lat="49.27778" lon="-1.65679">
        <ele>6.7</ele>
        <time>2020-06-12T06:44:55Z</time>
      </trkpt>
      <trkpt lat="49.27785" lon="-1.6568">
        <ele>6.7</ele>
        <time>2020-06-12T06:44:56Z</time>
      </trkpt>
      <trkpt lat="49.27792" lon="-1.6568">
        <ele>6.7</ele>
        <time>2020-06-12T06:44:57Z</time>
      </trkpt>
      <trkpt lat="49.27797" lon="-1.6568">
        <ele>6.7</ele>
        <time>2020-06-12T06:44:58Z</time>
      </trkpt>
      <trkpt lat="49.27804" lon="-1.65681">
        <ele>6.6</ele>
        <time>2020-06-12T06:44:59Z</time>
      </trkpt>
      <trkpt lat="49.2781" lon="-1.65682">
        <ele>6.6</ele>
        <time>2020-06-12T06:45:00Z</time>
      </trkpt>
      <trkpt lat="49.27817" lon="-1.65682">
        <ele>6.6</ele>
        <time>2020-06-12T06:45:01Z</time>
      </trkpt>
      <trkpt lat="49.27824" lon="-1.65683">
        <ele>6.6</ele>
        <time>2020-06-12T06:45:02Z</time>
      </trkpt>
      <trkpt lat="49.27831" lon="-1.65683">
        <ele>6.6</ele>
        <time>2020-06-12T06:45:03Z</time>
      </trkpt>
      <trkpt lat="49.27836" lon="-1.65683">
        <ele>6.6</ele>
        <time>2020-06-12T06:45:04Z</time>
      </trkpt>
      <trkpt lat="49.27843" lon="-1.65683">
        <ele>6.5</ele>
        <time>2020-06-12T06:45:05Z</time>
      </trkpt>
      <trkpt lat="49.27849" lon="-1.65684">
        <ele>6.5</ele>
        <time>2020-06-12T06:45:06Z</time>
      </trkpt>
      <trkpt lat="49.27855" lon="-1.65685">
        <ele>6.6</ele>
        <time>2020-06-12T06:45:07Z</time>
      </trkpt>
      <trkpt lat="49.27861" lon="-1.65686">
        <ele>6.6</ele>
        <time>2020-06-12T06:45:08Z</time>
      </trkpt>
      <trkpt lat="49.27868" lon="-1.65686">
        <ele>6.6</ele>
        <time>2020-06-12T06:45:09Z</time>
      </trkpt>
      <trkpt lat="49.27875" lon="-1.65686">
        <ele>6.8</ele>
        <time>2020-06-12T06:45:10Z</time>
      </trkpt>
      <trkpt lat="49.27882" lon="-1.65687">
        <ele>6.7</ele>
        <time>2020-06-12T06:45:11Z</time>
      </trkpt>
      <trkpt lat="49.27888" lon="-1.65687">
        <ele>6.6</ele>
        <time>2020-06-12T06:45:12Z</time>
      </trkpt>
      <trkpt lat="49.27895" lon="-1.65687">
        <ele>6.6</ele>
        <time>2020-06-12T06:45:13Z</time>
      </trkpt>
      <trkpt lat="49.27901" lon="-1.65688">
        <ele>6.6</ele>
        <time>2020-06-12T06:45:14Z</time>
      </trkpt>
      <trkpt lat="49.27907" lon="-1.65688">
        <ele>6.6</ele>
        <time>2020-06-12T06:45:15Z</time>
      </trkpt>
      <trkpt lat="49.27914" lon="-1.65689">
        <ele>6.6</ele>
        <time>2020-06-12T06:45:16Z</time>
      </trkpt>
      <trkpt lat="49.27921" lon="-1.65689">
        <ele>6.6</ele>
        <time>2020-06-12T06:45:17Z</time>
      </trkpt>
      <trkpt lat="49.27927" lon="-1.6569">
        <ele>6.6</ele>
        <time>2020-06-12T06:45:18Z</time>
      </trkpt>
      <trkpt lat="49.27933" lon="-1.6569">
        <ele>6.6</ele>
        <time>2020-06-12T06:45:19Z</time>
      </trkpt>
      <trkpt lat="49.27938" lon="-1.65691">
        <ele>6.6</ele>
        <time>2020-06-12T06:45:20Z</time>
      </trkpt>
      <trkpt lat="49.27944" lon="-1.65691">
        <ele>6.6</ele>
        <time>2020-06-12T06:45:21Z</time>
      </trkpt>
      <trkpt lat="49.27949" lon="-1.65691">
        <ele>6.6</ele>
        <time>2020-06-12T06:45:22Z</time>
      </trkpt>
      <trkpt lat="49.27955" lon="-1.65691">
        <ele>6.6</ele>
        <time>2020-06-12T06:45:23Z</time>
      </trkpt>
      <trkpt lat="49.27961" lon="-1.65692">
        <ele>6.6</ele>
        <time>2020-06-12T06:45:24Z</time>
      </trkpt>
      <trkpt lat="49.27967" lon="-1.65693">
        <ele>6.6</ele>
        <time>2020-06-12T06:45:25Z</time>
      </trkpt>
      <trkpt lat="49.27974" lon="-1.65693">
        <ele>6.6</ele>
        <time>2020-06-12T06:45:26Z</time>
      </trkpt>
      <trkpt lat="49.27981" lon="-1.65694">
        <ele>6.6</ele>
        <time>2020-06-12T06:45:27Z</time>
      </trkpt>
      <trkpt lat="49.27987" lon="-1.65693">
        <ele>6.6</ele>
        <time>2020-06-12T06:45:28Z</time>
      </trkpt>
      <trkpt lat="49.27992" lon="-1.65694">
        <ele>6.6</ele>
        <time>2020-06-12T06:45:29Z</time>
      </trkpt>
      <trkpt lat="49.27997" lon="-1.65695">
        <ele>6.7</ele>
        <time>2020-06-12T06:45:30Z</time>
      </trkpt>
      <trkpt lat="49.28002" lon="-1.65696">
        <ele>6.7</ele>
        <time>2020-06-12T06:45:31Z</time>
      </trkpt>
      <trkpt lat="49.28007" lon="-1.65697">
        <ele>6.7</ele>
        <time>2020-06-12T06:45:32Z</time>
      </trkpt>
      <trkpt lat="49.28012" lon="-1.65697">
        <ele>6.7</ele>
        <time>2020-06-12T06:45:33Z</time>
      </trkpt>
      <trkpt lat="49.28018" lon="-1.65698">
        <ele>6.7</ele>
        <time>2020-06-12T06:45:34Z</time>
      </trkpt>
      <trkpt lat="49.28024" lon="-1.65698">
        <ele>6.7</ele>
        <time>2020-06-12T06:45:35Z</time>
      </trkpt>
      <trkpt lat="49.28031" lon="-1.65698">
        <ele>6.7</ele>
        <time>2020-06-12T06:45:36Z</time>
      </trkpt>
      <trkpt lat="49.28037" lon="-1.65698">
        <ele>6.8</ele>
        <time>2020-06-12T06:45:37Z</time>
      </trkpt>
      <trkpt lat="49.28042" lon="-1.65697">
        <ele>6.8</ele>
        <time>2020-06-12T06:45:38Z</time>
      </trkpt>
      <trkpt lat="49.28048" lon="-1.65697">
        <ele>6.8</ele>
        <time>2020-06-12T06:45:39Z</time>
      </trkpt>
      <trkpt lat="49.28053" lon="-1.65697">
        <ele>6.8</ele>
        <time>2020-06-12T06:45:40Z</time>
      </trkpt>
      <trkpt lat="49.28059" lon="-1.65699">
        <ele>6.8</ele>
        <time>2020-06-12T06:45:41Z</time>
      </trkpt>
      <trkpt lat="49.28064" lon="-1.65699">
        <ele>6.8</ele>
        <time>2020-06-12T06:45:42Z</time>
      </trkpt>
      <trkpt lat="49.2807" lon="-1.65701">
        <ele>6.8</ele>
        <time>2020-06-12T06:45:43Z</time>
      </trkpt>
      <trkpt lat="49.28075" lon="-1.65701">
        <ele>6.8</ele>
        <time>2020-06-12T06:45:44Z</time>
      </trkpt>
      <trkpt lat="49.28081" lon="-1.65702">
        <ele>6.8</ele>
        <time>2020-06-12T06:45:45Z</time>
      </trkpt>
      <trkpt lat="49.28087" lon="-1.65702">
        <ele>6.8</ele>
        <time>2020-06-12T06:45:46Z</time>
      </trkpt>
      <trkpt lat="49.28092" lon="-1.65703">
        <ele>6.8</ele>
        <time>2020-06-12T06:45:47Z</time>
      </trkpt>
      <trkpt lat="49.28098" lon="-1.65703">
        <ele>6.9</ele>
        <time>2020-06-12T06:45:48Z</time>
      </trkpt>
      <trkpt lat="49.28103" lon="-1.65702">
        <ele>6.9</ele>
        <time>2020-06-12T06:45:49Z</time>
      </trkpt>
      <trkpt lat="49.28109" lon="-1.65702">
        <ele>6.9</ele>
        <time>2020-06-12T06:45:50Z</time>
      </trkpt>
      <trkpt lat="49.28115" lon="-1.65702">
        <ele>7</ele>
        <time>2020-06-12T06:45:51Z</time>
      </trkpt>
      <trkpt lat="49.28121" lon="-1.65702">
        <ele>7</ele>
        <time>2020-06-12T06:45:52Z</time>
      </trkpt>
      <trkpt lat="49.28126" lon="-1.65701">
        <ele>7.1</ele>
        <time>2020-06-12T06:45:53Z</time>
      </trkpt>
      <trkpt lat="49.28131" lon="-1.65702">
        <ele>7.1</ele>
        <time>2020-06-12T06:45:54Z</time>
      </trkpt>
      <trkpt lat="49.28136" lon="-1.65702">
        <ele>7.1</ele>
        <time>2020-06-12T06:45:55Z</time>
      </trkpt>
      <trkpt lat="49.28143" lon="-1.65703">
        <ele>7.2</ele>
        <time>2020-06-12T06:45:56Z</time>
      </trkpt>
      <trkpt lat="49.28148" lon="-1.65704">
        <ele>7.3</ele>
        <time>2020-06-12T06:45:57Z</time>
      </trkpt>
      <trkpt lat="49.28154" lon="-1.65703">
        <ele>7.3</ele>
        <time>2020-06-12T06:45:58Z</time>
      </trkpt>
      <trkpt lat="49.28159" lon="-1.65702">
        <ele>7.5</ele>
        <time>2020-06-12T06:45:59Z</time>
      </trkpt>
      <trkpt lat="49.28165" lon="-1.65703">
        <ele>7.6</ele>
        <time>2020-06-12T06:46:00Z</time>
      </trkpt>
      <trkpt lat="49.28171" lon="-1.65704">
        <ele>7.7</ele>
        <time>2020-06-12T06:46:01Z</time>
      </trkpt>
      <trkpt lat="49.28177" lon="-1.65706">
        <ele>7.7</ele>
        <time>2020-06-12T06:46:02Z</time>
      </trkpt>
      <trkpt lat="49.28182" lon="-1.65707">
        <ele>7.8</ele>
        <time>2020-06-12T06:46:03Z</time>
      </trkpt>
      <trkpt lat="49.28188" lon="-1.65709">
        <ele>7.8</ele>
        <time>2020-06-12T06:46:04Z</time>
      </trkpt>
      <trkpt lat="49.28193" lon="-1.65709">
        <ele>7.9</ele>
        <time>2020-06-12T06:46:05Z</time>
      </trkpt>
      <trkpt lat="49.28199" lon="-1.65711">
        <ele>7.9</ele>
        <time>2020-06-12T06:46:06Z</time>
      </trkpt>
      <trkpt lat="49.28204" lon="-1.65712">
        <ele>7.9</ele>
        <time>2020-06-12T06:46:07Z</time>
      </trkpt>
      <trkpt lat="49.2821" lon="-1.65714">
        <ele>7.9</ele>
        <time>2020-06-12T06:46:08Z</time>
      </trkpt>
      <trkpt lat="49.28216" lon="-1.65715">
        <ele>7.9</ele>
        <time>2020-06-12T06:46:09Z</time>
      </trkpt>
      <trkpt lat="49.28221" lon="-1.65718">
        <ele>7.9</ele>
        <time>2020-06-12T06:46:10Z</time>
      </trkpt>
      <trkpt lat="49.28226" lon="-1.6572">
        <ele>8</ele>
        <time>2020-06-12T06:46:11Z</time>
      </trkpt>
      <trkpt lat="49.28231" lon="-1.65723">
        <ele>8.1</ele>
        <time>2020-06-12T06:46:12Z</time>
      </trkpt>
      <trkpt lat="49.28236" lon="-1.65725">
        <ele>8.1</ele>
        <time>2020-06-12T06:46:13Z</time>
      </trkpt>
      <trkpt lat="49.28241" lon="-1.65727">
        <ele>8.1</ele>
        <time>2020-06-12T06:46:14Z</time>
      </trkpt>
      <trkpt lat="49.28246" lon="-1.65729">
        <ele>8.1</ele>
        <time>2020-06-12T06:46:15Z</time>
      </trkpt>
      <trkpt lat="49.28251" lon="-1.65731">
        <ele>8.1</ele>
        <time>2020-06-12T06:46:16Z</time>
      </trkpt>
      <trkpt lat="49.28256" lon="-1.65733">
        <ele>8.1</ele>
        <time>2020-06-12T06:46:17Z</time>
      </trkpt>
      <trkpt lat="49.28262" lon="-1.65735">
        <ele>8.2</ele>
        <time>2020-06-12T06:46:18Z</time>
      </trkpt>
      <trkpt lat="49.28267" lon="-1.65736">
        <ele>8.2</ele>
        <time>2020-06-12T06:46:19Z</time>
      </trkpt>
      <trkpt lat="49.28272" lon="-1.65738">
        <ele>8.2</ele>
        <time>2020-06-12T06:46:20Z</time>
      </trkpt>
      <trkpt lat="49.28277" lon="-1.65741">
        <ele>8.3</ele>
        <time>2020-06-12T06:46:21Z</time>
      </trkpt>
      <trkpt lat="49.28283" lon="-1.65744">
        <ele>8.3</ele>
        <time>2020-06-12T06:46:22Z</time>
      </trkpt>
      <trkpt lat="49.28287" lon="-1.65748">
        <ele>8.3</ele>
        <time>2020-06-12T06:46:23Z</time>
      </trkpt>
      <trkpt lat="49.28292" lon="-1.65751">
        <ele>8.3</ele>
        <time>2020-06-12T06:46:24Z</time>
      </trkpt>
      <trkpt lat="49.28299" lon="-1.65754">
        <ele>8.4</ele>
        <time>2020-06-12T06:46:25Z</time>
      </trkpt>
      <trkpt lat="49.28303" lon="-1.65758">
        <ele>8.4</ele>
        <time>2020-06-12T06:46:26Z</time>
      </trkpt>
      <trkpt lat="49.28307" lon="-1.65761">
        <ele>8.4</ele>
        <time>2020-06-12T06:46:27Z</time>
      </trkpt>
      <trkpt lat="49.28312" lon="-1.65764">
        <ele>8.5</ele>
        <time>2020-06-12T06:46:28Z</time>
      </trkpt>
      <trkpt lat="49.28317" lon="-1.65767">
        <ele>8.5</ele>
        <time>2020-06-12T06:46:29Z</time>
      </trkpt>
      <trkpt lat="49.28322" lon="-1.6577">
        <ele>8.5</ele>
        <time>2020-06-12T06:46:30Z</time>
      </trkpt>
      <trkpt lat="49.28326" lon="-1.65774">
        <ele>8.5</ele>
        <time>2020-06-12T06:46:31Z</time>
      </trkpt>
      <trkpt lat="49.28332" lon="-1.65777">
        <ele>8.5</ele>
        <time>2020-06-12T06:46:32Z</time>
      </trkpt>
      <trkpt lat="49.28337" lon="-1.65781">
        <ele>8.5</ele>
        <time>2020-06-12T06:46:33Z</time>
      </trkpt>
      <trkpt lat="49.28342" lon="-1.65785">
        <ele>8.5</ele>
        <time>2020-06-12T06:46:34Z</time>
      </trkpt>
      <trkpt lat="49.28346" lon="-1.6579">
        <ele>8.5</ele>
        <time>2020-06-12T06:46:35Z</time>
      </trkpt>
      <trkpt lat="49.28351" lon="-1.65794">
        <ele>8.5</ele>
        <time>2020-06-12T06:46:36Z</time>
      </trkpt>
      <trkpt lat="49.28356" lon="-1.65798">
        <ele>8.5</ele>
        <time>2020-06-12T06:46:37Z</time>
      </trkpt>
      <trkpt lat="49.28361" lon="-1.65805">
        <ele>8.5</ele>
        <time>2020-06-12T06:46:38Z</time>
      </trkpt>
      <trkpt lat="49.28365" lon="-1.65809">
        <ele>8.5</ele>
        <time>2020-06-12T06:46:39Z</time>
      </trkpt>
      <trkpt lat="49.28369" lon="-1.65814">
        <ele>8.5</ele>
        <time>2020-06-12T06:46:40Z</time>
      </trkpt>
      <trkpt lat="49.28374" lon="-1.65821">
        <ele>8.5</ele>
        <time>2020-06-12T06:46:41Z</time>
      </trkpt>
      <trkpt lat="49.28378" lon="-1.65826">
        <ele>8.5</ele>
        <time>2020-06-12T06:46:42Z</time>
      </trkpt>
      <trkpt lat="49.28383" lon="-1.65831">
        <ele>8.5</ele>
        <time>2020-06-12T06:46:43Z</time>
      </trkpt>
      <trkpt lat="49.28387" lon="-1.65837">
        <ele>8.6</ele>
        <time>2020-06-12T06:46:44Z</time>
      </trkpt>
      <trkpt lat="49.28391" lon="-1.65843">
        <ele>8.6</ele>
        <time>2020-06-12T06:46:45Z</time>
      </trkpt>
      <trkpt lat="49.28395" lon="-1.65848">
        <ele>8.6</ele>
        <time>2020-06-12T06:46:46Z</time>
      </trkpt>
      <trkpt lat="49.28399" lon="-1.65855">
        <ele>8.7</ele>
        <time>2020-06-12T06:46:47Z</time>
      </trkpt>
      <trkpt lat="49.28402" lon="-1.6586">
        <ele>8.7</ele>
        <time>2020-06-12T06:46:48Z</time>
      </trkpt>
      <trkpt lat="49.28406" lon="-1.65866">
        <ele>8.7</ele>
        <time>2020-06-12T06:46:49Z</time>
      </trkpt>
      <trkpt lat="49.28409" lon="-1.6587">
        <ele>8.7</ele>
        <time>2020-06-12T06:46:50Z</time>
      </trkpt>
      <trkpt lat="49.28413" lon="-1.65876">
        <ele>8.7</ele>
        <time>2020-06-12T06:46:51Z</time>
      </trkpt>
      <trkpt lat="49.28416" lon="-1.65881">
        <ele>8.7</ele>
        <time>2020-06-12T06:46:52Z</time>
      </trkpt>
      <trkpt lat="49.28419" lon="-1.65886">
        <ele>8.7</ele>
        <time>2020-06-12T06:46:53Z</time>
      </trkpt>
      <trkpt lat="49.28421" lon="-1.65892">
        <ele>8.7</ele>
        <time>2020-06-12T06:46:54Z</time>
      </trkpt>
      <trkpt lat="49.28423" lon="-1.65897">
        <ele>8.7</ele>
        <time>2020-06-12T06:46:55Z</time>
      </trkpt>
      <trkpt lat="49.28426" lon="-1.65902">
        <ele>8.7</ele>
        <time>2020-06-12T06:46:56Z</time>
      </trkpt>
      <trkpt lat="49.2843" lon="-1.65906">
        <ele>8.7</ele>
        <time>2020-06-12T06:46:57Z</time>
      </trkpt>
      <trkpt lat="49.28433" lon="-1.65911">
        <ele>8.7</ele>
        <time>2020-06-12T06:46:58Z</time>
      </trkpt>
      <trkpt lat="49.28436" lon="-1.65915">
        <ele>8.7</ele>
        <time>2020-06-12T06:46:59Z</time>
      </trkpt>
      <trkpt lat="49.28438" lon="-1.65921">
        <ele>8.8</ele>
        <time>2020-06-12T06:47:00Z</time>
      </trkpt>
      <trkpt lat="49.28441" lon="-1.65925">
        <ele>8.8</ele>
        <time>2020-06-12T06:47:01Z</time>
      </trkpt>
      <trkpt lat="49.28444" lon="-1.65931">
        <ele>8.8</ele>
        <time>2020-06-12T06:47:02Z</time>
      </trkpt>
      <trkpt lat="49.28447" lon="-1.65938">
        <ele>8.8</ele>
        <time>2020-06-12T06:47:03Z</time>
      </trkpt>
      <trkpt lat="49.28451" lon="-1.65943">
        <ele>8.8</ele>
        <time>2020-06-12T06:47:04Z</time>
      </trkpt>
      <trkpt lat="49.28454" lon="-1.65949">
        <ele>8.9</ele>
        <time>2020-06-12T06:47:05Z</time>
      </trkpt>
      <trkpt lat="49.28457" lon="-1.65955">
        <ele>8.9</ele>
        <time>2020-06-12T06:47:06Z</time>
      </trkpt>
      <trkpt lat="49.2846" lon="-1.65963">
        <ele>8.9</ele>
        <time>2020-06-12T06:47:07Z</time>
      </trkpt>
      <trkpt lat="49.28463" lon="-1.65969">
        <ele>8.9</ele>
        <time>2020-06-12T06:47:08Z</time>
      </trkpt>
      <trkpt lat="49.28466" lon="-1.65976">
        <ele>8.9</ele>
        <time>2020-06-12T06:47:09Z</time>
      </trkpt>
      <trkpt lat="49.28469" lon="-1.65982">
        <ele>8.9</ele>
        <time>2020-06-12T06:47:10Z</time>
      </trkpt>
      <trkpt lat="49.28472" lon="-1.65988">
        <ele>8.9</ele>
        <time>2020-06-12T06:47:11Z</time>
      </trkpt>
      <trkpt lat="49.28475" lon="-1.65994">
        <ele>8.9</ele>
        <time>2020-06-12T06:47:12Z</time>
      </trkpt>
      <trkpt lat="49.28478" lon="-1.66001">
        <ele>9</ele>
        <time>2020-06-12T06:47:13Z</time>
      </trkpt>
      <trkpt lat="49.28481" lon="-1.66008">
        <ele>9</ele>
        <time>2020-06-12T06:47:14Z</time>
      </trkpt>
      <trkpt lat="49.28484" lon="-1.66017">
        <ele>9</ele>
        <time>2020-06-12T06:47:15Z</time>
      </trkpt>
      <trkpt lat="49.28487" lon="-1.66025">
        <ele>9</ele>
        <time>2020-06-12T06:47:16Z</time>
      </trkpt>
      <trkpt lat="49.28489" lon="-1.66033">
        <ele>9.1</ele>
        <time>2020-06-12T06:47:17Z</time>
      </trkpt>
      <trkpt lat="49.28492" lon="-1.66042">
        <ele>9.1</ele>
        <time>2020-06-12T06:47:18Z</time>
      </trkpt>
      <trkpt lat="49.28495" lon="-1.6605">
        <ele>9.1</ele>
        <time>2020-06-12T06:47:19Z</time>
      </trkpt>
      <trkpt lat="49.28498" lon="-1.66058">
        <ele>9.2</ele>
        <time>2020-06-12T06:47:20Z</time>
      </trkpt>
      <trkpt lat="49.28501" lon="-1.66067">
        <ele>9.2</ele>
        <time>2020-06-12T06:47:21Z</time>
      </trkpt>
      <trkpt lat="49.28506" lon="-1.66073">
        <ele>9.2</ele>
        <time>2020-06-12T06:47:22Z</time>
      </trkpt>
      <trkpt lat="49.28509" lon="-1.66081">
        <ele>9.2</ele>
        <time>2020-06-12T06:47:23Z</time>
      </trkpt>
      <trkpt lat="49.28512" lon="-1.66088">
        <ele>9.3</ele>
        <time>2020-06-12T06:47:24Z</time>
      </trkpt>
      <trkpt lat="49.28514" lon="-1.66096">
        <ele>9.3</ele>
        <time>2020-06-12T06:47:25Z</time>
      </trkpt>
      <trkpt lat="49.28517" lon="-1.66104">
        <ele>9.3</ele>
        <time>2020-06-12T06:47:26Z</time>
      </trkpt>
      <trkpt lat="49.2852" lon="-1.66112">
        <ele>9.4</ele>
        <time>2020-06-12T06:47:27Z</time>
      </trkpt>
      <trkpt lat="49.28522" lon="-1.6612">
        <ele>9.4</ele>
        <time>2020-06-12T06:47:28Z</time>
      </trkpt>
      <trkpt lat="49.28525" lon="-1.66129">
        <ele>9.4</ele>
        <time>2020-06-12T06:47:29Z</time>
      </trkpt>
      <trkpt lat="49.28527" lon="-1.66137">
        <ele>9.4</ele>
        <time>2020-06-12T06:47:30Z</time>
      </trkpt>
      <trkpt lat="49.28529" lon="-1.66144">
        <ele>9.4</ele>
        <time>2020-06-12T06:47:31Z</time>
      </trkpt>
      <trkpt lat="49.28532" lon="-1.66151">
        <ele>9.4</ele>
        <time>2020-06-12T06:47:32Z</time>
      </trkpt>
      <trkpt lat="49.28535" lon="-1.66157">
        <ele>9.4</ele>
        <time>2020-06-12T06:47:33Z</time>
      </trkpt>
      <trkpt lat="49.28539" lon="-1.66165">
        <ele>9.5</ele>
        <time>2020-06-12T06:47:34Z</time>
      </trkpt>
      <trkpt lat="49.28541" lon="-1.66173">
        <ele>9.5</ele>
        <time>2020-06-12T06:47:35Z</time>
      </trkpt>
      <trkpt lat="49.28544" lon="-1.6618">
        <ele>9.5</ele>
        <time>2020-06-12T06:47:36Z</time>
      </trkpt>
      <trkpt lat="49.28547" lon="-1.66188">
        <ele>9.6</ele>
        <time>2020-06-12T06:47:37Z</time>
      </trkpt>
      <trkpt lat="49.2855" lon="-1.66197">
        <ele>9.6</ele>
        <time>2020-06-12T06:47:38Z</time>
      </trkpt>
      <trkpt lat="49.28554" lon="-1.66205">
        <ele>9.6</ele>
        <time>2020-06-12T06:47:39Z</time>
      </trkpt>
      <trkpt lat="49.28557" lon="-1.66212">
        <ele>9.6</ele>
        <time>2020-06-12T06:47:40Z</time>
      </trkpt>
      <trkpt lat="49.2856" lon="-1.66219">
        <ele>9.6</ele>
        <time>2020-06-12T06:47:41Z</time>
      </trkpt>
      <trkpt lat="49.28563" lon="-1.66226">
        <ele>9.6</ele>
        <time>2020-06-12T06:47:42Z</time>
      </trkpt>
      <trkpt lat="49.28566" lon="-1.66232">
        <ele>9.7</ele>
        <time>2020-06-12T06:47:43Z</time>
      </trkpt>
      <trkpt lat="49.28569" lon="-1.66239">
        <ele>9.7</ele>
        <time>2020-06-12T06:47:44Z</time>
      </trkpt>
      <trkpt lat="49.28574" lon="-1.66248">
        <ele>9.7</ele>
        <time>2020-06-12T06:47:45Z</time>
      </trkpt>
      <trkpt lat="49.28577" lon="-1.66254">
        <ele>9.7</ele>
        <time>2020-06-12T06:47:46Z</time>
      </trkpt>
      <trkpt lat="49.28581" lon="-1.6626">
        <ele>9.7</ele>
        <time>2020-06-12T06:47:47Z</time>
      </trkpt>
      <trkpt lat="49.28584" lon="-1.66267">
        <ele>9.7</ele>
        <time>2020-06-12T06:47:48Z</time>
      </trkpt>
      <trkpt lat="49.28589" lon="-1.66273">
        <ele>9.8</ele>
        <time>2020-06-12T06:47:49Z</time>
      </trkpt>
      <trkpt lat="49.28593" lon="-1.66278">
        <ele>9.8</ele>
        <time>2020-06-12T06:47:50Z</time>
      </trkpt>
      <trkpt lat="49.28598" lon="-1.66284">
        <ele>9.8</ele>
        <time>2020-06-12T06:47:51Z</time>
      </trkpt>
      <trkpt lat="49.28603" lon="-1.6629">
        <ele>9.8</ele>
        <time>2020-06-12T06:47:52Z</time>
      </trkpt>
      <trkpt lat="49.28607" lon="-1.66296">
        <ele>9.8</ele>
        <time>2020-06-12T06:47:53Z</time>
      </trkpt>
      <trkpt lat="49.28611" lon="-1.66301">
        <ele>9.9</ele>
        <time>2020-06-12T06:47:54Z</time>
      </trkpt>
      <trkpt lat="49.28615" lon="-1.66307">
        <ele>9.9</ele>
        <time>2020-06-12T06:47:55Z</time>
      </trkpt>
      <trkpt lat="49.2862" lon="-1.66313">
        <ele>9.9</ele>
        <time>2020-06-12T06:47:56Z</time>
      </trkpt>
      <trkpt lat="49.28624" lon="-1.66318">
        <ele>9.8</ele>
        <time>2020-06-12T06:47:57Z</time>
      </trkpt>
      <trkpt lat="49.28629" lon="-1.66324">
        <ele>9.7</ele>
        <time>2020-06-12T06:47:58Z</time>
      </trkpt>
      <trkpt lat="49.28634" lon="-1.6633">
        <ele>9.6</ele>
        <time>2020-06-12T06:47:59Z</time>
      </trkpt>
      <trkpt lat="49.28639" lon="-1.66336">
        <ele>9.5</ele>
        <time>2020-06-12T06:48:00Z</time>
      </trkpt>
      <trkpt lat="49.28643" lon="-1.66342">
        <ele>9.5</ele>
        <time>2020-06-12T06:48:01Z</time>
      </trkpt>
      <trkpt lat="49.28648" lon="-1.66348">
        <ele>9.5</ele>
        <time>2020-06-12T06:48:02Z</time>
      </trkpt>
      <trkpt lat="49.28653" lon="-1.66354">
        <ele>9.4</ele>
        <time>2020-06-12T06:48:03Z</time>
      </trkpt>
      <trkpt lat="49.28657" lon="-1.66358">
        <ele>9.4</ele>
        <time>2020-06-12T06:48:04Z</time>
      </trkpt>
      <trkpt lat="49.28661" lon="-1.66363">
        <ele>9.4</ele>
        <time>2020-06-12T06:48:05Z</time>
      </trkpt>
      <trkpt lat="49.28666" lon="-1.66366">
        <ele>9.4</ele>
        <time>2020-06-12T06:48:06Z</time>
      </trkpt>
      <trkpt lat="49.2867" lon="-1.66368">
        <ele>9.3</ele>
        <time>2020-06-12T06:48:07Z</time>
      </trkpt>
      <trkpt lat="49.28677" lon="-1.66373">
        <ele>9.3</ele>
        <time>2020-06-12T06:48:08Z</time>
      </trkpt>
      <trkpt lat="49.28684" lon="-1.66378">
        <ele>9.2</ele>
        <time>2020-06-12T06:48:09Z</time>
      </trkpt>
      <trkpt lat="49.2869" lon="-1.66383">
        <ele>9.1</ele>
        <time>2020-06-12T06:48:10Z</time>
      </trkpt>
      <trkpt lat="49.28696" lon="-1.66387">
        <ele>9</ele>
        <time>2020-06-12T06:48:11Z</time>
      </trkpt>
      <trkpt lat="49.28702" lon="-1.66391">
        <ele>9</ele>
        <time>2020-06-12T06:48:12Z</time>
      </trkpt>
      <trkpt lat="49.28709" lon="-1.66395">
        <ele>8.9</ele>
        <time>2020-06-12T06:48:13Z</time>
      </trkpt>
      <trkpt lat="49.28715" lon="-1.66399">
        <ele>8.9</ele>
        <time>2020-06-12T06:48:14Z</time>
      </trkpt>
      <trkpt lat="49.28722" lon="-1.66404">
        <ele>8.8</ele>
        <time>2020-06-12T06:48:15Z</time>
      </trkpt>
      <trkpt lat="49.28728" lon="-1.66408">
        <ele>8.7</ele>
        <time>2020-06-12T06:48:16Z</time>
      </trkpt>
      <trkpt lat="49.28732" lon="-1.66412">
        <ele>8.7</ele>
        <time>2020-06-12T06:48:17Z</time>
      </trkpt>
      <trkpt lat="49.28739" lon="-1.66415">
        <ele>8.6</ele>
        <time>2020-06-12T06:48:18Z</time>
      </trkpt>
      <trkpt lat="49.28743" lon="-1.66419">
        <ele>8.5</ele>
        <time>2020-06-12T06:48:19Z</time>
      </trkpt>
      <trkpt lat="49.28749" lon="-1.66422">
        <ele>8.4</ele>
        <time>2020-06-12T06:48:20Z</time>
      </trkpt>
      <trkpt lat="49.28755" lon="-1.66424">
        <ele>8.3</ele>
        <time>2020-06-12T06:48:21Z</time>
      </trkpt>
      <trkpt lat="49.28761" lon="-1.66425">
        <ele>8.3</ele>
        <time>2020-06-12T06:48:22Z</time>
      </trkpt>
      <trkpt lat="49.28768" lon="-1.66427">
        <ele>8.2</ele>
        <time>2020-06-12T06:48:23Z</time>
      </trkpt>
      <trkpt lat="49.28775" lon="-1.6643">
        <ele>8.2</ele>
        <time>2020-06-12T06:48:24Z</time>
      </trkpt>
      <trkpt lat="49.28783" lon="-1.66433">
        <ele>8.1</ele>
        <time>2020-06-12T06:48:25Z</time>
      </trkpt>
      <trkpt lat="49.28789" lon="-1.66436">
        <ele>8</ele>
        <time>2020-06-12T06:48:26Z</time>
      </trkpt>
      <trkpt lat="49.28795" lon="-1.66439">
        <ele>7.9</ele>
        <time>2020-06-12T06:48:27Z</time>
      </trkpt>
      <trkpt lat="49.28802" lon="-1.66442">
        <ele>7.9</ele>
        <time>2020-06-12T06:48:28Z</time>
      </trkpt>
      <trkpt lat="49.28809" lon="-1.66444">
        <ele>7.8</ele>
        <time>2020-06-12T06:48:29Z</time>
      </trkpt>
      <trkpt lat="49.28816" lon="-1.66447">
        <ele>7.7</ele>
        <time>2020-06-12T06:48:30Z</time>
      </trkpt>
      <trkpt lat="49.28822" lon="-1.66449">
        <ele>7.6</ele>
        <time>2020-06-12T06:48:31Z</time>
      </trkpt>
      <trkpt lat="49.28827" lon="-1.66451">
        <ele>7.5</ele>
        <time>2020-06-12T06:48:32Z</time>
      </trkpt>
      <trkpt lat="49.28833" lon="-1.66453">
        <ele>7.4</ele>
        <time>2020-06-12T06:48:33Z</time>
      </trkpt>
      <trkpt lat="49.28839" lon="-1.66454">
        <ele>7.4</ele>
        <time>2020-06-12T06:48:34Z</time>
      </trkpt>
      <trkpt lat="49.28845" lon="-1.66456">
        <ele>7.3</ele>
        <time>2020-06-12T06:48:35Z</time>
      </trkpt>
      <trkpt lat="49.28851" lon="-1.66458">
        <ele>7.3</ele>
        <time>2020-06-12T06:48:36Z</time>
      </trkpt>
      <trkpt lat="49.28857" lon="-1.6646">
        <ele>7.3</ele>
        <time>2020-06-12T06:48:37Z</time>
      </trkpt>
      <trkpt lat="49.28864" lon="-1.66462">
        <ele>7.2</ele>
        <time>2020-06-12T06:48:38Z</time>
      </trkpt>
      <trkpt lat="49.2887" lon="-1.66464">
        <ele>7.2</ele>
        <time>2020-06-12T06:48:39Z</time>
      </trkpt>
      <trkpt lat="49.28877" lon="-1.66467">
        <ele>7.2</ele>
        <time>2020-06-12T06:48:40Z</time>
      </trkpt>
      <trkpt lat="49.28883" lon="-1.6647">
        <ele>7.1</ele>
        <time>2020-06-12T06:48:41Z</time>
      </trkpt>
      <trkpt lat="49.2889" lon="-1.66471">
        <ele>7.1</ele>
        <time>2020-06-12T06:48:42Z</time>
      </trkpt>
      <trkpt lat="49.28896" lon="-1.66472">
        <ele>7.1</ele>
        <time>2020-06-12T06:48:43Z</time>
      </trkpt>
      <trkpt lat="49.28902" lon="-1.66474">
        <ele>7.1</ele>
        <time>2020-06-12T06:48:44Z</time>
      </trkpt>
      <trkpt lat="49.28908" lon="-1.66476">
        <ele>7</ele>
        <time>2020-06-12T06:48:45Z</time>
      </trkpt>
      <trkpt lat="49.28914" lon="-1.6648">
        <ele>7</ele>
        <time>2020-06-12T06:48:46Z</time>
      </trkpt>
      <trkpt lat="49.2892" lon="-1.66483">
        <ele>6.9</ele>
        <time>2020-06-12T06:48:47Z</time>
      </trkpt>
      <trkpt lat="49.28926" lon="-1.66486">
        <ele>6.9</ele>
        <time>2020-06-12T06:48:48Z</time>
      </trkpt>
      <trkpt lat="49.28932" lon="-1.66489">
        <ele>6.9</ele>
        <time>2020-06-12T06:48:49Z</time>
      </trkpt>
      <trkpt lat="49.28937" lon="-1.66491">
        <ele>6.8</ele>
        <time>2020-06-12T06:48:50Z</time>
      </trkpt>
      <trkpt lat="49.28943" lon="-1.66492">
        <ele>6.8</ele>
        <time>2020-06-12T06:48:51Z</time>
      </trkpt>
      <trkpt lat="49.28949" lon="-1.66495">
        <ele>6.8</ele>
        <time>2020-06-12T06:48:52Z</time>
      </trkpt>
      <trkpt lat="49.28952" lon="-1.66495">
        <ele>6.8</ele>
        <time>2020-06-12T06:48:53Z</time>
      </trkpt>
      <trkpt lat="49.28959" lon="-1.66497">
        <ele>6.7</ele>
        <time>2020-06-12T06:48:54Z</time>
      </trkpt>
      <trkpt lat="49.28965" lon="-1.66499">
        <ele>6.7</ele>
        <time>2020-06-12T06:48:55Z</time>
      </trkpt>
      <trkpt lat="49.28971" lon="-1.665">
        <ele>6.7</ele>
        <time>2020-06-12T06:48:56Z</time>
      </trkpt>
      <trkpt lat="49.28977" lon="-1.66502">
        <ele>6.7</ele>
        <time>2020-06-12T06:48:57Z</time>
      </trkpt>
      <trkpt lat="49.28983" lon="-1.66504">
        <ele>6.7</ele>
        <time>2020-06-12T06:48:58Z</time>
      </trkpt>
      <trkpt lat="49.28988" lon="-1.66506">
        <ele>6.7</ele>
        <time>2020-06-12T06:48:59Z</time>
      </trkpt>
      <trkpt lat="49.28994" lon="-1.66509">
        <ele>6.8</ele>
        <time>2020-06-12T06:49:00Z</time>
      </trkpt>
      <trkpt lat="49.28998" lon="-1.6651">
        <ele>6.8</ele>
        <time>2020-06-12T06:49:01Z</time>
      </trkpt>
      <trkpt lat="49.29004" lon="-1.66512">
        <ele>6.8</ele>
        <time>2020-06-12T06:49:02Z</time>
      </trkpt>
      <trkpt lat="49.2901" lon="-1.66514">
        <ele>6.8</ele>
        <time>2020-06-12T06:49:03Z</time>
      </trkpt>
      <trkpt lat="49.29015" lon="-1.66516">
        <ele>6.8</ele>
        <time>2020-06-12T06:49:04Z</time>
      </trkpt>
      <trkpt lat="49.2902" lon="-1.66518">
        <ele>6.7</ele>
        <time>2020-06-12T06:49:05Z</time>
      </trkpt>
      <trkpt lat="49.29026" lon="-1.66521">
        <ele>6.7</ele>
        <time>2020-06-12T06:49:06Z</time>
      </trkpt>
      <trkpt lat="49.2903" lon="-1.66523">
        <ele>6.6</ele>
        <time>2020-06-12T06:49:07Z</time>
      </trkpt>
      <trkpt lat="49.29035" lon="-1.66525">
        <ele>6.6</ele>
        <time>2020-06-12T06:49:08Z</time>
      </trkpt>
      <trkpt lat="49.2904" lon="-1.66528">
        <ele>6.5</ele>
        <time>2020-06-12T06:49:09Z</time>
      </trkpt>
      <trkpt lat="49.29045" lon="-1.66529">
        <ele>6.5</ele>
        <time>2020-06-12T06:49:10Z</time>
      </trkpt>
      <trkpt lat="49.2905" lon="-1.66531">
        <ele>6.5</ele>
        <time>2020-06-12T06:49:11Z</time>
      </trkpt>
      <trkpt lat="49.29056" lon="-1.66534">
        <ele>6.5</ele>
        <time>2020-06-12T06:49:12Z</time>
      </trkpt>
      <trkpt lat="49.29062" lon="-1.66537">
        <ele>6.5</ele>
        <time>2020-06-12T06:49:13Z</time>
      </trkpt>
      <trkpt lat="49.29068" lon="-1.66539">
        <ele>6.5</ele>
        <time>2020-06-12T06:49:14Z</time>
      </trkpt>
      <trkpt lat="49.29073" lon="-1.66541">
        <ele>6.5</ele>
        <time>2020-06-12T06:49:15Z</time>
      </trkpt>
      <trkpt lat="49.29079" lon="-1.66544">
        <ele>6.5</ele>
        <time>2020-06-12T06:49:16Z</time>
      </trkpt>
      <trkpt lat="49.29085" lon="-1.66548">
        <ele>6.6</ele>
        <time>2020-06-12T06:49:17Z</time>
      </trkpt>
      <trkpt lat="49.29089" lon="-1.66549">
        <ele>6.6</ele>
        <time>2020-06-12T06:49:18Z</time>
      </trkpt>
      <trkpt lat="49.29094" lon="-1.66552">
        <ele>6.6</ele>
        <time>2020-06-12T06:49:19Z</time>
      </trkpt>
      <trkpt lat="49.291" lon="-1.66555">
        <ele>6.6</ele>
        <time>2020-06-12T06:49:20Z</time>
      </trkpt>
      <trkpt lat="49.29106" lon="-1.66557">
        <ele>6.6</ele>
        <time>2020-06-12T06:49:21Z</time>
      </trkpt>
      <trkpt lat="49.29112" lon="-1.66559">
        <ele>6.6</ele>
        <time>2020-06-12T06:49:22Z</time>
      </trkpt>
      <trkpt lat="49.29117" lon="-1.66561">
        <ele>6.6</ele>
        <time>2020-06-12T06:49:23Z</time>
      </trkpt>
      <trkpt lat="49.29122" lon="-1.66564">
        <ele>6.6</ele>
        <time>2020-06-12T06:49:24Z</time>
      </trkpt>
      <trkpt lat="49.29127" lon="-1.66567">
        <ele>6.6</ele>
        <time>2020-06-12T06:49:25Z</time>
      </trkpt>
      <trkpt lat="49.29132" lon="-1.66569">
        <ele>6.6</ele>
        <time>2020-06-12T06:49:26Z</time>
      </trkpt>
      <trkpt lat="49.29137" lon="-1.66571">
        <ele>6.6</ele>
        <time>2020-06-12T06:49:27Z</time>
      </trkpt>
      <trkpt lat="49.29143" lon="-1.66574">
        <ele>6.6</ele>
        <time>2020-06-12T06:49:28Z</time>
      </trkpt>
      <trkpt lat="49.29148" lon="-1.66576">
        <ele>6.7</ele>
        <time>2020-06-12T06:49:29Z</time>
      </trkpt>
      <trkpt lat="49.29152" lon="-1.66579">
        <ele>6.7</ele>
        <time>2020-06-12T06:49:30Z</time>
      </trkpt>
      <trkpt lat="49.29157" lon="-1.66582">
        <ele>6.7</ele>
        <time>2020-06-12T06:49:31Z</time>
      </trkpt>
      <trkpt lat="49.29161" lon="-1.66585">
        <ele>6.7</ele>
        <time>2020-06-12T06:49:32Z</time>
      </trkpt>
      <trkpt lat="49.29166" lon="-1.66589">
        <ele>6.7</ele>
        <time>2020-06-12T06:49:33Z</time>
      </trkpt>
      <trkpt lat="49.29171" lon="-1.66595">
        <ele>6.6</ele>
        <time>2020-06-12T06:49:34Z</time>
      </trkpt>
      <trkpt lat="49.29175" lon="-1.66598">
        <ele>6.6</ele>
        <time>2020-06-12T06:49:35Z</time>
      </trkpt>
      <trkpt lat="49.2918" lon="-1.66602">
        <ele>6.6</ele>
        <time>2020-06-12T06:49:36Z</time>
      </trkpt>
      <trkpt lat="49.29184" lon="-1.66605">
        <ele>6.6</ele>
        <time>2020-06-12T06:49:37Z</time>
      </trkpt>
      <trkpt lat="49.29188" lon="-1.66607">
        <ele>6.7</ele>
        <time>2020-06-12T06:49:38Z</time>
      </trkpt>
      <trkpt lat="49.29191" lon="-1.66609">
        <ele>6.7</ele>
        <time>2020-06-12T06:49:39Z</time>
      </trkpt>
      <trkpt lat="49.29195" lon="-1.66612">
        <ele>6.7</ele>
        <time>2020-06-12T06:49:40Z</time>
      </trkpt>
      <trkpt lat="49.29198" lon="-1.66614">
        <ele>6.6</ele>
        <time>2020-06-12T06:49:41Z</time>
      </trkpt>
      <trkpt lat="49.29201" lon="-1.66617">
        <ele>6.5</ele>
        <time>2020-06-12T06:49:42Z</time>
      </trkpt>
      <trkpt lat="49.29203" lon="-1.6662">
        <ele>6.3</ele>
        <time>2020-06-12T06:49:43Z</time>
      </trkpt>
      <trkpt lat="49.29206" lon="-1.66622">
        <ele>6.3</ele>
        <time>2020-06-12T06:49:44Z</time>
      </trkpt>
      <trkpt lat="49.29208" lon="-1.66625">
        <ele>6.3</ele>
        <time>2020-06-12T06:49:45Z</time>
      </trkpt>
      <trkpt lat="49.29211" lon="-1.66628">
        <ele>6.3</ele>
        <time>2020-06-12T06:49:46Z</time>
      </trkpt>
      <trkpt lat="49.29215" lon="-1.66631">
        <ele>6.3</ele>
        <time>2020-06-12T06:49:47Z</time>
      </trkpt>
      <trkpt lat="49.29217" lon="-1.66633">
        <ele>6.3</ele>
        <time>2020-06-12T06:49:48Z</time>
      </trkpt>
      <trkpt lat="49.2922" lon="-1.66632">
        <ele>6.3</ele>
        <time>2020-06-12T06:49:49Z</time>
      </trkpt>
      <trkpt lat="49.29222" lon="-1.66632">
        <ele>6.3</ele>
        <time>2020-06-12T06:49:50Z</time>
      </trkpt>
      <trkpt lat="49.29225" lon="-1.66631">
        <ele>6.3</ele>
        <time>2020-06-12T06:49:51Z</time>
      </trkpt>
      <trkpt lat="49.29229" lon="-1.66631">
        <ele>6.3</ele>
        <time>2020-06-12T06:49:52Z</time>
      </trkpt>
      <trkpt lat="49.29231" lon="-1.66632">
        <ele>6.3</ele>
        <time>2020-06-12T06:49:53Z</time>
      </trkpt>
      <trkpt lat="49.29234" lon="-1.66634">
        <ele>6.3</ele>
        <time>2020-06-12T06:49:54Z</time>
      </trkpt>
      <trkpt lat="49.29236" lon="-1.66637">
        <ele>6.3</ele>
        <time>2020-06-12T06:49:55Z</time>
      </trkpt>
      <trkpt lat="49.29237" lon="-1.66637">
        <ele>6.3</ele>
        <time>2020-06-12T06:49:56Z</time>
      </trkpt>
      <trkpt lat="49.29237" lon="-1.6664">
        <ele>6.3</ele>
        <time>2020-06-12T06:49:57Z</time>
      </trkpt>
      <trkpt lat="49.29238" lon="-1.66641">
        <ele>6.3</ele>
        <time>2020-06-12T06:49:58Z</time>
      </trkpt>
      <trkpt lat="49.29238" lon="-1.6664">
        <ele>6.3</ele>
        <time>2020-06-12T06:49:59Z</time>
      </trkpt>
      <trkpt lat="49.29238" lon="-1.66641">
        <ele>6.3</ele>
        <time>2020-06-12T06:50:00Z</time>
      </trkpt>
      <trkpt lat="49.29237" lon="-1.66641">
        <ele>6.3</ele>
        <time>2020-06-12T06:50:01Z</time>
      </trkpt>
      <trkpt lat="49.29237" lon="-1.66641">
        <ele>6.3</ele>
        <time>2020-06-12T06:50:02Z</time>
      </trkpt>
      <trkpt lat="49.29237" lon="-1.6664">
        <ele>6.3</ele>
        <time>2020-06-12T06:50:03Z</time>
      </trkpt>
      <trkpt lat="49.29237" lon="-1.6664">
        <ele>6.3</ele>
        <time>2020-06-12T06:50:04Z</time>
      </trkpt>
      <trkpt lat="49.29237" lon="-1.66639">
        <ele>6.3</ele>
        <time>2020-06-12T06:50:05Z</time>
      </trkpt>
      <trkpt lat="49.29238" lon="-1.66639">
        <ele>6.3</ele>
        <time>2020-06-12T06:50:06Z</time>
      </trkpt>
      <trkpt lat="49.29238" lon="-1.66636">
        <ele>6.2</ele>
        <time>2020-06-12T06:50:07Z</time>
      </trkpt>
      <trkpt lat="49.29239" lon="-1.66634">
        <ele>6.2</ele>
        <time>2020-06-12T06:50:08Z</time>
      </trkpt>
      <trkpt lat="49.2924" lon="-1.66638">
        <ele>6.2</ele>
        <time>2020-06-12T06:50:09Z</time>
      </trkpt>
      <trkpt lat="49.29241" lon="-1.66642">
        <ele>6.2</ele>
        <time>2020-06-12T06:50:10Z</time>
      </trkpt>
      <trkpt lat="49.29241" lon="-1.66646">
        <ele>6.2</ele>
        <time>2020-06-12T06:57:06Z</time>
      </trkpt>
      <trkpt lat="49.29241" lon="-1.66651">
        <ele>6.2</ele>
        <time>2020-06-12T06:57:07Z</time>
      </trkpt>
      <trkpt lat="49.29244" lon="-1.66653">
        <ele>6.2</ele>
        <time>2020-06-12T06:57:08Z</time>
      </trkpt>
      <trkpt lat="49.29246" lon="-1.66655">
        <ele>6.3</ele>
        <time>2020-06-12T06:57:09Z</time>
      </trkpt>
      <trkpt lat="49.2925" lon="-1.66659">
        <ele>6.3</ele>
        <time>2020-06-12T06:57:10Z</time>
      </trkpt>
      <trkpt lat="49.29252" lon="-1.66662">
        <ele>6.3</ele>
        <time>2020-06-12T06:57:11Z</time>
      </trkpt>
      <trkpt lat="49.29255" lon="-1.66665">
        <ele>6.3</ele>
        <time>2020-06-12T06:57:12Z</time>
      </trkpt>
      <trkpt lat="49.29259" lon="-1.66669">
        <ele>6.3</ele>
        <time>2020-06-12T06:57:13Z</time>
      </trkpt>
      <trkpt lat="49.29262" lon="-1.66674">
        <ele>6.3</ele>
        <time>2020-06-12T06:57:14Z</time>
      </trkpt>
      <trkpt lat="49.29266" lon="-1.6668">
        <ele>6.3</ele>
        <time>2020-06-12T06:57:15Z</time>
      </trkpt>
      <trkpt lat="49.2927" lon="-1.66686">
        <ele>6.3</ele>
        <time>2020-06-12T06:57:16Z</time>
      </trkpt>
      <trkpt lat="49.29275" lon="-1.66691">
        <ele>6.3</ele>
        <time>2020-06-12T06:57:17Z</time>
      </trkpt>
      <trkpt lat="49.29279" lon="-1.66696">
        <ele>6.3</ele>
        <time>2020-06-12T06:57:18Z</time>
      </trkpt>
      <trkpt lat="49.29283" lon="-1.66701">
        <ele>6.3</ele>
        <time>2020-06-12T06:57:19Z</time>
      </trkpt>
      <trkpt lat="49.29288" lon="-1.66707">
        <ele>6.3</ele>
        <time>2020-06-12T06:57:20Z</time>
      </trkpt>
      <trkpt lat="49.29293" lon="-1.66712">
        <ele>6.3</ele>
        <time>2020-06-12T06:57:21Z</time>
      </trkpt>
      <trkpt lat="49.29298" lon="-1.66718">
        <ele>6.4</ele>
        <time>2020-06-12T06:57:22Z</time>
      </trkpt>
      <trkpt lat="49.29303" lon="-1.66724">
        <ele>6.4</ele>
        <time>2020-06-12T06:57:23Z</time>
      </trkpt>
      <trkpt lat="49.29309" lon="-1.66729">
        <ele>6.5</ele>
        <time>2020-06-12T06:57:24Z</time>
      </trkpt>
      <trkpt lat="49.29314" lon="-1.66735">
        <ele>6.5</ele>
        <time>2020-06-12T06:57:25Z</time>
      </trkpt>
      <trkpt lat="49.29319" lon="-1.66742">
        <ele>6.5</ele>
        <time>2020-06-12T06:57:26Z</time>
      </trkpt>
      <trkpt lat="49.29324" lon="-1.66748">
        <ele>6.6</ele>
        <time>2020-06-12T06:57:27Z</time>
      </trkpt>
      <trkpt lat="49.29329" lon="-1.66754">
        <ele>6.6</ele>
        <time>2020-06-12T06:57:28Z</time>
      </trkpt>
      <trkpt lat="49.29334" lon="-1.66761">
        <ele>6.6</ele>
        <time>2020-06-12T06:57:29Z</time>
      </trkpt>
      <trkpt lat="49.29339" lon="-1.66766">
        <ele>6.7</ele>
        <time>2020-06-12T06:57:30Z</time>
      </trkpt>
      <trkpt lat="49.29344" lon="-1.66773">
        <ele>6.7</ele>
        <time>2020-06-12T06:57:31Z</time>
      </trkpt>
      <trkpt lat="49.29349" lon="-1.66779">
        <ele>6.7</ele>
        <time>2020-06-12T06:57:32Z</time>
      </trkpt>
      <trkpt lat="49.29354" lon="-1.66784">
        <ele>6.7</ele>
        <time>2020-06-12T06:57:33Z</time>
      </trkpt>
      <trkpt lat="49.29358" lon="-1.66788">
        <ele>6.8</ele>
        <time>2020-06-12T06:57:34Z</time>
      </trkpt>
      <trkpt lat="49.29364" lon="-1.66794">
        <ele>6.8</ele>
        <time>2020-06-12T06:57:35Z</time>
      </trkpt>
      <trkpt lat="49.29368" lon="-1.66799">
        <ele>6.8</ele>
        <time>2020-06-12T06:57:36Z</time>
      </trkpt>
      <trkpt lat="49.29373" lon="-1.66806">
        <ele>6.9</ele>
        <time>2020-06-12T06:57:37Z</time>
      </trkpt>
      <trkpt lat="49.29378" lon="-1.66812">
        <ele>6.9</ele>
        <time>2020-06-12T06:57:38Z</time>
      </trkpt>
      <trkpt lat="49.29383" lon="-1.66819">
        <ele>7</ele>
        <time>2020-06-12T06:57:39Z</time>
      </trkpt>
      <trkpt lat="49.29388" lon="-1.66823">
        <ele>7</ele>
        <time>2020-06-12T06:57:40Z</time>
      </trkpt>
      <trkpt lat="49.29394" lon="-1.66828">
        <ele>7.1</ele>
        <time>2020-06-12T06:57:41Z</time>
      </trkpt>
      <trkpt lat="49.29399" lon="-1.66833">
        <ele>7.1</ele>
        <time>2020-06-12T06:57:42Z</time>
      </trkpt>
      <trkpt lat="49.29405" lon="-1.66838">
        <ele>7.1</ele>
        <time>2020-06-12T06:57:43Z</time>
      </trkpt>
      <trkpt lat="49.29411" lon="-1.66842">
        <ele>7.1</ele>
        <time>2020-06-12T06:57:44Z</time>
      </trkpt>
      <trkpt lat="49.29416" lon="-1.66847">
        <ele>7</ele>
        <time>2020-06-12T06:57:45Z</time>
      </trkpt>
      <trkpt lat="49.29422" lon="-1.66852">
        <ele>7</ele>
        <time>2020-06-12T06:57:46Z</time>
      </trkpt>
      <trkpt lat="49.29428" lon="-1.66858">
        <ele>7</ele>
        <time>2020-06-12T06:57:47Z</time>
      </trkpt>
      <trkpt lat="49.29434" lon="-1.66863">
        <ele>7</ele>
        <time>2020-06-12T06:57:48Z</time>
      </trkpt>
      <trkpt lat="49.29439" lon="-1.66869">
        <ele>6.9</ele>
        <time>2020-06-12T06:57:49Z</time>
      </trkpt>
      <trkpt lat="49.29445" lon="-1.66873">
        <ele>6.9</ele>
        <time>2020-06-12T06:57:50Z</time>
      </trkpt>
      <trkpt lat="49.2945" lon="-1.66878">
        <ele>6.8</ele>
        <time>2020-06-12T06:57:51Z</time>
      </trkpt>
      <trkpt lat="49.29455" lon="-1.66882">
        <ele>6.8</ele>
        <time>2020-06-12T06:57:52Z</time>
      </trkpt>
      <trkpt lat="49.29461" lon="-1.66887">
        <ele>6.8</ele>
        <time>2020-06-12T06:57:53Z</time>
      </trkpt>
      <trkpt lat="49.29466" lon="-1.66892">
        <ele>6.8</ele>
        <time>2020-06-12T06:57:54Z</time>
      </trkpt>
      <trkpt lat="49.29472" lon="-1.66897">
        <ele>6.8</ele>
        <time>2020-06-12T06:57:55Z</time>
      </trkpt>
      <trkpt lat="49.29477" lon="-1.66901">
        <ele>6.7</ele>
        <time>2020-06-12T06:57:56Z</time>
      </trkpt>
      <trkpt lat="49.29482" lon="-1.66906">
        <ele>6.7</ele>
        <time>2020-06-12T06:57:57Z</time>
      </trkpt>
      <trkpt lat="49.29487" lon="-1.6691">
        <ele>6.7</ele>
        <time>2020-06-12T06:57:58Z</time>
      </trkpt>
      <trkpt lat="49.29492" lon="-1.66914">
        <ele>6.7</ele>
        <time>2020-06-12T06:57:59Z</time>
      </trkpt>
      <trkpt lat="49.29498" lon="-1.6692">
        <ele>6.7</ele>
        <time>2020-06-12T06:58:00Z</time>
      </trkpt>
      <trkpt lat="49.29503" lon="-1.66925">
        <ele>6.7</ele>
        <time>2020-06-12T06:58:01Z</time>
      </trkpt>
      <trkpt lat="49.29509" lon="-1.6693">
        <ele>6.7</ele>
        <time>2020-06-12T06:58:02Z</time>
      </trkpt>
      <trkpt lat="49.29514" lon="-1.66935">
        <ele>6.7</ele>
        <time>2020-06-12T06:58:03Z</time>
      </trkpt>
      <trkpt lat="49.29519" lon="-1.6694">
        <ele>6.7</ele>
        <time>2020-06-12T06:58:04Z</time>
      </trkpt>
      <trkpt lat="49.29524" lon="-1.66945">
        <ele>6.6</ele>
        <time>2020-06-12T06:58:05Z</time>
      </trkpt>
      <trkpt lat="49.29529" lon="-1.6695">
        <ele>6.6</ele>
        <time>2020-06-12T06:58:06Z</time>
      </trkpt>
      <trkpt lat="49.29534" lon="-1.66955">
        <ele>6.6</ele>
        <time>2020-06-12T06:58:07Z</time>
      </trkpt>
      <trkpt lat="49.2954" lon="-1.6696">
        <ele>6.6</ele>
        <time>2020-06-12T06:58:08Z</time>
      </trkpt>
      <trkpt lat="49.29546" lon="-1.66965">
        <ele>6.5</ele>
        <time>2020-06-12T06:58:09Z</time>
      </trkpt>
      <trkpt lat="49.29552" lon="-1.6697">
        <ele>6.5</ele>
        <time>2020-06-12T06:58:10Z</time>
      </trkpt>
      <trkpt lat="49.29558" lon="-1.66976">
        <ele>6.5</ele>
        <time>2020-06-12T06:58:11Z</time>
      </trkpt>
      <trkpt lat="49.29563" lon="-1.66981">
        <ele>6.6</ele>
        <time>2020-06-12T06:58:12Z</time>
      </trkpt>
      <trkpt lat="49.29569" lon="-1.66985">
        <ele>6.6</ele>
        <time>2020-06-12T06:58:13Z</time>
      </trkpt>
      <trkpt lat="49.29575" lon="-1.66991">
        <ele>6.7</ele>
        <time>2020-06-12T06:58:14Z</time>
      </trkpt>
      <trkpt lat="49.29581" lon="-1.66996">
        <ele>6.7</ele>
        <time>2020-06-12T06:58:15Z</time>
      </trkpt>
      <trkpt lat="49.29586" lon="-1.67001">
        <ele>6.7</ele>
        <time>2020-06-12T06:58:16Z</time>
      </trkpt>
      <trkpt lat="49.29593" lon="-1.67005">
        <ele>6.7</ele>
        <time>2020-06-12T06:58:17Z</time>
      </trkpt>
      <trkpt lat="49.29598" lon="-1.6701">
        <ele>6.7</ele>
        <time>2020-06-12T06:58:18Z</time>
      </trkpt>
      <trkpt lat="49.29604" lon="-1.67014">
        <ele>6.6</ele>
        <time>2020-06-12T06:58:19Z</time>
      </trkpt>
      <trkpt lat="49.29609" lon="-1.67019">
        <ele>6.6</ele>
        <time>2020-06-12T06:58:20Z</time>
      </trkpt>
      <trkpt lat="49.29615" lon="-1.67025">
        <ele>6.6</ele>
        <time>2020-06-12T06:58:21Z</time>
      </trkpt>
      <trkpt lat="49.2962" lon="-1.6703">
        <ele>6.6</ele>
        <time>2020-06-12T06:58:22Z</time>
      </trkpt>
      <trkpt lat="49.29626" lon="-1.67035">
        <ele>6.5</ele>
        <time>2020-06-12T06:58:23Z</time>
      </trkpt>
      <trkpt lat="49.29632" lon="-1.67041">
        <ele>6.5</ele>
        <time>2020-06-12T06:58:24Z</time>
      </trkpt>
      <trkpt lat="49.29637" lon="-1.67046">
        <ele>6.5</ele>
        <time>2020-06-12T06:58:25Z</time>
      </trkpt>
      <trkpt lat="49.29642" lon="-1.67052">
        <ele>6.4</ele>
        <time>2020-06-12T06:58:26Z</time>
      </trkpt>
      <trkpt lat="49.29648" lon="-1.67057">
        <ele>6.4</ele>
        <time>2020-06-12T06:58:27Z</time>
      </trkpt>
      <trkpt lat="49.29653" lon="-1.67063">
        <ele>6.4</ele>
        <time>2020-06-12T06:58:28Z</time>
      </trkpt>
      <trkpt lat="49.29659" lon="-1.67068">
        <ele>6.3</ele>
        <time>2020-06-12T06:58:29Z</time>
      </trkpt>
      <trkpt lat="49.29665" lon="-1.67073">
        <ele>6.3</ele>
        <time>2020-06-12T06:58:30Z</time>
      </trkpt>
      <trkpt lat="49.2967" lon="-1.67078">
        <ele>6.2</ele>
        <time>2020-06-12T06:58:31Z</time>
      </trkpt>
      <trkpt lat="49.29676" lon="-1.67083">
        <ele>6.2</ele>
        <time>2020-06-12T06:58:32Z</time>
      </trkpt>
      <trkpt lat="49.29682" lon="-1.67088">
        <ele>6.2</ele>
        <time>2020-06-12T06:58:33Z</time>
      </trkpt>
      <trkpt lat="49.29688" lon="-1.67094">
        <ele>6.1</ele>
        <time>2020-06-12T06:58:34Z</time>
      </trkpt>
      <trkpt lat="49.29694" lon="-1.67099">
        <ele>6.1</ele>
        <time>2020-06-12T06:58:35Z</time>
      </trkpt>
      <trkpt lat="49.29699" lon="-1.67105">
        <ele>6.1</ele>
        <time>2020-06-12T06:58:36Z</time>
      </trkpt>
      <trkpt lat="49.29706" lon="-1.6711">
        <ele>6</ele>
        <time>2020-06-12T06:58:37Z</time>
      </trkpt>
      <trkpt lat="49.29712" lon="-1.67116">
        <ele>6</ele>
        <time>2020-06-12T06:58:38Z</time>
      </trkpt>
      <trkpt lat="49.29717" lon="-1.67121">
        <ele>6</ele>
        <time>2020-06-12T06:58:39Z</time>
      </trkpt>
      <trkpt lat="49.29723" lon="-1.67127">
        <ele>5.9</ele>
        <time>2020-06-12T06:58:40Z</time>
      </trkpt>
      <trkpt lat="49.29729" lon="-1.67132">
        <ele>5.9</ele>
        <time>2020-06-12T06:58:41Z</time>
      </trkpt>
      <trkpt lat="49.29736" lon="-1.67139">
        <ele>5.9</ele>
        <time>2020-06-12T06:58:42Z</time>
      </trkpt>
      <trkpt lat="49.29741" lon="-1.67145">
        <ele>6</ele>
        <time>2020-06-12T06:58:43Z</time>
      </trkpt>
      <trkpt lat="49.29747" lon="-1.6715">
        <ele>6.1</ele>
        <time>2020-06-12T06:58:44Z</time>
      </trkpt>
      <trkpt lat="49.29752" lon="-1.67156">
        <ele>6.3</ele>
        <time>2020-06-12T06:58:45Z</time>
      </trkpt>
      <trkpt lat="49.29758" lon="-1.67162">
        <ele>6.4</ele>
        <time>2020-06-12T06:58:46Z</time>
      </trkpt>
      <trkpt lat="49.29764" lon="-1.67168">
        <ele>6.4</ele>
        <time>2020-06-12T06:58:47Z</time>
      </trkpt>
      <trkpt lat="49.2977" lon="-1.67174">
        <ele>6.4</ele>
        <time>2020-06-12T06:58:48Z</time>
      </trkpt>
      <trkpt lat="49.29776" lon="-1.67179">
        <ele>6.4</ele>
        <time>2020-06-12T06:58:49Z</time>
      </trkpt>
      <trkpt lat="49.29781" lon="-1.67183">
        <ele>6.4</ele>
        <time>2020-06-12T06:58:50Z</time>
      </trkpt>
      <trkpt lat="49.29787" lon="-1.67188">
        <ele>6.4</ele>
        <time>2020-06-12T06:58:51Z</time>
      </trkpt>
      <trkpt lat="49.29793" lon="-1.67192">
        <ele>6.4</ele>
        <time>2020-06-12T06:58:52Z</time>
      </trkpt>
      <trkpt lat="49.29798" lon="-1.67196">
        <ele>6.4</ele>
        <time>2020-06-12T06:58:53Z</time>
      </trkpt>
      <trkpt lat="49.29804" lon="-1.67201">
        <ele>6.4</ele>
        <time>2020-06-12T06:58:54Z</time>
      </trkpt>
      <trkpt lat="49.2981" lon="-1.67205">
        <ele>6.4</ele>
        <time>2020-06-12T06:58:55Z</time>
      </trkpt>
      <trkpt lat="49.29815" lon="-1.6721">
        <ele>6.4</ele>
        <time>2020-06-12T06:58:56Z</time>
      </trkpt>
      <trkpt lat="49.2982" lon="-1.67214">
        <ele>6.4</ele>
        <time>2020-06-12T06:58:57Z</time>
      </trkpt>
      <trkpt lat="49.29827" lon="-1.6722">
        <ele>6.4</ele>
        <time>2020-06-12T06:58:58Z</time>
      </trkpt>
      <trkpt lat="49.29833" lon="-1.67226">
        <ele>6.4</ele>
        <time>2020-06-12T06:58:59Z</time>
      </trkpt>
      <trkpt lat="49.29839" lon="-1.67231">
        <ele>6.4</ele>
        <time>2020-06-12T06:59:00Z</time>
      </trkpt>
      <trkpt lat="49.29845" lon="-1.67236">
        <ele>6.5</ele>
        <time>2020-06-12T06:59:01Z</time>
      </trkpt>
      <trkpt lat="49.2985" lon="-1.67241">
        <ele>6.5</ele>
        <time>2020-06-12T06:59:02Z</time>
      </trkpt>
      <trkpt lat="49.29857" lon="-1.67246">
        <ele>6.5</ele>
        <time>2020-06-12T06:59:03Z</time>
      </trkpt>
      <trkpt lat="49.29862" lon="-1.67251">
        <ele>6.5</ele>
        <time>2020-06-12T06:59:04Z</time>
      </trkpt>
      <trkpt lat="49.29868" lon="-1.67256">
        <ele>6.5</ele>
        <time>2020-06-12T06:59:05Z</time>
      </trkpt>
      <trkpt lat="49.29873" lon="-1.67261">
        <ele>6.5</ele>
        <time>2020-06-12T06:59:06Z</time>
      </trkpt>
      <trkpt lat="49.29877" lon="-1.67267">
        <ele>6.5</ele>
        <time>2020-06-12T06:59:07Z</time>
      </trkpt>
      <trkpt lat="49.29882" lon="-1.67271">
        <ele>6.6</ele>
        <time>2020-06-12T06:59:08Z</time>
      </trkpt>
      <trkpt lat="49.29886" lon="-1.67276">
        <ele>6.7</ele>
        <time>2020-06-12T06:59:09Z</time>
      </trkpt>
      <trkpt lat="49.29891" lon="-1.67282">
        <ele>6.8</ele>
        <time>2020-06-12T06:59:10Z</time>
      </trkpt>
      <trkpt lat="49.29897" lon="-1.67287">
        <ele>7</ele>
        <time>2020-06-12T06:59:11Z</time>
      </trkpt>
      <trkpt lat="49.29902" lon="-1.6729">
        <ele>7.1</ele>
        <time>2020-06-12T06:59:12Z</time>
      </trkpt>
      <trkpt lat="49.29906" lon="-1.67295">
        <ele>7</ele>
        <time>2020-06-12T06:59:13Z</time>
      </trkpt>
      <trkpt lat="49.29911" lon="-1.67299">
        <ele>6.9</ele>
        <time>2020-06-12T06:59:14Z</time>
      </trkpt>
      <trkpt lat="49.29917" lon="-1.67303">
        <ele>6.9</ele>
        <time>2020-06-12T06:59:15Z</time>
      </trkpt>
      <trkpt lat="49.29923" lon="-1.67307">
        <ele>6.9</ele>
        <time>2020-06-12T06:59:16Z</time>
      </trkpt>
      <trkpt lat="49.29929" lon="-1.67312">
        <ele>6.9</ele>
        <time>2020-06-12T06:59:17Z</time>
      </trkpt>
      <trkpt lat="49.29934" lon="-1.67315">
        <ele>6.9</ele>
        <time>2020-06-12T06:59:18Z</time>
      </trkpt>
      <trkpt lat="49.2994" lon="-1.67319">
        <ele>7</ele>
        <time>2020-06-12T06:59:19Z</time>
      </trkpt>
      <trkpt lat="49.29945" lon="-1.67323">
        <ele>7</ele>
        <time>2020-06-12T06:59:20Z</time>
      </trkpt>
      <trkpt lat="49.29951" lon="-1.67328">
        <ele>7</ele>
        <time>2020-06-12T06:59:21Z</time>
      </trkpt>
      <trkpt lat="49.29958" lon="-1.67334">
        <ele>7.1</ele>
        <time>2020-06-12T06:59:22Z</time>
      </trkpt>
      <trkpt lat="49.29964" lon="-1.67339">
        <ele>7.1</ele>
        <time>2020-06-12T06:59:23Z</time>
      </trkpt>
      <trkpt lat="49.29968" lon="-1.67343">
        <ele>7.1</ele>
        <time>2020-06-12T06:59:24Z</time>
      </trkpt>
      <trkpt lat="49.29973" lon="-1.67347">
        <ele>7.1</ele>
        <time>2020-06-12T06:59:25Z</time>
      </trkpt>
      <trkpt lat="49.29978" lon="-1.67352">
        <ele>7.1</ele>
        <time>2020-06-12T06:59:26Z</time>
      </trkpt>
      <trkpt lat="49.29983" lon="-1.67356">
        <ele>7.1</ele>
        <time>2020-06-12T06:59:27Z</time>
      </trkpt>
      <trkpt lat="49.29988" lon="-1.6736">
        <ele>7.1</ele>
        <time>2020-06-12T06:59:28Z</time>
      </trkpt>
      <trkpt lat="49.29994" lon="-1.67364">
        <ele>7.2</ele>
        <time>2020-06-12T06:59:29Z</time>
      </trkpt>
      <trkpt lat="49.29998" lon="-1.67368">
        <ele>7.2</ele>
        <time>2020-06-12T06:59:30Z</time>
      </trkpt>
      <trkpt lat="49.30003" lon="-1.67371">
        <ele>7.3</ele>
        <time>2020-06-12T06:59:31Z</time>
      </trkpt>
      <trkpt lat="49.30008" lon="-1.67374">
        <ele>7.4</ele>
        <time>2020-06-12T06:59:32Z</time>
      </trkpt>
      <trkpt lat="49.30014" lon="-1.67377">
        <ele>7.5</ele>
        <time>2020-06-12T06:59:33Z</time>
      </trkpt>
      <trkpt lat="49.3002" lon="-1.67381">
        <ele>7.7</ele>
        <time>2020-06-12T06:59:34Z</time>
      </trkpt>
      <trkpt lat="49.30026" lon="-1.67384">
        <ele>7.8</ele>
        <time>2020-06-12T06:59:35Z</time>
      </trkpt>
      <trkpt lat="49.30033" lon="-1.67388">
        <ele>7.8</ele>
        <time>2020-06-12T06:59:36Z</time>
      </trkpt>
      <trkpt lat="49.30039" lon="-1.67391">
        <ele>7.8</ele>
        <time>2020-06-12T06:59:37Z</time>
      </trkpt>
      <trkpt lat="49.30045" lon="-1.67395">
        <ele>7.9</ele>
        <time>2020-06-12T06:59:38Z</time>
      </trkpt>
      <trkpt lat="49.3005" lon="-1.67399">
        <ele>7.9</ele>
        <time>2020-06-12T06:59:39Z</time>
      </trkpt>
      <trkpt lat="49.30055" lon="-1.67403">
        <ele>7.9</ele>
        <time>2020-06-12T06:59:40Z</time>
      </trkpt>
      <trkpt lat="49.3006" lon="-1.67407">
        <ele>7.9</ele>
        <time>2020-06-12T06:59:41Z</time>
      </trkpt>
      <trkpt lat="49.30064" lon="-1.6741">
        <ele>7.9</ele>
        <time>2020-06-12T06:59:42Z</time>
      </trkpt>
      <trkpt lat="49.30069" lon="-1.67413">
        <ele>7.9</ele>
        <time>2020-06-12T06:59:43Z</time>
      </trkpt>
      <trkpt lat="49.30074" lon="-1.67416">
        <ele>7.9</ele>
        <time>2020-06-12T06:59:44Z</time>
      </trkpt>
      <trkpt lat="49.30078" lon="-1.67419">
        <ele>7.9</ele>
        <time>2020-06-12T06:59:45Z</time>
      </trkpt>
      <trkpt lat="49.30082" lon="-1.6742">
        <ele>7.9</ele>
        <time>2020-06-12T06:59:46Z</time>
      </trkpt>
      <trkpt lat="49.30087" lon="-1.67423">
        <ele>7.9</ele>
        <time>2020-06-12T06:59:47Z</time>
      </trkpt>
      <trkpt lat="49.30093" lon="-1.67426">
        <ele>8</ele>
        <time>2020-06-12T06:59:48Z</time>
      </trkpt>
      <trkpt lat="49.30099" lon="-1.67428">
        <ele>8</ele>
        <time>2020-06-12T06:59:49Z</time>
      </trkpt>
      <trkpt lat="49.30105" lon="-1.67431">
        <ele>8</ele>
        <time>2020-06-12T06:59:50Z</time>
      </trkpt>
      <trkpt lat="49.30111" lon="-1.67434">
        <ele>8</ele>
        <time>2020-06-12T06:59:51Z</time>
      </trkpt>
      <trkpt lat="49.30117" lon="-1.67437">
        <ele>8</ele>
        <time>2020-06-12T06:59:52Z</time>
      </trkpt>
      <trkpt lat="49.30123" lon="-1.6744">
        <ele>8</ele>
        <time>2020-06-12T06:59:53Z</time>
      </trkpt>
      <trkpt lat="49.30129" lon="-1.67444">
        <ele>8</ele>
        <time>2020-06-12T06:59:54Z</time>
      </trkpt>
      <trkpt lat="49.30135" lon="-1.67447">
        <ele>8.1</ele>
        <time>2020-06-12T06:59:55Z</time>
      </trkpt>
      <trkpt lat="49.30141" lon="-1.67449">
        <ele>8.2</ele>
        <time>2020-06-12T06:59:56Z</time>
      </trkpt>
      <trkpt lat="49.30147" lon="-1.67452">
        <ele>8.3</ele>
        <time>2020-06-12T06:59:57Z</time>
      </trkpt>
      <trkpt lat="49.30152" lon="-1.67454">
        <ele>8.4</ele>
        <time>2020-06-12T06:59:58Z</time>
      </trkpt>
      <trkpt lat="49.30159" lon="-1.67458">
        <ele>8.4</ele>
        <time>2020-06-12T06:59:59Z</time>
      </trkpt>
      <trkpt lat="49.30164" lon="-1.6746">
        <ele>8.4</ele>
        <time>2020-06-12T07:00:00Z</time>
      </trkpt>
      <trkpt lat="49.3017" lon="-1.67463">
        <ele>8.4</ele>
        <time>2020-06-12T07:00:01Z</time>
      </trkpt>
      <trkpt lat="49.30176" lon="-1.67464">
        <ele>8.4</ele>
        <time>2020-06-12T07:00:02Z</time>
      </trkpt>
      <trkpt lat="49.30182" lon="-1.67466">
        <ele>8.4</ele>
        <time>2020-06-12T07:00:03Z</time>
      </trkpt>
      <trkpt lat="49.30188" lon="-1.67468">
        <ele>8.4</ele>
        <time>2020-06-12T07:00:04Z</time>
      </trkpt>
      <trkpt lat="49.30193" lon="-1.6747">
        <ele>8.4</ele>
        <time>2020-06-12T07:00:05Z</time>
      </trkpt>
      <trkpt lat="49.302" lon="-1.67471">
        <ele>8.4</ele>
        <time>2020-06-12T07:00:06Z</time>
      </trkpt>
      <trkpt lat="49.30207" lon="-1.67473">
        <ele>8.3</ele>
        <time>2020-06-12T07:00:07Z</time>
      </trkpt>
      <trkpt lat="49.30214" lon="-1.67475">
        <ele>8.3</ele>
        <time>2020-06-12T07:00:08Z</time>
      </trkpt>
      <trkpt lat="49.30221" lon="-1.67477">
        <ele>8.4</ele>
        <time>2020-06-12T07:00:09Z</time>
      </trkpt>
      <trkpt lat="49.30227" lon="-1.6748">
        <ele>8.5</ele>
        <time>2020-06-12T07:00:10Z</time>
      </trkpt>
      <trkpt lat="49.30235" lon="-1.67482">
        <ele>8.5</ele>
        <time>2020-06-12T07:00:11Z</time>
      </trkpt>
      <trkpt lat="49.3024" lon="-1.67485">
        <ele>8.6</ele>
        <time>2020-06-12T07:00:12Z</time>
      </trkpt>
      <trkpt lat="49.30245" lon="-1.67486">
        <ele>8.6</ele>
        <time>2020-06-12T07:00:13Z</time>
      </trkpt>
      <trkpt lat="49.3025" lon="-1.67488">
        <ele>8.6</ele>
        <time>2020-06-12T07:00:14Z</time>
      </trkpt>
      <trkpt lat="49.30257" lon="-1.6749">
        <ele>8.6</ele>
        <time>2020-06-12T07:00:15Z</time>
      </trkpt>
      <trkpt lat="49.30263" lon="-1.67492">
        <ele>8.6</ele>
        <time>2020-06-12T07:00:16Z</time>
      </trkpt>
      <trkpt lat="49.30269" lon="-1.67495">
        <ele>8.7</ele>
        <time>2020-06-12T07:00:17Z</time>
      </trkpt>
      <trkpt lat="49.30274" lon="-1.67498">
        <ele>8.7</ele>
        <time>2020-06-12T07:00:18Z</time>
      </trkpt>
      <trkpt lat="49.30279" lon="-1.67501">
        <ele>8.7</ele>
        <time>2020-06-12T07:00:19Z</time>
      </trkpt>
      <trkpt lat="49.30285" lon="-1.67504">
        <ele>8.7</ele>
        <time>2020-06-12T07:00:20Z</time>
      </trkpt>
      <trkpt lat="49.30291" lon="-1.67507">
        <ele>8.8</ele>
        <time>2020-06-12T07:00:21Z</time>
      </trkpt>
      <trkpt lat="49.30296" lon="-1.6751">
        <ele>8.8</ele>
        <time>2020-06-12T07:00:22Z</time>
      </trkpt>
      <trkpt lat="49.30302" lon="-1.67512">
        <ele>8.8</ele>
        <time>2020-06-12T07:00:23Z</time>
      </trkpt>
      <trkpt lat="49.30308" lon="-1.67515">
        <ele>8.8</ele>
        <time>2020-06-12T07:00:24Z</time>
      </trkpt>
      <trkpt lat="49.30314" lon="-1.67517">
        <ele>8.9</ele>
        <time>2020-06-12T07:00:25Z</time>
      </trkpt>
      <trkpt lat="49.30321" lon="-1.6752">
        <ele>8.9</ele>
        <time>2020-06-12T07:00:26Z</time>
      </trkpt>
      <trkpt lat="49.30326" lon="-1.67522">
        <ele>8.9</ele>
        <time>2020-06-12T07:00:27Z</time>
      </trkpt>
      <trkpt lat="49.30332" lon="-1.67524">
        <ele>8.9</ele>
        <time>2020-06-12T07:00:28Z</time>
      </trkpt>
      <trkpt lat="49.30338" lon="-1.67526">
        <ele>8.9</ele>
        <time>2020-06-12T07:00:29Z</time>
      </trkpt>
      <trkpt lat="49.30344" lon="-1.67528">
        <ele>9</ele>
        <time>2020-06-12T07:00:30Z</time>
      </trkpt>
      <trkpt lat="49.3035" lon="-1.6753">
        <ele>9</ele>
        <time>2020-06-12T07:00:31Z</time>
      </trkpt>
      <trkpt lat="49.30356" lon="-1.67533">
        <ele>9.1</ele>
        <time>2020-06-12T07:00:32Z</time>
      </trkpt>
      <trkpt lat="49.30362" lon="-1.67536">
        <ele>9.2</ele>
        <time>2020-06-12T07:00:33Z</time>
      </trkpt>
      <trkpt lat="49.30367" lon="-1.67538">
        <ele>9.2</ele>
        <time>2020-06-12T07:00:34Z</time>
      </trkpt>
      <trkpt lat="49.30373" lon="-1.6754">
        <ele>9.2</ele>
        <time>2020-06-12T07:00:35Z</time>
      </trkpt>
      <trkpt lat="49.30379" lon="-1.67543">
        <ele>9.3</ele>
        <time>2020-06-12T07:00:36Z</time>
      </trkpt>
      <trkpt lat="49.30385" lon="-1.67545">
        <ele>9.3</ele>
        <time>2020-06-12T07:00:37Z</time>
      </trkpt>
      <trkpt lat="49.30391" lon="-1.67546">
        <ele>9.4</ele>
        <time>2020-06-12T07:00:38Z</time>
      </trkpt>
      <trkpt lat="49.30397" lon="-1.67548">
        <ele>9.4</ele>
        <time>2020-06-12T07:00:39Z</time>
      </trkpt>
      <trkpt lat="49.30403" lon="-1.67551">
        <ele>9.4</ele>
        <time>2020-06-12T07:00:40Z</time>
      </trkpt>
      <trkpt lat="49.3041" lon="-1.67554">
        <ele>9.4</ele>
        <time>2020-06-12T07:00:41Z</time>
      </trkpt>
      <trkpt lat="49.30416" lon="-1.67556">
        <ele>9.4</ele>
        <time>2020-06-12T07:00:42Z</time>
      </trkpt>
      <trkpt lat="49.30422" lon="-1.67559">
        <ele>9.5</ele>
        <time>2020-06-12T07:00:43Z</time>
      </trkpt>
      <trkpt lat="49.30428" lon="-1.67562">
        <ele>9.5</ele>
        <time>2020-06-12T07:00:44Z</time>
      </trkpt>
      <trkpt lat="49.30434" lon="-1.67565">
        <ele>9.5</ele>
        <time>2020-06-12T07:00:45Z</time>
      </trkpt>
      <trkpt lat="49.3044" lon="-1.67568">
        <ele>9.5</ele>
        <time>2020-06-12T07:00:46Z</time>
      </trkpt>
      <trkpt lat="49.30445" lon="-1.67571">
        <ele>9.6</ele>
        <time>2020-06-12T07:00:47Z</time>
      </trkpt>
      <trkpt lat="49.3045" lon="-1.67574">
        <ele>9.6</ele>
        <time>2020-06-12T07:00:48Z</time>
      </trkpt>
      <trkpt lat="49.30456" lon="-1.67577">
        <ele>9.6</ele>
        <time>2020-06-12T07:00:49Z</time>
      </trkpt>
      <trkpt lat="49.30461" lon="-1.6758">
        <ele>9.6</ele>
        <time>2020-06-12T07:00:50Z</time>
      </trkpt>
      <trkpt lat="49.30467" lon="-1.67582">
        <ele>9.6</ele>
        <time>2020-06-12T07:00:51Z</time>
      </trkpt>
      <trkpt lat="49.30472" lon="-1.67584">
        <ele>9.6</ele>
        <time>2020-06-12T07:00:52Z</time>
      </trkpt>
      <trkpt lat="49.30478" lon="-1.67586">
        <ele>9.6</ele>
        <time>2020-06-12T07:00:53Z</time>
      </trkpt>
      <trkpt lat="49.30484" lon="-1.67588">
        <ele>9.7</ele>
        <time>2020-06-12T07:00:54Z</time>
      </trkpt>
      <trkpt lat="49.3049" lon="-1.67591">
        <ele>9.7</ele>
        <time>2020-06-12T07:00:55Z</time>
      </trkpt>
      <trkpt lat="49.30496" lon="-1.67594">
        <ele>9.8</ele>
        <time>2020-06-12T07:00:56Z</time>
      </trkpt>
      <trkpt lat="49.30502" lon="-1.67598">
        <ele>9.8</ele>
        <time>2020-06-12T07:00:57Z</time>
      </trkpt>
      <trkpt lat="49.30507" lon="-1.67601">
        <ele>9.9</ele>
        <time>2020-06-12T07:00:58Z</time>
      </trkpt>
      <trkpt lat="49.30512" lon="-1.67605">
        <ele>9.9</ele>
        <time>2020-06-12T07:00:59Z</time>
      </trkpt>
      <trkpt lat="49.30518" lon="-1.67609">
        <ele>10</ele>
        <time>2020-06-12T07:01:00Z</time>
      </trkpt>
      <trkpt lat="49.30524" lon="-1.67612">
        <ele>10</ele>
        <time>2020-06-12T07:01:01Z</time>
      </trkpt>
      <trkpt lat="49.30528" lon="-1.67615">
        <ele>10.1</ele>
        <time>2020-06-12T07:01:02Z</time>
      </trkpt>
      <trkpt lat="49.30533" lon="-1.67618">
        <ele>10.1</ele>
        <time>2020-06-12T07:01:03Z</time>
      </trkpt>
      <trkpt lat="49.30539" lon="-1.67622">
        <ele>10.2</ele>
        <time>2020-06-12T07:01:04Z</time>
      </trkpt>
      <trkpt lat="49.30545" lon="-1.67626">
        <ele>10.2</ele>
        <time>2020-06-12T07:01:05Z</time>
      </trkpt>
      <trkpt lat="49.3055" lon="-1.67628">
        <ele>10.2</ele>
        <time>2020-06-12T07:01:06Z</time>
      </trkpt>
      <trkpt lat="49.30554" lon="-1.67631">
        <ele>10.2</ele>
        <time>2020-06-12T07:01:07Z</time>
      </trkpt>
      <trkpt lat="49.3056" lon="-1.67634">
        <ele>10.2</ele>
        <time>2020-06-12T07:01:08Z</time>
      </trkpt>
      <trkpt lat="49.30566" lon="-1.67637">
        <ele>10.2</ele>
        <time>2020-06-12T07:01:09Z</time>
      </trkpt>
      <trkpt lat="49.30571" lon="-1.67639">
        <ele>10.3</ele>
        <time>2020-06-12T07:01:10Z</time>
      </trkpt>
      <trkpt lat="49.30576" lon="-1.67643">
        <ele>10.3</ele>
        <time>2020-06-12T07:01:11Z</time>
      </trkpt>
      <trkpt lat="49.30582" lon="-1.67647">
        <ele>10.3</ele>
        <time>2020-06-12T07:01:12Z</time>
      </trkpt>
      <trkpt lat="49.30588" lon="-1.67651">
        <ele>10.4</ele>
        <time>2020-06-12T07:01:13Z</time>
      </trkpt>
      <trkpt lat="49.30593" lon="-1.67654">
        <ele>10.4</ele>
        <time>2020-06-12T07:01:14Z</time>
      </trkpt>
      <trkpt lat="49.30599" lon="-1.67658">
        <ele>10.5</ele>
        <time>2020-06-12T07:01:15Z</time>
      </trkpt>
      <trkpt lat="49.30604" lon="-1.6766">
        <ele>10.5</ele>
        <time>2020-06-12T07:01:16Z</time>
      </trkpt>
      <trkpt lat="49.30609" lon="-1.67662">
        <ele>10.6</ele>
        <time>2020-06-12T07:01:17Z</time>
      </trkpt>
      <trkpt lat="49.30616" lon="-1.67666">
        <ele>10.8</ele>
        <time>2020-06-12T07:01:18Z</time>
      </trkpt>
      <trkpt lat="49.30623" lon="-1.67669">
        <ele>10.7</ele>
        <time>2020-06-12T07:01:19Z</time>
      </trkpt>
      <trkpt lat="49.30628" lon="-1.67671">
        <ele>10.7</ele>
        <time>2020-06-12T07:01:20Z</time>
      </trkpt>
      <trkpt lat="49.30634" lon="-1.67673">
        <ele>10.6</ele>
        <time>2020-06-12T07:01:21Z</time>
      </trkpt>
      <trkpt lat="49.30641" lon="-1.67675">
        <ele>10.6</ele>
        <time>2020-06-12T07:01:22Z</time>
      </trkpt>
      <trkpt lat="49.30647" lon="-1.67678">
        <ele>10.6</ele>
        <time>2020-06-12T07:01:23Z</time>
      </trkpt>
      <trkpt lat="49.30652" lon="-1.67681">
        <ele>10.6</ele>
        <time>2020-06-12T07:01:24Z</time>
      </trkpt>
      <trkpt lat="49.30657" lon="-1.67684">
        <ele>10.6</ele>
        <time>2020-06-12T07:01:25Z</time>
      </trkpt>
      <trkpt lat="49.30662" lon="-1.67687">
        <ele>10.7</ele>
        <time>2020-06-12T07:01:26Z</time>
      </trkpt>
      <trkpt lat="49.30668" lon="-1.67691">
        <ele>10.7</ele>
        <time>2020-06-12T07:01:27Z</time>
      </trkpt>
      <trkpt lat="49.30674" lon="-1.67695">
        <ele>10.7</ele>
        <time>2020-06-12T07:01:28Z</time>
      </trkpt>
      <trkpt lat="49.30678" lon="-1.67697">
        <ele>10.7</ele>
        <time>2020-06-12T07:01:29Z</time>
      </trkpt>
      <trkpt lat="49.30683" lon="-1.677">
        <ele>10.8</ele>
        <time>2020-06-12T07:01:30Z</time>
      </trkpt>
      <trkpt lat="49.30688" lon="-1.67703">
        <ele>10.8</ele>
        <time>2020-06-12T07:01:31Z</time>
      </trkpt>
      <trkpt lat="49.30693" lon="-1.67706">
        <ele>10.8</ele>
        <time>2020-06-12T07:01:32Z</time>
      </trkpt>
      <trkpt lat="49.307" lon="-1.6771">
        <ele>10.9</ele>
        <time>2020-06-12T07:01:33Z</time>
      </trkpt>
      <trkpt lat="49.30707" lon="-1.67714">
        <ele>10.9</ele>
        <time>2020-06-12T07:01:34Z</time>
      </trkpt>
      <trkpt lat="49.30712" lon="-1.67716">
        <ele>11</ele>
        <time>2020-06-12T07:01:35Z</time>
      </trkpt>
      <trkpt lat="49.30718" lon="-1.67719">
        <ele>11</ele>
        <time>2020-06-12T07:01:36Z</time>
      </trkpt>
      <trkpt lat="49.30723" lon="-1.67721">
        <ele>11</ele>
        <time>2020-06-12T07:01:37Z</time>
      </trkpt>
      <trkpt lat="49.30729" lon="-1.67723">
        <ele>11.1</ele>
        <time>2020-06-12T07:01:38Z</time>
      </trkpt>
      <trkpt lat="49.30734" lon="-1.67726">
        <ele>11.1</ele>
        <time>2020-06-12T07:01:39Z</time>
      </trkpt>
      <trkpt lat="49.30741" lon="-1.67729">
        <ele>11.2</ele>
        <time>2020-06-12T07:01:40Z</time>
      </trkpt>
      <trkpt lat="49.30747" lon="-1.67733">
        <ele>11.2</ele>
        <time>2020-06-12T07:01:41Z</time>
      </trkpt>
      <trkpt lat="49.30752" lon="-1.67735">
        <ele>11.2</ele>
        <time>2020-06-12T07:01:42Z</time>
      </trkpt>
      <trkpt lat="49.30758" lon="-1.67739">
        <ele>11.2</ele>
        <time>2020-06-12T07:01:43Z</time>
      </trkpt>
      <trkpt lat="49.30764" lon="-1.67742">
        <ele>11.3</ele>
        <time>2020-06-12T07:01:44Z</time>
      </trkpt>
      <trkpt lat="49.3077" lon="-1.67745">
        <ele>11.3</ele>
        <time>2020-06-12T07:01:45Z</time>
      </trkpt>
      <trkpt lat="49.30775" lon="-1.67748">
        <ele>11.3</ele>
        <time>2020-06-12T07:01:46Z</time>
      </trkpt>
      <trkpt lat="49.30781" lon="-1.67751">
        <ele>11.3</ele>
        <time>2020-06-12T07:01:47Z</time>
      </trkpt>
      <trkpt lat="49.30786" lon="-1.67754">
        <ele>11.3</ele>
        <time>2020-06-12T07:01:48Z</time>
      </trkpt>
      <trkpt lat="49.30792" lon="-1.67757">
        <ele>11.4</ele>
        <time>2020-06-12T07:01:49Z</time>
      </trkpt>
      <trkpt lat="49.30797" lon="-1.67761">
        <ele>11.4</ele>
        <time>2020-06-12T07:01:50Z</time>
      </trkpt>
      <trkpt lat="49.30804" lon="-1.67764">
        <ele>11.4</ele>
        <time>2020-06-12T07:01:51Z</time>
      </trkpt>
      <trkpt lat="49.3081" lon="-1.67768">
        <ele>11.5</ele>
        <time>2020-06-12T07:01:52Z</time>
      </trkpt>
      <trkpt lat="49.30815" lon="-1.67771">
        <ele>11.5</ele>
        <time>2020-06-12T07:01:53Z</time>
      </trkpt>
      <trkpt lat="49.30821" lon="-1.67774">
        <ele>11.6</ele>
        <time>2020-06-12T07:01:54Z</time>
      </trkpt>
      <trkpt lat="49.30826" lon="-1.67777">
        <ele>11.6</ele>
        <time>2020-06-12T07:01:55Z</time>
      </trkpt>
      <trkpt lat="49.30832" lon="-1.67781">
        <ele>11.7</ele>
        <time>2020-06-12T07:01:56Z</time>
      </trkpt>
      <trkpt lat="49.30839" lon="-1.67784">
        <ele>11.7</ele>
        <time>2020-06-12T07:01:57Z</time>
      </trkpt>
      <trkpt lat="49.30845" lon="-1.67787">
        <ele>11.8</ele>
        <time>2020-06-12T07:01:58Z</time>
      </trkpt>
      <trkpt lat="49.30851" lon="-1.6779">
        <ele>11.8</ele>
        <time>2020-06-12T07:01:59Z</time>
      </trkpt>
      <trkpt lat="49.30857" lon="-1.67793">
        <ele>11.9</ele>
        <time>2020-06-12T07:02:00Z</time>
      </trkpt>
      <trkpt lat="49.30864" lon="-1.67796">
        <ele>11.9</ele>
        <time>2020-06-12T07:02:01Z</time>
      </trkpt>
      <trkpt lat="49.3087" lon="-1.67801">
        <ele>12</ele>
        <time>2020-06-12T07:02:02Z</time>
      </trkpt>
      <trkpt lat="49.30876" lon="-1.67804">
        <ele>12</ele>
        <time>2020-06-12T07:02:03Z</time>
      </trkpt>
      <trkpt lat="49.30883" lon="-1.67808">
        <ele>12</ele>
        <time>2020-06-12T07:02:04Z</time>
      </trkpt>
      <trkpt lat="49.30889" lon="-1.67811">
        <ele>12.1</ele>
        <time>2020-06-12T07:02:05Z</time>
      </trkpt>
      <trkpt lat="49.30895" lon="-1.67813">
        <ele>12.2</ele>
        <time>2020-06-12T07:02:06Z</time>
      </trkpt>
      <trkpt lat="49.309" lon="-1.67815">
        <ele>12.2</ele>
        <time>2020-06-12T07:02:07Z</time>
      </trkpt>
      <trkpt lat="49.30905" lon="-1.67818">
        <ele>12.3</ele>
        <time>2020-06-12T07:02:08Z</time>
      </trkpt>
      <trkpt lat="49.30911" lon="-1.6782">
        <ele>12.4</ele>
        <time>2020-06-12T07:02:09Z</time>
      </trkpt>
      <trkpt lat="49.30917" lon="-1.67822">
        <ele>12.5</ele>
        <time>2020-06-12T07:02:10Z</time>
      </trkpt>
      <trkpt lat="49.30922" lon="-1.67824">
        <ele>12.6</ele>
        <time>2020-06-12T07:02:11Z</time>
      </trkpt>
      <trkpt lat="49.30927" lon="-1.67827">
        <ele>12.7</ele>
        <time>2020-06-12T07:02:12Z</time>
      </trkpt>
      <trkpt lat="49.30933" lon="-1.6783">
        <ele>12.8</ele>
        <time>2020-06-12T07:02:13Z</time>
      </trkpt>
      <trkpt lat="49.3094" lon="-1.67834">
        <ele>12.8</ele>
        <time>2020-06-12T07:02:14Z</time>
      </trkpt>
      <trkpt lat="49.30945" lon="-1.67837">
        <ele>12.8</ele>
        <time>2020-06-12T07:02:15Z</time>
      </trkpt>
      <trkpt lat="49.30952" lon="-1.67841">
        <ele>12.8</ele>
        <time>2020-06-12T07:02:16Z</time>
      </trkpt>
      <trkpt lat="49.30957" lon="-1.67844">
        <ele>12.8</ele>
        <time>2020-06-12T07:02:17Z</time>
      </trkpt>
      <trkpt lat="49.30962" lon="-1.67848">
        <ele>12.9</ele>
        <time>2020-06-12T07:02:18Z</time>
      </trkpt>
      <trkpt lat="49.30967" lon="-1.67851">
        <ele>12.9</ele>
        <time>2020-06-12T07:02:19Z</time>
      </trkpt>
      <trkpt lat="49.30972" lon="-1.67853">
        <ele>12.9</ele>
        <time>2020-06-12T07:02:20Z</time>
      </trkpt>
      <trkpt lat="49.30977" lon="-1.67856">
        <ele>12.9</ele>
        <time>2020-06-12T07:02:21Z</time>
      </trkpt>
      <trkpt lat="49.30984" lon="-1.67861">
        <ele>12.9</ele>
        <time>2020-06-12T07:02:22Z</time>
      </trkpt>
      <trkpt lat="49.30989" lon="-1.67864">
        <ele>12.9</ele>
        <time>2020-06-12T07:02:23Z</time>
      </trkpt>
      <trkpt lat="49.30996" lon="-1.67868">
        <ele>12.9</ele>
        <time>2020-06-12T07:02:24Z</time>
      </trkpt>
      <trkpt lat="49.31002" lon="-1.67872">
        <ele>12.9</ele>
        <time>2020-06-12T07:02:25Z</time>
      </trkpt>
      <trkpt lat="49.31008" lon="-1.67876">
        <ele>12.9</ele>
        <time>2020-06-12T07:02:26Z</time>
      </trkpt>
      <trkpt lat="49.31013" lon="-1.67879">
        <ele>12.9</ele>
        <time>2020-06-12T07:02:27Z</time>
      </trkpt>
      <trkpt lat="49.31019" lon="-1.67882">
        <ele>12.9</ele>
        <time>2020-06-12T07:02:28Z</time>
      </trkpt>
      <trkpt lat="49.31025" lon="-1.67884">
        <ele>12.9</ele>
        <time>2020-06-12T07:02:29Z</time>
      </trkpt>
      <trkpt lat="49.31031" lon="-1.67887">
        <ele>13</ele>
        <time>2020-06-12T07:02:30Z</time>
      </trkpt>
      <trkpt lat="49.31037" lon="-1.6789">
        <ele>13.1</ele>
        <time>2020-06-12T07:02:31Z</time>
      </trkpt>
      <trkpt lat="49.31043" lon="-1.67893">
        <ele>13.1</ele>
        <time>2020-06-12T07:02:32Z</time>
      </trkpt>
      <trkpt lat="49.31049" lon="-1.67895">
        <ele>13.1</ele>
        <time>2020-06-12T07:02:33Z</time>
      </trkpt>
      <trkpt lat="49.31056" lon="-1.67898">
        <ele>13.1</ele>
        <time>2020-06-12T07:02:34Z</time>
      </trkpt>
      <trkpt lat="49.31062" lon="-1.67902">
        <ele>13.1</ele>
        <time>2020-06-12T07:02:35Z</time>
      </trkpt>
      <trkpt lat="49.31068" lon="-1.67906">
        <ele>13.1</ele>
        <time>2020-06-12T07:02:36Z</time>
      </trkpt>
      <trkpt lat="49.31075" lon="-1.6791">
        <ele>13.1</ele>
        <time>2020-06-12T07:02:37Z</time>
      </trkpt>
      <trkpt lat="49.3108" lon="-1.67914">
        <ele>13.1</ele>
        <time>2020-06-12T07:02:38Z</time>
      </trkpt>
      <trkpt lat="49.31086" lon="-1.67918">
        <ele>13.1</ele>
        <time>2020-06-12T07:02:39Z</time>
      </trkpt>
      <trkpt lat="49.31091" lon="-1.67921">
        <ele>13.1</ele>
        <time>2020-06-12T07:02:40Z</time>
      </trkpt>
      <trkpt lat="49.31096" lon="-1.67924">
        <ele>13.2</ele>
        <time>2020-06-12T07:02:41Z</time>
      </trkpt>
      <trkpt lat="49.31103" lon="-1.67928">
        <ele>13.2</ele>
        <time>2020-06-12T07:02:42Z</time>
      </trkpt>
      <trkpt lat="49.31107" lon="-1.67932">
        <ele>13.2</ele>
        <time>2020-06-12T07:02:43Z</time>
      </trkpt>
      <trkpt lat="49.31112" lon="-1.67936">
        <ele>13.2</ele>
        <time>2020-06-12T07:02:44Z</time>
      </trkpt>
      <trkpt lat="49.31117" lon="-1.67939">
        <ele>13.3</ele>
        <time>2020-06-12T07:02:45Z</time>
      </trkpt>
      <trkpt lat="49.31121" lon="-1.67942">
        <ele>13.3</ele>
        <time>2020-06-12T07:02:46Z</time>
      </trkpt>
      <trkpt lat="49.31126" lon="-1.67945">
        <ele>13.3</ele>
        <time>2020-06-12T07:02:47Z</time>
      </trkpt>
      <trkpt lat="49.31131" lon="-1.67948">
        <ele>13.3</ele>
        <time>2020-06-12T07:02:48Z</time>
      </trkpt>
      <trkpt lat="49.31137" lon="-1.67951">
        <ele>13.4</ele>
        <time>2020-06-12T07:02:49Z</time>
      </trkpt>
      <trkpt lat="49.31143" lon="-1.67954">
        <ele>13.4</ele>
        <time>2020-06-12T07:02:50Z</time>
      </trkpt>
      <trkpt lat="49.31149" lon="-1.67957">
        <ele>13.4</ele>
        <time>2020-06-12T07:02:51Z</time>
      </trkpt>
      <trkpt lat="49.31155" lon="-1.6796">
        <ele>13.4</ele>
        <time>2020-06-12T07:02:52Z</time>
      </trkpt>
      <trkpt lat="49.31162" lon="-1.67964">
        <ele>13.5</ele>
        <time>2020-06-12T07:02:53Z</time>
      </trkpt>
      <trkpt lat="49.31167" lon="-1.67966">
        <ele>13.5</ele>
        <time>2020-06-12T07:02:54Z</time>
      </trkpt>
      <trkpt lat="49.31173" lon="-1.67969">
        <ele>13.5</ele>
        <time>2020-06-12T07:02:55Z</time>
      </trkpt>
      <trkpt lat="49.31178" lon="-1.67972">
        <ele>13.5</ele>
        <time>2020-06-12T07:02:56Z</time>
      </trkpt>
      <trkpt lat="49.31185" lon="-1.67974">
        <ele>13.5</ele>
        <time>2020-06-12T07:02:57Z</time>
      </trkpt>
      <trkpt lat="49.3119" lon="-1.67975">
        <ele>13.6</ele>
        <time>2020-06-12T07:02:58Z</time>
      </trkpt>
      <trkpt lat="49.31198" lon="-1.67978">
        <ele>13.6</ele>
        <time>2020-06-12T07:02:59Z</time>
      </trkpt>
      <trkpt lat="49.31203" lon="-1.6798">
        <ele>13.6</ele>
        <time>2020-06-12T07:03:00Z</time>
      </trkpt>
      <trkpt lat="49.31211" lon="-1.67981">
        <ele>13.6</ele>
        <time>2020-06-12T07:03:01Z</time>
      </trkpt>
      <trkpt lat="49.31218" lon="-1.67984">
        <ele>13.7</ele>
        <time>2020-06-12T07:03:02Z</time>
      </trkpt>
      <trkpt lat="49.31224" lon="-1.67987">
        <ele>13.7</ele>
        <time>2020-06-12T07:03:03Z</time>
      </trkpt>
      <trkpt lat="49.3123" lon="-1.67991">
        <ele>13.7</ele>
        <time>2020-06-12T07:03:04Z</time>
      </trkpt>
      <trkpt lat="49.31235" lon="-1.67994">
        <ele>13.7</ele>
        <time>2020-06-12T07:03:05Z</time>
      </trkpt>
      <trkpt lat="49.3124" lon="-1.67998">
        <ele>13.8</ele>
        <time>2020-06-12T07:03:06Z</time>
      </trkpt>
      <trkpt lat="49.31246" lon="-1.68001">
        <ele>13.9</ele>
        <time>2020-06-12T07:03:07Z</time>
      </trkpt>
      <trkpt lat="49.31251" lon="-1.68004">
        <ele>14</ele>
        <time>2020-06-12T07:03:08Z</time>
      </trkpt>
      <trkpt lat="49.31257" lon="-1.68007">
        <ele>14.1</ele>
        <time>2020-06-12T07:03:09Z</time>
      </trkpt>
      <trkpt lat="49.31262" lon="-1.6801">
        <ele>14.2</ele>
        <time>2020-06-12T07:03:10Z</time>
      </trkpt>
      <trkpt lat="49.31267" lon="-1.68012">
        <ele>14.1</ele>
        <time>2020-06-12T07:03:11Z</time>
      </trkpt>
      <trkpt lat="49.31272" lon="-1.68015">
        <ele>14.1</ele>
        <time>2020-06-12T07:03:12Z</time>
      </trkpt>
      <trkpt lat="49.31277" lon="-1.68018">
        <ele>14.1</ele>
        <time>2020-06-12T07:03:13Z</time>
      </trkpt>
      <trkpt lat="49.31282" lon="-1.68021">
        <ele>14.1</ele>
        <time>2020-06-12T07:03:14Z</time>
      </trkpt>
      <trkpt lat="49.31287" lon="-1.68024">
        <ele>14</ele>
        <time>2020-06-12T07:03:15Z</time>
      </trkpt>
      <trkpt lat="49.31292" lon="-1.68027">
        <ele>14</ele>
        <time>2020-06-12T07:03:16Z</time>
      </trkpt>
      <trkpt lat="49.31298" lon="-1.68029">
        <ele>14</ele>
        <time>2020-06-12T07:03:17Z</time>
      </trkpt>
      <trkpt lat="49.31303" lon="-1.68031">
        <ele>14</ele>
        <time>2020-06-12T07:03:18Z</time>
      </trkpt>
      <trkpt lat="49.31308" lon="-1.68034">
        <ele>14</ele>
        <time>2020-06-12T07:03:19Z</time>
      </trkpt>
      <trkpt lat="49.31314" lon="-1.68037">
        <ele>14</ele>
        <time>2020-06-12T07:03:20Z</time>
      </trkpt>
      <trkpt lat="49.3132" lon="-1.6804">
        <ele>14.1</ele>
        <time>2020-06-12T07:03:21Z</time>
      </trkpt>
      <trkpt lat="49.31327" lon="-1.68044">
        <ele>14.1</ele>
        <time>2020-06-12T07:03:22Z</time>
      </trkpt>
      <trkpt lat="49.31332" lon="-1.68046">
        <ele>14.1</ele>
        <time>2020-06-12T07:03:23Z</time>
      </trkpt>
      <trkpt lat="49.31337" lon="-1.68048">
        <ele>14.1</ele>
        <time>2020-06-12T07:03:24Z</time>
      </trkpt>
      <trkpt lat="49.31343" lon="-1.68051">
        <ele>14.2</ele>
        <time>2020-06-12T07:03:25Z</time>
      </trkpt>
      <trkpt lat="49.31349" lon="-1.68054">
        <ele>14.2</ele>
        <time>2020-06-12T07:03:26Z</time>
      </trkpt>
      <trkpt lat="49.31355" lon="-1.68056">
        <ele>14.3</ele>
        <time>2020-06-12T07:03:27Z</time>
      </trkpt>
      <trkpt lat="49.3136" lon="-1.68058">
        <ele>14.3</ele>
        <time>2020-06-12T07:03:28Z</time>
      </trkpt>
      <trkpt lat="49.31368" lon="-1.68063">
        <ele>14.4</ele>
        <time>2020-06-12T07:03:29Z</time>
      </trkpt>
      <trkpt lat="49.31375" lon="-1.68065">
        <ele>14.4</ele>
        <time>2020-06-12T07:03:30Z</time>
      </trkpt>
      <trkpt lat="49.31382" lon="-1.68067">
        <ele>14.5</ele>
        <time>2020-06-12T07:03:31Z</time>
      </trkpt>
      <trkpt lat="49.31388" lon="-1.68069">
        <ele>14.6</ele>
        <time>2020-06-12T07:03:32Z</time>
      </trkpt>
      <trkpt lat="49.31394" lon="-1.68071">
        <ele>14.6</ele>
        <time>2020-06-12T07:03:33Z</time>
      </trkpt>
      <trkpt lat="49.314" lon="-1.68073">
        <ele>14.7</ele>
        <time>2020-06-12T07:03:34Z</time>
      </trkpt>
      <trkpt lat="49.31406" lon="-1.68075">
        <ele>14.7</ele>
        <time>2020-06-12T07:03:35Z</time>
      </trkpt>
      <trkpt lat="49.31412" lon="-1.68077">
        <ele>14.7</ele>
        <time>2020-06-12T07:03:36Z</time>
      </trkpt>
      <trkpt lat="49.31418" lon="-1.68078">
        <ele>14.8</ele>
        <time>2020-06-12T07:03:37Z</time>
      </trkpt>
      <trkpt lat="49.31424" lon="-1.68079">
        <ele>14.8</ele>
        <time>2020-06-12T07:03:38Z</time>
      </trkpt>
      <trkpt lat="49.3143" lon="-1.68081">
        <ele>14.8</ele>
        <time>2020-06-12T07:03:39Z</time>
      </trkpt>
      <trkpt lat="49.31436" lon="-1.68083">
        <ele>14.8</ele>
        <time>2020-06-12T07:03:40Z</time>
      </trkpt>
      <trkpt lat="49.31443" lon="-1.68084">
        <ele>14.8</ele>
        <time>2020-06-12T07:03:41Z</time>
      </trkpt>
      <trkpt lat="49.31449" lon="-1.68086">
        <ele>14.8</ele>
        <time>2020-06-12T07:03:42Z</time>
      </trkpt>
      <trkpt lat="49.31455" lon="-1.68087">
        <ele>14.8</ele>
        <time>2020-06-12T07:03:43Z</time>
      </trkpt>
      <trkpt lat="49.31461" lon="-1.68089">
        <ele>14.8</ele>
        <time>2020-06-12T07:03:44Z</time>
      </trkpt>
      <trkpt lat="49.31468" lon="-1.6809">
        <ele>14.8</ele>
        <time>2020-06-12T07:03:45Z</time>
      </trkpt>
      <trkpt lat="49.31474" lon="-1.68091">
        <ele>14.9</ele>
        <time>2020-06-12T07:03:46Z</time>
      </trkpt>
      <trkpt lat="49.31479" lon="-1.68092">
        <ele>15</ele>
        <time>2020-06-12T07:03:47Z</time>
      </trkpt>
      <trkpt lat="49.31485" lon="-1.68093">
        <ele>15.1</ele>
        <time>2020-06-12T07:03:48Z</time>
      </trkpt>
      <trkpt lat="49.31491" lon="-1.68094">
        <ele>15.1</ele>
        <time>2020-06-12T07:03:49Z</time>
      </trkpt>
      <trkpt lat="49.31497" lon="-1.68095">
        <ele>15.1</ele>
        <time>2020-06-12T07:03:50Z</time>
      </trkpt>
      <trkpt lat="49.31503" lon="-1.68095">
        <ele>15</ele>
        <time>2020-06-12T07:03:51Z</time>
      </trkpt>
      <trkpt lat="49.31509" lon="-1.68096">
        <ele>15</ele>
        <time>2020-06-12T07:03:52Z</time>
      </trkpt>
      <trkpt lat="49.31515" lon="-1.68097">
        <ele>15</ele>
        <time>2020-06-12T07:03:53Z</time>
      </trkpt>
      <trkpt lat="49.31521" lon="-1.68098">
        <ele>15</ele>
        <time>2020-06-12T07:03:54Z</time>
      </trkpt>
      <trkpt lat="49.31526" lon="-1.68098">
        <ele>15.1</ele>
        <time>2020-06-12T07:03:55Z</time>
      </trkpt>
      <trkpt lat="49.31531" lon="-1.68098">
        <ele>15.1</ele>
        <time>2020-06-12T07:03:56Z</time>
      </trkpt>
      <trkpt lat="49.31536" lon="-1.68098">
        <ele>15.1</ele>
        <time>2020-06-12T07:03:57Z</time>
      </trkpt>
      <trkpt lat="49.31542" lon="-1.68098">
        <ele>15.1</ele>
        <time>2020-06-12T07:03:58Z</time>
      </trkpt>
      <trkpt lat="49.31547" lon="-1.68097">
        <ele>15.2</ele>
        <time>2020-06-12T07:03:59Z</time>
      </trkpt>
      <trkpt lat="49.31552" lon="-1.68097">
        <ele>15.2</ele>
        <time>2020-06-12T07:04:00Z</time>
      </trkpt>
      <trkpt lat="49.31558" lon="-1.68097">
        <ele>15.2</ele>
        <time>2020-06-12T07:04:01Z</time>
      </trkpt>
      <trkpt lat="49.31563" lon="-1.68097">
        <ele>15.2</ele>
        <time>2020-06-12T07:04:02Z</time>
      </trkpt>
      <trkpt lat="49.31568" lon="-1.68097">
        <ele>15.3</ele>
        <time>2020-06-12T07:04:03Z</time>
      </trkpt>
      <trkpt lat="49.31573" lon="-1.68096">
        <ele>15.3</ele>
        <time>2020-06-12T07:04:04Z</time>
      </trkpt>
      <trkpt lat="49.31579" lon="-1.68096">
        <ele>15.3</ele>
        <time>2020-06-12T07:04:05Z</time>
      </trkpt>
      <trkpt lat="49.31585" lon="-1.68095">
        <ele>15.4</ele>
        <time>2020-06-12T07:04:06Z</time>
      </trkpt>
      <trkpt lat="49.31591" lon="-1.68093">
        <ele>15.4</ele>
        <time>2020-06-12T07:04:07Z</time>
      </trkpt>
      <trkpt lat="49.31597" lon="-1.68092">
        <ele>15.5</ele>
        <time>2020-06-12T07:04:08Z</time>
      </trkpt>
      <trkpt lat="49.31605" lon="-1.68091">
        <ele>15.5</ele>
        <time>2020-06-12T07:04:09Z</time>
      </trkpt>
      <trkpt lat="49.31611" lon="-1.6809">
        <ele>15.5</ele>
        <time>2020-06-12T07:04:10Z</time>
      </trkpt>
      <trkpt lat="49.31618" lon="-1.6809">
        <ele>15.5</ele>
        <time>2020-06-12T07:04:11Z</time>
      </trkpt>
      <trkpt lat="49.31624" lon="-1.68089">
        <ele>15.6</ele>
        <time>2020-06-12T07:04:12Z</time>
      </trkpt>
      <trkpt lat="49.31629" lon="-1.68088">
        <ele>15.6</ele>
        <time>2020-06-12T07:04:13Z</time>
      </trkpt>
      <trkpt lat="49.31635" lon="-1.68088">
        <ele>15.6</ele>
        <time>2020-06-12T07:04:14Z</time>
      </trkpt>
      <trkpt lat="49.3164" lon="-1.68087">
        <ele>15.6</ele>
        <time>2020-06-12T07:04:15Z</time>
      </trkpt>
      <trkpt lat="49.31646" lon="-1.68085">
        <ele>15.6</ele>
        <time>2020-06-12T07:04:16Z</time>
      </trkpt>
      <trkpt lat="49.31652" lon="-1.68084">
        <ele>15.6</ele>
        <time>2020-06-12T07:04:17Z</time>
      </trkpt>
      <trkpt lat="49.31658" lon="-1.68083">
        <ele>15.7</ele>
        <time>2020-06-12T07:04:18Z</time>
      </trkpt>
      <trkpt lat="49.31664" lon="-1.68082">
        <ele>15.7</ele>
        <time>2020-06-12T07:04:19Z</time>
      </trkpt>
      <trkpt lat="49.3167" lon="-1.68081">
        <ele>15.7</ele>
        <time>2020-06-12T07:04:20Z</time>
      </trkpt>
      <trkpt lat="49.31677" lon="-1.68079">
        <ele>15.7</ele>
        <time>2020-06-12T07:04:21Z</time>
      </trkpt>
      <trkpt lat="49.31682" lon="-1.68078">
        <ele>15.7</ele>
        <time>2020-06-12T07:04:22Z</time>
      </trkpt>
      <trkpt lat="49.31688" lon="-1.68077">
        <ele>15.7</ele>
        <time>2020-06-12T07:04:23Z</time>
      </trkpt>
      <trkpt lat="49.31694" lon="-1.68075">
        <ele>15.6</ele>
        <time>2020-06-12T07:04:24Z</time>
      </trkpt>
      <trkpt lat="49.317" lon="-1.68073">
        <ele>15.6</ele>
        <time>2020-06-12T07:04:25Z</time>
      </trkpt>
      <trkpt lat="49.31706" lon="-1.68071">
        <ele>15.6</ele>
        <time>2020-06-12T07:04:26Z</time>
      </trkpt>
      <trkpt lat="49.31712" lon="-1.68069">
        <ele>15.6</ele>
        <time>2020-06-12T07:04:27Z</time>
      </trkpt>
      <trkpt lat="49.31719" lon="-1.68068">
        <ele>15.6</ele>
        <time>2020-06-12T07:04:28Z</time>
      </trkpt>
      <trkpt lat="49.31724" lon="-1.68067">
        <ele>15.6</ele>
        <time>2020-06-12T07:04:29Z</time>
      </trkpt>
      <trkpt lat="49.31729" lon="-1.68065">
        <ele>15.6</ele>
        <time>2020-06-12T07:04:30Z</time>
      </trkpt>
      <trkpt lat="49.31735" lon="-1.68064">
        <ele>15.6</ele>
        <time>2020-06-12T07:04:31Z</time>
      </trkpt>
      <trkpt lat="49.31742" lon="-1.68062">
        <ele>15.6</ele>
        <time>2020-06-12T07:04:32Z</time>
      </trkpt>
      <trkpt lat="49.31748" lon="-1.6806">
        <ele>15.6</ele>
        <time>2020-06-12T07:04:33Z</time>
      </trkpt>
      <trkpt lat="49.31754" lon="-1.68058">
        <ele>15.6</ele>
        <time>2020-06-12T07:04:34Z</time>
      </trkpt>
      <trkpt lat="49.31761" lon="-1.68055">
        <ele>15.5</ele>
        <time>2020-06-12T07:04:35Z</time>
      </trkpt>
      <trkpt lat="49.31767" lon="-1.68052">
        <ele>15.5</ele>
        <time>2020-06-12T07:04:36Z</time>
      </trkpt>
      <trkpt lat="49.31774" lon="-1.6805">
        <ele>15.4</ele>
        <time>2020-06-12T07:04:37Z</time>
      </trkpt>
      <trkpt lat="49.31781" lon="-1.68048">
        <ele>15.3</ele>
        <time>2020-06-12T07:04:38Z</time>
      </trkpt>
      <trkpt lat="49.31786" lon="-1.68045">
        <ele>15.3</ele>
        <time>2020-06-12T07:04:39Z</time>
      </trkpt>
      <trkpt lat="49.31792" lon="-1.68044">
        <ele>15.2</ele>
        <time>2020-06-12T07:04:40Z</time>
      </trkpt>
      <trkpt lat="49.31797" lon="-1.68042">
        <ele>15.2</ele>
        <time>2020-06-12T07:04:41Z</time>
      </trkpt>
      <trkpt lat="49.31804" lon="-1.68039">
        <ele>15.2</ele>
        <time>2020-06-12T07:04:42Z</time>
      </trkpt>
      <trkpt lat="49.3181" lon="-1.68037">
        <ele>15.1</ele>
        <time>2020-06-12T07:04:43Z</time>
      </trkpt>
      <trkpt lat="49.31817" lon="-1.68034">
        <ele>15.1</ele>
        <time>2020-06-12T07:04:44Z</time>
      </trkpt>
      <trkpt lat="49.31823" lon="-1.68032">
        <ele>15.1</ele>
        <time>2020-06-12T07:04:45Z</time>
      </trkpt>
      <trkpt lat="49.31829" lon="-1.6803">
        <ele>15.1</ele>
        <time>2020-06-12T07:04:46Z</time>
      </trkpt>
      <trkpt lat="49.31835" lon="-1.68029">
        <ele>15.1</ele>
        <time>2020-06-12T07:04:47Z</time>
      </trkpt>
      <trkpt lat="49.31842" lon="-1.68027">
        <ele>15.1</ele>
        <time>2020-06-12T07:04:48Z</time>
      </trkpt>
      <trkpt lat="49.31848" lon="-1.68024">
        <ele>15.1</ele>
        <time>2020-06-12T07:04:49Z</time>
      </trkpt>
      <trkpt lat="49.31855" lon="-1.68023">
        <ele>15.1</ele>
        <time>2020-06-12T07:04:50Z</time>
      </trkpt>
      <trkpt lat="49.31861" lon="-1.68021">
        <ele>15.1</ele>
        <time>2020-06-12T07:04:51Z</time>
      </trkpt>
      <trkpt lat="49.31867" lon="-1.68019">
        <ele>15.1</ele>
        <time>2020-06-12T07:04:52Z</time>
      </trkpt>
      <trkpt lat="49.31873" lon="-1.68017">
        <ele>15</ele>
        <time>2020-06-12T07:04:53Z</time>
      </trkpt>
      <trkpt lat="49.3188" lon="-1.68015">
        <ele>15</ele>
        <time>2020-06-12T07:04:54Z</time>
      </trkpt>
      <trkpt lat="49.31885" lon="-1.68013">
        <ele>15</ele>
        <time>2020-06-12T07:04:55Z</time>
      </trkpt>
      <trkpt lat="49.31891" lon="-1.68011">
        <ele>14.9</ele>
        <time>2020-06-12T07:04:56Z</time>
      </trkpt>
      <trkpt lat="49.31897" lon="-1.68009">
        <ele>14.9</ele>
        <time>2020-06-12T07:04:57Z</time>
      </trkpt>
      <trkpt lat="49.31903" lon="-1.68007">
        <ele>14.8</ele>
        <time>2020-06-12T07:04:58Z</time>
      </trkpt>
      <trkpt lat="49.31908" lon="-1.68005">
        <ele>14.8</ele>
        <time>2020-06-12T07:04:59Z</time>
      </trkpt>
      <trkpt lat="49.31913" lon="-1.68002">
        <ele>14.8</ele>
        <time>2020-06-12T07:05:00Z</time>
      </trkpt>
      <trkpt lat="49.31919" lon="-1.68">
        <ele>14.7</ele>
        <time>2020-06-12T07:05:01Z</time>
      </trkpt>
      <trkpt lat="49.31925" lon="-1.67997">
        <ele>14.7</ele>
        <time>2020-06-12T07:05:02Z</time>
      </trkpt>
      <trkpt lat="49.31931" lon="-1.67995">
        <ele>14.7</ele>
        <time>2020-06-12T07:05:03Z</time>
      </trkpt>
      <trkpt lat="49.31937" lon="-1.67993">
        <ele>14.6</ele>
        <time>2020-06-12T07:05:04Z</time>
      </trkpt>
      <trkpt lat="49.31945" lon="-1.6799">
        <ele>14.6</ele>
        <time>2020-06-12T07:05:05Z</time>
      </trkpt>
      <trkpt lat="49.31951" lon="-1.67988">
        <ele>14.5</ele>
        <time>2020-06-12T07:05:06Z</time>
      </trkpt>
      <trkpt lat="49.31957" lon="-1.67986">
        <ele>14.5</ele>
        <time>2020-06-12T07:05:07Z</time>
      </trkpt>
      <trkpt lat="49.31963" lon="-1.67984">
        <ele>14.4</ele>
        <time>2020-06-12T07:05:08Z</time>
      </trkpt>
      <trkpt lat="49.3197" lon="-1.67982">
        <ele>14.4</ele>
        <time>2020-06-12T07:05:09Z</time>
      </trkpt>
      <trkpt lat="49.31976" lon="-1.6798">
        <ele>14.4</ele>
        <time>2020-06-12T07:05:10Z</time>
      </trkpt>
      <trkpt lat="49.31983" lon="-1.67978">
        <ele>14.3</ele>
        <time>2020-06-12T07:05:11Z</time>
      </trkpt>
      <trkpt lat="49.31989" lon="-1.67976">
        <ele>14.3</ele>
        <time>2020-06-12T07:05:12Z</time>
      </trkpt>
      <trkpt lat="49.31995" lon="-1.67974">
        <ele>14.3</ele>
        <time>2020-06-12T07:05:13Z</time>
      </trkpt>
      <trkpt lat="49.32002" lon="-1.67972">
        <ele>14.2</ele>
        <time>2020-06-12T07:05:14Z</time>
      </trkpt>
      <trkpt lat="49.32007" lon="-1.6797">
        <ele>14.2</ele>
        <time>2020-06-12T07:05:15Z</time>
      </trkpt>
      <trkpt lat="49.32014" lon="-1.67968">
        <ele>14.1</ele>
        <time>2020-06-12T07:05:16Z</time>
      </trkpt>
      <trkpt lat="49.32019" lon="-1.67966">
        <ele>14.1</ele>
        <time>2020-06-12T07:05:17Z</time>
      </trkpt>
      <trkpt lat="49.32026" lon="-1.67963">
        <ele>14.1</ele>
        <time>2020-06-12T07:05:18Z</time>
      </trkpt>
      <trkpt lat="49.32032" lon="-1.67961">
        <ele>14.1</ele>
        <time>2020-06-12T07:05:19Z</time>
      </trkpt>
      <trkpt lat="49.32039" lon="-1.67959">
        <ele>14.1</ele>
        <time>2020-06-12T07:05:20Z</time>
      </trkpt>
      <trkpt lat="49.32045" lon="-1.67957">
        <ele>14.1</ele>
        <time>2020-06-12T07:05:21Z</time>
      </trkpt>
      <trkpt lat="49.32052" lon="-1.67954">
        <ele>14</ele>
        <time>2020-06-12T07:05:22Z</time>
      </trkpt>
      <trkpt lat="49.32058" lon="-1.67952">
        <ele>13.9</ele>
        <time>2020-06-12T07:05:23Z</time>
      </trkpt>
      <trkpt lat="49.32065" lon="-1.67949">
        <ele>13.9</ele>
        <time>2020-06-12T07:05:24Z</time>
      </trkpt>
      <trkpt lat="49.32072" lon="-1.67948">
        <ele>13.8</ele>
        <time>2020-06-12T07:05:25Z</time>
      </trkpt>
      <trkpt lat="49.32078" lon="-1.67946">
        <ele>13.8</ele>
        <time>2020-06-12T07:05:26Z</time>
      </trkpt>
      <trkpt lat="49.32085" lon="-1.67944">
        <ele>13.7</ele>
        <time>2020-06-12T07:05:27Z</time>
      </trkpt>
      <trkpt lat="49.32092" lon="-1.67942">
        <ele>13.7</ele>
        <time>2020-06-12T07:05:28Z</time>
      </trkpt>
      <trkpt lat="49.32098" lon="-1.67941">
        <ele>13.6</ele>
        <time>2020-06-12T07:05:29Z</time>
      </trkpt>
      <trkpt lat="49.32104" lon="-1.67939">
        <ele>13.6</ele>
        <time>2020-06-12T07:05:30Z</time>
      </trkpt>
      <trkpt lat="49.32111" lon="-1.67938">
        <ele>13.6</ele>
        <time>2020-06-12T07:05:31Z</time>
      </trkpt>
      <trkpt lat="49.32117" lon="-1.67936">
        <ele>13.6</ele>
        <time>2020-06-12T07:05:32Z</time>
      </trkpt>
      <trkpt lat="49.32123" lon="-1.67934">
        <ele>13.6</ele>
        <time>2020-06-12T07:05:33Z</time>
      </trkpt>
      <trkpt lat="49.3213" lon="-1.67931">
        <ele>13.6</ele>
        <time>2020-06-12T07:05:34Z</time>
      </trkpt>
      <trkpt lat="49.32137" lon="-1.67929">
        <ele>13.5</ele>
        <time>2020-06-12T07:05:35Z</time>
      </trkpt>
      <trkpt lat="49.32143" lon="-1.67927">
        <ele>13.5</ele>
        <time>2020-06-12T07:05:36Z</time>
      </trkpt>
      <trkpt lat="49.3215" lon="-1.67924">
        <ele>13.5</ele>
        <time>2020-06-12T07:05:37Z</time>
      </trkpt>
      <trkpt lat="49.32157" lon="-1.67921">
        <ele>13.5</ele>
        <time>2020-06-12T07:05:38Z</time>
      </trkpt>
      <trkpt lat="49.32163" lon="-1.67918">
        <ele>13.5</ele>
        <time>2020-06-12T07:05:39Z</time>
      </trkpt>
      <trkpt lat="49.3217" lon="-1.67916">
        <ele>13.5</ele>
        <time>2020-06-12T07:05:40Z</time>
      </trkpt>
      <trkpt lat="49.32176" lon="-1.67914">
        <ele>13.5</ele>
        <time>2020-06-12T07:05:41Z</time>
      </trkpt>
      <trkpt lat="49.32183" lon="-1.67912">
        <ele>13.5</ele>
        <time>2020-06-12T07:05:42Z</time>
      </trkpt>
      <trkpt lat="49.32189" lon="-1.67909">
        <ele>13.5</ele>
        <time>2020-06-12T07:05:43Z</time>
      </trkpt>
      <trkpt lat="49.32195" lon="-1.67906">
        <ele>13.5</ele>
        <time>2020-06-12T07:05:44Z</time>
      </trkpt>
      <trkpt lat="49.32202" lon="-1.67904">
        <ele>13.4</ele>
        <time>2020-06-12T07:05:45Z</time>
      </trkpt>
      <trkpt lat="49.32208" lon="-1.67903">
        <ele>13.3</ele>
        <time>2020-06-12T07:05:46Z</time>
      </trkpt>
      <trkpt lat="49.32214" lon="-1.67901">
        <ele>13.2</ele>
        <time>2020-06-12T07:05:47Z</time>
      </trkpt>
      <trkpt lat="49.32221" lon="-1.67899">
        <ele>13.2</ele>
        <time>2020-06-12T07:05:48Z</time>
      </trkpt>
      <trkpt lat="49.32227" lon="-1.67897">
        <ele>13.1</ele>
        <time>2020-06-12T07:05:49Z</time>
      </trkpt>
      <trkpt lat="49.32234" lon="-1.67896">
        <ele>13.1</ele>
        <time>2020-06-12T07:05:50Z</time>
      </trkpt>
      <trkpt lat="49.32241" lon="-1.67894">
        <ele>13</ele>
        <time>2020-06-12T07:05:51Z</time>
      </trkpt>
      <trkpt lat="49.32248" lon="-1.67892">
        <ele>13</ele>
        <time>2020-06-12T07:05:52Z</time>
      </trkpt>
      <trkpt lat="49.32255" lon="-1.6789">
        <ele>13</ele>
        <time>2020-06-12T07:05:53Z</time>
      </trkpt>
      <trkpt lat="49.32261" lon="-1.67887">
        <ele>13</ele>
        <time>2020-06-12T07:05:54Z</time>
      </trkpt>
      <trkpt lat="49.32268" lon="-1.67884">
        <ele>13</ele>
        <time>2020-06-12T07:05:55Z</time>
      </trkpt>
      <trkpt lat="49.32274" lon="-1.67882">
        <ele>13</ele>
        <time>2020-06-12T07:05:56Z</time>
      </trkpt>
      <trkpt lat="49.3228" lon="-1.6788">
        <ele>12.9</ele>
        <time>2020-06-12T07:05:57Z</time>
      </trkpt>
      <trkpt lat="49.32287" lon="-1.67877">
        <ele>12.9</ele>
        <time>2020-06-12T07:05:58Z</time>
      </trkpt>
      <trkpt lat="49.32294" lon="-1.67875">
        <ele>12.8</ele>
        <time>2020-06-12T07:05:59Z</time>
      </trkpt>
      <trkpt lat="49.323" lon="-1.67873">
        <ele>12.8</ele>
        <time>2020-06-12T07:06:00Z</time>
      </trkpt>
      <trkpt lat="49.32306" lon="-1.67871">
        <ele>12.8</ele>
        <time>2020-06-12T07:06:01Z</time>
      </trkpt>
      <trkpt lat="49.32313" lon="-1.67869">
        <ele>12.8</ele>
        <time>2020-06-12T07:06:02Z</time>
      </trkpt>
      <trkpt lat="49.3232" lon="-1.67867">
        <ele>12.8</ele>
        <time>2020-06-12T07:06:03Z</time>
      </trkpt>
      <trkpt lat="49.32327" lon="-1.67865">
        <ele>12.7</ele>
        <time>2020-06-12T07:06:04Z</time>
      </trkpt>
      <trkpt lat="49.32334" lon="-1.67864">
        <ele>12.7</ele>
        <time>2020-06-12T07:06:05Z</time>
      </trkpt>
      <trkpt lat="49.3234" lon="-1.67862">
        <ele>12.7</ele>
        <time>2020-06-12T07:06:06Z</time>
      </trkpt>
      <trkpt lat="49.32347" lon="-1.6786">
        <ele>12.7</ele>
        <time>2020-06-12T07:06:07Z</time>
      </trkpt>
      <trkpt lat="49.32354" lon="-1.67858">
        <ele>12.6</ele>
        <time>2020-06-12T07:06:08Z</time>
      </trkpt>
      <trkpt lat="49.32361" lon="-1.67855">
        <ele>12.6</ele>
        <time>2020-06-12T07:06:09Z</time>
      </trkpt>
      <trkpt lat="49.32368" lon="-1.67854">
        <ele>12.6</ele>
        <time>2020-06-12T07:06:10Z</time>
      </trkpt>
      <trkpt lat="49.32374" lon="-1.67852">
        <ele>12.6</ele>
        <time>2020-06-12T07:06:11Z</time>
      </trkpt>
      <trkpt lat="49.32381" lon="-1.67851">
        <ele>12.6</ele>
        <time>2020-06-12T07:06:12Z</time>
      </trkpt>
      <trkpt lat="49.32388" lon="-1.6785">
        <ele>12.4</ele>
        <time>2020-06-12T07:06:13Z</time>
      </trkpt>
      <trkpt lat="49.32394" lon="-1.67848">
        <ele>12.3</ele>
        <time>2020-06-12T07:06:14Z</time>
      </trkpt>
      <trkpt lat="49.32401" lon="-1.67846">
        <ele>12.1</ele>
        <time>2020-06-12T07:06:15Z</time>
      </trkpt>
      <trkpt lat="49.32407" lon="-1.67845">
        <ele>12.1</ele>
        <time>2020-06-12T07:06:16Z</time>
      </trkpt>
      <trkpt lat="49.32413" lon="-1.67844">
        <ele>12</ele>
        <time>2020-06-12T07:06:17Z</time>
      </trkpt>
      <trkpt lat="49.32419" lon="-1.67842">
        <ele>12</ele>
        <time>2020-06-12T07:06:18Z</time>
      </trkpt>
      <trkpt lat="49.32426" lon="-1.67841">
        <ele>11.9</ele>
        <time>2020-06-12T07:06:19Z</time>
      </trkpt>
      <trkpt lat="49.32432" lon="-1.6784">
        <ele>11.9</ele>
        <time>2020-06-12T07:06:20Z</time>
      </trkpt>
      <trkpt lat="49.32439" lon="-1.67838">
        <ele>11.9</ele>
        <time>2020-06-12T07:06:21Z</time>
      </trkpt>
      <trkpt lat="49.32445" lon="-1.67837">
        <ele>11.8</ele>
        <time>2020-06-12T07:06:22Z</time>
      </trkpt>
      <trkpt lat="49.32451" lon="-1.67836">
        <ele>11.8</ele>
        <time>2020-06-12T07:06:23Z</time>
      </trkpt>
      <trkpt lat="49.32458" lon="-1.67835">
        <ele>11.8</ele>
        <time>2020-06-12T07:06:24Z</time>
      </trkpt>
      <trkpt lat="49.32465" lon="-1.67835">
        <ele>11.7</ele>
        <time>2020-06-12T07:06:25Z</time>
      </trkpt>
      <trkpt lat="49.32472" lon="-1.67835">
        <ele>11.7</ele>
        <time>2020-06-12T07:06:26Z</time>
      </trkpt>
      <trkpt lat="49.32479" lon="-1.67835">
        <ele>11.6</ele>
        <time>2020-06-12T07:06:27Z</time>
      </trkpt>
      <trkpt lat="49.32486" lon="-1.67835">
        <ele>11.6</ele>
        <time>2020-06-12T07:06:28Z</time>
      </trkpt>
      <trkpt lat="49.32493" lon="-1.67834">
        <ele>11.5</ele>
        <time>2020-06-12T07:06:29Z</time>
      </trkpt>
      <trkpt lat="49.32501" lon="-1.67834">
        <ele>11.4</ele>
        <time>2020-06-12T07:06:30Z</time>
      </trkpt>
      <trkpt lat="49.32509" lon="-1.67833">
        <ele>11.3</ele>
        <time>2020-06-12T07:06:31Z</time>
      </trkpt>
      <trkpt lat="49.32517" lon="-1.67832">
        <ele>11.2</ele>
        <time>2020-06-12T07:06:32Z</time>
      </trkpt>
      <trkpt lat="49.32525" lon="-1.67832">
        <ele>11.2</ele>
        <time>2020-06-12T07:06:33Z</time>
      </trkpt>
      <trkpt lat="49.32532" lon="-1.67832">
        <ele>11.1</ele>
        <time>2020-06-12T07:06:34Z</time>
      </trkpt>
      <trkpt lat="49.32539" lon="-1.67831">
        <ele>11.1</ele>
        <time>2020-06-12T07:06:35Z</time>
      </trkpt>
      <trkpt lat="49.32547" lon="-1.67832">
        <ele>11</ele>
        <time>2020-06-12T07:06:36Z</time>
      </trkpt>
      <trkpt lat="49.32556" lon="-1.67832">
        <ele>10.9</ele>
        <time>2020-06-12T07:06:37Z</time>
      </trkpt>
      <trkpt lat="49.32564" lon="-1.67832">
        <ele>10.8</ele>
        <time>2020-06-12T07:06:38Z</time>
      </trkpt>
      <trkpt lat="49.32572" lon="-1.67832">
        <ele>10.7</ele>
        <time>2020-06-12T07:06:39Z</time>
      </trkpt>
      <trkpt lat="49.3258" lon="-1.67831">
        <ele>10.7</ele>
        <time>2020-06-12T07:06:40Z</time>
      </trkpt>
      <trkpt lat="49.32587" lon="-1.67832">
        <ele>10.6</ele>
        <time>2020-06-12T07:06:41Z</time>
      </trkpt>
      <trkpt lat="49.32595" lon="-1.67833">
        <ele>10.5</ele>
        <time>2020-06-12T07:06:42Z</time>
      </trkpt>
      <trkpt lat="49.32603" lon="-1.67833">
        <ele>10.4</ele>
        <time>2020-06-12T07:06:43Z</time>
      </trkpt>
      <trkpt lat="49.32611" lon="-1.67835">
        <ele>10.2</ele>
        <time>2020-06-12T07:06:44Z</time>
      </trkpt>
      <trkpt lat="49.32619" lon="-1.67835">
        <ele>10.1</ele>
        <time>2020-06-12T07:06:45Z</time>
      </trkpt>
      <trkpt lat="49.32627" lon="-1.67836">
        <ele>9.9</ele>
        <time>2020-06-12T07:06:46Z</time>
      </trkpt>
      <trkpt lat="49.32635" lon="-1.67837">
        <ele>9.8</ele>
        <time>2020-06-12T07:06:47Z</time>
      </trkpt>
      <trkpt lat="49.32643" lon="-1.67838">
        <ele>9.7</ele>
        <time>2020-06-12T07:06:48Z</time>
      </trkpt>
      <trkpt lat="49.32652" lon="-1.67838">
        <ele>9.6</ele>
        <time>2020-06-12T07:06:49Z</time>
      </trkpt>
      <trkpt lat="49.3266" lon="-1.67839">
        <ele>9.5</ele>
        <time>2020-06-12T07:06:50Z</time>
      </trkpt>
      <trkpt lat="49.32667" lon="-1.6784">
        <ele>9.4</ele>
        <time>2020-06-12T07:06:51Z</time>
      </trkpt>
      <trkpt lat="49.32674" lon="-1.67842">
        <ele>9.4</ele>
        <time>2020-06-12T07:06:52Z</time>
      </trkpt>
      <trkpt lat="49.32681" lon="-1.67844">
        <ele>9.3</ele>
        <time>2020-06-12T07:06:53Z</time>
      </trkpt>
      <trkpt lat="49.32689" lon="-1.67844">
        <ele>9.2</ele>
        <time>2020-06-12T07:06:54Z</time>
      </trkpt>
      <trkpt lat="49.32696" lon="-1.67845">
        <ele>9.2</ele>
        <time>2020-06-12T07:06:55Z</time>
      </trkpt>
      <trkpt lat="49.32704" lon="-1.67847">
        <ele>9.2</ele>
        <time>2020-06-12T07:06:56Z</time>
      </trkpt>
      <trkpt lat="49.32711" lon="-1.67847">
        <ele>9.1</ele>
        <time>2020-06-12T07:06:57Z</time>
      </trkpt>
      <trkpt lat="49.32719" lon="-1.67848">
        <ele>9</ele>
        <time>2020-06-12T07:06:58Z</time>
      </trkpt>
      <trkpt lat="49.32726" lon="-1.6785">
        <ele>8.8</ele>
        <time>2020-06-12T07:06:59Z</time>
      </trkpt>
      <trkpt lat="49.32733" lon="-1.67851">
        <ele>8.6</ele>
        <time>2020-06-12T07:07:00Z</time>
      </trkpt>
      <trkpt lat="49.32741" lon="-1.67852">
        <ele>8.4</ele>
        <time>2020-06-12T07:07:01Z</time>
      </trkpt>
      <trkpt lat="49.32749" lon="-1.67854">
        <ele>8.3</ele>
        <time>2020-06-12T07:07:02Z</time>
      </trkpt>
      <trkpt lat="49.32756" lon="-1.67855">
        <ele>8.3</ele>
        <time>2020-06-12T07:07:03Z</time>
      </trkpt>
      <trkpt lat="49.32766" lon="-1.67854">
        <ele>8.2</ele>
        <time>2020-06-12T07:07:04Z</time>
      </trkpt>
      <trkpt lat="49.32774" lon="-1.67855">
        <ele>8</ele>
        <time>2020-06-12T07:07:05Z</time>
      </trkpt>
      <trkpt lat="49.32781" lon="-1.67857">
        <ele>7.9</ele>
        <time>2020-06-12T07:07:06Z</time>
      </trkpt>
      <trkpt lat="49.32789" lon="-1.67859">
        <ele>7.8</ele>
        <time>2020-06-12T07:07:07Z</time>
      </trkpt>
      <trkpt lat="49.32797" lon="-1.67861">
        <ele>7.7</ele>
        <time>2020-06-12T07:07:08Z</time>
      </trkpt>
      <trkpt lat="49.32805" lon="-1.67863">
        <ele>7.5</ele>
        <time>2020-06-12T07:07:09Z</time>
      </trkpt>
      <trkpt lat="49.32812" lon="-1.67865">
        <ele>7.4</ele>
        <time>2020-06-12T07:07:10Z</time>
      </trkpt>
      <trkpt lat="49.32821" lon="-1.67867">
        <ele>7.3</ele>
        <time>2020-06-12T07:07:11Z</time>
      </trkpt>
      <trkpt lat="49.32828" lon="-1.67868">
        <ele>7.2</ele>
        <time>2020-06-12T07:07:12Z</time>
      </trkpt>
      <trkpt lat="49.32837" lon="-1.67869">
        <ele>7.1</ele>
        <time>2020-06-12T07:07:13Z</time>
      </trkpt>
      <trkpt lat="49.32845" lon="-1.67871">
        <ele>7.1</ele>
        <time>2020-06-12T07:07:14Z</time>
      </trkpt>
      <trkpt lat="49.32853" lon="-1.67871">
        <ele>7</ele>
        <time>2020-06-12T07:07:15Z</time>
      </trkpt>
      <trkpt lat="49.3286" lon="-1.67872">
        <ele>6.9</ele>
        <time>2020-06-12T07:07:16Z</time>
      </trkpt>
      <trkpt lat="49.32868" lon="-1.67872">
        <ele>6.9</ele>
        <time>2020-06-12T07:07:17Z</time>
      </trkpt>
      <trkpt lat="49.32875" lon="-1.67874">
        <ele>6.8</ele>
        <time>2020-06-12T07:07:18Z</time>
      </trkpt>
      <trkpt lat="49.32883" lon="-1.67874">
        <ele>6.7</ele>
        <time>2020-06-12T07:07:19Z</time>
      </trkpt>
      <trkpt lat="49.3289" lon="-1.67876">
        <ele>6.7</ele>
        <time>2020-06-12T07:07:20Z</time>
      </trkpt>
      <trkpt lat="49.32898" lon="-1.67876">
        <ele>6.6</ele>
        <time>2020-06-12T07:07:21Z</time>
      </trkpt>
      <trkpt lat="49.32905" lon="-1.67878">
        <ele>6.6</ele>
        <time>2020-06-12T07:07:22Z</time>
      </trkpt>
      <trkpt lat="49.32912" lon="-1.67879">
        <ele>6.6</ele>
        <time>2020-06-12T07:07:23Z</time>
      </trkpt>
      <trkpt lat="49.32919" lon="-1.6788">
        <ele>6.6</ele>
        <time>2020-06-12T07:07:24Z</time>
      </trkpt>
      <trkpt lat="49.32927" lon="-1.67881">
        <ele>6.6</ele>
        <time>2020-06-12T07:07:25Z</time>
      </trkpt>
      <trkpt lat="49.32934" lon="-1.67882">
        <ele>6.6</ele>
        <time>2020-06-12T07:07:26Z</time>
      </trkpt>
      <trkpt lat="49.32942" lon="-1.67883">
        <ele>6.6</ele>
        <time>2020-06-12T07:07:27Z</time>
      </trkpt>
      <trkpt lat="49.3295" lon="-1.67884">
        <ele>6.6</ele>
        <time>2020-06-12T07:07:28Z</time>
      </trkpt>
      <trkpt lat="49.32958" lon="-1.67885">
        <ele>6.6</ele>
        <time>2020-06-12T07:07:29Z</time>
      </trkpt>
      <trkpt lat="49.32966" lon="-1.67886">
        <ele>6.6</ele>
        <time>2020-06-12T07:07:30Z</time>
      </trkpt>
      <trkpt lat="49.32974" lon="-1.67887">
        <ele>6.6</ele>
        <time>2020-06-12T07:07:31Z</time>
      </trkpt>
      <trkpt lat="49.32982" lon="-1.67887">
        <ele>6.7</ele>
        <time>2020-06-12T07:07:32Z</time>
      </trkpt>
      <trkpt lat="49.3299" lon="-1.67888">
        <ele>6.7</ele>
        <time>2020-06-12T07:07:33Z</time>
      </trkpt>
      <trkpt lat="49.32997" lon="-1.67889">
        <ele>6.7</ele>
        <time>2020-06-12T07:07:34Z</time>
      </trkpt>
      <trkpt lat="49.33004" lon="-1.67888">
        <ele>6.9</ele>
        <time>2020-06-12T07:07:35Z</time>
      </trkpt>
      <trkpt lat="49.33012" lon="-1.6789">
        <ele>7</ele>
        <time>2020-06-12T07:07:36Z</time>
      </trkpt>
      <trkpt lat="49.33019" lon="-1.67891">
        <ele>7.1</ele>
        <time>2020-06-12T07:07:37Z</time>
      </trkpt>
      <trkpt lat="49.33027" lon="-1.67892">
        <ele>7.1</ele>
        <time>2020-06-12T07:07:38Z</time>
      </trkpt>
      <trkpt lat="49.33034" lon="-1.67893">
        <ele>7.2</ele>
        <time>2020-06-12T07:07:39Z</time>
      </trkpt>
      <trkpt lat="49.33041" lon="-1.67894">
        <ele>7.2</ele>
        <time>2020-06-12T07:07:40Z</time>
      </trkpt>
      <trkpt lat="49.33048" lon="-1.67895">
        <ele>7.3</ele>
        <time>2020-06-12T07:07:41Z</time>
      </trkpt>
      <trkpt lat="49.33055" lon="-1.67896">
        <ele>7.3</ele>
        <time>2020-06-12T07:07:42Z</time>
      </trkpt>
      <trkpt lat="49.33061" lon="-1.67897">
        <ele>7.4</ele>
        <time>2020-06-12T07:07:43Z</time>
      </trkpt>
      <trkpt lat="49.33069" lon="-1.67899">
        <ele>7.5</ele>
        <time>2020-06-12T07:07:44Z</time>
      </trkpt>
      <trkpt lat="49.33076" lon="-1.679">
        <ele>7.6</ele>
        <time>2020-06-12T07:07:45Z</time>
      </trkpt>
      <trkpt lat="49.33083" lon="-1.67901">
        <ele>7.7</ele>
        <time>2020-06-12T07:07:46Z</time>
      </trkpt>
      <trkpt lat="49.3309" lon="-1.67903">
        <ele>7.8</ele>
        <time>2020-06-12T07:07:47Z</time>
      </trkpt>
      <trkpt lat="49.33096" lon="-1.67904">
        <ele>7.9</ele>
        <time>2020-06-12T07:07:48Z</time>
      </trkpt>
      <trkpt lat="49.33103" lon="-1.67905">
        <ele>8.1</ele>
        <time>2020-06-12T07:07:49Z</time>
      </trkpt>
      <trkpt lat="49.33109" lon="-1.67906">
        <ele>8.2</ele>
        <time>2020-06-12T07:07:50Z</time>
      </trkpt>
      <trkpt lat="49.33116" lon="-1.67907">
        <ele>8.4</ele>
        <time>2020-06-12T07:07:51Z</time>
      </trkpt>
      <trkpt lat="49.33122" lon="-1.67907">
        <ele>8.5</ele>
        <time>2020-06-12T07:07:52Z</time>
      </trkpt>
      <trkpt lat="49.33128" lon="-1.67908">
        <ele>8.7</ele>
        <time>2020-06-12T07:07:53Z</time>
      </trkpt>
      <trkpt lat="49.33133" lon="-1.67909">
        <ele>8.9</ele>
        <time>2020-06-12T07:07:54Z</time>
      </trkpt>
      <trkpt lat="49.33138" lon="-1.67911">
        <ele>9</ele>
        <time>2020-06-12T07:07:55Z</time>
      </trkpt>
      <trkpt lat="49.33144" lon="-1.67912">
        <ele>9.1</ele>
        <time>2020-06-12T07:07:56Z</time>
      </trkpt>
      <trkpt lat="49.3315" lon="-1.67912">
        <ele>9.3</ele>
        <time>2020-06-12T07:07:57Z</time>
      </trkpt>
      <trkpt lat="49.33155" lon="-1.67913">
        <ele>9.5</ele>
        <time>2020-06-12T07:07:58Z</time>
      </trkpt>
      <trkpt lat="49.33162" lon="-1.67914">
        <ele>9.6</ele>
        <time>2020-06-12T07:07:59Z</time>
      </trkpt>
      <trkpt lat="49.33168" lon="-1.67913">
        <ele>9.8</ele>
        <time>2020-06-12T07:08:00Z</time>
      </trkpt>
      <trkpt lat="49.33173" lon="-1.67913">
        <ele>9.9</ele>
        <time>2020-06-12T07:08:01Z</time>
      </trkpt>
      <trkpt lat="49.33179" lon="-1.67914">
        <ele>10.1</ele>
        <time>2020-06-12T07:08:02Z</time>
      </trkpt>
      <trkpt lat="49.33184" lon="-1.67916">
        <ele>10.2</ele>
        <time>2020-06-12T07:08:03Z</time>
      </trkpt>
      <trkpt lat="49.33189" lon="-1.67918">
        <ele>10.3</ele>
        <time>2020-06-12T07:08:04Z</time>
      </trkpt>
      <trkpt lat="49.33195" lon="-1.67919">
        <ele>10.4</ele>
        <time>2020-06-12T07:08:05Z</time>
      </trkpt>
      <trkpt lat="49.332" lon="-1.6792">
        <ele>10.6</ele>
        <time>2020-06-12T07:08:06Z</time>
      </trkpt>
      <trkpt lat="49.33205" lon="-1.67921">
        <ele>10.7</ele>
        <time>2020-06-12T07:08:07Z</time>
      </trkpt>
      <trkpt lat="49.33211" lon="-1.67921">
        <ele>10.9</ele>
        <time>2020-06-12T07:08:08Z</time>
      </trkpt>
      <trkpt lat="49.33216" lon="-1.67921">
        <ele>11.1</ele>
        <time>2020-06-12T07:08:09Z</time>
      </trkpt>
      <trkpt lat="49.33222" lon="-1.67922">
        <ele>11.3</ele>
        <time>2020-06-12T07:08:10Z</time>
      </trkpt>
      <trkpt lat="49.33227" lon="-1.67922">
        <ele>11.4</ele>
        <time>2020-06-12T07:08:11Z</time>
      </trkpt>
      <trkpt lat="49.33232" lon="-1.67922">
        <ele>11.6</ele>
        <time>2020-06-12T07:08:12Z</time>
      </trkpt>
      <trkpt lat="49.33237" lon="-1.67923">
        <ele>11.7</ele>
        <time>2020-06-12T07:08:13Z</time>
      </trkpt>
      <trkpt lat="49.33242" lon="-1.67923">
        <ele>11.8</ele>
        <time>2020-06-12T07:08:14Z</time>
      </trkpt>
      <trkpt lat="49.33247" lon="-1.67924">
        <ele>11.8</ele>
        <time>2020-06-12T07:08:15Z</time>
      </trkpt>
      <trkpt lat="49.33252" lon="-1.67924">
        <ele>11.9</ele>
        <time>2020-06-12T07:08:16Z</time>
      </trkpt>
      <trkpt lat="49.33258" lon="-1.67924">
        <ele>11.9</ele>
        <time>2020-06-12T07:08:17Z</time>
      </trkpt>
      <trkpt lat="49.33263" lon="-1.67924">
        <ele>12</ele>
        <time>2020-06-12T07:08:18Z</time>
      </trkpt>
      <trkpt lat="49.33267" lon="-1.67924">
        <ele>12.1</ele>
        <time>2020-06-12T07:08:19Z</time>
      </trkpt>
      <trkpt lat="49.33272" lon="-1.67925">
        <ele>12.1</ele>
        <time>2020-06-12T07:08:20Z</time>
      </trkpt>
      <trkpt lat="49.33276" lon="-1.67926">
        <ele>12.2</ele>
        <time>2020-06-12T07:08:21Z</time>
      </trkpt>
      <trkpt lat="49.33281" lon="-1.67926">
        <ele>12.3</ele>
        <time>2020-06-12T07:08:22Z</time>
      </trkpt>
      <trkpt lat="49.33287" lon="-1.67927">
        <ele>12.4</ele>
        <time>2020-06-12T07:08:23Z</time>
      </trkpt>
      <trkpt lat="49.33292" lon="-1.67927">
        <ele>12.4</ele>
        <time>2020-06-12T07:08:24Z</time>
      </trkpt>
      <trkpt lat="49.33298" lon="-1.67928">
        <ele>12.5</ele>
        <time>2020-06-12T07:08:25Z</time>
      </trkpt>
      <trkpt lat="49.33303" lon="-1.67929">
        <ele>12.6</ele>
        <time>2020-06-12T07:08:26Z</time>
      </trkpt>
      <trkpt lat="49.33308" lon="-1.6793">
        <ele>12.7</ele>
        <time>2020-06-12T07:08:27Z</time>
      </trkpt>
      <trkpt lat="49.33313" lon="-1.67931">
        <ele>12.8</ele>
        <time>2020-06-12T07:08:28Z</time>
      </trkpt>
      <trkpt lat="49.33318" lon="-1.67931">
        <ele>12.9</ele>
        <time>2020-06-12T07:08:29Z</time>
      </trkpt>
      <trkpt lat="49.33324" lon="-1.67933">
        <ele>13</ele>
        <time>2020-06-12T07:08:30Z</time>
      </trkpt>
      <trkpt lat="49.3333" lon="-1.67933">
        <ele>13.1</ele>
        <time>2020-06-12T07:08:31Z</time>
      </trkpt>
      <trkpt lat="49.33335" lon="-1.67934">
        <ele>13.3</ele>
        <time>2020-06-12T07:08:32Z</time>
      </trkpt>
      <trkpt lat="49.3334" lon="-1.67934">
        <ele>13.4</ele>
        <time>2020-06-12T07:08:33Z</time>
      </trkpt>
      <trkpt lat="49.33346" lon="-1.67934">
        <ele>13.5</ele>
        <time>2020-06-12T07:08:34Z</time>
      </trkpt>
      <trkpt lat="49.33351" lon="-1.67934">
        <ele>13.5</ele>
        <time>2020-06-12T07:08:35Z</time>
      </trkpt>
      <trkpt lat="49.33355" lon="-1.67935">
        <ele>13.6</ele>
        <time>2020-06-12T07:08:36Z</time>
      </trkpt>
      <trkpt lat="49.33361" lon="-1.67935">
        <ele>13.7</ele>
        <time>2020-06-12T07:08:37Z</time>
      </trkpt>
      <trkpt lat="49.33367" lon="-1.67936">
        <ele>13.7</ele>
        <time>2020-06-12T07:08:38Z</time>
      </trkpt>
      <trkpt lat="49.33373" lon="-1.67938">
        <ele>13.7</ele>
        <time>2020-06-12T07:08:39Z</time>
      </trkpt>
      <trkpt lat="49.33378" lon="-1.6794">
        <ele>13.7</ele>
        <time>2020-06-12T07:08:40Z</time>
      </trkpt>
      <trkpt lat="49.33383" lon="-1.67941">
        <ele>13.8</ele>
        <time>2020-06-12T07:08:41Z</time>
      </trkpt>
      <trkpt lat="49.33388" lon="-1.67943">
        <ele>13.9</ele>
        <time>2020-06-12T07:08:42Z</time>
      </trkpt>
      <trkpt lat="49.33393" lon="-1.67943">
        <ele>14</ele>
        <time>2020-06-12T07:08:43Z</time>
      </trkpt>
      <trkpt lat="49.33398" lon="-1.67942">
        <ele>14</ele>
        <time>2020-06-12T07:08:44Z</time>
      </trkpt>
      <trkpt lat="49.33402" lon="-1.67943">
        <ele>14.1</ele>
        <time>2020-06-12T07:08:45Z</time>
      </trkpt>
      <trkpt lat="49.33407" lon="-1.67942">
        <ele>14.1</ele>
        <time>2020-06-12T07:08:46Z</time>
      </trkpt>
      <trkpt lat="49.33411" lon="-1.67939">
        <ele>14.3</ele>
        <time>2020-06-12T07:08:47Z</time>
      </trkpt>
      <trkpt lat="49.33415" lon="-1.67934">
        <ele>14.4</ele>
        <time>2020-06-12T07:08:48Z</time>
      </trkpt>
      <trkpt lat="49.33418" lon="-1.6793">
        <ele>14.5</ele>
        <time>2020-06-12T07:08:49Z</time>
      </trkpt>
      <trkpt lat="49.33421" lon="-1.67924">
        <ele>14.6</ele>
        <time>2020-06-12T07:08:50Z</time>
      </trkpt>
      <trkpt lat="49.33425" lon="-1.67921">
        <ele>14.7</ele>
        <time>2020-06-12T07:08:51Z</time>
      </trkpt>
      <trkpt lat="49.33428" lon="-1.67918">
        <ele>14.7</ele>
        <time>2020-06-12T07:08:52Z</time>
      </trkpt>
      <trkpt lat="49.33431" lon="-1.67918">
        <ele>14.8</ele>
        <time>2020-06-12T07:08:53Z</time>
      </trkpt>
      <trkpt lat="49.33435" lon="-1.67917">
        <ele>14.8</ele>
        <time>2020-06-12T07:08:54Z</time>
      </trkpt>
      <trkpt lat="49.33438" lon="-1.67918">
        <ele>14.9</ele>
        <time>2020-06-12T07:08:55Z</time>
      </trkpt>
      <trkpt lat="49.33441" lon="-1.67919">
        <ele>14.9</ele>
        <time>2020-06-12T07:08:56Z</time>
      </trkpt>
      <trkpt lat="49.33444" lon="-1.6792">
        <ele>14.9</ele>
        <time>2020-06-12T07:08:57Z</time>
      </trkpt>
      <trkpt lat="49.33447" lon="-1.67922">
        <ele>14.9</ele>
        <time>2020-06-12T07:08:58Z</time>
      </trkpt>
      <trkpt lat="49.33451" lon="-1.67925">
        <ele>14.9</ele>
        <time>2020-06-12T07:08:59Z</time>
      </trkpt>
      <trkpt lat="49.33455" lon="-1.67928">
        <ele>14.9</ele>
        <time>2020-06-12T07:09:00Z</time>
      </trkpt>
      <trkpt lat="49.33458" lon="-1.67932">
        <ele>14.9</ele>
        <time>2020-06-12T07:09:01Z</time>
      </trkpt>
      <trkpt lat="49.33461" lon="-1.67937">
        <ele>14.9</ele>
        <time>2020-06-12T07:09:02Z</time>
      </trkpt>
      <trkpt lat="49.33464" lon="-1.67942">
        <ele>14.8</ele>
        <time>2020-06-12T07:09:03Z</time>
      </trkpt>
      <trkpt lat="49.33468" lon="-1.67947">
        <ele>14.8</ele>
        <time>2020-06-12T07:09:04Z</time>
      </trkpt>
      <trkpt lat="49.33472" lon="-1.67951">
        <ele>14.8</ele>
        <time>2020-06-12T07:09:05Z</time>
      </trkpt>
      <trkpt lat="49.33475" lon="-1.67954">
        <ele>14.7</ele>
        <time>2020-06-12T07:09:06Z</time>
      </trkpt>
      <trkpt lat="49.33481" lon="-1.67957">
        <ele>14.6</ele>
        <time>2020-06-12T07:09:07Z</time>
      </trkpt>
      <trkpt lat="49.33486" lon="-1.67958">
        <ele>14.5</ele>
        <time>2020-06-12T07:09:08Z</time>
      </trkpt>
      <trkpt lat="49.3349" lon="-1.67959">
        <ele>14.4</ele>
        <time>2020-06-12T07:09:09Z</time>
      </trkpt>
      <trkpt lat="49.33495" lon="-1.6796">
        <ele>14.3</ele>
        <time>2020-06-12T07:09:10Z</time>
      </trkpt>
      <trkpt lat="49.335" lon="-1.67961">
        <ele>14.1</ele>
        <time>2020-06-12T07:09:11Z</time>
      </trkpt>
      <trkpt lat="49.33507" lon="-1.6796">
        <ele>13.9</ele>
        <time>2020-06-12T07:09:12Z</time>
      </trkpt>
      <trkpt lat="49.33513" lon="-1.6796">
        <ele>13.8</ele>
        <time>2020-06-12T07:09:13Z</time>
      </trkpt>
      <trkpt lat="49.33519" lon="-1.67961">
        <ele>13.6</ele>
        <time>2020-06-12T07:09:14Z</time>
      </trkpt>
      <trkpt lat="49.33525" lon="-1.67963">
        <ele>13.5</ele>
        <time>2020-06-12T07:09:15Z</time>
      </trkpt>
      <trkpt lat="49.33531" lon="-1.67964">
        <ele>13.3</ele>
        <time>2020-06-12T07:09:16Z</time>
      </trkpt>
      <trkpt lat="49.33537" lon="-1.67965">
        <ele>13.2</ele>
        <time>2020-06-12T07:09:17Z</time>
      </trkpt>
      <trkpt lat="49.33543" lon="-1.67965">
        <ele>13.1</ele>
        <time>2020-06-12T07:09:18Z</time>
      </trkpt>
      <trkpt lat="49.33549" lon="-1.67966">
        <ele>13</ele>
        <time>2020-06-12T07:09:19Z</time>
      </trkpt>
      <trkpt lat="49.33554" lon="-1.67967">
        <ele>12.9</ele>
        <time>2020-06-12T07:09:20Z</time>
      </trkpt>
      <trkpt lat="49.33559" lon="-1.67968">
        <ele>12.9</ele>
        <time>2020-06-12T07:09:21Z</time>
      </trkpt>
      <trkpt lat="49.33565" lon="-1.67968">
        <ele>12.8</ele>
        <time>2020-06-12T07:09:22Z</time>
      </trkpt>
      <trkpt lat="49.33571" lon="-1.67968">
        <ele>12.8</ele>
        <time>2020-06-12T07:09:23Z</time>
      </trkpt>
      <trkpt lat="49.33577" lon="-1.6797">
        <ele>12.8</ele>
        <time>2020-06-12T07:09:24Z</time>
      </trkpt>
      <trkpt lat="49.33584" lon="-1.67971">
        <ele>12.8</ele>
        <time>2020-06-12T07:09:25Z</time>
      </trkpt>
      <trkpt lat="49.3359" lon="-1.67972">
        <ele>12.8</ele>
        <time>2020-06-12T07:09:26Z</time>
      </trkpt>
      <trkpt lat="49.33596" lon="-1.67973">
        <ele>12.9</ele>
        <time>2020-06-12T07:09:27Z</time>
      </trkpt>
      <trkpt lat="49.33602" lon="-1.67974">
        <ele>13</ele>
        <time>2020-06-12T07:09:28Z</time>
      </trkpt>
      <trkpt lat="49.33611" lon="-1.67975">
        <ele>13.1</ele>
        <time>2020-06-12T07:09:29Z</time>
      </trkpt>
      <trkpt lat="49.33617" lon="-1.67975">
        <ele>13.3</ele>
        <time>2020-06-12T07:09:30Z</time>
      </trkpt>
      <trkpt lat="49.33622" lon="-1.67975">
        <ele>13.4</ele>
        <time>2020-06-12T07:09:31Z</time>
      </trkpt>
      <trkpt lat="49.33627" lon="-1.67975">
        <ele>13.4</ele>
        <time>2020-06-12T07:09:32Z</time>
      </trkpt>
      <trkpt lat="49.33634" lon="-1.67977">
        <ele>13.6</ele>
        <time>2020-06-12T07:09:33Z</time>
      </trkpt>
      <trkpt lat="49.33641" lon="-1.67977">
        <ele>13.7</ele>
        <time>2020-06-12T07:09:34Z</time>
      </trkpt>
      <trkpt lat="49.33647" lon="-1.67977">
        <ele>13.8</ele>
        <time>2020-06-12T07:09:35Z</time>
      </trkpt>
      <trkpt lat="49.33654" lon="-1.67977">
        <ele>14</ele>
        <time>2020-06-12T07:09:36Z</time>
      </trkpt>
      <trkpt lat="49.3366" lon="-1.67977">
        <ele>14.1</ele>
        <time>2020-06-12T07:09:37Z</time>
      </trkpt>
      <trkpt lat="49.33666" lon="-1.67978">
        <ele>14.2</ele>
        <time>2020-06-12T07:09:38Z</time>
      </trkpt>
      <trkpt lat="49.33672" lon="-1.67978">
        <ele>14.4</ele>
        <time>2020-06-12T07:09:39Z</time>
      </trkpt>
      <trkpt lat="49.33678" lon="-1.67979">
        <ele>14.5</ele>
        <time>2020-06-12T07:09:40Z</time>
      </trkpt>
      <trkpt lat="49.33685" lon="-1.6798">
        <ele>14.6</ele>
        <time>2020-06-12T07:09:41Z</time>
      </trkpt>
      <trkpt lat="49.33691" lon="-1.67981">
        <ele>14.7</ele>
        <time>2020-06-12T07:09:42Z</time>
      </trkpt>
      <trkpt lat="49.33698" lon="-1.67982">
        <ele>14.9</ele>
        <time>2020-06-12T07:09:43Z</time>
      </trkpt>
      <trkpt lat="49.33704" lon="-1.67983">
        <ele>15</ele>
        <time>2020-06-12T07:09:44Z</time>
      </trkpt>
      <trkpt lat="49.3371" lon="-1.67983">
        <ele>15.1</ele>
        <time>2020-06-12T07:09:45Z</time>
      </trkpt>
      <trkpt lat="49.33718" lon="-1.67984">
        <ele>15.3</ele>
        <time>2020-06-12T07:09:46Z</time>
      </trkpt>
      <trkpt lat="49.33723" lon="-1.67984">
        <ele>15.4</ele>
        <time>2020-06-12T07:09:47Z</time>
      </trkpt>
      <trkpt lat="49.33729" lon="-1.67985">
        <ele>15.5</ele>
        <time>2020-06-12T07:09:48Z</time>
      </trkpt>
      <trkpt lat="49.33734" lon="-1.67985">
        <ele>15.6</ele>
        <time>2020-06-12T07:09:49Z</time>
      </trkpt>
      <trkpt lat="49.3374" lon="-1.67986">
        <ele>15.7</ele>
        <time>2020-06-12T07:09:50Z</time>
      </trkpt>
      <trkpt lat="49.33747" lon="-1.67986">
        <ele>15.8</ele>
        <time>2020-06-12T07:09:51Z</time>
      </trkpt>
      <trkpt lat="49.33753" lon="-1.67986">
        <ele>16</ele>
        <time>2020-06-12T07:09:52Z</time>
      </trkpt>
      <trkpt lat="49.33758" lon="-1.67986">
        <ele>16.1</ele>
        <time>2020-06-12T07:09:53Z</time>
      </trkpt>
      <trkpt lat="49.33764" lon="-1.67986">
        <ele>16.2</ele>
        <time>2020-06-12T07:09:54Z</time>
      </trkpt>
      <trkpt lat="49.33769" lon="-1.67986">
        <ele>16.3</ele>
        <time>2020-06-12T07:09:55Z</time>
      </trkpt>
      <trkpt lat="49.33775" lon="-1.67985">
        <ele>16.4</ele>
        <time>2020-06-12T07:09:56Z</time>
      </trkpt>
      <trkpt lat="49.3378" lon="-1.67984">
        <ele>16.5</ele>
        <time>2020-06-12T07:09:57Z</time>
      </trkpt>
      <trkpt lat="49.33785" lon="-1.67984">
        <ele>16.6</ele>
        <time>2020-06-12T07:09:58Z</time>
      </trkpt>
      <trkpt lat="49.33791" lon="-1.67983">
        <ele>16.7</ele>
        <time>2020-06-12T07:09:59Z</time>
      </trkpt>
      <trkpt lat="49.33797" lon="-1.67983">
        <ele>16.7</ele>
        <time>2020-06-12T07:10:00Z</time>
      </trkpt>
      <trkpt lat="49.33803" lon="-1.67982">
        <ele>16.8</ele>
        <time>2020-06-12T07:10:01Z</time>
      </trkpt>
      <trkpt lat="49.33808" lon="-1.67982">
        <ele>16.9</ele>
        <time>2020-06-12T07:10:02Z</time>
      </trkpt>
      <trkpt lat="49.33814" lon="-1.6798">
        <ele>16.9</ele>
        <time>2020-06-12T07:10:03Z</time>
      </trkpt>
      <trkpt lat="49.33819" lon="-1.67979">
        <ele>17</ele>
        <time>2020-06-12T07:10:04Z</time>
      </trkpt>
      <trkpt lat="49.33826" lon="-1.67979">
        <ele>17.1</ele>
        <time>2020-06-12T07:10:05Z</time>
      </trkpt>
      <trkpt lat="49.33831" lon="-1.67978">
        <ele>17.2</ele>
        <time>2020-06-12T07:10:06Z</time>
      </trkpt>
      <trkpt lat="49.33837" lon="-1.67976">
        <ele>17.3</ele>
        <time>2020-06-12T07:10:07Z</time>
      </trkpt>
      <trkpt lat="49.33843" lon="-1.67974">
        <ele>17.5</ele>
        <time>2020-06-12T07:10:08Z</time>
      </trkpt>
      <trkpt lat="49.33848" lon="-1.67973">
        <ele>17.6</ele>
        <time>2020-06-12T07:10:09Z</time>
      </trkpt>
      <trkpt lat="49.33853" lon="-1.67971">
        <ele>17.8</ele>
        <time>2020-06-12T07:10:10Z</time>
      </trkpt>
      <trkpt lat="49.33858" lon="-1.6797">
        <ele>17.9</ele>
        <time>2020-06-12T07:10:11Z</time>
      </trkpt>
      <trkpt lat="49.33863" lon="-1.67968">
        <ele>18.1</ele>
        <time>2020-06-12T07:10:12Z</time>
      </trkpt>
      <trkpt lat="49.33867" lon="-1.67966">
        <ele>18.3</ele>
        <time>2020-06-12T07:10:13Z</time>
      </trkpt>
      <trkpt lat="49.33873" lon="-1.67965">
        <ele>18.5</ele>
        <time>2020-06-12T07:10:14Z</time>
      </trkpt>
      <trkpt lat="49.33878" lon="-1.67963">
        <ele>18.7</ele>
        <time>2020-06-12T07:10:15Z</time>
      </trkpt>
      <trkpt lat="49.33884" lon="-1.67961">
        <ele>19.1</ele>
        <time>2020-06-12T07:10:16Z</time>
      </trkpt>
      <trkpt lat="49.33891" lon="-1.67958">
        <ele>19.2</ele>
        <time>2020-06-12T07:10:17Z</time>
      </trkpt>
      <trkpt lat="49.33896" lon="-1.67958">
        <ele>19</ele>
        <time>2020-06-12T07:10:18Z</time>
      </trkpt>
      <trkpt lat="49.33901" lon="-1.67956">
        <ele>18.8</ele>
        <time>2020-06-12T07:10:19Z</time>
      </trkpt>
      <trkpt lat="49.33909" lon="-1.67957">
        <ele>18.5</ele>
        <time>2020-06-12T07:10:20Z</time>
      </trkpt>
      <trkpt lat="49.33914" lon="-1.67955">
        <ele>18.3</ele>
        <time>2020-06-12T07:10:21Z</time>
      </trkpt>
      <trkpt lat="49.3392" lon="-1.67953">
        <ele>18.2</ele>
        <time>2020-06-12T07:10:22Z</time>
      </trkpt>
      <trkpt lat="49.33925" lon="-1.67952">
        <ele>18.1</ele>
        <time>2020-06-12T07:10:23Z</time>
      </trkpt>
      <trkpt lat="49.3393" lon="-1.67951">
        <ele>18.1</ele>
        <time>2020-06-12T07:10:24Z</time>
      </trkpt>
      <trkpt lat="49.33935" lon="-1.67949">
        <ele>18.1</ele>
        <time>2020-06-12T07:10:25Z</time>
      </trkpt>
      <trkpt lat="49.33941" lon="-1.67946">
        <ele>18.1</ele>
        <time>2020-06-12T07:10:26Z</time>
      </trkpt>
      <trkpt lat="49.33946" lon="-1.67944">
        <ele>18.1</ele>
        <time>2020-06-12T07:10:27Z</time>
      </trkpt>
      <trkpt lat="49.33951" lon="-1.67943">
        <ele>18.1</ele>
        <time>2020-06-12T07:10:28Z</time>
      </trkpt>
      <trkpt lat="49.33956" lon="-1.67941">
        <ele>18.2</ele>
        <time>2020-06-12T07:10:29Z</time>
      </trkpt>
      <trkpt lat="49.33961" lon="-1.67939">
        <ele>18.2</ele>
        <time>2020-06-12T07:10:30Z</time>
      </trkpt>
      <trkpt lat="49.33965" lon="-1.67937">
        <ele>18.2</ele>
        <time>2020-06-12T07:10:31Z</time>
      </trkpt>
      <trkpt lat="49.3397" lon="-1.67936">
        <ele>18.2</ele>
        <time>2020-06-12T07:10:32Z</time>
      </trkpt>
      <trkpt lat="49.33975" lon="-1.67934">
        <ele>18.2</ele>
        <time>2020-06-12T07:10:33Z</time>
      </trkpt>
      <trkpt lat="49.33981" lon="-1.67932">
        <ele>18.2</ele>
        <time>2020-06-12T07:10:34Z</time>
      </trkpt>
      <trkpt lat="49.33986" lon="-1.6793">
        <ele>18.2</ele>
        <time>2020-06-12T07:10:35Z</time>
      </trkpt>
      <trkpt lat="49.33991" lon="-1.67928">
        <ele>18.2</ele>
        <time>2020-06-12T07:10:36Z</time>
      </trkpt>
      <trkpt lat="49.33996" lon="-1.67926">
        <ele>18.2</ele>
        <time>2020-06-12T07:10:37Z</time>
      </trkpt>
      <trkpt lat="49.34002" lon="-1.67923">
        <ele>18.2</ele>
        <time>2020-06-12T07:10:38Z</time>
      </trkpt>
      <trkpt lat="49.34007" lon="-1.67921">
        <ele>18.2</ele>
        <time>2020-06-12T07:10:39Z</time>
      </trkpt>
      <trkpt lat="49.34012" lon="-1.67918">
        <ele>18.2</ele>
        <time>2020-06-12T07:10:40Z</time>
      </trkpt>
      <trkpt lat="49.34017" lon="-1.67916">
        <ele>18.2</ele>
        <time>2020-06-12T07:10:41Z</time>
      </trkpt>
      <trkpt lat="49.34022" lon="-1.67913">
        <ele>18.2</ele>
        <time>2020-06-12T07:10:42Z</time>
      </trkpt>
      <trkpt lat="49.34027" lon="-1.67909">
        <ele>18.3</ele>
        <time>2020-06-12T07:10:43Z</time>
      </trkpt>
      <trkpt lat="49.34031" lon="-1.67907">
        <ele>18.3</ele>
        <time>2020-06-12T07:10:44Z</time>
      </trkpt>
      <trkpt lat="49.34036" lon="-1.67904">
        <ele>18.3</ele>
        <time>2020-06-12T07:10:45Z</time>
      </trkpt>
      <trkpt lat="49.3404" lon="-1.67899">
        <ele>18.3</ele>
        <time>2020-06-12T07:10:46Z</time>
      </trkpt>
      <trkpt lat="49.34046" lon="-1.67894">
        <ele>18.4</ele>
        <time>2020-06-12T07:10:47Z</time>
      </trkpt>
      <trkpt lat="49.34051" lon="-1.67892">
        <ele>18.4</ele>
        <time>2020-06-12T07:10:48Z</time>
      </trkpt>
      <trkpt lat="49.34056" lon="-1.67889">
        <ele>18.4</ele>
        <time>2020-06-12T07:10:49Z</time>
      </trkpt>
      <trkpt lat="49.34061" lon="-1.67886">
        <ele>18.4</ele>
        <time>2020-06-12T07:10:50Z</time>
      </trkpt>
      <trkpt lat="49.34067" lon="-1.67883">
        <ele>18.5</ele>
        <time>2020-06-12T07:10:51Z</time>
      </trkpt>
      <trkpt lat="49.34072" lon="-1.6788">
        <ele>18.5</ele>
        <time>2020-06-12T07:10:52Z</time>
      </trkpt>
      <trkpt lat="49.34077" lon="-1.67877">
        <ele>18.5</ele>
        <time>2020-06-12T07:10:53Z</time>
      </trkpt>
      <trkpt lat="49.34082" lon="-1.67874">
        <ele>18.5</ele>
        <time>2020-06-12T07:10:54Z</time>
      </trkpt>
      <trkpt lat="49.34087" lon="-1.67872">
        <ele>18.6</ele>
        <time>2020-06-12T07:10:55Z</time>
      </trkpt>
      <trkpt lat="49.34091" lon="-1.67867">
        <ele>18.6</ele>
        <time>2020-06-12T07:10:56Z</time>
      </trkpt>
      <trkpt lat="49.34096" lon="-1.67864">
        <ele>18.7</ele>
        <time>2020-06-12T07:10:57Z</time>
      </trkpt>
      <trkpt lat="49.34101" lon="-1.6786">
        <ele>18.7</ele>
        <time>2020-06-12T07:10:58Z</time>
      </trkpt>
      <trkpt lat="49.34106" lon="-1.67857">
        <ele>18.8</ele>
        <time>2020-06-12T07:10:59Z</time>
      </trkpt>
      <trkpt lat="49.34111" lon="-1.67854">
        <ele>18.8</ele>
        <time>2020-06-12T07:11:00Z</time>
      </trkpt>
      <trkpt lat="49.34115" lon="-1.6785">
        <ele>18.8</ele>
        <time>2020-06-12T07:11:01Z</time>
      </trkpt>
      <trkpt lat="49.3412" lon="-1.67847">
        <ele>18.8</ele>
        <time>2020-06-12T07:11:02Z</time>
      </trkpt>
      <trkpt lat="49.34125" lon="-1.67845">
        <ele>18.8</ele>
        <time>2020-06-12T07:11:03Z</time>
      </trkpt>
      <trkpt lat="49.34131" lon="-1.67841">
        <ele>18.9</ele>
        <time>2020-06-12T07:11:04Z</time>
      </trkpt>
      <trkpt lat="49.34136" lon="-1.67838">
        <ele>18.9</ele>
        <time>2020-06-12T07:11:05Z</time>
      </trkpt>
      <trkpt lat="49.34141" lon="-1.67834">
        <ele>18.9</ele>
        <time>2020-06-12T07:11:06Z</time>
      </trkpt>
      <trkpt lat="49.34146" lon="-1.6783">
        <ele>18.9</ele>
        <time>2020-06-12T07:11:07Z</time>
      </trkpt>
      <trkpt lat="49.34151" lon="-1.67826">
        <ele>18.9</ele>
        <time>2020-06-12T07:11:08Z</time>
      </trkpt>
      <trkpt lat="49.34155" lon="-1.67822">
        <ele>19</ele>
        <time>2020-06-12T07:11:09Z</time>
      </trkpt>
      <trkpt lat="49.3416" lon="-1.67819">
        <ele>19</ele>
        <time>2020-06-12T07:11:10Z</time>
      </trkpt>
      <trkpt lat="49.34165" lon="-1.67815">
        <ele>19</ele>
        <time>2020-06-12T07:11:11Z</time>
      </trkpt>
      <trkpt lat="49.3417" lon="-1.67811">
        <ele>19.1</ele>
        <time>2020-06-12T07:11:12Z</time>
      </trkpt>
      <trkpt lat="49.34175" lon="-1.67806">
        <ele>19.1</ele>
        <time>2020-06-12T07:11:13Z</time>
      </trkpt>
      <trkpt lat="49.3418" lon="-1.67802">
        <ele>19.1</ele>
        <time>2020-06-12T07:11:14Z</time>
      </trkpt>
      <trkpt lat="49.34185" lon="-1.67797">
        <ele>19.2</ele>
        <time>2020-06-12T07:11:15Z</time>
      </trkpt>
      <trkpt lat="49.3419" lon="-1.67793">
        <ele>19.2</ele>
        <time>2020-06-12T07:11:16Z</time>
      </trkpt>
      <trkpt lat="49.34195" lon="-1.67789">
        <ele>19.2</ele>
        <time>2020-06-12T07:11:17Z</time>
      </trkpt>
      <trkpt lat="49.342" lon="-1.67785">
        <ele>19.2</ele>
        <time>2020-06-12T07:11:18Z</time>
      </trkpt>
      <trkpt lat="49.34203" lon="-1.6778">
        <ele>19.2</ele>
        <time>2020-06-12T07:11:19Z</time>
      </trkpt>
      <trkpt lat="49.34208" lon="-1.67777">
        <ele>19.2</ele>
        <time>2020-06-12T07:11:20Z</time>
      </trkpt>
      <trkpt lat="49.34212" lon="-1.67773">
        <ele>19.2</ele>
        <time>2020-06-12T07:11:21Z</time>
      </trkpt>
      <trkpt lat="49.34217" lon="-1.67767">
        <ele>19.3</ele>
        <time>2020-06-12T07:11:22Z</time>
      </trkpt>
      <trkpt lat="49.34222" lon="-1.67762">
        <ele>19.3</ele>
        <time>2020-06-12T07:11:23Z</time>
      </trkpt>
      <trkpt lat="49.34228" lon="-1.67756">
        <ele>19.3</ele>
        <time>2020-06-12T07:11:24Z</time>
      </trkpt>
      <trkpt lat="49.34232" lon="-1.67751">
        <ele>19.4</ele>
        <time>2020-06-12T07:11:25Z</time>
      </trkpt>
      <trkpt lat="49.34237" lon="-1.67746">
        <ele>19.4</ele>
        <time>2020-06-12T07:11:26Z</time>
      </trkpt>
      <trkpt lat="49.34242" lon="-1.6774">
        <ele>19.5</ele>
        <time>2020-06-12T07:11:27Z</time>
      </trkpt>
      <trkpt lat="49.34247" lon="-1.67735">
        <ele>19.5</ele>
        <time>2020-06-12T07:11:28Z</time>
      </trkpt>
      <trkpt lat="49.34252" lon="-1.6773">
        <ele>19.6</ele>
        <time>2020-06-12T07:11:29Z</time>
      </trkpt>
      <trkpt lat="49.34256" lon="-1.67724">
        <ele>19.6</ele>
        <time>2020-06-12T07:11:30Z</time>
      </trkpt>
      <trkpt lat="49.34261" lon="-1.67719">
        <ele>19.7</ele>
        <time>2020-06-12T07:11:31Z</time>
      </trkpt>
      <trkpt lat="49.34265" lon="-1.67714">
        <ele>19.7</ele>
        <time>2020-06-12T07:11:32Z</time>
      </trkpt>
      <trkpt lat="49.34269" lon="-1.67709">
        <ele>19.8</ele>
        <time>2020-06-12T07:11:33Z</time>
      </trkpt>
      <trkpt lat="49.34273" lon="-1.67704">
        <ele>19.9</ele>
        <time>2020-06-12T07:11:34Z</time>
      </trkpt>
      <trkpt lat="49.34278" lon="-1.67698">
        <ele>20</ele>
        <time>2020-06-12T07:11:35Z</time>
      </trkpt>
      <trkpt lat="49.34283" lon="-1.67692">
        <ele>20</ele>
        <time>2020-06-12T07:11:36Z</time>
      </trkpt>
      <trkpt lat="49.34287" lon="-1.67686">
        <ele>20.1</ele>
        <time>2020-06-12T07:11:37Z</time>
      </trkpt>
      <trkpt lat="49.3429" lon="-1.6768">
        <ele>20.2</ele>
        <time>2020-06-12T07:11:38Z</time>
      </trkpt>
      <trkpt lat="49.34295" lon="-1.67674">
        <ele>20.3</ele>
        <time>2020-06-12T07:11:39Z</time>
      </trkpt>
      <trkpt lat="49.34301" lon="-1.67669">
        <ele>20.4</ele>
        <time>2020-06-12T07:11:40Z</time>
      </trkpt>
      <trkpt lat="49.34306" lon="-1.67665">
        <ele>20.5</ele>
        <time>2020-06-12T07:11:41Z</time>
      </trkpt>
      <trkpt lat="49.3431" lon="-1.67659">
        <ele>20.6</ele>
        <time>2020-06-12T07:11:42Z</time>
      </trkpt>
      <trkpt lat="49.34315" lon="-1.67654">
        <ele>20.7</ele>
        <time>2020-06-12T07:11:43Z</time>
      </trkpt>
      <trkpt lat="49.3432" lon="-1.67648">
        <ele>20.8</ele>
        <time>2020-06-12T07:11:44Z</time>
      </trkpt>
      <trkpt lat="49.34324" lon="-1.67643">
        <ele>20.9</ele>
        <time>2020-06-12T07:11:45Z</time>
      </trkpt>
      <trkpt lat="49.34328" lon="-1.67637">
        <ele>21</ele>
        <time>2020-06-12T07:11:46Z</time>
      </trkpt>
      <trkpt lat="49.34333" lon="-1.67631">
        <ele>21</ele>
        <time>2020-06-12T07:11:47Z</time>
      </trkpt>
      <trkpt lat="49.34337" lon="-1.67626">
        <ele>21.1</ele>
        <time>2020-06-12T07:11:48Z</time>
      </trkpt>
      <trkpt lat="49.34341" lon="-1.67622">
        <ele>21.3</ele>
        <time>2020-06-12T07:11:49Z</time>
      </trkpt>
      <trkpt lat="49.34346" lon="-1.67617">
        <ele>21.4</ele>
        <time>2020-06-12T07:11:50Z</time>
      </trkpt>
      <trkpt lat="49.3435" lon="-1.67612">
        <ele>21.5</ele>
        <time>2020-06-12T07:11:51Z</time>
      </trkpt>
      <trkpt lat="49.34353" lon="-1.67607">
        <ele>21.7</ele>
        <time>2020-06-12T07:11:52Z</time>
      </trkpt>
      <trkpt lat="49.34357" lon="-1.67604">
        <ele>21.8</ele>
        <time>2020-06-12T07:11:53Z</time>
      </trkpt>
      <trkpt lat="49.3436" lon="-1.67599">
        <ele>21.9</ele>
        <time>2020-06-12T07:11:54Z</time>
      </trkpt>
      <trkpt lat="49.34364" lon="-1.67594">
        <ele>22.1</ele>
        <time>2020-06-12T07:11:55Z</time>
      </trkpt>
      <trkpt lat="49.34369" lon="-1.67588">
        <ele>22.3</ele>
        <time>2020-06-12T07:11:56Z</time>
      </trkpt>
      <trkpt lat="49.34373" lon="-1.67582">
        <ele>22.4</ele>
        <time>2020-06-12T07:11:57Z</time>
      </trkpt>
      <trkpt lat="49.34376" lon="-1.67578">
        <ele>22.5</ele>
        <time>2020-06-12T07:11:58Z</time>
      </trkpt>
      <trkpt lat="49.3438" lon="-1.67574">
        <ele>22.7</ele>
        <time>2020-06-12T07:11:59Z</time>
      </trkpt>
      <trkpt lat="49.34385" lon="-1.67569">
        <ele>23</ele>
        <time>2020-06-12T07:12:00Z</time>
      </trkpt>
      <trkpt lat="49.34389" lon="-1.67564">
        <ele>23.2</ele>
        <time>2020-06-12T07:12:01Z</time>
      </trkpt>
      <trkpt lat="49.34393" lon="-1.6756">
        <ele>23.5</ele>
        <time>2020-06-12T07:12:02Z</time>
      </trkpt>
      <trkpt lat="49.34396" lon="-1.67555">
        <ele>23.8</ele>
        <time>2020-06-12T07:12:03Z</time>
      </trkpt>
      <trkpt lat="49.34401" lon="-1.6755">
        <ele>24.1</ele>
        <time>2020-06-12T07:12:04Z</time>
      </trkpt>
      <trkpt lat="49.34405" lon="-1.67543">
        <ele>24.5</ele>
        <time>2020-06-12T07:12:05Z</time>
      </trkpt>
      <trkpt lat="49.34408" lon="-1.67538">
        <ele>24.8</ele>
        <time>2020-06-12T07:12:06Z</time>
      </trkpt>
      <trkpt lat="49.34412" lon="-1.67534">
        <ele>25.1</ele>
        <time>2020-06-12T07:12:07Z</time>
      </trkpt>
      <trkpt lat="49.34415" lon="-1.6753">
        <ele>25.3</ele>
        <time>2020-06-12T07:12:08Z</time>
      </trkpt>
      <trkpt lat="49.34419" lon="-1.67529">
        <ele>25.6</ele>
        <time>2020-06-12T07:12:09Z</time>
      </trkpt>
      <trkpt lat="49.34422" lon="-1.67526">
        <ele>25.5</ele>
        <time>2020-06-12T07:12:10Z</time>
      </trkpt>
      <trkpt lat="49.34426" lon="-1.67522">
        <ele>25.3</ele>
        <time>2020-06-12T07:12:11Z</time>
      </trkpt>
      <trkpt lat="49.3443" lon="-1.67519">
        <ele>25.1</ele>
        <time>2020-06-12T07:12:12Z</time>
      </trkpt>
      <trkpt lat="49.34434" lon="-1.67514">
        <ele>24.9</ele>
        <time>2020-06-12T07:12:13Z</time>
      </trkpt>
      <trkpt lat="49.34437" lon="-1.6751">
        <ele>24.7</ele>
        <time>2020-06-12T07:12:14Z</time>
      </trkpt>
      <trkpt lat="49.34441" lon="-1.67506">
        <ele>24.5</ele>
        <time>2020-06-12T07:12:15Z</time>
      </trkpt>
      <trkpt lat="49.34445" lon="-1.67502">
        <ele>24.3</ele>
        <time>2020-06-12T07:12:16Z</time>
      </trkpt>
      <trkpt lat="49.34449" lon="-1.67499">
        <ele>24.2</ele>
        <time>2020-06-12T07:12:17Z</time>
      </trkpt>
      <trkpt lat="49.34452" lon="-1.67495">
        <ele>24.2</ele>
        <time>2020-06-12T07:12:18Z</time>
      </trkpt>
      <trkpt lat="49.34455" lon="-1.67491">
        <ele>24.2</ele>
        <time>2020-06-12T07:12:19Z</time>
      </trkpt>
      <trkpt lat="49.34459" lon="-1.67486">
        <ele>24.3</ele>
        <time>2020-06-12T07:12:20Z</time>
      </trkpt>
      <trkpt lat="49.34463" lon="-1.67481">
        <ele>24.3</ele>
        <time>2020-06-12T07:12:21Z</time>
      </trkpt>
      <trkpt lat="49.34467" lon="-1.67476">
        <ele>24.5</ele>
        <time>2020-06-12T07:12:22Z</time>
      </trkpt>
      <trkpt lat="49.34471" lon="-1.67471">
        <ele>24.6</ele>
        <time>2020-06-12T07:12:23Z</time>
      </trkpt>
      <trkpt lat="49.34475" lon="-1.67468">
        <ele>24.7</ele>
        <time>2020-06-12T07:12:24Z</time>
      </trkpt>
      <trkpt lat="49.34479" lon="-1.67464">
        <ele>24.8</ele>
        <time>2020-06-12T07:12:25Z</time>
      </trkpt>
      <trkpt lat="49.34483" lon="-1.67459">
        <ele>25</ele>
        <time>2020-06-12T07:12:26Z</time>
      </trkpt>
      <trkpt lat="49.34485" lon="-1.67455">
        <ele>25.1</ele>
        <time>2020-06-12T07:12:27Z</time>
      </trkpt>
      <trkpt lat="49.34488" lon="-1.67451">
        <ele>25.3</ele>
        <time>2020-06-12T07:12:28Z</time>
      </trkpt>
      <trkpt lat="49.34492" lon="-1.67446">
        <ele>25.4</ele>
        <time>2020-06-12T07:12:29Z</time>
      </trkpt>
      <trkpt lat="49.34495" lon="-1.67442">
        <ele>25.6</ele>
        <time>2020-06-12T07:12:30Z</time>
      </trkpt>
      <trkpt lat="49.34499" lon="-1.67438">
        <ele>25.7</ele>
        <time>2020-06-12T07:12:31Z</time>
      </trkpt>
      <trkpt lat="49.34503" lon="-1.67434">
        <ele>25.9</ele>
        <time>2020-06-12T07:12:32Z</time>
      </trkpt>
      <trkpt lat="49.34505" lon="-1.67429">
        <ele>26</ele>
        <time>2020-06-12T07:12:33Z</time>
      </trkpt>
      <trkpt lat="49.3451" lon="-1.67426">
        <ele>26.1</ele>
        <time>2020-06-12T07:12:34Z</time>
      </trkpt>
      <trkpt lat="49.34513" lon="-1.67423">
        <ele>26.3</ele>
        <time>2020-06-12T07:12:35Z</time>
      </trkpt>
      <trkpt lat="49.34517" lon="-1.67419">
        <ele>26.4</ele>
        <time>2020-06-12T07:12:36Z</time>
      </trkpt>
      <trkpt lat="49.3452" lon="-1.67415">
        <ele>26.5</ele>
        <time>2020-06-12T07:12:37Z</time>
      </trkpt>
      <trkpt lat="49.34524" lon="-1.67411">
        <ele>26.7</ele>
        <time>2020-06-12T07:12:38Z</time>
      </trkpt>
      <trkpt lat="49.34527" lon="-1.67407">
        <ele>26.8</ele>
        <time>2020-06-12T07:12:39Z</time>
      </trkpt>
      <trkpt lat="49.3453" lon="-1.67403">
        <ele>26.9</ele>
        <time>2020-06-12T07:12:40Z</time>
      </trkpt>
      <trkpt lat="49.34533" lon="-1.674">
        <ele>27</ele>
        <time>2020-06-12T07:12:41Z</time>
      </trkpt>
      <trkpt lat="49.34537" lon="-1.67395">
        <ele>27.2</ele>
        <time>2020-06-12T07:12:42Z</time>
      </trkpt>
      <trkpt lat="49.3454" lon="-1.67391">
        <ele>27.3</ele>
        <time>2020-06-12T07:12:43Z</time>
      </trkpt>
      <trkpt lat="49.34543" lon="-1.67386">
        <ele>27.4</ele>
        <time>2020-06-12T07:12:44Z</time>
      </trkpt>
      <trkpt lat="49.34546" lon="-1.67381">
        <ele>27.5</ele>
        <time>2020-06-12T07:12:45Z</time>
      </trkpt>
      <trkpt lat="49.34549" lon="-1.67378">
        <ele>27.6</ele>
        <time>2020-06-12T07:12:46Z</time>
      </trkpt>
      <trkpt lat="49.34554" lon="-1.67375">
        <ele>27.8</ele>
        <time>2020-06-12T07:12:47Z</time>
      </trkpt>
      <trkpt lat="49.34558" lon="-1.67369">
        <ele>28</ele>
        <time>2020-06-12T07:12:48Z</time>
      </trkpt>
      <trkpt lat="49.34562" lon="-1.67365">
        <ele>28.2</ele>
        <time>2020-06-12T07:12:49Z</time>
      </trkpt>
      <trkpt lat="49.34566" lon="-1.67361">
        <ele>28.3</ele>
        <time>2020-06-12T07:12:50Z</time>
      </trkpt>
      <trkpt lat="49.34569" lon="-1.67357">
        <ele>28.5</ele>
        <time>2020-06-12T07:12:51Z</time>
      </trkpt>
      <trkpt lat="49.34573" lon="-1.67353">
        <ele>28.6</ele>
        <time>2020-06-12T07:12:52Z</time>
      </trkpt>
      <trkpt lat="49.34576" lon="-1.67349">
        <ele>28.8</ele>
        <time>2020-06-12T07:12:53Z</time>
      </trkpt>
      <trkpt lat="49.34581" lon="-1.67345">
        <ele>29</ele>
        <time>2020-06-12T07:12:54Z</time>
      </trkpt>
      <trkpt lat="49.34585" lon="-1.67341">
        <ele>29.1</ele>
        <time>2020-06-12T07:12:55Z</time>
      </trkpt>
      <trkpt lat="49.34588" lon="-1.67337">
        <ele>29.2</ele>
        <time>2020-06-12T07:12:56Z</time>
      </trkpt>
      <trkpt lat="49.34591" lon="-1.67333">
        <ele>29.3</ele>
        <time>2020-06-12T07:12:57Z</time>
      </trkpt>
      <trkpt lat="49.34595" lon="-1.67329">
        <ele>29.5</ele>
        <time>2020-06-12T07:12:58Z</time>
      </trkpt>
      <trkpt lat="49.34597" lon="-1.67325">
        <ele>29.5</ele>
        <time>2020-06-12T07:12:59Z</time>
      </trkpt>
      <trkpt lat="49.34601" lon="-1.67321">
        <ele>29.7</ele>
        <time>2020-06-12T07:13:00Z</time>
      </trkpt>
      <trkpt lat="49.34603" lon="-1.67317">
        <ele>29.7</ele>
        <time>2020-06-12T07:13:01Z</time>
      </trkpt>
      <trkpt lat="49.34607" lon="-1.67314">
        <ele>29.8</ele>
        <time>2020-06-12T07:13:02Z</time>
      </trkpt>
      <trkpt lat="49.34611" lon="-1.6731">
        <ele>29.9</ele>
        <time>2020-06-12T07:13:03Z</time>
      </trkpt>
      <trkpt lat="49.34614" lon="-1.67307">
        <ele>30.1</ele>
        <time>2020-06-12T07:13:04Z</time>
      </trkpt>
      <trkpt lat="49.34617" lon="-1.67303">
        <ele>30.2</ele>
        <time>2020-06-12T07:13:05Z</time>
      </trkpt>
      <trkpt lat="49.34621" lon="-1.67299">
        <ele>30.3</ele>
        <time>2020-06-12T07:13:06Z</time>
      </trkpt>
      <trkpt lat="49.34624" lon="-1.67295">
        <ele>30.4</ele>
        <time>2020-06-12T07:13:07Z</time>
      </trkpt>
      <trkpt lat="49.34627" lon="-1.6729">
        <ele>30.5</ele>
        <time>2020-06-12T07:13:08Z</time>
      </trkpt>
      <trkpt lat="49.3463" lon="-1.67286">
        <ele>30.6</ele>
        <time>2020-06-12T07:13:09Z</time>
      </trkpt>
      <trkpt lat="49.34634" lon="-1.67283">
        <ele>30.7</ele>
        <time>2020-06-12T07:13:10Z</time>
      </trkpt>
      <trkpt lat="49.34638" lon="-1.6728">
        <ele>30.9</ele>
        <time>2020-06-12T07:13:11Z</time>
      </trkpt>
      <trkpt lat="49.34641" lon="-1.67276">
        <ele>31</ele>
        <time>2020-06-12T07:13:12Z</time>
      </trkpt>
      <trkpt lat="49.34645" lon="-1.67272">
        <ele>31.2</ele>
        <time>2020-06-12T07:13:13Z</time>
      </trkpt>
      <trkpt lat="49.3465" lon="-1.67269">
        <ele>31.3</ele>
        <time>2020-06-12T07:13:14Z</time>
      </trkpt>
      <trkpt lat="49.34653" lon="-1.67265">
        <ele>31.4</ele>
        <time>2020-06-12T07:13:15Z</time>
      </trkpt>
      <trkpt lat="49.34656" lon="-1.67262">
        <ele>31.5</ele>
        <time>2020-06-12T07:13:16Z</time>
      </trkpt>
      <trkpt lat="49.34659" lon="-1.67259">
        <ele>31.6</ele>
        <time>2020-06-12T07:13:17Z</time>
      </trkpt>
      <trkpt lat="49.34662" lon="-1.67255">
        <ele>31.8</ele>
        <time>2020-06-12T07:13:18Z</time>
      </trkpt>
      <trkpt lat="49.34666" lon="-1.67252">
        <ele>31.9</ele>
        <time>2020-06-12T07:13:19Z</time>
      </trkpt>
      <trkpt lat="49.3467" lon="-1.67248">
        <ele>32.1</ele>
        <time>2020-06-12T07:13:20Z</time>
      </trkpt>
      <trkpt lat="49.34674" lon="-1.67246">
        <ele>32.2</ele>
        <time>2020-06-12T07:13:21Z</time>
      </trkpt>
      <trkpt lat="49.34678" lon="-1.67243">
        <ele>32.3</ele>
        <time>2020-06-12T07:13:22Z</time>
      </trkpt>
      <trkpt lat="49.34682" lon="-1.6724">
        <ele>32.4</ele>
        <time>2020-06-12T07:13:23Z</time>
      </trkpt>
      <trkpt lat="49.34685" lon="-1.67237">
        <ele>32.5</ele>
        <time>2020-06-12T07:13:24Z</time>
      </trkpt>
      <trkpt lat="49.34689" lon="-1.67234">
        <ele>32.6</ele>
        <time>2020-06-12T07:13:25Z</time>
      </trkpt>
      <trkpt lat="49.34692" lon="-1.6723">
        <ele>32.7</ele>
        <time>2020-06-12T07:13:26Z</time>
      </trkpt>
      <trkpt lat="49.34697" lon="-1.67226">
        <ele>32.9</ele>
        <time>2020-06-12T07:13:27Z</time>
      </trkpt>
      <trkpt lat="49.34701" lon="-1.67223">
        <ele>33</ele>
        <time>2020-06-12T07:13:28Z</time>
      </trkpt>
      <trkpt lat="49.34704" lon="-1.67219">
        <ele>33.1</ele>
        <time>2020-06-12T07:13:29Z</time>
      </trkpt>
      <trkpt lat="49.34707" lon="-1.67216">
        <ele>33.2</ele>
        <time>2020-06-12T07:13:30Z</time>
      </trkpt>
      <trkpt lat="49.3471" lon="-1.67214">
        <ele>33.3</ele>
        <time>2020-06-12T07:13:31Z</time>
      </trkpt>
      <trkpt lat="49.34715" lon="-1.67211">
        <ele>33.4</ele>
        <time>2020-06-12T07:13:32Z</time>
      </trkpt>
      <trkpt lat="49.3472" lon="-1.67208">
        <ele>33.5</ele>
        <time>2020-06-12T07:13:33Z</time>
      </trkpt>
      <trkpt lat="49.34724" lon="-1.67206">
        <ele>33.6</ele>
        <time>2020-06-12T07:13:34Z</time>
      </trkpt>
      <trkpt lat="49.34728" lon="-1.67204">
        <ele>33.7</ele>
        <time>2020-06-12T07:13:35Z</time>
      </trkpt>
      <trkpt lat="49.34732" lon="-1.67201">
        <ele>33.8</ele>
        <time>2020-06-12T07:13:36Z</time>
      </trkpt>
      <trkpt lat="49.34737" lon="-1.67199">
        <ele>33.9</ele>
        <time>2020-06-12T07:13:37Z</time>
      </trkpt>
      <trkpt lat="49.34741" lon="-1.67198">
        <ele>34</ele>
        <time>2020-06-12T07:13:38Z</time>
      </trkpt>
      <trkpt lat="49.34745" lon="-1.67196">
        <ele>34.2</ele>
        <time>2020-06-12T07:13:39Z</time>
      </trkpt>
      <trkpt lat="49.34749" lon="-1.67193">
        <ele>34.3</ele>
        <time>2020-06-12T07:13:40Z</time>
      </trkpt>
      <trkpt lat="49.34752" lon="-1.6719">
        <ele>34.4</ele>
        <time>2020-06-12T07:13:41Z</time>
      </trkpt>
      <trkpt lat="49.34757" lon="-1.67187">
        <ele>34.6</ele>
        <time>2020-06-12T07:13:42Z</time>
      </trkpt>
      <trkpt lat="49.34761" lon="-1.67187">
        <ele>34.7</ele>
        <time>2020-06-12T07:13:43Z</time>
      </trkpt>
      <trkpt lat="49.34765" lon="-1.67186">
        <ele>34.8</ele>
        <time>2020-06-12T07:13:44Z</time>
      </trkpt>
      <trkpt lat="49.34768" lon="-1.67184">
        <ele>35</ele>
        <time>2020-06-12T07:13:45Z</time>
      </trkpt>
      <trkpt lat="49.34772" lon="-1.67182">
        <ele>35.1</ele>
        <time>2020-06-12T07:13:46Z</time>
      </trkpt>
      <trkpt lat="49.34776" lon="-1.67178">
        <ele>35.3</ele>
        <time>2020-06-12T07:13:47Z</time>
      </trkpt>
      <trkpt lat="49.3478" lon="-1.67176">
        <ele>35.4</ele>
        <time>2020-06-12T07:13:48Z</time>
      </trkpt>
      <trkpt lat="49.34783" lon="-1.67176">
        <ele>35.4</ele>
        <time>2020-06-12T07:13:49Z</time>
      </trkpt>
      <trkpt lat="49.34787" lon="-1.67175">
        <ele>35.5</ele>
        <time>2020-06-12T07:13:50Z</time>
      </trkpt>
      <trkpt lat="49.34792" lon="-1.67174">
        <ele>35.6</ele>
        <time>2020-06-12T07:13:51Z</time>
      </trkpt>
      <trkpt lat="49.34796" lon="-1.67172">
        <ele>35.7</ele>
        <time>2020-06-12T07:13:52Z</time>
      </trkpt>
      <trkpt lat="49.34799" lon="-1.67171">
        <ele>35.8</ele>
        <time>2020-06-12T07:13:53Z</time>
      </trkpt>
      <trkpt lat="49.34804" lon="-1.6717">
        <ele>35.9</ele>
        <time>2020-06-12T07:13:54Z</time>
      </trkpt>
      <trkpt lat="49.34808" lon="-1.6717">
        <ele>36</ele>
        <time>2020-06-12T07:13:55Z</time>
      </trkpt>
      <trkpt lat="49.34812" lon="-1.67169">
        <ele>36</ele>
        <time>2020-06-12T07:13:56Z</time>
      </trkpt>
      <trkpt lat="49.34816" lon="-1.67167">
        <ele>36.1</ele>
        <time>2020-06-12T07:13:57Z</time>
      </trkpt>
      <trkpt lat="49.3482" lon="-1.67166">
        <ele>36.2</ele>
        <time>2020-06-12T07:13:58Z</time>
      </trkpt>
      <trkpt lat="49.34824" lon="-1.67164">
        <ele>36.3</ele>
        <time>2020-06-12T07:13:59Z</time>
      </trkpt>
      <trkpt lat="49.34828" lon="-1.67163">
        <ele>36.4</ele>
        <time>2020-06-12T07:14:00Z</time>
      </trkpt>
      <trkpt lat="49.34832" lon="-1.67161">
        <ele>36.4</ele>
        <time>2020-06-12T07:14:01Z</time>
      </trkpt>
      <trkpt lat="49.34837" lon="-1.6716">
        <ele>36.5</ele>
        <time>2020-06-12T07:14:02Z</time>
      </trkpt>
      <trkpt lat="49.34841" lon="-1.6716">
        <ele>36.6</ele>
        <time>2020-06-12T07:14:03Z</time>
      </trkpt>
      <trkpt lat="49.34844" lon="-1.6716">
        <ele>36.6</ele>
        <time>2020-06-12T07:14:04Z</time>
      </trkpt>
      <trkpt lat="49.34848" lon="-1.67159">
        <ele>36.7</ele>
        <time>2020-06-12T07:14:05Z</time>
      </trkpt>
      <trkpt lat="49.34852" lon="-1.67158">
        <ele>36.8</ele>
        <time>2020-06-12T07:14:06Z</time>
      </trkpt>
      <trkpt lat="49.34857" lon="-1.67157">
        <ele>37</ele>
        <time>2020-06-12T07:14:07Z</time>
      </trkpt>
      <trkpt lat="49.34861" lon="-1.67157">
        <ele>37.1</ele>
        <time>2020-06-12T07:14:08Z</time>
      </trkpt>
      <trkpt lat="49.34866" lon="-1.67157">
        <ele>37.2</ele>
        <time>2020-06-12T07:14:09Z</time>
      </trkpt>
      <trkpt lat="49.3487" lon="-1.67156">
        <ele>37.3</ele>
        <time>2020-06-12T07:14:10Z</time>
      </trkpt>
      <trkpt lat="49.34876" lon="-1.67156">
        <ele>37.4</ele>
        <time>2020-06-12T07:14:11Z</time>
      </trkpt>
      <trkpt lat="49.34881" lon="-1.67154">
        <ele>37.5</ele>
        <time>2020-06-12T07:14:12Z</time>
      </trkpt>
      <trkpt lat="49.34886" lon="-1.67154">
        <ele>37.6</ele>
        <time>2020-06-12T07:14:13Z</time>
      </trkpt>
      <trkpt lat="49.3489" lon="-1.67154">
        <ele>37.7</ele>
        <time>2020-06-12T07:14:14Z</time>
      </trkpt>
      <trkpt lat="49.34895" lon="-1.67153">
        <ele>37.9</ele>
        <time>2020-06-12T07:14:15Z</time>
      </trkpt>
      <trkpt lat="49.349" lon="-1.67154">
        <ele>37.9</ele>
        <time>2020-06-12T07:14:16Z</time>
      </trkpt>
      <trkpt lat="49.34905" lon="-1.67154">
        <ele>38</ele>
        <time>2020-06-12T07:14:17Z</time>
      </trkpt>
      <trkpt lat="49.3491" lon="-1.67154">
        <ele>38.1</ele>
        <time>2020-06-12T07:14:18Z</time>
      </trkpt>
      <trkpt lat="49.34915" lon="-1.67154">
        <ele>38.2</ele>
        <time>2020-06-12T07:14:19Z</time>
      </trkpt>
      <trkpt lat="49.34919" lon="-1.67154">
        <ele>38.3</ele>
        <time>2020-06-12T07:14:20Z</time>
      </trkpt>
      <trkpt lat="49.34924" lon="-1.67153">
        <ele>38.3</ele>
        <time>2020-06-12T07:14:21Z</time>
      </trkpt>
      <trkpt lat="49.34929" lon="-1.67154">
        <ele>38.4</ele>
        <time>2020-06-12T07:14:22Z</time>
      </trkpt>
      <trkpt lat="49.34934" lon="-1.67153">
        <ele>38.4</ele>
        <time>2020-06-12T07:14:23Z</time>
      </trkpt>
      <trkpt lat="49.3494" lon="-1.67153">
        <ele>38.5</ele>
        <time>2020-06-12T07:14:24Z</time>
      </trkpt>
      <trkpt lat="49.34946" lon="-1.67154">
        <ele>38.6</ele>
        <time>2020-06-12T07:14:25Z</time>
      </trkpt>
      <trkpt lat="49.34951" lon="-1.67155">
        <ele>38.6</ele>
        <time>2020-06-12T07:14:26Z</time>
      </trkpt>
      <trkpt lat="49.34955" lon="-1.67156">
        <ele>38.7</ele>
        <time>2020-06-12T07:14:27Z</time>
      </trkpt>
      <trkpt lat="49.3496" lon="-1.67157">
        <ele>38.8</ele>
        <time>2020-06-12T07:14:28Z</time>
      </trkpt>
      <trkpt lat="49.34965" lon="-1.67158">
        <ele>38.8</ele>
        <time>2020-06-12T07:14:29Z</time>
      </trkpt>
      <trkpt lat="49.34969" lon="-1.6716">
        <ele>38.9</ele>
        <time>2020-06-12T07:14:30Z</time>
      </trkpt>
      <trkpt lat="49.34975" lon="-1.67161">
        <ele>39</ele>
        <time>2020-06-12T07:14:31Z</time>
      </trkpt>
      <trkpt lat="49.3498" lon="-1.67162">
        <ele>39.1</ele>
        <time>2020-06-12T07:14:32Z</time>
      </trkpt>
      <trkpt lat="49.34985" lon="-1.67163">
        <ele>39.1</ele>
        <time>2020-06-12T07:14:33Z</time>
      </trkpt>
      <trkpt lat="49.34991" lon="-1.67165">
        <ele>39.2</ele>
        <time>2020-06-12T07:14:34Z</time>
      </trkpt>
      <trkpt lat="49.34996" lon="-1.67166">
        <ele>39.3</ele>
        <time>2020-06-12T07:14:35Z</time>
      </trkpt>
      <trkpt lat="49.35001" lon="-1.67166">
        <ele>39.3</ele>
        <time>2020-06-12T07:14:36Z</time>
      </trkpt>
      <trkpt lat="49.35006" lon="-1.67167">
        <ele>39.4</ele>
        <time>2020-06-12T07:14:37Z</time>
      </trkpt>
      <trkpt lat="49.3501" lon="-1.67169">
        <ele>39.4</ele>
        <time>2020-06-12T07:14:38Z</time>
      </trkpt>
      <trkpt lat="49.35015" lon="-1.67172">
        <ele>39.5</ele>
        <time>2020-06-12T07:14:39Z</time>
      </trkpt>
      <trkpt lat="49.3502" lon="-1.67173">
        <ele>39.5</ele>
        <time>2020-06-12T07:14:40Z</time>
      </trkpt>
      <trkpt lat="49.35025" lon="-1.67175">
        <ele>39.6</ele>
        <time>2020-06-12T07:14:41Z</time>
      </trkpt>
      <trkpt lat="49.3503" lon="-1.67175">
        <ele>39.6</ele>
        <time>2020-06-12T07:14:42Z</time>
      </trkpt>
      <trkpt lat="49.35034" lon="-1.67177">
        <ele>39.6</ele>
        <time>2020-06-12T07:14:43Z</time>
      </trkpt>
      <trkpt lat="49.35039" lon="-1.67178">
        <ele>39.7</ele>
        <time>2020-06-12T07:14:44Z</time>
      </trkpt>
      <trkpt lat="49.35043" lon="-1.67182">
        <ele>39.7</ele>
        <time>2020-06-12T07:14:45Z</time>
      </trkpt>
      <trkpt lat="49.35048" lon="-1.67184">
        <ele>39.8</ele>
        <time>2020-06-12T07:14:46Z</time>
      </trkpt>
      <trkpt lat="49.35052" lon="-1.67187">
        <ele>39.8</ele>
        <time>2020-06-12T07:14:47Z</time>
      </trkpt>
      <trkpt lat="49.35057" lon="-1.67189">
        <ele>39.8</ele>
        <time>2020-06-12T07:14:48Z</time>
      </trkpt>
      <trkpt lat="49.35062" lon="-1.67191">
        <ele>39.8</ele>
        <time>2020-06-12T07:14:49Z</time>
      </trkpt>
      <trkpt lat="49.35067" lon="-1.67192">
        <ele>39.9</ele>
        <time>2020-06-12T07:14:50Z</time>
      </trkpt>
      <trkpt lat="49.35073" lon="-1.67195">
        <ele>39.9</ele>
        <time>2020-06-12T07:14:51Z</time>
      </trkpt>
      <trkpt lat="49.35077" lon="-1.67198">
        <ele>39.9</ele>
        <time>2020-06-12T07:14:52Z</time>
      </trkpt>
      <trkpt lat="49.35082" lon="-1.67202">
        <ele>40</ele>
        <time>2020-06-12T07:14:53Z</time>
      </trkpt>
      <trkpt lat="49.35088" lon="-1.67204">
        <ele>40</ele>
        <time>2020-06-12T07:14:54Z</time>
      </trkpt>
      <trkpt lat="49.35092" lon="-1.67208">
        <ele>40</ele>
        <time>2020-06-12T07:14:55Z</time>
      </trkpt>
      <trkpt lat="49.35098" lon="-1.6721">
        <ele>40.1</ele>
        <time>2020-06-12T07:14:56Z</time>
      </trkpt>
      <trkpt lat="49.35103" lon="-1.67213">
        <ele>40.1</ele>
        <time>2020-06-12T07:14:57Z</time>
      </trkpt>
      <trkpt lat="49.35107" lon="-1.67216">
        <ele>40.2</ele>
        <time>2020-06-12T07:14:58Z</time>
      </trkpt>
      <trkpt lat="49.35112" lon="-1.67219">
        <ele>40.3</ele>
        <time>2020-06-12T07:14:59Z</time>
      </trkpt>
      <trkpt lat="49.35117" lon="-1.67222">
        <ele>40.4</ele>
        <time>2020-06-12T07:15:00Z</time>
      </trkpt>
      <trkpt lat="49.35123" lon="-1.67226">
        <ele>40.6</ele>
        <time>2020-06-12T07:15:01Z</time>
      </trkpt>
      <trkpt lat="49.35128" lon="-1.6723">
        <ele>40.8</ele>
        <time>2020-06-12T07:15:02Z</time>
      </trkpt>
      <trkpt lat="49.35133" lon="-1.67233">
        <ele>40.4</ele>
        <time>2020-06-12T07:15:03Z</time>
      </trkpt>
      <trkpt lat="49.35138" lon="-1.67237">
        <ele>40.2</ele>
        <time>2020-06-12T07:15:04Z</time>
      </trkpt>
      <trkpt lat="49.35143" lon="-1.67241">
        <ele>40.1</ele>
        <time>2020-06-12T07:15:05Z</time>
      </trkpt>
      <trkpt lat="49.35149" lon="-1.67244">
        <ele>39.9</ele>
        <time>2020-06-12T07:15:06Z</time>
      </trkpt>
      <trkpt lat="49.35154" lon="-1.67247">
        <ele>39.9</ele>
        <time>2020-06-12T07:15:07Z</time>
      </trkpt>
      <trkpt lat="49.35158" lon="-1.67251">
        <ele>39.8</ele>
        <time>2020-06-12T07:15:08Z</time>
      </trkpt>
      <trkpt lat="49.35162" lon="-1.67254">
        <ele>39.8</ele>
        <time>2020-06-12T07:15:09Z</time>
      </trkpt>
      <trkpt lat="49.35166" lon="-1.67259">
        <ele>39.8</ele>
        <time>2020-06-12T07:15:10Z</time>
      </trkpt>
      <trkpt lat="49.35171" lon="-1.67264">
        <ele>39.8</ele>
        <time>2020-06-12T07:15:11Z</time>
      </trkpt>
      <trkpt lat="49.35176" lon="-1.6727">
        <ele>39.8</ele>
        <time>2020-06-12T07:15:12Z</time>
      </trkpt>
      <trkpt lat="49.35181" lon="-1.67276">
        <ele>39.8</ele>
        <time>2020-06-12T07:15:13Z</time>
      </trkpt>
      <trkpt lat="49.35186" lon="-1.6728">
        <ele>39.8</ele>
        <time>2020-06-12T07:15:14Z</time>
      </trkpt>
      <trkpt lat="49.3519" lon="-1.67286">
        <ele>39.8</ele>
        <time>2020-06-12T07:15:15Z</time>
      </trkpt>
      <trkpt lat="49.35195" lon="-1.67292">
        <ele>39.8</ele>
        <time>2020-06-12T07:15:16Z</time>
      </trkpt>
      <trkpt lat="49.35199" lon="-1.67297">
        <ele>39.8</ele>
        <time>2020-06-12T07:15:17Z</time>
      </trkpt>
      <trkpt lat="49.35204" lon="-1.67303">
        <ele>39.8</ele>
        <time>2020-06-12T07:15:18Z</time>
      </trkpt>
      <trkpt lat="49.35208" lon="-1.67308">
        <ele>39.8</ele>
        <time>2020-06-12T07:15:19Z</time>
      </trkpt>
      <trkpt lat="49.35213" lon="-1.67314">
        <ele>39.8</ele>
        <time>2020-06-12T07:15:20Z</time>
      </trkpt>
      <trkpt lat="49.35217" lon="-1.6732">
        <ele>39.9</ele>
        <time>2020-06-12T07:15:21Z</time>
      </trkpt>
      <trkpt lat="49.35222" lon="-1.67327">
        <ele>40</ele>
        <time>2020-06-12T07:15:22Z</time>
      </trkpt>
      <trkpt lat="49.35226" lon="-1.67334">
        <ele>40.2</ele>
        <time>2020-06-12T07:15:23Z</time>
      </trkpt>
      <trkpt lat="49.35231" lon="-1.67338">
        <ele>40.3</ele>
        <time>2020-06-12T07:15:24Z</time>
      </trkpt>
      <trkpt lat="49.35236" lon="-1.67345">
        <ele>40.3</ele>
        <time>2020-06-12T07:15:25Z</time>
      </trkpt>
      <trkpt lat="49.3524" lon="-1.67352">
        <ele>40.3</ele>
        <time>2020-06-12T07:15:26Z</time>
      </trkpt>
      <trkpt lat="49.35244" lon="-1.67359">
        <ele>40.3</ele>
        <time>2020-06-12T07:15:27Z</time>
      </trkpt>
      <trkpt lat="49.35249" lon="-1.67366">
        <ele>40.3</ele>
        <time>2020-06-12T07:15:28Z</time>
      </trkpt>
      <trkpt lat="49.35254" lon="-1.67371">
        <ele>40.3</ele>
        <time>2020-06-12T07:15:29Z</time>
      </trkpt>
      <trkpt lat="49.3526" lon="-1.67377">
        <ele>40.3</ele>
        <time>2020-06-12T07:15:30Z</time>
      </trkpt>
      <trkpt lat="49.35266" lon="-1.67384">
        <ele>40.3</ele>
        <time>2020-06-12T07:15:31Z</time>
      </trkpt>
      <trkpt lat="49.35272" lon="-1.67391">
        <ele>40.4</ele>
        <time>2020-06-12T07:15:32Z</time>
      </trkpt>
      <trkpt lat="49.35277" lon="-1.67399">
        <ele>39.8</ele>
        <time>2020-06-12T07:15:33Z</time>
      </trkpt>
      <trkpt lat="49.35282" lon="-1.67408">
        <ele>39.7</ele>
        <time>2020-06-12T07:15:34Z</time>
      </trkpt>
      <trkpt lat="49.35286" lon="-1.67416">
        <ele>39.5</ele>
        <time>2020-06-12T07:15:35Z</time>
      </trkpt>
      <trkpt lat="49.35289" lon="-1.67423">
        <ele>39.5</ele>
        <time>2020-06-12T07:15:36Z</time>
      </trkpt>
      <trkpt lat="49.35293" lon="-1.67432">
        <ele>39.4</ele>
        <time>2020-06-12T07:15:37Z</time>
      </trkpt>
      <trkpt lat="49.35297" lon="-1.67439">
        <ele>39.4</ele>
        <time>2020-06-12T07:15:38Z</time>
      </trkpt>
      <trkpt lat="49.35301" lon="-1.67446">
        <ele>39.5</ele>
        <time>2020-06-12T07:15:39Z</time>
      </trkpt>
      <trkpt lat="49.35306" lon="-1.67455">
        <ele>39.5</ele>
        <time>2020-06-12T07:15:40Z</time>
      </trkpt>
      <trkpt lat="49.35311" lon="-1.67463">
        <ele>39.5</ele>
        <time>2020-06-12T07:15:41Z</time>
      </trkpt>
      <trkpt lat="49.35315" lon="-1.6747">
        <ele>39.5</ele>
        <time>2020-06-12T07:15:42Z</time>
      </trkpt>
      <trkpt lat="49.35319" lon="-1.67477">
        <ele>39.5</ele>
        <time>2020-06-12T07:15:43Z</time>
      </trkpt>
      <trkpt lat="49.35323" lon="-1.67486">
        <ele>39.6</ele>
        <time>2020-06-12T07:15:44Z</time>
      </trkpt>
      <trkpt lat="49.35327" lon="-1.67494">
        <ele>39.7</ele>
        <time>2020-06-12T07:15:45Z</time>
      </trkpt>
      <trkpt lat="49.3533" lon="-1.67503">
        <ele>39.9</ele>
        <time>2020-06-12T07:15:46Z</time>
      </trkpt>
      <trkpt lat="49.35334" lon="-1.67511">
        <ele>40.1</ele>
        <time>2020-06-12T07:15:47Z</time>
      </trkpt>
      <trkpt lat="49.35338" lon="-1.6752">
        <ele>40.3</ele>
        <time>2020-06-12T07:15:48Z</time>
      </trkpt>
      <trkpt lat="49.35341" lon="-1.67528">
        <ele>40.1</ele>
        <time>2020-06-12T07:15:49Z</time>
      </trkpt>
      <trkpt lat="49.35345" lon="-1.67536">
        <ele>40</ele>
        <time>2020-06-12T07:15:50Z</time>
      </trkpt>
      <trkpt lat="49.35347" lon="-1.67543">
        <ele>39.8</ele>
        <time>2020-06-12T07:15:51Z</time>
      </trkpt>
      <trkpt lat="49.3535" lon="-1.67551">
        <ele>39.7</ele>
        <time>2020-06-12T07:15:52Z</time>
      </trkpt>
      <trkpt lat="49.35354" lon="-1.6756">
        <ele>39.6</ele>
        <time>2020-06-12T07:15:53Z</time>
      </trkpt>
      <trkpt lat="49.35358" lon="-1.67571">
        <ele>39.6</ele>
        <time>2020-06-12T07:15:54Z</time>
      </trkpt>
      <trkpt lat="49.35362" lon="-1.67581">
        <ele>39.6</ele>
        <time>2020-06-12T07:15:55Z</time>
      </trkpt>
      <trkpt lat="49.35365" lon="-1.67591">
        <ele>39.7</ele>
        <time>2020-06-12T07:15:56Z</time>
      </trkpt>
      <trkpt lat="49.35368" lon="-1.676">
        <ele>39.7</ele>
        <time>2020-06-12T07:15:57Z</time>
      </trkpt>
      <trkpt lat="49.35371" lon="-1.67609">
        <ele>39.7</ele>
        <time>2020-06-12T07:15:58Z</time>
      </trkpt>
      <trkpt lat="49.35373" lon="-1.67617">
        <ele>39.8</ele>
        <time>2020-06-12T07:15:59Z</time>
      </trkpt>
      <trkpt lat="49.35376" lon="-1.67627">
        <ele>39.8</ele>
        <time>2020-06-12T07:16:00Z</time>
      </trkpt>
      <trkpt lat="49.3538" lon="-1.67637">
        <ele>40</ele>
        <time>2020-06-12T07:16:01Z</time>
      </trkpt>
      <trkpt lat="49.35383" lon="-1.67646">
        <ele>40.1</ele>
        <time>2020-06-12T07:16:02Z</time>
      </trkpt>
      <trkpt lat="49.35386" lon="-1.67655">
        <ele>40.3</ele>
        <time>2020-06-12T07:16:03Z</time>
      </trkpt>
      <trkpt lat="49.3539" lon="-1.67665">
        <ele>40.5</ele>
        <time>2020-06-12T07:16:04Z</time>
      </trkpt>
      <trkpt lat="49.35393" lon="-1.67675">
        <ele>40.3</ele>
        <time>2020-06-12T07:16:05Z</time>
      </trkpt>
      <trkpt lat="49.35397" lon="-1.67685">
        <ele>40.1</ele>
        <time>2020-06-12T07:16:06Z</time>
      </trkpt>
      <trkpt lat="49.354" lon="-1.67694">
        <ele>39.8</ele>
        <time>2020-06-12T07:16:07Z</time>
      </trkpt>
      <trkpt lat="49.35403" lon="-1.67704">
        <ele>39.7</ele>
        <time>2020-06-12T07:16:08Z</time>
      </trkpt>
      <trkpt lat="49.35407" lon="-1.67713">
        <ele>39.6</ele>
        <time>2020-06-12T07:16:09Z</time>
      </trkpt>
      <trkpt lat="49.3541" lon="-1.67723">
        <ele>39.6</ele>
        <time>2020-06-12T07:16:10Z</time>
      </trkpt>
      <trkpt lat="49.35414" lon="-1.67732">
        <ele>39.6</ele>
        <time>2020-06-12T07:16:11Z</time>
      </trkpt>
      <trkpt lat="49.35417" lon="-1.67742">
        <ele>39.7</ele>
        <time>2020-06-12T07:16:12Z</time>
      </trkpt>
      <trkpt lat="49.35421" lon="-1.67751">
        <ele>39.7</ele>
        <time>2020-06-12T07:16:13Z</time>
      </trkpt>
      <trkpt lat="49.35425" lon="-1.6776">
        <ele>39.8</ele>
        <time>2020-06-12T07:16:14Z</time>
      </trkpt>
      <trkpt lat="49.35429" lon="-1.6777">
        <ele>39.8</ele>
        <time>2020-06-12T07:16:15Z</time>
      </trkpt>
      <trkpt lat="49.35432" lon="-1.67779">
        <ele>39.9</ele>
        <time>2020-06-12T07:16:16Z</time>
      </trkpt>
      <trkpt lat="49.35435" lon="-1.67787">
        <ele>39.9</ele>
        <time>2020-06-12T07:16:17Z</time>
      </trkpt>
      <trkpt lat="49.35438" lon="-1.67797">
        <ele>39.9</ele>
        <time>2020-06-12T07:16:18Z</time>
      </trkpt>
      <trkpt lat="49.35441" lon="-1.67806">
        <ele>39.9</ele>
        <time>2020-06-12T07:16:19Z</time>
      </trkpt>
      <trkpt lat="49.35444" lon="-1.67816">
        <ele>40</ele>
        <time>2020-06-12T07:16:20Z</time>
      </trkpt>
      <trkpt lat="49.35448" lon="-1.67825">
        <ele>40</ele>
        <time>2020-06-12T07:16:21Z</time>
      </trkpt>
      <trkpt lat="49.3545" lon="-1.67835">
        <ele>40</ele>
        <time>2020-06-12T07:16:22Z</time>
      </trkpt>
      <trkpt lat="49.35454" lon="-1.67843">
        <ele>40</ele>
        <time>2020-06-12T07:16:23Z</time>
      </trkpt>
      <trkpt lat="49.35457" lon="-1.67852">
        <ele>40.1</ele>
        <time>2020-06-12T07:16:24Z</time>
      </trkpt>
      <trkpt lat="49.3546" lon="-1.6786">
        <ele>40.1</ele>
        <time>2020-06-12T07:16:25Z</time>
      </trkpt>
      <trkpt lat="49.35463" lon="-1.67869">
        <ele>40.1</ele>
        <time>2020-06-12T07:16:26Z</time>
      </trkpt>
      <trkpt lat="49.35466" lon="-1.67878">
        <ele>40.1</ele>
        <time>2020-06-12T07:16:27Z</time>
      </trkpt>
      <trkpt lat="49.3547" lon="-1.67887">
        <ele>40</ele>
        <time>2020-06-12T07:16:28Z</time>
      </trkpt>
      <trkpt lat="49.35473" lon="-1.67895">
        <ele>40</ele>
        <time>2020-06-12T07:16:29Z</time>
      </trkpt>
      <trkpt lat="49.35477" lon="-1.67905">
        <ele>39.9</ele>
        <time>2020-06-12T07:16:30Z</time>
      </trkpt>
      <trkpt lat="49.3548" lon="-1.67914">
        <ele>39.9</ele>
        <time>2020-06-12T07:16:31Z</time>
      </trkpt>
      <trkpt lat="49.35484" lon="-1.67923">
        <ele>39.9</ele>
        <time>2020-06-12T07:16:32Z</time>
      </trkpt>
      <trkpt lat="49.35486" lon="-1.67932">
        <ele>39.9</ele>
        <time>2020-06-12T07:16:33Z</time>
      </trkpt>
      <trkpt lat="49.3549" lon="-1.67939">
        <ele>39.9</ele>
        <time>2020-06-12T07:16:34Z</time>
      </trkpt>
      <trkpt lat="49.35493" lon="-1.67947">
        <ele>39.9</ele>
        <time>2020-06-12T07:16:35Z</time>
      </trkpt>
      <trkpt lat="49.35497" lon="-1.67955">
        <ele>39.9</ele>
        <time>2020-06-12T07:16:36Z</time>
      </trkpt>
      <trkpt lat="49.355" lon="-1.67963">
        <ele>39.9</ele>
        <time>2020-06-12T07:16:37Z</time>
      </trkpt>
      <trkpt lat="49.35503" lon="-1.67972">
        <ele>39.9</ele>
        <time>2020-06-12T07:16:38Z</time>
      </trkpt>
      <trkpt lat="49.35506" lon="-1.67981">
        <ele>39.9</ele>
        <time>2020-06-12T07:16:39Z</time>
      </trkpt>
      <trkpt lat="49.3551" lon="-1.67989">
        <ele>39.9</ele>
        <time>2020-06-12T07:16:40Z</time>
      </trkpt>
      <trkpt lat="49.35514" lon="-1.67996">
        <ele>40</ele>
        <time>2020-06-12T07:16:41Z</time>
      </trkpt>
      <trkpt lat="49.35519" lon="-1.68005">
        <ele>40.1</ele>
        <time>2020-06-12T07:16:42Z</time>
      </trkpt>
      <trkpt lat="49.35523" lon="-1.68013">
        <ele>39.9</ele>
        <time>2020-06-12T07:16:43Z</time>
      </trkpt>
      <trkpt lat="49.35527" lon="-1.68022">
        <ele>39.7</ele>
        <time>2020-06-12T07:16:44Z</time>
      </trkpt>
      <trkpt lat="49.35531" lon="-1.68031">
        <ele>39.6</ele>
        <time>2020-06-12T07:16:45Z</time>
      </trkpt>
      <trkpt lat="49.35536" lon="-1.68039">
        <ele>39.5</ele>
        <time>2020-06-12T07:16:46Z</time>
      </trkpt>
      <trkpt lat="49.3554" lon="-1.68047">
        <ele>39.4</ele>
        <time>2020-06-12T07:16:47Z</time>
      </trkpt>
      <trkpt lat="49.35544" lon="-1.68055">
        <ele>39.3</ele>
        <time>2020-06-12T07:16:48Z</time>
      </trkpt>
      <trkpt lat="49.35548" lon="-1.68063">
        <ele>39.2</ele>
        <time>2020-06-12T07:16:49Z</time>
      </trkpt>
      <trkpt lat="49.35552" lon="-1.68071">
        <ele>39.1</ele>
        <time>2020-06-12T07:16:50Z</time>
      </trkpt>
      <trkpt lat="49.35556" lon="-1.6808">
        <ele>38.9</ele>
        <time>2020-06-12T07:16:51Z</time>
      </trkpt>
      <trkpt lat="49.3556" lon="-1.68089">
        <ele>38.8</ele>
        <time>2020-06-12T07:16:52Z</time>
      </trkpt>
      <trkpt lat="49.35564" lon="-1.68097">
        <ele>38.6</ele>
        <time>2020-06-12T07:16:53Z</time>
      </trkpt>
      <trkpt lat="49.35569" lon="-1.68106">
        <ele>38.5</ele>
        <time>2020-06-12T07:16:54Z</time>
      </trkpt>
      <trkpt lat="49.35572" lon="-1.68116">
        <ele>38.3</ele>
        <time>2020-06-12T07:16:55Z</time>
      </trkpt>
      <trkpt lat="49.35576" lon="-1.68124">
        <ele>38.2</ele>
        <time>2020-06-12T07:16:56Z</time>
      </trkpt>
      <trkpt lat="49.3558" lon="-1.68132">
        <ele>38.1</ele>
        <time>2020-06-12T07:16:57Z</time>
      </trkpt>
      <trkpt lat="49.35585" lon="-1.6814">
        <ele>38</ele>
        <time>2020-06-12T07:16:58Z</time>
      </trkpt>
      <trkpt lat="49.35589" lon="-1.68148">
        <ele>37.9</ele>
        <time>2020-06-12T07:16:59Z</time>
      </trkpt>
      <trkpt lat="49.35593" lon="-1.68158">
        <ele>37.7</ele>
        <time>2020-06-12T07:17:00Z</time>
      </trkpt>
      <trkpt lat="49.35598" lon="-1.68168">
        <ele>37.6</ele>
        <time>2020-06-12T07:17:01Z</time>
      </trkpt>
      <trkpt lat="49.35602" lon="-1.68178">
        <ele>37.5</ele>
        <time>2020-06-12T07:17:02Z</time>
      </trkpt>
      <trkpt lat="49.35607" lon="-1.68188">
        <ele>37.3</ele>
        <time>2020-06-12T07:17:03Z</time>
      </trkpt>
      <trkpt lat="49.35612" lon="-1.68196">
        <ele>37.2</ele>
        <time>2020-06-12T07:17:04Z</time>
      </trkpt>
      <trkpt lat="49.35616" lon="-1.68205">
        <ele>37.1</ele>
        <time>2020-06-12T07:17:05Z</time>
      </trkpt>
      <trkpt lat="49.35621" lon="-1.68215">
        <ele>37</ele>
        <time>2020-06-12T07:17:06Z</time>
      </trkpt>
      <trkpt lat="49.35625" lon="-1.68225">
        <ele>37</ele>
        <time>2020-06-12T07:17:07Z</time>
      </trkpt>
      <trkpt lat="49.3563" lon="-1.68234">
        <ele>37</ele>
        <time>2020-06-12T07:17:08Z</time>
      </trkpt>
      <trkpt lat="49.35635" lon="-1.68244">
        <ele>36.5</ele>
        <time>2020-06-12T07:17:09Z</time>
      </trkpt>
      <trkpt lat="49.35639" lon="-1.68254">
        <ele>36.2</ele>
        <time>2020-06-12T07:17:10Z</time>
      </trkpt>
      <trkpt lat="49.35643" lon="-1.68264">
        <ele>36</ele>
        <time>2020-06-12T07:17:11Z</time>
      </trkpt>
      <trkpt lat="49.35648" lon="-1.68274">
        <ele>35.8</ele>
        <time>2020-06-12T07:17:12Z</time>
      </trkpt>
      <trkpt lat="49.35653" lon="-1.68284">
        <ele>35.7</ele>
        <time>2020-06-12T07:17:13Z</time>
      </trkpt>
      <trkpt lat="49.35658" lon="-1.68294">
        <ele>35.5</ele>
        <time>2020-06-12T07:17:14Z</time>
      </trkpt>
      <trkpt lat="49.35663" lon="-1.68303">
        <ele>35.4</ele>
        <time>2020-06-12T07:17:15Z</time>
      </trkpt>
      <trkpt lat="49.35667" lon="-1.68314">
        <ele>35.3</ele>
        <time>2020-06-12T07:17:16Z</time>
      </trkpt>
      <trkpt lat="49.35672" lon="-1.68325">
        <ele>35.2</ele>
        <time>2020-06-12T07:17:17Z</time>
      </trkpt>
      <trkpt lat="49.35678" lon="-1.68333">
        <ele>35.1</ele>
        <time>2020-06-12T07:17:18Z</time>
      </trkpt>
      <trkpt lat="49.35683" lon="-1.68344">
        <ele>35</ele>
        <time>2020-06-12T07:17:19Z</time>
      </trkpt>
      <trkpt lat="49.35688" lon="-1.68354">
        <ele>34.9</ele>
        <time>2020-06-12T07:17:20Z</time>
      </trkpt>
      <trkpt lat="49.35693" lon="-1.68365">
        <ele>34.8</ele>
        <time>2020-06-12T07:17:21Z</time>
      </trkpt>
      <trkpt lat="49.35698" lon="-1.68375">
        <ele>34.7</ele>
        <time>2020-06-12T07:17:22Z</time>
      </trkpt>
      <trkpt lat="49.35702" lon="-1.68386">
        <ele>34.6</ele>
        <time>2020-06-12T07:17:23Z</time>
      </trkpt>
      <trkpt lat="49.35706" lon="-1.68396">
        <ele>34.5</ele>
        <time>2020-06-12T07:17:24Z</time>
      </trkpt>
      <trkpt lat="49.35711" lon="-1.68405">
        <ele>34.5</ele>
        <time>2020-06-12T07:17:25Z</time>
      </trkpt>
      <trkpt lat="49.35717" lon="-1.68415">
        <ele>34.3</ele>
        <time>2020-06-12T07:17:26Z</time>
      </trkpt>
      <trkpt lat="49.35721" lon="-1.68425">
        <ele>34.2</ele>
        <time>2020-06-12T07:17:27Z</time>
      </trkpt>
      <trkpt lat="49.35726" lon="-1.68436">
        <ele>34.1</ele>
        <time>2020-06-12T07:17:28Z</time>
      </trkpt>
      <trkpt lat="49.35731" lon="-1.68446">
        <ele>34</ele>
        <time>2020-06-12T07:17:29Z</time>
      </trkpt>
      <trkpt lat="49.35736" lon="-1.68457">
        <ele>33.8</ele>
        <time>2020-06-12T07:17:30Z</time>
      </trkpt>
      <trkpt lat="49.3574" lon="-1.68467">
        <ele>33.7</ele>
        <time>2020-06-12T07:17:31Z</time>
      </trkpt>
      <trkpt lat="49.35745" lon="-1.68476">
        <ele>33.6</ele>
        <time>2020-06-12T07:17:32Z</time>
      </trkpt>
      <trkpt lat="49.35749" lon="-1.68485">
        <ele>33.6</ele>
        <time>2020-06-12T07:17:33Z</time>
      </trkpt>
      <trkpt lat="49.35754" lon="-1.68494">
        <ele>33.5</ele>
        <time>2020-06-12T07:17:34Z</time>
      </trkpt>
      <trkpt lat="49.35758" lon="-1.68505">
        <ele>33.4</ele>
        <time>2020-06-12T07:17:35Z</time>
      </trkpt>
      <trkpt lat="49.35763" lon="-1.68513">
        <ele>33.4</ele>
        <time>2020-06-12T07:17:36Z</time>
      </trkpt>
      <trkpt lat="49.35767" lon="-1.68521">
        <ele>33.4</ele>
        <time>2020-06-12T07:17:37Z</time>
      </trkpt>
      <trkpt lat="49.35772" lon="-1.6853">
        <ele>33.3</ele>
        <time>2020-06-12T07:17:38Z</time>
      </trkpt>
      <trkpt lat="49.35776" lon="-1.68539">
        <ele>33.2</ele>
        <time>2020-06-12T07:17:39Z</time>
      </trkpt>
      <trkpt lat="49.35781" lon="-1.68549">
        <ele>33.1</ele>
        <time>2020-06-12T07:17:40Z</time>
      </trkpt>
      <trkpt lat="49.35785" lon="-1.68559">
        <ele>33.1</ele>
        <time>2020-06-12T07:17:41Z</time>
      </trkpt>
      <trkpt lat="49.3579" lon="-1.68568">
        <ele>33.1</ele>
        <time>2020-06-12T07:17:42Z</time>
      </trkpt>
      <trkpt lat="49.35794" lon="-1.68576">
        <ele>33.1</ele>
        <time>2020-06-12T07:17:43Z</time>
      </trkpt>
      <trkpt lat="49.35799" lon="-1.68587">
        <ele>33</ele>
        <time>2020-06-12T07:17:44Z</time>
      </trkpt>
      <trkpt lat="49.35804" lon="-1.68596">
        <ele>33</ele>
        <time>2020-06-12T07:17:45Z</time>
      </trkpt>
      <trkpt lat="49.35809" lon="-1.68607">
        <ele>33</ele>
        <time>2020-06-12T07:17:46Z</time>
      </trkpt>
      <trkpt lat="49.35813" lon="-1.68617">
        <ele>32.9</ele>
        <time>2020-06-12T07:17:47Z</time>
      </trkpt>
      <trkpt lat="49.35818" lon="-1.68626">
        <ele>32.8</ele>
        <time>2020-06-12T07:17:48Z</time>
      </trkpt>
      <trkpt lat="49.35823" lon="-1.68634">
        <ele>32.8</ele>
        <time>2020-06-12T07:17:49Z</time>
      </trkpt>
      <trkpt lat="49.35828" lon="-1.68641">
        <ele>32.7</ele>
        <time>2020-06-12T07:17:50Z</time>
      </trkpt>
      <trkpt lat="49.35833" lon="-1.68651">
        <ele>32.6</ele>
        <time>2020-06-12T07:17:51Z</time>
      </trkpt>
      <trkpt lat="49.35838" lon="-1.6866">
        <ele>32.5</ele>
        <time>2020-06-12T07:17:52Z</time>
      </trkpt>
      <trkpt lat="49.35843" lon="-1.68669">
        <ele>32.4</ele>
        <time>2020-06-12T07:17:53Z</time>
      </trkpt>
      <trkpt lat="49.35848" lon="-1.68678">
        <ele>32.4</ele>
        <time>2020-06-12T07:17:54Z</time>
      </trkpt>
      <trkpt lat="49.35852" lon="-1.68686">
        <ele>32.3</ele>
        <time>2020-06-12T07:17:55Z</time>
      </trkpt>
      <trkpt lat="49.35857" lon="-1.68695">
        <ele>32.3</ele>
        <time>2020-06-12T07:17:56Z</time>
      </trkpt>
      <trkpt lat="49.35862" lon="-1.68704">
        <ele>32.2</ele>
        <time>2020-06-12T07:17:57Z</time>
      </trkpt>
      <trkpt lat="49.35867" lon="-1.68712">
        <ele>32.2</ele>
        <time>2020-06-12T07:17:58Z</time>
      </trkpt>
      <trkpt lat="49.35871" lon="-1.68721">
        <ele>32.1</ele>
        <time>2020-06-12T07:17:59Z</time>
      </trkpt>
      <trkpt lat="49.35876" lon="-1.68729">
        <ele>32.1</ele>
        <time>2020-06-12T07:18:00Z</time>
      </trkpt>
      <trkpt lat="49.35881" lon="-1.68737">
        <ele>32.2</ele>
        <time>2020-06-12T07:18:01Z</time>
      </trkpt>
      <trkpt lat="49.35885" lon="-1.68746">
        <ele>32.3</ele>
        <time>2020-06-12T07:18:02Z</time>
      </trkpt>
      <trkpt lat="49.35889" lon="-1.68756">
        <ele>32.5</ele>
        <time>2020-06-12T07:18:03Z</time>
      </trkpt>
      <trkpt lat="49.35894" lon="-1.68763">
        <ele>32.7</ele>
        <time>2020-06-12T07:18:04Z</time>
      </trkpt>
      <trkpt lat="49.35898" lon="-1.68772">
        <ele>33</ele>
        <time>2020-06-12T07:18:05Z</time>
      </trkpt>
      <trkpt lat="49.35903" lon="-1.6878">
        <ele>33.3</ele>
        <time>2020-06-12T07:18:06Z</time>
      </trkpt>
      <trkpt lat="49.35907" lon="-1.68789">
        <ele>33.5</ele>
        <time>2020-06-12T07:18:07Z</time>
      </trkpt>
      <trkpt lat="49.35911" lon="-1.68796">
        <ele>33.6</ele>
        <time>2020-06-12T07:18:08Z</time>
      </trkpt>
      <trkpt lat="49.35916" lon="-1.68805">
        <ele>33.6</ele>
        <time>2020-06-12T07:18:09Z</time>
      </trkpt>
      <trkpt lat="49.3592" lon="-1.68814">
        <ele>33.5</ele>
        <time>2020-06-12T07:18:10Z</time>
      </trkpt>
      <trkpt lat="49.35925" lon="-1.68821">
        <ele>33.5</ele>
        <time>2020-06-12T07:18:11Z</time>
      </trkpt>
      <trkpt lat="49.35929" lon="-1.6883">
        <ele>33.4</ele>
        <time>2020-06-12T07:18:12Z</time>
      </trkpt>
      <trkpt lat="49.35934" lon="-1.68837">
        <ele>33.4</ele>
        <time>2020-06-12T07:18:13Z</time>
      </trkpt>
      <trkpt lat="49.35937" lon="-1.68847">
        <ele>33.4</ele>
        <time>2020-06-12T07:18:14Z</time>
      </trkpt>
      <trkpt lat="49.35942" lon="-1.68856">
        <ele>33.4</ele>
        <time>2020-06-12T07:18:15Z</time>
      </trkpt>
      <trkpt lat="49.35946" lon="-1.68864">
        <ele>33.4</ele>
        <time>2020-06-12T07:18:16Z</time>
      </trkpt>
      <trkpt lat="49.35951" lon="-1.68871">
        <ele>33.5</ele>
        <time>2020-06-12T07:18:17Z</time>
      </trkpt>
      <trkpt lat="49.35956" lon="-1.68878">
        <ele>33.6</ele>
        <time>2020-06-12T07:18:18Z</time>
      </trkpt>
      <trkpt lat="49.3596" lon="-1.68886">
        <ele>33.7</ele>
        <time>2020-06-12T07:18:19Z</time>
      </trkpt>
      <trkpt lat="49.35964" lon="-1.68893">
        <ele>33.7</ele>
        <time>2020-06-12T07:18:20Z</time>
      </trkpt>
      <trkpt lat="49.35967" lon="-1.68899">
        <ele>33.8</ele>
        <time>2020-06-12T07:18:21Z</time>
      </trkpt>
      <trkpt lat="49.35971" lon="-1.68907">
        <ele>33.8</ele>
        <time>2020-06-12T07:18:22Z</time>
      </trkpt>
      <trkpt lat="49.35975" lon="-1.68914">
        <ele>33.9</ele>
        <time>2020-06-12T07:18:23Z</time>
      </trkpt>
      <trkpt lat="49.35979" lon="-1.68922">
        <ele>33.9</ele>
        <time>2020-06-12T07:18:24Z</time>
      </trkpt>
      <trkpt lat="49.35983" lon="-1.68931">
        <ele>34</ele>
        <time>2020-06-12T07:18:25Z</time>
      </trkpt>
      <trkpt lat="49.35987" lon="-1.68938">
        <ele>34</ele>
        <time>2020-06-12T07:18:26Z</time>
      </trkpt>
      <trkpt lat="49.35991" lon="-1.68945">
        <ele>34.1</ele>
        <time>2020-06-12T07:18:27Z</time>
      </trkpt>
      <trkpt lat="49.35995" lon="-1.68953">
        <ele>34.2</ele>
        <time>2020-06-12T07:18:28Z</time>
      </trkpt>
      <trkpt lat="49.35999" lon="-1.68961">
        <ele>34.2</ele>
        <time>2020-06-12T07:18:29Z</time>
      </trkpt>
      <trkpt lat="49.36002" lon="-1.68968">
        <ele>34.3</ele>
        <time>2020-06-12T07:18:30Z</time>
      </trkpt>
      <trkpt lat="49.36005" lon="-1.68975">
        <ele>34.4</ele>
        <time>2020-06-12T07:18:31Z</time>
      </trkpt>
      <trkpt lat="49.36009" lon="-1.68983">
        <ele>34.5</ele>
        <time>2020-06-12T07:18:32Z</time>
      </trkpt>
      <trkpt lat="49.36012" lon="-1.68989">
        <ele>34.6</ele>
        <time>2020-06-12T07:18:33Z</time>
      </trkpt>
      <trkpt lat="49.36015" lon="-1.68998">
        <ele>34.7</ele>
        <time>2020-06-12T07:18:34Z</time>
      </trkpt>
      <trkpt lat="49.36019" lon="-1.69007">
        <ele>34.9</ele>
        <time>2020-06-12T07:18:35Z</time>
      </trkpt>
      <trkpt lat="49.36022" lon="-1.69014">
        <ele>35</ele>
        <time>2020-06-12T07:18:36Z</time>
      </trkpt>
      <trkpt lat="49.36026" lon="-1.69021">
        <ele>35.1</ele>
        <time>2020-06-12T07:18:37Z</time>
      </trkpt>
      <trkpt lat="49.36028" lon="-1.69028">
        <ele>35.2</ele>
        <time>2020-06-12T07:18:38Z</time>
      </trkpt>
      <trkpt lat="49.36032" lon="-1.69036">
        <ele>35.3</ele>
        <time>2020-06-12T07:18:39Z</time>
      </trkpt>
      <trkpt lat="49.36035" lon="-1.69043">
        <ele>35.4</ele>
        <time>2020-06-12T07:18:40Z</time>
      </trkpt>
      <trkpt lat="49.36038" lon="-1.69051">
        <ele>35.5</ele>
        <time>2020-06-12T07:18:41Z</time>
      </trkpt>
      <trkpt lat="49.3604" lon="-1.69058">
        <ele>35.6</ele>
        <time>2020-06-12T07:18:42Z</time>
      </trkpt>
      <trkpt lat="49.36042" lon="-1.69066">
        <ele>35.7</ele>
        <time>2020-06-12T07:18:43Z</time>
      </trkpt>
      <trkpt lat="49.36046" lon="-1.69074">
        <ele>35.9</ele>
        <time>2020-06-12T07:18:44Z</time>
      </trkpt>
      <trkpt lat="49.36048" lon="-1.69083">
        <ele>36</ele>
        <time>2020-06-12T07:18:45Z</time>
      </trkpt>
      <trkpt lat="49.36051" lon="-1.69091">
        <ele>36.1</ele>
        <time>2020-06-12T07:18:46Z</time>
      </trkpt>
      <trkpt lat="49.36053" lon="-1.69099">
        <ele>36.2</ele>
        <time>2020-06-12T07:18:47Z</time>
      </trkpt>
      <trkpt lat="49.36055" lon="-1.69106">
        <ele>36.3</ele>
        <time>2020-06-12T07:18:48Z</time>
      </trkpt>
      <trkpt lat="49.36057" lon="-1.69115">
        <ele>36.4</ele>
        <time>2020-06-12T07:18:49Z</time>
      </trkpt>
      <trkpt lat="49.36059" lon="-1.69123">
        <ele>36.5</ele>
        <time>2020-06-12T07:18:50Z</time>
      </trkpt>
      <trkpt lat="49.36062" lon="-1.69132">
        <ele>36.6</ele>
        <time>2020-06-12T07:18:51Z</time>
      </trkpt>
      <trkpt lat="49.36063" lon="-1.69139">
        <ele>36.7</ele>
        <time>2020-06-12T07:18:52Z</time>
      </trkpt>
      <trkpt lat="49.36065" lon="-1.69147">
        <ele>36.8</ele>
        <time>2020-06-12T07:18:53Z</time>
      </trkpt>
      <trkpt lat="49.36067" lon="-1.69156">
        <ele>36.9</ele>
        <time>2020-06-12T07:18:54Z</time>
      </trkpt>
      <trkpt lat="49.3607" lon="-1.69165">
        <ele>37</ele>
        <time>2020-06-12T07:18:55Z</time>
      </trkpt>
      <trkpt lat="49.36072" lon="-1.69174">
        <ele>37.2</ele>
        <time>2020-06-12T07:18:56Z</time>
      </trkpt>
      <trkpt lat="49.36073" lon="-1.69182">
        <ele>37.3</ele>
        <time>2020-06-12T07:18:57Z</time>
      </trkpt>
      <trkpt lat="49.36075" lon="-1.6919">
        <ele>37.4</ele>
        <time>2020-06-12T07:18:58Z</time>
      </trkpt>
      <trkpt lat="49.36077" lon="-1.69197">
        <ele>37.5</ele>
        <time>2020-06-12T07:18:59Z</time>
      </trkpt>
      <trkpt lat="49.36079" lon="-1.69204">
        <ele>37.6</ele>
        <time>2020-06-12T07:19:00Z</time>
      </trkpt>
      <trkpt lat="49.3608" lon="-1.69213">
        <ele>37.7</ele>
        <time>2020-06-12T07:19:01Z</time>
      </trkpt>
      <trkpt lat="49.36081" lon="-1.69221">
        <ele>37.8</ele>
        <time>2020-06-12T07:19:02Z</time>
      </trkpt>
      <trkpt lat="49.36083" lon="-1.69229">
        <ele>37.9</ele>
        <time>2020-06-12T07:19:03Z</time>
      </trkpt>
      <trkpt lat="49.36085" lon="-1.69237">
        <ele>38.1</ele>
        <time>2020-06-12T07:19:04Z</time>
      </trkpt>
      <trkpt lat="49.36087" lon="-1.69246">
        <ele>38.2</ele>
        <time>2020-06-12T07:19:05Z</time>
      </trkpt>
      <trkpt lat="49.36088" lon="-1.69254">
        <ele>38.3</ele>
        <time>2020-06-12T07:19:06Z</time>
      </trkpt>
      <trkpt lat="49.36089" lon="-1.69263">
        <ele>38.5</ele>
        <time>2020-06-12T07:19:07Z</time>
      </trkpt>
      <trkpt lat="49.36091" lon="-1.6927">
        <ele>38.6</ele>
        <time>2020-06-12T07:19:08Z</time>
      </trkpt>
      <trkpt lat="49.36092" lon="-1.69278">
        <ele>38.8</ele>
        <time>2020-06-12T07:19:09Z</time>
      </trkpt>
      <trkpt lat="49.36093" lon="-1.69286">
        <ele>39</ele>
        <time>2020-06-12T07:19:10Z</time>
      </trkpt>
      <trkpt lat="49.36094" lon="-1.69295">
        <ele>39.2</ele>
        <time>2020-06-12T07:19:11Z</time>
      </trkpt>
      <trkpt lat="49.36096" lon="-1.69302">
        <ele>39.3</ele>
        <time>2020-06-12T07:19:12Z</time>
      </trkpt>
      <trkpt lat="49.36098" lon="-1.69309">
        <ele>39.5</ele>
        <time>2020-06-12T07:19:13Z</time>
      </trkpt>
      <trkpt lat="49.361" lon="-1.69318">
        <ele>39.6</ele>
        <time>2020-06-12T07:19:14Z</time>
      </trkpt>
      <trkpt lat="49.36102" lon="-1.69325">
        <ele>39.8</ele>
        <time>2020-06-12T07:19:15Z</time>
      </trkpt>
      <trkpt lat="49.36104" lon="-1.69334">
        <ele>39.9</ele>
        <time>2020-06-12T07:19:16Z</time>
      </trkpt>
      <trkpt lat="49.36106" lon="-1.69342">
        <ele>40</ele>
        <time>2020-06-12T07:19:17Z</time>
      </trkpt>
      <trkpt lat="49.36107" lon="-1.6935">
        <ele>40.2</ele>
        <time>2020-06-12T07:19:18Z</time>
      </trkpt>
      <trkpt lat="49.36109" lon="-1.69359">
        <ele>40.3</ele>
        <time>2020-06-12T07:19:19Z</time>
      </trkpt>
      <trkpt lat="49.3611" lon="-1.69367">
        <ele>40.4</ele>
        <time>2020-06-12T07:19:20Z</time>
      </trkpt>
      <trkpt lat="49.36112" lon="-1.69376">
        <ele>40.6</ele>
        <time>2020-06-12T07:19:21Z</time>
      </trkpt>
      <trkpt lat="49.36113" lon="-1.69383">
        <ele>40.7</ele>
        <time>2020-06-12T07:19:22Z</time>
      </trkpt>
      <trkpt lat="49.36115" lon="-1.6939">
        <ele>40.8</ele>
        <time>2020-06-12T07:19:23Z</time>
      </trkpt>
      <trkpt lat="49.36116" lon="-1.69398">
        <ele>41</ele>
        <time>2020-06-12T07:19:24Z</time>
      </trkpt>
      <trkpt lat="49.36118" lon="-1.69406">
        <ele>41.1</ele>
        <time>2020-06-12T07:19:25Z</time>
      </trkpt>
      <trkpt lat="49.36119" lon="-1.69414">
        <ele>41.2</ele>
        <time>2020-06-12T07:19:26Z</time>
      </trkpt>
      <trkpt lat="49.3612" lon="-1.69423">
        <ele>41.3</ele>
        <time>2020-06-12T07:19:27Z</time>
      </trkpt>
      <trkpt lat="49.36122" lon="-1.69431">
        <ele>41.4</ele>
        <time>2020-06-12T07:19:28Z</time>
      </trkpt>
      <trkpt lat="49.36124" lon="-1.69439">
        <ele>41.5</ele>
        <time>2020-06-12T07:19:29Z</time>
      </trkpt>
      <trkpt lat="49.36126" lon="-1.69447">
        <ele>41.6</ele>
        <time>2020-06-12T07:19:30Z</time>
      </trkpt>
      <trkpt lat="49.36128" lon="-1.69455">
        <ele>41.7</ele>
        <time>2020-06-12T07:19:31Z</time>
      </trkpt>
      <trkpt lat="49.36129" lon="-1.69463">
        <ele>41.7</ele>
        <time>2020-06-12T07:19:32Z</time>
      </trkpt>
      <trkpt lat="49.3613" lon="-1.6947">
        <ele>41.8</ele>
        <time>2020-06-12T07:19:33Z</time>
      </trkpt>
      <trkpt lat="49.36132" lon="-1.69478">
        <ele>42</ele>
        <time>2020-06-12T07:19:34Z</time>
      </trkpt>
      <trkpt lat="49.36133" lon="-1.69486">
        <ele>42.1</ele>
        <time>2020-06-12T07:19:35Z</time>
      </trkpt>
      <trkpt lat="49.36135" lon="-1.69495">
        <ele>42.4</ele>
        <time>2020-06-12T07:19:36Z</time>
      </trkpt>
      <trkpt lat="49.36136" lon="-1.69502">
        <ele>42.6</ele>
        <time>2020-06-12T07:19:37Z</time>
      </trkpt>
      <trkpt lat="49.36138" lon="-1.6951">
        <ele>42.9</ele>
        <time>2020-06-12T07:19:38Z</time>
      </trkpt>
      <trkpt lat="49.3614" lon="-1.69518">
        <ele>43.2</ele>
        <time>2020-06-12T07:19:39Z</time>
      </trkpt>
      <trkpt lat="49.36141" lon="-1.69526">
        <ele>43.5</ele>
        <time>2020-06-12T07:19:40Z</time>
      </trkpt>
      <trkpt lat="49.36144" lon="-1.69533">
        <ele>43.8</ele>
        <time>2020-06-12T07:19:41Z</time>
      </trkpt>
      <trkpt lat="49.36146" lon="-1.6954">
        <ele>44</ele>
        <time>2020-06-12T07:19:42Z</time>
      </trkpt>
      <trkpt lat="49.36147" lon="-1.69547">
        <ele>44.1</ele>
        <time>2020-06-12T07:19:43Z</time>
      </trkpt>
      <trkpt lat="49.36149" lon="-1.69554">
        <ele>44.2</ele>
        <time>2020-06-12T07:19:44Z</time>
      </trkpt>
      <trkpt lat="49.3615" lon="-1.69561">
        <ele>44.3</ele>
        <time>2020-06-12T07:19:45Z</time>
      </trkpt>
      <trkpt lat="49.36152" lon="-1.69568">
        <ele>44.4</ele>
        <time>2020-06-12T07:19:46Z</time>
      </trkpt>
      <trkpt lat="49.36155" lon="-1.69572">
        <ele>44.5</ele>
        <time>2020-06-12T07:19:47Z</time>
      </trkpt>
      <trkpt lat="49.36158" lon="-1.69575">
        <ele>44.6</ele>
        <time>2020-06-12T07:19:48Z</time>
      </trkpt>
      <trkpt lat="49.36162" lon="-1.6958">
        <ele>44.5</ele>
        <time>2020-06-12T07:19:49Z</time>
      </trkpt>
      <trkpt lat="49.36166" lon="-1.69585">
        <ele>44.4</ele>
        <time>2020-06-12T07:19:50Z</time>
      </trkpt>
      <trkpt lat="49.36169" lon="-1.69591">
        <ele>44.2</ele>
        <time>2020-06-12T07:19:51Z</time>
      </trkpt>
      <trkpt lat="49.36171" lon="-1.69598">
        <ele>44.2</ele>
        <time>2020-06-12T07:19:52Z</time>
      </trkpt>
      <trkpt lat="49.36171" lon="-1.69606">
        <ele>44.3</ele>
        <time>2020-06-12T07:19:53Z</time>
      </trkpt>
      <trkpt lat="49.36171" lon="-1.6961">
        <ele>44.4</ele>
        <time>2020-06-12T07:19:54Z</time>
      </trkpt>
      <trkpt lat="49.3617" lon="-1.69618">
        <ele>44.7</ele>
        <time>2020-06-12T07:19:55Z</time>
      </trkpt>
      <trkpt lat="49.36168" lon="-1.69625">
        <ele>45</ele>
        <time>2020-06-12T07:19:56Z</time>
      </trkpt>
      <trkpt lat="49.36166" lon="-1.69634">
        <ele>45.3</ele>
        <time>2020-06-12T07:19:57Z</time>
      </trkpt>
      <trkpt lat="49.36165" lon="-1.69641">
        <ele>45.6</ele>
        <time>2020-06-12T07:19:58Z</time>
      </trkpt>
      <trkpt lat="49.36166" lon="-1.69649">
        <ele>45.8</ele>
        <time>2020-06-12T07:19:59Z</time>
      </trkpt>
      <trkpt lat="49.36168" lon="-1.69656">
        <ele>46.1</ele>
        <time>2020-06-12T07:20:00Z</time>
      </trkpt>
      <trkpt lat="49.3617" lon="-1.69664">
        <ele>46.1</ele>
        <time>2020-06-12T07:20:01Z</time>
      </trkpt>
      <trkpt lat="49.36171" lon="-1.69671">
        <ele>46</ele>
        <time>2020-06-12T07:20:02Z</time>
      </trkpt>
      <trkpt lat="49.36172" lon="-1.69678">
        <ele>46</ele>
        <time>2020-06-12T07:20:03Z</time>
      </trkpt>
      <trkpt lat="49.36173" lon="-1.69686">
        <ele>45.9</ele>
        <time>2020-06-12T07:20:04Z</time>
      </trkpt>
      <trkpt lat="49.36174" lon="-1.69694">
        <ele>45.8</ele>
        <time>2020-06-12T07:20:05Z</time>
      </trkpt>
      <trkpt lat="49.36174" lon="-1.69704">
        <ele>45.8</ele>
        <time>2020-06-12T07:20:06Z</time>
      </trkpt>
      <trkpt lat="49.36176" lon="-1.69712">
        <ele>45.8</ele>
        <time>2020-06-12T07:20:07Z</time>
      </trkpt>
      <trkpt lat="49.36178" lon="-1.69719">
        <ele>45.8</ele>
        <time>2020-06-12T07:20:08Z</time>
      </trkpt>
      <trkpt lat="49.3618" lon="-1.69726">
        <ele>45.9</ele>
        <time>2020-06-12T07:20:09Z</time>
      </trkpt>
      <trkpt lat="49.36181" lon="-1.69733">
        <ele>45.9</ele>
        <time>2020-06-12T07:20:10Z</time>
      </trkpt>
      <trkpt lat="49.36183" lon="-1.69741">
        <ele>46</ele>
        <time>2020-06-12T07:20:11Z</time>
      </trkpt>
      <trkpt lat="49.36185" lon="-1.69749">
        <ele>46</ele>
        <time>2020-06-12T07:20:12Z</time>
      </trkpt>
      <trkpt lat="49.36186" lon="-1.69758">
        <ele>46.1</ele>
        <time>2020-06-12T07:20:13Z</time>
      </trkpt>
      <trkpt lat="49.36188" lon="-1.69767">
        <ele>46.2</ele>
        <time>2020-06-12T07:20:14Z</time>
      </trkpt>
      <trkpt lat="49.36189" lon="-1.69774">
        <ele>46.2</ele>
        <time>2020-06-12T07:20:15Z</time>
      </trkpt>
      <trkpt lat="49.36191" lon="-1.69782">
        <ele>46.3</ele>
        <time>2020-06-12T07:20:16Z</time>
      </trkpt>
      <trkpt lat="49.36193" lon="-1.6979">
        <ele>46.4</ele>
        <time>2020-06-12T07:20:17Z</time>
      </trkpt>
      <trkpt lat="49.36194" lon="-1.69798">
        <ele>46.5</ele>
        <time>2020-06-12T07:20:18Z</time>
      </trkpt>
      <trkpt lat="49.36196" lon="-1.69806">
        <ele>46.6</ele>
        <time>2020-06-12T07:20:19Z</time>
      </trkpt>
      <trkpt lat="49.36198" lon="-1.69814">
        <ele>46.6</ele>
        <time>2020-06-12T07:20:20Z</time>
      </trkpt>
      <trkpt lat="49.362" lon="-1.69822">
        <ele>46.7</ele>
        <time>2020-06-12T07:20:21Z</time>
      </trkpt>
      <trkpt lat="49.36202" lon="-1.6983">
        <ele>46.7</ele>
        <time>2020-06-12T07:20:22Z</time>
      </trkpt>
      <trkpt lat="49.36203" lon="-1.69837">
        <ele>46.8</ele>
        <time>2020-06-12T07:20:23Z</time>
      </trkpt>
      <trkpt lat="49.36205" lon="-1.69845">
        <ele>46.9</ele>
        <time>2020-06-12T07:20:24Z</time>
      </trkpt>
      <trkpt lat="49.36207" lon="-1.69853">
        <ele>46.9</ele>
        <time>2020-06-12T07:20:25Z</time>
      </trkpt>
      <trkpt lat="49.36208" lon="-1.69864">
        <ele>47</ele>
        <time>2020-06-12T07:20:26Z</time>
      </trkpt>
      <trkpt lat="49.3621" lon="-1.69873">
        <ele>47.1</ele>
        <time>2020-06-12T07:20:27Z</time>
      </trkpt>
      <trkpt lat="49.36212" lon="-1.69882">
        <ele>47.1</ele>
        <time>2020-06-12T07:20:28Z</time>
      </trkpt>
      <trkpt lat="49.36213" lon="-1.6989">
        <ele>47.2</ele>
        <time>2020-06-12T07:20:29Z</time>
      </trkpt>
      <trkpt lat="49.36215" lon="-1.69898">
        <ele>47.2</ele>
        <time>2020-06-12T07:20:30Z</time>
      </trkpt>
      <trkpt lat="49.36216" lon="-1.69907">
        <ele>47.3</ele>
        <time>2020-06-12T07:20:31Z</time>
      </trkpt>
      <trkpt lat="49.36216" lon="-1.69916">
        <ele>47.4</ele>
        <time>2020-06-12T07:20:32Z</time>
      </trkpt>
      <trkpt lat="49.36217" lon="-1.69925">
        <ele>47.4</ele>
        <time>2020-06-12T07:20:33Z</time>
      </trkpt>
      <trkpt lat="49.36219" lon="-1.69933">
        <ele>47.5</ele>
        <time>2020-06-12T07:20:34Z</time>
      </trkpt>
      <trkpt lat="49.36221" lon="-1.69941">
        <ele>47.5</ele>
        <time>2020-06-12T07:20:35Z</time>
      </trkpt>
      <trkpt lat="49.36223" lon="-1.69949">
        <ele>47.5</ele>
        <time>2020-06-12T07:20:36Z</time>
      </trkpt>
      <trkpt lat="49.36225" lon="-1.69958">
        <ele>47.6</ele>
        <time>2020-06-12T07:20:37Z</time>
      </trkpt>
      <trkpt lat="49.36228" lon="-1.69967">
        <ele>47.6</ele>
        <time>2020-06-12T07:20:38Z</time>
      </trkpt>
      <trkpt lat="49.3623" lon="-1.69976">
        <ele>47.7</ele>
        <time>2020-06-12T07:20:39Z</time>
      </trkpt>
      <trkpt lat="49.36232" lon="-1.69985">
        <ele>47.7</ele>
        <time>2020-06-12T07:20:40Z</time>
      </trkpt>
      <trkpt lat="49.36234" lon="-1.69994">
        <ele>47.7</ele>
        <time>2020-06-12T07:20:41Z</time>
      </trkpt>
      <trkpt lat="49.36236" lon="-1.70003">
        <ele>47.8</ele>
        <time>2020-06-12T07:20:42Z</time>
      </trkpt>
      <trkpt lat="49.36237" lon="-1.70013">
        <ele>47.9</ele>
        <time>2020-06-12T07:20:43Z</time>
      </trkpt>
      <trkpt lat="49.36239" lon="-1.70022">
        <ele>48</ele>
        <time>2020-06-12T07:20:44Z</time>
      </trkpt>
      <trkpt lat="49.3624" lon="-1.70031">
        <ele>48.2</ele>
        <time>2020-06-12T07:20:45Z</time>
      </trkpt>
      <trkpt lat="49.36241" lon="-1.70039">
        <ele>48.4</ele>
        <time>2020-06-12T07:20:46Z</time>
      </trkpt>
      <trkpt lat="49.36242" lon="-1.70049">
        <ele>48.6</ele>
        <time>2020-06-12T07:20:47Z</time>
      </trkpt>
      <trkpt lat="49.36244" lon="-1.70059">
        <ele>48.9</ele>
        <time>2020-06-12T07:20:48Z</time>
      </trkpt>
      <trkpt lat="49.36245" lon="-1.70069">
        <ele>48.8</ele>
        <time>2020-06-12T07:20:49Z</time>
      </trkpt>
      <trkpt lat="49.36246" lon="-1.70079">
        <ele>48.5</ele>
        <time>2020-06-12T07:20:50Z</time>
      </trkpt>
      <trkpt lat="49.36248" lon="-1.70087">
        <ele>48.4</ele>
        <time>2020-06-12T07:20:51Z</time>
      </trkpt>
      <trkpt lat="49.36249" lon="-1.70098">
        <ele>48.2</ele>
        <time>2020-06-12T07:20:52Z</time>
      </trkpt>
      <trkpt lat="49.36251" lon="-1.70107">
        <ele>48.2</ele>
        <time>2020-06-12T07:20:53Z</time>
      </trkpt>
      <trkpt lat="49.36252" lon="-1.70117">
        <ele>48.1</ele>
        <time>2020-06-12T07:20:54Z</time>
      </trkpt>
      <trkpt lat="49.36253" lon="-1.70126">
        <ele>48.1</ele>
        <time>2020-06-12T07:20:55Z</time>
      </trkpt>
      <trkpt lat="49.36254" lon="-1.70134">
        <ele>48.2</ele>
        <time>2020-06-12T07:20:56Z</time>
      </trkpt>
      <trkpt lat="49.36255" lon="-1.70143">
        <ele>48.2</ele>
        <time>2020-06-12T07:20:57Z</time>
      </trkpt>
      <trkpt lat="49.36256" lon="-1.70152">
        <ele>48.2</ele>
        <time>2020-06-12T07:20:58Z</time>
      </trkpt>
      <trkpt lat="49.36256" lon="-1.70161">
        <ele>48.3</ele>
        <time>2020-06-12T07:20:59Z</time>
      </trkpt>
      <trkpt lat="49.36257" lon="-1.70169">
        <ele>48.4</ele>
        <time>2020-06-12T07:21:00Z</time>
      </trkpt>
      <trkpt lat="49.36258" lon="-1.70177">
        <ele>48.4</ele>
        <time>2020-06-12T07:21:01Z</time>
      </trkpt>
      <trkpt lat="49.36259" lon="-1.70185">
        <ele>48.4</ele>
        <time>2020-06-12T07:21:02Z</time>
      </trkpt>
      <trkpt lat="49.36259" lon="-1.70194">
        <ele>48.5</ele>
        <time>2020-06-12T07:21:03Z</time>
      </trkpt>
      <trkpt lat="49.3626" lon="-1.70205">
        <ele>48.5</ele>
        <time>2020-06-12T07:21:04Z</time>
      </trkpt>
      <trkpt lat="49.36261" lon="-1.70215">
        <ele>48.6</ele>
        <time>2020-06-12T07:21:05Z</time>
      </trkpt>
      <trkpt lat="49.36262" lon="-1.70224">
        <ele>48.7</ele>
        <time>2020-06-12T07:21:06Z</time>
      </trkpt>
      <trkpt lat="49.36263" lon="-1.70232">
        <ele>48.7</ele>
        <time>2020-06-12T07:21:07Z</time>
      </trkpt>
      <trkpt lat="49.36264" lon="-1.70241">
        <ele>48.8</ele>
        <time>2020-06-12T07:21:08Z</time>
      </trkpt>
      <trkpt lat="49.36265" lon="-1.70249">
        <ele>48.9</ele>
        <time>2020-06-12T07:21:09Z</time>
      </trkpt>
      <trkpt lat="49.36267" lon="-1.70257">
        <ele>49</ele>
        <time>2020-06-12T07:21:10Z</time>
      </trkpt>
      <trkpt lat="49.36269" lon="-1.70266">
        <ele>49</ele>
        <time>2020-06-12T07:21:11Z</time>
      </trkpt>
      <trkpt lat="49.3627" lon="-1.70275">
        <ele>49.1</ele>
        <time>2020-06-12T07:21:12Z</time>
      </trkpt>
      <trkpt lat="49.36272" lon="-1.70285">
        <ele>49.2</ele>
        <time>2020-06-12T07:21:13Z</time>
      </trkpt>
      <trkpt lat="49.36274" lon="-1.70294">
        <ele>49.3</ele>
        <time>2020-06-12T07:21:14Z</time>
      </trkpt>
      <trkpt lat="49.36276" lon="-1.70305">
        <ele>49.4</ele>
        <time>2020-06-12T07:21:15Z</time>
      </trkpt>
      <trkpt lat="49.36277" lon="-1.70313">
        <ele>49.4</ele>
        <time>2020-06-12T07:21:16Z</time>
      </trkpt>
      <trkpt lat="49.36278" lon="-1.70322">
        <ele>49.4</ele>
        <time>2020-06-12T07:21:17Z</time>
      </trkpt>
      <trkpt lat="49.3628" lon="-1.7033">
        <ele>49.5</ele>
        <time>2020-06-12T07:21:18Z</time>
      </trkpt>
      <trkpt lat="49.36281" lon="-1.70338">
        <ele>49.5</ele>
        <time>2020-06-12T07:21:19Z</time>
      </trkpt>
      <trkpt lat="49.36282" lon="-1.7035">
        <ele>49.5</ele>
        <time>2020-06-12T07:21:20Z</time>
      </trkpt>
      <trkpt lat="49.36283" lon="-1.70359">
        <ele>49.5</ele>
        <time>2020-06-12T07:21:21Z</time>
      </trkpt>
      <trkpt lat="49.36285" lon="-1.70366">
        <ele>49.5</ele>
        <time>2020-06-12T07:21:22Z</time>
      </trkpt>
      <trkpt lat="49.36288" lon="-1.70375">
        <ele>49.5</ele>
        <time>2020-06-12T07:21:23Z</time>
      </trkpt>
      <trkpt lat="49.36289" lon="-1.70385">
        <ele>49.5</ele>
        <time>2020-06-12T07:21:24Z</time>
      </trkpt>
      <trkpt lat="49.36291" lon="-1.70395">
        <ele>49.6</ele>
        <time>2020-06-12T07:21:25Z</time>
      </trkpt>
      <trkpt lat="49.36293" lon="-1.70405">
        <ele>49.6</ele>
        <time>2020-06-12T07:21:26Z</time>
      </trkpt>
      <trkpt lat="49.36295" lon="-1.70414">
        <ele>49.6</ele>
        <time>2020-06-12T07:21:27Z</time>
      </trkpt>
      <trkpt lat="49.36298" lon="-1.70423">
        <ele>49.6</ele>
        <time>2020-06-12T07:21:28Z</time>
      </trkpt>
      <trkpt lat="49.363" lon="-1.70431">
        <ele>49.6</ele>
        <time>2020-06-12T07:21:29Z</time>
      </trkpt>
      <trkpt lat="49.36301" lon="-1.7044">
        <ele>49.7</ele>
        <time>2020-06-12T07:21:30Z</time>
      </trkpt>
      <trkpt lat="49.36303" lon="-1.70449">
        <ele>49.7</ele>
        <time>2020-06-12T07:21:31Z</time>
      </trkpt>
      <trkpt lat="49.36304" lon="-1.70458">
        <ele>49.8</ele>
        <time>2020-06-12T07:21:32Z</time>
      </trkpt>
      <trkpt lat="49.36305" lon="-1.70466">
        <ele>49.8</ele>
        <time>2020-06-12T07:21:33Z</time>
      </trkpt>
      <trkpt lat="49.36307" lon="-1.70475">
        <ele>49.8</ele>
        <time>2020-06-12T07:21:34Z</time>
      </trkpt>
      <trkpt lat="49.36309" lon="-1.70483">
        <ele>49.9</ele>
        <time>2020-06-12T07:21:35Z</time>
      </trkpt>
      <trkpt lat="49.36311" lon="-1.70491">
        <ele>49.9</ele>
        <time>2020-06-12T07:21:36Z</time>
      </trkpt>
      <trkpt lat="49.36314" lon="-1.705">
        <ele>50</ele>
        <time>2020-06-12T07:21:37Z</time>
      </trkpt>
      <trkpt lat="49.36316" lon="-1.7051">
        <ele>50</ele>
        <time>2020-06-12T07:21:38Z</time>
      </trkpt>
      <trkpt lat="49.36318" lon="-1.70519">
        <ele>50</ele>
        <time>2020-06-12T07:21:39Z</time>
      </trkpt>
      <trkpt lat="49.3632" lon="-1.70527">
        <ele>50.1</ele>
        <time>2020-06-12T07:21:40Z</time>
      </trkpt>
      <trkpt lat="49.36321" lon="-1.70537">
        <ele>50.2</ele>
        <time>2020-06-12T07:21:41Z</time>
      </trkpt>
      <trkpt lat="49.36323" lon="-1.70546">
        <ele>50.2</ele>
        <time>2020-06-12T07:21:42Z</time>
      </trkpt>
      <trkpt lat="49.36324" lon="-1.70554">
        <ele>50.3</ele>
        <time>2020-06-12T07:21:43Z</time>
      </trkpt>
      <trkpt lat="49.36326" lon="-1.70561">
        <ele>50.3</ele>
        <time>2020-06-12T07:21:44Z</time>
      </trkpt>
      <trkpt lat="49.36328" lon="-1.70569">
        <ele>50.4</ele>
        <time>2020-06-12T07:21:45Z</time>
      </trkpt>
      <trkpt lat="49.3633" lon="-1.70576">
        <ele>50.4</ele>
        <time>2020-06-12T07:21:46Z</time>
      </trkpt>
      <trkpt lat="49.36332" lon="-1.70585">
        <ele>50.5</ele>
        <time>2020-06-12T07:21:47Z</time>
      </trkpt>
      <trkpt lat="49.36335" lon="-1.70595">
        <ele>50.5</ele>
        <time>2020-06-12T07:21:48Z</time>
      </trkpt>
      <trkpt lat="49.36337" lon="-1.70604">
        <ele>50.5</ele>
        <time>2020-06-12T07:21:49Z</time>
      </trkpt>
      <trkpt lat="49.36339" lon="-1.70612">
        <ele>50.5</ele>
        <time>2020-06-12T07:21:50Z</time>
      </trkpt>
      <trkpt lat="49.36342" lon="-1.70621">
        <ele>50.5</ele>
        <time>2020-06-12T07:21:51Z</time>
      </trkpt>
      <trkpt lat="49.36344" lon="-1.70632">
        <ele>50.5</ele>
        <time>2020-06-12T07:21:52Z</time>
      </trkpt>
      <trkpt lat="49.36346" lon="-1.70642">
        <ele>50.4</ele>
        <time>2020-06-12T07:21:53Z</time>
      </trkpt>
      <trkpt lat="49.36348" lon="-1.70649">
        <ele>50.4</ele>
        <time>2020-06-12T07:21:54Z</time>
      </trkpt>
      <trkpt lat="49.3635" lon="-1.70658">
        <ele>50.3</ele>
        <time>2020-06-12T07:21:55Z</time>
      </trkpt>
      <trkpt lat="49.36353" lon="-1.70665">
        <ele>50.3</ele>
        <time>2020-06-12T07:21:56Z</time>
      </trkpt>
      <trkpt lat="49.36354" lon="-1.70675">
        <ele>50.3</ele>
        <time>2020-06-12T07:21:57Z</time>
      </trkpt>
      <trkpt lat="49.36355" lon="-1.70684">
        <ele>50.2</ele>
        <time>2020-06-12T07:21:58Z</time>
      </trkpt>
      <trkpt lat="49.36357" lon="-1.70693">
        <ele>50.2</ele>
        <time>2020-06-12T07:21:59Z</time>
      </trkpt>
      <trkpt lat="49.36359" lon="-1.70702">
        <ele>50.2</ele>
        <time>2020-06-12T07:22:00Z</time>
      </trkpt>
      <trkpt lat="49.36361" lon="-1.70712">
        <ele>50.1</ele>
        <time>2020-06-12T07:22:01Z</time>
      </trkpt>
      <trkpt lat="49.36363" lon="-1.70722">
        <ele>50.1</ele>
        <time>2020-06-12T07:22:02Z</time>
      </trkpt>
      <trkpt lat="49.36365" lon="-1.70732">
        <ele>50.1</ele>
        <time>2020-06-12T07:22:03Z</time>
      </trkpt>
      <trkpt lat="49.36367" lon="-1.70742">
        <ele>50.1</ele>
        <time>2020-06-12T07:22:04Z</time>
      </trkpt>
      <trkpt lat="49.3637" lon="-1.7075">
        <ele>50.1</ele>
        <time>2020-06-12T07:22:05Z</time>
      </trkpt>
      <trkpt lat="49.36372" lon="-1.70758">
        <ele>50</ele>
        <time>2020-06-12T07:22:06Z</time>
      </trkpt>
      <trkpt lat="49.36374" lon="-1.70766">
        <ele>50</ele>
        <time>2020-06-12T07:22:07Z</time>
      </trkpt>
      <trkpt lat="49.36376" lon="-1.70775">
        <ele>50.1</ele>
        <time>2020-06-12T07:22:08Z</time>
      </trkpt>
      <trkpt lat="49.36379" lon="-1.70785">
        <ele>50.2</ele>
        <time>2020-06-12T07:22:09Z</time>
      </trkpt>
      <trkpt lat="49.36381" lon="-1.70793">
        <ele>50.3</ele>
        <time>2020-06-12T07:22:10Z</time>
      </trkpt>
      <trkpt lat="49.36383" lon="-1.70802">
        <ele>50.5</ele>
        <time>2020-06-12T07:22:11Z</time>
      </trkpt>
      <trkpt lat="49.36385" lon="-1.70812">
        <ele>50.4</ele>
        <time>2020-06-12T07:22:12Z</time>
      </trkpt>
      <trkpt lat="49.36386" lon="-1.70821">
        <ele>50.1</ele>
        <time>2020-06-12T07:22:13Z</time>
      </trkpt>
      <trkpt lat="49.36388" lon="-1.70829">
        <ele>49.8</ele>
        <time>2020-06-12T07:22:14Z</time>
      </trkpt>
      <trkpt lat="49.3639" lon="-1.70839">
        <ele>49.6</ele>
        <time>2020-06-12T07:22:15Z</time>
      </trkpt>
      <trkpt lat="49.36392" lon="-1.70849">
        <ele>49.5</ele>
        <time>2020-06-12T07:22:16Z</time>
      </trkpt>
      <trkpt lat="49.36395" lon="-1.70858">
        <ele>49.4</ele>
        <time>2020-06-12T07:22:17Z</time>
      </trkpt>
      <trkpt lat="49.36396" lon="-1.70867">
        <ele>49.4</ele>
        <time>2020-06-12T07:22:18Z</time>
      </trkpt>
      <trkpt lat="49.36399" lon="-1.70875">
        <ele>49.4</ele>
        <time>2020-06-12T07:22:19Z</time>
      </trkpt>
      <trkpt lat="49.36402" lon="-1.70883">
        <ele>49.4</ele>
        <time>2020-06-12T07:22:20Z</time>
      </trkpt>
      <trkpt lat="49.36403" lon="-1.70891">
        <ele>49.4</ele>
        <time>2020-06-12T07:22:21Z</time>
      </trkpt>
      <trkpt lat="49.36405" lon="-1.709">
        <ele>49.4</ele>
        <time>2020-06-12T07:22:22Z</time>
      </trkpt>
      <trkpt lat="49.36407" lon="-1.7091">
        <ele>49.3</ele>
        <time>2020-06-12T07:22:23Z</time>
      </trkpt>
      <trkpt lat="49.36409" lon="-1.7092">
        <ele>49.3</ele>
        <time>2020-06-12T07:22:24Z</time>
      </trkpt>
      <trkpt lat="49.36411" lon="-1.70929">
        <ele>49.3</ele>
        <time>2020-06-12T07:22:25Z</time>
      </trkpt>
      <trkpt lat="49.36414" lon="-1.70939">
        <ele>49.3</ele>
        <time>2020-06-12T07:22:26Z</time>
      </trkpt>
      <trkpt lat="49.36415" lon="-1.70948">
        <ele>49.3</ele>
        <time>2020-06-12T07:22:27Z</time>
      </trkpt>
      <trkpt lat="49.36417" lon="-1.70958">
        <ele>49.3</ele>
        <time>2020-06-12T07:22:28Z</time>
      </trkpt>
      <trkpt lat="49.36419" lon="-1.70968">
        <ele>49.3</ele>
        <time>2020-06-12T07:22:29Z</time>
      </trkpt>
      <trkpt lat="49.36421" lon="-1.70976">
        <ele>49.3</ele>
        <time>2020-06-12T07:22:30Z</time>
      </trkpt>
      <trkpt lat="49.36424" lon="-1.70984">
        <ele>49.3</ele>
        <time>2020-06-12T07:22:31Z</time>
      </trkpt>
      <trkpt lat="49.36427" lon="-1.70991">
        <ele>49.3</ele>
        <time>2020-06-12T07:22:32Z</time>
      </trkpt>
      <trkpt lat="49.3643" lon="-1.70999">
        <ele>49.3</ele>
        <time>2020-06-12T07:22:33Z</time>
      </trkpt>
      <trkpt lat="49.36433" lon="-1.71008">
        <ele>49.3</ele>
        <time>2020-06-12T07:22:34Z</time>
      </trkpt>
      <trkpt lat="49.36436" lon="-1.71015">
        <ele>49.2</ele>
        <time>2020-06-12T07:22:35Z</time>
      </trkpt>
      <trkpt lat="49.36439" lon="-1.71025">
        <ele>49.2</ele>
        <time>2020-06-12T07:22:36Z</time>
      </trkpt>
      <trkpt lat="49.36443" lon="-1.71036">
        <ele>49.2</ele>
        <time>2020-06-12T07:22:37Z</time>
      </trkpt>
      <trkpt lat="49.36446" lon="-1.71045">
        <ele>49.2</ele>
        <time>2020-06-12T07:22:38Z</time>
      </trkpt>
      <trkpt lat="49.36448" lon="-1.71054">
        <ele>49.2</ele>
        <time>2020-06-12T07:22:39Z</time>
      </trkpt>
      <trkpt lat="49.36451" lon="-1.71062">
        <ele>49.1</ele>
        <time>2020-06-12T07:22:40Z</time>
      </trkpt>
      <trkpt lat="49.36453" lon="-1.71071">
        <ele>49.1</ele>
        <time>2020-06-12T07:22:41Z</time>
      </trkpt>
      <trkpt lat="49.36457" lon="-1.71081">
        <ele>49.1</ele>
        <time>2020-06-12T07:22:42Z</time>
      </trkpt>
      <trkpt lat="49.3646" lon="-1.71091">
        <ele>49.1</ele>
        <time>2020-06-12T07:22:43Z</time>
      </trkpt>
      <trkpt lat="49.36462" lon="-1.71099">
        <ele>49.1</ele>
        <time>2020-06-12T07:22:44Z</time>
      </trkpt>
      <trkpt lat="49.36464" lon="-1.71107">
        <ele>49.1</ele>
        <time>2020-06-12T07:22:45Z</time>
      </trkpt>
      <trkpt lat="49.36466" lon="-1.71116">
        <ele>49.1</ele>
        <time>2020-06-12T07:22:46Z</time>
      </trkpt>
      <trkpt lat="49.36469" lon="-1.71124">
        <ele>49.1</ele>
        <time>2020-06-12T07:22:47Z</time>
      </trkpt>
      <trkpt lat="49.36471" lon="-1.71133">
        <ele>49.1</ele>
        <time>2020-06-12T07:22:48Z</time>
      </trkpt>
      <trkpt lat="49.36473" lon="-1.71143">
        <ele>49</ele>
        <time>2020-06-12T07:22:49Z</time>
      </trkpt>
      <trkpt lat="49.36476" lon="-1.71153">
        <ele>49</ele>
        <time>2020-06-12T07:22:50Z</time>
      </trkpt>
      <trkpt lat="49.36478" lon="-1.71164">
        <ele>49</ele>
        <time>2020-06-12T07:22:51Z</time>
      </trkpt>
      <trkpt lat="49.36481" lon="-1.71173">
        <ele>49</ele>
        <time>2020-06-12T07:22:52Z</time>
      </trkpt>
      <trkpt lat="49.36484" lon="-1.71183">
        <ele>49</ele>
        <time>2020-06-12T07:22:53Z</time>
      </trkpt>
      <trkpt lat="49.36487" lon="-1.71193">
        <ele>49.1</ele>
        <time>2020-06-12T07:22:54Z</time>
      </trkpt>
      <trkpt lat="49.36489" lon="-1.71201">
        <ele>49.2</ele>
        <time>2020-06-12T07:22:55Z</time>
      </trkpt>
      <trkpt lat="49.36493" lon="-1.7121">
        <ele>49.4</ele>
        <time>2020-06-12T07:22:56Z</time>
      </trkpt>
      <trkpt lat="49.36496" lon="-1.71219">
        <ele>49.7</ele>
        <time>2020-06-12T07:22:57Z</time>
      </trkpt>
      <trkpt lat="49.36499" lon="-1.71227">
        <ele>49.9</ele>
        <time>2020-06-12T07:22:58Z</time>
      </trkpt>
      <trkpt lat="49.36502" lon="-1.71237">
        <ele>50</ele>
        <time>2020-06-12T07:22:59Z</time>
      </trkpt>
      <trkpt lat="49.36505" lon="-1.71246">
        <ele>49.9</ele>
        <time>2020-06-12T07:23:00Z</time>
      </trkpt>
      <trkpt lat="49.36508" lon="-1.71256">
        <ele>49.7</ele>
        <time>2020-06-12T07:23:01Z</time>
      </trkpt>
      <trkpt lat="49.36512" lon="-1.71264">
        <ele>49.6</ele>
        <time>2020-06-12T07:23:02Z</time>
      </trkpt>
      <trkpt lat="49.36515" lon="-1.71274">
        <ele>49.4</ele>
        <time>2020-06-12T07:23:03Z</time>
      </trkpt>
      <trkpt lat="49.36517" lon="-1.71283">
        <ele>49.4</ele>
        <time>2020-06-12T07:23:04Z</time>
      </trkpt>
      <trkpt lat="49.3652" lon="-1.71292">
        <ele>49.4</ele>
        <time>2020-06-12T07:23:05Z</time>
      </trkpt>
      <trkpt lat="49.36523" lon="-1.71301">
        <ele>49.4</ele>
        <time>2020-06-12T07:23:06Z</time>
      </trkpt>
      <trkpt lat="49.36525" lon="-1.7131">
        <ele>49.4</ele>
        <time>2020-06-12T07:23:07Z</time>
      </trkpt>
      <trkpt lat="49.36528" lon="-1.71318">
        <ele>49.4</ele>
        <time>2020-06-12T07:23:08Z</time>
      </trkpt>
      <trkpt lat="49.3653" lon="-1.71327">
        <ele>49.5</ele>
        <time>2020-06-12T07:23:09Z</time>
      </trkpt>
      <trkpt lat="49.36532" lon="-1.71336">
        <ele>49.6</ele>
        <time>2020-06-12T07:23:10Z</time>
      </trkpt>
      <trkpt lat="49.36535" lon="-1.71345">
        <ele>49.7</ele>
        <time>2020-06-12T07:23:11Z</time>
      </trkpt>
      <trkpt lat="49.36538" lon="-1.71354">
        <ele>49.8</ele>
        <time>2020-06-12T07:23:12Z</time>
      </trkpt>
      <trkpt lat="49.3654" lon="-1.71363">
        <ele>49.9</ele>
        <time>2020-06-12T07:23:13Z</time>
      </trkpt>
      <trkpt lat="49.36542" lon="-1.71373">
        <ele>50</ele>
        <time>2020-06-12T07:23:14Z</time>
      </trkpt>
      <trkpt lat="49.36545" lon="-1.71382">
        <ele>50.1</ele>
        <time>2020-06-12T07:23:15Z</time>
      </trkpt>
      <trkpt lat="49.36547" lon="-1.71391">
        <ele>50.1</ele>
        <time>2020-06-12T07:23:16Z</time>
      </trkpt>
      <trkpt lat="49.3655" lon="-1.714">
        <ele>50.2</ele>
        <time>2020-06-12T07:23:17Z</time>
      </trkpt>
      <trkpt lat="49.36553" lon="-1.71408">
        <ele>50.3</ele>
        <time>2020-06-12T07:23:18Z</time>
      </trkpt>
      <trkpt lat="49.36555" lon="-1.71418">
        <ele>50.3</ele>
        <time>2020-06-12T07:23:19Z</time>
      </trkpt>
      <trkpt lat="49.36557" lon="-1.71426">
        <ele>50.4</ele>
        <time>2020-06-12T07:23:20Z</time>
      </trkpt>
      <trkpt lat="49.3656" lon="-1.71435">
        <ele>50.4</ele>
        <time>2020-06-12T07:23:21Z</time>
      </trkpt>
      <trkpt lat="49.36563" lon="-1.71445">
        <ele>50.5</ele>
        <time>2020-06-12T07:23:22Z</time>
      </trkpt>
      <trkpt lat="49.36565" lon="-1.71453">
        <ele>50.6</ele>
        <time>2020-06-12T07:23:23Z</time>
      </trkpt>
      <trkpt lat="49.36567" lon="-1.71461">
        <ele>50.6</ele>
        <time>2020-06-12T07:23:24Z</time>
      </trkpt>
      <trkpt lat="49.36569" lon="-1.71469">
        <ele>50.7</ele>
        <time>2020-06-12T07:23:25Z</time>
      </trkpt>
      <trkpt lat="49.36571" lon="-1.71477">
        <ele>50.8</ele>
        <time>2020-06-12T07:23:26Z</time>
      </trkpt>
      <trkpt lat="49.36574" lon="-1.71486">
        <ele>50.9</ele>
        <time>2020-06-12T07:23:27Z</time>
      </trkpt>
      <trkpt lat="49.36576" lon="-1.71496">
        <ele>51</ele>
        <time>2020-06-12T07:23:28Z</time>
      </trkpt>
      <trkpt lat="49.36579" lon="-1.71505">
        <ele>51.1</ele>
        <time>2020-06-12T07:23:29Z</time>
      </trkpt>
      <trkpt lat="49.36581" lon="-1.71514">
        <ele>51.3</ele>
        <time>2020-06-12T07:23:30Z</time>
      </trkpt>
      <trkpt lat="49.36584" lon="-1.7152">
        <ele>51.3</ele>
        <time>2020-06-12T07:23:31Z</time>
      </trkpt>
      <trkpt lat="49.36586" lon="-1.7153">
        <ele>51.5</ele>
        <time>2020-06-12T07:23:32Z</time>
      </trkpt>
      <trkpt lat="49.36588" lon="-1.7154">
        <ele>51.6</ele>
        <time>2020-06-12T07:23:33Z</time>
      </trkpt>
      <trkpt lat="49.3659" lon="-1.71547">
        <ele>51.7</ele>
        <time>2020-06-12T07:23:34Z</time>
      </trkpt>
      <trkpt lat="49.36593" lon="-1.71559">
        <ele>51.8</ele>
        <time>2020-06-12T07:23:35Z</time>
      </trkpt>
      <trkpt lat="49.36596" lon="-1.71567">
        <ele>51.9</ele>
        <time>2020-06-12T07:23:36Z</time>
      </trkpt>
      <trkpt lat="49.36598" lon="-1.71574">
        <ele>52</ele>
        <time>2020-06-12T07:23:37Z</time>
      </trkpt>
      <trkpt lat="49.36601" lon="-1.71583">
        <ele>52.2</ele>
        <time>2020-06-12T07:23:38Z</time>
      </trkpt>
      <trkpt lat="49.36603" lon="-1.7159">
        <ele>52.3</ele>
        <time>2020-06-12T07:23:39Z</time>
      </trkpt>
      <trkpt lat="49.36606" lon="-1.71597">
        <ele>52.4</ele>
        <time>2020-06-12T07:23:40Z</time>
      </trkpt>
      <trkpt lat="49.36609" lon="-1.71606">
        <ele>52.6</ele>
        <time>2020-06-12T07:23:41Z</time>
      </trkpt>
      <trkpt lat="49.36611" lon="-1.71614">
        <ele>52.8</ele>
        <time>2020-06-12T07:23:42Z</time>
      </trkpt>
      <trkpt lat="49.36613" lon="-1.71623">
        <ele>53</ele>
        <time>2020-06-12T07:23:43Z</time>
      </trkpt>
      <trkpt lat="49.36616" lon="-1.71631">
        <ele>53.2</ele>
        <time>2020-06-12T07:23:44Z</time>
      </trkpt>
      <trkpt lat="49.36618" lon="-1.71638">
        <ele>53.3</ele>
        <time>2020-06-12T07:23:45Z</time>
      </trkpt>
      <trkpt lat="49.3662" lon="-1.71647">
        <ele>53.5</ele>
        <time>2020-06-12T07:23:46Z</time>
      </trkpt>
      <trkpt lat="49.36622" lon="-1.71654">
        <ele>53.7</ele>
        <time>2020-06-12T07:23:47Z</time>
      </trkpt>
      <trkpt lat="49.36624" lon="-1.71662">
        <ele>53.9</ele>
        <time>2020-06-12T07:23:48Z</time>
      </trkpt>
      <trkpt lat="49.36625" lon="-1.7167">
        <ele>54</ele>
        <time>2020-06-12T07:23:49Z</time>
      </trkpt>
      <trkpt lat="49.36627" lon="-1.71679">
        <ele>54.1</ele>
        <time>2020-06-12T07:23:50Z</time>
      </trkpt>
      <trkpt lat="49.3663" lon="-1.71688">
        <ele>54.3</ele>
        <time>2020-06-12T07:23:51Z</time>
      </trkpt>
      <trkpt lat="49.36632" lon="-1.71697">
        <ele>54.4</ele>
        <time>2020-06-12T07:23:52Z</time>
      </trkpt>
      <trkpt lat="49.36634" lon="-1.71705">
        <ele>54.5</ele>
        <time>2020-06-12T07:23:53Z</time>
      </trkpt>
      <trkpt lat="49.36636" lon="-1.71711">
        <ele>54.6</ele>
        <time>2020-06-12T07:23:54Z</time>
      </trkpt>
      <trkpt lat="49.36638" lon="-1.71719">
        <ele>54.7</ele>
        <time>2020-06-12T07:23:55Z</time>
      </trkpt>
      <trkpt lat="49.3664" lon="-1.71726">
        <ele>54.8</ele>
        <time>2020-06-12T07:23:56Z</time>
      </trkpt>
      <trkpt lat="49.36641" lon="-1.71735">
        <ele>55</ele>
        <time>2020-06-12T07:23:57Z</time>
      </trkpt>
      <trkpt lat="49.36642" lon="-1.71743">
        <ele>55.1</ele>
        <time>2020-06-12T07:23:58Z</time>
      </trkpt>
      <trkpt lat="49.36644" lon="-1.71751">
        <ele>55.3</ele>
        <time>2020-06-12T07:23:59Z</time>
      </trkpt>
      <trkpt lat="49.36646" lon="-1.7176">
        <ele>55.4</ele>
        <time>2020-06-12T07:24:00Z</time>
      </trkpt>
      <trkpt lat="49.36648" lon="-1.71767">
        <ele>55.6</ele>
        <time>2020-06-12T07:24:01Z</time>
      </trkpt>
      <trkpt lat="49.3665" lon="-1.71775">
        <ele>55.7</ele>
        <time>2020-06-12T07:24:02Z</time>
      </trkpt>
      <trkpt lat="49.36652" lon="-1.71783">
        <ele>55.9</ele>
        <time>2020-06-12T07:24:03Z</time>
      </trkpt>
      <trkpt lat="49.36654" lon="-1.71792">
        <ele>56.1</ele>
        <time>2020-06-12T07:24:04Z</time>
      </trkpt>
      <trkpt lat="49.36655" lon="-1.71799">
        <ele>56.2</ele>
        <time>2020-06-12T07:24:05Z</time>
      </trkpt>
      <trkpt lat="49.36657" lon="-1.71807">
        <ele>56.4</ele>
        <time>2020-06-12T07:24:06Z</time>
      </trkpt>
      <trkpt lat="49.36659" lon="-1.71815">
        <ele>56.7</ele>
        <time>2020-06-12T07:24:07Z</time>
      </trkpt>
      <trkpt lat="49.36661" lon="-1.7182">
        <ele>56.8</ele>
        <time>2020-06-12T07:24:08Z</time>
      </trkpt>
      <trkpt lat="49.36663" lon="-1.71827">
        <ele>57.1</ele>
        <time>2020-06-12T07:24:09Z</time>
      </trkpt>
      <trkpt lat="49.36665" lon="-1.71834">
        <ele>57.3</ele>
        <time>2020-06-12T07:24:10Z</time>
      </trkpt>
      <trkpt lat="49.36666" lon="-1.71842">
        <ele>57.6</ele>
        <time>2020-06-12T07:24:11Z</time>
      </trkpt>
      <trkpt lat="49.36667" lon="-1.71849">
        <ele>57.8</ele>
        <time>2020-06-12T07:24:12Z</time>
      </trkpt>
      <trkpt lat="49.3667" lon="-1.71855">
        <ele>58.2</ele>
        <time>2020-06-12T07:24:13Z</time>
      </trkpt>
      <trkpt lat="49.36671" lon="-1.71862">
        <ele>58.4</ele>
        <time>2020-06-12T07:24:14Z</time>
      </trkpt>
      <trkpt lat="49.36673" lon="-1.71868">
        <ele>58.5</ele>
        <time>2020-06-12T07:24:15Z</time>
      </trkpt>
      <trkpt lat="49.36673" lon="-1.71875">
        <ele>58.6</ele>
        <time>2020-06-12T07:24:16Z</time>
      </trkpt>
      <trkpt lat="49.36673" lon="-1.71883">
        <ele>58.7</ele>
        <time>2020-06-12T07:24:17Z</time>
      </trkpt>
      <trkpt lat="49.36675" lon="-1.7189">
        <ele>58.9</ele>
        <time>2020-06-12T07:24:18Z</time>
      </trkpt>
      <trkpt lat="49.36677" lon="-1.71897">
        <ele>59</ele>
        <time>2020-06-12T07:24:19Z</time>
      </trkpt>
      <trkpt lat="49.36678" lon="-1.71904">
        <ele>59.1</ele>
        <time>2020-06-12T07:24:20Z</time>
      </trkpt>
      <trkpt lat="49.3668" lon="-1.71911">
        <ele>59.3</ele>
        <time>2020-06-12T07:24:21Z</time>
      </trkpt>
      <trkpt lat="49.36681" lon="-1.71918">
        <ele>59.4</ele>
        <time>2020-06-12T07:24:22Z</time>
      </trkpt>
      <trkpt lat="49.36683" lon="-1.71925">
        <ele>59.6</ele>
        <time>2020-06-12T07:24:23Z</time>
      </trkpt>
      <trkpt lat="49.36684" lon="-1.71934">
        <ele>59.8</ele>
        <time>2020-06-12T07:24:24Z</time>
      </trkpt>
      <trkpt lat="49.36685" lon="-1.71941">
        <ele>60</ele>
        <time>2020-06-12T07:24:25Z</time>
      </trkpt>
      <trkpt lat="49.36687" lon="-1.71948">
        <ele>60.1</ele>
        <time>2020-06-12T07:24:26Z</time>
      </trkpt>
      <trkpt lat="49.36688" lon="-1.71957">
        <ele>60.1</ele>
        <time>2020-06-12T07:24:27Z</time>
      </trkpt>
      <trkpt lat="49.36689" lon="-1.71965">
        <ele>60.1</ele>
        <time>2020-06-12T07:24:28Z</time>
      </trkpt>
      <trkpt lat="49.36691" lon="-1.71971">
        <ele>60</ele>
        <time>2020-06-12T07:24:29Z</time>
      </trkpt>
      <trkpt lat="49.36692" lon="-1.71978">
        <ele>60.1</ele>
        <time>2020-06-12T07:24:30Z</time>
      </trkpt>
      <trkpt lat="49.36694" lon="-1.71985">
        <ele>60.1</ele>
        <time>2020-06-12T07:24:31Z</time>
      </trkpt>
      <trkpt lat="49.36696" lon="-1.71992">
        <ele>60.1</ele>
        <time>2020-06-12T07:24:32Z</time>
      </trkpt>
      <trkpt lat="49.36699" lon="-1.71999">
        <ele>60.2</ele>
        <time>2020-06-12T07:24:33Z</time>
      </trkpt>
      <trkpt lat="49.36701" lon="-1.72006">
        <ele>60.3</ele>
        <time>2020-06-12T07:24:34Z</time>
      </trkpt>
      <trkpt lat="49.36703" lon="-1.72013">
        <ele>60.4</ele>
        <time>2020-06-12T07:24:35Z</time>
      </trkpt>
      <trkpt lat="49.36705" lon="-1.7202">
        <ele>60.6</ele>
        <time>2020-06-12T07:24:36Z</time>
      </trkpt>
      <trkpt lat="49.36707" lon="-1.72028">
        <ele>60.7</ele>
        <time>2020-06-12T07:24:37Z</time>
      </trkpt>
      <trkpt lat="49.36708" lon="-1.72035">
        <ele>60.9</ele>
        <time>2020-06-12T07:24:38Z</time>
      </trkpt>
      <trkpt lat="49.3671" lon="-1.72042">
        <ele>61</ele>
        <time>2020-06-12T07:24:39Z</time>
      </trkpt>
      <trkpt lat="49.36711" lon="-1.72049">
        <ele>61.1</ele>
        <time>2020-06-12T07:24:40Z</time>
      </trkpt>
      <trkpt lat="49.36713" lon="-1.72055">
        <ele>61.2</ele>
        <time>2020-06-12T07:24:41Z</time>
      </trkpt>
      <trkpt lat="49.36715" lon="-1.72062">
        <ele>61.3</ele>
        <time>2020-06-12T07:24:42Z</time>
      </trkpt>
      <trkpt lat="49.36717" lon="-1.72068">
        <ele>61.4</ele>
        <time>2020-06-12T07:24:43Z</time>
      </trkpt>
      <trkpt lat="49.36719" lon="-1.72075">
        <ele>61.4</ele>
        <time>2020-06-12T07:24:44Z</time>
      </trkpt>
      <trkpt lat="49.36721" lon="-1.72081">
        <ele>61.5</ele>
        <time>2020-06-12T07:24:45Z</time>
      </trkpt>
      <trkpt lat="49.36724" lon="-1.72086">
        <ele>61.6</ele>
        <time>2020-06-12T07:24:46Z</time>
      </trkpt>
      <trkpt lat="49.36727" lon="-1.72091">
        <ele>61.6</ele>
        <time>2020-06-12T07:24:47Z</time>
      </trkpt>
      <trkpt lat="49.36729" lon="-1.72099">
        <ele>61.7</ele>
        <time>2020-06-12T07:24:48Z</time>
      </trkpt>
      <trkpt lat="49.36732" lon="-1.72105">
        <ele>61.7</ele>
        <time>2020-06-12T07:24:49Z</time>
      </trkpt>
      <trkpt lat="49.36735" lon="-1.72112">
        <ele>61.8</ele>
        <time>2020-06-12T07:24:50Z</time>
      </trkpt>
      <trkpt lat="49.36737" lon="-1.72119">
        <ele>61.8</ele>
        <time>2020-06-12T07:24:51Z</time>
      </trkpt>
      <trkpt lat="49.3674" lon="-1.72125">
        <ele>61.9</ele>
        <time>2020-06-12T07:24:52Z</time>
      </trkpt>
      <trkpt lat="49.36743" lon="-1.72133">
        <ele>61.9</ele>
        <time>2020-06-12T07:24:53Z</time>
      </trkpt>
      <trkpt lat="49.36746" lon="-1.7214">
        <ele>62</ele>
        <time>2020-06-12T07:24:54Z</time>
      </trkpt>
      <trkpt lat="49.36748" lon="-1.72145">
        <ele>62</ele>
        <time>2020-06-12T07:24:55Z</time>
      </trkpt>
      <trkpt lat="49.36751" lon="-1.72153">
        <ele>62</ele>
        <time>2020-06-12T07:24:56Z</time>
      </trkpt>
      <trkpt lat="49.36754" lon="-1.72158">
        <ele>62.1</ele>
        <time>2020-06-12T07:24:57Z</time>
      </trkpt>
      <trkpt lat="49.36757" lon="-1.72166">
        <ele>62.1</ele>
        <time>2020-06-12T07:24:58Z</time>
      </trkpt>
      <trkpt lat="49.36759" lon="-1.72172">
        <ele>62.1</ele>
        <time>2020-06-12T07:24:59Z</time>
      </trkpt>
      <trkpt lat="49.36762" lon="-1.72178">
        <ele>62.2</ele>
        <time>2020-06-12T07:25:00Z</time>
      </trkpt>
      <trkpt lat="49.36766" lon="-1.72184">
        <ele>62.3</ele>
        <time>2020-06-12T07:25:01Z</time>
      </trkpt>
      <trkpt lat="49.36769" lon="-1.72189">
        <ele>62.3</ele>
        <time>2020-06-12T07:25:02Z</time>
      </trkpt>
      <trkpt lat="49.36772" lon="-1.72196">
        <ele>62.4</ele>
        <time>2020-06-12T07:25:03Z</time>
      </trkpt>
      <trkpt lat="49.36776" lon="-1.72203">
        <ele>62.4</ele>
        <time>2020-06-12T07:25:04Z</time>
      </trkpt>
      <trkpt lat="49.36779" lon="-1.72208">
        <ele>62.5</ele>
        <time>2020-06-12T07:25:05Z</time>
      </trkpt>
      <trkpt lat="49.36783" lon="-1.72214">
        <ele>62.6</ele>
        <time>2020-06-12T07:25:06Z</time>
      </trkpt>
      <trkpt lat="49.36787" lon="-1.72221">
        <ele>62.5</ele>
        <time>2020-06-12T07:25:07Z</time>
      </trkpt>
      <trkpt lat="49.3679" lon="-1.72228">
        <ele>62.4</ele>
        <time>2020-06-12T07:25:08Z</time>
      </trkpt>
      <trkpt lat="49.36794" lon="-1.72235">
        <ele>62.3</ele>
        <time>2020-06-12T07:25:09Z</time>
      </trkpt>
      <trkpt lat="49.36798" lon="-1.72241">
        <ele>62.2</ele>
        <time>2020-06-12T07:25:10Z</time>
      </trkpt>
      <trkpt lat="49.36802" lon="-1.7225">
        <ele>62.1</ele>
        <time>2020-06-12T07:25:11Z</time>
      </trkpt>
      <trkpt lat="49.36806" lon="-1.72256">
        <ele>62.1</ele>
        <time>2020-06-12T07:25:12Z</time>
      </trkpt>
      <trkpt lat="49.36811" lon="-1.72263">
        <ele>62.1</ele>
        <time>2020-06-12T07:25:13Z</time>
      </trkpt>
      <trkpt lat="49.36815" lon="-1.72269">
        <ele>62.2</ele>
        <time>2020-06-12T07:25:14Z</time>
      </trkpt>
      <trkpt lat="49.36819" lon="-1.72275">
        <ele>62.2</ele>
        <time>2020-06-12T07:25:15Z</time>
      </trkpt>
      <trkpt lat="49.36823" lon="-1.72282">
        <ele>62.3</ele>
        <time>2020-06-12T07:25:16Z</time>
      </trkpt>
      <trkpt lat="49.36827" lon="-1.72289">
        <ele>62.3</ele>
        <time>2020-06-12T07:25:17Z</time>
      </trkpt>
      <trkpt lat="49.36831" lon="-1.72295">
        <ele>62.4</ele>
        <time>2020-06-12T07:25:18Z</time>
      </trkpt>
      <trkpt lat="49.36835" lon="-1.723">
        <ele>62.4</ele>
        <time>2020-06-12T07:25:19Z</time>
      </trkpt>
      <trkpt lat="49.3684" lon="-1.72307">
        <ele>62.5</ele>
        <time>2020-06-12T07:25:20Z</time>
      </trkpt>
      <trkpt lat="49.36844" lon="-1.72313">
        <ele>62.6</ele>
        <time>2020-06-12T07:25:21Z</time>
      </trkpt>
      <trkpt lat="49.36848" lon="-1.7232">
        <ele>62.7</ele>
        <time>2020-06-12T07:25:22Z</time>
      </trkpt>
      <trkpt lat="49.36853" lon="-1.72327">
        <ele>62.8</ele>
        <time>2020-06-12T07:25:23Z</time>
      </trkpt>
      <trkpt lat="49.36857" lon="-1.72334">
        <ele>62.5</ele>
        <time>2020-06-12T07:25:24Z</time>
      </trkpt>
      <trkpt lat="49.36861" lon="-1.72342">
        <ele>62.4</ele>
        <time>2020-06-12T07:25:25Z</time>
      </trkpt>
      <trkpt lat="49.36865" lon="-1.72347">
        <ele>62.3</ele>
        <time>2020-06-12T07:25:26Z</time>
      </trkpt>
      <trkpt lat="49.36869" lon="-1.72354">
        <ele>62.2</ele>
        <time>2020-06-12T07:25:27Z</time>
      </trkpt>
      <trkpt lat="49.36874" lon="-1.72361">
        <ele>62.2</ele>
        <time>2020-06-12T07:25:28Z</time>
      </trkpt>
      <trkpt lat="49.36878" lon="-1.72367">
        <ele>62.2</ele>
        <time>2020-06-12T07:25:29Z</time>
      </trkpt>
      <trkpt lat="49.36882" lon="-1.72374">
        <ele>62.2</ele>
        <time>2020-06-12T07:25:30Z</time>
      </trkpt>
      <trkpt lat="49.36887" lon="-1.72381">
        <ele>62.2</ele>
        <time>2020-06-12T07:25:31Z</time>
      </trkpt>
      <trkpt lat="49.36892" lon="-1.72389">
        <ele>62.1</ele>
        <time>2020-06-12T07:25:32Z</time>
      </trkpt>
      <trkpt lat="49.36896" lon="-1.72395">
        <ele>62.1</ele>
        <time>2020-06-12T07:25:33Z</time>
      </trkpt>
      <trkpt lat="49.369" lon="-1.72401">
        <ele>62.1</ele>
        <time>2020-06-12T07:25:34Z</time>
      </trkpt>
      <trkpt lat="49.36903" lon="-1.72406">
        <ele>62.1</ele>
        <time>2020-06-12T07:25:35Z</time>
      </trkpt>
      <trkpt lat="49.36907" lon="-1.72412">
        <ele>62.1</ele>
        <time>2020-06-12T07:25:36Z</time>
      </trkpt>
      <trkpt lat="49.36912" lon="-1.72418">
        <ele>62</ele>
        <time>2020-06-12T07:25:37Z</time>
      </trkpt>
      <trkpt lat="49.36916" lon="-1.72425">
        <ele>62</ele>
        <time>2020-06-12T07:25:38Z</time>
      </trkpt>
      <trkpt lat="49.3692" lon="-1.72432">
        <ele>62</ele>
        <time>2020-06-12T07:25:39Z</time>
      </trkpt>
      <trkpt lat="49.36925" lon="-1.72439">
        <ele>62</ele>
        <time>2020-06-12T07:25:40Z</time>
      </trkpt>
      <trkpt lat="49.36929" lon="-1.72446">
        <ele>62</ele>
        <time>2020-06-12T07:25:41Z</time>
      </trkpt>
      <trkpt lat="49.36934" lon="-1.72453">
        <ele>62</ele>
        <time>2020-06-12T07:25:42Z</time>
      </trkpt>
      <trkpt lat="49.36938" lon="-1.7246">
        <ele>62</ele>
        <time>2020-06-12T07:25:43Z</time>
      </trkpt>
      <trkpt lat="49.36944" lon="-1.72467">
        <ele>62</ele>
        <time>2020-06-12T07:25:44Z</time>
      </trkpt>
      <trkpt lat="49.36948" lon="-1.72474">
        <ele>62</ele>
        <time>2020-06-12T07:25:45Z</time>
      </trkpt>
      <trkpt lat="49.36954" lon="-1.7248">
        <ele>62</ele>
        <time>2020-06-12T07:25:46Z</time>
      </trkpt>
      <trkpt lat="49.36959" lon="-1.72487">
        <ele>62</ele>
        <time>2020-06-12T07:25:47Z</time>
      </trkpt>
      <trkpt lat="49.36964" lon="-1.72493">
        <ele>62</ele>
        <time>2020-06-12T07:25:48Z</time>
      </trkpt>
      <trkpt lat="49.36968" lon="-1.72499">
        <ele>62</ele>
        <time>2020-06-12T07:25:49Z</time>
      </trkpt>
      <trkpt lat="49.36972" lon="-1.72505">
        <ele>62</ele>
        <time>2020-06-12T07:25:50Z</time>
      </trkpt>
      <trkpt lat="49.36976" lon="-1.7251">
        <ele>62</ele>
        <time>2020-06-12T07:25:51Z</time>
      </trkpt>
      <trkpt lat="49.36981" lon="-1.72516">
        <ele>62</ele>
        <time>2020-06-12T07:25:52Z</time>
      </trkpt>
      <trkpt lat="49.36985" lon="-1.72524">
        <ele>62</ele>
        <time>2020-06-12T07:25:53Z</time>
      </trkpt>
      <trkpt lat="49.36989" lon="-1.72532">
        <ele>62</ele>
        <time>2020-06-12T07:25:54Z</time>
      </trkpt>
      <trkpt lat="49.36992" lon="-1.72538">
        <ele>61.9</ele>
        <time>2020-06-12T07:25:55Z</time>
      </trkpt>
      <trkpt lat="49.36996" lon="-1.72546">
        <ele>61.9</ele>
        <time>2020-06-12T07:25:56Z</time>
      </trkpt>
      <trkpt lat="49.37" lon="-1.72555">
        <ele>61.9</ele>
        <time>2020-06-12T07:25:57Z</time>
      </trkpt>
      <trkpt lat="49.37004" lon="-1.72563">
        <ele>61.8</ele>
        <time>2020-06-12T07:25:58Z</time>
      </trkpt>
      <trkpt lat="49.37008" lon="-1.72571">
        <ele>61.8</ele>
        <time>2020-06-12T07:25:59Z</time>
      </trkpt>
      <trkpt lat="49.37012" lon="-1.7258">
        <ele>61.7</ele>
        <time>2020-06-12T07:26:00Z</time>
      </trkpt>
      <trkpt lat="49.37016" lon="-1.72588">
        <ele>61.7</ele>
        <time>2020-06-12T07:26:01Z</time>
      </trkpt>
      <trkpt lat="49.37019" lon="-1.72595">
        <ele>61.7</ele>
        <time>2020-06-12T07:26:02Z</time>
      </trkpt>
      <trkpt lat="49.37023" lon="-1.72602">
        <ele>61.6</ele>
        <time>2020-06-12T07:26:03Z</time>
      </trkpt>
      <trkpt lat="49.37027" lon="-1.7261">
        <ele>61.6</ele>
        <time>2020-06-12T07:26:04Z</time>
      </trkpt>
      <trkpt lat="49.37031" lon="-1.72619">
        <ele>61.6</ele>
        <time>2020-06-12T07:26:05Z</time>
      </trkpt>
      <trkpt lat="49.37035" lon="-1.72627">
        <ele>61.6</ele>
        <time>2020-06-12T07:26:06Z</time>
      </trkpt>
      <trkpt lat="49.37039" lon="-1.72635">
        <ele>61.6</ele>
        <time>2020-06-12T07:26:07Z</time>
      </trkpt>
      <trkpt lat="49.37043" lon="-1.72643">
        <ele>61.6</ele>
        <time>2020-06-12T07:26:08Z</time>
      </trkpt>
      <trkpt lat="49.37046" lon="-1.72651">
        <ele>61.6</ele>
        <time>2020-06-12T07:26:09Z</time>
      </trkpt>
      <trkpt lat="49.3705" lon="-1.72659">
        <ele>61.6</ele>
        <time>2020-06-12T07:26:10Z</time>
      </trkpt>
      <trkpt lat="49.37053" lon="-1.72666">
        <ele>61.6</ele>
        <time>2020-06-12T07:26:11Z</time>
      </trkpt>
      <trkpt lat="49.37057" lon="-1.72675">
        <ele>61.7</ele>
        <time>2020-06-12T07:26:12Z</time>
      </trkpt>
      <trkpt lat="49.37061" lon="-1.72682">
        <ele>61.7</ele>
        <time>2020-06-12T07:26:13Z</time>
      </trkpt>
      <trkpt lat="49.37065" lon="-1.72689">
        <ele>61.7</ele>
        <time>2020-06-12T07:26:14Z</time>
      </trkpt>
      <trkpt lat="49.37068" lon="-1.72698">
        <ele>61.6</ele>
        <time>2020-06-12T07:26:15Z</time>
      </trkpt>
      <trkpt lat="49.37073" lon="-1.72708">
        <ele>61.6</ele>
        <time>2020-06-12T07:26:16Z</time>
      </trkpt>
      <trkpt lat="49.37076" lon="-1.72717">
        <ele>61.5</ele>
        <time>2020-06-12T07:26:17Z</time>
      </trkpt>
      <trkpt lat="49.3708" lon="-1.72724">
        <ele>61.5</ele>
        <time>2020-06-12T07:26:18Z</time>
      </trkpt>
      <trkpt lat="49.37084" lon="-1.72733">
        <ele>61.4</ele>
        <time>2020-06-12T07:26:19Z</time>
      </trkpt>
      <trkpt lat="49.37087" lon="-1.72741">
        <ele>61.4</ele>
        <time>2020-06-12T07:26:20Z</time>
      </trkpt>
      <trkpt lat="49.37092" lon="-1.72749">
        <ele>61.4</ele>
        <time>2020-06-12T07:26:21Z</time>
      </trkpt>
      <trkpt lat="49.37097" lon="-1.72759">
        <ele>61.3</ele>
        <time>2020-06-12T07:26:22Z</time>
      </trkpt>
      <trkpt lat="49.37101" lon="-1.72768">
        <ele>61.3</ele>
        <time>2020-06-12T07:26:23Z</time>
      </trkpt>
      <trkpt lat="49.37105" lon="-1.72776">
        <ele>61.3</ele>
        <time>2020-06-12T07:26:24Z</time>
      </trkpt>
      <trkpt lat="49.37109" lon="-1.72785">
        <ele>61.4</ele>
        <time>2020-06-12T07:26:25Z</time>
      </trkpt>
      <trkpt lat="49.37113" lon="-1.72793">
        <ele>61.4</ele>
        <time>2020-06-12T07:26:26Z</time>
      </trkpt>
      <trkpt lat="49.37117" lon="-1.72801">
        <ele>61.4</ele>
        <time>2020-06-12T07:26:27Z</time>
      </trkpt>
      <trkpt lat="49.3712" lon="-1.72809">
        <ele>61.4</ele>
        <time>2020-06-12T07:26:28Z</time>
      </trkpt>
      <trkpt lat="49.37124" lon="-1.72818">
        <ele>61.5</ele>
        <time>2020-06-12T07:26:29Z</time>
      </trkpt>
      <trkpt lat="49.37129" lon="-1.72827">
        <ele>61.6</ele>
        <time>2020-06-12T07:26:30Z</time>
      </trkpt>
      <trkpt lat="49.37133" lon="-1.72836">
        <ele>61.7</ele>
        <time>2020-06-12T07:26:31Z</time>
      </trkpt>
      <trkpt lat="49.37136" lon="-1.72845">
        <ele>61.8</ele>
        <time>2020-06-12T07:26:32Z</time>
      </trkpt>
      <trkpt lat="49.3714" lon="-1.72852">
        <ele>62</ele>
        <time>2020-06-12T07:26:33Z</time>
      </trkpt>
      <trkpt lat="49.37143" lon="-1.72859">
        <ele>62.1</ele>
        <time>2020-06-12T07:26:34Z</time>
      </trkpt>
      <trkpt lat="49.37147" lon="-1.72866">
        <ele>62.2</ele>
        <time>2020-06-12T07:26:35Z</time>
      </trkpt>
      <trkpt lat="49.37151" lon="-1.72874">
        <ele>61.9</ele>
        <time>2020-06-12T07:26:36Z</time>
      </trkpt>
      <trkpt lat="49.37155" lon="-1.72881">
        <ele>61.8</ele>
        <time>2020-06-12T07:26:37Z</time>
      </trkpt>
      <trkpt lat="49.3716" lon="-1.72889">
        <ele>61.7</ele>
        <time>2020-06-12T07:26:38Z</time>
      </trkpt>
      <trkpt lat="49.37163" lon="-1.72897">
        <ele>61.7</ele>
        <time>2020-06-12T07:26:39Z</time>
      </trkpt>
      <trkpt lat="49.37168" lon="-1.72906">
        <ele>61.7</ele>
        <time>2020-06-12T07:26:40Z</time>
      </trkpt>
      <trkpt lat="49.37172" lon="-1.72915">
        <ele>61.7</ele>
        <time>2020-06-12T07:26:41Z</time>
      </trkpt>
      <trkpt lat="49.37177" lon="-1.72923">
        <ele>61.7</ele>
        <time>2020-06-12T07:26:42Z</time>
      </trkpt>
      <trkpt lat="49.3718" lon="-1.7293">
        <ele>61.8</ele>
        <time>2020-06-12T07:26:43Z</time>
      </trkpt>
      <trkpt lat="49.37185" lon="-1.72938">
        <ele>61.8</ele>
        <time>2020-06-12T07:26:44Z</time>
      </trkpt>
      <trkpt lat="49.37189" lon="-1.72946">
        <ele>61.8</ele>
        <time>2020-06-12T07:26:45Z</time>
      </trkpt>
      <trkpt lat="49.37193" lon="-1.72954">
        <ele>61.9</ele>
        <time>2020-06-12T07:26:46Z</time>
      </trkpt>
      <trkpt lat="49.37198" lon="-1.72961">
        <ele>61.9</ele>
        <time>2020-06-12T07:26:47Z</time>
      </trkpt>
      <trkpt lat="49.37202" lon="-1.72969">
        <ele>61.9</ele>
        <time>2020-06-12T07:26:48Z</time>
      </trkpt>
      <trkpt lat="49.37206" lon="-1.72976">
        <ele>62</ele>
        <time>2020-06-12T07:26:49Z</time>
      </trkpt>
      <trkpt lat="49.37211" lon="-1.72983">
        <ele>62</ele>
        <time>2020-06-12T07:26:50Z</time>
      </trkpt>
      <trkpt lat="49.37215" lon="-1.72991">
        <ele>62.1</ele>
        <time>2020-06-12T07:26:51Z</time>
      </trkpt>
      <trkpt lat="49.3722" lon="-1.72998">
        <ele>62.1</ele>
        <time>2020-06-12T07:26:52Z</time>
      </trkpt>
      <trkpt lat="49.37225" lon="-1.73005">
        <ele>62.1</ele>
        <time>2020-06-12T07:26:53Z</time>
      </trkpt>
      <trkpt lat="49.3723" lon="-1.73013">
        <ele>62.1</ele>
        <time>2020-06-12T07:26:54Z</time>
      </trkpt>
      <trkpt lat="49.37234" lon="-1.7302">
        <ele>62.1</ele>
        <time>2020-06-12T07:26:55Z</time>
      </trkpt>
      <trkpt lat="49.37239" lon="-1.73027">
        <ele>62.1</ele>
        <time>2020-06-12T07:26:56Z</time>
      </trkpt>
      <trkpt lat="49.37244" lon="-1.73034">
        <ele>62.1</ele>
        <time>2020-06-12T07:26:57Z</time>
      </trkpt>
      <trkpt lat="49.37249" lon="-1.73042">
        <ele>62.1</ele>
        <time>2020-06-12T07:26:58Z</time>
      </trkpt>
      <trkpt lat="49.37254" lon="-1.73049">
        <ele>62</ele>
        <time>2020-06-12T07:26:59Z</time>
      </trkpt>
      <trkpt lat="49.37259" lon="-1.73056">
        <ele>62</ele>
        <time>2020-06-12T07:27:00Z</time>
      </trkpt>
      <trkpt lat="49.37264" lon="-1.73064">
        <ele>62</ele>
        <time>2020-06-12T07:27:01Z</time>
      </trkpt>
      <trkpt lat="49.37269" lon="-1.73071">
        <ele>62</ele>
        <time>2020-06-12T07:27:02Z</time>
      </trkpt>
      <trkpt lat="49.37273" lon="-1.73078">
        <ele>62.1</ele>
        <time>2020-06-12T07:27:03Z</time>
      </trkpt>
      <trkpt lat="49.37278" lon="-1.73085">
        <ele>62.1</ele>
        <time>2020-06-12T07:27:04Z</time>
      </trkpt>
      <trkpt lat="49.37283" lon="-1.73092">
        <ele>62.1</ele>
        <time>2020-06-12T07:27:05Z</time>
      </trkpt>
      <trkpt lat="49.37287" lon="-1.73098">
        <ele>62.1</ele>
        <time>2020-06-12T07:27:06Z</time>
      </trkpt>
      <trkpt lat="49.37292" lon="-1.73105">
        <ele>62.1</ele>
        <time>2020-06-12T07:27:07Z</time>
      </trkpt>
      <trkpt lat="49.37296" lon="-1.73112">
        <ele>62.1</ele>
        <time>2020-06-12T07:27:08Z</time>
      </trkpt>
      <trkpt lat="49.37301" lon="-1.73119">
        <ele>62.1</ele>
        <time>2020-06-12T07:27:09Z</time>
      </trkpt>
      <trkpt lat="49.37305" lon="-1.73126">
        <ele>62.1</ele>
        <time>2020-06-12T07:27:10Z</time>
      </trkpt>
      <trkpt lat="49.37309" lon="-1.73134">
        <ele>62.1</ele>
        <time>2020-06-12T07:27:11Z</time>
      </trkpt>
      <trkpt lat="49.37314" lon="-1.7314">
        <ele>62.2</ele>
        <time>2020-06-12T07:27:12Z</time>
      </trkpt>
      <trkpt lat="49.37318" lon="-1.73147">
        <ele>62.2</ele>
        <time>2020-06-12T07:27:13Z</time>
      </trkpt>
      <trkpt lat="49.37323" lon="-1.73154">
        <ele>62.2</ele>
        <time>2020-06-12T07:27:14Z</time>
      </trkpt>
      <trkpt lat="49.37328" lon="-1.73162">
        <ele>62.3</ele>
        <time>2020-06-12T07:27:15Z</time>
      </trkpt>
      <trkpt lat="49.37332" lon="-1.7317">
        <ele>62.4</ele>
        <time>2020-06-12T07:27:16Z</time>
      </trkpt>
      <trkpt lat="49.37337" lon="-1.73176">
        <ele>62.3</ele>
        <time>2020-06-12T07:27:17Z</time>
      </trkpt>
      <trkpt lat="49.37342" lon="-1.73183">
        <ele>62.2</ele>
        <time>2020-06-12T07:27:18Z</time>
      </trkpt>
      <trkpt lat="49.37347" lon="-1.7319">
        <ele>62</ele>
        <time>2020-06-12T07:27:19Z</time>
      </trkpt>
      <trkpt lat="49.37352" lon="-1.73197">
        <ele>61.8</ele>
        <time>2020-06-12T07:27:20Z</time>
      </trkpt>
      <trkpt lat="49.37357" lon="-1.73204">
        <ele>61.6</ele>
        <time>2020-06-12T07:27:21Z</time>
      </trkpt>
      <trkpt lat="49.37363" lon="-1.73212">
        <ele>61.5</ele>
        <time>2020-06-12T07:27:22Z</time>
      </trkpt>
      <trkpt lat="49.37368" lon="-1.7322">
        <ele>61.4</ele>
        <time>2020-06-12T07:27:23Z</time>
      </trkpt>
      <trkpt lat="49.37373" lon="-1.73227">
        <ele>61.3</ele>
        <time>2020-06-12T07:27:24Z</time>
      </trkpt>
      <trkpt lat="49.37378" lon="-1.73234">
        <ele>61.2</ele>
        <time>2020-06-12T07:27:25Z</time>
      </trkpt>
      <trkpt lat="49.37384" lon="-1.73242">
        <ele>61.1</ele>
        <time>2020-06-12T07:27:26Z</time>
      </trkpt>
      <trkpt lat="49.37389" lon="-1.73248">
        <ele>61</ele>
        <time>2020-06-12T07:27:27Z</time>
      </trkpt>
      <trkpt lat="49.37394" lon="-1.73254">
        <ele>60.9</ele>
        <time>2020-06-12T07:27:28Z</time>
      </trkpt>
      <trkpt lat="49.37399" lon="-1.73262">
        <ele>60.8</ele>
        <time>2020-06-12T07:27:29Z</time>
      </trkpt>
      <trkpt lat="49.37403" lon="-1.73271">
        <ele>60.7</ele>
        <time>2020-06-12T07:27:30Z</time>
      </trkpt>
      <trkpt lat="49.37408" lon="-1.73279">
        <ele>60.5</ele>
        <time>2020-06-12T07:27:31Z</time>
      </trkpt>
      <trkpt lat="49.37414" lon="-1.73286">
        <ele>60.4</ele>
        <time>2020-06-12T07:27:32Z</time>
      </trkpt>
      <trkpt lat="49.37419" lon="-1.73294">
        <ele>60.3</ele>
        <time>2020-06-12T07:27:33Z</time>
      </trkpt>
      <trkpt lat="49.37424" lon="-1.73302">
        <ele>60.1</ele>
        <time>2020-06-12T07:27:34Z</time>
      </trkpt>
      <trkpt lat="49.37429" lon="-1.73311">
        <ele>60</ele>
        <time>2020-06-12T07:27:35Z</time>
      </trkpt>
      <trkpt lat="49.37434" lon="-1.73319">
        <ele>59.8</ele>
        <time>2020-06-12T07:27:36Z</time>
      </trkpt>
      <trkpt lat="49.37438" lon="-1.73327">
        <ele>59.6</ele>
        <time>2020-06-12T07:27:37Z</time>
      </trkpt>
      <trkpt lat="49.37443" lon="-1.73335">
        <ele>59.5</ele>
        <time>2020-06-12T07:27:38Z</time>
      </trkpt>
      <trkpt lat="49.37449" lon="-1.73343">
        <ele>59.4</ele>
        <time>2020-06-12T07:27:39Z</time>
      </trkpt>
      <trkpt lat="49.37453" lon="-1.73352">
        <ele>59.2</ele>
        <time>2020-06-12T07:27:40Z</time>
      </trkpt>
      <trkpt lat="49.3746" lon="-1.73359">
        <ele>59.1</ele>
        <time>2020-06-12T07:27:41Z</time>
      </trkpt>
      <trkpt lat="49.37466" lon="-1.73367">
        <ele>59</ele>
        <time>2020-06-12T07:27:42Z</time>
      </trkpt>
      <trkpt lat="49.37471" lon="-1.73375">
        <ele>59</ele>
        <time>2020-06-12T07:27:43Z</time>
      </trkpt>
      <trkpt lat="49.37476" lon="-1.73383">
        <ele>58.9</ele>
        <time>2020-06-12T07:27:44Z</time>
      </trkpt>
      <trkpt lat="49.37481" lon="-1.7339">
        <ele>58.8</ele>
        <time>2020-06-12T07:27:45Z</time>
      </trkpt>
      <trkpt lat="49.37487" lon="-1.73398">
        <ele>58.7</ele>
        <time>2020-06-12T07:27:46Z</time>
      </trkpt>
      <trkpt lat="49.37492" lon="-1.73406">
        <ele>58.6</ele>
        <time>2020-06-12T07:27:47Z</time>
      </trkpt>
      <trkpt lat="49.37496" lon="-1.73414">
        <ele>58.5</ele>
        <time>2020-06-12T07:27:48Z</time>
      </trkpt>
      <trkpt lat="49.37501" lon="-1.73422">
        <ele>58.4</ele>
        <time>2020-06-12T07:27:49Z</time>
      </trkpt>
      <trkpt lat="49.37506" lon="-1.73429">
        <ele>58.3</ele>
        <time>2020-06-12T07:27:50Z</time>
      </trkpt>
      <trkpt lat="49.37511" lon="-1.73438">
        <ele>58.2</ele>
        <time>2020-06-12T07:27:51Z</time>
      </trkpt>
      <trkpt lat="49.37516" lon="-1.73446">
        <ele>58.1</ele>
        <time>2020-06-12T07:27:52Z</time>
      </trkpt>
      <trkpt lat="49.37521" lon="-1.73455">
        <ele>58</ele>
        <time>2020-06-12T07:27:53Z</time>
      </trkpt>
      <trkpt lat="49.37526" lon="-1.73462">
        <ele>57.8</ele>
        <time>2020-06-12T07:27:54Z</time>
      </trkpt>
      <trkpt lat="49.37532" lon="-1.73469">
        <ele>57.7</ele>
        <time>2020-06-12T07:27:55Z</time>
      </trkpt>
      <trkpt lat="49.37537" lon="-1.73477">
        <ele>57.6</ele>
        <time>2020-06-12T07:27:56Z</time>
      </trkpt>
      <trkpt lat="49.37542" lon="-1.73486">
        <ele>57.6</ele>
        <time>2020-06-12T07:27:57Z</time>
      </trkpt>
      <trkpt lat="49.37547" lon="-1.73494">
        <ele>57.5</ele>
        <time>2020-06-12T07:27:58Z</time>
      </trkpt>
      <trkpt lat="49.37552" lon="-1.73503">
        <ele>57.3</ele>
        <time>2020-06-12T07:27:59Z</time>
      </trkpt>
      <trkpt lat="49.37557" lon="-1.73511">
        <ele>57.2</ele>
        <time>2020-06-12T07:28:00Z</time>
      </trkpt>
      <trkpt lat="49.37561" lon="-1.73519">
        <ele>57.1</ele>
        <time>2020-06-12T07:28:01Z</time>
      </trkpt>
      <trkpt lat="49.37565" lon="-1.73528">
        <ele>57</ele>
        <time>2020-06-12T07:28:02Z</time>
      </trkpt>
      <trkpt lat="49.3757" lon="-1.73537">
        <ele>56.8</ele>
        <time>2020-06-12T07:28:03Z</time>
      </trkpt>
      <trkpt lat="49.37575" lon="-1.73546">
        <ele>56.7</ele>
        <time>2020-06-12T07:28:04Z</time>
      </trkpt>
      <trkpt lat="49.3758" lon="-1.73554">
        <ele>56.6</ele>
        <time>2020-06-12T07:28:05Z</time>
      </trkpt>
      <trkpt lat="49.37586" lon="-1.73563">
        <ele>56.6</ele>
        <time>2020-06-12T07:28:06Z</time>
      </trkpt>
      <trkpt lat="49.3759" lon="-1.73571">
        <ele>56.5</ele>
        <time>2020-06-12T07:28:07Z</time>
      </trkpt>
      <trkpt lat="49.37595" lon="-1.73581">
        <ele>56.3</ele>
        <time>2020-06-12T07:28:08Z</time>
      </trkpt>
      <trkpt lat="49.37599" lon="-1.7359">
        <ele>56.2</ele>
        <time>2020-06-12T07:28:09Z</time>
      </trkpt>
      <trkpt lat="49.37604" lon="-1.73598">
        <ele>56.1</ele>
        <time>2020-06-12T07:28:10Z</time>
      </trkpt>
      <trkpt lat="49.37608" lon="-1.73608">
        <ele>56.1</ele>
        <time>2020-06-12T07:28:11Z</time>
      </trkpt>
      <trkpt lat="49.37612" lon="-1.73617">
        <ele>56</ele>
        <time>2020-06-12T07:28:12Z</time>
      </trkpt>
      <trkpt lat="49.37618" lon="-1.73625">
        <ele>56</ele>
        <time>2020-06-12T07:28:13Z</time>
      </trkpt>
      <trkpt lat="49.37623" lon="-1.73633">
        <ele>55.9</ele>
        <time>2020-06-12T07:28:14Z</time>
      </trkpt>
      <trkpt lat="49.37627" lon="-1.73643">
        <ele>55.8</ele>
        <time>2020-06-12T07:28:15Z</time>
      </trkpt>
      <trkpt lat="49.37632" lon="-1.73652">
        <ele>55.7</ele>
        <time>2020-06-12T07:28:16Z</time>
      </trkpt>
      <trkpt lat="49.37636" lon="-1.73661">
        <ele>55.6</ele>
        <time>2020-06-12T07:28:17Z</time>
      </trkpt>
      <trkpt lat="49.37641" lon="-1.73669">
        <ele>55.5</ele>
        <time>2020-06-12T07:28:18Z</time>
      </trkpt>
      <trkpt lat="49.37645" lon="-1.73678">
        <ele>55.3</ele>
        <time>2020-06-12T07:28:19Z</time>
      </trkpt>
      <trkpt lat="49.37649" lon="-1.73687">
        <ele>55.2</ele>
        <time>2020-06-12T07:28:20Z</time>
      </trkpt>
      <trkpt lat="49.37654" lon="-1.73697">
        <ele>55.1</ele>
        <time>2020-06-12T07:28:21Z</time>
      </trkpt>
      <trkpt lat="49.37658" lon="-1.73705">
        <ele>55</ele>
        <time>2020-06-12T07:28:22Z</time>
      </trkpt>
      <trkpt lat="49.37662" lon="-1.73713">
        <ele>54.9</ele>
        <time>2020-06-12T07:28:23Z</time>
      </trkpt>
      <trkpt lat="49.37666" lon="-1.73721">
        <ele>54.8</ele>
        <time>2020-06-12T07:28:24Z</time>
      </trkpt>
      <trkpt lat="49.37669" lon="-1.7373">
        <ele>54.7</ele>
        <time>2020-06-12T07:28:25Z</time>
      </trkpt>
      <trkpt lat="49.37673" lon="-1.73738">
        <ele>54.7</ele>
        <time>2020-06-12T07:28:26Z</time>
      </trkpt>
      <trkpt lat="49.37678" lon="-1.73747">
        <ele>54.6</ele>
        <time>2020-06-12T07:28:27Z</time>
      </trkpt>
      <trkpt lat="49.37681" lon="-1.73754">
        <ele>54.5</ele>
        <time>2020-06-12T07:28:28Z</time>
      </trkpt>
      <trkpt lat="49.37683" lon="-1.73762">
        <ele>54.5</ele>
        <time>2020-06-12T07:28:29Z</time>
      </trkpt>
      <trkpt lat="49.37686" lon="-1.73771">
        <ele>54.4</ele>
        <time>2020-06-12T07:28:30Z</time>
      </trkpt>
      <trkpt lat="49.37689" lon="-1.73778">
        <ele>54.3</ele>
        <time>2020-06-12T07:28:31Z</time>
      </trkpt>
      <trkpt lat="49.37692" lon="-1.73785">
        <ele>54.2</ele>
        <time>2020-06-12T07:28:32Z</time>
      </trkpt>
      <trkpt lat="49.37695" lon="-1.73793">
        <ele>54.2</ele>
        <time>2020-06-12T07:28:33Z</time>
      </trkpt>
      <trkpt lat="49.37699" lon="-1.73802">
        <ele>54.1</ele>
        <time>2020-06-12T07:28:34Z</time>
      </trkpt>
      <trkpt lat="49.37701" lon="-1.7381">
        <ele>54</ele>
        <time>2020-06-12T07:28:35Z</time>
      </trkpt>
      <trkpt lat="49.37704" lon="-1.73817">
        <ele>53.9</ele>
        <time>2020-06-12T07:28:36Z</time>
      </trkpt>
      <trkpt lat="49.37707" lon="-1.73825">
        <ele>53.9</ele>
        <time>2020-06-12T07:28:37Z</time>
      </trkpt>
      <trkpt lat="49.3771" lon="-1.73832">
        <ele>53.8</ele>
        <time>2020-06-12T07:28:38Z</time>
      </trkpt>
      <trkpt lat="49.37712" lon="-1.7384">
        <ele>53.7</ele>
        <time>2020-06-12T07:28:39Z</time>
      </trkpt>
      <trkpt lat="49.37715" lon="-1.73847">
        <ele>53.6</ele>
        <time>2020-06-12T07:28:40Z</time>
      </trkpt>
      <trkpt lat="49.37718" lon="-1.73855">
        <ele>53.6</ele>
        <time>2020-06-12T07:28:41Z</time>
      </trkpt>
      <trkpt lat="49.37721" lon="-1.73862">
        <ele>53.5</ele>
        <time>2020-06-12T07:28:42Z</time>
      </trkpt>
      <trkpt lat="49.37723" lon="-1.7387">
        <ele>53.4</ele>
        <time>2020-06-12T07:28:43Z</time>
      </trkpt>
      <trkpt lat="49.37725" lon="-1.73877">
        <ele>53.4</ele>
        <time>2020-06-12T07:28:44Z</time>
      </trkpt>
      <trkpt lat="49.37727" lon="-1.73886">
        <ele>53.3</ele>
        <time>2020-06-12T07:28:45Z</time>
      </trkpt>
      <trkpt lat="49.37729" lon="-1.73895">
        <ele>53.2</ele>
        <time>2020-06-12T07:28:46Z</time>
      </trkpt>
      <trkpt lat="49.37732" lon="-1.73904">
        <ele>53.2</ele>
        <time>2020-06-12T07:28:47Z</time>
      </trkpt>
      <trkpt lat="49.37736" lon="-1.73913">
        <ele>53.1</ele>
        <time>2020-06-12T07:28:48Z</time>
      </trkpt>
      <trkpt lat="49.37739" lon="-1.73922">
        <ele>53.1</ele>
        <time>2020-06-12T07:28:49Z</time>
      </trkpt>
      <trkpt lat="49.37743" lon="-1.7393">
        <ele>53.1</ele>
        <time>2020-06-12T07:28:50Z</time>
      </trkpt>
      <trkpt lat="49.37746" lon="-1.73939">
        <ele>53.1</ele>
        <time>2020-06-12T07:28:51Z</time>
      </trkpt>
      <trkpt lat="49.37748" lon="-1.73948">
        <ele>53</ele>
        <time>2020-06-12T07:28:52Z</time>
      </trkpt>
      <trkpt lat="49.37751" lon="-1.73958">
        <ele>53</ele>
        <time>2020-06-12T07:28:53Z</time>
      </trkpt>
      <trkpt lat="49.37754" lon="-1.73967">
        <ele>52.9</ele>
        <time>2020-06-12T07:28:54Z</time>
      </trkpt>
      <trkpt lat="49.37757" lon="-1.73976">
        <ele>52.8</ele>
        <time>2020-06-12T07:28:55Z</time>
      </trkpt>
      <trkpt lat="49.37762" lon="-1.73986">
        <ele>52.7</ele>
        <time>2020-06-12T07:28:56Z</time>
      </trkpt>
      <trkpt lat="49.37765" lon="-1.73995">
        <ele>52.6</ele>
        <time>2020-06-12T07:28:57Z</time>
      </trkpt>
      <trkpt lat="49.37767" lon="-1.74004">
        <ele>52.6</ele>
        <time>2020-06-12T07:28:58Z</time>
      </trkpt>
      <trkpt lat="49.3777" lon="-1.74013">
        <ele>52.5</ele>
        <time>2020-06-12T07:28:59Z</time>
      </trkpt>
      <trkpt lat="49.37771" lon="-1.74024">
        <ele>52.4</ele>
        <time>2020-06-12T07:29:00Z</time>
      </trkpt>
      <trkpt lat="49.37774" lon="-1.74034">
        <ele>52.4</ele>
        <time>2020-06-12T07:29:01Z</time>
      </trkpt>
      <trkpt lat="49.37777" lon="-1.74044">
        <ele>52.4</ele>
        <time>2020-06-12T07:29:02Z</time>
      </trkpt>
      <trkpt lat="49.3778" lon="-1.74053">
        <ele>52.4</ele>
        <time>2020-06-12T07:29:03Z</time>
      </trkpt>
      <trkpt lat="49.37783" lon="-1.74062">
        <ele>52</ele>
        <time>2020-06-12T07:29:04Z</time>
      </trkpt>
      <trkpt lat="49.37786" lon="-1.7407">
        <ele>51.7</ele>
        <time>2020-06-12T07:29:05Z</time>
      </trkpt>
      <trkpt lat="49.3779" lon="-1.7408">
        <ele>51.5</ele>
        <time>2020-06-12T07:29:06Z</time>
      </trkpt>
      <trkpt lat="49.37793" lon="-1.74089">
        <ele>51.2</ele>
        <time>2020-06-12T07:29:07Z</time>
      </trkpt>
      <trkpt lat="49.37796" lon="-1.74098">
        <ele>51.1</ele>
        <time>2020-06-12T07:29:08Z</time>
      </trkpt>
      <trkpt lat="49.378" lon="-1.74107">
        <ele>50.9</ele>
        <time>2020-06-12T07:29:09Z</time>
      </trkpt>
      <trkpt lat="49.37803" lon="-1.74116">
        <ele>50.8</ele>
        <time>2020-06-12T07:29:10Z</time>
      </trkpt>
      <trkpt lat="49.37807" lon="-1.74124">
        <ele>50.7</ele>
        <time>2020-06-12T07:29:11Z</time>
      </trkpt>
      <trkpt lat="49.3781" lon="-1.74133">
        <ele>50.6</ele>
        <time>2020-06-12T07:29:12Z</time>
      </trkpt>
      <trkpt lat="49.37814" lon="-1.74142">
        <ele>50.6</ele>
        <time>2020-06-12T07:29:13Z</time>
      </trkpt>
      <trkpt lat="49.37818" lon="-1.7415">
        <ele>50.6</ele>
        <time>2020-06-12T07:29:14Z</time>
      </trkpt>
      <trkpt lat="49.37821" lon="-1.74158">
        <ele>50.5</ele>
        <time>2020-06-12T07:29:15Z</time>
      </trkpt>
      <trkpt lat="49.37825" lon="-1.74166">
        <ele>50.5</ele>
        <time>2020-06-12T07:29:16Z</time>
      </trkpt>
      <trkpt lat="49.37828" lon="-1.74173">
        <ele>50.5</ele>
        <time>2020-06-12T07:29:17Z</time>
      </trkpt>
      <trkpt lat="49.37832" lon="-1.74179">
        <ele>50.5</ele>
        <time>2020-06-12T07:29:18Z</time>
      </trkpt>
      <trkpt lat="49.37835" lon="-1.74185">
        <ele>50.5</ele>
        <time>2020-06-12T07:29:19Z</time>
      </trkpt>
      <trkpt lat="49.3784" lon="-1.74192">
        <ele>50.6</ele>
        <time>2020-06-12T07:29:20Z</time>
      </trkpt>
      <trkpt lat="49.37844" lon="-1.74198">
        <ele>50.6</ele>
        <time>2020-06-12T07:29:21Z</time>
      </trkpt>
      <trkpt lat="49.37849" lon="-1.74206">
        <ele>50.7</ele>
        <time>2020-06-12T07:29:22Z</time>
      </trkpt>
      <trkpt lat="49.37853" lon="-1.74213">
        <ele>50.8</ele>
        <time>2020-06-12T07:29:23Z</time>
      </trkpt>
      <trkpt lat="49.37856" lon="-1.74221">
        <ele>50.9</ele>
        <time>2020-06-12T07:29:24Z</time>
      </trkpt>
      <trkpt lat="49.37858" lon="-1.74228">
        <ele>50.9</ele>
        <time>2020-06-12T07:29:25Z</time>
      </trkpt>
      <trkpt lat="49.37857" lon="-1.74235">
        <ele>51</ele>
        <time>2020-06-12T07:29:26Z</time>
      </trkpt>
      <trkpt lat="49.37855" lon="-1.74242">
        <ele>51</ele>
        <time>2020-06-12T07:29:27Z</time>
      </trkpt>
      <trkpt lat="49.37851" lon="-1.74248">
        <ele>51</ele>
        <time>2020-06-12T07:29:28Z</time>
      </trkpt>
      <trkpt lat="49.37845" lon="-1.74254">
        <ele>51</ele>
        <time>2020-06-12T07:29:29Z</time>
      </trkpt>
      <trkpt lat="49.3784" lon="-1.74255">
        <ele>51</ele>
        <time>2020-06-12T07:29:30Z</time>
      </trkpt>
      <trkpt lat="49.37836" lon="-1.74258">
        <ele>51</ele>
        <time>2020-06-12T07:29:31Z</time>
      </trkpt>
      <trkpt lat="49.37831" lon="-1.74261">
        <ele>50.9</ele>
        <time>2020-06-12T07:29:32Z</time>
      </trkpt>
      <trkpt lat="49.37826" lon="-1.74265">
        <ele>50.8</ele>
        <time>2020-06-12T07:29:33Z</time>
      </trkpt>
      <trkpt lat="49.37822" lon="-1.7427">
        <ele>50.7</ele>
        <time>2020-06-12T07:29:34Z</time>
      </trkpt>
      <trkpt lat="49.37818" lon="-1.74276">
        <ele>50.6</ele>
        <time>2020-06-12T07:29:35Z</time>
      </trkpt>
      <trkpt lat="49.37815" lon="-1.74284">
        <ele>50.5</ele>
        <time>2020-06-12T07:29:36Z</time>
      </trkpt>
      <trkpt lat="49.37814" lon="-1.74291">
        <ele>50.5</ele>
        <time>2020-06-12T07:29:37Z</time>
      </trkpt>
      <trkpt lat="49.37814" lon="-1.74298">
        <ele>50.5</ele>
        <time>2020-06-12T07:29:38Z</time>
      </trkpt>
      <trkpt lat="49.37814" lon="-1.74306">
        <ele>50.5</ele>
        <time>2020-06-12T07:29:39Z</time>
      </trkpt>
      <trkpt lat="49.37815" lon="-1.74316">
        <ele>50.5</ele>
        <time>2020-06-12T07:29:40Z</time>
      </trkpt>
      <trkpt lat="49.37816" lon="-1.74325">
        <ele>50.5</ele>
        <time>2020-06-12T07:29:41Z</time>
      </trkpt>
      <trkpt lat="49.37817" lon="-1.74333">
        <ele>50.5</ele>
        <time>2020-06-12T07:29:42Z</time>
      </trkpt>
      <trkpt lat="49.37818" lon="-1.74341">
        <ele>50.5</ele>
        <time>2020-06-12T07:29:43Z</time>
      </trkpt>
      <trkpt lat="49.3782" lon="-1.74349">
        <ele>50.5</ele>
        <time>2020-06-12T07:29:44Z</time>
      </trkpt>
      <trkpt lat="49.37822" lon="-1.74357">
        <ele>50.5</ele>
        <time>2020-06-12T07:29:45Z</time>
      </trkpt>
      <trkpt lat="49.37825" lon="-1.74366">
        <ele>50.5</ele>
        <time>2020-06-12T07:29:46Z</time>
      </trkpt>
      <trkpt lat="49.37827" lon="-1.74375">
        <ele>50.5</ele>
        <time>2020-06-12T07:29:47Z</time>
      </trkpt>
      <trkpt lat="49.3783" lon="-1.74384">
        <ele>50.5</ele>
        <time>2020-06-12T07:29:48Z</time>
      </trkpt>
      <trkpt lat="49.37831" lon="-1.74392">
        <ele>50.4</ele>
        <time>2020-06-12T07:29:49Z</time>
      </trkpt>
      <trkpt lat="49.37833" lon="-1.744">
        <ele>50.4</ele>
        <time>2020-06-12T07:29:50Z</time>
      </trkpt>
      <trkpt lat="49.37835" lon="-1.74408">
        <ele>50.4</ele>
        <time>2020-06-12T07:29:51Z</time>
      </trkpt>
      <trkpt lat="49.37837" lon="-1.74419">
        <ele>50.4</ele>
        <time>2020-06-12T07:29:52Z</time>
      </trkpt>
      <trkpt lat="49.37839" lon="-1.74428">
        <ele>50.4</ele>
        <time>2020-06-12T07:29:53Z</time>
      </trkpt>
      <trkpt lat="49.37841" lon="-1.74438">
        <ele>50.4</ele>
        <time>2020-06-12T07:29:54Z</time>
      </trkpt>
      <trkpt lat="49.37842" lon="-1.74447">
        <ele>50.4</ele>
        <time>2020-06-12T07:29:55Z</time>
      </trkpt>
      <trkpt lat="49.37843" lon="-1.74458">
        <ele>50.4</ele>
        <time>2020-06-12T07:29:56Z</time>
      </trkpt>
      <trkpt lat="49.37844" lon="-1.74468">
        <ele>50.5</ele>
        <time>2020-06-12T07:29:57Z</time>
      </trkpt>
      <trkpt lat="49.37845" lon="-1.74477">
        <ele>50.6</ele>
        <time>2020-06-12T07:29:58Z</time>
      </trkpt>
      <trkpt lat="49.37846" lon="-1.74486">
        <ele>50.6</ele>
        <time>2020-06-12T07:29:59Z</time>
      </trkpt>
      <trkpt lat="49.37848" lon="-1.74497">
        <ele>50.6</ele>
        <time>2020-06-12T07:30:00Z</time>
      </trkpt>
      <trkpt lat="49.37849" lon="-1.74508">
        <ele>50.5</ele>
        <time>2020-06-12T07:30:01Z</time>
      </trkpt>
      <trkpt lat="49.3785" lon="-1.74518">
        <ele>50.4</ele>
        <time>2020-06-12T07:30:02Z</time>
      </trkpt>
      <trkpt lat="49.37851" lon="-1.74527">
        <ele>50.3</ele>
        <time>2020-06-12T07:30:03Z</time>
      </trkpt>
      <trkpt lat="49.37852" lon="-1.74538">
        <ele>50.2</ele>
        <time>2020-06-12T07:30:04Z</time>
      </trkpt>
      <trkpt lat="49.37854" lon="-1.74549">
        <ele>50.1</ele>
        <time>2020-06-12T07:30:05Z</time>
      </trkpt>
      <trkpt lat="49.37857" lon="-1.74559">
        <ele>50.1</ele>
        <time>2020-06-12T07:30:06Z</time>
      </trkpt>
      <trkpt lat="49.3786" lon="-1.74569">
        <ele>50</ele>
        <time>2020-06-12T07:30:07Z</time>
      </trkpt>
      <trkpt lat="49.37862" lon="-1.74579">
        <ele>50</ele>
        <time>2020-06-12T07:30:08Z</time>
      </trkpt>
      <trkpt lat="49.37865" lon="-1.74588">
        <ele>50</ele>
        <time>2020-06-12T07:30:09Z</time>
      </trkpt>
      <trkpt lat="49.37868" lon="-1.74597">
        <ele>50</ele>
        <time>2020-06-12T07:30:10Z</time>
      </trkpt>
      <trkpt lat="49.37871" lon="-1.74605">
        <ele>50</ele>
        <time>2020-06-12T07:30:11Z</time>
      </trkpt>
      <trkpt lat="49.37874" lon="-1.74615">
        <ele>50</ele>
        <time>2020-06-12T07:30:12Z</time>
      </trkpt>
      <trkpt lat="49.37876" lon="-1.74623">
        <ele>50</ele>
        <time>2020-06-12T07:30:13Z</time>
      </trkpt>
      <trkpt lat="49.3788" lon="-1.74631">
        <ele>49.9</ele>
        <time>2020-06-12T07:30:14Z</time>
      </trkpt>
      <trkpt lat="49.37883" lon="-1.74638">
        <ele>49.8</ele>
        <time>2020-06-12T07:30:15Z</time>
      </trkpt>
      <trkpt lat="49.37887" lon="-1.74646">
        <ele>49.7</ele>
        <time>2020-06-12T07:30:16Z</time>
      </trkpt>
      <trkpt lat="49.37891" lon="-1.74655">
        <ele>49.6</ele>
        <time>2020-06-12T07:30:17Z</time>
      </trkpt>
      <trkpt lat="49.37895" lon="-1.74664">
        <ele>49.6</ele>
        <time>2020-06-12T07:30:18Z</time>
      </trkpt>
      <trkpt lat="49.37899" lon="-1.74672">
        <ele>49.5</ele>
        <time>2020-06-12T07:30:19Z</time>
      </trkpt>
      <trkpt lat="49.37902" lon="-1.7468">
        <ele>49.4</ele>
        <time>2020-06-12T07:30:20Z</time>
      </trkpt>
      <trkpt lat="49.37906" lon="-1.74687">
        <ele>49.4</ele>
        <time>2020-06-12T07:30:21Z</time>
      </trkpt>
      <trkpt lat="49.3791" lon="-1.74695">
        <ele>49.3</ele>
        <time>2020-06-12T07:30:22Z</time>
      </trkpt>
      <trkpt lat="49.37913" lon="-1.74703">
        <ele>49.3</ele>
        <time>2020-06-12T07:30:23Z</time>
      </trkpt>
      <trkpt lat="49.37916" lon="-1.7471">
        <ele>49.3</ele>
        <time>2020-06-12T07:30:24Z</time>
      </trkpt>
      <trkpt lat="49.3792" lon="-1.74718">
        <ele>49.2</ele>
        <time>2020-06-12T07:30:25Z</time>
      </trkpt>
      <trkpt lat="49.37923" lon="-1.74726">
        <ele>49.2</ele>
        <time>2020-06-12T07:30:26Z</time>
      </trkpt>
      <trkpt lat="49.37928" lon="-1.74732">
        <ele>49.2</ele>
        <time>2020-06-12T07:30:27Z</time>
      </trkpt>
      <trkpt lat="49.37932" lon="-1.7474">
        <ele>49.2</ele>
        <time>2020-06-12T07:30:28Z</time>
      </trkpt>
      <trkpt lat="49.37935" lon="-1.74747">
        <ele>49.1</ele>
        <time>2020-06-12T07:30:29Z</time>
      </trkpt>
      <trkpt lat="49.37938" lon="-1.74753">
        <ele>49</ele>
        <time>2020-06-12T07:30:30Z</time>
      </trkpt>
      <trkpt lat="49.37941" lon="-1.74758">
        <ele>49</ele>
        <time>2020-06-12T07:30:31Z</time>
      </trkpt>
      <trkpt lat="49.37944" lon="-1.74764">
        <ele>48.9</ele>
        <time>2020-06-12T07:30:32Z</time>
      </trkpt>
      <trkpt lat="49.37948" lon="-1.74771">
        <ele>48.8</ele>
        <time>2020-06-12T07:30:33Z</time>
      </trkpt>
      <trkpt lat="49.37953" lon="-1.74777">
        <ele>48.8</ele>
        <time>2020-06-12T07:30:34Z</time>
      </trkpt>
      <trkpt lat="49.37958" lon="-1.74785">
        <ele>48.6</ele>
        <time>2020-06-12T07:30:35Z</time>
      </trkpt>
      <trkpt lat="49.37962" lon="-1.74792">
        <ele>48.5</ele>
        <time>2020-06-12T07:30:36Z</time>
      </trkpt>
      <trkpt lat="49.37965" lon="-1.74799">
        <ele>48.4</ele>
        <time>2020-06-12T07:30:37Z</time>
      </trkpt>
      <trkpt lat="49.37968" lon="-1.74805">
        <ele>48.2</ele>
        <time>2020-06-12T07:30:38Z</time>
      </trkpt>
      <trkpt lat="49.37971" lon="-1.74812">
        <ele>48.1</ele>
        <time>2020-06-12T07:30:39Z</time>
      </trkpt>
      <trkpt lat="49.37975" lon="-1.7482">
        <ele>47.9</ele>
        <time>2020-06-12T07:30:40Z</time>
      </trkpt>
      <trkpt lat="49.37978" lon="-1.74827">
        <ele>47.8</ele>
        <time>2020-06-12T07:30:41Z</time>
      </trkpt>
      <trkpt lat="49.37983" lon="-1.74835">
        <ele>47.6</ele>
        <time>2020-06-12T07:30:42Z</time>
      </trkpt>
      <trkpt lat="49.37987" lon="-1.74841">
        <ele>47.3</ele>
        <time>2020-06-12T07:30:43Z</time>
      </trkpt>
      <trkpt lat="49.37992" lon="-1.7485">
        <ele>46.9</ele>
        <time>2020-06-12T07:30:44Z</time>
      </trkpt>
      <trkpt lat="49.37997" lon="-1.74858">
        <ele>46.6</ele>
        <time>2020-06-12T07:30:45Z</time>
      </trkpt>
      <trkpt lat="49.38001" lon="-1.74868">
        <ele>46.2</ele>
        <time>2020-06-12T07:30:46Z</time>
      </trkpt>
      <trkpt lat="49.38006" lon="-1.74877">
        <ele>45.7</ele>
        <time>2020-06-12T07:30:47Z</time>
      </trkpt>
      <trkpt lat="49.3801" lon="-1.74886">
        <ele>45.3</ele>
        <time>2020-06-12T07:30:48Z</time>
      </trkpt>
      <trkpt lat="49.38015" lon="-1.74894">
        <ele>44.9</ele>
        <time>2020-06-12T07:30:49Z</time>
      </trkpt>
      <trkpt lat="49.38019" lon="-1.74904">
        <ele>44.5</ele>
        <time>2020-06-12T07:30:50Z</time>
      </trkpt>
      <trkpt lat="49.38024" lon="-1.74913">
        <ele>44.1</ele>
        <time>2020-06-12T07:30:51Z</time>
      </trkpt>
      <trkpt lat="49.3803" lon="-1.74922">
        <ele>43.7</ele>
        <time>2020-06-12T07:30:52Z</time>
      </trkpt>
      <trkpt lat="49.38034" lon="-1.74932">
        <ele>43.3</ele>
        <time>2020-06-12T07:30:53Z</time>
      </trkpt>
      <trkpt lat="49.38039" lon="-1.74941">
        <ele>43</ele>
        <time>2020-06-12T07:30:54Z</time>
      </trkpt>
      <trkpt lat="49.38044" lon="-1.74951">
        <ele>42.6</ele>
        <time>2020-06-12T07:30:55Z</time>
      </trkpt>
      <trkpt lat="49.38049" lon="-1.7496">
        <ele>42.2</ele>
        <time>2020-06-12T07:30:56Z</time>
      </trkpt>
      <trkpt lat="49.38053" lon="-1.74969">
        <ele>41.5</ele>
        <time>2020-06-12T07:30:57Z</time>
      </trkpt>
      <trkpt lat="49.38057" lon="-1.74979">
        <ele>41</ele>
        <time>2020-06-12T07:30:58Z</time>
      </trkpt>
      <trkpt lat="49.3806" lon="-1.74989">
        <ele>40.7</ele>
        <time>2020-06-12T07:30:59Z</time>
      </trkpt>
      <trkpt lat="49.38064" lon="-1.74998">
        <ele>40.3</ele>
        <time>2020-06-12T07:31:00Z</time>
      </trkpt>
      <trkpt lat="49.38067" lon="-1.75008">
        <ele>39.9</ele>
        <time>2020-06-12T07:31:01Z</time>
      </trkpt>
      <trkpt lat="49.3807" lon="-1.75018">
        <ele>39.6</ele>
        <time>2020-06-12T07:31:02Z</time>
      </trkpt>
      <trkpt lat="49.38073" lon="-1.75028">
        <ele>39.3</ele>
        <time>2020-06-12T07:31:03Z</time>
      </trkpt>
      <trkpt lat="49.38076" lon="-1.75038">
        <ele>39.1</ele>
        <time>2020-06-12T07:31:04Z</time>
      </trkpt>
      <trkpt lat="49.38079" lon="-1.75047">
        <ele>38.9</ele>
        <time>2020-06-12T07:31:05Z</time>
      </trkpt>
      <trkpt lat="49.38081" lon="-1.75057">
        <ele>38.8</ele>
        <time>2020-06-12T07:31:06Z</time>
      </trkpt>
      <trkpt lat="49.38083" lon="-1.75067">
        <ele>38.6</ele>
        <time>2020-06-12T07:31:07Z</time>
      </trkpt>
      <trkpt lat="49.38086" lon="-1.75077">
        <ele>38.6</ele>
        <time>2020-06-12T07:31:08Z</time>
      </trkpt>
      <trkpt lat="49.38089" lon="-1.75086">
        <ele>38.2</ele>
        <time>2020-06-12T07:31:09Z</time>
      </trkpt>
      <trkpt lat="49.38092" lon="-1.75095">
        <ele>37.9</ele>
        <time>2020-06-12T07:31:10Z</time>
      </trkpt>
      <trkpt lat="49.38095" lon="-1.75104">
        <ele>37.6</ele>
        <time>2020-06-12T07:31:11Z</time>
      </trkpt>
      <trkpt lat="49.38096" lon="-1.75112">
        <ele>37.3</ele>
        <time>2020-06-12T07:31:12Z</time>
      </trkpt>
      <trkpt lat="49.38098" lon="-1.75121">
        <ele>37</ele>
        <time>2020-06-12T07:31:13Z</time>
      </trkpt>
      <trkpt lat="49.381" lon="-1.7513">
        <ele>36.6</ele>
        <time>2020-06-12T07:31:14Z</time>
      </trkpt>
      <trkpt lat="49.38102" lon="-1.7514">
        <ele>36.3</ele>
        <time>2020-06-12T07:31:15Z</time>
      </trkpt>
      <trkpt lat="49.38104" lon="-1.75149">
        <ele>36</ele>
        <time>2020-06-12T07:31:16Z</time>
      </trkpt>
      <trkpt lat="49.38106" lon="-1.75157">
        <ele>35.6</ele>
        <time>2020-06-12T07:31:17Z</time>
      </trkpt>
      <trkpt lat="49.38106" lon="-1.75166">
        <ele>35.4</ele>
        <time>2020-06-12T07:31:18Z</time>
      </trkpt>
      <trkpt lat="49.38106" lon="-1.75173">
        <ele>35.3</ele>
        <time>2020-06-12T07:31:19Z</time>
      </trkpt>
      <trkpt lat="49.38107" lon="-1.7518">
        <ele>35.2</ele>
        <time>2020-06-12T07:31:20Z</time>
      </trkpt>
      <trkpt lat="49.38108" lon="-1.75187">
        <ele>35</ele>
        <time>2020-06-12T07:31:21Z</time>
      </trkpt>
      <trkpt lat="49.38109" lon="-1.75194">
        <ele>34.8</ele>
        <time>2020-06-12T07:31:22Z</time>
      </trkpt>
      <trkpt lat="49.3811" lon="-1.75201">
        <ele>34.7</ele>
        <time>2020-06-12T07:31:23Z</time>
      </trkpt>
      <trkpt lat="49.38113" lon="-1.75206">
        <ele>34.5</ele>
        <time>2020-06-12T07:31:24Z</time>
      </trkpt>
      <trkpt lat="49.38114" lon="-1.75211">
        <ele>34.4</ele>
        <time>2020-06-12T07:31:25Z</time>
      </trkpt>
      <trkpt lat="49.38116" lon="-1.75215">
        <ele>34.3</ele>
        <time>2020-06-12T07:31:26Z</time>
      </trkpt>
      <trkpt lat="49.38119" lon="-1.75219">
        <ele>34.2</ele>
        <time>2020-06-12T07:31:27Z</time>
      </trkpt>
      <trkpt lat="49.38121" lon="-1.75224">
        <ele>34</ele>
        <time>2020-06-12T07:31:28Z</time>
      </trkpt>
      <trkpt lat="49.38124" lon="-1.75229">
        <ele>33.9</ele>
        <time>2020-06-12T07:31:29Z</time>
      </trkpt>
      <trkpt lat="49.38126" lon="-1.75235">
        <ele>33.8</ele>
        <time>2020-06-12T07:31:30Z</time>
      </trkpt>
      <trkpt lat="49.38128" lon="-1.75239">
        <ele>33.7</ele>
        <time>2020-06-12T07:31:31Z</time>
      </trkpt>
      <trkpt lat="49.38129" lon="-1.75242">
        <ele>33.6</ele>
        <time>2020-06-12T07:31:32Z</time>
      </trkpt>
      <trkpt lat="49.3813" lon="-1.75244">
        <ele>33.6</ele>
        <time>2020-06-12T07:31:33Z</time>
      </trkpt>
      <trkpt lat="49.38132" lon="-1.75243">
        <ele>33.5</ele>
        <time>2020-06-12T07:31:34Z</time>
      </trkpt>
      <trkpt lat="49.38133" lon="-1.75243">
        <ele>33.5</ele>
        <time>2020-06-12T07:31:35Z</time>
      </trkpt>
      <trkpt lat="49.38134" lon="-1.75242">
        <ele>33.3</ele>
        <time>2020-06-12T07:31:36Z</time>
      </trkpt>
      <trkpt lat="49.38137" lon="-1.75241">
        <ele>33.4</ele>
        <time>2020-06-12T07:31:37Z</time>
      </trkpt>
      <trkpt lat="49.38138" lon="-1.75241">
        <ele>33.4</ele>
        <time>2020-06-12T07:31:38Z</time>
      </trkpt>
      <trkpt lat="49.38141" lon="-1.75238">
        <ele>33.4</ele>
        <time>2020-06-12T07:31:39Z</time>
      </trkpt>
      <trkpt lat="49.38144" lon="-1.7524">
        <ele>33.4</ele>
        <time>2020-06-12T07:31:40Z</time>
      </trkpt>
      <trkpt lat="49.38145" lon="-1.75245">
        <ele>33.4</ele>
        <time>2020-06-12T07:31:41Z</time>
      </trkpt>
      <trkpt lat="49.38147" lon="-1.7525">
        <ele>33.3</ele>
        <time>2020-06-12T07:31:42Z</time>
      </trkpt>
      <trkpt lat="49.38149" lon="-1.75256">
        <ele>33.2</ele>
        <time>2020-06-12T07:31:43Z</time>
      </trkpt>
      <trkpt lat="49.3815" lon="-1.75261">
        <ele>33.2</ele>
        <time>2020-06-12T07:31:44Z</time>
      </trkpt>
      <trkpt lat="49.38152" lon="-1.75265">
        <ele>33.2</ele>
        <time>2020-06-12T07:31:45Z</time>
      </trkpt>
      <trkpt lat="49.38154" lon="-1.7527">
        <ele>33.1</ele>
        <time>2020-06-12T07:31:46Z</time>
      </trkpt>
      <trkpt lat="49.38156" lon="-1.75274">
        <ele>33</ele>
        <time>2020-06-12T07:31:47Z</time>
      </trkpt>
      <trkpt lat="49.38157" lon="-1.7528">
        <ele>33</ele>
        <time>2020-06-12T07:31:48Z</time>
      </trkpt>
      <trkpt lat="49.38158" lon="-1.75285">
        <ele>32.9</ele>
        <time>2020-06-12T07:31:49Z</time>
      </trkpt>
      <trkpt lat="49.3816" lon="-1.7529">
        <ele>32.8</ele>
        <time>2020-06-12T07:31:50Z</time>
      </trkpt>
      <trkpt lat="49.38163" lon="-1.75296">
        <ele>32.8</ele>
        <time>2020-06-12T07:31:51Z</time>
      </trkpt>
      <trkpt lat="49.38162" lon="-1.753">
        <ele>32.7</ele>
        <time>2020-06-12T07:31:52Z</time>
      </trkpt>
      <trkpt lat="49.38161" lon="-1.75305">
        <ele>32.7</ele>
        <time>2020-06-12T07:31:53Z</time>
      </trkpt>
      <trkpt lat="49.38159" lon="-1.75309">
        <ele>32.7</ele>
        <time>2020-06-12T07:31:54Z</time>
      </trkpt>
      <trkpt lat="49.38159" lon="-1.75311">
        <ele>32.6</ele>
        <time>2020-06-12T07:31:55Z</time>
      </trkpt>
      <trkpt lat="49.38159" lon="-1.75315">
        <ele>32.6</ele>
        <time>2020-06-12T07:31:56Z</time>
      </trkpt>
      <trkpt lat="49.38158" lon="-1.75321">
        <ele>32.4</ele>
        <time>2020-06-12T07:31:57Z</time>
      </trkpt>
      <trkpt lat="49.38157" lon="-1.75323">
        <ele>32.4</ele>
        <time>2020-06-12T07:31:58Z</time>
      </trkpt>
      <trkpt lat="49.38158" lon="-1.75327">
        <ele>32.4</ele>
        <time>2020-06-12T07:31:59Z</time>
      </trkpt>
      <trkpt lat="49.3816" lon="-1.7533">
        <ele>32.4</ele>
        <time>2020-06-12T07:32:00Z</time>
      </trkpt>
      <trkpt lat="49.38161" lon="-1.75335">
        <ele>32.3</ele>
        <time>2020-06-12T07:32:01Z</time>
      </trkpt>
      <trkpt lat="49.38161" lon="-1.75336">
        <ele>32.3</ele>
        <time>2020-06-12T07:32:02Z</time>
      </trkpt>
      <trkpt lat="49.38162" lon="-1.75338">
        <ele>32.3</ele>
        <time>2020-06-12T07:32:03Z</time>
      </trkpt>
      <trkpt lat="49.38162" lon="-1.75339">
        <ele>32.3</ele>
        <time>2020-06-12T07:32:04Z</time>
      </trkpt>
      <trkpt lat="49.38162" lon="-1.75339">
        <ele>32.3</ele>
        <time>2020-06-12T07:32:05Z</time>
      </trkpt>
      <trkpt lat="49.38162" lon="-1.7534">
        <ele>32.3</ele>
        <time>2020-06-12T07:32:06Z</time>
      </trkpt>
      <trkpt lat="49.38162" lon="-1.7534">
        <ele>32.3</ele>
        <time>2020-06-12T07:32:07Z</time>
      </trkpt>
      <trkpt lat="49.38162" lon="-1.75341">
        <ele>32.3</ele>
        <time>2020-06-12T07:32:08Z</time>
      </trkpt>
      <trkpt lat="49.38161" lon="-1.75342">
        <ele>32.3</ele>
        <time>2020-06-12T07:32:09Z</time>
      </trkpt>
      <trkpt lat="49.3816" lon="-1.75342">
        <ele>32.3</ele>
        <time>2020-06-12T07:32:10Z</time>
      </trkpt>
      <trkpt lat="49.38159" lon="-1.75343">
        <ele>32.3</ele>
        <time>2020-06-12T07:32:11Z</time>
      </trkpt>
      <trkpt lat="49.38159" lon="-1.75344">
        <ele>32.3</ele>
        <time>2020-06-12T07:32:12Z</time>
      </trkpt>
      <trkpt lat="49.38159" lon="-1.75344">
        <ele>32.3</ele>
        <time>2020-06-12T07:32:13Z</time>
      </trkpt>
      <trkpt lat="49.38159" lon="-1.75343">
        <ele>32.2</ele>
        <time>2020-06-12T07:32:14Z</time>
      </trkpt>
      <trkpt lat="49.38159" lon="-1.75343">
        <ele>32.2</ele>
        <time>2020-06-12T07:32:15Z</time>
      </trkpt>
      <trkpt lat="49.38159" lon="-1.75343">
        <ele>32.2</ele>
        <time>2020-06-12T07:32:16Z</time>
      </trkpt>
      <trkpt lat="49.38159" lon="-1.75344">
        <ele>32.2</ele>
        <time>2020-06-12T07:32:17Z</time>
      </trkpt>
      <trkpt lat="49.38159" lon="-1.75344">
        <ele>32.2</ele>
        <time>2020-06-12T07:32:18Z</time>
      </trkpt>
      <trkpt lat="49.38159" lon="-1.75344">
        <ele>32.2</ele>
        <time>2020-06-12T07:32:19Z</time>
      </trkpt>
      <trkpt lat="49.38159" lon="-1.75344">
        <ele>32.2</ele>
        <time>2020-06-12T07:32:20Z</time>
      </trkpt>
      <trkpt lat="49.38159" lon="-1.75345">
        <ele>32.2</ele>
        <time>2020-06-12T07:32:21Z</time>
      </trkpt>
      <trkpt lat="49.38159" lon="-1.75345">
        <ele>32.2</ele>
        <time>2020-06-12T07:32:22Z</time>
      </trkpt>
      <trkpt lat="49.38159" lon="-1.75345">
        <ele>32.2</ele>
        <time>2020-06-12T07:32:23Z</time>
      </trkpt>
      <trkpt lat="49.38176" lon="-1.75338">
        <ele>32</ele>
        <time>2020-06-12T07:36:22Z</time>
      </trkpt>
      <trkpt lat="49.38175" lon="-1.75336">
        <ele>32</ele>
        <time>2020-06-12T07:36:23Z</time>
      </trkpt>
      <trkpt lat="49.38174" lon="-1.75335">
        <ele>32</ele>
        <time>2020-06-12T07:36:24Z</time>
      </trkpt>
      <trkpt lat="49.38173" lon="-1.75334">
        <ele>32</ele>
        <time>2020-06-12T07:36:25Z</time>
      </trkpt>
      <trkpt lat="49.38172" lon="-1.75332">
        <ele>32.1</ele>
        <time>2020-06-12T07:36:26Z</time>
      </trkpt>
      <trkpt lat="49.38172" lon="-1.75331">
        <ele>32.1</ele>
        <time>2020-06-12T07:36:27Z</time>
      </trkpt>
      <trkpt lat="49.38171" lon="-1.75331">
        <ele>32.1</ele>
        <time>2020-06-12T07:36:28Z</time>
      </trkpt>
      <trkpt lat="49.38171" lon="-1.7533">
        <ele>32.1</ele>
        <time>2020-06-12T07:36:29Z</time>
      </trkpt>
      <trkpt lat="49.3817" lon="-1.75328">
        <ele>32.2</ele>
        <time>2020-06-12T07:36:30Z</time>
      </trkpt>
      <trkpt lat="49.38169" lon="-1.75326">
        <ele>32.2</ele>
        <time>2020-06-12T07:36:31Z</time>
      </trkpt>
      <trkpt lat="49.38169" lon="-1.75325">
        <ele>32.2</ele>
        <time>2020-06-12T07:36:32Z</time>
      </trkpt>
      <trkpt lat="49.38168" lon="-1.75323">
        <ele>32.2</ele>
        <time>2020-06-12T07:36:33Z</time>
      </trkpt>
      <trkpt lat="49.38168" lon="-1.75322">
        <ele>32.3</ele>
        <time>2020-06-12T07:36:34Z</time>
      </trkpt>
      <trkpt lat="49.38167" lon="-1.7532">
        <ele>32.3</ele>
        <time>2020-06-12T07:36:35Z</time>
      </trkpt>
      <trkpt lat="49.38168" lon="-1.75318">
        <ele>32.3</ele>
        <time>2020-06-12T07:36:36Z</time>
      </trkpt>
      <trkpt lat="49.38168" lon="-1.75314">
        <ele>32.4</ele>
        <time>2020-06-12T07:36:37Z</time>
      </trkpt>
      <trkpt lat="49.38168" lon="-1.75312">
        <ele>32.4</ele>
        <time>2020-06-12T07:36:38Z</time>
      </trkpt>
      <trkpt lat="49.38168" lon="-1.7531">
        <ele>32.5</ele>
        <time>2020-06-12T07:36:39Z</time>
      </trkpt>
      <trkpt lat="49.38169" lon="-1.75309">
        <ele>32.5</ele>
        <time>2020-06-12T07:36:40Z</time>
      </trkpt>
      <trkpt lat="49.38169" lon="-1.75308">
        <ele>32.5</ele>
        <time>2020-06-12T07:36:41Z</time>
      </trkpt>
      <trkpt lat="49.3817" lon="-1.75306">
        <ele>32.5</ele>
        <time>2020-06-12T07:36:42Z</time>
      </trkpt>
      <trkpt lat="49.38171" lon="-1.75305">
        <ele>32.6</ele>
        <time>2020-06-12T07:36:43Z</time>
      </trkpt>
      <trkpt lat="49.38171" lon="-1.75304">
        <ele>32.6</ele>
        <time>2020-06-12T07:36:44Z</time>
      </trkpt>
      <trkpt lat="49.38171" lon="-1.75303">
        <ele>32.6</ele>
        <time>2020-06-12T07:36:45Z</time>
      </trkpt>
      <trkpt lat="49.38172" lon="-1.75303">
        <ele>32.6</ele>
        <time>2020-06-12T07:36:46Z</time>
      </trkpt>
      <trkpt lat="49.38172" lon="-1.75302">
        <ele>32.6</ele>
        <time>2020-06-12T07:36:47Z</time>
      </trkpt>
      <trkpt lat="49.38172" lon="-1.75301">
        <ele>32.7</ele>
        <time>2020-06-12T07:36:48Z</time>
      </trkpt>
      <trkpt lat="49.38172" lon="-1.753">
        <ele>32.7</ele>
        <time>2020-06-12T07:36:49Z</time>
      </trkpt>
      <trkpt lat="49.38172" lon="-1.75298">
        <ele>32.7</ele>
        <time>2020-06-12T07:36:50Z</time>
      </trkpt>
      <trkpt lat="49.38172" lon="-1.75297">
        <ele>32.7</ele>
        <time>2020-06-12T07:36:51Z</time>
      </trkpt>
      <trkpt lat="49.38171" lon="-1.75294">
        <ele>32.7</ele>
        <time>2020-06-12T07:36:52Z</time>
      </trkpt>
      <trkpt lat="49.38171" lon="-1.75292">
        <ele>32.7</ele>
        <time>2020-06-12T07:36:53Z</time>
      </trkpt>
      <trkpt lat="49.3817" lon="-1.7529">
        <ele>32.8</ele>
        <time>2020-06-12T07:36:54Z</time>
      </trkpt>
      <trkpt lat="49.3817" lon="-1.75288">
        <ele>32.8</ele>
        <time>2020-06-12T07:36:55Z</time>
      </trkpt>
      <trkpt lat="49.38169" lon="-1.75286">
        <ele>32.8</ele>
        <time>2020-06-12T07:36:56Z</time>
      </trkpt>
      <trkpt lat="49.38169" lon="-1.75285">
        <ele>32.8</ele>
        <time>2020-06-12T07:36:57Z</time>
      </trkpt>
      <trkpt lat="49.38168" lon="-1.75285">
        <ele>32.8</ele>
        <time>2020-06-12T07:36:58Z</time>
      </trkpt>
      <trkpt lat="49.38169" lon="-1.75283">
        <ele>32.8</ele>
        <time>2020-06-12T07:36:59Z</time>
      </trkpt>
      <trkpt lat="49.38168" lon="-1.75282">
        <ele>32.9</ele>
        <time>2020-06-12T07:37:00Z</time>
      </trkpt>
      <trkpt lat="49.38168" lon="-1.75282">
        <ele>32.9</ele>
        <time>2020-06-12T07:37:01Z</time>
      </trkpt>
      <trkpt lat="49.38168" lon="-1.75281">
        <ele>32.9</ele>
        <time>2020-06-12T07:37:02Z</time>
      </trkpt>
      <trkpt lat="49.38168" lon="-1.7528">
        <ele>32.9</ele>
        <time>2020-06-12T07:37:03Z</time>
      </trkpt>
      <trkpt lat="49.38167" lon="-1.7528">
        <ele>32.9</ele>
        <time>2020-06-12T07:37:04Z</time>
      </trkpt>
      <trkpt lat="49.38167" lon="-1.7528">
        <ele>32.9</ele>
        <time>2020-06-12T07:37:05Z</time>
      </trkpt>
      <trkpt lat="49.38167" lon="-1.7528">
        <ele>32.9</ele>
        <time>2020-06-12T07:37:06Z</time>
      </trkpt>
      <trkpt lat="49.38166" lon="-1.7528">
        <ele>32.9</ele>
        <time>2020-06-12T07:37:07Z</time>
      </trkpt>
      <trkpt lat="49.38166" lon="-1.7528">
        <ele>32.9</ele>
        <time>2020-06-12T07:37:08Z</time>
      </trkpt>
      <trkpt lat="49.38166" lon="-1.7528">
        <ele>32.9</ele>
        <time>2020-06-12T07:37:09Z</time>
      </trkpt>
      <trkpt lat="49.38166" lon="-1.7528">
        <ele>32.9</ele>
        <time>2020-06-12T07:37:10Z</time>
      </trkpt>
      <trkpt lat="49.38166" lon="-1.7528">
        <ele>32.9</ele>
        <time>2020-06-12T07:37:11Z</time>
      </trkpt>
      <trkpt lat="49.38166" lon="-1.7528">
        <ele>32.9</ele>
        <time>2020-06-12T07:37:12Z</time>
      </trkpt>
      <trkpt lat="49.38166" lon="-1.7528">
        <ele>32.9</ele>
        <time>2020-06-12T07:37:13Z</time>
      </trkpt>
      <trkpt lat="49.38177" lon="-1.75253">
        <ele>33.2</ele>
        <time>2020-06-12T07:41:35Z</time>
      </trkpt>
      <trkpt lat="49.38177" lon="-1.75252">
        <ele>33.2</ele>
        <time>2020-06-12T07:41:36Z</time>
      </trkpt>
      <trkpt lat="49.38176" lon="-1.7525">
        <ele>33.2</ele>
        <time>2020-06-12T07:41:37Z</time>
      </trkpt>
      <trkpt lat="49.38176" lon="-1.75249">
        <ele>33.2</ele>
        <time>2020-06-12T07:41:38Z</time>
      </trkpt>
      <trkpt lat="49.38174" lon="-1.75248">
        <ele>33.3</ele>
        <time>2020-06-12T07:41:39Z</time>
      </trkpt>
      <trkpt lat="49.38171" lon="-1.75246">
        <ele>33.3</ele>
        <time>2020-06-12T07:41:40Z</time>
      </trkpt>
      <trkpt lat="49.3817" lon="-1.75245">
        <ele>33.3</ele>
        <time>2020-06-12T07:41:41Z</time>
      </trkpt>
      <trkpt lat="49.38168" lon="-1.75243">
        <ele>33.3</ele>
        <time>2020-06-12T07:41:42Z</time>
      </trkpt>
      <trkpt lat="49.38167" lon="-1.75242">
        <ele>32.6</ele>
        <time>2020-06-12T07:41:43Z</time>
      </trkpt>
      <trkpt lat="49.38166" lon="-1.7524">
        <ele>32.5</ele>
        <time>2020-06-12T07:41:44Z</time>
      </trkpt>
      <trkpt lat="49.38166" lon="-1.75238">
        <ele>32.4</ele>
        <time>2020-06-12T07:41:45Z</time>
      </trkpt>
      <trkpt lat="49.38166" lon="-1.75237">
        <ele>32.4</ele>
        <time>2020-06-12T07:41:46Z</time>
      </trkpt>
      <trkpt lat="49.38166" lon="-1.75235">
        <ele>32.3</ele>
        <time>2020-06-12T07:41:47Z</time>
      </trkpt>
      <trkpt lat="49.38165" lon="-1.75234">
        <ele>32.2</ele>
        <time>2020-06-12T07:41:48Z</time>
      </trkpt>
      <trkpt lat="49.38165" lon="-1.75233">
        <ele>32.2</ele>
        <time>2020-06-12T07:41:49Z</time>
      </trkpt>
      <trkpt lat="49.3817" lon="-1.75232">
        <ele>31.9</ele>
        <time>2020-06-12T07:41:50Z</time>
      </trkpt>
      <trkpt lat="49.38171" lon="-1.75232">
        <ele>31.8</ele>
        <time>2020-06-12T07:41:51Z</time>
      </trkpt>
      <trkpt lat="49.38175" lon="-1.75231">
        <ele>31.5</ele>
        <time>2020-06-12T07:41:52Z</time>
      </trkpt>
      <trkpt lat="49.38179" lon="-1.75229">
        <ele>31.3</ele>
        <time>2020-06-12T07:41:53Z</time>
      </trkpt>
      <trkpt lat="49.38183" lon="-1.75227">
        <ele>31</ele>
        <time>2020-06-12T07:41:54Z</time>
      </trkpt>
      <trkpt lat="49.38187" lon="-1.75224">
        <ele>30.6</ele>
        <time>2020-06-12T07:41:55Z</time>
      </trkpt>
      <trkpt lat="49.38192" lon="-1.75222">
        <ele>30.3</ele>
        <time>2020-06-12T07:41:56Z</time>
      </trkpt>
      <trkpt lat="49.38197" lon="-1.75218">
        <ele>29.9</ele>
        <time>2020-06-12T07:41:57Z</time>
      </trkpt>
      <trkpt lat="49.38202" lon="-1.75214">
        <ele>29.5</ele>
        <time>2020-06-12T07:41:58Z</time>
      </trkpt>
      <trkpt lat="49.38208" lon="-1.75209">
        <ele>29.1</ele>
        <time>2020-06-12T07:41:59Z</time>
      </trkpt>
      <trkpt lat="49.38213" lon="-1.75203">
        <ele>28.6</ele>
        <time>2020-06-12T07:42:00Z</time>
      </trkpt>
      <trkpt lat="49.38219" lon="-1.75199">
        <ele>28.1</ele>
        <time>2020-06-12T07:42:01Z</time>
      </trkpt>
      <trkpt lat="49.38226" lon="-1.75193">
        <ele>27.6</ele>
        <time>2020-06-12T07:42:02Z</time>
      </trkpt>
      <trkpt lat="49.38232" lon="-1.75186">
        <ele>27.1</ele>
        <time>2020-06-12T07:42:03Z</time>
      </trkpt>
      <trkpt lat="49.38238" lon="-1.7518">
        <ele>25.9</ele>
        <time>2020-06-12T07:42:04Z</time>
      </trkpt>
      <trkpt lat="49.38245" lon="-1.75174">
        <ele>25.9</ele>
        <time>2020-06-12T07:42:05Z</time>
      </trkpt>
      <trkpt lat="49.38252" lon="-1.7517">
        <ele>25.7</ele>
        <time>2020-06-12T07:42:06Z</time>
      </trkpt>
      <trkpt lat="49.38259" lon="-1.75168">
        <ele>25.1</ele>
        <time>2020-06-12T07:42:07Z</time>
      </trkpt>
      <trkpt lat="49.38268" lon="-1.75169">
        <ele>24.4</ele>
        <time>2020-06-12T07:42:08Z</time>
      </trkpt>
      <trkpt lat="49.38277" lon="-1.75168">
        <ele>23.7</ele>
        <time>2020-06-12T07:42:09Z</time>
      </trkpt>
      <trkpt lat="49.38286" lon="-1.75166">
        <ele>23</ele>
        <time>2020-06-12T07:42:10Z</time>
      </trkpt>
      <trkpt lat="49.38294" lon="-1.75167">
        <ele>22.3</ele>
        <time>2020-06-12T07:42:11Z</time>
      </trkpt>
      <trkpt lat="49.38301" lon="-1.75167">
        <ele>21.6</ele>
        <time>2020-06-12T07:42:12Z</time>
      </trkpt>
      <trkpt lat="49.38309" lon="-1.75166">
        <ele>21</ele>
        <time>2020-06-12T07:42:13Z</time>
      </trkpt>
      <trkpt lat="49.38318" lon="-1.75165">
        <ele>20.2</ele>
        <time>2020-06-12T07:42:14Z</time>
      </trkpt>
      <trkpt lat="49.38326" lon="-1.75164">
        <ele>19.5</ele>
        <time>2020-06-12T07:42:15Z</time>
      </trkpt>
      <trkpt lat="49.38335" lon="-1.75163">
        <ele>18.8</ele>
        <time>2020-06-12T07:42:16Z</time>
      </trkpt>
      <trkpt lat="49.38344" lon="-1.75163">
        <ele>18.3</ele>
        <time>2020-06-12T07:42:17Z</time>
      </trkpt>
      <trkpt lat="49.38352" lon="-1.75163">
        <ele>17.8</ele>
        <time>2020-06-12T07:42:18Z</time>
      </trkpt>
      <trkpt lat="49.38359" lon="-1.75163">
        <ele>17.3</ele>
        <time>2020-06-12T07:42:19Z</time>
      </trkpt>
      <trkpt lat="49.38368" lon="-1.75163">
        <ele>16.7</ele>
        <time>2020-06-12T07:42:20Z</time>
      </trkpt>
      <trkpt lat="49.38376" lon="-1.75163">
        <ele>16.2</ele>
        <time>2020-06-12T07:42:21Z</time>
      </trkpt>
      <trkpt lat="49.38383" lon="-1.75164">
        <ele>15.7</ele>
        <time>2020-06-12T07:42:22Z</time>
      </trkpt>
      <trkpt lat="49.3839" lon="-1.75166">
        <ele>15.3</ele>
        <time>2020-06-12T07:42:23Z</time>
      </trkpt>
      <trkpt lat="49.38398" lon="-1.75168">
        <ele>14.8</ele>
        <time>2020-06-12T07:42:24Z</time>
      </trkpt>
      <trkpt lat="49.38405" lon="-1.75169">
        <ele>14.4</ele>
        <time>2020-06-12T07:42:25Z</time>
      </trkpt>
      <trkpt lat="49.38412" lon="-1.7517">
        <ele>14</ele>
        <time>2020-06-12T07:42:26Z</time>
      </trkpt>
      <trkpt lat="49.3842" lon="-1.75172">
        <ele>13.6</ele>
        <time>2020-06-12T07:42:27Z</time>
      </trkpt>
      <trkpt lat="49.38427" lon="-1.75174">
        <ele>13.3</ele>
        <time>2020-06-12T07:42:28Z</time>
      </trkpt>
      <trkpt lat="49.38433" lon="-1.75177">
        <ele>13</ele>
        <time>2020-06-12T07:42:29Z</time>
      </trkpt>
      <trkpt lat="49.3844" lon="-1.75179">
        <ele>12.7</ele>
        <time>2020-06-12T07:42:30Z</time>
      </trkpt>
      <trkpt lat="49.38446" lon="-1.75182">
        <ele>12.5</ele>
        <time>2020-06-12T07:42:31Z</time>
      </trkpt>
      <trkpt lat="49.38452" lon="-1.75184">
        <ele>12.4</ele>
        <time>2020-06-12T07:42:32Z</time>
      </trkpt>
      <trkpt lat="49.38459" lon="-1.75182">
        <ele>12.3</ele>
        <time>2020-06-12T07:42:33Z</time>
      </trkpt>
      <trkpt lat="49.38466" lon="-1.75178">
        <ele>12</ele>
        <time>2020-06-12T07:42:34Z</time>
      </trkpt>
      <trkpt lat="49.3847" lon="-1.75173">
        <ele>11.8</ele>
        <time>2020-06-12T07:42:35Z</time>
      </trkpt>
      <trkpt lat="49.38475" lon="-1.75165">
        <ele>11.5</ele>
        <time>2020-06-12T07:42:36Z</time>
      </trkpt>
      <trkpt lat="49.38479" lon="-1.75157">
        <ele>11.2</ele>
        <time>2020-06-12T07:42:37Z</time>
      </trkpt>
      <trkpt lat="49.38483" lon="-1.75149">
        <ele>11</ele>
        <time>2020-06-12T07:42:38Z</time>
      </trkpt>
      <trkpt lat="49.38488" lon="-1.7514">
        <ele>10.8</ele>
        <time>2020-06-12T07:42:39Z</time>
      </trkpt>
      <trkpt lat="49.38493" lon="-1.75133">
        <ele>10.6</ele>
        <time>2020-06-12T07:42:40Z</time>
      </trkpt>
      <trkpt lat="49.38499" lon="-1.75127">
        <ele>10.5</ele>
        <time>2020-06-12T07:42:41Z</time>
      </trkpt>
      <trkpt lat="49.38504" lon="-1.75121">
        <ele>10.4</ele>
        <time>2020-06-12T07:42:42Z</time>
      </trkpt>
      <trkpt lat="49.38509" lon="-1.75114">
        <ele>10.3</ele>
        <time>2020-06-12T07:42:43Z</time>
      </trkpt>
      <trkpt lat="49.38513" lon="-1.75107">
        <ele>10.3</ele>
        <time>2020-06-12T07:42:44Z</time>
      </trkpt>
      <trkpt lat="49.38517" lon="-1.75099">
        <ele>10.4</ele>
        <time>2020-06-12T07:42:45Z</time>
      </trkpt>
      <trkpt lat="49.38522" lon="-1.75091">
        <ele>10.6</ele>
        <time>2020-06-12T07:42:46Z</time>
      </trkpt>
      <trkpt lat="49.38526" lon="-1.75083">
        <ele>10.8</ele>
        <time>2020-06-12T07:42:47Z</time>
      </trkpt>
      <trkpt lat="49.38529" lon="-1.75076">
        <ele>11.1</ele>
        <time>2020-06-12T07:42:48Z</time>
      </trkpt>
      <trkpt lat="49.38533" lon="-1.7507">
        <ele>11.4</ele>
        <time>2020-06-12T07:42:49Z</time>
      </trkpt>
      <trkpt lat="49.38536" lon="-1.75062">
        <ele>11.8</ele>
        <time>2020-06-12T07:42:50Z</time>
      </trkpt>
      <trkpt lat="49.38539" lon="-1.75055">
        <ele>12.2</ele>
        <time>2020-06-12T07:42:51Z</time>
      </trkpt>
      <trkpt lat="49.38542" lon="-1.75049">
        <ele>12.6</ele>
        <time>2020-06-12T07:42:52Z</time>
      </trkpt>
      <trkpt lat="49.38544" lon="-1.75044">
        <ele>13</ele>
        <time>2020-06-12T07:42:53Z</time>
      </trkpt>
      <trkpt lat="49.38546" lon="-1.7504">
        <ele>13.3</ele>
        <time>2020-06-12T07:42:54Z</time>
      </trkpt>
      <trkpt lat="49.38548" lon="-1.75035">
        <ele>13.7</ele>
        <time>2020-06-12T07:42:55Z</time>
      </trkpt>
      <trkpt lat="49.38549" lon="-1.75034">
        <ele>13.8</ele>
        <time>2020-06-12T07:42:56Z</time>
      </trkpt>
      <trkpt lat="49.3855" lon="-1.75032">
        <ele>14.3</ele>
        <time>2020-06-12T07:42:57Z</time>
      </trkpt>
      <trkpt lat="49.3855" lon="-1.75032">
        <ele>14.3</ele>
        <time>2020-06-12T07:42:58Z</time>
      </trkpt>
      <trkpt lat="49.3855" lon="-1.75029">
        <ele>14.3</ele>
        <time>2020-06-12T07:42:59Z</time>
      </trkpt>
      <trkpt lat="49.38551" lon="-1.75029">
        <ele>14.3</ele>
        <time>2020-06-12T07:43:00Z</time>
      </trkpt>
      <trkpt lat="49.38551" lon="-1.75028">
        <ele>14.4</ele>
        <time>2020-06-12T07:43:01Z</time>
      </trkpt>
      <trkpt lat="49.38552" lon="-1.75027">
        <ele>14.4</ele>
        <time>2020-06-12T07:43:02Z</time>
      </trkpt>
      <trkpt lat="49.38553" lon="-1.75025">
        <ele>14.4</ele>
        <time>2020-06-12T07:43:03Z</time>
      </trkpt>
      <trkpt lat="49.38554" lon="-1.75025">
        <ele>14.4</ele>
        <time>2020-06-12T07:43:04Z</time>
      </trkpt>
      <trkpt lat="49.38556" lon="-1.75028">
        <ele>14.4</ele>
        <time>2020-06-12T07:43:05Z</time>
      </trkpt>
      <trkpt lat="49.38559" lon="-1.75031">
        <ele>14.3</ele>
        <time>2020-06-12T07:43:06Z</time>
      </trkpt>
      <trkpt lat="49.3856" lon="-1.75032">
        <ele>14.3</ele>
        <time>2020-06-12T07:43:07Z</time>
      </trkpt>
      <trkpt lat="49.38564" lon="-1.75035">
        <ele>14.2</ele>
        <time>2020-06-12T07:43:08Z</time>
      </trkpt>
      <trkpt lat="49.38565" lon="-1.75036">
        <ele>14.2</ele>
        <time>2020-06-12T07:43:09Z</time>
      </trkpt>
      <trkpt lat="49.38568" lon="-1.75039">
        <ele>14.1</ele>
        <time>2020-06-12T07:43:10Z</time>
      </trkpt>
      <trkpt lat="49.38572" lon="-1.75043">
        <ele>14</ele>
        <time>2020-06-12T07:43:11Z</time>
      </trkpt>
      <trkpt lat="49.38575" lon="-1.75046">
        <ele>13.9</ele>
        <time>2020-06-12T07:43:12Z</time>
      </trkpt>
      <trkpt lat="49.38579" lon="-1.75051">
        <ele>13.8</ele>
        <time>2020-06-12T07:43:13Z</time>
      </trkpt>
      <trkpt lat="49.38583" lon="-1.75056">
        <ele>13.7</ele>
        <time>2020-06-12T07:43:14Z</time>
      </trkpt>
      <trkpt lat="49.38587" lon="-1.75061">
        <ele>13.6</ele>
        <time>2020-06-12T07:43:15Z</time>
      </trkpt>
      <trkpt lat="49.38592" lon="-1.75066">
        <ele>13.5</ele>
        <time>2020-06-12T07:43:16Z</time>
      </trkpt>
      <trkpt lat="49.38597" lon="-1.75071">
        <ele>13.4</ele>
        <time>2020-06-12T07:43:17Z</time>
      </trkpt>
      <trkpt lat="49.386" lon="-1.75076">
        <ele>13.3</ele>
        <time>2020-06-12T07:43:18Z</time>
      </trkpt>
      <trkpt lat="49.38605" lon="-1.75082">
        <ele>13.2</ele>
        <time>2020-06-12T07:43:19Z</time>
      </trkpt>
      <trkpt lat="49.3861" lon="-1.75088">
        <ele>13.1</ele>
        <time>2020-06-12T07:43:20Z</time>
      </trkpt>
      <trkpt lat="49.38615" lon="-1.75093">
        <ele>13.1</ele>
        <time>2020-06-12T07:43:21Z</time>
      </trkpt>
      <trkpt lat="49.38621" lon="-1.75099">
        <ele>13</ele>
        <time>2020-06-12T07:43:22Z</time>
      </trkpt>
      <trkpt lat="49.38626" lon="-1.75106">
        <ele>13</ele>
        <time>2020-06-12T07:43:23Z</time>
      </trkpt>
      <trkpt lat="49.38631" lon="-1.75111">
        <ele>12.9</ele>
        <time>2020-06-12T07:43:24Z</time>
      </trkpt>
      <trkpt lat="49.38636" lon="-1.75117">
        <ele>12.8</ele>
        <time>2020-06-12T07:43:25Z</time>
      </trkpt>
      <trkpt lat="49.38642" lon="-1.75123">
        <ele>12.8</ele>
        <time>2020-06-12T07:43:26Z</time>
      </trkpt>
      <trkpt lat="49.38647" lon="-1.7513">
        <ele>12.8</ele>
        <time>2020-06-12T07:43:27Z</time>
      </trkpt>
      <trkpt lat="49.38653" lon="-1.75138">
        <ele>12.8</ele>
        <time>2020-06-12T07:43:28Z</time>
      </trkpt>
      <trkpt lat="49.38658" lon="-1.75144">
        <ele>12.9</ele>
        <time>2020-06-12T07:43:29Z</time>
      </trkpt>
      <trkpt lat="49.38664" lon="-1.7515">
        <ele>13.1</ele>
        <time>2020-06-12T07:43:30Z</time>
      </trkpt>
      <trkpt lat="49.38668" lon="-1.75157">
        <ele>13.2</ele>
        <time>2020-06-12T07:43:31Z</time>
      </trkpt>
      <trkpt lat="49.38674" lon="-1.75164">
        <ele>13.4</ele>
        <time>2020-06-12T07:43:32Z</time>
      </trkpt>
      <trkpt lat="49.38679" lon="-1.75173">
        <ele>13.4</ele>
        <time>2020-06-12T07:43:33Z</time>
      </trkpt>
      <trkpt lat="49.38684" lon="-1.75181">
        <ele>13.4</ele>
        <time>2020-06-12T07:43:34Z</time>
      </trkpt>
      <trkpt lat="49.3869" lon="-1.75188">
        <ele>13.4</ele>
        <time>2020-06-12T07:43:35Z</time>
      </trkpt>
      <trkpt lat="49.38695" lon="-1.75196">
        <ele>13.4</ele>
        <time>2020-06-12T07:43:36Z</time>
      </trkpt>
      <trkpt lat="49.38699" lon="-1.75202">
        <ele>13.4</ele>
        <time>2020-06-12T07:43:37Z</time>
      </trkpt>
      <trkpt lat="49.38703" lon="-1.75209">
        <ele>13.4</ele>
        <time>2020-06-12T07:43:38Z</time>
      </trkpt>
      <trkpt lat="49.38707" lon="-1.75216">
        <ele>13.5</ele>
        <time>2020-06-12T07:43:39Z</time>
      </trkpt>
      <trkpt lat="49.38711" lon="-1.75222">
        <ele>13.6</ele>
        <time>2020-06-12T07:43:40Z</time>
      </trkpt>
      <trkpt lat="49.38715" lon="-1.75229">
        <ele>13.7</ele>
        <time>2020-06-12T07:43:41Z</time>
      </trkpt>
      <trkpt lat="49.38719" lon="-1.75236">
        <ele>13.8</ele>
        <time>2020-06-12T07:43:42Z</time>
      </trkpt>
      <trkpt lat="49.38723" lon="-1.75243">
        <ele>14</ele>
        <time>2020-06-12T07:43:43Z</time>
      </trkpt>
      <trkpt lat="49.38727" lon="-1.75248">
        <ele>14.2</ele>
        <time>2020-06-12T07:43:44Z</time>
      </trkpt>
      <trkpt lat="49.38732" lon="-1.75254">
        <ele>14.4</ele>
        <time>2020-06-12T07:43:45Z</time>
      </trkpt>
      <trkpt lat="49.38736" lon="-1.75261">
        <ele>14.7</ele>
        <time>2020-06-12T07:43:46Z</time>
      </trkpt>
      <trkpt lat="49.3874" lon="-1.75268">
        <ele>15.1</ele>
        <time>2020-06-12T07:43:47Z</time>
      </trkpt>
      <trkpt lat="49.38742" lon="-1.75274">
        <ele>15.3</ele>
        <time>2020-06-12T07:43:48Z</time>
      </trkpt>
      <trkpt lat="49.38746" lon="-1.7528">
        <ele>15.6</ele>
        <time>2020-06-12T07:43:49Z</time>
      </trkpt>
      <trkpt lat="49.3875" lon="-1.75286">
        <ele>15.9</ele>
        <time>2020-06-12T07:43:50Z</time>
      </trkpt>
      <trkpt lat="49.38753" lon="-1.75291">
        <ele>16.1</ele>
        <time>2020-06-12T07:43:51Z</time>
      </trkpt>
      <trkpt lat="49.38758" lon="-1.75297">
        <ele>16.4</ele>
        <time>2020-06-12T07:43:52Z</time>
      </trkpt>
      <trkpt lat="49.38761" lon="-1.75302">
        <ele>16.7</ele>
        <time>2020-06-12T07:43:53Z</time>
      </trkpt>
      <trkpt lat="49.38764" lon="-1.75309">
        <ele>17</ele>
        <time>2020-06-12T07:43:54Z</time>
      </trkpt>
      <trkpt lat="49.38768" lon="-1.75315">
        <ele>17.3</ele>
        <time>2020-06-12T07:43:55Z</time>
      </trkpt>
      <trkpt lat="49.38771" lon="-1.7532">
        <ele>17.9</ele>
        <time>2020-06-12T07:43:56Z</time>
      </trkpt>
      <trkpt lat="49.38774" lon="-1.75326">
        <ele>18.3</ele>
        <time>2020-06-12T07:43:57Z</time>
      </trkpt>
      <trkpt lat="49.38775" lon="-1.7533">
        <ele>18.5</ele>
        <time>2020-06-12T07:43:58Z</time>
      </trkpt>
      <trkpt lat="49.38779" lon="-1.75337">
        <ele>19</ele>
        <time>2020-06-12T07:43:59Z</time>
      </trkpt>
      <trkpt lat="49.38781" lon="-1.75341">
        <ele>19.3</ele>
        <time>2020-06-12T07:44:00Z</time>
      </trkpt>
      <trkpt lat="49.38783" lon="-1.75345">
        <ele>19.5</ele>
        <time>2020-06-12T07:44:01Z</time>
      </trkpt>
      <trkpt lat="49.38784" lon="-1.75349">
        <ele>19.7</ele>
        <time>2020-06-12T07:44:02Z</time>
      </trkpt>
      <trkpt lat="49.38787" lon="-1.75352">
        <ele>20</ele>
        <time>2020-06-12T07:44:03Z</time>
      </trkpt>
      <trkpt lat="49.38788" lon="-1.75356">
        <ele>20.2</ele>
        <time>2020-06-12T07:44:04Z</time>
      </trkpt>
      <trkpt lat="49.38791" lon="-1.75361">
        <ele>20.5</ele>
        <time>2020-06-12T07:44:05Z</time>
      </trkpt>
      <trkpt lat="49.38793" lon="-1.75366">
        <ele>20.8</ele>
        <time>2020-06-12T07:44:06Z</time>
      </trkpt>
      <trkpt lat="49.38795" lon="-1.75371">
        <ele>21.1</ele>
        <time>2020-06-12T07:44:07Z</time>
      </trkpt>
      <trkpt lat="49.38798" lon="-1.75376">
        <ele>21.4</ele>
        <time>2020-06-12T07:44:08Z</time>
      </trkpt>
      <trkpt lat="49.388" lon="-1.7538">
        <ele>21.7</ele>
        <time>2020-06-12T07:44:09Z</time>
      </trkpt>
      <trkpt lat="49.38802" lon="-1.75385">
        <ele>22</ele>
        <time>2020-06-12T07:44:10Z</time>
      </trkpt>
      <trkpt lat="49.38803" lon="-1.75389">
        <ele>22.3</ele>
        <time>2020-06-12T07:44:11Z</time>
      </trkpt>
      <trkpt lat="49.38806" lon="-1.75393">
        <ele>22.6</ele>
        <time>2020-06-12T07:44:12Z</time>
      </trkpt>
      <trkpt lat="49.38807" lon="-1.75395">
        <ele>22.7</ele>
        <time>2020-06-12T07:44:13Z</time>
      </trkpt>
      <trkpt lat="49.38809" lon="-1.75398">
        <ele>22.9</ele>
        <time>2020-06-12T07:44:14Z</time>
      </trkpt>
      <trkpt lat="49.38812" lon="-1.75402">
        <ele>23.3</ele>
        <time>2020-06-12T07:44:15Z</time>
      </trkpt>
      <trkpt lat="49.38814" lon="-1.75405">
        <ele>23.5</ele>
        <time>2020-06-12T07:44:16Z</time>
      </trkpt>
      <trkpt lat="49.38816" lon="-1.7541">
        <ele>23.8</ele>
        <time>2020-06-12T07:44:17Z</time>
      </trkpt>
      <trkpt lat="49.38818" lon="-1.75414">
        <ele>24.1</ele>
        <time>2020-06-12T07:44:18Z</time>
      </trkpt>
      <trkpt lat="49.38819" lon="-1.75416">
        <ele>24.2</ele>
        <time>2020-06-12T07:44:19Z</time>
      </trkpt>
      <trkpt lat="49.38821" lon="-1.75419">
        <ele>24.4</ele>
        <time>2020-06-12T07:44:20Z</time>
      </trkpt>
      <trkpt lat="49.38822" lon="-1.75423">
        <ele>24.7</ele>
        <time>2020-06-12T07:44:21Z</time>
      </trkpt>
      <trkpt lat="49.38824" lon="-1.75427">
        <ele>24.8</ele>
        <time>2020-06-12T07:44:22Z</time>
      </trkpt>
      <trkpt lat="49.38824" lon="-1.75429">
        <ele>24.8</ele>
        <time>2020-06-12T07:44:23Z</time>
      </trkpt>
      <trkpt lat="49.38826" lon="-1.75433">
        <ele>24.9</ele>
        <time>2020-06-12T07:44:24Z</time>
      </trkpt>
      <trkpt lat="49.38827" lon="-1.75437">
        <ele>25</ele>
        <time>2020-06-12T07:44:25Z</time>
      </trkpt>
      <trkpt lat="49.38829" lon="-1.75443">
        <ele>25.1</ele>
        <time>2020-06-12T07:44:26Z</time>
      </trkpt>
      <trkpt lat="49.3883" lon="-1.75445">
        <ele>25.2</ele>
        <time>2020-06-12T07:44:27Z</time>
      </trkpt>
      <trkpt lat="49.38832" lon="-1.7545">
        <ele>25.3</ele>
        <time>2020-06-12T07:44:28Z</time>
      </trkpt>
      <trkpt lat="49.38833" lon="-1.75454">
        <ele>25.5</ele>
        <time>2020-06-12T07:44:29Z</time>
      </trkpt>
      <trkpt lat="49.38835" lon="-1.75458">
        <ele>25.7</ele>
        <time>2020-06-12T07:44:30Z</time>
      </trkpt>
      <trkpt lat="49.38836" lon="-1.75461">
        <ele>25.9</ele>
        <time>2020-06-12T07:44:31Z</time>
      </trkpt>
      <trkpt lat="49.38838" lon="-1.75466">
        <ele>26.2</ele>
        <time>2020-06-12T07:44:32Z</time>
      </trkpt>
      <trkpt lat="49.38839" lon="-1.75471">
        <ele>26.4</ele>
        <time>2020-06-12T07:44:33Z</time>
      </trkpt>
      <trkpt lat="49.38841" lon="-1.75475">
        <ele>26.7</ele>
        <time>2020-06-12T07:44:34Z</time>
      </trkpt>
      <trkpt lat="49.38842" lon="-1.75476">
        <ele>26.7</ele>
        <time>2020-06-12T07:44:35Z</time>
      </trkpt>
      <trkpt lat="49.38843" lon="-1.75481">
        <ele>27</ele>
        <time>2020-06-12T07:44:36Z</time>
      </trkpt>
      <trkpt lat="49.38844" lon="-1.75482">
        <ele>27.1</ele>
        <time>2020-06-12T07:44:37Z</time>
      </trkpt>
      <trkpt lat="49.38846" lon="-1.75486">
        <ele>27.3</ele>
        <time>2020-06-12T07:44:38Z</time>
      </trkpt>
      <trkpt lat="49.38848" lon="-1.75491">
        <ele>27.6</ele>
        <time>2020-06-12T07:44:39Z</time>
      </trkpt>
      <trkpt lat="49.38848" lon="-1.75493">
        <ele>27.7</ele>
        <time>2020-06-12T07:44:40Z</time>
      </trkpt>
      <trkpt lat="49.38849" lon="-1.75497">
        <ele>27.9</ele>
        <time>2020-06-12T07:44:41Z</time>
      </trkpt>
      <trkpt lat="49.3885" lon="-1.75501">
        <ele>28.1</ele>
        <time>2020-06-12T07:44:42Z</time>
      </trkpt>
      <trkpt lat="49.38851" lon="-1.75505">
        <ele>28.3</ele>
        <time>2020-06-12T07:44:43Z</time>
      </trkpt>
      <trkpt lat="49.38852" lon="-1.75507">
        <ele>28.4</ele>
        <time>2020-06-12T07:44:44Z</time>
      </trkpt>
      <trkpt lat="49.38853" lon="-1.75511">
        <ele>28.6</ele>
        <time>2020-06-12T07:44:45Z</time>
      </trkpt>
      <trkpt lat="49.38855" lon="-1.75515">
        <ele>28.9</ele>
        <time>2020-06-12T07:44:46Z</time>
      </trkpt>
      <trkpt lat="49.38856" lon="-1.7552">
        <ele>29.1</ele>
        <time>2020-06-12T07:44:47Z</time>
      </trkpt>
      <trkpt lat="49.38857" lon="-1.75524">
        <ele>29.3</ele>
        <time>2020-06-12T07:44:48Z</time>
      </trkpt>
      <trkpt lat="49.38858" lon="-1.75526">
        <ele>29.4</ele>
        <time>2020-06-12T07:44:49Z</time>
      </trkpt>
      <trkpt lat="49.3886" lon="-1.7553">
        <ele>29.6</ele>
        <time>2020-06-12T07:44:50Z</time>
      </trkpt>
      <trkpt lat="49.38862" lon="-1.75534">
        <ele>29.9</ele>
        <time>2020-06-12T07:44:51Z</time>
      </trkpt>
      <trkpt lat="49.38863" lon="-1.75536">
        <ele>30</ele>
        <time>2020-06-12T07:44:52Z</time>
      </trkpt>
      <trkpt lat="49.38865" lon="-1.75539">
        <ele>30.2</ele>
        <time>2020-06-12T07:44:53Z</time>
      </trkpt>
      <trkpt lat="49.38867" lon="-1.75543">
        <ele>30.5</ele>
        <time>2020-06-12T07:44:54Z</time>
      </trkpt>
      <trkpt lat="49.38869" lon="-1.75547">
        <ele>30.7</ele>
        <time>2020-06-12T07:44:55Z</time>
      </trkpt>
      <trkpt lat="49.3887" lon="-1.75549">
        <ele>30.9</ele>
        <time>2020-06-12T07:44:56Z</time>
      </trkpt>
      <trkpt lat="49.38872" lon="-1.75553">
        <ele>31.1</ele>
        <time>2020-06-12T07:44:57Z</time>
      </trkpt>
      <trkpt lat="49.38873" lon="-1.75557">
        <ele>31.4</ele>
        <time>2020-06-12T07:44:58Z</time>
      </trkpt>
      <trkpt lat="49.38875" lon="-1.75561">
        <ele>31.7</ele>
        <time>2020-06-12T07:44:59Z</time>
      </trkpt>
      <trkpt lat="49.38876" lon="-1.75565">
        <ele>31.9</ele>
        <time>2020-06-12T07:45:00Z</time>
      </trkpt>
      <trkpt lat="49.38877" lon="-1.7557">
        <ele>32.2</ele>
        <time>2020-06-12T07:45:01Z</time>
      </trkpt>
      <trkpt lat="49.38877" lon="-1.75572">
        <ele>32.3</ele>
        <time>2020-06-12T07:45:02Z</time>
      </trkpt>
      <trkpt lat="49.38879" lon="-1.75577">
        <ele>32.6</ele>
        <time>2020-06-12T07:45:03Z</time>
      </trkpt>
      <trkpt lat="49.38879" lon="-1.75579">
        <ele>32.7</ele>
        <time>2020-06-12T07:45:04Z</time>
      </trkpt>
      <trkpt lat="49.38881" lon="-1.75584">
        <ele>33</ele>
        <time>2020-06-12T07:45:05Z</time>
      </trkpt>
      <trkpt lat="49.38881" lon="-1.75586">
        <ele>33.1</ele>
        <time>2020-06-12T07:45:06Z</time>
      </trkpt>
      <trkpt lat="49.38883" lon="-1.75589">
        <ele>33.3</ele>
        <time>2020-06-12T07:45:07Z</time>
      </trkpt>
      <trkpt lat="49.38885" lon="-1.75594">
        <ele>33.5</ele>
        <time>2020-06-12T07:45:08Z</time>
      </trkpt>
      <trkpt lat="49.38885" lon="-1.75599">
        <ele>33.8</ele>
        <time>2020-06-12T07:45:09Z</time>
      </trkpt>
      <trkpt lat="49.38886" lon="-1.756">
        <ele>33.8</ele>
        <time>2020-06-12T07:45:10Z</time>
      </trkpt>
      <trkpt lat="49.38887" lon="-1.75604">
        <ele>34.1</ele>
        <time>2020-06-12T07:45:11Z</time>
      </trkpt>
      <trkpt lat="49.38889" lon="-1.75609">
        <ele>34.3</ele>
        <time>2020-06-12T07:45:12Z</time>
      </trkpt>
      <trkpt lat="49.3889" lon="-1.75611">
        <ele>34.4</ele>
        <time>2020-06-12T07:45:13Z</time>
      </trkpt>
      <trkpt lat="49.38892" lon="-1.75617">
        <ele>34.7</ele>
        <time>2020-06-12T07:45:14Z</time>
      </trkpt>
      <trkpt lat="49.38893" lon="-1.75619">
        <ele>34.8</ele>
        <time>2020-06-12T07:45:15Z</time>
      </trkpt>
      <trkpt lat="49.38895" lon="-1.75624">
        <ele>35.1</ele>
        <time>2020-06-12T07:45:16Z</time>
      </trkpt>
      <trkpt lat="49.38895" lon="-1.75626">
        <ele>35.2</ele>
        <time>2020-06-12T07:45:17Z</time>
      </trkpt>
      <trkpt lat="49.38897" lon="-1.75632">
        <ele>35.4</ele>
        <time>2020-06-12T07:45:18Z</time>
      </trkpt>
      <trkpt lat="49.38897" lon="-1.75633">
        <ele>35.5</ele>
        <time>2020-06-12T07:45:19Z</time>
      </trkpt>
      <trkpt lat="49.38899" lon="-1.75639">
        <ele>35.8</ele>
        <time>2020-06-12T07:45:20Z</time>
      </trkpt>
      <trkpt lat="49.389" lon="-1.75641">
        <ele>35.9</ele>
        <time>2020-06-12T07:45:21Z</time>
      </trkpt>
      <trkpt lat="49.38902" lon="-1.75646">
        <ele>36.1</ele>
        <time>2020-06-12T07:45:22Z</time>
      </trkpt>
      <trkpt lat="49.38903" lon="-1.75647">
        <ele>36.2</ele>
        <time>2020-06-12T07:45:23Z</time>
      </trkpt>
      <trkpt lat="49.38905" lon="-1.75652">
        <ele>36.5</ele>
        <time>2020-06-12T07:45:24Z</time>
      </trkpt>
      <trkpt lat="49.38905" lon="-1.75654">
        <ele>36.6</ele>
        <time>2020-06-12T07:45:25Z</time>
      </trkpt>
      <trkpt lat="49.38907" lon="-1.7566">
        <ele>36.9</ele>
        <time>2020-06-12T07:45:26Z</time>
      </trkpt>
      <trkpt lat="49.38908" lon="-1.75662">
        <ele>37</ele>
        <time>2020-06-12T07:45:27Z</time>
      </trkpt>
      <trkpt lat="49.3891" lon="-1.75667">
        <ele>37.2</ele>
        <time>2020-06-12T07:45:28Z</time>
      </trkpt>
      <trkpt lat="49.38911" lon="-1.75672">
        <ele>37.4</ele>
        <time>2020-06-12T07:45:29Z</time>
      </trkpt>
      <trkpt lat="49.38912" lon="-1.75674">
        <ele>37.5</ele>
        <time>2020-06-12T07:45:30Z</time>
      </trkpt>
      <trkpt lat="49.38913" lon="-1.75678">
        <ele>37.7</ele>
        <time>2020-06-12T07:45:31Z</time>
      </trkpt>
      <trkpt lat="49.38915" lon="-1.75682">
        <ele>37.9</ele>
        <time>2020-06-12T07:45:32Z</time>
      </trkpt>
      <trkpt lat="49.38916" lon="-1.75688">
        <ele>38.1</ele>
        <time>2020-06-12T07:45:33Z</time>
      </trkpt>
      <trkpt lat="49.38917" lon="-1.7569">
        <ele>38.2</ele>
        <time>2020-06-12T07:45:34Z</time>
      </trkpt>
      <trkpt lat="49.38918" lon="-1.75694">
        <ele>38.4</ele>
        <time>2020-06-12T07:45:35Z</time>
      </trkpt>
      <trkpt lat="49.38919" lon="-1.75697">
        <ele>38.6</ele>
        <time>2020-06-12T07:45:36Z</time>
      </trkpt>
      <trkpt lat="49.38921" lon="-1.75701">
        <ele>38.8</ele>
        <time>2020-06-12T07:45:37Z</time>
      </trkpt>
      <trkpt lat="49.38923" lon="-1.75706">
        <ele>39</ele>
        <time>2020-06-12T07:45:38Z</time>
      </trkpt>
      <trkpt lat="49.38923" lon="-1.75707">
        <ele>39.1</ele>
        <time>2020-06-12T07:45:39Z</time>
      </trkpt>
      <trkpt lat="49.38925" lon="-1.75712">
        <ele>39.3</ele>
        <time>2020-06-12T07:45:40Z</time>
      </trkpt>
      <trkpt lat="49.38925" lon="-1.75714">
        <ele>39.4</ele>
        <time>2020-06-12T07:45:41Z</time>
      </trkpt>
      <trkpt lat="49.38927" lon="-1.75719">
        <ele>39.7</ele>
        <time>2020-06-12T07:45:42Z</time>
      </trkpt>
      <trkpt lat="49.38927" lon="-1.75721">
        <ele>39.8</ele>
        <time>2020-06-12T07:45:43Z</time>
      </trkpt>
      <trkpt lat="49.38929" lon="-1.75725">
        <ele>40</ele>
        <time>2020-06-12T07:45:44Z</time>
      </trkpt>
      <trkpt lat="49.38929" lon="-1.75727">
        <ele>40.1</ele>
        <time>2020-06-12T07:45:45Z</time>
      </trkpt>
      <trkpt lat="49.38931" lon="-1.75731">
        <ele>40.3</ele>
        <time>2020-06-12T07:45:46Z</time>
      </trkpt>
      <trkpt lat="49.38932" lon="-1.75735">
        <ele>40.5</ele>
        <time>2020-06-12T07:45:47Z</time>
      </trkpt>
      <trkpt lat="49.38934" lon="-1.75739">
        <ele>40.7</ele>
        <time>2020-06-12T07:45:48Z</time>
      </trkpt>
      <trkpt lat="49.38934" lon="-1.7574">
        <ele>40.8</ele>
        <time>2020-06-12T07:45:49Z</time>
      </trkpt>
      <trkpt lat="49.38936" lon="-1.75744">
        <ele>41</ele>
        <time>2020-06-12T07:45:50Z</time>
      </trkpt>
      <trkpt lat="49.38937" lon="-1.75749">
        <ele>41.2</ele>
        <time>2020-06-12T07:45:51Z</time>
      </trkpt>
      <trkpt lat="49.38938" lon="-1.75751">
        <ele>41.3</ele>
        <time>2020-06-12T07:45:52Z</time>
      </trkpt>
      <trkpt lat="49.38939" lon="-1.75754">
        <ele>41.5</ele>
        <time>2020-06-12T07:45:53Z</time>
      </trkpt>
      <trkpt lat="49.38941" lon="-1.75758">
        <ele>41.7</ele>
        <time>2020-06-12T07:45:54Z</time>
      </trkpt>
      <trkpt lat="49.38942" lon="-1.75762">
        <ele>41.9</ele>
        <time>2020-06-12T07:45:55Z</time>
      </trkpt>
      <trkpt lat="49.38945" lon="-1.75767">
        <ele>42.2</ele>
        <time>2020-06-12T07:45:56Z</time>
      </trkpt>
      <trkpt lat="49.38947" lon="-1.75772">
        <ele>42.4</ele>
        <time>2020-06-12T07:45:57Z</time>
      </trkpt>
      <trkpt lat="49.38947" lon="-1.75774">
        <ele>42.5</ele>
        <time>2020-06-12T07:45:58Z</time>
      </trkpt>
      <trkpt lat="49.38948" lon="-1.75778">
        <ele>42.7</ele>
        <time>2020-06-12T07:45:59Z</time>
      </trkpt>
      <trkpt lat="49.3895" lon="-1.75782">
        <ele>42.9</ele>
        <time>2020-06-12T07:46:00Z</time>
      </trkpt>
      <trkpt lat="49.38951" lon="-1.75786">
        <ele>43.1</ele>
        <time>2020-06-12T07:46:01Z</time>
      </trkpt>
      <trkpt lat="49.38953" lon="-1.75791">
        <ele>43.4</ele>
        <time>2020-06-12T07:46:02Z</time>
      </trkpt>
      <trkpt lat="49.38953" lon="-1.75792">
        <ele>43.4</ele>
        <time>2020-06-12T07:46:03Z</time>
      </trkpt>
      <trkpt lat="49.38955" lon="-1.75796">
        <ele>43.6</ele>
        <time>2020-06-12T07:46:04Z</time>
      </trkpt>
      <trkpt lat="49.38957" lon="-1.758">
        <ele>43.8</ele>
        <time>2020-06-12T07:46:05Z</time>
      </trkpt>
      <trkpt lat="49.38957" lon="-1.75802">
        <ele>43.9</ele>
        <time>2020-06-12T07:46:06Z</time>
      </trkpt>
      <trkpt lat="49.38958" lon="-1.75806">
        <ele>44.1</ele>
        <time>2020-06-12T07:46:07Z</time>
      </trkpt>
      <trkpt lat="49.3896" lon="-1.75809">
        <ele>44.3</ele>
        <time>2020-06-12T07:46:08Z</time>
      </trkpt>
      <trkpt lat="49.38962" lon="-1.75813">
        <ele>44.5</ele>
        <time>2020-06-12T07:46:09Z</time>
      </trkpt>
      <trkpt lat="49.38963" lon="-1.75817">
        <ele>44.7</ele>
        <time>2020-06-12T07:46:10Z</time>
      </trkpt>
      <trkpt lat="49.38964" lon="-1.75821">
        <ele>44.9</ele>
        <time>2020-06-12T07:46:11Z</time>
      </trkpt>
      <trkpt lat="49.38966" lon="-1.75826">
        <ele>45.1</ele>
        <time>2020-06-12T07:46:12Z</time>
      </trkpt>
      <trkpt lat="49.38966" lon="-1.75828">
        <ele>45.2</ele>
        <time>2020-06-12T07:46:13Z</time>
      </trkpt>
      <trkpt lat="49.38968" lon="-1.75833">
        <ele>45.4</ele>
        <time>2020-06-12T07:46:14Z</time>
      </trkpt>
      <trkpt lat="49.38969" lon="-1.75835">
        <ele>45.5</ele>
        <time>2020-06-12T07:46:15Z</time>
      </trkpt>
      <trkpt lat="49.3897" lon="-1.75839">
        <ele>45.7</ele>
        <time>2020-06-12T07:46:16Z</time>
      </trkpt>
      <trkpt lat="49.38972" lon="-1.75844">
        <ele>45.9</ele>
        <time>2020-06-12T07:46:17Z</time>
      </trkpt>
      <trkpt lat="49.38972" lon="-1.75845">
        <ele>46</ele>
        <time>2020-06-12T07:46:18Z</time>
      </trkpt>
      <trkpt lat="49.38973" lon="-1.75849">
        <ele>46.2</ele>
        <time>2020-06-12T07:46:19Z</time>
      </trkpt>
      <trkpt lat="49.38975" lon="-1.75854">
        <ele>46.4</ele>
        <time>2020-06-12T07:46:20Z</time>
      </trkpt>
      <trkpt lat="49.38976" lon="-1.75856">
        <ele>46.5</ele>
        <time>2020-06-12T07:46:21Z</time>
      </trkpt>
      <trkpt lat="49.38978" lon="-1.75862">
        <ele>46.8</ele>
        <time>2020-06-12T07:46:22Z</time>
      </trkpt>
      <trkpt lat="49.38979" lon="-1.75864">
        <ele>46.9</ele>
        <time>2020-06-12T07:46:23Z</time>
      </trkpt>
      <trkpt lat="49.3898" lon="-1.75868">
        <ele>47.1</ele>
        <time>2020-06-12T07:46:24Z</time>
      </trkpt>
      <trkpt lat="49.38981" lon="-1.75873">
        <ele>47.3</ele>
        <time>2020-06-12T07:46:25Z</time>
      </trkpt>
      <trkpt lat="49.38981" lon="-1.75875">
        <ele>47.4</ele>
        <time>2020-06-12T07:46:26Z</time>
      </trkpt>
      <trkpt lat="49.38982" lon="-1.75879">
        <ele>47.5</ele>
        <time>2020-06-12T07:46:27Z</time>
      </trkpt>
      <trkpt lat="49.38983" lon="-1.75884">
        <ele>47.8</ele>
        <time>2020-06-12T07:46:28Z</time>
      </trkpt>
      <trkpt lat="49.38984" lon="-1.75886">
        <ele>47.8</ele>
        <time>2020-06-12T07:46:29Z</time>
      </trkpt>
      <trkpt lat="49.38985" lon="-1.75891">
        <ele>48</ele>
        <time>2020-06-12T07:46:30Z</time>
      </trkpt>
      <trkpt lat="49.38986" lon="-1.75893">
        <ele>48.1</ele>
        <time>2020-06-12T07:46:31Z</time>
      </trkpt>
      <trkpt lat="49.38987" lon="-1.75898">
        <ele>48.3</ele>
        <time>2020-06-12T07:46:32Z</time>
      </trkpt>
      <trkpt lat="49.38987" lon="-1.75902">
        <ele>48.5</ele>
        <time>2020-06-12T07:46:33Z</time>
      </trkpt>
      <trkpt lat="49.38989" lon="-1.75907">
        <ele>48.7</ele>
        <time>2020-06-12T07:46:34Z</time>
      </trkpt>
      <trkpt lat="49.3899" lon="-1.75911">
        <ele>48.9</ele>
        <time>2020-06-12T07:46:35Z</time>
      </trkpt>
      <trkpt lat="49.38991" lon="-1.75916">
        <ele>49</ele>
        <time>2020-06-12T07:46:36Z</time>
      </trkpt>
      <trkpt lat="49.38992" lon="-1.7592">
        <ele>49.2</ele>
        <time>2020-06-12T07:46:37Z</time>
      </trkpt>
      <trkpt lat="49.38993" lon="-1.75924">
        <ele>49.4</ele>
        <time>2020-06-12T07:46:38Z</time>
      </trkpt>
      <trkpt lat="49.38994" lon="-1.75929">
        <ele>49.5</ele>
        <time>2020-06-12T07:46:39Z</time>
      </trkpt>
      <trkpt lat="49.38995" lon="-1.75933">
        <ele>49.7</ele>
        <time>2020-06-12T07:46:40Z</time>
      </trkpt>
      <trkpt lat="49.38996" lon="-1.75938">
        <ele>49.9</ele>
        <time>2020-06-12T07:46:41Z</time>
      </trkpt>
      <trkpt lat="49.38998" lon="-1.75943">
        <ele>50.1</ele>
        <time>2020-06-12T07:46:42Z</time>
      </trkpt>
      <trkpt lat="49.38999" lon="-1.75945">
        <ele>50.2</ele>
        <time>2020-06-12T07:46:43Z</time>
      </trkpt>
      <trkpt lat="49.39" lon="-1.75949">
        <ele>50.3</ele>
        <time>2020-06-12T07:46:44Z</time>
      </trkpt>
      <trkpt lat="49.39001" lon="-1.75953">
        <ele>50.5</ele>
        <time>2020-06-12T07:46:45Z</time>
      </trkpt>
      <trkpt lat="49.39002" lon="-1.75957">
        <ele>50.7</ele>
        <time>2020-06-12T07:46:46Z</time>
      </trkpt>
      <trkpt lat="49.39003" lon="-1.75962">
        <ele>50.9</ele>
        <time>2020-06-12T07:46:47Z</time>
      </trkpt>
      <trkpt lat="49.39004" lon="-1.75966">
        <ele>51</ele>
        <time>2020-06-12T07:46:48Z</time>
      </trkpt>
      <trkpt lat="49.39005" lon="-1.75971">
        <ele>51.2</ele>
        <time>2020-06-12T07:46:49Z</time>
      </trkpt>
      <trkpt lat="49.39006" lon="-1.75975">
        <ele>51.4</ele>
        <time>2020-06-12T07:46:50Z</time>
      </trkpt>
      <trkpt lat="49.39007" lon="-1.75979">
        <ele>51.5</ele>
        <time>2020-06-12T07:46:51Z</time>
      </trkpt>
      <trkpt lat="49.39008" lon="-1.75983">
        <ele>51.7</ele>
        <time>2020-06-12T07:46:52Z</time>
      </trkpt>
      <trkpt lat="49.3901" lon="-1.75989">
        <ele>51.9</ele>
        <time>2020-06-12T07:46:53Z</time>
      </trkpt>
      <trkpt lat="49.3901" lon="-1.75991">
        <ele>52</ele>
        <time>2020-06-12T07:46:54Z</time>
      </trkpt>
      <trkpt lat="49.39012" lon="-1.75996">
        <ele>52.2</ele>
        <time>2020-06-12T07:46:55Z</time>
      </trkpt>
      <trkpt lat="49.39012" lon="-1.75998">
        <ele>52.3</ele>
        <time>2020-06-12T07:46:56Z</time>
      </trkpt>
      <trkpt lat="49.39013" lon="-1.76005">
        <ele>52.5</ele>
        <time>2020-06-12T07:46:57Z</time>
      </trkpt>
      <trkpt lat="49.39013" lon="-1.76007">
        <ele>52.6</ele>
        <time>2020-06-12T07:46:58Z</time>
      </trkpt>
      <trkpt lat="49.39014" lon="-1.76013">
        <ele>52.8</ele>
        <time>2020-06-12T07:46:59Z</time>
      </trkpt>
      <trkpt lat="49.39014" lon="-1.76015">
        <ele>52.8</ele>
        <time>2020-06-12T07:47:00Z</time>
      </trkpt>
      <trkpt lat="49.39014" lon="-1.76019">
        <ele>53</ele>
        <time>2020-06-12T07:47:01Z</time>
      </trkpt>
      <trkpt lat="49.39015" lon="-1.76023">
        <ele>53.1</ele>
        <time>2020-06-12T07:47:02Z</time>
      </trkpt>
      <trkpt lat="49.39016" lon="-1.76028">
        <ele>53.3</ele>
        <time>2020-06-12T07:47:03Z</time>
      </trkpt>
      <trkpt lat="49.39017" lon="-1.76033">
        <ele>53.4</ele>
        <time>2020-06-12T07:47:04Z</time>
      </trkpt>
      <trkpt lat="49.39018" lon="-1.76039">
        <ele>53.6</ele>
        <time>2020-06-12T07:47:05Z</time>
      </trkpt>
      <trkpt lat="49.39018" lon="-1.76041">
        <ele>53.7</ele>
        <time>2020-06-12T07:47:06Z</time>
      </trkpt>
      <trkpt lat="49.39019" lon="-1.76046">
        <ele>53.9</ele>
        <time>2020-06-12T07:47:07Z</time>
      </trkpt>
      <trkpt lat="49.3902" lon="-1.76051">
        <ele>54</ele>
        <time>2020-06-12T07:47:08Z</time>
      </trkpt>
      <trkpt lat="49.39021" lon="-1.76056">
        <ele>54.2</ele>
        <time>2020-06-12T07:47:09Z</time>
      </trkpt>
      <trkpt lat="49.39021" lon="-1.76062">
        <ele>54.4</ele>
        <time>2020-06-12T07:47:10Z</time>
      </trkpt>
      <trkpt lat="49.39022" lon="-1.76066">
        <ele>54.5</ele>
        <time>2020-06-12T07:47:11Z</time>
      </trkpt>
      <trkpt lat="49.39023" lon="-1.76072">
        <ele>54.7</ele>
        <time>2020-06-12T07:47:12Z</time>
      </trkpt>
      <trkpt lat="49.39023" lon="-1.76074">
        <ele>54.7</ele>
        <time>2020-06-12T07:47:13Z</time>
      </trkpt>
      <trkpt lat="49.39024" lon="-1.76079">
        <ele>54.9</ele>
        <time>2020-06-12T07:47:14Z</time>
      </trkpt>
      <trkpt lat="49.39025" lon="-1.76083">
        <ele>55</ele>
        <time>2020-06-12T07:47:15Z</time>
      </trkpt>
      <trkpt lat="49.39025" lon="-1.76087">
        <ele>55.1</ele>
        <time>2020-06-12T07:47:16Z</time>
      </trkpt>
      <trkpt lat="49.39026" lon="-1.76092">
        <ele>55.3</ele>
        <time>2020-06-12T07:47:17Z</time>
      </trkpt>
      <trkpt lat="49.39027" lon="-1.76097">
        <ele>55.4</ele>
        <time>2020-06-12T07:47:18Z</time>
      </trkpt>
      <trkpt lat="49.39028" lon="-1.76102">
        <ele>55.6</ele>
        <time>2020-06-12T07:47:19Z</time>
      </trkpt>
      <trkpt lat="49.39029" lon="-1.76106">
        <ele>55.7</ele>
        <time>2020-06-12T07:47:20Z</time>
      </trkpt>
      <trkpt lat="49.3903" lon="-1.76111">
        <ele>55.9</ele>
        <time>2020-06-12T07:47:21Z</time>
      </trkpt>
      <trkpt lat="49.39031" lon="-1.76116">
        <ele>56.1</ele>
        <time>2020-06-12T07:47:22Z</time>
      </trkpt>
      <trkpt lat="49.39031" lon="-1.76121">
        <ele>56.2</ele>
        <time>2020-06-12T07:47:23Z</time>
      </trkpt>
      <trkpt lat="49.39032" lon="-1.76126">
        <ele>56.4</ele>
        <time>2020-06-12T07:47:24Z</time>
      </trkpt>
      <trkpt lat="49.39033" lon="-1.76131">
        <ele>56.6</ele>
        <time>2020-06-12T07:47:25Z</time>
      </trkpt>
      <trkpt lat="49.39035" lon="-1.76136">
        <ele>57</ele>
        <time>2020-06-12T07:47:26Z</time>
      </trkpt>
      <trkpt lat="49.39036" lon="-1.76141">
        <ele>57.3</ele>
        <time>2020-06-12T07:47:27Z</time>
      </trkpt>
      <trkpt lat="49.39036" lon="-1.76146">
        <ele>57.5</ele>
        <time>2020-06-12T07:47:28Z</time>
      </trkpt>
      <trkpt lat="49.39037" lon="-1.76152">
        <ele>57.7</ele>
        <time>2020-06-12T07:47:29Z</time>
      </trkpt>
      <trkpt lat="49.39037" lon="-1.76157">
        <ele>57.8</ele>
        <time>2020-06-12T07:47:30Z</time>
      </trkpt>
      <trkpt lat="49.39038" lon="-1.76162">
        <ele>57.9</ele>
        <time>2020-06-12T07:47:31Z</time>
      </trkpt>
      <trkpt lat="49.3904" lon="-1.76167">
        <ele>58</ele>
        <time>2020-06-12T07:47:32Z</time>
      </trkpt>
      <trkpt lat="49.39041" lon="-1.76173">
        <ele>58.1</ele>
        <time>2020-06-12T07:47:33Z</time>
      </trkpt>
      <trkpt lat="49.39042" lon="-1.76178">
        <ele>58.3</ele>
        <time>2020-06-12T07:47:34Z</time>
      </trkpt>
      <trkpt lat="49.39042" lon="-1.76184">
        <ele>58.4</ele>
        <time>2020-06-12T07:47:35Z</time>
      </trkpt>
      <trkpt lat="49.39043" lon="-1.7619">
        <ele>58.5</ele>
        <time>2020-06-12T07:47:36Z</time>
      </trkpt>
      <trkpt lat="49.39044" lon="-1.76196">
        <ele>58.6</ele>
        <time>2020-06-12T07:47:37Z</time>
      </trkpt>
      <trkpt lat="49.39045" lon="-1.76202">
        <ele>58.8</ele>
        <time>2020-06-12T07:47:38Z</time>
      </trkpt>
      <trkpt lat="49.39046" lon="-1.76209">
        <ele>58.9</ele>
        <time>2020-06-12T07:47:39Z</time>
      </trkpt>
      <trkpt lat="49.39048" lon="-1.76215">
        <ele>59.1</ele>
        <time>2020-06-12T07:47:40Z</time>
      </trkpt>
      <trkpt lat="49.39049" lon="-1.76221">
        <ele>59.2</ele>
        <time>2020-06-12T07:47:41Z</time>
      </trkpt>
      <trkpt lat="49.3905" lon="-1.76228">
        <ele>59.3</ele>
        <time>2020-06-12T07:47:42Z</time>
      </trkpt>
      <trkpt lat="49.39051" lon="-1.76234">
        <ele>59.5</ele>
        <time>2020-06-12T07:47:43Z</time>
      </trkpt>
      <trkpt lat="49.39052" lon="-1.76241">
        <ele>59.6</ele>
        <time>2020-06-12T07:47:44Z</time>
      </trkpt>
      <trkpt lat="49.39053" lon="-1.76248">
        <ele>59.8</ele>
        <time>2020-06-12T07:47:45Z</time>
      </trkpt>
      <trkpt lat="49.39054" lon="-1.76254">
        <ele>60</ele>
        <time>2020-06-12T07:47:46Z</time>
      </trkpt>
      <trkpt lat="49.39054" lon="-1.76261">
        <ele>60.1</ele>
        <time>2020-06-12T07:47:47Z</time>
      </trkpt>
      <trkpt lat="49.39055" lon="-1.76267">
        <ele>60.3</ele>
        <time>2020-06-12T07:47:48Z</time>
      </trkpt>
      <trkpt lat="49.39057" lon="-1.76275">
        <ele>60.4</ele>
        <time>2020-06-12T07:47:49Z</time>
      </trkpt>
      <trkpt lat="49.39058" lon="-1.76281">
        <ele>60.6</ele>
        <time>2020-06-12T07:47:50Z</time>
      </trkpt>
      <trkpt lat="49.39059" lon="-1.76288">
        <ele>60.7</ele>
        <time>2020-06-12T07:47:51Z</time>
      </trkpt>
      <trkpt lat="49.3906" lon="-1.76295">
        <ele>60.8</ele>
        <time>2020-06-12T07:47:52Z</time>
      </trkpt>
      <trkpt lat="49.39061" lon="-1.76303">
        <ele>61</ele>
        <time>2020-06-12T07:47:53Z</time>
      </trkpt>
      <trkpt lat="49.39062" lon="-1.7631">
        <ele>61.1</ele>
        <time>2020-06-12T07:47:54Z</time>
      </trkpt>
      <trkpt lat="49.39063" lon="-1.76317">
        <ele>61.2</ele>
        <time>2020-06-12T07:47:55Z</time>
      </trkpt>
      <trkpt lat="49.39064" lon="-1.76323">
        <ele>61.4</ele>
        <time>2020-06-12T07:47:56Z</time>
      </trkpt>
      <trkpt lat="49.39065" lon="-1.76331">
        <ele>61.5</ele>
        <time>2020-06-12T07:47:57Z</time>
      </trkpt>
      <trkpt lat="49.39065" lon="-1.7634">
        <ele>61.7</ele>
        <time>2020-06-12T07:47:58Z</time>
      </trkpt>
      <trkpt lat="49.39067" lon="-1.76347">
        <ele>61.8</ele>
        <time>2020-06-12T07:47:59Z</time>
      </trkpt>
      <trkpt lat="49.39068" lon="-1.76354">
        <ele>61.9</ele>
        <time>2020-06-12T07:48:00Z</time>
      </trkpt>
      <trkpt lat="49.39069" lon="-1.76361">
        <ele>62</ele>
        <time>2020-06-12T07:48:01Z</time>
      </trkpt>
      <trkpt lat="49.3907" lon="-1.76369">
        <ele>62.1</ele>
        <time>2020-06-12T07:48:02Z</time>
      </trkpt>
      <trkpt lat="49.39071" lon="-1.76376">
        <ele>62.2</ele>
        <time>2020-06-12T07:48:03Z</time>
      </trkpt>
      <trkpt lat="49.39072" lon="-1.76383">
        <ele>62.3</ele>
        <time>2020-06-12T07:48:04Z</time>
      </trkpt>
      <trkpt lat="49.39073" lon="-1.7639">
        <ele>62.4</ele>
        <time>2020-06-12T07:48:05Z</time>
      </trkpt>
      <trkpt lat="49.39074" lon="-1.76397">
        <ele>62.5</ele>
        <time>2020-06-12T07:48:06Z</time>
      </trkpt>
      <trkpt lat="49.39075" lon="-1.76406">
        <ele>62.7</ele>
        <time>2020-06-12T07:48:07Z</time>
      </trkpt>
      <trkpt lat="49.39075" lon="-1.76414">
        <ele>62.8</ele>
        <time>2020-06-12T07:48:08Z</time>
      </trkpt>
      <trkpt lat="49.39076" lon="-1.76422">
        <ele>62.9</ele>
        <time>2020-06-12T07:48:09Z</time>
      </trkpt>
      <trkpt lat="49.39078" lon="-1.76429">
        <ele>63</ele>
        <time>2020-06-12T07:48:10Z</time>
      </trkpt>
      <trkpt lat="49.39079" lon="-1.76437">
        <ele>63.1</ele>
        <time>2020-06-12T07:48:11Z</time>
      </trkpt>
      <trkpt lat="49.3908" lon="-1.76444">
        <ele>63.2</ele>
        <time>2020-06-12T07:48:12Z</time>
      </trkpt>
      <trkpt lat="49.39081" lon="-1.76452">
        <ele>63.3</ele>
        <time>2020-06-12T07:48:13Z</time>
      </trkpt>
      <trkpt lat="49.39082" lon="-1.7646">
        <ele>63.5</ele>
        <time>2020-06-12T07:48:14Z</time>
      </trkpt>
      <trkpt lat="49.39083" lon="-1.76467">
        <ele>63.6</ele>
        <time>2020-06-12T07:48:15Z</time>
      </trkpt>
      <trkpt lat="49.39083" lon="-1.76475">
        <ele>63.7</ele>
        <time>2020-06-12T07:48:16Z</time>
      </trkpt>
      <trkpt lat="49.39084" lon="-1.76482">
        <ele>63.7</ele>
        <time>2020-06-12T07:48:17Z</time>
      </trkpt>
      <trkpt lat="49.39085" lon="-1.7649">
        <ele>63.8</ele>
        <time>2020-06-12T07:48:18Z</time>
      </trkpt>
      <trkpt lat="49.39086" lon="-1.76497">
        <ele>63.9</ele>
        <time>2020-06-12T07:48:19Z</time>
      </trkpt>
      <trkpt lat="49.39087" lon="-1.76505">
        <ele>64</ele>
        <time>2020-06-12T07:48:20Z</time>
      </trkpt>
      <trkpt lat="49.39088" lon="-1.76513">
        <ele>64.1</ele>
        <time>2020-06-12T07:48:21Z</time>
      </trkpt>
      <trkpt lat="49.39089" lon="-1.76521">
        <ele>64.2</ele>
        <time>2020-06-12T07:48:22Z</time>
      </trkpt>
      <trkpt lat="49.3909" lon="-1.76528">
        <ele>64.3</ele>
        <time>2020-06-12T07:48:23Z</time>
      </trkpt>
      <trkpt lat="49.39091" lon="-1.76536">
        <ele>64.4</ele>
        <time>2020-06-12T07:48:24Z</time>
      </trkpt>
      <trkpt lat="49.39092" lon="-1.76543">
        <ele>64.5</ele>
        <time>2020-06-12T07:48:25Z</time>
      </trkpt>
      <trkpt lat="49.39093" lon="-1.76551">
        <ele>64.6</ele>
        <time>2020-06-12T07:48:26Z</time>
      </trkpt>
      <trkpt lat="49.39094" lon="-1.76559">
        <ele>64.7</ele>
        <time>2020-06-12T07:48:27Z</time>
      </trkpt>
      <trkpt lat="49.39094" lon="-1.76566">
        <ele>64.8</ele>
        <time>2020-06-12T07:48:28Z</time>
      </trkpt>
      <trkpt lat="49.39095" lon="-1.76573">
        <ele>64.9</ele>
        <time>2020-06-12T07:48:29Z</time>
      </trkpt>
      <trkpt lat="49.39096" lon="-1.7658">
        <ele>65.1</ele>
        <time>2020-06-12T07:48:30Z</time>
      </trkpt>
      <trkpt lat="49.39098" lon="-1.76588">
        <ele>65.2</ele>
        <time>2020-06-12T07:48:31Z</time>
      </trkpt>
      <trkpt lat="49.39099" lon="-1.76597">
        <ele>65.3</ele>
        <time>2020-06-12T07:48:32Z</time>
      </trkpt>
      <trkpt lat="49.391" lon="-1.76606">
        <ele>65.5</ele>
        <time>2020-06-12T07:48:33Z</time>
      </trkpt>
      <trkpt lat="49.39101" lon="-1.76614">
        <ele>65.6</ele>
        <time>2020-06-12T07:48:34Z</time>
      </trkpt>
      <trkpt lat="49.39102" lon="-1.76622">
        <ele>65.7</ele>
        <time>2020-06-12T07:48:35Z</time>
      </trkpt>
      <trkpt lat="49.39103" lon="-1.7663">
        <ele>65.8</ele>
        <time>2020-06-12T07:48:36Z</time>
      </trkpt>
      <trkpt lat="49.39104" lon="-1.76638">
        <ele>66</ele>
        <time>2020-06-12T07:48:37Z</time>
      </trkpt>
      <trkpt lat="49.39106" lon="-1.76645">
        <ele>66.1</ele>
        <time>2020-06-12T07:48:38Z</time>
      </trkpt>
      <trkpt lat="49.39107" lon="-1.76652">
        <ele>66.2</ele>
        <time>2020-06-12T07:48:39Z</time>
      </trkpt>
      <trkpt lat="49.39108" lon="-1.76659">
        <ele>66.2</ele>
        <time>2020-06-12T07:48:40Z</time>
      </trkpt>
      <trkpt lat="49.3911" lon="-1.76666">
        <ele>66.3</ele>
        <time>2020-06-12T07:48:41Z</time>
      </trkpt>
      <trkpt lat="49.3911" lon="-1.76673">
        <ele>66.4</ele>
        <time>2020-06-12T07:48:42Z</time>
      </trkpt>
      <trkpt lat="49.39111" lon="-1.7668">
        <ele>66.5</ele>
        <time>2020-06-12T07:48:43Z</time>
      </trkpt>
      <trkpt lat="49.39112" lon="-1.76687">
        <ele>66.6</ele>
        <time>2020-06-12T07:48:44Z</time>
      </trkpt>
      <trkpt lat="49.39114" lon="-1.76694">
        <ele>66.7</ele>
        <time>2020-06-12T07:48:45Z</time>
      </trkpt>
      <trkpt lat="49.39115" lon="-1.76701">
        <ele>66.8</ele>
        <time>2020-06-12T07:48:46Z</time>
      </trkpt>
      <trkpt lat="49.39116" lon="-1.76708">
        <ele>66.9</ele>
        <time>2020-06-12T07:48:47Z</time>
      </trkpt>
      <trkpt lat="49.39118" lon="-1.76715">
        <ele>67</ele>
        <time>2020-06-12T07:48:48Z</time>
      </trkpt>
      <trkpt lat="49.39119" lon="-1.76723">
        <ele>67.2</ele>
        <time>2020-06-12T07:48:49Z</time>
      </trkpt>
      <trkpt lat="49.39121" lon="-1.7673">
        <ele>67.3</ele>
        <time>2020-06-12T07:48:50Z</time>
      </trkpt>
      <trkpt lat="49.39122" lon="-1.76737">
        <ele>67.4</ele>
        <time>2020-06-12T07:48:51Z</time>
      </trkpt>
      <trkpt lat="49.39123" lon="-1.76744">
        <ele>67.6</ele>
        <time>2020-06-12T07:48:52Z</time>
      </trkpt>
      <trkpt lat="49.39125" lon="-1.76751">
        <ele>67.7</ele>
        <time>2020-06-12T07:48:53Z</time>
      </trkpt>
      <trkpt lat="49.39126" lon="-1.76758">
        <ele>67.9</ele>
        <time>2020-06-12T07:48:54Z</time>
      </trkpt>
      <trkpt lat="49.39128" lon="-1.76767">
        <ele>68</ele>
        <time>2020-06-12T07:48:55Z</time>
      </trkpt>
      <trkpt lat="49.39129" lon="-1.76775">
        <ele>68.2</ele>
        <time>2020-06-12T07:48:56Z</time>
      </trkpt>
      <trkpt lat="49.3913" lon="-1.76783">
        <ele>68.6</ele>
        <time>2020-06-12T07:48:57Z</time>
      </trkpt>
      <trkpt lat="49.39132" lon="-1.76792">
        <ele>68.9</ele>
        <time>2020-06-12T07:48:58Z</time>
      </trkpt>
      <trkpt lat="49.39134" lon="-1.768">
        <ele>69.1</ele>
        <time>2020-06-12T07:48:59Z</time>
      </trkpt>
      <trkpt lat="49.39135" lon="-1.76807">
        <ele>69.2</ele>
        <time>2020-06-12T07:49:00Z</time>
      </trkpt>
      <trkpt lat="49.39137" lon="-1.76814">
        <ele>69.3</ele>
        <time>2020-06-12T07:49:01Z</time>
      </trkpt>
      <trkpt lat="49.39139" lon="-1.76821">
        <ele>69.4</ele>
        <time>2020-06-12T07:49:02Z</time>
      </trkpt>
      <trkpt lat="49.39141" lon="-1.76829">
        <ele>69.5</ele>
        <time>2020-06-12T07:49:03Z</time>
      </trkpt>
      <trkpt lat="49.39143" lon="-1.76838">
        <ele>69.7</ele>
        <time>2020-06-12T07:49:04Z</time>
      </trkpt>
      <trkpt lat="49.39144" lon="-1.76845">
        <ele>69.8</ele>
        <time>2020-06-12T07:49:05Z</time>
      </trkpt>
      <trkpt lat="49.39146" lon="-1.76853">
        <ele>70</ele>
        <time>2020-06-12T07:49:06Z</time>
      </trkpt>
      <trkpt lat="49.39149" lon="-1.76861">
        <ele>70.1</ele>
        <time>2020-06-12T07:49:07Z</time>
      </trkpt>
      <trkpt lat="49.39151" lon="-1.76868">
        <ele>70.2</ele>
        <time>2020-06-12T07:49:08Z</time>
      </trkpt>
      <trkpt lat="49.39153" lon="-1.76876">
        <ele>70.4</ele>
        <time>2020-06-12T07:49:09Z</time>
      </trkpt>
      <trkpt lat="49.39155" lon="-1.76883">
        <ele>70.5</ele>
        <time>2020-06-12T07:49:10Z</time>
      </trkpt>
      <trkpt lat="49.39157" lon="-1.7689">
        <ele>70.6</ele>
        <time>2020-06-12T07:49:11Z</time>
      </trkpt>
      <trkpt lat="49.39159" lon="-1.76898">
        <ele>70.7</ele>
        <time>2020-06-12T07:49:12Z</time>
      </trkpt>
      <trkpt lat="49.39162" lon="-1.76905">
        <ele>70.9</ele>
        <time>2020-06-12T07:49:13Z</time>
      </trkpt>
      <trkpt lat="49.39164" lon="-1.76912">
        <ele>71</ele>
        <time>2020-06-12T07:49:14Z</time>
      </trkpt>
      <trkpt lat="49.39166" lon="-1.76919">
        <ele>71.1</ele>
        <time>2020-06-12T07:49:15Z</time>
      </trkpt>
      <trkpt lat="49.39168" lon="-1.76926">
        <ele>71.2</ele>
        <time>2020-06-12T07:49:16Z</time>
      </trkpt>
      <trkpt lat="49.3917" lon="-1.76933">
        <ele>71.4</ele>
        <time>2020-06-12T07:49:17Z</time>
      </trkpt>
      <trkpt lat="49.39172" lon="-1.7694">
        <ele>71.5</ele>
        <time>2020-06-12T07:49:18Z</time>
      </trkpt>
      <trkpt lat="49.39174" lon="-1.76946">
        <ele>71.6</ele>
        <time>2020-06-12T07:49:19Z</time>
      </trkpt>
      <trkpt lat="49.39177" lon="-1.76953">
        <ele>71.7</ele>
        <time>2020-06-12T07:49:20Z</time>
      </trkpt>
      <trkpt lat="49.39179" lon="-1.76959">
        <ele>71.8</ele>
        <time>2020-06-12T07:49:21Z</time>
      </trkpt>
      <trkpt lat="49.3918" lon="-1.76965">
        <ele>71.9</ele>
        <time>2020-06-12T07:49:22Z</time>
      </trkpt>
      <trkpt lat="49.39183" lon="-1.76973">
        <ele>72</ele>
        <time>2020-06-12T07:49:23Z</time>
      </trkpt>
      <trkpt lat="49.39185" lon="-1.7698">
        <ele>72.1</ele>
        <time>2020-06-12T07:49:24Z</time>
      </trkpt>
      <trkpt lat="49.39187" lon="-1.76986">
        <ele>72.2</ele>
        <time>2020-06-12T07:49:25Z</time>
      </trkpt>
      <trkpt lat="49.39189" lon="-1.76993">
        <ele>72.3</ele>
        <time>2020-06-12T07:49:26Z</time>
      </trkpt>
      <trkpt lat="49.39191" lon="-1.77001">
        <ele>72.4</ele>
        <time>2020-06-12T07:49:27Z</time>
      </trkpt>
      <trkpt lat="49.39195" lon="-1.77009">
        <ele>72.5</ele>
        <time>2020-06-12T07:49:28Z</time>
      </trkpt>
      <trkpt lat="49.39197" lon="-1.77015">
        <ele>72.7</ele>
        <time>2020-06-12T07:49:29Z</time>
      </trkpt>
      <trkpt lat="49.39199" lon="-1.77021">
        <ele>72.8</ele>
        <time>2020-06-12T07:49:30Z</time>
      </trkpt>
      <trkpt lat="49.39201" lon="-1.77028">
        <ele>72.9</ele>
        <time>2020-06-12T07:49:31Z</time>
      </trkpt>
      <trkpt lat="49.39204" lon="-1.77034">
        <ele>73.1</ele>
        <time>2020-06-12T07:49:32Z</time>
      </trkpt>
      <trkpt lat="49.39206" lon="-1.7704">
        <ele>73.2</ele>
        <time>2020-06-12T07:49:33Z</time>
      </trkpt>
      <trkpt lat="49.39208" lon="-1.77047">
        <ele>73.3</ele>
        <time>2020-06-12T07:49:34Z</time>
      </trkpt>
      <trkpt lat="49.39211" lon="-1.77054">
        <ele>73.5</ele>
        <time>2020-06-12T07:49:35Z</time>
      </trkpt>
      <trkpt lat="49.39213" lon="-1.77061">
        <ele>73.6</ele>
        <time>2020-06-12T07:49:36Z</time>
      </trkpt>
      <trkpt lat="49.39216" lon="-1.77068">
        <ele>73.8</ele>
        <time>2020-06-12T07:49:37Z</time>
      </trkpt>
      <trkpt lat="49.39218" lon="-1.77075">
        <ele>73.9</ele>
        <time>2020-06-12T07:49:38Z</time>
      </trkpt>
      <trkpt lat="49.3922" lon="-1.77081">
        <ele>74</ele>
        <time>2020-06-12T07:49:39Z</time>
      </trkpt>
      <trkpt lat="49.39222" lon="-1.77086">
        <ele>74</ele>
        <time>2020-06-12T07:49:40Z</time>
      </trkpt>
      <trkpt lat="49.39225" lon="-1.77093">
        <ele>74.1</ele>
        <time>2020-06-12T07:49:41Z</time>
      </trkpt>
      <trkpt lat="49.39227" lon="-1.77101">
        <ele>74.2</ele>
        <time>2020-06-12T07:49:42Z</time>
      </trkpt>
      <trkpt lat="49.39229" lon="-1.77108">
        <ele>74.3</ele>
        <time>2020-06-12T07:49:43Z</time>
      </trkpt>
      <trkpt lat="49.39232" lon="-1.77114">
        <ele>74.4</ele>
        <time>2020-06-12T07:49:44Z</time>
      </trkpt>
      <trkpt lat="49.39233" lon="-1.7712">
        <ele>74.5</ele>
        <time>2020-06-12T07:49:45Z</time>
      </trkpt>
      <trkpt lat="49.39235" lon="-1.77127">
        <ele>74.5</ele>
        <time>2020-06-12T07:49:46Z</time>
      </trkpt>
      <trkpt lat="49.39238" lon="-1.77135">
        <ele>74.6</ele>
        <time>2020-06-12T07:49:47Z</time>
      </trkpt>
      <trkpt lat="49.3924" lon="-1.77141">
        <ele>74.7</ele>
        <time>2020-06-12T07:49:48Z</time>
      </trkpt>
      <trkpt lat="49.39242" lon="-1.77148">
        <ele>74.8</ele>
        <time>2020-06-12T07:49:49Z</time>
      </trkpt>
      <trkpt lat="49.39245" lon="-1.77155">
        <ele>74.9</ele>
        <time>2020-06-12T07:49:50Z</time>
      </trkpt>
      <trkpt lat="49.39247" lon="-1.77162">
        <ele>75</ele>
        <time>2020-06-12T07:49:51Z</time>
      </trkpt>
      <trkpt lat="49.3925" lon="-1.77169">
        <ele>75.2</ele>
        <time>2020-06-12T07:49:52Z</time>
      </trkpt>
      <trkpt lat="49.39252" lon="-1.77176">
        <ele>75.3</ele>
        <time>2020-06-12T07:49:53Z</time>
      </trkpt>
      <trkpt lat="49.39254" lon="-1.77183">
        <ele>75.4</ele>
        <time>2020-06-12T07:49:54Z</time>
      </trkpt>
      <trkpt lat="49.39257" lon="-1.7719">
        <ele>75.5</ele>
        <time>2020-06-12T07:49:55Z</time>
      </trkpt>
      <trkpt lat="49.3926" lon="-1.77198">
        <ele>75.6</ele>
        <time>2020-06-12T07:49:56Z</time>
      </trkpt>
      <trkpt lat="49.39263" lon="-1.77204">
        <ele>75.7</ele>
        <time>2020-06-12T07:49:57Z</time>
      </trkpt>
      <trkpt lat="49.39265" lon="-1.7721">
        <ele>75.8</ele>
        <time>2020-06-12T07:49:58Z</time>
      </trkpt>
      <trkpt lat="49.39268" lon="-1.77219">
        <ele>75.9</ele>
        <time>2020-06-12T07:49:59Z</time>
      </trkpt>
      <trkpt lat="49.39271" lon="-1.77226">
        <ele>76</ele>
        <time>2020-06-12T07:50:00Z</time>
      </trkpt>
      <trkpt lat="49.39273" lon="-1.77233">
        <ele>76.1</ele>
        <time>2020-06-12T07:50:01Z</time>
      </trkpt>
      <trkpt lat="49.39276" lon="-1.7724">
        <ele>76.2</ele>
        <time>2020-06-12T07:50:02Z</time>
      </trkpt>
      <trkpt lat="49.39278" lon="-1.77247">
        <ele>76.3</ele>
        <time>2020-06-12T07:50:03Z</time>
      </trkpt>
      <trkpt lat="49.3928" lon="-1.77253">
        <ele>76.3</ele>
        <time>2020-06-12T07:50:04Z</time>
      </trkpt>
      <trkpt lat="49.39283" lon="-1.7726">
        <ele>76.4</ele>
        <time>2020-06-12T07:50:05Z</time>
      </trkpt>
      <trkpt lat="49.39286" lon="-1.77266">
        <ele>76.6</ele>
        <time>2020-06-12T07:50:06Z</time>
      </trkpt>
      <trkpt lat="49.39288" lon="-1.77272">
        <ele>76.7</ele>
        <time>2020-06-12T07:50:07Z</time>
      </trkpt>
      <trkpt lat="49.39291" lon="-1.7728">
        <ele>76.8</ele>
        <time>2020-06-12T07:50:08Z</time>
      </trkpt>
      <trkpt lat="49.39293" lon="-1.77287">
        <ele>76.9</ele>
        <time>2020-06-12T07:50:09Z</time>
      </trkpt>
      <trkpt lat="49.39295" lon="-1.77294">
        <ele>77.1</ele>
        <time>2020-06-12T07:50:10Z</time>
      </trkpt>
      <trkpt lat="49.39298" lon="-1.77301">
        <ele>77.2</ele>
        <time>2020-06-12T07:50:11Z</time>
      </trkpt>
      <trkpt lat="49.39301" lon="-1.77308">
        <ele>77.3</ele>
        <time>2020-06-12T07:50:12Z</time>
      </trkpt>
      <trkpt lat="49.39303" lon="-1.77314">
        <ele>77.4</ele>
        <time>2020-06-12T07:50:13Z</time>
      </trkpt>
      <trkpt lat="49.39305" lon="-1.7732">
        <ele>77.6</ele>
        <time>2020-06-12T07:50:14Z</time>
      </trkpt>
      <trkpt lat="49.39308" lon="-1.77326">
        <ele>77.7</ele>
        <time>2020-06-12T07:50:15Z</time>
      </trkpt>
      <trkpt lat="49.39311" lon="-1.77333">
        <ele>77.8</ele>
        <time>2020-06-12T07:50:16Z</time>
      </trkpt>
      <trkpt lat="49.39313" lon="-1.7734">
        <ele>77.9</ele>
        <time>2020-06-12T07:50:17Z</time>
      </trkpt>
      <trkpt lat="49.39316" lon="-1.77347">
        <ele>78</ele>
        <time>2020-06-12T07:50:18Z</time>
      </trkpt>
      <trkpt lat="49.39319" lon="-1.77353">
        <ele>78.1</ele>
        <time>2020-06-12T07:50:19Z</time>
      </trkpt>
      <trkpt lat="49.39321" lon="-1.7736">
        <ele>78.2</ele>
        <time>2020-06-12T07:50:20Z</time>
      </trkpt>
      <trkpt lat="49.39324" lon="-1.77366">
        <ele>78.3</ele>
        <time>2020-06-12T07:50:21Z</time>
      </trkpt>
      <trkpt lat="49.39326" lon="-1.77373">
        <ele>78.4</ele>
        <time>2020-06-12T07:50:22Z</time>
      </trkpt>
      <trkpt lat="49.39328" lon="-1.77379">
        <ele>78.5</ele>
        <time>2020-06-12T07:50:23Z</time>
      </trkpt>
      <trkpt lat="49.3933" lon="-1.77385">
        <ele>78.6</ele>
        <time>2020-06-12T07:50:24Z</time>
      </trkpt>
      <trkpt lat="49.39333" lon="-1.77395">
        <ele>78.7</ele>
        <time>2020-06-12T07:50:25Z</time>
      </trkpt>
      <trkpt lat="49.39335" lon="-1.77401">
        <ele>78.8</ele>
        <time>2020-06-12T07:50:26Z</time>
      </trkpt>
      <trkpt lat="49.39338" lon="-1.77408">
        <ele>78.9</ele>
        <time>2020-06-12T07:50:27Z</time>
      </trkpt>
      <trkpt lat="49.3934" lon="-1.77415">
        <ele>79</ele>
        <time>2020-06-12T07:50:28Z</time>
      </trkpt>
      <trkpt lat="49.39344" lon="-1.77424">
        <ele>79.2</ele>
        <time>2020-06-12T07:50:29Z</time>
      </trkpt>
      <trkpt lat="49.39346" lon="-1.77431">
        <ele>79.2</ele>
        <time>2020-06-12T07:50:30Z</time>
      </trkpt>
      <trkpt lat="49.39348" lon="-1.77438">
        <ele>79.3</ele>
        <time>2020-06-12T07:50:31Z</time>
      </trkpt>
      <trkpt lat="49.39351" lon="-1.77445">
        <ele>79.4</ele>
        <time>2020-06-12T07:50:32Z</time>
      </trkpt>
      <trkpt lat="49.39354" lon="-1.77452">
        <ele>79.5</ele>
        <time>2020-06-12T07:50:33Z</time>
      </trkpt>
      <trkpt lat="49.39356" lon="-1.77459">
        <ele>79.6</ele>
        <time>2020-06-12T07:50:34Z</time>
      </trkpt>
      <trkpt lat="49.39359" lon="-1.77466">
        <ele>79.7</ele>
        <time>2020-06-12T07:50:35Z</time>
      </trkpt>
      <trkpt lat="49.39361" lon="-1.77472">
        <ele>79.8</ele>
        <time>2020-06-12T07:50:36Z</time>
      </trkpt>
      <trkpt lat="49.39364" lon="-1.77479">
        <ele>79.9</ele>
        <time>2020-06-12T07:50:37Z</time>
      </trkpt>
      <trkpt lat="49.39366" lon="-1.77485">
        <ele>80</ele>
        <time>2020-06-12T07:50:38Z</time>
      </trkpt>
      <trkpt lat="49.39369" lon="-1.77491">
        <ele>80</ele>
        <time>2020-06-12T07:50:39Z</time>
      </trkpt>
      <trkpt lat="49.39372" lon="-1.77499">
        <ele>80.2</ele>
        <time>2020-06-12T07:50:40Z</time>
      </trkpt>
      <trkpt lat="49.39374" lon="-1.77505">
        <ele>80.3</ele>
        <time>2020-06-12T07:50:41Z</time>
      </trkpt>
      <trkpt lat="49.39377" lon="-1.77512">
        <ele>80.4</ele>
        <time>2020-06-12T07:50:42Z</time>
      </trkpt>
      <trkpt lat="49.3938" lon="-1.77519">
        <ele>80.5</ele>
        <time>2020-06-12T07:50:43Z</time>
      </trkpt>
      <trkpt lat="49.39383" lon="-1.77525">
        <ele>80.7</ele>
        <time>2020-06-12T07:50:44Z</time>
      </trkpt>
      <trkpt lat="49.39385" lon="-1.77531">
        <ele>80.8</ele>
        <time>2020-06-12T07:50:45Z</time>
      </trkpt>
      <trkpt lat="49.39388" lon="-1.77538">
        <ele>80.9</ele>
        <time>2020-06-12T07:50:46Z</time>
      </trkpt>
      <trkpt lat="49.39391" lon="-1.77544">
        <ele>81</ele>
        <time>2020-06-12T07:50:47Z</time>
      </trkpt>
      <trkpt lat="49.39395" lon="-1.7755">
        <ele>81.1</ele>
        <time>2020-06-12T07:50:48Z</time>
      </trkpt>
      <trkpt lat="49.39398" lon="-1.77554">
        <ele>81.2</ele>
        <time>2020-06-12T07:50:49Z</time>
      </trkpt>
      <trkpt lat="49.39402" lon="-1.77558">
        <ele>81.4</ele>
        <time>2020-06-12T07:50:50Z</time>
      </trkpt>
      <trkpt lat="49.39406" lon="-1.77562">
        <ele>81.5</ele>
        <time>2020-06-12T07:50:51Z</time>
      </trkpt>
      <trkpt lat="49.3941" lon="-1.77567">
        <ele>81.7</ele>
        <time>2020-06-12T07:50:52Z</time>
      </trkpt>
      <trkpt lat="49.39414" lon="-1.77571">
        <ele>81.9</ele>
        <time>2020-06-12T07:50:53Z</time>
      </trkpt>
      <trkpt lat="49.39418" lon="-1.77573">
        <ele>82.4</ele>
        <time>2020-06-12T07:50:54Z</time>
      </trkpt>
      <trkpt lat="49.39422" lon="-1.77576">
        <ele>82.4</ele>
        <time>2020-06-12T07:50:55Z</time>
      </trkpt>
      <trkpt lat="49.39426" lon="-1.77578">
        <ele>82.4</ele>
        <time>2020-06-12T07:50:56Z</time>
      </trkpt>
      <trkpt lat="49.39431" lon="-1.7758">
        <ele>82.4</ele>
        <time>2020-06-12T07:50:57Z</time>
      </trkpt>
      <trkpt lat="49.39435" lon="-1.77581">
        <ele>82.4</ele>
        <time>2020-06-12T07:50:58Z</time>
      </trkpt>
      <trkpt lat="49.3944" lon="-1.77582">
        <ele>82.4</ele>
        <time>2020-06-12T07:50:59Z</time>
      </trkpt>
      <trkpt lat="49.39444" lon="-1.77583">
        <ele>82.4</ele>
        <time>2020-06-12T07:51:00Z</time>
      </trkpt>
      <trkpt lat="49.39449" lon="-1.77584">
        <ele>82.4</ele>
        <time>2020-06-12T07:51:01Z</time>
      </trkpt>
      <trkpt lat="49.39454" lon="-1.77585">
        <ele>82.4</ele>
        <time>2020-06-12T07:51:02Z</time>
      </trkpt>
      <trkpt lat="49.39459" lon="-1.77586">
        <ele>82.4</ele>
        <time>2020-06-12T07:51:03Z</time>
      </trkpt>
      <trkpt lat="49.39465" lon="-1.77587">
        <ele>82.4</ele>
        <time>2020-06-12T07:51:04Z</time>
      </trkpt>
      <trkpt lat="49.3947" lon="-1.77589">
        <ele>82.3</ele>
        <time>2020-06-12T07:51:05Z</time>
      </trkpt>
      <trkpt lat="49.39476" lon="-1.77589">
        <ele>82.3</ele>
        <time>2020-06-12T07:51:06Z</time>
      </trkpt>
      <trkpt lat="49.39481" lon="-1.7759">
        <ele>82.2</ele>
        <time>2020-06-12T07:51:07Z</time>
      </trkpt>
      <trkpt lat="49.39485" lon="-1.77591">
        <ele>82.1</ele>
        <time>2020-06-12T07:51:08Z</time>
      </trkpt>
      <trkpt lat="49.39491" lon="-1.77591">
        <ele>82.1</ele>
        <time>2020-06-12T07:51:09Z</time>
      </trkpt>
      <trkpt lat="49.39496" lon="-1.77592">
        <ele>82</ele>
        <time>2020-06-12T07:51:10Z</time>
      </trkpt>
      <trkpt lat="49.39502" lon="-1.77593">
        <ele>81.9</ele>
        <time>2020-06-12T07:51:11Z</time>
      </trkpt>
      <trkpt lat="49.39508" lon="-1.77594">
        <ele>81.7</ele>
        <time>2020-06-12T07:51:12Z</time>
      </trkpt>
      <trkpt lat="49.39514" lon="-1.77595">
        <ele>81.6</ele>
        <time>2020-06-12T07:51:13Z</time>
      </trkpt>
      <trkpt lat="49.3952" lon="-1.77595">
        <ele>81.4</ele>
        <time>2020-06-12T07:51:14Z</time>
      </trkpt>
      <trkpt lat="49.39525" lon="-1.77596">
        <ele>81.3</ele>
        <time>2020-06-12T07:51:15Z</time>
      </trkpt>
      <trkpt lat="49.39531" lon="-1.77597">
        <ele>81.2</ele>
        <time>2020-06-12T07:51:16Z</time>
      </trkpt>
      <trkpt lat="49.39537" lon="-1.77599">
        <ele>81.1</ele>
        <time>2020-06-12T07:51:17Z</time>
      </trkpt>
      <trkpt lat="49.39543" lon="-1.776">
        <ele>81</ele>
        <time>2020-06-12T07:51:18Z</time>
      </trkpt>
      <trkpt lat="49.39548" lon="-1.77601">
        <ele>80.9</ele>
        <time>2020-06-12T07:51:19Z</time>
      </trkpt>
      <trkpt lat="49.39554" lon="-1.77603">
        <ele>80.9</ele>
        <time>2020-06-12T07:51:20Z</time>
      </trkpt>
      <trkpt lat="49.39559" lon="-1.77605">
        <ele>80.9</ele>
        <time>2020-06-12T07:51:21Z</time>
      </trkpt>
      <trkpt lat="49.39564" lon="-1.77606">
        <ele>80.8</ele>
        <time>2020-06-12T07:51:22Z</time>
      </trkpt>
      <trkpt lat="49.39569" lon="-1.77608">
        <ele>80.8</ele>
        <time>2020-06-12T07:51:23Z</time>
      </trkpt>
      <trkpt lat="49.39573" lon="-1.7761">
        <ele>80.8</ele>
        <time>2020-06-12T07:51:24Z</time>
      </trkpt>
      <trkpt lat="49.39577" lon="-1.77612">
        <ele>80.8</ele>
        <time>2020-06-12T07:51:25Z</time>
      </trkpt>
      <trkpt lat="49.39581" lon="-1.77614">
        <ele>80.8</ele>
        <time>2020-06-12T07:51:26Z</time>
      </trkpt>
      <trkpt lat="49.39584" lon="-1.77616">
        <ele>80.8</ele>
        <time>2020-06-12T07:51:27Z</time>
      </trkpt>
      <trkpt lat="49.39587" lon="-1.77617">
        <ele>80.8</ele>
        <time>2020-06-12T07:51:28Z</time>
      </trkpt>
      <trkpt lat="49.3959" lon="-1.77619">
        <ele>80.8</ele>
        <time>2020-06-12T07:51:29Z</time>
      </trkpt>
      <trkpt lat="49.39591" lon="-1.7762">
        <ele>80.8</ele>
        <time>2020-06-12T07:51:30Z</time>
      </trkpt>
      <trkpt lat="49.39591" lon="-1.7762">
        <ele>80.8</ele>
        <time>2020-06-12T07:51:31Z</time>
      </trkpt>
      <trkpt lat="49.39592" lon="-1.7762">
        <ele>80.7</ele>
        <time>2020-06-12T07:51:32Z</time>
      </trkpt>
      <trkpt lat="49.39593" lon="-1.7762">
        <ele>80.7</ele>
        <time>2020-06-12T07:51:33Z</time>
      </trkpt>
      <trkpt lat="49.39594" lon="-1.77621">
        <ele>80.7</ele>
        <time>2020-06-12T07:51:34Z</time>
      </trkpt>
      <trkpt lat="49.39595" lon="-1.77621">
        <ele>80.7</ele>
        <time>2020-06-12T07:51:35Z</time>
      </trkpt>
      <trkpt lat="49.39595" lon="-1.77621">
        <ele>80.7</ele>
        <time>2020-06-12T07:51:36Z</time>
      </trkpt>
      <trkpt lat="49.39595" lon="-1.7762">
        <ele>80.7</ele>
        <time>2020-06-12T07:51:37Z</time>
      </trkpt>
      <trkpt lat="49.39595" lon="-1.7762">
        <ele>80.7</ele>
        <time>2020-06-12T07:51:38Z</time>
      </trkpt>
      <trkpt lat="49.39596" lon="-1.7762">
        <ele>80.7</ele>
        <time>2020-06-12T07:51:39Z</time>
      </trkpt>
      <trkpt lat="49.39596" lon="-1.77621">
        <ele>80.7</ele>
        <time>2020-06-12T07:51:40Z</time>
      </trkpt>
      <trkpt lat="49.39596" lon="-1.77621">
        <ele>80.7</ele>
        <time>2020-06-12T07:51:41Z</time>
      </trkpt>
      <trkpt lat="49.39596" lon="-1.77621">
        <ele>80.7</ele>
        <time>2020-06-12T07:51:42Z</time>
      </trkpt>
      <trkpt lat="49.39596" lon="-1.77621">
        <ele>80.7</ele>
        <time>2020-06-12T07:51:43Z</time>
      </trkpt>
      <trkpt lat="49.39596" lon="-1.77621">
        <ele>80.7</ele>
        <time>2020-06-12T07:51:44Z</time>
      </trkpt>
      <trkpt lat="49.39596" lon="-1.77622">
        <ele>80.7</ele>
        <time>2020-06-12T07:51:45Z</time>
      </trkpt>
      <trkpt lat="49.39596" lon="-1.77621">
        <ele>80.7</ele>
        <time>2020-06-12T07:51:46Z</time>
      </trkpt>
      <trkpt lat="49.39596" lon="-1.77622">
        <ele>80.7</ele>
        <time>2020-06-12T07:51:47Z</time>
      </trkpt>
      <trkpt lat="49.39595" lon="-1.77622">
        <ele>80.7</ele>
        <time>2020-06-12T07:51:48Z</time>
      </trkpt>
      <trkpt lat="49.39595" lon="-1.77622">
        <ele>80.7</ele>
        <time>2020-06-12T07:51:49Z</time>
      </trkpt>
      <trkpt lat="49.39595" lon="-1.77622">
        <ele>80.7</ele>
        <time>2020-06-12T07:51:50Z</time>
      </trkpt>
      <trkpt lat="49.39595" lon="-1.77622">
        <ele>80.7</ele>
        <time>2020-06-12T07:51:51Z</time>
      </trkpt>
      <trkpt lat="49.39594" lon="-1.77622">
        <ele>80.7</ele>
        <time>2020-06-12T07:51:52Z</time>
      </trkpt>
      <trkpt lat="49.39594" lon="-1.77622">
        <ele>80.7</ele>
        <time>2020-06-12T07:51:53Z</time>
      </trkpt>
      <trkpt lat="49.39593" lon="-1.77622">
        <ele>80.7</ele>
        <time>2020-06-12T07:51:54Z</time>
      </trkpt>
      <trkpt lat="49.39594" lon="-1.77621">
        <ele>80.7</ele>
        <time>2020-06-12T07:51:55Z</time>
      </trkpt>
      <trkpt lat="49.39594" lon="-1.77621">
        <ele>80.7</ele>
        <time>2020-06-12T07:51:56Z</time>
      </trkpt>
      <trkpt lat="49.39594" lon="-1.77622">
        <ele>80.7</ele>
        <time>2020-06-12T07:51:57Z</time>
      </trkpt>
      <trkpt lat="49.39594" lon="-1.77622">
        <ele>80.7</ele>
        <time>2020-06-12T07:51:58Z</time>
      </trkpt>
      <trkpt lat="49.39595" lon="-1.77624">
        <ele>80.7</ele>
        <time>2020-06-12T07:51:59Z</time>
      </trkpt>
      <trkpt lat="49.39595" lon="-1.77625">
        <ele>80.7</ele>
        <time>2020-06-12T07:52:00Z</time>
      </trkpt>
      <trkpt lat="49.39596" lon="-1.77626">
        <ele>80.7</ele>
        <time>2020-06-12T07:52:01Z</time>
      </trkpt>
      <trkpt lat="49.39596" lon="-1.77627">
        <ele>80.7</ele>
        <time>2020-06-12T07:52:02Z</time>
      </trkpt>
      <trkpt lat="49.39598" lon="-1.77629">
        <ele>80.7</ele>
        <time>2020-06-12T07:52:03Z</time>
      </trkpt>
      <trkpt lat="49.39601" lon="-1.77631">
        <ele>80.7</ele>
        <time>2020-06-12T07:52:04Z</time>
      </trkpt>
      <trkpt lat="49.39602" lon="-1.77632">
        <ele>80.7</ele>
        <time>2020-06-12T07:52:05Z</time>
      </trkpt>
      <trkpt lat="49.39606" lon="-1.77637">
        <ele>80.7</ele>
        <time>2020-06-12T07:52:06Z</time>
      </trkpt>
      <trkpt lat="49.39611" lon="-1.77642">
        <ele>80.6</ele>
        <time>2020-06-12T07:52:07Z</time>
      </trkpt>
      <trkpt lat="49.39616" lon="-1.77647">
        <ele>80.6</ele>
        <time>2020-06-12T07:52:08Z</time>
      </trkpt>
      <trkpt lat="49.39622" lon="-1.77653">
        <ele>80.6</ele>
        <time>2020-06-12T07:52:09Z</time>
      </trkpt>
      <trkpt lat="49.39628" lon="-1.77658">
        <ele>80.7</ele>
        <time>2020-06-12T07:52:10Z</time>
      </trkpt>
      <trkpt lat="49.39632" lon="-1.77662">
        <ele>80.7</ele>
        <time>2020-06-12T07:52:11Z</time>
      </trkpt>
      <trkpt lat="49.39637" lon="-1.77667">
        <ele>80.7</ele>
        <time>2020-06-12T07:52:12Z</time>
      </trkpt>
      <trkpt lat="49.39642" lon="-1.77671">
        <ele>80.8</ele>
        <time>2020-06-12T07:52:13Z</time>
      </trkpt>
      <trkpt lat="49.39647" lon="-1.77674">
        <ele>80.8</ele>
        <time>2020-06-12T07:52:14Z</time>
      </trkpt>
      <trkpt lat="49.39651" lon="-1.77678">
        <ele>80.9</ele>
        <time>2020-06-12T07:52:15Z</time>
      </trkpt>
      <trkpt lat="49.39656" lon="-1.77681">
        <ele>80.9</ele>
        <time>2020-06-12T07:52:16Z</time>
      </trkpt>
      <trkpt lat="49.3966" lon="-1.77684">
        <ele>81</ele>
        <time>2020-06-12T07:52:17Z</time>
      </trkpt>
      <trkpt lat="49.39664" lon="-1.77687">
        <ele>81</ele>
        <time>2020-06-12T07:52:18Z</time>
      </trkpt>
      <trkpt lat="49.39668" lon="-1.77692">
        <ele>81</ele>
        <time>2020-06-12T07:52:19Z</time>
      </trkpt>
      <trkpt lat="49.39672" lon="-1.77695">
        <ele>81.1</ele>
        <time>2020-06-12T07:52:20Z</time>
      </trkpt>
      <trkpt lat="49.39675" lon="-1.77698">
        <ele>81.1</ele>
        <time>2020-06-12T07:52:21Z</time>
      </trkpt>
      <trkpt lat="49.39679" lon="-1.77701">
        <ele>81.1</ele>
        <time>2020-06-12T07:52:22Z</time>
      </trkpt>
      <trkpt lat="49.39682" lon="-1.77705">
        <ele>81.2</ele>
        <time>2020-06-12T07:52:23Z</time>
      </trkpt>
      <trkpt lat="49.39686" lon="-1.77708">
        <ele>81.2</ele>
        <time>2020-06-12T07:52:24Z</time>
      </trkpt>
      <trkpt lat="49.39689" lon="-1.77712">
        <ele>81.2</ele>
        <time>2020-06-12T07:52:25Z</time>
      </trkpt>
      <trkpt lat="49.39692" lon="-1.77715">
        <ele>81.2</ele>
        <time>2020-06-12T07:52:26Z</time>
      </trkpt>
      <trkpt lat="49.39696" lon="-1.77719">
        <ele>81.3</ele>
        <time>2020-06-12T07:52:27Z</time>
      </trkpt>
      <trkpt lat="49.397" lon="-1.77723">
        <ele>81.3</ele>
        <time>2020-06-12T07:52:28Z</time>
      </trkpt>
      <trkpt lat="49.39704" lon="-1.77725">
        <ele>81.3</ele>
        <time>2020-06-12T07:52:29Z</time>
      </trkpt>
      <trkpt lat="49.39708" lon="-1.77727">
        <ele>81.3</ele>
        <time>2020-06-12T07:52:30Z</time>
      </trkpt>
      <trkpt lat="49.39711" lon="-1.7773">
        <ele>81.3</ele>
        <time>2020-06-12T07:52:31Z</time>
      </trkpt>
      <trkpt lat="49.39714" lon="-1.77733">
        <ele>81.4</ele>
        <time>2020-06-12T07:52:32Z</time>
      </trkpt>
      <trkpt lat="49.39716" lon="-1.77736">
        <ele>81.4</ele>
        <time>2020-06-12T07:52:33Z</time>
      </trkpt>
      <trkpt lat="49.39719" lon="-1.77739">
        <ele>81.4</ele>
        <time>2020-06-12T07:52:34Z</time>
      </trkpt>
      <trkpt lat="49.39721" lon="-1.7774">
        <ele>81.4</ele>
        <time>2020-06-12T07:52:35Z</time>
      </trkpt>
      <trkpt lat="49.39724" lon="-1.77743">
        <ele>81.4</ele>
        <time>2020-06-12T07:52:36Z</time>
      </trkpt>
      <trkpt lat="49.39727" lon="-1.77745">
        <ele>81.4</ele>
        <time>2020-06-12T07:52:37Z</time>
      </trkpt>
      <trkpt lat="49.39729" lon="-1.77747">
        <ele>81.4</ele>
        <time>2020-06-12T07:52:38Z</time>
      </trkpt>
      <trkpt lat="49.39732" lon="-1.77749">
        <ele>81.4</ele>
        <time>2020-06-12T07:52:39Z</time>
      </trkpt>
      <trkpt lat="49.39735" lon="-1.77751">
        <ele>81.5</ele>
        <time>2020-06-12T07:52:40Z</time>
      </trkpt>
      <trkpt lat="49.39737" lon="-1.77754">
        <ele>81.5</ele>
        <time>2020-06-12T07:52:41Z</time>
      </trkpt>
      <trkpt lat="49.39739" lon="-1.77757">
        <ele>81.5</ele>
        <time>2020-06-12T07:52:42Z</time>
      </trkpt>
      <trkpt lat="49.39741" lon="-1.77761">
        <ele>81.5</ele>
        <time>2020-06-12T07:52:43Z</time>
      </trkpt>
      <trkpt lat="49.39743" lon="-1.77765">
        <ele>81.5</ele>
        <time>2020-06-12T07:52:44Z</time>
      </trkpt>
      <trkpt lat="49.39746" lon="-1.77767">
        <ele>81.4</ele>
        <time>2020-06-12T07:52:45Z</time>
      </trkpt>
      <trkpt lat="49.39748" lon="-1.77769">
        <ele>81.4</ele>
        <time>2020-06-12T07:52:46Z</time>
      </trkpt>
      <trkpt lat="49.39751" lon="-1.77771">
        <ele>81.4</ele>
        <time>2020-06-12T07:52:47Z</time>
      </trkpt>
      <trkpt lat="49.39754" lon="-1.77772">
        <ele>81.4</ele>
        <time>2020-06-12T07:52:48Z</time>
      </trkpt>
      <trkpt lat="49.39757" lon="-1.77775">
        <ele>81.4</ele>
        <time>2020-06-12T07:52:49Z</time>
      </trkpt>
      <trkpt lat="49.3976" lon="-1.77777">
        <ele>81.4</ele>
        <time>2020-06-12T07:52:50Z</time>
      </trkpt>
      <trkpt lat="49.39763" lon="-1.7778">
        <ele>81.4</ele>
        <time>2020-06-12T07:52:51Z</time>
      </trkpt>
      <trkpt lat="49.39767" lon="-1.77782">
        <ele>81.4</ele>
        <time>2020-06-12T07:52:52Z</time>
      </trkpt>
      <trkpt lat="49.3977" lon="-1.77785">
        <ele>81.4</ele>
        <time>2020-06-12T07:52:53Z</time>
      </trkpt>
      <trkpt lat="49.39772" lon="-1.77787">
        <ele>81.4</ele>
        <time>2020-06-12T07:52:54Z</time>
      </trkpt>
      <trkpt lat="49.39775" lon="-1.7779">
        <ele>81.4</ele>
        <time>2020-06-12T07:52:55Z</time>
      </trkpt>
      <trkpt lat="49.39778" lon="-1.77793">
        <ele>81.4</ele>
        <time>2020-06-12T07:52:56Z</time>
      </trkpt>
      <trkpt lat="49.39781" lon="-1.77795">
        <ele>81.4</ele>
        <time>2020-06-12T07:52:57Z</time>
      </trkpt>
      <trkpt lat="49.39784" lon="-1.77798">
        <ele>81.5</ele>
        <time>2020-06-12T07:52:58Z</time>
      </trkpt>
      <trkpt lat="49.39787" lon="-1.778">
        <ele>81.5</ele>
        <time>2020-06-12T07:52:59Z</time>
      </trkpt>
      <trkpt lat="49.39791" lon="-1.77802">
        <ele>81.5</ele>
        <time>2020-06-12T07:53:00Z</time>
      </trkpt>
      <trkpt lat="49.39795" lon="-1.77806">
        <ele>81.5</ele>
        <time>2020-06-12T07:53:01Z</time>
      </trkpt>
      <trkpt lat="49.39799" lon="-1.77809">
        <ele>81.5</ele>
        <time>2020-06-12T07:53:02Z</time>
      </trkpt>
      <trkpt lat="49.39803" lon="-1.77813">
        <ele>81.5</ele>
        <time>2020-06-12T07:53:03Z</time>
      </trkpt>
      <trkpt lat="49.39807" lon="-1.77815">
        <ele>81.5</ele>
        <time>2020-06-12T07:53:04Z</time>
      </trkpt>
      <trkpt lat="49.39811" lon="-1.77818">
        <ele>81.5</ele>
        <time>2020-06-12T07:53:05Z</time>
      </trkpt>
      <trkpt lat="49.39816" lon="-1.77821">
        <ele>81.5</ele>
        <time>2020-06-12T07:53:06Z</time>
      </trkpt>
      <trkpt lat="49.3982" lon="-1.77824">
        <ele>81.5</ele>
        <time>2020-06-12T07:53:07Z</time>
      </trkpt>
      <trkpt lat="49.39825" lon="-1.77826">
        <ele>81.6</ele>
        <time>2020-06-12T07:53:08Z</time>
      </trkpt>
      <trkpt lat="49.39829" lon="-1.77829">
        <ele>81.7</ele>
        <time>2020-06-12T07:53:09Z</time>
      </trkpt>
      <trkpt lat="49.39834" lon="-1.77832">
        <ele>81.8</ele>
        <time>2020-06-12T07:53:10Z</time>
      </trkpt>
      <trkpt lat="49.39838" lon="-1.77835">
        <ele>81.9</ele>
        <time>2020-06-12T07:53:11Z</time>
      </trkpt>
      <trkpt lat="49.39842" lon="-1.77837">
        <ele>82</ele>
        <time>2020-06-12T07:53:12Z</time>
      </trkpt>
      <trkpt lat="49.39847" lon="-1.77839">
        <ele>82</ele>
        <time>2020-06-12T07:53:13Z</time>
      </trkpt>
      <trkpt lat="49.39852" lon="-1.77842">
        <ele>82.1</ele>
        <time>2020-06-12T07:53:14Z</time>
      </trkpt>
      <trkpt lat="49.39856" lon="-1.77844">
        <ele>82.2</ele>
        <time>2020-06-12T07:53:15Z</time>
      </trkpt>
      <trkpt lat="49.3986" lon="-1.77846">
        <ele>82.3</ele>
        <time>2020-06-12T07:53:16Z</time>
      </trkpt>
      <trkpt lat="49.39864" lon="-1.77848">
        <ele>82.4</ele>
        <time>2020-06-12T07:53:17Z</time>
      </trkpt>
      <trkpt lat="49.39869" lon="-1.7785">
        <ele>82.5</ele>
        <time>2020-06-12T07:53:18Z</time>
      </trkpt>
      <trkpt lat="49.39873" lon="-1.77853">
        <ele>82.6</ele>
        <time>2020-06-12T07:53:19Z</time>
      </trkpt>
      <trkpt lat="49.39877" lon="-1.77855">
        <ele>82.7</ele>
        <time>2020-06-12T07:53:20Z</time>
      </trkpt>
      <trkpt lat="49.39881" lon="-1.77856">
        <ele>82.8</ele>
        <time>2020-06-12T07:53:21Z</time>
      </trkpt>
      <trkpt lat="49.39885" lon="-1.77859">
        <ele>82.9</ele>
        <time>2020-06-12T07:53:22Z</time>
      </trkpt>
      <trkpt lat="49.3989" lon="-1.77861">
        <ele>83</ele>
        <time>2020-06-12T07:53:23Z</time>
      </trkpt>
      <trkpt lat="49.39894" lon="-1.77863">
        <ele>83.1</ele>
        <time>2020-06-12T07:53:24Z</time>
      </trkpt>
      <trkpt lat="49.39899" lon="-1.77865">
        <ele>83.3</ele>
        <time>2020-06-12T07:53:25Z</time>
      </trkpt>
      <trkpt lat="49.39903" lon="-1.77867">
        <ele>83.4</ele>
        <time>2020-06-12T07:53:26Z</time>
      </trkpt>
      <trkpt lat="49.39908" lon="-1.77869">
        <ele>83.5</ele>
        <time>2020-06-12T07:53:27Z</time>
      </trkpt>
      <trkpt lat="49.39911" lon="-1.77871">
        <ele>83.7</ele>
        <time>2020-06-12T07:53:28Z</time>
      </trkpt>
      <trkpt lat="49.39915" lon="-1.77872">
        <ele>83.8</ele>
        <time>2020-06-12T07:53:29Z</time>
      </trkpt>
      <trkpt lat="49.39918" lon="-1.77874">
        <ele>83.9</ele>
        <time>2020-06-12T07:53:30Z</time>
      </trkpt>
      <trkpt lat="49.39922" lon="-1.77875">
        <ele>84</ele>
        <time>2020-06-12T07:53:31Z</time>
      </trkpt>
      <trkpt lat="49.39925" lon="-1.77876">
        <ele>84.2</ele>
        <time>2020-06-12T07:53:32Z</time>
      </trkpt>
      <trkpt lat="49.39929" lon="-1.77878">
        <ele>84.3</ele>
        <time>2020-06-12T07:53:33Z</time>
      </trkpt>
      <trkpt lat="49.39933" lon="-1.7788">
        <ele>84.4</ele>
        <time>2020-06-12T07:53:34Z</time>
      </trkpt>
      <trkpt lat="49.39937" lon="-1.77882">
        <ele>84.5</ele>
        <time>2020-06-12T07:53:35Z</time>
      </trkpt>
      <trkpt lat="49.3994" lon="-1.77884">
        <ele>84.6</ele>
        <time>2020-06-12T07:53:36Z</time>
      </trkpt>
      <trkpt lat="49.39944" lon="-1.77886">
        <ele>84.7</ele>
        <time>2020-06-12T07:53:37Z</time>
      </trkpt>
      <trkpt lat="49.39948" lon="-1.77889">
        <ele>84.8</ele>
        <time>2020-06-12T07:53:38Z</time>
      </trkpt>
      <trkpt lat="49.39952" lon="-1.77892">
        <ele>85</ele>
        <time>2020-06-12T07:53:39Z</time>
      </trkpt>
      <trkpt lat="49.39957" lon="-1.77894">
        <ele>85.1</ele>
        <time>2020-06-12T07:53:40Z</time>
      </trkpt>
      <trkpt lat="49.39962" lon="-1.77896">
        <ele>85.2</ele>
        <time>2020-06-12T07:53:41Z</time>
      </trkpt>
      <trkpt lat="49.39966" lon="-1.77899">
        <ele>85.3</ele>
        <time>2020-06-12T07:53:42Z</time>
      </trkpt>
      <trkpt lat="49.3997" lon="-1.77902">
        <ele>85.3</ele>
        <time>2020-06-12T07:53:43Z</time>
      </trkpt>
      <trkpt lat="49.39975" lon="-1.77905">
        <ele>85.4</ele>
        <time>2020-06-12T07:53:44Z</time>
      </trkpt>
      <trkpt lat="49.3998" lon="-1.77907">
        <ele>85.4</ele>
        <time>2020-06-12T07:53:45Z</time>
      </trkpt>
      <trkpt lat="49.39985" lon="-1.77909">
        <ele>85.5</ele>
        <time>2020-06-12T07:53:46Z</time>
      </trkpt>
      <trkpt lat="49.39991" lon="-1.77911">
        <ele>85.6</ele>
        <time>2020-06-12T07:53:47Z</time>
      </trkpt>
      <trkpt lat="49.39994" lon="-1.77913">
        <ele>85.6</ele>
        <time>2020-06-12T07:53:48Z</time>
      </trkpt>
      <trkpt lat="49.39998" lon="-1.77915">
        <ele>85.6</ele>
        <time>2020-06-12T07:53:49Z</time>
      </trkpt>
      <trkpt lat="49.40002" lon="-1.77917">
        <ele>85.7</ele>
        <time>2020-06-12T07:53:50Z</time>
      </trkpt>
      <trkpt lat="49.40006" lon="-1.7792">
        <ele>85.7</ele>
        <time>2020-06-12T07:53:51Z</time>
      </trkpt>
      <trkpt lat="49.4001" lon="-1.77921">
        <ele>85.7</ele>
        <time>2020-06-12T07:53:52Z</time>
      </trkpt>
      <trkpt lat="49.40015" lon="-1.77923">
        <ele>85.7</ele>
        <time>2020-06-12T07:53:53Z</time>
      </trkpt>
      <trkpt lat="49.4002" lon="-1.77924">
        <ele>85.7</ele>
        <time>2020-06-12T07:53:54Z</time>
      </trkpt>
      <trkpt lat="49.40024" lon="-1.77926">
        <ele>85.7</ele>
        <time>2020-06-12T07:53:55Z</time>
      </trkpt>
      <trkpt lat="49.40028" lon="-1.77927">
        <ele>85.7</ele>
        <time>2020-06-12T07:53:56Z</time>
      </trkpt>
      <trkpt lat="49.40032" lon="-1.77928">
        <ele>85.7</ele>
        <time>2020-06-12T07:53:57Z</time>
      </trkpt>
      <trkpt lat="49.40037" lon="-1.7793">
        <ele>85.8</ele>
        <time>2020-06-12T07:53:58Z</time>
      </trkpt>
      <trkpt lat="49.40042" lon="-1.77931">
        <ele>85.8</ele>
        <time>2020-06-12T07:53:59Z</time>
      </trkpt>
      <trkpt lat="49.40047" lon="-1.77933">
        <ele>85.8</ele>
        <time>2020-06-12T07:54:00Z</time>
      </trkpt>
      <trkpt lat="49.40053" lon="-1.77934">
        <ele>85.8</ele>
        <time>2020-06-12T07:54:01Z</time>
      </trkpt>
      <trkpt lat="49.40058" lon="-1.77935">
        <ele>85.8</ele>
        <time>2020-06-12T07:54:02Z</time>
      </trkpt>
      <trkpt lat="49.40062" lon="-1.77936">
        <ele>85.8</ele>
        <time>2020-06-12T07:54:03Z</time>
      </trkpt>
      <trkpt lat="49.40067" lon="-1.77937">
        <ele>85.8</ele>
        <time>2020-06-12T07:54:04Z</time>
      </trkpt>
      <trkpt lat="49.40071" lon="-1.77938">
        <ele>85.8</ele>
        <time>2020-06-12T07:54:05Z</time>
      </trkpt>
      <trkpt lat="49.40075" lon="-1.77939">
        <ele>85.8</ele>
        <time>2020-06-12T07:54:06Z</time>
      </trkpt>
      <trkpt lat="49.40079" lon="-1.77941">
        <ele>85.8</ele>
        <time>2020-06-12T07:54:07Z</time>
      </trkpt>
      <trkpt lat="49.40084" lon="-1.77942">
        <ele>85.8</ele>
        <time>2020-06-12T07:54:08Z</time>
      </trkpt>
      <trkpt lat="49.40088" lon="-1.77943">
        <ele>85.9</ele>
        <time>2020-06-12T07:54:09Z</time>
      </trkpt>
      <trkpt lat="49.40092" lon="-1.77944">
        <ele>85.9</ele>
        <time>2020-06-12T07:54:10Z</time>
      </trkpt>
      <trkpt lat="49.40096" lon="-1.77945">
        <ele>86</ele>
        <time>2020-06-12T07:54:11Z</time>
      </trkpt>
      <trkpt lat="49.40101" lon="-1.77948">
        <ele>86</ele>
        <time>2020-06-12T07:54:12Z</time>
      </trkpt>
      <trkpt lat="49.40105" lon="-1.7795">
        <ele>86.1</ele>
        <time>2020-06-12T07:54:13Z</time>
      </trkpt>
      <trkpt lat="49.40109" lon="-1.77951">
        <ele>86.2</ele>
        <time>2020-06-12T07:54:14Z</time>
      </trkpt>
      <trkpt lat="49.40113" lon="-1.77953">
        <ele>86.2</ele>
        <time>2020-06-12T07:54:15Z</time>
      </trkpt>
      <trkpt lat="49.40117" lon="-1.77954">
        <ele>86.3</ele>
        <time>2020-06-12T07:54:16Z</time>
      </trkpt>
      <trkpt lat="49.40122" lon="-1.77955">
        <ele>86.3</ele>
        <time>2020-06-12T07:54:17Z</time>
      </trkpt>
      <trkpt lat="49.40126" lon="-1.77957">
        <ele>86.3</ele>
        <time>2020-06-12T07:54:18Z</time>
      </trkpt>
      <trkpt lat="49.40129" lon="-1.77959">
        <ele>86.4</ele>
        <time>2020-06-12T07:54:19Z</time>
      </trkpt>
      <trkpt lat="49.40133" lon="-1.7796">
        <ele>86.4</ele>
        <time>2020-06-12T07:54:20Z</time>
      </trkpt>
      <trkpt lat="49.40136" lon="-1.77961">
        <ele>86.4</ele>
        <time>2020-06-12T07:54:21Z</time>
      </trkpt>
      <trkpt lat="49.4014" lon="-1.77962">
        <ele>86.5</ele>
        <time>2020-06-12T07:54:22Z</time>
      </trkpt>
      <trkpt lat="49.40143" lon="-1.77963">
        <ele>86.5</ele>
        <time>2020-06-12T07:54:23Z</time>
      </trkpt>
      <trkpt lat="49.40148" lon="-1.77965">
        <ele>86.6</ele>
        <time>2020-06-12T07:54:24Z</time>
      </trkpt>
      <trkpt lat="49.40152" lon="-1.77966">
        <ele>86.6</ele>
        <time>2020-06-12T07:54:25Z</time>
      </trkpt>
      <trkpt lat="49.40156" lon="-1.77967">
        <ele>86.7</ele>
        <time>2020-06-12T07:54:26Z</time>
      </trkpt>
      <trkpt lat="49.40161" lon="-1.77968">
        <ele>86.7</ele>
        <time>2020-06-12T07:54:27Z</time>
      </trkpt>
      <trkpt lat="49.40165" lon="-1.77969">
        <ele>86.8</ele>
        <time>2020-06-12T07:54:28Z</time>
      </trkpt>
      <trkpt lat="49.40169" lon="-1.77971">
        <ele>86.8</ele>
        <time>2020-06-12T07:54:29Z</time>
      </trkpt>
      <trkpt lat="49.40173" lon="-1.77973">
        <ele>86.8</ele>
        <time>2020-06-12T07:54:30Z</time>
      </trkpt>
      <trkpt lat="49.40177" lon="-1.77975">
        <ele>86.9</ele>
        <time>2020-06-12T07:54:31Z</time>
      </trkpt>
      <trkpt lat="49.40181" lon="-1.77977">
        <ele>86.9</ele>
        <time>2020-06-12T07:54:32Z</time>
      </trkpt>
      <trkpt lat="49.40184" lon="-1.77979">
        <ele>86.9</ele>
        <time>2020-06-12T07:54:33Z</time>
      </trkpt>
      <trkpt lat="49.40187" lon="-1.77981">
        <ele>87</ele>
        <time>2020-06-12T07:54:34Z</time>
      </trkpt>
      <trkpt lat="49.4019" lon="-1.77982">
        <ele>87</ele>
        <time>2020-06-12T07:54:35Z</time>
      </trkpt>
      <trkpt lat="49.40193" lon="-1.77984">
        <ele>87</ele>
        <time>2020-06-12T07:54:36Z</time>
      </trkpt>
      <trkpt lat="49.40197" lon="-1.77986">
        <ele>87</ele>
        <time>2020-06-12T07:54:37Z</time>
      </trkpt>
      <trkpt lat="49.402" lon="-1.77989">
        <ele>87</ele>
        <time>2020-06-12T07:54:38Z</time>
      </trkpt>
      <trkpt lat="49.40203" lon="-1.77992">
        <ele>87</ele>
        <time>2020-06-12T07:54:39Z</time>
      </trkpt>
      <trkpt lat="49.40206" lon="-1.77994">
        <ele>87</ele>
        <time>2020-06-12T07:54:40Z</time>
      </trkpt>
      <trkpt lat="49.40209" lon="-1.77995">
        <ele>87</ele>
        <time>2020-06-12T07:54:41Z</time>
      </trkpt>
      <trkpt lat="49.40212" lon="-1.77996">
        <ele>86.9</ele>
        <time>2020-06-12T07:54:42Z</time>
      </trkpt>
      <trkpt lat="49.40215" lon="-1.77996">
        <ele>86.9</ele>
        <time>2020-06-12T07:54:43Z</time>
      </trkpt>
      <trkpt lat="49.40219" lon="-1.77997">
        <ele>86.9</ele>
        <time>2020-06-12T07:54:44Z</time>
      </trkpt>
      <trkpt lat="49.40222" lon="-1.77999">
        <ele>86.9</ele>
        <time>2020-06-12T07:54:45Z</time>
      </trkpt>
      <trkpt lat="49.40226" lon="-1.78">
        <ele>86.8</ele>
        <time>2020-06-12T07:54:46Z</time>
      </trkpt>
      <trkpt lat="49.40229" lon="-1.78">
        <ele>86.8</ele>
        <time>2020-06-12T07:54:47Z</time>
      </trkpt>
      <trkpt lat="49.40233" lon="-1.78001">
        <ele>86.8</ele>
        <time>2020-06-12T07:54:48Z</time>
      </trkpt>
      <trkpt lat="49.40237" lon="-1.78003">
        <ele>86.7</ele>
        <time>2020-06-12T07:54:49Z</time>
      </trkpt>
      <trkpt lat="49.40241" lon="-1.78004">
        <ele>86.7</ele>
        <time>2020-06-12T07:54:50Z</time>
      </trkpt>
      <trkpt lat="49.40245" lon="-1.78005">
        <ele>86.7</ele>
        <time>2020-06-12T07:54:51Z</time>
      </trkpt>
      <trkpt lat="49.40247" lon="-1.78006">
        <ele>86.7</ele>
        <time>2020-06-12T07:54:52Z</time>
      </trkpt>
      <trkpt lat="49.40251" lon="-1.78007">
        <ele>86.6</ele>
        <time>2020-06-12T07:54:53Z</time>
      </trkpt>
      <trkpt lat="49.40253" lon="-1.78008">
        <ele>86.6</ele>
        <time>2020-06-12T07:54:54Z</time>
      </trkpt>
      <trkpt lat="49.40256" lon="-1.78009">
        <ele>86.6</ele>
        <time>2020-06-12T07:54:55Z</time>
      </trkpt>
      <trkpt lat="49.40259" lon="-1.7801">
        <ele>86.5</ele>
        <time>2020-06-12T07:54:56Z</time>
      </trkpt>
      <trkpt lat="49.40262" lon="-1.78011">
        <ele>86.5</ele>
        <time>2020-06-12T07:54:57Z</time>
      </trkpt>
      <trkpt lat="49.40265" lon="-1.78012">
        <ele>86.5</ele>
        <time>2020-06-12T07:54:58Z</time>
      </trkpt>
      <trkpt lat="49.40268" lon="-1.78014">
        <ele>86.4</ele>
        <time>2020-06-12T07:54:59Z</time>
      </trkpt>
      <trkpt lat="49.40272" lon="-1.78016">
        <ele>86.3</ele>
        <time>2020-06-12T07:55:00Z</time>
      </trkpt>
      <trkpt lat="49.40276" lon="-1.78017">
        <ele>86.3</ele>
        <time>2020-06-12T07:55:01Z</time>
      </trkpt>
      <trkpt lat="49.4028" lon="-1.78016">
        <ele>86.2</ele>
        <time>2020-06-12T07:55:02Z</time>
      </trkpt>
      <trkpt lat="49.40284" lon="-1.78015">
        <ele>86.1</ele>
        <time>2020-06-12T07:55:03Z</time>
      </trkpt>
      <trkpt lat="49.40287" lon="-1.78013">
        <ele>85.9</ele>
        <time>2020-06-12T07:55:04Z</time>
      </trkpt>
      <trkpt lat="49.40291" lon="-1.7801">
        <ele>85.8</ele>
        <time>2020-06-12T07:55:05Z</time>
      </trkpt>
      <trkpt lat="49.40293" lon="-1.78008">
        <ele>85.7</ele>
        <time>2020-06-12T07:55:06Z</time>
      </trkpt>
      <trkpt lat="49.40296" lon="-1.78006">
        <ele>85.7</ele>
        <time>2020-06-12T07:55:07Z</time>
      </trkpt>
      <trkpt lat="49.40299" lon="-1.78002">
        <ele>85.6</ele>
        <time>2020-06-12T07:55:08Z</time>
      </trkpt>
      <trkpt lat="49.403" lon="-1.78001">
        <ele>85.6</ele>
        <time>2020-06-12T07:55:09Z</time>
      </trkpt>
      <trkpt lat="49.40302" lon="-1.77999">
        <ele>85.5</ele>
        <time>2020-06-12T07:55:10Z</time>
      </trkpt>
      <trkpt lat="49.40303" lon="-1.77999">
        <ele>85.5</ele>
        <time>2020-06-12T07:55:11Z</time>
      </trkpt>
      <trkpt lat="49.40305" lon="-1.77998">
        <ele>85.4</ele>
        <time>2020-06-12T07:55:12Z</time>
      </trkpt>
      <trkpt lat="49.40307" lon="-1.77998">
        <ele>85.4</ele>
        <time>2020-06-12T07:55:13Z</time>
      </trkpt>
      <trkpt lat="49.40309" lon="-1.77998">
        <ele>85.4</ele>
        <time>2020-06-12T07:55:14Z</time>
      </trkpt>
      <trkpt lat="49.40311" lon="-1.77997">
        <ele>85.4</ele>
        <time>2020-06-12T07:55:15Z</time>
      </trkpt>
      <trkpt lat="49.40312" lon="-1.77998">
        <ele>85.4</ele>
        <time>2020-06-12T07:55:16Z</time>
      </trkpt>
      <trkpt lat="49.40314" lon="-1.77997">
        <ele>85.4</ele>
        <time>2020-06-12T07:55:17Z</time>
      </trkpt>
      <trkpt lat="49.40316" lon="-1.77997">
        <ele>85.4</ele>
        <time>2020-06-12T07:55:18Z</time>
      </trkpt>
      <trkpt lat="49.40317" lon="-1.77997">
        <ele>85.4</ele>
        <time>2020-06-12T07:55:19Z</time>
      </trkpt>
      <trkpt lat="49.4032" lon="-1.77997">
        <ele>85.4</ele>
        <time>2020-06-12T07:55:20Z</time>
      </trkpt>
      <trkpt lat="49.40321" lon="-1.77997">
        <ele>85.4</ele>
        <time>2020-06-12T07:55:21Z</time>
      </trkpt>
      <trkpt lat="49.40323" lon="-1.77997">
        <ele>85.3</ele>
        <time>2020-06-12T07:55:22Z</time>
      </trkpt>
      <trkpt lat="49.40325" lon="-1.77996">
        <ele>85.3</ele>
        <time>2020-06-12T07:55:23Z</time>
      </trkpt>
      <trkpt lat="49.40327" lon="-1.77996">
        <ele>85.3</ele>
        <time>2020-06-12T07:55:24Z</time>
      </trkpt>
      <trkpt lat="49.40328" lon="-1.77996">
        <ele>85.3</ele>
        <time>2020-06-12T07:55:25Z</time>
      </trkpt>
      <trkpt lat="49.40329" lon="-1.77996">
        <ele>85.3</ele>
        <time>2020-06-12T07:55:26Z</time>
      </trkpt>
      <trkpt lat="49.40331" lon="-1.77995">
        <ele>85.3</ele>
        <time>2020-06-12T07:55:27Z</time>
      </trkpt>
      <trkpt lat="49.40333" lon="-1.77995">
        <ele>85.3</ele>
        <time>2020-06-12T07:55:28Z</time>
      </trkpt>
      <trkpt lat="49.40334" lon="-1.77996">
        <ele>85.3</ele>
        <time>2020-06-12T07:55:29Z</time>
      </trkpt>
      <trkpt lat="49.40335" lon="-1.77998">
        <ele>85.3</ele>
        <time>2020-06-12T07:55:30Z</time>
      </trkpt>
      <trkpt lat="49.40336" lon="-1.77999">
        <ele>85.3</ele>
        <time>2020-06-12T07:55:31Z</time>
      </trkpt>
      <trkpt lat="49.40337" lon="-1.78001">
        <ele>85.2</ele>
        <time>2020-06-12T07:55:32Z</time>
      </trkpt>
      <trkpt lat="49.40338" lon="-1.78005">
        <ele>85.2</ele>
        <time>2020-06-12T07:55:33Z</time>
      </trkpt>
      <trkpt lat="49.40339" lon="-1.78007">
        <ele>85.2</ele>
        <time>2020-06-12T07:55:34Z</time>
      </trkpt>
      <trkpt lat="49.40341" lon="-1.78011">
        <ele>85.2</ele>
        <time>2020-06-12T07:55:35Z</time>
      </trkpt>
      <trkpt lat="49.40343" lon="-1.78014">
        <ele>85.1</ele>
        <time>2020-06-12T07:55:36Z</time>
      </trkpt>
      <trkpt lat="49.40343" lon="-1.78015">
        <ele>85.1</ele>
        <time>2020-06-12T07:55:37Z</time>
      </trkpt>
      <trkpt lat="49.40345" lon="-1.78016">
        <ele>85.1</ele>
        <time>2020-06-12T07:55:38Z</time>
      </trkpt>
      <trkpt lat="49.40346" lon="-1.78017">
        <ele>85.1</ele>
        <time>2020-06-12T07:55:39Z</time>
      </trkpt>
      <trkpt lat="49.40347" lon="-1.78017">
        <ele>85.1</ele>
        <time>2020-06-12T07:55:40Z</time>
      </trkpt>
      <trkpt lat="49.40348" lon="-1.78019">
        <ele>85.1</ele>
        <time>2020-06-12T07:55:41Z</time>
      </trkpt>
      <trkpt lat="49.4035" lon="-1.78018">
        <ele>85</ele>
        <time>2020-06-12T07:55:42Z</time>
      </trkpt>
      <trkpt lat="49.4035" lon="-1.78017">
        <ele>85</ele>
        <time>2020-06-12T07:55:43Z</time>
      </trkpt>
      <trkpt lat="49.40351" lon="-1.78017">
        <ele>85</ele>
        <time>2020-06-12T07:55:44Z</time>
      </trkpt>
      <trkpt lat="49.40352" lon="-1.78015">
        <ele>85</ele>
        <time>2020-06-12T07:55:45Z</time>
      </trkpt>
      <trkpt lat="49.40352" lon="-1.78016">
        <ele>85</ele>
        <time>2020-06-12T07:55:46Z</time>
      </trkpt>
      <trkpt lat="49.40353" lon="-1.78015">
        <ele>85</ele>
        <time>2020-06-12T07:55:47Z</time>
      </trkpt>
      <trkpt lat="49.40355" lon="-1.78013">
        <ele>85</ele>
        <time>2020-06-12T07:55:48Z</time>
      </trkpt>
      <trkpt lat="49.40356" lon="-1.78012">
        <ele>85</ele>
        <time>2020-06-12T07:55:49Z</time>
      </trkpt>
      <trkpt lat="49.40356" lon="-1.78012">
        <ele>85</ele>
        <time>2020-06-12T07:55:50Z</time>
      </trkpt>
      <trkpt lat="49.40357" lon="-1.78011">
        <ele>84.9</ele>
        <time>2020-06-12T07:55:51Z</time>
      </trkpt>
      <trkpt lat="49.40357" lon="-1.78012">
        <ele>84.9</ele>
        <time>2020-06-12T07:55:52Z</time>
      </trkpt>
      <trkpt lat="49.40357" lon="-1.78011">
        <ele>84.9</ele>
        <time>2020-06-12T07:55:53Z</time>
      </trkpt>
      <trkpt lat="49.40357" lon="-1.78011">
        <ele>84.9</ele>
        <time>2020-06-12T07:55:54Z</time>
      </trkpt>
      <trkpt lat="49.40357" lon="-1.78011">
        <ele>84.9</ele>
        <time>2020-06-12T07:55:55Z</time>
      </trkpt>
      <trkpt lat="49.40356" lon="-1.78011">
        <ele>84.9</ele>
        <time>2020-06-12T07:55:56Z</time>
      </trkpt>
      <trkpt lat="49.40356" lon="-1.78012">
        <ele>84.9</ele>
        <time>2020-06-12T07:55:57Z</time>
      </trkpt>
      <trkpt lat="49.40356" lon="-1.78012">
        <ele>84.9</ele>
        <time>2020-06-12T07:55:58Z</time>
      </trkpt>
      <trkpt lat="49.40356" lon="-1.78012">
        <ele>84.9</ele>
        <time>2020-06-12T07:55:59Z</time>
      </trkpt>
      <trkpt lat="49.40356" lon="-1.78012">
        <ele>84.9</ele>
        <time>2020-06-12T07:56:00Z</time>
      </trkpt>
      <trkpt lat="49.40357" lon="-1.78012">
        <ele>84.9</ele>
        <time>2020-06-12T07:56:01Z</time>
      </trkpt>
      <trkpt lat="49.40357" lon="-1.78011">
        <ele>84.9</ele>
        <time>2020-06-12T07:56:02Z</time>
      </trkpt>
      <trkpt lat="49.40357" lon="-1.78011">
        <ele>84.9</ele>
        <time>2020-06-12T07:56:03Z</time>
      </trkpt>
      <trkpt lat="49.40356" lon="-1.78012">
        <ele>84.9</ele>
        <time>2020-06-12T07:56:04Z</time>
      </trkpt>
      <trkpt lat="49.40356" lon="-1.78012">
        <ele>84.9</ele>
        <time>2020-06-12T07:56:05Z</time>
      </trkpt>
      <trkpt lat="49.40356" lon="-1.78012">
        <ele>84.9</ele>
        <time>2020-06-12T07:56:06Z</time>
      </trkpt>
      <trkpt lat="49.40356" lon="-1.78012">
        <ele>84.9</ele>
        <time>2020-06-12T07:56:07Z</time>
      </trkpt>
      <trkpt lat="49.40348" lon="-1.78022">
        <ele>84.7</ele>
        <time>2020-06-12T07:58:11Z</time>
      </trkpt>
      <trkpt lat="49.40347" lon="-1.78023">
        <ele>84.7</ele>
        <time>2020-06-12T07:58:12Z</time>
      </trkpt>
      <trkpt lat="49.40345" lon="-1.78024">
        <ele>84.7</ele>
        <time>2020-06-12T07:58:13Z</time>
      </trkpt>
      <trkpt lat="49.40345" lon="-1.78025">
        <ele>84.7</ele>
        <time>2020-06-12T07:58:14Z</time>
      </trkpt>
      <trkpt lat="49.40345" lon="-1.78026">
        <ele>84.7</ele>
        <time>2020-06-12T07:58:15Z</time>
      </trkpt>
      <trkpt lat="49.40344" lon="-1.78027">
        <ele>84.7</ele>
        <time>2020-06-12T07:58:16Z</time>
      </trkpt>
      <trkpt lat="49.40344" lon="-1.78028">
        <ele>84.7</ele>
        <time>2020-06-12T07:58:17Z</time>
      </trkpt>
      <trkpt lat="49.40344" lon="-1.78028">
        <ele>84.7</ele>
        <time>2020-06-12T07:58:18Z</time>
      </trkpt>
      <trkpt lat="49.40344" lon="-1.78028">
        <ele>84.7</ele>
        <time>2020-06-12T07:58:19Z</time>
      </trkpt>
      <trkpt lat="49.40345" lon="-1.78027">
        <ele>84.7</ele>
        <time>2020-06-12T07:58:20Z</time>
      </trkpt>
      <trkpt lat="49.40346" lon="-1.78026">
        <ele>84.7</ele>
        <time>2020-06-12T07:58:21Z</time>
      </trkpt>
      <trkpt lat="49.40347" lon="-1.78026">
        <ele>84.6</ele>
        <time>2020-06-12T07:58:22Z</time>
      </trkpt>
      <trkpt lat="49.40347" lon="-1.78026">
        <ele>84.6</ele>
        <time>2020-06-12T07:58:23Z</time>
      </trkpt>
      <trkpt lat="49.40347" lon="-1.78025">
        <ele>84.6</ele>
        <time>2020-06-12T07:58:24Z</time>
      </trkpt>
      <trkpt lat="49.40347" lon="-1.78025">
        <ele>84.6</ele>
        <time>2020-06-12T07:58:25Z</time>
      </trkpt>
      <trkpt lat="49.40347" lon="-1.78025">
        <ele>84.6</ele>
        <time>2020-06-12T07:58:26Z</time>
      </trkpt>
      <trkpt lat="49.40347" lon="-1.78025">
        <ele>84.6</ele>
        <time>2020-06-12T07:58:27Z</time>
      </trkpt>
      <trkpt lat="49.40347" lon="-1.78025">
        <ele>84.6</ele>
        <time>2020-06-12T07:58:28Z</time>
      </trkpt>
      <trkpt lat="49.40347" lon="-1.78025">
        <ele>84.6</ele>
        <time>2020-06-12T07:58:29Z</time>
      </trkpt>
      <trkpt lat="49.40347" lon="-1.78025">
        <ele>84.6</ele>
        <time>2020-06-12T07:58:30Z</time>
      </trkpt>
      <trkpt lat="49.40347" lon="-1.78025">
        <ele>84.6</ele>
        <time>2020-06-12T07:58:31Z</time>
      </trkpt>
      <trkpt lat="49.40347" lon="-1.78025">
        <ele>84.6</ele>
        <time>2020-06-12T07:58:32Z</time>
      </trkpt>
    </trkseg>
  </trk>
  <trk>
    <name><![CDATA[T15]]></name>
    <trkseg>
      <trkpt lat="49.37366" lon="-1.26947">
        <ele>36.3</ele>
        <time>2020-06-16T07:37:50Z</time>
      </trkpt>
      <trkpt lat="49.36612" lon="-1.28137">
        <ele>7.6</ele>
        <time>2020-06-16T07:37:52Z</time>
      </trkpt>
      <trkpt lat="49.36602" lon="-1.28125">
        <ele>7.2</ele>
        <time>2020-06-16T07:37:53Z</time>
      </trkpt>
      <trkpt lat="49.36601" lon="-1.28122">
        <ele>7.1</ele>
        <time>2020-06-16T07:37:54Z</time>
      </trkpt>
      <trkpt lat="49.36597" lon="-1.2812">
        <ele>7</ele>
        <time>2020-06-16T07:37:55Z</time>
      </trkpt>
      <trkpt lat="49.3659" lon="-1.28112">
        <ele>6.8</ele>
        <time>2020-06-16T07:37:56Z</time>
      </trkpt>
      <trkpt lat="49.36591" lon="-1.28114">
        <ele>6.7</ele>
        <time>2020-06-16T07:37:57Z</time>
      </trkpt>
      <trkpt lat="49.36588" lon="-1.28115">
        <ele>6.7</ele>
        <time>2020-06-16T07:37:58Z</time>
      </trkpt>
      <trkpt lat="49.36582" lon="-1.28112">
        <ele>6.5</ele>
        <time>2020-06-16T07:37:59Z</time>
      </trkpt>
      <trkpt lat="49.36577" lon="-1.28109">
        <ele>6.4</ele>
        <time>2020-06-16T07:38:00Z</time>
      </trkpt>
      <trkpt lat="49.36571" lon="-1.28107">
        <ele>6.3</ele>
        <time>2020-06-16T07:38:01Z</time>
      </trkpt>
      <trkpt lat="49.36566" lon="-1.28103">
        <ele>6.2</ele>
        <time>2020-06-16T07:38:02Z</time>
      </trkpt>
      <trkpt lat="49.36559" lon="-1.281">
        <ele>6.1</ele>
        <time>2020-06-16T07:38:03Z</time>
      </trkpt>
      <trkpt lat="49.36553" lon="-1.28098">
        <ele>6</ele>
        <time>2020-06-16T07:38:04Z</time>
      </trkpt>
      <trkpt lat="49.36547" lon="-1.28095">
        <ele>5.8</ele>
        <time>2020-06-16T07:38:05Z</time>
      </trkpt>
      <trkpt lat="49.36541" lon="-1.28094">
        <ele>5.7</ele>
        <time>2020-06-16T07:38:06Z</time>
      </trkpt>
      <trkpt lat="49.36535" lon="-1.2809">
        <ele>5.6</ele>
        <time>2020-06-16T07:38:07Z</time>
      </trkpt>
      <trkpt lat="49.36528" lon="-1.28087">
        <ele>5.5</ele>
        <time>2020-06-16T07:38:08Z</time>
      </trkpt>
      <trkpt lat="49.36522" lon="-1.28085">
        <ele>5.4</ele>
        <time>2020-06-16T07:38:09Z</time>
      </trkpt>
      <trkpt lat="49.36516" lon="-1.28083">
        <ele>5.3</ele>
        <time>2020-06-16T07:38:10Z</time>
      </trkpt>
      <trkpt lat="49.3651" lon="-1.28082">
        <ele>5.2</ele>
        <time>2020-06-16T07:38:11Z</time>
      </trkpt>
      <trkpt lat="49.36504" lon="-1.2808">
        <ele>5.1</ele>
        <time>2020-06-16T07:38:13Z</time>
      </trkpt>
      <trkpt lat="49.36498" lon="-1.28078">
        <ele>5</ele>
        <time>2020-06-16T07:38:14Z</time>
      </trkpt>
      <trkpt lat="49.36491" lon="-1.28077">
        <ele>4.9</ele>
        <time>2020-06-16T07:38:15Z</time>
      </trkpt>
      <trkpt lat="49.36485" lon="-1.28075">
        <ele>4.8</ele>
        <time>2020-06-16T07:38:16Z</time>
      </trkpt>
      <trkpt lat="49.36479" lon="-1.28074">
        <ele>4.7</ele>
        <time>2020-06-16T07:38:17Z</time>
      </trkpt>
      <trkpt lat="49.36473" lon="-1.28072">
        <ele>4.7</ele>
        <time>2020-06-16T07:38:18Z</time>
      </trkpt>
      <trkpt lat="49.36466" lon="-1.28071">
        <ele>4.6</ele>
        <time>2020-06-16T07:38:19Z</time>
      </trkpt>
      <trkpt lat="49.3646" lon="-1.28067">
        <ele>4.5</ele>
        <time>2020-06-16T07:38:20Z</time>
      </trkpt>
      <trkpt lat="49.36454" lon="-1.28064">
        <ele>4.5</ele>
        <time>2020-06-16T07:38:21Z</time>
      </trkpt>
      <trkpt lat="49.36447" lon="-1.28061">
        <ele>4.5</ele>
        <time>2020-06-16T07:38:22Z</time>
      </trkpt>
      <trkpt lat="49.3644" lon="-1.28058">
        <ele>4.4</ele>
        <time>2020-06-16T07:38:23Z</time>
      </trkpt>
      <trkpt lat="49.36434" lon="-1.28055">
        <ele>4.4</ele>
        <time>2020-06-16T07:38:24Z</time>
      </trkpt>
      <trkpt lat="49.36427" lon="-1.28051">
        <ele>4.4</ele>
        <time>2020-06-16T07:38:25Z</time>
      </trkpt>
      <trkpt lat="49.36421" lon="-1.28047">
        <ele>4.4</ele>
        <time>2020-06-16T07:38:26Z</time>
      </trkpt>
      <trkpt lat="49.36416" lon="-1.28043">
        <ele>4.4</ele>
        <time>2020-06-16T07:38:27Z</time>
      </trkpt>
      <trkpt lat="49.3641" lon="-1.28039">
        <ele>4.3</ele>
        <time>2020-06-16T07:38:28Z</time>
      </trkpt>
      <trkpt lat="49.36405" lon="-1.28035">
        <ele>4.3</ele>
        <time>2020-06-16T07:38:29Z</time>
      </trkpt>
      <trkpt lat="49.364" lon="-1.28033">
        <ele>4.3</ele>
        <time>2020-06-16T07:38:30Z</time>
      </trkpt>
      <trkpt lat="49.36396" lon="-1.2803">
        <ele>4.4</ele>
        <time>2020-06-16T07:38:31Z</time>
      </trkpt>
      <trkpt lat="49.36391" lon="-1.28027">
        <ele>4.5</ele>
        <time>2020-06-16T07:38:32Z</time>
      </trkpt>
      <trkpt lat="49.36387" lon="-1.28025">
        <ele>4.5</ele>
        <time>2020-06-16T07:38:33Z</time>
      </trkpt>
      <trkpt lat="49.36383" lon="-1.28025">
        <ele>4.6</ele>
        <time>2020-06-16T07:38:34Z</time>
      </trkpt>
      <trkpt lat="49.3638" lon="-1.28027">
        <ele>4.6</ele>
        <time>2020-06-16T07:38:35Z</time>
      </trkpt>
      <trkpt lat="49.36377" lon="-1.28032">
        <ele>4.5</ele>
        <time>2020-06-16T07:38:36Z</time>
      </trkpt>
      <trkpt lat="49.36373" lon="-1.28037">
        <ele>4.4</ele>
        <time>2020-06-16T07:38:37Z</time>
      </trkpt>
      <trkpt lat="49.36364" lon="-1.28051">
        <ele>3.8</ele>
        <time>2020-06-16T07:38:38Z</time>
      </trkpt>
      <trkpt lat="49.36361" lon="-1.28059">
        <ele>3.5</ele>
        <time>2020-06-16T07:38:39Z</time>
      </trkpt>
      <trkpt lat="49.36358" lon="-1.28068">
        <ele>3.3</ele>
        <time>2020-06-16T07:38:40Z</time>
      </trkpt>
      <trkpt lat="49.36356" lon="-1.28079">
        <ele>3.1</ele>
        <time>2020-06-16T07:38:41Z</time>
      </trkpt>
      <trkpt lat="49.36354" lon="-1.28088">
        <ele>3</ele>
        <time>2020-06-16T07:38:42Z</time>
      </trkpt>
      <trkpt lat="49.36351" lon="-1.28097">
        <ele>3</ele>
        <time>2020-06-16T07:38:43Z</time>
      </trkpt>
      <trkpt lat="49.36349" lon="-1.28109">
        <ele>2.9</ele>
        <time>2020-06-16T07:38:44Z</time>
      </trkpt>
      <trkpt lat="49.36348" lon="-1.28119">
        <ele>2.8</ele>
        <time>2020-06-16T07:38:45Z</time>
      </trkpt>
      <trkpt lat="49.36346" lon="-1.28128">
        <ele>2.8</ele>
        <time>2020-06-16T07:38:46Z</time>
      </trkpt>
      <trkpt lat="49.36344" lon="-1.28136">
        <ele>2.8</ele>
        <time>2020-06-16T07:38:47Z</time>
      </trkpt>
      <trkpt lat="49.36342" lon="-1.28144">
        <ele>2.8</ele>
        <time>2020-06-16T07:38:48Z</time>
      </trkpt>
      <trkpt lat="49.3634" lon="-1.28151">
        <ele>2.8</ele>
        <time>2020-06-16T07:38:49Z</time>
      </trkpt>
      <trkpt lat="49.36338" lon="-1.28158">
        <ele>2.8</ele>
        <time>2020-06-16T07:38:50Z</time>
      </trkpt>
      <trkpt lat="49.36336" lon="-1.28165">
        <ele>2.9</ele>
        <time>2020-06-16T07:38:51Z</time>
      </trkpt>
      <trkpt lat="49.36334" lon="-1.28172">
        <ele>2.9</ele>
        <time>2020-06-16T07:38:52Z</time>
      </trkpt>
      <trkpt lat="49.36331" lon="-1.28179">
        <ele>3</ele>
        <time>2020-06-16T07:38:53Z</time>
      </trkpt>
      <trkpt lat="49.36328" lon="-1.28186">
        <ele>3</ele>
        <time>2020-06-16T07:38:54Z</time>
      </trkpt>
      <trkpt lat="49.36326" lon="-1.28192">
        <ele>3.1</ele>
        <time>2020-06-16T07:38:55Z</time>
      </trkpt>
      <trkpt lat="49.36323" lon="-1.28198">
        <ele>3.3</ele>
        <time>2020-06-16T07:38:56Z</time>
      </trkpt>
      <trkpt lat="49.36319" lon="-1.28203">
        <ele>3.4</ele>
        <time>2020-06-16T07:38:57Z</time>
      </trkpt>
      <trkpt lat="49.36316" lon="-1.28206">
        <ele>3.6</ele>
        <time>2020-06-16T07:38:58Z</time>
      </trkpt>
      <trkpt lat="49.36312" lon="-1.28209">
        <ele>3.8</ele>
        <time>2020-06-16T07:38:59Z</time>
      </trkpt>
      <trkpt lat="49.36309" lon="-1.28211">
        <ele>4</ele>
        <time>2020-06-16T07:39:00Z</time>
      </trkpt>
      <trkpt lat="49.36305" lon="-1.28213">
        <ele>4.2</ele>
        <time>2020-06-16T07:39:01Z</time>
      </trkpt>
      <trkpt lat="49.363" lon="-1.28214">
        <ele>4.4</ele>
        <time>2020-06-16T07:39:02Z</time>
      </trkpt>
      <trkpt lat="49.36297" lon="-1.28215">
        <ele>4.6</ele>
        <time>2020-06-16T07:39:03Z</time>
      </trkpt>
      <trkpt lat="49.36293" lon="-1.28217">
        <ele>4.8</ele>
        <time>2020-06-16T07:39:04Z</time>
      </trkpt>
      <trkpt lat="49.3629" lon="-1.28218">
        <ele>5</ele>
        <time>2020-06-16T07:39:05Z</time>
      </trkpt>
      <trkpt lat="49.36286" lon="-1.28218">
        <ele>5.2</ele>
        <time>2020-06-16T07:39:06Z</time>
      </trkpt>
      <trkpt lat="49.36283" lon="-1.28219">
        <ele>5.4</ele>
        <time>2020-06-16T07:39:07Z</time>
      </trkpt>
      <trkpt lat="49.3628" lon="-1.28219">
        <ele>5.6</ele>
        <time>2020-06-16T07:39:08Z</time>
      </trkpt>
      <trkpt lat="49.36277" lon="-1.2822">
        <ele>5.8</ele>
        <time>2020-06-16T07:39:09Z</time>
      </trkpt>
      <trkpt lat="49.36274" lon="-1.28221">
        <ele>6</ele>
        <time>2020-06-16T07:39:10Z</time>
      </trkpt>
      <trkpt lat="49.36271" lon="-1.28222">
        <ele>6.2</ele>
        <time>2020-06-16T07:39:11Z</time>
      </trkpt>
      <trkpt lat="49.36268" lon="-1.28223">
        <ele>6.4</ele>
        <time>2020-06-16T07:39:12Z</time>
      </trkpt>
      <trkpt lat="49.36264" lon="-1.28224">
        <ele>6.6</ele>
        <time>2020-06-16T07:39:13Z</time>
      </trkpt>
      <trkpt lat="49.36261" lon="-1.28225">
        <ele>6.8</ele>
        <time>2020-06-16T07:39:14Z</time>
      </trkpt>
      <trkpt lat="49.36258" lon="-1.28226">
        <ele>7</ele>
        <time>2020-06-16T07:39:15Z</time>
      </trkpt>
      <trkpt lat="49.36255" lon="-1.28228">
        <ele>7.2</ele>
        <time>2020-06-16T07:39:16Z</time>
      </trkpt>
      <trkpt lat="49.36252" lon="-1.28229">
        <ele>7.4</ele>
        <time>2020-06-16T07:39:17Z</time>
      </trkpt>
      <trkpt lat="49.36249" lon="-1.28229">
        <ele>7.6</ele>
        <time>2020-06-16T07:39:18Z</time>
      </trkpt>
      <trkpt lat="49.36246" lon="-1.2823">
        <ele>7.7</ele>
        <time>2020-06-16T07:39:19Z</time>
      </trkpt>
      <trkpt lat="49.36242" lon="-1.28231">
        <ele>8</ele>
        <time>2020-06-16T07:39:20Z</time>
      </trkpt>
      <trkpt lat="49.36239" lon="-1.28233">
        <ele>8.2</ele>
        <time>2020-06-16T07:39:21Z</time>
      </trkpt>
      <trkpt lat="49.36236" lon="-1.28234">
        <ele>8.3</ele>
        <time>2020-06-16T07:39:22Z</time>
      </trkpt>
      <trkpt lat="49.36232" lon="-1.28235">
        <ele>8.5</ele>
        <time>2020-06-16T07:39:23Z</time>
      </trkpt>
      <trkpt lat="49.36229" lon="-1.28235">
        <ele>8.7</ele>
        <time>2020-06-16T07:39:24Z</time>
      </trkpt>
      <trkpt lat="49.36226" lon="-1.28236">
        <ele>8.9</ele>
        <time>2020-06-16T07:39:25Z</time>
      </trkpt>
      <trkpt lat="49.36223" lon="-1.28236">
        <ele>9</ele>
        <time>2020-06-16T07:39:26Z</time>
      </trkpt>
      <trkpt lat="49.3622" lon="-1.28237">
        <ele>9.2</ele>
        <time>2020-06-16T07:39:27Z</time>
      </trkpt>
      <trkpt lat="49.36217" lon="-1.28239">
        <ele>9.4</ele>
        <time>2020-06-16T07:39:28Z</time>
      </trkpt>
      <trkpt lat="49.36215" lon="-1.28239">
        <ele>9.5</ele>
        <time>2020-06-16T07:39:29Z</time>
      </trkpt>
      <trkpt lat="49.36212" lon="-1.2824">
        <ele>9.7</ele>
        <time>2020-06-16T07:39:30Z</time>
      </trkpt>
      <trkpt lat="49.36208" lon="-1.28239">
        <ele>9.9</ele>
        <time>2020-06-16T07:39:31Z</time>
      </trkpt>
      <trkpt lat="49.36205" lon="-1.2824">
        <ele>10.1</ele>
        <time>2020-06-16T07:39:32Z</time>
      </trkpt>
      <trkpt lat="49.36202" lon="-1.28241">
        <ele>10.3</ele>
        <time>2020-06-16T07:39:33Z</time>
      </trkpt>
      <trkpt lat="49.36198" lon="-1.28241">
        <ele>10.5</ele>
        <time>2020-06-16T07:39:34Z</time>
      </trkpt>
      <trkpt lat="49.36195" lon="-1.28242">
        <ele>10.7</ele>
        <time>2020-06-16T07:39:35Z</time>
      </trkpt>
      <trkpt lat="49.36192" lon="-1.28243">
        <ele>10.9</ele>
        <time>2020-06-16T07:39:36Z</time>
      </trkpt>
      <trkpt lat="49.36188" lon="-1.28244">
        <ele>11.1</ele>
        <time>2020-06-16T07:39:37Z</time>
      </trkpt>
      <trkpt lat="49.36184" lon="-1.28245">
        <ele>11.3</ele>
        <time>2020-06-16T07:39:38Z</time>
      </trkpt>
      <trkpt lat="49.3618" lon="-1.28246">
        <ele>11.4</ele>
        <time>2020-06-16T07:39:39Z</time>
      </trkpt>
      <trkpt lat="49.36177" lon="-1.28247">
        <ele>11.6</ele>
        <time>2020-06-16T07:39:40Z</time>
      </trkpt>
      <trkpt lat="49.36173" lon="-1.28248">
        <ele>11.7</ele>
        <time>2020-06-16T07:39:41Z</time>
      </trkpt>
      <trkpt lat="49.36169" lon="-1.28249">
        <ele>11.8</ele>
        <time>2020-06-16T07:39:42Z</time>
      </trkpt>
      <trkpt lat="49.36165" lon="-1.2825">
        <ele>11.9</ele>
        <time>2020-06-16T07:39:43Z</time>
      </trkpt>
      <trkpt lat="49.36162" lon="-1.2825">
        <ele>12.1</ele>
        <time>2020-06-16T07:39:44Z</time>
      </trkpt>
      <trkpt lat="49.36158" lon="-1.28251">
        <ele>12.3</ele>
        <time>2020-06-16T07:39:45Z</time>
      </trkpt>
      <trkpt lat="49.36155" lon="-1.28253">
        <ele>12.4</ele>
        <time>2020-06-16T07:39:46Z</time>
      </trkpt>
      <trkpt lat="49.36152" lon="-1.28254">
        <ele>12.6</ele>
        <time>2020-06-16T07:39:47Z</time>
      </trkpt>
      <trkpt lat="49.36149" lon="-1.28255">
        <ele>12.7</ele>
        <time>2020-06-16T07:39:48Z</time>
      </trkpt>
      <trkpt lat="49.36145" lon="-1.28257">
        <ele>12.9</ele>
        <time>2020-06-16T07:39:49Z</time>
      </trkpt>
      <trkpt lat="49.36142" lon="-1.28258">
        <ele>13</ele>
        <time>2020-06-16T07:39:50Z</time>
      </trkpt>
      <trkpt lat="49.36138" lon="-1.28259">
        <ele>13.2</ele>
        <time>2020-06-16T07:39:51Z</time>
      </trkpt>
      <trkpt lat="49.36135" lon="-1.28261">
        <ele>13.3</ele>
        <time>2020-06-16T07:39:52Z</time>
      </trkpt>
      <trkpt lat="49.36131" lon="-1.28263">
        <ele>13.5</ele>
        <time>2020-06-16T07:39:53Z</time>
      </trkpt>
      <trkpt lat="49.36127" lon="-1.28265">
        <ele>13.7</ele>
        <time>2020-06-16T07:39:54Z</time>
      </trkpt>
      <trkpt lat="49.36123" lon="-1.28266">
        <ele>13.8</ele>
        <time>2020-06-16T07:39:55Z</time>
      </trkpt>
      <trkpt lat="49.3612" lon="-1.28266">
        <ele>14</ele>
        <time>2020-06-16T07:39:56Z</time>
      </trkpt>
      <trkpt lat="49.36117" lon="-1.28265">
        <ele>14.1</ele>
        <time>2020-06-16T07:39:57Z</time>
      </trkpt>
      <trkpt lat="49.36114" lon="-1.28262">
        <ele>14.3</ele>
        <time>2020-06-16T07:39:58Z</time>
      </trkpt>
      <trkpt lat="49.36113" lon="-1.2826">
        <ele>14.7</ele>
        <time>2020-06-16T07:39:59Z</time>
      </trkpt>
      <trkpt lat="49.36113" lon="-1.28254">
        <ele>14.6</ele>
        <time>2020-06-16T07:40:00Z</time>
      </trkpt>
      <trkpt lat="49.36113" lon="-1.28253">
        <ele>14.6</ele>
        <time>2020-06-16T07:40:01Z</time>
      </trkpt>
      <trkpt lat="49.36114" lon="-1.28249">
        <ele>14.5</ele>
        <time>2020-06-16T07:40:02Z</time>
      </trkpt>
      <trkpt lat="49.36115" lon="-1.28247">
        <ele>14.5</ele>
        <time>2020-06-16T07:40:03Z</time>
      </trkpt>
      <trkpt lat="49.36117" lon="-1.28243">
        <ele>14.5</ele>
        <time>2020-06-16T07:40:04Z</time>
      </trkpt>
      <trkpt lat="49.36118" lon="-1.28238">
        <ele>14.4</ele>
        <time>2020-06-16T07:40:05Z</time>
      </trkpt>
      <trkpt lat="49.3612" lon="-1.28235">
        <ele>14.4</ele>
        <time>2020-06-16T07:40:06Z</time>
      </trkpt>
      <trkpt lat="49.36123" lon="-1.28231">
        <ele>14.3</ele>
        <time>2020-06-16T07:40:07Z</time>
      </trkpt>
      <trkpt lat="49.36125" lon="-1.28227">
        <ele>14.3</ele>
        <time>2020-06-16T07:40:08Z</time>
      </trkpt>
      <trkpt lat="49.31835" lon="-1.10141">
        <ele>6.4</ele>
        <time>2020-06-16T09:47:10Z</time>
      </trkpt>
      <trkpt lat="49.32552" lon="-1.08645">
        <ele>3</ele>
        <time>2020-06-16T09:54:13Z</time>
      </trkpt>
      <trkpt lat="49.32543" lon="-1.08649">
        <ele>3</ele>
        <time>2020-06-16T09:54:14Z</time>
      </trkpt>
      <trkpt lat="49.32545" lon="-1.08644">
        <ele>3</ele>
        <time>2020-06-16T09:54:15Z</time>
      </trkpt>
      <trkpt lat="49.32545" lon="-1.08639">
        <ele>3</ele>
        <time>2020-06-16T09:54:16Z</time>
      </trkpt>
      <trkpt lat="49.32548" lon="-1.08631">
        <ele>3</ele>
        <time>2020-06-16T09:54:17Z</time>
      </trkpt>
      <trkpt lat="49.32551" lon="-1.08625">
        <ele>3</ele>
        <time>2020-06-16T09:54:18Z</time>
      </trkpt>
      <trkpt lat="49.32551" lon="-1.08612">
        <ele>3</ele>
        <time>2020-06-16T09:54:19Z</time>
      </trkpt>
      <trkpt lat="49.32556" lon="-1.08606">
        <ele>3</ele>
        <time>2020-06-16T09:54:20Z</time>
      </trkpt>
      <trkpt lat="49.3256" lon="-1.08601">
        <ele>3</ele>
        <time>2020-06-16T09:54:21Z</time>
      </trkpt>
      <trkpt lat="49.3256" lon="-1.08601">
        <ele>3</ele>
        <time>2020-06-16T09:54:21Z</time>
      </trkpt>
      <trkpt lat="49.32563" lon="-1.08596">
        <ele>3</ele>
        <time>2020-06-16T09:54:24Z</time>
      </trkpt>
      <trkpt lat="49.32566" lon="-1.08591">
        <ele>3</ele>
        <time>2020-06-16T09:54:25Z</time>
      </trkpt>
      <trkpt lat="49.32573" lon="-1.08579">
        <ele>3</ele>
        <time>2020-06-16T09:54:26Z</time>
      </trkpt>
      <trkpt lat="49.32576" lon="-1.08573">
        <ele>3</ele>
        <time>2020-06-16T09:54:27Z</time>
      </trkpt>
      <trkpt lat="49.32579" lon="-1.08567">
        <ele>3</ele>
        <time>2020-06-16T09:54:28Z</time>
      </trkpt>
      <trkpt lat="49.32582" lon="-1.0856">
        <ele>3</ele>
        <time>2020-06-16T09:54:29Z</time>
      </trkpt>
      <trkpt lat="49.32585" lon="-1.08554">
        <ele>3</ele>
        <time>2020-06-16T09:54:30Z</time>
      </trkpt>
      <trkpt lat="49.32587" lon="-1.08548">
        <ele>3</ele>
        <time>2020-06-16T09:54:31Z</time>
      </trkpt>
      <trkpt lat="49.3259" lon="-1.08542">
        <ele>3</ele>
        <time>2020-06-16T09:54:32Z</time>
      </trkpt>
      <trkpt lat="49.32594" lon="-1.08536">
        <ele>3</ele>
        <time>2020-06-16T09:54:33Z</time>
      </trkpt>
      <trkpt lat="49.32598" lon="-1.08531">
        <ele>3</ele>
        <time>2020-06-16T09:54:34Z</time>
      </trkpt>
      <trkpt lat="49.32601" lon="-1.08524">
        <ele>3</ele>
        <time>2020-06-16T09:54:35Z</time>
      </trkpt>
      <trkpt lat="49.32604" lon="-1.08518">
        <ele>3.1</ele>
        <time>2020-06-16T09:54:36Z</time>
      </trkpt>
      <trkpt lat="49.32606" lon="-1.08511">
        <ele>3.1</ele>
        <time>2020-06-16T09:54:37Z</time>
      </trkpt>
      <trkpt lat="49.3261" lon="-1.08505">
        <ele>3.1</ele>
        <time>2020-06-16T09:54:38Z</time>
      </trkpt>
      <trkpt lat="49.32613" lon="-1.08498">
        <ele>3.1</ele>
        <time>2020-06-16T09:54:39Z</time>
      </trkpt>
      <trkpt lat="49.32616" lon="-1.08491">
        <ele>3.1</ele>
        <time>2020-06-16T09:54:40Z</time>
      </trkpt>
      <trkpt lat="49.3262" lon="-1.08483">
        <ele>3</ele>
        <time>2020-06-16T09:54:41Z</time>
      </trkpt>
      <trkpt lat="49.32624" lon="-1.08477">
        <ele>3</ele>
        <time>2020-06-16T09:54:42Z</time>
      </trkpt>
      <trkpt lat="49.32628" lon="-1.08471">
        <ele>3.1</ele>
        <time>2020-06-16T09:54:43Z</time>
      </trkpt>
      <trkpt lat="49.32631" lon="-1.08465">
        <ele>3.1</ele>
        <time>2020-06-16T09:54:44Z</time>
      </trkpt>
      <trkpt lat="49.32634" lon="-1.08458">
        <ele>3.1</ele>
        <time>2020-06-16T09:54:45Z</time>
      </trkpt>
      <trkpt lat="49.32638" lon="-1.08454">
        <ele>3.1</ele>
        <time>2020-06-16T09:54:46Z</time>
      </trkpt>
      <trkpt lat="49.32643" lon="-1.08449">
        <ele>3.1</ele>
        <time>2020-06-16T09:54:47Z</time>
      </trkpt>
      <trkpt lat="49.32647" lon="-1.08443">
        <ele>3.2</ele>
        <time>2020-06-16T09:54:48Z</time>
      </trkpt>
      <trkpt lat="49.3265" lon="-1.08437">
        <ele>3.2</ele>
        <time>2020-06-16T09:54:49Z</time>
      </trkpt>
      <trkpt lat="49.32653" lon="-1.0843">
        <ele>3.2</ele>
        <time>2020-06-16T09:54:50Z</time>
      </trkpt>
      <trkpt lat="49.32656" lon="-1.08424">
        <ele>3.2</ele>
        <time>2020-06-16T09:54:51Z</time>
      </trkpt>
      <trkpt lat="49.32659" lon="-1.08418">
        <ele>3.3</ele>
        <time>2020-06-16T09:54:52Z</time>
      </trkpt>
      <trkpt lat="49.32662" lon="-1.08411">
        <ele>3.3</ele>
        <time>2020-06-16T09:54:53Z</time>
      </trkpt>
      <trkpt lat="49.32664" lon="-1.08406">
        <ele>3.3</ele>
        <time>2020-06-16T09:54:54Z</time>
      </trkpt>
      <trkpt lat="49.32667" lon="-1.084">
        <ele>3.4</ele>
        <time>2020-06-16T09:54:55Z</time>
      </trkpt>
      <trkpt lat="49.3267" lon="-1.08394">
        <ele>3.4</ele>
        <time>2020-06-16T09:54:56Z</time>
      </trkpt>
      <trkpt lat="49.32673" lon="-1.08389">
        <ele>3.4</ele>
        <time>2020-06-16T09:54:57Z</time>
      </trkpt>
      <trkpt lat="49.32675" lon="-1.08382">
        <ele>3.5</ele>
        <time>2020-06-16T09:54:58Z</time>
      </trkpt>
      <trkpt lat="49.32677" lon="-1.08376">
        <ele>3.6</ele>
        <time>2020-06-16T09:54:59Z</time>
      </trkpt>
      <trkpt lat="49.3268" lon="-1.0837">
        <ele>3.7</ele>
        <time>2020-06-16T09:55:00Z</time>
      </trkpt>
      <trkpt lat="49.32682" lon="-1.08363">
        <ele>3.7</ele>
        <time>2020-06-16T09:55:01Z</time>
      </trkpt>
      <trkpt lat="49.32685" lon="-1.08356">
        <ele>3.9</ele>
        <time>2020-06-16T09:55:02Z</time>
      </trkpt>
      <trkpt lat="49.32688" lon="-1.08351">
        <ele>4</ele>
        <time>2020-06-16T09:55:03Z</time>
      </trkpt>
      <trkpt lat="49.32691" lon="-1.08346">
        <ele>4.1</ele>
        <time>2020-06-16T09:55:04Z</time>
      </trkpt>
      <trkpt lat="49.32694" lon="-1.08341">
        <ele>4.2</ele>
        <time>2020-06-16T09:55:05Z</time>
      </trkpt>
      <trkpt lat="49.32697" lon="-1.08336">
        <ele>4.3</ele>
        <time>2020-06-16T09:55:06Z</time>
      </trkpt>
      <trkpt lat="49.32701" lon="-1.08333">
        <ele>4.4</ele>
        <time>2020-06-16T09:55:07Z</time>
      </trkpt>
      <trkpt lat="49.32705" lon="-1.08331">
        <ele>4.6</ele>
        <time>2020-06-16T09:55:08Z</time>
      </trkpt>
      <trkpt lat="49.32709" lon="-1.0833">
        <ele>4.7</ele>
        <time>2020-06-16T09:55:09Z</time>
      </trkpt>
      <trkpt lat="49.32712" lon="-1.08329">
        <ele>4.7</ele>
        <time>2020-06-16T09:55:10Z</time>
      </trkpt>
      <trkpt lat="49.32715" lon="-1.08327">
        <ele>4.7</ele>
        <time>2020-06-16T09:55:11Z</time>
      </trkpt>
      <trkpt lat="49.32719" lon="-1.08325">
        <ele>4.7</ele>
        <time>2020-06-16T09:55:12Z</time>
      </trkpt>
      <trkpt lat="49.32723" lon="-1.08325">
        <ele>4.6</ele>
        <time>2020-06-16T09:55:13Z</time>
      </trkpt>
      <trkpt lat="49.32727" lon="-1.08325">
        <ele>4.6</ele>
        <time>2020-06-16T09:55:14Z</time>
      </trkpt>
      <trkpt lat="49.32731" lon="-1.08326">
        <ele>4.6</ele>
        <time>2020-06-16T09:55:15Z</time>
      </trkpt>
      <trkpt lat="49.32735" lon="-1.08329">
        <ele>4.6</ele>
        <time>2020-06-16T09:55:16Z</time>
      </trkpt>
      <trkpt lat="49.32739" lon="-1.08331">
        <ele>4.5</ele>
        <time>2020-06-16T09:55:17Z</time>
      </trkpt>
      <trkpt lat="49.32743" lon="-1.08333">
        <ele>4.5</ele>
        <time>2020-06-16T09:55:18Z</time>
      </trkpt>
      <trkpt lat="49.32747" lon="-1.08335">
        <ele>4.6</ele>
        <time>2020-06-16T09:55:19Z</time>
      </trkpt>
      <trkpt lat="49.32751" lon="-1.08337">
        <ele>4.6</ele>
        <time>2020-06-16T09:55:20Z</time>
      </trkpt>
      <trkpt lat="49.32755" lon="-1.08338">
        <ele>4.6</ele>
        <time>2020-06-16T09:55:21Z</time>
      </trkpt>
      <trkpt lat="49.32758" lon="-1.0834">
        <ele>4.6</ele>
        <time>2020-06-16T09:55:22Z</time>
      </trkpt>
      <trkpt lat="49.32761" lon="-1.08341">
        <ele>4.7</ele>
        <time>2020-06-16T09:55:23Z</time>
      </trkpt>
      <trkpt lat="49.32764" lon="-1.08343">
        <ele>4.7</ele>
        <time>2020-06-16T09:55:24Z</time>
      </trkpt>
      <trkpt lat="49.32767" lon="-1.08344">
        <ele>4.7</ele>
        <time>2020-06-16T09:55:25Z</time>
      </trkpt>
      <trkpt lat="49.32771" lon="-1.08344">
        <ele>4.8</ele>
        <time>2020-06-16T09:55:26Z</time>
      </trkpt>
      <trkpt lat="49.32774" lon="-1.08345">
        <ele>4.8</ele>
        <time>2020-06-16T09:55:27Z</time>
      </trkpt>
      <trkpt lat="49.32778" lon="-1.08346">
        <ele>4.8</ele>
        <time>2020-06-16T09:55:28Z</time>
      </trkpt>
      <trkpt lat="49.3278" lon="-1.08346">
        <ele>4.9</ele>
        <time>2020-06-16T09:55:29Z</time>
      </trkpt>
      <trkpt lat="49.32783" lon="-1.08347">
        <ele>4.9</ele>
        <time>2020-06-16T09:55:30Z</time>
      </trkpt>
      <trkpt lat="49.32786" lon="-1.08347">
        <ele>4.9</ele>
        <time>2020-06-16T09:55:31Z</time>
      </trkpt>
      <trkpt lat="49.32789" lon="-1.08346">
        <ele>5</ele>
        <time>2020-06-16T09:55:32Z</time>
      </trkpt>
      <trkpt lat="49.32793" lon="-1.08346">
        <ele>5</ele>
        <time>2020-06-16T09:55:33Z</time>
      </trkpt>
      <trkpt lat="49.32796" lon="-1.08344">
        <ele>5.4</ele>
        <time>2020-06-16T09:55:34Z</time>
      </trkpt>
      <trkpt lat="49.32799" lon="-1.0834">
        <ele>5.5</ele>
        <time>2020-06-16T09:55:35Z</time>
      </trkpt>
      <trkpt lat="49.32801" lon="-1.08332">
        <ele>5.7</ele>
        <time>2020-06-16T09:55:36Z</time>
      </trkpt>
      <trkpt lat="49.32804" lon="-1.08326">
        <ele>5.9</ele>
        <time>2020-06-16T09:55:37Z</time>
      </trkpt>
      <trkpt lat="49.32807" lon="-1.08321">
        <ele>6</ele>
        <time>2020-06-16T09:55:38Z</time>
      </trkpt>
      <trkpt lat="49.3281" lon="-1.08315">
        <ele>6.2</ele>
        <time>2020-06-16T09:55:39Z</time>
      </trkpt>
      <trkpt lat="49.32813" lon="-1.08308">
        <ele>6.4</ele>
        <time>2020-06-16T09:55:40Z</time>
      </trkpt>
      <trkpt lat="49.32816" lon="-1.083">
        <ele>6.5</ele>
        <time>2020-06-16T09:55:41Z</time>
      </trkpt>
      <trkpt lat="49.32818" lon="-1.08294">
        <ele>6.6</ele>
        <time>2020-06-16T09:55:42Z</time>
      </trkpt>
      <trkpt lat="49.32823" lon="-1.08287">
        <ele>6.7</ele>
        <time>2020-06-16T09:55:43Z</time>
      </trkpt>
      <trkpt lat="49.32826" lon="-1.08281">
        <ele>6.8</ele>
        <time>2020-06-16T09:55:44Z</time>
      </trkpt>
      <trkpt lat="49.3283" lon="-1.08276">
        <ele>6.9</ele>
        <time>2020-06-16T09:55:45Z</time>
      </trkpt>
      <trkpt lat="49.32832" lon="-1.0827">
        <ele>7</ele>
        <time>2020-06-16T09:55:46Z</time>
      </trkpt>
      <trkpt lat="49.32836" lon="-1.08264">
        <ele>7.1</ele>
        <time>2020-06-16T09:55:47Z</time>
      </trkpt>
      <trkpt lat="49.32839" lon="-1.08259">
        <ele>7.2</ele>
        <time>2020-06-16T09:55:48Z</time>
      </trkpt>
      <trkpt lat="49.32843" lon="-1.08252">
        <ele>7.3</ele>
        <time>2020-06-16T09:55:49Z</time>
      </trkpt>
      <trkpt lat="49.32846" lon="-1.08247">
        <ele>7.4</ele>
        <time>2020-06-16T09:55:50Z</time>
      </trkpt>
      <trkpt lat="49.32849" lon="-1.08241">
        <ele>7.5</ele>
        <time>2020-06-16T09:55:51Z</time>
      </trkpt>
      <trkpt lat="49.32852" lon="-1.08236">
        <ele>7.5</ele>
        <time>2020-06-16T09:55:52Z</time>
      </trkpt>
      <trkpt lat="49.32854" lon="-1.08231">
        <ele>7.6</ele>
        <time>2020-06-16T09:55:53Z</time>
      </trkpt>
      <trkpt lat="49.32856" lon="-1.08226">
        <ele>7.7</ele>
        <time>2020-06-16T09:55:54Z</time>
      </trkpt>
      <trkpt lat="49.32859" lon="-1.08221">
        <ele>7.8</ele>
        <time>2020-06-16T09:55:55Z</time>
      </trkpt>
      <trkpt lat="49.32861" lon="-1.08216">
        <ele>7.9</ele>
        <time>2020-06-16T09:55:56Z</time>
      </trkpt>
      <trkpt lat="49.32864" lon="-1.0821">
        <ele>8.1</ele>
        <time>2020-06-16T09:55:57Z</time>
      </trkpt>
      <trkpt lat="49.32867" lon="-1.08205">
        <ele>8.2</ele>
        <time>2020-06-16T09:55:58Z</time>
      </trkpt>
      <trkpt lat="49.3287" lon="-1.08201">
        <ele>8.3</ele>
        <time>2020-06-16T09:55:59Z</time>
      </trkpt>
      <trkpt lat="49.32872" lon="-1.08196">
        <ele>8.4</ele>
        <time>2020-06-16T09:56:00Z</time>
      </trkpt>
      <trkpt lat="49.32875" lon="-1.08191">
        <ele>8.5</ele>
        <time>2020-06-16T09:56:01Z</time>
      </trkpt>
      <trkpt lat="49.32877" lon="-1.08185">
        <ele>8.6</ele>
        <time>2020-06-16T09:56:02Z</time>
      </trkpt>
      <trkpt lat="49.3288" lon="-1.0818">
        <ele>8.8</ele>
        <time>2020-06-16T09:56:03Z</time>
      </trkpt>
      <trkpt lat="49.32883" lon="-1.08174">
        <ele>8.9</ele>
        <time>2020-06-16T09:56:04Z</time>
      </trkpt>
      <trkpt lat="49.32886" lon="-1.08169">
        <ele>9</ele>
        <time>2020-06-16T09:56:05Z</time>
      </trkpt>
      <trkpt lat="49.32889" lon="-1.08163">
        <ele>9.2</ele>
        <time>2020-06-16T09:56:06Z</time>
      </trkpt>
      <trkpt lat="49.32892" lon="-1.08158">
        <ele>9.3</ele>
        <time>2020-06-16T09:56:07Z</time>
      </trkpt>
      <trkpt lat="49.32896" lon="-1.08153">
        <ele>9.4</ele>
        <time>2020-06-16T09:56:08Z</time>
      </trkpt>
      <trkpt lat="49.32899" lon="-1.08147">
        <ele>9.5</ele>
        <time>2020-06-16T09:56:09Z</time>
      </trkpt>
      <trkpt lat="49.32903" lon="-1.08143">
        <ele>9.6</ele>
        <time>2020-06-16T09:56:10Z</time>
      </trkpt>
      <trkpt lat="49.32906" lon="-1.08139">
        <ele>9.7</ele>
        <time>2020-06-16T09:56:11Z</time>
      </trkpt>
      <trkpt lat="49.32909" lon="-1.08134">
        <ele>9.8</ele>
        <time>2020-06-16T09:56:12Z</time>
      </trkpt>
      <trkpt lat="49.32912" lon="-1.08129">
        <ele>9.8</ele>
        <time>2020-06-16T09:56:13Z</time>
      </trkpt>
      <trkpt lat="49.32916" lon="-1.08124">
        <ele>9.9</ele>
        <time>2020-06-16T09:56:14Z</time>
      </trkpt>
      <trkpt lat="49.3292" lon="-1.08119">
        <ele>10</ele>
        <time>2020-06-16T09:56:15Z</time>
      </trkpt>
      <trkpt lat="49.32923" lon="-1.08114">
        <ele>10.1</ele>
        <time>2020-06-16T09:56:16Z</time>
      </trkpt>
      <trkpt lat="49.32927" lon="-1.08109">
        <ele>10.3</ele>
        <time>2020-06-16T09:56:17Z</time>
      </trkpt>
      <trkpt lat="49.3293" lon="-1.08104">
        <ele>10.4</ele>
        <time>2020-06-16T09:56:18Z</time>
      </trkpt>
      <trkpt lat="49.32933" lon="-1.081">
        <ele>10.6</ele>
        <time>2020-06-16T09:56:19Z</time>
      </trkpt>
      <trkpt lat="49.32936" lon="-1.08096">
        <ele>10.7</ele>
        <time>2020-06-16T09:56:20Z</time>
      </trkpt>
      <trkpt lat="49.3294" lon="-1.08092">
        <ele>10.9</ele>
        <time>2020-06-16T09:56:21Z</time>
      </trkpt>
      <trkpt lat="49.32943" lon="-1.08087">
        <ele>11</ele>
        <time>2020-06-16T09:56:22Z</time>
      </trkpt>
      <trkpt lat="49.32946" lon="-1.08082">
        <ele>11.1</ele>
        <time>2020-06-16T09:56:23Z</time>
      </trkpt>
      <trkpt lat="49.32949" lon="-1.08078">
        <ele>11.2</ele>
        <time>2020-06-16T09:56:24Z</time>
      </trkpt>
      <trkpt lat="49.32952" lon="-1.08073">
        <ele>11.4</ele>
        <time>2020-06-16T09:56:25Z</time>
      </trkpt>
      <trkpt lat="49.32955" lon="-1.08069">
        <ele>11.5</ele>
        <time>2020-06-16T09:56:26Z</time>
      </trkpt>
      <trkpt lat="49.32959" lon="-1.08064">
        <ele>11.6</ele>
        <time>2020-06-16T09:56:27Z</time>
      </trkpt>
      <trkpt lat="49.32962" lon="-1.08059">
        <ele>11.8</ele>
        <time>2020-06-16T09:56:28Z</time>
      </trkpt>
      <trkpt lat="49.32966" lon="-1.08055">
        <ele>12</ele>
        <time>2020-06-16T09:56:29Z</time>
      </trkpt>
      <trkpt lat="49.32969" lon="-1.08051">
        <ele>12.1</ele>
        <time>2020-06-16T09:56:30Z</time>
      </trkpt>
      <trkpt lat="49.32973" lon="-1.08046">
        <ele>12.3</ele>
        <time>2020-06-16T09:56:31Z</time>
      </trkpt>
      <trkpt lat="49.32976" lon="-1.08042">
        <ele>12.4</ele>
        <time>2020-06-16T09:56:32Z</time>
      </trkpt>
      <trkpt lat="49.3298" lon="-1.08038">
        <ele>12.7</ele>
        <time>2020-06-16T09:56:33Z</time>
      </trkpt>
      <trkpt lat="49.32983" lon="-1.08033">
        <ele>12.8</ele>
        <time>2020-06-16T09:56:34Z</time>
      </trkpt>
      <trkpt lat="49.32987" lon="-1.08029">
        <ele>12.9</ele>
        <time>2020-06-16T09:56:35Z</time>
      </trkpt>
      <trkpt lat="49.32991" lon="-1.08024">
        <ele>12.9</ele>
        <time>2020-06-16T09:56:36Z</time>
      </trkpt>
      <trkpt lat="49.32994" lon="-1.08019">
        <ele>13</ele>
        <time>2020-06-16T09:56:37Z</time>
      </trkpt>
      <trkpt lat="49.32999" lon="-1.08015">
        <ele>13.1</ele>
        <time>2020-06-16T09:56:38Z</time>
      </trkpt>
      <trkpt lat="49.33003" lon="-1.08011">
        <ele>13.2</ele>
        <time>2020-06-16T09:56:39Z</time>
      </trkpt>
      <trkpt lat="49.33006" lon="-1.08006">
        <ele>13.2</ele>
        <time>2020-06-16T09:56:40Z</time>
      </trkpt>
      <trkpt lat="49.33009" lon="-1.08001">
        <ele>13.3</ele>
        <time>2020-06-16T09:56:41Z</time>
      </trkpt>
      <trkpt lat="49.3301" lon="-1.07996">
        <ele>13.4</ele>
        <time>2020-06-16T09:56:42Z</time>
      </trkpt>
      <trkpt lat="49.33012" lon="-1.07992">
        <ele>13.4</ele>
        <time>2020-06-16T09:56:43Z</time>
      </trkpt>
      <trkpt lat="49.33015" lon="-1.07989">
        <ele>13.5</ele>
        <time>2020-06-16T09:56:44Z</time>
      </trkpt>
      <trkpt lat="49.33017" lon="-1.07985">
        <ele>13.7</ele>
        <time>2020-06-16T09:56:45Z</time>
      </trkpt>
      <trkpt lat="49.33021" lon="-1.07984">
        <ele>13.7</ele>
        <time>2020-06-16T09:56:46Z</time>
      </trkpt>
      <trkpt lat="49.33024" lon="-1.07983">
        <ele>13.8</ele>
        <time>2020-06-16T09:56:47Z</time>
      </trkpt>
      <trkpt lat="49.33028" lon="-1.07983">
        <ele>14</ele>
        <time>2020-06-16T09:56:48Z</time>
      </trkpt>
      <trkpt lat="49.3303" lon="-1.07982">
        <ele>14</ele>
        <time>2020-06-16T09:56:49Z</time>
      </trkpt>
      <trkpt lat="49.33033" lon="-1.07982">
        <ele>14.1</ele>
        <time>2020-06-16T09:56:50Z</time>
      </trkpt>
      <trkpt lat="49.33036" lon="-1.07981">
        <ele>14.2</ele>
        <time>2020-06-16T09:56:51Z</time>
      </trkpt>
      <trkpt lat="49.33039" lon="-1.07979">
        <ele>14.3</ele>
        <time>2020-06-16T09:56:52Z</time>
      </trkpt>
      <trkpt lat="49.33043" lon="-1.07978">
        <ele>14.4</ele>
        <time>2020-06-16T09:56:53Z</time>
      </trkpt>
      <trkpt lat="49.33046" lon="-1.07976">
        <ele>14.5</ele>
        <time>2020-06-16T09:56:54Z</time>
      </trkpt>
      <trkpt lat="49.33049" lon="-1.07975">
        <ele>14.7</ele>
        <time>2020-06-16T09:56:55Z</time>
      </trkpt>
      <trkpt lat="49.33053" lon="-1.07973">
        <ele>14.7</ele>
        <time>2020-06-16T09:56:56Z</time>
      </trkpt>
      <trkpt lat="49.33054" lon="-1.07973">
        <ele>14.7</ele>
        <time>2020-06-16T09:56:57Z</time>
      </trkpt>
      <trkpt lat="49.33055" lon="-1.07969">
        <ele>14.6</ele>
        <time>2020-06-16T09:56:58Z</time>
      </trkpt>
      <trkpt lat="49.33055" lon="-1.07963">
        <ele>14.6</ele>
        <time>2020-06-16T09:56:59Z</time>
      </trkpt>
      <trkpt lat="49.33053" lon="-1.07959">
        <ele>14.6</ele>
        <time>2020-06-16T09:57:00Z</time>
      </trkpt>
      <trkpt lat="49.33051" lon="-1.07953">
        <ele>14.5</ele>
        <time>2020-06-16T09:57:01Z</time>
      </trkpt>
      <trkpt lat="49.33049" lon="-1.07946">
        <ele>14.5</ele>
        <time>2020-06-16T09:57:02Z</time>
      </trkpt>
      <trkpt lat="49.33047" lon="-1.07939">
        <ele>14.5</ele>
        <time>2020-06-16T09:57:03Z</time>
      </trkpt>
      <trkpt lat="49.33045" lon="-1.07932">
        <ele>14.5</ele>
        <time>2020-06-16T09:57:04Z</time>
      </trkpt>
      <trkpt lat="49.33043" lon="-1.07925">
        <ele>14.5</ele>
        <time>2020-06-16T09:57:05Z</time>
      </trkpt>
      <trkpt lat="49.33041" lon="-1.07917">
        <ele>14.5</ele>
        <time>2020-06-16T09:57:06Z</time>
      </trkpt>
      <trkpt lat="49.3304" lon="-1.0791">
        <ele>14.6</ele>
        <time>2020-06-16T09:57:07Z</time>
      </trkpt>
      <trkpt lat="49.33039" lon="-1.07902">
        <ele>14.6</ele>
        <time>2020-06-16T09:57:08Z</time>
      </trkpt>
      <trkpt lat="49.33038" lon="-1.07893">
        <ele>14.9</ele>
        <time>2020-06-16T09:57:09Z</time>
      </trkpt>
      <trkpt lat="49.33038" lon="-1.07886">
        <ele>15.2</ele>
        <time>2020-06-16T09:57:10Z</time>
      </trkpt>
      <trkpt lat="49.33038" lon="-1.07879">
        <ele>15.4</ele>
        <time>2020-06-16T09:57:11Z</time>
      </trkpt>
      <trkpt lat="49.3304" lon="-1.07875">
        <ele>15.5</ele>
        <time>2020-06-16T09:57:12Z</time>
      </trkpt>
      <trkpt lat="49.33043" lon="-1.07873">
        <ele>15.7</ele>
        <time>2020-06-16T09:57:13Z</time>
      </trkpt>
      <trkpt lat="49.33047" lon="-1.07871">
        <ele>15.8</ele>
        <time>2020-06-16T09:57:14Z</time>
      </trkpt>
      <trkpt lat="49.3305" lon="-1.07868">
        <ele>15.9</ele>
        <time>2020-06-16T09:57:15Z</time>
      </trkpt>
      <trkpt lat="49.33054" lon="-1.07866">
        <ele>16.1</ele>
        <time>2020-06-16T09:57:16Z</time>
      </trkpt>
      <trkpt lat="49.33058" lon="-1.07864">
        <ele>16.3</ele>
        <time>2020-06-16T09:57:17Z</time>
      </trkpt>
      <trkpt lat="49.33062" lon="-1.07862">
        <ele>16.5</ele>
        <time>2020-06-16T09:57:18Z</time>
      </trkpt>
      <trkpt lat="49.33065" lon="-1.0786">
        <ele>16.7</ele>
        <time>2020-06-16T09:57:19Z</time>
      </trkpt>
      <trkpt lat="49.33068" lon="-1.07858">
        <ele>16.8</ele>
        <time>2020-06-16T09:57:20Z</time>
      </trkpt>
      <trkpt lat="49.33071" lon="-1.07856">
        <ele>17</ele>
        <time>2020-06-16T09:57:21Z</time>
      </trkpt>
      <trkpt lat="49.33073" lon="-1.07854">
        <ele>17.2</ele>
        <time>2020-06-16T09:57:22Z</time>
      </trkpt>
      <trkpt lat="49.33076" lon="-1.07853">
        <ele>17.3</ele>
        <time>2020-06-16T09:57:23Z</time>
      </trkpt>
      <trkpt lat="49.3308" lon="-1.0785">
        <ele>17.7</ele>
        <time>2020-06-16T09:57:24Z</time>
      </trkpt>
      <trkpt lat="49.33083" lon="-1.07848">
        <ele>17.7</ele>
        <time>2020-06-16T09:57:25Z</time>
      </trkpt>
      <trkpt lat="49.33086" lon="-1.07847">
        <ele>17.7</ele>
        <time>2020-06-16T09:57:26Z</time>
      </trkpt>
      <trkpt lat="49.33089" lon="-1.07846">
        <ele>17.9</ele>
        <time>2020-06-16T09:57:27Z</time>
      </trkpt>
      <trkpt lat="49.33091" lon="-1.07844">
        <ele>18.1</ele>
        <time>2020-06-16T09:57:28Z</time>
      </trkpt>
      <trkpt lat="49.33096" lon="-1.07842">
        <ele>18.4</ele>
        <time>2020-06-16T09:57:29Z</time>
      </trkpt>
      <trkpt lat="49.33097" lon="-1.07841">
        <ele>18.5</ele>
        <time>2020-06-16T09:57:30Z</time>
      </trkpt>
      <trkpt lat="49.331" lon="-1.07839">
        <ele>18.7</ele>
        <time>2020-06-16T09:57:31Z</time>
      </trkpt>
      <trkpt lat="49.33104" lon="-1.07837">
        <ele>18.8</ele>
        <time>2020-06-16T09:57:32Z</time>
      </trkpt>
      <trkpt lat="49.33105" lon="-1.07837">
        <ele>18.9</ele>
        <time>2020-06-16T09:57:33Z</time>
      </trkpt>
      <trkpt lat="49.33109" lon="-1.07835">
        <ele>19.1</ele>
        <time>2020-06-16T09:57:34Z</time>
      </trkpt>
      <trkpt lat="49.33111" lon="-1.07834">
        <ele>19.2</ele>
        <time>2020-06-16T09:57:35Z</time>
      </trkpt>
      <trkpt lat="49.33114" lon="-1.07832">
        <ele>19.3</ele>
        <time>2020-06-16T09:57:36Z</time>
      </trkpt>
      <trkpt lat="49.33117" lon="-1.07831">
        <ele>19.5</ele>
        <time>2020-06-16T09:57:37Z</time>
      </trkpt>
      <trkpt lat="49.3312" lon="-1.0783">
        <ele>19.6</ele>
        <time>2020-06-16T09:57:38Z</time>
      </trkpt>
      <trkpt lat="49.33123" lon="-1.07829">
        <ele>19.8</ele>
        <time>2020-06-16T09:57:39Z</time>
      </trkpt>
      <trkpt lat="49.33126" lon="-1.07827">
        <ele>20</ele>
        <time>2020-06-16T09:57:40Z</time>
      </trkpt>
      <trkpt lat="49.33129" lon="-1.07825">
        <ele>20.1</ele>
        <time>2020-06-16T09:57:41Z</time>
      </trkpt>
      <trkpt lat="49.33132" lon="-1.07824">
        <ele>20.2</ele>
        <time>2020-06-16T09:57:42Z</time>
      </trkpt>
      <trkpt lat="49.33135" lon="-1.07823">
        <ele>20.4</ele>
        <time>2020-06-16T09:57:43Z</time>
      </trkpt>
      <trkpt lat="49.33136" lon="-1.07822">
        <ele>20.5</ele>
        <time>2020-06-16T09:57:44Z</time>
      </trkpt>
      <trkpt lat="49.33139" lon="-1.0782">
        <ele>20.7</ele>
        <time>2020-06-16T09:57:45Z</time>
      </trkpt>
      <trkpt lat="49.3314" lon="-1.07819">
        <ele>20.7</ele>
        <time>2020-06-16T09:57:46Z</time>
      </trkpt>
      <trkpt lat="49.33143" lon="-1.07816">
        <ele>20.9</ele>
        <time>2020-06-16T09:57:47Z</time>
      </trkpt>
      <trkpt lat="49.33146" lon="-1.07815">
        <ele>21</ele>
        <time>2020-06-16T09:57:48Z</time>
      </trkpt>
      <trkpt lat="49.33148" lon="-1.07813">
        <ele>21.2</ele>
        <time>2020-06-16T09:57:49Z</time>
      </trkpt>
      <trkpt lat="49.33152" lon="-1.07811">
        <ele>21.4</ele>
        <time>2020-06-16T09:57:50Z</time>
      </trkpt>
      <trkpt lat="49.33154" lon="-1.0781">
        <ele>21.5</ele>
        <time>2020-06-16T09:57:51Z</time>
      </trkpt>
      <trkpt lat="49.33157" lon="-1.07809">
        <ele>21.6</ele>
        <time>2020-06-16T09:57:52Z</time>
      </trkpt>
      <trkpt lat="49.33158" lon="-1.07809">
        <ele>21.7</ele>
        <time>2020-06-16T09:57:53Z</time>
      </trkpt>
      <trkpt lat="49.33161" lon="-1.07809">
        <ele>21.8</ele>
        <time>2020-06-16T09:57:54Z</time>
      </trkpt>
      <trkpt lat="49.33164" lon="-1.07807">
        <ele>21.9</ele>
        <time>2020-06-16T09:57:55Z</time>
      </trkpt>
      <trkpt lat="49.33167" lon="-1.07805">
        <ele>22</ele>
        <time>2020-06-16T09:57:56Z</time>
      </trkpt>
      <trkpt lat="49.33168" lon="-1.07804">
        <ele>22</ele>
        <time>2020-06-16T09:57:57Z</time>
      </trkpt>
      <trkpt lat="49.33171" lon="-1.07802">
        <ele>22.1</ele>
        <time>2020-06-16T09:57:58Z</time>
      </trkpt>
      <trkpt lat="49.33172" lon="-1.07801">
        <ele>22.1</ele>
        <time>2020-06-16T09:57:59Z</time>
      </trkpt>
      <trkpt lat="49.33174" lon="-1.07797">
        <ele>22.2</ele>
        <time>2020-06-16T09:58:00Z</time>
      </trkpt>
      <trkpt lat="49.33175" lon="-1.07797">
        <ele>22.2</ele>
        <time>2020-06-16T09:58:01Z</time>
      </trkpt>
      <trkpt lat="49.33176" lon="-1.07797">
        <ele>22.2</ele>
        <time>2020-06-16T09:58:02Z</time>
      </trkpt>
      <trkpt lat="49.33177" lon="-1.07797">
        <ele>22.2</ele>
        <time>2020-06-16T09:58:03Z</time>
      </trkpt>
      <trkpt lat="49.33178" lon="-1.07797">
        <ele>22.2</ele>
        <time>2020-06-16T09:58:04Z</time>
      </trkpt>
      <trkpt lat="49.33179" lon="-1.07797">
        <ele>22.3</ele>
        <time>2020-06-16T09:58:05Z</time>
      </trkpt>
      <trkpt lat="49.33181" lon="-1.07795">
        <ele>22.3</ele>
        <time>2020-06-16T09:58:06Z</time>
      </trkpt>
      <trkpt lat="49.33182" lon="-1.07794">
        <ele>22.3</ele>
        <time>2020-06-16T09:58:07Z</time>
      </trkpt>
      <trkpt lat="49.33183" lon="-1.07793">
        <ele>22.4</ele>
        <time>2020-06-16T09:58:08Z</time>
      </trkpt>
      <trkpt lat="49.33184" lon="-1.07793">
        <ele>22.4</ele>
        <time>2020-06-16T09:58:09Z</time>
      </trkpt>
      <trkpt lat="49.33185" lon="-1.07792">
        <ele>22.4</ele>
        <time>2020-06-16T09:58:10Z</time>
      </trkpt>
      <trkpt lat="49.33186" lon="-1.07791">
        <ele>22.4</ele>
        <time>2020-06-16T09:58:11Z</time>
      </trkpt>
      <trkpt lat="49.33187" lon="-1.0779">
        <ele>22.4</ele>
        <time>2020-06-16T09:58:12Z</time>
      </trkpt>
      <trkpt lat="49.33187" lon="-1.07791">
        <ele>22.5</ele>
        <time>2020-06-16T09:58:13Z</time>
      </trkpt>
      <trkpt lat="49.33188" lon="-1.07791">
        <ele>22.5</ele>
        <time>2020-06-16T09:58:14Z</time>
      </trkpt>
      <trkpt lat="49.33189" lon="-1.07792">
        <ele>22.5</ele>
        <time>2020-06-16T09:58:15Z</time>
      </trkpt>
      <trkpt lat="49.33189" lon="-1.07792">
        <ele>22.5</ele>
        <time>2020-06-16T09:58:16Z</time>
      </trkpt>
      <trkpt lat="49.33188" lon="-1.07793">
        <ele>22.6</ele>
        <time>2020-06-16T09:58:17Z</time>
      </trkpt>
      <trkpt lat="49.33186" lon="-1.07793">
        <ele>22.6</ele>
        <time>2020-06-16T09:58:18Z</time>
      </trkpt>
      <trkpt lat="49.33185" lon="-1.07793">
        <ele>22.6</ele>
        <time>2020-06-16T09:58:19Z</time>
      </trkpt>
      <trkpt lat="49.33183" lon="-1.07794">
        <ele>22.7</ele>
        <time>2020-06-16T09:58:20Z</time>
      </trkpt>
      <trkpt lat="49.33182" lon="-1.07795">
        <ele>22.7</ele>
        <time>2020-06-16T09:58:21Z</time>
      </trkpt>
      <trkpt lat="49.33181" lon="-1.07795">
        <ele>22.8</ele>
        <time>2020-06-16T09:58:22Z</time>
      </trkpt>
      <trkpt lat="49.3318" lon="-1.07796">
        <ele>22.8</ele>
        <time>2020-06-16T09:58:23Z</time>
      </trkpt>
      <trkpt lat="49.33178" lon="-1.07797">
        <ele>22.9</ele>
        <time>2020-06-16T09:58:24Z</time>
      </trkpt>
      <trkpt lat="49.33177" lon="-1.07798">
        <ele>22.9</ele>
        <time>2020-06-16T09:58:25Z</time>
      </trkpt>
      <trkpt lat="49.33175" lon="-1.07799">
        <ele>23</ele>
        <time>2020-06-16T09:58:26Z</time>
      </trkpt>
      <trkpt lat="49.33172" lon="-1.07801">
        <ele>23.1</ele>
        <time>2020-06-16T09:58:27Z</time>
      </trkpt>
      <trkpt lat="49.33171" lon="-1.07802">
        <ele>23.1</ele>
        <time>2020-06-16T09:58:28Z</time>
      </trkpt>
      <trkpt lat="49.33168" lon="-1.07804">
        <ele>23.3</ele>
        <time>2020-06-16T09:58:29Z</time>
      </trkpt>
      <trkpt lat="49.33166" lon="-1.07804">
        <ele>23.3</ele>
        <time>2020-06-16T09:58:30Z</time>
      </trkpt>
      <trkpt lat="49.33162" lon="-1.07805">
        <ele>23.4</ele>
        <time>2020-06-16T09:58:31Z</time>
      </trkpt>
      <trkpt lat="49.33161" lon="-1.07805">
        <ele>23.5</ele>
        <time>2020-06-16T09:58:32Z</time>
      </trkpt>
      <trkpt lat="49.33157" lon="-1.07805">
        <ele>23.6</ele>
        <time>2020-06-16T09:58:33Z</time>
      </trkpt>
      <trkpt lat="49.33156" lon="-1.07803">
        <ele>23.7</ele>
        <time>2020-06-16T09:58:34Z</time>
      </trkpt>
      <trkpt lat="49.33156" lon="-1.07801">
        <ele>23.7</ele>
        <time>2020-06-16T09:58:35Z</time>
      </trkpt>
      <trkpt lat="49.33156" lon="-1.07798">
        <ele>23.8</ele>
        <time>2020-06-16T09:58:36Z</time>
      </trkpt>
      <trkpt lat="49.33155" lon="-1.07798">
        <ele>23.8</ele>
        <time>2020-06-16T09:58:37Z</time>
      </trkpt>
      <trkpt lat="49.33155" lon="-1.07798">
        <ele>23.8</ele>
        <time>2020-06-16T09:58:38Z</time>
      </trkpt>
      <trkpt lat="49.33155" lon="-1.07798">
        <ele>23.8</ele>
        <time>2020-06-16T09:58:39Z</time>
      </trkpt>
      <trkpt lat="49.33155" lon="-1.07797">
        <ele>23.8</ele>
        <time>2020-06-16T09:58:40Z</time>
      </trkpt>
      <trkpt lat="49.33155" lon="-1.07796">
        <ele>23.9</ele>
        <time>2020-06-16T09:58:41Z</time>
      </trkpt>
      <trkpt lat="49.33154" lon="-1.07796">
        <ele>23.9</ele>
        <time>2020-06-16T09:58:42Z</time>
      </trkpt>
      <trkpt lat="49.33153" lon="-1.07796">
        <ele>23.9</ele>
        <time>2020-06-16T09:58:43Z</time>
      </trkpt>
      <trkpt lat="49.33153" lon="-1.07797">
        <ele>23.9</ele>
        <time>2020-06-16T09:58:44Z</time>
      </trkpt>
      <trkpt lat="49.33153" lon="-1.07795">
        <ele>24</ele>
        <time>2020-06-16T09:58:45Z</time>
      </trkpt>
      <trkpt lat="49.33153" lon="-1.07797">
        <ele>24</ele>
        <time>2020-06-16T09:58:46Z</time>
      </trkpt>
      <trkpt lat="49.33154" lon="-1.07795">
        <ele>24.1</ele>
        <time>2020-06-16T09:58:47Z</time>
      </trkpt>
      <trkpt lat="49.33154" lon="-1.07796">
        <ele>24.1</ele>
        <time>2020-06-16T09:58:48Z</time>
      </trkpt>
      <trkpt lat="49.33154" lon="-1.07795">
        <ele>24.1</ele>
        <time>2020-06-16T09:58:49Z</time>
      </trkpt>
      <trkpt lat="49.33154" lon="-1.07795">
        <ele>24.1</ele>
        <time>2020-06-16T09:58:50Z</time>
      </trkpt>
      <trkpt lat="49.33154" lon="-1.07795">
        <ele>24.1</ele>
        <time>2020-06-16T09:58:51Z</time>
      </trkpt>
      <trkpt lat="49.33153" lon="-1.07795">
        <ele>24.2</ele>
        <time>2020-06-16T09:58:52Z</time>
      </trkpt>
      <trkpt lat="49.33163" lon="-1.07807">
        <ele>24.5</ele>
        <time>2020-06-16T10:01:03Z</time>
      </trkpt>
      <trkpt lat="49.33165" lon="-1.07807">
        <ele>24.6</ele>
        <time>2020-06-16T10:01:04Z</time>
      </trkpt>
      <trkpt lat="49.33168" lon="-1.07805">
        <ele>24.6</ele>
        <time>2020-06-16T10:01:05Z</time>
      </trkpt>
      <trkpt lat="49.33171" lon="-1.07804">
        <ele>24.6</ele>
        <time>2020-06-16T10:01:06Z</time>
      </trkpt>
      <trkpt lat="49.33175" lon="-1.07803">
        <ele>24.5</ele>
        <time>2020-06-16T10:01:07Z</time>
      </trkpt>
      <trkpt lat="49.33178" lon="-1.07801">
        <ele>24.5</ele>
        <time>2020-06-16T10:01:08Z</time>
      </trkpt>
      <trkpt lat="49.33183" lon="-1.07798">
        <ele>24.4</ele>
        <time>2020-06-16T10:01:09Z</time>
      </trkpt>
      <trkpt lat="49.33187" lon="-1.07797">
        <ele>24.2</ele>
        <time>2020-06-16T10:01:10Z</time>
      </trkpt>
      <trkpt lat="49.3319" lon="-1.07794">
        <ele>24.1</ele>
        <time>2020-06-16T10:01:11Z</time>
      </trkpt>
      <trkpt lat="49.33194" lon="-1.07792">
        <ele>23.9</ele>
        <time>2020-06-16T10:01:12Z</time>
      </trkpt>
      <trkpt lat="49.33198" lon="-1.07791">
        <ele>23.7</ele>
        <time>2020-06-16T10:01:13Z</time>
      </trkpt>
      <trkpt lat="49.33201" lon="-1.07789">
        <ele>23.5</ele>
        <time>2020-06-16T10:01:14Z</time>
      </trkpt>
      <trkpt lat="49.33205" lon="-1.07789">
        <ele>23.4</ele>
        <time>2020-06-16T10:01:15Z</time>
      </trkpt>
      <trkpt lat="49.33208" lon="-1.07787">
        <ele>23.2</ele>
        <time>2020-06-16T10:01:16Z</time>
      </trkpt>
      <trkpt lat="49.33211" lon="-1.07786">
        <ele>23.1</ele>
        <time>2020-06-16T10:01:17Z</time>
      </trkpt>
      <trkpt lat="49.33212" lon="-1.07786">
        <ele>23</ele>
        <time>2020-06-16T10:01:18Z</time>
      </trkpt>
      <trkpt lat="49.33216" lon="-1.07785">
        <ele>22.8</ele>
        <time>2020-06-16T10:01:19Z</time>
      </trkpt>
      <trkpt lat="49.33217" lon="-1.07784">
        <ele>22.8</ele>
        <time>2020-06-16T10:01:20Z</time>
      </trkpt>
      <trkpt lat="49.33219" lon="-1.07783">
        <ele>22.7</ele>
        <time>2020-06-16T10:01:21Z</time>
      </trkpt>
      <trkpt lat="49.3322" lon="-1.07782">
        <ele>22.6</ele>
        <time>2020-06-16T10:01:22Z</time>
      </trkpt>
      <trkpt lat="49.33222" lon="-1.07778">
        <ele>22.5</ele>
        <time>2020-06-16T10:01:23Z</time>
      </trkpt>
      <trkpt lat="49.33223" lon="-1.07776">
        <ele>22.4</ele>
        <time>2020-06-16T10:01:24Z</time>
      </trkpt>
      <trkpt lat="49.33224" lon="-1.07772">
        <ele>22.2</ele>
        <time>2020-06-16T10:01:25Z</time>
      </trkpt>
      <trkpt lat="49.33227" lon="-1.07767">
        <ele>22.1</ele>
        <time>2020-06-16T10:01:26Z</time>
      </trkpt>
      <trkpt lat="49.33228" lon="-1.07766">
        <ele>22</ele>
        <time>2020-06-16T10:01:27Z</time>
      </trkpt>
      <trkpt lat="49.3323" lon="-1.07762">
        <ele>21.8</ele>
        <time>2020-06-16T10:01:28Z</time>
      </trkpt>
      <trkpt lat="49.33231" lon="-1.07761">
        <ele>21.8</ele>
        <time>2020-06-16T10:01:29Z</time>
      </trkpt>
      <trkpt lat="49.33234" lon="-1.07759">
        <ele>21.7</ele>
        <time>2020-06-16T10:01:30Z</time>
      </trkpt>
      <trkpt lat="49.33235" lon="-1.07758">
        <ele>21.6</ele>
        <time>2020-06-16T10:01:31Z</time>
      </trkpt>
      <trkpt lat="49.33236" lon="-1.07758">
        <ele>21.5</ele>
        <time>2020-06-16T10:01:32Z</time>
      </trkpt>
      <trkpt lat="49.33237" lon="-1.07758">
        <ele>21.5</ele>
        <time>2020-06-16T10:01:33Z</time>
      </trkpt>
      <trkpt lat="49.33238" lon="-1.07758">
        <ele>21.5</ele>
        <time>2020-06-16T10:01:34Z</time>
      </trkpt>
      <trkpt lat="49.33238" lon="-1.07758">
        <ele>21.4</ele>
        <time>2020-06-16T10:01:35Z</time>
      </trkpt>
      <trkpt lat="49.3324" lon="-1.07759">
        <ele>21.4</ele>
        <time>2020-06-16T10:01:36Z</time>
      </trkpt>
      <trkpt lat="49.33242" lon="-1.07759">
        <ele>21.3</ele>
        <time>2020-06-16T10:01:37Z</time>
      </trkpt>
      <trkpt lat="49.33245" lon="-1.07758">
        <ele>21.2</ele>
        <time>2020-06-16T10:01:38Z</time>
      </trkpt>
      <trkpt lat="49.33246" lon="-1.07757">
        <ele>21.1</ele>
        <time>2020-06-16T10:01:39Z</time>
      </trkpt>
      <trkpt lat="49.3325" lon="-1.07753">
        <ele>21</ele>
        <time>2020-06-16T10:01:40Z</time>
      </trkpt>
      <trkpt lat="49.33255" lon="-1.0775">
        <ele>20.8</ele>
        <time>2020-06-16T10:01:41Z</time>
      </trkpt>
      <trkpt lat="49.3326" lon="-1.07748">
        <ele>20.6</ele>
        <time>2020-06-16T10:01:42Z</time>
      </trkpt>
      <trkpt lat="49.33266" lon="-1.07745">
        <ele>20.5</ele>
        <time>2020-06-16T10:01:43Z</time>
      </trkpt>
      <trkpt lat="49.33271" lon="-1.07741">
        <ele>20.3</ele>
        <time>2020-06-16T10:01:44Z</time>
      </trkpt>
      <trkpt lat="49.33277" lon="-1.07738">
        <ele>20.2</ele>
        <time>2020-06-16T10:01:45Z</time>
      </trkpt>
      <trkpt lat="49.33282" lon="-1.07735">
        <ele>20.2</ele>
        <time>2020-06-16T10:01:46Z</time>
      </trkpt>
      <trkpt lat="49.33287" lon="-1.07731">
        <ele>20.2</ele>
        <time>2020-06-16T10:01:47Z</time>
      </trkpt>
      <trkpt lat="49.33293" lon="-1.07727">
        <ele>20.2</ele>
        <time>2020-06-16T10:01:48Z</time>
      </trkpt>
      <trkpt lat="49.33299" lon="-1.07722">
        <ele>20.2</ele>
        <time>2020-06-16T10:01:49Z</time>
      </trkpt>
      <trkpt lat="49.33304" lon="-1.07717">
        <ele>20.3</ele>
        <time>2020-06-16T10:01:50Z</time>
      </trkpt>
      <trkpt lat="49.3331" lon="-1.07714">
        <ele>20.4</ele>
        <time>2020-06-16T10:01:51Z</time>
      </trkpt>
      <trkpt lat="49.33315" lon="-1.07711">
        <ele>20.5</ele>
        <time>2020-06-16T10:01:52Z</time>
      </trkpt>
      <trkpt lat="49.3332" lon="-1.07709">
        <ele>20.6</ele>
        <time>2020-06-16T10:01:53Z</time>
      </trkpt>
      <trkpt lat="49.33325" lon="-1.07707">
        <ele>20.8</ele>
        <time>2020-06-16T10:01:54Z</time>
      </trkpt>
      <trkpt lat="49.33329" lon="-1.07705">
        <ele>20.9</ele>
        <time>2020-06-16T10:01:55Z</time>
      </trkpt>
      <trkpt lat="49.33332" lon="-1.07704">
        <ele>21</ele>
        <time>2020-06-16T10:01:56Z</time>
      </trkpt>
      <trkpt lat="49.33336" lon="-1.077">
        <ele>21.2</ele>
        <time>2020-06-16T10:01:57Z</time>
      </trkpt>
      <trkpt lat="49.33337" lon="-1.07699">
        <ele>21.2</ele>
        <time>2020-06-16T10:01:58Z</time>
      </trkpt>
      <trkpt lat="49.3334" lon="-1.07695">
        <ele>21.4</ele>
        <time>2020-06-16T10:01:59Z</time>
      </trkpt>
      <trkpt lat="49.33344" lon="-1.07693">
        <ele>21.7</ele>
        <time>2020-06-16T10:02:00Z</time>
      </trkpt>
      <trkpt lat="49.33348" lon="-1.07694">
        <ele>21.8</ele>
        <time>2020-06-16T10:02:01Z</time>
      </trkpt>
      <trkpt lat="49.33351" lon="-1.07694">
        <ele>22</ele>
        <time>2020-06-16T10:02:02Z</time>
      </trkpt>
      <trkpt lat="49.33355" lon="-1.07694">
        <ele>22.2</ele>
        <time>2020-06-16T10:02:03Z</time>
      </trkpt>
      <trkpt lat="49.33356" lon="-1.07694">
        <ele>22.2</ele>
        <time>2020-06-16T10:02:04Z</time>
      </trkpt>
      <trkpt lat="49.33359" lon="-1.07695">
        <ele>22.4</ele>
        <time>2020-06-16T10:02:05Z</time>
      </trkpt>
      <trkpt lat="49.33363" lon="-1.07695">
        <ele>22.6</ele>
        <time>2020-06-16T10:02:06Z</time>
      </trkpt>
      <trkpt lat="49.33365" lon="-1.07695">
        <ele>22.6</ele>
        <time>2020-06-16T10:02:07Z</time>
      </trkpt>
      <trkpt lat="49.33369" lon="-1.07695">
        <ele>22.8</ele>
        <time>2020-06-16T10:02:08Z</time>
      </trkpt>
      <trkpt lat="49.33371" lon="-1.07695">
        <ele>22.9</ele>
        <time>2020-06-16T10:02:09Z</time>
      </trkpt>
      <trkpt lat="49.33373" lon="-1.07695">
        <ele>23</ele>
        <time>2020-06-16T10:02:10Z</time>
      </trkpt>
      <trkpt lat="49.33377" lon="-1.07695">
        <ele>23.2</ele>
        <time>2020-06-16T10:02:11Z</time>
      </trkpt>
      <trkpt lat="49.3338" lon="-1.07695">
        <ele>23.3</ele>
        <time>2020-06-16T10:02:12Z</time>
      </trkpt>
      <trkpt lat="49.33384" lon="-1.07695">
        <ele>23.4</ele>
        <time>2020-06-16T10:02:13Z</time>
      </trkpt>
      <trkpt lat="49.33388" lon="-1.07695">
        <ele>23.6</ele>
        <time>2020-06-16T10:02:14Z</time>
      </trkpt>
      <trkpt lat="49.33392" lon="-1.07693">
        <ele>23.7</ele>
        <time>2020-06-16T10:02:15Z</time>
      </trkpt>
      <trkpt lat="49.33396" lon="-1.07692">
        <ele>23.9</ele>
        <time>2020-06-16T10:02:16Z</time>
      </trkpt>
      <trkpt lat="49.334" lon="-1.07691">
        <ele>24</ele>
        <time>2020-06-16T10:02:17Z</time>
      </trkpt>
      <trkpt lat="49.33404" lon="-1.07691">
        <ele>24.2</ele>
        <time>2020-06-16T10:02:18Z</time>
      </trkpt>
      <trkpt lat="49.33408" lon="-1.0769">
        <ele>24.3</ele>
        <time>2020-06-16T10:02:19Z</time>
      </trkpt>
      <trkpt lat="49.33412" lon="-1.07689">
        <ele>24.5</ele>
        <time>2020-06-16T10:02:20Z</time>
      </trkpt>
      <trkpt lat="49.33417" lon="-1.07687">
        <ele>24.6</ele>
        <time>2020-06-16T10:02:21Z</time>
      </trkpt>
      <trkpt lat="49.33421" lon="-1.07684">
        <ele>24.7</ele>
        <time>2020-06-16T10:02:22Z</time>
      </trkpt>
      <trkpt lat="49.33425" lon="-1.07682">
        <ele>24.9</ele>
        <time>2020-06-16T10:02:23Z</time>
      </trkpt>
      <trkpt lat="49.33429" lon="-1.07679">
        <ele>25</ele>
        <time>2020-06-16T10:02:24Z</time>
      </trkpt>
      <trkpt lat="49.33434" lon="-1.07677">
        <ele>25.1</ele>
        <time>2020-06-16T10:02:25Z</time>
      </trkpt>
      <trkpt lat="49.33437" lon="-1.07676">
        <ele>25.2</ele>
        <time>2020-06-16T10:02:26Z</time>
      </trkpt>
      <trkpt lat="49.33441" lon="-1.07674">
        <ele>25.3</ele>
        <time>2020-06-16T10:02:27Z</time>
      </trkpt>
      <trkpt lat="49.33446" lon="-1.07671">
        <ele>25.4</ele>
        <time>2020-06-16T10:02:28Z</time>
      </trkpt>
      <trkpt lat="49.3345" lon="-1.07668">
        <ele>25.5</ele>
        <time>2020-06-16T10:02:29Z</time>
      </trkpt>
      <trkpt lat="49.33455" lon="-1.07664">
        <ele>25.6</ele>
        <time>2020-06-16T10:02:30Z</time>
      </trkpt>
      <trkpt lat="49.33459" lon="-1.07662">
        <ele>25.7</ele>
        <time>2020-06-16T10:02:31Z</time>
      </trkpt>
      <trkpt lat="49.33464" lon="-1.0766">
        <ele>25.7</ele>
        <time>2020-06-16T10:02:32Z</time>
      </trkpt>
      <trkpt lat="49.33468" lon="-1.07657">
        <ele>25.8</ele>
        <time>2020-06-16T10:02:33Z</time>
      </trkpt>
      <trkpt lat="49.33472" lon="-1.07654">
        <ele>25.9</ele>
        <time>2020-06-16T10:02:34Z</time>
      </trkpt>
      <trkpt lat="49.33477" lon="-1.07652">
        <ele>25.9</ele>
        <time>2020-06-16T10:02:35Z</time>
      </trkpt>
      <trkpt lat="49.33481" lon="-1.0765">
        <ele>26</ele>
        <time>2020-06-16T10:02:36Z</time>
      </trkpt>
      <trkpt lat="49.33485" lon="-1.07648">
        <ele>26</ele>
        <time>2020-06-16T10:02:37Z</time>
      </trkpt>
      <trkpt lat="49.33489" lon="-1.07645">
        <ele>26.1</ele>
        <time>2020-06-16T10:02:38Z</time>
      </trkpt>
      <trkpt lat="49.33494" lon="-1.07642">
        <ele>26.2</ele>
        <time>2020-06-16T10:02:39Z</time>
      </trkpt>
      <trkpt lat="49.33498" lon="-1.0764">
        <ele>26.2</ele>
        <time>2020-06-16T10:02:40Z</time>
      </trkpt>
      <trkpt lat="49.33502" lon="-1.07639">
        <ele>26.3</ele>
        <time>2020-06-16T10:02:41Z</time>
      </trkpt>
      <trkpt lat="49.33507" lon="-1.07637">
        <ele>26.3</ele>
        <time>2020-06-16T10:02:42Z</time>
      </trkpt>
      <trkpt lat="49.33512" lon="-1.07635">
        <ele>26.4</ele>
        <time>2020-06-16T10:02:43Z</time>
      </trkpt>
      <trkpt lat="49.33516" lon="-1.07634">
        <ele>26.4</ele>
        <time>2020-06-16T10:02:44Z</time>
      </trkpt>
      <trkpt lat="49.33521" lon="-1.07632">
        <ele>26.4</ele>
        <time>2020-06-16T10:02:45Z</time>
      </trkpt>
      <trkpt lat="49.33526" lon="-1.0763">
        <ele>26.5</ele>
        <time>2020-06-16T10:02:46Z</time>
      </trkpt>
      <trkpt lat="49.3353" lon="-1.07629">
        <ele>26.5</ele>
        <time>2020-06-16T10:02:47Z</time>
      </trkpt>
      <trkpt lat="49.33534" lon="-1.07627">
        <ele>26.6</ele>
        <time>2020-06-16T10:02:48Z</time>
      </trkpt>
      <trkpt lat="49.33539" lon="-1.07625">
        <ele>26.6</ele>
        <time>2020-06-16T10:02:49Z</time>
      </trkpt>
      <trkpt lat="49.33543" lon="-1.07624">
        <ele>26.7</ele>
        <time>2020-06-16T10:02:50Z</time>
      </trkpt>
      <trkpt lat="49.33549" lon="-1.07622">
        <ele>26.7</ele>
        <time>2020-06-16T10:02:51Z</time>
      </trkpt>
      <trkpt lat="49.33554" lon="-1.07621">
        <ele>26.7</ele>
        <time>2020-06-16T10:02:52Z</time>
      </trkpt>
      <trkpt lat="49.33559" lon="-1.0762">
        <ele>26.7</ele>
        <time>2020-06-16T10:02:53Z</time>
      </trkpt>
      <trkpt lat="49.33564" lon="-1.07618">
        <ele>26.7</ele>
        <time>2020-06-16T10:02:54Z</time>
      </trkpt>
      <trkpt lat="49.3357" lon="-1.07615">
        <ele>26.8</ele>
        <time>2020-06-16T10:02:55Z</time>
      </trkpt>
      <trkpt lat="49.33576" lon="-1.07614">
        <ele>26.8</ele>
        <time>2020-06-16T10:02:56Z</time>
      </trkpt>
      <trkpt lat="49.33583" lon="-1.07613">
        <ele>26.8</ele>
        <time>2020-06-16T10:02:57Z</time>
      </trkpt>
      <trkpt lat="49.33589" lon="-1.07612">
        <ele>26.9</ele>
        <time>2020-06-16T10:02:58Z</time>
      </trkpt>
      <trkpt lat="49.33595" lon="-1.0761">
        <ele>26.9</ele>
        <time>2020-06-16T10:02:59Z</time>
      </trkpt>
      <trkpt lat="49.33599" lon="-1.0761">
        <ele>26.9</ele>
        <time>2020-06-16T10:03:00Z</time>
      </trkpt>
      <trkpt lat="49.33605" lon="-1.07609">
        <ele>27</ele>
        <time>2020-06-16T10:03:01Z</time>
      </trkpt>
      <trkpt lat="49.3361" lon="-1.07608">
        <ele>27</ele>
        <time>2020-06-16T10:03:02Z</time>
      </trkpt>
      <trkpt lat="49.33615" lon="-1.07607">
        <ele>27</ele>
        <time>2020-06-16T10:03:03Z</time>
      </trkpt>
      <trkpt lat="49.33621" lon="-1.07607">
        <ele>27.1</ele>
        <time>2020-06-16T10:03:04Z</time>
      </trkpt>
      <trkpt lat="49.33627" lon="-1.07606">
        <ele>27.1</ele>
        <time>2020-06-16T10:03:05Z</time>
      </trkpt>
      <trkpt lat="49.33632" lon="-1.07606">
        <ele>27.1</ele>
        <time>2020-06-16T10:03:06Z</time>
      </trkpt>
      <trkpt lat="49.33639" lon="-1.07606">
        <ele>27.1</ele>
        <time>2020-06-16T10:03:07Z</time>
      </trkpt>
      <trkpt lat="49.33644" lon="-1.07605">
        <ele>27.1</ele>
        <time>2020-06-16T10:03:08Z</time>
      </trkpt>
      <trkpt lat="49.3365" lon="-1.07605">
        <ele>27.1</ele>
        <time>2020-06-16T10:03:09Z</time>
      </trkpt>
      <trkpt lat="49.33656" lon="-1.07605">
        <ele>27.1</ele>
        <time>2020-06-16T10:03:10Z</time>
      </trkpt>
      <trkpt lat="49.33662" lon="-1.07605">
        <ele>27.2</ele>
        <time>2020-06-16T10:03:11Z</time>
      </trkpt>
      <trkpt lat="49.33668" lon="-1.07604">
        <ele>27.2</ele>
        <time>2020-06-16T10:03:12Z</time>
      </trkpt>
      <trkpt lat="49.33674" lon="-1.07603">
        <ele>27.2</ele>
        <time>2020-06-16T10:03:13Z</time>
      </trkpt>
      <trkpt lat="49.3368" lon="-1.07602">
        <ele>27.2</ele>
        <time>2020-06-16T10:03:14Z</time>
      </trkpt>
      <trkpt lat="49.33686" lon="-1.07601">
        <ele>27.2</ele>
        <time>2020-06-16T10:03:15Z</time>
      </trkpt>
      <trkpt lat="49.33691" lon="-1.07601">
        <ele>27.2</ele>
        <time>2020-06-16T10:03:16Z</time>
      </trkpt>
      <trkpt lat="49.33697" lon="-1.07599">
        <ele>27.2</ele>
        <time>2020-06-16T10:03:17Z</time>
      </trkpt>
      <trkpt lat="49.33703" lon="-1.07598">
        <ele>27.2</ele>
        <time>2020-06-16T10:03:18Z</time>
      </trkpt>
      <trkpt lat="49.33709" lon="-1.07597">
        <ele>27.1</ele>
        <time>2020-06-16T10:03:19Z</time>
      </trkpt>
      <trkpt lat="49.33715" lon="-1.07597">
        <ele>27.1</ele>
        <time>2020-06-16T10:03:20Z</time>
      </trkpt>
      <trkpt lat="49.3372" lon="-1.07597">
        <ele>27.1</ele>
        <time>2020-06-16T10:03:21Z</time>
      </trkpt>
      <trkpt lat="49.33725" lon="-1.07595">
        <ele>27.1</ele>
        <time>2020-06-16T10:03:22Z</time>
      </trkpt>
      <trkpt lat="49.33731" lon="-1.07595">
        <ele>27.1</ele>
        <time>2020-06-16T10:03:23Z</time>
      </trkpt>
      <trkpt lat="49.33737" lon="-1.07595">
        <ele>27.1</ele>
        <time>2020-06-16T10:03:24Z</time>
      </trkpt>
      <trkpt lat="49.33743" lon="-1.07594">
        <ele>27.1</ele>
        <time>2020-06-16T10:03:25Z</time>
      </trkpt>
      <trkpt lat="49.33748" lon="-1.07593">
        <ele>27.1</ele>
        <time>2020-06-16T10:03:26Z</time>
      </trkpt>
      <trkpt lat="49.33753" lon="-1.07593">
        <ele>27.2</ele>
        <time>2020-06-16T10:03:27Z</time>
      </trkpt>
      <trkpt lat="49.33758" lon="-1.07592">
        <ele>27.2</ele>
        <time>2020-06-16T10:03:28Z</time>
      </trkpt>
      <trkpt lat="49.33764" lon="-1.07592">
        <ele>27.2</ele>
        <time>2020-06-16T10:03:29Z</time>
      </trkpt>
      <trkpt lat="49.33768" lon="-1.07591">
        <ele>27.2</ele>
        <time>2020-06-16T10:03:30Z</time>
      </trkpt>
      <trkpt lat="49.33773" lon="-1.0759">
        <ele>27.3</ele>
        <time>2020-06-16T10:03:31Z</time>
      </trkpt>
      <trkpt lat="49.33777" lon="-1.0759">
        <ele>27.3</ele>
        <time>2020-06-16T10:03:32Z</time>
      </trkpt>
      <trkpt lat="49.33782" lon="-1.07588">
        <ele>27.3</ele>
        <time>2020-06-16T10:03:33Z</time>
      </trkpt>
      <trkpt lat="49.33787" lon="-1.07587">
        <ele>27.2</ele>
        <time>2020-06-16T10:03:34Z</time>
      </trkpt>
      <trkpt lat="49.33792" lon="-1.07587">
        <ele>27.2</ele>
        <time>2020-06-16T10:03:35Z</time>
      </trkpt>
      <trkpt lat="49.33797" lon="-1.07587">
        <ele>27.2</ele>
        <time>2020-06-16T10:03:36Z</time>
      </trkpt>
      <trkpt lat="49.33803" lon="-1.07586">
        <ele>27.2</ele>
        <time>2020-06-16T10:03:37Z</time>
      </trkpt>
      <trkpt lat="49.3381" lon="-1.07584">
        <ele>27.1</ele>
        <time>2020-06-16T10:03:38Z</time>
      </trkpt>
      <trkpt lat="49.33814" lon="-1.07582">
        <ele>27.1</ele>
        <time>2020-06-16T10:03:39Z</time>
      </trkpt>
      <trkpt lat="49.33818" lon="-1.07581">
        <ele>27.1</ele>
        <time>2020-06-16T10:03:40Z</time>
      </trkpt>
      <trkpt lat="49.33824" lon="-1.07581">
        <ele>27.1</ele>
        <time>2020-06-16T10:03:41Z</time>
      </trkpt>
      <trkpt lat="49.33831" lon="-1.07581">
        <ele>27</ele>
        <time>2020-06-16T10:03:42Z</time>
      </trkpt>
      <trkpt lat="49.33837" lon="-1.07582">
        <ele>27</ele>
        <time>2020-06-16T10:03:43Z</time>
      </trkpt>
      <trkpt lat="49.33844" lon="-1.07582">
        <ele>27</ele>
        <time>2020-06-16T10:03:44Z</time>
      </trkpt>
      <trkpt lat="49.3385" lon="-1.07582">
        <ele>27</ele>
        <time>2020-06-16T10:03:45Z</time>
      </trkpt>
      <trkpt lat="49.33857" lon="-1.07582">
        <ele>27</ele>
        <time>2020-06-16T10:03:46Z</time>
      </trkpt>
      <trkpt lat="49.33864" lon="-1.07583">
        <ele>26.9</ele>
        <time>2020-06-16T10:03:47Z</time>
      </trkpt>
      <trkpt lat="49.3387" lon="-1.07584">
        <ele>26.8</ele>
        <time>2020-06-16T10:03:48Z</time>
      </trkpt>
      <trkpt lat="49.33877" lon="-1.07584">
        <ele>26.8</ele>
        <time>2020-06-16T10:03:49Z</time>
      </trkpt>
      <trkpt lat="49.33884" lon="-1.07585">
        <ele>26.8</ele>
        <time>2020-06-16T10:03:50Z</time>
      </trkpt>
      <trkpt lat="49.33891" lon="-1.07586">
        <ele>26.7</ele>
        <time>2020-06-16T10:03:51Z</time>
      </trkpt>
      <trkpt lat="49.33898" lon="-1.07588">
        <ele>26.7</ele>
        <time>2020-06-16T10:03:52Z</time>
      </trkpt>
      <trkpt lat="49.33904" lon="-1.0759">
        <ele>26.6</ele>
        <time>2020-06-16T10:03:53Z</time>
      </trkpt>
      <trkpt lat="49.3391" lon="-1.07593">
        <ele>26.6</ele>
        <time>2020-06-16T10:03:54Z</time>
      </trkpt>
      <trkpt lat="49.33916" lon="-1.07594">
        <ele>26.6</ele>
        <time>2020-06-16T10:03:55Z</time>
      </trkpt>
      <trkpt lat="49.33922" lon="-1.07596">
        <ele>26.6</ele>
        <time>2020-06-16T10:03:56Z</time>
      </trkpt>
      <trkpt lat="49.33928" lon="-1.07598">
        <ele>26.6</ele>
        <time>2020-06-16T10:03:57Z</time>
      </trkpt>
      <trkpt lat="49.33934" lon="-1.07601">
        <ele>26.6</ele>
        <time>2020-06-16T10:03:58Z</time>
      </trkpt>
      <trkpt lat="49.33941" lon="-1.07604">
        <ele>26.5</ele>
        <time>2020-06-16T10:03:59Z</time>
      </trkpt>
      <trkpt lat="49.33948" lon="-1.07606">
        <ele>26.4</ele>
        <time>2020-06-16T10:04:00Z</time>
      </trkpt>
      <trkpt lat="49.33955" lon="-1.07609">
        <ele>26.4</ele>
        <time>2020-06-16T10:04:01Z</time>
      </trkpt>
      <trkpt lat="49.33962" lon="-1.0761">
        <ele>26.3</ele>
        <time>2020-06-16T10:04:02Z</time>
      </trkpt>
      <trkpt lat="49.33967" lon="-1.07611">
        <ele>26.2</ele>
        <time>2020-06-16T10:04:03Z</time>
      </trkpt>
      <trkpt lat="49.33974" lon="-1.07612">
        <ele>26.1</ele>
        <time>2020-06-16T10:04:04Z</time>
      </trkpt>
      <trkpt lat="49.3398" lon="-1.07614">
        <ele>26.1</ele>
        <time>2020-06-16T10:04:05Z</time>
      </trkpt>
      <trkpt lat="49.33987" lon="-1.07616">
        <ele>26.1</ele>
        <time>2020-06-16T10:04:06Z</time>
      </trkpt>
      <trkpt lat="49.33994" lon="-1.07618">
        <ele>26.1</ele>
        <time>2020-06-16T10:04:07Z</time>
      </trkpt>
      <trkpt lat="49.34" lon="-1.0762">
        <ele>26.1</ele>
        <time>2020-06-16T10:04:08Z</time>
      </trkpt>
      <trkpt lat="49.34006" lon="-1.07621">
        <ele>26.1</ele>
        <time>2020-06-16T10:04:09Z</time>
      </trkpt>
      <trkpt lat="49.34013" lon="-1.07622">
        <ele>26.1</ele>
        <time>2020-06-16T10:04:10Z</time>
      </trkpt>
      <trkpt lat="49.34019" lon="-1.07624">
        <ele>26.1</ele>
        <time>2020-06-16T10:04:11Z</time>
      </trkpt>
      <trkpt lat="49.34024" lon="-1.07625">
        <ele>26.1</ele>
        <time>2020-06-16T10:04:12Z</time>
      </trkpt>
      <trkpt lat="49.34031" lon="-1.07627">
        <ele>26.2</ele>
        <time>2020-06-16T10:04:13Z</time>
      </trkpt>
      <trkpt lat="49.34037" lon="-1.0763">
        <ele>26.2</ele>
        <time>2020-06-16T10:04:14Z</time>
      </trkpt>
      <trkpt lat="49.34043" lon="-1.07632">
        <ele>26.3</ele>
        <time>2020-06-16T10:04:15Z</time>
      </trkpt>
      <trkpt lat="49.34049" lon="-1.07634">
        <ele>26.4</ele>
        <time>2020-06-16T10:04:16Z</time>
      </trkpt>
      <trkpt lat="49.34055" lon="-1.07635">
        <ele>26.5</ele>
        <time>2020-06-16T10:04:17Z</time>
      </trkpt>
      <trkpt lat="49.34061" lon="-1.07636">
        <ele>26.6</ele>
        <time>2020-06-16T10:04:18Z</time>
      </trkpt>
      <trkpt lat="49.34067" lon="-1.07635">
        <ele>26.7</ele>
        <time>2020-06-16T10:04:19Z</time>
      </trkpt>
      <trkpt lat="49.34073" lon="-1.07636">
        <ele>26.7</ele>
        <time>2020-06-16T10:04:20Z</time>
      </trkpt>
      <trkpt lat="49.34078" lon="-1.07636">
        <ele>26.6</ele>
        <time>2020-06-16T10:04:21Z</time>
      </trkpt>
      <trkpt lat="49.34083" lon="-1.07637">
        <ele>26.6</ele>
        <time>2020-06-16T10:04:22Z</time>
      </trkpt>
      <trkpt lat="49.3409" lon="-1.07636">
        <ele>26.6</ele>
        <time>2020-06-16T10:04:23Z</time>
      </trkpt>
      <trkpt lat="49.34096" lon="-1.07636">
        <ele>26.6</ele>
        <time>2020-06-16T10:04:24Z</time>
      </trkpt>
      <trkpt lat="49.34102" lon="-1.07637">
        <ele>26.7</ele>
        <time>2020-06-16T10:04:25Z</time>
      </trkpt>
      <trkpt lat="49.34106" lon="-1.07636">
        <ele>26.8</ele>
        <time>2020-06-16T10:04:26Z</time>
      </trkpt>
      <trkpt lat="49.34111" lon="-1.07637">
        <ele>26.9</ele>
        <time>2020-06-16T10:04:27Z</time>
      </trkpt>
      <trkpt lat="49.34115" lon="-1.07636">
        <ele>26.9</ele>
        <time>2020-06-16T10:04:28Z</time>
      </trkpt>
      <trkpt lat="49.3412" lon="-1.07636">
        <ele>27.1</ele>
        <time>2020-06-16T10:04:29Z</time>
      </trkpt>
      <trkpt lat="49.34126" lon="-1.07636">
        <ele>27.2</ele>
        <time>2020-06-16T10:04:30Z</time>
      </trkpt>
      <trkpt lat="49.3413" lon="-1.07635">
        <ele>27.3</ele>
        <time>2020-06-16T10:04:31Z</time>
      </trkpt>
      <trkpt lat="49.34135" lon="-1.07635">
        <ele>27.4</ele>
        <time>2020-06-16T10:04:32Z</time>
      </trkpt>
      <trkpt lat="49.3414" lon="-1.07635">
        <ele>27.5</ele>
        <time>2020-06-16T10:04:33Z</time>
      </trkpt>
      <trkpt lat="49.34146" lon="-1.07635">
        <ele>27.7</ele>
        <time>2020-06-16T10:04:34Z</time>
      </trkpt>
      <trkpt lat="49.34152" lon="-1.07635">
        <ele>27.8</ele>
        <time>2020-06-16T10:04:35Z</time>
      </trkpt>
      <trkpt lat="49.34159" lon="-1.07634">
        <ele>28</ele>
        <time>2020-06-16T10:04:36Z</time>
      </trkpt>
      <trkpt lat="49.34164" lon="-1.07634">
        <ele>28.1</ele>
        <time>2020-06-16T10:04:37Z</time>
      </trkpt>
      <trkpt lat="49.3417" lon="-1.07633">
        <ele>28.2</ele>
        <time>2020-06-16T10:04:38Z</time>
      </trkpt>
      <trkpt lat="49.34175" lon="-1.07633">
        <ele>28.4</ele>
        <time>2020-06-16T10:04:39Z</time>
      </trkpt>
      <trkpt lat="49.34181" lon="-1.07633">
        <ele>28.5</ele>
        <time>2020-06-16T10:04:40Z</time>
      </trkpt>
      <trkpt lat="49.34187" lon="-1.07633">
        <ele>28.6</ele>
        <time>2020-06-16T10:04:41Z</time>
      </trkpt>
      <trkpt lat="49.34193" lon="-1.07632">
        <ele>28.7</ele>
        <time>2020-06-16T10:04:42Z</time>
      </trkpt>
      <trkpt lat="49.34199" lon="-1.07632">
        <ele>28.8</ele>
        <time>2020-06-16T10:04:43Z</time>
      </trkpt>
      <trkpt lat="49.34205" lon="-1.07631">
        <ele>29</ele>
        <time>2020-06-16T10:04:44Z</time>
      </trkpt>
      <trkpt lat="49.34211" lon="-1.07631">
        <ele>29.1</ele>
        <time>2020-06-16T10:04:45Z</time>
      </trkpt>
      <trkpt lat="49.34216" lon="-1.07631">
        <ele>29.2</ele>
        <time>2020-06-16T10:04:46Z</time>
      </trkpt>
      <trkpt lat="49.34222" lon="-1.0763">
        <ele>29.3</ele>
        <time>2020-06-16T10:04:47Z</time>
      </trkpt>
      <trkpt lat="49.34227" lon="-1.0763">
        <ele>29.4</ele>
        <time>2020-06-16T10:04:48Z</time>
      </trkpt>
      <trkpt lat="49.34233" lon="-1.07629">
        <ele>29.5</ele>
        <time>2020-06-16T10:04:49Z</time>
      </trkpt>
      <trkpt lat="49.34238" lon="-1.07629">
        <ele>29.6</ele>
        <time>2020-06-16T10:04:50Z</time>
      </trkpt>
      <trkpt lat="49.34243" lon="-1.0763">
        <ele>29.6</ele>
        <time>2020-06-16T10:04:51Z</time>
      </trkpt>
      <trkpt lat="49.34248" lon="-1.07629">
        <ele>29.7</ele>
        <time>2020-06-16T10:04:52Z</time>
      </trkpt>
      <trkpt lat="49.34253" lon="-1.07629">
        <ele>29.8</ele>
        <time>2020-06-16T10:04:53Z</time>
      </trkpt>
      <trkpt lat="49.34259" lon="-1.07629">
        <ele>29.8</ele>
        <time>2020-06-16T10:04:54Z</time>
      </trkpt>
      <trkpt lat="49.34265" lon="-1.07629">
        <ele>29.9</ele>
        <time>2020-06-16T10:04:55Z</time>
      </trkpt>
      <trkpt lat="49.34271" lon="-1.07629">
        <ele>30</ele>
        <time>2020-06-16T10:04:56Z</time>
      </trkpt>
      <trkpt lat="49.34277" lon="-1.07628">
        <ele>30.1</ele>
        <time>2020-06-16T10:04:57Z</time>
      </trkpt>
      <trkpt lat="49.34284" lon="-1.07627">
        <ele>30.2</ele>
        <time>2020-06-16T10:04:58Z</time>
      </trkpt>
      <trkpt lat="49.3429" lon="-1.07627">
        <ele>30.3</ele>
        <time>2020-06-16T10:04:59Z</time>
      </trkpt>
      <trkpt lat="49.34297" lon="-1.07625">
        <ele>30.5</ele>
        <time>2020-06-16T10:05:00Z</time>
      </trkpt>
      <trkpt lat="49.34304" lon="-1.07624">
        <ele>30.4</ele>
        <time>2020-06-16T10:05:01Z</time>
      </trkpt>
      <trkpt lat="49.34311" lon="-1.07623">
        <ele>30.4</ele>
        <time>2020-06-16T10:05:02Z</time>
      </trkpt>
      <trkpt lat="49.34317" lon="-1.07622">
        <ele>30.4</ele>
        <time>2020-06-16T10:05:03Z</time>
      </trkpt>
      <trkpt lat="49.34324" lon="-1.07621">
        <ele>30.4</ele>
        <time>2020-06-16T10:05:04Z</time>
      </trkpt>
      <trkpt lat="49.3433" lon="-1.07619">
        <ele>30.4</ele>
        <time>2020-06-16T10:05:05Z</time>
      </trkpt>
      <trkpt lat="49.34335" lon="-1.07618">
        <ele>30.4</ele>
        <time>2020-06-16T10:05:06Z</time>
      </trkpt>
      <trkpt lat="49.34341" lon="-1.07617">
        <ele>30.4</ele>
        <time>2020-06-16T10:05:07Z</time>
      </trkpt>
      <trkpt lat="49.34347" lon="-1.07616">
        <ele>30.4</ele>
        <time>2020-06-16T10:05:08Z</time>
      </trkpt>
      <trkpt lat="49.34353" lon="-1.07616">
        <ele>30.4</ele>
        <time>2020-06-16T10:05:09Z</time>
      </trkpt>
      <trkpt lat="49.34359" lon="-1.07616">
        <ele>30.4</ele>
        <time>2020-06-16T10:05:10Z</time>
      </trkpt>
      <trkpt lat="49.34365" lon="-1.07616">
        <ele>30.4</ele>
        <time>2020-06-16T10:05:11Z</time>
      </trkpt>
      <trkpt lat="49.34371" lon="-1.07616">
        <ele>30.4</ele>
        <time>2020-06-16T10:05:12Z</time>
      </trkpt>
      <trkpt lat="49.34376" lon="-1.07616">
        <ele>30.4</ele>
        <time>2020-06-16T10:05:13Z</time>
      </trkpt>
      <trkpt lat="49.34383" lon="-1.07617">
        <ele>30.5</ele>
        <time>2020-06-16T10:05:14Z</time>
      </trkpt>
      <trkpt lat="49.34389" lon="-1.07617">
        <ele>30.5</ele>
        <time>2020-06-16T10:05:15Z</time>
      </trkpt>
      <trkpt lat="49.34396" lon="-1.07616">
        <ele>30.6</ele>
        <time>2020-06-16T10:05:16Z</time>
      </trkpt>
      <trkpt lat="49.34402" lon="-1.07615">
        <ele>30.6</ele>
        <time>2020-06-16T10:05:17Z</time>
      </trkpt>
      <trkpt lat="49.34408" lon="-1.07613">
        <ele>30.5</ele>
        <time>2020-06-16T10:05:18Z</time>
      </trkpt>
      <trkpt lat="49.34414" lon="-1.07611">
        <ele>30.5</ele>
        <time>2020-06-16T10:05:19Z</time>
      </trkpt>
      <trkpt lat="49.3442" lon="-1.0761">
        <ele>30.5</ele>
        <time>2020-06-16T10:05:20Z</time>
      </trkpt>
      <trkpt lat="49.34426" lon="-1.07609">
        <ele>30.4</ele>
        <time>2020-06-16T10:05:21Z</time>
      </trkpt>
      <trkpt lat="49.34431" lon="-1.07608">
        <ele>30.4</ele>
        <time>2020-06-16T10:05:22Z</time>
      </trkpt>
      <trkpt lat="49.34436" lon="-1.07607">
        <ele>30.4</ele>
        <time>2020-06-16T10:05:23Z</time>
      </trkpt>
      <trkpt lat="49.34442" lon="-1.07606">
        <ele>30.3</ele>
        <time>2020-06-16T10:05:24Z</time>
      </trkpt>
      <trkpt lat="49.34448" lon="-1.07605">
        <ele>30.3</ele>
        <time>2020-06-16T10:05:25Z</time>
      </trkpt>
      <trkpt lat="49.34455" lon="-1.07604">
        <ele>30.3</ele>
        <time>2020-06-16T10:05:26Z</time>
      </trkpt>
      <trkpt lat="49.34461" lon="-1.07603">
        <ele>30.3</ele>
        <time>2020-06-16T10:05:27Z</time>
      </trkpt>
      <trkpt lat="49.34467" lon="-1.07601">
        <ele>30.2</ele>
        <time>2020-06-16T10:05:28Z</time>
      </trkpt>
      <trkpt lat="49.34474" lon="-1.07601">
        <ele>30.1</ele>
        <time>2020-06-16T10:05:29Z</time>
      </trkpt>
      <trkpt lat="49.3448" lon="-1.076">
        <ele>30</ele>
        <time>2020-06-16T10:05:30Z</time>
      </trkpt>
      <trkpt lat="49.34486" lon="-1.076">
        <ele>30</ele>
        <time>2020-06-16T10:05:31Z</time>
      </trkpt>
      <trkpt lat="49.34492" lon="-1.076">
        <ele>29.9</ele>
        <time>2020-06-16T10:05:32Z</time>
      </trkpt>
      <trkpt lat="49.34498" lon="-1.07599">
        <ele>29.8</ele>
        <time>2020-06-16T10:05:33Z</time>
      </trkpt>
      <trkpt lat="49.34504" lon="-1.07599">
        <ele>29.7</ele>
        <time>2020-06-16T10:05:34Z</time>
      </trkpt>
      <trkpt lat="49.34511" lon="-1.07598">
        <ele>29.6</ele>
        <time>2020-06-16T10:05:35Z</time>
      </trkpt>
      <trkpt lat="49.34518" lon="-1.07599">
        <ele>29.6</ele>
        <time>2020-06-16T10:05:36Z</time>
      </trkpt>
      <trkpt lat="49.34525" lon="-1.07599">
        <ele>29.5</ele>
        <time>2020-06-16T10:05:37Z</time>
      </trkpt>
      <trkpt lat="49.34532" lon="-1.076">
        <ele>29.4</ele>
        <time>2020-06-16T10:05:38Z</time>
      </trkpt>
      <trkpt lat="49.34539" lon="-1.076">
        <ele>29.3</ele>
        <time>2020-06-16T10:05:39Z</time>
      </trkpt>
      <trkpt lat="49.34546" lon="-1.07601">
        <ele>29.2</ele>
        <time>2020-06-16T10:05:40Z</time>
      </trkpt>
      <trkpt lat="49.34552" lon="-1.07603">
        <ele>29.1</ele>
        <time>2020-06-16T10:05:41Z</time>
      </trkpt>
      <trkpt lat="49.34559" lon="-1.07604">
        <ele>29</ele>
        <time>2020-06-16T10:05:42Z</time>
      </trkpt>
      <trkpt lat="49.34565" lon="-1.07606">
        <ele>28.9</ele>
        <time>2020-06-16T10:05:43Z</time>
      </trkpt>
      <trkpt lat="49.34572" lon="-1.07609">
        <ele>28.8</ele>
        <time>2020-06-16T10:05:44Z</time>
      </trkpt>
      <trkpt lat="49.3458" lon="-1.07611">
        <ele>28.7</ele>
        <time>2020-06-16T10:05:45Z</time>
      </trkpt>
      <trkpt lat="49.34587" lon="-1.07613">
        <ele>28.6</ele>
        <time>2020-06-16T10:05:46Z</time>
      </trkpt>
      <trkpt lat="49.34595" lon="-1.07615">
        <ele>28.5</ele>
        <time>2020-06-16T10:05:47Z</time>
      </trkpt>
      <trkpt lat="49.34604" lon="-1.07618">
        <ele>28.3</ele>
        <time>2020-06-16T10:05:48Z</time>
      </trkpt>
      <trkpt lat="49.34612" lon="-1.0762">
        <ele>28.2</ele>
        <time>2020-06-16T10:05:49Z</time>
      </trkpt>
      <trkpt lat="49.3462" lon="-1.07622">
        <ele>28.1</ele>
        <time>2020-06-16T10:05:50Z</time>
      </trkpt>
      <trkpt lat="49.34629" lon="-1.07625">
        <ele>28</ele>
        <time>2020-06-16T10:05:51Z</time>
      </trkpt>
      <trkpt lat="49.34638" lon="-1.07627">
        <ele>27.9</ele>
        <time>2020-06-16T10:05:52Z</time>
      </trkpt>
      <trkpt lat="49.34646" lon="-1.07628">
        <ele>27.8</ele>
        <time>2020-06-16T10:05:53Z</time>
      </trkpt>
      <trkpt lat="49.34654" lon="-1.0763">
        <ele>27.8</ele>
        <time>2020-06-16T10:05:54Z</time>
      </trkpt>
      <trkpt lat="49.34662" lon="-1.07632">
        <ele>27.7</ele>
        <time>2020-06-16T10:05:55Z</time>
      </trkpt>
      <trkpt lat="49.3467" lon="-1.07634">
        <ele>27.7</ele>
        <time>2020-06-16T10:05:56Z</time>
      </trkpt>
      <trkpt lat="49.34678" lon="-1.07636">
        <ele>27.6</ele>
        <time>2020-06-16T10:05:57Z</time>
      </trkpt>
      <trkpt lat="49.34686" lon="-1.07637">
        <ele>27.5</ele>
        <time>2020-06-16T10:05:58Z</time>
      </trkpt>
      <trkpt lat="49.34694" lon="-1.07639">
        <ele>27.4</ele>
        <time>2020-06-16T10:05:59Z</time>
      </trkpt>
      <trkpt lat="49.34702" lon="-1.0764">
        <ele>27.4</ele>
        <time>2020-06-16T10:06:00Z</time>
      </trkpt>
      <trkpt lat="49.3471" lon="-1.07641">
        <ele>27.5</ele>
        <time>2020-06-16T10:06:01Z</time>
      </trkpt>
      <trkpt lat="49.34718" lon="-1.07642">
        <ele>27.5</ele>
        <time>2020-06-16T10:06:02Z</time>
      </trkpt>
      <trkpt lat="49.34726" lon="-1.07643">
        <ele>27.4</ele>
        <time>2020-06-16T10:06:03Z</time>
      </trkpt>
      <trkpt lat="49.34734" lon="-1.07645">
        <ele>27.4</ele>
        <time>2020-06-16T10:06:04Z</time>
      </trkpt>
      <trkpt lat="49.34742" lon="-1.07646">
        <ele>27.3</ele>
        <time>2020-06-16T10:06:05Z</time>
      </trkpt>
      <trkpt lat="49.34749" lon="-1.07647">
        <ele>27.2</ele>
        <time>2020-06-16T10:06:06Z</time>
      </trkpt>
      <trkpt lat="49.34757" lon="-1.07648">
        <ele>27.2</ele>
        <time>2020-06-16T10:06:07Z</time>
      </trkpt>
      <trkpt lat="49.34765" lon="-1.07648">
        <ele>27.1</ele>
        <time>2020-06-16T10:06:08Z</time>
      </trkpt>
      <trkpt lat="49.34773" lon="-1.07647">
        <ele>27.1</ele>
        <time>2020-06-16T10:06:09Z</time>
      </trkpt>
      <trkpt lat="49.34782" lon="-1.07648">
        <ele>27</ele>
        <time>2020-06-16T10:06:10Z</time>
      </trkpt>
      <trkpt lat="49.3479" lon="-1.07648">
        <ele>26.9</ele>
        <time>2020-06-16T10:06:11Z</time>
      </trkpt>
      <trkpt lat="49.34798" lon="-1.07648">
        <ele>26.9</ele>
        <time>2020-06-16T10:06:12Z</time>
      </trkpt>
      <trkpt lat="49.34806" lon="-1.07646">
        <ele>26.9</ele>
        <time>2020-06-16T10:06:13Z</time>
      </trkpt>
      <trkpt lat="49.34814" lon="-1.07645">
        <ele>26.8</ele>
        <time>2020-06-16T10:06:14Z</time>
      </trkpt>
      <trkpt lat="49.34821" lon="-1.07643">
        <ele>26.8</ele>
        <time>2020-06-16T10:06:15Z</time>
      </trkpt>
      <trkpt lat="49.34829" lon="-1.07641">
        <ele>26.7</ele>
        <time>2020-06-16T10:06:16Z</time>
      </trkpt>
      <trkpt lat="49.34837" lon="-1.07639">
        <ele>26.6</ele>
        <time>2020-06-16T10:06:17Z</time>
      </trkpt>
      <trkpt lat="49.34845" lon="-1.07637">
        <ele>26.6</ele>
        <time>2020-06-16T10:06:18Z</time>
      </trkpt>
      <trkpt lat="49.34852" lon="-1.07634">
        <ele>26.5</ele>
        <time>2020-06-16T10:06:19Z</time>
      </trkpt>
      <trkpt lat="49.3486" lon="-1.07632">
        <ele>26.5</ele>
        <time>2020-06-16T10:06:20Z</time>
      </trkpt>
      <trkpt lat="49.34868" lon="-1.07629">
        <ele>26.4</ele>
        <time>2020-06-16T10:06:21Z</time>
      </trkpt>
      <trkpt lat="49.34876" lon="-1.07626">
        <ele>26.4</ele>
        <time>2020-06-16T10:06:22Z</time>
      </trkpt>
      <trkpt lat="49.34883" lon="-1.07625">
        <ele>26.3</ele>
        <time>2020-06-16T10:06:23Z</time>
      </trkpt>
      <trkpt lat="49.34891" lon="-1.07622">
        <ele>26.1</ele>
        <time>2020-06-16T10:06:24Z</time>
      </trkpt>
      <trkpt lat="49.34899" lon="-1.0762">
        <ele>26</ele>
        <time>2020-06-16T10:06:25Z</time>
      </trkpt>
      <trkpt lat="49.34907" lon="-1.07617">
        <ele>25.9</ele>
        <time>2020-06-16T10:06:26Z</time>
      </trkpt>
      <trkpt lat="49.34915" lon="-1.07614">
        <ele>25.8</ele>
        <time>2020-06-16T10:06:27Z</time>
      </trkpt>
      <trkpt lat="49.34923" lon="-1.07611">
        <ele>25.8</ele>
        <time>2020-06-16T10:06:28Z</time>
      </trkpt>
      <trkpt lat="49.34931" lon="-1.07608">
        <ele>25.7</ele>
        <time>2020-06-16T10:06:29Z</time>
      </trkpt>
      <trkpt lat="49.34939" lon="-1.07605">
        <ele>25.5</ele>
        <time>2020-06-16T10:06:30Z</time>
      </trkpt>
      <trkpt lat="49.34947" lon="-1.07602">
        <ele>25.4</ele>
        <time>2020-06-16T10:06:31Z</time>
      </trkpt>
      <trkpt lat="49.34955" lon="-1.07599">
        <ele>25.3</ele>
        <time>2020-06-16T10:06:32Z</time>
      </trkpt>
      <trkpt lat="49.34964" lon="-1.07596">
        <ele>25.2</ele>
        <time>2020-06-16T10:06:33Z</time>
      </trkpt>
      <trkpt lat="49.34972" lon="-1.07593">
        <ele>25</ele>
        <time>2020-06-16T10:06:34Z</time>
      </trkpt>
      <trkpt lat="49.34981" lon="-1.07591">
        <ele>24.9</ele>
        <time>2020-06-16T10:06:35Z</time>
      </trkpt>
      <trkpt lat="49.34989" lon="-1.07588">
        <ele>24.8</ele>
        <time>2020-06-16T10:06:36Z</time>
      </trkpt>
      <trkpt lat="49.34998" lon="-1.07585">
        <ele>24.6</ele>
        <time>2020-06-16T10:06:37Z</time>
      </trkpt>
      <trkpt lat="49.35007" lon="-1.07582">
        <ele>24.5</ele>
        <time>2020-06-16T10:06:38Z</time>
      </trkpt>
      <trkpt lat="49.35016" lon="-1.07578">
        <ele>24.4</ele>
        <time>2020-06-16T10:06:39Z</time>
      </trkpt>
      <trkpt lat="49.35025" lon="-1.07574">
        <ele>24.2</ele>
        <time>2020-06-16T10:06:40Z</time>
      </trkpt>
      <trkpt lat="49.35034" lon="-1.07571">
        <ele>24.1</ele>
        <time>2020-06-16T10:06:41Z</time>
      </trkpt>
      <trkpt lat="49.35042" lon="-1.07568">
        <ele>24</ele>
        <time>2020-06-16T10:06:42Z</time>
      </trkpt>
      <trkpt lat="49.35051" lon="-1.07565">
        <ele>23.8</ele>
        <time>2020-06-16T10:06:43Z</time>
      </trkpt>
      <trkpt lat="49.35059" lon="-1.07562">
        <ele>23.7</ele>
        <time>2020-06-16T10:06:44Z</time>
      </trkpt>
      <trkpt lat="49.35068" lon="-1.07561">
        <ele>23.6</ele>
        <time>2020-06-16T10:06:45Z</time>
      </trkpt>
      <trkpt lat="49.35076" lon="-1.07557">
        <ele>23.5</ele>
        <time>2020-06-16T10:06:46Z</time>
      </trkpt>
      <trkpt lat="49.35084" lon="-1.07553">
        <ele>23.4</ele>
        <time>2020-06-16T10:06:47Z</time>
      </trkpt>
      <trkpt lat="49.35093" lon="-1.07549">
        <ele>23.3</ele>
        <time>2020-06-16T10:06:48Z</time>
      </trkpt>
      <trkpt lat="49.35102" lon="-1.07546">
        <ele>23.3</ele>
        <time>2020-06-16T10:06:49Z</time>
      </trkpt>
      <trkpt lat="49.3511" lon="-1.07542">
        <ele>23.2</ele>
        <time>2020-06-16T10:06:50Z</time>
      </trkpt>
      <trkpt lat="49.35119" lon="-1.0754">
        <ele>23.1</ele>
        <time>2020-06-16T10:06:51Z</time>
      </trkpt>
      <trkpt lat="49.35127" lon="-1.07538">
        <ele>23</ele>
        <time>2020-06-16T10:06:52Z</time>
      </trkpt>
      <trkpt lat="49.35135" lon="-1.07537">
        <ele>23</ele>
        <time>2020-06-16T10:06:53Z</time>
      </trkpt>
      <trkpt lat="49.35144" lon="-1.07533">
        <ele>22.9</ele>
        <time>2020-06-16T10:06:54Z</time>
      </trkpt>
      <trkpt lat="49.35152" lon="-1.07531">
        <ele>22.8</ele>
        <time>2020-06-16T10:06:55Z</time>
      </trkpt>
      <trkpt lat="49.3516" lon="-1.0753">
        <ele>22.7</ele>
        <time>2020-06-16T10:06:56Z</time>
      </trkpt>
      <trkpt lat="49.35169" lon="-1.07529">
        <ele>22.6</ele>
        <time>2020-06-16T10:06:57Z</time>
      </trkpt>
      <trkpt lat="49.35177" lon="-1.07528">
        <ele>22.5</ele>
        <time>2020-06-16T10:06:58Z</time>
      </trkpt>
      <trkpt lat="49.35186" lon="-1.07528">
        <ele>22.5</ele>
        <time>2020-06-16T10:06:59Z</time>
      </trkpt>
      <trkpt lat="49.35194" lon="-1.07527">
        <ele>22.4</ele>
        <time>2020-06-16T10:07:00Z</time>
      </trkpt>
      <trkpt lat="49.35203" lon="-1.07527">
        <ele>22.2</ele>
        <time>2020-06-16T10:07:01Z</time>
      </trkpt>
      <trkpt lat="49.35211" lon="-1.07526">
        <ele>22</ele>
        <time>2020-06-16T10:07:02Z</time>
      </trkpt>
      <trkpt lat="49.3522" lon="-1.07526">
        <ele>21.7</ele>
        <time>2020-06-16T10:07:03Z</time>
      </trkpt>
      <trkpt lat="49.35228" lon="-1.07526">
        <ele>21.5</ele>
        <time>2020-06-16T10:07:04Z</time>
      </trkpt>
      <trkpt lat="49.35236" lon="-1.07525">
        <ele>21.2</ele>
        <time>2020-06-16T10:07:05Z</time>
      </trkpt>
      <trkpt lat="49.35245" lon="-1.07524">
        <ele>21</ele>
        <time>2020-06-16T10:07:06Z</time>
      </trkpt>
      <trkpt lat="49.35252" lon="-1.07523">
        <ele>20.8</ele>
        <time>2020-06-16T10:07:07Z</time>
      </trkpt>
      <trkpt lat="49.3526" lon="-1.07523">
        <ele>20.7</ele>
        <time>2020-06-16T10:07:08Z</time>
      </trkpt>
      <trkpt lat="49.35269" lon="-1.07523">
        <ele>20.5</ele>
        <time>2020-06-16T10:07:09Z</time>
      </trkpt>
      <trkpt lat="49.35277" lon="-1.07523">
        <ele>20.4</ele>
        <time>2020-06-16T10:07:10Z</time>
      </trkpt>
      <trkpt lat="49.35286" lon="-1.07523">
        <ele>20.3</ele>
        <time>2020-06-16T10:07:11Z</time>
      </trkpt>
      <trkpt lat="49.35295" lon="-1.07523">
        <ele>20.2</ele>
        <time>2020-06-16T10:07:12Z</time>
      </trkpt>
      <trkpt lat="49.35303" lon="-1.07522">
        <ele>20.2</ele>
        <time>2020-06-16T10:07:13Z</time>
      </trkpt>
      <trkpt lat="49.35312" lon="-1.07521">
        <ele>20.2</ele>
        <time>2020-06-16T10:07:14Z</time>
      </trkpt>
      <trkpt lat="49.3532" lon="-1.07519">
        <ele>20.3</ele>
        <time>2020-06-16T10:07:15Z</time>
      </trkpt>
      <trkpt lat="49.35328" lon="-1.07517">
        <ele>20.3</ele>
        <time>2020-06-16T10:07:16Z</time>
      </trkpt>
      <trkpt lat="49.35336" lon="-1.07515">
        <ele>20.5</ele>
        <time>2020-06-16T10:07:17Z</time>
      </trkpt>
      <trkpt lat="49.35344" lon="-1.07514">
        <ele>20.6</ele>
        <time>2020-06-16T10:07:18Z</time>
      </trkpt>
      <trkpt lat="49.35352" lon="-1.07513">
        <ele>20.7</ele>
        <time>2020-06-16T10:07:19Z</time>
      </trkpt>
      <trkpt lat="49.3536" lon="-1.07511">
        <ele>20.8</ele>
        <time>2020-06-16T10:07:20Z</time>
      </trkpt>
      <trkpt lat="49.35367" lon="-1.0751">
        <ele>21</ele>
        <time>2020-06-16T10:07:21Z</time>
      </trkpt>
      <trkpt lat="49.35374" lon="-1.07508">
        <ele>21.1</ele>
        <time>2020-06-16T10:07:22Z</time>
      </trkpt>
      <trkpt lat="49.35381" lon="-1.07506">
        <ele>21.2</ele>
        <time>2020-06-16T10:07:23Z</time>
      </trkpt>
      <trkpt lat="49.35387" lon="-1.07503">
        <ele>21.5</ele>
        <time>2020-06-16T10:07:24Z</time>
      </trkpt>
      <trkpt lat="49.35394" lon="-1.07501">
        <ele>21.7</ele>
        <time>2020-06-16T10:07:25Z</time>
      </trkpt>
      <trkpt lat="49.354" lon="-1.07499">
        <ele>21.9</ele>
        <time>2020-06-16T10:07:26Z</time>
      </trkpt>
      <trkpt lat="49.35406" lon="-1.07496">
        <ele>22</ele>
        <time>2020-06-16T10:07:27Z</time>
      </trkpt>
      <trkpt lat="49.35413" lon="-1.07493">
        <ele>22.2</ele>
        <time>2020-06-16T10:07:28Z</time>
      </trkpt>
      <trkpt lat="49.35419" lon="-1.07491">
        <ele>22.4</ele>
        <time>2020-06-16T10:07:29Z</time>
      </trkpt>
      <trkpt lat="49.35425" lon="-1.07488">
        <ele>22.5</ele>
        <time>2020-06-16T10:07:30Z</time>
      </trkpt>
      <trkpt lat="49.35431" lon="-1.07485">
        <ele>22.7</ele>
        <time>2020-06-16T10:07:31Z</time>
      </trkpt>
      <trkpt lat="49.35438" lon="-1.07482">
        <ele>22.9</ele>
        <time>2020-06-16T10:07:32Z</time>
      </trkpt>
      <trkpt lat="49.35444" lon="-1.07479">
        <ele>23</ele>
        <time>2020-06-16T10:07:33Z</time>
      </trkpt>
      <trkpt lat="49.35451" lon="-1.07475">
        <ele>23.1</ele>
        <time>2020-06-16T10:07:34Z</time>
      </trkpt>
      <trkpt lat="49.35458" lon="-1.07472">
        <ele>23.2</ele>
        <time>2020-06-16T10:07:35Z</time>
      </trkpt>
      <trkpt lat="49.35464" lon="-1.0747">
        <ele>23.3</ele>
        <time>2020-06-16T10:07:36Z</time>
      </trkpt>
      <trkpt lat="49.35469" lon="-1.07468">
        <ele>23.4</ele>
        <time>2020-06-16T10:07:37Z</time>
      </trkpt>
      <trkpt lat="49.35475" lon="-1.07464">
        <ele>23.5</ele>
        <time>2020-06-16T10:07:38Z</time>
      </trkpt>
      <trkpt lat="49.35481" lon="-1.07461">
        <ele>23.5</ele>
        <time>2020-06-16T10:07:39Z</time>
      </trkpt>
      <trkpt lat="49.35487" lon="-1.07457">
        <ele>23.6</ele>
        <time>2020-06-16T10:07:40Z</time>
      </trkpt>
      <trkpt lat="49.35492" lon="-1.07453">
        <ele>23.6</ele>
        <time>2020-06-16T10:07:41Z</time>
      </trkpt>
      <trkpt lat="49.35498" lon="-1.07449">
        <ele>23.6</ele>
        <time>2020-06-16T10:07:42Z</time>
      </trkpt>
      <trkpt lat="49.35504" lon="-1.07446">
        <ele>23.6</ele>
        <time>2020-06-16T10:07:43Z</time>
      </trkpt>
      <trkpt lat="49.35509" lon="-1.07442">
        <ele>23.6</ele>
        <time>2020-06-16T10:07:44Z</time>
      </trkpt>
      <trkpt lat="49.35514" lon="-1.0744">
        <ele>23.6</ele>
        <time>2020-06-16T10:07:45Z</time>
      </trkpt>
      <trkpt lat="49.3552" lon="-1.07438">
        <ele>23.6</ele>
        <time>2020-06-16T10:07:46Z</time>
      </trkpt>
      <trkpt lat="49.35526" lon="-1.07435">
        <ele>23.6</ele>
        <time>2020-06-16T10:07:47Z</time>
      </trkpt>
      <trkpt lat="49.35533" lon="-1.07432">
        <ele>23.7</ele>
        <time>2020-06-16T10:07:48Z</time>
      </trkpt>
      <trkpt lat="49.3554" lon="-1.0743">
        <ele>23.8</ele>
        <time>2020-06-16T10:07:49Z</time>
      </trkpt>
      <trkpt lat="49.35547" lon="-1.07427">
        <ele>23.9</ele>
        <time>2020-06-16T10:07:50Z</time>
      </trkpt>
      <trkpt lat="49.35554" lon="-1.07424">
        <ele>23.8</ele>
        <time>2020-06-16T10:07:51Z</time>
      </trkpt>
      <trkpt lat="49.3556" lon="-1.07421">
        <ele>23.8</ele>
        <time>2020-06-16T10:07:52Z</time>
      </trkpt>
      <trkpt lat="49.35567" lon="-1.07419">
        <ele>23.7</ele>
        <time>2020-06-16T10:07:53Z</time>
      </trkpt>
      <trkpt lat="49.35574" lon="-1.07415">
        <ele>23.6</ele>
        <time>2020-06-16T10:07:54Z</time>
      </trkpt>
      <trkpt lat="49.3558" lon="-1.07413">
        <ele>23.6</ele>
        <time>2020-06-16T10:07:55Z</time>
      </trkpt>
      <trkpt lat="49.35587" lon="-1.0741">
        <ele>23.5</ele>
        <time>2020-06-16T10:07:56Z</time>
      </trkpt>
      <trkpt lat="49.35594" lon="-1.07406">
        <ele>23.5</ele>
        <time>2020-06-16T10:07:57Z</time>
      </trkpt>
      <trkpt lat="49.356" lon="-1.07403">
        <ele>23.5</ele>
        <time>2020-06-16T10:07:58Z</time>
      </trkpt>
      <trkpt lat="49.35607" lon="-1.074">
        <ele>23.5</ele>
        <time>2020-06-16T10:07:59Z</time>
      </trkpt>
      <trkpt lat="49.35613" lon="-1.07396">
        <ele>23.5</ele>
        <time>2020-06-16T10:08:00Z</time>
      </trkpt>
      <trkpt lat="49.3562" lon="-1.07392">
        <ele>23.5</ele>
        <time>2020-06-16T10:08:01Z</time>
      </trkpt>
      <trkpt lat="49.35626" lon="-1.07388">
        <ele>23.5</ele>
        <time>2020-06-16T10:08:02Z</time>
      </trkpt>
      <trkpt lat="49.35633" lon="-1.07385">
        <ele>23.5</ele>
        <time>2020-06-16T10:08:03Z</time>
      </trkpt>
      <trkpt lat="49.35639" lon="-1.07382">
        <ele>23.5</ele>
        <time>2020-06-16T10:08:04Z</time>
      </trkpt>
      <trkpt lat="49.35645" lon="-1.0738">
        <ele>23.4</ele>
        <time>2020-06-16T10:08:05Z</time>
      </trkpt>
      <trkpt lat="49.35651" lon="-1.07377">
        <ele>23.4</ele>
        <time>2020-06-16T10:08:06Z</time>
      </trkpt>
      <trkpt lat="49.35657" lon="-1.07375">
        <ele>23.4</ele>
        <time>2020-06-16T10:08:07Z</time>
      </trkpt>
      <trkpt lat="49.35664" lon="-1.07373">
        <ele>23.4</ele>
        <time>2020-06-16T10:08:08Z</time>
      </trkpt>
      <trkpt lat="49.3567" lon="-1.0737">
        <ele>23.4</ele>
        <time>2020-06-16T10:08:09Z</time>
      </trkpt>
      <trkpt lat="49.35677" lon="-1.07367">
        <ele>23.4</ele>
        <time>2020-06-16T10:08:10Z</time>
      </trkpt>
      <trkpt lat="49.35684" lon="-1.07363">
        <ele>23.4</ele>
        <time>2020-06-16T10:08:11Z</time>
      </trkpt>
      <trkpt lat="49.35691" lon="-1.0736">
        <ele>23.5</ele>
        <time>2020-06-16T10:08:12Z</time>
      </trkpt>
      <trkpt lat="49.35698" lon="-1.07357">
        <ele>23.6</ele>
        <time>2020-06-16T10:08:13Z</time>
      </trkpt>
      <trkpt lat="49.35704" lon="-1.07354">
        <ele>23.8</ele>
        <time>2020-06-16T10:08:14Z</time>
      </trkpt>
      <trkpt lat="49.35709" lon="-1.07351">
        <ele>23.9</ele>
        <time>2020-06-16T10:08:15Z</time>
      </trkpt>
      <trkpt lat="49.35717" lon="-1.07347">
        <ele>23.7</ele>
        <time>2020-06-16T10:08:16Z</time>
      </trkpt>
      <trkpt lat="49.35723" lon="-1.07342">
        <ele>23.6</ele>
        <time>2020-06-16T10:08:17Z</time>
      </trkpt>
      <trkpt lat="49.35729" lon="-1.07338">
        <ele>23.5</ele>
        <time>2020-06-16T10:08:18Z</time>
      </trkpt>
      <trkpt lat="49.35735" lon="-1.07334">
        <ele>23.5</ele>
        <time>2020-06-16T10:08:19Z</time>
      </trkpt>
      <trkpt lat="49.35741" lon="-1.0733">
        <ele>23.4</ele>
        <time>2020-06-16T10:08:20Z</time>
      </trkpt>
      <trkpt lat="49.35748" lon="-1.07326">
        <ele>23.4</ele>
        <time>2020-06-16T10:08:21Z</time>
      </trkpt>
      <trkpt lat="49.35755" lon="-1.07322">
        <ele>23.3</ele>
        <time>2020-06-16T10:08:22Z</time>
      </trkpt>
      <trkpt lat="49.35762" lon="-1.07317">
        <ele>23.3</ele>
        <time>2020-06-16T10:08:23Z</time>
      </trkpt>
      <trkpt lat="49.35769" lon="-1.07312">
        <ele>23.3</ele>
        <time>2020-06-16T10:08:24Z</time>
      </trkpt>
      <trkpt lat="49.35775" lon="-1.07308">
        <ele>23.2</ele>
        <time>2020-06-16T10:08:25Z</time>
      </trkpt>
      <trkpt lat="49.35782" lon="-1.07303">
        <ele>23.2</ele>
        <time>2020-06-16T10:08:26Z</time>
      </trkpt>
      <trkpt lat="49.35789" lon="-1.07298">
        <ele>23.2</ele>
        <time>2020-06-16T10:08:27Z</time>
      </trkpt>
      <trkpt lat="49.35796" lon="-1.07293">
        <ele>23.2</ele>
        <time>2020-06-16T10:08:28Z</time>
      </trkpt>
      <trkpt lat="49.35802" lon="-1.07288">
        <ele>23.2</ele>
        <time>2020-06-16T10:08:29Z</time>
      </trkpt>
      <trkpt lat="49.35808" lon="-1.07282">
        <ele>23.2</ele>
        <time>2020-06-16T10:08:30Z</time>
      </trkpt>
      <trkpt lat="49.35815" lon="-1.07277">
        <ele>23.2</ele>
        <time>2020-06-16T10:08:31Z</time>
      </trkpt>
      <trkpt lat="49.35821" lon="-1.07273">
        <ele>23.2</ele>
        <time>2020-06-16T10:08:32Z</time>
      </trkpt>
      <trkpt lat="49.35828" lon="-1.07268">
        <ele>23.2</ele>
        <time>2020-06-16T10:08:33Z</time>
      </trkpt>
      <trkpt lat="49.35834" lon="-1.07264">
        <ele>23.2</ele>
        <time>2020-06-16T10:08:34Z</time>
      </trkpt>
      <trkpt lat="49.3584" lon="-1.07258">
        <ele>23.2</ele>
        <time>2020-06-16T10:08:35Z</time>
      </trkpt>
      <trkpt lat="49.35846" lon="-1.07251">
        <ele>23.2</ele>
        <time>2020-06-16T10:08:36Z</time>
      </trkpt>
      <trkpt lat="49.35852" lon="-1.07245">
        <ele>23.2</ele>
        <time>2020-06-16T10:08:37Z</time>
      </trkpt>
      <trkpt lat="49.35859" lon="-1.0724">
        <ele>23.3</ele>
        <time>2020-06-16T10:08:38Z</time>
      </trkpt>
      <trkpt lat="49.35865" lon="-1.07234">
        <ele>23.3</ele>
        <time>2020-06-16T10:08:39Z</time>
      </trkpt>
      <trkpt lat="49.35871" lon="-1.07229">
        <ele>23.4</ele>
        <time>2020-06-16T10:08:40Z</time>
      </trkpt>
      <trkpt lat="49.35876" lon="-1.07224">
        <ele>23.5</ele>
        <time>2020-06-16T10:08:41Z</time>
      </trkpt>
      <trkpt lat="49.35882" lon="-1.07218">
        <ele>23.6</ele>
        <time>2020-06-16T10:08:42Z</time>
      </trkpt>
      <trkpt lat="49.35888" lon="-1.07212">
        <ele>23.8</ele>
        <time>2020-06-16T10:08:43Z</time>
      </trkpt>
      <trkpt lat="49.35894" lon="-1.07207">
        <ele>23.9</ele>
        <time>2020-06-16T10:08:44Z</time>
      </trkpt>
      <trkpt lat="49.359" lon="-1.072">
        <ele>24.2</ele>
        <time>2020-06-16T10:08:45Z</time>
      </trkpt>
      <trkpt lat="49.35906" lon="-1.07194">
        <ele>24.2</ele>
        <time>2020-06-16T10:08:46Z</time>
      </trkpt>
      <trkpt lat="49.35911" lon="-1.07188">
        <ele>24.3</ele>
        <time>2020-06-16T10:08:47Z</time>
      </trkpt>
      <trkpt lat="49.35916" lon="-1.07181">
        <ele>24.3</ele>
        <time>2020-06-16T10:08:48Z</time>
      </trkpt>
      <trkpt lat="49.35922" lon="-1.07176">
        <ele>24.3</ele>
        <time>2020-06-16T10:08:49Z</time>
      </trkpt>
      <trkpt lat="49.35927" lon="-1.07169">
        <ele>24.4</ele>
        <time>2020-06-16T10:08:50Z</time>
      </trkpt>
      <trkpt lat="49.35931" lon="-1.07163">
        <ele>24.4</ele>
        <time>2020-06-16T10:08:51Z</time>
      </trkpt>
      <trkpt lat="49.35936" lon="-1.07157">
        <ele>24.5</ele>
        <time>2020-06-16T10:08:52Z</time>
      </trkpt>
      <trkpt lat="49.35941" lon="-1.0715">
        <ele>24.5</ele>
        <time>2020-06-16T10:08:53Z</time>
      </trkpt>
      <trkpt lat="49.35946" lon="-1.07144">
        <ele>24.6</ele>
        <time>2020-06-16T10:08:54Z</time>
      </trkpt>
      <trkpt lat="49.35952" lon="-1.07137">
        <ele>24.6</ele>
        <time>2020-06-16T10:08:55Z</time>
      </trkpt>
      <trkpt lat="49.35957" lon="-1.07128">
        <ele>24.6</ele>
        <time>2020-06-16T10:08:56Z</time>
      </trkpt>
      <trkpt lat="49.35963" lon="-1.07121">
        <ele>24.6</ele>
        <time>2020-06-16T10:08:57Z</time>
      </trkpt>
      <trkpt lat="49.35968" lon="-1.07114">
        <ele>24.7</ele>
        <time>2020-06-16T10:08:58Z</time>
      </trkpt>
      <trkpt lat="49.35973" lon="-1.07106">
        <ele>24.7</ele>
        <time>2020-06-16T10:08:59Z</time>
      </trkpt>
      <trkpt lat="49.35978" lon="-1.07099">
        <ele>24.7</ele>
        <time>2020-06-16T10:09:00Z</time>
      </trkpt>
      <trkpt lat="49.35983" lon="-1.07092">
        <ele>24.7</ele>
        <time>2020-06-16T10:09:01Z</time>
      </trkpt>
      <trkpt lat="49.35988" lon="-1.07085">
        <ele>24.8</ele>
        <time>2020-06-16T10:09:02Z</time>
      </trkpt>
      <trkpt lat="49.35993" lon="-1.07079">
        <ele>24.8</ele>
        <time>2020-06-16T10:09:03Z</time>
      </trkpt>
      <trkpt lat="49.35996" lon="-1.07074">
        <ele>24.9</ele>
        <time>2020-06-16T10:09:04Z</time>
      </trkpt>
      <trkpt lat="49.35999" lon="-1.0707">
        <ele>24.9</ele>
        <time>2020-06-16T10:09:05Z</time>
      </trkpt>
      <trkpt lat="49.36002" lon="-1.07066">
        <ele>25</ele>
        <time>2020-06-16T10:09:06Z</time>
      </trkpt>
      <trkpt lat="49.36006" lon="-1.07062">
        <ele>25</ele>
        <time>2020-06-16T10:09:07Z</time>
      </trkpt>
      <trkpt lat="49.3601" lon="-1.07059">
        <ele>25.1</ele>
        <time>2020-06-16T10:09:08Z</time>
      </trkpt>
      <trkpt lat="49.36014" lon="-1.07054">
        <ele>25.1</ele>
        <time>2020-06-16T10:09:09Z</time>
      </trkpt>
      <trkpt lat="49.36017" lon="-1.07049">
        <ele>25.1</ele>
        <time>2020-06-16T10:09:10Z</time>
      </trkpt>
      <trkpt lat="49.36021" lon="-1.07044">
        <ele>25.1</ele>
        <time>2020-06-16T10:09:11Z</time>
      </trkpt>
      <trkpt lat="49.36024" lon="-1.0704">
        <ele>25.1</ele>
        <time>2020-06-16T10:09:12Z</time>
      </trkpt>
      <trkpt lat="49.36028" lon="-1.07035">
        <ele>25.1</ele>
        <time>2020-06-16T10:09:13Z</time>
      </trkpt>
      <trkpt lat="49.36032" lon="-1.0703">
        <ele>25.2</ele>
        <time>2020-06-16T10:09:14Z</time>
      </trkpt>
      <trkpt lat="49.36037" lon="-1.07024">
        <ele>25.2</ele>
        <time>2020-06-16T10:09:15Z</time>
      </trkpt>
      <trkpt lat="49.36041" lon="-1.07018">
        <ele>25.2</ele>
        <time>2020-06-16T10:09:16Z</time>
      </trkpt>
      <trkpt lat="49.36043" lon="-1.07012">
        <ele>25.2</ele>
        <time>2020-06-16T10:09:17Z</time>
      </trkpt>
      <trkpt lat="49.36047" lon="-1.07006">
        <ele>25.3</ele>
        <time>2020-06-16T10:09:18Z</time>
      </trkpt>
      <trkpt lat="49.3605" lon="-1.07">
        <ele>25.3</ele>
        <time>2020-06-16T10:09:19Z</time>
      </trkpt>
      <trkpt lat="49.36054" lon="-1.06994">
        <ele>25.3</ele>
        <time>2020-06-16T10:09:20Z</time>
      </trkpt>
      <trkpt lat="49.36058" lon="-1.06988">
        <ele>25.4</ele>
        <time>2020-06-16T10:09:21Z</time>
      </trkpt>
      <trkpt lat="49.36062" lon="-1.06983">
        <ele>25.4</ele>
        <time>2020-06-16T10:09:22Z</time>
      </trkpt>
      <trkpt lat="49.36066" lon="-1.06978">
        <ele>25.4</ele>
        <time>2020-06-16T10:09:23Z</time>
      </trkpt>
      <trkpt lat="49.36069" lon="-1.06975">
        <ele>25.4</ele>
        <time>2020-06-16T10:09:24Z</time>
      </trkpt>
      <trkpt lat="49.36072" lon="-1.06971">
        <ele>25.4</ele>
        <time>2020-06-16T10:09:25Z</time>
      </trkpt>
      <trkpt lat="49.36076" lon="-1.06966">
        <ele>25.5</ele>
        <time>2020-06-16T10:09:26Z</time>
      </trkpt>
      <trkpt lat="49.3608" lon="-1.06961">
        <ele>25.5</ele>
        <time>2020-06-16T10:09:27Z</time>
      </trkpt>
      <trkpt lat="49.36083" lon="-1.06958">
        <ele>25.5</ele>
        <time>2020-06-16T10:09:28Z</time>
      </trkpt>
      <trkpt lat="49.36085" lon="-1.06954">
        <ele>25.5</ele>
        <time>2020-06-16T10:09:29Z</time>
      </trkpt>
      <trkpt lat="49.36088" lon="-1.06952">
        <ele>25.5</ele>
        <time>2020-06-16T10:09:30Z</time>
      </trkpt>
      <trkpt lat="49.36091" lon="-1.06948">
        <ele>25.6</ele>
        <time>2020-06-16T10:09:31Z</time>
      </trkpt>
      <trkpt lat="49.36094" lon="-1.06945">
        <ele>25.6</ele>
        <time>2020-06-16T10:09:32Z</time>
      </trkpt>
      <trkpt lat="49.36095" lon="-1.06942">
        <ele>25.6</ele>
        <time>2020-06-16T10:09:33Z</time>
      </trkpt>
      <trkpt lat="49.36096" lon="-1.0694">
        <ele>25.6</ele>
        <time>2020-06-16T10:09:34Z</time>
      </trkpt>
      <trkpt lat="49.36099" lon="-1.06938">
        <ele>25.6</ele>
        <time>2020-06-16T10:09:35Z</time>
      </trkpt>
      <trkpt lat="49.361" lon="-1.06938">
        <ele>25.6</ele>
        <time>2020-06-16T10:09:36Z</time>
      </trkpt>
      <trkpt lat="49.36104" lon="-1.06938">
        <ele>25.7</ele>
        <time>2020-06-16T10:09:37Z</time>
      </trkpt>
      <trkpt lat="49.36105" lon="-1.06939">
        <ele>25.7</ele>
        <time>2020-06-16T10:09:38Z</time>
      </trkpt>
      <trkpt lat="49.36107" lon="-1.06943">
        <ele>25.7</ele>
        <time>2020-06-16T10:09:39Z</time>
      </trkpt>
      <trkpt lat="49.36108" lon="-1.06945">
        <ele>25.7</ele>
        <time>2020-06-16T10:09:40Z</time>
      </trkpt>
      <trkpt lat="49.36108" lon="-1.06951">
        <ele>25.8</ele>
        <time>2020-06-16T10:09:41Z</time>
      </trkpt>
      <trkpt lat="49.36109" lon="-1.06957">
        <ele>25.8</ele>
        <time>2020-06-16T10:09:42Z</time>
      </trkpt>
      <trkpt lat="49.36109" lon="-1.06965">
        <ele>25.7</ele>
        <time>2020-06-16T10:09:43Z</time>
      </trkpt>
      <trkpt lat="49.3611" lon="-1.06971">
        <ele>25.7</ele>
        <time>2020-06-16T10:09:44Z</time>
      </trkpt>
      <trkpt lat="49.36111" lon="-1.06979">
        <ele>25.6</ele>
        <time>2020-06-16T10:09:45Z</time>
      </trkpt>
      <trkpt lat="49.36112" lon="-1.06986">
        <ele>25.5</ele>
        <time>2020-06-16T10:09:46Z</time>
      </trkpt>
      <trkpt lat="49.36113" lon="-1.06995">
        <ele>25.4</ele>
        <time>2020-06-16T10:09:47Z</time>
      </trkpt>
      <trkpt lat="49.36114" lon="-1.07003">
        <ele>25.3</ele>
        <time>2020-06-16T10:09:48Z</time>
      </trkpt>
      <trkpt lat="49.36113" lon="-1.07012">
        <ele>25.3</ele>
        <time>2020-06-16T10:09:49Z</time>
      </trkpt>
      <trkpt lat="49.36113" lon="-1.07021">
        <ele>25.2</ele>
        <time>2020-06-16T10:09:50Z</time>
      </trkpt>
      <trkpt lat="49.36114" lon="-1.0703">
        <ele>25.2</ele>
        <time>2020-06-16T10:09:51Z</time>
      </trkpt>
      <trkpt lat="49.36115" lon="-1.07039">
        <ele>25.1</ele>
        <time>2020-06-16T10:09:52Z</time>
      </trkpt>
      <trkpt lat="49.36116" lon="-1.07049">
        <ele>25.1</ele>
        <time>2020-06-16T10:09:53Z</time>
      </trkpt>
      <trkpt lat="49.36117" lon="-1.07059">
        <ele>25</ele>
        <time>2020-06-16T10:09:54Z</time>
      </trkpt>
      <trkpt lat="49.36118" lon="-1.07068">
        <ele>25</ele>
        <time>2020-06-16T10:09:55Z</time>
      </trkpt>
      <trkpt lat="49.3612" lon="-1.07078">
        <ele>24.9</ele>
        <time>2020-06-16T10:09:56Z</time>
      </trkpt>
      <trkpt lat="49.36122" lon="-1.07087">
        <ele>24.8</ele>
        <time>2020-06-16T10:09:57Z</time>
      </trkpt>
      <trkpt lat="49.36124" lon="-1.07097">
        <ele>24.7</ele>
        <time>2020-06-16T10:09:58Z</time>
      </trkpt>
      <trkpt lat="49.36126" lon="-1.07107">
        <ele>24.6</ele>
        <time>2020-06-16T10:09:59Z</time>
      </trkpt>
      <trkpt lat="49.36129" lon="-1.07116">
        <ele>24.5</ele>
        <time>2020-06-16T10:10:00Z</time>
      </trkpt>
      <trkpt lat="49.36131" lon="-1.07125">
        <ele>24.4</ele>
        <time>2020-06-16T10:10:01Z</time>
      </trkpt>
      <trkpt lat="49.36134" lon="-1.07134">
        <ele>24.3</ele>
        <time>2020-06-16T10:10:02Z</time>
      </trkpt>
      <trkpt lat="49.36137" lon="-1.07143">
        <ele>24.2</ele>
        <time>2020-06-16T10:10:03Z</time>
      </trkpt>
      <trkpt lat="49.3614" lon="-1.07153">
        <ele>24.1</ele>
        <time>2020-06-16T10:10:04Z</time>
      </trkpt>
      <trkpt lat="49.36143" lon="-1.07162">
        <ele>24</ele>
        <time>2020-06-16T10:10:05Z</time>
      </trkpt>
      <trkpt lat="49.36146" lon="-1.07171">
        <ele>24</ele>
        <time>2020-06-16T10:10:06Z</time>
      </trkpt>
      <trkpt lat="49.36149" lon="-1.0718">
        <ele>23.9</ele>
        <time>2020-06-16T10:10:07Z</time>
      </trkpt>
      <trkpt lat="49.36151" lon="-1.07189">
        <ele>23.9</ele>
        <time>2020-06-16T10:10:08Z</time>
      </trkpt>
      <trkpt lat="49.36154" lon="-1.07198">
        <ele>23.8</ele>
        <time>2020-06-16T10:10:09Z</time>
      </trkpt>
      <trkpt lat="49.36157" lon="-1.07206">
        <ele>23.6</ele>
        <time>2020-06-16T10:10:10Z</time>
      </trkpt>
      <trkpt lat="49.3616" lon="-1.07215">
        <ele>23.4</ele>
        <time>2020-06-16T10:10:11Z</time>
      </trkpt>
      <trkpt lat="49.36163" lon="-1.07224">
        <ele>23.2</ele>
        <time>2020-06-16T10:10:12Z</time>
      </trkpt>
      <trkpt lat="49.36166" lon="-1.07232">
        <ele>23</ele>
        <time>2020-06-16T10:10:13Z</time>
      </trkpt>
      <trkpt lat="49.36168" lon="-1.07241">
        <ele>22.7</ele>
        <time>2020-06-16T10:10:14Z</time>
      </trkpt>
      <trkpt lat="49.36171" lon="-1.0725">
        <ele>22.5</ele>
        <time>2020-06-16T10:10:15Z</time>
      </trkpt>
      <trkpt lat="49.36172" lon="-1.07259">
        <ele>22.2</ele>
        <time>2020-06-16T10:10:16Z</time>
      </trkpt>
      <trkpt lat="49.36175" lon="-1.07268">
        <ele>22</ele>
        <time>2020-06-16T10:10:17Z</time>
      </trkpt>
      <trkpt lat="49.36177" lon="-1.07277">
        <ele>21.9</ele>
        <time>2020-06-16T10:10:18Z</time>
      </trkpt>
      <trkpt lat="49.3618" lon="-1.07285">
        <ele>21.8</ele>
        <time>2020-06-16T10:10:19Z</time>
      </trkpt>
      <trkpt lat="49.36183" lon="-1.07294">
        <ele>21.8</ele>
        <time>2020-06-16T10:10:20Z</time>
      </trkpt>
      <trkpt lat="49.36186" lon="-1.07303">
        <ele>21.7</ele>
        <time>2020-06-16T10:10:21Z</time>
      </trkpt>
      <trkpt lat="49.36189" lon="-1.07311">
        <ele>21.6</ele>
        <time>2020-06-16T10:10:22Z</time>
      </trkpt>
      <trkpt lat="49.36192" lon="-1.07319">
        <ele>21.6</ele>
        <time>2020-06-16T10:10:23Z</time>
      </trkpt>
      <trkpt lat="49.36195" lon="-1.07328">
        <ele>21.5</ele>
        <time>2020-06-16T10:10:24Z</time>
      </trkpt>
      <trkpt lat="49.36198" lon="-1.07337">
        <ele>21.4</ele>
        <time>2020-06-16T10:10:25Z</time>
      </trkpt>
      <trkpt lat="49.362" lon="-1.07345">
        <ele>21.3</ele>
        <time>2020-06-16T10:10:26Z</time>
      </trkpt>
      <trkpt lat="49.36203" lon="-1.07354">
        <ele>21.2</ele>
        <time>2020-06-16T10:10:27Z</time>
      </trkpt>
      <trkpt lat="49.36205" lon="-1.07363">
        <ele>21.1</ele>
        <time>2020-06-16T10:10:28Z</time>
      </trkpt>
      <trkpt lat="49.36207" lon="-1.07372">
        <ele>21</ele>
        <time>2020-06-16T10:10:29Z</time>
      </trkpt>
      <trkpt lat="49.3621" lon="-1.0738">
        <ele>21</ele>
        <time>2020-06-16T10:10:30Z</time>
      </trkpt>
      <trkpt lat="49.36212" lon="-1.07389">
        <ele>20.9</ele>
        <time>2020-06-16T10:10:31Z</time>
      </trkpt>
      <trkpt lat="49.36214" lon="-1.07398">
        <ele>20.8</ele>
        <time>2020-06-16T10:10:32Z</time>
      </trkpt>
      <trkpt lat="49.36215" lon="-1.07408">
        <ele>20.8</ele>
        <time>2020-06-16T10:10:33Z</time>
      </trkpt>
      <trkpt lat="49.36216" lon="-1.07417">
        <ele>20.8</ele>
        <time>2020-06-16T10:10:34Z</time>
      </trkpt>
      <trkpt lat="49.36218" lon="-1.07426">
        <ele>20.7</ele>
        <time>2020-06-16T10:10:35Z</time>
      </trkpt>
      <trkpt lat="49.36219" lon="-1.07435">
        <ele>20.7</ele>
        <time>2020-06-16T10:10:36Z</time>
      </trkpt>
      <trkpt lat="49.3622" lon="-1.07441">
        <ele>20.7</ele>
        <time>2020-06-16T10:10:37Z</time>
      </trkpt>
      <trkpt lat="49.36221" lon="-1.07447">
        <ele>20.7</ele>
        <time>2020-06-16T10:10:38Z</time>
      </trkpt>
      <trkpt lat="49.36223" lon="-1.07452">
        <ele>20.7</ele>
        <time>2020-06-16T10:10:39Z</time>
      </trkpt>
      <trkpt lat="49.36227" lon="-1.07455">
        <ele>20.6</ele>
        <time>2020-06-16T10:10:40Z</time>
      </trkpt>
      <trkpt lat="49.36231" lon="-1.07457">
        <ele>20.6</ele>
        <time>2020-06-16T10:10:41Z</time>
      </trkpt>
      <trkpt lat="49.36236" lon="-1.07458">
        <ele>20.6</ele>
        <time>2020-06-16T10:10:42Z</time>
      </trkpt>
      <trkpt lat="49.3624" lon="-1.0746">
        <ele>20.5</ele>
        <time>2020-06-16T10:10:43Z</time>
      </trkpt>
      <trkpt lat="49.36245" lon="-1.07461">
        <ele>20.5</ele>
        <time>2020-06-16T10:10:44Z</time>
      </trkpt>
      <trkpt lat="49.3625" lon="-1.07461">
        <ele>20.4</ele>
        <time>2020-06-16T10:10:45Z</time>
      </trkpt>
      <trkpt lat="49.36256" lon="-1.07462">
        <ele>20.4</ele>
        <time>2020-06-16T10:10:46Z</time>
      </trkpt>
      <trkpt lat="49.36261" lon="-1.07461">
        <ele>20.4</ele>
        <time>2020-06-16T10:10:47Z</time>
      </trkpt>
      <trkpt lat="49.36267" lon="-1.07462">
        <ele>20.3</ele>
        <time>2020-06-16T10:10:48Z</time>
      </trkpt>
      <trkpt lat="49.36273" lon="-1.07461">
        <ele>20.3</ele>
        <time>2020-06-16T10:10:49Z</time>
      </trkpt>
      <trkpt lat="49.36279" lon="-1.07461">
        <ele>20.2</ele>
        <time>2020-06-16T10:10:50Z</time>
      </trkpt>
      <trkpt lat="49.36285" lon="-1.0746">
        <ele>20.2</ele>
        <time>2020-06-16T10:10:51Z</time>
      </trkpt>
      <trkpt lat="49.36291" lon="-1.07459">
        <ele>20.1</ele>
        <time>2020-06-16T10:10:52Z</time>
      </trkpt>
      <trkpt lat="49.36297" lon="-1.07458">
        <ele>20.1</ele>
        <time>2020-06-16T10:10:53Z</time>
      </trkpt>
      <trkpt lat="49.36303" lon="-1.07457">
        <ele>20</ele>
        <time>2020-06-16T10:10:54Z</time>
      </trkpt>
      <trkpt lat="49.36309" lon="-1.07455">
        <ele>20</ele>
        <time>2020-06-16T10:10:55Z</time>
      </trkpt>
      <trkpt lat="49.36316" lon="-1.07454">
        <ele>19.9</ele>
        <time>2020-06-16T10:10:56Z</time>
      </trkpt>
      <trkpt lat="49.36322" lon="-1.07452">
        <ele>19.9</ele>
        <time>2020-06-16T10:10:57Z</time>
      </trkpt>
      <trkpt lat="49.36328" lon="-1.07451">
        <ele>19.8</ele>
        <time>2020-06-16T10:10:58Z</time>
      </trkpt>
      <trkpt lat="49.36335" lon="-1.07448">
        <ele>19.8</ele>
        <time>2020-06-16T10:10:59Z</time>
      </trkpt>
      <trkpt lat="49.36342" lon="-1.07446">
        <ele>19.7</ele>
        <time>2020-06-16T10:11:00Z</time>
      </trkpt>
      <trkpt lat="49.36349" lon="-1.07443">
        <ele>19.7</ele>
        <time>2020-06-16T10:11:01Z</time>
      </trkpt>
      <trkpt lat="49.36356" lon="-1.07441">
        <ele>19.6</ele>
        <time>2020-06-16T10:11:02Z</time>
      </trkpt>
      <trkpt lat="49.36362" lon="-1.07438">
        <ele>19.6</ele>
        <time>2020-06-16T10:11:03Z</time>
      </trkpt>
      <trkpt lat="49.3637" lon="-1.07435">
        <ele>19.5</ele>
        <time>2020-06-16T10:11:04Z</time>
      </trkpt>
      <trkpt lat="49.36376" lon="-1.07435">
        <ele>19.5</ele>
        <time>2020-06-16T10:11:05Z</time>
      </trkpt>
      <trkpt lat="49.36382" lon="-1.07432">
        <ele>19.4</ele>
        <time>2020-06-16T10:11:06Z</time>
      </trkpt>
      <trkpt lat="49.36388" lon="-1.0743">
        <ele>19.4</ele>
        <time>2020-06-16T10:11:07Z</time>
      </trkpt>
      <trkpt lat="49.36394" lon="-1.07428">
        <ele>19.3</ele>
        <time>2020-06-16T10:11:08Z</time>
      </trkpt>
      <trkpt lat="49.364" lon="-1.07426">
        <ele>19.3</ele>
        <time>2020-06-16T10:11:09Z</time>
      </trkpt>
      <trkpt lat="49.36406" lon="-1.07424">
        <ele>19.2</ele>
        <time>2020-06-16T10:11:10Z</time>
      </trkpt>
      <trkpt lat="49.36412" lon="-1.0742">
        <ele>19.2</ele>
        <time>2020-06-16T10:11:11Z</time>
      </trkpt>
      <trkpt lat="49.36419" lon="-1.07417">
        <ele>19.1</ele>
        <time>2020-06-16T10:11:12Z</time>
      </trkpt>
      <trkpt lat="49.36427" lon="-1.07412">
        <ele>19.1</ele>
        <time>2020-06-16T10:11:13Z</time>
      </trkpt>
      <trkpt lat="49.36435" lon="-1.07408">
        <ele>19</ele>
        <time>2020-06-16T10:11:14Z</time>
      </trkpt>
      <trkpt lat="49.36442" lon="-1.07405">
        <ele>18.9</ele>
        <time>2020-06-16T10:11:15Z</time>
      </trkpt>
      <trkpt lat="49.36448" lon="-1.07402">
        <ele>18.9</ele>
        <time>2020-06-16T10:11:16Z</time>
      </trkpt>
      <trkpt lat="49.36454" lon="-1.074">
        <ele>18.8</ele>
        <time>2020-06-16T10:11:17Z</time>
      </trkpt>
      <trkpt lat="49.36461" lon="-1.07398">
        <ele>18.8</ele>
        <time>2020-06-16T10:11:18Z</time>
      </trkpt>
      <trkpt lat="49.36467" lon="-1.07395">
        <ele>18.7</ele>
        <time>2020-06-16T10:11:19Z</time>
      </trkpt>
      <trkpt lat="49.36474" lon="-1.07391">
        <ele>18.7</ele>
        <time>2020-06-16T10:11:20Z</time>
      </trkpt>
      <trkpt lat="49.36482" lon="-1.07388">
        <ele>18.6</ele>
        <time>2020-06-16T10:11:21Z</time>
      </trkpt>
      <trkpt lat="49.36488" lon="-1.07385">
        <ele>18.6</ele>
        <time>2020-06-16T10:11:22Z</time>
      </trkpt>
      <trkpt lat="49.36494" lon="-1.07382">
        <ele>18.5</ele>
        <time>2020-06-16T10:11:23Z</time>
      </trkpt>
      <trkpt lat="49.36501" lon="-1.0738">
        <ele>18.5</ele>
        <time>2020-06-16T10:11:24Z</time>
      </trkpt>
      <trkpt lat="49.36507" lon="-1.0738">
        <ele>18.4</ele>
        <time>2020-06-16T10:11:25Z</time>
      </trkpt>
      <trkpt lat="49.36514" lon="-1.07383">
        <ele>18.4</ele>
        <time>2020-06-16T10:11:26Z</time>
      </trkpt>
      <trkpt lat="49.36519" lon="-1.07388">
        <ele>18.3</ele>
        <time>2020-06-16T10:11:27Z</time>
      </trkpt>
      <trkpt lat="49.36524" lon="-1.07393">
        <ele>18.3</ele>
        <time>2020-06-16T10:11:28Z</time>
      </trkpt>
      <trkpt lat="49.3653" lon="-1.074">
        <ele>18.2</ele>
        <time>2020-06-16T10:11:29Z</time>
      </trkpt>
      <trkpt lat="49.36536" lon="-1.07407">
        <ele>18.2</ele>
        <time>2020-06-16T10:11:30Z</time>
      </trkpt>
      <trkpt lat="49.36541" lon="-1.07414">
        <ele>18.1</ele>
        <time>2020-06-16T10:11:31Z</time>
      </trkpt>
      <trkpt lat="49.36547" lon="-1.07421">
        <ele>18.1</ele>
        <time>2020-06-16T10:11:32Z</time>
      </trkpt>
      <trkpt lat="49.36552" lon="-1.07428">
        <ele>18</ele>
        <time>2020-06-16T10:11:33Z</time>
      </trkpt>
      <trkpt lat="49.36557" lon="-1.07434">
        <ele>18</ele>
        <time>2020-06-16T10:11:34Z</time>
      </trkpt>
      <trkpt lat="49.36562" lon="-1.0744">
        <ele>17.9</ele>
        <time>2020-06-16T10:11:35Z</time>
      </trkpt>
      <trkpt lat="49.36567" lon="-1.07446">
        <ele>17.9</ele>
        <time>2020-06-16T10:11:36Z</time>
      </trkpt>
      <trkpt lat="49.36572" lon="-1.07452">
        <ele>17.8</ele>
        <time>2020-06-16T10:11:37Z</time>
      </trkpt>
      <trkpt lat="49.36578" lon="-1.07459">
        <ele>17.8</ele>
        <time>2020-06-16T10:11:38Z</time>
      </trkpt>
      <trkpt lat="49.36584" lon="-1.07466">
        <ele>17.7</ele>
        <time>2020-06-16T10:11:39Z</time>
      </trkpt>
      <trkpt lat="49.36589" lon="-1.07473">
        <ele>17.6</ele>
        <time>2020-06-16T10:11:40Z</time>
      </trkpt>
      <trkpt lat="49.36596" lon="-1.0748">
        <ele>17.6</ele>
        <time>2020-06-16T10:11:41Z</time>
      </trkpt>
      <trkpt lat="49.36601" lon="-1.07488">
        <ele>17.5</ele>
        <time>2020-06-16T10:11:42Z</time>
      </trkpt>
      <trkpt lat="49.36606" lon="-1.07495">
        <ele>17.5</ele>
        <time>2020-06-16T10:11:43Z</time>
      </trkpt>
      <trkpt lat="49.36611" lon="-1.07503">
        <ele>17.4</ele>
        <time>2020-06-16T10:11:44Z</time>
      </trkpt>
      <trkpt lat="49.36616" lon="-1.0751">
        <ele>17.4</ele>
        <time>2020-06-16T10:11:45Z</time>
      </trkpt>
      <trkpt lat="49.36621" lon="-1.07517">
        <ele>17.3</ele>
        <time>2020-06-16T10:11:46Z</time>
      </trkpt>
      <trkpt lat="49.36626" lon="-1.07524">
        <ele>17.3</ele>
        <time>2020-06-16T10:11:47Z</time>
      </trkpt>
      <trkpt lat="49.36632" lon="-1.07531">
        <ele>17.2</ele>
        <time>2020-06-16T10:11:48Z</time>
      </trkpt>
      <trkpt lat="49.36638" lon="-1.07537">
        <ele>17.2</ele>
        <time>2020-06-16T10:11:49Z</time>
      </trkpt>
      <trkpt lat="49.36644" lon="-1.07544">
        <ele>17.1</ele>
        <time>2020-06-16T10:11:50Z</time>
      </trkpt>
      <trkpt lat="49.3665" lon="-1.07551">
        <ele>17</ele>
        <time>2020-06-16T10:11:51Z</time>
      </trkpt>
      <trkpt lat="49.36656" lon="-1.07558">
        <ele>17</ele>
        <time>2020-06-16T10:11:52Z</time>
      </trkpt>
      <trkpt lat="49.36662" lon="-1.07565">
        <ele>16.9</ele>
        <time>2020-06-16T10:11:53Z</time>
      </trkpt>
      <trkpt lat="49.36668" lon="-1.07572">
        <ele>16.9</ele>
        <time>2020-06-16T10:11:54Z</time>
      </trkpt>
      <trkpt lat="49.36674" lon="-1.07579">
        <ele>16.8</ele>
        <time>2020-06-16T10:11:55Z</time>
      </trkpt>
      <trkpt lat="49.3668" lon="-1.07585">
        <ele>16.8</ele>
        <time>2020-06-16T10:11:56Z</time>
      </trkpt>
      <trkpt lat="49.36686" lon="-1.07592">
        <ele>16.7</ele>
        <time>2020-06-16T10:11:57Z</time>
      </trkpt>
      <trkpt lat="49.3669" lon="-1.07599">
        <ele>16.7</ele>
        <time>2020-06-16T10:11:58Z</time>
      </trkpt>
      <trkpt lat="49.36696" lon="-1.07605">
        <ele>16.6</ele>
        <time>2020-06-16T10:11:59Z</time>
      </trkpt>
      <trkpt lat="49.36701" lon="-1.07611">
        <ele>16.5</ele>
        <time>2020-06-16T10:12:00Z</time>
      </trkpt>
      <trkpt lat="49.36707" lon="-1.07617">
        <ele>16.5</ele>
        <time>2020-06-16T10:12:01Z</time>
      </trkpt>
      <trkpt lat="49.36712" lon="-1.07623">
        <ele>16.4</ele>
        <time>2020-06-16T10:12:02Z</time>
      </trkpt>
      <trkpt lat="49.36718" lon="-1.07629">
        <ele>16.4</ele>
        <time>2020-06-16T10:12:03Z</time>
      </trkpt>
      <trkpt lat="49.36724" lon="-1.07634">
        <ele>16.3</ele>
        <time>2020-06-16T10:12:04Z</time>
      </trkpt>
      <trkpt lat="49.3673" lon="-1.0764">
        <ele>16.3</ele>
        <time>2020-06-16T10:12:05Z</time>
      </trkpt>
      <trkpt lat="49.36735" lon="-1.07647">
        <ele>16.2</ele>
        <time>2020-06-16T10:12:06Z</time>
      </trkpt>
      <trkpt lat="49.36741" lon="-1.07651">
        <ele>16.2</ele>
        <time>2020-06-16T10:12:07Z</time>
      </trkpt>
      <trkpt lat="49.36747" lon="-1.07656">
        <ele>16.1</ele>
        <time>2020-06-16T10:12:08Z</time>
      </trkpt>
      <trkpt lat="49.36753" lon="-1.07658">
        <ele>16.1</ele>
        <time>2020-06-16T10:12:09Z</time>
      </trkpt>
      <trkpt lat="49.36759" lon="-1.07662">
        <ele>16</ele>
        <time>2020-06-16T10:12:10Z</time>
      </trkpt>
      <trkpt lat="49.36765" lon="-1.07667">
        <ele>16</ele>
        <time>2020-06-16T10:12:11Z</time>
      </trkpt>
      <trkpt lat="49.3677" lon="-1.07673">
        <ele>15.9</ele>
        <time>2020-06-16T10:12:12Z</time>
      </trkpt>
      <trkpt lat="49.36774" lon="-1.07679">
        <ele>15.9</ele>
        <time>2020-06-16T10:12:13Z</time>
      </trkpt>
      <trkpt lat="49.36778" lon="-1.07685">
        <ele>15.9</ele>
        <time>2020-06-16T10:12:14Z</time>
      </trkpt>
      <trkpt lat="49.36782" lon="-1.07691">
        <ele>15.8</ele>
        <time>2020-06-16T10:12:15Z</time>
      </trkpt>
      <trkpt lat="49.36787" lon="-1.07695">
        <ele>15.8</ele>
        <time>2020-06-16T10:12:16Z</time>
      </trkpt>
      <trkpt lat="49.36791" lon="-1.07698">
        <ele>15.7</ele>
        <time>2020-06-16T10:12:17Z</time>
      </trkpt>
      <trkpt lat="49.36795" lon="-1.07699">
        <ele>15.7</ele>
        <time>2020-06-16T10:12:18Z</time>
      </trkpt>
      <trkpt lat="49.36799" lon="-1.07699">
        <ele>15.7</ele>
        <time>2020-06-16T10:12:19Z</time>
      </trkpt>
      <trkpt lat="49.36802" lon="-1.07699">
        <ele>15.7</ele>
        <time>2020-06-16T10:12:20Z</time>
      </trkpt>
      <trkpt lat="49.36806" lon="-1.07699">
        <ele>15.6</ele>
        <time>2020-06-16T10:12:21Z</time>
      </trkpt>
      <trkpt lat="49.36809" lon="-1.07698">
        <ele>15.6</ele>
        <time>2020-06-16T10:12:22Z</time>
      </trkpt>
      <trkpt lat="49.36812" lon="-1.07696">
        <ele>15.6</ele>
        <time>2020-06-16T10:12:23Z</time>
      </trkpt>
      <trkpt lat="49.36813" lon="-1.07696">
        <ele>15.6</ele>
        <time>2020-06-16T10:12:24Z</time>
      </trkpt>
      <trkpt lat="49.36814" lon="-1.07694">
        <ele>15.6</ele>
        <time>2020-06-16T10:12:25Z</time>
      </trkpt>
      <trkpt lat="49.36815" lon="-1.07692">
        <ele>15.5</ele>
        <time>2020-06-16T10:12:26Z</time>
      </trkpt>
      <trkpt lat="49.36817" lon="-1.07691">
        <ele>15.5</ele>
        <time>2020-06-16T10:12:27Z</time>
      </trkpt>
      <trkpt lat="49.36818" lon="-1.07691">
        <ele>15.5</ele>
        <time>2020-06-16T10:12:28Z</time>
      </trkpt>
      <trkpt lat="49.36819" lon="-1.07691">
        <ele>15.5</ele>
        <time>2020-06-16T10:12:29Z</time>
      </trkpt>
      <trkpt lat="49.3682" lon="-1.07691">
        <ele>15.5</ele>
        <time>2020-06-16T10:12:30Z</time>
      </trkpt>
      <trkpt lat="49.36821" lon="-1.0769">
        <ele>15.5</ele>
        <time>2020-06-16T10:12:31Z</time>
      </trkpt>
      <trkpt lat="49.36821" lon="-1.07688">
        <ele>15.5</ele>
        <time>2020-06-16T10:12:32Z</time>
      </trkpt>
      <trkpt lat="49.36821" lon="-1.07685">
        <ele>15.5</ele>
        <time>2020-06-16T10:12:33Z</time>
      </trkpt>
      <trkpt lat="49.36822" lon="-1.07683">
        <ele>15.5</ele>
        <time>2020-06-16T10:12:34Z</time>
      </trkpt>
      <trkpt lat="49.36822" lon="-1.07682">
        <ele>15.5</ele>
        <time>2020-06-16T10:12:35Z</time>
      </trkpt>
      <trkpt lat="49.36822" lon="-1.07681">
        <ele>15.4</ele>
        <time>2020-06-16T10:12:36Z</time>
      </trkpt>
      <trkpt lat="49.36822" lon="-1.07681">
        <ele>15.4</ele>
        <time>2020-06-16T10:12:37Z</time>
      </trkpt>
      <trkpt lat="49.36822" lon="-1.07682">
        <ele>15.4</ele>
        <time>2020-06-16T10:12:38Z</time>
      </trkpt>
      <trkpt lat="49.36822" lon="-1.07681">
        <ele>15.4</ele>
        <time>2020-06-16T10:12:39Z</time>
      </trkpt>
      <trkpt lat="49.36822" lon="-1.0768">
        <ele>15.4</ele>
        <time>2020-06-16T10:12:40Z</time>
      </trkpt>
      <trkpt lat="49.36822" lon="-1.07679">
        <ele>15.4</ele>
        <time>2020-06-16T10:12:41Z</time>
      </trkpt>
      <trkpt lat="49.36822" lon="-1.07679">
        <ele>15.4</ele>
        <time>2020-06-16T10:12:42Z</time>
      </trkpt>
      <trkpt lat="49.36823" lon="-1.07678">
        <ele>15.4</ele>
        <time>2020-06-16T10:12:43Z</time>
      </trkpt>
      <trkpt lat="49.36823" lon="-1.07679">
        <ele>15.4</ele>
        <time>2020-06-16T10:12:44Z</time>
      </trkpt>
      <trkpt lat="49.36823" lon="-1.07679">
        <ele>15.4</ele>
        <time>2020-06-16T10:12:45Z</time>
      </trkpt>
      <trkpt lat="49.36823" lon="-1.07678">
        <ele>15.4</ele>
        <time>2020-06-16T10:12:46Z</time>
      </trkpt>
      <trkpt lat="49.36823" lon="-1.07677">
        <ele>15.4</ele>
        <time>2020-06-16T10:12:47Z</time>
      </trkpt>
      <trkpt lat="49.36823" lon="-1.07677">
        <ele>15.4</ele>
        <time>2020-06-16T10:12:48Z</time>
      </trkpt>
      <trkpt lat="49.36823" lon="-1.07678">
        <ele>15.4</ele>
        <time>2020-06-16T10:12:49Z</time>
      </trkpt>
      <trkpt lat="49.36822" lon="-1.07678">
        <ele>15.4</ele>
        <time>2020-06-16T10:12:50Z</time>
      </trkpt>
      <trkpt lat="49.36822" lon="-1.0768">
        <ele>15.4</ele>
        <time>2020-06-16T10:12:51Z</time>
      </trkpt>
      <trkpt lat="49.36822" lon="-1.07682">
        <ele>15.4</ele>
        <time>2020-06-16T10:12:52Z</time>
      </trkpt>
      <trkpt lat="49.36821" lon="-1.07683">
        <ele>15.4</ele>
        <time>2020-06-16T10:12:53Z</time>
      </trkpt>
      <trkpt lat="49.36821" lon="-1.07683">
        <ele>15.4</ele>
        <time>2020-06-16T10:12:54Z</time>
      </trkpt>
      <trkpt lat="49.36821" lon="-1.07683">
        <ele>15.4</ele>
        <time>2020-06-16T10:12:55Z</time>
      </trkpt>
      <trkpt lat="49.36821" lon="-1.07681">
        <ele>15.4</ele>
        <time>2020-06-16T10:12:56Z</time>
      </trkpt>
      <trkpt lat="49.36821" lon="-1.0768">
        <ele>15.4</ele>
        <time>2020-06-16T10:12:57Z</time>
      </trkpt>
      <trkpt lat="49.36821" lon="-1.07679">
        <ele>15.3</ele>
        <time>2020-06-16T10:12:58Z</time>
      </trkpt>
      <trkpt lat="49.36821" lon="-1.07678">
        <ele>15.3</ele>
        <time>2020-06-16T10:12:59Z</time>
      </trkpt>
      <trkpt lat="49.36822" lon="-1.07678">
        <ele>15.3</ele>
        <time>2020-06-16T10:13:00Z</time>
      </trkpt>
      <trkpt lat="49.36822" lon="-1.07677">
        <ele>15.3</ele>
        <time>2020-06-16T10:13:01Z</time>
      </trkpt>
      <trkpt lat="49.36822" lon="-1.07677">
        <ele>15.3</ele>
        <time>2020-06-16T10:13:02Z</time>
      </trkpt>
      <trkpt lat="49.36822" lon="-1.07678">
        <ele>15.3</ele>
        <time>2020-06-16T10:13:03Z</time>
      </trkpt>
      <trkpt lat="49.36822" lon="-1.07678">
        <ele>15.3</ele>
        <time>2020-06-16T10:13:04Z</time>
      </trkpt>
      <trkpt lat="49.36823" lon="-1.07678">
        <ele>15.3</ele>
        <time>2020-06-16T10:13:05Z</time>
      </trkpt>
      <trkpt lat="49.36823" lon="-1.07677">
        <ele>15.3</ele>
        <time>2020-06-16T10:13:06Z</time>
      </trkpt>
      <trkpt lat="49.36823" lon="-1.07677">
        <ele>15.3</ele>
        <time>2020-06-16T10:13:07Z</time>
      </trkpt>
      <trkpt lat="49.36822" lon="-1.07678">
        <ele>15.3</ele>
        <time>2020-06-16T10:13:08Z</time>
      </trkpt>
      <trkpt lat="49.36821" lon="-1.0768">
        <ele>15.3</ele>
        <time>2020-06-16T10:13:09Z</time>
      </trkpt>
      <trkpt lat="49.3682" lon="-1.0768">
        <ele>15.3</ele>
        <time>2020-06-16T10:13:10Z</time>
      </trkpt>
      <trkpt lat="49.3682" lon="-1.07681">
        <ele>15.3</ele>
        <time>2020-06-16T10:13:11Z</time>
      </trkpt>
      <trkpt lat="49.3682" lon="-1.07681">
        <ele>15.3</ele>
        <time>2020-06-16T10:13:12Z</time>
      </trkpt>
      <trkpt lat="49.3682" lon="-1.07681">
        <ele>15.3</ele>
        <time>2020-06-16T10:13:13Z</time>
      </trkpt>
      <trkpt lat="49.36819" lon="-1.07681">
        <ele>15.3</ele>
        <time>2020-06-16T10:13:14Z</time>
      </trkpt>
      <trkpt lat="49.36819" lon="-1.07681">
        <ele>15.3</ele>
        <time>2020-06-16T10:13:15Z</time>
      </trkpt>
      <trkpt lat="49.36818" lon="-1.07681">
        <ele>15.3</ele>
        <time>2020-06-16T10:13:16Z</time>
      </trkpt>
      <trkpt lat="49.36818" lon="-1.07681">
        <ele>15.3</ele>
        <time>2020-06-16T10:13:17Z</time>
      </trkpt>
      <trkpt lat="49.36818" lon="-1.07682">
        <ele>15.3</ele>
        <time>2020-06-16T10:13:18Z</time>
      </trkpt>
      <trkpt lat="49.36818" lon="-1.07683">
        <ele>15.3</ele>
        <time>2020-06-16T10:13:19Z</time>
      </trkpt>
      <trkpt lat="49.36818" lon="-1.07683">
        <ele>15.3</ele>
        <time>2020-06-16T10:13:20Z</time>
      </trkpt>
      <trkpt lat="49.36817" lon="-1.07683">
        <ele>15.3</ele>
        <time>2020-06-16T10:13:21Z</time>
      </trkpt>
      <trkpt lat="49.36818" lon="-1.07684">
        <ele>15.3</ele>
        <time>2020-06-16T10:13:22Z</time>
      </trkpt>
      <trkpt lat="49.36818" lon="-1.07684">
        <ele>15.3</ele>
        <time>2020-06-16T10:13:23Z</time>
      </trkpt>
      <trkpt lat="49.36818" lon="-1.07685">
        <ele>15.3</ele>
        <time>2020-06-16T10:13:24Z</time>
      </trkpt>
      <trkpt lat="49.36818" lon="-1.07687">
        <ele>15.2</ele>
        <time>2020-06-16T10:13:25Z</time>
      </trkpt>
      <trkpt lat="49.36819" lon="-1.07687">
        <ele>15.2</ele>
        <time>2020-06-16T10:13:26Z</time>
      </trkpt>
      <trkpt lat="49.36819" lon="-1.07688">
        <ele>15.2</ele>
        <time>2020-06-16T10:13:27Z</time>
      </trkpt>
      <trkpt lat="49.36819" lon="-1.0769">
        <ele>15.2</ele>
        <time>2020-06-16T10:13:28Z</time>
      </trkpt>
      <trkpt lat="49.3682" lon="-1.0769">
        <ele>15.2</ele>
        <time>2020-06-16T10:13:29Z</time>
      </trkpt>
      <trkpt lat="49.3682" lon="-1.07691">
        <ele>15.2</ele>
        <time>2020-06-16T10:13:30Z</time>
      </trkpt>
      <trkpt lat="49.36819" lon="-1.07691">
        <ele>15.2</ele>
        <time>2020-06-16T10:13:31Z</time>
      </trkpt>
      <trkpt lat="49.3682" lon="-1.0769">
        <ele>15.2</ele>
        <time>2020-06-16T10:13:32Z</time>
      </trkpt>
      <trkpt lat="49.3682" lon="-1.07689">
        <ele>15.2</ele>
        <time>2020-06-16T10:13:33Z</time>
      </trkpt>
      <trkpt lat="49.36819" lon="-1.07688">
        <ele>15.2</ele>
        <time>2020-06-16T10:13:34Z</time>
      </trkpt>
      <trkpt lat="49.36819" lon="-1.07688">
        <ele>15.2</ele>
        <time>2020-06-16T10:13:35Z</time>
      </trkpt>
      <trkpt lat="49.36819" lon="-1.07688">
        <ele>15.2</ele>
        <time>2020-06-16T10:13:36Z</time>
      </trkpt>
      <trkpt lat="49.3682" lon="-1.07688">
        <ele>15.2</ele>
        <time>2020-06-16T10:13:37Z</time>
      </trkpt>
      <trkpt lat="49.36821" lon="-1.07688">
        <ele>15.2</ele>
        <time>2020-06-16T10:13:38Z</time>
      </trkpt>
      <trkpt lat="49.36821" lon="-1.07688">
        <ele>15.2</ele>
        <time>2020-06-16T10:13:39Z</time>
      </trkpt>
      <trkpt lat="49.36822" lon="-1.07688">
        <ele>15.2</ele>
        <time>2020-06-16T10:13:40Z</time>
      </trkpt>
      <trkpt lat="49.36823" lon="-1.07689">
        <ele>15.2</ele>
        <time>2020-06-16T10:13:41Z</time>
      </trkpt>
      <trkpt lat="49.36823" lon="-1.0769">
        <ele>15.2</ele>
        <time>2020-06-16T10:13:42Z</time>
      </trkpt>
      <trkpt lat="49.36823" lon="-1.07691">
        <ele>15.2</ele>
        <time>2020-06-16T10:13:43Z</time>
      </trkpt>
      <trkpt lat="49.36824" lon="-1.07692">
        <ele>15.2</ele>
        <time>2020-06-16T10:13:44Z</time>
      </trkpt>
      <trkpt lat="49.36824" lon="-1.07692">
        <ele>15.2</ele>
        <time>2020-06-16T10:13:45Z</time>
      </trkpt>
      <trkpt lat="49.36825" lon="-1.07695">
        <ele>15.1</ele>
        <time>2020-06-16T10:13:46Z</time>
      </trkpt>
      <trkpt lat="49.36825" lon="-1.07698">
        <ele>15.1</ele>
        <time>2020-06-16T10:13:47Z</time>
      </trkpt>
      <trkpt lat="49.36826" lon="-1.07701">
        <ele>15.1</ele>
        <time>2020-06-16T10:13:48Z</time>
      </trkpt>
      <trkpt lat="49.36827" lon="-1.07702">
        <ele>15.1</ele>
        <time>2020-06-16T10:13:49Z</time>
      </trkpt>
      <trkpt lat="49.36827" lon="-1.07703">
        <ele>15.1</ele>
        <time>2020-06-16T10:13:50Z</time>
      </trkpt>
      <trkpt lat="49.36828" lon="-1.07701">
        <ele>15.1</ele>
        <time>2020-06-16T10:13:51Z</time>
      </trkpt>
      <trkpt lat="49.3683" lon="-1.077">
        <ele>15.1</ele>
        <time>2020-06-16T10:13:52Z</time>
      </trkpt>
      <trkpt lat="49.36831" lon="-1.07699">
        <ele>15.1</ele>
        <time>2020-06-16T10:13:53Z</time>
      </trkpt>
      <trkpt lat="49.36831" lon="-1.07697">
        <ele>15.1</ele>
        <time>2020-06-16T10:13:54Z</time>
      </trkpt>
      <trkpt lat="49.36831" lon="-1.07697">
        <ele>15.1</ele>
        <time>2020-06-16T10:13:55Z</time>
      </trkpt>
      <trkpt lat="49.36831" lon="-1.07697">
        <ele>15.1</ele>
        <time>2020-06-16T10:13:56Z</time>
      </trkpt>
      <trkpt lat="49.36832" lon="-1.07696">
        <ele>15</ele>
        <time>2020-06-16T10:13:57Z</time>
      </trkpt>
      <trkpt lat="49.36832" lon="-1.07695">
        <ele>15</ele>
        <time>2020-06-16T10:13:58Z</time>
      </trkpt>
      <trkpt lat="49.36832" lon="-1.07695">
        <ele>15</ele>
        <time>2020-06-16T10:13:59Z</time>
      </trkpt>
      <trkpt lat="49.36832" lon="-1.07694">
        <ele>15</ele>
        <time>2020-06-16T10:14:00Z</time>
      </trkpt>
      <trkpt lat="49.36832" lon="-1.07694">
        <ele>15</ele>
        <time>2020-06-16T10:14:01Z</time>
      </trkpt>
      <trkpt lat="49.36832" lon="-1.07694">
        <ele>15</ele>
        <time>2020-06-16T10:14:02Z</time>
      </trkpt>
      <trkpt lat="49.36832" lon="-1.07694">
        <ele>15</ele>
        <time>2020-06-16T10:14:03Z</time>
      </trkpt>
      <trkpt lat="49.36833" lon="-1.07691">
        <ele>15</ele>
        <time>2020-06-16T10:29:30Z</time>
      </trkpt>
      <trkpt lat="49.36833" lon="-1.07692">
        <ele>15</ele>
        <time>2020-06-16T10:29:31Z</time>
      </trkpt>
      <trkpt lat="49.36831" lon="-1.07689">
        <ele>15</ele>
        <time>2020-06-16T10:29:32Z</time>
      </trkpt>
      <trkpt lat="49.3683" lon="-1.07687">
        <ele>15</ele>
        <time>2020-06-16T10:29:33Z</time>
      </trkpt>
      <trkpt lat="49.36828" lon="-1.07686">
        <ele>15</ele>
        <time>2020-06-16T10:29:34Z</time>
      </trkpt>
      <trkpt lat="49.36827" lon="-1.07685">
        <ele>15</ele>
        <time>2020-06-16T10:29:35Z</time>
      </trkpt>
      <trkpt lat="49.36826" lon="-1.07684">
        <ele>15</ele>
        <time>2020-06-16T10:29:36Z</time>
      </trkpt>
      <trkpt lat="49.36825" lon="-1.07684">
        <ele>14.9</ele>
        <time>2020-06-16T10:29:37Z</time>
      </trkpt>
      <trkpt lat="49.36824" lon="-1.07683">
        <ele>14.9</ele>
        <time>2020-06-16T10:29:38Z</time>
      </trkpt>
      <trkpt lat="49.36823" lon="-1.07683">
        <ele>14.9</ele>
        <time>2020-06-16T10:29:39Z</time>
      </trkpt>
      <trkpt lat="49.36822" lon="-1.07682">
        <ele>14.9</ele>
        <time>2020-06-16T10:29:40Z</time>
      </trkpt>
      <trkpt lat="49.36821" lon="-1.07682">
        <ele>14.8</ele>
        <time>2020-06-16T10:29:41Z</time>
      </trkpt>
      <trkpt lat="49.36821" lon="-1.07682">
        <ele>14.8</ele>
        <time>2020-06-16T10:29:42Z</time>
      </trkpt>
      <trkpt lat="49.36821" lon="-1.07681">
        <ele>14.8</ele>
        <time>2020-06-16T10:29:43Z</time>
      </trkpt>
      <trkpt lat="49.36821" lon="-1.07681">
        <ele>14.8</ele>
        <time>2020-06-16T10:29:44Z</time>
      </trkpt>
      <trkpt lat="49.36821" lon="-1.07681">
        <ele>14.8</ele>
        <time>2020-06-16T10:29:45Z</time>
      </trkpt>
      <trkpt lat="49.36821" lon="-1.07681">
        <ele>14.8</ele>
        <time>2020-06-16T10:29:46Z</time>
      </trkpt>
      <trkpt lat="49.36822" lon="-1.07681">
        <ele>14.8</ele>
        <time>2020-06-16T10:29:47Z</time>
      </trkpt>
      <trkpt lat="49.36822" lon="-1.0768">
        <ele>14.8</ele>
        <time>2020-06-16T10:29:48Z</time>
      </trkpt>
      <trkpt lat="49.36822" lon="-1.0768">
        <ele>14.8</ele>
        <time>2020-06-16T10:29:49Z</time>
      </trkpt>
      <trkpt lat="49.36822" lon="-1.0768">
        <ele>14.8</ele>
        <time>2020-06-16T10:29:50Z</time>
      </trkpt>
      <trkpt lat="49.36822" lon="-1.0768">
        <ele>14.8</ele>
        <time>2020-06-16T10:29:51Z</time>
      </trkpt>
      <trkpt lat="49.36822" lon="-1.07681">
        <ele>14.8</ele>
        <time>2020-06-16T10:29:52Z</time>
      </trkpt>
      <trkpt lat="49.36822" lon="-1.07681">
        <ele>14.7</ele>
        <time>2020-06-16T10:29:53Z</time>
      </trkpt>
      <trkpt lat="49.36828" lon="-1.07679">
        <ele>14.7</ele>
        <time>2020-06-16T10:31:01Z</time>
      </trkpt>
      <trkpt lat="49.36828" lon="-1.07679">
        <ele>14.7</ele>
        <time>2020-06-16T10:31:02Z</time>
      </trkpt>
      <trkpt lat="49.36828" lon="-1.07678">
        <ele>14.6</ele>
        <time>2020-06-16T10:31:03Z</time>
      </trkpt>
      <trkpt lat="49.36828" lon="-1.07679">
        <ele>14.6</ele>
        <time>2020-06-16T10:31:04Z</time>
      </trkpt>
      <trkpt lat="49.36829" lon="-1.07679">
        <ele>14.6</ele>
        <time>2020-06-16T10:31:05Z</time>
      </trkpt>
      <trkpt lat="49.36829" lon="-1.07679">
        <ele>14.6</ele>
        <time>2020-06-16T10:31:06Z</time>
      </trkpt>
      <trkpt lat="49.36829" lon="-1.07678">
        <ele>14.6</ele>
        <time>2020-06-16T10:31:07Z</time>
      </trkpt>
      <trkpt lat="49.3683" lon="-1.07679">
        <ele>14.6</ele>
        <time>2020-06-16T10:31:08Z</time>
      </trkpt>
      <trkpt lat="49.3683" lon="-1.07678">
        <ele>14.6</ele>
        <time>2020-06-16T10:31:09Z</time>
      </trkpt>
      <trkpt lat="49.36829" lon="-1.07679">
        <ele>14.6</ele>
        <time>2020-06-16T10:31:10Z</time>
      </trkpt>
      <trkpt lat="49.36829" lon="-1.07679">
        <ele>14.6</ele>
        <time>2020-06-16T10:31:11Z</time>
      </trkpt>
      <trkpt lat="49.36829" lon="-1.07679">
        <ele>14.6</ele>
        <time>2020-06-16T10:31:12Z</time>
      </trkpt>
      <trkpt lat="49.36829" lon="-1.07679">
        <ele>14.6</ele>
        <time>2020-06-16T10:31:13Z</time>
      </trkpt>
      <trkpt lat="49.36828" lon="-1.07678">
        <ele>14.6</ele>
        <time>2020-06-16T10:31:14Z</time>
      </trkpt>
      <trkpt lat="49.36828" lon="-1.07678">
        <ele>14.6</ele>
        <time>2020-06-16T10:31:15Z</time>
      </trkpt>
      <trkpt lat="49.36828" lon="-1.07678">
        <ele>14.6</ele>
        <time>2020-06-16T10:31:16Z</time>
      </trkpt>
      <trkpt lat="49.3682" lon="-1.07669">
        <ele>14.5</ele>
        <time>2020-06-16T10:31:53Z</time>
      </trkpt>
      <trkpt lat="49.3682" lon="-1.07668">
        <ele>14.5</ele>
        <time>2020-06-16T10:31:54Z</time>
      </trkpt>
      <trkpt lat="49.3682" lon="-1.07667">
        <ele>14.5</ele>
        <time>2020-06-16T10:31:55Z</time>
      </trkpt>
      <trkpt lat="49.3682" lon="-1.07666">
        <ele>14.5</ele>
        <time>2020-06-16T10:31:56Z</time>
      </trkpt>
      <trkpt lat="49.3682" lon="-1.07666">
        <ele>14.5</ele>
        <time>2020-06-16T10:31:57Z</time>
      </trkpt>
      <trkpt lat="49.3682" lon="-1.07666">
        <ele>14.5</ele>
        <time>2020-06-16T10:31:58Z</time>
      </trkpt>
      <trkpt lat="49.3682" lon="-1.07666">
        <ele>14.4</ele>
        <time>2020-06-16T10:31:59Z</time>
      </trkpt>
      <trkpt lat="49.3682" lon="-1.07666">
        <ele>14.4</ele>
        <time>2020-06-16T10:32:00Z</time>
      </trkpt>
      <trkpt lat="49.3682" lon="-1.07666">
        <ele>14.4</ele>
        <time>2020-06-16T10:32:01Z</time>
      </trkpt>
      <trkpt lat="49.36821" lon="-1.07666">
        <ele>14.5</ele>
        <time>2020-06-16T10:32:02Z</time>
      </trkpt>
      <trkpt lat="49.36821" lon="-1.07666">
        <ele>14.5</ele>
        <time>2020-06-16T10:32:03Z</time>
      </trkpt>
      <trkpt lat="49.36821" lon="-1.07665">
        <ele>14.5</ele>
        <time>2020-06-16T10:32:04Z</time>
      </trkpt>
      <trkpt lat="49.36821" lon="-1.07665">
        <ele>14.5</ele>
        <time>2020-06-16T10:32:05Z</time>
      </trkpt>
      <trkpt lat="49.36821" lon="-1.07665">
        <ele>14.5</ele>
        <time>2020-06-16T10:32:06Z</time>
      </trkpt>
      <trkpt lat="49.36821" lon="-1.07665">
        <ele>14.5</ele>
        <time>2020-06-16T10:32:07Z</time>
      </trkpt>
      <trkpt lat="49.36827" lon="-1.07669">
        <ele>14.4</ele>
        <time>2020-06-16T10:33:04Z</time>
      </trkpt>
      <trkpt lat="49.36828" lon="-1.07669">
        <ele>14.4</ele>
        <time>2020-06-16T10:33:05Z</time>
      </trkpt>
      <trkpt lat="49.36828" lon="-1.0767">
        <ele>14.4</ele>
        <time>2020-06-16T10:33:06Z</time>
      </trkpt>
      <trkpt lat="49.36829" lon="-1.07671">
        <ele>14.4</ele>
        <time>2020-06-16T10:33:07Z</time>
      </trkpt>
      <trkpt lat="49.36831" lon="-1.07671">
        <ele>14.4</ele>
        <time>2020-06-16T10:33:08Z</time>
      </trkpt>
      <trkpt lat="49.36832" lon="-1.07671">
        <ele>14.4</ele>
        <time>2020-06-16T10:33:09Z</time>
      </trkpt>
      <trkpt lat="49.36833" lon="-1.07671">
        <ele>14.4</ele>
        <time>2020-06-16T10:33:10Z</time>
      </trkpt>
      <trkpt lat="49.36835" lon="-1.07671">
        <ele>14.4</ele>
        <time>2020-06-16T10:33:11Z</time>
      </trkpt>
      <trkpt lat="49.36835" lon="-1.07671">
        <ele>14.4</ele>
        <time>2020-06-16T10:33:12Z</time>
      </trkpt>
      <trkpt lat="49.36836" lon="-1.07672">
        <ele>14.4</ele>
        <time>2020-06-16T10:33:13Z</time>
      </trkpt>
      <trkpt lat="49.36837" lon="-1.07672">
        <ele>14.4</ele>
        <time>2020-06-16T10:33:14Z</time>
      </trkpt>
      <trkpt lat="49.36837" lon="-1.07672">
        <ele>14.4</ele>
        <time>2020-06-16T10:33:15Z</time>
      </trkpt>
      <trkpt lat="49.36839" lon="-1.07671">
        <ele>14.3</ele>
        <time>2020-06-16T10:33:16Z</time>
      </trkpt>
      <trkpt lat="49.36839" lon="-1.07669">
        <ele>14.3</ele>
        <time>2020-06-16T10:33:17Z</time>
      </trkpt>
      <trkpt lat="49.36839" lon="-1.07668">
        <ele>14.3</ele>
        <time>2020-06-16T10:33:18Z</time>
      </trkpt>
      <trkpt lat="49.3684" lon="-1.07666">
        <ele>14.3</ele>
        <time>2020-06-16T10:33:19Z</time>
      </trkpt>
      <trkpt lat="49.36841" lon="-1.07664">
        <ele>14.3</ele>
        <time>2020-06-16T10:33:20Z</time>
      </trkpt>
      <trkpt lat="49.36842" lon="-1.07663">
        <ele>14.3</ele>
        <time>2020-06-16T10:33:21Z</time>
      </trkpt>
      <trkpt lat="49.36842" lon="-1.07662">
        <ele>14.4</ele>
        <time>2020-06-16T10:33:22Z</time>
      </trkpt>
      <trkpt lat="49.36843" lon="-1.07661">
        <ele>14.4</ele>
        <time>2020-06-16T10:33:23Z</time>
      </trkpt>
      <trkpt lat="49.36844" lon="-1.0766">
        <ele>14.4</ele>
        <time>2020-06-16T10:33:24Z</time>
      </trkpt>
      <trkpt lat="49.36845" lon="-1.07659">
        <ele>14.4</ele>
        <time>2020-06-16T10:33:25Z</time>
      </trkpt>
      <trkpt lat="49.36845" lon="-1.07658">
        <ele>14.4</ele>
        <time>2020-06-16T10:33:26Z</time>
      </trkpt>
      <trkpt lat="49.36846" lon="-1.07657">
        <ele>14.4</ele>
        <time>2020-06-16T10:33:27Z</time>
      </trkpt>
      <trkpt lat="49.36846" lon="-1.07657">
        <ele>14.4</ele>
        <time>2020-06-16T10:33:28Z</time>
      </trkpt>
      <trkpt lat="49.36846" lon="-1.07656">
        <ele>14.3</ele>
        <time>2020-06-16T10:33:29Z</time>
      </trkpt>
      <trkpt lat="49.36847" lon="-1.07656">
        <ele>14.3</ele>
        <time>2020-06-16T10:33:30Z</time>
      </trkpt>
      <trkpt lat="49.36847" lon="-1.07656">
        <ele>14.3</ele>
        <time>2020-06-16T10:33:31Z</time>
      </trkpt>
      <trkpt lat="49.36847" lon="-1.07655">
        <ele>14.3</ele>
        <time>2020-06-16T10:33:32Z</time>
      </trkpt>
      <trkpt lat="49.36847" lon="-1.07655">
        <ele>14.3</ele>
        <time>2020-06-16T10:33:33Z</time>
      </trkpt>
      <trkpt lat="49.36847" lon="-1.07654">
        <ele>14.3</ele>
        <time>2020-06-16T10:33:34Z</time>
      </trkpt>
      <trkpt lat="49.36848" lon="-1.07653">
        <ele>14.3</ele>
        <time>2020-06-16T10:33:35Z</time>
      </trkpt>
      <trkpt lat="49.36849" lon="-1.07652">
        <ele>14.3</ele>
        <time>2020-06-16T10:33:36Z</time>
      </trkpt>
      <trkpt lat="49.36849" lon="-1.07651">
        <ele>14.3</ele>
        <time>2020-06-16T10:33:37Z</time>
      </trkpt>
      <trkpt lat="49.3685" lon="-1.07651">
        <ele>14.3</ele>
        <time>2020-06-16T10:33:38Z</time>
      </trkpt>
      <trkpt lat="49.3685" lon="-1.07651">
        <ele>14.3</ele>
        <time>2020-06-16T10:33:39Z</time>
      </trkpt>
      <trkpt lat="49.3685" lon="-1.0765">
        <ele>14.3</ele>
        <time>2020-06-16T10:33:40Z</time>
      </trkpt>
      <trkpt lat="49.36851" lon="-1.0765">
        <ele>14.3</ele>
        <time>2020-06-16T10:33:41Z</time>
      </trkpt>
      <trkpt lat="49.36851" lon="-1.0765">
        <ele>14.3</ele>
        <time>2020-06-16T10:33:42Z</time>
      </trkpt>
      <trkpt lat="49.36851" lon="-1.07649">
        <ele>14.3</ele>
        <time>2020-06-16T10:33:43Z</time>
      </trkpt>
      <trkpt lat="49.36851" lon="-1.07649">
        <ele>14.4</ele>
        <time>2020-06-16T10:33:44Z</time>
      </trkpt>
      <trkpt lat="49.36851" lon="-1.07649">
        <ele>14.4</ele>
        <time>2020-06-16T10:33:45Z</time>
      </trkpt>
      <trkpt lat="49.36852" lon="-1.07649">
        <ele>14.3</ele>
        <time>2020-06-16T10:33:46Z</time>
      </trkpt>
      <trkpt lat="49.36851" lon="-1.07649">
        <ele>14.4</ele>
        <time>2020-06-16T10:33:47Z</time>
      </trkpt>
      <trkpt lat="49.36851" lon="-1.07649">
        <ele>14.3</ele>
        <time>2020-06-16T10:33:48Z</time>
      </trkpt>
      <trkpt lat="49.36851" lon="-1.07649">
        <ele>14.3</ele>
        <time>2020-06-16T10:33:49Z</time>
      </trkpt>
      <trkpt lat="49.36851" lon="-1.07649">
        <ele>14.3</ele>
        <time>2020-06-16T10:33:50Z</time>
      </trkpt>
      <trkpt lat="49.3685" lon="-1.07649">
        <ele>14.3</ele>
        <time>2020-06-16T10:33:51Z</time>
      </trkpt>
      <trkpt lat="49.3685" lon="-1.07649">
        <ele>14.3</ele>
        <time>2020-06-16T10:33:52Z</time>
      </trkpt>
      <trkpt lat="49.3685" lon="-1.07649">
        <ele>14.3</ele>
        <time>2020-06-16T10:33:53Z</time>
      </trkpt>
      <trkpt lat="49.3685" lon="-1.07649">
        <ele>14.4</ele>
        <time>2020-06-16T10:33:54Z</time>
      </trkpt>
      <trkpt lat="49.3685" lon="-1.07649">
        <ele>14.4</ele>
        <time>2020-06-16T10:33:55Z</time>
      </trkpt>
      <trkpt lat="49.3685" lon="-1.07648">
        <ele>14.4</ele>
        <time>2020-06-16T10:33:56Z</time>
      </trkpt>
      <trkpt lat="49.3685" lon="-1.07648">
        <ele>14.4</ele>
        <time>2020-06-16T10:33:57Z</time>
      </trkpt>
      <trkpt lat="49.3685" lon="-1.07648">
        <ele>14.4</ele>
        <time>2020-06-16T10:33:58Z</time>
      </trkpt>
      <trkpt lat="49.36851" lon="-1.07649">
        <ele>14.4</ele>
        <time>2020-06-16T10:33:59Z</time>
      </trkpt>
      <trkpt lat="49.36851" lon="-1.07649">
        <ele>14.3</ele>
        <time>2020-06-16T10:34:00Z</time>
      </trkpt>
      <trkpt lat="49.36851" lon="-1.07649">
        <ele>14.3</ele>
        <time>2020-06-16T10:34:01Z</time>
      </trkpt>
      <trkpt lat="49.36851" lon="-1.0765">
        <ele>14.3</ele>
        <time>2020-06-16T10:34:02Z</time>
      </trkpt>
      <trkpt lat="49.36851" lon="-1.07649">
        <ele>14.3</ele>
        <time>2020-06-16T10:34:03Z</time>
      </trkpt>
      <trkpt lat="49.3685" lon="-1.0765">
        <ele>14.3</ele>
        <time>2020-06-16T10:34:04Z</time>
      </trkpt>
      <trkpt lat="49.36851" lon="-1.0765">
        <ele>14.3</ele>
        <time>2020-06-16T10:34:05Z</time>
      </trkpt>
      <trkpt lat="49.3685" lon="-1.0765">
        <ele>14.3</ele>
        <time>2020-06-16T10:34:06Z</time>
      </trkpt>
      <trkpt lat="49.36851" lon="-1.0765">
        <ele>14.3</ele>
        <time>2020-06-16T10:34:07Z</time>
      </trkpt>
      <trkpt lat="49.3685" lon="-1.0765">
        <ele>14.3</ele>
        <time>2020-06-16T10:34:08Z</time>
      </trkpt>
      <trkpt lat="49.3685" lon="-1.07651">
        <ele>14.3</ele>
        <time>2020-06-16T10:34:09Z</time>
      </trkpt>
      <trkpt lat="49.36851" lon="-1.07652">
        <ele>14.3</ele>
        <time>2020-06-16T10:34:10Z</time>
      </trkpt>
      <trkpt lat="49.36851" lon="-1.07652">
        <ele>14.3</ele>
        <time>2020-06-16T10:34:11Z</time>
      </trkpt>
      <trkpt lat="49.36852" lon="-1.07653">
        <ele>14.3</ele>
        <time>2020-06-16T10:34:12Z</time>
      </trkpt>
      <trkpt lat="49.36851" lon="-1.07655">
        <ele>14.3</ele>
        <time>2020-06-16T10:34:13Z</time>
      </trkpt>
      <trkpt lat="49.36851" lon="-1.07655">
        <ele>14.3</ele>
        <time>2020-06-16T10:34:14Z</time>
      </trkpt>
      <trkpt lat="49.3685" lon="-1.07655">
        <ele>14.3</ele>
        <time>2020-06-16T10:34:15Z</time>
      </trkpt>
      <trkpt lat="49.3685" lon="-1.07656">
        <ele>14.3</ele>
        <time>2020-06-16T10:34:16Z</time>
      </trkpt>
      <trkpt lat="49.36849" lon="-1.07656">
        <ele>14.3</ele>
        <time>2020-06-16T10:34:17Z</time>
      </trkpt>
      <trkpt lat="49.36849" lon="-1.07656">
        <ele>14.3</ele>
        <time>2020-06-16T10:34:18Z</time>
      </trkpt>
      <trkpt lat="49.36849" lon="-1.07657">
        <ele>14.3</ele>
        <time>2020-06-16T10:34:19Z</time>
      </trkpt>
      <trkpt lat="49.3685" lon="-1.07658">
        <ele>14.2</ele>
        <time>2020-06-16T10:34:20Z</time>
      </trkpt>
      <trkpt lat="49.36851" lon="-1.07659">
        <ele>14.2</ele>
        <time>2020-06-16T10:34:21Z</time>
      </trkpt>
      <trkpt lat="49.36852" lon="-1.07659">
        <ele>14.2</ele>
        <time>2020-06-16T10:34:22Z</time>
      </trkpt>
      <trkpt lat="49.36852" lon="-1.07659">
        <ele>14.2</ele>
        <time>2020-06-16T10:34:23Z</time>
      </trkpt>
      <trkpt lat="49.36852" lon="-1.07659">
        <ele>14.2</ele>
        <time>2020-06-16T10:34:24Z</time>
      </trkpt>
      <trkpt lat="49.36851" lon="-1.07659">
        <ele>14.2</ele>
        <time>2020-06-16T10:34:25Z</time>
      </trkpt>
      <trkpt lat="49.36851" lon="-1.07658">
        <ele>14.2</ele>
        <time>2020-06-16T10:34:26Z</time>
      </trkpt>
      <trkpt lat="49.3685" lon="-1.07658">
        <ele>14.2</ele>
        <time>2020-06-16T10:34:27Z</time>
      </trkpt>
      <trkpt lat="49.3685" lon="-1.07657">
        <ele>14.3</ele>
        <time>2020-06-16T10:34:28Z</time>
      </trkpt>
      <trkpt lat="49.3685" lon="-1.07656">
        <ele>14.3</ele>
        <time>2020-06-16T10:34:29Z</time>
      </trkpt>
      <trkpt lat="49.36851" lon="-1.07655">
        <ele>14.3</ele>
        <time>2020-06-16T10:34:30Z</time>
      </trkpt>
      <trkpt lat="49.36852" lon="-1.07655">
        <ele>14.3</ele>
        <time>2020-06-16T10:34:31Z</time>
      </trkpt>
      <trkpt lat="49.36853" lon="-1.07655">
        <ele>14.3</ele>
        <time>2020-06-16T10:34:32Z</time>
      </trkpt>
      <trkpt lat="49.36854" lon="-1.07655">
        <ele>14.3</ele>
        <time>2020-06-16T10:34:33Z</time>
      </trkpt>
      <trkpt lat="49.36855" lon="-1.07655">
        <ele>14.3</ele>
        <time>2020-06-16T10:34:34Z</time>
      </trkpt>
      <trkpt lat="49.36856" lon="-1.07655">
        <ele>14.3</ele>
        <time>2020-06-16T10:34:35Z</time>
      </trkpt>
      <trkpt lat="49.36857" lon="-1.07655">
        <ele>14.3</ele>
        <time>2020-06-16T10:34:36Z</time>
      </trkpt>
      <trkpt lat="49.36858" lon="-1.07654">
        <ele>14.3</ele>
        <time>2020-06-16T10:34:37Z</time>
      </trkpt>
      <trkpt lat="49.3686" lon="-1.07654">
        <ele>14.3</ele>
        <time>2020-06-16T10:35:46Z</time>
      </trkpt>
      <trkpt lat="49.36861" lon="-1.07654">
        <ele>14.3</ele>
        <time>2020-06-16T10:35:47Z</time>
      </trkpt>
      <trkpt lat="49.36862" lon="-1.07654">
        <ele>14.3</ele>
        <time>2020-06-16T10:35:48Z</time>
      </trkpt>
      <trkpt lat="49.36862" lon="-1.07654">
        <ele>14.3</ele>
        <time>2020-06-16T10:35:49Z</time>
      </trkpt>
      <trkpt lat="49.36863" lon="-1.07654">
        <ele>14.3</ele>
        <time>2020-06-16T10:35:50Z</time>
      </trkpt>
      <trkpt lat="49.36863" lon="-1.07654">
        <ele>14.3</ele>
        <time>2020-06-16T10:35:51Z</time>
      </trkpt>
      <trkpt lat="49.36863" lon="-1.07654">
        <ele>14.3</ele>
        <time>2020-06-16T10:35:52Z</time>
      </trkpt>
      <trkpt lat="49.36862" lon="-1.07653">
        <ele>14.3</ele>
        <time>2020-06-16T10:35:53Z</time>
      </trkpt>
      <trkpt lat="49.36862" lon="-1.07654">
        <ele>14.3</ele>
        <time>2020-06-16T10:35:54Z</time>
      </trkpt>
      <trkpt lat="49.36861" lon="-1.07655">
        <ele>14.3</ele>
        <time>2020-06-16T10:35:55Z</time>
      </trkpt>
      <trkpt lat="49.36861" lon="-1.07655">
        <ele>14.3</ele>
        <time>2020-06-16T10:35:56Z</time>
      </trkpt>
      <trkpt lat="49.36861" lon="-1.07656">
        <ele>14.3</ele>
        <time>2020-06-16T10:35:57Z</time>
      </trkpt>
      <trkpt lat="49.3686" lon="-1.07656">
        <ele>14.3</ele>
        <time>2020-06-16T10:35:58Z</time>
      </trkpt>
      <trkpt lat="49.36859" lon="-1.07657">
        <ele>14.3</ele>
        <time>2020-06-16T10:35:59Z</time>
      </trkpt>
      <trkpt lat="49.36858" lon="-1.07656">
        <ele>14.3</ele>
        <time>2020-06-16T10:36:00Z</time>
      </trkpt>
      <trkpt lat="49.36856" lon="-1.07656">
        <ele>14.3</ele>
        <time>2020-06-16T10:36:01Z</time>
      </trkpt>
      <trkpt lat="49.36856" lon="-1.07655">
        <ele>14.3</ele>
        <time>2020-06-16T10:36:02Z</time>
      </trkpt>
      <trkpt lat="49.36856" lon="-1.07655">
        <ele>14.3</ele>
        <time>2020-06-16T10:36:03Z</time>
      </trkpt>
      <trkpt lat="49.36856" lon="-1.07655">
        <ele>14.3</ele>
        <time>2020-06-16T10:36:04Z</time>
      </trkpt>
      <trkpt lat="49.36854" lon="-1.07634">
        <ele>14.5</ele>
        <time>2020-06-16T10:39:31Z</time>
      </trkpt>
      <trkpt lat="49.36854" lon="-1.07632">
        <ele>14.5</ele>
        <time>2020-06-16T10:39:32Z</time>
      </trkpt>
      <trkpt lat="49.36854" lon="-1.07632">
        <ele>14.5</ele>
        <time>2020-06-16T10:39:33Z</time>
      </trkpt>
      <trkpt lat="49.36854" lon="-1.07631">
        <ele>14.5</ele>
        <time>2020-06-16T10:39:34Z</time>
      </trkpt>
      <trkpt lat="49.36854" lon="-1.07631">
        <ele>14.5</ele>
        <time>2020-06-16T10:39:35Z</time>
      </trkpt>
      <trkpt lat="49.36854" lon="-1.0763">
        <ele>14.5</ele>
        <time>2020-06-16T10:39:36Z</time>
      </trkpt>
      <trkpt lat="49.36853" lon="-1.0763">
        <ele>14.5</ele>
        <time>2020-06-16T10:39:37Z</time>
      </trkpt>
      <trkpt lat="49.36853" lon="-1.0763">
        <ele>14.5</ele>
        <time>2020-06-16T10:39:38Z</time>
      </trkpt>
      <trkpt lat="49.36853" lon="-1.0763">
        <ele>14.5</ele>
        <time>2020-06-16T10:39:39Z</time>
      </trkpt>
      <trkpt lat="49.36853" lon="-1.0763">
        <ele>14.5</ele>
        <time>2020-06-16T10:39:40Z</time>
      </trkpt>
      <trkpt lat="49.36852" lon="-1.0763">
        <ele>14.5</ele>
        <time>2020-06-16T10:39:41Z</time>
      </trkpt>
      <trkpt lat="49.36852" lon="-1.07629">
        <ele>14.5</ele>
        <time>2020-06-16T10:39:42Z</time>
      </trkpt>
      <trkpt lat="49.36852" lon="-1.07629">
        <ele>14.5</ele>
        <time>2020-06-16T10:39:43Z</time>
      </trkpt>
      <trkpt lat="49.36851" lon="-1.07629">
        <ele>14.5</ele>
        <time>2020-06-16T10:39:44Z</time>
      </trkpt>
      <trkpt lat="49.36851" lon="-1.07629">
        <ele>14.5</ele>
        <time>2020-06-16T10:39:45Z</time>
      </trkpt>
      <trkpt lat="49.36851" lon="-1.07629">
        <ele>14.5</ele>
        <time>2020-06-16T10:39:46Z</time>
      </trkpt>
      <trkpt lat="49.3685" lon="-1.07629">
        <ele>14.5</ele>
        <time>2020-06-16T10:39:47Z</time>
      </trkpt>
      <trkpt lat="49.3685" lon="-1.07629">
        <ele>14.5</ele>
        <time>2020-06-16T10:39:48Z</time>
      </trkpt>
      <trkpt lat="49.3685" lon="-1.07628">
        <ele>14.5</ele>
        <time>2020-06-16T10:43:30Z</time>
      </trkpt>
      <trkpt lat="49.36849" lon="-1.07628">
        <ele>14.5</ele>
        <time>2020-06-16T10:43:31Z</time>
      </trkpt>
      <trkpt lat="49.36849" lon="-1.07628">
        <ele>14.5</ele>
        <time>2020-06-16T10:43:32Z</time>
      </trkpt>
      <trkpt lat="49.36849" lon="-1.07628">
        <ele>14.5</ele>
        <time>2020-06-16T10:43:33Z</time>
      </trkpt>
      <trkpt lat="49.36848" lon="-1.07628">
        <ele>14.5</ele>
        <time>2020-06-16T10:43:34Z</time>
      </trkpt>
      <trkpt lat="49.36848" lon="-1.07628">
        <ele>14.5</ele>
        <time>2020-06-16T10:43:35Z</time>
      </trkpt>
      <trkpt lat="49.36848" lon="-1.07627">
        <ele>14.6</ele>
        <time>2020-06-16T10:43:36Z</time>
      </trkpt>
      <trkpt lat="49.36849" lon="-1.07626">
        <ele>14.6</ele>
        <time>2020-06-16T10:43:37Z</time>
      </trkpt>
      <trkpt lat="49.36851" lon="-1.07626">
        <ele>14.6</ele>
        <time>2020-06-16T10:43:38Z</time>
      </trkpt>
      <trkpt lat="49.36851" lon="-1.07625">
        <ele>14.6</ele>
        <time>2020-06-16T10:43:39Z</time>
      </trkpt>
      <trkpt lat="49.36851" lon="-1.07625">
        <ele>14.6</ele>
        <time>2020-06-16T10:43:40Z</time>
      </trkpt>
      <trkpt lat="49.36852" lon="-1.07625">
        <ele>14.6</ele>
        <time>2020-06-16T10:43:41Z</time>
      </trkpt>
      <trkpt lat="49.36852" lon="-1.07626">
        <ele>14.6</ele>
        <time>2020-06-16T10:43:42Z</time>
      </trkpt>
      <trkpt lat="49.36852" lon="-1.07626">
        <ele>14.6</ele>
        <time>2020-06-16T10:43:43Z</time>
      </trkpt>
      <trkpt lat="49.36852" lon="-1.07626">
        <ele>14.6</ele>
        <time>2020-06-16T10:43:44Z</time>
      </trkpt>
      <trkpt lat="49.36852" lon="-1.07625">
        <ele>14.6</ele>
        <time>2020-06-16T10:43:45Z</time>
      </trkpt>
      <trkpt lat="49.36852" lon="-1.07625">
        <ele>14.6</ele>
        <time>2020-06-16T10:43:46Z</time>
      </trkpt>
      <trkpt lat="49.36852" lon="-1.07625">
        <ele>14.6</ele>
        <time>2020-06-16T10:43:47Z</time>
      </trkpt>
      <trkpt lat="49.36853" lon="-1.07625">
        <ele>14.6</ele>
        <time>2020-06-16T10:43:48Z</time>
      </trkpt>
      <trkpt lat="49.36852" lon="-1.07624">
        <ele>14.6</ele>
        <time>2020-06-16T10:43:49Z</time>
      </trkpt>
      <trkpt lat="49.36852" lon="-1.07624">
        <ele>14.6</ele>
        <time>2020-06-16T10:43:50Z</time>
      </trkpt>
      <trkpt lat="49.3685" lon="-1.0764">
        <ele>14.4</ele>
        <time>2020-06-16T10:49:48Z</time>
      </trkpt>
      <trkpt lat="49.36851" lon="-1.07641">
        <ele>14.4</ele>
        <time>2020-06-16T10:49:49Z</time>
      </trkpt>
      <trkpt lat="49.36851" lon="-1.07641">
        <ele>14.4</ele>
        <time>2020-06-16T10:49:50Z</time>
      </trkpt>
      <trkpt lat="49.36851" lon="-1.0764">
        <ele>14.4</ele>
        <time>2020-06-16T10:49:51Z</time>
      </trkpt>
      <trkpt lat="49.36851" lon="-1.07641">
        <ele>14.4</ele>
        <time>2020-06-16T10:49:52Z</time>
      </trkpt>
      <trkpt lat="49.36851" lon="-1.07641">
        <ele>14.4</ele>
        <time>2020-06-16T10:49:53Z</time>
      </trkpt>
      <trkpt lat="49.36852" lon="-1.07641">
        <ele>14.4</ele>
        <time>2020-06-16T10:49:54Z</time>
      </trkpt>
      <trkpt lat="49.36852" lon="-1.07641">
        <ele>14.4</ele>
        <time>2020-06-16T10:49:55Z</time>
      </trkpt>
      <trkpt lat="49.36852" lon="-1.07641">
        <ele>14.4</ele>
        <time>2020-06-16T10:49:56Z</time>
      </trkpt>
      <trkpt lat="49.36852" lon="-1.07641">
        <ele>14.4</ele>
        <time>2020-06-16T10:49:57Z</time>
      </trkpt>
      <trkpt lat="49.36852" lon="-1.07641">
        <ele>14.4</ele>
        <time>2020-06-16T10:49:58Z</time>
      </trkpt>
      <trkpt lat="49.36851" lon="-1.07642">
        <ele>14.4</ele>
        <time>2020-06-16T10:49:59Z</time>
      </trkpt>
      <trkpt lat="49.36851" lon="-1.07642">
        <ele>14.4</ele>
        <time>2020-06-16T10:50:00Z</time>
      </trkpt>
      <trkpt lat="49.36852" lon="-1.07643">
        <ele>14.4</ele>
        <time>2020-06-16T10:50:01Z</time>
      </trkpt>
      <trkpt lat="49.36853" lon="-1.07641">
        <ele>14.4</ele>
        <time>2020-06-16T10:59:38Z</time>
      </trkpt>
      <trkpt lat="49.36852" lon="-1.07641">
        <ele>14.4</ele>
        <time>2020-06-16T10:59:39Z</time>
      </trkpt>
      <trkpt lat="49.36853" lon="-1.0764">
        <ele>14.4</ele>
        <time>2020-06-16T10:59:40Z</time>
      </trkpt>
      <trkpt lat="49.36853" lon="-1.0764">
        <ele>14.4</ele>
        <time>2020-06-16T10:59:41Z</time>
      </trkpt>
      <trkpt lat="49.36853" lon="-1.0764">
        <ele>14.4</ele>
        <time>2020-06-16T10:59:42Z</time>
      </trkpt>
      <trkpt lat="49.36853" lon="-1.0764">
        <ele>14.4</ele>
        <time>2020-06-16T10:59:43Z</time>
      </trkpt>
      <trkpt lat="49.36853" lon="-1.07641">
        <ele>14.4</ele>
        <time>2020-06-16T10:59:44Z</time>
      </trkpt>
      <trkpt lat="49.36853" lon="-1.0764">
        <ele>14.4</ele>
        <time>2020-06-16T10:59:45Z</time>
      </trkpt>
      <trkpt lat="49.36853" lon="-1.0764">
        <ele>14.4</ele>
        <time>2020-06-16T10:59:46Z</time>
      </trkpt>
      <trkpt lat="49.36853" lon="-1.0764">
        <ele>14.4</ele>
        <time>2020-06-16T10:59:47Z</time>
      </trkpt>
      <trkpt lat="49.36853" lon="-1.0764">
        <ele>14.4</ele>
        <time>2020-06-16T10:59:48Z</time>
      </trkpt>
      <trkpt lat="49.36853" lon="-1.0764">
        <ele>14.4</ele>
        <time>2020-06-16T10:59:49Z</time>
      </trkpt>
      <trkpt lat="49.36853" lon="-1.0764">
        <ele>14.4</ele>
        <time>2020-06-16T10:59:50Z</time>
      </trkpt>
      <trkpt lat="49.36848" lon="-1.07641">
        <ele>14.4</ele>
        <time>2020-06-16T11:00:07Z</time>
      </trkpt>
      <trkpt lat="49.36848" lon="-1.07641">
        <ele>14.4</ele>
        <time>2020-06-16T11:00:08Z</time>
      </trkpt>
      <trkpt lat="49.36848" lon="-1.07641">
        <ele>14.4</ele>
        <time>2020-06-16T11:00:09Z</time>
      </trkpt>
      <trkpt lat="49.36848" lon="-1.07641">
        <ele>14.4</ele>
        <time>2020-06-16T11:00:10Z</time>
      </trkpt>
      <trkpt lat="49.36849" lon="-1.07642">
        <ele>14.4</ele>
        <time>2020-06-16T11:00:11Z</time>
      </trkpt>
      <trkpt lat="49.36849" lon="-1.07642">
        <ele>14.4</ele>
        <time>2020-06-16T11:00:12Z</time>
      </trkpt>
      <trkpt lat="49.36848" lon="-1.07642">
        <ele>14.4</ele>
        <time>2020-06-16T11:00:13Z</time>
      </trkpt>
      <trkpt lat="49.36848" lon="-1.07642">
        <ele>14.4</ele>
        <time>2020-06-16T11:00:14Z</time>
      </trkpt>
      <trkpt lat="49.36849" lon="-1.07642">
        <ele>14.4</ele>
        <time>2020-06-16T11:00:15Z</time>
      </trkpt>
      <trkpt lat="49.36849" lon="-1.07642">
        <ele>14.4</ele>
        <time>2020-06-16T11:00:16Z</time>
      </trkpt>
      <trkpt lat="49.36848" lon="-1.07642">
        <ele>14.4</ele>
        <time>2020-06-16T11:00:17Z</time>
      </trkpt>
      <trkpt lat="49.36849" lon="-1.07642">
        <ele>14.4</ele>
        <time>2020-06-16T11:00:18Z</time>
      </trkpt>
      <trkpt lat="49.36849" lon="-1.07643">
        <ele>14.4</ele>
        <time>2020-06-16T11:00:19Z</time>
      </trkpt>
      <trkpt lat="49.36848" lon="-1.07643">
        <ele>14.4</ele>
        <time>2020-06-16T11:00:20Z</time>
      </trkpt>
      <trkpt lat="49.36848" lon="-1.07643">
        <ele>14.4</ele>
        <time>2020-06-16T11:00:21Z</time>
      </trkpt>
      <trkpt lat="49.36847" lon="-1.07643">
        <ele>14.4</ele>
        <time>2020-06-16T11:00:22Z</time>
      </trkpt>
      <trkpt lat="49.36847" lon="-1.07643">
        <ele>14.4</ele>
        <time>2020-06-16T11:00:23Z</time>
      </trkpt>
      <trkpt lat="49.36847" lon="-1.07643">
        <ele>14.4</ele>
        <time>2020-06-16T11:00:24Z</time>
      </trkpt>
      <trkpt lat="49.36847" lon="-1.07643">
        <ele>14.4</ele>
        <time>2020-06-16T11:00:25Z</time>
      </trkpt>
      <trkpt lat="49.36847" lon="-1.07643">
        <ele>14.4</ele>
        <time>2020-06-16T11:00:26Z</time>
      </trkpt>
      <trkpt lat="49.36847" lon="-1.07643">
        <ele>14.4</ele>
        <time>2020-06-16T11:00:27Z</time>
      </trkpt>
      <trkpt lat="49.36848" lon="-1.07643">
        <ele>14.4</ele>
        <time>2020-06-16T11:00:28Z</time>
      </trkpt>
      <trkpt lat="49.36848" lon="-1.07643">
        <ele>14.4</ele>
        <time>2020-06-16T11:00:29Z</time>
      </trkpt>
      <trkpt lat="49.36848" lon="-1.07644">
        <ele>14.4</ele>
        <time>2020-06-16T11:00:30Z</time>
      </trkpt>
      <trkpt lat="49.36848" lon="-1.07644">
        <ele>14.4</ele>
        <time>2020-06-16T11:00:31Z</time>
      </trkpt>
      <trkpt lat="49.36848" lon="-1.07644">
        <ele>14.4</ele>
        <time>2020-06-16T11:00:32Z</time>
      </trkpt>
      <trkpt lat="49.36848" lon="-1.07644">
        <ele>14.4</ele>
        <time>2020-06-16T11:00:33Z</time>
      </trkpt>
      <trkpt lat="49.36848" lon="-1.07644">
        <ele>14.4</ele>
        <time>2020-06-16T11:00:34Z</time>
      </trkpt>
      <trkpt lat="49.36848" lon="-1.07644">
        <ele>14.4</ele>
        <time>2020-06-16T11:00:35Z</time>
      </trkpt>
      <trkpt lat="49.36847" lon="-1.07644">
        <ele>14.4</ele>
        <time>2020-06-16T11:00:36Z</time>
      </trkpt>
      <trkpt lat="49.3685" lon="-1.07647">
        <ele>14.4</ele>
        <time>2020-06-16T11:03:23Z</time>
      </trkpt>
      <trkpt lat="49.36849" lon="-1.07647">
        <ele>14.4</ele>
        <time>2020-06-16T11:03:24Z</time>
      </trkpt>
      <trkpt lat="49.36849" lon="-1.07647">
        <ele>14.4</ele>
        <time>2020-06-16T11:03:25Z</time>
      </trkpt>
      <trkpt lat="49.36849" lon="-1.07647">
        <ele>14.4</ele>
        <time>2020-06-16T11:03:26Z</time>
      </trkpt>
      <trkpt lat="49.36849" lon="-1.07647">
        <ele>14.4</ele>
        <time>2020-06-16T11:03:27Z</time>
      </trkpt>
      <trkpt lat="49.36849" lon="-1.07647">
        <ele>14.4</ele>
        <time>2020-06-16T11:03:28Z</time>
      </trkpt>
      <trkpt lat="49.36849" lon="-1.07647">
        <ele>14.4</ele>
        <time>2020-06-16T11:03:29Z</time>
      </trkpt>
      <trkpt lat="49.36849" lon="-1.07648">
        <ele>14.4</ele>
        <time>2020-06-16T11:03:30Z</time>
      </trkpt>
      <trkpt lat="49.36849" lon="-1.07648">
        <ele>14.4</ele>
        <time>2020-06-16T11:03:31Z</time>
      </trkpt>
      <trkpt lat="49.36849" lon="-1.07648">
        <ele>14.4</ele>
        <time>2020-06-16T11:03:32Z</time>
      </trkpt>
      <trkpt lat="49.36849" lon="-1.07648">
        <ele>14.4</ele>
        <time>2020-06-16T11:03:33Z</time>
      </trkpt>
      <trkpt lat="49.36849" lon="-1.07648">
        <ele>14.4</ele>
        <time>2020-06-16T11:03:34Z</time>
      </trkpt>
      <trkpt lat="49.36849" lon="-1.07648">
        <ele>14.4</ele>
        <time>2020-06-16T11:03:35Z</time>
      </trkpt>
      <trkpt lat="49.36849" lon="-1.07648">
        <ele>14.4</ele>
        <time>2020-06-16T11:03:36Z</time>
      </trkpt>
      <trkpt lat="49.36849" lon="-1.07648">
        <ele>14.4</ele>
        <time>2020-06-16T11:03:37Z</time>
      </trkpt>
      <trkpt lat="49.3685" lon="-1.07648">
        <ele>14.4</ele>
        <time>2020-06-16T11:03:38Z</time>
      </trkpt>
      <trkpt lat="49.3685" lon="-1.07648">
        <ele>14.4</ele>
        <time>2020-06-16T11:03:39Z</time>
      </trkpt>
      <trkpt lat="49.3685" lon="-1.07648">
        <ele>14.4</ele>
        <time>2020-06-16T11:03:40Z</time>
      </trkpt>
      <trkpt lat="49.3685" lon="-1.07648">
        <ele>14.4</ele>
        <time>2020-06-16T11:03:41Z</time>
      </trkpt>
      <trkpt lat="49.3685" lon="-1.07648">
        <ele>14.4</ele>
        <time>2020-06-16T11:03:42Z</time>
      </trkpt>
      <trkpt lat="49.36861" lon="-1.07636">
        <ele>14.4</ele>
        <time>2020-06-16T11:04:49Z</time>
      </trkpt>
      <trkpt lat="49.36862" lon="-1.07636">
        <ele>14.4</ele>
        <time>2020-06-16T11:04:50Z</time>
      </trkpt>
      <trkpt lat="49.36863" lon="-1.07636">
        <ele>14.5</ele>
        <time>2020-06-16T11:04:51Z</time>
      </trkpt>
      <trkpt lat="49.36863" lon="-1.07635">
        <ele>14.5</ele>
        <time>2020-06-16T11:04:52Z</time>
      </trkpt>
      <trkpt lat="49.36863" lon="-1.07635">
        <ele>14.5</ele>
        <time>2020-06-16T11:04:53Z</time>
      </trkpt>
      <trkpt lat="49.36862" lon="-1.07635">
        <ele>14.5</ele>
        <time>2020-06-16T11:04:54Z</time>
      </trkpt>
      <trkpt lat="49.36862" lon="-1.07635">
        <ele>14.5</ele>
        <time>2020-06-16T11:04:55Z</time>
      </trkpt>
      <trkpt lat="49.36862" lon="-1.07635">
        <ele>14.5</ele>
        <time>2020-06-16T11:04:56Z</time>
      </trkpt>
      <trkpt lat="49.36862" lon="-1.07635">
        <ele>14.5</ele>
        <time>2020-06-16T11:04:57Z</time>
      </trkpt>
      <trkpt lat="49.36861" lon="-1.07635">
        <ele>14.5</ele>
        <time>2020-06-16T11:04:58Z</time>
      </trkpt>
      <trkpt lat="49.36861" lon="-1.07635">
        <ele>14.5</ele>
        <time>2020-06-16T11:04:59Z</time>
      </trkpt>
      <trkpt lat="49.36861" lon="-1.07635">
        <ele>14.5</ele>
        <time>2020-06-16T11:05:00Z</time>
      </trkpt>
      <trkpt lat="49.36861" lon="-1.07635">
        <ele>14.5</ele>
        <time>2020-06-16T11:05:01Z</time>
      </trkpt>
      <trkpt lat="49.36861" lon="-1.07635">
        <ele>14.5</ele>
        <time>2020-06-16T11:05:02Z</time>
      </trkpt>
      <trkpt lat="49.36851" lon="-1.07638">
        <ele>14.4</ele>
        <time>2020-06-16T11:06:14Z</time>
      </trkpt>
      <trkpt lat="49.3685" lon="-1.07638">
        <ele>14.4</ele>
        <time>2020-06-16T11:06:15Z</time>
      </trkpt>
      <trkpt lat="49.3685" lon="-1.07638">
        <ele>14.4</ele>
        <time>2020-06-16T11:06:16Z</time>
      </trkpt>
      <trkpt lat="49.3685" lon="-1.07638">
        <ele>14.4</ele>
        <time>2020-06-16T11:06:17Z</time>
      </trkpt>
      <trkpt lat="49.3685" lon="-1.07638">
        <ele>14.4</ele>
        <time>2020-06-16T11:06:18Z</time>
      </trkpt>
      <trkpt lat="49.3685" lon="-1.07638">
        <ele>14.4</ele>
        <time>2020-06-16T11:06:19Z</time>
      </trkpt>
      <trkpt lat="49.3685" lon="-1.07638">
        <ele>14.4</ele>
        <time>2020-06-16T11:06:20Z</time>
      </trkpt>
      <trkpt lat="49.3685" lon="-1.07638">
        <ele>14.4</ele>
        <time>2020-06-16T11:06:21Z</time>
      </trkpt>
      <trkpt lat="49.36851" lon="-1.07638">
        <ele>14.4</ele>
        <time>2020-06-16T11:06:22Z</time>
      </trkpt>
      <trkpt lat="49.3685" lon="-1.07638">
        <ele>14.4</ele>
        <time>2020-06-16T11:06:23Z</time>
      </trkpt>
      <trkpt lat="49.3685" lon="-1.07637">
        <ele>14.4</ele>
        <time>2020-06-16T11:06:24Z</time>
      </trkpt>
      <trkpt lat="49.36849" lon="-1.07636">
        <ele>14.4</ele>
        <time>2020-06-16T11:06:25Z</time>
      </trkpt>
      <trkpt lat="49.36849" lon="-1.07635">
        <ele>14.5</ele>
        <time>2020-06-16T11:06:26Z</time>
      </trkpt>
      <trkpt lat="49.36849" lon="-1.07634">
        <ele>14.5</ele>
        <time>2020-06-16T11:06:27Z</time>
      </trkpt>
      <trkpt lat="49.36849" lon="-1.07633">
        <ele>14.5</ele>
        <time>2020-06-16T11:06:28Z</time>
      </trkpt>
      <trkpt lat="49.36849" lon="-1.07632">
        <ele>14.5</ele>
        <time>2020-06-16T11:06:29Z</time>
      </trkpt>
      <trkpt lat="49.36849" lon="-1.07632">
        <ele>14.5</ele>
        <time>2020-06-16T11:06:30Z</time>
      </trkpt>
      <trkpt lat="49.3685" lon="-1.07632">
        <ele>14.5</ele>
        <time>2020-06-16T11:06:31Z</time>
      </trkpt>
      <trkpt lat="49.3685" lon="-1.07632">
        <ele>14.5</ele>
        <time>2020-06-16T11:06:32Z</time>
      </trkpt>
      <trkpt lat="49.3685" lon="-1.07632">
        <ele>14.5</ele>
        <time>2020-06-16T11:06:33Z</time>
      </trkpt>
      <trkpt lat="49.3685" lon="-1.07632">
        <ele>14.5</ele>
        <time>2020-06-16T11:06:34Z</time>
      </trkpt>
      <trkpt lat="49.3685" lon="-1.07632">
        <ele>14.5</ele>
        <time>2020-06-16T11:06:35Z</time>
      </trkpt>
      <trkpt lat="49.3685" lon="-1.07632">
        <ele>14.5</ele>
        <time>2020-06-16T11:06:36Z</time>
      </trkpt>
      <trkpt lat="49.3685" lon="-1.07632">
        <ele>14.5</ele>
        <time>2020-06-16T11:06:37Z</time>
      </trkpt>
      <trkpt lat="49.36849" lon="-1.07633">
        <ele>14.5</ele>
        <time>2020-06-16T11:06:38Z</time>
      </trkpt>
      <trkpt lat="49.36849" lon="-1.07633">
        <ele>14.5</ele>
        <time>2020-06-16T11:06:39Z</time>
      </trkpt>
      <trkpt lat="49.36849" lon="-1.07633">
        <ele>14.5</ele>
        <time>2020-06-16T11:06:40Z</time>
      </trkpt>
      <trkpt lat="49.3685" lon="-1.07634">
        <ele>14.5</ele>
        <time>2020-06-16T11:06:41Z</time>
      </trkpt>
      <trkpt lat="49.3685" lon="-1.07634">
        <ele>14.5</ele>
        <time>2020-06-16T11:06:42Z</time>
      </trkpt>
      <trkpt lat="49.3685" lon="-1.07634">
        <ele>14.5</ele>
        <time>2020-06-16T11:06:43Z</time>
      </trkpt>
      <trkpt lat="49.3685" lon="-1.07634">
        <ele>14.5</ele>
        <time>2020-06-16T11:06:44Z</time>
      </trkpt>
      <trkpt lat="49.3685" lon="-1.07634">
        <ele>14.5</ele>
        <time>2020-06-16T11:06:45Z</time>
      </trkpt>
      <trkpt lat="49.36854" lon="-1.07632">
        <ele>14.5</ele>
        <time>2020-06-16T11:10:20Z</time>
      </trkpt>
      <trkpt lat="49.36854" lon="-1.07632">
        <ele>14.5</ele>
        <time>2020-06-16T11:10:21Z</time>
      </trkpt>
      <trkpt lat="49.36854" lon="-1.07632">
        <ele>14.5</ele>
        <time>2020-06-16T11:10:22Z</time>
      </trkpt>
      <trkpt lat="49.36854" lon="-1.07632">
        <ele>14.5</ele>
        <time>2020-06-16T11:10:23Z</time>
      </trkpt>
      <trkpt lat="49.36854" lon="-1.07633">
        <ele>14.5</ele>
        <time>2020-06-16T11:10:24Z</time>
      </trkpt>
      <trkpt lat="49.36854" lon="-1.07632">
        <ele>14.5</ele>
        <time>2020-06-16T11:10:25Z</time>
      </trkpt>
      <trkpt lat="49.36855" lon="-1.07632">
        <ele>14.5</ele>
        <time>2020-06-16T11:10:26Z</time>
      </trkpt>
      <trkpt lat="49.36854" lon="-1.07631">
        <ele>14.5</ele>
        <time>2020-06-16T11:10:27Z</time>
      </trkpt>
      <trkpt lat="49.36854" lon="-1.07631">
        <ele>14.5</ele>
        <time>2020-06-16T11:10:28Z</time>
      </trkpt>
      <trkpt lat="49.36854" lon="-1.0763">
        <ele>14.5</ele>
        <time>2020-06-16T11:10:29Z</time>
      </trkpt>
      <trkpt lat="49.36854" lon="-1.0763">
        <ele>14.5</ele>
        <time>2020-06-16T11:10:30Z</time>
      </trkpt>
      <trkpt lat="49.36854" lon="-1.07631">
        <ele>14.5</ele>
        <time>2020-06-16T11:10:31Z</time>
      </trkpt>
      <trkpt lat="49.36854" lon="-1.0763">
        <ele>14.5</ele>
        <time>2020-06-16T11:10:32Z</time>
      </trkpt>
      <trkpt lat="49.36854" lon="-1.0763">
        <ele>14.5</ele>
        <time>2020-06-16T11:10:33Z</time>
      </trkpt>
      <trkpt lat="49.36854" lon="-1.0763">
        <ele>14.5</ele>
        <time>2020-06-16T11:10:34Z</time>
      </trkpt>
      <trkpt lat="49.36854" lon="-1.0763">
        <ele>14.5</ele>
        <time>2020-06-16T11:10:35Z</time>
      </trkpt>
      <trkpt lat="49.36854" lon="-1.07629">
        <ele>14.5</ele>
        <time>2020-06-16T11:10:36Z</time>
      </trkpt>
      <trkpt lat="49.36841" lon="-1.07638">
        <ele>14.4</ele>
        <time>2020-06-16T11:11:24Z</time>
      </trkpt>
      <trkpt lat="49.36841" lon="-1.07639">
        <ele>14.4</ele>
        <time>2020-06-16T11:11:25Z</time>
      </trkpt>
      <trkpt lat="49.36841" lon="-1.07639">
        <ele>14.4</ele>
        <time>2020-06-16T11:11:26Z</time>
      </trkpt>
      <trkpt lat="49.36841" lon="-1.0764">
        <ele>14.4</ele>
        <time>2020-06-16T11:11:27Z</time>
      </trkpt>
      <trkpt lat="49.3684" lon="-1.07641">
        <ele>14.4</ele>
        <time>2020-06-16T11:11:28Z</time>
      </trkpt>
      <trkpt lat="49.3684" lon="-1.07641">
        <ele>14.4</ele>
        <time>2020-06-16T11:11:29Z</time>
      </trkpt>
      <trkpt lat="49.36841" lon="-1.07641">
        <ele>14.4</ele>
        <time>2020-06-16T11:11:30Z</time>
      </trkpt>
      <trkpt lat="49.36841" lon="-1.07641">
        <ele>14.4</ele>
        <time>2020-06-16T11:11:31Z</time>
      </trkpt>
      <trkpt lat="49.36841" lon="-1.07641">
        <ele>14.4</ele>
        <time>2020-06-16T11:11:32Z</time>
      </trkpt>
      <trkpt lat="49.36841" lon="-1.07641">
        <ele>14.4</ele>
        <time>2020-06-16T11:11:33Z</time>
      </trkpt>
      <trkpt lat="49.36841" lon="-1.07641">
        <ele>14.4</ele>
        <time>2020-06-16T11:11:34Z</time>
      </trkpt>
      <trkpt lat="49.36842" lon="-1.0764">
        <ele>14.4</ele>
        <time>2020-06-16T11:11:35Z</time>
      </trkpt>
      <trkpt lat="49.36842" lon="-1.0764">
        <ele>14.4</ele>
        <time>2020-06-16T11:11:36Z</time>
      </trkpt>
      <trkpt lat="49.36842" lon="-1.07641">
        <ele>14.4</ele>
        <time>2020-06-16T11:11:37Z</time>
      </trkpt>
      <trkpt lat="49.36842" lon="-1.07641">
        <ele>14.4</ele>
        <time>2020-06-16T11:11:38Z</time>
      </trkpt>
      <trkpt lat="49.36841" lon="-1.07641">
        <ele>14.4</ele>
        <time>2020-06-16T11:11:39Z</time>
      </trkpt>
      <trkpt lat="49.36841" lon="-1.07641">
        <ele>14.4</ele>
        <time>2020-06-16T11:11:40Z</time>
      </trkpt>
      <trkpt lat="49.36841" lon="-1.07641">
        <ele>14.4</ele>
        <time>2020-06-16T11:11:41Z</time>
      </trkpt>
      <trkpt lat="49.36841" lon="-1.07641">
        <ele>14.4</ele>
        <time>2020-06-16T11:11:42Z</time>
      </trkpt>
      <trkpt lat="49.36841" lon="-1.07641">
        <ele>14.4</ele>
        <time>2020-06-16T11:11:43Z</time>
      </trkpt>
      <trkpt lat="49.36841" lon="-1.07641">
        <ele>14.4</ele>
        <time>2020-06-16T11:11:44Z</time>
      </trkpt>
      <trkpt lat="49.36841" lon="-1.07641">
        <ele>14.4</ele>
        <time>2020-06-16T11:11:45Z</time>
      </trkpt>
      <trkpt lat="49.36841" lon="-1.07641">
        <ele>14.4</ele>
        <time>2020-06-16T11:11:46Z</time>
      </trkpt>
      <trkpt lat="49.36841" lon="-1.07641">
        <ele>14.4</ele>
        <time>2020-06-16T11:11:47Z</time>
      </trkpt>
      <trkpt lat="49.36841" lon="-1.07641">
        <ele>14.4</ele>
        <time>2020-06-16T11:11:48Z</time>
      </trkpt>
      <trkpt lat="49.36841" lon="-1.07642">
        <ele>14.4</ele>
        <time>2020-06-16T11:11:49Z</time>
      </trkpt>
      <trkpt lat="49.36844" lon="-1.07639">
        <ele>14.4</ele>
        <time>2020-06-16T11:12:00Z</time>
      </trkpt>
      <trkpt lat="49.36845" lon="-1.07638">
        <ele>14.4</ele>
        <time>2020-06-16T11:12:01Z</time>
      </trkpt>
      <trkpt lat="49.36845" lon="-1.07639">
        <ele>14.4</ele>
        <time>2020-06-16T11:12:02Z</time>
      </trkpt>
      <trkpt lat="49.36845" lon="-1.07639">
        <ele>14.4</ele>
        <time>2020-06-16T11:12:03Z</time>
      </trkpt>
      <trkpt lat="49.36845" lon="-1.07639">
        <ele>14.4</ele>
        <time>2020-06-16T11:12:04Z</time>
      </trkpt>
      <trkpt lat="49.36845" lon="-1.07639">
        <ele>14.4</ele>
        <time>2020-06-16T11:12:05Z</time>
      </trkpt>
      <trkpt lat="49.36845" lon="-1.07639">
        <ele>14.4</ele>
        <time>2020-06-16T11:12:06Z</time>
      </trkpt>
      <trkpt lat="49.36845" lon="-1.07639">
        <ele>14.4</ele>
        <time>2020-06-16T11:12:07Z</time>
      </trkpt>
      <trkpt lat="49.36845" lon="-1.07639">
        <ele>14.4</ele>
        <time>2020-06-16T11:12:08Z</time>
      </trkpt>
      <trkpt lat="49.36845" lon="-1.07639">
        <ele>14.4</ele>
        <time>2020-06-16T11:12:09Z</time>
      </trkpt>
      <trkpt lat="49.36845" lon="-1.07639">
        <ele>14.4</ele>
        <time>2020-06-16T11:12:10Z</time>
      </trkpt>
      <trkpt lat="49.36845" lon="-1.07639">
        <ele>14.4</ele>
        <time>2020-06-16T11:12:11Z</time>
      </trkpt>
      <trkpt lat="49.36845" lon="-1.07639">
        <ele>14.4</ele>
        <time>2020-06-16T11:12:12Z</time>
      </trkpt>
      <trkpt lat="49.36845" lon="-1.07639">
        <ele>14.4</ele>
        <time>2020-06-16T11:12:13Z</time>
      </trkpt>
      <trkpt lat="49.3684" lon="-1.07638">
        <ele>14.4</ele>
        <time>2020-06-16T11:14:11Z</time>
      </trkpt>
      <trkpt lat="49.36839" lon="-1.07639">
        <ele>14.4</ele>
        <time>2020-06-16T11:14:12Z</time>
      </trkpt>
      <trkpt lat="49.3684" lon="-1.0764">
        <ele>14.4</ele>
        <time>2020-06-16T11:14:13Z</time>
      </trkpt>
      <trkpt lat="49.3684" lon="-1.07641">
        <ele>14.4</ele>
        <time>2020-06-16T11:14:14Z</time>
      </trkpt>
      <trkpt lat="49.36839" lon="-1.07642">
        <ele>14.4</ele>
        <time>2020-06-16T11:14:15Z</time>
      </trkpt>
      <trkpt lat="49.36839" lon="-1.07643">
        <ele>14.4</ele>
        <time>2020-06-16T11:14:16Z</time>
      </trkpt>
      <trkpt lat="49.36838" lon="-1.07643">
        <ele>14.4</ele>
        <time>2020-06-16T11:14:17Z</time>
      </trkpt>
      <trkpt lat="49.36838" lon="-1.07644">
        <ele>14.4</ele>
        <time>2020-06-16T11:14:18Z</time>
      </trkpt>
      <trkpt lat="49.36837" lon="-1.07644">
        <ele>14.4</ele>
        <time>2020-06-16T11:14:19Z</time>
      </trkpt>
      <trkpt lat="49.36836" lon="-1.07644">
        <ele>14.4</ele>
        <time>2020-06-16T11:14:20Z</time>
      </trkpt>
      <trkpt lat="49.36835" lon="-1.07645">
        <ele>14.3</ele>
        <time>2020-06-16T11:14:21Z</time>
      </trkpt>
      <trkpt lat="49.36834" lon="-1.07645">
        <ele>14.3</ele>
        <time>2020-06-16T11:14:22Z</time>
      </trkpt>
      <trkpt lat="49.36833" lon="-1.07646">
        <ele>14.3</ele>
        <time>2020-06-16T11:14:23Z</time>
      </trkpt>
      <trkpt lat="49.36833" lon="-1.07646">
        <ele>14.3</ele>
        <time>2020-06-16T11:14:24Z</time>
      </trkpt>
      <trkpt lat="49.36832" lon="-1.07647">
        <ele>14.3</ele>
        <time>2020-06-16T11:14:25Z</time>
      </trkpt>
      <trkpt lat="49.36832" lon="-1.07647">
        <ele>14.3</ele>
        <time>2020-06-16T11:14:26Z</time>
      </trkpt>
      <trkpt lat="49.36832" lon="-1.07647">
        <ele>14.3</ele>
        <time>2020-06-16T11:14:27Z</time>
      </trkpt>
      <trkpt lat="49.36832" lon="-1.07647">
        <ele>14.3</ele>
        <time>2020-06-16T11:14:28Z</time>
      </trkpt>
      <trkpt lat="49.36832" lon="-1.07647">
        <ele>14.3</ele>
        <time>2020-06-16T11:14:29Z</time>
      </trkpt>
      <trkpt lat="49.36832" lon="-1.07647">
        <ele>14.3</ele>
        <time>2020-06-16T11:14:30Z</time>
      </trkpt>
      <trkpt lat="49.36832" lon="-1.07647">
        <ele>14.3</ele>
        <time>2020-06-16T11:14:31Z</time>
      </trkpt>
      <trkpt lat="49.36832" lon="-1.07647">
        <ele>14.3</ele>
        <time>2020-06-16T11:14:32Z</time>
      </trkpt>
      <trkpt lat="49.36832" lon="-1.07647">
        <ele>14.3</ele>
        <time>2020-06-16T11:14:33Z</time>
      </trkpt>
      <trkpt lat="49.36832" lon="-1.07647">
        <ele>14.3</ele>
        <time>2020-06-16T11:14:34Z</time>
      </trkpt>
      <trkpt lat="49.36832" lon="-1.07647">
        <ele>14.3</ele>
        <time>2020-06-16T11:14:35Z</time>
      </trkpt>
      <trkpt lat="49.36831" lon="-1.07646">
        <ele>14.3</ele>
        <time>2020-06-16T11:14:36Z</time>
      </trkpt>
      <trkpt lat="49.36831" lon="-1.07647">
        <ele>14.3</ele>
        <time>2020-06-16T11:14:37Z</time>
      </trkpt>
      <trkpt lat="49.36845" lon="-1.07652">
        <ele>14.3</ele>
        <time>2020-06-16T11:17:28Z</time>
      </trkpt>
      <trkpt lat="49.36845" lon="-1.07652">
        <ele>14.3</ele>
        <time>2020-06-16T11:17:29Z</time>
      </trkpt>
      <trkpt lat="49.36845" lon="-1.07652">
        <ele>14.3</ele>
        <time>2020-06-16T11:17:30Z</time>
      </trkpt>
      <trkpt lat="49.36845" lon="-1.07652">
        <ele>14.3</ele>
        <time>2020-06-16T11:17:31Z</time>
      </trkpt>
      <trkpt lat="49.36845" lon="-1.07652">
        <ele>14.3</ele>
        <time>2020-06-16T11:17:32Z</time>
      </trkpt>
      <trkpt lat="49.36845" lon="-1.07652">
        <ele>14.3</ele>
        <time>2020-06-16T11:17:33Z</time>
      </trkpt>
      <trkpt lat="49.36845" lon="-1.07653">
        <ele>14.3</ele>
        <time>2020-06-16T11:17:34Z</time>
      </trkpt>
      <trkpt lat="49.36846" lon="-1.07653">
        <ele>14.3</ele>
        <time>2020-06-16T11:17:35Z</time>
      </trkpt>
      <trkpt lat="49.36846" lon="-1.07653">
        <ele>14.3</ele>
        <time>2020-06-16T11:17:36Z</time>
      </trkpt>
      <trkpt lat="49.36846" lon="-1.07653">
        <ele>14.3</ele>
        <time>2020-06-16T11:17:37Z</time>
      </trkpt>
      <trkpt lat="49.36846" lon="-1.07653">
        <ele>14.3</ele>
        <time>2020-06-16T11:17:38Z</time>
      </trkpt>
      <trkpt lat="49.36846" lon="-1.07653">
        <ele>14.3</ele>
        <time>2020-06-16T11:17:39Z</time>
      </trkpt>
      <trkpt lat="49.36845" lon="-1.07653">
        <ele>14.3</ele>
        <time>2020-06-16T11:17:40Z</time>
      </trkpt>
      <trkpt lat="49.36845" lon="-1.07653">
        <ele>14.3</ele>
        <time>2020-06-16T11:17:41Z</time>
      </trkpt>
      <trkpt lat="49.36845" lon="-1.07653">
        <ele>14.3</ele>
        <time>2020-06-16T11:17:42Z</time>
      </trkpt>
      <trkpt lat="49.36845" lon="-1.07653">
        <ele>14.3</ele>
        <time>2020-06-16T11:17:43Z</time>
      </trkpt>
      <trkpt lat="49.36845" lon="-1.07653">
        <ele>14.3</ele>
        <time>2020-06-16T11:17:44Z</time>
      </trkpt>
      <trkpt lat="49.36845" lon="-1.07653">
        <ele>14.3</ele>
        <time>2020-06-16T11:17:45Z</time>
      </trkpt>
      <trkpt lat="49.36846" lon="-1.07653">
        <ele>14.3</ele>
        <time>2020-06-16T11:17:46Z</time>
      </trkpt>
      <trkpt lat="49.36845" lon="-1.07653">
        <ele>14.3</ele>
        <time>2020-06-16T11:17:47Z</time>
      </trkpt>
      <trkpt lat="49.36845" lon="-1.07653">
        <ele>14.3</ele>
        <time>2020-06-16T11:17:48Z</time>
      </trkpt>
      <trkpt lat="49.36846" lon="-1.07653">
        <ele>14.3</ele>
        <time>2020-06-16T11:17:49Z</time>
      </trkpt>
      <trkpt lat="49.36846" lon="-1.07653">
        <ele>14.3</ele>
        <time>2020-06-16T11:17:50Z</time>
      </trkpt>
      <trkpt lat="49.36846" lon="-1.07652">
        <ele>14.3</ele>
        <time>2020-06-16T11:17:51Z</time>
      </trkpt>
      <trkpt lat="49.36846" lon="-1.07652">
        <ele>14.3</ele>
        <time>2020-06-16T11:17:52Z</time>
      </trkpt>
      <trkpt lat="49.36846" lon="-1.07652">
        <ele>14.3</ele>
        <time>2020-06-16T11:17:53Z</time>
      </trkpt>
      <trkpt lat="49.36846" lon="-1.07652">
        <ele>14.3</ele>
        <time>2020-06-16T11:17:54Z</time>
      </trkpt>
      <trkpt lat="49.36845" lon="-1.07652">
        <ele>14.3</ele>
        <time>2020-06-16T11:17:55Z</time>
      </trkpt>
      <trkpt lat="49.36845" lon="-1.07652">
        <ele>14.3</ele>
        <time>2020-06-16T11:17:56Z</time>
      </trkpt>
      <trkpt lat="49.36845" lon="-1.07653">
        <ele>14.3</ele>
        <time>2020-06-16T11:17:57Z</time>
      </trkpt>
      <trkpt lat="49.36845" lon="-1.07653">
        <ele>14.3</ele>
        <time>2020-06-16T11:17:58Z</time>
      </trkpt>
      <trkpt lat="49.36844" lon="-1.07653">
        <ele>14.3</ele>
        <time>2020-06-16T11:17:59Z</time>
      </trkpt>
      <trkpt lat="49.36844" lon="-1.07654">
        <ele>14.3</ele>
        <time>2020-06-16T11:18:00Z</time>
      </trkpt>
      <trkpt lat="49.36843" lon="-1.07654">
        <ele>14.3</ele>
        <time>2020-06-16T11:18:01Z</time>
      </trkpt>
      <trkpt lat="49.36843" lon="-1.07654">
        <ele>14.3</ele>
        <time>2020-06-16T11:18:02Z</time>
      </trkpt>
      <trkpt lat="49.36842" lon="-1.07654">
        <ele>14.3</ele>
        <time>2020-06-16T11:18:03Z</time>
      </trkpt>
      <trkpt lat="49.36842" lon="-1.07655">
        <ele>14.3</ele>
        <time>2020-06-16T11:18:04Z</time>
      </trkpt>
      <trkpt lat="49.36842" lon="-1.07655">
        <ele>14.3</ele>
        <time>2020-06-16T11:18:05Z</time>
      </trkpt>
      <trkpt lat="49.36843" lon="-1.07656">
        <ele>14.3</ele>
        <time>2020-06-16T11:18:06Z</time>
      </trkpt>
      <trkpt lat="49.36843" lon="-1.07656">
        <ele>14.3</ele>
        <time>2020-06-16T11:18:07Z</time>
      </trkpt>
      <trkpt lat="49.36843" lon="-1.07656">
        <ele>14.3</ele>
        <time>2020-06-16T11:18:08Z</time>
      </trkpt>
      <trkpt lat="49.36844" lon="-1.07656">
        <ele>14.3</ele>
        <time>2020-06-16T11:18:09Z</time>
      </trkpt>
      <trkpt lat="49.36844" lon="-1.07656">
        <ele>14.3</ele>
        <time>2020-06-16T11:18:10Z</time>
      </trkpt>
      <trkpt lat="49.36844" lon="-1.07656">
        <ele>14.3</ele>
        <time>2020-06-16T11:18:11Z</time>
      </trkpt>
      <trkpt lat="49.36845" lon="-1.07657">
        <ele>14.3</ele>
        <time>2020-06-16T11:18:12Z</time>
      </trkpt>
      <trkpt lat="49.36845" lon="-1.07657">
        <ele>14.3</ele>
        <time>2020-06-16T11:18:13Z</time>
      </trkpt>
      <trkpt lat="49.36845" lon="-1.07657">
        <ele>14.3</ele>
        <time>2020-06-16T11:18:14Z</time>
      </trkpt>
      <trkpt lat="49.36846" lon="-1.07657">
        <ele>14.3</ele>
        <time>2020-06-16T11:18:15Z</time>
      </trkpt>
      <trkpt lat="49.36846" lon="-1.07657">
        <ele>14.3</ele>
        <time>2020-06-16T11:18:16Z</time>
      </trkpt>
      <trkpt lat="49.36846" lon="-1.07658">
        <ele>14.2</ele>
        <time>2020-06-16T11:18:17Z</time>
      </trkpt>
      <trkpt lat="49.36846" lon="-1.07658">
        <ele>14.2</ele>
        <time>2020-06-16T11:18:18Z</time>
      </trkpt>
      <trkpt lat="49.36848" lon="-1.07658">
        <ele>14.2</ele>
        <time>2020-06-16T11:18:19Z</time>
      </trkpt>
      <trkpt lat="49.36849" lon="-1.07659">
        <ele>14.2</ele>
        <time>2020-06-16T11:18:20Z</time>
      </trkpt>
      <trkpt lat="49.36849" lon="-1.07659">
        <ele>14.2</ele>
        <time>2020-06-16T11:18:21Z</time>
      </trkpt>
      <trkpt lat="49.36851" lon="-1.0766">
        <ele>14.2</ele>
        <time>2020-06-16T11:18:22Z</time>
      </trkpt>
      <trkpt lat="49.36853" lon="-1.0766">
        <ele>14.2</ele>
        <time>2020-06-16T11:18:23Z</time>
      </trkpt>
      <trkpt lat="49.36854" lon="-1.07661">
        <ele>14.2</ele>
        <time>2020-06-16T11:18:24Z</time>
      </trkpt>
      <trkpt lat="49.36855" lon="-1.07661">
        <ele>14.2</ele>
        <time>2020-06-16T11:18:25Z</time>
      </trkpt>
      <trkpt lat="49.36855" lon="-1.07661">
        <ele>14.2</ele>
        <time>2020-06-16T11:18:26Z</time>
      </trkpt>
      <trkpt lat="49.36856" lon="-1.07662">
        <ele>14.2</ele>
        <time>2020-06-16T11:18:27Z</time>
      </trkpt>
      <trkpt lat="49.36857" lon="-1.07662">
        <ele>14.2</ele>
        <time>2020-06-16T11:18:28Z</time>
      </trkpt>
      <trkpt lat="49.36857" lon="-1.07662">
        <ele>14.2</ele>
        <time>2020-06-16T11:18:29Z</time>
      </trkpt>
      <trkpt lat="49.36858" lon="-1.07662">
        <ele>14.2</ele>
        <time>2020-06-16T11:18:30Z</time>
      </trkpt>
      <trkpt lat="49.36859" lon="-1.07663">
        <ele>14.2</ele>
        <time>2020-06-16T11:18:31Z</time>
      </trkpt>
      <trkpt lat="49.36859" lon="-1.07663">
        <ele>14.2</ele>
        <time>2020-06-16T11:18:32Z</time>
      </trkpt>
      <trkpt lat="49.3686" lon="-1.07663">
        <ele>14.2</ele>
        <time>2020-06-16T11:18:33Z</time>
      </trkpt>
      <trkpt lat="49.36861" lon="-1.07663">
        <ele>14.2</ele>
        <time>2020-06-16T11:18:34Z</time>
      </trkpt>
      <trkpt lat="49.36861" lon="-1.07663">
        <ele>14.2</ele>
        <time>2020-06-16T11:18:35Z</time>
      </trkpt>
      <trkpt lat="49.36864" lon="-1.07665">
        <ele>14.2</ele>
        <time>2020-06-16T11:18:36Z</time>
      </trkpt>
      <trkpt lat="49.36865" lon="-1.07665">
        <ele>14.2</ele>
        <time>2020-06-16T11:18:37Z</time>
      </trkpt>
      <trkpt lat="49.36866" lon="-1.07666">
        <ele>14.1</ele>
        <time>2020-06-16T11:18:38Z</time>
      </trkpt>
      <trkpt lat="49.36867" lon="-1.07667">
        <ele>14.1</ele>
        <time>2020-06-16T11:18:39Z</time>
      </trkpt>
      <trkpt lat="49.36868" lon="-1.07667">
        <ele>14.1</ele>
        <time>2020-06-16T11:18:40Z</time>
      </trkpt>
      <trkpt lat="49.3687" lon="-1.07667">
        <ele>14.1</ele>
        <time>2020-06-16T11:18:41Z</time>
      </trkpt>
      <trkpt lat="49.36871" lon="-1.07666">
        <ele>14.1</ele>
        <time>2020-06-16T11:18:42Z</time>
      </trkpt>
      <trkpt lat="49.36874" lon="-1.07666">
        <ele>14.2</ele>
        <time>2020-06-16T11:18:43Z</time>
      </trkpt>
      <trkpt lat="49.36875" lon="-1.07666">
        <ele>14.2</ele>
        <time>2020-06-16T11:18:44Z</time>
      </trkpt>
      <trkpt lat="49.36876" lon="-1.07666">
        <ele>14.2</ele>
        <time>2020-06-16T11:18:45Z</time>
      </trkpt>
      <trkpt lat="49.36877" lon="-1.07665">
        <ele>14.2</ele>
        <time>2020-06-16T11:18:46Z</time>
      </trkpt>
      <trkpt lat="49.36879" lon="-1.07665">
        <ele>14.2</ele>
        <time>2020-06-16T11:18:47Z</time>
      </trkpt>
      <trkpt lat="49.3688" lon="-1.07665">
        <ele>14.2</ele>
        <time>2020-06-16T11:18:48Z</time>
      </trkpt>
      <trkpt lat="49.36882" lon="-1.07665">
        <ele>14.2</ele>
        <time>2020-06-16T11:18:49Z</time>
      </trkpt>
      <trkpt lat="49.36883" lon="-1.07665">
        <ele>14.2</ele>
        <time>2020-06-16T11:18:50Z</time>
      </trkpt>
      <trkpt lat="49.36883" lon="-1.07665">
        <ele>14.2</ele>
        <time>2020-06-16T11:18:51Z</time>
      </trkpt>
      <trkpt lat="49.36885" lon="-1.07665">
        <ele>14.2</ele>
        <time>2020-06-16T11:18:52Z</time>
      </trkpt>
      <trkpt lat="49.36885" lon="-1.07665">
        <ele>14.1</ele>
        <time>2020-06-16T11:18:53Z</time>
      </trkpt>
      <trkpt lat="49.36886" lon="-1.07665">
        <ele>14.1</ele>
        <time>2020-06-16T11:18:54Z</time>
      </trkpt>
      <trkpt lat="49.36886" lon="-1.07665">
        <ele>14.1</ele>
        <time>2020-06-16T11:18:55Z</time>
      </trkpt>
      <trkpt lat="49.36887" lon="-1.07665">
        <ele>14.1</ele>
        <time>2020-06-16T11:18:56Z</time>
      </trkpt>
      <trkpt lat="49.36887" lon="-1.07665">
        <ele>14.1</ele>
        <time>2020-06-16T11:18:57Z</time>
      </trkpt>
      <trkpt lat="49.36888" lon="-1.07665">
        <ele>14.1</ele>
        <time>2020-06-16T11:18:58Z</time>
      </trkpt>
      <trkpt lat="49.36888" lon="-1.07665">
        <ele>14.1</ele>
        <time>2020-06-16T11:18:59Z</time>
      </trkpt>
      <trkpt lat="49.36887" lon="-1.07665">
        <ele>14.1</ele>
        <time>2020-06-16T11:19:00Z</time>
      </trkpt>
      <trkpt lat="49.36887" lon="-1.07666">
        <ele>14.1</ele>
        <time>2020-06-16T11:19:01Z</time>
      </trkpt>
      <trkpt lat="49.36886" lon="-1.07666">
        <ele>14.1</ele>
        <time>2020-06-16T11:19:02Z</time>
      </trkpt>
      <trkpt lat="49.36885" lon="-1.07666">
        <ele>14.1</ele>
        <time>2020-06-16T11:19:03Z</time>
      </trkpt>
      <trkpt lat="49.36885" lon="-1.07666">
        <ele>14.1</ele>
        <time>2020-06-16T11:19:04Z</time>
      </trkpt>
      <trkpt lat="49.36884" lon="-1.07666">
        <ele>14.2</ele>
        <time>2020-06-16T11:19:05Z</time>
      </trkpt>
      <trkpt lat="49.36883" lon="-1.07666">
        <ele>14.2</ele>
        <time>2020-06-16T11:19:06Z</time>
      </trkpt>
      <trkpt lat="49.36881" lon="-1.07666">
        <ele>14.2</ele>
        <time>2020-06-16T11:19:07Z</time>
      </trkpt>
      <trkpt lat="49.3688" lon="-1.07665">
        <ele>14.2</ele>
        <time>2020-06-16T11:19:08Z</time>
      </trkpt>
      <trkpt lat="49.36879" lon="-1.07665">
        <ele>14.2</ele>
        <time>2020-06-16T11:19:09Z</time>
      </trkpt>
      <trkpt lat="49.36878" lon="-1.07664">
        <ele>14.2</ele>
        <time>2020-06-16T11:19:10Z</time>
      </trkpt>
      <trkpt lat="49.36879" lon="-1.07664">
        <ele>14.2</ele>
        <time>2020-06-16T11:19:11Z</time>
      </trkpt>
      <trkpt lat="49.36879" lon="-1.07664">
        <ele>14.2</ele>
        <time>2020-06-16T11:19:12Z</time>
      </trkpt>
      <trkpt lat="49.36879" lon="-1.07664">
        <ele>14.2</ele>
        <time>2020-06-16T11:19:13Z</time>
      </trkpt>
      <trkpt lat="49.36878" lon="-1.07663">
        <ele>14.2</ele>
        <time>2020-06-16T11:19:14Z</time>
      </trkpt>
      <trkpt lat="49.36879" lon="-1.07663">
        <ele>14.2</ele>
        <time>2020-06-16T11:19:15Z</time>
      </trkpt>
      <trkpt lat="49.3688" lon="-1.07662">
        <ele>14.2</ele>
        <time>2020-06-16T11:19:16Z</time>
      </trkpt>
      <trkpt lat="49.3688" lon="-1.07662">
        <ele>14.2</ele>
        <time>2020-06-16T11:19:17Z</time>
      </trkpt>
      <trkpt lat="49.36882" lon="-1.07662">
        <ele>14.2</ele>
        <time>2020-06-16T11:19:18Z</time>
      </trkpt>
      <trkpt lat="49.36883" lon="-1.07662">
        <ele>14.2</ele>
        <time>2020-06-16T11:19:19Z</time>
      </trkpt>
      <trkpt lat="49.36884" lon="-1.07662">
        <ele>14.2</ele>
        <time>2020-06-16T11:19:20Z</time>
      </trkpt>
      <trkpt lat="49.36884" lon="-1.07662">
        <ele>14.2</ele>
        <time>2020-06-16T11:19:21Z</time>
      </trkpt>
      <trkpt lat="49.36885" lon="-1.07663">
        <ele>14.1</ele>
        <time>2020-06-16T11:19:22Z</time>
      </trkpt>
      <trkpt lat="49.36885" lon="-1.07662">
        <ele>14.1</ele>
        <time>2020-06-16T11:19:23Z</time>
      </trkpt>
      <trkpt lat="49.36885" lon="-1.07662">
        <ele>14.1</ele>
        <time>2020-06-16T11:19:24Z</time>
      </trkpt>
      <trkpt lat="49.36885" lon="-1.07662">
        <ele>14.2</ele>
        <time>2020-06-16T11:19:25Z</time>
      </trkpt>
      <trkpt lat="49.36885" lon="-1.07662">
        <ele>14.2</ele>
        <time>2020-06-16T11:19:26Z</time>
      </trkpt>
      <trkpt lat="49.36885" lon="-1.07662">
        <ele>14.2</ele>
        <time>2020-06-16T11:19:27Z</time>
      </trkpt>
      <trkpt lat="49.36886" lon="-1.07662">
        <ele>14.1</ele>
        <time>2020-06-16T11:19:28Z</time>
      </trkpt>
      <trkpt lat="49.36886" lon="-1.07661">
        <ele>14.2</ele>
        <time>2020-06-16T11:19:29Z</time>
      </trkpt>
      <trkpt lat="49.36885" lon="-1.07662">
        <ele>14.2</ele>
        <time>2020-06-16T11:19:30Z</time>
      </trkpt>
      <trkpt lat="49.36885" lon="-1.07662">
        <ele>14.2</ele>
        <time>2020-06-16T11:19:31Z</time>
      </trkpt>
      <trkpt lat="49.36885" lon="-1.07662">
        <ele>14.1</ele>
        <time>2020-06-16T11:19:32Z</time>
      </trkpt>
      <trkpt lat="49.36885" lon="-1.07661">
        <ele>14.2</ele>
        <time>2020-06-16T11:19:33Z</time>
      </trkpt>
      <trkpt lat="49.36886" lon="-1.07661">
        <ele>14.2</ele>
        <time>2020-06-16T11:19:34Z</time>
      </trkpt>
      <trkpt lat="49.36885" lon="-1.07661">
        <ele>14.2</ele>
        <time>2020-06-16T11:19:35Z</time>
      </trkpt>
      <trkpt lat="49.36884" lon="-1.07661">
        <ele>14.2</ele>
        <time>2020-06-16T11:19:36Z</time>
      </trkpt>
      <trkpt lat="49.36884" lon="-1.0766">
        <ele>14.2</ele>
        <time>2020-06-16T11:19:37Z</time>
      </trkpt>
      <trkpt lat="49.36883" lon="-1.0766">
        <ele>14.2</ele>
        <time>2020-06-16T11:19:38Z</time>
      </trkpt>
      <trkpt lat="49.36883" lon="-1.0766">
        <ele>14.2</ele>
        <time>2020-06-16T11:19:39Z</time>
      </trkpt>
      <trkpt lat="49.3688" lon="-1.0766">
        <ele>14.2</ele>
        <time>2020-06-16T11:19:40Z</time>
      </trkpt>
      <trkpt lat="49.36879" lon="-1.0766">
        <ele>14.2</ele>
        <time>2020-06-16T11:19:41Z</time>
      </trkpt>
      <trkpt lat="49.36878" lon="-1.0766">
        <ele>14.2</ele>
        <time>2020-06-16T11:19:42Z</time>
      </trkpt>
      <trkpt lat="49.36877" lon="-1.0766">
        <ele>14.2</ele>
        <time>2020-06-16T11:19:43Z</time>
      </trkpt>
      <trkpt lat="49.36877" lon="-1.07657">
        <ele>14.2</ele>
        <time>2020-06-16T11:19:44Z</time>
      </trkpt>
      <trkpt lat="49.36876" lon="-1.07655">
        <ele>14.2</ele>
        <time>2020-06-16T11:19:45Z</time>
      </trkpt>
      <trkpt lat="49.36875" lon="-1.07653">
        <ele>14.2</ele>
        <time>2020-06-16T11:19:46Z</time>
      </trkpt>
      <trkpt lat="49.36873" lon="-1.07652">
        <ele>14.3</ele>
        <time>2020-06-16T11:19:47Z</time>
      </trkpt>
      <trkpt lat="49.36871" lon="-1.07652">
        <ele>14.3</ele>
        <time>2020-06-16T11:19:48Z</time>
      </trkpt>
      <trkpt lat="49.36869" lon="-1.0765">
        <ele>14.3</ele>
        <time>2020-06-16T11:19:49Z</time>
      </trkpt>
      <trkpt lat="49.36865" lon="-1.07633">
        <ele>14.5</ele>
        <time>2020-06-16T11:20:17Z</time>
      </trkpt>
      <trkpt lat="49.36866" lon="-1.07632">
        <ele>14.5</ele>
        <time>2020-06-16T11:20:18Z</time>
      </trkpt>
      <trkpt lat="49.36866" lon="-1.07632">
        <ele>14.5</ele>
        <time>2020-06-16T11:20:19Z</time>
      </trkpt>
      <trkpt lat="49.36866" lon="-1.07633">
        <ele>14.5</ele>
        <time>2020-06-16T11:20:20Z</time>
      </trkpt>
      <trkpt lat="49.36865" lon="-1.07634">
        <ele>14.5</ele>
        <time>2020-06-16T11:20:21Z</time>
      </trkpt>
      <trkpt lat="49.36865" lon="-1.07634">
        <ele>14.5</ele>
        <time>2020-06-16T11:20:22Z</time>
      </trkpt>
      <trkpt lat="49.36865" lon="-1.07635">
        <ele>14.5</ele>
        <time>2020-06-16T11:20:23Z</time>
      </trkpt>
      <trkpt lat="49.36866" lon="-1.07635">
        <ele>14.5</ele>
        <time>2020-06-16T11:20:24Z</time>
      </trkpt>
      <trkpt lat="49.36866" lon="-1.07636">
        <ele>14.4</ele>
        <time>2020-06-16T11:20:25Z</time>
      </trkpt>
      <trkpt lat="49.36867" lon="-1.07637">
        <ele>14.4</ele>
        <time>2020-06-16T11:20:26Z</time>
      </trkpt>
      <trkpt lat="49.36867" lon="-1.07636">
        <ele>14.4</ele>
        <time>2020-06-16T11:20:27Z</time>
      </trkpt>
      <trkpt lat="49.36868" lon="-1.07636">
        <ele>14.5</ele>
        <time>2020-06-16T11:20:28Z</time>
      </trkpt>
      <trkpt lat="49.36869" lon="-1.07635">
        <ele>14.5</ele>
        <time>2020-06-16T11:20:29Z</time>
      </trkpt>
      <trkpt lat="49.3687" lon="-1.07633">
        <ele>14.5</ele>
        <time>2020-06-16T11:20:30Z</time>
      </trkpt>
      <trkpt lat="49.36872" lon="-1.07631">
        <ele>14.5</ele>
        <time>2020-06-16T11:20:31Z</time>
      </trkpt>
      <trkpt lat="49.36872" lon="-1.0763">
        <ele>14.5</ele>
        <time>2020-06-16T11:20:32Z</time>
      </trkpt>
      <trkpt lat="49.36873" lon="-1.07629">
        <ele>14.5</ele>
        <time>2020-06-16T11:20:33Z</time>
      </trkpt>
      <trkpt lat="49.36873" lon="-1.07629">
        <ele>14.5</ele>
        <time>2020-06-16T11:20:34Z</time>
      </trkpt>
      <trkpt lat="49.36876" lon="-1.07627">
        <ele>14.6</ele>
        <time>2020-06-16T11:20:35Z</time>
      </trkpt>
      <trkpt lat="49.36877" lon="-1.07626">
        <ele>14.6</ele>
        <time>2020-06-16T11:20:36Z</time>
      </trkpt>
      <trkpt lat="49.36879" lon="-1.07624">
        <ele>14.6</ele>
        <time>2020-06-16T11:20:37Z</time>
      </trkpt>
      <trkpt lat="49.3688" lon="-1.07623">
        <ele>14.6</ele>
        <time>2020-06-16T11:20:38Z</time>
      </trkpt>
      <trkpt lat="49.36883" lon="-1.07621">
        <ele>14.6</ele>
        <time>2020-06-16T11:20:39Z</time>
      </trkpt>
      <trkpt lat="49.36883" lon="-1.0762">
        <ele>14.6</ele>
        <time>2020-06-16T11:20:40Z</time>
      </trkpt>
      <trkpt lat="49.36886" lon="-1.07618">
        <ele>14.7</ele>
        <time>2020-06-16T11:20:41Z</time>
      </trkpt>
      <trkpt lat="49.36887" lon="-1.07617">
        <ele>14.7</ele>
        <time>2020-06-16T11:20:42Z</time>
      </trkpt>
      <trkpt lat="49.36888" lon="-1.07616">
        <ele>14.7</ele>
        <time>2020-06-16T11:20:43Z</time>
      </trkpt>
      <trkpt lat="49.3689" lon="-1.07615">
        <ele>14.7</ele>
        <time>2020-06-16T11:20:44Z</time>
      </trkpt>
      <trkpt lat="49.36893" lon="-1.07612">
        <ele>14.7</ele>
        <time>2020-06-16T11:20:45Z</time>
      </trkpt>
      <trkpt lat="49.36894" lon="-1.07612">
        <ele>14.7</ele>
        <time>2020-06-16T11:20:46Z</time>
      </trkpt>
      <trkpt lat="49.36895" lon="-1.0761">
        <ele>14.7</ele>
        <time>2020-06-16T11:20:47Z</time>
      </trkpt>
      <trkpt lat="49.36897" lon="-1.07609">
        <ele>14.8</ele>
        <time>2020-06-16T11:20:48Z</time>
      </trkpt>
      <trkpt lat="49.36897" lon="-1.07609">
        <ele>14.8</ele>
        <time>2020-06-16T11:20:49Z</time>
      </trkpt>
      <trkpt lat="49.36898" lon="-1.07608">
        <ele>14.8</ele>
        <time>2020-06-16T11:20:50Z</time>
      </trkpt>
      <trkpt lat="49.36899" lon="-1.07608">
        <ele>14.7</ele>
        <time>2020-06-16T11:20:51Z</time>
      </trkpt>
      <trkpt lat="49.36899" lon="-1.07608">
        <ele>14.7</ele>
        <time>2020-06-16T11:20:52Z</time>
      </trkpt>
      <trkpt lat="49.36898" lon="-1.07608">
        <ele>14.8</ele>
        <time>2020-06-16T11:20:53Z</time>
      </trkpt>
      <trkpt lat="49.36897" lon="-1.07609">
        <ele>14.8</ele>
        <time>2020-06-16T11:20:54Z</time>
      </trkpt>
      <trkpt lat="49.36896" lon="-1.07609">
        <ele>14.8</ele>
        <time>2020-06-16T11:20:55Z</time>
      </trkpt>
      <trkpt lat="49.36896" lon="-1.07609">
        <ele>14.8</ele>
        <time>2020-06-16T11:20:56Z</time>
      </trkpt>
      <trkpt lat="49.36893" lon="-1.0761">
        <ele>14.8</ele>
        <time>2020-06-16T11:20:57Z</time>
      </trkpt>
      <trkpt lat="49.36891" lon="-1.07609">
        <ele>14.8</ele>
        <time>2020-06-16T11:20:58Z</time>
      </trkpt>
      <trkpt lat="49.36887" lon="-1.07611">
        <ele>14.7</ele>
        <time>2020-06-16T11:20:59Z</time>
      </trkpt>
      <trkpt lat="49.36885" lon="-1.07611">
        <ele>14.7</ele>
        <time>2020-06-16T11:21:00Z</time>
      </trkpt>
      <trkpt lat="49.36882" lon="-1.07611">
        <ele>14.7</ele>
        <time>2020-06-16T11:21:01Z</time>
      </trkpt>
      <trkpt lat="49.36882" lon="-1.07611">
        <ele>14.7</ele>
        <time>2020-06-16T11:21:02Z</time>
      </trkpt>
      <trkpt lat="49.3688" lon="-1.07612">
        <ele>14.7</ele>
        <time>2020-06-16T11:21:03Z</time>
      </trkpt>
      <trkpt lat="49.36879" lon="-1.07612">
        <ele>14.7</ele>
        <time>2020-06-16T11:21:04Z</time>
      </trkpt>
      <trkpt lat="49.36878" lon="-1.07612">
        <ele>14.7</ele>
        <time>2020-06-16T11:21:05Z</time>
      </trkpt>
      <trkpt lat="49.36877" lon="-1.07613">
        <ele>14.7</ele>
        <time>2020-06-16T11:21:06Z</time>
      </trkpt>
      <trkpt lat="49.36877" lon="-1.07613">
        <ele>14.7</ele>
        <time>2020-06-16T11:21:07Z</time>
      </trkpt>
      <trkpt lat="49.36877" lon="-1.07613">
        <ele>14.7</ele>
        <time>2020-06-16T11:21:08Z</time>
      </trkpt>
      <trkpt lat="49.36876" lon="-1.07612">
        <ele>14.7</ele>
        <time>2020-06-16T11:21:09Z</time>
      </trkpt>
      <trkpt lat="49.36875" lon="-1.07612">
        <ele>14.7</ele>
        <time>2020-06-16T11:21:10Z</time>
      </trkpt>
      <trkpt lat="49.36873" lon="-1.07612">
        <ele>14.7</ele>
        <time>2020-06-16T11:21:11Z</time>
      </trkpt>
      <trkpt lat="49.36872" lon="-1.07611">
        <ele>14.7</ele>
        <time>2020-06-16T11:21:12Z</time>
      </trkpt>
      <trkpt lat="49.36871" lon="-1.07611">
        <ele>14.7</ele>
        <time>2020-06-16T11:21:13Z</time>
      </trkpt>
      <trkpt lat="49.36871" lon="-1.07611">
        <ele>14.7</ele>
        <time>2020-06-16T11:21:14Z</time>
      </trkpt>
      <trkpt lat="49.3687" lon="-1.07612">
        <ele>14.7</ele>
        <time>2020-06-16T11:21:15Z</time>
      </trkpt>
      <trkpt lat="49.3687" lon="-1.07612">
        <ele>14.7</ele>
        <time>2020-06-16T11:21:16Z</time>
      </trkpt>
      <trkpt lat="49.3687" lon="-1.07613">
        <ele>14.7</ele>
        <time>2020-06-16T11:21:17Z</time>
      </trkpt>
      <trkpt lat="49.3687" lon="-1.07613">
        <ele>14.7</ele>
        <time>2020-06-16T11:21:18Z</time>
      </trkpt>
      <trkpt lat="49.3687" lon="-1.07613">
        <ele>14.7</ele>
        <time>2020-06-16T11:21:19Z</time>
      </trkpt>
      <trkpt lat="49.3687" lon="-1.07613">
        <ele>14.7</ele>
        <time>2020-06-16T11:21:20Z</time>
      </trkpt>
      <trkpt lat="49.3687" lon="-1.07613">
        <ele>14.7</ele>
        <time>2020-06-16T11:21:21Z</time>
      </trkpt>
      <trkpt lat="49.3687" lon="-1.07613">
        <ele>14.7</ele>
        <time>2020-06-16T11:21:22Z</time>
      </trkpt>
      <trkpt lat="49.3687" lon="-1.07613">
        <ele>14.7</ele>
        <time>2020-06-16T11:21:23Z</time>
      </trkpt>
      <trkpt lat="49.3687" lon="-1.07613">
        <ele>14.7</ele>
        <time>2020-06-16T11:21:24Z</time>
      </trkpt>
      <trkpt lat="49.3687" lon="-1.07613">
        <ele>14.7</ele>
        <time>2020-06-16T11:21:25Z</time>
      </trkpt>
      <trkpt lat="49.3687" lon="-1.07613">
        <ele>14.7</ele>
        <time>2020-06-16T11:21:26Z</time>
      </trkpt>
      <trkpt lat="49.3687" lon="-1.07613">
        <ele>14.7</ele>
        <time>2020-06-16T11:21:27Z</time>
      </trkpt>
      <trkpt lat="49.3687" lon="-1.07613">
        <ele>14.7</ele>
        <time>2020-06-16T11:21:28Z</time>
      </trkpt>
      <trkpt lat="49.36869" lon="-1.0761">
        <ele>14.8</ele>
        <time>2020-06-16T11:22:11Z</time>
      </trkpt>
      <trkpt lat="49.36869" lon="-1.07611">
        <ele>14.7</ele>
        <time>2020-06-16T11:22:12Z</time>
      </trkpt>
      <trkpt lat="49.36868" lon="-1.07611">
        <ele>14.7</ele>
        <time>2020-06-16T11:22:13Z</time>
      </trkpt>
      <trkpt lat="49.36868" lon="-1.07611">
        <ele>14.7</ele>
        <time>2020-06-16T11:22:14Z</time>
      </trkpt>
      <trkpt lat="49.36869" lon="-1.07611">
        <ele>14.7</ele>
        <time>2020-06-16T11:22:15Z</time>
      </trkpt>
      <trkpt lat="49.36868" lon="-1.07611">
        <ele>14.7</ele>
        <time>2020-06-16T11:22:16Z</time>
      </trkpt>
      <trkpt lat="49.36868" lon="-1.07611">
        <ele>14.7</ele>
        <time>2020-06-16T11:22:17Z</time>
      </trkpt>
      <trkpt lat="49.36868" lon="-1.07611">
        <ele>14.7</ele>
        <time>2020-06-16T11:22:18Z</time>
      </trkpt>
      <trkpt lat="49.36869" lon="-1.0761">
        <ele>14.7</ele>
        <time>2020-06-16T11:22:19Z</time>
      </trkpt>
      <trkpt lat="49.36869" lon="-1.0761">
        <ele>14.7</ele>
        <time>2020-06-16T11:22:20Z</time>
      </trkpt>
      <trkpt lat="49.36869" lon="-1.0761">
        <ele>14.7</ele>
        <time>2020-06-16T11:22:21Z</time>
      </trkpt>
      <trkpt lat="49.36869" lon="-1.0761">
        <ele>14.7</ele>
        <time>2020-06-16T11:22:22Z</time>
      </trkpt>
      <trkpt lat="49.36869" lon="-1.0761">
        <ele>14.7</ele>
        <time>2020-06-16T11:22:23Z</time>
      </trkpt>
      <trkpt lat="49.36869" lon="-1.0761">
        <ele>14.7</ele>
        <time>2020-06-16T11:22:24Z</time>
      </trkpt>
      <trkpt lat="49.36869" lon="-1.0761">
        <ele>14.7</ele>
        <time>2020-06-16T11:22:25Z</time>
      </trkpt>
      <trkpt lat="49.3685" lon="-1.07643">
        <ele>14.4</ele>
        <time>2020-06-16T11:28:20Z</time>
      </trkpt>
      <trkpt lat="49.36849" lon="-1.07643">
        <ele>14.4</ele>
        <time>2020-06-16T11:28:21Z</time>
      </trkpt>
      <trkpt lat="49.36848" lon="-1.07643">
        <ele>14.4</ele>
        <time>2020-06-16T11:28:22Z</time>
      </trkpt>
      <trkpt lat="49.36846" lon="-1.07642">
        <ele>14.4</ele>
        <time>2020-06-16T11:28:23Z</time>
      </trkpt>
      <trkpt lat="49.36846" lon="-1.07642">
        <ele>14.4</ele>
        <time>2020-06-16T11:28:24Z</time>
      </trkpt>
      <trkpt lat="49.36846" lon="-1.07642">
        <ele>14.4</ele>
        <time>2020-06-16T11:28:25Z</time>
      </trkpt>
      <trkpt lat="49.36845" lon="-1.07641">
        <ele>14.4</ele>
        <time>2020-06-16T11:28:26Z</time>
      </trkpt>
      <trkpt lat="49.36844" lon="-1.07641">
        <ele>14.4</ele>
        <time>2020-06-16T11:28:27Z</time>
      </trkpt>
      <trkpt lat="49.36843" lon="-1.07641">
        <ele>14.4</ele>
        <time>2020-06-16T11:28:28Z</time>
      </trkpt>
      <trkpt lat="49.36844" lon="-1.07641">
        <ele>14.4</ele>
        <time>2020-06-16T11:28:29Z</time>
      </trkpt>
      <trkpt lat="49.36844" lon="-1.07641">
        <ele>14.4</ele>
        <time>2020-06-16T11:28:30Z</time>
      </trkpt>
      <trkpt lat="49.36844" lon="-1.07641">
        <ele>14.4</ele>
        <time>2020-06-16T11:28:31Z</time>
      </trkpt>
      <trkpt lat="49.36843" lon="-1.07641">
        <ele>14.4</ele>
        <time>2020-06-16T11:28:32Z</time>
      </trkpt>
      <trkpt lat="49.36843" lon="-1.07641">
        <ele>14.4</ele>
        <time>2020-06-16T11:28:33Z</time>
      </trkpt>
      <trkpt lat="49.36843" lon="-1.07642">
        <ele>14.4</ele>
        <time>2020-06-16T11:28:34Z</time>
      </trkpt>
      <trkpt lat="49.36843" lon="-1.07642">
        <ele>14.4</ele>
        <time>2020-06-16T11:28:35Z</time>
      </trkpt>
      <trkpt lat="49.36844" lon="-1.07643">
        <ele>14.4</ele>
        <time>2020-06-16T11:28:36Z</time>
      </trkpt>
      <trkpt lat="49.36844" lon="-1.07646">
        <ele>14.4</ele>
        <time>2020-06-16T11:28:37Z</time>
      </trkpt>
      <trkpt lat="49.36844" lon="-1.07647">
        <ele>14.4</ele>
        <time>2020-06-16T11:28:38Z</time>
      </trkpt>
      <trkpt lat="49.36843" lon="-1.07649">
        <ele>14.4</ele>
        <time>2020-06-16T11:28:39Z</time>
      </trkpt>
      <trkpt lat="49.36843" lon="-1.07651">
        <ele>14.3</ele>
        <time>2020-06-16T11:28:40Z</time>
      </trkpt>
      <trkpt lat="49.36843" lon="-1.07653">
        <ele>14.3</ele>
        <time>2020-06-16T11:28:41Z</time>
      </trkpt>
      <trkpt lat="49.36844" lon="-1.07655">
        <ele>14.3</ele>
        <time>2020-06-16T11:28:42Z</time>
      </trkpt>
      <trkpt lat="49.36844" lon="-1.07657">
        <ele>14.3</ele>
        <time>2020-06-16T11:28:43Z</time>
      </trkpt>
      <trkpt lat="49.36844" lon="-1.07657">
        <ele>14.3</ele>
        <time>2020-06-16T11:28:44Z</time>
      </trkpt>
      <trkpt lat="49.36842" lon="-1.07657">
        <ele>14.3</ele>
        <time>2020-06-16T11:28:45Z</time>
      </trkpt>
      <trkpt lat="49.36842" lon="-1.07656">
        <ele>14.3</ele>
        <time>2020-06-16T11:28:46Z</time>
      </trkpt>
      <trkpt lat="49.36841" lon="-1.07656">
        <ele>14.3</ele>
        <time>2020-06-16T11:28:47Z</time>
      </trkpt>
      <trkpt lat="49.36839" lon="-1.07655">
        <ele>14.3</ele>
        <time>2020-06-16T11:28:48Z</time>
      </trkpt>
      <trkpt lat="49.36838" lon="-1.07653">
        <ele>14.3</ele>
        <time>2020-06-16T11:28:49Z</time>
      </trkpt>
      <trkpt lat="49.36836" lon="-1.07653">
        <ele>14.3</ele>
        <time>2020-06-16T11:28:50Z</time>
      </trkpt>
      <trkpt lat="49.36835" lon="-1.07653">
        <ele>14.3</ele>
        <time>2020-06-16T11:28:51Z</time>
      </trkpt>
      <trkpt lat="49.36834" lon="-1.07654">
        <ele>14.3</ele>
        <time>2020-06-16T11:28:52Z</time>
      </trkpt>
      <trkpt lat="49.36833" lon="-1.07654">
        <ele>14.3</ele>
        <time>2020-06-16T11:28:53Z</time>
      </trkpt>
      <trkpt lat="49.36832" lon="-1.07652">
        <ele>14.3</ele>
        <time>2020-06-16T11:28:54Z</time>
      </trkpt>
      <trkpt lat="49.36832" lon="-1.07651">
        <ele>14.3</ele>
        <time>2020-06-16T11:28:55Z</time>
      </trkpt>
      <trkpt lat="49.36832" lon="-1.0765">
        <ele>14.3</ele>
        <time>2020-06-16T11:28:56Z</time>
      </trkpt>
      <trkpt lat="49.36831" lon="-1.07649">
        <ele>14.3</ele>
        <time>2020-06-16T11:28:57Z</time>
      </trkpt>
      <trkpt lat="49.36831" lon="-1.07648">
        <ele>14.3</ele>
        <time>2020-06-16T11:28:58Z</time>
      </trkpt>
      <trkpt lat="49.3683" lon="-1.07647">
        <ele>14.3</ele>
        <time>2020-06-16T11:28:59Z</time>
      </trkpt>
      <trkpt lat="49.36829" lon="-1.07647">
        <ele>14.3</ele>
        <time>2020-06-16T11:29:00Z</time>
      </trkpt>
      <trkpt lat="49.36828" lon="-1.07646">
        <ele>14.3</ele>
        <time>2020-06-16T11:29:01Z</time>
      </trkpt>
      <trkpt lat="49.36827" lon="-1.07645">
        <ele>14.3</ele>
        <time>2020-06-16T11:29:02Z</time>
      </trkpt>
      <trkpt lat="49.36828" lon="-1.07646">
        <ele>14.3</ele>
        <time>2020-06-16T11:29:03Z</time>
      </trkpt>
      <trkpt lat="49.36828" lon="-1.07647">
        <ele>14.3</ele>
        <time>2020-06-16T11:29:04Z</time>
      </trkpt>
      <trkpt lat="49.36829" lon="-1.07647">
        <ele>14.3</ele>
        <time>2020-06-16T11:29:05Z</time>
      </trkpt>
      <trkpt lat="49.36829" lon="-1.07648">
        <ele>14.3</ele>
        <time>2020-06-16T11:29:06Z</time>
      </trkpt>
      <trkpt lat="49.3683" lon="-1.07648">
        <ele>14.3</ele>
        <time>2020-06-16T11:29:07Z</time>
      </trkpt>
      <trkpt lat="49.3683" lon="-1.07649">
        <ele>14.3</ele>
        <time>2020-06-16T11:29:08Z</time>
      </trkpt>
      <trkpt lat="49.36831" lon="-1.0765">
        <ele>14.3</ele>
        <time>2020-06-16T11:29:09Z</time>
      </trkpt>
      <trkpt lat="49.36832" lon="-1.07651">
        <ele>14.3</ele>
        <time>2020-06-16T11:29:10Z</time>
      </trkpt>
      <trkpt lat="49.36832" lon="-1.07654">
        <ele>14.3</ele>
        <time>2020-06-16T11:29:11Z</time>
      </trkpt>
      <trkpt lat="49.36833" lon="-1.07654">
        <ele>14.3</ele>
        <time>2020-06-16T11:29:12Z</time>
      </trkpt>
      <trkpt lat="49.36833" lon="-1.07655">
        <ele>14.3</ele>
        <time>2020-06-16T11:29:13Z</time>
      </trkpt>
      <trkpt lat="49.36833" lon="-1.07656">
        <ele>14.3</ele>
        <time>2020-06-16T11:29:14Z</time>
      </trkpt>
      <trkpt lat="49.36834" lon="-1.07657">
        <ele>14.3</ele>
        <time>2020-06-16T11:29:15Z</time>
      </trkpt>
      <trkpt lat="49.36834" lon="-1.07657">
        <ele>14.3</ele>
        <time>2020-06-16T11:29:16Z</time>
      </trkpt>
      <trkpt lat="49.36834" lon="-1.07658">
        <ele>14.2</ele>
        <time>2020-06-16T11:29:17Z</time>
      </trkpt>
      <trkpt lat="49.36835" lon="-1.07658">
        <ele>14.2</ele>
        <time>2020-06-16T11:29:18Z</time>
      </trkpt>
      <trkpt lat="49.36835" lon="-1.07656">
        <ele>14.3</ele>
        <time>2020-06-16T11:29:19Z</time>
      </trkpt>
      <trkpt lat="49.36835" lon="-1.07653">
        <ele>14.3</ele>
        <time>2020-06-16T11:29:20Z</time>
      </trkpt>
      <trkpt lat="49.36836" lon="-1.07652">
        <ele>14.3</ele>
        <time>2020-06-16T11:29:21Z</time>
      </trkpt>
      <trkpt lat="49.36836" lon="-1.07651">
        <ele>14.3</ele>
        <time>2020-06-16T11:29:22Z</time>
      </trkpt>
      <trkpt lat="49.36836" lon="-1.07652">
        <ele>14.3</ele>
        <time>2020-06-16T11:29:23Z</time>
      </trkpt>
      <trkpt lat="49.36836" lon="-1.07651">
        <ele>14.3</ele>
        <time>2020-06-16T11:29:24Z</time>
      </trkpt>
      <trkpt lat="49.36836" lon="-1.07651">
        <ele>14.3</ele>
        <time>2020-06-16T11:29:25Z</time>
      </trkpt>
      <trkpt lat="49.36836" lon="-1.07652">
        <ele>14.3</ele>
        <time>2020-06-16T11:29:26Z</time>
      </trkpt>
      <trkpt lat="49.36836" lon="-1.07652">
        <ele>14.3</ele>
        <time>2020-06-16T11:29:27Z</time>
      </trkpt>
      <trkpt lat="49.36836" lon="-1.07652">
        <ele>14.3</ele>
        <time>2020-06-16T11:29:28Z</time>
      </trkpt>
      <trkpt lat="49.36836" lon="-1.07652">
        <ele>14.3</ele>
        <time>2020-06-16T11:29:29Z</time>
      </trkpt>
      <trkpt lat="49.36836" lon="-1.07652">
        <ele>14.3</ele>
        <time>2020-06-16T11:29:30Z</time>
      </trkpt>
      <trkpt lat="49.36836" lon="-1.07651">
        <ele>14.3</ele>
        <time>2020-06-16T11:29:31Z</time>
      </trkpt>
      <trkpt lat="49.36836" lon="-1.07651">
        <ele>14.3</ele>
        <time>2020-06-16T11:29:32Z</time>
      </trkpt>
      <trkpt lat="49.36836" lon="-1.0765">
        <ele>14.3</ele>
        <time>2020-06-16T11:29:33Z</time>
      </trkpt>
      <trkpt lat="49.36836" lon="-1.07649">
        <ele>14.3</ele>
        <time>2020-06-16T11:29:34Z</time>
      </trkpt>
      <trkpt lat="49.36836" lon="-1.07649">
        <ele>14.3</ele>
        <time>2020-06-16T11:29:35Z</time>
      </trkpt>
      <trkpt lat="49.36836" lon="-1.07649">
        <ele>14.3</ele>
        <time>2020-06-16T11:29:36Z</time>
      </trkpt>
      <trkpt lat="49.36836" lon="-1.07649">
        <ele>14.3</ele>
        <time>2020-06-16T11:29:37Z</time>
      </trkpt>
      <trkpt lat="49.36836" lon="-1.07648">
        <ele>14.3</ele>
        <time>2020-06-16T11:29:38Z</time>
      </trkpt>
      <trkpt lat="49.36836" lon="-1.07648">
        <ele>14.3</ele>
        <time>2020-06-16T11:29:39Z</time>
      </trkpt>
      <trkpt lat="49.36837" lon="-1.07647">
        <ele>14.3</ele>
        <time>2020-06-16T11:29:40Z</time>
      </trkpt>
      <trkpt lat="49.36831" lon="-1.07658">
        <ele>14.2</ele>
        <time>2020-06-16T11:29:55Z</time>
      </trkpt>
      <trkpt lat="49.36832" lon="-1.07658">
        <ele>14.2</ele>
        <time>2020-06-16T11:29:56Z</time>
      </trkpt>
      <trkpt lat="49.36832" lon="-1.07658">
        <ele>14.2</ele>
        <time>2020-06-16T11:29:57Z</time>
      </trkpt>
      <trkpt lat="49.36834" lon="-1.07657">
        <ele>14.3</ele>
        <time>2020-06-16T11:29:58Z</time>
      </trkpt>
      <trkpt lat="49.36834" lon="-1.07657">
        <ele>14.3</ele>
        <time>2020-06-16T11:29:59Z</time>
      </trkpt>
      <trkpt lat="49.36834" lon="-1.07657">
        <ele>14.3</ele>
        <time>2020-06-16T11:30:00Z</time>
      </trkpt>
      <trkpt lat="49.36834" lon="-1.07657">
        <ele>14.3</ele>
        <time>2020-06-16T11:30:01Z</time>
      </trkpt>
      <trkpt lat="49.36834" lon="-1.07657">
        <ele>14.3</ele>
        <time>2020-06-16T11:30:02Z</time>
      </trkpt>
      <trkpt lat="49.36834" lon="-1.07657">
        <ele>14.3</ele>
        <time>2020-06-16T11:30:03Z</time>
      </trkpt>
      <trkpt lat="49.36834" lon="-1.07657">
        <ele>14.3</ele>
        <time>2020-06-16T11:30:04Z</time>
      </trkpt>
      <trkpt lat="49.36834" lon="-1.07657">
        <ele>14.3</ele>
        <time>2020-06-16T11:30:05Z</time>
      </trkpt>
      <trkpt lat="49.36828" lon="-1.0767">
        <ele>14.2</ele>
        <time>2020-06-16T12:02:49Z</time>
      </trkpt>
      <trkpt lat="49.36829" lon="-1.07668">
        <ele>14.2</ele>
        <time>2020-06-16T12:02:50Z</time>
      </trkpt>
      <trkpt lat="49.36829" lon="-1.07668">
        <ele>14.2</ele>
        <time>2020-06-16T12:02:51Z</time>
      </trkpt>
      <trkpt lat="49.36829" lon="-1.07667">
        <ele>14.2</ele>
        <time>2020-06-16T12:02:52Z</time>
      </trkpt>
      <trkpt lat="49.36829" lon="-1.07669">
        <ele>14.2</ele>
        <time>2020-06-16T12:02:53Z</time>
      </trkpt>
      <trkpt lat="49.36829" lon="-1.07671">
        <ele>14.2</ele>
        <time>2020-06-16T12:02:54Z</time>
      </trkpt>
      <trkpt lat="49.36829" lon="-1.07671">
        <ele>14.2</ele>
        <time>2020-06-16T12:02:55Z</time>
      </trkpt>
      <trkpt lat="49.3683" lon="-1.07675">
        <ele>14.1</ele>
        <time>2020-06-16T12:02:56Z</time>
      </trkpt>
      <trkpt lat="49.3683" lon="-1.07676">
        <ele>14.1</ele>
        <time>2020-06-16T12:02:57Z</time>
      </trkpt>
      <trkpt lat="49.3683" lon="-1.07677">
        <ele>14.1</ele>
        <time>2020-06-16T12:02:58Z</time>
      </trkpt>
      <trkpt lat="49.3683" lon="-1.07677">
        <ele>14.1</ele>
        <time>2020-06-16T12:02:59Z</time>
      </trkpt>
      <trkpt lat="49.36832" lon="-1.07679">
        <ele>14.1</ele>
        <time>2020-06-16T12:03:00Z</time>
      </trkpt>
      <trkpt lat="49.36833" lon="-1.07683">
        <ele>14.1</ele>
        <time>2020-06-16T12:03:01Z</time>
      </trkpt>
      <trkpt lat="49.36835" lon="-1.07687">
        <ele>14.1</ele>
        <time>2020-06-16T12:03:02Z</time>
      </trkpt>
      <trkpt lat="49.36835" lon="-1.07689">
        <ele>14.1</ele>
        <time>2020-06-16T12:03:03Z</time>
      </trkpt>
      <trkpt lat="49.36835" lon="-1.07691">
        <ele>14.1</ele>
        <time>2020-06-16T12:03:04Z</time>
      </trkpt>
      <trkpt lat="49.36836" lon="-1.07692">
        <ele>14.1</ele>
        <time>2020-06-16T12:03:05Z</time>
      </trkpt>
      <trkpt lat="49.36836" lon="-1.07693">
        <ele>14.1</ele>
        <time>2020-06-16T12:03:06Z</time>
      </trkpt>
      <trkpt lat="49.36837" lon="-1.07695">
        <ele>14.1</ele>
        <time>2020-06-16T12:03:07Z</time>
      </trkpt>
      <trkpt lat="49.36837" lon="-1.07696">
        <ele>14.1</ele>
        <time>2020-06-16T12:03:08Z</time>
      </trkpt>
      <trkpt lat="49.36837" lon="-1.07698">
        <ele>14.1</ele>
        <time>2020-06-16T12:03:09Z</time>
      </trkpt>
      <trkpt lat="49.36837" lon="-1.07699">
        <ele>14.1</ele>
        <time>2020-06-16T12:03:10Z</time>
      </trkpt>
      <trkpt lat="49.36838" lon="-1.07701">
        <ele>14.1</ele>
        <time>2020-06-16T12:03:11Z</time>
      </trkpt>
      <trkpt lat="49.36839" lon="-1.07702">
        <ele>14.1</ele>
        <time>2020-06-16T12:03:12Z</time>
      </trkpt>
      <trkpt lat="49.3684" lon="-1.07704">
        <ele>14.1</ele>
        <time>2020-06-16T12:03:13Z</time>
      </trkpt>
      <trkpt lat="49.36841" lon="-1.07704">
        <ele>14.1</ele>
        <time>2020-06-16T12:03:14Z</time>
      </trkpt>
      <trkpt lat="49.36842" lon="-1.07705">
        <ele>14</ele>
        <time>2020-06-16T12:03:15Z</time>
      </trkpt>
      <trkpt lat="49.36842" lon="-1.07706">
        <ele>14</ele>
        <time>2020-06-16T12:03:16Z</time>
      </trkpt>
      <trkpt lat="49.36843" lon="-1.07707">
        <ele>14</ele>
        <time>2020-06-16T12:03:17Z</time>
      </trkpt>
      <trkpt lat="49.36843" lon="-1.07707">
        <ele>14</ele>
        <time>2020-06-16T12:03:18Z</time>
      </trkpt>
      <trkpt lat="49.36844" lon="-1.07707">
        <ele>14</ele>
        <time>2020-06-16T12:03:19Z</time>
      </trkpt>
      <trkpt lat="49.36844" lon="-1.07708">
        <ele>14</ele>
        <time>2020-06-16T12:03:20Z</time>
      </trkpt>
      <trkpt lat="49.36845" lon="-1.07708">
        <ele>14</ele>
        <time>2020-06-16T12:03:21Z</time>
      </trkpt>
      <trkpt lat="49.36845" lon="-1.07709">
        <ele>14</ele>
        <time>2020-06-16T12:03:22Z</time>
      </trkpt>
      <trkpt lat="49.36846" lon="-1.07709">
        <ele>14</ele>
        <time>2020-06-16T12:03:23Z</time>
      </trkpt>
      <trkpt lat="49.36846" lon="-1.07711">
        <ele>14</ele>
        <time>2020-06-16T12:03:24Z</time>
      </trkpt>
      <trkpt lat="49.36847" lon="-1.07712">
        <ele>14</ele>
        <time>2020-06-16T12:03:25Z</time>
      </trkpt>
      <trkpt lat="49.36847" lon="-1.07713">
        <ele>14</ele>
        <time>2020-06-16T12:03:26Z</time>
      </trkpt>
      <trkpt lat="49.36847" lon="-1.07713">
        <ele>14</ele>
        <time>2020-06-16T12:03:27Z</time>
      </trkpt>
      <trkpt lat="49.36847" lon="-1.07714">
        <ele>14</ele>
        <time>2020-06-16T12:03:28Z</time>
      </trkpt>
      <trkpt lat="49.36847" lon="-1.07714">
        <ele>14</ele>
        <time>2020-06-16T12:03:29Z</time>
      </trkpt>
      <trkpt lat="49.36848" lon="-1.07716">
        <ele>14</ele>
        <time>2020-06-16T12:03:30Z</time>
      </trkpt>
      <trkpt lat="49.36848" lon="-1.07716">
        <ele>14</ele>
        <time>2020-06-16T12:03:31Z</time>
      </trkpt>
      <trkpt lat="49.36848" lon="-1.07718">
        <ele>13.9</ele>
        <time>2020-06-16T12:03:32Z</time>
      </trkpt>
      <trkpt lat="49.36848" lon="-1.07719">
        <ele>13.9</ele>
        <time>2020-06-16T12:03:33Z</time>
      </trkpt>
      <trkpt lat="49.36849" lon="-1.07722">
        <ele>13.9</ele>
        <time>2020-06-16T12:03:34Z</time>
      </trkpt>
      <trkpt lat="49.36849" lon="-1.07726">
        <ele>13.8</ele>
        <time>2020-06-16T12:03:35Z</time>
      </trkpt>
      <trkpt lat="49.36849" lon="-1.07728">
        <ele>13.8</ele>
        <time>2020-06-16T12:03:36Z</time>
      </trkpt>
      <trkpt lat="49.3685" lon="-1.07732">
        <ele>13.8</ele>
        <time>2020-06-16T12:03:37Z</time>
      </trkpt>
      <trkpt lat="49.3685" lon="-1.07734">
        <ele>13.8</ele>
        <time>2020-06-16T12:03:38Z</time>
      </trkpt>
      <trkpt lat="49.36852" lon="-1.07738">
        <ele>13.7</ele>
        <time>2020-06-16T12:03:39Z</time>
      </trkpt>
      <trkpt lat="49.36852" lon="-1.07739">
        <ele>13.7</ele>
        <time>2020-06-16T12:03:40Z</time>
      </trkpt>
      <trkpt lat="49.36853" lon="-1.07742">
        <ele>13.7</ele>
        <time>2020-06-16T12:03:41Z</time>
      </trkpt>
      <trkpt lat="49.36854" lon="-1.07744">
        <ele>13.6</ele>
        <time>2020-06-16T12:03:42Z</time>
      </trkpt>
      <trkpt lat="49.36855" lon="-1.07746">
        <ele>13.6</ele>
        <time>2020-06-16T12:03:43Z</time>
      </trkpt>
      <trkpt lat="49.36855" lon="-1.07749">
        <ele>13.5</ele>
        <time>2020-06-16T12:03:44Z</time>
      </trkpt>
      <trkpt lat="49.36856" lon="-1.07751">
        <ele>13.5</ele>
        <time>2020-06-16T12:03:45Z</time>
      </trkpt>
      <trkpt lat="49.36857" lon="-1.07754">
        <ele>13.4</ele>
        <time>2020-06-16T12:03:46Z</time>
      </trkpt>
      <trkpt lat="49.36857" lon="-1.07756">
        <ele>13.4</ele>
        <time>2020-06-16T12:03:47Z</time>
      </trkpt>
      <trkpt lat="49.36857" lon="-1.07758">
        <ele>13.3</ele>
        <time>2020-06-16T12:03:48Z</time>
      </trkpt>
      <trkpt lat="49.36858" lon="-1.0776">
        <ele>13.3</ele>
        <time>2020-06-16T12:03:49Z</time>
      </trkpt>
      <trkpt lat="49.36858" lon="-1.07763">
        <ele>13.2</ele>
        <time>2020-06-16T12:03:50Z</time>
      </trkpt>
      <trkpt lat="49.36858" lon="-1.07765">
        <ele>13.2</ele>
        <time>2020-06-16T12:03:51Z</time>
      </trkpt>
      <trkpt lat="49.36858" lon="-1.07766">
        <ele>13.2</ele>
        <time>2020-06-16T12:03:52Z</time>
      </trkpt>
      <trkpt lat="49.36858" lon="-1.07767">
        <ele>13.2</ele>
        <time>2020-06-16T12:03:53Z</time>
      </trkpt>
      <trkpt lat="49.36858" lon="-1.07769">
        <ele>13.2</ele>
        <time>2020-06-16T12:03:54Z</time>
      </trkpt>
      <trkpt lat="49.36859" lon="-1.07771">
        <ele>13.1</ele>
        <time>2020-06-16T12:03:55Z</time>
      </trkpt>
      <trkpt lat="49.36859" lon="-1.07773">
        <ele>13.1</ele>
        <time>2020-06-16T12:03:56Z</time>
      </trkpt>
      <trkpt lat="49.36859" lon="-1.07774">
        <ele>13</ele>
        <time>2020-06-16T12:03:57Z</time>
      </trkpt>
      <trkpt lat="49.3686" lon="-1.07777">
        <ele>13</ele>
        <time>2020-06-16T12:03:58Z</time>
      </trkpt>
      <trkpt lat="49.3686" lon="-1.07779">
        <ele>12.9</ele>
        <time>2020-06-16T12:03:59Z</time>
      </trkpt>
      <trkpt lat="49.3686" lon="-1.0778">
        <ele>12.9</ele>
        <time>2020-06-16T12:04:00Z</time>
      </trkpt>
      <trkpt lat="49.36861" lon="-1.07781">
        <ele>12.9</ele>
        <time>2020-06-16T12:04:01Z</time>
      </trkpt>
      <trkpt lat="49.36861" lon="-1.07784">
        <ele>12.8</ele>
        <time>2020-06-16T12:04:02Z</time>
      </trkpt>
      <trkpt lat="49.36862" lon="-1.07786">
        <ele>12.8</ele>
        <time>2020-06-16T12:04:03Z</time>
      </trkpt>
      <trkpt lat="49.36862" lon="-1.07787">
        <ele>12.8</ele>
        <time>2020-06-16T12:04:04Z</time>
      </trkpt>
      <trkpt lat="49.36862" lon="-1.07788">
        <ele>12.8</ele>
        <time>2020-06-16T12:04:05Z</time>
      </trkpt>
      <trkpt lat="49.36862" lon="-1.07789">
        <ele>12.8</ele>
        <time>2020-06-16T12:04:06Z</time>
      </trkpt>
      <trkpt lat="49.36863" lon="-1.07791">
        <ele>12.7</ele>
        <time>2020-06-16T12:04:07Z</time>
      </trkpt>
      <trkpt lat="49.36863" lon="-1.07794">
        <ele>12.7</ele>
        <time>2020-06-16T12:04:08Z</time>
      </trkpt>
      <trkpt lat="49.36864" lon="-1.07796">
        <ele>12.6</ele>
        <time>2020-06-16T12:04:09Z</time>
      </trkpt>
      <trkpt lat="49.36864" lon="-1.07796">
        <ele>12.6</ele>
        <time>2020-06-16T12:04:10Z</time>
      </trkpt>
      <trkpt lat="49.36864" lon="-1.07796">
        <ele>12.6</ele>
        <time>2020-06-16T12:04:11Z</time>
      </trkpt>
      <trkpt lat="49.36864" lon="-1.07796">
        <ele>12.6</ele>
        <time>2020-06-16T12:04:12Z</time>
      </trkpt>
      <trkpt lat="49.36864" lon="-1.07797">
        <ele>12.6</ele>
        <time>2020-06-16T12:04:13Z</time>
      </trkpt>
      <trkpt lat="49.36864" lon="-1.07796">
        <ele>12.6</ele>
        <time>2020-06-16T12:04:14Z</time>
      </trkpt>
      <trkpt lat="49.36864" lon="-1.07798">
        <ele>12.6</ele>
        <time>2020-06-16T12:04:15Z</time>
      </trkpt>
      <trkpt lat="49.36864" lon="-1.07797">
        <ele>12.6</ele>
        <time>2020-06-16T12:04:16Z</time>
      </trkpt>
      <trkpt lat="49.36865" lon="-1.07797">
        <ele>12.6</ele>
        <time>2020-06-16T12:04:17Z</time>
      </trkpt>
      <trkpt lat="49.36865" lon="-1.07796">
        <ele>12.6</ele>
        <time>2020-06-16T12:04:18Z</time>
      </trkpt>
      <trkpt lat="49.36865" lon="-1.07797">
        <ele>12.6</ele>
        <time>2020-06-16T12:04:19Z</time>
      </trkpt>
      <trkpt lat="49.36865" lon="-1.07796">
        <ele>12.6</ele>
        <time>2020-06-16T12:04:20Z</time>
      </trkpt>
      <trkpt lat="49.36878" lon="-1.07798">
        <ele>12.6</ele>
        <time>2020-06-16T12:12:26Z</time>
      </trkpt>
      <trkpt lat="49.36877" lon="-1.07799">
        <ele>12.6</ele>
        <time>2020-06-16T12:12:27Z</time>
      </trkpt>
      <trkpt lat="49.36877" lon="-1.078">
        <ele>12.5</ele>
        <time>2020-06-16T12:12:28Z</time>
      </trkpt>
      <trkpt lat="49.36876" lon="-1.07801">
        <ele>12.5</ele>
        <time>2020-06-16T12:12:29Z</time>
      </trkpt>
      <trkpt lat="49.36876" lon="-1.07801">
        <ele>12.5</ele>
        <time>2020-06-16T12:12:30Z</time>
      </trkpt>
      <trkpt lat="49.36876" lon="-1.07803">
        <ele>12.5</ele>
        <time>2020-06-16T12:12:31Z</time>
      </trkpt>
      <trkpt lat="49.36875" lon="-1.07803">
        <ele>12.5</ele>
        <time>2020-06-16T12:12:32Z</time>
      </trkpt>
      <trkpt lat="49.36875" lon="-1.07802">
        <ele>12.5</ele>
        <time>2020-06-16T12:12:33Z</time>
      </trkpt>
      <trkpt lat="49.36875" lon="-1.07801">
        <ele>12.5</ele>
        <time>2020-06-16T12:12:34Z</time>
      </trkpt>
      <trkpt lat="49.36875" lon="-1.07802">
        <ele>12.5</ele>
        <time>2020-06-16T12:12:35Z</time>
      </trkpt>
      <trkpt lat="49.36875" lon="-1.07802">
        <ele>12.5</ele>
        <time>2020-06-16T12:12:36Z</time>
      </trkpt>
      <trkpt lat="49.36875" lon="-1.07802">
        <ele>12.5</ele>
        <time>2020-06-16T12:12:37Z</time>
      </trkpt>
      <trkpt lat="49.36875" lon="-1.07802">
        <ele>12.5</ele>
        <time>2020-06-16T12:12:38Z</time>
      </trkpt>
      <trkpt lat="49.36875" lon="-1.07801">
        <ele>12.5</ele>
        <time>2020-06-16T12:12:39Z</time>
      </trkpt>
      <trkpt lat="49.36875" lon="-1.07801">
        <ele>12.5</ele>
        <time>2020-06-16T12:12:40Z</time>
      </trkpt>
      <trkpt lat="49.36875" lon="-1.07801">
        <ele>12.5</ele>
        <time>2020-06-16T12:12:41Z</time>
      </trkpt>
      <trkpt lat="49.36875" lon="-1.07802">
        <ele>12.5</ele>
        <time>2020-06-16T12:12:42Z</time>
      </trkpt>
      <trkpt lat="49.36875" lon="-1.07802">
        <ele>12.5</ele>
        <time>2020-06-16T12:12:43Z</time>
      </trkpt>
      <trkpt lat="49.36875" lon="-1.07803">
        <ele>12.5</ele>
        <time>2020-06-16T12:12:44Z</time>
      </trkpt>
      <trkpt lat="49.36875" lon="-1.07803">
        <ele>12.5</ele>
        <time>2020-06-16T12:12:45Z</time>
      </trkpt>
      <trkpt lat="49.36872" lon="-1.07799">
        <ele>12.5</ele>
        <time>2020-06-16T12:13:27Z</time>
      </trkpt>
      <trkpt lat="49.36872" lon="-1.07798">
        <ele>12.6</ele>
        <time>2020-06-16T12:13:28Z</time>
      </trkpt>
      <trkpt lat="49.36873" lon="-1.07798">
        <ele>12.6</ele>
        <time>2020-06-16T12:13:29Z</time>
      </trkpt>
      <trkpt lat="49.36873" lon="-1.07798">
        <ele>12.6</ele>
        <time>2020-06-16T12:13:30Z</time>
      </trkpt>
      <trkpt lat="49.36872" lon="-1.07798">
        <ele>12.6</ele>
        <time>2020-06-16T12:13:31Z</time>
      </trkpt>
      <trkpt lat="49.36872" lon="-1.07798">
        <ele>12.6</ele>
        <time>2020-06-16T12:13:32Z</time>
      </trkpt>
      <trkpt lat="49.36872" lon="-1.07798">
        <ele>12.6</ele>
        <time>2020-06-16T12:13:33Z</time>
      </trkpt>
      <trkpt lat="49.36872" lon="-1.07799">
        <ele>12.6</ele>
        <time>2020-06-16T12:13:34Z</time>
      </trkpt>
      <trkpt lat="49.36872" lon="-1.07799">
        <ele>12.6</ele>
        <time>2020-06-16T12:13:35Z</time>
      </trkpt>
      <trkpt lat="49.36872" lon="-1.07799">
        <ele>12.6</ele>
        <time>2020-06-16T12:13:36Z</time>
      </trkpt>
      <trkpt lat="49.36872" lon="-1.07799">
        <ele>12.6</ele>
        <time>2020-06-16T12:13:37Z</time>
      </trkpt>
      <trkpt lat="49.36872" lon="-1.07798">
        <ele>12.6</ele>
        <time>2020-06-16T12:13:38Z</time>
      </trkpt>
      <trkpt lat="49.36872" lon="-1.07798">
        <ele>12.6</ele>
        <time>2020-06-16T12:13:39Z</time>
      </trkpt>
      <trkpt lat="49.36872" lon="-1.07798">
        <ele>12.6</ele>
        <time>2020-06-16T12:13:40Z</time>
      </trkpt>
      <trkpt lat="49.36872" lon="-1.07798">
        <ele>12.6</ele>
        <time>2020-06-16T12:13:41Z</time>
      </trkpt>
      <trkpt lat="49.36872" lon="-1.07798">
        <ele>12.6</ele>
        <time>2020-06-16T12:13:42Z</time>
      </trkpt>
      <trkpt lat="49.36873" lon="-1.07797">
        <ele>12.6</ele>
        <time>2020-06-16T12:13:43Z</time>
      </trkpt>
      <trkpt lat="49.36873" lon="-1.07797">
        <ele>12.6</ele>
        <time>2020-06-16T12:13:44Z</time>
      </trkpt>
      <trkpt lat="49.3688" lon="-1.07786">
        <ele>12.7</ele>
        <time>2020-06-16T12:14:17Z</time>
      </trkpt>
      <trkpt lat="49.36881" lon="-1.07786">
        <ele>12.7</ele>
        <time>2020-06-16T12:14:18Z</time>
      </trkpt>
      <trkpt lat="49.36881" lon="-1.07786">
        <ele>12.7</ele>
        <time>2020-06-16T12:14:19Z</time>
      </trkpt>
      <trkpt lat="49.36881" lon="-1.07786">
        <ele>12.7</ele>
        <time>2020-06-16T12:14:20Z</time>
      </trkpt>
      <trkpt lat="49.36881" lon="-1.07785">
        <ele>12.7</ele>
        <time>2020-06-16T12:14:21Z</time>
      </trkpt>
      <trkpt lat="49.36882" lon="-1.07785">
        <ele>12.7</ele>
        <time>2020-06-16T12:14:22Z</time>
      </trkpt>
      <trkpt lat="49.36882" lon="-1.07785">
        <ele>12.7</ele>
        <time>2020-06-16T12:14:23Z</time>
      </trkpt>
      <trkpt lat="49.36882" lon="-1.07785">
        <ele>12.7</ele>
        <time>2020-06-16T12:14:24Z</time>
      </trkpt>
      <trkpt lat="49.36882" lon="-1.07785">
        <ele>12.7</ele>
        <time>2020-06-16T12:14:25Z</time>
      </trkpt>
      <trkpt lat="49.36882" lon="-1.07785">
        <ele>12.7</ele>
        <time>2020-06-16T12:14:26Z</time>
      </trkpt>
      <trkpt lat="49.36882" lon="-1.07784">
        <ele>12.7</ele>
        <time>2020-06-16T12:14:27Z</time>
      </trkpt>
      <trkpt lat="49.36881" lon="-1.07784">
        <ele>12.7</ele>
        <time>2020-06-16T12:14:28Z</time>
      </trkpt>
      <trkpt lat="49.36881" lon="-1.07784">
        <ele>12.7</ele>
        <time>2020-06-16T12:14:29Z</time>
      </trkpt>
      <trkpt lat="49.3688" lon="-1.07783">
        <ele>12.7</ele>
        <time>2020-06-16T12:14:30Z</time>
      </trkpt>
      <trkpt lat="49.3688" lon="-1.07783">
        <ele>12.7</ele>
        <time>2020-06-16T12:14:31Z</time>
      </trkpt>
      <trkpt lat="49.36879" lon="-1.07782">
        <ele>12.8</ele>
        <time>2020-06-16T12:14:32Z</time>
      </trkpt>
      <trkpt lat="49.36879" lon="-1.0778">
        <ele>12.8</ele>
        <time>2020-06-16T12:14:33Z</time>
      </trkpt>
      <trkpt lat="49.36879" lon="-1.07779">
        <ele>12.8</ele>
        <time>2020-06-16T12:14:34Z</time>
      </trkpt>
      <trkpt lat="49.36879" lon="-1.07778">
        <ele>12.8</ele>
        <time>2020-06-16T12:14:35Z</time>
      </trkpt>
      <trkpt lat="49.36879" lon="-1.07777">
        <ele>12.9</ele>
        <time>2020-06-16T12:14:36Z</time>
      </trkpt>
      <trkpt lat="49.36878" lon="-1.07776">
        <ele>12.9</ele>
        <time>2020-06-16T12:14:37Z</time>
      </trkpt>
      <trkpt lat="49.36878" lon="-1.07777">
        <ele>12.9</ele>
        <time>2020-06-16T12:14:38Z</time>
      </trkpt>
      <trkpt lat="49.36877" lon="-1.07777">
        <ele>12.9</ele>
        <time>2020-06-16T12:14:39Z</time>
      </trkpt>
      <trkpt lat="49.36877" lon="-1.07778">
        <ele>12.8</ele>
        <time>2020-06-16T12:14:40Z</time>
      </trkpt>
      <trkpt lat="49.36877" lon="-1.07777">
        <ele>12.9</ele>
        <time>2020-06-16T12:14:41Z</time>
      </trkpt>
      <trkpt lat="49.36877" lon="-1.07777">
        <ele>12.9</ele>
        <time>2020-06-16T12:14:42Z</time>
      </trkpt>
      <trkpt lat="49.36877" lon="-1.07776">
        <ele>12.9</ele>
        <time>2020-06-16T12:14:43Z</time>
      </trkpt>
      <trkpt lat="49.36878" lon="-1.07775">
        <ele>12.9</ele>
        <time>2020-06-16T12:14:44Z</time>
      </trkpt>
      <trkpt lat="49.36879" lon="-1.07775">
        <ele>12.9</ele>
        <time>2020-06-16T12:14:45Z</time>
      </trkpt>
      <trkpt lat="49.36879" lon="-1.07775">
        <ele>12.9</ele>
        <time>2020-06-16T12:14:46Z</time>
      </trkpt>
      <trkpt lat="49.36879" lon="-1.07775">
        <ele>12.9</ele>
        <time>2020-06-16T12:14:47Z</time>
      </trkpt>
      <trkpt lat="49.36879" lon="-1.07775">
        <ele>12.9</ele>
        <time>2020-06-16T12:14:48Z</time>
      </trkpt>
      <trkpt lat="49.36879" lon="-1.07775">
        <ele>12.9</ele>
        <time>2020-06-16T12:14:49Z</time>
      </trkpt>
      <trkpt lat="49.36879" lon="-1.07775">
        <ele>12.9</ele>
        <time>2020-06-16T12:14:50Z</time>
      </trkpt>
      <trkpt lat="49.36879" lon="-1.07775">
        <ele>12.9</ele>
        <time>2020-06-16T12:14:51Z</time>
      </trkpt>
      <trkpt lat="49.36879" lon="-1.07775">
        <ele>12.9</ele>
        <time>2020-06-16T12:14:52Z</time>
      </trkpt>
      <trkpt lat="49.36879" lon="-1.07775">
        <ele>12.9</ele>
        <time>2020-06-16T12:14:53Z</time>
      </trkpt>
      <trkpt lat="49.36879" lon="-1.07775">
        <ele>12.9</ele>
        <time>2020-06-16T12:14:54Z</time>
      </trkpt>
      <trkpt lat="49.36879" lon="-1.07775">
        <ele>12.9</ele>
        <time>2020-06-16T12:14:55Z</time>
      </trkpt>
      <trkpt lat="49.36879" lon="-1.07775">
        <ele>12.9</ele>
        <time>2020-06-16T12:14:56Z</time>
      </trkpt>
      <trkpt lat="49.36878" lon="-1.07775">
        <ele>12.9</ele>
        <time>2020-06-16T12:14:57Z</time>
      </trkpt>
      <trkpt lat="49.36878" lon="-1.07775">
        <ele>12.9</ele>
        <time>2020-06-16T12:14:58Z</time>
      </trkpt>
      <trkpt lat="49.36879" lon="-1.07768">
        <ele>13</ele>
        <time>2020-06-16T12:15:40Z</time>
      </trkpt>
      <trkpt lat="49.36879" lon="-1.07767">
        <ele>13</ele>
        <time>2020-06-16T12:15:41Z</time>
      </trkpt>
      <trkpt lat="49.36879" lon="-1.07767">
        <ele>13</ele>
        <time>2020-06-16T12:15:42Z</time>
      </trkpt>
      <trkpt lat="49.36879" lon="-1.07766">
        <ele>13</ele>
        <time>2020-06-16T12:15:43Z</time>
      </trkpt>
      <trkpt lat="49.36879" lon="-1.07765">
        <ele>13</ele>
        <time>2020-06-16T12:15:44Z</time>
      </trkpt>
      <trkpt lat="49.36879" lon="-1.07765">
        <ele>13.1</ele>
        <time>2020-06-16T12:15:45Z</time>
      </trkpt>
      <trkpt lat="49.3688" lon="-1.07764">
        <ele>13.1</ele>
        <time>2020-06-16T12:15:46Z</time>
      </trkpt>
      <trkpt lat="49.3688" lon="-1.07764">
        <ele>13.1</ele>
        <time>2020-06-16T12:15:47Z</time>
      </trkpt>
      <trkpt lat="49.3688" lon="-1.07764">
        <ele>13.1</ele>
        <time>2020-06-16T12:15:48Z</time>
      </trkpt>
      <trkpt lat="49.3688" lon="-1.07764">
        <ele>13.1</ele>
        <time>2020-06-16T12:15:49Z</time>
      </trkpt>
      <trkpt lat="49.3688" lon="-1.07764">
        <ele>13.1</ele>
        <time>2020-06-16T12:15:50Z</time>
      </trkpt>
      <trkpt lat="49.36881" lon="-1.07763">
        <ele>13.1</ele>
        <time>2020-06-16T12:15:51Z</time>
      </trkpt>
      <trkpt lat="49.36881" lon="-1.07763">
        <ele>13.1</ele>
        <time>2020-06-16T12:15:52Z</time>
      </trkpt>
      <trkpt lat="49.36881" lon="-1.07762">
        <ele>13.1</ele>
        <time>2020-06-16T12:15:53Z</time>
      </trkpt>
      <trkpt lat="49.36881" lon="-1.07761">
        <ele>13.1</ele>
        <time>2020-06-16T12:15:54Z</time>
      </trkpt>
      <trkpt lat="49.36882" lon="-1.0776">
        <ele>13.1</ele>
        <time>2020-06-16T12:15:55Z</time>
      </trkpt>
      <trkpt lat="49.36882" lon="-1.0776">
        <ele>13.1</ele>
        <time>2020-06-16T12:15:56Z</time>
      </trkpt>
      <trkpt lat="49.36882" lon="-1.0776">
        <ele>13.1</ele>
        <time>2020-06-16T12:15:57Z</time>
      </trkpt>
      <trkpt lat="49.36882" lon="-1.07759">
        <ele>13.1</ele>
        <time>2020-06-16T12:15:58Z</time>
      </trkpt>
      <trkpt lat="49.36882" lon="-1.07759">
        <ele>13.1</ele>
        <time>2020-06-16T12:15:59Z</time>
      </trkpt>
      <trkpt lat="49.36883" lon="-1.0776">
        <ele>13.1</ele>
        <time>2020-06-16T12:16:00Z</time>
      </trkpt>
      <trkpt lat="49.36883" lon="-1.07759">
        <ele>13.1</ele>
        <time>2020-06-16T12:16:01Z</time>
      </trkpt>
      <trkpt lat="49.36883" lon="-1.07761">
        <ele>13.1</ele>
        <time>2020-06-16T12:16:02Z</time>
      </trkpt>
      <trkpt lat="49.36883" lon="-1.07763">
        <ele>13.1</ele>
        <time>2020-06-16T12:16:03Z</time>
      </trkpt>
      <trkpt lat="49.36883" lon="-1.07762">
        <ele>13.1</ele>
        <time>2020-06-16T12:16:04Z</time>
      </trkpt>
      <trkpt lat="49.36883" lon="-1.07762">
        <ele>13.1</ele>
        <time>2020-06-16T12:16:05Z</time>
      </trkpt>
      <trkpt lat="49.36883" lon="-1.07762">
        <ele>13.1</ele>
        <time>2020-06-16T12:16:06Z</time>
      </trkpt>
      <trkpt lat="49.36883" lon="-1.07762">
        <ele>13.1</ele>
        <time>2020-06-16T12:16:07Z</time>
      </trkpt>
      <trkpt lat="49.36883" lon="-1.07764">
        <ele>13.1</ele>
        <time>2020-06-16T12:16:08Z</time>
      </trkpt>
      <trkpt lat="49.36882" lon="-1.07764">
        <ele>13.1</ele>
        <time>2020-06-16T12:16:09Z</time>
      </trkpt>
      <trkpt lat="49.36882" lon="-1.07764">
        <ele>13.1</ele>
        <time>2020-06-16T12:16:10Z</time>
      </trkpt>
      <trkpt lat="49.36882" lon="-1.07765">
        <ele>13</ele>
        <time>2020-06-16T12:16:11Z</time>
      </trkpt>
      <trkpt lat="49.36882" lon="-1.07765">
        <ele>13</ele>
        <time>2020-06-16T12:16:12Z</time>
      </trkpt>
      <trkpt lat="49.36882" lon="-1.07766">
        <ele>13</ele>
        <time>2020-06-16T12:16:13Z</time>
      </trkpt>
      <trkpt lat="49.36882" lon="-1.07766">
        <ele>13</ele>
        <time>2020-06-16T12:16:14Z</time>
      </trkpt>
      <trkpt lat="49.36882" lon="-1.07766">
        <ele>13</ele>
        <time>2020-06-16T12:16:15Z</time>
      </trkpt>
      <trkpt lat="49.36882" lon="-1.07765">
        <ele>13</ele>
        <time>2020-06-16T12:16:16Z</time>
      </trkpt>
      <trkpt lat="49.36882" lon="-1.07763">
        <ele>13.1</ele>
        <time>2020-06-16T12:16:17Z</time>
      </trkpt>
      <trkpt lat="49.36881" lon="-1.07762">
        <ele>13.1</ele>
        <time>2020-06-16T12:16:18Z</time>
      </trkpt>
      <trkpt lat="49.36881" lon="-1.07762">
        <ele>13.1</ele>
        <time>2020-06-16T12:16:19Z</time>
      </trkpt>
      <trkpt lat="49.36881" lon="-1.07762">
        <ele>13.1</ele>
        <time>2020-06-16T12:16:20Z</time>
      </trkpt>
      <trkpt lat="49.36882" lon="-1.07762">
        <ele>13.1</ele>
        <time>2020-06-16T12:16:21Z</time>
      </trkpt>
      <trkpt lat="49.36881" lon="-1.07762">
        <ele>13.1</ele>
        <time>2020-06-16T12:16:22Z</time>
      </trkpt>
      <trkpt lat="49.36881" lon="-1.07762">
        <ele>13.1</ele>
        <time>2020-06-16T12:16:23Z</time>
      </trkpt>
      <trkpt lat="49.36882" lon="-1.07764">
        <ele>13.1</ele>
        <time>2020-06-16T12:16:24Z</time>
      </trkpt>
      <trkpt lat="49.36882" lon="-1.07765">
        <ele>13</ele>
        <time>2020-06-16T12:16:25Z</time>
      </trkpt>
      <trkpt lat="49.36882" lon="-1.07767">
        <ele>13</ele>
        <time>2020-06-16T12:16:26Z</time>
      </trkpt>
      <trkpt lat="49.36882" lon="-1.07768">
        <ele>13</ele>
        <time>2020-06-16T12:16:27Z</time>
      </trkpt>
      <trkpt lat="49.36882" lon="-1.07768">
        <ele>13</ele>
        <time>2020-06-16T12:16:28Z</time>
      </trkpt>
      <trkpt lat="49.36882" lon="-1.07769">
        <ele>13</ele>
        <time>2020-06-16T12:16:29Z</time>
      </trkpt>
      <trkpt lat="49.36882" lon="-1.0777">
        <ele>12.9</ele>
        <time>2020-06-16T12:16:30Z</time>
      </trkpt>
      <trkpt lat="49.36882" lon="-1.0777">
        <ele>12.9</ele>
        <time>2020-06-16T12:16:31Z</time>
      </trkpt>
      <trkpt lat="49.36882" lon="-1.0777">
        <ele>12.9</ele>
        <time>2020-06-16T12:16:32Z</time>
      </trkpt>
      <trkpt lat="49.36882" lon="-1.07771">
        <ele>12.9</ele>
        <time>2020-06-16T12:16:33Z</time>
      </trkpt>
      <trkpt lat="49.36882" lon="-1.0777">
        <ele>12.9</ele>
        <time>2020-06-16T12:16:34Z</time>
      </trkpt>
      <trkpt lat="49.36882" lon="-1.07769">
        <ele>13</ele>
        <time>2020-06-16T12:16:35Z</time>
      </trkpt>
      <trkpt lat="49.36882" lon="-1.07768">
        <ele>13</ele>
        <time>2020-06-16T12:16:36Z</time>
      </trkpt>
      <trkpt lat="49.36881" lon="-1.07768">
        <ele>13</ele>
        <time>2020-06-16T12:16:37Z</time>
      </trkpt>
      <trkpt lat="49.36881" lon="-1.07768">
        <ele>13</ele>
        <time>2020-06-16T12:16:38Z</time>
      </trkpt>
      <trkpt lat="49.36881" lon="-1.07768">
        <ele>13</ele>
        <time>2020-06-16T12:16:39Z</time>
      </trkpt>
      <trkpt lat="49.36881" lon="-1.07768">
        <ele>13</ele>
        <time>2020-06-16T12:16:40Z</time>
      </trkpt>
      <trkpt lat="49.36881" lon="-1.07768">
        <ele>13</ele>
        <time>2020-06-16T12:16:41Z</time>
      </trkpt>
      <trkpt lat="49.36881" lon="-1.07767">
        <ele>13</ele>
        <time>2020-06-16T12:16:42Z</time>
      </trkpt>
      <trkpt lat="49.36881" lon="-1.07767">
        <ele>13</ele>
        <time>2020-06-16T12:16:43Z</time>
      </trkpt>
      <trkpt lat="49.36881" lon="-1.07769">
        <ele>13</ele>
        <time>2020-06-16T12:16:44Z</time>
      </trkpt>
      <trkpt lat="49.36881" lon="-1.07769">
        <ele>12.9</ele>
        <time>2020-06-16T12:16:45Z</time>
      </trkpt>
      <trkpt lat="49.36881" lon="-1.0777">
        <ele>12.9</ele>
        <time>2020-06-16T12:16:46Z</time>
      </trkpt>
      <trkpt lat="49.36881" lon="-1.0777">
        <ele>12.9</ele>
        <time>2020-06-16T12:16:47Z</time>
      </trkpt>
      <trkpt lat="49.36881" lon="-1.07771">
        <ele>12.9</ele>
        <time>2020-06-16T12:16:48Z</time>
      </trkpt>
      <trkpt lat="49.36881" lon="-1.07771">
        <ele>12.9</ele>
        <time>2020-06-16T12:16:49Z</time>
      </trkpt>
      <trkpt lat="49.36881" lon="-1.07773">
        <ele>12.9</ele>
        <time>2020-06-16T12:16:50Z</time>
      </trkpt>
      <trkpt lat="49.36881" lon="-1.07774">
        <ele>12.9</ele>
        <time>2020-06-16T12:16:51Z</time>
      </trkpt>
      <trkpt lat="49.3688" lon="-1.07775">
        <ele>12.9</ele>
        <time>2020-06-16T12:16:52Z</time>
      </trkpt>
      <trkpt lat="49.3688" lon="-1.07776">
        <ele>12.9</ele>
        <time>2020-06-16T12:16:53Z</time>
      </trkpt>
      <trkpt lat="49.36879" lon="-1.07777">
        <ele>12.9</ele>
        <time>2020-06-16T12:16:54Z</time>
      </trkpt>
      <trkpt lat="49.36879" lon="-1.07778">
        <ele>12.9</ele>
        <time>2020-06-16T12:16:55Z</time>
      </trkpt>
      <trkpt lat="49.36879" lon="-1.07778">
        <ele>12.8</ele>
        <time>2020-06-16T12:16:56Z</time>
      </trkpt>
      <trkpt lat="49.36879" lon="-1.07778">
        <ele>12.8</ele>
        <time>2020-06-16T12:16:57Z</time>
      </trkpt>
      <trkpt lat="49.36879" lon="-1.07778">
        <ele>12.8</ele>
        <time>2020-06-16T12:16:58Z</time>
      </trkpt>
      <trkpt lat="49.36879" lon="-1.07778">
        <ele>12.8</ele>
        <time>2020-06-16T12:16:59Z</time>
      </trkpt>
      <trkpt lat="49.36879" lon="-1.07778">
        <ele>12.8</ele>
        <time>2020-06-16T12:17:00Z</time>
      </trkpt>
      <trkpt lat="49.36879" lon="-1.07779">
        <ele>12.8</ele>
        <time>2020-06-16T12:17:01Z</time>
      </trkpt>
      <trkpt lat="49.36878" lon="-1.07779">
        <ele>12.8</ele>
        <time>2020-06-16T12:17:02Z</time>
      </trkpt>
      <trkpt lat="49.36878" lon="-1.07778">
        <ele>12.8</ele>
        <time>2020-06-16T12:17:03Z</time>
      </trkpt>
      <trkpt lat="49.36878" lon="-1.07778">
        <ele>12.8</ele>
        <time>2020-06-16T12:17:04Z</time>
      </trkpt>
      <trkpt lat="49.36878" lon="-1.07777">
        <ele>12.9</ele>
        <time>2020-06-16T12:17:05Z</time>
      </trkpt>
      <trkpt lat="49.36887" lon="-1.07761">
        <ele>13</ele>
        <time>2020-06-16T12:17:40Z</time>
      </trkpt>
      <trkpt lat="49.36886" lon="-1.07761">
        <ele>13</ele>
        <time>2020-06-16T12:17:41Z</time>
      </trkpt>
      <trkpt lat="49.36886" lon="-1.07761">
        <ele>13</ele>
        <time>2020-06-16T12:17:42Z</time>
      </trkpt>
      <trkpt lat="49.36886" lon="-1.07761">
        <ele>13</ele>
        <time>2020-06-16T12:17:43Z</time>
      </trkpt>
      <trkpt lat="49.36886" lon="-1.0776">
        <ele>13.1</ele>
        <time>2020-06-16T12:17:44Z</time>
      </trkpt>
      <trkpt lat="49.36885" lon="-1.07764">
        <ele>13.1</ele>
        <time>2020-06-16T12:17:45Z</time>
      </trkpt>
      <trkpt lat="49.36884" lon="-1.07765">
        <ele>13</ele>
        <time>2020-06-16T12:17:46Z</time>
      </trkpt>
      <trkpt lat="49.36884" lon="-1.07765">
        <ele>13</ele>
        <time>2020-06-16T12:17:47Z</time>
      </trkpt>
      <trkpt lat="49.36884" lon="-1.07765">
        <ele>13</ele>
        <time>2020-06-16T12:17:48Z</time>
      </trkpt>
      <trkpt lat="49.36884" lon="-1.07765">
        <ele>13</ele>
        <time>2020-06-16T12:17:49Z</time>
      </trkpt>
      <trkpt lat="49.36884" lon="-1.07766">
        <ele>13</ele>
        <time>2020-06-16T12:17:50Z</time>
      </trkpt>
      <trkpt lat="49.36884" lon="-1.07766">
        <ele>13</ele>
        <time>2020-06-16T12:17:51Z</time>
      </trkpt>
      <trkpt lat="49.36884" lon="-1.07766">
        <ele>13</ele>
        <time>2020-06-16T12:17:52Z</time>
      </trkpt>
      <trkpt lat="49.36884" lon="-1.07766">
        <ele>13</ele>
        <time>2020-06-16T12:17:53Z</time>
      </trkpt>
      <trkpt lat="49.36884" lon="-1.07766">
        <ele>13</ele>
        <time>2020-06-16T12:17:54Z</time>
      </trkpt>
      <trkpt lat="49.36884" lon="-1.07765">
        <ele>13</ele>
        <time>2020-06-16T12:17:55Z</time>
      </trkpt>
      <trkpt lat="49.36883" lon="-1.07764">
        <ele>13.1</ele>
        <time>2020-06-16T12:17:56Z</time>
      </trkpt>
      <trkpt lat="49.36883" lon="-1.07763">
        <ele>13.1</ele>
        <time>2020-06-16T12:17:57Z</time>
      </trkpt>
      <trkpt lat="49.36883" lon="-1.07762">
        <ele>13.1</ele>
        <time>2020-06-16T12:17:58Z</time>
      </trkpt>
      <trkpt lat="49.36883" lon="-1.07761">
        <ele>13.1</ele>
        <time>2020-06-16T12:17:59Z</time>
      </trkpt>
      <trkpt lat="49.36883" lon="-1.0776">
        <ele>13.1</ele>
        <time>2020-06-16T12:18:00Z</time>
      </trkpt>
      <trkpt lat="49.36883" lon="-1.07759">
        <ele>13.1</ele>
        <time>2020-06-16T12:18:01Z</time>
      </trkpt>
      <trkpt lat="49.36883" lon="-1.07758">
        <ele>13.1</ele>
        <time>2020-06-16T12:18:02Z</time>
      </trkpt>
      <trkpt lat="49.36883" lon="-1.07758">
        <ele>13.1</ele>
        <time>2020-06-16T12:18:03Z</time>
      </trkpt>
      <trkpt lat="49.36883" lon="-1.07756">
        <ele>13.1</ele>
        <time>2020-06-16T12:18:04Z</time>
      </trkpt>
      <trkpt lat="49.36882" lon="-1.07755">
        <ele>13.2</ele>
        <time>2020-06-16T12:18:05Z</time>
      </trkpt>
      <trkpt lat="49.36882" lon="-1.07753">
        <ele>13.2</ele>
        <time>2020-06-16T12:18:06Z</time>
      </trkpt>
      <trkpt lat="49.36883" lon="-1.07751">
        <ele>13.2</ele>
        <time>2020-06-16T12:18:07Z</time>
      </trkpt>
      <trkpt lat="49.36883" lon="-1.0775">
        <ele>13.2</ele>
        <time>2020-06-16T12:18:08Z</time>
      </trkpt>
      <trkpt lat="49.36883" lon="-1.07749">
        <ele>13.2</ele>
        <time>2020-06-16T12:18:09Z</time>
      </trkpt>
      <trkpt lat="49.36883" lon="-1.07749">
        <ele>13.2</ele>
        <time>2020-06-16T12:18:10Z</time>
      </trkpt>
      <trkpt lat="49.36883" lon="-1.07749">
        <ele>13.2</ele>
        <time>2020-06-16T12:18:11Z</time>
      </trkpt>
      <trkpt lat="49.36883" lon="-1.07748">
        <ele>13.2</ele>
        <time>2020-06-16T12:18:12Z</time>
      </trkpt>
      <trkpt lat="49.36883" lon="-1.07746">
        <ele>13.3</ele>
        <time>2020-06-16T12:18:13Z</time>
      </trkpt>
      <trkpt lat="49.36883" lon="-1.07746">
        <ele>13.3</ele>
        <time>2020-06-16T12:18:14Z</time>
      </trkpt>
      <trkpt lat="49.36883" lon="-1.07745">
        <ele>13.3</ele>
        <time>2020-06-16T12:18:15Z</time>
      </trkpt>
      <trkpt lat="49.36884" lon="-1.07745">
        <ele>13.3</ele>
        <time>2020-06-16T12:18:16Z</time>
      </trkpt>
      <trkpt lat="49.36883" lon="-1.07744">
        <ele>13.3</ele>
        <time>2020-06-16T12:18:17Z</time>
      </trkpt>
      <trkpt lat="49.36883" lon="-1.07745">
        <ele>13.3</ele>
        <time>2020-06-16T12:18:18Z</time>
      </trkpt>
      <trkpt lat="49.36883" lon="-1.07745">
        <ele>13.3</ele>
        <time>2020-06-16T12:18:19Z</time>
      </trkpt>
      <trkpt lat="49.36883" lon="-1.07746">
        <ele>13.3</ele>
        <time>2020-06-16T12:18:20Z</time>
      </trkpt>
      <trkpt lat="49.36883" lon="-1.07746">
        <ele>13.3</ele>
        <time>2020-06-16T12:18:21Z</time>
      </trkpt>
      <trkpt lat="49.36883" lon="-1.07747">
        <ele>13.3</ele>
        <time>2020-06-16T12:18:22Z</time>
      </trkpt>
      <trkpt lat="49.36883" lon="-1.07747">
        <ele>13.3</ele>
        <time>2020-06-16T12:18:23Z</time>
      </trkpt>
      <trkpt lat="49.36883" lon="-1.07748">
        <ele>13.2</ele>
        <time>2020-06-16T12:18:24Z</time>
      </trkpt>
      <trkpt lat="49.36883" lon="-1.07748">
        <ele>13.2</ele>
        <time>2020-06-16T12:18:25Z</time>
      </trkpt>
      <trkpt lat="49.36883" lon="-1.07749">
        <ele>13.2</ele>
        <time>2020-06-16T12:18:26Z</time>
      </trkpt>
      <trkpt lat="49.36883" lon="-1.07749">
        <ele>13.2</ele>
        <time>2020-06-16T12:18:27Z</time>
      </trkpt>
      <trkpt lat="49.36882" lon="-1.0775">
        <ele>13.2</ele>
        <time>2020-06-16T12:18:28Z</time>
      </trkpt>
      <trkpt lat="49.36882" lon="-1.0775">
        <ele>13.2</ele>
        <time>2020-06-16T12:18:29Z</time>
      </trkpt>
      <trkpt lat="49.36882" lon="-1.0775">
        <ele>13.3</ele>
        <time>2020-06-16T12:18:30Z</time>
      </trkpt>
      <trkpt lat="49.36881" lon="-1.07749">
        <ele>13.3</ele>
        <time>2020-06-16T12:18:31Z</time>
      </trkpt>
      <trkpt lat="49.36881" lon="-1.07748">
        <ele>13.3</ele>
        <time>2020-06-16T12:18:32Z</time>
      </trkpt>
      <trkpt lat="49.3688" lon="-1.07748">
        <ele>13.3</ele>
        <time>2020-06-16T12:18:33Z</time>
      </trkpt>
      <trkpt lat="49.3688" lon="-1.07749">
        <ele>13.3</ele>
        <time>2020-06-16T12:18:34Z</time>
      </trkpt>
      <trkpt lat="49.3688" lon="-1.0775">
        <ele>13.3</ele>
        <time>2020-06-16T12:18:35Z</time>
      </trkpt>
      <trkpt lat="49.36881" lon="-1.07751">
        <ele>13.3</ele>
        <time>2020-06-16T12:18:36Z</time>
      </trkpt>
      <trkpt lat="49.36881" lon="-1.0775">
        <ele>13.3</ele>
        <time>2020-06-16T12:18:37Z</time>
      </trkpt>
      <trkpt lat="49.36881" lon="-1.07751">
        <ele>13.3</ele>
        <time>2020-06-16T12:18:38Z</time>
      </trkpt>
      <trkpt lat="49.36881" lon="-1.07752">
        <ele>13.2</ele>
        <time>2020-06-16T12:18:39Z</time>
      </trkpt>
      <trkpt lat="49.3688" lon="-1.07753">
        <ele>13.2</ele>
        <time>2020-06-16T12:18:40Z</time>
      </trkpt>
      <trkpt lat="49.3688" lon="-1.07754">
        <ele>13.2</ele>
        <time>2020-06-16T12:18:41Z</time>
      </trkpt>
      <trkpt lat="49.3688" lon="-1.07754">
        <ele>13.2</ele>
        <time>2020-06-16T12:18:42Z</time>
      </trkpt>
      <trkpt lat="49.3688" lon="-1.07754">
        <ele>13.2</ele>
        <time>2020-06-16T12:18:43Z</time>
      </trkpt>
      <trkpt lat="49.36881" lon="-1.07754">
        <ele>13.2</ele>
        <time>2020-06-16T12:18:44Z</time>
      </trkpt>
      <trkpt lat="49.36881" lon="-1.07753">
        <ele>13.2</ele>
        <time>2020-06-16T12:18:45Z</time>
      </trkpt>
      <trkpt lat="49.36881" lon="-1.07753">
        <ele>13.2</ele>
        <time>2020-06-16T12:18:46Z</time>
      </trkpt>
      <trkpt lat="49.36881" lon="-1.07754">
        <ele>13.2</ele>
        <time>2020-06-16T12:18:47Z</time>
      </trkpt>
      <trkpt lat="49.36881" lon="-1.07754">
        <ele>13.2</ele>
        <time>2020-06-16T12:18:48Z</time>
      </trkpt>
      <trkpt lat="49.36881" lon="-1.07754">
        <ele>13.2</ele>
        <time>2020-06-16T12:18:49Z</time>
      </trkpt>
      <trkpt lat="49.36881" lon="-1.07754">
        <ele>13.2</ele>
        <time>2020-06-16T12:18:50Z</time>
      </trkpt>
      <trkpt lat="49.36881" lon="-1.07754">
        <ele>13.2</ele>
        <time>2020-06-16T12:18:51Z</time>
      </trkpt>
      <trkpt lat="49.36881" lon="-1.07754">
        <ele>13.2</ele>
        <time>2020-06-16T12:18:52Z</time>
      </trkpt>
      <trkpt lat="49.36881" lon="-1.07754">
        <ele>13.2</ele>
        <time>2020-06-16T12:18:53Z</time>
      </trkpt>
      <trkpt lat="49.36881" lon="-1.07753">
        <ele>13.2</ele>
        <time>2020-06-16T12:18:54Z</time>
      </trkpt>
      <trkpt lat="49.36881" lon="-1.07754">
        <ele>13.2</ele>
        <time>2020-06-16T12:18:55Z</time>
      </trkpt>
      <trkpt lat="49.36881" lon="-1.07754">
        <ele>13.2</ele>
        <time>2020-06-16T12:18:56Z</time>
      </trkpt>
      <trkpt lat="49.36881" lon="-1.07754">
        <ele>13.2</ele>
        <time>2020-06-16T12:18:57Z</time>
      </trkpt>
      <trkpt lat="49.36881" lon="-1.07754">
        <ele>13.2</ele>
        <time>2020-06-16T12:18:58Z</time>
      </trkpt>
      <trkpt lat="49.36881" lon="-1.07754">
        <ele>13.2</ele>
        <time>2020-06-16T12:18:59Z</time>
      </trkpt>
      <trkpt lat="49.36882" lon="-1.07754">
        <ele>13.2</ele>
        <time>2020-06-16T12:19:00Z</time>
      </trkpt>
      <trkpt lat="49.36882" lon="-1.07755">
        <ele>13.2</ele>
        <time>2020-06-16T12:19:01Z</time>
      </trkpt>
      <trkpt lat="49.36882" lon="-1.07755">
        <ele>13.2</ele>
        <time>2020-06-16T12:19:02Z</time>
      </trkpt>
      <trkpt lat="49.36882" lon="-1.07756">
        <ele>13.2</ele>
        <time>2020-06-16T12:19:03Z</time>
      </trkpt>
      <trkpt lat="49.36868" lon="-1.07763">
        <ele>13.2</ele>
        <time>2020-06-16T12:20:35Z</time>
      </trkpt>
      <trkpt lat="49.36867" lon="-1.07762">
        <ele>13.2</ele>
        <time>2020-06-16T12:20:36Z</time>
      </trkpt>
      <trkpt lat="49.36867" lon="-1.0776">
        <ele>13.2</ele>
        <time>2020-06-16T12:20:37Z</time>
      </trkpt>
      <trkpt lat="49.36867" lon="-1.07758">
        <ele>13.2</ele>
        <time>2020-06-16T12:20:38Z</time>
      </trkpt>
      <trkpt lat="49.36867" lon="-1.07756">
        <ele>13.3</ele>
        <time>2020-06-16T12:20:39Z</time>
      </trkpt>
      <trkpt lat="49.36867" lon="-1.07755">
        <ele>13.3</ele>
        <time>2020-06-16T12:20:40Z</time>
      </trkpt>
      <trkpt lat="49.36867" lon="-1.07753">
        <ele>13.3</ele>
        <time>2020-06-16T12:20:41Z</time>
      </trkpt>
      <trkpt lat="49.36867" lon="-1.07751">
        <ele>13.4</ele>
        <time>2020-06-16T12:20:42Z</time>
      </trkpt>
      <trkpt lat="49.36867" lon="-1.07749">
        <ele>13.4</ele>
        <time>2020-06-16T12:20:43Z</time>
      </trkpt>
      <trkpt lat="49.36867" lon="-1.07748">
        <ele>13.4</ele>
        <time>2020-06-16T12:20:44Z</time>
      </trkpt>
      <trkpt lat="49.36868" lon="-1.07747">
        <ele>13.4</ele>
        <time>2020-06-16T12:20:45Z</time>
      </trkpt>
      <trkpt lat="49.36868" lon="-1.07746">
        <ele>13.4</ele>
        <time>2020-06-16T12:20:46Z</time>
      </trkpt>
      <trkpt lat="49.36869" lon="-1.07745">
        <ele>13.4</ele>
        <time>2020-06-16T12:20:47Z</time>
      </trkpt>
      <trkpt lat="49.36869" lon="-1.07744">
        <ele>13.4</ele>
        <time>2020-06-16T12:20:48Z</time>
      </trkpt>
      <trkpt lat="49.3687" lon="-1.07743">
        <ele>13.5</ele>
        <time>2020-06-16T12:20:49Z</time>
      </trkpt>
      <trkpt lat="49.3687" lon="-1.07742">
        <ele>13.5</ele>
        <time>2020-06-16T12:20:50Z</time>
      </trkpt>
      <trkpt lat="49.3687" lon="-1.07741">
        <ele>13.5</ele>
        <time>2020-06-16T12:20:51Z</time>
      </trkpt>
      <trkpt lat="49.3687" lon="-1.0774">
        <ele>13.5</ele>
        <time>2020-06-16T12:20:52Z</time>
      </trkpt>
      <trkpt lat="49.36871" lon="-1.07739">
        <ele>13.5</ele>
        <time>2020-06-16T12:20:53Z</time>
      </trkpt>
      <trkpt lat="49.36871" lon="-1.07738">
        <ele>13.5</ele>
        <time>2020-06-16T12:20:54Z</time>
      </trkpt>
      <trkpt lat="49.36871" lon="-1.07737">
        <ele>13.5</ele>
        <time>2020-06-16T12:20:55Z</time>
      </trkpt>
      <trkpt lat="49.36871" lon="-1.07736">
        <ele>13.5</ele>
        <time>2020-06-16T12:20:56Z</time>
      </trkpt>
      <trkpt lat="49.36872" lon="-1.0773">
        <ele>13.6</ele>
        <time>2020-06-16T12:20:57Z</time>
      </trkpt>
      <trkpt lat="49.36872" lon="-1.07728">
        <ele>13.6</ele>
        <time>2020-06-16T12:20:58Z</time>
      </trkpt>
      <trkpt lat="49.36872" lon="-1.07726">
        <ele>13.6</ele>
        <time>2020-06-16T12:20:59Z</time>
      </trkpt>
      <trkpt lat="49.36872" lon="-1.07723">
        <ele>13.6</ele>
        <time>2020-06-16T12:21:00Z</time>
      </trkpt>
      <trkpt lat="49.36872" lon="-1.0772">
        <ele>13.7</ele>
        <time>2020-06-16T12:21:01Z</time>
      </trkpt>
      <trkpt lat="49.36872" lon="-1.07718">
        <ele>13.7</ele>
        <time>2020-06-16T12:21:02Z</time>
      </trkpt>
      <trkpt lat="49.36872" lon="-1.07716">
        <ele>13.7</ele>
        <time>2020-06-16T12:21:03Z</time>
      </trkpt>
      <trkpt lat="49.36872" lon="-1.07713">
        <ele>13.7</ele>
        <time>2020-06-16T12:21:04Z</time>
      </trkpt>
      <trkpt lat="49.36872" lon="-1.07712">
        <ele>13.8</ele>
        <time>2020-06-16T12:21:05Z</time>
      </trkpt>
      <trkpt lat="49.36871" lon="-1.07713">
        <ele>13.8</ele>
        <time>2020-06-16T12:21:06Z</time>
      </trkpt>
      <trkpt lat="49.36871" lon="-1.07714">
        <ele>13.7</ele>
        <time>2020-06-16T12:21:07Z</time>
      </trkpt>
      <trkpt lat="49.36871" lon="-1.07714">
        <ele>13.7</ele>
        <time>2020-06-16T12:21:08Z</time>
      </trkpt>
      <trkpt lat="49.36871" lon="-1.07715">
        <ele>13.7</ele>
        <time>2020-06-16T12:21:09Z</time>
      </trkpt>
      <trkpt lat="49.36871" lon="-1.07716">
        <ele>13.7</ele>
        <time>2020-06-16T12:21:10Z</time>
      </trkpt>
      <trkpt lat="49.3687" lon="-1.07717">
        <ele>13.7</ele>
        <time>2020-06-16T12:21:11Z</time>
      </trkpt>
      <trkpt lat="49.3687" lon="-1.07718">
        <ele>13.7</ele>
        <time>2020-06-16T12:21:12Z</time>
      </trkpt>
      <trkpt lat="49.3687" lon="-1.07718">
        <ele>13.7</ele>
        <time>2020-06-16T12:21:13Z</time>
      </trkpt>
      <trkpt lat="49.36869" lon="-1.07721">
        <ele>13.7</ele>
        <time>2020-06-16T12:21:14Z</time>
      </trkpt>
      <trkpt lat="49.36869" lon="-1.07722">
        <ele>13.7</ele>
        <time>2020-06-16T12:21:15Z</time>
      </trkpt>
      <trkpt lat="49.36869" lon="-1.07722">
        <ele>13.7</ele>
        <time>2020-06-16T12:21:16Z</time>
      </trkpt>
      <trkpt lat="49.36869" lon="-1.07723">
        <ele>13.7</ele>
        <time>2020-06-16T12:21:17Z</time>
      </trkpt>
      <trkpt lat="49.36869" lon="-1.07727">
        <ele>13.6</ele>
        <time>2020-06-16T12:21:18Z</time>
      </trkpt>
      <trkpt lat="49.36869" lon="-1.07729">
        <ele>13.6</ele>
        <time>2020-06-16T12:21:19Z</time>
      </trkpt>
      <trkpt lat="49.36869" lon="-1.07731">
        <ele>13.6</ele>
        <time>2020-06-16T12:21:20Z</time>
      </trkpt>
      <trkpt lat="49.36868" lon="-1.07735">
        <ele>13.6</ele>
        <time>2020-06-16T12:21:21Z</time>
      </trkpt>
      <trkpt lat="49.36868" lon="-1.07736">
        <ele>13.6</ele>
        <time>2020-06-16T12:21:22Z</time>
      </trkpt>
      <trkpt lat="49.36868" lon="-1.07737">
        <ele>13.6</ele>
        <time>2020-06-16T12:21:23Z</time>
      </trkpt>
      <trkpt lat="49.36868" lon="-1.07738">
        <ele>13.6</ele>
        <time>2020-06-16T12:21:24Z</time>
      </trkpt>
      <trkpt lat="49.36868" lon="-1.07738">
        <ele>13.6</ele>
        <time>2020-06-16T12:21:25Z</time>
      </trkpt>
      <trkpt lat="49.36868" lon="-1.07739">
        <ele>13.6</ele>
        <time>2020-06-16T12:21:26Z</time>
      </trkpt>
      <trkpt lat="49.36868" lon="-1.07739">
        <ele>13.5</ele>
        <time>2020-06-16T12:21:27Z</time>
      </trkpt>
      <trkpt lat="49.36868" lon="-1.0774">
        <ele>13.5</ele>
        <time>2020-06-16T12:21:28Z</time>
      </trkpt>
      <trkpt lat="49.36867" lon="-1.0774">
        <ele>13.5</ele>
        <time>2020-06-16T12:21:29Z</time>
      </trkpt>
      <trkpt lat="49.36867" lon="-1.0774">
        <ele>13.5</ele>
        <time>2020-06-16T12:21:30Z</time>
      </trkpt>
      <trkpt lat="49.36867" lon="-1.07741">
        <ele>13.5</ele>
        <time>2020-06-16T12:21:31Z</time>
      </trkpt>
      <trkpt lat="49.36867" lon="-1.07741">
        <ele>13.5</ele>
        <time>2020-06-16T12:21:32Z</time>
      </trkpt>
      <trkpt lat="49.36867" lon="-1.07742">
        <ele>13.5</ele>
        <time>2020-06-16T12:21:33Z</time>
      </trkpt>
      <trkpt lat="49.36867" lon="-1.07742">
        <ele>13.5</ele>
        <time>2020-06-16T12:21:34Z</time>
      </trkpt>
      <trkpt lat="49.36867" lon="-1.07743">
        <ele>13.5</ele>
        <time>2020-06-16T12:21:35Z</time>
      </trkpt>
      <trkpt lat="49.36867" lon="-1.07744">
        <ele>13.4</ele>
        <time>2020-06-16T12:21:36Z</time>
      </trkpt>
      <trkpt lat="49.36867" lon="-1.07745">
        <ele>13.4</ele>
        <time>2020-06-16T12:21:37Z</time>
      </trkpt>
      <trkpt lat="49.36867" lon="-1.07745">
        <ele>13.4</ele>
        <time>2020-06-16T12:21:38Z</time>
      </trkpt>
      <trkpt lat="49.36867" lon="-1.07746">
        <ele>13.4</ele>
        <time>2020-06-16T12:21:39Z</time>
      </trkpt>
      <trkpt lat="49.36867" lon="-1.07745">
        <ele>13.4</ele>
        <time>2020-06-16T12:21:40Z</time>
      </trkpt>
      <trkpt lat="49.36867" lon="-1.07744">
        <ele>13.4</ele>
        <time>2020-06-16T12:21:41Z</time>
      </trkpt>
      <trkpt lat="49.36867" lon="-1.07743">
        <ele>13.5</ele>
        <time>2020-06-16T12:21:42Z</time>
      </trkpt>
      <trkpt lat="49.36867" lon="-1.07743">
        <ele>13.5</ele>
        <time>2020-06-16T12:21:43Z</time>
      </trkpt>
      <trkpt lat="49.36867" lon="-1.07743">
        <ele>13.5</ele>
        <time>2020-06-16T12:21:44Z</time>
      </trkpt>
      <trkpt lat="49.36867" lon="-1.07744">
        <ele>13.4</ele>
        <time>2020-06-16T12:21:45Z</time>
      </trkpt>
      <trkpt lat="49.36867" lon="-1.07745">
        <ele>13.4</ele>
        <time>2020-06-16T12:21:46Z</time>
      </trkpt>
      <trkpt lat="49.36866" lon="-1.07745">
        <ele>13.4</ele>
        <time>2020-06-16T12:21:47Z</time>
      </trkpt>
      <trkpt lat="49.36866" lon="-1.07746">
        <ele>13.4</ele>
        <time>2020-06-16T12:21:48Z</time>
      </trkpt>
      <trkpt lat="49.36866" lon="-1.07748">
        <ele>13.4</ele>
        <time>2020-06-16T12:21:49Z</time>
      </trkpt>
      <trkpt lat="49.36865" lon="-1.07749">
        <ele>13.4</ele>
        <time>2020-06-16T12:21:50Z</time>
      </trkpt>
      <trkpt lat="49.36864" lon="-1.0775">
        <ele>13.4</ele>
        <time>2020-06-16T12:21:51Z</time>
      </trkpt>
      <trkpt lat="49.36864" lon="-1.07751">
        <ele>13.4</ele>
        <time>2020-06-16T12:21:52Z</time>
      </trkpt>
      <trkpt lat="49.36863" lon="-1.07752">
        <ele>13.3</ele>
        <time>2020-06-16T12:21:53Z</time>
      </trkpt>
      <trkpt lat="49.36863" lon="-1.07753">
        <ele>13.4</ele>
        <time>2020-06-16T12:21:54Z</time>
      </trkpt>
      <trkpt lat="49.36862" lon="-1.07754">
        <ele>13.4</ele>
        <time>2020-06-16T12:21:55Z</time>
      </trkpt>
      <trkpt lat="49.36861" lon="-1.07755">
        <ele>13.4</ele>
        <time>2020-06-16T12:22:14Z</time>
      </trkpt>
      <trkpt lat="49.36861" lon="-1.07757">
        <ele>13.3</ele>
        <time>2020-06-16T12:22:15Z</time>
      </trkpt>
      <trkpt lat="49.3686" lon="-1.07758">
        <ele>13.3</ele>
        <time>2020-06-16T12:22:16Z</time>
      </trkpt>
      <trkpt lat="49.36859" lon="-1.07759">
        <ele>13.3</ele>
        <time>2020-06-16T12:22:17Z</time>
      </trkpt>
      <trkpt lat="49.36859" lon="-1.07758">
        <ele>13.3</ele>
        <time>2020-06-16T12:22:18Z</time>
      </trkpt>
      <trkpt lat="49.36858" lon="-1.07757">
        <ele>13.3</ele>
        <time>2020-06-16T12:22:19Z</time>
      </trkpt>
      <trkpt lat="49.36857" lon="-1.07756">
        <ele>13.3</ele>
        <time>2020-06-16T12:22:20Z</time>
      </trkpt>
      <trkpt lat="49.36857" lon="-1.07756">
        <ele>13.3</ele>
        <time>2020-06-16T12:22:21Z</time>
      </trkpt>
      <trkpt lat="49.36857" lon="-1.07756">
        <ele>13.3</ele>
        <time>2020-06-16T12:22:22Z</time>
      </trkpt>
      <trkpt lat="49.36857" lon="-1.07757">
        <ele>13.3</ele>
        <time>2020-06-16T12:22:23Z</time>
      </trkpt>
      <trkpt lat="49.36857" lon="-1.07757">
        <ele>13.3</ele>
        <time>2020-06-16T12:22:24Z</time>
      </trkpt>
      <trkpt lat="49.36857" lon="-1.07757">
        <ele>13.3</ele>
        <time>2020-06-16T12:22:25Z</time>
      </trkpt>
      <trkpt lat="49.36857" lon="-1.07756">
        <ele>13.4</ele>
        <time>2020-06-16T12:22:26Z</time>
      </trkpt>
      <trkpt lat="49.36857" lon="-1.07756">
        <ele>13.4</ele>
        <time>2020-06-16T12:22:27Z</time>
      </trkpt>
      <trkpt lat="49.36857" lon="-1.07756">
        <ele>13.3</ele>
        <time>2020-06-16T12:22:28Z</time>
      </trkpt>
      <trkpt lat="49.36857" lon="-1.07757">
        <ele>13.3</ele>
        <time>2020-06-16T12:22:29Z</time>
      </trkpt>
      <trkpt lat="49.36857" lon="-1.07757">
        <ele>13.3</ele>
        <time>2020-06-16T12:22:30Z</time>
      </trkpt>
      <trkpt lat="49.36857" lon="-1.07757">
        <ele>13.3</ele>
        <time>2020-06-16T12:22:31Z</time>
      </trkpt>
      <trkpt lat="49.36856" lon="-1.07758">
        <ele>13.3</ele>
        <time>2020-06-16T12:22:32Z</time>
      </trkpt>
      <trkpt lat="49.36856" lon="-1.07758">
        <ele>13.3</ele>
        <time>2020-06-16T12:22:33Z</time>
      </trkpt>
      <trkpt lat="49.36856" lon="-1.07759">
        <ele>13.3</ele>
        <time>2020-06-16T12:22:34Z</time>
      </trkpt>
      <trkpt lat="49.36856" lon="-1.0776">
        <ele>13.3</ele>
        <time>2020-06-16T12:22:35Z</time>
      </trkpt>
      <trkpt lat="49.36856" lon="-1.07761">
        <ele>13.3</ele>
        <time>2020-06-16T12:22:36Z</time>
      </trkpt>
      <trkpt lat="49.36856" lon="-1.07763">
        <ele>13.3</ele>
        <time>2020-06-16T12:22:37Z</time>
      </trkpt>
      <trkpt lat="49.36856" lon="-1.07763">
        <ele>13.3</ele>
        <time>2020-06-16T12:22:38Z</time>
      </trkpt>
      <trkpt lat="49.36856" lon="-1.07763">
        <ele>13.3</ele>
        <time>2020-06-16T12:22:39Z</time>
      </trkpt>
      <trkpt lat="49.36855" lon="-1.07763">
        <ele>13.3</ele>
        <time>2020-06-16T12:22:40Z</time>
      </trkpt>
      <trkpt lat="49.36855" lon="-1.07762">
        <ele>13.3</ele>
        <time>2020-06-16T12:22:41Z</time>
      </trkpt>
      <trkpt lat="49.36855" lon="-1.07763">
        <ele>13.3</ele>
        <time>2020-06-16T12:22:42Z</time>
      </trkpt>
      <trkpt lat="49.36855" lon="-1.07762">
        <ele>13.3</ele>
        <time>2020-06-16T12:22:43Z</time>
      </trkpt>
      <trkpt lat="49.36855" lon="-1.07762">
        <ele>13.3</ele>
        <time>2020-06-16T12:22:44Z</time>
      </trkpt>
      <trkpt lat="49.36855" lon="-1.07762">
        <ele>13.3</ele>
        <time>2020-06-16T12:22:45Z</time>
      </trkpt>
      <trkpt lat="49.36855" lon="-1.07762">
        <ele>13.3</ele>
        <time>2020-06-16T12:22:46Z</time>
      </trkpt>
      <trkpt lat="49.36855" lon="-1.07763">
        <ele>13.3</ele>
        <time>2020-06-16T12:22:47Z</time>
      </trkpt>
      <trkpt lat="49.36856" lon="-1.07764">
        <ele>13.3</ele>
        <time>2020-06-16T12:22:48Z</time>
      </trkpt>
      <trkpt lat="49.36855" lon="-1.07764">
        <ele>13.3</ele>
        <time>2020-06-16T12:22:49Z</time>
      </trkpt>
      <trkpt lat="49.36855" lon="-1.07764">
        <ele>13.3</ele>
        <time>2020-06-16T12:22:50Z</time>
      </trkpt>
      <trkpt lat="49.36856" lon="-1.07765">
        <ele>13.3</ele>
        <time>2020-06-16T12:22:51Z</time>
      </trkpt>
      <trkpt lat="49.36856" lon="-1.07766">
        <ele>13.2</ele>
        <time>2020-06-16T12:22:52Z</time>
      </trkpt>
      <trkpt lat="49.36856" lon="-1.07767">
        <ele>13.2</ele>
        <time>2020-06-16T12:22:53Z</time>
      </trkpt>
      <trkpt lat="49.36856" lon="-1.07767">
        <ele>13.2</ele>
        <time>2020-06-16T12:22:54Z</time>
      </trkpt>
      <trkpt lat="49.36855" lon="-1.07765">
        <ele>13.3</ele>
        <time>2020-06-16T12:23:05Z</time>
      </trkpt>
      <trkpt lat="49.36855" lon="-1.07764">
        <ele>13.3</ele>
        <time>2020-06-16T12:23:06Z</time>
      </trkpt>
      <trkpt lat="49.36854" lon="-1.07764">
        <ele>13.3</ele>
        <time>2020-06-16T12:23:07Z</time>
      </trkpt>
      <trkpt lat="49.36854" lon="-1.07763">
        <ele>13.3</ele>
        <time>2020-06-16T12:23:08Z</time>
      </trkpt>
      <trkpt lat="49.36854" lon="-1.07763">
        <ele>13.3</ele>
        <time>2020-06-16T12:23:09Z</time>
      </trkpt>
      <trkpt lat="49.36855" lon="-1.07763">
        <ele>13.3</ele>
        <time>2020-06-16T12:23:10Z</time>
      </trkpt>
      <trkpt lat="49.36855" lon="-1.07763">
        <ele>13.3</ele>
        <time>2020-06-16T12:23:11Z</time>
      </trkpt>
      <trkpt lat="49.36855" lon="-1.07764">
        <ele>13.3</ele>
        <time>2020-06-16T12:23:12Z</time>
      </trkpt>
      <trkpt lat="49.36855" lon="-1.07763">
        <ele>13.3</ele>
        <time>2020-06-16T12:23:13Z</time>
      </trkpt>
      <trkpt lat="49.36854" lon="-1.07762">
        <ele>13.3</ele>
        <time>2020-06-16T12:23:14Z</time>
      </trkpt>
      <trkpt lat="49.36854" lon="-1.07761">
        <ele>13.3</ele>
        <time>2020-06-16T12:23:15Z</time>
      </trkpt>
      <trkpt lat="49.36854" lon="-1.0776">
        <ele>13.4</ele>
        <time>2020-06-16T12:23:16Z</time>
      </trkpt>
      <trkpt lat="49.36854" lon="-1.0776">
        <ele>13.4</ele>
        <time>2020-06-16T12:23:17Z</time>
      </trkpt>
      <trkpt lat="49.36854" lon="-1.07759">
        <ele>13.4</ele>
        <time>2020-06-16T12:23:18Z</time>
      </trkpt>
      <trkpt lat="49.36854" lon="-1.07759">
        <ele>13.4</ele>
        <time>2020-06-16T12:23:19Z</time>
      </trkpt>
      <trkpt lat="49.36853" lon="-1.07758">
        <ele>13.4</ele>
        <time>2020-06-16T12:23:20Z</time>
      </trkpt>
      <trkpt lat="49.36853" lon="-1.07758">
        <ele>13.4</ele>
        <time>2020-06-16T12:23:21Z</time>
      </trkpt>
      <trkpt lat="49.36853" lon="-1.07757">
        <ele>13.4</ele>
        <time>2020-06-16T12:23:22Z</time>
      </trkpt>
      <trkpt lat="49.36853" lon="-1.07756">
        <ele>13.4</ele>
        <time>2020-06-16T12:23:23Z</time>
      </trkpt>
      <trkpt lat="49.36852" lon="-1.07754">
        <ele>13.4</ele>
        <time>2020-06-16T12:23:24Z</time>
      </trkpt>
      <trkpt lat="49.36851" lon="-1.07753">
        <ele>13.5</ele>
        <time>2020-06-16T12:23:25Z</time>
      </trkpt>
      <trkpt lat="49.36851" lon="-1.07752">
        <ele>13.5</ele>
        <time>2020-06-16T12:23:26Z</time>
      </trkpt>
      <trkpt lat="49.36851" lon="-1.07751">
        <ele>13.5</ele>
        <time>2020-06-16T12:23:27Z</time>
      </trkpt>
      <trkpt lat="49.36851" lon="-1.07752">
        <ele>13.5</ele>
        <time>2020-06-16T12:23:28Z</time>
      </trkpt>
      <trkpt lat="49.36852" lon="-1.07752">
        <ele>13.5</ele>
        <time>2020-06-16T12:23:29Z</time>
      </trkpt>
      <trkpt lat="49.36852" lon="-1.07752">
        <ele>13.5</ele>
        <time>2020-06-16T12:23:30Z</time>
      </trkpt>
      <trkpt lat="49.36853" lon="-1.07752">
        <ele>13.4</ele>
        <time>2020-06-16T12:23:31Z</time>
      </trkpt>
      <trkpt lat="49.36853" lon="-1.07751">
        <ele>13.5</ele>
        <time>2020-06-16T12:23:32Z</time>
      </trkpt>
      <trkpt lat="49.36853" lon="-1.07752">
        <ele>13.5</ele>
        <time>2020-06-16T12:23:33Z</time>
      </trkpt>
      <trkpt lat="49.36853" lon="-1.07756">
        <ele>13.4</ele>
        <time>2020-06-16T12:23:34Z</time>
      </trkpt>
      <trkpt lat="49.36853" lon="-1.07757">
        <ele>13.4</ele>
        <time>2020-06-16T12:23:35Z</time>
      </trkpt>
      <trkpt lat="49.36852" lon="-1.07758">
        <ele>13.4</ele>
        <time>2020-06-16T12:23:36Z</time>
      </trkpt>
      <trkpt lat="49.36852" lon="-1.07758">
        <ele>13.4</ele>
        <time>2020-06-16T12:23:37Z</time>
      </trkpt>
      <trkpt lat="49.36852" lon="-1.07757">
        <ele>13.4</ele>
        <time>2020-06-16T12:23:38Z</time>
      </trkpt>
      <trkpt lat="49.36851" lon="-1.07755">
        <ele>13.5</ele>
        <time>2020-06-16T12:23:39Z</time>
      </trkpt>
      <trkpt lat="49.36851" lon="-1.07754">
        <ele>13.5</ele>
        <time>2020-06-16T12:23:40Z</time>
      </trkpt>
      <trkpt lat="49.3685" lon="-1.07753">
        <ele>13.5</ele>
        <time>2020-06-16T12:23:41Z</time>
      </trkpt>
      <trkpt lat="49.3685" lon="-1.07752">
        <ele>13.5</ele>
        <time>2020-06-16T12:23:42Z</time>
      </trkpt>
      <trkpt lat="49.36849" lon="-1.07751">
        <ele>13.5</ele>
        <time>2020-06-16T12:23:43Z</time>
      </trkpt>
      <trkpt lat="49.36849" lon="-1.07751">
        <ele>13.5</ele>
        <time>2020-06-16T12:23:44Z</time>
      </trkpt>
      <trkpt lat="49.36849" lon="-1.07752">
        <ele>13.5</ele>
        <time>2020-06-16T12:23:45Z</time>
      </trkpt>
      <trkpt lat="49.36849" lon="-1.07753">
        <ele>13.5</ele>
        <time>2020-06-16T12:23:46Z</time>
      </trkpt>
      <trkpt lat="49.36851" lon="-1.07755">
        <ele>13.5</ele>
        <time>2020-06-16T12:23:47Z</time>
      </trkpt>
      <trkpt lat="49.36852" lon="-1.07756">
        <ele>13.4</ele>
        <time>2020-06-16T12:23:48Z</time>
      </trkpt>
      <trkpt lat="49.36852" lon="-1.07757">
        <ele>13.4</ele>
        <time>2020-06-16T12:23:49Z</time>
      </trkpt>
      <trkpt lat="49.36852" lon="-1.07758">
        <ele>13.4</ele>
        <time>2020-06-16T12:23:50Z</time>
      </trkpt>
      <trkpt lat="49.36853" lon="-1.07758">
        <ele>13.4</ele>
        <time>2020-06-16T12:23:51Z</time>
      </trkpt>
      <trkpt lat="49.36853" lon="-1.07758">
        <ele>13.4</ele>
        <time>2020-06-16T12:23:52Z</time>
      </trkpt>
      <trkpt lat="49.36853" lon="-1.07759">
        <ele>13.4</ele>
        <time>2020-06-16T12:23:53Z</time>
      </trkpt>
      <trkpt lat="49.36854" lon="-1.0776">
        <ele>13.4</ele>
        <time>2020-06-16T12:23:54Z</time>
      </trkpt>
      <trkpt lat="49.36856" lon="-1.07763">
        <ele>13.3</ele>
        <time>2020-06-16T12:23:55Z</time>
      </trkpt>
      <trkpt lat="49.36857" lon="-1.07764">
        <ele>13.3</ele>
        <time>2020-06-16T12:23:56Z</time>
      </trkpt>
      <trkpt lat="49.36857" lon="-1.07765">
        <ele>13.2</ele>
        <time>2020-06-16T12:23:57Z</time>
      </trkpt>
      <trkpt lat="49.36858" lon="-1.07765">
        <ele>13.2</ele>
        <time>2020-06-16T12:23:58Z</time>
      </trkpt>
      <trkpt lat="49.36858" lon="-1.07766">
        <ele>13.2</ele>
        <time>2020-06-16T12:23:59Z</time>
      </trkpt>
      <trkpt lat="49.36859" lon="-1.07765">
        <ele>13.2</ele>
        <time>2020-06-16T12:24:00Z</time>
      </trkpt>
      <trkpt lat="49.3686" lon="-1.07765">
        <ele>13.2</ele>
        <time>2020-06-16T12:24:01Z</time>
      </trkpt>
      <trkpt lat="49.36861" lon="-1.07765">
        <ele>13.2</ele>
        <time>2020-06-16T12:24:02Z</time>
      </trkpt>
      <trkpt lat="49.36863" lon="-1.07764">
        <ele>13.2</ele>
        <time>2020-06-16T12:24:03Z</time>
      </trkpt>
      <trkpt lat="49.36864" lon="-1.07764">
        <ele>13.2</ele>
        <time>2020-06-16T12:24:04Z</time>
      </trkpt>
      <trkpt lat="49.36865" lon="-1.07764">
        <ele>13.2</ele>
        <time>2020-06-16T12:24:05Z</time>
      </trkpt>
      <trkpt lat="49.36868" lon="-1.07762">
        <ele>13.2</ele>
        <time>2020-06-16T12:24:06Z</time>
      </trkpt>
      <trkpt lat="49.3687" lon="-1.07761">
        <ele>13.2</ele>
        <time>2020-06-16T12:24:07Z</time>
      </trkpt>
      <trkpt lat="49.36871" lon="-1.0776">
        <ele>13.2</ele>
        <time>2020-06-16T12:24:08Z</time>
      </trkpt>
      <trkpt lat="49.36873" lon="-1.07759">
        <ele>13.2</ele>
        <time>2020-06-16T12:24:09Z</time>
      </trkpt>
      <trkpt lat="49.36874" lon="-1.07757">
        <ele>13.2</ele>
        <time>2020-06-16T12:24:10Z</time>
      </trkpt>
      <trkpt lat="49.36874" lon="-1.07756">
        <ele>13.2</ele>
        <time>2020-06-16T12:24:11Z</time>
      </trkpt>
      <trkpt lat="49.36875" lon="-1.07755">
        <ele>13.2</ele>
        <time>2020-06-16T12:24:12Z</time>
      </trkpt>
      <trkpt lat="49.36876" lon="-1.07754">
        <ele>13.2</ele>
        <time>2020-06-16T12:24:13Z</time>
      </trkpt>
      <trkpt lat="49.36877" lon="-1.07753">
        <ele>13.2</ele>
        <time>2020-06-16T12:24:14Z</time>
      </trkpt>
      <trkpt lat="49.36877" lon="-1.07753">
        <ele>13.2</ele>
        <time>2020-06-16T12:24:15Z</time>
      </trkpt>
      <trkpt lat="49.36877" lon="-1.07753">
        <ele>13.2</ele>
        <time>2020-06-16T12:24:16Z</time>
      </trkpt>
      <trkpt lat="49.36877" lon="-1.07753">
        <ele>13.2</ele>
        <time>2020-06-16T12:24:17Z</time>
      </trkpt>
      <trkpt lat="49.36878" lon="-1.07753">
        <ele>13.2</ele>
        <time>2020-06-16T12:24:18Z</time>
      </trkpt>
      <trkpt lat="49.36879" lon="-1.07753">
        <ele>13.2</ele>
        <time>2020-06-16T12:24:19Z</time>
      </trkpt>
      <trkpt lat="49.36879" lon="-1.07753">
        <ele>13.2</ele>
        <time>2020-06-16T12:24:20Z</time>
      </trkpt>
      <trkpt lat="49.3688" lon="-1.07753">
        <ele>13.2</ele>
        <time>2020-06-16T12:24:21Z</time>
      </trkpt>
      <trkpt lat="49.3688" lon="-1.07753">
        <ele>13.2</ele>
        <time>2020-06-16T12:24:22Z</time>
      </trkpt>
      <trkpt lat="49.36881" lon="-1.07752">
        <ele>13.2</ele>
        <time>2020-06-16T12:24:23Z</time>
      </trkpt>
      <trkpt lat="49.36882" lon="-1.07751">
        <ele>13.2</ele>
        <time>2020-06-16T12:24:24Z</time>
      </trkpt>
      <trkpt lat="49.36884" lon="-1.07749">
        <ele>13.2</ele>
        <time>2020-06-16T12:24:25Z</time>
      </trkpt>
      <trkpt lat="49.36885" lon="-1.07748">
        <ele>13.2</ele>
        <time>2020-06-16T12:24:26Z</time>
      </trkpt>
      <trkpt lat="49.36886" lon="-1.07748">
        <ele>13.2</ele>
        <time>2020-06-16T12:24:27Z</time>
      </trkpt>
      <trkpt lat="49.36886" lon="-1.07747">
        <ele>13.3</ele>
        <time>2020-06-16T12:24:28Z</time>
      </trkpt>
      <trkpt lat="49.36887" lon="-1.07747">
        <ele>13.3</ele>
        <time>2020-06-16T12:24:29Z</time>
      </trkpt>
      <trkpt lat="49.36888" lon="-1.07747">
        <ele>13.3</ele>
        <time>2020-06-16T12:24:30Z</time>
      </trkpt>
      <trkpt lat="49.36889" lon="-1.07747">
        <ele>13.3</ele>
        <time>2020-06-16T12:24:31Z</time>
      </trkpt>
      <trkpt lat="49.3689" lon="-1.07746">
        <ele>13.3</ele>
        <time>2020-06-16T12:24:32Z</time>
      </trkpt>
      <trkpt lat="49.36891" lon="-1.07746">
        <ele>13.2</ele>
        <time>2020-06-16T12:24:33Z</time>
      </trkpt>
      <trkpt lat="49.36891" lon="-1.07745">
        <ele>13.2</ele>
        <time>2020-06-16T12:24:34Z</time>
      </trkpt>
      <trkpt lat="49.36892" lon="-1.07745">
        <ele>13.2</ele>
        <time>2020-06-16T12:24:35Z</time>
      </trkpt>
      <trkpt lat="49.36893" lon="-1.07744">
        <ele>13.2</ele>
        <time>2020-06-16T12:24:36Z</time>
      </trkpt>
      <trkpt lat="49.36893" lon="-1.07743">
        <ele>13.2</ele>
        <time>2020-06-16T12:24:37Z</time>
      </trkpt>
      <trkpt lat="49.36894" lon="-1.07743">
        <ele>13.3</ele>
        <time>2020-06-16T12:24:38Z</time>
      </trkpt>
      <trkpt lat="49.36894" lon="-1.07744">
        <ele>13.2</ele>
        <time>2020-06-16T12:24:39Z</time>
      </trkpt>
      <trkpt lat="49.36892" lon="-1.07747">
        <ele>13.2</ele>
        <time>2020-06-16T12:24:40Z</time>
      </trkpt>
      <trkpt lat="49.36892" lon="-1.07748">
        <ele>13.2</ele>
        <time>2020-06-16T12:24:41Z</time>
      </trkpt>
      <trkpt lat="49.36892" lon="-1.07747">
        <ele>13.2</ele>
        <time>2020-06-16T12:24:42Z</time>
      </trkpt>
      <trkpt lat="49.36891" lon="-1.07747">
        <ele>13.2</ele>
        <time>2020-06-16T12:24:43Z</time>
      </trkpt>
      <trkpt lat="49.36891" lon="-1.07748">
        <ele>13.2</ele>
        <time>2020-06-16T12:24:44Z</time>
      </trkpt>
      <trkpt lat="49.3689" lon="-1.07749">
        <ele>13.2</ele>
        <time>2020-06-16T12:24:45Z</time>
      </trkpt>
      <trkpt lat="49.3689" lon="-1.07749">
        <ele>13.2</ele>
        <time>2020-06-16T12:24:46Z</time>
      </trkpt>
      <trkpt lat="49.3689" lon="-1.0775">
        <ele>13.2</ele>
        <time>2020-06-16T12:24:47Z</time>
      </trkpt>
      <trkpt lat="49.3689" lon="-1.0775">
        <ele>13.2</ele>
        <time>2020-06-16T12:24:48Z</time>
      </trkpt>
      <trkpt lat="49.3689" lon="-1.07749">
        <ele>13.2</ele>
        <time>2020-06-16T12:24:49Z</time>
      </trkpt>
      <trkpt lat="49.3689" lon="-1.07749">
        <ele>13.2</ele>
        <time>2020-06-16T12:24:50Z</time>
      </trkpt>
      <trkpt lat="49.3689" lon="-1.07749">
        <ele>13.2</ele>
        <time>2020-06-16T12:24:51Z</time>
      </trkpt>
      <trkpt lat="49.3689" lon="-1.07749">
        <ele>13.2</ele>
        <time>2020-06-16T12:24:52Z</time>
      </trkpt>
      <trkpt lat="49.36889" lon="-1.07748">
        <ele>13.2</ele>
        <time>2020-06-16T12:24:53Z</time>
      </trkpt>
      <trkpt lat="49.36889" lon="-1.07747">
        <ele>13.3</ele>
        <time>2020-06-16T12:24:54Z</time>
      </trkpt>
      <trkpt lat="49.36889" lon="-1.07746">
        <ele>13.3</ele>
        <time>2020-06-16T12:24:55Z</time>
      </trkpt>
      <trkpt lat="49.36889" lon="-1.07744">
        <ele>13.3</ele>
        <time>2020-06-16T12:24:56Z</time>
      </trkpt>
      <trkpt lat="49.36888" lon="-1.07743">
        <ele>13.3</ele>
        <time>2020-06-16T12:24:57Z</time>
      </trkpt>
      <trkpt lat="49.36888" lon="-1.07741">
        <ele>13.3</ele>
        <time>2020-06-16T12:24:58Z</time>
      </trkpt>
      <trkpt lat="49.36888" lon="-1.0774">
        <ele>13.3</ele>
        <time>2020-06-16T12:24:59Z</time>
      </trkpt>
      <trkpt lat="49.36888" lon="-1.07739">
        <ele>13.4</ele>
        <time>2020-06-16T12:25:00Z</time>
      </trkpt>
      <trkpt lat="49.36888" lon="-1.07738">
        <ele>13.4</ele>
        <time>2020-06-16T12:25:01Z</time>
      </trkpt>
      <trkpt lat="49.36887" lon="-1.07739">
        <ele>13.3</ele>
        <time>2020-06-16T12:25:02Z</time>
      </trkpt>
      <trkpt lat="49.36887" lon="-1.07739">
        <ele>13.3</ele>
        <time>2020-06-16T12:25:03Z</time>
      </trkpt>
      <trkpt lat="49.36887" lon="-1.0774">
        <ele>13.3</ele>
        <time>2020-06-16T12:25:04Z</time>
      </trkpt>
      <trkpt lat="49.36887" lon="-1.07741">
        <ele>13.3</ele>
        <time>2020-06-16T12:25:05Z</time>
      </trkpt>
      <trkpt lat="49.36887" lon="-1.07742">
        <ele>13.3</ele>
        <time>2020-06-16T12:25:06Z</time>
      </trkpt>
      <trkpt lat="49.36887" lon="-1.07744">
        <ele>13.3</ele>
        <time>2020-06-16T12:25:07Z</time>
      </trkpt>
      <trkpt lat="49.36886" lon="-1.07745">
        <ele>13.3</ele>
        <time>2020-06-16T12:25:08Z</time>
      </trkpt>
      <trkpt lat="49.36887" lon="-1.07745">
        <ele>13.3</ele>
        <time>2020-06-16T12:25:09Z</time>
      </trkpt>
      <trkpt lat="49.36886" lon="-1.07746">
        <ele>13.3</ele>
        <time>2020-06-16T12:25:10Z</time>
      </trkpt>
      <trkpt lat="49.36886" lon="-1.07746">
        <ele>13.3</ele>
        <time>2020-06-16T12:25:11Z</time>
      </trkpt>
      <trkpt lat="49.36886" lon="-1.07745">
        <ele>13.3</ele>
        <time>2020-06-16T12:25:12Z</time>
      </trkpt>
      <trkpt lat="49.36886" lon="-1.07745">
        <ele>13.3</ele>
        <time>2020-06-16T12:25:13Z</time>
      </trkpt>
      <trkpt lat="49.36886" lon="-1.07744">
        <ele>13.3</ele>
        <time>2020-06-16T12:25:14Z</time>
      </trkpt>
      <trkpt lat="49.36886" lon="-1.07744">
        <ele>13.3</ele>
        <time>2020-06-16T12:25:15Z</time>
      </trkpt>
      <trkpt lat="49.36886" lon="-1.07743">
        <ele>13.3</ele>
        <time>2020-06-16T12:25:16Z</time>
      </trkpt>
      <trkpt lat="49.36886" lon="-1.07742">
        <ele>13.3</ele>
        <time>2020-06-16T12:25:17Z</time>
      </trkpt>
      <trkpt lat="49.36886" lon="-1.07741">
        <ele>13.3</ele>
        <time>2020-06-16T12:25:18Z</time>
      </trkpt>
      <trkpt lat="49.36886" lon="-1.0774">
        <ele>13.3</ele>
        <time>2020-06-16T12:25:19Z</time>
      </trkpt>
      <trkpt lat="49.36886" lon="-1.0774">
        <ele>13.3</ele>
        <time>2020-06-16T12:25:20Z</time>
      </trkpt>
      <trkpt lat="49.36887" lon="-1.0774">
        <ele>13.3</ele>
        <time>2020-06-16T12:25:21Z</time>
      </trkpt>
      <trkpt lat="49.36887" lon="-1.07739">
        <ele>13.3</ele>
        <time>2020-06-16T12:25:22Z</time>
      </trkpt>
      <trkpt lat="49.36886" lon="-1.07739">
        <ele>13.3</ele>
        <time>2020-06-16T12:25:23Z</time>
      </trkpt>
      <trkpt lat="49.36886" lon="-1.07739">
        <ele>13.4</ele>
        <time>2020-06-16T12:25:24Z</time>
      </trkpt>
      <trkpt lat="49.36885" lon="-1.07739">
        <ele>13.3</ele>
        <time>2020-06-16T12:25:25Z</time>
      </trkpt>
      <trkpt lat="49.36885" lon="-1.0774">
        <ele>13.3</ele>
        <time>2020-06-16T12:25:26Z</time>
      </trkpt>
      <trkpt lat="49.36885" lon="-1.07742">
        <ele>13.3</ele>
        <time>2020-06-16T12:25:27Z</time>
      </trkpt>
      <trkpt lat="49.36885" lon="-1.07744">
        <ele>13.3</ele>
        <time>2020-06-16T12:25:28Z</time>
      </trkpt>
      <trkpt lat="49.36884" lon="-1.07744">
        <ele>13.3</ele>
        <time>2020-06-16T12:25:29Z</time>
      </trkpt>
      <trkpt lat="49.36884" lon="-1.07743">
        <ele>13.3</ele>
        <time>2020-06-16T12:25:30Z</time>
      </trkpt>
      <trkpt lat="49.36884" lon="-1.07743">
        <ele>13.4</ele>
        <time>2020-06-16T12:25:31Z</time>
      </trkpt>
      <trkpt lat="49.36884" lon="-1.07743">
        <ele>13.4</ele>
        <time>2020-06-16T12:25:32Z</time>
      </trkpt>
      <trkpt lat="49.36884" lon="-1.07743">
        <ele>13.4</ele>
        <time>2020-06-16T12:25:33Z</time>
      </trkpt>
      <trkpt lat="49.36885" lon="-1.07742">
        <ele>13.4</ele>
        <time>2020-06-16T12:25:34Z</time>
      </trkpt>
      <trkpt lat="49.36885" lon="-1.07741">
        <ele>13.3</ele>
        <time>2020-06-16T12:25:35Z</time>
      </trkpt>
      <trkpt lat="49.36885" lon="-1.0774">
        <ele>13.3</ele>
        <time>2020-06-16T12:25:36Z</time>
      </trkpt>
      <trkpt lat="49.36885" lon="-1.0774">
        <ele>13.3</ele>
        <time>2020-06-16T12:25:37Z</time>
      </trkpt>
      <trkpt lat="49.36886" lon="-1.07739">
        <ele>13.3</ele>
        <time>2020-06-16T12:25:38Z</time>
      </trkpt>
      <trkpt lat="49.36886" lon="-1.07739">
        <ele>13.3</ele>
        <time>2020-06-16T12:25:39Z</time>
      </trkpt>
      <trkpt lat="49.36886" lon="-1.07739">
        <ele>13.3</ele>
        <time>2020-06-16T12:25:40Z</time>
      </trkpt>
      <trkpt lat="49.36886" lon="-1.07739">
        <ele>13.3</ele>
        <time>2020-06-16T12:25:41Z</time>
      </trkpt>
      <trkpt lat="49.36886" lon="-1.07739">
        <ele>13.4</ele>
        <time>2020-06-16T12:25:42Z</time>
      </trkpt>
      <trkpt lat="49.36886" lon="-1.07739">
        <ele>13.4</ele>
        <time>2020-06-16T12:25:43Z</time>
      </trkpt>
      <trkpt lat="49.36887" lon="-1.07738">
        <ele>13.4</ele>
        <time>2020-06-16T12:25:44Z</time>
      </trkpt>
      <trkpt lat="49.36887" lon="-1.07737">
        <ele>13.4</ele>
        <time>2020-06-16T12:25:45Z</time>
      </trkpt>
      <trkpt lat="49.36887" lon="-1.07738">
        <ele>13.4</ele>
        <time>2020-06-16T12:25:46Z</time>
      </trkpt>
      <trkpt lat="49.36887" lon="-1.07737">
        <ele>13.4</ele>
        <time>2020-06-16T12:25:47Z</time>
      </trkpt>
      <trkpt lat="49.36886" lon="-1.07736">
        <ele>13.4</ele>
        <time>2020-06-16T12:25:48Z</time>
      </trkpt>
      <trkpt lat="49.36886" lon="-1.07735">
        <ele>13.4</ele>
        <time>2020-06-16T12:25:49Z</time>
      </trkpt>
      <trkpt lat="49.36886" lon="-1.07734">
        <ele>13.4</ele>
        <time>2020-06-16T12:25:50Z</time>
      </trkpt>
      <trkpt lat="49.36885" lon="-1.07733">
        <ele>13.4</ele>
        <time>2020-06-16T12:25:51Z</time>
      </trkpt>
      <trkpt lat="49.36885" lon="-1.07731">
        <ele>13.4</ele>
        <time>2020-06-16T12:25:52Z</time>
      </trkpt>
      <trkpt lat="49.36885" lon="-1.07731">
        <ele>13.4</ele>
        <time>2020-06-16T12:25:53Z</time>
      </trkpt>
      <trkpt lat="49.36885" lon="-1.0773">
        <ele>13.4</ele>
        <time>2020-06-16T12:25:54Z</time>
      </trkpt>
      <trkpt lat="49.36885" lon="-1.07731">
        <ele>13.4</ele>
        <time>2020-06-16T12:25:55Z</time>
      </trkpt>
      <trkpt lat="49.36885" lon="-1.07731">
        <ele>13.4</ele>
        <time>2020-06-16T12:25:56Z</time>
      </trkpt>
      <trkpt lat="49.36885" lon="-1.07731">
        <ele>13.4</ele>
        <time>2020-06-16T12:25:57Z</time>
      </trkpt>
      <trkpt lat="49.36884" lon="-1.07731">
        <ele>13.4</ele>
        <time>2020-06-16T12:25:58Z</time>
      </trkpt>
      <trkpt lat="49.36885" lon="-1.07731">
        <ele>13.4</ele>
        <time>2020-06-16T12:25:59Z</time>
      </trkpt>
      <trkpt lat="49.36885" lon="-1.07732">
        <ele>13.4</ele>
        <time>2020-06-16T12:26:00Z</time>
      </trkpt>
      <trkpt lat="49.36885" lon="-1.07733">
        <ele>13.4</ele>
        <time>2020-06-16T12:26:01Z</time>
      </trkpt>
      <trkpt lat="49.36885" lon="-1.07734">
        <ele>13.4</ele>
        <time>2020-06-16T12:26:02Z</time>
      </trkpt>
      <trkpt lat="49.36884" lon="-1.07736">
        <ele>13.4</ele>
        <time>2020-06-16T12:26:03Z</time>
      </trkpt>
      <trkpt lat="49.36884" lon="-1.07736">
        <ele>13.4</ele>
        <time>2020-06-16T12:26:04Z</time>
      </trkpt>
      <trkpt lat="49.36884" lon="-1.07736">
        <ele>13.4</ele>
        <time>2020-06-16T12:26:05Z</time>
      </trkpt>
      <trkpt lat="49.36884" lon="-1.07737">
        <ele>13.4</ele>
        <time>2020-06-16T12:26:06Z</time>
      </trkpt>
      <trkpt lat="49.36882" lon="-1.07736">
        <ele>13.4</ele>
        <time>2020-06-16T12:26:07Z</time>
      </trkpt>
      <trkpt lat="49.36881" lon="-1.07734">
        <ele>13.5</ele>
        <time>2020-06-16T12:26:08Z</time>
      </trkpt>
      <trkpt lat="49.3688" lon="-1.07737">
        <ele>13.4</ele>
        <time>2020-06-16T12:26:09Z</time>
      </trkpt>
      <trkpt lat="49.36879" lon="-1.07739">
        <ele>13.4</ele>
        <time>2020-06-16T12:26:10Z</time>
      </trkpt>
      <trkpt lat="49.36879" lon="-1.07739">
        <ele>13.4</ele>
        <time>2020-06-16T12:26:11Z</time>
      </trkpt>
      <trkpt lat="49.36878" lon="-1.07743">
        <ele>13.4</ele>
        <time>2020-06-16T12:26:12Z</time>
      </trkpt>
      <trkpt lat="49.36878" lon="-1.07744">
        <ele>13.3</ele>
        <time>2020-06-16T12:26:13Z</time>
      </trkpt>
      <trkpt lat="49.36877" lon="-1.07743">
        <ele>13.3</ele>
        <time>2020-06-16T12:26:14Z</time>
      </trkpt>
      <trkpt lat="49.36876" lon="-1.07743">
        <ele>13.4</ele>
        <time>2020-06-16T12:26:15Z</time>
      </trkpt>
      <trkpt lat="49.36875" lon="-1.07743">
        <ele>13.4</ele>
        <time>2020-06-16T12:26:16Z</time>
      </trkpt>
      <trkpt lat="49.36875" lon="-1.07743">
        <ele>13.4</ele>
        <time>2020-06-16T12:26:17Z</time>
      </trkpt>
      <trkpt lat="49.36874" lon="-1.07744">
        <ele>13.4</ele>
        <time>2020-06-16T12:26:18Z</time>
      </trkpt>
      <trkpt lat="49.36874" lon="-1.07745">
        <ele>13.4</ele>
        <time>2020-06-16T12:26:19Z</time>
      </trkpt>
      <trkpt lat="49.36874" lon="-1.07746">
        <ele>13.4</ele>
        <time>2020-06-16T12:26:20Z</time>
      </trkpt>
      <trkpt lat="49.36873" lon="-1.07746">
        <ele>13.4</ele>
        <time>2020-06-16T12:26:21Z</time>
      </trkpt>
      <trkpt lat="49.36873" lon="-1.07748">
        <ele>13.3</ele>
        <time>2020-06-16T12:26:22Z</time>
      </trkpt>
      <trkpt lat="49.36873" lon="-1.07749">
        <ele>13.3</ele>
        <time>2020-06-16T12:26:23Z</time>
      </trkpt>
      <trkpt lat="49.36873" lon="-1.0775">
        <ele>13.3</ele>
        <time>2020-06-16T12:26:24Z</time>
      </trkpt>
      <trkpt lat="49.36872" lon="-1.07752">
        <ele>13.3</ele>
        <time>2020-06-16T12:26:25Z</time>
      </trkpt>
      <trkpt lat="49.36872" lon="-1.07753">
        <ele>13.3</ele>
        <time>2020-06-16T12:26:26Z</time>
      </trkpt>
      <trkpt lat="49.36872" lon="-1.07753">
        <ele>13.3</ele>
        <time>2020-06-16T12:26:27Z</time>
      </trkpt>
      <trkpt lat="49.36872" lon="-1.07755">
        <ele>13.3</ele>
        <time>2020-06-16T12:26:28Z</time>
      </trkpt>
      <trkpt lat="49.36872" lon="-1.07756">
        <ele>13.2</ele>
        <time>2020-06-16T12:26:29Z</time>
      </trkpt>
      <trkpt lat="49.36872" lon="-1.07758">
        <ele>13.2</ele>
        <time>2020-06-16T12:26:30Z</time>
      </trkpt>
      <trkpt lat="49.36871" lon="-1.07758">
        <ele>13.2</ele>
        <time>2020-06-16T12:26:31Z</time>
      </trkpt>
      <trkpt lat="49.36871" lon="-1.07759">
        <ele>13.2</ele>
        <time>2020-06-16T12:26:32Z</time>
      </trkpt>
      <trkpt lat="49.3687" lon="-1.07759">
        <ele>13.2</ele>
        <time>2020-06-16T12:26:33Z</time>
      </trkpt>
      <trkpt lat="49.36869" lon="-1.0776">
        <ele>13.2</ele>
        <time>2020-06-16T12:26:34Z</time>
      </trkpt>
      <trkpt lat="49.36868" lon="-1.07761">
        <ele>13.2</ele>
        <time>2020-06-16T12:26:35Z</time>
      </trkpt>
      <trkpt lat="49.36867" lon="-1.07762">
        <ele>13.2</ele>
        <time>2020-06-16T12:26:36Z</time>
      </trkpt>
      <trkpt lat="49.36867" lon="-1.07762">
        <ele>13.2</ele>
        <time>2020-06-16T12:26:37Z</time>
      </trkpt>
      <trkpt lat="49.36866" lon="-1.07762">
        <ele>13.2</ele>
        <time>2020-06-16T12:26:38Z</time>
      </trkpt>
      <trkpt lat="49.36865" lon="-1.07761">
        <ele>13.2</ele>
        <time>2020-06-16T12:26:39Z</time>
      </trkpt>
      <trkpt lat="49.36864" lon="-1.0776">
        <ele>13.3</ele>
        <time>2020-06-16T12:26:40Z</time>
      </trkpt>
      <trkpt lat="49.36863" lon="-1.0776">
        <ele>13.3</ele>
        <time>2020-06-16T12:26:41Z</time>
      </trkpt>
      <trkpt lat="49.36862" lon="-1.0776">
        <ele>13.3</ele>
        <time>2020-06-16T12:26:42Z</time>
      </trkpt>
      <trkpt lat="49.36861" lon="-1.07759">
        <ele>13.3</ele>
        <time>2020-06-16T12:26:43Z</time>
      </trkpt>
      <trkpt lat="49.36861" lon="-1.07758">
        <ele>13.3</ele>
        <time>2020-06-16T12:26:44Z</time>
      </trkpt>
      <trkpt lat="49.36861" lon="-1.07757">
        <ele>13.3</ele>
        <time>2020-06-16T12:26:45Z</time>
      </trkpt>
      <trkpt lat="49.36861" lon="-1.07758">
        <ele>13.3</ele>
        <time>2020-06-16T12:26:46Z</time>
      </trkpt>
      <trkpt lat="49.36861" lon="-1.07759">
        <ele>13.3</ele>
        <time>2020-06-16T12:26:47Z</time>
      </trkpt>
      <trkpt lat="49.36862" lon="-1.0776">
        <ele>13.3</ele>
        <time>2020-06-16T12:26:48Z</time>
      </trkpt>
      <trkpt lat="49.36862" lon="-1.07761">
        <ele>13.2</ele>
        <time>2020-06-16T12:26:49Z</time>
      </trkpt>
      <trkpt lat="49.36862" lon="-1.07761">
        <ele>13.2</ele>
        <time>2020-06-16T12:26:50Z</time>
      </trkpt>
      <trkpt lat="49.36862" lon="-1.07762">
        <ele>13.2</ele>
        <time>2020-06-16T12:26:51Z</time>
      </trkpt>
      <trkpt lat="49.36863" lon="-1.07763">
        <ele>13.2</ele>
        <time>2020-06-16T12:26:52Z</time>
      </trkpt>
      <trkpt lat="49.36863" lon="-1.07764">
        <ele>13.2</ele>
        <time>2020-06-16T12:26:53Z</time>
      </trkpt>
      <trkpt lat="49.36863" lon="-1.07764">
        <ele>13.2</ele>
        <time>2020-06-16T12:26:54Z</time>
      </trkpt>
      <trkpt lat="49.36863" lon="-1.07764">
        <ele>13.2</ele>
        <time>2020-06-16T12:26:55Z</time>
      </trkpt>
      <trkpt lat="49.36864" lon="-1.07765">
        <ele>13.2</ele>
        <time>2020-06-16T12:26:56Z</time>
      </trkpt>
      <trkpt lat="49.36864" lon="-1.07766">
        <ele>13.1</ele>
        <time>2020-06-16T12:26:57Z</time>
      </trkpt>
      <trkpt lat="49.36864" lon="-1.07766">
        <ele>13.1</ele>
        <time>2020-06-16T12:26:58Z</time>
      </trkpt>
      <trkpt lat="49.36864" lon="-1.07767">
        <ele>13.1</ele>
        <time>2020-06-16T12:26:59Z</time>
      </trkpt>
      <trkpt lat="49.36864" lon="-1.07767">
        <ele>13.1</ele>
        <time>2020-06-16T12:27:00Z</time>
      </trkpt>
      <trkpt lat="49.36864" lon="-1.07767">
        <ele>13.1</ele>
        <time>2020-06-16T12:27:01Z</time>
      </trkpt>
      <trkpt lat="49.36864" lon="-1.07767">
        <ele>13.1</ele>
        <time>2020-06-16T12:27:02Z</time>
      </trkpt>
      <trkpt lat="49.36864" lon="-1.07767">
        <ele>13.1</ele>
        <time>2020-06-16T12:27:03Z</time>
      </trkpt>
      <trkpt lat="49.36863" lon="-1.07768">
        <ele>13.1</ele>
        <time>2020-06-16T12:27:04Z</time>
      </trkpt>
      <trkpt lat="49.36863" lon="-1.07768">
        <ele>13.1</ele>
        <time>2020-06-16T12:27:05Z</time>
      </trkpt>
      <trkpt lat="49.36863" lon="-1.07768">
        <ele>13.1</ele>
        <time>2020-06-16T12:27:06Z</time>
      </trkpt>
      <trkpt lat="49.36863" lon="-1.07767">
        <ele>13.1</ele>
        <time>2020-06-16T12:27:07Z</time>
      </trkpt>
      <trkpt lat="49.36863" lon="-1.07767">
        <ele>13.1</ele>
        <time>2020-06-16T12:27:08Z</time>
      </trkpt>
      <trkpt lat="49.36863" lon="-1.07766">
        <ele>13.1</ele>
        <time>2020-06-16T12:27:09Z</time>
      </trkpt>
      <trkpt lat="49.36863" lon="-1.07765">
        <ele>13.1</ele>
        <time>2020-06-16T12:27:10Z</time>
      </trkpt>
      <trkpt lat="49.36862" lon="-1.07764">
        <ele>13.2</ele>
        <time>2020-06-16T12:27:11Z</time>
      </trkpt>
      <trkpt lat="49.36862" lon="-1.07764">
        <ele>13.2</ele>
        <time>2020-06-16T12:27:12Z</time>
      </trkpt>
      <trkpt lat="49.36861" lon="-1.07763">
        <ele>13.2</ele>
        <time>2020-06-16T12:27:13Z</time>
      </trkpt>
      <trkpt lat="49.36861" lon="-1.07763">
        <ele>13.2</ele>
        <time>2020-06-16T12:27:14Z</time>
      </trkpt>
      <trkpt lat="49.36861" lon="-1.07762">
        <ele>13.2</ele>
        <time>2020-06-16T12:27:15Z</time>
      </trkpt>
      <trkpt lat="49.36861" lon="-1.07762">
        <ele>13.2</ele>
        <time>2020-06-16T12:27:16Z</time>
      </trkpt>
      <trkpt lat="49.36861" lon="-1.07762">
        <ele>13.2</ele>
        <time>2020-06-16T12:27:17Z</time>
      </trkpt>
      <trkpt lat="49.36861" lon="-1.07761">
        <ele>13.2</ele>
        <time>2020-06-16T12:27:18Z</time>
      </trkpt>
      <trkpt lat="49.36861" lon="-1.0776">
        <ele>13.3</ele>
        <time>2020-06-16T12:27:19Z</time>
      </trkpt>
      <trkpt lat="49.3686" lon="-1.0776">
        <ele>13.3</ele>
        <time>2020-06-16T12:27:20Z</time>
      </trkpt>
      <trkpt lat="49.36861" lon="-1.07759">
        <ele>13.3</ele>
        <time>2020-06-16T12:27:21Z</time>
      </trkpt>
      <trkpt lat="49.36861" lon="-1.07759">
        <ele>13.3</ele>
        <time>2020-06-16T12:27:22Z</time>
      </trkpt>
      <trkpt lat="49.36862" lon="-1.07759">
        <ele>13.3</ele>
        <time>2020-06-16T12:27:23Z</time>
      </trkpt>
      <trkpt lat="49.36862" lon="-1.07758">
        <ele>13.3</ele>
        <time>2020-06-16T12:27:24Z</time>
      </trkpt>
      <trkpt lat="49.36862" lon="-1.07758">
        <ele>13.3</ele>
        <time>2020-06-16T12:27:25Z</time>
      </trkpt>
      <trkpt lat="49.36862" lon="-1.07758">
        <ele>13.3</ele>
        <time>2020-06-16T12:27:26Z</time>
      </trkpt>
      <trkpt lat="49.36863" lon="-1.07758">
        <ele>13.3</ele>
        <time>2020-06-16T12:27:27Z</time>
      </trkpt>
      <trkpt lat="49.36863" lon="-1.07758">
        <ele>13.3</ele>
        <time>2020-06-16T12:27:28Z</time>
      </trkpt>
      <trkpt lat="49.36863" lon="-1.07759">
        <ele>13.3</ele>
        <time>2020-06-16T12:27:29Z</time>
      </trkpt>
      <trkpt lat="49.36862" lon="-1.0776">
        <ele>13.3</ele>
        <time>2020-06-16T12:27:30Z</time>
      </trkpt>
      <trkpt lat="49.36862" lon="-1.0776">
        <ele>13.3</ele>
        <time>2020-06-16T12:27:31Z</time>
      </trkpt>
      <trkpt lat="49.36861" lon="-1.07762">
        <ele>13.2</ele>
        <time>2020-06-16T12:27:32Z</time>
      </trkpt>
      <trkpt lat="49.36861" lon="-1.07763">
        <ele>13.2</ele>
        <time>2020-06-16T12:27:33Z</time>
      </trkpt>
      <trkpt lat="49.3686" lon="-1.07764">
        <ele>13.2</ele>
        <time>2020-06-16T12:27:34Z</time>
      </trkpt>
      <trkpt lat="49.3686" lon="-1.07765">
        <ele>13.3</ele>
        <time>2020-06-16T12:27:35Z</time>
      </trkpt>
      <trkpt lat="49.3686" lon="-1.07766">
        <ele>13.2</ele>
        <time>2020-06-16T12:27:36Z</time>
      </trkpt>
      <trkpt lat="49.3686" lon="-1.07767">
        <ele>13.2</ele>
        <time>2020-06-16T12:27:37Z</time>
      </trkpt>
      <trkpt lat="49.3686" lon="-1.07769">
        <ele>13.1</ele>
        <time>2020-06-16T12:27:38Z</time>
      </trkpt>
      <trkpt lat="49.3686" lon="-1.07771">
        <ele>13.1</ele>
        <time>2020-06-16T12:27:39Z</time>
      </trkpt>
      <trkpt lat="49.3686" lon="-1.07773">
        <ele>13.1</ele>
        <time>2020-06-16T12:27:40Z</time>
      </trkpt>
      <trkpt lat="49.3686" lon="-1.07774">
        <ele>13</ele>
        <time>2020-06-16T12:27:41Z</time>
      </trkpt>
      <trkpt lat="49.3686" lon="-1.07775">
        <ele>13</ele>
        <time>2020-06-16T12:27:42Z</time>
      </trkpt>
      <trkpt lat="49.3686" lon="-1.07775">
        <ele>13</ele>
        <time>2020-06-16T12:27:43Z</time>
      </trkpt>
      <trkpt lat="49.3686" lon="-1.07775">
        <ele>13</ele>
        <time>2020-06-16T12:27:44Z</time>
      </trkpt>
      <trkpt lat="49.36861" lon="-1.07775">
        <ele>13</ele>
        <time>2020-06-16T12:27:45Z</time>
      </trkpt>
      <trkpt lat="49.36861" lon="-1.07775">
        <ele>13</ele>
        <time>2020-06-16T12:27:46Z</time>
      </trkpt>
      <trkpt lat="49.36861" lon="-1.07775">
        <ele>13</ele>
        <time>2020-06-16T12:27:47Z</time>
      </trkpt>
      <trkpt lat="49.36861" lon="-1.07775">
        <ele>13</ele>
        <time>2020-06-16T12:27:48Z</time>
      </trkpt>
      <trkpt lat="49.36861" lon="-1.07775">
        <ele>13</ele>
        <time>2020-06-16T12:27:49Z</time>
      </trkpt>
      <trkpt lat="49.36861" lon="-1.07775">
        <ele>13</ele>
        <time>2020-06-16T12:27:50Z</time>
      </trkpt>
      <trkpt lat="49.36862" lon="-1.07774">
        <ele>13</ele>
        <time>2020-06-16T12:27:51Z</time>
      </trkpt>
      <trkpt lat="49.36862" lon="-1.07774">
        <ele>13</ele>
        <time>2020-06-16T12:27:52Z</time>
      </trkpt>
      <trkpt lat="49.36862" lon="-1.07774">
        <ele>13</ele>
        <time>2020-06-16T12:27:53Z</time>
      </trkpt>
      <trkpt lat="49.36853" lon="-1.0778">
        <ele>13</ele>
        <time>2020-06-16T12:28:17Z</time>
      </trkpt>
      <trkpt lat="49.36853" lon="-1.0778">
        <ele>13</ele>
        <time>2020-06-16T12:28:18Z</time>
      </trkpt>
      <trkpt lat="49.36853" lon="-1.07781">
        <ele>13</ele>
        <time>2020-06-16T12:28:19Z</time>
      </trkpt>
      <trkpt lat="49.36853" lon="-1.07781">
        <ele>13</ele>
        <time>2020-06-16T12:28:20Z</time>
      </trkpt>
      <trkpt lat="49.36853" lon="-1.07781">
        <ele>13</ele>
        <time>2020-06-16T12:28:21Z</time>
      </trkpt>
      <trkpt lat="49.36854" lon="-1.07782">
        <ele>12.9</ele>
        <time>2020-06-16T12:28:22Z</time>
      </trkpt>
      <trkpt lat="49.36854" lon="-1.07782">
        <ele>12.9</ele>
        <time>2020-06-16T12:28:23Z</time>
      </trkpt>
      <trkpt lat="49.36854" lon="-1.07782">
        <ele>12.9</ele>
        <time>2020-06-16T12:28:24Z</time>
      </trkpt>
      <trkpt lat="49.36854" lon="-1.07783">
        <ele>12.9</ele>
        <time>2020-06-16T12:28:25Z</time>
      </trkpt>
      <trkpt lat="49.36854" lon="-1.07783">
        <ele>12.9</ele>
        <time>2020-06-16T12:28:26Z</time>
      </trkpt>
      <trkpt lat="49.36854" lon="-1.07783">
        <ele>12.9</ele>
        <time>2020-06-16T12:28:27Z</time>
      </trkpt>
      <trkpt lat="49.36854" lon="-1.07783">
        <ele>12.9</ele>
        <time>2020-06-16T12:28:28Z</time>
      </trkpt>
      <trkpt lat="49.36854" lon="-1.07783">
        <ele>12.9</ele>
        <time>2020-06-16T12:28:29Z</time>
      </trkpt>
      <trkpt lat="49.36854" lon="-1.07783">
        <ele>12.9</ele>
        <time>2020-06-16T12:28:30Z</time>
      </trkpt>
      <trkpt lat="49.36854" lon="-1.07784">
        <ele>12.9</ele>
        <time>2020-06-16T12:28:31Z</time>
      </trkpt>
      <trkpt lat="49.36855" lon="-1.07784">
        <ele>12.9</ele>
        <time>2020-06-16T12:28:32Z</time>
      </trkpt>
      <trkpt lat="49.3685" lon="-1.07784">
        <ele>12.9</ele>
        <time>2020-06-16T12:28:38Z</time>
      </trkpt>
      <trkpt lat="49.3685" lon="-1.07784">
        <ele>12.9</ele>
        <time>2020-06-16T12:28:39Z</time>
      </trkpt>
      <trkpt lat="49.36849" lon="-1.07784">
        <ele>12.9</ele>
        <time>2020-06-16T12:28:40Z</time>
      </trkpt>
      <trkpt lat="49.36849" lon="-1.07783">
        <ele>12.9</ele>
        <time>2020-06-16T12:28:41Z</time>
      </trkpt>
      <trkpt lat="49.36849" lon="-1.07783">
        <ele>12.9</ele>
        <time>2020-06-16T12:28:42Z</time>
      </trkpt>
      <trkpt lat="49.36849" lon="-1.07784">
        <ele>12.9</ele>
        <time>2020-06-16T12:28:43Z</time>
      </trkpt>
      <trkpt lat="49.36849" lon="-1.07784">
        <ele>12.9</ele>
        <time>2020-06-16T12:28:44Z</time>
      </trkpt>
      <trkpt lat="49.36849" lon="-1.07784">
        <ele>12.9</ele>
        <time>2020-06-16T12:28:45Z</time>
      </trkpt>
      <trkpt lat="49.36849" lon="-1.07784">
        <ele>12.9</ele>
        <time>2020-06-16T12:28:46Z</time>
      </trkpt>
      <trkpt lat="49.36849" lon="-1.07784">
        <ele>12.9</ele>
        <time>2020-06-16T12:28:47Z</time>
      </trkpt>
      <trkpt lat="49.3685" lon="-1.07785">
        <ele>12.9</ele>
        <time>2020-06-16T12:28:48Z</time>
      </trkpt>
      <trkpt lat="49.3685" lon="-1.07785">
        <ele>12.9</ele>
        <time>2020-06-16T12:28:49Z</time>
      </trkpt>
      <trkpt lat="49.3685" lon="-1.07785">
        <ele>12.9</ele>
        <time>2020-06-16T12:28:50Z</time>
      </trkpt>
      <trkpt lat="49.3685" lon="-1.07785">
        <ele>12.9</ele>
        <time>2020-06-16T12:28:51Z</time>
      </trkpt>
      <trkpt lat="49.36849" lon="-1.07784">
        <ele>12.9</ele>
        <time>2020-06-16T12:28:52Z</time>
      </trkpt>
      <trkpt lat="49.3685" lon="-1.07784">
        <ele>12.9</ele>
        <time>2020-06-16T12:28:53Z</time>
      </trkpt>
      <trkpt lat="49.3685" lon="-1.07784">
        <ele>12.9</ele>
        <time>2020-06-16T12:28:54Z</time>
      </trkpt>
      <trkpt lat="49.3685" lon="-1.07783">
        <ele>12.9</ele>
        <time>2020-06-16T12:28:55Z</time>
      </trkpt>
      <trkpt lat="49.36849" lon="-1.07782">
        <ele>12.9</ele>
        <time>2020-06-16T12:28:56Z</time>
      </trkpt>
      <trkpt lat="49.36849" lon="-1.07783">
        <ele>12.9</ele>
        <time>2020-06-16T12:28:57Z</time>
      </trkpt>
      <trkpt lat="49.36849" lon="-1.07783">
        <ele>12.9</ele>
        <time>2020-06-16T12:28:58Z</time>
      </trkpt>
      <trkpt lat="49.3685" lon="-1.07784">
        <ele>12.9</ele>
        <time>2020-06-16T12:28:59Z</time>
      </trkpt>
      <trkpt lat="49.3685" lon="-1.07785">
        <ele>12.9</ele>
        <time>2020-06-16T12:29:00Z</time>
      </trkpt>
      <trkpt lat="49.36851" lon="-1.07786">
        <ele>12.9</ele>
        <time>2020-06-16T12:29:01Z</time>
      </trkpt>
      <trkpt lat="49.36851" lon="-1.07787">
        <ele>12.8</ele>
        <time>2020-06-16T12:29:02Z</time>
      </trkpt>
      <trkpt lat="49.36852" lon="-1.07788">
        <ele>12.8</ele>
        <time>2020-06-16T12:29:03Z</time>
      </trkpt>
      <trkpt lat="49.36852" lon="-1.07788">
        <ele>12.8</ele>
        <time>2020-06-16T12:29:04Z</time>
      </trkpt>
      <trkpt lat="49.36852" lon="-1.07788">
        <ele>12.8</ele>
        <time>2020-06-16T12:29:05Z</time>
      </trkpt>
      <trkpt lat="49.36852" lon="-1.07788">
        <ele>12.8</ele>
        <time>2020-06-16T12:29:06Z</time>
      </trkpt>
      <trkpt lat="49.36852" lon="-1.07789">
        <ele>12.8</ele>
        <time>2020-06-16T12:29:07Z</time>
      </trkpt>
      <trkpt lat="49.36852" lon="-1.07789">
        <ele>12.8</ele>
        <time>2020-06-16T12:29:08Z</time>
      </trkpt>
      <trkpt lat="49.36852" lon="-1.07788">
        <ele>12.8</ele>
        <time>2020-06-16T12:29:09Z</time>
      </trkpt>
      <trkpt lat="49.36852" lon="-1.07788">
        <ele>12.8</ele>
        <time>2020-06-16T12:29:10Z</time>
      </trkpt>
      <trkpt lat="49.36852" lon="-1.07788">
        <ele>12.8</ele>
        <time>2020-06-16T12:29:11Z</time>
      </trkpt>
      <trkpt lat="49.36852" lon="-1.07788">
        <ele>12.8</ele>
        <time>2020-06-16T12:29:12Z</time>
      </trkpt>
      <trkpt lat="49.36852" lon="-1.07789">
        <ele>12.8</ele>
        <time>2020-06-16T12:29:13Z</time>
      </trkpt>
      <trkpt lat="49.36852" lon="-1.07789">
        <ele>12.8</ele>
        <time>2020-06-16T12:29:14Z</time>
      </trkpt>
      <trkpt lat="49.36852" lon="-1.0779">
        <ele>12.8</ele>
        <time>2020-06-16T12:29:15Z</time>
      </trkpt>
      <trkpt lat="49.36852" lon="-1.0779">
        <ele>12.8</ele>
        <time>2020-06-16T12:29:16Z</time>
      </trkpt>
      <trkpt lat="49.36852" lon="-1.0779">
        <ele>12.8</ele>
        <time>2020-06-16T12:29:17Z</time>
      </trkpt>
      <trkpt lat="49.36852" lon="-1.0779">
        <ele>12.8</ele>
        <time>2020-06-16T12:29:18Z</time>
      </trkpt>
      <trkpt lat="49.36851" lon="-1.07789">
        <ele>12.8</ele>
        <time>2020-06-16T12:29:19Z</time>
      </trkpt>
      <trkpt lat="49.36851" lon="-1.07788">
        <ele>12.8</ele>
        <time>2020-06-16T12:29:20Z</time>
      </trkpt>
      <trkpt lat="49.36851" lon="-1.07787">
        <ele>12.8</ele>
        <time>2020-06-16T12:29:21Z</time>
      </trkpt>
      <trkpt lat="49.3685" lon="-1.07787">
        <ele>12.8</ele>
        <time>2020-06-16T12:29:22Z</time>
      </trkpt>
      <trkpt lat="49.3685" lon="-1.07786">
        <ele>12.8</ele>
        <time>2020-06-16T12:29:23Z</time>
      </trkpt>
      <trkpt lat="49.3685" lon="-1.07785">
        <ele>12.9</ele>
        <time>2020-06-16T12:29:24Z</time>
      </trkpt>
      <trkpt lat="49.3685" lon="-1.07785">
        <ele>12.9</ele>
        <time>2020-06-16T12:29:25Z</time>
      </trkpt>
      <trkpt lat="49.3685" lon="-1.07785">
        <ele>12.9</ele>
        <time>2020-06-16T12:29:26Z</time>
      </trkpt>
      <trkpt lat="49.3685" lon="-1.07784">
        <ele>12.9</ele>
        <time>2020-06-16T12:29:27Z</time>
      </trkpt>
      <trkpt lat="49.3685" lon="-1.07784">
        <ele>12.9</ele>
        <time>2020-06-16T12:29:28Z</time>
      </trkpt>
      <trkpt lat="49.36849" lon="-1.07783">
        <ele>12.9</ele>
        <time>2020-06-16T12:29:29Z</time>
      </trkpt>
      <trkpt lat="49.36849" lon="-1.07783">
        <ele>12.9</ele>
        <time>2020-06-16T12:29:30Z</time>
      </trkpt>
      <trkpt lat="49.36849" lon="-1.07784">
        <ele>12.9</ele>
        <time>2020-06-16T12:29:31Z</time>
      </trkpt>
      <trkpt lat="49.36849" lon="-1.07784">
        <ele>12.9</ele>
        <time>2020-06-16T12:29:32Z</time>
      </trkpt>
      <trkpt lat="49.36849" lon="-1.07784">
        <ele>12.9</ele>
        <time>2020-06-16T12:29:33Z</time>
      </trkpt>
      <trkpt lat="49.36848" lon="-1.07784">
        <ele>12.9</ele>
        <time>2020-06-16T12:29:34Z</time>
      </trkpt>
      <trkpt lat="49.36848" lon="-1.07783">
        <ele>12.9</ele>
        <time>2020-06-16T12:29:35Z</time>
      </trkpt>
      <trkpt lat="49.36848" lon="-1.07782">
        <ele>12.9</ele>
        <time>2020-06-16T12:29:36Z</time>
      </trkpt>
      <trkpt lat="49.36848" lon="-1.07781">
        <ele>13</ele>
        <time>2020-06-16T12:29:37Z</time>
      </trkpt>
      <trkpt lat="49.36848" lon="-1.0778">
        <ele>13</ele>
        <time>2020-06-16T12:29:38Z</time>
      </trkpt>
      <trkpt lat="49.36848" lon="-1.0778">
        <ele>13</ele>
        <time>2020-06-16T12:29:39Z</time>
      </trkpt>
      <trkpt lat="49.36848" lon="-1.07779">
        <ele>13</ele>
        <time>2020-06-16T12:29:40Z</time>
      </trkpt>
      <trkpt lat="49.36848" lon="-1.07779">
        <ele>13</ele>
        <time>2020-06-16T12:29:41Z</time>
      </trkpt>
      <trkpt lat="49.36848" lon="-1.07779">
        <ele>13</ele>
        <time>2020-06-16T12:29:42Z</time>
      </trkpt>
      <trkpt lat="49.36848" lon="-1.0778">
        <ele>13</ele>
        <time>2020-06-16T12:29:43Z</time>
      </trkpt>
      <trkpt lat="49.36849" lon="-1.0778">
        <ele>13</ele>
        <time>2020-06-16T12:29:44Z</time>
      </trkpt>
      <trkpt lat="49.36849" lon="-1.0778">
        <ele>13</ele>
        <time>2020-06-16T12:29:45Z</time>
      </trkpt>
      <trkpt lat="49.36849" lon="-1.0778">
        <ele>13</ele>
        <time>2020-06-16T12:29:46Z</time>
      </trkpt>
      <trkpt lat="49.36849" lon="-1.07781">
        <ele>13</ele>
        <time>2020-06-16T12:29:47Z</time>
      </trkpt>
      <trkpt lat="49.36849" lon="-1.07781">
        <ele>13</ele>
        <time>2020-06-16T12:29:48Z</time>
      </trkpt>
      <trkpt lat="49.36849" lon="-1.07781">
        <ele>13</ele>
        <time>2020-06-16T12:29:49Z</time>
      </trkpt>
      <trkpt lat="49.3685" lon="-1.0778">
        <ele>13</ele>
        <time>2020-06-16T12:29:50Z</time>
      </trkpt>
      <trkpt lat="49.36851" lon="-1.0778">
        <ele>13</ele>
        <time>2020-06-16T12:29:51Z</time>
      </trkpt>
      <trkpt lat="49.36852" lon="-1.07779">
        <ele>13</ele>
        <time>2020-06-16T12:29:52Z</time>
      </trkpt>
      <trkpt lat="49.36852" lon="-1.07779">
        <ele>13</ele>
        <time>2020-06-16T12:29:53Z</time>
      </trkpt>
      <trkpt lat="49.36853" lon="-1.07779">
        <ele>13</ele>
        <time>2020-06-16T12:29:54Z</time>
      </trkpt>
      <trkpt lat="49.36853" lon="-1.07779">
        <ele>13</ele>
        <time>2020-06-16T12:29:55Z</time>
      </trkpt>
      <trkpt lat="49.36853" lon="-1.07778">
        <ele>13</ele>
        <time>2020-06-16T12:29:56Z</time>
      </trkpt>
      <trkpt lat="49.36853" lon="-1.07778">
        <ele>13</ele>
        <time>2020-06-16T12:29:57Z</time>
      </trkpt>
      <trkpt lat="49.36853" lon="-1.07778">
        <ele>13</ele>
        <time>2020-06-16T12:29:58Z</time>
      </trkpt>
      <trkpt lat="49.36853" lon="-1.07778">
        <ele>13</ele>
        <time>2020-06-16T12:29:59Z</time>
      </trkpt>
      <trkpt lat="49.36854" lon="-1.07779">
        <ele>13</ele>
        <time>2020-06-16T12:30:00Z</time>
      </trkpt>
      <trkpt lat="49.36855" lon="-1.07778">
        <ele>13</ele>
        <time>2020-06-16T12:30:01Z</time>
      </trkpt>
      <trkpt lat="49.36849" lon="-1.07796">
        <ele>12.7</ele>
        <time>2020-06-16T12:35:03Z</time>
      </trkpt>
      <trkpt lat="49.36849" lon="-1.07795">
        <ele>12.7</ele>
        <time>2020-06-16T12:35:04Z</time>
      </trkpt>
      <trkpt lat="49.36849" lon="-1.07794">
        <ele>12.7</ele>
        <time>2020-06-16T12:35:05Z</time>
      </trkpt>
      <trkpt lat="49.36849" lon="-1.07793">
        <ele>12.7</ele>
        <time>2020-06-16T12:35:06Z</time>
      </trkpt>
      <trkpt lat="49.36849" lon="-1.07794">
        <ele>12.7</ele>
        <time>2020-06-16T12:35:07Z</time>
      </trkpt>
      <trkpt lat="49.36849" lon="-1.07794">
        <ele>12.7</ele>
        <time>2020-06-16T12:35:08Z</time>
      </trkpt>
      <trkpt lat="49.36849" lon="-1.07794">
        <ele>12.8</ele>
        <time>2020-06-16T12:35:09Z</time>
      </trkpt>
      <trkpt lat="49.36849" lon="-1.07794">
        <ele>12.8</ele>
        <time>2020-06-16T12:35:10Z</time>
      </trkpt>
      <trkpt lat="49.36848" lon="-1.07794">
        <ele>12.8</ele>
        <time>2020-06-16T12:35:11Z</time>
      </trkpt>
      <trkpt lat="49.36848" lon="-1.07795">
        <ele>12.7</ele>
        <time>2020-06-16T12:35:12Z</time>
      </trkpt>
      <trkpt lat="49.36848" lon="-1.07794">
        <ele>12.8</ele>
        <time>2020-06-16T12:35:13Z</time>
      </trkpt>
      <trkpt lat="49.36847" lon="-1.07794">
        <ele>12.8</ele>
        <time>2020-06-16T12:35:14Z</time>
      </trkpt>
      <trkpt lat="49.36847" lon="-1.07794">
        <ele>12.8</ele>
        <time>2020-06-16T12:35:15Z</time>
      </trkpt>
      <trkpt lat="49.36847" lon="-1.07793">
        <ele>12.8</ele>
        <time>2020-06-16T12:35:16Z</time>
      </trkpt>
      <trkpt lat="49.36847" lon="-1.07793">
        <ele>12.8</ele>
        <time>2020-06-16T12:35:17Z</time>
      </trkpt>
      <trkpt lat="49.36847" lon="-1.07794">
        <ele>12.8</ele>
        <time>2020-06-16T12:35:18Z</time>
      </trkpt>
      <trkpt lat="49.36846" lon="-1.07795">
        <ele>12.7</ele>
        <time>2020-06-16T12:35:19Z</time>
      </trkpt>
      <trkpt lat="49.36846" lon="-1.07796">
        <ele>12.7</ele>
        <time>2020-06-16T12:35:20Z</time>
      </trkpt>
      <trkpt lat="49.36846" lon="-1.07798">
        <ele>12.7</ele>
        <time>2020-06-16T12:35:21Z</time>
      </trkpt>
      <trkpt lat="49.36846" lon="-1.07799">
        <ele>12.7</ele>
        <time>2020-06-16T12:35:22Z</time>
      </trkpt>
      <trkpt lat="49.36846" lon="-1.07799">
        <ele>12.7</ele>
        <time>2020-06-16T12:35:23Z</time>
      </trkpt>
      <trkpt lat="49.36846" lon="-1.07799">
        <ele>12.6</ele>
        <time>2020-06-16T12:35:24Z</time>
      </trkpt>
      <trkpt lat="49.36847" lon="-1.07798">
        <ele>12.7</ele>
        <time>2020-06-16T12:35:25Z</time>
      </trkpt>
      <trkpt lat="49.36847" lon="-1.07798">
        <ele>12.7</ele>
        <time>2020-06-16T12:35:26Z</time>
      </trkpt>
      <trkpt lat="49.36849" lon="-1.07798">
        <ele>12.7</ele>
        <time>2020-06-16T12:35:27Z</time>
      </trkpt>
      <trkpt lat="49.36851" lon="-1.07799">
        <ele>12.6</ele>
        <time>2020-06-16T12:35:28Z</time>
      </trkpt>
      <trkpt lat="49.36851" lon="-1.078">
        <ele>12.6</ele>
        <time>2020-06-16T12:35:29Z</time>
      </trkpt>
      <trkpt lat="49.36851" lon="-1.078">
        <ele>12.6</ele>
        <time>2020-06-16T12:35:30Z</time>
      </trkpt>
      <trkpt lat="49.36851" lon="-1.078">
        <ele>12.6</ele>
        <time>2020-06-16T12:35:31Z</time>
      </trkpt>
      <trkpt lat="49.36851" lon="-1.078">
        <ele>12.6</ele>
        <time>2020-06-16T12:35:32Z</time>
      </trkpt>
      <trkpt lat="49.36851" lon="-1.07799">
        <ele>12.6</ele>
        <time>2020-06-16T12:35:33Z</time>
      </trkpt>
      <trkpt lat="49.36851" lon="-1.07799">
        <ele>12.7</ele>
        <time>2020-06-16T12:35:34Z</time>
      </trkpt>
      <trkpt lat="49.36852" lon="-1.07798">
        <ele>12.7</ele>
        <time>2020-06-16T12:35:35Z</time>
      </trkpt>
      <trkpt lat="49.36852" lon="-1.07799">
        <ele>12.7</ele>
        <time>2020-06-16T12:35:36Z</time>
      </trkpt>
      <trkpt lat="49.36863" lon="-1.07791">
        <ele>12.7</ele>
        <time>2020-06-16T12:36:01Z</time>
      </trkpt>
      <trkpt lat="49.36864" lon="-1.07791">
        <ele>12.7</ele>
        <time>2020-06-16T12:36:02Z</time>
      </trkpt>
      <trkpt lat="49.36864" lon="-1.07791">
        <ele>12.7</ele>
        <time>2020-06-16T12:36:03Z</time>
      </trkpt>
      <trkpt lat="49.36865" lon="-1.07791">
        <ele>12.7</ele>
        <time>2020-06-16T12:36:04Z</time>
      </trkpt>
      <trkpt lat="49.36865" lon="-1.0779">
        <ele>12.8</ele>
        <time>2020-06-16T12:36:05Z</time>
      </trkpt>
      <trkpt lat="49.36865" lon="-1.0779">
        <ele>12.8</ele>
        <time>2020-06-16T12:36:06Z</time>
      </trkpt>
      <trkpt lat="49.36865" lon="-1.0779">
        <ele>12.8</ele>
        <time>2020-06-16T12:36:07Z</time>
      </trkpt>
      <trkpt lat="49.36865" lon="-1.0779">
        <ele>12.8</ele>
        <time>2020-06-16T12:36:08Z</time>
      </trkpt>
      <trkpt lat="49.36865" lon="-1.0779">
        <ele>12.8</ele>
        <time>2020-06-16T12:36:09Z</time>
      </trkpt>
      <trkpt lat="49.36865" lon="-1.07789">
        <ele>12.8</ele>
        <time>2020-06-16T12:36:10Z</time>
      </trkpt>
      <trkpt lat="49.36865" lon="-1.07789">
        <ele>12.8</ele>
        <time>2020-06-16T12:36:11Z</time>
      </trkpt>
      <trkpt lat="49.36865" lon="-1.07788">
        <ele>12.8</ele>
        <time>2020-06-16T12:36:12Z</time>
      </trkpt>
      <trkpt lat="49.36868" lon="-1.07771">
        <ele>13</ele>
        <time>2020-06-16T12:36:43Z</time>
      </trkpt>
      <trkpt lat="49.36868" lon="-1.0777">
        <ele>13</ele>
        <time>2020-06-16T12:36:44Z</time>
      </trkpt>
      <trkpt lat="49.36867" lon="-1.07768">
        <ele>13.1</ele>
        <time>2020-06-16T12:36:45Z</time>
      </trkpt>
      <trkpt lat="49.36868" lon="-1.07768">
        <ele>13.1</ele>
        <time>2020-06-16T12:36:46Z</time>
      </trkpt>
      <trkpt lat="49.36868" lon="-1.07766">
        <ele>13.1</ele>
        <time>2020-06-16T12:36:47Z</time>
      </trkpt>
      <trkpt lat="49.36868" lon="-1.07765">
        <ele>13.1</ele>
        <time>2020-06-16T12:36:48Z</time>
      </trkpt>
      <trkpt lat="49.36867" lon="-1.07763">
        <ele>13.2</ele>
        <time>2020-06-16T12:36:49Z</time>
      </trkpt>
      <trkpt lat="49.36867" lon="-1.07762">
        <ele>13.2</ele>
        <time>2020-06-16T12:36:50Z</time>
      </trkpt>
      <trkpt lat="49.36867" lon="-1.07761">
        <ele>13.2</ele>
        <time>2020-06-16T12:36:51Z</time>
      </trkpt>
      <trkpt lat="49.36867" lon="-1.07759">
        <ele>13.3</ele>
        <time>2020-06-16T12:36:52Z</time>
      </trkpt>
      <trkpt lat="49.36867" lon="-1.07758">
        <ele>13.3</ele>
        <time>2020-06-16T12:36:53Z</time>
      </trkpt>
      <trkpt lat="49.36867" lon="-1.07758">
        <ele>13.3</ele>
        <time>2020-06-16T12:36:54Z</time>
      </trkpt>
      <trkpt lat="49.36867" lon="-1.07757">
        <ele>13.3</ele>
        <time>2020-06-16T12:36:55Z</time>
      </trkpt>
      <trkpt lat="49.36867" lon="-1.07757">
        <ele>13.3</ele>
        <time>2020-06-16T12:36:56Z</time>
      </trkpt>
      <trkpt lat="49.36867" lon="-1.07758">
        <ele>13.3</ele>
        <time>2020-06-16T12:36:57Z</time>
      </trkpt>
      <trkpt lat="49.36866" lon="-1.07759">
        <ele>13.3</ele>
        <time>2020-06-16T12:36:58Z</time>
      </trkpt>
      <trkpt lat="49.36866" lon="-1.07759">
        <ele>13.3</ele>
        <time>2020-06-16T12:36:59Z</time>
      </trkpt>
      <trkpt lat="49.36866" lon="-1.07761">
        <ele>13.2</ele>
        <time>2020-06-16T12:37:00Z</time>
      </trkpt>
      <trkpt lat="49.36866" lon="-1.07762">
        <ele>13.2</ele>
        <time>2020-06-16T12:37:01Z</time>
      </trkpt>
      <trkpt lat="49.36866" lon="-1.07762">
        <ele>13.2</ele>
        <time>2020-06-16T12:37:02Z</time>
      </trkpt>
      <trkpt lat="49.36866" lon="-1.07763">
        <ele>13.2</ele>
        <time>2020-06-16T12:37:03Z</time>
      </trkpt>
      <trkpt lat="49.36866" lon="-1.07763">
        <ele>13.2</ele>
        <time>2020-06-16T12:37:04Z</time>
      </trkpt>
      <trkpt lat="49.36866" lon="-1.07763">
        <ele>13.2</ele>
        <time>2020-06-16T12:37:05Z</time>
      </trkpt>
      <trkpt lat="49.36866" lon="-1.07762">
        <ele>13.2</ele>
        <time>2020-06-16T12:37:06Z</time>
      </trkpt>
      <trkpt lat="49.36866" lon="-1.07761">
        <ele>13.2</ele>
        <time>2020-06-16T12:37:07Z</time>
      </trkpt>
      <trkpt lat="49.36866" lon="-1.0776">
        <ele>13.3</ele>
        <time>2020-06-16T12:37:08Z</time>
      </trkpt>
      <trkpt lat="49.36866" lon="-1.0776">
        <ele>13.3</ele>
        <time>2020-06-16T12:37:09Z</time>
      </trkpt>
      <trkpt lat="49.36866" lon="-1.07761">
        <ele>13.2</ele>
        <time>2020-06-16T12:37:10Z</time>
      </trkpt>
      <trkpt lat="49.36866" lon="-1.07762">
        <ele>13.2</ele>
        <time>2020-06-16T12:37:11Z</time>
      </trkpt>
      <trkpt lat="49.36866" lon="-1.07763">
        <ele>13.2</ele>
        <time>2020-06-16T12:37:12Z</time>
      </trkpt>
      <trkpt lat="49.36866" lon="-1.07763">
        <ele>13.2</ele>
        <time>2020-06-16T12:37:13Z</time>
      </trkpt>
      <trkpt lat="49.36866" lon="-1.07763">
        <ele>13.2</ele>
        <time>2020-06-16T12:37:14Z</time>
      </trkpt>
      <trkpt lat="49.36866" lon="-1.07763">
        <ele>13.2</ele>
        <time>2020-06-16T12:37:15Z</time>
      </trkpt>
      <trkpt lat="49.36866" lon="-1.07762">
        <ele>13.2</ele>
        <time>2020-06-16T12:37:16Z</time>
      </trkpt>
      <trkpt lat="49.36866" lon="-1.07763">
        <ele>13.2</ele>
        <time>2020-06-16T12:37:17Z</time>
      </trkpt>
      <trkpt lat="49.36866" lon="-1.07763">
        <ele>13.2</ele>
        <time>2020-06-16T12:37:18Z</time>
      </trkpt>
      <trkpt lat="49.36866" lon="-1.07764">
        <ele>13.2</ele>
        <time>2020-06-16T12:37:19Z</time>
      </trkpt>
      <trkpt lat="49.36866" lon="-1.07764">
        <ele>13.2</ele>
        <time>2020-06-16T12:37:20Z</time>
      </trkpt>
      <trkpt lat="49.36866" lon="-1.07765">
        <ele>13.1</ele>
        <time>2020-06-16T12:37:21Z</time>
      </trkpt>
      <trkpt lat="49.36866" lon="-1.07765">
        <ele>13.1</ele>
        <time>2020-06-16T12:37:22Z</time>
      </trkpt>
      <trkpt lat="49.36866" lon="-1.07759">
        <ele>13.3</ele>
        <time>2020-06-16T12:37:35Z</time>
      </trkpt>
      <trkpt lat="49.36866" lon="-1.07758">
        <ele>13.3</ele>
        <time>2020-06-16T12:37:36Z</time>
      </trkpt>
      <trkpt lat="49.36866" lon="-1.07757">
        <ele>13.3</ele>
        <time>2020-06-16T12:37:37Z</time>
      </trkpt>
      <trkpt lat="49.36866" lon="-1.07756">
        <ele>13.3</ele>
        <time>2020-06-16T12:37:38Z</time>
      </trkpt>
      <trkpt lat="49.36867" lon="-1.07756">
        <ele>13.3</ele>
        <time>2020-06-16T12:37:39Z</time>
      </trkpt>
      <trkpt lat="49.36867" lon="-1.07755">
        <ele>13.3</ele>
        <time>2020-06-16T12:37:40Z</time>
      </trkpt>
      <trkpt lat="49.36868" lon="-1.07756">
        <ele>13.3</ele>
        <time>2020-06-16T12:37:41Z</time>
      </trkpt>
      <trkpt lat="49.36868" lon="-1.07757">
        <ele>13.2</ele>
        <time>2020-06-16T12:37:42Z</time>
      </trkpt>
      <trkpt lat="49.36868" lon="-1.07757">
        <ele>13.3</ele>
        <time>2020-06-16T12:37:43Z</time>
      </trkpt>
      <trkpt lat="49.36868" lon="-1.07758">
        <ele>13.3</ele>
        <time>2020-06-16T12:37:44Z</time>
      </trkpt>
      <trkpt lat="49.36868" lon="-1.07758">
        <ele>13.2</ele>
        <time>2020-06-16T12:37:45Z</time>
      </trkpt>
      <trkpt lat="49.36868" lon="-1.07759">
        <ele>13.3</ele>
        <time>2020-06-16T12:37:46Z</time>
      </trkpt>
      <trkpt lat="49.36868" lon="-1.07762">
        <ele>13.2</ele>
        <time>2020-06-16T12:37:47Z</time>
      </trkpt>
      <trkpt lat="49.36868" lon="-1.07762">
        <ele>13.2</ele>
        <time>2020-06-16T12:37:48Z</time>
      </trkpt>
      <trkpt lat="49.36867" lon="-1.07764">
        <ele>13.2</ele>
        <time>2020-06-16T12:37:49Z</time>
      </trkpt>
      <trkpt lat="49.36867" lon="-1.07765">
        <ele>13.1</ele>
        <time>2020-06-16T12:37:50Z</time>
      </trkpt>
      <trkpt lat="49.36866" lon="-1.07767">
        <ele>13.1</ele>
        <time>2020-06-16T12:37:51Z</time>
      </trkpt>
      <trkpt lat="49.36866" lon="-1.07769">
        <ele>13.1</ele>
        <time>2020-06-16T12:37:52Z</time>
      </trkpt>
      <trkpt lat="49.36866" lon="-1.07771">
        <ele>13</ele>
        <time>2020-06-16T12:37:53Z</time>
      </trkpt>
      <trkpt lat="49.36866" lon="-1.07772">
        <ele>13</ele>
        <time>2020-06-16T12:37:54Z</time>
      </trkpt>
      <trkpt lat="49.36867" lon="-1.07774">
        <ele>13</ele>
        <time>2020-06-16T12:37:55Z</time>
      </trkpt>
      <trkpt lat="49.36867" lon="-1.07774">
        <ele>13</ele>
        <time>2020-06-16T12:37:56Z</time>
      </trkpt>
      <trkpt lat="49.36864" lon="-1.0777">
        <ele>13.1</ele>
        <time>2020-06-16T12:38:03Z</time>
      </trkpt>
      <trkpt lat="49.36863" lon="-1.07769">
        <ele>13.1</ele>
        <time>2020-06-16T12:38:04Z</time>
      </trkpt>
      <trkpt lat="49.36863" lon="-1.07771">
        <ele>13.1</ele>
        <time>2020-06-16T12:38:05Z</time>
      </trkpt>
      <trkpt lat="49.36863" lon="-1.07771">
        <ele>13.1</ele>
        <time>2020-06-16T12:38:06Z</time>
      </trkpt>
      <trkpt lat="49.36862" lon="-1.07772">
        <ele>13.1</ele>
        <time>2020-06-16T12:38:07Z</time>
      </trkpt>
      <trkpt lat="49.36861" lon="-1.07774">
        <ele>13</ele>
        <time>2020-06-16T12:38:08Z</time>
      </trkpt>
      <trkpt lat="49.36861" lon="-1.07775">
        <ele>13</ele>
        <time>2020-06-16T12:38:09Z</time>
      </trkpt>
      <trkpt lat="49.36861" lon="-1.07773">
        <ele>13.1</ele>
        <time>2020-06-16T12:38:10Z</time>
      </trkpt>
      <trkpt lat="49.36861" lon="-1.07773">
        <ele>13.1</ele>
        <time>2020-06-16T12:38:11Z</time>
      </trkpt>
      <trkpt lat="49.3686" lon="-1.07773">
        <ele>13.1</ele>
        <time>2020-06-16T12:38:12Z</time>
      </trkpt>
      <trkpt lat="49.3686" lon="-1.07773">
        <ele>13.1</ele>
        <time>2020-06-16T12:38:13Z</time>
      </trkpt>
      <trkpt lat="49.36859" lon="-1.07772">
        <ele>13.1</ele>
        <time>2020-06-16T12:38:14Z</time>
      </trkpt>
      <trkpt lat="49.36859" lon="-1.07771">
        <ele>13.1</ele>
        <time>2020-06-16T12:38:15Z</time>
      </trkpt>
      <trkpt lat="49.36859" lon="-1.07771">
        <ele>13.1</ele>
        <time>2020-06-16T12:38:16Z</time>
      </trkpt>
      <trkpt lat="49.36859" lon="-1.07771">
        <ele>13.1</ele>
        <time>2020-06-16T12:38:17Z</time>
      </trkpt>
      <trkpt lat="49.36858" lon="-1.0777">
        <ele>13.1</ele>
        <time>2020-06-16T12:38:18Z</time>
      </trkpt>
      <trkpt lat="49.36858" lon="-1.0777">
        <ele>13.1</ele>
        <time>2020-06-16T12:38:19Z</time>
      </trkpt>
      <trkpt lat="49.36857" lon="-1.0777">
        <ele>13.1</ele>
        <time>2020-06-16T12:38:20Z</time>
      </trkpt>
      <trkpt lat="49.36856" lon="-1.07772">
        <ele>13.1</ele>
        <time>2020-06-16T12:38:21Z</time>
      </trkpt>
      <trkpt lat="49.36856" lon="-1.07773">
        <ele>13.1</ele>
        <time>2020-06-16T12:38:22Z</time>
      </trkpt>
      <trkpt lat="49.36856" lon="-1.07774">
        <ele>13</ele>
        <time>2020-06-16T12:38:23Z</time>
      </trkpt>
      <trkpt lat="49.36856" lon="-1.07774">
        <ele>13</ele>
        <time>2020-06-16T12:38:24Z</time>
      </trkpt>
      <trkpt lat="49.36856" lon="-1.07774">
        <ele>13</ele>
        <time>2020-06-16T12:38:25Z</time>
      </trkpt>
      <trkpt lat="49.36856" lon="-1.07776">
        <ele>13</ele>
        <time>2020-06-16T12:38:26Z</time>
      </trkpt>
      <trkpt lat="49.36856" lon="-1.07776">
        <ele>13</ele>
        <time>2020-06-16T12:38:27Z</time>
      </trkpt>
      <trkpt lat="49.36856" lon="-1.07776">
        <ele>13</ele>
        <time>2020-06-16T12:38:28Z</time>
      </trkpt>
      <trkpt lat="49.36855" lon="-1.07776">
        <ele>13</ele>
        <time>2020-06-16T12:38:29Z</time>
      </trkpt>
      <trkpt lat="49.36856" lon="-1.07777">
        <ele>13</ele>
        <time>2020-06-16T12:38:30Z</time>
      </trkpt>
      <trkpt lat="49.36855" lon="-1.07777">
        <ele>13</ele>
        <time>2020-06-16T12:38:31Z</time>
      </trkpt>
      <trkpt lat="49.36855" lon="-1.07777">
        <ele>13</ele>
        <time>2020-06-16T12:38:32Z</time>
      </trkpt>
      <trkpt lat="49.36854" lon="-1.07777">
        <ele>13</ele>
        <time>2020-06-16T12:38:33Z</time>
      </trkpt>
      <trkpt lat="49.36855" lon="-1.07777">
        <ele>13</ele>
        <time>2020-06-16T12:38:34Z</time>
      </trkpt>
      <trkpt lat="49.36854" lon="-1.07777">
        <ele>13</ele>
        <time>2020-06-16T12:38:35Z</time>
      </trkpt>
      <trkpt lat="49.36855" lon="-1.07778">
        <ele>13</ele>
        <time>2020-06-16T12:38:36Z</time>
      </trkpt>
      <trkpt lat="49.36856" lon="-1.07778">
        <ele>13</ele>
        <time>2020-06-16T12:38:37Z</time>
      </trkpt>
      <trkpt lat="49.36857" lon="-1.07778">
        <ele>13</ele>
        <time>2020-06-16T12:38:38Z</time>
      </trkpt>
      <trkpt lat="49.36857" lon="-1.07778">
        <ele>12.9</ele>
        <time>2020-06-16T12:38:39Z</time>
      </trkpt>
      <trkpt lat="49.36858" lon="-1.07778">
        <ele>12.9</ele>
        <time>2020-06-16T12:38:40Z</time>
      </trkpt>
      <trkpt lat="49.36858" lon="-1.07778">
        <ele>12.9</ele>
        <time>2020-06-16T12:38:41Z</time>
      </trkpt>
      <trkpt lat="49.36858" lon="-1.07779">
        <ele>12.9</ele>
        <time>2020-06-16T12:38:42Z</time>
      </trkpt>
      <trkpt lat="49.36859" lon="-1.07779">
        <ele>12.9</ele>
        <time>2020-06-16T12:38:43Z</time>
      </trkpt>
      <trkpt lat="49.36859" lon="-1.07779">
        <ele>12.9</ele>
        <time>2020-06-16T12:38:44Z</time>
      </trkpt>
      <trkpt lat="49.36859" lon="-1.07779">
        <ele>12.9</ele>
        <time>2020-06-16T12:38:45Z</time>
      </trkpt>
      <trkpt lat="49.36859" lon="-1.07779">
        <ele>12.9</ele>
        <time>2020-06-16T12:38:46Z</time>
      </trkpt>
      <trkpt lat="49.36857" lon="-1.07771">
        <ele>13.1</ele>
        <time>2020-06-16T12:38:52Z</time>
      </trkpt>
      <trkpt lat="49.36857" lon="-1.0777">
        <ele>13.1</ele>
        <time>2020-06-16T12:38:53Z</time>
      </trkpt>
      <trkpt lat="49.36856" lon="-1.07769">
        <ele>13.2</ele>
        <time>2020-06-16T12:38:54Z</time>
      </trkpt>
      <trkpt lat="49.36856" lon="-1.07769">
        <ele>13.2</ele>
        <time>2020-06-16T12:38:55Z</time>
      </trkpt>
      <trkpt lat="49.36856" lon="-1.07769">
        <ele>13.1</ele>
        <time>2020-06-16T12:38:56Z</time>
      </trkpt>
      <trkpt lat="49.36856" lon="-1.0777">
        <ele>13.1</ele>
        <time>2020-06-16T12:38:57Z</time>
      </trkpt>
      <trkpt lat="49.36856" lon="-1.07769">
        <ele>13.2</ele>
        <time>2020-06-16T12:38:58Z</time>
      </trkpt>
      <trkpt lat="49.36856" lon="-1.07768">
        <ele>13.2</ele>
        <time>2020-06-16T12:38:59Z</time>
      </trkpt>
      <trkpt lat="49.36856" lon="-1.07769">
        <ele>13.2</ele>
        <time>2020-06-16T12:39:00Z</time>
      </trkpt>
      <trkpt lat="49.36856" lon="-1.07769">
        <ele>13.2</ele>
        <time>2020-06-16T12:39:01Z</time>
      </trkpt>
      <trkpt lat="49.36856" lon="-1.07769">
        <ele>13.2</ele>
        <time>2020-06-16T12:39:02Z</time>
      </trkpt>
      <trkpt lat="49.36856" lon="-1.07769">
        <ele>13.2</ele>
        <time>2020-06-16T12:39:03Z</time>
      </trkpt>
      <trkpt lat="49.36856" lon="-1.07769">
        <ele>13.2</ele>
        <time>2020-06-16T12:39:04Z</time>
      </trkpt>
      <trkpt lat="49.36856" lon="-1.07768">
        <ele>13.2</ele>
        <time>2020-06-16T12:39:05Z</time>
      </trkpt>
      <trkpt lat="49.36856" lon="-1.0777">
        <ele>13.1</ele>
        <time>2020-06-16T12:39:06Z</time>
      </trkpt>
      <trkpt lat="49.36856" lon="-1.07769">
        <ele>13.1</ele>
        <time>2020-06-16T12:39:07Z</time>
      </trkpt>
      <trkpt lat="49.36856" lon="-1.07768">
        <ele>13.2</ele>
        <time>2020-06-16T12:39:08Z</time>
      </trkpt>
      <trkpt lat="49.36856" lon="-1.07767">
        <ele>13.2</ele>
        <time>2020-06-16T12:39:09Z</time>
      </trkpt>
      <trkpt lat="49.36856" lon="-1.07766">
        <ele>13.2</ele>
        <time>2020-06-16T12:39:10Z</time>
      </trkpt>
      <trkpt lat="49.36856" lon="-1.07765">
        <ele>13.2</ele>
        <time>2020-06-16T12:39:11Z</time>
      </trkpt>
      <trkpt lat="49.36857" lon="-1.07767">
        <ele>13.2</ele>
        <time>2020-06-16T12:39:12Z</time>
      </trkpt>
      <trkpt lat="49.36857" lon="-1.07767">
        <ele>13.2</ele>
        <time>2020-06-16T12:39:13Z</time>
      </trkpt>
      <trkpt lat="49.36858" lon="-1.07767">
        <ele>13.2</ele>
        <time>2020-06-16T12:39:14Z</time>
      </trkpt>
      <trkpt lat="49.36858" lon="-1.07767">
        <ele>13.2</ele>
        <time>2020-06-16T12:39:15Z</time>
      </trkpt>
      <trkpt lat="49.36859" lon="-1.07768">
        <ele>13.2</ele>
        <time>2020-06-16T12:39:16Z</time>
      </trkpt>
      <trkpt lat="49.36859" lon="-1.07768">
        <ele>13.2</ele>
        <time>2020-06-16T12:39:17Z</time>
      </trkpt>
      <trkpt lat="49.3686" lon="-1.07769">
        <ele>13.2</ele>
        <time>2020-06-16T12:39:18Z</time>
      </trkpt>
      <trkpt lat="49.36861" lon="-1.0777">
        <ele>13.1</ele>
        <time>2020-06-16T12:39:19Z</time>
      </trkpt>
      <trkpt lat="49.36862" lon="-1.07771">
        <ele>13.1</ele>
        <time>2020-06-16T12:39:20Z</time>
      </trkpt>
      <trkpt lat="49.36862" lon="-1.07771">
        <ele>13.1</ele>
        <time>2020-06-16T12:39:21Z</time>
      </trkpt>
      <trkpt lat="49.36862" lon="-1.07771">
        <ele>13.1</ele>
        <time>2020-06-16T12:39:22Z</time>
      </trkpt>
      <trkpt lat="49.36862" lon="-1.07771">
        <ele>13.1</ele>
        <time>2020-06-16T12:39:23Z</time>
      </trkpt>
      <trkpt lat="49.36862" lon="-1.07771">
        <ele>13.1</ele>
        <time>2020-06-16T12:39:24Z</time>
      </trkpt>
      <trkpt lat="49.36862" lon="-1.07772">
        <ele>13.1</ele>
        <time>2020-06-16T12:39:25Z</time>
      </trkpt>
      <trkpt lat="49.36862" lon="-1.07773">
        <ele>13.1</ele>
        <time>2020-06-16T12:39:26Z</time>
      </trkpt>
      <trkpt lat="49.36862" lon="-1.07774">
        <ele>13</ele>
        <time>2020-06-16T12:39:27Z</time>
      </trkpt>
      <trkpt lat="49.36862" lon="-1.07774">
        <ele>13</ele>
        <time>2020-06-16T12:39:28Z</time>
      </trkpt>
      <trkpt lat="49.36863" lon="-1.07773">
        <ele>13</ele>
        <time>2020-06-16T12:39:29Z</time>
      </trkpt>
      <trkpt lat="49.36863" lon="-1.07773">
        <ele>13.1</ele>
        <time>2020-06-16T12:39:30Z</time>
      </trkpt>
      <trkpt lat="49.36863" lon="-1.07773">
        <ele>13.1</ele>
        <time>2020-06-16T12:39:31Z</time>
      </trkpt>
      <trkpt lat="49.36863" lon="-1.07773">
        <ele>13.1</ele>
        <time>2020-06-16T12:39:32Z</time>
      </trkpt>
      <trkpt lat="49.36863" lon="-1.07772">
        <ele>13.1</ele>
        <time>2020-06-16T12:39:33Z</time>
      </trkpt>
      <trkpt lat="49.36863" lon="-1.07772">
        <ele>13.1</ele>
        <time>2020-06-16T12:39:34Z</time>
      </trkpt>
      <trkpt lat="49.36863" lon="-1.07772">
        <ele>13.1</ele>
        <time>2020-06-16T12:39:35Z</time>
      </trkpt>
      <trkpt lat="49.36864" lon="-1.07772">
        <ele>13.1</ele>
        <time>2020-06-16T12:39:36Z</time>
      </trkpt>
      <trkpt lat="49.36865" lon="-1.07771">
        <ele>13.1</ele>
        <time>2020-06-16T12:39:37Z</time>
      </trkpt>
      <trkpt lat="49.36865" lon="-1.0777">
        <ele>13.1</ele>
        <time>2020-06-16T12:39:38Z</time>
      </trkpt>
      <trkpt lat="49.36865" lon="-1.0777">
        <ele>13.1</ele>
        <time>2020-06-16T12:39:39Z</time>
      </trkpt>
      <trkpt lat="49.36865" lon="-1.07769">
        <ele>13.1</ele>
        <time>2020-06-16T12:39:40Z</time>
      </trkpt>
      <trkpt lat="49.36865" lon="-1.07769">
        <ele>13.1</ele>
        <time>2020-06-16T12:39:41Z</time>
      </trkpt>
      <trkpt lat="49.36865" lon="-1.07769">
        <ele>13.1</ele>
        <time>2020-06-16T12:39:42Z</time>
      </trkpt>
      <trkpt lat="49.36865" lon="-1.07768">
        <ele>13.1</ele>
        <time>2020-06-16T12:39:43Z</time>
      </trkpt>
      <trkpt lat="49.36865" lon="-1.07768">
        <ele>13.1</ele>
        <time>2020-06-16T12:39:44Z</time>
      </trkpt>
      <trkpt lat="49.36865" lon="-1.07767">
        <ele>13.1</ele>
        <time>2020-06-16T12:39:45Z</time>
      </trkpt>
      <trkpt lat="49.36866" lon="-1.07767">
        <ele>13.1</ele>
        <time>2020-06-16T12:39:46Z</time>
      </trkpt>
      <trkpt lat="49.36866" lon="-1.07766">
        <ele>13.1</ele>
        <time>2020-06-16T12:39:47Z</time>
      </trkpt>
      <trkpt lat="49.36866" lon="-1.07765">
        <ele>13.1</ele>
        <time>2020-06-16T12:39:48Z</time>
      </trkpt>
      <trkpt lat="49.36866" lon="-1.07765">
        <ele>13.1</ele>
        <time>2020-06-16T12:39:49Z</time>
      </trkpt>
      <trkpt lat="49.36866" lon="-1.07765">
        <ele>13.1</ele>
        <time>2020-06-16T12:39:50Z</time>
      </trkpt>
      <trkpt lat="49.36867" lon="-1.07765">
        <ele>13.1</ele>
        <time>2020-06-16T12:39:51Z</time>
      </trkpt>
      <trkpt lat="49.36867" lon="-1.07765">
        <ele>13.1</ele>
        <time>2020-06-16T12:39:52Z</time>
      </trkpt>
      <trkpt lat="49.36867" lon="-1.07766">
        <ele>13.1</ele>
        <time>2020-06-16T12:39:53Z</time>
      </trkpt>
      <trkpt lat="49.36867" lon="-1.07765">
        <ele>13.1</ele>
        <time>2020-06-16T12:39:54Z</time>
      </trkpt>
      <trkpt lat="49.36867" lon="-1.07765">
        <ele>13.1</ele>
        <time>2020-06-16T12:39:55Z</time>
      </trkpt>
      <trkpt lat="49.36867" lon="-1.07765">
        <ele>13.2</ele>
        <time>2020-06-16T12:39:56Z</time>
      </trkpt>
      <trkpt lat="49.36867" lon="-1.07765">
        <ele>13.2</ele>
        <time>2020-06-16T12:39:57Z</time>
      </trkpt>
      <trkpt lat="49.36867" lon="-1.07764">
        <ele>13.2</ele>
        <time>2020-06-16T12:39:58Z</time>
      </trkpt>
      <trkpt lat="49.36867" lon="-1.07764">
        <ele>13.2</ele>
        <time>2020-06-16T12:39:59Z</time>
      </trkpt>
      <trkpt lat="49.36867" lon="-1.07764">
        <ele>13.2</ele>
        <time>2020-06-16T12:40:00Z</time>
      </trkpt>
      <trkpt lat="49.36868" lon="-1.07765">
        <ele>13.1</ele>
        <time>2020-06-16T12:40:01Z</time>
      </trkpt>
      <trkpt lat="49.36868" lon="-1.07766">
        <ele>13.1</ele>
        <time>2020-06-16T12:40:02Z</time>
      </trkpt>
      <trkpt lat="49.36868" lon="-1.07766">
        <ele>13.1</ele>
        <time>2020-06-16T12:40:03Z</time>
      </trkpt>
      <trkpt lat="49.36868" lon="-1.07766">
        <ele>13.1</ele>
        <time>2020-06-16T12:40:04Z</time>
      </trkpt>
      <trkpt lat="49.36868" lon="-1.07767">
        <ele>13.1</ele>
        <time>2020-06-16T12:40:05Z</time>
      </trkpt>
      <trkpt lat="49.36868" lon="-1.07768">
        <ele>13.1</ele>
        <time>2020-06-16T12:40:06Z</time>
      </trkpt>
      <trkpt lat="49.36867" lon="-1.07769">
        <ele>13.1</ele>
        <time>2020-06-16T12:40:07Z</time>
      </trkpt>
      <trkpt lat="49.36867" lon="-1.07768">
        <ele>13.1</ele>
        <time>2020-06-16T12:40:08Z</time>
      </trkpt>
      <trkpt lat="49.36867" lon="-1.07769">
        <ele>13.1</ele>
        <time>2020-06-16T12:40:09Z</time>
      </trkpt>
      <trkpt lat="49.36867" lon="-1.07769">
        <ele>13.1</ele>
        <time>2020-06-16T12:40:10Z</time>
      </trkpt>
      <trkpt lat="49.36866" lon="-1.07768">
        <ele>13.1</ele>
        <time>2020-06-16T12:40:11Z</time>
      </trkpt>
      <trkpt lat="49.36866" lon="-1.07768">
        <ele>13.1</ele>
        <time>2020-06-16T12:40:12Z</time>
      </trkpt>
      <trkpt lat="49.36866" lon="-1.07767">
        <ele>13.1</ele>
        <time>2020-06-16T12:40:13Z</time>
      </trkpt>
      <trkpt lat="49.36866" lon="-1.07767">
        <ele>13.1</ele>
        <time>2020-06-16T12:40:14Z</time>
      </trkpt>
      <trkpt lat="49.36865" lon="-1.07766">
        <ele>13.1</ele>
        <time>2020-06-16T12:40:15Z</time>
      </trkpt>
      <trkpt lat="49.36865" lon="-1.07765">
        <ele>13.1</ele>
        <time>2020-06-16T12:40:16Z</time>
      </trkpt>
      <trkpt lat="49.36865" lon="-1.07765">
        <ele>13.2</ele>
        <time>2020-06-16T12:40:17Z</time>
      </trkpt>
      <trkpt lat="49.36865" lon="-1.07764">
        <ele>13.2</ele>
        <time>2020-06-16T12:40:18Z</time>
      </trkpt>
      <trkpt lat="49.36864" lon="-1.07762">
        <ele>13.2</ele>
        <time>2020-06-16T12:40:19Z</time>
      </trkpt>
      <trkpt lat="49.36864" lon="-1.07762">
        <ele>13.2</ele>
        <time>2020-06-16T12:40:20Z</time>
      </trkpt>
      <trkpt lat="49.36864" lon="-1.07762">
        <ele>13.2</ele>
        <time>2020-06-16T12:40:21Z</time>
      </trkpt>
      <trkpt lat="49.36864" lon="-1.07763">
        <ele>13.2</ele>
        <time>2020-06-16T12:40:22Z</time>
      </trkpt>
      <trkpt lat="49.36864" lon="-1.07763">
        <ele>13.2</ele>
        <time>2020-06-16T12:40:23Z</time>
      </trkpt>
      <trkpt lat="49.36863" lon="-1.07764">
        <ele>13.2</ele>
        <time>2020-06-16T12:40:24Z</time>
      </trkpt>
      <trkpt lat="49.36863" lon="-1.07764">
        <ele>13.2</ele>
        <time>2020-06-16T12:40:25Z</time>
      </trkpt>
      <trkpt lat="49.36863" lon="-1.07764">
        <ele>13.2</ele>
        <time>2020-06-16T12:40:26Z</time>
      </trkpt>
      <trkpt lat="49.36863" lon="-1.07764">
        <ele>13.2</ele>
        <time>2020-06-16T12:40:27Z</time>
      </trkpt>
      <trkpt lat="49.36863" lon="-1.07764">
        <ele>13.2</ele>
        <time>2020-06-16T12:40:28Z</time>
      </trkpt>
      <trkpt lat="49.36863" lon="-1.07764">
        <ele>13.2</ele>
        <time>2020-06-16T12:40:29Z</time>
      </trkpt>
      <trkpt lat="49.36863" lon="-1.07764">
        <ele>13.2</ele>
        <time>2020-06-16T12:40:30Z</time>
      </trkpt>
      <trkpt lat="49.36863" lon="-1.07765">
        <ele>13.1</ele>
        <time>2020-06-16T12:40:31Z</time>
      </trkpt>
      <trkpt lat="49.36864" lon="-1.07766">
        <ele>13.1</ele>
        <time>2020-06-16T12:40:32Z</time>
      </trkpt>
      <trkpt lat="49.36864" lon="-1.07767">
        <ele>13.1</ele>
        <time>2020-06-16T12:40:33Z</time>
      </trkpt>
      <trkpt lat="49.36866" lon="-1.07763">
        <ele>13.2</ele>
        <time>2020-06-16T12:40:38Z</time>
      </trkpt>
      <trkpt lat="49.36866" lon="-1.07762">
        <ele>13.2</ele>
        <time>2020-06-16T12:40:39Z</time>
      </trkpt>
      <trkpt lat="49.36866" lon="-1.07762">
        <ele>13.2</ele>
        <time>2020-06-16T12:40:40Z</time>
      </trkpt>
      <trkpt lat="49.36866" lon="-1.07761">
        <ele>13.2</ele>
        <time>2020-06-16T12:40:41Z</time>
      </trkpt>
      <trkpt lat="49.36866" lon="-1.07761">
        <ele>13.2</ele>
        <time>2020-06-16T12:40:42Z</time>
      </trkpt>
      <trkpt lat="49.36866" lon="-1.07761">
        <ele>13.2</ele>
        <time>2020-06-16T12:40:43Z</time>
      </trkpt>
      <trkpt lat="49.36867" lon="-1.07762">
        <ele>13.2</ele>
        <time>2020-06-16T12:40:44Z</time>
      </trkpt>
      <trkpt lat="49.36867" lon="-1.07764">
        <ele>13.2</ele>
        <time>2020-06-16T12:40:45Z</time>
      </trkpt>
      <trkpt lat="49.36867" lon="-1.07764">
        <ele>13.2</ele>
        <time>2020-06-16T12:40:46Z</time>
      </trkpt>
      <trkpt lat="49.36868" lon="-1.07766">
        <ele>13.1</ele>
        <time>2020-06-16T12:40:47Z</time>
      </trkpt>
      <trkpt lat="49.36868" lon="-1.07767">
        <ele>13.1</ele>
        <time>2020-06-16T12:40:48Z</time>
      </trkpt>
      <trkpt lat="49.36867" lon="-1.07768">
        <ele>13.1</ele>
        <time>2020-06-16T12:40:49Z</time>
      </trkpt>
      <trkpt lat="49.36867" lon="-1.07769">
        <ele>13</ele>
        <time>2020-06-16T12:40:50Z</time>
      </trkpt>
      <trkpt lat="49.36867" lon="-1.0777">
        <ele>13</ele>
        <time>2020-06-16T12:40:51Z</time>
      </trkpt>
      <trkpt lat="49.36867" lon="-1.07771">
        <ele>13</ele>
        <time>2020-06-16T12:40:52Z</time>
      </trkpt>
      <trkpt lat="49.36867" lon="-1.07771">
        <ele>13</ele>
        <time>2020-06-16T12:40:53Z</time>
      </trkpt>
      <trkpt lat="49.36867" lon="-1.07771">
        <ele>13</ele>
        <time>2020-06-16T12:40:54Z</time>
      </trkpt>
      <trkpt lat="49.36867" lon="-1.07771">
        <ele>13</ele>
        <time>2020-06-16T12:40:55Z</time>
      </trkpt>
      <trkpt lat="49.36867" lon="-1.07771">
        <ele>13</ele>
        <time>2020-06-16T12:40:56Z</time>
      </trkpt>
      <trkpt lat="49.36867" lon="-1.07771">
        <ele>13</ele>
        <time>2020-06-16T12:40:57Z</time>
      </trkpt>
      <trkpt lat="49.36867" lon="-1.07771">
        <ele>13</ele>
        <time>2020-06-16T12:40:58Z</time>
      </trkpt>
      <trkpt lat="49.36867" lon="-1.07771">
        <ele>13</ele>
        <time>2020-06-16T12:40:59Z</time>
      </trkpt>
      <trkpt lat="49.36867" lon="-1.07771">
        <ele>13</ele>
        <time>2020-06-16T12:41:24Z</time>
      </trkpt>
      <trkpt lat="49.36868" lon="-1.07771">
        <ele>13</ele>
        <time>2020-06-16T12:41:25Z</time>
      </trkpt>
      <trkpt lat="49.36868" lon="-1.07771">
        <ele>13</ele>
        <time>2020-06-16T12:41:26Z</time>
      </trkpt>
      <trkpt lat="49.36868" lon="-1.0777">
        <ele>13</ele>
        <time>2020-06-16T12:41:27Z</time>
      </trkpt>
      <trkpt lat="49.36868" lon="-1.0777">
        <ele>13</ele>
        <time>2020-06-16T12:41:28Z</time>
      </trkpt>
      <trkpt lat="49.36868" lon="-1.0777">
        <ele>13</ele>
        <time>2020-06-16T12:41:29Z</time>
      </trkpt>
      <trkpt lat="49.36868" lon="-1.0777">
        <ele>13</ele>
        <time>2020-06-16T12:41:30Z</time>
      </trkpt>
      <trkpt lat="49.36868" lon="-1.0777">
        <ele>13</ele>
        <time>2020-06-16T12:41:31Z</time>
      </trkpt>
      <trkpt lat="49.36868" lon="-1.0777">
        <ele>13</ele>
        <time>2020-06-16T12:41:32Z</time>
      </trkpt>
      <trkpt lat="49.36868" lon="-1.0777">
        <ele>13</ele>
        <time>2020-06-16T12:41:33Z</time>
      </trkpt>
      <trkpt lat="49.36868" lon="-1.0777">
        <ele>13</ele>
        <time>2020-06-16T12:41:34Z</time>
      </trkpt>
      <trkpt lat="49.36868" lon="-1.0777">
        <ele>13</ele>
        <time>2020-06-16T12:41:35Z</time>
      </trkpt>
      <trkpt lat="49.36868" lon="-1.07771">
        <ele>13</ele>
        <time>2020-06-16T12:41:36Z</time>
      </trkpt>
      <trkpt lat="49.36868" lon="-1.07771">
        <ele>13</ele>
        <time>2020-06-16T12:41:37Z</time>
      </trkpt>
      <trkpt lat="49.36868" lon="-1.07771">
        <ele>13</ele>
        <time>2020-06-16T12:41:38Z</time>
      </trkpt>
      <trkpt lat="49.36868" lon="-1.07771">
        <ele>13</ele>
        <time>2020-06-16T12:41:39Z</time>
      </trkpt>
      <trkpt lat="49.36869" lon="-1.07771">
        <ele>13</ele>
        <time>2020-06-16T12:41:40Z</time>
      </trkpt>
      <trkpt lat="49.36869" lon="-1.07761">
        <ele>13.2</ele>
        <time>2020-06-16T12:41:57Z</time>
      </trkpt>
      <trkpt lat="49.36868" lon="-1.07761">
        <ele>13.2</ele>
        <time>2020-06-16T12:41:58Z</time>
      </trkpt>
      <trkpt lat="49.36868" lon="-1.07761">
        <ele>13.2</ele>
        <time>2020-06-16T12:41:59Z</time>
      </trkpt>
      <trkpt lat="49.36869" lon="-1.07761">
        <ele>13.2</ele>
        <time>2020-06-16T12:42:00Z</time>
      </trkpt>
      <trkpt lat="49.36868" lon="-1.0776">
        <ele>13.2</ele>
        <time>2020-06-16T12:42:01Z</time>
      </trkpt>
      <trkpt lat="49.36868" lon="-1.0776">
        <ele>13.2</ele>
        <time>2020-06-16T12:42:02Z</time>
      </trkpt>
      <trkpt lat="49.36868" lon="-1.0776">
        <ele>13.2</ele>
        <time>2020-06-16T12:42:03Z</time>
      </trkpt>
      <trkpt lat="49.36868" lon="-1.0776">
        <ele>13.2</ele>
        <time>2020-06-16T12:42:04Z</time>
      </trkpt>
      <trkpt lat="49.36868" lon="-1.07761">
        <ele>13.2</ele>
        <time>2020-06-16T12:42:05Z</time>
      </trkpt>
      <trkpt lat="49.36868" lon="-1.07762">
        <ele>13.2</ele>
        <time>2020-06-16T12:42:06Z</time>
      </trkpt>
      <trkpt lat="49.36867" lon="-1.07762">
        <ele>13.2</ele>
        <time>2020-06-16T12:42:07Z</time>
      </trkpt>
      <trkpt lat="49.36867" lon="-1.07763">
        <ele>13.2</ele>
        <time>2020-06-16T12:42:08Z</time>
      </trkpt>
      <trkpt lat="49.36866" lon="-1.07763">
        <ele>13.2</ele>
        <time>2020-06-16T12:42:09Z</time>
      </trkpt>
      <trkpt lat="49.36866" lon="-1.07763">
        <ele>13.2</ele>
        <time>2020-06-16T12:42:10Z</time>
      </trkpt>
      <trkpt lat="49.36866" lon="-1.07764">
        <ele>13.2</ele>
        <time>2020-06-16T12:42:11Z</time>
      </trkpt>
      <trkpt lat="49.36866" lon="-1.07764">
        <ele>13.2</ele>
        <time>2020-06-16T12:42:12Z</time>
      </trkpt>
      <trkpt lat="49.36866" lon="-1.07764">
        <ele>13.2</ele>
        <time>2020-06-16T12:42:13Z</time>
      </trkpt>
      <trkpt lat="49.36866" lon="-1.07764">
        <ele>13.2</ele>
        <time>2020-06-16T12:42:14Z</time>
      </trkpt>
      <trkpt lat="49.36866" lon="-1.07765">
        <ele>13.2</ele>
        <time>2020-06-16T12:42:15Z</time>
      </trkpt>
      <trkpt lat="49.36866" lon="-1.07765">
        <ele>13.1</ele>
        <time>2020-06-16T12:42:16Z</time>
      </trkpt>
      <trkpt lat="49.36866" lon="-1.07765">
        <ele>13.1</ele>
        <time>2020-06-16T12:42:17Z</time>
      </trkpt>
      <trkpt lat="49.36866" lon="-1.07766">
        <ele>13.1</ele>
        <time>2020-06-16T12:42:18Z</time>
      </trkpt>
      <trkpt lat="49.36866" lon="-1.07766">
        <ele>13.1</ele>
        <time>2020-06-16T12:42:19Z</time>
      </trkpt>
      <trkpt lat="49.36865" lon="-1.07766">
        <ele>13.1</ele>
        <time>2020-06-16T12:42:20Z</time>
      </trkpt>
      <trkpt lat="49.36865" lon="-1.07767">
        <ele>13.1</ele>
        <time>2020-06-16T12:42:21Z</time>
      </trkpt>
      <trkpt lat="49.36866" lon="-1.07767">
        <ele>13.1</ele>
        <time>2020-06-16T12:42:22Z</time>
      </trkpt>
      <trkpt lat="49.36865" lon="-1.07769">
        <ele>13.1</ele>
        <time>2020-06-16T12:42:23Z</time>
      </trkpt>
      <trkpt lat="49.36865" lon="-1.07769">
        <ele>13</ele>
        <time>2020-06-16T12:42:24Z</time>
      </trkpt>
      <trkpt lat="49.36866" lon="-1.0777">
        <ele>13</ele>
        <time>2020-06-16T12:42:25Z</time>
      </trkpt>
      <trkpt lat="49.36866" lon="-1.0777">
        <ele>13</ele>
        <time>2020-06-16T12:42:26Z</time>
      </trkpt>
      <trkpt lat="49.36866" lon="-1.0777">
        <ele>13</ele>
        <time>2020-06-16T12:42:27Z</time>
      </trkpt>
      <trkpt lat="49.36865" lon="-1.07769">
        <ele>13.1</ele>
        <time>2020-06-16T12:42:28Z</time>
      </trkpt>
      <trkpt lat="49.36865" lon="-1.07769">
        <ele>13.1</ele>
        <time>2020-06-16T12:42:29Z</time>
      </trkpt>
      <trkpt lat="49.36865" lon="-1.07769">
        <ele>13.1</ele>
        <time>2020-06-16T12:42:30Z</time>
      </trkpt>
      <trkpt lat="49.36865" lon="-1.07769">
        <ele>13.1</ele>
        <time>2020-06-16T12:42:31Z</time>
      </trkpt>
      <trkpt lat="49.36865" lon="-1.07769">
        <ele>13.1</ele>
        <time>2020-06-16T12:42:32Z</time>
      </trkpt>
      <trkpt lat="49.36866" lon="-1.07769">
        <ele>13.1</ele>
        <time>2020-06-16T12:42:33Z</time>
      </trkpt>
      <trkpt lat="49.36865" lon="-1.07769">
        <ele>13.1</ele>
        <time>2020-06-16T12:42:34Z</time>
      </trkpt>
      <trkpt lat="49.36866" lon="-1.07769">
        <ele>13.1</ele>
        <time>2020-06-16T12:42:35Z</time>
      </trkpt>
      <trkpt lat="49.36866" lon="-1.07769">
        <ele>13.1</ele>
        <time>2020-06-16T12:42:36Z</time>
      </trkpt>
      <trkpt lat="49.36866" lon="-1.0777">
        <ele>13</ele>
        <time>2020-06-16T12:42:37Z</time>
      </trkpt>
      <trkpt lat="49.36866" lon="-1.07771">
        <ele>13</ele>
        <time>2020-06-16T12:42:38Z</time>
      </trkpt>
      <trkpt lat="49.36866" lon="-1.07771">
        <ele>13</ele>
        <time>2020-06-16T12:42:39Z</time>
      </trkpt>
      <trkpt lat="49.36866" lon="-1.07771">
        <ele>13</ele>
        <time>2020-06-16T12:42:40Z</time>
      </trkpt>
      <trkpt lat="49.36866" lon="-1.07772">
        <ele>13</ele>
        <time>2020-06-16T12:42:41Z</time>
      </trkpt>
      <trkpt lat="49.36866" lon="-1.07772">
        <ele>13</ele>
        <time>2020-06-16T12:42:42Z</time>
      </trkpt>
      <trkpt lat="49.36866" lon="-1.07771">
        <ele>13</ele>
        <time>2020-06-16T12:42:43Z</time>
      </trkpt>
      <trkpt lat="49.36866" lon="-1.07771">
        <ele>13</ele>
        <time>2020-06-16T12:42:44Z</time>
      </trkpt>
      <trkpt lat="49.36865" lon="-1.07771">
        <ele>13.1</ele>
        <time>2020-06-16T12:42:45Z</time>
      </trkpt>
      <trkpt lat="49.36865" lon="-1.07772">
        <ele>13.1</ele>
        <time>2020-06-16T12:42:46Z</time>
      </trkpt>
      <trkpt lat="49.36865" lon="-1.07772">
        <ele>13.1</ele>
        <time>2020-06-16T12:42:47Z</time>
      </trkpt>
      <trkpt lat="49.36864" lon="-1.07773">
        <ele>13.1</ele>
        <time>2020-06-16T12:42:48Z</time>
      </trkpt>
      <trkpt lat="49.36864" lon="-1.07772">
        <ele>13.1</ele>
        <time>2020-06-16T12:42:49Z</time>
      </trkpt>
      <trkpt lat="49.36864" lon="-1.07772">
        <ele>13.1</ele>
        <time>2020-06-16T12:42:50Z</time>
      </trkpt>
      <trkpt lat="49.36864" lon="-1.07771">
        <ele>13.1</ele>
        <time>2020-06-16T12:42:51Z</time>
      </trkpt>
      <trkpt lat="49.36863" lon="-1.0777">
        <ele>13.1</ele>
        <time>2020-06-16T12:42:52Z</time>
      </trkpt>
      <trkpt lat="49.36863" lon="-1.07768">
        <ele>13.1</ele>
        <time>2020-06-16T12:42:53Z</time>
      </trkpt>
      <trkpt lat="49.36863" lon="-1.07768">
        <ele>13.1</ele>
        <time>2020-06-16T12:42:54Z</time>
      </trkpt>
      <trkpt lat="49.36863" lon="-1.07767">
        <ele>13.1</ele>
        <time>2020-06-16T12:42:55Z</time>
      </trkpt>
      <trkpt lat="49.36864" lon="-1.07767">
        <ele>13.1</ele>
        <time>2020-06-16T12:42:56Z</time>
      </trkpt>
      <trkpt lat="49.36865" lon="-1.07766">
        <ele>13.1</ele>
        <time>2020-06-16T12:42:57Z</time>
      </trkpt>
      <trkpt lat="49.36865" lon="-1.07766">
        <ele>13.1</ele>
        <time>2020-06-16T12:42:58Z</time>
      </trkpt>
      <trkpt lat="49.36865" lon="-1.07767">
        <ele>13.1</ele>
        <time>2020-06-16T12:42:59Z</time>
      </trkpt>
      <trkpt lat="49.36866" lon="-1.07767">
        <ele>13.1</ele>
        <time>2020-06-16T12:43:00Z</time>
      </trkpt>
      <trkpt lat="49.36865" lon="-1.07768">
        <ele>13.1</ele>
        <time>2020-06-16T12:43:01Z</time>
      </trkpt>
      <trkpt lat="49.36865" lon="-1.07768">
        <ele>13.1</ele>
        <time>2020-06-16T12:43:02Z</time>
      </trkpt>
      <trkpt lat="49.36865" lon="-1.07769">
        <ele>13.1</ele>
        <time>2020-06-16T12:43:03Z</time>
      </trkpt>
      <trkpt lat="49.36865" lon="-1.0777">
        <ele>13.1</ele>
        <time>2020-06-16T12:43:04Z</time>
      </trkpt>
      <trkpt lat="49.36865" lon="-1.0777">
        <ele>13.1</ele>
        <time>2020-06-16T12:43:05Z</time>
      </trkpt>
      <trkpt lat="49.36865" lon="-1.07769">
        <ele>13.1</ele>
        <time>2020-06-16T12:43:06Z</time>
      </trkpt>
      <trkpt lat="49.36865" lon="-1.0777">
        <ele>13</ele>
        <time>2020-06-16T12:43:07Z</time>
      </trkpt>
      <trkpt lat="49.36866" lon="-1.0777">
        <ele>13</ele>
        <time>2020-06-16T12:43:08Z</time>
      </trkpt>
      <trkpt lat="49.36863" lon="-1.07769">
        <ele>13.1</ele>
        <time>2020-06-16T12:44:06Z</time>
      </trkpt>
      <trkpt lat="49.36865" lon="-1.07768">
        <ele>13.1</ele>
        <time>2020-06-16T12:44:07Z</time>
      </trkpt>
      <trkpt lat="49.36865" lon="-1.07768">
        <ele>13.1</ele>
        <time>2020-06-16T12:44:08Z</time>
      </trkpt>
      <trkpt lat="49.36866" lon="-1.07767">
        <ele>13.1</ele>
        <time>2020-06-16T12:44:09Z</time>
      </trkpt>
      <trkpt lat="49.36866" lon="-1.07767">
        <ele>13.1</ele>
        <time>2020-06-16T12:44:10Z</time>
      </trkpt>
      <trkpt lat="49.36867" lon="-1.07767">
        <ele>13.1</ele>
        <time>2020-06-16T12:44:11Z</time>
      </trkpt>
      <trkpt lat="49.36867" lon="-1.07767">
        <ele>13.1</ele>
        <time>2020-06-16T12:44:12Z</time>
      </trkpt>
      <trkpt lat="49.36868" lon="-1.07766">
        <ele>13.1</ele>
        <time>2020-06-16T12:44:13Z</time>
      </trkpt>
      <trkpt lat="49.36868" lon="-1.07767">
        <ele>13.1</ele>
        <time>2020-06-16T12:44:14Z</time>
      </trkpt>
      <trkpt lat="49.36868" lon="-1.07766">
        <ele>13.1</ele>
        <time>2020-06-16T12:44:15Z</time>
      </trkpt>
      <trkpt lat="49.36869" lon="-1.07766">
        <ele>13.1</ele>
        <time>2020-06-16T12:44:16Z</time>
      </trkpt>
      <trkpt lat="49.36869" lon="-1.07766">
        <ele>13.1</ele>
        <time>2020-06-16T12:44:17Z</time>
      </trkpt>
      <trkpt lat="49.36869" lon="-1.07766">
        <ele>13.1</ele>
        <time>2020-06-16T12:44:18Z</time>
      </trkpt>
      <trkpt lat="49.36869" lon="-1.07766">
        <ele>13.1</ele>
        <time>2020-06-16T12:44:19Z</time>
      </trkpt>
      <trkpt lat="49.36868" lon="-1.07768">
        <ele>13.1</ele>
        <time>2020-06-16T12:44:20Z</time>
      </trkpt>
      <trkpt lat="49.36868" lon="-1.07768">
        <ele>13.1</ele>
        <time>2020-06-16T12:44:21Z</time>
      </trkpt>
      <trkpt lat="49.36868" lon="-1.07768">
        <ele>13.1</ele>
        <time>2020-06-16T12:44:22Z</time>
      </trkpt>
      <trkpt lat="49.36868" lon="-1.07768">
        <ele>13.1</ele>
        <time>2020-06-16T12:44:23Z</time>
      </trkpt>
      <trkpt lat="49.36868" lon="-1.07768">
        <ele>13.1</ele>
        <time>2020-06-16T12:44:24Z</time>
      </trkpt>
      <trkpt lat="49.36868" lon="-1.07769">
        <ele>13.1</ele>
        <time>2020-06-16T12:44:25Z</time>
      </trkpt>
      <trkpt lat="49.36868" lon="-1.0777">
        <ele>13</ele>
        <time>2020-06-16T12:44:26Z</time>
      </trkpt>
      <trkpt lat="49.36868" lon="-1.07769">
        <ele>13</ele>
        <time>2020-06-16T12:44:27Z</time>
      </trkpt>
      <trkpt lat="49.36868" lon="-1.0777">
        <ele>13</ele>
        <time>2020-06-16T12:44:28Z</time>
      </trkpt>
      <trkpt lat="49.36868" lon="-1.0777">
        <ele>13</ele>
        <time>2020-06-16T12:44:29Z</time>
      </trkpt>
      <trkpt lat="49.36868" lon="-1.07772">
        <ele>13</ele>
        <time>2020-06-16T12:44:30Z</time>
      </trkpt>
      <trkpt lat="49.36868" lon="-1.07772">
        <ele>13</ele>
        <time>2020-06-16T12:44:31Z</time>
      </trkpt>
      <trkpt lat="49.36867" lon="-1.07772">
        <ele>13</ele>
        <time>2020-06-16T12:44:32Z</time>
      </trkpt>
      <trkpt lat="49.36867" lon="-1.07771">
        <ele>13</ele>
        <time>2020-06-16T12:44:33Z</time>
      </trkpt>
      <trkpt lat="49.36868" lon="-1.07772">
        <ele>13</ele>
        <time>2020-06-16T12:44:34Z</time>
      </trkpt>
      <trkpt lat="49.36867" lon="-1.07772">
        <ele>13</ele>
        <time>2020-06-16T12:44:35Z</time>
      </trkpt>
      <trkpt lat="49.36868" lon="-1.07772">
        <ele>13</ele>
        <time>2020-06-16T12:44:36Z</time>
      </trkpt>
      <trkpt lat="49.36868" lon="-1.07772">
        <ele>13</ele>
        <time>2020-06-16T12:44:37Z</time>
      </trkpt>
      <trkpt lat="49.36869" lon="-1.07763">
        <ele>13.2</ele>
        <time>2020-06-16T12:45:20Z</time>
      </trkpt>
      <trkpt lat="49.36869" lon="-1.07762">
        <ele>13.2</ele>
        <time>2020-06-16T12:45:21Z</time>
      </trkpt>
      <trkpt lat="49.36869" lon="-1.07762">
        <ele>13.2</ele>
        <time>2020-06-16T12:45:22Z</time>
      </trkpt>
      <trkpt lat="49.36869" lon="-1.07762">
        <ele>13.2</ele>
        <time>2020-06-16T12:45:23Z</time>
      </trkpt>
      <trkpt lat="49.36869" lon="-1.07761">
        <ele>13.2</ele>
        <time>2020-06-16T12:45:24Z</time>
      </trkpt>
      <trkpt lat="49.36869" lon="-1.07761">
        <ele>13.2</ele>
        <time>2020-06-16T12:45:25Z</time>
      </trkpt>
      <trkpt lat="49.36869" lon="-1.07761">
        <ele>13.2</ele>
        <time>2020-06-16T12:45:26Z</time>
      </trkpt>
      <trkpt lat="49.36869" lon="-1.07761">
        <ele>13.2</ele>
        <time>2020-06-16T12:45:27Z</time>
      </trkpt>
      <trkpt lat="49.36869" lon="-1.0776">
        <ele>13.2</ele>
        <time>2020-06-16T12:45:28Z</time>
      </trkpt>
      <trkpt lat="49.36869" lon="-1.07759">
        <ele>13.2</ele>
        <time>2020-06-16T12:45:29Z</time>
      </trkpt>
      <trkpt lat="49.3687" lon="-1.07759">
        <ele>13.2</ele>
        <time>2020-06-16T12:45:30Z</time>
      </trkpt>
      <trkpt lat="49.36871" lon="-1.0776">
        <ele>13.2</ele>
        <time>2020-06-16T12:45:31Z</time>
      </trkpt>
      <trkpt lat="49.36871" lon="-1.0776">
        <ele>13.2</ele>
        <time>2020-06-16T12:45:32Z</time>
      </trkpt>
      <trkpt lat="49.36871" lon="-1.0776">
        <ele>13.2</ele>
        <time>2020-06-16T12:45:33Z</time>
      </trkpt>
      <trkpt lat="49.36872" lon="-1.07761">
        <ele>13.1</ele>
        <time>2020-06-16T12:45:34Z</time>
      </trkpt>
      <trkpt lat="49.36872" lon="-1.07761">
        <ele>13.1</ele>
        <time>2020-06-16T12:45:35Z</time>
      </trkpt>
      <trkpt lat="49.36872" lon="-1.07762">
        <ele>13.1</ele>
        <time>2020-06-16T12:45:36Z</time>
      </trkpt>
      <trkpt lat="49.36873" lon="-1.07763">
        <ele>13.1</ele>
        <time>2020-06-16T12:45:37Z</time>
      </trkpt>
      <trkpt lat="49.36873" lon="-1.07763">
        <ele>13.1</ele>
        <time>2020-06-16T12:45:38Z</time>
      </trkpt>
      <trkpt lat="49.36874" lon="-1.07763">
        <ele>13.1</ele>
        <time>2020-06-16T12:45:39Z</time>
      </trkpt>
      <trkpt lat="49.36874" lon="-1.07762">
        <ele>13.1</ele>
        <time>2020-06-16T12:45:40Z</time>
      </trkpt>
      <trkpt lat="49.36874" lon="-1.07762">
        <ele>13.1</ele>
        <time>2020-06-16T12:45:41Z</time>
      </trkpt>
      <trkpt lat="49.36874" lon="-1.07763">
        <ele>13.1</ele>
        <time>2020-06-16T12:45:42Z</time>
      </trkpt>
      <trkpt lat="49.36874" lon="-1.07764">
        <ele>13.1</ele>
        <time>2020-06-16T12:45:43Z</time>
      </trkpt>
      <trkpt lat="49.36874" lon="-1.07766">
        <ele>13</ele>
        <time>2020-06-16T12:45:44Z</time>
      </trkpt>
      <trkpt lat="49.36874" lon="-1.07767">
        <ele>13</ele>
        <time>2020-06-16T12:45:45Z</time>
      </trkpt>
      <trkpt lat="49.36874" lon="-1.07767">
        <ele>13</ele>
        <time>2020-06-16T12:45:46Z</time>
      </trkpt>
      <trkpt lat="49.36874" lon="-1.07767">
        <ele>13</ele>
        <time>2020-06-16T12:45:47Z</time>
      </trkpt>
      <trkpt lat="49.36874" lon="-1.07767">
        <ele>13</ele>
        <time>2020-06-16T12:45:48Z</time>
      </trkpt>
      <trkpt lat="49.36874" lon="-1.07767">
        <ele>13</ele>
        <time>2020-06-16T12:45:49Z</time>
      </trkpt>
      <trkpt lat="49.36874" lon="-1.07767">
        <ele>13</ele>
        <time>2020-06-16T12:45:50Z</time>
      </trkpt>
      <trkpt lat="49.36874" lon="-1.07767">
        <ele>13</ele>
        <time>2020-06-16T12:45:51Z</time>
      </trkpt>
      <trkpt lat="49.36867" lon="-1.07761">
        <ele>13.2</ele>
        <time>2020-06-16T12:46:44Z</time>
      </trkpt>
      <trkpt lat="49.36867" lon="-1.0776">
        <ele>13.3</ele>
        <time>2020-06-16T12:46:45Z</time>
      </trkpt>
      <trkpt lat="49.36867" lon="-1.07759">
        <ele>13.3</ele>
        <time>2020-06-16T12:46:46Z</time>
      </trkpt>
      <trkpt lat="49.36866" lon="-1.07759">
        <ele>13.3</ele>
        <time>2020-06-16T12:46:47Z</time>
      </trkpt>
      <trkpt lat="49.36866" lon="-1.07759">
        <ele>13.3</ele>
        <time>2020-06-16T12:46:48Z</time>
      </trkpt>
      <trkpt lat="49.36866" lon="-1.07759">
        <ele>13.3</ele>
        <time>2020-06-16T12:46:49Z</time>
      </trkpt>
      <trkpt lat="49.36865" lon="-1.07759">
        <ele>13.3</ele>
        <time>2020-06-16T12:46:50Z</time>
      </trkpt>
      <trkpt lat="49.36866" lon="-1.07759">
        <ele>13.3</ele>
        <time>2020-06-16T12:46:51Z</time>
      </trkpt>
      <trkpt lat="49.36866" lon="-1.07759">
        <ele>13.3</ele>
        <time>2020-06-16T12:46:52Z</time>
      </trkpt>
      <trkpt lat="49.36865" lon="-1.0776">
        <ele>13.3</ele>
        <time>2020-06-16T12:46:53Z</time>
      </trkpt>
      <trkpt lat="49.36865" lon="-1.0776">
        <ele>13.3</ele>
        <time>2020-06-16T12:46:54Z</time>
      </trkpt>
      <trkpt lat="49.36864" lon="-1.0776">
        <ele>13.3</ele>
        <time>2020-06-16T12:46:55Z</time>
      </trkpt>
      <trkpt lat="49.36864" lon="-1.07761">
        <ele>13.2</ele>
        <time>2020-06-16T12:46:56Z</time>
      </trkpt>
      <trkpt lat="49.36864" lon="-1.0776">
        <ele>13.3</ele>
        <time>2020-06-16T12:46:57Z</time>
      </trkpt>
      <trkpt lat="49.36864" lon="-1.0776">
        <ele>13.3</ele>
        <time>2020-06-16T12:46:58Z</time>
      </trkpt>
      <trkpt lat="49.36864" lon="-1.0776">
        <ele>13.3</ele>
        <time>2020-06-16T12:46:59Z</time>
      </trkpt>
      <trkpt lat="49.36865" lon="-1.0776">
        <ele>13.3</ele>
        <time>2020-06-16T12:47:00Z</time>
      </trkpt>
      <trkpt lat="49.36865" lon="-1.07761">
        <ele>13.2</ele>
        <time>2020-06-16T12:47:01Z</time>
      </trkpt>
      <trkpt lat="49.36865" lon="-1.07761">
        <ele>13.2</ele>
        <time>2020-06-16T12:47:02Z</time>
      </trkpt>
      <trkpt lat="49.36865" lon="-1.07761">
        <ele>13.2</ele>
        <time>2020-06-16T12:47:03Z</time>
      </trkpt>
      <trkpt lat="49.36865" lon="-1.07761">
        <ele>13.2</ele>
        <time>2020-06-16T12:47:04Z</time>
      </trkpt>
      <trkpt lat="49.36865" lon="-1.07761">
        <ele>13.2</ele>
        <time>2020-06-16T12:47:05Z</time>
      </trkpt>
      <trkpt lat="49.36864" lon="-1.07762">
        <ele>13.2</ele>
        <time>2020-06-16T12:47:06Z</time>
      </trkpt>
      <trkpt lat="49.36864" lon="-1.07763">
        <ele>13.2</ele>
        <time>2020-06-16T12:47:07Z</time>
      </trkpt>
      <trkpt lat="49.36864" lon="-1.07763">
        <ele>13.2</ele>
        <time>2020-06-16T12:47:08Z</time>
      </trkpt>
      <trkpt lat="49.36864" lon="-1.07764">
        <ele>13.2</ele>
        <time>2020-06-16T12:47:09Z</time>
      </trkpt>
      <trkpt lat="49.36864" lon="-1.07765">
        <ele>13.1</ele>
        <time>2020-06-16T12:47:10Z</time>
      </trkpt>
      <trkpt lat="49.36864" lon="-1.07766">
        <ele>13.1</ele>
        <time>2020-06-16T12:47:11Z</time>
      </trkpt>
      <trkpt lat="49.36863" lon="-1.07766">
        <ele>13.1</ele>
        <time>2020-06-16T12:47:12Z</time>
      </trkpt>
      <trkpt lat="49.36863" lon="-1.07766">
        <ele>13.1</ele>
        <time>2020-06-16T12:47:13Z</time>
      </trkpt>
      <trkpt lat="49.36863" lon="-1.07767">
        <ele>13.1</ele>
        <time>2020-06-16T12:47:14Z</time>
      </trkpt>
      <trkpt lat="49.36864" lon="-1.07768">
        <ele>13.1</ele>
        <time>2020-06-16T12:47:15Z</time>
      </trkpt>
      <trkpt lat="49.36863" lon="-1.07768">
        <ele>13.1</ele>
        <time>2020-06-16T12:47:16Z</time>
      </trkpt>
      <trkpt lat="49.36863" lon="-1.07768">
        <ele>13.1</ele>
        <time>2020-06-16T12:47:17Z</time>
      </trkpt>
      <trkpt lat="49.36863" lon="-1.0777">
        <ele>13.1</ele>
        <time>2020-06-16T12:47:18Z</time>
      </trkpt>
      <trkpt lat="49.36863" lon="-1.07769">
        <ele>13.1</ele>
        <time>2020-06-16T12:47:19Z</time>
      </trkpt>
      <trkpt lat="49.36863" lon="-1.0777">
        <ele>13.1</ele>
        <time>2020-06-16T12:47:20Z</time>
      </trkpt>
      <trkpt lat="49.36862" lon="-1.0777">
        <ele>13.1</ele>
        <time>2020-06-16T12:47:21Z</time>
      </trkpt>
      <trkpt lat="49.36862" lon="-1.07771">
        <ele>13.1</ele>
        <time>2020-06-16T12:47:22Z</time>
      </trkpt>
      <trkpt lat="49.36862" lon="-1.07772">
        <ele>13.1</ele>
        <time>2020-06-16T12:47:23Z</time>
      </trkpt>
      <trkpt lat="49.36861" lon="-1.07772">
        <ele>13.1</ele>
        <time>2020-06-16T12:47:24Z</time>
      </trkpt>
      <trkpt lat="49.36864" lon="-1.0779">
        <ele>12.8</ele>
        <time>2020-06-16T13:02:58Z</time>
      </trkpt>
      <trkpt lat="49.36863" lon="-1.0779">
        <ele>12.8</ele>
        <time>2020-06-16T13:02:59Z</time>
      </trkpt>
      <trkpt lat="49.36863" lon="-1.07791">
        <ele>12.7</ele>
        <time>2020-06-16T13:03:00Z</time>
      </trkpt>
      <trkpt lat="49.36862" lon="-1.07792">
        <ele>12.7</ele>
        <time>2020-06-16T13:03:01Z</time>
      </trkpt>
      <trkpt lat="49.36863" lon="-1.07792">
        <ele>12.7</ele>
        <time>2020-06-16T13:03:02Z</time>
      </trkpt>
      <trkpt lat="49.36863" lon="-1.07792">
        <ele>12.7</ele>
        <time>2020-06-16T13:03:03Z</time>
      </trkpt>
      <trkpt lat="49.36863" lon="-1.07793">
        <ele>12.7</ele>
        <time>2020-06-16T13:03:04Z</time>
      </trkpt>
      <trkpt lat="49.36864" lon="-1.07793">
        <ele>12.7</ele>
        <time>2020-06-16T13:03:05Z</time>
      </trkpt>
      <trkpt lat="49.36865" lon="-1.07793">
        <ele>12.7</ele>
        <time>2020-06-16T13:03:06Z</time>
      </trkpt>
      <trkpt lat="49.36865" lon="-1.07793">
        <ele>12.7</ele>
        <time>2020-06-16T13:03:07Z</time>
      </trkpt>
      <trkpt lat="49.36865" lon="-1.07793">
        <ele>12.7</ele>
        <time>2020-06-16T13:03:08Z</time>
      </trkpt>
      <trkpt lat="49.36866" lon="-1.07793">
        <ele>12.7</ele>
        <time>2020-06-16T13:03:09Z</time>
      </trkpt>
      <trkpt lat="49.36866" lon="-1.07793">
        <ele>12.7</ele>
        <time>2020-06-16T13:03:10Z</time>
      </trkpt>
      <trkpt lat="49.36866" lon="-1.07793">
        <ele>12.7</ele>
        <time>2020-06-16T13:03:11Z</time>
      </trkpt>
      <trkpt lat="49.36866" lon="-1.07792">
        <ele>12.7</ele>
        <time>2020-06-16T13:03:12Z</time>
      </trkpt>
      <trkpt lat="49.36866" lon="-1.07792">
        <ele>12.7</ele>
        <time>2020-06-16T13:03:13Z</time>
      </trkpt>
      <trkpt lat="49.36866" lon="-1.07792">
        <ele>12.7</ele>
        <time>2020-06-16T13:03:14Z</time>
      </trkpt>
      <trkpt lat="49.36866" lon="-1.07792">
        <ele>12.7</ele>
        <time>2020-06-16T13:03:15Z</time>
      </trkpt>
      <trkpt lat="49.36864" lon="-1.07784">
        <ele>12.8</ele>
        <time>2020-06-16T13:03:56Z</time>
      </trkpt>
      <trkpt lat="49.36864" lon="-1.07784">
        <ele>12.8</ele>
        <time>2020-06-16T13:03:57Z</time>
      </trkpt>
      <trkpt lat="49.36863" lon="-1.07783">
        <ele>12.8</ele>
        <time>2020-06-16T13:03:58Z</time>
      </trkpt>
      <trkpt lat="49.36862" lon="-1.07782">
        <ele>12.8</ele>
        <time>2020-06-16T13:03:59Z</time>
      </trkpt>
      <trkpt lat="49.3686" lon="-1.07781">
        <ele>12.9</ele>
        <time>2020-06-16T13:04:00Z</time>
      </trkpt>
      <trkpt lat="49.36859" lon="-1.07781">
        <ele>12.9</ele>
        <time>2020-06-16T13:04:01Z</time>
      </trkpt>
      <trkpt lat="49.36858" lon="-1.07781">
        <ele>12.9</ele>
        <time>2020-06-16T13:04:02Z</time>
      </trkpt>
      <trkpt lat="49.36857" lon="-1.07781">
        <ele>12.9</ele>
        <time>2020-06-16T13:04:03Z</time>
      </trkpt>
      <trkpt lat="49.36857" lon="-1.0778">
        <ele>12.9</ele>
        <time>2020-06-16T13:04:04Z</time>
      </trkpt>
      <trkpt lat="49.36857" lon="-1.0778">
        <ele>12.9</ele>
        <time>2020-06-16T13:04:05Z</time>
      </trkpt>
      <trkpt lat="49.36857" lon="-1.0778">
        <ele>12.9</ele>
        <time>2020-06-16T13:04:06Z</time>
      </trkpt>
      <trkpt lat="49.36857" lon="-1.0778">
        <ele>12.9</ele>
        <time>2020-06-16T13:04:07Z</time>
      </trkpt>
      <trkpt lat="49.36857" lon="-1.0778">
        <ele>12.9</ele>
        <time>2020-06-16T13:04:08Z</time>
      </trkpt>
      <trkpt lat="49.36858" lon="-1.0778">
        <ele>12.9</ele>
        <time>2020-06-16T13:04:09Z</time>
      </trkpt>
      <trkpt lat="49.36857" lon="-1.07779">
        <ele>12.9</ele>
        <time>2020-06-16T13:04:10Z</time>
      </trkpt>
      <trkpt lat="49.36857" lon="-1.07779">
        <ele>12.9</ele>
        <time>2020-06-16T13:04:11Z</time>
      </trkpt>
      <trkpt lat="49.36858" lon="-1.07778">
        <ele>12.9</ele>
        <time>2020-06-16T13:04:12Z</time>
      </trkpt>
      <trkpt lat="49.36858" lon="-1.07778">
        <ele>12.9</ele>
        <time>2020-06-16T13:04:13Z</time>
      </trkpt>
      <trkpt lat="49.36859" lon="-1.07779">
        <ele>12.9</ele>
        <time>2020-06-16T13:04:14Z</time>
      </trkpt>
      <trkpt lat="49.3686" lon="-1.07779">
        <ele>12.9</ele>
        <time>2020-06-16T13:04:15Z</time>
      </trkpt>
      <trkpt lat="49.36861" lon="-1.0778">
        <ele>12.9</ele>
        <time>2020-06-16T13:04:16Z</time>
      </trkpt>
      <trkpt lat="49.36862" lon="-1.0778">
        <ele>12.9</ele>
        <time>2020-06-16T13:04:17Z</time>
      </trkpt>
      <trkpt lat="49.36862" lon="-1.0778">
        <ele>12.9</ele>
        <time>2020-06-16T13:04:18Z</time>
      </trkpt>
      <trkpt lat="49.36864" lon="-1.0778">
        <ele>12.9</ele>
        <time>2020-06-16T13:04:19Z</time>
      </trkpt>
      <trkpt lat="49.36864" lon="-1.0778">
        <ele>12.9</ele>
        <time>2020-06-16T13:04:20Z</time>
      </trkpt>
      <trkpt lat="49.36864" lon="-1.0778">
        <ele>12.9</ele>
        <time>2020-06-16T13:04:21Z</time>
      </trkpt>
      <trkpt lat="49.36865" lon="-1.0778">
        <ele>12.9</ele>
        <time>2020-06-16T13:04:22Z</time>
      </trkpt>
      <trkpt lat="49.36866" lon="-1.07781">
        <ele>12.9</ele>
        <time>2020-06-16T13:04:23Z</time>
      </trkpt>
      <trkpt lat="49.36866" lon="-1.07781">
        <ele>12.9</ele>
        <time>2020-06-16T13:04:24Z</time>
      </trkpt>
      <trkpt lat="49.36867" lon="-1.07781">
        <ele>12.9</ele>
        <time>2020-06-16T13:04:25Z</time>
      </trkpt>
      <trkpt lat="49.36867" lon="-1.07781">
        <ele>12.9</ele>
        <time>2020-06-16T13:04:26Z</time>
      </trkpt>
      <trkpt lat="49.36868" lon="-1.07781">
        <ele>12.9</ele>
        <time>2020-06-16T13:04:27Z</time>
      </trkpt>
      <trkpt lat="49.36868" lon="-1.07781">
        <ele>12.9</ele>
        <time>2020-06-16T13:04:28Z</time>
      </trkpt>
      <trkpt lat="49.36868" lon="-1.0778">
        <ele>12.9</ele>
        <time>2020-06-16T13:04:29Z</time>
      </trkpt>
      <trkpt lat="49.36868" lon="-1.07779">
        <ele>12.9</ele>
        <time>2020-06-16T13:04:30Z</time>
      </trkpt>
      <trkpt lat="49.36868" lon="-1.07778">
        <ele>12.9</ele>
        <time>2020-06-16T13:04:31Z</time>
      </trkpt>
      <trkpt lat="49.36868" lon="-1.07778">
        <ele>12.9</ele>
        <time>2020-06-16T13:04:32Z</time>
      </trkpt>
      <trkpt lat="49.36867" lon="-1.07778">
        <ele>12.9</ele>
        <time>2020-06-16T13:04:33Z</time>
      </trkpt>
      <trkpt lat="49.36868" lon="-1.07778">
        <ele>12.9</ele>
        <time>2020-06-16T13:04:34Z</time>
      </trkpt>
      <trkpt lat="49.36868" lon="-1.07778">
        <ele>12.9</ele>
        <time>2020-06-16T13:04:35Z</time>
      </trkpt>
      <trkpt lat="49.36869" lon="-1.07778">
        <ele>12.9</ele>
        <time>2020-06-16T13:04:36Z</time>
      </trkpt>
      <trkpt lat="49.36869" lon="-1.07778">
        <ele>12.9</ele>
        <time>2020-06-16T13:04:37Z</time>
      </trkpt>
      <trkpt lat="49.36869" lon="-1.07778">
        <ele>12.9</ele>
        <time>2020-06-16T13:04:38Z</time>
      </trkpt>
      <trkpt lat="49.36857" lon="-1.07772">
        <ele>13.1</ele>
        <time>2020-06-16T13:06:08Z</time>
      </trkpt>
      <trkpt lat="49.36856" lon="-1.07772">
        <ele>13.1</ele>
        <time>2020-06-16T13:06:09Z</time>
      </trkpt>
      <trkpt lat="49.36856" lon="-1.07771">
        <ele>13.1</ele>
        <time>2020-06-16T13:06:10Z</time>
      </trkpt>
      <trkpt lat="49.36856" lon="-1.0777">
        <ele>13.1</ele>
        <time>2020-06-16T13:06:11Z</time>
      </trkpt>
      <trkpt lat="49.36855" lon="-1.07769">
        <ele>13.1</ele>
        <time>2020-06-16T13:06:12Z</time>
      </trkpt>
      <trkpt lat="49.36856" lon="-1.07769">
        <ele>13.2</ele>
        <time>2020-06-16T13:06:13Z</time>
      </trkpt>
      <trkpt lat="49.36855" lon="-1.07768">
        <ele>13.2</ele>
        <time>2020-06-16T13:06:14Z</time>
      </trkpt>
      <trkpt lat="49.36855" lon="-1.07768">
        <ele>13.2</ele>
        <time>2020-06-16T13:06:15Z</time>
      </trkpt>
      <trkpt lat="49.36855" lon="-1.07767">
        <ele>13.2</ele>
        <time>2020-06-16T13:06:16Z</time>
      </trkpt>
      <trkpt lat="49.36854" lon="-1.07766">
        <ele>13.2</ele>
        <time>2020-06-16T13:06:17Z</time>
      </trkpt>
      <trkpt lat="49.36853" lon="-1.07766">
        <ele>13.2</ele>
        <time>2020-06-16T13:06:18Z</time>
      </trkpt>
      <trkpt lat="49.36854" lon="-1.07766">
        <ele>13.2</ele>
        <time>2020-06-16T13:06:19Z</time>
      </trkpt>
      <trkpt lat="49.36854" lon="-1.07767">
        <ele>13.2</ele>
        <time>2020-06-16T13:06:20Z</time>
      </trkpt>
      <trkpt lat="49.36855" lon="-1.07766">
        <ele>13.2</ele>
        <time>2020-06-16T13:06:21Z</time>
      </trkpt>
      <trkpt lat="49.36855" lon="-1.07765">
        <ele>13.2</ele>
        <time>2020-06-16T13:06:22Z</time>
      </trkpt>
      <trkpt lat="49.36855" lon="-1.07765">
        <ele>13.3</ele>
        <time>2020-06-16T13:06:23Z</time>
      </trkpt>
      <trkpt lat="49.36855" lon="-1.07764">
        <ele>13.3</ele>
        <time>2020-06-16T13:06:24Z</time>
      </trkpt>
      <trkpt lat="49.36855" lon="-1.07763">
        <ele>13.3</ele>
        <time>2020-06-16T13:06:25Z</time>
      </trkpt>
      <trkpt lat="49.36857" lon="-1.07764">
        <ele>13.3</ele>
        <time>2020-06-16T13:06:26Z</time>
      </trkpt>
      <trkpt lat="49.36857" lon="-1.07764">
        <ele>13.3</ele>
        <time>2020-06-16T13:06:27Z</time>
      </trkpt>
      <trkpt lat="49.36858" lon="-1.07764">
        <ele>13.3</ele>
        <time>2020-06-16T13:06:28Z</time>
      </trkpt>
      <trkpt lat="49.36858" lon="-1.07764">
        <ele>13.3</ele>
        <time>2020-06-16T13:06:29Z</time>
      </trkpt>
      <trkpt lat="49.36858" lon="-1.07763">
        <ele>13.3</ele>
        <time>2020-06-16T13:06:30Z</time>
      </trkpt>
      <trkpt lat="49.36858" lon="-1.07763">
        <ele>13.3</ele>
        <time>2020-06-16T13:06:31Z</time>
      </trkpt>
      <trkpt lat="49.36858" lon="-1.07762">
        <ele>13.3</ele>
        <time>2020-06-16T13:06:32Z</time>
      </trkpt>
      <trkpt lat="49.36858" lon="-1.07762">
        <ele>13.3</ele>
        <time>2020-06-16T13:06:33Z</time>
      </trkpt>
      <trkpt lat="49.36858" lon="-1.07763">
        <ele>13.3</ele>
        <time>2020-06-16T13:06:34Z</time>
      </trkpt>
      <trkpt lat="49.36858" lon="-1.07764">
        <ele>13.3</ele>
        <time>2020-06-16T13:06:35Z</time>
      </trkpt>
      <trkpt lat="49.36858" lon="-1.07766">
        <ele>13.2</ele>
        <time>2020-06-16T13:06:36Z</time>
      </trkpt>
      <trkpt lat="49.36858" lon="-1.07766">
        <ele>13.2</ele>
        <time>2020-06-16T13:06:37Z</time>
      </trkpt>
      <trkpt lat="49.36857" lon="-1.07767">
        <ele>13.2</ele>
        <time>2020-06-16T13:06:38Z</time>
      </trkpt>
      <trkpt lat="49.36857" lon="-1.07767">
        <ele>13.2</ele>
        <time>2020-06-16T13:06:39Z</time>
      </trkpt>
      <trkpt lat="49.36857" lon="-1.07767">
        <ele>13.2</ele>
        <time>2020-06-16T13:06:40Z</time>
      </trkpt>
      <trkpt lat="49.36857" lon="-1.07767">
        <ele>13.2</ele>
        <time>2020-06-16T13:06:41Z</time>
      </trkpt>
      <trkpt lat="49.36857" lon="-1.07767">
        <ele>13.2</ele>
        <time>2020-06-16T13:06:42Z</time>
      </trkpt>
      <trkpt lat="49.36857" lon="-1.07767">
        <ele>13.2</ele>
        <time>2020-06-16T13:06:43Z</time>
      </trkpt>
      <trkpt lat="49.36857" lon="-1.07767">
        <ele>13.2</ele>
        <time>2020-06-16T13:06:44Z</time>
      </trkpt>
      <trkpt lat="49.36857" lon="-1.07767">
        <ele>13.2</ele>
        <time>2020-06-16T13:06:45Z</time>
      </trkpt>
      <trkpt lat="49.36853" lon="-1.07772">
        <ele>13.1</ele>
        <time>2020-06-16T13:07:17Z</time>
      </trkpt>
      <trkpt lat="49.36852" lon="-1.07773">
        <ele>13.1</ele>
        <time>2020-06-16T13:07:18Z</time>
      </trkpt>
      <trkpt lat="49.36851" lon="-1.07773">
        <ele>13.2</ele>
        <time>2020-06-16T13:07:19Z</time>
      </trkpt>
      <trkpt lat="49.3685" lon="-1.07774">
        <ele>13.1</ele>
        <time>2020-06-16T13:07:20Z</time>
      </trkpt>
      <trkpt lat="49.3685" lon="-1.07774">
        <ele>13.1</ele>
        <time>2020-06-16T13:07:21Z</time>
      </trkpt>
      <trkpt lat="49.3685" lon="-1.07774">
        <ele>13.1</ele>
        <time>2020-06-16T13:07:22Z</time>
      </trkpt>
      <trkpt lat="49.36851" lon="-1.07775">
        <ele>13.1</ele>
        <time>2020-06-16T13:07:23Z</time>
      </trkpt>
      <trkpt lat="49.36851" lon="-1.07775">
        <ele>13.1</ele>
        <time>2020-06-16T13:07:24Z</time>
      </trkpt>
      <trkpt lat="49.3685" lon="-1.07775">
        <ele>13.1</ele>
        <time>2020-06-16T13:07:25Z</time>
      </trkpt>
      <trkpt lat="49.36852" lon="-1.07775">
        <ele>13.1</ele>
        <time>2020-06-16T13:07:26Z</time>
      </trkpt>
      <trkpt lat="49.36851" lon="-1.07776">
        <ele>13.1</ele>
        <time>2020-06-16T13:07:27Z</time>
      </trkpt>
      <trkpt lat="49.36851" lon="-1.07776">
        <ele>13.1</ele>
        <time>2020-06-16T13:07:28Z</time>
      </trkpt>
      <trkpt lat="49.36851" lon="-1.07776">
        <ele>13.1</ele>
        <time>2020-06-16T13:07:29Z</time>
      </trkpt>
      <trkpt lat="49.36851" lon="-1.07775">
        <ele>13.1</ele>
        <time>2020-06-16T13:07:30Z</time>
      </trkpt>
      <trkpt lat="49.36852" lon="-1.07776">
        <ele>13.1</ele>
        <time>2020-06-16T13:07:31Z</time>
      </trkpt>
      <trkpt lat="49.36853" lon="-1.07776">
        <ele>13.1</ele>
        <time>2020-06-16T13:07:32Z</time>
      </trkpt>
      <trkpt lat="49.36853" lon="-1.07776">
        <ele>13.1</ele>
        <time>2020-06-16T13:07:33Z</time>
      </trkpt>
      <trkpt lat="49.36852" lon="-1.07777">
        <ele>13.1</ele>
        <time>2020-06-16T13:07:34Z</time>
      </trkpt>
      <trkpt lat="49.36853" lon="-1.07777">
        <ele>13.1</ele>
        <time>2020-06-16T13:07:35Z</time>
      </trkpt>
      <trkpt lat="49.36853" lon="-1.07777">
        <ele>13.1</ele>
        <time>2020-06-16T13:07:36Z</time>
      </trkpt>
      <trkpt lat="49.36852" lon="-1.07777">
        <ele>13.1</ele>
        <time>2020-06-16T13:07:37Z</time>
      </trkpt>
      <trkpt lat="49.36855" lon="-1.07786">
        <ele>12.9</ele>
        <time>2020-06-16T13:09:00Z</time>
      </trkpt>
      <trkpt lat="49.36856" lon="-1.07787">
        <ele>12.8</ele>
        <time>2020-06-16T13:09:01Z</time>
      </trkpt>
      <trkpt lat="49.36855" lon="-1.07787">
        <ele>12.8</ele>
        <time>2020-06-16T13:09:02Z</time>
      </trkpt>
      <trkpt lat="49.36855" lon="-1.07787">
        <ele>12.8</ele>
        <time>2020-06-16T13:09:03Z</time>
      </trkpt>
      <trkpt lat="49.36854" lon="-1.07788">
        <ele>12.8</ele>
        <time>2020-06-16T13:09:04Z</time>
      </trkpt>
      <trkpt lat="49.36854" lon="-1.07787">
        <ele>12.8</ele>
        <time>2020-06-16T13:09:05Z</time>
      </trkpt>
      <trkpt lat="49.36854" lon="-1.07788">
        <ele>12.8</ele>
        <time>2020-06-16T13:09:06Z</time>
      </trkpt>
      <trkpt lat="49.36855" lon="-1.07789">
        <ele>12.8</ele>
        <time>2020-06-16T13:09:07Z</time>
      </trkpt>
      <trkpt lat="49.36855" lon="-1.07789">
        <ele>12.8</ele>
        <time>2020-06-16T13:09:08Z</time>
      </trkpt>
      <trkpt lat="49.36855" lon="-1.0779">
        <ele>12.8</ele>
        <time>2020-06-16T13:09:09Z</time>
      </trkpt>
      <trkpt lat="49.36856" lon="-1.07789">
        <ele>12.8</ele>
        <time>2020-06-16T13:09:10Z</time>
      </trkpt>
      <trkpt lat="49.36856" lon="-1.07789">
        <ele>12.8</ele>
        <time>2020-06-16T13:09:11Z</time>
      </trkpt>
      <trkpt lat="49.36857" lon="-1.0779">
        <ele>12.8</ele>
        <time>2020-06-16T13:09:12Z</time>
      </trkpt>
      <trkpt lat="49.36858" lon="-1.0779">
        <ele>12.8</ele>
        <time>2020-06-16T13:09:13Z</time>
      </trkpt>
      <trkpt lat="49.36859" lon="-1.0779">
        <ele>12.8</ele>
        <time>2020-06-16T13:09:14Z</time>
      </trkpt>
      <trkpt lat="49.36859" lon="-1.0779">
        <ele>12.8</ele>
        <time>2020-06-16T13:09:15Z</time>
      </trkpt>
      <trkpt lat="49.36859" lon="-1.07789">
        <ele>12.8</ele>
        <time>2020-06-16T13:09:16Z</time>
      </trkpt>
      <trkpt lat="49.3686" lon="-1.07788">
        <ele>12.8</ele>
        <time>2020-06-16T13:09:17Z</time>
      </trkpt>
      <trkpt lat="49.36861" lon="-1.07787">
        <ele>12.8</ele>
        <time>2020-06-16T13:09:18Z</time>
      </trkpt>
      <trkpt lat="49.36861" lon="-1.07787">
        <ele>12.8</ele>
        <time>2020-06-16T13:09:19Z</time>
      </trkpt>
      <trkpt lat="49.36862" lon="-1.07787">
        <ele>12.8</ele>
        <time>2020-06-16T13:09:20Z</time>
      </trkpt>
      <trkpt lat="49.36863" lon="-1.07787">
        <ele>12.8</ele>
        <time>2020-06-16T13:09:21Z</time>
      </trkpt>
      <trkpt lat="49.36863" lon="-1.07787">
        <ele>12.8</ele>
        <time>2020-06-16T13:09:22Z</time>
      </trkpt>
      <trkpt lat="49.36864" lon="-1.07786">
        <ele>12.8</ele>
        <time>2020-06-16T13:09:23Z</time>
      </trkpt>
      <trkpt lat="49.36864" lon="-1.07785">
        <ele>12.8</ele>
        <time>2020-06-16T13:09:24Z</time>
      </trkpt>
      <trkpt lat="49.36864" lon="-1.07785">
        <ele>12.8</ele>
        <time>2020-06-16T13:09:25Z</time>
      </trkpt>
      <trkpt lat="49.36864" lon="-1.07785">
        <ele>12.8</ele>
        <time>2020-06-16T13:09:26Z</time>
      </trkpt>
      <trkpt lat="49.36864" lon="-1.07785">
        <ele>12.8</ele>
        <time>2020-06-16T13:09:27Z</time>
      </trkpt>
      <trkpt lat="49.36864" lon="-1.07785">
        <ele>12.8</ele>
        <time>2020-06-16T13:09:28Z</time>
      </trkpt>
      <trkpt lat="49.36864" lon="-1.07785">
        <ele>12.8</ele>
        <time>2020-06-16T13:09:29Z</time>
      </trkpt>
      <trkpt lat="49.36864" lon="-1.07785">
        <ele>12.8</ele>
        <time>2020-06-16T13:09:30Z</time>
      </trkpt>
      <trkpt lat="49.36857" lon="-1.07779">
        <ele>13</ele>
        <time>2020-06-16T13:09:46Z</time>
      </trkpt>
      <trkpt lat="49.36855" lon="-1.07779">
        <ele>13</ele>
        <time>2020-06-16T13:09:47Z</time>
      </trkpt>
      <trkpt lat="49.36855" lon="-1.07778">
        <ele>13</ele>
        <time>2020-06-16T13:09:48Z</time>
      </trkpt>
      <trkpt lat="49.36855" lon="-1.07777">
        <ele>13</ele>
        <time>2020-06-16T13:09:49Z</time>
      </trkpt>
      <trkpt lat="49.36855" lon="-1.07778">
        <ele>13</ele>
        <time>2020-06-16T13:09:50Z</time>
      </trkpt>
      <trkpt lat="49.36855" lon="-1.07778">
        <ele>13</ele>
        <time>2020-06-16T13:09:51Z</time>
      </trkpt>
      <trkpt lat="49.36855" lon="-1.07778">
        <ele>13</ele>
        <time>2020-06-16T13:09:52Z</time>
      </trkpt>
      <trkpt lat="49.36855" lon="-1.07778">
        <ele>13</ele>
        <time>2020-06-16T13:09:53Z</time>
      </trkpt>
      <trkpt lat="49.36855" lon="-1.07777">
        <ele>13</ele>
        <time>2020-06-16T13:09:54Z</time>
      </trkpt>
      <trkpt lat="49.36855" lon="-1.07777">
        <ele>13</ele>
        <time>2020-06-16T13:09:55Z</time>
      </trkpt>
      <trkpt lat="49.36855" lon="-1.07776">
        <ele>13</ele>
        <time>2020-06-16T13:09:56Z</time>
      </trkpt>
      <trkpt lat="49.36855" lon="-1.07776">
        <ele>13</ele>
        <time>2020-06-16T13:09:57Z</time>
      </trkpt>
      <trkpt lat="49.36855" lon="-1.07775">
        <ele>13</ele>
        <time>2020-06-16T13:09:58Z</time>
      </trkpt>
      <trkpt lat="49.36856" lon="-1.07774">
        <ele>13</ele>
        <time>2020-06-16T13:09:59Z</time>
      </trkpt>
      <trkpt lat="49.36856" lon="-1.07773">
        <ele>13.1</ele>
        <time>2020-06-16T13:10:00Z</time>
      </trkpt>
      <trkpt lat="49.36857" lon="-1.07772">
        <ele>13.1</ele>
        <time>2020-06-16T13:10:01Z</time>
      </trkpt>
      <trkpt lat="49.36858" lon="-1.07773">
        <ele>13.1</ele>
        <time>2020-06-16T13:10:02Z</time>
      </trkpt>
      <trkpt lat="49.36859" lon="-1.07775">
        <ele>13</ele>
        <time>2020-06-16T13:10:03Z</time>
      </trkpt>
      <trkpt lat="49.3686" lon="-1.07774">
        <ele>13</ele>
        <time>2020-06-16T13:10:04Z</time>
      </trkpt>
      <trkpt lat="49.3686" lon="-1.07773">
        <ele>13.1</ele>
        <time>2020-06-16T13:10:05Z</time>
      </trkpt>
      <trkpt lat="49.3686" lon="-1.07773">
        <ele>13.1</ele>
        <time>2020-06-16T13:10:06Z</time>
      </trkpt>
      <trkpt lat="49.3686" lon="-1.07772">
        <ele>13.1</ele>
        <time>2020-06-16T13:10:07Z</time>
      </trkpt>
      <trkpt lat="49.3686" lon="-1.07771">
        <ele>13.1</ele>
        <time>2020-06-16T13:10:08Z</time>
      </trkpt>
      <trkpt lat="49.3686" lon="-1.0777">
        <ele>13.1</ele>
        <time>2020-06-16T13:10:09Z</time>
      </trkpt>
      <trkpt lat="49.36859" lon="-1.07768">
        <ele>13.2</ele>
        <time>2020-06-16T13:10:10Z</time>
      </trkpt>
      <trkpt lat="49.36859" lon="-1.07766">
        <ele>13.2</ele>
        <time>2020-06-16T13:10:11Z</time>
      </trkpt>
      <trkpt lat="49.36858" lon="-1.07766">
        <ele>13.2</ele>
        <time>2020-06-16T13:10:12Z</time>
      </trkpt>
      <trkpt lat="49.36858" lon="-1.07765">
        <ele>13.2</ele>
        <time>2020-06-16T13:10:13Z</time>
      </trkpt>
      <trkpt lat="49.36858" lon="-1.07764">
        <ele>13.3</ele>
        <time>2020-06-16T13:10:14Z</time>
      </trkpt>
      <trkpt lat="49.36859" lon="-1.07765">
        <ele>13.3</ele>
        <time>2020-06-16T13:10:15Z</time>
      </trkpt>
      <trkpt lat="49.36859" lon="-1.07764">
        <ele>13.3</ele>
        <time>2020-06-16T13:10:16Z</time>
      </trkpt>
      <trkpt lat="49.36859" lon="-1.07764">
        <ele>13.3</ele>
        <time>2020-06-16T13:10:17Z</time>
      </trkpt>
      <trkpt lat="49.3686" lon="-1.07764">
        <ele>13.3</ele>
        <time>2020-06-16T13:10:18Z</time>
      </trkpt>
      <trkpt lat="49.3686" lon="-1.07764">
        <ele>13.3</ele>
        <time>2020-06-16T13:10:19Z</time>
      </trkpt>
      <trkpt lat="49.36859" lon="-1.07764">
        <ele>13.3</ele>
        <time>2020-06-16T13:10:20Z</time>
      </trkpt>
      <trkpt lat="49.36859" lon="-1.07763">
        <ele>13.3</ele>
        <time>2020-06-16T13:10:21Z</time>
      </trkpt>
      <trkpt lat="49.36859" lon="-1.07762">
        <ele>13.3</ele>
        <time>2020-06-16T13:10:22Z</time>
      </trkpt>
      <trkpt lat="49.3686" lon="-1.07761">
        <ele>13.2</ele>
        <time>2020-06-16T13:10:23Z</time>
      </trkpt>
      <trkpt lat="49.3686" lon="-1.07761">
        <ele>13.2</ele>
        <time>2020-06-16T13:10:24Z</time>
      </trkpt>
      <trkpt lat="49.36861" lon="-1.07761">
        <ele>13.2</ele>
        <time>2020-06-16T13:10:25Z</time>
      </trkpt>
      <trkpt lat="49.36861" lon="-1.07761">
        <ele>13.2</ele>
        <time>2020-06-16T13:10:26Z</time>
      </trkpt>
      <trkpt lat="49.36861" lon="-1.07761">
        <ele>13.2</ele>
        <time>2020-06-16T13:10:27Z</time>
      </trkpt>
      <trkpt lat="49.36861" lon="-1.0776">
        <ele>13.3</ele>
        <time>2020-06-16T13:10:28Z</time>
      </trkpt>
      <trkpt lat="49.36862" lon="-1.0776">
        <ele>13.3</ele>
        <time>2020-06-16T13:10:29Z</time>
      </trkpt>
      <trkpt lat="49.36862" lon="-1.0776">
        <ele>13.3</ele>
        <time>2020-06-16T13:10:30Z</time>
      </trkpt>
      <trkpt lat="49.36862" lon="-1.0776">
        <ele>13.3</ele>
        <time>2020-06-16T13:10:31Z</time>
      </trkpt>
      <trkpt lat="49.36863" lon="-1.07759">
        <ele>13.3</ele>
        <time>2020-06-16T13:10:32Z</time>
      </trkpt>
      <trkpt lat="49.36864" lon="-1.0776">
        <ele>13.3</ele>
        <time>2020-06-16T13:10:33Z</time>
      </trkpt>
      <trkpt lat="49.36865" lon="-1.07761">
        <ele>13.2</ele>
        <time>2020-06-16T13:10:34Z</time>
      </trkpt>
      <trkpt lat="49.36866" lon="-1.07761">
        <ele>13.2</ele>
        <time>2020-06-16T13:10:35Z</time>
      </trkpt>
      <trkpt lat="49.36866" lon="-1.07762">
        <ele>13.2</ele>
        <time>2020-06-16T13:10:36Z</time>
      </trkpt>
      <trkpt lat="49.36866" lon="-1.07761">
        <ele>13.2</ele>
        <time>2020-06-16T13:10:37Z</time>
      </trkpt>
      <trkpt lat="49.36867" lon="-1.07761">
        <ele>13.2</ele>
        <time>2020-06-16T13:10:38Z</time>
      </trkpt>
      <trkpt lat="49.36867" lon="-1.07759">
        <ele>13.3</ele>
        <time>2020-06-16T13:10:39Z</time>
      </trkpt>
      <trkpt lat="49.36868" lon="-1.07759">
        <ele>13.2</ele>
        <time>2020-06-16T13:10:40Z</time>
      </trkpt>
      <trkpt lat="49.36868" lon="-1.07758">
        <ele>13.3</ele>
        <time>2020-06-16T13:10:41Z</time>
      </trkpt>
      <trkpt lat="49.36868" lon="-1.07758">
        <ele>13.3</ele>
        <time>2020-06-16T13:10:42Z</time>
      </trkpt>
      <trkpt lat="49.36868" lon="-1.07759">
        <ele>13.3</ele>
        <time>2020-06-16T13:10:43Z</time>
      </trkpt>
      <trkpt lat="49.36868" lon="-1.0776">
        <ele>13.3</ele>
        <time>2020-06-16T13:10:44Z</time>
      </trkpt>
      <trkpt lat="49.36868" lon="-1.07761">
        <ele>13.2</ele>
        <time>2020-06-16T13:10:45Z</time>
      </trkpt>
      <trkpt lat="49.36868" lon="-1.07762">
        <ele>13.2</ele>
        <time>2020-06-16T13:10:46Z</time>
      </trkpt>
      <trkpt lat="49.36869" lon="-1.07763">
        <ele>13.2</ele>
        <time>2020-06-16T13:11:07Z</time>
      </trkpt>
      <trkpt lat="49.36868" lon="-1.07762">
        <ele>13.2</ele>
        <time>2020-06-16T13:11:08Z</time>
      </trkpt>
      <trkpt lat="49.36868" lon="-1.07761">
        <ele>13.2</ele>
        <time>2020-06-16T13:11:09Z</time>
      </trkpt>
      <trkpt lat="49.36868" lon="-1.0776">
        <ele>13.3</ele>
        <time>2020-06-16T13:11:10Z</time>
      </trkpt>
      <trkpt lat="49.36868" lon="-1.07761">
        <ele>13.2</ele>
        <time>2020-06-16T13:11:11Z</time>
      </trkpt>
      <trkpt lat="49.36868" lon="-1.0776">
        <ele>13.3</ele>
        <time>2020-06-16T13:11:12Z</time>
      </trkpt>
      <trkpt lat="49.36868" lon="-1.0776">
        <ele>13.3</ele>
        <time>2020-06-16T13:11:13Z</time>
      </trkpt>
      <trkpt lat="49.36869" lon="-1.07761">
        <ele>13.2</ele>
        <time>2020-06-16T13:11:14Z</time>
      </trkpt>
      <trkpt lat="49.36869" lon="-1.07761">
        <ele>13.2</ele>
        <time>2020-06-16T13:11:15Z</time>
      </trkpt>
      <trkpt lat="49.3687" lon="-1.07761">
        <ele>13.2</ele>
        <time>2020-06-16T13:11:16Z</time>
      </trkpt>
      <trkpt lat="49.3687" lon="-1.0776">
        <ele>13.2</ele>
        <time>2020-06-16T13:11:17Z</time>
      </trkpt>
      <trkpt lat="49.3687" lon="-1.0776">
        <ele>13.2</ele>
        <time>2020-06-16T13:11:18Z</time>
      </trkpt>
      <trkpt lat="49.3687" lon="-1.0776">
        <ele>13.2</ele>
        <time>2020-06-16T13:11:19Z</time>
      </trkpt>
      <trkpt lat="49.3687" lon="-1.07759">
        <ele>13.2</ele>
        <time>2020-06-16T13:11:20Z</time>
      </trkpt>
      <trkpt lat="49.36871" lon="-1.07758">
        <ele>13.2</ele>
        <time>2020-06-16T13:11:21Z</time>
      </trkpt>
      <trkpt lat="49.36872" lon="-1.07757">
        <ele>13.2</ele>
        <time>2020-06-16T13:11:22Z</time>
      </trkpt>
      <trkpt lat="49.36872" lon="-1.07756">
        <ele>13.3</ele>
        <time>2020-06-16T13:11:23Z</time>
      </trkpt>
      <trkpt lat="49.36872" lon="-1.07755">
        <ele>13.3</ele>
        <time>2020-06-16T13:11:24Z</time>
      </trkpt>
      <trkpt lat="49.36872" lon="-1.07754">
        <ele>13.3</ele>
        <time>2020-06-16T13:11:25Z</time>
      </trkpt>
      <trkpt lat="49.36872" lon="-1.07753">
        <ele>13.3</ele>
        <time>2020-06-16T13:11:26Z</time>
      </trkpt>
      <trkpt lat="49.36872" lon="-1.07752">
        <ele>13.3</ele>
        <time>2020-06-16T13:11:27Z</time>
      </trkpt>
      <trkpt lat="49.36871" lon="-1.07753">
        <ele>13.3</ele>
        <time>2020-06-16T13:11:28Z</time>
      </trkpt>
      <trkpt lat="49.36871" lon="-1.07753">
        <ele>13.3</ele>
        <time>2020-06-16T13:11:29Z</time>
      </trkpt>
      <trkpt lat="49.36872" lon="-1.07752">
        <ele>13.3</ele>
        <time>2020-06-16T13:11:30Z</time>
      </trkpt>
      <trkpt lat="49.36871" lon="-1.07752">
        <ele>13.3</ele>
        <time>2020-06-16T13:11:31Z</time>
      </trkpt>
      <trkpt lat="49.36871" lon="-1.07751">
        <ele>13.3</ele>
        <time>2020-06-16T13:11:32Z</time>
      </trkpt>
      <trkpt lat="49.36871" lon="-1.07751">
        <ele>13.3</ele>
        <time>2020-06-16T13:11:33Z</time>
      </trkpt>
      <trkpt lat="49.36871" lon="-1.07752">
        <ele>13.3</ele>
        <time>2020-06-16T13:11:34Z</time>
      </trkpt>
      <trkpt lat="49.36871" lon="-1.07752">
        <ele>13.3</ele>
        <time>2020-06-16T13:11:35Z</time>
      </trkpt>
      <trkpt lat="49.36871" lon="-1.07752">
        <ele>13.3</ele>
        <time>2020-06-16T13:11:36Z</time>
      </trkpt>
      <trkpt lat="49.36871" lon="-1.07752">
        <ele>13.3</ele>
        <time>2020-06-16T13:11:37Z</time>
      </trkpt>
      <trkpt lat="49.36871" lon="-1.07752">
        <ele>13.3</ele>
        <time>2020-06-16T13:11:38Z</time>
      </trkpt>
      <trkpt lat="49.36871" lon="-1.07752">
        <ele>13.3</ele>
        <time>2020-06-16T13:11:39Z</time>
      </trkpt>
      <trkpt lat="49.36871" lon="-1.07753">
        <ele>13.3</ele>
        <time>2020-06-16T13:11:40Z</time>
      </trkpt>
      <trkpt lat="49.3687" lon="-1.07753">
        <ele>13.3</ele>
        <time>2020-06-16T13:11:41Z</time>
      </trkpt>
      <trkpt lat="49.3687" lon="-1.07754">
        <ele>13.3</ele>
        <time>2020-06-16T13:11:42Z</time>
      </trkpt>
      <trkpt lat="49.3687" lon="-1.07754">
        <ele>13.3</ele>
        <time>2020-06-16T13:11:43Z</time>
      </trkpt>
      <trkpt lat="49.3687" lon="-1.07755">
        <ele>13.3</ele>
        <time>2020-06-16T13:11:44Z</time>
      </trkpt>
      <trkpt lat="49.3687" lon="-1.07755">
        <ele>13.3</ele>
        <time>2020-06-16T13:11:45Z</time>
      </trkpt>
      <trkpt lat="49.36868" lon="-1.07755">
        <ele>13.3</ele>
        <time>2020-06-16T13:11:46Z</time>
      </trkpt>
      <trkpt lat="49.36868" lon="-1.07755">
        <ele>13.3</ele>
        <time>2020-06-16T13:11:47Z</time>
      </trkpt>
      <trkpt lat="49.36867" lon="-1.07755">
        <ele>13.3</ele>
        <time>2020-06-16T13:11:48Z</time>
      </trkpt>
      <trkpt lat="49.36867" lon="-1.07754">
        <ele>13.3</ele>
        <time>2020-06-16T13:11:49Z</time>
      </trkpt>
      <trkpt lat="49.36867" lon="-1.07754">
        <ele>13.3</ele>
        <time>2020-06-16T13:11:50Z</time>
      </trkpt>
      <trkpt lat="49.36867" lon="-1.07754">
        <ele>13.3</ele>
        <time>2020-06-16T13:11:51Z</time>
      </trkpt>
      <trkpt lat="49.36867" lon="-1.07754">
        <ele>13.3</ele>
        <time>2020-06-16T13:11:52Z</time>
      </trkpt>
      <trkpt lat="49.36867" lon="-1.07754">
        <ele>13.3</ele>
        <time>2020-06-16T13:11:53Z</time>
      </trkpt>
      <trkpt lat="49.36867" lon="-1.07755">
        <ele>13.3</ele>
        <time>2020-06-16T13:11:54Z</time>
      </trkpt>
      <trkpt lat="49.36867" lon="-1.07756">
        <ele>13.3</ele>
        <time>2020-06-16T13:11:55Z</time>
      </trkpt>
      <trkpt lat="49.36867" lon="-1.07757">
        <ele>13.3</ele>
        <time>2020-06-16T13:11:56Z</time>
      </trkpt>
      <trkpt lat="49.36866" lon="-1.07757">
        <ele>13.3</ele>
        <time>2020-06-16T13:11:57Z</time>
      </trkpt>
      <trkpt lat="49.36866" lon="-1.07758">
        <ele>13.3</ele>
        <time>2020-06-16T13:11:58Z</time>
      </trkpt>
      <trkpt lat="49.36866" lon="-1.07758">
        <ele>13.3</ele>
        <time>2020-06-16T13:11:59Z</time>
      </trkpt>
      <trkpt lat="49.36866" lon="-1.07759">
        <ele>13.3</ele>
        <time>2020-06-16T13:12:00Z</time>
      </trkpt>
      <trkpt lat="49.36866" lon="-1.07759">
        <ele>13.3</ele>
        <time>2020-06-16T13:12:01Z</time>
      </trkpt>
      <trkpt lat="49.36867" lon="-1.07759">
        <ele>13.3</ele>
        <time>2020-06-16T13:12:02Z</time>
      </trkpt>
      <trkpt lat="49.36867" lon="-1.07759">
        <ele>13.3</ele>
        <time>2020-06-16T13:12:03Z</time>
      </trkpt>
      <trkpt lat="49.36867" lon="-1.07759">
        <ele>13.3</ele>
        <time>2020-06-16T13:12:04Z</time>
      </trkpt>
      <trkpt lat="49.36867" lon="-1.0776">
        <ele>13.3</ele>
        <time>2020-06-16T13:12:05Z</time>
      </trkpt>
      <trkpt lat="49.36867" lon="-1.0776">
        <ele>13.3</ele>
        <time>2020-06-16T13:12:06Z</time>
      </trkpt>
      <trkpt lat="49.36867" lon="-1.0776">
        <ele>13.3</ele>
        <time>2020-06-16T13:12:07Z</time>
      </trkpt>
      <trkpt lat="49.36868" lon="-1.0776">
        <ele>13.3</ele>
        <time>2020-06-16T13:12:08Z</time>
      </trkpt>
      <trkpt lat="49.36868" lon="-1.07761">
        <ele>13.2</ele>
        <time>2020-06-16T13:12:09Z</time>
      </trkpt>
      <trkpt lat="49.36868" lon="-1.07761">
        <ele>13.2</ele>
        <time>2020-06-16T13:12:10Z</time>
      </trkpt>
      <trkpt lat="49.36868" lon="-1.07761">
        <ele>13.2</ele>
        <time>2020-06-16T13:12:11Z</time>
      </trkpt>
      <trkpt lat="49.36868" lon="-1.07761">
        <ele>13.2</ele>
        <time>2020-06-16T13:12:12Z</time>
      </trkpt>
      <trkpt lat="49.36869" lon="-1.07762">
        <ele>13.2</ele>
        <time>2020-06-16T13:12:13Z</time>
      </trkpt>
      <trkpt lat="49.36869" lon="-1.07761">
        <ele>13.2</ele>
        <time>2020-06-16T13:12:14Z</time>
      </trkpt>
      <trkpt lat="49.36868" lon="-1.07761">
        <ele>13.2</ele>
        <time>2020-06-16T13:12:15Z</time>
      </trkpt>
      <trkpt lat="49.36868" lon="-1.07761">
        <ele>13.2</ele>
        <time>2020-06-16T13:12:16Z</time>
      </trkpt>
      <trkpt lat="49.36868" lon="-1.07761">
        <ele>13.2</ele>
        <time>2020-06-16T13:12:17Z</time>
      </trkpt>
      <trkpt lat="49.36868" lon="-1.07761">
        <ele>13.2</ele>
        <time>2020-06-16T13:12:18Z</time>
      </trkpt>
      <trkpt lat="49.36868" lon="-1.0776">
        <ele>13.2</ele>
        <time>2020-06-16T13:12:19Z</time>
      </trkpt>
      <trkpt lat="49.36869" lon="-1.07761">
        <ele>13.2</ele>
        <time>2020-06-16T13:12:20Z</time>
      </trkpt>
      <trkpt lat="49.36869" lon="-1.0776">
        <ele>13.2</ele>
        <time>2020-06-16T13:12:21Z</time>
      </trkpt>
      <trkpt lat="49.36869" lon="-1.07759">
        <ele>13.2</ele>
        <time>2020-06-16T13:12:22Z</time>
      </trkpt>
      <trkpt lat="49.36869" lon="-1.07757">
        <ele>13.2</ele>
        <time>2020-06-16T13:12:23Z</time>
      </trkpt>
      <trkpt lat="49.36869" lon="-1.07755">
        <ele>13.3</ele>
        <time>2020-06-16T13:12:24Z</time>
      </trkpt>
      <trkpt lat="49.36868" lon="-1.07754">
        <ele>13.3</ele>
        <time>2020-06-16T13:12:25Z</time>
      </trkpt>
      <trkpt lat="49.36868" lon="-1.07754">
        <ele>13.3</ele>
        <time>2020-06-16T13:12:26Z</time>
      </trkpt>
      <trkpt lat="49.36868" lon="-1.07753">
        <ele>13.3</ele>
        <time>2020-06-16T13:12:27Z</time>
      </trkpt>
      <trkpt lat="49.36867" lon="-1.07751">
        <ele>13.4</ele>
        <time>2020-06-16T13:12:28Z</time>
      </trkpt>
      <trkpt lat="49.36866" lon="-1.0775">
        <ele>13.4</ele>
        <time>2020-06-16T13:12:29Z</time>
      </trkpt>
      <trkpt lat="49.36866" lon="-1.07749">
        <ele>13.4</ele>
        <time>2020-06-16T13:12:30Z</time>
      </trkpt>
      <trkpt lat="49.36865" lon="-1.0775">
        <ele>13.4</ele>
        <time>2020-06-16T13:12:31Z</time>
      </trkpt>
      <trkpt lat="49.36864" lon="-1.0775">
        <ele>13.4</ele>
        <time>2020-06-16T13:12:32Z</time>
      </trkpt>
      <trkpt lat="49.36863" lon="-1.0775">
        <ele>13.4</ele>
        <time>2020-06-16T13:12:33Z</time>
      </trkpt>
      <trkpt lat="49.36862" lon="-1.0775">
        <ele>13.4</ele>
        <time>2020-06-16T13:12:34Z</time>
      </trkpt>
      <trkpt lat="49.36861" lon="-1.07751">
        <ele>13.4</ele>
        <time>2020-06-16T13:12:35Z</time>
      </trkpt>
      <trkpt lat="49.36861" lon="-1.07753">
        <ele>13.4</ele>
        <time>2020-06-16T13:12:36Z</time>
      </trkpt>
      <trkpt lat="49.3686" lon="-1.07753">
        <ele>13.4</ele>
        <time>2020-06-16T13:12:37Z</time>
      </trkpt>
      <trkpt lat="49.3686" lon="-1.07753">
        <ele>13.4</ele>
        <time>2020-06-16T13:12:38Z</time>
      </trkpt>
      <trkpt lat="49.36859" lon="-1.07752">
        <ele>13.4</ele>
        <time>2020-06-16T13:12:39Z</time>
      </trkpt>
      <trkpt lat="49.36859" lon="-1.07753">
        <ele>13.4</ele>
        <time>2020-06-16T13:12:40Z</time>
      </trkpt>
      <trkpt lat="49.36858" lon="-1.07754">
        <ele>13.4</ele>
        <time>2020-06-16T13:12:41Z</time>
      </trkpt>
      <trkpt lat="49.36858" lon="-1.07755">
        <ele>13.4</ele>
        <time>2020-06-16T13:12:42Z</time>
      </trkpt>
      <trkpt lat="49.36858" lon="-1.07755">
        <ele>13.4</ele>
        <time>2020-06-16T13:12:43Z</time>
      </trkpt>
      <trkpt lat="49.36858" lon="-1.07756">
        <ele>13.4</ele>
        <time>2020-06-16T13:12:44Z</time>
      </trkpt>
      <trkpt lat="49.36858" lon="-1.07757">
        <ele>13.3</ele>
        <time>2020-06-16T13:12:45Z</time>
      </trkpt>
      <trkpt lat="49.36857" lon="-1.07758">
        <ele>13.3</ele>
        <time>2020-06-16T13:12:46Z</time>
      </trkpt>
      <trkpt lat="49.36857" lon="-1.07758">
        <ele>13.3</ele>
        <time>2020-06-16T13:12:47Z</time>
      </trkpt>
      <trkpt lat="49.36857" lon="-1.07759">
        <ele>13.3</ele>
        <time>2020-06-16T13:12:48Z</time>
      </trkpt>
      <trkpt lat="49.36856" lon="-1.0776">
        <ele>13.3</ele>
        <time>2020-06-16T13:12:49Z</time>
      </trkpt>
      <trkpt lat="49.36856" lon="-1.07761">
        <ele>13.3</ele>
        <time>2020-06-16T13:12:50Z</time>
      </trkpt>
      <trkpt lat="49.36855" lon="-1.07761">
        <ele>13.3</ele>
        <time>2020-06-16T13:12:51Z</time>
      </trkpt>
      <trkpt lat="49.36855" lon="-1.07762">
        <ele>13.3</ele>
        <time>2020-06-16T13:12:52Z</time>
      </trkpt>
      <trkpt lat="49.36855" lon="-1.07763">
        <ele>13.3</ele>
        <time>2020-06-16T13:12:53Z</time>
      </trkpt>
      <trkpt lat="49.36854" lon="-1.07763">
        <ele>13.3</ele>
        <time>2020-06-16T13:12:54Z</time>
      </trkpt>
      <trkpt lat="49.36853" lon="-1.07764">
        <ele>13.3</ele>
        <time>2020-06-16T13:12:55Z</time>
      </trkpt>
      <trkpt lat="49.36852" lon="-1.07763">
        <ele>13.3</ele>
        <time>2020-06-16T13:12:56Z</time>
      </trkpt>
      <trkpt lat="49.36851" lon="-1.07764">
        <ele>13.3</ele>
        <time>2020-06-16T13:12:57Z</time>
      </trkpt>
      <trkpt lat="49.36851" lon="-1.07765">
        <ele>13.3</ele>
        <time>2020-06-16T13:12:58Z</time>
      </trkpt>
      <trkpt lat="49.36851" lon="-1.07766">
        <ele>13.2</ele>
        <time>2020-06-16T13:12:59Z</time>
      </trkpt>
      <trkpt lat="49.3685" lon="-1.07767">
        <ele>13.2</ele>
        <time>2020-06-16T13:13:00Z</time>
      </trkpt>
      <trkpt lat="49.36849" lon="-1.07768">
        <ele>13.2</ele>
        <time>2020-06-16T13:13:01Z</time>
      </trkpt>
      <trkpt lat="49.36849" lon="-1.07769">
        <ele>13.2</ele>
        <time>2020-06-16T13:13:02Z</time>
      </trkpt>
      <trkpt lat="49.36849" lon="-1.0777">
        <ele>13.2</ele>
        <time>2020-06-16T13:13:03Z</time>
      </trkpt>
      <trkpt lat="49.36849" lon="-1.0777">
        <ele>13.2</ele>
        <time>2020-06-16T13:13:04Z</time>
      </trkpt>
      <trkpt lat="49.36849" lon="-1.07772">
        <ele>13.2</ele>
        <time>2020-06-16T13:13:05Z</time>
      </trkpt>
      <trkpt lat="49.3685" lon="-1.07771">
        <ele>13.2</ele>
        <time>2020-06-16T13:13:06Z</time>
      </trkpt>
      <trkpt lat="49.3685" lon="-1.07772">
        <ele>13.2</ele>
        <time>2020-06-16T13:13:07Z</time>
      </trkpt>
      <trkpt lat="49.36849" lon="-1.07772">
        <ele>13.2</ele>
        <time>2020-06-16T13:13:08Z</time>
      </trkpt>
      <trkpt lat="49.36847" lon="-1.07774">
        <ele>13.1</ele>
        <time>2020-06-16T13:13:09Z</time>
      </trkpt>
      <trkpt lat="49.36846" lon="-1.07774">
        <ele>13.1</ele>
        <time>2020-06-16T13:13:10Z</time>
      </trkpt>
      <trkpt lat="49.36846" lon="-1.07775">
        <ele>13.1</ele>
        <time>2020-06-16T13:13:11Z</time>
      </trkpt>
      <trkpt lat="49.36845" lon="-1.07775">
        <ele>13.1</ele>
        <time>2020-06-16T13:13:12Z</time>
      </trkpt>
      <trkpt lat="49.36845" lon="-1.07777">
        <ele>13.1</ele>
        <time>2020-06-16T13:13:13Z</time>
      </trkpt>
      <trkpt lat="49.36845" lon="-1.07777">
        <ele>13.1</ele>
        <time>2020-06-16T13:13:14Z</time>
      </trkpt>
      <trkpt lat="49.36845" lon="-1.07777">
        <ele>13.1</ele>
        <time>2020-06-16T13:13:15Z</time>
      </trkpt>
      <trkpt lat="49.36845" lon="-1.07777">
        <ele>13.1</ele>
        <time>2020-06-16T13:13:16Z</time>
      </trkpt>
      <trkpt lat="49.36844" lon="-1.07777">
        <ele>13.1</ele>
        <time>2020-06-16T13:13:17Z</time>
      </trkpt>
      <trkpt lat="49.36843" lon="-1.07777">
        <ele>13.1</ele>
        <time>2020-06-16T13:13:18Z</time>
      </trkpt>
      <trkpt lat="49.36843" lon="-1.07777">
        <ele>13.1</ele>
        <time>2020-06-16T13:13:19Z</time>
      </trkpt>
      <trkpt lat="49.36842" lon="-1.07777">
        <ele>13.1</ele>
        <time>2020-06-16T13:13:20Z</time>
      </trkpt>
      <trkpt lat="49.36842" lon="-1.07778">
        <ele>13</ele>
        <time>2020-06-16T13:13:21Z</time>
      </trkpt>
      <trkpt lat="49.36841" lon="-1.07778">
        <ele>13</ele>
        <time>2020-06-16T13:13:22Z</time>
      </trkpt>
      <trkpt lat="49.36841" lon="-1.07778">
        <ele>13</ele>
        <time>2020-06-16T13:13:23Z</time>
      </trkpt>
      <trkpt lat="49.3684" lon="-1.07778">
        <ele>13</ele>
        <time>2020-06-16T13:13:24Z</time>
      </trkpt>
      <trkpt lat="49.36839" lon="-1.07778">
        <ele>13</ele>
        <time>2020-06-16T13:13:25Z</time>
      </trkpt>
      <trkpt lat="49.36839" lon="-1.07778">
        <ele>13</ele>
        <time>2020-06-16T13:13:26Z</time>
      </trkpt>
      <trkpt lat="49.36839" lon="-1.07778">
        <ele>13</ele>
        <time>2020-06-16T13:13:27Z</time>
      </trkpt>
      <trkpt lat="49.3684" lon="-1.07779">
        <ele>13</ele>
        <time>2020-06-16T13:13:28Z</time>
      </trkpt>
      <trkpt lat="49.36841" lon="-1.07779">
        <ele>13</ele>
        <time>2020-06-16T13:13:29Z</time>
      </trkpt>
      <trkpt lat="49.36843" lon="-1.0778">
        <ele>13</ele>
        <time>2020-06-16T13:13:30Z</time>
      </trkpt>
      <trkpt lat="49.36844" lon="-1.07781">
        <ele>13</ele>
        <time>2020-06-16T13:13:31Z</time>
      </trkpt>
      <trkpt lat="49.36844" lon="-1.07782">
        <ele>13</ele>
        <time>2020-06-16T13:13:32Z</time>
      </trkpt>
      <trkpt lat="49.36844" lon="-1.07782">
        <ele>12.9</ele>
        <time>2020-06-16T13:13:33Z</time>
      </trkpt>
      <trkpt lat="49.36845" lon="-1.07783">
        <ele>12.9</ele>
        <time>2020-06-16T13:13:34Z</time>
      </trkpt>
      <trkpt lat="49.36845" lon="-1.07783">
        <ele>12.9</ele>
        <time>2020-06-16T13:13:35Z</time>
      </trkpt>
      <trkpt lat="49.36845" lon="-1.0778">
        <ele>13</ele>
        <time>2020-06-16T13:13:36Z</time>
      </trkpt>
      <trkpt lat="49.36844" lon="-1.07778">
        <ele>13</ele>
        <time>2020-06-16T13:13:37Z</time>
      </trkpt>
      <trkpt lat="49.36844" lon="-1.07777">
        <ele>13</ele>
        <time>2020-06-16T13:13:38Z</time>
      </trkpt>
      <trkpt lat="49.36844" lon="-1.07777">
        <ele>13</ele>
        <time>2020-06-16T13:13:39Z</time>
      </trkpt>
      <trkpt lat="49.36844" lon="-1.07777">
        <ele>13</ele>
        <time>2020-06-16T13:13:40Z</time>
      </trkpt>
      <trkpt lat="49.36845" lon="-1.07777">
        <ele>13</ele>
        <time>2020-06-16T13:13:41Z</time>
      </trkpt>
      <trkpt lat="49.36846" lon="-1.07779">
        <ele>12.9</ele>
        <time>2020-06-16T13:13:42Z</time>
      </trkpt>
      <trkpt lat="49.36847" lon="-1.07779">
        <ele>12.9</ele>
        <time>2020-06-16T13:13:43Z</time>
      </trkpt>
      <trkpt lat="49.36847" lon="-1.07779">
        <ele>12.9</ele>
        <time>2020-06-16T13:13:44Z</time>
      </trkpt>
      <trkpt lat="49.36847" lon="-1.07779">
        <ele>12.9</ele>
        <time>2020-06-16T13:13:45Z</time>
      </trkpt>
      <trkpt lat="49.36847" lon="-1.07778">
        <ele>12.9</ele>
        <time>2020-06-16T13:13:46Z</time>
      </trkpt>
      <trkpt lat="49.36847" lon="-1.07777">
        <ele>13</ele>
        <time>2020-06-16T13:13:47Z</time>
      </trkpt>
      <trkpt lat="49.36847" lon="-1.07776">
        <ele>13</ele>
        <time>2020-06-16T13:13:48Z</time>
      </trkpt>
      <trkpt lat="49.36847" lon="-1.07775">
        <ele>13</ele>
        <time>2020-06-16T13:13:49Z</time>
      </trkpt>
      <trkpt lat="49.36847" lon="-1.07775">
        <ele>13</ele>
        <time>2020-06-16T13:13:50Z</time>
      </trkpt>
      <trkpt lat="49.36846" lon="-1.07774">
        <ele>13</ele>
        <time>2020-06-16T13:13:51Z</time>
      </trkpt>
      <trkpt lat="49.36846" lon="-1.07774">
        <ele>13</ele>
        <time>2020-06-16T13:13:52Z</time>
      </trkpt>
      <trkpt lat="49.36847" lon="-1.07773">
        <ele>13.1</ele>
        <time>2020-06-16T13:13:53Z</time>
      </trkpt>
      <trkpt lat="49.36847" lon="-1.07772">
        <ele>13.1</ele>
        <time>2020-06-16T13:13:54Z</time>
      </trkpt>
      <trkpt lat="49.36847" lon="-1.07771">
        <ele>13.1</ele>
        <time>2020-06-16T13:13:55Z</time>
      </trkpt>
      <trkpt lat="49.36847" lon="-1.07771">
        <ele>13.1</ele>
        <time>2020-06-16T13:13:56Z</time>
      </trkpt>
      <trkpt lat="49.36847" lon="-1.07771">
        <ele>13.1</ele>
        <time>2020-06-16T13:13:57Z</time>
      </trkpt>
      <trkpt lat="49.36847" lon="-1.0777">
        <ele>13.1</ele>
        <time>2020-06-16T13:13:58Z</time>
      </trkpt>
      <trkpt lat="49.36847" lon="-1.07769">
        <ele>13.1</ele>
        <time>2020-06-16T13:13:59Z</time>
      </trkpt>
      <trkpt lat="49.36846" lon="-1.07769">
        <ele>13.2</ele>
        <time>2020-06-16T13:14:00Z</time>
      </trkpt>
      <trkpt lat="49.36846" lon="-1.07768">
        <ele>13.2</ele>
        <time>2020-06-16T13:14:01Z</time>
      </trkpt>
      <trkpt lat="49.36847" lon="-1.07767">
        <ele>13.2</ele>
        <time>2020-06-16T13:14:02Z</time>
      </trkpt>
      <trkpt lat="49.36848" lon="-1.07765">
        <ele>13.1</ele>
        <time>2020-06-16T13:14:03Z</time>
      </trkpt>
      <trkpt lat="49.36849" lon="-1.07765">
        <ele>13.1</ele>
        <time>2020-06-16T13:14:04Z</time>
      </trkpt>
      <trkpt lat="49.36849" lon="-1.07765">
        <ele>13.1</ele>
        <time>2020-06-16T13:14:05Z</time>
      </trkpt>
      <trkpt lat="49.36849" lon="-1.07765">
        <ele>13.1</ele>
        <time>2020-06-16T13:14:06Z</time>
      </trkpt>
      <trkpt lat="49.36849" lon="-1.07765">
        <ele>13.1</ele>
        <time>2020-06-16T13:14:07Z</time>
      </trkpt>
      <trkpt lat="49.36848" lon="-1.07765">
        <ele>13.2</ele>
        <time>2020-06-16T13:14:08Z</time>
      </trkpt>
      <trkpt lat="49.36848" lon="-1.07764">
        <ele>13.2</ele>
        <time>2020-06-16T13:14:09Z</time>
      </trkpt>
      <trkpt lat="49.36848" lon="-1.07764">
        <ele>13.2</ele>
        <time>2020-06-16T13:14:10Z</time>
      </trkpt>
      <trkpt lat="49.36848" lon="-1.07764">
        <ele>13.2</ele>
        <time>2020-06-16T13:14:11Z</time>
      </trkpt>
      <trkpt lat="49.36849" lon="-1.07763">
        <ele>13.1</ele>
        <time>2020-06-16T13:14:12Z</time>
      </trkpt>
      <trkpt lat="49.36851" lon="-1.07764">
        <ele>13.1</ele>
        <time>2020-06-16T13:14:13Z</time>
      </trkpt>
      <trkpt lat="49.36851" lon="-1.07764">
        <ele>13.1</ele>
        <time>2020-06-16T13:14:14Z</time>
      </trkpt>
      <trkpt lat="49.36852" lon="-1.07763">
        <ele>13.1</ele>
        <time>2020-06-16T13:14:15Z</time>
      </trkpt>
      <trkpt lat="49.36853" lon="-1.07764">
        <ele>13.1</ele>
        <time>2020-06-16T13:14:16Z</time>
      </trkpt>
      <trkpt lat="49.36853" lon="-1.07764">
        <ele>13.1</ele>
        <time>2020-06-16T13:14:17Z</time>
      </trkpt>
      <trkpt lat="49.36854" lon="-1.07764">
        <ele>13.1</ele>
        <time>2020-06-16T13:14:18Z</time>
      </trkpt>
      <trkpt lat="49.36855" lon="-1.07765">
        <ele>13.1</ele>
        <time>2020-06-16T13:14:19Z</time>
      </trkpt>
      <trkpt lat="49.36856" lon="-1.07765">
        <ele>13</ele>
        <time>2020-06-16T13:14:20Z</time>
      </trkpt>
      <trkpt lat="49.36856" lon="-1.07765">
        <ele>13</ele>
        <time>2020-06-16T13:14:21Z</time>
      </trkpt>
      <trkpt lat="49.36857" lon="-1.07765">
        <ele>13.1</ele>
        <time>2020-06-16T13:14:22Z</time>
      </trkpt>
      <trkpt lat="49.36858" lon="-1.07765">
        <ele>13</ele>
        <time>2020-06-16T13:14:23Z</time>
      </trkpt>
      <trkpt lat="49.36858" lon="-1.07765">
        <ele>13</ele>
        <time>2020-06-16T13:14:24Z</time>
      </trkpt>
      <trkpt lat="49.36858" lon="-1.07765">
        <ele>13</ele>
        <time>2020-06-16T13:14:25Z</time>
      </trkpt>
      <trkpt lat="49.36858" lon="-1.07766">
        <ele>13</ele>
        <time>2020-06-16T13:14:26Z</time>
      </trkpt>
      <trkpt lat="49.36859" lon="-1.07766">
        <ele>13</ele>
        <time>2020-06-16T13:14:27Z</time>
      </trkpt>
      <trkpt lat="49.36859" lon="-1.07766">
        <ele>12.9</ele>
        <time>2020-06-16T13:14:28Z</time>
      </trkpt>
      <trkpt lat="49.36859" lon="-1.07766">
        <ele>12.9</ele>
        <time>2020-06-16T13:14:29Z</time>
      </trkpt>
      <trkpt lat="49.36859" lon="-1.07767">
        <ele>12.9</ele>
        <time>2020-06-16T13:14:30Z</time>
      </trkpt>
      <trkpt lat="49.3686" lon="-1.07767">
        <ele>12.9</ele>
        <time>2020-06-16T13:14:31Z</time>
      </trkpt>
      <trkpt lat="49.3686" lon="-1.07767">
        <ele>12.9</ele>
        <time>2020-06-16T13:14:32Z</time>
      </trkpt>
      <trkpt lat="49.3686" lon="-1.07767">
        <ele>12.9</ele>
        <time>2020-06-16T13:14:33Z</time>
      </trkpt>
      <trkpt lat="49.36861" lon="-1.07769">
        <ele>12.9</ele>
        <time>2020-06-16T13:14:34Z</time>
      </trkpt>
      <trkpt lat="49.36861" lon="-1.07769">
        <ele>12.9</ele>
        <time>2020-06-16T13:14:35Z</time>
      </trkpt>
      <trkpt lat="49.36861" lon="-1.07769">
        <ele>12.9</ele>
        <time>2020-06-16T13:14:36Z</time>
      </trkpt>
      <trkpt lat="49.36861" lon="-1.07768">
        <ele>12.9</ele>
        <time>2020-06-16T13:14:37Z</time>
      </trkpt>
      <trkpt lat="49.36861" lon="-1.07768">
        <ele>12.9</ele>
        <time>2020-06-16T13:14:38Z</time>
      </trkpt>
      <trkpt lat="49.36861" lon="-1.0778">
        <ele>12.7</ele>
        <time>2020-06-16T13:14:51Z</time>
      </trkpt>
      <trkpt lat="49.36861" lon="-1.07781">
        <ele>12.7</ele>
        <time>2020-06-16T13:14:52Z</time>
      </trkpt>
      <trkpt lat="49.3686" lon="-1.07781">
        <ele>12.7</ele>
        <time>2020-06-16T13:14:53Z</time>
      </trkpt>
      <trkpt lat="49.3686" lon="-1.07782">
        <ele>12.7</ele>
        <time>2020-06-16T13:14:54Z</time>
      </trkpt>
      <trkpt lat="49.36859" lon="-1.07783">
        <ele>12.6</ele>
        <time>2020-06-16T13:14:55Z</time>
      </trkpt>
      <trkpt lat="49.36859" lon="-1.07784">
        <ele>12.6</ele>
        <time>2020-06-16T13:14:56Z</time>
      </trkpt>
      <trkpt lat="49.36859" lon="-1.07785">
        <ele>12.6</ele>
        <time>2020-06-16T13:14:57Z</time>
      </trkpt>
      <trkpt lat="49.3686" lon="-1.07786">
        <ele>12.5</ele>
        <time>2020-06-16T13:14:58Z</time>
      </trkpt>
      <trkpt lat="49.3686" lon="-1.07788">
        <ele>12.5</ele>
        <time>2020-06-16T13:14:59Z</time>
      </trkpt>
      <trkpt lat="49.36861" lon="-1.0779">
        <ele>12.5</ele>
        <time>2020-06-16T13:15:00Z</time>
      </trkpt>
      <trkpt lat="49.36862" lon="-1.07791">
        <ele>12.4</ele>
        <time>2020-06-16T13:15:01Z</time>
      </trkpt>
      <trkpt lat="49.36862" lon="-1.07793">
        <ele>12.4</ele>
        <time>2020-06-16T13:15:02Z</time>
      </trkpt>
      <trkpt lat="49.36862" lon="-1.07794">
        <ele>12.4</ele>
        <time>2020-06-16T13:15:03Z</time>
      </trkpt>
      <trkpt lat="49.36862" lon="-1.07794">
        <ele>12.4</ele>
        <time>2020-06-16T13:15:04Z</time>
      </trkpt>
      <trkpt lat="49.36863" lon="-1.07793">
        <ele>12.3</ele>
        <time>2020-06-16T13:15:05Z</time>
      </trkpt>
      <trkpt lat="49.36863" lon="-1.07792">
        <ele>12.3</ele>
        <time>2020-06-16T13:15:06Z</time>
      </trkpt>
      <trkpt lat="49.36863" lon="-1.07789">
        <ele>12.4</ele>
        <time>2020-06-16T13:15:07Z</time>
      </trkpt>
      <trkpt lat="49.36863" lon="-1.07787">
        <ele>12.4</ele>
        <time>2020-06-16T13:15:08Z</time>
      </trkpt>
      <trkpt lat="49.36863" lon="-1.07787">
        <ele>12.4</ele>
        <time>2020-06-16T13:15:09Z</time>
      </trkpt>
      <trkpt lat="49.36862" lon="-1.07788">
        <ele>12.4</ele>
        <time>2020-06-16T13:15:10Z</time>
      </trkpt>
      <trkpt lat="49.36863" lon="-1.07788">
        <ele>12.4</ele>
        <time>2020-06-16T13:15:11Z</time>
      </trkpt>
      <trkpt lat="49.36863" lon="-1.0779">
        <ele>12.4</ele>
        <time>2020-06-16T13:15:12Z</time>
      </trkpt>
      <trkpt lat="49.36862" lon="-1.0779">
        <ele>12.4</ele>
        <time>2020-06-16T13:15:13Z</time>
      </trkpt>
      <trkpt lat="49.36862" lon="-1.07791">
        <ele>12.3</ele>
        <time>2020-06-16T13:15:14Z</time>
      </trkpt>
      <trkpt lat="49.36858" lon="-1.07789">
        <ele>12.4</ele>
        <time>2020-06-16T13:15:35Z</time>
      </trkpt>
      <trkpt lat="49.36857" lon="-1.07789">
        <ele>12.4</ele>
        <time>2020-06-16T13:15:36Z</time>
      </trkpt>
      <trkpt lat="49.36856" lon="-1.0779">
        <ele>12.4</ele>
        <time>2020-06-16T13:15:37Z</time>
      </trkpt>
      <trkpt lat="49.36856" lon="-1.0779">
        <ele>12.4</ele>
        <time>2020-06-16T13:15:38Z</time>
      </trkpt>
      <trkpt lat="49.36854" lon="-1.07789">
        <ele>12.4</ele>
        <time>2020-06-16T13:15:39Z</time>
      </trkpt>
      <trkpt lat="49.36854" lon="-1.07789">
        <ele>12.4</ele>
        <time>2020-06-16T13:15:40Z</time>
      </trkpt>
      <trkpt lat="49.36853" lon="-1.07788">
        <ele>12.4</ele>
        <time>2020-06-16T13:15:41Z</time>
      </trkpt>
      <trkpt lat="49.36852" lon="-1.07788">
        <ele>12.4</ele>
        <time>2020-06-16T13:15:42Z</time>
      </trkpt>
      <trkpt lat="49.36852" lon="-1.07788">
        <ele>12.4</ele>
        <time>2020-06-16T13:15:43Z</time>
      </trkpt>
      <trkpt lat="49.36852" lon="-1.07787">
        <ele>12.4</ele>
        <time>2020-06-16T13:15:44Z</time>
      </trkpt>
      <trkpt lat="49.36851" lon="-1.07787">
        <ele>12.5</ele>
        <time>2020-06-16T13:15:45Z</time>
      </trkpt>
      <trkpt lat="49.36852" lon="-1.07787">
        <ele>12.4</ele>
        <time>2020-06-16T13:15:46Z</time>
      </trkpt>
      <trkpt lat="49.36852" lon="-1.07787">
        <ele>12.4</ele>
        <time>2020-06-16T13:15:47Z</time>
      </trkpt>
      <trkpt lat="49.36853" lon="-1.07788">
        <ele>12.4</ele>
        <time>2020-06-16T13:15:48Z</time>
      </trkpt>
      <trkpt lat="49.36854" lon="-1.07788">
        <ele>12.4</ele>
        <time>2020-06-16T13:15:49Z</time>
      </trkpt>
      <trkpt lat="49.36854" lon="-1.07788">
        <ele>12.4</ele>
        <time>2020-06-16T13:15:50Z</time>
      </trkpt>
      <trkpt lat="49.36854" lon="-1.07788">
        <ele>12.4</ele>
        <time>2020-06-16T13:15:51Z</time>
      </trkpt>
      <trkpt lat="49.36854" lon="-1.07788">
        <ele>12.4</ele>
        <time>2020-06-16T13:15:52Z</time>
      </trkpt>
      <trkpt lat="49.36853" lon="-1.07787">
        <ele>12.4</ele>
        <time>2020-06-16T13:15:53Z</time>
      </trkpt>
      <trkpt lat="49.36854" lon="-1.07787">
        <ele>12.4</ele>
        <time>2020-06-16T13:15:54Z</time>
      </trkpt>
      <trkpt lat="49.36854" lon="-1.07787">
        <ele>12.4</ele>
        <time>2020-06-16T13:15:55Z</time>
      </trkpt>
      <trkpt lat="49.36854" lon="-1.07787">
        <ele>12.4</ele>
        <time>2020-06-16T13:15:56Z</time>
      </trkpt>
      <trkpt lat="49.36854" lon="-1.07787">
        <ele>12.4</ele>
        <time>2020-06-16T13:15:57Z</time>
      </trkpt>
      <trkpt lat="49.36854" lon="-1.07787">
        <ele>12.4</ele>
        <time>2020-06-16T13:15:58Z</time>
      </trkpt>
      <trkpt lat="49.36854" lon="-1.07787">
        <ele>12.4</ele>
        <time>2020-06-16T13:15:59Z</time>
      </trkpt>
      <trkpt lat="49.36854" lon="-1.07787">
        <ele>12.4</ele>
        <time>2020-06-16T13:16:00Z</time>
      </trkpt>
      <trkpt lat="49.36854" lon="-1.07787">
        <ele>12.4</ele>
        <time>2020-06-16T13:16:01Z</time>
      </trkpt>
      <trkpt lat="49.36854" lon="-1.07787">
        <ele>12.4</ele>
        <time>2020-06-16T13:16:02Z</time>
      </trkpt>
      <trkpt lat="49.36854" lon="-1.07787">
        <ele>12.4</ele>
        <time>2020-06-16T13:16:03Z</time>
      </trkpt>
      <trkpt lat="49.36853" lon="-1.07782">
        <ele>12.5</ele>
        <time>2020-06-16T13:16:09Z</time>
      </trkpt>
      <trkpt lat="49.36853" lon="-1.07782">
        <ele>12.5</ele>
        <time>2020-06-16T13:16:10Z</time>
      </trkpt>
      <trkpt lat="49.36853" lon="-1.07782">
        <ele>12.5</ele>
        <time>2020-06-16T13:16:11Z</time>
      </trkpt>
      <trkpt lat="49.36854" lon="-1.07783">
        <ele>12.5</ele>
        <time>2020-06-16T13:16:12Z</time>
      </trkpt>
      <trkpt lat="49.36856" lon="-1.07785">
        <ele>12.5</ele>
        <time>2020-06-16T13:16:13Z</time>
      </trkpt>
      <trkpt lat="49.36856" lon="-1.07785">
        <ele>12.5</ele>
        <time>2020-06-16T13:16:14Z</time>
      </trkpt>
      <trkpt lat="49.36857" lon="-1.07787">
        <ele>12.4</ele>
        <time>2020-06-16T13:16:15Z</time>
      </trkpt>
      <trkpt lat="49.36858" lon="-1.07788">
        <ele>12.4</ele>
        <time>2020-06-16T13:16:16Z</time>
      </trkpt>
      <trkpt lat="49.36858" lon="-1.07788">
        <ele>12.4</ele>
        <time>2020-06-16T13:16:17Z</time>
      </trkpt>
      <trkpt lat="49.36858" lon="-1.07789">
        <ele>12.4</ele>
        <time>2020-06-16T13:16:18Z</time>
      </trkpt>
      <trkpt lat="49.36858" lon="-1.07788">
        <ele>12.4</ele>
        <time>2020-06-16T13:16:19Z</time>
      </trkpt>
      <trkpt lat="49.36858" lon="-1.07787">
        <ele>12.4</ele>
        <time>2020-06-16T13:16:20Z</time>
      </trkpt>
      <trkpt lat="49.36857" lon="-1.07787">
        <ele>12.4</ele>
        <time>2020-06-16T13:16:21Z</time>
      </trkpt>
      <trkpt lat="49.36858" lon="-1.07787">
        <ele>12.4</ele>
        <time>2020-06-16T13:16:22Z</time>
      </trkpt>
      <trkpt lat="49.36858" lon="-1.07789">
        <ele>12.4</ele>
        <time>2020-06-16T13:16:23Z</time>
      </trkpt>
      <trkpt lat="49.36858" lon="-1.07789">
        <ele>12.4</ele>
        <time>2020-06-16T13:16:24Z</time>
      </trkpt>
      <trkpt lat="49.36858" lon="-1.0779">
        <ele>12.4</ele>
        <time>2020-06-16T13:16:25Z</time>
      </trkpt>
      <trkpt lat="49.36858" lon="-1.0779">
        <ele>12.4</ele>
        <time>2020-06-16T13:16:26Z</time>
      </trkpt>
      <trkpt lat="49.36858" lon="-1.0779">
        <ele>12.4</ele>
        <time>2020-06-16T13:16:27Z</time>
      </trkpt>
      <trkpt lat="49.36858" lon="-1.0779">
        <ele>12.4</ele>
        <time>2020-06-16T13:16:28Z</time>
      </trkpt>
      <trkpt lat="49.36858" lon="-1.0779">
        <ele>12.4</ele>
        <time>2020-06-16T13:16:29Z</time>
      </trkpt>
      <trkpt lat="49.36858" lon="-1.07791">
        <ele>12.3</ele>
        <time>2020-06-16T13:16:30Z</time>
      </trkpt>
      <trkpt lat="49.36858" lon="-1.07791">
        <ele>12.3</ele>
        <time>2020-06-16T13:16:31Z</time>
      </trkpt>
      <trkpt lat="49.36858" lon="-1.0779">
        <ele>12.4</ele>
        <time>2020-06-16T13:16:32Z</time>
      </trkpt>
      <trkpt lat="49.36858" lon="-1.0779">
        <ele>12.4</ele>
        <time>2020-06-16T13:16:33Z</time>
      </trkpt>
      <trkpt lat="49.36858" lon="-1.0779">
        <ele>12.4</ele>
        <time>2020-06-16T13:16:34Z</time>
      </trkpt>
      <trkpt lat="49.36859" lon="-1.0779">
        <ele>12.4</ele>
        <time>2020-06-16T13:16:35Z</time>
      </trkpt>
      <trkpt lat="49.36859" lon="-1.0779">
        <ele>12.4</ele>
        <time>2020-06-16T13:16:36Z</time>
      </trkpt>
      <trkpt lat="49.36859" lon="-1.0779">
        <ele>12.4</ele>
        <time>2020-06-16T13:16:37Z</time>
      </trkpt>
      <trkpt lat="49.36859" lon="-1.0779">
        <ele>12.4</ele>
        <time>2020-06-16T13:16:38Z</time>
      </trkpt>
      <trkpt lat="49.36859" lon="-1.0779">
        <ele>12.4</ele>
        <time>2020-06-16T13:16:39Z</time>
      </trkpt>
      <trkpt lat="49.36859" lon="-1.0779">
        <ele>12.4</ele>
        <time>2020-06-16T13:16:40Z</time>
      </trkpt>
      <trkpt lat="49.36875" lon="-1.0778">
        <ele>12.5</ele>
        <time>2020-06-16T13:17:06Z</time>
      </trkpt>
      <trkpt lat="49.36874" lon="-1.07779">
        <ele>12.5</ele>
        <time>2020-06-16T13:17:07Z</time>
      </trkpt>
      <trkpt lat="49.36875" lon="-1.07781">
        <ele>12.5</ele>
        <time>2020-06-16T13:17:08Z</time>
      </trkpt>
      <trkpt lat="49.36876" lon="-1.07781">
        <ele>12.5</ele>
        <time>2020-06-16T13:17:09Z</time>
      </trkpt>
      <trkpt lat="49.36876" lon="-1.0778">
        <ele>12.5</ele>
        <time>2020-06-16T13:17:10Z</time>
      </trkpt>
      <trkpt lat="49.36878" lon="-1.0778">
        <ele>12.5</ele>
        <time>2020-06-16T13:17:11Z</time>
      </trkpt>
      <trkpt lat="49.36878" lon="-1.0778">
        <ele>12.5</ele>
        <time>2020-06-16T13:17:12Z</time>
      </trkpt>
      <trkpt lat="49.36878" lon="-1.0778">
        <ele>12.5</ele>
        <time>2020-06-16T13:17:13Z</time>
      </trkpt>
      <trkpt lat="49.36879" lon="-1.07781">
        <ele>12.4</ele>
        <time>2020-06-16T13:17:14Z</time>
      </trkpt>
      <trkpt lat="49.3688" lon="-1.07782">
        <ele>12.4</ele>
        <time>2020-06-16T13:17:15Z</time>
      </trkpt>
      <trkpt lat="49.3688" lon="-1.07782">
        <ele>12.4</ele>
        <time>2020-06-16T13:17:16Z</time>
      </trkpt>
      <trkpt lat="49.3688" lon="-1.07781">
        <ele>12.4</ele>
        <time>2020-06-16T13:17:17Z</time>
      </trkpt>
      <trkpt lat="49.3688" lon="-1.07781">
        <ele>12.4</ele>
        <time>2020-06-16T13:17:18Z</time>
      </trkpt>
      <trkpt lat="49.3688" lon="-1.0778">
        <ele>12.4</ele>
        <time>2020-06-16T13:17:19Z</time>
      </trkpt>
      <trkpt lat="49.36881" lon="-1.07779">
        <ele>12.4</ele>
        <time>2020-06-16T13:17:20Z</time>
      </trkpt>
      <trkpt lat="49.36882" lon="-1.07778">
        <ele>12.4</ele>
        <time>2020-06-16T13:17:21Z</time>
      </trkpt>
      <trkpt lat="49.36882" lon="-1.07778">
        <ele>12.5</ele>
        <time>2020-06-16T13:17:22Z</time>
      </trkpt>
      <trkpt lat="49.36883" lon="-1.07777">
        <ele>12.5</ele>
        <time>2020-06-16T13:17:23Z</time>
      </trkpt>
      <trkpt lat="49.36884" lon="-1.07777">
        <ele>12.5</ele>
        <time>2020-06-16T13:17:24Z</time>
      </trkpt>
      <trkpt lat="49.36885" lon="-1.07776">
        <ele>12.5</ele>
        <time>2020-06-16T13:17:25Z</time>
      </trkpt>
      <trkpt lat="49.36885" lon="-1.07777">
        <ele>12.5</ele>
        <time>2020-06-16T13:17:26Z</time>
      </trkpt>
      <trkpt lat="49.36883" lon="-1.07776">
        <ele>12.5</ele>
        <time>2020-06-16T13:17:27Z</time>
      </trkpt>
      <trkpt lat="49.36883" lon="-1.07775">
        <ele>12.5</ele>
        <time>2020-06-16T13:17:28Z</time>
      </trkpt>
      <trkpt lat="49.36884" lon="-1.07776">
        <ele>12.5</ele>
        <time>2020-06-16T13:17:29Z</time>
      </trkpt>
      <trkpt lat="49.36884" lon="-1.07777">
        <ele>12.5</ele>
        <time>2020-06-16T13:17:30Z</time>
      </trkpt>
      <trkpt lat="49.36884" lon="-1.07778">
        <ele>12.5</ele>
        <time>2020-06-16T13:17:31Z</time>
      </trkpt>
      <trkpt lat="49.36885" lon="-1.07779">
        <ele>12.4</ele>
        <time>2020-06-16T13:17:32Z</time>
      </trkpt>
      <trkpt lat="49.36886" lon="-1.0778">
        <ele>12.4</ele>
        <time>2020-06-16T13:17:33Z</time>
      </trkpt>
      <trkpt lat="49.36885" lon="-1.0778">
        <ele>12.4</ele>
        <time>2020-06-16T13:17:34Z</time>
      </trkpt>
      <trkpt lat="49.36885" lon="-1.07779">
        <ele>12.4</ele>
        <time>2020-06-16T13:17:35Z</time>
      </trkpt>
      <trkpt lat="49.36885" lon="-1.07781">
        <ele>12.4</ele>
        <time>2020-06-16T13:17:36Z</time>
      </trkpt>
      <trkpt lat="49.36885" lon="-1.07782">
        <ele>12.4</ele>
        <time>2020-06-16T13:17:37Z</time>
      </trkpt>
      <trkpt lat="49.36885" lon="-1.07783">
        <ele>12.4</ele>
        <time>2020-06-16T13:17:38Z</time>
      </trkpt>
      <trkpt lat="49.36885" lon="-1.07784">
        <ele>12.4</ele>
        <time>2020-06-16T13:17:39Z</time>
      </trkpt>
      <trkpt lat="49.36885" lon="-1.07784">
        <ele>12.4</ele>
        <time>2020-06-16T13:17:40Z</time>
      </trkpt>
      <trkpt lat="49.36885" lon="-1.07784">
        <ele>12.4</ele>
        <time>2020-06-16T13:17:41Z</time>
      </trkpt>
      <trkpt lat="49.36885" lon="-1.07783">
        <ele>12.4</ele>
        <time>2020-06-16T13:17:42Z</time>
      </trkpt>
      <trkpt lat="49.36884" lon="-1.07783">
        <ele>12.4</ele>
        <time>2020-06-16T13:17:43Z</time>
      </trkpt>
      <trkpt lat="49.36884" lon="-1.07782">
        <ele>12.4</ele>
        <time>2020-06-16T13:17:44Z</time>
      </trkpt>
      <trkpt lat="49.36883" lon="-1.07781">
        <ele>12.4</ele>
        <time>2020-06-16T13:17:45Z</time>
      </trkpt>
      <trkpt lat="49.36882" lon="-1.07781">
        <ele>12.4</ele>
        <time>2020-06-16T13:17:46Z</time>
      </trkpt>
      <trkpt lat="49.36882" lon="-1.07782">
        <ele>12.4</ele>
        <time>2020-06-16T13:17:47Z</time>
      </trkpt>
      <trkpt lat="49.36883" lon="-1.07783">
        <ele>12.4</ele>
        <time>2020-06-16T13:17:48Z</time>
      </trkpt>
      <trkpt lat="49.36883" lon="-1.07785">
        <ele>12.4</ele>
        <time>2020-06-16T13:17:49Z</time>
      </trkpt>
      <trkpt lat="49.36883" lon="-1.07785">
        <ele>12.4</ele>
        <time>2020-06-16T13:17:50Z</time>
      </trkpt>
      <trkpt lat="49.36882" lon="-1.07785">
        <ele>12.4</ele>
        <time>2020-06-16T13:17:51Z</time>
      </trkpt>
      <trkpt lat="49.36883" lon="-1.07785">
        <ele>12.4</ele>
        <time>2020-06-16T13:17:52Z</time>
      </trkpt>
      <trkpt lat="49.36883" lon="-1.07784">
        <ele>12.4</ele>
        <time>2020-06-16T13:17:53Z</time>
      </trkpt>
      <trkpt lat="49.36883" lon="-1.07782">
        <ele>12.4</ele>
        <time>2020-06-16T13:17:54Z</time>
      </trkpt>
      <trkpt lat="49.36882" lon="-1.07781">
        <ele>12.4</ele>
        <time>2020-06-16T13:17:55Z</time>
      </trkpt>
      <trkpt lat="49.36881" lon="-1.07781">
        <ele>12.4</ele>
        <time>2020-06-16T13:17:56Z</time>
      </trkpt>
      <trkpt lat="49.3688" lon="-1.07781">
        <ele>12.4</ele>
        <time>2020-06-16T13:17:57Z</time>
      </trkpt>
      <trkpt lat="49.36879" lon="-1.0778">
        <ele>12.5</ele>
        <time>2020-06-16T13:17:58Z</time>
      </trkpt>
      <trkpt lat="49.36878" lon="-1.0778">
        <ele>12.5</ele>
        <time>2020-06-16T13:17:59Z</time>
      </trkpt>
      <trkpt lat="49.36878" lon="-1.0778">
        <ele>12.5</ele>
        <time>2020-06-16T13:18:00Z</time>
      </trkpt>
      <trkpt lat="49.36877" lon="-1.0778">
        <ele>12.5</ele>
        <time>2020-06-16T13:18:01Z</time>
      </trkpt>
      <trkpt lat="49.36878" lon="-1.07782">
        <ele>12.4</ele>
        <time>2020-06-16T13:18:02Z</time>
      </trkpt>
      <trkpt lat="49.36879" lon="-1.07783">
        <ele>12.4</ele>
        <time>2020-06-16T13:18:03Z</time>
      </trkpt>
      <trkpt lat="49.36879" lon="-1.07784">
        <ele>12.4</ele>
        <time>2020-06-16T13:18:04Z</time>
      </trkpt>
      <trkpt lat="49.3688" lon="-1.07787">
        <ele>12.3</ele>
        <time>2020-06-16T13:18:05Z</time>
      </trkpt>
      <trkpt lat="49.3688" lon="-1.07789">
        <ele>12.3</ele>
        <time>2020-06-16T13:18:06Z</time>
      </trkpt>
      <trkpt lat="49.3688" lon="-1.0779">
        <ele>12.3</ele>
        <time>2020-06-16T13:18:07Z</time>
      </trkpt>
      <trkpt lat="49.3688" lon="-1.07791">
        <ele>12.3</ele>
        <time>2020-06-16T13:18:08Z</time>
      </trkpt>
      <trkpt lat="49.3688" lon="-1.07793">
        <ele>12.3</ele>
        <time>2020-06-16T13:18:09Z</time>
      </trkpt>
      <trkpt lat="49.3688" lon="-1.07796">
        <ele>12.2</ele>
        <time>2020-06-16T13:18:10Z</time>
      </trkpt>
      <trkpt lat="49.36879" lon="-1.07797">
        <ele>12.2</ele>
        <time>2020-06-16T13:18:11Z</time>
      </trkpt>
      <trkpt lat="49.36878" lon="-1.07798">
        <ele>12.2</ele>
        <time>2020-06-16T13:18:12Z</time>
      </trkpt>
      <trkpt lat="49.36877" lon="-1.078">
        <ele>12.1</ele>
        <time>2020-06-16T13:18:13Z</time>
      </trkpt>
      <trkpt lat="49.36876" lon="-1.07802">
        <ele>12.1</ele>
        <time>2020-06-16T13:18:14Z</time>
      </trkpt>
      <trkpt lat="49.36875" lon="-1.07803">
        <ele>12.1</ele>
        <time>2020-06-16T13:18:15Z</time>
      </trkpt>
      <trkpt lat="49.36873" lon="-1.07804">
        <ele>12.1</ele>
        <time>2020-06-16T13:18:16Z</time>
      </trkpt>
      <trkpt lat="49.36873" lon="-1.07804">
        <ele>12.1</ele>
        <time>2020-06-16T13:18:17Z</time>
      </trkpt>
      <trkpt lat="49.36873" lon="-1.07804">
        <ele>12.1</ele>
        <time>2020-06-16T13:18:18Z</time>
      </trkpt>
      <trkpt lat="49.36872" lon="-1.07804">
        <ele>12.1</ele>
        <time>2020-06-16T13:18:19Z</time>
      </trkpt>
      <trkpt lat="49.36872" lon="-1.07805">
        <ele>12.1</ele>
        <time>2020-06-16T13:18:20Z</time>
      </trkpt>
      <trkpt lat="49.36871" lon="-1.07799">
        <ele>12.2</ele>
        <time>2020-06-16T13:20:01Z</time>
      </trkpt>
      <trkpt lat="49.36873" lon="-1.07798">
        <ele>12.2</ele>
        <time>2020-06-16T13:20:02Z</time>
      </trkpt>
      <trkpt lat="49.36874" lon="-1.07798">
        <ele>12.2</ele>
        <time>2020-06-16T13:20:03Z</time>
      </trkpt>
      <trkpt lat="49.36874" lon="-1.07797">
        <ele>12.2</ele>
        <time>2020-06-16T13:20:04Z</time>
      </trkpt>
      <trkpt lat="49.36875" lon="-1.07797">
        <ele>12.2</ele>
        <time>2020-06-16T13:20:05Z</time>
      </trkpt>
      <trkpt lat="49.36875" lon="-1.07796">
        <ele>12.2</ele>
        <time>2020-06-16T13:20:06Z</time>
      </trkpt>
      <trkpt lat="49.36877" lon="-1.07794">
        <ele>12.3</ele>
        <time>2020-06-16T13:20:07Z</time>
      </trkpt>
      <trkpt lat="49.36878" lon="-1.07794">
        <ele>12.3</ele>
        <time>2020-06-16T13:20:08Z</time>
      </trkpt>
      <trkpt lat="49.36879" lon="-1.07793">
        <ele>12.3</ele>
        <time>2020-06-16T13:20:09Z</time>
      </trkpt>
      <trkpt lat="49.3688" lon="-1.07792">
        <ele>12.3</ele>
        <time>2020-06-16T13:20:10Z</time>
      </trkpt>
      <trkpt lat="49.36881" lon="-1.07792">
        <ele>12.3</ele>
        <time>2020-06-16T13:20:11Z</time>
      </trkpt>
      <trkpt lat="49.36882" lon="-1.07792">
        <ele>12.3</ele>
        <time>2020-06-16T13:20:12Z</time>
      </trkpt>
      <trkpt lat="49.36882" lon="-1.07792">
        <ele>12.2</ele>
        <time>2020-06-16T13:20:13Z</time>
      </trkpt>
      <trkpt lat="49.36883" lon="-1.07792">
        <ele>12.2</ele>
        <time>2020-06-16T13:20:14Z</time>
      </trkpt>
      <trkpt lat="49.36883" lon="-1.07792">
        <ele>12.2</ele>
        <time>2020-06-16T13:20:15Z</time>
      </trkpt>
      <trkpt lat="49.36883" lon="-1.07792">
        <ele>12.2</ele>
        <time>2020-06-16T13:20:16Z</time>
      </trkpt>
      <trkpt lat="49.36883" lon="-1.07792">
        <ele>12.2</ele>
        <time>2020-06-16T13:20:17Z</time>
      </trkpt>
      <trkpt lat="49.36883" lon="-1.07792">
        <ele>12.2</ele>
        <time>2020-06-16T13:20:18Z</time>
      </trkpt>
      <trkpt lat="49.36883" lon="-1.07792">
        <ele>12.2</ele>
        <time>2020-06-16T13:20:19Z</time>
      </trkpt>
      <trkpt lat="49.36883" lon="-1.07792">
        <ele>12.2</ele>
        <time>2020-06-16T13:20:20Z</time>
      </trkpt>
      <trkpt lat="49.36883" lon="-1.07792">
        <ele>12.2</ele>
        <time>2020-06-16T13:20:21Z</time>
      </trkpt>
      <trkpt lat="49.36883" lon="-1.07792">
        <ele>12.2</ele>
        <time>2020-06-16T13:20:22Z</time>
      </trkpt>
      <trkpt lat="49.36883" lon="-1.07792">
        <ele>12.2</ele>
        <time>2020-06-16T13:20:23Z</time>
      </trkpt>
      <trkpt lat="49.36883" lon="-1.07792">
        <ele>12.2</ele>
        <time>2020-06-16T13:20:24Z</time>
      </trkpt>
      <trkpt lat="49.36883" lon="-1.07792">
        <ele>12.2</ele>
        <time>2020-06-16T13:20:25Z</time>
      </trkpt>
      <trkpt lat="49.36877" lon="-1.07795">
        <ele>12.2</ele>
        <time>2020-06-16T13:20:51Z</time>
      </trkpt>
      <trkpt lat="49.36876" lon="-1.07797">
        <ele>12.2</ele>
        <time>2020-06-16T13:20:52Z</time>
      </trkpt>
      <trkpt lat="49.36875" lon="-1.07799">
        <ele>12.2</ele>
        <time>2020-06-16T13:20:53Z</time>
      </trkpt>
      <trkpt lat="49.36874" lon="-1.078">
        <ele>12.2</ele>
        <time>2020-06-16T13:20:54Z</time>
      </trkpt>
      <trkpt lat="49.36873" lon="-1.07802">
        <ele>12.2</ele>
        <time>2020-06-16T13:20:55Z</time>
      </trkpt>
      <trkpt lat="49.36872" lon="-1.07804">
        <ele>12.1</ele>
        <time>2020-06-16T13:20:56Z</time>
      </trkpt>
      <trkpt lat="49.36871" lon="-1.07805">
        <ele>12.1</ele>
        <time>2020-06-16T13:20:57Z</time>
      </trkpt>
      <trkpt lat="49.3687" lon="-1.07808">
        <ele>12.1</ele>
        <time>2020-06-16T13:20:58Z</time>
      </trkpt>
      <trkpt lat="49.3687" lon="-1.0781">
        <ele>12</ele>
        <time>2020-06-16T13:20:59Z</time>
      </trkpt>
      <trkpt lat="49.3687" lon="-1.07813">
        <ele>12</ele>
        <time>2020-06-16T13:21:00Z</time>
      </trkpt>
      <trkpt lat="49.3687" lon="-1.07815">
        <ele>12</ele>
        <time>2020-06-16T13:21:01Z</time>
      </trkpt>
      <trkpt lat="49.3687" lon="-1.07818">
        <ele>11.9</ele>
        <time>2020-06-16T13:21:02Z</time>
      </trkpt>
      <trkpt lat="49.36869" lon="-1.07821">
        <ele>11.9</ele>
        <time>2020-06-16T13:21:03Z</time>
      </trkpt>
      <trkpt lat="49.36869" lon="-1.07822">
        <ele>11.9</ele>
        <time>2020-06-16T13:21:04Z</time>
      </trkpt>
      <trkpt lat="49.36869" lon="-1.07823">
        <ele>11.9</ele>
        <time>2020-06-16T13:21:05Z</time>
      </trkpt>
      <trkpt lat="49.36868" lon="-1.07825">
        <ele>11.8</ele>
        <time>2020-06-16T13:21:06Z</time>
      </trkpt>
      <trkpt lat="49.36868" lon="-1.07827">
        <ele>11.8</ele>
        <time>2020-06-16T13:21:07Z</time>
      </trkpt>
      <trkpt lat="49.36868" lon="-1.07829">
        <ele>11.8</ele>
        <time>2020-06-16T13:21:08Z</time>
      </trkpt>
      <trkpt lat="49.36868" lon="-1.0783">
        <ele>11.8</ele>
        <time>2020-06-16T13:21:09Z</time>
      </trkpt>
      <trkpt lat="49.36869" lon="-1.0783">
        <ele>11.8</ele>
        <time>2020-06-16T13:21:10Z</time>
      </trkpt>
      <trkpt lat="49.36869" lon="-1.07831">
        <ele>11.8</ele>
        <time>2020-06-16T13:21:11Z</time>
      </trkpt>
      <trkpt lat="49.36869" lon="-1.07832">
        <ele>11.8</ele>
        <time>2020-06-16T13:21:12Z</time>
      </trkpt>
      <trkpt lat="49.36868" lon="-1.07832">
        <ele>11.8</ele>
        <time>2020-06-16T13:21:13Z</time>
      </trkpt>
      <trkpt lat="49.36868" lon="-1.07833">
        <ele>11.8</ele>
        <time>2020-06-16T13:21:14Z</time>
      </trkpt>
      <trkpt lat="49.36868" lon="-1.07832">
        <ele>11.8</ele>
        <time>2020-06-16T13:21:15Z</time>
      </trkpt>
      <trkpt lat="49.36869" lon="-1.07832">
        <ele>11.8</ele>
        <time>2020-06-16T13:21:16Z</time>
      </trkpt>
      <trkpt lat="49.36869" lon="-1.07833">
        <ele>11.8</ele>
        <time>2020-06-16T13:21:17Z</time>
      </trkpt>
      <trkpt lat="49.36869" lon="-1.07833">
        <ele>11.8</ele>
        <time>2020-06-16T13:21:18Z</time>
      </trkpt>
      <trkpt lat="49.36869" lon="-1.07833">
        <ele>11.8</ele>
        <time>2020-06-16T13:21:19Z</time>
      </trkpt>
      <trkpt lat="49.36869" lon="-1.07833">
        <ele>11.8</ele>
        <time>2020-06-16T13:21:20Z</time>
      </trkpt>
      <trkpt lat="49.36869" lon="-1.07833">
        <ele>11.8</ele>
        <time>2020-06-16T13:21:21Z</time>
      </trkpt>
      <trkpt lat="49.36869" lon="-1.07833">
        <ele>11.8</ele>
        <time>2020-06-16T13:21:22Z</time>
      </trkpt>
      <trkpt lat="49.36869" lon="-1.07833">
        <ele>11.8</ele>
        <time>2020-06-16T13:21:23Z</time>
      </trkpt>
      <trkpt lat="49.36869" lon="-1.07833">
        <ele>11.8</ele>
        <time>2020-06-16T13:21:24Z</time>
      </trkpt>
      <trkpt lat="49.36869" lon="-1.07833">
        <ele>11.8</ele>
        <time>2020-06-16T13:21:25Z</time>
      </trkpt>
      <trkpt lat="49.36869" lon="-1.07833">
        <ele>11.8</ele>
        <time>2020-06-16T13:21:26Z</time>
      </trkpt>
      <trkpt lat="49.36866" lon="-1.07823">
        <ele>11.9</ele>
        <time>2020-06-16T13:26:20Z</time>
      </trkpt>
      <trkpt lat="49.36865" lon="-1.07821">
        <ele>11.9</ele>
        <time>2020-06-16T13:26:21Z</time>
      </trkpt>
      <trkpt lat="49.36866" lon="-1.0782">
        <ele>11.9</ele>
        <time>2020-06-16T13:26:22Z</time>
      </trkpt>
      <trkpt lat="49.36865" lon="-1.07818">
        <ele>11.9</ele>
        <time>2020-06-16T13:26:23Z</time>
      </trkpt>
      <trkpt lat="49.36865" lon="-1.07817">
        <ele>11.9</ele>
        <time>2020-06-16T13:26:24Z</time>
      </trkpt>
      <trkpt lat="49.36865" lon="-1.07816">
        <ele>12</ele>
        <time>2020-06-16T13:26:25Z</time>
      </trkpt>
      <trkpt lat="49.36864" lon="-1.07814">
        <ele>12</ele>
        <time>2020-06-16T13:26:26Z</time>
      </trkpt>
      <trkpt lat="49.36864" lon="-1.07813">
        <ele>12</ele>
        <time>2020-06-16T13:26:27Z</time>
      </trkpt>
      <trkpt lat="49.36863" lon="-1.07812">
        <ele>12</ele>
        <time>2020-06-16T13:26:28Z</time>
      </trkpt>
      <trkpt lat="49.36863" lon="-1.07811">
        <ele>12</ele>
        <time>2020-06-16T13:26:29Z</time>
      </trkpt>
      <trkpt lat="49.36863" lon="-1.07812">
        <ele>12</ele>
        <time>2020-06-16T13:26:30Z</time>
      </trkpt>
      <trkpt lat="49.36863" lon="-1.07811">
        <ele>12</ele>
        <time>2020-06-16T13:26:31Z</time>
      </trkpt>
      <trkpt lat="49.36863" lon="-1.07811">
        <ele>12</ele>
        <time>2020-06-16T13:26:32Z</time>
      </trkpt>
      <trkpt lat="49.36863" lon="-1.07811">
        <ele>12</ele>
        <time>2020-06-16T13:26:33Z</time>
      </trkpt>
      <trkpt lat="49.36863" lon="-1.07811">
        <ele>12</ele>
        <time>2020-06-16T13:26:34Z</time>
      </trkpt>
      <trkpt lat="49.36862" lon="-1.0781">
        <ele>12.1</ele>
        <time>2020-06-16T13:26:35Z</time>
      </trkpt>
      <trkpt lat="49.36862" lon="-1.0781">
        <ele>12.1</ele>
        <time>2020-06-16T13:26:36Z</time>
      </trkpt>
      <trkpt lat="49.36863" lon="-1.07811">
        <ele>12.1</ele>
        <time>2020-06-16T13:26:37Z</time>
      </trkpt>
      <trkpt lat="49.36861" lon="-1.07802">
        <ele>12.2</ele>
        <time>2020-06-16T13:26:47Z</time>
      </trkpt>
      <trkpt lat="49.36861" lon="-1.078">
        <ele>12.2</ele>
        <time>2020-06-16T13:26:48Z</time>
      </trkpt>
      <trkpt lat="49.36862" lon="-1.07802">
        <ele>12.2</ele>
        <time>2020-06-16T13:26:49Z</time>
      </trkpt>
      <trkpt lat="49.36862" lon="-1.07803">
        <ele>12.2</ele>
        <time>2020-06-16T13:26:50Z</time>
      </trkpt>
      <trkpt lat="49.36862" lon="-1.07803">
        <ele>12.2</ele>
        <time>2020-06-16T13:26:51Z</time>
      </trkpt>
      <trkpt lat="49.36862" lon="-1.07803">
        <ele>12.2</ele>
        <time>2020-06-16T13:26:52Z</time>
      </trkpt>
      <trkpt lat="49.36862" lon="-1.07803">
        <ele>12.2</ele>
        <time>2020-06-16T13:26:53Z</time>
      </trkpt>
      <trkpt lat="49.36863" lon="-1.07801">
        <ele>12.2</ele>
        <time>2020-06-16T13:26:54Z</time>
      </trkpt>
      <trkpt lat="49.36863" lon="-1.078">
        <ele>12.2</ele>
        <time>2020-06-16T13:26:55Z</time>
      </trkpt>
      <trkpt lat="49.36864" lon="-1.07799">
        <ele>12.2</ele>
        <time>2020-06-16T13:26:56Z</time>
      </trkpt>
      <trkpt lat="49.36864" lon="-1.07799">
        <ele>12.2</ele>
        <time>2020-06-16T13:26:57Z</time>
      </trkpt>
      <trkpt lat="49.36864" lon="-1.07797">
        <ele>12.2</ele>
        <time>2020-06-16T13:26:58Z</time>
      </trkpt>
      <trkpt lat="49.36865" lon="-1.07797">
        <ele>12.2</ele>
        <time>2020-06-16T13:26:59Z</time>
      </trkpt>
      <trkpt lat="49.36865" lon="-1.07796">
        <ele>12.2</ele>
        <time>2020-06-16T13:27:00Z</time>
      </trkpt>
      <trkpt lat="49.36865" lon="-1.07796">
        <ele>12.2</ele>
        <time>2020-06-16T13:27:01Z</time>
      </trkpt>
      <trkpt lat="49.36866" lon="-1.07796">
        <ele>12.2</ele>
        <time>2020-06-16T13:27:02Z</time>
      </trkpt>
      <trkpt lat="49.36866" lon="-1.07795">
        <ele>12.3</ele>
        <time>2020-06-16T13:27:03Z</time>
      </trkpt>
      <trkpt lat="49.36866" lon="-1.07794">
        <ele>12.3</ele>
        <time>2020-06-16T13:27:04Z</time>
      </trkpt>
      <trkpt lat="49.36866" lon="-1.07793">
        <ele>12.3</ele>
        <time>2020-06-16T13:27:05Z</time>
      </trkpt>
      <trkpt lat="49.36866" lon="-1.07792">
        <ele>12.3</ele>
        <time>2020-06-16T13:27:06Z</time>
      </trkpt>
      <trkpt lat="49.36866" lon="-1.07792">
        <ele>12.3</ele>
        <time>2020-06-16T13:27:07Z</time>
      </trkpt>
      <trkpt lat="49.36866" lon="-1.07793">
        <ele>12.3</ele>
        <time>2020-06-16T13:27:08Z</time>
      </trkpt>
      <trkpt lat="49.36866" lon="-1.07794">
        <ele>12.3</ele>
        <time>2020-06-16T13:27:09Z</time>
      </trkpt>
      <trkpt lat="49.36866" lon="-1.07793">
        <ele>12.3</ele>
        <time>2020-06-16T13:27:10Z</time>
      </trkpt>
      <trkpt lat="49.36866" lon="-1.07793">
        <ele>12.3</ele>
        <time>2020-06-16T13:27:11Z</time>
      </trkpt>
      <trkpt lat="49.36866" lon="-1.07793">
        <ele>12.3</ele>
        <time>2020-06-16T13:27:12Z</time>
      </trkpt>
      <trkpt lat="49.36866" lon="-1.07793">
        <ele>12.3</ele>
        <time>2020-06-16T13:27:13Z</time>
      </trkpt>
      <trkpt lat="49.36866" lon="-1.07793">
        <ele>12.3</ele>
        <time>2020-06-16T13:27:14Z</time>
      </trkpt>
      <trkpt lat="49.36866" lon="-1.07793">
        <ele>12.3</ele>
        <time>2020-06-16T13:27:15Z</time>
      </trkpt>
      <trkpt lat="49.36866" lon="-1.07793">
        <ele>12.3</ele>
        <time>2020-06-16T13:27:16Z</time>
      </trkpt>
      <trkpt lat="49.36869" lon="-1.07807">
        <ele>12.1</ele>
        <time>2020-06-16T13:28:50Z</time>
      </trkpt>
      <trkpt lat="49.36869" lon="-1.07806">
        <ele>12.1</ele>
        <time>2020-06-16T13:28:51Z</time>
      </trkpt>
      <trkpt lat="49.36868" lon="-1.07805">
        <ele>12.1</ele>
        <time>2020-06-16T13:28:52Z</time>
      </trkpt>
      <trkpt lat="49.36867" lon="-1.07806">
        <ele>12.1</ele>
        <time>2020-06-16T13:28:53Z</time>
      </trkpt>
      <trkpt lat="49.36867" lon="-1.07806">
        <ele>12.1</ele>
        <time>2020-06-16T13:28:54Z</time>
      </trkpt>
      <trkpt lat="49.36867" lon="-1.07806">
        <ele>12.1</ele>
        <time>2020-06-16T13:28:55Z</time>
      </trkpt>
      <trkpt lat="49.36867" lon="-1.07806">
        <ele>12.1</ele>
        <time>2020-06-16T13:28:56Z</time>
      </trkpt>
      <trkpt lat="49.36867" lon="-1.07806">
        <ele>12.1</ele>
        <time>2020-06-16T13:28:57Z</time>
      </trkpt>
      <trkpt lat="49.36867" lon="-1.07806">
        <ele>12.1</ele>
        <time>2020-06-16T13:28:58Z</time>
      </trkpt>
      <trkpt lat="49.36866" lon="-1.07806">
        <ele>12.1</ele>
        <time>2020-06-16T13:28:59Z</time>
      </trkpt>
      <trkpt lat="49.36866" lon="-1.07806">
        <ele>12.1</ele>
        <time>2020-06-16T13:29:00Z</time>
      </trkpt>
      <trkpt lat="49.3686" lon="-1.07802">
        <ele>12.2</ele>
        <time>2020-06-16T13:29:19Z</time>
      </trkpt>
      <trkpt lat="49.36859" lon="-1.07802">
        <ele>12.2</ele>
        <time>2020-06-16T13:29:20Z</time>
      </trkpt>
      <trkpt lat="49.36858" lon="-1.07801">
        <ele>12.2</ele>
        <time>2020-06-16T13:29:21Z</time>
      </trkpt>
      <trkpt lat="49.36857" lon="-1.07801">
        <ele>12.2</ele>
        <time>2020-06-16T13:29:22Z</time>
      </trkpt>
      <trkpt lat="49.36856" lon="-1.078">
        <ele>12.2</ele>
        <time>2020-06-16T13:29:23Z</time>
      </trkpt>
      <trkpt lat="49.36855" lon="-1.078">
        <ele>12.2</ele>
        <time>2020-06-16T13:29:24Z</time>
      </trkpt>
      <trkpt lat="49.36855" lon="-1.078">
        <ele>12.2</ele>
        <time>2020-06-16T13:29:25Z</time>
      </trkpt>
      <trkpt lat="49.36855" lon="-1.07799">
        <ele>12.2</ele>
        <time>2020-06-16T13:29:26Z</time>
      </trkpt>
      <trkpt lat="49.36854" lon="-1.07799">
        <ele>12.2</ele>
        <time>2020-06-16T13:29:27Z</time>
      </trkpt>
      <trkpt lat="49.36854" lon="-1.07799">
        <ele>12.3</ele>
        <time>2020-06-16T13:29:28Z</time>
      </trkpt>
      <trkpt lat="49.36853" lon="-1.07799">
        <ele>12.3</ele>
        <time>2020-06-16T13:29:29Z</time>
      </trkpt>
      <trkpt lat="49.36853" lon="-1.07799">
        <ele>12.3</ele>
        <time>2020-06-16T13:29:30Z</time>
      </trkpt>
      <trkpt lat="49.36853" lon="-1.07799">
        <ele>12.3</ele>
        <time>2020-06-16T13:29:31Z</time>
      </trkpt>
      <trkpt lat="49.36853" lon="-1.07799">
        <ele>12.3</ele>
        <time>2020-06-16T13:29:32Z</time>
      </trkpt>
      <trkpt lat="49.36852" lon="-1.07797">
        <ele>12.3</ele>
        <time>2020-06-16T13:29:33Z</time>
      </trkpt>
      <trkpt lat="49.36852" lon="-1.07796">
        <ele>12.3</ele>
        <time>2020-06-16T13:29:34Z</time>
      </trkpt>
      <trkpt lat="49.36852" lon="-1.07795">
        <ele>12.3</ele>
        <time>2020-06-16T13:29:35Z</time>
      </trkpt>
      <trkpt lat="49.36852" lon="-1.07793">
        <ele>12.4</ele>
        <time>2020-06-16T13:29:36Z</time>
      </trkpt>
      <trkpt lat="49.36852" lon="-1.07792">
        <ele>12.4</ele>
        <time>2020-06-16T13:29:37Z</time>
      </trkpt>
      <trkpt lat="49.36852" lon="-1.07792">
        <ele>12.4</ele>
        <time>2020-06-16T13:29:38Z</time>
      </trkpt>
      <trkpt lat="49.36852" lon="-1.07792">
        <ele>12.4</ele>
        <time>2020-06-16T13:29:39Z</time>
      </trkpt>
      <trkpt lat="49.36852" lon="-1.07792">
        <ele>12.4</ele>
        <time>2020-06-16T13:29:40Z</time>
      </trkpt>
      <trkpt lat="49.36852" lon="-1.07792">
        <ele>12.4</ele>
        <time>2020-06-16T13:29:41Z</time>
      </trkpt>
      <trkpt lat="49.36852" lon="-1.07792">
        <ele>12.4</ele>
        <time>2020-06-16T13:29:42Z</time>
      </trkpt>
      <trkpt lat="49.36851" lon="-1.07791">
        <ele>12.4</ele>
        <time>2020-06-16T13:29:43Z</time>
      </trkpt>
      <trkpt lat="49.36851" lon="-1.07789">
        <ele>12.5</ele>
        <time>2020-06-16T13:29:44Z</time>
      </trkpt>
      <trkpt lat="49.36852" lon="-1.07788">
        <ele>12.4</ele>
        <time>2020-06-16T13:29:45Z</time>
      </trkpt>
      <trkpt lat="49.36852" lon="-1.07787">
        <ele>12.4</ele>
        <time>2020-06-16T13:29:46Z</time>
      </trkpt>
      <trkpt lat="49.36852" lon="-1.07786">
        <ele>12.5</ele>
        <time>2020-06-16T13:29:47Z</time>
      </trkpt>
      <trkpt lat="49.36852" lon="-1.07785">
        <ele>12.5</ele>
        <time>2020-06-16T13:29:48Z</time>
      </trkpt>
      <trkpt lat="49.36852" lon="-1.07785">
        <ele>12.5</ele>
        <time>2020-06-16T13:29:49Z</time>
      </trkpt>
      <trkpt lat="49.36852" lon="-1.07784">
        <ele>12.5</ele>
        <time>2020-06-16T13:29:50Z</time>
      </trkpt>
      <trkpt lat="49.36852" lon="-1.07784">
        <ele>12.5</ele>
        <time>2020-06-16T13:29:51Z</time>
      </trkpt>
      <trkpt lat="49.36852" lon="-1.07783">
        <ele>12.5</ele>
        <time>2020-06-16T13:29:52Z</time>
      </trkpt>
      <trkpt lat="49.36852" lon="-1.07783">
        <ele>12.5</ele>
        <time>2020-06-16T13:29:53Z</time>
      </trkpt>
      <trkpt lat="49.36853" lon="-1.07782">
        <ele>12.5</ele>
        <time>2020-06-16T13:29:54Z</time>
      </trkpt>
      <trkpt lat="49.36854" lon="-1.07781">
        <ele>12.6</ele>
        <time>2020-06-16T13:29:55Z</time>
      </trkpt>
      <trkpt lat="49.36855" lon="-1.07779">
        <ele>12.6</ele>
        <time>2020-06-16T13:29:56Z</time>
      </trkpt>
      <trkpt lat="49.36855" lon="-1.07779">
        <ele>12.6</ele>
        <time>2020-06-16T13:29:57Z</time>
      </trkpt>
      <trkpt lat="49.36855" lon="-1.07774">
        <ele>12.7</ele>
        <time>2020-06-16T13:29:58Z</time>
      </trkpt>
      <trkpt lat="49.36855" lon="-1.07771">
        <ele>12.7</ele>
        <time>2020-06-16T13:29:59Z</time>
      </trkpt>
      <trkpt lat="49.36854" lon="-1.07767">
        <ele>12.8</ele>
        <time>2020-06-16T13:30:00Z</time>
      </trkpt>
      <trkpt lat="49.36855" lon="-1.07762">
        <ele>12.9</ele>
        <time>2020-06-16T13:30:01Z</time>
      </trkpt>
      <trkpt lat="49.36856" lon="-1.0776">
        <ele>13</ele>
        <time>2020-06-16T13:30:02Z</time>
      </trkpt>
      <trkpt lat="49.36857" lon="-1.07756">
        <ele>13</ele>
        <time>2020-06-16T13:30:03Z</time>
      </trkpt>
      <trkpt lat="49.36857" lon="-1.07755">
        <ele>13</ele>
        <time>2020-06-16T13:30:04Z</time>
      </trkpt>
      <trkpt lat="49.36857" lon="-1.07751">
        <ele>13.1</ele>
        <time>2020-06-16T13:30:05Z</time>
      </trkpt>
      <trkpt lat="49.36856" lon="-1.07748">
        <ele>13.1</ele>
        <time>2020-06-16T13:30:06Z</time>
      </trkpt>
      <trkpt lat="49.36856" lon="-1.07745">
        <ele>13.2</ele>
        <time>2020-06-16T13:30:07Z</time>
      </trkpt>
      <trkpt lat="49.36856" lon="-1.07742">
        <ele>13.3</ele>
        <time>2020-06-16T13:30:08Z</time>
      </trkpt>
      <trkpt lat="49.36857" lon="-1.0774">
        <ele>13.3</ele>
        <time>2020-06-16T13:30:09Z</time>
      </trkpt>
      <trkpt lat="49.36856" lon="-1.07738">
        <ele>13.3</ele>
        <time>2020-06-16T13:30:10Z</time>
      </trkpt>
      <trkpt lat="49.36856" lon="-1.07735">
        <ele>13.3</ele>
        <time>2020-06-16T13:30:11Z</time>
      </trkpt>
      <trkpt lat="49.36856" lon="-1.07734">
        <ele>13.4</ele>
        <time>2020-06-16T13:30:12Z</time>
      </trkpt>
      <trkpt lat="49.36856" lon="-1.07734">
        <ele>13.4</ele>
        <time>2020-06-16T13:30:13Z</time>
      </trkpt>
      <trkpt lat="49.36854" lon="-1.07734">
        <ele>13.4</ele>
        <time>2020-06-16T13:30:14Z</time>
      </trkpt>
      <trkpt lat="49.36851" lon="-1.07733">
        <ele>13.4</ele>
        <time>2020-06-16T13:30:15Z</time>
      </trkpt>
      <trkpt lat="49.3685" lon="-1.07732">
        <ele>13.4</ele>
        <time>2020-06-16T13:30:16Z</time>
      </trkpt>
      <trkpt lat="49.36847" lon="-1.07731">
        <ele>13.4</ele>
        <time>2020-06-16T13:30:17Z</time>
      </trkpt>
      <trkpt lat="49.36846" lon="-1.07731">
        <ele>13.4</ele>
        <time>2020-06-16T13:30:18Z</time>
      </trkpt>
      <trkpt lat="49.36845" lon="-1.07729">
        <ele>13.5</ele>
        <time>2020-06-16T13:30:19Z</time>
      </trkpt>
      <trkpt lat="49.36844" lon="-1.07728">
        <ele>13.5</ele>
        <time>2020-06-16T13:30:20Z</time>
      </trkpt>
      <trkpt lat="49.36844" lon="-1.07728">
        <ele>13.5</ele>
        <time>2020-06-16T13:30:21Z</time>
      </trkpt>
      <trkpt lat="49.36844" lon="-1.07728">
        <ele>13.5</ele>
        <time>2020-06-16T13:30:22Z</time>
      </trkpt>
      <trkpt lat="49.36843" lon="-1.07728">
        <ele>13.5</ele>
        <time>2020-06-16T13:30:23Z</time>
      </trkpt>
      <trkpt lat="49.36843" lon="-1.07728">
        <ele>13.5</ele>
        <time>2020-06-16T13:30:24Z</time>
      </trkpt>
      <trkpt lat="49.36843" lon="-1.07728">
        <ele>13.5</ele>
        <time>2020-06-16T13:30:25Z</time>
      </trkpt>
      <trkpt lat="49.36843" lon="-1.07727">
        <ele>13.5</ele>
        <time>2020-06-16T13:30:26Z</time>
      </trkpt>
      <trkpt lat="49.36843" lon="-1.07727">
        <ele>13.5</ele>
        <time>2020-06-16T13:30:27Z</time>
      </trkpt>
      <trkpt lat="49.36843" lon="-1.07728">
        <ele>13.5</ele>
        <time>2020-06-16T13:30:28Z</time>
      </trkpt>
      <trkpt lat="49.36841" lon="-1.07731">
        <ele>13.5</ele>
        <time>2020-06-16T13:30:29Z</time>
      </trkpt>
      <trkpt lat="49.36841" lon="-1.0773">
        <ele>13.5</ele>
        <time>2020-06-16T13:30:30Z</time>
      </trkpt>
      <trkpt lat="49.36841" lon="-1.07729">
        <ele>13.5</ele>
        <time>2020-06-16T13:30:31Z</time>
      </trkpt>
      <trkpt lat="49.36841" lon="-1.07728">
        <ele>13.5</ele>
        <time>2020-06-16T13:30:32Z</time>
      </trkpt>
      <trkpt lat="49.36841" lon="-1.07727">
        <ele>13.5</ele>
        <time>2020-06-16T13:30:33Z</time>
      </trkpt>
      <trkpt lat="49.36841" lon="-1.07726">
        <ele>13.6</ele>
        <time>2020-06-16T13:30:34Z</time>
      </trkpt>
      <trkpt lat="49.36841" lon="-1.07724">
        <ele>13.6</ele>
        <time>2020-06-16T13:30:35Z</time>
      </trkpt>
      <trkpt lat="49.36841" lon="-1.07724">
        <ele>13.6</ele>
        <time>2020-06-16T13:30:36Z</time>
      </trkpt>
      <trkpt lat="49.36841" lon="-1.07724">
        <ele>13.6</ele>
        <time>2020-06-16T13:30:37Z</time>
      </trkpt>
      <trkpt lat="49.36841" lon="-1.07724">
        <ele>13.6</ele>
        <time>2020-06-16T13:30:38Z</time>
      </trkpt>
      <trkpt lat="49.36841" lon="-1.07722">
        <ele>13.6</ele>
        <time>2020-06-16T13:30:39Z</time>
      </trkpt>
      <trkpt lat="49.36841" lon="-1.07719">
        <ele>13.6</ele>
        <time>2020-06-16T13:30:40Z</time>
      </trkpt>
      <trkpt lat="49.36842" lon="-1.07717">
        <ele>13.6</ele>
        <time>2020-06-16T13:30:41Z</time>
      </trkpt>
      <trkpt lat="49.36842" lon="-1.07716">
        <ele>13.6</ele>
        <time>2020-06-16T13:30:42Z</time>
      </trkpt>
      <trkpt lat="49.36843" lon="-1.07715">
        <ele>13.6</ele>
        <time>2020-06-16T13:30:43Z</time>
      </trkpt>
      <trkpt lat="49.36844" lon="-1.07707">
        <ele>13.7</ele>
        <time>2020-06-16T13:30:47Z</time>
      </trkpt>
      <trkpt lat="49.36845" lon="-1.07705">
        <ele>13.7</ele>
        <time>2020-06-16T13:30:48Z</time>
      </trkpt>
      <trkpt lat="49.36845" lon="-1.07702">
        <ele>13.7</ele>
        <time>2020-06-16T13:30:49Z</time>
      </trkpt>
      <trkpt lat="49.36846" lon="-1.07701">
        <ele>13.7</ele>
        <time>2020-06-16T13:30:50Z</time>
      </trkpt>
      <trkpt lat="49.36847" lon="-1.07698">
        <ele>13.7</ele>
        <time>2020-06-16T13:30:51Z</time>
      </trkpt>
      <trkpt lat="49.36847" lon="-1.07697">
        <ele>13.7</ele>
        <time>2020-06-16T13:30:52Z</time>
      </trkpt>
      <trkpt lat="49.36848" lon="-1.07695">
        <ele>13.7</ele>
        <time>2020-06-16T13:30:53Z</time>
      </trkpt>
      <trkpt lat="49.36848" lon="-1.07693">
        <ele>13.7</ele>
        <time>2020-06-16T13:30:54Z</time>
      </trkpt>
      <trkpt lat="49.36849" lon="-1.07691">
        <ele>13.7</ele>
        <time>2020-06-16T13:30:55Z</time>
      </trkpt>
      <trkpt lat="49.36849" lon="-1.07691">
        <ele>13.7</ele>
        <time>2020-06-16T13:30:56Z</time>
      </trkpt>
      <trkpt lat="49.36849" lon="-1.07689">
        <ele>13.7</ele>
        <time>2020-06-16T13:30:57Z</time>
      </trkpt>
      <trkpt lat="49.36849" lon="-1.07689">
        <ele>13.7</ele>
        <time>2020-06-16T13:30:58Z</time>
      </trkpt>
      <trkpt lat="49.3685" lon="-1.07688">
        <ele>13.7</ele>
        <time>2020-06-16T13:30:59Z</time>
      </trkpt>
      <trkpt lat="49.36849" lon="-1.07687">
        <ele>13.7</ele>
        <time>2020-06-16T13:31:00Z</time>
      </trkpt>
      <trkpt lat="49.36849" lon="-1.07683">
        <ele>13.7</ele>
        <time>2020-06-16T13:31:01Z</time>
      </trkpt>
      <trkpt lat="49.36848" lon="-1.07678">
        <ele>13.8</ele>
        <time>2020-06-16T13:31:02Z</time>
      </trkpt>
      <trkpt lat="49.36848" lon="-1.07676">
        <ele>13.8</ele>
        <time>2020-06-16T13:31:03Z</time>
      </trkpt>
      <trkpt lat="49.36847" lon="-1.07674">
        <ele>13.8</ele>
        <time>2020-06-16T13:31:04Z</time>
      </trkpt>
      <trkpt lat="49.36846" lon="-1.07669">
        <ele>13.8</ele>
        <time>2020-06-16T13:31:05Z</time>
      </trkpt>
      <trkpt lat="49.36846" lon="-1.07668">
        <ele>13.8</ele>
        <time>2020-06-16T13:31:06Z</time>
      </trkpt>
      <trkpt lat="49.36845" lon="-1.07665">
        <ele>13.9</ele>
        <time>2020-06-16T13:31:07Z</time>
      </trkpt>
      <trkpt lat="49.36845" lon="-1.07664">
        <ele>13.9</ele>
        <time>2020-06-16T13:31:08Z</time>
      </trkpt>
      <trkpt lat="49.36845" lon="-1.07662">
        <ele>13.9</ele>
        <time>2020-06-16T13:31:09Z</time>
      </trkpt>
      <trkpt lat="49.36844" lon="-1.07662">
        <ele>13.9</ele>
        <time>2020-06-16T13:31:10Z</time>
      </trkpt>
      <trkpt lat="49.36845" lon="-1.07664">
        <ele>13.9</ele>
        <time>2020-06-16T13:31:11Z</time>
      </trkpt>
      <trkpt lat="49.36845" lon="-1.07665">
        <ele>13.9</ele>
        <time>2020-06-16T13:31:12Z</time>
      </trkpt>
      <trkpt lat="49.36844" lon="-1.07667">
        <ele>13.8</ele>
        <time>2020-06-16T13:31:13Z</time>
      </trkpt>
      <trkpt lat="49.36845" lon="-1.07667">
        <ele>13.8</ele>
        <time>2020-06-16T13:31:14Z</time>
      </trkpt>
      <trkpt lat="49.36845" lon="-1.07667">
        <ele>13.8</ele>
        <time>2020-06-16T13:31:15Z</time>
      </trkpt>
      <trkpt lat="49.36845" lon="-1.07667">
        <ele>13.8</ele>
        <time>2020-06-16T13:31:16Z</time>
      </trkpt>
      <trkpt lat="49.36845" lon="-1.07667">
        <ele>13.8</ele>
        <time>2020-06-16T13:31:17Z</time>
      </trkpt>
      <trkpt lat="49.36845" lon="-1.07667">
        <ele>13.8</ele>
        <time>2020-06-16T13:31:18Z</time>
      </trkpt>
      <trkpt lat="49.36844" lon="-1.07667">
        <ele>13.8</ele>
        <time>2020-06-16T13:31:19Z</time>
      </trkpt>
      <trkpt lat="49.36843" lon="-1.07665">
        <ele>13.9</ele>
        <time>2020-06-16T13:31:20Z</time>
      </trkpt>
      <trkpt lat="49.36843" lon="-1.07663">
        <ele>13.9</ele>
        <time>2020-06-16T13:31:21Z</time>
      </trkpt>
      <trkpt lat="49.36843" lon="-1.07661">
        <ele>13.9</ele>
        <time>2020-06-16T13:31:22Z</time>
      </trkpt>
      <trkpt lat="49.36843" lon="-1.07657">
        <ele>13.9</ele>
        <time>2020-06-16T13:31:23Z</time>
      </trkpt>
      <trkpt lat="49.36842" lon="-1.07655">
        <ele>13.9</ele>
        <time>2020-06-16T13:31:24Z</time>
      </trkpt>
      <trkpt lat="49.36842" lon="-1.07653">
        <ele>13.9</ele>
        <time>2020-06-16T13:31:25Z</time>
      </trkpt>
      <trkpt lat="49.36842" lon="-1.07651">
        <ele>13.9</ele>
        <time>2020-06-16T13:31:26Z</time>
      </trkpt>
      <trkpt lat="49.36842" lon="-1.07651">
        <ele>13.9</ele>
        <time>2020-06-16T13:31:27Z</time>
      </trkpt>
      <trkpt lat="49.36841" lon="-1.0765">
        <ele>13.9</ele>
        <time>2020-06-16T13:31:28Z</time>
      </trkpt>
      <trkpt lat="49.36841" lon="-1.07651">
        <ele>13.9</ele>
        <time>2020-06-16T13:31:29Z</time>
      </trkpt>
      <trkpt lat="49.36842" lon="-1.07653">
        <ele>13.9</ele>
        <time>2020-06-16T13:31:30Z</time>
      </trkpt>
      <trkpt lat="49.36842" lon="-1.07653">
        <ele>13.9</ele>
        <time>2020-06-16T13:31:31Z</time>
      </trkpt>
      <trkpt lat="49.36842" lon="-1.07653">
        <ele>13.9</ele>
        <time>2020-06-16T13:31:32Z</time>
      </trkpt>
      <trkpt lat="49.36843" lon="-1.07653">
        <ele>13.9</ele>
        <time>2020-06-16T13:31:33Z</time>
      </trkpt>
      <trkpt lat="49.36842" lon="-1.07653">
        <ele>13.9</ele>
        <time>2020-06-16T13:31:34Z</time>
      </trkpt>
      <trkpt lat="49.36842" lon="-1.0765">
        <ele>13.9</ele>
        <time>2020-06-16T13:31:35Z</time>
      </trkpt>
      <trkpt lat="49.36842" lon="-1.0765">
        <ele>13.9</ele>
        <time>2020-06-16T13:31:36Z</time>
      </trkpt>
      <trkpt lat="49.36842" lon="-1.0765">
        <ele>13.9</ele>
        <time>2020-06-16T13:31:37Z</time>
      </trkpt>
      <trkpt lat="49.36842" lon="-1.07649">
        <ele>13.9</ele>
        <time>2020-06-16T13:31:38Z</time>
      </trkpt>
      <trkpt lat="49.36843" lon="-1.07649">
        <ele>13.9</ele>
        <time>2020-06-16T13:31:39Z</time>
      </trkpt>
      <trkpt lat="49.36843" lon="-1.07649">
        <ele>14</ele>
        <time>2020-06-16T13:31:40Z</time>
      </trkpt>
      <trkpt lat="49.36843" lon="-1.07648">
        <ele>14</ele>
        <time>2020-06-16T13:31:41Z</time>
      </trkpt>
      <trkpt lat="49.36843" lon="-1.07648">
        <ele>14</ele>
        <time>2020-06-16T13:31:42Z</time>
      </trkpt>
      <trkpt lat="49.36843" lon="-1.07648">
        <ele>14</ele>
        <time>2020-06-16T13:31:43Z</time>
      </trkpt>
      <trkpt lat="49.36844" lon="-1.07647">
        <ele>14</ele>
        <time>2020-06-16T13:31:44Z</time>
      </trkpt>
      <trkpt lat="49.36844" lon="-1.07645">
        <ele>14</ele>
        <time>2020-06-16T13:31:45Z</time>
      </trkpt>
      <trkpt lat="49.36844" lon="-1.07644">
        <ele>14</ele>
        <time>2020-06-16T13:31:46Z</time>
      </trkpt>
      <trkpt lat="49.36844" lon="-1.07643">
        <ele>14</ele>
        <time>2020-06-16T13:31:47Z</time>
      </trkpt>
      <trkpt lat="49.36845" lon="-1.07642">
        <ele>14</ele>
        <time>2020-06-16T13:31:48Z</time>
      </trkpt>
      <trkpt lat="49.36845" lon="-1.07642">
        <ele>14</ele>
        <time>2020-06-16T13:31:49Z</time>
      </trkpt>
      <trkpt lat="49.36845" lon="-1.07641">
        <ele>14</ele>
        <time>2020-06-16T13:31:50Z</time>
      </trkpt>
      <trkpt lat="49.36845" lon="-1.07642">
        <ele>14</ele>
        <time>2020-06-16T13:31:51Z</time>
      </trkpt>
      <trkpt lat="49.36844" lon="-1.07642">
        <ele>14</ele>
        <time>2020-06-16T13:31:52Z</time>
      </trkpt>
      <trkpt lat="49.36843" lon="-1.07642">
        <ele>14</ele>
        <time>2020-06-16T13:31:53Z</time>
      </trkpt>
      <trkpt lat="49.36843" lon="-1.07642">
        <ele>14</ele>
        <time>2020-06-16T13:31:54Z</time>
      </trkpt>
      <trkpt lat="49.36843" lon="-1.07642">
        <ele>14</ele>
        <time>2020-06-16T13:31:55Z</time>
      </trkpt>
      <trkpt lat="49.36843" lon="-1.07642">
        <ele>14</ele>
        <time>2020-06-16T13:31:56Z</time>
      </trkpt>
      <trkpt lat="49.36842" lon="-1.07642">
        <ele>14</ele>
        <time>2020-06-16T13:31:57Z</time>
      </trkpt>
      <trkpt lat="49.36842" lon="-1.07642">
        <ele>14</ele>
        <time>2020-06-16T13:31:58Z</time>
      </trkpt>
      <trkpt lat="49.36841" lon="-1.07642">
        <ele>14</ele>
        <time>2020-06-16T13:31:59Z</time>
      </trkpt>
      <trkpt lat="49.36842" lon="-1.07647">
        <ele>14</ele>
        <time>2020-06-16T13:32:03Z</time>
      </trkpt>
      <trkpt lat="49.36841" lon="-1.07647">
        <ele>14</ele>
        <time>2020-06-16T13:32:04Z</time>
      </trkpt>
      <trkpt lat="49.36841" lon="-1.07647">
        <ele>14</ele>
        <time>2020-06-16T13:32:05Z</time>
      </trkpt>
      <trkpt lat="49.36841" lon="-1.07647">
        <ele>14</ele>
        <time>2020-06-16T13:32:06Z</time>
      </trkpt>
      <trkpt lat="49.36842" lon="-1.07647">
        <ele>14</ele>
        <time>2020-06-16T13:32:07Z</time>
      </trkpt>
      <trkpt lat="49.36842" lon="-1.07647">
        <ele>14</ele>
        <time>2020-06-16T13:32:08Z</time>
      </trkpt>
      <trkpt lat="49.36843" lon="-1.07649">
        <ele>13.9</ele>
        <time>2020-06-16T13:32:09Z</time>
      </trkpt>
      <trkpt lat="49.36844" lon="-1.0765">
        <ele>13.9</ele>
        <time>2020-06-16T13:32:10Z</time>
      </trkpt>
      <trkpt lat="49.36844" lon="-1.0765">
        <ele>13.9</ele>
        <time>2020-06-16T13:32:11Z</time>
      </trkpt>
      <trkpt lat="49.36844" lon="-1.0765">
        <ele>13.9</ele>
        <time>2020-06-16T13:32:12Z</time>
      </trkpt>
      <trkpt lat="49.36844" lon="-1.0765">
        <ele>13.9</ele>
        <time>2020-06-16T13:32:13Z</time>
      </trkpt>
      <trkpt lat="49.36844" lon="-1.07651">
        <ele>13.9</ele>
        <time>2020-06-16T13:32:14Z</time>
      </trkpt>
      <trkpt lat="49.36844" lon="-1.07651">
        <ele>13.9</ele>
        <time>2020-06-16T13:32:15Z</time>
      </trkpt>
      <trkpt lat="49.36844" lon="-1.07651">
        <ele>13.9</ele>
        <time>2020-06-16T13:32:16Z</time>
      </trkpt>
      <trkpt lat="49.36844" lon="-1.07651">
        <ele>13.9</ele>
        <time>2020-06-16T13:32:17Z</time>
      </trkpt>
      <trkpt lat="49.36843" lon="-1.07652">
        <ele>13.9</ele>
        <time>2020-06-16T13:32:18Z</time>
      </trkpt>
      <trkpt lat="49.36843" lon="-1.07652">
        <ele>13.9</ele>
        <time>2020-06-16T13:32:24Z</time>
      </trkpt>
      <trkpt lat="49.36843" lon="-1.07652">
        <ele>13.9</ele>
        <time>2020-06-16T13:32:25Z</time>
      </trkpt>
      <trkpt lat="49.36843" lon="-1.07652">
        <ele>13.9</ele>
        <time>2020-06-16T13:32:26Z</time>
      </trkpt>
      <trkpt lat="49.36843" lon="-1.07653">
        <ele>13.9</ele>
        <time>2020-06-16T13:32:27Z</time>
      </trkpt>
      <trkpt lat="49.36843" lon="-1.07653">
        <ele>13.9</ele>
        <time>2020-06-16T13:32:28Z</time>
      </trkpt>
      <trkpt lat="49.36843" lon="-1.07653">
        <ele>13.9</ele>
        <time>2020-06-16T13:32:29Z</time>
      </trkpt>
      <trkpt lat="49.36843" lon="-1.07653">
        <ele>13.9</ele>
        <time>2020-06-16T13:32:30Z</time>
      </trkpt>
      <trkpt lat="49.36843" lon="-1.07654">
        <ele>13.9</ele>
        <time>2020-06-16T13:32:31Z</time>
      </trkpt>
      <trkpt lat="49.36843" lon="-1.07654">
        <ele>13.9</ele>
        <time>2020-06-16T13:32:32Z</time>
      </trkpt>
      <trkpt lat="49.36843" lon="-1.07654">
        <ele>13.9</ele>
        <time>2020-06-16T13:32:33Z</time>
      </trkpt>
      <trkpt lat="49.36842" lon="-1.07654">
        <ele>13.9</ele>
        <time>2020-06-16T13:32:34Z</time>
      </trkpt>
      <trkpt lat="49.36842" lon="-1.07655">
        <ele>13.9</ele>
        <time>2020-06-16T13:32:35Z</time>
      </trkpt>
      <trkpt lat="49.36842" lon="-1.07655">
        <ele>13.9</ele>
        <time>2020-06-16T13:32:36Z</time>
      </trkpt>
      <trkpt lat="49.36842" lon="-1.07655">
        <ele>13.9</ele>
        <time>2020-06-16T13:32:37Z</time>
      </trkpt>
      <trkpt lat="49.36842" lon="-1.07655">
        <ele>13.9</ele>
        <time>2020-06-16T13:32:38Z</time>
      </trkpt>
      <trkpt lat="49.36842" lon="-1.07656">
        <ele>13.9</ele>
        <time>2020-06-16T13:32:39Z</time>
      </trkpt>
      <trkpt lat="49.36842" lon="-1.07656">
        <ele>13.9</ele>
        <time>2020-06-16T13:32:40Z</time>
      </trkpt>
      <trkpt lat="49.36842" lon="-1.07656">
        <ele>13.9</ele>
        <time>2020-06-16T13:32:41Z</time>
      </trkpt>
      <trkpt lat="49.36842" lon="-1.07656">
        <ele>13.9</ele>
        <time>2020-06-16T13:32:42Z</time>
      </trkpt>
      <trkpt lat="49.36842" lon="-1.07657">
        <ele>13.9</ele>
        <time>2020-06-16T13:32:43Z</time>
      </trkpt>
      <trkpt lat="49.36841" lon="-1.07657">
        <ele>13.9</ele>
        <time>2020-06-16T13:32:44Z</time>
      </trkpt>
      <trkpt lat="49.36841" lon="-1.07657">
        <ele>13.9</ele>
        <time>2020-06-16T13:32:45Z</time>
      </trkpt>
      <trkpt lat="49.36841" lon="-1.07657">
        <ele>13.9</ele>
        <time>2020-06-16T13:32:46Z</time>
      </trkpt>
      <trkpt lat="49.36841" lon="-1.07657">
        <ele>13.9</ele>
        <time>2020-06-16T13:33:33Z</time>
      </trkpt>
      <trkpt lat="49.36841" lon="-1.07658">
        <ele>13.9</ele>
        <time>2020-06-16T13:33:34Z</time>
      </trkpt>
      <trkpt lat="49.36841" lon="-1.07658">
        <ele>13.9</ele>
        <time>2020-06-16T13:33:35Z</time>
      </trkpt>
      <trkpt lat="49.3684" lon="-1.07658">
        <ele>13.9</ele>
        <time>2020-06-16T13:33:36Z</time>
      </trkpt>
      <trkpt lat="49.3684" lon="-1.07658">
        <ele>13.9</ele>
        <time>2020-06-16T13:33:37Z</time>
      </trkpt>
      <trkpt lat="49.3684" lon="-1.07659">
        <ele>13.9</ele>
        <time>2020-06-16T13:33:38Z</time>
      </trkpt>
      <trkpt lat="49.3684" lon="-1.07659">
        <ele>13.9</ele>
        <time>2020-06-16T13:33:39Z</time>
      </trkpt>
      <trkpt lat="49.3684" lon="-1.0766">
        <ele>13.9</ele>
        <time>2020-06-16T13:33:40Z</time>
      </trkpt>
      <trkpt lat="49.3684" lon="-1.0766">
        <ele>13.9</ele>
        <time>2020-06-16T13:33:41Z</time>
      </trkpt>
      <trkpt lat="49.3684" lon="-1.0766">
        <ele>13.9</ele>
        <time>2020-06-16T13:33:42Z</time>
      </trkpt>
      <trkpt lat="49.3684" lon="-1.07661">
        <ele>13.9</ele>
        <time>2020-06-16T13:33:43Z</time>
      </trkpt>
      <trkpt lat="49.3684" lon="-1.0766">
        <ele>13.9</ele>
        <time>2020-06-16T13:33:44Z</time>
      </trkpt>
      <trkpt lat="49.36839" lon="-1.0766">
        <ele>13.9</ele>
        <time>2020-06-16T13:33:45Z</time>
      </trkpt>
      <trkpt lat="49.3684" lon="-1.0766">
        <ele>13.9</ele>
        <time>2020-06-16T13:33:46Z</time>
      </trkpt>
      <trkpt lat="49.3684" lon="-1.07659">
        <ele>13.9</ele>
        <time>2020-06-16T13:33:47Z</time>
      </trkpt>
      <trkpt lat="49.3684" lon="-1.07659">
        <ele>13.9</ele>
        <time>2020-06-16T13:33:48Z</time>
      </trkpt>
      <trkpt lat="49.3684" lon="-1.07658">
        <ele>13.9</ele>
        <time>2020-06-16T13:33:49Z</time>
      </trkpt>
      <trkpt lat="49.36839" lon="-1.07671">
        <ele>13.8</ele>
        <time>2020-06-16T13:37:34Z</time>
      </trkpt>
      <trkpt lat="49.36839" lon="-1.07671">
        <ele>13.8</ele>
        <time>2020-06-16T13:37:35Z</time>
      </trkpt>
      <trkpt lat="49.3684" lon="-1.07671">
        <ele>13.8</ele>
        <time>2020-06-16T13:37:36Z</time>
      </trkpt>
      <trkpt lat="49.36839" lon="-1.0767">
        <ele>13.8</ele>
        <time>2020-06-16T13:37:37Z</time>
      </trkpt>
      <trkpt lat="49.36839" lon="-1.0767">
        <ele>13.8</ele>
        <time>2020-06-16T13:37:38Z</time>
      </trkpt>
      <trkpt lat="49.36839" lon="-1.0767">
        <ele>13.8</ele>
        <time>2020-06-16T13:37:39Z</time>
      </trkpt>
      <trkpt lat="49.36839" lon="-1.0767">
        <ele>13.8</ele>
        <time>2020-06-16T13:37:40Z</time>
      </trkpt>
      <trkpt lat="49.36839" lon="-1.07671">
        <ele>13.8</ele>
        <time>2020-06-16T13:37:41Z</time>
      </trkpt>
      <trkpt lat="49.36839" lon="-1.07671">
        <ele>13.8</ele>
        <time>2020-06-16T13:37:42Z</time>
      </trkpt>
      <trkpt lat="49.36839" lon="-1.07671">
        <ele>13.8</ele>
        <time>2020-06-16T13:37:43Z</time>
      </trkpt>
      <trkpt lat="49.36839" lon="-1.07671">
        <ele>13.8</ele>
        <time>2020-06-16T13:37:44Z</time>
      </trkpt>
      <trkpt lat="49.36839" lon="-1.07671">
        <ele>13.8</ele>
        <time>2020-06-16T13:37:45Z</time>
      </trkpt>
      <trkpt lat="49.36838" lon="-1.0767">
        <ele>13.8</ele>
        <time>2020-06-16T13:37:46Z</time>
      </trkpt>
      <trkpt lat="49.36838" lon="-1.07671">
        <ele>13.8</ele>
        <time>2020-06-16T13:37:47Z</time>
      </trkpt>
      <trkpt lat="49.36838" lon="-1.0767">
        <ele>13.8</ele>
        <time>2020-06-16T13:37:48Z</time>
      </trkpt>
      <trkpt lat="49.36839" lon="-1.07669">
        <ele>13.8</ele>
        <time>2020-06-16T13:37:49Z</time>
      </trkpt>
      <trkpt lat="49.36839" lon="-1.07668">
        <ele>13.8</ele>
        <time>2020-06-16T13:37:50Z</time>
      </trkpt>
      <trkpt lat="49.3684" lon="-1.07667">
        <ele>13.8</ele>
        <time>2020-06-16T13:37:51Z</time>
      </trkpt>
      <trkpt lat="49.36841" lon="-1.07666">
        <ele>13.9</ele>
        <time>2020-06-16T13:37:52Z</time>
      </trkpt>
      <trkpt lat="49.36841" lon="-1.07666">
        <ele>13.9</ele>
        <time>2020-06-16T13:37:53Z</time>
      </trkpt>
      <trkpt lat="49.36842" lon="-1.07665">
        <ele>13.9</ele>
        <time>2020-06-16T13:37:54Z</time>
      </trkpt>
      <trkpt lat="49.36842" lon="-1.07665">
        <ele>13.9</ele>
        <time>2020-06-16T13:37:55Z</time>
      </trkpt>
      <trkpt lat="49.36842" lon="-1.07665">
        <ele>13.9</ele>
        <time>2020-06-16T13:37:56Z</time>
      </trkpt>
      <trkpt lat="49.36842" lon="-1.07665">
        <ele>13.9</ele>
        <time>2020-06-16T13:37:57Z</time>
      </trkpt>
      <trkpt lat="49.36842" lon="-1.07665">
        <ele>13.9</ele>
        <time>2020-06-16T13:37:58Z</time>
      </trkpt>
      <trkpt lat="49.36842" lon="-1.07665">
        <ele>13.9</ele>
        <time>2020-06-16T13:37:59Z</time>
      </trkpt>
      <trkpt lat="49.36842" lon="-1.07665">
        <ele>13.9</ele>
        <time>2020-06-16T13:38:00Z</time>
      </trkpt>
      <trkpt lat="49.36842" lon="-1.07664">
        <ele>13.9</ele>
        <time>2020-06-16T13:38:01Z</time>
      </trkpt>
      <trkpt lat="49.36842" lon="-1.07664">
        <ele>13.9</ele>
        <time>2020-06-16T13:38:02Z</time>
      </trkpt>
      <trkpt lat="49.36842" lon="-1.07664">
        <ele>13.9</ele>
        <time>2020-06-16T13:38:03Z</time>
      </trkpt>
      <trkpt lat="49.36843" lon="-1.07664">
        <ele>13.9</ele>
        <time>2020-06-16T13:38:04Z</time>
      </trkpt>
      <trkpt lat="49.36844" lon="-1.07663">
        <ele>13.9</ele>
        <time>2020-06-16T13:38:05Z</time>
      </trkpt>
      <trkpt lat="49.36844" lon="-1.07663">
        <ele>13.9</ele>
        <time>2020-06-16T13:38:06Z</time>
      </trkpt>
      <trkpt lat="49.36843" lon="-1.07663">
        <ele>13.9</ele>
        <time>2020-06-16T13:38:07Z</time>
      </trkpt>
      <trkpt lat="49.36843" lon="-1.07663">
        <ele>13.9</ele>
        <time>2020-06-16T13:38:08Z</time>
      </trkpt>
      <trkpt lat="49.36843" lon="-1.07663">
        <ele>13.9</ele>
        <time>2020-06-16T13:38:09Z</time>
      </trkpt>
      <trkpt lat="49.36843" lon="-1.07664">
        <ele>13.9</ele>
        <time>2020-06-16T13:38:10Z</time>
      </trkpt>
      <trkpt lat="49.36844" lon="-1.07664">
        <ele>13.9</ele>
        <time>2020-06-16T13:38:11Z</time>
      </trkpt>
      <trkpt lat="49.36845" lon="-1.07666">
        <ele>13.8</ele>
        <time>2020-06-16T13:38:12Z</time>
      </trkpt>
      <trkpt lat="49.36846" lon="-1.07668">
        <ele>13.8</ele>
        <time>2020-06-16T13:38:13Z</time>
      </trkpt>
      <trkpt lat="49.36847" lon="-1.07669">
        <ele>13.8</ele>
        <time>2020-06-16T13:38:14Z</time>
      </trkpt>
      <trkpt lat="49.36847" lon="-1.07669">
        <ele>13.8</ele>
        <time>2020-06-16T13:38:15Z</time>
      </trkpt>
      <trkpt lat="49.36848" lon="-1.0767">
        <ele>13.8</ele>
        <time>2020-06-16T13:38:16Z</time>
      </trkpt>
      <trkpt lat="49.36848" lon="-1.07672">
        <ele>13.8</ele>
        <time>2020-06-16T13:38:17Z</time>
      </trkpt>
      <trkpt lat="49.36849" lon="-1.07672">
        <ele>13.8</ele>
        <time>2020-06-16T13:38:18Z</time>
      </trkpt>
      <trkpt lat="49.36848" lon="-1.07672">
        <ele>13.8</ele>
        <time>2020-06-16T13:38:19Z</time>
      </trkpt>
      <trkpt lat="49.36849" lon="-1.07673">
        <ele>13.8</ele>
        <time>2020-06-16T13:38:20Z</time>
      </trkpt>
      <trkpt lat="49.36849" lon="-1.07673">
        <ele>13.8</ele>
        <time>2020-06-16T13:38:21Z</time>
      </trkpt>
      <trkpt lat="49.36849" lon="-1.07674">
        <ele>13.8</ele>
        <time>2020-06-16T13:38:22Z</time>
      </trkpt>
      <trkpt lat="49.36849" lon="-1.07674">
        <ele>13.8</ele>
        <time>2020-06-16T13:38:23Z</time>
      </trkpt>
      <trkpt lat="49.36849" lon="-1.07675">
        <ele>13.7</ele>
        <time>2020-06-16T13:38:24Z</time>
      </trkpt>
      <trkpt lat="49.36849" lon="-1.07675">
        <ele>13.7</ele>
        <time>2020-06-16T13:38:25Z</time>
      </trkpt>
      <trkpt lat="49.3685" lon="-1.07677">
        <ele>13.7</ele>
        <time>2020-06-16T13:38:26Z</time>
      </trkpt>
      <trkpt lat="49.3685" lon="-1.07678">
        <ele>13.7</ele>
        <time>2020-06-16T13:38:27Z</time>
      </trkpt>
      <trkpt lat="49.36851" lon="-1.07679">
        <ele>13.7</ele>
        <time>2020-06-16T13:38:28Z</time>
      </trkpt>
      <trkpt lat="49.36843" lon="-1.07673">
        <ele>13.8</ele>
        <time>2020-06-16T13:39:44Z</time>
      </trkpt>
      <trkpt lat="49.3684" lon="-1.07671">
        <ele>13.8</ele>
        <time>2020-06-16T13:39:45Z</time>
      </trkpt>
      <trkpt lat="49.36837" lon="-1.07671">
        <ele>13.8</ele>
        <time>2020-06-16T13:39:46Z</time>
      </trkpt>
      <trkpt lat="49.36834" lon="-1.07671">
        <ele>13.8</ele>
        <time>2020-06-16T13:39:47Z</time>
      </trkpt>
      <trkpt lat="49.3683" lon="-1.0767">
        <ele>13.8</ele>
        <time>2020-06-16T13:39:48Z</time>
      </trkpt>
      <trkpt lat="49.36827" lon="-1.0767">
        <ele>13.8</ele>
        <time>2020-06-16T13:39:49Z</time>
      </trkpt>
      <trkpt lat="49.36823" lon="-1.07669">
        <ele>13.8</ele>
        <time>2020-06-16T13:39:50Z</time>
      </trkpt>
      <trkpt lat="49.36819" lon="-1.07669">
        <ele>13.8</ele>
        <time>2020-06-16T13:39:51Z</time>
      </trkpt>
      <trkpt lat="49.36816" lon="-1.07668">
        <ele>13.8</ele>
        <time>2020-06-16T13:39:52Z</time>
      </trkpt>
      <trkpt lat="49.36813" lon="-1.07668">
        <ele>13.7</ele>
        <time>2020-06-16T13:39:53Z</time>
      </trkpt>
      <trkpt lat="49.3681" lon="-1.07669">
        <ele>13.7</ele>
        <time>2020-06-16T13:39:54Z</time>
      </trkpt>
      <trkpt lat="49.36807" lon="-1.07672">
        <ele>13.7</ele>
        <time>2020-06-16T13:39:55Z</time>
      </trkpt>
      <trkpt lat="49.36807" lon="-1.07673">
        <ele>13.7</ele>
        <time>2020-06-16T13:39:56Z</time>
      </trkpt>
      <trkpt lat="49.36806" lon="-1.07678">
        <ele>13.7</ele>
        <time>2020-06-16T13:39:57Z</time>
      </trkpt>
      <trkpt lat="49.36807" lon="-1.07683">
        <ele>13.7</ele>
        <time>2020-06-16T13:39:58Z</time>
      </trkpt>
      <trkpt lat="49.36807" lon="-1.07688">
        <ele>13.7</ele>
        <time>2020-06-16T13:39:59Z</time>
      </trkpt>
      <trkpt lat="49.36809" lon="-1.07693">
        <ele>13.7</ele>
        <time>2020-06-16T13:40:00Z</time>
      </trkpt>
      <trkpt lat="49.3681" lon="-1.07698">
        <ele>13.7</ele>
        <time>2020-06-16T13:40:01Z</time>
      </trkpt>
      <trkpt lat="49.36811" lon="-1.07702">
        <ele>13.7</ele>
        <time>2020-06-16T13:40:02Z</time>
      </trkpt>
      <trkpt lat="49.36812" lon="-1.07708">
        <ele>13.7</ele>
        <time>2020-06-16T13:40:03Z</time>
      </trkpt>
      <trkpt lat="49.36812" lon="-1.0771">
        <ele>13.7</ele>
        <time>2020-06-16T13:40:04Z</time>
      </trkpt>
      <trkpt lat="49.36813" lon="-1.07716">
        <ele>13.7</ele>
        <time>2020-06-16T13:40:05Z</time>
      </trkpt>
      <trkpt lat="49.36813" lon="-1.07718">
        <ele>13.7</ele>
        <time>2020-06-16T13:40:06Z</time>
      </trkpt>
      <trkpt lat="49.36814" lon="-1.07722">
        <ele>13.7</ele>
        <time>2020-06-16T13:40:07Z</time>
      </trkpt>
      <trkpt lat="49.36816" lon="-1.07726">
        <ele>13.6</ele>
        <time>2020-06-16T13:40:08Z</time>
      </trkpt>
      <trkpt lat="49.36819" lon="-1.07729">
        <ele>13.6</ele>
        <time>2020-06-16T13:40:09Z</time>
      </trkpt>
      <trkpt lat="49.3682" lon="-1.07729">
        <ele>13.6</ele>
        <time>2020-06-16T13:40:10Z</time>
      </trkpt>
      <trkpt lat="49.36823" lon="-1.07729">
        <ele>13.6</ele>
        <time>2020-06-16T13:40:11Z</time>
      </trkpt>
      <trkpt lat="49.36824" lon="-1.07729">
        <ele>13.6</ele>
        <time>2020-06-16T13:40:12Z</time>
      </trkpt>
      <trkpt lat="49.36827" lon="-1.0773">
        <ele>13.6</ele>
        <time>2020-06-16T13:40:13Z</time>
      </trkpt>
      <trkpt lat="49.3683" lon="-1.07731">
        <ele>13.5</ele>
        <time>2020-06-16T13:40:14Z</time>
      </trkpt>
      <trkpt lat="49.36831" lon="-1.07731">
        <ele>13.5</ele>
        <time>2020-06-16T13:40:15Z</time>
      </trkpt>
      <trkpt lat="49.36833" lon="-1.07731">
        <ele>13.5</ele>
        <time>2020-06-16T13:40:16Z</time>
      </trkpt>
      <trkpt lat="49.36834" lon="-1.07731">
        <ele>13.5</ele>
        <time>2020-06-16T13:40:17Z</time>
      </trkpt>
      <trkpt lat="49.36835" lon="-1.07732">
        <ele>13.5</ele>
        <time>2020-06-16T13:40:18Z</time>
      </trkpt>
      <trkpt lat="49.36837" lon="-1.07733">
        <ele>13.5</ele>
        <time>2020-06-16T13:40:19Z</time>
      </trkpt>
      <trkpt lat="49.36839" lon="-1.07735">
        <ele>13.5</ele>
        <time>2020-06-16T13:40:20Z</time>
      </trkpt>
      <trkpt lat="49.36843" lon="-1.07737">
        <ele>13.4</ele>
        <time>2020-06-16T13:40:21Z</time>
      </trkpt>
      <trkpt lat="49.36844" lon="-1.07738">
        <ele>13.4</ele>
        <time>2020-06-16T13:40:22Z</time>
      </trkpt>
      <trkpt lat="49.36847" lon="-1.07741">
        <ele>13.3</ele>
        <time>2020-06-16T13:40:23Z</time>
      </trkpt>
      <trkpt lat="49.3685" lon="-1.07744">
        <ele>13.2</ele>
        <time>2020-06-16T13:40:24Z</time>
      </trkpt>
      <trkpt lat="49.36852" lon="-1.07748">
        <ele>13.2</ele>
        <time>2020-06-16T13:40:25Z</time>
      </trkpt>
      <trkpt lat="49.36853" lon="-1.0775">
        <ele>13.2</ele>
        <time>2020-06-16T13:40:26Z</time>
      </trkpt>
      <trkpt lat="49.36855" lon="-1.07754">
        <ele>13.1</ele>
        <time>2020-06-16T13:40:27Z</time>
      </trkpt>
      <trkpt lat="49.36856" lon="-1.0776">
        <ele>13</ele>
        <time>2020-06-16T13:40:28Z</time>
      </trkpt>
      <trkpt lat="49.36856" lon="-1.07761">
        <ele>12.9</ele>
        <time>2020-06-16T13:40:29Z</time>
      </trkpt>
      <trkpt lat="49.36856" lon="-1.07766">
        <ele>12.8</ele>
        <time>2020-06-16T13:40:30Z</time>
      </trkpt>
      <trkpt lat="49.36856" lon="-1.07768">
        <ele>12.8</ele>
        <time>2020-06-16T13:40:31Z</time>
      </trkpt>
      <trkpt lat="49.36855" lon="-1.0777">
        <ele>12.7</ele>
        <time>2020-06-16T13:40:32Z</time>
      </trkpt>
      <trkpt lat="49.36855" lon="-1.07773">
        <ele>12.7</ele>
        <time>2020-06-16T13:40:33Z</time>
      </trkpt>
      <trkpt lat="49.36855" lon="-1.07776">
        <ele>12.7</ele>
        <time>2020-06-16T13:40:34Z</time>
      </trkpt>
      <trkpt lat="49.36855" lon="-1.07778">
        <ele>12.6</ele>
        <time>2020-06-16T13:40:35Z</time>
      </trkpt>
      <trkpt lat="49.36855" lon="-1.07781">
        <ele>12.6</ele>
        <time>2020-06-16T13:40:36Z</time>
      </trkpt>
      <trkpt lat="49.36855" lon="-1.07783">
        <ele>12.5</ele>
        <time>2020-06-16T13:40:37Z</time>
      </trkpt>
      <trkpt lat="49.36856" lon="-1.07788">
        <ele>12.4</ele>
        <time>2020-06-16T13:40:38Z</time>
      </trkpt>
      <trkpt lat="49.36856" lon="-1.07789">
        <ele>12.4</ele>
        <time>2020-06-16T13:40:39Z</time>
      </trkpt>
      <trkpt lat="49.36858" lon="-1.07793">
        <ele>12.3</ele>
        <time>2020-06-16T13:40:40Z</time>
      </trkpt>
      <trkpt lat="49.36858" lon="-1.07794">
        <ele>12.3</ele>
        <time>2020-06-16T13:40:41Z</time>
      </trkpt>
      <trkpt lat="49.3686" lon="-1.07796">
        <ele>12.3</ele>
        <time>2020-06-16T13:40:42Z</time>
      </trkpt>
      <trkpt lat="49.36861" lon="-1.07798">
        <ele>12.3</ele>
        <time>2020-06-16T13:40:43Z</time>
      </trkpt>
      <trkpt lat="49.36863" lon="-1.07803">
        <ele>12.2</ele>
        <time>2020-06-16T13:40:44Z</time>
      </trkpt>
      <trkpt lat="49.36864" lon="-1.07805">
        <ele>12.1</ele>
        <time>2020-06-16T13:40:45Z</time>
      </trkpt>
      <trkpt lat="49.36865" lon="-1.07811">
        <ele>12</ele>
        <time>2020-06-16T13:40:46Z</time>
      </trkpt>
      <trkpt lat="49.36865" lon="-1.07813">
        <ele>12</ele>
        <time>2020-06-16T13:40:47Z</time>
      </trkpt>
      <trkpt lat="49.36866" lon="-1.07819">
        <ele>12</ele>
        <time>2020-06-16T13:40:48Z</time>
      </trkpt>
      <trkpt lat="49.36866" lon="-1.07823">
        <ele>11.9</ele>
        <time>2020-06-16T13:40:49Z</time>
      </trkpt>
      <trkpt lat="49.36867" lon="-1.07828">
        <ele>11.9</ele>
        <time>2020-06-16T13:40:50Z</time>
      </trkpt>
      <trkpt lat="49.36867" lon="-1.07833">
        <ele>11.9</ele>
        <time>2020-06-16T13:40:51Z</time>
      </trkpt>
      <trkpt lat="49.36867" lon="-1.07838">
        <ele>11.9</ele>
        <time>2020-06-16T13:40:52Z</time>
      </trkpt>
      <trkpt lat="49.36867" lon="-1.07842">
        <ele>11.9</ele>
        <time>2020-06-16T13:40:53Z</time>
      </trkpt>
      <trkpt lat="49.36867" lon="-1.07846">
        <ele>11.8</ele>
        <time>2020-06-16T13:40:54Z</time>
      </trkpt>
      <trkpt lat="49.36868" lon="-1.0785">
        <ele>11.8</ele>
        <time>2020-06-16T13:40:55Z</time>
      </trkpt>
      <trkpt lat="49.36868" lon="-1.07855">
        <ele>11.8</ele>
        <time>2020-06-16T13:40:56Z</time>
      </trkpt>
      <trkpt lat="49.36868" lon="-1.0786">
        <ele>11.8</ele>
        <time>2020-06-16T13:40:57Z</time>
      </trkpt>
      <trkpt lat="49.36869" lon="-1.07865">
        <ele>11.8</ele>
        <time>2020-06-16T13:40:58Z</time>
      </trkpt>
      <trkpt lat="49.36869" lon="-1.0787">
        <ele>11.7</ele>
        <time>2020-06-16T13:40:59Z</time>
      </trkpt>
      <trkpt lat="49.36869" lon="-1.07875">
        <ele>11.7</ele>
        <time>2020-06-16T13:41:00Z</time>
      </trkpt>
      <trkpt lat="49.3687" lon="-1.07879">
        <ele>11.7</ele>
        <time>2020-06-16T13:41:01Z</time>
      </trkpt>
      <trkpt lat="49.3687" lon="-1.07884">
        <ele>11.7</ele>
        <time>2020-06-16T13:41:02Z</time>
      </trkpt>
      <trkpt lat="49.3687" lon="-1.07889">
        <ele>11.7</ele>
        <time>2020-06-16T13:41:03Z</time>
      </trkpt>
      <trkpt lat="49.36871" lon="-1.07894">
        <ele>11.6</ele>
        <time>2020-06-16T13:41:04Z</time>
      </trkpt>
      <trkpt lat="49.36871" lon="-1.07898">
        <ele>11.6</ele>
        <time>2020-06-16T13:41:05Z</time>
      </trkpt>
      <trkpt lat="49.36871" lon="-1.07903">
        <ele>11.6</ele>
        <time>2020-06-16T13:41:06Z</time>
      </trkpt>
      <trkpt lat="49.36872" lon="-1.07908">
        <ele>11.6</ele>
        <time>2020-06-16T13:41:07Z</time>
      </trkpt>
      <trkpt lat="49.36872" lon="-1.07913">
        <ele>11.6</ele>
        <time>2020-06-16T13:41:08Z</time>
      </trkpt>
      <trkpt lat="49.36872" lon="-1.07918">
        <ele>11.5</ele>
        <time>2020-06-16T13:41:09Z</time>
      </trkpt>
      <trkpt lat="49.36873" lon="-1.07923">
        <ele>11.5</ele>
        <time>2020-06-16T13:41:10Z</time>
      </trkpt>
      <trkpt lat="49.36873" lon="-1.07928">
        <ele>11.5</ele>
        <time>2020-06-16T13:41:11Z</time>
      </trkpt>
      <trkpt lat="49.36874" lon="-1.07932">
        <ele>11.5</ele>
        <time>2020-06-16T13:41:12Z</time>
      </trkpt>
      <trkpt lat="49.36874" lon="-1.07937">
        <ele>11.5</ele>
        <time>2020-06-16T13:41:13Z</time>
      </trkpt>
      <trkpt lat="49.36874" lon="-1.07943">
        <ele>11.4</ele>
        <time>2020-06-16T13:41:14Z</time>
      </trkpt>
      <trkpt lat="49.36874" lon="-1.07948">
        <ele>11.4</ele>
        <time>2020-06-16T13:41:15Z</time>
      </trkpt>
      <trkpt lat="49.36874" lon="-1.07953">
        <ele>11.4</ele>
        <time>2020-06-16T13:41:16Z</time>
      </trkpt>
      <trkpt lat="49.36874" lon="-1.07957">
        <ele>11.4</ele>
        <time>2020-06-16T13:41:17Z</time>
      </trkpt>
      <trkpt lat="49.36874" lon="-1.07962">
        <ele>11.3</ele>
        <time>2020-06-16T13:41:18Z</time>
      </trkpt>
      <trkpt lat="49.36874" lon="-1.07968">
        <ele>11.3</ele>
        <time>2020-06-16T13:41:19Z</time>
      </trkpt>
      <trkpt lat="49.36874" lon="-1.07972">
        <ele>11.3</ele>
        <time>2020-06-16T13:41:20Z</time>
      </trkpt>
      <trkpt lat="49.36874" lon="-1.07978">
        <ele>11.3</ele>
        <time>2020-06-16T13:41:21Z</time>
      </trkpt>
      <trkpt lat="49.36873" lon="-1.07984">
        <ele>11.2</ele>
        <time>2020-06-16T13:41:22Z</time>
      </trkpt>
      <trkpt lat="49.36873" lon="-1.07989">
        <ele>11.2</ele>
        <time>2020-06-16T13:41:23Z</time>
      </trkpt>
      <trkpt lat="49.36873" lon="-1.07994">
        <ele>11.2</ele>
        <time>2020-06-16T13:41:24Z</time>
      </trkpt>
      <trkpt lat="49.36873" lon="-1.07999">
        <ele>11.2</ele>
        <time>2020-06-16T13:41:25Z</time>
      </trkpt>
      <trkpt lat="49.36872" lon="-1.08004">
        <ele>11.2</ele>
        <time>2020-06-16T13:41:26Z</time>
      </trkpt>
      <trkpt lat="49.36872" lon="-1.08006">
        <ele>11.2</ele>
        <time>2020-06-16T13:41:27Z</time>
      </trkpt>
      <trkpt lat="49.36872" lon="-1.08009">
        <ele>11.1</ele>
        <time>2020-06-16T13:41:28Z</time>
      </trkpt>
      <trkpt lat="49.36872" lon="-1.08011">
        <ele>11.1</ele>
        <time>2020-06-16T13:41:29Z</time>
      </trkpt>
      <trkpt lat="49.36872" lon="-1.08014">
        <ele>11.1</ele>
        <time>2020-06-16T13:41:30Z</time>
      </trkpt>
      <trkpt lat="49.36872" lon="-1.08016">
        <ele>11.1</ele>
        <time>2020-06-16T13:41:31Z</time>
      </trkpt>
      <trkpt lat="49.36871" lon="-1.08017">
        <ele>11.1</ele>
        <time>2020-06-16T13:41:32Z</time>
      </trkpt>
      <trkpt lat="49.36871" lon="-1.08017">
        <ele>11.1</ele>
        <time>2020-06-16T13:41:33Z</time>
      </trkpt>
      <trkpt lat="49.36871" lon="-1.08017">
        <ele>11.1</ele>
        <time>2020-06-16T13:41:34Z</time>
      </trkpt>
      <trkpt lat="49.36871" lon="-1.08017">
        <ele>11.1</ele>
        <time>2020-06-16T13:41:35Z</time>
      </trkpt>
      <trkpt lat="49.3687" lon="-1.08018">
        <ele>11.1</ele>
        <time>2020-06-16T13:41:36Z</time>
      </trkpt>
      <trkpt lat="49.36871" lon="-1.08018">
        <ele>11.1</ele>
        <time>2020-06-16T13:41:37Z</time>
      </trkpt>
      <trkpt lat="49.36871" lon="-1.08018">
        <ele>11.1</ele>
        <time>2020-06-16T13:41:38Z</time>
      </trkpt>
      <trkpt lat="49.3687" lon="-1.08018">
        <ele>11.1</ele>
        <time>2020-06-16T13:41:39Z</time>
      </trkpt>
      <trkpt lat="49.3687" lon="-1.08018">
        <ele>11.1</ele>
        <time>2020-06-16T13:41:40Z</time>
      </trkpt>
      <trkpt lat="49.36869" lon="-1.08018">
        <ele>11.1</ele>
        <time>2020-06-16T13:41:41Z</time>
      </trkpt>
      <trkpt lat="49.36869" lon="-1.08019">
        <ele>11.1</ele>
        <time>2020-06-16T13:41:42Z</time>
      </trkpt>
      <trkpt lat="49.36874" lon="-1.08037">
        <ele>11</ele>
        <time>2020-06-16T13:42:08Z</time>
      </trkpt>
      <trkpt lat="49.36874" lon="-1.08037">
        <ele>11</ele>
        <time>2020-06-16T13:42:09Z</time>
      </trkpt>
      <trkpt lat="49.36875" lon="-1.08039">
        <ele>11</ele>
        <time>2020-06-16T13:42:10Z</time>
      </trkpt>
      <trkpt lat="49.36877" lon="-1.08041">
        <ele>11.1</ele>
        <time>2020-06-16T13:42:11Z</time>
      </trkpt>
      <trkpt lat="49.36878" lon="-1.08042">
        <ele>11.1</ele>
        <time>2020-06-16T13:42:12Z</time>
      </trkpt>
      <trkpt lat="49.36882" lon="-1.08042">
        <ele>11.2</ele>
        <time>2020-06-16T13:42:13Z</time>
      </trkpt>
      <trkpt lat="49.36884" lon="-1.08041">
        <ele>11.2</ele>
        <time>2020-06-16T13:42:14Z</time>
      </trkpt>
      <trkpt lat="49.36887" lon="-1.08039">
        <ele>11.2</ele>
        <time>2020-06-16T13:42:15Z</time>
      </trkpt>
      <trkpt lat="49.3689" lon="-1.08037">
        <ele>11.3</ele>
        <time>2020-06-16T13:42:16Z</time>
      </trkpt>
      <trkpt lat="49.36894" lon="-1.08038">
        <ele>11.3</ele>
        <time>2020-06-16T13:42:17Z</time>
      </trkpt>
      <trkpt lat="49.36898" lon="-1.08038">
        <ele>11.3</ele>
        <time>2020-06-16T13:42:18Z</time>
      </trkpt>
      <trkpt lat="49.36902" lon="-1.0804">
        <ele>11.3</ele>
        <time>2020-06-16T13:42:19Z</time>
      </trkpt>
      <trkpt lat="49.36907" lon="-1.08039">
        <ele>11.3</ele>
        <time>2020-06-16T13:42:20Z</time>
      </trkpt>
      <trkpt lat="49.36912" lon="-1.0804">
        <ele>11.2</ele>
        <time>2020-06-16T13:42:21Z</time>
      </trkpt>
      <trkpt lat="49.36916" lon="-1.08041">
        <ele>11.2</ele>
        <time>2020-06-16T13:42:22Z</time>
      </trkpt>
      <trkpt lat="49.36921" lon="-1.08042">
        <ele>11.2</ele>
        <time>2020-06-16T13:42:23Z</time>
      </trkpt>
      <trkpt lat="49.36925" lon="-1.08043">
        <ele>11.2</ele>
        <time>2020-06-16T13:42:24Z</time>
      </trkpt>
      <trkpt lat="49.3693" lon="-1.08043">
        <ele>11.1</ele>
        <time>2020-06-16T13:42:25Z</time>
      </trkpt>
      <trkpt lat="49.36933" lon="-1.08044">
        <ele>11.1</ele>
        <time>2020-06-16T13:42:26Z</time>
      </trkpt>
      <trkpt lat="49.36938" lon="-1.08045">
        <ele>11.1</ele>
        <time>2020-06-16T13:42:27Z</time>
      </trkpt>
      <trkpt lat="49.36942" lon="-1.08046">
        <ele>11.1</ele>
        <time>2020-06-16T13:42:28Z</time>
      </trkpt>
      <trkpt lat="49.36945" lon="-1.08047">
        <ele>11.1</ele>
        <time>2020-06-16T13:42:29Z</time>
      </trkpt>
      <trkpt lat="49.36949" lon="-1.08047">
        <ele>11.1</ele>
        <time>2020-06-16T13:42:30Z</time>
      </trkpt>
      <trkpt lat="49.36953" lon="-1.08047">
        <ele>11.1</ele>
        <time>2020-06-16T13:42:31Z</time>
      </trkpt>
      <trkpt lat="49.36958" lon="-1.08046">
        <ele>11</ele>
        <time>2020-06-16T13:42:32Z</time>
      </trkpt>
      <trkpt lat="49.36963" lon="-1.08046">
        <ele>11</ele>
        <time>2020-06-16T13:42:33Z</time>
      </trkpt>
      <trkpt lat="49.36968" lon="-1.08046">
        <ele>11</ele>
        <time>2020-06-16T13:42:34Z</time>
      </trkpt>
      <trkpt lat="49.36974" lon="-1.08045">
        <ele>10.9</ele>
        <time>2020-06-16T13:42:35Z</time>
      </trkpt>
      <trkpt lat="49.36979" lon="-1.08043">
        <ele>10.9</ele>
        <time>2020-06-16T13:42:36Z</time>
      </trkpt>
      <trkpt lat="49.36985" lon="-1.08043">
        <ele>10.8</ele>
        <time>2020-06-16T13:42:37Z</time>
      </trkpt>
      <trkpt lat="49.36991" lon="-1.08042">
        <ele>10.7</ele>
        <time>2020-06-16T13:42:38Z</time>
      </trkpt>
      <trkpt lat="49.36996" lon="-1.08041">
        <ele>10.7</ele>
        <time>2020-06-16T13:42:39Z</time>
      </trkpt>
      <trkpt lat="49.37002" lon="-1.08039">
        <ele>10.6</ele>
        <time>2020-06-16T13:42:40Z</time>
      </trkpt>
      <trkpt lat="49.37008" lon="-1.08038">
        <ele>10.5</ele>
        <time>2020-06-16T13:42:41Z</time>
      </trkpt>
      <trkpt lat="49.37014" lon="-1.08038">
        <ele>10.4</ele>
        <time>2020-06-16T13:42:42Z</time>
      </trkpt>
      <trkpt lat="49.37019" lon="-1.08037">
        <ele>10.3</ele>
        <time>2020-06-16T13:42:43Z</time>
      </trkpt>
      <trkpt lat="49.37025" lon="-1.08036">
        <ele>10.2</ele>
        <time>2020-06-16T13:42:44Z</time>
      </trkpt>
      <trkpt lat="49.37031" lon="-1.08035">
        <ele>10.1</ele>
        <time>2020-06-16T13:42:45Z</time>
      </trkpt>
      <trkpt lat="49.37037" lon="-1.08035">
        <ele>10</ele>
        <time>2020-06-16T13:42:46Z</time>
      </trkpt>
      <trkpt lat="49.37044" lon="-1.08033">
        <ele>10</ele>
        <time>2020-06-16T13:42:47Z</time>
      </trkpt>
      <trkpt lat="49.3705" lon="-1.08033">
        <ele>9.9</ele>
        <time>2020-06-16T13:42:48Z</time>
      </trkpt>
      <trkpt lat="49.37057" lon="-1.08034">
        <ele>9.9</ele>
        <time>2020-06-16T13:42:49Z</time>
      </trkpt>
      <trkpt lat="49.37063" lon="-1.08034">
        <ele>9.9</ele>
        <time>2020-06-16T13:42:50Z</time>
      </trkpt>
      <trkpt lat="49.3707" lon="-1.08035">
        <ele>9.9</ele>
        <time>2020-06-16T13:42:51Z</time>
      </trkpt>
      <trkpt lat="49.37076" lon="-1.08036">
        <ele>9.9</ele>
        <time>2020-06-16T13:42:52Z</time>
      </trkpt>
      <trkpt lat="49.37083" lon="-1.08036">
        <ele>9.9</ele>
        <time>2020-06-16T13:42:53Z</time>
      </trkpt>
      <trkpt lat="49.37089" lon="-1.08037">
        <ele>9.8</ele>
        <time>2020-06-16T13:42:54Z</time>
      </trkpt>
      <trkpt lat="49.37095" lon="-1.08037">
        <ele>9.8</ele>
        <time>2020-06-16T13:42:55Z</time>
      </trkpt>
      <trkpt lat="49.37101" lon="-1.08037">
        <ele>9.7</ele>
        <time>2020-06-16T13:42:56Z</time>
      </trkpt>
      <trkpt lat="49.37107" lon="-1.08036">
        <ele>9.7</ele>
        <time>2020-06-16T13:42:57Z</time>
      </trkpt>
      <trkpt lat="49.37115" lon="-1.08036">
        <ele>9.6</ele>
        <time>2020-06-16T13:42:58Z</time>
      </trkpt>
      <trkpt lat="49.37121" lon="-1.08037">
        <ele>9.5</ele>
        <time>2020-06-16T13:42:59Z</time>
      </trkpt>
      <trkpt lat="49.37127" lon="-1.08038">
        <ele>9.4</ele>
        <time>2020-06-16T13:43:00Z</time>
      </trkpt>
      <trkpt lat="49.37133" lon="-1.08038">
        <ele>9.4</ele>
        <time>2020-06-16T13:43:01Z</time>
      </trkpt>
      <trkpt lat="49.3714" lon="-1.08039">
        <ele>9.3</ele>
        <time>2020-06-16T13:43:02Z</time>
      </trkpt>
      <trkpt lat="49.37147" lon="-1.08038">
        <ele>9.3</ele>
        <time>2020-06-16T13:43:03Z</time>
      </trkpt>
      <trkpt lat="49.37153" lon="-1.08038">
        <ele>9.2</ele>
        <time>2020-06-16T13:43:04Z</time>
      </trkpt>
      <trkpt lat="49.37159" lon="-1.08037">
        <ele>9.1</ele>
        <time>2020-06-16T13:43:05Z</time>
      </trkpt>
      <trkpt lat="49.37166" lon="-1.08037">
        <ele>9.1</ele>
        <time>2020-06-16T13:43:06Z</time>
      </trkpt>
      <trkpt lat="49.37172" lon="-1.08038">
        <ele>9.1</ele>
        <time>2020-06-16T13:43:07Z</time>
      </trkpt>
      <trkpt lat="49.37178" lon="-1.08038">
        <ele>9</ele>
        <time>2020-06-16T13:43:08Z</time>
      </trkpt>
      <trkpt lat="49.37184" lon="-1.08039">
        <ele>9</ele>
        <time>2020-06-16T13:43:09Z</time>
      </trkpt>
      <trkpt lat="49.3719" lon="-1.08042">
        <ele>9.1</ele>
        <time>2020-06-16T13:43:10Z</time>
      </trkpt>
      <trkpt lat="49.37194" lon="-1.08045">
        <ele>9.1</ele>
        <time>2020-06-16T13:43:11Z</time>
      </trkpt>
      <trkpt lat="49.37197" lon="-1.08051">
        <ele>9.1</ele>
        <time>2020-06-16T13:43:12Z</time>
      </trkpt>
      <trkpt lat="49.37199" lon="-1.08058">
        <ele>9.1</ele>
        <time>2020-06-16T13:43:13Z</time>
      </trkpt>
      <trkpt lat="49.372" lon="-1.08064">
        <ele>9</ele>
        <time>2020-06-16T13:43:14Z</time>
      </trkpt>
      <trkpt lat="49.37201" lon="-1.08073">
        <ele>8.9</ele>
        <time>2020-06-16T13:43:15Z</time>
      </trkpt>
      <trkpt lat="49.37203" lon="-1.08081">
        <ele>8.8</ele>
        <time>2020-06-16T13:43:16Z</time>
      </trkpt>
      <trkpt lat="49.37206" lon="-1.08087">
        <ele>8.7</ele>
        <time>2020-06-16T13:43:17Z</time>
      </trkpt>
      <trkpt lat="49.3721" lon="-1.08093">
        <ele>8.7</ele>
        <time>2020-06-16T13:43:18Z</time>
      </trkpt>
      <trkpt lat="49.37215" lon="-1.08096">
        <ele>8.5</ele>
        <time>2020-06-16T13:43:19Z</time>
      </trkpt>
      <trkpt lat="49.3722" lon="-1.08099">
        <ele>8.4</ele>
        <time>2020-06-16T13:43:20Z</time>
      </trkpt>
      <trkpt lat="49.37224" lon="-1.08101">
        <ele>8.3</ele>
        <time>2020-06-16T13:43:21Z</time>
      </trkpt>
      <trkpt lat="49.37229" lon="-1.08103">
        <ele>8.1</ele>
        <time>2020-06-16T13:43:22Z</time>
      </trkpt>
      <trkpt lat="49.37235" lon="-1.08104">
        <ele>8</ele>
        <time>2020-06-16T13:43:23Z</time>
      </trkpt>
      <trkpt lat="49.37241" lon="-1.08105">
        <ele>7.8</ele>
        <time>2020-06-16T13:43:24Z</time>
      </trkpt>
      <trkpt lat="49.37246" lon="-1.08107">
        <ele>7.7</ele>
        <time>2020-06-16T13:43:25Z</time>
      </trkpt>
      <trkpt lat="49.37252" lon="-1.08108">
        <ele>7.6</ele>
        <time>2020-06-16T13:43:26Z</time>
      </trkpt>
      <trkpt lat="49.37258" lon="-1.08108">
        <ele>7.4</ele>
        <time>2020-06-16T13:43:27Z</time>
      </trkpt>
      <trkpt lat="49.37264" lon="-1.08108">
        <ele>7.3</ele>
        <time>2020-06-16T13:43:28Z</time>
      </trkpt>
      <trkpt lat="49.37271" lon="-1.08109">
        <ele>7.1</ele>
        <time>2020-06-16T13:43:29Z</time>
      </trkpt>
      <trkpt lat="49.37278" lon="-1.08109">
        <ele>7</ele>
        <time>2020-06-16T13:43:30Z</time>
      </trkpt>
      <trkpt lat="49.37284" lon="-1.0811">
        <ele>6.9</ele>
        <time>2020-06-16T13:43:31Z</time>
      </trkpt>
      <trkpt lat="49.37288" lon="-1.08111">
        <ele>6.9</ele>
        <time>2020-06-16T13:43:32Z</time>
      </trkpt>
      <trkpt lat="49.37293" lon="-1.08111">
        <ele>6.7</ele>
        <time>2020-06-16T13:43:33Z</time>
      </trkpt>
      <trkpt lat="49.373" lon="-1.08111">
        <ele>6.5</ele>
        <time>2020-06-16T13:43:34Z</time>
      </trkpt>
      <trkpt lat="49.37307" lon="-1.0811">
        <ele>6.3</ele>
        <time>2020-06-16T13:43:35Z</time>
      </trkpt>
      <trkpt lat="49.37313" lon="-1.08109">
        <ele>6.2</ele>
        <time>2020-06-16T13:43:36Z</time>
      </trkpt>
      <trkpt lat="49.37319" lon="-1.0811">
        <ele>6.1</ele>
        <time>2020-06-16T13:43:37Z</time>
      </trkpt>
      <trkpt lat="49.37325" lon="-1.0811">
        <ele>6</ele>
        <time>2020-06-16T13:43:38Z</time>
      </trkpt>
      <trkpt lat="49.37331" lon="-1.08111">
        <ele>5.9</ele>
        <time>2020-06-16T13:43:39Z</time>
      </trkpt>
      <trkpt lat="49.37339" lon="-1.08111">
        <ele>5.8</ele>
        <time>2020-06-16T13:43:40Z</time>
      </trkpt>
      <trkpt lat="49.37346" lon="-1.08112">
        <ele>5.7</ele>
        <time>2020-06-16T13:43:41Z</time>
      </trkpt>
      <trkpt lat="49.37353" lon="-1.08112">
        <ele>5.6</ele>
        <time>2020-06-16T13:43:42Z</time>
      </trkpt>
      <trkpt lat="49.3736" lon="-1.08113">
        <ele>5.4</ele>
        <time>2020-06-16T13:43:43Z</time>
      </trkpt>
      <trkpt lat="49.37367" lon="-1.08114">
        <ele>5.2</ele>
        <time>2020-06-16T13:43:44Z</time>
      </trkpt>
      <trkpt lat="49.37374" lon="-1.08115">
        <ele>5.1</ele>
        <time>2020-06-16T13:43:45Z</time>
      </trkpt>
      <trkpt lat="49.37382" lon="-1.08116">
        <ele>5</ele>
        <time>2020-06-16T13:43:46Z</time>
      </trkpt>
      <trkpt lat="49.37388" lon="-1.08118">
        <ele>4.9</ele>
        <time>2020-06-16T13:43:47Z</time>
      </trkpt>
      <trkpt lat="49.37395" lon="-1.08122">
        <ele>4.8</ele>
        <time>2020-06-16T13:43:48Z</time>
      </trkpt>
      <trkpt lat="49.37401" lon="-1.08126">
        <ele>4.7</ele>
        <time>2020-06-16T13:43:49Z</time>
      </trkpt>
      <trkpt lat="49.37408" lon="-1.08131">
        <ele>4.6</ele>
        <time>2020-06-16T13:43:50Z</time>
      </trkpt>
      <trkpt lat="49.37415" lon="-1.08136">
        <ele>4.4</ele>
        <time>2020-06-16T13:43:51Z</time>
      </trkpt>
      <trkpt lat="49.37421" lon="-1.08141">
        <ele>4.2</ele>
        <time>2020-06-16T13:43:52Z</time>
      </trkpt>
      <trkpt lat="49.37427" lon="-1.08146">
        <ele>4.1</ele>
        <time>2020-06-16T13:43:53Z</time>
      </trkpt>
      <trkpt lat="49.37433" lon="-1.08152">
        <ele>4</ele>
        <time>2020-06-16T13:43:54Z</time>
      </trkpt>
      <trkpt lat="49.37439" lon="-1.08156">
        <ele>3.9</ele>
        <time>2020-06-16T13:43:55Z</time>
      </trkpt>
      <trkpt lat="49.37445" lon="-1.08161">
        <ele>3.8</ele>
        <time>2020-06-16T13:43:56Z</time>
      </trkpt>
      <trkpt lat="49.37451" lon="-1.08167">
        <ele>3.8</ele>
        <time>2020-06-16T13:43:57Z</time>
      </trkpt>
      <trkpt lat="49.37457" lon="-1.08171">
        <ele>3.7</ele>
        <time>2020-06-16T13:43:58Z</time>
      </trkpt>
      <trkpt lat="49.37463" lon="-1.08175">
        <ele>3.7</ele>
        <time>2020-06-16T13:43:59Z</time>
      </trkpt>
      <trkpt lat="49.3747" lon="-1.08179">
        <ele>3.7</ele>
        <time>2020-06-16T13:44:00Z</time>
      </trkpt>
      <trkpt lat="49.37478" lon="-1.08182">
        <ele>3.8</ele>
        <time>2020-06-16T13:44:01Z</time>
      </trkpt>
      <trkpt lat="49.37486" lon="-1.08182">
        <ele>3.8</ele>
        <time>2020-06-16T13:44:02Z</time>
      </trkpt>
      <trkpt lat="49.37493" lon="-1.08182">
        <ele>3.8</ele>
        <time>2020-06-16T13:44:03Z</time>
      </trkpt>
      <trkpt lat="49.375" lon="-1.08181">
        <ele>3.9</ele>
        <time>2020-06-16T13:44:04Z</time>
      </trkpt>
      <trkpt lat="49.37506" lon="-1.08182">
        <ele>3.9</ele>
        <time>2020-06-16T13:44:05Z</time>
      </trkpt>
      <trkpt lat="49.37513" lon="-1.08183">
        <ele>3.9</ele>
        <time>2020-06-16T13:44:06Z</time>
      </trkpt>
      <trkpt lat="49.3752" lon="-1.08183">
        <ele>3.9</ele>
        <time>2020-06-16T13:44:07Z</time>
      </trkpt>
      <trkpt lat="49.37526" lon="-1.08184">
        <ele>4</ele>
        <time>2020-06-16T13:44:08Z</time>
      </trkpt>
      <trkpt lat="49.37533" lon="-1.08185">
        <ele>4</ele>
        <time>2020-06-16T13:44:09Z</time>
      </trkpt>
      <trkpt lat="49.37539" lon="-1.08186">
        <ele>4</ele>
        <time>2020-06-16T13:44:10Z</time>
      </trkpt>
      <trkpt lat="49.37545" lon="-1.08187">
        <ele>4</ele>
        <time>2020-06-16T13:44:11Z</time>
      </trkpt>
      <trkpt lat="49.37551" lon="-1.08188">
        <ele>4</ele>
        <time>2020-06-16T13:44:12Z</time>
      </trkpt>
      <trkpt lat="49.37557" lon="-1.08188">
        <ele>4</ele>
        <time>2020-06-16T13:44:13Z</time>
      </trkpt>
      <trkpt lat="49.37563" lon="-1.08189">
        <ele>3.9</ele>
        <time>2020-06-16T13:44:14Z</time>
      </trkpt>
      <trkpt lat="49.3757" lon="-1.0819">
        <ele>3.9</ele>
        <time>2020-06-16T13:44:15Z</time>
      </trkpt>
      <trkpt lat="49.37576" lon="-1.0819">
        <ele>3.8</ele>
        <time>2020-06-16T13:44:16Z</time>
      </trkpt>
      <trkpt lat="49.37583" lon="-1.0819">
        <ele>3.8</ele>
        <time>2020-06-16T13:44:17Z</time>
      </trkpt>
      <trkpt lat="49.3759" lon="-1.08189">
        <ele>3.8</ele>
        <time>2020-06-16T13:44:18Z</time>
      </trkpt>
      <trkpt lat="49.37597" lon="-1.0819">
        <ele>3.9</ele>
        <time>2020-06-16T13:44:19Z</time>
      </trkpt>
      <trkpt lat="49.37603" lon="-1.08191">
        <ele>3.9</ele>
        <time>2020-06-16T13:44:20Z</time>
      </trkpt>
      <trkpt lat="49.3761" lon="-1.08192">
        <ele>4</ele>
        <time>2020-06-16T13:44:21Z</time>
      </trkpt>
      <trkpt lat="49.37617" lon="-1.08193">
        <ele>4.1</ele>
        <time>2020-06-16T13:44:22Z</time>
      </trkpt>
      <trkpt lat="49.37624" lon="-1.08195">
        <ele>4.2</ele>
        <time>2020-06-16T13:44:23Z</time>
      </trkpt>
      <trkpt lat="49.37632" lon="-1.08198">
        <ele>4.3</ele>
        <time>2020-06-16T13:44:24Z</time>
      </trkpt>
      <trkpt lat="49.37638" lon="-1.082">
        <ele>4.3</ele>
        <time>2020-06-16T13:44:25Z</time>
      </trkpt>
      <trkpt lat="49.37644" lon="-1.08203">
        <ele>4.3</ele>
        <time>2020-06-16T13:44:26Z</time>
      </trkpt>
      <trkpt lat="49.37651" lon="-1.08205">
        <ele>4.3</ele>
        <time>2020-06-16T13:44:27Z</time>
      </trkpt>
      <trkpt lat="49.37658" lon="-1.08208">
        <ele>4.3</ele>
        <time>2020-06-16T13:44:28Z</time>
      </trkpt>
      <trkpt lat="49.37664" lon="-1.08211">
        <ele>4.4</ele>
        <time>2020-06-16T13:44:29Z</time>
      </trkpt>
      <trkpt lat="49.3767" lon="-1.08216">
        <ele>4.5</ele>
        <time>2020-06-16T13:44:30Z</time>
      </trkpt>
      <trkpt lat="49.37675" lon="-1.08222">
        <ele>4.5</ele>
        <time>2020-06-16T13:44:31Z</time>
      </trkpt>
      <trkpt lat="49.37679" lon="-1.08227">
        <ele>4.5</ele>
        <time>2020-06-16T13:44:32Z</time>
      </trkpt>
      <trkpt lat="49.37684" lon="-1.08232">
        <ele>4.5</ele>
        <time>2020-06-16T13:44:33Z</time>
      </trkpt>
      <trkpt lat="49.37689" lon="-1.08239">
        <ele>4.5</ele>
        <time>2020-06-16T13:44:34Z</time>
      </trkpt>
      <trkpt lat="49.37693" lon="-1.08246">
        <ele>4.6</ele>
        <time>2020-06-16T13:44:35Z</time>
      </trkpt>
      <trkpt lat="49.37697" lon="-1.08255">
        <ele>4.7</ele>
        <time>2020-06-16T13:44:36Z</time>
      </trkpt>
      <trkpt lat="49.37702" lon="-1.08262">
        <ele>4.7</ele>
        <time>2020-06-16T13:44:37Z</time>
      </trkpt>
      <trkpt lat="49.37706" lon="-1.0827">
        <ele>4.7</ele>
        <time>2020-06-16T13:44:38Z</time>
      </trkpt>
      <trkpt lat="49.3771" lon="-1.08278">
        <ele>4.7</ele>
        <time>2020-06-16T13:44:39Z</time>
      </trkpt>
      <trkpt lat="49.37715" lon="-1.08286">
        <ele>4.6</ele>
        <time>2020-06-16T13:44:40Z</time>
      </trkpt>
      <trkpt lat="49.37719" lon="-1.08293">
        <ele>4.2</ele>
        <time>2020-06-16T13:44:41Z</time>
      </trkpt>
      <trkpt lat="49.37724" lon="-1.08301">
        <ele>3.4</ele>
        <time>2020-06-16T13:44:42Z</time>
      </trkpt>
      <trkpt lat="49.37728" lon="-1.08308">
        <ele>2.4</ele>
        <time>2020-06-16T13:44:43Z</time>
      </trkpt>
      <trkpt lat="49.37733" lon="-1.08316">
        <ele>2.1</ele>
        <time>2020-06-16T13:44:44Z</time>
      </trkpt>
      <trkpt lat="49.37737" lon="-1.08324">
        <ele>2</ele>
        <time>2020-06-16T13:44:45Z</time>
      </trkpt>
      <trkpt lat="49.37741" lon="-1.08332">
        <ele>1.9</ele>
        <time>2020-06-16T13:44:46Z</time>
      </trkpt>
      <trkpt lat="49.37745" lon="-1.08339">
        <ele>1.8</ele>
        <time>2020-06-16T13:44:47Z</time>
      </trkpt>
      <trkpt lat="49.37749" lon="-1.08346">
        <ele>1.7</ele>
        <time>2020-06-16T13:44:48Z</time>
      </trkpt>
      <trkpt lat="49.37753" lon="-1.08353">
        <ele>1.7</ele>
        <time>2020-06-16T13:44:49Z</time>
      </trkpt>
      <trkpt lat="49.37757" lon="-1.0836">
        <ele>1.6</ele>
        <time>2020-06-16T13:44:50Z</time>
      </trkpt>
      <trkpt lat="49.37761" lon="-1.08367">
        <ele>1.5</ele>
        <time>2020-06-16T13:44:51Z</time>
      </trkpt>
      <trkpt lat="49.37764" lon="-1.08374">
        <ele>1.5</ele>
        <time>2020-06-16T13:44:52Z</time>
      </trkpt>
      <trkpt lat="49.37769" lon="-1.08382">
        <ele>1.4</ele>
        <time>2020-06-16T13:44:53Z</time>
      </trkpt>
      <trkpt lat="49.37773" lon="-1.08389">
        <ele>1.4</ele>
        <time>2020-06-16T13:44:54Z</time>
      </trkpt>
      <trkpt lat="49.37777" lon="-1.08397">
        <ele>1.4</ele>
        <time>2020-06-16T13:44:55Z</time>
      </trkpt>
      <trkpt lat="49.37782" lon="-1.08405">
        <ele>1.4</ele>
        <time>2020-06-16T13:44:56Z</time>
      </trkpt>
      <trkpt lat="49.37787" lon="-1.08413">
        <ele>1.4</ele>
        <time>2020-06-16T13:44:57Z</time>
      </trkpt>
      <trkpt lat="49.37792" lon="-1.0842">
        <ele>1.4</ele>
        <time>2020-06-16T13:44:58Z</time>
      </trkpt>
      <trkpt lat="49.37797" lon="-1.08428">
        <ele>1.4</ele>
        <time>2020-06-16T13:44:59Z</time>
      </trkpt>
      <trkpt lat="49.37802" lon="-1.08435">
        <ele>1.4</ele>
        <time>2020-06-16T13:45:00Z</time>
      </trkpt>
      <trkpt lat="49.37806" lon="-1.08442">
        <ele>1.4</ele>
        <time>2020-06-16T13:45:01Z</time>
      </trkpt>
      <trkpt lat="49.37812" lon="-1.08449">
        <ele>1.4</ele>
        <time>2020-06-16T13:45:02Z</time>
      </trkpt>
      <trkpt lat="49.37818" lon="-1.08455">
        <ele>1.4</ele>
        <time>2020-06-16T13:45:03Z</time>
      </trkpt>
      <trkpt lat="49.37823" lon="-1.08463">
        <ele>1.4</ele>
        <time>2020-06-16T13:45:04Z</time>
      </trkpt>
      <trkpt lat="49.37828" lon="-1.0847">
        <ele>1.4</ele>
        <time>2020-06-16T13:45:05Z</time>
      </trkpt>
      <trkpt lat="49.37833" lon="-1.08475">
        <ele>1.3</ele>
        <time>2020-06-16T13:45:06Z</time>
      </trkpt>
      <trkpt lat="49.37838" lon="-1.08482">
        <ele>1.3</ele>
        <time>2020-06-16T13:45:07Z</time>
      </trkpt>
      <trkpt lat="49.37844" lon="-1.08488">
        <ele>1.3</ele>
        <time>2020-06-16T13:45:08Z</time>
      </trkpt>
      <trkpt lat="49.3785" lon="-1.08495">
        <ele>1.2</ele>
        <time>2020-06-16T13:45:09Z</time>
      </trkpt>
      <trkpt lat="49.37856" lon="-1.08501">
        <ele>1.2</ele>
        <time>2020-06-16T13:45:10Z</time>
      </trkpt>
      <trkpt lat="49.37861" lon="-1.08508">
        <ele>1.2</ele>
        <time>2020-06-16T13:45:11Z</time>
      </trkpt>
      <trkpt lat="49.37868" lon="-1.08516">
        <ele>1.2</ele>
        <time>2020-06-16T13:45:12Z</time>
      </trkpt>
      <trkpt lat="49.37874" lon="-1.08523">
        <ele>1.2</ele>
        <time>2020-06-16T13:45:13Z</time>
      </trkpt>
      <trkpt lat="49.37878" lon="-1.0853">
        <ele>1.2</ele>
        <time>2020-06-16T13:45:14Z</time>
      </trkpt>
      <trkpt lat="49.37883" lon="-1.08536">
        <ele>1.2</ele>
        <time>2020-06-16T13:45:15Z</time>
      </trkpt>
      <trkpt lat="49.37888" lon="-1.08543">
        <ele>1.2</ele>
        <time>2020-06-16T13:45:16Z</time>
      </trkpt>
      <trkpt lat="49.37893" lon="-1.08549">
        <ele>1.2</ele>
        <time>2020-06-16T13:45:17Z</time>
      </trkpt>
      <trkpt lat="49.37898" lon="-1.08556">
        <ele>1.2</ele>
        <time>2020-06-16T13:45:18Z</time>
      </trkpt>
      <trkpt lat="49.37903" lon="-1.08563">
        <ele>1.2</ele>
        <time>2020-06-16T13:45:19Z</time>
      </trkpt>
      <trkpt lat="49.37909" lon="-1.08569">
        <ele>1.3</ele>
        <time>2020-06-16T13:45:20Z</time>
      </trkpt>
      <trkpt lat="49.37914" lon="-1.08577">
        <ele>1.3</ele>
        <time>2020-06-16T13:45:21Z</time>
      </trkpt>
      <trkpt lat="49.37919" lon="-1.08583">
        <ele>1.3</ele>
        <time>2020-06-16T13:45:22Z</time>
      </trkpt>
      <trkpt lat="49.37924" lon="-1.08589">
        <ele>1.3</ele>
        <time>2020-06-16T13:45:23Z</time>
      </trkpt>
      <trkpt lat="49.37928" lon="-1.08594">
        <ele>1.3</ele>
        <time>2020-06-16T13:45:24Z</time>
      </trkpt>
      <trkpt lat="49.37932" lon="-1.086">
        <ele>1.3</ele>
        <time>2020-06-16T13:45:25Z</time>
      </trkpt>
      <trkpt lat="49.37936" lon="-1.08606">
        <ele>1.3</ele>
        <time>2020-06-16T13:45:26Z</time>
      </trkpt>
      <trkpt lat="49.3794" lon="-1.08611">
        <ele>1.3</ele>
        <time>2020-06-16T13:45:27Z</time>
      </trkpt>
      <trkpt lat="49.37944" lon="-1.08618">
        <ele>1.3</ele>
        <time>2020-06-16T13:45:28Z</time>
      </trkpt>
      <trkpt lat="49.37949" lon="-1.08625">
        <ele>1.4</ele>
        <time>2020-06-16T13:45:29Z</time>
      </trkpt>
      <trkpt lat="49.37953" lon="-1.08633">
        <ele>1.4</ele>
        <time>2020-06-16T13:45:30Z</time>
      </trkpt>
      <trkpt lat="49.37957" lon="-1.0864">
        <ele>1.4</ele>
        <time>2020-06-16T13:45:31Z</time>
      </trkpt>
      <trkpt lat="49.3796" lon="-1.08649">
        <ele>1.5</ele>
        <time>2020-06-16T13:45:32Z</time>
      </trkpt>
      <trkpt lat="49.37963" lon="-1.08657">
        <ele>1.5</ele>
        <time>2020-06-16T13:45:33Z</time>
      </trkpt>
      <trkpt lat="49.37966" lon="-1.08665">
        <ele>1.5</ele>
        <time>2020-06-16T13:45:34Z</time>
      </trkpt>
      <trkpt lat="49.37969" lon="-1.08671">
        <ele>1.6</ele>
        <time>2020-06-16T13:45:35Z</time>
      </trkpt>
      <trkpt lat="49.37973" lon="-1.08678">
        <ele>1.7</ele>
        <time>2020-06-16T13:45:36Z</time>
      </trkpt>
      <trkpt lat="49.37976" lon="-1.08684">
        <ele>1.8</ele>
        <time>2020-06-16T13:45:37Z</time>
      </trkpt>
      <trkpt lat="49.3798" lon="-1.08691">
        <ele>2</ele>
        <time>2020-06-16T13:45:38Z</time>
      </trkpt>
      <trkpt lat="49.37983" lon="-1.08697">
        <ele>1.9</ele>
        <time>2020-06-16T13:45:39Z</time>
      </trkpt>
      <trkpt lat="49.37986" lon="-1.08703">
        <ele>1.9</ele>
        <time>2020-06-16T13:45:40Z</time>
      </trkpt>
      <trkpt lat="49.3799" lon="-1.0871">
        <ele>1.8</ele>
        <time>2020-06-16T13:45:41Z</time>
      </trkpt>
      <trkpt lat="49.37993" lon="-1.08717">
        <ele>1.8</ele>
        <time>2020-06-16T13:45:42Z</time>
      </trkpt>
      <trkpt lat="49.37996" lon="-1.08723">
        <ele>1.7</ele>
        <time>2020-06-16T13:45:43Z</time>
      </trkpt>
      <trkpt lat="49.38" lon="-1.0873">
        <ele>1.7</ele>
        <time>2020-06-16T13:45:44Z</time>
      </trkpt>
      <trkpt lat="49.38004" lon="-1.08737">
        <ele>1.7</ele>
        <time>2020-06-16T13:45:45Z</time>
      </trkpt>
      <trkpt lat="49.38008" lon="-1.08745">
        <ele>1.6</ele>
        <time>2020-06-16T13:45:46Z</time>
      </trkpt>
      <trkpt lat="49.38012" lon="-1.08752">
        <ele>1.6</ele>
        <time>2020-06-16T13:45:47Z</time>
      </trkpt>
      <trkpt lat="49.38016" lon="-1.08759">
        <ele>1.6</ele>
        <time>2020-06-16T13:45:48Z</time>
      </trkpt>
      <trkpt lat="49.38019" lon="-1.08767">
        <ele>1.7</ele>
        <time>2020-06-16T13:45:49Z</time>
      </trkpt>
      <trkpt lat="49.38023" lon="-1.08774">
        <ele>1.7</ele>
        <time>2020-06-16T13:45:50Z</time>
      </trkpt>
      <trkpt lat="49.38027" lon="-1.08781">
        <ele>1.7</ele>
        <time>2020-06-16T13:45:51Z</time>
      </trkpt>
      <trkpt lat="49.3803" lon="-1.08787">
        <ele>1.6</ele>
        <time>2020-06-16T13:45:52Z</time>
      </trkpt>
      <trkpt lat="49.38034" lon="-1.08794">
        <ele>1.6</ele>
        <time>2020-06-16T13:45:53Z</time>
      </trkpt>
      <trkpt lat="49.38037" lon="-1.088">
        <ele>1.6</ele>
        <time>2020-06-16T13:45:54Z</time>
      </trkpt>
      <trkpt lat="49.38041" lon="-1.08807">
        <ele>1.6</ele>
        <time>2020-06-16T13:45:55Z</time>
      </trkpt>
      <trkpt lat="49.38045" lon="-1.08814">
        <ele>1.6</ele>
        <time>2020-06-16T13:45:56Z</time>
      </trkpt>
      <trkpt lat="49.38048" lon="-1.0882">
        <ele>1.6</ele>
        <time>2020-06-16T13:45:57Z</time>
      </trkpt>
      <trkpt lat="49.38051" lon="-1.08826">
        <ele>1.6</ele>
        <time>2020-06-16T13:45:58Z</time>
      </trkpt>
      <trkpt lat="49.38055" lon="-1.08833">
        <ele>1.6</ele>
        <time>2020-06-16T13:45:59Z</time>
      </trkpt>
      <trkpt lat="49.38058" lon="-1.0884">
        <ele>1.6</ele>
        <time>2020-06-16T13:46:00Z</time>
      </trkpt>
      <trkpt lat="49.38061" lon="-1.08846">
        <ele>1.6</ele>
        <time>2020-06-16T13:46:01Z</time>
      </trkpt>
      <trkpt lat="49.38065" lon="-1.08852">
        <ele>1.6</ele>
        <time>2020-06-16T13:46:02Z</time>
      </trkpt>
      <trkpt lat="49.38068" lon="-1.08859">
        <ele>1.7</ele>
        <time>2020-06-16T13:46:03Z</time>
      </trkpt>
      <trkpt lat="49.3807" lon="-1.08864">
        <ele>1.7</ele>
        <time>2020-06-16T13:46:04Z</time>
      </trkpt>
      <trkpt lat="49.38072" lon="-1.0887">
        <ele>1.7</ele>
        <time>2020-06-16T13:46:05Z</time>
      </trkpt>
      <trkpt lat="49.38074" lon="-1.08875">
        <ele>1.8</ele>
        <time>2020-06-16T13:46:06Z</time>
      </trkpt>
      <trkpt lat="49.38077" lon="-1.08881">
        <ele>1.8</ele>
        <time>2020-06-16T13:46:07Z</time>
      </trkpt>
      <trkpt lat="49.3808" lon="-1.08885">
        <ele>1.8</ele>
        <time>2020-06-16T13:46:08Z</time>
      </trkpt>
      <trkpt lat="49.38082" lon="-1.08891">
        <ele>1.9</ele>
        <time>2020-06-16T13:46:09Z</time>
      </trkpt>
      <trkpt lat="49.38084" lon="-1.08897">
        <ele>1.9</ele>
        <time>2020-06-16T13:46:10Z</time>
      </trkpt>
      <trkpt lat="49.38087" lon="-1.08902">
        <ele>1.9</ele>
        <time>2020-06-16T13:46:11Z</time>
      </trkpt>
      <trkpt lat="49.38089" lon="-1.08907">
        <ele>2</ele>
        <time>2020-06-16T13:46:12Z</time>
      </trkpt>
      <trkpt lat="49.38092" lon="-1.08912">
        <ele>2</ele>
        <time>2020-06-16T13:46:13Z</time>
      </trkpt>
      <trkpt lat="49.38095" lon="-1.08918">
        <ele>2.1</ele>
        <time>2020-06-16T13:46:14Z</time>
      </trkpt>
      <trkpt lat="49.38098" lon="-1.08923">
        <ele>2.2</ele>
        <time>2020-06-16T13:46:15Z</time>
      </trkpt>
      <trkpt lat="49.38101" lon="-1.08929">
        <ele>2.3</ele>
        <time>2020-06-16T13:46:16Z</time>
      </trkpt>
      <trkpt lat="49.38104" lon="-1.08934">
        <ele>2.4</ele>
        <time>2020-06-16T13:46:17Z</time>
      </trkpt>
      <trkpt lat="49.38107" lon="-1.08939">
        <ele>2.4</ele>
        <time>2020-06-16T13:46:18Z</time>
      </trkpt>
      <trkpt lat="49.38111" lon="-1.08941">
        <ele>2.6</ele>
        <time>2020-06-16T13:46:19Z</time>
      </trkpt>
      <trkpt lat="49.38116" lon="-1.08938">
        <ele>2.6</ele>
        <time>2020-06-16T13:46:20Z</time>
      </trkpt>
      <trkpt lat="49.3812" lon="-1.08936">
        <ele>2.5</ele>
        <time>2020-06-16T13:46:21Z</time>
      </trkpt>
      <trkpt lat="49.38124" lon="-1.08933">
        <ele>2.5</ele>
        <time>2020-06-16T13:46:22Z</time>
      </trkpt>
      <trkpt lat="49.38128" lon="-1.08929">
        <ele>2.4</ele>
        <time>2020-06-16T13:46:23Z</time>
      </trkpt>
      <trkpt lat="49.38132" lon="-1.08926">
        <ele>2.4</ele>
        <time>2020-06-16T13:46:24Z</time>
      </trkpt>
      <trkpt lat="49.38136" lon="-1.0892">
        <ele>2.3</ele>
        <time>2020-06-16T13:46:25Z</time>
      </trkpt>
      <trkpt lat="49.3814" lon="-1.08917">
        <ele>2.3</ele>
        <time>2020-06-16T13:46:26Z</time>
      </trkpt>
      <trkpt lat="49.38143" lon="-1.08914">
        <ele>2.3</ele>
        <time>2020-06-16T13:46:27Z</time>
      </trkpt>
      <trkpt lat="49.38148" lon="-1.0891">
        <ele>2.2</ele>
        <time>2020-06-16T13:46:28Z</time>
      </trkpt>
      <trkpt lat="49.38152" lon="-1.08906">
        <ele>2.2</ele>
        <time>2020-06-16T13:46:29Z</time>
      </trkpt>
      <trkpt lat="49.38156" lon="-1.08903">
        <ele>2.2</ele>
        <time>2020-06-16T13:46:30Z</time>
      </trkpt>
      <trkpt lat="49.38161" lon="-1.08899">
        <ele>2.1</ele>
        <time>2020-06-16T13:46:31Z</time>
      </trkpt>
      <trkpt lat="49.38165" lon="-1.08896">
        <ele>2.1</ele>
        <time>2020-06-16T13:46:32Z</time>
      </trkpt>
      <trkpt lat="49.38169" lon="-1.08892">
        <ele>2.1</ele>
        <time>2020-06-16T13:46:33Z</time>
      </trkpt>
      <trkpt lat="49.38173" lon="-1.08888">
        <ele>2.1</ele>
        <time>2020-06-16T13:46:34Z</time>
      </trkpt>
      <trkpt lat="49.38177" lon="-1.08884">
        <ele>2.2</ele>
        <time>2020-06-16T13:46:35Z</time>
      </trkpt>
      <trkpt lat="49.38182" lon="-1.08881">
        <ele>2.2</ele>
        <time>2020-06-16T13:46:36Z</time>
      </trkpt>
      <trkpt lat="49.38186" lon="-1.08875">
        <ele>2.2</ele>
        <time>2020-06-16T13:46:37Z</time>
      </trkpt>
      <trkpt lat="49.38192" lon="-1.08871">
        <ele>2.2</ele>
        <time>2020-06-16T13:46:38Z</time>
      </trkpt>
      <trkpt lat="49.38197" lon="-1.08867">
        <ele>2.3</ele>
        <time>2020-06-16T13:46:39Z</time>
      </trkpt>
      <trkpt lat="49.38202" lon="-1.08865">
        <ele>2.3</ele>
        <time>2020-06-16T13:46:40Z</time>
      </trkpt>
      <trkpt lat="49.38206" lon="-1.08862">
        <ele>2.3</ele>
        <time>2020-06-16T13:46:41Z</time>
      </trkpt>
      <trkpt lat="49.38211" lon="-1.08859">
        <ele>2.4</ele>
        <time>2020-06-16T13:46:42Z</time>
      </trkpt>
      <trkpt lat="49.38215" lon="-1.08855">
        <ele>2.4</ele>
        <time>2020-06-16T13:46:43Z</time>
      </trkpt>
      <trkpt lat="49.38219" lon="-1.08852">
        <ele>2.5</ele>
        <time>2020-06-16T13:46:44Z</time>
      </trkpt>
      <trkpt lat="49.38224" lon="-1.08848">
        <ele>2.5</ele>
        <time>2020-06-16T13:46:45Z</time>
      </trkpt>
      <trkpt lat="49.38228" lon="-1.08843">
        <ele>2.5</ele>
        <time>2020-06-16T13:46:46Z</time>
      </trkpt>
      <trkpt lat="49.38231" lon="-1.08837">
        <ele>2.5</ele>
        <time>2020-06-16T13:46:47Z</time>
      </trkpt>
      <trkpt lat="49.38232" lon="-1.08832">
        <ele>2.4</ele>
        <time>2020-06-16T13:46:48Z</time>
      </trkpt>
      <trkpt lat="49.38233" lon="-1.08825">
        <ele>2.3</ele>
        <time>2020-06-16T13:46:49Z</time>
      </trkpt>
      <trkpt lat="49.38233" lon="-1.0882">
        <ele>2.2</ele>
        <time>2020-06-16T13:46:50Z</time>
      </trkpt>
      <trkpt lat="49.3823" lon="-1.08815">
        <ele>2</ele>
        <time>2020-06-16T13:46:51Z</time>
      </trkpt>
      <trkpt lat="49.38227" lon="-1.08811">
        <ele>1.9</ele>
        <time>2020-06-16T13:46:52Z</time>
      </trkpt>
      <trkpt lat="49.38223" lon="-1.08808">
        <ele>1.8</ele>
        <time>2020-06-16T13:46:53Z</time>
      </trkpt>
      <trkpt lat="49.38219" lon="-1.08804">
        <ele>1.6</ele>
        <time>2020-06-16T13:46:54Z</time>
      </trkpt>
      <trkpt lat="49.38215" lon="-1.088">
        <ele>1.5</ele>
        <time>2020-06-16T13:46:55Z</time>
      </trkpt>
      <trkpt lat="49.38211" lon="-1.08795">
        <ele>1.5</ele>
        <time>2020-06-16T13:46:56Z</time>
      </trkpt>
      <trkpt lat="49.38208" lon="-1.0879">
        <ele>1.4</ele>
        <time>2020-06-16T13:46:57Z</time>
      </trkpt>
      <trkpt lat="49.38204" lon="-1.08785">
        <ele>1.4</ele>
        <time>2020-06-16T13:46:58Z</time>
      </trkpt>
      <trkpt lat="49.38201" lon="-1.08781">
        <ele>1.3</ele>
        <time>2020-06-16T13:46:59Z</time>
      </trkpt>
      <trkpt lat="49.38198" lon="-1.08778">
        <ele>1.3</ele>
        <time>2020-06-16T13:47:00Z</time>
      </trkpt>
      <trkpt lat="49.38194" lon="-1.08774">
        <ele>1.3</ele>
        <time>2020-06-16T13:47:01Z</time>
      </trkpt>
      <trkpt lat="49.3819" lon="-1.08772">
        <ele>1.3</ele>
        <time>2020-06-16T13:47:02Z</time>
      </trkpt>
      <trkpt lat="49.38187" lon="-1.08769">
        <ele>1.3</ele>
        <time>2020-06-16T13:47:03Z</time>
      </trkpt>
      <trkpt lat="49.38184" lon="-1.08766">
        <ele>1.3</ele>
        <time>2020-06-16T13:47:04Z</time>
      </trkpt>
      <trkpt lat="49.3818" lon="-1.08763">
        <ele>1.2</ele>
        <time>2020-06-16T13:47:05Z</time>
      </trkpt>
      <trkpt lat="49.38177" lon="-1.0876">
        <ele>1.2</ele>
        <time>2020-06-16T13:47:06Z</time>
      </trkpt>
      <trkpt lat="49.38174" lon="-1.08755">
        <ele>1.1</ele>
        <time>2020-06-16T13:47:07Z</time>
      </trkpt>
      <trkpt lat="49.38171" lon="-1.08751">
        <ele>1.1</ele>
        <time>2020-06-16T13:47:08Z</time>
      </trkpt>
      <trkpt lat="49.38168" lon="-1.08746">
        <ele>1.1</ele>
        <time>2020-06-16T13:47:09Z</time>
      </trkpt>
      <trkpt lat="49.38167" lon="-1.0874">
        <ele>1</ele>
        <time>2020-06-16T13:47:10Z</time>
      </trkpt>
      <trkpt lat="49.38167" lon="-1.08734">
        <ele>1</ele>
        <time>2020-06-16T13:47:11Z</time>
      </trkpt>
      <trkpt lat="49.38168" lon="-1.08726">
        <ele>1</ele>
        <time>2020-06-16T13:47:12Z</time>
      </trkpt>
      <trkpt lat="49.38171" lon="-1.08719">
        <ele>0.9</ele>
        <time>2020-06-16T13:47:13Z</time>
      </trkpt>
      <trkpt lat="49.38174" lon="-1.08712">
        <ele>0.9</ele>
        <time>2020-06-16T13:47:14Z</time>
      </trkpt>
      <trkpt lat="49.38177" lon="-1.08705">
        <ele>0.9</ele>
        <time>2020-06-16T13:47:15Z</time>
      </trkpt>
      <trkpt lat="49.38179" lon="-1.08698">
        <ele>0.9</ele>
        <time>2020-06-16T13:47:16Z</time>
      </trkpt>
      <trkpt lat="49.38182" lon="-1.08691">
        <ele>0.9</ele>
        <time>2020-06-16T13:47:17Z</time>
      </trkpt>
      <trkpt lat="49.38184" lon="-1.08685">
        <ele>1</ele>
        <time>2020-06-16T13:47:18Z</time>
      </trkpt>
      <trkpt lat="49.38184" lon="-1.0868">
        <ele>1</ele>
        <time>2020-06-16T13:47:19Z</time>
      </trkpt>
      <trkpt lat="49.38185" lon="-1.08675">
        <ele>1</ele>
        <time>2020-06-16T13:47:20Z</time>
      </trkpt>
      <trkpt lat="49.38186" lon="-1.0867">
        <ele>1</ele>
        <time>2020-06-16T13:47:21Z</time>
      </trkpt>
      <trkpt lat="49.38188" lon="-1.08665">
        <ele>1</ele>
        <time>2020-06-16T13:47:22Z</time>
      </trkpt>
      <trkpt lat="49.38189" lon="-1.0866">
        <ele>1</ele>
        <time>2020-06-16T13:47:23Z</time>
      </trkpt>
      <trkpt lat="49.38191" lon="-1.08654">
        <ele>1</ele>
        <time>2020-06-16T13:47:24Z</time>
      </trkpt>
      <trkpt lat="49.38193" lon="-1.08647">
        <ele>1</ele>
        <time>2020-06-16T13:47:25Z</time>
      </trkpt>
      <trkpt lat="49.38196" lon="-1.08641">
        <ele>1</ele>
        <time>2020-06-16T13:47:26Z</time>
      </trkpt>
      <trkpt lat="49.38198" lon="-1.08635">
        <ele>1</ele>
        <time>2020-06-16T13:47:27Z</time>
      </trkpt>
      <trkpt lat="49.382" lon="-1.08629">
        <ele>1</ele>
        <time>2020-06-16T13:47:28Z</time>
      </trkpt>
      <trkpt lat="49.38203" lon="-1.08624">
        <ele>1.1</ele>
        <time>2020-06-16T13:47:29Z</time>
      </trkpt>
      <trkpt lat="49.38206" lon="-1.08618">
        <ele>1.1</ele>
        <time>2020-06-16T13:47:30Z</time>
      </trkpt>
      <trkpt lat="49.38208" lon="-1.08611">
        <ele>1.2</ele>
        <time>2020-06-16T13:47:31Z</time>
      </trkpt>
      <trkpt lat="49.38211" lon="-1.08606">
        <ele>1.2</ele>
        <time>2020-06-16T13:47:32Z</time>
      </trkpt>
      <trkpt lat="49.38213" lon="-1.086">
        <ele>1.3</ele>
        <time>2020-06-16T13:47:33Z</time>
      </trkpt>
      <trkpt lat="49.38215" lon="-1.08594">
        <ele>1.3</ele>
        <time>2020-06-16T13:47:34Z</time>
      </trkpt>
      <trkpt lat="49.38217" lon="-1.08589">
        <ele>1.2</ele>
        <time>2020-06-16T13:47:35Z</time>
      </trkpt>
      <trkpt lat="49.3822" lon="-1.08584">
        <ele>1.2</ele>
        <time>2020-06-16T13:47:36Z</time>
      </trkpt>
      <trkpt lat="49.38223" lon="-1.08578">
        <ele>1.2</ele>
        <time>2020-06-16T13:47:37Z</time>
      </trkpt>
      <trkpt lat="49.38226" lon="-1.08573">
        <ele>1.2</ele>
        <time>2020-06-16T13:47:38Z</time>
      </trkpt>
      <trkpt lat="49.38228" lon="-1.08567">
        <ele>1.2</ele>
        <time>2020-06-16T13:47:39Z</time>
      </trkpt>
      <trkpt lat="49.38231" lon="-1.08563">
        <ele>1.2</ele>
        <time>2020-06-16T13:47:40Z</time>
      </trkpt>
      <trkpt lat="49.38234" lon="-1.08557">
        <ele>1.2</ele>
        <time>2020-06-16T13:47:41Z</time>
      </trkpt>
      <trkpt lat="49.38236" lon="-1.08551">
        <ele>1.2</ele>
        <time>2020-06-16T13:47:42Z</time>
      </trkpt>
      <trkpt lat="49.38239" lon="-1.08545">
        <ele>1.1</ele>
        <time>2020-06-16T13:47:43Z</time>
      </trkpt>
      <trkpt lat="49.38242" lon="-1.0854">
        <ele>1.1</ele>
        <time>2020-06-16T13:47:44Z</time>
      </trkpt>
      <trkpt lat="49.38245" lon="-1.08534">
        <ele>1.1</ele>
        <time>2020-06-16T13:47:45Z</time>
      </trkpt>
      <trkpt lat="49.38247" lon="-1.08529">
        <ele>1.1</ele>
        <time>2020-06-16T13:47:46Z</time>
      </trkpt>
      <trkpt lat="49.3825" lon="-1.08523">
        <ele>1.1</ele>
        <time>2020-06-16T13:47:47Z</time>
      </trkpt>
      <trkpt lat="49.38252" lon="-1.08518">
        <ele>1.1</ele>
        <time>2020-06-16T13:47:48Z</time>
      </trkpt>
      <trkpt lat="49.38255" lon="-1.08513">
        <ele>1.2</ele>
        <time>2020-06-16T13:47:49Z</time>
      </trkpt>
      <trkpt lat="49.38258" lon="-1.08507">
        <ele>1.2</ele>
        <time>2020-06-16T13:47:50Z</time>
      </trkpt>
      <trkpt lat="49.38261" lon="-1.08501">
        <ele>1.3</ele>
        <time>2020-06-16T13:47:51Z</time>
      </trkpt>
      <trkpt lat="49.38265" lon="-1.08495">
        <ele>1.3</ele>
        <time>2020-06-16T13:47:52Z</time>
      </trkpt>
      <trkpt lat="49.38267" lon="-1.08489">
        <ele>1.4</ele>
        <time>2020-06-16T13:47:53Z</time>
      </trkpt>
      <trkpt lat="49.3827" lon="-1.08483">
        <ele>1.4</ele>
        <time>2020-06-16T13:47:54Z</time>
      </trkpt>
      <trkpt lat="49.38273" lon="-1.08477">
        <ele>1.4</ele>
        <time>2020-06-16T13:47:55Z</time>
      </trkpt>
      <trkpt lat="49.38276" lon="-1.08471">
        <ele>1.4</ele>
        <time>2020-06-16T13:47:56Z</time>
      </trkpt>
      <trkpt lat="49.3828" lon="-1.08465">
        <ele>1.4</ele>
        <time>2020-06-16T13:47:57Z</time>
      </trkpt>
      <trkpt lat="49.38283" lon="-1.0846">
        <ele>1.4</ele>
        <time>2020-06-16T13:47:58Z</time>
      </trkpt>
      <trkpt lat="49.38286" lon="-1.08455">
        <ele>1.3</ele>
        <time>2020-06-16T13:47:59Z</time>
      </trkpt>
      <trkpt lat="49.38289" lon="-1.0845">
        <ele>1.3</ele>
        <time>2020-06-16T13:48:00Z</time>
      </trkpt>
      <trkpt lat="49.38292" lon="-1.08445">
        <ele>1.2</ele>
        <time>2020-06-16T13:48:01Z</time>
      </trkpt>
      <trkpt lat="49.38295" lon="-1.08439">
        <ele>1.2</ele>
        <time>2020-06-16T13:48:02Z</time>
      </trkpt>
      <trkpt lat="49.38298" lon="-1.08434">
        <ele>1.2</ele>
        <time>2020-06-16T13:48:03Z</time>
      </trkpt>
      <trkpt lat="49.38301" lon="-1.08429">
        <ele>1.1</ele>
        <time>2020-06-16T13:48:04Z</time>
      </trkpt>
      <trkpt lat="49.38304" lon="-1.08424">
        <ele>1.1</ele>
        <time>2020-06-16T13:48:05Z</time>
      </trkpt>
      <trkpt lat="49.38308" lon="-1.08419">
        <ele>1.1</ele>
        <time>2020-06-16T13:48:06Z</time>
      </trkpt>
      <trkpt lat="49.38311" lon="-1.08413">
        <ele>1.1</ele>
        <time>2020-06-16T13:48:07Z</time>
      </trkpt>
      <trkpt lat="49.38314" lon="-1.08407">
        <ele>1.1</ele>
        <time>2020-06-16T13:48:08Z</time>
      </trkpt>
      <trkpt lat="49.38317" lon="-1.08401">
        <ele>1.1</ele>
        <time>2020-06-16T13:48:09Z</time>
      </trkpt>
      <trkpt lat="49.38321" lon="-1.08395">
        <ele>1.1</ele>
        <time>2020-06-16T13:48:10Z</time>
      </trkpt>
      <trkpt lat="49.38324" lon="-1.0839">
        <ele>1.1</ele>
        <time>2020-06-16T13:48:11Z</time>
      </trkpt>
      <trkpt lat="49.38327" lon="-1.08384">
        <ele>1.1</ele>
        <time>2020-06-16T13:48:12Z</time>
      </trkpt>
      <trkpt lat="49.3833" lon="-1.08378">
        <ele>1.1</ele>
        <time>2020-06-16T13:48:13Z</time>
      </trkpt>
      <trkpt lat="49.38332" lon="-1.08372">
        <ele>1</ele>
        <time>2020-06-16T13:48:14Z</time>
      </trkpt>
      <trkpt lat="49.38335" lon="-1.08366">
        <ele>0.9</ele>
        <time>2020-06-16T13:48:15Z</time>
      </trkpt>
      <trkpt lat="49.38338" lon="-1.0836">
        <ele>0.8</ele>
        <time>2020-06-16T13:48:16Z</time>
      </trkpt>
      <trkpt lat="49.38341" lon="-1.08354">
        <ele>0.7</ele>
        <time>2020-06-16T13:48:17Z</time>
      </trkpt>
      <trkpt lat="49.38344" lon="-1.08348">
        <ele>0.6</ele>
        <time>2020-06-16T13:48:18Z</time>
      </trkpt>
      <trkpt lat="49.38347" lon="-1.08342">
        <ele>0.6</ele>
        <time>2020-06-16T13:48:19Z</time>
      </trkpt>
      <trkpt lat="49.3835" lon="-1.08335">
        <ele>0.5</ele>
        <time>2020-06-16T13:48:20Z</time>
      </trkpt>
      <trkpt lat="49.38353" lon="-1.08329">
        <ele>0.5</ele>
        <time>2020-06-16T13:48:21Z</time>
      </trkpt>
      <trkpt lat="49.38357" lon="-1.08323">
        <ele>0.4</ele>
        <time>2020-06-16T13:48:22Z</time>
      </trkpt>
      <trkpt lat="49.3836" lon="-1.08317">
        <ele>0.4</ele>
        <time>2020-06-16T13:48:23Z</time>
      </trkpt>
      <trkpt lat="49.38363" lon="-1.08312">
        <ele>0.4</ele>
        <time>2020-06-16T13:48:24Z</time>
      </trkpt>
      <trkpt lat="49.38367" lon="-1.08307">
        <ele>0.5</ele>
        <time>2020-06-16T13:48:25Z</time>
      </trkpt>
      <trkpt lat="49.3837" lon="-1.08302">
        <ele>0.5</ele>
        <time>2020-06-16T13:48:26Z</time>
      </trkpt>
      <trkpt lat="49.38372" lon="-1.08296">
        <ele>0.5</ele>
        <time>2020-06-16T13:48:27Z</time>
      </trkpt>
      <trkpt lat="49.38376" lon="-1.0829">
        <ele>0.6</ele>
        <time>2020-06-16T13:48:28Z</time>
      </trkpt>
      <trkpt lat="49.38378" lon="-1.08285">
        <ele>0.6</ele>
        <time>2020-06-16T13:48:29Z</time>
      </trkpt>
      <trkpt lat="49.38381" lon="-1.0828">
        <ele>0.7</ele>
        <time>2020-06-16T13:48:30Z</time>
      </trkpt>
      <trkpt lat="49.38383" lon="-1.08274">
        <ele>0.8</ele>
        <time>2020-06-16T13:48:31Z</time>
      </trkpt>
      <trkpt lat="49.38386" lon="-1.08269">
        <ele>0.8</ele>
        <time>2020-06-16T13:48:32Z</time>
      </trkpt>
      <trkpt lat="49.38389" lon="-1.08264">
        <ele>0.9</ele>
        <time>2020-06-16T13:48:33Z</time>
      </trkpt>
      <trkpt lat="49.38391" lon="-1.08263">
        <ele>0.9</ele>
        <time>2020-06-16T13:48:34Z</time>
      </trkpt>
      <trkpt lat="49.38391" lon="-1.08264">
        <ele>0.9</ele>
        <time>2020-06-16T13:48:35Z</time>
      </trkpt>
      <trkpt lat="49.38391" lon="-1.08265">
        <ele>1</ele>
        <time>2020-06-16T13:48:36Z</time>
      </trkpt>
      <trkpt lat="49.38391" lon="-1.08266">
        <ele>1</ele>
        <time>2020-06-16T13:48:37Z</time>
      </trkpt>
      <trkpt lat="49.38392" lon="-1.08267">
        <ele>1</ele>
        <time>2020-06-16T13:48:38Z</time>
      </trkpt>
      <trkpt lat="49.38392" lon="-1.08269">
        <ele>1.1</ele>
        <time>2020-06-16T13:48:39Z</time>
      </trkpt>
      <trkpt lat="49.38394" lon="-1.08272">
        <ele>1.1</ele>
        <time>2020-06-16T13:48:40Z</time>
      </trkpt>
      <trkpt lat="49.38396" lon="-1.08277">
        <ele>1.1</ele>
        <time>2020-06-16T13:48:41Z</time>
      </trkpt>
      <trkpt lat="49.38399" lon="-1.08281">
        <ele>1.1</ele>
        <time>2020-06-16T13:48:42Z</time>
      </trkpt>
      <trkpt lat="49.38401" lon="-1.08287">
        <ele>1.1</ele>
        <time>2020-06-16T13:48:43Z</time>
      </trkpt>
      <trkpt lat="49.38404" lon="-1.08292">
        <ele>1.1</ele>
        <time>2020-06-16T13:48:44Z</time>
      </trkpt>
      <trkpt lat="49.38407" lon="-1.08297">
        <ele>1.1</ele>
        <time>2020-06-16T13:48:45Z</time>
      </trkpt>
      <trkpt lat="49.38411" lon="-1.08302">
        <ele>1.1</ele>
        <time>2020-06-16T13:48:46Z</time>
      </trkpt>
      <trkpt lat="49.38414" lon="-1.08306">
        <ele>1.1</ele>
        <time>2020-06-16T13:48:47Z</time>
      </trkpt>
      <trkpt lat="49.38417" lon="-1.0831">
        <ele>1.1</ele>
        <time>2020-06-16T13:48:48Z</time>
      </trkpt>
      <trkpt lat="49.38421" lon="-1.08315">
        <ele>1.2</ele>
        <time>2020-06-16T13:48:49Z</time>
      </trkpt>
      <trkpt lat="49.38424" lon="-1.0832">
        <ele>1.2</ele>
        <time>2020-06-16T13:48:50Z</time>
      </trkpt>
      <trkpt lat="49.38427" lon="-1.08325">
        <ele>1.3</ele>
        <time>2020-06-16T13:48:51Z</time>
      </trkpt>
      <trkpt lat="49.38431" lon="-1.08331">
        <ele>1.3</ele>
        <time>2020-06-16T13:48:52Z</time>
      </trkpt>
      <trkpt lat="49.38435" lon="-1.08336">
        <ele>1.4</ele>
        <time>2020-06-16T13:48:53Z</time>
      </trkpt>
      <trkpt lat="49.3844" lon="-1.08341">
        <ele>1.5</ele>
        <time>2020-06-16T13:48:54Z</time>
      </trkpt>
      <trkpt lat="49.38445" lon="-1.08343">
        <ele>1.6</ele>
        <time>2020-06-16T13:48:55Z</time>
      </trkpt>
      <trkpt lat="49.38448" lon="-1.08347">
        <ele>1.6</ele>
        <time>2020-06-16T13:48:56Z</time>
      </trkpt>
      <trkpt lat="49.38452" lon="-1.0835">
        <ele>1.7</ele>
        <time>2020-06-16T13:48:57Z</time>
      </trkpt>
      <trkpt lat="49.38455" lon="-1.08353">
        <ele>1.8</ele>
        <time>2020-06-16T13:48:58Z</time>
      </trkpt>
      <trkpt lat="49.3846" lon="-1.08354">
        <ele>1.9</ele>
        <time>2020-06-16T13:48:59Z</time>
      </trkpt>
      <trkpt lat="49.38465" lon="-1.08353">
        <ele>2</ele>
        <time>2020-06-16T13:49:00Z</time>
      </trkpt>
      <trkpt lat="49.38471" lon="-1.08353">
        <ele>2.1</ele>
        <time>2020-06-16T13:49:01Z</time>
      </trkpt>
      <trkpt lat="49.38477" lon="-1.08352">
        <ele>2.2</ele>
        <time>2020-06-16T13:49:02Z</time>
      </trkpt>
      <trkpt lat="49.38482" lon="-1.0835">
        <ele>2.2</ele>
        <time>2020-06-16T13:49:03Z</time>
      </trkpt>
      <trkpt lat="49.38487" lon="-1.08349">
        <ele>2.3</ele>
        <time>2020-06-16T13:49:04Z</time>
      </trkpt>
      <trkpt lat="49.38492" lon="-1.08346">
        <ele>2.3</ele>
        <time>2020-06-16T13:49:05Z</time>
      </trkpt>
      <trkpt lat="49.38497" lon="-1.08343">
        <ele>2.3</ele>
        <time>2020-06-16T13:49:06Z</time>
      </trkpt>
      <trkpt lat="49.38501" lon="-1.08338">
        <ele>2.2</ele>
        <time>2020-06-16T13:49:07Z</time>
      </trkpt>
      <trkpt lat="49.38505" lon="-1.08334">
        <ele>2.2</ele>
        <time>2020-06-16T13:49:08Z</time>
      </trkpt>
      <trkpt lat="49.38509" lon="-1.08329">
        <ele>2.2</ele>
        <time>2020-06-16T13:49:09Z</time>
      </trkpt>
      <trkpt lat="49.38513" lon="-1.08324">
        <ele>2.4</ele>
        <time>2020-06-16T13:49:10Z</time>
      </trkpt>
      <trkpt lat="49.38517" lon="-1.08318">
        <ele>2.5</ele>
        <time>2020-06-16T13:49:11Z</time>
      </trkpt>
      <trkpt lat="49.38521" lon="-1.08313">
        <ele>2.5</ele>
        <time>2020-06-16T13:49:12Z</time>
      </trkpt>
      <trkpt lat="49.38523" lon="-1.08307">
        <ele>2.5</ele>
        <time>2020-06-16T13:49:13Z</time>
      </trkpt>
      <trkpt lat="49.38525" lon="-1.08301">
        <ele>2.5</ele>
        <time>2020-06-16T13:49:14Z</time>
      </trkpt>
      <trkpt lat="49.38528" lon="-1.08296">
        <ele>2.6</ele>
        <time>2020-06-16T13:49:15Z</time>
      </trkpt>
      <trkpt lat="49.38531" lon="-1.0829">
        <ele>2.6</ele>
        <time>2020-06-16T13:49:16Z</time>
      </trkpt>
      <trkpt lat="49.38535" lon="-1.08283">
        <ele>2.7</ele>
        <time>2020-06-16T13:49:17Z</time>
      </trkpt>
      <trkpt lat="49.38538" lon="-1.08276">
        <ele>2.6</ele>
        <time>2020-06-16T13:49:18Z</time>
      </trkpt>
      <trkpt lat="49.38542" lon="-1.0827">
        <ele>2.6</ele>
        <time>2020-06-16T13:49:19Z</time>
      </trkpt>
      <trkpt lat="49.38546" lon="-1.08264">
        <ele>2.5</ele>
        <time>2020-06-16T13:49:20Z</time>
      </trkpt>
      <trkpt lat="49.38551" lon="-1.08258">
        <ele>2.4</ele>
        <time>2020-06-16T13:49:21Z</time>
      </trkpt>
      <trkpt lat="49.38555" lon="-1.08252">
        <ele>2.4</ele>
        <time>2020-06-16T13:49:22Z</time>
      </trkpt>
      <trkpt lat="49.38558" lon="-1.08246">
        <ele>2.3</ele>
        <time>2020-06-16T13:49:23Z</time>
      </trkpt>
      <trkpt lat="49.38562" lon="-1.0824">
        <ele>2.3</ele>
        <time>2020-06-16T13:49:24Z</time>
      </trkpt>
      <trkpt lat="49.38566" lon="-1.08234">
        <ele>2.2</ele>
        <time>2020-06-16T13:49:25Z</time>
      </trkpt>
      <trkpt lat="49.38569" lon="-1.08227">
        <ele>2.2</ele>
        <time>2020-06-16T13:49:26Z</time>
      </trkpt>
      <trkpt lat="49.38572" lon="-1.0822">
        <ele>2.2</ele>
        <time>2020-06-16T13:49:27Z</time>
      </trkpt>
      <trkpt lat="49.38575" lon="-1.08214">
        <ele>2.2</ele>
        <time>2020-06-16T13:49:28Z</time>
      </trkpt>
      <trkpt lat="49.38579" lon="-1.08208">
        <ele>2.2</ele>
        <time>2020-06-16T13:49:29Z</time>
      </trkpt>
      <trkpt lat="49.38583" lon="-1.08202">
        <ele>2.2</ele>
        <time>2020-06-16T13:49:30Z</time>
      </trkpt>
      <trkpt lat="49.38586" lon="-1.08197">
        <ele>2.2</ele>
        <time>2020-06-16T13:49:31Z</time>
      </trkpt>
      <trkpt lat="49.38589" lon="-1.08192">
        <ele>2.2</ele>
        <time>2020-06-16T13:49:32Z</time>
      </trkpt>
      <trkpt lat="49.38591" lon="-1.08188">
        <ele>2.2</ele>
        <time>2020-06-16T13:49:33Z</time>
      </trkpt>
      <trkpt lat="49.38593" lon="-1.08183">
        <ele>2.2</ele>
        <time>2020-06-16T13:49:34Z</time>
      </trkpt>
      <trkpt lat="49.38596" lon="-1.08178">
        <ele>2.2</ele>
        <time>2020-06-16T13:49:35Z</time>
      </trkpt>
      <trkpt lat="49.38599" lon="-1.08172">
        <ele>2.2</ele>
        <time>2020-06-16T13:49:36Z</time>
      </trkpt>
      <trkpt lat="49.38602" lon="-1.08167">
        <ele>2.2</ele>
        <time>2020-06-16T13:49:37Z</time>
      </trkpt>
      <trkpt lat="49.38604" lon="-1.0816">
        <ele>2.1</ele>
        <time>2020-06-16T13:49:38Z</time>
      </trkpt>
      <trkpt lat="49.38607" lon="-1.08154">
        <ele>2.1</ele>
        <time>2020-06-16T13:49:39Z</time>
      </trkpt>
      <trkpt lat="49.3861" lon="-1.08149">
        <ele>2.1</ele>
        <time>2020-06-16T13:49:40Z</time>
      </trkpt>
      <trkpt lat="49.38613" lon="-1.08144">
        <ele>2.1</ele>
        <time>2020-06-16T13:49:41Z</time>
      </trkpt>
      <trkpt lat="49.38616" lon="-1.08138">
        <ele>2</ele>
        <time>2020-06-16T13:49:42Z</time>
      </trkpt>
      <trkpt lat="49.38619" lon="-1.08133">
        <ele>2</ele>
        <time>2020-06-16T13:49:43Z</time>
      </trkpt>
      <trkpt lat="49.38622" lon="-1.08127">
        <ele>2</ele>
        <time>2020-06-16T13:49:44Z</time>
      </trkpt>
      <trkpt lat="49.38626" lon="-1.08121">
        <ele>2</ele>
        <time>2020-06-16T13:49:45Z</time>
      </trkpt>
      <trkpt lat="49.38629" lon="-1.08115">
        <ele>2</ele>
        <time>2020-06-16T13:49:46Z</time>
      </trkpt>
      <trkpt lat="49.38633" lon="-1.08109">
        <ele>2</ele>
        <time>2020-06-16T13:49:47Z</time>
      </trkpt>
      <trkpt lat="49.38637" lon="-1.08102">
        <ele>1.9</ele>
        <time>2020-06-16T13:49:48Z</time>
      </trkpt>
      <trkpt lat="49.38641" lon="-1.08096">
        <ele>2</ele>
        <time>2020-06-16T13:49:49Z</time>
      </trkpt>
      <trkpt lat="49.38644" lon="-1.0809">
        <ele>2</ele>
        <time>2020-06-16T13:49:50Z</time>
      </trkpt>
      <trkpt lat="49.38648" lon="-1.08084">
        <ele>2.1</ele>
        <time>2020-06-16T13:49:51Z</time>
      </trkpt>
      <trkpt lat="49.38652" lon="-1.08077">
        <ele>2.1</ele>
        <time>2020-06-16T13:49:52Z</time>
      </trkpt>
      <trkpt lat="49.38656" lon="-1.0807">
        <ele>2.2</ele>
        <time>2020-06-16T13:49:53Z</time>
      </trkpt>
      <trkpt lat="49.38659" lon="-1.08064">
        <ele>2.2</ele>
        <time>2020-06-16T13:49:54Z</time>
      </trkpt>
      <trkpt lat="49.38662" lon="-1.08057">
        <ele>2.2</ele>
        <time>2020-06-16T13:49:55Z</time>
      </trkpt>
      <trkpt lat="49.38666" lon="-1.08051">
        <ele>2.2</ele>
        <time>2020-06-16T13:49:56Z</time>
      </trkpt>
      <trkpt lat="49.38669" lon="-1.08044">
        <ele>2.2</ele>
        <time>2020-06-16T13:49:57Z</time>
      </trkpt>
      <trkpt lat="49.38673" lon="-1.08037">
        <ele>2.2</ele>
        <time>2020-06-16T13:49:58Z</time>
      </trkpt>
      <trkpt lat="49.38676" lon="-1.08029">
        <ele>2.2</ele>
        <time>2020-06-16T13:49:59Z</time>
      </trkpt>
      <trkpt lat="49.3868" lon="-1.08022">
        <ele>2.2</ele>
        <time>2020-06-16T13:50:00Z</time>
      </trkpt>
      <trkpt lat="49.38683" lon="-1.08014">
        <ele>2.2</ele>
        <time>2020-06-16T13:50:01Z</time>
      </trkpt>
      <trkpt lat="49.38686" lon="-1.08008">
        <ele>2.1</ele>
        <time>2020-06-16T13:50:02Z</time>
      </trkpt>
      <trkpt lat="49.38689" lon="-1.08002">
        <ele>2.1</ele>
        <time>2020-06-16T13:50:03Z</time>
      </trkpt>
      <trkpt lat="49.38692" lon="-1.07995">
        <ele>2.1</ele>
        <time>2020-06-16T13:50:04Z</time>
      </trkpt>
      <trkpt lat="49.38695" lon="-1.07988">
        <ele>2.1</ele>
        <time>2020-06-16T13:50:05Z</time>
      </trkpt>
      <trkpt lat="49.38698" lon="-1.07981">
        <ele>2</ele>
        <time>2020-06-16T13:50:06Z</time>
      </trkpt>
      <trkpt lat="49.38701" lon="-1.07975">
        <ele>2</ele>
        <time>2020-06-16T13:50:07Z</time>
      </trkpt>
      <trkpt lat="49.38704" lon="-1.07969">
        <ele>2</ele>
        <time>2020-06-16T13:50:08Z</time>
      </trkpt>
      <trkpt lat="49.38708" lon="-1.07963">
        <ele>2</ele>
        <time>2020-06-16T13:50:09Z</time>
      </trkpt>
      <trkpt lat="49.38711" lon="-1.07957">
        <ele>2</ele>
        <time>2020-06-16T13:50:10Z</time>
      </trkpt>
      <trkpt lat="49.38714" lon="-1.07951">
        <ele>2</ele>
        <time>2020-06-16T13:50:11Z</time>
      </trkpt>
      <trkpt lat="49.38717" lon="-1.07945">
        <ele>2</ele>
        <time>2020-06-16T13:50:12Z</time>
      </trkpt>
      <trkpt lat="49.3872" lon="-1.0794">
        <ele>2</ele>
        <time>2020-06-16T13:50:13Z</time>
      </trkpt>
      <trkpt lat="49.38723" lon="-1.07934">
        <ele>2</ele>
        <time>2020-06-16T13:50:14Z</time>
      </trkpt>
      <trkpt lat="49.38726" lon="-1.07928">
        <ele>2</ele>
        <time>2020-06-16T13:50:15Z</time>
      </trkpt>
      <trkpt lat="49.38729" lon="-1.07923">
        <ele>2.1</ele>
        <time>2020-06-16T13:50:16Z</time>
      </trkpt>
      <trkpt lat="49.38732" lon="-1.07917">
        <ele>2.1</ele>
        <time>2020-06-16T13:50:17Z</time>
      </trkpt>
      <trkpt lat="49.38734" lon="-1.07912">
        <ele>2.2</ele>
        <time>2020-06-16T13:50:18Z</time>
      </trkpt>
      <trkpt lat="49.38736" lon="-1.07907">
        <ele>2.3</ele>
        <time>2020-06-16T13:50:19Z</time>
      </trkpt>
      <trkpt lat="49.38739" lon="-1.07901">
        <ele>2.3</ele>
        <time>2020-06-16T13:50:20Z</time>
      </trkpt>
      <trkpt lat="49.38741" lon="-1.07896">
        <ele>2.3</ele>
        <time>2020-06-16T13:50:21Z</time>
      </trkpt>
      <trkpt lat="49.38744" lon="-1.07892">
        <ele>2.4</ele>
        <time>2020-06-16T13:50:22Z</time>
      </trkpt>
      <trkpt lat="49.38748" lon="-1.07887">
        <ele>2.4</ele>
        <time>2020-06-16T13:50:23Z</time>
      </trkpt>
      <trkpt lat="49.38751" lon="-1.07884">
        <ele>2.4</ele>
        <time>2020-06-16T13:50:24Z</time>
      </trkpt>
      <trkpt lat="49.38755" lon="-1.07881">
        <ele>2.4</ele>
        <time>2020-06-16T13:50:25Z</time>
      </trkpt>
      <trkpt lat="49.38758" lon="-1.07879">
        <ele>2.5</ele>
        <time>2020-06-16T13:50:26Z</time>
      </trkpt>
      <trkpt lat="49.38761" lon="-1.07878">
        <ele>2.5</ele>
        <time>2020-06-16T13:50:27Z</time>
      </trkpt>
      <trkpt lat="49.38765" lon="-1.07877">
        <ele>2.6</ele>
        <time>2020-06-16T13:50:28Z</time>
      </trkpt>
      <trkpt lat="49.38767" lon="-1.07877">
        <ele>2.6</ele>
        <time>2020-06-16T13:50:29Z</time>
      </trkpt>
      <trkpt lat="49.3877" lon="-1.07876">
        <ele>2.6</ele>
        <time>2020-06-16T13:50:30Z</time>
      </trkpt>
      <trkpt lat="49.38771" lon="-1.07875">
        <ele>2.6</ele>
        <time>2020-06-16T13:50:31Z</time>
      </trkpt>
      <trkpt lat="49.38772" lon="-1.07875">
        <ele>2.6</ele>
        <time>2020-06-16T13:50:32Z</time>
      </trkpt>
      <trkpt lat="49.38774" lon="-1.07876">
        <ele>2.6</ele>
        <time>2020-06-16T13:50:33Z</time>
      </trkpt>
      <trkpt lat="49.38777" lon="-1.07875">
        <ele>2.6</ele>
        <time>2020-06-16T13:50:34Z</time>
      </trkpt>
      <trkpt lat="49.3878" lon="-1.07874">
        <ele>2.5</ele>
        <time>2020-06-16T13:50:35Z</time>
      </trkpt>
      <trkpt lat="49.38781" lon="-1.07874">
        <ele>2.5</ele>
        <time>2020-06-16T13:50:36Z</time>
      </trkpt>
      <trkpt lat="49.38782" lon="-1.07873">
        <ele>2.5</ele>
        <time>2020-06-16T13:50:37Z</time>
      </trkpt>
      <trkpt lat="49.38782" lon="-1.07873">
        <ele>2.5</ele>
        <time>2020-06-16T13:50:38Z</time>
      </trkpt>
      <trkpt lat="49.38781" lon="-1.07873">
        <ele>2.5</ele>
        <time>2020-06-16T13:50:39Z</time>
      </trkpt>
      <trkpt lat="49.38781" lon="-1.07872">
        <ele>2.5</ele>
        <time>2020-06-16T13:50:40Z</time>
      </trkpt>
      <trkpt lat="49.38782" lon="-1.07872">
        <ele>2.5</ele>
        <time>2020-06-16T13:50:41Z</time>
      </trkpt>
      <trkpt lat="49.38783" lon="-1.07872">
        <ele>2.4</ele>
        <time>2020-06-16T13:50:42Z</time>
      </trkpt>
      <trkpt lat="49.38783" lon="-1.07873">
        <ele>2.4</ele>
        <time>2020-06-16T13:50:43Z</time>
      </trkpt>
      <trkpt lat="49.38783" lon="-1.07874">
        <ele>2.4</ele>
        <time>2020-06-16T13:50:44Z</time>
      </trkpt>
      <trkpt lat="49.38783" lon="-1.07873">
        <ele>2.4</ele>
        <time>2020-06-16T13:50:45Z</time>
      </trkpt>
      <trkpt lat="49.38783" lon="-1.07874">
        <ele>2.4</ele>
        <time>2020-06-16T13:50:46Z</time>
      </trkpt>
      <trkpt lat="49.38783" lon="-1.07874">
        <ele>2.4</ele>
        <time>2020-06-16T13:50:47Z</time>
      </trkpt>
      <trkpt lat="49.38782" lon="-1.07873">
        <ele>2.4</ele>
        <time>2020-06-16T13:50:48Z</time>
      </trkpt>
      <trkpt lat="49.38783" lon="-1.07872">
        <ele>2.4</ele>
        <time>2020-06-16T13:50:49Z</time>
      </trkpt>
      <trkpt lat="49.38782" lon="-1.07872">
        <ele>2.4</ele>
        <time>2020-06-16T13:50:50Z</time>
      </trkpt>
      <trkpt lat="49.38782" lon="-1.07872">
        <ele>2.4</ele>
        <time>2020-06-16T13:50:51Z</time>
      </trkpt>
      <trkpt lat="49.38783" lon="-1.07872">
        <ele>2.4</ele>
        <time>2020-06-16T13:50:52Z</time>
      </trkpt>
      <trkpt lat="49.38782" lon="-1.07872">
        <ele>2.4</ele>
        <time>2020-06-16T13:50:53Z</time>
      </trkpt>
      <trkpt lat="49.38783" lon="-1.07872">
        <ele>2.4</ele>
        <time>2020-06-16T13:50:54Z</time>
      </trkpt>
      <trkpt lat="49.38783" lon="-1.07872">
        <ele>2.4</ele>
        <time>2020-06-16T13:50:55Z</time>
      </trkpt>
      <trkpt lat="49.38784" lon="-1.07872">
        <ele>2.4</ele>
        <time>2020-06-16T13:50:56Z</time>
      </trkpt>
      <trkpt lat="49.38784" lon="-1.07873">
        <ele>2.4</ele>
        <time>2020-06-16T13:50:57Z</time>
      </trkpt>
      <trkpt lat="49.38784" lon="-1.07872">
        <ele>2.4</ele>
        <time>2020-06-16T13:50:58Z</time>
      </trkpt>
      <trkpt lat="49.38784" lon="-1.07872">
        <ele>2.4</ele>
        <time>2020-06-16T13:50:59Z</time>
      </trkpt>
      <trkpt lat="49.38784" lon="-1.07873">
        <ele>2.4</ele>
        <time>2020-06-16T13:51:00Z</time>
      </trkpt>
      <trkpt lat="49.38784" lon="-1.07873">
        <ele>2.4</ele>
        <time>2020-06-16T13:51:01Z</time>
      </trkpt>
      <trkpt lat="49.38784" lon="-1.07873">
        <ele>2.4</ele>
        <time>2020-06-16T13:51:02Z</time>
      </trkpt>
      <trkpt lat="49.38785" lon="-1.07874">
        <ele>2.4</ele>
        <time>2020-06-16T13:51:03Z</time>
      </trkpt>
      <trkpt lat="49.38785" lon="-1.07874">
        <ele>2.4</ele>
        <time>2020-06-16T13:51:04Z</time>
      </trkpt>
      <trkpt lat="49.38785" lon="-1.07874">
        <ele>2.4</ele>
        <time>2020-06-16T13:51:05Z</time>
      </trkpt>
      <trkpt lat="49.38785" lon="-1.07874">
        <ele>2.4</ele>
        <time>2020-06-16T13:51:06Z</time>
      </trkpt>
      <trkpt lat="49.38784" lon="-1.07874">
        <ele>2.4</ele>
        <time>2020-06-16T13:51:07Z</time>
      </trkpt>
      <trkpt lat="49.38784" lon="-1.07875">
        <ele>2.4</ele>
        <time>2020-06-16T13:51:08Z</time>
      </trkpt>
      <trkpt lat="49.38785" lon="-1.07875">
        <ele>2.4</ele>
        <time>2020-06-16T13:51:09Z</time>
      </trkpt>
      <trkpt lat="49.38786" lon="-1.07875">
        <ele>2.4</ele>
        <time>2020-06-16T13:51:10Z</time>
      </trkpt>
      <trkpt lat="49.38786" lon="-1.07874">
        <ele>2.4</ele>
        <time>2020-06-16T13:51:11Z</time>
      </trkpt>
      <trkpt lat="49.38785" lon="-1.07874">
        <ele>2.4</ele>
        <time>2020-06-16T13:51:12Z</time>
      </trkpt>
      <trkpt lat="49.38786" lon="-1.07875">
        <ele>2.4</ele>
        <time>2020-06-16T13:51:13Z</time>
      </trkpt>
      <trkpt lat="49.38787" lon="-1.07876">
        <ele>2.4</ele>
        <time>2020-06-16T13:51:14Z</time>
      </trkpt>
      <trkpt lat="49.38787" lon="-1.07877">
        <ele>2.4</ele>
        <time>2020-06-16T13:51:15Z</time>
      </trkpt>
      <trkpt lat="49.38787" lon="-1.07877">
        <ele>2.4</ele>
        <time>2020-06-16T13:51:16Z</time>
      </trkpt>
      <trkpt lat="49.38786" lon="-1.07877">
        <ele>2.4</ele>
        <time>2020-06-16T13:51:17Z</time>
      </trkpt>
      <trkpt lat="49.38785" lon="-1.07877">
        <ele>2.4</ele>
        <time>2020-06-16T13:51:18Z</time>
      </trkpt>
      <trkpt lat="49.38785" lon="-1.07877">
        <ele>2.5</ele>
        <time>2020-06-16T13:51:19Z</time>
      </trkpt>
      <trkpt lat="49.38785" lon="-1.07877">
        <ele>2.5</ele>
        <time>2020-06-16T13:51:20Z</time>
      </trkpt>
      <trkpt lat="49.38784" lon="-1.07876">
        <ele>2.5</ele>
        <time>2020-06-16T13:51:21Z</time>
      </trkpt>
      <trkpt lat="49.38784" lon="-1.07876">
        <ele>2.5</ele>
        <time>2020-06-16T13:51:22Z</time>
      </trkpt>
      <trkpt lat="49.38784" lon="-1.07877">
        <ele>2.5</ele>
        <time>2020-06-16T13:51:23Z</time>
      </trkpt>
      <trkpt lat="49.38784" lon="-1.07877">
        <ele>2.5</ele>
        <time>2020-06-16T13:51:24Z</time>
      </trkpt>
      <trkpt lat="49.38784" lon="-1.07878">
        <ele>2.5</ele>
        <time>2020-06-16T13:51:25Z</time>
      </trkpt>
      <trkpt lat="49.38784" lon="-1.07878">
        <ele>2.5</ele>
        <time>2020-06-16T13:51:26Z</time>
      </trkpt>
      <trkpt lat="49.38784" lon="-1.07881">
        <ele>2.5</ele>
        <time>2020-06-16T13:51:57Z</time>
      </trkpt>
      <trkpt lat="49.38784" lon="-1.07881">
        <ele>2.5</ele>
        <time>2020-06-16T13:51:58Z</time>
      </trkpt>
      <trkpt lat="49.38784" lon="-1.07881">
        <ele>2.5</ele>
        <time>2020-06-16T13:51:59Z</time>
      </trkpt>
      <trkpt lat="49.38784" lon="-1.07881">
        <ele>2.5</ele>
        <time>2020-06-16T13:52:00Z</time>
      </trkpt>
      <trkpt lat="49.38784" lon="-1.07881">
        <ele>2.5</ele>
        <time>2020-06-16T13:52:01Z</time>
      </trkpt>
      <trkpt lat="49.38784" lon="-1.07881">
        <ele>2.5</ele>
        <time>2020-06-16T13:52:02Z</time>
      </trkpt>
      <trkpt lat="49.38784" lon="-1.0788">
        <ele>2.5</ele>
        <time>2020-06-16T13:52:03Z</time>
      </trkpt>
      <trkpt lat="49.38784" lon="-1.0788">
        <ele>2.5</ele>
        <time>2020-06-16T13:52:04Z</time>
      </trkpt>
      <trkpt lat="49.38785" lon="-1.0788">
        <ele>2.5</ele>
        <time>2020-06-16T13:52:05Z</time>
      </trkpt>
      <trkpt lat="49.38785" lon="-1.0788">
        <ele>2.5</ele>
        <time>2020-06-16T13:52:06Z</time>
      </trkpt>
      <trkpt lat="49.38785" lon="-1.0788">
        <ele>2.5</ele>
        <time>2020-06-16T13:52:07Z</time>
      </trkpt>
      <trkpt lat="49.38785" lon="-1.0788">
        <ele>2.5</ele>
        <time>2020-06-16T13:52:08Z</time>
      </trkpt>
      <trkpt lat="49.38785" lon="-1.07879">
        <ele>2.5</ele>
        <time>2020-06-16T13:52:09Z</time>
      </trkpt>
      <trkpt lat="49.38784" lon="-1.07878">
        <ele>2.5</ele>
        <time>2020-06-16T13:52:10Z</time>
      </trkpt>
      <trkpt lat="49.38784" lon="-1.07877">
        <ele>2.6</ele>
        <time>2020-06-16T13:52:11Z</time>
      </trkpt>
      <trkpt lat="49.38784" lon="-1.07876">
        <ele>2.6</ele>
        <time>2020-06-16T13:52:12Z</time>
      </trkpt>
      <trkpt lat="49.38784" lon="-1.07876">
        <ele>2.6</ele>
        <time>2020-06-16T13:52:13Z</time>
      </trkpt>
      <trkpt lat="49.38784" lon="-1.07874">
        <ele>2.6</ele>
        <time>2020-06-16T13:52:14Z</time>
      </trkpt>
      <trkpt lat="49.38784" lon="-1.07874">
        <ele>2.6</ele>
        <time>2020-06-16T13:52:15Z</time>
      </trkpt>
      <trkpt lat="49.38783" lon="-1.07874">
        <ele>2.6</ele>
        <time>2020-06-16T13:52:16Z</time>
      </trkpt>
      <trkpt lat="49.38783" lon="-1.07873">
        <ele>2.6</ele>
        <time>2020-06-16T13:52:17Z</time>
      </trkpt>
      <trkpt lat="49.38783" lon="-1.07872">
        <ele>2.6</ele>
        <time>2020-06-16T13:52:18Z</time>
      </trkpt>
      <trkpt lat="49.38782" lon="-1.07872">
        <ele>2.6</ele>
        <time>2020-06-16T13:52:19Z</time>
      </trkpt>
      <trkpt lat="49.38782" lon="-1.07872">
        <ele>2.6</ele>
        <time>2020-06-16T13:52:20Z</time>
      </trkpt>
      <trkpt lat="49.38783" lon="-1.07872">
        <ele>2.6</ele>
        <time>2020-06-16T13:52:21Z</time>
      </trkpt>
      <trkpt lat="49.38783" lon="-1.07872">
        <ele>2.6</ele>
        <time>2020-06-16T13:52:22Z</time>
      </trkpt>
      <trkpt lat="49.38783" lon="-1.07871">
        <ele>2.6</ele>
        <time>2020-06-16T13:52:23Z</time>
      </trkpt>
      <trkpt lat="49.38783" lon="-1.07871">
        <ele>2.6</ele>
        <time>2020-06-16T13:52:24Z</time>
      </trkpt>
      <trkpt lat="49.38783" lon="-1.0787">
        <ele>2.6</ele>
        <time>2020-06-16T13:52:25Z</time>
      </trkpt>
      <trkpt lat="49.38783" lon="-1.07869">
        <ele>2.6</ele>
        <time>2020-06-16T13:52:26Z</time>
      </trkpt>
      <trkpt lat="49.38783" lon="-1.07867">
        <ele>2.6</ele>
        <time>2020-06-16T13:52:27Z</time>
      </trkpt>
      <trkpt lat="49.38784" lon="-1.07863">
        <ele>2.6</ele>
        <time>2020-06-16T13:52:28Z</time>
      </trkpt>
      <trkpt lat="49.38784" lon="-1.07862">
        <ele>2.6</ele>
        <time>2020-06-16T13:52:29Z</time>
      </trkpt>
      <trkpt lat="49.38785" lon="-1.0786">
        <ele>2.7</ele>
        <time>2020-06-16T13:52:30Z</time>
      </trkpt>
      <trkpt lat="49.38786" lon="-1.0786">
        <ele>2.7</ele>
        <time>2020-06-16T13:52:31Z</time>
      </trkpt>
      <trkpt lat="49.38787" lon="-1.07859">
        <ele>2.7</ele>
        <time>2020-06-16T13:52:32Z</time>
      </trkpt>
      <trkpt lat="49.38788" lon="-1.07858">
        <ele>2.7</ele>
        <time>2020-06-16T13:52:33Z</time>
      </trkpt>
      <trkpt lat="49.3879" lon="-1.07856">
        <ele>2.7</ele>
        <time>2020-06-16T13:52:34Z</time>
      </trkpt>
      <trkpt lat="49.3879" lon="-1.07855">
        <ele>2.7</ele>
        <time>2020-06-16T13:52:35Z</time>
      </trkpt>
      <trkpt lat="49.3879" lon="-1.07854">
        <ele>2.7</ele>
        <time>2020-06-16T13:52:36Z</time>
      </trkpt>
      <trkpt lat="49.3879" lon="-1.07853">
        <ele>2.7</ele>
        <time>2020-06-16T13:52:37Z</time>
      </trkpt>
      <trkpt lat="49.3879" lon="-1.07852">
        <ele>2.7</ele>
        <time>2020-06-16T13:52:38Z</time>
      </trkpt>
      <trkpt lat="49.3879" lon="-1.07852">
        <ele>2.7</ele>
        <time>2020-06-16T13:52:39Z</time>
      </trkpt>
      <trkpt lat="49.3879" lon="-1.07851">
        <ele>2.7</ele>
        <time>2020-06-16T13:52:40Z</time>
      </trkpt>
      <trkpt lat="49.38791" lon="-1.07849">
        <ele>2.7</ele>
        <time>2020-06-16T13:52:41Z</time>
      </trkpt>
      <trkpt lat="49.38791" lon="-1.07848">
        <ele>2.7</ele>
        <time>2020-06-16T13:52:42Z</time>
      </trkpt>
      <trkpt lat="49.38792" lon="-1.07848">
        <ele>2.7</ele>
        <time>2020-06-16T13:52:43Z</time>
      </trkpt>
      <trkpt lat="49.38792" lon="-1.07847">
        <ele>2.7</ele>
        <time>2020-06-16T13:52:44Z</time>
      </trkpt>
      <trkpt lat="49.38792" lon="-1.07847">
        <ele>2.7</ele>
        <time>2020-06-16T13:52:45Z</time>
      </trkpt>
      <trkpt lat="49.38792" lon="-1.07849">
        <ele>2.8</ele>
        <time>2020-06-16T13:52:46Z</time>
      </trkpt>
      <trkpt lat="49.38792" lon="-1.07849">
        <ele>2.8</ele>
        <time>2020-06-16T13:52:47Z</time>
      </trkpt>
      <trkpt lat="49.38792" lon="-1.07849">
        <ele>2.8</ele>
        <time>2020-06-16T13:52:48Z</time>
      </trkpt>
      <trkpt lat="49.38793" lon="-1.07849">
        <ele>2.8</ele>
        <time>2020-06-16T13:52:49Z</time>
      </trkpt>
      <trkpt lat="49.38793" lon="-1.07849">
        <ele>2.8</ele>
        <time>2020-06-16T13:52:50Z</time>
      </trkpt>
      <trkpt lat="49.38794" lon="-1.07849">
        <ele>2.8</ele>
        <time>2020-06-16T13:52:51Z</time>
      </trkpt>
      <trkpt lat="49.38795" lon="-1.07847">
        <ele>2.8</ele>
        <time>2020-06-16T13:52:52Z</time>
      </trkpt>
      <trkpt lat="49.38796" lon="-1.07846">
        <ele>2.8</ele>
        <time>2020-06-16T13:52:53Z</time>
      </trkpt>
      <trkpt lat="49.38797" lon="-1.07844">
        <ele>2.8</ele>
        <time>2020-06-16T13:52:54Z</time>
      </trkpt>
      <trkpt lat="49.38797" lon="-1.07843">
        <ele>2.8</ele>
        <time>2020-06-16T13:52:55Z</time>
      </trkpt>
      <trkpt lat="49.388" lon="-1.07839">
        <ele>2.9</ele>
        <time>2020-06-16T13:52:56Z</time>
      </trkpt>
      <trkpt lat="49.38801" lon="-1.07837">
        <ele>2.9</ele>
        <time>2020-06-16T13:52:57Z</time>
      </trkpt>
      <trkpt lat="49.38803" lon="-1.07832">
        <ele>2.9</ele>
        <time>2020-06-16T13:52:58Z</time>
      </trkpt>
      <trkpt lat="49.38805" lon="-1.07827">
        <ele>2.9</ele>
        <time>2020-06-16T13:52:59Z</time>
      </trkpt>
      <trkpt lat="49.38809" lon="-1.07822">
        <ele>2.9</ele>
        <time>2020-06-16T13:53:00Z</time>
      </trkpt>
      <trkpt lat="49.38812" lon="-1.07816">
        <ele>2.9</ele>
        <time>2020-06-16T13:53:01Z</time>
      </trkpt>
      <trkpt lat="49.38814" lon="-1.0781">
        <ele>2.9</ele>
        <time>2020-06-16T13:53:02Z</time>
      </trkpt>
      <trkpt lat="49.38817" lon="-1.07805">
        <ele>2.8</ele>
        <time>2020-06-16T13:53:03Z</time>
      </trkpt>
      <trkpt lat="49.38818" lon="-1.07801">
        <ele>2.8</ele>
        <time>2020-06-16T13:53:04Z</time>
      </trkpt>
      <trkpt lat="49.3882" lon="-1.07799">
        <ele>2.8</ele>
        <time>2020-06-16T13:53:05Z</time>
      </trkpt>
      <trkpt lat="49.3882" lon="-1.07797">
        <ele>2.8</ele>
        <time>2020-06-16T13:53:06Z</time>
      </trkpt>
      <trkpt lat="49.3882" lon="-1.07796">
        <ele>2.8</ele>
        <time>2020-06-16T13:53:07Z</time>
      </trkpt>
      <trkpt lat="49.38821" lon="-1.07795">
        <ele>2.8</ele>
        <time>2020-06-16T13:53:08Z</time>
      </trkpt>
      <trkpt lat="49.38821" lon="-1.07794">
        <ele>2.8</ele>
        <time>2020-06-16T13:53:09Z</time>
      </trkpt>
      <trkpt lat="49.38821" lon="-1.07793">
        <ele>2.8</ele>
        <time>2020-06-16T13:53:10Z</time>
      </trkpt>
      <trkpt lat="49.38821" lon="-1.07792">
        <ele>2.8</ele>
        <time>2020-06-16T13:53:11Z</time>
      </trkpt>
      <trkpt lat="49.38821" lon="-1.0779">
        <ele>2.8</ele>
        <time>2020-06-16T13:53:12Z</time>
      </trkpt>
      <trkpt lat="49.38821" lon="-1.07789">
        <ele>2.8</ele>
        <time>2020-06-16T13:53:13Z</time>
      </trkpt>
      <trkpt lat="49.38821" lon="-1.07788">
        <ele>2.8</ele>
        <time>2020-06-16T13:53:14Z</time>
      </trkpt>
      <trkpt lat="49.38821" lon="-1.07787">
        <ele>2.8</ele>
        <time>2020-06-16T13:53:15Z</time>
      </trkpt>
      <trkpt lat="49.38821" lon="-1.07786">
        <ele>2.8</ele>
        <time>2020-06-16T13:53:16Z</time>
      </trkpt>
      <trkpt lat="49.38821" lon="-1.07785">
        <ele>2.8</ele>
        <time>2020-06-16T13:54:10Z</time>
      </trkpt>
      <trkpt lat="49.38821" lon="-1.07783">
        <ele>2.8</ele>
        <time>2020-06-16T13:54:11Z</time>
      </trkpt>
      <trkpt lat="49.38823" lon="-1.07779">
        <ele>2.8</ele>
        <time>2020-06-16T13:54:12Z</time>
      </trkpt>
      <trkpt lat="49.38823" lon="-1.07777">
        <ele>2.8</ele>
        <time>2020-06-16T13:54:13Z</time>
      </trkpt>
      <trkpt lat="49.38825" lon="-1.07773">
        <ele>2.8</ele>
        <time>2020-06-16T13:54:14Z</time>
      </trkpt>
      <trkpt lat="49.38827" lon="-1.07768">
        <ele>2.7</ele>
        <time>2020-06-16T13:54:15Z</time>
      </trkpt>
      <trkpt lat="49.38827" lon="-1.07766">
        <ele>2.7</ele>
        <time>2020-06-16T13:54:16Z</time>
      </trkpt>
      <trkpt lat="49.38829" lon="-1.07763">
        <ele>2.7</ele>
        <time>2020-06-16T13:54:17Z</time>
      </trkpt>
      <trkpt lat="49.3883" lon="-1.07759">
        <ele>2.7</ele>
        <time>2020-06-16T13:54:18Z</time>
      </trkpt>
      <trkpt lat="49.38832" lon="-1.07754">
        <ele>2.6</ele>
        <time>2020-06-16T13:54:19Z</time>
      </trkpt>
      <trkpt lat="49.38834" lon="-1.07749">
        <ele>2.6</ele>
        <time>2020-06-16T13:54:20Z</time>
      </trkpt>
      <trkpt lat="49.38836" lon="-1.07744">
        <ele>2.6</ele>
        <time>2020-06-16T13:54:21Z</time>
      </trkpt>
      <trkpt lat="49.38838" lon="-1.07739">
        <ele>2.6</ele>
        <time>2020-06-16T13:54:22Z</time>
      </trkpt>
      <trkpt lat="49.3884" lon="-1.07734">
        <ele>2.6</ele>
        <time>2020-06-16T13:54:23Z</time>
      </trkpt>
      <trkpt lat="49.38842" lon="-1.07727">
        <ele>2.6</ele>
        <time>2020-06-16T13:54:24Z</time>
      </trkpt>
      <trkpt lat="49.38843" lon="-1.07722">
        <ele>2.6</ele>
        <time>2020-06-16T13:54:25Z</time>
      </trkpt>
      <trkpt lat="49.38844" lon="-1.07716">
        <ele>2.6</ele>
        <time>2020-06-16T13:54:26Z</time>
      </trkpt>
      <trkpt lat="49.38846" lon="-1.07712">
        <ele>2.6</ele>
        <time>2020-06-16T13:54:27Z</time>
      </trkpt>
      <trkpt lat="49.38847" lon="-1.07709">
        <ele>2.6</ele>
        <time>2020-06-16T13:54:28Z</time>
      </trkpt>
      <trkpt lat="49.38849" lon="-1.07705">
        <ele>2.5</ele>
        <time>2020-06-16T13:54:29Z</time>
      </trkpt>
      <trkpt lat="49.3885" lon="-1.07699">
        <ele>2.5</ele>
        <time>2020-06-16T13:54:30Z</time>
      </trkpt>
      <trkpt lat="49.38851" lon="-1.07697">
        <ele>2.5</ele>
        <time>2020-06-16T13:54:31Z</time>
      </trkpt>
      <trkpt lat="49.38852" lon="-1.07692">
        <ele>2.5</ele>
        <time>2020-06-16T13:54:32Z</time>
      </trkpt>
      <trkpt lat="49.38853" lon="-1.07691">
        <ele>2.5</ele>
        <time>2020-06-16T13:54:33Z</time>
      </trkpt>
      <trkpt lat="49.38855" lon="-1.07686">
        <ele>2.5</ele>
        <time>2020-06-16T13:54:34Z</time>
      </trkpt>
      <trkpt lat="49.38856" lon="-1.07684">
        <ele>2.5</ele>
        <time>2020-06-16T13:54:35Z</time>
      </trkpt>
      <trkpt lat="49.38858" lon="-1.07681">
        <ele>2.5</ele>
        <time>2020-06-16T13:54:36Z</time>
      </trkpt>
      <trkpt lat="49.38859" lon="-1.07677">
        <ele>2.5</ele>
        <time>2020-06-16T13:54:37Z</time>
      </trkpt>
      <trkpt lat="49.38861" lon="-1.07673">
        <ele>2.5</ele>
        <time>2020-06-16T13:54:38Z</time>
      </trkpt>
      <trkpt lat="49.38862" lon="-1.07669">
        <ele>2.5</ele>
        <time>2020-06-16T13:54:39Z</time>
      </trkpt>
      <trkpt lat="49.38863" lon="-1.07665">
        <ele>2.5</ele>
        <time>2020-06-16T13:54:40Z</time>
      </trkpt>
      <trkpt lat="49.38865" lon="-1.0766">
        <ele>2.5</ele>
        <time>2020-06-16T13:54:41Z</time>
      </trkpt>
      <trkpt lat="49.38866" lon="-1.07656">
        <ele>2.5</ele>
        <time>2020-06-16T13:54:42Z</time>
      </trkpt>
      <trkpt lat="49.38867" lon="-1.07652">
        <ele>2.5</ele>
        <time>2020-06-16T13:54:43Z</time>
      </trkpt>
      <trkpt lat="49.38868" lon="-1.07647">
        <ele>2.5</ele>
        <time>2020-06-16T13:54:44Z</time>
      </trkpt>
      <trkpt lat="49.38868" lon="-1.07645">
        <ele>2.5</ele>
        <time>2020-06-16T13:54:45Z</time>
      </trkpt>
      <trkpt lat="49.38871" lon="-1.07641">
        <ele>2.5</ele>
        <time>2020-06-16T13:54:46Z</time>
      </trkpt>
      <trkpt lat="49.38871" lon="-1.07639">
        <ele>2.5</ele>
        <time>2020-06-16T13:54:47Z</time>
      </trkpt>
      <trkpt lat="49.38873" lon="-1.07635">
        <ele>2.5</ele>
        <time>2020-06-16T13:54:48Z</time>
      </trkpt>
      <trkpt lat="49.38874" lon="-1.07633">
        <ele>2.5</ele>
        <time>2020-06-16T13:54:49Z</time>
      </trkpt>
      <trkpt lat="49.38876" lon="-1.07628">
        <ele>2.4</ele>
        <time>2020-06-16T13:54:50Z</time>
      </trkpt>
      <trkpt lat="49.38876" lon="-1.07627">
        <ele>2.4</ele>
        <time>2020-06-16T13:54:51Z</time>
      </trkpt>
      <trkpt lat="49.38878" lon="-1.07622">
        <ele>2.4</ele>
        <time>2020-06-16T13:54:52Z</time>
      </trkpt>
      <trkpt lat="49.38879" lon="-1.0762">
        <ele>2.4</ele>
        <time>2020-06-16T13:54:53Z</time>
      </trkpt>
      <trkpt lat="49.38881" lon="-1.07614">
        <ele>2.4</ele>
        <time>2020-06-16T13:54:54Z</time>
      </trkpt>
      <trkpt lat="49.38882" lon="-1.07612">
        <ele>2.4</ele>
        <time>2020-06-16T13:54:55Z</time>
      </trkpt>
      <trkpt lat="49.38883" lon="-1.07607">
        <ele>2.4</ele>
        <time>2020-06-16T13:54:56Z</time>
      </trkpt>
      <trkpt lat="49.38885" lon="-1.07601">
        <ele>2.5</ele>
        <time>2020-06-16T13:54:57Z</time>
      </trkpt>
      <trkpt lat="49.38887" lon="-1.07596">
        <ele>2.5</ele>
        <time>2020-06-16T13:54:58Z</time>
      </trkpt>
      <trkpt lat="49.38888" lon="-1.07592">
        <ele>2.5</ele>
        <time>2020-06-16T13:54:59Z</time>
      </trkpt>
      <trkpt lat="49.38889" lon="-1.07587">
        <ele>2.5</ele>
        <time>2020-06-16T13:55:00Z</time>
      </trkpt>
      <trkpt lat="49.38891" lon="-1.07583">
        <ele>2.5</ele>
        <time>2020-06-16T13:55:01Z</time>
      </trkpt>
      <trkpt lat="49.38892" lon="-1.07579">
        <ele>2.5</ele>
        <time>2020-06-16T13:55:02Z</time>
      </trkpt>
      <trkpt lat="49.38892" lon="-1.07578">
        <ele>2.5</ele>
        <time>2020-06-16T13:55:03Z</time>
      </trkpt>
      <trkpt lat="49.38892" lon="-1.07575">
        <ele>2.5</ele>
        <time>2020-06-16T13:55:04Z</time>
      </trkpt>
      <trkpt lat="49.38893" lon="-1.07573">
        <ele>2.5</ele>
        <time>2020-06-16T13:55:05Z</time>
      </trkpt>
      <trkpt lat="49.38892" lon="-1.07571">
        <ele>2.5</ele>
        <time>2020-06-16T13:55:06Z</time>
      </trkpt>
      <trkpt lat="49.38892" lon="-1.07569">
        <ele>2.5</ele>
        <time>2020-06-16T13:55:07Z</time>
      </trkpt>
      <trkpt lat="49.38891" lon="-1.07568">
        <ele>2.5</ele>
        <time>2020-06-16T13:55:08Z</time>
      </trkpt>
      <trkpt lat="49.38891" lon="-1.07567">
        <ele>2.5</ele>
        <time>2020-06-16T13:55:09Z</time>
      </trkpt>
      <trkpt lat="49.38891" lon="-1.07566">
        <ele>2.5</ele>
        <time>2020-06-16T13:55:10Z</time>
      </trkpt>
      <trkpt lat="49.38891" lon="-1.07565">
        <ele>2.5</ele>
        <time>2020-06-16T13:55:11Z</time>
      </trkpt>
      <trkpt lat="49.38891" lon="-1.07564">
        <ele>2.5</ele>
        <time>2020-06-16T13:55:12Z</time>
      </trkpt>
      <trkpt lat="49.3889" lon="-1.07563">
        <ele>2.5</ele>
        <time>2020-06-16T13:55:13Z</time>
      </trkpt>
      <trkpt lat="49.38891" lon="-1.07563">
        <ele>2.5</ele>
        <time>2020-06-16T13:55:14Z</time>
      </trkpt>
      <trkpt lat="49.38891" lon="-1.07562">
        <ele>2.5</ele>
        <time>2020-06-16T13:55:15Z</time>
      </trkpt>
      <trkpt lat="49.38891" lon="-1.07561">
        <ele>2.5</ele>
        <time>2020-06-16T13:55:16Z</time>
      </trkpt>
      <trkpt lat="49.38891" lon="-1.07559">
        <ele>2.5</ele>
        <time>2020-06-16T13:55:17Z</time>
      </trkpt>
      <trkpt lat="49.38891" lon="-1.07557">
        <ele>2.5</ele>
        <time>2020-06-16T13:55:18Z</time>
      </trkpt>
      <trkpt lat="49.38891" lon="-1.07557">
        <ele>2.5</ele>
        <time>2020-06-16T13:55:19Z</time>
      </trkpt>
      <trkpt lat="49.38891" lon="-1.07556">
        <ele>2.5</ele>
        <time>2020-06-16T13:55:20Z</time>
      </trkpt>
      <trkpt lat="49.38891" lon="-1.07555">
        <ele>2.6</ele>
        <time>2020-06-16T13:55:21Z</time>
      </trkpt>
      <trkpt lat="49.38891" lon="-1.07553">
        <ele>2.6</ele>
        <time>2020-06-16T13:55:22Z</time>
      </trkpt>
      <trkpt lat="49.38891" lon="-1.07553">
        <ele>2.6</ele>
        <time>2020-06-16T13:55:23Z</time>
      </trkpt>
      <trkpt lat="49.38891" lon="-1.07552">
        <ele>2.6</ele>
        <time>2020-06-16T13:55:24Z</time>
      </trkpt>
      <trkpt lat="49.38891" lon="-1.07551">
        <ele>2.6</ele>
        <time>2020-06-16T13:55:25Z</time>
      </trkpt>
      <trkpt lat="49.38891" lon="-1.0755">
        <ele>2.6</ele>
        <time>2020-06-16T13:55:26Z</time>
      </trkpt>
      <trkpt lat="49.38891" lon="-1.07549">
        <ele>2.6</ele>
        <time>2020-06-16T13:55:27Z</time>
      </trkpt>
      <trkpt lat="49.38892" lon="-1.07548">
        <ele>2.6</ele>
        <time>2020-06-16T13:55:28Z</time>
      </trkpt>
      <trkpt lat="49.38893" lon="-1.07547">
        <ele>2.6</ele>
        <time>2020-06-16T13:55:29Z</time>
      </trkpt>
      <trkpt lat="49.38893" lon="-1.07545">
        <ele>2.6</ele>
        <time>2020-06-16T13:55:30Z</time>
      </trkpt>
      <trkpt lat="49.38893" lon="-1.07545">
        <ele>2.6</ele>
        <time>2020-06-16T13:55:31Z</time>
      </trkpt>
      <trkpt lat="49.38894" lon="-1.07544">
        <ele>2.6</ele>
        <time>2020-06-16T13:55:32Z</time>
      </trkpt>
      <trkpt lat="49.38895" lon="-1.07543">
        <ele>2.6</ele>
        <time>2020-06-16T13:55:33Z</time>
      </trkpt>
      <trkpt lat="49.38895" lon="-1.07542">
        <ele>2.6</ele>
        <time>2020-06-16T13:55:34Z</time>
      </trkpt>
      <trkpt lat="49.38896" lon="-1.07542">
        <ele>2.6</ele>
        <time>2020-06-16T13:55:35Z</time>
      </trkpt>
      <trkpt lat="49.38895" lon="-1.07541">
        <ele>2.6</ele>
        <time>2020-06-16T13:55:36Z</time>
      </trkpt>
      <trkpt lat="49.38895" lon="-1.07541">
        <ele>2.6</ele>
        <time>2020-06-16T13:55:37Z</time>
      </trkpt>
      <trkpt lat="49.38894" lon="-1.07541">
        <ele>2.6</ele>
        <time>2020-06-16T13:55:38Z</time>
      </trkpt>
      <trkpt lat="49.38894" lon="-1.0754">
        <ele>2.6</ele>
        <time>2020-06-16T13:55:39Z</time>
      </trkpt>
      <trkpt lat="49.38895" lon="-1.0754">
        <ele>2.6</ele>
        <time>2020-06-16T13:55:40Z</time>
      </trkpt>
      <trkpt lat="49.38895" lon="-1.07538">
        <ele>2.6</ele>
        <time>2020-06-16T13:55:41Z</time>
      </trkpt>
      <trkpt lat="49.38896" lon="-1.07536">
        <ele>2.7</ele>
        <time>2020-06-16T13:55:42Z</time>
      </trkpt>
      <trkpt lat="49.38896" lon="-1.07535">
        <ele>2.7</ele>
        <time>2020-06-16T13:55:43Z</time>
      </trkpt>
      <trkpt lat="49.38896" lon="-1.07534">
        <ele>2.7</ele>
        <time>2020-06-16T13:55:44Z</time>
      </trkpt>
      <trkpt lat="49.38896" lon="-1.07532">
        <ele>2.7</ele>
        <time>2020-06-16T13:55:45Z</time>
      </trkpt>
      <trkpt lat="49.38896" lon="-1.0753">
        <ele>2.7</ele>
        <time>2020-06-16T13:55:46Z</time>
      </trkpt>
      <trkpt lat="49.38896" lon="-1.07529">
        <ele>2.7</ele>
        <time>2020-06-16T13:55:47Z</time>
      </trkpt>
      <trkpt lat="49.38896" lon="-1.07527">
        <ele>2.7</ele>
        <time>2020-06-16T13:55:48Z</time>
      </trkpt>
      <trkpt lat="49.38896" lon="-1.07526">
        <ele>2.7</ele>
        <time>2020-06-16T13:55:49Z</time>
      </trkpt>
      <trkpt lat="49.38896" lon="-1.07524">
        <ele>2.7</ele>
        <time>2020-06-16T13:55:50Z</time>
      </trkpt>
      <trkpt lat="49.38896" lon="-1.07522">
        <ele>2.7</ele>
        <time>2020-06-16T13:55:51Z</time>
      </trkpt>
      <trkpt lat="49.38896" lon="-1.07521">
        <ele>2.7</ele>
        <time>2020-06-16T13:55:52Z</time>
      </trkpt>
      <trkpt lat="49.38896" lon="-1.07519">
        <ele>2.7</ele>
        <time>2020-06-16T13:55:53Z</time>
      </trkpt>
      <trkpt lat="49.38896" lon="-1.07517">
        <ele>2.7</ele>
        <time>2020-06-16T13:55:54Z</time>
      </trkpt>
      <trkpt lat="49.38896" lon="-1.07516">
        <ele>2.7</ele>
        <time>2020-06-16T13:55:55Z</time>
      </trkpt>
      <trkpt lat="49.38897" lon="-1.07515">
        <ele>2.7</ele>
        <time>2020-06-16T13:55:56Z</time>
      </trkpt>
      <trkpt lat="49.38897" lon="-1.07514">
        <ele>2.7</ele>
        <time>2020-06-16T13:55:57Z</time>
      </trkpt>
      <trkpt lat="49.38897" lon="-1.07514">
        <ele>2.7</ele>
        <time>2020-06-16T13:55:58Z</time>
      </trkpt>
      <trkpt lat="49.38896" lon="-1.07513">
        <ele>2.7</ele>
        <time>2020-06-16T13:55:59Z</time>
      </trkpt>
      <trkpt lat="49.38896" lon="-1.07512">
        <ele>2.7</ele>
        <time>2020-06-16T13:56:00Z</time>
      </trkpt>
      <trkpt lat="49.38895" lon="-1.07511">
        <ele>2.7</ele>
        <time>2020-06-16T13:56:01Z</time>
      </trkpt>
      <trkpt lat="49.38894" lon="-1.07509">
        <ele>2.7</ele>
        <time>2020-06-16T13:56:02Z</time>
      </trkpt>
      <trkpt lat="49.38893" lon="-1.07507">
        <ele>2.7</ele>
        <time>2020-06-16T13:56:03Z</time>
      </trkpt>
      <trkpt lat="49.38892" lon="-1.07505">
        <ele>2.7</ele>
        <time>2020-06-16T13:56:04Z</time>
      </trkpt>
      <trkpt lat="49.38893" lon="-1.07499">
        <ele>2.7</ele>
        <time>2020-06-16T13:56:05Z</time>
      </trkpt>
      <trkpt lat="49.38893" lon="-1.07497">
        <ele>2.7</ele>
        <time>2020-06-16T13:56:06Z</time>
      </trkpt>
      <trkpt lat="49.38894" lon="-1.07494">
        <ele>2.7</ele>
        <time>2020-06-16T13:56:07Z</time>
      </trkpt>
      <trkpt lat="49.38895" lon="-1.07493">
        <ele>2.7</ele>
        <time>2020-06-16T13:56:08Z</time>
      </trkpt>
      <trkpt lat="49.38895" lon="-1.07492">
        <ele>2.7</ele>
        <time>2020-06-16T13:56:09Z</time>
      </trkpt>
      <trkpt lat="49.38896" lon="-1.07487">
        <ele>2.7</ele>
        <time>2020-06-16T13:56:10Z</time>
      </trkpt>
      <trkpt lat="49.38897" lon="-1.07486">
        <ele>2.6</ele>
        <time>2020-06-16T13:56:11Z</time>
      </trkpt>
      <trkpt lat="49.38899" lon="-1.0748">
        <ele>2.6</ele>
        <time>2020-06-16T13:56:12Z</time>
      </trkpt>
      <trkpt lat="49.389" lon="-1.07478">
        <ele>2.6</ele>
        <time>2020-06-16T13:56:13Z</time>
      </trkpt>
      <trkpt lat="49.38902" lon="-1.07473">
        <ele>2.6</ele>
        <time>2020-06-16T13:56:14Z</time>
      </trkpt>
      <trkpt lat="49.38903" lon="-1.07471">
        <ele>2.6</ele>
        <time>2020-06-16T13:56:15Z</time>
      </trkpt>
      <trkpt lat="49.38905" lon="-1.07468">
        <ele>2.5</ele>
        <time>2020-06-16T13:56:16Z</time>
      </trkpt>
      <trkpt lat="49.38907" lon="-1.07465">
        <ele>2.5</ele>
        <time>2020-06-16T13:56:17Z</time>
      </trkpt>
      <trkpt lat="49.38909" lon="-1.07461">
        <ele>2.5</ele>
        <time>2020-06-16T13:56:18Z</time>
      </trkpt>
      <trkpt lat="49.38911" lon="-1.07456">
        <ele>2.5</ele>
        <time>2020-06-16T13:56:19Z</time>
      </trkpt>
      <trkpt lat="49.38912" lon="-1.07451">
        <ele>2.4</ele>
        <time>2020-06-16T13:56:20Z</time>
      </trkpt>
      <trkpt lat="49.38914" lon="-1.07445">
        <ele>2.4</ele>
        <time>2020-06-16T13:56:21Z</time>
      </trkpt>
      <trkpt lat="49.38915" lon="-1.07439">
        <ele>2.4</ele>
        <time>2020-06-16T13:56:22Z</time>
      </trkpt>
      <trkpt lat="49.38917" lon="-1.07434">
        <ele>2.3</ele>
        <time>2020-06-16T13:56:23Z</time>
      </trkpt>
      <trkpt lat="49.38918" lon="-1.07428">
        <ele>2.3</ele>
        <time>2020-06-16T13:56:24Z</time>
      </trkpt>
      <trkpt lat="49.3892" lon="-1.07422">
        <ele>2.2</ele>
        <time>2020-06-16T13:56:25Z</time>
      </trkpt>
      <trkpt lat="49.38922" lon="-1.07416">
        <ele>2.2</ele>
        <time>2020-06-16T13:56:26Z</time>
      </trkpt>
      <trkpt lat="49.38924" lon="-1.07409">
        <ele>2.1</ele>
        <time>2020-06-16T13:56:27Z</time>
      </trkpt>
      <trkpt lat="49.38925" lon="-1.07402">
        <ele>2.1</ele>
        <time>2020-06-16T13:56:28Z</time>
      </trkpt>
      <trkpt lat="49.38927" lon="-1.07396">
        <ele>2</ele>
        <time>2020-06-16T13:56:29Z</time>
      </trkpt>
      <trkpt lat="49.38929" lon="-1.0739">
        <ele>1.9</ele>
        <time>2020-06-16T13:56:30Z</time>
      </trkpt>
      <trkpt lat="49.38931" lon="-1.07384">
        <ele>1.7</ele>
        <time>2020-06-16T13:56:31Z</time>
      </trkpt>
      <trkpt lat="49.38934" lon="-1.07379">
        <ele>1.8</ele>
        <time>2020-06-16T13:56:32Z</time>
      </trkpt>
      <trkpt lat="49.38936" lon="-1.07374">
        <ele>1.9</ele>
        <time>2020-06-16T13:56:33Z</time>
      </trkpt>
      <trkpt lat="49.38939" lon="-1.07368">
        <ele>1.9</ele>
        <time>2020-06-16T13:56:34Z</time>
      </trkpt>
      <trkpt lat="49.3894" lon="-1.07363">
        <ele>1.9</ele>
        <time>2020-06-16T13:56:35Z</time>
      </trkpt>
      <trkpt lat="49.38942" lon="-1.07357">
        <ele>1.9</ele>
        <time>2020-06-16T13:56:36Z</time>
      </trkpt>
      <trkpt lat="49.38944" lon="-1.07351">
        <ele>1.9</ele>
        <time>2020-06-16T13:56:37Z</time>
      </trkpt>
      <trkpt lat="49.38946" lon="-1.07345">
        <ele>1.9</ele>
        <time>2020-06-16T13:56:38Z</time>
      </trkpt>
      <trkpt lat="49.38948" lon="-1.07339">
        <ele>1.9</ele>
        <time>2020-06-16T13:56:39Z</time>
      </trkpt>
      <trkpt lat="49.3895" lon="-1.07332">
        <ele>1.9</ele>
        <time>2020-06-16T13:56:40Z</time>
      </trkpt>
      <trkpt lat="49.38952" lon="-1.07326">
        <ele>1.9</ele>
        <time>2020-06-16T13:56:41Z</time>
      </trkpt>
      <trkpt lat="49.38954" lon="-1.0732">
        <ele>1.9</ele>
        <time>2020-06-16T13:56:42Z</time>
      </trkpt>
      <trkpt lat="49.38955" lon="-1.07313">
        <ele>1.9</ele>
        <time>2020-06-16T13:56:43Z</time>
      </trkpt>
      <trkpt lat="49.38957" lon="-1.07306">
        <ele>1.9</ele>
        <time>2020-06-16T13:56:44Z</time>
      </trkpt>
      <trkpt lat="49.38959" lon="-1.07299">
        <ele>1.9</ele>
        <time>2020-06-16T13:56:45Z</time>
      </trkpt>
      <trkpt lat="49.38961" lon="-1.07292">
        <ele>1.9</ele>
        <time>2020-06-16T13:56:46Z</time>
      </trkpt>
      <trkpt lat="49.38962" lon="-1.07285">
        <ele>1.9</ele>
        <time>2020-06-16T13:56:47Z</time>
      </trkpt>
      <trkpt lat="49.38964" lon="-1.07279">
        <ele>1.9</ele>
        <time>2020-06-16T13:56:48Z</time>
      </trkpt>
      <trkpt lat="49.38965" lon="-1.07272">
        <ele>1.9</ele>
        <time>2020-06-16T13:56:49Z</time>
      </trkpt>
      <trkpt lat="49.38967" lon="-1.07266">
        <ele>1.9</ele>
        <time>2020-06-16T13:56:50Z</time>
      </trkpt>
      <trkpt lat="49.38968" lon="-1.0726">
        <ele>1.9</ele>
        <time>2020-06-16T13:56:51Z</time>
      </trkpt>
      <trkpt lat="49.38969" lon="-1.07255">
        <ele>1.9</ele>
        <time>2020-06-16T13:56:52Z</time>
      </trkpt>
      <trkpt lat="49.3897" lon="-1.07249">
        <ele>1.9</ele>
        <time>2020-06-16T13:56:53Z</time>
      </trkpt>
      <trkpt lat="49.38971" lon="-1.07243">
        <ele>1.9</ele>
        <time>2020-06-16T13:56:54Z</time>
      </trkpt>
      <trkpt lat="49.38972" lon="-1.07238">
        <ele>1.8</ele>
        <time>2020-06-16T13:56:55Z</time>
      </trkpt>
      <trkpt lat="49.38974" lon="-1.07232">
        <ele>1.8</ele>
        <time>2020-06-16T13:56:56Z</time>
      </trkpt>
      <trkpt lat="49.38975" lon="-1.07227">
        <ele>1.8</ele>
        <time>2020-06-16T13:56:57Z</time>
      </trkpt>
      <trkpt lat="49.38976" lon="-1.07222">
        <ele>1.7</ele>
        <time>2020-06-16T13:56:58Z</time>
      </trkpt>
      <trkpt lat="49.38978" lon="-1.07216">
        <ele>1.7</ele>
        <time>2020-06-16T13:56:59Z</time>
      </trkpt>
      <trkpt lat="49.38979" lon="-1.0721">
        <ele>1.7</ele>
        <time>2020-06-16T13:57:00Z</time>
      </trkpt>
      <trkpt lat="49.38981" lon="-1.07205">
        <ele>1.7</ele>
        <time>2020-06-16T13:57:01Z</time>
      </trkpt>
      <trkpt lat="49.38982" lon="-1.072">
        <ele>1.6</ele>
        <time>2020-06-16T13:57:02Z</time>
      </trkpt>
      <trkpt lat="49.38983" lon="-1.07195">
        <ele>1.6</ele>
        <time>2020-06-16T13:57:03Z</time>
      </trkpt>
      <trkpt lat="49.38985" lon="-1.0719">
        <ele>1.7</ele>
        <time>2020-06-16T13:57:04Z</time>
      </trkpt>
      <trkpt lat="49.38987" lon="-1.07184">
        <ele>1.7</ele>
        <time>2020-06-16T13:57:05Z</time>
      </trkpt>
      <trkpt lat="49.38988" lon="-1.07178">
        <ele>1.7</ele>
        <time>2020-06-16T13:57:06Z</time>
      </trkpt>
      <trkpt lat="49.38989" lon="-1.07172">
        <ele>1.8</ele>
        <time>2020-06-16T13:57:07Z</time>
      </trkpt>
      <trkpt lat="49.3899" lon="-1.07166">
        <ele>1.8</ele>
        <time>2020-06-16T13:57:08Z</time>
      </trkpt>
      <trkpt lat="49.3899" lon="-1.0716">
        <ele>1.8</ele>
        <time>2020-06-16T13:57:09Z</time>
      </trkpt>
      <trkpt lat="49.38991" lon="-1.07155">
        <ele>1.9</ele>
        <time>2020-06-16T13:57:10Z</time>
      </trkpt>
      <trkpt lat="49.38992" lon="-1.07151">
        <ele>1.9</ele>
        <time>2020-06-16T13:57:11Z</time>
      </trkpt>
      <trkpt lat="49.38993" lon="-1.07146">
        <ele>1.9</ele>
        <time>2020-06-16T13:57:12Z</time>
      </trkpt>
      <trkpt lat="49.38995" lon="-1.07141">
        <ele>1.9</ele>
        <time>2020-06-16T13:57:13Z</time>
      </trkpt>
      <trkpt lat="49.38996" lon="-1.07136">
        <ele>1.9</ele>
        <time>2020-06-16T13:57:14Z</time>
      </trkpt>
      <trkpt lat="49.38997" lon="-1.07131">
        <ele>1.9</ele>
        <time>2020-06-16T13:57:15Z</time>
      </trkpt>
      <trkpt lat="49.38998" lon="-1.07127">
        <ele>1.9</ele>
        <time>2020-06-16T13:57:16Z</time>
      </trkpt>
      <trkpt lat="49.39" lon="-1.07123">
        <ele>1.8</ele>
        <time>2020-06-16T13:57:17Z</time>
      </trkpt>
      <trkpt lat="49.39001" lon="-1.07118">
        <ele>1.8</ele>
        <time>2020-06-16T13:57:18Z</time>
      </trkpt>
      <trkpt lat="49.39003" lon="-1.07114">
        <ele>1.8</ele>
        <time>2020-06-16T13:57:19Z</time>
      </trkpt>
      <trkpt lat="49.39004" lon="-1.07109">
        <ele>1.8</ele>
        <time>2020-06-16T13:57:20Z</time>
      </trkpt>
      <trkpt lat="49.39006" lon="-1.07104">
        <ele>1.8</ele>
        <time>2020-06-16T13:57:21Z</time>
      </trkpt>
      <trkpt lat="49.39007" lon="-1.07099">
        <ele>1.8</ele>
        <time>2020-06-16T13:57:22Z</time>
      </trkpt>
      <trkpt lat="49.39009" lon="-1.07095">
        <ele>1.8</ele>
        <time>2020-06-16T13:57:23Z</time>
      </trkpt>
      <trkpt lat="49.3901" lon="-1.07091">
        <ele>1.9</ele>
        <time>2020-06-16T13:57:24Z</time>
      </trkpt>
      <trkpt lat="49.39011" lon="-1.07087">
        <ele>1.9</ele>
        <time>2020-06-16T13:57:25Z</time>
      </trkpt>
      <trkpt lat="49.39012" lon="-1.07081">
        <ele>1.9</ele>
        <time>2020-06-16T13:57:26Z</time>
      </trkpt>
      <trkpt lat="49.39013" lon="-1.0708">
        <ele>1.9</ele>
        <time>2020-06-16T13:57:27Z</time>
      </trkpt>
      <trkpt lat="49.39014" lon="-1.07075">
        <ele>2</ele>
        <time>2020-06-16T13:57:28Z</time>
      </trkpt>
      <trkpt lat="49.39015" lon="-1.07074">
        <ele>2</ele>
        <time>2020-06-16T13:57:29Z</time>
      </trkpt>
      <trkpt lat="49.39017" lon="-1.07069">
        <ele>2</ele>
        <time>2020-06-16T13:57:30Z</time>
      </trkpt>
      <trkpt lat="49.39017" lon="-1.07068">
        <ele>2</ele>
        <time>2020-06-16T13:57:31Z</time>
      </trkpt>
      <trkpt lat="49.39019" lon="-1.07063">
        <ele>2</ele>
        <time>2020-06-16T13:57:32Z</time>
      </trkpt>
      <trkpt lat="49.39019" lon="-1.07061">
        <ele>2</ele>
        <time>2020-06-16T13:57:33Z</time>
      </trkpt>
      <trkpt lat="49.3902" lon="-1.07056">
        <ele>2</ele>
        <time>2020-06-16T13:57:34Z</time>
      </trkpt>
      <trkpt lat="49.39021" lon="-1.07054">
        <ele>2</ele>
        <time>2020-06-16T13:57:35Z</time>
      </trkpt>
      <trkpt lat="49.39022" lon="-1.07049">
        <ele>2</ele>
        <time>2020-06-16T13:57:36Z</time>
      </trkpt>
      <trkpt lat="49.39023" lon="-1.07048">
        <ele>2</ele>
        <time>2020-06-16T13:57:37Z</time>
      </trkpt>
      <trkpt lat="49.39023" lon="-1.07045">
        <ele>2</ele>
        <time>2020-06-16T13:57:38Z</time>
      </trkpt>
      <trkpt lat="49.39023" lon="-1.07044">
        <ele>2</ele>
        <time>2020-06-16T13:57:39Z</time>
      </trkpt>
      <trkpt lat="49.39024" lon="-1.07041">
        <ele>2</ele>
        <time>2020-06-16T13:57:40Z</time>
      </trkpt>
      <trkpt lat="49.39024" lon="-1.07039">
        <ele>1.9</ele>
        <time>2020-06-16T13:57:41Z</time>
      </trkpt>
      <trkpt lat="49.39024" lon="-1.07038">
        <ele>1.9</ele>
        <time>2020-06-16T13:57:42Z</time>
      </trkpt>
      <trkpt lat="49.39025" lon="-1.07035">
        <ele>1.9</ele>
        <time>2020-06-16T13:57:43Z</time>
      </trkpt>
      <trkpt lat="49.39025" lon="-1.07033">
        <ele>1.9</ele>
        <time>2020-06-16T13:57:44Z</time>
      </trkpt>
      <trkpt lat="49.39026" lon="-1.0703">
        <ele>1.9</ele>
        <time>2020-06-16T13:57:45Z</time>
      </trkpt>
      <trkpt lat="49.39026" lon="-1.07028">
        <ele>1.9</ele>
        <time>2020-06-16T13:57:46Z</time>
      </trkpt>
      <trkpt lat="49.39026" lon="-1.07026">
        <ele>1.8</ele>
        <time>2020-06-16T13:57:47Z</time>
      </trkpt>
      <trkpt lat="49.39027" lon="-1.07024">
        <ele>1.8</ele>
        <time>2020-06-16T13:57:48Z</time>
      </trkpt>
      <trkpt lat="49.39027" lon="-1.07023">
        <ele>1.8</ele>
        <time>2020-06-16T13:57:49Z</time>
      </trkpt>
      <trkpt lat="49.39027" lon="-1.0702">
        <ele>1.8</ele>
        <time>2020-06-16T13:57:50Z</time>
      </trkpt>
      <trkpt lat="49.39026" lon="-1.07018">
        <ele>1.8</ele>
        <time>2020-06-16T13:57:51Z</time>
      </trkpt>
      <trkpt lat="49.39023" lon="-1.07015">
        <ele>1.7</ele>
        <time>2020-06-16T13:57:52Z</time>
      </trkpt>
      <trkpt lat="49.39022" lon="-1.07013">
        <ele>1.7</ele>
        <time>2020-06-16T13:57:53Z</time>
      </trkpt>
      <trkpt lat="49.39019" lon="-1.07009">
        <ele>1.7</ele>
        <time>2020-06-16T13:57:54Z</time>
      </trkpt>
      <trkpt lat="49.39018" lon="-1.07008">
        <ele>1.7</ele>
        <time>2020-06-16T13:57:55Z</time>
      </trkpt>
      <trkpt lat="49.39016" lon="-1.07005">
        <ele>1.7</ele>
        <time>2020-06-16T13:57:56Z</time>
      </trkpt>
      <trkpt lat="49.39015" lon="-1.07005">
        <ele>1.7</ele>
        <time>2020-06-16T13:57:57Z</time>
      </trkpt>
      <trkpt lat="49.39013" lon="-1.07004">
        <ele>1.7</ele>
        <time>2020-06-16T13:57:58Z</time>
      </trkpt>
      <trkpt lat="49.39012" lon="-1.07002">
        <ele>1.7</ele>
        <time>2020-06-16T13:57:59Z</time>
      </trkpt>
      <trkpt lat="49.39009" lon="-1.06998">
        <ele>1.7</ele>
        <time>2020-06-16T13:58:00Z</time>
      </trkpt>
      <trkpt lat="49.39008" lon="-1.06996">
        <ele>1.7</ele>
        <time>2020-06-16T13:58:01Z</time>
      </trkpt>
      <trkpt lat="49.39006" lon="-1.06991">
        <ele>1.7</ele>
        <time>2020-06-16T13:58:02Z</time>
      </trkpt>
      <trkpt lat="49.39003" lon="-1.06986">
        <ele>1.7</ele>
        <time>2020-06-16T13:58:03Z</time>
      </trkpt>
      <trkpt lat="49.39001" lon="-1.06982">
        <ele>1.7</ele>
        <time>2020-06-16T13:58:04Z</time>
      </trkpt>
      <trkpt lat="49.38999" lon="-1.0698">
        <ele>1.7</ele>
        <time>2020-06-16T13:58:05Z</time>
      </trkpt>
      <trkpt lat="49.38995" lon="-1.06978">
        <ele>1.7</ele>
        <time>2020-06-16T13:58:06Z</time>
      </trkpt>
      <trkpt lat="49.38994" lon="-1.06977">
        <ele>1.7</ele>
        <time>2020-06-16T13:58:07Z</time>
      </trkpt>
      <trkpt lat="49.38992" lon="-1.06973">
        <ele>1.7</ele>
        <time>2020-06-16T13:58:08Z</time>
      </trkpt>
      <trkpt lat="49.38991" lon="-1.06972">
        <ele>1.7</ele>
        <time>2020-06-16T13:58:09Z</time>
      </trkpt>
      <trkpt lat="49.38989" lon="-1.06969">
        <ele>1.8</ele>
        <time>2020-06-16T13:58:10Z</time>
      </trkpt>
      <trkpt lat="49.38988" lon="-1.06968">
        <ele>1.8</ele>
        <time>2020-06-16T13:58:11Z</time>
      </trkpt>
      <trkpt lat="49.38987" lon="-1.06966">
        <ele>1.8</ele>
        <time>2020-06-16T13:58:12Z</time>
      </trkpt>
      <trkpt lat="49.38985" lon="-1.06965">
        <ele>1.9</ele>
        <time>2020-06-16T13:58:13Z</time>
      </trkpt>
      <trkpt lat="49.38984" lon="-1.06961">
        <ele>1.9</ele>
        <time>2020-06-16T13:58:14Z</time>
      </trkpt>
      <trkpt lat="49.38983" lon="-1.06959">
        <ele>1.9</ele>
        <time>2020-06-16T13:58:15Z</time>
      </trkpt>
      <trkpt lat="49.38982" lon="-1.06958">
        <ele>2</ele>
        <time>2020-06-16T13:58:16Z</time>
      </trkpt>
      <trkpt lat="49.38981" lon="-1.06958">
        <ele>2</ele>
        <time>2020-06-16T13:58:17Z</time>
      </trkpt>
      <trkpt lat="49.38981" lon="-1.06956">
        <ele>2</ele>
        <time>2020-06-16T13:58:18Z</time>
      </trkpt>
      <trkpt lat="49.38981" lon="-1.06955">
        <ele>2.1</ele>
        <time>2020-06-16T13:58:19Z</time>
      </trkpt>
      <trkpt lat="49.38981" lon="-1.06955">
        <ele>2.1</ele>
        <time>2020-06-16T13:58:20Z</time>
      </trkpt>
      <trkpt lat="49.38981" lon="-1.06955">
        <ele>2.1</ele>
        <time>2020-06-16T13:58:21Z</time>
      </trkpt>
      <trkpt lat="49.3898" lon="-1.06953">
        <ele>2.1</ele>
        <time>2020-06-16T13:58:22Z</time>
      </trkpt>
      <trkpt lat="49.38978" lon="-1.06952">
        <ele>2.2</ele>
        <time>2020-06-16T13:58:23Z</time>
      </trkpt>
      <trkpt lat="49.38978" lon="-1.06951">
        <ele>2.2</ele>
        <time>2020-06-16T13:58:24Z</time>
      </trkpt>
      <trkpt lat="49.38976" lon="-1.06951">
        <ele>2.2</ele>
        <time>2020-06-16T13:58:25Z</time>
      </trkpt>
      <trkpt lat="49.38976" lon="-1.06951">
        <ele>2.2</ele>
        <time>2020-06-16T13:58:26Z</time>
      </trkpt>
      <trkpt lat="49.38974" lon="-1.0695">
        <ele>2.3</ele>
        <time>2020-06-16T13:58:27Z</time>
      </trkpt>
      <trkpt lat="49.38973" lon="-1.0695">
        <ele>2.3</ele>
        <time>2020-06-16T13:58:28Z</time>
      </trkpt>
      <trkpt lat="49.38972" lon="-1.0695">
        <ele>2.3</ele>
        <time>2020-06-16T13:58:29Z</time>
      </trkpt>
      <trkpt lat="49.38971" lon="-1.0695">
        <ele>2.4</ele>
        <time>2020-06-16T13:58:30Z</time>
      </trkpt>
      <trkpt lat="49.38969" lon="-1.0695">
        <ele>2.4</ele>
        <time>2020-06-16T13:58:31Z</time>
      </trkpt>
      <trkpt lat="49.38968" lon="-1.06948">
        <ele>2.5</ele>
        <time>2020-06-16T13:58:32Z</time>
      </trkpt>
      <trkpt lat="49.38968" lon="-1.06948">
        <ele>2.5</ele>
        <time>2020-06-16T13:58:33Z</time>
      </trkpt>
      <trkpt lat="49.38967" lon="-1.06948">
        <ele>2.5</ele>
        <time>2020-06-16T13:58:34Z</time>
      </trkpt>
      <trkpt lat="49.38965" lon="-1.06945">
        <ele>2.5</ele>
        <time>2020-06-16T13:58:35Z</time>
      </trkpt>
      <trkpt lat="49.38965" lon="-1.06944">
        <ele>2.6</ele>
        <time>2020-06-16T13:58:36Z</time>
      </trkpt>
      <trkpt lat="49.38964" lon="-1.06943">
        <ele>2.6</ele>
        <time>2020-06-16T13:58:37Z</time>
      </trkpt>
      <trkpt lat="49.38962" lon="-1.06941">
        <ele>2.6</ele>
        <time>2020-06-16T13:58:38Z</time>
      </trkpt>
      <trkpt lat="49.38961" lon="-1.0694">
        <ele>2.7</ele>
        <time>2020-06-16T13:58:39Z</time>
      </trkpt>
      <trkpt lat="49.3896" lon="-1.06939">
        <ele>2.7</ele>
        <time>2020-06-16T13:58:40Z</time>
      </trkpt>
      <trkpt lat="49.38959" lon="-1.06938">
        <ele>2.7</ele>
        <time>2020-06-16T13:58:41Z</time>
      </trkpt>
      <trkpt lat="49.38959" lon="-1.06937">
        <ele>2.8</ele>
        <time>2020-06-16T13:58:42Z</time>
      </trkpt>
      <trkpt lat="49.38958" lon="-1.06935">
        <ele>2.8</ele>
        <time>2020-06-16T13:58:43Z</time>
      </trkpt>
      <trkpt lat="49.38957" lon="-1.06935">
        <ele>2.8</ele>
        <time>2020-06-16T13:58:44Z</time>
      </trkpt>
      <trkpt lat="49.38956" lon="-1.06934">
        <ele>2.8</ele>
        <time>2020-06-16T13:58:45Z</time>
      </trkpt>
      <trkpt lat="49.38955" lon="-1.06934">
        <ele>2.9</ele>
        <time>2020-06-16T13:58:46Z</time>
      </trkpt>
      <trkpt lat="49.38955" lon="-1.06933">
        <ele>2.9</ele>
        <time>2020-06-16T13:58:47Z</time>
      </trkpt>
      <trkpt lat="49.38955" lon="-1.06933">
        <ele>2.9</ele>
        <time>2020-06-16T13:58:48Z</time>
      </trkpt>
      <trkpt lat="49.38955" lon="-1.06933">
        <ele>2.9</ele>
        <time>2020-06-16T13:58:49Z</time>
      </trkpt>
      <trkpt lat="49.38955" lon="-1.06933">
        <ele>2.9</ele>
        <time>2020-06-16T13:58:50Z</time>
      </trkpt>
      <trkpt lat="49.38954" lon="-1.06931">
        <ele>2.9</ele>
        <time>2020-06-16T13:58:51Z</time>
      </trkpt>
      <trkpt lat="49.38954" lon="-1.06931">
        <ele>2.9</ele>
        <time>2020-06-16T13:58:52Z</time>
      </trkpt>
      <trkpt lat="49.38953" lon="-1.0693">
        <ele>2.9</ele>
        <time>2020-06-16T13:58:53Z</time>
      </trkpt>
      <trkpt lat="49.38953" lon="-1.0693">
        <ele>2.9</ele>
        <time>2020-06-16T13:58:54Z</time>
      </trkpt>
      <trkpt lat="49.38953" lon="-1.0693">
        <ele>2.9</ele>
        <time>2020-06-16T13:58:55Z</time>
      </trkpt>
      <trkpt lat="49.38953" lon="-1.06929">
        <ele>2.9</ele>
        <time>2020-06-16T13:58:56Z</time>
      </trkpt>
      <trkpt lat="49.38953" lon="-1.06929">
        <ele>2.8</ele>
        <time>2020-06-16T13:58:57Z</time>
      </trkpt>
      <trkpt lat="49.38953" lon="-1.06928">
        <ele>2.8</ele>
        <time>2020-06-16T13:58:58Z</time>
      </trkpt>
      <trkpt lat="49.38953" lon="-1.06929">
        <ele>2.8</ele>
        <time>2020-06-16T13:58:59Z</time>
      </trkpt>
      <trkpt lat="49.38953" lon="-1.06928">
        <ele>2.8</ele>
        <time>2020-06-16T13:59:00Z</time>
      </trkpt>
      <trkpt lat="49.38953" lon="-1.06928">
        <ele>2.8</ele>
        <time>2020-06-16T13:59:01Z</time>
      </trkpt>
      <trkpt lat="49.38953" lon="-1.06928">
        <ele>2.8</ele>
        <time>2020-06-16T13:59:02Z</time>
      </trkpt>
      <trkpt lat="49.38953" lon="-1.06928">
        <ele>2.8</ele>
        <time>2020-06-16T13:59:03Z</time>
      </trkpt>
      <trkpt lat="49.38953" lon="-1.06927">
        <ele>2.8</ele>
        <time>2020-06-16T13:59:04Z</time>
      </trkpt>
      <trkpt lat="49.38953" lon="-1.06927">
        <ele>2.8</ele>
        <time>2020-06-16T13:59:05Z</time>
      </trkpt>
      <trkpt lat="49.38953" lon="-1.06927">
        <ele>2.8</ele>
        <time>2020-06-16T13:59:06Z</time>
      </trkpt>
      <trkpt lat="49.38953" lon="-1.06927">
        <ele>2.8</ele>
        <time>2020-06-16T13:59:07Z</time>
      </trkpt>
      <trkpt lat="49.38953" lon="-1.06927">
        <ele>2.8</ele>
        <time>2020-06-16T13:59:08Z</time>
      </trkpt>
      <trkpt lat="49.38954" lon="-1.06923">
        <ele>2.8</ele>
        <time>2020-06-16T13:59:30Z</time>
      </trkpt>
      <trkpt lat="49.38955" lon="-1.06924">
        <ele>2.8</ele>
        <time>2020-06-16T13:59:31Z</time>
      </trkpt>
      <trkpt lat="49.38955" lon="-1.06925">
        <ele>2.8</ele>
        <time>2020-06-16T13:59:32Z</time>
      </trkpt>
      <trkpt lat="49.38955" lon="-1.06926">
        <ele>2.8</ele>
        <time>2020-06-16T13:59:33Z</time>
      </trkpt>
      <trkpt lat="49.38955" lon="-1.06926">
        <ele>2.8</ele>
        <time>2020-06-16T13:59:34Z</time>
      </trkpt>
      <trkpt lat="49.38956" lon="-1.06926">
        <ele>2.7</ele>
        <time>2020-06-16T13:59:35Z</time>
      </trkpt>
      <trkpt lat="49.38956" lon="-1.06927">
        <ele>2.7</ele>
        <time>2020-06-16T13:59:36Z</time>
      </trkpt>
      <trkpt lat="49.38957" lon="-1.06928">
        <ele>2.7</ele>
        <time>2020-06-16T13:59:37Z</time>
      </trkpt>
      <trkpt lat="49.38957" lon="-1.06929">
        <ele>2.7</ele>
        <time>2020-06-16T13:59:38Z</time>
      </trkpt>
      <trkpt lat="49.38958" lon="-1.0693">
        <ele>2.7</ele>
        <time>2020-06-16T13:59:39Z</time>
      </trkpt>
      <trkpt lat="49.38958" lon="-1.06931">
        <ele>2.7</ele>
        <time>2020-06-16T13:59:40Z</time>
      </trkpt>
      <trkpt lat="49.38959" lon="-1.06933">
        <ele>2.7</ele>
        <time>2020-06-16T13:59:41Z</time>
      </trkpt>
      <trkpt lat="49.3896" lon="-1.06935">
        <ele>2.6</ele>
        <time>2020-06-16T13:59:42Z</time>
      </trkpt>
      <trkpt lat="49.38962" lon="-1.06937">
        <ele>2.6</ele>
        <time>2020-06-16T13:59:43Z</time>
      </trkpt>
      <trkpt lat="49.38962" lon="-1.06938">
        <ele>2.6</ele>
        <time>2020-06-16T13:59:44Z</time>
      </trkpt>
      <trkpt lat="49.38962" lon="-1.06939">
        <ele>2.6</ele>
        <time>2020-06-16T13:59:45Z</time>
      </trkpt>
      <trkpt lat="49.38962" lon="-1.06941">
        <ele>2.6</ele>
        <time>2020-06-16T13:59:46Z</time>
      </trkpt>
      <trkpt lat="49.38963" lon="-1.06942">
        <ele>2.6</ele>
        <time>2020-06-16T13:59:47Z</time>
      </trkpt>
      <trkpt lat="49.38964" lon="-1.06944">
        <ele>2.5</ele>
        <time>2020-06-16T13:59:48Z</time>
      </trkpt>
      <trkpt lat="49.38965" lon="-1.06945">
        <ele>2.5</ele>
        <time>2020-06-16T13:59:49Z</time>
      </trkpt>
      <trkpt lat="49.38966" lon="-1.06946">
        <ele>2.5</ele>
        <time>2020-06-16T13:59:50Z</time>
      </trkpt>
      <trkpt lat="49.38967" lon="-1.06948">
        <ele>2.5</ele>
        <time>2020-06-16T13:59:51Z</time>
      </trkpt>
      <trkpt lat="49.38969" lon="-1.06949">
        <ele>2.5</ele>
        <time>2020-06-16T13:59:52Z</time>
      </trkpt>
      <trkpt lat="49.3897" lon="-1.0695">
        <ele>2.4</ele>
        <time>2020-06-16T13:59:53Z</time>
      </trkpt>
      <trkpt lat="49.38971" lon="-1.06951">
        <ele>2.4</ele>
        <time>2020-06-16T13:59:54Z</time>
      </trkpt>
      <trkpt lat="49.38971" lon="-1.06951">
        <ele>2.4</ele>
        <time>2020-06-16T13:59:55Z</time>
      </trkpt>
      <trkpt lat="49.38972" lon="-1.06952">
        <ele>2.4</ele>
        <time>2020-06-16T13:59:56Z</time>
      </trkpt>
      <trkpt lat="49.38973" lon="-1.06953">
        <ele>2.4</ele>
        <time>2020-06-16T13:59:57Z</time>
      </trkpt>
      <trkpt lat="49.38974" lon="-1.06954">
        <ele>2.4</ele>
        <time>2020-06-16T13:59:58Z</time>
      </trkpt>
      <trkpt lat="49.38975" lon="-1.06956">
        <ele>2.4</ele>
        <time>2020-06-16T13:59:59Z</time>
      </trkpt>
      <trkpt lat="49.38976" lon="-1.06956">
        <ele>2.3</ele>
        <time>2020-06-16T14:00:00Z</time>
      </trkpt>
      <trkpt lat="49.38976" lon="-1.06957">
        <ele>2.3</ele>
        <time>2020-06-16T14:00:01Z</time>
      </trkpt>
      <trkpt lat="49.38977" lon="-1.06957">
        <ele>2.3</ele>
        <time>2020-06-16T14:00:02Z</time>
      </trkpt>
      <trkpt lat="49.38978" lon="-1.06958">
        <ele>2.3</ele>
        <time>2020-06-16T14:00:03Z</time>
      </trkpt>
      <trkpt lat="49.38979" lon="-1.06958">
        <ele>2.3</ele>
        <time>2020-06-16T14:00:04Z</time>
      </trkpt>
      <trkpt lat="49.38979" lon="-1.06959">
        <ele>2.3</ele>
        <time>2020-06-16T14:00:05Z</time>
      </trkpt>
      <trkpt lat="49.38979" lon="-1.06959">
        <ele>2.3</ele>
        <time>2020-06-16T14:00:06Z</time>
      </trkpt>
      <trkpt lat="49.3898" lon="-1.06959">
        <ele>2.3</ele>
        <time>2020-06-16T14:00:07Z</time>
      </trkpt>
      <trkpt lat="49.3898" lon="-1.0696">
        <ele>2.3</ele>
        <time>2020-06-16T14:00:08Z</time>
      </trkpt>
      <trkpt lat="49.38981" lon="-1.06961">
        <ele>2.2</ele>
        <time>2020-06-16T14:00:09Z</time>
      </trkpt>
      <trkpt lat="49.38982" lon="-1.06964">
        <ele>2.2</ele>
        <time>2020-06-16T14:00:10Z</time>
      </trkpt>
      <trkpt lat="49.38983" lon="-1.06965">
        <ele>2.2</ele>
        <time>2020-06-16T14:00:11Z</time>
      </trkpt>
      <trkpt lat="49.38983" lon="-1.06966">
        <ele>2.2</ele>
        <time>2020-06-16T14:00:12Z</time>
      </trkpt>
      <trkpt lat="49.38985" lon="-1.0697">
        <ele>2.1</ele>
        <time>2020-06-16T14:00:13Z</time>
      </trkpt>
      <trkpt lat="49.38986" lon="-1.06971">
        <ele>2.1</ele>
        <time>2020-06-16T14:00:14Z</time>
      </trkpt>
      <trkpt lat="49.38988" lon="-1.06975">
        <ele>2.1</ele>
        <time>2020-06-16T14:00:15Z</time>
      </trkpt>
      <trkpt lat="49.38988" lon="-1.06976">
        <ele>2.1</ele>
        <time>2020-06-16T14:00:16Z</time>
      </trkpt>
      <trkpt lat="49.38991" lon="-1.06979">
        <ele>2</ele>
        <time>2020-06-16T14:00:17Z</time>
      </trkpt>
      <trkpt lat="49.38992" lon="-1.06981">
        <ele>2</ele>
        <time>2020-06-16T14:00:18Z</time>
      </trkpt>
      <trkpt lat="49.38995" lon="-1.06984">
        <ele>1.9</ele>
        <time>2020-06-16T14:00:19Z</time>
      </trkpt>
      <trkpt lat="49.38996" lon="-1.06985">
        <ele>1.9</ele>
        <time>2020-06-16T14:00:20Z</time>
      </trkpt>
      <trkpt lat="49.38998" lon="-1.06988">
        <ele>1.9</ele>
        <time>2020-06-16T14:00:21Z</time>
      </trkpt>
      <trkpt lat="49.38999" lon="-1.0699">
        <ele>1.9</ele>
        <time>2020-06-16T14:00:22Z</time>
      </trkpt>
      <trkpt lat="49.39001" lon="-1.06994">
        <ele>1.8</ele>
        <time>2020-06-16T14:00:23Z</time>
      </trkpt>
      <trkpt lat="49.39002" lon="-1.06995">
        <ele>1.8</ele>
        <time>2020-06-16T14:00:24Z</time>
      </trkpt>
      <trkpt lat="49.39003" lon="-1.06996">
        <ele>1.8</ele>
        <time>2020-06-16T14:00:25Z</time>
      </trkpt>
      <trkpt lat="49.39004" lon="-1.06996">
        <ele>1.8</ele>
        <time>2020-06-16T14:00:26Z</time>
      </trkpt>
      <trkpt lat="49.39005" lon="-1.06997">
        <ele>1.8</ele>
        <time>2020-06-16T14:00:27Z</time>
      </trkpt>
      <trkpt lat="49.39006" lon="-1.06997">
        <ele>1.8</ele>
        <time>2020-06-16T14:00:28Z</time>
      </trkpt>
      <trkpt lat="49.39007" lon="-1.06998">
        <ele>1.8</ele>
        <time>2020-06-16T14:00:29Z</time>
      </trkpt>
      <trkpt lat="49.39009" lon="-1.06997">
        <ele>1.7</ele>
        <time>2020-06-16T14:00:30Z</time>
      </trkpt>
      <trkpt lat="49.3901" lon="-1.06994">
        <ele>1.7</ele>
        <time>2020-06-16T14:00:31Z</time>
      </trkpt>
      <trkpt lat="49.3901" lon="-1.06994">
        <ele>1.7</ele>
        <time>2020-06-16T14:00:32Z</time>
      </trkpt>
      <trkpt lat="49.3901" lon="-1.06994">
        <ele>1.7</ele>
        <time>2020-06-16T14:00:33Z</time>
      </trkpt>
      <trkpt lat="49.3901" lon="-1.06994">
        <ele>1.7</ele>
        <time>2020-06-16T14:00:34Z</time>
      </trkpt>
      <trkpt lat="49.39011" lon="-1.06993">
        <ele>1.7</ele>
        <time>2020-06-16T14:00:35Z</time>
      </trkpt>
      <trkpt lat="49.39012" lon="-1.06992">
        <ele>1.8</ele>
        <time>2020-06-16T14:00:36Z</time>
      </trkpt>
      <trkpt lat="49.39012" lon="-1.06989">
        <ele>1.8</ele>
        <time>2020-06-16T14:00:37Z</time>
      </trkpt>
      <trkpt lat="49.39012" lon="-1.06987">
        <ele>1.8</ele>
        <time>2020-06-16T14:00:38Z</time>
      </trkpt>
      <trkpt lat="49.39012" lon="-1.06984">
        <ele>1.8</ele>
        <time>2020-06-16T14:00:39Z</time>
      </trkpt>
      <trkpt lat="49.39012" lon="-1.06982">
        <ele>1.9</ele>
        <time>2020-06-16T14:00:40Z</time>
      </trkpt>
      <trkpt lat="49.39013" lon="-1.06981">
        <ele>1.9</ele>
        <time>2020-06-16T14:00:41Z</time>
      </trkpt>
      <trkpt lat="49.39013" lon="-1.06982">
        <ele>1.9</ele>
        <time>2020-06-16T14:00:42Z</time>
      </trkpt>
      <trkpt lat="49.39013" lon="-1.06981">
        <ele>1.9</ele>
        <time>2020-06-16T14:00:43Z</time>
      </trkpt>
      <trkpt lat="49.39013" lon="-1.06981">
        <ele>1.9</ele>
        <time>2020-06-16T14:00:44Z</time>
      </trkpt>
      <trkpt lat="49.39013" lon="-1.06981">
        <ele>1.9</ele>
        <time>2020-06-16T14:00:45Z</time>
      </trkpt>
      <trkpt lat="49.39013" lon="-1.06981">
        <ele>1.9</ele>
        <time>2020-06-16T14:00:46Z</time>
      </trkpt>
      <trkpt lat="49.39013" lon="-1.0698">
        <ele>1.9</ele>
        <time>2020-06-16T14:00:47Z</time>
      </trkpt>
      <trkpt lat="49.39013" lon="-1.06979">
        <ele>1.9</ele>
        <time>2020-06-16T14:00:48Z</time>
      </trkpt>
      <trkpt lat="49.39014" lon="-1.06978">
        <ele>2</ele>
        <time>2020-06-16T14:00:49Z</time>
      </trkpt>
      <trkpt lat="49.39014" lon="-1.06978">
        <ele>2</ele>
        <time>2020-06-16T14:00:50Z</time>
      </trkpt>
      <trkpt lat="49.39014" lon="-1.06977">
        <ele>2</ele>
        <time>2020-06-16T14:00:51Z</time>
      </trkpt>
      <trkpt lat="49.39014" lon="-1.06977">
        <ele>2</ele>
        <time>2020-06-16T14:00:52Z</time>
      </trkpt>
      <trkpt lat="49.39015" lon="-1.06976">
        <ele>2</ele>
        <time>2020-06-16T14:00:53Z</time>
      </trkpt>
      <trkpt lat="49.39015" lon="-1.06974">
        <ele>2</ele>
        <time>2020-06-16T14:00:54Z</time>
      </trkpt>
      <trkpt lat="49.39015" lon="-1.06973">
        <ele>2.1</ele>
        <time>2020-06-16T14:00:55Z</time>
      </trkpt>
      <trkpt lat="49.39015" lon="-1.06972">
        <ele>2.1</ele>
        <time>2020-06-16T14:00:56Z</time>
      </trkpt>
      <trkpt lat="49.39015" lon="-1.06969">
        <ele>2.2</ele>
        <time>2020-06-16T14:00:57Z</time>
      </trkpt>
      <trkpt lat="49.39015" lon="-1.06967">
        <ele>2.2</ele>
        <time>2020-06-16T14:00:58Z</time>
      </trkpt>
      <trkpt lat="49.39015" lon="-1.06966">
        <ele>2.2</ele>
        <time>2020-06-16T14:00:59Z</time>
      </trkpt>
      <trkpt lat="49.39015" lon="-1.06961">
        <ele>2.3</ele>
        <time>2020-06-16T14:01:00Z</time>
      </trkpt>
      <trkpt lat="49.39015" lon="-1.06959">
        <ele>2.3</ele>
        <time>2020-06-16T14:01:01Z</time>
      </trkpt>
      <trkpt lat="49.39015" lon="-1.06954">
        <ele>2.4</ele>
        <time>2020-06-16T14:01:02Z</time>
      </trkpt>
      <trkpt lat="49.39014" lon="-1.06953">
        <ele>2.4</ele>
        <time>2020-06-16T14:01:03Z</time>
      </trkpt>
      <trkpt lat="49.39014" lon="-1.06946">
        <ele>2.6</ele>
        <time>2020-06-16T14:01:04Z</time>
      </trkpt>
      <trkpt lat="49.39014" lon="-1.06944">
        <ele>2.6</ele>
        <time>2020-06-16T14:01:05Z</time>
      </trkpt>
      <trkpt lat="49.39014" lon="-1.06938">
        <ele>2.7</ele>
        <time>2020-06-16T14:01:06Z</time>
      </trkpt>
      <trkpt lat="49.39014" lon="-1.06933">
        <ele>2.8</ele>
        <time>2020-06-16T14:01:07Z</time>
      </trkpt>
      <trkpt lat="49.39014" lon="-1.06928">
        <ele>2.9</ele>
        <time>2020-06-16T14:01:08Z</time>
      </trkpt>
      <trkpt lat="49.39014" lon="-1.06923">
        <ele>2.9</ele>
        <time>2020-06-16T14:01:09Z</time>
      </trkpt>
      <trkpt lat="49.39013" lon="-1.06918">
        <ele>3</ele>
        <time>2020-06-16T14:01:10Z</time>
      </trkpt>
      <trkpt lat="49.39013" lon="-1.06913">
        <ele>3.1</ele>
        <time>2020-06-16T14:01:11Z</time>
      </trkpt>
      <trkpt lat="49.39012" lon="-1.06909">
        <ele>3.1</ele>
        <time>2020-06-16T14:01:12Z</time>
      </trkpt>
      <trkpt lat="49.39013" lon="-1.06903">
        <ele>3.1</ele>
        <time>2020-06-16T14:01:13Z</time>
      </trkpt>
      <trkpt lat="49.39014" lon="-1.06901">
        <ele>3.1</ele>
        <time>2020-06-16T14:01:14Z</time>
      </trkpt>
      <trkpt lat="49.39013" lon="-1.06895">
        <ele>3.2</ele>
        <time>2020-06-16T14:01:15Z</time>
      </trkpt>
      <trkpt lat="49.39013" lon="-1.06893">
        <ele>3.2</ele>
        <time>2020-06-16T14:01:16Z</time>
      </trkpt>
      <trkpt lat="49.39012" lon="-1.06888">
        <ele>3.1</ele>
        <time>2020-06-16T14:01:17Z</time>
      </trkpt>
      <trkpt lat="49.39012" lon="-1.06883">
        <ele>3.1</ele>
        <time>2020-06-16T14:01:18Z</time>
      </trkpt>
      <trkpt lat="49.39012" lon="-1.06881">
        <ele>3.1</ele>
        <time>2020-06-16T14:01:19Z</time>
      </trkpt>
      <trkpt lat="49.39011" lon="-1.06875">
        <ele>3.1</ele>
        <time>2020-06-16T14:01:20Z</time>
      </trkpt>
      <trkpt lat="49.39011" lon="-1.06873">
        <ele>3.1</ele>
        <time>2020-06-16T14:01:21Z</time>
      </trkpt>
      <trkpt lat="49.3901" lon="-1.06867">
        <ele>3.1</ele>
        <time>2020-06-16T14:01:22Z</time>
      </trkpt>
      <trkpt lat="49.3901" lon="-1.06866">
        <ele>3.1</ele>
        <time>2020-06-16T14:01:23Z</time>
      </trkpt>
      <trkpt lat="49.3901" lon="-1.0686">
        <ele>3.1</ele>
        <time>2020-06-16T14:01:24Z</time>
      </trkpt>
      <trkpt lat="49.3901" lon="-1.06859">
        <ele>3.1</ele>
        <time>2020-06-16T14:01:25Z</time>
      </trkpt>
      <trkpt lat="49.39009" lon="-1.06852">
        <ele>3.1</ele>
        <time>2020-06-16T14:01:26Z</time>
      </trkpt>
      <trkpt lat="49.39009" lon="-1.0685">
        <ele>3.1</ele>
        <time>2020-06-16T14:01:27Z</time>
      </trkpt>
      <trkpt lat="49.39009" lon="-1.06846">
        <ele>3.1</ele>
        <time>2020-06-16T14:01:28Z</time>
      </trkpt>
      <trkpt lat="49.39009" lon="-1.06842">
        <ele>3.1</ele>
        <time>2020-06-16T14:01:29Z</time>
      </trkpt>
      <trkpt lat="49.39009" lon="-1.06837">
        <ele>3.2</ele>
        <time>2020-06-16T14:01:30Z</time>
      </trkpt>
      <trkpt lat="49.39009" lon="-1.06832">
        <ele>3.2</ele>
        <time>2020-06-16T14:01:31Z</time>
      </trkpt>
      <trkpt lat="49.39009" lon="-1.06827">
        <ele>3.2</ele>
        <time>2020-06-16T14:01:32Z</time>
      </trkpt>
      <trkpt lat="49.39008" lon="-1.06823">
        <ele>3.2</ele>
        <time>2020-06-16T14:01:33Z</time>
      </trkpt>
      <trkpt lat="49.39008" lon="-1.06818">
        <ele>3.2</ele>
        <time>2020-06-16T14:01:34Z</time>
      </trkpt>
      <trkpt lat="49.39008" lon="-1.06813">
        <ele>3.3</ele>
        <time>2020-06-16T14:01:35Z</time>
      </trkpt>
      <trkpt lat="49.39009" lon="-1.06808">
        <ele>3.3</ele>
        <time>2020-06-16T14:01:36Z</time>
      </trkpt>
      <trkpt lat="49.3901" lon="-1.06803">
        <ele>3.3</ele>
        <time>2020-06-16T14:01:37Z</time>
      </trkpt>
      <trkpt lat="49.3901" lon="-1.06798">
        <ele>3.3</ele>
        <time>2020-06-16T14:01:38Z</time>
      </trkpt>
      <trkpt lat="49.3901" lon="-1.06793">
        <ele>3.3</ele>
        <time>2020-06-16T14:01:39Z</time>
      </trkpt>
      <trkpt lat="49.39011" lon="-1.06789">
        <ele>3.3</ele>
        <time>2020-06-16T14:01:40Z</time>
      </trkpt>
      <trkpt lat="49.39011" lon="-1.06784">
        <ele>3.3</ele>
        <time>2020-06-16T14:01:41Z</time>
      </trkpt>
      <trkpt lat="49.39011" lon="-1.06779">
        <ele>3.3</ele>
        <time>2020-06-16T14:01:42Z</time>
      </trkpt>
      <trkpt lat="49.3901" lon="-1.06774">
        <ele>3.3</ele>
        <time>2020-06-16T14:01:43Z</time>
      </trkpt>
      <trkpt lat="49.3901" lon="-1.06768">
        <ele>3.3</ele>
        <time>2020-06-16T14:01:44Z</time>
      </trkpt>
      <trkpt lat="49.3901" lon="-1.06763">
        <ele>3.3</ele>
        <time>2020-06-16T14:01:45Z</time>
      </trkpt>
      <trkpt lat="49.3901" lon="-1.06759">
        <ele>3.3</ele>
        <time>2020-06-16T14:01:46Z</time>
      </trkpt>
      <trkpt lat="49.3901" lon="-1.06754">
        <ele>3.3</ele>
        <time>2020-06-16T14:01:47Z</time>
      </trkpt>
      <trkpt lat="49.39009" lon="-1.06749">
        <ele>3.3</ele>
        <time>2020-06-16T14:01:48Z</time>
      </trkpt>
      <trkpt lat="49.39009" lon="-1.06743">
        <ele>3.3</ele>
        <time>2020-06-16T14:01:49Z</time>
      </trkpt>
      <trkpt lat="49.39008" lon="-1.06741">
        <ele>3.3</ele>
        <time>2020-06-16T14:01:50Z</time>
      </trkpt>
      <trkpt lat="49.39008" lon="-1.06737">
        <ele>3.3</ele>
        <time>2020-06-16T14:01:51Z</time>
      </trkpt>
      <trkpt lat="49.39008" lon="-1.06731">
        <ele>3.3</ele>
        <time>2020-06-16T14:01:52Z</time>
      </trkpt>
      <trkpt lat="49.39007" lon="-1.06729">
        <ele>3.3</ele>
        <time>2020-06-16T14:01:53Z</time>
      </trkpt>
      <trkpt lat="49.39008" lon="-1.06725">
        <ele>3.3</ele>
        <time>2020-06-16T14:01:54Z</time>
      </trkpt>
      <trkpt lat="49.39008" lon="-1.06724">
        <ele>3.3</ele>
        <time>2020-06-16T14:01:55Z</time>
      </trkpt>
      <trkpt lat="49.39009" lon="-1.0672">
        <ele>3.3</ele>
        <time>2020-06-16T14:01:56Z</time>
      </trkpt>
      <trkpt lat="49.39009" lon="-1.06718">
        <ele>3.3</ele>
        <time>2020-06-16T14:01:57Z</time>
      </trkpt>
      <trkpt lat="49.39009" lon="-1.06716">
        <ele>3.3</ele>
        <time>2020-06-16T14:01:58Z</time>
      </trkpt>
      <trkpt lat="49.39009" lon="-1.06713">
        <ele>3.3</ele>
        <time>2020-06-16T14:01:59Z</time>
      </trkpt>
      <trkpt lat="49.39007" lon="-1.06709">
        <ele>3.3</ele>
        <time>2020-06-16T14:02:00Z</time>
      </trkpt>
      <trkpt lat="49.39007" lon="-1.06707">
        <ele>3.3</ele>
        <time>2020-06-16T14:02:01Z</time>
      </trkpt>
      <trkpt lat="49.39007" lon="-1.06704">
        <ele>3.3</ele>
        <time>2020-06-16T14:02:02Z</time>
      </trkpt>
      <trkpt lat="49.39007" lon="-1.06702">
        <ele>3.3</ele>
        <time>2020-06-16T14:02:03Z</time>
      </trkpt>
      <trkpt lat="49.39007" lon="-1.06701">
        <ele>3.3</ele>
        <time>2020-06-16T14:02:04Z</time>
      </trkpt>
      <trkpt lat="49.39008" lon="-1.06698">
        <ele>3.3</ele>
        <time>2020-06-16T14:02:05Z</time>
      </trkpt>
      <trkpt lat="49.39007" lon="-1.06696">
        <ele>3.3</ele>
        <time>2020-06-16T14:02:06Z</time>
      </trkpt>
      <trkpt lat="49.39007" lon="-1.06692">
        <ele>3.3</ele>
        <time>2020-06-16T14:02:07Z</time>
      </trkpt>
      <trkpt lat="49.39007" lon="-1.0669">
        <ele>3.3</ele>
        <time>2020-06-16T14:02:08Z</time>
      </trkpt>
      <trkpt lat="49.39007" lon="-1.06688">
        <ele>3.3</ele>
        <time>2020-06-16T14:02:09Z</time>
      </trkpt>
      <trkpt lat="49.39007" lon="-1.06686">
        <ele>3.3</ele>
        <time>2020-06-16T14:02:10Z</time>
      </trkpt>
      <trkpt lat="49.39008" lon="-1.06684">
        <ele>3.3</ele>
        <time>2020-06-16T14:02:11Z</time>
      </trkpt>
      <trkpt lat="49.39008" lon="-1.06682">
        <ele>3.3</ele>
        <time>2020-06-16T14:02:12Z</time>
      </trkpt>
      <trkpt lat="49.39008" lon="-1.06681">
        <ele>3.3</ele>
        <time>2020-06-16T14:02:13Z</time>
      </trkpt>
      <trkpt lat="49.39008" lon="-1.06678">
        <ele>3.3</ele>
        <time>2020-06-16T14:02:14Z</time>
      </trkpt>
      <trkpt lat="49.39008" lon="-1.06676">
        <ele>3.3</ele>
        <time>2020-06-16T14:02:15Z</time>
      </trkpt>
      <trkpt lat="49.39007" lon="-1.06671">
        <ele>3.3</ele>
        <time>2020-06-16T14:02:16Z</time>
      </trkpt>
      <trkpt lat="49.39007" lon="-1.0667">
        <ele>3.3</ele>
        <time>2020-06-16T14:02:17Z</time>
      </trkpt>
      <trkpt lat="49.39007" lon="-1.06666">
        <ele>3.3</ele>
        <time>2020-06-16T14:02:18Z</time>
      </trkpt>
      <trkpt lat="49.39006" lon="-1.06664">
        <ele>3.3</ele>
        <time>2020-06-16T14:02:19Z</time>
      </trkpt>
      <trkpt lat="49.39006" lon="-1.06662">
        <ele>3.3</ele>
        <time>2020-06-16T14:02:20Z</time>
      </trkpt>
      <trkpt lat="49.39006" lon="-1.06659">
        <ele>3.3</ele>
        <time>2020-06-16T14:02:21Z</time>
      </trkpt>
      <trkpt lat="49.39007" lon="-1.06657">
        <ele>3.3</ele>
        <time>2020-06-16T14:02:22Z</time>
      </trkpt>
      <trkpt lat="49.39007" lon="-1.06656">
        <ele>3.3</ele>
        <time>2020-06-16T14:02:23Z</time>
      </trkpt>
      <trkpt lat="49.39006" lon="-1.06655">
        <ele>3.3</ele>
        <time>2020-06-16T14:02:24Z</time>
      </trkpt>
      <trkpt lat="49.39006" lon="-1.06654">
        <ele>3.3</ele>
        <time>2020-06-16T14:02:25Z</time>
      </trkpt>
      <trkpt lat="49.39006" lon="-1.06653">
        <ele>3.3</ele>
        <time>2020-06-16T14:02:26Z</time>
      </trkpt>
      <trkpt lat="49.39006" lon="-1.0665">
        <ele>3.3</ele>
        <time>2020-06-16T14:02:27Z</time>
      </trkpt>
      <trkpt lat="49.39007" lon="-1.06646">
        <ele>3.3</ele>
        <time>2020-06-16T14:02:28Z</time>
      </trkpt>
      <trkpt lat="49.39007" lon="-1.06644">
        <ele>3.3</ele>
        <time>2020-06-16T14:02:29Z</time>
      </trkpt>
      <trkpt lat="49.39006" lon="-1.06639">
        <ele>3.3</ele>
        <time>2020-06-16T14:02:30Z</time>
      </trkpt>
      <trkpt lat="49.39006" lon="-1.06637">
        <ele>3.3</ele>
        <time>2020-06-16T14:02:31Z</time>
      </trkpt>
      <trkpt lat="49.39007" lon="-1.06632">
        <ele>3.3</ele>
        <time>2020-06-16T14:02:32Z</time>
      </trkpt>
      <trkpt lat="49.39008" lon="-1.0663">
        <ele>3.3</ele>
        <time>2020-06-16T14:02:33Z</time>
      </trkpt>
      <trkpt lat="49.39007" lon="-1.06627">
        <ele>3.3</ele>
        <time>2020-06-16T14:02:34Z</time>
      </trkpt>
      <trkpt lat="49.39007" lon="-1.06625">
        <ele>3.3</ele>
        <time>2020-06-16T14:02:35Z</time>
      </trkpt>
      <trkpt lat="49.39006" lon="-1.06622">
        <ele>3.3</ele>
        <time>2020-06-16T14:02:36Z</time>
      </trkpt>
      <trkpt lat="49.39006" lon="-1.06621">
        <ele>3.3</ele>
        <time>2020-06-16T14:02:37Z</time>
      </trkpt>
      <trkpt lat="49.39006" lon="-1.06619">
        <ele>3.3</ele>
        <time>2020-06-16T14:02:38Z</time>
      </trkpt>
      <trkpt lat="49.39006" lon="-1.06616">
        <ele>3.3</ele>
        <time>2020-06-16T14:02:39Z</time>
      </trkpt>
      <trkpt lat="49.39005" lon="-1.06614">
        <ele>3.3</ele>
        <time>2020-06-16T14:02:40Z</time>
      </trkpt>
      <trkpt lat="49.39005" lon="-1.06613">
        <ele>3.3</ele>
        <time>2020-06-16T14:02:41Z</time>
      </trkpt>
      <trkpt lat="49.39005" lon="-1.0661">
        <ele>3.3</ele>
        <time>2020-06-16T14:02:42Z</time>
      </trkpt>
      <trkpt lat="49.39004" lon="-1.06608">
        <ele>3.4</ele>
        <time>2020-06-16T14:02:43Z</time>
      </trkpt>
      <trkpt lat="49.39003" lon="-1.06604">
        <ele>3.4</ele>
        <time>2020-06-16T14:02:44Z</time>
      </trkpt>
      <trkpt lat="49.39003" lon="-1.06602">
        <ele>3.4</ele>
        <time>2020-06-16T14:02:45Z</time>
      </trkpt>
      <trkpt lat="49.39002" lon="-1.06598">
        <ele>3.4</ele>
        <time>2020-06-16T14:02:46Z</time>
      </trkpt>
      <trkpt lat="49.39002" lon="-1.06596">
        <ele>3.4</ele>
        <time>2020-06-16T14:02:47Z</time>
      </trkpt>
      <trkpt lat="49.39002" lon="-1.06594">
        <ele>3.4</ele>
        <time>2020-06-16T14:02:48Z</time>
      </trkpt>
      <trkpt lat="49.39001" lon="-1.06591">
        <ele>3.4</ele>
        <time>2020-06-16T14:02:49Z</time>
      </trkpt>
      <trkpt lat="49.39001" lon="-1.06589">
        <ele>3.4</ele>
        <time>2020-06-16T14:02:50Z</time>
      </trkpt>
      <trkpt lat="49.39001" lon="-1.06586">
        <ele>3.4</ele>
        <time>2020-06-16T14:02:51Z</time>
      </trkpt>
      <trkpt lat="49.39" lon="-1.06582">
        <ele>3.5</ele>
        <time>2020-06-16T14:02:52Z</time>
      </trkpt>
      <trkpt lat="49.39" lon="-1.0658">
        <ele>3.5</ele>
        <time>2020-06-16T14:02:53Z</time>
      </trkpt>
      <trkpt lat="49.39" lon="-1.06576">
        <ele>3.5</ele>
        <time>2020-06-16T14:02:54Z</time>
      </trkpt>
      <trkpt lat="49.39" lon="-1.06575">
        <ele>3.5</ele>
        <time>2020-06-16T14:02:55Z</time>
      </trkpt>
      <trkpt lat="49.39001" lon="-1.06569">
        <ele>3.5</ele>
        <time>2020-06-16T14:02:56Z</time>
      </trkpt>
      <trkpt lat="49.39001" lon="-1.06567">
        <ele>3.6</ele>
        <time>2020-06-16T14:02:57Z</time>
      </trkpt>
      <trkpt lat="49.39001" lon="-1.06562">
        <ele>3.6</ele>
        <time>2020-06-16T14:02:58Z</time>
      </trkpt>
      <trkpt lat="49.39001" lon="-1.0656">
        <ele>3.6</ele>
        <time>2020-06-16T14:02:59Z</time>
      </trkpt>
      <trkpt lat="49.39001" lon="-1.06556">
        <ele>3.6</ele>
        <time>2020-06-16T14:03:00Z</time>
      </trkpt>
      <trkpt lat="49.39001" lon="-1.06554">
        <ele>3.6</ele>
        <time>2020-06-16T14:03:01Z</time>
      </trkpt>
      <trkpt lat="49.39001" lon="-1.0655">
        <ele>3.6</ele>
        <time>2020-06-16T14:03:02Z</time>
      </trkpt>
      <trkpt lat="49.39001" lon="-1.06548">
        <ele>3.6</ele>
        <time>2020-06-16T14:03:03Z</time>
      </trkpt>
      <trkpt lat="49.39001" lon="-1.06543">
        <ele>3.6</ele>
        <time>2020-06-16T14:03:04Z</time>
      </trkpt>
      <trkpt lat="49.39001" lon="-1.06541">
        <ele>3.6</ele>
        <time>2020-06-16T14:03:05Z</time>
      </trkpt>
      <trkpt lat="49.39001" lon="-1.06537">
        <ele>3.6</ele>
        <time>2020-06-16T14:03:06Z</time>
      </trkpt>
      <trkpt lat="49.39001" lon="-1.06536">
        <ele>3.6</ele>
        <time>2020-06-16T14:03:07Z</time>
      </trkpt>
      <trkpt lat="49.39001" lon="-1.06531">
        <ele>3.6</ele>
        <time>2020-06-16T14:03:08Z</time>
      </trkpt>
      <trkpt lat="49.39001" lon="-1.06529">
        <ele>3.6</ele>
        <time>2020-06-16T14:03:09Z</time>
      </trkpt>
      <trkpt lat="49.39001" lon="-1.06524">
        <ele>3.6</ele>
        <time>2020-06-16T14:03:10Z</time>
      </trkpt>
      <trkpt lat="49.39" lon="-1.06522">
        <ele>3.6</ele>
        <time>2020-06-16T14:03:11Z</time>
      </trkpt>
      <trkpt lat="49.39" lon="-1.06518">
        <ele>3.6</ele>
        <time>2020-06-16T14:03:12Z</time>
      </trkpt>
      <trkpt lat="49.39" lon="-1.06513">
        <ele>3.6</ele>
        <time>2020-06-16T14:03:13Z</time>
      </trkpt>
      <trkpt lat="49.39" lon="-1.06509">
        <ele>3.6</ele>
        <time>2020-06-16T14:03:14Z</time>
      </trkpt>
      <trkpt lat="49.39" lon="-1.06503">
        <ele>3.6</ele>
        <time>2020-06-16T14:03:15Z</time>
      </trkpt>
      <trkpt lat="49.39" lon="-1.06501">
        <ele>3.6</ele>
        <time>2020-06-16T14:03:16Z</time>
      </trkpt>
      <trkpt lat="49.39001" lon="-1.06496">
        <ele>3.6</ele>
        <time>2020-06-16T14:03:17Z</time>
      </trkpt>
      <trkpt lat="49.39002" lon="-1.06494">
        <ele>3.6</ele>
        <time>2020-06-16T14:03:18Z</time>
      </trkpt>
      <trkpt lat="49.39002" lon="-1.06489">
        <ele>3.6</ele>
        <time>2020-06-16T14:03:19Z</time>
      </trkpt>
      <trkpt lat="49.39002" lon="-1.06488">
        <ele>3.6</ele>
        <time>2020-06-16T14:03:20Z</time>
      </trkpt>
      <trkpt lat="49.39002" lon="-1.06485">
        <ele>3.6</ele>
        <time>2020-06-16T14:03:21Z</time>
      </trkpt>
      <trkpt lat="49.39002" lon="-1.06483">
        <ele>3.6</ele>
        <time>2020-06-16T14:03:22Z</time>
      </trkpt>
      <trkpt lat="49.39002" lon="-1.06481">
        <ele>3.5</ele>
        <time>2020-06-16T14:03:23Z</time>
      </trkpt>
      <trkpt lat="49.39002" lon="-1.06478">
        <ele>3.5</ele>
        <time>2020-06-16T14:03:24Z</time>
      </trkpt>
      <trkpt lat="49.39002" lon="-1.06473">
        <ele>3.5</ele>
        <time>2020-06-16T14:03:25Z</time>
      </trkpt>
      <trkpt lat="49.39002" lon="-1.06471">
        <ele>3.5</ele>
        <time>2020-06-16T14:03:26Z</time>
      </trkpt>
      <trkpt lat="49.39002" lon="-1.06467">
        <ele>3.4</ele>
        <time>2020-06-16T14:03:27Z</time>
      </trkpt>
      <trkpt lat="49.39002" lon="-1.06461">
        <ele>3.4</ele>
        <time>2020-06-16T14:03:28Z</time>
      </trkpt>
      <trkpt lat="49.39003" lon="-1.06456">
        <ele>3.3</ele>
        <time>2020-06-16T14:03:29Z</time>
      </trkpt>
      <trkpt lat="49.39003" lon="-1.06451">
        <ele>3.3</ele>
        <time>2020-06-16T14:03:30Z</time>
      </trkpt>
      <trkpt lat="49.39003" lon="-1.06447">
        <ele>3.2</ele>
        <time>2020-06-16T14:03:31Z</time>
      </trkpt>
      <trkpt lat="49.39004" lon="-1.06443">
        <ele>3.2</ele>
        <time>2020-06-16T14:03:32Z</time>
      </trkpt>
      <trkpt lat="49.39005" lon="-1.06438">
        <ele>3.1</ele>
        <time>2020-06-16T14:03:33Z</time>
      </trkpt>
      <trkpt lat="49.39006" lon="-1.06436">
        <ele>3.1</ele>
        <time>2020-06-16T14:03:34Z</time>
      </trkpt>
      <trkpt lat="49.39006" lon="-1.06435">
        <ele>3.1</ele>
        <time>2020-06-16T14:03:35Z</time>
      </trkpt>
      <trkpt lat="49.39007" lon="-1.06433">
        <ele>3.1</ele>
        <time>2020-06-16T14:03:36Z</time>
      </trkpt>
      <trkpt lat="49.39007" lon="-1.06432">
        <ele>3.1</ele>
        <time>2020-06-16T14:03:37Z</time>
      </trkpt>
      <trkpt lat="49.39007" lon="-1.0643">
        <ele>3.1</ele>
        <time>2020-06-16T14:03:38Z</time>
      </trkpt>
      <trkpt lat="49.39008" lon="-1.06428">
        <ele>3.1</ele>
        <time>2020-06-16T14:03:39Z</time>
      </trkpt>
      <trkpt lat="49.39008" lon="-1.06425">
        <ele>3.1</ele>
        <time>2020-06-16T14:03:40Z</time>
      </trkpt>
      <trkpt lat="49.39008" lon="-1.06423">
        <ele>3</ele>
        <time>2020-06-16T14:03:41Z</time>
      </trkpt>
      <trkpt lat="49.39009" lon="-1.06422">
        <ele>3</ele>
        <time>2020-06-16T14:03:42Z</time>
      </trkpt>
      <trkpt lat="49.39009" lon="-1.06421">
        <ele>3</ele>
        <time>2020-06-16T14:03:43Z</time>
      </trkpt>
      <trkpt lat="49.39008" lon="-1.06421">
        <ele>3</ele>
        <time>2020-06-16T14:03:44Z</time>
      </trkpt>
      <trkpt lat="49.39008" lon="-1.0642">
        <ele>3</ele>
        <time>2020-06-16T14:03:45Z</time>
      </trkpt>
      <trkpt lat="49.39008" lon="-1.0642">
        <ele>3</ele>
        <time>2020-06-16T14:03:46Z</time>
      </trkpt>
      <trkpt lat="49.39008" lon="-1.0642">
        <ele>3</ele>
        <time>2020-06-16T14:03:47Z</time>
      </trkpt>
      <trkpt lat="49.39008" lon="-1.06419">
        <ele>3</ele>
        <time>2020-06-16T14:03:48Z</time>
      </trkpt>
      <trkpt lat="49.39009" lon="-1.06419">
        <ele>3</ele>
        <time>2020-06-16T14:03:49Z</time>
      </trkpt>
      <trkpt lat="49.39009" lon="-1.06419">
        <ele>3</ele>
        <time>2020-06-16T14:03:50Z</time>
      </trkpt>
      <trkpt lat="49.39009" lon="-1.06419">
        <ele>3</ele>
        <time>2020-06-16T14:03:51Z</time>
      </trkpt>
      <trkpt lat="49.39009" lon="-1.06419">
        <ele>3</ele>
        <time>2020-06-16T14:03:52Z</time>
      </trkpt>
      <trkpt lat="49.39009" lon="-1.06418">
        <ele>3</ele>
        <time>2020-06-16T14:03:53Z</time>
      </trkpt>
      <trkpt lat="49.39009" lon="-1.06418">
        <ele>3</ele>
        <time>2020-06-16T14:03:54Z</time>
      </trkpt>
      <trkpt lat="49.39009" lon="-1.06416">
        <ele>3</ele>
        <time>2020-06-16T14:03:55Z</time>
      </trkpt>
      <trkpt lat="49.3901" lon="-1.06414">
        <ele>3</ele>
        <time>2020-06-16T14:03:56Z</time>
      </trkpt>
      <trkpt lat="49.39011" lon="-1.06412">
        <ele>3</ele>
        <time>2020-06-16T14:03:57Z</time>
      </trkpt>
      <trkpt lat="49.39012" lon="-1.06411">
        <ele>3</ele>
        <time>2020-06-16T14:03:58Z</time>
      </trkpt>
      <trkpt lat="49.39012" lon="-1.06409">
        <ele>3</ele>
        <time>2020-06-16T14:03:59Z</time>
      </trkpt>
      <trkpt lat="49.39013" lon="-1.06408">
        <ele>3</ele>
        <time>2020-06-16T14:04:00Z</time>
      </trkpt>
      <trkpt lat="49.39014" lon="-1.06407">
        <ele>3</ele>
        <time>2020-06-16T14:04:01Z</time>
      </trkpt>
      <trkpt lat="49.39014" lon="-1.06406">
        <ele>3</ele>
        <time>2020-06-16T14:04:29Z</time>
      </trkpt>
      <trkpt lat="49.39015" lon="-1.06404">
        <ele>3</ele>
        <time>2020-06-16T14:04:30Z</time>
      </trkpt>
      <trkpt lat="49.39016" lon="-1.06403">
        <ele>3</ele>
        <time>2020-06-16T14:04:31Z</time>
      </trkpt>
      <trkpt lat="49.39017" lon="-1.06402">
        <ele>3</ele>
        <time>2020-06-16T14:04:32Z</time>
      </trkpt>
      <trkpt lat="49.39017" lon="-1.064">
        <ele>3</ele>
        <time>2020-06-16T14:04:33Z</time>
      </trkpt>
      <trkpt lat="49.39018" lon="-1.06399">
        <ele>3</ele>
        <time>2020-06-16T14:04:34Z</time>
      </trkpt>
      <trkpt lat="49.39018" lon="-1.06399">
        <ele>3</ele>
        <time>2020-06-16T14:04:35Z</time>
      </trkpt>
      <trkpt lat="49.39018" lon="-1.06399">
        <ele>3</ele>
        <time>2020-06-16T14:04:36Z</time>
      </trkpt>
      <trkpt lat="49.39018" lon="-1.06398">
        <ele>3</ele>
        <time>2020-06-16T14:04:37Z</time>
      </trkpt>
      <trkpt lat="49.39017" lon="-1.06396">
        <ele>3</ele>
        <time>2020-06-16T14:04:38Z</time>
      </trkpt>
      <trkpt lat="49.39017" lon="-1.06395">
        <ele>3</ele>
        <time>2020-06-16T14:04:39Z</time>
      </trkpt>
      <trkpt lat="49.39018" lon="-1.06393">
        <ele>3</ele>
        <time>2020-06-16T14:04:40Z</time>
      </trkpt>
      <trkpt lat="49.39017" lon="-1.06392">
        <ele>3</ele>
        <time>2020-06-16T14:04:41Z</time>
      </trkpt>
      <trkpt lat="49.39017" lon="-1.06391">
        <ele>3</ele>
        <time>2020-06-16T14:04:42Z</time>
      </trkpt>
      <trkpt lat="49.39016" lon="-1.0639">
        <ele>3</ele>
        <time>2020-06-16T14:04:43Z</time>
      </trkpt>
      <trkpt lat="49.39016" lon="-1.06388">
        <ele>3</ele>
        <time>2020-06-16T14:04:44Z</time>
      </trkpt>
      <trkpt lat="49.39016" lon="-1.06386">
        <ele>3</ele>
        <time>2020-06-16T14:04:45Z</time>
      </trkpt>
      <trkpt lat="49.39016" lon="-1.06385">
        <ele>3</ele>
        <time>2020-06-16T14:04:46Z</time>
      </trkpt>
      <trkpt lat="49.39017" lon="-1.06383">
        <ele>3</ele>
        <time>2020-06-16T14:04:47Z</time>
      </trkpt>
      <trkpt lat="49.39017" lon="-1.06382">
        <ele>3</ele>
        <time>2020-06-16T14:04:48Z</time>
      </trkpt>
      <trkpt lat="49.39017" lon="-1.06381">
        <ele>3</ele>
        <time>2020-06-16T14:04:49Z</time>
      </trkpt>
      <trkpt lat="49.39017" lon="-1.0638">
        <ele>2.9</ele>
        <time>2020-06-16T14:04:50Z</time>
      </trkpt>
      <trkpt lat="49.39017" lon="-1.06379">
        <ele>2.9</ele>
        <time>2020-06-16T14:04:51Z</time>
      </trkpt>
      <trkpt lat="49.39017" lon="-1.06376">
        <ele>2.9</ele>
        <time>2020-06-16T14:04:52Z</time>
      </trkpt>
      <trkpt lat="49.39017" lon="-1.06374">
        <ele>2.9</ele>
        <time>2020-06-16T14:04:53Z</time>
      </trkpt>
      <trkpt lat="49.39018" lon="-1.06372">
        <ele>2.9</ele>
        <time>2020-06-16T14:04:54Z</time>
      </trkpt>
      <trkpt lat="49.39017" lon="-1.0637">
        <ele>2.9</ele>
        <time>2020-06-16T14:04:55Z</time>
      </trkpt>
      <trkpt lat="49.39017" lon="-1.06368">
        <ele>2.9</ele>
        <time>2020-06-16T14:04:56Z</time>
      </trkpt>
      <trkpt lat="49.39016" lon="-1.06366">
        <ele>2.9</ele>
        <time>2020-06-16T14:04:57Z</time>
      </trkpt>
      <trkpt lat="49.39016" lon="-1.06365">
        <ele>2.9</ele>
        <time>2020-06-16T14:04:58Z</time>
      </trkpt>
      <trkpt lat="49.39016" lon="-1.06364">
        <ele>2.9</ele>
        <time>2020-06-16T14:04:59Z</time>
      </trkpt>
      <trkpt lat="49.39016" lon="-1.06362">
        <ele>2.9</ele>
        <time>2020-06-16T14:05:00Z</time>
      </trkpt>
      <trkpt lat="49.39016" lon="-1.0636">
        <ele>2.9</ele>
        <time>2020-06-16T14:05:01Z</time>
      </trkpt>
      <trkpt lat="49.39017" lon="-1.06356">
        <ele>2.9</ele>
        <time>2020-06-16T14:05:02Z</time>
      </trkpt>
      <trkpt lat="49.39018" lon="-1.06355">
        <ele>2.9</ele>
        <time>2020-06-16T14:05:03Z</time>
      </trkpt>
      <trkpt lat="49.39018" lon="-1.06353">
        <ele>2.9</ele>
        <time>2020-06-16T14:05:04Z</time>
      </trkpt>
      <trkpt lat="49.39019" lon="-1.0635">
        <ele>2.9</ele>
        <time>2020-06-16T14:05:05Z</time>
      </trkpt>
      <trkpt lat="49.39019" lon="-1.06347">
        <ele>2.9</ele>
        <time>2020-06-16T14:05:06Z</time>
      </trkpt>
      <trkpt lat="49.39019" lon="-1.06345">
        <ele>2.9</ele>
        <time>2020-06-16T14:05:07Z</time>
      </trkpt>
      <trkpt lat="49.39019" lon="-1.06342">
        <ele>2.9</ele>
        <time>2020-06-16T14:05:08Z</time>
      </trkpt>
      <trkpt lat="49.39019" lon="-1.0634">
        <ele>2.9</ele>
        <time>2020-06-16T14:05:09Z</time>
      </trkpt>
      <trkpt lat="49.39019" lon="-1.06336">
        <ele>2.9</ele>
        <time>2020-06-16T14:05:10Z</time>
      </trkpt>
      <trkpt lat="49.39019" lon="-1.06335">
        <ele>2.9</ele>
        <time>2020-06-16T14:05:11Z</time>
      </trkpt>
      <trkpt lat="49.39019" lon="-1.06334">
        <ele>2.9</ele>
        <time>2020-06-16T14:05:12Z</time>
      </trkpt>
      <trkpt lat="49.39019" lon="-1.0633">
        <ele>3</ele>
        <time>2020-06-16T14:05:13Z</time>
      </trkpt>
      <trkpt lat="49.39019" lon="-1.06329">
        <ele>3</ele>
        <time>2020-06-16T14:05:14Z</time>
      </trkpt>
      <trkpt lat="49.39019" lon="-1.06327">
        <ele>3</ele>
        <time>2020-06-16T14:05:15Z</time>
      </trkpt>
      <trkpt lat="49.39019" lon="-1.06325">
        <ele>3</ele>
        <time>2020-06-16T14:05:16Z</time>
      </trkpt>
      <trkpt lat="49.39019" lon="-1.06323">
        <ele>3</ele>
        <time>2020-06-16T14:05:17Z</time>
      </trkpt>
      <trkpt lat="49.39019" lon="-1.06318">
        <ele>3</ele>
        <time>2020-06-16T14:05:18Z</time>
      </trkpt>
      <trkpt lat="49.39019" lon="-1.06316">
        <ele>3</ele>
        <time>2020-06-16T14:05:19Z</time>
      </trkpt>
      <trkpt lat="49.39018" lon="-1.06312">
        <ele>3</ele>
        <time>2020-06-16T14:05:20Z</time>
      </trkpt>
      <trkpt lat="49.39018" lon="-1.06311">
        <ele>3</ele>
        <time>2020-06-16T14:05:21Z</time>
      </trkpt>
      <trkpt lat="49.39018" lon="-1.06308">
        <ele>3</ele>
        <time>2020-06-16T14:05:22Z</time>
      </trkpt>
      <trkpt lat="49.39017" lon="-1.06305">
        <ele>3.1</ele>
        <time>2020-06-16T14:05:23Z</time>
      </trkpt>
      <trkpt lat="49.39017" lon="-1.06303">
        <ele>3.1</ele>
        <time>2020-06-16T14:05:24Z</time>
      </trkpt>
      <trkpt lat="49.39017" lon="-1.063">
        <ele>3.1</ele>
        <time>2020-06-16T14:05:25Z</time>
      </trkpt>
      <trkpt lat="49.39017" lon="-1.06298">
        <ele>3.1</ele>
        <time>2020-06-16T14:05:26Z</time>
      </trkpt>
      <trkpt lat="49.39017" lon="-1.06296">
        <ele>3.1</ele>
        <time>2020-06-16T14:05:27Z</time>
      </trkpt>
      <trkpt lat="49.39016" lon="-1.06295">
        <ele>3.1</ele>
        <time>2020-06-16T14:05:28Z</time>
      </trkpt>
      <trkpt lat="49.39016" lon="-1.06294">
        <ele>3.1</ele>
        <time>2020-06-16T14:05:29Z</time>
      </trkpt>
      <trkpt lat="49.39015" lon="-1.06292">
        <ele>3.1</ele>
        <time>2020-06-16T14:05:30Z</time>
      </trkpt>
      <trkpt lat="49.39015" lon="-1.06292">
        <ele>3.1</ele>
        <time>2020-06-16T14:05:31Z</time>
      </trkpt>
      <trkpt lat="49.39014" lon="-1.06291">
        <ele>3.1</ele>
        <time>2020-06-16T14:05:32Z</time>
      </trkpt>
      <trkpt lat="49.39014" lon="-1.06288">
        <ele>3.1</ele>
        <time>2020-06-16T14:05:33Z</time>
      </trkpt>
      <trkpt lat="49.39014" lon="-1.06289">
        <ele>3.1</ele>
        <time>2020-06-16T14:05:34Z</time>
      </trkpt>
      <trkpt lat="49.39013" lon="-1.06288">
        <ele>3.1</ele>
        <time>2020-06-16T14:05:35Z</time>
      </trkpt>
      <trkpt lat="49.39014" lon="-1.06287">
        <ele>3.1</ele>
        <time>2020-06-16T14:05:36Z</time>
      </trkpt>
      <trkpt lat="49.39014" lon="-1.06286">
        <ele>3.1</ele>
        <time>2020-06-16T14:05:37Z</time>
      </trkpt>
      <trkpt lat="49.39013" lon="-1.06283">
        <ele>3.1</ele>
        <time>2020-06-16T14:05:38Z</time>
      </trkpt>
      <trkpt lat="49.39013" lon="-1.06281">
        <ele>3.1</ele>
        <time>2020-06-16T14:05:39Z</time>
      </trkpt>
      <trkpt lat="49.39013" lon="-1.0628">
        <ele>3.1</ele>
        <time>2020-06-16T14:05:40Z</time>
      </trkpt>
      <trkpt lat="49.39012" lon="-1.06277">
        <ele>3.1</ele>
        <time>2020-06-16T14:05:41Z</time>
      </trkpt>
      <trkpt lat="49.39012" lon="-1.06275">
        <ele>3.1</ele>
        <time>2020-06-16T14:05:42Z</time>
      </trkpt>
      <trkpt lat="49.39012" lon="-1.06272">
        <ele>3.2</ele>
        <time>2020-06-16T14:05:43Z</time>
      </trkpt>
      <trkpt lat="49.39012" lon="-1.06271">
        <ele>3.2</ele>
        <time>2020-06-16T14:05:44Z</time>
      </trkpt>
      <trkpt lat="49.39012" lon="-1.06271">
        <ele>3.2</ele>
        <time>2020-06-16T14:05:45Z</time>
      </trkpt>
      <trkpt lat="49.39012" lon="-1.06271">
        <ele>3.2</ele>
        <time>2020-06-16T14:05:46Z</time>
      </trkpt>
      <trkpt lat="49.39013" lon="-1.0627">
        <ele>3.2</ele>
        <time>2020-06-16T14:05:47Z</time>
      </trkpt>
      <trkpt lat="49.39013" lon="-1.0627">
        <ele>3.2</ele>
        <time>2020-06-16T14:05:48Z</time>
      </trkpt>
      <trkpt lat="49.39013" lon="-1.06269">
        <ele>3.2</ele>
        <time>2020-06-16T14:05:49Z</time>
      </trkpt>
      <trkpt lat="49.39013" lon="-1.06268">
        <ele>3.2</ele>
        <time>2020-06-16T14:05:50Z</time>
      </trkpt>
      <trkpt lat="49.39012" lon="-1.06268">
        <ele>3.2</ele>
        <time>2020-06-16T14:05:51Z</time>
      </trkpt>
      <trkpt lat="49.39012" lon="-1.06267">
        <ele>3.2</ele>
        <time>2020-06-16T14:05:52Z</time>
      </trkpt>
      <trkpt lat="49.39012" lon="-1.06267">
        <ele>3.2</ele>
        <time>2020-06-16T14:05:53Z</time>
      </trkpt>
      <trkpt lat="49.39012" lon="-1.06267">
        <ele>3.2</ele>
        <time>2020-06-16T14:05:54Z</time>
      </trkpt>
      <trkpt lat="49.39012" lon="-1.06267">
        <ele>3.2</ele>
        <time>2020-06-16T14:05:55Z</time>
      </trkpt>
      <trkpt lat="49.39012" lon="-1.06267">
        <ele>3.2</ele>
        <time>2020-06-16T14:05:56Z</time>
      </trkpt>
      <trkpt lat="49.39012" lon="-1.06266">
        <ele>3.2</ele>
        <time>2020-06-16T14:05:57Z</time>
      </trkpt>
      <trkpt lat="49.39012" lon="-1.06265">
        <ele>3.1</ele>
        <time>2020-06-16T14:05:58Z</time>
      </trkpt>
      <trkpt lat="49.39012" lon="-1.06265">
        <ele>3.1</ele>
        <time>2020-06-16T14:05:59Z</time>
      </trkpt>
      <trkpt lat="49.39012" lon="-1.06265">
        <ele>3.1</ele>
        <time>2020-06-16T14:06:00Z</time>
      </trkpt>
      <trkpt lat="49.39011" lon="-1.06257">
        <ele>3.1</ele>
        <time>2020-06-16T14:06:05Z</time>
      </trkpt>
      <trkpt lat="49.39011" lon="-1.06255">
        <ele>3.1</ele>
        <time>2020-06-16T14:06:06Z</time>
      </trkpt>
      <trkpt lat="49.39011" lon="-1.06253">
        <ele>3.1</ele>
        <time>2020-06-16T14:06:07Z</time>
      </trkpt>
      <trkpt lat="49.39012" lon="-1.06251">
        <ele>3.1</ele>
        <time>2020-06-16T14:06:08Z</time>
      </trkpt>
      <trkpt lat="49.39013" lon="-1.0625">
        <ele>3.1</ele>
        <time>2020-06-16T14:06:09Z</time>
      </trkpt>
      <trkpt lat="49.39014" lon="-1.06249">
        <ele>3.1</ele>
        <time>2020-06-16T14:06:10Z</time>
      </trkpt>
      <trkpt lat="49.39014" lon="-1.06248">
        <ele>3.1</ele>
        <time>2020-06-16T14:06:11Z</time>
      </trkpt>
      <trkpt lat="49.39013" lon="-1.06247">
        <ele>3.1</ele>
        <time>2020-06-16T14:06:12Z</time>
      </trkpt>
      <trkpt lat="49.39015" lon="-1.06244">
        <ele>3.1</ele>
        <time>2020-06-16T14:06:13Z</time>
      </trkpt>
      <trkpt lat="49.39016" lon="-1.06243">
        <ele>3.1</ele>
        <time>2020-06-16T14:06:14Z</time>
      </trkpt>
      <trkpt lat="49.39016" lon="-1.06242">
        <ele>3.1</ele>
        <time>2020-06-16T14:06:15Z</time>
      </trkpt>
      <trkpt lat="49.39017" lon="-1.06241">
        <ele>3.1</ele>
        <time>2020-06-16T14:06:16Z</time>
      </trkpt>
      <trkpt lat="49.39017" lon="-1.06239">
        <ele>3.1</ele>
        <time>2020-06-16T14:06:17Z</time>
      </trkpt>
      <trkpt lat="49.39018" lon="-1.06238">
        <ele>3.1</ele>
        <time>2020-06-16T14:06:18Z</time>
      </trkpt>
      <trkpt lat="49.39018" lon="-1.06237">
        <ele>3.1</ele>
        <time>2020-06-16T14:06:19Z</time>
      </trkpt>
      <trkpt lat="49.39018" lon="-1.06236">
        <ele>3.1</ele>
        <time>2020-06-16T14:06:20Z</time>
      </trkpt>
      <trkpt lat="49.39018" lon="-1.06234">
        <ele>3.1</ele>
        <time>2020-06-16T14:06:21Z</time>
      </trkpt>
      <trkpt lat="49.39018" lon="-1.06233">
        <ele>3.1</ele>
        <time>2020-06-16T14:06:22Z</time>
      </trkpt>
      <trkpt lat="49.39018" lon="-1.06232">
        <ele>3.1</ele>
        <time>2020-06-16T14:06:23Z</time>
      </trkpt>
      <trkpt lat="49.39018" lon="-1.06229">
        <ele>3.1</ele>
        <time>2020-06-16T14:06:24Z</time>
      </trkpt>
      <trkpt lat="49.39018" lon="-1.06229">
        <ele>3.1</ele>
        <time>2020-06-16T14:06:25Z</time>
      </trkpt>
      <trkpt lat="49.39018" lon="-1.06227">
        <ele>3.1</ele>
        <time>2020-06-16T14:06:26Z</time>
      </trkpt>
      <trkpt lat="49.39018" lon="-1.06226">
        <ele>3.1</ele>
        <time>2020-06-16T14:06:27Z</time>
      </trkpt>
      <trkpt lat="49.39018" lon="-1.06226">
        <ele>3.1</ele>
        <time>2020-06-16T14:06:28Z</time>
      </trkpt>
      <trkpt lat="49.39017" lon="-1.06225">
        <ele>3.1</ele>
        <time>2020-06-16T14:06:29Z</time>
      </trkpt>
      <trkpt lat="49.39016" lon="-1.06225">
        <ele>3.1</ele>
        <time>2020-06-16T14:06:30Z</time>
      </trkpt>
      <trkpt lat="49.39016" lon="-1.06224">
        <ele>3.1</ele>
        <time>2020-06-16T14:06:31Z</time>
      </trkpt>
      <trkpt lat="49.39016" lon="-1.06224">
        <ele>3.1</ele>
        <time>2020-06-16T14:06:32Z</time>
      </trkpt>
      <trkpt lat="49.39016" lon="-1.06224">
        <ele>3.1</ele>
        <time>2020-06-16T14:06:33Z</time>
      </trkpt>
      <trkpt lat="49.39016" lon="-1.06224">
        <ele>3.1</ele>
        <time>2020-06-16T14:06:34Z</time>
      </trkpt>
      <trkpt lat="49.39017" lon="-1.06223">
        <ele>3.1</ele>
        <time>2020-06-16T14:06:35Z</time>
      </trkpt>
      <trkpt lat="49.39017" lon="-1.06222">
        <ele>3.1</ele>
        <time>2020-06-16T14:06:36Z</time>
      </trkpt>
      <trkpt lat="49.39017" lon="-1.06222">
        <ele>3.1</ele>
        <time>2020-06-16T14:06:37Z</time>
      </trkpt>
      <trkpt lat="49.39018" lon="-1.06222">
        <ele>3.1</ele>
        <time>2020-06-16T14:06:38Z</time>
      </trkpt>
      <trkpt lat="49.39018" lon="-1.06223">
        <ele>3.1</ele>
        <time>2020-06-16T14:06:39Z</time>
      </trkpt>
      <trkpt lat="49.39017" lon="-1.06224">
        <ele>3.1</ele>
        <time>2020-06-16T14:06:40Z</time>
      </trkpt>
      <trkpt lat="49.39017" lon="-1.06223">
        <ele>3.1</ele>
        <time>2020-06-16T14:06:41Z</time>
      </trkpt>
      <trkpt lat="49.39016" lon="-1.06223">
        <ele>3.1</ele>
        <time>2020-06-16T14:06:42Z</time>
      </trkpt>
      <trkpt lat="49.39016" lon="-1.06221">
        <ele>3.1</ele>
        <time>2020-06-16T14:06:43Z</time>
      </trkpt>
      <trkpt lat="49.39015" lon="-1.06221">
        <ele>3.1</ele>
        <time>2020-06-16T14:06:44Z</time>
      </trkpt>
      <trkpt lat="49.39015" lon="-1.06221">
        <ele>3.1</ele>
        <time>2020-06-16T14:06:45Z</time>
      </trkpt>
      <trkpt lat="49.39015" lon="-1.06221">
        <ele>3.1</ele>
        <time>2020-06-16T14:06:46Z</time>
      </trkpt>
      <trkpt lat="49.39014" lon="-1.06221">
        <ele>3.1</ele>
        <time>2020-06-16T14:06:47Z</time>
      </trkpt>
      <trkpt lat="49.39014" lon="-1.06221">
        <ele>3.1</ele>
        <time>2020-06-16T14:06:48Z</time>
      </trkpt>
      <trkpt lat="49.39014" lon="-1.06221">
        <ele>3.1</ele>
        <time>2020-06-16T14:06:49Z</time>
      </trkpt>
      <trkpt lat="49.39014" lon="-1.0622">
        <ele>3.1</ele>
        <time>2020-06-16T14:06:50Z</time>
      </trkpt>
      <trkpt lat="49.39013" lon="-1.0622">
        <ele>3.1</ele>
        <time>2020-06-16T14:06:51Z</time>
      </trkpt>
      <trkpt lat="49.39013" lon="-1.06219">
        <ele>3.1</ele>
        <time>2020-06-16T14:06:52Z</time>
      </trkpt>
      <trkpt lat="49.39012" lon="-1.06218">
        <ele>3.1</ele>
        <time>2020-06-16T14:06:53Z</time>
      </trkpt>
      <trkpt lat="49.39012" lon="-1.06218">
        <ele>3.1</ele>
        <time>2020-06-16T14:06:54Z</time>
      </trkpt>
      <trkpt lat="49.39012" lon="-1.06217">
        <ele>3.1</ele>
        <time>2020-06-16T14:06:55Z</time>
      </trkpt>
      <trkpt lat="49.39012" lon="-1.06215">
        <ele>3.1</ele>
        <time>2020-06-16T14:06:56Z</time>
      </trkpt>
      <trkpt lat="49.39011" lon="-1.06212">
        <ele>3.1</ele>
        <time>2020-06-16T14:06:57Z</time>
      </trkpt>
      <trkpt lat="49.39012" lon="-1.0621">
        <ele>3.1</ele>
        <time>2020-06-16T14:06:58Z</time>
      </trkpt>
      <trkpt lat="49.39011" lon="-1.06209">
        <ele>3.1</ele>
        <time>2020-06-16T14:06:59Z</time>
      </trkpt>
      <trkpt lat="49.39011" lon="-1.06207">
        <ele>3.2</ele>
        <time>2020-06-16T14:07:00Z</time>
      </trkpt>
      <trkpt lat="49.39011" lon="-1.06205">
        <ele>3.2</ele>
        <time>2020-06-16T14:07:01Z</time>
      </trkpt>
      <trkpt lat="49.39011" lon="-1.06204">
        <ele>3.2</ele>
        <time>2020-06-16T14:07:02Z</time>
      </trkpt>
      <trkpt lat="49.39011" lon="-1.06202">
        <ele>3.2</ele>
        <time>2020-06-16T14:07:03Z</time>
      </trkpt>
      <trkpt lat="49.39011" lon="-1.06201">
        <ele>3.2</ele>
        <time>2020-06-16T14:07:04Z</time>
      </trkpt>
      <trkpt lat="49.39012" lon="-1.062">
        <ele>3.2</ele>
        <time>2020-06-16T14:07:05Z</time>
      </trkpt>
      <trkpt lat="49.39011" lon="-1.062">
        <ele>3.2</ele>
        <time>2020-06-16T14:07:06Z</time>
      </trkpt>
      <trkpt lat="49.39012" lon="-1.06199">
        <ele>3.2</ele>
        <time>2020-06-16T14:07:07Z</time>
      </trkpt>
      <trkpt lat="49.39012" lon="-1.06197">
        <ele>3.2</ele>
        <time>2020-06-16T14:07:08Z</time>
      </trkpt>
      <trkpt lat="49.39012" lon="-1.06197">
        <ele>3.2</ele>
        <time>2020-06-16T14:07:09Z</time>
      </trkpt>
      <trkpt lat="49.39012" lon="-1.06197">
        <ele>3.2</ele>
        <time>2020-06-16T14:07:10Z</time>
      </trkpt>
      <trkpt lat="49.39012" lon="-1.06196">
        <ele>3.2</ele>
        <time>2020-06-16T14:07:11Z</time>
      </trkpt>
      <trkpt lat="49.39011" lon="-1.06197">
        <ele>3.2</ele>
        <time>2020-06-16T14:07:12Z</time>
      </trkpt>
      <trkpt lat="49.39011" lon="-1.06196">
        <ele>3.2</ele>
        <time>2020-06-16T14:07:13Z</time>
      </trkpt>
      <trkpt lat="49.39012" lon="-1.06195">
        <ele>3.2</ele>
        <time>2020-06-16T14:07:14Z</time>
      </trkpt>
      <trkpt lat="49.39012" lon="-1.06194">
        <ele>3.2</ele>
        <time>2020-06-16T14:07:15Z</time>
      </trkpt>
      <trkpt lat="49.39013" lon="-1.06194">
        <ele>3.2</ele>
        <time>2020-06-16T14:07:16Z</time>
      </trkpt>
      <trkpt lat="49.39013" lon="-1.06193">
        <ele>3.2</ele>
        <time>2020-06-16T14:07:17Z</time>
      </trkpt>
      <trkpt lat="49.39013" lon="-1.06191">
        <ele>3.2</ele>
        <time>2020-06-16T14:07:18Z</time>
      </trkpt>
      <trkpt lat="49.39013" lon="-1.0619">
        <ele>3.2</ele>
        <time>2020-06-16T14:07:19Z</time>
      </trkpt>
      <trkpt lat="49.39013" lon="-1.0619">
        <ele>3.2</ele>
        <time>2020-06-16T14:07:20Z</time>
      </trkpt>
      <trkpt lat="49.39013" lon="-1.06189">
        <ele>3.2</ele>
        <time>2020-06-16T14:07:21Z</time>
      </trkpt>
      <trkpt lat="49.39013" lon="-1.06188">
        <ele>3.2</ele>
        <time>2020-06-16T14:07:22Z</time>
      </trkpt>
      <trkpt lat="49.39013" lon="-1.06186">
        <ele>3.2</ele>
        <time>2020-06-16T14:07:23Z</time>
      </trkpt>
      <trkpt lat="49.39013" lon="-1.06185">
        <ele>3.2</ele>
        <time>2020-06-16T14:07:24Z</time>
      </trkpt>
      <trkpt lat="49.39012" lon="-1.06185">
        <ele>3.2</ele>
        <time>2020-06-16T14:07:25Z</time>
      </trkpt>
      <trkpt lat="49.39012" lon="-1.06186">
        <ele>3.2</ele>
        <time>2020-06-16T14:07:26Z</time>
      </trkpt>
      <trkpt lat="49.39011" lon="-1.06185">
        <ele>3.2</ele>
        <time>2020-06-16T14:07:27Z</time>
      </trkpt>
      <trkpt lat="49.39011" lon="-1.06184">
        <ele>3.2</ele>
        <time>2020-06-16T14:07:28Z</time>
      </trkpt>
      <trkpt lat="49.39012" lon="-1.06183">
        <ele>3.2</ele>
        <time>2020-06-16T14:07:29Z</time>
      </trkpt>
      <trkpt lat="49.39013" lon="-1.06181">
        <ele>3.2</ele>
        <time>2020-06-16T14:07:30Z</time>
      </trkpt>
      <trkpt lat="49.39013" lon="-1.0618">
        <ele>3.2</ele>
        <time>2020-06-16T14:07:31Z</time>
      </trkpt>
      <trkpt lat="49.39013" lon="-1.0618">
        <ele>3.2</ele>
        <time>2020-06-16T14:07:32Z</time>
      </trkpt>
      <trkpt lat="49.39014" lon="-1.06179">
        <ele>3.2</ele>
        <time>2020-06-16T14:07:33Z</time>
      </trkpt>
      <trkpt lat="49.39014" lon="-1.06178">
        <ele>3.2</ele>
        <time>2020-06-16T14:07:34Z</time>
      </trkpt>
      <trkpt lat="49.39015" lon="-1.06177">
        <ele>3.2</ele>
        <time>2020-06-16T14:07:35Z</time>
      </trkpt>
      <trkpt lat="49.39015" lon="-1.06176">
        <ele>3.2</ele>
        <time>2020-06-16T14:07:36Z</time>
      </trkpt>
      <trkpt lat="49.39014" lon="-1.06175">
        <ele>3.2</ele>
        <time>2020-06-16T14:07:37Z</time>
      </trkpt>
      <trkpt lat="49.39014" lon="-1.06174">
        <ele>3.3</ele>
        <time>2020-06-16T14:07:38Z</time>
      </trkpt>
      <trkpt lat="49.39013" lon="-1.06172">
        <ele>3.3</ele>
        <time>2020-06-16T14:07:39Z</time>
      </trkpt>
      <trkpt lat="49.39013" lon="-1.06169">
        <ele>3.3</ele>
        <time>2020-06-16T14:07:40Z</time>
      </trkpt>
      <trkpt lat="49.39013" lon="-1.06167">
        <ele>3.3</ele>
        <time>2020-06-16T14:07:41Z</time>
      </trkpt>
      <trkpt lat="49.39012" lon="-1.06164">
        <ele>3.3</ele>
        <time>2020-06-16T14:07:42Z</time>
      </trkpt>
      <trkpt lat="49.39012" lon="-1.06163">
        <ele>3.3</ele>
        <time>2020-06-16T14:07:43Z</time>
      </trkpt>
      <trkpt lat="49.39012" lon="-1.06161">
        <ele>3.3</ele>
        <time>2020-06-16T14:07:44Z</time>
      </trkpt>
      <trkpt lat="49.39011" lon="-1.06159">
        <ele>3.3</ele>
        <time>2020-06-16T14:07:45Z</time>
      </trkpt>
      <trkpt lat="49.39011" lon="-1.06158">
        <ele>3.3</ele>
        <time>2020-06-16T14:07:46Z</time>
      </trkpt>
      <trkpt lat="49.3901" lon="-1.06157">
        <ele>3.3</ele>
        <time>2020-06-16T14:07:47Z</time>
      </trkpt>
      <trkpt lat="49.3901" lon="-1.06155">
        <ele>3.3</ele>
        <time>2020-06-16T14:07:48Z</time>
      </trkpt>
      <trkpt lat="49.39009" lon="-1.06153">
        <ele>3.3</ele>
        <time>2020-06-16T14:07:49Z</time>
      </trkpt>
      <trkpt lat="49.39009" lon="-1.06151">
        <ele>3.3</ele>
        <time>2020-06-16T14:07:50Z</time>
      </trkpt>
      <trkpt lat="49.39009" lon="-1.0615">
        <ele>3.3</ele>
        <time>2020-06-16T14:07:51Z</time>
      </trkpt>
      <trkpt lat="49.39009" lon="-1.06149">
        <ele>3.3</ele>
        <time>2020-06-16T14:07:52Z</time>
      </trkpt>
      <trkpt lat="49.39009" lon="-1.06147">
        <ele>3.4</ele>
        <time>2020-06-16T14:07:53Z</time>
      </trkpt>
      <trkpt lat="49.39009" lon="-1.06146">
        <ele>3.4</ele>
        <time>2020-06-16T14:07:54Z</time>
      </trkpt>
      <trkpt lat="49.39009" lon="-1.06145">
        <ele>3.4</ele>
        <time>2020-06-16T14:07:55Z</time>
      </trkpt>
      <trkpt lat="49.39009" lon="-1.06143">
        <ele>3.4</ele>
        <time>2020-06-16T14:07:56Z</time>
      </trkpt>
      <trkpt lat="49.39009" lon="-1.06141">
        <ele>3.4</ele>
        <time>2020-06-16T14:07:57Z</time>
      </trkpt>
      <trkpt lat="49.39009" lon="-1.0614">
        <ele>3.4</ele>
        <time>2020-06-16T14:07:58Z</time>
      </trkpt>
      <trkpt lat="49.39009" lon="-1.06138">
        <ele>3.4</ele>
        <time>2020-06-16T14:07:59Z</time>
      </trkpt>
      <trkpt lat="49.3901" lon="-1.06138">
        <ele>3.4</ele>
        <time>2020-06-16T14:08:00Z</time>
      </trkpt>
      <trkpt lat="49.3901" lon="-1.06137">
        <ele>3.4</ele>
        <time>2020-06-16T14:08:01Z</time>
      </trkpt>
      <trkpt lat="49.3901" lon="-1.06137">
        <ele>3.4</ele>
        <time>2020-06-16T14:08:02Z</time>
      </trkpt>
      <trkpt lat="49.39011" lon="-1.06137">
        <ele>3.4</ele>
        <time>2020-06-16T14:08:03Z</time>
      </trkpt>
      <trkpt lat="49.39012" lon="-1.06137">
        <ele>3.4</ele>
        <time>2020-06-16T14:08:04Z</time>
      </trkpt>
      <trkpt lat="49.39013" lon="-1.06137">
        <ele>3.4</ele>
        <time>2020-06-16T14:08:05Z</time>
      </trkpt>
      <trkpt lat="49.39014" lon="-1.06137">
        <ele>3.4</ele>
        <time>2020-06-16T14:08:06Z</time>
      </trkpt>
      <trkpt lat="49.39016" lon="-1.06137">
        <ele>3.4</ele>
        <time>2020-06-16T14:08:07Z</time>
      </trkpt>
      <trkpt lat="49.39016" lon="-1.06137">
        <ele>3.4</ele>
        <time>2020-06-16T14:08:08Z</time>
      </trkpt>
      <trkpt lat="49.39017" lon="-1.06136">
        <ele>3.4</ele>
        <time>2020-06-16T14:08:09Z</time>
      </trkpt>
      <trkpt lat="49.39018" lon="-1.06135">
        <ele>3.4</ele>
        <time>2020-06-16T14:08:10Z</time>
      </trkpt>
      <trkpt lat="49.39019" lon="-1.06134">
        <ele>3.3</ele>
        <time>2020-06-16T14:08:11Z</time>
      </trkpt>
      <trkpt lat="49.39019" lon="-1.06133">
        <ele>3.3</ele>
        <time>2020-06-16T14:08:12Z</time>
      </trkpt>
      <trkpt lat="49.3902" lon="-1.06132">
        <ele>3.3</ele>
        <time>2020-06-16T14:08:13Z</time>
      </trkpt>
      <trkpt lat="49.39019" lon="-1.06129">
        <ele>3.3</ele>
        <time>2020-06-16T14:08:14Z</time>
      </trkpt>
      <trkpt lat="49.3902" lon="-1.06128">
        <ele>3.3</ele>
        <time>2020-06-16T14:08:15Z</time>
      </trkpt>
      <trkpt lat="49.3902" lon="-1.06127">
        <ele>3.2</ele>
        <time>2020-06-16T14:08:16Z</time>
      </trkpt>
      <trkpt lat="49.3902" lon="-1.06125">
        <ele>3.2</ele>
        <time>2020-06-16T14:08:17Z</time>
      </trkpt>
      <trkpt lat="49.3902" lon="-1.06123">
        <ele>3.2</ele>
        <time>2020-06-16T14:08:18Z</time>
      </trkpt>
      <trkpt lat="49.3902" lon="-1.06122">
        <ele>3.1</ele>
        <time>2020-06-16T14:08:19Z</time>
      </trkpt>
      <trkpt lat="49.3902" lon="-1.0612">
        <ele>3.1</ele>
        <time>2020-06-16T14:08:20Z</time>
      </trkpt>
      <trkpt lat="49.3902" lon="-1.06119">
        <ele>3.1</ele>
        <time>2020-06-16T14:08:21Z</time>
      </trkpt>
      <trkpt lat="49.3902" lon="-1.06118">
        <ele>3.1</ele>
        <time>2020-06-16T14:08:22Z</time>
      </trkpt>
      <trkpt lat="49.39021" lon="-1.06116">
        <ele>3.1</ele>
        <time>2020-06-16T14:08:23Z</time>
      </trkpt>
      <trkpt lat="49.39021" lon="-1.06115">
        <ele>3.1</ele>
        <time>2020-06-16T14:08:24Z</time>
      </trkpt>
      <trkpt lat="49.39021" lon="-1.06113">
        <ele>3.1</ele>
        <time>2020-06-16T14:08:25Z</time>
      </trkpt>
      <trkpt lat="49.39022" lon="-1.06113">
        <ele>3.1</ele>
        <time>2020-06-16T14:08:26Z</time>
      </trkpt>
      <trkpt lat="49.39022" lon="-1.06112">
        <ele>3.1</ele>
        <time>2020-06-16T14:08:27Z</time>
      </trkpt>
      <trkpt lat="49.39022" lon="-1.06111">
        <ele>3.1</ele>
        <time>2020-06-16T14:08:28Z</time>
      </trkpt>
      <trkpt lat="49.39022" lon="-1.0611">
        <ele>3.1</ele>
        <time>2020-06-16T14:08:29Z</time>
      </trkpt>
      <trkpt lat="49.39021" lon="-1.06109">
        <ele>3.1</ele>
        <time>2020-06-16T14:08:30Z</time>
      </trkpt>
      <trkpt lat="49.39021" lon="-1.06108">
        <ele>3.1</ele>
        <time>2020-06-16T14:08:31Z</time>
      </trkpt>
      <trkpt lat="49.39021" lon="-1.06106">
        <ele>3.1</ele>
        <time>2020-06-16T14:08:32Z</time>
      </trkpt>
      <trkpt lat="49.39021" lon="-1.06105">
        <ele>3.1</ele>
        <time>2020-06-16T14:08:33Z</time>
      </trkpt>
      <trkpt lat="49.39021" lon="-1.06105">
        <ele>3.1</ele>
        <time>2020-06-16T14:08:34Z</time>
      </trkpt>
      <trkpt lat="49.39021" lon="-1.06104">
        <ele>3.1</ele>
        <time>2020-06-16T14:08:35Z</time>
      </trkpt>
      <trkpt lat="49.39021" lon="-1.06103">
        <ele>3.1</ele>
        <time>2020-06-16T14:08:36Z</time>
      </trkpt>
      <trkpt lat="49.39021" lon="-1.06102">
        <ele>3.1</ele>
        <time>2020-06-16T14:08:37Z</time>
      </trkpt>
      <trkpt lat="49.39021" lon="-1.06102">
        <ele>3.1</ele>
        <time>2020-06-16T14:08:38Z</time>
      </trkpt>
      <trkpt lat="49.39021" lon="-1.06101">
        <ele>3.1</ele>
        <time>2020-06-16T14:08:39Z</time>
      </trkpt>
      <trkpt lat="49.39021" lon="-1.061">
        <ele>3.1</ele>
        <time>2020-06-16T14:08:40Z</time>
      </trkpt>
      <trkpt lat="49.39021" lon="-1.06099">
        <ele>3.1</ele>
        <time>2020-06-16T14:08:41Z</time>
      </trkpt>
      <trkpt lat="49.39021" lon="-1.06098">
        <ele>3.1</ele>
        <time>2020-06-16T14:08:42Z</time>
      </trkpt>
      <trkpt lat="49.39021" lon="-1.06097">
        <ele>3.1</ele>
        <time>2020-06-16T14:08:43Z</time>
      </trkpt>
      <trkpt lat="49.39021" lon="-1.06096">
        <ele>3.1</ele>
        <time>2020-06-16T14:08:44Z</time>
      </trkpt>
      <trkpt lat="49.39022" lon="-1.06094">
        <ele>3.1</ele>
        <time>2020-06-16T14:08:45Z</time>
      </trkpt>
      <trkpt lat="49.39022" lon="-1.06093">
        <ele>3.1</ele>
        <time>2020-06-16T14:08:46Z</time>
      </trkpt>
      <trkpt lat="49.39023" lon="-1.06091">
        <ele>3.1</ele>
        <time>2020-06-16T14:08:47Z</time>
      </trkpt>
      <trkpt lat="49.39024" lon="-1.0609">
        <ele>3.1</ele>
        <time>2020-06-16T14:08:48Z</time>
      </trkpt>
      <trkpt lat="49.39024" lon="-1.06088">
        <ele>3.1</ele>
        <time>2020-06-16T14:08:49Z</time>
      </trkpt>
      <trkpt lat="49.39024" lon="-1.06085">
        <ele>3.1</ele>
        <time>2020-06-16T14:08:50Z</time>
      </trkpt>
      <trkpt lat="49.39024" lon="-1.06083">
        <ele>3.1</ele>
        <time>2020-06-16T14:08:51Z</time>
      </trkpt>
      <trkpt lat="49.39023" lon="-1.06081">
        <ele>3.1</ele>
        <time>2020-06-16T14:08:52Z</time>
      </trkpt>
      <trkpt lat="49.39023" lon="-1.06078">
        <ele>3.1</ele>
        <time>2020-06-16T14:08:53Z</time>
      </trkpt>
      <trkpt lat="49.39023" lon="-1.06076">
        <ele>3.1</ele>
        <time>2020-06-16T14:08:54Z</time>
      </trkpt>
      <trkpt lat="49.39023" lon="-1.06074">
        <ele>3.1</ele>
        <time>2020-06-16T14:08:55Z</time>
      </trkpt>
      <trkpt lat="49.39023" lon="-1.06072">
        <ele>3.1</ele>
        <time>2020-06-16T14:08:56Z</time>
      </trkpt>
      <trkpt lat="49.39023" lon="-1.0607">
        <ele>3.1</ele>
        <time>2020-06-16T14:08:57Z</time>
      </trkpt>
      <trkpt lat="49.39023" lon="-1.06068">
        <ele>3.1</ele>
        <time>2020-06-16T14:08:58Z</time>
      </trkpt>
      <trkpt lat="49.39023" lon="-1.06066">
        <ele>3.1</ele>
        <time>2020-06-16T14:08:59Z</time>
      </trkpt>
      <trkpt lat="49.39024" lon="-1.06063">
        <ele>3.1</ele>
        <time>2020-06-16T14:09:00Z</time>
      </trkpt>
      <trkpt lat="49.39024" lon="-1.0606">
        <ele>3.1</ele>
        <time>2020-06-16T14:09:01Z</time>
      </trkpt>
      <trkpt lat="49.39025" lon="-1.06059">
        <ele>3.1</ele>
        <time>2020-06-16T14:09:02Z</time>
      </trkpt>
      <trkpt lat="49.39025" lon="-1.06057">
        <ele>3.1</ele>
        <time>2020-06-16T14:09:03Z</time>
      </trkpt>
      <trkpt lat="49.39025" lon="-1.06055">
        <ele>3.1</ele>
        <time>2020-06-16T14:09:04Z</time>
      </trkpt>
      <trkpt lat="49.39026" lon="-1.06052">
        <ele>3</ele>
        <time>2020-06-16T14:09:05Z</time>
      </trkpt>
      <trkpt lat="49.39027" lon="-1.0605">
        <ele>3</ele>
        <time>2020-06-16T14:09:06Z</time>
      </trkpt>
      <trkpt lat="49.39027" lon="-1.06047">
        <ele>3</ele>
        <time>2020-06-16T14:09:07Z</time>
      </trkpt>
      <trkpt lat="49.39028" lon="-1.06045">
        <ele>3</ele>
        <time>2020-06-16T14:09:08Z</time>
      </trkpt>
      <trkpt lat="49.39028" lon="-1.06043">
        <ele>3</ele>
        <time>2020-06-16T14:09:09Z</time>
      </trkpt>
      <trkpt lat="49.39028" lon="-1.06039">
        <ele>3</ele>
        <time>2020-06-16T14:09:10Z</time>
      </trkpt>
      <trkpt lat="49.39028" lon="-1.06037">
        <ele>3</ele>
        <time>2020-06-16T14:09:11Z</time>
      </trkpt>
      <trkpt lat="49.39028" lon="-1.06036">
        <ele>3</ele>
        <time>2020-06-16T14:09:12Z</time>
      </trkpt>
      <trkpt lat="49.39029" lon="-1.0603">
        <ele>3</ele>
        <time>2020-06-16T14:09:13Z</time>
      </trkpt>
      <trkpt lat="49.39029" lon="-1.06028">
        <ele>3.1</ele>
        <time>2020-06-16T14:09:14Z</time>
      </trkpt>
      <trkpt lat="49.3903" lon="-1.06023">
        <ele>3.1</ele>
        <time>2020-06-16T14:09:15Z</time>
      </trkpt>
      <trkpt lat="49.3903" lon="-1.06021">
        <ele>3.1</ele>
        <time>2020-06-16T14:09:16Z</time>
      </trkpt>
      <trkpt lat="49.3903" lon="-1.06016">
        <ele>3.1</ele>
        <time>2020-06-16T14:09:17Z</time>
      </trkpt>
      <trkpt lat="49.3903" lon="-1.06015">
        <ele>3.1</ele>
        <time>2020-06-16T14:09:18Z</time>
      </trkpt>
      <trkpt lat="49.3903" lon="-1.06012">
        <ele>3.1</ele>
        <time>2020-06-16T14:09:19Z</time>
      </trkpt>
      <trkpt lat="49.3903" lon="-1.06009">
        <ele>3.1</ele>
        <time>2020-06-16T14:09:20Z</time>
      </trkpt>
      <trkpt lat="49.39031" lon="-1.06007">
        <ele>3.2</ele>
        <time>2020-06-16T14:09:21Z</time>
      </trkpt>
      <trkpt lat="49.39031" lon="-1.06004">
        <ele>3.2</ele>
        <time>2020-06-16T14:09:22Z</time>
      </trkpt>
      <trkpt lat="49.39031" lon="-1.06002">
        <ele>3.2</ele>
        <time>2020-06-16T14:09:23Z</time>
      </trkpt>
      <trkpt lat="49.39032" lon="-1.06001">
        <ele>3.2</ele>
        <time>2020-06-16T14:09:24Z</time>
      </trkpt>
      <trkpt lat="49.39032" lon="-1.05999">
        <ele>3.2</ele>
        <time>2020-06-16T14:09:25Z</time>
      </trkpt>
      <trkpt lat="49.39032" lon="-1.05996">
        <ele>3.2</ele>
        <time>2020-06-16T14:09:26Z</time>
      </trkpt>
      <trkpt lat="49.39032" lon="-1.05994">
        <ele>3.2</ele>
        <time>2020-06-16T14:09:27Z</time>
      </trkpt>
      <trkpt lat="49.39032" lon="-1.05992">
        <ele>3.2</ele>
        <time>2020-06-16T14:09:28Z</time>
      </trkpt>
      <trkpt lat="49.39032" lon="-1.0599">
        <ele>3.2</ele>
        <time>2020-06-16T14:09:29Z</time>
      </trkpt>
      <trkpt lat="49.39032" lon="-1.05987">
        <ele>3.2</ele>
        <time>2020-06-16T14:09:30Z</time>
      </trkpt>
      <trkpt lat="49.39032" lon="-1.05984">
        <ele>3.2</ele>
        <time>2020-06-16T14:09:31Z</time>
      </trkpt>
      <trkpt lat="49.39032" lon="-1.05979">
        <ele>3.2</ele>
        <time>2020-06-16T14:09:32Z</time>
      </trkpt>
      <trkpt lat="49.39032" lon="-1.05977">
        <ele>3.2</ele>
        <time>2020-06-16T14:09:33Z</time>
      </trkpt>
      <trkpt lat="49.39033" lon="-1.05973">
        <ele>3.2</ele>
        <time>2020-06-16T14:09:34Z</time>
      </trkpt>
      <trkpt lat="49.39033" lon="-1.05968">
        <ele>3.2</ele>
        <time>2020-06-16T14:09:35Z</time>
      </trkpt>
      <trkpt lat="49.39033" lon="-1.05964">
        <ele>3.2</ele>
        <time>2020-06-16T14:09:36Z</time>
      </trkpt>
      <trkpt lat="49.39034" lon="-1.0596">
        <ele>3.2</ele>
        <time>2020-06-16T14:09:37Z</time>
      </trkpt>
      <trkpt lat="49.39035" lon="-1.05955">
        <ele>3.2</ele>
        <time>2020-06-16T14:09:38Z</time>
      </trkpt>
      <trkpt lat="49.39035" lon="-1.0595">
        <ele>3.1</ele>
        <time>2020-06-16T14:09:39Z</time>
      </trkpt>
      <trkpt lat="49.39036" lon="-1.05945">
        <ele>3.1</ele>
        <time>2020-06-16T14:09:40Z</time>
      </trkpt>
      <trkpt lat="49.39037" lon="-1.05939">
        <ele>3</ele>
        <time>2020-06-16T14:09:41Z</time>
      </trkpt>
      <trkpt lat="49.39037" lon="-1.05935">
        <ele>3</ele>
        <time>2020-06-16T14:09:42Z</time>
      </trkpt>
      <trkpt lat="49.39037" lon="-1.05928">
        <ele>3</ele>
        <time>2020-06-16T14:09:43Z</time>
      </trkpt>
      <trkpt lat="49.39038" lon="-1.05921">
        <ele>3</ele>
        <time>2020-06-16T14:09:44Z</time>
      </trkpt>
      <trkpt lat="49.39038" lon="-1.05914">
        <ele>3</ele>
        <time>2020-06-16T14:09:45Z</time>
      </trkpt>
      <trkpt lat="49.39038" lon="-1.05908">
        <ele>3</ele>
        <time>2020-06-16T14:09:46Z</time>
      </trkpt>
      <trkpt lat="49.39038" lon="-1.05902">
        <ele>3</ele>
        <time>2020-06-16T14:09:47Z</time>
      </trkpt>
      <trkpt lat="49.39039" lon="-1.05897">
        <ele>3</ele>
        <time>2020-06-16T14:09:48Z</time>
      </trkpt>
      <trkpt lat="49.39039" lon="-1.05892">
        <ele>3</ele>
        <time>2020-06-16T14:09:49Z</time>
      </trkpt>
      <trkpt lat="49.3904" lon="-1.05888">
        <ele>3</ele>
        <time>2020-06-16T14:09:50Z</time>
      </trkpt>
      <trkpt lat="49.39039" lon="-1.05883">
        <ele>3</ele>
        <time>2020-06-16T14:09:51Z</time>
      </trkpt>
      <trkpt lat="49.39039" lon="-1.05878">
        <ele>3</ele>
        <time>2020-06-16T14:09:52Z</time>
      </trkpt>
      <trkpt lat="49.3904" lon="-1.05873">
        <ele>2.9</ele>
        <time>2020-06-16T14:09:53Z</time>
      </trkpt>
      <trkpt lat="49.3904" lon="-1.05868">
        <ele>2.9</ele>
        <time>2020-06-16T14:09:54Z</time>
      </trkpt>
      <trkpt lat="49.3904" lon="-1.05863">
        <ele>2.9</ele>
        <time>2020-06-16T14:09:55Z</time>
      </trkpt>
      <trkpt lat="49.39041" lon="-1.05858">
        <ele>2.8</ele>
        <time>2020-06-16T14:09:56Z</time>
      </trkpt>
      <trkpt lat="49.39041" lon="-1.05854">
        <ele>2.8</ele>
        <time>2020-06-16T14:09:57Z</time>
      </trkpt>
      <trkpt lat="49.39042" lon="-1.05849">
        <ele>2.7</ele>
        <time>2020-06-16T14:09:58Z</time>
      </trkpt>
      <trkpt lat="49.39043" lon="-1.05844">
        <ele>2.7</ele>
        <time>2020-06-16T14:09:59Z</time>
      </trkpt>
      <trkpt lat="49.39044" lon="-1.0584">
        <ele>2.6</ele>
        <time>2020-06-16T14:10:00Z</time>
      </trkpt>
      <trkpt lat="49.39045" lon="-1.05836">
        <ele>2.6</ele>
        <time>2020-06-16T14:10:01Z</time>
      </trkpt>
      <trkpt lat="49.39047" lon="-1.05831">
        <ele>2.6</ele>
        <time>2020-06-16T14:10:02Z</time>
      </trkpt>
      <trkpt lat="49.39047" lon="-1.0583">
        <ele>2.6</ele>
        <time>2020-06-16T14:10:03Z</time>
      </trkpt>
      <trkpt lat="49.39048" lon="-1.05825">
        <ele>2.6</ele>
        <time>2020-06-16T14:10:04Z</time>
      </trkpt>
      <trkpt lat="49.39048" lon="-1.05823">
        <ele>2.6</ele>
        <time>2020-06-16T14:10:05Z</time>
      </trkpt>
      <trkpt lat="49.3905" lon="-1.05818">
        <ele>2.6</ele>
        <time>2020-06-16T14:10:06Z</time>
      </trkpt>
      <trkpt lat="49.3905" lon="-1.05816">
        <ele>2.6</ele>
        <time>2020-06-16T14:10:07Z</time>
      </trkpt>
      <trkpt lat="49.39049" lon="-1.0581">
        <ele>2.6</ele>
        <time>2020-06-16T14:10:08Z</time>
      </trkpt>
      <trkpt lat="49.39049" lon="-1.05808">
        <ele>2.6</ele>
        <time>2020-06-16T14:10:09Z</time>
      </trkpt>
      <trkpt lat="49.3905" lon="-1.05803">
        <ele>2.5</ele>
        <time>2020-06-16T14:10:10Z</time>
      </trkpt>
      <trkpt lat="49.39051" lon="-1.05801">
        <ele>2.5</ele>
        <time>2020-06-16T14:10:11Z</time>
      </trkpt>
      <trkpt lat="49.39052" lon="-1.05797">
        <ele>2.5</ele>
        <time>2020-06-16T14:10:12Z</time>
      </trkpt>
      <trkpt lat="49.39054" lon="-1.05793">
        <ele>2.5</ele>
        <time>2020-06-16T14:10:13Z</time>
      </trkpt>
      <trkpt lat="49.39055" lon="-1.05789">
        <ele>2.4</ele>
        <time>2020-06-16T14:10:14Z</time>
      </trkpt>
      <trkpt lat="49.39055" lon="-1.05785">
        <ele>2.4</ele>
        <time>2020-06-16T14:10:15Z</time>
      </trkpt>
      <trkpt lat="49.39056" lon="-1.05779">
        <ele>2.4</ele>
        <time>2020-06-16T14:10:16Z</time>
      </trkpt>
      <trkpt lat="49.39057" lon="-1.05777">
        <ele>2.4</ele>
        <time>2020-06-16T14:10:17Z</time>
      </trkpt>
      <trkpt lat="49.39058" lon="-1.05772">
        <ele>2.4</ele>
        <time>2020-06-16T14:10:18Z</time>
      </trkpt>
      <trkpt lat="49.39058" lon="-1.05768">
        <ele>2.4</ele>
        <time>2020-06-16T14:10:19Z</time>
      </trkpt>
      <trkpt lat="49.3906" lon="-1.05763">
        <ele>2.4</ele>
        <time>2020-06-16T14:10:20Z</time>
      </trkpt>
      <trkpt lat="49.39061" lon="-1.05758">
        <ele>2.4</ele>
        <time>2020-06-16T14:10:21Z</time>
      </trkpt>
      <trkpt lat="49.39062" lon="-1.05753">
        <ele>2.5</ele>
        <time>2020-06-16T14:10:22Z</time>
      </trkpt>
      <trkpt lat="49.39064" lon="-1.05748">
        <ele>2.5</ele>
        <time>2020-06-16T14:10:23Z</time>
      </trkpt>
      <trkpt lat="49.39065" lon="-1.05744">
        <ele>2.5</ele>
        <time>2020-06-16T14:10:24Z</time>
      </trkpt>
      <trkpt lat="49.39065" lon="-1.05739">
        <ele>2.5</ele>
        <time>2020-06-16T14:10:25Z</time>
      </trkpt>
      <trkpt lat="49.39065" lon="-1.05734">
        <ele>2.5</ele>
        <time>2020-06-16T14:10:26Z</time>
      </trkpt>
      <trkpt lat="49.39066" lon="-1.0573">
        <ele>2.6</ele>
        <time>2020-06-16T14:10:27Z</time>
      </trkpt>
      <trkpt lat="49.39067" lon="-1.05725">
        <ele>2.6</ele>
        <time>2020-06-16T14:10:28Z</time>
      </trkpt>
      <trkpt lat="49.39068" lon="-1.0572">
        <ele>2.6</ele>
        <time>2020-06-16T14:10:29Z</time>
      </trkpt>
      <trkpt lat="49.39068" lon="-1.05715">
        <ele>2.6</ele>
        <time>2020-06-16T14:10:30Z</time>
      </trkpt>
      <trkpt lat="49.39069" lon="-1.05709">
        <ele>2.6</ele>
        <time>2020-06-16T14:10:31Z</time>
      </trkpt>
      <trkpt lat="49.39069" lon="-1.05705">
        <ele>2.6</ele>
        <time>2020-06-16T14:10:32Z</time>
      </trkpt>
      <trkpt lat="49.39069" lon="-1.05699">
        <ele>2.6</ele>
        <time>2020-06-16T14:10:33Z</time>
      </trkpt>
      <trkpt lat="49.39068" lon="-1.05693">
        <ele>2.6</ele>
        <time>2020-06-16T14:10:34Z</time>
      </trkpt>
      <trkpt lat="49.39067" lon="-1.05687">
        <ele>2.7</ele>
        <time>2020-06-16T14:10:35Z</time>
      </trkpt>
      <trkpt lat="49.39064" lon="-1.05681">
        <ele>2.7</ele>
        <time>2020-06-16T14:10:36Z</time>
      </trkpt>
      <trkpt lat="49.39062" lon="-1.05677">
        <ele>2.7</ele>
        <time>2020-06-16T14:10:37Z</time>
      </trkpt>
      <trkpt lat="49.3906" lon="-1.05672">
        <ele>2.7</ele>
        <time>2020-06-16T14:10:38Z</time>
      </trkpt>
      <trkpt lat="49.39058" lon="-1.05669">
        <ele>2.6</ele>
        <time>2020-06-16T14:10:39Z</time>
      </trkpt>
      <trkpt lat="49.39054" lon="-1.05666">
        <ele>2.5</ele>
        <time>2020-06-16T14:10:40Z</time>
      </trkpt>
      <trkpt lat="49.3905" lon="-1.05663">
        <ele>2.5</ele>
        <time>2020-06-16T14:10:41Z</time>
      </trkpt>
      <trkpt lat="49.39047" lon="-1.0566">
        <ele>2.4</ele>
        <time>2020-06-16T14:10:42Z</time>
      </trkpt>
      <trkpt lat="49.39043" lon="-1.05658">
        <ele>2.3</ele>
        <time>2020-06-16T14:10:43Z</time>
      </trkpt>
      <trkpt lat="49.3904" lon="-1.05657">
        <ele>2.3</ele>
        <time>2020-06-16T14:10:44Z</time>
      </trkpt>
      <trkpt lat="49.39036" lon="-1.05658">
        <ele>2.2</ele>
        <time>2020-06-16T14:10:45Z</time>
      </trkpt>
      <trkpt lat="49.39032" lon="-1.05658">
        <ele>2.2</ele>
        <time>2020-06-16T14:10:46Z</time>
      </trkpt>
      <trkpt lat="49.39028" lon="-1.05657">
        <ele>2.2</ele>
        <time>2020-06-16T14:10:47Z</time>
      </trkpt>
      <trkpt lat="49.39024" lon="-1.05657">
        <ele>2.2</ele>
        <time>2020-06-16T14:10:48Z</time>
      </trkpt>
      <trkpt lat="49.3902" lon="-1.05656">
        <ele>2.2</ele>
        <time>2020-06-16T14:10:49Z</time>
      </trkpt>
      <trkpt lat="49.39015" lon="-1.05655">
        <ele>2.2</ele>
        <time>2020-06-16T14:10:50Z</time>
      </trkpt>
      <trkpt lat="49.39011" lon="-1.05654">
        <ele>2.2</ele>
        <time>2020-06-16T14:10:51Z</time>
      </trkpt>
      <trkpt lat="49.39006" lon="-1.05653">
        <ele>2.2</ele>
        <time>2020-06-16T14:10:52Z</time>
      </trkpt>
      <trkpt lat="49.39001" lon="-1.05653">
        <ele>2.2</ele>
        <time>2020-06-16T14:10:53Z</time>
      </trkpt>
      <trkpt lat="49.38996" lon="-1.05652">
        <ele>2.2</ele>
        <time>2020-06-16T14:10:54Z</time>
      </trkpt>
      <trkpt lat="49.38991" lon="-1.05652">
        <ele>2.2</ele>
        <time>2020-06-16T14:10:55Z</time>
      </trkpt>
      <trkpt lat="49.38986" lon="-1.05652">
        <ele>2.2</ele>
        <time>2020-06-16T14:10:56Z</time>
      </trkpt>
      <trkpt lat="49.38981" lon="-1.05651">
        <ele>2.3</ele>
        <time>2020-06-16T14:10:57Z</time>
      </trkpt>
      <trkpt lat="49.38974" lon="-1.05651">
        <ele>2.3</ele>
        <time>2020-06-16T14:10:58Z</time>
      </trkpt>
      <trkpt lat="49.38969" lon="-1.0565">
        <ele>2.4</ele>
        <time>2020-06-16T14:10:59Z</time>
      </trkpt>
      <trkpt lat="49.38963" lon="-1.05649">
        <ele>2.4</ele>
        <time>2020-06-16T14:11:00Z</time>
      </trkpt>
      <trkpt lat="49.38958" lon="-1.05649">
        <ele>2.3</ele>
        <time>2020-06-16T14:11:01Z</time>
      </trkpt>
      <trkpt lat="49.38953" lon="-1.05648">
        <ele>2.3</ele>
        <time>2020-06-16T14:11:02Z</time>
      </trkpt>
      <trkpt lat="49.38949" lon="-1.05647">
        <ele>2.3</ele>
        <time>2020-06-16T14:11:03Z</time>
      </trkpt>
      <trkpt lat="49.38944" lon="-1.05646">
        <ele>2.3</ele>
        <time>2020-06-16T14:11:04Z</time>
      </trkpt>
      <trkpt lat="49.3894" lon="-1.05645">
        <ele>2.3</ele>
        <time>2020-06-16T14:11:05Z</time>
      </trkpt>
      <trkpt lat="49.38935" lon="-1.05645">
        <ele>2.3</ele>
        <time>2020-06-16T14:11:06Z</time>
      </trkpt>
      <trkpt lat="49.3893" lon="-1.05644">
        <ele>2.2</ele>
        <time>2020-06-16T14:11:07Z</time>
      </trkpt>
      <trkpt lat="49.38926" lon="-1.05643">
        <ele>2.2</ele>
        <time>2020-06-16T14:11:08Z</time>
      </trkpt>
      <trkpt lat="49.38921" lon="-1.05642">
        <ele>2.2</ele>
        <time>2020-06-16T14:11:09Z</time>
      </trkpt>
      <trkpt lat="49.38916" lon="-1.05642">
        <ele>2.2</ele>
        <time>2020-06-16T14:11:10Z</time>
      </trkpt>
      <trkpt lat="49.38912" lon="-1.05641">
        <ele>2.2</ele>
        <time>2020-06-16T14:11:11Z</time>
      </trkpt>
      <trkpt lat="49.38907" lon="-1.0564">
        <ele>2.2</ele>
        <time>2020-06-16T14:11:12Z</time>
      </trkpt>
      <trkpt lat="49.38902" lon="-1.05638">
        <ele>2.2</ele>
        <time>2020-06-16T14:11:13Z</time>
      </trkpt>
      <trkpt lat="49.38897" lon="-1.05636">
        <ele>2.1</ele>
        <time>2020-06-16T14:11:14Z</time>
      </trkpt>
      <trkpt lat="49.38893" lon="-1.05634">
        <ele>2.1</ele>
        <time>2020-06-16T14:11:15Z</time>
      </trkpt>
      <trkpt lat="49.38889" lon="-1.05633">
        <ele>2.1</ele>
        <time>2020-06-16T14:11:16Z</time>
      </trkpt>
      <trkpt lat="49.38885" lon="-1.05631">
        <ele>2.2</ele>
        <time>2020-06-16T14:11:17Z</time>
      </trkpt>
      <trkpt lat="49.3888" lon="-1.0563">
        <ele>2.2</ele>
        <time>2020-06-16T14:11:18Z</time>
      </trkpt>
      <trkpt lat="49.38875" lon="-1.05628">
        <ele>2.2</ele>
        <time>2020-06-16T14:11:19Z</time>
      </trkpt>
      <trkpt lat="49.3887" lon="-1.05627">
        <ele>2.2</ele>
        <time>2020-06-16T14:11:20Z</time>
      </trkpt>
      <trkpt lat="49.38865" lon="-1.05625">
        <ele>2.3</ele>
        <time>2020-06-16T14:11:21Z</time>
      </trkpt>
      <trkpt lat="49.3886" lon="-1.05621">
        <ele>2.3</ele>
        <time>2020-06-16T14:11:22Z</time>
      </trkpt>
      <trkpt lat="49.38855" lon="-1.05618">
        <ele>2.4</ele>
        <time>2020-06-16T14:11:23Z</time>
      </trkpt>
      <trkpt lat="49.3885" lon="-1.05616">
        <ele>2.4</ele>
        <time>2020-06-16T14:11:24Z</time>
      </trkpt>
      <trkpt lat="49.38846" lon="-1.05613">
        <ele>2.4</ele>
        <time>2020-06-16T14:11:25Z</time>
      </trkpt>
      <trkpt lat="49.38842" lon="-1.05611">
        <ele>2.4</ele>
        <time>2020-06-16T14:11:26Z</time>
      </trkpt>
      <trkpt lat="49.38838" lon="-1.05611">
        <ele>2.5</ele>
        <time>2020-06-16T14:11:27Z</time>
      </trkpt>
      <trkpt lat="49.38834" lon="-1.05609">
        <ele>2.5</ele>
        <time>2020-06-16T14:11:28Z</time>
      </trkpt>
      <trkpt lat="49.3883" lon="-1.05608">
        <ele>2.6</ele>
        <time>2020-06-16T14:11:29Z</time>
      </trkpt>
      <trkpt lat="49.38826" lon="-1.05606">
        <ele>2.6</ele>
        <time>2020-06-16T14:11:30Z</time>
      </trkpt>
      <trkpt lat="49.38821" lon="-1.05605">
        <ele>2.7</ele>
        <time>2020-06-16T14:11:31Z</time>
      </trkpt>
      <trkpt lat="49.38817" lon="-1.05603">
        <ele>2.8</ele>
        <time>2020-06-16T14:11:32Z</time>
      </trkpt>
      <trkpt lat="49.38813" lon="-1.056">
        <ele>2.9</ele>
        <time>2020-06-16T14:11:33Z</time>
      </trkpt>
      <trkpt lat="49.38808" lon="-1.05597">
        <ele>2.9</ele>
        <time>2020-06-16T14:11:34Z</time>
      </trkpt>
      <trkpt lat="49.38805" lon="-1.05596">
        <ele>3</ele>
        <time>2020-06-16T14:11:35Z</time>
      </trkpt>
      <trkpt lat="49.38801" lon="-1.05594">
        <ele>3.1</ele>
        <time>2020-06-16T14:11:36Z</time>
      </trkpt>
      <trkpt lat="49.38797" lon="-1.05592">
        <ele>3.1</ele>
        <time>2020-06-16T14:11:37Z</time>
      </trkpt>
      <trkpt lat="49.38793" lon="-1.05589">
        <ele>3.1</ele>
        <time>2020-06-16T14:11:38Z</time>
      </trkpt>
      <trkpt lat="49.38789" lon="-1.05588">
        <ele>3.2</ele>
        <time>2020-06-16T14:11:39Z</time>
      </trkpt>
      <trkpt lat="49.38785" lon="-1.05586">
        <ele>3.2</ele>
        <time>2020-06-16T14:11:40Z</time>
      </trkpt>
      <trkpt lat="49.38781" lon="-1.05584">
        <ele>3.3</ele>
        <time>2020-06-16T14:11:41Z</time>
      </trkpt>
      <trkpt lat="49.38778" lon="-1.05582">
        <ele>3.4</ele>
        <time>2020-06-16T14:11:42Z</time>
      </trkpt>
      <trkpt lat="49.38774" lon="-1.0558">
        <ele>3.4</ele>
        <time>2020-06-16T14:11:43Z</time>
      </trkpt>
      <trkpt lat="49.38771" lon="-1.05579">
        <ele>3.5</ele>
        <time>2020-06-16T14:11:44Z</time>
      </trkpt>
      <trkpt lat="49.38767" lon="-1.05577">
        <ele>3.6</ele>
        <time>2020-06-16T14:11:45Z</time>
      </trkpt>
      <trkpt lat="49.38763" lon="-1.05575">
        <ele>3.6</ele>
        <time>2020-06-16T14:11:46Z</time>
      </trkpt>
      <trkpt lat="49.38759" lon="-1.05574">
        <ele>3.7</ele>
        <time>2020-06-16T14:11:47Z</time>
      </trkpt>
      <trkpt lat="49.38755" lon="-1.05572">
        <ele>3.8</ele>
        <time>2020-06-16T14:11:48Z</time>
      </trkpt>
      <trkpt lat="49.38751" lon="-1.0557">
        <ele>3.8</ele>
        <time>2020-06-16T14:11:49Z</time>
      </trkpt>
      <trkpt lat="49.38747" lon="-1.05568">
        <ele>3.9</ele>
        <time>2020-06-16T14:11:50Z</time>
      </trkpt>
      <trkpt lat="49.38743" lon="-1.05567">
        <ele>4</ele>
        <time>2020-06-16T14:11:51Z</time>
      </trkpt>
      <trkpt lat="49.38739" lon="-1.05564">
        <ele>4.1</ele>
        <time>2020-06-16T14:11:52Z</time>
      </trkpt>
      <trkpt lat="49.38734" lon="-1.0556">
        <ele>4.2</ele>
        <time>2020-06-16T14:11:53Z</time>
      </trkpt>
      <trkpt lat="49.3873" lon="-1.05557">
        <ele>4.3</ele>
        <time>2020-06-16T14:11:54Z</time>
      </trkpt>
      <trkpt lat="49.38726" lon="-1.05554">
        <ele>4.3</ele>
        <time>2020-06-16T14:11:55Z</time>
      </trkpt>
      <trkpt lat="49.38722" lon="-1.05552">
        <ele>4.4</ele>
        <time>2020-06-16T14:11:56Z</time>
      </trkpt>
      <trkpt lat="49.38718" lon="-1.05549">
        <ele>4.4</ele>
        <time>2020-06-16T14:11:57Z</time>
      </trkpt>
      <trkpt lat="49.38713" lon="-1.05546">
        <ele>4.5</ele>
        <time>2020-06-16T14:11:58Z</time>
      </trkpt>
      <trkpt lat="49.38709" lon="-1.05544">
        <ele>4.5</ele>
        <time>2020-06-16T14:11:59Z</time>
      </trkpt>
      <trkpt lat="49.38706" lon="-1.05542">
        <ele>4.6</ele>
        <time>2020-06-16T14:12:00Z</time>
      </trkpt>
      <trkpt lat="49.38702" lon="-1.0554">
        <ele>4.7</ele>
        <time>2020-06-16T14:12:01Z</time>
      </trkpt>
      <trkpt lat="49.38698" lon="-1.05538">
        <ele>4.8</ele>
        <time>2020-06-16T14:12:02Z</time>
      </trkpt>
      <trkpt lat="49.38693" lon="-1.05537">
        <ele>4.9</ele>
        <time>2020-06-16T14:12:03Z</time>
      </trkpt>
      <trkpt lat="49.38688" lon="-1.05536">
        <ele>5.1</ele>
        <time>2020-06-16T14:12:04Z</time>
      </trkpt>
      <trkpt lat="49.38684" lon="-1.05536">
        <ele>5.2</ele>
        <time>2020-06-16T14:12:05Z</time>
      </trkpt>
      <trkpt lat="49.38681" lon="-1.05535">
        <ele>5.4</ele>
        <time>2020-06-16T14:12:06Z</time>
      </trkpt>
      <trkpt lat="49.38677" lon="-1.05535">
        <ele>5.5</ele>
        <time>2020-06-16T14:12:07Z</time>
      </trkpt>
      <trkpt lat="49.38674" lon="-1.05535">
        <ele>5.6</ele>
        <time>2020-06-16T14:12:08Z</time>
      </trkpt>
      <trkpt lat="49.3867" lon="-1.05536">
        <ele>5.7</ele>
        <time>2020-06-16T14:12:09Z</time>
      </trkpt>
      <trkpt lat="49.38667" lon="-1.05536">
        <ele>5.9</ele>
        <time>2020-06-16T14:12:10Z</time>
      </trkpt>
      <trkpt lat="49.38664" lon="-1.05535">
        <ele>6</ele>
        <time>2020-06-16T14:12:11Z</time>
      </trkpt>
      <trkpt lat="49.38661" lon="-1.05534">
        <ele>6.3</ele>
        <time>2020-06-16T14:12:12Z</time>
      </trkpt>
      <trkpt lat="49.3866" lon="-1.05533">
        <ele>6.3</ele>
        <time>2020-06-16T14:12:13Z</time>
      </trkpt>
      <trkpt lat="49.38659" lon="-1.05533">
        <ele>6.3</ele>
        <time>2020-06-16T14:12:14Z</time>
      </trkpt>
      <trkpt lat="49.38659" lon="-1.05531">
        <ele>6.2</ele>
        <time>2020-06-16T14:12:15Z</time>
      </trkpt>
      <trkpt lat="49.38659" lon="-1.0553">
        <ele>6.2</ele>
        <time>2020-06-16T14:12:16Z</time>
      </trkpt>
      <trkpt lat="49.3866" lon="-1.05528">
        <ele>6.2</ele>
        <time>2020-06-16T14:12:17Z</time>
      </trkpt>
      <trkpt lat="49.38662" lon="-1.05525">
        <ele>6.1</ele>
        <time>2020-06-16T14:12:18Z</time>
      </trkpt>
      <trkpt lat="49.38663" lon="-1.05524">
        <ele>6.1</ele>
        <time>2020-06-16T14:12:19Z</time>
      </trkpt>
      <trkpt lat="49.38666" lon="-1.0552">
        <ele>6</ele>
        <time>2020-06-16T14:12:20Z</time>
      </trkpt>
      <trkpt lat="49.38667" lon="-1.05518">
        <ele>6</ele>
        <time>2020-06-16T14:12:21Z</time>
      </trkpt>
      <trkpt lat="49.38669" lon="-1.05514">
        <ele>5.9</ele>
        <time>2020-06-16T14:12:22Z</time>
      </trkpt>
      <trkpt lat="49.38671" lon="-1.0551">
        <ele>5.9</ele>
        <time>2020-06-16T14:12:23Z</time>
      </trkpt>
      <trkpt lat="49.38672" lon="-1.05506">
        <ele>5.9</ele>
        <time>2020-06-16T14:12:24Z</time>
      </trkpt>
      <trkpt lat="49.38674" lon="-1.05501">
        <ele>5.8</ele>
        <time>2020-06-16T14:12:25Z</time>
      </trkpt>
      <trkpt lat="49.38676" lon="-1.05496">
        <ele>5.8</ele>
        <time>2020-06-16T14:12:26Z</time>
      </trkpt>
      <trkpt lat="49.38677" lon="-1.0549">
        <ele>5.8</ele>
        <time>2020-06-16T14:12:27Z</time>
      </trkpt>
      <trkpt lat="49.38679" lon="-1.05484">
        <ele>5.7</ele>
        <time>2020-06-16T14:12:28Z</time>
      </trkpt>
      <trkpt lat="49.38681" lon="-1.05477">
        <ele>5.7</ele>
        <time>2020-06-16T14:12:29Z</time>
      </trkpt>
      <trkpt lat="49.38683" lon="-1.05472">
        <ele>5.6</ele>
        <time>2020-06-16T14:12:30Z</time>
      </trkpt>
      <trkpt lat="49.38685" lon="-1.05466">
        <ele>5.6</ele>
        <time>2020-06-16T14:12:31Z</time>
      </trkpt>
      <trkpt lat="49.38687" lon="-1.05459">
        <ele>5.6</ele>
        <time>2020-06-16T14:12:32Z</time>
      </trkpt>
      <trkpt lat="49.38689" lon="-1.05453">
        <ele>5.6</ele>
        <time>2020-06-16T14:12:33Z</time>
      </trkpt>
      <trkpt lat="49.3869" lon="-1.05447">
        <ele>5.5</ele>
        <time>2020-06-16T14:12:34Z</time>
      </trkpt>
      <trkpt lat="49.38691" lon="-1.05441">
        <ele>5.5</ele>
        <time>2020-06-16T14:12:35Z</time>
      </trkpt>
      <trkpt lat="49.38693" lon="-1.05435">
        <ele>5.5</ele>
        <time>2020-06-16T14:12:36Z</time>
      </trkpt>
      <trkpt lat="49.38694" lon="-1.05429">
        <ele>5.5</ele>
        <time>2020-06-16T14:12:37Z</time>
      </trkpt>
      <trkpt lat="49.38696" lon="-1.05423">
        <ele>5.5</ele>
        <time>2020-06-16T14:12:38Z</time>
      </trkpt>
      <trkpt lat="49.38697" lon="-1.05416">
        <ele>5.5</ele>
        <time>2020-06-16T14:12:39Z</time>
      </trkpt>
      <trkpt lat="49.38697" lon="-1.05409">
        <ele>5.5</ele>
        <time>2020-06-16T14:12:40Z</time>
      </trkpt>
      <trkpt lat="49.38698" lon="-1.05403">
        <ele>5.5</ele>
        <time>2020-06-16T14:12:41Z</time>
      </trkpt>
      <trkpt lat="49.38698" lon="-1.05397">
        <ele>5.5</ele>
        <time>2020-06-16T14:12:42Z</time>
      </trkpt>
      <trkpt lat="49.38699" lon="-1.05391">
        <ele>5.5</ele>
        <time>2020-06-16T14:12:43Z</time>
      </trkpt>
      <trkpt lat="49.38699" lon="-1.05385">
        <ele>5.5</ele>
        <time>2020-06-16T14:12:44Z</time>
      </trkpt>
      <trkpt lat="49.38699" lon="-1.05378">
        <ele>5.5</ele>
        <time>2020-06-16T14:12:45Z</time>
      </trkpt>
      <trkpt lat="49.387" lon="-1.05372">
        <ele>5.5</ele>
        <time>2020-06-16T14:12:46Z</time>
      </trkpt>
      <trkpt lat="49.38699" lon="-1.05366">
        <ele>5.5</ele>
        <time>2020-06-16T14:12:47Z</time>
      </trkpt>
      <trkpt lat="49.38699" lon="-1.05358">
        <ele>5.5</ele>
        <time>2020-06-16T14:12:48Z</time>
      </trkpt>
      <trkpt lat="49.38699" lon="-1.05351">
        <ele>5.5</ele>
        <time>2020-06-16T14:12:49Z</time>
      </trkpt>
      <trkpt lat="49.38699" lon="-1.05344">
        <ele>5.5</ele>
        <time>2020-06-16T14:12:50Z</time>
      </trkpt>
      <trkpt lat="49.387" lon="-1.05336">
        <ele>5.5</ele>
        <time>2020-06-16T14:12:51Z</time>
      </trkpt>
      <trkpt lat="49.387" lon="-1.05329">
        <ele>5.6</ele>
        <time>2020-06-16T14:12:52Z</time>
      </trkpt>
      <trkpt lat="49.387" lon="-1.05321">
        <ele>5.6</ele>
        <time>2020-06-16T14:12:53Z</time>
      </trkpt>
      <trkpt lat="49.38701" lon="-1.05313">
        <ele>5.6</ele>
        <time>2020-06-16T14:12:54Z</time>
      </trkpt>
      <trkpt lat="49.38701" lon="-1.05306">
        <ele>5.7</ele>
        <time>2020-06-16T14:12:55Z</time>
      </trkpt>
      <trkpt lat="49.38702" lon="-1.053">
        <ele>5.7</ele>
        <time>2020-06-16T14:12:56Z</time>
      </trkpt>
      <trkpt lat="49.38702" lon="-1.05295">
        <ele>5.7</ele>
        <time>2020-06-16T14:12:57Z</time>
      </trkpt>
      <trkpt lat="49.38703" lon="-1.05289">
        <ele>5.7</ele>
        <time>2020-06-16T14:12:58Z</time>
      </trkpt>
      <trkpt lat="49.38704" lon="-1.05282">
        <ele>5.7</ele>
        <time>2020-06-16T14:12:59Z</time>
      </trkpt>
      <trkpt lat="49.38704" lon="-1.05275">
        <ele>5.7</ele>
        <time>2020-06-16T14:13:00Z</time>
      </trkpt>
      <trkpt lat="49.38705" lon="-1.05267">
        <ele>5.7</ele>
        <time>2020-06-16T14:13:01Z</time>
      </trkpt>
      <trkpt lat="49.38705" lon="-1.05261">
        <ele>5.7</ele>
        <time>2020-06-16T14:13:02Z</time>
      </trkpt>
      <trkpt lat="49.38706" lon="-1.05255">
        <ele>5.7</ele>
        <time>2020-06-16T14:13:03Z</time>
      </trkpt>
      <trkpt lat="49.38706" lon="-1.05249">
        <ele>5.7</ele>
        <time>2020-06-16T14:13:04Z</time>
      </trkpt>
      <trkpt lat="49.38707" lon="-1.05243">
        <ele>5.7</ele>
        <time>2020-06-16T14:13:05Z</time>
      </trkpt>
      <trkpt lat="49.38707" lon="-1.05236">
        <ele>5.7</ele>
        <time>2020-06-16T14:13:06Z</time>
      </trkpt>
      <trkpt lat="49.38708" lon="-1.05228">
        <ele>5.7</ele>
        <time>2020-06-16T14:13:07Z</time>
      </trkpt>
      <trkpt lat="49.38708" lon="-1.0522">
        <ele>5.7</ele>
        <time>2020-06-16T14:13:08Z</time>
      </trkpt>
      <trkpt lat="49.38708" lon="-1.05212">
        <ele>5.7</ele>
        <time>2020-06-16T14:13:09Z</time>
      </trkpt>
      <trkpt lat="49.38708" lon="-1.05203">
        <ele>5.6</ele>
        <time>2020-06-16T14:13:10Z</time>
      </trkpt>
      <trkpt lat="49.38709" lon="-1.05194">
        <ele>5.6</ele>
        <time>2020-06-16T14:13:11Z</time>
      </trkpt>
      <trkpt lat="49.3871" lon="-1.05186">
        <ele>5.7</ele>
        <time>2020-06-16T14:13:12Z</time>
      </trkpt>
      <trkpt lat="49.38711" lon="-1.05179">
        <ele>5.7</ele>
        <time>2020-06-16T14:13:13Z</time>
      </trkpt>
      <trkpt lat="49.38711" lon="-1.05172">
        <ele>5.7</ele>
        <time>2020-06-16T14:13:14Z</time>
      </trkpt>
      <trkpt lat="49.38711" lon="-1.05165">
        <ele>5.8</ele>
        <time>2020-06-16T14:13:15Z</time>
      </trkpt>
      <trkpt lat="49.38712" lon="-1.05159">
        <ele>5.8</ele>
        <time>2020-06-16T14:13:16Z</time>
      </trkpt>
      <trkpt lat="49.38713" lon="-1.05152">
        <ele>5.9</ele>
        <time>2020-06-16T14:13:17Z</time>
      </trkpt>
      <trkpt lat="49.38713" lon="-1.05146">
        <ele>5.9</ele>
        <time>2020-06-16T14:13:18Z</time>
      </trkpt>
      <trkpt lat="49.38714" lon="-1.05138">
        <ele>6</ele>
        <time>2020-06-16T14:13:19Z</time>
      </trkpt>
      <trkpt lat="49.38715" lon="-1.0513">
        <ele>6.2</ele>
        <time>2020-06-16T14:13:20Z</time>
      </trkpt>
      <trkpt lat="49.38716" lon="-1.05122">
        <ele>6.3</ele>
        <time>2020-06-16T14:13:21Z</time>
      </trkpt>
      <trkpt lat="49.38717" lon="-1.05115">
        <ele>6.5</ele>
        <time>2020-06-16T14:13:22Z</time>
      </trkpt>
      <trkpt lat="49.38719" lon="-1.05109">
        <ele>6.5</ele>
        <time>2020-06-16T14:13:23Z</time>
      </trkpt>
      <trkpt lat="49.38721" lon="-1.05104">
        <ele>6.5</ele>
        <time>2020-06-16T14:13:24Z</time>
      </trkpt>
      <trkpt lat="49.38723" lon="-1.05096">
        <ele>6.5</ele>
        <time>2020-06-16T14:13:25Z</time>
      </trkpt>
      <trkpt lat="49.38723" lon="-1.0509">
        <ele>6.5</ele>
        <time>2020-06-16T14:13:26Z</time>
      </trkpt>
      <trkpt lat="49.38724" lon="-1.05083">
        <ele>6.4</ele>
        <time>2020-06-16T14:13:27Z</time>
      </trkpt>
      <trkpt lat="49.38725" lon="-1.05076">
        <ele>6.4</ele>
        <time>2020-06-16T14:13:28Z</time>
      </trkpt>
      <trkpt lat="49.38726" lon="-1.05068">
        <ele>6.3</ele>
        <time>2020-06-16T14:13:29Z</time>
      </trkpt>
      <trkpt lat="49.38726" lon="-1.05059">
        <ele>6.2</ele>
        <time>2020-06-16T14:13:30Z</time>
      </trkpt>
      <trkpt lat="49.38726" lon="-1.05051">
        <ele>6.1</ele>
        <time>2020-06-16T14:13:31Z</time>
      </trkpt>
      <trkpt lat="49.38726" lon="-1.05044">
        <ele>6.1</ele>
        <time>2020-06-16T14:13:32Z</time>
      </trkpt>
      <trkpt lat="49.38727" lon="-1.05036">
        <ele>6</ele>
        <time>2020-06-16T14:13:33Z</time>
      </trkpt>
      <trkpt lat="49.38728" lon="-1.05029">
        <ele>6</ele>
        <time>2020-06-16T14:13:34Z</time>
      </trkpt>
      <trkpt lat="49.38728" lon="-1.05022">
        <ele>6</ele>
        <time>2020-06-16T14:13:35Z</time>
      </trkpt>
      <trkpt lat="49.38729" lon="-1.05014">
        <ele>6</ele>
        <time>2020-06-16T14:13:36Z</time>
      </trkpt>
      <trkpt lat="49.3873" lon="-1.05008">
        <ele>6</ele>
        <time>2020-06-16T14:13:37Z</time>
      </trkpt>
      <trkpt lat="49.38731" lon="-1.05001">
        <ele>6</ele>
        <time>2020-06-16T14:13:38Z</time>
      </trkpt>
      <trkpt lat="49.38731" lon="-1.04994">
        <ele>6</ele>
        <time>2020-06-16T14:13:39Z</time>
      </trkpt>
      <trkpt lat="49.38731" lon="-1.04988">
        <ele>6</ele>
        <time>2020-06-16T14:13:40Z</time>
      </trkpt>
      <trkpt lat="49.38731" lon="-1.04981">
        <ele>6</ele>
        <time>2020-06-16T14:13:41Z</time>
      </trkpt>
      <trkpt lat="49.38731" lon="-1.04974">
        <ele>6</ele>
        <time>2020-06-16T14:13:42Z</time>
      </trkpt>
      <trkpt lat="49.38731" lon="-1.04965">
        <ele>6</ele>
        <time>2020-06-16T14:13:43Z</time>
      </trkpt>
      <trkpt lat="49.38731" lon="-1.04959">
        <ele>5.9</ele>
        <time>2020-06-16T14:13:44Z</time>
      </trkpt>
      <trkpt lat="49.38732" lon="-1.04953">
        <ele>5.9</ele>
        <time>2020-06-16T14:13:45Z</time>
      </trkpt>
      <trkpt lat="49.38732" lon="-1.04946">
        <ele>5.9</ele>
        <time>2020-06-16T14:13:46Z</time>
      </trkpt>
      <trkpt lat="49.38733" lon="-1.04939">
        <ele>5.9</ele>
        <time>2020-06-16T14:13:47Z</time>
      </trkpt>
      <trkpt lat="49.38733" lon="-1.04932">
        <ele>5.9</ele>
        <time>2020-06-16T14:13:48Z</time>
      </trkpt>
      <trkpt lat="49.38733" lon="-1.04925">
        <ele>5.9</ele>
        <time>2020-06-16T14:13:49Z</time>
      </trkpt>
      <trkpt lat="49.38733" lon="-1.04918">
        <ele>5.9</ele>
        <time>2020-06-16T14:13:50Z</time>
      </trkpt>
      <trkpt lat="49.38734" lon="-1.04912">
        <ele>5.9</ele>
        <time>2020-06-16T14:13:51Z</time>
      </trkpt>
      <trkpt lat="49.38735" lon="-1.04904">
        <ele>5.9</ele>
        <time>2020-06-16T14:13:52Z</time>
      </trkpt>
      <trkpt lat="49.38737" lon="-1.04898">
        <ele>5.9</ele>
        <time>2020-06-16T14:13:53Z</time>
      </trkpt>
      <trkpt lat="49.3874" lon="-1.04892">
        <ele>5.7</ele>
        <time>2020-06-16T14:13:54Z</time>
      </trkpt>
      <trkpt lat="49.38742" lon="-1.04886">
        <ele>5.7</ele>
        <time>2020-06-16T14:13:55Z</time>
      </trkpt>
      <trkpt lat="49.38744" lon="-1.04881">
        <ele>5.6</ele>
        <time>2020-06-16T14:13:56Z</time>
      </trkpt>
      <trkpt lat="49.38747" lon="-1.04875">
        <ele>5.5</ele>
        <time>2020-06-16T14:13:57Z</time>
      </trkpt>
      <trkpt lat="49.38748" lon="-1.04869">
        <ele>5.4</ele>
        <time>2020-06-16T14:13:58Z</time>
      </trkpt>
      <trkpt lat="49.3875" lon="-1.04863">
        <ele>5.3</ele>
        <time>2020-06-16T14:13:59Z</time>
      </trkpt>
      <trkpt lat="49.38752" lon="-1.04857">
        <ele>5.2</ele>
        <time>2020-06-16T14:14:00Z</time>
      </trkpt>
      <trkpt lat="49.38753" lon="-1.04851">
        <ele>5.1</ele>
        <time>2020-06-16T14:14:01Z</time>
      </trkpt>
      <trkpt lat="49.38754" lon="-1.04846">
        <ele>5</ele>
        <time>2020-06-16T14:14:02Z</time>
      </trkpt>
      <trkpt lat="49.38755" lon="-1.0484">
        <ele>4.9</ele>
        <time>2020-06-16T14:14:03Z</time>
      </trkpt>
      <trkpt lat="49.38756" lon="-1.04835">
        <ele>4.8</ele>
        <time>2020-06-16T14:14:04Z</time>
      </trkpt>
      <trkpt lat="49.38756" lon="-1.04829">
        <ele>4.8</ele>
        <time>2020-06-16T14:14:05Z</time>
      </trkpt>
      <trkpt lat="49.38756" lon="-1.04827">
        <ele>4.8</ele>
        <time>2020-06-16T14:14:06Z</time>
      </trkpt>
      <trkpt lat="49.38757" lon="-1.04821">
        <ele>4.8</ele>
        <time>2020-06-16T14:14:07Z</time>
      </trkpt>
      <trkpt lat="49.38757" lon="-1.04819">
        <ele>4.8</ele>
        <time>2020-06-16T14:14:08Z</time>
      </trkpt>
      <trkpt lat="49.38758" lon="-1.04815">
        <ele>4.8</ele>
        <time>2020-06-16T14:14:09Z</time>
      </trkpt>
      <trkpt lat="49.38759" lon="-1.0481">
        <ele>4.8</ele>
        <time>2020-06-16T14:14:10Z</time>
      </trkpt>
      <trkpt lat="49.38759" lon="-1.04806">
        <ele>4.8</ele>
        <time>2020-06-16T14:14:11Z</time>
      </trkpt>
      <trkpt lat="49.38761" lon="-1.048">
        <ele>4.8</ele>
        <time>2020-06-16T14:14:12Z</time>
      </trkpt>
      <trkpt lat="49.38762" lon="-1.04795">
        <ele>4.8</ele>
        <time>2020-06-16T14:14:13Z</time>
      </trkpt>
      <trkpt lat="49.38764" lon="-1.0479">
        <ele>4.8</ele>
        <time>2020-06-16T14:14:14Z</time>
      </trkpt>
      <trkpt lat="49.38765" lon="-1.04786">
        <ele>4.8</ele>
        <time>2020-06-16T14:14:15Z</time>
      </trkpt>
      <trkpt lat="49.38765" lon="-1.0478">
        <ele>4.8</ele>
        <time>2020-06-16T14:14:16Z</time>
      </trkpt>
      <trkpt lat="49.38767" lon="-1.04775">
        <ele>4.8</ele>
        <time>2020-06-16T14:14:17Z</time>
      </trkpt>
      <trkpt lat="49.38768" lon="-1.0477">
        <ele>4.8</ele>
        <time>2020-06-16T14:14:18Z</time>
      </trkpt>
      <trkpt lat="49.38769" lon="-1.04766">
        <ele>4.8</ele>
        <time>2020-06-16T14:14:19Z</time>
      </trkpt>
      <trkpt lat="49.3877" lon="-1.04762">
        <ele>4.8</ele>
        <time>2020-06-16T14:14:20Z</time>
      </trkpt>
      <trkpt lat="49.38771" lon="-1.04757">
        <ele>4.8</ele>
        <time>2020-06-16T14:14:21Z</time>
      </trkpt>
      <trkpt lat="49.38771" lon="-1.04752">
        <ele>4.8</ele>
        <time>2020-06-16T14:14:22Z</time>
      </trkpt>
      <trkpt lat="49.38772" lon="-1.04747">
        <ele>4.8</ele>
        <time>2020-06-16T14:14:23Z</time>
      </trkpt>
      <trkpt lat="49.38772" lon="-1.04742">
        <ele>4.8</ele>
        <time>2020-06-16T14:14:24Z</time>
      </trkpt>
      <trkpt lat="49.38773" lon="-1.04737">
        <ele>4.8</ele>
        <time>2020-06-16T14:14:25Z</time>
      </trkpt>
      <trkpt lat="49.38773" lon="-1.04732">
        <ele>4.8</ele>
        <time>2020-06-16T14:14:26Z</time>
      </trkpt>
      <trkpt lat="49.38774" lon="-1.04726">
        <ele>4.8</ele>
        <time>2020-06-16T14:14:27Z</time>
      </trkpt>
      <trkpt lat="49.38775" lon="-1.0472">
        <ele>4.8</ele>
        <time>2020-06-16T14:14:28Z</time>
      </trkpt>
      <trkpt lat="49.38777" lon="-1.04715">
        <ele>4.9</ele>
        <time>2020-06-16T14:14:29Z</time>
      </trkpt>
      <trkpt lat="49.3878" lon="-1.04713">
        <ele>4.9</ele>
        <time>2020-06-16T14:14:30Z</time>
      </trkpt>
      <trkpt lat="49.38782" lon="-1.04713">
        <ele>4.9</ele>
        <time>2020-06-16T14:14:31Z</time>
      </trkpt>
      <trkpt lat="49.38786" lon="-1.04712">
        <ele>4.9</ele>
        <time>2020-06-16T14:14:32Z</time>
      </trkpt>
      <trkpt lat="49.3879" lon="-1.04711">
        <ele>4.9</ele>
        <time>2020-06-16T14:14:33Z</time>
      </trkpt>
      <trkpt lat="49.38795" lon="-1.04709">
        <ele>4.8</ele>
        <time>2020-06-16T14:14:34Z</time>
      </trkpt>
      <trkpt lat="49.38799" lon="-1.04706">
        <ele>4.7</ele>
        <time>2020-06-16T14:14:35Z</time>
      </trkpt>
      <trkpt lat="49.38804" lon="-1.04703">
        <ele>4.6</ele>
        <time>2020-06-16T14:14:36Z</time>
      </trkpt>
      <trkpt lat="49.38808" lon="-1.047">
        <ele>4.6</ele>
        <time>2020-06-16T14:14:37Z</time>
      </trkpt>
      <trkpt lat="49.38813" lon="-1.04697">
        <ele>4.5</ele>
        <time>2020-06-16T14:14:38Z</time>
      </trkpt>
      <trkpt lat="49.38817" lon="-1.04695">
        <ele>4.5</ele>
        <time>2020-06-16T14:14:39Z</time>
      </trkpt>
      <trkpt lat="49.38822" lon="-1.04693">
        <ele>4.4</ele>
        <time>2020-06-16T14:14:40Z</time>
      </trkpt>
      <trkpt lat="49.38826" lon="-1.04691">
        <ele>4.3</ele>
        <time>2020-06-16T14:14:41Z</time>
      </trkpt>
      <trkpt lat="49.38831" lon="-1.04689">
        <ele>4.3</ele>
        <time>2020-06-16T14:14:42Z</time>
      </trkpt>
      <trkpt lat="49.38835" lon="-1.04688">
        <ele>4.2</ele>
        <time>2020-06-16T14:14:43Z</time>
      </trkpt>
      <trkpt lat="49.3884" lon="-1.04687">
        <ele>4.1</ele>
        <time>2020-06-16T14:14:44Z</time>
      </trkpt>
      <trkpt lat="49.38845" lon="-1.04686">
        <ele>4.1</ele>
        <time>2020-06-16T14:14:45Z</time>
      </trkpt>
      <trkpt lat="49.38849" lon="-1.04687">
        <ele>4</ele>
        <time>2020-06-16T14:14:46Z</time>
      </trkpt>
      <trkpt lat="49.38853" lon="-1.04687">
        <ele>4</ele>
        <time>2020-06-16T14:14:47Z</time>
      </trkpt>
      <trkpt lat="49.38857" lon="-1.04687">
        <ele>3.9</ele>
        <time>2020-06-16T14:14:48Z</time>
      </trkpt>
      <trkpt lat="49.38862" lon="-1.04687">
        <ele>3.9</ele>
        <time>2020-06-16T14:14:49Z</time>
      </trkpt>
      <trkpt lat="49.38866" lon="-1.04687">
        <ele>3.8</ele>
        <time>2020-06-16T14:14:50Z</time>
      </trkpt>
      <trkpt lat="49.3887" lon="-1.04686">
        <ele>3.8</ele>
        <time>2020-06-16T14:14:51Z</time>
      </trkpt>
      <trkpt lat="49.38873" lon="-1.04686">
        <ele>3.8</ele>
        <time>2020-06-16T14:14:52Z</time>
      </trkpt>
      <trkpt lat="49.38878" lon="-1.04686">
        <ele>3.7</ele>
        <time>2020-06-16T14:14:53Z</time>
      </trkpt>
      <trkpt lat="49.38881" lon="-1.04686">
        <ele>3.7</ele>
        <time>2020-06-16T14:14:54Z</time>
      </trkpt>
      <trkpt lat="49.38885" lon="-1.04687">
        <ele>3.7</ele>
        <time>2020-06-16T14:14:55Z</time>
      </trkpt>
      <trkpt lat="49.38889" lon="-1.04688">
        <ele>3.7</ele>
        <time>2020-06-16T14:14:56Z</time>
      </trkpt>
      <trkpt lat="49.38892" lon="-1.0469">
        <ele>3.6</ele>
        <time>2020-06-16T14:14:57Z</time>
      </trkpt>
      <trkpt lat="49.38896" lon="-1.04693">
        <ele>3.6</ele>
        <time>2020-06-16T14:14:58Z</time>
      </trkpt>
      <trkpt lat="49.38901" lon="-1.04694">
        <ele>3.6</ele>
        <time>2020-06-16T14:14:59Z</time>
      </trkpt>
      <trkpt lat="49.38906" lon="-1.04695">
        <ele>3.6</ele>
        <time>2020-06-16T14:15:00Z</time>
      </trkpt>
      <trkpt lat="49.38909" lon="-1.04696">
        <ele>3.6</ele>
        <time>2020-06-16T14:15:01Z</time>
      </trkpt>
      <trkpt lat="49.38913" lon="-1.04699">
        <ele>3.6</ele>
        <time>2020-06-16T14:15:02Z</time>
      </trkpt>
      <trkpt lat="49.38917" lon="-1.047">
        <ele>3.6</ele>
        <time>2020-06-16T14:15:03Z</time>
      </trkpt>
      <trkpt lat="49.38921" lon="-1.04701">
        <ele>3.6</ele>
        <time>2020-06-16T14:15:04Z</time>
      </trkpt>
      <trkpt lat="49.38925" lon="-1.04702">
        <ele>3.7</ele>
        <time>2020-06-16T14:15:05Z</time>
      </trkpt>
      <trkpt lat="49.38929" lon="-1.04703">
        <ele>3.7</ele>
        <time>2020-06-16T14:15:06Z</time>
      </trkpt>
      <trkpt lat="49.38932" lon="-1.04704">
        <ele>3.7</ele>
        <time>2020-06-16T14:15:07Z</time>
      </trkpt>
      <trkpt lat="49.38935" lon="-1.04704">
        <ele>3.7</ele>
        <time>2020-06-16T14:15:08Z</time>
      </trkpt>
      <trkpt lat="49.38938" lon="-1.04705">
        <ele>3.7</ele>
        <time>2020-06-16T14:15:09Z</time>
      </trkpt>
      <trkpt lat="49.38941" lon="-1.04705">
        <ele>3.7</ele>
        <time>2020-06-16T14:15:10Z</time>
      </trkpt>
      <trkpt lat="49.38945" lon="-1.04706">
        <ele>3.7</ele>
        <time>2020-06-16T14:15:11Z</time>
      </trkpt>
      <trkpt lat="49.38947" lon="-1.04707">
        <ele>3.7</ele>
        <time>2020-06-16T14:15:12Z</time>
      </trkpt>
      <trkpt lat="49.3895" lon="-1.04707">
        <ele>3.7</ele>
        <time>2020-06-16T14:15:13Z</time>
      </trkpt>
      <trkpt lat="49.38951" lon="-1.04707">
        <ele>3.7</ele>
        <time>2020-06-16T14:15:14Z</time>
      </trkpt>
      <trkpt lat="49.38956" lon="-1.04703">
        <ele>3.8</ele>
        <time>2020-06-16T14:15:15Z</time>
      </trkpt>
      <trkpt lat="49.38959" lon="-1.047">
        <ele>3.8</ele>
        <time>2020-06-16T14:15:16Z</time>
      </trkpt>
      <trkpt lat="49.3896" lon="-1.04696">
        <ele>3.8</ele>
        <time>2020-06-16T14:15:17Z</time>
      </trkpt>
      <trkpt lat="49.38961" lon="-1.04695">
        <ele>3.8</ele>
        <time>2020-06-16T14:15:18Z</time>
      </trkpt>
      <trkpt lat="49.38961" lon="-1.04691">
        <ele>3.8</ele>
        <time>2020-06-16T14:15:19Z</time>
      </trkpt>
      <trkpt lat="49.38959" lon="-1.04686">
        <ele>3.8</ele>
        <time>2020-06-16T14:15:20Z</time>
      </trkpt>
      <trkpt lat="49.38959" lon="-1.04682">
        <ele>3.7</ele>
        <time>2020-06-16T14:15:21Z</time>
      </trkpt>
      <trkpt lat="49.38958" lon="-1.04677">
        <ele>3.7</ele>
        <time>2020-06-16T14:15:22Z</time>
      </trkpt>
      <trkpt lat="49.38957" lon="-1.04673">
        <ele>3.7</ele>
        <time>2020-06-16T14:15:23Z</time>
      </trkpt>
      <trkpt lat="49.38956" lon="-1.04668">
        <ele>3.6</ele>
        <time>2020-06-16T14:15:24Z</time>
      </trkpt>
      <trkpt lat="49.38955" lon="-1.04664">
        <ele>3.6</ele>
        <time>2020-06-16T14:15:25Z</time>
      </trkpt>
      <trkpt lat="49.38954" lon="-1.04658">
        <ele>3.6</ele>
        <time>2020-06-16T14:15:26Z</time>
      </trkpt>
      <trkpt lat="49.38953" lon="-1.04656">
        <ele>3.6</ele>
        <time>2020-06-16T14:15:27Z</time>
      </trkpt>
      <trkpt lat="49.38953" lon="-1.0465">
        <ele>3.5</ele>
        <time>2020-06-16T14:15:28Z</time>
      </trkpt>
      <trkpt lat="49.38953" lon="-1.04648">
        <ele>3.5</ele>
        <time>2020-06-16T14:15:29Z</time>
      </trkpt>
      <trkpt lat="49.38953" lon="-1.04643">
        <ele>3.5</ele>
        <time>2020-06-16T14:15:30Z</time>
      </trkpt>
      <trkpt lat="49.38953" lon="-1.04637">
        <ele>3.5</ele>
        <time>2020-06-16T14:15:31Z</time>
      </trkpt>
      <trkpt lat="49.38952" lon="-1.04632">
        <ele>3.5</ele>
        <time>2020-06-16T14:15:32Z</time>
      </trkpt>
      <trkpt lat="49.38952" lon="-1.04627">
        <ele>3.4</ele>
        <time>2020-06-16T14:15:33Z</time>
      </trkpt>
      <trkpt lat="49.3895" lon="-1.04621">
        <ele>3.4</ele>
        <time>2020-06-16T14:15:34Z</time>
      </trkpt>
      <trkpt lat="49.38949" lon="-1.04616">
        <ele>3.4</ele>
        <time>2020-06-16T14:15:35Z</time>
      </trkpt>
      <trkpt lat="49.38948" lon="-1.04612">
        <ele>3.4</ele>
        <time>2020-06-16T14:15:36Z</time>
      </trkpt>
      <trkpt lat="49.38948" lon="-1.04608">
        <ele>3.4</ele>
        <time>2020-06-16T14:15:37Z</time>
      </trkpt>
      <trkpt lat="49.38947" lon="-1.04603">
        <ele>3.4</ele>
        <time>2020-06-16T14:15:38Z</time>
      </trkpt>
      <trkpt lat="49.38946" lon="-1.04599">
        <ele>3.4</ele>
        <time>2020-06-16T14:15:39Z</time>
      </trkpt>
      <trkpt lat="49.38945" lon="-1.04594">
        <ele>3.4</ele>
        <time>2020-06-16T14:15:40Z</time>
      </trkpt>
      <trkpt lat="49.38945" lon="-1.04589">
        <ele>3.4</ele>
        <time>2020-06-16T14:15:41Z</time>
      </trkpt>
      <trkpt lat="49.38944" lon="-1.04584">
        <ele>3.4</ele>
        <time>2020-06-16T14:15:42Z</time>
      </trkpt>
      <trkpt lat="49.38944" lon="-1.0458">
        <ele>3.4</ele>
        <time>2020-06-16T14:15:43Z</time>
      </trkpt>
      <trkpt lat="49.38943" lon="-1.04574">
        <ele>3.4</ele>
        <time>2020-06-16T14:15:44Z</time>
      </trkpt>
      <trkpt lat="49.38941" lon="-1.04569">
        <ele>3.4</ele>
        <time>2020-06-16T14:15:45Z</time>
      </trkpt>
      <trkpt lat="49.38939" lon="-1.04564">
        <ele>3.4</ele>
        <time>2020-06-16T14:15:46Z</time>
      </trkpt>
      <trkpt lat="49.38938" lon="-1.04559">
        <ele>3.4</ele>
        <time>2020-06-16T14:15:47Z</time>
      </trkpt>
      <trkpt lat="49.38936" lon="-1.04554">
        <ele>3.4</ele>
        <time>2020-06-16T14:15:48Z</time>
      </trkpt>
      <trkpt lat="49.38935" lon="-1.04549">
        <ele>3.4</ele>
        <time>2020-06-16T14:15:49Z</time>
      </trkpt>
      <trkpt lat="49.38934" lon="-1.04543">
        <ele>3.4</ele>
        <time>2020-06-16T14:15:50Z</time>
      </trkpt>
      <trkpt lat="49.38934" lon="-1.04536">
        <ele>3.4</ele>
        <time>2020-06-16T14:15:51Z</time>
      </trkpt>
      <trkpt lat="49.38933" lon="-1.0453">
        <ele>3.4</ele>
        <time>2020-06-16T14:15:52Z</time>
      </trkpt>
      <trkpt lat="49.38933" lon="-1.04524">
        <ele>3.4</ele>
        <time>2020-06-16T14:15:53Z</time>
      </trkpt>
      <trkpt lat="49.38933" lon="-1.04518">
        <ele>3.4</ele>
        <time>2020-06-16T14:15:54Z</time>
      </trkpt>
      <trkpt lat="49.38932" lon="-1.04512">
        <ele>3.4</ele>
        <time>2020-06-16T14:15:55Z</time>
      </trkpt>
      <trkpt lat="49.38932" lon="-1.04506">
        <ele>3.4</ele>
        <time>2020-06-16T14:15:56Z</time>
      </trkpt>
      <trkpt lat="49.38932" lon="-1.045">
        <ele>3.5</ele>
        <time>2020-06-16T14:15:57Z</time>
      </trkpt>
      <trkpt lat="49.38931" lon="-1.04495">
        <ele>3.5</ele>
        <time>2020-06-16T14:15:58Z</time>
      </trkpt>
      <trkpt lat="49.38931" lon="-1.04489">
        <ele>3.5</ele>
        <time>2020-06-16T14:15:59Z</time>
      </trkpt>
      <trkpt lat="49.38932" lon="-1.04483">
        <ele>3.5</ele>
        <time>2020-06-16T14:16:00Z</time>
      </trkpt>
      <trkpt lat="49.38932" lon="-1.04477">
        <ele>3.5</ele>
        <time>2020-06-16T14:16:01Z</time>
      </trkpt>
      <trkpt lat="49.38932" lon="-1.04471">
        <ele>3.5</ele>
        <time>2020-06-16T14:16:02Z</time>
      </trkpt>
      <trkpt lat="49.38932" lon="-1.04466">
        <ele>3.5</ele>
        <time>2020-06-16T14:16:03Z</time>
      </trkpt>
      <trkpt lat="49.38931" lon="-1.04461">
        <ele>3.5</ele>
        <time>2020-06-16T14:16:04Z</time>
      </trkpt>
      <trkpt lat="49.38931" lon="-1.04456">
        <ele>3.6</ele>
        <time>2020-06-16T14:16:05Z</time>
      </trkpt>
      <trkpt lat="49.38931" lon="-1.04452">
        <ele>3.6</ele>
        <time>2020-06-16T14:16:06Z</time>
      </trkpt>
      <trkpt lat="49.38931" lon="-1.04447">
        <ele>3.6</ele>
        <time>2020-06-16T14:16:07Z</time>
      </trkpt>
      <trkpt lat="49.38931" lon="-1.04441">
        <ele>3.6</ele>
        <time>2020-06-16T14:16:08Z</time>
      </trkpt>
      <trkpt lat="49.3893" lon="-1.04434">
        <ele>3.6</ele>
        <time>2020-06-16T14:16:09Z</time>
      </trkpt>
      <trkpt lat="49.3893" lon="-1.04428">
        <ele>3.6</ele>
        <time>2020-06-16T14:16:10Z</time>
      </trkpt>
      <trkpt lat="49.38929" lon="-1.04422">
        <ele>3.6</ele>
        <time>2020-06-16T14:16:11Z</time>
      </trkpt>
      <trkpt lat="49.38928" lon="-1.04417">
        <ele>3.7</ele>
        <time>2020-06-16T14:16:12Z</time>
      </trkpt>
      <trkpt lat="49.38927" lon="-1.0441">
        <ele>3.7</ele>
        <time>2020-06-16T14:16:13Z</time>
      </trkpt>
      <trkpt lat="49.38927" lon="-1.04401">
        <ele>3.7</ele>
        <time>2020-06-16T14:16:14Z</time>
      </trkpt>
      <trkpt lat="49.38927" lon="-1.04394">
        <ele>3.7</ele>
        <time>2020-06-16T14:16:15Z</time>
      </trkpt>
      <trkpt lat="49.38926" lon="-1.04387">
        <ele>3.7</ele>
        <time>2020-06-16T14:16:16Z</time>
      </trkpt>
      <trkpt lat="49.38926" lon="-1.04381">
        <ele>3.7</ele>
        <time>2020-06-16T14:16:17Z</time>
      </trkpt>
      <trkpt lat="49.38925" lon="-1.04373">
        <ele>3.7</ele>
        <time>2020-06-16T14:16:18Z</time>
      </trkpt>
      <trkpt lat="49.38924" lon="-1.04366">
        <ele>3.7</ele>
        <time>2020-06-16T14:16:19Z</time>
      </trkpt>
      <trkpt lat="49.38922" lon="-1.04359">
        <ele>3.7</ele>
        <time>2020-06-16T14:16:20Z</time>
      </trkpt>
      <trkpt lat="49.38921" lon="-1.04351">
        <ele>3.7</ele>
        <time>2020-06-16T14:16:21Z</time>
      </trkpt>
      <trkpt lat="49.38921" lon="-1.04343">
        <ele>3.7</ele>
        <time>2020-06-16T14:16:22Z</time>
      </trkpt>
      <trkpt lat="49.3892" lon="-1.04335">
        <ele>3.7</ele>
        <time>2020-06-16T14:16:23Z</time>
      </trkpt>
      <trkpt lat="49.3892" lon="-1.04329">
        <ele>3.7</ele>
        <time>2020-06-16T14:16:24Z</time>
      </trkpt>
      <trkpt lat="49.3892" lon="-1.04324">
        <ele>3.7</ele>
        <time>2020-06-16T14:16:25Z</time>
      </trkpt>
      <trkpt lat="49.3892" lon="-1.04318">
        <ele>3.7</ele>
        <time>2020-06-16T14:16:26Z</time>
      </trkpt>
      <trkpt lat="49.3892" lon="-1.04311">
        <ele>3.7</ele>
        <time>2020-06-16T14:16:27Z</time>
      </trkpt>
      <trkpt lat="49.3892" lon="-1.04304">
        <ele>3.7</ele>
        <time>2020-06-16T14:16:28Z</time>
      </trkpt>
      <trkpt lat="49.38921" lon="-1.04293">
        <ele>3.7</ele>
        <time>2020-06-16T14:16:29Z</time>
      </trkpt>
      <trkpt lat="49.38921" lon="-1.04286">
        <ele>3.7</ele>
        <time>2020-06-16T14:16:30Z</time>
      </trkpt>
      <trkpt lat="49.38922" lon="-1.04278">
        <ele>3.7</ele>
        <time>2020-06-16T14:16:31Z</time>
      </trkpt>
      <trkpt lat="49.38922" lon="-1.04271">
        <ele>3.6</ele>
        <time>2020-06-16T14:16:32Z</time>
      </trkpt>
      <trkpt lat="49.38922" lon="-1.04264">
        <ele>3.6</ele>
        <time>2020-06-16T14:16:33Z</time>
      </trkpt>
      <trkpt lat="49.38922" lon="-1.04257">
        <ele>3.6</ele>
        <time>2020-06-16T14:16:34Z</time>
      </trkpt>
      <trkpt lat="49.38923" lon="-1.04249">
        <ele>3.6</ele>
        <time>2020-06-16T14:16:35Z</time>
      </trkpt>
      <trkpt lat="49.38922" lon="-1.04243">
        <ele>3.6</ele>
        <time>2020-06-16T14:16:36Z</time>
      </trkpt>
      <trkpt lat="49.38923" lon="-1.04237">
        <ele>3.6</ele>
        <time>2020-06-16T14:16:37Z</time>
      </trkpt>
      <trkpt lat="49.38922" lon="-1.0423">
        <ele>3.6</ele>
        <time>2020-06-16T14:16:38Z</time>
      </trkpt>
      <trkpt lat="49.38922" lon="-1.04222">
        <ele>3.6</ele>
        <time>2020-06-16T14:16:39Z</time>
      </trkpt>
      <trkpt lat="49.38922" lon="-1.04216">
        <ele>3.6</ele>
        <time>2020-06-16T14:16:40Z</time>
      </trkpt>
      <trkpt lat="49.38922" lon="-1.04208">
        <ele>3.6</ele>
        <time>2020-06-16T14:16:41Z</time>
      </trkpt>
      <trkpt lat="49.38922" lon="-1.042">
        <ele>3.7</ele>
        <time>2020-06-16T14:16:42Z</time>
      </trkpt>
      <trkpt lat="49.38922" lon="-1.04193">
        <ele>3.7</ele>
        <time>2020-06-16T14:16:43Z</time>
      </trkpt>
      <trkpt lat="49.38922" lon="-1.04187">
        <ele>3.7</ele>
        <time>2020-06-16T14:16:44Z</time>
      </trkpt>
      <trkpt lat="49.38921" lon="-1.0418">
        <ele>3.7</ele>
        <time>2020-06-16T14:16:45Z</time>
      </trkpt>
      <trkpt lat="49.38921" lon="-1.04172">
        <ele>3.7</ele>
        <time>2020-06-16T14:16:46Z</time>
      </trkpt>
      <trkpt lat="49.38921" lon="-1.04164">
        <ele>3.7</ele>
        <time>2020-06-16T14:16:47Z</time>
      </trkpt>
      <trkpt lat="49.38921" lon="-1.04157">
        <ele>3.7</ele>
        <time>2020-06-16T14:16:48Z</time>
      </trkpt>
      <trkpt lat="49.3892" lon="-1.0415">
        <ele>3.8</ele>
        <time>2020-06-16T14:16:49Z</time>
      </trkpt>
      <trkpt lat="49.38919" lon="-1.04144">
        <ele>3.7</ele>
        <time>2020-06-16T14:16:50Z</time>
      </trkpt>
      <trkpt lat="49.38919" lon="-1.04137">
        <ele>3.7</ele>
        <time>2020-06-16T14:16:51Z</time>
      </trkpt>
      <trkpt lat="49.38918" lon="-1.04132">
        <ele>3.7</ele>
        <time>2020-06-16T14:16:52Z</time>
      </trkpt>
      <trkpt lat="49.38917" lon="-1.04125">
        <ele>3.6</ele>
        <time>2020-06-16T14:16:53Z</time>
      </trkpt>
      <trkpt lat="49.38917" lon="-1.04117">
        <ele>3.6</ele>
        <time>2020-06-16T14:16:54Z</time>
      </trkpt>
      <trkpt lat="49.38916" lon="-1.04109">
        <ele>3.6</ele>
        <time>2020-06-16T14:16:55Z</time>
      </trkpt>
      <trkpt lat="49.38914" lon="-1.04101">
        <ele>3.5</ele>
        <time>2020-06-16T14:16:56Z</time>
      </trkpt>
      <trkpt lat="49.38913" lon="-1.04093">
        <ele>3.5</ele>
        <time>2020-06-16T14:16:57Z</time>
      </trkpt>
      <trkpt lat="49.38912" lon="-1.04085">
        <ele>3.4</ele>
        <time>2020-06-16T14:16:58Z</time>
      </trkpt>
      <trkpt lat="49.38911" lon="-1.04076">
        <ele>3.4</ele>
        <time>2020-06-16T14:16:59Z</time>
      </trkpt>
      <trkpt lat="49.3891" lon="-1.04068">
        <ele>3.4</ele>
        <time>2020-06-16T14:17:00Z</time>
      </trkpt>
      <trkpt lat="49.38909" lon="-1.04059">
        <ele>3.4</ele>
        <time>2020-06-16T14:17:01Z</time>
      </trkpt>
      <trkpt lat="49.3891" lon="-1.04051">
        <ele>3.4</ele>
        <time>2020-06-16T14:17:02Z</time>
      </trkpt>
      <trkpt lat="49.3891" lon="-1.04044">
        <ele>3.4</ele>
        <time>2020-06-16T14:17:03Z</time>
      </trkpt>
      <trkpt lat="49.38911" lon="-1.04037">
        <ele>3.4</ele>
        <time>2020-06-16T14:17:04Z</time>
      </trkpt>
      <trkpt lat="49.38911" lon="-1.0403">
        <ele>3.5</ele>
        <time>2020-06-16T14:17:05Z</time>
      </trkpt>
      <trkpt lat="49.38911" lon="-1.04024">
        <ele>3.5</ele>
        <time>2020-06-16T14:17:06Z</time>
      </trkpt>
      <trkpt lat="49.38911" lon="-1.04018">
        <ele>3.5</ele>
        <time>2020-06-16T14:17:07Z</time>
      </trkpt>
      <trkpt lat="49.38912" lon="-1.04012">
        <ele>3.5</ele>
        <time>2020-06-16T14:17:08Z</time>
      </trkpt>
      <trkpt lat="49.38912" lon="-1.04005">
        <ele>3.6</ele>
        <time>2020-06-16T14:17:09Z</time>
      </trkpt>
      <trkpt lat="49.38912" lon="-1.04">
        <ele>3.6</ele>
        <time>2020-06-16T14:17:10Z</time>
      </trkpt>
      <trkpt lat="49.38912" lon="-1.03995">
        <ele>3.6</ele>
        <time>2020-06-16T14:17:11Z</time>
      </trkpt>
      <trkpt lat="49.38912" lon="-1.0399">
        <ele>3.6</ele>
        <time>2020-06-16T14:17:12Z</time>
      </trkpt>
      <trkpt lat="49.38912" lon="-1.03985">
        <ele>3.6</ele>
        <time>2020-06-16T14:17:13Z</time>
      </trkpt>
      <trkpt lat="49.38912" lon="-1.03983">
        <ele>3.6</ele>
        <time>2020-06-16T14:17:14Z</time>
      </trkpt>
      <trkpt lat="49.38913" lon="-1.03978">
        <ele>3.7</ele>
        <time>2020-06-16T14:17:15Z</time>
      </trkpt>
      <trkpt lat="49.38914" lon="-1.03974">
        <ele>3.7</ele>
        <time>2020-06-16T14:17:16Z</time>
      </trkpt>
      <trkpt lat="49.38914" lon="-1.03969">
        <ele>3.8</ele>
        <time>2020-06-16T14:17:17Z</time>
      </trkpt>
      <trkpt lat="49.38914" lon="-1.03967">
        <ele>3.8</ele>
        <time>2020-06-16T14:17:18Z</time>
      </trkpt>
      <trkpt lat="49.38913" lon="-1.03966">
        <ele>3.8</ele>
        <time>2020-06-16T14:17:19Z</time>
      </trkpt>
      <trkpt lat="49.38911" lon="-1.03965">
        <ele>3.8</ele>
        <time>2020-06-16T14:17:20Z</time>
      </trkpt>
      <trkpt lat="49.38908" lon="-1.03965">
        <ele>3.8</ele>
        <time>2020-06-16T14:17:21Z</time>
      </trkpt>
      <trkpt lat="49.38907" lon="-1.03965">
        <ele>3.8</ele>
        <time>2020-06-16T14:17:22Z</time>
      </trkpt>
      <trkpt lat="49.38903" lon="-1.03966">
        <ele>3.8</ele>
        <time>2020-06-16T14:17:23Z</time>
      </trkpt>
      <trkpt lat="49.38899" lon="-1.03966">
        <ele>3.8</ele>
        <time>2020-06-16T14:17:24Z</time>
      </trkpt>
      <trkpt lat="49.38895" lon="-1.03966">
        <ele>3.7</ele>
        <time>2020-06-16T14:17:25Z</time>
      </trkpt>
      <trkpt lat="49.38891" lon="-1.03964">
        <ele>3.7</ele>
        <time>2020-06-16T14:17:26Z</time>
      </trkpt>
      <trkpt lat="49.38888" lon="-1.03964">
        <ele>3.7</ele>
        <time>2020-06-16T14:17:27Z</time>
      </trkpt>
      <trkpt lat="49.38885" lon="-1.03963">
        <ele>3.7</ele>
        <time>2020-06-16T14:17:28Z</time>
      </trkpt>
      <trkpt lat="49.38881" lon="-1.03962">
        <ele>3.7</ele>
        <time>2020-06-16T14:17:29Z</time>
      </trkpt>
      <trkpt lat="49.38877" lon="-1.0396">
        <ele>3.7</ele>
        <time>2020-06-16T14:17:30Z</time>
      </trkpt>
      <trkpt lat="49.38874" lon="-1.03956">
        <ele>3.8</ele>
        <time>2020-06-16T14:17:31Z</time>
      </trkpt>
      <trkpt lat="49.38871" lon="-1.03954">
        <ele>3.8</ele>
        <time>2020-06-16T14:17:32Z</time>
      </trkpt>
      <trkpt lat="49.38867" lon="-1.03953">
        <ele>3.8</ele>
        <time>2020-06-16T14:17:33Z</time>
      </trkpt>
      <trkpt lat="49.38866" lon="-1.03953">
        <ele>3.8</ele>
        <time>2020-06-16T14:17:34Z</time>
      </trkpt>
      <trkpt lat="49.38862" lon="-1.03955">
        <ele>3.8</ele>
        <time>2020-06-16T14:17:35Z</time>
      </trkpt>
      <trkpt lat="49.38861" lon="-1.03955">
        <ele>3.8</ele>
        <time>2020-06-16T14:17:36Z</time>
      </trkpt>
      <trkpt lat="49.38857" lon="-1.03956">
        <ele>3.8</ele>
        <time>2020-06-16T14:17:37Z</time>
      </trkpt>
      <trkpt lat="49.38856" lon="-1.03956">
        <ele>3.8</ele>
        <time>2020-06-16T14:17:38Z</time>
      </trkpt>
      <trkpt lat="49.38853" lon="-1.03956">
        <ele>3.9</ele>
        <time>2020-06-16T14:17:39Z</time>
      </trkpt>
      <trkpt lat="49.38852" lon="-1.03955">
        <ele>3.9</ele>
        <time>2020-06-16T14:17:40Z</time>
      </trkpt>
      <trkpt lat="49.3885" lon="-1.0395">
        <ele>3.9</ele>
        <time>2020-06-16T14:17:41Z</time>
      </trkpt>
      <trkpt lat="49.38849" lon="-1.03944">
        <ele>3.8</ele>
        <time>2020-06-16T14:17:42Z</time>
      </trkpt>
      <trkpt lat="49.38847" lon="-1.03937">
        <ele>3.8</ele>
        <time>2020-06-16T14:17:43Z</time>
      </trkpt>
      <trkpt lat="49.38846" lon="-1.03931">
        <ele>3.7</ele>
        <time>2020-06-16T14:17:44Z</time>
      </trkpt>
      <trkpt lat="49.38844" lon="-1.03924">
        <ele>3.7</ele>
        <time>2020-06-16T14:17:45Z</time>
      </trkpt>
      <trkpt lat="49.38843" lon="-1.03917">
        <ele>3.7</ele>
        <time>2020-06-16T14:17:46Z</time>
      </trkpt>
      <trkpt lat="49.38842" lon="-1.0391">
        <ele>3.7</ele>
        <time>2020-06-16T14:17:47Z</time>
      </trkpt>
      <trkpt lat="49.38841" lon="-1.03903">
        <ele>3.7</ele>
        <time>2020-06-16T14:17:48Z</time>
      </trkpt>
      <trkpt lat="49.38841" lon="-1.03896">
        <ele>3.7</ele>
        <time>2020-06-16T14:17:49Z</time>
      </trkpt>
      <trkpt lat="49.3884" lon="-1.0389">
        <ele>3.7</ele>
        <time>2020-06-16T14:17:50Z</time>
      </trkpt>
      <trkpt lat="49.38839" lon="-1.03884">
        <ele>3.7</ele>
        <time>2020-06-16T14:17:51Z</time>
      </trkpt>
      <trkpt lat="49.38839" lon="-1.03877">
        <ele>3.8</ele>
        <time>2020-06-16T14:17:52Z</time>
      </trkpt>
      <trkpt lat="49.38838" lon="-1.0387">
        <ele>4</ele>
        <time>2020-06-16T14:17:53Z</time>
      </trkpt>
      <trkpt lat="49.38837" lon="-1.03863">
        <ele>4.1</ele>
        <time>2020-06-16T14:17:54Z</time>
      </trkpt>
      <trkpt lat="49.38836" lon="-1.03856">
        <ele>4.3</ele>
        <time>2020-06-16T14:17:55Z</time>
      </trkpt>
      <trkpt lat="49.38835" lon="-1.03849">
        <ele>4.4</ele>
        <time>2020-06-16T14:17:56Z</time>
      </trkpt>
      <trkpt lat="49.38835" lon="-1.03841">
        <ele>4.6</ele>
        <time>2020-06-16T14:17:57Z</time>
      </trkpt>
      <trkpt lat="49.38834" lon="-1.03834">
        <ele>4.8</ele>
        <time>2020-06-16T14:17:58Z</time>
      </trkpt>
      <trkpt lat="49.38833" lon="-1.03826">
        <ele>5.1</ele>
        <time>2020-06-16T14:17:59Z</time>
      </trkpt>
      <trkpt lat="49.38833" lon="-1.03819">
        <ele>5.4</ele>
        <time>2020-06-16T14:18:00Z</time>
      </trkpt>
      <trkpt lat="49.38832" lon="-1.03812">
        <ele>5.7</ele>
        <time>2020-06-16T14:18:01Z</time>
      </trkpt>
      <trkpt lat="49.38832" lon="-1.03805">
        <ele>5.9</ele>
        <time>2020-06-16T14:18:02Z</time>
      </trkpt>
      <trkpt lat="49.38831" lon="-1.03799">
        <ele>6.2</ele>
        <time>2020-06-16T14:18:03Z</time>
      </trkpt>
      <trkpt lat="49.3883" lon="-1.03793">
        <ele>6.4</ele>
        <time>2020-06-16T14:18:04Z</time>
      </trkpt>
      <trkpt lat="49.3883" lon="-1.03787">
        <ele>6.7</ele>
        <time>2020-06-16T14:18:05Z</time>
      </trkpt>
      <trkpt lat="49.38829" lon="-1.03782">
        <ele>6.9</ele>
        <time>2020-06-16T14:18:06Z</time>
      </trkpt>
      <trkpt lat="49.38828" lon="-1.03778">
        <ele>7.1</ele>
        <time>2020-06-16T14:18:07Z</time>
      </trkpt>
      <trkpt lat="49.38826" lon="-1.03774">
        <ele>7.3</ele>
        <time>2020-06-16T14:18:08Z</time>
      </trkpt>
      <trkpt lat="49.38826" lon="-1.03767">
        <ele>7.7</ele>
        <time>2020-06-16T14:18:09Z</time>
      </trkpt>
      <trkpt lat="49.38825" lon="-1.03765">
        <ele>7.8</ele>
        <time>2020-06-16T14:18:10Z</time>
      </trkpt>
      <trkpt lat="49.38825" lon="-1.0376">
        <ele>8</ele>
        <time>2020-06-16T14:18:11Z</time>
      </trkpt>
      <trkpt lat="49.38824" lon="-1.03755">
        <ele>8.3</ele>
        <time>2020-06-16T14:18:12Z</time>
      </trkpt>
      <trkpt lat="49.38823" lon="-1.0375">
        <ele>8.5</ele>
        <time>2020-06-16T14:18:13Z</time>
      </trkpt>
      <trkpt lat="49.38822" lon="-1.03745">
        <ele>8.7</ele>
        <time>2020-06-16T14:18:14Z</time>
      </trkpt>
      <trkpt lat="49.38822" lon="-1.03739">
        <ele>9</ele>
        <time>2020-06-16T14:18:15Z</time>
      </trkpt>
      <trkpt lat="49.38821" lon="-1.03733">
        <ele>9.3</ele>
        <time>2020-06-16T14:18:16Z</time>
      </trkpt>
      <trkpt lat="49.38821" lon="-1.03728">
        <ele>9.5</ele>
        <time>2020-06-16T14:18:17Z</time>
      </trkpt>
      <trkpt lat="49.3882" lon="-1.03723">
        <ele>9.8</ele>
        <time>2020-06-16T14:18:18Z</time>
      </trkpt>
      <trkpt lat="49.38819" lon="-1.03719">
        <ele>10</ele>
        <time>2020-06-16T14:18:19Z</time>
      </trkpt>
      <trkpt lat="49.38819" lon="-1.03715">
        <ele>10.1</ele>
        <time>2020-06-16T14:18:20Z</time>
      </trkpt>
      <trkpt lat="49.38819" lon="-1.0371">
        <ele>10.4</ele>
        <time>2020-06-16T14:18:21Z</time>
      </trkpt>
      <trkpt lat="49.38819" lon="-1.03705">
        <ele>10.6</ele>
        <time>2020-06-16T14:18:22Z</time>
      </trkpt>
      <trkpt lat="49.38819" lon="-1.037">
        <ele>10.8</ele>
        <time>2020-06-16T14:18:23Z</time>
      </trkpt>
      <trkpt lat="49.38818" lon="-1.03695">
        <ele>11</ele>
        <time>2020-06-16T14:18:24Z</time>
      </trkpt>
      <trkpt lat="49.38817" lon="-1.0369">
        <ele>11.2</ele>
        <time>2020-06-16T14:18:25Z</time>
      </trkpt>
      <trkpt lat="49.38816" lon="-1.03684">
        <ele>11.4</ele>
        <time>2020-06-16T14:18:26Z</time>
      </trkpt>
      <trkpt lat="49.38816" lon="-1.03679">
        <ele>11.6</ele>
        <time>2020-06-16T14:18:27Z</time>
      </trkpt>
      <trkpt lat="49.38815" lon="-1.03674">
        <ele>11.8</ele>
        <time>2020-06-16T14:18:28Z</time>
      </trkpt>
      <trkpt lat="49.38815" lon="-1.03669">
        <ele>12</ele>
        <time>2020-06-16T14:18:29Z</time>
      </trkpt>
      <trkpt lat="49.38814" lon="-1.03664">
        <ele>12.2</ele>
        <time>2020-06-16T14:18:30Z</time>
      </trkpt>
      <trkpt lat="49.38814" lon="-1.03659">
        <ele>12.4</ele>
        <time>2020-06-16T14:18:31Z</time>
      </trkpt>
      <trkpt lat="49.38814" lon="-1.03654">
        <ele>12.6</ele>
        <time>2020-06-16T14:18:32Z</time>
      </trkpt>
      <trkpt lat="49.38813" lon="-1.03649">
        <ele>12.7</ele>
        <time>2020-06-16T14:18:33Z</time>
      </trkpt>
      <trkpt lat="49.38813" lon="-1.03644">
        <ele>12.9</ele>
        <time>2020-06-16T14:18:34Z</time>
      </trkpt>
      <trkpt lat="49.38812" lon="-1.03639">
        <ele>13.1</ele>
        <time>2020-06-16T14:18:35Z</time>
      </trkpt>
      <trkpt lat="49.38811" lon="-1.03634">
        <ele>13.3</ele>
        <time>2020-06-16T14:18:36Z</time>
      </trkpt>
      <trkpt lat="49.38811" lon="-1.03628">
        <ele>13.5</ele>
        <time>2020-06-16T14:18:37Z</time>
      </trkpt>
      <trkpt lat="49.38811" lon="-1.03621">
        <ele>13.7</ele>
        <time>2020-06-16T14:18:38Z</time>
      </trkpt>
      <trkpt lat="49.38812" lon="-1.03616">
        <ele>13.8</ele>
        <time>2020-06-16T14:18:39Z</time>
      </trkpt>
      <trkpt lat="49.38812" lon="-1.03609">
        <ele>14</ele>
        <time>2020-06-16T14:18:40Z</time>
      </trkpt>
      <trkpt lat="49.38813" lon="-1.03604">
        <ele>14.1</ele>
        <time>2020-06-16T14:18:41Z</time>
      </trkpt>
      <trkpt lat="49.38813" lon="-1.03599">
        <ele>14.2</ele>
        <time>2020-06-16T14:18:42Z</time>
      </trkpt>
      <trkpt lat="49.38812" lon="-1.03594">
        <ele>14.4</ele>
        <time>2020-06-16T14:18:43Z</time>
      </trkpt>
      <trkpt lat="49.38813" lon="-1.03588">
        <ele>14.5</ele>
        <time>2020-06-16T14:18:44Z</time>
      </trkpt>
      <trkpt lat="49.38812" lon="-1.03584">
        <ele>14.6</ele>
        <time>2020-06-16T14:18:45Z</time>
      </trkpt>
      <trkpt lat="49.38813" lon="-1.03578">
        <ele>14.7</ele>
        <time>2020-06-16T14:18:46Z</time>
      </trkpt>
      <trkpt lat="49.38812" lon="-1.03573">
        <ele>14.9</ele>
        <time>2020-06-16T14:18:47Z</time>
      </trkpt>
      <trkpt lat="49.38811" lon="-1.03568">
        <ele>15</ele>
        <time>2020-06-16T14:18:48Z</time>
      </trkpt>
      <trkpt lat="49.3881" lon="-1.03562">
        <ele>15.1</ele>
        <time>2020-06-16T14:18:49Z</time>
      </trkpt>
      <trkpt lat="49.38809" lon="-1.03558">
        <ele>15.2</ele>
        <time>2020-06-16T14:18:50Z</time>
      </trkpt>
      <trkpt lat="49.38809" lon="-1.03554">
        <ele>15.3</ele>
        <time>2020-06-16T14:18:51Z</time>
      </trkpt>
      <trkpt lat="49.38808" lon="-1.03549">
        <ele>15.4</ele>
        <time>2020-06-16T14:18:52Z</time>
      </trkpt>
      <trkpt lat="49.38808" lon="-1.03544">
        <ele>15.5</ele>
        <time>2020-06-16T14:18:53Z</time>
      </trkpt>
      <trkpt lat="49.38807" lon="-1.0354">
        <ele>15.6</ele>
        <time>2020-06-16T14:18:54Z</time>
      </trkpt>
      <trkpt lat="49.38807" lon="-1.03536">
        <ele>15.6</ele>
        <time>2020-06-16T14:18:55Z</time>
      </trkpt>
      <trkpt lat="49.38806" lon="-1.03529">
        <ele>15.8</ele>
        <time>2020-06-16T14:18:56Z</time>
      </trkpt>
      <trkpt lat="49.38806" lon="-1.03527">
        <ele>15.8</ele>
        <time>2020-06-16T14:18:57Z</time>
      </trkpt>
      <trkpt lat="49.38806" lon="-1.03522">
        <ele>15.9</ele>
        <time>2020-06-16T14:18:58Z</time>
      </trkpt>
      <trkpt lat="49.38805" lon="-1.03517">
        <ele>16</ele>
        <time>2020-06-16T14:18:59Z</time>
      </trkpt>
      <trkpt lat="49.38804" lon="-1.03512">
        <ele>16</ele>
        <time>2020-06-16T14:19:00Z</time>
      </trkpt>
      <trkpt lat="49.38803" lon="-1.03506">
        <ele>16.1</ele>
        <time>2020-06-16T14:19:01Z</time>
      </trkpt>
      <trkpt lat="49.38803" lon="-1.035">
        <ele>16.2</ele>
        <time>2020-06-16T14:19:02Z</time>
      </trkpt>
      <trkpt lat="49.38802" lon="-1.03495">
        <ele>16.3</ele>
        <time>2020-06-16T14:19:03Z</time>
      </trkpt>
      <trkpt lat="49.38801" lon="-1.03489">
        <ele>16.4</ele>
        <time>2020-06-16T14:19:04Z</time>
      </trkpt>
      <trkpt lat="49.388" lon="-1.03483">
        <ele>16.4</ele>
        <time>2020-06-16T14:19:05Z</time>
      </trkpt>
      <trkpt lat="49.38799" lon="-1.03476">
        <ele>16.5</ele>
        <time>2020-06-16T14:19:06Z</time>
      </trkpt>
      <trkpt lat="49.38799" lon="-1.03471">
        <ele>16.6</ele>
        <time>2020-06-16T14:19:07Z</time>
      </trkpt>
      <trkpt lat="49.38798" lon="-1.03465">
        <ele>16.7</ele>
        <time>2020-06-16T14:19:08Z</time>
      </trkpt>
      <trkpt lat="49.38798" lon="-1.03458">
        <ele>16.7</ele>
        <time>2020-06-16T14:19:09Z</time>
      </trkpt>
      <trkpt lat="49.38799" lon="-1.03452">
        <ele>16.8</ele>
        <time>2020-06-16T14:19:10Z</time>
      </trkpt>
      <trkpt lat="49.38799" lon="-1.03445">
        <ele>16.9</ele>
        <time>2020-06-16T14:19:11Z</time>
      </trkpt>
      <trkpt lat="49.388" lon="-1.03435">
        <ele>17</ele>
        <time>2020-06-16T14:19:12Z</time>
      </trkpt>
      <trkpt lat="49.38801" lon="-1.03427">
        <ele>17.1</ele>
        <time>2020-06-16T14:19:13Z</time>
      </trkpt>
      <trkpt lat="49.38802" lon="-1.03418">
        <ele>17.2</ele>
        <time>2020-06-16T14:19:14Z</time>
      </trkpt>
      <trkpt lat="49.38802" lon="-1.0341">
        <ele>17.3</ele>
        <time>2020-06-16T14:19:15Z</time>
      </trkpt>
      <trkpt lat="49.38802" lon="-1.03402">
        <ele>17.4</ele>
        <time>2020-06-16T14:19:16Z</time>
      </trkpt>
      <trkpt lat="49.38803" lon="-1.03394">
        <ele>17.6</ele>
        <time>2020-06-16T14:19:17Z</time>
      </trkpt>
      <trkpt lat="49.38803" lon="-1.03386">
        <ele>17.7</ele>
        <time>2020-06-16T14:19:18Z</time>
      </trkpt>
      <trkpt lat="49.38803" lon="-1.03378">
        <ele>17.8</ele>
        <time>2020-06-16T14:19:19Z</time>
      </trkpt>
      <trkpt lat="49.38803" lon="-1.0337">
        <ele>17.9</ele>
        <time>2020-06-16T14:19:20Z</time>
      </trkpt>
      <trkpt lat="49.38802" lon="-1.03363">
        <ele>18</ele>
        <time>2020-06-16T14:19:21Z</time>
      </trkpt>
      <trkpt lat="49.38801" lon="-1.03355">
        <ele>18</ele>
        <time>2020-06-16T14:19:22Z</time>
      </trkpt>
      <trkpt lat="49.38802" lon="-1.03346">
        <ele>18.1</ele>
        <time>2020-06-16T14:19:23Z</time>
      </trkpt>
      <trkpt lat="49.38802" lon="-1.03339">
        <ele>18.2</ele>
        <time>2020-06-16T14:19:24Z</time>
      </trkpt>
      <trkpt lat="49.38802" lon="-1.03332">
        <ele>18.2</ele>
        <time>2020-06-16T14:19:25Z</time>
      </trkpt>
      <trkpt lat="49.38802" lon="-1.03326">
        <ele>18.3</ele>
        <time>2020-06-16T14:19:26Z</time>
      </trkpt>
      <trkpt lat="49.38802" lon="-1.0332">
        <ele>18.3</ele>
        <time>2020-06-16T14:19:27Z</time>
      </trkpt>
      <trkpt lat="49.38802" lon="-1.03313">
        <ele>18.3</ele>
        <time>2020-06-16T14:19:28Z</time>
      </trkpt>
      <trkpt lat="49.38803" lon="-1.03307">
        <ele>18.4</ele>
        <time>2020-06-16T14:19:29Z</time>
      </trkpt>
      <trkpt lat="49.38803" lon="-1.033">
        <ele>18.4</ele>
        <time>2020-06-16T14:19:30Z</time>
      </trkpt>
      <trkpt lat="49.38804" lon="-1.03294">
        <ele>18.4</ele>
        <time>2020-06-16T14:19:31Z</time>
      </trkpt>
      <trkpt lat="49.38804" lon="-1.03287">
        <ele>18.4</ele>
        <time>2020-06-16T14:19:32Z</time>
      </trkpt>
      <trkpt lat="49.38804" lon="-1.0328">
        <ele>18.4</ele>
        <time>2020-06-16T14:19:33Z</time>
      </trkpt>
      <trkpt lat="49.38805" lon="-1.03274">
        <ele>18.4</ele>
        <time>2020-06-16T14:19:34Z</time>
      </trkpt>
      <trkpt lat="49.38805" lon="-1.03267">
        <ele>18.5</ele>
        <time>2020-06-16T14:19:35Z</time>
      </trkpt>
      <trkpt lat="49.38806" lon="-1.03261">
        <ele>18.5</ele>
        <time>2020-06-16T14:19:36Z</time>
      </trkpt>
      <trkpt lat="49.38807" lon="-1.03255">
        <ele>18.5</ele>
        <time>2020-06-16T14:19:37Z</time>
      </trkpt>
      <trkpt lat="49.38807" lon="-1.03249">
        <ele>18.5</ele>
        <time>2020-06-16T14:19:38Z</time>
      </trkpt>
      <trkpt lat="49.38807" lon="-1.03244">
        <ele>18.6</ele>
        <time>2020-06-16T14:19:39Z</time>
      </trkpt>
      <trkpt lat="49.38808" lon="-1.03238">
        <ele>18.6</ele>
        <time>2020-06-16T14:19:40Z</time>
      </trkpt>
      <trkpt lat="49.38808" lon="-1.03236">
        <ele>18.6</ele>
        <time>2020-06-16T14:19:41Z</time>
      </trkpt>
      <trkpt lat="49.38808" lon="-1.0323">
        <ele>18.6</ele>
        <time>2020-06-16T14:19:42Z</time>
      </trkpt>
      <trkpt lat="49.38808" lon="-1.03229">
        <ele>18.6</ele>
        <time>2020-06-16T14:19:43Z</time>
      </trkpt>
      <trkpt lat="49.38808" lon="-1.03226">
        <ele>18.6</ele>
        <time>2020-06-16T14:19:44Z</time>
      </trkpt>
      <trkpt lat="49.38808" lon="-1.03224">
        <ele>18.6</ele>
        <time>2020-06-16T14:19:45Z</time>
      </trkpt>
      <trkpt lat="49.38808" lon="-1.0322">
        <ele>18.6</ele>
        <time>2020-06-16T14:19:46Z</time>
      </trkpt>
      <trkpt lat="49.38808" lon="-1.03218">
        <ele>18.6</ele>
        <time>2020-06-16T14:19:47Z</time>
      </trkpt>
      <trkpt lat="49.38808" lon="-1.03213">
        <ele>18.7</ele>
        <time>2020-06-16T14:19:48Z</time>
      </trkpt>
      <trkpt lat="49.38808" lon="-1.03211">
        <ele>18.7</ele>
        <time>2020-06-16T14:19:49Z</time>
      </trkpt>
      <trkpt lat="49.38809" lon="-1.03205">
        <ele>18.7</ele>
        <time>2020-06-16T14:19:50Z</time>
      </trkpt>
      <trkpt lat="49.38809" lon="-1.03203">
        <ele>18.7</ele>
        <time>2020-06-16T14:19:51Z</time>
      </trkpt>
      <trkpt lat="49.3881" lon="-1.03197">
        <ele>18.6</ele>
        <time>2020-06-16T14:19:52Z</time>
      </trkpt>
      <trkpt lat="49.38811" lon="-1.0319">
        <ele>18.6</ele>
        <time>2020-06-16T14:19:53Z</time>
      </trkpt>
      <trkpt lat="49.38811" lon="-1.03183">
        <ele>18.6</ele>
        <time>2020-06-16T14:19:54Z</time>
      </trkpt>
      <trkpt lat="49.38813" lon="-1.03177">
        <ele>18.6</ele>
        <time>2020-06-16T14:19:55Z</time>
      </trkpt>
      <trkpt lat="49.38814" lon="-1.0317">
        <ele>18.6</ele>
        <time>2020-06-16T14:19:56Z</time>
      </trkpt>
      <trkpt lat="49.38816" lon="-1.03163">
        <ele>18.5</ele>
        <time>2020-06-16T14:19:57Z</time>
      </trkpt>
      <trkpt lat="49.38818" lon="-1.03156">
        <ele>18.5</ele>
        <time>2020-06-16T14:19:58Z</time>
      </trkpt>
      <trkpt lat="49.38818" lon="-1.03149">
        <ele>18.4</ele>
        <time>2020-06-16T14:19:59Z</time>
      </trkpt>
      <trkpt lat="49.38817" lon="-1.03143">
        <ele>18.4</ele>
        <time>2020-06-16T14:20:00Z</time>
      </trkpt>
      <trkpt lat="49.38816" lon="-1.03138">
        <ele>18.4</ele>
        <time>2020-06-16T14:20:01Z</time>
      </trkpt>
      <trkpt lat="49.38814" lon="-1.03131">
        <ele>18.3</ele>
        <time>2020-06-16T14:20:02Z</time>
      </trkpt>
      <trkpt lat="49.38811" lon="-1.03125">
        <ele>18.3</ele>
        <time>2020-06-16T14:20:03Z</time>
      </trkpt>
      <trkpt lat="49.38809" lon="-1.0312">
        <ele>18.3</ele>
        <time>2020-06-16T14:20:04Z</time>
      </trkpt>
      <trkpt lat="49.38807" lon="-1.03115">
        <ele>18.2</ele>
        <time>2020-06-16T14:20:05Z</time>
      </trkpt>
      <trkpt lat="49.38806" lon="-1.0311">
        <ele>18.2</ele>
        <time>2020-06-16T14:20:06Z</time>
      </trkpt>
      <trkpt lat="49.38805" lon="-1.03105">
        <ele>18.1</ele>
        <time>2020-06-16T14:20:07Z</time>
      </trkpt>
      <trkpt lat="49.38805" lon="-1.03098">
        <ele>18.1</ele>
        <time>2020-06-16T14:20:08Z</time>
      </trkpt>
      <trkpt lat="49.38805" lon="-1.03091">
        <ele>18</ele>
        <time>2020-06-16T14:20:09Z</time>
      </trkpt>
      <trkpt lat="49.38807" lon="-1.03083">
        <ele>18</ele>
        <time>2020-06-16T14:20:10Z</time>
      </trkpt>
      <trkpt lat="49.38808" lon="-1.03077">
        <ele>17.9</ele>
        <time>2020-06-16T14:20:11Z</time>
      </trkpt>
      <trkpt lat="49.3881" lon="-1.03068">
        <ele>17.8</ele>
        <time>2020-06-16T14:20:12Z</time>
      </trkpt>
      <trkpt lat="49.38811" lon="-1.03059">
        <ele>17.7</ele>
        <time>2020-06-16T14:20:13Z</time>
      </trkpt>
      <trkpt lat="49.38812" lon="-1.03051">
        <ele>17.6</ele>
        <time>2020-06-16T14:20:14Z</time>
      </trkpt>
      <trkpt lat="49.38814" lon="-1.03043">
        <ele>17.5</ele>
        <time>2020-06-16T14:20:15Z</time>
      </trkpt>
      <trkpt lat="49.38815" lon="-1.03036">
        <ele>17.5</ele>
        <time>2020-06-16T14:20:16Z</time>
      </trkpt>
      <trkpt lat="49.38817" lon="-1.03028">
        <ele>17.4</ele>
        <time>2020-06-16T14:20:17Z</time>
      </trkpt>
      <trkpt lat="49.38818" lon="-1.0302">
        <ele>17.3</ele>
        <time>2020-06-16T14:20:18Z</time>
      </trkpt>
      <trkpt lat="49.3882" lon="-1.03012">
        <ele>17.2</ele>
        <time>2020-06-16T14:20:19Z</time>
      </trkpt>
      <trkpt lat="49.3882" lon="-1.03004">
        <ele>17.1</ele>
        <time>2020-06-16T14:20:20Z</time>
      </trkpt>
      <trkpt lat="49.38821" lon="-1.02997">
        <ele>17.1</ele>
        <time>2020-06-16T14:20:21Z</time>
      </trkpt>
      <trkpt lat="49.38822" lon="-1.02991">
        <ele>17</ele>
        <time>2020-06-16T14:20:22Z</time>
      </trkpt>
      <trkpt lat="49.38823" lon="-1.02985">
        <ele>17</ele>
        <time>2020-06-16T14:20:23Z</time>
      </trkpt>
      <trkpt lat="49.38824" lon="-1.02978">
        <ele>16.9</ele>
        <time>2020-06-16T14:20:24Z</time>
      </trkpt>
      <trkpt lat="49.38825" lon="-1.02972">
        <ele>16.9</ele>
        <time>2020-06-16T14:20:25Z</time>
      </trkpt>
      <trkpt lat="49.38827" lon="-1.02965">
        <ele>16.8</ele>
        <time>2020-06-16T14:20:26Z</time>
      </trkpt>
      <trkpt lat="49.38828" lon="-1.02958">
        <ele>16.8</ele>
        <time>2020-06-16T14:20:27Z</time>
      </trkpt>
      <trkpt lat="49.3883" lon="-1.02951">
        <ele>16.7</ele>
        <time>2020-06-16T14:20:28Z</time>
      </trkpt>
      <trkpt lat="49.3883" lon="-1.02944">
        <ele>16.7</ele>
        <time>2020-06-16T14:20:29Z</time>
      </trkpt>
      <trkpt lat="49.38832" lon="-1.02936">
        <ele>16.6</ele>
        <time>2020-06-16T14:20:30Z</time>
      </trkpt>
      <trkpt lat="49.38833" lon="-1.02929">
        <ele>16.5</ele>
        <time>2020-06-16T14:20:31Z</time>
      </trkpt>
      <trkpt lat="49.38834" lon="-1.02922">
        <ele>16.5</ele>
        <time>2020-06-16T14:20:32Z</time>
      </trkpt>
      <trkpt lat="49.38835" lon="-1.02914">
        <ele>16.4</ele>
        <time>2020-06-16T14:20:33Z</time>
      </trkpt>
      <trkpt lat="49.38837" lon="-1.02906">
        <ele>16.4</ele>
        <time>2020-06-16T14:20:34Z</time>
      </trkpt>
      <trkpt lat="49.38838" lon="-1.02898">
        <ele>16.3</ele>
        <time>2020-06-16T14:20:35Z</time>
      </trkpt>
      <trkpt lat="49.3884" lon="-1.02891">
        <ele>16.3</ele>
        <time>2020-06-16T14:20:36Z</time>
      </trkpt>
      <trkpt lat="49.38841" lon="-1.02884">
        <ele>16.2</ele>
        <time>2020-06-16T14:20:37Z</time>
      </trkpt>
      <trkpt lat="49.38842" lon="-1.02877">
        <ele>16.2</ele>
        <time>2020-06-16T14:20:38Z</time>
      </trkpt>
      <trkpt lat="49.38844" lon="-1.02869">
        <ele>16.2</ele>
        <time>2020-06-16T14:20:39Z</time>
      </trkpt>
      <trkpt lat="49.38845" lon="-1.02862">
        <ele>16.2</ele>
        <time>2020-06-16T14:20:40Z</time>
      </trkpt>
      <trkpt lat="49.38846" lon="-1.02854">
        <ele>16.1</ele>
        <time>2020-06-16T14:20:41Z</time>
      </trkpt>
      <trkpt lat="49.38848" lon="-1.02846">
        <ele>16.1</ele>
        <time>2020-06-16T14:20:42Z</time>
      </trkpt>
      <trkpt lat="49.38849" lon="-1.02838">
        <ele>16.1</ele>
        <time>2020-06-16T14:20:43Z</time>
      </trkpt>
      <trkpt lat="49.3885" lon="-1.0283">
        <ele>16</ele>
        <time>2020-06-16T14:20:44Z</time>
      </trkpt>
      <trkpt lat="49.38851" lon="-1.02822">
        <ele>16</ele>
        <time>2020-06-16T14:20:45Z</time>
      </trkpt>
      <trkpt lat="49.38852" lon="-1.02813">
        <ele>15.9</ele>
        <time>2020-06-16T14:20:46Z</time>
      </trkpt>
      <trkpt lat="49.38854" lon="-1.02803">
        <ele>15.9</ele>
        <time>2020-06-16T14:20:47Z</time>
      </trkpt>
      <trkpt lat="49.38855" lon="-1.02795">
        <ele>15.8</ele>
        <time>2020-06-16T14:20:48Z</time>
      </trkpt>
      <trkpt lat="49.38856" lon="-1.02786">
        <ele>15.7</ele>
        <time>2020-06-16T14:20:49Z</time>
      </trkpt>
      <trkpt lat="49.38857" lon="-1.02777">
        <ele>15.6</ele>
        <time>2020-06-16T14:20:50Z</time>
      </trkpt>
      <trkpt lat="49.38859" lon="-1.02769">
        <ele>15.5</ele>
        <time>2020-06-16T14:20:51Z</time>
      </trkpt>
      <trkpt lat="49.3886" lon="-1.0276">
        <ele>15.5</ele>
        <time>2020-06-16T14:20:52Z</time>
      </trkpt>
      <trkpt lat="49.38862" lon="-1.02751">
        <ele>15.4</ele>
        <time>2020-06-16T14:20:53Z</time>
      </trkpt>
      <trkpt lat="49.38865" lon="-1.02741">
        <ele>15.3</ele>
        <time>2020-06-16T14:20:54Z</time>
      </trkpt>
      <trkpt lat="49.38866" lon="-1.02732">
        <ele>15.3</ele>
        <time>2020-06-16T14:20:55Z</time>
      </trkpt>
      <trkpt lat="49.38868" lon="-1.02722">
        <ele>15.1</ele>
        <time>2020-06-16T14:20:56Z</time>
      </trkpt>
      <trkpt lat="49.3887" lon="-1.02713">
        <ele>15</ele>
        <time>2020-06-16T14:20:57Z</time>
      </trkpt>
      <trkpt lat="49.38872" lon="-1.02704">
        <ele>14.9</ele>
        <time>2020-06-16T14:20:58Z</time>
      </trkpt>
      <trkpt lat="49.38873" lon="-1.02695">
        <ele>14.8</ele>
        <time>2020-06-16T14:20:59Z</time>
      </trkpt>
      <trkpt lat="49.38874" lon="-1.02686">
        <ele>14.8</ele>
        <time>2020-06-16T14:21:00Z</time>
      </trkpt>
      <trkpt lat="49.38876" lon="-1.02677">
        <ele>14.7</ele>
        <time>2020-06-16T14:21:01Z</time>
      </trkpt>
      <trkpt lat="49.38877" lon="-1.02668">
        <ele>14.6</ele>
        <time>2020-06-16T14:21:02Z</time>
      </trkpt>
      <trkpt lat="49.38878" lon="-1.0266">
        <ele>14.5</ele>
        <time>2020-06-16T14:21:03Z</time>
      </trkpt>
      <trkpt lat="49.38879" lon="-1.02651">
        <ele>14.4</ele>
        <time>2020-06-16T14:21:04Z</time>
      </trkpt>
      <trkpt lat="49.3888" lon="-1.02641">
        <ele>14.3</ele>
        <time>2020-06-16T14:21:05Z</time>
      </trkpt>
      <trkpt lat="49.38881" lon="-1.02632">
        <ele>14.2</ele>
        <time>2020-06-16T14:21:06Z</time>
      </trkpt>
      <trkpt lat="49.38881" lon="-1.02623">
        <ele>14</ele>
        <time>2020-06-16T14:21:07Z</time>
      </trkpt>
      <trkpt lat="49.38882" lon="-1.02615">
        <ele>13.9</ele>
        <time>2020-06-16T14:21:08Z</time>
      </trkpt>
      <trkpt lat="49.38883" lon="-1.02606">
        <ele>13.8</ele>
        <time>2020-06-16T14:21:09Z</time>
      </trkpt>
      <trkpt lat="49.38884" lon="-1.02597">
        <ele>13.6</ele>
        <time>2020-06-16T14:21:10Z</time>
      </trkpt>
      <trkpt lat="49.38885" lon="-1.02589">
        <ele>13.5</ele>
        <time>2020-06-16T14:21:11Z</time>
      </trkpt>
      <trkpt lat="49.38886" lon="-1.02581">
        <ele>13.3</ele>
        <time>2020-06-16T14:21:12Z</time>
      </trkpt>
      <trkpt lat="49.38888" lon="-1.02572">
        <ele>13.1</ele>
        <time>2020-06-16T14:21:13Z</time>
      </trkpt>
      <trkpt lat="49.38889" lon="-1.02563">
        <ele>12.8</ele>
        <time>2020-06-16T14:21:14Z</time>
      </trkpt>
      <trkpt lat="49.3889" lon="-1.02552">
        <ele>12.6</ele>
        <time>2020-06-16T14:21:15Z</time>
      </trkpt>
      <trkpt lat="49.38891" lon="-1.02543">
        <ele>12.3</ele>
        <time>2020-06-16T14:21:16Z</time>
      </trkpt>
      <trkpt lat="49.38893" lon="-1.02534">
        <ele>12.1</ele>
        <time>2020-06-16T14:21:17Z</time>
      </trkpt>
      <trkpt lat="49.38894" lon="-1.02525">
        <ele>11.9</ele>
        <time>2020-06-16T14:21:18Z</time>
      </trkpt>
      <trkpt lat="49.38895" lon="-1.02516">
        <ele>11.7</ele>
        <time>2020-06-16T14:21:19Z</time>
      </trkpt>
      <trkpt lat="49.38896" lon="-1.02507">
        <ele>11.4</ele>
        <time>2020-06-16T14:21:20Z</time>
      </trkpt>
      <trkpt lat="49.38896" lon="-1.02496">
        <ele>11.2</ele>
        <time>2020-06-16T14:21:21Z</time>
      </trkpt>
      <trkpt lat="49.38895" lon="-1.02486">
        <ele>11</ele>
        <time>2020-06-16T14:21:22Z</time>
      </trkpt>
      <trkpt lat="49.38895" lon="-1.02475">
        <ele>10.7</ele>
        <time>2020-06-16T14:21:23Z</time>
      </trkpt>
      <trkpt lat="49.38895" lon="-1.02464">
        <ele>10.5</ele>
        <time>2020-06-16T14:21:24Z</time>
      </trkpt>
      <trkpt lat="49.38895" lon="-1.02453">
        <ele>10.2</ele>
        <time>2020-06-16T14:21:25Z</time>
      </trkpt>
      <trkpt lat="49.38895" lon="-1.02443">
        <ele>10</ele>
        <time>2020-06-16T14:21:26Z</time>
      </trkpt>
      <trkpt lat="49.38896" lon="-1.02433">
        <ele>9.8</ele>
        <time>2020-06-16T14:21:27Z</time>
      </trkpt>
      <trkpt lat="49.38897" lon="-1.02422">
        <ele>9.5</ele>
        <time>2020-06-16T14:21:28Z</time>
      </trkpt>
      <trkpt lat="49.38898" lon="-1.02411">
        <ele>9.3</ele>
        <time>2020-06-16T14:21:29Z</time>
      </trkpt>
      <trkpt lat="49.38898" lon="-1.02405">
        <ele>9.1</ele>
        <time>2020-06-16T14:21:30Z</time>
      </trkpt>
      <trkpt lat="49.38899" lon="-1.02396">
        <ele>8.9</ele>
        <time>2020-06-16T14:21:31Z</time>
      </trkpt>
      <trkpt lat="49.38899" lon="-1.02388">
        <ele>8.7</ele>
        <time>2020-06-16T14:21:32Z</time>
      </trkpt>
      <trkpt lat="49.389" lon="-1.0238">
        <ele>8.5</ele>
        <time>2020-06-16T14:21:33Z</time>
      </trkpt>
      <trkpt lat="49.38899" lon="-1.02371">
        <ele>8.3</ele>
        <time>2020-06-16T14:21:34Z</time>
      </trkpt>
      <trkpt lat="49.38899" lon="-1.02362">
        <ele>8.1</ele>
        <time>2020-06-16T14:21:35Z</time>
      </trkpt>
      <trkpt lat="49.389" lon="-1.02352">
        <ele>7.9</ele>
        <time>2020-06-16T14:21:36Z</time>
      </trkpt>
      <trkpt lat="49.38901" lon="-1.02343">
        <ele>7.7</ele>
        <time>2020-06-16T14:21:37Z</time>
      </trkpt>
      <trkpt lat="49.38901" lon="-1.02334">
        <ele>7.5</ele>
        <time>2020-06-16T14:21:38Z</time>
      </trkpt>
      <trkpt lat="49.38902" lon="-1.02326">
        <ele>7.3</ele>
        <time>2020-06-16T14:21:39Z</time>
      </trkpt>
      <trkpt lat="49.38903" lon="-1.02317">
        <ele>7.1</ele>
        <time>2020-06-16T14:21:40Z</time>
      </trkpt>
      <trkpt lat="49.38903" lon="-1.02309">
        <ele>6.9</ele>
        <time>2020-06-16T14:21:41Z</time>
      </trkpt>
      <trkpt lat="49.38905" lon="-1.02298">
        <ele>6.6</ele>
        <time>2020-06-16T14:21:42Z</time>
      </trkpt>
      <trkpt lat="49.38905" lon="-1.02288">
        <ele>6.4</ele>
        <time>2020-06-16T14:21:43Z</time>
      </trkpt>
      <trkpt lat="49.38906" lon="-1.02278">
        <ele>6.1</ele>
        <time>2020-06-16T14:21:44Z</time>
      </trkpt>
      <trkpt lat="49.38907" lon="-1.02265">
        <ele>5.8</ele>
        <time>2020-06-16T14:21:45Z</time>
      </trkpt>
      <trkpt lat="49.38908" lon="-1.02251">
        <ele>5.4</ele>
        <time>2020-06-16T14:21:46Z</time>
      </trkpt>
      <trkpt lat="49.38909" lon="-1.02237">
        <ele>5</ele>
        <time>2020-06-16T14:21:47Z</time>
      </trkpt>
      <trkpt lat="49.3891" lon="-1.02226">
        <ele>4.7</ele>
        <time>2020-06-16T14:21:48Z</time>
      </trkpt>
      <trkpt lat="49.38913" lon="-1.02213">
        <ele>4.4</ele>
        <time>2020-06-16T14:21:49Z</time>
      </trkpt>
      <trkpt lat="49.38915" lon="-1.02201">
        <ele>4</ele>
        <time>2020-06-16T14:21:50Z</time>
      </trkpt>
      <trkpt lat="49.38916" lon="-1.02189">
        <ele>3.7</ele>
        <time>2020-06-16T14:21:51Z</time>
      </trkpt>
      <trkpt lat="49.38918" lon="-1.02179">
        <ele>3.5</ele>
        <time>2020-06-16T14:21:52Z</time>
      </trkpt>
      <trkpt lat="49.3892" lon="-1.02168">
        <ele>3.3</ele>
        <time>2020-06-16T14:21:53Z</time>
      </trkpt>
      <trkpt lat="49.38921" lon="-1.02157">
        <ele>3.1</ele>
        <time>2020-06-16T14:21:54Z</time>
      </trkpt>
      <trkpt lat="49.38923" lon="-1.02146">
        <ele>2.9</ele>
        <time>2020-06-16T14:21:55Z</time>
      </trkpt>
      <trkpt lat="49.38924" lon="-1.02133">
        <ele>2.7</ele>
        <time>2020-06-16T14:21:56Z</time>
      </trkpt>
      <trkpt lat="49.38926" lon="-1.0212">
        <ele>2.4</ele>
        <time>2020-06-16T14:21:57Z</time>
      </trkpt>
      <trkpt lat="49.38928" lon="-1.02106">
        <ele>2.1</ele>
        <time>2020-06-16T14:21:58Z</time>
      </trkpt>
      <trkpt lat="49.38929" lon="-1.02094">
        <ele>1.9</ele>
        <time>2020-06-16T14:21:59Z</time>
      </trkpt>
      <trkpt lat="49.38931" lon="-1.02084">
        <ele>1.8</ele>
        <time>2020-06-16T14:22:00Z</time>
      </trkpt>
      <trkpt lat="49.38932" lon="-1.02074">
        <ele>1.7</ele>
        <time>2020-06-16T14:22:01Z</time>
      </trkpt>
      <trkpt lat="49.38934" lon="-1.02062">
        <ele>1.5</ele>
        <time>2020-06-16T14:22:02Z</time>
      </trkpt>
      <trkpt lat="49.38935" lon="-1.02049">
        <ele>1.5</ele>
        <time>2020-06-16T14:22:03Z</time>
      </trkpt>
      <trkpt lat="49.38936" lon="-1.02039">
        <ele>1.5</ele>
        <time>2020-06-16T14:22:04Z</time>
      </trkpt>
      <trkpt lat="49.38937" lon="-1.02029">
        <ele>1.5</ele>
        <time>2020-06-16T14:22:05Z</time>
      </trkpt>
      <trkpt lat="49.38939" lon="-1.02019">
        <ele>1.5</ele>
        <time>2020-06-16T14:22:06Z</time>
      </trkpt>
      <trkpt lat="49.38941" lon="-1.0201">
        <ele>1.6</ele>
        <time>2020-06-16T14:22:07Z</time>
      </trkpt>
      <trkpt lat="49.38943" lon="-1.02">
        <ele>1.7</ele>
        <time>2020-06-16T14:22:08Z</time>
      </trkpt>
      <trkpt lat="49.38945" lon="-1.01989">
        <ele>1.8</ele>
        <time>2020-06-16T14:22:09Z</time>
      </trkpt>
      <trkpt lat="49.38947" lon="-1.0198">
        <ele>1.8</ele>
        <time>2020-06-16T14:22:10Z</time>
      </trkpt>
      <trkpt lat="49.38949" lon="-1.0197">
        <ele>1.9</ele>
        <time>2020-06-16T14:22:11Z</time>
      </trkpt>
      <trkpt lat="49.38951" lon="-1.01962">
        <ele>2.1</ele>
        <time>2020-06-16T14:22:12Z</time>
      </trkpt>
      <trkpt lat="49.38952" lon="-1.01953">
        <ele>2.2</ele>
        <time>2020-06-16T14:22:13Z</time>
      </trkpt>
      <trkpt lat="49.38953" lon="-1.01945">
        <ele>2.3</ele>
        <time>2020-06-16T14:22:14Z</time>
      </trkpt>
      <trkpt lat="49.38955" lon="-1.01936">
        <ele>2.5</ele>
        <time>2020-06-16T14:22:15Z</time>
      </trkpt>
      <trkpt lat="49.38957" lon="-1.01928">
        <ele>2.7</ele>
        <time>2020-06-16T14:22:16Z</time>
      </trkpt>
      <trkpt lat="49.38958" lon="-1.0192">
        <ele>2.8</ele>
        <time>2020-06-16T14:22:17Z</time>
      </trkpt>
      <trkpt lat="49.3896" lon="-1.01911">
        <ele>3</ele>
        <time>2020-06-16T14:22:18Z</time>
      </trkpt>
      <trkpt lat="49.38962" lon="-1.01904">
        <ele>3.1</ele>
        <time>2020-06-16T14:22:19Z</time>
      </trkpt>
      <trkpt lat="49.38963" lon="-1.01897">
        <ele>3.3</ele>
        <time>2020-06-16T14:22:20Z</time>
      </trkpt>
      <trkpt lat="49.38965" lon="-1.0189">
        <ele>3.5</ele>
        <time>2020-06-16T14:22:21Z</time>
      </trkpt>
      <trkpt lat="49.38967" lon="-1.01884">
        <ele>3.6</ele>
        <time>2020-06-16T14:22:22Z</time>
      </trkpt>
      <trkpt lat="49.38969" lon="-1.01878">
        <ele>3.8</ele>
        <time>2020-06-16T14:22:23Z</time>
      </trkpt>
      <trkpt lat="49.38971" lon="-1.0187">
        <ele>4</ele>
        <time>2020-06-16T14:22:24Z</time>
      </trkpt>
      <trkpt lat="49.38973" lon="-1.01863">
        <ele>4.1</ele>
        <time>2020-06-16T14:22:25Z</time>
      </trkpt>
      <trkpt lat="49.38975" lon="-1.01855">
        <ele>4.3</ele>
        <time>2020-06-16T14:22:26Z</time>
      </trkpt>
      <trkpt lat="49.38977" lon="-1.01849">
        <ele>4.5</ele>
        <time>2020-06-16T14:22:27Z</time>
      </trkpt>
      <trkpt lat="49.38979" lon="-1.01843">
        <ele>4.7</ele>
        <time>2020-06-16T14:22:28Z</time>
      </trkpt>
      <trkpt lat="49.3898" lon="-1.01836">
        <ele>4.9</ele>
        <time>2020-06-16T14:22:29Z</time>
      </trkpt>
      <trkpt lat="49.38982" lon="-1.01828">
        <ele>5.1</ele>
        <time>2020-06-16T14:22:30Z</time>
      </trkpt>
      <trkpt lat="49.38984" lon="-1.01821">
        <ele>5.3</ele>
        <time>2020-06-16T14:22:31Z</time>
      </trkpt>
      <trkpt lat="49.38986" lon="-1.01814">
        <ele>5.5</ele>
        <time>2020-06-16T14:22:32Z</time>
      </trkpt>
      <trkpt lat="49.38988" lon="-1.01807">
        <ele>5.7</ele>
        <time>2020-06-16T14:22:33Z</time>
      </trkpt>
      <trkpt lat="49.38989" lon="-1.01799">
        <ele>5.9</ele>
        <time>2020-06-16T14:22:34Z</time>
      </trkpt>
      <trkpt lat="49.38991" lon="-1.01791">
        <ele>6.2</ele>
        <time>2020-06-16T14:22:35Z</time>
      </trkpt>
      <trkpt lat="49.38994" lon="-1.01784">
        <ele>6.4</ele>
        <time>2020-06-16T14:22:36Z</time>
      </trkpt>
      <trkpt lat="49.38996" lon="-1.01776">
        <ele>6.6</ele>
        <time>2020-06-16T14:22:37Z</time>
      </trkpt>
      <trkpt lat="49.38998" lon="-1.01768">
        <ele>6.9</ele>
        <time>2020-06-16T14:22:38Z</time>
      </trkpt>
      <trkpt lat="49.39" lon="-1.01761">
        <ele>7.1</ele>
        <time>2020-06-16T14:22:39Z</time>
      </trkpt>
      <trkpt lat="49.39002" lon="-1.01754">
        <ele>7.3</ele>
        <time>2020-06-16T14:22:40Z</time>
      </trkpt>
      <trkpt lat="49.39003" lon="-1.01747">
        <ele>7.5</ele>
        <time>2020-06-16T14:22:41Z</time>
      </trkpt>
      <trkpt lat="49.39005" lon="-1.0174">
        <ele>7.7</ele>
        <time>2020-06-16T14:22:42Z</time>
      </trkpt>
      <trkpt lat="49.39007" lon="-1.01733">
        <ele>7.8</ele>
        <time>2020-06-16T14:22:43Z</time>
      </trkpt>
      <trkpt lat="49.39009" lon="-1.01726">
        <ele>8</ele>
        <time>2020-06-16T14:22:44Z</time>
      </trkpt>
      <trkpt lat="49.39011" lon="-1.01719">
        <ele>8.2</ele>
        <time>2020-06-16T14:22:45Z</time>
      </trkpt>
      <trkpt lat="49.39013" lon="-1.01711">
        <ele>8.4</ele>
        <time>2020-06-16T14:22:46Z</time>
      </trkpt>
      <trkpt lat="49.39015" lon="-1.01704">
        <ele>8.6</ele>
        <time>2020-06-16T14:22:47Z</time>
      </trkpt>
      <trkpt lat="49.39017" lon="-1.01698">
        <ele>8.7</ele>
        <time>2020-06-16T14:22:48Z</time>
      </trkpt>
      <trkpt lat="49.39018" lon="-1.01691">
        <ele>8.9</ele>
        <time>2020-06-16T14:22:49Z</time>
      </trkpt>
      <trkpt lat="49.39019" lon="-1.01684">
        <ele>9.1</ele>
        <time>2020-06-16T14:22:50Z</time>
      </trkpt>
      <trkpt lat="49.39021" lon="-1.01677">
        <ele>9.2</ele>
        <time>2020-06-16T14:22:51Z</time>
      </trkpt>
      <trkpt lat="49.39022" lon="-1.0167">
        <ele>9.4</ele>
        <time>2020-06-16T14:22:52Z</time>
      </trkpt>
      <trkpt lat="49.39024" lon="-1.01663">
        <ele>9.5</ele>
        <time>2020-06-16T14:22:53Z</time>
      </trkpt>
      <trkpt lat="49.39025" lon="-1.01657">
        <ele>9.6</ele>
        <time>2020-06-16T14:22:54Z</time>
      </trkpt>
      <trkpt lat="49.39027" lon="-1.0165">
        <ele>9.7</ele>
        <time>2020-06-16T14:22:55Z</time>
      </trkpt>
      <trkpt lat="49.39029" lon="-1.01643">
        <ele>9.9</ele>
        <time>2020-06-16T14:22:56Z</time>
      </trkpt>
      <trkpt lat="49.3903" lon="-1.01636">
        <ele>10</ele>
        <time>2020-06-16T14:22:57Z</time>
      </trkpt>
      <trkpt lat="49.39032" lon="-1.01629">
        <ele>10</ele>
        <time>2020-06-16T14:22:58Z</time>
      </trkpt>
      <trkpt lat="49.39034" lon="-1.01623">
        <ele>10.1</ele>
        <time>2020-06-16T14:22:59Z</time>
      </trkpt>
      <trkpt lat="49.39036" lon="-1.01616">
        <ele>10.2</ele>
        <time>2020-06-16T14:23:00Z</time>
      </trkpt>
      <trkpt lat="49.39038" lon="-1.01609">
        <ele>10.3</ele>
        <time>2020-06-16T14:23:01Z</time>
      </trkpt>
      <trkpt lat="49.39039" lon="-1.01602">
        <ele>10.4</ele>
        <time>2020-06-16T14:23:02Z</time>
      </trkpt>
      <trkpt lat="49.39041" lon="-1.01596">
        <ele>10.4</ele>
        <time>2020-06-16T14:23:03Z</time>
      </trkpt>
      <trkpt lat="49.39043" lon="-1.0159">
        <ele>10.5</ele>
        <time>2020-06-16T14:23:04Z</time>
      </trkpt>
      <trkpt lat="49.39044" lon="-1.01584">
        <ele>10.6</ele>
        <time>2020-06-16T14:23:05Z</time>
      </trkpt>
      <trkpt lat="49.39046" lon="-1.01578">
        <ele>10.7</ele>
        <time>2020-06-16T14:23:06Z</time>
      </trkpt>
      <trkpt lat="49.39048" lon="-1.01572">
        <ele>10.8</ele>
        <time>2020-06-16T14:23:07Z</time>
      </trkpt>
      <trkpt lat="49.3905" lon="-1.01566">
        <ele>10.9</ele>
        <time>2020-06-16T14:23:08Z</time>
      </trkpt>
      <trkpt lat="49.39051" lon="-1.0156">
        <ele>11</ele>
        <time>2020-06-16T14:23:09Z</time>
      </trkpt>
      <trkpt lat="49.39053" lon="-1.01553">
        <ele>11</ele>
        <time>2020-06-16T14:23:10Z</time>
      </trkpt>
      <trkpt lat="49.39055" lon="-1.01547">
        <ele>11.1</ele>
        <time>2020-06-16T14:23:11Z</time>
      </trkpt>
      <trkpt lat="49.39057" lon="-1.0154">
        <ele>11.2</ele>
        <time>2020-06-16T14:23:12Z</time>
      </trkpt>
      <trkpt lat="49.39059" lon="-1.01534">
        <ele>11.3</ele>
        <time>2020-06-16T14:23:13Z</time>
      </trkpt>
      <trkpt lat="49.39061" lon="-1.01527">
        <ele>11.4</ele>
        <time>2020-06-16T14:23:14Z</time>
      </trkpt>
      <trkpt lat="49.39063" lon="-1.01521">
        <ele>11.5</ele>
        <time>2020-06-16T14:23:15Z</time>
      </trkpt>
      <trkpt lat="49.39065" lon="-1.01514">
        <ele>11.6</ele>
        <time>2020-06-16T14:23:16Z</time>
      </trkpt>
      <trkpt lat="49.39067" lon="-1.01508">
        <ele>11.7</ele>
        <time>2020-06-16T14:23:17Z</time>
      </trkpt>
      <trkpt lat="49.39069" lon="-1.01502">
        <ele>11.7</ele>
        <time>2020-06-16T14:23:18Z</time>
      </trkpt>
      <trkpt lat="49.39071" lon="-1.01496">
        <ele>11.8</ele>
        <time>2020-06-16T14:23:19Z</time>
      </trkpt>
      <trkpt lat="49.39073" lon="-1.01491">
        <ele>11.8</ele>
        <time>2020-06-16T14:23:20Z</time>
      </trkpt>
      <trkpt lat="49.39075" lon="-1.01484">
        <ele>11.9</ele>
        <time>2020-06-16T14:23:21Z</time>
      </trkpt>
      <trkpt lat="49.39077" lon="-1.01477">
        <ele>11.9</ele>
        <time>2020-06-16T14:23:22Z</time>
      </trkpt>
      <trkpt lat="49.39079" lon="-1.01471">
        <ele>12</ele>
        <time>2020-06-16T14:23:23Z</time>
      </trkpt>
      <trkpt lat="49.39082" lon="-1.01464">
        <ele>12</ele>
        <time>2020-06-16T14:23:24Z</time>
      </trkpt>
      <trkpt lat="49.39084" lon="-1.01459">
        <ele>12.1</ele>
        <time>2020-06-16T14:23:25Z</time>
      </trkpt>
      <trkpt lat="49.39086" lon="-1.01453">
        <ele>12.1</ele>
        <time>2020-06-16T14:23:26Z</time>
      </trkpt>
      <trkpt lat="49.39088" lon="-1.01447">
        <ele>12.2</ele>
        <time>2020-06-16T14:23:27Z</time>
      </trkpt>
      <trkpt lat="49.3909" lon="-1.0144">
        <ele>12.3</ele>
        <time>2020-06-16T14:23:28Z</time>
      </trkpt>
      <trkpt lat="49.39091" lon="-1.01434">
        <ele>12.4</ele>
        <time>2020-06-16T14:23:29Z</time>
      </trkpt>
      <trkpt lat="49.39093" lon="-1.01427">
        <ele>12.5</ele>
        <time>2020-06-16T14:23:30Z</time>
      </trkpt>
      <trkpt lat="49.39094" lon="-1.0142">
        <ele>12.6</ele>
        <time>2020-06-16T14:23:31Z</time>
      </trkpt>
      <trkpt lat="49.39096" lon="-1.01414">
        <ele>12.7</ele>
        <time>2020-06-16T14:23:32Z</time>
      </trkpt>
      <trkpt lat="49.39097" lon="-1.01407">
        <ele>12.7</ele>
        <time>2020-06-16T14:23:33Z</time>
      </trkpt>
      <trkpt lat="49.39099" lon="-1.014">
        <ele>12.8</ele>
        <time>2020-06-16T14:23:34Z</time>
      </trkpt>
      <trkpt lat="49.39101" lon="-1.01394">
        <ele>12.9</ele>
        <time>2020-06-16T14:23:35Z</time>
      </trkpt>
      <trkpt lat="49.39104" lon="-1.01387">
        <ele>13</ele>
        <time>2020-06-16T14:23:36Z</time>
      </trkpt>
      <trkpt lat="49.39106" lon="-1.0138">
        <ele>13</ele>
        <time>2020-06-16T14:23:37Z</time>
      </trkpt>
      <trkpt lat="49.39108" lon="-1.01374">
        <ele>13.1</ele>
        <time>2020-06-16T14:23:38Z</time>
      </trkpt>
      <trkpt lat="49.3911" lon="-1.01368">
        <ele>13.2</ele>
        <time>2020-06-16T14:23:39Z</time>
      </trkpt>
      <trkpt lat="49.39112" lon="-1.01363">
        <ele>13.2</ele>
        <time>2020-06-16T14:23:40Z</time>
      </trkpt>
      <trkpt lat="49.39114" lon="-1.01357">
        <ele>13.3</ele>
        <time>2020-06-16T14:23:41Z</time>
      </trkpt>
      <trkpt lat="49.39116" lon="-1.0135">
        <ele>13.4</ele>
        <time>2020-06-16T14:23:42Z</time>
      </trkpt>
      <trkpt lat="49.39117" lon="-1.01344">
        <ele>13.4</ele>
        <time>2020-06-16T14:23:43Z</time>
      </trkpt>
      <trkpt lat="49.39119" lon="-1.01337">
        <ele>13.5</ele>
        <time>2020-06-16T14:23:44Z</time>
      </trkpt>
      <trkpt lat="49.39121" lon="-1.0133">
        <ele>13.5</ele>
        <time>2020-06-16T14:23:45Z</time>
      </trkpt>
      <trkpt lat="49.39123" lon="-1.01322">
        <ele>13.6</ele>
        <time>2020-06-16T14:23:46Z</time>
      </trkpt>
      <trkpt lat="49.39124" lon="-1.01315">
        <ele>13.7</ele>
        <time>2020-06-16T14:23:47Z</time>
      </trkpt>
      <trkpt lat="49.39125" lon="-1.01307">
        <ele>13.7</ele>
        <time>2020-06-16T14:23:48Z</time>
      </trkpt>
      <trkpt lat="49.39127" lon="-1.01301">
        <ele>13.8</ele>
        <time>2020-06-16T14:23:49Z</time>
      </trkpt>
      <trkpt lat="49.39128" lon="-1.01294">
        <ele>13.9</ele>
        <time>2020-06-16T14:23:50Z</time>
      </trkpt>
      <trkpt lat="49.3913" lon="-1.01287">
        <ele>14</ele>
        <time>2020-06-16T14:23:51Z</time>
      </trkpt>
      <trkpt lat="49.39131" lon="-1.0128">
        <ele>14.1</ele>
        <time>2020-06-16T14:23:52Z</time>
      </trkpt>
      <trkpt lat="49.39133" lon="-1.01273">
        <ele>14.3</ele>
        <time>2020-06-16T14:23:53Z</time>
      </trkpt>
      <trkpt lat="49.39135" lon="-1.01266">
        <ele>14.4</ele>
        <time>2020-06-16T14:23:54Z</time>
      </trkpt>
      <trkpt lat="49.39137" lon="-1.01259">
        <ele>14.5</ele>
        <time>2020-06-16T14:23:55Z</time>
      </trkpt>
      <trkpt lat="49.39139" lon="-1.01252">
        <ele>14.6</ele>
        <time>2020-06-16T14:23:56Z</time>
      </trkpt>
      <trkpt lat="49.39141" lon="-1.01245">
        <ele>14.7</ele>
        <time>2020-06-16T14:23:57Z</time>
      </trkpt>
      <trkpt lat="49.39144" lon="-1.01237">
        <ele>14.8</ele>
        <time>2020-06-16T14:23:58Z</time>
      </trkpt>
      <trkpt lat="49.39146" lon="-1.0123">
        <ele>14.9</ele>
        <time>2020-06-16T14:23:59Z</time>
      </trkpt>
      <trkpt lat="49.39147" lon="-1.01222">
        <ele>15</ele>
        <time>2020-06-16T14:24:00Z</time>
      </trkpt>
      <trkpt lat="49.39149" lon="-1.01215">
        <ele>15.2</ele>
        <time>2020-06-16T14:24:01Z</time>
      </trkpt>
      <trkpt lat="49.39151" lon="-1.01208">
        <ele>15.3</ele>
        <time>2020-06-16T14:24:02Z</time>
      </trkpt>
      <trkpt lat="49.39153" lon="-1.01201">
        <ele>15.4</ele>
        <time>2020-06-16T14:24:03Z</time>
      </trkpt>
      <trkpt lat="49.39155" lon="-1.01193">
        <ele>15.5</ele>
        <time>2020-06-16T14:24:04Z</time>
      </trkpt>
      <trkpt lat="49.39157" lon="-1.01186">
        <ele>15.6</ele>
        <time>2020-06-16T14:24:05Z</time>
      </trkpt>
      <trkpt lat="49.39158" lon="-1.01178">
        <ele>15.7</ele>
        <time>2020-06-16T14:24:06Z</time>
      </trkpt>
      <trkpt lat="49.3916" lon="-1.01171">
        <ele>15.8</ele>
        <time>2020-06-16T14:24:07Z</time>
      </trkpt>
      <trkpt lat="49.39162" lon="-1.01163">
        <ele>15.9</ele>
        <time>2020-06-16T14:24:08Z</time>
      </trkpt>
      <trkpt lat="49.39164" lon="-1.01156">
        <ele>16.1</ele>
        <time>2020-06-16T14:24:09Z</time>
      </trkpt>
      <trkpt lat="49.39166" lon="-1.01148">
        <ele>16.2</ele>
        <time>2020-06-16T14:24:10Z</time>
      </trkpt>
      <trkpt lat="49.39168" lon="-1.01141">
        <ele>16.3</ele>
        <time>2020-06-16T14:24:11Z</time>
      </trkpt>
      <trkpt lat="49.39169" lon="-1.01134">
        <ele>16.4</ele>
        <time>2020-06-16T14:24:12Z</time>
      </trkpt>
      <trkpt lat="49.39172" lon="-1.01128">
        <ele>16.5</ele>
        <time>2020-06-16T14:24:13Z</time>
      </trkpt>
      <trkpt lat="49.39174" lon="-1.01121">
        <ele>16.6</ele>
        <time>2020-06-16T14:24:14Z</time>
      </trkpt>
      <trkpt lat="49.39176" lon="-1.01114">
        <ele>16.7</ele>
        <time>2020-06-16T14:24:15Z</time>
      </trkpt>
      <trkpt lat="49.39178" lon="-1.01108">
        <ele>16.8</ele>
        <time>2020-06-16T14:24:16Z</time>
      </trkpt>
      <trkpt lat="49.3918" lon="-1.01102">
        <ele>16.9</ele>
        <time>2020-06-16T14:24:17Z</time>
      </trkpt>
      <trkpt lat="49.39182" lon="-1.01096">
        <ele>17</ele>
        <time>2020-06-16T14:24:18Z</time>
      </trkpt>
      <trkpt lat="49.39183" lon="-1.0109">
        <ele>17.1</ele>
        <time>2020-06-16T14:24:19Z</time>
      </trkpt>
      <trkpt lat="49.39185" lon="-1.01084">
        <ele>17.2</ele>
        <time>2020-06-16T14:24:20Z</time>
      </trkpt>
      <trkpt lat="49.39187" lon="-1.01077">
        <ele>17.3</ele>
        <time>2020-06-16T14:24:21Z</time>
      </trkpt>
      <trkpt lat="49.39189" lon="-1.01071">
        <ele>17.5</ele>
        <time>2020-06-16T14:24:22Z</time>
      </trkpt>
      <trkpt lat="49.3919" lon="-1.01065">
        <ele>17.6</ele>
        <time>2020-06-16T14:24:23Z</time>
      </trkpt>
      <trkpt lat="49.39192" lon="-1.0106">
        <ele>17.7</ele>
        <time>2020-06-16T14:24:24Z</time>
      </trkpt>
      <trkpt lat="49.39193" lon="-1.01054">
        <ele>17.8</ele>
        <time>2020-06-16T14:24:25Z</time>
      </trkpt>
      <trkpt lat="49.39195" lon="-1.01047">
        <ele>17.9</ele>
        <time>2020-06-16T14:24:26Z</time>
      </trkpt>
      <trkpt lat="49.39197" lon="-1.01041">
        <ele>18</ele>
        <time>2020-06-16T14:24:27Z</time>
      </trkpt>
      <trkpt lat="49.39198" lon="-1.01036">
        <ele>18.1</ele>
        <time>2020-06-16T14:24:28Z</time>
      </trkpt>
      <trkpt lat="49.392" lon="-1.0103">
        <ele>18.2</ele>
        <time>2020-06-16T14:24:29Z</time>
      </trkpt>
      <trkpt lat="49.39201" lon="-1.01024">
        <ele>18.3</ele>
        <time>2020-06-16T14:24:30Z</time>
      </trkpt>
      <trkpt lat="49.39203" lon="-1.01018">
        <ele>18.4</ele>
        <time>2020-06-16T14:24:31Z</time>
      </trkpt>
      <trkpt lat="49.39205" lon="-1.01011">
        <ele>18.5</ele>
        <time>2020-06-16T14:24:32Z</time>
      </trkpt>
      <trkpt lat="49.39206" lon="-1.01004">
        <ele>18.5</ele>
        <time>2020-06-16T14:24:33Z</time>
      </trkpt>
      <trkpt lat="49.39208" lon="-1.00996">
        <ele>18.5</ele>
        <time>2020-06-16T14:24:34Z</time>
      </trkpt>
      <trkpt lat="49.3921" lon="-1.0099">
        <ele>18.4</ele>
        <time>2020-06-16T14:24:35Z</time>
      </trkpt>
      <trkpt lat="49.39212" lon="-1.00983">
        <ele>18.2</ele>
        <time>2020-06-16T14:24:36Z</time>
      </trkpt>
      <trkpt lat="49.39214" lon="-1.00977">
        <ele>18.1</ele>
        <time>2020-06-16T14:24:37Z</time>
      </trkpt>
      <trkpt lat="49.39216" lon="-1.0097">
        <ele>18.2</ele>
        <time>2020-06-16T14:24:38Z</time>
      </trkpt>
      <trkpt lat="49.39218" lon="-1.00963">
        <ele>18.3</ele>
        <time>2020-06-16T14:24:39Z</time>
      </trkpt>
      <trkpt lat="49.3922" lon="-1.00957">
        <ele>18.4</ele>
        <time>2020-06-16T14:24:40Z</time>
      </trkpt>
      <trkpt lat="49.39222" lon="-1.0095">
        <ele>18.5</ele>
        <time>2020-06-16T14:24:41Z</time>
      </trkpt>
      <trkpt lat="49.39224" lon="-1.00944">
        <ele>18.7</ele>
        <time>2020-06-16T14:24:42Z</time>
      </trkpt>
      <trkpt lat="49.39225" lon="-1.00938">
        <ele>18.8</ele>
        <time>2020-06-16T14:24:43Z</time>
      </trkpt>
      <trkpt lat="49.39226" lon="-1.00932">
        <ele>18.9</ele>
        <time>2020-06-16T14:24:44Z</time>
      </trkpt>
      <trkpt lat="49.39228" lon="-1.00925">
        <ele>19</ele>
        <time>2020-06-16T14:24:45Z</time>
      </trkpt>
      <trkpt lat="49.39229" lon="-1.00919">
        <ele>19.1</ele>
        <time>2020-06-16T14:24:46Z</time>
      </trkpt>
      <trkpt lat="49.39231" lon="-1.00913">
        <ele>19.2</ele>
        <time>2020-06-16T14:24:47Z</time>
      </trkpt>
      <trkpt lat="49.39233" lon="-1.00907">
        <ele>19.3</ele>
        <time>2020-06-16T14:24:48Z</time>
      </trkpt>
      <trkpt lat="49.39234" lon="-1.00901">
        <ele>19.4</ele>
        <time>2020-06-16T14:24:49Z</time>
      </trkpt>
      <trkpt lat="49.39235" lon="-1.00895">
        <ele>19.4</ele>
        <time>2020-06-16T14:24:50Z</time>
      </trkpt>
      <trkpt lat="49.39236" lon="-1.00888">
        <ele>19.5</ele>
        <time>2020-06-16T14:24:51Z</time>
      </trkpt>
      <trkpt lat="49.39238" lon="-1.00882">
        <ele>19.6</ele>
        <time>2020-06-16T14:24:52Z</time>
      </trkpt>
      <trkpt lat="49.39239" lon="-1.00877">
        <ele>19.7</ele>
        <time>2020-06-16T14:24:53Z</time>
      </trkpt>
      <trkpt lat="49.3924" lon="-1.0087">
        <ele>19.8</ele>
        <time>2020-06-16T14:24:54Z</time>
      </trkpt>
      <trkpt lat="49.39241" lon="-1.00863">
        <ele>19.9</ele>
        <time>2020-06-16T14:24:55Z</time>
      </trkpt>
      <trkpt lat="49.39243" lon="-1.00857">
        <ele>20</ele>
        <time>2020-06-16T14:24:56Z</time>
      </trkpt>
      <trkpt lat="49.39244" lon="-1.00851">
        <ele>20.1</ele>
        <time>2020-06-16T14:24:57Z</time>
      </trkpt>
      <trkpt lat="49.39246" lon="-1.00845">
        <ele>20.2</ele>
        <time>2020-06-16T14:24:58Z</time>
      </trkpt>
      <trkpt lat="49.39247" lon="-1.00839">
        <ele>20.3</ele>
        <time>2020-06-16T14:24:59Z</time>
      </trkpt>
      <trkpt lat="49.39249" lon="-1.00833">
        <ele>20.4</ele>
        <time>2020-06-16T14:25:00Z</time>
      </trkpt>
      <trkpt lat="49.39251" lon="-1.00826">
        <ele>20.5</ele>
        <time>2020-06-16T14:25:01Z</time>
      </trkpt>
      <trkpt lat="49.39254" lon="-1.0082">
        <ele>20.5</ele>
        <time>2020-06-16T14:25:02Z</time>
      </trkpt>
      <trkpt lat="49.39256" lon="-1.00815">
        <ele>20.6</ele>
        <time>2020-06-16T14:25:03Z</time>
      </trkpt>
      <trkpt lat="49.39257" lon="-1.00809">
        <ele>20.7</ele>
        <time>2020-06-16T14:25:04Z</time>
      </trkpt>
      <trkpt lat="49.39259" lon="-1.00803">
        <ele>20.8</ele>
        <time>2020-06-16T14:25:05Z</time>
      </trkpt>
      <trkpt lat="49.39261" lon="-1.00797">
        <ele>20.9</ele>
        <time>2020-06-16T14:25:06Z</time>
      </trkpt>
      <trkpt lat="49.39263" lon="-1.00791">
        <ele>21</ele>
        <time>2020-06-16T14:25:07Z</time>
      </trkpt>
      <trkpt lat="49.39265" lon="-1.00785">
        <ele>21.1</ele>
        <time>2020-06-16T14:25:08Z</time>
      </trkpt>
      <trkpt lat="49.39266" lon="-1.00779">
        <ele>21.2</ele>
        <time>2020-06-16T14:25:09Z</time>
      </trkpt>
      <trkpt lat="49.39267" lon="-1.00774">
        <ele>21.2</ele>
        <time>2020-06-16T14:25:10Z</time>
      </trkpt>
      <trkpt lat="49.39268" lon="-1.00767">
        <ele>21.3</ele>
        <time>2020-06-16T14:25:11Z</time>
      </trkpt>
      <trkpt lat="49.39269" lon="-1.00761">
        <ele>21.4</ele>
        <time>2020-06-16T14:25:12Z</time>
      </trkpt>
      <trkpt lat="49.39269" lon="-1.00755">
        <ele>21.5</ele>
        <time>2020-06-16T14:25:13Z</time>
      </trkpt>
      <trkpt lat="49.39269" lon="-1.00749">
        <ele>21.7</ele>
        <time>2020-06-16T14:25:14Z</time>
      </trkpt>
      <trkpt lat="49.39268" lon="-1.00742">
        <ele>21.8</ele>
        <time>2020-06-16T14:25:15Z</time>
      </trkpt>
      <trkpt lat="49.39267" lon="-1.00736">
        <ele>21.9</ele>
        <time>2020-06-16T14:25:16Z</time>
      </trkpt>
      <trkpt lat="49.39266" lon="-1.0073">
        <ele>22</ele>
        <time>2020-06-16T14:25:17Z</time>
      </trkpt>
      <trkpt lat="49.39265" lon="-1.00723">
        <ele>22</ele>
        <time>2020-06-16T14:25:18Z</time>
      </trkpt>
      <trkpt lat="49.39264" lon="-1.00717">
        <ele>22</ele>
        <time>2020-06-16T14:25:19Z</time>
      </trkpt>
      <trkpt lat="49.39263" lon="-1.0071">
        <ele>22.1</ele>
        <time>2020-06-16T14:25:20Z</time>
      </trkpt>
      <trkpt lat="49.39263" lon="-1.00704">
        <ele>22.1</ele>
        <time>2020-06-16T14:25:21Z</time>
      </trkpt>
      <trkpt lat="49.39262" lon="-1.00697">
        <ele>22.1</ele>
        <time>2020-06-16T14:25:22Z</time>
      </trkpt>
      <trkpt lat="49.39262" lon="-1.0069">
        <ele>22.1</ele>
        <time>2020-06-16T14:25:23Z</time>
      </trkpt>
      <trkpt lat="49.39261" lon="-1.00683">
        <ele>22.1</ele>
        <time>2020-06-16T14:25:24Z</time>
      </trkpt>
      <trkpt lat="49.3926" lon="-1.00676">
        <ele>22.1</ele>
        <time>2020-06-16T14:25:25Z</time>
      </trkpt>
      <trkpt lat="49.39258" lon="-1.00669">
        <ele>22.1</ele>
        <time>2020-06-16T14:25:26Z</time>
      </trkpt>
      <trkpt lat="49.39257" lon="-1.00663">
        <ele>22.1</ele>
        <time>2020-06-16T14:25:27Z</time>
      </trkpt>
      <trkpt lat="49.39255" lon="-1.00656">
        <ele>22.1</ele>
        <time>2020-06-16T14:25:28Z</time>
      </trkpt>
      <trkpt lat="49.39253" lon="-1.0065">
        <ele>22.1</ele>
        <time>2020-06-16T14:25:29Z</time>
      </trkpt>
      <trkpt lat="49.39252" lon="-1.00644">
        <ele>22.1</ele>
        <time>2020-06-16T14:25:30Z</time>
      </trkpt>
      <trkpt lat="49.3925" lon="-1.00637">
        <ele>22</ele>
        <time>2020-06-16T14:25:31Z</time>
      </trkpt>
      <trkpt lat="49.39248" lon="-1.00631">
        <ele>21.9</ele>
        <time>2020-06-16T14:25:32Z</time>
      </trkpt>
      <trkpt lat="49.39246" lon="-1.00624">
        <ele>21.9</ele>
        <time>2020-06-16T14:25:33Z</time>
      </trkpt>
      <trkpt lat="49.39244" lon="-1.00616">
        <ele>21.8</ele>
        <time>2020-06-16T14:25:34Z</time>
      </trkpt>
      <trkpt lat="49.39243" lon="-1.00608">
        <ele>21.7</ele>
        <time>2020-06-16T14:25:35Z</time>
      </trkpt>
      <trkpt lat="49.39241" lon="-1.00601">
        <ele>21.6</ele>
        <time>2020-06-16T14:25:36Z</time>
      </trkpt>
      <trkpt lat="49.39239" lon="-1.00594">
        <ele>21.5</ele>
        <time>2020-06-16T14:25:37Z</time>
      </trkpt>
      <trkpt lat="49.39237" lon="-1.00586">
        <ele>21.4</ele>
        <time>2020-06-16T14:25:38Z</time>
      </trkpt>
      <trkpt lat="49.39235" lon="-1.00578">
        <ele>21.3</ele>
        <time>2020-06-16T14:25:39Z</time>
      </trkpt>
      <trkpt lat="49.39233" lon="-1.00571">
        <ele>21.3</ele>
        <time>2020-06-16T14:25:40Z</time>
      </trkpt>
      <trkpt lat="49.39232" lon="-1.00563">
        <ele>21.2</ele>
        <time>2020-06-16T14:25:41Z</time>
      </trkpt>
      <trkpt lat="49.3923" lon="-1.00557">
        <ele>21.1</ele>
        <time>2020-06-16T14:25:42Z</time>
      </trkpt>
      <trkpt lat="49.39228" lon="-1.00551">
        <ele>21</ele>
        <time>2020-06-16T14:25:43Z</time>
      </trkpt>
      <trkpt lat="49.39226" lon="-1.00545">
        <ele>21</ele>
        <time>2020-06-16T14:25:44Z</time>
      </trkpt>
      <trkpt lat="49.39224" lon="-1.00538">
        <ele>20.9</ele>
        <time>2020-06-16T14:25:45Z</time>
      </trkpt>
      <trkpt lat="49.39222" lon="-1.00532">
        <ele>20.8</ele>
        <time>2020-06-16T14:25:46Z</time>
      </trkpt>
      <trkpt lat="49.3922" lon="-1.00524">
        <ele>20.8</ele>
        <time>2020-06-16T14:25:47Z</time>
      </trkpt>
      <trkpt lat="49.39218" lon="-1.00517">
        <ele>20.7</ele>
        <time>2020-06-16T14:25:48Z</time>
      </trkpt>
      <trkpt lat="49.39216" lon="-1.00508">
        <ele>20.6</ele>
        <time>2020-06-16T14:25:49Z</time>
      </trkpt>
      <trkpt lat="49.39213" lon="-1.005">
        <ele>20.5</ele>
        <time>2020-06-16T14:25:50Z</time>
      </trkpt>
      <trkpt lat="49.39211" lon="-1.00492">
        <ele>20.4</ele>
        <time>2020-06-16T14:25:51Z</time>
      </trkpt>
      <trkpt lat="49.39208" lon="-1.00485">
        <ele>20.3</ele>
        <time>2020-06-16T14:25:52Z</time>
      </trkpt>
      <trkpt lat="49.39206" lon="-1.00479">
        <ele>20.2</ele>
        <time>2020-06-16T14:25:53Z</time>
      </trkpt>
      <trkpt lat="49.39203" lon="-1.00472">
        <ele>20.1</ele>
        <time>2020-06-16T14:25:54Z</time>
      </trkpt>
      <trkpt lat="49.39201" lon="-1.00464">
        <ele>20</ele>
        <time>2020-06-16T14:25:55Z</time>
      </trkpt>
      <trkpt lat="49.39199" lon="-1.00457">
        <ele>19.9</ele>
        <time>2020-06-16T14:25:56Z</time>
      </trkpt>
      <trkpt lat="49.39197" lon="-1.00449">
        <ele>19.8</ele>
        <time>2020-06-16T14:25:57Z</time>
      </trkpt>
      <trkpt lat="49.39195" lon="-1.00441">
        <ele>19.7</ele>
        <time>2020-06-16T14:25:58Z</time>
      </trkpt>
      <trkpt lat="49.39192" lon="-1.00433">
        <ele>19.6</ele>
        <time>2020-06-16T14:25:59Z</time>
      </trkpt>
      <trkpt lat="49.3919" lon="-1.00427">
        <ele>19.5</ele>
        <time>2020-06-16T14:26:00Z</time>
      </trkpt>
      <trkpt lat="49.39187" lon="-1.0042">
        <ele>19.5</ele>
        <time>2020-06-16T14:26:01Z</time>
      </trkpt>
      <trkpt lat="49.39185" lon="-1.00411">
        <ele>19.4</ele>
        <time>2020-06-16T14:26:02Z</time>
      </trkpt>
      <trkpt lat="49.39183" lon="-1.00403">
        <ele>19.3</ele>
        <time>2020-06-16T14:26:03Z</time>
      </trkpt>
      <trkpt lat="49.39181" lon="-1.00395">
        <ele>19.2</ele>
        <time>2020-06-16T14:26:04Z</time>
      </trkpt>
      <trkpt lat="49.39178" lon="-1.00388">
        <ele>19.2</ele>
        <time>2020-06-16T14:26:05Z</time>
      </trkpt>
      <trkpt lat="49.39175" lon="-1.00381">
        <ele>19.1</ele>
        <time>2020-06-16T14:26:06Z</time>
      </trkpt>
      <trkpt lat="49.39172" lon="-1.00373">
        <ele>19.1</ele>
        <time>2020-06-16T14:26:07Z</time>
      </trkpt>
      <trkpt lat="49.3917" lon="-1.00365">
        <ele>19</ele>
        <time>2020-06-16T14:26:08Z</time>
      </trkpt>
      <trkpt lat="49.39168" lon="-1.00357">
        <ele>19</ele>
        <time>2020-06-16T14:26:09Z</time>
      </trkpt>
      <trkpt lat="49.39166" lon="-1.00349">
        <ele>19</ele>
        <time>2020-06-16T14:26:10Z</time>
      </trkpt>
      <trkpt lat="49.39164" lon="-1.00342">
        <ele>18.9</ele>
        <time>2020-06-16T14:26:11Z</time>
      </trkpt>
      <trkpt lat="49.39162" lon="-1.00334">
        <ele>18.9</ele>
        <time>2020-06-16T14:26:12Z</time>
      </trkpt>
      <trkpt lat="49.3916" lon="-1.00326">
        <ele>18.8</ele>
        <time>2020-06-16T14:26:13Z</time>
      </trkpt>
      <trkpt lat="49.39158" lon="-1.00317">
        <ele>18.7</ele>
        <time>2020-06-16T14:26:14Z</time>
      </trkpt>
      <trkpt lat="49.39156" lon="-1.00308">
        <ele>18.6</ele>
        <time>2020-06-16T14:26:15Z</time>
      </trkpt>
      <trkpt lat="49.39155" lon="-1.003">
        <ele>18.5</ele>
        <time>2020-06-16T14:26:16Z</time>
      </trkpt>
      <trkpt lat="49.39153" lon="-1.00291">
        <ele>18.5</ele>
        <time>2020-06-16T14:26:17Z</time>
      </trkpt>
      <trkpt lat="49.39152" lon="-1.00283">
        <ele>18.4</ele>
        <time>2020-06-16T14:26:18Z</time>
      </trkpt>
      <trkpt lat="49.3915" lon="-1.00275">
        <ele>18.4</ele>
        <time>2020-06-16T14:26:19Z</time>
      </trkpt>
      <trkpt lat="49.3915" lon="-1.00267">
        <ele>18.4</ele>
        <time>2020-06-16T14:26:20Z</time>
      </trkpt>
      <trkpt lat="49.39148" lon="-1.00259">
        <ele>18.3</ele>
        <time>2020-06-16T14:26:21Z</time>
      </trkpt>
      <trkpt lat="49.39147" lon="-1.0025">
        <ele>18.2</ele>
        <time>2020-06-16T14:26:22Z</time>
      </trkpt>
      <trkpt lat="49.39144" lon="-1.00239">
        <ele>18.2</ele>
        <time>2020-06-16T14:26:23Z</time>
      </trkpt>
      <trkpt lat="49.39142" lon="-1.00228">
        <ele>18.1</ele>
        <time>2020-06-16T14:26:24Z</time>
      </trkpt>
      <trkpt lat="49.39141" lon="-1.00219">
        <ele>18.1</ele>
        <time>2020-06-16T14:26:25Z</time>
      </trkpt>
      <trkpt lat="49.3914" lon="-1.00209">
        <ele>18.1</ele>
        <time>2020-06-16T14:26:26Z</time>
      </trkpt>
      <trkpt lat="49.39138" lon="-1.002">
        <ele>18.1</ele>
        <time>2020-06-16T14:26:27Z</time>
      </trkpt>
      <trkpt lat="49.39137" lon="-1.0019">
        <ele>18.1</ele>
        <time>2020-06-16T14:26:28Z</time>
      </trkpt>
      <trkpt lat="49.39136" lon="-1.00181">
        <ele>18.1</ele>
        <time>2020-06-16T14:26:29Z</time>
      </trkpt>
      <trkpt lat="49.39135" lon="-1.00172">
        <ele>18.1</ele>
        <time>2020-06-16T14:26:30Z</time>
      </trkpt>
      <trkpt lat="49.39134" lon="-1.00163">
        <ele>18.1</ele>
        <time>2020-06-16T14:26:31Z</time>
      </trkpt>
      <trkpt lat="49.39133" lon="-1.00154">
        <ele>18.1</ele>
        <time>2020-06-16T14:26:32Z</time>
      </trkpt>
      <trkpt lat="49.39132" lon="-1.00145">
        <ele>18.2</ele>
        <time>2020-06-16T14:26:33Z</time>
      </trkpt>
      <trkpt lat="49.39131" lon="-1.00135">
        <ele>18.2</ele>
        <time>2020-06-16T14:26:34Z</time>
      </trkpt>
      <trkpt lat="49.39129" lon="-1.00127">
        <ele>18.2</ele>
        <time>2020-06-16T14:26:35Z</time>
      </trkpt>
      <trkpt lat="49.39127" lon="-1.00117">
        <ele>18.2</ele>
        <time>2020-06-16T14:26:36Z</time>
      </trkpt>
      <trkpt lat="49.39125" lon="-1.00107">
        <ele>18.2</ele>
        <time>2020-06-16T14:26:37Z</time>
      </trkpt>
      <trkpt lat="49.39124" lon="-1.00097">
        <ele>18.2</ele>
        <time>2020-06-16T14:26:38Z</time>
      </trkpt>
      <trkpt lat="49.39122" lon="-1.00088">
        <ele>18.2</ele>
        <time>2020-06-16T14:26:39Z</time>
      </trkpt>
      <trkpt lat="49.3912" lon="-1.00078">
        <ele>18.2</ele>
        <time>2020-06-16T14:26:40Z</time>
      </trkpt>
      <trkpt lat="49.39118" lon="-1.00069">
        <ele>18.3</ele>
        <time>2020-06-16T14:26:41Z</time>
      </trkpt>
      <trkpt lat="49.39115" lon="-1.00061">
        <ele>18.4</ele>
        <time>2020-06-16T14:26:42Z</time>
      </trkpt>
      <trkpt lat="49.39112" lon="-1.00054">
        <ele>18.5</ele>
        <time>2020-06-16T14:26:43Z</time>
      </trkpt>
      <trkpt lat="49.39109" lon="-1.00046">
        <ele>18.6</ele>
        <time>2020-06-16T14:26:44Z</time>
      </trkpt>
      <trkpt lat="49.39106" lon="-1.0004">
        <ele>18.8</ele>
        <time>2020-06-16T14:26:45Z</time>
      </trkpt>
      <trkpt lat="49.39103" lon="-1.00032">
        <ele>18.9</ele>
        <time>2020-06-16T14:26:46Z</time>
      </trkpt>
      <trkpt lat="49.391" lon="-1.00025">
        <ele>19.1</ele>
        <time>2020-06-16T14:26:47Z</time>
      </trkpt>
      <trkpt lat="49.39096" lon="-1.00019">
        <ele>19.2</ele>
        <time>2020-06-16T14:26:48Z</time>
      </trkpt>
      <trkpt lat="49.39094" lon="-1.00012">
        <ele>19.3</ele>
        <time>2020-06-16T14:26:49Z</time>
      </trkpt>
      <trkpt lat="49.39091" lon="-1.00006">
        <ele>19.5</ele>
        <time>2020-06-16T14:26:50Z</time>
      </trkpt>
      <trkpt lat="49.39089" lon="-1.00001">
        <ele>19.6</ele>
        <time>2020-06-16T14:26:51Z</time>
      </trkpt>
      <trkpt lat="49.39086" lon="-0.99997">
        <ele>19.7</ele>
        <time>2020-06-16T14:26:52Z</time>
      </trkpt>
      <trkpt lat="49.39084" lon="-0.99992">
        <ele>19.8</ele>
        <time>2020-06-16T14:26:53Z</time>
      </trkpt>
      <trkpt lat="49.39083" lon="-0.99986">
        <ele>19.9</ele>
        <time>2020-06-16T14:26:54Z</time>
      </trkpt>
      <trkpt lat="49.39081" lon="-0.9998">
        <ele>20.1</ele>
        <time>2020-06-16T14:26:55Z</time>
      </trkpt>
      <trkpt lat="49.39079" lon="-0.99974">
        <ele>20.2</ele>
        <time>2020-06-16T14:26:56Z</time>
      </trkpt>
      <trkpt lat="49.39077" lon="-0.99968">
        <ele>20.4</ele>
        <time>2020-06-16T14:26:57Z</time>
      </trkpt>
      <trkpt lat="49.39074" lon="-0.99962">
        <ele>20.5</ele>
        <time>2020-06-16T14:26:58Z</time>
      </trkpt>
      <trkpt lat="49.39072" lon="-0.99955">
        <ele>20.7</ele>
        <time>2020-06-16T14:26:59Z</time>
      </trkpt>
      <trkpt lat="49.39071" lon="-0.99949">
        <ele>20.8</ele>
        <time>2020-06-16T14:27:00Z</time>
      </trkpt>
      <trkpt lat="49.39069" lon="-0.99943">
        <ele>21</ele>
        <time>2020-06-16T14:27:01Z</time>
      </trkpt>
      <trkpt lat="49.39067" lon="-0.99937">
        <ele>21.1</ele>
        <time>2020-06-16T14:27:02Z</time>
      </trkpt>
      <trkpt lat="49.39065" lon="-0.99931">
        <ele>21.2</ele>
        <time>2020-06-16T14:27:03Z</time>
      </trkpt>
      <trkpt lat="49.39063" lon="-0.99925">
        <ele>21.4</ele>
        <time>2020-06-16T14:27:04Z</time>
      </trkpt>
      <trkpt lat="49.39061" lon="-0.99919">
        <ele>21.5</ele>
        <time>2020-06-16T14:27:05Z</time>
      </trkpt>
      <trkpt lat="49.39058" lon="-0.99913">
        <ele>21.6</ele>
        <time>2020-06-16T14:27:06Z</time>
      </trkpt>
      <trkpt lat="49.39056" lon="-0.99907">
        <ele>21.8</ele>
        <time>2020-06-16T14:27:07Z</time>
      </trkpt>
      <trkpt lat="49.39053" lon="-0.99901">
        <ele>22</ele>
        <time>2020-06-16T14:27:08Z</time>
      </trkpt>
      <trkpt lat="49.39051" lon="-0.99894">
        <ele>22.2</ele>
        <time>2020-06-16T14:27:09Z</time>
      </trkpt>
      <trkpt lat="49.39048" lon="-0.99887">
        <ele>22.4</ele>
        <time>2020-06-16T14:27:10Z</time>
      </trkpt>
      <trkpt lat="49.39046" lon="-0.9988">
        <ele>22.6</ele>
        <time>2020-06-16T14:27:11Z</time>
      </trkpt>
      <trkpt lat="49.39045" lon="-0.99873">
        <ele>22.8</ele>
        <time>2020-06-16T14:27:12Z</time>
      </trkpt>
      <trkpt lat="49.39043" lon="-0.99867">
        <ele>23</ele>
        <time>2020-06-16T14:27:13Z</time>
      </trkpt>
      <trkpt lat="49.39041" lon="-0.99861">
        <ele>23.1</ele>
        <time>2020-06-16T14:27:14Z</time>
      </trkpt>
      <trkpt lat="49.39039" lon="-0.99856">
        <ele>23.3</ele>
        <time>2020-06-16T14:27:15Z</time>
      </trkpt>
      <trkpt lat="49.39036" lon="-0.9985">
        <ele>23.4</ele>
        <time>2020-06-16T14:27:16Z</time>
      </trkpt>
      <trkpt lat="49.39034" lon="-0.99845">
        <ele>23.6</ele>
        <time>2020-06-16T14:27:17Z</time>
      </trkpt>
      <trkpt lat="49.39032" lon="-0.99839">
        <ele>23.8</ele>
        <time>2020-06-16T14:27:18Z</time>
      </trkpt>
      <trkpt lat="49.3903" lon="-0.99833">
        <ele>23.9</ele>
        <time>2020-06-16T14:27:19Z</time>
      </trkpt>
      <trkpt lat="49.39028" lon="-0.99827">
        <ele>24.1</ele>
        <time>2020-06-16T14:27:20Z</time>
      </trkpt>
      <trkpt lat="49.39026" lon="-0.9982">
        <ele>24.3</ele>
        <time>2020-06-16T14:27:21Z</time>
      </trkpt>
      <trkpt lat="49.39024" lon="-0.99814">
        <ele>24.4</ele>
        <time>2020-06-16T14:27:22Z</time>
      </trkpt>
      <trkpt lat="49.39022" lon="-0.99807">
        <ele>24.6</ele>
        <time>2020-06-16T14:27:23Z</time>
      </trkpt>
      <trkpt lat="49.3902" lon="-0.99801">
        <ele>24.7</ele>
        <time>2020-06-16T14:27:24Z</time>
      </trkpt>
      <trkpt lat="49.39017" lon="-0.99794">
        <ele>24.8</ele>
        <time>2020-06-16T14:27:25Z</time>
      </trkpt>
      <trkpt lat="49.39016" lon="-0.99787">
        <ele>25</ele>
        <time>2020-06-16T14:27:26Z</time>
      </trkpt>
      <trkpt lat="49.39014" lon="-0.9978">
        <ele>25.1</ele>
        <time>2020-06-16T14:27:27Z</time>
      </trkpt>
      <trkpt lat="49.39012" lon="-0.99773">
        <ele>25.2</ele>
        <time>2020-06-16T14:27:28Z</time>
      </trkpt>
      <trkpt lat="49.39011" lon="-0.99767">
        <ele>25.4</ele>
        <time>2020-06-16T14:27:29Z</time>
      </trkpt>
      <trkpt lat="49.39009" lon="-0.9976">
        <ele>25.6</ele>
        <time>2020-06-16T14:27:30Z</time>
      </trkpt>
      <trkpt lat="49.39008" lon="-0.99754">
        <ele>25.7</ele>
        <time>2020-06-16T14:27:31Z</time>
      </trkpt>
      <trkpt lat="49.39006" lon="-0.99747">
        <ele>25.9</ele>
        <time>2020-06-16T14:27:32Z</time>
      </trkpt>
      <trkpt lat="49.39005" lon="-0.99741">
        <ele>26</ele>
        <time>2020-06-16T14:27:33Z</time>
      </trkpt>
      <trkpt lat="49.39004" lon="-0.99734">
        <ele>26.1</ele>
        <time>2020-06-16T14:27:34Z</time>
      </trkpt>
      <trkpt lat="49.39003" lon="-0.99728">
        <ele>26.2</ele>
        <time>2020-06-16T14:27:35Z</time>
      </trkpt>
      <trkpt lat="49.39002" lon="-0.99722">
        <ele>26.3</ele>
        <time>2020-06-16T14:27:36Z</time>
      </trkpt>
      <trkpt lat="49.39001" lon="-0.99716">
        <ele>26.4</ele>
        <time>2020-06-16T14:27:37Z</time>
      </trkpt>
      <trkpt lat="49.39" lon="-0.9971">
        <ele>26.5</ele>
        <time>2020-06-16T14:27:38Z</time>
      </trkpt>
      <trkpt lat="49.38998" lon="-0.99704">
        <ele>26.6</ele>
        <time>2020-06-16T14:27:39Z</time>
      </trkpt>
      <trkpt lat="49.38997" lon="-0.99697">
        <ele>26.8</ele>
        <time>2020-06-16T14:27:40Z</time>
      </trkpt>
      <trkpt lat="49.38995" lon="-0.99691">
        <ele>26.9</ele>
        <time>2020-06-16T14:27:41Z</time>
      </trkpt>
      <trkpt lat="49.38994" lon="-0.99685">
        <ele>27</ele>
        <time>2020-06-16T14:27:42Z</time>
      </trkpt>
      <trkpt lat="49.38993" lon="-0.99679">
        <ele>27.1</ele>
        <time>2020-06-16T14:27:43Z</time>
      </trkpt>
      <trkpt lat="49.38993" lon="-0.99674">
        <ele>27.2</ele>
        <time>2020-06-16T14:27:44Z</time>
      </trkpt>
      <trkpt lat="49.38992" lon="-0.99668">
        <ele>27.3</ele>
        <time>2020-06-16T14:27:45Z</time>
      </trkpt>
      <trkpt lat="49.38991" lon="-0.99664">
        <ele>27.4</ele>
        <time>2020-06-16T14:27:46Z</time>
      </trkpt>
      <trkpt lat="49.3899" lon="-0.9966">
        <ele>27.4</ele>
        <time>2020-06-16T14:27:47Z</time>
      </trkpt>
      <trkpt lat="49.38988" lon="-0.99655">
        <ele>27.5</ele>
        <time>2020-06-16T14:27:48Z</time>
      </trkpt>
      <trkpt lat="49.38986" lon="-0.99649">
        <ele>27.6</ele>
        <time>2020-06-16T14:27:49Z</time>
      </trkpt>
      <trkpt lat="49.38985" lon="-0.99644">
        <ele>27.7</ele>
        <time>2020-06-16T14:27:50Z</time>
      </trkpt>
      <trkpt lat="49.38983" lon="-0.99638">
        <ele>27.8</ele>
        <time>2020-06-16T14:27:51Z</time>
      </trkpt>
      <trkpt lat="49.38981" lon="-0.99633">
        <ele>27.9</ele>
        <time>2020-06-16T14:27:52Z</time>
      </trkpt>
      <trkpt lat="49.38979" lon="-0.99627">
        <ele>28</ele>
        <time>2020-06-16T14:27:53Z</time>
      </trkpt>
      <trkpt lat="49.38977" lon="-0.99621">
        <ele>28</ele>
        <time>2020-06-16T14:27:54Z</time>
      </trkpt>
      <trkpt lat="49.38975" lon="-0.99615">
        <ele>28.1</ele>
        <time>2020-06-16T14:27:55Z</time>
      </trkpt>
      <trkpt lat="49.38974" lon="-0.9961">
        <ele>28.2</ele>
        <time>2020-06-16T14:27:56Z</time>
      </trkpt>
      <trkpt lat="49.38971" lon="-0.99604">
        <ele>28.3</ele>
        <time>2020-06-16T14:27:57Z</time>
      </trkpt>
      <trkpt lat="49.38969" lon="-0.996">
        <ele>28.4</ele>
        <time>2020-06-16T14:27:58Z</time>
      </trkpt>
      <trkpt lat="49.38968" lon="-0.99595">
        <ele>28.4</ele>
        <time>2020-06-16T14:27:59Z</time>
      </trkpt>
      <trkpt lat="49.38966" lon="-0.9959">
        <ele>28.5</ele>
        <time>2020-06-16T14:28:00Z</time>
      </trkpt>
      <trkpt lat="49.38963" lon="-0.99586">
        <ele>28.6</ele>
        <time>2020-06-16T14:28:01Z</time>
      </trkpt>
      <trkpt lat="49.3896" lon="-0.99581">
        <ele>28.7</ele>
        <time>2020-06-16T14:28:02Z</time>
      </trkpt>
      <trkpt lat="49.38957" lon="-0.99576">
        <ele>28.8</ele>
        <time>2020-06-16T14:28:03Z</time>
      </trkpt>
      <trkpt lat="49.38955" lon="-0.99571">
        <ele>28.9</ele>
        <time>2020-06-16T14:28:04Z</time>
      </trkpt>
      <trkpt lat="49.38952" lon="-0.99565">
        <ele>29</ele>
        <time>2020-06-16T14:28:05Z</time>
      </trkpt>
      <trkpt lat="49.38949" lon="-0.9956">
        <ele>29.1</ele>
        <time>2020-06-16T14:28:06Z</time>
      </trkpt>
      <trkpt lat="49.38947" lon="-0.99554">
        <ele>29.2</ele>
        <time>2020-06-16T14:28:07Z</time>
      </trkpt>
      <trkpt lat="49.38945" lon="-0.99548">
        <ele>29.3</ele>
        <time>2020-06-16T14:28:08Z</time>
      </trkpt>
      <trkpt lat="49.38942" lon="-0.99542">
        <ele>29.4</ele>
        <time>2020-06-16T14:28:09Z</time>
      </trkpt>
      <trkpt lat="49.38939" lon="-0.99537">
        <ele>29.5</ele>
        <time>2020-06-16T14:28:10Z</time>
      </trkpt>
      <trkpt lat="49.38935" lon="-0.99532">
        <ele>29.6</ele>
        <time>2020-06-16T14:28:11Z</time>
      </trkpt>
      <trkpt lat="49.38932" lon="-0.99525">
        <ele>29.7</ele>
        <time>2020-06-16T14:28:12Z</time>
      </trkpt>
      <trkpt lat="49.38929" lon="-0.99519">
        <ele>29.8</ele>
        <time>2020-06-16T14:28:13Z</time>
      </trkpt>
      <trkpt lat="49.38927" lon="-0.99513">
        <ele>29.8</ele>
        <time>2020-06-16T14:28:14Z</time>
      </trkpt>
      <trkpt lat="49.38925" lon="-0.99508">
        <ele>29.9</ele>
        <time>2020-06-16T14:28:15Z</time>
      </trkpt>
      <trkpt lat="49.38923" lon="-0.99503">
        <ele>30</ele>
        <time>2020-06-16T14:28:16Z</time>
      </trkpt>
      <trkpt lat="49.38921" lon="-0.99497">
        <ele>30</ele>
        <time>2020-06-16T14:28:17Z</time>
      </trkpt>
      <trkpt lat="49.38919" lon="-0.99491">
        <ele>30.1</ele>
        <time>2020-06-16T14:28:18Z</time>
      </trkpt>
      <trkpt lat="49.38917" lon="-0.99484">
        <ele>30.2</ele>
        <time>2020-06-16T14:28:19Z</time>
      </trkpt>
      <trkpt lat="49.38915" lon="-0.99479">
        <ele>30.2</ele>
        <time>2020-06-16T14:28:20Z</time>
      </trkpt>
      <trkpt lat="49.38913" lon="-0.99473">
        <ele>30.3</ele>
        <time>2020-06-16T14:28:21Z</time>
      </trkpt>
      <trkpt lat="49.38911" lon="-0.99468">
        <ele>30.4</ele>
        <time>2020-06-16T14:28:22Z</time>
      </trkpt>
      <trkpt lat="49.38909" lon="-0.99462">
        <ele>30.5</ele>
        <time>2020-06-16T14:28:23Z</time>
      </trkpt>
      <trkpt lat="49.38908" lon="-0.99456">
        <ele>30.6</ele>
        <time>2020-06-16T14:28:24Z</time>
      </trkpt>
      <trkpt lat="49.38906" lon="-0.99451">
        <ele>30.6</ele>
        <time>2020-06-16T14:28:25Z</time>
      </trkpt>
      <trkpt lat="49.38904" lon="-0.99445">
        <ele>30.7</ele>
        <time>2020-06-16T14:28:26Z</time>
      </trkpt>
      <trkpt lat="49.38903" lon="-0.99439">
        <ele>30.8</ele>
        <time>2020-06-16T14:28:27Z</time>
      </trkpt>
      <trkpt lat="49.38902" lon="-0.99432">
        <ele>30.9</ele>
        <time>2020-06-16T14:28:28Z</time>
      </trkpt>
      <trkpt lat="49.38901" lon="-0.99426">
        <ele>31</ele>
        <time>2020-06-16T14:28:29Z</time>
      </trkpt>
      <trkpt lat="49.389" lon="-0.9942">
        <ele>31</ele>
        <time>2020-06-16T14:28:30Z</time>
      </trkpt>
      <trkpt lat="49.38899" lon="-0.99413">
        <ele>31.1</ele>
        <time>2020-06-16T14:28:31Z</time>
      </trkpt>
      <trkpt lat="49.38898" lon="-0.99405">
        <ele>31.2</ele>
        <time>2020-06-16T14:28:32Z</time>
      </trkpt>
      <trkpt lat="49.38897" lon="-0.99397">
        <ele>31.2</ele>
        <time>2020-06-16T14:28:33Z</time>
      </trkpt>
      <trkpt lat="49.38897" lon="-0.99391">
        <ele>31.3</ele>
        <time>2020-06-16T14:28:34Z</time>
      </trkpt>
      <trkpt lat="49.38897" lon="-0.99384">
        <ele>31.4</ele>
        <time>2020-06-16T14:28:35Z</time>
      </trkpt>
      <trkpt lat="49.38896" lon="-0.99377">
        <ele>31.5</ele>
        <time>2020-06-16T14:28:36Z</time>
      </trkpt>
      <trkpt lat="49.38896" lon="-0.9937">
        <ele>31.5</ele>
        <time>2020-06-16T14:28:37Z</time>
      </trkpt>
      <trkpt lat="49.38895" lon="-0.99362">
        <ele>31.6</ele>
        <time>2020-06-16T14:28:38Z</time>
      </trkpt>
      <trkpt lat="49.38895" lon="-0.99354">
        <ele>31.7</ele>
        <time>2020-06-16T14:28:39Z</time>
      </trkpt>
      <trkpt lat="49.38894" lon="-0.99347">
        <ele>31.8</ele>
        <time>2020-06-16T14:28:40Z</time>
      </trkpt>
      <trkpt lat="49.38894" lon="-0.99339">
        <ele>31.8</ele>
        <time>2020-06-16T14:28:41Z</time>
      </trkpt>
      <trkpt lat="49.38894" lon="-0.99331">
        <ele>31.9</ele>
        <time>2020-06-16T14:28:42Z</time>
      </trkpt>
      <trkpt lat="49.38894" lon="-0.99323">
        <ele>31.9</ele>
        <time>2020-06-16T14:28:43Z</time>
      </trkpt>
      <trkpt lat="49.38894" lon="-0.99314">
        <ele>32</ele>
        <time>2020-06-16T14:28:44Z</time>
      </trkpt>
      <trkpt lat="49.38894" lon="-0.99304">
        <ele>32.1</ele>
        <time>2020-06-16T14:28:45Z</time>
      </trkpt>
      <trkpt lat="49.38893" lon="-0.99297">
        <ele>32.1</ele>
        <time>2020-06-16T14:28:46Z</time>
      </trkpt>
      <trkpt lat="49.38893" lon="-0.99287">
        <ele>32.2</ele>
        <time>2020-06-16T14:28:47Z</time>
      </trkpt>
      <trkpt lat="49.38893" lon="-0.99278">
        <ele>32.3</ele>
        <time>2020-06-16T14:28:48Z</time>
      </trkpt>
      <trkpt lat="49.38893" lon="-0.99268">
        <ele>32.3</ele>
        <time>2020-06-16T14:28:49Z</time>
      </trkpt>
      <trkpt lat="49.38892" lon="-0.99258">
        <ele>32.4</ele>
        <time>2020-06-16T14:28:50Z</time>
      </trkpt>
      <trkpt lat="49.3889" lon="-0.99249">
        <ele>32.5</ele>
        <time>2020-06-16T14:28:51Z</time>
      </trkpt>
      <trkpt lat="49.38888" lon="-0.99243">
        <ele>32.5</ele>
        <time>2020-06-16T14:28:52Z</time>
      </trkpt>
      <trkpt lat="49.38886" lon="-0.99237">
        <ele>32.5</ele>
        <time>2020-06-16T14:28:53Z</time>
      </trkpt>
      <trkpt lat="49.38884" lon="-0.99231">
        <ele>32.6</ele>
        <time>2020-06-16T14:28:54Z</time>
      </trkpt>
      <trkpt lat="49.38882" lon="-0.99223">
        <ele>32.6</ele>
        <time>2020-06-16T14:28:55Z</time>
      </trkpt>
      <trkpt lat="49.38881" lon="-0.99213">
        <ele>32.7</ele>
        <time>2020-06-16T14:28:56Z</time>
      </trkpt>
      <trkpt lat="49.3888" lon="-0.99202">
        <ele>32.7</ele>
        <time>2020-06-16T14:28:57Z</time>
      </trkpt>
      <trkpt lat="49.38881" lon="-0.99191">
        <ele>32.8</ele>
        <time>2020-06-16T14:28:58Z</time>
      </trkpt>
      <trkpt lat="49.38884" lon="-0.99181">
        <ele>32.9</ele>
        <time>2020-06-16T14:28:59Z</time>
      </trkpt>
      <trkpt lat="49.38887" lon="-0.99175">
        <ele>32.9</ele>
        <time>2020-06-16T14:29:00Z</time>
      </trkpt>
      <trkpt lat="49.38891" lon="-0.99172">
        <ele>32.9</ele>
        <time>2020-06-16T14:29:01Z</time>
      </trkpt>
      <trkpt lat="49.38896" lon="-0.99172">
        <ele>32.9</ele>
        <time>2020-06-16T14:29:02Z</time>
      </trkpt>
      <trkpt lat="49.38899" lon="-0.99171">
        <ele>32.9</ele>
        <time>2020-06-16T14:29:03Z</time>
      </trkpt>
      <trkpt lat="49.38904" lon="-0.99171">
        <ele>32.9</ele>
        <time>2020-06-16T14:29:04Z</time>
      </trkpt>
      <trkpt lat="49.38909" lon="-0.99171">
        <ele>32.9</ele>
        <time>2020-06-16T14:29:05Z</time>
      </trkpt>
      <trkpt lat="49.38912" lon="-0.99173">
        <ele>32.9</ele>
        <time>2020-06-16T14:29:06Z</time>
      </trkpt>
      <trkpt lat="49.38916" lon="-0.99174">
        <ele>33.3</ele>
        <time>2020-06-16T14:29:07Z</time>
      </trkpt>
      <trkpt lat="49.3892" lon="-0.99175">
        <ele>33.3</ele>
        <time>2020-06-16T14:29:08Z</time>
      </trkpt>
      <trkpt lat="49.38924" lon="-0.99176">
        <ele>33.3</ele>
        <time>2020-06-16T14:29:09Z</time>
      </trkpt>
      <trkpt lat="49.38929" lon="-0.99176">
        <ele>33.3</ele>
        <time>2020-06-16T14:29:10Z</time>
      </trkpt>
      <trkpt lat="49.38933" lon="-0.99176">
        <ele>33.3</ele>
        <time>2020-06-16T14:29:11Z</time>
      </trkpt>
      <trkpt lat="49.38938" lon="-0.99176">
        <ele>33.3</ele>
        <time>2020-06-16T14:29:12Z</time>
      </trkpt>
      <trkpt lat="49.38942" lon="-0.99175">
        <ele>33.7</ele>
        <time>2020-06-16T14:29:13Z</time>
      </trkpt>
      <trkpt lat="49.38946" lon="-0.99175">
        <ele>33.7</ele>
        <time>2020-06-16T14:29:14Z</time>
      </trkpt>
      <trkpt lat="49.38952" lon="-0.99175">
        <ele>33.8</ele>
        <time>2020-06-16T14:29:15Z</time>
      </trkpt>
      <trkpt lat="49.38957" lon="-0.99172">
        <ele>33.8</ele>
        <time>2020-06-16T14:29:16Z</time>
      </trkpt>
      <trkpt lat="49.38963" lon="-0.99168">
        <ele>33.8</ele>
        <time>2020-06-16T14:29:17Z</time>
      </trkpt>
      <trkpt lat="49.38969" lon="-0.99165">
        <ele>33.7</ele>
        <time>2020-06-16T14:29:18Z</time>
      </trkpt>
      <trkpt lat="49.38974" lon="-0.99164">
        <ele>33.7</ele>
        <time>2020-06-16T14:29:19Z</time>
      </trkpt>
      <trkpt lat="49.38979" lon="-0.99162">
        <ele>33.7</ele>
        <time>2020-06-16T14:29:20Z</time>
      </trkpt>
      <trkpt lat="49.38985" lon="-0.9916">
        <ele>33.7</ele>
        <time>2020-06-16T14:29:21Z</time>
      </trkpt>
      <trkpt lat="49.38992" lon="-0.99157">
        <ele>33.7</ele>
        <time>2020-06-16T14:29:22Z</time>
      </trkpt>
      <trkpt lat="49.38999" lon="-0.99152">
        <ele>33.7</ele>
        <time>2020-06-16T14:29:23Z</time>
      </trkpt>
      <trkpt lat="49.39005" lon="-0.99149">
        <ele>33.7</ele>
        <time>2020-06-16T14:29:24Z</time>
      </trkpt>
      <trkpt lat="49.39012" lon="-0.99145">
        <ele>33.7</ele>
        <time>2020-06-16T14:29:25Z</time>
      </trkpt>
      <trkpt lat="49.39019" lon="-0.99139">
        <ele>33.6</ele>
        <time>2020-06-16T14:29:26Z</time>
      </trkpt>
      <trkpt lat="49.39026" lon="-0.99133">
        <ele>33.6</ele>
        <time>2020-06-16T14:29:27Z</time>
      </trkpt>
      <trkpt lat="49.39033" lon="-0.99127">
        <ele>33.6</ele>
        <time>2020-06-16T14:29:28Z</time>
      </trkpt>
      <trkpt lat="49.3904" lon="-0.99121">
        <ele>33.5</ele>
        <time>2020-06-16T14:29:29Z</time>
      </trkpt>
      <trkpt lat="49.39046" lon="-0.99116">
        <ele>33.5</ele>
        <time>2020-06-16T14:29:30Z</time>
      </trkpt>
      <trkpt lat="49.39053" lon="-0.99112">
        <ele>33.4</ele>
        <time>2020-06-16T14:29:31Z</time>
      </trkpt>
      <trkpt lat="49.39059" lon="-0.99108">
        <ele>33.4</ele>
        <time>2020-06-16T14:29:32Z</time>
      </trkpt>
      <trkpt lat="49.39066" lon="-0.99104">
        <ele>33.3</ele>
        <time>2020-06-16T14:29:33Z</time>
      </trkpt>
      <trkpt lat="49.39073" lon="-0.991">
        <ele>33.3</ele>
        <time>2020-06-16T14:29:34Z</time>
      </trkpt>
      <trkpt lat="49.3908" lon="-0.99096">
        <ele>33.3</ele>
        <time>2020-06-16T14:29:35Z</time>
      </trkpt>
      <trkpt lat="49.39086" lon="-0.99092">
        <ele>33.2</ele>
        <time>2020-06-16T14:29:36Z</time>
      </trkpt>
      <trkpt lat="49.39092" lon="-0.99088">
        <ele>33.2</ele>
        <time>2020-06-16T14:29:37Z</time>
      </trkpt>
      <trkpt lat="49.39099" lon="-0.99084">
        <ele>33.2</ele>
        <time>2020-06-16T14:29:38Z</time>
      </trkpt>
      <trkpt lat="49.39105" lon="-0.9908">
        <ele>33.2</ele>
        <time>2020-06-16T14:29:39Z</time>
      </trkpt>
      <trkpt lat="49.39112" lon="-0.99076">
        <ele>33.3</ele>
        <time>2020-06-16T14:29:40Z</time>
      </trkpt>
      <trkpt lat="49.39118" lon="-0.99073">
        <ele>33.3</ele>
        <time>2020-06-16T14:29:41Z</time>
      </trkpt>
      <trkpt lat="49.39124" lon="-0.99068">
        <ele>33.3</ele>
        <time>2020-06-16T14:29:42Z</time>
      </trkpt>
      <trkpt lat="49.3913" lon="-0.99065">
        <ele>33.2</ele>
        <time>2020-06-16T14:29:43Z</time>
      </trkpt>
      <trkpt lat="49.39134" lon="-0.9906">
        <ele>33.2</ele>
        <time>2020-06-16T14:29:44Z</time>
      </trkpt>
      <trkpt lat="49.39136" lon="-0.99058">
        <ele>33.2</ele>
        <time>2020-06-16T14:29:45Z</time>
      </trkpt>
      <trkpt lat="49.3914" lon="-0.99055">
        <ele>33.2</ele>
        <time>2020-06-16T14:29:46Z</time>
      </trkpt>
      <trkpt lat="49.39145" lon="-0.99051">
        <ele>33.2</ele>
        <time>2020-06-16T14:29:47Z</time>
      </trkpt>
      <trkpt lat="49.39149" lon="-0.99048">
        <ele>33.2</ele>
        <time>2020-06-16T14:29:48Z</time>
      </trkpt>
      <trkpt lat="49.39155" lon="-0.99045">
        <ele>33.1</ele>
        <time>2020-06-16T14:29:49Z</time>
      </trkpt>
      <trkpt lat="49.39159" lon="-0.99043">
        <ele>33.1</ele>
        <time>2020-06-16T14:29:50Z</time>
      </trkpt>
      <trkpt lat="49.39165" lon="-0.99042">
        <ele>33.1</ele>
        <time>2020-06-16T14:29:51Z</time>
      </trkpt>
      <trkpt lat="49.39169" lon="-0.9904">
        <ele>33</ele>
        <time>2020-06-16T14:29:52Z</time>
      </trkpt>
      <trkpt lat="49.39173" lon="-0.99039">
        <ele>33</ele>
        <time>2020-06-16T14:29:53Z</time>
      </trkpt>
      <trkpt lat="49.39175" lon="-0.9904">
        <ele>33</ele>
        <time>2020-06-16T14:29:54Z</time>
      </trkpt>
      <trkpt lat="49.3918" lon="-0.9904">
        <ele>33</ele>
        <time>2020-06-16T14:29:55Z</time>
      </trkpt>
      <trkpt lat="49.39185" lon="-0.9904">
        <ele>32.9</ele>
        <time>2020-06-16T14:29:56Z</time>
      </trkpt>
      <trkpt lat="49.3919" lon="-0.9904">
        <ele>32.9</ele>
        <time>2020-06-16T14:29:57Z</time>
      </trkpt>
      <trkpt lat="49.39195" lon="-0.9904">
        <ele>32.8</ele>
        <time>2020-06-16T14:29:58Z</time>
      </trkpt>
      <trkpt lat="49.39202" lon="-0.99041">
        <ele>32.8</ele>
        <time>2020-06-16T14:29:59Z</time>
      </trkpt>
      <trkpt lat="49.39208" lon="-0.99041">
        <ele>32.8</ele>
        <time>2020-06-16T14:30:00Z</time>
      </trkpt>
      <trkpt lat="49.39214" lon="-0.99042">
        <ele>32.8</ele>
        <time>2020-06-16T14:30:01Z</time>
      </trkpt>
      <trkpt lat="49.3922" lon="-0.99043">
        <ele>32.7</ele>
        <time>2020-06-16T14:30:02Z</time>
      </trkpt>
      <trkpt lat="49.39226" lon="-0.99043">
        <ele>32.7</ele>
        <time>2020-06-16T14:30:03Z</time>
      </trkpt>
      <trkpt lat="49.3923" lon="-0.99044">
        <ele>32.8</ele>
        <time>2020-06-16T14:30:04Z</time>
      </trkpt>
      <trkpt lat="49.39235" lon="-0.99044">
        <ele>32.8</ele>
        <time>2020-06-16T14:30:05Z</time>
      </trkpt>
      <trkpt lat="49.39241" lon="-0.99042">
        <ele>32.9</ele>
        <time>2020-06-16T14:30:06Z</time>
      </trkpt>
      <trkpt lat="49.39247" lon="-0.99039">
        <ele>32.9</ele>
        <time>2020-06-16T14:30:07Z</time>
      </trkpt>
      <trkpt lat="49.39254" lon="-0.99036">
        <ele>33</ele>
        <time>2020-06-16T14:30:08Z</time>
      </trkpt>
      <trkpt lat="49.39259" lon="-0.99032">
        <ele>33</ele>
        <time>2020-06-16T14:30:09Z</time>
      </trkpt>
      <trkpt lat="49.39262" lon="-0.99029">
        <ele>33</ele>
        <time>2020-06-16T14:30:10Z</time>
      </trkpt>
      <trkpt lat="49.39263" lon="-0.99026">
        <ele>33</ele>
        <time>2020-06-16T14:30:11Z</time>
      </trkpt>
      <trkpt lat="49.39264" lon="-0.99019">
        <ele>33.1</ele>
        <time>2020-06-16T14:30:12Z</time>
      </trkpt>
      <trkpt lat="49.39261" lon="-0.99012">
        <ele>33.4</ele>
        <time>2020-06-16T14:30:13Z</time>
      </trkpt>
      <trkpt lat="49.39259" lon="-0.99005">
        <ele>33.4</ele>
        <time>2020-06-16T14:30:14Z</time>
      </trkpt>
      <trkpt lat="49.39257" lon="-0.98998">
        <ele>33.5</ele>
        <time>2020-06-16T14:30:15Z</time>
      </trkpt>
      <trkpt lat="49.39255" lon="-0.98992">
        <ele>33.4</ele>
        <time>2020-06-16T14:30:16Z</time>
      </trkpt>
      <trkpt lat="49.39253" lon="-0.98985">
        <ele>33.3</ele>
        <time>2020-06-16T14:30:17Z</time>
      </trkpt>
      <trkpt lat="49.39252" lon="-0.98978">
        <ele>33.2</ele>
        <time>2020-06-16T14:30:18Z</time>
      </trkpt>
      <trkpt lat="49.3925" lon="-0.98969">
        <ele>33.2</ele>
        <time>2020-06-16T14:30:19Z</time>
      </trkpt>
      <trkpt lat="49.39248" lon="-0.98961">
        <ele>33.1</ele>
        <time>2020-06-16T14:30:20Z</time>
      </trkpt>
      <trkpt lat="49.39247" lon="-0.98956">
        <ele>33.1</ele>
        <time>2020-06-16T14:30:21Z</time>
      </trkpt>
      <trkpt lat="49.39247" lon="-0.98951">
        <ele>33.1</ele>
        <time>2020-06-16T14:30:22Z</time>
      </trkpt>
      <trkpt lat="49.39247" lon="-0.98947">
        <ele>33</ele>
        <time>2020-06-16T14:30:23Z</time>
      </trkpt>
      <trkpt lat="49.39248" lon="-0.98942">
        <ele>33</ele>
        <time>2020-06-16T14:30:24Z</time>
      </trkpt>
      <trkpt lat="49.39248" lon="-0.98938">
        <ele>33</ele>
        <time>2020-06-16T14:30:25Z</time>
      </trkpt>
      <trkpt lat="49.39249" lon="-0.98932">
        <ele>33</ele>
        <time>2020-06-16T14:30:26Z</time>
      </trkpt>
      <trkpt lat="49.39249" lon="-0.98926">
        <ele>33</ele>
        <time>2020-06-16T14:30:27Z</time>
      </trkpt>
      <trkpt lat="49.39249" lon="-0.9892">
        <ele>33</ele>
        <time>2020-06-16T14:30:28Z</time>
      </trkpt>
      <trkpt lat="49.39249" lon="-0.98913">
        <ele>33</ele>
        <time>2020-06-16T14:30:29Z</time>
      </trkpt>
      <trkpt lat="49.3925" lon="-0.98907">
        <ele>33</ele>
        <time>2020-06-16T14:30:30Z</time>
      </trkpt>
      <trkpt lat="49.3925" lon="-0.989">
        <ele>33</ele>
        <time>2020-06-16T14:30:31Z</time>
      </trkpt>
      <trkpt lat="49.39251" lon="-0.98892">
        <ele>32.9</ele>
        <time>2020-06-16T14:30:32Z</time>
      </trkpt>
      <trkpt lat="49.39251" lon="-0.98885">
        <ele>32.9</ele>
        <time>2020-06-16T14:30:33Z</time>
      </trkpt>
      <trkpt lat="49.39251" lon="-0.98877">
        <ele>32.9</ele>
        <time>2020-06-16T14:30:34Z</time>
      </trkpt>
      <trkpt lat="49.39251" lon="-0.98868">
        <ele>32.9</ele>
        <time>2020-06-16T14:30:35Z</time>
      </trkpt>
      <trkpt lat="49.39251" lon="-0.9886">
        <ele>32.9</ele>
        <time>2020-06-16T14:30:36Z</time>
      </trkpt>
      <trkpt lat="49.39251" lon="-0.98853">
        <ele>33</ele>
        <time>2020-06-16T14:30:37Z</time>
      </trkpt>
      <trkpt lat="49.39252" lon="-0.98847">
        <ele>33</ele>
        <time>2020-06-16T14:30:38Z</time>
      </trkpt>
      <trkpt lat="49.39252" lon="-0.98841">
        <ele>33</ele>
        <time>2020-06-16T14:30:39Z</time>
      </trkpt>
      <trkpt lat="49.39252" lon="-0.98834">
        <ele>33</ele>
        <time>2020-06-16T14:30:40Z</time>
      </trkpt>
      <trkpt lat="49.39252" lon="-0.98827">
        <ele>33.1</ele>
        <time>2020-06-16T14:30:41Z</time>
      </trkpt>
      <trkpt lat="49.39251" lon="-0.9882">
        <ele>33.1</ele>
        <time>2020-06-16T14:30:42Z</time>
      </trkpt>
      <trkpt lat="49.39251" lon="-0.98813">
        <ele>33.1</ele>
        <time>2020-06-16T14:30:43Z</time>
      </trkpt>
      <trkpt lat="49.39251" lon="-0.98805">
        <ele>33.2</ele>
        <time>2020-06-16T14:30:44Z</time>
      </trkpt>
      <trkpt lat="49.39251" lon="-0.98797">
        <ele>33.3</ele>
        <time>2020-06-16T14:30:45Z</time>
      </trkpt>
      <trkpt lat="49.39251" lon="-0.98789">
        <ele>33.3</ele>
        <time>2020-06-16T14:30:46Z</time>
      </trkpt>
      <trkpt lat="49.39251" lon="-0.98782">
        <ele>33.4</ele>
        <time>2020-06-16T14:30:47Z</time>
      </trkpt>
      <trkpt lat="49.3925" lon="-0.98776">
        <ele>33.4</ele>
        <time>2020-06-16T14:30:48Z</time>
      </trkpt>
      <trkpt lat="49.3925" lon="-0.9877">
        <ele>33.5</ele>
        <time>2020-06-16T14:30:49Z</time>
      </trkpt>
      <trkpt lat="49.39249" lon="-0.98765">
        <ele>33.5</ele>
        <time>2020-06-16T14:30:50Z</time>
      </trkpt>
      <trkpt lat="49.39249" lon="-0.98759">
        <ele>33.6</ele>
        <time>2020-06-16T14:30:51Z</time>
      </trkpt>
      <trkpt lat="49.3925" lon="-0.98754">
        <ele>33.6</ele>
        <time>2020-06-16T14:30:52Z</time>
      </trkpt>
      <trkpt lat="49.3925" lon="-0.98749">
        <ele>33.7</ele>
        <time>2020-06-16T14:30:53Z</time>
      </trkpt>
      <trkpt lat="49.3925" lon="-0.98744">
        <ele>33.7</ele>
        <time>2020-06-16T14:30:54Z</time>
      </trkpt>
      <trkpt lat="49.39251" lon="-0.98738">
        <ele>33.8</ele>
        <time>2020-06-16T14:30:55Z</time>
      </trkpt>
      <trkpt lat="49.39251" lon="-0.98736">
        <ele>33.8</ele>
        <time>2020-06-16T14:30:56Z</time>
      </trkpt>
      <trkpt lat="49.39255" lon="-0.98734">
        <ele>33.9</ele>
        <time>2020-06-16T14:30:57Z</time>
      </trkpt>
      <trkpt lat="49.39257" lon="-0.98734">
        <ele>33.9</ele>
        <time>2020-06-16T14:30:58Z</time>
      </trkpt>
      <trkpt lat="49.3926" lon="-0.98735">
        <ele>34</ele>
        <time>2020-06-16T14:30:59Z</time>
      </trkpt>
      <trkpt lat="49.39263" lon="-0.98737">
        <ele>34</ele>
        <time>2020-06-16T14:31:00Z</time>
      </trkpt>
      <trkpt lat="49.39264" lon="-0.98738">
        <ele>34.1</ele>
        <time>2020-06-16T14:31:01Z</time>
      </trkpt>
      <trkpt lat="49.39266" lon="-0.9874">
        <ele>34</ele>
        <time>2020-06-16T14:31:02Z</time>
      </trkpt>
      <trkpt lat="49.39268" lon="-0.9874">
        <ele>34</ele>
        <time>2020-06-16T14:31:03Z</time>
      </trkpt>
      <trkpt lat="49.39269" lon="-0.98738">
        <ele>34</ele>
        <time>2020-06-16T14:31:04Z</time>
      </trkpt>
      <trkpt lat="49.39271" lon="-0.98737">
        <ele>34</ele>
        <time>2020-06-16T14:31:05Z</time>
      </trkpt>
      <trkpt lat="49.39272" lon="-0.98737">
        <ele>33.9</ele>
        <time>2020-06-16T14:31:06Z</time>
      </trkpt>
      <trkpt lat="49.39274" lon="-0.98738">
        <ele>33.9</ele>
        <time>2020-06-16T14:31:07Z</time>
      </trkpt>
      <trkpt lat="49.39275" lon="-0.98739">
        <ele>33.9</ele>
        <time>2020-06-16T14:31:08Z</time>
      </trkpt>
      <trkpt lat="49.39277" lon="-0.98741">
        <ele>33.9</ele>
        <time>2020-06-16T14:31:09Z</time>
      </trkpt>
      <trkpt lat="49.3928" lon="-0.98741">
        <ele>33.8</ele>
        <time>2020-06-16T14:31:10Z</time>
      </trkpt>
      <trkpt lat="49.39284" lon="-0.9874">
        <ele>33.8</ele>
        <time>2020-06-16T14:31:11Z</time>
      </trkpt>
      <trkpt lat="49.39287" lon="-0.98738">
        <ele>33.7</ele>
        <time>2020-06-16T14:31:12Z</time>
      </trkpt>
      <trkpt lat="49.3929" lon="-0.98737">
        <ele>33.7</ele>
        <time>2020-06-16T14:31:13Z</time>
      </trkpt>
      <trkpt lat="49.39293" lon="-0.98736">
        <ele>33.6</ele>
        <time>2020-06-16T14:31:14Z</time>
      </trkpt>
      <trkpt lat="49.39297" lon="-0.98735">
        <ele>33.6</ele>
        <time>2020-06-16T14:31:15Z</time>
      </trkpt>
      <trkpt lat="49.39299" lon="-0.98735">
        <ele>33.6</ele>
        <time>2020-06-16T14:31:16Z</time>
      </trkpt>
      <trkpt lat="49.39303" lon="-0.98734">
        <ele>33.5</ele>
        <time>2020-06-16T14:31:17Z</time>
      </trkpt>
      <trkpt lat="49.39304" lon="-0.98734">
        <ele>33.5</ele>
        <time>2020-06-16T14:31:18Z</time>
      </trkpt>
      <trkpt lat="49.39305" lon="-0.98733">
        <ele>33.5</ele>
        <time>2020-06-16T14:31:19Z</time>
      </trkpt>
      <trkpt lat="49.39307" lon="-0.98733">
        <ele>33.4</ele>
        <time>2020-06-16T14:31:20Z</time>
      </trkpt>
      <trkpt lat="49.3931" lon="-0.98732">
        <ele>33.4</ele>
        <time>2020-06-16T14:31:21Z</time>
      </trkpt>
      <trkpt lat="49.39311" lon="-0.98732">
        <ele>33.4</ele>
        <time>2020-06-16T14:31:22Z</time>
      </trkpt>
      <trkpt lat="49.39313" lon="-0.98731">
        <ele>33.4</ele>
        <time>2020-06-16T14:31:23Z</time>
      </trkpt>
      <trkpt lat="49.39314" lon="-0.98731">
        <ele>33.3</ele>
        <time>2020-06-16T14:31:24Z</time>
      </trkpt>
      <trkpt lat="49.39315" lon="-0.9873">
        <ele>33.3</ele>
        <time>2020-06-16T14:31:25Z</time>
      </trkpt>
      <trkpt lat="49.39316" lon="-0.98729">
        <ele>33.3</ele>
        <time>2020-06-16T14:31:26Z</time>
      </trkpt>
      <trkpt lat="49.39317" lon="-0.98727">
        <ele>33.3</ele>
        <time>2020-06-16T14:31:27Z</time>
      </trkpt>
      <trkpt lat="49.39317" lon="-0.98727">
        <ele>33.3</ele>
        <time>2020-06-16T14:31:28Z</time>
      </trkpt>
      <trkpt lat="49.39318" lon="-0.98724">
        <ele>33.3</ele>
        <time>2020-06-16T14:31:29Z</time>
      </trkpt>
      <trkpt lat="49.39318" lon="-0.98722">
        <ele>33.3</ele>
        <time>2020-06-16T14:31:30Z</time>
      </trkpt>
      <trkpt lat="49.39318" lon="-0.98721">
        <ele>33.3</ele>
        <time>2020-06-16T14:31:31Z</time>
      </trkpt>
      <trkpt lat="49.39318" lon="-0.98719">
        <ele>33.3</ele>
        <time>2020-06-16T14:31:32Z</time>
      </trkpt>
      <trkpt lat="49.39319" lon="-0.98717">
        <ele>33.2</ele>
        <time>2020-06-16T14:31:33Z</time>
      </trkpt>
      <trkpt lat="49.39319" lon="-0.98716">
        <ele>33.2</ele>
        <time>2020-06-16T14:31:34Z</time>
      </trkpt>
      <trkpt lat="49.39319" lon="-0.98715">
        <ele>33.2</ele>
        <time>2020-06-16T14:31:35Z</time>
      </trkpt>
      <trkpt lat="49.3932" lon="-0.98716">
        <ele>33.2</ele>
        <time>2020-06-16T14:31:36Z</time>
      </trkpt>
      <trkpt lat="49.3932" lon="-0.98716">
        <ele>33.2</ele>
        <time>2020-06-16T14:31:37Z</time>
      </trkpt>
      <trkpt lat="49.39321" lon="-0.98716">
        <ele>33.2</ele>
        <time>2020-06-16T14:31:38Z</time>
      </trkpt>
      <trkpt lat="49.39321" lon="-0.98716">
        <ele>33.2</ele>
        <time>2020-06-16T14:31:39Z</time>
      </trkpt>
      <trkpt lat="49.39321" lon="-0.98716">
        <ele>33.2</ele>
        <time>2020-06-16T14:31:40Z</time>
      </trkpt>
      <trkpt lat="49.39321" lon="-0.98716">
        <ele>33.2</ele>
        <time>2020-06-16T14:31:41Z</time>
      </trkpt>
      <trkpt lat="49.39321" lon="-0.98716">
        <ele>33.2</ele>
        <time>2020-06-16T14:31:42Z</time>
      </trkpt>
      <trkpt lat="49.39321" lon="-0.98716">
        <ele>33.1</ele>
        <time>2020-06-16T14:31:43Z</time>
      </trkpt>
      <trkpt lat="49.39321" lon="-0.98716">
        <ele>33.1</ele>
        <time>2020-06-16T14:31:44Z</time>
      </trkpt>
      <trkpt lat="49.39325" lon="-0.98711">
        <ele>33.1</ele>
        <time>2020-06-16T14:31:54Z</time>
      </trkpt>
      <trkpt lat="49.39326" lon="-0.98711">
        <ele>33.1</ele>
        <time>2020-06-16T14:31:55Z</time>
      </trkpt>
      <trkpt lat="49.39326" lon="-0.9871">
        <ele>33.1</ele>
        <time>2020-06-16T14:31:56Z</time>
      </trkpt>
      <trkpt lat="49.39327" lon="-0.9871">
        <ele>33.1</ele>
        <time>2020-06-16T14:31:57Z</time>
      </trkpt>
      <trkpt lat="49.39327" lon="-0.9871">
        <ele>33.1</ele>
        <time>2020-06-16T14:31:58Z</time>
      </trkpt>
      <trkpt lat="49.39327" lon="-0.98709">
        <ele>33.1</ele>
        <time>2020-06-16T14:31:59Z</time>
      </trkpt>
      <trkpt lat="49.39328" lon="-0.98709">
        <ele>33.1</ele>
        <time>2020-06-16T14:32:00Z</time>
      </trkpt>
      <trkpt lat="49.39328" lon="-0.98708">
        <ele>33.1</ele>
        <time>2020-06-16T14:32:01Z</time>
      </trkpt>
      <trkpt lat="49.39328" lon="-0.98707">
        <ele>33.1</ele>
        <time>2020-06-16T14:32:02Z</time>
      </trkpt>
      <trkpt lat="49.39329" lon="-0.98707">
        <ele>33.1</ele>
        <time>2020-06-16T14:32:03Z</time>
      </trkpt>
      <trkpt lat="49.39329" lon="-0.98707">
        <ele>33.1</ele>
        <time>2020-06-16T14:32:04Z</time>
      </trkpt>
      <trkpt lat="49.39329" lon="-0.98707">
        <ele>33.1</ele>
        <time>2020-06-16T14:32:05Z</time>
      </trkpt>
      <trkpt lat="49.39329" lon="-0.98707">
        <ele>33.1</ele>
        <time>2020-06-16T14:32:06Z</time>
      </trkpt>
      <trkpt lat="49.39329" lon="-0.98707">
        <ele>33.1</ele>
        <time>2020-06-16T14:32:07Z</time>
      </trkpt>
      <trkpt lat="49.3933" lon="-0.98707">
        <ele>33.1</ele>
        <time>2020-06-16T14:32:08Z</time>
      </trkpt>
      <trkpt lat="49.3933" lon="-0.98706">
        <ele>33.1</ele>
        <time>2020-06-16T14:32:09Z</time>
      </trkpt>
      <trkpt lat="49.3933" lon="-0.98706">
        <ele>33.1</ele>
        <time>2020-06-16T14:32:10Z</time>
      </trkpt>
      <trkpt lat="49.3933" lon="-0.98705">
        <ele>33.1</ele>
        <time>2020-06-16T14:32:11Z</time>
      </trkpt>
      <trkpt lat="49.39329" lon="-0.98705">
        <ele>33.1</ele>
        <time>2020-06-16T14:32:12Z</time>
      </trkpt>
      <trkpt lat="49.39329" lon="-0.98705">
        <ele>33.1</ele>
        <time>2020-06-16T14:32:13Z</time>
      </trkpt>
      <trkpt lat="49.39329" lon="-0.98704">
        <ele>33.1</ele>
        <time>2020-06-16T14:32:14Z</time>
      </trkpt>
      <trkpt lat="49.39329" lon="-0.98704">
        <ele>33.1</ele>
        <time>2020-06-16T14:32:15Z</time>
      </trkpt>
      <trkpt lat="49.39329" lon="-0.98703">
        <ele>33.1</ele>
        <time>2020-06-16T14:32:16Z</time>
      </trkpt>
      <trkpt lat="49.39329" lon="-0.98707">
        <ele>33</ele>
        <time>2020-06-16T14:32:17Z</time>
      </trkpt>
      <trkpt lat="49.39329" lon="-0.98708">
        <ele>33</ele>
        <time>2020-06-16T14:32:18Z</time>
      </trkpt>
      <trkpt lat="49.39329" lon="-0.98709">
        <ele>33</ele>
        <time>2020-06-16T14:32:19Z</time>
      </trkpt>
      <trkpt lat="49.39329" lon="-0.98709">
        <ele>33</ele>
        <time>2020-06-16T14:32:20Z</time>
      </trkpt>
      <trkpt lat="49.3933" lon="-0.98711">
        <ele>33</ele>
        <time>2020-06-16T14:32:21Z</time>
      </trkpt>
      <trkpt lat="49.3933" lon="-0.98714">
        <ele>33</ele>
        <time>2020-06-16T14:32:22Z</time>
      </trkpt>
      <trkpt lat="49.3933" lon="-0.98716">
        <ele>33</ele>
        <time>2020-06-16T14:32:23Z</time>
      </trkpt>
      <trkpt lat="49.39331" lon="-0.98717">
        <ele>33</ele>
        <time>2020-06-16T14:32:24Z</time>
      </trkpt>
      <trkpt lat="49.39331" lon="-0.9872">
        <ele>32.9</ele>
        <time>2020-06-16T14:32:25Z</time>
      </trkpt>
      <trkpt lat="49.39331" lon="-0.98721">
        <ele>32.9</ele>
        <time>2020-06-16T14:32:26Z</time>
      </trkpt>
      <trkpt lat="49.39331" lon="-0.98723">
        <ele>32.9</ele>
        <time>2020-06-16T14:32:27Z</time>
      </trkpt>
      <trkpt lat="49.39331" lon="-0.98724">
        <ele>32.9</ele>
        <time>2020-06-16T14:32:28Z</time>
      </trkpt>
      <trkpt lat="49.39331" lon="-0.98725">
        <ele>32.9</ele>
        <time>2020-06-16T14:32:29Z</time>
      </trkpt>
      <trkpt lat="49.39331" lon="-0.98726">
        <ele>32.9</ele>
        <time>2020-06-16T14:32:30Z</time>
      </trkpt>
      <trkpt lat="49.3933" lon="-0.98725">
        <ele>32.9</ele>
        <time>2020-06-16T14:32:31Z</time>
      </trkpt>
      <trkpt lat="49.39329" lon="-0.98725">
        <ele>32.9</ele>
        <time>2020-06-16T14:32:32Z</time>
      </trkpt>
      <trkpt lat="49.39328" lon="-0.98725">
        <ele>32.9</ele>
        <time>2020-06-16T14:32:33Z</time>
      </trkpt>
      <trkpt lat="49.39327" lon="-0.98725">
        <ele>32.9</ele>
        <time>2020-06-16T14:32:34Z</time>
      </trkpt>
      <trkpt lat="49.39325" lon="-0.98724">
        <ele>32.9</ele>
        <time>2020-06-16T14:32:35Z</time>
      </trkpt>
      <trkpt lat="49.39325" lon="-0.98723">
        <ele>32.9</ele>
        <time>2020-06-16T14:32:36Z</time>
      </trkpt>
      <trkpt lat="49.39324" lon="-0.98721">
        <ele>32.9</ele>
        <time>2020-06-16T14:32:37Z</time>
      </trkpt>
      <trkpt lat="49.39324" lon="-0.98722">
        <ele>32.9</ele>
        <time>2020-06-16T14:32:38Z</time>
      </trkpt>
      <trkpt lat="49.39324" lon="-0.98722">
        <ele>32.9</ele>
        <time>2020-06-16T14:32:39Z</time>
      </trkpt>
      <trkpt lat="49.39323" lon="-0.98721">
        <ele>32.9</ele>
        <time>2020-06-16T14:32:40Z</time>
      </trkpt>
      <trkpt lat="49.39323" lon="-0.9872">
        <ele>32.9</ele>
        <time>2020-06-16T14:32:41Z</time>
      </trkpt>
      <trkpt lat="49.39323" lon="-0.9872">
        <ele>32.9</ele>
        <time>2020-06-16T14:32:42Z</time>
      </trkpt>
      <trkpt lat="49.39323" lon="-0.98721">
        <ele>32.9</ele>
        <time>2020-06-16T14:32:43Z</time>
      </trkpt>
      <trkpt lat="49.39323" lon="-0.9872">
        <ele>32.9</ele>
        <time>2020-06-16T14:32:44Z</time>
      </trkpt>
      <trkpt lat="49.39323" lon="-0.9872">
        <ele>32.9</ele>
        <time>2020-06-16T14:32:45Z</time>
      </trkpt>
      <trkpt lat="49.39323" lon="-0.9872">
        <ele>32.9</ele>
        <time>2020-06-16T14:32:46Z</time>
      </trkpt>
      <trkpt lat="49.39322" lon="-0.98719">
        <ele>32.9</ele>
        <time>2020-06-16T14:32:47Z</time>
      </trkpt>
      <trkpt lat="49.39322" lon="-0.98719">
        <ele>32.9</ele>
        <time>2020-06-16T14:32:48Z</time>
      </trkpt>
      <trkpt lat="49.39322" lon="-0.98719">
        <ele>32.9</ele>
        <time>2020-06-16T14:32:49Z</time>
      </trkpt>
      <trkpt lat="49.39322" lon="-0.98719">
        <ele>32.9</ele>
        <time>2020-06-16T14:32:50Z</time>
      </trkpt>
      <trkpt lat="49.39321" lon="-0.98715">
        <ele>32.9</ele>
        <time>2020-06-16T14:34:06Z</time>
      </trkpt>
      <trkpt lat="49.39322" lon="-0.98715">
        <ele>32.9</ele>
        <time>2020-06-16T14:34:07Z</time>
      </trkpt>
      <trkpt lat="49.39322" lon="-0.98715">
        <ele>32.9</ele>
        <time>2020-06-16T14:34:08Z</time>
      </trkpt>
      <trkpt lat="49.39322" lon="-0.98715">
        <ele>32.9</ele>
        <time>2020-06-16T14:34:09Z</time>
      </trkpt>
      <trkpt lat="49.39322" lon="-0.98715">
        <ele>32.9</ele>
        <time>2020-06-16T14:34:10Z</time>
      </trkpt>
      <trkpt lat="49.39322" lon="-0.98715">
        <ele>32.9</ele>
        <time>2020-06-16T14:34:11Z</time>
      </trkpt>
      <trkpt lat="49.39322" lon="-0.98715">
        <ele>32.9</ele>
        <time>2020-06-16T14:34:12Z</time>
      </trkpt>
      <trkpt lat="49.39322" lon="-0.98715">
        <ele>32.9</ele>
        <time>2020-06-16T14:34:13Z</time>
      </trkpt>
      <trkpt lat="49.39322" lon="-0.98715">
        <ele>32.9</ele>
        <time>2020-06-16T14:34:14Z</time>
      </trkpt>
      <trkpt lat="49.39322" lon="-0.98715">
        <ele>32.9</ele>
        <time>2020-06-16T14:34:15Z</time>
      </trkpt>
      <trkpt lat="49.39322" lon="-0.98715">
        <ele>32.9</ele>
        <time>2020-06-16T14:34:16Z</time>
      </trkpt>
      <trkpt lat="49.39322" lon="-0.98715">
        <ele>32.9</ele>
        <time>2020-06-16T14:34:17Z</time>
      </trkpt>
      <trkpt lat="49.39322" lon="-0.98715">
        <ele>32.9</ele>
        <time>2020-06-16T14:34:18Z</time>
      </trkpt>
      <trkpt lat="49.39316" lon="-0.98713">
        <ele>32.9</ele>
        <time>2020-06-16T14:34:45Z</time>
      </trkpt>
      <trkpt lat="49.39315" lon="-0.98714">
        <ele>32.9</ele>
        <time>2020-06-16T14:34:46Z</time>
      </trkpt>
      <trkpt lat="49.39315" lon="-0.98714">
        <ele>32.9</ele>
        <time>2020-06-16T14:34:47Z</time>
      </trkpt>
      <trkpt lat="49.39314" lon="-0.98714">
        <ele>32.9</ele>
        <time>2020-06-16T14:34:48Z</time>
      </trkpt>
      <trkpt lat="49.39314" lon="-0.98714">
        <ele>32.9</ele>
        <time>2020-06-16T14:34:49Z</time>
      </trkpt>
      <trkpt lat="49.39314" lon="-0.98714">
        <ele>32.9</ele>
        <time>2020-06-16T14:34:50Z</time>
      </trkpt>
      <trkpt lat="49.39314" lon="-0.98715">
        <ele>32.9</ele>
        <time>2020-06-16T14:34:51Z</time>
      </trkpt>
      <trkpt lat="49.39313" lon="-0.98715">
        <ele>32.9</ele>
        <time>2020-06-16T14:34:52Z</time>
      </trkpt>
      <trkpt lat="49.39313" lon="-0.98716">
        <ele>32.9</ele>
        <time>2020-06-16T14:34:53Z</time>
      </trkpt>
      <trkpt lat="49.39313" lon="-0.98715">
        <ele>32.9</ele>
        <time>2020-06-16T14:34:54Z</time>
      </trkpt>
      <trkpt lat="49.39313" lon="-0.98715">
        <ele>32.9</ele>
        <time>2020-06-16T14:34:55Z</time>
      </trkpt>
      <trkpt lat="49.39313" lon="-0.98715">
        <ele>32.9</ele>
        <time>2020-06-16T14:34:56Z</time>
      </trkpt>
      <trkpt lat="49.39312" lon="-0.98715">
        <ele>32.9</ele>
        <time>2020-06-16T14:34:57Z</time>
      </trkpt>
      <trkpt lat="49.39312" lon="-0.98715">
        <ele>32.9</ele>
        <time>2020-06-16T14:34:58Z</time>
      </trkpt>
      <trkpt lat="49.39312" lon="-0.98715">
        <ele>32.9</ele>
        <time>2020-06-16T14:34:59Z</time>
      </trkpt>
      <trkpt lat="49.39312" lon="-0.98715">
        <ele>32.9</ele>
        <time>2020-06-16T14:35:00Z</time>
      </trkpt>
      <trkpt lat="49.39311" lon="-0.98715">
        <ele>32.9</ele>
        <time>2020-06-16T14:35:01Z</time>
      </trkpt>
      <trkpt lat="49.39311" lon="-0.98714">
        <ele>32.9</ele>
        <time>2020-06-16T14:35:02Z</time>
      </trkpt>
      <trkpt lat="49.3931" lon="-0.98714">
        <ele>32.9</ele>
        <time>2020-06-16T14:35:03Z</time>
      </trkpt>
      <trkpt lat="49.3931" lon="-0.98714">
        <ele>32.9</ele>
        <time>2020-06-16T14:35:04Z</time>
      </trkpt>
      <trkpt lat="49.3931" lon="-0.98715">
        <ele>32.9</ele>
        <time>2020-06-16T14:35:05Z</time>
      </trkpt>
      <trkpt lat="49.39309" lon="-0.98716">
        <ele>32.9</ele>
        <time>2020-06-16T14:35:06Z</time>
      </trkpt>
      <trkpt lat="49.39309" lon="-0.98717">
        <ele>32.9</ele>
        <time>2020-06-16T14:35:07Z</time>
      </trkpt>
      <trkpt lat="49.39308" lon="-0.98718">
        <ele>32.9</ele>
        <time>2020-06-16T14:35:10Z</time>
      </trkpt>
      <trkpt lat="49.39309" lon="-0.98719">
        <ele>32.9</ele>
        <time>2020-06-16T14:35:11Z</time>
      </trkpt>
      <trkpt lat="49.39309" lon="-0.98719">
        <ele>32.9</ele>
        <time>2020-06-16T14:35:12Z</time>
      </trkpt>
      <trkpt lat="49.39309" lon="-0.98719">
        <ele>32.9</ele>
        <time>2020-06-16T14:35:13Z</time>
      </trkpt>
      <trkpt lat="49.39309" lon="-0.9872">
        <ele>32.9</ele>
        <time>2020-06-16T14:35:14Z</time>
      </trkpt>
      <trkpt lat="49.39309" lon="-0.9872">
        <ele>32.9</ele>
        <time>2020-06-16T14:35:15Z</time>
      </trkpt>
      <trkpt lat="49.3931" lon="-0.98721">
        <ele>32.9</ele>
        <time>2020-06-16T14:35:16Z</time>
      </trkpt>
      <trkpt lat="49.3931" lon="-0.98721">
        <ele>32.9</ele>
        <time>2020-06-16T14:35:17Z</time>
      </trkpt>
      <trkpt lat="49.3931" lon="-0.98722">
        <ele>32.9</ele>
        <time>2020-06-16T14:35:18Z</time>
      </trkpt>
      <trkpt lat="49.3931" lon="-0.98722">
        <ele>32.9</ele>
        <time>2020-06-16T14:35:19Z</time>
      </trkpt>
      <trkpt lat="49.3931" lon="-0.98723">
        <ele>32.9</ele>
        <time>2020-06-16T14:35:20Z</time>
      </trkpt>
      <trkpt lat="49.3931" lon="-0.98722">
        <ele>32.9</ele>
        <time>2020-06-16T14:35:21Z</time>
      </trkpt>
      <trkpt lat="49.3931" lon="-0.98721">
        <ele>32.9</ele>
        <time>2020-06-16T14:35:22Z</time>
      </trkpt>
      <trkpt lat="49.39309" lon="-0.98722">
        <ele>32.9</ele>
        <time>2020-06-16T14:35:23Z</time>
      </trkpt>
      <trkpt lat="49.39309" lon="-0.98721">
        <ele>32.9</ele>
        <time>2020-06-16T14:35:24Z</time>
      </trkpt>
      <trkpt lat="49.39309" lon="-0.98722">
        <ele>32.9</ele>
        <time>2020-06-16T14:35:25Z</time>
      </trkpt>
      <trkpt lat="49.39309" lon="-0.98722">
        <ele>32.9</ele>
        <time>2020-06-16T14:35:26Z</time>
      </trkpt>
      <trkpt lat="49.39309" lon="-0.98722">
        <ele>32.9</ele>
        <time>2020-06-16T14:35:27Z</time>
      </trkpt>
      <trkpt lat="49.39309" lon="-0.98722">
        <ele>32.9</ele>
        <time>2020-06-16T14:35:28Z</time>
      </trkpt>
      <trkpt lat="49.39309" lon="-0.98722">
        <ele>32.9</ele>
        <time>2020-06-16T14:35:29Z</time>
      </trkpt>
      <trkpt lat="49.39309" lon="-0.98721">
        <ele>32.9</ele>
        <time>2020-06-16T14:35:30Z</time>
      </trkpt>
      <trkpt lat="49.39308" lon="-0.98721">
        <ele>32.9</ele>
        <time>2020-06-16T14:35:31Z</time>
      </trkpt>
      <trkpt lat="49.39308" lon="-0.98721">
        <ele>32.8</ele>
        <time>2020-06-16T14:35:32Z</time>
      </trkpt>
      <trkpt lat="49.39307" lon="-0.9872">
        <ele>32.8</ele>
        <time>2020-06-16T14:35:33Z</time>
      </trkpt>
      <trkpt lat="49.39307" lon="-0.98719">
        <ele>32.8</ele>
        <time>2020-06-16T14:35:34Z</time>
      </trkpt>
      <trkpt lat="49.39307" lon="-0.98718">
        <ele>32.8</ele>
        <time>2020-06-16T14:35:35Z</time>
      </trkpt>
      <trkpt lat="49.39308" lon="-0.98717">
        <ele>32.8</ele>
        <time>2020-06-16T14:35:36Z</time>
      </trkpt>
      <trkpt lat="49.39308" lon="-0.98717">
        <ele>32.8</ele>
        <time>2020-06-16T14:35:37Z</time>
      </trkpt>
      <trkpt lat="49.39308" lon="-0.98716">
        <ele>32.8</ele>
        <time>2020-06-16T14:35:38Z</time>
      </trkpt>
      <trkpt lat="49.39308" lon="-0.98716">
        <ele>32.8</ele>
        <time>2020-06-16T14:35:39Z</time>
      </trkpt>
      <trkpt lat="49.39308" lon="-0.98716">
        <ele>32.8</ele>
        <time>2020-06-16T14:35:40Z</time>
      </trkpt>
      <trkpt lat="49.39308" lon="-0.98717">
        <ele>32.8</ele>
        <time>2020-06-16T14:35:41Z</time>
      </trkpt>
      <trkpt lat="49.39308" lon="-0.98717">
        <ele>32.8</ele>
        <time>2020-06-16T14:35:42Z</time>
      </trkpt>
      <trkpt lat="49.39308" lon="-0.98718">
        <ele>32.8</ele>
        <time>2020-06-16T14:35:43Z</time>
      </trkpt>
      <trkpt lat="49.39308" lon="-0.98717">
        <ele>32.8</ele>
        <time>2020-06-16T14:35:44Z</time>
      </trkpt>
      <trkpt lat="49.39308" lon="-0.98717">
        <ele>32.8</ele>
        <time>2020-06-16T14:35:45Z</time>
      </trkpt>
      <trkpt lat="49.39308" lon="-0.98716">
        <ele>32.8</ele>
        <time>2020-06-16T14:35:46Z</time>
      </trkpt>
      <trkpt lat="49.39308" lon="-0.98716">
        <ele>32.8</ele>
        <time>2020-06-16T14:35:47Z</time>
      </trkpt>
      <trkpt lat="49.39308" lon="-0.98717">
        <ele>32.8</ele>
        <time>2020-06-16T14:35:48Z</time>
      </trkpt>
      <trkpt lat="49.39307" lon="-0.98717">
        <ele>32.8</ele>
        <time>2020-06-16T14:35:49Z</time>
      </trkpt>
      <trkpt lat="49.39307" lon="-0.98718">
        <ele>32.8</ele>
        <time>2020-06-16T14:35:50Z</time>
      </trkpt>
      <trkpt lat="49.39306" lon="-0.98718">
        <ele>32.8</ele>
        <time>2020-06-16T14:35:51Z</time>
      </trkpt>
      <trkpt lat="49.39306" lon="-0.98718">
        <ele>32.8</ele>
        <time>2020-06-16T14:35:52Z</time>
      </trkpt>
      <trkpt lat="49.39307" lon="-0.98718">
        <ele>32.8</ele>
        <time>2020-06-16T14:35:53Z</time>
      </trkpt>
      <trkpt lat="49.39307" lon="-0.98718">
        <ele>32.8</ele>
        <time>2020-06-16T14:35:54Z</time>
      </trkpt>
      <trkpt lat="49.39307" lon="-0.98719">
        <ele>32.8</ele>
        <time>2020-06-16T14:35:55Z</time>
      </trkpt>
      <trkpt lat="49.39306" lon="-0.98719">
        <ele>32.8</ele>
        <time>2020-06-16T14:35:56Z</time>
      </trkpt>
      <trkpt lat="49.39306" lon="-0.9872">
        <ele>32.8</ele>
        <time>2020-06-16T14:35:57Z</time>
      </trkpt>
      <trkpt lat="49.39305" lon="-0.98721">
        <ele>32.8</ele>
        <time>2020-06-16T14:35:58Z</time>
      </trkpt>
      <trkpt lat="49.39306" lon="-0.9872">
        <ele>32.8</ele>
        <time>2020-06-16T14:35:59Z</time>
      </trkpt>
      <trkpt lat="49.39306" lon="-0.9872">
        <ele>32.8</ele>
        <time>2020-06-16T14:36:00Z</time>
      </trkpt>
      <trkpt lat="49.39306" lon="-0.9872">
        <ele>32.8</ele>
        <time>2020-06-16T14:36:01Z</time>
      </trkpt>
      <trkpt lat="49.39306" lon="-0.98721">
        <ele>32.8</ele>
        <time>2020-06-16T14:36:02Z</time>
      </trkpt>
      <trkpt lat="49.39306" lon="-0.98721">
        <ele>32.8</ele>
        <time>2020-06-16T14:36:03Z</time>
      </trkpt>
      <trkpt lat="49.39306" lon="-0.98721">
        <ele>32.8</ele>
        <time>2020-06-16T14:36:04Z</time>
      </trkpt>
      <trkpt lat="49.39306" lon="-0.98721">
        <ele>32.8</ele>
        <time>2020-06-16T14:36:05Z</time>
      </trkpt>
      <trkpt lat="49.39306" lon="-0.98721">
        <ele>32.8</ele>
        <time>2020-06-16T14:36:06Z</time>
      </trkpt>
      <trkpt lat="49.39306" lon="-0.98721">
        <ele>32.8</ele>
        <time>2020-06-16T14:36:07Z</time>
      </trkpt>
      <trkpt lat="49.39306" lon="-0.98721">
        <ele>32.8</ele>
        <time>2020-06-16T14:36:08Z</time>
      </trkpt>
      <trkpt lat="49.39306" lon="-0.9872">
        <ele>32.8</ele>
        <time>2020-06-16T14:36:09Z</time>
      </trkpt>
      <trkpt lat="49.39307" lon="-0.9872">
        <ele>32.8</ele>
        <time>2020-06-16T14:36:10Z</time>
      </trkpt>
      <trkpt lat="49.39307" lon="-0.9872">
        <ele>32.8</ele>
        <time>2020-06-16T14:36:11Z</time>
      </trkpt>
      <trkpt lat="49.39307" lon="-0.9872">
        <ele>32.8</ele>
        <time>2020-06-16T14:36:12Z</time>
      </trkpt>
      <trkpt lat="49.39307" lon="-0.9872">
        <ele>32.8</ele>
        <time>2020-06-16T14:36:13Z</time>
      </trkpt>
      <trkpt lat="49.39307" lon="-0.98719">
        <ele>32.8</ele>
        <time>2020-06-16T14:36:14Z</time>
      </trkpt>
      <trkpt lat="49.39307" lon="-0.98719">
        <ele>32.8</ele>
        <time>2020-06-16T14:36:15Z</time>
      </trkpt>
      <trkpt lat="49.39307" lon="-0.98719">
        <ele>32.8</ele>
        <time>2020-06-16T14:36:16Z</time>
      </trkpt>
      <trkpt lat="49.39307" lon="-0.98719">
        <ele>32.8</ele>
        <time>2020-06-16T14:36:17Z</time>
      </trkpt>
      <trkpt lat="49.39307" lon="-0.98719">
        <ele>32.8</ele>
        <time>2020-06-16T14:36:18Z</time>
      </trkpt>
      <trkpt lat="49.39308" lon="-0.98718">
        <ele>32.8</ele>
        <time>2020-06-16T14:36:19Z</time>
      </trkpt>
      <trkpt lat="49.39309" lon="-0.98717">
        <ele>32.8</ele>
        <time>2020-06-16T14:36:20Z</time>
      </trkpt>
      <trkpt lat="49.39309" lon="-0.98718">
        <ele>32.8</ele>
        <time>2020-06-16T14:36:21Z</time>
      </trkpt>
      <trkpt lat="49.39155" lon="-0.99025">
        <ele>32.9</ele>
        <time>2020-06-16T15:27:16Z</time>
      </trkpt>
      <trkpt lat="49.39149" lon="-0.99032">
        <ele>32.9</ele>
        <time>2020-06-16T15:27:17Z</time>
      </trkpt>
      <trkpt lat="49.39146" lon="-0.99034">
        <ele>32.9</ele>
        <time>2020-06-16T15:27:18Z</time>
      </trkpt>
      <trkpt lat="49.39142" lon="-0.99037">
        <ele>32.9</ele>
        <time>2020-06-16T15:27:19Z</time>
      </trkpt>
      <trkpt lat="49.39138" lon="-0.99039">
        <ele>32.9</ele>
        <time>2020-06-16T15:27:20Z</time>
      </trkpt>
      <trkpt lat="49.39135" lon="-0.99041">
        <ele>32.9</ele>
        <time>2020-06-16T15:27:21Z</time>
      </trkpt>
      <trkpt lat="49.39131" lon="-0.99044">
        <ele>32.9</ele>
        <time>2020-06-16T15:27:22Z</time>
      </trkpt>
      <trkpt lat="49.39126" lon="-0.99044">
        <ele>32.9</ele>
        <time>2020-06-16T15:27:24Z</time>
      </trkpt>
      <trkpt lat="49.39121" lon="-0.99046">
        <ele>32.9</ele>
        <time>2020-06-16T15:27:25Z</time>
      </trkpt>
      <trkpt lat="49.39117" lon="-0.99047">
        <ele>32.9</ele>
        <time>2020-06-16T15:27:26Z</time>
      </trkpt>
      <trkpt lat="49.39114" lon="-0.99049">
        <ele>32.9</ele>
        <time>2020-06-16T15:27:27Z</time>
      </trkpt>
      <trkpt lat="49.39106" lon="-0.99053">
        <ele>32.9</ele>
        <time>2020-06-16T15:27:28Z</time>
      </trkpt>
      <trkpt lat="49.39101" lon="-0.99055">
        <ele>33</ele>
        <time>2020-06-16T15:27:29Z</time>
      </trkpt>
      <trkpt lat="49.39097" lon="-0.99057">
        <ele>33</ele>
        <time>2020-06-16T15:27:30Z</time>
      </trkpt>
      <trkpt lat="49.39091" lon="-0.9906">
        <ele>33</ele>
        <time>2020-06-16T15:27:31Z</time>
      </trkpt>
      <trkpt lat="49.39086" lon="-0.99062">
        <ele>33</ele>
        <time>2020-06-16T15:27:32Z</time>
      </trkpt>
      <trkpt lat="49.39081" lon="-0.99064">
        <ele>33.1</ele>
        <time>2020-06-16T15:27:33Z</time>
      </trkpt>
      <trkpt lat="49.39076" lon="-0.99066">
        <ele>33.1</ele>
        <time>2020-06-16T15:27:34Z</time>
      </trkpt>
      <trkpt lat="49.39071" lon="-0.9907">
        <ele>33.1</ele>
        <time>2020-06-16T15:27:35Z</time>
      </trkpt>
      <trkpt lat="49.39061" lon="-0.99074">
        <ele>33.2</ele>
        <time>2020-06-16T15:27:37Z</time>
      </trkpt>
      <trkpt lat="49.39056" lon="-0.99077">
        <ele>33.2</ele>
        <time>2020-06-16T15:27:38Z</time>
      </trkpt>
      <trkpt lat="49.39051" lon="-0.99079">
        <ele>33.3</ele>
        <time>2020-06-16T15:27:39Z</time>
      </trkpt>
      <trkpt lat="49.39046" lon="-0.99081">
        <ele>33.3</ele>
        <time>2020-06-16T15:27:40Z</time>
      </trkpt>
      <trkpt lat="49.3904" lon="-0.99083">
        <ele>33.3</ele>
        <time>2020-06-16T15:27:41Z</time>
      </trkpt>
      <trkpt lat="49.39035" lon="-0.99085">
        <ele>33.3</ele>
        <time>2020-06-16T15:27:42Z</time>
      </trkpt>
      <trkpt lat="49.39031" lon="-0.99086">
        <ele>33.3</ele>
        <time>2020-06-16T15:27:43Z</time>
      </trkpt>
      <trkpt lat="49.39026" lon="-0.99088">
        <ele>33.4</ele>
        <time>2020-06-16T15:27:44Z</time>
      </trkpt>
      <trkpt lat="49.39021" lon="-0.9909">
        <ele>33.4</ele>
        <time>2020-06-16T15:27:45Z</time>
      </trkpt>
      <trkpt lat="49.39016" lon="-0.99092">
        <ele>33.4</ele>
        <time>2020-06-16T15:27:46Z</time>
      </trkpt>
      <trkpt lat="49.3901" lon="-0.99093">
        <ele>33.5</ele>
        <time>2020-06-16T15:27:47Z</time>
      </trkpt>
      <trkpt lat="49.39006" lon="-0.99094">
        <ele>33.5</ele>
        <time>2020-06-16T15:27:48Z</time>
      </trkpt>
      <trkpt lat="49.39002" lon="-0.99095">
        <ele>33.5</ele>
        <time>2020-06-16T15:27:49Z</time>
      </trkpt>
      <trkpt lat="49.38997" lon="-0.99098">
        <ele>33.5</ele>
        <time>2020-06-16T15:27:50Z</time>
      </trkpt>
      <trkpt lat="49.38993" lon="-0.99099">
        <ele>33.5</ele>
        <time>2020-06-16T15:27:51Z</time>
      </trkpt>
      <trkpt lat="49.38988" lon="-0.99101">
        <ele>33.5</ele>
        <time>2020-06-16T15:27:52Z</time>
      </trkpt>
      <trkpt lat="49.38984" lon="-0.99102">
        <ele>33.4</ele>
        <time>2020-06-16T15:27:53Z</time>
      </trkpt>
      <trkpt lat="49.38978" lon="-0.99104">
        <ele>33.4</ele>
        <time>2020-06-16T15:27:54Z</time>
      </trkpt>
      <trkpt lat="49.38973" lon="-0.99105">
        <ele>33.4</ele>
        <time>2020-06-16T15:27:55Z</time>
      </trkpt>
      <trkpt lat="49.38968" lon="-0.99107">
        <ele>33.4</ele>
        <time>2020-06-16T15:27:56Z</time>
      </trkpt>
      <trkpt lat="49.38964" lon="-0.99108">
        <ele>33.5</ele>
        <time>2020-06-16T15:27:57Z</time>
      </trkpt>
      <trkpt lat="49.38959" lon="-0.99109">
        <ele>33.5</ele>
        <time>2020-06-16T15:27:58Z</time>
      </trkpt>
      <trkpt lat="49.38954" lon="-0.99111">
        <ele>33.5</ele>
        <time>2020-06-16T15:27:59Z</time>
      </trkpt>
      <trkpt lat="49.3895" lon="-0.99113">
        <ele>33.6</ele>
        <time>2020-06-16T15:28:00Z</time>
      </trkpt>
      <trkpt lat="49.38945" lon="-0.99115">
        <ele>33.6</ele>
        <time>2020-06-16T15:28:01Z</time>
      </trkpt>
      <trkpt lat="49.3894" lon="-0.99117">
        <ele>33.7</ele>
        <time>2020-06-16T15:28:02Z</time>
      </trkpt>
      <trkpt lat="49.38935" lon="-0.99119">
        <ele>33.7</ele>
        <time>2020-06-16T15:28:03Z</time>
      </trkpt>
      <trkpt lat="49.3893" lon="-0.99121">
        <ele>33.6</ele>
        <time>2020-06-16T15:28:04Z</time>
      </trkpt>
      <trkpt lat="49.38926" lon="-0.99125">
        <ele>33.5</ele>
        <time>2020-06-16T15:28:05Z</time>
      </trkpt>
      <trkpt lat="49.38922" lon="-0.99129">
        <ele>33.4</ele>
        <time>2020-06-16T15:28:06Z</time>
      </trkpt>
      <trkpt lat="49.38918" lon="-0.99134">
        <ele>33.3</ele>
        <time>2020-06-16T15:28:07Z</time>
      </trkpt>
      <trkpt lat="49.38914" lon="-0.99138">
        <ele>33.3</ele>
        <time>2020-06-16T15:28:08Z</time>
      </trkpt>
      <trkpt lat="49.3891" lon="-0.99142">
        <ele>33.3</ele>
        <time>2020-06-16T15:28:09Z</time>
      </trkpt>
      <trkpt lat="49.38906" lon="-0.99145">
        <ele>33.2</ele>
        <time>2020-06-16T15:28:10Z</time>
      </trkpt>
      <trkpt lat="49.38902" lon="-0.99147">
        <ele>33.2</ele>
        <time>2020-06-16T15:28:11Z</time>
      </trkpt>
      <trkpt lat="49.38899" lon="-0.99146">
        <ele>33.2</ele>
        <time>2020-06-16T15:28:12Z</time>
      </trkpt>
      <trkpt lat="49.38897" lon="-0.99143">
        <ele>33.2</ele>
        <time>2020-06-16T15:28:13Z</time>
      </trkpt>
      <trkpt lat="49.38895" lon="-0.99137">
        <ele>33.2</ele>
        <time>2020-06-16T15:28:14Z</time>
      </trkpt>
      <trkpt lat="49.38894" lon="-0.9913">
        <ele>33.1</ele>
        <time>2020-06-16T15:28:15Z</time>
      </trkpt>
      <trkpt lat="49.38895" lon="-0.99124">
        <ele>33.1</ele>
        <time>2020-06-16T15:28:16Z</time>
      </trkpt>
      <trkpt lat="49.38896" lon="-0.99117">
        <ele>33.2</ele>
        <time>2020-06-16T15:28:17Z</time>
      </trkpt>
      <trkpt lat="49.38897" lon="-0.99109">
        <ele>33.2</ele>
        <time>2020-06-16T15:28:18Z</time>
      </trkpt>
      <trkpt lat="49.38897" lon="-0.99102">
        <ele>33.2</ele>
        <time>2020-06-16T15:28:19Z</time>
      </trkpt>
      <trkpt lat="49.38897" lon="-0.99095">
        <ele>33.2</ele>
        <time>2020-06-16T15:28:20Z</time>
      </trkpt>
      <trkpt lat="49.38898" lon="-0.99088">
        <ele>33.2</ele>
        <time>2020-06-16T15:28:21Z</time>
      </trkpt>
      <trkpt lat="49.38897" lon="-0.99081">
        <ele>33.2</ele>
        <time>2020-06-16T15:28:22Z</time>
      </trkpt>
      <trkpt lat="49.38897" lon="-0.99073">
        <ele>33.2</ele>
        <time>2020-06-16T15:28:23Z</time>
      </trkpt>
      <trkpt lat="49.38896" lon="-0.99065">
        <ele>33.2</ele>
        <time>2020-06-16T15:28:24Z</time>
      </trkpt>
      <trkpt lat="49.38895" lon="-0.99056">
        <ele>33.2</ele>
        <time>2020-06-16T15:28:25Z</time>
      </trkpt>
      <trkpt lat="49.38894" lon="-0.99048">
        <ele>33.3</ele>
        <time>2020-06-16T15:28:26Z</time>
      </trkpt>
      <trkpt lat="49.38893" lon="-0.9904">
        <ele>33.3</ele>
        <time>2020-06-16T15:28:27Z</time>
      </trkpt>
      <trkpt lat="49.38892" lon="-0.99033">
        <ele>33.3</ele>
        <time>2020-06-16T15:28:28Z</time>
      </trkpt>
      <trkpt lat="49.38891" lon="-0.99025">
        <ele>33.3</ele>
        <time>2020-06-16T15:28:29Z</time>
      </trkpt>
      <trkpt lat="49.38891" lon="-0.99016">
        <ele>33.3</ele>
        <time>2020-06-16T15:28:30Z</time>
      </trkpt>
      <trkpt lat="49.38891" lon="-0.99009">
        <ele>33.4</ele>
        <time>2020-06-16T15:28:31Z</time>
      </trkpt>
      <trkpt lat="49.38891" lon="-0.99001">
        <ele>33.4</ele>
        <time>2020-06-16T15:28:32Z</time>
      </trkpt>
      <trkpt lat="49.3889" lon="-0.98994">
        <ele>33.4</ele>
        <time>2020-06-16T15:28:33Z</time>
      </trkpt>
      <trkpt lat="49.38889" lon="-0.98987">
        <ele>33.5</ele>
        <time>2020-06-16T15:28:34Z</time>
      </trkpt>
      <trkpt lat="49.38888" lon="-0.98979">
        <ele>33.5</ele>
        <time>2020-06-16T15:28:35Z</time>
      </trkpt>
      <trkpt lat="49.38887" lon="-0.98973">
        <ele>33.5</ele>
        <time>2020-06-16T15:28:36Z</time>
      </trkpt>
      <trkpt lat="49.38887" lon="-0.98967">
        <ele>33.6</ele>
        <time>2020-06-16T15:28:37Z</time>
      </trkpt>
      <trkpt lat="49.38887" lon="-0.98959">
        <ele>33.6</ele>
        <time>2020-06-16T15:28:38Z</time>
      </trkpt>
      <trkpt lat="49.38886" lon="-0.98951">
        <ele>33.7</ele>
        <time>2020-06-16T15:28:39Z</time>
      </trkpt>
      <trkpt lat="49.38886" lon="-0.98942">
        <ele>33.7</ele>
        <time>2020-06-16T15:28:40Z</time>
      </trkpt>
      <trkpt lat="49.38886" lon="-0.98934">
        <ele>33.8</ele>
        <time>2020-06-16T15:28:41Z</time>
      </trkpt>
      <trkpt lat="49.38886" lon="-0.98925">
        <ele>33.8</ele>
        <time>2020-06-16T15:28:42Z</time>
      </trkpt>
      <trkpt lat="49.38886" lon="-0.98917">
        <ele>33.8</ele>
        <time>2020-06-16T15:28:43Z</time>
      </trkpt>
      <trkpt lat="49.38886" lon="-0.98909">
        <ele>33.9</ele>
        <time>2020-06-16T15:28:44Z</time>
      </trkpt>
      <trkpt lat="49.38887" lon="-0.98901">
        <ele>33.9</ele>
        <time>2020-06-16T15:28:45Z</time>
      </trkpt>
      <trkpt lat="49.38887" lon="-0.98893">
        <ele>33.9</ele>
        <time>2020-06-16T15:28:46Z</time>
      </trkpt>
      <trkpt lat="49.38886" lon="-0.98886">
        <ele>33.9</ele>
        <time>2020-06-16T15:28:47Z</time>
      </trkpt>
      <trkpt lat="49.38886" lon="-0.98876">
        <ele>34</ele>
        <time>2020-06-16T15:28:48Z</time>
      </trkpt>
      <trkpt lat="49.38885" lon="-0.98868">
        <ele>34</ele>
        <time>2020-06-16T15:28:49Z</time>
      </trkpt>
      <trkpt lat="49.38883" lon="-0.9886">
        <ele>34</ele>
        <time>2020-06-16T15:28:50Z</time>
      </trkpt>
      <trkpt lat="49.38882" lon="-0.98852">
        <ele>34.1</ele>
        <time>2020-06-16T15:28:51Z</time>
      </trkpt>
      <trkpt lat="49.38881" lon="-0.98845">
        <ele>34.1</ele>
        <time>2020-06-16T15:28:52Z</time>
      </trkpt>
      <trkpt lat="49.38879" lon="-0.98838">
        <ele>34.2</ele>
        <time>2020-06-16T15:28:53Z</time>
      </trkpt>
      <trkpt lat="49.38877" lon="-0.98831">
        <ele>34.3</ele>
        <time>2020-06-16T15:28:54Z</time>
      </trkpt>
      <trkpt lat="49.38875" lon="-0.98824">
        <ele>34.3</ele>
        <time>2020-06-16T15:28:55Z</time>
      </trkpt>
      <trkpt lat="49.38873" lon="-0.98816">
        <ele>34.4</ele>
        <time>2020-06-16T15:28:56Z</time>
      </trkpt>
      <trkpt lat="49.38872" lon="-0.98809">
        <ele>34.5</ele>
        <time>2020-06-16T15:28:57Z</time>
      </trkpt>
      <trkpt lat="49.3887" lon="-0.98801">
        <ele>34.5</ele>
        <time>2020-06-16T15:28:58Z</time>
      </trkpt>
      <trkpt lat="49.38869" lon="-0.98794">
        <ele>34.6</ele>
        <time>2020-06-16T15:28:59Z</time>
      </trkpt>
      <trkpt lat="49.38868" lon="-0.98786">
        <ele>34.7</ele>
        <time>2020-06-16T15:29:00Z</time>
      </trkpt>
      <trkpt lat="49.38866" lon="-0.98779">
        <ele>34.7</ele>
        <time>2020-06-16T15:29:01Z</time>
      </trkpt>
      <trkpt lat="49.38865" lon="-0.98771">
        <ele>34.8</ele>
        <time>2020-06-16T15:29:02Z</time>
      </trkpt>
      <trkpt lat="49.38864" lon="-0.98764">
        <ele>34.8</ele>
        <time>2020-06-16T15:29:03Z</time>
      </trkpt>
      <trkpt lat="49.38862" lon="-0.98758">
        <ele>34.9</ele>
        <time>2020-06-16T15:29:04Z</time>
      </trkpt>
      <trkpt lat="49.38861" lon="-0.98751">
        <ele>34.9</ele>
        <time>2020-06-16T15:29:05Z</time>
      </trkpt>
      <trkpt lat="49.38861" lon="-0.98743">
        <ele>35</ele>
        <time>2020-06-16T15:29:06Z</time>
      </trkpt>
      <trkpt lat="49.38859" lon="-0.98736">
        <ele>35</ele>
        <time>2020-06-16T15:29:07Z</time>
      </trkpt>
      <trkpt lat="49.38857" lon="-0.98729">
        <ele>35.1</ele>
        <time>2020-06-16T15:29:08Z</time>
      </trkpt>
      <trkpt lat="49.38856" lon="-0.98722">
        <ele>35.1</ele>
        <time>2020-06-16T15:29:09Z</time>
      </trkpt>
      <trkpt lat="49.38855" lon="-0.98715">
        <ele>35.1</ele>
        <time>2020-06-16T15:29:10Z</time>
      </trkpt>
      <trkpt lat="49.38853" lon="-0.98707">
        <ele>35.2</ele>
        <time>2020-06-16T15:29:11Z</time>
      </trkpt>
      <trkpt lat="49.38852" lon="-0.987">
        <ele>35.2</ele>
        <time>2020-06-16T15:29:12Z</time>
      </trkpt>
      <trkpt lat="49.38851" lon="-0.98693">
        <ele>35.2</ele>
        <time>2020-06-16T15:29:13Z</time>
      </trkpt>
      <trkpt lat="49.38849" lon="-0.98686">
        <ele>35.2</ele>
        <time>2020-06-16T15:29:14Z</time>
      </trkpt>
      <trkpt lat="49.38849" lon="-0.98678">
        <ele>35.3</ele>
        <time>2020-06-16T15:29:15Z</time>
      </trkpt>
      <trkpt lat="49.38848" lon="-0.98669">
        <ele>35.3</ele>
        <time>2020-06-16T15:29:16Z</time>
      </trkpt>
      <trkpt lat="49.38847" lon="-0.98661">
        <ele>35.3</ele>
        <time>2020-06-16T15:29:17Z</time>
      </trkpt>
      <trkpt lat="49.38846" lon="-0.98654">
        <ele>35.3</ele>
        <time>2020-06-16T15:29:18Z</time>
      </trkpt>
      <trkpt lat="49.38845" lon="-0.98648">
        <ele>35.3</ele>
        <time>2020-06-16T15:29:19Z</time>
      </trkpt>
      <trkpt lat="49.38844" lon="-0.98641">
        <ele>35.4</ele>
        <time>2020-06-16T15:29:20Z</time>
      </trkpt>
      <trkpt lat="49.38844" lon="-0.98633">
        <ele>35.4</ele>
        <time>2020-06-16T15:29:21Z</time>
      </trkpt>
      <trkpt lat="49.38843" lon="-0.98625">
        <ele>35.4</ele>
        <time>2020-06-16T15:29:22Z</time>
      </trkpt>
      <trkpt lat="49.38842" lon="-0.98618">
        <ele>35.5</ele>
        <time>2020-06-16T15:29:23Z</time>
      </trkpt>
      <trkpt lat="49.38841" lon="-0.98612">
        <ele>35.5</ele>
        <time>2020-06-16T15:29:24Z</time>
      </trkpt>
      <trkpt lat="49.38839" lon="-0.98604">
        <ele>35.6</ele>
        <time>2020-06-16T15:29:25Z</time>
      </trkpt>
      <trkpt lat="49.38838" lon="-0.98597">
        <ele>35.6</ele>
        <time>2020-06-16T15:29:26Z</time>
      </trkpt>
      <trkpt lat="49.38837" lon="-0.9859">
        <ele>35.6</ele>
        <time>2020-06-16T15:29:27Z</time>
      </trkpt>
      <trkpt lat="49.38836" lon="-0.98582">
        <ele>35.6</ele>
        <time>2020-06-16T15:29:28Z</time>
      </trkpt>
      <trkpt lat="49.38835" lon="-0.98575">
        <ele>35.7</ele>
        <time>2020-06-16T15:29:29Z</time>
      </trkpt>
      <trkpt lat="49.38834" lon="-0.98567">
        <ele>35.7</ele>
        <time>2020-06-16T15:29:30Z</time>
      </trkpt>
      <trkpt lat="49.38832" lon="-0.98559">
        <ele>35.8</ele>
        <time>2020-06-16T15:29:31Z</time>
      </trkpt>
      <trkpt lat="49.38831" lon="-0.98552">
        <ele>35.9</ele>
        <time>2020-06-16T15:29:32Z</time>
      </trkpt>
      <trkpt lat="49.3883" lon="-0.98545">
        <ele>36</ele>
        <time>2020-06-16T15:29:33Z</time>
      </trkpt>
      <trkpt lat="49.38828" lon="-0.98538">
        <ele>36.1</ele>
        <time>2020-06-16T15:29:34Z</time>
      </trkpt>
      <trkpt lat="49.38827" lon="-0.98531">
        <ele>36</ele>
        <time>2020-06-16T15:29:35Z</time>
      </trkpt>
      <trkpt lat="49.38825" lon="-0.98523">
        <ele>36</ele>
        <time>2020-06-16T15:29:36Z</time>
      </trkpt>
      <trkpt lat="49.38823" lon="-0.98517">
        <ele>36</ele>
        <time>2020-06-16T15:29:37Z</time>
      </trkpt>
      <trkpt lat="49.38823" lon="-0.98509">
        <ele>35.9</ele>
        <time>2020-06-16T15:29:38Z</time>
      </trkpt>
      <trkpt lat="49.38822" lon="-0.98501">
        <ele>35.9</ele>
        <time>2020-06-16T15:29:39Z</time>
      </trkpt>
      <trkpt lat="49.38821" lon="-0.98493">
        <ele>35.9</ele>
        <time>2020-06-16T15:29:40Z</time>
      </trkpt>
      <trkpt lat="49.38819" lon="-0.98485">
        <ele>35.9</ele>
        <time>2020-06-16T15:29:41Z</time>
      </trkpt>
      <trkpt lat="49.38819" lon="-0.98477">
        <ele>35.9</ele>
        <time>2020-06-16T15:29:42Z</time>
      </trkpt>
      <trkpt lat="49.38817" lon="-0.98468">
        <ele>35.9</ele>
        <time>2020-06-16T15:29:43Z</time>
      </trkpt>
      <trkpt lat="49.38816" lon="-0.9846">
        <ele>35.9</ele>
        <time>2020-06-16T15:29:44Z</time>
      </trkpt>
      <trkpt lat="49.38815" lon="-0.98452">
        <ele>35.9</ele>
        <time>2020-06-16T15:29:45Z</time>
      </trkpt>
      <trkpt lat="49.38814" lon="-0.98445">
        <ele>35.9</ele>
        <time>2020-06-16T15:29:46Z</time>
      </trkpt>
      <trkpt lat="49.38812" lon="-0.98438">
        <ele>35.9</ele>
        <time>2020-06-16T15:29:47Z</time>
      </trkpt>
      <trkpt lat="49.3881" lon="-0.98431">
        <ele>36</ele>
        <time>2020-06-16T15:29:48Z</time>
      </trkpt>
      <trkpt lat="49.38808" lon="-0.98425">
        <ele>36</ele>
        <time>2020-06-16T15:29:49Z</time>
      </trkpt>
      <trkpt lat="49.38805" lon="-0.98417">
        <ele>36</ele>
        <time>2020-06-16T15:29:50Z</time>
      </trkpt>
      <trkpt lat="49.38803" lon="-0.9841">
        <ele>36</ele>
        <time>2020-06-16T15:29:51Z</time>
      </trkpt>
      <trkpt lat="49.388" lon="-0.98402">
        <ele>36</ele>
        <time>2020-06-16T15:29:52Z</time>
      </trkpt>
      <trkpt lat="49.38798" lon="-0.98395">
        <ele>36</ele>
        <time>2020-06-16T15:29:53Z</time>
      </trkpt>
      <trkpt lat="49.38795" lon="-0.98387">
        <ele>36</ele>
        <time>2020-06-16T15:29:54Z</time>
      </trkpt>
      <trkpt lat="49.38794" lon="-0.98379">
        <ele>36</ele>
        <time>2020-06-16T15:29:55Z</time>
      </trkpt>
      <trkpt lat="49.38793" lon="-0.98371">
        <ele>36</ele>
        <time>2020-06-16T15:29:56Z</time>
      </trkpt>
      <trkpt lat="49.38791" lon="-0.98363">
        <ele>36</ele>
        <time>2020-06-16T15:29:57Z</time>
      </trkpt>
      <trkpt lat="49.38789" lon="-0.98354">
        <ele>36</ele>
        <time>2020-06-16T15:29:58Z</time>
      </trkpt>
      <trkpt lat="49.38787" lon="-0.98347">
        <ele>36</ele>
        <time>2020-06-16T15:29:59Z</time>
      </trkpt>
      <trkpt lat="49.38785" lon="-0.98339">
        <ele>36</ele>
        <time>2020-06-16T15:30:00Z</time>
      </trkpt>
      <trkpt lat="49.38784" lon="-0.98332">
        <ele>36</ele>
        <time>2020-06-16T15:30:01Z</time>
      </trkpt>
      <trkpt lat="49.38784" lon="-0.98324">
        <ele>36</ele>
        <time>2020-06-16T15:30:02Z</time>
      </trkpt>
      <trkpt lat="49.38783" lon="-0.98316">
        <ele>36</ele>
        <time>2020-06-16T15:30:03Z</time>
      </trkpt>
      <trkpt lat="49.38782" lon="-0.98308">
        <ele>36</ele>
        <time>2020-06-16T15:30:04Z</time>
      </trkpt>
      <trkpt lat="49.38782" lon="-0.98302">
        <ele>36</ele>
        <time>2020-06-16T15:30:05Z</time>
      </trkpt>
      <trkpt lat="49.38782" lon="-0.98294">
        <ele>36</ele>
        <time>2020-06-16T15:30:06Z</time>
      </trkpt>
      <trkpt lat="49.38782" lon="-0.98286">
        <ele>36</ele>
        <time>2020-06-16T15:30:07Z</time>
      </trkpt>
      <trkpt lat="49.38782" lon="-0.98279">
        <ele>36.1</ele>
        <time>2020-06-16T15:30:08Z</time>
      </trkpt>
      <trkpt lat="49.38781" lon="-0.98272">
        <ele>36.1</ele>
        <time>2020-06-16T15:30:09Z</time>
      </trkpt>
      <trkpt lat="49.38782" lon="-0.98264">
        <ele>36.1</ele>
        <time>2020-06-16T15:30:10Z</time>
      </trkpt>
      <trkpt lat="49.38782" lon="-0.98255">
        <ele>36.1</ele>
        <time>2020-06-16T15:30:11Z</time>
      </trkpt>
      <trkpt lat="49.38782" lon="-0.98246">
        <ele>36.1</ele>
        <time>2020-06-16T15:30:12Z</time>
      </trkpt>
      <trkpt lat="49.38781" lon="-0.98237">
        <ele>36.1</ele>
        <time>2020-06-16T15:30:13Z</time>
      </trkpt>
      <trkpt lat="49.3878" lon="-0.98228">
        <ele>36.1</ele>
        <time>2020-06-16T15:30:14Z</time>
      </trkpt>
      <trkpt lat="49.38779" lon="-0.98219">
        <ele>36.1</ele>
        <time>2020-06-16T15:30:15Z</time>
      </trkpt>
      <trkpt lat="49.38778" lon="-0.9821">
        <ele>36.1</ele>
        <time>2020-06-16T15:30:16Z</time>
      </trkpt>
      <trkpt lat="49.38777" lon="-0.98202">
        <ele>36.1</ele>
        <time>2020-06-16T15:30:17Z</time>
      </trkpt>
      <trkpt lat="49.38776" lon="-0.98194">
        <ele>36.1</ele>
        <time>2020-06-16T15:30:18Z</time>
      </trkpt>
      <trkpt lat="49.38775" lon="-0.98185">
        <ele>36.1</ele>
        <time>2020-06-16T15:30:19Z</time>
      </trkpt>
      <trkpt lat="49.38773" lon="-0.98176">
        <ele>36</ele>
        <time>2020-06-16T15:30:20Z</time>
      </trkpt>
      <trkpt lat="49.38772" lon="-0.98168">
        <ele>36</ele>
        <time>2020-06-16T15:30:21Z</time>
      </trkpt>
      <trkpt lat="49.38772" lon="-0.98159">
        <ele>36</ele>
        <time>2020-06-16T15:30:22Z</time>
      </trkpt>
      <trkpt lat="49.38771" lon="-0.98151">
        <ele>36</ele>
        <time>2020-06-16T15:30:23Z</time>
      </trkpt>
      <trkpt lat="49.3877" lon="-0.98142">
        <ele>36</ele>
        <time>2020-06-16T15:30:24Z</time>
      </trkpt>
      <trkpt lat="49.38769" lon="-0.98133">
        <ele>36</ele>
        <time>2020-06-16T15:30:25Z</time>
      </trkpt>
      <trkpt lat="49.38769" lon="-0.98124">
        <ele>36</ele>
        <time>2020-06-16T15:30:26Z</time>
      </trkpt>
      <trkpt lat="49.38768" lon="-0.98116">
        <ele>36</ele>
        <time>2020-06-16T15:30:27Z</time>
      </trkpt>
      <trkpt lat="49.38766" lon="-0.98108">
        <ele>36.1</ele>
        <time>2020-06-16T15:30:28Z</time>
      </trkpt>
      <trkpt lat="49.38765" lon="-0.98099">
        <ele>36.1</ele>
        <time>2020-06-16T15:30:29Z</time>
      </trkpt>
      <trkpt lat="49.38763" lon="-0.98092">
        <ele>36.1</ele>
        <time>2020-06-16T15:30:30Z</time>
      </trkpt>
      <trkpt lat="49.38762" lon="-0.98083">
        <ele>36.1</ele>
        <time>2020-06-16T15:30:31Z</time>
      </trkpt>
      <trkpt lat="49.3876" lon="-0.98075">
        <ele>36.1</ele>
        <time>2020-06-16T15:30:32Z</time>
      </trkpt>
      <trkpt lat="49.38759" lon="-0.98066">
        <ele>36.1</ele>
        <time>2020-06-16T15:30:33Z</time>
      </trkpt>
      <trkpt lat="49.38758" lon="-0.98056">
        <ele>36.1</ele>
        <time>2020-06-16T15:30:34Z</time>
      </trkpt>
      <trkpt lat="49.38758" lon="-0.98049">
        <ele>36.1</ele>
        <time>2020-06-16T15:30:35Z</time>
      </trkpt>
      <trkpt lat="49.38757" lon="-0.98041">
        <ele>36.1</ele>
        <time>2020-06-16T15:30:36Z</time>
      </trkpt>
      <trkpt lat="49.38756" lon="-0.98033">
        <ele>36.1</ele>
        <time>2020-06-16T15:30:37Z</time>
      </trkpt>
      <trkpt lat="49.38755" lon="-0.98024">
        <ele>36.1</ele>
        <time>2020-06-16T15:30:38Z</time>
      </trkpt>
      <trkpt lat="49.38753" lon="-0.98014">
        <ele>36.1</ele>
        <time>2020-06-16T15:30:39Z</time>
      </trkpt>
      <trkpt lat="49.38752" lon="-0.98004">
        <ele>36.1</ele>
        <time>2020-06-16T15:30:40Z</time>
      </trkpt>
      <trkpt lat="49.38751" lon="-0.97993">
        <ele>36.1</ele>
        <time>2020-06-16T15:30:41Z</time>
      </trkpt>
      <trkpt lat="49.3875" lon="-0.97986">
        <ele>36.1</ele>
        <time>2020-06-16T15:30:42Z</time>
      </trkpt>
      <trkpt lat="49.3875" lon="-0.9798">
        <ele>36.1</ele>
        <time>2020-06-16T15:30:43Z</time>
      </trkpt>
      <trkpt lat="49.3875" lon="-0.97974">
        <ele>36.1</ele>
        <time>2020-06-16T15:30:44Z</time>
      </trkpt>
      <trkpt lat="49.38749" lon="-0.97965">
        <ele>36.1</ele>
        <time>2020-06-16T15:30:45Z</time>
      </trkpt>
      <trkpt lat="49.3875" lon="-0.97959">
        <ele>36.1</ele>
        <time>2020-06-16T15:30:46Z</time>
      </trkpt>
      <trkpt lat="49.3875" lon="-0.97952">
        <ele>36.1</ele>
        <time>2020-06-16T15:30:47Z</time>
      </trkpt>
      <trkpt lat="49.3875" lon="-0.97945">
        <ele>36.2</ele>
        <time>2020-06-16T15:30:48Z</time>
      </trkpt>
      <trkpt lat="49.38751" lon="-0.97938">
        <ele>36.2</ele>
        <time>2020-06-16T15:30:49Z</time>
      </trkpt>
      <trkpt lat="49.3875" lon="-0.97932">
        <ele>36.2</ele>
        <time>2020-06-16T15:30:50Z</time>
      </trkpt>
      <trkpt lat="49.3875" lon="-0.97925">
        <ele>36.2</ele>
        <time>2020-06-16T15:30:51Z</time>
      </trkpt>
      <trkpt lat="49.3875" lon="-0.97917">
        <ele>36.2</ele>
        <time>2020-06-16T15:30:52Z</time>
      </trkpt>
      <trkpt lat="49.3875" lon="-0.97909">
        <ele>36.3</ele>
        <time>2020-06-16T15:30:53Z</time>
      </trkpt>
      <trkpt lat="49.38749" lon="-0.979">
        <ele>36.3</ele>
        <time>2020-06-16T15:30:54Z</time>
      </trkpt>
      <trkpt lat="49.38749" lon="-0.97891">
        <ele>36.4</ele>
        <time>2020-06-16T15:30:55Z</time>
      </trkpt>
      <trkpt lat="49.38748" lon="-0.97882">
        <ele>36.5</ele>
        <time>2020-06-16T15:30:56Z</time>
      </trkpt>
      <trkpt lat="49.38747" lon="-0.97874">
        <ele>36.5</ele>
        <time>2020-06-16T15:30:57Z</time>
      </trkpt>
      <trkpt lat="49.38747" lon="-0.97866">
        <ele>36.4</ele>
        <time>2020-06-16T15:30:58Z</time>
      </trkpt>
      <trkpt lat="49.38746" lon="-0.97857">
        <ele>36.4</ele>
        <time>2020-06-16T15:30:59Z</time>
      </trkpt>
      <trkpt lat="49.38746" lon="-0.97849">
        <ele>36.4</ele>
        <time>2020-06-16T15:31:00Z</time>
      </trkpt>
      <trkpt lat="49.38745" lon="-0.97841">
        <ele>36.4</ele>
        <time>2020-06-16T15:31:01Z</time>
      </trkpt>
      <trkpt lat="49.38744" lon="-0.97833">
        <ele>36.4</ele>
        <time>2020-06-16T15:31:02Z</time>
      </trkpt>
      <trkpt lat="49.38743" lon="-0.97825">
        <ele>36.4</ele>
        <time>2020-06-16T15:31:03Z</time>
      </trkpt>
      <trkpt lat="49.38742" lon="-0.97817">
        <ele>36.4</ele>
        <time>2020-06-16T15:31:04Z</time>
      </trkpt>
      <trkpt lat="49.38741" lon="-0.97809">
        <ele>36.4</ele>
        <time>2020-06-16T15:31:05Z</time>
      </trkpt>
      <trkpt lat="49.3874" lon="-0.97801">
        <ele>36.4</ele>
        <time>2020-06-16T15:31:06Z</time>
      </trkpt>
      <trkpt lat="49.38739" lon="-0.97793">
        <ele>36.4</ele>
        <time>2020-06-16T15:31:07Z</time>
      </trkpt>
      <trkpt lat="49.38738" lon="-0.97785">
        <ele>36.3</ele>
        <time>2020-06-16T15:31:08Z</time>
      </trkpt>
      <trkpt lat="49.38736" lon="-0.97777">
        <ele>36.3</ele>
        <time>2020-06-16T15:31:09Z</time>
      </trkpt>
      <trkpt lat="49.38734" lon="-0.9777">
        <ele>36.3</ele>
        <time>2020-06-16T15:31:10Z</time>
      </trkpt>
      <trkpt lat="49.38733" lon="-0.97762">
        <ele>36.3</ele>
        <time>2020-06-16T15:31:11Z</time>
      </trkpt>
      <trkpt lat="49.38732" lon="-0.97755">
        <ele>36.3</ele>
        <time>2020-06-16T15:31:12Z</time>
      </trkpt>
      <trkpt lat="49.38731" lon="-0.97748">
        <ele>36.3</ele>
        <time>2020-06-16T15:31:13Z</time>
      </trkpt>
      <trkpt lat="49.3873" lon="-0.97742">
        <ele>36.3</ele>
        <time>2020-06-16T15:31:14Z</time>
      </trkpt>
      <trkpt lat="49.3873" lon="-0.97735">
        <ele>36.3</ele>
        <time>2020-06-16T15:31:15Z</time>
      </trkpt>
      <trkpt lat="49.3873" lon="-0.97727">
        <ele>36.3</ele>
        <time>2020-06-16T15:31:16Z</time>
      </trkpt>
      <trkpt lat="49.38729" lon="-0.97719">
        <ele>36.3</ele>
        <time>2020-06-16T15:31:17Z</time>
      </trkpt>
      <trkpt lat="49.38729" lon="-0.97712">
        <ele>36.3</ele>
        <time>2020-06-16T15:31:18Z</time>
      </trkpt>
      <trkpt lat="49.38729" lon="-0.97705">
        <ele>36.2</ele>
        <time>2020-06-16T15:31:19Z</time>
      </trkpt>
      <trkpt lat="49.38728" lon="-0.97699">
        <ele>36.2</ele>
        <time>2020-06-16T15:31:20Z</time>
      </trkpt>
      <trkpt lat="49.38728" lon="-0.97692">
        <ele>36.2</ele>
        <time>2020-06-16T15:31:21Z</time>
      </trkpt>
      <trkpt lat="49.38729" lon="-0.97685">
        <ele>36.2</ele>
        <time>2020-06-16T15:31:22Z</time>
      </trkpt>
      <trkpt lat="49.38729" lon="-0.97678">
        <ele>36.2</ele>
        <time>2020-06-16T15:31:23Z</time>
      </trkpt>
      <trkpt lat="49.38729" lon="-0.9767">
        <ele>36.1</ele>
        <time>2020-06-16T15:31:24Z</time>
      </trkpt>
      <trkpt lat="49.38729" lon="-0.97663">
        <ele>36.1</ele>
        <time>2020-06-16T15:31:25Z</time>
      </trkpt>
      <trkpt lat="49.38729" lon="-0.97656">
        <ele>36.1</ele>
        <time>2020-06-16T15:31:26Z</time>
      </trkpt>
      <trkpt lat="49.3873" lon="-0.97649">
        <ele>36.1</ele>
        <time>2020-06-16T15:31:27Z</time>
      </trkpt>
      <trkpt lat="49.3873" lon="-0.97642">
        <ele>36.1</ele>
        <time>2020-06-16T15:31:28Z</time>
      </trkpt>
      <trkpt lat="49.38731" lon="-0.97635">
        <ele>36.1</ele>
        <time>2020-06-16T15:31:29Z</time>
      </trkpt>
      <trkpt lat="49.38732" lon="-0.97627">
        <ele>36.1</ele>
        <time>2020-06-16T15:31:30Z</time>
      </trkpt>
      <trkpt lat="49.38733" lon="-0.9762">
        <ele>36.1</ele>
        <time>2020-06-16T15:31:31Z</time>
      </trkpt>
      <trkpt lat="49.38734" lon="-0.97612">
        <ele>36.1</ele>
        <time>2020-06-16T15:31:32Z</time>
      </trkpt>
      <trkpt lat="49.38734" lon="-0.97605">
        <ele>36.1</ele>
        <time>2020-06-16T15:31:33Z</time>
      </trkpt>
      <trkpt lat="49.38734" lon="-0.97599">
        <ele>36.1</ele>
        <time>2020-06-16T15:31:34Z</time>
      </trkpt>
      <trkpt lat="49.38734" lon="-0.97593">
        <ele>36.1</ele>
        <time>2020-06-16T15:31:35Z</time>
      </trkpt>
      <trkpt lat="49.38734" lon="-0.97586">
        <ele>36.1</ele>
        <time>2020-06-16T15:31:36Z</time>
      </trkpt>
      <trkpt lat="49.38735" lon="-0.97579">
        <ele>36.2</ele>
        <time>2020-06-16T15:31:37Z</time>
      </trkpt>
      <trkpt lat="49.38735" lon="-0.97572">
        <ele>36.2</ele>
        <time>2020-06-16T15:31:38Z</time>
      </trkpt>
      <trkpt lat="49.38735" lon="-0.97566">
        <ele>36.2</ele>
        <time>2020-06-16T15:31:39Z</time>
      </trkpt>
      <trkpt lat="49.38735" lon="-0.97559">
        <ele>36.2</ele>
        <time>2020-06-16T15:31:40Z</time>
      </trkpt>
      <trkpt lat="49.38735" lon="-0.97552">
        <ele>36.3</ele>
        <time>2020-06-16T15:31:41Z</time>
      </trkpt>
      <trkpt lat="49.38736" lon="-0.97546">
        <ele>36.3</ele>
        <time>2020-06-16T15:31:42Z</time>
      </trkpt>
      <trkpt lat="49.38736" lon="-0.97538">
        <ele>36.3</ele>
        <time>2020-06-16T15:31:43Z</time>
      </trkpt>
      <trkpt lat="49.38736" lon="-0.97532">
        <ele>36.3</ele>
        <time>2020-06-16T15:31:44Z</time>
      </trkpt>
      <trkpt lat="49.38735" lon="-0.97525">
        <ele>36.3</ele>
        <time>2020-06-16T15:31:45Z</time>
      </trkpt>
      <trkpt lat="49.38735" lon="-0.97517">
        <ele>36.2</ele>
        <time>2020-06-16T15:31:46Z</time>
      </trkpt>
      <trkpt lat="49.38735" lon="-0.9751">
        <ele>36.2</ele>
        <time>2020-06-16T15:31:47Z</time>
      </trkpt>
      <trkpt lat="49.38735" lon="-0.97502">
        <ele>36.2</ele>
        <time>2020-06-16T15:31:48Z</time>
      </trkpt>
      <trkpt lat="49.38736" lon="-0.97493">
        <ele>36.1</ele>
        <time>2020-06-16T15:31:49Z</time>
      </trkpt>
      <trkpt lat="49.38736" lon="-0.97486">
        <ele>36.1</ele>
        <time>2020-06-16T15:31:50Z</time>
      </trkpt>
      <trkpt lat="49.38737" lon="-0.97478">
        <ele>36</ele>
        <time>2020-06-16T15:31:51Z</time>
      </trkpt>
      <trkpt lat="49.38737" lon="-0.97471">
        <ele>36</ele>
        <time>2020-06-16T15:31:52Z</time>
      </trkpt>
      <trkpt lat="49.38737" lon="-0.97463">
        <ele>36</ele>
        <time>2020-06-16T15:31:53Z</time>
      </trkpt>
      <trkpt lat="49.38738" lon="-0.97456">
        <ele>36</ele>
        <time>2020-06-16T15:31:54Z</time>
      </trkpt>
      <trkpt lat="49.38738" lon="-0.97448">
        <ele>36</ele>
        <time>2020-06-16T15:31:55Z</time>
      </trkpt>
      <trkpt lat="49.38739" lon="-0.9744">
        <ele>36</ele>
        <time>2020-06-16T15:31:56Z</time>
      </trkpt>
      <trkpt lat="49.38739" lon="-0.97432">
        <ele>35.9</ele>
        <time>2020-06-16T15:31:57Z</time>
      </trkpt>
      <trkpt lat="49.3874" lon="-0.97425">
        <ele>35.9</ele>
        <time>2020-06-16T15:31:58Z</time>
      </trkpt>
      <trkpt lat="49.3874" lon="-0.97417">
        <ele>35.9</ele>
        <time>2020-06-16T15:31:59Z</time>
      </trkpt>
      <trkpt lat="49.3874" lon="-0.97409">
        <ele>35.9</ele>
        <time>2020-06-16T15:32:00Z</time>
      </trkpt>
      <trkpt lat="49.3874" lon="-0.974">
        <ele>36</ele>
        <time>2020-06-16T15:32:01Z</time>
      </trkpt>
      <trkpt lat="49.3874" lon="-0.97392">
        <ele>36.1</ele>
        <time>2020-06-16T15:32:02Z</time>
      </trkpt>
      <trkpt lat="49.3874" lon="-0.97383">
        <ele>36.1</ele>
        <time>2020-06-16T15:32:03Z</time>
      </trkpt>
      <trkpt lat="49.38741" lon="-0.97375">
        <ele>36.2</ele>
        <time>2020-06-16T15:32:04Z</time>
      </trkpt>
      <trkpt lat="49.38741" lon="-0.97367">
        <ele>36.1</ele>
        <time>2020-06-16T15:32:05Z</time>
      </trkpt>
      <trkpt lat="49.38743" lon="-0.9736">
        <ele>36</ele>
        <time>2020-06-16T15:32:06Z</time>
      </trkpt>
      <trkpt lat="49.38744" lon="-0.97354">
        <ele>36</ele>
        <time>2020-06-16T15:32:07Z</time>
      </trkpt>
      <trkpt lat="49.38745" lon="-0.97348">
        <ele>36</ele>
        <time>2020-06-16T15:32:08Z</time>
      </trkpt>
      <trkpt lat="49.38747" lon="-0.97342">
        <ele>35.9</ele>
        <time>2020-06-16T15:32:09Z</time>
      </trkpt>
      <trkpt lat="49.38749" lon="-0.97335">
        <ele>35.9</ele>
        <time>2020-06-16T15:32:10Z</time>
      </trkpt>
      <trkpt lat="49.3875" lon="-0.97328">
        <ele>35.9</ele>
        <time>2020-06-16T15:32:11Z</time>
      </trkpt>
      <trkpt lat="49.38752" lon="-0.97321">
        <ele>35.9</ele>
        <time>2020-06-16T15:32:12Z</time>
      </trkpt>
      <trkpt lat="49.38754" lon="-0.97313">
        <ele>35.9</ele>
        <time>2020-06-16T15:32:13Z</time>
      </trkpt>
      <trkpt lat="49.38755" lon="-0.97306">
        <ele>35.9</ele>
        <time>2020-06-16T15:32:14Z</time>
      </trkpt>
      <trkpt lat="49.38757" lon="-0.97299">
        <ele>35.9</ele>
        <time>2020-06-16T15:32:15Z</time>
      </trkpt>
      <trkpt lat="49.38758" lon="-0.97292">
        <ele>35.9</ele>
        <time>2020-06-16T15:32:16Z</time>
      </trkpt>
      <trkpt lat="49.3876" lon="-0.97286">
        <ele>35.9</ele>
        <time>2020-06-16T15:32:17Z</time>
      </trkpt>
      <trkpt lat="49.38761" lon="-0.9728">
        <ele>35.9</ele>
        <time>2020-06-16T15:32:18Z</time>
      </trkpt>
      <trkpt lat="49.38763" lon="-0.97273">
        <ele>35.9</ele>
        <time>2020-06-16T15:32:19Z</time>
      </trkpt>
      <trkpt lat="49.38764" lon="-0.97266">
        <ele>35.9</ele>
        <time>2020-06-16T15:32:20Z</time>
      </trkpt>
      <trkpt lat="49.38766" lon="-0.9726">
        <ele>35.9</ele>
        <time>2020-06-16T15:32:21Z</time>
      </trkpt>
      <trkpt lat="49.38768" lon="-0.97253">
        <ele>36</ele>
        <time>2020-06-16T15:32:22Z</time>
      </trkpt>
      <trkpt lat="49.3877" lon="-0.97245">
        <ele>36</ele>
        <time>2020-06-16T15:32:23Z</time>
      </trkpt>
      <trkpt lat="49.38771" lon="-0.97238">
        <ele>36</ele>
        <time>2020-06-16T15:32:24Z</time>
      </trkpt>
      <trkpt lat="49.38773" lon="-0.97231">
        <ele>36</ele>
        <time>2020-06-16T15:32:25Z</time>
      </trkpt>
      <trkpt lat="49.38774" lon="-0.97223">
        <ele>36</ele>
        <time>2020-06-16T15:32:26Z</time>
      </trkpt>
      <trkpt lat="49.38775" lon="-0.97216">
        <ele>36</ele>
        <time>2020-06-16T15:32:27Z</time>
      </trkpt>
      <trkpt lat="49.38775" lon="-0.97209">
        <ele>36</ele>
        <time>2020-06-16T15:32:28Z</time>
      </trkpt>
      <trkpt lat="49.38776" lon="-0.97203">
        <ele>36</ele>
        <time>2020-06-16T15:32:29Z</time>
      </trkpt>
      <trkpt lat="49.38775" lon="-0.97197">
        <ele>36.1</ele>
        <time>2020-06-16T15:32:30Z</time>
      </trkpt>
      <trkpt lat="49.38775" lon="-0.97189">
        <ele>36.1</ele>
        <time>2020-06-16T15:32:31Z</time>
      </trkpt>
      <trkpt lat="49.38775" lon="-0.97182">
        <ele>36.2</ele>
        <time>2020-06-16T15:32:32Z</time>
      </trkpt>
      <trkpt lat="49.38774" lon="-0.97174">
        <ele>36.3</ele>
        <time>2020-06-16T15:32:33Z</time>
      </trkpt>
      <trkpt lat="49.38773" lon="-0.97167">
        <ele>36.4</ele>
        <time>2020-06-16T15:32:34Z</time>
      </trkpt>
      <trkpt lat="49.38772" lon="-0.97159">
        <ele>36.5</ele>
        <time>2020-06-16T15:32:35Z</time>
      </trkpt>
      <trkpt lat="49.38772" lon="-0.97152">
        <ele>36.6</ele>
        <time>2020-06-16T15:32:36Z</time>
      </trkpt>
      <trkpt lat="49.38772" lon="-0.97146">
        <ele>36.6</ele>
        <time>2020-06-16T15:32:37Z</time>
      </trkpt>
      <trkpt lat="49.38772" lon="-0.97139">
        <ele>36.5</ele>
        <time>2020-06-16T15:32:38Z</time>
      </trkpt>
      <trkpt lat="49.38772" lon="-0.97131">
        <ele>36.5</ele>
        <time>2020-06-16T15:32:39Z</time>
      </trkpt>
      <trkpt lat="49.38772" lon="-0.97123">
        <ele>36.5</ele>
        <time>2020-06-16T15:32:40Z</time>
      </trkpt>
      <trkpt lat="49.38773" lon="-0.97116">
        <ele>36.5</ele>
        <time>2020-06-16T15:32:41Z</time>
      </trkpt>
      <trkpt lat="49.38774" lon="-0.9711">
        <ele>36.5</ele>
        <time>2020-06-16T15:32:42Z</time>
      </trkpt>
      <trkpt lat="49.38774" lon="-0.97103">
        <ele>36.5</ele>
        <time>2020-06-16T15:32:43Z</time>
      </trkpt>
      <trkpt lat="49.38775" lon="-0.97096">
        <ele>36.5</ele>
        <time>2020-06-16T15:32:44Z</time>
      </trkpt>
      <trkpt lat="49.38775" lon="-0.97089">
        <ele>36.6</ele>
        <time>2020-06-16T15:32:45Z</time>
      </trkpt>
      <trkpt lat="49.38776" lon="-0.9708">
        <ele>36.6</ele>
        <time>2020-06-16T15:32:46Z</time>
      </trkpt>
      <trkpt lat="49.38777" lon="-0.97073">
        <ele>36.6</ele>
        <time>2020-06-16T15:32:47Z</time>
      </trkpt>
      <trkpt lat="49.38777" lon="-0.97065">
        <ele>36.6</ele>
        <time>2020-06-16T15:32:48Z</time>
      </trkpt>
      <trkpt lat="49.38777" lon="-0.97058">
        <ele>36.7</ele>
        <time>2020-06-16T15:32:49Z</time>
      </trkpt>
      <trkpt lat="49.38778" lon="-0.97051">
        <ele>36.7</ele>
        <time>2020-06-16T15:32:50Z</time>
      </trkpt>
      <trkpt lat="49.38779" lon="-0.97044">
        <ele>36.7</ele>
        <time>2020-06-16T15:32:51Z</time>
      </trkpt>
      <trkpt lat="49.38779" lon="-0.97035">
        <ele>36.8</ele>
        <time>2020-06-16T15:32:52Z</time>
      </trkpt>
      <trkpt lat="49.3878" lon="-0.97027">
        <ele>36.8</ele>
        <time>2020-06-16T15:32:53Z</time>
      </trkpt>
      <trkpt lat="49.38781" lon="-0.9702">
        <ele>36.8</ele>
        <time>2020-06-16T15:32:54Z</time>
      </trkpt>
      <trkpt lat="49.38782" lon="-0.97013">
        <ele>36.9</ele>
        <time>2020-06-16T15:32:55Z</time>
      </trkpt>
      <trkpt lat="49.38783" lon="-0.97006">
        <ele>36.9</ele>
        <time>2020-06-16T15:32:56Z</time>
      </trkpt>
      <trkpt lat="49.38784" lon="-0.96997">
        <ele>36.9</ele>
        <time>2020-06-16T15:32:57Z</time>
      </trkpt>
      <trkpt lat="49.38784" lon="-0.9699">
        <ele>36.9</ele>
        <time>2020-06-16T15:32:58Z</time>
      </trkpt>
      <trkpt lat="49.38786" lon="-0.96982">
        <ele>36.9</ele>
        <time>2020-06-16T15:32:59Z</time>
      </trkpt>
      <trkpt lat="49.38787" lon="-0.96975">
        <ele>36.9</ele>
        <time>2020-06-16T15:33:00Z</time>
      </trkpt>
      <trkpt lat="49.38787" lon="-0.96967">
        <ele>36.9</ele>
        <time>2020-06-16T15:33:01Z</time>
      </trkpt>
      <trkpt lat="49.38788" lon="-0.96958">
        <ele>36.9</ele>
        <time>2020-06-16T15:33:02Z</time>
      </trkpt>
      <trkpt lat="49.38788" lon="-0.9695">
        <ele>36.9</ele>
        <time>2020-06-16T15:33:03Z</time>
      </trkpt>
      <trkpt lat="49.38788" lon="-0.96942">
        <ele>37</ele>
        <time>2020-06-16T15:33:04Z</time>
      </trkpt>
      <trkpt lat="49.38788" lon="-0.96934">
        <ele>37</ele>
        <time>2020-06-16T15:33:05Z</time>
      </trkpt>
      <trkpt lat="49.38788" lon="-0.96927">
        <ele>37</ele>
        <time>2020-06-16T15:33:06Z</time>
      </trkpt>
      <trkpt lat="49.38788" lon="-0.9692">
        <ele>37</ele>
        <time>2020-06-16T15:33:07Z</time>
      </trkpt>
      <trkpt lat="49.38789" lon="-0.96912">
        <ele>37</ele>
        <time>2020-06-16T15:33:08Z</time>
      </trkpt>
      <trkpt lat="49.38789" lon="-0.96903">
        <ele>37.1</ele>
        <time>2020-06-16T15:33:09Z</time>
      </trkpt>
      <trkpt lat="49.3879" lon="-0.96895">
        <ele>37.1</ele>
        <time>2020-06-16T15:33:10Z</time>
      </trkpt>
      <trkpt lat="49.38789" lon="-0.96886">
        <ele>37.1</ele>
        <time>2020-06-16T15:33:11Z</time>
      </trkpt>
      <trkpt lat="49.38789" lon="-0.96878">
        <ele>37.1</ele>
        <time>2020-06-16T15:33:12Z</time>
      </trkpt>
      <trkpt lat="49.3879" lon="-0.96869">
        <ele>37.1</ele>
        <time>2020-06-16T15:33:13Z</time>
      </trkpt>
      <trkpt lat="49.3879" lon="-0.96861">
        <ele>37.1</ele>
        <time>2020-06-16T15:33:14Z</time>
      </trkpt>
      <trkpt lat="49.3879" lon="-0.96851">
        <ele>37.1</ele>
        <time>2020-06-16T15:33:15Z</time>
      </trkpt>
      <trkpt lat="49.38791" lon="-0.96842">
        <ele>37.1</ele>
        <time>2020-06-16T15:33:16Z</time>
      </trkpt>
      <trkpt lat="49.38792" lon="-0.96834">
        <ele>37.1</ele>
        <time>2020-06-16T15:33:17Z</time>
      </trkpt>
      <trkpt lat="49.38793" lon="-0.96825">
        <ele>37.1</ele>
        <time>2020-06-16T15:33:18Z</time>
      </trkpt>
      <trkpt lat="49.38793" lon="-0.96815">
        <ele>37.1</ele>
        <time>2020-06-16T15:33:19Z</time>
      </trkpt>
      <trkpt lat="49.38793" lon="-0.96806">
        <ele>37.1</ele>
        <time>2020-06-16T15:33:20Z</time>
      </trkpt>
      <trkpt lat="49.38793" lon="-0.96796">
        <ele>37.2</ele>
        <time>2020-06-16T15:33:21Z</time>
      </trkpt>
      <trkpt lat="49.38794" lon="-0.96787">
        <ele>37.2</ele>
        <time>2020-06-16T15:33:22Z</time>
      </trkpt>
      <trkpt lat="49.38794" lon="-0.96777">
        <ele>37.2</ele>
        <time>2020-06-16T15:33:23Z</time>
      </trkpt>
      <trkpt lat="49.38794" lon="-0.96768">
        <ele>37.2</ele>
        <time>2020-06-16T15:33:24Z</time>
      </trkpt>
      <trkpt lat="49.38794" lon="-0.96759">
        <ele>37.2</ele>
        <time>2020-06-16T15:33:25Z</time>
      </trkpt>
      <trkpt lat="49.38795" lon="-0.96749">
        <ele>37.2</ele>
        <time>2020-06-16T15:33:26Z</time>
      </trkpt>
      <trkpt lat="49.38796" lon="-0.96739">
        <ele>37.2</ele>
        <time>2020-06-16T15:33:27Z</time>
      </trkpt>
      <trkpt lat="49.38797" lon="-0.96729">
        <ele>37.2</ele>
        <time>2020-06-16T15:33:28Z</time>
      </trkpt>
      <trkpt lat="49.38797" lon="-0.96719">
        <ele>37.3</ele>
        <time>2020-06-16T15:33:29Z</time>
      </trkpt>
      <trkpt lat="49.38798" lon="-0.96709">
        <ele>37.3</ele>
        <time>2020-06-16T15:33:30Z</time>
      </trkpt>
      <trkpt lat="49.38799" lon="-0.96697">
        <ele>37.3</ele>
        <time>2020-06-16T15:33:31Z</time>
      </trkpt>
      <trkpt lat="49.38801" lon="-0.96686">
        <ele>37.3</ele>
        <time>2020-06-16T15:33:32Z</time>
      </trkpt>
      <trkpt lat="49.38801" lon="-0.96675">
        <ele>37.3</ele>
        <time>2020-06-16T15:33:33Z</time>
      </trkpt>
      <trkpt lat="49.38802" lon="-0.96665">
        <ele>37.3</ele>
        <time>2020-06-16T15:33:34Z</time>
      </trkpt>
      <trkpt lat="49.38803" lon="-0.96655">
        <ele>37.3</ele>
        <time>2020-06-16T15:33:35Z</time>
      </trkpt>
      <trkpt lat="49.38803" lon="-0.96645">
        <ele>37.3</ele>
        <time>2020-06-16T15:33:36Z</time>
      </trkpt>
      <trkpt lat="49.38804" lon="-0.96634">
        <ele>37.3</ele>
        <time>2020-06-16T15:33:37Z</time>
      </trkpt>
      <trkpt lat="49.38804" lon="-0.96624">
        <ele>37.3</ele>
        <time>2020-06-16T15:33:38Z</time>
      </trkpt>
      <trkpt lat="49.38805" lon="-0.96615">
        <ele>37.4</ele>
        <time>2020-06-16T15:33:39Z</time>
      </trkpt>
      <trkpt lat="49.38805" lon="-0.96607">
        <ele>37.4</ele>
        <time>2020-06-16T15:33:40Z</time>
      </trkpt>
      <trkpt lat="49.38805" lon="-0.96598">
        <ele>37.4</ele>
        <time>2020-06-16T15:33:41Z</time>
      </trkpt>
      <trkpt lat="49.38805" lon="-0.96589">
        <ele>37.4</ele>
        <time>2020-06-16T15:33:42Z</time>
      </trkpt>
      <trkpt lat="49.38804" lon="-0.9658">
        <ele>37.4</ele>
        <time>2020-06-16T15:33:43Z</time>
      </trkpt>
      <trkpt lat="49.38804" lon="-0.96572">
        <ele>37.4</ele>
        <time>2020-06-16T15:33:44Z</time>
      </trkpt>
      <trkpt lat="49.38803" lon="-0.96565">
        <ele>37.4</ele>
        <time>2020-06-16T15:33:45Z</time>
      </trkpt>
      <trkpt lat="49.38803" lon="-0.96556">
        <ele>37.4</ele>
        <time>2020-06-16T15:33:46Z</time>
      </trkpt>
      <trkpt lat="49.38802" lon="-0.96547">
        <ele>37.4</ele>
        <time>2020-06-16T15:33:47Z</time>
      </trkpt>
      <trkpt lat="49.38803" lon="-0.96538">
        <ele>37.5</ele>
        <time>2020-06-16T15:33:48Z</time>
      </trkpt>
      <trkpt lat="49.38803" lon="-0.96529">
        <ele>37.5</ele>
        <time>2020-06-16T15:33:49Z</time>
      </trkpt>
      <trkpt lat="49.38803" lon="-0.9652">
        <ele>37.5</ele>
        <time>2020-06-16T15:33:50Z</time>
      </trkpt>
      <trkpt lat="49.38802" lon="-0.9651">
        <ele>37.6</ele>
        <time>2020-06-16T15:33:51Z</time>
      </trkpt>
      <trkpt lat="49.38802" lon="-0.96501">
        <ele>37.6</ele>
        <time>2020-06-16T15:33:52Z</time>
      </trkpt>
      <trkpt lat="49.38802" lon="-0.96492">
        <ele>37.6</ele>
        <time>2020-06-16T15:33:53Z</time>
      </trkpt>
      <trkpt lat="49.38802" lon="-0.96483">
        <ele>37.6</ele>
        <time>2020-06-16T15:33:54Z</time>
      </trkpt>
      <trkpt lat="49.38802" lon="-0.96475">
        <ele>37.6</ele>
        <time>2020-06-16T15:33:55Z</time>
      </trkpt>
      <trkpt lat="49.38802" lon="-0.96467">
        <ele>37.6</ele>
        <time>2020-06-16T15:33:56Z</time>
      </trkpt>
      <trkpt lat="49.38802" lon="-0.96458">
        <ele>37.7</ele>
        <time>2020-06-16T15:33:57Z</time>
      </trkpt>
      <trkpt lat="49.38801" lon="-0.96449">
        <ele>37.8</ele>
        <time>2020-06-16T15:33:58Z</time>
      </trkpt>
      <trkpt lat="49.38801" lon="-0.9644">
        <ele>37.8</ele>
        <time>2020-06-16T15:33:59Z</time>
      </trkpt>
      <trkpt lat="49.388" lon="-0.96431">
        <ele>37.9</ele>
        <time>2020-06-16T15:34:00Z</time>
      </trkpt>
      <trkpt lat="49.38799" lon="-0.96421">
        <ele>37.9</ele>
        <time>2020-06-16T15:34:01Z</time>
      </trkpt>
      <trkpt lat="49.38798" lon="-0.96411">
        <ele>37.9</ele>
        <time>2020-06-16T15:34:02Z</time>
      </trkpt>
      <trkpt lat="49.38797" lon="-0.964">
        <ele>37.8</ele>
        <time>2020-06-16T15:34:03Z</time>
      </trkpt>
      <trkpt lat="49.38797" lon="-0.96389">
        <ele>37.8</ele>
        <time>2020-06-16T15:34:04Z</time>
      </trkpt>
      <trkpt lat="49.38796" lon="-0.96378">
        <ele>37.7</ele>
        <time>2020-06-16T15:34:05Z</time>
      </trkpt>
      <trkpt lat="49.38795" lon="-0.96369">
        <ele>37.7</ele>
        <time>2020-06-16T15:34:06Z</time>
      </trkpt>
      <trkpt lat="49.38794" lon="-0.9636">
        <ele>37.7</ele>
        <time>2020-06-16T15:34:07Z</time>
      </trkpt>
      <trkpt lat="49.38793" lon="-0.96351">
        <ele>37.6</ele>
        <time>2020-06-16T15:34:08Z</time>
      </trkpt>
      <trkpt lat="49.38791" lon="-0.96341">
        <ele>37.6</ele>
        <time>2020-06-16T15:34:09Z</time>
      </trkpt>
      <trkpt lat="49.3879" lon="-0.9633">
        <ele>37.5</ele>
        <time>2020-06-16T15:34:10Z</time>
      </trkpt>
      <trkpt lat="49.38788" lon="-0.9632">
        <ele>37.5</ele>
        <time>2020-06-16T15:34:11Z</time>
      </trkpt>
      <trkpt lat="49.38787" lon="-0.96309">
        <ele>37.5</ele>
        <time>2020-06-16T15:34:12Z</time>
      </trkpt>
      <trkpt lat="49.38786" lon="-0.96298">
        <ele>37.5</ele>
        <time>2020-06-16T15:34:13Z</time>
      </trkpt>
      <trkpt lat="49.38786" lon="-0.96287">
        <ele>37.5</ele>
        <time>2020-06-16T15:34:14Z</time>
      </trkpt>
      <trkpt lat="49.38786" lon="-0.96275">
        <ele>37.5</ele>
        <time>2020-06-16T15:34:15Z</time>
      </trkpt>
      <trkpt lat="49.38786" lon="-0.96265">
        <ele>37.5</ele>
        <time>2020-06-16T15:34:16Z</time>
      </trkpt>
      <trkpt lat="49.38785" lon="-0.96254">
        <ele>37.5</ele>
        <time>2020-06-16T15:34:17Z</time>
      </trkpt>
      <trkpt lat="49.38785" lon="-0.96244">
        <ele>37.5</ele>
        <time>2020-06-16T15:34:18Z</time>
      </trkpt>
      <trkpt lat="49.38785" lon="-0.96233">
        <ele>37.4</ele>
        <time>2020-06-16T15:34:19Z</time>
      </trkpt>
      <trkpt lat="49.38784" lon="-0.96224">
        <ele>37.4</ele>
        <time>2020-06-16T15:34:20Z</time>
      </trkpt>
      <trkpt lat="49.38785" lon="-0.96215">
        <ele>37.5</ele>
        <time>2020-06-16T15:34:21Z</time>
      </trkpt>
      <trkpt lat="49.38785" lon="-0.96206">
        <ele>37.5</ele>
        <time>2020-06-16T15:34:22Z</time>
      </trkpt>
      <trkpt lat="49.38785" lon="-0.96198">
        <ele>37.6</ele>
        <time>2020-06-16T15:34:23Z</time>
      </trkpt>
      <trkpt lat="49.38785" lon="-0.96189">
        <ele>37.5</ele>
        <time>2020-06-16T15:34:24Z</time>
      </trkpt>
      <trkpt lat="49.38785" lon="-0.9618">
        <ele>37.5</ele>
        <time>2020-06-16T15:34:25Z</time>
      </trkpt>
      <trkpt lat="49.38785" lon="-0.96172">
        <ele>37.4</ele>
        <time>2020-06-16T15:34:26Z</time>
      </trkpt>
      <trkpt lat="49.38785" lon="-0.96163">
        <ele>37.4</ele>
        <time>2020-06-16T15:34:27Z</time>
      </trkpt>
      <trkpt lat="49.38785" lon="-0.96154">
        <ele>37.4</ele>
        <time>2020-06-16T15:34:28Z</time>
      </trkpt>
      <trkpt lat="49.38785" lon="-0.96146">
        <ele>37.4</ele>
        <time>2020-06-16T15:34:29Z</time>
      </trkpt>
      <trkpt lat="49.38785" lon="-0.96138">
        <ele>37.4</ele>
        <time>2020-06-16T15:34:30Z</time>
      </trkpt>
      <trkpt lat="49.38785" lon="-0.9613">
        <ele>37.4</ele>
        <time>2020-06-16T15:34:31Z</time>
      </trkpt>
      <trkpt lat="49.38785" lon="-0.96121">
        <ele>37.4</ele>
        <time>2020-06-16T15:34:32Z</time>
      </trkpt>
      <trkpt lat="49.38784" lon="-0.96113">
        <ele>37.4</ele>
        <time>2020-06-16T15:34:33Z</time>
      </trkpt>
      <trkpt lat="49.38784" lon="-0.96104">
        <ele>37.4</ele>
        <time>2020-06-16T15:34:34Z</time>
      </trkpt>
      <trkpt lat="49.38784" lon="-0.96096">
        <ele>37.4</ele>
        <time>2020-06-16T15:34:35Z</time>
      </trkpt>
      <trkpt lat="49.38783" lon="-0.96087">
        <ele>37.4</ele>
        <time>2020-06-16T15:34:36Z</time>
      </trkpt>
      <trkpt lat="49.38784" lon="-0.96079">
        <ele>37.4</ele>
        <time>2020-06-16T15:34:37Z</time>
      </trkpt>
      <trkpt lat="49.38783" lon="-0.96071">
        <ele>37.4</ele>
        <time>2020-06-16T15:34:38Z</time>
      </trkpt>
      <trkpt lat="49.38783" lon="-0.96063">
        <ele>37.4</ele>
        <time>2020-06-16T15:34:39Z</time>
      </trkpt>
      <trkpt lat="49.38783" lon="-0.96056">
        <ele>37.4</ele>
        <time>2020-06-16T15:34:40Z</time>
      </trkpt>
      <trkpt lat="49.38783" lon="-0.96047">
        <ele>37.4</ele>
        <time>2020-06-16T15:34:41Z</time>
      </trkpt>
      <trkpt lat="49.38783" lon="-0.96039">
        <ele>37.4</ele>
        <time>2020-06-16T15:34:42Z</time>
      </trkpt>
      <trkpt lat="49.38783" lon="-0.9603">
        <ele>37.4</ele>
        <time>2020-06-16T15:34:43Z</time>
      </trkpt>
      <trkpt lat="49.38783" lon="-0.96022">
        <ele>37.4</ele>
        <time>2020-06-16T15:34:44Z</time>
      </trkpt>
      <trkpt lat="49.38784" lon="-0.96015">
        <ele>37.4</ele>
        <time>2020-06-16T15:34:45Z</time>
      </trkpt>
      <trkpt lat="49.38784" lon="-0.96007">
        <ele>37.4</ele>
        <time>2020-06-16T15:34:46Z</time>
      </trkpt>
      <trkpt lat="49.38784" lon="-0.95998">
        <ele>37.4</ele>
        <time>2020-06-16T15:34:47Z</time>
      </trkpt>
      <trkpt lat="49.38784" lon="-0.9599">
        <ele>37.4</ele>
        <time>2020-06-16T15:34:48Z</time>
      </trkpt>
      <trkpt lat="49.38785" lon="-0.95982">
        <ele>37.4</ele>
        <time>2020-06-16T15:34:49Z</time>
      </trkpt>
      <trkpt lat="49.38786" lon="-0.95974">
        <ele>37.4</ele>
        <time>2020-06-16T15:34:50Z</time>
      </trkpt>
      <trkpt lat="49.38787" lon="-0.95965">
        <ele>37.4</ele>
        <time>2020-06-16T15:34:51Z</time>
      </trkpt>
      <trkpt lat="49.38787" lon="-0.95956">
        <ele>37.4</ele>
        <time>2020-06-16T15:34:52Z</time>
      </trkpt>
      <trkpt lat="49.38788" lon="-0.95947">
        <ele>37.4</ele>
        <time>2020-06-16T15:34:53Z</time>
      </trkpt>
      <trkpt lat="49.38788" lon="-0.95938">
        <ele>37.4</ele>
        <time>2020-06-16T15:34:54Z</time>
      </trkpt>
      <trkpt lat="49.38788" lon="-0.95928">
        <ele>37.3</ele>
        <time>2020-06-16T15:34:55Z</time>
      </trkpt>
      <trkpt lat="49.38788" lon="-0.95919">
        <ele>37.3</ele>
        <time>2020-06-16T15:34:56Z</time>
      </trkpt>
      <trkpt lat="49.38788" lon="-0.95909">
        <ele>37.4</ele>
        <time>2020-06-16T15:34:57Z</time>
      </trkpt>
      <trkpt lat="49.38788" lon="-0.95901">
        <ele>37.4</ele>
        <time>2020-06-16T15:34:58Z</time>
      </trkpt>
      <trkpt lat="49.38789" lon="-0.95892">
        <ele>37.4</ele>
        <time>2020-06-16T15:34:59Z</time>
      </trkpt>
      <trkpt lat="49.38789" lon="-0.95884">
        <ele>37.4</ele>
        <time>2020-06-16T15:35:00Z</time>
      </trkpt>
      <trkpt lat="49.38789" lon="-0.95875">
        <ele>37.4</ele>
        <time>2020-06-16T15:35:01Z</time>
      </trkpt>
      <trkpt lat="49.38789" lon="-0.95866">
        <ele>37.4</ele>
        <time>2020-06-16T15:35:02Z</time>
      </trkpt>
      <trkpt lat="49.38789" lon="-0.95858">
        <ele>37.4</ele>
        <time>2020-06-16T15:35:03Z</time>
      </trkpt>
      <trkpt lat="49.38788" lon="-0.95849">
        <ele>37.4</ele>
        <time>2020-06-16T15:35:04Z</time>
      </trkpt>
      <trkpt lat="49.38788" lon="-0.95842">
        <ele>37.4</ele>
        <time>2020-06-16T15:35:05Z</time>
      </trkpt>
      <trkpt lat="49.38787" lon="-0.95833">
        <ele>37.4</ele>
        <time>2020-06-16T15:35:06Z</time>
      </trkpt>
      <trkpt lat="49.38786" lon="-0.95825">
        <ele>37.4</ele>
        <time>2020-06-16T15:35:07Z</time>
      </trkpt>
      <trkpt lat="49.38786" lon="-0.95816">
        <ele>37.4</ele>
        <time>2020-06-16T15:35:08Z</time>
      </trkpt>
      <trkpt lat="49.38786" lon="-0.95808">
        <ele>37.3</ele>
        <time>2020-06-16T15:35:09Z</time>
      </trkpt>
      <trkpt lat="49.38786" lon="-0.95799">
        <ele>37.3</ele>
        <time>2020-06-16T15:35:10Z</time>
      </trkpt>
      <trkpt lat="49.38787" lon="-0.9579">
        <ele>37.3</ele>
        <time>2020-06-16T15:35:11Z</time>
      </trkpt>
      <trkpt lat="49.38787" lon="-0.95781">
        <ele>37.3</ele>
        <time>2020-06-16T15:35:12Z</time>
      </trkpt>
      <trkpt lat="49.38788" lon="-0.95773">
        <ele>37.3</ele>
        <time>2020-06-16T15:35:13Z</time>
      </trkpt>
      <trkpt lat="49.38787" lon="-0.95765">
        <ele>37.4</ele>
        <time>2020-06-16T15:35:14Z</time>
      </trkpt>
      <trkpt lat="49.38788" lon="-0.95756">
        <ele>37.4</ele>
        <time>2020-06-16T15:35:15Z</time>
      </trkpt>
      <trkpt lat="49.38788" lon="-0.95748">
        <ele>37.4</ele>
        <time>2020-06-16T15:35:16Z</time>
      </trkpt>
      <trkpt lat="49.38788" lon="-0.95739">
        <ele>37.4</ele>
        <time>2020-06-16T15:35:17Z</time>
      </trkpt>
      <trkpt lat="49.38788" lon="-0.95729">
        <ele>37.4</ele>
        <time>2020-06-16T15:35:18Z</time>
      </trkpt>
      <trkpt lat="49.38787" lon="-0.95718">
        <ele>37.4</ele>
        <time>2020-06-16T15:35:19Z</time>
      </trkpt>
      <trkpt lat="49.38787" lon="-0.95708">
        <ele>37.4</ele>
        <time>2020-06-16T15:35:20Z</time>
      </trkpt>
      <trkpt lat="49.38788" lon="-0.95699">
        <ele>37.4</ele>
        <time>2020-06-16T15:35:21Z</time>
      </trkpt>
      <trkpt lat="49.38788" lon="-0.95691">
        <ele>37.4</ele>
        <time>2020-06-16T15:35:22Z</time>
      </trkpt>
      <trkpt lat="49.38788" lon="-0.95683">
        <ele>37.4</ele>
        <time>2020-06-16T15:35:23Z</time>
      </trkpt>
      <trkpt lat="49.38789" lon="-0.95675">
        <ele>37.4</ele>
        <time>2020-06-16T15:35:24Z</time>
      </trkpt>
      <trkpt lat="49.3879" lon="-0.95666">
        <ele>37.4</ele>
        <time>2020-06-16T15:35:25Z</time>
      </trkpt>
      <trkpt lat="49.38791" lon="-0.95658">
        <ele>37.4</ele>
        <time>2020-06-16T15:35:26Z</time>
      </trkpt>
      <trkpt lat="49.38793" lon="-0.9565">
        <ele>37.4</ele>
        <time>2020-06-16T15:35:27Z</time>
      </trkpt>
      <trkpt lat="49.38793" lon="-0.95642">
        <ele>37.4</ele>
        <time>2020-06-16T15:35:28Z</time>
      </trkpt>
      <trkpt lat="49.38794" lon="-0.95634">
        <ele>37.4</ele>
        <time>2020-06-16T15:35:29Z</time>
      </trkpt>
      <trkpt lat="49.38794" lon="-0.95627">
        <ele>37.4</ele>
        <time>2020-06-16T15:35:30Z</time>
      </trkpt>
      <trkpt lat="49.38794" lon="-0.95619">
        <ele>37.4</ele>
        <time>2020-06-16T15:35:31Z</time>
      </trkpt>
      <trkpt lat="49.38794" lon="-0.95611">
        <ele>37.3</ele>
        <time>2020-06-16T15:35:32Z</time>
      </trkpt>
      <trkpt lat="49.38794" lon="-0.95604">
        <ele>37.3</ele>
        <time>2020-06-16T15:35:33Z</time>
      </trkpt>
      <trkpt lat="49.38794" lon="-0.95597">
        <ele>37.3</ele>
        <time>2020-06-16T15:35:34Z</time>
      </trkpt>
      <trkpt lat="49.38794" lon="-0.9559">
        <ele>37.3</ele>
        <time>2020-06-16T15:35:35Z</time>
      </trkpt>
      <trkpt lat="49.38794" lon="-0.95582">
        <ele>37.3</ele>
        <time>2020-06-16T15:35:36Z</time>
      </trkpt>
      <trkpt lat="49.38794" lon="-0.95575">
        <ele>37.4</ele>
        <time>2020-06-16T15:35:37Z</time>
      </trkpt>
      <trkpt lat="49.38794" lon="-0.95568">
        <ele>37.4</ele>
        <time>2020-06-16T15:35:38Z</time>
      </trkpt>
      <trkpt lat="49.38794" lon="-0.95561">
        <ele>37.4</ele>
        <time>2020-06-16T15:35:39Z</time>
      </trkpt>
      <trkpt lat="49.38793" lon="-0.95554">
        <ele>37.4</ele>
        <time>2020-06-16T15:35:40Z</time>
      </trkpt>
      <trkpt lat="49.38792" lon="-0.95546">
        <ele>37.5</ele>
        <time>2020-06-16T15:35:41Z</time>
      </trkpt>
      <trkpt lat="49.38793" lon="-0.95535">
        <ele>37.6</ele>
        <time>2020-06-16T15:35:42Z</time>
      </trkpt>
      <trkpt lat="49.38793" lon="-0.95527">
        <ele>37.6</ele>
        <time>2020-06-16T15:35:43Z</time>
      </trkpt>
      <trkpt lat="49.38794" lon="-0.95519">
        <ele>37.6</ele>
        <time>2020-06-16T15:35:44Z</time>
      </trkpt>
      <trkpt lat="49.38795" lon="-0.95511">
        <ele>37.6</ele>
        <time>2020-06-16T15:35:45Z</time>
      </trkpt>
      <trkpt lat="49.38796" lon="-0.95503">
        <ele>37.6</ele>
        <time>2020-06-16T15:35:46Z</time>
      </trkpt>
      <trkpt lat="49.38795" lon="-0.95494">
        <ele>37.6</ele>
        <time>2020-06-16T15:35:47Z</time>
      </trkpt>
      <trkpt lat="49.38796" lon="-0.95487">
        <ele>37.6</ele>
        <time>2020-06-16T15:35:48Z</time>
      </trkpt>
      <trkpt lat="49.38797" lon="-0.95479">
        <ele>37.6</ele>
        <time>2020-06-16T15:35:49Z</time>
      </trkpt>
      <trkpt lat="49.38797" lon="-0.95472">
        <ele>37.6</ele>
        <time>2020-06-16T15:35:50Z</time>
      </trkpt>
      <trkpt lat="49.38797" lon="-0.95464">
        <ele>37.5</ele>
        <time>2020-06-16T15:35:51Z</time>
      </trkpt>
      <trkpt lat="49.38797" lon="-0.95457">
        <ele>37.5</ele>
        <time>2020-06-16T15:35:52Z</time>
      </trkpt>
      <trkpt lat="49.38798" lon="-0.95448">
        <ele>37.5</ele>
        <time>2020-06-16T15:35:53Z</time>
      </trkpt>
      <trkpt lat="49.38799" lon="-0.95441">
        <ele>37.5</ele>
        <time>2020-06-16T15:35:54Z</time>
      </trkpt>
      <trkpt lat="49.38798" lon="-0.95433">
        <ele>37.4</ele>
        <time>2020-06-16T15:35:55Z</time>
      </trkpt>
      <trkpt lat="49.38799" lon="-0.95426">
        <ele>37.4</ele>
        <time>2020-06-16T15:35:56Z</time>
      </trkpt>
      <trkpt lat="49.38799" lon="-0.9542">
        <ele>37.4</ele>
        <time>2020-06-16T15:35:57Z</time>
      </trkpt>
      <trkpt lat="49.388" lon="-0.95414">
        <ele>37.4</ele>
        <time>2020-06-16T15:35:58Z</time>
      </trkpt>
      <trkpt lat="49.388" lon="-0.95407">
        <ele>37.4</ele>
        <time>2020-06-16T15:35:59Z</time>
      </trkpt>
      <trkpt lat="49.388" lon="-0.954">
        <ele>37.4</ele>
        <time>2020-06-16T15:36:00Z</time>
      </trkpt>
      <trkpt lat="49.388" lon="-0.95393">
        <ele>37.4</ele>
        <time>2020-06-16T15:36:01Z</time>
      </trkpt>
      <trkpt lat="49.388" lon="-0.95386">
        <ele>37.4</ele>
        <time>2020-06-16T15:36:02Z</time>
      </trkpt>
      <trkpt lat="49.388" lon="-0.95379">
        <ele>37.4</ele>
        <time>2020-06-16T15:36:03Z</time>
      </trkpt>
      <trkpt lat="49.388" lon="-0.95372">
        <ele>37.4</ele>
        <time>2020-06-16T15:36:04Z</time>
      </trkpt>
      <trkpt lat="49.388" lon="-0.95366">
        <ele>37.4</ele>
        <time>2020-06-16T15:36:05Z</time>
      </trkpt>
      <trkpt lat="49.38801" lon="-0.95359">
        <ele>37.4</ele>
        <time>2020-06-16T15:36:06Z</time>
      </trkpt>
      <trkpt lat="49.38801" lon="-0.95352">
        <ele>37.3</ele>
        <time>2020-06-16T15:36:07Z</time>
      </trkpt>
      <trkpt lat="49.38802" lon="-0.95344">
        <ele>37.3</ele>
        <time>2020-06-16T15:36:08Z</time>
      </trkpt>
      <trkpt lat="49.38802" lon="-0.95337">
        <ele>37.3</ele>
        <time>2020-06-16T15:36:09Z</time>
      </trkpt>
      <trkpt lat="49.38802" lon="-0.95331">
        <ele>37.3</ele>
        <time>2020-06-16T15:36:10Z</time>
      </trkpt>
      <trkpt lat="49.38802" lon="-0.95323">
        <ele>37.2</ele>
        <time>2020-06-16T15:36:11Z</time>
      </trkpt>
      <trkpt lat="49.38802" lon="-0.95317">
        <ele>37.2</ele>
        <time>2020-06-16T15:36:12Z</time>
      </trkpt>
      <trkpt lat="49.38802" lon="-0.9531">
        <ele>37.2</ele>
        <time>2020-06-16T15:36:13Z</time>
      </trkpt>
      <trkpt lat="49.38801" lon="-0.95303">
        <ele>37.1</ele>
        <time>2020-06-16T15:36:14Z</time>
      </trkpt>
      <trkpt lat="49.38801" lon="-0.95297">
        <ele>37.1</ele>
        <time>2020-06-16T15:36:15Z</time>
      </trkpt>
      <trkpt lat="49.38802" lon="-0.95289">
        <ele>37.1</ele>
        <time>2020-06-16T15:36:16Z</time>
      </trkpt>
      <trkpt lat="49.38802" lon="-0.95281">
        <ele>37.1</ele>
        <time>2020-06-16T15:36:17Z</time>
      </trkpt>
      <trkpt lat="49.38803" lon="-0.95272">
        <ele>37</ele>
        <time>2020-06-16T15:36:18Z</time>
      </trkpt>
      <trkpt lat="49.38803" lon="-0.95264">
        <ele>37</ele>
        <time>2020-06-16T15:36:19Z</time>
      </trkpt>
      <trkpt lat="49.38803" lon="-0.95256">
        <ele>37</ele>
        <time>2020-06-16T15:36:20Z</time>
      </trkpt>
      <trkpt lat="49.38803" lon="-0.95247">
        <ele>37</ele>
        <time>2020-06-16T15:36:21Z</time>
      </trkpt>
      <trkpt lat="49.38802" lon="-0.95238">
        <ele>36.9</ele>
        <time>2020-06-16T15:36:22Z</time>
      </trkpt>
      <trkpt lat="49.38803" lon="-0.9523">
        <ele>36.9</ele>
        <time>2020-06-16T15:36:23Z</time>
      </trkpt>
      <trkpt lat="49.38803" lon="-0.95222">
        <ele>36.9</ele>
        <time>2020-06-16T15:36:24Z</time>
      </trkpt>
      <trkpt lat="49.38803" lon="-0.95215">
        <ele>36.9</ele>
        <time>2020-06-16T15:36:25Z</time>
      </trkpt>
      <trkpt lat="49.38802" lon="-0.95206">
        <ele>36.9</ele>
        <time>2020-06-16T15:36:26Z</time>
      </trkpt>
      <trkpt lat="49.38802" lon="-0.95198">
        <ele>36.9</ele>
        <time>2020-06-16T15:36:27Z</time>
      </trkpt>
      <trkpt lat="49.38802" lon="-0.9519">
        <ele>36.9</ele>
        <time>2020-06-16T15:36:28Z</time>
      </trkpt>
      <trkpt lat="49.38802" lon="-0.95182">
        <ele>36.9</ele>
        <time>2020-06-16T15:36:29Z</time>
      </trkpt>
      <trkpt lat="49.38801" lon="-0.95173">
        <ele>36.9</ele>
        <time>2020-06-16T15:36:30Z</time>
      </trkpt>
      <trkpt lat="49.38801" lon="-0.95166">
        <ele>36.9</ele>
        <time>2020-06-16T15:36:31Z</time>
      </trkpt>
      <trkpt lat="49.38801" lon="-0.95158">
        <ele>36.9</ele>
        <time>2020-06-16T15:36:32Z</time>
      </trkpt>
      <trkpt lat="49.38801" lon="-0.9515">
        <ele>36.9</ele>
        <time>2020-06-16T15:36:33Z</time>
      </trkpt>
      <trkpt lat="49.388" lon="-0.95143">
        <ele>36.9</ele>
        <time>2020-06-16T15:36:34Z</time>
      </trkpt>
      <trkpt lat="49.388" lon="-0.95136">
        <ele>36.9</ele>
        <time>2020-06-16T15:36:35Z</time>
      </trkpt>
      <trkpt lat="49.38799" lon="-0.95129">
        <ele>36.9</ele>
        <time>2020-06-16T15:36:36Z</time>
      </trkpt>
      <trkpt lat="49.38799" lon="-0.95121">
        <ele>36.9</ele>
        <time>2020-06-16T15:36:37Z</time>
      </trkpt>
      <trkpt lat="49.38799" lon="-0.95113">
        <ele>36.9</ele>
        <time>2020-06-16T15:36:38Z</time>
      </trkpt>
      <trkpt lat="49.38798" lon="-0.95105">
        <ele>36.9</ele>
        <time>2020-06-16T15:36:39Z</time>
      </trkpt>
      <trkpt lat="49.38798" lon="-0.95097">
        <ele>36.8</ele>
        <time>2020-06-16T15:36:40Z</time>
      </trkpt>
      <trkpt lat="49.38798" lon="-0.9509">
        <ele>36.8</ele>
        <time>2020-06-16T15:36:41Z</time>
      </trkpt>
      <trkpt lat="49.38798" lon="-0.95082">
        <ele>36.8</ele>
        <time>2020-06-16T15:36:42Z</time>
      </trkpt>
      <trkpt lat="49.38797" lon="-0.95075">
        <ele>36.8</ele>
        <time>2020-06-16T15:36:43Z</time>
      </trkpt>
      <trkpt lat="49.38797" lon="-0.95068">
        <ele>36.7</ele>
        <time>2020-06-16T15:36:44Z</time>
      </trkpt>
      <trkpt lat="49.38797" lon="-0.9506">
        <ele>36.7</ele>
        <time>2020-06-16T15:36:45Z</time>
      </trkpt>
      <trkpt lat="49.38798" lon="-0.95053">
        <ele>36.6</ele>
        <time>2020-06-16T15:36:46Z</time>
      </trkpt>
      <trkpt lat="49.38799" lon="-0.95046">
        <ele>36.6</ele>
        <time>2020-06-16T15:36:47Z</time>
      </trkpt>
      <trkpt lat="49.38799" lon="-0.9504">
        <ele>36.6</ele>
        <time>2020-06-16T15:36:48Z</time>
      </trkpt>
      <trkpt lat="49.38799" lon="-0.95034">
        <ele>36.5</ele>
        <time>2020-06-16T15:36:49Z</time>
      </trkpt>
      <trkpt lat="49.38798" lon="-0.95028">
        <ele>36.5</ele>
        <time>2020-06-16T15:36:50Z</time>
      </trkpt>
      <trkpt lat="49.38798" lon="-0.95022">
        <ele>36.5</ele>
        <time>2020-06-16T15:36:51Z</time>
      </trkpt>
      <trkpt lat="49.38798" lon="-0.95016">
        <ele>36.4</ele>
        <time>2020-06-16T15:36:52Z</time>
      </trkpt>
      <trkpt lat="49.38797" lon="-0.95009">
        <ele>36.4</ele>
        <time>2020-06-16T15:36:53Z</time>
      </trkpt>
      <trkpt lat="49.38797" lon="-0.95002">
        <ele>36.3</ele>
        <time>2020-06-16T15:36:54Z</time>
      </trkpt>
      <trkpt lat="49.38797" lon="-0.94995">
        <ele>36.3</ele>
        <time>2020-06-16T15:36:55Z</time>
      </trkpt>
      <trkpt lat="49.38797" lon="-0.94989">
        <ele>36.2</ele>
        <time>2020-06-16T15:36:56Z</time>
      </trkpt>
      <trkpt lat="49.38797" lon="-0.94982">
        <ele>36.2</ele>
        <time>2020-06-16T15:36:57Z</time>
      </trkpt>
      <trkpt lat="49.38796" lon="-0.94975">
        <ele>36.1</ele>
        <time>2020-06-16T15:36:58Z</time>
      </trkpt>
      <trkpt lat="49.38795" lon="-0.94968">
        <ele>36.1</ele>
        <time>2020-06-16T15:36:59Z</time>
      </trkpt>
      <trkpt lat="49.38794" lon="-0.9496">
        <ele>36</ele>
        <time>2020-06-16T15:37:00Z</time>
      </trkpt>
      <trkpt lat="49.38795" lon="-0.94952">
        <ele>36</ele>
        <time>2020-06-16T15:37:01Z</time>
      </trkpt>
      <trkpt lat="49.38794" lon="-0.94942">
        <ele>35.9</ele>
        <time>2020-06-16T15:37:02Z</time>
      </trkpt>
      <trkpt lat="49.38791" lon="-0.94931">
        <ele>35.8</ele>
        <time>2020-06-16T15:37:03Z</time>
      </trkpt>
      <trkpt lat="49.38792" lon="-0.94923">
        <ele>35.7</ele>
        <time>2020-06-16T15:37:04Z</time>
      </trkpt>
      <trkpt lat="49.38793" lon="-0.94913">
        <ele>35.7</ele>
        <time>2020-06-16T15:37:05Z</time>
      </trkpt>
      <trkpt lat="49.38794" lon="-0.94906">
        <ele>35.7</ele>
        <time>2020-06-16T15:37:06Z</time>
      </trkpt>
      <trkpt lat="49.38795" lon="-0.94899">
        <ele>35.7</ele>
        <time>2020-06-16T15:37:07Z</time>
      </trkpt>
      <trkpt lat="49.38795" lon="-0.94892">
        <ele>35.8</ele>
        <time>2020-06-16T15:37:08Z</time>
      </trkpt>
      <trkpt lat="49.38795" lon="-0.94883">
        <ele>35.9</ele>
        <time>2020-06-16T15:37:09Z</time>
      </trkpt>
      <trkpt lat="49.38796" lon="-0.94875">
        <ele>36.1</ele>
        <time>2020-06-16T15:37:10Z</time>
      </trkpt>
      <trkpt lat="49.38796" lon="-0.94865">
        <ele>36.2</ele>
        <time>2020-06-16T15:37:11Z</time>
      </trkpt>
      <trkpt lat="49.38798" lon="-0.94855">
        <ele>36.1</ele>
        <time>2020-06-16T15:37:12Z</time>
      </trkpt>
      <trkpt lat="49.38798" lon="-0.94845">
        <ele>36.1</ele>
        <time>2020-06-16T15:37:13Z</time>
      </trkpt>
      <trkpt lat="49.388" lon="-0.94836">
        <ele>36.1</ele>
        <time>2020-06-16T15:37:14Z</time>
      </trkpt>
      <trkpt lat="49.388" lon="-0.94827">
        <ele>36</ele>
        <time>2020-06-16T15:37:15Z</time>
      </trkpt>
      <trkpt lat="49.38799" lon="-0.94818">
        <ele>36</ele>
        <time>2020-06-16T15:37:16Z</time>
      </trkpt>
      <trkpt lat="49.38799" lon="-0.94809">
        <ele>36</ele>
        <time>2020-06-16T15:37:17Z</time>
      </trkpt>
      <trkpt lat="49.38799" lon="-0.94801">
        <ele>35.9</ele>
        <time>2020-06-16T15:37:18Z</time>
      </trkpt>
      <trkpt lat="49.38799" lon="-0.94791">
        <ele>35.9</ele>
        <time>2020-06-16T15:37:19Z</time>
      </trkpt>
      <trkpt lat="49.38799" lon="-0.94782">
        <ele>35.8</ele>
        <time>2020-06-16T15:37:20Z</time>
      </trkpt>
      <trkpt lat="49.38799" lon="-0.94773">
        <ele>35.8</ele>
        <time>2020-06-16T15:37:21Z</time>
      </trkpt>
      <trkpt lat="49.38799" lon="-0.94764">
        <ele>35.7</ele>
        <time>2020-06-16T15:37:22Z</time>
      </trkpt>
      <trkpt lat="49.38799" lon="-0.94756">
        <ele>35.7</ele>
        <time>2020-06-16T15:37:23Z</time>
      </trkpt>
      <trkpt lat="49.388" lon="-0.94748">
        <ele>35.7</ele>
        <time>2020-06-16T15:37:24Z</time>
      </trkpt>
      <trkpt lat="49.388" lon="-0.94739">
        <ele>35.6</ele>
        <time>2020-06-16T15:37:25Z</time>
      </trkpt>
      <trkpt lat="49.38801" lon="-0.94731">
        <ele>35.6</ele>
        <time>2020-06-16T15:37:26Z</time>
      </trkpt>
      <trkpt lat="49.38801" lon="-0.94722">
        <ele>35.6</ele>
        <time>2020-06-16T15:37:27Z</time>
      </trkpt>
      <trkpt lat="49.38803" lon="-0.94714">
        <ele>35.6</ele>
        <time>2020-06-16T15:37:28Z</time>
      </trkpt>
      <trkpt lat="49.38804" lon="-0.94706">
        <ele>35.6</ele>
        <time>2020-06-16T15:37:29Z</time>
      </trkpt>
      <trkpt lat="49.38804" lon="-0.94697">
        <ele>35.6</ele>
        <time>2020-06-16T15:37:30Z</time>
      </trkpt>
      <trkpt lat="49.38806" lon="-0.94688">
        <ele>35.6</ele>
        <time>2020-06-16T15:37:31Z</time>
      </trkpt>
      <trkpt lat="49.38807" lon="-0.94678">
        <ele>35.6</ele>
        <time>2020-06-16T15:37:32Z</time>
      </trkpt>
      <trkpt lat="49.38808" lon="-0.94669">
        <ele>35.6</ele>
        <time>2020-06-16T15:37:33Z</time>
      </trkpt>
      <trkpt lat="49.38808" lon="-0.94661">
        <ele>35.5</ele>
        <time>2020-06-16T15:37:34Z</time>
      </trkpt>
      <trkpt lat="49.38809" lon="-0.94652">
        <ele>35.5</ele>
        <time>2020-06-16T15:37:35Z</time>
      </trkpt>
      <trkpt lat="49.38809" lon="-0.94643">
        <ele>35.5</ele>
        <time>2020-06-16T15:37:36Z</time>
      </trkpt>
      <trkpt lat="49.3881" lon="-0.94632">
        <ele>35.5</ele>
        <time>2020-06-16T15:37:37Z</time>
      </trkpt>
      <trkpt lat="49.38809" lon="-0.94623">
        <ele>35.5</ele>
        <time>2020-06-16T15:37:38Z</time>
      </trkpt>
      <trkpt lat="49.38808" lon="-0.94612">
        <ele>35.4</ele>
        <time>2020-06-16T15:37:39Z</time>
      </trkpt>
      <trkpt lat="49.38808" lon="-0.94602">
        <ele>35.4</ele>
        <time>2020-06-16T15:37:40Z</time>
      </trkpt>
      <trkpt lat="49.38806" lon="-0.94593">
        <ele>35.4</ele>
        <time>2020-06-16T15:37:41Z</time>
      </trkpt>
      <trkpt lat="49.38806" lon="-0.94583">
        <ele>35.4</ele>
        <time>2020-06-16T15:37:42Z</time>
      </trkpt>
      <trkpt lat="49.38806" lon="-0.94574">
        <ele>35.4</ele>
        <time>2020-06-16T15:37:43Z</time>
      </trkpt>
      <trkpt lat="49.38806" lon="-0.94565">
        <ele>35.4</ele>
        <time>2020-06-16T15:37:44Z</time>
      </trkpt>
      <trkpt lat="49.38806" lon="-0.94558">
        <ele>35.4</ele>
        <time>2020-06-16T15:37:45Z</time>
      </trkpt>
      <trkpt lat="49.38806" lon="-0.94549">
        <ele>35.4</ele>
        <time>2020-06-16T15:37:46Z</time>
      </trkpt>
      <trkpt lat="49.38807" lon="-0.94541">
        <ele>35.4</ele>
        <time>2020-06-16T15:37:47Z</time>
      </trkpt>
      <trkpt lat="49.38807" lon="-0.94534">
        <ele>35.4</ele>
        <time>2020-06-16T15:37:48Z</time>
      </trkpt>
      <trkpt lat="49.38808" lon="-0.94526">
        <ele>35.4</ele>
        <time>2020-06-16T15:37:49Z</time>
      </trkpt>
      <trkpt lat="49.38808" lon="-0.94518">
        <ele>35.4</ele>
        <time>2020-06-16T15:37:50Z</time>
      </trkpt>
      <trkpt lat="49.38809" lon="-0.9451">
        <ele>35.4</ele>
        <time>2020-06-16T15:37:51Z</time>
      </trkpt>
      <trkpt lat="49.3881" lon="-0.94498">
        <ele>35.4</ele>
        <time>2020-06-16T15:37:52Z</time>
      </trkpt>
      <trkpt lat="49.38811" lon="-0.94488">
        <ele>35.4</ele>
        <time>2020-06-16T15:37:53Z</time>
      </trkpt>
      <trkpt lat="49.38812" lon="-0.94478">
        <ele>35.4</ele>
        <time>2020-06-16T15:37:54Z</time>
      </trkpt>
      <trkpt lat="49.38813" lon="-0.94466">
        <ele>35.5</ele>
        <time>2020-06-16T15:37:55Z</time>
      </trkpt>
      <trkpt lat="49.38814" lon="-0.94456">
        <ele>35.6</ele>
        <time>2020-06-16T15:37:56Z</time>
      </trkpt>
      <trkpt lat="49.38816" lon="-0.94446">
        <ele>35.6</ele>
        <time>2020-06-16T15:37:57Z</time>
      </trkpt>
      <trkpt lat="49.38816" lon="-0.94435">
        <ele>35.5</ele>
        <time>2020-06-16T15:37:58Z</time>
      </trkpt>
      <trkpt lat="49.38817" lon="-0.94425">
        <ele>35.5</ele>
        <time>2020-06-16T15:37:59Z</time>
      </trkpt>
      <trkpt lat="49.38817" lon="-0.94418">
        <ele>35.5</ele>
        <time>2020-06-16T15:38:00Z</time>
      </trkpt>
      <trkpt lat="49.38817" lon="-0.94411">
        <ele>35.6</ele>
        <time>2020-06-16T15:38:01Z</time>
      </trkpt>
      <trkpt lat="49.38817" lon="-0.94402">
        <ele>35.6</ele>
        <time>2020-06-16T15:38:02Z</time>
      </trkpt>
      <trkpt lat="49.38818" lon="-0.94395">
        <ele>35.6</ele>
        <time>2020-06-16T15:38:03Z</time>
      </trkpt>
      <trkpt lat="49.38819" lon="-0.94386">
        <ele>35.7</ele>
        <time>2020-06-16T15:38:04Z</time>
      </trkpt>
      <trkpt lat="49.3882" lon="-0.94376">
        <ele>35.7</ele>
        <time>2020-06-16T15:38:05Z</time>
      </trkpt>
      <trkpt lat="49.38821" lon="-0.94366">
        <ele>35.8</ele>
        <time>2020-06-16T15:38:06Z</time>
      </trkpt>
      <trkpt lat="49.38822" lon="-0.94355">
        <ele>35.8</ele>
        <time>2020-06-16T15:38:07Z</time>
      </trkpt>
      <trkpt lat="49.38823" lon="-0.94346">
        <ele>35.8</ele>
        <time>2020-06-16T15:38:08Z</time>
      </trkpt>
      <trkpt lat="49.38825" lon="-0.94336">
        <ele>35.8</ele>
        <time>2020-06-16T15:38:09Z</time>
      </trkpt>
      <trkpt lat="49.38826" lon="-0.94328">
        <ele>35.8</ele>
        <time>2020-06-16T15:38:10Z</time>
      </trkpt>
      <trkpt lat="49.38826" lon="-0.94321">
        <ele>35.8</ele>
        <time>2020-06-16T15:38:11Z</time>
      </trkpt>
      <trkpt lat="49.38826" lon="-0.94313">
        <ele>35.9</ele>
        <time>2020-06-16T15:38:12Z</time>
      </trkpt>
      <trkpt lat="49.38827" lon="-0.94307">
        <ele>35.9</ele>
        <time>2020-06-16T15:38:13Z</time>
      </trkpt>
      <trkpt lat="49.38827" lon="-0.943">
        <ele>35.9</ele>
        <time>2020-06-16T15:38:14Z</time>
      </trkpt>
      <trkpt lat="49.38827" lon="-0.94292">
        <ele>35.9</ele>
        <time>2020-06-16T15:38:15Z</time>
      </trkpt>
      <trkpt lat="49.38828" lon="-0.94285">
        <ele>35.9</ele>
        <time>2020-06-16T15:38:16Z</time>
      </trkpt>
      <trkpt lat="49.38829" lon="-0.94277">
        <ele>35.9</ele>
        <time>2020-06-16T15:38:17Z</time>
      </trkpt>
      <trkpt lat="49.3883" lon="-0.94267">
        <ele>35.9</ele>
        <time>2020-06-16T15:38:18Z</time>
      </trkpt>
      <trkpt lat="49.38831" lon="-0.94258">
        <ele>35.9</ele>
        <time>2020-06-16T15:38:19Z</time>
      </trkpt>
      <trkpt lat="49.38833" lon="-0.94251">
        <ele>35.9</ele>
        <time>2020-06-16T15:38:20Z</time>
      </trkpt>
      <trkpt lat="49.38835" lon="-0.94243">
        <ele>35.9</ele>
        <time>2020-06-16T15:38:21Z</time>
      </trkpt>
      <trkpt lat="49.38837" lon="-0.94236">
        <ele>35.8</ele>
        <time>2020-06-16T15:38:22Z</time>
      </trkpt>
      <trkpt lat="49.38838" lon="-0.94228">
        <ele>35.8</ele>
        <time>2020-06-16T15:38:23Z</time>
      </trkpt>
      <trkpt lat="49.38839" lon="-0.9422">
        <ele>35.8</ele>
        <time>2020-06-16T15:38:24Z</time>
      </trkpt>
      <trkpt lat="49.3884" lon="-0.94212">
        <ele>35.8</ele>
        <time>2020-06-16T15:38:25Z</time>
      </trkpt>
      <trkpt lat="49.38841" lon="-0.94204">
        <ele>35.8</ele>
        <time>2020-06-16T15:38:26Z</time>
      </trkpt>
      <trkpt lat="49.38843" lon="-0.94197">
        <ele>35.8</ele>
        <time>2020-06-16T15:38:27Z</time>
      </trkpt>
      <trkpt lat="49.38843" lon="-0.9419">
        <ele>35.7</ele>
        <time>2020-06-16T15:38:28Z</time>
      </trkpt>
      <trkpt lat="49.38844" lon="-0.94182">
        <ele>35.7</ele>
        <time>2020-06-16T15:38:29Z</time>
      </trkpt>
      <trkpt lat="49.38846" lon="-0.94174">
        <ele>35.7</ele>
        <time>2020-06-16T15:38:30Z</time>
      </trkpt>
      <trkpt lat="49.38848" lon="-0.94164">
        <ele>35.7</ele>
        <time>2020-06-16T15:38:31Z</time>
      </trkpt>
      <trkpt lat="49.3885" lon="-0.94155">
        <ele>35.7</ele>
        <time>2020-06-16T15:38:32Z</time>
      </trkpt>
      <trkpt lat="49.38851" lon="-0.94148">
        <ele>35.7</ele>
        <time>2020-06-16T15:38:33Z</time>
      </trkpt>
      <trkpt lat="49.38853" lon="-0.94141">
        <ele>35.7</ele>
        <time>2020-06-16T15:38:34Z</time>
      </trkpt>
      <trkpt lat="49.38853" lon="-0.94134">
        <ele>35.7</ele>
        <time>2020-06-16T15:38:35Z</time>
      </trkpt>
      <trkpt lat="49.38854" lon="-0.94127">
        <ele>35.7</ele>
        <time>2020-06-16T15:38:36Z</time>
      </trkpt>
      <trkpt lat="49.38855" lon="-0.9412">
        <ele>35.7</ele>
        <time>2020-06-16T15:38:37Z</time>
      </trkpt>
      <trkpt lat="49.38856" lon="-0.94113">
        <ele>35.6</ele>
        <time>2020-06-16T15:38:38Z</time>
      </trkpt>
      <trkpt lat="49.38857" lon="-0.94105">
        <ele>35.6</ele>
        <time>2020-06-16T15:38:39Z</time>
      </trkpt>
      <trkpt lat="49.38857" lon="-0.94097">
        <ele>35.6</ele>
        <time>2020-06-16T15:38:40Z</time>
      </trkpt>
      <trkpt lat="49.38857" lon="-0.9409">
        <ele>35.5</ele>
        <time>2020-06-16T15:38:41Z</time>
      </trkpt>
      <trkpt lat="49.38857" lon="-0.94081">
        <ele>35.5</ele>
        <time>2020-06-16T15:38:42Z</time>
      </trkpt>
      <trkpt lat="49.38857" lon="-0.94073">
        <ele>35.5</ele>
        <time>2020-06-16T15:38:43Z</time>
      </trkpt>
      <trkpt lat="49.38857" lon="-0.94064">
        <ele>35.4</ele>
        <time>2020-06-16T15:38:44Z</time>
      </trkpt>
      <trkpt lat="49.38857" lon="-0.94055">
        <ele>35.4</ele>
        <time>2020-06-16T15:38:45Z</time>
      </trkpt>
      <trkpt lat="49.38856" lon="-0.94046">
        <ele>35.3</ele>
        <time>2020-06-16T15:38:46Z</time>
      </trkpt>
      <trkpt lat="49.38855" lon="-0.94037">
        <ele>35.3</ele>
        <time>2020-06-16T15:38:47Z</time>
      </trkpt>
      <trkpt lat="49.38853" lon="-0.9403">
        <ele>35.3</ele>
        <time>2020-06-16T15:38:48Z</time>
      </trkpt>
      <trkpt lat="49.38851" lon="-0.94022">
        <ele>35.3</ele>
        <time>2020-06-16T15:38:49Z</time>
      </trkpt>
      <trkpt lat="49.38849" lon="-0.94015">
        <ele>35.3</ele>
        <time>2020-06-16T15:38:50Z</time>
      </trkpt>
      <trkpt lat="49.38847" lon="-0.94008">
        <ele>35.4</ele>
        <time>2020-06-16T15:38:51Z</time>
      </trkpt>
      <trkpt lat="49.38844" lon="-0.94001">
        <ele>35.4</ele>
        <time>2020-06-16T15:38:52Z</time>
      </trkpt>
      <trkpt lat="49.38841" lon="-0.93994">
        <ele>35.4</ele>
        <time>2020-06-16T15:38:53Z</time>
      </trkpt>
      <trkpt lat="49.3884" lon="-0.93987">
        <ele>35.4</ele>
        <time>2020-06-16T15:38:54Z</time>
      </trkpt>
      <trkpt lat="49.38838" lon="-0.93981">
        <ele>35.4</ele>
        <time>2020-06-16T15:38:55Z</time>
      </trkpt>
      <trkpt lat="49.38837" lon="-0.93976">
        <ele>35.4</ele>
        <time>2020-06-16T15:38:56Z</time>
      </trkpt>
      <trkpt lat="49.38835" lon="-0.93972">
        <ele>35.4</ele>
        <time>2020-06-16T15:38:57Z</time>
      </trkpt>
      <trkpt lat="49.38833" lon="-0.93969">
        <ele>35.4</ele>
        <time>2020-06-16T15:38:58Z</time>
      </trkpt>
      <trkpt lat="49.38833" lon="-0.93966">
        <ele>35.4</ele>
        <time>2020-06-16T15:38:59Z</time>
      </trkpt>
      <trkpt lat="49.38833" lon="-0.93965">
        <ele>35.4</ele>
        <time>2020-06-16T15:39:00Z</time>
      </trkpt>
      <trkpt lat="49.38835" lon="-0.93966">
        <ele>35.4</ele>
        <time>2020-06-16T15:39:01Z</time>
      </trkpt>
      <trkpt lat="49.38836" lon="-0.93967">
        <ele>35.4</ele>
        <time>2020-06-16T15:39:02Z</time>
      </trkpt>
      <trkpt lat="49.38839" lon="-0.93971">
        <ele>35.4</ele>
        <time>2020-06-16T15:39:03Z</time>
      </trkpt>
      <trkpt lat="49.3884" lon="-0.93972">
        <ele>35.4</ele>
        <time>2020-06-16T15:39:04Z</time>
      </trkpt>
      <trkpt lat="49.38841" lon="-0.93976">
        <ele>35.4</ele>
        <time>2020-06-16T15:39:05Z</time>
      </trkpt>
      <trkpt lat="49.38842" lon="-0.93977">
        <ele>35.4</ele>
        <time>2020-06-16T15:39:06Z</time>
      </trkpt>
      <trkpt lat="49.38843" lon="-0.93979">
        <ele>35.4</ele>
        <time>2020-06-16T15:39:07Z</time>
      </trkpt>
      <trkpt lat="49.38843" lon="-0.93981">
        <ele>35.4</ele>
        <time>2020-06-16T15:39:08Z</time>
      </trkpt>
      <trkpt lat="49.38844" lon="-0.93981">
        <ele>35.4</ele>
        <time>2020-06-16T15:39:09Z</time>
      </trkpt>
      <trkpt lat="49.38845" lon="-0.9398">
        <ele>35.4</ele>
        <time>2020-06-16T15:39:10Z</time>
      </trkpt>
      <trkpt lat="49.38846" lon="-0.93979">
        <ele>35.4</ele>
        <time>2020-06-16T15:39:11Z</time>
      </trkpt>
      <trkpt lat="49.38846" lon="-0.93979">
        <ele>35.4</ele>
        <time>2020-06-16T15:39:12Z</time>
      </trkpt>
      <trkpt lat="49.38846" lon="-0.93978">
        <ele>35.4</ele>
        <time>2020-06-16T15:39:13Z</time>
      </trkpt>
      <trkpt lat="49.38846" lon="-0.93978">
        <ele>35.4</ele>
        <time>2020-06-16T15:39:14Z</time>
      </trkpt>
      <trkpt lat="49.38846" lon="-0.93978">
        <ele>35.4</ele>
        <time>2020-06-16T15:39:15Z</time>
      </trkpt>
      <trkpt lat="49.38846" lon="-0.93978">
        <ele>35.4</ele>
        <time>2020-06-16T15:39:16Z</time>
      </trkpt>
      <trkpt lat="49.38846" lon="-0.93977">
        <ele>35.4</ele>
        <time>2020-06-16T15:39:17Z</time>
      </trkpt>
      <trkpt lat="49.38846" lon="-0.93977">
        <ele>35.4</ele>
        <time>2020-06-16T15:39:18Z</time>
      </trkpt>
      <trkpt lat="49.38846" lon="-0.93977">
        <ele>35.4</ele>
        <time>2020-06-16T15:39:19Z</time>
      </trkpt>
      <trkpt lat="49.38848" lon="-0.93984">
        <ele>35.4</ele>
        <time>2020-06-16T15:39:32Z</time>
      </trkpt>
      <trkpt lat="49.38848" lon="-0.93985">
        <ele>35.3</ele>
        <time>2020-06-16T15:39:33Z</time>
      </trkpt>
      <trkpt lat="49.38848" lon="-0.93986">
        <ele>35.3</ele>
        <time>2020-06-16T15:39:34Z</time>
      </trkpt>
      <trkpt lat="49.38848" lon="-0.93987">
        <ele>35.3</ele>
        <time>2020-06-16T15:39:35Z</time>
      </trkpt>
      <trkpt lat="49.38848" lon="-0.93986">
        <ele>35.3</ele>
        <time>2020-06-16T15:39:36Z</time>
      </trkpt>
      <trkpt lat="49.38848" lon="-0.93985">
        <ele>35.3</ele>
        <time>2020-06-16T15:39:37Z</time>
      </trkpt>
      <trkpt lat="49.38847" lon="-0.93984">
        <ele>35.3</ele>
        <time>2020-06-16T15:39:38Z</time>
      </trkpt>
      <trkpt lat="49.38847" lon="-0.93983">
        <ele>35.3</ele>
        <time>2020-06-16T15:39:39Z</time>
      </trkpt>
      <trkpt lat="49.38846" lon="-0.93982">
        <ele>35.3</ele>
        <time>2020-06-16T15:39:40Z</time>
      </trkpt>
      <trkpt lat="49.38846" lon="-0.93981">
        <ele>35.3</ele>
        <time>2020-06-16T15:39:41Z</time>
      </trkpt>
      <trkpt lat="49.38846" lon="-0.9398">
        <ele>35.3</ele>
        <time>2020-06-16T15:39:42Z</time>
      </trkpt>
      <trkpt lat="49.38845" lon="-0.93979">
        <ele>35.3</ele>
        <time>2020-06-16T15:39:43Z</time>
      </trkpt>
      <trkpt lat="49.38845" lon="-0.93978">
        <ele>35.3</ele>
        <time>2020-06-16T15:39:44Z</time>
      </trkpt>
      <trkpt lat="49.38845" lon="-0.93976">
        <ele>35.3</ele>
        <time>2020-06-16T15:39:45Z</time>
      </trkpt>
      <trkpt lat="49.38844" lon="-0.93975">
        <ele>35.3</ele>
        <time>2020-06-16T15:39:46Z</time>
      </trkpt>
      <trkpt lat="49.38844" lon="-0.93974">
        <ele>35.3</ele>
        <time>2020-06-16T15:39:47Z</time>
      </trkpt>
      <trkpt lat="49.38843" lon="-0.93973">
        <ele>35.3</ele>
        <time>2020-06-16T15:39:48Z</time>
      </trkpt>
      <trkpt lat="49.38843" lon="-0.93972">
        <ele>35.3</ele>
        <time>2020-06-16T15:39:49Z</time>
      </trkpt>
      <trkpt lat="49.38843" lon="-0.93971">
        <ele>35.3</ele>
        <time>2020-06-16T15:39:50Z</time>
      </trkpt>
      <trkpt lat="49.38842" lon="-0.9397">
        <ele>35.3</ele>
        <time>2020-06-16T15:39:51Z</time>
      </trkpt>
      <trkpt lat="49.38842" lon="-0.93969">
        <ele>35.3</ele>
        <time>2020-06-16T15:39:52Z</time>
      </trkpt>
      <trkpt lat="49.38842" lon="-0.93968">
        <ele>35.3</ele>
        <time>2020-06-16T15:39:53Z</time>
      </trkpt>
      <trkpt lat="49.38841" lon="-0.93967">
        <ele>35.3</ele>
        <time>2020-06-16T15:39:54Z</time>
      </trkpt>
      <trkpt lat="49.38841" lon="-0.93965">
        <ele>35.3</ele>
        <time>2020-06-16T15:47:03Z</time>
      </trkpt>
      <trkpt lat="49.3884" lon="-0.93964">
        <ele>35.3</ele>
        <time>2020-06-16T15:47:04Z</time>
      </trkpt>
      <trkpt lat="49.3884" lon="-0.93963">
        <ele>35.3</ele>
        <time>2020-06-16T15:47:05Z</time>
      </trkpt>
      <trkpt lat="49.38838" lon="-0.93961">
        <ele>35.3</ele>
        <time>2020-06-16T15:47:06Z</time>
      </trkpt>
      <trkpt lat="49.38836" lon="-0.93957">
        <ele>35.3</ele>
        <time>2020-06-16T15:47:07Z</time>
      </trkpt>
      <trkpt lat="49.38833" lon="-0.93954">
        <ele>35.3</ele>
        <time>2020-06-16T15:47:08Z</time>
      </trkpt>
      <trkpt lat="49.38832" lon="-0.93949">
        <ele>35.3</ele>
        <time>2020-06-16T15:47:09Z</time>
      </trkpt>
      <trkpt lat="49.3883" lon="-0.93944">
        <ele>35.3</ele>
        <time>2020-06-16T15:47:10Z</time>
      </trkpt>
      <trkpt lat="49.38828" lon="-0.93938">
        <ele>35.3</ele>
        <time>2020-06-16T15:47:11Z</time>
      </trkpt>
      <trkpt lat="49.38827" lon="-0.93932">
        <ele>35.3</ele>
        <time>2020-06-16T15:47:12Z</time>
      </trkpt>
      <trkpt lat="49.38826" lon="-0.93925">
        <ele>35.3</ele>
        <time>2020-06-16T15:47:13Z</time>
      </trkpt>
      <trkpt lat="49.38826" lon="-0.93917">
        <ele>35.3</ele>
        <time>2020-06-16T15:47:14Z</time>
      </trkpt>
      <trkpt lat="49.38825" lon="-0.93909">
        <ele>35.3</ele>
        <time>2020-06-16T15:47:15Z</time>
      </trkpt>
      <trkpt lat="49.38824" lon="-0.93901">
        <ele>35.3</ele>
        <time>2020-06-16T15:47:16Z</time>
      </trkpt>
      <trkpt lat="49.38824" lon="-0.93894">
        <ele>35.3</ele>
        <time>2020-06-16T15:47:17Z</time>
      </trkpt>
      <trkpt lat="49.38824" lon="-0.93885">
        <ele>35.3</ele>
        <time>2020-06-16T15:47:18Z</time>
      </trkpt>
      <trkpt lat="49.38823" lon="-0.93878">
        <ele>35.3</ele>
        <time>2020-06-16T15:47:19Z</time>
      </trkpt>
      <trkpt lat="49.38821" lon="-0.93871">
        <ele>35.3</ele>
        <time>2020-06-16T15:47:20Z</time>
      </trkpt>
      <trkpt lat="49.38821" lon="-0.93864">
        <ele>35.3</ele>
        <time>2020-06-16T15:47:21Z</time>
      </trkpt>
      <trkpt lat="49.3882" lon="-0.93857">
        <ele>35.3</ele>
        <time>2020-06-16T15:47:22Z</time>
      </trkpt>
      <trkpt lat="49.3882" lon="-0.93851">
        <ele>35.3</ele>
        <time>2020-06-16T15:47:23Z</time>
      </trkpt>
      <trkpt lat="49.3882" lon="-0.93844">
        <ele>35.3</ele>
        <time>2020-06-16T15:47:24Z</time>
      </trkpt>
      <trkpt lat="49.3882" lon="-0.93836">
        <ele>35.3</ele>
        <time>2020-06-16T15:47:25Z</time>
      </trkpt>
      <trkpt lat="49.38821" lon="-0.93828">
        <ele>35.3</ele>
        <time>2020-06-16T15:47:26Z</time>
      </trkpt>
      <trkpt lat="49.38821" lon="-0.9382">
        <ele>35.3</ele>
        <time>2020-06-16T15:47:27Z</time>
      </trkpt>
      <trkpt lat="49.38821" lon="-0.93812">
        <ele>35.2</ele>
        <time>2020-06-16T15:47:28Z</time>
      </trkpt>
      <trkpt lat="49.3882" lon="-0.93805">
        <ele>35.1</ele>
        <time>2020-06-16T15:47:29Z</time>
      </trkpt>
      <trkpt lat="49.38819" lon="-0.93796">
        <ele>35</ele>
        <time>2020-06-16T15:47:30Z</time>
      </trkpt>
      <trkpt lat="49.38818" lon="-0.93789">
        <ele>35</ele>
        <time>2020-06-16T15:47:31Z</time>
      </trkpt>
      <trkpt lat="49.38818" lon="-0.93783">
        <ele>35</ele>
        <time>2020-06-16T15:47:32Z</time>
      </trkpt>
      <trkpt lat="49.38817" lon="-0.93775">
        <ele>35</ele>
        <time>2020-06-16T15:47:33Z</time>
      </trkpt>
      <trkpt lat="49.38817" lon="-0.93768">
        <ele>34.9</ele>
        <time>2020-06-16T15:47:34Z</time>
      </trkpt>
      <trkpt lat="49.38816" lon="-0.93759">
        <ele>34.9</ele>
        <time>2020-06-16T15:47:35Z</time>
      </trkpt>
      <trkpt lat="49.38815" lon="-0.9375">
        <ele>34.9</ele>
        <time>2020-06-16T15:47:36Z</time>
      </trkpt>
      <trkpt lat="49.38814" lon="-0.9374">
        <ele>34.9</ele>
        <time>2020-06-16T15:47:37Z</time>
      </trkpt>
      <trkpt lat="49.38813" lon="-0.93733">
        <ele>34.9</ele>
        <time>2020-06-16T15:47:38Z</time>
      </trkpt>
      <trkpt lat="49.38812" lon="-0.93724">
        <ele>34.9</ele>
        <time>2020-06-16T15:47:39Z</time>
      </trkpt>
      <trkpt lat="49.38812" lon="-0.93717">
        <ele>34.8</ele>
        <time>2020-06-16T15:47:40Z</time>
      </trkpt>
      <trkpt lat="49.3881" lon="-0.9371">
        <ele>34.8</ele>
        <time>2020-06-16T15:47:41Z</time>
      </trkpt>
      <trkpt lat="49.38808" lon="-0.93702">
        <ele>34.8</ele>
        <time>2020-06-16T15:47:42Z</time>
      </trkpt>
      <trkpt lat="49.38806" lon="-0.93693">
        <ele>34.7</ele>
        <time>2020-06-16T15:47:43Z</time>
      </trkpt>
      <trkpt lat="49.38805" lon="-0.93684">
        <ele>34.7</ele>
        <time>2020-06-16T15:47:44Z</time>
      </trkpt>
      <trkpt lat="49.38804" lon="-0.93676">
        <ele>34.7</ele>
        <time>2020-06-16T15:47:45Z</time>
      </trkpt>
      <trkpt lat="49.38802" lon="-0.93667">
        <ele>34.7</ele>
        <time>2020-06-16T15:47:46Z</time>
      </trkpt>
      <trkpt lat="49.38801" lon="-0.93658">
        <ele>34.7</ele>
        <time>2020-06-16T15:47:47Z</time>
      </trkpt>
      <trkpt lat="49.38799" lon="-0.93649">
        <ele>34.7</ele>
        <time>2020-06-16T15:47:48Z</time>
      </trkpt>
      <trkpt lat="49.38797" lon="-0.9364">
        <ele>34.8</ele>
        <time>2020-06-16T15:47:49Z</time>
      </trkpt>
      <trkpt lat="49.38796" lon="-0.93632">
        <ele>34.8</ele>
        <time>2020-06-16T15:47:50Z</time>
      </trkpt>
      <trkpt lat="49.38794" lon="-0.93623">
        <ele>34.9</ele>
        <time>2020-06-16T15:47:51Z</time>
      </trkpt>
      <trkpt lat="49.38792" lon="-0.93613">
        <ele>34.9</ele>
        <time>2020-06-16T15:47:52Z</time>
      </trkpt>
      <trkpt lat="49.3879" lon="-0.93603">
        <ele>34.9</ele>
        <time>2020-06-16T15:47:53Z</time>
      </trkpt>
      <trkpt lat="49.38788" lon="-0.93592">
        <ele>34.9</ele>
        <time>2020-06-16T15:47:54Z</time>
      </trkpt>
      <trkpt lat="49.38786" lon="-0.93583">
        <ele>35</ele>
        <time>2020-06-16T15:47:55Z</time>
      </trkpt>
      <trkpt lat="49.38785" lon="-0.93573">
        <ele>35</ele>
        <time>2020-06-16T15:47:56Z</time>
      </trkpt>
      <trkpt lat="49.38784" lon="-0.93565">
        <ele>35</ele>
        <time>2020-06-16T15:47:57Z</time>
      </trkpt>
      <trkpt lat="49.38782" lon="-0.93557">
        <ele>35.1</ele>
        <time>2020-06-16T15:47:58Z</time>
      </trkpt>
      <trkpt lat="49.38781" lon="-0.93548">
        <ele>35.2</ele>
        <time>2020-06-16T15:47:59Z</time>
      </trkpt>
      <trkpt lat="49.38779" lon="-0.93537">
        <ele>35.2</ele>
        <time>2020-06-16T15:48:00Z</time>
      </trkpt>
      <trkpt lat="49.38777" lon="-0.93529">
        <ele>35.3</ele>
        <time>2020-06-16T15:48:01Z</time>
      </trkpt>
      <trkpt lat="49.38775" lon="-0.9352">
        <ele>35.4</ele>
        <time>2020-06-16T15:48:02Z</time>
      </trkpt>
      <trkpt lat="49.38773" lon="-0.93511">
        <ele>35.5</ele>
        <time>2020-06-16T15:48:03Z</time>
      </trkpt>
      <trkpt lat="49.38771" lon="-0.93501">
        <ele>35.6</ele>
        <time>2020-06-16T15:48:04Z</time>
      </trkpt>
      <trkpt lat="49.3877" lon="-0.93492">
        <ele>35.7</ele>
        <time>2020-06-16T15:48:05Z</time>
      </trkpt>
      <trkpt lat="49.38768" lon="-0.93482">
        <ele>35.7</ele>
        <time>2020-06-16T15:48:06Z</time>
      </trkpt>
      <trkpt lat="49.38767" lon="-0.93473">
        <ele>35.9</ele>
        <time>2020-06-16T15:48:07Z</time>
      </trkpt>
      <trkpt lat="49.38765" lon="-0.93465">
        <ele>36</ele>
        <time>2020-06-16T15:48:08Z</time>
      </trkpt>
      <trkpt lat="49.38763" lon="-0.93456">
        <ele>36.1</ele>
        <time>2020-06-16T15:48:09Z</time>
      </trkpt>
      <trkpt lat="49.38762" lon="-0.93446">
        <ele>36.2</ele>
        <time>2020-06-16T15:48:10Z</time>
      </trkpt>
      <trkpt lat="49.38761" lon="-0.93438">
        <ele>36.3</ele>
        <time>2020-06-16T15:48:11Z</time>
      </trkpt>
      <trkpt lat="49.3876" lon="-0.93429">
        <ele>36.4</ele>
        <time>2020-06-16T15:48:12Z</time>
      </trkpt>
      <trkpt lat="49.38758" lon="-0.9342">
        <ele>36.5</ele>
        <time>2020-06-16T15:48:13Z</time>
      </trkpt>
      <trkpt lat="49.38758" lon="-0.93411">
        <ele>36.6</ele>
        <time>2020-06-16T15:48:14Z</time>
      </trkpt>
      <trkpt lat="49.38756" lon="-0.93402">
        <ele>36.7</ele>
        <time>2020-06-16T15:48:15Z</time>
      </trkpt>
      <trkpt lat="49.38754" lon="-0.93394">
        <ele>36.8</ele>
        <time>2020-06-16T15:48:16Z</time>
      </trkpt>
      <trkpt lat="49.38753" lon="-0.93385">
        <ele>36.9</ele>
        <time>2020-06-16T15:48:17Z</time>
      </trkpt>
      <trkpt lat="49.38751" lon="-0.93377">
        <ele>37</ele>
        <time>2020-06-16T15:48:18Z</time>
      </trkpt>
      <trkpt lat="49.38748" lon="-0.93368">
        <ele>37.1</ele>
        <time>2020-06-16T15:48:19Z</time>
      </trkpt>
      <trkpt lat="49.38747" lon="-0.93361">
        <ele>37.2</ele>
        <time>2020-06-16T15:48:20Z</time>
      </trkpt>
      <trkpt lat="49.38745" lon="-0.93353">
        <ele>37.3</ele>
        <time>2020-06-16T15:48:21Z</time>
      </trkpt>
      <trkpt lat="49.38743" lon="-0.93344">
        <ele>37.4</ele>
        <time>2020-06-16T15:48:22Z</time>
      </trkpt>
      <trkpt lat="49.38741" lon="-0.93335">
        <ele>37.6</ele>
        <time>2020-06-16T15:48:23Z</time>
      </trkpt>
      <trkpt lat="49.3874" lon="-0.93326">
        <ele>37.7</ele>
        <time>2020-06-16T15:48:24Z</time>
      </trkpt>
      <trkpt lat="49.38738" lon="-0.93318">
        <ele>37.8</ele>
        <time>2020-06-16T15:48:25Z</time>
      </trkpt>
      <trkpt lat="49.38737" lon="-0.9331">
        <ele>37.8</ele>
        <time>2020-06-16T15:48:26Z</time>
      </trkpt>
      <trkpt lat="49.38735" lon="-0.93301">
        <ele>37.9</ele>
        <time>2020-06-16T15:48:27Z</time>
      </trkpt>
      <trkpt lat="49.38734" lon="-0.93293">
        <ele>38</ele>
        <time>2020-06-16T15:48:28Z</time>
      </trkpt>
      <trkpt lat="49.38732" lon="-0.93285">
        <ele>38</ele>
        <time>2020-06-16T15:48:29Z</time>
      </trkpt>
      <trkpt lat="49.3873" lon="-0.93276">
        <ele>38.1</ele>
        <time>2020-06-16T15:48:30Z</time>
      </trkpt>
      <trkpt lat="49.38729" lon="-0.93267">
        <ele>38.2</ele>
        <time>2020-06-16T15:48:31Z</time>
      </trkpt>
      <trkpt lat="49.38727" lon="-0.9326">
        <ele>38.2</ele>
        <time>2020-06-16T15:48:32Z</time>
      </trkpt>
      <trkpt lat="49.38725" lon="-0.93251">
        <ele>38.3</ele>
        <time>2020-06-16T15:48:33Z</time>
      </trkpt>
      <trkpt lat="49.38722" lon="-0.93243">
        <ele>38.4</ele>
        <time>2020-06-16T15:48:34Z</time>
      </trkpt>
      <trkpt lat="49.38719" lon="-0.93234">
        <ele>38.5</ele>
        <time>2020-06-16T15:48:35Z</time>
      </trkpt>
      <trkpt lat="49.38716" lon="-0.93226">
        <ele>38.6</ele>
        <time>2020-06-16T15:48:36Z</time>
      </trkpt>
      <trkpt lat="49.38713" lon="-0.93218">
        <ele>38.6</ele>
        <time>2020-06-16T15:48:37Z</time>
      </trkpt>
      <trkpt lat="49.38711" lon="-0.93211">
        <ele>38.7</ele>
        <time>2020-06-16T15:48:38Z</time>
      </trkpt>
      <trkpt lat="49.38707" lon="-0.93203">
        <ele>38.7</ele>
        <time>2020-06-16T15:48:39Z</time>
      </trkpt>
      <trkpt lat="49.38704" lon="-0.93195">
        <ele>38.8</ele>
        <time>2020-06-16T15:48:40Z</time>
      </trkpt>
      <trkpt lat="49.387" lon="-0.93188">
        <ele>38.8</ele>
        <time>2020-06-16T15:48:41Z</time>
      </trkpt>
      <trkpt lat="49.38695" lon="-0.93181">
        <ele>38.8</ele>
        <time>2020-06-16T15:48:42Z</time>
      </trkpt>
      <trkpt lat="49.3869" lon="-0.93174">
        <ele>38.9</ele>
        <time>2020-06-16T15:48:43Z</time>
      </trkpt>
      <trkpt lat="49.38687" lon="-0.93168">
        <ele>38.9</ele>
        <time>2020-06-16T15:48:44Z</time>
      </trkpt>
      <trkpt lat="49.38683" lon="-0.93161">
        <ele>39</ele>
        <time>2020-06-16T15:48:45Z</time>
      </trkpt>
      <trkpt lat="49.3868" lon="-0.93154">
        <ele>39</ele>
        <time>2020-06-16T15:48:46Z</time>
      </trkpt>
      <trkpt lat="49.38676" lon="-0.93148">
        <ele>39</ele>
        <time>2020-06-16T15:48:47Z</time>
      </trkpt>
      <trkpt lat="49.38672" lon="-0.93141">
        <ele>39.1</ele>
        <time>2020-06-16T15:48:48Z</time>
      </trkpt>
      <trkpt lat="49.38668" lon="-0.93136">
        <ele>39.1</ele>
        <time>2020-06-16T15:48:49Z</time>
      </trkpt>
      <trkpt lat="49.38666" lon="-0.93131">
        <ele>39.1</ele>
        <time>2020-06-16T15:48:50Z</time>
      </trkpt>
      <trkpt lat="49.38662" lon="-0.93125">
        <ele>39.2</ele>
        <time>2020-06-16T15:48:51Z</time>
      </trkpt>
      <trkpt lat="49.38659" lon="-0.93119">
        <ele>39.2</ele>
        <time>2020-06-16T15:48:52Z</time>
      </trkpt>
      <trkpt lat="49.38655" lon="-0.93114">
        <ele>39.2</ele>
        <time>2020-06-16T15:48:53Z</time>
      </trkpt>
      <trkpt lat="49.38652" lon="-0.93109">
        <ele>39.3</ele>
        <time>2020-06-16T15:48:54Z</time>
      </trkpt>
      <trkpt lat="49.38648" lon="-0.93104">
        <ele>39.3</ele>
        <time>2020-06-16T15:48:55Z</time>
      </trkpt>
      <trkpt lat="49.38644" lon="-0.93099">
        <ele>39.3</ele>
        <time>2020-06-16T15:48:56Z</time>
      </trkpt>
      <trkpt lat="49.3864" lon="-0.93093">
        <ele>39.4</ele>
        <time>2020-06-16T15:48:57Z</time>
      </trkpt>
      <trkpt lat="49.38637" lon="-0.93087">
        <ele>39.4</ele>
        <time>2020-06-16T15:48:58Z</time>
      </trkpt>
      <trkpt lat="49.38633" lon="-0.93081">
        <ele>39.5</ele>
        <time>2020-06-16T15:48:59Z</time>
      </trkpt>
      <trkpt lat="49.3863" lon="-0.93076">
        <ele>39.5</ele>
        <time>2020-06-16T15:49:00Z</time>
      </trkpt>
      <trkpt lat="49.38626" lon="-0.93071">
        <ele>39.6</ele>
        <time>2020-06-16T15:49:01Z</time>
      </trkpt>
      <trkpt lat="49.38623" lon="-0.93066">
        <ele>39.6</ele>
        <time>2020-06-16T15:49:02Z</time>
      </trkpt>
      <trkpt lat="49.3862" lon="-0.93061">
        <ele>39.6</ele>
        <time>2020-06-16T15:49:03Z</time>
      </trkpt>
      <trkpt lat="49.38617" lon="-0.93057">
        <ele>39.6</ele>
        <time>2020-06-16T15:49:04Z</time>
      </trkpt>
      <trkpt lat="49.38614" lon="-0.93052">
        <ele>39.6</ele>
        <time>2020-06-16T15:49:05Z</time>
      </trkpt>
      <trkpt lat="49.3861" lon="-0.93048">
        <ele>39.6</ele>
        <time>2020-06-16T15:49:06Z</time>
      </trkpt>
      <trkpt lat="49.38606" lon="-0.93044">
        <ele>39.7</ele>
        <time>2020-06-16T15:49:07Z</time>
      </trkpt>
      <trkpt lat="49.38602" lon="-0.9304">
        <ele>39.7</ele>
        <time>2020-06-16T15:49:08Z</time>
      </trkpt>
      <trkpt lat="49.38598" lon="-0.93036">
        <ele>39.7</ele>
        <time>2020-06-16T15:49:09Z</time>
      </trkpt>
      <trkpt lat="49.38594" lon="-0.93032">
        <ele>39.8</ele>
        <time>2020-06-16T15:49:10Z</time>
      </trkpt>
      <trkpt lat="49.3859" lon="-0.93027">
        <ele>39.9</ele>
        <time>2020-06-16T15:49:11Z</time>
      </trkpt>
      <trkpt lat="49.38587" lon="-0.93022">
        <ele>39.9</ele>
        <time>2020-06-16T15:49:12Z</time>
      </trkpt>
      <trkpt lat="49.38583" lon="-0.93017">
        <ele>40</ele>
        <time>2020-06-16T15:49:13Z</time>
      </trkpt>
      <trkpt lat="49.3858" lon="-0.93011">
        <ele>40.1</ele>
        <time>2020-06-16T15:49:14Z</time>
      </trkpt>
      <trkpt lat="49.38576" lon="-0.93006">
        <ele>40.2</ele>
        <time>2020-06-16T15:49:15Z</time>
      </trkpt>
      <trkpt lat="49.38572" lon="-0.93001">
        <ele>40.3</ele>
        <time>2020-06-16T15:49:16Z</time>
      </trkpt>
      <trkpt lat="49.38568" lon="-0.92996">
        <ele>40.3</ele>
        <time>2020-06-16T15:49:17Z</time>
      </trkpt>
      <trkpt lat="49.38563" lon="-0.92992">
        <ele>40.4</ele>
        <time>2020-06-16T15:49:18Z</time>
      </trkpt>
      <trkpt lat="49.38559" lon="-0.92986">
        <ele>40.5</ele>
        <time>2020-06-16T15:49:19Z</time>
      </trkpt>
      <trkpt lat="49.38557" lon="-0.9298">
        <ele>40.6</ele>
        <time>2020-06-16T15:49:20Z</time>
      </trkpt>
      <trkpt lat="49.38554" lon="-0.92975">
        <ele>40.7</ele>
        <time>2020-06-16T15:49:21Z</time>
      </trkpt>
      <trkpt lat="49.38551" lon="-0.9297">
        <ele>40.7</ele>
        <time>2020-06-16T15:49:22Z</time>
      </trkpt>
      <trkpt lat="49.38548" lon="-0.92965">
        <ele>40.8</ele>
        <time>2020-06-16T15:49:23Z</time>
      </trkpt>
      <trkpt lat="49.38545" lon="-0.9296">
        <ele>40.8</ele>
        <time>2020-06-16T15:49:24Z</time>
      </trkpt>
      <trkpt lat="49.38541" lon="-0.92955">
        <ele>40.8</ele>
        <time>2020-06-16T15:49:25Z</time>
      </trkpt>
      <trkpt lat="49.38538" lon="-0.9295">
        <ele>40.9</ele>
        <time>2020-06-16T15:49:26Z</time>
      </trkpt>
      <trkpt lat="49.38534" lon="-0.92946">
        <ele>40.9</ele>
        <time>2020-06-16T15:49:27Z</time>
      </trkpt>
      <trkpt lat="49.38531" lon="-0.92941">
        <ele>41</ele>
        <time>2020-06-16T15:49:28Z</time>
      </trkpt>
      <trkpt lat="49.38526" lon="-0.92935">
        <ele>41.1</ele>
        <time>2020-06-16T15:49:29Z</time>
      </trkpt>
      <trkpt lat="49.38523" lon="-0.92929">
        <ele>41.2</ele>
        <time>2020-06-16T15:49:30Z</time>
      </trkpt>
      <trkpt lat="49.38519" lon="-0.92924">
        <ele>41.3</ele>
        <time>2020-06-16T15:49:31Z</time>
      </trkpt>
      <trkpt lat="49.38515" lon="-0.92918">
        <ele>41.4</ele>
        <time>2020-06-16T15:49:32Z</time>
      </trkpt>
      <trkpt lat="49.38511" lon="-0.92912">
        <ele>41.3</ele>
        <time>2020-06-16T15:49:33Z</time>
      </trkpt>
      <trkpt lat="49.38507" lon="-0.92907">
        <ele>41.3</ele>
        <time>2020-06-16T15:49:34Z</time>
      </trkpt>
      <trkpt lat="49.38504" lon="-0.92901">
        <ele>41.3</ele>
        <time>2020-06-16T15:49:35Z</time>
      </trkpt>
      <trkpt lat="49.385" lon="-0.92894">
        <ele>41.3</ele>
        <time>2020-06-16T15:49:36Z</time>
      </trkpt>
      <trkpt lat="49.38497" lon="-0.92889">
        <ele>41.3</ele>
        <time>2020-06-16T15:49:37Z</time>
      </trkpt>
      <trkpt lat="49.38493" lon="-0.92884">
        <ele>41.3</ele>
        <time>2020-06-16T15:49:38Z</time>
      </trkpt>
      <trkpt lat="49.38489" lon="-0.92879">
        <ele>41.4</ele>
        <time>2020-06-16T15:49:39Z</time>
      </trkpt>
      <trkpt lat="49.38485" lon="-0.92874">
        <ele>41.4</ele>
        <time>2020-06-16T15:49:40Z</time>
      </trkpt>
      <trkpt lat="49.3848" lon="-0.9287">
        <ele>41.4</ele>
        <time>2020-06-16T15:49:41Z</time>
      </trkpt>
      <trkpt lat="49.38476" lon="-0.92864">
        <ele>41.4</ele>
        <time>2020-06-16T15:49:42Z</time>
      </trkpt>
      <trkpt lat="49.38472" lon="-0.92859">
        <ele>41.5</ele>
        <time>2020-06-16T15:49:43Z</time>
      </trkpt>
      <trkpt lat="49.38468" lon="-0.92854">
        <ele>41.5</ele>
        <time>2020-06-16T15:49:44Z</time>
      </trkpt>
      <trkpt lat="49.38465" lon="-0.92849">
        <ele>41.5</ele>
        <time>2020-06-16T15:49:45Z</time>
      </trkpt>
      <trkpt lat="49.38461" lon="-0.92843">
        <ele>41.5</ele>
        <time>2020-06-16T15:49:46Z</time>
      </trkpt>
      <trkpt lat="49.38458" lon="-0.92836">
        <ele>41.5</ele>
        <time>2020-06-16T15:49:47Z</time>
      </trkpt>
      <trkpt lat="49.38454" lon="-0.9283">
        <ele>41.6</ele>
        <time>2020-06-16T15:49:48Z</time>
      </trkpt>
      <trkpt lat="49.3845" lon="-0.92824">
        <ele>41.6</ele>
        <time>2020-06-16T15:49:49Z</time>
      </trkpt>
      <trkpt lat="49.38447" lon="-0.92819">
        <ele>41.6</ele>
        <time>2020-06-16T15:49:50Z</time>
      </trkpt>
      <trkpt lat="49.38444" lon="-0.92814">
        <ele>41.7</ele>
        <time>2020-06-16T15:49:51Z</time>
      </trkpt>
      <trkpt lat="49.3844" lon="-0.92809">
        <ele>41.7</ele>
        <time>2020-06-16T15:49:52Z</time>
      </trkpt>
      <trkpt lat="49.38437" lon="-0.92802">
        <ele>41.7</ele>
        <time>2020-06-16T15:49:53Z</time>
      </trkpt>
      <trkpt lat="49.38433" lon="-0.92797">
        <ele>41.7</ele>
        <time>2020-06-16T15:49:54Z</time>
      </trkpt>
      <trkpt lat="49.3843" lon="-0.92791">
        <ele>41.8</ele>
        <time>2020-06-16T15:49:55Z</time>
      </trkpt>
      <trkpt lat="49.38426" lon="-0.92785">
        <ele>41.8</ele>
        <time>2020-06-16T15:49:56Z</time>
      </trkpt>
      <trkpt lat="49.38423" lon="-0.92779">
        <ele>41.8</ele>
        <time>2020-06-16T15:49:57Z</time>
      </trkpt>
      <trkpt lat="49.3842" lon="-0.92772">
        <ele>41.9</ele>
        <time>2020-06-16T15:49:58Z</time>
      </trkpt>
      <trkpt lat="49.38416" lon="-0.92766">
        <ele>41.9</ele>
        <time>2020-06-16T15:49:59Z</time>
      </trkpt>
      <trkpt lat="49.38411" lon="-0.92761">
        <ele>41.9</ele>
        <time>2020-06-16T15:50:00Z</time>
      </trkpt>
      <trkpt lat="49.38406" lon="-0.92755">
        <ele>42</ele>
        <time>2020-06-16T15:50:01Z</time>
      </trkpt>
      <trkpt lat="49.38403" lon="-0.92749">
        <ele>42</ele>
        <time>2020-06-16T15:50:02Z</time>
      </trkpt>
      <trkpt lat="49.384" lon="-0.92742">
        <ele>42.1</ele>
        <time>2020-06-16T15:50:03Z</time>
      </trkpt>
      <trkpt lat="49.38397" lon="-0.92735">
        <ele>42.2</ele>
        <time>2020-06-16T15:50:04Z</time>
      </trkpt>
      <trkpt lat="49.38396" lon="-0.92728">
        <ele>42.2</ele>
        <time>2020-06-16T15:50:05Z</time>
      </trkpt>
      <trkpt lat="49.38394" lon="-0.9272">
        <ele>42.2</ele>
        <time>2020-06-16T15:50:06Z</time>
      </trkpt>
      <trkpt lat="49.38392" lon="-0.92712">
        <ele>42.2</ele>
        <time>2020-06-16T15:50:07Z</time>
      </trkpt>
      <trkpt lat="49.38391" lon="-0.92702">
        <ele>42.2</ele>
        <time>2020-06-16T15:50:08Z</time>
      </trkpt>
      <trkpt lat="49.38389" lon="-0.92693">
        <ele>42.2</ele>
        <time>2020-06-16T15:50:09Z</time>
      </trkpt>
      <trkpt lat="49.38388" lon="-0.92683">
        <ele>42.2</ele>
        <time>2020-06-16T15:50:10Z</time>
      </trkpt>
      <trkpt lat="49.38386" lon="-0.92676">
        <ele>42.3</ele>
        <time>2020-06-16T15:50:11Z</time>
      </trkpt>
      <trkpt lat="49.38385" lon="-0.92668">
        <ele>42.4</ele>
        <time>2020-06-16T15:50:12Z</time>
      </trkpt>
      <trkpt lat="49.38383" lon="-0.92659">
        <ele>42.4</ele>
        <time>2020-06-16T15:50:13Z</time>
      </trkpt>
      <trkpt lat="49.38382" lon="-0.92651">
        <ele>42.4</ele>
        <time>2020-06-16T15:50:14Z</time>
      </trkpt>
      <trkpt lat="49.38381" lon="-0.92644">
        <ele>42.5</ele>
        <time>2020-06-16T15:50:15Z</time>
      </trkpt>
      <trkpt lat="49.3838" lon="-0.92636">
        <ele>42.5</ele>
        <time>2020-06-16T15:50:16Z</time>
      </trkpt>
      <trkpt lat="49.38379" lon="-0.92628">
        <ele>42.6</ele>
        <time>2020-06-16T15:50:17Z</time>
      </trkpt>
      <trkpt lat="49.38378" lon="-0.92619">
        <ele>42.6</ele>
        <time>2020-06-16T15:50:18Z</time>
      </trkpt>
      <trkpt lat="49.38376" lon="-0.92611">
        <ele>42.7</ele>
        <time>2020-06-16T15:50:19Z</time>
      </trkpt>
      <trkpt lat="49.38375" lon="-0.92603">
        <ele>42.7</ele>
        <time>2020-06-16T15:50:20Z</time>
      </trkpt>
      <trkpt lat="49.38374" lon="-0.92596">
        <ele>42.8</ele>
        <time>2020-06-16T15:50:21Z</time>
      </trkpt>
      <trkpt lat="49.38373" lon="-0.92588">
        <ele>42.8</ele>
        <time>2020-06-16T15:50:22Z</time>
      </trkpt>
      <trkpt lat="49.38372" lon="-0.9258">
        <ele>42.9</ele>
        <time>2020-06-16T15:50:23Z</time>
      </trkpt>
      <trkpt lat="49.38371" lon="-0.92571">
        <ele>42.9</ele>
        <time>2020-06-16T15:50:24Z</time>
      </trkpt>
      <trkpt lat="49.38369" lon="-0.92563">
        <ele>43</ele>
        <time>2020-06-16T15:50:25Z</time>
      </trkpt>
      <trkpt lat="49.38368" lon="-0.92556">
        <ele>43.1</ele>
        <time>2020-06-16T15:50:26Z</time>
      </trkpt>
      <trkpt lat="49.38367" lon="-0.92548">
        <ele>43.1</ele>
        <time>2020-06-16T15:50:27Z</time>
      </trkpt>
      <trkpt lat="49.38365" lon="-0.92541">
        <ele>43.2</ele>
        <time>2020-06-16T15:50:28Z</time>
      </trkpt>
      <trkpt lat="49.38363" lon="-0.92532">
        <ele>43.2</ele>
        <time>2020-06-16T15:50:29Z</time>
      </trkpt>
      <trkpt lat="49.38361" lon="-0.92525">
        <ele>43.3</ele>
        <time>2020-06-16T15:50:30Z</time>
      </trkpt>
      <trkpt lat="49.38358" lon="-0.92517">
        <ele>43.3</ele>
        <time>2020-06-16T15:50:31Z</time>
      </trkpt>
      <trkpt lat="49.38356" lon="-0.9251">
        <ele>43.4</ele>
        <time>2020-06-16T15:50:32Z</time>
      </trkpt>
      <trkpt lat="49.38353" lon="-0.92502">
        <ele>43.4</ele>
        <time>2020-06-16T15:50:33Z</time>
      </trkpt>
      <trkpt lat="49.38351" lon="-0.92495">
        <ele>43.5</ele>
        <time>2020-06-16T15:50:34Z</time>
      </trkpt>
      <trkpt lat="49.38348" lon="-0.92488">
        <ele>43.5</ele>
        <time>2020-06-16T15:50:35Z</time>
      </trkpt>
      <trkpt lat="49.38345" lon="-0.92481">
        <ele>43.5</ele>
        <time>2020-06-16T15:50:36Z</time>
      </trkpt>
      <trkpt lat="49.38342" lon="-0.92475">
        <ele>43.5</ele>
        <time>2020-06-16T15:50:37Z</time>
      </trkpt>
      <trkpt lat="49.38339" lon="-0.92468">
        <ele>43.5</ele>
        <time>2020-06-16T15:50:38Z</time>
      </trkpt>
      <trkpt lat="49.38336" lon="-0.92462">
        <ele>43.5</ele>
        <time>2020-06-16T15:50:39Z</time>
      </trkpt>
      <trkpt lat="49.38333" lon="-0.92456">
        <ele>43.6</ele>
        <time>2020-06-16T15:50:40Z</time>
      </trkpt>
      <trkpt lat="49.3833" lon="-0.92449">
        <ele>43.6</ele>
        <time>2020-06-16T15:50:41Z</time>
      </trkpt>
      <trkpt lat="49.38328" lon="-0.92445">
        <ele>43.6</ele>
        <time>2020-06-16T15:50:42Z</time>
      </trkpt>
      <trkpt lat="49.38325" lon="-0.9244">
        <ele>43.6</ele>
        <time>2020-06-16T15:50:43Z</time>
      </trkpt>
      <trkpt lat="49.38323" lon="-0.92435">
        <ele>43.6</ele>
        <time>2020-06-16T15:50:44Z</time>
      </trkpt>
      <trkpt lat="49.3832" lon="-0.9243">
        <ele>43.6</ele>
        <time>2020-06-16T15:50:45Z</time>
      </trkpt>
      <trkpt lat="49.38317" lon="-0.92425">
        <ele>43.6</ele>
        <time>2020-06-16T15:50:46Z</time>
      </trkpt>
      <trkpt lat="49.38313" lon="-0.9242">
        <ele>43.7</ele>
        <time>2020-06-16T15:50:47Z</time>
      </trkpt>
      <trkpt lat="49.3831" lon="-0.92416">
        <ele>43.7</ele>
        <time>2020-06-16T15:50:48Z</time>
      </trkpt>
      <trkpt lat="49.38307" lon="-0.92411">
        <ele>43.7</ele>
        <time>2020-06-16T15:50:49Z</time>
      </trkpt>
      <trkpt lat="49.38304" lon="-0.92405">
        <ele>43.8</ele>
        <time>2020-06-16T15:50:50Z</time>
      </trkpt>
      <trkpt lat="49.383" lon="-0.92399">
        <ele>43.8</ele>
        <time>2020-06-16T15:50:51Z</time>
      </trkpt>
      <trkpt lat="49.38296" lon="-0.92391">
        <ele>43.9</ele>
        <time>2020-06-16T15:50:52Z</time>
      </trkpt>
      <trkpt lat="49.38293" lon="-0.92384">
        <ele>44</ele>
        <time>2020-06-16T15:50:53Z</time>
      </trkpt>
      <trkpt lat="49.38289" lon="-0.92379">
        <ele>44</ele>
        <time>2020-06-16T15:50:54Z</time>
      </trkpt>
      <trkpt lat="49.38285" lon="-0.92372">
        <ele>44.1</ele>
        <time>2020-06-16T15:50:55Z</time>
      </trkpt>
      <trkpt lat="49.38281" lon="-0.92365">
        <ele>44.2</ele>
        <time>2020-06-16T15:50:56Z</time>
      </trkpt>
      <trkpt lat="49.38277" lon="-0.92359">
        <ele>44.3</ele>
        <time>2020-06-16T15:50:57Z</time>
      </trkpt>
      <trkpt lat="49.38275" lon="-0.92353">
        <ele>44.3</ele>
        <time>2020-06-16T15:50:58Z</time>
      </trkpt>
      <trkpt lat="49.38271" lon="-0.92347">
        <ele>44.4</ele>
        <time>2020-06-16T15:50:59Z</time>
      </trkpt>
      <trkpt lat="49.38268" lon="-0.9234">
        <ele>44.4</ele>
        <time>2020-06-16T15:51:00Z</time>
      </trkpt>
      <trkpt lat="49.38265" lon="-0.92333">
        <ele>44.4</ele>
        <time>2020-06-16T15:51:01Z</time>
      </trkpt>
      <trkpt lat="49.38262" lon="-0.92326">
        <ele>44.5</ele>
        <time>2020-06-16T15:51:02Z</time>
      </trkpt>
      <trkpt lat="49.38259" lon="-0.9232">
        <ele>44.5</ele>
        <time>2020-06-16T15:51:03Z</time>
      </trkpt>
      <trkpt lat="49.38256" lon="-0.92314">
        <ele>44.5</ele>
        <time>2020-06-16T15:51:04Z</time>
      </trkpt>
      <trkpt lat="49.38253" lon="-0.92307">
        <ele>44.6</ele>
        <time>2020-06-16T15:51:05Z</time>
      </trkpt>
      <trkpt lat="49.3825" lon="-0.92302">
        <ele>44.6</ele>
        <time>2020-06-16T15:51:06Z</time>
      </trkpt>
      <trkpt lat="49.38246" lon="-0.92296">
        <ele>44.7</ele>
        <time>2020-06-16T15:51:07Z</time>
      </trkpt>
      <trkpt lat="49.38242" lon="-0.9229">
        <ele>44.7</ele>
        <time>2020-06-16T15:51:08Z</time>
      </trkpt>
      <trkpt lat="49.38239" lon="-0.92283">
        <ele>44.8</ele>
        <time>2020-06-16T15:51:09Z</time>
      </trkpt>
      <trkpt lat="49.38235" lon="-0.92275">
        <ele>44.9</ele>
        <time>2020-06-16T15:51:10Z</time>
      </trkpt>
      <trkpt lat="49.38231" lon="-0.92267">
        <ele>45</ele>
        <time>2020-06-16T15:51:11Z</time>
      </trkpt>
      <trkpt lat="49.38228" lon="-0.9226">
        <ele>45</ele>
        <time>2020-06-16T15:51:12Z</time>
      </trkpt>
      <trkpt lat="49.38224" lon="-0.92254">
        <ele>45.1</ele>
        <time>2020-06-16T15:51:13Z</time>
      </trkpt>
      <trkpt lat="49.3822" lon="-0.92248">
        <ele>45.1</ele>
        <time>2020-06-16T15:51:14Z</time>
      </trkpt>
      <trkpt lat="49.38217" lon="-0.92242">
        <ele>45.1</ele>
        <time>2020-06-16T15:51:15Z</time>
      </trkpt>
      <trkpt lat="49.38213" lon="-0.92237">
        <ele>45.2</ele>
        <time>2020-06-16T15:51:16Z</time>
      </trkpt>
      <trkpt lat="49.3821" lon="-0.92231">
        <ele>45.2</ele>
        <time>2020-06-16T15:51:17Z</time>
      </trkpt>
      <trkpt lat="49.38208" lon="-0.92226">
        <ele>45.2</ele>
        <time>2020-06-16T15:51:18Z</time>
      </trkpt>
      <trkpt lat="49.38205" lon="-0.92219">
        <ele>45.2</ele>
        <time>2020-06-16T15:51:19Z</time>
      </trkpt>
      <trkpt lat="49.38201" lon="-0.92213">
        <ele>45.3</ele>
        <time>2020-06-16T15:51:20Z</time>
      </trkpt>
      <trkpt lat="49.38198" lon="-0.92208">
        <ele>45.3</ele>
        <time>2020-06-16T15:51:21Z</time>
      </trkpt>
      <trkpt lat="49.38195" lon="-0.92204">
        <ele>45.3</ele>
        <time>2020-06-16T15:51:22Z</time>
      </trkpt>
      <trkpt lat="49.38192" lon="-0.92199">
        <ele>45.3</ele>
        <time>2020-06-16T15:51:23Z</time>
      </trkpt>
      <trkpt lat="49.38188" lon="-0.92194">
        <ele>45.3</ele>
        <time>2020-06-16T15:51:24Z</time>
      </trkpt>
      <trkpt lat="49.38185" lon="-0.92188">
        <ele>45.4</ele>
        <time>2020-06-16T15:51:25Z</time>
      </trkpt>
      <trkpt lat="49.38182" lon="-0.92182">
        <ele>45.4</ele>
        <time>2020-06-16T15:51:26Z</time>
      </trkpt>
      <trkpt lat="49.38179" lon="-0.92175">
        <ele>45.4</ele>
        <time>2020-06-16T15:51:27Z</time>
      </trkpt>
      <trkpt lat="49.38176" lon="-0.92167">
        <ele>45.4</ele>
        <time>2020-06-16T15:51:28Z</time>
      </trkpt>
      <trkpt lat="49.38173" lon="-0.9216">
        <ele>45.5</ele>
        <time>2020-06-16T15:51:29Z</time>
      </trkpt>
      <trkpt lat="49.38171" lon="-0.92154">
        <ele>45.5</ele>
        <time>2020-06-16T15:51:30Z</time>
      </trkpt>
      <trkpt lat="49.38167" lon="-0.92149">
        <ele>45.5</ele>
        <time>2020-06-16T15:51:31Z</time>
      </trkpt>
      <trkpt lat="49.38164" lon="-0.92143">
        <ele>45.5</ele>
        <time>2020-06-16T15:51:32Z</time>
      </trkpt>
      <trkpt lat="49.38161" lon="-0.92138">
        <ele>45.6</ele>
        <time>2020-06-16T15:51:33Z</time>
      </trkpt>
      <trkpt lat="49.38157" lon="-0.92132">
        <ele>45.6</ele>
        <time>2020-06-16T15:51:34Z</time>
      </trkpt>
      <trkpt lat="49.38154" lon="-0.92127">
        <ele>45.6</ele>
        <time>2020-06-16T15:51:35Z</time>
      </trkpt>
      <trkpt lat="49.38151" lon="-0.92122">
        <ele>45.7</ele>
        <time>2020-06-16T15:51:36Z</time>
      </trkpt>
      <trkpt lat="49.38148" lon="-0.92117">
        <ele>45.7</ele>
        <time>2020-06-16T15:51:37Z</time>
      </trkpt>
      <trkpt lat="49.38145" lon="-0.92113">
        <ele>45.8</ele>
        <time>2020-06-16T15:51:38Z</time>
      </trkpt>
      <trkpt lat="49.38142" lon="-0.92107">
        <ele>45.8</ele>
        <time>2020-06-16T15:51:39Z</time>
      </trkpt>
      <trkpt lat="49.38139" lon="-0.921">
        <ele>45.8</ele>
        <time>2020-06-16T15:51:40Z</time>
      </trkpt>
      <trkpt lat="49.38136" lon="-0.92093">
        <ele>45.8</ele>
        <time>2020-06-16T15:51:41Z</time>
      </trkpt>
      <trkpt lat="49.38133" lon="-0.92086">
        <ele>45.8</ele>
        <time>2020-06-16T15:51:42Z</time>
      </trkpt>
      <trkpt lat="49.3813" lon="-0.92078">
        <ele>45.8</ele>
        <time>2020-06-16T15:51:43Z</time>
      </trkpt>
      <trkpt lat="49.38126" lon="-0.9207">
        <ele>45.8</ele>
        <time>2020-06-16T15:51:44Z</time>
      </trkpt>
      <trkpt lat="49.38123" lon="-0.92062">
        <ele>45.8</ele>
        <time>2020-06-16T15:51:45Z</time>
      </trkpt>
      <trkpt lat="49.38119" lon="-0.92055">
        <ele>45.8</ele>
        <time>2020-06-16T15:51:46Z</time>
      </trkpt>
      <trkpt lat="49.38116" lon="-0.92047">
        <ele>45.8</ele>
        <time>2020-06-16T15:51:47Z</time>
      </trkpt>
      <trkpt lat="49.38112" lon="-0.92039">
        <ele>45.8</ele>
        <time>2020-06-16T15:51:48Z</time>
      </trkpt>
      <trkpt lat="49.38108" lon="-0.92031">
        <ele>45.9</ele>
        <time>2020-06-16T15:51:49Z</time>
      </trkpt>
      <trkpt lat="49.38103" lon="-0.92023">
        <ele>46</ele>
        <time>2020-06-16T15:51:50Z</time>
      </trkpt>
      <trkpt lat="49.38099" lon="-0.92017">
        <ele>45.9</ele>
        <time>2020-06-16T15:51:51Z</time>
      </trkpt>
      <trkpt lat="49.38095" lon="-0.92011">
        <ele>45.9</ele>
        <time>2020-06-16T15:51:52Z</time>
      </trkpt>
      <trkpt lat="49.38091" lon="-0.92005">
        <ele>45.9</ele>
        <time>2020-06-16T15:51:53Z</time>
      </trkpt>
      <trkpt lat="49.38087" lon="-0.91998">
        <ele>45.9</ele>
        <time>2020-06-16T15:51:54Z</time>
      </trkpt>
      <trkpt lat="49.38083" lon="-0.91991">
        <ele>45.8</ele>
        <time>2020-06-16T15:51:55Z</time>
      </trkpt>
      <trkpt lat="49.38079" lon="-0.91984">
        <ele>45.8</ele>
        <time>2020-06-16T15:51:56Z</time>
      </trkpt>
      <trkpt lat="49.38074" lon="-0.91976">
        <ele>45.8</ele>
        <time>2020-06-16T15:51:57Z</time>
      </trkpt>
      <trkpt lat="49.3807" lon="-0.9197">
        <ele>45.8</ele>
        <time>2020-06-16T15:51:58Z</time>
      </trkpt>
      <trkpt lat="49.38064" lon="-0.91963">
        <ele>45.8</ele>
        <time>2020-06-16T15:51:59Z</time>
      </trkpt>
      <trkpt lat="49.38058" lon="-0.91957">
        <ele>45.8</ele>
        <time>2020-06-16T15:52:00Z</time>
      </trkpt>
      <trkpt lat="49.38053" lon="-0.9195">
        <ele>45.7</ele>
        <time>2020-06-16T15:52:01Z</time>
      </trkpt>
      <trkpt lat="49.38049" lon="-0.91943">
        <ele>45.7</ele>
        <time>2020-06-16T15:52:02Z</time>
      </trkpt>
      <trkpt lat="49.38044" lon="-0.91937">
        <ele>45.7</ele>
        <time>2020-06-16T15:52:03Z</time>
      </trkpt>
      <trkpt lat="49.3804" lon="-0.91933">
        <ele>45.7</ele>
        <time>2020-06-16T15:52:04Z</time>
      </trkpt>
      <trkpt lat="49.38036" lon="-0.91929">
        <ele>45.7</ele>
        <time>2020-06-16T15:52:05Z</time>
      </trkpt>
      <trkpt lat="49.38032" lon="-0.91922">
        <ele>45.6</ele>
        <time>2020-06-16T15:52:06Z</time>
      </trkpt>
      <trkpt lat="49.38027" lon="-0.91916">
        <ele>45.6</ele>
        <time>2020-06-16T15:52:07Z</time>
      </trkpt>
      <trkpt lat="49.38023" lon="-0.9191">
        <ele>45.6</ele>
        <time>2020-06-16T15:52:08Z</time>
      </trkpt>
      <trkpt lat="49.38019" lon="-0.91905">
        <ele>45.5</ele>
        <time>2020-06-16T15:52:09Z</time>
      </trkpt>
      <trkpt lat="49.38015" lon="-0.919">
        <ele>45.5</ele>
        <time>2020-06-16T15:52:10Z</time>
      </trkpt>
      <trkpt lat="49.38012" lon="-0.91895">
        <ele>45.5</ele>
        <time>2020-06-16T15:52:11Z</time>
      </trkpt>
      <trkpt lat="49.38008" lon="-0.91889">
        <ele>45.4</ele>
        <time>2020-06-16T15:52:12Z</time>
      </trkpt>
      <trkpt lat="49.38005" lon="-0.91884">
        <ele>45.4</ele>
        <time>2020-06-16T15:52:13Z</time>
      </trkpt>
      <trkpt lat="49.38002" lon="-0.91878">
        <ele>45.4</ele>
        <time>2020-06-16T15:52:14Z</time>
      </trkpt>
      <trkpt lat="49.37999" lon="-0.91872">
        <ele>45.3</ele>
        <time>2020-06-16T15:52:15Z</time>
      </trkpt>
      <trkpt lat="49.37997" lon="-0.91866">
        <ele>45.3</ele>
        <time>2020-06-16T15:52:16Z</time>
      </trkpt>
      <trkpt lat="49.37993" lon="-0.9186">
        <ele>45.3</ele>
        <time>2020-06-16T15:52:17Z</time>
      </trkpt>
      <trkpt lat="49.37989" lon="-0.91851">
        <ele>45.2</ele>
        <time>2020-06-16T15:52:18Z</time>
      </trkpt>
      <trkpt lat="49.37986" lon="-0.91843">
        <ele>45.2</ele>
        <time>2020-06-16T15:52:19Z</time>
      </trkpt>
      <trkpt lat="49.37982" lon="-0.91834">
        <ele>45.2</ele>
        <time>2020-06-16T15:52:20Z</time>
      </trkpt>
      <trkpt lat="49.37978" lon="-0.91827">
        <ele>45.1</ele>
        <time>2020-06-16T15:52:21Z</time>
      </trkpt>
      <trkpt lat="49.37974" lon="-0.9182">
        <ele>45.1</ele>
        <time>2020-06-16T15:52:22Z</time>
      </trkpt>
      <trkpt lat="49.3797" lon="-0.91814">
        <ele>45</ele>
        <time>2020-06-16T15:52:23Z</time>
      </trkpt>
      <trkpt lat="49.37966" lon="-0.91807">
        <ele>45</ele>
        <time>2020-06-16T15:52:24Z</time>
      </trkpt>
      <trkpt lat="49.37962" lon="-0.91801">
        <ele>45</ele>
        <time>2020-06-16T15:52:25Z</time>
      </trkpt>
      <trkpt lat="49.37957" lon="-0.91794">
        <ele>45</ele>
        <time>2020-06-16T15:52:26Z</time>
      </trkpt>
      <trkpt lat="49.37952" lon="-0.91787">
        <ele>45</ele>
        <time>2020-06-16T15:52:27Z</time>
      </trkpt>
      <trkpt lat="49.37948" lon="-0.91779">
        <ele>45</ele>
        <time>2020-06-16T15:52:28Z</time>
      </trkpt>
      <trkpt lat="49.37944" lon="-0.91772">
        <ele>45</ele>
        <time>2020-06-16T15:52:29Z</time>
      </trkpt>
      <trkpt lat="49.37939" lon="-0.91766">
        <ele>44.9</ele>
        <time>2020-06-16T15:52:30Z</time>
      </trkpt>
      <trkpt lat="49.37934" lon="-0.9176">
        <ele>44.9</ele>
        <time>2020-06-16T15:52:31Z</time>
      </trkpt>
      <trkpt lat="49.3793" lon="-0.91753">
        <ele>44.8</ele>
        <time>2020-06-16T15:52:32Z</time>
      </trkpt>
      <trkpt lat="49.37925" lon="-0.91747">
        <ele>44.8</ele>
        <time>2020-06-16T15:52:33Z</time>
      </trkpt>
      <trkpt lat="49.3792" lon="-0.9174">
        <ele>44.8</ele>
        <time>2020-06-16T15:52:34Z</time>
      </trkpt>
      <trkpt lat="49.37914" lon="-0.91734">
        <ele>44.8</ele>
        <time>2020-06-16T15:52:35Z</time>
      </trkpt>
      <trkpt lat="49.37909" lon="-0.91728">
        <ele>44.8</ele>
        <time>2020-06-16T15:52:36Z</time>
      </trkpt>
      <trkpt lat="49.37903" lon="-0.91723">
        <ele>44.8</ele>
        <time>2020-06-16T15:52:37Z</time>
      </trkpt>
      <trkpt lat="49.37898" lon="-0.91719">
        <ele>44.8</ele>
        <time>2020-06-16T15:52:38Z</time>
      </trkpt>
      <trkpt lat="49.37893" lon="-0.91713">
        <ele>44.8</ele>
        <time>2020-06-16T15:52:39Z</time>
      </trkpt>
      <trkpt lat="49.37888" lon="-0.91708">
        <ele>44.9</ele>
        <time>2020-06-16T15:52:40Z</time>
      </trkpt>
      <trkpt lat="49.37882" lon="-0.91703">
        <ele>44.9</ele>
        <time>2020-06-16T15:52:41Z</time>
      </trkpt>
      <trkpt lat="49.37877" lon="-0.91697">
        <ele>44.9</ele>
        <time>2020-06-16T15:52:42Z</time>
      </trkpt>
      <trkpt lat="49.37872" lon="-0.91692">
        <ele>45</ele>
        <time>2020-06-16T15:52:43Z</time>
      </trkpt>
      <trkpt lat="49.37867" lon="-0.91685">
        <ele>45</ele>
        <time>2020-06-16T15:52:44Z</time>
      </trkpt>
      <trkpt lat="49.37862" lon="-0.91679">
        <ele>45.1</ele>
        <time>2020-06-16T15:52:45Z</time>
      </trkpt>
      <trkpt lat="49.37856" lon="-0.91675">
        <ele>45.1</ele>
        <time>2020-06-16T15:52:46Z</time>
      </trkpt>
      <trkpt lat="49.3785" lon="-0.9167">
        <ele>45.1</ele>
        <time>2020-06-16T15:52:47Z</time>
      </trkpt>
      <trkpt lat="49.37845" lon="-0.91664">
        <ele>45.1</ele>
        <time>2020-06-16T15:52:48Z</time>
      </trkpt>
      <trkpt lat="49.37842" lon="-0.9166">
        <ele>45.1</ele>
        <time>2020-06-16T15:52:49Z</time>
      </trkpt>
      <trkpt lat="49.37837" lon="-0.91655">
        <ele>45.1</ele>
        <time>2020-06-16T15:52:50Z</time>
      </trkpt>
      <trkpt lat="49.37832" lon="-0.91649">
        <ele>45.1</ele>
        <time>2020-06-16T15:52:51Z</time>
      </trkpt>
      <trkpt lat="49.37828" lon="-0.91643">
        <ele>45.2</ele>
        <time>2020-06-16T15:52:52Z</time>
      </trkpt>
      <trkpt lat="49.37823" lon="-0.91639">
        <ele>45.2</ele>
        <time>2020-06-16T15:52:53Z</time>
      </trkpt>
      <trkpt lat="49.37819" lon="-0.91632">
        <ele>45.2</ele>
        <time>2020-06-16T15:52:54Z</time>
      </trkpt>
      <trkpt lat="49.37815" lon="-0.91625">
        <ele>45.1</ele>
        <time>2020-06-16T15:52:55Z</time>
      </trkpt>
      <trkpt lat="49.37809" lon="-0.91619">
        <ele>45.1</ele>
        <time>2020-06-16T15:52:56Z</time>
      </trkpt>
      <trkpt lat="49.37804" lon="-0.91614">
        <ele>45</ele>
        <time>2020-06-16T15:52:57Z</time>
      </trkpt>
      <trkpt lat="49.37799" lon="-0.91609">
        <ele>45</ele>
        <time>2020-06-16T15:52:58Z</time>
      </trkpt>
      <trkpt lat="49.37794" lon="-0.91604">
        <ele>44.9</ele>
        <time>2020-06-16T15:52:59Z</time>
      </trkpt>
      <trkpt lat="49.37789" lon="-0.91599">
        <ele>44.8</ele>
        <time>2020-06-16T15:53:00Z</time>
      </trkpt>
      <trkpt lat="49.37784" lon="-0.91593">
        <ele>44.8</ele>
        <time>2020-06-16T15:53:01Z</time>
      </trkpt>
      <trkpt lat="49.3778" lon="-0.91587">
        <ele>44.7</ele>
        <time>2020-06-16T15:53:02Z</time>
      </trkpt>
      <trkpt lat="49.37775" lon="-0.9158">
        <ele>44.6</ele>
        <time>2020-06-16T15:53:03Z</time>
      </trkpt>
      <trkpt lat="49.37771" lon="-0.91574">
        <ele>44.6</ele>
        <time>2020-06-16T15:53:04Z</time>
      </trkpt>
      <trkpt lat="49.37767" lon="-0.91568">
        <ele>44.5</ele>
        <time>2020-06-16T15:53:05Z</time>
      </trkpt>
      <trkpt lat="49.37762" lon="-0.91562">
        <ele>44.4</ele>
        <time>2020-06-16T15:53:06Z</time>
      </trkpt>
      <trkpt lat="49.37758" lon="-0.91556">
        <ele>44.4</ele>
        <time>2020-06-16T15:53:07Z</time>
      </trkpt>
      <trkpt lat="49.37755" lon="-0.9155">
        <ele>44.3</ele>
        <time>2020-06-16T15:53:08Z</time>
      </trkpt>
      <trkpt lat="49.3775" lon="-0.91542">
        <ele>44.3</ele>
        <time>2020-06-16T15:53:09Z</time>
      </trkpt>
      <trkpt lat="49.37745" lon="-0.91535">
        <ele>44.3</ele>
        <time>2020-06-16T15:53:10Z</time>
      </trkpt>
      <trkpt lat="49.3774" lon="-0.91528">
        <ele>44.2</ele>
        <time>2020-06-16T15:53:11Z</time>
      </trkpt>
      <trkpt lat="49.37736" lon="-0.91521">
        <ele>44.2</ele>
        <time>2020-06-16T15:53:12Z</time>
      </trkpt>
      <trkpt lat="49.37732" lon="-0.91514">
        <ele>44.2</ele>
        <time>2020-06-16T15:53:13Z</time>
      </trkpt>
      <trkpt lat="49.37728" lon="-0.91507">
        <ele>44.2</ele>
        <time>2020-06-16T15:53:14Z</time>
      </trkpt>
      <trkpt lat="49.37724" lon="-0.91499">
        <ele>44.2</ele>
        <time>2020-06-16T15:53:15Z</time>
      </trkpt>
      <trkpt lat="49.3772" lon="-0.91492">
        <ele>44.1</ele>
        <time>2020-06-16T15:53:16Z</time>
      </trkpt>
      <trkpt lat="49.37717" lon="-0.91485">
        <ele>44.1</ele>
        <time>2020-06-16T15:53:17Z</time>
      </trkpt>
      <trkpt lat="49.37714" lon="-0.91478">
        <ele>44.1</ele>
        <time>2020-06-16T15:53:18Z</time>
      </trkpt>
      <trkpt lat="49.3771" lon="-0.9147">
        <ele>44.1</ele>
        <time>2020-06-16T15:53:19Z</time>
      </trkpt>
      <trkpt lat="49.37707" lon="-0.91463">
        <ele>44.1</ele>
        <time>2020-06-16T15:53:20Z</time>
      </trkpt>
      <trkpt lat="49.37703" lon="-0.91456">
        <ele>44.1</ele>
        <time>2020-06-16T15:53:21Z</time>
      </trkpt>
      <trkpt lat="49.37699" lon="-0.91449">
        <ele>44.1</ele>
        <time>2020-06-16T15:53:22Z</time>
      </trkpt>
      <trkpt lat="49.37695" lon="-0.91443">
        <ele>44.1</ele>
        <time>2020-06-16T15:53:23Z</time>
      </trkpt>
      <trkpt lat="49.37692" lon="-0.91436">
        <ele>44.1</ele>
        <time>2020-06-16T15:53:24Z</time>
      </trkpt>
      <trkpt lat="49.37688" lon="-0.91429">
        <ele>44.1</ele>
        <time>2020-06-16T15:53:25Z</time>
      </trkpt>
      <trkpt lat="49.37685" lon="-0.91423">
        <ele>44.1</ele>
        <time>2020-06-16T15:53:26Z</time>
      </trkpt>
      <trkpt lat="49.37681" lon="-0.91416">
        <ele>44</ele>
        <time>2020-06-16T15:53:27Z</time>
      </trkpt>
      <trkpt lat="49.37677" lon="-0.91409">
        <ele>44</ele>
        <time>2020-06-16T15:53:28Z</time>
      </trkpt>
      <trkpt lat="49.37672" lon="-0.91402">
        <ele>44</ele>
        <time>2020-06-16T15:53:29Z</time>
      </trkpt>
      <trkpt lat="49.37669" lon="-0.91395">
        <ele>44</ele>
        <time>2020-06-16T15:53:30Z</time>
      </trkpt>
      <trkpt lat="49.37665" lon="-0.91388">
        <ele>44</ele>
        <time>2020-06-16T15:53:31Z</time>
      </trkpt>
      <trkpt lat="49.37661" lon="-0.9138">
        <ele>44</ele>
        <time>2020-06-16T15:53:32Z</time>
      </trkpt>
      <trkpt lat="49.37658" lon="-0.91371">
        <ele>44</ele>
        <time>2020-06-16T15:53:33Z</time>
      </trkpt>
      <trkpt lat="49.37655" lon="-0.91363">
        <ele>44</ele>
        <time>2020-06-16T15:53:34Z</time>
      </trkpt>
      <trkpt lat="49.37652" lon="-0.91355">
        <ele>44</ele>
        <time>2020-06-16T15:53:35Z</time>
      </trkpt>
      <trkpt lat="49.37649" lon="-0.91346">
        <ele>43.9</ele>
        <time>2020-06-16T15:53:36Z</time>
      </trkpt>
      <trkpt lat="49.37645" lon="-0.91338">
        <ele>43.9</ele>
        <time>2020-06-16T15:53:37Z</time>
      </trkpt>
      <trkpt lat="49.37642" lon="-0.9133">
        <ele>43.9</ele>
        <time>2020-06-16T15:53:38Z</time>
      </trkpt>
      <trkpt lat="49.37639" lon="-0.91322">
        <ele>43.9</ele>
        <time>2020-06-16T15:53:39Z</time>
      </trkpt>
      <trkpt lat="49.37635" lon="-0.91313">
        <ele>44</ele>
        <time>2020-06-16T15:53:40Z</time>
      </trkpt>
      <trkpt lat="49.37632" lon="-0.91306">
        <ele>44</ele>
        <time>2020-06-16T15:53:41Z</time>
      </trkpt>
      <trkpt lat="49.37629" lon="-0.91297">
        <ele>44</ele>
        <time>2020-06-16T15:53:42Z</time>
      </trkpt>
      <trkpt lat="49.37627" lon="-0.91289">
        <ele>44</ele>
        <time>2020-06-16T15:53:43Z</time>
      </trkpt>
      <trkpt lat="49.37624" lon="-0.91279">
        <ele>44</ele>
        <time>2020-06-16T15:53:44Z</time>
      </trkpt>
      <trkpt lat="49.37622" lon="-0.91271">
        <ele>44</ele>
        <time>2020-06-16T15:53:45Z</time>
      </trkpt>
      <trkpt lat="49.3762" lon="-0.91262">
        <ele>44</ele>
        <time>2020-06-16T15:53:46Z</time>
      </trkpt>
      <trkpt lat="49.37618" lon="-0.91253">
        <ele>44</ele>
        <time>2020-06-16T15:53:47Z</time>
      </trkpt>
      <trkpt lat="49.37616" lon="-0.91244">
        <ele>44</ele>
        <time>2020-06-16T15:53:48Z</time>
      </trkpt>
      <trkpt lat="49.37613" lon="-0.91235">
        <ele>44</ele>
        <time>2020-06-16T15:53:49Z</time>
      </trkpt>
      <trkpt lat="49.37611" lon="-0.91227">
        <ele>44</ele>
        <time>2020-06-16T15:53:50Z</time>
      </trkpt>
      <trkpt lat="49.37608" lon="-0.91217">
        <ele>44</ele>
        <time>2020-06-16T15:53:51Z</time>
      </trkpt>
      <trkpt lat="49.37606" lon="-0.91207">
        <ele>44</ele>
        <time>2020-06-16T15:53:52Z</time>
      </trkpt>
      <trkpt lat="49.37603" lon="-0.91199">
        <ele>44.1</ele>
        <time>2020-06-16T15:53:53Z</time>
      </trkpt>
      <trkpt lat="49.37601" lon="-0.91189">
        <ele>44.1</ele>
        <time>2020-06-16T15:53:54Z</time>
      </trkpt>
      <trkpt lat="49.37599" lon="-0.9118">
        <ele>44.2</ele>
        <time>2020-06-16T15:53:55Z</time>
      </trkpt>
      <trkpt lat="49.37596" lon="-0.91172">
        <ele>44.3</ele>
        <time>2020-06-16T15:53:56Z</time>
      </trkpt>
      <trkpt lat="49.37593" lon="-0.91163">
        <ele>44.4</ele>
        <time>2020-06-16T15:53:57Z</time>
      </trkpt>
      <trkpt lat="49.37589" lon="-0.91151">
        <ele>44.4</ele>
        <time>2020-06-16T15:53:58Z</time>
      </trkpt>
      <trkpt lat="49.37586" lon="-0.91141">
        <ele>44.3</ele>
        <time>2020-06-16T15:53:59Z</time>
      </trkpt>
      <trkpt lat="49.37582" lon="-0.91131">
        <ele>44.3</ele>
        <time>2020-06-16T15:54:00Z</time>
      </trkpt>
      <trkpt lat="49.37579" lon="-0.91123">
        <ele>44.3</ele>
        <time>2020-06-16T15:54:01Z</time>
      </trkpt>
      <trkpt lat="49.37575" lon="-0.91115">
        <ele>44.2</ele>
        <time>2020-06-16T15:54:02Z</time>
      </trkpt>
      <trkpt lat="49.37572" lon="-0.91107">
        <ele>44.2</ele>
        <time>2020-06-16T15:54:03Z</time>
      </trkpt>
      <trkpt lat="49.37567" lon="-0.91099">
        <ele>44.2</ele>
        <time>2020-06-16T15:54:04Z</time>
      </trkpt>
      <trkpt lat="49.37564" lon="-0.91091">
        <ele>44.1</ele>
        <time>2020-06-16T15:54:05Z</time>
      </trkpt>
      <trkpt lat="49.3756" lon="-0.91082">
        <ele>44</ele>
        <time>2020-06-16T15:54:06Z</time>
      </trkpt>
      <trkpt lat="49.37556" lon="-0.91073">
        <ele>44</ele>
        <time>2020-06-16T15:54:07Z</time>
      </trkpt>
      <trkpt lat="49.37553" lon="-0.91064">
        <ele>43.9</ele>
        <time>2020-06-16T15:54:08Z</time>
      </trkpt>
      <trkpt lat="49.37549" lon="-0.91056">
        <ele>43.9</ele>
        <time>2020-06-16T15:54:09Z</time>
      </trkpt>
      <trkpt lat="49.37546" lon="-0.91048">
        <ele>43.8</ele>
        <time>2020-06-16T15:54:10Z</time>
      </trkpt>
      <trkpt lat="49.37544" lon="-0.9104">
        <ele>43.8</ele>
        <time>2020-06-16T15:54:11Z</time>
      </trkpt>
      <trkpt lat="49.37541" lon="-0.91033">
        <ele>43.7</ele>
        <time>2020-06-16T15:54:12Z</time>
      </trkpt>
      <trkpt lat="49.37539" lon="-0.91026">
        <ele>43.7</ele>
        <time>2020-06-16T15:54:13Z</time>
      </trkpt>
      <trkpt lat="49.37537" lon="-0.91019">
        <ele>43.7</ele>
        <time>2020-06-16T15:54:14Z</time>
      </trkpt>
      <trkpt lat="49.37535" lon="-0.91013">
        <ele>43.6</ele>
        <time>2020-06-16T15:54:15Z</time>
      </trkpt>
      <trkpt lat="49.37533" lon="-0.91006">
        <ele>43.6</ele>
        <time>2020-06-16T15:54:16Z</time>
      </trkpt>
      <trkpt lat="49.37531" lon="-0.90999">
        <ele>43.6</ele>
        <time>2020-06-16T15:54:17Z</time>
      </trkpt>
      <trkpt lat="49.37529" lon="-0.9099">
        <ele>43.5</ele>
        <time>2020-06-16T15:54:18Z</time>
      </trkpt>
      <trkpt lat="49.37528" lon="-0.90981">
        <ele>43.4</ele>
        <time>2020-06-16T15:54:19Z</time>
      </trkpt>
      <trkpt lat="49.37527" lon="-0.90972">
        <ele>43.4</ele>
        <time>2020-06-16T15:54:20Z</time>
      </trkpt>
      <trkpt lat="49.37525" lon="-0.90963">
        <ele>43.3</ele>
        <time>2020-06-16T15:54:21Z</time>
      </trkpt>
      <trkpt lat="49.37522" lon="-0.90953">
        <ele>43.3</ele>
        <time>2020-06-16T15:54:22Z</time>
      </trkpt>
      <trkpt lat="49.37521" lon="-0.90944">
        <ele>43.2</ele>
        <time>2020-06-16T15:54:23Z</time>
      </trkpt>
      <trkpt lat="49.37519" lon="-0.90936">
        <ele>43.1</ele>
        <time>2020-06-16T15:54:24Z</time>
      </trkpt>
      <trkpt lat="49.37517" lon="-0.90927">
        <ele>43.1</ele>
        <time>2020-06-16T15:54:25Z</time>
      </trkpt>
      <trkpt lat="49.37515" lon="-0.90917">
        <ele>43</ele>
        <time>2020-06-16T15:54:26Z</time>
      </trkpt>
      <trkpt lat="49.37514" lon="-0.90909">
        <ele>43</ele>
        <time>2020-06-16T15:54:27Z</time>
      </trkpt>
      <trkpt lat="49.37513" lon="-0.909">
        <ele>43</ele>
        <time>2020-06-16T15:54:28Z</time>
      </trkpt>
      <trkpt lat="49.37511" lon="-0.90892">
        <ele>43</ele>
        <time>2020-06-16T15:54:29Z</time>
      </trkpt>
      <trkpt lat="49.37508" lon="-0.90884">
        <ele>42.9</ele>
        <time>2020-06-16T15:54:30Z</time>
      </trkpt>
      <trkpt lat="49.37508" lon="-0.90877">
        <ele>42.8</ele>
        <time>2020-06-16T15:54:31Z</time>
      </trkpt>
      <trkpt lat="49.37507" lon="-0.90871">
        <ele>42.7</ele>
        <time>2020-06-16T15:54:32Z</time>
      </trkpt>
      <trkpt lat="49.37505" lon="-0.90864">
        <ele>42.5</ele>
        <time>2020-06-16T15:54:33Z</time>
      </trkpt>
      <trkpt lat="49.37503" lon="-0.90857">
        <ele>42.4</ele>
        <time>2020-06-16T15:54:34Z</time>
      </trkpt>
      <trkpt lat="49.37501" lon="-0.90847">
        <ele>42.1</ele>
        <time>2020-06-16T15:54:35Z</time>
      </trkpt>
      <trkpt lat="49.37499" lon="-0.90839">
        <ele>41.9</ele>
        <time>2020-06-16T15:54:36Z</time>
      </trkpt>
      <trkpt lat="49.37497" lon="-0.90829">
        <ele>41.7</ele>
        <time>2020-06-16T15:54:37Z</time>
      </trkpt>
      <trkpt lat="49.37495" lon="-0.90821">
        <ele>41.5</ele>
        <time>2020-06-16T15:54:38Z</time>
      </trkpt>
      <trkpt lat="49.37493" lon="-0.90813">
        <ele>41.3</ele>
        <time>2020-06-16T15:54:39Z</time>
      </trkpt>
      <trkpt lat="49.3749" lon="-0.90803">
        <ele>41.1</ele>
        <time>2020-06-16T15:54:40Z</time>
      </trkpt>
      <trkpt lat="49.37488" lon="-0.90795">
        <ele>40.9</ele>
        <time>2020-06-16T15:54:41Z</time>
      </trkpt>
      <trkpt lat="49.37486" lon="-0.90786">
        <ele>40.7</ele>
        <time>2020-06-16T15:54:42Z</time>
      </trkpt>
      <trkpt lat="49.37484" lon="-0.90777">
        <ele>40.5</ele>
        <time>2020-06-16T15:54:43Z</time>
      </trkpt>
      <trkpt lat="49.37483" lon="-0.90768">
        <ele>40.3</ele>
        <time>2020-06-16T15:54:44Z</time>
      </trkpt>
      <trkpt lat="49.37481" lon="-0.9076">
        <ele>40.1</ele>
        <time>2020-06-16T15:54:45Z</time>
      </trkpt>
      <trkpt lat="49.37479" lon="-0.90752">
        <ele>39.9</ele>
        <time>2020-06-16T15:54:46Z</time>
      </trkpt>
      <trkpt lat="49.37476" lon="-0.90744">
        <ele>39.7</ele>
        <time>2020-06-16T15:54:47Z</time>
      </trkpt>
      <trkpt lat="49.37473" lon="-0.90735">
        <ele>39.5</ele>
        <time>2020-06-16T15:54:48Z</time>
      </trkpt>
      <trkpt lat="49.37472" lon="-0.90727">
        <ele>39.3</ele>
        <time>2020-06-16T15:54:49Z</time>
      </trkpt>
      <trkpt lat="49.37469" lon="-0.90717">
        <ele>39.1</ele>
        <time>2020-06-16T15:54:50Z</time>
      </trkpt>
      <trkpt lat="49.37467" lon="-0.9071">
        <ele>38.9</ele>
        <time>2020-06-16T15:54:51Z</time>
      </trkpt>
      <trkpt lat="49.37466" lon="-0.90702">
        <ele>38.7</ele>
        <time>2020-06-16T15:54:52Z</time>
      </trkpt>
      <trkpt lat="49.37464" lon="-0.90694">
        <ele>38.6</ele>
        <time>2020-06-16T15:54:53Z</time>
      </trkpt>
      <trkpt lat="49.37462" lon="-0.90684">
        <ele>38.5</ele>
        <time>2020-06-16T15:54:54Z</time>
      </trkpt>
      <trkpt lat="49.37461" lon="-0.90674">
        <ele>38.3</ele>
        <time>2020-06-16T15:54:55Z</time>
      </trkpt>
      <trkpt lat="49.3746" lon="-0.90665">
        <ele>38.2</ele>
        <time>2020-06-16T15:54:56Z</time>
      </trkpt>
      <trkpt lat="49.3746" lon="-0.90656">
        <ele>38.1</ele>
        <time>2020-06-16T15:54:57Z</time>
      </trkpt>
      <trkpt lat="49.37459" lon="-0.90647">
        <ele>38.1</ele>
        <time>2020-06-16T15:54:58Z</time>
      </trkpt>
      <trkpt lat="49.3746" lon="-0.90639">
        <ele>38</ele>
        <time>2020-06-16T15:54:59Z</time>
      </trkpt>
      <trkpt lat="49.37461" lon="-0.90629">
        <ele>38</ele>
        <time>2020-06-16T15:55:00Z</time>
      </trkpt>
      <trkpt lat="49.37463" lon="-0.90621">
        <ele>37.7</ele>
        <time>2020-06-16T15:55:01Z</time>
      </trkpt>
      <trkpt lat="49.37466" lon="-0.90613">
        <ele>37.4</ele>
        <time>2020-06-16T15:55:02Z</time>
      </trkpt>
      <trkpt lat="49.37469" lon="-0.90606">
        <ele>37.2</ele>
        <time>2020-06-16T15:55:03Z</time>
      </trkpt>
      <trkpt lat="49.37473" lon="-0.90599">
        <ele>36.9</ele>
        <time>2020-06-16T15:55:04Z</time>
      </trkpt>
      <trkpt lat="49.37477" lon="-0.90591">
        <ele>36.6</ele>
        <time>2020-06-16T15:55:05Z</time>
      </trkpt>
      <trkpt lat="49.3748" lon="-0.90585">
        <ele>36.3</ele>
        <time>2020-06-16T15:55:06Z</time>
      </trkpt>
      <trkpt lat="49.37484" lon="-0.90581">
        <ele>36.1</ele>
        <time>2020-06-16T15:55:07Z</time>
      </trkpt>
      <trkpt lat="49.37488" lon="-0.90575">
        <ele>35.9</ele>
        <time>2020-06-16T15:55:08Z</time>
      </trkpt>
      <trkpt lat="49.37493" lon="-0.90569">
        <ele>35.6</ele>
        <time>2020-06-16T15:55:09Z</time>
      </trkpt>
      <trkpt lat="49.37497" lon="-0.90563">
        <ele>35.3</ele>
        <time>2020-06-16T15:55:10Z</time>
      </trkpt>
      <trkpt lat="49.37503" lon="-0.90556">
        <ele>35</ele>
        <time>2020-06-16T15:55:11Z</time>
      </trkpt>
      <trkpt lat="49.37509" lon="-0.90551">
        <ele>34.6</ele>
        <time>2020-06-16T15:55:12Z</time>
      </trkpt>
      <trkpt lat="49.37514" lon="-0.90545">
        <ele>34.3</ele>
        <time>2020-06-16T15:55:13Z</time>
      </trkpt>
      <trkpt lat="49.37522" lon="-0.90538">
        <ele>33.9</ele>
        <time>2020-06-16T15:55:14Z</time>
      </trkpt>
      <trkpt lat="49.37529" lon="-0.90531">
        <ele>33.5</ele>
        <time>2020-06-16T15:55:15Z</time>
      </trkpt>
      <trkpt lat="49.37536" lon="-0.90526">
        <ele>33.2</ele>
        <time>2020-06-16T15:55:16Z</time>
      </trkpt>
      <trkpt lat="49.37542" lon="-0.90522">
        <ele>32.8</ele>
        <time>2020-06-16T15:55:17Z</time>
      </trkpt>
      <trkpt lat="49.37549" lon="-0.90517">
        <ele>32.5</ele>
        <time>2020-06-16T15:55:18Z</time>
      </trkpt>
      <trkpt lat="49.37555" lon="-0.90513">
        <ele>32.2</ele>
        <time>2020-06-16T15:55:19Z</time>
      </trkpt>
      <trkpt lat="49.37561" lon="-0.90509">
        <ele>31.9</ele>
        <time>2020-06-16T15:55:20Z</time>
      </trkpt>
      <trkpt lat="49.37567" lon="-0.90505">
        <ele>31.6</ele>
        <time>2020-06-16T15:55:21Z</time>
      </trkpt>
      <trkpt lat="49.37574" lon="-0.90501">
        <ele>31.3</ele>
        <time>2020-06-16T15:55:22Z</time>
      </trkpt>
      <trkpt lat="49.37581" lon="-0.90497">
        <ele>30.9</ele>
        <time>2020-06-16T15:55:23Z</time>
      </trkpt>
      <trkpt lat="49.37588" lon="-0.90494">
        <ele>30.6</ele>
        <time>2020-06-16T15:55:24Z</time>
      </trkpt>
      <trkpt lat="49.37594" lon="-0.9049">
        <ele>30.2</ele>
        <time>2020-06-16T15:55:25Z</time>
      </trkpt>
      <trkpt lat="49.376" lon="-0.90487">
        <ele>29.9</ele>
        <time>2020-06-16T15:55:26Z</time>
      </trkpt>
      <trkpt lat="49.37607" lon="-0.90484">
        <ele>29.6</ele>
        <time>2020-06-16T15:55:27Z</time>
      </trkpt>
      <trkpt lat="49.37614" lon="-0.90482">
        <ele>29.2</ele>
        <time>2020-06-16T15:55:28Z</time>
      </trkpt>
      <trkpt lat="49.37621" lon="-0.90479">
        <ele>29</ele>
        <time>2020-06-16T15:55:29Z</time>
      </trkpt>
      <trkpt lat="49.37628" lon="-0.90477">
        <ele>28.7</ele>
        <time>2020-06-16T15:55:30Z</time>
      </trkpt>
      <trkpt lat="49.37634" lon="-0.90475">
        <ele>28.6</ele>
        <time>2020-06-16T15:55:31Z</time>
      </trkpt>
      <trkpt lat="49.37641" lon="-0.90473">
        <ele>28.4</ele>
        <time>2020-06-16T15:55:32Z</time>
      </trkpt>
      <trkpt lat="49.37649" lon="-0.9047">
        <ele>28.1</ele>
        <time>2020-06-16T15:55:33Z</time>
      </trkpt>
      <trkpt lat="49.37658" lon="-0.90468">
        <ele>27.7</ele>
        <time>2020-06-16T15:55:34Z</time>
      </trkpt>
      <trkpt lat="49.37665" lon="-0.90466">
        <ele>27.4</ele>
        <time>2020-06-16T15:55:35Z</time>
      </trkpt>
      <trkpt lat="49.37673" lon="-0.90464">
        <ele>27</ele>
        <time>2020-06-16T15:55:36Z</time>
      </trkpt>
      <trkpt lat="49.3768" lon="-0.90462">
        <ele>26.7</ele>
        <time>2020-06-16T15:55:37Z</time>
      </trkpt>
      <trkpt lat="49.37688" lon="-0.90461">
        <ele>26.4</ele>
        <time>2020-06-16T15:55:38Z</time>
      </trkpt>
      <trkpt lat="49.37697" lon="-0.90461">
        <ele>26.1</ele>
        <time>2020-06-16T15:55:39Z</time>
      </trkpt>
      <trkpt lat="49.37706" lon="-0.9046">
        <ele>25.8</ele>
        <time>2020-06-16T15:55:40Z</time>
      </trkpt>
      <trkpt lat="49.37714" lon="-0.90458">
        <ele>25.5</ele>
        <time>2020-06-16T15:55:41Z</time>
      </trkpt>
      <trkpt lat="49.37722" lon="-0.90455">
        <ele>25.2</ele>
        <time>2020-06-16T15:55:42Z</time>
      </trkpt>
      <trkpt lat="49.37731" lon="-0.90453">
        <ele>24.9</ele>
        <time>2020-06-16T15:55:43Z</time>
      </trkpt>
      <trkpt lat="49.37738" lon="-0.90451">
        <ele>24.6</ele>
        <time>2020-06-16T15:55:44Z</time>
      </trkpt>
      <trkpt lat="49.37743" lon="-0.9045">
        <ele>24.4</ele>
        <time>2020-06-16T15:55:45Z</time>
      </trkpt>
      <trkpt lat="49.3775" lon="-0.90449">
        <ele>24.1</ele>
        <time>2020-06-16T15:55:46Z</time>
      </trkpt>
      <trkpt lat="49.37756" lon="-0.90447">
        <ele>23.9</ele>
        <time>2020-06-16T15:55:47Z</time>
      </trkpt>
      <trkpt lat="49.37762" lon="-0.90446">
        <ele>23.7</ele>
        <time>2020-06-16T15:55:48Z</time>
      </trkpt>
      <trkpt lat="49.3777" lon="-0.90444">
        <ele>23.3</ele>
        <time>2020-06-16T15:55:49Z</time>
      </trkpt>
      <trkpt lat="49.37776" lon="-0.9044">
        <ele>23</ele>
        <time>2020-06-16T15:55:50Z</time>
      </trkpt>
      <trkpt lat="49.37782" lon="-0.90438">
        <ele>22.7</ele>
        <time>2020-06-16T15:55:51Z</time>
      </trkpt>
      <trkpt lat="49.37788" lon="-0.90437">
        <ele>22.5</ele>
        <time>2020-06-16T15:55:52Z</time>
      </trkpt>
      <trkpt lat="49.37794" lon="-0.90437">
        <ele>22.2</ele>
        <time>2020-06-16T15:55:53Z</time>
      </trkpt>
      <trkpt lat="49.37803" lon="-0.90437">
        <ele>21.8</ele>
        <time>2020-06-16T15:55:54Z</time>
      </trkpt>
      <trkpt lat="49.37811" lon="-0.90438">
        <ele>21.5</ele>
        <time>2020-06-16T15:55:55Z</time>
      </trkpt>
      <trkpt lat="49.37819" lon="-0.90436">
        <ele>21.1</ele>
        <time>2020-06-16T15:55:56Z</time>
      </trkpt>
      <trkpt lat="49.37827" lon="-0.90433">
        <ele>20.7</ele>
        <time>2020-06-16T15:55:57Z</time>
      </trkpt>
      <trkpt lat="49.37834" lon="-0.90428">
        <ele>20.3</ele>
        <time>2020-06-16T15:55:58Z</time>
      </trkpt>
      <trkpt lat="49.37841" lon="-0.90423">
        <ele>19.8</ele>
        <time>2020-06-16T15:55:59Z</time>
      </trkpt>
      <trkpt lat="49.37849" lon="-0.90417">
        <ele>19.2</ele>
        <time>2020-06-16T15:56:00Z</time>
      </trkpt>
      <trkpt lat="49.37855" lon="-0.90412">
        <ele>18.7</ele>
        <time>2020-06-16T15:56:01Z</time>
      </trkpt>
      <trkpt lat="49.3786" lon="-0.90406">
        <ele>18.1</ele>
        <time>2020-06-16T15:56:02Z</time>
      </trkpt>
      <trkpt lat="49.37866" lon="-0.90401">
        <ele>17.6</ele>
        <time>2020-06-16T15:56:03Z</time>
      </trkpt>
      <trkpt lat="49.37872" lon="-0.90393">
        <ele>17</ele>
        <time>2020-06-16T15:56:04Z</time>
      </trkpt>
      <trkpt lat="49.37877" lon="-0.90385">
        <ele>16.3</ele>
        <time>2020-06-16T15:56:05Z</time>
      </trkpt>
      <trkpt lat="49.37882" lon="-0.90377">
        <ele>15.8</ele>
        <time>2020-06-16T15:56:06Z</time>
      </trkpt>
      <trkpt lat="49.37886" lon="-0.9037">
        <ele>15.2</ele>
        <time>2020-06-16T15:56:07Z</time>
      </trkpt>
      <trkpt lat="49.37889" lon="-0.90362">
        <ele>14.7</ele>
        <time>2020-06-16T15:56:08Z</time>
      </trkpt>
      <trkpt lat="49.37892" lon="-0.90357">
        <ele>14.3</ele>
        <time>2020-06-16T15:56:09Z</time>
      </trkpt>
      <trkpt lat="49.37895" lon="-0.90351">
        <ele>13.9</ele>
        <time>2020-06-16T15:56:10Z</time>
      </trkpt>
      <trkpt lat="49.37899" lon="-0.90345">
        <ele>13.5</ele>
        <time>2020-06-16T15:56:11Z</time>
      </trkpt>
      <trkpt lat="49.37903" lon="-0.9034">
        <ele>13.4</ele>
        <time>2020-06-16T15:56:12Z</time>
      </trkpt>
      <trkpt lat="49.37906" lon="-0.90335">
        <ele>13.3</ele>
        <time>2020-06-16T15:56:13Z</time>
      </trkpt>
      <trkpt lat="49.37908" lon="-0.90331">
        <ele>13.3</ele>
        <time>2020-06-16T15:56:14Z</time>
      </trkpt>
      <trkpt lat="49.3791" lon="-0.90328">
        <ele>13.2</ele>
        <time>2020-06-16T15:56:15Z</time>
      </trkpt>
      <trkpt lat="49.37912" lon="-0.90324">
        <ele>12.6</ele>
        <time>2020-06-16T15:56:16Z</time>
      </trkpt>
      <trkpt lat="49.37912" lon="-0.90322">
        <ele>12.5</ele>
        <time>2020-06-16T15:56:17Z</time>
      </trkpt>
      <trkpt lat="49.37914" lon="-0.90319">
        <ele>12.5</ele>
        <time>2020-06-16T15:56:18Z</time>
      </trkpt>
      <trkpt lat="49.37915" lon="-0.90318">
        <ele>12.5</ele>
        <time>2020-06-16T15:56:19Z</time>
      </trkpt>
      <trkpt lat="49.37917" lon="-0.90314">
        <ele>12.4</ele>
        <time>2020-06-16T15:56:20Z</time>
      </trkpt>
      <trkpt lat="49.37917" lon="-0.90314">
        <ele>12.4</ele>
        <time>2020-06-16T15:56:21Z</time>
      </trkpt>
      <trkpt lat="49.37918" lon="-0.90312">
        <ele>12.4</ele>
        <time>2020-06-16T15:56:22Z</time>
      </trkpt>
      <trkpt lat="49.37919" lon="-0.90311">
        <ele>12.4</ele>
        <time>2020-06-16T15:56:23Z</time>
      </trkpt>
      <trkpt lat="49.37919" lon="-0.9031">
        <ele>12.3</ele>
        <time>2020-06-16T15:56:24Z</time>
      </trkpt>
      <trkpt lat="49.37919" lon="-0.90308">
        <ele>12.3</ele>
        <time>2020-06-16T15:56:25Z</time>
      </trkpt>
      <trkpt lat="49.37919" lon="-0.90308">
        <ele>12.3</ele>
        <time>2020-06-16T15:56:26Z</time>
      </trkpt>
      <trkpt lat="49.37919" lon="-0.90306">
        <ele>12.3</ele>
        <time>2020-06-16T15:56:27Z</time>
      </trkpt>
      <trkpt lat="49.3792" lon="-0.90305">
        <ele>12.3</ele>
        <time>2020-06-16T15:56:28Z</time>
      </trkpt>
      <trkpt lat="49.37921" lon="-0.90304">
        <ele>12.2</ele>
        <time>2020-06-16T15:56:29Z</time>
      </trkpt>
      <trkpt lat="49.37922" lon="-0.90303">
        <ele>12.2</ele>
        <time>2020-06-16T15:56:30Z</time>
      </trkpt>
      <trkpt lat="49.37922" lon="-0.90303">
        <ele>12.2</ele>
        <time>2020-06-16T15:56:31Z</time>
      </trkpt>
      <trkpt lat="49.37923" lon="-0.90304">
        <ele>12.2</ele>
        <time>2020-06-16T15:56:32Z</time>
      </trkpt>
      <trkpt lat="49.37924" lon="-0.90305">
        <ele>12.2</ele>
        <time>2020-06-16T15:56:33Z</time>
      </trkpt>
      <trkpt lat="49.37924" lon="-0.90305">
        <ele>12.2</ele>
        <time>2020-06-16T15:56:34Z</time>
      </trkpt>
      <trkpt lat="49.37924" lon="-0.90306">
        <ele>12.2</ele>
        <time>2020-06-16T15:56:35Z</time>
      </trkpt>
      <trkpt lat="49.37924" lon="-0.90306">
        <ele>12.2</ele>
        <time>2020-06-16T15:56:36Z</time>
      </trkpt>
      <trkpt lat="49.37924" lon="-0.90306">
        <ele>12.2</ele>
        <time>2020-06-16T15:56:37Z</time>
      </trkpt>
      <trkpt lat="49.37924" lon="-0.90306">
        <ele>12.2</ele>
        <time>2020-06-16T15:56:38Z</time>
      </trkpt>
      <trkpt lat="49.37924" lon="-0.90306">
        <ele>12.2</ele>
        <time>2020-06-16T15:56:39Z</time>
      </trkpt>
      <trkpt lat="49.37924" lon="-0.90306">
        <ele>12.2</ele>
        <time>2020-06-16T15:56:40Z</time>
      </trkpt>
      <trkpt lat="49.37924" lon="-0.90306">
        <ele>12.2</ele>
        <time>2020-06-16T15:56:41Z</time>
      </trkpt>
      <trkpt lat="49.37924" lon="-0.90306">
        <ele>12.2</ele>
        <time>2020-06-16T15:56:42Z</time>
      </trkpt>
      <trkpt lat="49.37925" lon="-0.90306">
        <ele>12.2</ele>
        <time>2020-06-16T15:56:43Z</time>
      </trkpt>
      <trkpt lat="49.37925" lon="-0.90306">
        <ele>12.2</ele>
        <time>2020-06-16T15:56:44Z</time>
      </trkpt>
      <trkpt lat="49.37927" lon="-0.90306">
        <ele>12.1</ele>
        <time>2020-06-16T15:57:01Z</time>
      </trkpt>
      <trkpt lat="49.37928" lon="-0.90306">
        <ele>12.1</ele>
        <time>2020-06-16T15:57:02Z</time>
      </trkpt>
      <trkpt lat="49.37928" lon="-0.90306">
        <ele>12.1</ele>
        <time>2020-06-16T15:57:03Z</time>
      </trkpt>
      <trkpt lat="49.37927" lon="-0.90307">
        <ele>12.1</ele>
        <time>2020-06-16T15:57:04Z</time>
      </trkpt>
      <trkpt lat="49.37928" lon="-0.90307">
        <ele>12.1</ele>
        <time>2020-06-16T15:57:05Z</time>
      </trkpt>
      <trkpt lat="49.37929" lon="-0.90307">
        <ele>12.1</ele>
        <time>2020-06-16T15:57:06Z</time>
      </trkpt>
      <trkpt lat="49.37929" lon="-0.90307">
        <ele>12</ele>
        <time>2020-06-16T15:57:07Z</time>
      </trkpt>
      <trkpt lat="49.37929" lon="-0.90306">
        <ele>12</ele>
        <time>2020-06-16T15:57:08Z</time>
      </trkpt>
      <trkpt lat="49.3793" lon="-0.90307">
        <ele>12</ele>
        <time>2020-06-16T15:57:09Z</time>
      </trkpt>
      <trkpt lat="49.3793" lon="-0.90307">
        <ele>12</ele>
        <time>2020-06-16T15:57:10Z</time>
      </trkpt>
      <trkpt lat="49.3793" lon="-0.90307">
        <ele>12</ele>
        <time>2020-06-16T15:57:11Z</time>
      </trkpt>
      <trkpt lat="49.37929" lon="-0.90308">
        <ele>12</ele>
        <time>2020-06-16T15:57:12Z</time>
      </trkpt>
      <trkpt lat="49.37929" lon="-0.90308">
        <ele>12</ele>
        <time>2020-06-16T15:57:13Z</time>
      </trkpt>
      <trkpt lat="49.37929" lon="-0.90309">
        <ele>12</ele>
        <time>2020-06-16T15:57:14Z</time>
      </trkpt>
      <trkpt lat="49.37929" lon="-0.9031">
        <ele>12</ele>
        <time>2020-06-16T15:57:15Z</time>
      </trkpt>
      <trkpt lat="49.37929" lon="-0.90311">
        <ele>12</ele>
        <time>2020-06-16T15:57:16Z</time>
      </trkpt>
      <trkpt lat="49.37929" lon="-0.90311">
        <ele>12</ele>
        <time>2020-06-16T15:57:17Z</time>
      </trkpt>
      <trkpt lat="49.37929" lon="-0.90311">
        <ele>12</ele>
        <time>2020-06-16T15:57:18Z</time>
      </trkpt>
      <trkpt lat="49.37929" lon="-0.90311">
        <ele>12</ele>
        <time>2020-06-16T15:57:19Z</time>
      </trkpt>
      <trkpt lat="49.37926" lon="-0.90314">
        <ele>11.9</ele>
        <time>2020-06-16T15:58:51Z</time>
      </trkpt>
      <trkpt lat="49.37926" lon="-0.90312">
        <ele>11.9</ele>
        <time>2020-06-16T15:58:52Z</time>
      </trkpt>
      <trkpt lat="49.37925" lon="-0.9031">
        <ele>11.8</ele>
        <time>2020-06-16T15:58:53Z</time>
      </trkpt>
      <trkpt lat="49.37925" lon="-0.90308">
        <ele>11.8</ele>
        <time>2020-06-16T15:58:54Z</time>
      </trkpt>
      <trkpt lat="49.37926" lon="-0.90305">
        <ele>11.8</ele>
        <time>2020-06-16T15:58:55Z</time>
      </trkpt>
      <trkpt lat="49.37926" lon="-0.90302">
        <ele>11.8</ele>
        <time>2020-06-16T15:58:56Z</time>
      </trkpt>
      <trkpt lat="49.37925" lon="-0.90301">
        <ele>11.7</ele>
        <time>2020-06-16T15:58:57Z</time>
      </trkpt>
      <trkpt lat="49.37925" lon="-0.90299">
        <ele>11.7</ele>
        <time>2020-06-16T15:58:58Z</time>
      </trkpt>
      <trkpt lat="49.37925" lon="-0.90298">
        <ele>11.7</ele>
        <time>2020-06-16T15:58:59Z</time>
      </trkpt>
      <trkpt lat="49.37925" lon="-0.90297">
        <ele>11.7</ele>
        <time>2020-06-16T15:59:00Z</time>
      </trkpt>
      <trkpt lat="49.37925" lon="-0.90296">
        <ele>11.7</ele>
        <time>2020-06-16T15:59:01Z</time>
      </trkpt>
      <trkpt lat="49.37925" lon="-0.90295">
        <ele>11.7</ele>
        <time>2020-06-16T15:59:02Z</time>
      </trkpt>
      <trkpt lat="49.37925" lon="-0.90295">
        <ele>11.7</ele>
        <time>2020-06-16T15:59:03Z</time>
      </trkpt>
      <trkpt lat="49.37925" lon="-0.90295">
        <ele>11.6</ele>
        <time>2020-06-16T15:59:04Z</time>
      </trkpt>
      <trkpt lat="49.37925" lon="-0.90294">
        <ele>11.6</ele>
        <time>2020-06-16T15:59:05Z</time>
      </trkpt>
      <trkpt lat="49.37925" lon="-0.90294">
        <ele>11.6</ele>
        <time>2020-06-16T15:59:06Z</time>
      </trkpt>
      <trkpt lat="49.37925" lon="-0.90294">
        <ele>11.6</ele>
        <time>2020-06-16T15:59:07Z</time>
      </trkpt>
      <trkpt lat="49.37925" lon="-0.90294">
        <ele>11.6</ele>
        <time>2020-06-16T15:59:08Z</time>
      </trkpt>
      <trkpt lat="49.37925" lon="-0.90293">
        <ele>11.6</ele>
        <time>2020-06-16T15:59:09Z</time>
      </trkpt>
      <trkpt lat="49.37925" lon="-0.90293">
        <ele>11.6</ele>
        <time>2020-06-16T15:59:10Z</time>
      </trkpt>
      <trkpt lat="49.37925" lon="-0.90293">
        <ele>11.6</ele>
        <time>2020-06-16T15:59:11Z</time>
      </trkpt>
      <trkpt lat="49.37925" lon="-0.90292">
        <ele>11.6</ele>
        <time>2020-06-16T15:59:12Z</time>
      </trkpt>
      <trkpt lat="49.37925" lon="-0.90291">
        <ele>11.6</ele>
        <time>2020-06-16T15:59:13Z</time>
      </trkpt>
      <trkpt lat="49.37925" lon="-0.9029">
        <ele>11.6</ele>
        <time>2020-06-16T15:59:14Z</time>
      </trkpt>
      <trkpt lat="49.37925" lon="-0.9029">
        <ele>11.6</ele>
        <time>2020-06-16T15:59:15Z</time>
      </trkpt>
      <trkpt lat="49.37925" lon="-0.90289">
        <ele>11.6</ele>
        <time>2020-06-16T15:59:16Z</time>
      </trkpt>
      <trkpt lat="49.37925" lon="-0.90289">
        <ele>11.6</ele>
        <time>2020-06-16T15:59:17Z</time>
      </trkpt>
      <trkpt lat="49.37925" lon="-0.90289">
        <ele>11.6</ele>
        <time>2020-06-16T15:59:18Z</time>
      </trkpt>
      <trkpt lat="49.37925" lon="-0.90289">
        <ele>11.6</ele>
        <time>2020-06-16T15:59:19Z</time>
      </trkpt>
      <trkpt lat="49.37925" lon="-0.90289">
        <ele>11.6</ele>
        <time>2020-06-16T15:59:20Z</time>
      </trkpt>
      <trkpt lat="49.37925" lon="-0.90289">
        <ele>11.6</ele>
        <time>2020-06-16T15:59:21Z</time>
      </trkpt>
      <trkpt lat="49.37925" lon="-0.90289">
        <ele>11.6</ele>
        <time>2020-06-16T15:59:22Z</time>
      </trkpt>
      <trkpt lat="49.37925" lon="-0.90289">
        <ele>11.6</ele>
        <time>2020-06-16T15:59:23Z</time>
      </trkpt>
      <trkpt lat="49.37925" lon="-0.90289">
        <ele>11.6</ele>
        <time>2020-06-16T15:59:24Z</time>
      </trkpt>
      <trkpt lat="49.37924" lon="-0.90288">
        <ele>11.5</ele>
        <time>2020-06-16T16:00:17Z</time>
      </trkpt>
      <trkpt lat="49.37924" lon="-0.90289">
        <ele>11.5</ele>
        <time>2020-06-16T16:00:18Z</time>
      </trkpt>
      <trkpt lat="49.37923" lon="-0.9029">
        <ele>11.5</ele>
        <time>2020-06-16T16:00:19Z</time>
      </trkpt>
      <trkpt lat="49.37923" lon="-0.9029">
        <ele>11.5</ele>
        <time>2020-06-16T16:00:20Z</time>
      </trkpt>
      <trkpt lat="49.37923" lon="-0.9029">
        <ele>11.5</ele>
        <time>2020-06-16T16:00:21Z</time>
      </trkpt>
      <trkpt lat="49.37923" lon="-0.90289">
        <ele>11.5</ele>
        <time>2020-06-16T16:00:22Z</time>
      </trkpt>
      <trkpt lat="49.37923" lon="-0.90289">
        <ele>11.5</ele>
        <time>2020-06-16T16:00:23Z</time>
      </trkpt>
      <trkpt lat="49.37923" lon="-0.90289">
        <ele>11.5</ele>
        <time>2020-06-16T16:00:24Z</time>
      </trkpt>
      <trkpt lat="49.37923" lon="-0.9029">
        <ele>11.5</ele>
        <time>2020-06-16T16:00:25Z</time>
      </trkpt>
      <trkpt lat="49.37923" lon="-0.9029">
        <ele>11.5</ele>
        <time>2020-06-16T16:00:26Z</time>
      </trkpt>
      <trkpt lat="49.37923" lon="-0.9029">
        <ele>11.5</ele>
        <time>2020-06-16T16:00:27Z</time>
      </trkpt>
      <trkpt lat="49.37925" lon="-0.90294">
        <ele>11.4</ele>
        <time>2020-06-16T16:00:37Z</time>
      </trkpt>
      <trkpt lat="49.37925" lon="-0.90295">
        <ele>11.4</ele>
        <time>2020-06-16T16:00:38Z</time>
      </trkpt>
      <trkpt lat="49.37926" lon="-0.90297">
        <ele>11.4</ele>
        <time>2020-06-16T16:00:39Z</time>
      </trkpt>
      <trkpt lat="49.37926" lon="-0.90299">
        <ele>11.4</ele>
        <time>2020-06-16T16:00:40Z</time>
      </trkpt>
      <trkpt lat="49.37926" lon="-0.90301">
        <ele>11.4</ele>
        <time>2020-06-16T16:00:41Z</time>
      </trkpt>
      <trkpt lat="49.37927" lon="-0.90302">
        <ele>11.3</ele>
        <time>2020-06-16T16:00:42Z</time>
      </trkpt>
      <trkpt lat="49.37928" lon="-0.90305">
        <ele>11.3</ele>
        <time>2020-06-16T16:00:43Z</time>
      </trkpt>
      <trkpt lat="49.37928" lon="-0.90307">
        <ele>11.3</ele>
        <time>2020-06-16T16:00:44Z</time>
      </trkpt>
      <trkpt lat="49.37929" lon="-0.90308">
        <ele>11.3</ele>
        <time>2020-06-16T16:00:45Z</time>
      </trkpt>
      <trkpt lat="49.3793" lon="-0.9031">
        <ele>11.2</ele>
        <time>2020-06-16T16:00:46Z</time>
      </trkpt>
      <trkpt lat="49.3793" lon="-0.9031">
        <ele>11.2</ele>
        <time>2020-06-16T16:00:47Z</time>
      </trkpt>
      <trkpt lat="49.37931" lon="-0.90311">
        <ele>11.2</ele>
        <time>2020-06-16T16:00:48Z</time>
      </trkpt>
      <trkpt lat="49.37932" lon="-0.90312">
        <ele>11.2</ele>
        <time>2020-06-16T16:00:49Z</time>
      </trkpt>
      <trkpt lat="49.37932" lon="-0.90313">
        <ele>11.2</ele>
        <time>2020-06-16T16:00:50Z</time>
      </trkpt>
      <trkpt lat="49.37933" lon="-0.90314">
        <ele>11.1</ele>
        <time>2020-06-16T16:00:51Z</time>
      </trkpt>
      <trkpt lat="49.37933" lon="-0.90315">
        <ele>11.1</ele>
        <time>2020-06-16T16:00:52Z</time>
      </trkpt>
      <trkpt lat="49.37933" lon="-0.90316">
        <ele>11.1</ele>
        <time>2020-06-16T16:00:53Z</time>
      </trkpt>
      <trkpt lat="49.37933" lon="-0.90316">
        <ele>11.1</ele>
        <time>2020-06-16T16:00:54Z</time>
      </trkpt>
      <trkpt lat="49.37933" lon="-0.90317">
        <ele>11.1</ele>
        <time>2020-06-16T16:00:55Z</time>
      </trkpt>
      <trkpt lat="49.37934" lon="-0.90318">
        <ele>11.1</ele>
        <time>2020-06-16T16:00:56Z</time>
      </trkpt>
      <trkpt lat="49.37934" lon="-0.90319">
        <ele>11.1</ele>
        <time>2020-06-16T16:00:57Z</time>
      </trkpt>
      <trkpt lat="49.37934" lon="-0.9032">
        <ele>11.1</ele>
        <time>2020-06-16T16:00:58Z</time>
      </trkpt>
      <trkpt lat="49.37936" lon="-0.90323">
        <ele>11</ele>
        <time>2020-06-16T16:00:59Z</time>
      </trkpt>
      <trkpt lat="49.37936" lon="-0.90324">
        <ele>11</ele>
        <time>2020-06-16T16:01:00Z</time>
      </trkpt>
      <trkpt lat="49.37937" lon="-0.90325">
        <ele>11</ele>
        <time>2020-06-16T16:01:01Z</time>
      </trkpt>
      <trkpt lat="49.37937" lon="-0.90326">
        <ele>11</ele>
        <time>2020-06-16T16:01:02Z</time>
      </trkpt>
      <trkpt lat="49.37938" lon="-0.90328">
        <ele>10.9</ele>
        <time>2020-06-16T16:01:03Z</time>
      </trkpt>
      <trkpt lat="49.37937" lon="-0.90328">
        <ele>10.9</ele>
        <time>2020-06-16T16:01:04Z</time>
      </trkpt>
      <trkpt lat="49.37938" lon="-0.9033">
        <ele>10.9</ele>
        <time>2020-06-16T16:01:05Z</time>
      </trkpt>
      <trkpt lat="49.37938" lon="-0.90329">
        <ele>10.9</ele>
        <time>2020-06-16T16:01:06Z</time>
      </trkpt>
      <trkpt lat="49.37938" lon="-0.90329">
        <ele>10.9</ele>
        <time>2020-06-16T16:01:07Z</time>
      </trkpt>
      <trkpt lat="49.37939" lon="-0.9033">
        <ele>10.9</ele>
        <time>2020-06-16T16:01:08Z</time>
      </trkpt>
      <trkpt lat="49.37939" lon="-0.9033">
        <ele>10.9</ele>
        <time>2020-06-16T16:01:09Z</time>
      </trkpt>
      <trkpt lat="49.37939" lon="-0.9033">
        <ele>10.9</ele>
        <time>2020-06-16T16:01:10Z</time>
      </trkpt>
      <trkpt lat="49.37939" lon="-0.9033">
        <ele>10.9</ele>
        <time>2020-06-16T16:01:11Z</time>
      </trkpt>
      <trkpt lat="49.37939" lon="-0.9033">
        <ele>10.9</ele>
        <time>2020-06-16T16:01:12Z</time>
      </trkpt>
      <trkpt lat="49.37939" lon="-0.9033">
        <ele>10.9</ele>
        <time>2020-06-16T16:01:13Z</time>
      </trkpt>
      <trkpt lat="49.37939" lon="-0.9033">
        <ele>10.9</ele>
        <time>2020-06-16T16:01:14Z</time>
      </trkpt>
      <trkpt lat="49.3794" lon="-0.90326">
        <ele>10.8</ele>
        <time>2020-06-16T16:03:10Z</time>
      </trkpt>
      <trkpt lat="49.3794" lon="-0.90325">
        <ele>10.8</ele>
        <time>2020-06-16T16:03:11Z</time>
      </trkpt>
      <trkpt lat="49.3794" lon="-0.90325">
        <ele>10.8</ele>
        <time>2020-06-16T16:03:12Z</time>
      </trkpt>
      <trkpt lat="49.3794" lon="-0.90324">
        <ele>10.8</ele>
        <time>2020-06-16T16:03:13Z</time>
      </trkpt>
      <trkpt lat="49.37941" lon="-0.90323">
        <ele>10.8</ele>
        <time>2020-06-16T16:03:14Z</time>
      </trkpt>
      <trkpt lat="49.37941" lon="-0.90323">
        <ele>10.8</ele>
        <time>2020-06-16T16:03:15Z</time>
      </trkpt>
      <trkpt lat="49.37941" lon="-0.90322">
        <ele>10.8</ele>
        <time>2020-06-16T16:03:16Z</time>
      </trkpt>
      <trkpt lat="49.37941" lon="-0.90322">
        <ele>10.8</ele>
        <time>2020-06-16T16:03:17Z</time>
      </trkpt>
      <trkpt lat="49.37941" lon="-0.90322">
        <ele>10.8</ele>
        <time>2020-06-16T16:03:18Z</time>
      </trkpt>
      <trkpt lat="49.37941" lon="-0.90322">
        <ele>10.8</ele>
        <time>2020-06-16T16:03:19Z</time>
      </trkpt>
      <trkpt lat="49.37941" lon="-0.90322">
        <ele>10.8</ele>
        <time>2020-06-16T16:03:20Z</time>
      </trkpt>
      <trkpt lat="49.37941" lon="-0.90322">
        <ele>10.8</ele>
        <time>2020-06-16T16:03:21Z</time>
      </trkpt>
      <trkpt lat="49.37941" lon="-0.90321">
        <ele>10.8</ele>
        <time>2020-06-16T16:03:22Z</time>
      </trkpt>
      <trkpt lat="49.37941" lon="-0.90321">
        <ele>10.7</ele>
        <time>2020-06-16T16:03:23Z</time>
      </trkpt>
      <trkpt lat="49.37941" lon="-0.90321">
        <ele>10.7</ele>
        <time>2020-06-16T16:03:24Z</time>
      </trkpt>
      <trkpt lat="49.37947" lon="-0.90319">
        <ele>10.3</ele>
        <time>2020-06-16T16:03:32Z</time>
      </trkpt>
      <trkpt lat="49.37948" lon="-0.90318">
        <ele>10.3</ele>
        <time>2020-06-16T16:03:33Z</time>
      </trkpt>
      <trkpt lat="49.37949" lon="-0.90318">
        <ele>10.4</ele>
        <time>2020-06-16T16:03:34Z</time>
      </trkpt>
      <trkpt lat="49.3795" lon="-0.90317">
        <ele>10.4</ele>
        <time>2020-06-16T16:03:35Z</time>
      </trkpt>
      <trkpt lat="49.37951" lon="-0.90317">
        <ele>10.4</ele>
        <time>2020-06-16T16:03:36Z</time>
      </trkpt>
      <trkpt lat="49.37952" lon="-0.90316">
        <ele>10.4</ele>
        <time>2020-06-16T16:03:37Z</time>
      </trkpt>
      <trkpt lat="49.37953" lon="-0.90315">
        <ele>10.4</ele>
        <time>2020-06-16T16:03:38Z</time>
      </trkpt>
      <trkpt lat="49.37954" lon="-0.90315">
        <ele>10.4</ele>
        <time>2020-06-16T16:03:39Z</time>
      </trkpt>
      <trkpt lat="49.37955" lon="-0.90315">
        <ele>10.4</ele>
        <time>2020-06-16T16:03:40Z</time>
      </trkpt>
      <trkpt lat="49.37955" lon="-0.90315">
        <ele>10.4</ele>
        <time>2020-06-16T16:03:41Z</time>
      </trkpt>
      <trkpt lat="49.37955" lon="-0.90315">
        <ele>10.4</ele>
        <time>2020-06-16T16:03:42Z</time>
      </trkpt>
      <trkpt lat="49.37955" lon="-0.90315">
        <ele>10.4</ele>
        <time>2020-06-16T16:03:43Z</time>
      </trkpt>
      <trkpt lat="49.37955" lon="-0.90315">
        <ele>10.4</ele>
        <time>2020-06-16T16:03:44Z</time>
      </trkpt>
      <trkpt lat="49.37955" lon="-0.90315">
        <ele>10.4</ele>
        <time>2020-06-16T16:03:45Z</time>
      </trkpt>
      <trkpt lat="49.37955" lon="-0.90315">
        <ele>10.4</ele>
        <time>2020-06-16T16:03:46Z</time>
      </trkpt>
      <trkpt lat="49.37955" lon="-0.90315">
        <ele>10.4</ele>
        <time>2020-06-16T16:03:47Z</time>
      </trkpt>
      <trkpt lat="49.37955" lon="-0.90315">
        <ele>10.4</ele>
        <time>2020-06-16T16:03:48Z</time>
      </trkpt>
      <trkpt lat="49.37955" lon="-0.90315">
        <ele>10.4</ele>
        <time>2020-06-16T16:03:49Z</time>
      </trkpt>
      <trkpt lat="49.3795" lon="-0.9031">
        <ele>10.5</ele>
        <time>2020-06-16T16:11:58Z</time>
      </trkpt>
      <trkpt lat="49.3795" lon="-0.9031">
        <ele>10.5</ele>
        <time>2020-06-16T16:11:59Z</time>
      </trkpt>
      <trkpt lat="49.37949" lon="-0.90311">
        <ele>10.5</ele>
        <time>2020-06-16T16:12:00Z</time>
      </trkpt>
      <trkpt lat="49.37949" lon="-0.90311">
        <ele>10.5</ele>
        <time>2020-06-16T16:12:01Z</time>
      </trkpt>
      <trkpt lat="49.37949" lon="-0.90312">
        <ele>10.6</ele>
        <time>2020-06-16T16:12:02Z</time>
      </trkpt>
      <trkpt lat="49.37947" lon="-0.90312">
        <ele>10.6</ele>
        <time>2020-06-16T16:12:03Z</time>
      </trkpt>
      <trkpt lat="49.37947" lon="-0.90313">
        <ele>10.6</ele>
        <time>2020-06-16T16:12:04Z</time>
      </trkpt>
      <trkpt lat="49.37946" lon="-0.90313">
        <ele>10.6</ele>
        <time>2020-06-16T16:12:05Z</time>
      </trkpt>
      <trkpt lat="49.37945" lon="-0.90314">
        <ele>10.6</ele>
        <time>2020-06-16T16:12:06Z</time>
      </trkpt>
      <trkpt lat="49.37945" lon="-0.90314">
        <ele>10.6</ele>
        <time>2020-06-16T16:12:07Z</time>
      </trkpt>
      <trkpt lat="49.37944" lon="-0.90315">
        <ele>10.6</ele>
        <time>2020-06-16T16:12:08Z</time>
      </trkpt>
      <trkpt lat="49.37944" lon="-0.90315">
        <ele>10.6</ele>
        <time>2020-06-16T16:12:09Z</time>
      </trkpt>
      <trkpt lat="49.37944" lon="-0.90316">
        <ele>10.6</ele>
        <time>2020-06-16T16:12:10Z</time>
      </trkpt>
      <trkpt lat="49.37944" lon="-0.90316">
        <ele>10.6</ele>
        <time>2020-06-16T16:12:11Z</time>
      </trkpt>
      <trkpt lat="49.37944" lon="-0.90316">
        <ele>10.6</ele>
        <time>2020-06-16T16:12:12Z</time>
      </trkpt>
      <trkpt lat="49.37944" lon="-0.90316">
        <ele>10.6</ele>
        <time>2020-06-16T16:12:13Z</time>
      </trkpt>
      <trkpt lat="49.37944" lon="-0.90316">
        <ele>10.6</ele>
        <time>2020-06-16T16:12:14Z</time>
      </trkpt>
      <trkpt lat="49.37943" lon="-0.90317">
        <ele>10.7</ele>
        <time>2020-06-16T16:12:15Z</time>
      </trkpt>
      <trkpt lat="49.37943" lon="-0.90318">
        <ele>10.7</ele>
        <time>2020-06-16T16:12:16Z</time>
      </trkpt>
      <trkpt lat="49.37942" lon="-0.90318">
        <ele>10.7</ele>
        <time>2020-06-16T16:12:17Z</time>
      </trkpt>
      <trkpt lat="49.37942" lon="-0.90319">
        <ele>10.7</ele>
        <time>2020-06-16T16:12:18Z</time>
      </trkpt>
      <trkpt lat="49.37942" lon="-0.90319">
        <ele>10.7</ele>
        <time>2020-06-16T16:12:19Z</time>
      </trkpt>
      <trkpt lat="49.37942" lon="-0.90319">
        <ele>10.7</ele>
        <time>2020-06-16T16:12:20Z</time>
      </trkpt>
      <trkpt lat="49.37942" lon="-0.9032">
        <ele>10.7</ele>
        <time>2020-06-16T16:12:21Z</time>
      </trkpt>
      <trkpt lat="49.37941" lon="-0.9032">
        <ele>10.7</ele>
        <time>2020-06-16T16:12:22Z</time>
      </trkpt>
      <trkpt lat="49.37941" lon="-0.90319">
        <ele>10.7</ele>
        <time>2020-06-16T16:12:23Z</time>
      </trkpt>
      <trkpt lat="49.37941" lon="-0.90319">
        <ele>10.7</ele>
        <time>2020-06-16T16:12:24Z</time>
      </trkpt>
      <trkpt lat="49.3794" lon="-0.90319">
        <ele>10.7</ele>
        <time>2020-06-16T16:12:25Z</time>
      </trkpt>
      <trkpt lat="49.3794" lon="-0.90319">
        <ele>10.7</ele>
        <time>2020-06-16T16:12:26Z</time>
      </trkpt>
      <trkpt lat="49.3794" lon="-0.90319">
        <ele>10.7</ele>
        <time>2020-06-16T16:12:27Z</time>
      </trkpt>
      <trkpt lat="49.3794" lon="-0.90319">
        <ele>10.7</ele>
        <time>2020-06-16T16:12:28Z</time>
      </trkpt>
      <trkpt lat="49.3794" lon="-0.90319">
        <ele>10.7</ele>
        <time>2020-06-16T16:12:29Z</time>
      </trkpt>
      <trkpt lat="49.3794" lon="-0.90318">
        <ele>10.7</ele>
        <time>2020-06-16T16:12:30Z</time>
      </trkpt>
      <trkpt lat="49.3794" lon="-0.90316">
        <ele>10.7</ele>
        <time>2020-06-16T16:12:31Z</time>
      </trkpt>
      <trkpt lat="49.3794" lon="-0.90314">
        <ele>10.8</ele>
        <time>2020-06-16T16:12:32Z</time>
      </trkpt>
      <trkpt lat="49.3794" lon="-0.90313">
        <ele>10.8</ele>
        <time>2020-06-16T16:12:33Z</time>
      </trkpt>
      <trkpt lat="49.3794" lon="-0.90312">
        <ele>10.8</ele>
        <time>2020-06-16T16:12:34Z</time>
      </trkpt>
      <trkpt lat="49.3794" lon="-0.90311">
        <ele>10.8</ele>
        <time>2020-06-16T16:12:35Z</time>
      </trkpt>
      <trkpt lat="49.37939" lon="-0.90311">
        <ele>10.8</ele>
        <time>2020-06-16T16:12:36Z</time>
      </trkpt>
      <trkpt lat="49.37938" lon="-0.9031">
        <ele>10.8</ele>
        <time>2020-06-16T16:12:37Z</time>
      </trkpt>
      <trkpt lat="49.37937" lon="-0.90309">
        <ele>10.8</ele>
        <time>2020-06-16T16:12:38Z</time>
      </trkpt>
      <trkpt lat="49.37936" lon="-0.90308">
        <ele>10.8</ele>
        <time>2020-06-16T16:12:39Z</time>
      </trkpt>
      <trkpt lat="49.37936" lon="-0.90308">
        <ele>10.8</ele>
        <time>2020-06-16T16:12:40Z</time>
      </trkpt>
      <trkpt lat="49.37936" lon="-0.90307">
        <ele>10.8</ele>
        <time>2020-06-16T16:12:41Z</time>
      </trkpt>
      <trkpt lat="49.37936" lon="-0.90307">
        <ele>10.9</ele>
        <time>2020-06-16T16:12:42Z</time>
      </trkpt>
      <trkpt lat="49.37935" lon="-0.90307">
        <ele>10.9</ele>
        <time>2020-06-16T16:12:43Z</time>
      </trkpt>
      <trkpt lat="49.37935" lon="-0.90306">
        <ele>10.9</ele>
        <time>2020-06-16T16:12:44Z</time>
      </trkpt>
      <trkpt lat="49.37934" lon="-0.90307">
        <ele>10.9</ele>
        <time>2020-06-16T16:12:45Z</time>
      </trkpt>
      <trkpt lat="49.37934" lon="-0.90308">
        <ele>10.9</ele>
        <time>2020-06-16T16:12:46Z</time>
      </trkpt>
      <trkpt lat="49.37933" lon="-0.90308">
        <ele>10.9</ele>
        <time>2020-06-16T16:12:47Z</time>
      </trkpt>
      <trkpt lat="49.37933" lon="-0.90308">
        <ele>10.9</ele>
        <time>2020-06-16T16:12:48Z</time>
      </trkpt>
      <trkpt lat="49.37933" lon="-0.90308">
        <ele>10.9</ele>
        <time>2020-06-16T16:12:49Z</time>
      </trkpt>
      <trkpt lat="49.37932" lon="-0.90308">
        <ele>10.9</ele>
        <time>2020-06-16T16:12:50Z</time>
      </trkpt>
      <trkpt lat="49.37932" lon="-0.90308">
        <ele>10.9</ele>
        <time>2020-06-16T16:12:51Z</time>
      </trkpt>
      <trkpt lat="49.37933" lon="-0.90307">
        <ele>10.9</ele>
        <time>2020-06-16T16:12:52Z</time>
      </trkpt>
      <trkpt lat="49.37933" lon="-0.90307">
        <ele>10.9</ele>
        <time>2020-06-16T16:12:53Z</time>
      </trkpt>
      <trkpt lat="49.37933" lon="-0.90307">
        <ele>10.9</ele>
        <time>2020-06-16T16:12:54Z</time>
      </trkpt>
      <trkpt lat="49.37934" lon="-0.90307">
        <ele>10.9</ele>
        <time>2020-06-16T16:12:55Z</time>
      </trkpt>
      <trkpt lat="49.37934" lon="-0.90306">
        <ele>10.9</ele>
        <time>2020-06-16T16:12:56Z</time>
      </trkpt>
      <trkpt lat="49.37934" lon="-0.90306">
        <ele>10.9</ele>
        <time>2020-06-16T16:12:57Z</time>
      </trkpt>
      <trkpt lat="49.37935" lon="-0.90306">
        <ele>10.9</ele>
        <time>2020-06-16T16:13:24Z</time>
      </trkpt>
      <trkpt lat="49.37935" lon="-0.90306">
        <ele>11</ele>
        <time>2020-06-16T16:13:25Z</time>
      </trkpt>
      <trkpt lat="49.37935" lon="-0.90305">
        <ele>11</ele>
        <time>2020-06-16T16:13:26Z</time>
      </trkpt>
      <trkpt lat="49.37935" lon="-0.90305">
        <ele>11</ele>
        <time>2020-06-16T16:13:27Z</time>
      </trkpt>
      <trkpt lat="49.37936" lon="-0.90305">
        <ele>11</ele>
        <time>2020-06-16T16:13:28Z</time>
      </trkpt>
      <trkpt lat="49.37936" lon="-0.90304">
        <ele>11</ele>
        <time>2020-06-16T16:13:29Z</time>
      </trkpt>
      <trkpt lat="49.37936" lon="-0.90304">
        <ele>11</ele>
        <time>2020-06-16T16:13:30Z</time>
      </trkpt>
      <trkpt lat="49.37937" lon="-0.90304">
        <ele>11</ele>
        <time>2020-06-16T16:13:31Z</time>
      </trkpt>
      <trkpt lat="49.37937" lon="-0.90304">
        <ele>11</ele>
        <time>2020-06-16T16:13:32Z</time>
      </trkpt>
      <trkpt lat="49.37938" lon="-0.90304">
        <ele>11</ele>
        <time>2020-06-16T16:13:33Z</time>
      </trkpt>
      <trkpt lat="49.37939" lon="-0.90304">
        <ele>11</ele>
        <time>2020-06-16T16:13:34Z</time>
      </trkpt>
      <trkpt lat="49.37939" lon="-0.90305">
        <ele>11</ele>
        <time>2020-06-16T16:13:35Z</time>
      </trkpt>
      <trkpt lat="49.3794" lon="-0.90305">
        <ele>11</ele>
        <time>2020-06-16T16:13:36Z</time>
      </trkpt>
      <trkpt lat="49.37941" lon="-0.90306">
        <ele>11</ele>
        <time>2020-06-16T16:13:37Z</time>
      </trkpt>
      <trkpt lat="49.37941" lon="-0.90308">
        <ele>11.1</ele>
        <time>2020-06-16T16:13:38Z</time>
      </trkpt>
      <trkpt lat="49.37941" lon="-0.90309">
        <ele>11.1</ele>
        <time>2020-06-16T16:13:39Z</time>
      </trkpt>
      <trkpt lat="49.37942" lon="-0.90311">
        <ele>11.1</ele>
        <time>2020-06-16T16:13:40Z</time>
      </trkpt>
      <trkpt lat="49.37942" lon="-0.90313">
        <ele>11.1</ele>
        <time>2020-06-16T16:13:41Z</time>
      </trkpt>
      <trkpt lat="49.37942" lon="-0.90316">
        <ele>11.1</ele>
        <time>2020-06-16T16:13:42Z</time>
      </trkpt>
      <trkpt lat="49.37942" lon="-0.90317">
        <ele>11.1</ele>
        <time>2020-06-16T16:13:43Z</time>
      </trkpt>
      <trkpt lat="49.37942" lon="-0.90319">
        <ele>11.2</ele>
        <time>2020-06-16T16:13:44Z</time>
      </trkpt>
      <trkpt lat="49.37942" lon="-0.9032">
        <ele>11.2</ele>
        <time>2020-06-16T16:13:45Z</time>
      </trkpt>
      <trkpt lat="49.37942" lon="-0.90321">
        <ele>11.2</ele>
        <time>2020-06-16T16:13:46Z</time>
      </trkpt>
      <trkpt lat="49.37942" lon="-0.90321">
        <ele>11.2</ele>
        <time>2020-06-16T16:13:47Z</time>
      </trkpt>
      <trkpt lat="49.37942" lon="-0.90321">
        <ele>11.2</ele>
        <time>2020-06-16T16:13:48Z</time>
      </trkpt>
      <trkpt lat="49.37942" lon="-0.90322">
        <ele>11.2</ele>
        <time>2020-06-16T16:13:49Z</time>
      </trkpt>
      <trkpt lat="49.37941" lon="-0.90321">
        <ele>11.2</ele>
        <time>2020-06-16T16:13:50Z</time>
      </trkpt>
      <trkpt lat="49.3794" lon="-0.90321">
        <ele>11.2</ele>
        <time>2020-06-16T16:13:51Z</time>
      </trkpt>
      <trkpt lat="49.3794" lon="-0.90321">
        <ele>11.2</ele>
        <time>2020-06-16T16:13:52Z</time>
      </trkpt>
      <trkpt lat="49.37939" lon="-0.9032">
        <ele>11.2</ele>
        <time>2020-06-16T16:13:53Z</time>
      </trkpt>
      <trkpt lat="49.37939" lon="-0.9032">
        <ele>11.2</ele>
        <time>2020-06-16T16:13:54Z</time>
      </trkpt>
      <trkpt lat="49.37938" lon="-0.9032">
        <ele>11.2</ele>
        <time>2020-06-16T16:13:55Z</time>
      </trkpt>
      <trkpt lat="49.37937" lon="-0.90319">
        <ele>11.2</ele>
        <time>2020-06-16T16:14:05Z</time>
      </trkpt>
      <trkpt lat="49.37937" lon="-0.90319">
        <ele>11.3</ele>
        <time>2020-06-16T16:14:06Z</time>
      </trkpt>
      <trkpt lat="49.37936" lon="-0.90319">
        <ele>11.3</ele>
        <time>2020-06-16T16:14:07Z</time>
      </trkpt>
      <trkpt lat="49.37936" lon="-0.90318">
        <ele>11.3</ele>
        <time>2020-06-16T16:14:08Z</time>
      </trkpt>
      <trkpt lat="49.37936" lon="-0.90318">
        <ele>11.3</ele>
        <time>2020-06-16T16:14:09Z</time>
      </trkpt>
      <trkpt lat="49.37935" lon="-0.90316">
        <ele>11.3</ele>
        <time>2020-06-16T16:14:10Z</time>
      </trkpt>
      <trkpt lat="49.37935" lon="-0.90314">
        <ele>11.3</ele>
        <time>2020-06-16T16:14:11Z</time>
      </trkpt>
      <trkpt lat="49.37934" lon="-0.90312">
        <ele>11.3</ele>
        <time>2020-06-16T16:14:12Z</time>
      </trkpt>
      <trkpt lat="49.37934" lon="-0.90312">
        <ele>11.3</ele>
        <time>2020-06-16T16:14:13Z</time>
      </trkpt>
      <trkpt lat="49.37934" lon="-0.90312">
        <ele>11.3</ele>
        <time>2020-06-16T16:14:14Z</time>
      </trkpt>
      <trkpt lat="49.37934" lon="-0.90312">
        <ele>11.3</ele>
        <time>2020-06-16T16:14:15Z</time>
      </trkpt>
      <trkpt lat="49.37934" lon="-0.90312">
        <ele>11.3</ele>
        <time>2020-06-16T16:14:16Z</time>
      </trkpt>
      <trkpt lat="49.37934" lon="-0.90312">
        <ele>11.3</ele>
        <time>2020-06-16T16:14:17Z</time>
      </trkpt>
      <trkpt lat="49.37933" lon="-0.90312">
        <ele>11.4</ele>
        <time>2020-06-16T16:14:18Z</time>
      </trkpt>
      <trkpt lat="49.37933" lon="-0.90311">
        <ele>11.4</ele>
        <time>2020-06-16T16:14:19Z</time>
      </trkpt>
      <trkpt lat="49.37932" lon="-0.90311">
        <ele>11.4</ele>
        <time>2020-06-16T16:14:20Z</time>
      </trkpt>
      <trkpt lat="49.37932" lon="-0.90311">
        <ele>11.4</ele>
        <time>2020-06-16T16:14:21Z</time>
      </trkpt>
      <trkpt lat="49.37932" lon="-0.90311">
        <ele>11.4</ele>
        <time>2020-06-16T16:14:22Z</time>
      </trkpt>
      <trkpt lat="49.37932" lon="-0.90311">
        <ele>11.4</ele>
        <time>2020-06-16T16:14:23Z</time>
      </trkpt>
      <trkpt lat="49.37926" lon="-0.90312">
        <ele>11.4</ele>
        <time>2020-06-16T16:17:10Z</time>
      </trkpt>
      <trkpt lat="49.37924" lon="-0.90313">
        <ele>11.5</ele>
        <time>2020-06-16T16:17:11Z</time>
      </trkpt>
      <trkpt lat="49.37923" lon="-0.90314">
        <ele>11.5</ele>
        <time>2020-06-16T16:17:12Z</time>
      </trkpt>
      <trkpt lat="49.37922" lon="-0.90315">
        <ele>11.5</ele>
        <time>2020-06-16T16:17:13Z</time>
      </trkpt>
      <trkpt lat="49.3792" lon="-0.90316">
        <ele>11.5</ele>
        <time>2020-06-16T16:17:14Z</time>
      </trkpt>
      <trkpt lat="49.37919" lon="-0.90317">
        <ele>11.5</ele>
        <time>2020-06-16T16:17:15Z</time>
      </trkpt>
      <trkpt lat="49.37919" lon="-0.90319">
        <ele>11.6</ele>
        <time>2020-06-16T16:17:16Z</time>
      </trkpt>
      <trkpt lat="49.37918" lon="-0.9032">
        <ele>11.6</ele>
        <time>2020-06-16T16:17:17Z</time>
      </trkpt>
      <trkpt lat="49.37917" lon="-0.90322">
        <ele>11.6</ele>
        <time>2020-06-16T16:17:18Z</time>
      </trkpt>
      <trkpt lat="49.37917" lon="-0.90322">
        <ele>11.6</ele>
        <time>2020-06-16T16:17:19Z</time>
      </trkpt>
      <trkpt lat="49.37916" lon="-0.90323">
        <ele>11.6</ele>
        <time>2020-06-16T16:17:20Z</time>
      </trkpt>
      <trkpt lat="49.37916" lon="-0.90324">
        <ele>11.6</ele>
        <time>2020-06-16T16:17:21Z</time>
      </trkpt>
      <trkpt lat="49.37916" lon="-0.90324">
        <ele>11.6</ele>
        <time>2020-06-16T16:17:22Z</time>
      </trkpt>
      <trkpt lat="49.37916" lon="-0.90324">
        <ele>11.6</ele>
        <time>2020-06-16T16:17:23Z</time>
      </trkpt>
      <trkpt lat="49.37916" lon="-0.90324">
        <ele>11.6</ele>
        <time>2020-06-16T16:17:24Z</time>
      </trkpt>
      <trkpt lat="49.37915" lon="-0.90325">
        <ele>11.6</ele>
        <time>2020-06-16T16:17:25Z</time>
      </trkpt>
      <trkpt lat="49.37915" lon="-0.90325">
        <ele>11.6</ele>
        <time>2020-06-16T16:17:26Z</time>
      </trkpt>
      <trkpt lat="49.37915" lon="-0.90325">
        <ele>11.6</ele>
        <time>2020-06-16T16:17:27Z</time>
      </trkpt>
      <trkpt lat="49.37914" lon="-0.90326">
        <ele>11.6</ele>
        <time>2020-06-16T16:17:28Z</time>
      </trkpt>
      <trkpt lat="49.37914" lon="-0.90325">
        <ele>11.6</ele>
        <time>2020-06-16T16:17:29Z</time>
      </trkpt>
      <trkpt lat="49.37916" lon="-0.90316">
        <ele>11.7</ele>
        <time>2020-06-16T16:17:38Z</time>
      </trkpt>
      <trkpt lat="49.37917" lon="-0.90312">
        <ele>11.8</ele>
        <time>2020-06-16T16:17:39Z</time>
      </trkpt>
      <trkpt lat="49.37918" lon="-0.90307">
        <ele>11.8</ele>
        <time>2020-06-16T16:17:40Z</time>
      </trkpt>
      <trkpt lat="49.37918" lon="-0.90306">
        <ele>11.8</ele>
        <time>2020-06-16T16:17:41Z</time>
      </trkpt>
      <trkpt lat="49.37918" lon="-0.90304">
        <ele>11.8</ele>
        <time>2020-06-16T16:17:42Z</time>
      </trkpt>
      <trkpt lat="49.37918" lon="-0.90303">
        <ele>11.8</ele>
        <time>2020-06-16T16:17:43Z</time>
      </trkpt>
      <trkpt lat="49.37918" lon="-0.90302">
        <ele>11.8</ele>
        <time>2020-06-16T16:17:44Z</time>
      </trkpt>
      <trkpt lat="49.37918" lon="-0.90302">
        <ele>11.8</ele>
        <time>2020-06-16T16:17:45Z</time>
      </trkpt>
      <trkpt lat="49.37918" lon="-0.90301">
        <ele>11.9</ele>
        <time>2020-06-16T16:17:46Z</time>
      </trkpt>
      <trkpt lat="49.37918" lon="-0.90299">
        <ele>11.9</ele>
        <time>2020-06-16T16:17:47Z</time>
      </trkpt>
      <trkpt lat="49.37917" lon="-0.90298">
        <ele>11.9</ele>
        <time>2020-06-16T16:17:48Z</time>
      </trkpt>
      <trkpt lat="49.37917" lon="-0.90296">
        <ele>11.9</ele>
        <time>2020-06-16T16:17:49Z</time>
      </trkpt>
      <trkpt lat="49.37917" lon="-0.90296">
        <ele>11.9</ele>
        <time>2020-06-16T16:17:50Z</time>
      </trkpt>
      <trkpt lat="49.37918" lon="-0.90296">
        <ele>11.9</ele>
        <time>2020-06-16T16:17:51Z</time>
      </trkpt>
      <trkpt lat="49.37918" lon="-0.90297">
        <ele>11.9</ele>
        <time>2020-06-16T16:17:52Z</time>
      </trkpt>
      <trkpt lat="49.37919" lon="-0.90297">
        <ele>11.9</ele>
        <time>2020-06-16T16:17:53Z</time>
      </trkpt>
      <trkpt lat="49.3792" lon="-0.90297">
        <ele>11.9</ele>
        <time>2020-06-16T16:17:57Z</time>
      </trkpt>
      <trkpt lat="49.3792" lon="-0.90298">
        <ele>11.9</ele>
        <time>2020-06-16T16:17:58Z</time>
      </trkpt>
      <trkpt lat="49.37921" lon="-0.90298">
        <ele>12</ele>
        <time>2020-06-16T16:17:59Z</time>
      </trkpt>
      <trkpt lat="49.37921" lon="-0.90298">
        <ele>12</ele>
        <time>2020-06-16T16:18:00Z</time>
      </trkpt>
      <trkpt lat="49.37924" lon="-0.90301">
        <ele>12</ele>
        <time>2020-06-16T16:18:01Z</time>
      </trkpt>
      <trkpt lat="49.37927" lon="-0.90304">
        <ele>12</ele>
        <time>2020-06-16T16:18:02Z</time>
      </trkpt>
      <trkpt lat="49.3793" lon="-0.90308">
        <ele>12.1</ele>
        <time>2020-06-16T16:18:03Z</time>
      </trkpt>
      <trkpt lat="49.37933" lon="-0.90311">
        <ele>12.1</ele>
        <time>2020-06-16T16:18:04Z</time>
      </trkpt>
      <trkpt lat="49.37935" lon="-0.90315">
        <ele>12.2</ele>
        <time>2020-06-16T16:18:05Z</time>
      </trkpt>
      <trkpt lat="49.37937" lon="-0.9032">
        <ele>12.2</ele>
        <time>2020-06-16T16:18:06Z</time>
      </trkpt>
      <trkpt lat="49.37937" lon="-0.90326">
        <ele>12.3</ele>
        <time>2020-06-16T16:18:07Z</time>
      </trkpt>
      <trkpt lat="49.37937" lon="-0.9033">
        <ele>12.3</ele>
        <time>2020-06-16T16:18:08Z</time>
      </trkpt>
      <trkpt lat="49.37936" lon="-0.90332">
        <ele>12.3</ele>
        <time>2020-06-16T16:18:09Z</time>
      </trkpt>
      <trkpt lat="49.37935" lon="-0.90336">
        <ele>12.4</ele>
        <time>2020-06-16T16:18:10Z</time>
      </trkpt>
      <trkpt lat="49.37934" lon="-0.90337">
        <ele>12.4</ele>
        <time>2020-06-16T16:18:11Z</time>
      </trkpt>
      <trkpt lat="49.37932" lon="-0.90338">
        <ele>12.4</ele>
        <time>2020-06-16T16:18:12Z</time>
      </trkpt>
      <trkpt lat="49.37931" lon="-0.90337">
        <ele>12.4</ele>
        <time>2020-06-16T16:18:13Z</time>
      </trkpt>
      <trkpt lat="49.37928" lon="-0.90336">
        <ele>12.5</ele>
        <time>2020-06-16T16:18:14Z</time>
      </trkpt>
      <trkpt lat="49.37925" lon="-0.90334">
        <ele>12.5</ele>
        <time>2020-06-16T16:18:15Z</time>
      </trkpt>
      <trkpt lat="49.37922" lon="-0.90332">
        <ele>12.6</ele>
        <time>2020-06-16T16:18:16Z</time>
      </trkpt>
      <trkpt lat="49.3792" lon="-0.9033">
        <ele>12.6</ele>
        <time>2020-06-16T16:18:17Z</time>
      </trkpt>
      <trkpt lat="49.37917" lon="-0.90327">
        <ele>12.6</ele>
        <time>2020-06-16T16:18:18Z</time>
      </trkpt>
      <trkpt lat="49.37916" lon="-0.90326">
        <ele>12.6</ele>
        <time>2020-06-16T16:18:19Z</time>
      </trkpt>
      <trkpt lat="49.37915" lon="-0.90324">
        <ele>12.7</ele>
        <time>2020-06-16T16:18:20Z</time>
      </trkpt>
      <trkpt lat="49.37914" lon="-0.90323">
        <ele>12.7</ele>
        <time>2020-06-16T16:18:21Z</time>
      </trkpt>
      <trkpt lat="49.37914" lon="-0.90323">
        <ele>12.7</ele>
        <time>2020-06-16T16:18:22Z</time>
      </trkpt>
      <trkpt lat="49.37913" lon="-0.90323">
        <ele>12.7</ele>
        <time>2020-06-16T16:18:23Z</time>
      </trkpt>
      <trkpt lat="49.37913" lon="-0.90323">
        <ele>12.7</ele>
        <time>2020-06-16T16:18:24Z</time>
      </trkpt>
      <trkpt lat="49.37913" lon="-0.90323">
        <ele>12.7</ele>
        <time>2020-06-16T16:18:25Z</time>
      </trkpt>
      <trkpt lat="49.37913" lon="-0.90322">
        <ele>12.7</ele>
        <time>2020-06-16T16:18:26Z</time>
      </trkpt>
      <trkpt lat="49.37912" lon="-0.90322">
        <ele>12.7</ele>
        <time>2020-06-16T16:18:27Z</time>
      </trkpt>
      <trkpt lat="49.37911" lon="-0.90321">
        <ele>12.7</ele>
        <time>2020-06-16T16:18:28Z</time>
      </trkpt>
      <trkpt lat="49.3791" lon="-0.9032">
        <ele>12.7</ele>
        <time>2020-06-16T16:18:29Z</time>
      </trkpt>
      <trkpt lat="49.3791" lon="-0.90318">
        <ele>12.8</ele>
        <time>2020-06-16T16:18:30Z</time>
      </trkpt>
      <trkpt lat="49.3791" lon="-0.90317">
        <ele>12.8</ele>
        <time>2020-06-16T16:18:31Z</time>
      </trkpt>
      <trkpt lat="49.37909" lon="-0.90316">
        <ele>12.4</ele>
        <time>2020-06-16T16:18:32Z</time>
      </trkpt>
      <trkpt lat="49.37909" lon="-0.90314">
        <ele>12.3</ele>
        <time>2020-06-16T16:18:33Z</time>
      </trkpt>
      <trkpt lat="49.37908" lon="-0.90313">
        <ele>12.2</ele>
        <time>2020-06-16T16:18:34Z</time>
      </trkpt>
      <trkpt lat="49.37908" lon="-0.90311">
        <ele>12.1</ele>
        <time>2020-06-16T16:18:35Z</time>
      </trkpt>
      <trkpt lat="49.37907" lon="-0.9031">
        <ele>12</ele>
        <time>2020-06-16T16:18:42Z</time>
      </trkpt>
      <trkpt lat="49.37907" lon="-0.90309">
        <ele>11.9</ele>
        <time>2020-06-16T16:18:43Z</time>
      </trkpt>
      <trkpt lat="49.37906" lon="-0.90304">
        <ele>11.6</ele>
        <time>2020-06-16T16:18:44Z</time>
      </trkpt>
      <trkpt lat="49.37905" lon="-0.90297">
        <ele>11.2</ele>
        <time>2020-06-16T16:18:45Z</time>
      </trkpt>
      <trkpt lat="49.37906" lon="-0.9029">
        <ele>10.8</ele>
        <time>2020-06-16T16:18:46Z</time>
      </trkpt>
      <trkpt lat="49.37906" lon="-0.90284">
        <ele>10.4</ele>
        <time>2020-06-16T16:18:47Z</time>
      </trkpt>
      <trkpt lat="49.37906" lon="-0.90278">
        <ele>10</ele>
        <time>2020-06-16T16:18:48Z</time>
      </trkpt>
      <trkpt lat="49.37906" lon="-0.90272">
        <ele>9.6</ele>
        <time>2020-06-16T16:18:49Z</time>
      </trkpt>
      <trkpt lat="49.37904" lon="-0.90265">
        <ele>9.1</ele>
        <time>2020-06-16T16:18:50Z</time>
      </trkpt>
      <trkpt lat="49.37902" lon="-0.90256">
        <ele>8.5</ele>
        <time>2020-06-16T16:18:51Z</time>
      </trkpt>
      <trkpt lat="49.379" lon="-0.90247">
        <ele>7.9</ele>
        <time>2020-06-16T16:18:52Z</time>
      </trkpt>
      <trkpt lat="49.37897" lon="-0.90237">
        <ele>7.3</ele>
        <time>2020-06-16T16:18:53Z</time>
      </trkpt>
      <trkpt lat="49.37895" lon="-0.90226">
        <ele>6.7</ele>
        <time>2020-06-16T16:18:54Z</time>
      </trkpt>
      <trkpt lat="49.37893" lon="-0.90215">
        <ele>6.2</ele>
        <time>2020-06-16T16:18:55Z</time>
      </trkpt>
      <trkpt lat="49.3789" lon="-0.90205">
        <ele>5.6</ele>
        <time>2020-06-16T16:18:56Z</time>
      </trkpt>
      <trkpt lat="49.37887" lon="-0.90194">
        <ele>5.4</ele>
        <time>2020-06-16T16:18:57Z</time>
      </trkpt>
      <trkpt lat="49.37885" lon="-0.90184">
        <ele>5.3</ele>
        <time>2020-06-16T16:18:58Z</time>
      </trkpt>
      <trkpt lat="49.37882" lon="-0.90175">
        <ele>5.2</ele>
        <time>2020-06-16T16:18:59Z</time>
      </trkpt>
      <trkpt lat="49.37879" lon="-0.90165">
        <ele>5.2</ele>
        <time>2020-06-16T16:19:00Z</time>
      </trkpt>
      <trkpt lat="49.37876" lon="-0.90155">
        <ele>5.1</ele>
        <time>2020-06-16T16:19:01Z</time>
      </trkpt>
      <trkpt lat="49.37872" lon="-0.90144">
        <ele>5.1</ele>
        <time>2020-06-16T16:19:02Z</time>
      </trkpt>
      <trkpt lat="49.37869" lon="-0.90134">
        <ele>5</ele>
        <time>2020-06-16T16:19:03Z</time>
      </trkpt>
      <trkpt lat="49.37866" lon="-0.90125">
        <ele>5</ele>
        <time>2020-06-16T16:19:04Z</time>
      </trkpt>
      <trkpt lat="49.37863" lon="-0.90116">
        <ele>4.9</ele>
        <time>2020-06-16T16:19:05Z</time>
      </trkpt>
      <trkpt lat="49.37861" lon="-0.90108">
        <ele>4.9</ele>
        <time>2020-06-16T16:19:06Z</time>
      </trkpt>
      <trkpt lat="49.37858" lon="-0.90098">
        <ele>4.9</ele>
        <time>2020-06-16T16:19:07Z</time>
      </trkpt>
      <trkpt lat="49.37855" lon="-0.90089">
        <ele>4.8</ele>
        <time>2020-06-16T16:19:08Z</time>
      </trkpt>
      <trkpt lat="49.37852" lon="-0.90081">
        <ele>4.8</ele>
        <time>2020-06-16T16:19:09Z</time>
      </trkpt>
      <trkpt lat="49.37849" lon="-0.90074">
        <ele>4.8</ele>
        <time>2020-06-16T16:19:10Z</time>
      </trkpt>
      <trkpt lat="49.37845" lon="-0.90068">
        <ele>4.8</ele>
        <time>2020-06-16T16:19:11Z</time>
      </trkpt>
      <trkpt lat="49.37842" lon="-0.90061">
        <ele>4.8</ele>
        <time>2020-06-16T16:19:12Z</time>
      </trkpt>
      <trkpt lat="49.37839" lon="-0.90054">
        <ele>4.7</ele>
        <time>2020-06-16T16:19:13Z</time>
      </trkpt>
      <trkpt lat="49.37836" lon="-0.90047">
        <ele>4.7</ele>
        <time>2020-06-16T16:19:14Z</time>
      </trkpt>
      <trkpt lat="49.37833" lon="-0.90039">
        <ele>4.7</ele>
        <time>2020-06-16T16:19:15Z</time>
      </trkpt>
      <trkpt lat="49.3783" lon="-0.90032">
        <ele>4.7</ele>
        <time>2020-06-16T16:19:16Z</time>
      </trkpt>
      <trkpt lat="49.37827" lon="-0.90026">
        <ele>4.7</ele>
        <time>2020-06-16T16:19:17Z</time>
      </trkpt>
      <trkpt lat="49.37824" lon="-0.9002">
        <ele>4.7</ele>
        <time>2020-06-16T16:19:18Z</time>
      </trkpt>
      <trkpt lat="49.37821" lon="-0.90013">
        <ele>4.7</ele>
        <time>2020-06-16T16:19:19Z</time>
      </trkpt>
      <trkpt lat="49.37817" lon="-0.90006">
        <ele>4.6</ele>
        <time>2020-06-16T16:19:20Z</time>
      </trkpt>
      <trkpt lat="49.37814" lon="-0.89999">
        <ele>4.6</ele>
        <time>2020-06-16T16:19:21Z</time>
      </trkpt>
      <trkpt lat="49.37812" lon="-0.89993">
        <ele>4.6</ele>
        <time>2020-06-16T16:19:22Z</time>
      </trkpt>
      <trkpt lat="49.37809" lon="-0.89987">
        <ele>4.6</ele>
        <time>2020-06-16T16:19:23Z</time>
      </trkpt>
      <trkpt lat="49.37807" lon="-0.89981">
        <ele>4.6</ele>
        <time>2020-06-16T16:19:24Z</time>
      </trkpt>
      <trkpt lat="49.37804" lon="-0.89974">
        <ele>4.6</ele>
        <time>2020-06-16T16:19:25Z</time>
      </trkpt>
      <trkpt lat="49.37801" lon="-0.89968">
        <ele>4.6</ele>
        <time>2020-06-16T16:19:26Z</time>
      </trkpt>
      <trkpt lat="49.37798" lon="-0.89961">
        <ele>4.6</ele>
        <time>2020-06-16T16:19:27Z</time>
      </trkpt>
      <trkpt lat="49.37795" lon="-0.89954">
        <ele>4.6</ele>
        <time>2020-06-16T16:19:28Z</time>
      </trkpt>
      <trkpt lat="49.37792" lon="-0.89947">
        <ele>4.6</ele>
        <time>2020-06-16T16:19:29Z</time>
      </trkpt>
      <trkpt lat="49.3779" lon="-0.8994">
        <ele>4.6</ele>
        <time>2020-06-16T16:19:30Z</time>
      </trkpt>
      <trkpt lat="49.37788" lon="-0.89933">
        <ele>4.6</ele>
        <time>2020-06-16T16:19:31Z</time>
      </trkpt>
      <trkpt lat="49.37785" lon="-0.89927">
        <ele>4.6</ele>
        <time>2020-06-16T16:19:32Z</time>
      </trkpt>
      <trkpt lat="49.37783" lon="-0.89922">
        <ele>4.6</ele>
        <time>2020-06-16T16:19:33Z</time>
      </trkpt>
      <trkpt lat="49.3778" lon="-0.89916">
        <ele>4.6</ele>
        <time>2020-06-16T16:19:34Z</time>
      </trkpt>
      <trkpt lat="49.37777" lon="-0.8991">
        <ele>4.6</ele>
        <time>2020-06-16T16:19:35Z</time>
      </trkpt>
      <trkpt lat="49.37774" lon="-0.89902">
        <ele>4.6</ele>
        <time>2020-06-16T16:19:36Z</time>
      </trkpt>
      <trkpt lat="49.37771" lon="-0.89896">
        <ele>4.6</ele>
        <time>2020-06-16T16:19:37Z</time>
      </trkpt>
      <trkpt lat="49.37769" lon="-0.8989">
        <ele>4.6</ele>
        <time>2020-06-16T16:19:38Z</time>
      </trkpt>
      <trkpt lat="49.37766" lon="-0.89884">
        <ele>4.6</ele>
        <time>2020-06-16T16:19:39Z</time>
      </trkpt>
      <trkpt lat="49.37764" lon="-0.89877">
        <ele>4.6</ele>
        <time>2020-06-16T16:19:40Z</time>
      </trkpt>
      <trkpt lat="49.37761" lon="-0.89871">
        <ele>4.7</ele>
        <time>2020-06-16T16:19:41Z</time>
      </trkpt>
      <trkpt lat="49.37758" lon="-0.89864">
        <ele>4.7</ele>
        <time>2020-06-16T16:19:42Z</time>
      </trkpt>
      <trkpt lat="49.37755" lon="-0.89858">
        <ele>4.7</ele>
        <time>2020-06-16T16:19:43Z</time>
      </trkpt>
      <trkpt lat="49.37752" lon="-0.89851">
        <ele>4.7</ele>
        <time>2020-06-16T16:19:44Z</time>
      </trkpt>
      <trkpt lat="49.37748" lon="-0.89845">
        <ele>4.7</ele>
        <time>2020-06-16T16:19:45Z</time>
      </trkpt>
      <trkpt lat="49.37745" lon="-0.89838">
        <ele>4.7</ele>
        <time>2020-06-16T16:19:46Z</time>
      </trkpt>
      <trkpt lat="49.37742" lon="-0.89831">
        <ele>4.6</ele>
        <time>2020-06-16T16:19:47Z</time>
      </trkpt>
      <trkpt lat="49.3774" lon="-0.89825">
        <ele>4.6</ele>
        <time>2020-06-16T16:19:48Z</time>
      </trkpt>
      <trkpt lat="49.37737" lon="-0.89818">
        <ele>4.6</ele>
        <time>2020-06-16T16:19:49Z</time>
      </trkpt>
      <trkpt lat="49.37734" lon="-0.89811">
        <ele>4.6</ele>
        <time>2020-06-16T16:19:50Z</time>
      </trkpt>
      <trkpt lat="49.37732" lon="-0.89804">
        <ele>4.6</ele>
        <time>2020-06-16T16:19:51Z</time>
      </trkpt>
      <trkpt lat="49.37729" lon="-0.89798">
        <ele>4.6</ele>
        <time>2020-06-16T16:19:52Z</time>
      </trkpt>
      <trkpt lat="49.37726" lon="-0.89792">
        <ele>4.6</ele>
        <time>2020-06-16T16:19:53Z</time>
      </trkpt>
      <trkpt lat="49.37723" lon="-0.89785">
        <ele>4.6</ele>
        <time>2020-06-16T16:19:54Z</time>
      </trkpt>
      <trkpt lat="49.3772" lon="-0.89779">
        <ele>4.6</ele>
        <time>2020-06-16T16:19:55Z</time>
      </trkpt>
      <trkpt lat="49.37717" lon="-0.89774">
        <ele>4.6</ele>
        <time>2020-06-16T16:19:56Z</time>
      </trkpt>
      <trkpt lat="49.37714" lon="-0.89768">
        <ele>4.6</ele>
        <time>2020-06-16T16:19:57Z</time>
      </trkpt>
      <trkpt lat="49.37711" lon="-0.89762">
        <ele>4.6</ele>
        <time>2020-06-16T16:19:58Z</time>
      </trkpt>
      <trkpt lat="49.37708" lon="-0.89756">
        <ele>4.5</ele>
        <time>2020-06-16T16:19:59Z</time>
      </trkpt>
      <trkpt lat="49.37705" lon="-0.8975">
        <ele>4.5</ele>
        <time>2020-06-16T16:20:00Z</time>
      </trkpt>
      <trkpt lat="49.37702" lon="-0.89744">
        <ele>4.5</ele>
        <time>2020-06-16T16:20:01Z</time>
      </trkpt>
      <trkpt lat="49.377" lon="-0.89739">
        <ele>4.5</ele>
        <time>2020-06-16T16:20:02Z</time>
      </trkpt>
      <trkpt lat="49.37698" lon="-0.89735">
        <ele>4.5</ele>
        <time>2020-06-16T16:20:03Z</time>
      </trkpt>
      <trkpt lat="49.37696" lon="-0.89731">
        <ele>4.5</ele>
        <time>2020-06-16T16:20:04Z</time>
      </trkpt>
      <trkpt lat="49.37693" lon="-0.89726">
        <ele>4.5</ele>
        <time>2020-06-16T16:20:05Z</time>
      </trkpt>
      <trkpt lat="49.37692" lon="-0.89721">
        <ele>4.5</ele>
        <time>2020-06-16T16:20:06Z</time>
      </trkpt>
      <trkpt lat="49.37689" lon="-0.89715">
        <ele>4.5</ele>
        <time>2020-06-16T16:20:07Z</time>
      </trkpt>
      <trkpt lat="49.37686" lon="-0.89709">
        <ele>4.5</ele>
        <time>2020-06-16T16:20:08Z</time>
      </trkpt>
      <trkpt lat="49.37683" lon="-0.89704">
        <ele>4.5</ele>
        <time>2020-06-16T16:20:09Z</time>
      </trkpt>
      <trkpt lat="49.37681" lon="-0.89698">
        <ele>4.5</ele>
        <time>2020-06-16T16:20:10Z</time>
      </trkpt>
      <trkpt lat="49.37679" lon="-0.89692">
        <ele>4.5</ele>
        <time>2020-06-16T16:20:11Z</time>
      </trkpt>
      <trkpt lat="49.37677" lon="-0.89686">
        <ele>4.4</ele>
        <time>2020-06-16T16:20:12Z</time>
      </trkpt>
      <trkpt lat="49.37674" lon="-0.8968">
        <ele>4.4</ele>
        <time>2020-06-16T16:20:13Z</time>
      </trkpt>
      <trkpt lat="49.37672" lon="-0.89674">
        <ele>4.4</ele>
        <time>2020-06-16T16:20:14Z</time>
      </trkpt>
      <trkpt lat="49.3767" lon="-0.89668">
        <ele>4.4</ele>
        <time>2020-06-16T16:20:15Z</time>
      </trkpt>
      <trkpt lat="49.37667" lon="-0.89662">
        <ele>4.4</ele>
        <time>2020-06-16T16:20:16Z</time>
      </trkpt>
      <trkpt lat="49.37665" lon="-0.89656">
        <ele>4.4</ele>
        <time>2020-06-16T16:20:17Z</time>
      </trkpt>
      <trkpt lat="49.37663" lon="-0.89649">
        <ele>4.4</ele>
        <time>2020-06-16T16:20:18Z</time>
      </trkpt>
      <trkpt lat="49.37661" lon="-0.89643">
        <ele>4.4</ele>
        <time>2020-06-16T16:20:19Z</time>
      </trkpt>
      <trkpt lat="49.37659" lon="-0.89636">
        <ele>4.4</ele>
        <time>2020-06-16T16:20:20Z</time>
      </trkpt>
      <trkpt lat="49.37656" lon="-0.8963">
        <ele>4.4</ele>
        <time>2020-06-16T16:20:21Z</time>
      </trkpt>
      <trkpt lat="49.37654" lon="-0.89624">
        <ele>4.3</ele>
        <time>2020-06-16T16:20:22Z</time>
      </trkpt>
      <trkpt lat="49.37651" lon="-0.89618">
        <ele>4.3</ele>
        <time>2020-06-16T16:20:23Z</time>
      </trkpt>
      <trkpt lat="49.37647" lon="-0.89612">
        <ele>4.3</ele>
        <time>2020-06-16T16:20:24Z</time>
      </trkpt>
      <trkpt lat="49.37645" lon="-0.89606">
        <ele>4.3</ele>
        <time>2020-06-16T16:20:25Z</time>
      </trkpt>
      <trkpt lat="49.37642" lon="-0.89601">
        <ele>4.3</ele>
        <time>2020-06-16T16:20:26Z</time>
      </trkpt>
      <trkpt lat="49.3764" lon="-0.89594">
        <ele>4.3</ele>
        <time>2020-06-16T16:20:27Z</time>
      </trkpt>
      <trkpt lat="49.37637" lon="-0.89588">
        <ele>4.3</ele>
        <time>2020-06-16T16:20:28Z</time>
      </trkpt>
      <trkpt lat="49.37635" lon="-0.89583">
        <ele>4.3</ele>
        <time>2020-06-16T16:20:29Z</time>
      </trkpt>
      <trkpt lat="49.37632" lon="-0.89577">
        <ele>4.3</ele>
        <time>2020-06-16T16:20:30Z</time>
      </trkpt>
      <trkpt lat="49.37629" lon="-0.8957">
        <ele>4.3</ele>
        <time>2020-06-16T16:20:31Z</time>
      </trkpt>
      <trkpt lat="49.37627" lon="-0.89563">
        <ele>4.3</ele>
        <time>2020-06-16T16:20:32Z</time>
      </trkpt>
      <trkpt lat="49.37625" lon="-0.89556">
        <ele>4.3</ele>
        <time>2020-06-16T16:20:33Z</time>
      </trkpt>
      <trkpt lat="49.37623" lon="-0.8955">
        <ele>4.3</ele>
        <time>2020-06-16T16:20:34Z</time>
      </trkpt>
      <trkpt lat="49.3762" lon="-0.89543">
        <ele>4.3</ele>
        <time>2020-06-16T16:20:35Z</time>
      </trkpt>
      <trkpt lat="49.37617" lon="-0.89536">
        <ele>4.3</ele>
        <time>2020-06-16T16:20:36Z</time>
      </trkpt>
      <trkpt lat="49.37614" lon="-0.8953">
        <ele>4.3</ele>
        <time>2020-06-16T16:20:37Z</time>
      </trkpt>
      <trkpt lat="49.37612" lon="-0.89525">
        <ele>4.3</ele>
        <time>2020-06-16T16:20:38Z</time>
      </trkpt>
      <trkpt lat="49.37609" lon="-0.89519">
        <ele>4.3</ele>
        <time>2020-06-16T16:20:39Z</time>
      </trkpt>
      <trkpt lat="49.37607" lon="-0.89513">
        <ele>4.3</ele>
        <time>2020-06-16T16:20:40Z</time>
      </trkpt>
      <trkpt lat="49.37604" lon="-0.89506">
        <ele>4.3</ele>
        <time>2020-06-16T16:20:41Z</time>
      </trkpt>
      <trkpt lat="49.37602" lon="-0.89499">
        <ele>4.3</ele>
        <time>2020-06-16T16:20:42Z</time>
      </trkpt>
      <trkpt lat="49.376" lon="-0.89492">
        <ele>4.3</ele>
        <time>2020-06-16T16:20:43Z</time>
      </trkpt>
      <trkpt lat="49.37598" lon="-0.89485">
        <ele>4.3</ele>
        <time>2020-06-16T16:20:44Z</time>
      </trkpt>
      <trkpt lat="49.37596" lon="-0.89478">
        <ele>4.3</ele>
        <time>2020-06-16T16:20:45Z</time>
      </trkpt>
      <trkpt lat="49.37594" lon="-0.89471">
        <ele>4.3</ele>
        <time>2020-06-16T16:20:46Z</time>
      </trkpt>
      <trkpt lat="49.37592" lon="-0.89464">
        <ele>4.3</ele>
        <time>2020-06-16T16:20:47Z</time>
      </trkpt>
      <trkpt lat="49.3759" lon="-0.89457">
        <ele>4.3</ele>
        <time>2020-06-16T16:20:48Z</time>
      </trkpt>
      <trkpt lat="49.37588" lon="-0.89451">
        <ele>4.3</ele>
        <time>2020-06-16T16:20:49Z</time>
      </trkpt>
      <trkpt lat="49.37586" lon="-0.89444">
        <ele>4.3</ele>
        <time>2020-06-16T16:20:50Z</time>
      </trkpt>
      <trkpt lat="49.37585" lon="-0.89437">
        <ele>4.3</ele>
        <time>2020-06-16T16:20:51Z</time>
      </trkpt>
      <trkpt lat="49.37583" lon="-0.8943">
        <ele>4.2</ele>
        <time>2020-06-16T16:20:52Z</time>
      </trkpt>
      <trkpt lat="49.3758" lon="-0.89423">
        <ele>4.2</ele>
        <time>2020-06-16T16:20:53Z</time>
      </trkpt>
      <trkpt lat="49.37578" lon="-0.89417">
        <ele>4.2</ele>
        <time>2020-06-16T16:20:54Z</time>
      </trkpt>
      <trkpt lat="49.37575" lon="-0.8941">
        <ele>4.2</ele>
        <time>2020-06-16T16:20:55Z</time>
      </trkpt>
      <trkpt lat="49.37573" lon="-0.89403">
        <ele>4.2</ele>
        <time>2020-06-16T16:20:56Z</time>
      </trkpt>
      <trkpt lat="49.3757" lon="-0.89396">
        <ele>4.2</ele>
        <time>2020-06-16T16:20:57Z</time>
      </trkpt>
      <trkpt lat="49.37567" lon="-0.8939">
        <ele>4.1</ele>
        <time>2020-06-16T16:20:58Z</time>
      </trkpt>
      <trkpt lat="49.37564" lon="-0.89383">
        <ele>4.1</ele>
        <time>2020-06-16T16:20:59Z</time>
      </trkpt>
      <trkpt lat="49.37562" lon="-0.89376">
        <ele>4.1</ele>
        <time>2020-06-16T16:21:00Z</time>
      </trkpt>
      <trkpt lat="49.37559" lon="-0.89369">
        <ele>4.1</ele>
        <time>2020-06-16T16:21:01Z</time>
      </trkpt>
      <trkpt lat="49.37557" lon="-0.89363">
        <ele>4.2</ele>
        <time>2020-06-16T16:21:02Z</time>
      </trkpt>
      <trkpt lat="49.37555" lon="-0.89356">
        <ele>4.2</ele>
        <time>2020-06-16T16:21:03Z</time>
      </trkpt>
      <trkpt lat="49.37553" lon="-0.89349">
        <ele>4.2</ele>
        <time>2020-06-16T16:21:04Z</time>
      </trkpt>
      <trkpt lat="49.37551" lon="-0.89341">
        <ele>4.2</ele>
        <time>2020-06-16T16:21:05Z</time>
      </trkpt>
      <trkpt lat="49.37549" lon="-0.89334">
        <ele>4.2</ele>
        <time>2020-06-16T16:21:06Z</time>
      </trkpt>
      <trkpt lat="49.37547" lon="-0.89328">
        <ele>4.2</ele>
        <time>2020-06-16T16:21:07Z</time>
      </trkpt>
      <trkpt lat="49.37544" lon="-0.89321">
        <ele>4.2</ele>
        <time>2020-06-16T16:21:08Z</time>
      </trkpt>
      <trkpt lat="49.37542" lon="-0.89314">
        <ele>4.2</ele>
        <time>2020-06-16T16:21:09Z</time>
      </trkpt>
      <trkpt lat="49.37539" lon="-0.89307">
        <ele>4.2</ele>
        <time>2020-06-16T16:21:10Z</time>
      </trkpt>
      <trkpt lat="49.37537" lon="-0.89302">
        <ele>4.3</ele>
        <time>2020-06-16T16:21:11Z</time>
      </trkpt>
      <trkpt lat="49.37535" lon="-0.89296">
        <ele>4.3</ele>
        <time>2020-06-16T16:21:12Z</time>
      </trkpt>
      <trkpt lat="49.37533" lon="-0.89288">
        <ele>4.3</ele>
        <time>2020-06-16T16:21:13Z</time>
      </trkpt>
      <trkpt lat="49.37531" lon="-0.89282">
        <ele>4.2</ele>
        <time>2020-06-16T16:21:14Z</time>
      </trkpt>
      <trkpt lat="49.37529" lon="-0.89275">
        <ele>4.2</ele>
        <time>2020-06-16T16:21:15Z</time>
      </trkpt>
      <trkpt lat="49.37526" lon="-0.89269">
        <ele>4.2</ele>
        <time>2020-06-16T16:21:16Z</time>
      </trkpt>
      <trkpt lat="49.37524" lon="-0.89262">
        <ele>4.2</ele>
        <time>2020-06-16T16:21:17Z</time>
      </trkpt>
      <trkpt lat="49.37521" lon="-0.89255">
        <ele>4.2</ele>
        <time>2020-06-16T16:21:18Z</time>
      </trkpt>
      <trkpt lat="49.37519" lon="-0.89248">
        <ele>4.2</ele>
        <time>2020-06-16T16:21:19Z</time>
      </trkpt>
      <trkpt lat="49.37516" lon="-0.89241">
        <ele>4.2</ele>
        <time>2020-06-16T16:21:20Z</time>
      </trkpt>
      <trkpt lat="49.37514" lon="-0.89234">
        <ele>4.2</ele>
        <time>2020-06-16T16:21:21Z</time>
      </trkpt>
      <trkpt lat="49.37512" lon="-0.89227">
        <ele>4.2</ele>
        <time>2020-06-16T16:21:22Z</time>
      </trkpt>
      <trkpt lat="49.3751" lon="-0.89221">
        <ele>4.2</ele>
        <time>2020-06-16T16:21:23Z</time>
      </trkpt>
      <trkpt lat="49.37507" lon="-0.89214">
        <ele>4.2</ele>
        <time>2020-06-16T16:21:24Z</time>
      </trkpt>
      <trkpt lat="49.37505" lon="-0.89207">
        <ele>4.2</ele>
        <time>2020-06-16T16:21:25Z</time>
      </trkpt>
      <trkpt lat="49.37503" lon="-0.892">
        <ele>4.2</ele>
        <time>2020-06-16T16:21:26Z</time>
      </trkpt>
      <trkpt lat="49.37501" lon="-0.89193">
        <ele>4.2</ele>
        <time>2020-06-16T16:21:27Z</time>
      </trkpt>
      <trkpt lat="49.37499" lon="-0.89186">
        <ele>4.2</ele>
        <time>2020-06-16T16:21:28Z</time>
      </trkpt>
      <trkpt lat="49.37497" lon="-0.89179">
        <ele>4.3</ele>
        <time>2020-06-16T16:21:29Z</time>
      </trkpt>
      <trkpt lat="49.37494" lon="-0.89171">
        <ele>4.3</ele>
        <time>2020-06-16T16:21:30Z</time>
      </trkpt>
      <trkpt lat="49.37492" lon="-0.89165">
        <ele>4.3</ele>
        <time>2020-06-16T16:21:31Z</time>
      </trkpt>
      <trkpt lat="49.3749" lon="-0.89158">
        <ele>4.3</ele>
        <time>2020-06-16T16:21:32Z</time>
      </trkpt>
      <trkpt lat="49.37487" lon="-0.8915">
        <ele>4.3</ele>
        <time>2020-06-16T16:21:33Z</time>
      </trkpt>
      <trkpt lat="49.37485" lon="-0.89143">
        <ele>4.3</ele>
        <time>2020-06-16T16:21:34Z</time>
      </trkpt>
      <trkpt lat="49.37482" lon="-0.89136">
        <ele>4.3</ele>
        <time>2020-06-16T16:21:35Z</time>
      </trkpt>
      <trkpt lat="49.37479" lon="-0.89129">
        <ele>4.3</ele>
        <time>2020-06-16T16:21:36Z</time>
      </trkpt>
      <trkpt lat="49.37477" lon="-0.89122">
        <ele>4.3</ele>
        <time>2020-06-16T16:21:37Z</time>
      </trkpt>
      <trkpt lat="49.37474" lon="-0.89116">
        <ele>4.3</ele>
        <time>2020-06-16T16:21:38Z</time>
      </trkpt>
      <trkpt lat="49.37472" lon="-0.89109">
        <ele>4.3</ele>
        <time>2020-06-16T16:21:39Z</time>
      </trkpt>
      <trkpt lat="49.37469" lon="-0.89103">
        <ele>4.3</ele>
        <time>2020-06-16T16:21:40Z</time>
      </trkpt>
      <trkpt lat="49.37467" lon="-0.89097">
        <ele>4.3</ele>
        <time>2020-06-16T16:21:41Z</time>
      </trkpt>
      <trkpt lat="49.37465" lon="-0.89091">
        <ele>4.4</ele>
        <time>2020-06-16T16:21:42Z</time>
      </trkpt>
      <trkpt lat="49.37463" lon="-0.89084">
        <ele>4.4</ele>
        <time>2020-06-16T16:21:43Z</time>
      </trkpt>
      <trkpt lat="49.37461" lon="-0.89077">
        <ele>4.4</ele>
        <time>2020-06-16T16:21:44Z</time>
      </trkpt>
      <trkpt lat="49.37459" lon="-0.89071">
        <ele>4.4</ele>
        <time>2020-06-16T16:21:45Z</time>
      </trkpt>
      <trkpt lat="49.37458" lon="-0.89064">
        <ele>4.4</ele>
        <time>2020-06-16T16:21:46Z</time>
      </trkpt>
      <trkpt lat="49.37456" lon="-0.89057">
        <ele>4.3</ele>
        <time>2020-06-16T16:21:47Z</time>
      </trkpt>
      <trkpt lat="49.37455" lon="-0.8905">
        <ele>4.3</ele>
        <time>2020-06-16T16:21:48Z</time>
      </trkpt>
      <trkpt lat="49.37453" lon="-0.89043">
        <ele>4.3</ele>
        <time>2020-06-16T16:21:49Z</time>
      </trkpt>
      <trkpt lat="49.37449" lon="-0.89037">
        <ele>4.3</ele>
        <time>2020-06-16T16:21:50Z</time>
      </trkpt>
      <trkpt lat="49.37447" lon="-0.8903">
        <ele>4.3</ele>
        <time>2020-06-16T16:21:51Z</time>
      </trkpt>
      <trkpt lat="49.37444" lon="-0.89024">
        <ele>4.3</ele>
        <time>2020-06-16T16:21:52Z</time>
      </trkpt>
      <trkpt lat="49.37442" lon="-0.89017">
        <ele>4.3</ele>
        <time>2020-06-16T16:21:53Z</time>
      </trkpt>
      <trkpt lat="49.37439" lon="-0.8901">
        <ele>4.3</ele>
        <time>2020-06-16T16:21:54Z</time>
      </trkpt>
      <trkpt lat="49.37437" lon="-0.89003">
        <ele>4.3</ele>
        <time>2020-06-16T16:21:55Z</time>
      </trkpt>
      <trkpt lat="49.37436" lon="-0.88996">
        <ele>4.3</ele>
        <time>2020-06-16T16:21:56Z</time>
      </trkpt>
      <trkpt lat="49.37433" lon="-0.88989">
        <ele>4.3</ele>
        <time>2020-06-16T16:21:57Z</time>
      </trkpt>
      <trkpt lat="49.37431" lon="-0.88983">
        <ele>4.3</ele>
        <time>2020-06-16T16:21:58Z</time>
      </trkpt>
      <trkpt lat="49.37428" lon="-0.88976">
        <ele>4.3</ele>
        <time>2020-06-16T16:21:59Z</time>
      </trkpt>
      <trkpt lat="49.37426" lon="-0.8897">
        <ele>4.3</ele>
        <time>2020-06-16T16:22:00Z</time>
      </trkpt>
      <trkpt lat="49.37424" lon="-0.88964">
        <ele>4.4</ele>
        <time>2020-06-16T16:22:01Z</time>
      </trkpt>
      <trkpt lat="49.37422" lon="-0.88957">
        <ele>4.4</ele>
        <time>2020-06-16T16:22:02Z</time>
      </trkpt>
      <trkpt lat="49.3742" lon="-0.88951">
        <ele>4.4</ele>
        <time>2020-06-16T16:22:03Z</time>
      </trkpt>
      <trkpt lat="49.37418" lon="-0.88945">
        <ele>4.5</ele>
        <time>2020-06-16T16:22:04Z</time>
      </trkpt>
      <trkpt lat="49.37416" lon="-0.88939">
        <ele>4.5</ele>
        <time>2020-06-16T16:22:05Z</time>
      </trkpt>
      <trkpt lat="49.37414" lon="-0.88934">
        <ele>4.5</ele>
        <time>2020-06-16T16:22:06Z</time>
      </trkpt>
      <trkpt lat="49.37412" lon="-0.88927">
        <ele>4.5</ele>
        <time>2020-06-16T16:22:07Z</time>
      </trkpt>
      <trkpt lat="49.3741" lon="-0.88921">
        <ele>4.6</ele>
        <time>2020-06-16T16:22:08Z</time>
      </trkpt>
      <trkpt lat="49.37407" lon="-0.88914">
        <ele>4.5</ele>
        <time>2020-06-16T16:22:09Z</time>
      </trkpt>
      <trkpt lat="49.37405" lon="-0.88908">
        <ele>4.5</ele>
        <time>2020-06-16T16:22:10Z</time>
      </trkpt>
      <trkpt lat="49.37403" lon="-0.88901">
        <ele>4.5</ele>
        <time>2020-06-16T16:22:11Z</time>
      </trkpt>
      <trkpt lat="49.37401" lon="-0.88896">
        <ele>4.5</ele>
        <time>2020-06-16T16:22:12Z</time>
      </trkpt>
      <trkpt lat="49.37398" lon="-0.88889">
        <ele>4.4</ele>
        <time>2020-06-16T16:22:13Z</time>
      </trkpt>
      <trkpt lat="49.37396" lon="-0.88884">
        <ele>4.4</ele>
        <time>2020-06-16T16:22:14Z</time>
      </trkpt>
      <trkpt lat="49.37394" lon="-0.88877">
        <ele>4.4</ele>
        <time>2020-06-16T16:22:15Z</time>
      </trkpt>
      <trkpt lat="49.37391" lon="-0.8887">
        <ele>4.4</ele>
        <time>2020-06-16T16:22:16Z</time>
      </trkpt>
      <trkpt lat="49.37388" lon="-0.88864">
        <ele>4.5</ele>
        <time>2020-06-16T16:22:17Z</time>
      </trkpt>
      <trkpt lat="49.37387" lon="-0.88857">
        <ele>4.5</ele>
        <time>2020-06-16T16:22:18Z</time>
      </trkpt>
      <trkpt lat="49.37385" lon="-0.88851">
        <ele>4.5</ele>
        <time>2020-06-16T16:22:19Z</time>
      </trkpt>
      <trkpt lat="49.37383" lon="-0.88844">
        <ele>4.5</ele>
        <time>2020-06-16T16:22:20Z</time>
      </trkpt>
      <trkpt lat="49.37381" lon="-0.88839">
        <ele>4.5</ele>
        <time>2020-06-16T16:22:21Z</time>
      </trkpt>
      <trkpt lat="49.37379" lon="-0.88832">
        <ele>4.5</ele>
        <time>2020-06-16T16:22:22Z</time>
      </trkpt>
      <trkpt lat="49.37376" lon="-0.88826">
        <ele>4.5</ele>
        <time>2020-06-16T16:22:23Z</time>
      </trkpt>
      <trkpt lat="49.37374" lon="-0.8882">
        <ele>4.6</ele>
        <time>2020-06-16T16:22:24Z</time>
      </trkpt>
      <trkpt lat="49.37372" lon="-0.88813">
        <ele>4.6</ele>
        <time>2020-06-16T16:22:25Z</time>
      </trkpt>
      <trkpt lat="49.3737" lon="-0.88806">
        <ele>4.6</ele>
        <time>2020-06-16T16:22:26Z</time>
      </trkpt>
      <trkpt lat="49.37368" lon="-0.888">
        <ele>4.5</ele>
        <time>2020-06-16T16:22:27Z</time>
      </trkpt>
      <trkpt lat="49.37366" lon="-0.88795">
        <ele>4.5</ele>
        <time>2020-06-16T16:22:28Z</time>
      </trkpt>
      <trkpt lat="49.37364" lon="-0.88789">
        <ele>4.5</ele>
        <time>2020-06-16T16:22:29Z</time>
      </trkpt>
      <trkpt lat="49.37362" lon="-0.88783">
        <ele>4.5</ele>
        <time>2020-06-16T16:22:30Z</time>
      </trkpt>
      <trkpt lat="49.37359" lon="-0.88777">
        <ele>4.5</ele>
        <time>2020-06-16T16:22:31Z</time>
      </trkpt>
      <trkpt lat="49.37357" lon="-0.8877">
        <ele>4.5</ele>
        <time>2020-06-16T16:22:32Z</time>
      </trkpt>
      <trkpt lat="49.37354" lon="-0.88764">
        <ele>4.5</ele>
        <time>2020-06-16T16:22:33Z</time>
      </trkpt>
      <trkpt lat="49.37352" lon="-0.88757">
        <ele>4.6</ele>
        <time>2020-06-16T16:22:34Z</time>
      </trkpt>
      <trkpt lat="49.37349" lon="-0.8875">
        <ele>4.6</ele>
        <time>2020-06-16T16:22:35Z</time>
      </trkpt>
      <trkpt lat="49.37347" lon="-0.88743">
        <ele>4.6</ele>
        <time>2020-06-16T16:22:36Z</time>
      </trkpt>
      <trkpt lat="49.37345" lon="-0.88736">
        <ele>4.5</ele>
        <time>2020-06-16T16:22:37Z</time>
      </trkpt>
      <trkpt lat="49.37343" lon="-0.88728">
        <ele>4.5</ele>
        <time>2020-06-16T16:22:38Z</time>
      </trkpt>
      <trkpt lat="49.3734" lon="-0.88721">
        <ele>4.5</ele>
        <time>2020-06-16T16:22:39Z</time>
      </trkpt>
      <trkpt lat="49.37338" lon="-0.88714">
        <ele>4.5</ele>
        <time>2020-06-16T16:22:40Z</time>
      </trkpt>
      <trkpt lat="49.37335" lon="-0.88707">
        <ele>4.5</ele>
        <time>2020-06-16T16:22:41Z</time>
      </trkpt>
      <trkpt lat="49.37331" lon="-0.88701">
        <ele>4.5</ele>
        <time>2020-06-16T16:22:42Z</time>
      </trkpt>
      <trkpt lat="49.37328" lon="-0.88694">
        <ele>4.5</ele>
        <time>2020-06-16T16:22:43Z</time>
      </trkpt>
      <trkpt lat="49.37326" lon="-0.88688">
        <ele>4.5</ele>
        <time>2020-06-16T16:22:44Z</time>
      </trkpt>
      <trkpt lat="49.37324" lon="-0.88681">
        <ele>4.5</ele>
        <time>2020-06-16T16:22:45Z</time>
      </trkpt>
      <trkpt lat="49.37321" lon="-0.88673">
        <ele>4.5</ele>
        <time>2020-06-16T16:22:46Z</time>
      </trkpt>
      <trkpt lat="49.37318" lon="-0.88665">
        <ele>4.5</ele>
        <time>2020-06-16T16:22:47Z</time>
      </trkpt>
      <trkpt lat="49.37316" lon="-0.88657">
        <ele>4.5</ele>
        <time>2020-06-16T16:22:48Z</time>
      </trkpt>
      <trkpt lat="49.37313" lon="-0.8865">
        <ele>4.5</ele>
        <time>2020-06-16T16:22:49Z</time>
      </trkpt>
      <trkpt lat="49.37311" lon="-0.88643">
        <ele>4.5</ele>
        <time>2020-06-16T16:22:50Z</time>
      </trkpt>
      <trkpt lat="49.37309" lon="-0.88638">
        <ele>4.5</ele>
        <time>2020-06-16T16:22:51Z</time>
      </trkpt>
      <trkpt lat="49.37307" lon="-0.88632">
        <ele>4.5</ele>
        <time>2020-06-16T16:22:52Z</time>
      </trkpt>
      <trkpt lat="49.37304" lon="-0.88626">
        <ele>4.5</ele>
        <time>2020-06-16T16:22:53Z</time>
      </trkpt>
      <trkpt lat="49.37302" lon="-0.8862">
        <ele>4.5</ele>
        <time>2020-06-16T16:22:54Z</time>
      </trkpt>
      <trkpt lat="49.37299" lon="-0.88614">
        <ele>4.5</ele>
        <time>2020-06-16T16:22:55Z</time>
      </trkpt>
      <trkpt lat="49.37297" lon="-0.88609">
        <ele>4.5</ele>
        <time>2020-06-16T16:22:56Z</time>
      </trkpt>
      <trkpt lat="49.37294" lon="-0.88604">
        <ele>4.5</ele>
        <time>2020-06-16T16:22:57Z</time>
      </trkpt>
      <trkpt lat="49.37292" lon="-0.88597">
        <ele>4.5</ele>
        <time>2020-06-16T16:22:58Z</time>
      </trkpt>
      <trkpt lat="49.3729" lon="-0.8859">
        <ele>4.5</ele>
        <time>2020-06-16T16:22:59Z</time>
      </trkpt>
      <trkpt lat="49.37288" lon="-0.88584">
        <ele>4.5</ele>
        <time>2020-06-16T16:23:00Z</time>
      </trkpt>
      <trkpt lat="49.37286" lon="-0.88578">
        <ele>4.5</ele>
        <time>2020-06-16T16:23:01Z</time>
      </trkpt>
      <trkpt lat="49.37283" lon="-0.88572">
        <ele>4.5</ele>
        <time>2020-06-16T16:23:02Z</time>
      </trkpt>
      <trkpt lat="49.37281" lon="-0.88566">
        <ele>4.5</ele>
        <time>2020-06-16T16:23:03Z</time>
      </trkpt>
      <trkpt lat="49.37279" lon="-0.88561">
        <ele>4.5</ele>
        <time>2020-06-16T16:23:04Z</time>
      </trkpt>
      <trkpt lat="49.37276" lon="-0.88555">
        <ele>4.5</ele>
        <time>2020-06-16T16:23:05Z</time>
      </trkpt>
      <trkpt lat="49.37274" lon="-0.88549">
        <ele>4.5</ele>
        <time>2020-06-16T16:23:06Z</time>
      </trkpt>
      <trkpt lat="49.37272" lon="-0.88542">
        <ele>4.5</ele>
        <time>2020-06-16T16:23:07Z</time>
      </trkpt>
      <trkpt lat="49.37269" lon="-0.88536">
        <ele>4.5</ele>
        <time>2020-06-16T16:23:08Z</time>
      </trkpt>
      <trkpt lat="49.37267" lon="-0.88528">
        <ele>4.5</ele>
        <time>2020-06-16T16:23:09Z</time>
      </trkpt>
      <trkpt lat="49.37264" lon="-0.88521">
        <ele>4.5</ele>
        <time>2020-06-16T16:23:10Z</time>
      </trkpt>
      <trkpt lat="49.37262" lon="-0.88513">
        <ele>4.5</ele>
        <time>2020-06-16T16:23:11Z</time>
      </trkpt>
      <trkpt lat="49.37259" lon="-0.88506">
        <ele>4.5</ele>
        <time>2020-06-16T16:23:12Z</time>
      </trkpt>
      <trkpt lat="49.37257" lon="-0.88499">
        <ele>4.5</ele>
        <time>2020-06-16T16:23:13Z</time>
      </trkpt>
      <trkpt lat="49.37254" lon="-0.88492">
        <ele>4.5</ele>
        <time>2020-06-16T16:23:14Z</time>
      </trkpt>
      <trkpt lat="49.37252" lon="-0.88486">
        <ele>4.5</ele>
        <time>2020-06-16T16:23:15Z</time>
      </trkpt>
      <trkpt lat="49.37249" lon="-0.88479">
        <ele>4.5</ele>
        <time>2020-06-16T16:23:16Z</time>
      </trkpt>
      <trkpt lat="49.37247" lon="-0.88472">
        <ele>4.5</ele>
        <time>2020-06-16T16:23:17Z</time>
      </trkpt>
      <trkpt lat="49.37246" lon="-0.88466">
        <ele>4.5</ele>
        <time>2020-06-16T16:23:18Z</time>
      </trkpt>
      <trkpt lat="49.37243" lon="-0.88461">
        <ele>4.5</ele>
        <time>2020-06-16T16:23:19Z</time>
      </trkpt>
      <trkpt lat="49.37241" lon="-0.88454">
        <ele>4.5</ele>
        <time>2020-06-16T16:23:20Z</time>
      </trkpt>
      <trkpt lat="49.37239" lon="-0.88449">
        <ele>4.6</ele>
        <time>2020-06-16T16:23:21Z</time>
      </trkpt>
      <trkpt lat="49.37236" lon="-0.88442">
        <ele>4.6</ele>
        <time>2020-06-16T16:23:22Z</time>
      </trkpt>
      <trkpt lat="49.37234" lon="-0.88436">
        <ele>4.6</ele>
        <time>2020-06-16T16:23:23Z</time>
      </trkpt>
      <trkpt lat="49.37232" lon="-0.88428">
        <ele>4.6</ele>
        <time>2020-06-16T16:23:24Z</time>
      </trkpt>
      <trkpt lat="49.3723" lon="-0.88421">
        <ele>4.6</ele>
        <time>2020-06-16T16:23:25Z</time>
      </trkpt>
      <trkpt lat="49.37228" lon="-0.88415">
        <ele>4.6</ele>
        <time>2020-06-16T16:23:26Z</time>
      </trkpt>
      <trkpt lat="49.37226" lon="-0.88408">
        <ele>4.6</ele>
        <time>2020-06-16T16:23:27Z</time>
      </trkpt>
      <trkpt lat="49.37223" lon="-0.88402">
        <ele>4.6</ele>
        <time>2020-06-16T16:23:28Z</time>
      </trkpt>
      <trkpt lat="49.37221" lon="-0.88395">
        <ele>4.6</ele>
        <time>2020-06-16T16:23:29Z</time>
      </trkpt>
      <trkpt lat="49.37219" lon="-0.8839">
        <ele>4.6</ele>
        <time>2020-06-16T16:23:30Z</time>
      </trkpt>
      <trkpt lat="49.37216" lon="-0.88384">
        <ele>4.6</ele>
        <time>2020-06-16T16:23:31Z</time>
      </trkpt>
      <trkpt lat="49.37214" lon="-0.88378">
        <ele>4.6</ele>
        <time>2020-06-16T16:23:32Z</time>
      </trkpt>
      <trkpt lat="49.37211" lon="-0.88371">
        <ele>4.6</ele>
        <time>2020-06-16T16:23:33Z</time>
      </trkpt>
      <trkpt lat="49.37209" lon="-0.88364">
        <ele>4.6</ele>
        <time>2020-06-16T16:23:34Z</time>
      </trkpt>
      <trkpt lat="49.37207" lon="-0.88358">
        <ele>4.6</ele>
        <time>2020-06-16T16:23:35Z</time>
      </trkpt>
      <trkpt lat="49.37205" lon="-0.88351">
        <ele>4.6</ele>
        <time>2020-06-16T16:23:36Z</time>
      </trkpt>
      <trkpt lat="49.37203" lon="-0.88344">
        <ele>4.6</ele>
        <time>2020-06-16T16:23:37Z</time>
      </trkpt>
      <trkpt lat="49.37201" lon="-0.88337">
        <ele>4.6</ele>
        <time>2020-06-16T16:23:38Z</time>
      </trkpt>
      <trkpt lat="49.37198" lon="-0.8833">
        <ele>4.5</ele>
        <time>2020-06-16T16:23:39Z</time>
      </trkpt>
      <trkpt lat="49.37196" lon="-0.88323">
        <ele>4.5</ele>
        <time>2020-06-16T16:23:40Z</time>
      </trkpt>
      <trkpt lat="49.37194" lon="-0.88317">
        <ele>4.5</ele>
        <time>2020-06-16T16:23:41Z</time>
      </trkpt>
      <trkpt lat="49.37193" lon="-0.88311">
        <ele>4.5</ele>
        <time>2020-06-16T16:23:42Z</time>
      </trkpt>
      <trkpt lat="49.3719" lon="-0.88305">
        <ele>4.5</ele>
        <time>2020-06-16T16:23:43Z</time>
      </trkpt>
      <trkpt lat="49.37188" lon="-0.88299">
        <ele>4.5</ele>
        <time>2020-06-16T16:23:44Z</time>
      </trkpt>
      <trkpt lat="49.37185" lon="-0.88293">
        <ele>4.5</ele>
        <time>2020-06-16T16:23:45Z</time>
      </trkpt>
      <trkpt lat="49.37182" lon="-0.88287">
        <ele>4.5</ele>
        <time>2020-06-16T16:23:46Z</time>
      </trkpt>
      <trkpt lat="49.37179" lon="-0.8828">
        <ele>4.5</ele>
        <time>2020-06-16T16:23:47Z</time>
      </trkpt>
      <trkpt lat="49.37177" lon="-0.88272">
        <ele>4.5</ele>
        <time>2020-06-16T16:23:48Z</time>
      </trkpt>
      <trkpt lat="49.37175" lon="-0.88265">
        <ele>4.5</ele>
        <time>2020-06-16T16:23:49Z</time>
      </trkpt>
      <trkpt lat="49.37173" lon="-0.88257">
        <ele>4.5</ele>
        <time>2020-06-16T16:23:50Z</time>
      </trkpt>
      <trkpt lat="49.3717" lon="-0.88251">
        <ele>4.5</ele>
        <time>2020-06-16T16:23:51Z</time>
      </trkpt>
      <trkpt lat="49.37168" lon="-0.88244">
        <ele>4.5</ele>
        <time>2020-06-16T16:23:52Z</time>
      </trkpt>
      <trkpt lat="49.37166" lon="-0.88238">
        <ele>4.5</ele>
        <time>2020-06-16T16:23:53Z</time>
      </trkpt>
      <trkpt lat="49.37163" lon="-0.88232">
        <ele>4.5</ele>
        <time>2020-06-16T16:23:54Z</time>
      </trkpt>
      <trkpt lat="49.37162" lon="-0.88225">
        <ele>4.5</ele>
        <time>2020-06-16T16:23:55Z</time>
      </trkpt>
      <trkpt lat="49.37159" lon="-0.88218">
        <ele>4.6</ele>
        <time>2020-06-16T16:23:56Z</time>
      </trkpt>
      <trkpt lat="49.37157" lon="-0.88211">
        <ele>4.6</ele>
        <time>2020-06-16T16:23:57Z</time>
      </trkpt>
      <trkpt lat="49.37155" lon="-0.88204">
        <ele>4.6</ele>
        <time>2020-06-16T16:23:58Z</time>
      </trkpt>
      <trkpt lat="49.37153" lon="-0.88198">
        <ele>4.6</ele>
        <time>2020-06-16T16:23:59Z</time>
      </trkpt>
      <trkpt lat="49.37151" lon="-0.88191">
        <ele>4.6</ele>
        <time>2020-06-16T16:24:00Z</time>
      </trkpt>
      <trkpt lat="49.37149" lon="-0.88184">
        <ele>4.6</ele>
        <time>2020-06-16T16:24:01Z</time>
      </trkpt>
      <trkpt lat="49.37146" lon="-0.88177">
        <ele>4.6</ele>
        <time>2020-06-16T16:24:02Z</time>
      </trkpt>
      <trkpt lat="49.37144" lon="-0.88172">
        <ele>4.6</ele>
        <time>2020-06-16T16:24:03Z</time>
      </trkpt>
      <trkpt lat="49.37141" lon="-0.88166">
        <ele>4.6</ele>
        <time>2020-06-16T16:24:04Z</time>
      </trkpt>
      <trkpt lat="49.37139" lon="-0.8816">
        <ele>4.6</ele>
        <time>2020-06-16T16:24:05Z</time>
      </trkpt>
      <trkpt lat="49.37137" lon="-0.88154">
        <ele>4.5</ele>
        <time>2020-06-16T16:24:06Z</time>
      </trkpt>
      <trkpt lat="49.37135" lon="-0.88148">
        <ele>4.5</ele>
        <time>2020-06-16T16:24:07Z</time>
      </trkpt>
      <trkpt lat="49.37132" lon="-0.88142">
        <ele>4.5</ele>
        <time>2020-06-16T16:24:08Z</time>
      </trkpt>
      <trkpt lat="49.3713" lon="-0.88137">
        <ele>4.5</ele>
        <time>2020-06-16T16:24:09Z</time>
      </trkpt>
      <trkpt lat="49.37127" lon="-0.8813">
        <ele>4.5</ele>
        <time>2020-06-16T16:24:10Z</time>
      </trkpt>
      <trkpt lat="49.37125" lon="-0.88124">
        <ele>4.5</ele>
        <time>2020-06-16T16:24:11Z</time>
      </trkpt>
      <trkpt lat="49.37122" lon="-0.88118">
        <ele>4.5</ele>
        <time>2020-06-16T16:24:12Z</time>
      </trkpt>
      <trkpt lat="49.3712" lon="-0.88112">
        <ele>4.5</ele>
        <time>2020-06-16T16:24:13Z</time>
      </trkpt>
      <trkpt lat="49.37118" lon="-0.88104">
        <ele>4.5</ele>
        <time>2020-06-16T16:24:14Z</time>
      </trkpt>
      <trkpt lat="49.37116" lon="-0.88096">
        <ele>4.5</ele>
        <time>2020-06-16T16:24:15Z</time>
      </trkpt>
      <trkpt lat="49.37114" lon="-0.88089">
        <ele>4.5</ele>
        <time>2020-06-16T16:24:16Z</time>
      </trkpt>
      <trkpt lat="49.37111" lon="-0.88083">
        <ele>4.5</ele>
        <time>2020-06-16T16:24:17Z</time>
      </trkpt>
      <trkpt lat="49.37109" lon="-0.88077">
        <ele>4.5</ele>
        <time>2020-06-16T16:24:18Z</time>
      </trkpt>
      <trkpt lat="49.37106" lon="-0.88071">
        <ele>4.5</ele>
        <time>2020-06-16T16:24:19Z</time>
      </trkpt>
      <trkpt lat="49.37103" lon="-0.88066">
        <ele>4.5</ele>
        <time>2020-06-16T16:24:20Z</time>
      </trkpt>
      <trkpt lat="49.371" lon="-0.8806">
        <ele>4.5</ele>
        <time>2020-06-16T16:24:21Z</time>
      </trkpt>
      <trkpt lat="49.37098" lon="-0.88054">
        <ele>4.6</ele>
        <time>2020-06-16T16:24:22Z</time>
      </trkpt>
      <trkpt lat="49.37095" lon="-0.88049">
        <ele>4.6</ele>
        <time>2020-06-16T16:24:23Z</time>
      </trkpt>
      <trkpt lat="49.37092" lon="-0.88043">
        <ele>4.6</ele>
        <time>2020-06-16T16:24:24Z</time>
      </trkpt>
      <trkpt lat="49.37089" lon="-0.88038">
        <ele>4.6</ele>
        <time>2020-06-16T16:24:25Z</time>
      </trkpt>
      <trkpt lat="49.37086" lon="-0.88034">
        <ele>4.6</ele>
        <time>2020-06-16T16:24:26Z</time>
      </trkpt>
      <trkpt lat="49.37082" lon="-0.8803">
        <ele>4.7</ele>
        <time>2020-06-16T16:24:27Z</time>
      </trkpt>
      <trkpt lat="49.37078" lon="-0.88027">
        <ele>4.7</ele>
        <time>2020-06-16T16:24:28Z</time>
      </trkpt>
      <trkpt lat="49.37073" lon="-0.88023">
        <ele>4.7</ele>
        <time>2020-06-16T16:24:29Z</time>
      </trkpt>
      <trkpt lat="49.37069" lon="-0.8802">
        <ele>4.7</ele>
        <time>2020-06-16T16:24:30Z</time>
      </trkpt>
      <trkpt lat="49.37065" lon="-0.88018">
        <ele>4.8</ele>
        <time>2020-06-16T16:24:31Z</time>
      </trkpt>
      <trkpt lat="49.37061" lon="-0.88017">
        <ele>4.8</ele>
        <time>2020-06-16T16:24:32Z</time>
      </trkpt>
      <trkpt lat="49.37057" lon="-0.88018">
        <ele>4.8</ele>
        <time>2020-06-16T16:24:33Z</time>
      </trkpt>
      <trkpt lat="49.37054" lon="-0.88018">
        <ele>4.8</ele>
        <time>2020-06-16T16:24:34Z</time>
      </trkpt>
      <trkpt lat="49.37051" lon="-0.88019">
        <ele>4.8</ele>
        <time>2020-06-16T16:24:35Z</time>
      </trkpt>
      <trkpt lat="49.37046" lon="-0.88019">
        <ele>4.8</ele>
        <time>2020-06-16T16:24:36Z</time>
      </trkpt>
      <trkpt lat="49.37042" lon="-0.88018">
        <ele>4.9</ele>
        <time>2020-06-16T16:24:37Z</time>
      </trkpt>
      <trkpt lat="49.37038" lon="-0.88018">
        <ele>4.9</ele>
        <time>2020-06-16T16:24:38Z</time>
      </trkpt>
      <trkpt lat="49.37035" lon="-0.88018">
        <ele>5</ele>
        <time>2020-06-16T16:24:39Z</time>
      </trkpt>
      <trkpt lat="49.37031" lon="-0.88018">
        <ele>5</ele>
        <time>2020-06-16T16:24:40Z</time>
      </trkpt>
      <trkpt lat="49.37028" lon="-0.88018">
        <ele>5.1</ele>
        <time>2020-06-16T16:24:41Z</time>
      </trkpt>
      <trkpt lat="49.37025" lon="-0.88019">
        <ele>5.2</ele>
        <time>2020-06-16T16:24:42Z</time>
      </trkpt>
      <trkpt lat="49.37022" lon="-0.8802">
        <ele>5.2</ele>
        <time>2020-06-16T16:24:43Z</time>
      </trkpt>
      <trkpt lat="49.37019" lon="-0.88022">
        <ele>5.3</ele>
        <time>2020-06-16T16:24:44Z</time>
      </trkpt>
      <trkpt lat="49.37016" lon="-0.88023">
        <ele>5.4</ele>
        <time>2020-06-16T16:24:45Z</time>
      </trkpt>
      <trkpt lat="49.37013" lon="-0.88025">
        <ele>5.4</ele>
        <time>2020-06-16T16:24:46Z</time>
      </trkpt>
      <trkpt lat="49.37009" lon="-0.88026">
        <ele>5.5</ele>
        <time>2020-06-16T16:24:47Z</time>
      </trkpt>
      <trkpt lat="49.37006" lon="-0.88027">
        <ele>5.6</ele>
        <time>2020-06-16T16:24:48Z</time>
      </trkpt>
      <trkpt lat="49.37004" lon="-0.88027">
        <ele>5.7</ele>
        <time>2020-06-16T16:24:49Z</time>
      </trkpt>
      <trkpt lat="49.37001" lon="-0.88027">
        <ele>5.9</ele>
        <time>2020-06-16T16:24:50Z</time>
      </trkpt>
      <trkpt lat="49.36997" lon="-0.88027">
        <ele>6</ele>
        <time>2020-06-16T16:24:51Z</time>
      </trkpt>
      <trkpt lat="49.36995" lon="-0.88027">
        <ele>6</ele>
        <time>2020-06-16T16:24:52Z</time>
      </trkpt>
      <trkpt lat="49.36991" lon="-0.88028">
        <ele>6.1</ele>
        <time>2020-06-16T16:24:53Z</time>
      </trkpt>
      <trkpt lat="49.3699" lon="-0.88029">
        <ele>6.1</ele>
        <time>2020-06-16T16:24:54Z</time>
      </trkpt>
      <trkpt lat="49.36989" lon="-0.8803">
        <ele>6.1</ele>
        <time>2020-06-16T16:24:55Z</time>
      </trkpt>
      <trkpt lat="49.36989" lon="-0.88031">
        <ele>6.1</ele>
        <time>2020-06-16T16:24:56Z</time>
      </trkpt>
      <trkpt lat="49.36988" lon="-0.88031">
        <ele>6.1</ele>
        <time>2020-06-16T16:24:57Z</time>
      </trkpt>
      <trkpt lat="49.36988" lon="-0.88031">
        <ele>6.1</ele>
        <time>2020-06-16T16:24:58Z</time>
      </trkpt>
      <trkpt lat="49.36989" lon="-0.8803">
        <ele>6.1</ele>
        <time>2020-06-16T16:24:59Z</time>
      </trkpt>
      <trkpt lat="49.36988" lon="-0.88028">
        <ele>6.1</ele>
        <time>2020-06-16T16:25:00Z</time>
      </trkpt>
      <trkpt lat="49.36989" lon="-0.88027">
        <ele>6.1</ele>
        <time>2020-06-16T16:25:01Z</time>
      </trkpt>
      <trkpt lat="49.36992" lon="-0.88025">
        <ele>6</ele>
        <time>2020-06-16T16:25:02Z</time>
      </trkpt>
      <trkpt lat="49.36993" lon="-0.88025">
        <ele>6</ele>
        <time>2020-06-16T16:25:03Z</time>
      </trkpt>
      <trkpt lat="49.36996" lon="-0.88026">
        <ele>6</ele>
        <time>2020-06-16T16:25:04Z</time>
      </trkpt>
      <trkpt lat="49.37" lon="-0.88028">
        <ele>5.7</ele>
        <time>2020-06-16T16:25:05Z</time>
      </trkpt>
      <trkpt lat="49.37001" lon="-0.88028">
        <ele>5.7</ele>
        <time>2020-06-16T16:25:06Z</time>
      </trkpt>
      <trkpt lat="49.37005" lon="-0.88032">
        <ele>5.8</ele>
        <time>2020-06-16T16:25:07Z</time>
      </trkpt>
      <trkpt lat="49.37006" lon="-0.88033">
        <ele>5.8</ele>
        <time>2020-06-16T16:25:08Z</time>
      </trkpt>
      <trkpt lat="49.37008" lon="-0.88039">
        <ele>5.9</ele>
        <time>2020-06-16T16:25:09Z</time>
      </trkpt>
      <trkpt lat="49.37008" lon="-0.88041">
        <ele>6</ele>
        <time>2020-06-16T16:25:10Z</time>
      </trkpt>
      <trkpt lat="49.37009" lon="-0.88046">
        <ele>6</ele>
        <time>2020-06-16T16:25:11Z</time>
      </trkpt>
      <trkpt lat="49.37009" lon="-0.88048">
        <ele>6.1</ele>
        <time>2020-06-16T16:25:12Z</time>
      </trkpt>
      <trkpt lat="49.37009" lon="-0.88053">
        <ele>6.1</ele>
        <time>2020-06-16T16:25:13Z</time>
      </trkpt>
      <trkpt lat="49.37009" lon="-0.88057">
        <ele>6.2</ele>
        <time>2020-06-16T16:25:14Z</time>
      </trkpt>
      <trkpt lat="49.3701" lon="-0.88062">
        <ele>6.3</ele>
        <time>2020-06-16T16:25:15Z</time>
      </trkpt>
      <trkpt lat="49.3701" lon="-0.88064">
        <ele>6.3</ele>
        <time>2020-06-16T16:25:16Z</time>
      </trkpt>
      <trkpt lat="49.37011" lon="-0.88068">
        <ele>6.4</ele>
        <time>2020-06-16T16:25:17Z</time>
      </trkpt>
      <trkpt lat="49.37011" lon="-0.88069">
        <ele>6.5</ele>
        <time>2020-06-16T16:25:18Z</time>
      </trkpt>
      <trkpt lat="49.37012" lon="-0.8807">
        <ele>6.5</ele>
        <time>2020-06-16T16:25:19Z</time>
      </trkpt>
      <trkpt lat="49.37014" lon="-0.8807">
        <ele>6.6</ele>
        <time>2020-06-16T16:25:20Z</time>
      </trkpt>
      <trkpt lat="49.37017" lon="-0.88073">
        <ele>6.7</ele>
        <time>2020-06-16T16:25:21Z</time>
      </trkpt>
      <trkpt lat="49.37018" lon="-0.88075">
        <ele>6.7</ele>
        <time>2020-06-16T16:25:22Z</time>
      </trkpt>
      <trkpt lat="49.37019" lon="-0.88079">
        <ele>6.8</ele>
        <time>2020-06-16T16:25:23Z</time>
      </trkpt>
      <trkpt lat="49.3702" lon="-0.8808">
        <ele>6.9</ele>
        <time>2020-06-16T16:25:24Z</time>
      </trkpt>
      <trkpt lat="49.3702" lon="-0.88081">
        <ele>6.9</ele>
        <time>2020-06-16T16:25:25Z</time>
      </trkpt>
      <trkpt lat="49.3702" lon="-0.88081">
        <ele>6.9</ele>
        <time>2020-06-16T16:25:26Z</time>
      </trkpt>
      <trkpt lat="49.3702" lon="-0.88083">
        <ele>6.9</ele>
        <time>2020-06-16T16:25:27Z</time>
      </trkpt>
      <trkpt lat="49.3702" lon="-0.88084">
        <ele>6.9</ele>
        <time>2020-06-16T16:25:28Z</time>
      </trkpt>
      <trkpt lat="49.37021" lon="-0.88086">
        <ele>6.9</ele>
        <time>2020-06-16T16:25:29Z</time>
      </trkpt>
      <trkpt lat="49.37022" lon="-0.88087">
        <ele>6.9</ele>
        <time>2020-06-16T16:25:30Z</time>
      </trkpt>
      <trkpt lat="49.37022" lon="-0.88088">
        <ele>6.9</ele>
        <time>2020-06-16T16:25:31Z</time>
      </trkpt>
      <trkpt lat="49.37023" lon="-0.88089">
        <ele>6.9</ele>
        <time>2020-06-16T16:25:32Z</time>
      </trkpt>
      <trkpt lat="49.37023" lon="-0.88088">
        <ele>6.9</ele>
        <time>2020-06-16T16:25:33Z</time>
      </trkpt>
      <trkpt lat="49.37023" lon="-0.88088">
        <ele>6.9</ele>
        <time>2020-06-16T16:25:34Z</time>
      </trkpt>
      <trkpt lat="49.37023" lon="-0.88088">
        <ele>6.9</ele>
        <time>2020-06-16T16:25:35Z</time>
      </trkpt>
      <trkpt lat="49.37023" lon="-0.88087">
        <ele>6.9</ele>
        <time>2020-06-16T16:25:36Z</time>
      </trkpt>
      <trkpt lat="49.37023" lon="-0.88087">
        <ele>6.9</ele>
        <time>2020-06-16T16:25:37Z</time>
      </trkpt>
      <trkpt lat="49.37023" lon="-0.88087">
        <ele>6.9</ele>
        <time>2020-06-16T16:25:38Z</time>
      </trkpt>
      <trkpt lat="49.37024" lon="-0.88086">
        <ele>6.9</ele>
        <time>2020-06-16T16:25:39Z</time>
      </trkpt>
      <trkpt lat="49.37024" lon="-0.88086">
        <ele>6.9</ele>
        <time>2020-06-16T16:25:40Z</time>
      </trkpt>
      <trkpt lat="49.37024" lon="-0.88086">
        <ele>6.9</ele>
        <time>2020-06-16T16:25:41Z</time>
      </trkpt>
      <trkpt lat="49.37024" lon="-0.88085">
        <ele>6.9</ele>
        <time>2020-06-16T16:25:42Z</time>
      </trkpt>
      <trkpt lat="49.37024" lon="-0.88085">
        <ele>6.9</ele>
        <time>2020-06-16T16:25:43Z</time>
      </trkpt>
      <trkpt lat="49.37024" lon="-0.88085">
        <ele>6.9</ele>
        <time>2020-06-16T16:25:44Z</time>
      </trkpt>
      <trkpt lat="49.37024" lon="-0.88084">
        <ele>6.9</ele>
        <time>2020-06-16T16:25:45Z</time>
      </trkpt>
      <trkpt lat="49.37024" lon="-0.88084">
        <ele>6.9</ele>
        <time>2020-06-16T16:25:46Z</time>
      </trkpt>
      <trkpt lat="49.37024" lon="-0.88084">
        <ele>6.9</ele>
        <time>2020-06-16T16:25:47Z</time>
      </trkpt>
      <trkpt lat="49.37024" lon="-0.88083">
        <ele>6.9</ele>
        <time>2020-06-16T16:25:48Z</time>
      </trkpt>
      <trkpt lat="49.37024" lon="-0.88083">
        <ele>6.9</ele>
        <time>2020-06-16T16:25:49Z</time>
      </trkpt>
      <trkpt lat="49.37024" lon="-0.88082">
        <ele>6.9</ele>
        <time>2020-06-16T16:25:50Z</time>
      </trkpt>
      <trkpt lat="49.37024" lon="-0.88082">
        <ele>6.9</ele>
        <time>2020-06-16T16:25:51Z</time>
      </trkpt>
      <trkpt lat="49.37024" lon="-0.88082">
        <ele>6.9</ele>
        <time>2020-06-16T16:25:52Z</time>
      </trkpt>
      <trkpt lat="49.37024" lon="-0.88081">
        <ele>6.9</ele>
        <time>2020-06-16T16:25:53Z</time>
      </trkpt>
      <trkpt lat="49.37024" lon="-0.88081">
        <ele>6.9</ele>
        <time>2020-06-16T16:25:54Z</time>
      </trkpt>
      <trkpt lat="49.37024" lon="-0.88081">
        <ele>6.9</ele>
        <time>2020-06-16T16:25:55Z</time>
      </trkpt>
      <trkpt lat="49.37024" lon="-0.8808">
        <ele>6.9</ele>
        <time>2020-06-16T16:25:56Z</time>
      </trkpt>
      <trkpt lat="49.37024" lon="-0.8808">
        <ele>6.9</ele>
        <time>2020-06-16T16:25:57Z</time>
      </trkpt>
      <trkpt lat="49.37025" lon="-0.8808">
        <ele>6.9</ele>
        <time>2020-06-16T16:25:58Z</time>
      </trkpt>
      <trkpt lat="49.37025" lon="-0.88079">
        <ele>6.9</ele>
        <time>2020-06-16T16:25:59Z</time>
      </trkpt>
      <trkpt lat="49.37025" lon="-0.88079">
        <ele>6.9</ele>
        <time>2020-06-16T16:26:04Z</time>
      </trkpt>
      <trkpt lat="49.37025" lon="-0.88079">
        <ele>6.9</ele>
        <time>2020-06-16T16:26:05Z</time>
      </trkpt>
      <trkpt lat="49.37025" lon="-0.88078">
        <ele>6.9</ele>
        <time>2020-06-16T16:26:06Z</time>
      </trkpt>
      <trkpt lat="49.37025" lon="-0.88077">
        <ele>6.9</ele>
        <time>2020-06-16T16:26:07Z</time>
      </trkpt>
      <trkpt lat="49.37025" lon="-0.88078">
        <ele>6.9</ele>
        <time>2020-06-16T16:26:08Z</time>
      </trkpt>
      <trkpt lat="49.37025" lon="-0.88079">
        <ele>6.9</ele>
        <time>2020-06-16T16:26:09Z</time>
      </trkpt>
      <trkpt lat="49.37024" lon="-0.88079">
        <ele>6.9</ele>
        <time>2020-06-16T16:26:10Z</time>
      </trkpt>
      <trkpt lat="49.37023" lon="-0.88079">
        <ele>6.9</ele>
        <time>2020-06-16T16:26:11Z</time>
      </trkpt>
      <trkpt lat="49.37022" lon="-0.8808">
        <ele>6.9</ele>
        <time>2020-06-16T16:26:12Z</time>
      </trkpt>
      <trkpt lat="49.3702" lon="-0.88081">
        <ele>6.9</ele>
        <time>2020-06-16T16:26:13Z</time>
      </trkpt>
      <trkpt lat="49.37019" lon="-0.88081">
        <ele>6.9</ele>
        <time>2020-06-16T16:26:14Z</time>
      </trkpt>
      <trkpt lat="49.37018" lon="-0.88081">
        <ele>6.9</ele>
        <time>2020-06-16T16:26:15Z</time>
      </trkpt>
      <trkpt lat="49.37017" lon="-0.88081">
        <ele>6.9</ele>
        <time>2020-06-16T16:26:16Z</time>
      </trkpt>
      <trkpt lat="49.37017" lon="-0.88082">
        <ele>6.9</ele>
        <time>2020-06-16T16:26:17Z</time>
      </trkpt>
      <trkpt lat="49.37017" lon="-0.88082">
        <ele>6.9</ele>
        <time>2020-06-16T16:26:18Z</time>
      </trkpt>
      <trkpt lat="49.37016" lon="-0.88082">
        <ele>6.9</ele>
        <time>2020-06-16T16:26:19Z</time>
      </trkpt>
      <trkpt lat="49.37016" lon="-0.88082">
        <ele>6.9</ele>
        <time>2020-06-16T16:26:20Z</time>
      </trkpt>
      <trkpt lat="49.37016" lon="-0.88082">
        <ele>6.9</ele>
        <time>2020-06-16T16:26:21Z</time>
      </trkpt>
      <trkpt lat="49.37016" lon="-0.88082">
        <ele>6.9</ele>
        <time>2020-06-16T16:26:22Z</time>
      </trkpt>
      <trkpt lat="49.37015" lon="-0.88082">
        <ele>6.9</ele>
        <time>2020-06-16T16:26:23Z</time>
      </trkpt>
      <trkpt lat="49.37015" lon="-0.88082">
        <ele>6.9</ele>
        <time>2020-06-16T16:26:24Z</time>
      </trkpt>
      <trkpt lat="49.37015" lon="-0.88083">
        <ele>6.9</ele>
        <time>2020-06-16T16:26:25Z</time>
      </trkpt>
      <trkpt lat="49.37014" lon="-0.88083">
        <ele>6.9</ele>
        <time>2020-06-16T16:26:26Z</time>
      </trkpt>
      <trkpt lat="49.37014" lon="-0.88083">
        <ele>6.9</ele>
        <time>2020-06-16T16:26:27Z</time>
      </trkpt>
      <trkpt lat="49.37013" lon="-0.88083">
        <ele>6.9</ele>
        <time>2020-06-16T16:26:28Z</time>
      </trkpt>
      <trkpt lat="49.37013" lon="-0.88083">
        <ele>6.9</ele>
        <time>2020-06-16T16:26:29Z</time>
      </trkpt>
      <trkpt lat="49.37013" lon="-0.88084">
        <ele>6.9</ele>
        <time>2020-06-16T16:26:30Z</time>
      </trkpt>
      <trkpt lat="49.37013" lon="-0.88083">
        <ele>6.9</ele>
        <time>2020-06-16T16:26:31Z</time>
      </trkpt>
      <trkpt lat="49.37013" lon="-0.88082">
        <ele>6.9</ele>
        <time>2020-06-16T16:26:32Z</time>
      </trkpt>
      <trkpt lat="49.37013" lon="-0.88081">
        <ele>6.9</ele>
        <time>2020-06-16T16:26:33Z</time>
      </trkpt>
      <trkpt lat="49.37013" lon="-0.8808">
        <ele>6.9</ele>
        <time>2020-06-16T16:26:34Z</time>
      </trkpt>
      <trkpt lat="49.37013" lon="-0.8808">
        <ele>6.9</ele>
        <time>2020-06-16T16:26:35Z</time>
      </trkpt>
      <trkpt lat="49.37013" lon="-0.8808">
        <ele>6.9</ele>
        <time>2020-06-16T16:26:36Z</time>
      </trkpt>
      <trkpt lat="49.37013" lon="-0.8808">
        <ele>6.9</ele>
        <time>2020-06-16T16:26:37Z</time>
      </trkpt>
      <trkpt lat="49.37011" lon="-0.88081">
        <ele>6.9</ele>
        <time>2020-06-16T16:26:41Z</time>
      </trkpt>
      <trkpt lat="49.37011" lon="-0.88081">
        <ele>6.9</ele>
        <time>2020-06-16T16:26:42Z</time>
      </trkpt>
      <trkpt lat="49.3701" lon="-0.88081">
        <ele>6.9</ele>
        <time>2020-06-16T16:26:43Z</time>
      </trkpt>
      <trkpt lat="49.37009" lon="-0.88082">
        <ele>6.8</ele>
        <time>2020-06-16T16:26:44Z</time>
      </trkpt>
      <trkpt lat="49.37009" lon="-0.88082">
        <ele>6.8</ele>
        <time>2020-06-16T16:26:45Z</time>
      </trkpt>
      <trkpt lat="49.37008" lon="-0.88083">
        <ele>6.8</ele>
        <time>2020-06-16T16:26:46Z</time>
      </trkpt>
      <trkpt lat="49.37007" lon="-0.88083">
        <ele>6.8</ele>
        <time>2020-06-16T16:26:47Z</time>
      </trkpt>
      <trkpt lat="49.37007" lon="-0.88084">
        <ele>6.8</ele>
        <time>2020-06-16T16:26:48Z</time>
      </trkpt>
      <trkpt lat="49.37006" lon="-0.88084">
        <ele>6.8</ele>
        <time>2020-06-16T16:26:49Z</time>
      </trkpt>
      <trkpt lat="49.37007" lon="-0.88084">
        <ele>6.8</ele>
        <time>2020-06-16T16:26:50Z</time>
      </trkpt>
      <trkpt lat="49.37007" lon="-0.88083">
        <ele>6.8</ele>
        <time>2020-06-16T16:26:51Z</time>
      </trkpt>
      <trkpt lat="49.37008" lon="-0.88082">
        <ele>6.8</ele>
        <time>2020-06-16T16:26:52Z</time>
      </trkpt>
      <trkpt lat="49.37009" lon="-0.88081">
        <ele>6.8</ele>
        <time>2020-06-16T16:26:53Z</time>
      </trkpt>
      <trkpt lat="49.3701" lon="-0.8808">
        <ele>6.7</ele>
        <time>2020-06-16T16:26:54Z</time>
      </trkpt>
      <trkpt lat="49.37011" lon="-0.88079">
        <ele>6.7</ele>
        <time>2020-06-16T16:26:55Z</time>
      </trkpt>
      <trkpt lat="49.37011" lon="-0.88079">
        <ele>6.7</ele>
        <time>2020-06-16T16:26:56Z</time>
      </trkpt>
      <trkpt lat="49.37012" lon="-0.88078">
        <ele>6.7</ele>
        <time>2020-06-16T16:26:57Z</time>
      </trkpt>
      <trkpt lat="49.37013" lon="-0.88077">
        <ele>6.7</ele>
        <time>2020-06-16T16:26:58Z</time>
      </trkpt>
      <trkpt lat="49.37014" lon="-0.88076">
        <ele>6.7</ele>
        <time>2020-06-16T16:26:59Z</time>
      </trkpt>
      <trkpt lat="49.37015" lon="-0.88075">
        <ele>6.7</ele>
        <time>2020-06-16T16:27:00Z</time>
      </trkpt>
      <trkpt lat="49.37016" lon="-0.88074">
        <ele>6.6</ele>
        <time>2020-06-16T16:27:18Z</time>
      </trkpt>
      <trkpt lat="49.37016" lon="-0.88073">
        <ele>6.6</ele>
        <time>2020-06-16T16:27:19Z</time>
      </trkpt>
      <trkpt lat="49.37017" lon="-0.88072">
        <ele>6.6</ele>
        <time>2020-06-16T16:27:20Z</time>
      </trkpt>
      <trkpt lat="49.37018" lon="-0.8807">
        <ele>6.6</ele>
        <time>2020-06-16T16:27:21Z</time>
      </trkpt>
      <trkpt lat="49.37018" lon="-0.88067">
        <ele>6.6</ele>
        <time>2020-06-16T16:27:22Z</time>
      </trkpt>
      <trkpt lat="49.37018" lon="-0.88063">
        <ele>6.4</ele>
        <time>2020-06-16T16:27:23Z</time>
      </trkpt>
      <trkpt lat="49.37018" lon="-0.88062">
        <ele>6.4</ele>
        <time>2020-06-16T16:27:24Z</time>
      </trkpt>
      <trkpt lat="49.37019" lon="-0.88058">
        <ele>6.3</ele>
        <time>2020-06-16T16:27:25Z</time>
      </trkpt>
      <trkpt lat="49.37019" lon="-0.88056">
        <ele>6.2</ele>
        <time>2020-06-16T16:27:26Z</time>
      </trkpt>
      <trkpt lat="49.37019" lon="-0.88052">
        <ele>6.2</ele>
        <time>2020-06-16T16:27:27Z</time>
      </trkpt>
      <trkpt lat="49.37018" lon="-0.8805">
        <ele>6.1</ele>
        <time>2020-06-16T16:27:28Z</time>
      </trkpt>
      <trkpt lat="49.37018" lon="-0.88048">
        <ele>6.1</ele>
        <time>2020-06-16T16:27:29Z</time>
      </trkpt>
      <trkpt lat="49.37018" lon="-0.88045">
        <ele>6</ele>
        <time>2020-06-16T16:27:30Z</time>
      </trkpt>
      <trkpt lat="49.37017" lon="-0.88043">
        <ele>6</ele>
        <time>2020-06-16T16:27:31Z</time>
      </trkpt>
      <trkpt lat="49.37016" lon="-0.8804">
        <ele>5.9</ele>
        <time>2020-06-16T16:27:32Z</time>
      </trkpt>
      <trkpt lat="49.37014" lon="-0.88036">
        <ele>5.9</ele>
        <time>2020-06-16T16:27:33Z</time>
      </trkpt>
      <trkpt lat="49.37013" lon="-0.88035">
        <ele>5.8</ele>
        <time>2020-06-16T16:27:34Z</time>
      </trkpt>
      <trkpt lat="49.3701" lon="-0.88033">
        <ele>5.7</ele>
        <time>2020-06-16T16:27:35Z</time>
      </trkpt>
      <trkpt lat="49.37008" lon="-0.88032">
        <ele>5.7</ele>
        <time>2020-06-16T16:27:36Z</time>
      </trkpt>
      <trkpt lat="49.37005" lon="-0.8803">
        <ele>5.8</ele>
        <time>2020-06-16T16:27:37Z</time>
      </trkpt>
      <trkpt lat="49.37003" lon="-0.88027">
        <ele>5.8</ele>
        <time>2020-06-16T16:27:38Z</time>
      </trkpt>
      <trkpt lat="49.37001" lon="-0.88024">
        <ele>6.1</ele>
        <time>2020-06-16T16:27:39Z</time>
      </trkpt>
      <trkpt lat="49.37001" lon="-0.88017">
        <ele>6.2</ele>
        <time>2020-06-16T16:27:40Z</time>
      </trkpt>
      <trkpt lat="49.37001" lon="-0.88015">
        <ele>6.1</ele>
        <time>2020-06-16T16:27:41Z</time>
      </trkpt>
      <trkpt lat="49.37001" lon="-0.88009">
        <ele>6.1</ele>
        <time>2020-06-16T16:27:42Z</time>
      </trkpt>
      <trkpt lat="49.37002" lon="-0.88007">
        <ele>6</ele>
        <time>2020-06-16T16:27:43Z</time>
      </trkpt>
      <trkpt lat="49.37004" lon="-0.88">
        <ele>5.9</ele>
        <time>2020-06-16T16:27:44Z</time>
      </trkpt>
      <trkpt lat="49.37006" lon="-0.87994">
        <ele>5.9</ele>
        <time>2020-06-16T16:27:45Z</time>
      </trkpt>
      <trkpt lat="49.37009" lon="-0.87989">
        <ele>5.8</ele>
        <time>2020-06-16T16:27:46Z</time>
      </trkpt>
      <trkpt lat="49.37013" lon="-0.87984">
        <ele>5.7</ele>
        <time>2020-06-16T16:27:47Z</time>
      </trkpt>
      <trkpt lat="49.37016" lon="-0.87979">
        <ele>5.6</ele>
        <time>2020-06-16T16:27:48Z</time>
      </trkpt>
      <trkpt lat="49.37019" lon="-0.87975">
        <ele>5.6</ele>
        <time>2020-06-16T16:27:49Z</time>
      </trkpt>
      <trkpt lat="49.37022" lon="-0.87971">
        <ele>5.5</ele>
        <time>2020-06-16T16:27:50Z</time>
      </trkpt>
      <trkpt lat="49.37025" lon="-0.87966">
        <ele>5.4</ele>
        <time>2020-06-16T16:27:51Z</time>
      </trkpt>
      <trkpt lat="49.37027" lon="-0.87962">
        <ele>5.4</ele>
        <time>2020-06-16T16:27:52Z</time>
      </trkpt>
      <trkpt lat="49.3703" lon="-0.87955">
        <ele>5.3</ele>
        <time>2020-06-16T16:27:53Z</time>
      </trkpt>
      <trkpt lat="49.37032" lon="-0.87948">
        <ele>5.2</ele>
        <time>2020-06-16T16:27:54Z</time>
      </trkpt>
      <trkpt lat="49.37034" lon="-0.87939">
        <ele>5.2</ele>
        <time>2020-06-16T16:27:55Z</time>
      </trkpt>
      <trkpt lat="49.37037" lon="-0.87932">
        <ele>5.1</ele>
        <time>2020-06-16T16:27:56Z</time>
      </trkpt>
      <trkpt lat="49.37039" lon="-0.87925">
        <ele>5.1</ele>
        <time>2020-06-16T16:27:57Z</time>
      </trkpt>
      <trkpt lat="49.37041" lon="-0.87918">
        <ele>5.1</ele>
        <time>2020-06-16T16:27:58Z</time>
      </trkpt>
      <trkpt lat="49.37042" lon="-0.8791">
        <ele>5</ele>
        <time>2020-06-16T16:27:59Z</time>
      </trkpt>
      <trkpt lat="49.37043" lon="-0.87902">
        <ele>5</ele>
        <time>2020-06-16T16:28:00Z</time>
      </trkpt>
      <trkpt lat="49.37044" lon="-0.87895">
        <ele>5</ele>
        <time>2020-06-16T16:28:01Z</time>
      </trkpt>
      <trkpt lat="49.37044" lon="-0.87889">
        <ele>5</ele>
        <time>2020-06-16T16:28:02Z</time>
      </trkpt>
      <trkpt lat="49.37044" lon="-0.87883">
        <ele>5</ele>
        <time>2020-06-16T16:28:03Z</time>
      </trkpt>
      <trkpt lat="49.37044" lon="-0.87877">
        <ele>5</ele>
        <time>2020-06-16T16:28:04Z</time>
      </trkpt>
      <trkpt lat="49.37043" lon="-0.87872">
        <ele>5</ele>
        <time>2020-06-16T16:28:05Z</time>
      </trkpt>
      <trkpt lat="49.37042" lon="-0.87867">
        <ele>5</ele>
        <time>2020-06-16T16:28:06Z</time>
      </trkpt>
      <trkpt lat="49.3704" lon="-0.87862">
        <ele>5</ele>
        <time>2020-06-16T16:28:07Z</time>
      </trkpt>
      <trkpt lat="49.37039" lon="-0.87857">
        <ele>5</ele>
        <time>2020-06-16T16:28:08Z</time>
      </trkpt>
      <trkpt lat="49.37037" lon="-0.87851">
        <ele>5</ele>
        <time>2020-06-16T16:28:09Z</time>
      </trkpt>
      <trkpt lat="49.37036" lon="-0.87845">
        <ele>5</ele>
        <time>2020-06-16T16:28:10Z</time>
      </trkpt>
      <trkpt lat="49.37033" lon="-0.87839">
        <ele>5</ele>
        <time>2020-06-16T16:28:11Z</time>
      </trkpt>
      <trkpt lat="49.37031" lon="-0.87832">
        <ele>5</ele>
        <time>2020-06-16T16:28:12Z</time>
      </trkpt>
      <trkpt lat="49.37028" lon="-0.87824">
        <ele>5</ele>
        <time>2020-06-16T16:28:13Z</time>
      </trkpt>
      <trkpt lat="49.37026" lon="-0.87818">
        <ele>5</ele>
        <time>2020-06-16T16:28:14Z</time>
      </trkpt>
      <trkpt lat="49.37024" lon="-0.87812">
        <ele>5</ele>
        <time>2020-06-16T16:28:15Z</time>
      </trkpt>
      <trkpt lat="49.37022" lon="-0.87805">
        <ele>5</ele>
        <time>2020-06-16T16:28:16Z</time>
      </trkpt>
      <trkpt lat="49.3702" lon="-0.878">
        <ele>5</ele>
        <time>2020-06-16T16:28:17Z</time>
      </trkpt>
      <trkpt lat="49.37018" lon="-0.87794">
        <ele>5</ele>
        <time>2020-06-16T16:28:18Z</time>
      </trkpt>
      <trkpt lat="49.37016" lon="-0.87788">
        <ele>5</ele>
        <time>2020-06-16T16:28:19Z</time>
      </trkpt>
      <trkpt lat="49.37015" lon="-0.87782">
        <ele>5</ele>
        <time>2020-06-16T16:28:20Z</time>
      </trkpt>
      <trkpt lat="49.37013" lon="-0.87776">
        <ele>5</ele>
        <time>2020-06-16T16:28:21Z</time>
      </trkpt>
      <trkpt lat="49.37011" lon="-0.87769">
        <ele>5</ele>
        <time>2020-06-16T16:28:22Z</time>
      </trkpt>
      <trkpt lat="49.37009" lon="-0.87763">
        <ele>5</ele>
        <time>2020-06-16T16:28:23Z</time>
      </trkpt>
      <trkpt lat="49.37006" lon="-0.87755">
        <ele>5</ele>
        <time>2020-06-16T16:28:24Z</time>
      </trkpt>
      <trkpt lat="49.37004" lon="-0.87748">
        <ele>5.1</ele>
        <time>2020-06-16T16:28:25Z</time>
      </trkpt>
      <trkpt lat="49.37001" lon="-0.8774">
        <ele>5.1</ele>
        <time>2020-06-16T16:28:26Z</time>
      </trkpt>
      <trkpt lat="49.36998" lon="-0.87732">
        <ele>5.1</ele>
        <time>2020-06-16T16:28:27Z</time>
      </trkpt>
      <trkpt lat="49.36996" lon="-0.87724">
        <ele>5.1</ele>
        <time>2020-06-16T16:28:28Z</time>
      </trkpt>
      <trkpt lat="49.36993" lon="-0.87717">
        <ele>5.1</ele>
        <time>2020-06-16T16:28:29Z</time>
      </trkpt>
      <trkpt lat="49.36991" lon="-0.8771">
        <ele>5.1</ele>
        <time>2020-06-16T16:28:30Z</time>
      </trkpt>
      <trkpt lat="49.36988" lon="-0.87703">
        <ele>5.1</ele>
        <time>2020-06-16T16:28:31Z</time>
      </trkpt>
      <trkpt lat="49.36984" lon="-0.87696">
        <ele>5.1</ele>
        <time>2020-06-16T16:28:32Z</time>
      </trkpt>
      <trkpt lat="49.36981" lon="-0.87689">
        <ele>5.1</ele>
        <time>2020-06-16T16:28:33Z</time>
      </trkpt>
      <trkpt lat="49.36978" lon="-0.87681">
        <ele>5.1</ele>
        <time>2020-06-16T16:28:34Z</time>
      </trkpt>
      <trkpt lat="49.36975" lon="-0.87673">
        <ele>5.1</ele>
        <time>2020-06-16T16:28:35Z</time>
      </trkpt>
      <trkpt lat="49.36972" lon="-0.87666">
        <ele>5.1</ele>
        <time>2020-06-16T16:28:36Z</time>
      </trkpt>
      <trkpt lat="49.36969" lon="-0.87659">
        <ele>5.1</ele>
        <time>2020-06-16T16:28:37Z</time>
      </trkpt>
      <trkpt lat="49.36966" lon="-0.87651">
        <ele>5.1</ele>
        <time>2020-06-16T16:28:38Z</time>
      </trkpt>
      <trkpt lat="49.36962" lon="-0.87644">
        <ele>5.1</ele>
        <time>2020-06-16T16:28:39Z</time>
      </trkpt>
      <trkpt lat="49.36959" lon="-0.87636">
        <ele>5.2</ele>
        <time>2020-06-16T16:28:40Z</time>
      </trkpt>
      <trkpt lat="49.36957" lon="-0.87628">
        <ele>5.2</ele>
        <time>2020-06-16T16:28:41Z</time>
      </trkpt>
      <trkpt lat="49.36954" lon="-0.8762">
        <ele>5.2</ele>
        <time>2020-06-16T16:28:42Z</time>
      </trkpt>
      <trkpt lat="49.36952" lon="-0.87612">
        <ele>5.2</ele>
        <time>2020-06-16T16:28:43Z</time>
      </trkpt>
      <trkpt lat="49.36949" lon="-0.87603">
        <ele>5.2</ele>
        <time>2020-06-16T16:28:44Z</time>
      </trkpt>
      <trkpt lat="49.36946" lon="-0.87595">
        <ele>5.2</ele>
        <time>2020-06-16T16:28:45Z</time>
      </trkpt>
      <trkpt lat="49.36943" lon="-0.87587">
        <ele>5.2</ele>
        <time>2020-06-16T16:28:46Z</time>
      </trkpt>
      <trkpt lat="49.36941" lon="-0.87578">
        <ele>5.2</ele>
        <time>2020-06-16T16:28:47Z</time>
      </trkpt>
      <trkpt lat="49.36939" lon="-0.87568">
        <ele>5.2</ele>
        <time>2020-06-16T16:28:48Z</time>
      </trkpt>
      <trkpt lat="49.36937" lon="-0.87559">
        <ele>5.1</ele>
        <time>2020-06-16T16:28:49Z</time>
      </trkpt>
      <trkpt lat="49.36934" lon="-0.8755">
        <ele>5.1</ele>
        <time>2020-06-16T16:28:50Z</time>
      </trkpt>
      <trkpt lat="49.36931" lon="-0.87542">
        <ele>5</ele>
        <time>2020-06-16T16:28:51Z</time>
      </trkpt>
      <trkpt lat="49.36928" lon="-0.87534">
        <ele>5</ele>
        <time>2020-06-16T16:28:52Z</time>
      </trkpt>
      <trkpt lat="49.36926" lon="-0.87527">
        <ele>5</ele>
        <time>2020-06-16T16:28:53Z</time>
      </trkpt>
      <trkpt lat="49.36925" lon="-0.8752">
        <ele>5</ele>
        <time>2020-06-16T16:28:54Z</time>
      </trkpt>
      <trkpt lat="49.36923" lon="-0.87513">
        <ele>5</ele>
        <time>2020-06-16T16:28:55Z</time>
      </trkpt>
      <trkpt lat="49.36922" lon="-0.87507">
        <ele>5</ele>
        <time>2020-06-16T16:28:56Z</time>
      </trkpt>
      <trkpt lat="49.3692" lon="-0.875">
        <ele>5</ele>
        <time>2020-06-16T16:28:57Z</time>
      </trkpt>
      <trkpt lat="49.36917" lon="-0.87494">
        <ele>5</ele>
        <time>2020-06-16T16:28:58Z</time>
      </trkpt>
      <trkpt lat="49.36916" lon="-0.87488">
        <ele>5</ele>
        <time>2020-06-16T16:28:59Z</time>
      </trkpt>
      <trkpt lat="49.36913" lon="-0.87481">
        <ele>5</ele>
        <time>2020-06-16T16:29:00Z</time>
      </trkpt>
      <trkpt lat="49.36911" lon="-0.87473">
        <ele>5</ele>
        <time>2020-06-16T16:29:01Z</time>
      </trkpt>
      <trkpt lat="49.36908" lon="-0.87466">
        <ele>5</ele>
        <time>2020-06-16T16:29:02Z</time>
      </trkpt>
      <trkpt lat="49.36906" lon="-0.87458">
        <ele>5</ele>
        <time>2020-06-16T16:29:03Z</time>
      </trkpt>
      <trkpt lat="49.36903" lon="-0.8745">
        <ele>5.1</ele>
        <time>2020-06-16T16:29:04Z</time>
      </trkpt>
      <trkpt lat="49.36901" lon="-0.87443">
        <ele>5.1</ele>
        <time>2020-06-16T16:29:05Z</time>
      </trkpt>
      <trkpt lat="49.36898" lon="-0.87436">
        <ele>5.1</ele>
        <time>2020-06-16T16:29:06Z</time>
      </trkpt>
      <trkpt lat="49.36895" lon="-0.87428">
        <ele>5.1</ele>
        <time>2020-06-16T16:29:07Z</time>
      </trkpt>
      <trkpt lat="49.36893" lon="-0.8742">
        <ele>5.1</ele>
        <time>2020-06-16T16:29:08Z</time>
      </trkpt>
      <trkpt lat="49.3689" lon="-0.87413">
        <ele>5.1</ele>
        <time>2020-06-16T16:29:09Z</time>
      </trkpt>
      <trkpt lat="49.36888" lon="-0.87406">
        <ele>5.1</ele>
        <time>2020-06-16T16:29:10Z</time>
      </trkpt>
      <trkpt lat="49.36887" lon="-0.87399">
        <ele>5.1</ele>
        <time>2020-06-16T16:29:11Z</time>
      </trkpt>
      <trkpt lat="49.36884" lon="-0.87392">
        <ele>5.1</ele>
        <time>2020-06-16T16:29:12Z</time>
      </trkpt>
      <trkpt lat="49.36882" lon="-0.87385">
        <ele>5.1</ele>
        <time>2020-06-16T16:29:13Z</time>
      </trkpt>
      <trkpt lat="49.3688" lon="-0.87379">
        <ele>5.2</ele>
        <time>2020-06-16T16:29:14Z</time>
      </trkpt>
      <trkpt lat="49.36878" lon="-0.87372">
        <ele>5.2</ele>
        <time>2020-06-16T16:29:15Z</time>
      </trkpt>
      <trkpt lat="49.36876" lon="-0.87366">
        <ele>5.2</ele>
        <time>2020-06-16T16:29:16Z</time>
      </trkpt>
      <trkpt lat="49.36874" lon="-0.87359">
        <ele>5.3</ele>
        <time>2020-06-16T16:29:17Z</time>
      </trkpt>
      <trkpt lat="49.36872" lon="-0.87353">
        <ele>5.3</ele>
        <time>2020-06-16T16:29:18Z</time>
      </trkpt>
      <trkpt lat="49.3687" lon="-0.87346">
        <ele>5.3</ele>
        <time>2020-06-16T16:29:19Z</time>
      </trkpt>
      <trkpt lat="49.36867" lon="-0.87339">
        <ele>5.3</ele>
        <time>2020-06-16T16:29:20Z</time>
      </trkpt>
      <trkpt lat="49.36865" lon="-0.87332">
        <ele>5.4</ele>
        <time>2020-06-16T16:29:21Z</time>
      </trkpt>
      <trkpt lat="49.36862" lon="-0.87325">
        <ele>5.4</ele>
        <time>2020-06-16T16:29:22Z</time>
      </trkpt>
      <trkpt lat="49.3686" lon="-0.87318">
        <ele>5.4</ele>
        <time>2020-06-16T16:29:23Z</time>
      </trkpt>
      <trkpt lat="49.36857" lon="-0.8731">
        <ele>5.3</ele>
        <time>2020-06-16T16:29:24Z</time>
      </trkpt>
      <trkpt lat="49.36855" lon="-0.87304">
        <ele>5.3</ele>
        <time>2020-06-16T16:29:25Z</time>
      </trkpt>
      <trkpt lat="49.36853" lon="-0.87297">
        <ele>5.3</ele>
        <time>2020-06-16T16:29:26Z</time>
      </trkpt>
      <trkpt lat="49.36851" lon="-0.87289">
        <ele>5.3</ele>
        <time>2020-06-16T16:29:27Z</time>
      </trkpt>
      <trkpt lat="49.36849" lon="-0.87281">
        <ele>5.3</ele>
        <time>2020-06-16T16:29:28Z</time>
      </trkpt>
      <trkpt lat="49.36846" lon="-0.87275">
        <ele>5.3</ele>
        <time>2020-06-16T16:29:29Z</time>
      </trkpt>
      <trkpt lat="49.36844" lon="-0.87266">
        <ele>5.3</ele>
        <time>2020-06-16T16:29:30Z</time>
      </trkpt>
      <trkpt lat="49.36842" lon="-0.87258">
        <ele>5.4</ele>
        <time>2020-06-16T16:29:31Z</time>
      </trkpt>
      <trkpt lat="49.3684" lon="-0.87252">
        <ele>5.4</ele>
        <time>2020-06-16T16:29:32Z</time>
      </trkpt>
      <trkpt lat="49.36839" lon="-0.87246">
        <ele>5.5</ele>
        <time>2020-06-16T16:29:33Z</time>
      </trkpt>
      <trkpt lat="49.36837" lon="-0.8724">
        <ele>5.5</ele>
        <time>2020-06-16T16:29:34Z</time>
      </trkpt>
      <trkpt lat="49.36834" lon="-0.87232">
        <ele>5.5</ele>
        <time>2020-06-16T16:29:35Z</time>
      </trkpt>
      <trkpt lat="49.36833" lon="-0.87224">
        <ele>5.5</ele>
        <time>2020-06-16T16:29:36Z</time>
      </trkpt>
      <trkpt lat="49.36831" lon="-0.87216">
        <ele>5.5</ele>
        <time>2020-06-16T16:29:37Z</time>
      </trkpt>
      <trkpt lat="49.36829" lon="-0.87208">
        <ele>5.5</ele>
        <time>2020-06-16T16:29:38Z</time>
      </trkpt>
      <trkpt lat="49.36827" lon="-0.87201">
        <ele>5.4</ele>
        <time>2020-06-16T16:29:39Z</time>
      </trkpt>
      <trkpt lat="49.36824" lon="-0.87194">
        <ele>5.3</ele>
        <time>2020-06-16T16:29:40Z</time>
      </trkpt>
      <trkpt lat="49.36822" lon="-0.87187">
        <ele>5.3</ele>
        <time>2020-06-16T16:29:41Z</time>
      </trkpt>
      <trkpt lat="49.36821" lon="-0.87181">
        <ele>5.3</ele>
        <time>2020-06-16T16:29:42Z</time>
      </trkpt>
      <trkpt lat="49.36819" lon="-0.87174">
        <ele>5.2</ele>
        <time>2020-06-16T16:29:43Z</time>
      </trkpt>
      <trkpt lat="49.36817" lon="-0.87167">
        <ele>5.2</ele>
        <time>2020-06-16T16:29:44Z</time>
      </trkpt>
      <trkpt lat="49.36815" lon="-0.8716">
        <ele>5.2</ele>
        <time>2020-06-16T16:29:45Z</time>
      </trkpt>
      <trkpt lat="49.36813" lon="-0.87152">
        <ele>5.2</ele>
        <time>2020-06-16T16:29:46Z</time>
      </trkpt>
      <trkpt lat="49.3681" lon="-0.87146">
        <ele>5.1</ele>
        <time>2020-06-16T16:29:47Z</time>
      </trkpt>
      <trkpt lat="49.36809" lon="-0.8714">
        <ele>5.1</ele>
        <time>2020-06-16T16:29:48Z</time>
      </trkpt>
      <trkpt lat="49.36806" lon="-0.87134">
        <ele>5.1</ele>
        <time>2020-06-16T16:29:49Z</time>
      </trkpt>
      <trkpt lat="49.36804" lon="-0.87127">
        <ele>5.1</ele>
        <time>2020-06-16T16:29:50Z</time>
      </trkpt>
      <trkpt lat="49.36802" lon="-0.87119">
        <ele>5</ele>
        <time>2020-06-16T16:29:51Z</time>
      </trkpt>
      <trkpt lat="49.36799" lon="-0.87113">
        <ele>5</ele>
        <time>2020-06-16T16:29:52Z</time>
      </trkpt>
      <trkpt lat="49.36797" lon="-0.87106">
        <ele>5</ele>
        <time>2020-06-16T16:29:53Z</time>
      </trkpt>
      <trkpt lat="49.36795" lon="-0.87099">
        <ele>4.9</ele>
        <time>2020-06-16T16:29:54Z</time>
      </trkpt>
      <trkpt lat="49.36793" lon="-0.87091">
        <ele>4.9</ele>
        <time>2020-06-16T16:29:55Z</time>
      </trkpt>
      <trkpt lat="49.36791" lon="-0.87085">
        <ele>4.9</ele>
        <time>2020-06-16T16:29:56Z</time>
      </trkpt>
      <trkpt lat="49.36789" lon="-0.87078">
        <ele>4.9</ele>
        <time>2020-06-16T16:29:57Z</time>
      </trkpt>
      <trkpt lat="49.36787" lon="-0.87072">
        <ele>4.9</ele>
        <time>2020-06-16T16:29:58Z</time>
      </trkpt>
      <trkpt lat="49.36785" lon="-0.87066">
        <ele>4.9</ele>
        <time>2020-06-16T16:29:59Z</time>
      </trkpt>
      <trkpt lat="49.36784" lon="-0.87059">
        <ele>4.9</ele>
        <time>2020-06-16T16:30:00Z</time>
      </trkpt>
      <trkpt lat="49.36781" lon="-0.87054">
        <ele>4.9</ele>
        <time>2020-06-16T16:30:01Z</time>
      </trkpt>
      <trkpt lat="49.36779" lon="-0.87048">
        <ele>5</ele>
        <time>2020-06-16T16:30:02Z</time>
      </trkpt>
      <trkpt lat="49.36778" lon="-0.87041">
        <ele>5</ele>
        <time>2020-06-16T16:30:03Z</time>
      </trkpt>
      <trkpt lat="49.36776" lon="-0.87035">
        <ele>5</ele>
        <time>2020-06-16T16:30:04Z</time>
      </trkpt>
      <trkpt lat="49.36773" lon="-0.87029">
        <ele>5</ele>
        <time>2020-06-16T16:30:05Z</time>
      </trkpt>
      <trkpt lat="49.3677" lon="-0.87023">
        <ele>5</ele>
        <time>2020-06-16T16:30:06Z</time>
      </trkpt>
      <trkpt lat="49.36768" lon="-0.87016">
        <ele>4.9</ele>
        <time>2020-06-16T16:30:07Z</time>
      </trkpt>
      <trkpt lat="49.36765" lon="-0.87011">
        <ele>4.9</ele>
        <time>2020-06-16T16:30:08Z</time>
      </trkpt>
      <trkpt lat="49.36762" lon="-0.87007">
        <ele>4.9</ele>
        <time>2020-06-16T16:30:09Z</time>
      </trkpt>
      <trkpt lat="49.36759" lon="-0.87003">
        <ele>4.8</ele>
        <time>2020-06-16T16:30:10Z</time>
      </trkpt>
      <trkpt lat="49.36754" lon="-0.87001">
        <ele>4.8</ele>
        <time>2020-06-16T16:30:11Z</time>
      </trkpt>
      <trkpt lat="49.36749" lon="-0.86999">
        <ele>4.8</ele>
        <time>2020-06-16T16:30:12Z</time>
      </trkpt>
      <trkpt lat="49.36744" lon="-0.86997">
        <ele>4.7</ele>
        <time>2020-06-16T16:30:13Z</time>
      </trkpt>
      <trkpt lat="49.36738" lon="-0.86993">
        <ele>4.6</ele>
        <time>2020-06-16T16:30:14Z</time>
      </trkpt>
      <trkpt lat="49.36733" lon="-0.86989">
        <ele>4.5</ele>
        <time>2020-06-16T16:30:15Z</time>
      </trkpt>
      <trkpt lat="49.36728" lon="-0.86984">
        <ele>4.4</ele>
        <time>2020-06-16T16:30:16Z</time>
      </trkpt>
      <trkpt lat="49.36724" lon="-0.86978">
        <ele>4.2</ele>
        <time>2020-06-16T16:30:17Z</time>
      </trkpt>
      <trkpt lat="49.36721" lon="-0.86971">
        <ele>4.1</ele>
        <time>2020-06-16T16:30:18Z</time>
      </trkpt>
      <trkpt lat="49.36718" lon="-0.86963">
        <ele>4</ele>
        <time>2020-06-16T16:30:19Z</time>
      </trkpt>
      <trkpt lat="49.36716" lon="-0.86955">
        <ele>3.9</ele>
        <time>2020-06-16T16:30:20Z</time>
      </trkpt>
      <trkpt lat="49.36713" lon="-0.86948">
        <ele>3.8</ele>
        <time>2020-06-16T16:30:21Z</time>
      </trkpt>
      <trkpt lat="49.3671" lon="-0.8694">
        <ele>3.8</ele>
        <time>2020-06-16T16:30:22Z</time>
      </trkpt>
      <trkpt lat="49.36707" lon="-0.86932">
        <ele>3.8</ele>
        <time>2020-06-16T16:30:23Z</time>
      </trkpt>
      <trkpt lat="49.36704" lon="-0.86925">
        <ele>3.8</ele>
        <time>2020-06-16T16:30:24Z</time>
      </trkpt>
      <trkpt lat="49.36701" lon="-0.86917">
        <ele>3.7</ele>
        <time>2020-06-16T16:30:25Z</time>
      </trkpt>
      <trkpt lat="49.36698" lon="-0.86908">
        <ele>3.7</ele>
        <time>2020-06-16T16:30:26Z</time>
      </trkpt>
      <trkpt lat="49.36695" lon="-0.869">
        <ele>3.7</ele>
        <time>2020-06-16T16:30:27Z</time>
      </trkpt>
      <trkpt lat="49.36693" lon="-0.8689">
        <ele>3.6</ele>
        <time>2020-06-16T16:30:28Z</time>
      </trkpt>
      <trkpt lat="49.3669" lon="-0.86881">
        <ele>3.5</ele>
        <time>2020-06-16T16:30:29Z</time>
      </trkpt>
      <trkpt lat="49.36687" lon="-0.86873">
        <ele>3.5</ele>
        <time>2020-06-16T16:30:30Z</time>
      </trkpt>
      <trkpt lat="49.36684" lon="-0.86865">
        <ele>3.4</ele>
        <time>2020-06-16T16:30:31Z</time>
      </trkpt>
      <trkpt lat="49.36681" lon="-0.86857">
        <ele>3.3</ele>
        <time>2020-06-16T16:30:32Z</time>
      </trkpt>
      <trkpt lat="49.36677" lon="-0.86848">
        <ele>3.3</ele>
        <time>2020-06-16T16:30:33Z</time>
      </trkpt>
      <trkpt lat="49.36674" lon="-0.86839">
        <ele>3.2</ele>
        <time>2020-06-16T16:30:34Z</time>
      </trkpt>
      <trkpt lat="49.3667" lon="-0.8683">
        <ele>3.2</ele>
        <time>2020-06-16T16:30:35Z</time>
      </trkpt>
      <trkpt lat="49.36667" lon="-0.86821">
        <ele>3.1</ele>
        <time>2020-06-16T16:30:36Z</time>
      </trkpt>
      <trkpt lat="49.36664" lon="-0.86813">
        <ele>3.1</ele>
        <time>2020-06-16T16:30:37Z</time>
      </trkpt>
      <trkpt lat="49.36662" lon="-0.86805">
        <ele>3.2</ele>
        <time>2020-06-16T16:30:38Z</time>
      </trkpt>
      <trkpt lat="49.36659" lon="-0.86797">
        <ele>3.2</ele>
        <time>2020-06-16T16:30:39Z</time>
      </trkpt>
      <trkpt lat="49.36655" lon="-0.86789">
        <ele>3.2</ele>
        <time>2020-06-16T16:30:40Z</time>
      </trkpt>
      <trkpt lat="49.36652" lon="-0.8678">
        <ele>3.2</ele>
        <time>2020-06-16T16:30:41Z</time>
      </trkpt>
      <trkpt lat="49.3665" lon="-0.86772">
        <ele>3.2</ele>
        <time>2020-06-16T16:30:42Z</time>
      </trkpt>
      <trkpt lat="49.36648" lon="-0.86763">
        <ele>3.2</ele>
        <time>2020-06-16T16:30:43Z</time>
      </trkpt>
      <trkpt lat="49.36645" lon="-0.86755">
        <ele>3.2</ele>
        <time>2020-06-16T16:30:44Z</time>
      </trkpt>
      <trkpt lat="49.36643" lon="-0.86747">
        <ele>3.2</ele>
        <time>2020-06-16T16:30:45Z</time>
      </trkpt>
      <trkpt lat="49.3664" lon="-0.86739">
        <ele>3.2</ele>
        <time>2020-06-16T16:30:46Z</time>
      </trkpt>
      <trkpt lat="49.36638" lon="-0.8673">
        <ele>3.3</ele>
        <time>2020-06-16T16:30:47Z</time>
      </trkpt>
      <trkpt lat="49.36636" lon="-0.86722">
        <ele>3.3</ele>
        <time>2020-06-16T16:30:48Z</time>
      </trkpt>
      <trkpt lat="49.36634" lon="-0.86713">
        <ele>3.3</ele>
        <time>2020-06-16T16:30:49Z</time>
      </trkpt>
      <trkpt lat="49.36632" lon="-0.86706">
        <ele>3.4</ele>
        <time>2020-06-16T16:30:50Z</time>
      </trkpt>
      <trkpt lat="49.3663" lon="-0.86699">
        <ele>3.4</ele>
        <time>2020-06-16T16:30:51Z</time>
      </trkpt>
      <trkpt lat="49.36628" lon="-0.86692">
        <ele>3.4</ele>
        <time>2020-06-16T16:30:52Z</time>
      </trkpt>
      <trkpt lat="49.36626" lon="-0.86685">
        <ele>3.4</ele>
        <time>2020-06-16T16:30:53Z</time>
      </trkpt>
      <trkpt lat="49.36624" lon="-0.86677">
        <ele>3.4</ele>
        <time>2020-06-16T16:30:54Z</time>
      </trkpt>
      <trkpt lat="49.36622" lon="-0.8667">
        <ele>3.4</ele>
        <time>2020-06-16T16:30:55Z</time>
      </trkpt>
      <trkpt lat="49.36621" lon="-0.86663">
        <ele>3.4</ele>
        <time>2020-06-16T16:30:56Z</time>
      </trkpt>
      <trkpt lat="49.36619" lon="-0.86655">
        <ele>3.4</ele>
        <time>2020-06-16T16:30:57Z</time>
      </trkpt>
      <trkpt lat="49.36617" lon="-0.86648">
        <ele>3.4</ele>
        <time>2020-06-16T16:30:58Z</time>
      </trkpt>
      <trkpt lat="49.36616" lon="-0.8664">
        <ele>3.4</ele>
        <time>2020-06-16T16:30:59Z</time>
      </trkpt>
      <trkpt lat="49.36613" lon="-0.86632">
        <ele>3.4</ele>
        <time>2020-06-16T16:31:00Z</time>
      </trkpt>
      <trkpt lat="49.36611" lon="-0.86625">
        <ele>3.4</ele>
        <time>2020-06-16T16:31:01Z</time>
      </trkpt>
      <trkpt lat="49.36608" lon="-0.86616">
        <ele>3.4</ele>
        <time>2020-06-16T16:31:02Z</time>
      </trkpt>
      <trkpt lat="49.36606" lon="-0.86607">
        <ele>3.4</ele>
        <time>2020-06-16T16:31:03Z</time>
      </trkpt>
      <trkpt lat="49.36605" lon="-0.86598">
        <ele>3.5</ele>
        <time>2020-06-16T16:31:04Z</time>
      </trkpt>
      <trkpt lat="49.36602" lon="-0.8659">
        <ele>3.5</ele>
        <time>2020-06-16T16:31:05Z</time>
      </trkpt>
      <trkpt lat="49.36601" lon="-0.86582">
        <ele>3.5</ele>
        <time>2020-06-16T16:31:06Z</time>
      </trkpt>
      <trkpt lat="49.36598" lon="-0.86575">
        <ele>3.5</ele>
        <time>2020-06-16T16:31:07Z</time>
      </trkpt>
      <trkpt lat="49.36596" lon="-0.86567">
        <ele>3.5</ele>
        <time>2020-06-16T16:31:08Z</time>
      </trkpt>
      <trkpt lat="49.36594" lon="-0.86559">
        <ele>3.5</ele>
        <time>2020-06-16T16:31:09Z</time>
      </trkpt>
      <trkpt lat="49.36592" lon="-0.8655">
        <ele>3.6</ele>
        <time>2020-06-16T16:31:10Z</time>
      </trkpt>
      <trkpt lat="49.36589" lon="-0.8654">
        <ele>3.6</ele>
        <time>2020-06-16T16:31:11Z</time>
      </trkpt>
      <trkpt lat="49.36587" lon="-0.86533">
        <ele>3.6</ele>
        <time>2020-06-16T16:31:12Z</time>
      </trkpt>
      <trkpt lat="49.36585" lon="-0.86524">
        <ele>3.6</ele>
        <time>2020-06-16T16:31:13Z</time>
      </trkpt>
      <trkpt lat="49.36583" lon="-0.86516">
        <ele>3.6</ele>
        <time>2020-06-16T16:31:14Z</time>
      </trkpt>
      <trkpt lat="49.36581" lon="-0.8651">
        <ele>3.6</ele>
        <time>2020-06-16T16:31:15Z</time>
      </trkpt>
      <trkpt lat="49.36581" lon="-0.86507">
        <ele>3.6</ele>
        <time>2020-06-16T16:31:16Z</time>
      </trkpt>
      <trkpt lat="49.3658" lon="-0.86506">
        <ele>3.6</ele>
        <time>2020-06-16T16:31:17Z</time>
      </trkpt>
      <trkpt lat="49.3658" lon="-0.86505">
        <ele>3.6</ele>
        <time>2020-06-16T16:31:18Z</time>
      </trkpt>
      <trkpt lat="49.36579" lon="-0.86503">
        <ele>3.6</ele>
        <time>2020-06-16T16:31:19Z</time>
      </trkpt>
      <trkpt lat="49.36578" lon="-0.86502">
        <ele>3.6</ele>
        <time>2020-06-16T16:31:20Z</time>
      </trkpt>
      <trkpt lat="49.36577" lon="-0.86501">
        <ele>3.6</ele>
        <time>2020-06-16T16:31:21Z</time>
      </trkpt>
      <trkpt lat="49.36577" lon="-0.86501">
        <ele>3.6</ele>
        <time>2020-06-16T16:31:22Z</time>
      </trkpt>
      <trkpt lat="49.36577" lon="-0.86501">
        <ele>3.6</ele>
        <time>2020-06-16T16:31:23Z</time>
      </trkpt>
      <trkpt lat="49.36576" lon="-0.86502">
        <ele>3.6</ele>
        <time>2020-06-16T16:31:24Z</time>
      </trkpt>
      <trkpt lat="49.36576" lon="-0.86502">
        <ele>3.6</ele>
        <time>2020-06-16T16:31:25Z</time>
      </trkpt>
      <trkpt lat="49.36576" lon="-0.86502">
        <ele>3.6</ele>
        <time>2020-06-16T16:31:26Z</time>
      </trkpt>
      <trkpt lat="49.36576" lon="-0.86502">
        <ele>3.6</ele>
        <time>2020-06-16T16:31:27Z</time>
      </trkpt>
      <trkpt lat="49.36576" lon="-0.86502">
        <ele>3.6</ele>
        <time>2020-06-16T16:31:28Z</time>
      </trkpt>
      <trkpt lat="49.36576" lon="-0.86502">
        <ele>3.6</ele>
        <time>2020-06-16T16:31:29Z</time>
      </trkpt>
      <trkpt lat="49.36577" lon="-0.86503">
        <ele>3.6</ele>
        <time>2020-06-16T16:31:30Z</time>
      </trkpt>
      <trkpt lat="49.36577" lon="-0.86504">
        <ele>3.6</ele>
        <time>2020-06-16T16:31:31Z</time>
      </trkpt>
      <trkpt lat="49.36577" lon="-0.86504">
        <ele>3.6</ele>
        <time>2020-06-16T16:31:32Z</time>
      </trkpt>
      <trkpt lat="49.36569" lon="-0.86487">
        <ele>3.7</ele>
        <time>2020-06-16T16:32:41Z</time>
      </trkpt>
      <trkpt lat="49.36568" lon="-0.86485">
        <ele>3.7</ele>
        <time>2020-06-16T16:32:42Z</time>
      </trkpt>
      <trkpt lat="49.36568" lon="-0.86483">
        <ele>3.7</ele>
        <time>2020-06-16T16:32:43Z</time>
      </trkpt>
      <trkpt lat="49.36567" lon="-0.86481">
        <ele>3.7</ele>
        <time>2020-06-16T16:32:44Z</time>
      </trkpt>
      <trkpt lat="49.36566" lon="-0.86477">
        <ele>3.8</ele>
        <time>2020-06-16T16:32:45Z</time>
      </trkpt>
      <trkpt lat="49.36566" lon="-0.86475">
        <ele>3.8</ele>
        <time>2020-06-16T16:32:46Z</time>
      </trkpt>
      <trkpt lat="49.36565" lon="-0.8647">
        <ele>3.8</ele>
        <time>2020-06-16T16:32:47Z</time>
      </trkpt>
      <trkpt lat="49.36564" lon="-0.86469">
        <ele>3.8</ele>
        <time>2020-06-16T16:32:48Z</time>
      </trkpt>
      <trkpt lat="49.36563" lon="-0.86466">
        <ele>3.8</ele>
        <time>2020-06-16T16:32:49Z</time>
      </trkpt>
      <trkpt lat="49.36561" lon="-0.86459">
        <ele>3.9</ele>
        <time>2020-06-16T16:32:50Z</time>
      </trkpt>
      <trkpt lat="49.3656" lon="-0.86452">
        <ele>3.9</ele>
        <time>2020-06-16T16:32:51Z</time>
      </trkpt>
      <trkpt lat="49.36559" lon="-0.86446">
        <ele>3.9</ele>
        <time>2020-06-16T16:32:52Z</time>
      </trkpt>
      <trkpt lat="49.36558" lon="-0.8644">
        <ele>4</ele>
        <time>2020-06-16T16:32:53Z</time>
      </trkpt>
      <trkpt lat="49.36556" lon="-0.86435">
        <ele>4</ele>
        <time>2020-06-16T16:32:54Z</time>
      </trkpt>
      <trkpt lat="49.36555" lon="-0.86429">
        <ele>4.1</ele>
        <time>2020-06-16T16:32:55Z</time>
      </trkpt>
      <trkpt lat="49.36554" lon="-0.86421">
        <ele>4.1</ele>
        <time>2020-06-16T16:32:56Z</time>
      </trkpt>
      <trkpt lat="49.36552" lon="-0.86415">
        <ele>4.1</ele>
        <time>2020-06-16T16:32:57Z</time>
      </trkpt>
      <trkpt lat="49.3655" lon="-0.86408">
        <ele>4.1</ele>
        <time>2020-06-16T16:32:58Z</time>
      </trkpt>
      <trkpt lat="49.36549" lon="-0.86401">
        <ele>4.1</ele>
        <time>2020-06-16T16:32:59Z</time>
      </trkpt>
      <trkpt lat="49.36548" lon="-0.86394">
        <ele>4.2</ele>
        <time>2020-06-16T16:33:00Z</time>
      </trkpt>
      <trkpt lat="49.36547" lon="-0.86387">
        <ele>4.2</ele>
        <time>2020-06-16T16:33:01Z</time>
      </trkpt>
      <trkpt lat="49.36545" lon="-0.8638">
        <ele>4.2</ele>
        <time>2020-06-16T16:33:02Z</time>
      </trkpt>
      <trkpt lat="49.36543" lon="-0.86372">
        <ele>4.2</ele>
        <time>2020-06-16T16:33:03Z</time>
      </trkpt>
      <trkpt lat="49.36541" lon="-0.86366">
        <ele>4.2</ele>
        <time>2020-06-16T16:33:04Z</time>
      </trkpt>
      <trkpt lat="49.3654" lon="-0.86361">
        <ele>4.2</ele>
        <time>2020-06-16T16:33:05Z</time>
      </trkpt>
      <trkpt lat="49.36537" lon="-0.86356">
        <ele>4.2</ele>
        <time>2020-06-16T16:33:06Z</time>
      </trkpt>
      <trkpt lat="49.36534" lon="-0.86352">
        <ele>4.3</ele>
        <time>2020-06-16T16:33:07Z</time>
      </trkpt>
      <trkpt lat="49.3653" lon="-0.86351">
        <ele>4.3</ele>
        <time>2020-06-16T16:33:08Z</time>
      </trkpt>
      <trkpt lat="49.36526" lon="-0.8635">
        <ele>4.3</ele>
        <time>2020-06-16T16:33:09Z</time>
      </trkpt>
      <trkpt lat="49.36521" lon="-0.8635">
        <ele>4.4</ele>
        <time>2020-06-16T16:33:10Z</time>
      </trkpt>
      <trkpt lat="49.36517" lon="-0.8635">
        <ele>4.4</ele>
        <time>2020-06-16T16:33:11Z</time>
      </trkpt>
      <trkpt lat="49.36513" lon="-0.8635">
        <ele>4.5</ele>
        <time>2020-06-16T16:33:12Z</time>
      </trkpt>
      <trkpt lat="49.36508" lon="-0.86349">
        <ele>4.6</ele>
        <time>2020-06-16T16:33:13Z</time>
      </trkpt>
      <trkpt lat="49.36503" lon="-0.86349">
        <ele>4.7</ele>
        <time>2020-06-16T16:33:14Z</time>
      </trkpt>
      <trkpt lat="49.36499" lon="-0.8635">
        <ele>4.9</ele>
        <time>2020-06-16T16:33:15Z</time>
      </trkpt>
      <trkpt lat="49.36495" lon="-0.8635">
        <ele>5</ele>
        <time>2020-06-16T16:33:16Z</time>
      </trkpt>
      <trkpt lat="49.36492" lon="-0.8635">
        <ele>5.1</ele>
        <time>2020-06-16T16:33:17Z</time>
      </trkpt>
      <trkpt lat="49.36489" lon="-0.86347">
        <ele>5.2</ele>
        <time>2020-06-16T16:33:18Z</time>
      </trkpt>
      <trkpt lat="49.36486" lon="-0.86344">
        <ele>5.3</ele>
        <time>2020-06-16T16:33:19Z</time>
      </trkpt>
      <trkpt lat="49.36483" lon="-0.8634">
        <ele>5.4</ele>
        <time>2020-06-16T16:33:20Z</time>
      </trkpt>
      <trkpt lat="49.36481" lon="-0.86337">
        <ele>5.8</ele>
        <time>2020-06-16T16:33:21Z</time>
      </trkpt>
      <trkpt lat="49.36479" lon="-0.86335">
        <ele>6</ele>
        <time>2020-06-16T16:33:22Z</time>
      </trkpt>
      <trkpt lat="49.36476" lon="-0.86334">
        <ele>6.2</ele>
        <time>2020-06-16T16:33:23Z</time>
      </trkpt>
      <trkpt lat="49.36473" lon="-0.86333">
        <ele>6.4</ele>
        <time>2020-06-16T16:33:24Z</time>
      </trkpt>
      <trkpt lat="49.36472" lon="-0.86332">
        <ele>6.5</ele>
        <time>2020-06-16T16:33:25Z</time>
      </trkpt>
      <trkpt lat="49.3647" lon="-0.86333">
        <ele>6.7</ele>
        <time>2020-06-16T16:33:26Z</time>
      </trkpt>
      <trkpt lat="49.36469" lon="-0.86333">
        <ele>6.7</ele>
        <time>2020-06-16T16:33:27Z</time>
      </trkpt>
      <trkpt lat="49.36468" lon="-0.86332">
        <ele>6.8</ele>
        <time>2020-06-16T16:33:28Z</time>
      </trkpt>
      <trkpt lat="49.36467" lon="-0.86331">
        <ele>6.9</ele>
        <time>2020-06-16T16:33:29Z</time>
      </trkpt>
      <trkpt lat="49.36467" lon="-0.86335">
        <ele>7.1</ele>
        <time>2020-06-16T16:33:30Z</time>
      </trkpt>
      <trkpt lat="49.36466" lon="-0.86336">
        <ele>7.3</ele>
        <time>2020-06-16T16:33:31Z</time>
      </trkpt>
      <trkpt lat="49.36463" lon="-0.86339">
        <ele>7.6</ele>
        <time>2020-06-16T16:33:32Z</time>
      </trkpt>
      <trkpt lat="49.36461" lon="-0.86339">
        <ele>7.7</ele>
        <time>2020-06-16T16:33:33Z</time>
      </trkpt>
      <trkpt lat="49.36458" lon="-0.86342">
        <ele>8.1</ele>
        <time>2020-06-16T16:33:34Z</time>
      </trkpt>
      <trkpt lat="49.36455" lon="-0.86343">
        <ele>8.7</ele>
        <time>2020-06-16T16:33:35Z</time>
      </trkpt>
      <trkpt lat="49.36452" lon="-0.86344">
        <ele>9.1</ele>
        <time>2020-06-16T16:33:36Z</time>
      </trkpt>
      <trkpt lat="49.36451" lon="-0.86345">
        <ele>9.2</ele>
        <time>2020-06-16T16:33:37Z</time>
      </trkpt>
      <trkpt lat="49.36448" lon="-0.86347">
        <ele>9.6</ele>
        <time>2020-06-16T16:33:38Z</time>
      </trkpt>
      <trkpt lat="49.36447" lon="-0.86348">
        <ele>9.7</ele>
        <time>2020-06-16T16:33:39Z</time>
      </trkpt>
      <trkpt lat="49.36446" lon="-0.86349">
        <ele>9.9</ele>
        <time>2020-06-16T16:33:40Z</time>
      </trkpt>
      <trkpt lat="49.36444" lon="-0.8635">
        <ele>10.1</ele>
        <time>2020-06-16T16:33:41Z</time>
      </trkpt>
      <trkpt lat="49.36442" lon="-0.86352">
        <ele>10.4</ele>
        <time>2020-06-16T16:33:42Z</time>
      </trkpt>
      <trkpt lat="49.36441" lon="-0.86353">
        <ele>10.5</ele>
        <time>2020-06-16T16:33:43Z</time>
      </trkpt>
      <trkpt lat="49.36441" lon="-0.86353">
        <ele>10.6</ele>
        <time>2020-06-16T16:33:44Z</time>
      </trkpt>
      <trkpt lat="49.36438" lon="-0.86355">
        <ele>10.9</ele>
        <time>2020-06-16T16:33:45Z</time>
      </trkpt>
      <trkpt lat="49.36437" lon="-0.86356">
        <ele>11.1</ele>
        <time>2020-06-16T16:33:46Z</time>
      </trkpt>
      <trkpt lat="49.36434" lon="-0.86358">
        <ele>11.2</ele>
        <time>2020-06-16T16:33:47Z</time>
      </trkpt>
      <trkpt lat="49.36434" lon="-0.86359">
        <ele>11.2</ele>
        <time>2020-06-16T16:33:48Z</time>
      </trkpt>
      <trkpt lat="49.36431" lon="-0.86361">
        <ele>11.3</ele>
        <time>2020-06-16T16:33:49Z</time>
      </trkpt>
      <trkpt lat="49.3643" lon="-0.86362">
        <ele>11.3</ele>
        <time>2020-06-16T16:33:50Z</time>
      </trkpt>
      <trkpt lat="49.36428" lon="-0.86365">
        <ele>11.8</ele>
        <time>2020-06-16T16:33:51Z</time>
      </trkpt>
      <trkpt lat="49.36427" lon="-0.86365">
        <ele>11.9</ele>
        <time>2020-06-16T16:33:52Z</time>
      </trkpt>
      <trkpt lat="49.36424" lon="-0.86368">
        <ele>12.1</ele>
        <time>2020-06-16T16:33:53Z</time>
      </trkpt>
      <trkpt lat="49.36421" lon="-0.86371">
        <ele>12.3</ele>
        <time>2020-06-16T16:33:54Z</time>
      </trkpt>
      <trkpt lat="49.36418" lon="-0.86374">
        <ele>12.6</ele>
        <time>2020-06-16T16:33:55Z</time>
      </trkpt>
      <trkpt lat="49.36417" lon="-0.86375">
        <ele>12.8</ele>
        <time>2020-06-16T16:33:56Z</time>
      </trkpt>
      <trkpt lat="49.36414" lon="-0.86377">
        <ele>13.2</ele>
        <time>2020-06-16T16:33:57Z</time>
      </trkpt>
      <trkpt lat="49.36411" lon="-0.8638">
        <ele>13.7</ele>
        <time>2020-06-16T16:33:58Z</time>
      </trkpt>
      <trkpt lat="49.36408" lon="-0.86383">
        <ele>14.1</ele>
        <time>2020-06-16T16:33:59Z</time>
      </trkpt>
      <trkpt lat="49.36405" lon="-0.86386">
        <ele>14.5</ele>
        <time>2020-06-16T16:34:00Z</time>
      </trkpt>
      <trkpt lat="49.36402" lon="-0.86389">
        <ele>14.9</ele>
        <time>2020-06-16T16:34:01Z</time>
      </trkpt>
      <trkpt lat="49.36401" lon="-0.8639">
        <ele>15.1</ele>
        <time>2020-06-16T16:34:02Z</time>
      </trkpt>
      <trkpt lat="49.36399" lon="-0.86393">
        <ele>15.5</ele>
        <time>2020-06-16T16:34:03Z</time>
      </trkpt>
      <trkpt lat="49.36398" lon="-0.86394">
        <ele>15.6</ele>
        <time>2020-06-16T16:34:04Z</time>
      </trkpt>
      <trkpt lat="49.36395" lon="-0.86398">
        <ele>16</ele>
        <time>2020-06-16T16:34:05Z</time>
      </trkpt>
      <trkpt lat="49.36394" lon="-0.86399">
        <ele>16.2</ele>
        <time>2020-06-16T16:34:06Z</time>
      </trkpt>
      <trkpt lat="49.36391" lon="-0.86402">
        <ele>16.5</ele>
        <time>2020-06-16T16:34:07Z</time>
      </trkpt>
      <trkpt lat="49.36388" lon="-0.86405">
        <ele>16.9</ele>
        <time>2020-06-16T16:34:08Z</time>
      </trkpt>
      <trkpt lat="49.36387" lon="-0.86406">
        <ele>17</ele>
        <time>2020-06-16T16:34:09Z</time>
      </trkpt>
      <trkpt lat="49.36385" lon="-0.86409">
        <ele>17.3</ele>
        <time>2020-06-16T16:34:10Z</time>
      </trkpt>
      <trkpt lat="49.36383" lon="-0.86411">
        <ele>17.6</ele>
        <time>2020-06-16T16:34:11Z</time>
      </trkpt>
      <trkpt lat="49.36379" lon="-0.86414">
        <ele>18</ele>
        <time>2020-06-16T16:34:12Z</time>
      </trkpt>
      <trkpt lat="49.36378" lon="-0.86415">
        <ele>18.1</ele>
        <time>2020-06-16T16:34:13Z</time>
      </trkpt>
      <trkpt lat="49.36375" lon="-0.86418">
        <ele>18.5</ele>
        <time>2020-06-16T16:34:14Z</time>
      </trkpt>
      <trkpt lat="49.36374" lon="-0.86419">
        <ele>18.7</ele>
        <time>2020-06-16T16:34:15Z</time>
      </trkpt>
      <trkpt lat="49.36372" lon="-0.86421">
        <ele>19</ele>
        <time>2020-06-16T16:34:16Z</time>
      </trkpt>
      <trkpt lat="49.36371" lon="-0.86422">
        <ele>19.1</ele>
        <time>2020-06-16T16:34:17Z</time>
      </trkpt>
      <trkpt lat="49.36368" lon="-0.86425">
        <ele>19.4</ele>
        <time>2020-06-16T16:34:18Z</time>
      </trkpt>
      <trkpt lat="49.36367" lon="-0.86426">
        <ele>19.5</ele>
        <time>2020-06-16T16:34:19Z</time>
      </trkpt>
      <trkpt lat="49.36366" lon="-0.86427">
        <ele>19.7</ele>
        <time>2020-06-16T16:34:20Z</time>
      </trkpt>
      <trkpt lat="49.36364" lon="-0.86429">
        <ele>19.9</ele>
        <time>2020-06-16T16:34:21Z</time>
      </trkpt>
      <trkpt lat="49.36363" lon="-0.8643">
        <ele>20.1</ele>
        <time>2020-06-16T16:34:22Z</time>
      </trkpt>
      <trkpt lat="49.36362" lon="-0.86432">
        <ele>20.2</ele>
        <time>2020-06-16T16:34:23Z</time>
      </trkpt>
      <trkpt lat="49.36359" lon="-0.86434">
        <ele>20.5</ele>
        <time>2020-06-16T16:34:24Z</time>
      </trkpt>
      <trkpt lat="49.36358" lon="-0.86435">
        <ele>20.6</ele>
        <time>2020-06-16T16:34:25Z</time>
      </trkpt>
      <trkpt lat="49.36356" lon="-0.86437">
        <ele>20.9</ele>
        <time>2020-06-16T16:34:26Z</time>
      </trkpt>
      <trkpt lat="49.36355" lon="-0.86437">
        <ele>21</ele>
        <time>2020-06-16T16:34:27Z</time>
      </trkpt>
      <trkpt lat="49.36354" lon="-0.86438">
        <ele>21.1</ele>
        <time>2020-06-16T16:34:28Z</time>
      </trkpt>
      <trkpt lat="49.36353" lon="-0.86439">
        <ele>21.3</ele>
        <time>2020-06-16T16:34:29Z</time>
      </trkpt>
      <trkpt lat="49.36349" lon="-0.86441">
        <ele>21.6</ele>
        <time>2020-06-16T16:34:30Z</time>
      </trkpt>
      <trkpt lat="49.36348" lon="-0.86442">
        <ele>21.7</ele>
        <time>2020-06-16T16:34:31Z</time>
      </trkpt>
      <trkpt lat="49.36345" lon="-0.86444">
        <ele>22</ele>
        <time>2020-06-16T16:34:32Z</time>
      </trkpt>
      <trkpt lat="49.36344" lon="-0.86445">
        <ele>22.1</ele>
        <time>2020-06-16T16:34:33Z</time>
      </trkpt>
      <trkpt lat="49.36342" lon="-0.86449">
        <ele>22.4</ele>
        <time>2020-06-16T16:34:34Z</time>
      </trkpt>
      <trkpt lat="49.36341" lon="-0.8645">
        <ele>22.5</ele>
        <time>2020-06-16T16:34:35Z</time>
      </trkpt>
      <trkpt lat="49.36338" lon="-0.86453">
        <ele>22.8</ele>
        <time>2020-06-16T16:34:36Z</time>
      </trkpt>
      <trkpt lat="49.36338" lon="-0.86455">
        <ele>22.9</ele>
        <time>2020-06-16T16:34:37Z</time>
      </trkpt>
      <trkpt lat="49.36335" lon="-0.86458">
        <ele>23.2</ele>
        <time>2020-06-16T16:34:38Z</time>
      </trkpt>
      <trkpt lat="49.36333" lon="-0.86459">
        <ele>23.3</ele>
        <time>2020-06-16T16:34:39Z</time>
      </trkpt>
      <trkpt lat="49.36331" lon="-0.86462">
        <ele>23.6</ele>
        <time>2020-06-16T16:34:40Z</time>
      </trkpt>
      <trkpt lat="49.3633" lon="-0.86463">
        <ele>23.7</ele>
        <time>2020-06-16T16:34:41Z</time>
      </trkpt>
      <trkpt lat="49.36326" lon="-0.86466">
        <ele>24</ele>
        <time>2020-06-16T16:34:42Z</time>
      </trkpt>
      <trkpt lat="49.36325" lon="-0.86467">
        <ele>24.1</ele>
        <time>2020-06-16T16:34:43Z</time>
      </trkpt>
      <trkpt lat="49.36323" lon="-0.86469">
        <ele>24.4</ele>
        <time>2020-06-16T16:34:44Z</time>
      </trkpt>
      <trkpt lat="49.36319" lon="-0.86471">
        <ele>24.6</ele>
        <time>2020-06-16T16:34:45Z</time>
      </trkpt>
      <trkpt lat="49.36318" lon="-0.86472">
        <ele>24.7</ele>
        <time>2020-06-16T16:34:46Z</time>
      </trkpt>
      <trkpt lat="49.36316" lon="-0.86475">
        <ele>24.9</ele>
        <time>2020-06-16T16:34:47Z</time>
      </trkpt>
      <trkpt lat="49.36313" lon="-0.86477">
        <ele>25.2</ele>
        <time>2020-06-16T16:34:48Z</time>
      </trkpt>
      <trkpt lat="49.36309" lon="-0.8648">
        <ele>25.4</ele>
        <time>2020-06-16T16:34:49Z</time>
      </trkpt>
      <trkpt lat="49.36308" lon="-0.86481">
        <ele>25.5</ele>
        <time>2020-06-16T16:34:50Z</time>
      </trkpt>
      <trkpt lat="49.36305" lon="-0.86483">
        <ele>25.8</ele>
        <time>2020-06-16T16:34:51Z</time>
      </trkpt>
      <trkpt lat="49.36304" lon="-0.86484">
        <ele>25.9</ele>
        <time>2020-06-16T16:34:52Z</time>
      </trkpt>
      <trkpt lat="49.36301" lon="-0.86487">
        <ele>26.1</ele>
        <time>2020-06-16T16:34:53Z</time>
      </trkpt>
      <trkpt lat="49.363" lon="-0.86487">
        <ele>26.2</ele>
        <time>2020-06-16T16:34:54Z</time>
      </trkpt>
      <trkpt lat="49.36297" lon="-0.8649">
        <ele>26.5</ele>
        <time>2020-06-16T16:34:55Z</time>
      </trkpt>
      <trkpt lat="49.36296" lon="-0.86491">
        <ele>26.6</ele>
        <time>2020-06-16T16:34:56Z</time>
      </trkpt>
      <trkpt lat="49.36293" lon="-0.86495">
        <ele>26.9</ele>
        <time>2020-06-16T16:34:57Z</time>
      </trkpt>
      <trkpt lat="49.36291" lon="-0.86496">
        <ele>27</ele>
        <time>2020-06-16T16:34:58Z</time>
      </trkpt>
      <trkpt lat="49.36288" lon="-0.865">
        <ele>27.3</ele>
        <time>2020-06-16T16:34:59Z</time>
      </trkpt>
      <trkpt lat="49.36287" lon="-0.86501">
        <ele>27.4</ele>
        <time>2020-06-16T16:35:00Z</time>
      </trkpt>
      <trkpt lat="49.36284" lon="-0.86503">
        <ele>27.7</ele>
        <time>2020-06-16T16:35:01Z</time>
      </trkpt>
      <trkpt lat="49.36283" lon="-0.86504">
        <ele>27.8</ele>
        <time>2020-06-16T16:35:02Z</time>
      </trkpt>
      <trkpt lat="49.3628" lon="-0.86506">
        <ele>28</ele>
        <time>2020-06-16T16:35:03Z</time>
      </trkpt>
      <trkpt lat="49.36277" lon="-0.86508">
        <ele>28.2</ele>
        <time>2020-06-16T16:35:04Z</time>
      </trkpt>
      <trkpt lat="49.36274" lon="-0.86511">
        <ele>28.5</ele>
        <time>2020-06-16T16:35:05Z</time>
      </trkpt>
      <trkpt lat="49.36271" lon="-0.86513">
        <ele>28.8</ele>
        <time>2020-06-16T16:35:06Z</time>
      </trkpt>
      <trkpt lat="49.36268" lon="-0.86515">
        <ele>29</ele>
        <time>2020-06-16T16:35:07Z</time>
      </trkpt>
      <trkpt lat="49.36265" lon="-0.86518">
        <ele>29.2</ele>
        <time>2020-06-16T16:35:08Z</time>
      </trkpt>
      <trkpt lat="49.36264" lon="-0.86518">
        <ele>29.3</ele>
        <time>2020-06-16T16:35:09Z</time>
      </trkpt>
      <trkpt lat="49.36261" lon="-0.86522">
        <ele>29.6</ele>
        <time>2020-06-16T16:35:10Z</time>
      </trkpt>
      <trkpt lat="49.3626" lon="-0.86522">
        <ele>29.7</ele>
        <time>2020-06-16T16:35:11Z</time>
      </trkpt>
      <trkpt lat="49.36257" lon="-0.86525">
        <ele>29.9</ele>
        <time>2020-06-16T16:35:12Z</time>
      </trkpt>
      <trkpt lat="49.36256" lon="-0.86526">
        <ele>30</ele>
        <time>2020-06-16T16:35:13Z</time>
      </trkpt>
      <trkpt lat="49.36253" lon="-0.86529">
        <ele>30.3</ele>
        <time>2020-06-16T16:35:14Z</time>
      </trkpt>
      <trkpt lat="49.36252" lon="-0.8653">
        <ele>30.3</ele>
        <time>2020-06-16T16:35:15Z</time>
      </trkpt>
      <trkpt lat="49.3625" lon="-0.86532">
        <ele>30.5</ele>
        <time>2020-06-16T16:35:16Z</time>
      </trkpt>
      <trkpt lat="49.36247" lon="-0.86533">
        <ele>30.8</ele>
        <time>2020-06-16T16:35:17Z</time>
      </trkpt>
      <trkpt lat="49.36244" lon="-0.86536">
        <ele>31</ele>
        <time>2020-06-16T16:35:18Z</time>
      </trkpt>
      <trkpt lat="49.36243" lon="-0.86537">
        <ele>31.1</ele>
        <time>2020-06-16T16:35:19Z</time>
      </trkpt>
      <trkpt lat="49.3624" lon="-0.86541">
        <ele>31.4</ele>
        <time>2020-06-16T16:35:20Z</time>
      </trkpt>
      <trkpt lat="49.36239" lon="-0.86542">
        <ele>31.5</ele>
        <time>2020-06-16T16:35:21Z</time>
      </trkpt>
      <trkpt lat="49.36235" lon="-0.86545">
        <ele>31.8</ele>
        <time>2020-06-16T16:35:22Z</time>
      </trkpt>
      <trkpt lat="49.36234" lon="-0.86546">
        <ele>31.9</ele>
        <time>2020-06-16T16:35:23Z</time>
      </trkpt>
      <trkpt lat="49.36231" lon="-0.86549">
        <ele>32.2</ele>
        <time>2020-06-16T16:35:24Z</time>
      </trkpt>
      <trkpt lat="49.3623" lon="-0.8655">
        <ele>32.3</ele>
        <time>2020-06-16T16:35:25Z</time>
      </trkpt>
      <trkpt lat="49.36227" lon="-0.86553">
        <ele>32.5</ele>
        <time>2020-06-16T16:35:26Z</time>
      </trkpt>
      <trkpt lat="49.36226" lon="-0.86554">
        <ele>32.6</ele>
        <time>2020-06-16T16:35:27Z</time>
      </trkpt>
      <trkpt lat="49.36225" lon="-0.86555">
        <ele>32.8</ele>
        <time>2020-06-16T16:35:28Z</time>
      </trkpt>
      <trkpt lat="49.36223" lon="-0.86556">
        <ele>32.9</ele>
        <time>2020-06-16T16:35:29Z</time>
      </trkpt>
      <trkpt lat="49.3622" lon="-0.86557">
        <ele>33.1</ele>
        <time>2020-06-16T16:35:30Z</time>
      </trkpt>
      <trkpt lat="49.36219" lon="-0.86558">
        <ele>33.2</ele>
        <time>2020-06-16T16:35:31Z</time>
      </trkpt>
      <trkpt lat="49.36217" lon="-0.86561">
        <ele>33.4</ele>
        <time>2020-06-16T16:35:32Z</time>
      </trkpt>
      <trkpt lat="49.36214" lon="-0.86563">
        <ele>33.7</ele>
        <time>2020-06-16T16:35:33Z</time>
      </trkpt>
      <trkpt lat="49.36211" lon="-0.86565">
        <ele>33.9</ele>
        <time>2020-06-16T16:35:34Z</time>
      </trkpt>
      <trkpt lat="49.36211" lon="-0.86566">
        <ele>34</ele>
        <time>2020-06-16T16:35:35Z</time>
      </trkpt>
      <trkpt lat="49.36208" lon="-0.86569">
        <ele>34.3</ele>
        <time>2020-06-16T16:35:36Z</time>
      </trkpt>
      <trkpt lat="49.36208" lon="-0.8657">
        <ele>34.4</ele>
        <time>2020-06-16T16:35:37Z</time>
      </trkpt>
      <trkpt lat="49.36205" lon="-0.86574">
        <ele>34.7</ele>
        <time>2020-06-16T16:35:38Z</time>
      </trkpt>
      <trkpt lat="49.36204" lon="-0.86575">
        <ele>34.8</ele>
        <time>2020-06-16T16:35:39Z</time>
      </trkpt>
      <trkpt lat="49.36201" lon="-0.86579">
        <ele>35</ele>
        <time>2020-06-16T16:35:40Z</time>
      </trkpt>
      <trkpt lat="49.362" lon="-0.8658">
        <ele>35.1</ele>
        <time>2020-06-16T16:35:41Z</time>
      </trkpt>
      <trkpt lat="49.36198" lon="-0.86583">
        <ele>35.4</ele>
        <time>2020-06-16T16:35:42Z</time>
      </trkpt>
      <trkpt lat="49.36195" lon="-0.86585">
        <ele>35.7</ele>
        <time>2020-06-16T16:35:43Z</time>
      </trkpt>
      <trkpt lat="49.36194" lon="-0.86586">
        <ele>35.8</ele>
        <time>2020-06-16T16:35:44Z</time>
      </trkpt>
      <trkpt lat="49.36191" lon="-0.86588">
        <ele>36</ele>
        <time>2020-06-16T16:35:45Z</time>
      </trkpt>
      <trkpt lat="49.36189" lon="-0.8659">
        <ele>36.3</ele>
        <time>2020-06-16T16:35:46Z</time>
      </trkpt>
      <trkpt lat="49.36186" lon="-0.86593">
        <ele>36.6</ele>
        <time>2020-06-16T16:35:47Z</time>
      </trkpt>
      <trkpt lat="49.36185" lon="-0.86593">
        <ele>36.7</ele>
        <time>2020-06-16T16:35:48Z</time>
      </trkpt>
      <trkpt lat="49.36182" lon="-0.86596">
        <ele>36.9</ele>
        <time>2020-06-16T16:35:49Z</time>
      </trkpt>
      <trkpt lat="49.36181" lon="-0.86597">
        <ele>37</ele>
        <time>2020-06-16T16:35:50Z</time>
      </trkpt>
      <trkpt lat="49.36179" lon="-0.866">
        <ele>37.3</ele>
        <time>2020-06-16T16:35:51Z</time>
      </trkpt>
      <trkpt lat="49.36177" lon="-0.86603">
        <ele>37.5</ele>
        <time>2020-06-16T16:35:52Z</time>
      </trkpt>
      <trkpt lat="49.36175" lon="-0.86607">
        <ele>37.8</ele>
        <time>2020-06-16T16:35:53Z</time>
      </trkpt>
      <trkpt lat="49.36174" lon="-0.86608">
        <ele>37.9</ele>
        <time>2020-06-16T16:35:54Z</time>
      </trkpt>
      <trkpt lat="49.36172" lon="-0.86611">
        <ele>38.2</ele>
        <time>2020-06-16T16:35:55Z</time>
      </trkpt>
      <trkpt lat="49.36171" lon="-0.86612">
        <ele>38.3</ele>
        <time>2020-06-16T16:35:56Z</time>
      </trkpt>
      <trkpt lat="49.36167" lon="-0.86612">
        <ele>38.6</ele>
        <time>2020-06-16T16:35:57Z</time>
      </trkpt>
      <trkpt lat="49.36166" lon="-0.86612">
        <ele>38.7</ele>
        <time>2020-06-16T16:35:58Z</time>
      </trkpt>
      <trkpt lat="49.36162" lon="-0.86615">
        <ele>39</ele>
        <time>2020-06-16T16:35:59Z</time>
      </trkpt>
      <trkpt lat="49.36161" lon="-0.86615">
        <ele>39.1</ele>
        <time>2020-06-16T16:36:00Z</time>
      </trkpt>
      <trkpt lat="49.36159" lon="-0.86617">
        <ele>39.4</ele>
        <time>2020-06-16T16:36:01Z</time>
      </trkpt>
      <trkpt lat="49.36156" lon="-0.86619">
        <ele>39.7</ele>
        <time>2020-06-16T16:36:02Z</time>
      </trkpt>
      <trkpt lat="49.36153" lon="-0.86621">
        <ele>40</ele>
        <time>2020-06-16T16:36:03Z</time>
      </trkpt>
      <trkpt lat="49.36149" lon="-0.86622">
        <ele>40.4</ele>
        <time>2020-06-16T16:36:04Z</time>
      </trkpt>
      <trkpt lat="49.36146" lon="-0.86621">
        <ele>40.7</ele>
        <time>2020-06-16T16:36:05Z</time>
      </trkpt>
      <trkpt lat="49.36143" lon="-0.86622">
        <ele>40.9</ele>
        <time>2020-06-16T16:36:06Z</time>
      </trkpt>
      <trkpt lat="49.36139" lon="-0.86622">
        <ele>41.3</ele>
        <time>2020-06-16T16:36:07Z</time>
      </trkpt>
      <trkpt lat="49.36135" lon="-0.86623">
        <ele>41.7</ele>
        <time>2020-06-16T16:36:08Z</time>
      </trkpt>
      <trkpt lat="49.36131" lon="-0.86623">
        <ele>42.1</ele>
        <time>2020-06-16T16:36:09Z</time>
      </trkpt>
      <trkpt lat="49.36127" lon="-0.86626">
        <ele>42.5</ele>
        <time>2020-06-16T16:36:10Z</time>
      </trkpt>
      <trkpt lat="49.36123" lon="-0.86628">
        <ele>42.9</ele>
        <time>2020-06-16T16:36:11Z</time>
      </trkpt>
      <trkpt lat="49.3612" lon="-0.86631">
        <ele>43.3</ele>
        <time>2020-06-16T16:36:12Z</time>
      </trkpt>
      <trkpt lat="49.36117" lon="-0.86633">
        <ele>43.6</ele>
        <time>2020-06-16T16:36:13Z</time>
      </trkpt>
      <trkpt lat="49.36114" lon="-0.86637">
        <ele>44</ele>
        <time>2020-06-16T16:36:14Z</time>
      </trkpt>
      <trkpt lat="49.36112" lon="-0.8664">
        <ele>44.3</ele>
        <time>2020-06-16T16:36:15Z</time>
      </trkpt>
      <trkpt lat="49.3611" lon="-0.86645">
        <ele>45.1</ele>
        <time>2020-06-16T16:36:16Z</time>
      </trkpt>
      <trkpt lat="49.36109" lon="-0.8665">
        <ele>45.2</ele>
        <time>2020-06-16T16:36:17Z</time>
      </trkpt>
      <trkpt lat="49.36109" lon="-0.86652">
        <ele>45.2</ele>
        <time>2020-06-16T16:36:18Z</time>
      </trkpt>
      <trkpt lat="49.3611" lon="-0.86657">
        <ele>45.4</ele>
        <time>2020-06-16T16:36:19Z</time>
      </trkpt>
      <trkpt lat="49.36111" lon="-0.86662">
        <ele>45.6</ele>
        <time>2020-06-16T16:36:20Z</time>
      </trkpt>
      <trkpt lat="49.36112" lon="-0.86667">
        <ele>45.8</ele>
        <time>2020-06-16T16:36:21Z</time>
      </trkpt>
      <trkpt lat="49.36114" lon="-0.86673">
        <ele>46</ele>
        <time>2020-06-16T16:36:22Z</time>
      </trkpt>
      <trkpt lat="49.36115" lon="-0.8668">
        <ele>46.3</ele>
        <time>2020-06-16T16:36:23Z</time>
      </trkpt>
      <trkpt lat="49.36116" lon="-0.86685">
        <ele>46.5</ele>
        <time>2020-06-16T16:36:24Z</time>
      </trkpt>
      <trkpt lat="49.36117" lon="-0.8669">
        <ele>46.7</ele>
        <time>2020-06-16T16:36:25Z</time>
      </trkpt>
      <trkpt lat="49.36118" lon="-0.86695">
        <ele>46.9</ele>
        <time>2020-06-16T16:36:26Z</time>
      </trkpt>
      <trkpt lat="49.36119" lon="-0.86701">
        <ele>47.1</ele>
        <time>2020-06-16T16:36:27Z</time>
      </trkpt>
      <trkpt lat="49.3612" lon="-0.86706">
        <ele>47.3</ele>
        <time>2020-06-16T16:36:28Z</time>
      </trkpt>
      <trkpt lat="49.36121" lon="-0.8671">
        <ele>47.5</ele>
        <time>2020-06-16T16:36:29Z</time>
      </trkpt>
      <trkpt lat="49.36123" lon="-0.86716">
        <ele>47.7</ele>
        <time>2020-06-16T16:36:30Z</time>
      </trkpt>
      <trkpt lat="49.36123" lon="-0.86718">
        <ele>47.8</ele>
        <time>2020-06-16T16:36:31Z</time>
      </trkpt>
      <trkpt lat="49.36124" lon="-0.86722">
        <ele>48</ele>
        <time>2020-06-16T16:36:32Z</time>
      </trkpt>
      <trkpt lat="49.36125" lon="-0.86727">
        <ele>48.2</ele>
        <time>2020-06-16T16:36:33Z</time>
      </trkpt>
      <trkpt lat="49.36126" lon="-0.86731">
        <ele>48.3</ele>
        <time>2020-06-16T16:36:34Z</time>
      </trkpt>
      <trkpt lat="49.36127" lon="-0.86736">
        <ele>48.5</ele>
        <time>2020-06-16T16:36:35Z</time>
      </trkpt>
      <trkpt lat="49.36128" lon="-0.8674">
        <ele>48.6</ele>
        <time>2020-06-16T16:36:36Z</time>
      </trkpt>
      <trkpt lat="49.36129" lon="-0.86745">
        <ele>48.7</ele>
        <time>2020-06-16T16:36:37Z</time>
      </trkpt>
      <trkpt lat="49.3613" lon="-0.86749">
        <ele>48.8</ele>
        <time>2020-06-16T16:36:38Z</time>
      </trkpt>
      <trkpt lat="49.3613" lon="-0.86754">
        <ele>48.9</ele>
        <time>2020-06-16T16:36:39Z</time>
      </trkpt>
      <trkpt lat="49.36131" lon="-0.86758">
        <ele>48.9</ele>
        <time>2020-06-16T16:36:40Z</time>
      </trkpt>
      <trkpt lat="49.36132" lon="-0.86763">
        <ele>49</ele>
        <time>2020-06-16T16:36:41Z</time>
      </trkpt>
      <trkpt lat="49.36132" lon="-0.86767">
        <ele>49</ele>
        <time>2020-06-16T16:36:42Z</time>
      </trkpt>
      <trkpt lat="49.36133" lon="-0.86773">
        <ele>49.1</ele>
        <time>2020-06-16T16:36:43Z</time>
      </trkpt>
      <trkpt lat="49.36132" lon="-0.86778">
        <ele>49.1</ele>
        <time>2020-06-16T16:36:44Z</time>
      </trkpt>
      <trkpt lat="49.36132" lon="-0.86783">
        <ele>49.1</ele>
        <time>2020-06-16T16:36:45Z</time>
      </trkpt>
      <trkpt lat="49.36131" lon="-0.86789">
        <ele>49.1</ele>
        <time>2020-06-16T16:36:46Z</time>
      </trkpt>
      <trkpt lat="49.36131" lon="-0.86795">
        <ele>49</ele>
        <time>2020-06-16T16:36:47Z</time>
      </trkpt>
      <trkpt lat="49.36131" lon="-0.86801">
        <ele>49</ele>
        <time>2020-06-16T16:36:48Z</time>
      </trkpt>
      <trkpt lat="49.3613" lon="-0.86806">
        <ele>49</ele>
        <time>2020-06-16T16:36:49Z</time>
      </trkpt>
      <trkpt lat="49.36129" lon="-0.86812">
        <ele>48.9</ele>
        <time>2020-06-16T16:36:50Z</time>
      </trkpt>
      <trkpt lat="49.36128" lon="-0.86817">
        <ele>48.9</ele>
        <time>2020-06-16T16:36:51Z</time>
      </trkpt>
      <trkpt lat="49.36127" lon="-0.86823">
        <ele>48.9</ele>
        <time>2020-06-16T16:36:52Z</time>
      </trkpt>
      <trkpt lat="49.36127" lon="-0.86828">
        <ele>48.8</ele>
        <time>2020-06-16T16:36:53Z</time>
      </trkpt>
      <trkpt lat="49.36126" lon="-0.86834">
        <ele>48.8</ele>
        <time>2020-06-16T16:36:54Z</time>
      </trkpt>
      <trkpt lat="49.36125" lon="-0.86839">
        <ele>48.8</ele>
        <time>2020-06-16T16:36:55Z</time>
      </trkpt>
      <trkpt lat="49.36124" lon="-0.86845">
        <ele>48.7</ele>
        <time>2020-06-16T16:36:56Z</time>
      </trkpt>
      <trkpt lat="49.36123" lon="-0.86851">
        <ele>48.7</ele>
        <time>2020-06-16T16:36:57Z</time>
      </trkpt>
      <trkpt lat="49.36122" lon="-0.86856">
        <ele>48.6</ele>
        <time>2020-06-16T16:36:58Z</time>
      </trkpt>
      <trkpt lat="49.36121" lon="-0.86861">
        <ele>48.6</ele>
        <time>2020-06-16T16:36:59Z</time>
      </trkpt>
      <trkpt lat="49.3612" lon="-0.86866">
        <ele>48.5</ele>
        <time>2020-06-16T16:37:00Z</time>
      </trkpt>
      <trkpt lat="49.36118" lon="-0.86872">
        <ele>48.5</ele>
        <time>2020-06-16T16:37:01Z</time>
      </trkpt>
      <trkpt lat="49.36116" lon="-0.86878">
        <ele>48.5</ele>
        <time>2020-06-16T16:37:02Z</time>
      </trkpt>
      <trkpt lat="49.36115" lon="-0.86883">
        <ele>48.4</ele>
        <time>2020-06-16T16:37:03Z</time>
      </trkpt>
      <trkpt lat="49.36113" lon="-0.86888">
        <ele>48.4</ele>
        <time>2020-06-16T16:37:04Z</time>
      </trkpt>
      <trkpt lat="49.3611" lon="-0.86893">
        <ele>48.3</ele>
        <time>2020-06-16T16:37:05Z</time>
      </trkpt>
      <trkpt lat="49.36107" lon="-0.86899">
        <ele>48.3</ele>
        <time>2020-06-16T16:37:06Z</time>
      </trkpt>
      <trkpt lat="49.36104" lon="-0.86904">
        <ele>48.2</ele>
        <time>2020-06-16T16:37:07Z</time>
      </trkpt>
      <trkpt lat="49.36101" lon="-0.86909">
        <ele>48.1</ele>
        <time>2020-06-16T16:37:08Z</time>
      </trkpt>
      <trkpt lat="49.36098" lon="-0.86915">
        <ele>48.1</ele>
        <time>2020-06-16T16:37:09Z</time>
      </trkpt>
      <trkpt lat="49.36095" lon="-0.86922">
        <ele>48</ele>
        <time>2020-06-16T16:37:10Z</time>
      </trkpt>
      <trkpt lat="49.36092" lon="-0.86928">
        <ele>47.9</ele>
        <time>2020-06-16T16:37:11Z</time>
      </trkpt>
      <trkpt lat="49.36089" lon="-0.86934">
        <ele>47.7</ele>
        <time>2020-06-16T16:37:12Z</time>
      </trkpt>
      <trkpt lat="49.36086" lon="-0.8694">
        <ele>47.6</ele>
        <time>2020-06-16T16:37:13Z</time>
      </trkpt>
      <trkpt lat="49.36083" lon="-0.86945">
        <ele>47.5</ele>
        <time>2020-06-16T16:37:14Z</time>
      </trkpt>
      <trkpt lat="49.3608" lon="-0.8695">
        <ele>47.5</ele>
        <time>2020-06-16T16:37:15Z</time>
      </trkpt>
      <trkpt lat="49.36076" lon="-0.86957">
        <ele>47.3</ele>
        <time>2020-06-16T16:37:16Z</time>
      </trkpt>
      <trkpt lat="49.36073" lon="-0.86963">
        <ele>47.2</ele>
        <time>2020-06-16T16:37:17Z</time>
      </trkpt>
      <trkpt lat="49.3607" lon="-0.8697">
        <ele>47.1</ele>
        <time>2020-06-16T16:37:18Z</time>
      </trkpt>
      <trkpt lat="49.36067" lon="-0.86978">
        <ele>47</ele>
        <time>2020-06-16T16:37:19Z</time>
      </trkpt>
      <trkpt lat="49.36064" lon="-0.86985">
        <ele>46.9</ele>
        <time>2020-06-16T16:37:20Z</time>
      </trkpt>
      <trkpt lat="49.36061" lon="-0.86991">
        <ele>46.7</ele>
        <time>2020-06-16T16:37:21Z</time>
      </trkpt>
      <trkpt lat="49.36058" lon="-0.86998">
        <ele>46.6</ele>
        <time>2020-06-16T16:37:22Z</time>
      </trkpt>
      <trkpt lat="49.36054" lon="-0.87006">
        <ele>46.5</ele>
        <time>2020-06-16T16:37:23Z</time>
      </trkpt>
      <trkpt lat="49.36052" lon="-0.87015">
        <ele>46.4</ele>
        <time>2020-06-16T16:37:24Z</time>
      </trkpt>
      <trkpt lat="49.3605" lon="-0.87024">
        <ele>46.2</ele>
        <time>2020-06-16T16:37:25Z</time>
      </trkpt>
      <trkpt lat="49.36048" lon="-0.87033">
        <ele>46.2</ele>
        <time>2020-06-16T16:37:26Z</time>
      </trkpt>
      <trkpt lat="49.36047" lon="-0.87042">
        <ele>46.1</ele>
        <time>2020-06-16T16:37:27Z</time>
      </trkpt>
      <trkpt lat="49.36045" lon="-0.87051">
        <ele>46.1</ele>
        <time>2020-06-16T16:37:28Z</time>
      </trkpt>
      <trkpt lat="49.36043" lon="-0.87058">
        <ele>46</ele>
        <time>2020-06-16T16:37:29Z</time>
      </trkpt>
      <trkpt lat="49.3604" lon="-0.87065">
        <ele>45.9</ele>
        <time>2020-06-16T16:37:30Z</time>
      </trkpt>
      <trkpt lat="49.36037" lon="-0.87071">
        <ele>45.9</ele>
        <time>2020-06-16T16:37:31Z</time>
      </trkpt>
      <trkpt lat="49.36033" lon="-0.87076">
        <ele>45.8</ele>
        <time>2020-06-16T16:37:32Z</time>
      </trkpt>
      <trkpt lat="49.36028" lon="-0.8708">
        <ele>45.8</ele>
        <time>2020-06-16T16:37:33Z</time>
      </trkpt>
      <trkpt lat="49.36023" lon="-0.87083">
        <ele>45.7</ele>
        <time>2020-06-16T16:37:34Z</time>
      </trkpt>
      <trkpt lat="49.36018" lon="-0.87085">
        <ele>45.8</ele>
        <time>2020-06-16T16:37:35Z</time>
      </trkpt>
      <trkpt lat="49.36013" lon="-0.87087">
        <ele>45.8</ele>
        <time>2020-06-16T16:37:36Z</time>
      </trkpt>
      <trkpt lat="49.36008" lon="-0.87089">
        <ele>45.8</ele>
        <time>2020-06-16T16:37:37Z</time>
      </trkpt>
      <trkpt lat="49.36003" lon="-0.87091">
        <ele>45.8</ele>
        <time>2020-06-16T16:37:38Z</time>
      </trkpt>
      <trkpt lat="49.35998" lon="-0.87096">
        <ele>45.9</ele>
        <time>2020-06-16T16:37:39Z</time>
      </trkpt>
      <trkpt lat="49.35994" lon="-0.87101">
        <ele>45.9</ele>
        <time>2020-06-16T16:37:40Z</time>
      </trkpt>
      <trkpt lat="49.3599" lon="-0.87106">
        <ele>46</ele>
        <time>2020-06-16T16:37:41Z</time>
      </trkpt>
      <trkpt lat="49.35987" lon="-0.87112">
        <ele>46</ele>
        <time>2020-06-16T16:37:42Z</time>
      </trkpt>
      <trkpt lat="49.35983" lon="-0.8712">
        <ele>46.1</ele>
        <time>2020-06-16T16:37:43Z</time>
      </trkpt>
      <trkpt lat="49.3598" lon="-0.87127">
        <ele>46.1</ele>
        <time>2020-06-16T16:37:44Z</time>
      </trkpt>
      <trkpt lat="49.35977" lon="-0.87135">
        <ele>46.1</ele>
        <time>2020-06-16T16:37:45Z</time>
      </trkpt>
      <trkpt lat="49.35974" lon="-0.87142">
        <ele>46.2</ele>
        <time>2020-06-16T16:37:46Z</time>
      </trkpt>
      <trkpt lat="49.35971" lon="-0.87149">
        <ele>46.2</ele>
        <time>2020-06-16T16:37:47Z</time>
      </trkpt>
      <trkpt lat="49.35968" lon="-0.87157">
        <ele>46.2</ele>
        <time>2020-06-16T16:37:48Z</time>
      </trkpt>
      <trkpt lat="49.35965" lon="-0.87164">
        <ele>46.2</ele>
        <time>2020-06-16T16:37:49Z</time>
      </trkpt>
      <trkpt lat="49.35962" lon="-0.87171">
        <ele>46.3</ele>
        <time>2020-06-16T16:37:50Z</time>
      </trkpt>
      <trkpt lat="49.35959" lon="-0.87178">
        <ele>46.3</ele>
        <time>2020-06-16T16:37:51Z</time>
      </trkpt>
      <trkpt lat="49.35957" lon="-0.87183">
        <ele>46.3</ele>
        <time>2020-06-16T16:37:52Z</time>
      </trkpt>
      <trkpt lat="49.35954" lon="-0.87191">
        <ele>46.3</ele>
        <time>2020-06-16T16:37:53Z</time>
      </trkpt>
      <trkpt lat="49.35951" lon="-0.87197">
        <ele>46.4</ele>
        <time>2020-06-16T16:37:54Z</time>
      </trkpt>
      <trkpt lat="49.35948" lon="-0.87204">
        <ele>46.4</ele>
        <time>2020-06-16T16:37:55Z</time>
      </trkpt>
      <trkpt lat="49.35946" lon="-0.87211">
        <ele>46.4</ele>
        <time>2020-06-16T16:37:56Z</time>
      </trkpt>
      <trkpt lat="49.35943" lon="-0.87218">
        <ele>46.5</ele>
        <time>2020-06-16T16:37:57Z</time>
      </trkpt>
      <trkpt lat="49.35941" lon="-0.87225">
        <ele>46.6</ele>
        <time>2020-06-16T16:37:58Z</time>
      </trkpt>
      <trkpt lat="49.35939" lon="-0.87231">
        <ele>46.6</ele>
        <time>2020-06-16T16:37:59Z</time>
      </trkpt>
      <trkpt lat="49.35936" lon="-0.87237">
        <ele>46.7</ele>
        <time>2020-06-16T16:38:00Z</time>
      </trkpt>
      <trkpt lat="49.35933" lon="-0.87244">
        <ele>46.7</ele>
        <time>2020-06-16T16:38:01Z</time>
      </trkpt>
      <trkpt lat="49.3593" lon="-0.87253">
        <ele>46.8</ele>
        <time>2020-06-16T16:38:02Z</time>
      </trkpt>
      <trkpt lat="49.35927" lon="-0.87262">
        <ele>46.8</ele>
        <time>2020-06-16T16:38:03Z</time>
      </trkpt>
      <trkpt lat="49.35925" lon="-0.87269">
        <ele>46.9</ele>
        <time>2020-06-16T16:38:04Z</time>
      </trkpt>
      <trkpt lat="49.35923" lon="-0.87275">
        <ele>46.9</ele>
        <time>2020-06-16T16:38:05Z</time>
      </trkpt>
      <trkpt lat="49.35921" lon="-0.87281">
        <ele>47</ele>
        <time>2020-06-16T16:38:06Z</time>
      </trkpt>
      <trkpt lat="49.35919" lon="-0.87287">
        <ele>47</ele>
        <time>2020-06-16T16:38:07Z</time>
      </trkpt>
      <trkpt lat="49.35918" lon="-0.87292">
        <ele>47.1</ele>
        <time>2020-06-16T16:38:08Z</time>
      </trkpt>
      <trkpt lat="49.35916" lon="-0.87298">
        <ele>47.2</ele>
        <time>2020-06-16T16:38:09Z</time>
      </trkpt>
      <trkpt lat="49.35913" lon="-0.87303">
        <ele>47.2</ele>
        <time>2020-06-16T16:38:10Z</time>
      </trkpt>
      <trkpt lat="49.35911" lon="-0.87308">
        <ele>47.3</ele>
        <time>2020-06-16T16:38:11Z</time>
      </trkpt>
      <trkpt lat="49.35909" lon="-0.87314">
        <ele>47.4</ele>
        <time>2020-06-16T16:38:12Z</time>
      </trkpt>
      <trkpt lat="49.35908" lon="-0.8732">
        <ele>47.6</ele>
        <time>2020-06-16T16:38:13Z</time>
      </trkpt>
      <trkpt lat="49.35906" lon="-0.87326">
        <ele>47.6</ele>
        <time>2020-06-16T16:38:14Z</time>
      </trkpt>
      <trkpt lat="49.35905" lon="-0.87333">
        <ele>47.6</ele>
        <time>2020-06-16T16:38:15Z</time>
      </trkpt>
      <trkpt lat="49.35904" lon="-0.87338">
        <ele>47.6</ele>
        <time>2020-06-16T16:38:16Z</time>
      </trkpt>
      <trkpt lat="49.35903" lon="-0.87344">
        <ele>47.6</ele>
        <time>2020-06-16T16:38:17Z</time>
      </trkpt>
      <trkpt lat="49.35902" lon="-0.8735">
        <ele>47.6</ele>
        <time>2020-06-16T16:38:18Z</time>
      </trkpt>
      <trkpt lat="49.35902" lon="-0.87357">
        <ele>47.6</ele>
        <time>2020-06-16T16:38:19Z</time>
      </trkpt>
      <trkpt lat="49.35901" lon="-0.87363">
        <ele>47.5</ele>
        <time>2020-06-16T16:38:20Z</time>
      </trkpt>
      <trkpt lat="49.35901" lon="-0.87369">
        <ele>47.5</ele>
        <time>2020-06-16T16:38:21Z</time>
      </trkpt>
      <trkpt lat="49.359" lon="-0.87375">
        <ele>47.5</ele>
        <time>2020-06-16T16:38:22Z</time>
      </trkpt>
      <trkpt lat="49.35899" lon="-0.87381">
        <ele>47.5</ele>
        <time>2020-06-16T16:38:23Z</time>
      </trkpt>
      <trkpt lat="49.35898" lon="-0.87387">
        <ele>47.4</ele>
        <time>2020-06-16T16:38:24Z</time>
      </trkpt>
      <trkpt lat="49.35897" lon="-0.87396">
        <ele>47.4</ele>
        <time>2020-06-16T16:38:25Z</time>
      </trkpt>
      <trkpt lat="49.35897" lon="-0.87405">
        <ele>47.3</ele>
        <time>2020-06-16T16:38:26Z</time>
      </trkpt>
      <trkpt lat="49.35897" lon="-0.87412">
        <ele>47.2</ele>
        <time>2020-06-16T16:38:27Z</time>
      </trkpt>
      <trkpt lat="49.35898" lon="-0.87418">
        <ele>47.2</ele>
        <time>2020-06-16T16:38:28Z</time>
      </trkpt>
      <trkpt lat="49.35898" lon="-0.87424">
        <ele>47.2</ele>
        <time>2020-06-16T16:38:29Z</time>
      </trkpt>
      <trkpt lat="49.35898" lon="-0.87431">
        <ele>47.1</ele>
        <time>2020-06-16T16:38:30Z</time>
      </trkpt>
      <trkpt lat="49.35898" lon="-0.87439">
        <ele>47.1</ele>
        <time>2020-06-16T16:38:31Z</time>
      </trkpt>
      <trkpt lat="49.35898" lon="-0.87446">
        <ele>47</ele>
        <time>2020-06-16T16:38:32Z</time>
      </trkpt>
      <trkpt lat="49.35898" lon="-0.87453">
        <ele>47</ele>
        <time>2020-06-16T16:38:33Z</time>
      </trkpt>
      <trkpt lat="49.35899" lon="-0.8746">
        <ele>47</ele>
        <time>2020-06-16T16:38:34Z</time>
      </trkpt>
      <trkpt lat="49.359" lon="-0.87468">
        <ele>46.9</ele>
        <time>2020-06-16T16:38:35Z</time>
      </trkpt>
      <trkpt lat="49.359" lon="-0.87475">
        <ele>46.9</ele>
        <time>2020-06-16T16:38:36Z</time>
      </trkpt>
      <trkpt lat="49.35901" lon="-0.87483">
        <ele>46.8</ele>
        <time>2020-06-16T16:38:37Z</time>
      </trkpt>
      <trkpt lat="49.35902" lon="-0.8749">
        <ele>46.8</ele>
        <time>2020-06-16T16:38:38Z</time>
      </trkpt>
      <trkpt lat="49.35903" lon="-0.87497">
        <ele>46.7</ele>
        <time>2020-06-16T16:38:39Z</time>
      </trkpt>
      <trkpt lat="49.35902" lon="-0.87503">
        <ele>46.7</ele>
        <time>2020-06-16T16:38:40Z</time>
      </trkpt>
      <trkpt lat="49.35901" lon="-0.87508">
        <ele>46.7</ele>
        <time>2020-06-16T16:38:41Z</time>
      </trkpt>
      <trkpt lat="49.359" lon="-0.87514">
        <ele>46.6</ele>
        <time>2020-06-16T16:38:42Z</time>
      </trkpt>
      <trkpt lat="49.35899" lon="-0.8752">
        <ele>46.6</ele>
        <time>2020-06-16T16:38:43Z</time>
      </trkpt>
      <trkpt lat="49.35899" lon="-0.87529">
        <ele>46.5</ele>
        <time>2020-06-16T16:38:44Z</time>
      </trkpt>
      <trkpt lat="49.35898" lon="-0.87537">
        <ele>46.5</ele>
        <time>2020-06-16T16:38:45Z</time>
      </trkpt>
      <trkpt lat="49.35896" lon="-0.87546">
        <ele>46.4</ele>
        <time>2020-06-16T16:38:46Z</time>
      </trkpt>
      <trkpt lat="49.35893" lon="-0.87555">
        <ele>46.4</ele>
        <time>2020-06-16T16:38:47Z</time>
      </trkpt>
      <trkpt lat="49.35891" lon="-0.87563">
        <ele>46.3</ele>
        <time>2020-06-16T16:38:48Z</time>
      </trkpt>
      <trkpt lat="49.35889" lon="-0.87572">
        <ele>46.3</ele>
        <time>2020-06-16T16:38:49Z</time>
      </trkpt>
      <trkpt lat="49.35887" lon="-0.8758">
        <ele>46.3</ele>
        <time>2020-06-16T16:38:50Z</time>
      </trkpt>
      <trkpt lat="49.35886" lon="-0.87587">
        <ele>46.3</ele>
        <time>2020-06-16T16:38:51Z</time>
      </trkpt>
      <trkpt lat="49.35886" lon="-0.87593">
        <ele>46.3</ele>
        <time>2020-06-16T16:38:52Z</time>
      </trkpt>
      <trkpt lat="49.35885" lon="-0.87602">
        <ele>46.3</ele>
        <time>2020-06-16T16:38:53Z</time>
      </trkpt>
      <trkpt lat="49.35884" lon="-0.87609">
        <ele>46.3</ele>
        <time>2020-06-16T16:38:54Z</time>
      </trkpt>
      <trkpt lat="49.35883" lon="-0.87616">
        <ele>46.4</ele>
        <time>2020-06-16T16:38:55Z</time>
      </trkpt>
      <trkpt lat="49.35881" lon="-0.87623">
        <ele>46.4</ele>
        <time>2020-06-16T16:38:56Z</time>
      </trkpt>
      <trkpt lat="49.35878" lon="-0.87627">
        <ele>46.5</ele>
        <time>2020-06-16T16:38:57Z</time>
      </trkpt>
      <trkpt lat="49.35874" lon="-0.87628">
        <ele>46.9</ele>
        <time>2020-06-16T16:38:58Z</time>
      </trkpt>
      <trkpt lat="49.3587" lon="-0.87628">
        <ele>46.9</ele>
        <time>2020-06-16T16:38:59Z</time>
      </trkpt>
      <trkpt lat="49.35867" lon="-0.87627">
        <ele>47</ele>
        <time>2020-06-16T16:39:00Z</time>
      </trkpt>
      <trkpt lat="49.35864" lon="-0.87625">
        <ele>47</ele>
        <time>2020-06-16T16:39:01Z</time>
      </trkpt>
      <trkpt lat="49.35861" lon="-0.87623">
        <ele>47</ele>
        <time>2020-06-16T16:39:02Z</time>
      </trkpt>
      <trkpt lat="49.35857" lon="-0.87623">
        <ele>47.1</ele>
        <time>2020-06-16T16:39:03Z</time>
      </trkpt>
      <trkpt lat="49.35853" lon="-0.87621">
        <ele>47.1</ele>
        <time>2020-06-16T16:39:04Z</time>
      </trkpt>
      <trkpt lat="49.3585" lon="-0.8762">
        <ele>47.1</ele>
        <time>2020-06-16T16:39:05Z</time>
      </trkpt>
      <trkpt lat="49.35847" lon="-0.87618">
        <ele>47.2</ele>
        <time>2020-06-16T16:39:06Z</time>
      </trkpt>
      <trkpt lat="49.35843" lon="-0.87619">
        <ele>47.3</ele>
        <time>2020-06-16T16:39:07Z</time>
      </trkpt>
      <trkpt lat="49.3584" lon="-0.87618">
        <ele>47.4</ele>
        <time>2020-06-16T16:39:08Z</time>
      </trkpt>
      <trkpt lat="49.35837" lon="-0.87616">
        <ele>47.5</ele>
        <time>2020-06-16T16:39:09Z</time>
      </trkpt>
      <trkpt lat="49.35833" lon="-0.87614">
        <ele>47.6</ele>
        <time>2020-06-16T16:39:10Z</time>
      </trkpt>
      <trkpt lat="49.35829" lon="-0.87613">
        <ele>47.8</ele>
        <time>2020-06-16T16:39:11Z</time>
      </trkpt>
      <trkpt lat="49.35826" lon="-0.87611">
        <ele>47.9</ele>
        <time>2020-06-16T16:39:12Z</time>
      </trkpt>
      <trkpt lat="49.35822" lon="-0.8761">
        <ele>48</ele>
        <time>2020-06-16T16:39:13Z</time>
      </trkpt>
      <trkpt lat="49.35818" lon="-0.87608">
        <ele>48.2</ele>
        <time>2020-06-16T16:39:14Z</time>
      </trkpt>
      <trkpt lat="49.35814" lon="-0.87607">
        <ele>48.3</ele>
        <time>2020-06-16T16:39:15Z</time>
      </trkpt>
      <trkpt lat="49.35811" lon="-0.87606">
        <ele>48.4</ele>
        <time>2020-06-16T16:39:16Z</time>
      </trkpt>
      <trkpt lat="49.35806" lon="-0.87604">
        <ele>48.5</ele>
        <time>2020-06-16T16:39:17Z</time>
      </trkpt>
      <trkpt lat="49.35802" lon="-0.87601">
        <ele>48.7</ele>
        <time>2020-06-16T16:39:18Z</time>
      </trkpt>
      <trkpt lat="49.35798" lon="-0.87598">
        <ele>48.9</ele>
        <time>2020-06-16T16:39:19Z</time>
      </trkpt>
      <trkpt lat="49.35793" lon="-0.87596">
        <ele>49</ele>
        <time>2020-06-16T16:39:20Z</time>
      </trkpt>
      <trkpt lat="49.35788" lon="-0.87594">
        <ele>49.2</ele>
        <time>2020-06-16T16:39:21Z</time>
      </trkpt>
      <trkpt lat="49.35783" lon="-0.87591">
        <ele>49.3</ele>
        <time>2020-06-16T16:39:22Z</time>
      </trkpt>
      <trkpt lat="49.35778" lon="-0.8759">
        <ele>49.5</ele>
        <time>2020-06-16T16:39:23Z</time>
      </trkpt>
      <trkpt lat="49.35774" lon="-0.87588">
        <ele>49.6</ele>
        <time>2020-06-16T16:39:24Z</time>
      </trkpt>
      <trkpt lat="49.3577" lon="-0.87585">
        <ele>49.8</ele>
        <time>2020-06-16T16:39:25Z</time>
      </trkpt>
      <trkpt lat="49.35766" lon="-0.87579">
        <ele>49.9</ele>
        <time>2020-06-16T16:39:26Z</time>
      </trkpt>
      <trkpt lat="49.35763" lon="-0.87577">
        <ele>50.1</ele>
        <time>2020-06-16T16:39:27Z</time>
      </trkpt>
      <trkpt lat="49.3576" lon="-0.87574">
        <ele>50.2</ele>
        <time>2020-06-16T16:39:28Z</time>
      </trkpt>
      <trkpt lat="49.35757" lon="-0.87573">
        <ele>50.3</ele>
        <time>2020-06-16T16:39:29Z</time>
      </trkpt>
      <trkpt lat="49.35754" lon="-0.8757">
        <ele>50.4</ele>
        <time>2020-06-16T16:39:30Z</time>
      </trkpt>
      <trkpt lat="49.35751" lon="-0.87567">
        <ele>50.5</ele>
        <time>2020-06-16T16:39:31Z</time>
      </trkpt>
      <trkpt lat="49.35747" lon="-0.87563">
        <ele>50.7</ele>
        <time>2020-06-16T16:39:32Z</time>
      </trkpt>
      <trkpt lat="49.35744" lon="-0.87561">
        <ele>50.8</ele>
        <time>2020-06-16T16:39:33Z</time>
      </trkpt>
      <trkpt lat="49.35741" lon="-0.87559">
        <ele>50.9</ele>
        <time>2020-06-16T16:39:34Z</time>
      </trkpt>
      <trkpt lat="49.35737" lon="-0.87556">
        <ele>51</ele>
        <time>2020-06-16T16:39:35Z</time>
      </trkpt>
      <trkpt lat="49.35734" lon="-0.87551">
        <ele>51.2</ele>
        <time>2020-06-16T16:39:36Z</time>
      </trkpt>
      <trkpt lat="49.3573" lon="-0.87546">
        <ele>51.4</ele>
        <time>2020-06-16T16:39:37Z</time>
      </trkpt>
      <trkpt lat="49.35726" lon="-0.87542">
        <ele>51.5</ele>
        <time>2020-06-16T16:39:38Z</time>
      </trkpt>
      <trkpt lat="49.35724" lon="-0.87539">
        <ele>51.6</ele>
        <time>2020-06-16T16:39:39Z</time>
      </trkpt>
      <trkpt lat="49.35721" lon="-0.87536">
        <ele>51.8</ele>
        <time>2020-06-16T16:39:40Z</time>
      </trkpt>
      <trkpt lat="49.35719" lon="-0.87533">
        <ele>51.9</ele>
        <time>2020-06-16T16:39:41Z</time>
      </trkpt>
      <trkpt lat="49.35716" lon="-0.87528">
        <ele>52</ele>
        <time>2020-06-16T16:39:42Z</time>
      </trkpt>
      <trkpt lat="49.35712" lon="-0.87524">
        <ele>52.2</ele>
        <time>2020-06-16T16:39:43Z</time>
      </trkpt>
      <trkpt lat="49.35709" lon="-0.87519">
        <ele>52.3</ele>
        <time>2020-06-16T16:39:44Z</time>
      </trkpt>
      <trkpt lat="49.35706" lon="-0.87514">
        <ele>52.5</ele>
        <time>2020-06-16T16:39:45Z</time>
      </trkpt>
      <trkpt lat="49.35702" lon="-0.87509">
        <ele>52.7</ele>
        <time>2020-06-16T16:39:46Z</time>
      </trkpt>
      <trkpt lat="49.35698" lon="-0.87505">
        <ele>52.8</ele>
        <time>2020-06-16T16:39:47Z</time>
      </trkpt>
      <trkpt lat="49.35695" lon="-0.87501">
        <ele>53</ele>
        <time>2020-06-16T16:39:48Z</time>
      </trkpt>
      <trkpt lat="49.35692" lon="-0.87496">
        <ele>53.2</ele>
        <time>2020-06-16T16:39:49Z</time>
      </trkpt>
      <trkpt lat="49.35688" lon="-0.87492">
        <ele>53.3</ele>
        <time>2020-06-16T16:39:50Z</time>
      </trkpt>
      <trkpt lat="49.35684" lon="-0.87488">
        <ele>53.5</ele>
        <time>2020-06-16T16:39:51Z</time>
      </trkpt>
      <trkpt lat="49.3568" lon="-0.87483">
        <ele>53.6</ele>
        <time>2020-06-16T16:39:52Z</time>
      </trkpt>
      <trkpt lat="49.35677" lon="-0.87479">
        <ele>53.8</ele>
        <time>2020-06-16T16:39:53Z</time>
      </trkpt>
      <trkpt lat="49.35673" lon="-0.87475">
        <ele>53.9</ele>
        <time>2020-06-16T16:39:54Z</time>
      </trkpt>
      <trkpt lat="49.3567" lon="-0.87469">
        <ele>54</ele>
        <time>2020-06-16T16:39:55Z</time>
      </trkpt>
      <trkpt lat="49.35666" lon="-0.87465">
        <ele>54.2</ele>
        <time>2020-06-16T16:39:56Z</time>
      </trkpt>
      <trkpt lat="49.35663" lon="-0.87461">
        <ele>54.3</ele>
        <time>2020-06-16T16:39:57Z</time>
      </trkpt>
      <trkpt lat="49.3566" lon="-0.87456">
        <ele>54.4</ele>
        <time>2020-06-16T16:39:58Z</time>
      </trkpt>
      <trkpt lat="49.35657" lon="-0.8745">
        <ele>54.6</ele>
        <time>2020-06-16T16:39:59Z</time>
      </trkpt>
      <trkpt lat="49.35654" lon="-0.87445">
        <ele>54.7</ele>
        <time>2020-06-16T16:40:00Z</time>
      </trkpt>
      <trkpt lat="49.35652" lon="-0.8744">
        <ele>54.8</ele>
        <time>2020-06-16T16:40:01Z</time>
      </trkpt>
      <trkpt lat="49.35648" lon="-0.87434">
        <ele>55</ele>
        <time>2020-06-16T16:40:02Z</time>
      </trkpt>
      <trkpt lat="49.35645" lon="-0.87429">
        <ele>55.1</ele>
        <time>2020-06-16T16:40:03Z</time>
      </trkpt>
      <trkpt lat="49.35642" lon="-0.87423">
        <ele>55.2</ele>
        <time>2020-06-16T16:40:04Z</time>
      </trkpt>
      <trkpt lat="49.35639" lon="-0.87417">
        <ele>55.3</ele>
        <time>2020-06-16T16:40:05Z</time>
      </trkpt>
      <trkpt lat="49.35637" lon="-0.87412">
        <ele>55.4</ele>
        <time>2020-06-16T16:40:06Z</time>
      </trkpt>
      <trkpt lat="49.35635" lon="-0.87405">
        <ele>55.5</ele>
        <time>2020-06-16T16:40:07Z</time>
      </trkpt>
      <trkpt lat="49.35632" lon="-0.874">
        <ele>55.6</ele>
        <time>2020-06-16T16:40:08Z</time>
      </trkpt>
      <trkpt lat="49.35629" lon="-0.87392">
        <ele>55.7</ele>
        <time>2020-06-16T16:40:09Z</time>
      </trkpt>
      <trkpt lat="49.35627" lon="-0.87386">
        <ele>55.8</ele>
        <time>2020-06-16T16:40:10Z</time>
      </trkpt>
      <trkpt lat="49.35624" lon="-0.8738">
        <ele>55.9</ele>
        <time>2020-06-16T16:40:11Z</time>
      </trkpt>
      <trkpt lat="49.35621" lon="-0.87374">
        <ele>55.9</ele>
        <time>2020-06-16T16:40:12Z</time>
      </trkpt>
      <trkpt lat="49.35618" lon="-0.87368">
        <ele>55.9</ele>
        <time>2020-06-16T16:40:13Z</time>
      </trkpt>
      <trkpt lat="49.35616" lon="-0.87362">
        <ele>56</ele>
        <time>2020-06-16T16:40:14Z</time>
      </trkpt>
      <trkpt lat="49.35612" lon="-0.87356">
        <ele>56</ele>
        <time>2020-06-16T16:40:15Z</time>
      </trkpt>
      <trkpt lat="49.35609" lon="-0.8735">
        <ele>56.1</ele>
        <time>2020-06-16T16:40:16Z</time>
      </trkpt>
      <trkpt lat="49.35605" lon="-0.87343">
        <ele>56.1</ele>
        <time>2020-06-16T16:40:17Z</time>
      </trkpt>
      <trkpt lat="49.35601" lon="-0.87337">
        <ele>56.1</ele>
        <time>2020-06-16T16:40:18Z</time>
      </trkpt>
      <trkpt lat="49.35596" lon="-0.87331">
        <ele>56.1</ele>
        <time>2020-06-16T16:40:19Z</time>
      </trkpt>
      <trkpt lat="49.35592" lon="-0.87326">
        <ele>56.2</ele>
        <time>2020-06-16T16:40:20Z</time>
      </trkpt>
      <trkpt lat="49.35588" lon="-0.87319">
        <ele>56.3</ele>
        <time>2020-06-16T16:40:21Z</time>
      </trkpt>
      <trkpt lat="49.35585" lon="-0.87314">
        <ele>56.4</ele>
        <time>2020-06-16T16:40:22Z</time>
      </trkpt>
      <trkpt lat="49.35581" lon="-0.8731">
        <ele>56.4</ele>
        <time>2020-06-16T16:40:23Z</time>
      </trkpt>
      <trkpt lat="49.35578" lon="-0.87304">
        <ele>56.5</ele>
        <time>2020-06-16T16:40:24Z</time>
      </trkpt>
      <trkpt lat="49.35574" lon="-0.87298">
        <ele>56.5</ele>
        <time>2020-06-16T16:40:25Z</time>
      </trkpt>
      <trkpt lat="49.35571" lon="-0.87293">
        <ele>56.6</ele>
        <time>2020-06-16T16:40:26Z</time>
      </trkpt>
      <trkpt lat="49.35568" lon="-0.87288">
        <ele>56.6</ele>
        <time>2020-06-16T16:40:27Z</time>
      </trkpt>
      <trkpt lat="49.35564" lon="-0.87283">
        <ele>56.7</ele>
        <time>2020-06-16T16:40:28Z</time>
      </trkpt>
      <trkpt lat="49.35561" lon="-0.87277">
        <ele>56.7</ele>
        <time>2020-06-16T16:40:29Z</time>
      </trkpt>
      <trkpt lat="49.35557" lon="-0.87271">
        <ele>56.7</ele>
        <time>2020-06-16T16:40:30Z</time>
      </trkpt>
      <trkpt lat="49.35552" lon="-0.87263">
        <ele>56.7</ele>
        <time>2020-06-16T16:40:31Z</time>
      </trkpt>
      <trkpt lat="49.35547" lon="-0.87255">
        <ele>56.6</ele>
        <time>2020-06-16T16:40:32Z</time>
      </trkpt>
      <trkpt lat="49.35542" lon="-0.87249">
        <ele>56.6</ele>
        <time>2020-06-16T16:40:33Z</time>
      </trkpt>
      <trkpt lat="49.35538" lon="-0.87242">
        <ele>56.5</ele>
        <time>2020-06-16T16:40:34Z</time>
      </trkpt>
      <trkpt lat="49.35533" lon="-0.87236">
        <ele>56.5</ele>
        <time>2020-06-16T16:40:35Z</time>
      </trkpt>
      <trkpt lat="49.35527" lon="-0.8723">
        <ele>56.4</ele>
        <time>2020-06-16T16:40:36Z</time>
      </trkpt>
      <trkpt lat="49.35522" lon="-0.87224">
        <ele>56.4</ele>
        <time>2020-06-16T16:40:37Z</time>
      </trkpt>
      <trkpt lat="49.35517" lon="-0.87217">
        <ele>56.4</ele>
        <time>2020-06-16T16:40:38Z</time>
      </trkpt>
      <trkpt lat="49.35512" lon="-0.8721">
        <ele>56.3</ele>
        <time>2020-06-16T16:40:39Z</time>
      </trkpt>
      <trkpt lat="49.35508" lon="-0.87204">
        <ele>56.3</ele>
        <time>2020-06-16T16:40:40Z</time>
      </trkpt>
      <trkpt lat="49.35503" lon="-0.87197">
        <ele>56.3</ele>
        <time>2020-06-16T16:40:41Z</time>
      </trkpt>
      <trkpt lat="49.35498" lon="-0.8719">
        <ele>56.2</ele>
        <time>2020-06-16T16:40:42Z</time>
      </trkpt>
      <trkpt lat="49.35492" lon="-0.87183">
        <ele>56.2</ele>
        <time>2020-06-16T16:40:43Z</time>
      </trkpt>
      <trkpt lat="49.35487" lon="-0.87176">
        <ele>56.2</ele>
        <time>2020-06-16T16:40:44Z</time>
      </trkpt>
      <trkpt lat="49.35482" lon="-0.87171">
        <ele>56.2</ele>
        <time>2020-06-16T16:40:45Z</time>
      </trkpt>
      <trkpt lat="49.35478" lon="-0.87165">
        <ele>56.2</ele>
        <time>2020-06-16T16:40:46Z</time>
      </trkpt>
      <trkpt lat="49.35472" lon="-0.8716">
        <ele>56.2</ele>
        <time>2020-06-16T16:40:47Z</time>
      </trkpt>
      <trkpt lat="49.35467" lon="-0.87155">
        <ele>56.3</ele>
        <time>2020-06-16T16:40:48Z</time>
      </trkpt>
      <trkpt lat="49.35462" lon="-0.87151">
        <ele>56.3</ele>
        <time>2020-06-16T16:40:49Z</time>
      </trkpt>
      <trkpt lat="49.35457" lon="-0.87146">
        <ele>56.3</ele>
        <time>2020-06-16T16:40:50Z</time>
      </trkpt>
      <trkpt lat="49.35451" lon="-0.87143">
        <ele>56.4</ele>
        <time>2020-06-16T16:40:51Z</time>
      </trkpt>
      <trkpt lat="49.35445" lon="-0.87139">
        <ele>56.4</ele>
        <time>2020-06-16T16:40:52Z</time>
      </trkpt>
      <trkpt lat="49.35439" lon="-0.87136">
        <ele>56.5</ele>
        <time>2020-06-16T16:40:53Z</time>
      </trkpt>
      <trkpt lat="49.35435" lon="-0.87133">
        <ele>56.6</ele>
        <time>2020-06-16T16:40:54Z</time>
      </trkpt>
      <trkpt lat="49.3543" lon="-0.87131">
        <ele>56.7</ele>
        <time>2020-06-16T16:40:55Z</time>
      </trkpt>
      <trkpt lat="49.35424" lon="-0.87129">
        <ele>56.8</ele>
        <time>2020-06-16T16:40:56Z</time>
      </trkpt>
      <trkpt lat="49.3542" lon="-0.87128">
        <ele>56.9</ele>
        <time>2020-06-16T16:40:57Z</time>
      </trkpt>
      <trkpt lat="49.35417" lon="-0.87126">
        <ele>57</ele>
        <time>2020-06-16T16:40:58Z</time>
      </trkpt>
      <trkpt lat="49.35412" lon="-0.87125">
        <ele>57.1</ele>
        <time>2020-06-16T16:40:59Z</time>
      </trkpt>
      <trkpt lat="49.35407" lon="-0.87123">
        <ele>57.2</ele>
        <time>2020-06-16T16:41:00Z</time>
      </trkpt>
      <trkpt lat="49.35403" lon="-0.87121">
        <ele>57.3</ele>
        <time>2020-06-16T16:41:01Z</time>
      </trkpt>
      <trkpt lat="49.35399" lon="-0.87119">
        <ele>57.4</ele>
        <time>2020-06-16T16:41:02Z</time>
      </trkpt>
      <trkpt lat="49.35394" lon="-0.87117">
        <ele>57.6</ele>
        <time>2020-06-16T16:41:03Z</time>
      </trkpt>
      <trkpt lat="49.35389" lon="-0.87114">
        <ele>57.7</ele>
        <time>2020-06-16T16:41:04Z</time>
      </trkpt>
      <trkpt lat="49.35384" lon="-0.8711">
        <ele>57.8</ele>
        <time>2020-06-16T16:41:05Z</time>
      </trkpt>
      <trkpt lat="49.3538" lon="-0.87107">
        <ele>57.9</ele>
        <time>2020-06-16T16:41:06Z</time>
      </trkpt>
      <trkpt lat="49.35376" lon="-0.87104">
        <ele>58</ele>
        <time>2020-06-16T16:41:07Z</time>
      </trkpt>
      <trkpt lat="49.35372" lon="-0.87099">
        <ele>58.1</ele>
        <time>2020-06-16T16:41:08Z</time>
      </trkpt>
      <trkpt lat="49.35368" lon="-0.87094">
        <ele>58.2</ele>
        <time>2020-06-16T16:41:09Z</time>
      </trkpt>
      <trkpt lat="49.35363" lon="-0.87089">
        <ele>58.3</ele>
        <time>2020-06-16T16:41:10Z</time>
      </trkpt>
      <trkpt lat="49.35359" lon="-0.87083">
        <ele>58.4</ele>
        <time>2020-06-16T16:41:11Z</time>
      </trkpt>
      <trkpt lat="49.35356" lon="-0.87079">
        <ele>58.4</ele>
        <time>2020-06-16T16:41:12Z</time>
      </trkpt>
      <trkpt lat="49.35352" lon="-0.87073">
        <ele>58.5</ele>
        <time>2020-06-16T16:41:13Z</time>
      </trkpt>
      <trkpt lat="49.35349" lon="-0.87068">
        <ele>58.6</ele>
        <time>2020-06-16T16:41:14Z</time>
      </trkpt>
      <trkpt lat="49.35346" lon="-0.87064">
        <ele>58.6</ele>
        <time>2020-06-16T16:41:15Z</time>
      </trkpt>
      <trkpt lat="49.35343" lon="-0.87058">
        <ele>58.7</ele>
        <time>2020-06-16T16:41:16Z</time>
      </trkpt>
      <trkpt lat="49.35341" lon="-0.8705">
        <ele>58.8</ele>
        <time>2020-06-16T16:41:17Z</time>
      </trkpt>
      <trkpt lat="49.35338" lon="-0.87041">
        <ele>58.9</ele>
        <time>2020-06-16T16:41:18Z</time>
      </trkpt>
      <trkpt lat="49.35335" lon="-0.87036">
        <ele>58.9</ele>
        <time>2020-06-16T16:41:19Z</time>
      </trkpt>
      <trkpt lat="49.35332" lon="-0.87028">
        <ele>59</ele>
        <time>2020-06-16T16:41:20Z</time>
      </trkpt>
      <trkpt lat="49.3533" lon="-0.87021">
        <ele>59</ele>
        <time>2020-06-16T16:41:21Z</time>
      </trkpt>
      <trkpt lat="49.35327" lon="-0.87015">
        <ele>59</ele>
        <time>2020-06-16T16:41:22Z</time>
      </trkpt>
      <trkpt lat="49.35325" lon="-0.87008">
        <ele>59</ele>
        <time>2020-06-16T16:41:23Z</time>
      </trkpt>
      <trkpt lat="49.35322" lon="-0.87001">
        <ele>59</ele>
        <time>2020-06-16T16:41:24Z</time>
      </trkpt>
      <trkpt lat="49.3532" lon="-0.86994">
        <ele>59</ele>
        <time>2020-06-16T16:41:25Z</time>
      </trkpt>
      <trkpt lat="49.35318" lon="-0.86986">
        <ele>59</ele>
        <time>2020-06-16T16:41:26Z</time>
      </trkpt>
      <trkpt lat="49.35316" lon="-0.86979">
        <ele>59.1</ele>
        <time>2020-06-16T16:41:27Z</time>
      </trkpt>
      <trkpt lat="49.35313" lon="-0.86971">
        <ele>59.1</ele>
        <time>2020-06-16T16:41:28Z</time>
      </trkpt>
      <trkpt lat="49.3531" lon="-0.86962">
        <ele>59.2</ele>
        <time>2020-06-16T16:41:29Z</time>
      </trkpt>
      <trkpt lat="49.35308" lon="-0.86954">
        <ele>59.2</ele>
        <time>2020-06-16T16:41:30Z</time>
      </trkpt>
      <trkpt lat="49.35305" lon="-0.86945">
        <ele>59.3</ele>
        <time>2020-06-16T16:41:31Z</time>
      </trkpt>
      <trkpt lat="49.35303" lon="-0.86936">
        <ele>59.3</ele>
        <time>2020-06-16T16:41:32Z</time>
      </trkpt>
      <trkpt lat="49.353" lon="-0.86928">
        <ele>59.3</ele>
        <time>2020-06-16T16:41:33Z</time>
      </trkpt>
      <trkpt lat="49.35297" lon="-0.86919">
        <ele>59.3</ele>
        <time>2020-06-16T16:41:34Z</time>
      </trkpt>
      <trkpt lat="49.35294" lon="-0.86911">
        <ele>59.4</ele>
        <time>2020-06-16T16:41:35Z</time>
      </trkpt>
      <trkpt lat="49.35292" lon="-0.86901">
        <ele>59.4</ele>
        <time>2020-06-16T16:41:36Z</time>
      </trkpt>
      <trkpt lat="49.3529" lon="-0.86893">
        <ele>59.4</ele>
        <time>2020-06-16T16:41:37Z</time>
      </trkpt>
      <trkpt lat="49.35287" lon="-0.86885">
        <ele>59.4</ele>
        <time>2020-06-16T16:41:38Z</time>
      </trkpt>
      <trkpt lat="49.35285" lon="-0.86878">
        <ele>59.4</ele>
        <time>2020-06-16T16:41:39Z</time>
      </trkpt>
      <trkpt lat="49.35282" lon="-0.8687">
        <ele>59.4</ele>
        <time>2020-06-16T16:41:40Z</time>
      </trkpt>
      <trkpt lat="49.35279" lon="-0.86862">
        <ele>59.5</ele>
        <time>2020-06-16T16:41:41Z</time>
      </trkpt>
      <trkpt lat="49.35276" lon="-0.86854">
        <ele>59.5</ele>
        <time>2020-06-16T16:41:42Z</time>
      </trkpt>
      <trkpt lat="49.35274" lon="-0.86845">
        <ele>59.5</ele>
        <time>2020-06-16T16:41:43Z</time>
      </trkpt>
      <trkpt lat="49.35272" lon="-0.86837">
        <ele>59.5</ele>
        <time>2020-06-16T16:41:44Z</time>
      </trkpt>
      <trkpt lat="49.3527" lon="-0.8683">
        <ele>59.6</ele>
        <time>2020-06-16T16:41:45Z</time>
      </trkpt>
      <trkpt lat="49.35268" lon="-0.86823">
        <ele>59.6</ele>
        <time>2020-06-16T16:41:46Z</time>
      </trkpt>
      <trkpt lat="49.35265" lon="-0.86815">
        <ele>59.6</ele>
        <time>2020-06-16T16:41:47Z</time>
      </trkpt>
      <trkpt lat="49.35263" lon="-0.86808">
        <ele>59.6</ele>
        <time>2020-06-16T16:41:48Z</time>
      </trkpt>
      <trkpt lat="49.3526" lon="-0.86801">
        <ele>59.6</ele>
        <time>2020-06-16T16:41:49Z</time>
      </trkpt>
      <trkpt lat="49.35258" lon="-0.86793">
        <ele>59.6</ele>
        <time>2020-06-16T16:41:50Z</time>
      </trkpt>
      <trkpt lat="49.35255" lon="-0.86786">
        <ele>59.6</ele>
        <time>2020-06-16T16:41:51Z</time>
      </trkpt>
      <trkpt lat="49.35253" lon="-0.86777">
        <ele>59.6</ele>
        <time>2020-06-16T16:41:52Z</time>
      </trkpt>
      <trkpt lat="49.35251" lon="-0.86769">
        <ele>59.6</ele>
        <time>2020-06-16T16:41:53Z</time>
      </trkpt>
      <trkpt lat="49.35248" lon="-0.86761">
        <ele>59.6</ele>
        <time>2020-06-16T16:41:54Z</time>
      </trkpt>
      <trkpt lat="49.35245" lon="-0.86754">
        <ele>59.7</ele>
        <time>2020-06-16T16:41:55Z</time>
      </trkpt>
      <trkpt lat="49.35243" lon="-0.86747">
        <ele>59.7</ele>
        <time>2020-06-16T16:41:56Z</time>
      </trkpt>
      <trkpt lat="49.3524" lon="-0.86738">
        <ele>59.6</ele>
        <time>2020-06-16T16:41:57Z</time>
      </trkpt>
      <trkpt lat="49.35237" lon="-0.86731">
        <ele>59.6</ele>
        <time>2020-06-16T16:41:58Z</time>
      </trkpt>
      <trkpt lat="49.35234" lon="-0.86724">
        <ele>59.6</ele>
        <time>2020-06-16T16:41:59Z</time>
      </trkpt>
      <trkpt lat="49.35231" lon="-0.86717">
        <ele>59.6</ele>
        <time>2020-06-16T16:42:00Z</time>
      </trkpt>
      <trkpt lat="49.35228" lon="-0.86709">
        <ele>59.6</ele>
        <time>2020-06-16T16:42:01Z</time>
      </trkpt>
      <trkpt lat="49.35224" lon="-0.86702">
        <ele>59.6</ele>
        <time>2020-06-16T16:42:02Z</time>
      </trkpt>
      <trkpt lat="49.35221" lon="-0.86694">
        <ele>59.6</ele>
        <time>2020-06-16T16:42:03Z</time>
      </trkpt>
      <trkpt lat="49.35218" lon="-0.86687">
        <ele>59.6</ele>
        <time>2020-06-16T16:42:04Z</time>
      </trkpt>
      <trkpt lat="49.35214" lon="-0.86679">
        <ele>59.7</ele>
        <time>2020-06-16T16:42:05Z</time>
      </trkpt>
      <trkpt lat="49.35211" lon="-0.86671">
        <ele>59.7</ele>
        <time>2020-06-16T16:42:06Z</time>
      </trkpt>
      <trkpt lat="49.35208" lon="-0.86665">
        <ele>59.7</ele>
        <time>2020-06-16T16:42:07Z</time>
      </trkpt>
      <trkpt lat="49.35205" lon="-0.86658">
        <ele>59.7</ele>
        <time>2020-06-16T16:42:08Z</time>
      </trkpt>
      <trkpt lat="49.35203" lon="-0.8665">
        <ele>59.7</ele>
        <time>2020-06-16T16:42:09Z</time>
      </trkpt>
      <trkpt lat="49.35199" lon="-0.86644">
        <ele>59.6</ele>
        <time>2020-06-16T16:42:10Z</time>
      </trkpt>
      <trkpt lat="49.35196" lon="-0.86637">
        <ele>59.5</ele>
        <time>2020-06-16T16:42:11Z</time>
      </trkpt>
      <trkpt lat="49.35194" lon="-0.86632">
        <ele>59.6</ele>
        <time>2020-06-16T16:42:12Z</time>
      </trkpt>
      <trkpt lat="49.35191" lon="-0.86626">
        <ele>59.7</ele>
        <time>2020-06-16T16:42:13Z</time>
      </trkpt>
      <trkpt lat="49.35188" lon="-0.86619">
        <ele>59.7</ele>
        <time>2020-06-16T16:42:14Z</time>
      </trkpt>
      <trkpt lat="49.35186" lon="-0.86613">
        <ele>59.8</ele>
        <time>2020-06-16T16:42:15Z</time>
      </trkpt>
      <trkpt lat="49.35183" lon="-0.86607">
        <ele>59.9</ele>
        <time>2020-06-16T16:42:16Z</time>
      </trkpt>
      <trkpt lat="49.35179" lon="-0.866">
        <ele>59.9</ele>
        <time>2020-06-16T16:42:17Z</time>
      </trkpt>
      <trkpt lat="49.35176" lon="-0.86593">
        <ele>60</ele>
        <time>2020-06-16T16:42:18Z</time>
      </trkpt>
      <trkpt lat="49.35173" lon="-0.86586">
        <ele>60.1</ele>
        <time>2020-06-16T16:42:19Z</time>
      </trkpt>
      <trkpt lat="49.3517" lon="-0.8658">
        <ele>60.2</ele>
        <time>2020-06-16T16:42:20Z</time>
      </trkpt>
      <trkpt lat="49.35167" lon="-0.86575">
        <ele>60.3</ele>
        <time>2020-06-16T16:42:21Z</time>
      </trkpt>
      <trkpt lat="49.35164" lon="-0.86569">
        <ele>60.4</ele>
        <time>2020-06-16T16:42:22Z</time>
      </trkpt>
      <trkpt lat="49.35161" lon="-0.86562">
        <ele>60.5</ele>
        <time>2020-06-16T16:42:23Z</time>
      </trkpt>
      <trkpt lat="49.35158" lon="-0.86556">
        <ele>60.6</ele>
        <time>2020-06-16T16:42:24Z</time>
      </trkpt>
      <trkpt lat="49.35156" lon="-0.8655">
        <ele>60.8</ele>
        <time>2020-06-16T16:42:25Z</time>
      </trkpt>
      <trkpt lat="49.35153" lon="-0.86543">
        <ele>60.9</ele>
        <time>2020-06-16T16:42:26Z</time>
      </trkpt>
      <trkpt lat="49.35151" lon="-0.86537">
        <ele>61</ele>
        <time>2020-06-16T16:42:27Z</time>
      </trkpt>
      <trkpt lat="49.35148" lon="-0.86532">
        <ele>61.1</ele>
        <time>2020-06-16T16:42:28Z</time>
      </trkpt>
      <trkpt lat="49.35146" lon="-0.86526">
        <ele>61.2</ele>
        <time>2020-06-16T16:42:29Z</time>
      </trkpt>
      <trkpt lat="49.35143" lon="-0.86519">
        <ele>61.4</ele>
        <time>2020-06-16T16:42:30Z</time>
      </trkpt>
      <trkpt lat="49.35141" lon="-0.86513">
        <ele>61.5</ele>
        <time>2020-06-16T16:42:31Z</time>
      </trkpt>
      <trkpt lat="49.35138" lon="-0.86506">
        <ele>61.6</ele>
        <time>2020-06-16T16:42:32Z</time>
      </trkpt>
      <trkpt lat="49.35135" lon="-0.86499">
        <ele>61.8</ele>
        <time>2020-06-16T16:42:33Z</time>
      </trkpt>
      <trkpt lat="49.35132" lon="-0.86493">
        <ele>61.9</ele>
        <time>2020-06-16T16:42:34Z</time>
      </trkpt>
      <trkpt lat="49.35129" lon="-0.86487">
        <ele>62</ele>
        <time>2020-06-16T16:42:35Z</time>
      </trkpt>
      <trkpt lat="49.35127" lon="-0.86481">
        <ele>62.1</ele>
        <time>2020-06-16T16:42:36Z</time>
      </trkpt>
      <trkpt lat="49.35124" lon="-0.86475">
        <ele>62.2</ele>
        <time>2020-06-16T16:42:37Z</time>
      </trkpt>
      <trkpt lat="49.35122" lon="-0.86469">
        <ele>62.3</ele>
        <time>2020-06-16T16:42:38Z</time>
      </trkpt>
      <trkpt lat="49.35119" lon="-0.86463">
        <ele>62.4</ele>
        <time>2020-06-16T16:42:39Z</time>
      </trkpt>
      <trkpt lat="49.35115" lon="-0.86457">
        <ele>62.5</ele>
        <time>2020-06-16T16:42:40Z</time>
      </trkpt>
      <trkpt lat="49.35112" lon="-0.86452">
        <ele>62.6</ele>
        <time>2020-06-16T16:42:41Z</time>
      </trkpt>
      <trkpt lat="49.35109" lon="-0.86445">
        <ele>62.7</ele>
        <time>2020-06-16T16:42:42Z</time>
      </trkpt>
      <trkpt lat="49.35107" lon="-0.86439">
        <ele>62.8</ele>
        <time>2020-06-16T16:42:43Z</time>
      </trkpt>
      <trkpt lat="49.35105" lon="-0.86433">
        <ele>63</ele>
        <time>2020-06-16T16:42:44Z</time>
      </trkpt>
      <trkpt lat="49.35102" lon="-0.86427">
        <ele>63.1</ele>
        <time>2020-06-16T16:42:45Z</time>
      </trkpt>
      <trkpt lat="49.35099" lon="-0.8642">
        <ele>63.2</ele>
        <time>2020-06-16T16:42:46Z</time>
      </trkpt>
      <trkpt lat="49.35096" lon="-0.86413">
        <ele>63.3</ele>
        <time>2020-06-16T16:42:47Z</time>
      </trkpt>
      <trkpt lat="49.35093" lon="-0.86407">
        <ele>63.4</ele>
        <time>2020-06-16T16:42:48Z</time>
      </trkpt>
      <trkpt lat="49.3509" lon="-0.86401">
        <ele>63.5</ele>
        <time>2020-06-16T16:42:49Z</time>
      </trkpt>
      <trkpt lat="49.35087" lon="-0.86393">
        <ele>63.6</ele>
        <time>2020-06-16T16:42:50Z</time>
      </trkpt>
      <trkpt lat="49.35084" lon="-0.86387">
        <ele>63.7</ele>
        <time>2020-06-16T16:42:51Z</time>
      </trkpt>
      <trkpt lat="49.35081" lon="-0.86379">
        <ele>63.8</ele>
        <time>2020-06-16T16:42:52Z</time>
      </trkpt>
      <trkpt lat="49.35078" lon="-0.86372">
        <ele>63.9</ele>
        <time>2020-06-16T16:42:53Z</time>
      </trkpt>
      <trkpt lat="49.35075" lon="-0.86366">
        <ele>64</ele>
        <time>2020-06-16T16:42:54Z</time>
      </trkpt>
      <trkpt lat="49.35073" lon="-0.8636">
        <ele>64.1</ele>
        <time>2020-06-16T16:42:55Z</time>
      </trkpt>
      <trkpt lat="49.3507" lon="-0.86354">
        <ele>64.1</ele>
        <time>2020-06-16T16:42:56Z</time>
      </trkpt>
      <trkpt lat="49.35068" lon="-0.86349">
        <ele>64.2</ele>
        <time>2020-06-16T16:42:57Z</time>
      </trkpt>
      <trkpt lat="49.35065" lon="-0.86344">
        <ele>64.3</ele>
        <time>2020-06-16T16:42:58Z</time>
      </trkpt>
      <trkpt lat="49.35063" lon="-0.86338">
        <ele>64.3</ele>
        <time>2020-06-16T16:42:59Z</time>
      </trkpt>
      <trkpt lat="49.35059" lon="-0.86331">
        <ele>64.4</ele>
        <time>2020-06-16T16:43:00Z</time>
      </trkpt>
      <trkpt lat="49.35055" lon="-0.86324">
        <ele>64.5</ele>
        <time>2020-06-16T16:43:01Z</time>
      </trkpt>
      <trkpt lat="49.35052" lon="-0.86318">
        <ele>64.6</ele>
        <time>2020-06-16T16:43:02Z</time>
      </trkpt>
      <trkpt lat="49.35048" lon="-0.86311">
        <ele>64.7</ele>
        <time>2020-06-16T16:43:03Z</time>
      </trkpt>
      <trkpt lat="49.35045" lon="-0.86303">
        <ele>64.8</ele>
        <time>2020-06-16T16:43:04Z</time>
      </trkpt>
      <trkpt lat="49.35041" lon="-0.86296">
        <ele>64.8</ele>
        <time>2020-06-16T16:43:05Z</time>
      </trkpt>
      <trkpt lat="49.35037" lon="-0.86288">
        <ele>64.9</ele>
        <time>2020-06-16T16:43:06Z</time>
      </trkpt>
      <trkpt lat="49.35034" lon="-0.86282">
        <ele>65</ele>
        <time>2020-06-16T16:43:07Z</time>
      </trkpt>
      <trkpt lat="49.35031" lon="-0.86275">
        <ele>65.1</ele>
        <time>2020-06-16T16:43:08Z</time>
      </trkpt>
      <trkpt lat="49.35028" lon="-0.86268">
        <ele>65.3</ele>
        <time>2020-06-16T16:43:09Z</time>
      </trkpt>
      <trkpt lat="49.35024" lon="-0.86263">
        <ele>65.4</ele>
        <time>2020-06-16T16:43:10Z</time>
      </trkpt>
      <trkpt lat="49.35022" lon="-0.86257">
        <ele>65.5</ele>
        <time>2020-06-16T16:43:11Z</time>
      </trkpt>
      <trkpt lat="49.35019" lon="-0.86251">
        <ele>65.5</ele>
        <time>2020-06-16T16:43:12Z</time>
      </trkpt>
      <trkpt lat="49.35017" lon="-0.86245">
        <ele>65.5</ele>
        <time>2020-06-16T16:43:13Z</time>
      </trkpt>
      <trkpt lat="49.35014" lon="-0.86239">
        <ele>65.6</ele>
        <time>2020-06-16T16:43:14Z</time>
      </trkpt>
      <trkpt lat="49.35011" lon="-0.86233">
        <ele>65.6</ele>
        <time>2020-06-16T16:43:15Z</time>
      </trkpt>
      <trkpt lat="49.35009" lon="-0.86225">
        <ele>65.7</ele>
        <time>2020-06-16T16:43:16Z</time>
      </trkpt>
      <trkpt lat="49.35006" lon="-0.86218">
        <ele>65.7</ele>
        <time>2020-06-16T16:43:17Z</time>
      </trkpt>
      <trkpt lat="49.35004" lon="-0.86211">
        <ele>65.8</ele>
        <time>2020-06-16T16:43:18Z</time>
      </trkpt>
      <trkpt lat="49.35001" lon="-0.86204">
        <ele>65.8</ele>
        <time>2020-06-16T16:43:19Z</time>
      </trkpt>
      <trkpt lat="49.34998" lon="-0.86197">
        <ele>65.9</ele>
        <time>2020-06-16T16:43:20Z</time>
      </trkpt>
      <trkpt lat="49.34994" lon="-0.86189">
        <ele>65.9</ele>
        <time>2020-06-16T16:43:21Z</time>
      </trkpt>
      <trkpt lat="49.34991" lon="-0.86183">
        <ele>66</ele>
        <time>2020-06-16T16:43:22Z</time>
      </trkpt>
      <trkpt lat="49.34988" lon="-0.86175">
        <ele>66.1</ele>
        <time>2020-06-16T16:43:23Z</time>
      </trkpt>
      <trkpt lat="49.34985" lon="-0.86168">
        <ele>66.2</ele>
        <time>2020-06-16T16:43:24Z</time>
      </trkpt>
      <trkpt lat="49.34982" lon="-0.86161">
        <ele>66.2</ele>
        <time>2020-06-16T16:43:25Z</time>
      </trkpt>
      <trkpt lat="49.3498" lon="-0.86153">
        <ele>66.3</ele>
        <time>2020-06-16T16:43:26Z</time>
      </trkpt>
      <trkpt lat="49.34977" lon="-0.86147">
        <ele>66.4</ele>
        <time>2020-06-16T16:43:27Z</time>
      </trkpt>
      <trkpt lat="49.34974" lon="-0.86141">
        <ele>66.4</ele>
        <time>2020-06-16T16:43:28Z</time>
      </trkpt>
      <trkpt lat="49.34971" lon="-0.86135">
        <ele>66.5</ele>
        <time>2020-06-16T16:43:29Z</time>
      </trkpt>
      <trkpt lat="49.34969" lon="-0.86129">
        <ele>66.5</ele>
        <time>2020-06-16T16:43:30Z</time>
      </trkpt>
      <trkpt lat="49.34966" lon="-0.86122">
        <ele>66.6</ele>
        <time>2020-06-16T16:43:31Z</time>
      </trkpt>
      <trkpt lat="49.34964" lon="-0.86116">
        <ele>66.7</ele>
        <time>2020-06-16T16:43:32Z</time>
      </trkpt>
      <trkpt lat="49.3496" lon="-0.86109">
        <ele>66.8</ele>
        <time>2020-06-16T16:43:33Z</time>
      </trkpt>
      <trkpt lat="49.34957" lon="-0.86104">
        <ele>66.9</ele>
        <time>2020-06-16T16:43:34Z</time>
      </trkpt>
      <trkpt lat="49.34954" lon="-0.86098">
        <ele>67</ele>
        <time>2020-06-16T16:43:35Z</time>
      </trkpt>
      <trkpt lat="49.34952" lon="-0.86091">
        <ele>67</ele>
        <time>2020-06-16T16:43:36Z</time>
      </trkpt>
      <trkpt lat="49.34949" lon="-0.86085">
        <ele>67.1</ele>
        <time>2020-06-16T16:43:37Z</time>
      </trkpt>
      <trkpt lat="49.34946" lon="-0.86079">
        <ele>67.1</ele>
        <time>2020-06-16T16:43:38Z</time>
      </trkpt>
      <trkpt lat="49.34943" lon="-0.86074">
        <ele>67.1</ele>
        <time>2020-06-16T16:43:39Z</time>
      </trkpt>
      <trkpt lat="49.3494" lon="-0.86067">
        <ele>67.1</ele>
        <time>2020-06-16T16:43:40Z</time>
      </trkpt>
      <trkpt lat="49.34937" lon="-0.86061">
        <ele>67.1</ele>
        <time>2020-06-16T16:43:41Z</time>
      </trkpt>
      <trkpt lat="49.34934" lon="-0.86054">
        <ele>67.2</ele>
        <time>2020-06-16T16:43:42Z</time>
      </trkpt>
      <trkpt lat="49.34932" lon="-0.86048">
        <ele>67.2</ele>
        <time>2020-06-16T16:43:43Z</time>
      </trkpt>
      <trkpt lat="49.34929" lon="-0.86042">
        <ele>67.3</ele>
        <time>2020-06-16T16:43:44Z</time>
      </trkpt>
      <trkpt lat="49.34927" lon="-0.86037">
        <ele>67.3</ele>
        <time>2020-06-16T16:43:45Z</time>
      </trkpt>
      <trkpt lat="49.34924" lon="-0.8603">
        <ele>67.4</ele>
        <time>2020-06-16T16:43:46Z</time>
      </trkpt>
      <trkpt lat="49.34922" lon="-0.86023">
        <ele>67.4</ele>
        <time>2020-06-16T16:43:47Z</time>
      </trkpt>
      <trkpt lat="49.34919" lon="-0.86016">
        <ele>67.5</ele>
        <time>2020-06-16T16:43:48Z</time>
      </trkpt>
      <trkpt lat="49.34916" lon="-0.8601">
        <ele>67.5</ele>
        <time>2020-06-16T16:43:49Z</time>
      </trkpt>
      <trkpt lat="49.34913" lon="-0.86003">
        <ele>67.6</ele>
        <time>2020-06-16T16:43:50Z</time>
      </trkpt>
      <trkpt lat="49.34911" lon="-0.85997">
        <ele>67.6</ele>
        <time>2020-06-16T16:43:51Z</time>
      </trkpt>
      <trkpt lat="49.34908" lon="-0.85991">
        <ele>67.7</ele>
        <time>2020-06-16T16:43:52Z</time>
      </trkpt>
      <trkpt lat="49.34905" lon="-0.85985">
        <ele>67.7</ele>
        <time>2020-06-16T16:43:53Z</time>
      </trkpt>
      <trkpt lat="49.34901" lon="-0.85979">
        <ele>67.8</ele>
        <time>2020-06-16T16:43:54Z</time>
      </trkpt>
      <trkpt lat="49.34898" lon="-0.85973">
        <ele>67.8</ele>
        <time>2020-06-16T16:43:55Z</time>
      </trkpt>
      <trkpt lat="49.34895" lon="-0.85967">
        <ele>67.9</ele>
        <time>2020-06-16T16:43:56Z</time>
      </trkpt>
      <trkpt lat="49.34892" lon="-0.8596">
        <ele>67.9</ele>
        <time>2020-06-16T16:43:57Z</time>
      </trkpt>
      <trkpt lat="49.3489" lon="-0.85955">
        <ele>68</ele>
        <time>2020-06-16T16:43:58Z</time>
      </trkpt>
      <trkpt lat="49.34888" lon="-0.85951">
        <ele>68</ele>
        <time>2020-06-16T16:43:59Z</time>
      </trkpt>
      <trkpt lat="49.34885" lon="-0.85946">
        <ele>68.1</ele>
        <time>2020-06-16T16:44:00Z</time>
      </trkpt>
      <trkpt lat="49.34883" lon="-0.85941">
        <ele>68.1</ele>
        <time>2020-06-16T16:44:01Z</time>
      </trkpt>
      <trkpt lat="49.3488" lon="-0.85935">
        <ele>68.2</ele>
        <time>2020-06-16T16:44:02Z</time>
      </trkpt>
      <trkpt lat="49.34878" lon="-0.8593">
        <ele>68.3</ele>
        <time>2020-06-16T16:44:03Z</time>
      </trkpt>
      <trkpt lat="49.34874" lon="-0.85925">
        <ele>68.3</ele>
        <time>2020-06-16T16:44:04Z</time>
      </trkpt>
      <trkpt lat="49.34871" lon="-0.8592">
        <ele>68.3</ele>
        <time>2020-06-16T16:44:05Z</time>
      </trkpt>
      <trkpt lat="49.34868" lon="-0.85914">
        <ele>68.3</ele>
        <time>2020-06-16T16:44:06Z</time>
      </trkpt>
      <trkpt lat="49.34865" lon="-0.85909">
        <ele>68.3</ele>
        <time>2020-06-16T16:44:07Z</time>
      </trkpt>
      <trkpt lat="49.34862" lon="-0.85904">
        <ele>68.3</ele>
        <time>2020-06-16T16:44:08Z</time>
      </trkpt>
      <trkpt lat="49.34859" lon="-0.85899">
        <ele>68.3</ele>
        <time>2020-06-16T16:44:09Z</time>
      </trkpt>
      <trkpt lat="49.34857" lon="-0.85894">
        <ele>68.3</ele>
        <time>2020-06-16T16:44:10Z</time>
      </trkpt>
      <trkpt lat="49.34855" lon="-0.85889">
        <ele>68.3</ele>
        <time>2020-06-16T16:44:11Z</time>
      </trkpt>
      <trkpt lat="49.34853" lon="-0.85884">
        <ele>68.2</ele>
        <time>2020-06-16T16:44:12Z</time>
      </trkpt>
      <trkpt lat="49.3485" lon="-0.85877">
        <ele>68.2</ele>
        <time>2020-06-16T16:44:13Z</time>
      </trkpt>
      <trkpt lat="49.34847" lon="-0.8587">
        <ele>68.2</ele>
        <time>2020-06-16T16:44:14Z</time>
      </trkpt>
      <trkpt lat="49.34845" lon="-0.85863">
        <ele>68.2</ele>
        <time>2020-06-16T16:44:15Z</time>
      </trkpt>
      <trkpt lat="49.34842" lon="-0.85854">
        <ele>68.2</ele>
        <time>2020-06-16T16:44:16Z</time>
      </trkpt>
      <trkpt lat="49.3484" lon="-0.85848">
        <ele>68.2</ele>
        <time>2020-06-16T16:44:17Z</time>
      </trkpt>
      <trkpt lat="49.34839" lon="-0.85842">
        <ele>68.2</ele>
        <time>2020-06-16T16:44:18Z</time>
      </trkpt>
      <trkpt lat="49.34838" lon="-0.85834">
        <ele>68.1</ele>
        <time>2020-06-16T16:44:19Z</time>
      </trkpt>
      <trkpt lat="49.34837" lon="-0.85825">
        <ele>68.1</ele>
        <time>2020-06-16T16:44:20Z</time>
      </trkpt>
      <trkpt lat="49.34837" lon="-0.85816">
        <ele>68</ele>
        <time>2020-06-16T16:44:21Z</time>
      </trkpt>
      <trkpt lat="49.34836" lon="-0.85808">
        <ele>67.9</ele>
        <time>2020-06-16T16:44:22Z</time>
      </trkpt>
      <trkpt lat="49.34835" lon="-0.85799">
        <ele>67.9</ele>
        <time>2020-06-16T16:44:23Z</time>
      </trkpt>
      <trkpt lat="49.34835" lon="-0.85792">
        <ele>67.9</ele>
        <time>2020-06-16T16:44:24Z</time>
      </trkpt>
      <trkpt lat="49.34835" lon="-0.85785">
        <ele>67.8</ele>
        <time>2020-06-16T16:44:25Z</time>
      </trkpt>
      <trkpt lat="49.34835" lon="-0.85778">
        <ele>67.8</ele>
        <time>2020-06-16T16:44:26Z</time>
      </trkpt>
      <trkpt lat="49.34835" lon="-0.8577">
        <ele>67.8</ele>
        <time>2020-06-16T16:44:27Z</time>
      </trkpt>
      <trkpt lat="49.34835" lon="-0.85762">
        <ele>67.8</ele>
        <time>2020-06-16T16:44:28Z</time>
      </trkpt>
      <trkpt lat="49.34836" lon="-0.85756">
        <ele>67.7</ele>
        <time>2020-06-16T16:44:29Z</time>
      </trkpt>
      <trkpt lat="49.34836" lon="-0.85749">
        <ele>67.6</ele>
        <time>2020-06-16T16:44:30Z</time>
      </trkpt>
      <trkpt lat="49.34837" lon="-0.85742">
        <ele>67.6</ele>
        <time>2020-06-16T16:44:31Z</time>
      </trkpt>
      <trkpt lat="49.34838" lon="-0.85736">
        <ele>67.5</ele>
        <time>2020-06-16T16:44:32Z</time>
      </trkpt>
      <trkpt lat="49.34838" lon="-0.85729">
        <ele>67.5</ele>
        <time>2020-06-16T16:44:33Z</time>
      </trkpt>
      <trkpt lat="49.34839" lon="-0.85724">
        <ele>67.4</ele>
        <time>2020-06-16T16:44:34Z</time>
      </trkpt>
      <trkpt lat="49.3484" lon="-0.85718">
        <ele>67.4</ele>
        <time>2020-06-16T16:44:35Z</time>
      </trkpt>
      <trkpt lat="49.3484" lon="-0.85712">
        <ele>67.3</ele>
        <time>2020-06-16T16:44:36Z</time>
      </trkpt>
      <trkpt lat="49.34842" lon="-0.85705">
        <ele>67.2</ele>
        <time>2020-06-16T16:44:37Z</time>
      </trkpt>
      <trkpt lat="49.34842" lon="-0.85698">
        <ele>67.2</ele>
        <time>2020-06-16T16:44:38Z</time>
      </trkpt>
      <trkpt lat="49.34843" lon="-0.85692">
        <ele>67.2</ele>
        <time>2020-06-16T16:44:39Z</time>
      </trkpt>
      <trkpt lat="49.34843" lon="-0.85686">
        <ele>67.1</ele>
        <time>2020-06-16T16:44:40Z</time>
      </trkpt>
      <trkpt lat="49.34843" lon="-0.8568">
        <ele>67.1</ele>
        <time>2020-06-16T16:44:41Z</time>
      </trkpt>
      <trkpt lat="49.34843" lon="-0.85674">
        <ele>67</ele>
        <time>2020-06-16T16:44:42Z</time>
      </trkpt>
      <trkpt lat="49.34843" lon="-0.85666">
        <ele>67</ele>
        <time>2020-06-16T16:44:43Z</time>
      </trkpt>
      <trkpt lat="49.34842" lon="-0.85659">
        <ele>67</ele>
        <time>2020-06-16T16:44:44Z</time>
      </trkpt>
      <trkpt lat="49.34842" lon="-0.85654">
        <ele>66.9</ele>
        <time>2020-06-16T16:44:45Z</time>
      </trkpt>
      <trkpt lat="49.34841" lon="-0.85646">
        <ele>66.8</ele>
        <time>2020-06-16T16:44:46Z</time>
      </trkpt>
      <trkpt lat="49.3484" lon="-0.85639">
        <ele>66.7</ele>
        <time>2020-06-16T16:44:47Z</time>
      </trkpt>
      <trkpt lat="49.34839" lon="-0.85631">
        <ele>66.6</ele>
        <time>2020-06-16T16:44:48Z</time>
      </trkpt>
      <trkpt lat="49.34838" lon="-0.85624">
        <ele>66.4</ele>
        <time>2020-06-16T16:44:49Z</time>
      </trkpt>
      <trkpt lat="49.34837" lon="-0.85617">
        <ele>66.3</ele>
        <time>2020-06-16T16:44:50Z</time>
      </trkpt>
      <trkpt lat="49.34836" lon="-0.85612">
        <ele>66.3</ele>
        <time>2020-06-16T16:44:51Z</time>
      </trkpt>
      <trkpt lat="49.34834" lon="-0.85606">
        <ele>66.1</ele>
        <time>2020-06-16T16:44:52Z</time>
      </trkpt>
      <trkpt lat="49.34834" lon="-0.85599">
        <ele>66</ele>
        <time>2020-06-16T16:44:53Z</time>
      </trkpt>
      <trkpt lat="49.34832" lon="-0.85594">
        <ele>66</ele>
        <time>2020-06-16T16:44:54Z</time>
      </trkpt>
      <trkpt lat="49.3483" lon="-0.8559">
        <ele>65.9</ele>
        <time>2020-06-16T16:44:55Z</time>
      </trkpt>
      <trkpt lat="49.34827" lon="-0.85584">
        <ele>65.8</ele>
        <time>2020-06-16T16:44:56Z</time>
      </trkpt>
      <trkpt lat="49.34824" lon="-0.85576">
        <ele>65.6</ele>
        <time>2020-06-16T16:44:57Z</time>
      </trkpt>
      <trkpt lat="49.34821" lon="-0.85571">
        <ele>65.5</ele>
        <time>2020-06-16T16:44:58Z</time>
      </trkpt>
      <trkpt lat="49.34816" lon="-0.85567">
        <ele>65.3</ele>
        <time>2020-06-16T16:44:59Z</time>
      </trkpt>
      <trkpt lat="49.34813" lon="-0.85564">
        <ele>65.2</ele>
        <time>2020-06-16T16:45:00Z</time>
      </trkpt>
      <trkpt lat="49.34809" lon="-0.85561">
        <ele>65.2</ele>
        <time>2020-06-16T16:45:01Z</time>
      </trkpt>
      <trkpt lat="49.34806" lon="-0.85558">
        <ele>65</ele>
        <time>2020-06-16T16:45:02Z</time>
      </trkpt>
      <trkpt lat="49.34802" lon="-0.85553">
        <ele>65</ele>
        <time>2020-06-16T16:45:03Z</time>
      </trkpt>
      <trkpt lat="49.34801" lon="-0.85547">
        <ele>64.9</ele>
        <time>2020-06-16T16:45:04Z</time>
      </trkpt>
      <trkpt lat="49.348" lon="-0.85538">
        <ele>64.8</ele>
        <time>2020-06-16T16:45:05Z</time>
      </trkpt>
      <trkpt lat="49.34801" lon="-0.8553">
        <ele>64.7</ele>
        <time>2020-06-16T16:45:06Z</time>
      </trkpt>
      <trkpt lat="49.34803" lon="-0.85522">
        <ele>64.2</ele>
        <time>2020-06-16T16:45:07Z</time>
      </trkpt>
      <trkpt lat="49.34806" lon="-0.85515">
        <ele>63.8</ele>
        <time>2020-06-16T16:45:08Z</time>
      </trkpt>
      <trkpt lat="49.34811" lon="-0.8551">
        <ele>63.3</ele>
        <time>2020-06-16T16:45:09Z</time>
      </trkpt>
      <trkpt lat="49.34816" lon="-0.85507">
        <ele>63.6</ele>
        <time>2020-06-16T16:45:10Z</time>
      </trkpt>
      <trkpt lat="49.3482" lon="-0.85504">
        <ele>63.6</ele>
        <time>2020-06-16T16:45:11Z</time>
      </trkpt>
      <trkpt lat="49.34824" lon="-0.85502">
        <ele>63.6</ele>
        <time>2020-06-16T16:45:12Z</time>
      </trkpt>
      <trkpt lat="49.34826" lon="-0.855">
        <ele>63.9</ele>
        <time>2020-06-16T16:45:13Z</time>
      </trkpt>
      <trkpt lat="49.34829" lon="-0.85495">
        <ele>64.1</ele>
        <time>2020-06-16T16:45:14Z</time>
      </trkpt>
      <trkpt lat="49.34832" lon="-0.85489">
        <ele>64.2</ele>
        <time>2020-06-16T16:45:15Z</time>
      </trkpt>
      <trkpt lat="49.34834" lon="-0.85487">
        <ele>64.3</ele>
        <time>2020-06-16T16:45:16Z</time>
      </trkpt>
      <trkpt lat="49.34837" lon="-0.85485">
        <ele>64.3</ele>
        <time>2020-06-16T16:45:17Z</time>
      </trkpt>
      <trkpt lat="49.34837" lon="-0.85484">
        <ele>64.4</ele>
        <time>2020-06-16T16:45:18Z</time>
      </trkpt>
      <trkpt lat="49.3484" lon="-0.85483">
        <ele>64.5</ele>
        <time>2020-06-16T16:45:19Z</time>
      </trkpt>
      <trkpt lat="49.34841" lon="-0.85483">
        <ele>64.5</ele>
        <time>2020-06-16T16:45:20Z</time>
      </trkpt>
      <trkpt lat="49.34843" lon="-0.85484">
        <ele>64.6</ele>
        <time>2020-06-16T16:45:21Z</time>
      </trkpt>
      <trkpt lat="49.34844" lon="-0.85484">
        <ele>64.6</ele>
        <time>2020-06-16T16:45:22Z</time>
      </trkpt>
      <trkpt lat="49.34847" lon="-0.85483">
        <ele>64.6</ele>
        <time>2020-06-16T16:45:23Z</time>
      </trkpt>
      <trkpt lat="49.34848" lon="-0.85483">
        <ele>64.6</ele>
        <time>2020-06-16T16:45:24Z</time>
      </trkpt>
      <trkpt lat="49.34851" lon="-0.85482">
        <ele>64.6</ele>
        <time>2020-06-16T16:45:25Z</time>
      </trkpt>
      <trkpt lat="49.34852" lon="-0.85482">
        <ele>64.6</ele>
        <time>2020-06-16T16:45:26Z</time>
      </trkpt>
      <trkpt lat="49.34854" lon="-0.85481">
        <ele>64.6</ele>
        <time>2020-06-16T16:45:27Z</time>
      </trkpt>
      <trkpt lat="49.34855" lon="-0.85481">
        <ele>64.6</ele>
        <time>2020-06-16T16:45:28Z</time>
      </trkpt>
      <trkpt lat="49.34856" lon="-0.85481">
        <ele>64.6</ele>
        <time>2020-06-16T16:45:29Z</time>
      </trkpt>
      <trkpt lat="49.34857" lon="-0.8548">
        <ele>64.7</ele>
        <time>2020-06-16T16:45:30Z</time>
      </trkpt>
      <trkpt lat="49.34858" lon="-0.85479">
        <ele>64.7</ele>
        <time>2020-06-16T16:45:31Z</time>
      </trkpt>
      <trkpt lat="49.34861" lon="-0.85479">
        <ele>64.7</ele>
        <time>2020-06-16T16:45:32Z</time>
      </trkpt>
      <trkpt lat="49.34862" lon="-0.85478">
        <ele>64.7</ele>
        <time>2020-06-16T16:45:33Z</time>
      </trkpt>
      <trkpt lat="49.34865" lon="-0.85478">
        <ele>64.8</ele>
        <time>2020-06-16T16:45:34Z</time>
      </trkpt>
      <trkpt lat="49.34867" lon="-0.85478">
        <ele>64.8</ele>
        <time>2020-06-16T16:45:35Z</time>
      </trkpt>
      <trkpt lat="49.34869" lon="-0.85478">
        <ele>64.8</ele>
        <time>2020-06-16T16:45:36Z</time>
      </trkpt>
      <trkpt lat="49.34873" lon="-0.85477">
        <ele>64.9</ele>
        <time>2020-06-16T16:45:37Z</time>
      </trkpt>
      <trkpt lat="49.34876" lon="-0.85475">
        <ele>64.9</ele>
        <time>2020-06-16T16:45:38Z</time>
      </trkpt>
      <trkpt lat="49.34879" lon="-0.85474">
        <ele>65</ele>
        <time>2020-06-16T16:45:39Z</time>
      </trkpt>
      <trkpt lat="49.34883" lon="-0.85474">
        <ele>65</ele>
        <time>2020-06-16T16:45:40Z</time>
      </trkpt>
      <trkpt lat="49.34884" lon="-0.85474">
        <ele>65.1</ele>
        <time>2020-06-16T16:45:41Z</time>
      </trkpt>
      <trkpt lat="49.34888" lon="-0.85472">
        <ele>65.1</ele>
        <time>2020-06-16T16:45:42Z</time>
      </trkpt>
      <trkpt lat="49.34891" lon="-0.85472">
        <ele>65.2</ele>
        <time>2020-06-16T16:45:43Z</time>
      </trkpt>
      <trkpt lat="49.34893" lon="-0.85472">
        <ele>65.2</ele>
        <time>2020-06-16T16:45:44Z</time>
      </trkpt>
      <trkpt lat="49.34897" lon="-0.85471">
        <ele>65.2</ele>
        <time>2020-06-16T16:45:45Z</time>
      </trkpt>
      <trkpt lat="49.34898" lon="-0.85471">
        <ele>65.3</ele>
        <time>2020-06-16T16:45:46Z</time>
      </trkpt>
      <trkpt lat="49.34902" lon="-0.8547">
        <ele>65.3</ele>
        <time>2020-06-16T16:45:47Z</time>
      </trkpt>
      <trkpt lat="49.34903" lon="-0.8547">
        <ele>65.3</ele>
        <time>2020-06-16T16:45:48Z</time>
      </trkpt>
      <trkpt lat="49.34906" lon="-0.85469">
        <ele>65.3</ele>
        <time>2020-06-16T16:45:49Z</time>
      </trkpt>
      <trkpt lat="49.34909" lon="-0.85467">
        <ele>65.3</ele>
        <time>2020-06-16T16:45:50Z</time>
      </trkpt>
      <trkpt lat="49.34912" lon="-0.85466">
        <ele>65.3</ele>
        <time>2020-06-16T16:45:51Z</time>
      </trkpt>
      <trkpt lat="49.34916" lon="-0.85465">
        <ele>65.3</ele>
        <time>2020-06-16T16:45:52Z</time>
      </trkpt>
      <trkpt lat="49.3492" lon="-0.85464">
        <ele>65.3</ele>
        <time>2020-06-16T16:45:53Z</time>
      </trkpt>
      <trkpt lat="49.34924" lon="-0.85463">
        <ele>65.3</ele>
        <time>2020-06-16T16:45:54Z</time>
      </trkpt>
      <trkpt lat="49.34927" lon="-0.85462">
        <ele>65.3</ele>
        <time>2020-06-16T16:45:55Z</time>
      </trkpt>
      <trkpt lat="49.34932" lon="-0.85461">
        <ele>65.3</ele>
        <time>2020-06-16T16:45:56Z</time>
      </trkpt>
      <trkpt lat="49.34934" lon="-0.85461">
        <ele>65.3</ele>
        <time>2020-06-16T16:45:57Z</time>
      </trkpt>
      <trkpt lat="49.34938" lon="-0.8546">
        <ele>65.3</ele>
        <time>2020-06-16T16:45:58Z</time>
      </trkpt>
      <trkpt lat="49.34943" lon="-0.85458">
        <ele>65.2</ele>
        <time>2020-06-16T16:45:59Z</time>
      </trkpt>
      <trkpt lat="49.34946" lon="-0.85456">
        <ele>65.2</ele>
        <time>2020-06-16T16:46:00Z</time>
      </trkpt>
      <trkpt lat="49.3495" lon="-0.85454">
        <ele>65.1</ele>
        <time>2020-06-16T16:46:01Z</time>
      </trkpt>
      <trkpt lat="49.34954" lon="-0.85452">
        <ele>65.1</ele>
        <time>2020-06-16T16:46:02Z</time>
      </trkpt>
      <trkpt lat="49.34959" lon="-0.8545">
        <ele>65</ele>
        <time>2020-06-16T16:46:03Z</time>
      </trkpt>
      <trkpt lat="49.34963" lon="-0.85449">
        <ele>65</ele>
        <time>2020-06-16T16:46:04Z</time>
      </trkpt>
      <trkpt lat="49.34967" lon="-0.85448">
        <ele>64.9</ele>
        <time>2020-06-16T16:46:05Z</time>
      </trkpt>
      <trkpt lat="49.34972" lon="-0.85445">
        <ele>64.8</ele>
        <time>2020-06-16T16:46:06Z</time>
      </trkpt>
      <trkpt lat="49.34977" lon="-0.85442">
        <ele>64.6</ele>
        <time>2020-06-16T16:46:07Z</time>
      </trkpt>
      <trkpt lat="49.34982" lon="-0.8544">
        <ele>64.5</ele>
        <time>2020-06-16T16:46:08Z</time>
      </trkpt>
      <trkpt lat="49.34986" lon="-0.85439">
        <ele>64.4</ele>
        <time>2020-06-16T16:46:09Z</time>
      </trkpt>
      <trkpt lat="49.34991" lon="-0.85437">
        <ele>64.3</ele>
        <time>2020-06-16T16:46:10Z</time>
      </trkpt>
      <trkpt lat="49.34995" lon="-0.85435">
        <ele>64.2</ele>
        <time>2020-06-16T16:46:11Z</time>
      </trkpt>
      <trkpt lat="49.35" lon="-0.85434">
        <ele>64.1</ele>
        <time>2020-06-16T16:46:12Z</time>
      </trkpt>
      <trkpt lat="49.35004" lon="-0.85431">
        <ele>64</ele>
        <time>2020-06-16T16:46:13Z</time>
      </trkpt>
      <trkpt lat="49.35008" lon="-0.85429">
        <ele>63.9</ele>
        <time>2020-06-16T16:46:14Z</time>
      </trkpt>
      <trkpt lat="49.35013" lon="-0.85427">
        <ele>63.8</ele>
        <time>2020-06-16T16:46:15Z</time>
      </trkpt>
      <trkpt lat="49.35018" lon="-0.85425">
        <ele>63.7</ele>
        <time>2020-06-16T16:46:16Z</time>
      </trkpt>
      <trkpt lat="49.35022" lon="-0.85422">
        <ele>63.6</ele>
        <time>2020-06-16T16:46:17Z</time>
      </trkpt>
      <trkpt lat="49.35026" lon="-0.8542">
        <ele>63.6</ele>
        <time>2020-06-16T16:46:18Z</time>
      </trkpt>
      <trkpt lat="49.35029" lon="-0.85418">
        <ele>63.5</ele>
        <time>2020-06-16T16:46:19Z</time>
      </trkpt>
      <trkpt lat="49.35033" lon="-0.85416">
        <ele>63.4</ele>
        <time>2020-06-16T16:46:20Z</time>
      </trkpt>
      <trkpt lat="49.35037" lon="-0.85415">
        <ele>63.4</ele>
        <time>2020-06-16T16:46:21Z</time>
      </trkpt>
      <trkpt lat="49.3504" lon="-0.85413">
        <ele>63.3</ele>
        <time>2020-06-16T16:46:22Z</time>
      </trkpt>
      <trkpt lat="49.35044" lon="-0.8541">
        <ele>63.2</ele>
        <time>2020-06-16T16:46:23Z</time>
      </trkpt>
      <trkpt lat="49.35048" lon="-0.85407">
        <ele>63.2</ele>
        <time>2020-06-16T16:46:24Z</time>
      </trkpt>
      <trkpt lat="49.35053" lon="-0.85404">
        <ele>63.1</ele>
        <time>2020-06-16T16:46:25Z</time>
      </trkpt>
      <trkpt lat="49.35057" lon="-0.85402">
        <ele>63</ele>
        <time>2020-06-16T16:46:26Z</time>
      </trkpt>
      <trkpt lat="49.35063" lon="-0.85398">
        <ele>63</ele>
        <time>2020-06-16T16:46:27Z</time>
      </trkpt>
      <trkpt lat="49.35069" lon="-0.85394">
        <ele>62.9</ele>
        <time>2020-06-16T16:46:28Z</time>
      </trkpt>
      <trkpt lat="49.35074" lon="-0.85391">
        <ele>62.9</ele>
        <time>2020-06-16T16:46:29Z</time>
      </trkpt>
      <trkpt lat="49.35078" lon="-0.8539">
        <ele>62.8</ele>
        <time>2020-06-16T16:46:30Z</time>
      </trkpt>
      <trkpt lat="49.35081" lon="-0.85388">
        <ele>62.8</ele>
        <time>2020-06-16T16:46:31Z</time>
      </trkpt>
      <trkpt lat="49.35086" lon="-0.85386">
        <ele>62.8</ele>
        <time>2020-06-16T16:46:32Z</time>
      </trkpt>
      <trkpt lat="49.3509" lon="-0.85382">
        <ele>62.7</ele>
        <time>2020-06-16T16:46:33Z</time>
      </trkpt>
      <trkpt lat="49.35094" lon="-0.85379">
        <ele>62.6</ele>
        <time>2020-06-16T16:46:34Z</time>
      </trkpt>
      <trkpt lat="49.35099" lon="-0.85375">
        <ele>62.6</ele>
        <time>2020-06-16T16:46:35Z</time>
      </trkpt>
      <trkpt lat="49.35103" lon="-0.85372">
        <ele>62.5</ele>
        <time>2020-06-16T16:46:36Z</time>
      </trkpt>
      <trkpt lat="49.35108" lon="-0.85369">
        <ele>62.4</ele>
        <time>2020-06-16T16:46:37Z</time>
      </trkpt>
      <trkpt lat="49.35112" lon="-0.85368">
        <ele>62.4</ele>
        <time>2020-06-16T16:46:38Z</time>
      </trkpt>
      <trkpt lat="49.35117" lon="-0.85365">
        <ele>62.3</ele>
        <time>2020-06-16T16:46:39Z</time>
      </trkpt>
      <trkpt lat="49.35121" lon="-0.85364">
        <ele>62.3</ele>
        <time>2020-06-16T16:46:40Z</time>
      </trkpt>
      <trkpt lat="49.35125" lon="-0.85362">
        <ele>62.2</ele>
        <time>2020-06-16T16:46:41Z</time>
      </trkpt>
      <trkpt lat="49.35129" lon="-0.8536">
        <ele>62.1</ele>
        <time>2020-06-16T16:46:42Z</time>
      </trkpt>
      <trkpt lat="49.35134" lon="-0.85357">
        <ele>62.1</ele>
        <time>2020-06-16T16:46:43Z</time>
      </trkpt>
      <trkpt lat="49.3514" lon="-0.85354">
        <ele>62</ele>
        <time>2020-06-16T16:46:44Z</time>
      </trkpt>
      <trkpt lat="49.35145" lon="-0.8535">
        <ele>61.9</ele>
        <time>2020-06-16T16:46:45Z</time>
      </trkpt>
      <trkpt lat="49.3515" lon="-0.85347">
        <ele>61.8</ele>
        <time>2020-06-16T16:46:46Z</time>
      </trkpt>
      <trkpt lat="49.35155" lon="-0.85346">
        <ele>61.7</ele>
        <time>2020-06-16T16:46:47Z</time>
      </trkpt>
      <trkpt lat="49.35159" lon="-0.85344">
        <ele>61.6</ele>
        <time>2020-06-16T16:46:48Z</time>
      </trkpt>
      <trkpt lat="49.35162" lon="-0.85342">
        <ele>61.5</ele>
        <time>2020-06-16T16:46:49Z</time>
      </trkpt>
      <trkpt lat="49.35167" lon="-0.8534">
        <ele>61.5</ele>
        <time>2020-06-16T16:46:50Z</time>
      </trkpt>
      <trkpt lat="49.35171" lon="-0.85338">
        <ele>61.4</ele>
        <time>2020-06-16T16:46:51Z</time>
      </trkpt>
      <trkpt lat="49.35176" lon="-0.85335">
        <ele>61.3</ele>
        <time>2020-06-16T16:46:52Z</time>
      </trkpt>
      <trkpt lat="49.3518" lon="-0.85333">
        <ele>61.2</ele>
        <time>2020-06-16T16:46:53Z</time>
      </trkpt>
      <trkpt lat="49.35184" lon="-0.85331">
        <ele>61.2</ele>
        <time>2020-06-16T16:46:54Z</time>
      </trkpt>
      <trkpt lat="49.35188" lon="-0.85329">
        <ele>61.1</ele>
        <time>2020-06-16T16:46:55Z</time>
      </trkpt>
      <trkpt lat="49.35192" lon="-0.85327">
        <ele>61</ele>
        <time>2020-06-16T16:46:56Z</time>
      </trkpt>
      <trkpt lat="49.35195" lon="-0.85325">
        <ele>60.9</ele>
        <time>2020-06-16T16:46:57Z</time>
      </trkpt>
      <trkpt lat="49.352" lon="-0.85321">
        <ele>60.9</ele>
        <time>2020-06-16T16:46:58Z</time>
      </trkpt>
      <trkpt lat="49.35205" lon="-0.8532">
        <ele>60.7</ele>
        <time>2020-06-16T16:46:59Z</time>
      </trkpt>
      <trkpt lat="49.35209" lon="-0.85318">
        <ele>60.6</ele>
        <time>2020-06-16T16:47:00Z</time>
      </trkpt>
      <trkpt lat="49.35214" lon="-0.85314">
        <ele>60.5</ele>
        <time>2020-06-16T16:47:01Z</time>
      </trkpt>
      <trkpt lat="49.35218" lon="-0.85312">
        <ele>60.4</ele>
        <time>2020-06-16T16:47:02Z</time>
      </trkpt>
      <trkpt lat="49.35223" lon="-0.8531">
        <ele>60.3</ele>
        <time>2020-06-16T16:47:03Z</time>
      </trkpt>
      <trkpt lat="49.35227" lon="-0.85307">
        <ele>60.2</ele>
        <time>2020-06-16T16:47:04Z</time>
      </trkpt>
      <trkpt lat="49.35231" lon="-0.85304">
        <ele>60.1</ele>
        <time>2020-06-16T16:47:05Z</time>
      </trkpt>
      <trkpt lat="49.35236" lon="-0.85303">
        <ele>60</ele>
        <time>2020-06-16T16:47:06Z</time>
      </trkpt>
      <trkpt lat="49.3524" lon="-0.853">
        <ele>59.9</ele>
        <time>2020-06-16T16:47:07Z</time>
      </trkpt>
      <trkpt lat="49.35244" lon="-0.85299">
        <ele>59.8</ele>
        <time>2020-06-16T16:47:08Z</time>
      </trkpt>
      <trkpt lat="49.35249" lon="-0.85298">
        <ele>59.7</ele>
        <time>2020-06-16T16:47:09Z</time>
      </trkpt>
      <trkpt lat="49.35254" lon="-0.85296">
        <ele>59.6</ele>
        <time>2020-06-16T16:47:10Z</time>
      </trkpt>
      <trkpt lat="49.35258" lon="-0.85294">
        <ele>59.6</ele>
        <time>2020-06-16T16:47:11Z</time>
      </trkpt>
      <trkpt lat="49.35263" lon="-0.85292">
        <ele>59.5</ele>
        <time>2020-06-16T16:47:12Z</time>
      </trkpt>
      <trkpt lat="49.35267" lon="-0.8529">
        <ele>59.4</ele>
        <time>2020-06-16T16:47:13Z</time>
      </trkpt>
      <trkpt lat="49.35272" lon="-0.85288">
        <ele>59.3</ele>
        <time>2020-06-16T16:47:14Z</time>
      </trkpt>
      <trkpt lat="49.35277" lon="-0.85286">
        <ele>59.2</ele>
        <time>2020-06-16T16:47:15Z</time>
      </trkpt>
      <trkpt lat="49.35282" lon="-0.85285">
        <ele>59.1</ele>
        <time>2020-06-16T16:47:16Z</time>
      </trkpt>
      <trkpt lat="49.35287" lon="-0.85283">
        <ele>59.1</ele>
        <time>2020-06-16T16:47:17Z</time>
      </trkpt>
      <trkpt lat="49.35291" lon="-0.85282">
        <ele>59</ele>
        <time>2020-06-16T16:47:18Z</time>
      </trkpt>
      <trkpt lat="49.35295" lon="-0.85282">
        <ele>58.9</ele>
        <time>2020-06-16T16:47:19Z</time>
      </trkpt>
      <trkpt lat="49.35299" lon="-0.85281">
        <ele>58.8</ele>
        <time>2020-06-16T16:47:20Z</time>
      </trkpt>
      <trkpt lat="49.35304" lon="-0.8528">
        <ele>58.8</ele>
        <time>2020-06-16T16:47:21Z</time>
      </trkpt>
      <trkpt lat="49.35308" lon="-0.8528">
        <ele>58.7</ele>
        <time>2020-06-16T16:47:22Z</time>
      </trkpt>
      <trkpt lat="49.35312" lon="-0.8528">
        <ele>58.7</ele>
        <time>2020-06-16T16:47:23Z</time>
      </trkpt>
      <trkpt lat="49.35316" lon="-0.8528">
        <ele>58.6</ele>
        <time>2020-06-16T16:47:24Z</time>
      </trkpt>
      <trkpt lat="49.3532" lon="-0.8528">
        <ele>58.6</ele>
        <time>2020-06-16T16:47:25Z</time>
      </trkpt>
      <trkpt lat="49.35324" lon="-0.8528">
        <ele>58.5</ele>
        <time>2020-06-16T16:47:26Z</time>
      </trkpt>
      <trkpt lat="49.35328" lon="-0.8528">
        <ele>58.5</ele>
        <time>2020-06-16T16:47:27Z</time>
      </trkpt>
      <trkpt lat="49.35332" lon="-0.85279">
        <ele>58.5</ele>
        <time>2020-06-16T16:47:28Z</time>
      </trkpt>
      <trkpt lat="49.35336" lon="-0.85279">
        <ele>58.4</ele>
        <time>2020-06-16T16:47:29Z</time>
      </trkpt>
      <trkpt lat="49.35339" lon="-0.85279">
        <ele>58.4</ele>
        <time>2020-06-16T16:47:30Z</time>
      </trkpt>
      <trkpt lat="49.35343" lon="-0.85279">
        <ele>58.3</ele>
        <time>2020-06-16T16:47:31Z</time>
      </trkpt>
      <trkpt lat="49.35346" lon="-0.85279">
        <ele>58.3</ele>
        <time>2020-06-16T16:47:32Z</time>
      </trkpt>
      <trkpt lat="49.3535" lon="-0.85278">
        <ele>58.3</ele>
        <time>2020-06-16T16:47:33Z</time>
      </trkpt>
      <trkpt lat="49.35354" lon="-0.85279">
        <ele>58.2</ele>
        <time>2020-06-16T16:47:34Z</time>
      </trkpt>
      <trkpt lat="49.35358" lon="-0.8528">
        <ele>58.2</ele>
        <time>2020-06-16T16:47:35Z</time>
      </trkpt>
      <trkpt lat="49.35362" lon="-0.85281">
        <ele>58.1</ele>
        <time>2020-06-16T16:47:36Z</time>
      </trkpt>
      <trkpt lat="49.35365" lon="-0.85281">
        <ele>58.1</ele>
        <time>2020-06-16T16:47:37Z</time>
      </trkpt>
      <trkpt lat="49.35368" lon="-0.85282">
        <ele>58</ele>
        <time>2020-06-16T16:47:38Z</time>
      </trkpt>
      <trkpt lat="49.35371" lon="-0.85282">
        <ele>58</ele>
        <time>2020-06-16T16:47:39Z</time>
      </trkpt>
      <trkpt lat="49.35374" lon="-0.8528">
        <ele>57.9</ele>
        <time>2020-06-16T16:47:40Z</time>
      </trkpt>
      <trkpt lat="49.35378" lon="-0.85279">
        <ele>57.9</ele>
        <time>2020-06-16T16:47:41Z</time>
      </trkpt>
      <trkpt lat="49.3538" lon="-0.85279">
        <ele>57.9</ele>
        <time>2020-06-16T16:47:42Z</time>
      </trkpt>
      <trkpt lat="49.35384" lon="-0.85278">
        <ele>57.8</ele>
        <time>2020-06-16T16:47:43Z</time>
      </trkpt>
      <trkpt lat="49.35385" lon="-0.85278">
        <ele>57.8</ele>
        <time>2020-06-16T16:47:44Z</time>
      </trkpt>
      <trkpt lat="49.35388" lon="-0.85278">
        <ele>57.8</ele>
        <time>2020-06-16T16:47:45Z</time>
      </trkpt>
      <trkpt lat="49.35391" lon="-0.85278">
        <ele>57.8</ele>
        <time>2020-06-16T16:47:46Z</time>
      </trkpt>
      <trkpt lat="49.35394" lon="-0.85278">
        <ele>57.8</ele>
        <time>2020-06-16T16:47:47Z</time>
      </trkpt>
      <trkpt lat="49.35398" lon="-0.85278">
        <ele>57.7</ele>
        <time>2020-06-16T16:47:48Z</time>
      </trkpt>
      <trkpt lat="49.35399" lon="-0.85278">
        <ele>57.7</ele>
        <time>2020-06-16T16:47:49Z</time>
      </trkpt>
      <trkpt lat="49.35402" lon="-0.85279">
        <ele>57.7</ele>
        <time>2020-06-16T16:47:50Z</time>
      </trkpt>
      <trkpt lat="49.35403" lon="-0.8528">
        <ele>57.7</ele>
        <time>2020-06-16T16:47:51Z</time>
      </trkpt>
      <trkpt lat="49.35406" lon="-0.85279">
        <ele>57.7</ele>
        <time>2020-06-16T16:47:52Z</time>
      </trkpt>
      <trkpt lat="49.35409" lon="-0.85279">
        <ele>57.7</ele>
        <time>2020-06-16T16:47:53Z</time>
      </trkpt>
      <trkpt lat="49.35412" lon="-0.85279">
        <ele>57.7</ele>
        <time>2020-06-16T16:47:54Z</time>
      </trkpt>
      <trkpt lat="49.35415" lon="-0.85277">
        <ele>57.7</ele>
        <time>2020-06-16T16:47:55Z</time>
      </trkpt>
      <trkpt lat="49.35418" lon="-0.85275">
        <ele>57.7</ele>
        <time>2020-06-16T16:47:56Z</time>
      </trkpt>
      <trkpt lat="49.35421" lon="-0.85275">
        <ele>57.7</ele>
        <time>2020-06-16T16:47:57Z</time>
      </trkpt>
      <trkpt lat="49.35424" lon="-0.85275">
        <ele>57.7</ele>
        <time>2020-06-16T16:47:58Z</time>
      </trkpt>
      <trkpt lat="49.35427" lon="-0.85275">
        <ele>57.7</ele>
        <time>2020-06-16T16:47:59Z</time>
      </trkpt>
      <trkpt lat="49.3543" lon="-0.85273">
        <ele>57.6</ele>
        <time>2020-06-16T16:48:00Z</time>
      </trkpt>
      <trkpt lat="49.35433" lon="-0.85272">
        <ele>57.6</ele>
        <time>2020-06-16T16:48:01Z</time>
      </trkpt>
      <trkpt lat="49.35437" lon="-0.85271">
        <ele>57.6</ele>
        <time>2020-06-16T16:48:02Z</time>
      </trkpt>
      <trkpt lat="49.35439" lon="-0.85269">
        <ele>57.6</ele>
        <time>2020-06-16T16:48:03Z</time>
      </trkpt>
      <trkpt lat="49.35442" lon="-0.85268">
        <ele>57.6</ele>
        <time>2020-06-16T16:48:04Z</time>
      </trkpt>
      <trkpt lat="49.35445" lon="-0.85266">
        <ele>57.6</ele>
        <time>2020-06-16T16:48:05Z</time>
      </trkpt>
      <trkpt lat="49.35448" lon="-0.85264">
        <ele>57.6</ele>
        <time>2020-06-16T16:48:06Z</time>
      </trkpt>
      <trkpt lat="49.35448" lon="-0.85263">
        <ele>57.5</ele>
        <time>2020-06-16T16:48:07Z</time>
      </trkpt>
      <trkpt lat="49.35451" lon="-0.8526">
        <ele>57.3</ele>
        <time>2020-06-16T16:48:08Z</time>
      </trkpt>
      <trkpt lat="49.35452" lon="-0.85258">
        <ele>57.2</ele>
        <time>2020-06-16T16:48:09Z</time>
      </trkpt>
      <trkpt lat="49.35454" lon="-0.85254">
        <ele>57</ele>
        <time>2020-06-16T16:48:10Z</time>
      </trkpt>
      <trkpt lat="49.35454" lon="-0.85252">
        <ele>56.9</ele>
        <time>2020-06-16T16:48:11Z</time>
      </trkpt>
      <trkpt lat="49.35455" lon="-0.8525">
        <ele>56.7</ele>
        <time>2020-06-16T16:48:12Z</time>
      </trkpt>
      <trkpt lat="49.35456" lon="-0.85248">
        <ele>56.6</ele>
        <time>2020-06-16T16:48:13Z</time>
      </trkpt>
      <trkpt lat="49.35458" lon="-0.85246">
        <ele>56.4</ele>
        <time>2020-06-16T16:48:14Z</time>
      </trkpt>
      <trkpt lat="49.35459" lon="-0.85245">
        <ele>56.3</ele>
        <time>2020-06-16T16:48:15Z</time>
      </trkpt>
      <trkpt lat="49.35461" lon="-0.85244">
        <ele>56.2</ele>
        <time>2020-06-16T16:48:16Z</time>
      </trkpt>
      <trkpt lat="49.35462" lon="-0.85243">
        <ele>56.2</ele>
        <time>2020-06-16T16:48:17Z</time>
      </trkpt>
      <trkpt lat="49.35463" lon="-0.85242">
        <ele>55.9</ele>
        <time>2020-06-16T16:48:18Z</time>
      </trkpt>
      <trkpt lat="49.35465" lon="-0.85238">
        <ele>55.6</ele>
        <time>2020-06-16T16:48:19Z</time>
      </trkpt>
      <trkpt lat="49.35467" lon="-0.85234">
        <ele>55.4</ele>
        <time>2020-06-16T16:48:20Z</time>
      </trkpt>
      <trkpt lat="49.35468" lon="-0.8523">
        <ele>55.3</ele>
        <time>2020-06-16T16:48:21Z</time>
      </trkpt>
      <trkpt lat="49.3547" lon="-0.85224">
        <ele>54.9</ele>
        <time>2020-06-16T16:48:22Z</time>
      </trkpt>
      <trkpt lat="49.35472" lon="-0.85218">
        <ele>54.7</ele>
        <time>2020-06-16T16:48:23Z</time>
      </trkpt>
      <trkpt lat="49.35474" lon="-0.85212">
        <ele>54.3</ele>
        <time>2020-06-16T16:48:24Z</time>
      </trkpt>
      <trkpt lat="49.35477" lon="-0.85203">
        <ele>54</ele>
        <time>2020-06-16T16:48:25Z</time>
      </trkpt>
      <trkpt lat="49.35481" lon="-0.85195">
        <ele>53.7</ele>
        <time>2020-06-16T16:48:26Z</time>
      </trkpt>
      <trkpt lat="49.35487" lon="-0.85184">
        <ele>53.4</ele>
        <time>2020-06-16T16:48:27Z</time>
      </trkpt>
      <trkpt lat="49.35491" lon="-0.85173">
        <ele>53.1</ele>
        <time>2020-06-16T16:48:28Z</time>
      </trkpt>
      <trkpt lat="49.35495" lon="-0.85165">
        <ele>52.8</ele>
        <time>2020-06-16T16:48:29Z</time>
      </trkpt>
      <trkpt lat="49.35503" lon="-0.85156">
        <ele>52.8</ele>
        <time>2020-06-16T16:48:30Z</time>
      </trkpt>
      <trkpt lat="49.35511" lon="-0.85146">
        <ele>52.8</ele>
        <time>2020-06-16T16:48:31Z</time>
      </trkpt>
      <trkpt lat="49.35517" lon="-0.85143">
        <ele>53</ele>
        <time>2020-06-16T16:48:32Z</time>
      </trkpt>
      <trkpt lat="49.35527" lon="-0.8514">
        <ele>53.4</ele>
        <time>2020-06-16T16:48:33Z</time>
      </trkpt>
      <trkpt lat="49.35536" lon="-0.85135">
        <ele>53.3</ele>
        <time>2020-06-16T16:48:34Z</time>
      </trkpt>
      <trkpt lat="49.35543" lon="-0.85131">
        <ele>53.2</ele>
        <time>2020-06-16T16:48:35Z</time>
      </trkpt>
      <trkpt lat="49.3555" lon="-0.85127">
        <ele>53.2</ele>
        <time>2020-06-16T16:48:36Z</time>
      </trkpt>
      <trkpt lat="49.35557" lon="-0.85126">
        <ele>53.2</ele>
        <time>2020-06-16T16:48:37Z</time>
      </trkpt>
      <trkpt lat="49.35564" lon="-0.85124">
        <ele>53.2</ele>
        <time>2020-06-16T16:48:38Z</time>
      </trkpt>
      <trkpt lat="49.3557" lon="-0.85122">
        <ele>53.3</ele>
        <time>2020-06-16T16:48:39Z</time>
      </trkpt>
      <trkpt lat="49.35576" lon="-0.85121">
        <ele>53.3</ele>
        <time>2020-06-16T16:48:40Z</time>
      </trkpt>
      <trkpt lat="49.35581" lon="-0.8512">
        <ele>53.3</ele>
        <time>2020-06-16T16:48:41Z</time>
      </trkpt>
      <trkpt lat="49.35586" lon="-0.8512">
        <ele>53.3</ele>
        <time>2020-06-16T16:48:42Z</time>
      </trkpt>
      <trkpt lat="49.35592" lon="-0.8512">
        <ele>53.3</ele>
        <time>2020-06-16T16:48:43Z</time>
      </trkpt>
      <trkpt lat="49.35597" lon="-0.85119">
        <ele>53.4</ele>
        <time>2020-06-16T16:48:44Z</time>
      </trkpt>
      <trkpt lat="49.35602" lon="-0.85118">
        <ele>53.4</ele>
        <time>2020-06-16T16:48:45Z</time>
      </trkpt>
      <trkpt lat="49.35607" lon="-0.85116">
        <ele>53.4</ele>
        <time>2020-06-16T16:48:46Z</time>
      </trkpt>
      <trkpt lat="49.35613" lon="-0.85114">
        <ele>53.4</ele>
        <time>2020-06-16T16:48:47Z</time>
      </trkpt>
      <trkpt lat="49.35618" lon="-0.85112">
        <ele>53.5</ele>
        <time>2020-06-16T16:48:48Z</time>
      </trkpt>
      <trkpt lat="49.35623" lon="-0.8511">
        <ele>53.5</ele>
        <time>2020-06-16T16:48:49Z</time>
      </trkpt>
      <trkpt lat="49.35629" lon="-0.8511">
        <ele>53.5</ele>
        <time>2020-06-16T16:48:50Z</time>
      </trkpt>
      <trkpt lat="49.35634" lon="-0.85108">
        <ele>53.5</ele>
        <time>2020-06-16T16:48:51Z</time>
      </trkpt>
      <trkpt lat="49.35639" lon="-0.85106">
        <ele>53.5</ele>
        <time>2020-06-16T16:48:52Z</time>
      </trkpt>
      <trkpt lat="49.35644" lon="-0.85105">
        <ele>53.5</ele>
        <time>2020-06-16T16:48:53Z</time>
      </trkpt>
      <trkpt lat="49.3565" lon="-0.85104">
        <ele>53.4</ele>
        <time>2020-06-16T16:48:54Z</time>
      </trkpt>
      <trkpt lat="49.35655" lon="-0.85103">
        <ele>53.4</ele>
        <time>2020-06-16T16:48:55Z</time>
      </trkpt>
      <trkpt lat="49.3566" lon="-0.85102">
        <ele>53.4</ele>
        <time>2020-06-16T16:48:56Z</time>
      </trkpt>
      <trkpt lat="49.35665" lon="-0.85102">
        <ele>53.4</ele>
        <time>2020-06-16T16:48:57Z</time>
      </trkpt>
      <trkpt lat="49.3567" lon="-0.85101">
        <ele>53.3</ele>
        <time>2020-06-16T16:48:58Z</time>
      </trkpt>
      <trkpt lat="49.35675" lon="-0.851">
        <ele>53.3</ele>
        <time>2020-06-16T16:48:59Z</time>
      </trkpt>
      <trkpt lat="49.3568" lon="-0.85099">
        <ele>53.3</ele>
        <time>2020-06-16T16:49:00Z</time>
      </trkpt>
      <trkpt lat="49.35685" lon="-0.85099">
        <ele>53.3</ele>
        <time>2020-06-16T16:49:01Z</time>
      </trkpt>
      <trkpt lat="49.35689" lon="-0.85097">
        <ele>53.2</ele>
        <time>2020-06-16T16:49:02Z</time>
      </trkpt>
      <trkpt lat="49.35694" lon="-0.85097">
        <ele>53.2</ele>
        <time>2020-06-16T16:49:03Z</time>
      </trkpt>
      <trkpt lat="49.35698" lon="-0.85096">
        <ele>53.2</ele>
        <time>2020-06-16T16:49:04Z</time>
      </trkpt>
      <trkpt lat="49.35703" lon="-0.85096">
        <ele>53.1</ele>
        <time>2020-06-16T16:49:05Z</time>
      </trkpt>
      <trkpt lat="49.35708" lon="-0.85095">
        <ele>53.1</ele>
        <time>2020-06-16T16:49:06Z</time>
      </trkpt>
      <trkpt lat="49.35712" lon="-0.85095">
        <ele>53</ele>
        <time>2020-06-16T16:49:07Z</time>
      </trkpt>
      <trkpt lat="49.35717" lon="-0.85094">
        <ele>53</ele>
        <time>2020-06-16T16:49:08Z</time>
      </trkpt>
      <trkpt lat="49.35721" lon="-0.85093">
        <ele>52.9</ele>
        <time>2020-06-16T16:49:09Z</time>
      </trkpt>
      <trkpt lat="49.35725" lon="-0.85093">
        <ele>52.8</ele>
        <time>2020-06-16T16:49:10Z</time>
      </trkpt>
      <trkpt lat="49.3573" lon="-0.85091">
        <ele>52.7</ele>
        <time>2020-06-16T16:49:11Z</time>
      </trkpt>
      <trkpt lat="49.35734" lon="-0.8509">
        <ele>52.7</ele>
        <time>2020-06-16T16:49:12Z</time>
      </trkpt>
      <trkpt lat="49.35738" lon="-0.85088">
        <ele>52.6</ele>
        <time>2020-06-16T16:49:13Z</time>
      </trkpt>
      <trkpt lat="49.35742" lon="-0.85086">
        <ele>52.5</ele>
        <time>2020-06-16T16:49:14Z</time>
      </trkpt>
      <trkpt lat="49.35747" lon="-0.85085">
        <ele>52.5</ele>
        <time>2020-06-16T16:49:15Z</time>
      </trkpt>
      <trkpt lat="49.35751" lon="-0.85083">
        <ele>52.4</ele>
        <time>2020-06-16T16:49:16Z</time>
      </trkpt>
      <trkpt lat="49.35755" lon="-0.85082">
        <ele>52.4</ele>
        <time>2020-06-16T16:49:17Z</time>
      </trkpt>
      <trkpt lat="49.35758" lon="-0.8508">
        <ele>52.4</ele>
        <time>2020-06-16T16:49:18Z</time>
      </trkpt>
      <trkpt lat="49.3576" lon="-0.85078">
        <ele>52.4</ele>
        <time>2020-06-16T16:49:19Z</time>
      </trkpt>
      <trkpt lat="49.35763" lon="-0.85075">
        <ele>52.4</ele>
        <time>2020-06-16T16:49:20Z</time>
      </trkpt>
      <trkpt lat="49.35766" lon="-0.85074">
        <ele>52.4</ele>
        <time>2020-06-16T16:49:21Z</time>
      </trkpt>
      <trkpt lat="49.3577" lon="-0.85072">
        <ele>52.5</ele>
        <time>2020-06-16T16:49:22Z</time>
      </trkpt>
      <trkpt lat="49.35773" lon="-0.85071">
        <ele>52.5</ele>
        <time>2020-06-16T16:49:23Z</time>
      </trkpt>
      <trkpt lat="49.35776" lon="-0.8507">
        <ele>52.5</ele>
        <time>2020-06-16T16:49:24Z</time>
      </trkpt>
      <trkpt lat="49.3578" lon="-0.85067">
        <ele>52.5</ele>
        <time>2020-06-16T16:49:25Z</time>
      </trkpt>
      <trkpt lat="49.35783" lon="-0.85066">
        <ele>52.5</ele>
        <time>2020-06-16T16:49:26Z</time>
      </trkpt>
      <trkpt lat="49.35788" lon="-0.85063">
        <ele>52.3</ele>
        <time>2020-06-16T16:49:27Z</time>
      </trkpt>
      <trkpt lat="49.35793" lon="-0.85061">
        <ele>52.1</ele>
        <time>2020-06-16T16:49:28Z</time>
      </trkpt>
      <trkpt lat="49.35798" lon="-0.85058">
        <ele>52</ele>
        <time>2020-06-16T16:49:29Z</time>
      </trkpt>
      <trkpt lat="49.35801" lon="-0.85057">
        <ele>51.9</ele>
        <time>2020-06-16T16:49:30Z</time>
      </trkpt>
      <trkpt lat="49.35804" lon="-0.85055">
        <ele>51.8</ele>
        <time>2020-06-16T16:49:31Z</time>
      </trkpt>
      <trkpt lat="49.35805" lon="-0.85055">
        <ele>51.8</ele>
        <time>2020-06-16T16:49:32Z</time>
      </trkpt>
      <trkpt lat="49.35809" lon="-0.85054">
        <ele>51.7</ele>
        <time>2020-06-16T16:49:33Z</time>
      </trkpt>
      <trkpt lat="49.3581" lon="-0.85054">
        <ele>51.7</ele>
        <time>2020-06-16T16:49:34Z</time>
      </trkpt>
      <trkpt lat="49.35813" lon="-0.85054">
        <ele>51.6</ele>
        <time>2020-06-16T16:49:35Z</time>
      </trkpt>
      <trkpt lat="49.35816" lon="-0.85053">
        <ele>51.6</ele>
        <time>2020-06-16T16:49:36Z</time>
      </trkpt>
      <trkpt lat="49.35818" lon="-0.8505">
        <ele>51.5</ele>
        <time>2020-06-16T16:49:37Z</time>
      </trkpt>
      <trkpt lat="49.35822" lon="-0.85048">
        <ele>51.4</ele>
        <time>2020-06-16T16:49:38Z</time>
      </trkpt>
      <trkpt lat="49.35823" lon="-0.85047">
        <ele>51.4</ele>
        <time>2020-06-16T16:49:39Z</time>
      </trkpt>
      <trkpt lat="49.35825" lon="-0.85047">
        <ele>51.3</ele>
        <time>2020-06-16T16:49:40Z</time>
      </trkpt>
      <trkpt lat="49.35829" lon="-0.85045">
        <ele>51.1</ele>
        <time>2020-06-16T16:49:41Z</time>
      </trkpt>
      <trkpt lat="49.3583" lon="-0.85044">
        <ele>51.1</ele>
        <time>2020-06-16T16:49:42Z</time>
      </trkpt>
      <trkpt lat="49.35834" lon="-0.85043">
        <ele>51</ele>
        <time>2020-06-16T16:49:43Z</time>
      </trkpt>
      <trkpt lat="49.35834" lon="-0.85042">
        <ele>50.9</ele>
        <time>2020-06-16T16:49:44Z</time>
      </trkpt>
      <trkpt lat="49.35836" lon="-0.8504">
        <ele>50.9</ele>
        <time>2020-06-16T16:49:45Z</time>
      </trkpt>
      <trkpt lat="49.35837" lon="-0.8504">
        <ele>50.9</ele>
        <time>2020-06-16T16:49:46Z</time>
      </trkpt>
      <trkpt lat="49.35837" lon="-0.8504">
        <ele>50.9</ele>
        <time>2020-06-16T16:49:47Z</time>
      </trkpt>
      <trkpt lat="49.35838" lon="-0.8504">
        <ele>50.9</ele>
        <time>2020-06-16T16:49:48Z</time>
      </trkpt>
      <trkpt lat="49.35839" lon="-0.8504">
        <ele>51</ele>
        <time>2020-06-16T16:49:49Z</time>
      </trkpt>
      <trkpt lat="49.3584" lon="-0.85041">
        <ele>51</ele>
        <time>2020-06-16T16:49:50Z</time>
      </trkpt>
      <trkpt lat="49.3584" lon="-0.85041">
        <ele>51</ele>
        <time>2020-06-16T16:49:51Z</time>
      </trkpt>
      <trkpt lat="49.35842" lon="-0.85042">
        <ele>51.1</ele>
        <time>2020-06-16T16:49:52Z</time>
      </trkpt>
      <trkpt lat="49.35843" lon="-0.85042">
        <ele>51.1</ele>
        <time>2020-06-16T16:49:53Z</time>
      </trkpt>
      <trkpt lat="49.35844" lon="-0.85042">
        <ele>51.1</ele>
        <time>2020-06-16T16:49:54Z</time>
      </trkpt>
      <trkpt lat="49.35843" lon="-0.85043">
        <ele>51.2</ele>
        <time>2020-06-16T16:49:55Z</time>
      </trkpt>
      <trkpt lat="49.35841" lon="-0.85043">
        <ele>51.2</ele>
        <time>2020-06-16T16:49:56Z</time>
      </trkpt>
      <trkpt lat="49.3584" lon="-0.85043">
        <ele>51.2</ele>
        <time>2020-06-16T16:49:57Z</time>
      </trkpt>
      <trkpt lat="49.35838" lon="-0.85043">
        <ele>51.3</ele>
        <time>2020-06-16T16:49:58Z</time>
      </trkpt>
      <trkpt lat="49.35837" lon="-0.85044">
        <ele>51.3</ele>
        <time>2020-06-16T16:52:30Z</time>
      </trkpt>
      <trkpt lat="49.35836" lon="-0.85044">
        <ele>51.3</ele>
        <time>2020-06-16T16:52:31Z</time>
      </trkpt>
      <trkpt lat="49.35832" lon="-0.85043">
        <ele>51.4</ele>
        <time>2020-06-16T16:52:32Z</time>
      </trkpt>
      <trkpt lat="49.35831" lon="-0.85043">
        <ele>51.4</ele>
        <time>2020-06-16T16:52:33Z</time>
      </trkpt>
      <trkpt lat="49.35827" lon="-0.85043">
        <ele>51.5</ele>
        <time>2020-06-16T16:52:34Z</time>
      </trkpt>
      <trkpt lat="49.35824" lon="-0.85043">
        <ele>51.6</ele>
        <time>2020-06-16T16:52:35Z</time>
      </trkpt>
      <trkpt lat="49.35822" lon="-0.85045">
        <ele>51.6</ele>
        <time>2020-06-16T16:52:36Z</time>
      </trkpt>
      <trkpt lat="49.35818" lon="-0.85046">
        <ele>51.7</ele>
        <time>2020-06-16T16:52:37Z</time>
      </trkpt>
      <trkpt lat="49.35817" lon="-0.85046">
        <ele>51.7</ele>
        <time>2020-06-16T16:52:38Z</time>
      </trkpt>
      <trkpt lat="49.35814" lon="-0.85047">
        <ele>51.7</ele>
        <time>2020-06-16T16:52:39Z</time>
      </trkpt>
      <trkpt lat="49.35813" lon="-0.85048">
        <ele>51.7</ele>
        <time>2020-06-16T16:52:40Z</time>
      </trkpt>
      <trkpt lat="49.3581" lon="-0.8505">
        <ele>51.8</ele>
        <time>2020-06-16T16:52:41Z</time>
      </trkpt>
      <trkpt lat="49.35805" lon="-0.85051">
        <ele>51.9</ele>
        <time>2020-06-16T16:52:42Z</time>
      </trkpt>
      <trkpt lat="49.358" lon="-0.85053">
        <ele>52</ele>
        <time>2020-06-16T16:52:43Z</time>
      </trkpt>
      <trkpt lat="49.35795" lon="-0.85054">
        <ele>52.1</ele>
        <time>2020-06-16T16:52:44Z</time>
      </trkpt>
      <trkpt lat="49.35791" lon="-0.85054">
        <ele>52.1</ele>
        <time>2020-06-16T16:52:45Z</time>
      </trkpt>
      <trkpt lat="49.35786" lon="-0.85055">
        <ele>52.5</ele>
        <time>2020-06-16T16:52:46Z</time>
      </trkpt>
      <trkpt lat="49.35782" lon="-0.85058">
        <ele>52.5</ele>
        <time>2020-06-16T16:52:47Z</time>
      </trkpt>
      <trkpt lat="49.35778" lon="-0.85061">
        <ele>52.5</ele>
        <time>2020-06-16T16:52:48Z</time>
      </trkpt>
      <trkpt lat="49.35774" lon="-0.85063">
        <ele>52.5</ele>
        <time>2020-06-16T16:52:49Z</time>
      </trkpt>
      <trkpt lat="49.3577" lon="-0.85065">
        <ele>52.4</ele>
        <time>2020-06-16T16:52:50Z</time>
      </trkpt>
      <trkpt lat="49.35766" lon="-0.85068">
        <ele>52.4</ele>
        <time>2020-06-16T16:52:51Z</time>
      </trkpt>
      <trkpt lat="49.35761" lon="-0.8507">
        <ele>52.4</ele>
        <time>2020-06-16T16:52:52Z</time>
      </trkpt>
      <trkpt lat="49.35756" lon="-0.8507">
        <ele>52.4</ele>
        <time>2020-06-16T16:52:53Z</time>
      </trkpt>
      <trkpt lat="49.35751" lon="-0.85071">
        <ele>52.4</ele>
        <time>2020-06-16T16:52:54Z</time>
      </trkpt>
      <trkpt lat="49.35747" lon="-0.85073">
        <ele>52.4</ele>
        <time>2020-06-16T16:52:55Z</time>
      </trkpt>
      <trkpt lat="49.35742" lon="-0.85075">
        <ele>52.5</ele>
        <time>2020-06-16T16:52:56Z</time>
      </trkpt>
      <trkpt lat="49.35738" lon="-0.85078">
        <ele>52.5</ele>
        <time>2020-06-16T16:52:57Z</time>
      </trkpt>
      <trkpt lat="49.35733" lon="-0.8508">
        <ele>52.6</ele>
        <time>2020-06-16T16:52:58Z</time>
      </trkpt>
      <trkpt lat="49.35728" lon="-0.85082">
        <ele>52.7</ele>
        <time>2020-06-16T16:52:59Z</time>
      </trkpt>
      <trkpt lat="49.35724" lon="-0.85083">
        <ele>52.8</ele>
        <time>2020-06-16T16:53:00Z</time>
      </trkpt>
      <trkpt lat="49.35719" lon="-0.85085">
        <ele>52.9</ele>
        <time>2020-06-16T16:53:01Z</time>
      </trkpt>
      <trkpt lat="49.35715" lon="-0.85087">
        <ele>53</ele>
        <time>2020-06-16T16:53:02Z</time>
      </trkpt>
      <trkpt lat="49.35711" lon="-0.85089">
        <ele>53</ele>
        <time>2020-06-16T16:53:03Z</time>
      </trkpt>
      <trkpt lat="49.35706" lon="-0.85091">
        <ele>53.1</ele>
        <time>2020-06-16T16:53:04Z</time>
      </trkpt>
      <trkpt lat="49.35702" lon="-0.85092">
        <ele>53.1</ele>
        <time>2020-06-16T16:53:05Z</time>
      </trkpt>
      <trkpt lat="49.35698" lon="-0.85094">
        <ele>53.2</ele>
        <time>2020-06-16T16:53:06Z</time>
      </trkpt>
      <trkpt lat="49.35693" lon="-0.85096">
        <ele>53.2</ele>
        <time>2020-06-16T16:53:07Z</time>
      </trkpt>
      <trkpt lat="49.3569" lon="-0.85098">
        <ele>53.2</ele>
        <time>2020-06-16T16:53:08Z</time>
      </trkpt>
      <trkpt lat="49.35685" lon="-0.85099">
        <ele>53.3</ele>
        <time>2020-06-16T16:53:09Z</time>
      </trkpt>
      <trkpt lat="49.35681" lon="-0.85101">
        <ele>53.3</ele>
        <time>2020-06-16T16:53:10Z</time>
      </trkpt>
      <trkpt lat="49.35676" lon="-0.85102">
        <ele>53.3</ele>
        <time>2020-06-16T16:53:11Z</time>
      </trkpt>
      <trkpt lat="49.35672" lon="-0.85104">
        <ele>53.3</ele>
        <time>2020-06-16T16:53:12Z</time>
      </trkpt>
      <trkpt lat="49.35667" lon="-0.85106">
        <ele>53.3</ele>
        <time>2020-06-16T16:53:13Z</time>
      </trkpt>
      <trkpt lat="49.35663" lon="-0.85107">
        <ele>53.4</ele>
        <time>2020-06-16T16:53:14Z</time>
      </trkpt>
      <trkpt lat="49.35659" lon="-0.85108">
        <ele>53.4</ele>
        <time>2020-06-16T16:53:15Z</time>
      </trkpt>
      <trkpt lat="49.35654" lon="-0.85109">
        <ele>53.4</ele>
        <time>2020-06-16T16:53:16Z</time>
      </trkpt>
      <trkpt lat="49.35648" lon="-0.8511">
        <ele>53.5</ele>
        <time>2020-06-16T16:53:17Z</time>
      </trkpt>
      <trkpt lat="49.35642" lon="-0.85111">
        <ele>53.5</ele>
        <time>2020-06-16T16:53:18Z</time>
      </trkpt>
      <trkpt lat="49.35637" lon="-0.85112">
        <ele>53.5</ele>
        <time>2020-06-16T16:53:19Z</time>
      </trkpt>
      <trkpt lat="49.35633" lon="-0.85113">
        <ele>53.5</ele>
        <time>2020-06-16T16:53:20Z</time>
      </trkpt>
      <trkpt lat="49.35628" lon="-0.85114">
        <ele>53.5</ele>
        <time>2020-06-16T16:53:21Z</time>
      </trkpt>
      <trkpt lat="49.35623" lon="-0.85116">
        <ele>53.5</ele>
        <time>2020-06-16T16:53:22Z</time>
      </trkpt>
      <trkpt lat="49.35619" lon="-0.85117">
        <ele>53.5</ele>
        <time>2020-06-16T16:53:23Z</time>
      </trkpt>
      <trkpt lat="49.35614" lon="-0.85118">
        <ele>53.4</ele>
        <time>2020-06-16T16:53:24Z</time>
      </trkpt>
      <trkpt lat="49.35609" lon="-0.85119">
        <ele>53.4</ele>
        <time>2020-06-16T16:53:25Z</time>
      </trkpt>
      <trkpt lat="49.35604" lon="-0.8512">
        <ele>53.4</ele>
        <time>2020-06-16T16:53:26Z</time>
      </trkpt>
      <trkpt lat="49.35599" lon="-0.85122">
        <ele>53.4</ele>
        <time>2020-06-16T16:53:27Z</time>
      </trkpt>
      <trkpt lat="49.35595" lon="-0.85123">
        <ele>53.3</ele>
        <time>2020-06-16T16:53:28Z</time>
      </trkpt>
      <trkpt lat="49.3559" lon="-0.85125">
        <ele>53.3</ele>
        <time>2020-06-16T16:53:29Z</time>
      </trkpt>
      <trkpt lat="49.35585" lon="-0.85126">
        <ele>53.3</ele>
        <time>2020-06-16T16:53:30Z</time>
      </trkpt>
      <trkpt lat="49.3558" lon="-0.85127">
        <ele>53.3</ele>
        <time>2020-06-16T16:53:31Z</time>
      </trkpt>
      <trkpt lat="49.35575" lon="-0.85129">
        <ele>53.3</ele>
        <time>2020-06-16T16:53:32Z</time>
      </trkpt>
      <trkpt lat="49.3557" lon="-0.85131">
        <ele>53.2</ele>
        <time>2020-06-16T16:53:33Z</time>
      </trkpt>
      <trkpt lat="49.35565" lon="-0.85132">
        <ele>53.2</ele>
        <time>2020-06-16T16:53:34Z</time>
      </trkpt>
      <trkpt lat="49.3556" lon="-0.85133">
        <ele>53.2</ele>
        <time>2020-06-16T16:53:35Z</time>
      </trkpt>
      <trkpt lat="49.35555" lon="-0.85135">
        <ele>53.2</ele>
        <time>2020-06-16T16:53:36Z</time>
      </trkpt>
      <trkpt lat="49.35549" lon="-0.85137">
        <ele>53.2</ele>
        <time>2020-06-16T16:53:37Z</time>
      </trkpt>
      <trkpt lat="49.35544" lon="-0.85139">
        <ele>53.3</ele>
        <time>2020-06-16T16:53:38Z</time>
      </trkpt>
      <trkpt lat="49.35539" lon="-0.85143">
        <ele>53.3</ele>
        <time>2020-06-16T16:53:39Z</time>
      </trkpt>
      <trkpt lat="49.35536" lon="-0.85147">
        <ele>53.4</ele>
        <time>2020-06-16T16:53:40Z</time>
      </trkpt>
      <trkpt lat="49.35533" lon="-0.85151">
        <ele>53.5</ele>
        <time>2020-06-16T16:53:41Z</time>
      </trkpt>
      <trkpt lat="49.3553" lon="-0.85156">
        <ele>53.5</ele>
        <time>2020-06-16T16:53:42Z</time>
      </trkpt>
      <trkpt lat="49.35529" lon="-0.85161">
        <ele>53.6</ele>
        <time>2020-06-16T16:53:43Z</time>
      </trkpt>
      <trkpt lat="49.35527" lon="-0.85166">
        <ele>53.7</ele>
        <time>2020-06-16T16:53:44Z</time>
      </trkpt>
      <trkpt lat="49.35527" lon="-0.85171">
        <ele>53.8</ele>
        <time>2020-06-16T16:53:45Z</time>
      </trkpt>
      <trkpt lat="49.35527" lon="-0.85173">
        <ele>53.9</ele>
        <time>2020-06-16T16:53:46Z</time>
      </trkpt>
      <trkpt lat="49.35527" lon="-0.85178">
        <ele>54</ele>
        <time>2020-06-16T16:53:47Z</time>
      </trkpt>
      <trkpt lat="49.35528" lon="-0.85183">
        <ele>54.1</ele>
        <time>2020-06-16T16:53:48Z</time>
      </trkpt>
      <trkpt lat="49.35529" lon="-0.85189">
        <ele>54.3</ele>
        <time>2020-06-16T16:53:49Z</time>
      </trkpt>
      <trkpt lat="49.3553" lon="-0.85195">
        <ele>54.4</ele>
        <time>2020-06-16T16:53:50Z</time>
      </trkpt>
      <trkpt lat="49.3553" lon="-0.85201">
        <ele>54.6</ele>
        <time>2020-06-16T16:53:51Z</time>
      </trkpt>
      <trkpt lat="49.35531" lon="-0.85206">
        <ele>54.7</ele>
        <time>2020-06-16T16:53:52Z</time>
      </trkpt>
      <trkpt lat="49.35532" lon="-0.85212">
        <ele>54.9</ele>
        <time>2020-06-16T16:53:53Z</time>
      </trkpt>
      <trkpt lat="49.35532" lon="-0.85216">
        <ele>55</ele>
        <time>2020-06-16T16:53:54Z</time>
      </trkpt>
      <trkpt lat="49.35531" lon="-0.85222">
        <ele>55.2</ele>
        <time>2020-06-16T16:53:55Z</time>
      </trkpt>
      <trkpt lat="49.35531" lon="-0.85227">
        <ele>55.4</ele>
        <time>2020-06-16T16:53:56Z</time>
      </trkpt>
      <trkpt lat="49.35531" lon="-0.85233">
        <ele>55.5</ele>
        <time>2020-06-16T16:53:57Z</time>
      </trkpt>
      <trkpt lat="49.35531" lon="-0.85238">
        <ele>55.6</ele>
        <time>2020-06-16T16:53:58Z</time>
      </trkpt>
      <trkpt lat="49.3553" lon="-0.85246">
        <ele>55.8</ele>
        <time>2020-06-16T16:53:59Z</time>
      </trkpt>
      <trkpt lat="49.35528" lon="-0.85253">
        <ele>56</ele>
        <time>2020-06-16T16:54:00Z</time>
      </trkpt>
      <trkpt lat="49.35525" lon="-0.8526">
        <ele>56.1</ele>
        <time>2020-06-16T16:54:01Z</time>
      </trkpt>
      <trkpt lat="49.35523" lon="-0.85264">
        <ele>56.3</ele>
        <time>2020-06-16T16:54:02Z</time>
      </trkpt>
      <trkpt lat="49.35519" lon="-0.85268">
        <ele>56.4</ele>
        <time>2020-06-16T16:54:03Z</time>
      </trkpt>
      <trkpt lat="49.35516" lon="-0.85271">
        <ele>56.5</ele>
        <time>2020-06-16T16:54:04Z</time>
      </trkpt>
      <trkpt lat="49.35512" lon="-0.85274">
        <ele>56.6</ele>
        <time>2020-06-16T16:54:05Z</time>
      </trkpt>
      <trkpt lat="49.35508" lon="-0.85276">
        <ele>56.7</ele>
        <time>2020-06-16T16:54:06Z</time>
      </trkpt>
      <trkpt lat="49.35504" lon="-0.85277">
        <ele>56.8</ele>
        <time>2020-06-16T16:54:07Z</time>
      </trkpt>
      <trkpt lat="49.35501" lon="-0.85279">
        <ele>56.8</ele>
        <time>2020-06-16T16:54:08Z</time>
      </trkpt>
      <trkpt lat="49.35497" lon="-0.85279">
        <ele>56.8</ele>
        <time>2020-06-16T16:54:09Z</time>
      </trkpt>
      <trkpt lat="49.35493" lon="-0.85281">
        <ele>57.1</ele>
        <time>2020-06-16T16:54:10Z</time>
      </trkpt>
      <trkpt lat="49.35489" lon="-0.85282">
        <ele>57.1</ele>
        <time>2020-06-16T16:54:11Z</time>
      </trkpt>
      <trkpt lat="49.35484" lon="-0.85282">
        <ele>57.2</ele>
        <time>2020-06-16T16:54:12Z</time>
      </trkpt>
      <trkpt lat="49.35479" lon="-0.85282">
        <ele>57.2</ele>
        <time>2020-06-16T16:54:13Z</time>
      </trkpt>
      <trkpt lat="49.35474" lon="-0.85283">
        <ele>57.3</ele>
        <time>2020-06-16T16:54:14Z</time>
      </trkpt>
      <trkpt lat="49.3547" lon="-0.85283">
        <ele>57.4</ele>
        <time>2020-06-16T16:54:15Z</time>
      </trkpt>
      <trkpt lat="49.35465" lon="-0.85284">
        <ele>57.4</ele>
        <time>2020-06-16T16:54:16Z</time>
      </trkpt>
      <trkpt lat="49.35461" lon="-0.85285">
        <ele>57.5</ele>
        <time>2020-06-16T16:54:17Z</time>
      </trkpt>
      <trkpt lat="49.35456" lon="-0.85285">
        <ele>57.5</ele>
        <time>2020-06-16T16:54:18Z</time>
      </trkpt>
      <trkpt lat="49.35451" lon="-0.85286">
        <ele>57.5</ele>
        <time>2020-06-16T16:54:19Z</time>
      </trkpt>
      <trkpt lat="49.35446" lon="-0.85286">
        <ele>57.6</ele>
        <time>2020-06-16T16:54:20Z</time>
      </trkpt>
      <trkpt lat="49.35441" lon="-0.85286">
        <ele>57.6</ele>
        <time>2020-06-16T16:54:21Z</time>
      </trkpt>
      <trkpt lat="49.35437" lon="-0.85286">
        <ele>57.6</ele>
        <time>2020-06-16T16:54:22Z</time>
      </trkpt>
      <trkpt lat="49.35431" lon="-0.85284">
        <ele>57.6</ele>
        <time>2020-06-16T16:54:23Z</time>
      </trkpt>
      <trkpt lat="49.35426" lon="-0.85284">
        <ele>57.6</ele>
        <time>2020-06-16T16:54:24Z</time>
      </trkpt>
      <trkpt lat="49.3542" lon="-0.85284">
        <ele>57.7</ele>
        <time>2020-06-16T16:54:25Z</time>
      </trkpt>
      <trkpt lat="49.35415" lon="-0.85284">
        <ele>57.7</ele>
        <time>2020-06-16T16:54:26Z</time>
      </trkpt>
      <trkpt lat="49.3541" lon="-0.85283">
        <ele>57.7</ele>
        <time>2020-06-16T16:54:27Z</time>
      </trkpt>
      <trkpt lat="49.35404" lon="-0.85282">
        <ele>57.7</ele>
        <time>2020-06-16T16:54:28Z</time>
      </trkpt>
      <trkpt lat="49.35399" lon="-0.85281">
        <ele>57.7</ele>
        <time>2020-06-16T16:54:29Z</time>
      </trkpt>
      <trkpt lat="49.35394" lon="-0.8528">
        <ele>57.7</ele>
        <time>2020-06-16T16:54:30Z</time>
      </trkpt>
      <trkpt lat="49.35389" lon="-0.85279">
        <ele>57.8</ele>
        <time>2020-06-16T16:54:31Z</time>
      </trkpt>
      <trkpt lat="49.35385" lon="-0.85277">
        <ele>57.8</ele>
        <time>2020-06-16T16:54:32Z</time>
      </trkpt>
      <trkpt lat="49.35379" lon="-0.85277">
        <ele>57.8</ele>
        <time>2020-06-16T16:54:33Z</time>
      </trkpt>
      <trkpt lat="49.35374" lon="-0.85275">
        <ele>57.9</ele>
        <time>2020-06-16T16:54:34Z</time>
      </trkpt>
      <trkpt lat="49.35369" lon="-0.85274">
        <ele>58</ele>
        <time>2020-06-16T16:54:35Z</time>
      </trkpt>
      <trkpt lat="49.35363" lon="-0.85273">
        <ele>58</ele>
        <time>2020-06-16T16:54:36Z</time>
      </trkpt>
      <trkpt lat="49.35358" lon="-0.85272">
        <ele>58.1</ele>
        <time>2020-06-16T16:54:37Z</time>
      </trkpt>
      <trkpt lat="49.35354" lon="-0.85272">
        <ele>58.2</ele>
        <time>2020-06-16T16:54:38Z</time>
      </trkpt>
      <trkpt lat="49.35349" lon="-0.8527">
        <ele>58.2</ele>
        <time>2020-06-16T16:54:39Z</time>
      </trkpt>
      <trkpt lat="49.35344" lon="-0.85271">
        <ele>58.3</ele>
        <time>2020-06-16T16:54:40Z</time>
      </trkpt>
      <trkpt lat="49.35338" lon="-0.85271">
        <ele>58.3</ele>
        <time>2020-06-16T16:54:41Z</time>
      </trkpt>
      <trkpt lat="49.35332" lon="-0.85269">
        <ele>58.4</ele>
        <time>2020-06-16T16:54:42Z</time>
      </trkpt>
      <trkpt lat="49.35326" lon="-0.85268">
        <ele>58.5</ele>
        <time>2020-06-16T16:54:43Z</time>
      </trkpt>
      <trkpt lat="49.3532" lon="-0.85269">
        <ele>58.5</ele>
        <time>2020-06-16T16:54:44Z</time>
      </trkpt>
      <trkpt lat="49.35314" lon="-0.8527">
        <ele>58.6</ele>
        <time>2020-06-16T16:54:45Z</time>
      </trkpt>
      <trkpt lat="49.35308" lon="-0.85271">
        <ele>58.7</ele>
        <time>2020-06-16T16:54:46Z</time>
      </trkpt>
      <trkpt lat="49.35304" lon="-0.85271">
        <ele>58.7</ele>
        <time>2020-06-16T16:54:47Z</time>
      </trkpt>
      <trkpt lat="49.35299" lon="-0.85273">
        <ele>58.8</ele>
        <time>2020-06-16T16:54:48Z</time>
      </trkpt>
      <trkpt lat="49.35294" lon="-0.85274">
        <ele>58.9</ele>
        <time>2020-06-16T16:54:49Z</time>
      </trkpt>
      <trkpt lat="49.3529" lon="-0.85274">
        <ele>58.9</ele>
        <time>2020-06-16T16:54:50Z</time>
      </trkpt>
      <trkpt lat="49.35286" lon="-0.85275">
        <ele>59</ele>
        <time>2020-06-16T16:54:51Z</time>
      </trkpt>
      <trkpt lat="49.35282" lon="-0.85276">
        <ele>59.1</ele>
        <time>2020-06-16T16:54:52Z</time>
      </trkpt>
      <trkpt lat="49.35278" lon="-0.85278">
        <ele>59.1</ele>
        <time>2020-06-16T16:54:53Z</time>
      </trkpt>
      <trkpt lat="49.35274" lon="-0.85284">
        <ele>59.2</ele>
        <time>2020-06-16T16:54:54Z</time>
      </trkpt>
      <trkpt lat="49.35268" lon="-0.85288">
        <ele>59.3</ele>
        <time>2020-06-16T16:54:55Z</time>
      </trkpt>
      <trkpt lat="49.35264" lon="-0.85291">
        <ele>59.4</ele>
        <time>2020-06-16T16:54:56Z</time>
      </trkpt>
      <trkpt lat="49.35259" lon="-0.85294">
        <ele>59.5</ele>
        <time>2020-06-16T16:54:57Z</time>
      </trkpt>
      <trkpt lat="49.35255" lon="-0.85297">
        <ele>59.6</ele>
        <time>2020-06-16T16:54:58Z</time>
      </trkpt>
      <trkpt lat="49.3525" lon="-0.85299">
        <ele>59.7</ele>
        <time>2020-06-16T16:54:59Z</time>
      </trkpt>
      <trkpt lat="49.35246" lon="-0.853">
        <ele>59.8</ele>
        <time>2020-06-16T16:55:00Z</time>
      </trkpt>
      <trkpt lat="49.35241" lon="-0.85303">
        <ele>59.9</ele>
        <time>2020-06-16T16:55:01Z</time>
      </trkpt>
      <trkpt lat="49.35236" lon="-0.85306">
        <ele>60</ele>
        <time>2020-06-16T16:55:02Z</time>
      </trkpt>
      <trkpt lat="49.3523" lon="-0.85309">
        <ele>60.1</ele>
        <time>2020-06-16T16:55:03Z</time>
      </trkpt>
      <trkpt lat="49.35224" lon="-0.85312">
        <ele>60.2</ele>
        <time>2020-06-16T16:55:04Z</time>
      </trkpt>
      <trkpt lat="49.35217" lon="-0.85315">
        <ele>60.4</ele>
        <time>2020-06-16T16:55:05Z</time>
      </trkpt>
      <trkpt lat="49.35212" lon="-0.8532">
        <ele>60.5</ele>
        <time>2020-06-16T16:55:06Z</time>
      </trkpt>
      <trkpt lat="49.35207" lon="-0.85323">
        <ele>60.7</ele>
        <time>2020-06-16T16:55:07Z</time>
      </trkpt>
      <trkpt lat="49.35202" lon="-0.85324">
        <ele>60.8</ele>
        <time>2020-06-16T16:55:08Z</time>
      </trkpt>
      <trkpt lat="49.35197" lon="-0.85326">
        <ele>60.9</ele>
        <time>2020-06-16T16:55:09Z</time>
      </trkpt>
      <trkpt lat="49.35191" lon="-0.85328">
        <ele>61</ele>
        <time>2020-06-16T16:55:10Z</time>
      </trkpt>
      <trkpt lat="49.35187" lon="-0.85329">
        <ele>61.1</ele>
        <time>2020-06-16T16:55:11Z</time>
      </trkpt>
      <trkpt lat="49.35183" lon="-0.8533">
        <ele>61.2</ele>
        <time>2020-06-16T16:55:12Z</time>
      </trkpt>
      <trkpt lat="49.35178" lon="-0.85333">
        <ele>61.3</ele>
        <time>2020-06-16T16:55:13Z</time>
      </trkpt>
      <trkpt lat="49.35172" lon="-0.85338">
        <ele>61.4</ele>
        <time>2020-06-16T16:55:14Z</time>
      </trkpt>
      <trkpt lat="49.35167" lon="-0.85339">
        <ele>61.4</ele>
        <time>2020-06-16T16:55:15Z</time>
      </trkpt>
      <trkpt lat="49.35163" lon="-0.85343">
        <ele>61.5</ele>
        <time>2020-06-16T16:55:16Z</time>
      </trkpt>
      <trkpt lat="49.35158" lon="-0.85346">
        <ele>61.6</ele>
        <time>2020-06-16T16:55:17Z</time>
      </trkpt>
      <trkpt lat="49.35153" lon="-0.85349">
        <ele>61.7</ele>
        <time>2020-06-16T16:55:18Z</time>
      </trkpt>
      <trkpt lat="49.35148" lon="-0.85354">
        <ele>61.8</ele>
        <time>2020-06-16T16:55:19Z</time>
      </trkpt>
      <trkpt lat="49.35143" lon="-0.85358">
        <ele>61.9</ele>
        <time>2020-06-16T16:55:20Z</time>
      </trkpt>
      <trkpt lat="49.35138" lon="-0.85362">
        <ele>62</ele>
        <time>2020-06-16T16:55:21Z</time>
      </trkpt>
      <trkpt lat="49.35134" lon="-0.85364">
        <ele>62.1</ele>
        <time>2020-06-16T16:55:22Z</time>
      </trkpt>
      <trkpt lat="49.35129" lon="-0.85367">
        <ele>62.2</ele>
        <time>2020-06-16T16:55:23Z</time>
      </trkpt>
      <trkpt lat="49.35125" lon="-0.85369">
        <ele>62.2</ele>
        <time>2020-06-16T16:55:24Z</time>
      </trkpt>
      <trkpt lat="49.3512" lon="-0.85371">
        <ele>62.3</ele>
        <time>2020-06-16T16:55:25Z</time>
      </trkpt>
      <trkpt lat="49.35115" lon="-0.85373">
        <ele>62.4</ele>
        <time>2020-06-16T16:55:26Z</time>
      </trkpt>
      <trkpt lat="49.35111" lon="-0.85375">
        <ele>62.4</ele>
        <time>2020-06-16T16:55:27Z</time>
      </trkpt>
      <trkpt lat="49.35106" lon="-0.85378">
        <ele>62.5</ele>
        <time>2020-06-16T16:55:28Z</time>
      </trkpt>
      <trkpt lat="49.35101" lon="-0.85382">
        <ele>62.6</ele>
        <time>2020-06-16T16:55:29Z</time>
      </trkpt>
      <trkpt lat="49.35095" lon="-0.85384">
        <ele>62.7</ele>
        <time>2020-06-16T16:55:30Z</time>
      </trkpt>
      <trkpt lat="49.3509" lon="-0.85387">
        <ele>62.7</ele>
        <time>2020-06-16T16:55:31Z</time>
      </trkpt>
      <trkpt lat="49.35084" lon="-0.85389">
        <ele>62.8</ele>
        <time>2020-06-16T16:55:32Z</time>
      </trkpt>
      <trkpt lat="49.35079" lon="-0.85391">
        <ele>62.8</ele>
        <time>2020-06-16T16:55:33Z</time>
      </trkpt>
      <trkpt lat="49.35075" lon="-0.85393">
        <ele>62.9</ele>
        <time>2020-06-16T16:55:34Z</time>
      </trkpt>
      <trkpt lat="49.35068" lon="-0.85396">
        <ele>62.9</ele>
        <time>2020-06-16T16:55:35Z</time>
      </trkpt>
      <trkpt lat="49.35063" lon="-0.85398">
        <ele>63</ele>
        <time>2020-06-16T16:55:36Z</time>
      </trkpt>
      <trkpt lat="49.35059" lon="-0.854">
        <ele>63</ele>
        <time>2020-06-16T16:55:37Z</time>
      </trkpt>
      <trkpt lat="49.35054" lon="-0.85401">
        <ele>63.1</ele>
        <time>2020-06-16T16:55:38Z</time>
      </trkpt>
      <trkpt lat="49.35049" lon="-0.85404">
        <ele>63.2</ele>
        <time>2020-06-16T16:55:39Z</time>
      </trkpt>
      <trkpt lat="49.35043" lon="-0.85406">
        <ele>63.2</ele>
        <time>2020-06-16T16:55:40Z</time>
      </trkpt>
      <trkpt lat="49.35038" lon="-0.85409">
        <ele>63.3</ele>
        <time>2020-06-16T16:55:41Z</time>
      </trkpt>
      <trkpt lat="49.35032" lon="-0.85412">
        <ele>63.4</ele>
        <time>2020-06-16T16:55:42Z</time>
      </trkpt>
      <trkpt lat="49.35026" lon="-0.85415">
        <ele>63.5</ele>
        <time>2020-06-16T16:55:43Z</time>
      </trkpt>
      <trkpt lat="49.35021" lon="-0.85419">
        <ele>63.6</ele>
        <time>2020-06-16T16:55:44Z</time>
      </trkpt>
      <trkpt lat="49.35016" lon="-0.85423">
        <ele>63.7</ele>
        <time>2020-06-16T16:55:45Z</time>
      </trkpt>
      <trkpt lat="49.3501" lon="-0.85426">
        <ele>63.8</ele>
        <time>2020-06-16T16:55:46Z</time>
      </trkpt>
      <trkpt lat="49.35005" lon="-0.85429">
        <ele>63.9</ele>
        <time>2020-06-16T16:55:47Z</time>
      </trkpt>
      <trkpt lat="49.35" lon="-0.85431">
        <ele>64</ele>
        <time>2020-06-16T16:55:48Z</time>
      </trkpt>
      <trkpt lat="49.34995" lon="-0.85433">
        <ele>64.2</ele>
        <time>2020-06-16T16:55:49Z</time>
      </trkpt>
      <trkpt lat="49.34991" lon="-0.85434">
        <ele>64.3</ele>
        <time>2020-06-16T16:55:50Z</time>
      </trkpt>
      <trkpt lat="49.34986" lon="-0.85436">
        <ele>64.4</ele>
        <time>2020-06-16T16:55:51Z</time>
      </trkpt>
      <trkpt lat="49.34981" lon="-0.85438">
        <ele>64.5</ele>
        <time>2020-06-16T16:55:52Z</time>
      </trkpt>
      <trkpt lat="49.34976" lon="-0.8544">
        <ele>64.6</ele>
        <time>2020-06-16T16:55:53Z</time>
      </trkpt>
      <trkpt lat="49.34972" lon="-0.85442">
        <ele>64.8</ele>
        <time>2020-06-16T16:55:54Z</time>
      </trkpt>
      <trkpt lat="49.34966" lon="-0.85446">
        <ele>64.9</ele>
        <time>2020-06-16T16:55:55Z</time>
      </trkpt>
      <trkpt lat="49.34962" lon="-0.85447">
        <ele>65</ele>
        <time>2020-06-16T16:55:56Z</time>
      </trkpt>
      <trkpt lat="49.34956" lon="-0.85449">
        <ele>65.1</ele>
        <time>2020-06-16T16:55:57Z</time>
      </trkpt>
      <trkpt lat="49.34952" lon="-0.85451">
        <ele>65.1</ele>
        <time>2020-06-16T16:55:58Z</time>
      </trkpt>
      <trkpt lat="49.34948" lon="-0.85454">
        <ele>65.2</ele>
        <time>2020-06-16T16:55:59Z</time>
      </trkpt>
      <trkpt lat="49.34942" lon="-0.85458">
        <ele>65.2</ele>
        <time>2020-06-16T16:56:00Z</time>
      </trkpt>
      <trkpt lat="49.34936" lon="-0.85462">
        <ele>65.3</ele>
        <time>2020-06-16T16:56:01Z</time>
      </trkpt>
      <trkpt lat="49.34929" lon="-0.85465">
        <ele>65.3</ele>
        <time>2020-06-16T16:56:02Z</time>
      </trkpt>
      <trkpt lat="49.34922" lon="-0.85469">
        <ele>65.3</ele>
        <time>2020-06-16T16:56:03Z</time>
      </trkpt>
      <trkpt lat="49.34914" lon="-0.85471">
        <ele>65.3</ele>
        <time>2020-06-16T16:56:04Z</time>
      </trkpt>
      <trkpt lat="49.34908" lon="-0.85473">
        <ele>65.3</ele>
        <time>2020-06-16T16:56:05Z</time>
      </trkpt>
      <trkpt lat="49.34903" lon="-0.85474">
        <ele>65.3</ele>
        <time>2020-06-16T16:56:06Z</time>
      </trkpt>
      <trkpt lat="49.34898" lon="-0.85475">
        <ele>65.2</ele>
        <time>2020-06-16T16:56:07Z</time>
      </trkpt>
      <trkpt lat="49.34892" lon="-0.85477">
        <ele>65.2</ele>
        <time>2020-06-16T16:56:08Z</time>
      </trkpt>
      <trkpt lat="49.34886" lon="-0.85478">
        <ele>65.1</ele>
        <time>2020-06-16T16:56:09Z</time>
      </trkpt>
      <trkpt lat="49.34881" lon="-0.85479">
        <ele>65</ele>
        <time>2020-06-16T16:56:10Z</time>
      </trkpt>
      <trkpt lat="49.34876" lon="-0.85481">
        <ele>64.9</ele>
        <time>2020-06-16T16:56:11Z</time>
      </trkpt>
      <trkpt lat="49.3487" lon="-0.85483">
        <ele>64.8</ele>
        <time>2020-06-16T16:56:12Z</time>
      </trkpt>
      <trkpt lat="49.34865" lon="-0.85482">
        <ele>64.8</ele>
        <time>2020-06-16T16:56:13Z</time>
      </trkpt>
      <trkpt lat="49.3486" lon="-0.85484">
        <ele>64.7</ele>
        <time>2020-06-16T16:56:14Z</time>
      </trkpt>
      <trkpt lat="49.34855" lon="-0.85485">
        <ele>64.6</ele>
        <time>2020-06-16T16:56:15Z</time>
      </trkpt>
      <trkpt lat="49.34849" lon="-0.85486">
        <ele>64.6</ele>
        <time>2020-06-16T16:56:16Z</time>
      </trkpt>
      <trkpt lat="49.34845" lon="-0.85489">
        <ele>64.5</ele>
        <time>2020-06-16T16:56:17Z</time>
      </trkpt>
      <trkpt lat="49.34841" lon="-0.85493">
        <ele>64.5</ele>
        <time>2020-06-16T16:56:18Z</time>
      </trkpt>
      <trkpt lat="49.34839" lon="-0.85496">
        <ele>64.4</ele>
        <time>2020-06-16T16:56:19Z</time>
      </trkpt>
      <trkpt lat="49.34836" lon="-0.85502">
        <ele>64.4</ele>
        <time>2020-06-16T16:56:20Z</time>
      </trkpt>
      <trkpt lat="49.34834" lon="-0.85507">
        <ele>64.3</ele>
        <time>2020-06-16T16:56:21Z</time>
      </trkpt>
      <trkpt lat="49.34834" lon="-0.85513">
        <ele>64.3</ele>
        <time>2020-06-16T16:56:22Z</time>
      </trkpt>
      <trkpt lat="49.34833" lon="-0.85519">
        <ele>64.3</ele>
        <time>2020-06-16T16:56:23Z</time>
      </trkpt>
      <trkpt lat="49.34832" lon="-0.85526">
        <ele>64.4</ele>
        <time>2020-06-16T16:56:24Z</time>
      </trkpt>
      <trkpt lat="49.34831" lon="-0.85531">
        <ele>64.6</ele>
        <time>2020-06-16T16:56:25Z</time>
      </trkpt>
      <trkpt lat="49.34829" lon="-0.85535">
        <ele>64.7</ele>
        <time>2020-06-16T16:56:26Z</time>
      </trkpt>
      <trkpt lat="49.34827" lon="-0.85539">
        <ele>64.8</ele>
        <time>2020-06-16T16:56:27Z</time>
      </trkpt>
      <trkpt lat="49.34824" lon="-0.85542">
        <ele>64.8</ele>
        <time>2020-06-16T16:56:28Z</time>
      </trkpt>
      <trkpt lat="49.3482" lon="-0.85545">
        <ele>64.9</ele>
        <time>2020-06-16T16:56:29Z</time>
      </trkpt>
      <trkpt lat="49.34815" lon="-0.85546">
        <ele>65</ele>
        <time>2020-06-16T16:56:30Z</time>
      </trkpt>
      <trkpt lat="49.34811" lon="-0.85546">
        <ele>65.1</ele>
        <time>2020-06-16T16:56:31Z</time>
      </trkpt>
      <trkpt lat="49.34807" lon="-0.85544">
        <ele>65</ele>
        <time>2020-06-16T16:56:32Z</time>
      </trkpt>
      <trkpt lat="49.34806" lon="-0.8554">
        <ele>65</ele>
        <time>2020-06-16T16:56:33Z</time>
      </trkpt>
      <trkpt lat="49.34803" lon="-0.85536">
        <ele>64.9</ele>
        <time>2020-06-16T16:56:34Z</time>
      </trkpt>
      <trkpt lat="49.34801" lon="-0.85531">
        <ele>64.8</ele>
        <time>2020-06-16T16:56:35Z</time>
      </trkpt>
      <trkpt lat="49.34799" lon="-0.85526">
        <ele>64.3</ele>
        <time>2020-06-16T16:56:36Z</time>
      </trkpt>
      <trkpt lat="49.34797" lon="-0.8552">
        <ele>64.1</ele>
        <time>2020-06-16T16:56:37Z</time>
      </trkpt>
      <trkpt lat="49.34795" lon="-0.85514">
        <ele>63.8</ele>
        <time>2020-06-16T16:56:38Z</time>
      </trkpt>
      <trkpt lat="49.34794" lon="-0.85508">
        <ele>63.6</ele>
        <time>2020-06-16T16:56:39Z</time>
      </trkpt>
      <trkpt lat="49.34792" lon="-0.85502">
        <ele>63.4</ele>
        <time>2020-06-16T16:56:40Z</time>
      </trkpt>
      <trkpt lat="49.34789" lon="-0.85498">
        <ele>63.1</ele>
        <time>2020-06-16T16:56:41Z</time>
      </trkpt>
      <trkpt lat="49.34784" lon="-0.85495">
        <ele>62.8</ele>
        <time>2020-06-16T16:56:42Z</time>
      </trkpt>
      <trkpt lat="49.34779" lon="-0.85493">
        <ele>62.6</ele>
        <time>2020-06-16T16:56:43Z</time>
      </trkpt>
      <trkpt lat="49.34775" lon="-0.8549">
        <ele>62.3</ele>
        <time>2020-06-16T16:56:44Z</time>
      </trkpt>
      <trkpt lat="49.3477" lon="-0.85487">
        <ele>62.1</ele>
        <time>2020-06-16T16:56:45Z</time>
      </trkpt>
      <trkpt lat="49.34764" lon="-0.85484">
        <ele>61.7</ele>
        <time>2020-06-16T16:56:46Z</time>
      </trkpt>
      <trkpt lat="49.34759" lon="-0.85482">
        <ele>61.5</ele>
        <time>2020-06-16T16:56:47Z</time>
      </trkpt>
      <trkpt lat="49.34754" lon="-0.85482">
        <ele>61.4</ele>
        <time>2020-06-16T16:56:48Z</time>
      </trkpt>
      <trkpt lat="49.34749" lon="-0.85478">
        <ele>61.2</ele>
        <time>2020-06-16T16:56:49Z</time>
      </trkpt>
      <trkpt lat="49.34743" lon="-0.85475">
        <ele>61</ele>
        <time>2020-06-16T16:56:50Z</time>
      </trkpt>
      <trkpt lat="49.34738" lon="-0.85472">
        <ele>60.9</ele>
        <time>2020-06-16T16:56:51Z</time>
      </trkpt>
      <trkpt lat="49.34733" lon="-0.85469">
        <ele>60.7</ele>
        <time>2020-06-16T16:56:52Z</time>
      </trkpt>
      <trkpt lat="49.34728" lon="-0.85466">
        <ele>60.6</ele>
        <time>2020-06-16T16:56:53Z</time>
      </trkpt>
      <trkpt lat="49.34722" lon="-0.85463">
        <ele>60.5</ele>
        <time>2020-06-16T16:56:54Z</time>
      </trkpt>
      <trkpt lat="49.34717" lon="-0.8546">
        <ele>60.4</ele>
        <time>2020-06-16T16:56:55Z</time>
      </trkpt>
      <trkpt lat="49.34711" lon="-0.85459">
        <ele>60.3</ele>
        <time>2020-06-16T16:56:56Z</time>
      </trkpt>
      <trkpt lat="49.34706" lon="-0.85457">
        <ele>60.3</ele>
        <time>2020-06-16T16:56:57Z</time>
      </trkpt>
      <trkpt lat="49.34702" lon="-0.85454">
        <ele>60.3</ele>
        <time>2020-06-16T16:56:58Z</time>
      </trkpt>
      <trkpt lat="49.34698" lon="-0.85448">
        <ele>60.2</ele>
        <time>2020-06-16T16:56:59Z</time>
      </trkpt>
      <trkpt lat="49.34695" lon="-0.85443">
        <ele>60.3</ele>
        <time>2020-06-16T16:57:00Z</time>
      </trkpt>
      <trkpt lat="49.34693" lon="-0.85437">
        <ele>60.3</ele>
        <time>2020-06-16T16:57:01Z</time>
      </trkpt>
      <trkpt lat="49.3469" lon="-0.8543">
        <ele>60.4</ele>
        <time>2020-06-16T16:57:02Z</time>
      </trkpt>
      <trkpt lat="49.34689" lon="-0.85423">
        <ele>60.4</ele>
        <time>2020-06-16T16:57:03Z</time>
      </trkpt>
      <trkpt lat="49.34687" lon="-0.85415">
        <ele>60.5</ele>
        <time>2020-06-16T16:57:04Z</time>
      </trkpt>
      <trkpt lat="49.34684" lon="-0.85406">
        <ele>60.7</ele>
        <time>2020-06-16T16:57:05Z</time>
      </trkpt>
      <trkpt lat="49.34681" lon="-0.85397">
        <ele>60.8</ele>
        <time>2020-06-16T16:57:06Z</time>
      </trkpt>
      <trkpt lat="49.34678" lon="-0.85388">
        <ele>61</ele>
        <time>2020-06-16T16:57:07Z</time>
      </trkpt>
      <trkpt lat="49.34676" lon="-0.8538">
        <ele>61.1</ele>
        <time>2020-06-16T16:57:08Z</time>
      </trkpt>
      <trkpt lat="49.34675" lon="-0.85372">
        <ele>61.2</ele>
        <time>2020-06-16T16:57:09Z</time>
      </trkpt>
      <trkpt lat="49.34673" lon="-0.85364">
        <ele>61.4</ele>
        <time>2020-06-16T16:57:10Z</time>
      </trkpt>
      <trkpt lat="49.34672" lon="-0.85356">
        <ele>61.5</ele>
        <time>2020-06-16T16:57:11Z</time>
      </trkpt>
      <trkpt lat="49.34671" lon="-0.85349">
        <ele>61.7</ele>
        <time>2020-06-16T16:57:12Z</time>
      </trkpt>
      <trkpt lat="49.3467" lon="-0.85341">
        <ele>61.8</ele>
        <time>2020-06-16T16:57:13Z</time>
      </trkpt>
      <trkpt lat="49.3467" lon="-0.85333">
        <ele>62</ele>
        <time>2020-06-16T16:57:14Z</time>
      </trkpt>
      <trkpt lat="49.34671" lon="-0.85325">
        <ele>62.2</ele>
        <time>2020-06-16T16:57:15Z</time>
      </trkpt>
      <trkpt lat="49.34672" lon="-0.85316">
        <ele>62.4</ele>
        <time>2020-06-16T16:57:16Z</time>
      </trkpt>
      <trkpt lat="49.34673" lon="-0.85308">
        <ele>62.6</ele>
        <time>2020-06-16T16:57:17Z</time>
      </trkpt>
      <trkpt lat="49.34674" lon="-0.85301">
        <ele>62.7</ele>
        <time>2020-06-16T16:57:18Z</time>
      </trkpt>
      <trkpt lat="49.34675" lon="-0.85295">
        <ele>62.8</ele>
        <time>2020-06-16T16:57:19Z</time>
      </trkpt>
      <trkpt lat="49.34676" lon="-0.85289">
        <ele>63</ele>
        <time>2020-06-16T16:57:20Z</time>
      </trkpt>
      <trkpt lat="49.34677" lon="-0.85282">
        <ele>63.1</ele>
        <time>2020-06-16T16:57:21Z</time>
      </trkpt>
      <trkpt lat="49.34679" lon="-0.85275">
        <ele>63.2</ele>
        <time>2020-06-16T16:57:22Z</time>
      </trkpt>
      <trkpt lat="49.34681" lon="-0.85268">
        <ele>63.3</ele>
        <time>2020-06-16T16:57:23Z</time>
      </trkpt>
      <trkpt lat="49.34683" lon="-0.8526">
        <ele>63.4</ele>
        <time>2020-06-16T16:57:24Z</time>
      </trkpt>
      <trkpt lat="49.34686" lon="-0.85253">
        <ele>63.5</ele>
        <time>2020-06-16T16:57:25Z</time>
      </trkpt>
      <trkpt lat="49.34688" lon="-0.85247">
        <ele>63.6</ele>
        <time>2020-06-16T16:57:26Z</time>
      </trkpt>
      <trkpt lat="49.34689" lon="-0.85239">
        <ele>63.6</ele>
        <time>2020-06-16T16:57:27Z</time>
      </trkpt>
      <trkpt lat="49.34692" lon="-0.85232">
        <ele>63.7</ele>
        <time>2020-06-16T16:57:28Z</time>
      </trkpt>
      <trkpt lat="49.34694" lon="-0.85225">
        <ele>63.7</ele>
        <time>2020-06-16T16:57:29Z</time>
      </trkpt>
      <trkpt lat="49.34696" lon="-0.85217">
        <ele>63.8</ele>
        <time>2020-06-16T16:57:30Z</time>
      </trkpt>
      <trkpt lat="49.34699" lon="-0.8521">
        <ele>63.8</ele>
        <time>2020-06-16T16:57:31Z</time>
      </trkpt>
      <trkpt lat="49.34701" lon="-0.85204">
        <ele>63.7</ele>
        <time>2020-06-16T16:57:32Z</time>
      </trkpt>
      <trkpt lat="49.34703" lon="-0.85196">
        <ele>63.7</ele>
        <time>2020-06-16T16:57:33Z</time>
      </trkpt>
      <trkpt lat="49.34705" lon="-0.85188">
        <ele>63.7</ele>
        <time>2020-06-16T16:57:34Z</time>
      </trkpt>
      <trkpt lat="49.34707" lon="-0.8518">
        <ele>63.6</ele>
        <time>2020-06-16T16:57:35Z</time>
      </trkpt>
      <trkpt lat="49.34709" lon="-0.85172">
        <ele>63.6</ele>
        <time>2020-06-16T16:57:36Z</time>
      </trkpt>
      <trkpt lat="49.34711" lon="-0.85164">
        <ele>63.6</ele>
        <time>2020-06-16T16:57:37Z</time>
      </trkpt>
      <trkpt lat="49.34713" lon="-0.85156">
        <ele>63.6</ele>
        <time>2020-06-16T16:57:38Z</time>
      </trkpt>
      <trkpt lat="49.34715" lon="-0.85148">
        <ele>63.6</ele>
        <time>2020-06-16T16:57:39Z</time>
      </trkpt>
      <trkpt lat="49.34718" lon="-0.85141">
        <ele>63.5</ele>
        <time>2020-06-16T16:57:40Z</time>
      </trkpt>
      <trkpt lat="49.3472" lon="-0.85134">
        <ele>63.5</ele>
        <time>2020-06-16T16:57:41Z</time>
      </trkpt>
      <trkpt lat="49.34722" lon="-0.85127">
        <ele>63.5</ele>
        <time>2020-06-16T16:57:42Z</time>
      </trkpt>
      <trkpt lat="49.34725" lon="-0.85119">
        <ele>63.5</ele>
        <time>2020-06-16T16:57:43Z</time>
      </trkpt>
      <trkpt lat="49.34728" lon="-0.85112">
        <ele>63.4</ele>
        <time>2020-06-16T16:57:44Z</time>
      </trkpt>
      <trkpt lat="49.3473" lon="-0.85105">
        <ele>63.4</ele>
        <time>2020-06-16T16:57:45Z</time>
      </trkpt>
      <trkpt lat="49.34732" lon="-0.85098">
        <ele>63.4</ele>
        <time>2020-06-16T16:57:46Z</time>
      </trkpt>
      <trkpt lat="49.34736" lon="-0.85093">
        <ele>63.3</ele>
        <time>2020-06-16T16:57:47Z</time>
      </trkpt>
      <trkpt lat="49.34738" lon="-0.85087">
        <ele>63.3</ele>
        <time>2020-06-16T16:57:48Z</time>
      </trkpt>
      <trkpt lat="49.34741" lon="-0.8508">
        <ele>63.3</ele>
        <time>2020-06-16T16:57:49Z</time>
      </trkpt>
      <trkpt lat="49.34744" lon="-0.85072">
        <ele>63.2</ele>
        <time>2020-06-16T16:57:50Z</time>
      </trkpt>
      <trkpt lat="49.34746" lon="-0.85065">
        <ele>63.2</ele>
        <time>2020-06-16T16:57:51Z</time>
      </trkpt>
      <trkpt lat="49.34749" lon="-0.85058">
        <ele>63.1</ele>
        <time>2020-06-16T16:57:52Z</time>
      </trkpt>
      <trkpt lat="49.34752" lon="-0.85052">
        <ele>63.1</ele>
        <time>2020-06-16T16:57:53Z</time>
      </trkpt>
      <trkpt lat="49.34754" lon="-0.85046">
        <ele>63</ele>
        <time>2020-06-16T16:57:54Z</time>
      </trkpt>
      <trkpt lat="49.34758" lon="-0.85039">
        <ele>63</ele>
        <time>2020-06-16T16:57:55Z</time>
      </trkpt>
      <trkpt lat="49.34761" lon="-0.85033">
        <ele>62.9</ele>
        <time>2020-06-16T16:57:56Z</time>
      </trkpt>
      <trkpt lat="49.34764" lon="-0.85027">
        <ele>62.9</ele>
        <time>2020-06-16T16:57:57Z</time>
      </trkpt>
      <trkpt lat="49.34768" lon="-0.8502">
        <ele>62.8</ele>
        <time>2020-06-16T16:57:58Z</time>
      </trkpt>
      <trkpt lat="49.34771" lon="-0.85014">
        <ele>62.8</ele>
        <time>2020-06-16T16:57:59Z</time>
      </trkpt>
      <trkpt lat="49.34773" lon="-0.85007">
        <ele>62.8</ele>
        <time>2020-06-16T16:58:00Z</time>
      </trkpt>
      <trkpt lat="49.34776" lon="-0.85">
        <ele>62.7</ele>
        <time>2020-06-16T16:58:01Z</time>
      </trkpt>
      <trkpt lat="49.34779" lon="-0.84992">
        <ele>62.7</ele>
        <time>2020-06-16T16:58:02Z</time>
      </trkpt>
      <trkpt lat="49.34782" lon="-0.84985">
        <ele>62.7</ele>
        <time>2020-06-16T16:58:03Z</time>
      </trkpt>
      <trkpt lat="49.34785" lon="-0.8498">
        <ele>62.6</ele>
        <time>2020-06-16T16:58:04Z</time>
      </trkpt>
      <trkpt lat="49.34788" lon="-0.84974">
        <ele>62.6</ele>
        <time>2020-06-16T16:58:05Z</time>
      </trkpt>
      <trkpt lat="49.34791" lon="-0.84968">
        <ele>62.6</ele>
        <time>2020-06-16T16:58:06Z</time>
      </trkpt>
      <trkpt lat="49.34793" lon="-0.84963">
        <ele>62.5</ele>
        <time>2020-06-16T16:58:07Z</time>
      </trkpt>
      <trkpt lat="49.34797" lon="-0.84958">
        <ele>62.5</ele>
        <time>2020-06-16T16:58:08Z</time>
      </trkpt>
      <trkpt lat="49.34799" lon="-0.84954">
        <ele>62.5</ele>
        <time>2020-06-16T16:58:09Z</time>
      </trkpt>
      <trkpt lat="49.34802" lon="-0.84951">
        <ele>62.4</ele>
        <time>2020-06-16T16:58:10Z</time>
      </trkpt>
      <trkpt lat="49.34804" lon="-0.84948">
        <ele>62.4</ele>
        <time>2020-06-16T16:58:11Z</time>
      </trkpt>
      <trkpt lat="49.34807" lon="-0.84945">
        <ele>62.4</ele>
        <time>2020-06-16T16:58:12Z</time>
      </trkpt>
      <trkpt lat="49.34812" lon="-0.8494">
        <ele>62.3</ele>
        <time>2020-06-16T16:58:13Z</time>
      </trkpt>
      <trkpt lat="49.34816" lon="-0.84934">
        <ele>62.2</ele>
        <time>2020-06-16T16:58:14Z</time>
      </trkpt>
      <trkpt lat="49.34821" lon="-0.84929">
        <ele>62.2</ele>
        <time>2020-06-16T16:58:15Z</time>
      </trkpt>
      <trkpt lat="49.34826" lon="-0.84924">
        <ele>62.1</ele>
        <time>2020-06-16T16:58:16Z</time>
      </trkpt>
      <trkpt lat="49.3483" lon="-0.8492">
        <ele>62</ele>
        <time>2020-06-16T16:58:17Z</time>
      </trkpt>
      <trkpt lat="49.34834" lon="-0.84915">
        <ele>62</ele>
        <time>2020-06-16T16:58:18Z</time>
      </trkpt>
      <trkpt lat="49.3484" lon="-0.84909">
        <ele>61.9</ele>
        <time>2020-06-16T16:58:19Z</time>
      </trkpt>
      <trkpt lat="49.34843" lon="-0.84903">
        <ele>61.8</ele>
        <time>2020-06-16T16:58:20Z</time>
      </trkpt>
      <trkpt lat="49.34847" lon="-0.84897">
        <ele>61.8</ele>
        <time>2020-06-16T16:58:21Z</time>
      </trkpt>
      <trkpt lat="49.3485" lon="-0.84891">
        <ele>61.7</ele>
        <time>2020-06-16T16:58:22Z</time>
      </trkpt>
      <trkpt lat="49.34853" lon="-0.84884">
        <ele>61.7</ele>
        <time>2020-06-16T16:58:23Z</time>
      </trkpt>
      <trkpt lat="49.34854" lon="-0.84877">
        <ele>61.6</ele>
        <time>2020-06-16T16:58:24Z</time>
      </trkpt>
      <trkpt lat="49.34855" lon="-0.8487">
        <ele>61.6</ele>
        <time>2020-06-16T16:58:25Z</time>
      </trkpt>
      <trkpt lat="49.34856" lon="-0.84863">
        <ele>61.5</ele>
        <time>2020-06-16T16:58:26Z</time>
      </trkpt>
      <trkpt lat="49.34856" lon="-0.84857">
        <ele>61.4</ele>
        <time>2020-06-16T16:58:27Z</time>
      </trkpt>
      <trkpt lat="49.34855" lon="-0.8485">
        <ele>61.4</ele>
        <time>2020-06-16T16:58:28Z</time>
      </trkpt>
      <trkpt lat="49.34855" lon="-0.84843">
        <ele>61.3</ele>
        <time>2020-06-16T16:58:29Z</time>
      </trkpt>
      <trkpt lat="49.34855" lon="-0.84837">
        <ele>61.2</ele>
        <time>2020-06-16T16:58:30Z</time>
      </trkpt>
      <trkpt lat="49.34854" lon="-0.8483">
        <ele>61.2</ele>
        <time>2020-06-16T16:58:31Z</time>
      </trkpt>
      <trkpt lat="49.34854" lon="-0.84823">
        <ele>61.1</ele>
        <time>2020-06-16T16:58:32Z</time>
      </trkpt>
      <trkpt lat="49.34853" lon="-0.84815">
        <ele>61.1</ele>
        <time>2020-06-16T16:58:33Z</time>
      </trkpt>
      <trkpt lat="49.34852" lon="-0.84808">
        <ele>61</ele>
        <time>2020-06-16T16:58:34Z</time>
      </trkpt>
      <trkpt lat="49.34852" lon="-0.848">
        <ele>60.9</ele>
        <time>2020-06-16T16:58:35Z</time>
      </trkpt>
      <trkpt lat="49.34851" lon="-0.84792">
        <ele>60.8</ele>
        <time>2020-06-16T16:58:36Z</time>
      </trkpt>
      <trkpt lat="49.3485" lon="-0.84784">
        <ele>60.7</ele>
        <time>2020-06-16T16:58:37Z</time>
      </trkpt>
      <trkpt lat="49.34849" lon="-0.84776">
        <ele>60.6</ele>
        <time>2020-06-16T16:58:38Z</time>
      </trkpt>
      <trkpt lat="49.34849" lon="-0.84768">
        <ele>60.5</ele>
        <time>2020-06-16T16:58:39Z</time>
      </trkpt>
      <trkpt lat="49.34848" lon="-0.8476">
        <ele>60.4</ele>
        <time>2020-06-16T16:58:40Z</time>
      </trkpt>
      <trkpt lat="49.34847" lon="-0.84752">
        <ele>60.3</ele>
        <time>2020-06-16T16:58:41Z</time>
      </trkpt>
      <trkpt lat="49.34848" lon="-0.84744">
        <ele>60.2</ele>
        <time>2020-06-16T16:58:42Z</time>
      </trkpt>
      <trkpt lat="49.34848" lon="-0.84735">
        <ele>60.2</ele>
        <time>2020-06-16T16:58:43Z</time>
      </trkpt>
      <trkpt lat="49.34848" lon="-0.84727">
        <ele>60.1</ele>
        <time>2020-06-16T16:58:44Z</time>
      </trkpt>
      <trkpt lat="49.34848" lon="-0.84717">
        <ele>59.9</ele>
        <time>2020-06-16T16:58:45Z</time>
      </trkpt>
      <trkpt lat="49.34849" lon="-0.84706">
        <ele>59.7</ele>
        <time>2020-06-16T16:58:46Z</time>
      </trkpt>
      <trkpt lat="49.3485" lon="-0.84696">
        <ele>59.6</ele>
        <time>2020-06-16T16:58:47Z</time>
      </trkpt>
      <trkpt lat="49.3485" lon="-0.84686">
        <ele>59.5</ele>
        <time>2020-06-16T16:58:48Z</time>
      </trkpt>
      <trkpt lat="49.34851" lon="-0.84677">
        <ele>59.4</ele>
        <time>2020-06-16T16:58:49Z</time>
      </trkpt>
      <trkpt lat="49.34851" lon="-0.84668">
        <ele>59.3</ele>
        <time>2020-06-16T16:58:50Z</time>
      </trkpt>
      <trkpt lat="49.34853" lon="-0.8466">
        <ele>59.2</ele>
        <time>2020-06-16T16:58:51Z</time>
      </trkpt>
      <trkpt lat="49.34853" lon="-0.84653">
        <ele>59.2</ele>
        <time>2020-06-16T16:58:52Z</time>
      </trkpt>
      <trkpt lat="49.34853" lon="-0.84645">
        <ele>59.2</ele>
        <time>2020-06-16T16:58:53Z</time>
      </trkpt>
      <trkpt lat="49.34853" lon="-0.84638">
        <ele>59.2</ele>
        <time>2020-06-16T16:58:54Z</time>
      </trkpt>
      <trkpt lat="49.34853" lon="-0.84631">
        <ele>59.1</ele>
        <time>2020-06-16T16:58:55Z</time>
      </trkpt>
      <trkpt lat="49.34853" lon="-0.84624">
        <ele>59.1</ele>
        <time>2020-06-16T16:58:56Z</time>
      </trkpt>
      <trkpt lat="49.34854" lon="-0.84616">
        <ele>59</ele>
        <time>2020-06-16T16:58:57Z</time>
      </trkpt>
      <trkpt lat="49.34854" lon="-0.84609">
        <ele>59</ele>
        <time>2020-06-16T16:58:58Z</time>
      </trkpt>
      <trkpt lat="49.34855" lon="-0.84601">
        <ele>58.9</ele>
        <time>2020-06-16T16:58:59Z</time>
      </trkpt>
      <trkpt lat="49.34856" lon="-0.84594">
        <ele>58.9</ele>
        <time>2020-06-16T16:59:00Z</time>
      </trkpt>
      <trkpt lat="49.34856" lon="-0.84587">
        <ele>58.8</ele>
        <time>2020-06-16T16:59:01Z</time>
      </trkpt>
      <trkpt lat="49.34857" lon="-0.84579">
        <ele>58.8</ele>
        <time>2020-06-16T16:59:02Z</time>
      </trkpt>
      <trkpt lat="49.34858" lon="-0.84572">
        <ele>58.7</ele>
        <time>2020-06-16T16:59:03Z</time>
      </trkpt>
      <trkpt lat="49.34859" lon="-0.84566">
        <ele>58.7</ele>
        <time>2020-06-16T16:59:04Z</time>
      </trkpt>
      <trkpt lat="49.34859" lon="-0.84558">
        <ele>58.6</ele>
        <time>2020-06-16T16:59:05Z</time>
      </trkpt>
      <trkpt lat="49.3486" lon="-0.8455">
        <ele>58.6</ele>
        <time>2020-06-16T16:59:06Z</time>
      </trkpt>
      <trkpt lat="49.34859" lon="-0.84542">
        <ele>58.6</ele>
        <time>2020-06-16T16:59:07Z</time>
      </trkpt>
      <trkpt lat="49.3486" lon="-0.84534">
        <ele>58.6</ele>
        <time>2020-06-16T16:59:08Z</time>
      </trkpt>
      <trkpt lat="49.34859" lon="-0.84527">
        <ele>58.6</ele>
        <time>2020-06-16T16:59:09Z</time>
      </trkpt>
      <trkpt lat="49.34859" lon="-0.8452">
        <ele>58.6</ele>
        <time>2020-06-16T16:59:10Z</time>
      </trkpt>
      <trkpt lat="49.34859" lon="-0.84512">
        <ele>58.6</ele>
        <time>2020-06-16T16:59:11Z</time>
      </trkpt>
      <trkpt lat="49.3486" lon="-0.84504">
        <ele>58.6</ele>
        <time>2020-06-16T16:59:12Z</time>
      </trkpt>
      <trkpt lat="49.3486" lon="-0.84496">
        <ele>58.6</ele>
        <time>2020-06-16T16:59:13Z</time>
      </trkpt>
      <trkpt lat="49.34862" lon="-0.84489">
        <ele>58.6</ele>
        <time>2020-06-16T16:59:14Z</time>
      </trkpt>
      <trkpt lat="49.34863" lon="-0.8448">
        <ele>58.7</ele>
        <time>2020-06-16T16:59:15Z</time>
      </trkpt>
      <trkpt lat="49.34865" lon="-0.84472">
        <ele>58.7</ele>
        <time>2020-06-16T16:59:16Z</time>
      </trkpt>
      <trkpt lat="49.34865" lon="-0.84463">
        <ele>58.8</ele>
        <time>2020-06-16T16:59:17Z</time>
      </trkpt>
      <trkpt lat="49.34867" lon="-0.84456">
        <ele>58.9</ele>
        <time>2020-06-16T16:59:18Z</time>
      </trkpt>
      <trkpt lat="49.34868" lon="-0.84447">
        <ele>59</ele>
        <time>2020-06-16T16:59:19Z</time>
      </trkpt>
      <trkpt lat="49.34868" lon="-0.84439">
        <ele>59.1</ele>
        <time>2020-06-16T16:59:20Z</time>
      </trkpt>
      <trkpt lat="49.34869" lon="-0.84431">
        <ele>59.3</ele>
        <time>2020-06-16T16:59:21Z</time>
      </trkpt>
      <trkpt lat="49.34869" lon="-0.84424">
        <ele>59.4</ele>
        <time>2020-06-16T16:59:22Z</time>
      </trkpt>
      <trkpt lat="49.34869" lon="-0.84416">
        <ele>59.6</ele>
        <time>2020-06-16T16:59:23Z</time>
      </trkpt>
      <trkpt lat="49.34869" lon="-0.84409">
        <ele>59.7</ele>
        <time>2020-06-16T16:59:24Z</time>
      </trkpt>
      <trkpt lat="49.34869" lon="-0.84402">
        <ele>59.8</ele>
        <time>2020-06-16T16:59:25Z</time>
      </trkpt>
      <trkpt lat="49.34869" lon="-0.84395">
        <ele>60</ele>
        <time>2020-06-16T16:59:26Z</time>
      </trkpt>
      <trkpt lat="49.34869" lon="-0.84388">
        <ele>60.1</ele>
        <time>2020-06-16T16:59:27Z</time>
      </trkpt>
      <trkpt lat="49.3487" lon="-0.8438">
        <ele>60.3</ele>
        <time>2020-06-16T16:59:28Z</time>
      </trkpt>
      <trkpt lat="49.34871" lon="-0.84374">
        <ele>60.4</ele>
        <time>2020-06-16T16:59:29Z</time>
      </trkpt>
      <trkpt lat="49.34871" lon="-0.84367">
        <ele>60.5</ele>
        <time>2020-06-16T16:59:30Z</time>
      </trkpt>
      <trkpt lat="49.3487" lon="-0.84362">
        <ele>60.6</ele>
        <time>2020-06-16T16:59:31Z</time>
      </trkpt>
      <trkpt lat="49.34869" lon="-0.84357">
        <ele>60.7</ele>
        <time>2020-06-16T16:59:32Z</time>
      </trkpt>
      <trkpt lat="49.34867" lon="-0.84351">
        <ele>60.8</ele>
        <time>2020-06-16T16:59:33Z</time>
      </trkpt>
      <trkpt lat="49.34864" lon="-0.84343">
        <ele>61</ele>
        <time>2020-06-16T16:59:34Z</time>
      </trkpt>
      <trkpt lat="49.34864" lon="-0.84336">
        <ele>61.1</ele>
        <time>2020-06-16T16:59:35Z</time>
      </trkpt>
      <trkpt lat="49.34865" lon="-0.84329">
        <ele>61.2</ele>
        <time>2020-06-16T16:59:36Z</time>
      </trkpt>
      <trkpt lat="49.34866" lon="-0.84322">
        <ele>61.3</ele>
        <time>2020-06-16T16:59:37Z</time>
      </trkpt>
      <trkpt lat="49.34867" lon="-0.84316">
        <ele>61.4</ele>
        <time>2020-06-16T16:59:38Z</time>
      </trkpt>
      <trkpt lat="49.34867" lon="-0.84311">
        <ele>61.4</ele>
        <time>2020-06-16T16:59:39Z</time>
      </trkpt>
      <trkpt lat="49.34867" lon="-0.84303">
        <ele>61.5</ele>
        <time>2020-06-16T16:59:40Z</time>
      </trkpt>
      <trkpt lat="49.34868" lon="-0.84297">
        <ele>61.6</ele>
        <time>2020-06-16T16:59:41Z</time>
      </trkpt>
      <trkpt lat="49.34869" lon="-0.84292">
        <ele>61.6</ele>
        <time>2020-06-16T16:59:42Z</time>
      </trkpt>
      <trkpt lat="49.3487" lon="-0.84287">
        <ele>61.7</ele>
        <time>2020-06-16T16:59:43Z</time>
      </trkpt>
      <trkpt lat="49.3487" lon="-0.84281">
        <ele>61.7</ele>
        <time>2020-06-16T16:59:44Z</time>
      </trkpt>
      <trkpt lat="49.3487" lon="-0.84274">
        <ele>61.8</ele>
        <time>2020-06-16T16:59:45Z</time>
      </trkpt>
      <trkpt lat="49.3487" lon="-0.84267">
        <ele>61.9</ele>
        <time>2020-06-16T16:59:46Z</time>
      </trkpt>
      <trkpt lat="49.34871" lon="-0.8426">
        <ele>62</ele>
        <time>2020-06-16T16:59:47Z</time>
      </trkpt>
      <trkpt lat="49.34871" lon="-0.84253">
        <ele>62.1</ele>
        <time>2020-06-16T16:59:48Z</time>
      </trkpt>
      <trkpt lat="49.34871" lon="-0.84248">
        <ele>62.1</ele>
        <time>2020-06-16T16:59:49Z</time>
      </trkpt>
      <trkpt lat="49.34871" lon="-0.8424">
        <ele>62.2</ele>
        <time>2020-06-16T16:59:50Z</time>
      </trkpt>
      <trkpt lat="49.34871" lon="-0.84232">
        <ele>62.3</ele>
        <time>2020-06-16T16:59:51Z</time>
      </trkpt>
      <trkpt lat="49.34872" lon="-0.84225">
        <ele>62.4</ele>
        <time>2020-06-16T16:59:52Z</time>
      </trkpt>
      <trkpt lat="49.34872" lon="-0.84217">
        <ele>62.5</ele>
        <time>2020-06-16T16:59:53Z</time>
      </trkpt>
      <trkpt lat="49.34873" lon="-0.84209">
        <ele>62.6</ele>
        <time>2020-06-16T16:59:54Z</time>
      </trkpt>
      <trkpt lat="49.34872" lon="-0.842">
        <ele>62.6</ele>
        <time>2020-06-16T16:59:55Z</time>
      </trkpt>
      <trkpt lat="49.34872" lon="-0.84191">
        <ele>62.7</ele>
        <time>2020-06-16T16:59:56Z</time>
      </trkpt>
      <trkpt lat="49.34872" lon="-0.84183">
        <ele>62.8</ele>
        <time>2020-06-16T16:59:57Z</time>
      </trkpt>
      <trkpt lat="49.34873" lon="-0.84175">
        <ele>62.8</ele>
        <time>2020-06-16T16:59:58Z</time>
      </trkpt>
      <trkpt lat="49.34873" lon="-0.84166">
        <ele>62.9</ele>
        <time>2020-06-16T16:59:59Z</time>
      </trkpt>
      <trkpt lat="49.34875" lon="-0.84159">
        <ele>62.9</ele>
        <time>2020-06-16T17:00:00Z</time>
      </trkpt>
      <trkpt lat="49.34877" lon="-0.84151">
        <ele>63</ele>
        <time>2020-06-16T17:00:01Z</time>
      </trkpt>
      <trkpt lat="49.34878" lon="-0.84144">
        <ele>63</ele>
        <time>2020-06-16T17:00:02Z</time>
      </trkpt>
      <trkpt lat="49.34879" lon="-0.84136">
        <ele>63</ele>
        <time>2020-06-16T17:00:03Z</time>
      </trkpt>
      <trkpt lat="49.34881" lon="-0.84129">
        <ele>63.1</ele>
        <time>2020-06-16T17:00:04Z</time>
      </trkpt>
      <trkpt lat="49.34883" lon="-0.84122">
        <ele>63.1</ele>
        <time>2020-06-16T17:00:05Z</time>
      </trkpt>
      <trkpt lat="49.34885" lon="-0.84116">
        <ele>63.2</ele>
        <time>2020-06-16T17:00:06Z</time>
      </trkpt>
      <trkpt lat="49.34886" lon="-0.84108">
        <ele>63.2</ele>
        <time>2020-06-16T17:00:07Z</time>
      </trkpt>
      <trkpt lat="49.34888" lon="-0.841">
        <ele>63.3</ele>
        <time>2020-06-16T17:00:08Z</time>
      </trkpt>
      <trkpt lat="49.3489" lon="-0.84093">
        <ele>63.4</ele>
        <time>2020-06-16T17:00:09Z</time>
      </trkpt>
      <trkpt lat="49.34892" lon="-0.84085">
        <ele>63.4</ele>
        <time>2020-06-16T17:00:10Z</time>
      </trkpt>
      <trkpt lat="49.34894" lon="-0.84078">
        <ele>63.4</ele>
        <time>2020-06-16T17:00:11Z</time>
      </trkpt>
      <trkpt lat="49.34896" lon="-0.8407">
        <ele>63.3</ele>
        <time>2020-06-16T17:00:12Z</time>
      </trkpt>
      <trkpt lat="49.34898" lon="-0.84062">
        <ele>63.3</ele>
        <time>2020-06-16T17:00:13Z</time>
      </trkpt>
      <trkpt lat="49.349" lon="-0.84055">
        <ele>63.3</ele>
        <time>2020-06-16T17:00:14Z</time>
      </trkpt>
      <trkpt lat="49.34902" lon="-0.84049">
        <ele>63.2</ele>
        <time>2020-06-16T17:00:15Z</time>
      </trkpt>
      <trkpt lat="49.34903" lon="-0.84043">
        <ele>63.2</ele>
        <time>2020-06-16T17:00:16Z</time>
      </trkpt>
      <trkpt lat="49.34905" lon="-0.84037">
        <ele>63.2</ele>
        <time>2020-06-16T17:00:17Z</time>
      </trkpt>
      <trkpt lat="49.34907" lon="-0.84031">
        <ele>63.2</ele>
        <time>2020-06-16T17:00:18Z</time>
      </trkpt>
      <trkpt lat="49.34908" lon="-0.84023">
        <ele>63.2</ele>
        <time>2020-06-16T17:00:19Z</time>
      </trkpt>
      <trkpt lat="49.3491" lon="-0.84016">
        <ele>63.2</ele>
        <time>2020-06-16T17:00:20Z</time>
      </trkpt>
      <trkpt lat="49.34912" lon="-0.84007">
        <ele>63.2</ele>
        <time>2020-06-16T17:00:21Z</time>
      </trkpt>
      <trkpt lat="49.34914" lon="-0.84">
        <ele>63.2</ele>
        <time>2020-06-16T17:00:22Z</time>
      </trkpt>
      <trkpt lat="49.34917" lon="-0.83994">
        <ele>63.2</ele>
        <time>2020-06-16T17:00:23Z</time>
      </trkpt>
      <trkpt lat="49.34921" lon="-0.83987">
        <ele>63.2</ele>
        <time>2020-06-16T17:00:24Z</time>
      </trkpt>
      <trkpt lat="49.34924" lon="-0.8398">
        <ele>63.2</ele>
        <time>2020-06-16T17:00:25Z</time>
      </trkpt>
      <trkpt lat="49.34927" lon="-0.83974">
        <ele>63.1</ele>
        <time>2020-06-16T17:00:26Z</time>
      </trkpt>
      <trkpt lat="49.34929" lon="-0.83968">
        <ele>63.1</ele>
        <time>2020-06-16T17:00:27Z</time>
      </trkpt>
      <trkpt lat="49.34932" lon="-0.83961">
        <ele>63.1</ele>
        <time>2020-06-16T17:00:28Z</time>
      </trkpt>
      <trkpt lat="49.34935" lon="-0.83955">
        <ele>63</ele>
        <time>2020-06-16T17:00:29Z</time>
      </trkpt>
      <trkpt lat="49.34937" lon="-0.83948">
        <ele>63</ele>
        <time>2020-06-16T17:00:30Z</time>
      </trkpt>
      <trkpt lat="49.3494" lon="-0.83943">
        <ele>63</ele>
        <time>2020-06-16T17:00:31Z</time>
      </trkpt>
      <trkpt lat="49.34943" lon="-0.83937">
        <ele>63</ele>
        <time>2020-06-16T17:00:32Z</time>
      </trkpt>
      <trkpt lat="49.34946" lon="-0.83931">
        <ele>63</ele>
        <time>2020-06-16T17:00:33Z</time>
      </trkpt>
      <trkpt lat="49.34949" lon="-0.83924">
        <ele>63</ele>
        <time>2020-06-16T17:00:34Z</time>
      </trkpt>
      <trkpt lat="49.34952" lon="-0.83917">
        <ele>63.1</ele>
        <time>2020-06-16T17:00:35Z</time>
      </trkpt>
      <trkpt lat="49.34955" lon="-0.8391">
        <ele>63.1</ele>
        <time>2020-06-16T17:00:36Z</time>
      </trkpt>
      <trkpt lat="49.34957" lon="-0.83902">
        <ele>63.2</ele>
        <time>2020-06-16T17:00:37Z</time>
      </trkpt>
      <trkpt lat="49.3496" lon="-0.83894">
        <ele>63.3</ele>
        <time>2020-06-16T17:00:38Z</time>
      </trkpt>
      <trkpt lat="49.34962" lon="-0.83887">
        <ele>63.3</ele>
        <time>2020-06-16T17:00:39Z</time>
      </trkpt>
      <trkpt lat="49.34965" lon="-0.83881">
        <ele>63.4</ele>
        <time>2020-06-16T17:00:40Z</time>
      </trkpt>
      <trkpt lat="49.34968" lon="-0.83875">
        <ele>63.5</ele>
        <time>2020-06-16T17:00:41Z</time>
      </trkpt>
      <trkpt lat="49.34971" lon="-0.83868">
        <ele>63.6</ele>
        <time>2020-06-16T17:00:42Z</time>
      </trkpt>
      <trkpt lat="49.34973" lon="-0.83862">
        <ele>63.6</ele>
        <time>2020-06-16T17:00:43Z</time>
      </trkpt>
      <trkpt lat="49.34975" lon="-0.83855">
        <ele>63.7</ele>
        <time>2020-06-16T17:00:44Z</time>
      </trkpt>
      <trkpt lat="49.34977" lon="-0.83849">
        <ele>63.8</ele>
        <time>2020-06-16T17:00:45Z</time>
      </trkpt>
      <trkpt lat="49.34979" lon="-0.83843">
        <ele>63.9</ele>
        <time>2020-06-16T17:00:46Z</time>
      </trkpt>
      <trkpt lat="49.34981" lon="-0.83837">
        <ele>63.9</ele>
        <time>2020-06-16T17:00:47Z</time>
      </trkpt>
      <trkpt lat="49.34983" lon="-0.83832">
        <ele>64</ele>
        <time>2020-06-16T17:00:48Z</time>
      </trkpt>
      <trkpt lat="49.34984" lon="-0.83826">
        <ele>64.1</ele>
        <time>2020-06-16T17:00:49Z</time>
      </trkpt>
      <trkpt lat="49.34985" lon="-0.83821">
        <ele>64.2</ele>
        <time>2020-06-16T17:00:50Z</time>
      </trkpt>
      <trkpt lat="49.34987" lon="-0.83815">
        <ele>64.2</ele>
        <time>2020-06-16T17:00:51Z</time>
      </trkpt>
      <trkpt lat="49.34988" lon="-0.83808">
        <ele>64.4</ele>
        <time>2020-06-16T17:00:52Z</time>
      </trkpt>
      <trkpt lat="49.34989" lon="-0.83802">
        <ele>64.5</ele>
        <time>2020-06-16T17:00:53Z</time>
      </trkpt>
      <trkpt lat="49.3499" lon="-0.83795">
        <ele>64.5</ele>
        <time>2020-06-16T17:00:54Z</time>
      </trkpt>
      <trkpt lat="49.34991" lon="-0.83786">
        <ele>64.7</ele>
        <time>2020-06-16T17:00:55Z</time>
      </trkpt>
      <trkpt lat="49.34992" lon="-0.83777">
        <ele>64.7</ele>
        <time>2020-06-16T17:00:56Z</time>
      </trkpt>
      <trkpt lat="49.34993" lon="-0.83768">
        <ele>64.8</ele>
        <time>2020-06-16T17:00:57Z</time>
      </trkpt>
      <trkpt lat="49.34994" lon="-0.83759">
        <ele>64.9</ele>
        <time>2020-06-16T17:00:58Z</time>
      </trkpt>
      <trkpt lat="49.34995" lon="-0.83751">
        <ele>65</ele>
        <time>2020-06-16T17:00:59Z</time>
      </trkpt>
      <trkpt lat="49.34997" lon="-0.83742">
        <ele>65</ele>
        <time>2020-06-16T17:01:00Z</time>
      </trkpt>
      <trkpt lat="49.34998" lon="-0.83734">
        <ele>65.1</ele>
        <time>2020-06-16T17:01:01Z</time>
      </trkpt>
      <trkpt lat="49.34999" lon="-0.83725">
        <ele>65.1</ele>
        <time>2020-06-16T17:01:02Z</time>
      </trkpt>
      <trkpt lat="49.34999" lon="-0.83716">
        <ele>65.2</ele>
        <time>2020-06-16T17:01:03Z</time>
      </trkpt>
      <trkpt lat="49.34999" lon="-0.83706">
        <ele>65.3</ele>
        <time>2020-06-16T17:01:04Z</time>
      </trkpt>
      <trkpt lat="49.35" lon="-0.83696">
        <ele>65.4</ele>
        <time>2020-06-16T17:01:05Z</time>
      </trkpt>
      <trkpt lat="49.35001" lon="-0.83688">
        <ele>65.5</ele>
        <time>2020-06-16T17:01:06Z</time>
      </trkpt>
      <trkpt lat="49.35001" lon="-0.83679">
        <ele>65.6</ele>
        <time>2020-06-16T17:01:07Z</time>
      </trkpt>
      <trkpt lat="49.35001" lon="-0.8367">
        <ele>65.7</ele>
        <time>2020-06-16T17:01:08Z</time>
      </trkpt>
      <trkpt lat="49.35001" lon="-0.83662">
        <ele>65.7</ele>
        <time>2020-06-16T17:01:09Z</time>
      </trkpt>
      <trkpt lat="49.35" lon="-0.83653">
        <ele>65.8</ele>
        <time>2020-06-16T17:01:10Z</time>
      </trkpt>
      <trkpt lat="49.35" lon="-0.83644">
        <ele>65.9</ele>
        <time>2020-06-16T17:01:11Z</time>
      </trkpt>
      <trkpt lat="49.34999" lon="-0.83635">
        <ele>65.9</ele>
        <time>2020-06-16T17:01:12Z</time>
      </trkpt>
      <trkpt lat="49.34999" lon="-0.83626">
        <ele>66</ele>
        <time>2020-06-16T17:01:13Z</time>
      </trkpt>
      <trkpt lat="49.34998" lon="-0.83617">
        <ele>66</ele>
        <time>2020-06-16T17:01:14Z</time>
      </trkpt>
      <trkpt lat="49.34997" lon="-0.83609">
        <ele>66</ele>
        <time>2020-06-16T17:01:15Z</time>
      </trkpt>
      <trkpt lat="49.34997" lon="-0.83601">
        <ele>66.1</ele>
        <time>2020-06-16T17:01:16Z</time>
      </trkpt>
      <trkpt lat="49.34996" lon="-0.83592">
        <ele>66.1</ele>
        <time>2020-06-16T17:01:17Z</time>
      </trkpt>
      <trkpt lat="49.34996" lon="-0.8358">
        <ele>66.1</ele>
        <time>2020-06-16T17:01:18Z</time>
      </trkpt>
      <trkpt lat="49.34996" lon="-0.83572">
        <ele>66.2</ele>
        <time>2020-06-16T17:01:19Z</time>
      </trkpt>
      <trkpt lat="49.34997" lon="-0.83563">
        <ele>66.2</ele>
        <time>2020-06-16T17:01:20Z</time>
      </trkpt>
      <trkpt lat="49.34998" lon="-0.83556">
        <ele>66.2</ele>
        <time>2020-06-16T17:01:21Z</time>
      </trkpt>
      <trkpt lat="49.34999" lon="-0.83549">
        <ele>66.2</ele>
        <time>2020-06-16T17:01:22Z</time>
      </trkpt>
      <trkpt lat="49.34999" lon="-0.83542">
        <ele>66.2</ele>
        <time>2020-06-16T17:01:23Z</time>
      </trkpt>
      <trkpt lat="49.34999" lon="-0.83534">
        <ele>66.2</ele>
        <time>2020-06-16T17:01:24Z</time>
      </trkpt>
      <trkpt lat="49.35" lon="-0.83525">
        <ele>66.2</ele>
        <time>2020-06-16T17:01:25Z</time>
      </trkpt>
      <trkpt lat="49.35001" lon="-0.83515">
        <ele>66.2</ele>
        <time>2020-06-16T17:01:26Z</time>
      </trkpt>
      <trkpt lat="49.35001" lon="-0.83506">
        <ele>66.2</ele>
        <time>2020-06-16T17:01:27Z</time>
      </trkpt>
      <trkpt lat="49.35001" lon="-0.83497">
        <ele>66.2</ele>
        <time>2020-06-16T17:01:28Z</time>
      </trkpt>
      <trkpt lat="49.35002" lon="-0.83488">
        <ele>66.2</ele>
        <time>2020-06-16T17:01:29Z</time>
      </trkpt>
      <trkpt lat="49.35002" lon="-0.83479">
        <ele>66.2</ele>
        <time>2020-06-16T17:01:30Z</time>
      </trkpt>
      <trkpt lat="49.35004" lon="-0.83469">
        <ele>66.2</ele>
        <time>2020-06-16T17:01:31Z</time>
      </trkpt>
      <trkpt lat="49.35004" lon="-0.8346">
        <ele>66.3</ele>
        <time>2020-06-16T17:01:32Z</time>
      </trkpt>
      <trkpt lat="49.35004" lon="-0.83452">
        <ele>66.3</ele>
        <time>2020-06-16T17:01:33Z</time>
      </trkpt>
      <trkpt lat="49.35005" lon="-0.83442">
        <ele>66.4</ele>
        <time>2020-06-16T17:01:34Z</time>
      </trkpt>
      <trkpt lat="49.35004" lon="-0.83435">
        <ele>66.4</ele>
        <time>2020-06-16T17:01:35Z</time>
      </trkpt>
      <trkpt lat="49.35004" lon="-0.83427">
        <ele>66.5</ele>
        <time>2020-06-16T17:01:36Z</time>
      </trkpt>
      <trkpt lat="49.35004" lon="-0.83419">
        <ele>66.6</ele>
        <time>2020-06-16T17:01:37Z</time>
      </trkpt>
      <trkpt lat="49.35005" lon="-0.83409">
        <ele>66.6</ele>
        <time>2020-06-16T17:01:38Z</time>
      </trkpt>
      <trkpt lat="49.35005" lon="-0.83402">
        <ele>66.6</ele>
        <time>2020-06-16T17:01:39Z</time>
      </trkpt>
      <trkpt lat="49.35005" lon="-0.83393">
        <ele>66.7</ele>
        <time>2020-06-16T17:01:40Z</time>
      </trkpt>
      <trkpt lat="49.35005" lon="-0.83386">
        <ele>66.7</ele>
        <time>2020-06-16T17:01:41Z</time>
      </trkpt>
      <trkpt lat="49.35006" lon="-0.83379">
        <ele>66.8</ele>
        <time>2020-06-16T17:01:42Z</time>
      </trkpt>
      <trkpt lat="49.35005" lon="-0.83372">
        <ele>66.8</ele>
        <time>2020-06-16T17:01:43Z</time>
      </trkpt>
      <trkpt lat="49.35005" lon="-0.83366">
        <ele>66.9</ele>
        <time>2020-06-16T17:01:44Z</time>
      </trkpt>
      <trkpt lat="49.35005" lon="-0.83359">
        <ele>67</ele>
        <time>2020-06-16T17:01:45Z</time>
      </trkpt>
      <trkpt lat="49.35005" lon="-0.83352">
        <ele>67</ele>
        <time>2020-06-16T17:01:46Z</time>
      </trkpt>
      <trkpt lat="49.35006" lon="-0.83346">
        <ele>67.1</ele>
        <time>2020-06-16T17:01:47Z</time>
      </trkpt>
      <trkpt lat="49.35006" lon="-0.83339">
        <ele>67.2</ele>
        <time>2020-06-16T17:01:48Z</time>
      </trkpt>
      <trkpt lat="49.35006" lon="-0.83333">
        <ele>67.2</ele>
        <time>2020-06-16T17:01:49Z</time>
      </trkpt>
      <trkpt lat="49.35007" lon="-0.83326">
        <ele>67.3</ele>
        <time>2020-06-16T17:01:50Z</time>
      </trkpt>
      <trkpt lat="49.35007" lon="-0.83321">
        <ele>67.3</ele>
        <time>2020-06-16T17:01:51Z</time>
      </trkpt>
      <trkpt lat="49.35007" lon="-0.83313">
        <ele>67.3</ele>
        <time>2020-06-16T17:01:52Z</time>
      </trkpt>
      <trkpt lat="49.35007" lon="-0.83305">
        <ele>67.3</ele>
        <time>2020-06-16T17:01:53Z</time>
      </trkpt>
      <trkpt lat="49.35007" lon="-0.83296">
        <ele>67.4</ele>
        <time>2020-06-16T17:01:54Z</time>
      </trkpt>
      <trkpt lat="49.35007" lon="-0.83288">
        <ele>67.4</ele>
        <time>2020-06-16T17:01:55Z</time>
      </trkpt>
      <trkpt lat="49.35007" lon="-0.83279">
        <ele>67.4</ele>
        <time>2020-06-16T17:01:56Z</time>
      </trkpt>
      <trkpt lat="49.35008" lon="-0.83269">
        <ele>67.5</ele>
        <time>2020-06-16T17:01:57Z</time>
      </trkpt>
      <trkpt lat="49.35008" lon="-0.83262">
        <ele>67.5</ele>
        <time>2020-06-16T17:01:58Z</time>
      </trkpt>
      <trkpt lat="49.35008" lon="-0.83256">
        <ele>67.5</ele>
        <time>2020-06-16T17:01:59Z</time>
      </trkpt>
      <trkpt lat="49.35009" lon="-0.83249">
        <ele>67.5</ele>
        <time>2020-06-16T17:02:00Z</time>
      </trkpt>
      <trkpt lat="49.35009" lon="-0.83241">
        <ele>67.6</ele>
        <time>2020-06-16T17:02:01Z</time>
      </trkpt>
      <trkpt lat="49.3501" lon="-0.83234">
        <ele>67.6</ele>
        <time>2020-06-16T17:02:02Z</time>
      </trkpt>
      <trkpt lat="49.3501" lon="-0.83227">
        <ele>67.6</ele>
        <time>2020-06-16T17:02:03Z</time>
      </trkpt>
      <trkpt lat="49.35009" lon="-0.83219">
        <ele>67.6</ele>
        <time>2020-06-16T17:02:04Z</time>
      </trkpt>
      <trkpt lat="49.35009" lon="-0.83212">
        <ele>67.6</ele>
        <time>2020-06-16T17:02:05Z</time>
      </trkpt>
      <trkpt lat="49.3501" lon="-0.83202">
        <ele>67.6</ele>
        <time>2020-06-16T17:02:06Z</time>
      </trkpt>
      <trkpt lat="49.35009" lon="-0.83194">
        <ele>67.6</ele>
        <time>2020-06-16T17:02:07Z</time>
      </trkpt>
      <trkpt lat="49.35009" lon="-0.83186">
        <ele>67.6</ele>
        <time>2020-06-16T17:02:08Z</time>
      </trkpt>
      <trkpt lat="49.35009" lon="-0.83178">
        <ele>67.6</ele>
        <time>2020-06-16T17:02:09Z</time>
      </trkpt>
      <trkpt lat="49.35009" lon="-0.83169">
        <ele>67.7</ele>
        <time>2020-06-16T17:02:10Z</time>
      </trkpt>
      <trkpt lat="49.35009" lon="-0.83162">
        <ele>67.7</ele>
        <time>2020-06-16T17:02:11Z</time>
      </trkpt>
      <trkpt lat="49.3501" lon="-0.83152">
        <ele>67.7</ele>
        <time>2020-06-16T17:02:12Z</time>
      </trkpt>
      <trkpt lat="49.3501" lon="-0.83144">
        <ele>67.7</ele>
        <time>2020-06-16T17:02:13Z</time>
      </trkpt>
      <trkpt lat="49.3501" lon="-0.83136">
        <ele>67.7</ele>
        <time>2020-06-16T17:02:14Z</time>
      </trkpt>
      <trkpt lat="49.3501" lon="-0.83128">
        <ele>67.7</ele>
        <time>2020-06-16T17:02:15Z</time>
      </trkpt>
      <trkpt lat="49.3501" lon="-0.83119">
        <ele>67.7</ele>
        <time>2020-06-16T17:02:16Z</time>
      </trkpt>
      <trkpt lat="49.35011" lon="-0.83112">
        <ele>67.7</ele>
        <time>2020-06-16T17:02:17Z</time>
      </trkpt>
      <trkpt lat="49.35011" lon="-0.83104">
        <ele>67.7</ele>
        <time>2020-06-16T17:02:18Z</time>
      </trkpt>
      <trkpt lat="49.35013" lon="-0.83097">
        <ele>67.8</ele>
        <time>2020-06-16T17:02:19Z</time>
      </trkpt>
      <trkpt lat="49.35013" lon="-0.8309">
        <ele>67.8</ele>
        <time>2020-06-16T17:02:20Z</time>
      </trkpt>
      <trkpt lat="49.35014" lon="-0.83081">
        <ele>67.9</ele>
        <time>2020-06-16T17:02:21Z</time>
      </trkpt>
      <trkpt lat="49.35014" lon="-0.83072">
        <ele>67.9</ele>
        <time>2020-06-16T17:02:22Z</time>
      </trkpt>
      <trkpt lat="49.35015" lon="-0.83064">
        <ele>68</ele>
        <time>2020-06-16T17:02:23Z</time>
      </trkpt>
      <trkpt lat="49.35015" lon="-0.83057">
        <ele>68</ele>
        <time>2020-06-16T17:02:24Z</time>
      </trkpt>
      <trkpt lat="49.35015" lon="-0.83049">
        <ele>68</ele>
        <time>2020-06-16T17:02:25Z</time>
      </trkpt>
      <trkpt lat="49.35015" lon="-0.83041">
        <ele>68</ele>
        <time>2020-06-16T17:02:26Z</time>
      </trkpt>
      <trkpt lat="49.35016" lon="-0.83033">
        <ele>68</ele>
        <time>2020-06-16T17:02:27Z</time>
      </trkpt>
      <trkpt lat="49.35016" lon="-0.83024">
        <ele>68</ele>
        <time>2020-06-16T17:02:28Z</time>
      </trkpt>
      <trkpt lat="49.35016" lon="-0.83016">
        <ele>68</ele>
        <time>2020-06-16T17:02:29Z</time>
      </trkpt>
      <trkpt lat="49.35017" lon="-0.83007">
        <ele>68</ele>
        <time>2020-06-16T17:02:30Z</time>
      </trkpt>
      <trkpt lat="49.35017" lon="-0.82997">
        <ele>68</ele>
        <time>2020-06-16T17:02:31Z</time>
      </trkpt>
      <trkpt lat="49.35018" lon="-0.82988">
        <ele>68</ele>
        <time>2020-06-16T17:02:32Z</time>
      </trkpt>
      <trkpt lat="49.35019" lon="-0.82979">
        <ele>68</ele>
        <time>2020-06-16T17:02:33Z</time>
      </trkpt>
      <trkpt lat="49.35019" lon="-0.82971">
        <ele>68</ele>
        <time>2020-06-16T17:02:34Z</time>
      </trkpt>
      <trkpt lat="49.35019" lon="-0.82963">
        <ele>68.1</ele>
        <time>2020-06-16T17:02:35Z</time>
      </trkpt>
      <trkpt lat="49.35019" lon="-0.82956">
        <ele>68.1</ele>
        <time>2020-06-16T17:02:36Z</time>
      </trkpt>
      <trkpt lat="49.3502" lon="-0.82947">
        <ele>68.2</ele>
        <time>2020-06-16T17:02:37Z</time>
      </trkpt>
      <trkpt lat="49.3502" lon="-0.82938">
        <ele>68.3</ele>
        <time>2020-06-16T17:02:38Z</time>
      </trkpt>
      <trkpt lat="49.35022" lon="-0.82928">
        <ele>68.3</ele>
        <time>2020-06-16T17:02:39Z</time>
      </trkpt>
      <trkpt lat="49.35024" lon="-0.82918">
        <ele>68.2</ele>
        <time>2020-06-16T17:02:40Z</time>
      </trkpt>
      <trkpt lat="49.35025" lon="-0.82909">
        <ele>68.2</ele>
        <time>2020-06-16T17:02:41Z</time>
      </trkpt>
      <trkpt lat="49.35025" lon="-0.829">
        <ele>68.2</ele>
        <time>2020-06-16T17:02:42Z</time>
      </trkpt>
      <trkpt lat="49.35027" lon="-0.8289">
        <ele>68.1</ele>
        <time>2020-06-16T17:02:43Z</time>
      </trkpt>
      <trkpt lat="49.35028" lon="-0.82881">
        <ele>68.1</ele>
        <time>2020-06-16T17:02:44Z</time>
      </trkpt>
      <trkpt lat="49.35029" lon="-0.82871">
        <ele>68.1</ele>
        <time>2020-06-16T17:02:45Z</time>
      </trkpt>
      <trkpt lat="49.3503" lon="-0.82861">
        <ele>68</ele>
        <time>2020-06-16T17:02:46Z</time>
      </trkpt>
      <trkpt lat="49.35032" lon="-0.82852">
        <ele>68</ele>
        <time>2020-06-16T17:02:47Z</time>
      </trkpt>
      <trkpt lat="49.35033" lon="-0.82844">
        <ele>68</ele>
        <time>2020-06-16T17:02:48Z</time>
      </trkpt>
      <trkpt lat="49.35034" lon="-0.82836">
        <ele>67.9</ele>
        <time>2020-06-16T17:02:49Z</time>
      </trkpt>
      <trkpt lat="49.35036" lon="-0.82825">
        <ele>67.9</ele>
        <time>2020-06-16T17:02:50Z</time>
      </trkpt>
      <trkpt lat="49.35037" lon="-0.82816">
        <ele>67.9</ele>
        <time>2020-06-16T17:02:51Z</time>
      </trkpt>
      <trkpt lat="49.35039" lon="-0.82807">
        <ele>67.8</ele>
        <time>2020-06-16T17:02:52Z</time>
      </trkpt>
      <trkpt lat="49.3504" lon="-0.82798">
        <ele>67.8</ele>
        <time>2020-06-16T17:02:53Z</time>
      </trkpt>
      <trkpt lat="49.35041" lon="-0.82789">
        <ele>67.7</ele>
        <time>2020-06-16T17:02:54Z</time>
      </trkpt>
      <trkpt lat="49.35042" lon="-0.82781">
        <ele>67.7</ele>
        <time>2020-06-16T17:02:55Z</time>
      </trkpt>
      <trkpt lat="49.35043" lon="-0.82772">
        <ele>67.6</ele>
        <time>2020-06-16T17:02:56Z</time>
      </trkpt>
      <trkpt lat="49.35044" lon="-0.82761">
        <ele>67.5</ele>
        <time>2020-06-16T17:02:57Z</time>
      </trkpt>
      <trkpt lat="49.35044" lon="-0.82753">
        <ele>67.5</ele>
        <time>2020-06-16T17:02:58Z</time>
      </trkpt>
      <trkpt lat="49.35045" lon="-0.82745">
        <ele>67.4</ele>
        <time>2020-06-16T17:02:59Z</time>
      </trkpt>
      <trkpt lat="49.35046" lon="-0.82736">
        <ele>67.3</ele>
        <time>2020-06-16T17:03:00Z</time>
      </trkpt>
      <trkpt lat="49.35045" lon="-0.82727">
        <ele>67.3</ele>
        <time>2020-06-16T17:03:01Z</time>
      </trkpt>
      <trkpt lat="49.35046" lon="-0.82718">
        <ele>67.1</ele>
        <time>2020-06-16T17:03:02Z</time>
      </trkpt>
      <trkpt lat="49.35046" lon="-0.82709">
        <ele>67</ele>
        <time>2020-06-16T17:03:03Z</time>
      </trkpt>
      <trkpt lat="49.35045" lon="-0.827">
        <ele>67</ele>
        <time>2020-06-16T17:03:04Z</time>
      </trkpt>
      <trkpt lat="49.35044" lon="-0.82692">
        <ele>66.9</ele>
        <time>2020-06-16T17:03:05Z</time>
      </trkpt>
      <trkpt lat="49.35044" lon="-0.82683">
        <ele>66.9</ele>
        <time>2020-06-16T17:03:06Z</time>
      </trkpt>
      <trkpt lat="49.35043" lon="-0.82675">
        <ele>66.8</ele>
        <time>2020-06-16T17:03:07Z</time>
      </trkpt>
      <trkpt lat="49.35043" lon="-0.82666">
        <ele>66.8</ele>
        <time>2020-06-16T17:03:08Z</time>
      </trkpt>
      <trkpt lat="49.35042" lon="-0.82658">
        <ele>66.8</ele>
        <time>2020-06-16T17:03:09Z</time>
      </trkpt>
      <trkpt lat="49.35041" lon="-0.8265">
        <ele>66.7</ele>
        <time>2020-06-16T17:03:10Z</time>
      </trkpt>
      <trkpt lat="49.35039" lon="-0.82643">
        <ele>66.7</ele>
        <time>2020-06-16T17:03:11Z</time>
      </trkpt>
      <trkpt lat="49.35038" lon="-0.82635">
        <ele>66.7</ele>
        <time>2020-06-16T17:03:12Z</time>
      </trkpt>
      <trkpt lat="49.35037" lon="-0.82626">
        <ele>66.6</ele>
        <time>2020-06-16T17:03:13Z</time>
      </trkpt>
      <trkpt lat="49.35036" lon="-0.82617">
        <ele>66.6</ele>
        <time>2020-06-16T17:03:14Z</time>
      </trkpt>
      <trkpt lat="49.35035" lon="-0.82609">
        <ele>66.5</ele>
        <time>2020-06-16T17:03:15Z</time>
      </trkpt>
      <trkpt lat="49.35034" lon="-0.82601">
        <ele>66.5</ele>
        <time>2020-06-16T17:03:16Z</time>
      </trkpt>
      <trkpt lat="49.35033" lon="-0.82595">
        <ele>66.5</ele>
        <time>2020-06-16T17:03:17Z</time>
      </trkpt>
      <trkpt lat="49.35033" lon="-0.82588">
        <ele>66.5</ele>
        <time>2020-06-16T17:03:18Z</time>
      </trkpt>
      <trkpt lat="49.35032" lon="-0.82581">
        <ele>66.5</ele>
        <time>2020-06-16T17:03:19Z</time>
      </trkpt>
      <trkpt lat="49.35031" lon="-0.82575">
        <ele>66.5</ele>
        <time>2020-06-16T17:03:20Z</time>
      </trkpt>
      <trkpt lat="49.3503" lon="-0.82569">
        <ele>66.5</ele>
        <time>2020-06-16T17:03:21Z</time>
      </trkpt>
      <trkpt lat="49.35029" lon="-0.82562">
        <ele>66.5</ele>
        <time>2020-06-16T17:03:22Z</time>
      </trkpt>
      <trkpt lat="49.35029" lon="-0.82554">
        <ele>66.5</ele>
        <time>2020-06-16T17:03:23Z</time>
      </trkpt>
      <trkpt lat="49.35028" lon="-0.82549">
        <ele>66.5</ele>
        <time>2020-06-16T17:03:24Z</time>
      </trkpt>
      <trkpt lat="49.35027" lon="-0.82545">
        <ele>66.5</ele>
        <time>2020-06-16T17:03:25Z</time>
      </trkpt>
      <trkpt lat="49.35027" lon="-0.82539">
        <ele>66.5</ele>
        <time>2020-06-16T17:03:26Z</time>
      </trkpt>
      <trkpt lat="49.35026" lon="-0.82535">
        <ele>66.5</ele>
        <time>2020-06-16T17:03:27Z</time>
      </trkpt>
      <trkpt lat="49.35026" lon="-0.82529">
        <ele>66.5</ele>
        <time>2020-06-16T17:03:28Z</time>
      </trkpt>
      <trkpt lat="49.35024" lon="-0.82525">
        <ele>66.5</ele>
        <time>2020-06-16T17:03:29Z</time>
      </trkpt>
      <trkpt lat="49.35023" lon="-0.82518">
        <ele>66.5</ele>
        <time>2020-06-16T17:03:30Z</time>
      </trkpt>
      <trkpt lat="49.35021" lon="-0.82513">
        <ele>66.5</ele>
        <time>2020-06-16T17:03:31Z</time>
      </trkpt>
      <trkpt lat="49.35021" lon="-0.82507">
        <ele>66.6</ele>
        <time>2020-06-16T17:03:32Z</time>
      </trkpt>
      <trkpt lat="49.35019" lon="-0.82502">
        <ele>66.6</ele>
        <time>2020-06-16T17:03:33Z</time>
      </trkpt>
      <trkpt lat="49.35018" lon="-0.82496">
        <ele>66.6</ele>
        <time>2020-06-16T17:03:34Z</time>
      </trkpt>
      <trkpt lat="49.35017" lon="-0.82489">
        <ele>66.6</ele>
        <time>2020-06-16T17:03:35Z</time>
      </trkpt>
      <trkpt lat="49.35015" lon="-0.82485">
        <ele>66.6</ele>
        <time>2020-06-16T17:03:36Z</time>
      </trkpt>
      <trkpt lat="49.35015" lon="-0.8248">
        <ele>66.6</ele>
        <time>2020-06-16T17:03:37Z</time>
      </trkpt>
      <trkpt lat="49.35014" lon="-0.82475">
        <ele>66.6</ele>
        <time>2020-06-16T17:03:38Z</time>
      </trkpt>
      <trkpt lat="49.35013" lon="-0.82469">
        <ele>66.7</ele>
        <time>2020-06-16T17:03:39Z</time>
      </trkpt>
      <trkpt lat="49.35012" lon="-0.82463">
        <ele>66.7</ele>
        <time>2020-06-16T17:03:40Z</time>
      </trkpt>
      <trkpt lat="49.3501" lon="-0.82456">
        <ele>66.7</ele>
        <time>2020-06-16T17:03:41Z</time>
      </trkpt>
      <trkpt lat="49.35009" lon="-0.8245">
        <ele>66.7</ele>
        <time>2020-06-16T17:03:42Z</time>
      </trkpt>
      <trkpt lat="49.35007" lon="-0.82444">
        <ele>66.7</ele>
        <time>2020-06-16T17:03:43Z</time>
      </trkpt>
      <trkpt lat="49.35006" lon="-0.82442">
        <ele>66.7</ele>
        <time>2020-06-16T17:03:44Z</time>
      </trkpt>
      <trkpt lat="49.35003" lon="-0.82436">
        <ele>66.8</ele>
        <time>2020-06-16T17:03:45Z</time>
      </trkpt>
      <trkpt lat="49.35002" lon="-0.8243">
        <ele>66.8</ele>
        <time>2020-06-16T17:03:46Z</time>
      </trkpt>
      <trkpt lat="49.35002" lon="-0.82425">
        <ele>66.8</ele>
        <time>2020-06-16T17:03:47Z</time>
      </trkpt>
      <trkpt lat="49.35" lon="-0.82419">
        <ele>66.8</ele>
        <time>2020-06-16T17:03:48Z</time>
      </trkpt>
      <trkpt lat="49.34999" lon="-0.82417">
        <ele>66.8</ele>
        <time>2020-06-16T17:03:49Z</time>
      </trkpt>
      <trkpt lat="49.34997" lon="-0.82413">
        <ele>66.8</ele>
        <time>2020-06-16T17:03:50Z</time>
      </trkpt>
      <trkpt lat="49.34997" lon="-0.82411">
        <ele>66.8</ele>
        <time>2020-06-16T17:03:51Z</time>
      </trkpt>
      <trkpt lat="49.34996" lon="-0.82407">
        <ele>66.8</ele>
        <time>2020-06-16T17:03:52Z</time>
      </trkpt>
      <trkpt lat="49.34996" lon="-0.82405">
        <ele>66.8</ele>
        <time>2020-06-16T17:03:53Z</time>
      </trkpt>
      <trkpt lat="49.34996" lon="-0.82401">
        <ele>66.8</ele>
        <time>2020-06-16T17:03:54Z</time>
      </trkpt>
      <trkpt lat="49.34996" lon="-0.82399">
        <ele>66.8</ele>
        <time>2020-06-16T17:03:55Z</time>
      </trkpt>
      <trkpt lat="49.34994" lon="-0.82394">
        <ele>66.8</ele>
        <time>2020-06-16T17:03:56Z</time>
      </trkpt>
      <trkpt lat="49.34993" lon="-0.82393">
        <ele>66.8</ele>
        <time>2020-06-16T17:03:57Z</time>
      </trkpt>
      <trkpt lat="49.34993" lon="-0.8239">
        <ele>66.8</ele>
        <time>2020-06-16T17:03:58Z</time>
      </trkpt>
      <trkpt lat="49.34992" lon="-0.82388">
        <ele>66.8</ele>
        <time>2020-06-16T17:03:59Z</time>
      </trkpt>
      <trkpt lat="49.34991" lon="-0.82385">
        <ele>66.8</ele>
        <time>2020-06-16T17:04:00Z</time>
      </trkpt>
      <trkpt lat="49.34991" lon="-0.82383">
        <ele>66.8</ele>
        <time>2020-06-16T17:04:01Z</time>
      </trkpt>
      <trkpt lat="49.34991" lon="-0.82381">
        <ele>66.8</ele>
        <time>2020-06-16T17:04:02Z</time>
      </trkpt>
      <trkpt lat="49.3499" lon="-0.82379">
        <ele>66.8</ele>
        <time>2020-06-16T17:04:03Z</time>
      </trkpt>
      <trkpt lat="49.34989" lon="-0.82377">
        <ele>66.8</ele>
        <time>2020-06-16T17:04:04Z</time>
      </trkpt>
      <trkpt lat="49.34988" lon="-0.82376">
        <ele>66.8</ele>
        <time>2020-06-16T17:04:05Z</time>
      </trkpt>
      <trkpt lat="49.34988" lon="-0.82375">
        <ele>66.8</ele>
        <time>2020-06-16T17:04:06Z</time>
      </trkpt>
      <trkpt lat="49.34988" lon="-0.82372">
        <ele>66.8</ele>
        <time>2020-06-16T17:04:07Z</time>
      </trkpt>
      <trkpt lat="49.34988" lon="-0.82367">
        <ele>66.8</ele>
        <time>2020-06-16T17:04:08Z</time>
      </trkpt>
      <trkpt lat="49.34988" lon="-0.82366">
        <ele>66.8</ele>
        <time>2020-06-16T17:04:09Z</time>
      </trkpt>
      <trkpt lat="49.34987" lon="-0.82361">
        <ele>66.9</ele>
        <time>2020-06-16T17:04:10Z</time>
      </trkpt>
      <trkpt lat="49.34987" lon="-0.8236">
        <ele>66.9</ele>
        <time>2020-06-16T17:04:11Z</time>
      </trkpt>
      <trkpt lat="49.34987" lon="-0.82358">
        <ele>66.9</ele>
        <time>2020-06-16T17:04:12Z</time>
      </trkpt>
      <trkpt lat="49.34987" lon="-0.82357">
        <ele>66.9</ele>
        <time>2020-06-16T17:04:13Z</time>
      </trkpt>
      <trkpt lat="49.34987" lon="-0.82356">
        <ele>66.9</ele>
        <time>2020-06-16T17:04:14Z</time>
      </trkpt>
      <trkpt lat="49.34986" lon="-0.82354">
        <ele>66.9</ele>
        <time>2020-06-16T17:04:15Z</time>
      </trkpt>
      <trkpt lat="49.34985" lon="-0.82349">
        <ele>66.8</ele>
        <time>2020-06-16T17:04:16Z</time>
      </trkpt>
      <trkpt lat="49.34984" lon="-0.82344">
        <ele>66.7</ele>
        <time>2020-06-16T17:04:17Z</time>
      </trkpt>
      <trkpt lat="49.34984" lon="-0.82343">
        <ele>66.7</ele>
        <time>2020-06-16T17:04:18Z</time>
      </trkpt>
      <trkpt lat="49.34983" lon="-0.82339">
        <ele>66.7</ele>
        <time>2020-06-16T17:04:19Z</time>
      </trkpt>
      <trkpt lat="49.34983" lon="-0.82338">
        <ele>66.7</ele>
        <time>2020-06-16T17:04:20Z</time>
      </trkpt>
      <trkpt lat="49.34983" lon="-0.82336">
        <ele>66.7</ele>
        <time>2020-06-16T17:04:21Z</time>
      </trkpt>
      <trkpt lat="49.34982" lon="-0.82332">
        <ele>66.6</ele>
        <time>2020-06-16T17:04:22Z</time>
      </trkpt>
      <trkpt lat="49.34982" lon="-0.8233">
        <ele>66.6</ele>
        <time>2020-06-16T17:04:23Z</time>
      </trkpt>
      <trkpt lat="49.34981" lon="-0.82326">
        <ele>66.6</ele>
        <time>2020-06-16T17:04:24Z</time>
      </trkpt>
      <trkpt lat="49.34981" lon="-0.82325">
        <ele>66.6</ele>
        <time>2020-06-16T17:04:25Z</time>
      </trkpt>
      <trkpt lat="49.3498" lon="-0.82321">
        <ele>66.6</ele>
        <time>2020-06-16T17:04:26Z</time>
      </trkpt>
      <trkpt lat="49.3498" lon="-0.82319">
        <ele>66.6</ele>
        <time>2020-06-16T17:04:27Z</time>
      </trkpt>
      <trkpt lat="49.34979" lon="-0.82314">
        <ele>66.5</ele>
        <time>2020-06-16T17:04:28Z</time>
      </trkpt>
      <trkpt lat="49.34978" lon="-0.82312">
        <ele>66.5</ele>
        <time>2020-06-16T17:04:29Z</time>
      </trkpt>
      <trkpt lat="49.34977" lon="-0.82308">
        <ele>66.5</ele>
        <time>2020-06-16T17:04:30Z</time>
      </trkpt>
      <trkpt lat="49.34976" lon="-0.82304">
        <ele>66.5</ele>
        <time>2020-06-16T17:04:31Z</time>
      </trkpt>
      <trkpt lat="49.34976" lon="-0.82303">
        <ele>66.5</ele>
        <time>2020-06-16T17:04:32Z</time>
      </trkpt>
      <trkpt lat="49.34976" lon="-0.82298">
        <ele>66.5</ele>
        <time>2020-06-16T17:04:33Z</time>
      </trkpt>
      <trkpt lat="49.34976" lon="-0.82296">
        <ele>66.5</ele>
        <time>2020-06-16T17:04:34Z</time>
      </trkpt>
      <trkpt lat="49.34976" lon="-0.82295">
        <ele>66.5</ele>
        <time>2020-06-16T17:04:35Z</time>
      </trkpt>
      <trkpt lat="49.34975" lon="-0.82291">
        <ele>66.4</ele>
        <time>2020-06-16T17:04:36Z</time>
      </trkpt>
      <trkpt lat="49.34973" lon="-0.82287">
        <ele>66.4</ele>
        <time>2020-06-16T17:04:37Z</time>
      </trkpt>
      <trkpt lat="49.34973" lon="-0.82285">
        <ele>66.4</ele>
        <time>2020-06-16T17:04:38Z</time>
      </trkpt>
      <trkpt lat="49.34971" lon="-0.8228">
        <ele>66.4</ele>
        <time>2020-06-16T17:04:39Z</time>
      </trkpt>
      <trkpt lat="49.34971" lon="-0.82275">
        <ele>66.4</ele>
        <time>2020-06-16T17:04:40Z</time>
      </trkpt>
      <trkpt lat="49.3497" lon="-0.82271">
        <ele>66.4</ele>
        <time>2020-06-16T17:04:41Z</time>
      </trkpt>
      <trkpt lat="49.34968" lon="-0.82265">
        <ele>66.4</ele>
        <time>2020-06-16T17:04:42Z</time>
      </trkpt>
      <trkpt lat="49.34969" lon="-0.82263">
        <ele>66.4</ele>
        <time>2020-06-16T17:04:43Z</time>
      </trkpt>
      <trkpt lat="49.34968" lon="-0.8226">
        <ele>66.4</ele>
        <time>2020-06-16T17:04:44Z</time>
      </trkpt>
      <trkpt lat="49.34967" lon="-0.82255">
        <ele>66.4</ele>
        <time>2020-06-16T17:04:45Z</time>
      </trkpt>
      <trkpt lat="49.34966" lon="-0.82254">
        <ele>66.4</ele>
        <time>2020-06-16T17:04:46Z</time>
      </trkpt>
      <trkpt lat="49.34965" lon="-0.82249">
        <ele>66.4</ele>
        <time>2020-06-16T17:04:47Z</time>
      </trkpt>
      <trkpt lat="49.34965" lon="-0.82248">
        <ele>66.4</ele>
        <time>2020-06-16T17:04:48Z</time>
      </trkpt>
      <trkpt lat="49.34965" lon="-0.82246">
        <ele>66.4</ele>
        <time>2020-06-16T17:04:49Z</time>
      </trkpt>
      <trkpt lat="49.34964" lon="-0.82243">
        <ele>66.4</ele>
        <time>2020-06-16T17:04:50Z</time>
      </trkpt>
      <trkpt lat="49.34964" lon="-0.8224">
        <ele>66.4</ele>
        <time>2020-06-16T17:04:51Z</time>
      </trkpt>
      <trkpt lat="49.34964" lon="-0.82238">
        <ele>66.4</ele>
        <time>2020-06-16T17:04:52Z</time>
      </trkpt>
      <trkpt lat="49.34963" lon="-0.82235">
        <ele>66.4</ele>
        <time>2020-06-16T17:04:53Z</time>
      </trkpt>
      <trkpt lat="49.34963" lon="-0.82235">
        <ele>66.4</ele>
        <time>2020-06-16T17:04:54Z</time>
      </trkpt>
      <trkpt lat="49.34962" lon="-0.82232">
        <ele>66.4</ele>
        <time>2020-06-16T17:04:55Z</time>
      </trkpt>
      <trkpt lat="49.34962" lon="-0.8223">
        <ele>66.4</ele>
        <time>2020-06-16T17:04:56Z</time>
      </trkpt>
      <trkpt lat="49.34961" lon="-0.82228">
        <ele>66.4</ele>
        <time>2020-06-16T17:04:57Z</time>
      </trkpt>
      <trkpt lat="49.34961" lon="-0.82227">
        <ele>66.4</ele>
        <time>2020-06-16T17:04:58Z</time>
      </trkpt>
      <trkpt lat="49.3496" lon="-0.82225">
        <ele>66.4</ele>
        <time>2020-06-16T17:04:59Z</time>
      </trkpt>
      <trkpt lat="49.34958" lon="-0.8222">
        <ele>66.4</ele>
        <time>2020-06-16T17:05:00Z</time>
      </trkpt>
      <trkpt lat="49.34958" lon="-0.82219">
        <ele>66.4</ele>
        <time>2020-06-16T17:05:01Z</time>
      </trkpt>
      <trkpt lat="49.34957" lon="-0.82214">
        <ele>66.4</ele>
        <time>2020-06-16T17:05:02Z</time>
      </trkpt>
      <trkpt lat="49.34957" lon="-0.82213">
        <ele>66.4</ele>
        <time>2020-06-16T17:05:03Z</time>
      </trkpt>
      <trkpt lat="49.34957" lon="-0.82211">
        <ele>66.4</ele>
        <time>2020-06-16T17:05:04Z</time>
      </trkpt>
      <trkpt lat="49.34956" lon="-0.82207">
        <ele>66.4</ele>
        <time>2020-06-16T17:05:05Z</time>
      </trkpt>
      <trkpt lat="49.34956" lon="-0.82205">
        <ele>66.4</ele>
        <time>2020-06-16T17:05:06Z</time>
      </trkpt>
      <trkpt lat="49.34956" lon="-0.822">
        <ele>66.4</ele>
        <time>2020-06-16T17:05:07Z</time>
      </trkpt>
      <trkpt lat="49.34955" lon="-0.82199">
        <ele>66.4</ele>
        <time>2020-06-16T17:05:08Z</time>
      </trkpt>
      <trkpt lat="49.34953" lon="-0.82195">
        <ele>66.4</ele>
        <time>2020-06-16T17:05:09Z</time>
      </trkpt>
      <trkpt lat="49.34953" lon="-0.82193">
        <ele>66.4</ele>
        <time>2020-06-16T17:05:10Z</time>
      </trkpt>
      <trkpt lat="49.34951" lon="-0.82189">
        <ele>66.4</ele>
        <time>2020-06-16T17:05:11Z</time>
      </trkpt>
      <trkpt lat="49.34951" lon="-0.82188">
        <ele>66.4</ele>
        <time>2020-06-16T17:05:12Z</time>
      </trkpt>
      <trkpt lat="49.3495" lon="-0.82184">
        <ele>66.4</ele>
        <time>2020-06-16T17:05:13Z</time>
      </trkpt>
      <trkpt lat="49.3495" lon="-0.82182">
        <ele>66.4</ele>
        <time>2020-06-16T17:05:14Z</time>
      </trkpt>
      <trkpt lat="49.34949" lon="-0.82179">
        <ele>66.4</ele>
        <time>2020-06-16T17:05:15Z</time>
      </trkpt>
      <trkpt lat="49.34949" lon="-0.82177">
        <ele>66.4</ele>
        <time>2020-06-16T17:05:16Z</time>
      </trkpt>
      <trkpt lat="49.3495" lon="-0.82174">
        <ele>66.4</ele>
        <time>2020-06-16T17:05:17Z</time>
      </trkpt>
      <trkpt lat="49.3495" lon="-0.82173">
        <ele>66.4</ele>
        <time>2020-06-16T17:05:18Z</time>
      </trkpt>
      <trkpt lat="49.3495" lon="-0.82171">
        <ele>66.4</ele>
        <time>2020-06-16T17:05:19Z</time>
      </trkpt>
      <trkpt lat="49.34951" lon="-0.8217">
        <ele>66.4</ele>
        <time>2020-06-16T17:05:20Z</time>
      </trkpt>
      <trkpt lat="49.3495" lon="-0.82169">
        <ele>66.4</ele>
        <time>2020-06-16T17:05:21Z</time>
      </trkpt>
      <trkpt lat="49.3495" lon="-0.82168">
        <ele>66.4</ele>
        <time>2020-06-16T17:05:22Z</time>
      </trkpt>
      <trkpt lat="49.34949" lon="-0.82166">
        <ele>66.3</ele>
        <time>2020-06-16T17:05:23Z</time>
      </trkpt>
      <trkpt lat="49.34948" lon="-0.82163">
        <ele>66.3</ele>
        <time>2020-06-16T17:05:24Z</time>
      </trkpt>
      <trkpt lat="49.34948" lon="-0.82161">
        <ele>66.3</ele>
        <time>2020-06-16T17:05:25Z</time>
      </trkpt>
      <trkpt lat="49.34947" lon="-0.8216">
        <ele>66.3</ele>
        <time>2020-06-16T17:05:26Z</time>
      </trkpt>
      <trkpt lat="49.34946" lon="-0.82157">
        <ele>66.3</ele>
        <time>2020-06-16T17:05:27Z</time>
      </trkpt>
      <trkpt lat="49.34946" lon="-0.82154">
        <ele>66.3</ele>
        <time>2020-06-16T17:05:28Z</time>
      </trkpt>
      <trkpt lat="49.34945" lon="-0.82153">
        <ele>66.3</ele>
        <time>2020-06-16T17:05:29Z</time>
      </trkpt>
      <trkpt lat="49.34944" lon="-0.82153">
        <ele>66.3</ele>
        <time>2020-06-16T17:05:30Z</time>
      </trkpt>
      <trkpt lat="49.34944" lon="-0.82151">
        <ele>66.3</ele>
        <time>2020-06-16T17:05:31Z</time>
      </trkpt>
      <trkpt lat="49.34945" lon="-0.82148">
        <ele>66.3</ele>
        <time>2020-06-16T17:05:32Z</time>
      </trkpt>
      <trkpt lat="49.34944" lon="-0.82144">
        <ele>66.3</ele>
        <time>2020-06-16T17:05:33Z</time>
      </trkpt>
      <trkpt lat="49.34944" lon="-0.82142">
        <ele>66.2</ele>
        <time>2020-06-16T17:05:34Z</time>
      </trkpt>
      <trkpt lat="49.34944" lon="-0.82141">
        <ele>66.2</ele>
        <time>2020-06-16T17:05:35Z</time>
      </trkpt>
      <trkpt lat="49.34944" lon="-0.8214">
        <ele>66.2</ele>
        <time>2020-06-16T17:05:36Z</time>
      </trkpt>
      <trkpt lat="49.34944" lon="-0.8214">
        <ele>66.2</ele>
        <time>2020-06-16T17:05:37Z</time>
      </trkpt>
      <trkpt lat="49.34943" lon="-0.82139">
        <ele>66.2</ele>
        <time>2020-06-16T17:05:38Z</time>
      </trkpt>
      <trkpt lat="49.34943" lon="-0.82138">
        <ele>66.2</ele>
        <time>2020-06-16T17:05:39Z</time>
      </trkpt>
      <trkpt lat="49.34943" lon="-0.82138">
        <ele>66.2</ele>
        <time>2020-06-16T17:05:40Z</time>
      </trkpt>
      <trkpt lat="49.34943" lon="-0.82137">
        <ele>66.2</ele>
        <time>2020-06-16T17:05:41Z</time>
      </trkpt>
      <trkpt lat="49.34942" lon="-0.82135">
        <ele>66.2</ele>
        <time>2020-06-16T17:05:42Z</time>
      </trkpt>
      <trkpt lat="49.34941" lon="-0.82134">
        <ele>66.2</ele>
        <time>2020-06-16T17:05:43Z</time>
      </trkpt>
      <trkpt lat="49.3494" lon="-0.82132">
        <ele>66.2</ele>
        <time>2020-06-16T17:05:44Z</time>
      </trkpt>
      <trkpt lat="49.3494" lon="-0.82131">
        <ele>66.2</ele>
        <time>2020-06-16T17:05:45Z</time>
      </trkpt>
      <trkpt lat="49.34939" lon="-0.8213">
        <ele>66.2</ele>
        <time>2020-06-16T17:05:46Z</time>
      </trkpt>
      <trkpt lat="49.34939" lon="-0.82129">
        <ele>66.2</ele>
        <time>2020-06-16T17:05:47Z</time>
      </trkpt>
      <trkpt lat="49.34939" lon="-0.82128">
        <ele>66.2</ele>
        <time>2020-06-16T17:05:48Z</time>
      </trkpt>
      <trkpt lat="49.34938" lon="-0.82126">
        <ele>66.2</ele>
        <time>2020-06-16T17:05:49Z</time>
      </trkpt>
      <trkpt lat="49.34939" lon="-0.82123">
        <ele>66.2</ele>
        <time>2020-06-16T17:05:50Z</time>
      </trkpt>
      <trkpt lat="49.34939" lon="-0.82121">
        <ele>66.2</ele>
        <time>2020-06-16T17:05:51Z</time>
      </trkpt>
      <trkpt lat="49.34938" lon="-0.82121">
        <ele>66.1</ele>
        <time>2020-06-16T17:05:52Z</time>
      </trkpt>
      <trkpt lat="49.34938" lon="-0.82119">
        <ele>66.1</ele>
        <time>2020-06-16T17:05:53Z</time>
      </trkpt>
      <trkpt lat="49.34935" lon="-0.82117">
        <ele>66.1</ele>
        <time>2020-06-16T17:05:54Z</time>
      </trkpt>
      <trkpt lat="49.34935" lon="-0.82115">
        <ele>66.1</ele>
        <time>2020-06-16T17:05:55Z</time>
      </trkpt>
      <trkpt lat="49.34935" lon="-0.82114">
        <ele>66.1</ele>
        <time>2020-06-16T17:05:56Z</time>
      </trkpt>
      <trkpt lat="49.34935" lon="-0.82112">
        <ele>66.1</ele>
        <time>2020-06-16T17:05:57Z</time>
      </trkpt>
      <trkpt lat="49.34935" lon="-0.82111">
        <ele>66.1</ele>
        <time>2020-06-16T17:05:58Z</time>
      </trkpt>
      <trkpt lat="49.34935" lon="-0.8211">
        <ele>66.1</ele>
        <time>2020-06-16T17:05:59Z</time>
      </trkpt>
      <trkpt lat="49.34935" lon="-0.82109">
        <ele>66.1</ele>
        <time>2020-06-16T17:06:00Z</time>
      </trkpt>
      <trkpt lat="49.34935" lon="-0.82107">
        <ele>66.1</ele>
        <time>2020-06-16T17:06:01Z</time>
      </trkpt>
      <trkpt lat="49.34935" lon="-0.82106">
        <ele>66.1</ele>
        <time>2020-06-16T17:06:02Z</time>
      </trkpt>
      <trkpt lat="49.34935" lon="-0.82104">
        <ele>66.1</ele>
        <time>2020-06-16T17:06:03Z</time>
      </trkpt>
      <trkpt lat="49.34934" lon="-0.82103">
        <ele>66.1</ele>
        <time>2020-06-16T17:06:04Z</time>
      </trkpt>
      <trkpt lat="49.34934" lon="-0.82104">
        <ele>66.1</ele>
        <time>2020-06-16T17:06:05Z</time>
      </trkpt>
      <trkpt lat="49.34934" lon="-0.82104">
        <ele>66.1</ele>
        <time>2020-06-16T17:06:06Z</time>
      </trkpt>
      <trkpt lat="49.34935" lon="-0.82103">
        <ele>66.1</ele>
        <time>2020-06-16T17:06:07Z</time>
      </trkpt>
      <trkpt lat="49.34935" lon="-0.82102">
        <ele>66.1</ele>
        <time>2020-06-16T17:06:08Z</time>
      </trkpt>
      <trkpt lat="49.34935" lon="-0.82102">
        <ele>66.1</ele>
        <time>2020-06-16T17:06:09Z</time>
      </trkpt>
      <trkpt lat="49.34935" lon="-0.82103">
        <ele>66.1</ele>
        <time>2020-06-16T17:06:10Z</time>
      </trkpt>
      <trkpt lat="49.34936" lon="-0.82104">
        <ele>66.1</ele>
        <time>2020-06-16T17:06:11Z</time>
      </trkpt>
      <trkpt lat="49.34936" lon="-0.82105">
        <ele>66.1</ele>
        <time>2020-06-16T17:06:12Z</time>
      </trkpt>
      <trkpt lat="49.34936" lon="-0.82105">
        <ele>66.1</ele>
        <time>2020-06-16T17:06:13Z</time>
      </trkpt>
      <trkpt lat="49.34936" lon="-0.82105">
        <ele>66.1</ele>
        <time>2020-06-16T17:06:14Z</time>
      </trkpt>
      <trkpt lat="49.34936" lon="-0.82104">
        <ele>66.1</ele>
        <time>2020-06-16T17:06:15Z</time>
      </trkpt>
      <trkpt lat="49.34935" lon="-0.82102">
        <ele>66.1</ele>
        <time>2020-06-16T17:06:16Z</time>
      </trkpt>
      <trkpt lat="49.34934" lon="-0.82101">
        <ele>66.1</ele>
        <time>2020-06-16T17:06:17Z</time>
      </trkpt>
      <trkpt lat="49.34934" lon="-0.82098">
        <ele>66.1</ele>
        <time>2020-06-16T17:06:18Z</time>
      </trkpt>
      <trkpt lat="49.34933" lon="-0.82092">
        <ele>66.1</ele>
        <time>2020-06-16T17:06:19Z</time>
      </trkpt>
      <trkpt lat="49.34933" lon="-0.8209">
        <ele>66.1</ele>
        <time>2020-06-16T17:06:20Z</time>
      </trkpt>
      <trkpt lat="49.34932" lon="-0.82084">
        <ele>66.1</ele>
        <time>2020-06-16T17:06:21Z</time>
      </trkpt>
      <trkpt lat="49.34932" lon="-0.82082">
        <ele>66.1</ele>
        <time>2020-06-16T17:06:22Z</time>
      </trkpt>
      <trkpt lat="49.34932" lon="-0.82078">
        <ele>66.1</ele>
        <time>2020-06-16T17:06:23Z</time>
      </trkpt>
      <trkpt lat="49.34931" lon="-0.82073">
        <ele>66.1</ele>
        <time>2020-06-16T17:06:24Z</time>
      </trkpt>
      <trkpt lat="49.34931" lon="-0.82068">
        <ele>66.2</ele>
        <time>2020-06-16T17:06:25Z</time>
      </trkpt>
      <trkpt lat="49.34929" lon="-0.82063">
        <ele>66.2</ele>
        <time>2020-06-16T17:06:26Z</time>
      </trkpt>
      <trkpt lat="49.34928" lon="-0.82057">
        <ele>66.2</ele>
        <time>2020-06-16T17:06:27Z</time>
      </trkpt>
      <trkpt lat="49.34927" lon="-0.8205">
        <ele>66.3</ele>
        <time>2020-06-16T17:06:28Z</time>
      </trkpt>
      <trkpt lat="49.34926" lon="-0.82043">
        <ele>66.4</ele>
        <time>2020-06-16T17:06:29Z</time>
      </trkpt>
      <trkpt lat="49.34924" lon="-0.82037">
        <ele>66.4</ele>
        <time>2020-06-16T17:06:30Z</time>
      </trkpt>
      <trkpt lat="49.34923" lon="-0.82032">
        <ele>66.4</ele>
        <time>2020-06-16T17:06:31Z</time>
      </trkpt>
      <trkpt lat="49.34922" lon="-0.82026">
        <ele>66.4</ele>
        <time>2020-06-16T17:06:32Z</time>
      </trkpt>
      <trkpt lat="49.34921" lon="-0.82018">
        <ele>66.4</ele>
        <time>2020-06-16T17:06:33Z</time>
      </trkpt>
      <trkpt lat="49.3492" lon="-0.82011">
        <ele>66.4</ele>
        <time>2020-06-16T17:06:34Z</time>
      </trkpt>
      <trkpt lat="49.34919" lon="-0.82004">
        <ele>66.4</ele>
        <time>2020-06-16T17:06:35Z</time>
      </trkpt>
      <trkpt lat="49.34918" lon="-0.81998">
        <ele>66.4</ele>
        <time>2020-06-16T17:06:36Z</time>
      </trkpt>
      <trkpt lat="49.34917" lon="-0.81989">
        <ele>66.3</ele>
        <time>2020-06-16T17:06:37Z</time>
      </trkpt>
      <trkpt lat="49.34916" lon="-0.81981">
        <ele>66.3</ele>
        <time>2020-06-16T17:06:38Z</time>
      </trkpt>
      <trkpt lat="49.34915" lon="-0.81975">
        <ele>66.3</ele>
        <time>2020-06-16T17:06:39Z</time>
      </trkpt>
      <trkpt lat="49.34914" lon="-0.81967">
        <ele>66.3</ele>
        <time>2020-06-16T17:06:40Z</time>
      </trkpt>
      <trkpt lat="49.34913" lon="-0.81959">
        <ele>66.3</ele>
        <time>2020-06-16T17:06:41Z</time>
      </trkpt>
      <trkpt lat="49.34912" lon="-0.81952">
        <ele>66.2</ele>
        <time>2020-06-16T17:06:42Z</time>
      </trkpt>
      <trkpt lat="49.34911" lon="-0.81944">
        <ele>66.2</ele>
        <time>2020-06-16T17:06:43Z</time>
      </trkpt>
      <trkpt lat="49.34909" lon="-0.81937">
        <ele>66.2</ele>
        <time>2020-06-16T17:06:44Z</time>
      </trkpt>
      <trkpt lat="49.34907" lon="-0.8193">
        <ele>66.2</ele>
        <time>2020-06-16T17:06:45Z</time>
      </trkpt>
      <trkpt lat="49.34906" lon="-0.81922">
        <ele>66.2</ele>
        <time>2020-06-16T17:06:46Z</time>
      </trkpt>
      <trkpt lat="49.34904" lon="-0.81914">
        <ele>66.2</ele>
        <time>2020-06-16T17:06:47Z</time>
      </trkpt>
      <trkpt lat="49.34902" lon="-0.81905">
        <ele>66.2</ele>
        <time>2020-06-16T17:06:48Z</time>
      </trkpt>
      <trkpt lat="49.34901" lon="-0.81897">
        <ele>66.2</ele>
        <time>2020-06-16T17:06:49Z</time>
      </trkpt>
      <trkpt lat="49.349" lon="-0.81889">
        <ele>66.2</ele>
        <time>2020-06-16T17:06:50Z</time>
      </trkpt>
      <trkpt lat="49.34899" lon="-0.81881">
        <ele>66.2</ele>
        <time>2020-06-16T17:06:51Z</time>
      </trkpt>
      <trkpt lat="49.34898" lon="-0.81873">
        <ele>66.2</ele>
        <time>2020-06-16T17:06:52Z</time>
      </trkpt>
      <trkpt lat="49.34896" lon="-0.81866">
        <ele>66.2</ele>
        <time>2020-06-16T17:06:53Z</time>
      </trkpt>
      <trkpt lat="49.34895" lon="-0.81859">
        <ele>66.3</ele>
        <time>2020-06-16T17:06:54Z</time>
      </trkpt>
      <trkpt lat="49.34894" lon="-0.8185">
        <ele>66.3</ele>
        <time>2020-06-16T17:06:55Z</time>
      </trkpt>
      <trkpt lat="49.34892" lon="-0.8184">
        <ele>66.3</ele>
        <time>2020-06-16T17:06:56Z</time>
      </trkpt>
      <trkpt lat="49.34891" lon="-0.81831">
        <ele>66.4</ele>
        <time>2020-06-16T17:06:57Z</time>
      </trkpt>
      <trkpt lat="49.34889" lon="-0.81823">
        <ele>66.4</ele>
        <time>2020-06-16T17:06:58Z</time>
      </trkpt>
      <trkpt lat="49.34888" lon="-0.81815">
        <ele>66.5</ele>
        <time>2020-06-16T17:06:59Z</time>
      </trkpt>
      <trkpt lat="49.34885" lon="-0.81808">
        <ele>66.5</ele>
        <time>2020-06-16T17:07:00Z</time>
      </trkpt>
      <trkpt lat="49.34883" lon="-0.81801">
        <ele>66.6</ele>
        <time>2020-06-16T17:07:01Z</time>
      </trkpt>
      <trkpt lat="49.34882" lon="-0.81792">
        <ele>66.6</ele>
        <time>2020-06-16T17:07:02Z</time>
      </trkpt>
      <trkpt lat="49.34881" lon="-0.81785">
        <ele>66.7</ele>
        <time>2020-06-16T17:07:03Z</time>
      </trkpt>
      <trkpt lat="49.34881" lon="-0.81777">
        <ele>66.8</ele>
        <time>2020-06-16T17:07:04Z</time>
      </trkpt>
      <trkpt lat="49.3488" lon="-0.81771">
        <ele>66.8</ele>
        <time>2020-06-16T17:07:05Z</time>
      </trkpt>
      <trkpt lat="49.34879" lon="-0.81765">
        <ele>66.8</ele>
        <time>2020-06-16T17:07:06Z</time>
      </trkpt>
      <trkpt lat="49.34879" lon="-0.81758">
        <ele>66.9</ele>
        <time>2020-06-16T17:07:07Z</time>
      </trkpt>
      <trkpt lat="49.34879" lon="-0.81751">
        <ele>66.9</ele>
        <time>2020-06-16T17:07:08Z</time>
      </trkpt>
      <trkpt lat="49.34878" lon="-0.81746">
        <ele>66.9</ele>
        <time>2020-06-16T17:07:09Z</time>
      </trkpt>
      <trkpt lat="49.34878" lon="-0.8174">
        <ele>66.9</ele>
        <time>2020-06-16T17:07:10Z</time>
      </trkpt>
      <trkpt lat="49.34878" lon="-0.81733">
        <ele>66.9</ele>
        <time>2020-06-16T17:07:11Z</time>
      </trkpt>
      <trkpt lat="49.34878" lon="-0.81727">
        <ele>66.9</ele>
        <time>2020-06-16T17:07:12Z</time>
      </trkpt>
      <trkpt lat="49.34878" lon="-0.8172">
        <ele>66.9</ele>
        <time>2020-06-16T17:07:13Z</time>
      </trkpt>
      <trkpt lat="49.34879" lon="-0.81713">
        <ele>66.9</ele>
        <time>2020-06-16T17:07:14Z</time>
      </trkpt>
      <trkpt lat="49.34879" lon="-0.81708">
        <ele>66.9</ele>
        <time>2020-06-16T17:07:15Z</time>
      </trkpt>
      <trkpt lat="49.34879" lon="-0.81701">
        <ele>66.9</ele>
        <time>2020-06-16T17:07:16Z</time>
      </trkpt>
      <trkpt lat="49.34879" lon="-0.81694">
        <ele>66.8</ele>
        <time>2020-06-16T17:07:17Z</time>
      </trkpt>
      <trkpt lat="49.3488" lon="-0.81685">
        <ele>66.8</ele>
        <time>2020-06-16T17:07:18Z</time>
      </trkpt>
      <trkpt lat="49.34881" lon="-0.81677">
        <ele>66.7</ele>
        <time>2020-06-16T17:07:19Z</time>
      </trkpt>
      <trkpt lat="49.34881" lon="-0.81669">
        <ele>66.7</ele>
        <time>2020-06-16T17:07:20Z</time>
      </trkpt>
      <trkpt lat="49.34882" lon="-0.8166">
        <ele>66.6</ele>
        <time>2020-06-16T17:07:21Z</time>
      </trkpt>
      <trkpt lat="49.34882" lon="-0.81654">
        <ele>66.6</ele>
        <time>2020-06-16T17:07:22Z</time>
      </trkpt>
      <trkpt lat="49.34883" lon="-0.81645">
        <ele>66.6</ele>
        <time>2020-06-16T17:07:23Z</time>
      </trkpt>
      <trkpt lat="49.34883" lon="-0.81638">
        <ele>66.6</ele>
        <time>2020-06-16T17:07:24Z</time>
      </trkpt>
      <trkpt lat="49.34882" lon="-0.81631">
        <ele>66.6</ele>
        <time>2020-06-16T17:07:25Z</time>
      </trkpt>
      <trkpt lat="49.34883" lon="-0.81622">
        <ele>66.5</ele>
        <time>2020-06-16T17:07:26Z</time>
      </trkpt>
      <trkpt lat="49.34884" lon="-0.81614">
        <ele>66.5</ele>
        <time>2020-06-16T17:07:27Z</time>
      </trkpt>
      <trkpt lat="49.34884" lon="-0.81606">
        <ele>66.5</ele>
        <time>2020-06-16T17:07:28Z</time>
      </trkpt>
      <trkpt lat="49.34884" lon="-0.81598">
        <ele>66.5</ele>
        <time>2020-06-16T17:07:29Z</time>
      </trkpt>
      <trkpt lat="49.34884" lon="-0.81591">
        <ele>66.4</ele>
        <time>2020-06-16T17:07:30Z</time>
      </trkpt>
      <trkpt lat="49.34884" lon="-0.81583">
        <ele>66.4</ele>
        <time>2020-06-16T17:07:31Z</time>
      </trkpt>
      <trkpt lat="49.34885" lon="-0.81575">
        <ele>66.4</ele>
        <time>2020-06-16T17:07:32Z</time>
      </trkpt>
      <trkpt lat="49.34886" lon="-0.81567">
        <ele>66.3</ele>
        <time>2020-06-16T17:07:33Z</time>
      </trkpt>
      <trkpt lat="49.34887" lon="-0.81559">
        <ele>66.3</ele>
        <time>2020-06-16T17:07:34Z</time>
      </trkpt>
      <trkpt lat="49.34888" lon="-0.81549">
        <ele>66.2</ele>
        <time>2020-06-16T17:07:35Z</time>
      </trkpt>
      <trkpt lat="49.3489" lon="-0.81542">
        <ele>66.1</ele>
        <time>2020-06-16T17:07:36Z</time>
      </trkpt>
      <trkpt lat="49.34891" lon="-0.81534">
        <ele>66.1</ele>
        <time>2020-06-16T17:07:37Z</time>
      </trkpt>
      <trkpt lat="49.34893" lon="-0.81524">
        <ele>65.9</ele>
        <time>2020-06-16T17:07:38Z</time>
      </trkpt>
      <trkpt lat="49.34893" lon="-0.81516">
        <ele>65.9</ele>
        <time>2020-06-16T17:07:39Z</time>
      </trkpt>
      <trkpt lat="49.34894" lon="-0.81508">
        <ele>65.9</ele>
        <time>2020-06-16T17:07:40Z</time>
      </trkpt>
      <trkpt lat="49.34894" lon="-0.815">
        <ele>65.9</ele>
        <time>2020-06-16T17:07:41Z</time>
      </trkpt>
      <trkpt lat="49.34894" lon="-0.81492">
        <ele>65.8</ele>
        <time>2020-06-16T17:07:42Z</time>
      </trkpt>
      <trkpt lat="49.34894" lon="-0.81484">
        <ele>65.8</ele>
        <time>2020-06-16T17:07:43Z</time>
      </trkpt>
      <trkpt lat="49.34894" lon="-0.81477">
        <ele>65.8</ele>
        <time>2020-06-16T17:07:44Z</time>
      </trkpt>
      <trkpt lat="49.34894" lon="-0.81468">
        <ele>65.8</ele>
        <time>2020-06-16T17:07:45Z</time>
      </trkpt>
      <trkpt lat="49.34893" lon="-0.81459">
        <ele>65.7</ele>
        <time>2020-06-16T17:07:46Z</time>
      </trkpt>
      <trkpt lat="49.34894" lon="-0.81449">
        <ele>65.7</ele>
        <time>2020-06-16T17:07:47Z</time>
      </trkpt>
      <trkpt lat="49.34893" lon="-0.81443">
        <ele>65.7</ele>
        <time>2020-06-16T17:07:48Z</time>
      </trkpt>
      <trkpt lat="49.34892" lon="-0.81435">
        <ele>65.6</ele>
        <time>2020-06-16T17:07:49Z</time>
      </trkpt>
      <trkpt lat="49.34892" lon="-0.81427">
        <ele>65.6</ele>
        <time>2020-06-16T17:07:50Z</time>
      </trkpt>
      <trkpt lat="49.34891" lon="-0.81419">
        <ele>65.6</ele>
        <time>2020-06-16T17:07:51Z</time>
      </trkpt>
      <trkpt lat="49.34889" lon="-0.81411">
        <ele>65.6</ele>
        <time>2020-06-16T17:07:52Z</time>
      </trkpt>
      <trkpt lat="49.34887" lon="-0.81404">
        <ele>65.6</ele>
        <time>2020-06-16T17:07:53Z</time>
      </trkpt>
      <trkpt lat="49.34884" lon="-0.81396">
        <ele>65.6</ele>
        <time>2020-06-16T17:07:54Z</time>
      </trkpt>
      <trkpt lat="49.34883" lon="-0.81389">
        <ele>65.6</ele>
        <time>2020-06-16T17:07:55Z</time>
      </trkpt>
      <trkpt lat="49.3488" lon="-0.81381">
        <ele>65.6</ele>
        <time>2020-06-16T17:07:56Z</time>
      </trkpt>
      <trkpt lat="49.34877" lon="-0.81373">
        <ele>65.6</ele>
        <time>2020-06-16T17:07:57Z</time>
      </trkpt>
      <trkpt lat="49.34876" lon="-0.81365">
        <ele>65.6</ele>
        <time>2020-06-16T17:07:58Z</time>
      </trkpt>
      <trkpt lat="49.34874" lon="-0.81357">
        <ele>65.6</ele>
        <time>2020-06-16T17:07:59Z</time>
      </trkpt>
      <trkpt lat="49.34873" lon="-0.81349">
        <ele>65.6</ele>
        <time>2020-06-16T17:08:00Z</time>
      </trkpt>
      <trkpt lat="49.34872" lon="-0.81341">
        <ele>65.5</ele>
        <time>2020-06-16T17:08:01Z</time>
      </trkpt>
      <trkpt lat="49.3487" lon="-0.81333">
        <ele>65.5</ele>
        <time>2020-06-16T17:08:02Z</time>
      </trkpt>
      <trkpt lat="49.34869" lon="-0.81324">
        <ele>65.4</ele>
        <time>2020-06-16T17:08:03Z</time>
      </trkpt>
      <trkpt lat="49.34869" lon="-0.81316">
        <ele>65.4</ele>
        <time>2020-06-16T17:08:04Z</time>
      </trkpt>
      <trkpt lat="49.34869" lon="-0.81308">
        <ele>65.3</ele>
        <time>2020-06-16T17:08:05Z</time>
      </trkpt>
      <trkpt lat="49.34868" lon="-0.813">
        <ele>65.2</ele>
        <time>2020-06-16T17:08:06Z</time>
      </trkpt>
      <trkpt lat="49.34868" lon="-0.81291">
        <ele>65.1</ele>
        <time>2020-06-16T17:08:07Z</time>
      </trkpt>
      <trkpt lat="49.34868" lon="-0.81283">
        <ele>65.1</ele>
        <time>2020-06-16T17:08:08Z</time>
      </trkpt>
      <trkpt lat="49.34867" lon="-0.81273">
        <ele>65</ele>
        <time>2020-06-16T17:08:09Z</time>
      </trkpt>
      <trkpt lat="49.34867" lon="-0.81264">
        <ele>65</ele>
        <time>2020-06-16T17:08:10Z</time>
      </trkpt>
      <trkpt lat="49.34867" lon="-0.81254">
        <ele>64.9</ele>
        <time>2020-06-16T17:08:11Z</time>
      </trkpt>
      <trkpt lat="49.34867" lon="-0.81247">
        <ele>64.9</ele>
        <time>2020-06-16T17:08:12Z</time>
      </trkpt>
      <trkpt lat="49.34867" lon="-0.8124">
        <ele>64.9</ele>
        <time>2020-06-16T17:08:13Z</time>
      </trkpt>
      <trkpt lat="49.34867" lon="-0.81232">
        <ele>64.9</ele>
        <time>2020-06-16T17:08:14Z</time>
      </trkpt>
      <trkpt lat="49.34867" lon="-0.81225">
        <ele>64.9</ele>
        <time>2020-06-16T17:08:15Z</time>
      </trkpt>
      <trkpt lat="49.34868" lon="-0.81216">
        <ele>64.9</ele>
        <time>2020-06-16T17:08:16Z</time>
      </trkpt>
      <trkpt lat="49.34868" lon="-0.81207">
        <ele>64.9</ele>
        <time>2020-06-16T17:08:17Z</time>
      </trkpt>
      <trkpt lat="49.34868" lon="-0.81197">
        <ele>64.9</ele>
        <time>2020-06-16T17:08:18Z</time>
      </trkpt>
      <trkpt lat="49.34869" lon="-0.81187">
        <ele>64.9</ele>
        <time>2020-06-16T17:08:19Z</time>
      </trkpt>
      <trkpt lat="49.34869" lon="-0.81179">
        <ele>64.8</ele>
        <time>2020-06-16T17:08:20Z</time>
      </trkpt>
      <trkpt lat="49.34868" lon="-0.81171">
        <ele>64.8</ele>
        <time>2020-06-16T17:08:21Z</time>
      </trkpt>
      <trkpt lat="49.34867" lon="-0.81165">
        <ele>64.8</ele>
        <time>2020-06-16T17:08:22Z</time>
      </trkpt>
      <trkpt lat="49.34867" lon="-0.81158">
        <ele>64.8</ele>
        <time>2020-06-16T17:08:23Z</time>
      </trkpt>
      <trkpt lat="49.34866" lon="-0.81152">
        <ele>64.8</ele>
        <time>2020-06-16T17:08:24Z</time>
      </trkpt>
      <trkpt lat="49.34866" lon="-0.81145">
        <ele>64.8</ele>
        <time>2020-06-16T17:08:25Z</time>
      </trkpt>
      <trkpt lat="49.34865" lon="-0.81139">
        <ele>64.7</ele>
        <time>2020-06-16T17:08:26Z</time>
      </trkpt>
      <trkpt lat="49.34864" lon="-0.81131">
        <ele>64.7</ele>
        <time>2020-06-16T17:08:27Z</time>
      </trkpt>
      <trkpt lat="49.34863" lon="-0.81123">
        <ele>64.7</ele>
        <time>2020-06-16T17:08:28Z</time>
      </trkpt>
      <trkpt lat="49.34862" lon="-0.81114">
        <ele>64.6</ele>
        <time>2020-06-16T17:08:29Z</time>
      </trkpt>
      <trkpt lat="49.34861" lon="-0.81106">
        <ele>64.6</ele>
        <time>2020-06-16T17:08:30Z</time>
      </trkpt>
      <trkpt lat="49.34859" lon="-0.811">
        <ele>64.5</ele>
        <time>2020-06-16T17:08:31Z</time>
      </trkpt>
      <trkpt lat="49.34857" lon="-0.81093">
        <ele>64.5</ele>
        <time>2020-06-16T17:08:32Z</time>
      </trkpt>
      <trkpt lat="49.34855" lon="-0.81085">
        <ele>64.5</ele>
        <time>2020-06-16T17:08:33Z</time>
      </trkpt>
      <trkpt lat="49.34852" lon="-0.81078">
        <ele>64.4</ele>
        <time>2020-06-16T17:08:34Z</time>
      </trkpt>
      <trkpt lat="49.3485" lon="-0.8107">
        <ele>64.4</ele>
        <time>2020-06-16T17:08:35Z</time>
      </trkpt>
      <trkpt lat="49.34847" lon="-0.81062">
        <ele>64.3</ele>
        <time>2020-06-16T17:08:36Z</time>
      </trkpt>
      <trkpt lat="49.34845" lon="-0.81054">
        <ele>64.2</ele>
        <time>2020-06-16T17:08:37Z</time>
      </trkpt>
      <trkpt lat="49.34842" lon="-0.81046">
        <ele>64.1</ele>
        <time>2020-06-16T17:08:38Z</time>
      </trkpt>
      <trkpt lat="49.34839" lon="-0.81038">
        <ele>64</ele>
        <time>2020-06-16T17:08:39Z</time>
      </trkpt>
      <trkpt lat="49.34836" lon="-0.8103">
        <ele>63.9</ele>
        <time>2020-06-16T17:08:40Z</time>
      </trkpt>
      <trkpt lat="49.34833" lon="-0.81023">
        <ele>63.8</ele>
        <time>2020-06-16T17:08:41Z</time>
      </trkpt>
      <trkpt lat="49.34831" lon="-0.81016">
        <ele>63.7</ele>
        <time>2020-06-16T17:08:42Z</time>
      </trkpt>
      <trkpt lat="49.34828" lon="-0.81009">
        <ele>63.7</ele>
        <time>2020-06-16T17:08:43Z</time>
      </trkpt>
      <trkpt lat="49.34824" lon="-0.81002">
        <ele>63.6</ele>
        <time>2020-06-16T17:08:44Z</time>
      </trkpt>
      <trkpt lat="49.34821" lon="-0.80995">
        <ele>63.4</ele>
        <time>2020-06-16T17:08:45Z</time>
      </trkpt>
      <trkpt lat="49.34818" lon="-0.80988">
        <ele>63.3</ele>
        <time>2020-06-16T17:08:46Z</time>
      </trkpt>
      <trkpt lat="49.34815" lon="-0.8098">
        <ele>63.2</ele>
        <time>2020-06-16T17:08:47Z</time>
      </trkpt>
      <trkpt lat="49.34813" lon="-0.80974">
        <ele>63</ele>
        <time>2020-06-16T17:08:48Z</time>
      </trkpt>
      <trkpt lat="49.34809" lon="-0.80968">
        <ele>62.9</ele>
        <time>2020-06-16T17:08:49Z</time>
      </trkpt>
      <trkpt lat="49.34806" lon="-0.80961">
        <ele>62.7</ele>
        <time>2020-06-16T17:08:50Z</time>
      </trkpt>
      <trkpt lat="49.34803" lon="-0.80953">
        <ele>62.5</ele>
        <time>2020-06-16T17:08:51Z</time>
      </trkpt>
      <trkpt lat="49.34799" lon="-0.80947">
        <ele>62.3</ele>
        <time>2020-06-16T17:08:52Z</time>
      </trkpt>
      <trkpt lat="49.34796" lon="-0.80939">
        <ele>62.1</ele>
        <time>2020-06-16T17:08:53Z</time>
      </trkpt>
      <trkpt lat="49.34793" lon="-0.80932">
        <ele>61.8</ele>
        <time>2020-06-16T17:08:54Z</time>
      </trkpt>
      <trkpt lat="49.34789" lon="-0.80925">
        <ele>61.3</ele>
        <time>2020-06-16T17:08:55Z</time>
      </trkpt>
      <trkpt lat="49.34786" lon="-0.80918">
        <ele>61</ele>
        <time>2020-06-16T17:08:56Z</time>
      </trkpt>
      <trkpt lat="49.34782" lon="-0.8091">
        <ele>60.7</ele>
        <time>2020-06-16T17:08:57Z</time>
      </trkpt>
      <trkpt lat="49.34779" lon="-0.80902">
        <ele>60.4</ele>
        <time>2020-06-16T17:08:58Z</time>
      </trkpt>
      <trkpt lat="49.34776" lon="-0.80895">
        <ele>60.1</ele>
        <time>2020-06-16T17:08:59Z</time>
      </trkpt>
      <trkpt lat="49.34773" lon="-0.80887">
        <ele>59.8</ele>
        <time>2020-06-16T17:09:00Z</time>
      </trkpt>
      <trkpt lat="49.3477" lon="-0.80879">
        <ele>59.4</ele>
        <time>2020-06-16T17:09:01Z</time>
      </trkpt>
      <trkpt lat="49.34767" lon="-0.8087">
        <ele>59</ele>
        <time>2020-06-16T17:09:02Z</time>
      </trkpt>
      <trkpt lat="49.34761" lon="-0.80864">
        <ele>58.6</ele>
        <time>2020-06-16T17:09:03Z</time>
      </trkpt>
      <trkpt lat="49.34756" lon="-0.80856">
        <ele>58.2</ele>
        <time>2020-06-16T17:09:04Z</time>
      </trkpt>
      <trkpt lat="49.34753" lon="-0.80849">
        <ele>57.8</ele>
        <time>2020-06-16T17:09:05Z</time>
      </trkpt>
      <trkpt lat="49.3475" lon="-0.80842">
        <ele>57.5</ele>
        <time>2020-06-16T17:09:06Z</time>
      </trkpt>
      <trkpt lat="49.34746" lon="-0.80835">
        <ele>57.1</ele>
        <time>2020-06-16T17:09:07Z</time>
      </trkpt>
      <trkpt lat="49.34743" lon="-0.80829">
        <ele>56.8</ele>
        <time>2020-06-16T17:09:08Z</time>
      </trkpt>
      <trkpt lat="49.34739" lon="-0.80821">
        <ele>56.4</ele>
        <time>2020-06-16T17:09:09Z</time>
      </trkpt>
      <trkpt lat="49.34735" lon="-0.80812">
        <ele>55.9</ele>
        <time>2020-06-16T17:09:10Z</time>
      </trkpt>
      <trkpt lat="49.34731" lon="-0.80804">
        <ele>55.5</ele>
        <time>2020-06-16T17:09:11Z</time>
      </trkpt>
      <trkpt lat="49.34727" lon="-0.80796">
        <ele>55</ele>
        <time>2020-06-16T17:09:12Z</time>
      </trkpt>
      <trkpt lat="49.34724" lon="-0.8079">
        <ele>54.6</ele>
        <time>2020-06-16T17:09:13Z</time>
      </trkpt>
      <trkpt lat="49.3472" lon="-0.80783">
        <ele>54.3</ele>
        <time>2020-06-16T17:09:14Z</time>
      </trkpt>
      <trkpt lat="49.34718" lon="-0.80778">
        <ele>54.1</ele>
        <time>2020-06-16T17:09:15Z</time>
      </trkpt>
      <trkpt lat="49.34715" lon="-0.80771">
        <ele>54</ele>
        <time>2020-06-16T17:09:16Z</time>
      </trkpt>
      <trkpt lat="49.34714" lon="-0.80764">
        <ele>53.8</ele>
        <time>2020-06-16T17:09:17Z</time>
      </trkpt>
      <trkpt lat="49.34713" lon="-0.8076">
        <ele>53.7</ele>
        <time>2020-06-16T17:09:18Z</time>
      </trkpt>
      <trkpt lat="49.34713" lon="-0.80758">
        <ele>53.7</ele>
        <time>2020-06-16T17:09:19Z</time>
      </trkpt>
      <trkpt lat="49.34712" lon="-0.80755">
        <ele>53.7</ele>
        <time>2020-06-16T17:09:20Z</time>
      </trkpt>
      <trkpt lat="49.34712" lon="-0.8075">
        <ele>53.8</ele>
        <time>2020-06-16T17:09:21Z</time>
      </trkpt>
      <trkpt lat="49.34712" lon="-0.80749">
        <ele>53.8</ele>
        <time>2020-06-16T17:09:22Z</time>
      </trkpt>
      <trkpt lat="49.34713" lon="-0.80749">
        <ele>53.8</ele>
        <time>2020-06-16T17:09:23Z</time>
      </trkpt>
      <trkpt lat="49.34713" lon="-0.80749">
        <ele>53.8</ele>
        <time>2020-06-16T17:09:24Z</time>
      </trkpt>
      <trkpt lat="49.34713" lon="-0.8075">
        <ele>53.8</ele>
        <time>2020-06-16T17:09:25Z</time>
      </trkpt>
      <trkpt lat="49.34714" lon="-0.8075">
        <ele>53.8</ele>
        <time>2020-06-16T17:09:26Z</time>
      </trkpt>
      <trkpt lat="49.34714" lon="-0.80749">
        <ele>53.8</ele>
        <time>2020-06-16T17:09:27Z</time>
      </trkpt>
      <trkpt lat="49.34714" lon="-0.80749">
        <ele>53.8</ele>
        <time>2020-06-16T17:09:28Z</time>
      </trkpt>
      <trkpt lat="49.34714" lon="-0.80749">
        <ele>53.8</ele>
        <time>2020-06-16T17:09:29Z</time>
      </trkpt>
      <trkpt lat="49.34713" lon="-0.80749">
        <ele>53.8</ele>
        <time>2020-06-16T17:09:30Z</time>
      </trkpt>
      <trkpt lat="49.34712" lon="-0.8075">
        <ele>53.8</ele>
        <time>2020-06-16T17:09:31Z</time>
      </trkpt>
      <trkpt lat="49.34712" lon="-0.80747">
        <ele>53.9</ele>
        <time>2020-06-16T17:09:32Z</time>
      </trkpt>
      <trkpt lat="49.34712" lon="-0.80745">
        <ele>53.9</ele>
        <time>2020-06-16T17:09:33Z</time>
      </trkpt>
      <trkpt lat="49.34713" lon="-0.80744">
        <ele>53.9</ele>
        <time>2020-06-16T17:09:34Z</time>
      </trkpt>
      <trkpt lat="49.34714" lon="-0.80742">
        <ele>53.9</ele>
        <time>2020-06-16T17:09:35Z</time>
      </trkpt>
      <trkpt lat="49.34715" lon="-0.80742">
        <ele>53.9</ele>
        <time>2020-06-16T17:09:36Z</time>
      </trkpt>
      <trkpt lat="49.34716" lon="-0.80741">
        <ele>53.9</ele>
        <time>2020-06-16T17:09:37Z</time>
      </trkpt>
      <trkpt lat="49.3472" lon="-0.8074">
        <ele>53.9</ele>
        <time>2020-06-16T17:09:38Z</time>
      </trkpt>
      <trkpt lat="49.34721" lon="-0.8074">
        <ele>53.9</ele>
        <time>2020-06-16T17:09:39Z</time>
      </trkpt>
      <trkpt lat="49.34723" lon="-0.80739">
        <ele>54</ele>
        <time>2020-06-16T17:09:40Z</time>
      </trkpt>
      <trkpt lat="49.34724" lon="-0.80738">
        <ele>54</ele>
        <time>2020-06-16T17:09:41Z</time>
      </trkpt>
      <trkpt lat="49.34726" lon="-0.80735">
        <ele>54</ele>
        <time>2020-06-16T17:09:42Z</time>
      </trkpt>
      <trkpt lat="49.34727" lon="-0.80734">
        <ele>54</ele>
        <time>2020-06-16T17:09:43Z</time>
      </trkpt>
      <trkpt lat="49.3473" lon="-0.80732">
        <ele>54</ele>
        <time>2020-06-16T17:09:44Z</time>
      </trkpt>
      <trkpt lat="49.34733" lon="-0.8073">
        <ele>53.9</ele>
        <time>2020-06-16T17:09:45Z</time>
      </trkpt>
      <trkpt lat="49.34735" lon="-0.80727">
        <ele>53.9</ele>
        <time>2020-06-16T17:09:46Z</time>
      </trkpt>
      <trkpt lat="49.34737" lon="-0.80726">
        <ele>53.9</ele>
        <time>2020-06-16T17:09:47Z</time>
      </trkpt>
      <trkpt lat="49.34739" lon="-0.80723">
        <ele>53.9</ele>
        <time>2020-06-16T17:09:48Z</time>
      </trkpt>
      <trkpt lat="49.34742" lon="-0.80722">
        <ele>53.8</ele>
        <time>2020-06-16T17:09:49Z</time>
      </trkpt>
      <trkpt lat="49.34746" lon="-0.80719">
        <ele>53.7</ele>
        <time>2020-06-16T17:09:50Z</time>
      </trkpt>
      <trkpt lat="49.34748" lon="-0.80716">
        <ele>53.6</ele>
        <time>2020-06-16T17:09:51Z</time>
      </trkpt>
      <trkpt lat="49.34751" lon="-0.80712">
        <ele>53.4</ele>
        <time>2020-06-16T17:09:52Z</time>
      </trkpt>
      <trkpt lat="49.34754" lon="-0.80709">
        <ele>53.2</ele>
        <time>2020-06-16T17:09:53Z</time>
      </trkpt>
      <trkpt lat="49.34756" lon="-0.80705">
        <ele>53.1</ele>
        <time>2020-06-16T17:09:54Z</time>
      </trkpt>
      <trkpt lat="49.34758" lon="-0.80702">
        <ele>52.9</ele>
        <time>2020-06-16T17:09:55Z</time>
      </trkpt>
      <trkpt lat="49.3476" lon="-0.80698">
        <ele>52.7</ele>
        <time>2020-06-16T17:09:56Z</time>
      </trkpt>
      <trkpt lat="49.34761" lon="-0.80694">
        <ele>52.5</ele>
        <time>2020-06-16T17:09:57Z</time>
      </trkpt>
      <trkpt lat="49.34763" lon="-0.80689">
        <ele>52.2</ele>
        <time>2020-06-16T17:09:58Z</time>
      </trkpt>
      <trkpt lat="49.34764" lon="-0.80688">
        <ele>52.1</ele>
        <time>2020-06-16T17:09:59Z</time>
      </trkpt>
      <trkpt lat="49.34765" lon="-0.80683">
        <ele>51.8</ele>
        <time>2020-06-16T17:10:00Z</time>
      </trkpt>
      <trkpt lat="49.34766" lon="-0.80682">
        <ele>51.7</ele>
        <time>2020-06-16T17:10:01Z</time>
      </trkpt>
      <trkpt lat="49.34767" lon="-0.80678">
        <ele>51.4</ele>
        <time>2020-06-16T17:10:02Z</time>
      </trkpt>
      <trkpt lat="49.34768" lon="-0.80675">
        <ele>51.3</ele>
        <time>2020-06-16T17:10:03Z</time>
      </trkpt>
      <trkpt lat="49.34769" lon="-0.80671">
        <ele>51</ele>
        <time>2020-06-16T17:10:04Z</time>
      </trkpt>
      <trkpt lat="49.34769" lon="-0.80667">
        <ele>50.7</ele>
        <time>2020-06-16T17:10:05Z</time>
      </trkpt>
      <trkpt lat="49.34768" lon="-0.80665">
        <ele>50.7</ele>
        <time>2020-06-16T17:10:06Z</time>
      </trkpt>
      <trkpt lat="49.34769" lon="-0.80661">
        <ele>50.4</ele>
        <time>2020-06-16T17:10:07Z</time>
      </trkpt>
      <trkpt lat="49.34769" lon="-0.80656">
        <ele>50.1</ele>
        <time>2020-06-16T17:10:08Z</time>
      </trkpt>
      <trkpt lat="49.3477" lon="-0.8065">
        <ele>49.8</ele>
        <time>2020-06-16T17:10:09Z</time>
      </trkpt>
      <trkpt lat="49.34772" lon="-0.80643">
        <ele>49.4</ele>
        <time>2020-06-16T17:10:10Z</time>
      </trkpt>
      <trkpt lat="49.34773" lon="-0.80635">
        <ele>48.9</ele>
        <time>2020-06-16T17:10:11Z</time>
      </trkpt>
      <trkpt lat="49.34775" lon="-0.80629">
        <ele>48.5</ele>
        <time>2020-06-16T17:10:12Z</time>
      </trkpt>
      <trkpt lat="49.34777" lon="-0.80623">
        <ele>48.2</ele>
        <time>2020-06-16T17:10:13Z</time>
      </trkpt>
      <trkpt lat="49.3478" lon="-0.80616">
        <ele>47.8</ele>
        <time>2020-06-16T17:10:14Z</time>
      </trkpt>
      <trkpt lat="49.34782" lon="-0.80609">
        <ele>47.4</ele>
        <time>2020-06-16T17:10:15Z</time>
      </trkpt>
      <trkpt lat="49.34785" lon="-0.80602">
        <ele>47.2</ele>
        <time>2020-06-16T17:10:16Z</time>
      </trkpt>
      <trkpt lat="49.34787" lon="-0.80596">
        <ele>47</ele>
        <time>2020-06-16T17:10:17Z</time>
      </trkpt>
      <trkpt lat="49.34789" lon="-0.8059">
        <ele>46.8</ele>
        <time>2020-06-16T17:10:18Z</time>
      </trkpt>
      <trkpt lat="49.3479" lon="-0.80585">
        <ele>46.7</ele>
        <time>2020-06-16T17:10:19Z</time>
      </trkpt>
      <trkpt lat="49.34792" lon="-0.8058">
        <ele>46.5</ele>
        <time>2020-06-16T17:10:20Z</time>
      </trkpt>
      <trkpt lat="49.34794" lon="-0.80576">
        <ele>46.5</ele>
        <time>2020-06-16T17:10:21Z</time>
      </trkpt>
      <trkpt lat="49.34795" lon="-0.80572">
        <ele>46.4</ele>
        <time>2020-06-16T17:10:22Z</time>
      </trkpt>
      <trkpt lat="49.34797" lon="-0.80568">
        <ele>46.3</ele>
        <time>2020-06-16T17:10:23Z</time>
      </trkpt>
      <trkpt lat="49.34797" lon="-0.80567">
        <ele>46.3</ele>
        <time>2020-06-16T17:10:24Z</time>
      </trkpt>
      <trkpt lat="49.34799" lon="-0.80563">
        <ele>46.2</ele>
        <time>2020-06-16T17:10:25Z</time>
      </trkpt>
      <trkpt lat="49.348" lon="-0.80562">
        <ele>46.2</ele>
        <time>2020-06-16T17:10:26Z</time>
      </trkpt>
      <trkpt lat="49.348" lon="-0.80557">
        <ele>46.2</ele>
        <time>2020-06-16T17:10:27Z</time>
      </trkpt>
      <trkpt lat="49.34802" lon="-0.80551">
        <ele>46.2</ele>
        <time>2020-06-16T17:10:28Z</time>
      </trkpt>
      <trkpt lat="49.34802" lon="-0.80549">
        <ele>46.2</ele>
        <time>2020-06-16T17:10:29Z</time>
      </trkpt>
      <trkpt lat="49.34803" lon="-0.80547">
        <ele>46.2</ele>
        <time>2020-06-16T17:10:30Z</time>
      </trkpt>
      <trkpt lat="49.34804" lon="-0.80545">
        <ele>46.2</ele>
        <time>2020-06-16T17:10:31Z</time>
      </trkpt>
      <trkpt lat="49.34807" lon="-0.80544">
        <ele>46.2</ele>
        <time>2020-06-16T17:10:32Z</time>
      </trkpt>
      <trkpt lat="49.34808" lon="-0.80544">
        <ele>46.2</ele>
        <time>2020-06-16T17:10:33Z</time>
      </trkpt>
      <trkpt lat="49.34811" lon="-0.80542">
        <ele>46.1</ele>
        <time>2020-06-16T17:10:34Z</time>
      </trkpt>
      <trkpt lat="49.34812" lon="-0.80541">
        <ele>46.1</ele>
        <time>2020-06-16T17:10:35Z</time>
      </trkpt>
      <trkpt lat="49.34815" lon="-0.80538">
        <ele>46.1</ele>
        <time>2020-06-16T17:10:36Z</time>
      </trkpt>
      <trkpt lat="49.34816" lon="-0.80537">
        <ele>46.1</ele>
        <time>2020-06-16T17:10:37Z</time>
      </trkpt>
      <trkpt lat="49.34818" lon="-0.80534">
        <ele>46.1</ele>
        <time>2020-06-16T17:10:38Z</time>
      </trkpt>
      <trkpt lat="49.34819" lon="-0.80533">
        <ele>46.1</ele>
        <time>2020-06-16T17:10:39Z</time>
      </trkpt>
      <trkpt lat="49.3482" lon="-0.80532">
        <ele>46.1</ele>
        <time>2020-06-16T17:10:40Z</time>
      </trkpt>
      <trkpt lat="49.34821" lon="-0.80531">
        <ele>46.1</ele>
        <time>2020-06-16T17:10:41Z</time>
      </trkpt>
      <trkpt lat="49.34822" lon="-0.80532">
        <ele>46.1</ele>
        <time>2020-06-16T17:10:42Z</time>
      </trkpt>
      <trkpt lat="49.34822" lon="-0.80532">
        <ele>46.1</ele>
        <time>2020-06-16T17:10:43Z</time>
      </trkpt>
      <trkpt lat="49.34822" lon="-0.80532">
        <ele>46.1</ele>
        <time>2020-06-16T17:10:44Z</time>
      </trkpt>
      <trkpt lat="49.34823" lon="-0.80532">
        <ele>46.1</ele>
        <time>2020-06-16T17:10:45Z</time>
      </trkpt>
      <trkpt lat="49.34823" lon="-0.80533">
        <ele>46.1</ele>
        <time>2020-06-16T17:10:46Z</time>
      </trkpt>
      <trkpt lat="49.34823" lon="-0.80533">
        <ele>46.1</ele>
        <time>2020-06-16T17:10:47Z</time>
      </trkpt>
      <trkpt lat="49.34824" lon="-0.80532">
        <ele>46.1</ele>
        <time>2020-06-16T17:10:48Z</time>
      </trkpt>
      <trkpt lat="49.34823" lon="-0.80533">
        <ele>46.1</ele>
        <time>2020-06-16T17:10:49Z</time>
      </trkpt>
      <trkpt lat="49.34823" lon="-0.80533">
        <ele>46.1</ele>
        <time>2020-06-16T17:10:50Z</time>
      </trkpt>
      <trkpt lat="49.34824" lon="-0.80533">
        <ele>46.1</ele>
        <time>2020-06-16T17:10:51Z</time>
      </trkpt>
      <trkpt lat="49.34823" lon="-0.80534">
        <ele>46.1</ele>
        <time>2020-06-16T17:10:52Z</time>
      </trkpt>
      <trkpt lat="49.34824" lon="-0.80535">
        <ele>46.1</ele>
        <time>2020-06-16T17:10:53Z</time>
      </trkpt>
      <trkpt lat="49.34824" lon="-0.80535">
        <ele>46.1</ele>
        <time>2020-06-16T17:10:54Z</time>
      </trkpt>
      <trkpt lat="49.34823" lon="-0.80536">
        <ele>46.1</ele>
        <time>2020-06-16T17:10:55Z</time>
      </trkpt>
      <trkpt lat="49.34823" lon="-0.80536">
        <ele>46.1</ele>
        <time>2020-06-16T17:10:56Z</time>
      </trkpt>
      <trkpt lat="49.34824" lon="-0.80536">
        <ele>46.1</ele>
        <time>2020-06-16T17:10:57Z</time>
      </trkpt>
      <trkpt lat="49.34824" lon="-0.80537">
        <ele>46.1</ele>
        <time>2020-06-16T17:10:58Z</time>
      </trkpt>
      <trkpt lat="49.34824" lon="-0.80537">
        <ele>46.1</ele>
        <time>2020-06-16T17:10:59Z</time>
      </trkpt>
      <trkpt lat="49.34824" lon="-0.80535">
        <ele>46.1</ele>
        <time>2020-06-16T17:11:00Z</time>
      </trkpt>
      <trkpt lat="49.34824" lon="-0.80535">
        <ele>46.1</ele>
        <time>2020-06-16T17:11:01Z</time>
      </trkpt>
      <trkpt lat="49.34825" lon="-0.80536">
        <ele>46.1</ele>
        <time>2020-06-16T17:11:02Z</time>
      </trkpt>
      <trkpt lat="49.34825" lon="-0.80536">
        <ele>46.1</ele>
        <time>2020-06-16T17:11:03Z</time>
      </trkpt>
      <trkpt lat="49.34825" lon="-0.80538">
        <ele>46.1</ele>
        <time>2020-06-16T17:11:04Z</time>
      </trkpt>
      <trkpt lat="49.34824" lon="-0.8054">
        <ele>46.1</ele>
        <time>2020-06-16T17:11:05Z</time>
      </trkpt>
      <trkpt lat="49.34821" lon="-0.80542">
        <ele>46.1</ele>
        <time>2020-06-16T17:11:06Z</time>
      </trkpt>
      <trkpt lat="49.3482" lon="-0.80542">
        <ele>46.1</ele>
        <time>2020-06-16T17:11:07Z</time>
      </trkpt>
      <trkpt lat="49.34819" lon="-0.80542">
        <ele>46.1</ele>
        <time>2020-06-16T17:11:08Z</time>
      </trkpt>
      <trkpt lat="49.34818" lon="-0.80542">
        <ele>46.1</ele>
        <time>2020-06-16T17:11:09Z</time>
      </trkpt>
      <trkpt lat="49.34816" lon="-0.80543">
        <ele>46.1</ele>
        <time>2020-06-16T17:11:10Z</time>
      </trkpt>
      <trkpt lat="49.34815" lon="-0.80544">
        <ele>46.1</ele>
        <time>2020-06-16T17:11:11Z</time>
      </trkpt>
      <trkpt lat="49.34814" lon="-0.80544">
        <ele>46.1</ele>
        <time>2020-06-16T17:11:12Z</time>
      </trkpt>
      <trkpt lat="49.34814" lon="-0.80545">
        <ele>46.1</ele>
        <time>2020-06-16T17:11:13Z</time>
      </trkpt>
      <trkpt lat="49.34814" lon="-0.80545">
        <ele>46.1</ele>
        <time>2020-06-16T17:11:14Z</time>
      </trkpt>
      <trkpt lat="49.34813" lon="-0.80546">
        <ele>46.1</ele>
        <time>2020-06-16T17:11:15Z</time>
      </trkpt>
      <trkpt lat="49.34813" lon="-0.80548">
        <ele>46.1</ele>
        <time>2020-06-16T17:11:16Z</time>
      </trkpt>
      <trkpt lat="49.34812" lon="-0.80548">
        <ele>46.1</ele>
        <time>2020-06-16T17:11:17Z</time>
      </trkpt>
      <trkpt lat="49.34812" lon="-0.80549">
        <ele>46.1</ele>
        <time>2020-06-16T17:11:18Z</time>
      </trkpt>
      <trkpt lat="49.34811" lon="-0.80552">
        <ele>46.1</ele>
        <time>2020-06-16T17:11:19Z</time>
      </trkpt>
      <trkpt lat="49.3481" lon="-0.80554">
        <ele>46.1</ele>
        <time>2020-06-16T17:11:20Z</time>
      </trkpt>
      <trkpt lat="49.34809" lon="-0.80555">
        <ele>46.1</ele>
        <time>2020-06-16T17:11:21Z</time>
      </trkpt>
      <trkpt lat="49.3481" lon="-0.80555">
        <ele>46.1</ele>
        <time>2020-06-16T17:11:22Z</time>
      </trkpt>
      <trkpt lat="49.34809" lon="-0.80555">
        <ele>46.1</ele>
        <time>2020-06-16T17:11:23Z</time>
      </trkpt>
      <trkpt lat="49.34809" lon="-0.80555">
        <ele>46.1</ele>
        <time>2020-06-16T17:11:24Z</time>
      </trkpt>
      <trkpt lat="49.34809" lon="-0.80554">
        <ele>46.1</ele>
        <time>2020-06-16T17:11:25Z</time>
      </trkpt>
      <trkpt lat="49.34809" lon="-0.80553">
        <ele>46.1</ele>
        <time>2020-06-16T17:11:26Z</time>
      </trkpt>
      <trkpt lat="49.34808" lon="-0.80553">
        <ele>46.1</ele>
        <time>2020-06-16T17:11:27Z</time>
      </trkpt>
      <trkpt lat="49.34807" lon="-0.80553">
        <ele>46.1</ele>
        <time>2020-06-16T17:11:28Z</time>
      </trkpt>
      <trkpt lat="49.34807" lon="-0.80552">
        <ele>46.1</ele>
        <time>2020-06-16T17:11:29Z</time>
      </trkpt>
      <trkpt lat="49.34806" lon="-0.80551">
        <ele>46.1</ele>
        <time>2020-06-16T17:11:30Z</time>
      </trkpt>
      <trkpt lat="49.34806" lon="-0.80551">
        <ele>46.1</ele>
        <time>2020-06-16T17:11:31Z</time>
      </trkpt>
      <trkpt lat="49.34806" lon="-0.80551">
        <ele>46.1</ele>
        <time>2020-06-16T17:11:32Z</time>
      </trkpt>
      <trkpt lat="49.34806" lon="-0.80551">
        <ele>46.1</ele>
        <time>2020-06-16T17:11:33Z</time>
      </trkpt>
      <trkpt lat="49.3481" lon="-0.80545">
        <ele>46.1</ele>
        <time>2020-06-16T17:11:49Z</time>
      </trkpt>
      <trkpt lat="49.3481" lon="-0.80543">
        <ele>46.1</ele>
        <time>2020-06-16T17:11:50Z</time>
      </trkpt>
      <trkpt lat="49.34811" lon="-0.80541">
        <ele>46.1</ele>
        <time>2020-06-16T17:11:51Z</time>
      </trkpt>
      <trkpt lat="49.34811" lon="-0.80541">
        <ele>46.1</ele>
        <time>2020-06-16T17:11:52Z</time>
      </trkpt>
      <trkpt lat="49.34811" lon="-0.8054">
        <ele>46.1</ele>
        <time>2020-06-16T17:11:53Z</time>
      </trkpt>
      <trkpt lat="49.3481" lon="-0.80539">
        <ele>46.1</ele>
        <time>2020-06-16T17:11:54Z</time>
      </trkpt>
      <trkpt lat="49.3481" lon="-0.80538">
        <ele>46.1</ele>
        <time>2020-06-16T17:11:55Z</time>
      </trkpt>
      <trkpt lat="49.3481" lon="-0.80537">
        <ele>46.1</ele>
        <time>2020-06-16T17:11:56Z</time>
      </trkpt>
      <trkpt lat="49.3481" lon="-0.80537">
        <ele>46.1</ele>
        <time>2020-06-16T17:11:57Z</time>
      </trkpt>
      <trkpt lat="49.3481" lon="-0.80537">
        <ele>46.1</ele>
        <time>2020-06-16T17:11:58Z</time>
      </trkpt>
      <trkpt lat="49.3481" lon="-0.80537">
        <ele>46.1</ele>
        <time>2020-06-16T17:11:59Z</time>
      </trkpt>
      <trkpt lat="49.3481" lon="-0.80537">
        <ele>46.1</ele>
        <time>2020-06-16T17:12:00Z</time>
      </trkpt>
      <trkpt lat="49.3481" lon="-0.80537">
        <ele>46.1</ele>
        <time>2020-06-16T17:12:01Z</time>
      </trkpt>
      <trkpt lat="49.3481" lon="-0.80537">
        <ele>46.1</ele>
        <time>2020-06-16T17:12:02Z</time>
      </trkpt>
      <trkpt lat="49.3481" lon="-0.80537">
        <ele>46.1</ele>
        <time>2020-06-16T17:12:03Z</time>
      </trkpt>
      <trkpt lat="49.3481" lon="-0.80537">
        <ele>46.1</ele>
        <time>2020-06-16T17:12:04Z</time>
      </trkpt>
      <trkpt lat="49.3481" lon="-0.80537">
        <ele>46.1</ele>
        <time>2020-06-16T17:12:05Z</time>
      </trkpt>
      <trkpt lat="49.34811" lon="-0.80537">
        <ele>46.1</ele>
        <time>2020-06-16T17:12:06Z</time>
      </trkpt>
      <trkpt lat="49.34811" lon="-0.80537">
        <ele>46.1</ele>
        <time>2020-06-16T17:12:07Z</time>
      </trkpt>
      <trkpt lat="49.34818" lon="-0.80536">
        <ele>46.1</ele>
        <time>2020-06-16T17:14:30Z</time>
      </trkpt>
      <trkpt lat="49.34818" lon="-0.80536">
        <ele>46.1</ele>
        <time>2020-06-16T17:14:31Z</time>
      </trkpt>
      <trkpt lat="49.34817" lon="-0.80537">
        <ele>46.1</ele>
        <time>2020-06-16T17:14:32Z</time>
      </trkpt>
      <trkpt lat="49.34816" lon="-0.80541">
        <ele>46.1</ele>
        <time>2020-06-16T17:14:33Z</time>
      </trkpt>
      <trkpt lat="49.34815" lon="-0.80542">
        <ele>46.1</ele>
        <time>2020-06-16T17:14:34Z</time>
      </trkpt>
      <trkpt lat="49.34813" lon="-0.80545">
        <ele>46.1</ele>
        <time>2020-06-16T17:14:35Z</time>
      </trkpt>
      <trkpt lat="49.34811" lon="-0.80547">
        <ele>46.1</ele>
        <time>2020-06-16T17:14:36Z</time>
      </trkpt>
      <trkpt lat="49.3481" lon="-0.80549">
        <ele>46.1</ele>
        <time>2020-06-16T17:14:37Z</time>
      </trkpt>
      <trkpt lat="49.34808" lon="-0.8055">
        <ele>46.1</ele>
        <time>2020-06-16T17:14:38Z</time>
      </trkpt>
      <trkpt lat="49.34807" lon="-0.80551">
        <ele>46.1</ele>
        <time>2020-06-16T17:14:39Z</time>
      </trkpt>
      <trkpt lat="49.34807" lon="-0.80551">
        <ele>46.1</ele>
        <time>2020-06-16T17:14:40Z</time>
      </trkpt>
      <trkpt lat="49.34806" lon="-0.80551">
        <ele>46.1</ele>
        <time>2020-06-16T17:14:41Z</time>
      </trkpt>
      <trkpt lat="49.34806" lon="-0.80551">
        <ele>46.1</ele>
        <time>2020-06-16T17:14:42Z</time>
      </trkpt>
      <trkpt lat="49.34806" lon="-0.80549">
        <ele>46.1</ele>
        <time>2020-06-16T17:14:43Z</time>
      </trkpt>
      <trkpt lat="49.34805" lon="-0.80547">
        <ele>46.1</ele>
        <time>2020-06-16T17:14:44Z</time>
      </trkpt>
      <trkpt lat="49.34805" lon="-0.80546">
        <ele>46.1</ele>
        <time>2020-06-16T17:14:45Z</time>
      </trkpt>
      <trkpt lat="49.34804" lon="-0.80544">
        <ele>46.1</ele>
        <time>2020-06-16T17:14:46Z</time>
      </trkpt>
      <trkpt lat="49.34803" lon="-0.80542">
        <ele>46.1</ele>
        <time>2020-06-16T17:14:47Z</time>
      </trkpt>
      <trkpt lat="49.34802" lon="-0.8054">
        <ele>46.1</ele>
        <time>2020-06-16T17:14:48Z</time>
      </trkpt>
      <trkpt lat="49.34802" lon="-0.80538">
        <ele>46.1</ele>
        <time>2020-06-16T17:14:49Z</time>
      </trkpt>
      <trkpt lat="49.34802" lon="-0.80537">
        <ele>46.1</ele>
        <time>2020-06-16T17:14:50Z</time>
      </trkpt>
      <trkpt lat="49.34801" lon="-0.80536">
        <ele>46.1</ele>
        <time>2020-06-16T17:14:51Z</time>
      </trkpt>
      <trkpt lat="49.34801" lon="-0.80535">
        <ele>46.1</ele>
        <time>2020-06-16T17:14:52Z</time>
      </trkpt>
      <trkpt lat="49.348" lon="-0.80532">
        <ele>46.1</ele>
        <time>2020-06-16T17:14:53Z</time>
      </trkpt>
      <trkpt lat="49.34799" lon="-0.80531">
        <ele>46.1</ele>
        <time>2020-06-16T17:14:54Z</time>
      </trkpt>
      <trkpt lat="49.34799" lon="-0.80529">
        <ele>46.1</ele>
        <time>2020-06-16T17:14:55Z</time>
      </trkpt>
      <trkpt lat="49.34797" lon="-0.80527">
        <ele>46.1</ele>
        <time>2020-06-16T17:14:56Z</time>
      </trkpt>
      <trkpt lat="49.34796" lon="-0.80526">
        <ele>46.1</ele>
        <time>2020-06-16T17:14:57Z</time>
      </trkpt>
      <trkpt lat="49.34796" lon="-0.80525">
        <ele>46.1</ele>
        <time>2020-06-16T17:14:58Z</time>
      </trkpt>
      <trkpt lat="49.34795" lon="-0.80523">
        <ele>46.1</ele>
        <time>2020-06-16T17:14:59Z</time>
      </trkpt>
      <trkpt lat="49.34794" lon="-0.80522">
        <ele>46.1</ele>
        <time>2020-06-16T17:15:00Z</time>
      </trkpt>
      <trkpt lat="49.34793" lon="-0.8052">
        <ele>46.1</ele>
        <time>2020-06-16T17:15:01Z</time>
      </trkpt>
      <trkpt lat="49.34793" lon="-0.80519">
        <ele>46.1</ele>
        <time>2020-06-16T17:15:02Z</time>
      </trkpt>
      <trkpt lat="49.34793" lon="-0.80518">
        <ele>46.1</ele>
        <time>2020-06-16T17:15:03Z</time>
      </trkpt>
      <trkpt lat="49.34793" lon="-0.80517">
        <ele>46.1</ele>
        <time>2020-06-16T17:15:04Z</time>
      </trkpt>
      <trkpt lat="49.34792" lon="-0.80517">
        <ele>46.1</ele>
        <time>2020-06-16T17:15:05Z</time>
      </trkpt>
      <trkpt lat="49.34792" lon="-0.80517">
        <ele>46.1</ele>
        <time>2020-06-16T17:15:06Z</time>
      </trkpt>
      <trkpt lat="49.34792" lon="-0.80516">
        <ele>46.1</ele>
        <time>2020-06-16T17:15:07Z</time>
      </trkpt>
      <trkpt lat="49.34791" lon="-0.80515">
        <ele>46.1</ele>
        <time>2020-06-16T17:15:08Z</time>
      </trkpt>
      <trkpt lat="49.34791" lon="-0.80515">
        <ele>46.1</ele>
        <time>2020-06-16T17:15:09Z</time>
      </trkpt>
      <trkpt lat="49.34791" lon="-0.80515">
        <ele>46.1</ele>
        <time>2020-06-16T17:15:10Z</time>
      </trkpt>
      <trkpt lat="49.34791" lon="-0.80514">
        <ele>46.1</ele>
        <time>2020-06-16T17:15:11Z</time>
      </trkpt>
      <trkpt lat="49.3479" lon="-0.80515">
        <ele>46.1</ele>
        <time>2020-06-16T17:15:12Z</time>
      </trkpt>
      <trkpt lat="49.3479" lon="-0.80515">
        <ele>46.1</ele>
        <time>2020-06-16T17:15:13Z</time>
      </trkpt>
      <trkpt lat="49.3479" lon="-0.80514">
        <ele>46.1</ele>
        <time>2020-06-16T17:15:14Z</time>
      </trkpt>
      <trkpt lat="49.3479" lon="-0.80513">
        <ele>46.1</ele>
        <time>2020-06-16T17:15:15Z</time>
      </trkpt>
      <trkpt lat="49.3479" lon="-0.80513">
        <ele>46.1</ele>
        <time>2020-06-16T17:15:16Z</time>
      </trkpt>
      <trkpt lat="49.3479" lon="-0.80513">
        <ele>46.1</ele>
        <time>2020-06-16T17:15:17Z</time>
      </trkpt>
      <trkpt lat="49.34791" lon="-0.80513">
        <ele>46.1</ele>
        <time>2020-06-16T17:15:18Z</time>
      </trkpt>
      <trkpt lat="49.34791" lon="-0.80513">
        <ele>46.1</ele>
        <time>2020-06-16T17:15:19Z</time>
      </trkpt>
      <trkpt lat="49.34791" lon="-0.80513">
        <ele>46.1</ele>
        <time>2020-06-16T17:15:20Z</time>
      </trkpt>
      <trkpt lat="49.34791" lon="-0.80513">
        <ele>46.1</ele>
        <time>2020-06-16T17:15:21Z</time>
      </trkpt>
      <trkpt lat="49.34791" lon="-0.80512">
        <ele>46.1</ele>
        <time>2020-06-16T17:15:22Z</time>
      </trkpt>
      <trkpt lat="49.34791" lon="-0.80512">
        <ele>46.1</ele>
        <time>2020-06-16T17:15:23Z</time>
      </trkpt>
      <trkpt lat="49.34791" lon="-0.80512">
        <ele>46.1</ele>
        <time>2020-06-16T17:15:24Z</time>
      </trkpt>
      <trkpt lat="49.34791" lon="-0.80514">
        <ele>46.1</ele>
        <time>2020-06-16T17:15:25Z</time>
      </trkpt>
      <trkpt lat="49.34791" lon="-0.80515">
        <ele>46.1</ele>
        <time>2020-06-16T17:15:26Z</time>
      </trkpt>
      <trkpt lat="49.34791" lon="-0.80516">
        <ele>46.1</ele>
        <time>2020-06-16T17:15:27Z</time>
      </trkpt>
      <trkpt lat="49.34791" lon="-0.80517">
        <ele>46.1</ele>
        <time>2020-06-16T17:15:28Z</time>
      </trkpt>
      <trkpt lat="49.34791" lon="-0.80518">
        <ele>46.1</ele>
        <time>2020-06-16T17:15:29Z</time>
      </trkpt>
      <trkpt lat="49.34791" lon="-0.80518">
        <ele>46.1</ele>
        <time>2020-06-16T17:15:30Z</time>
      </trkpt>
      <trkpt lat="49.34791" lon="-0.80518">
        <ele>46.1</ele>
        <time>2020-06-16T17:15:31Z</time>
      </trkpt>
      <trkpt lat="49.3479" lon="-0.80518">
        <ele>46.1</ele>
        <time>2020-06-16T17:15:32Z</time>
      </trkpt>
      <trkpt lat="49.3479" lon="-0.80518">
        <ele>46.1</ele>
        <time>2020-06-16T17:15:33Z</time>
      </trkpt>
      <trkpt lat="49.3479" lon="-0.80518">
        <ele>46.1</ele>
        <time>2020-06-16T17:15:34Z</time>
      </trkpt>
      <trkpt lat="49.34789" lon="-0.80518">
        <ele>46.1</ele>
        <time>2020-06-16T17:15:35Z</time>
      </trkpt>
      <trkpt lat="49.34789" lon="-0.80518">
        <ele>46.1</ele>
        <time>2020-06-16T17:15:36Z</time>
      </trkpt>
      <trkpt lat="49.34788" lon="-0.80518">
        <ele>46.1</ele>
        <time>2020-06-16T17:15:37Z</time>
      </trkpt>
      <trkpt lat="49.34788" lon="-0.80519">
        <ele>46.1</ele>
        <time>2020-06-16T17:15:38Z</time>
      </trkpt>
      <trkpt lat="49.34788" lon="-0.80519">
        <ele>46.1</ele>
        <time>2020-06-16T17:15:39Z</time>
      </trkpt>
      <trkpt lat="49.34788" lon="-0.80519">
        <ele>46.1</ele>
        <time>2020-06-16T17:15:40Z</time>
      </trkpt>
    </trkseg>
  </trk>
  <trk>
    <name><![CDATA[T11]]></name>
    <trkseg>
      <trkpt lat="48.67176" lon="-4.33">
        <ele>4.3</ele>
        <time>2020-06-10T06:55:48Z</time>
      </trkpt>
      <trkpt lat="48.67176" lon="-4.33">
        <ele>4.3</ele>
        <time>2020-06-10T06:55:49Z</time>
      </trkpt>
      <trkpt lat="48.67176" lon="-4.33">
        <ele>4.3</ele>
        <time>2020-06-10T06:55:50Z</time>
      </trkpt>
      <trkpt lat="48.67176" lon="-4.32999">
        <ele>4.3</ele>
        <time>2020-06-10T06:55:51Z</time>
      </trkpt>
      <trkpt lat="48.67176" lon="-4.32998">
        <ele>4.2</ele>
        <time>2020-06-10T06:55:52Z</time>
      </trkpt>
      <trkpt lat="48.67175" lon="-4.32998">
        <ele>4.2</ele>
        <time>2020-06-10T06:55:53Z</time>
      </trkpt>
      <trkpt lat="48.67175" lon="-4.32997">
        <ele>4.2</ele>
        <time>2020-06-10T06:55:55Z</time>
      </trkpt>
      <trkpt lat="48.67175" lon="-4.32997">
        <ele>4.2</ele>
        <time>2020-06-10T06:55:56Z</time>
      </trkpt>
      <trkpt lat="48.67175" lon="-4.32996">
        <ele>4.2</ele>
        <time>2020-06-10T06:55:57Z</time>
      </trkpt>
      <trkpt lat="48.67174" lon="-4.32996">
        <ele>4.2</ele>
        <time>2020-06-10T06:55:58Z</time>
      </trkpt>
      <trkpt lat="48.67174" lon="-4.32996">
        <ele>4.2</ele>
        <time>2020-06-10T06:55:59Z</time>
      </trkpt>
      <trkpt lat="48.67173" lon="-4.32995">
        <ele>4.2</ele>
        <time>2020-06-10T06:56:00Z</time>
      </trkpt>
      <trkpt lat="48.67173" lon="-4.32996">
        <ele>4.2</ele>
        <time>2020-06-10T06:56:01Z</time>
      </trkpt>
      <trkpt lat="48.67173" lon="-4.32995">
        <ele>4.2</ele>
        <time>2020-06-10T06:56:02Z</time>
      </trkpt>
      <trkpt lat="48.67173" lon="-4.32996">
        <ele>4.2</ele>
        <time>2020-06-10T06:56:03Z</time>
      </trkpt>
      <trkpt lat="48.67173" lon="-4.32996">
        <ele>4.2</ele>
        <time>2020-06-10T06:56:04Z</time>
      </trkpt>
      <trkpt lat="48.67173" lon="-4.32997">
        <ele>4.2</ele>
        <time>2020-06-10T06:56:05Z</time>
      </trkpt>
      <trkpt lat="48.67173" lon="-4.32997">
        <ele>4.2</ele>
        <time>2020-06-10T06:56:06Z</time>
      </trkpt>
      <trkpt lat="48.67174" lon="-4.32997">
        <ele>4.2</ele>
        <time>2020-06-10T06:56:07Z</time>
      </trkpt>
      <trkpt lat="48.67184" lon="-4.32988">
        <ele>4.3</ele>
        <time>2020-06-10T06:59:09Z</time>
      </trkpt>
      <trkpt lat="48.67185" lon="-4.32987">
        <ele>4.3</ele>
        <time>2020-06-10T06:59:10Z</time>
      </trkpt>
      <trkpt lat="48.67186" lon="-4.32987">
        <ele>4.3</ele>
        <time>2020-06-10T06:59:11Z</time>
      </trkpt>
      <trkpt lat="48.67185" lon="-4.32987">
        <ele>4.3</ele>
        <time>2020-06-10T06:59:12Z</time>
      </trkpt>
      <trkpt lat="48.67185" lon="-4.32987">
        <ele>4.3</ele>
        <time>2020-06-10T06:59:13Z</time>
      </trkpt>
      <trkpt lat="48.67184" lon="-4.32989">
        <ele>4.3</ele>
        <time>2020-06-10T06:59:14Z</time>
      </trkpt>
      <trkpt lat="48.67184" lon="-4.32989">
        <ele>4.3</ele>
        <time>2020-06-10T06:59:15Z</time>
      </trkpt>
      <trkpt lat="48.67184" lon="-4.32989">
        <ele>4.3</ele>
        <time>2020-06-10T06:59:16Z</time>
      </trkpt>
      <trkpt lat="48.67183" lon="-4.32989">
        <ele>4.2</ele>
        <time>2020-06-10T06:59:17Z</time>
      </trkpt>
      <trkpt lat="48.67183" lon="-4.32989">
        <ele>4.2</ele>
        <time>2020-06-10T06:59:18Z</time>
      </trkpt>
      <trkpt lat="48.67183" lon="-4.32989">
        <ele>4.2</ele>
        <time>2020-06-10T06:59:19Z</time>
      </trkpt>
      <trkpt lat="48.67183" lon="-4.32989">
        <ele>4.2</ele>
        <time>2020-06-10T06:59:20Z</time>
      </trkpt>
      <trkpt lat="48.67183" lon="-4.32989">
        <ele>4.2</ele>
        <time>2020-06-10T06:59:21Z</time>
      </trkpt>
      <trkpt lat="48.67177" lon="-4.33004">
        <ele>4.4</ele>
        <time>2020-06-10T06:59:43Z</time>
      </trkpt>
      <trkpt lat="48.67177" lon="-4.33006">
        <ele>4.4</ele>
        <time>2020-06-10T06:59:44Z</time>
      </trkpt>
      <trkpt lat="48.67177" lon="-4.33006">
        <ele>4.4</ele>
        <time>2020-06-10T06:59:45Z</time>
      </trkpt>
      <trkpt lat="48.67178" lon="-4.33007">
        <ele>4.4</ele>
        <time>2020-06-10T06:59:46Z</time>
      </trkpt>
      <trkpt lat="48.6718" lon="-4.33007">
        <ele>4.4</ele>
        <time>2020-06-10T06:59:47Z</time>
      </trkpt>
      <trkpt lat="48.67181" lon="-4.33007">
        <ele>4.5</ele>
        <time>2020-06-10T06:59:48Z</time>
      </trkpt>
      <trkpt lat="48.67183" lon="-4.33007">
        <ele>4.5</ele>
        <time>2020-06-10T06:59:49Z</time>
      </trkpt>
      <trkpt lat="48.67184" lon="-4.33007">
        <ele>4.5</ele>
        <time>2020-06-10T06:59:50Z</time>
      </trkpt>
      <trkpt lat="48.67185" lon="-4.33006">
        <ele>4.5</ele>
        <time>2020-06-10T06:59:51Z</time>
      </trkpt>
      <trkpt lat="48.67186" lon="-4.33005">
        <ele>4.5</ele>
        <time>2020-06-10T06:59:52Z</time>
      </trkpt>
      <trkpt lat="48.67188" lon="-4.33005">
        <ele>4.6</ele>
        <time>2020-06-10T06:59:53Z</time>
      </trkpt>
      <trkpt lat="48.67189" lon="-4.33004">
        <ele>4.6</ele>
        <time>2020-06-10T06:59:54Z</time>
      </trkpt>
      <trkpt lat="48.67191" lon="-4.33002">
        <ele>4.6</ele>
        <time>2020-06-10T06:59:55Z</time>
      </trkpt>
      <trkpt lat="48.67193" lon="-4.32999">
        <ele>4.6</ele>
        <time>2020-06-10T06:59:56Z</time>
      </trkpt>
      <trkpt lat="48.67194" lon="-4.32998">
        <ele>4.6</ele>
        <time>2020-06-10T06:59:57Z</time>
      </trkpt>
      <trkpt lat="48.67197" lon="-4.32995">
        <ele>4.6</ele>
        <time>2020-06-10T06:59:58Z</time>
      </trkpt>
      <trkpt lat="48.67198" lon="-4.32994">
        <ele>4.6</ele>
        <time>2020-06-10T06:59:59Z</time>
      </trkpt>
      <trkpt lat="48.67202" lon="-4.3299">
        <ele>4.6</ele>
        <time>2020-06-10T07:00:00Z</time>
      </trkpt>
      <trkpt lat="48.67203" lon="-4.32987">
        <ele>4.6</ele>
        <time>2020-06-10T07:00:01Z</time>
      </trkpt>
      <trkpt lat="48.67205" lon="-4.32982">
        <ele>4.6</ele>
        <time>2020-06-10T07:00:02Z</time>
      </trkpt>
      <trkpt lat="48.67206" lon="-4.32977">
        <ele>4.5</ele>
        <time>2020-06-10T07:00:03Z</time>
      </trkpt>
      <trkpt lat="48.67207" lon="-4.32971">
        <ele>4.5</ele>
        <time>2020-06-10T07:00:04Z</time>
      </trkpt>
      <trkpt lat="48.67207" lon="-4.32967">
        <ele>4.4</ele>
        <time>2020-06-10T07:00:05Z</time>
      </trkpt>
      <trkpt lat="48.67207" lon="-4.32962">
        <ele>4.4</ele>
        <time>2020-06-10T07:00:06Z</time>
      </trkpt>
      <trkpt lat="48.67207" lon="-4.32957">
        <ele>4.3</ele>
        <time>2020-06-10T07:00:07Z</time>
      </trkpt>
      <trkpt lat="48.67207" lon="-4.32953">
        <ele>4.3</ele>
        <time>2020-06-10T07:00:08Z</time>
      </trkpt>
      <trkpt lat="48.67208" lon="-4.32949">
        <ele>4.2</ele>
        <time>2020-06-10T07:00:09Z</time>
      </trkpt>
      <trkpt lat="48.67208" lon="-4.32944">
        <ele>4.2</ele>
        <time>2020-06-10T07:00:10Z</time>
      </trkpt>
      <trkpt lat="48.67208" lon="-4.32938">
        <ele>4.1</ele>
        <time>2020-06-10T07:00:11Z</time>
      </trkpt>
      <trkpt lat="48.67209" lon="-4.32931">
        <ele>4</ele>
        <time>2020-06-10T07:00:12Z</time>
      </trkpt>
      <trkpt lat="48.6721" lon="-4.32926">
        <ele>4</ele>
        <time>2020-06-10T07:00:13Z</time>
      </trkpt>
      <trkpt lat="48.67214" lon="-4.32925">
        <ele>3.9</ele>
        <time>2020-06-10T07:00:14Z</time>
      </trkpt>
      <trkpt lat="48.67216" lon="-4.32925">
        <ele>3.9</ele>
        <time>2020-06-10T07:00:15Z</time>
      </trkpt>
      <trkpt lat="48.6722" lon="-4.32924">
        <ele>3.9</ele>
        <time>2020-06-10T07:00:16Z</time>
      </trkpt>
      <trkpt lat="48.67221" lon="-4.32923">
        <ele>3.9</ele>
        <time>2020-06-10T07:00:17Z</time>
      </trkpt>
      <trkpt lat="48.67223" lon="-4.32922">
        <ele>4</ele>
        <time>2020-06-10T07:00:18Z</time>
      </trkpt>
      <trkpt lat="48.67226" lon="-4.32922">
        <ele>4</ele>
        <time>2020-06-10T07:00:19Z</time>
      </trkpt>
      <trkpt lat="48.67227" lon="-4.32922">
        <ele>4</ele>
        <time>2020-06-10T07:00:20Z</time>
      </trkpt>
      <trkpt lat="48.67229" lon="-4.32921">
        <ele>3.9</ele>
        <time>2020-06-10T07:00:21Z</time>
      </trkpt>
      <trkpt lat="48.67231" lon="-4.32921">
        <ele>3.9</ele>
        <time>2020-06-10T07:00:22Z</time>
      </trkpt>
      <trkpt lat="48.67233" lon="-4.3292">
        <ele>3.9</ele>
        <time>2020-06-10T07:00:23Z</time>
      </trkpt>
      <trkpt lat="48.67234" lon="-4.3292">
        <ele>3.9</ele>
        <time>2020-06-10T07:00:24Z</time>
      </trkpt>
      <trkpt lat="48.67238" lon="-4.3292">
        <ele>3.9</ele>
        <time>2020-06-10T07:00:25Z</time>
      </trkpt>
      <trkpt lat="48.6724" lon="-4.3292">
        <ele>3.9</ele>
        <time>2020-06-10T07:00:26Z</time>
      </trkpt>
      <trkpt lat="48.67243" lon="-4.32919">
        <ele>3.9</ele>
        <time>2020-06-10T07:00:27Z</time>
      </trkpt>
      <trkpt lat="48.67246" lon="-4.32919">
        <ele>4</ele>
        <time>2020-06-10T07:00:28Z</time>
      </trkpt>
      <trkpt lat="48.6725" lon="-4.32918">
        <ele>4</ele>
        <time>2020-06-10T07:00:29Z</time>
      </trkpt>
      <trkpt lat="48.67254" lon="-4.32918">
        <ele>4</ele>
        <time>2020-06-10T07:00:30Z</time>
      </trkpt>
      <trkpt lat="48.67257" lon="-4.32917">
        <ele>4</ele>
        <time>2020-06-10T07:00:31Z</time>
      </trkpt>
      <trkpt lat="48.67261" lon="-4.32917">
        <ele>4</ele>
        <time>2020-06-10T07:00:32Z</time>
      </trkpt>
      <trkpt lat="48.67264" lon="-4.32916">
        <ele>4</ele>
        <time>2020-06-10T07:00:33Z</time>
      </trkpt>
      <trkpt lat="48.67267" lon="-4.32915">
        <ele>4</ele>
        <time>2020-06-10T07:00:34Z</time>
      </trkpt>
      <trkpt lat="48.67271" lon="-4.32917">
        <ele>4.1</ele>
        <time>2020-06-10T07:00:35Z</time>
      </trkpt>
      <trkpt lat="48.67272" lon="-4.32918">
        <ele>4.1</ele>
        <time>2020-06-10T07:00:36Z</time>
      </trkpt>
      <trkpt lat="48.67275" lon="-4.32919">
        <ele>4.2</ele>
        <time>2020-06-10T07:00:37Z</time>
      </trkpt>
      <trkpt lat="48.67276" lon="-4.32919">
        <ele>4.2</ele>
        <time>2020-06-10T07:00:38Z</time>
      </trkpt>
      <trkpt lat="48.67277" lon="-4.32919">
        <ele>4.2</ele>
        <time>2020-06-10T07:00:39Z</time>
      </trkpt>
      <trkpt lat="48.67278" lon="-4.32919">
        <ele>4.2</ele>
        <time>2020-06-10T07:00:40Z</time>
      </trkpt>
      <trkpt lat="48.67277" lon="-4.3292">
        <ele>4.2</ele>
        <time>2020-06-10T07:00:41Z</time>
      </trkpt>
      <trkpt lat="48.67277" lon="-4.32919">
        <ele>4.2</ele>
        <time>2020-06-10T07:00:42Z</time>
      </trkpt>
      <trkpt lat="48.67278" lon="-4.3292">
        <ele>4.2</ele>
        <time>2020-06-10T07:00:43Z</time>
      </trkpt>
      <trkpt lat="48.67278" lon="-4.3292">
        <ele>4.2</ele>
        <time>2020-06-10T07:00:44Z</time>
      </trkpt>
      <trkpt lat="48.67278" lon="-4.3292">
        <ele>4.2</ele>
        <time>2020-06-10T07:00:45Z</time>
      </trkpt>
      <trkpt lat="48.67278" lon="-4.32921">
        <ele>4.2</ele>
        <time>2020-06-10T07:00:46Z</time>
      </trkpt>
      <trkpt lat="48.67278" lon="-4.32922">
        <ele>4.2</ele>
        <time>2020-06-10T07:00:47Z</time>
      </trkpt>
      <trkpt lat="48.6728" lon="-4.32923">
        <ele>4.3</ele>
        <time>2020-06-10T07:00:48Z</time>
      </trkpt>
      <trkpt lat="48.67282" lon="-4.32924">
        <ele>4.3</ele>
        <time>2020-06-10T07:00:49Z</time>
      </trkpt>
      <trkpt lat="48.67284" lon="-4.32925">
        <ele>4.3</ele>
        <time>2020-06-10T07:00:50Z</time>
      </trkpt>
      <trkpt lat="48.67286" lon="-4.32926">
        <ele>4.3</ele>
        <time>2020-06-10T07:02:20Z</time>
      </trkpt>
      <trkpt lat="48.67288" lon="-4.32926">
        <ele>4.3</ele>
        <time>2020-06-10T07:02:21Z</time>
      </trkpt>
      <trkpt lat="48.67288" lon="-4.32931">
        <ele>4.3</ele>
        <time>2020-06-10T07:02:22Z</time>
      </trkpt>
      <trkpt lat="48.67288" lon="-4.32936">
        <ele>4.3</ele>
        <time>2020-06-10T07:02:23Z</time>
      </trkpt>
      <trkpt lat="48.67288" lon="-4.32941">
        <ele>4.3</ele>
        <time>2020-06-10T07:02:24Z</time>
      </trkpt>
      <trkpt lat="48.67288" lon="-4.32947">
        <ele>4.3</ele>
        <time>2020-06-10T07:02:25Z</time>
      </trkpt>
      <trkpt lat="48.67287" lon="-4.32952">
        <ele>4.3</ele>
        <time>2020-06-10T07:02:26Z</time>
      </trkpt>
      <trkpt lat="48.67287" lon="-4.32957">
        <ele>4.3</ele>
        <time>2020-06-10T07:02:27Z</time>
      </trkpt>
      <trkpt lat="48.67286" lon="-4.32962">
        <ele>4.3</ele>
        <time>2020-06-10T07:02:28Z</time>
      </trkpt>
      <trkpt lat="48.67286" lon="-4.32967">
        <ele>4.3</ele>
        <time>2020-06-10T07:02:29Z</time>
      </trkpt>
      <trkpt lat="48.67285" lon="-4.32972">
        <ele>4.3</ele>
        <time>2020-06-10T07:02:30Z</time>
      </trkpt>
      <trkpt lat="48.67285" lon="-4.32977">
        <ele>4.3</ele>
        <time>2020-06-10T07:02:31Z</time>
      </trkpt>
      <trkpt lat="48.67285" lon="-4.32981">
        <ele>4.3</ele>
        <time>2020-06-10T07:02:32Z</time>
      </trkpt>
      <trkpt lat="48.67285" lon="-4.32986">
        <ele>4.3</ele>
        <time>2020-06-10T07:02:33Z</time>
      </trkpt>
      <trkpt lat="48.67285" lon="-4.32991">
        <ele>4.3</ele>
        <time>2020-06-10T07:02:34Z</time>
      </trkpt>
      <trkpt lat="48.67285" lon="-4.32995">
        <ele>4.3</ele>
        <time>2020-06-10T07:02:35Z</time>
      </trkpt>
      <trkpt lat="48.67284" lon="-4.33">
        <ele>4.3</ele>
        <time>2020-06-10T07:02:36Z</time>
      </trkpt>
      <trkpt lat="48.67284" lon="-4.33005">
        <ele>4.3</ele>
        <time>2020-06-10T07:02:37Z</time>
      </trkpt>
      <trkpt lat="48.67284" lon="-4.33011">
        <ele>4.3</ele>
        <time>2020-06-10T07:02:38Z</time>
      </trkpt>
      <trkpt lat="48.67284" lon="-4.33016">
        <ele>4.3</ele>
        <time>2020-06-10T07:02:39Z</time>
      </trkpt>
      <trkpt lat="48.67284" lon="-4.33022">
        <ele>4.3</ele>
        <time>2020-06-10T07:02:40Z</time>
      </trkpt>
      <trkpt lat="48.67284" lon="-4.33027">
        <ele>4.3</ele>
        <time>2020-06-10T07:02:41Z</time>
      </trkpt>
      <trkpt lat="48.67284" lon="-4.33033">
        <ele>4.2</ele>
        <time>2020-06-10T07:02:42Z</time>
      </trkpt>
      <trkpt lat="48.67285" lon="-4.33039">
        <ele>4.2</ele>
        <time>2020-06-10T07:02:43Z</time>
      </trkpt>
      <trkpt lat="48.67286" lon="-4.33045">
        <ele>4.2</ele>
        <time>2020-06-10T07:02:44Z</time>
      </trkpt>
      <trkpt lat="48.67287" lon="-4.33051">
        <ele>4.2</ele>
        <time>2020-06-10T07:02:45Z</time>
      </trkpt>
      <trkpt lat="48.67287" lon="-4.33057">
        <ele>4.2</ele>
        <time>2020-06-10T07:02:46Z</time>
      </trkpt>
      <trkpt lat="48.67287" lon="-4.33064">
        <ele>4.3</ele>
        <time>2020-06-10T07:02:47Z</time>
      </trkpt>
      <trkpt lat="48.67289" lon="-4.3307">
        <ele>4.3</ele>
        <time>2020-06-10T07:02:48Z</time>
      </trkpt>
      <trkpt lat="48.6729" lon="-4.33076">
        <ele>4.4</ele>
        <time>2020-06-10T07:02:49Z</time>
      </trkpt>
      <trkpt lat="48.6729" lon="-4.33083">
        <ele>4.5</ele>
        <time>2020-06-10T07:02:50Z</time>
      </trkpt>
      <trkpt lat="48.67291" lon="-4.33089">
        <ele>4.5</ele>
        <time>2020-06-10T07:02:51Z</time>
      </trkpt>
      <trkpt lat="48.67292" lon="-4.33095">
        <ele>4.6</ele>
        <time>2020-06-10T07:02:52Z</time>
      </trkpt>
      <trkpt lat="48.67293" lon="-4.331">
        <ele>4.6</ele>
        <time>2020-06-10T07:02:53Z</time>
      </trkpt>
      <trkpt lat="48.67293" lon="-4.33105">
        <ele>4.7</ele>
        <time>2020-06-10T07:02:54Z</time>
      </trkpt>
      <trkpt lat="48.67294" lon="-4.33111">
        <ele>4.7</ele>
        <time>2020-06-10T07:02:55Z</time>
      </trkpt>
      <trkpt lat="48.67295" lon="-4.33116">
        <ele>4.8</ele>
        <time>2020-06-10T07:02:56Z</time>
      </trkpt>
      <trkpt lat="48.67295" lon="-4.33122">
        <ele>4.8</ele>
        <time>2020-06-10T07:02:57Z</time>
      </trkpt>
      <trkpt lat="48.67296" lon="-4.33127">
        <ele>4.9</ele>
        <time>2020-06-10T07:02:58Z</time>
      </trkpt>
      <trkpt lat="48.67298" lon="-4.33133">
        <ele>4.9</ele>
        <time>2020-06-10T07:02:59Z</time>
      </trkpt>
      <trkpt lat="48.67299" lon="-4.33138">
        <ele>5</ele>
        <time>2020-06-10T07:03:00Z</time>
      </trkpt>
      <trkpt lat="48.67301" lon="-4.33144">
        <ele>5.1</ele>
        <time>2020-06-10T07:03:01Z</time>
      </trkpt>
      <trkpt lat="48.67302" lon="-4.33149">
        <ele>5.1</ele>
        <time>2020-06-10T07:03:02Z</time>
      </trkpt>
      <trkpt lat="48.67302" lon="-4.33154">
        <ele>5.2</ele>
        <time>2020-06-10T07:03:03Z</time>
      </trkpt>
      <trkpt lat="48.67304" lon="-4.3316">
        <ele>5.3</ele>
        <time>2020-06-10T07:03:04Z</time>
      </trkpt>
      <trkpt lat="48.67304" lon="-4.33165">
        <ele>5.4</ele>
        <time>2020-06-10T07:03:05Z</time>
      </trkpt>
      <trkpt lat="48.67306" lon="-4.3317">
        <ele>5.5</ele>
        <time>2020-06-10T07:03:06Z</time>
      </trkpt>
      <trkpt lat="48.67307" lon="-4.33176">
        <ele>5.6</ele>
        <time>2020-06-10T07:03:07Z</time>
      </trkpt>
      <trkpt lat="48.67308" lon="-4.33182">
        <ele>5.7</ele>
        <time>2020-06-10T07:03:08Z</time>
      </trkpt>
      <trkpt lat="48.67309" lon="-4.33187">
        <ele>5.8</ele>
        <time>2020-06-10T07:03:09Z</time>
      </trkpt>
      <trkpt lat="48.6731" lon="-4.33192">
        <ele>5.9</ele>
        <time>2020-06-10T07:03:10Z</time>
      </trkpt>
      <trkpt lat="48.67312" lon="-4.33197">
        <ele>6</ele>
        <time>2020-06-10T07:03:11Z</time>
      </trkpt>
      <trkpt lat="48.67313" lon="-4.33202">
        <ele>6.1</ele>
        <time>2020-06-10T07:03:12Z</time>
      </trkpt>
      <trkpt lat="48.67314" lon="-4.33208">
        <ele>6.2</ele>
        <time>2020-06-10T07:03:13Z</time>
      </trkpt>
      <trkpt lat="48.67315" lon="-4.33214">
        <ele>6.3</ele>
        <time>2020-06-10T07:03:14Z</time>
      </trkpt>
      <trkpt lat="48.67317" lon="-4.33219">
        <ele>6.4</ele>
        <time>2020-06-10T07:03:15Z</time>
      </trkpt>
      <trkpt lat="48.67319" lon="-4.33223">
        <ele>6.5</ele>
        <time>2020-06-10T07:03:16Z</time>
      </trkpt>
      <trkpt lat="48.6732" lon="-4.33228">
        <ele>6.6</ele>
        <time>2020-06-10T07:03:17Z</time>
      </trkpt>
      <trkpt lat="48.67322" lon="-4.33233">
        <ele>6.7</ele>
        <time>2020-06-10T07:03:18Z</time>
      </trkpt>
      <trkpt lat="48.67324" lon="-4.33238">
        <ele>6.8</ele>
        <time>2020-06-10T07:03:19Z</time>
      </trkpt>
      <trkpt lat="48.67326" lon="-4.33242">
        <ele>6.9</ele>
        <time>2020-06-10T07:03:20Z</time>
      </trkpt>
      <trkpt lat="48.67327" lon="-4.33247">
        <ele>7</ele>
        <time>2020-06-10T07:03:21Z</time>
      </trkpt>
      <trkpt lat="48.67329" lon="-4.33252">
        <ele>7.1</ele>
        <time>2020-06-10T07:03:22Z</time>
      </trkpt>
      <trkpt lat="48.6733" lon="-4.33257">
        <ele>7.2</ele>
        <time>2020-06-10T07:03:23Z</time>
      </trkpt>
      <trkpt lat="48.67332" lon="-4.33261">
        <ele>7.3</ele>
        <time>2020-06-10T07:03:24Z</time>
      </trkpt>
      <trkpt lat="48.67333" lon="-4.33265">
        <ele>7.3</ele>
        <time>2020-06-10T07:03:25Z</time>
      </trkpt>
      <trkpt lat="48.67334" lon="-4.3327">
        <ele>7.4</ele>
        <time>2020-06-10T07:03:26Z</time>
      </trkpt>
      <trkpt lat="48.67336" lon="-4.33276">
        <ele>7.4</ele>
        <time>2020-06-10T07:03:27Z</time>
      </trkpt>
      <trkpt lat="48.67337" lon="-4.33281">
        <ele>7.4</ele>
        <time>2020-06-10T07:03:28Z</time>
      </trkpt>
      <trkpt lat="48.67337" lon="-4.33286">
        <ele>7.5</ele>
        <time>2020-06-10T07:03:29Z</time>
      </trkpt>
      <trkpt lat="48.67338" lon="-4.33292">
        <ele>7.5</ele>
        <time>2020-06-10T07:03:30Z</time>
      </trkpt>
      <trkpt lat="48.67338" lon="-4.33297">
        <ele>7.5</ele>
        <time>2020-06-10T07:03:31Z</time>
      </trkpt>
      <trkpt lat="48.67338" lon="-4.33303">
        <ele>7.5</ele>
        <time>2020-06-10T07:03:32Z</time>
      </trkpt>
      <trkpt lat="48.67337" lon="-4.33308">
        <ele>7.5</ele>
        <time>2020-06-10T07:03:33Z</time>
      </trkpt>
      <trkpt lat="48.67337" lon="-4.33314">
        <ele>7.4</ele>
        <time>2020-06-10T07:03:34Z</time>
      </trkpt>
      <trkpt lat="48.67336" lon="-4.33319">
        <ele>7.4</ele>
        <time>2020-06-10T07:03:35Z</time>
      </trkpt>
      <trkpt lat="48.67335" lon="-4.3332">
        <ele>7.3</ele>
        <time>2020-06-10T07:03:36Z</time>
      </trkpt>
      <trkpt lat="48.67335" lon="-4.33326">
        <ele>7.3</ele>
        <time>2020-06-10T07:03:37Z</time>
      </trkpt>
      <trkpt lat="48.67334" lon="-4.3333">
        <ele>7.2</ele>
        <time>2020-06-10T07:03:38Z</time>
      </trkpt>
      <trkpt lat="48.67333" lon="-4.33333">
        <ele>7.1</ele>
        <time>2020-06-10T07:03:39Z</time>
      </trkpt>
      <trkpt lat="48.67333" lon="-4.33337">
        <ele>7.1</ele>
        <time>2020-06-10T07:03:40Z</time>
      </trkpt>
      <trkpt lat="48.67332" lon="-4.33342">
        <ele>7</ele>
        <time>2020-06-10T07:03:41Z</time>
      </trkpt>
      <trkpt lat="48.67332" lon="-4.33348">
        <ele>6.9</ele>
        <time>2020-06-10T07:03:42Z</time>
      </trkpt>
      <trkpt lat="48.67332" lon="-4.33355">
        <ele>6.8</ele>
        <time>2020-06-10T07:03:43Z</time>
      </trkpt>
      <trkpt lat="48.67332" lon="-4.33362">
        <ele>6.7</ele>
        <time>2020-06-10T07:03:44Z</time>
      </trkpt>
      <trkpt lat="48.67331" lon="-4.33369">
        <ele>6.6</ele>
        <time>2020-06-10T07:03:45Z</time>
      </trkpt>
      <trkpt lat="48.6733" lon="-4.33375">
        <ele>6.4</ele>
        <time>2020-06-10T07:03:46Z</time>
      </trkpt>
      <trkpt lat="48.67328" lon="-4.33378">
        <ele>6.4</ele>
        <time>2020-06-10T07:03:47Z</time>
      </trkpt>
      <trkpt lat="48.67323" lon="-4.33381">
        <ele>6.4</ele>
        <time>2020-06-10T07:03:48Z</time>
      </trkpt>
      <trkpt lat="48.67318" lon="-4.33382">
        <ele>6.5</ele>
        <time>2020-06-10T07:03:49Z</time>
      </trkpt>
      <trkpt lat="48.67314" lon="-4.33384">
        <ele>6.5</ele>
        <time>2020-06-10T07:03:50Z</time>
      </trkpt>
      <trkpt lat="48.6731" lon="-4.33385">
        <ele>6.5</ele>
        <time>2020-06-10T07:03:51Z</time>
      </trkpt>
      <trkpt lat="48.67306" lon="-4.33386">
        <ele>6.5</ele>
        <time>2020-06-10T07:03:52Z</time>
      </trkpt>
      <trkpt lat="48.67303" lon="-4.33387">
        <ele>6.6</ele>
        <time>2020-06-10T07:03:53Z</time>
      </trkpt>
      <trkpt lat="48.67299" lon="-4.33387">
        <ele>6.6</ele>
        <time>2020-06-10T07:03:54Z</time>
      </trkpt>
      <trkpt lat="48.67294" lon="-4.33388">
        <ele>6.6</ele>
        <time>2020-06-10T07:03:55Z</time>
      </trkpt>
      <trkpt lat="48.67291" lon="-4.33389">
        <ele>6.7</ele>
        <time>2020-06-10T07:03:56Z</time>
      </trkpt>
      <trkpt lat="48.67287" lon="-4.33389">
        <ele>6.7</ele>
        <time>2020-06-10T07:03:57Z</time>
      </trkpt>
      <trkpt lat="48.67283" lon="-4.33391">
        <ele>6.7</ele>
        <time>2020-06-10T07:03:58Z</time>
      </trkpt>
      <trkpt lat="48.67278" lon="-4.33393">
        <ele>6.8</ele>
        <time>2020-06-10T07:03:59Z</time>
      </trkpt>
      <trkpt lat="48.67274" lon="-4.33395">
        <ele>6.8</ele>
        <time>2020-06-10T07:04:00Z</time>
      </trkpt>
      <trkpt lat="48.67269" lon="-4.33398">
        <ele>6.8</ele>
        <time>2020-06-10T07:04:01Z</time>
      </trkpt>
      <trkpt lat="48.67264" lon="-4.334">
        <ele>6.9</ele>
        <time>2020-06-10T07:04:02Z</time>
      </trkpt>
      <trkpt lat="48.6726" lon="-4.33403">
        <ele>7</ele>
        <time>2020-06-10T07:04:03Z</time>
      </trkpt>
      <trkpt lat="48.67257" lon="-4.33405">
        <ele>7.1</ele>
        <time>2020-06-10T07:04:04Z</time>
      </trkpt>
      <trkpt lat="48.67253" lon="-4.33407">
        <ele>7.1</ele>
        <time>2020-06-10T07:04:05Z</time>
      </trkpt>
      <trkpt lat="48.67249" lon="-4.33409">
        <ele>7.2</ele>
        <time>2020-06-10T07:04:06Z</time>
      </trkpt>
      <trkpt lat="48.67245" lon="-4.33411">
        <ele>7.3</ele>
        <time>2020-06-10T07:04:07Z</time>
      </trkpt>
      <trkpt lat="48.67242" lon="-4.33414">
        <ele>7.4</ele>
        <time>2020-06-10T07:04:08Z</time>
      </trkpt>
      <trkpt lat="48.67239" lon="-4.33416">
        <ele>7.5</ele>
        <time>2020-06-10T07:04:09Z</time>
      </trkpt>
      <trkpt lat="48.67235" lon="-4.33419">
        <ele>7.6</ele>
        <time>2020-06-10T07:04:10Z</time>
      </trkpt>
      <trkpt lat="48.67231" lon="-4.33422">
        <ele>7.7</ele>
        <time>2020-06-10T07:04:11Z</time>
      </trkpt>
      <trkpt lat="48.67227" lon="-4.33424">
        <ele>7.7</ele>
        <time>2020-06-10T07:04:12Z</time>
      </trkpt>
      <trkpt lat="48.67223" lon="-4.33427">
        <ele>7.8</ele>
        <time>2020-06-10T07:04:13Z</time>
      </trkpt>
      <trkpt lat="48.67219" lon="-4.33429">
        <ele>7.9</ele>
        <time>2020-06-10T07:04:14Z</time>
      </trkpt>
      <trkpt lat="48.67215" lon="-4.33432">
        <ele>8</ele>
        <time>2020-06-10T07:04:15Z</time>
      </trkpt>
      <trkpt lat="48.67212" lon="-4.33434">
        <ele>8.1</ele>
        <time>2020-06-10T07:04:16Z</time>
      </trkpt>
      <trkpt lat="48.67208" lon="-4.33437">
        <ele>8.2</ele>
        <time>2020-06-10T07:04:17Z</time>
      </trkpt>
      <trkpt lat="48.67203" lon="-4.3344">
        <ele>8.3</ele>
        <time>2020-06-10T07:04:18Z</time>
      </trkpt>
      <trkpt lat="48.67199" lon="-4.33443">
        <ele>8.4</ele>
        <time>2020-06-10T07:04:19Z</time>
      </trkpt>
      <trkpt lat="48.67195" lon="-4.33445">
        <ele>8.5</ele>
        <time>2020-06-10T07:04:20Z</time>
      </trkpt>
      <trkpt lat="48.67191" lon="-4.33448">
        <ele>8.6</ele>
        <time>2020-06-10T07:04:21Z</time>
      </trkpt>
      <trkpt lat="48.67187" lon="-4.33451">
        <ele>8.7</ele>
        <time>2020-06-10T07:04:22Z</time>
      </trkpt>
      <trkpt lat="48.67183" lon="-4.33454">
        <ele>8.8</ele>
        <time>2020-06-10T07:04:23Z</time>
      </trkpt>
      <trkpt lat="48.67179" lon="-4.33457">
        <ele>8.9</ele>
        <time>2020-06-10T07:04:24Z</time>
      </trkpt>
      <trkpt lat="48.67174" lon="-4.33459">
        <ele>9</ele>
        <time>2020-06-10T07:04:25Z</time>
      </trkpt>
      <trkpt lat="48.67169" lon="-4.33462">
        <ele>9.1</ele>
        <time>2020-06-10T07:04:26Z</time>
      </trkpt>
      <trkpt lat="48.67165" lon="-4.33465">
        <ele>9.2</ele>
        <time>2020-06-10T07:04:27Z</time>
      </trkpt>
      <trkpt lat="48.67161" lon="-4.33467">
        <ele>9.4</ele>
        <time>2020-06-10T07:04:28Z</time>
      </trkpt>
      <trkpt lat="48.67157" lon="-4.3347">
        <ele>9.5</ele>
        <time>2020-06-10T07:04:29Z</time>
      </trkpt>
      <trkpt lat="48.67153" lon="-4.33473">
        <ele>9.6</ele>
        <time>2020-06-10T07:04:30Z</time>
      </trkpt>
      <trkpt lat="48.6715" lon="-4.33475">
        <ele>9.7</ele>
        <time>2020-06-10T07:04:31Z</time>
      </trkpt>
      <trkpt lat="48.67146" lon="-4.33477">
        <ele>9.9</ele>
        <time>2020-06-10T07:04:32Z</time>
      </trkpt>
      <trkpt lat="48.67142" lon="-4.3348">
        <ele>10</ele>
        <time>2020-06-10T07:04:33Z</time>
      </trkpt>
      <trkpt lat="48.67138" lon="-4.33483">
        <ele>10.1</ele>
        <time>2020-06-10T07:04:34Z</time>
      </trkpt>
      <trkpt lat="48.67135" lon="-4.33485">
        <ele>10.2</ele>
        <time>2020-06-10T07:04:35Z</time>
      </trkpt>
      <trkpt lat="48.67132" lon="-4.33487">
        <ele>10.2</ele>
        <time>2020-06-10T07:04:36Z</time>
      </trkpt>
      <trkpt lat="48.67128" lon="-4.3349">
        <ele>10.3</ele>
        <time>2020-06-10T07:04:37Z</time>
      </trkpt>
      <trkpt lat="48.67124" lon="-4.33493">
        <ele>10.4</ele>
        <time>2020-06-10T07:04:38Z</time>
      </trkpt>
      <trkpt lat="48.6712" lon="-4.33495">
        <ele>10.5</ele>
        <time>2020-06-10T07:04:39Z</time>
      </trkpt>
      <trkpt lat="48.67115" lon="-4.33498">
        <ele>10.6</ele>
        <time>2020-06-10T07:04:40Z</time>
      </trkpt>
      <trkpt lat="48.67111" lon="-4.33501">
        <ele>10.7</ele>
        <time>2020-06-10T07:04:41Z</time>
      </trkpt>
      <trkpt lat="48.67107" lon="-4.33503">
        <ele>10.8</ele>
        <time>2020-06-10T07:04:42Z</time>
      </trkpt>
      <trkpt lat="48.67103" lon="-4.33505">
        <ele>10.9</ele>
        <time>2020-06-10T07:04:43Z</time>
      </trkpt>
      <trkpt lat="48.67099" lon="-4.33506">
        <ele>10.9</ele>
        <time>2020-06-10T07:04:44Z</time>
      </trkpt>
      <trkpt lat="48.67095" lon="-4.33507">
        <ele>11</ele>
        <time>2020-06-10T07:04:45Z</time>
      </trkpt>
      <trkpt lat="48.67091" lon="-4.33507">
        <ele>11.1</ele>
        <time>2020-06-10T07:04:46Z</time>
      </trkpt>
      <trkpt lat="48.67087" lon="-4.33507">
        <ele>11.2</ele>
        <time>2020-06-10T07:04:47Z</time>
      </trkpt>
      <trkpt lat="48.67083" lon="-4.33507">
        <ele>11.2</ele>
        <time>2020-06-10T07:04:48Z</time>
      </trkpt>
      <trkpt lat="48.67079" lon="-4.33507">
        <ele>11.3</ele>
        <time>2020-06-10T07:04:49Z</time>
      </trkpt>
      <trkpt lat="48.67077" lon="-4.33508">
        <ele>11.4</ele>
        <time>2020-06-10T07:04:50Z</time>
      </trkpt>
      <trkpt lat="48.67072" lon="-4.33508">
        <ele>11.6</ele>
        <time>2020-06-10T07:04:51Z</time>
      </trkpt>
      <trkpt lat="48.67068" lon="-4.33508">
        <ele>11.7</ele>
        <time>2020-06-10T07:04:52Z</time>
      </trkpt>
      <trkpt lat="48.67064" lon="-4.33508">
        <ele>11.8</ele>
        <time>2020-06-10T07:04:53Z</time>
      </trkpt>
      <trkpt lat="48.67059" lon="-4.33507">
        <ele>11.9</ele>
        <time>2020-06-10T07:04:54Z</time>
      </trkpt>
      <trkpt lat="48.67055" lon="-4.33507">
        <ele>12.1</ele>
        <time>2020-06-10T07:04:55Z</time>
      </trkpt>
      <trkpt lat="48.67051" lon="-4.33506">
        <ele>12.2</ele>
        <time>2020-06-10T07:04:56Z</time>
      </trkpt>
      <trkpt lat="48.67048" lon="-4.33506">
        <ele>12.2</ele>
        <time>2020-06-10T07:04:57Z</time>
      </trkpt>
      <trkpt lat="48.67044" lon="-4.33505">
        <ele>12.3</ele>
        <time>2020-06-10T07:04:58Z</time>
      </trkpt>
      <trkpt lat="48.67041" lon="-4.33504">
        <ele>12.3</ele>
        <time>2020-06-10T07:04:59Z</time>
      </trkpt>
      <trkpt lat="48.67041" lon="-4.33503">
        <ele>12.3</ele>
        <time>2020-06-10T07:05:00Z</time>
      </trkpt>
      <trkpt lat="48.6704" lon="-4.33503">
        <ele>12.3</ele>
        <time>2020-06-10T07:05:01Z</time>
      </trkpt>
      <trkpt lat="48.6704" lon="-4.33502">
        <ele>12.3</ele>
        <time>2020-06-10T07:05:02Z</time>
      </trkpt>
      <trkpt lat="48.6704" lon="-4.33502">
        <ele>12.3</ele>
        <time>2020-06-10T07:05:03Z</time>
      </trkpt>
      <trkpt lat="48.6704" lon="-4.33502">
        <ele>12.3</ele>
        <time>2020-06-10T07:05:04Z</time>
      </trkpt>
      <trkpt lat="48.6704" lon="-4.33502">
        <ele>12.3</ele>
        <time>2020-06-10T07:05:05Z</time>
      </trkpt>
      <trkpt lat="48.67041" lon="-4.33502">
        <ele>12.3</ele>
        <time>2020-06-10T07:05:06Z</time>
      </trkpt>
      <trkpt lat="48.67041" lon="-4.33502">
        <ele>12.3</ele>
        <time>2020-06-10T07:05:07Z</time>
      </trkpt>
      <trkpt lat="48.67041" lon="-4.33503">
        <ele>12.3</ele>
        <time>2020-06-10T07:05:08Z</time>
      </trkpt>
      <trkpt lat="48.67042" lon="-4.33503">
        <ele>12.3</ele>
        <time>2020-06-10T07:05:09Z</time>
      </trkpt>
      <trkpt lat="48.67041" lon="-4.33501">
        <ele>12.3</ele>
        <time>2020-06-10T07:05:10Z</time>
      </trkpt>
      <trkpt lat="48.6704" lon="-4.335">
        <ele>12.3</ele>
        <time>2020-06-10T07:05:11Z</time>
      </trkpt>
      <trkpt lat="48.67038" lon="-4.33497">
        <ele>12.4</ele>
        <time>2020-06-10T07:05:12Z</time>
      </trkpt>
      <trkpt lat="48.67035" lon="-4.33494">
        <ele>12.4</ele>
        <time>2020-06-10T07:05:13Z</time>
      </trkpt>
      <trkpt lat="48.67032" lon="-4.3349">
        <ele>12.4</ele>
        <time>2020-06-10T07:05:14Z</time>
      </trkpt>
      <trkpt lat="48.67029" lon="-4.33486">
        <ele>12.4</ele>
        <time>2020-06-10T07:05:15Z</time>
      </trkpt>
      <trkpt lat="48.67028" lon="-4.33485">
        <ele>12.4</ele>
        <time>2020-06-10T07:05:16Z</time>
      </trkpt>
      <trkpt lat="48.67026" lon="-4.33482">
        <ele>12.5</ele>
        <time>2020-06-10T07:05:17Z</time>
      </trkpt>
      <trkpt lat="48.67024" lon="-4.33478">
        <ele>12.5</ele>
        <time>2020-06-10T07:05:18Z</time>
      </trkpt>
      <trkpt lat="48.67021" lon="-4.33472">
        <ele>12.4</ele>
        <time>2020-06-10T07:05:19Z</time>
      </trkpt>
      <trkpt lat="48.67019" lon="-4.33465">
        <ele>12.3</ele>
        <time>2020-06-10T07:05:20Z</time>
      </trkpt>
      <trkpt lat="48.67017" lon="-4.33458">
        <ele>12.1</ele>
        <time>2020-06-10T07:05:21Z</time>
      </trkpt>
      <trkpt lat="48.67015" lon="-4.3345">
        <ele>12</ele>
        <time>2020-06-10T07:05:22Z</time>
      </trkpt>
      <trkpt lat="48.67013" lon="-4.33442">
        <ele>11.8</ele>
        <time>2020-06-10T07:05:23Z</time>
      </trkpt>
      <trkpt lat="48.67012" lon="-4.33435">
        <ele>11.7</ele>
        <time>2020-06-10T07:05:24Z</time>
      </trkpt>
      <trkpt lat="48.6701" lon="-4.33429">
        <ele>11.6</ele>
        <time>2020-06-10T07:05:25Z</time>
      </trkpt>
      <trkpt lat="48.67009" lon="-4.33422">
        <ele>11.3</ele>
        <time>2020-06-10T07:05:26Z</time>
      </trkpt>
      <trkpt lat="48.67008" lon="-4.33414">
        <ele>11.2</ele>
        <time>2020-06-10T07:05:27Z</time>
      </trkpt>
      <trkpt lat="48.67006" lon="-4.33406">
        <ele>11</ele>
        <time>2020-06-10T07:05:28Z</time>
      </trkpt>
      <trkpt lat="48.67004" lon="-4.33397">
        <ele>10.8</ele>
        <time>2020-06-10T07:05:29Z</time>
      </trkpt>
      <trkpt lat="48.67002" lon="-4.3339">
        <ele>10.6</ele>
        <time>2020-06-10T07:05:30Z</time>
      </trkpt>
      <trkpt lat="48.67" lon="-4.33381">
        <ele>10.4</ele>
        <time>2020-06-10T07:05:31Z</time>
      </trkpt>
      <trkpt lat="48.66996" lon="-4.33372">
        <ele>10.2</ele>
        <time>2020-06-10T07:05:32Z</time>
      </trkpt>
      <trkpt lat="48.66993" lon="-4.33365">
        <ele>10.2</ele>
        <time>2020-06-10T07:05:33Z</time>
      </trkpt>
      <trkpt lat="48.66989" lon="-4.33358">
        <ele>9.7</ele>
        <time>2020-06-10T07:05:34Z</time>
      </trkpt>
      <trkpt lat="48.66985" lon="-4.33352">
        <ele>9.4</ele>
        <time>2020-06-10T07:05:35Z</time>
      </trkpt>
      <trkpt lat="48.66982" lon="-4.33347">
        <ele>9.2</ele>
        <time>2020-06-10T07:05:36Z</time>
      </trkpt>
      <trkpt lat="48.66977" lon="-4.3334">
        <ele>8.9</ele>
        <time>2020-06-10T07:05:37Z</time>
      </trkpt>
      <trkpt lat="48.66973" lon="-4.33334">
        <ele>8.7</ele>
        <time>2020-06-10T07:05:38Z</time>
      </trkpt>
      <trkpt lat="48.66968" lon="-4.33327">
        <ele>8.4</ele>
        <time>2020-06-10T07:05:39Z</time>
      </trkpt>
      <trkpt lat="48.66962" lon="-4.33321">
        <ele>8</ele>
        <time>2020-06-10T07:05:40Z</time>
      </trkpt>
      <trkpt lat="48.66957" lon="-4.33314">
        <ele>7.8</ele>
        <time>2020-06-10T07:05:41Z</time>
      </trkpt>
      <trkpt lat="48.66953" lon="-4.33308">
        <ele>7.6</ele>
        <time>2020-06-10T07:05:42Z</time>
      </trkpt>
      <trkpt lat="48.66948" lon="-4.333">
        <ele>7.4</ele>
        <time>2020-06-10T07:05:43Z</time>
      </trkpt>
      <trkpt lat="48.66943" lon="-4.33293">
        <ele>7.1</ele>
        <time>2020-06-10T07:05:44Z</time>
      </trkpt>
      <trkpt lat="48.66938" lon="-4.33286">
        <ele>6.9</ele>
        <time>2020-06-10T07:05:45Z</time>
      </trkpt>
      <trkpt lat="48.66933" lon="-4.33277">
        <ele>6.7</ele>
        <time>2020-06-10T07:05:46Z</time>
      </trkpt>
      <trkpt lat="48.66929" lon="-4.33269">
        <ele>6.6</ele>
        <time>2020-06-10T07:05:47Z</time>
      </trkpt>
      <trkpt lat="48.66925" lon="-4.33261">
        <ele>6.4</ele>
        <time>2020-06-10T07:05:48Z</time>
      </trkpt>
      <trkpt lat="48.66921" lon="-4.33252">
        <ele>6.3</ele>
        <time>2020-06-10T07:05:49Z</time>
      </trkpt>
      <trkpt lat="48.66917" lon="-4.33245">
        <ele>6.1</ele>
        <time>2020-06-10T07:05:50Z</time>
      </trkpt>
      <trkpt lat="48.66913" lon="-4.33237">
        <ele>6</ele>
        <time>2020-06-10T07:05:51Z</time>
      </trkpt>
      <trkpt lat="48.6691" lon="-4.33229">
        <ele>5.9</ele>
        <time>2020-06-10T07:05:52Z</time>
      </trkpt>
      <trkpt lat="48.66906" lon="-4.3322">
        <ele>5.7</ele>
        <time>2020-06-10T07:05:53Z</time>
      </trkpt>
      <trkpt lat="48.66902" lon="-4.33212">
        <ele>5.6</ele>
        <time>2020-06-10T07:05:54Z</time>
      </trkpt>
      <trkpt lat="48.66898" lon="-4.33204">
        <ele>5.5</ele>
        <time>2020-06-10T07:05:55Z</time>
      </trkpt>
      <trkpt lat="48.66895" lon="-4.33195">
        <ele>5.4</ele>
        <time>2020-06-10T07:05:56Z</time>
      </trkpt>
      <trkpt lat="48.66892" lon="-4.33187">
        <ele>5.3</ele>
        <time>2020-06-10T07:05:57Z</time>
      </trkpt>
      <trkpt lat="48.66889" lon="-4.33178">
        <ele>5.3</ele>
        <time>2020-06-10T07:05:58Z</time>
      </trkpt>
      <trkpt lat="48.66888" lon="-4.33168">
        <ele>5.3</ele>
        <time>2020-06-10T07:05:59Z</time>
      </trkpt>
      <trkpt lat="48.66887" lon="-4.33159">
        <ele>5.2</ele>
        <time>2020-06-10T07:06:00Z</time>
      </trkpt>
      <trkpt lat="48.66887" lon="-4.33149">
        <ele>5.2</ele>
        <time>2020-06-10T07:06:01Z</time>
      </trkpt>
      <trkpt lat="48.66888" lon="-4.3314">
        <ele>5.1</ele>
        <time>2020-06-10T07:06:02Z</time>
      </trkpt>
      <trkpt lat="48.66889" lon="-4.33131">
        <ele>5.1</ele>
        <time>2020-06-10T07:06:03Z</time>
      </trkpt>
      <trkpt lat="48.66891" lon="-4.33122">
        <ele>5</ele>
        <time>2020-06-10T07:06:04Z</time>
      </trkpt>
      <trkpt lat="48.66893" lon="-4.33114">
        <ele>5</ele>
        <time>2020-06-10T07:06:05Z</time>
      </trkpt>
      <trkpt lat="48.66895" lon="-4.33106">
        <ele>5</ele>
        <time>2020-06-10T07:06:06Z</time>
      </trkpt>
      <trkpt lat="48.66897" lon="-4.33098">
        <ele>5</ele>
        <time>2020-06-10T07:06:07Z</time>
      </trkpt>
      <trkpt lat="48.66898" lon="-4.33089">
        <ele>5</ele>
        <time>2020-06-10T07:06:08Z</time>
      </trkpt>
      <trkpt lat="48.669" lon="-4.33081">
        <ele>5</ele>
        <time>2020-06-10T07:06:09Z</time>
      </trkpt>
      <trkpt lat="48.66901" lon="-4.33073">
        <ele>5</ele>
        <time>2020-06-10T07:06:10Z</time>
      </trkpt>
      <trkpt lat="48.66902" lon="-4.33065">
        <ele>5</ele>
        <time>2020-06-10T07:06:11Z</time>
      </trkpt>
      <trkpt lat="48.66903" lon="-4.33057">
        <ele>5</ele>
        <time>2020-06-10T07:06:12Z</time>
      </trkpt>
      <trkpt lat="48.66903" lon="-4.33049">
        <ele>5</ele>
        <time>2020-06-10T07:06:13Z</time>
      </trkpt>
      <trkpt lat="48.66902" lon="-4.33041">
        <ele>5</ele>
        <time>2020-06-10T07:06:14Z</time>
      </trkpt>
      <trkpt lat="48.66901" lon="-4.33033">
        <ele>5</ele>
        <time>2020-06-10T07:06:15Z</time>
      </trkpt>
      <trkpt lat="48.66901" lon="-4.33025">
        <ele>5</ele>
        <time>2020-06-10T07:06:16Z</time>
      </trkpt>
      <trkpt lat="48.669" lon="-4.33018">
        <ele>5</ele>
        <time>2020-06-10T07:06:17Z</time>
      </trkpt>
      <trkpt lat="48.66897" lon="-4.33013">
        <ele>5</ele>
        <time>2020-06-10T07:06:18Z</time>
      </trkpt>
      <trkpt lat="48.66893" lon="-4.33009">
        <ele>5</ele>
        <time>2020-06-10T07:06:19Z</time>
      </trkpt>
      <trkpt lat="48.66889" lon="-4.33007">
        <ele>4.9</ele>
        <time>2020-06-10T07:06:20Z</time>
      </trkpt>
      <trkpt lat="48.66886" lon="-4.33006">
        <ele>4.9</ele>
        <time>2020-06-10T07:06:21Z</time>
      </trkpt>
      <trkpt lat="48.66882" lon="-4.33004">
        <ele>4.9</ele>
        <time>2020-06-10T07:06:22Z</time>
      </trkpt>
      <trkpt lat="48.66881" lon="-4.33004">
        <ele>4.9</ele>
        <time>2020-06-10T07:06:23Z</time>
      </trkpt>
      <trkpt lat="48.6688" lon="-4.33004">
        <ele>4.8</ele>
        <time>2020-06-10T07:06:24Z</time>
      </trkpt>
      <trkpt lat="48.66879" lon="-4.33004">
        <ele>4.8</ele>
        <time>2020-06-10T07:06:25Z</time>
      </trkpt>
      <trkpt lat="48.66878" lon="-4.33004">
        <ele>4.8</ele>
        <time>2020-06-10T07:06:26Z</time>
      </trkpt>
      <trkpt lat="48.66878" lon="-4.33003">
        <ele>4.8</ele>
        <time>2020-06-10T07:06:27Z</time>
      </trkpt>
      <trkpt lat="48.66878" lon="-4.33002">
        <ele>4.8</ele>
        <time>2020-06-10T07:06:28Z</time>
      </trkpt>
      <trkpt lat="48.66877" lon="-4.33001">
        <ele>4.8</ele>
        <time>2020-06-10T07:06:29Z</time>
      </trkpt>
      <trkpt lat="48.66877" lon="-4.33001">
        <ele>4.9</ele>
        <time>2020-06-10T07:06:30Z</time>
      </trkpt>
      <trkpt lat="48.66877" lon="-4.33001">
        <ele>4.9</ele>
        <time>2020-06-10T07:06:31Z</time>
      </trkpt>
      <trkpt lat="48.66877" lon="-4.33">
        <ele>4.9</ele>
        <time>2020-06-10T07:06:32Z</time>
      </trkpt>
      <trkpt lat="48.66877" lon="-4.33001">
        <ele>4.9</ele>
        <time>2020-06-10T07:06:33Z</time>
      </trkpt>
      <trkpt lat="48.66876" lon="-4.33">
        <ele>4.9</ele>
        <time>2020-06-10T07:06:34Z</time>
      </trkpt>
      <trkpt lat="48.66876" lon="-4.33">
        <ele>4.9</ele>
        <time>2020-06-10T07:06:35Z</time>
      </trkpt>
      <trkpt lat="48.66876" lon="-4.33">
        <ele>4.9</ele>
        <time>2020-06-10T07:06:36Z</time>
      </trkpt>
      <trkpt lat="48.66877" lon="-4.33001">
        <ele>4.9</ele>
        <time>2020-06-10T07:06:37Z</time>
      </trkpt>
      <trkpt lat="48.66876" lon="-4.32999">
        <ele>4.9</ele>
        <time>2020-06-10T07:06:38Z</time>
      </trkpt>
      <trkpt lat="48.66877" lon="-4.32998">
        <ele>4.9</ele>
        <time>2020-06-10T07:06:39Z</time>
      </trkpt>
      <trkpt lat="48.66877" lon="-4.32999">
        <ele>4.9</ele>
        <time>2020-06-10T07:06:40Z</time>
      </trkpt>
      <trkpt lat="48.66878" lon="-4.33">
        <ele>4.9</ele>
        <time>2020-06-10T07:06:41Z</time>
      </trkpt>
      <trkpt lat="48.6688" lon="-4.33001">
        <ele>4.9</ele>
        <time>2020-06-10T07:06:42Z</time>
      </trkpt>
      <trkpt lat="48.66883" lon="-4.33002">
        <ele>4.9</ele>
        <time>2020-06-10T07:06:43Z</time>
      </trkpt>
      <trkpt lat="48.66885" lon="-4.33002">
        <ele>4.9</ele>
        <time>2020-06-10T07:06:44Z</time>
      </trkpt>
      <trkpt lat="48.66888" lon="-4.33003">
        <ele>4.9</ele>
        <time>2020-06-10T07:06:45Z</time>
      </trkpt>
      <trkpt lat="48.6689" lon="-4.33003">
        <ele>4.9</ele>
        <time>2020-06-10T07:06:46Z</time>
      </trkpt>
      <trkpt lat="48.66894" lon="-4.33004">
        <ele>5</ele>
        <time>2020-06-10T07:06:47Z</time>
      </trkpt>
      <trkpt lat="48.66895" lon="-4.33005">
        <ele>5</ele>
        <time>2020-06-10T07:06:48Z</time>
      </trkpt>
      <trkpt lat="48.66898" lon="-4.33005">
        <ele>5.1</ele>
        <time>2020-06-10T07:06:49Z</time>
      </trkpt>
      <trkpt lat="48.66902" lon="-4.33005">
        <ele>5.1</ele>
        <time>2020-06-10T07:06:50Z</time>
      </trkpt>
      <trkpt lat="48.66903" lon="-4.33005">
        <ele>5.2</ele>
        <time>2020-06-10T07:06:51Z</time>
      </trkpt>
      <trkpt lat="48.66906" lon="-4.33005">
        <ele>5.2</ele>
        <time>2020-06-10T07:06:52Z</time>
      </trkpt>
      <trkpt lat="48.66908" lon="-4.33006">
        <ele>5.2</ele>
        <time>2020-06-10T07:06:53Z</time>
      </trkpt>
      <trkpt lat="48.66912" lon="-4.33007">
        <ele>5.3</ele>
        <time>2020-06-10T07:06:54Z</time>
      </trkpt>
      <trkpt lat="48.66913" lon="-4.33008">
        <ele>5.3</ele>
        <time>2020-06-10T07:06:55Z</time>
      </trkpt>
      <trkpt lat="48.66917" lon="-4.33009">
        <ele>5.3</ele>
        <time>2020-06-10T07:06:56Z</time>
      </trkpt>
      <trkpt lat="48.66918" lon="-4.3301">
        <ele>5.2</ele>
        <time>2020-06-10T07:06:57Z</time>
      </trkpt>
      <trkpt lat="48.6692" lon="-4.33012">
        <ele>5.2</ele>
        <time>2020-06-10T07:06:58Z</time>
      </trkpt>
      <trkpt lat="48.66921" lon="-4.33013">
        <ele>5.2</ele>
        <time>2020-06-10T07:06:59Z</time>
      </trkpt>
      <trkpt lat="48.66922" lon="-4.33014">
        <ele>5.2</ele>
        <time>2020-06-10T07:07:00Z</time>
      </trkpt>
      <trkpt lat="48.66922" lon="-4.33015">
        <ele>5.2</ele>
        <time>2020-06-10T07:07:01Z</time>
      </trkpt>
      <trkpt lat="48.66923" lon="-4.33015">
        <ele>5.2</ele>
        <time>2020-06-10T07:07:02Z</time>
      </trkpt>
      <trkpt lat="48.66923" lon="-4.33015">
        <ele>5.2</ele>
        <time>2020-06-10T07:07:03Z</time>
      </trkpt>
      <trkpt lat="48.66922" lon="-4.33015">
        <ele>5.2</ele>
        <time>2020-06-10T07:07:04Z</time>
      </trkpt>
      <trkpt lat="48.66923" lon="-4.33015">
        <ele>5.2</ele>
        <time>2020-06-10T07:07:05Z</time>
      </trkpt>
      <trkpt lat="48.66923" lon="-4.33015">
        <ele>5.2</ele>
        <time>2020-06-10T07:07:06Z</time>
      </trkpt>
      <trkpt lat="48.66923" lon="-4.33013">
        <ele>5.2</ele>
        <time>2020-06-10T07:07:07Z</time>
      </trkpt>
      <trkpt lat="48.66923" lon="-4.33015">
        <ele>5.2</ele>
        <time>2020-06-10T07:07:08Z</time>
      </trkpt>
      <trkpt lat="48.66923" lon="-4.33015">
        <ele>5.2</ele>
        <time>2020-06-10T07:07:09Z</time>
      </trkpt>
      <trkpt lat="48.66923" lon="-4.33014">
        <ele>5.2</ele>
        <time>2020-06-10T07:07:10Z</time>
      </trkpt>
      <trkpt lat="48.66923" lon="-4.33014">
        <ele>5.2</ele>
        <time>2020-06-10T07:07:11Z</time>
      </trkpt>
      <trkpt lat="48.66923" lon="-4.33014">
        <ele>5.2</ele>
        <time>2020-06-10T07:07:12Z</time>
      </trkpt>
      <trkpt lat="48.66923" lon="-4.33014">
        <ele>5.2</ele>
        <time>2020-06-10T07:07:13Z</time>
      </trkpt>
      <trkpt lat="48.66924" lon="-4.33013">
        <ele>5.2</ele>
        <time>2020-06-10T07:07:14Z</time>
      </trkpt>
      <trkpt lat="48.66925" lon="-4.33013">
        <ele>5.2</ele>
        <time>2020-06-10T07:07:15Z</time>
      </trkpt>
      <trkpt lat="48.66925" lon="-4.33013">
        <ele>5.2</ele>
        <time>2020-06-10T07:07:16Z</time>
      </trkpt>
      <trkpt lat="48.66925" lon="-4.33014">
        <ele>5.2</ele>
        <time>2020-06-10T07:07:17Z</time>
      </trkpt>
      <trkpt lat="48.66925" lon="-4.33014">
        <ele>5.2</ele>
        <time>2020-06-10T07:07:18Z</time>
      </trkpt>
      <trkpt lat="48.66926" lon="-4.33014">
        <ele>5.2</ele>
        <time>2020-06-10T07:07:19Z</time>
      </trkpt>
      <trkpt lat="48.66926" lon="-4.33014">
        <ele>5.2</ele>
        <time>2020-06-10T07:07:20Z</time>
      </trkpt>
      <trkpt lat="48.66926" lon="-4.33014">
        <ele>5.2</ele>
        <time>2020-06-10T07:07:21Z</time>
      </trkpt>
      <trkpt lat="48.66926" lon="-4.33014">
        <ele>5.2</ele>
        <time>2020-06-10T07:07:22Z</time>
      </trkpt>
      <trkpt lat="48.66926" lon="-4.33014">
        <ele>5.2</ele>
        <time>2020-06-10T07:07:23Z</time>
      </trkpt>
      <trkpt lat="48.66926" lon="-4.33014">
        <ele>5.2</ele>
        <time>2020-06-10T07:07:24Z</time>
      </trkpt>
      <trkpt lat="48.66925" lon="-4.33015">
        <ele>5.2</ele>
        <time>2020-06-10T07:07:25Z</time>
      </trkpt>
      <trkpt lat="48.66927" lon="-4.3301">
        <ele>5.2</ele>
        <time>2020-06-10T07:11:51Z</time>
      </trkpt>
      <trkpt lat="48.66927" lon="-4.3301">
        <ele>5.2</ele>
        <time>2020-06-10T07:11:52Z</time>
      </trkpt>
      <trkpt lat="48.66927" lon="-4.3301">
        <ele>5.2</ele>
        <time>2020-06-10T07:11:53Z</time>
      </trkpt>
      <trkpt lat="48.66927" lon="-4.3301">
        <ele>5.3</ele>
        <time>2020-06-10T07:11:54Z</time>
      </trkpt>
      <trkpt lat="48.66927" lon="-4.33009">
        <ele>5.3</ele>
        <time>2020-06-10T07:11:55Z</time>
      </trkpt>
      <trkpt lat="48.66927" lon="-4.33009">
        <ele>5.3</ele>
        <time>2020-06-10T07:11:56Z</time>
      </trkpt>
      <trkpt lat="48.66927" lon="-4.33009">
        <ele>5.3</ele>
        <time>2020-06-10T07:11:57Z</time>
      </trkpt>
      <trkpt lat="48.66927" lon="-4.33009">
        <ele>5.3</ele>
        <time>2020-06-10T07:11:58Z</time>
      </trkpt>
      <trkpt lat="48.66927" lon="-4.33009">
        <ele>5.3</ele>
        <time>2020-06-10T07:11:59Z</time>
      </trkpt>
      <trkpt lat="48.66927" lon="-4.3301">
        <ele>5.3</ele>
        <time>2020-06-10T07:12:00Z</time>
      </trkpt>
      <trkpt lat="48.66927" lon="-4.33009">
        <ele>5.3</ele>
        <time>2020-06-10T07:12:01Z</time>
      </trkpt>
      <trkpt lat="48.66922" lon="-4.33007">
        <ele>5.3</ele>
        <time>2020-06-10T07:12:08Z</time>
      </trkpt>
      <trkpt lat="48.66921" lon="-4.33007">
        <ele>5.3</ele>
        <time>2020-06-10T07:12:09Z</time>
      </trkpt>
      <trkpt lat="48.6692" lon="-4.33006">
        <ele>5.3</ele>
        <time>2020-06-10T07:12:10Z</time>
      </trkpt>
      <trkpt lat="48.6692" lon="-4.33006">
        <ele>5.3</ele>
        <time>2020-06-10T07:12:11Z</time>
      </trkpt>
      <trkpt lat="48.66919" lon="-4.33006">
        <ele>5.3</ele>
        <time>2020-06-10T07:12:12Z</time>
      </trkpt>
      <trkpt lat="48.66919" lon="-4.33006">
        <ele>5.3</ele>
        <time>2020-06-10T07:12:13Z</time>
      </trkpt>
      <trkpt lat="48.66919" lon="-4.33006">
        <ele>5.3</ele>
        <time>2020-06-10T07:12:14Z</time>
      </trkpt>
      <trkpt lat="48.66918" lon="-4.33006">
        <ele>5.3</ele>
        <time>2020-06-10T07:12:15Z</time>
      </trkpt>
      <trkpt lat="48.66918" lon="-4.33006">
        <ele>5.3</ele>
        <time>2020-06-10T07:12:16Z</time>
      </trkpt>
      <trkpt lat="48.66917" lon="-4.33006">
        <ele>5.3</ele>
        <time>2020-06-10T07:12:17Z</time>
      </trkpt>
      <trkpt lat="48.66916" lon="-4.33006">
        <ele>5.3</ele>
        <time>2020-06-10T07:12:18Z</time>
      </trkpt>
      <trkpt lat="48.66916" lon="-4.33006">
        <ele>5.3</ele>
        <time>2020-06-10T07:12:19Z</time>
      </trkpt>
      <trkpt lat="48.66915" lon="-4.33006">
        <ele>5.3</ele>
        <time>2020-06-10T07:12:20Z</time>
      </trkpt>
      <trkpt lat="48.66915" lon="-4.33006">
        <ele>5.3</ele>
        <time>2020-06-10T07:12:21Z</time>
      </trkpt>
      <trkpt lat="48.66915" lon="-4.33006">
        <ele>5.3</ele>
        <time>2020-06-10T07:12:22Z</time>
      </trkpt>
      <trkpt lat="48.66915" lon="-4.33006">
        <ele>5.3</ele>
        <time>2020-06-10T07:12:23Z</time>
      </trkpt>
      <trkpt lat="48.66915" lon="-4.33006">
        <ele>5.3</ele>
        <time>2020-06-10T07:12:24Z</time>
      </trkpt>
      <trkpt lat="48.66914" lon="-4.33007">
        <ele>5.3</ele>
        <time>2020-06-10T07:12:25Z</time>
      </trkpt>
      <trkpt lat="48.66912" lon="-4.33009">
        <ele>5.3</ele>
        <time>2020-06-10T07:12:26Z</time>
      </trkpt>
      <trkpt lat="48.66911" lon="-4.3301">
        <ele>5.3</ele>
        <time>2020-06-10T07:12:27Z</time>
      </trkpt>
      <trkpt lat="48.6691" lon="-4.3301">
        <ele>5.3</ele>
        <time>2020-06-10T07:12:28Z</time>
      </trkpt>
      <trkpt lat="48.66907" lon="-4.33011">
        <ele>5.2</ele>
        <time>2020-06-10T07:12:29Z</time>
      </trkpt>
      <trkpt lat="48.66906" lon="-4.33011">
        <ele>5.2</ele>
        <time>2020-06-10T07:12:30Z</time>
      </trkpt>
      <trkpt lat="48.66904" lon="-4.33012">
        <ele>5.2</ele>
        <time>2020-06-10T07:12:31Z</time>
      </trkpt>
      <trkpt lat="48.66902" lon="-4.33012">
        <ele>5.2</ele>
        <time>2020-06-10T07:12:32Z</time>
      </trkpt>
      <trkpt lat="48.669" lon="-4.33012">
        <ele>5.1</ele>
        <time>2020-06-10T07:12:33Z</time>
      </trkpt>
      <trkpt lat="48.66899" lon="-4.33011">
        <ele>5.1</ele>
        <time>2020-06-10T07:12:34Z</time>
      </trkpt>
      <trkpt lat="48.66896" lon="-4.33012">
        <ele>5.1</ele>
        <time>2020-06-10T07:12:35Z</time>
      </trkpt>
      <trkpt lat="48.66895" lon="-4.33013">
        <ele>5.1</ele>
        <time>2020-06-10T07:12:36Z</time>
      </trkpt>
      <trkpt lat="48.66892" lon="-4.33014">
        <ele>5</ele>
        <time>2020-06-10T07:12:37Z</time>
      </trkpt>
      <trkpt lat="48.66891" lon="-4.33015">
        <ele>5</ele>
        <time>2020-06-10T07:12:38Z</time>
      </trkpt>
      <trkpt lat="48.66888" lon="-4.33017">
        <ele>5</ele>
        <time>2020-06-10T07:12:39Z</time>
      </trkpt>
      <trkpt lat="48.66887" lon="-4.33018">
        <ele>5</ele>
        <time>2020-06-10T07:12:40Z</time>
      </trkpt>
      <trkpt lat="48.66883" lon="-4.33021">
        <ele>5</ele>
        <time>2020-06-10T07:12:41Z</time>
      </trkpt>
      <trkpt lat="48.66882" lon="-4.33022">
        <ele>5</ele>
        <time>2020-06-10T07:12:42Z</time>
      </trkpt>
      <trkpt lat="48.6688" lon="-4.33025">
        <ele>4.9</ele>
        <time>2020-06-10T07:12:43Z</time>
      </trkpt>
      <trkpt lat="48.66879" lon="-4.33025">
        <ele>4.9</ele>
        <time>2020-06-10T07:12:44Z</time>
      </trkpt>
      <trkpt lat="48.66877" lon="-4.33028">
        <ele>4.9</ele>
        <time>2020-06-10T07:12:45Z</time>
      </trkpt>
      <trkpt lat="48.66877" lon="-4.33029">
        <ele>4.9</ele>
        <time>2020-06-10T07:12:46Z</time>
      </trkpt>
      <trkpt lat="48.66876" lon="-4.33031">
        <ele>4.9</ele>
        <time>2020-06-10T07:12:47Z</time>
      </trkpt>
      <trkpt lat="48.66875" lon="-4.33032">
        <ele>4.9</ele>
        <time>2020-06-10T07:12:48Z</time>
      </trkpt>
      <trkpt lat="48.66875" lon="-4.33034">
        <ele>4.9</ele>
        <time>2020-06-10T07:12:49Z</time>
      </trkpt>
      <trkpt lat="48.66874" lon="-4.33035">
        <ele>4.9</ele>
        <time>2020-06-10T07:12:50Z</time>
      </trkpt>
      <trkpt lat="48.66873" lon="-4.33038">
        <ele>4.9</ele>
        <time>2020-06-10T07:12:51Z</time>
      </trkpt>
      <trkpt lat="48.66872" lon="-4.33038">
        <ele>4.9</ele>
        <time>2020-06-10T07:12:52Z</time>
      </trkpt>
      <trkpt lat="48.66871" lon="-4.33039">
        <ele>4.9</ele>
        <time>2020-06-10T07:12:53Z</time>
      </trkpt>
      <trkpt lat="48.6687" lon="-4.33041">
        <ele>4.9</ele>
        <time>2020-06-10T07:12:54Z</time>
      </trkpt>
      <trkpt lat="48.66869" lon="-4.33042">
        <ele>4.9</ele>
        <time>2020-06-10T07:12:55Z</time>
      </trkpt>
      <trkpt lat="48.66868" lon="-4.33044">
        <ele>4.9</ele>
        <time>2020-06-10T07:12:56Z</time>
      </trkpt>
      <trkpt lat="48.66867" lon="-4.33046">
        <ele>4.9</ele>
        <time>2020-06-10T07:12:57Z</time>
      </trkpt>
      <trkpt lat="48.66866" lon="-4.33047">
        <ele>4.9</ele>
        <time>2020-06-10T07:12:58Z</time>
      </trkpt>
      <trkpt lat="48.66865" lon="-4.33048">
        <ele>4.9</ele>
        <time>2020-06-10T07:12:59Z</time>
      </trkpt>
      <trkpt lat="48.66865" lon="-4.33048">
        <ele>4.9</ele>
        <time>2020-06-10T07:13:00Z</time>
      </trkpt>
      <trkpt lat="48.66865" lon="-4.33048">
        <ele>4.9</ele>
        <time>2020-06-10T07:13:01Z</time>
      </trkpt>
      <trkpt lat="48.66864" lon="-4.33049">
        <ele>4.8</ele>
        <time>2020-06-10T07:13:02Z</time>
      </trkpt>
      <trkpt lat="48.66863" lon="-4.33049">
        <ele>4.8</ele>
        <time>2020-06-10T07:13:03Z</time>
      </trkpt>
      <trkpt lat="48.66864" lon="-4.33049">
        <ele>4.8</ele>
        <time>2020-06-10T07:13:04Z</time>
      </trkpt>
      <trkpt lat="48.66864" lon="-4.33048">
        <ele>4.8</ele>
        <time>2020-06-10T07:13:05Z</time>
      </trkpt>
      <trkpt lat="48.66864" lon="-4.33048">
        <ele>4.8</ele>
        <time>2020-06-10T07:13:06Z</time>
      </trkpt>
      <trkpt lat="48.66864" lon="-4.33049">
        <ele>4.8</ele>
        <time>2020-06-10T07:13:07Z</time>
      </trkpt>
      <trkpt lat="48.66864" lon="-4.33049">
        <ele>4.8</ele>
        <time>2020-06-10T07:13:08Z</time>
      </trkpt>
      <trkpt lat="48.66864" lon="-4.33048">
        <ele>4.8</ele>
        <time>2020-06-10T07:13:09Z</time>
      </trkpt>
      <trkpt lat="48.66864" lon="-4.33048">
        <ele>4.8</ele>
        <time>2020-06-10T07:13:10Z</time>
      </trkpt>
      <trkpt lat="48.66863" lon="-4.33048">
        <ele>4.8</ele>
        <time>2020-06-10T07:13:11Z</time>
      </trkpt>
      <trkpt lat="48.66864" lon="-4.33047">
        <ele>4.8</ele>
        <time>2020-06-10T07:13:12Z</time>
      </trkpt>
      <trkpt lat="48.66863" lon="-4.33048">
        <ele>4.8</ele>
        <time>2020-06-10T07:13:13Z</time>
      </trkpt>
      <trkpt lat="48.66864" lon="-4.33046">
        <ele>4.8</ele>
        <time>2020-06-10T07:13:14Z</time>
      </trkpt>
      <trkpt lat="48.66866" lon="-4.33044">
        <ele>4.8</ele>
        <time>2020-06-10T07:13:15Z</time>
      </trkpt>
      <trkpt lat="48.66867" lon="-4.33043">
        <ele>4.8</ele>
        <time>2020-06-10T07:13:16Z</time>
      </trkpt>
      <trkpt lat="48.66867" lon="-4.33043">
        <ele>4.8</ele>
        <time>2020-06-10T07:13:17Z</time>
      </trkpt>
      <trkpt lat="48.66867" lon="-4.33044">
        <ele>4.8</ele>
        <time>2020-06-10T07:13:18Z</time>
      </trkpt>
      <trkpt lat="48.66867" lon="-4.33045">
        <ele>4.8</ele>
        <time>2020-06-10T07:13:19Z</time>
      </trkpt>
      <trkpt lat="48.66867" lon="-4.33045">
        <ele>4.8</ele>
        <time>2020-06-10T07:13:20Z</time>
      </trkpt>
      <trkpt lat="48.66868" lon="-4.33044">
        <ele>4.8</ele>
        <time>2020-06-10T07:13:21Z</time>
      </trkpt>
      <trkpt lat="48.66869" lon="-4.33044">
        <ele>4.8</ele>
        <time>2020-06-10T07:13:22Z</time>
      </trkpt>
      <trkpt lat="48.66869" lon="-4.33042">
        <ele>4.8</ele>
        <time>2020-06-10T07:13:23Z</time>
      </trkpt>
      <trkpt lat="48.6687" lon="-4.33041">
        <ele>4.8</ele>
        <time>2020-06-10T07:13:24Z</time>
      </trkpt>
      <trkpt lat="48.6687" lon="-4.33039">
        <ele>4.8</ele>
        <time>2020-06-10T07:13:25Z</time>
      </trkpt>
      <trkpt lat="48.66871" lon="-4.33037">
        <ele>4.8</ele>
        <time>2020-06-10T07:13:26Z</time>
      </trkpt>
      <trkpt lat="48.66872" lon="-4.33035">
        <ele>4.8</ele>
        <time>2020-06-10T07:13:27Z</time>
      </trkpt>
      <trkpt lat="48.66872" lon="-4.33032">
        <ele>4.8</ele>
        <time>2020-06-10T07:13:28Z</time>
      </trkpt>
      <trkpt lat="48.66873" lon="-4.33031">
        <ele>4.8</ele>
        <time>2020-06-10T07:13:29Z</time>
      </trkpt>
      <trkpt lat="48.66873" lon="-4.33029">
        <ele>4.8</ele>
        <time>2020-06-10T07:13:30Z</time>
      </trkpt>
      <trkpt lat="48.66874" lon="-4.33029">
        <ele>4.7</ele>
        <time>2020-06-10T07:13:31Z</time>
      </trkpt>
      <trkpt lat="48.66875" lon="-4.33028">
        <ele>4.7</ele>
        <time>2020-06-10T07:13:32Z</time>
      </trkpt>
      <trkpt lat="48.66876" lon="-4.33028">
        <ele>4.7</ele>
        <time>2020-06-10T07:13:33Z</time>
      </trkpt>
      <trkpt lat="48.66876" lon="-4.33028">
        <ele>4.7</ele>
        <time>2020-06-10T07:13:34Z</time>
      </trkpt>
      <trkpt lat="48.66876" lon="-4.33028">
        <ele>4.7</ele>
        <time>2020-06-10T07:13:35Z</time>
      </trkpt>
      <trkpt lat="48.66876" lon="-4.33027">
        <ele>4.7</ele>
        <time>2020-06-10T07:13:36Z</time>
      </trkpt>
      <trkpt lat="48.66876" lon="-4.33026">
        <ele>4.7</ele>
        <time>2020-06-10T07:13:37Z</time>
      </trkpt>
      <trkpt lat="48.66876" lon="-4.33026">
        <ele>4.7</ele>
        <time>2020-06-10T07:13:38Z</time>
      </trkpt>
      <trkpt lat="48.66876" lon="-4.33025">
        <ele>4.7</ele>
        <time>2020-06-10T07:13:39Z</time>
      </trkpt>
      <trkpt lat="48.66875" lon="-4.33023">
        <ele>4.7</ele>
        <time>2020-06-10T07:13:40Z</time>
      </trkpt>
      <trkpt lat="48.66874" lon="-4.33022">
        <ele>4.7</ele>
        <time>2020-06-10T07:13:41Z</time>
      </trkpt>
      <trkpt lat="48.66872" lon="-4.33022">
        <ele>4.7</ele>
        <time>2020-06-10T07:13:42Z</time>
      </trkpt>
      <trkpt lat="48.66872" lon="-4.33021">
        <ele>4.7</ele>
        <time>2020-06-10T07:13:43Z</time>
      </trkpt>
      <trkpt lat="48.66872" lon="-4.3302">
        <ele>4.7</ele>
        <time>2020-06-10T07:13:44Z</time>
      </trkpt>
      <trkpt lat="48.66871" lon="-4.3302">
        <ele>4.7</ele>
        <time>2020-06-10T07:13:45Z</time>
      </trkpt>
      <trkpt lat="48.66871" lon="-4.3302">
        <ele>4.7</ele>
        <time>2020-06-10T07:13:46Z</time>
      </trkpt>
      <trkpt lat="48.66872" lon="-4.33021">
        <ele>4.7</ele>
        <time>2020-06-10T07:13:47Z</time>
      </trkpt>
      <trkpt lat="48.66872" lon="-4.33022">
        <ele>4.7</ele>
        <time>2020-06-10T07:13:48Z</time>
      </trkpt>
      <trkpt lat="48.66872" lon="-4.33022">
        <ele>4.7</ele>
        <time>2020-06-10T07:13:49Z</time>
      </trkpt>
      <trkpt lat="48.66872" lon="-4.33022">
        <ele>4.7</ele>
        <time>2020-06-10T07:13:50Z</time>
      </trkpt>
      <trkpt lat="48.66871" lon="-4.3302">
        <ele>4.7</ele>
        <time>2020-06-10T07:13:51Z</time>
      </trkpt>
      <trkpt lat="48.66871" lon="-4.33018">
        <ele>4.7</ele>
        <time>2020-06-10T07:13:52Z</time>
      </trkpt>
      <trkpt lat="48.66871" lon="-4.33017">
        <ele>4.7</ele>
        <time>2020-06-10T07:13:53Z</time>
      </trkpt>
      <trkpt lat="48.66872" lon="-4.33015">
        <ele>4.7</ele>
        <time>2020-06-10T07:13:54Z</time>
      </trkpt>
      <trkpt lat="48.66871" lon="-4.33014">
        <ele>4.7</ele>
        <time>2020-06-10T07:13:55Z</time>
      </trkpt>
      <trkpt lat="48.66872" lon="-4.33014">
        <ele>4.7</ele>
        <time>2020-06-10T07:13:56Z</time>
      </trkpt>
      <trkpt lat="48.66872" lon="-4.33015">
        <ele>4.7</ele>
        <time>2020-06-10T07:13:57Z</time>
      </trkpt>
      <trkpt lat="48.66871" lon="-4.33015">
        <ele>4.7</ele>
        <time>2020-06-10T07:13:58Z</time>
      </trkpt>
      <trkpt lat="48.66871" lon="-4.33015">
        <ele>4.7</ele>
        <time>2020-06-10T07:13:59Z</time>
      </trkpt>
      <trkpt lat="48.6687" lon="-4.33014">
        <ele>4.7</ele>
        <time>2020-06-10T07:14:00Z</time>
      </trkpt>
      <trkpt lat="48.6687" lon="-4.33014">
        <ele>4.7</ele>
        <time>2020-06-10T07:14:01Z</time>
      </trkpt>
      <trkpt lat="48.6687" lon="-4.33014">
        <ele>4.7</ele>
        <time>2020-06-10T07:14:02Z</time>
      </trkpt>
      <trkpt lat="48.66869" lon="-4.33013">
        <ele>4.7</ele>
        <time>2020-06-10T07:14:03Z</time>
      </trkpt>
      <trkpt lat="48.66869" lon="-4.33013">
        <ele>4.6</ele>
        <time>2020-06-10T07:14:04Z</time>
      </trkpt>
      <trkpt lat="48.66869" lon="-4.33012">
        <ele>4.6</ele>
        <time>2020-06-10T07:14:05Z</time>
      </trkpt>
      <trkpt lat="48.66868" lon="-4.33012">
        <ele>4.6</ele>
        <time>2020-06-10T07:14:06Z</time>
      </trkpt>
      <trkpt lat="48.66868" lon="-4.33011">
        <ele>4.6</ele>
        <time>2020-06-10T07:14:07Z</time>
      </trkpt>
      <trkpt lat="48.66867" lon="-4.33011">
        <ele>4.6</ele>
        <time>2020-06-10T07:14:08Z</time>
      </trkpt>
      <trkpt lat="48.66867" lon="-4.33011">
        <ele>4.6</ele>
        <time>2020-06-10T07:14:09Z</time>
      </trkpt>
      <trkpt lat="48.66866" lon="-4.3301">
        <ele>4.6</ele>
        <time>2020-06-10T07:14:10Z</time>
      </trkpt>
      <trkpt lat="48.66865" lon="-4.3301">
        <ele>4.6</ele>
        <time>2020-06-10T07:14:11Z</time>
      </trkpt>
      <trkpt lat="48.66865" lon="-4.3301">
        <ele>4.6</ele>
        <time>2020-06-10T07:14:12Z</time>
      </trkpt>
      <trkpt lat="48.66864" lon="-4.3301">
        <ele>4.6</ele>
        <time>2020-06-10T07:14:13Z</time>
      </trkpt>
      <trkpt lat="48.66864" lon="-4.33009">
        <ele>4.6</ele>
        <time>2020-06-10T07:14:14Z</time>
      </trkpt>
      <trkpt lat="48.66863" lon="-4.33008">
        <ele>4.6</ele>
        <time>2020-06-10T07:14:15Z</time>
      </trkpt>
      <trkpt lat="48.66862" lon="-4.33008">
        <ele>4.6</ele>
        <time>2020-06-10T07:14:16Z</time>
      </trkpt>
      <trkpt lat="48.66861" lon="-4.33007">
        <ele>4.6</ele>
        <time>2020-06-10T07:14:17Z</time>
      </trkpt>
      <trkpt lat="48.6686" lon="-4.33007">
        <ele>4.6</ele>
        <time>2020-06-10T07:14:18Z</time>
      </trkpt>
      <trkpt lat="48.66859" lon="-4.33007">
        <ele>4.6</ele>
        <time>2020-06-10T07:14:19Z</time>
      </trkpt>
      <trkpt lat="48.66859" lon="-4.33007">
        <ele>4.6</ele>
        <time>2020-06-10T07:14:20Z</time>
      </trkpt>
      <trkpt lat="48.66859" lon="-4.33007">
        <ele>4.6</ele>
        <time>2020-06-10T07:14:21Z</time>
      </trkpt>
      <trkpt lat="48.66859" lon="-4.33007">
        <ele>4.6</ele>
        <time>2020-06-10T07:14:22Z</time>
      </trkpt>
      <trkpt lat="48.66858" lon="-4.33007">
        <ele>4.6</ele>
        <time>2020-06-10T07:14:23Z</time>
      </trkpt>
      <trkpt lat="48.66858" lon="-4.33007">
        <ele>4.6</ele>
        <time>2020-06-10T07:14:24Z</time>
      </trkpt>
      <trkpt lat="48.66858" lon="-4.33007">
        <ele>4.6</ele>
        <time>2020-06-10T07:14:25Z</time>
      </trkpt>
      <trkpt lat="48.66858" lon="-4.33006">
        <ele>4.6</ele>
        <time>2020-06-10T07:14:26Z</time>
      </trkpt>
      <trkpt lat="48.66858" lon="-4.33006">
        <ele>4.6</ele>
        <time>2020-06-10T07:14:27Z</time>
      </trkpt>
      <trkpt lat="48.66857" lon="-4.33006">
        <ele>4.6</ele>
        <time>2020-06-10T07:14:28Z</time>
      </trkpt>
      <trkpt lat="48.66857" lon="-4.33006">
        <ele>4.6</ele>
        <time>2020-06-10T07:14:29Z</time>
      </trkpt>
      <trkpt lat="48.66857" lon="-4.33006">
        <ele>4.6</ele>
        <time>2020-06-10T07:14:30Z</time>
      </trkpt>
      <trkpt lat="48.66857" lon="-4.33006">
        <ele>4.6</ele>
        <time>2020-06-10T07:14:31Z</time>
      </trkpt>
      <trkpt lat="48.66857" lon="-4.33006">
        <ele>4.6</ele>
        <time>2020-06-10T07:14:32Z</time>
      </trkpt>
      <trkpt lat="48.66856" lon="-4.33006">
        <ele>4.6</ele>
        <time>2020-06-10T07:14:33Z</time>
      </trkpt>
      <trkpt lat="48.66856" lon="-4.33006">
        <ele>4.6</ele>
        <time>2020-06-10T07:14:34Z</time>
      </trkpt>
      <trkpt lat="48.66855" lon="-4.33006">
        <ele>4.6</ele>
        <time>2020-06-10T07:14:35Z</time>
      </trkpt>
      <trkpt lat="48.66854" lon="-4.33006">
        <ele>4.6</ele>
        <time>2020-06-10T07:14:36Z</time>
      </trkpt>
      <trkpt lat="48.66854" lon="-4.33005">
        <ele>4.6</ele>
        <time>2020-06-10T07:14:37Z</time>
      </trkpt>
      <trkpt lat="48.66854" lon="-4.33005">
        <ele>4.6</ele>
        <time>2020-06-10T07:14:38Z</time>
      </trkpt>
      <trkpt lat="48.66854" lon="-4.33005">
        <ele>4.6</ele>
        <time>2020-06-10T07:14:39Z</time>
      </trkpt>
      <trkpt lat="48.66854" lon="-4.33005">
        <ele>4.6</ele>
        <time>2020-06-10T07:14:40Z</time>
      </trkpt>
      <trkpt lat="48.66854" lon="-4.33005">
        <ele>4.6</ele>
        <time>2020-06-10T07:14:41Z</time>
      </trkpt>
      <trkpt lat="48.66854" lon="-4.33004">
        <ele>4.6</ele>
        <time>2020-06-10T07:14:42Z</time>
      </trkpt>
      <trkpt lat="48.66855" lon="-4.33003">
        <ele>4.6</ele>
        <time>2020-06-10T07:14:43Z</time>
      </trkpt>
      <trkpt lat="48.66856" lon="-4.33002">
        <ele>4.6</ele>
        <time>2020-06-10T07:14:44Z</time>
      </trkpt>
      <trkpt lat="48.66857" lon="-4.33002">
        <ele>4.6</ele>
        <time>2020-06-10T07:14:45Z</time>
      </trkpt>
      <trkpt lat="48.66857" lon="-4.33001">
        <ele>4.6</ele>
        <time>2020-06-10T07:14:46Z</time>
      </trkpt>
      <trkpt lat="48.66858" lon="-4.33">
        <ele>4.6</ele>
        <time>2020-06-10T07:14:47Z</time>
      </trkpt>
      <trkpt lat="48.66859" lon="-4.32999">
        <ele>4.7</ele>
        <time>2020-06-10T07:14:48Z</time>
      </trkpt>
      <trkpt lat="48.66859" lon="-4.32999">
        <ele>4.7</ele>
        <time>2020-06-10T07:14:49Z</time>
      </trkpt>
      <trkpt lat="48.6686" lon="-4.32998">
        <ele>4.7</ele>
        <time>2020-06-10T07:14:50Z</time>
      </trkpt>
      <trkpt lat="48.66861" lon="-4.32997">
        <ele>4.7</ele>
        <time>2020-06-10T07:14:51Z</time>
      </trkpt>
      <trkpt lat="48.66861" lon="-4.32997">
        <ele>4.7</ele>
        <time>2020-06-10T07:14:52Z</time>
      </trkpt>
      <trkpt lat="48.66862" lon="-4.32996">
        <ele>4.7</ele>
        <time>2020-06-10T07:14:53Z</time>
      </trkpt>
      <trkpt lat="48.66863" lon="-4.32995">
        <ele>4.7</ele>
        <time>2020-06-10T07:14:54Z</time>
      </trkpt>
      <trkpt lat="48.66862" lon="-4.32996">
        <ele>4.7</ele>
        <time>2020-06-10T07:14:55Z</time>
      </trkpt>
      <trkpt lat="48.66862" lon="-4.32997">
        <ele>4.7</ele>
        <time>2020-06-10T07:14:56Z</time>
      </trkpt>
      <trkpt lat="48.66861" lon="-4.32998">
        <ele>4.7</ele>
        <time>2020-06-10T07:14:57Z</time>
      </trkpt>
      <trkpt lat="48.66866" lon="-4.32995">
        <ele>4.7</ele>
        <time>2020-06-10T07:14:58Z</time>
      </trkpt>
      <trkpt lat="48.66872" lon="-4.32991">
        <ele>4.7</ele>
        <time>2020-06-10T07:14:59Z</time>
      </trkpt>
      <trkpt lat="48.66873" lon="-4.32991">
        <ele>4.8</ele>
        <time>2020-06-10T07:15:00Z</time>
      </trkpt>
      <trkpt lat="48.66873" lon="-4.32991">
        <ele>4.8</ele>
        <time>2020-06-10T07:15:01Z</time>
      </trkpt>
      <trkpt lat="48.66873" lon="-4.32991">
        <ele>4.8</ele>
        <time>2020-06-10T07:15:02Z</time>
      </trkpt>
      <trkpt lat="48.66875" lon="-4.32993">
        <ele>4.8</ele>
        <time>2020-06-10T07:15:03Z</time>
      </trkpt>
      <trkpt lat="48.66876" lon="-4.32993">
        <ele>4.8</ele>
        <time>2020-06-10T07:15:04Z</time>
      </trkpt>
      <trkpt lat="48.66876" lon="-4.32994">
        <ele>4.8</ele>
        <time>2020-06-10T07:15:05Z</time>
      </trkpt>
      <trkpt lat="48.66876" lon="-4.32996">
        <ele>4.8</ele>
        <time>2020-06-10T07:15:06Z</time>
      </trkpt>
      <trkpt lat="48.66877" lon="-4.32997">
        <ele>4.8</ele>
        <time>2020-06-10T07:15:07Z</time>
      </trkpt>
      <trkpt lat="48.66877" lon="-4.32998">
        <ele>4.8</ele>
        <time>2020-06-10T07:15:08Z</time>
      </trkpt>
      <trkpt lat="48.66879" lon="-4.32999">
        <ele>4.8</ele>
        <time>2020-06-10T07:15:09Z</time>
      </trkpt>
      <trkpt lat="48.66879" lon="-4.33">
        <ele>4.8</ele>
        <time>2020-06-10T07:15:23Z</time>
      </trkpt>
      <trkpt lat="48.6688" lon="-4.33001">
        <ele>4.8</ele>
        <time>2020-06-10T07:15:24Z</time>
      </trkpt>
      <trkpt lat="48.66881" lon="-4.33003">
        <ele>4.8</ele>
        <time>2020-06-10T07:15:25Z</time>
      </trkpt>
      <trkpt lat="48.66881" lon="-4.33004">
        <ele>4.8</ele>
        <time>2020-06-10T07:15:26Z</time>
      </trkpt>
      <trkpt lat="48.66882" lon="-4.33006">
        <ele>4.8</ele>
        <time>2020-06-10T07:15:27Z</time>
      </trkpt>
      <trkpt lat="48.66882" lon="-4.33007">
        <ele>4.8</ele>
        <time>2020-06-10T07:15:28Z</time>
      </trkpt>
      <trkpt lat="48.66882" lon="-4.33008">
        <ele>4.8</ele>
        <time>2020-06-10T07:15:29Z</time>
      </trkpt>
      <trkpt lat="48.66881" lon="-4.33008">
        <ele>4.8</ele>
        <time>2020-06-10T07:15:30Z</time>
      </trkpt>
      <trkpt lat="48.66881" lon="-4.33008">
        <ele>4.8</ele>
        <time>2020-06-10T07:15:31Z</time>
      </trkpt>
      <trkpt lat="48.66882" lon="-4.33007">
        <ele>4.8</ele>
        <time>2020-06-10T07:15:32Z</time>
      </trkpt>
      <trkpt lat="48.66882" lon="-4.33007">
        <ele>4.8</ele>
        <time>2020-06-10T07:15:33Z</time>
      </trkpt>
      <trkpt lat="48.66882" lon="-4.33007">
        <ele>4.8</ele>
        <time>2020-06-10T07:15:34Z</time>
      </trkpt>
      <trkpt lat="48.66882" lon="-4.33008">
        <ele>4.8</ele>
        <time>2020-06-10T07:15:35Z</time>
      </trkpt>
      <trkpt lat="48.66882" lon="-4.33008">
        <ele>4.8</ele>
        <time>2020-06-10T07:15:36Z</time>
      </trkpt>
      <trkpt lat="48.66882" lon="-4.33008">
        <ele>4.8</ele>
        <time>2020-06-10T07:15:37Z</time>
      </trkpt>
      <trkpt lat="48.66882" lon="-4.33009">
        <ele>4.9</ele>
        <time>2020-06-10T07:15:38Z</time>
      </trkpt>
      <trkpt lat="48.66881" lon="-4.33009">
        <ele>4.9</ele>
        <time>2020-06-10T07:15:39Z</time>
      </trkpt>
      <trkpt lat="48.66881" lon="-4.3301">
        <ele>4.9</ele>
        <time>2020-06-10T07:15:40Z</time>
      </trkpt>
      <trkpt lat="48.6688" lon="-4.33012">
        <ele>5.1</ele>
        <time>2020-06-10T07:15:41Z</time>
      </trkpt>
      <trkpt lat="48.66879" lon="-4.33012">
        <ele>5.1</ele>
        <time>2020-06-10T07:15:42Z</time>
      </trkpt>
      <trkpt lat="48.66875" lon="-4.33016">
        <ele>4.7</ele>
        <time>2020-06-10T07:15:45Z</time>
      </trkpt>
      <trkpt lat="48.66874" lon="-4.33016">
        <ele>4.6</ele>
        <time>2020-06-10T07:15:46Z</time>
      </trkpt>
      <trkpt lat="48.66874" lon="-4.33017">
        <ele>4.6</ele>
        <time>2020-06-10T07:15:47Z</time>
      </trkpt>
      <trkpt lat="48.66873" lon="-4.33017">
        <ele>4.6</ele>
        <time>2020-06-10T07:15:48Z</time>
      </trkpt>
      <trkpt lat="48.66871" lon="-4.33018">
        <ele>4.1</ele>
        <time>2020-06-10T07:15:49Z</time>
      </trkpt>
      <trkpt lat="48.66871" lon="-4.33018">
        <ele>4.1</ele>
        <time>2020-06-10T07:15:50Z</time>
      </trkpt>
      <trkpt lat="48.6687" lon="-4.33018">
        <ele>4.1</ele>
        <time>2020-06-10T07:15:51Z</time>
      </trkpt>
      <trkpt lat="48.66869" lon="-4.33019">
        <ele>3.4</ele>
        <time>2020-06-10T07:15:52Z</time>
      </trkpt>
      <trkpt lat="48.66868" lon="-4.33019">
        <ele>3.4</ele>
        <time>2020-06-10T07:15:53Z</time>
      </trkpt>
      <trkpt lat="48.66867" lon="-4.3302">
        <ele>3.4</ele>
        <time>2020-06-10T07:15:54Z</time>
      </trkpt>
      <trkpt lat="48.66866" lon="-4.33021">
        <ele>3.9</ele>
        <time>2020-06-10T07:15:55Z</time>
      </trkpt>
      <trkpt lat="48.66865" lon="-4.33021">
        <ele>3.2</ele>
        <time>2020-06-10T07:15:56Z</time>
      </trkpt>
      <trkpt lat="48.66864" lon="-4.33022">
        <ele>3.2</ele>
        <time>2020-06-10T07:15:57Z</time>
      </trkpt>
      <trkpt lat="48.66863" lon="-4.33022">
        <ele>2.6</ele>
        <time>2020-06-10T07:15:58Z</time>
      </trkpt>
      <trkpt lat="48.66862" lon="-4.33023">
        <ele>2.6</ele>
        <time>2020-06-10T07:15:59Z</time>
      </trkpt>
      <trkpt lat="48.66861" lon="-4.33023">
        <ele>2.6</ele>
        <time>2020-06-10T07:16:00Z</time>
      </trkpt>
      <trkpt lat="48.6686" lon="-4.33024">
        <ele>2</ele>
        <time>2020-06-10T07:16:01Z</time>
      </trkpt>
      <trkpt lat="48.6686" lon="-4.33024">
        <ele>2</ele>
        <time>2020-06-10T07:16:02Z</time>
      </trkpt>
      <trkpt lat="48.66859" lon="-4.33024">
        <ele>2</ele>
        <time>2020-06-10T07:16:03Z</time>
      </trkpt>
      <trkpt lat="48.66859" lon="-4.33026">
        <ele>2.7</ele>
        <time>2020-06-10T07:16:04Z</time>
      </trkpt>
      <trkpt lat="48.66859" lon="-4.33027">
        <ele>2.6</ele>
        <time>2020-06-10T07:16:05Z</time>
      </trkpt>
      <trkpt lat="48.66858" lon="-4.33028">
        <ele>2.6</ele>
        <time>2020-06-10T07:16:06Z</time>
      </trkpt>
      <trkpt lat="48.66858" lon="-4.33028">
        <ele>2.6</ele>
        <time>2020-06-10T07:16:07Z</time>
      </trkpt>
      <trkpt lat="48.66857" lon="-4.33029">
        <ele>3</ele>
        <time>2020-06-10T07:16:08Z</time>
      </trkpt>
      <trkpt lat="48.66858" lon="-4.33029">
        <ele>3.3</ele>
        <time>2020-06-10T07:16:09Z</time>
      </trkpt>
      <trkpt lat="48.66859" lon="-4.33029">
        <ele>3.3</ele>
        <time>2020-06-10T07:16:10Z</time>
      </trkpt>
      <trkpt lat="48.6686" lon="-4.33029">
        <ele>3.3</ele>
        <time>2020-06-10T07:16:11Z</time>
      </trkpt>
      <trkpt lat="48.6686" lon="-4.33029">
        <ele>3.3</ele>
        <time>2020-06-10T07:16:12Z</time>
      </trkpt>
      <trkpt lat="48.66859" lon="-4.3303">
        <ele>3.3</ele>
        <time>2020-06-10T07:16:13Z</time>
      </trkpt>
      <trkpt lat="48.66858" lon="-4.33032">
        <ele>3.3</ele>
        <time>2020-06-10T07:16:14Z</time>
      </trkpt>
      <trkpt lat="48.66859" lon="-4.33032">
        <ele>3.3</ele>
        <time>2020-06-10T07:16:15Z</time>
      </trkpt>
      <trkpt lat="48.6686" lon="-4.33033">
        <ele>3.3</ele>
        <time>2020-06-10T07:16:16Z</time>
      </trkpt>
      <trkpt lat="48.6686" lon="-4.33034">
        <ele>3.9</ele>
        <time>2020-06-10T07:16:17Z</time>
      </trkpt>
      <trkpt lat="48.6686" lon="-4.33033">
        <ele>3.9</ele>
        <time>2020-06-10T07:16:18Z</time>
      </trkpt>
      <trkpt lat="48.66859" lon="-4.33033">
        <ele>3.9</ele>
        <time>2020-06-10T07:16:19Z</time>
      </trkpt>
      <trkpt lat="48.66858" lon="-4.33034">
        <ele>3.9</ele>
        <time>2020-06-10T07:16:20Z</time>
      </trkpt>
      <trkpt lat="48.66857" lon="-4.33034">
        <ele>3.7</ele>
        <time>2020-06-10T07:16:21Z</time>
      </trkpt>
      <trkpt lat="48.66857" lon="-4.33035">
        <ele>3.7</ele>
        <time>2020-06-10T07:16:33Z</time>
      </trkpt>
      <trkpt lat="48.66856" lon="-4.33035">
        <ele>3.7</ele>
        <time>2020-06-10T07:16:34Z</time>
      </trkpt>
      <trkpt lat="48.66854" lon="-4.33037">
        <ele>3.5</ele>
        <time>2020-06-10T07:16:35Z</time>
      </trkpt>
      <trkpt lat="48.66853" lon="-4.33037">
        <ele>3.5</ele>
        <time>2020-06-10T07:16:36Z</time>
      </trkpt>
      <trkpt lat="48.66852" lon="-4.33037">
        <ele>4.2</ele>
        <time>2020-06-10T07:16:37Z</time>
      </trkpt>
      <trkpt lat="48.66851" lon="-4.33038">
        <ele>4.1</ele>
        <time>2020-06-10T07:16:38Z</time>
      </trkpt>
      <trkpt lat="48.6685" lon="-4.33038">
        <ele>4.1</ele>
        <time>2020-06-10T07:16:39Z</time>
      </trkpt>
      <trkpt lat="48.6685" lon="-4.33038">
        <ele>4.1</ele>
        <time>2020-06-10T07:16:40Z</time>
      </trkpt>
      <trkpt lat="48.6685" lon="-4.33038">
        <ele>4.1</ele>
        <time>2020-06-10T07:16:41Z</time>
      </trkpt>
      <trkpt lat="48.66849" lon="-4.33039">
        <ele>4</ele>
        <time>2020-06-10T07:16:42Z</time>
      </trkpt>
      <trkpt lat="48.66849" lon="-4.33039">
        <ele>4</ele>
        <time>2020-06-10T07:16:43Z</time>
      </trkpt>
      <trkpt lat="48.66848" lon="-4.3304">
        <ele>4</ele>
        <time>2020-06-10T07:16:44Z</time>
      </trkpt>
      <trkpt lat="48.66848" lon="-4.3304">
        <ele>4</ele>
        <time>2020-06-10T07:16:45Z</time>
      </trkpt>
      <trkpt lat="48.66848" lon="-4.3304">
        <ele>4</ele>
        <time>2020-06-10T07:16:46Z</time>
      </trkpt>
      <trkpt lat="48.66848" lon="-4.3304">
        <ele>4</ele>
        <time>2020-06-10T07:16:47Z</time>
      </trkpt>
      <trkpt lat="48.66852" lon="-4.33041">
        <ele>4.2</ele>
        <time>2020-06-10T07:16:48Z</time>
      </trkpt>
      <trkpt lat="48.66852" lon="-4.33041">
        <ele>4.2</ele>
        <time>2020-06-10T07:16:49Z</time>
      </trkpt>
      <trkpt lat="48.66853" lon="-4.33042">
        <ele>4.6</ele>
        <time>2020-06-10T07:16:50Z</time>
      </trkpt>
      <trkpt lat="48.66853" lon="-4.33042">
        <ele>4.6</ele>
        <time>2020-06-10T07:16:51Z</time>
      </trkpt>
      <trkpt lat="48.66853" lon="-4.33042">
        <ele>4.2</ele>
        <time>2020-06-10T07:16:52Z</time>
      </trkpt>
      <trkpt lat="48.66853" lon="-4.33041">
        <ele>4.2</ele>
        <time>2020-06-10T07:16:53Z</time>
      </trkpt>
      <trkpt lat="48.66853" lon="-4.33042">
        <ele>4.1</ele>
        <time>2020-06-10T07:16:54Z</time>
      </trkpt>
      <trkpt lat="48.66853" lon="-4.33041">
        <ele>4.1</ele>
        <time>2020-06-10T07:16:55Z</time>
      </trkpt>
      <trkpt lat="48.66853" lon="-4.3304">
        <ele>4.1</ele>
        <time>2020-06-10T07:16:56Z</time>
      </trkpt>
      <trkpt lat="48.66854" lon="-4.33038">
        <ele>4.1</ele>
        <time>2020-06-10T07:16:57Z</time>
      </trkpt>
      <trkpt lat="48.66855" lon="-4.33037">
        <ele>3.5</ele>
        <time>2020-06-10T07:16:58Z</time>
      </trkpt>
      <trkpt lat="48.66855" lon="-4.33036">
        <ele>3.6</ele>
        <time>2020-06-10T07:16:59Z</time>
      </trkpt>
      <trkpt lat="48.66851" lon="-4.33036">
        <ele>3.3</ele>
        <time>2020-06-10T07:17:00Z</time>
      </trkpt>
      <trkpt lat="48.6685" lon="-4.33037">
        <ele>3.3</ele>
        <time>2020-06-10T07:17:01Z</time>
      </trkpt>
      <trkpt lat="48.6685" lon="-4.33037">
        <ele>3.3</ele>
        <time>2020-06-10T07:17:02Z</time>
      </trkpt>
      <trkpt lat="48.6685" lon="-4.33037">
        <ele>3.3</ele>
        <time>2020-06-10T07:17:03Z</time>
      </trkpt>
      <trkpt lat="48.66851" lon="-4.33037">
        <ele>3.3</ele>
        <time>2020-06-10T07:17:04Z</time>
      </trkpt>
      <trkpt lat="48.66852" lon="-4.33035">
        <ele>3.3</ele>
        <time>2020-06-10T07:17:05Z</time>
      </trkpt>
      <trkpt lat="48.66853" lon="-4.33035">
        <ele>3.5</ele>
        <time>2020-06-10T07:17:06Z</time>
      </trkpt>
      <trkpt lat="48.66854" lon="-4.33035">
        <ele>3.5</ele>
        <time>2020-06-10T07:17:07Z</time>
      </trkpt>
      <trkpt lat="48.66854" lon="-4.33035">
        <ele>3.5</ele>
        <time>2020-06-10T07:17:08Z</time>
      </trkpt>
      <trkpt lat="48.66854" lon="-4.33035">
        <ele>3.5</ele>
        <time>2020-06-10T07:17:09Z</time>
      </trkpt>
      <trkpt lat="48.66855" lon="-4.33035">
        <ele>3.6</ele>
        <time>2020-06-10T07:17:10Z</time>
      </trkpt>
      <trkpt lat="48.66856" lon="-4.33034">
        <ele>3.6</ele>
        <time>2020-06-10T07:17:11Z</time>
      </trkpt>
      <trkpt lat="48.66857" lon="-4.33034">
        <ele>3.6</ele>
        <time>2020-06-10T07:17:12Z</time>
      </trkpt>
      <trkpt lat="48.66858" lon="-4.33035">
        <ele>3.8</ele>
        <time>2020-06-10T07:17:13Z</time>
      </trkpt>
      <trkpt lat="48.66859" lon="-4.33035">
        <ele>3.8</ele>
        <time>2020-06-10T07:17:14Z</time>
      </trkpt>
      <trkpt lat="48.66859" lon="-4.33035">
        <ele>3.8</ele>
        <time>2020-06-10T07:17:15Z</time>
      </trkpt>
      <trkpt lat="48.6686" lon="-4.33035">
        <ele>3.8</ele>
        <time>2020-06-10T07:17:16Z</time>
      </trkpt>
      <trkpt lat="48.6686" lon="-4.33036">
        <ele>3.8</ele>
        <time>2020-06-10T07:17:17Z</time>
      </trkpt>
      <trkpt lat="48.66861" lon="-4.33036">
        <ele>4.1</ele>
        <time>2020-06-10T07:17:18Z</time>
      </trkpt>
      <trkpt lat="48.66861" lon="-4.33036">
        <ele>4.1</ele>
        <time>2020-06-10T07:17:19Z</time>
      </trkpt>
      <trkpt lat="48.66862" lon="-4.33036">
        <ele>4.1</ele>
        <time>2020-06-10T07:17:20Z</time>
      </trkpt>
      <trkpt lat="48.66862" lon="-4.33036">
        <ele>4.1</ele>
        <time>2020-06-10T07:17:21Z</time>
      </trkpt>
      <trkpt lat="48.66863" lon="-4.33037">
        <ele>4.1</ele>
        <time>2020-06-10T07:17:22Z</time>
      </trkpt>
      <trkpt lat="48.66864" lon="-4.33037">
        <ele>4.3</ele>
        <time>2020-06-10T07:17:23Z</time>
      </trkpt>
      <trkpt lat="48.66865" lon="-4.33038">
        <ele>4.5</ele>
        <time>2020-06-10T07:17:24Z</time>
      </trkpt>
      <trkpt lat="48.66866" lon="-4.33038">
        <ele>4.5</ele>
        <time>2020-06-10T07:17:25Z</time>
      </trkpt>
      <trkpt lat="48.66867" lon="-4.33038">
        <ele>4.7</ele>
        <time>2020-06-10T07:17:26Z</time>
      </trkpt>
      <trkpt lat="48.66867" lon="-4.33038">
        <ele>4.7</ele>
        <time>2020-06-10T07:17:27Z</time>
      </trkpt>
      <trkpt lat="48.66868" lon="-4.33038">
        <ele>4.7</ele>
        <time>2020-06-10T07:17:28Z</time>
      </trkpt>
      <trkpt lat="48.66869" lon="-4.33038">
        <ele>4.8</ele>
        <time>2020-06-10T07:17:29Z</time>
      </trkpt>
      <trkpt lat="48.6687" lon="-4.33038">
        <ele>4.8</ele>
        <time>2020-06-10T07:17:30Z</time>
      </trkpt>
      <trkpt lat="48.6687" lon="-4.33038">
        <ele>4.8</ele>
        <time>2020-06-10T07:17:31Z</time>
      </trkpt>
      <trkpt lat="48.66871" lon="-4.33038">
        <ele>4.8</ele>
        <time>2020-06-10T07:17:32Z</time>
      </trkpt>
      <trkpt lat="48.66871" lon="-4.33037">
        <ele>4.8</ele>
        <time>2020-06-10T07:17:33Z</time>
      </trkpt>
      <trkpt lat="48.66871" lon="-4.33037">
        <ele>4.8</ele>
        <time>2020-06-10T07:17:34Z</time>
      </trkpt>
      <trkpt lat="48.66871" lon="-4.33038">
        <ele>4.8</ele>
        <time>2020-06-10T07:17:35Z</time>
      </trkpt>
      <trkpt lat="48.66871" lon="-4.33038">
        <ele>4.8</ele>
        <time>2020-06-10T07:17:36Z</time>
      </trkpt>
      <trkpt lat="48.66871" lon="-4.33038">
        <ele>4.8</ele>
        <time>2020-06-10T07:17:37Z</time>
      </trkpt>
      <trkpt lat="48.66871" lon="-4.33038">
        <ele>4.8</ele>
        <time>2020-06-10T07:17:38Z</time>
      </trkpt>
      <trkpt lat="48.66871" lon="-4.33038">
        <ele>4.8</ele>
        <time>2020-06-10T07:17:39Z</time>
      </trkpt>
      <trkpt lat="48.6689" lon="-4.33014">
        <ele>5.5</ele>
        <time>2020-06-10T07:33:14Z</time>
      </trkpt>
      <trkpt lat="48.66889" lon="-4.33015">
        <ele>5.5</ele>
        <time>2020-06-10T07:33:15Z</time>
      </trkpt>
      <trkpt lat="48.66888" lon="-4.33017">
        <ele>5.7</ele>
        <time>2020-06-10T07:33:16Z</time>
      </trkpt>
      <trkpt lat="48.66886" lon="-4.33018">
        <ele>5.7</ele>
        <time>2020-06-10T07:33:17Z</time>
      </trkpt>
      <trkpt lat="48.66886" lon="-4.33019">
        <ele>5.7</ele>
        <time>2020-06-10T07:33:18Z</time>
      </trkpt>
      <trkpt lat="48.66885" lon="-4.3302">
        <ele>5.7</ele>
        <time>2020-06-10T07:33:19Z</time>
      </trkpt>
      <trkpt lat="48.66883" lon="-4.33021">
        <ele>5.7</ele>
        <time>2020-06-10T07:33:20Z</time>
      </trkpt>
      <trkpt lat="48.66882" lon="-4.33022">
        <ele>5.7</ele>
        <time>2020-06-10T07:33:21Z</time>
      </trkpt>
      <trkpt lat="48.66882" lon="-4.33023">
        <ele>5.7</ele>
        <time>2020-06-10T07:33:22Z</time>
      </trkpt>
      <trkpt lat="48.66879" lon="-4.33025">
        <ele>5.5</ele>
        <time>2020-06-10T07:33:23Z</time>
      </trkpt>
      <trkpt lat="48.66878" lon="-4.33025">
        <ele>5.5</ele>
        <time>2020-06-10T07:33:24Z</time>
      </trkpt>
      <trkpt lat="48.66877" lon="-4.33027">
        <ele>5.3</ele>
        <time>2020-06-10T07:33:25Z</time>
      </trkpt>
      <trkpt lat="48.66875" lon="-4.33028">
        <ele>5.3</ele>
        <time>2020-06-10T07:33:26Z</time>
      </trkpt>
      <trkpt lat="48.66873" lon="-4.33031">
        <ele>5</ele>
        <time>2020-06-10T07:33:27Z</time>
      </trkpt>
      <trkpt lat="48.66871" lon="-4.33032">
        <ele>4.7</ele>
        <time>2020-06-10T07:33:28Z</time>
      </trkpt>
      <trkpt lat="48.66868" lon="-4.33034">
        <ele>4.5</ele>
        <time>2020-06-10T07:33:29Z</time>
      </trkpt>
      <trkpt lat="48.66867" lon="-4.33035">
        <ele>4.5</ele>
        <time>2020-06-10T07:33:30Z</time>
      </trkpt>
      <trkpt lat="48.66864" lon="-4.33037">
        <ele>4.3</ele>
        <time>2020-06-10T07:33:31Z</time>
      </trkpt>
      <trkpt lat="48.66861" lon="-4.33038">
        <ele>4.4</ele>
        <time>2020-06-10T07:33:32Z</time>
      </trkpt>
      <trkpt lat="48.66857" lon="-4.3304">
        <ele>4.2</ele>
        <time>2020-06-10T07:33:33Z</time>
      </trkpt>
      <trkpt lat="48.66853" lon="-4.33041">
        <ele>4.1</ele>
        <time>2020-06-10T07:33:34Z</time>
      </trkpt>
      <trkpt lat="48.66849" lon="-4.33043">
        <ele>4.5</ele>
        <time>2020-06-10T07:33:35Z</time>
      </trkpt>
      <trkpt lat="48.66843" lon="-4.33045">
        <ele>4.4</ele>
        <time>2020-06-10T07:33:36Z</time>
      </trkpt>
      <trkpt lat="48.66838" lon="-4.33046">
        <ele>4.5</ele>
        <time>2020-06-10T07:33:37Z</time>
      </trkpt>
      <trkpt lat="48.66833" lon="-4.33049">
        <ele>4.2</ele>
        <time>2020-06-10T07:33:38Z</time>
      </trkpt>
      <trkpt lat="48.66827" lon="-4.33051">
        <ele>4.1</ele>
        <time>2020-06-10T07:33:39Z</time>
      </trkpt>
      <trkpt lat="48.66822" lon="-4.33053">
        <ele>3.9</ele>
        <time>2020-06-10T07:33:40Z</time>
      </trkpt>
      <trkpt lat="48.66819" lon="-4.33054">
        <ele>3.8</ele>
        <time>2020-06-10T07:33:41Z</time>
      </trkpt>
      <trkpt lat="48.66815" lon="-4.33055">
        <ele>3.8</ele>
        <time>2020-06-10T07:33:42Z</time>
      </trkpt>
      <trkpt lat="48.6681" lon="-4.33057">
        <ele>3.8</ele>
        <time>2020-06-10T07:33:43Z</time>
      </trkpt>
      <trkpt lat="48.66805" lon="-4.33059">
        <ele>3.9</ele>
        <time>2020-06-10T07:33:44Z</time>
      </trkpt>
      <trkpt lat="48.66801" lon="-4.33062">
        <ele>3.8</ele>
        <time>2020-06-10T07:33:45Z</time>
      </trkpt>
      <trkpt lat="48.66796" lon="-4.33066">
        <ele>3.9</ele>
        <time>2020-06-10T07:33:46Z</time>
      </trkpt>
      <trkpt lat="48.66792" lon="-4.33068">
        <ele>4</ele>
        <time>2020-06-10T07:33:47Z</time>
      </trkpt>
      <trkpt lat="48.66787" lon="-4.33071">
        <ele>4</ele>
        <time>2020-06-10T07:33:48Z</time>
      </trkpt>
      <trkpt lat="48.66782" lon="-4.33073">
        <ele>4</ele>
        <time>2020-06-10T07:33:49Z</time>
      </trkpt>
      <trkpt lat="48.66777" lon="-4.33076">
        <ele>4</ele>
        <time>2020-06-10T07:33:50Z</time>
      </trkpt>
      <trkpt lat="48.66773" lon="-4.33078">
        <ele>4</ele>
        <time>2020-06-10T07:33:51Z</time>
      </trkpt>
      <trkpt lat="48.6677" lon="-4.33077">
        <ele>4</ele>
        <time>2020-06-10T07:33:52Z</time>
      </trkpt>
      <trkpt lat="48.66768" lon="-4.33074">
        <ele>4</ele>
        <time>2020-06-10T07:33:53Z</time>
      </trkpt>
      <trkpt lat="48.66765" lon="-4.33072">
        <ele>3.9</ele>
        <time>2020-06-10T07:33:54Z</time>
      </trkpt>
      <trkpt lat="48.66765" lon="-4.33071">
        <ele>3.9</ele>
        <time>2020-06-10T07:33:55Z</time>
      </trkpt>
      <trkpt lat="48.66764" lon="-4.33069">
        <ele>3.9</ele>
        <time>2020-06-10T07:33:56Z</time>
      </trkpt>
      <trkpt lat="48.66763" lon="-4.33067">
        <ele>3.9</ele>
        <time>2020-06-10T07:33:57Z</time>
      </trkpt>
      <trkpt lat="48.66761" lon="-4.33064">
        <ele>3.9</ele>
        <time>2020-06-10T07:33:58Z</time>
      </trkpt>
      <trkpt lat="48.66761" lon="-4.33063">
        <ele>3.9</ele>
        <time>2020-06-10T07:33:59Z</time>
      </trkpt>
      <trkpt lat="48.6676" lon="-4.33063">
        <ele>3.9</ele>
        <time>2020-06-10T07:34:00Z</time>
      </trkpt>
      <trkpt lat="48.66759" lon="-4.33064">
        <ele>3.9</ele>
        <time>2020-06-10T07:34:01Z</time>
      </trkpt>
      <trkpt lat="48.66758" lon="-4.33065">
        <ele>3.9</ele>
        <time>2020-06-10T07:34:02Z</time>
      </trkpt>
      <trkpt lat="48.66757" lon="-4.33065">
        <ele>3.9</ele>
        <time>2020-06-10T07:34:03Z</time>
      </trkpt>
      <trkpt lat="48.66757" lon="-4.33065">
        <ele>3.9</ele>
        <time>2020-06-10T07:34:04Z</time>
      </trkpt>
      <trkpt lat="48.66757" lon="-4.33065">
        <ele>3.9</ele>
        <time>2020-06-10T07:34:05Z</time>
      </trkpt>
      <trkpt lat="48.66757" lon="-4.33065">
        <ele>3.9</ele>
        <time>2020-06-10T07:34:06Z</time>
      </trkpt>
      <trkpt lat="48.66756" lon="-4.33066">
        <ele>3.9</ele>
        <time>2020-06-10T07:34:07Z</time>
      </trkpt>
      <trkpt lat="48.66756" lon="-4.33066">
        <ele>3.9</ele>
        <time>2020-06-10T07:34:08Z</time>
      </trkpt>
      <trkpt lat="48.66756" lon="-4.33066">
        <ele>3.9</ele>
        <time>2020-06-10T07:34:09Z</time>
      </trkpt>
      <trkpt lat="48.66756" lon="-4.33066">
        <ele>3.9</ele>
        <time>2020-06-10T07:34:10Z</time>
      </trkpt>
      <trkpt lat="48.66755" lon="-4.33066">
        <ele>3.9</ele>
        <time>2020-06-10T07:34:11Z</time>
      </trkpt>
      <trkpt lat="48.66755" lon="-4.33067">
        <ele>3.9</ele>
        <time>2020-06-10T07:34:12Z</time>
      </trkpt>
      <trkpt lat="48.66755" lon="-4.33067">
        <ele>3.9</ele>
        <time>2020-06-10T07:34:13Z</time>
      </trkpt>
      <trkpt lat="48.66755" lon="-4.33067">
        <ele>3.9</ele>
        <time>2020-06-10T07:34:14Z</time>
      </trkpt>
      <trkpt lat="48.66755" lon="-4.33067">
        <ele>3.9</ele>
        <time>2020-06-10T07:34:15Z</time>
      </trkpt>
      <trkpt lat="48.66748" lon="-4.33072">
        <ele>3.9</ele>
        <time>2020-06-10T07:34:16Z</time>
      </trkpt>
      <trkpt lat="48.66751" lon="-4.33073">
        <ele>3.9</ele>
        <time>2020-06-10T07:34:17Z</time>
      </trkpt>
      <trkpt lat="48.66744" lon="-4.33077">
        <ele>3.9</ele>
        <time>2020-06-10T07:34:18Z</time>
      </trkpt>
      <trkpt lat="48.66747" lon="-4.33077">
        <ele>3.9</ele>
        <time>2020-06-10T07:34:19Z</time>
      </trkpt>
      <trkpt lat="48.66748" lon="-4.33077">
        <ele>3.9</ele>
        <time>2020-06-10T07:34:20Z</time>
      </trkpt>
      <trkpt lat="48.66754" lon="-4.33077">
        <ele>3.9</ele>
        <time>2020-06-10T07:34:21Z</time>
      </trkpt>
      <trkpt lat="48.66756" lon="-4.33077">
        <ele>3.9</ele>
        <time>2020-06-10T07:34:22Z</time>
      </trkpt>
      <trkpt lat="48.66762" lon="-4.33077">
        <ele>3.9</ele>
        <time>2020-06-10T07:34:23Z</time>
      </trkpt>
      <trkpt lat="48.66764" lon="-4.33078">
        <ele>3.9</ele>
        <time>2020-06-10T07:34:24Z</time>
      </trkpt>
      <trkpt lat="48.66766" lon="-4.33078">
        <ele>3.9</ele>
        <time>2020-06-10T07:34:25Z</time>
      </trkpt>
      <trkpt lat="48.66765" lon="-4.33078">
        <ele>3.9</ele>
        <time>2020-06-10T07:34:26Z</time>
      </trkpt>
      <trkpt lat="48.66765" lon="-4.33078">
        <ele>3.9</ele>
        <time>2020-06-10T07:34:27Z</time>
      </trkpt>
      <trkpt lat="48.66766" lon="-4.33078">
        <ele>3.9</ele>
        <time>2020-06-10T07:34:28Z</time>
      </trkpt>
      <trkpt lat="48.66768" lon="-4.33078">
        <ele>3.9</ele>
        <time>2020-06-10T07:34:29Z</time>
      </trkpt>
      <trkpt lat="48.66772" lon="-4.33077">
        <ele>3.9</ele>
        <time>2020-06-10T07:34:30Z</time>
      </trkpt>
      <trkpt lat="48.66773" lon="-4.33076">
        <ele>3.9</ele>
        <time>2020-06-10T07:34:31Z</time>
      </trkpt>
      <trkpt lat="48.66776" lon="-4.33073">
        <ele>3.9</ele>
        <time>2020-06-10T07:34:32Z</time>
      </trkpt>
      <trkpt lat="48.6678" lon="-4.33071">
        <ele>3.9</ele>
        <time>2020-06-10T07:34:33Z</time>
      </trkpt>
      <trkpt lat="48.66782" lon="-4.3307">
        <ele>3.9</ele>
        <time>2020-06-10T07:34:34Z</time>
      </trkpt>
      <trkpt lat="48.66786" lon="-4.33071">
        <ele>3.9</ele>
        <time>2020-06-10T07:34:35Z</time>
      </trkpt>
      <trkpt lat="48.66791" lon="-4.33069">
        <ele>3.9</ele>
        <time>2020-06-10T07:34:36Z</time>
      </trkpt>
      <trkpt lat="48.66796" lon="-4.33068">
        <ele>3.9</ele>
        <time>2020-06-10T07:34:37Z</time>
      </trkpt>
      <trkpt lat="48.66797" lon="-4.33068">
        <ele>3.9</ele>
        <time>2020-06-10T07:34:38Z</time>
      </trkpt>
      <trkpt lat="48.66798" lon="-4.33069">
        <ele>3.9</ele>
        <time>2020-06-10T07:34:39Z</time>
      </trkpt>
      <trkpt lat="48.66799" lon="-4.3307">
        <ele>3.9</ele>
        <time>2020-06-10T07:34:40Z</time>
      </trkpt>
      <trkpt lat="48.668" lon="-4.33071">
        <ele>3.9</ele>
        <time>2020-06-10T07:34:41Z</time>
      </trkpt>
      <trkpt lat="48.66801" lon="-4.33073">
        <ele>4</ele>
        <time>2020-06-10T07:34:42Z</time>
      </trkpt>
      <trkpt lat="48.66803" lon="-4.33074">
        <ele>4</ele>
        <time>2020-06-10T07:34:43Z</time>
      </trkpt>
      <trkpt lat="48.66803" lon="-4.33074">
        <ele>4</ele>
        <time>2020-06-10T07:34:44Z</time>
      </trkpt>
      <trkpt lat="48.66804" lon="-4.33076">
        <ele>4</ele>
        <time>2020-06-10T07:34:45Z</time>
      </trkpt>
      <trkpt lat="48.66805" lon="-4.33076">
        <ele>4</ele>
        <time>2020-06-10T07:34:46Z</time>
      </trkpt>
      <trkpt lat="48.66805" lon="-4.33077">
        <ele>4</ele>
        <time>2020-06-10T07:34:47Z</time>
      </trkpt>
      <trkpt lat="48.66805" lon="-4.33077">
        <ele>4</ele>
        <time>2020-06-10T07:34:48Z</time>
      </trkpt>
      <trkpt lat="48.66806" lon="-4.33077">
        <ele>4</ele>
        <time>2020-06-10T07:34:49Z</time>
      </trkpt>
      <trkpt lat="48.66807" lon="-4.33078">
        <ele>4.1</ele>
        <time>2020-06-10T07:34:50Z</time>
      </trkpt>
      <trkpt lat="48.66807" lon="-4.33078">
        <ele>4.1</ele>
        <time>2020-06-10T07:34:51Z</time>
      </trkpt>
      <trkpt lat="48.66809" lon="-4.33078">
        <ele>4.1</ele>
        <time>2020-06-10T07:34:52Z</time>
      </trkpt>
      <trkpt lat="48.66811" lon="-4.33077">
        <ele>4.1</ele>
        <time>2020-06-10T07:34:53Z</time>
      </trkpt>
      <trkpt lat="48.66812" lon="-4.33077">
        <ele>4.1</ele>
        <time>2020-06-10T07:34:54Z</time>
      </trkpt>
      <trkpt lat="48.66814" lon="-4.33077">
        <ele>4.1</ele>
        <time>2020-06-10T07:34:55Z</time>
      </trkpt>
      <trkpt lat="48.66814" lon="-4.33077">
        <ele>4.1</ele>
        <time>2020-06-10T07:34:56Z</time>
      </trkpt>
      <trkpt lat="48.66814" lon="-4.33076">
        <ele>4.1</ele>
        <time>2020-06-10T07:34:57Z</time>
      </trkpt>
      <trkpt lat="48.66814" lon="-4.33076">
        <ele>4.1</ele>
        <time>2020-06-10T07:34:58Z</time>
      </trkpt>
      <trkpt lat="48.66815" lon="-4.33076">
        <ele>4.1</ele>
        <time>2020-06-10T07:34:59Z</time>
      </trkpt>
      <trkpt lat="48.66816" lon="-4.33077">
        <ele>4.1</ele>
        <time>2020-06-10T07:35:00Z</time>
      </trkpt>
      <trkpt lat="48.66817" lon="-4.33078">
        <ele>4.1</ele>
        <time>2020-06-10T07:35:01Z</time>
      </trkpt>
      <trkpt lat="48.66817" lon="-4.33079">
        <ele>4.1</ele>
        <time>2020-06-10T07:35:02Z</time>
      </trkpt>
      <trkpt lat="48.66818" lon="-4.33079">
        <ele>4.1</ele>
        <time>2020-06-10T07:35:03Z</time>
      </trkpt>
      <trkpt lat="48.66818" lon="-4.33079">
        <ele>4.1</ele>
        <time>2020-06-10T07:35:04Z</time>
      </trkpt>
      <trkpt lat="48.66846" lon="-4.33064">
        <ele>4.6</ele>
        <time>2020-06-10T07:36:18Z</time>
      </trkpt>
      <trkpt lat="48.66847" lon="-4.33064">
        <ele>4.6</ele>
        <time>2020-06-10T07:36:19Z</time>
      </trkpt>
      <trkpt lat="48.66847" lon="-4.33064">
        <ele>4.6</ele>
        <time>2020-06-10T07:36:20Z</time>
      </trkpt>
      <trkpt lat="48.66847" lon="-4.33064">
        <ele>4.6</ele>
        <time>2020-06-10T07:36:21Z</time>
      </trkpt>
      <trkpt lat="48.66848" lon="-4.33065">
        <ele>4.6</ele>
        <time>2020-06-10T07:36:22Z</time>
      </trkpt>
      <trkpt lat="48.66848" lon="-4.33065">
        <ele>4.6</ele>
        <time>2020-06-10T07:36:23Z</time>
      </trkpt>
      <trkpt lat="48.66849" lon="-4.33065">
        <ele>4.6</ele>
        <time>2020-06-10T07:36:24Z</time>
      </trkpt>
      <trkpt lat="48.66849" lon="-4.33065">
        <ele>4.6</ele>
        <time>2020-06-10T07:36:25Z</time>
      </trkpt>
      <trkpt lat="48.66849" lon="-4.33064">
        <ele>4.7</ele>
        <time>2020-06-10T07:36:26Z</time>
      </trkpt>
      <trkpt lat="48.66849" lon="-4.33064">
        <ele>4.7</ele>
        <time>2020-06-10T07:36:27Z</time>
      </trkpt>
      <trkpt lat="48.6685" lon="-4.33064">
        <ele>4.7</ele>
        <time>2020-06-10T07:36:28Z</time>
      </trkpt>
      <trkpt lat="48.6685" lon="-4.33072">
        <ele>4.5</ele>
        <time>2020-06-10T07:36:35Z</time>
      </trkpt>
      <trkpt lat="48.6685" lon="-4.33073">
        <ele>4.5</ele>
        <time>2020-06-10T07:36:36Z</time>
      </trkpt>
      <trkpt lat="48.66851" lon="-4.33073">
        <ele>4.5</ele>
        <time>2020-06-10T07:36:37Z</time>
      </trkpt>
      <trkpt lat="48.66851" lon="-4.33073">
        <ele>4.5</ele>
        <time>2020-06-10T07:36:38Z</time>
      </trkpt>
      <trkpt lat="48.66851" lon="-4.33072">
        <ele>4.5</ele>
        <time>2020-06-10T07:36:39Z</time>
      </trkpt>
      <trkpt lat="48.66851" lon="-4.33073">
        <ele>4.5</ele>
        <time>2020-06-10T07:36:40Z</time>
      </trkpt>
      <trkpt lat="48.66851" lon="-4.33072">
        <ele>4.5</ele>
        <time>2020-06-10T07:36:41Z</time>
      </trkpt>
      <trkpt lat="48.66852" lon="-4.33072">
        <ele>4.5</ele>
        <time>2020-06-10T07:36:42Z</time>
      </trkpt>
      <trkpt lat="48.66851" lon="-4.33072">
        <ele>4.5</ele>
        <time>2020-06-10T07:36:43Z</time>
      </trkpt>
      <trkpt lat="48.66851" lon="-4.33072">
        <ele>4.5</ele>
        <time>2020-06-10T07:36:44Z</time>
      </trkpt>
      <trkpt lat="48.66851" lon="-4.33073">
        <ele>4.5</ele>
        <time>2020-06-10T07:36:45Z</time>
      </trkpt>
      <trkpt lat="48.66851" lon="-4.33074">
        <ele>4.5</ele>
        <time>2020-06-10T07:36:46Z</time>
      </trkpt>
      <trkpt lat="48.66851" lon="-4.33074">
        <ele>4.5</ele>
        <time>2020-06-10T07:36:47Z</time>
      </trkpt>
      <trkpt lat="48.66851" lon="-4.33073">
        <ele>4.5</ele>
        <time>2020-06-10T07:36:48Z</time>
      </trkpt>
      <trkpt lat="48.66851" lon="-4.33073">
        <ele>4.5</ele>
        <time>2020-06-10T07:36:49Z</time>
      </trkpt>
      <trkpt lat="48.66851" lon="-4.33072">
        <ele>4.5</ele>
        <time>2020-06-10T07:36:50Z</time>
      </trkpt>
      <trkpt lat="48.66851" lon="-4.33072">
        <ele>4.5</ele>
        <time>2020-06-10T07:36:51Z</time>
      </trkpt>
      <trkpt lat="48.66851" lon="-4.33071">
        <ele>4.5</ele>
        <time>2020-06-10T07:36:52Z</time>
      </trkpt>
      <trkpt lat="48.66851" lon="-4.33071">
        <ele>4.5</ele>
        <time>2020-06-10T07:36:53Z</time>
      </trkpt>
      <trkpt lat="48.6685" lon="-4.3307">
        <ele>4.5</ele>
        <time>2020-06-10T07:36:54Z</time>
      </trkpt>
      <trkpt lat="48.66851" lon="-4.33069">
        <ele>4.5</ele>
        <time>2020-06-10T07:36:55Z</time>
      </trkpt>
      <trkpt lat="48.66851" lon="-4.33069">
        <ele>4.5</ele>
        <time>2020-06-10T07:36:56Z</time>
      </trkpt>
      <trkpt lat="48.66851" lon="-4.33068">
        <ele>4.5</ele>
        <time>2020-06-10T07:36:57Z</time>
      </trkpt>
      <trkpt lat="48.66851" lon="-4.33067">
        <ele>4.6</ele>
        <time>2020-06-10T07:36:58Z</time>
      </trkpt>
      <trkpt lat="48.66852" lon="-4.33066">
        <ele>4.7</ele>
        <time>2020-06-10T07:36:59Z</time>
      </trkpt>
      <trkpt lat="48.66854" lon="-4.33064">
        <ele>4.7</ele>
        <time>2020-06-10T07:37:00Z</time>
      </trkpt>
      <trkpt lat="48.66854" lon="-4.33063">
        <ele>4.8</ele>
        <time>2020-06-10T07:37:01Z</time>
      </trkpt>
      <trkpt lat="48.66854" lon="-4.33062">
        <ele>4.8</ele>
        <time>2020-06-10T07:37:02Z</time>
      </trkpt>
      <trkpt lat="48.66854" lon="-4.3306">
        <ele>4.8</ele>
        <time>2020-06-10T07:37:03Z</time>
      </trkpt>
      <trkpt lat="48.66855" lon="-4.33058">
        <ele>4.8</ele>
        <time>2020-06-10T07:37:04Z</time>
      </trkpt>
      <trkpt lat="48.66855" lon="-4.33056">
        <ele>4.8</ele>
        <time>2020-06-10T07:37:05Z</time>
      </trkpt>
      <trkpt lat="48.66855" lon="-4.33052">
        <ele>4.8</ele>
        <time>2020-06-10T07:37:06Z</time>
      </trkpt>
      <trkpt lat="48.66855" lon="-4.33051">
        <ele>4.8</ele>
        <time>2020-06-10T07:37:07Z</time>
      </trkpt>
      <trkpt lat="48.66856" lon="-4.3305">
        <ele>4.7</ele>
        <time>2020-06-10T07:37:08Z</time>
      </trkpt>
      <trkpt lat="48.66856" lon="-4.33047">
        <ele>4.7</ele>
        <time>2020-06-10T07:37:09Z</time>
      </trkpt>
      <trkpt lat="48.66856" lon="-4.33046">
        <ele>4.7</ele>
        <time>2020-06-10T07:37:10Z</time>
      </trkpt>
      <trkpt lat="48.66856" lon="-4.33045">
        <ele>4.4</ele>
        <time>2020-06-10T07:37:11Z</time>
      </trkpt>
      <trkpt lat="48.66856" lon="-4.33044">
        <ele>4.4</ele>
        <time>2020-06-10T07:37:12Z</time>
      </trkpt>
      <trkpt lat="48.66856" lon="-4.33043">
        <ele>4.4</ele>
        <time>2020-06-10T07:37:13Z</time>
      </trkpt>
      <trkpt lat="48.66856" lon="-4.33042">
        <ele>4.4</ele>
        <time>2020-06-10T07:37:14Z</time>
      </trkpt>
      <trkpt lat="48.66856" lon="-4.33041">
        <ele>4</ele>
        <time>2020-06-10T07:37:15Z</time>
      </trkpt>
      <trkpt lat="48.66856" lon="-4.33038">
        <ele>4</ele>
        <time>2020-06-10T07:37:16Z</time>
      </trkpt>
      <trkpt lat="48.66856" lon="-4.33037">
        <ele>3.4</ele>
        <time>2020-06-10T07:37:17Z</time>
      </trkpt>
      <trkpt lat="48.66856" lon="-4.33036">
        <ele>3.4</ele>
        <time>2020-06-10T07:37:18Z</time>
      </trkpt>
      <trkpt lat="48.66857" lon="-4.33034">
        <ele>3.4</ele>
        <time>2020-06-10T07:37:19Z</time>
      </trkpt>
      <trkpt lat="48.66858" lon="-4.33033">
        <ele>3.6</ele>
        <time>2020-06-10T07:37:20Z</time>
      </trkpt>
      <trkpt lat="48.66859" lon="-4.33033">
        <ele>3</ele>
        <time>2020-06-10T07:37:21Z</time>
      </trkpt>
      <trkpt lat="48.6686" lon="-4.33033">
        <ele>3</ele>
        <time>2020-06-10T07:37:22Z</time>
      </trkpt>
      <trkpt lat="48.66861" lon="-4.33033">
        <ele>3.8</ele>
        <time>2020-06-10T07:37:23Z</time>
      </trkpt>
      <trkpt lat="48.66863" lon="-4.33035">
        <ele>4.1</ele>
        <time>2020-06-10T07:37:24Z</time>
      </trkpt>
      <trkpt lat="48.66865" lon="-4.33035">
        <ele>4.1</ele>
        <time>2020-06-10T07:37:25Z</time>
      </trkpt>
      <trkpt lat="48.66866" lon="-4.33035">
        <ele>4.3</ele>
        <time>2020-06-10T07:37:26Z</time>
      </trkpt>
      <trkpt lat="48.66868" lon="-4.33035">
        <ele>4.3</ele>
        <time>2020-06-10T07:37:27Z</time>
      </trkpt>
      <trkpt lat="48.66869" lon="-4.33035">
        <ele>4.5</ele>
        <time>2020-06-10T07:37:28Z</time>
      </trkpt>
      <trkpt lat="48.66872" lon="-4.33035">
        <ele>4.5</ele>
        <time>2020-06-10T07:37:29Z</time>
      </trkpt>
      <trkpt lat="48.66872" lon="-4.33035">
        <ele>4.7</ele>
        <time>2020-06-10T07:37:30Z</time>
      </trkpt>
      <trkpt lat="48.66873" lon="-4.33034">
        <ele>4.7</ele>
        <time>2020-06-10T07:37:31Z</time>
      </trkpt>
      <trkpt lat="48.66874" lon="-4.33034">
        <ele>4.7</ele>
        <time>2020-06-10T07:37:32Z</time>
      </trkpt>
      <trkpt lat="48.66875" lon="-4.33034">
        <ele>4.9</ele>
        <time>2020-06-10T07:37:33Z</time>
      </trkpt>
      <trkpt lat="48.66876" lon="-4.33034">
        <ele>4.9</ele>
        <time>2020-06-10T07:37:34Z</time>
      </trkpt>
      <trkpt lat="48.66877" lon="-4.33034">
        <ele>4.9</ele>
        <time>2020-06-10T07:37:35Z</time>
      </trkpt>
      <trkpt lat="48.66878" lon="-4.33034">
        <ele>5</ele>
        <time>2020-06-10T07:37:36Z</time>
      </trkpt>
      <trkpt lat="48.66878" lon="-4.33035">
        <ele>5</ele>
        <time>2020-06-10T07:37:37Z</time>
      </trkpt>
      <trkpt lat="48.66878" lon="-4.33036">
        <ele>5</ele>
        <time>2020-06-10T07:37:38Z</time>
      </trkpt>
      <trkpt lat="48.66878" lon="-4.33036">
        <ele>5</ele>
        <time>2020-06-10T07:37:39Z</time>
      </trkpt>
      <trkpt lat="48.66878" lon="-4.33037">
        <ele>5</ele>
        <time>2020-06-10T07:37:40Z</time>
      </trkpt>
      <trkpt lat="48.66879" lon="-4.33037">
        <ele>5</ele>
        <time>2020-06-10T07:37:41Z</time>
      </trkpt>
      <trkpt lat="48.66879" lon="-4.33037">
        <ele>5</ele>
        <time>2020-06-10T07:37:42Z</time>
      </trkpt>
      <trkpt lat="48.66879" lon="-4.33037">
        <ele>5</ele>
        <time>2020-06-10T07:37:43Z</time>
      </trkpt>
      <trkpt lat="48.66879" lon="-4.33036">
        <ele>5</ele>
        <time>2020-06-10T07:37:44Z</time>
      </trkpt>
      <trkpt lat="48.66879" lon="-4.33036">
        <ele>5</ele>
        <time>2020-06-10T07:37:45Z</time>
      </trkpt>
      <trkpt lat="48.66878" lon="-4.33036">
        <ele>5</ele>
        <time>2020-06-10T07:37:46Z</time>
      </trkpt>
      <trkpt lat="48.66878" lon="-4.33035">
        <ele>5</ele>
        <time>2020-06-10T07:37:47Z</time>
      </trkpt>
      <trkpt lat="48.66878" lon="-4.33035">
        <ele>5</ele>
        <time>2020-06-10T07:37:48Z</time>
      </trkpt>
      <trkpt lat="48.66878" lon="-4.33035">
        <ele>5</ele>
        <time>2020-06-10T07:37:49Z</time>
      </trkpt>
      <trkpt lat="48.66878" lon="-4.33034">
        <ele>5</ele>
        <time>2020-06-10T07:37:50Z</time>
      </trkpt>
      <trkpt lat="48.66878" lon="-4.33034">
        <ele>5</ele>
        <time>2020-06-10T07:37:51Z</time>
      </trkpt>
      <trkpt lat="48.66878" lon="-4.33034">
        <ele>5</ele>
        <time>2020-06-10T07:37:52Z</time>
      </trkpt>
      <trkpt lat="48.66878" lon="-4.33033">
        <ele>5</ele>
        <time>2020-06-10T07:37:53Z</time>
      </trkpt>
      <trkpt lat="48.66877" lon="-4.33033">
        <ele>5</ele>
        <time>2020-06-10T07:37:54Z</time>
      </trkpt>
      <trkpt lat="48.66877" lon="-4.33033">
        <ele>5</ele>
        <time>2020-06-10T07:37:55Z</time>
      </trkpt>
      <trkpt lat="48.66877" lon="-4.33032">
        <ele>5</ele>
        <time>2020-06-10T07:37:56Z</time>
      </trkpt>
      <trkpt lat="48.66877" lon="-4.33032">
        <ele>5</ele>
        <time>2020-06-10T07:37:57Z</time>
      </trkpt>
      <trkpt lat="48.66877" lon="-4.33032">
        <ele>5</ele>
        <time>2020-06-10T07:37:58Z</time>
      </trkpt>
      <trkpt lat="48.66877" lon="-4.33031">
        <ele>5</ele>
        <time>2020-06-10T07:37:59Z</time>
      </trkpt>
      <trkpt lat="48.66877" lon="-4.33031">
        <ele>5</ele>
        <time>2020-06-10T07:38:00Z</time>
      </trkpt>
      <trkpt lat="48.66877" lon="-4.3303">
        <ele>5</ele>
        <time>2020-06-10T07:38:01Z</time>
      </trkpt>
      <trkpt lat="48.66877" lon="-4.3303">
        <ele>5</ele>
        <time>2020-06-10T07:38:02Z</time>
      </trkpt>
      <trkpt lat="48.66877" lon="-4.33029">
        <ele>5</ele>
        <time>2020-06-10T07:38:03Z</time>
      </trkpt>
      <trkpt lat="48.66877" lon="-4.33029">
        <ele>5</ele>
        <time>2020-06-10T07:38:04Z</time>
      </trkpt>
      <trkpt lat="48.66878" lon="-4.33028">
        <ele>5.3</ele>
        <time>2020-06-10T07:38:05Z</time>
      </trkpt>
      <trkpt lat="48.66879" lon="-4.33028">
        <ele>5.3</ele>
        <time>2020-06-10T07:38:06Z</time>
      </trkpt>
      <trkpt lat="48.66879" lon="-4.33029">
        <ele>5.2</ele>
        <time>2020-06-10T07:38:07Z</time>
      </trkpt>
      <trkpt lat="48.6688" lon="-4.3303">
        <ele>5.2</ele>
        <time>2020-06-10T07:38:08Z</time>
      </trkpt>
      <trkpt lat="48.66881" lon="-4.3303">
        <ele>5.3</ele>
        <time>2020-06-10T07:38:09Z</time>
      </trkpt>
      <trkpt lat="48.66881" lon="-4.33031">
        <ele>5.3</ele>
        <time>2020-06-10T07:38:10Z</time>
      </trkpt>
      <trkpt lat="48.66881" lon="-4.33031">
        <ele>5.3</ele>
        <time>2020-06-10T07:38:11Z</time>
      </trkpt>
      <trkpt lat="48.66882" lon="-4.33031">
        <ele>5.3</ele>
        <time>2020-06-10T07:38:12Z</time>
      </trkpt>
      <trkpt lat="48.66882" lon="-4.33032">
        <ele>5.3</ele>
        <time>2020-06-10T07:38:13Z</time>
      </trkpt>
      <trkpt lat="48.66883" lon="-4.33032">
        <ele>5.3</ele>
        <time>2020-06-10T07:38:14Z</time>
      </trkpt>
      <trkpt lat="48.66885" lon="-4.33033">
        <ele>5.3</ele>
        <time>2020-06-10T07:38:15Z</time>
      </trkpt>
      <trkpt lat="48.66886" lon="-4.33033">
        <ele>5.3</ele>
        <time>2020-06-10T07:38:16Z</time>
      </trkpt>
      <trkpt lat="48.66887" lon="-4.33032">
        <ele>5.3</ele>
        <time>2020-06-10T07:38:17Z</time>
      </trkpt>
      <trkpt lat="48.66888" lon="-4.33032">
        <ele>5.3</ele>
        <time>2020-06-10T07:38:18Z</time>
      </trkpt>
      <trkpt lat="48.66888" lon="-4.33031">
        <ele>5.3</ele>
        <time>2020-06-10T07:38:19Z</time>
      </trkpt>
      <trkpt lat="48.66889" lon="-4.33031">
        <ele>5.3</ele>
        <time>2020-06-10T07:38:20Z</time>
      </trkpt>
      <trkpt lat="48.6689" lon="-4.33031">
        <ele>5.3</ele>
        <time>2020-06-10T07:38:21Z</time>
      </trkpt>
      <trkpt lat="48.6689" lon="-4.33031">
        <ele>5.3</ele>
        <time>2020-06-10T07:38:22Z</time>
      </trkpt>
      <trkpt lat="48.6689" lon="-4.33031">
        <ele>5.3</ele>
        <time>2020-06-10T07:38:23Z</time>
      </trkpt>
      <trkpt lat="48.6689" lon="-4.3303">
        <ele>5.3</ele>
        <time>2020-06-10T07:38:24Z</time>
      </trkpt>
      <trkpt lat="48.6689" lon="-4.33031">
        <ele>5.3</ele>
        <time>2020-06-10T07:38:25Z</time>
      </trkpt>
      <trkpt lat="48.66891" lon="-4.3303">
        <ele>5.3</ele>
        <time>2020-06-10T07:38:26Z</time>
      </trkpt>
      <trkpt lat="48.66891" lon="-4.3303">
        <ele>5.3</ele>
        <time>2020-06-10T07:38:27Z</time>
      </trkpt>
      <trkpt lat="48.66891" lon="-4.33031">
        <ele>5.3</ele>
        <time>2020-06-10T07:38:28Z</time>
      </trkpt>
      <trkpt lat="48.66892" lon="-4.33031">
        <ele>5.2</ele>
        <time>2020-06-10T07:38:29Z</time>
      </trkpt>
      <trkpt lat="48.66892" lon="-4.33031">
        <ele>5.2</ele>
        <time>2020-06-10T07:38:30Z</time>
      </trkpt>
      <trkpt lat="48.66893" lon="-4.3303">
        <ele>5.2</ele>
        <time>2020-06-10T07:38:31Z</time>
      </trkpt>
      <trkpt lat="48.66894" lon="-4.3303">
        <ele>5.2</ele>
        <time>2020-06-10T07:38:32Z</time>
      </trkpt>
      <trkpt lat="48.66895" lon="-4.33029">
        <ele>5.2</ele>
        <time>2020-06-10T07:38:33Z</time>
      </trkpt>
      <trkpt lat="48.66896" lon="-4.33029">
        <ele>5.2</ele>
        <time>2020-06-10T07:38:34Z</time>
      </trkpt>
      <trkpt lat="48.66898" lon="-4.33028">
        <ele>5.1</ele>
        <time>2020-06-10T07:38:35Z</time>
      </trkpt>
      <trkpt lat="48.66898" lon="-4.33027">
        <ele>5.1</ele>
        <time>2020-06-10T07:38:36Z</time>
      </trkpt>
      <trkpt lat="48.66899" lon="-4.33027">
        <ele>5.1</ele>
        <time>2020-06-10T07:38:37Z</time>
      </trkpt>
      <trkpt lat="48.669" lon="-4.33027">
        <ele>5.1</ele>
        <time>2020-06-10T07:38:38Z</time>
      </trkpt>
      <trkpt lat="48.66901" lon="-4.33026">
        <ele>5</ele>
        <time>2020-06-10T07:38:39Z</time>
      </trkpt>
      <trkpt lat="48.66901" lon="-4.33025">
        <ele>5</ele>
        <time>2020-06-10T07:38:40Z</time>
      </trkpt>
      <trkpt lat="48.66903" lon="-4.33024">
        <ele>5</ele>
        <time>2020-06-10T07:38:41Z</time>
      </trkpt>
      <trkpt lat="48.66903" lon="-4.33023">
        <ele>4.9</ele>
        <time>2020-06-10T07:38:42Z</time>
      </trkpt>
      <trkpt lat="48.66904" lon="-4.33021">
        <ele>4.9</ele>
        <time>2020-06-10T07:38:43Z</time>
      </trkpt>
      <trkpt lat="48.66905" lon="-4.33021">
        <ele>4.9</ele>
        <time>2020-06-10T07:38:44Z</time>
      </trkpt>
      <trkpt lat="48.66904" lon="-4.33021">
        <ele>4.9</ele>
        <time>2020-06-10T07:38:45Z</time>
      </trkpt>
      <trkpt lat="48.66905" lon="-4.33022">
        <ele>4.9</ele>
        <time>2020-06-10T07:38:46Z</time>
      </trkpt>
      <trkpt lat="48.66906" lon="-4.33022">
        <ele>4.9</ele>
        <time>2020-06-10T07:38:47Z</time>
      </trkpt>
      <trkpt lat="48.66906" lon="-4.33023">
        <ele>4.9</ele>
        <time>2020-06-10T07:38:48Z</time>
      </trkpt>
      <trkpt lat="48.66907" lon="-4.33023">
        <ele>4.9</ele>
        <time>2020-06-10T07:38:49Z</time>
      </trkpt>
      <trkpt lat="48.66907" lon="-4.33023">
        <ele>4.9</ele>
        <time>2020-06-10T07:38:50Z</time>
      </trkpt>
      <trkpt lat="48.66908" lon="-4.33023">
        <ele>4.9</ele>
        <time>2020-06-10T07:38:51Z</time>
      </trkpt>
      <trkpt lat="48.66908" lon="-4.33023">
        <ele>4.9</ele>
        <time>2020-06-10T07:38:52Z</time>
      </trkpt>
      <trkpt lat="48.66908" lon="-4.33022">
        <ele>4.9</ele>
        <time>2020-06-10T07:38:53Z</time>
      </trkpt>
      <trkpt lat="48.66909" lon="-4.33022">
        <ele>4.9</ele>
        <time>2020-06-10T07:38:54Z</time>
      </trkpt>
      <trkpt lat="48.6691" lon="-4.3302">
        <ele>4.9</ele>
        <time>2020-06-10T07:38:55Z</time>
      </trkpt>
      <trkpt lat="48.66911" lon="-4.33018">
        <ele>4.9</ele>
        <time>2020-06-10T07:38:56Z</time>
      </trkpt>
      <trkpt lat="48.66912" lon="-4.33016">
        <ele>5</ele>
        <time>2020-06-10T07:38:57Z</time>
      </trkpt>
      <trkpt lat="48.66912" lon="-4.33015">
        <ele>5</ele>
        <time>2020-06-10T07:38:58Z</time>
      </trkpt>
      <trkpt lat="48.66913" lon="-4.33014">
        <ele>5</ele>
        <time>2020-06-10T07:38:59Z</time>
      </trkpt>
      <trkpt lat="48.66914" lon="-4.33013">
        <ele>5</ele>
        <time>2020-06-10T07:39:00Z</time>
      </trkpt>
      <trkpt lat="48.66914" lon="-4.33012">
        <ele>5</ele>
        <time>2020-06-10T07:39:01Z</time>
      </trkpt>
      <trkpt lat="48.66915" lon="-4.3301">
        <ele>5.2</ele>
        <time>2020-06-10T07:39:02Z</time>
      </trkpt>
      <trkpt lat="48.66915" lon="-4.3301">
        <ele>5.2</ele>
        <time>2020-06-10T07:39:03Z</time>
      </trkpt>
      <trkpt lat="48.66916" lon="-4.3301">
        <ele>5.2</ele>
        <time>2020-06-10T07:39:04Z</time>
      </trkpt>
      <trkpt lat="48.66917" lon="-4.33009">
        <ele>5.2</ele>
        <time>2020-06-10T07:39:05Z</time>
      </trkpt>
      <trkpt lat="48.66917" lon="-4.33008">
        <ele>5.2</ele>
        <time>2020-06-10T07:39:06Z</time>
      </trkpt>
      <trkpt lat="48.66919" lon="-4.33006">
        <ele>5.2</ele>
        <time>2020-06-10T07:39:07Z</time>
      </trkpt>
      <trkpt lat="48.66919" lon="-4.33004">
        <ele>5.2</ele>
        <time>2020-06-10T07:39:08Z</time>
      </trkpt>
      <trkpt lat="48.6692" lon="-4.33003">
        <ele>5.2</ele>
        <time>2020-06-10T07:39:09Z</time>
      </trkpt>
      <trkpt lat="48.66922" lon="-4.33001">
        <ele>5.2</ele>
        <time>2020-06-10T07:39:10Z</time>
      </trkpt>
      <trkpt lat="48.66922" lon="-4.33">
        <ele>5.2</ele>
        <time>2020-06-10T07:39:11Z</time>
      </trkpt>
      <trkpt lat="48.66923" lon="-4.32998">
        <ele>5.2</ele>
        <time>2020-06-10T07:39:12Z</time>
      </trkpt>
      <trkpt lat="48.66923" lon="-4.32997">
        <ele>5.3</ele>
        <time>2020-06-10T07:39:13Z</time>
      </trkpt>
      <trkpt lat="48.66924" lon="-4.32996">
        <ele>5.3</ele>
        <time>2020-06-10T07:39:14Z</time>
      </trkpt>
      <trkpt lat="48.66924" lon="-4.32995">
        <ele>5.3</ele>
        <time>2020-06-10T07:39:15Z</time>
      </trkpt>
      <trkpt lat="48.66924" lon="-4.32995">
        <ele>5.3</ele>
        <time>2020-06-10T07:39:16Z</time>
      </trkpt>
      <trkpt lat="48.66924" lon="-4.32995">
        <ele>5.3</ele>
        <time>2020-06-10T07:39:17Z</time>
      </trkpt>
      <trkpt lat="48.66924" lon="-4.32995">
        <ele>5.3</ele>
        <time>2020-06-10T07:39:18Z</time>
      </trkpt>
      <trkpt lat="48.66924" lon="-4.32995">
        <ele>5.3</ele>
        <time>2020-06-10T07:39:19Z</time>
      </trkpt>
      <trkpt lat="48.66923" lon="-4.32996">
        <ele>5.3</ele>
        <time>2020-06-10T07:39:20Z</time>
      </trkpt>
      <trkpt lat="48.66922" lon="-4.32996">
        <ele>5.3</ele>
        <time>2020-06-10T07:39:21Z</time>
      </trkpt>
      <trkpt lat="48.66921" lon="-4.32996">
        <ele>5.3</ele>
        <time>2020-06-10T07:39:22Z</time>
      </trkpt>
      <trkpt lat="48.66921" lon="-4.32996">
        <ele>5.3</ele>
        <time>2020-06-10T07:39:23Z</time>
      </trkpt>
      <trkpt lat="48.6692" lon="-4.32997">
        <ele>5.3</ele>
        <time>2020-06-10T07:39:24Z</time>
      </trkpt>
      <trkpt lat="48.66919" lon="-4.32997">
        <ele>5.3</ele>
        <time>2020-06-10T07:39:25Z</time>
      </trkpt>
      <trkpt lat="48.66922" lon="-4.32997">
        <ele>5.3</ele>
        <time>2020-06-10T07:40:00Z</time>
      </trkpt>
      <trkpt lat="48.66923" lon="-4.32997">
        <ele>5.3</ele>
        <time>2020-06-10T07:40:01Z</time>
      </trkpt>
      <trkpt lat="48.66923" lon="-4.32999">
        <ele>5.3</ele>
        <time>2020-06-10T07:40:02Z</time>
      </trkpt>
      <trkpt lat="48.66923" lon="-4.32999">
        <ele>5.3</ele>
        <time>2020-06-10T07:40:03Z</time>
      </trkpt>
      <trkpt lat="48.66923" lon="-4.32999">
        <ele>5.3</ele>
        <time>2020-06-10T07:40:04Z</time>
      </trkpt>
      <trkpt lat="48.66923" lon="-4.32999">
        <ele>5.3</ele>
        <time>2020-06-10T07:40:05Z</time>
      </trkpt>
      <trkpt lat="48.66924" lon="-4.33">
        <ele>5.3</ele>
        <time>2020-06-10T07:40:06Z</time>
      </trkpt>
      <trkpt lat="48.66924" lon="-4.33">
        <ele>5.3</ele>
        <time>2020-06-10T07:40:07Z</time>
      </trkpt>
      <trkpt lat="48.66924" lon="-4.33">
        <ele>5.3</ele>
        <time>2020-06-10T07:40:08Z</time>
      </trkpt>
      <trkpt lat="48.66925" lon="-4.33">
        <ele>5.3</ele>
        <time>2020-06-10T07:40:09Z</time>
      </trkpt>
      <trkpt lat="48.66925" lon="-4.33001">
        <ele>5.3</ele>
        <time>2020-06-10T07:40:10Z</time>
      </trkpt>
      <trkpt lat="48.66925" lon="-4.33001">
        <ele>5.3</ele>
        <time>2020-06-10T07:40:11Z</time>
      </trkpt>
      <trkpt lat="48.66925" lon="-4.33001">
        <ele>5.3</ele>
        <time>2020-06-10T07:40:12Z</time>
      </trkpt>
      <trkpt lat="48.66926" lon="-4.33001">
        <ele>5.3</ele>
        <time>2020-06-10T07:40:13Z</time>
      </trkpt>
      <trkpt lat="48.66926" lon="-4.33002">
        <ele>5.3</ele>
        <time>2020-06-10T07:40:14Z</time>
      </trkpt>
      <trkpt lat="48.66926" lon="-4.33002">
        <ele>5.3</ele>
        <time>2020-06-10T07:40:15Z</time>
      </trkpt>
      <trkpt lat="48.66927" lon="-4.33002">
        <ele>5.3</ele>
        <time>2020-06-10T07:41:15Z</time>
      </trkpt>
      <trkpt lat="48.66927" lon="-4.33002">
        <ele>5.3</ele>
        <time>2020-06-10T07:41:16Z</time>
      </trkpt>
      <trkpt lat="48.66927" lon="-4.33003">
        <ele>5.3</ele>
        <time>2020-06-10T07:41:17Z</time>
      </trkpt>
      <trkpt lat="48.66927" lon="-4.33003">
        <ele>5.3</ele>
        <time>2020-06-10T07:41:18Z</time>
      </trkpt>
      <trkpt lat="48.66928" lon="-4.33003">
        <ele>5.3</ele>
        <time>2020-06-10T07:41:19Z</time>
      </trkpt>
      <trkpt lat="48.66928" lon="-4.33003">
        <ele>5.3</ele>
        <time>2020-06-10T07:41:20Z</time>
      </trkpt>
      <trkpt lat="48.66928" lon="-4.33004">
        <ele>5.3</ele>
        <time>2020-06-10T07:41:21Z</time>
      </trkpt>
      <trkpt lat="48.66929" lon="-4.33004">
        <ele>5.3</ele>
        <time>2020-06-10T07:41:22Z</time>
      </trkpt>
      <trkpt lat="48.66929" lon="-4.33004">
        <ele>5.3</ele>
        <time>2020-06-10T07:41:23Z</time>
      </trkpt>
      <trkpt lat="48.66929" lon="-4.33004">
        <ele>5.3</ele>
        <time>2020-06-10T07:41:24Z</time>
      </trkpt>
      <trkpt lat="48.66929" lon="-4.33005">
        <ele>5.3</ele>
        <time>2020-06-10T07:41:25Z</time>
      </trkpt>
      <trkpt lat="48.6693" lon="-4.33005">
        <ele>5.3</ele>
        <time>2020-06-10T07:41:26Z</time>
      </trkpt>
      <trkpt lat="48.6693" lon="-4.33005">
        <ele>5.3</ele>
        <time>2020-06-10T07:41:27Z</time>
      </trkpt>
      <trkpt lat="48.6693" lon="-4.33005">
        <ele>5.3</ele>
        <time>2020-06-10T07:41:59Z</time>
      </trkpt>
      <trkpt lat="48.66931" lon="-4.33006">
        <ele>5.3</ele>
        <time>2020-06-10T07:42:00Z</time>
      </trkpt>
      <trkpt lat="48.66931" lon="-4.33006">
        <ele>5.3</ele>
        <time>2020-06-10T07:42:01Z</time>
      </trkpt>
      <trkpt lat="48.66931" lon="-4.33008">
        <ele>5.3</ele>
        <time>2020-06-10T07:42:02Z</time>
      </trkpt>
      <trkpt lat="48.6693" lon="-4.33011">
        <ele>5.3</ele>
        <time>2020-06-10T07:42:03Z</time>
      </trkpt>
      <trkpt lat="48.6693" lon="-4.33013">
        <ele>5.3</ele>
        <time>2020-06-10T07:42:04Z</time>
      </trkpt>
      <trkpt lat="48.6693" lon="-4.33013">
        <ele>5.3</ele>
        <time>2020-06-10T07:42:05Z</time>
      </trkpt>
      <trkpt lat="48.6693" lon="-4.33012">
        <ele>5.3</ele>
        <time>2020-06-10T07:42:06Z</time>
      </trkpt>
      <trkpt lat="48.6693" lon="-4.33011">
        <ele>5.3</ele>
        <time>2020-06-10T07:42:07Z</time>
      </trkpt>
      <trkpt lat="48.6693" lon="-4.33012">
        <ele>5.3</ele>
        <time>2020-06-10T07:42:08Z</time>
      </trkpt>
      <trkpt lat="48.6693" lon="-4.3301">
        <ele>5.3</ele>
        <time>2020-06-10T07:42:09Z</time>
      </trkpt>
      <trkpt lat="48.6693" lon="-4.33009">
        <ele>5.3</ele>
        <time>2020-06-10T07:42:10Z</time>
      </trkpt>
      <trkpt lat="48.6693" lon="-4.33008">
        <ele>5.3</ele>
        <time>2020-06-10T07:42:11Z</time>
      </trkpt>
      <trkpt lat="48.6693" lon="-4.33007">
        <ele>5.3</ele>
        <time>2020-06-10T07:42:12Z</time>
      </trkpt>
      <trkpt lat="48.6693" lon="-4.33007">
        <ele>5.3</ele>
        <time>2020-06-10T07:42:13Z</time>
      </trkpt>
      <trkpt lat="48.6693" lon="-4.33007">
        <ele>5.3</ele>
        <time>2020-06-10T07:42:14Z</time>
      </trkpt>
      <trkpt lat="48.6693" lon="-4.33007">
        <ele>5.3</ele>
        <time>2020-06-10T07:42:15Z</time>
      </trkpt>
      <trkpt lat="48.6693" lon="-4.33007">
        <ele>5.3</ele>
        <time>2020-06-10T07:42:16Z</time>
      </trkpt>
      <trkpt lat="48.6693" lon="-4.33007">
        <ele>5.3</ele>
        <time>2020-06-10T07:42:17Z</time>
      </trkpt>
      <trkpt lat="48.66931" lon="-4.33012">
        <ele>5.3</ele>
        <time>2020-06-10T07:42:46Z</time>
      </trkpt>
      <trkpt lat="48.66932" lon="-4.33013">
        <ele>5.3</ele>
        <time>2020-06-10T07:42:47Z</time>
      </trkpt>
      <trkpt lat="48.66932" lon="-4.33014">
        <ele>5.3</ele>
        <time>2020-06-10T07:42:48Z</time>
      </trkpt>
      <trkpt lat="48.66932" lon="-4.33014">
        <ele>5.3</ele>
        <time>2020-06-10T07:42:49Z</time>
      </trkpt>
      <trkpt lat="48.66932" lon="-4.33014">
        <ele>5.3</ele>
        <time>2020-06-10T07:42:50Z</time>
      </trkpt>
      <trkpt lat="48.66931" lon="-4.33014">
        <ele>5.3</ele>
        <time>2020-06-10T07:42:51Z</time>
      </trkpt>
      <trkpt lat="48.66931" lon="-4.33014">
        <ele>5.3</ele>
        <time>2020-06-10T07:42:52Z</time>
      </trkpt>
      <trkpt lat="48.66931" lon="-4.33014">
        <ele>5.3</ele>
        <time>2020-06-10T07:42:53Z</time>
      </trkpt>
      <trkpt lat="48.66931" lon="-4.33014">
        <ele>5.3</ele>
        <time>2020-06-10T07:42:54Z</time>
      </trkpt>
      <trkpt lat="48.66931" lon="-4.33014">
        <ele>5.3</ele>
        <time>2020-06-10T07:42:55Z</time>
      </trkpt>
      <trkpt lat="48.66931" lon="-4.33014">
        <ele>5.3</ele>
        <time>2020-06-10T07:42:56Z</time>
      </trkpt>
      <trkpt lat="48.66931" lon="-4.33015">
        <ele>5.3</ele>
        <time>2020-06-10T07:42:57Z</time>
      </trkpt>
      <trkpt lat="48.66932" lon="-4.33015">
        <ele>5.3</ele>
        <time>2020-06-10T07:42:58Z</time>
      </trkpt>
      <trkpt lat="48.66932" lon="-4.33015">
        <ele>5.3</ele>
        <time>2020-06-10T07:42:59Z</time>
      </trkpt>
      <trkpt lat="48.66932" lon="-4.33015">
        <ele>5.3</ele>
        <time>2020-06-10T07:43:00Z</time>
      </trkpt>
      <trkpt lat="48.66932" lon="-4.33015">
        <ele>5.3</ele>
        <time>2020-06-10T07:43:01Z</time>
      </trkpt>
      <trkpt lat="48.66933" lon="-4.33015">
        <ele>5.3</ele>
        <time>2020-06-10T07:43:02Z</time>
      </trkpt>
      <trkpt lat="48.66934" lon="-4.33015">
        <ele>5.3</ele>
        <time>2020-06-10T07:43:03Z</time>
      </trkpt>
      <trkpt lat="48.66934" lon="-4.33015">
        <ele>5.3</ele>
        <time>2020-06-10T07:43:04Z</time>
      </trkpt>
      <trkpt lat="48.66934" lon="-4.33014">
        <ele>5.3</ele>
        <time>2020-06-10T07:43:05Z</time>
      </trkpt>
      <trkpt lat="48.66935" lon="-4.33014">
        <ele>5.3</ele>
        <time>2020-06-10T07:43:06Z</time>
      </trkpt>
      <trkpt lat="48.66935" lon="-4.33014">
        <ele>5.3</ele>
        <time>2020-06-10T07:43:07Z</time>
      </trkpt>
      <trkpt lat="48.66935" lon="-4.33013">
        <ele>5.3</ele>
        <time>2020-06-10T07:43:08Z</time>
      </trkpt>
      <trkpt lat="48.66935" lon="-4.33012">
        <ele>5.3</ele>
        <time>2020-06-10T07:43:09Z</time>
      </trkpt>
      <trkpt lat="48.66936" lon="-4.33012">
        <ele>5.3</ele>
        <time>2020-06-10T07:43:10Z</time>
      </trkpt>
      <trkpt lat="48.66938" lon="-4.33012">
        <ele>5.4</ele>
        <time>2020-06-10T07:43:11Z</time>
      </trkpt>
      <trkpt lat="48.66939" lon="-4.33012">
        <ele>5.4</ele>
        <time>2020-06-10T07:43:12Z</time>
      </trkpt>
      <trkpt lat="48.66939" lon="-4.33011">
        <ele>5.4</ele>
        <time>2020-06-10T07:43:13Z</time>
      </trkpt>
      <trkpt lat="48.66939" lon="-4.33011">
        <ele>5.4</ele>
        <time>2020-06-10T07:43:14Z</time>
      </trkpt>
      <trkpt lat="48.66939" lon="-4.3301">
        <ele>5.4</ele>
        <time>2020-06-10T07:43:15Z</time>
      </trkpt>
      <trkpt lat="48.66939" lon="-4.3301">
        <ele>5.4</ele>
        <time>2020-06-10T07:43:16Z</time>
      </trkpt>
      <trkpt lat="48.66939" lon="-4.3301">
        <ele>5.4</ele>
        <time>2020-06-10T07:43:17Z</time>
      </trkpt>
      <trkpt lat="48.6694" lon="-4.3301">
        <ele>5.4</ele>
        <time>2020-06-10T07:43:18Z</time>
      </trkpt>
      <trkpt lat="48.6694" lon="-4.33009">
        <ele>5.4</ele>
        <time>2020-06-10T07:43:19Z</time>
      </trkpt>
      <trkpt lat="48.66939" lon="-4.33009">
        <ele>5.4</ele>
        <time>2020-06-10T07:43:20Z</time>
      </trkpt>
      <trkpt lat="48.66939" lon="-4.33009">
        <ele>5.4</ele>
        <time>2020-06-10T07:43:21Z</time>
      </trkpt>
      <trkpt lat="48.66939" lon="-4.33009">
        <ele>5.4</ele>
        <time>2020-06-10T07:43:22Z</time>
      </trkpt>
      <trkpt lat="48.66939" lon="-4.33009">
        <ele>5.4</ele>
        <time>2020-06-10T07:43:23Z</time>
      </trkpt>
      <trkpt lat="48.66939" lon="-4.33009">
        <ele>5.4</ele>
        <time>2020-06-10T07:43:24Z</time>
      </trkpt>
      <trkpt lat="48.66939" lon="-4.33009">
        <ele>5.4</ele>
        <time>2020-06-10T07:43:25Z</time>
      </trkpt>
      <trkpt lat="48.66939" lon="-4.33009">
        <ele>5.4</ele>
        <time>2020-06-10T07:43:26Z</time>
      </trkpt>
      <trkpt lat="48.66938" lon="-4.33008">
        <ele>5.4</ele>
        <time>2020-06-10T07:43:27Z</time>
      </trkpt>
      <trkpt lat="48.66937" lon="-4.33008">
        <ele>5.4</ele>
        <time>2020-06-10T07:43:28Z</time>
      </trkpt>
      <trkpt lat="48.66937" lon="-4.33008">
        <ele>5.4</ele>
        <time>2020-06-10T07:43:29Z</time>
      </trkpt>
      <trkpt lat="48.66936" lon="-4.33008">
        <ele>5.4</ele>
        <time>2020-06-10T07:43:30Z</time>
      </trkpt>
      <trkpt lat="48.66709" lon="-4.329">
        <ele>5.5</ele>
        <time>2020-06-10T07:51:55Z</time>
      </trkpt>
      <trkpt lat="48.66707" lon="-4.32895">
        <ele>5.5</ele>
        <time>2020-06-10T07:51:56Z</time>
      </trkpt>
      <trkpt lat="48.66706" lon="-4.3289">
        <ele>5.5</ele>
        <time>2020-06-10T07:51:57Z</time>
      </trkpt>
      <trkpt lat="48.66704" lon="-4.32886">
        <ele>5.6</ele>
        <time>2020-06-10T07:51:58Z</time>
      </trkpt>
      <trkpt lat="48.66702" lon="-4.32882">
        <ele>5.6</ele>
        <time>2020-06-10T07:51:59Z</time>
      </trkpt>
      <trkpt lat="48.667" lon="-4.32878">
        <ele>5.6</ele>
        <time>2020-06-10T07:52:00Z</time>
      </trkpt>
      <trkpt lat="48.66698" lon="-4.32874">
        <ele>5.6</ele>
        <time>2020-06-10T07:52:01Z</time>
      </trkpt>
      <trkpt lat="48.66696" lon="-4.3287">
        <ele>5.7</ele>
        <time>2020-06-10T07:52:02Z</time>
      </trkpt>
      <trkpt lat="48.66694" lon="-4.32866">
        <ele>5.7</ele>
        <time>2020-06-10T07:52:03Z</time>
      </trkpt>
      <trkpt lat="48.66692" lon="-4.32861">
        <ele>5.7</ele>
        <time>2020-06-10T07:52:04Z</time>
      </trkpt>
      <trkpt lat="48.66689" lon="-4.32856">
        <ele>5.8</ele>
        <time>2020-06-10T07:52:05Z</time>
      </trkpt>
      <trkpt lat="48.66687" lon="-4.32851">
        <ele>5.8</ele>
        <time>2020-06-10T07:52:06Z</time>
      </trkpt>
      <trkpt lat="48.66686" lon="-4.32847">
        <ele>5.8</ele>
        <time>2020-06-10T07:52:07Z</time>
      </trkpt>
      <trkpt lat="48.66685" lon="-4.32843">
        <ele>5.8</ele>
        <time>2020-06-10T07:52:08Z</time>
      </trkpt>
      <trkpt lat="48.66683" lon="-4.3284">
        <ele>5.9</ele>
        <time>2020-06-10T07:52:09Z</time>
      </trkpt>
      <trkpt lat="48.66682" lon="-4.32836">
        <ele>5.9</ele>
        <time>2020-06-10T07:52:10Z</time>
      </trkpt>
      <trkpt lat="48.66681" lon="-4.32832">
        <ele>5.9</ele>
        <time>2020-06-10T07:52:11Z</time>
      </trkpt>
      <trkpt lat="48.6668" lon="-4.32827">
        <ele>5.9</ele>
        <time>2020-06-10T07:52:12Z</time>
      </trkpt>
      <trkpt lat="48.66678" lon="-4.32823">
        <ele>5.9</ele>
        <time>2020-06-10T07:52:13Z</time>
      </trkpt>
      <trkpt lat="48.66676" lon="-4.32819">
        <ele>5.9</ele>
        <time>2020-06-10T07:52:14Z</time>
      </trkpt>
      <trkpt lat="48.66674" lon="-4.32815">
        <ele>6</ele>
        <time>2020-06-10T07:52:15Z</time>
      </trkpt>
      <trkpt lat="48.66673" lon="-4.32813">
        <ele>6</ele>
        <time>2020-06-10T07:52:16Z</time>
      </trkpt>
      <trkpt lat="48.66671" lon="-4.32808">
        <ele>6</ele>
        <time>2020-06-10T07:52:17Z</time>
      </trkpt>
      <trkpt lat="48.6667" lon="-4.32807">
        <ele>6</ele>
        <time>2020-06-10T07:52:18Z</time>
      </trkpt>
      <trkpt lat="48.66668" lon="-4.32802">
        <ele>6</ele>
        <time>2020-06-10T07:52:19Z</time>
      </trkpt>
      <trkpt lat="48.66667" lon="-4.32801">
        <ele>6</ele>
        <time>2020-06-10T07:52:20Z</time>
      </trkpt>
      <trkpt lat="48.66665" lon="-4.32798">
        <ele>6.1</ele>
        <time>2020-06-10T07:52:21Z</time>
      </trkpt>
      <trkpt lat="48.66665" lon="-4.32796">
        <ele>6.1</ele>
        <time>2020-06-10T07:52:22Z</time>
      </trkpt>
      <trkpt lat="48.66664" lon="-4.32792">
        <ele>6.1</ele>
        <time>2020-06-10T07:52:23Z</time>
      </trkpt>
      <trkpt lat="48.66663" lon="-4.32786">
        <ele>6.1</ele>
        <time>2020-06-10T07:52:24Z</time>
      </trkpt>
      <trkpt lat="48.66663" lon="-4.32784">
        <ele>6.1</ele>
        <time>2020-06-10T07:52:25Z</time>
      </trkpt>
      <trkpt lat="48.66661" lon="-4.32779">
        <ele>6.1</ele>
        <time>2020-06-10T07:52:26Z</time>
      </trkpt>
      <trkpt lat="48.66659" lon="-4.32774">
        <ele>6.1</ele>
        <time>2020-06-10T07:52:27Z</time>
      </trkpt>
      <trkpt lat="48.66657" lon="-4.32771">
        <ele>6.1</ele>
        <time>2020-06-10T07:52:28Z</time>
      </trkpt>
      <trkpt lat="48.66654" lon="-4.32766">
        <ele>6.1</ele>
        <time>2020-06-10T07:52:29Z</time>
      </trkpt>
      <trkpt lat="48.66651" lon="-4.32762">
        <ele>6.1</ele>
        <time>2020-06-10T07:52:30Z</time>
      </trkpt>
      <trkpt lat="48.66648" lon="-4.32757">
        <ele>6.1</ele>
        <time>2020-06-10T07:52:31Z</time>
      </trkpt>
      <trkpt lat="48.66644" lon="-4.32752">
        <ele>6.3</ele>
        <time>2020-06-10T07:52:32Z</time>
      </trkpt>
      <trkpt lat="48.6664" lon="-4.32748">
        <ele>6.4</ele>
        <time>2020-06-10T07:52:33Z</time>
      </trkpt>
      <trkpt lat="48.66636" lon="-4.32745">
        <ele>6.6</ele>
        <time>2020-06-10T07:52:34Z</time>
      </trkpt>
      <trkpt lat="48.66632" lon="-4.32741">
        <ele>6.7</ele>
        <time>2020-06-10T07:52:35Z</time>
      </trkpt>
      <trkpt lat="48.66628" lon="-4.32738">
        <ele>6.9</ele>
        <time>2020-06-10T07:52:36Z</time>
      </trkpt>
      <trkpt lat="48.66623" lon="-4.32737">
        <ele>7.1</ele>
        <time>2020-06-10T07:52:37Z</time>
      </trkpt>
      <trkpt lat="48.66619" lon="-4.32736">
        <ele>7.2</ele>
        <time>2020-06-10T07:52:38Z</time>
      </trkpt>
      <trkpt lat="48.66616" lon="-4.32735">
        <ele>7.4</ele>
        <time>2020-06-10T07:52:39Z</time>
      </trkpt>
      <trkpt lat="48.66612" lon="-4.32735">
        <ele>7.5</ele>
        <time>2020-06-10T07:52:40Z</time>
      </trkpt>
      <trkpt lat="48.66611" lon="-4.32735">
        <ele>7.6</ele>
        <time>2020-06-10T07:52:41Z</time>
      </trkpt>
      <trkpt lat="48.66608" lon="-4.32734">
        <ele>7.7</ele>
        <time>2020-06-10T07:52:42Z</time>
      </trkpt>
      <trkpt lat="48.66605" lon="-4.32731">
        <ele>7.9</ele>
        <time>2020-06-10T07:52:43Z</time>
      </trkpt>
      <trkpt lat="48.66603" lon="-4.3273">
        <ele>8</ele>
        <time>2020-06-10T07:52:44Z</time>
      </trkpt>
      <trkpt lat="48.666" lon="-4.32729">
        <ele>8.1</ele>
        <time>2020-06-10T07:52:45Z</time>
      </trkpt>
      <trkpt lat="48.66597" lon="-4.32727">
        <ele>8.3</ele>
        <time>2020-06-10T07:52:46Z</time>
      </trkpt>
      <trkpt lat="48.66593" lon="-4.32726">
        <ele>8.5</ele>
        <time>2020-06-10T07:52:47Z</time>
      </trkpt>
      <trkpt lat="48.66589" lon="-4.32724">
        <ele>8.7</ele>
        <time>2020-06-10T07:52:48Z</time>
      </trkpt>
      <trkpt lat="48.66585" lon="-4.32723">
        <ele>8.9</ele>
        <time>2020-06-10T07:52:49Z</time>
      </trkpt>
      <trkpt lat="48.66582" lon="-4.32722">
        <ele>9</ele>
        <time>2020-06-10T07:52:50Z</time>
      </trkpt>
      <trkpt lat="48.66579" lon="-4.32722">
        <ele>9.2</ele>
        <time>2020-06-10T07:52:51Z</time>
      </trkpt>
      <trkpt lat="48.66576" lon="-4.32721">
        <ele>9.3</ele>
        <time>2020-06-10T07:52:52Z</time>
      </trkpt>
      <trkpt lat="48.66572" lon="-4.32719">
        <ele>9.5</ele>
        <time>2020-06-10T07:52:53Z</time>
      </trkpt>
      <trkpt lat="48.66571" lon="-4.32718">
        <ele>9.6</ele>
        <time>2020-06-10T07:52:54Z</time>
      </trkpt>
      <trkpt lat="48.66568" lon="-4.32716">
        <ele>9.8</ele>
        <time>2020-06-10T07:52:55Z</time>
      </trkpt>
      <trkpt lat="48.66565" lon="-4.32715">
        <ele>10</ele>
        <time>2020-06-10T07:52:56Z</time>
      </trkpt>
      <trkpt lat="48.66561" lon="-4.32715">
        <ele>10.2</ele>
        <time>2020-06-10T07:52:57Z</time>
      </trkpt>
      <trkpt lat="48.66558" lon="-4.32713">
        <ele>10.3</ele>
        <time>2020-06-10T07:52:58Z</time>
      </trkpt>
      <trkpt lat="48.66555" lon="-4.32712">
        <ele>10.5</ele>
        <time>2020-06-10T07:52:59Z</time>
      </trkpt>
      <trkpt lat="48.66552" lon="-4.32712">
        <ele>10.6</ele>
        <time>2020-06-10T07:53:00Z</time>
      </trkpt>
      <trkpt lat="48.66549" lon="-4.3271">
        <ele>10.8</ele>
        <time>2020-06-10T07:53:01Z</time>
      </trkpt>
      <trkpt lat="48.66547" lon="-4.3271">
        <ele>10.9</ele>
        <time>2020-06-10T07:53:02Z</time>
      </trkpt>
      <trkpt lat="48.66545" lon="-4.32706">
        <ele>11.1</ele>
        <time>2020-06-10T07:53:03Z</time>
      </trkpt>
      <trkpt lat="48.66542" lon="-4.32705">
        <ele>11.3</ele>
        <time>2020-06-10T07:53:04Z</time>
      </trkpt>
      <trkpt lat="48.66541" lon="-4.32704">
        <ele>11.4</ele>
        <time>2020-06-10T07:53:05Z</time>
      </trkpt>
      <trkpt lat="48.66537" lon="-4.32701">
        <ele>11.6</ele>
        <time>2020-06-10T07:53:06Z</time>
      </trkpt>
      <trkpt lat="48.66535" lon="-4.32699">
        <ele>11.8</ele>
        <time>2020-06-10T07:53:07Z</time>
      </trkpt>
      <trkpt lat="48.66532" lon="-4.32696">
        <ele>12</ele>
        <time>2020-06-10T07:53:08Z</time>
      </trkpt>
      <trkpt lat="48.66529" lon="-4.32694">
        <ele>12.3</ele>
        <time>2020-06-10T07:53:09Z</time>
      </trkpt>
      <trkpt lat="48.66526" lon="-4.32691">
        <ele>12.5</ele>
        <time>2020-06-10T07:53:10Z</time>
      </trkpt>
      <trkpt lat="48.66522" lon="-4.32689">
        <ele>12.8</ele>
        <time>2020-06-10T07:53:11Z</time>
      </trkpt>
      <trkpt lat="48.66519" lon="-4.32687">
        <ele>13</ele>
        <time>2020-06-10T07:53:12Z</time>
      </trkpt>
      <trkpt lat="48.66516" lon="-4.32684">
        <ele>13.2</ele>
        <time>2020-06-10T07:53:13Z</time>
      </trkpt>
      <trkpt lat="48.66514" lon="-4.32681">
        <ele>13.4</ele>
        <time>2020-06-10T07:53:14Z</time>
      </trkpt>
      <trkpt lat="48.66511" lon="-4.32678">
        <ele>13.6</ele>
        <time>2020-06-10T07:53:15Z</time>
      </trkpt>
      <trkpt lat="48.66509" lon="-4.32674">
        <ele>13.8</ele>
        <time>2020-06-10T07:53:16Z</time>
      </trkpt>
      <trkpt lat="48.66506" lon="-4.32671">
        <ele>14</ele>
        <time>2020-06-10T07:53:17Z</time>
      </trkpt>
      <trkpt lat="48.66502" lon="-4.32669">
        <ele>14.2</ele>
        <time>2020-06-10T07:53:18Z</time>
      </trkpt>
      <trkpt lat="48.66501" lon="-4.32669">
        <ele>14.3</ele>
        <time>2020-06-10T07:53:19Z</time>
      </trkpt>
      <trkpt lat="48.66497" lon="-4.32667">
        <ele>14.5</ele>
        <time>2020-06-10T07:53:20Z</time>
      </trkpt>
      <trkpt lat="48.66494" lon="-4.32666">
        <ele>14.6</ele>
        <time>2020-06-10T07:53:21Z</time>
      </trkpt>
      <trkpt lat="48.6649" lon="-4.32664">
        <ele>14.8</ele>
        <time>2020-06-10T07:53:22Z</time>
      </trkpt>
      <trkpt lat="48.66487" lon="-4.32663">
        <ele>14.9</ele>
        <time>2020-06-10T07:53:23Z</time>
      </trkpt>
      <trkpt lat="48.66484" lon="-4.32661">
        <ele>15.1</ele>
        <time>2020-06-10T07:53:24Z</time>
      </trkpt>
      <trkpt lat="48.66482" lon="-4.3266">
        <ele>15.2</ele>
        <time>2020-06-10T07:53:25Z</time>
      </trkpt>
      <trkpt lat="48.66479" lon="-4.32658">
        <ele>15.3</ele>
        <time>2020-06-10T07:53:26Z</time>
      </trkpt>
      <trkpt lat="48.66476" lon="-4.32657">
        <ele>15.4</ele>
        <time>2020-06-10T07:53:27Z</time>
      </trkpt>
      <trkpt lat="48.66473" lon="-4.32656">
        <ele>15.6</ele>
        <time>2020-06-10T07:53:28Z</time>
      </trkpt>
      <trkpt lat="48.6647" lon="-4.32654">
        <ele>15.6</ele>
        <time>2020-06-10T07:53:29Z</time>
      </trkpt>
      <trkpt lat="48.66467" lon="-4.32654">
        <ele>15.7</ele>
        <time>2020-06-10T07:53:30Z</time>
      </trkpt>
      <trkpt lat="48.66463" lon="-4.32655">
        <ele>15.8</ele>
        <time>2020-06-10T07:53:31Z</time>
      </trkpt>
      <trkpt lat="48.6646" lon="-4.32655">
        <ele>15.9</ele>
        <time>2020-06-10T07:53:32Z</time>
      </trkpt>
      <trkpt lat="48.66457" lon="-4.32657">
        <ele>15.9</ele>
        <time>2020-06-10T07:53:33Z</time>
      </trkpt>
      <trkpt lat="48.66453" lon="-4.32658">
        <ele>16</ele>
        <time>2020-06-10T07:53:34Z</time>
      </trkpt>
      <trkpt lat="48.66452" lon="-4.32658">
        <ele>16</ele>
        <time>2020-06-10T07:53:35Z</time>
      </trkpt>
      <trkpt lat="48.66449" lon="-4.32659">
        <ele>16.1</ele>
        <time>2020-06-10T07:53:36Z</time>
      </trkpt>
      <trkpt lat="48.66448" lon="-4.32659">
        <ele>16.2</ele>
        <time>2020-06-10T07:53:37Z</time>
      </trkpt>
      <trkpt lat="48.66444" lon="-4.32659">
        <ele>16.2</ele>
        <time>2020-06-10T07:53:38Z</time>
      </trkpt>
      <trkpt lat="48.66443" lon="-4.32659">
        <ele>16.3</ele>
        <time>2020-06-10T07:53:39Z</time>
      </trkpt>
      <trkpt lat="48.6644" lon="-4.3266">
        <ele>16.3</ele>
        <time>2020-06-10T07:53:40Z</time>
      </trkpt>
      <trkpt lat="48.66439" lon="-4.3266">
        <ele>16.3</ele>
        <time>2020-06-10T07:53:41Z</time>
      </trkpt>
      <trkpt lat="48.66436" lon="-4.3266">
        <ele>16.3</ele>
        <time>2020-06-10T07:53:42Z</time>
      </trkpt>
      <trkpt lat="48.66433" lon="-4.32662">
        <ele>16.3</ele>
        <time>2020-06-10T07:53:43Z</time>
      </trkpt>
      <trkpt lat="48.66432" lon="-4.32663">
        <ele>16.3</ele>
        <time>2020-06-10T07:53:44Z</time>
      </trkpt>
      <trkpt lat="48.66429" lon="-4.32664">
        <ele>16.3</ele>
        <time>2020-06-10T07:53:45Z</time>
      </trkpt>
      <trkpt lat="48.66427" lon="-4.32664">
        <ele>16.3</ele>
        <time>2020-06-10T07:53:46Z</time>
      </trkpt>
      <trkpt lat="48.66424" lon="-4.32664">
        <ele>16</ele>
        <time>2020-06-10T07:53:47Z</time>
      </trkpt>
      <trkpt lat="48.66423" lon="-4.32664">
        <ele>16</ele>
        <time>2020-06-10T07:53:48Z</time>
      </trkpt>
      <trkpt lat="48.66422" lon="-4.32664">
        <ele>16</ele>
        <time>2020-06-10T07:53:49Z</time>
      </trkpt>
      <trkpt lat="48.66421" lon="-4.32665">
        <ele>15.9</ele>
        <time>2020-06-10T07:53:50Z</time>
      </trkpt>
      <trkpt lat="48.6642" lon="-4.32665">
        <ele>15.9</ele>
        <time>2020-06-10T07:53:51Z</time>
      </trkpt>
      <trkpt lat="48.66417" lon="-4.32666">
        <ele>15.8</ele>
        <time>2020-06-10T07:53:52Z</time>
      </trkpt>
      <trkpt lat="48.66413" lon="-4.32667">
        <ele>15.7</ele>
        <time>2020-06-10T07:53:53Z</time>
      </trkpt>
      <trkpt lat="48.66411" lon="-4.32668">
        <ele>15.6</ele>
        <time>2020-06-10T07:53:54Z</time>
      </trkpt>
      <trkpt lat="48.66408" lon="-4.32669">
        <ele>15.5</ele>
        <time>2020-06-10T07:53:55Z</time>
      </trkpt>
      <trkpt lat="48.66404" lon="-4.3267">
        <ele>15.3</ele>
        <time>2020-06-10T07:53:56Z</time>
      </trkpt>
      <trkpt lat="48.664" lon="-4.32669">
        <ele>15.1</ele>
        <time>2020-06-10T07:53:57Z</time>
      </trkpt>
      <trkpt lat="48.66396" lon="-4.3267">
        <ele>15</ele>
        <time>2020-06-10T07:53:58Z</time>
      </trkpt>
      <trkpt lat="48.66392" lon="-4.32671">
        <ele>14.8</ele>
        <time>2020-06-10T07:53:59Z</time>
      </trkpt>
      <trkpt lat="48.66389" lon="-4.32671">
        <ele>14.6</ele>
        <time>2020-06-10T07:54:00Z</time>
      </trkpt>
      <trkpt lat="48.66386" lon="-4.32671">
        <ele>14.5</ele>
        <time>2020-06-10T07:54:01Z</time>
      </trkpt>
      <trkpt lat="48.66382" lon="-4.32672">
        <ele>14.3</ele>
        <time>2020-06-10T07:54:02Z</time>
      </trkpt>
      <trkpt lat="48.66381" lon="-4.32671">
        <ele>14.3</ele>
        <time>2020-06-10T07:54:03Z</time>
      </trkpt>
      <trkpt lat="48.66377" lon="-4.32672">
        <ele>14</ele>
        <time>2020-06-10T07:54:04Z</time>
      </trkpt>
      <trkpt lat="48.66376" lon="-4.32672">
        <ele>14</ele>
        <time>2020-06-10T07:54:05Z</time>
      </trkpt>
      <trkpt lat="48.66372" lon="-4.32672">
        <ele>13.8</ele>
        <time>2020-06-10T07:54:06Z</time>
      </trkpt>
      <trkpt lat="48.66369" lon="-4.32672">
        <ele>13.8</ele>
        <time>2020-06-10T07:54:07Z</time>
      </trkpt>
      <trkpt lat="48.66368" lon="-4.32672">
        <ele>13.8</ele>
        <time>2020-06-10T07:54:08Z</time>
      </trkpt>
      <trkpt lat="48.66367" lon="-4.32671">
        <ele>13.7</ele>
        <time>2020-06-10T07:54:09Z</time>
      </trkpt>
      <trkpt lat="48.66367" lon="-4.3267">
        <ele>13.7</ele>
        <time>2020-06-10T07:54:10Z</time>
      </trkpt>
      <trkpt lat="48.66368" lon="-4.32669">
        <ele>13.7</ele>
        <time>2020-06-10T07:54:11Z</time>
      </trkpt>
      <trkpt lat="48.66368" lon="-4.32667">
        <ele>13.7</ele>
        <time>2020-06-10T07:54:12Z</time>
      </trkpt>
      <trkpt lat="48.66368" lon="-4.32667">
        <ele>13.7</ele>
        <time>2020-06-10T07:54:13Z</time>
      </trkpt>
      <trkpt lat="48.66368" lon="-4.32667">
        <ele>13.7</ele>
        <time>2020-06-10T07:54:14Z</time>
      </trkpt>
      <trkpt lat="48.66367" lon="-4.32666">
        <ele>13.7</ele>
        <time>2020-06-10T07:54:15Z</time>
      </trkpt>
      <trkpt lat="48.66368" lon="-4.32665">
        <ele>13.6</ele>
        <time>2020-06-10T07:54:16Z</time>
      </trkpt>
      <trkpt lat="48.66368" lon="-4.32667">
        <ele>13.6</ele>
        <time>2020-06-10T07:54:17Z</time>
      </trkpt>
      <trkpt lat="48.66367" lon="-4.32668">
        <ele>13.6</ele>
        <time>2020-06-10T07:54:18Z</time>
      </trkpt>
      <trkpt lat="48.66367" lon="-4.32668">
        <ele>13.6</ele>
        <time>2020-06-10T07:54:19Z</time>
      </trkpt>
      <trkpt lat="48.66367" lon="-4.32669">
        <ele>13.6</ele>
        <time>2020-06-10T07:54:20Z</time>
      </trkpt>
      <trkpt lat="48.66368" lon="-4.32668">
        <ele>13.6</ele>
        <time>2020-06-10T07:54:21Z</time>
      </trkpt>
      <trkpt lat="48.66367" lon="-4.32668">
        <ele>13.6</ele>
        <time>2020-06-10T07:54:22Z</time>
      </trkpt>
      <trkpt lat="48.66367" lon="-4.32668">
        <ele>13.6</ele>
        <time>2020-06-10T07:54:23Z</time>
      </trkpt>
      <trkpt lat="48.66367" lon="-4.32668">
        <ele>13.6</ele>
        <time>2020-06-10T07:54:24Z</time>
      </trkpt>
      <trkpt lat="48.66367" lon="-4.32668">
        <ele>13.6</ele>
        <time>2020-06-10T07:54:25Z</time>
      </trkpt>
      <trkpt lat="48.66367" lon="-4.32669">
        <ele>13.6</ele>
        <time>2020-06-10T07:54:26Z</time>
      </trkpt>
      <trkpt lat="48.66367" lon="-4.32669">
        <ele>13.6</ele>
        <time>2020-06-10T07:54:27Z</time>
      </trkpt>
      <trkpt lat="48.66366" lon="-4.32669">
        <ele>13.5</ele>
        <time>2020-06-10T07:54:28Z</time>
      </trkpt>
      <trkpt lat="48.66366" lon="-4.3267">
        <ele>13.5</ele>
        <time>2020-06-10T07:54:29Z</time>
      </trkpt>
      <trkpt lat="48.66366" lon="-4.3267">
        <ele>13.5</ele>
        <time>2020-06-10T07:54:30Z</time>
      </trkpt>
      <trkpt lat="48.66366" lon="-4.3267">
        <ele>13.5</ele>
        <time>2020-06-10T07:54:31Z</time>
      </trkpt>
      <trkpt lat="48.66366" lon="-4.3267">
        <ele>13.5</ele>
        <time>2020-06-10T07:54:32Z</time>
      </trkpt>
      <trkpt lat="48.66366" lon="-4.3267">
        <ele>13.5</ele>
        <time>2020-06-10T07:54:33Z</time>
      </trkpt>
      <trkpt lat="48.66367" lon="-4.3267">
        <ele>13.5</ele>
        <time>2020-06-10T07:54:34Z</time>
      </trkpt>
      <trkpt lat="48.66367" lon="-4.3267">
        <ele>13.5</ele>
        <time>2020-06-10T07:54:35Z</time>
      </trkpt>
      <trkpt lat="48.66366" lon="-4.32672">
        <ele>13.5</ele>
        <time>2020-06-10T07:54:36Z</time>
      </trkpt>
      <trkpt lat="48.66366" lon="-4.32673">
        <ele>13.4</ele>
        <time>2020-06-10T07:54:37Z</time>
      </trkpt>
      <trkpt lat="48.66366" lon="-4.32673">
        <ele>13.4</ele>
        <time>2020-06-10T07:54:38Z</time>
      </trkpt>
      <trkpt lat="48.66366" lon="-4.32674">
        <ele>13.4</ele>
        <time>2020-06-10T07:54:39Z</time>
      </trkpt>
      <trkpt lat="48.66366" lon="-4.32674">
        <ele>13.4</ele>
        <time>2020-06-10T07:54:40Z</time>
      </trkpt>
      <trkpt lat="48.66365" lon="-4.32674">
        <ele>13.4</ele>
        <time>2020-06-10T07:54:41Z</time>
      </trkpt>
      <trkpt lat="48.66365" lon="-4.32672">
        <ele>13.4</ele>
        <time>2020-06-10T07:54:42Z</time>
      </trkpt>
      <trkpt lat="48.66365" lon="-4.32671">
        <ele>13.4</ele>
        <time>2020-06-10T07:54:43Z</time>
      </trkpt>
      <trkpt lat="48.66365" lon="-4.3267">
        <ele>13.3</ele>
        <time>2020-06-10T07:54:44Z</time>
      </trkpt>
      <trkpt lat="48.66365" lon="-4.32669">
        <ele>13.3</ele>
        <time>2020-06-10T07:54:45Z</time>
      </trkpt>
      <trkpt lat="48.66365" lon="-4.32667">
        <ele>13.3</ele>
        <time>2020-06-10T07:54:46Z</time>
      </trkpt>
      <trkpt lat="48.66365" lon="-4.32666">
        <ele>13.3</ele>
        <time>2020-06-10T07:54:47Z</time>
      </trkpt>
      <trkpt lat="48.66365" lon="-4.32665">
        <ele>13.2</ele>
        <time>2020-06-10T07:54:48Z</time>
      </trkpt>
      <trkpt lat="48.66365" lon="-4.32664">
        <ele>13.2</ele>
        <time>2020-06-10T07:54:49Z</time>
      </trkpt>
      <trkpt lat="48.66365" lon="-4.32663">
        <ele>13.2</ele>
        <time>2020-06-10T07:56:27Z</time>
      </trkpt>
      <trkpt lat="48.66365" lon="-4.32661">
        <ele>13.2</ele>
        <time>2020-06-10T07:56:28Z</time>
      </trkpt>
      <trkpt lat="48.66364" lon="-4.32657">
        <ele>13.1</ele>
        <time>2020-06-10T07:56:29Z</time>
      </trkpt>
      <trkpt lat="48.66363" lon="-4.32653">
        <ele>13</ele>
        <time>2020-06-10T07:56:30Z</time>
      </trkpt>
      <trkpt lat="48.66362" lon="-4.32649">
        <ele>13</ele>
        <time>2020-06-10T07:56:31Z</time>
      </trkpt>
      <trkpt lat="48.6636" lon="-4.32645">
        <ele>12.9</ele>
        <time>2020-06-10T07:56:32Z</time>
      </trkpt>
      <trkpt lat="48.66359" lon="-4.32644">
        <ele>12.8</ele>
        <time>2020-06-10T07:56:33Z</time>
      </trkpt>
      <trkpt lat="48.66356" lon="-4.32639">
        <ele>12.7</ele>
        <time>2020-06-10T07:56:34Z</time>
      </trkpt>
      <trkpt lat="48.66353" lon="-4.32636">
        <ele>12.6</ele>
        <time>2020-06-10T07:56:35Z</time>
      </trkpt>
      <trkpt lat="48.6635" lon="-4.32634">
        <ele>12.3</ele>
        <time>2020-06-10T07:56:36Z</time>
      </trkpt>
      <trkpt lat="48.66346" lon="-4.32632">
        <ele>12.2</ele>
        <time>2020-06-10T07:56:37Z</time>
      </trkpt>
      <trkpt lat="48.66343" lon="-4.3263">
        <ele>12</ele>
        <time>2020-06-10T07:56:38Z</time>
      </trkpt>
      <trkpt lat="48.66339" lon="-4.3263">
        <ele>11.9</ele>
        <time>2020-06-10T07:56:39Z</time>
      </trkpt>
      <trkpt lat="48.66335" lon="-4.32629">
        <ele>11.7</ele>
        <time>2020-06-10T07:56:40Z</time>
      </trkpt>
      <trkpt lat="48.66331" lon="-4.32627">
        <ele>11.5</ele>
        <time>2020-06-10T07:56:41Z</time>
      </trkpt>
      <trkpt lat="48.66327" lon="-4.32627">
        <ele>11.3</ele>
        <time>2020-06-10T07:56:42Z</time>
      </trkpt>
      <trkpt lat="48.66322" lon="-4.32625">
        <ele>11.1</ele>
        <time>2020-06-10T07:56:43Z</time>
      </trkpt>
      <trkpt lat="48.66319" lon="-4.32625">
        <ele>10.9</ele>
        <time>2020-06-10T07:56:44Z</time>
      </trkpt>
      <trkpt lat="48.66316" lon="-4.32623">
        <ele>10.8</ele>
        <time>2020-06-10T07:56:45Z</time>
      </trkpt>
      <trkpt lat="48.66312" lon="-4.3262">
        <ele>10.6</ele>
        <time>2020-06-10T07:56:46Z</time>
      </trkpt>
      <trkpt lat="48.66309" lon="-4.32618">
        <ele>10.4</ele>
        <time>2020-06-10T07:56:47Z</time>
      </trkpt>
      <trkpt lat="48.66305" lon="-4.32616">
        <ele>10.2</ele>
        <time>2020-06-10T07:56:48Z</time>
      </trkpt>
      <trkpt lat="48.66301" lon="-4.32614">
        <ele>10.1</ele>
        <time>2020-06-10T07:56:49Z</time>
      </trkpt>
      <trkpt lat="48.66297" lon="-4.32612">
        <ele>9.9</ele>
        <time>2020-06-10T07:56:50Z</time>
      </trkpt>
      <trkpt lat="48.66293" lon="-4.32609">
        <ele>9.7</ele>
        <time>2020-06-10T07:56:51Z</time>
      </trkpt>
      <trkpt lat="48.66289" lon="-4.32605">
        <ele>9.5</ele>
        <time>2020-06-10T07:56:52Z</time>
      </trkpt>
      <trkpt lat="48.66284" lon="-4.32601">
        <ele>9.3</ele>
        <time>2020-06-10T07:56:53Z</time>
      </trkpt>
      <trkpt lat="48.66279" lon="-4.32596">
        <ele>9.1</ele>
        <time>2020-06-10T07:56:54Z</time>
      </trkpt>
      <trkpt lat="48.66275" lon="-4.32593">
        <ele>8.9</ele>
        <time>2020-06-10T07:56:55Z</time>
      </trkpt>
      <trkpt lat="48.6627" lon="-4.3259">
        <ele>8.7</ele>
        <time>2020-06-10T07:56:56Z</time>
      </trkpt>
      <trkpt lat="48.66266" lon="-4.32585">
        <ele>8.5</ele>
        <time>2020-06-10T07:56:57Z</time>
      </trkpt>
      <trkpt lat="48.66262" lon="-4.3258">
        <ele>8.3</ele>
        <time>2020-06-10T07:56:58Z</time>
      </trkpt>
      <trkpt lat="48.66257" lon="-4.32576">
        <ele>8.2</ele>
        <time>2020-06-10T07:56:59Z</time>
      </trkpt>
      <trkpt lat="48.66252" lon="-4.32572">
        <ele>8</ele>
        <time>2020-06-10T07:57:00Z</time>
      </trkpt>
      <trkpt lat="48.66248" lon="-4.32568">
        <ele>7.9</ele>
        <time>2020-06-10T07:57:01Z</time>
      </trkpt>
      <trkpt lat="48.66243" lon="-4.32562">
        <ele>7.7</ele>
        <time>2020-06-10T07:57:02Z</time>
      </trkpt>
      <trkpt lat="48.66238" lon="-4.32558">
        <ele>7.6</ele>
        <time>2020-06-10T07:57:03Z</time>
      </trkpt>
      <trkpt lat="48.66234" lon="-4.32554">
        <ele>7.4</ele>
        <time>2020-06-10T07:57:04Z</time>
      </trkpt>
      <trkpt lat="48.66229" lon="-4.3255">
        <ele>7.3</ele>
        <time>2020-06-10T07:57:05Z</time>
      </trkpt>
      <trkpt lat="48.66225" lon="-4.32545">
        <ele>7.1</ele>
        <time>2020-06-10T07:57:06Z</time>
      </trkpt>
      <trkpt lat="48.66222" lon="-4.3254">
        <ele>7</ele>
        <time>2020-06-10T07:57:07Z</time>
      </trkpt>
      <trkpt lat="48.66219" lon="-4.32532">
        <ele>6.9</ele>
        <time>2020-06-10T07:57:08Z</time>
      </trkpt>
      <trkpt lat="48.66216" lon="-4.32526">
        <ele>6.8</ele>
        <time>2020-06-10T07:57:09Z</time>
      </trkpt>
      <trkpt lat="48.66214" lon="-4.3252">
        <ele>6.7</ele>
        <time>2020-06-10T07:57:10Z</time>
      </trkpt>
      <trkpt lat="48.66212" lon="-4.32514">
        <ele>6.6</ele>
        <time>2020-06-10T07:57:11Z</time>
      </trkpt>
      <trkpt lat="48.6621" lon="-4.32509">
        <ele>6.5</ele>
        <time>2020-06-10T07:57:12Z</time>
      </trkpt>
      <trkpt lat="48.66208" lon="-4.32502">
        <ele>6.3</ele>
        <time>2020-06-10T07:57:13Z</time>
      </trkpt>
      <trkpt lat="48.66206" lon="-4.32495">
        <ele>6.2</ele>
        <time>2020-06-10T07:57:14Z</time>
      </trkpt>
      <trkpt lat="48.66204" lon="-4.32487">
        <ele>6</ele>
        <time>2020-06-10T07:57:15Z</time>
      </trkpt>
      <trkpt lat="48.66201" lon="-4.3248">
        <ele>5.8</ele>
        <time>2020-06-10T07:57:16Z</time>
      </trkpt>
      <trkpt lat="48.66199" lon="-4.32472">
        <ele>5.7</ele>
        <time>2020-06-10T07:57:17Z</time>
      </trkpt>
      <trkpt lat="48.66196" lon="-4.32464">
        <ele>5.6</ele>
        <time>2020-06-10T07:57:18Z</time>
      </trkpt>
      <trkpt lat="48.66192" lon="-4.32455">
        <ele>5.4</ele>
        <time>2020-06-10T07:57:19Z</time>
      </trkpt>
      <trkpt lat="48.66189" lon="-4.32447">
        <ele>5.3</ele>
        <time>2020-06-10T07:57:20Z</time>
      </trkpt>
      <trkpt lat="48.66186" lon="-4.3244">
        <ele>5.2</ele>
        <time>2020-06-10T07:57:21Z</time>
      </trkpt>
      <trkpt lat="48.66184" lon="-4.32433">
        <ele>5.1</ele>
        <time>2020-06-10T07:57:22Z</time>
      </trkpt>
      <trkpt lat="48.66181" lon="-4.32427">
        <ele>5.1</ele>
        <time>2020-06-10T07:57:23Z</time>
      </trkpt>
      <trkpt lat="48.66179" lon="-4.32422">
        <ele>5</ele>
        <time>2020-06-10T07:57:24Z</time>
      </trkpt>
      <trkpt lat="48.66177" lon="-4.32416">
        <ele>5</ele>
        <time>2020-06-10T07:57:25Z</time>
      </trkpt>
      <trkpt lat="48.66174" lon="-4.32409">
        <ele>4.9</ele>
        <time>2020-06-10T07:57:26Z</time>
      </trkpt>
      <trkpt lat="48.66171" lon="-4.32403">
        <ele>4.8</ele>
        <time>2020-06-10T07:57:27Z</time>
      </trkpt>
      <trkpt lat="48.66169" lon="-4.32396">
        <ele>4.8</ele>
        <time>2020-06-10T07:57:28Z</time>
      </trkpt>
      <trkpt lat="48.66166" lon="-4.3239">
        <ele>4.7</ele>
        <time>2020-06-10T07:57:29Z</time>
      </trkpt>
      <trkpt lat="48.66162" lon="-4.32386">
        <ele>4.7</ele>
        <time>2020-06-10T07:57:30Z</time>
      </trkpt>
      <trkpt lat="48.66158" lon="-4.32381">
        <ele>4.6</ele>
        <time>2020-06-10T07:57:31Z</time>
      </trkpt>
      <trkpt lat="48.66154" lon="-4.32377">
        <ele>4.8</ele>
        <time>2020-06-10T07:57:32Z</time>
      </trkpt>
      <trkpt lat="48.6615" lon="-4.32373">
        <ele>4.8</ele>
        <time>2020-06-10T07:57:33Z</time>
      </trkpt>
      <trkpt lat="48.66146" lon="-4.32371">
        <ele>4.9</ele>
        <time>2020-06-10T07:57:34Z</time>
      </trkpt>
      <trkpt lat="48.66143" lon="-4.32369">
        <ele>4.9</ele>
        <time>2020-06-10T07:57:35Z</time>
      </trkpt>
      <trkpt lat="48.66138" lon="-4.32366">
        <ele>5</ele>
        <time>2020-06-10T07:57:36Z</time>
      </trkpt>
      <trkpt lat="48.66134" lon="-4.32364">
        <ele>5</ele>
        <time>2020-06-10T07:57:37Z</time>
      </trkpt>
      <trkpt lat="48.6613" lon="-4.32362">
        <ele>5.1</ele>
        <time>2020-06-10T07:57:38Z</time>
      </trkpt>
      <trkpt lat="48.66125" lon="-4.32362">
        <ele>5.3</ele>
        <time>2020-06-10T07:57:39Z</time>
      </trkpt>
      <trkpt lat="48.66118" lon="-4.32363">
        <ele>5.5</ele>
        <time>2020-06-10T07:57:40Z</time>
      </trkpt>
      <trkpt lat="48.66112" lon="-4.32363">
        <ele>5.7</ele>
        <time>2020-06-10T07:57:41Z</time>
      </trkpt>
      <trkpt lat="48.66105" lon="-4.32364">
        <ele>5.9</ele>
        <time>2020-06-10T07:57:42Z</time>
      </trkpt>
      <trkpt lat="48.661" lon="-4.32363">
        <ele>6</ele>
        <time>2020-06-10T07:57:43Z</time>
      </trkpt>
      <trkpt lat="48.66094" lon="-4.32364">
        <ele>6.1</ele>
        <time>2020-06-10T07:57:44Z</time>
      </trkpt>
      <trkpt lat="48.66088" lon="-4.32363">
        <ele>6.2</ele>
        <time>2020-06-10T07:57:45Z</time>
      </trkpt>
      <trkpt lat="48.66084" lon="-4.32364">
        <ele>6.3</ele>
        <time>2020-06-10T07:57:46Z</time>
      </trkpt>
      <trkpt lat="48.66079" lon="-4.32364">
        <ele>6.4</ele>
        <time>2020-06-10T07:57:47Z</time>
      </trkpt>
      <trkpt lat="48.66074" lon="-4.32364">
        <ele>6.5</ele>
        <time>2020-06-10T07:57:48Z</time>
      </trkpt>
      <trkpt lat="48.6607" lon="-4.32363">
        <ele>6.6</ele>
        <time>2020-06-10T07:57:49Z</time>
      </trkpt>
      <trkpt lat="48.66066" lon="-4.32362">
        <ele>6.7</ele>
        <time>2020-06-10T07:57:50Z</time>
      </trkpt>
      <trkpt lat="48.66062" lon="-4.32361">
        <ele>6.8</ele>
        <time>2020-06-10T07:57:51Z</time>
      </trkpt>
      <trkpt lat="48.66058" lon="-4.32361">
        <ele>6.9</ele>
        <time>2020-06-10T07:57:52Z</time>
      </trkpt>
      <trkpt lat="48.66053" lon="-4.3236">
        <ele>7</ele>
        <time>2020-06-10T07:57:53Z</time>
      </trkpt>
      <trkpt lat="48.66048" lon="-4.32359">
        <ele>7.1</ele>
        <time>2020-06-10T07:57:54Z</time>
      </trkpt>
      <trkpt lat="48.66043" lon="-4.32356">
        <ele>7.1</ele>
        <time>2020-06-10T07:57:55Z</time>
      </trkpt>
      <trkpt lat="48.66038" lon="-4.32353">
        <ele>7.1</ele>
        <time>2020-06-10T07:57:56Z</time>
      </trkpt>
      <trkpt lat="48.66033" lon="-4.32349">
        <ele>7.2</ele>
        <time>2020-06-10T07:57:57Z</time>
      </trkpt>
      <trkpt lat="48.66029" lon="-4.32346">
        <ele>7.3</ele>
        <time>2020-06-10T07:57:58Z</time>
      </trkpt>
      <trkpt lat="48.66024" lon="-4.32343">
        <ele>7.3</ele>
        <time>2020-06-10T07:57:59Z</time>
      </trkpt>
      <trkpt lat="48.66021" lon="-4.32341">
        <ele>7.4</ele>
        <time>2020-06-10T07:58:00Z</time>
      </trkpt>
      <trkpt lat="48.66017" lon="-4.32339">
        <ele>7.5</ele>
        <time>2020-06-10T07:58:01Z</time>
      </trkpt>
      <trkpt lat="48.66013" lon="-4.32339">
        <ele>7.6</ele>
        <time>2020-06-10T07:58:02Z</time>
      </trkpt>
      <trkpt lat="48.66008" lon="-4.32339">
        <ele>7.7</ele>
        <time>2020-06-10T07:58:03Z</time>
      </trkpt>
      <trkpt lat="48.66003" lon="-4.3234">
        <ele>7.8</ele>
        <time>2020-06-10T07:58:04Z</time>
      </trkpt>
      <trkpt lat="48.65998" lon="-4.32342">
        <ele>7.9</ele>
        <time>2020-06-10T07:58:05Z</time>
      </trkpt>
      <trkpt lat="48.65993" lon="-4.32343">
        <ele>7.9</ele>
        <time>2020-06-10T07:58:06Z</time>
      </trkpt>
      <trkpt lat="48.65987" lon="-4.32345">
        <ele>8</ele>
        <time>2020-06-10T07:58:07Z</time>
      </trkpt>
      <trkpt lat="48.65983" lon="-4.32348">
        <ele>8.1</ele>
        <time>2020-06-10T07:58:08Z</time>
      </trkpt>
      <trkpt lat="48.65978" lon="-4.32349">
        <ele>8.2</ele>
        <time>2020-06-10T07:58:09Z</time>
      </trkpt>
      <trkpt lat="48.65974" lon="-4.32349">
        <ele>8.3</ele>
        <time>2020-06-10T07:58:10Z</time>
      </trkpt>
      <trkpt lat="48.65969" lon="-4.32348">
        <ele>8.5</ele>
        <time>2020-06-10T07:58:11Z</time>
      </trkpt>
      <trkpt lat="48.65964" lon="-4.32347">
        <ele>8.6</ele>
        <time>2020-06-10T07:58:12Z</time>
      </trkpt>
      <trkpt lat="48.6596" lon="-4.32347">
        <ele>8.6</ele>
        <time>2020-06-10T07:58:13Z</time>
      </trkpt>
      <trkpt lat="48.65955" lon="-4.32347">
        <ele>8.7</ele>
        <time>2020-06-10T07:58:14Z</time>
      </trkpt>
      <trkpt lat="48.65951" lon="-4.32347">
        <ele>8.8</ele>
        <time>2020-06-10T07:58:15Z</time>
      </trkpt>
      <trkpt lat="48.65946" lon="-4.32348">
        <ele>8.9</ele>
        <time>2020-06-10T07:58:16Z</time>
      </trkpt>
      <trkpt lat="48.65942" lon="-4.32348">
        <ele>9.1</ele>
        <time>2020-06-10T07:58:17Z</time>
      </trkpt>
      <trkpt lat="48.65937" lon="-4.3235">
        <ele>9.2</ele>
        <time>2020-06-10T07:58:18Z</time>
      </trkpt>
      <trkpt lat="48.65933" lon="-4.32349">
        <ele>9.4</ele>
        <time>2020-06-10T07:58:19Z</time>
      </trkpt>
      <trkpt lat="48.65929" lon="-4.32349">
        <ele>9.5</ele>
        <time>2020-06-10T07:58:20Z</time>
      </trkpt>
      <trkpt lat="48.65924" lon="-4.32349">
        <ele>9.7</ele>
        <time>2020-06-10T07:58:21Z</time>
      </trkpt>
      <trkpt lat="48.65919" lon="-4.32348">
        <ele>9.8</ele>
        <time>2020-06-10T07:58:22Z</time>
      </trkpt>
      <trkpt lat="48.65914" lon="-4.32348">
        <ele>9.9</ele>
        <time>2020-06-10T07:58:23Z</time>
      </trkpt>
      <trkpt lat="48.65909" lon="-4.32347">
        <ele>10.1</ele>
        <time>2020-06-10T07:58:24Z</time>
      </trkpt>
      <trkpt lat="48.65904" lon="-4.32346">
        <ele>10.2</ele>
        <time>2020-06-10T07:58:25Z</time>
      </trkpt>
      <trkpt lat="48.65898" lon="-4.32345">
        <ele>10.3</ele>
        <time>2020-06-10T07:58:26Z</time>
      </trkpt>
      <trkpt lat="48.65894" lon="-4.32342">
        <ele>10.4</ele>
        <time>2020-06-10T07:58:27Z</time>
      </trkpt>
      <trkpt lat="48.6589" lon="-4.3234">
        <ele>10.5</ele>
        <time>2020-06-10T07:58:28Z</time>
      </trkpt>
      <trkpt lat="48.65886" lon="-4.32337">
        <ele>10.6</ele>
        <time>2020-06-10T07:58:29Z</time>
      </trkpt>
      <trkpt lat="48.65882" lon="-4.32334">
        <ele>10.7</ele>
        <time>2020-06-10T07:58:30Z</time>
      </trkpt>
      <trkpt lat="48.65878" lon="-4.3233">
        <ele>10.9</ele>
        <time>2020-06-10T07:58:31Z</time>
      </trkpt>
      <trkpt lat="48.65875" lon="-4.32326">
        <ele>11</ele>
        <time>2020-06-10T07:58:32Z</time>
      </trkpt>
      <trkpt lat="48.65872" lon="-4.3232">
        <ele>11.2</ele>
        <time>2020-06-10T07:58:33Z</time>
      </trkpt>
      <trkpt lat="48.65869" lon="-4.32314">
        <ele>11.3</ele>
        <time>2020-06-10T07:58:34Z</time>
      </trkpt>
      <trkpt lat="48.65865" lon="-4.32308">
        <ele>11.4</ele>
        <time>2020-06-10T07:58:35Z</time>
      </trkpt>
      <trkpt lat="48.65861" lon="-4.32302">
        <ele>11.5</ele>
        <time>2020-06-10T07:58:36Z</time>
      </trkpt>
      <trkpt lat="48.65857" lon="-4.32297">
        <ele>11.5</ele>
        <time>2020-06-10T07:58:37Z</time>
      </trkpt>
      <trkpt lat="48.65853" lon="-4.32291">
        <ele>11.6</ele>
        <time>2020-06-10T07:58:38Z</time>
      </trkpt>
      <trkpt lat="48.65848" lon="-4.32287">
        <ele>11.7</ele>
        <time>2020-06-10T07:58:39Z</time>
      </trkpt>
      <trkpt lat="48.65844" lon="-4.32282">
        <ele>11.8</ele>
        <time>2020-06-10T07:58:40Z</time>
      </trkpt>
      <trkpt lat="48.65841" lon="-4.32276">
        <ele>11.9</ele>
        <time>2020-06-10T07:58:41Z</time>
      </trkpt>
      <trkpt lat="48.65838" lon="-4.3227">
        <ele>11.9</ele>
        <time>2020-06-10T07:58:42Z</time>
      </trkpt>
      <trkpt lat="48.65834" lon="-4.32265">
        <ele>12</ele>
        <time>2020-06-10T07:58:43Z</time>
      </trkpt>
      <trkpt lat="48.6583" lon="-4.32261">
        <ele>12</ele>
        <time>2020-06-10T07:58:44Z</time>
      </trkpt>
      <trkpt lat="48.65827" lon="-4.32255">
        <ele>12.1</ele>
        <time>2020-06-10T07:58:45Z</time>
      </trkpt>
      <trkpt lat="48.65824" lon="-4.32251">
        <ele>12.1</ele>
        <time>2020-06-10T07:58:46Z</time>
      </trkpt>
      <trkpt lat="48.65819" lon="-4.32247">
        <ele>12.2</ele>
        <time>2020-06-10T07:58:47Z</time>
      </trkpt>
      <trkpt lat="48.65814" lon="-4.32244">
        <ele>12.2</ele>
        <time>2020-06-10T07:58:48Z</time>
      </trkpt>
      <trkpt lat="48.65811" lon="-4.3224">
        <ele>12.2</ele>
        <time>2020-06-10T07:58:49Z</time>
      </trkpt>
      <trkpt lat="48.65807" lon="-4.32237">
        <ele>12.3</ele>
        <time>2020-06-10T07:58:50Z</time>
      </trkpt>
      <trkpt lat="48.65803" lon="-4.32235">
        <ele>12.3</ele>
        <time>2020-06-10T07:58:51Z</time>
      </trkpt>
      <trkpt lat="48.65799" lon="-4.32231">
        <ele>12.4</ele>
        <time>2020-06-10T07:58:52Z</time>
      </trkpt>
      <trkpt lat="48.65795" lon="-4.32227">
        <ele>12.4</ele>
        <time>2020-06-10T07:58:53Z</time>
      </trkpt>
      <trkpt lat="48.6579" lon="-4.32224">
        <ele>12.5</ele>
        <time>2020-06-10T07:58:54Z</time>
      </trkpt>
      <trkpt lat="48.65786" lon="-4.32221">
        <ele>12.5</ele>
        <time>2020-06-10T07:58:55Z</time>
      </trkpt>
      <trkpt lat="48.65781" lon="-4.3222">
        <ele>12.6</ele>
        <time>2020-06-10T07:58:56Z</time>
      </trkpt>
      <trkpt lat="48.65776" lon="-4.32217">
        <ele>12.7</ele>
        <time>2020-06-10T07:58:57Z</time>
      </trkpt>
      <trkpt lat="48.65771" lon="-4.32215">
        <ele>12.8</ele>
        <time>2020-06-10T07:58:58Z</time>
      </trkpt>
      <trkpt lat="48.65766" lon="-4.32214">
        <ele>12.8</ele>
        <time>2020-06-10T07:58:59Z</time>
      </trkpt>
      <trkpt lat="48.65761" lon="-4.32213">
        <ele>12.9</ele>
        <time>2020-06-10T07:59:00Z</time>
      </trkpt>
      <trkpt lat="48.65757" lon="-4.32211">
        <ele>13</ele>
        <time>2020-06-10T07:59:01Z</time>
      </trkpt>
      <trkpt lat="48.65752" lon="-4.32209">
        <ele>13</ele>
        <time>2020-06-10T07:59:02Z</time>
      </trkpt>
      <trkpt lat="48.65747" lon="-4.32208">
        <ele>13.1</ele>
        <time>2020-06-10T07:59:03Z</time>
      </trkpt>
      <trkpt lat="48.65741" lon="-4.32207">
        <ele>13.1</ele>
        <time>2020-06-10T07:59:04Z</time>
      </trkpt>
      <trkpt lat="48.65736" lon="-4.32207">
        <ele>13.2</ele>
        <time>2020-06-10T07:59:05Z</time>
      </trkpt>
      <trkpt lat="48.6573" lon="-4.32206">
        <ele>13.3</ele>
        <time>2020-06-10T07:59:06Z</time>
      </trkpt>
      <trkpt lat="48.65725" lon="-4.32205">
        <ele>13.3</ele>
        <time>2020-06-10T07:59:07Z</time>
      </trkpt>
      <trkpt lat="48.6572" lon="-4.32205">
        <ele>13.4</ele>
        <time>2020-06-10T07:59:08Z</time>
      </trkpt>
      <trkpt lat="48.65714" lon="-4.32205">
        <ele>13.6</ele>
        <time>2020-06-10T07:59:09Z</time>
      </trkpt>
      <trkpt lat="48.65709" lon="-4.32205">
        <ele>13.7</ele>
        <time>2020-06-10T07:59:10Z</time>
      </trkpt>
      <trkpt lat="48.65705" lon="-4.32206">
        <ele>13.9</ele>
        <time>2020-06-10T07:59:11Z</time>
      </trkpt>
      <trkpt lat="48.657" lon="-4.32204">
        <ele>14.1</ele>
        <time>2020-06-10T07:59:12Z</time>
      </trkpt>
      <trkpt lat="48.65695" lon="-4.32203">
        <ele>14.2</ele>
        <time>2020-06-10T07:59:13Z</time>
      </trkpt>
      <trkpt lat="48.6569" lon="-4.32203">
        <ele>14.3</ele>
        <time>2020-06-10T07:59:14Z</time>
      </trkpt>
      <trkpt lat="48.65685" lon="-4.32201">
        <ele>14.5</ele>
        <time>2020-06-10T07:59:15Z</time>
      </trkpt>
      <trkpt lat="48.6568" lon="-4.322">
        <ele>14.6</ele>
        <time>2020-06-10T07:59:16Z</time>
      </trkpt>
      <trkpt lat="48.65674" lon="-4.322">
        <ele>14.8</ele>
        <time>2020-06-10T07:59:17Z</time>
      </trkpt>
      <trkpt lat="48.6567" lon="-4.322">
        <ele>14.9</ele>
        <time>2020-06-10T07:59:18Z</time>
      </trkpt>
      <trkpt lat="48.65666" lon="-4.32199">
        <ele>15</ele>
        <time>2020-06-10T07:59:19Z</time>
      </trkpt>
      <trkpt lat="48.65661" lon="-4.32197">
        <ele>15.1</ele>
        <time>2020-06-10T07:59:20Z</time>
      </trkpt>
      <trkpt lat="48.65657" lon="-4.32195">
        <ele>15.2</ele>
        <time>2020-06-10T07:59:21Z</time>
      </trkpt>
      <trkpt lat="48.65652" lon="-4.32193">
        <ele>15.3</ele>
        <time>2020-06-10T07:59:22Z</time>
      </trkpt>
      <trkpt lat="48.65647" lon="-4.32192">
        <ele>15.4</ele>
        <time>2020-06-10T07:59:23Z</time>
      </trkpt>
      <trkpt lat="48.65643" lon="-4.32191">
        <ele>15.6</ele>
        <time>2020-06-10T07:59:24Z</time>
      </trkpt>
      <trkpt lat="48.65638" lon="-4.32189">
        <ele>15.7</ele>
        <time>2020-06-10T07:59:25Z</time>
      </trkpt>
      <trkpt lat="48.65633" lon="-4.32187">
        <ele>15.9</ele>
        <time>2020-06-10T07:59:26Z</time>
      </trkpt>
      <trkpt lat="48.65628" lon="-4.32185">
        <ele>16</ele>
        <time>2020-06-10T07:59:27Z</time>
      </trkpt>
      <trkpt lat="48.65624" lon="-4.32182">
        <ele>16.2</ele>
        <time>2020-06-10T07:59:28Z</time>
      </trkpt>
      <trkpt lat="48.65619" lon="-4.3218">
        <ele>16.3</ele>
        <time>2020-06-10T07:59:29Z</time>
      </trkpt>
      <trkpt lat="48.65614" lon="-4.32178">
        <ele>16.5</ele>
        <time>2020-06-10T07:59:30Z</time>
      </trkpt>
      <trkpt lat="48.6561" lon="-4.32176">
        <ele>16.5</ele>
        <time>2020-06-10T07:59:31Z</time>
      </trkpt>
      <trkpt lat="48.65605" lon="-4.32175">
        <ele>16.6</ele>
        <time>2020-06-10T07:59:32Z</time>
      </trkpt>
      <trkpt lat="48.65601" lon="-4.32173">
        <ele>16.6</ele>
        <time>2020-06-10T07:59:33Z</time>
      </trkpt>
      <trkpt lat="48.65596" lon="-4.3217">
        <ele>16.6</ele>
        <time>2020-06-10T07:59:34Z</time>
      </trkpt>
      <trkpt lat="48.65592" lon="-4.32167">
        <ele>16.7</ele>
        <time>2020-06-10T07:59:35Z</time>
      </trkpt>
      <trkpt lat="48.65588" lon="-4.32164">
        <ele>16.7</ele>
        <time>2020-06-10T07:59:36Z</time>
      </trkpt>
      <trkpt lat="48.65584" lon="-4.32161">
        <ele>16.8</ele>
        <time>2020-06-10T07:59:37Z</time>
      </trkpt>
      <trkpt lat="48.6558" lon="-4.32158">
        <ele>16.9</ele>
        <time>2020-06-10T07:59:38Z</time>
      </trkpt>
      <trkpt lat="48.65576" lon="-4.32156">
        <ele>17.1</ele>
        <time>2020-06-10T07:59:39Z</time>
      </trkpt>
      <trkpt lat="48.65572" lon="-4.32153">
        <ele>17.3</ele>
        <time>2020-06-10T07:59:40Z</time>
      </trkpt>
      <trkpt lat="48.65569" lon="-4.3215">
        <ele>17.4</ele>
        <time>2020-06-10T07:59:41Z</time>
      </trkpt>
      <trkpt lat="48.65566" lon="-4.32146">
        <ele>17.4</ele>
        <time>2020-06-10T07:59:42Z</time>
      </trkpt>
      <trkpt lat="48.65563" lon="-4.32142">
        <ele>17.5</ele>
        <time>2020-06-10T07:59:43Z</time>
      </trkpt>
      <trkpt lat="48.6556" lon="-4.3214">
        <ele>17.5</ele>
        <time>2020-06-10T07:59:44Z</time>
      </trkpt>
      <trkpt lat="48.65556" lon="-4.32136">
        <ele>17.5</ele>
        <time>2020-06-10T07:59:45Z</time>
      </trkpt>
      <trkpt lat="48.65553" lon="-4.32134">
        <ele>17.5</ele>
        <time>2020-06-10T07:59:46Z</time>
      </trkpt>
      <trkpt lat="48.6555" lon="-4.3213">
        <ele>17.5</ele>
        <time>2020-06-10T07:59:47Z</time>
      </trkpt>
      <trkpt lat="48.65546" lon="-4.32127">
        <ele>17.5</ele>
        <time>2020-06-10T07:59:48Z</time>
      </trkpt>
      <trkpt lat="48.65542" lon="-4.32123">
        <ele>17.4</ele>
        <time>2020-06-10T07:59:49Z</time>
      </trkpt>
      <trkpt lat="48.65539" lon="-4.32119">
        <ele>17.4</ele>
        <time>2020-06-10T07:59:50Z</time>
      </trkpt>
      <trkpt lat="48.65535" lon="-4.32116">
        <ele>17.4</ele>
        <time>2020-06-10T07:59:51Z</time>
      </trkpt>
      <trkpt lat="48.6553" lon="-4.32112">
        <ele>17.3</ele>
        <time>2020-06-10T07:59:52Z</time>
      </trkpt>
      <trkpt lat="48.65526" lon="-4.32109">
        <ele>17.3</ele>
        <time>2020-06-10T07:59:53Z</time>
      </trkpt>
      <trkpt lat="48.65521" lon="-4.32105">
        <ele>17.3</ele>
        <time>2020-06-10T07:59:54Z</time>
      </trkpt>
      <trkpt lat="48.65516" lon="-4.321">
        <ele>17.4</ele>
        <time>2020-06-10T07:59:55Z</time>
      </trkpt>
      <trkpt lat="48.65512" lon="-4.32097">
        <ele>17.4</ele>
        <time>2020-06-10T07:59:56Z</time>
      </trkpt>
      <trkpt lat="48.65507" lon="-4.32092">
        <ele>17.4</ele>
        <time>2020-06-10T07:59:57Z</time>
      </trkpt>
      <trkpt lat="48.65503" lon="-4.32088">
        <ele>17.4</ele>
        <time>2020-06-10T07:59:58Z</time>
      </trkpt>
      <trkpt lat="48.65498" lon="-4.32084">
        <ele>17.4</ele>
        <time>2020-06-10T07:59:59Z</time>
      </trkpt>
      <trkpt lat="48.65494" lon="-4.32079">
        <ele>17.4</ele>
        <time>2020-06-10T08:00:00Z</time>
      </trkpt>
      <trkpt lat="48.65489" lon="-4.32074">
        <ele>17.4</ele>
        <time>2020-06-10T08:00:01Z</time>
      </trkpt>
      <trkpt lat="48.65483" lon="-4.3207">
        <ele>17.4</ele>
        <time>2020-06-10T08:00:02Z</time>
      </trkpt>
      <trkpt lat="48.65479" lon="-4.32065">
        <ele>17.4</ele>
        <time>2020-06-10T08:00:03Z</time>
      </trkpt>
      <trkpt lat="48.65475" lon="-4.3206">
        <ele>17.4</ele>
        <time>2020-06-10T08:00:04Z</time>
      </trkpt>
      <trkpt lat="48.6547" lon="-4.32055">
        <ele>17.5</ele>
        <time>2020-06-10T08:00:05Z</time>
      </trkpt>
      <trkpt lat="48.65465" lon="-4.32051">
        <ele>17.5</ele>
        <time>2020-06-10T08:00:06Z</time>
      </trkpt>
      <trkpt lat="48.65461" lon="-4.32045">
        <ele>17.5</ele>
        <time>2020-06-10T08:00:07Z</time>
      </trkpt>
      <trkpt lat="48.65455" lon="-4.32042">
        <ele>17.6</ele>
        <time>2020-06-10T08:00:08Z</time>
      </trkpt>
      <trkpt lat="48.6545" lon="-4.32039">
        <ele>17.6</ele>
        <time>2020-06-10T08:00:09Z</time>
      </trkpt>
      <trkpt lat="48.65444" lon="-4.32037">
        <ele>17.6</ele>
        <time>2020-06-10T08:00:10Z</time>
      </trkpt>
      <trkpt lat="48.65439" lon="-4.32035">
        <ele>17.7</ele>
        <time>2020-06-10T08:00:11Z</time>
      </trkpt>
      <trkpt lat="48.65433" lon="-4.32033">
        <ele>17.7</ele>
        <time>2020-06-10T08:00:12Z</time>
      </trkpt>
      <trkpt lat="48.65428" lon="-4.32031">
        <ele>17.7</ele>
        <time>2020-06-10T08:00:13Z</time>
      </trkpt>
      <trkpt lat="48.65422" lon="-4.32029">
        <ele>17.8</ele>
        <time>2020-06-10T08:00:14Z</time>
      </trkpt>
      <trkpt lat="48.65416" lon="-4.32028">
        <ele>17.8</ele>
        <time>2020-06-10T08:00:15Z</time>
      </trkpt>
      <trkpt lat="48.65411" lon="-4.32027">
        <ele>17.8</ele>
        <time>2020-06-10T08:00:16Z</time>
      </trkpt>
      <trkpt lat="48.65406" lon="-4.32027">
        <ele>17.8</ele>
        <time>2020-06-10T08:00:17Z</time>
      </trkpt>
      <trkpt lat="48.654" lon="-4.32026">
        <ele>17.8</ele>
        <time>2020-06-10T08:00:18Z</time>
      </trkpt>
      <trkpt lat="48.65395" lon="-4.32026">
        <ele>17.9</ele>
        <time>2020-06-10T08:00:19Z</time>
      </trkpt>
      <trkpt lat="48.6539" lon="-4.32025">
        <ele>18</ele>
        <time>2020-06-10T08:00:20Z</time>
      </trkpt>
      <trkpt lat="48.65385" lon="-4.32023">
        <ele>18.1</ele>
        <time>2020-06-10T08:00:21Z</time>
      </trkpt>
      <trkpt lat="48.6538" lon="-4.32022">
        <ele>18.2</ele>
        <time>2020-06-10T08:00:22Z</time>
      </trkpt>
      <trkpt lat="48.65375" lon="-4.32021">
        <ele>18.3</ele>
        <time>2020-06-10T08:00:23Z</time>
      </trkpt>
      <trkpt lat="48.65371" lon="-4.3202">
        <ele>18.3</ele>
        <time>2020-06-10T08:00:24Z</time>
      </trkpt>
      <trkpt lat="48.65365" lon="-4.3202">
        <ele>18.4</ele>
        <time>2020-06-10T08:00:25Z</time>
      </trkpt>
      <trkpt lat="48.6536" lon="-4.3202">
        <ele>18.5</ele>
        <time>2020-06-10T08:00:26Z</time>
      </trkpt>
      <trkpt lat="48.65355" lon="-4.32019">
        <ele>18.7</ele>
        <time>2020-06-10T08:00:27Z</time>
      </trkpt>
      <trkpt lat="48.65349" lon="-4.32018">
        <ele>18.8</ele>
        <time>2020-06-10T08:00:28Z</time>
      </trkpt>
      <trkpt lat="48.65344" lon="-4.32018">
        <ele>18.9</ele>
        <time>2020-06-10T08:00:29Z</time>
      </trkpt>
      <trkpt lat="48.6534" lon="-4.32019">
        <ele>19</ele>
        <time>2020-06-10T08:00:30Z</time>
      </trkpt>
      <trkpt lat="48.65335" lon="-4.32017">
        <ele>19.1</ele>
        <time>2020-06-10T08:00:31Z</time>
      </trkpt>
      <trkpt lat="48.65329" lon="-4.32016">
        <ele>19.1</ele>
        <time>2020-06-10T08:00:32Z</time>
      </trkpt>
      <trkpt lat="48.65324" lon="-4.32015">
        <ele>19.2</ele>
        <time>2020-06-10T08:00:33Z</time>
      </trkpt>
      <trkpt lat="48.65319" lon="-4.32013">
        <ele>19.2</ele>
        <time>2020-06-10T08:00:34Z</time>
      </trkpt>
      <trkpt lat="48.65314" lon="-4.32011">
        <ele>19.3</ele>
        <time>2020-06-10T08:00:35Z</time>
      </trkpt>
      <trkpt lat="48.65309" lon="-4.32009">
        <ele>19.3</ele>
        <time>2020-06-10T08:00:36Z</time>
      </trkpt>
      <trkpt lat="48.65304" lon="-4.32008">
        <ele>19.4</ele>
        <time>2020-06-10T08:00:37Z</time>
      </trkpt>
      <trkpt lat="48.653" lon="-4.32006">
        <ele>19.4</ele>
        <time>2020-06-10T08:00:38Z</time>
      </trkpt>
      <trkpt lat="48.65296" lon="-4.32003">
        <ele>19.4</ele>
        <time>2020-06-10T08:00:39Z</time>
      </trkpt>
      <trkpt lat="48.65291" lon="-4.31999">
        <ele>19.4</ele>
        <time>2020-06-10T08:00:40Z</time>
      </trkpt>
      <trkpt lat="48.65286" lon="-4.31994">
        <ele>19.4</ele>
        <time>2020-06-10T08:00:41Z</time>
      </trkpt>
      <trkpt lat="48.65282" lon="-4.31989">
        <ele>19.3</ele>
        <time>2020-06-10T08:00:42Z</time>
      </trkpt>
      <trkpt lat="48.65278" lon="-4.31984">
        <ele>19.3</ele>
        <time>2020-06-10T08:00:43Z</time>
      </trkpt>
      <trkpt lat="48.65273" lon="-4.3198">
        <ele>19.4</ele>
        <time>2020-06-10T08:00:44Z</time>
      </trkpt>
      <trkpt lat="48.65268" lon="-4.31976">
        <ele>19.4</ele>
        <time>2020-06-10T08:00:45Z</time>
      </trkpt>
      <trkpt lat="48.65262" lon="-4.31973">
        <ele>19.4</ele>
        <time>2020-06-10T08:00:46Z</time>
      </trkpt>
      <trkpt lat="48.65257" lon="-4.3197">
        <ele>19.4</ele>
        <time>2020-06-10T08:00:47Z</time>
      </trkpt>
      <trkpt lat="48.65251" lon="-4.31968">
        <ele>19.4</ele>
        <time>2020-06-10T08:00:48Z</time>
      </trkpt>
      <trkpt lat="48.65245" lon="-4.31966">
        <ele>19.3</ele>
        <time>2020-06-10T08:00:49Z</time>
      </trkpt>
      <trkpt lat="48.6524" lon="-4.31966">
        <ele>19.3</ele>
        <time>2020-06-10T08:00:50Z</time>
      </trkpt>
      <trkpt lat="48.65235" lon="-4.31965">
        <ele>19.3</ele>
        <time>2020-06-10T08:00:51Z</time>
      </trkpt>
      <trkpt lat="48.6523" lon="-4.31963">
        <ele>19.2</ele>
        <time>2020-06-10T08:00:52Z</time>
      </trkpt>
      <trkpt lat="48.65226" lon="-4.3196">
        <ele>19.2</ele>
        <time>2020-06-10T08:00:53Z</time>
      </trkpt>
      <trkpt lat="48.6522" lon="-4.31958">
        <ele>19.1</ele>
        <time>2020-06-10T08:00:54Z</time>
      </trkpt>
      <trkpt lat="48.65215" lon="-4.31956">
        <ele>19.1</ele>
        <time>2020-06-10T08:00:55Z</time>
      </trkpt>
      <trkpt lat="48.65209" lon="-4.31954">
        <ele>19.1</ele>
        <time>2020-06-10T08:00:56Z</time>
      </trkpt>
      <trkpt lat="48.65204" lon="-4.31952">
        <ele>19.1</ele>
        <time>2020-06-10T08:00:57Z</time>
      </trkpt>
      <trkpt lat="48.65198" lon="-4.31951">
        <ele>19.1</ele>
        <time>2020-06-10T08:00:58Z</time>
      </trkpt>
      <trkpt lat="48.65193" lon="-4.3195">
        <ele>19.1</ele>
        <time>2020-06-10T08:00:59Z</time>
      </trkpt>
      <trkpt lat="48.65187" lon="-4.31948">
        <ele>19.1</ele>
        <time>2020-06-10T08:01:00Z</time>
      </trkpt>
      <trkpt lat="48.65182" lon="-4.31948">
        <ele>19.1</ele>
        <time>2020-06-10T08:01:01Z</time>
      </trkpt>
      <trkpt lat="48.65177" lon="-4.31948">
        <ele>19</ele>
        <time>2020-06-10T08:01:02Z</time>
      </trkpt>
      <trkpt lat="48.65173" lon="-4.31949">
        <ele>18.9</ele>
        <time>2020-06-10T08:01:03Z</time>
      </trkpt>
      <trkpt lat="48.65169" lon="-4.31951">
        <ele>18.9</ele>
        <time>2020-06-10T08:01:04Z</time>
      </trkpt>
      <trkpt lat="48.65164" lon="-4.31953">
        <ele>18.9</ele>
        <time>2020-06-10T08:01:05Z</time>
      </trkpt>
      <trkpt lat="48.65159" lon="-4.31956">
        <ele>18.9</ele>
        <time>2020-06-10T08:01:06Z</time>
      </trkpt>
      <trkpt lat="48.65155" lon="-4.31957">
        <ele>18.9</ele>
        <time>2020-06-10T08:01:07Z</time>
      </trkpt>
      <trkpt lat="48.6515" lon="-4.31959">
        <ele>18.9</ele>
        <time>2020-06-10T08:01:08Z</time>
      </trkpt>
      <trkpt lat="48.65146" lon="-4.31959">
        <ele>18.9</ele>
        <time>2020-06-10T08:01:09Z</time>
      </trkpt>
      <trkpt lat="48.65143" lon="-4.31961">
        <ele>19</ele>
        <time>2020-06-10T08:01:10Z</time>
      </trkpt>
      <trkpt lat="48.65139" lon="-4.31962">
        <ele>19</ele>
        <time>2020-06-10T08:01:11Z</time>
      </trkpt>
      <trkpt lat="48.65137" lon="-4.31959">
        <ele>19.1</ele>
        <time>2020-06-10T08:01:12Z</time>
      </trkpt>
      <trkpt lat="48.65135" lon="-4.31953">
        <ele>19.2</ele>
        <time>2020-06-10T08:01:13Z</time>
      </trkpt>
      <trkpt lat="48.65133" lon="-4.31945">
        <ele>19.4</ele>
        <time>2020-06-10T08:01:14Z</time>
      </trkpt>
      <trkpt lat="48.65131" lon="-4.31938">
        <ele>19.5</ele>
        <time>2020-06-10T08:01:15Z</time>
      </trkpt>
      <trkpt lat="48.65129" lon="-4.31932">
        <ele>19.7</ele>
        <time>2020-06-10T08:01:16Z</time>
      </trkpt>
      <trkpt lat="48.65127" lon="-4.31925">
        <ele>19.9</ele>
        <time>2020-06-10T08:01:17Z</time>
      </trkpt>
      <trkpt lat="48.65125" lon="-4.31919">
        <ele>20</ele>
        <time>2020-06-10T08:01:18Z</time>
      </trkpt>
      <trkpt lat="48.65122" lon="-4.31914">
        <ele>20.2</ele>
        <time>2020-06-10T08:01:19Z</time>
      </trkpt>
      <trkpt lat="48.6512" lon="-4.31909">
        <ele>20.3</ele>
        <time>2020-06-10T08:01:20Z</time>
      </trkpt>
      <trkpt lat="48.65119" lon="-4.31904">
        <ele>20.5</ele>
        <time>2020-06-10T08:01:21Z</time>
      </trkpt>
      <trkpt lat="48.65117" lon="-4.31897">
        <ele>20.7</ele>
        <time>2020-06-10T08:01:22Z</time>
      </trkpt>
      <trkpt lat="48.65115" lon="-4.31892">
        <ele>20.9</ele>
        <time>2020-06-10T08:01:23Z</time>
      </trkpt>
      <trkpt lat="48.65113" lon="-4.31887">
        <ele>21.3</ele>
        <time>2020-06-10T08:01:24Z</time>
      </trkpt>
      <trkpt lat="48.6511" lon="-4.31882">
        <ele>21.2</ele>
        <time>2020-06-10T08:01:25Z</time>
      </trkpt>
      <trkpt lat="48.65108" lon="-4.31878">
        <ele>21.1</ele>
        <time>2020-06-10T08:01:26Z</time>
      </trkpt>
      <trkpt lat="48.65105" lon="-4.31878">
        <ele>21</ele>
        <time>2020-06-10T08:01:27Z</time>
      </trkpt>
      <trkpt lat="48.65102" lon="-4.3188">
        <ele>20.8</ele>
        <time>2020-06-10T08:01:28Z</time>
      </trkpt>
      <trkpt lat="48.65098" lon="-4.31882">
        <ele>20.7</ele>
        <time>2020-06-10T08:01:29Z</time>
      </trkpt>
      <trkpt lat="48.65094" lon="-4.31883">
        <ele>20.6</ele>
        <time>2020-06-10T08:01:30Z</time>
      </trkpt>
      <trkpt lat="48.65091" lon="-4.31884">
        <ele>20.5</ele>
        <time>2020-06-10T08:01:31Z</time>
      </trkpt>
      <trkpt lat="48.65087" lon="-4.31887">
        <ele>20.3</ele>
        <time>2020-06-10T08:01:32Z</time>
      </trkpt>
      <trkpt lat="48.65083" lon="-4.31888">
        <ele>20.2</ele>
        <time>2020-06-10T08:01:33Z</time>
      </trkpt>
      <trkpt lat="48.65079" lon="-4.31889">
        <ele>20.1</ele>
        <time>2020-06-10T08:01:34Z</time>
      </trkpt>
      <trkpt lat="48.65075" lon="-4.3189">
        <ele>20</ele>
        <time>2020-06-10T08:01:35Z</time>
      </trkpt>
      <trkpt lat="48.65071" lon="-4.31891">
        <ele>19.9</ele>
        <time>2020-06-10T08:01:36Z</time>
      </trkpt>
      <trkpt lat="48.65066" lon="-4.31891">
        <ele>19.8</ele>
        <time>2020-06-10T08:01:37Z</time>
      </trkpt>
      <trkpt lat="48.65062" lon="-4.31891">
        <ele>19.7</ele>
        <time>2020-06-10T08:01:38Z</time>
      </trkpt>
      <trkpt lat="48.65059" lon="-4.31892">
        <ele>19.6</ele>
        <time>2020-06-10T08:01:39Z</time>
      </trkpt>
      <trkpt lat="48.65056" lon="-4.31893">
        <ele>19.5</ele>
        <time>2020-06-10T08:01:40Z</time>
      </trkpt>
      <trkpt lat="48.65052" lon="-4.31893">
        <ele>19.4</ele>
        <time>2020-06-10T08:01:41Z</time>
      </trkpt>
      <trkpt lat="48.65051" lon="-4.31893">
        <ele>19.4</ele>
        <time>2020-06-10T08:01:42Z</time>
      </trkpt>
      <trkpt lat="48.65048" lon="-4.31896">
        <ele>19.3</ele>
        <time>2020-06-10T08:01:43Z</time>
      </trkpt>
      <trkpt lat="48.65047" lon="-4.31897">
        <ele>19.3</ele>
        <time>2020-06-10T08:01:44Z</time>
      </trkpt>
      <trkpt lat="48.65047" lon="-4.31903">
        <ele>19.1</ele>
        <time>2020-06-10T08:01:45Z</time>
      </trkpt>
      <trkpt lat="48.65047" lon="-4.31909">
        <ele>19</ele>
        <time>2020-06-10T08:01:46Z</time>
      </trkpt>
      <trkpt lat="48.65046" lon="-4.31915">
        <ele>18.9</ele>
        <time>2020-06-10T08:01:47Z</time>
      </trkpt>
      <trkpt lat="48.65046" lon="-4.31922">
        <ele>18.8</ele>
        <time>2020-06-10T08:01:48Z</time>
      </trkpt>
      <trkpt lat="48.65046" lon="-4.31928">
        <ele>18.7</ele>
        <time>2020-06-10T08:01:49Z</time>
      </trkpt>
      <trkpt lat="48.65046" lon="-4.31934">
        <ele>18.6</ele>
        <time>2020-06-10T08:01:50Z</time>
      </trkpt>
      <trkpt lat="48.65044" lon="-4.31939">
        <ele>18.4</ele>
        <time>2020-06-10T08:01:51Z</time>
      </trkpt>
      <trkpt lat="48.65042" lon="-4.31944">
        <ele>18.3</ele>
        <time>2020-06-10T08:01:52Z</time>
      </trkpt>
      <trkpt lat="48.65041" lon="-4.31948">
        <ele>18.2</ele>
        <time>2020-06-10T08:01:53Z</time>
      </trkpt>
      <trkpt lat="48.6504" lon="-4.31948">
        <ele>18.2</ele>
        <time>2020-06-10T08:01:54Z</time>
      </trkpt>
      <trkpt lat="48.65037" lon="-4.3195">
        <ele>18</ele>
        <time>2020-06-10T08:01:55Z</time>
      </trkpt>
      <trkpt lat="48.65032" lon="-4.3195">
        <ele>17.4</ele>
        <time>2020-06-10T08:01:56Z</time>
      </trkpt>
      <trkpt lat="48.65026" lon="-4.3195">
        <ele>16.9</ele>
        <time>2020-06-10T08:01:57Z</time>
      </trkpt>
      <trkpt lat="48.6502" lon="-4.31949">
        <ele>16.5</ele>
        <time>2020-06-10T08:01:58Z</time>
      </trkpt>
      <trkpt lat="48.65014" lon="-4.31949">
        <ele>16.1</ele>
        <time>2020-06-10T08:01:59Z</time>
      </trkpt>
      <trkpt lat="48.65009" lon="-4.31949">
        <ele>15.7</ele>
        <time>2020-06-10T08:02:00Z</time>
      </trkpt>
      <trkpt lat="48.65004" lon="-4.31949">
        <ele>15.4</ele>
        <time>2020-06-10T08:02:01Z</time>
      </trkpt>
      <trkpt lat="48.65" lon="-4.31949">
        <ele>15.1</ele>
        <time>2020-06-10T08:02:02Z</time>
      </trkpt>
      <trkpt lat="48.64996" lon="-4.31947">
        <ele>14.9</ele>
        <time>2020-06-10T08:02:03Z</time>
      </trkpt>
      <trkpt lat="48.64993" lon="-4.31946">
        <ele>14.6</ele>
        <time>2020-06-10T08:02:04Z</time>
      </trkpt>
      <trkpt lat="48.6499" lon="-4.31948">
        <ele>14.5</ele>
        <time>2020-06-10T08:02:05Z</time>
      </trkpt>
      <trkpt lat="48.64988" lon="-4.31948">
        <ele>14.4</ele>
        <time>2020-06-10T08:02:06Z</time>
      </trkpt>
      <trkpt lat="48.64987" lon="-4.31949">
        <ele>14.3</ele>
        <time>2020-06-10T08:02:07Z</time>
      </trkpt>
      <trkpt lat="48.64986" lon="-4.3195">
        <ele>14.2</ele>
        <time>2020-06-10T08:02:08Z</time>
      </trkpt>
      <trkpt lat="48.64984" lon="-4.3195">
        <ele>14.1</ele>
        <time>2020-06-10T08:02:09Z</time>
      </trkpt>
      <trkpt lat="48.64982" lon="-4.31951">
        <ele>14</ele>
        <time>2020-06-10T08:02:10Z</time>
      </trkpt>
      <trkpt lat="48.64981" lon="-4.31951">
        <ele>13.8</ele>
        <time>2020-06-10T08:02:11Z</time>
      </trkpt>
      <trkpt lat="48.6498" lon="-4.3195">
        <ele>13.8</ele>
        <time>2020-06-10T08:02:12Z</time>
      </trkpt>
      <trkpt lat="48.64979" lon="-4.31952">
        <ele>13.7</ele>
        <time>2020-06-10T08:02:13Z</time>
      </trkpt>
      <trkpt lat="48.64977" lon="-4.31952">
        <ele>13.6</ele>
        <time>2020-06-10T08:02:14Z</time>
      </trkpt>
      <trkpt lat="48.64975" lon="-4.31953">
        <ele>13.6</ele>
        <time>2020-06-10T08:02:15Z</time>
      </trkpt>
      <trkpt lat="48.64974" lon="-4.31953">
        <ele>13.5</ele>
        <time>2020-06-10T08:02:16Z</time>
      </trkpt>
      <trkpt lat="48.64974" lon="-4.31953">
        <ele>13.5</ele>
        <time>2020-06-10T08:02:17Z</time>
      </trkpt>
      <trkpt lat="48.64973" lon="-4.31952">
        <ele>13.5</ele>
        <time>2020-06-10T08:02:18Z</time>
      </trkpt>
      <trkpt lat="48.64973" lon="-4.31952">
        <ele>13.4</ele>
        <time>2020-06-10T08:02:19Z</time>
      </trkpt>
      <trkpt lat="48.64972" lon="-4.31952">
        <ele>13.4</ele>
        <time>2020-06-10T08:02:20Z</time>
      </trkpt>
      <trkpt lat="48.64971" lon="-4.31951">
        <ele>13.4</ele>
        <time>2020-06-10T08:02:21Z</time>
      </trkpt>
      <trkpt lat="48.64971" lon="-4.31951">
        <ele>13.4</ele>
        <time>2020-06-10T08:02:22Z</time>
      </trkpt>
      <trkpt lat="48.6497" lon="-4.31951">
        <ele>13.3</ele>
        <time>2020-06-10T08:02:23Z</time>
      </trkpt>
      <trkpt lat="48.64969" lon="-4.3195">
        <ele>13.3</ele>
        <time>2020-06-10T08:02:24Z</time>
      </trkpt>
      <trkpt lat="48.64969" lon="-4.3195">
        <ele>13.3</ele>
        <time>2020-06-10T08:02:25Z</time>
      </trkpt>
      <trkpt lat="48.64968" lon="-4.31949">
        <ele>13.2</ele>
        <time>2020-06-10T08:02:26Z</time>
      </trkpt>
      <trkpt lat="48.64967" lon="-4.31949">
        <ele>13.2</ele>
        <time>2020-06-10T08:04:16Z</time>
      </trkpt>
      <trkpt lat="48.64967" lon="-4.31949">
        <ele>13.2</ele>
        <time>2020-06-10T08:04:17Z</time>
      </trkpt>
      <trkpt lat="48.64961" lon="-4.31949">
        <ele>13</ele>
        <time>2020-06-10T08:04:18Z</time>
      </trkpt>
      <trkpt lat="48.64956" lon="-4.31949">
        <ele>12.8</ele>
        <time>2020-06-10T08:04:19Z</time>
      </trkpt>
      <trkpt lat="48.64951" lon="-4.31949">
        <ele>12.6</ele>
        <time>2020-06-10T08:04:20Z</time>
      </trkpt>
      <trkpt lat="48.64945" lon="-4.3195">
        <ele>12.3</ele>
        <time>2020-06-10T08:04:21Z</time>
      </trkpt>
      <trkpt lat="48.64939" lon="-4.3195">
        <ele>12</ele>
        <time>2020-06-10T08:04:22Z</time>
      </trkpt>
      <trkpt lat="48.64933" lon="-4.31951">
        <ele>11.7</ele>
        <time>2020-06-10T08:04:23Z</time>
      </trkpt>
      <trkpt lat="48.64926" lon="-4.3195">
        <ele>11.4</ele>
        <time>2020-06-10T08:04:24Z</time>
      </trkpt>
      <trkpt lat="48.6492" lon="-4.31951">
        <ele>11</ele>
        <time>2020-06-10T08:04:25Z</time>
      </trkpt>
      <trkpt lat="48.64912" lon="-4.31952">
        <ele>10.7</ele>
        <time>2020-06-10T08:04:26Z</time>
      </trkpt>
      <trkpt lat="48.64905" lon="-4.31953">
        <ele>10.4</ele>
        <time>2020-06-10T08:04:27Z</time>
      </trkpt>
      <trkpt lat="48.64896" lon="-4.31954">
        <ele>10.1</ele>
        <time>2020-06-10T08:04:28Z</time>
      </trkpt>
      <trkpt lat="48.64888" lon="-4.31955">
        <ele>9.9</ele>
        <time>2020-06-10T08:04:29Z</time>
      </trkpt>
      <trkpt lat="48.64881" lon="-4.31956">
        <ele>9.6</ele>
        <time>2020-06-10T08:04:30Z</time>
      </trkpt>
      <trkpt lat="48.64874" lon="-4.31957">
        <ele>9.3</ele>
        <time>2020-06-10T08:04:31Z</time>
      </trkpt>
      <trkpt lat="48.64865" lon="-4.31957">
        <ele>9</ele>
        <time>2020-06-10T08:04:32Z</time>
      </trkpt>
      <trkpt lat="48.64858" lon="-4.3196">
        <ele>8.8</ele>
        <time>2020-06-10T08:04:33Z</time>
      </trkpt>
      <trkpt lat="48.6485" lon="-4.31962">
        <ele>8.6</ele>
        <time>2020-06-10T08:04:34Z</time>
      </trkpt>
      <trkpt lat="48.64843" lon="-4.31965">
        <ele>8.4</ele>
        <time>2020-06-10T08:04:35Z</time>
      </trkpt>
      <trkpt lat="48.64836" lon="-4.31967">
        <ele>8.2</ele>
        <time>2020-06-10T08:04:36Z</time>
      </trkpt>
      <trkpt lat="48.64829" lon="-4.3197">
        <ele>8.1</ele>
        <time>2020-06-10T08:04:37Z</time>
      </trkpt>
      <trkpt lat="48.64822" lon="-4.31973">
        <ele>7.9</ele>
        <time>2020-06-10T08:04:38Z</time>
      </trkpt>
      <trkpt lat="48.64815" lon="-4.31975">
        <ele>7.8</ele>
        <time>2020-06-10T08:04:39Z</time>
      </trkpt>
      <trkpt lat="48.64808" lon="-4.31978">
        <ele>7.6</ele>
        <time>2020-06-10T08:04:40Z</time>
      </trkpt>
      <trkpt lat="48.64801" lon="-4.3198">
        <ele>7.5</ele>
        <time>2020-06-10T08:04:41Z</time>
      </trkpt>
      <trkpt lat="48.64794" lon="-4.31983">
        <ele>7.4</ele>
        <time>2020-06-10T08:04:42Z</time>
      </trkpt>
      <trkpt lat="48.64787" lon="-4.31986">
        <ele>7.2</ele>
        <time>2020-06-10T08:04:43Z</time>
      </trkpt>
      <trkpt lat="48.6478" lon="-4.31988">
        <ele>7</ele>
        <time>2020-06-10T08:04:44Z</time>
      </trkpt>
      <trkpt lat="48.64772" lon="-4.31989">
        <ele>6.8</ele>
        <time>2020-06-10T08:04:45Z</time>
      </trkpt>
      <trkpt lat="48.64765" lon="-4.3199">
        <ele>6.7</ele>
        <time>2020-06-10T08:04:46Z</time>
      </trkpt>
      <trkpt lat="48.64758" lon="-4.3199">
        <ele>6.5</ele>
        <time>2020-06-10T08:04:47Z</time>
      </trkpt>
      <trkpt lat="48.6475" lon="-4.3199">
        <ele>6.3</ele>
        <time>2020-06-10T08:04:48Z</time>
      </trkpt>
      <trkpt lat="48.64742" lon="-4.31991">
        <ele>6.1</ele>
        <time>2020-06-10T08:04:49Z</time>
      </trkpt>
      <trkpt lat="48.64735" lon="-4.3199">
        <ele>5.9</ele>
        <time>2020-06-10T08:04:50Z</time>
      </trkpt>
      <trkpt lat="48.64727" lon="-4.3199">
        <ele>5.8</ele>
        <time>2020-06-10T08:04:51Z</time>
      </trkpt>
      <trkpt lat="48.6472" lon="-4.31989">
        <ele>5.7</ele>
        <time>2020-06-10T08:04:52Z</time>
      </trkpt>
      <trkpt lat="48.64712" lon="-4.31987">
        <ele>5.6</ele>
        <time>2020-06-10T08:04:53Z</time>
      </trkpt>
      <trkpt lat="48.64705" lon="-4.31986">
        <ele>5.6</ele>
        <time>2020-06-10T08:04:54Z</time>
      </trkpt>
      <trkpt lat="48.64699" lon="-4.31982">
        <ele>5.4</ele>
        <time>2020-06-10T08:04:55Z</time>
      </trkpt>
      <trkpt lat="48.64692" lon="-4.3198">
        <ele>5.3</ele>
        <time>2020-06-10T08:04:56Z</time>
      </trkpt>
      <trkpt lat="48.64685" lon="-4.31976">
        <ele>5.2</ele>
        <time>2020-06-10T08:04:57Z</time>
      </trkpt>
      <trkpt lat="48.64679" lon="-4.31973">
        <ele>5.1</ele>
        <time>2020-06-10T08:04:58Z</time>
      </trkpt>
      <trkpt lat="48.64673" lon="-4.3197">
        <ele>5</ele>
        <time>2020-06-10T08:04:59Z</time>
      </trkpt>
      <trkpt lat="48.64667" lon="-4.31967">
        <ele>5</ele>
        <time>2020-06-10T08:05:00Z</time>
      </trkpt>
      <trkpt lat="48.64661" lon="-4.31964">
        <ele>4.9</ele>
        <time>2020-06-10T08:05:01Z</time>
      </trkpt>
      <trkpt lat="48.64656" lon="-4.31961">
        <ele>4.9</ele>
        <time>2020-06-10T08:05:02Z</time>
      </trkpt>
      <trkpt lat="48.64651" lon="-4.31956">
        <ele>4.9</ele>
        <time>2020-06-10T08:05:03Z</time>
      </trkpt>
      <trkpt lat="48.64646" lon="-4.31951">
        <ele>4.8</ele>
        <time>2020-06-10T08:05:04Z</time>
      </trkpt>
      <trkpt lat="48.64641" lon="-4.31947">
        <ele>4.8</ele>
        <time>2020-06-10T08:05:05Z</time>
      </trkpt>
      <trkpt lat="48.64635" lon="-4.31946">
        <ele>4.7</ele>
        <time>2020-06-10T08:05:06Z</time>
      </trkpt>
      <trkpt lat="48.64631" lon="-4.31942">
        <ele>4.7</ele>
        <time>2020-06-10T08:05:07Z</time>
      </trkpt>
      <trkpt lat="48.64626" lon="-4.31937">
        <ele>4.6</ele>
        <time>2020-06-10T08:05:08Z</time>
      </trkpt>
      <trkpt lat="48.64622" lon="-4.31932">
        <ele>4.6</ele>
        <time>2020-06-10T08:05:09Z</time>
      </trkpt>
      <trkpt lat="48.64617" lon="-4.31927">
        <ele>4.6</ele>
        <time>2020-06-10T08:05:10Z</time>
      </trkpt>
      <trkpt lat="48.64613" lon="-4.31922">
        <ele>4.6</ele>
        <time>2020-06-10T08:05:11Z</time>
      </trkpt>
      <trkpt lat="48.64608" lon="-4.31917">
        <ele>4.6</ele>
        <time>2020-06-10T08:05:12Z</time>
      </trkpt>
      <trkpt lat="48.64603" lon="-4.31913">
        <ele>4.5</ele>
        <time>2020-06-10T08:05:13Z</time>
      </trkpt>
      <trkpt lat="48.64599" lon="-4.31909">
        <ele>4.5</ele>
        <time>2020-06-10T08:05:14Z</time>
      </trkpt>
      <trkpt lat="48.64594" lon="-4.31904">
        <ele>4.5</ele>
        <time>2020-06-10T08:05:15Z</time>
      </trkpt>
      <trkpt lat="48.64589" lon="-4.31899">
        <ele>4.4</ele>
        <time>2020-06-10T08:05:16Z</time>
      </trkpt>
      <trkpt lat="48.64584" lon="-4.31897">
        <ele>4.4</ele>
        <time>2020-06-10T08:05:17Z</time>
      </trkpt>
      <trkpt lat="48.64579" lon="-4.31893">
        <ele>4.4</ele>
        <time>2020-06-10T08:05:18Z</time>
      </trkpt>
      <trkpt lat="48.64574" lon="-4.3189">
        <ele>4.3</ele>
        <time>2020-06-10T08:05:19Z</time>
      </trkpt>
      <trkpt lat="48.64569" lon="-4.31887">
        <ele>4.3</ele>
        <time>2020-06-10T08:05:20Z</time>
      </trkpt>
      <trkpt lat="48.64564" lon="-4.31883">
        <ele>4.3</ele>
        <time>2020-06-10T08:05:21Z</time>
      </trkpt>
      <trkpt lat="48.64559" lon="-4.31879">
        <ele>4.3</ele>
        <time>2020-06-10T08:05:22Z</time>
      </trkpt>
      <trkpt lat="48.64553" lon="-4.31876">
        <ele>4.3</ele>
        <time>2020-06-10T08:05:23Z</time>
      </trkpt>
      <trkpt lat="48.64549" lon="-4.31871">
        <ele>4.2</ele>
        <time>2020-06-10T08:05:24Z</time>
      </trkpt>
      <trkpt lat="48.64543" lon="-4.31869">
        <ele>4.1</ele>
        <time>2020-06-10T08:05:25Z</time>
      </trkpt>
      <trkpt lat="48.64537" lon="-4.31866">
        <ele>4</ele>
        <time>2020-06-10T08:05:26Z</time>
      </trkpt>
      <trkpt lat="48.64532" lon="-4.31864">
        <ele>4</ele>
        <time>2020-06-10T08:05:27Z</time>
      </trkpt>
      <trkpt lat="48.64526" lon="-4.31862">
        <ele>3.9</ele>
        <time>2020-06-10T08:05:28Z</time>
      </trkpt>
      <trkpt lat="48.6452" lon="-4.31861">
        <ele>3.9</ele>
        <time>2020-06-10T08:05:29Z</time>
      </trkpt>
      <trkpt lat="48.64514" lon="-4.31861">
        <ele>4</ele>
        <time>2020-06-10T08:05:30Z</time>
      </trkpt>
      <trkpt lat="48.64508" lon="-4.3186">
        <ele>4</ele>
        <time>2020-06-10T08:05:31Z</time>
      </trkpt>
      <trkpt lat="48.64502" lon="-4.31859">
        <ele>4.1</ele>
        <time>2020-06-10T08:05:32Z</time>
      </trkpt>
      <trkpt lat="48.64497" lon="-4.31859">
        <ele>4.2</ele>
        <time>2020-06-10T08:05:33Z</time>
      </trkpt>
      <trkpt lat="48.64492" lon="-4.3186">
        <ele>4.2</ele>
        <time>2020-06-10T08:05:34Z</time>
      </trkpt>
      <trkpt lat="48.64486" lon="-4.31862">
        <ele>4.3</ele>
        <time>2020-06-10T08:05:35Z</time>
      </trkpt>
      <trkpt lat="48.64481" lon="-4.31862">
        <ele>4.4</ele>
        <time>2020-06-10T08:05:36Z</time>
      </trkpt>
      <trkpt lat="48.64475" lon="-4.31862">
        <ele>4.5</ele>
        <time>2020-06-10T08:05:37Z</time>
      </trkpt>
      <trkpt lat="48.6447" lon="-4.31862">
        <ele>4.5</ele>
        <time>2020-06-10T08:05:38Z</time>
      </trkpt>
      <trkpt lat="48.64465" lon="-4.31862">
        <ele>4.6</ele>
        <time>2020-06-10T08:05:39Z</time>
      </trkpt>
      <trkpt lat="48.64459" lon="-4.31862">
        <ele>4.7</ele>
        <time>2020-06-10T08:05:40Z</time>
      </trkpt>
      <trkpt lat="48.64454" lon="-4.31862">
        <ele>4.8</ele>
        <time>2020-06-10T08:05:41Z</time>
      </trkpt>
      <trkpt lat="48.64449" lon="-4.31861">
        <ele>4.9</ele>
        <time>2020-06-10T08:05:42Z</time>
      </trkpt>
      <trkpt lat="48.64443" lon="-4.3186">
        <ele>4.9</ele>
        <time>2020-06-10T08:05:43Z</time>
      </trkpt>
      <trkpt lat="48.64438" lon="-4.3186">
        <ele>5</ele>
        <time>2020-06-10T08:05:44Z</time>
      </trkpt>
      <trkpt lat="48.64432" lon="-4.3186">
        <ele>5.1</ele>
        <time>2020-06-10T08:05:45Z</time>
      </trkpt>
      <trkpt lat="48.64427" lon="-4.31861">
        <ele>5.2</ele>
        <time>2020-06-10T08:05:46Z</time>
      </trkpt>
      <trkpt lat="48.64421" lon="-4.31861">
        <ele>5.2</ele>
        <time>2020-06-10T08:05:47Z</time>
      </trkpt>
      <trkpt lat="48.64416" lon="-4.31862">
        <ele>5.3</ele>
        <time>2020-06-10T08:05:48Z</time>
      </trkpt>
      <trkpt lat="48.64411" lon="-4.31862">
        <ele>5.5</ele>
        <time>2020-06-10T08:05:49Z</time>
      </trkpt>
      <trkpt lat="48.64406" lon="-4.31862">
        <ele>5.6</ele>
        <time>2020-06-10T08:05:50Z</time>
      </trkpt>
      <trkpt lat="48.644" lon="-4.31861">
        <ele>5.7</ele>
        <time>2020-06-10T08:05:51Z</time>
      </trkpt>
      <trkpt lat="48.64395" lon="-4.31862">
        <ele>5.8</ele>
        <time>2020-06-10T08:05:52Z</time>
      </trkpt>
      <trkpt lat="48.6439" lon="-4.31861">
        <ele>5.9</ele>
        <time>2020-06-10T08:05:53Z</time>
      </trkpt>
      <trkpt lat="48.64385" lon="-4.3186">
        <ele>6</ele>
        <time>2020-06-10T08:05:54Z</time>
      </trkpt>
      <trkpt lat="48.64381" lon="-4.31859">
        <ele>6.1</ele>
        <time>2020-06-10T08:05:55Z</time>
      </trkpt>
      <trkpt lat="48.64376" lon="-4.31859">
        <ele>6.2</ele>
        <time>2020-06-10T08:05:56Z</time>
      </trkpt>
      <trkpt lat="48.64371" lon="-4.31859">
        <ele>6.4</ele>
        <time>2020-06-10T08:05:57Z</time>
      </trkpt>
      <trkpt lat="48.64366" lon="-4.31859">
        <ele>6.5</ele>
        <time>2020-06-10T08:05:58Z</time>
      </trkpt>
      <trkpt lat="48.64361" lon="-4.31858">
        <ele>6.6</ele>
        <time>2020-06-10T08:05:59Z</time>
      </trkpt>
      <trkpt lat="48.64357" lon="-4.31857">
        <ele>6.7</ele>
        <time>2020-06-10T08:06:00Z</time>
      </trkpt>
      <trkpt lat="48.64352" lon="-4.31857">
        <ele>6.9</ele>
        <time>2020-06-10T08:06:01Z</time>
      </trkpt>
      <trkpt lat="48.64347" lon="-4.31856">
        <ele>7</ele>
        <time>2020-06-10T08:06:02Z</time>
      </trkpt>
      <trkpt lat="48.64342" lon="-4.31855">
        <ele>7.1</ele>
        <time>2020-06-10T08:06:03Z</time>
      </trkpt>
      <trkpt lat="48.64338" lon="-4.31853">
        <ele>7.2</ele>
        <time>2020-06-10T08:06:04Z</time>
      </trkpt>
      <trkpt lat="48.64333" lon="-4.31852">
        <ele>7.3</ele>
        <time>2020-06-10T08:06:05Z</time>
      </trkpt>
      <trkpt lat="48.64328" lon="-4.3185">
        <ele>7.5</ele>
        <time>2020-06-10T08:06:06Z</time>
      </trkpt>
      <trkpt lat="48.64324" lon="-4.31849">
        <ele>7.6</ele>
        <time>2020-06-10T08:06:07Z</time>
      </trkpt>
      <trkpt lat="48.64319" lon="-4.31848">
        <ele>7.7</ele>
        <time>2020-06-10T08:06:08Z</time>
      </trkpt>
      <trkpt lat="48.64315" lon="-4.31846">
        <ele>7.8</ele>
        <time>2020-06-10T08:06:09Z</time>
      </trkpt>
      <trkpt lat="48.6431" lon="-4.31844">
        <ele>7.9</ele>
        <time>2020-06-10T08:06:10Z</time>
      </trkpt>
      <trkpt lat="48.64307" lon="-4.31841">
        <ele>8</ele>
        <time>2020-06-10T08:06:11Z</time>
      </trkpt>
      <trkpt lat="48.64303" lon="-4.31839">
        <ele>8.1</ele>
        <time>2020-06-10T08:06:12Z</time>
      </trkpt>
      <trkpt lat="48.64298" lon="-4.31837">
        <ele>8.2</ele>
        <time>2020-06-10T08:06:13Z</time>
      </trkpt>
      <trkpt lat="48.64294" lon="-4.31834">
        <ele>8.3</ele>
        <time>2020-06-10T08:06:14Z</time>
      </trkpt>
      <trkpt lat="48.64289" lon="-4.31832">
        <ele>8.4</ele>
        <time>2020-06-10T08:06:15Z</time>
      </trkpt>
      <trkpt lat="48.64285" lon="-4.31832">
        <ele>8.4</ele>
        <time>2020-06-10T08:06:16Z</time>
      </trkpt>
      <trkpt lat="48.64281" lon="-4.31829">
        <ele>8.5</ele>
        <time>2020-06-10T08:06:17Z</time>
      </trkpt>
      <trkpt lat="48.64276" lon="-4.31827">
        <ele>8.5</ele>
        <time>2020-06-10T08:06:18Z</time>
      </trkpt>
      <trkpt lat="48.64272" lon="-4.31824">
        <ele>8.6</ele>
        <time>2020-06-10T08:06:19Z</time>
      </trkpt>
      <trkpt lat="48.64268" lon="-4.31822">
        <ele>8.6</ele>
        <time>2020-06-10T08:06:20Z</time>
      </trkpt>
      <trkpt lat="48.64265" lon="-4.31819">
        <ele>8.6</ele>
        <time>2020-06-10T08:06:21Z</time>
      </trkpt>
      <trkpt lat="48.64261" lon="-4.31816">
        <ele>8.6</ele>
        <time>2020-06-10T08:06:22Z</time>
      </trkpt>
      <trkpt lat="48.64257" lon="-4.31813">
        <ele>8.6</ele>
        <time>2020-06-10T08:06:23Z</time>
      </trkpt>
      <trkpt lat="48.64253" lon="-4.31811">
        <ele>8.6</ele>
        <time>2020-06-10T08:06:24Z</time>
      </trkpt>
      <trkpt lat="48.6425" lon="-4.31808">
        <ele>8.7</ele>
        <time>2020-06-10T08:06:25Z</time>
      </trkpt>
      <trkpt lat="48.64246" lon="-4.31806">
        <ele>8.7</ele>
        <time>2020-06-10T08:06:26Z</time>
      </trkpt>
      <trkpt lat="48.64242" lon="-4.31803">
        <ele>8.6</ele>
        <time>2020-06-10T08:06:27Z</time>
      </trkpt>
      <trkpt lat="48.64237" lon="-4.318">
        <ele>8.6</ele>
        <time>2020-06-10T08:06:28Z</time>
      </trkpt>
      <trkpt lat="48.64233" lon="-4.31796">
        <ele>8.5</ele>
        <time>2020-06-10T08:06:29Z</time>
      </trkpt>
      <trkpt lat="48.64229" lon="-4.31794">
        <ele>8.5</ele>
        <time>2020-06-10T08:06:30Z</time>
      </trkpt>
      <trkpt lat="48.64224" lon="-4.31791">
        <ele>8.4</ele>
        <time>2020-06-10T08:06:31Z</time>
      </trkpt>
      <trkpt lat="48.6422" lon="-4.31788">
        <ele>8.3</ele>
        <time>2020-06-10T08:06:32Z</time>
      </trkpt>
      <trkpt lat="48.64215" lon="-4.31784">
        <ele>8.2</ele>
        <time>2020-06-10T08:06:33Z</time>
      </trkpt>
      <trkpt lat="48.64211" lon="-4.31781">
        <ele>8.1</ele>
        <time>2020-06-10T08:06:34Z</time>
      </trkpt>
      <trkpt lat="48.64207" lon="-4.31778">
        <ele>8</ele>
        <time>2020-06-10T08:06:35Z</time>
      </trkpt>
      <trkpt lat="48.64203" lon="-4.31775">
        <ele>7.9</ele>
        <time>2020-06-10T08:06:36Z</time>
      </trkpt>
      <trkpt lat="48.64199" lon="-4.31772">
        <ele>7.8</ele>
        <time>2020-06-10T08:06:37Z</time>
      </trkpt>
      <trkpt lat="48.64195" lon="-4.31769">
        <ele>7.6</ele>
        <time>2020-06-10T08:06:38Z</time>
      </trkpt>
      <trkpt lat="48.64191" lon="-4.31765">
        <ele>7.5</ele>
        <time>2020-06-10T08:06:39Z</time>
      </trkpt>
      <trkpt lat="48.64186" lon="-4.31763">
        <ele>7.3</ele>
        <time>2020-06-10T08:06:40Z</time>
      </trkpt>
      <trkpt lat="48.6418" lon="-4.3176">
        <ele>7.1</ele>
        <time>2020-06-10T08:06:41Z</time>
      </trkpt>
      <trkpt lat="48.64175" lon="-4.31757">
        <ele>6.9</ele>
        <time>2020-06-10T08:06:42Z</time>
      </trkpt>
      <trkpt lat="48.64169" lon="-4.31754">
        <ele>6.7</ele>
        <time>2020-06-10T08:06:43Z</time>
      </trkpt>
      <trkpt lat="48.64163" lon="-4.3175">
        <ele>6.5</ele>
        <time>2020-06-10T08:06:44Z</time>
      </trkpt>
      <trkpt lat="48.64157" lon="-4.31746">
        <ele>6.3</ele>
        <time>2020-06-10T08:06:45Z</time>
      </trkpt>
      <trkpt lat="48.6415" lon="-4.31741">
        <ele>6.2</ele>
        <time>2020-06-10T08:06:46Z</time>
      </trkpt>
      <trkpt lat="48.64144" lon="-4.31736">
        <ele>6</ele>
        <time>2020-06-10T08:06:47Z</time>
      </trkpt>
      <trkpt lat="48.64138" lon="-4.31731">
        <ele>5.8</ele>
        <time>2020-06-10T08:06:48Z</time>
      </trkpt>
      <trkpt lat="48.6413" lon="-4.31726">
        <ele>5.6</ele>
        <time>2020-06-10T08:06:49Z</time>
      </trkpt>
      <trkpt lat="48.64123" lon="-4.31722">
        <ele>5.5</ele>
        <time>2020-06-10T08:06:50Z</time>
      </trkpt>
      <trkpt lat="48.64116" lon="-4.31718">
        <ele>5.5</ele>
        <time>2020-06-10T08:06:51Z</time>
      </trkpt>
      <trkpt lat="48.64109" lon="-4.31715">
        <ele>5.4</ele>
        <time>2020-06-10T08:06:52Z</time>
      </trkpt>
      <trkpt lat="48.64103" lon="-4.31713">
        <ele>5.3</ele>
        <time>2020-06-10T08:06:53Z</time>
      </trkpt>
      <trkpt lat="48.64096" lon="-4.31711">
        <ele>5.2</ele>
        <time>2020-06-10T08:06:54Z</time>
      </trkpt>
      <trkpt lat="48.64089" lon="-4.31709">
        <ele>5.1</ele>
        <time>2020-06-10T08:06:55Z</time>
      </trkpt>
      <trkpt lat="48.64083" lon="-4.31706">
        <ele>5.1</ele>
        <time>2020-06-10T08:06:56Z</time>
      </trkpt>
      <trkpt lat="48.64077" lon="-4.31704">
        <ele>5</ele>
        <time>2020-06-10T08:06:57Z</time>
      </trkpt>
      <trkpt lat="48.64071" lon="-4.31702">
        <ele>4.9</ele>
        <time>2020-06-10T08:06:58Z</time>
      </trkpt>
      <trkpt lat="48.64065" lon="-4.317">
        <ele>4.8</ele>
        <time>2020-06-10T08:06:59Z</time>
      </trkpt>
      <trkpt lat="48.64059" lon="-4.31698">
        <ele>4.8</ele>
        <time>2020-06-10T08:07:00Z</time>
      </trkpt>
      <trkpt lat="48.64053" lon="-4.31696">
        <ele>4.7</ele>
        <time>2020-06-10T08:07:01Z</time>
      </trkpt>
      <trkpt lat="48.64047" lon="-4.31694">
        <ele>4.6</ele>
        <time>2020-06-10T08:07:02Z</time>
      </trkpt>
      <trkpt lat="48.64042" lon="-4.31694">
        <ele>4.6</ele>
        <time>2020-06-10T08:07:03Z</time>
      </trkpt>
      <trkpt lat="48.64036" lon="-4.31691">
        <ele>4.5</ele>
        <time>2020-06-10T08:07:04Z</time>
      </trkpt>
      <trkpt lat="48.64031" lon="-4.3169">
        <ele>4.5</ele>
        <time>2020-06-10T08:07:05Z</time>
      </trkpt>
      <trkpt lat="48.64025" lon="-4.31688">
        <ele>4.4</ele>
        <time>2020-06-10T08:07:06Z</time>
      </trkpt>
      <trkpt lat="48.64019" lon="-4.31686">
        <ele>4.4</ele>
        <time>2020-06-10T08:07:07Z</time>
      </trkpt>
      <trkpt lat="48.64013" lon="-4.31685">
        <ele>4.3</ele>
        <time>2020-06-10T08:07:08Z</time>
      </trkpt>
      <trkpt lat="48.64008" lon="-4.31684">
        <ele>4.3</ele>
        <time>2020-06-10T08:07:09Z</time>
      </trkpt>
      <trkpt lat="48.64002" lon="-4.31682">
        <ele>4.3</ele>
        <time>2020-06-10T08:07:10Z</time>
      </trkpt>
      <trkpt lat="48.63997" lon="-4.3168">
        <ele>4.3</ele>
        <time>2020-06-10T08:07:11Z</time>
      </trkpt>
      <trkpt lat="48.63991" lon="-4.31678">
        <ele>4.3</ele>
        <time>2020-06-10T08:07:12Z</time>
      </trkpt>
      <trkpt lat="48.63985" lon="-4.31676">
        <ele>4.3</ele>
        <time>2020-06-10T08:07:13Z</time>
      </trkpt>
      <trkpt lat="48.6398" lon="-4.31674">
        <ele>4.2</ele>
        <time>2020-06-10T08:07:14Z</time>
      </trkpt>
      <trkpt lat="48.63974" lon="-4.31671">
        <ele>4.2</ele>
        <time>2020-06-10T08:07:15Z</time>
      </trkpt>
      <trkpt lat="48.63968" lon="-4.3167">
        <ele>4.2</ele>
        <time>2020-06-10T08:07:16Z</time>
      </trkpt>
      <trkpt lat="48.63963" lon="-4.31668">
        <ele>4.1</ele>
        <time>2020-06-10T08:07:17Z</time>
      </trkpt>
      <trkpt lat="48.63957" lon="-4.31666">
        <ele>4.1</ele>
        <time>2020-06-10T08:07:18Z</time>
      </trkpt>
      <trkpt lat="48.63951" lon="-4.31665">
        <ele>4.1</ele>
        <time>2020-06-10T08:07:19Z</time>
      </trkpt>
      <trkpt lat="48.63945" lon="-4.31664">
        <ele>4</ele>
        <time>2020-06-10T08:07:20Z</time>
      </trkpt>
      <trkpt lat="48.6394" lon="-4.31663">
        <ele>4</ele>
        <time>2020-06-10T08:07:21Z</time>
      </trkpt>
      <trkpt lat="48.63934" lon="-4.31662">
        <ele>4</ele>
        <time>2020-06-10T08:07:22Z</time>
      </trkpt>
      <trkpt lat="48.63929" lon="-4.31661">
        <ele>4</ele>
        <time>2020-06-10T08:07:23Z</time>
      </trkpt>
      <trkpt lat="48.63923" lon="-4.3166">
        <ele>4</ele>
        <time>2020-06-10T08:07:24Z</time>
      </trkpt>
      <trkpt lat="48.63916" lon="-4.31658">
        <ele>4</ele>
        <time>2020-06-10T08:07:25Z</time>
      </trkpt>
      <trkpt lat="48.6391" lon="-4.31656">
        <ele>4</ele>
        <time>2020-06-10T08:07:26Z</time>
      </trkpt>
      <trkpt lat="48.63904" lon="-4.31654">
        <ele>4</ele>
        <time>2020-06-10T08:07:27Z</time>
      </trkpt>
      <trkpt lat="48.63897" lon="-4.31652">
        <ele>4</ele>
        <time>2020-06-10T08:07:28Z</time>
      </trkpt>
      <trkpt lat="48.63891" lon="-4.3165">
        <ele>4</ele>
        <time>2020-06-10T08:07:29Z</time>
      </trkpt>
      <trkpt lat="48.63886" lon="-4.31648">
        <ele>4</ele>
        <time>2020-06-10T08:07:30Z</time>
      </trkpt>
      <trkpt lat="48.6388" lon="-4.31646">
        <ele>4</ele>
        <time>2020-06-10T08:07:31Z</time>
      </trkpt>
      <trkpt lat="48.63875" lon="-4.31643">
        <ele>4.1</ele>
        <time>2020-06-10T08:07:32Z</time>
      </trkpt>
      <trkpt lat="48.63869" lon="-4.31641">
        <ele>4.1</ele>
        <time>2020-06-10T08:07:33Z</time>
      </trkpt>
      <trkpt lat="48.63864" lon="-4.3164">
        <ele>4.1</ele>
        <time>2020-06-10T08:07:34Z</time>
      </trkpt>
      <trkpt lat="48.63859" lon="-4.31638">
        <ele>4.1</ele>
        <time>2020-06-10T08:07:35Z</time>
      </trkpt>
      <trkpt lat="48.63853" lon="-4.31638">
        <ele>4.1</ele>
        <time>2020-06-10T08:07:36Z</time>
      </trkpt>
      <trkpt lat="48.63848" lon="-4.31637">
        <ele>4</ele>
        <time>2020-06-10T08:07:37Z</time>
      </trkpt>
      <trkpt lat="48.63843" lon="-4.31635">
        <ele>4</ele>
        <time>2020-06-10T08:07:38Z</time>
      </trkpt>
      <trkpt lat="48.63836" lon="-4.31635">
        <ele>4</ele>
        <time>2020-06-10T08:07:39Z</time>
      </trkpt>
      <trkpt lat="48.6383" lon="-4.31634">
        <ele>4</ele>
        <time>2020-06-10T08:07:40Z</time>
      </trkpt>
      <trkpt lat="48.63825" lon="-4.31633">
        <ele>4</ele>
        <time>2020-06-10T08:07:41Z</time>
      </trkpt>
      <trkpt lat="48.63819" lon="-4.31631">
        <ele>4.1</ele>
        <time>2020-06-10T08:07:42Z</time>
      </trkpt>
      <trkpt lat="48.63814" lon="-4.3163">
        <ele>4.1</ele>
        <time>2020-06-10T08:07:43Z</time>
      </trkpt>
      <trkpt lat="48.63809" lon="-4.31627">
        <ele>4.1</ele>
        <time>2020-06-10T08:07:44Z</time>
      </trkpt>
      <trkpt lat="48.63803" lon="-4.31625">
        <ele>4.1</ele>
        <time>2020-06-10T08:07:45Z</time>
      </trkpt>
      <trkpt lat="48.63798" lon="-4.31623">
        <ele>4.1</ele>
        <time>2020-06-10T08:07:46Z</time>
      </trkpt>
      <trkpt lat="48.63793" lon="-4.31622">
        <ele>4.1</ele>
        <time>2020-06-10T08:07:47Z</time>
      </trkpt>
      <trkpt lat="48.63788" lon="-4.31621">
        <ele>4.1</ele>
        <time>2020-06-10T08:07:48Z</time>
      </trkpt>
      <trkpt lat="48.63782" lon="-4.3162">
        <ele>4.1</ele>
        <time>2020-06-10T08:07:49Z</time>
      </trkpt>
      <trkpt lat="48.63777" lon="-4.31619">
        <ele>4.1</ele>
        <time>2020-06-10T08:07:50Z</time>
      </trkpt>
      <trkpt lat="48.63772" lon="-4.31618">
        <ele>4.1</ele>
        <time>2020-06-10T08:07:51Z</time>
      </trkpt>
      <trkpt lat="48.63767" lon="-4.31615">
        <ele>4.1</ele>
        <time>2020-06-10T08:07:52Z</time>
      </trkpt>
      <trkpt lat="48.63761" lon="-4.31613">
        <ele>4.1</ele>
        <time>2020-06-10T08:07:53Z</time>
      </trkpt>
      <trkpt lat="48.63756" lon="-4.31611">
        <ele>4.1</ele>
        <time>2020-06-10T08:07:54Z</time>
      </trkpt>
      <trkpt lat="48.6375" lon="-4.31609">
        <ele>4.1</ele>
        <time>2020-06-10T08:07:55Z</time>
      </trkpt>
      <trkpt lat="48.63745" lon="-4.31607">
        <ele>4.1</ele>
        <time>2020-06-10T08:07:56Z</time>
      </trkpt>
      <trkpt lat="48.6374" lon="-4.31605">
        <ele>4</ele>
        <time>2020-06-10T08:07:57Z</time>
      </trkpt>
      <trkpt lat="48.63735" lon="-4.31603">
        <ele>4</ele>
        <time>2020-06-10T08:07:58Z</time>
      </trkpt>
      <trkpt lat="48.63729" lon="-4.31602">
        <ele>3.9</ele>
        <time>2020-06-10T08:07:59Z</time>
      </trkpt>
      <trkpt lat="48.63724" lon="-4.316">
        <ele>3.9</ele>
        <time>2020-06-10T08:08:00Z</time>
      </trkpt>
      <trkpt lat="48.63719" lon="-4.31599">
        <ele>3.9</ele>
        <time>2020-06-10T08:08:01Z</time>
      </trkpt>
      <trkpt lat="48.63714" lon="-4.31598">
        <ele>3.9</ele>
        <time>2020-06-10T08:08:02Z</time>
      </trkpt>
      <trkpt lat="48.63709" lon="-4.31596">
        <ele>4</ele>
        <time>2020-06-10T08:08:03Z</time>
      </trkpt>
      <trkpt lat="48.63703" lon="-4.31594">
        <ele>4</ele>
        <time>2020-06-10T08:08:04Z</time>
      </trkpt>
      <trkpt lat="48.63698" lon="-4.31592">
        <ele>4</ele>
        <time>2020-06-10T08:08:05Z</time>
      </trkpt>
      <trkpt lat="48.63692" lon="-4.3159">
        <ele>4.1</ele>
        <time>2020-06-10T08:08:06Z</time>
      </trkpt>
      <trkpt lat="48.63687" lon="-4.31587">
        <ele>4.2</ele>
        <time>2020-06-10T08:08:07Z</time>
      </trkpt>
      <trkpt lat="48.63681" lon="-4.31586">
        <ele>4.2</ele>
        <time>2020-06-10T08:08:08Z</time>
      </trkpt>
      <trkpt lat="48.63676" lon="-4.31584">
        <ele>4.2</ele>
        <time>2020-06-10T08:08:09Z</time>
      </trkpt>
      <trkpt lat="48.63671" lon="-4.31582">
        <ele>4.3</ele>
        <time>2020-06-10T08:08:10Z</time>
      </trkpt>
      <trkpt lat="48.63665" lon="-4.31579">
        <ele>4.3</ele>
        <time>2020-06-10T08:08:11Z</time>
      </trkpt>
      <trkpt lat="48.63659" lon="-4.31577">
        <ele>4.3</ele>
        <time>2020-06-10T08:08:12Z</time>
      </trkpt>
      <trkpt lat="48.63653" lon="-4.31575">
        <ele>4.3</ele>
        <time>2020-06-10T08:08:13Z</time>
      </trkpt>
      <trkpt lat="48.63647" lon="-4.31573">
        <ele>4.4</ele>
        <time>2020-06-10T08:08:14Z</time>
      </trkpt>
      <trkpt lat="48.63641" lon="-4.31572">
        <ele>4.4</ele>
        <time>2020-06-10T08:08:15Z</time>
      </trkpt>
      <trkpt lat="48.63636" lon="-4.3157">
        <ele>4.5</ele>
        <time>2020-06-10T08:08:16Z</time>
      </trkpt>
      <trkpt lat="48.6363" lon="-4.31569">
        <ele>4.5</ele>
        <time>2020-06-10T08:08:17Z</time>
      </trkpt>
      <trkpt lat="48.63624" lon="-4.31567">
        <ele>4.5</ele>
        <time>2020-06-10T08:08:18Z</time>
      </trkpt>
      <trkpt lat="48.63618" lon="-4.31565">
        <ele>4.4</ele>
        <time>2020-06-10T08:08:19Z</time>
      </trkpt>
      <trkpt lat="48.63612" lon="-4.31565">
        <ele>4.4</ele>
        <time>2020-06-10T08:08:20Z</time>
      </trkpt>
      <trkpt lat="48.63606" lon="-4.31564">
        <ele>4.4</ele>
        <time>2020-06-10T08:08:21Z</time>
      </trkpt>
      <trkpt lat="48.636" lon="-4.31561">
        <ele>4.4</ele>
        <time>2020-06-10T08:08:22Z</time>
      </trkpt>
      <trkpt lat="48.63593" lon="-4.31559">
        <ele>4.4</ele>
        <time>2020-06-10T08:08:23Z</time>
      </trkpt>
      <trkpt lat="48.63587" lon="-4.31558">
        <ele>4.4</ele>
        <time>2020-06-10T08:08:24Z</time>
      </trkpt>
      <trkpt lat="48.63581" lon="-4.31556">
        <ele>4.4</ele>
        <time>2020-06-10T08:08:25Z</time>
      </trkpt>
      <trkpt lat="48.63576" lon="-4.31555">
        <ele>4.4</ele>
        <time>2020-06-10T08:08:26Z</time>
      </trkpt>
      <trkpt lat="48.63571" lon="-4.31554">
        <ele>4.5</ele>
        <time>2020-06-10T08:08:27Z</time>
      </trkpt>
      <trkpt lat="48.63566" lon="-4.31553">
        <ele>4.5</ele>
        <time>2020-06-10T08:08:28Z</time>
      </trkpt>
      <trkpt lat="48.63562" lon="-4.31552">
        <ele>4.6</ele>
        <time>2020-06-10T08:08:29Z</time>
      </trkpt>
      <trkpt lat="48.63557" lon="-4.3155">
        <ele>4.6</ele>
        <time>2020-06-10T08:08:30Z</time>
      </trkpt>
      <trkpt lat="48.63552" lon="-4.31549">
        <ele>4.7</ele>
        <time>2020-06-10T08:08:31Z</time>
      </trkpt>
      <trkpt lat="48.63548" lon="-4.31547">
        <ele>4.7</ele>
        <time>2020-06-10T08:08:32Z</time>
      </trkpt>
      <trkpt lat="48.63543" lon="-4.31545">
        <ele>4.8</ele>
        <time>2020-06-10T08:08:33Z</time>
      </trkpt>
      <trkpt lat="48.63538" lon="-4.31544">
        <ele>4.8</ele>
        <time>2020-06-10T08:08:34Z</time>
      </trkpt>
      <trkpt lat="48.63533" lon="-4.31542">
        <ele>4.9</ele>
        <time>2020-06-10T08:08:35Z</time>
      </trkpt>
      <trkpt lat="48.63527" lon="-4.31541">
        <ele>4.9</ele>
        <time>2020-06-10T08:08:36Z</time>
      </trkpt>
      <trkpt lat="48.63522" lon="-4.31539">
        <ele>5</ele>
        <time>2020-06-10T08:08:37Z</time>
      </trkpt>
      <trkpt lat="48.63517" lon="-4.31536">
        <ele>5</ele>
        <time>2020-06-10T08:08:38Z</time>
      </trkpt>
      <trkpt lat="48.63512" lon="-4.31534">
        <ele>5.1</ele>
        <time>2020-06-10T08:08:39Z</time>
      </trkpt>
      <trkpt lat="48.63507" lon="-4.31532">
        <ele>5.1</ele>
        <time>2020-06-10T08:08:40Z</time>
      </trkpt>
      <trkpt lat="48.63502" lon="-4.31531">
        <ele>5.2</ele>
        <time>2020-06-10T08:08:41Z</time>
      </trkpt>
      <trkpt lat="48.63497" lon="-4.31529">
        <ele>5.2</ele>
        <time>2020-06-10T08:08:42Z</time>
      </trkpt>
      <trkpt lat="48.63492" lon="-4.31528">
        <ele>5.3</ele>
        <time>2020-06-10T08:08:43Z</time>
      </trkpt>
      <trkpt lat="48.63487" lon="-4.31526">
        <ele>5.4</ele>
        <time>2020-06-10T08:08:44Z</time>
      </trkpt>
      <trkpt lat="48.63483" lon="-4.31524">
        <ele>5.4</ele>
        <time>2020-06-10T08:08:45Z</time>
      </trkpt>
      <trkpt lat="48.63478" lon="-4.31522">
        <ele>5.5</ele>
        <time>2020-06-10T08:08:46Z</time>
      </trkpt>
      <trkpt lat="48.63472" lon="-4.31521">
        <ele>5.6</ele>
        <time>2020-06-10T08:08:47Z</time>
      </trkpt>
      <trkpt lat="48.63467" lon="-4.3152">
        <ele>5.6</ele>
        <time>2020-06-10T08:08:48Z</time>
      </trkpt>
      <trkpt lat="48.63463" lon="-4.31519">
        <ele>5.7</ele>
        <time>2020-06-10T08:08:49Z</time>
      </trkpt>
      <trkpt lat="48.63459" lon="-4.31518">
        <ele>5.7</ele>
        <time>2020-06-10T08:08:50Z</time>
      </trkpt>
      <trkpt lat="48.63452" lon="-4.31517">
        <ele>5.8</ele>
        <time>2020-06-10T08:08:51Z</time>
      </trkpt>
      <trkpt lat="48.63446" lon="-4.31515">
        <ele>5.9</ele>
        <time>2020-06-10T08:08:52Z</time>
      </trkpt>
      <trkpt lat="48.63442" lon="-4.31512">
        <ele>5.9</ele>
        <time>2020-06-10T08:08:53Z</time>
      </trkpt>
      <trkpt lat="48.63437" lon="-4.3151">
        <ele>6</ele>
        <time>2020-06-10T08:08:54Z</time>
      </trkpt>
      <trkpt lat="48.63433" lon="-4.31509">
        <ele>6.1</ele>
        <time>2020-06-10T08:08:55Z</time>
      </trkpt>
      <trkpt lat="48.63428" lon="-4.31507">
        <ele>6.1</ele>
        <time>2020-06-10T08:08:56Z</time>
      </trkpt>
      <trkpt lat="48.63424" lon="-4.31506">
        <ele>6.2</ele>
        <time>2020-06-10T08:08:57Z</time>
      </trkpt>
      <trkpt lat="48.63419" lon="-4.31505">
        <ele>6.2</ele>
        <time>2020-06-10T08:08:58Z</time>
      </trkpt>
      <trkpt lat="48.63413" lon="-4.31503">
        <ele>6.3</ele>
        <time>2020-06-10T08:08:59Z</time>
      </trkpt>
      <trkpt lat="48.63408" lon="-4.31502">
        <ele>6.4</ele>
        <time>2020-06-10T08:09:00Z</time>
      </trkpt>
      <trkpt lat="48.63403" lon="-4.31501">
        <ele>6.5</ele>
        <time>2020-06-10T08:09:01Z</time>
      </trkpt>
      <trkpt lat="48.63398" lon="-4.31499">
        <ele>6.6</ele>
        <time>2020-06-10T08:09:02Z</time>
      </trkpt>
      <trkpt lat="48.63393" lon="-4.31498">
        <ele>6.6</ele>
        <time>2020-06-10T08:09:03Z</time>
      </trkpt>
      <trkpt lat="48.63388" lon="-4.31497">
        <ele>6.7</ele>
        <time>2020-06-10T08:09:04Z</time>
      </trkpt>
      <trkpt lat="48.63383" lon="-4.31496">
        <ele>6.8</ele>
        <time>2020-06-10T08:09:05Z</time>
      </trkpt>
      <trkpt lat="48.63377" lon="-4.31494">
        <ele>6.8</ele>
        <time>2020-06-10T08:09:06Z</time>
      </trkpt>
      <trkpt lat="48.63372" lon="-4.31493">
        <ele>6.9</ele>
        <time>2020-06-10T08:09:07Z</time>
      </trkpt>
      <trkpt lat="48.63367" lon="-4.31492">
        <ele>7</ele>
        <time>2020-06-10T08:09:08Z</time>
      </trkpt>
      <trkpt lat="48.63362" lon="-4.3149">
        <ele>7</ele>
        <time>2020-06-10T08:09:09Z</time>
      </trkpt>
      <trkpt lat="48.63357" lon="-4.31488">
        <ele>7.1</ele>
        <time>2020-06-10T08:09:10Z</time>
      </trkpt>
      <trkpt lat="48.63353" lon="-4.31485">
        <ele>7.1</ele>
        <time>2020-06-10T08:09:11Z</time>
      </trkpt>
      <trkpt lat="48.63347" lon="-4.31484">
        <ele>7.2</ele>
        <time>2020-06-10T08:09:12Z</time>
      </trkpt>
      <trkpt lat="48.63342" lon="-4.31481">
        <ele>7.1</ele>
        <time>2020-06-10T08:09:13Z</time>
      </trkpt>
      <trkpt lat="48.63336" lon="-4.31479">
        <ele>7.1</ele>
        <time>2020-06-10T08:09:14Z</time>
      </trkpt>
      <trkpt lat="48.63331" lon="-4.31477">
        <ele>7.1</ele>
        <time>2020-06-10T08:09:15Z</time>
      </trkpt>
      <trkpt lat="48.63326" lon="-4.31477">
        <ele>7.1</ele>
        <time>2020-06-10T08:09:16Z</time>
      </trkpt>
      <trkpt lat="48.63322" lon="-4.31476">
        <ele>7.1</ele>
        <time>2020-06-10T08:09:17Z</time>
      </trkpt>
      <trkpt lat="48.63316" lon="-4.31475">
        <ele>7.2</ele>
        <time>2020-06-10T08:09:18Z</time>
      </trkpt>
      <trkpt lat="48.63311" lon="-4.31473">
        <ele>7.2</ele>
        <time>2020-06-10T08:09:19Z</time>
      </trkpt>
      <trkpt lat="48.63307" lon="-4.31472">
        <ele>7.3</ele>
        <time>2020-06-10T08:09:20Z</time>
      </trkpt>
      <trkpt lat="48.63302" lon="-4.3147">
        <ele>7.3</ele>
        <time>2020-06-10T08:09:21Z</time>
      </trkpt>
      <trkpt lat="48.63298" lon="-4.31469">
        <ele>7.3</ele>
        <time>2020-06-10T08:09:22Z</time>
      </trkpt>
      <trkpt lat="48.63293" lon="-4.31467">
        <ele>7.4</ele>
        <time>2020-06-10T08:09:23Z</time>
      </trkpt>
      <trkpt lat="48.63289" lon="-4.31464">
        <ele>7.5</ele>
        <time>2020-06-10T08:09:24Z</time>
      </trkpt>
      <trkpt lat="48.63284" lon="-4.31461">
        <ele>7.5</ele>
        <time>2020-06-10T08:09:25Z</time>
      </trkpt>
      <trkpt lat="48.63279" lon="-4.31455">
        <ele>7.6</ele>
        <time>2020-06-10T08:09:26Z</time>
      </trkpt>
      <trkpt lat="48.63274" lon="-4.3145">
        <ele>7.6</ele>
        <time>2020-06-10T08:09:27Z</time>
      </trkpt>
      <trkpt lat="48.6327" lon="-4.31445">
        <ele>7.7</ele>
        <time>2020-06-10T08:09:28Z</time>
      </trkpt>
      <trkpt lat="48.63265" lon="-4.31441">
        <ele>7.7</ele>
        <time>2020-06-10T08:09:29Z</time>
      </trkpt>
      <trkpt lat="48.63261" lon="-4.31437">
        <ele>7.7</ele>
        <time>2020-06-10T08:09:30Z</time>
      </trkpt>
      <trkpt lat="48.63257" lon="-4.31432">
        <ele>7.7</ele>
        <time>2020-06-10T08:09:31Z</time>
      </trkpt>
      <trkpt lat="48.63254" lon="-4.31428">
        <ele>7.7</ele>
        <time>2020-06-10T08:09:32Z</time>
      </trkpt>
      <trkpt lat="48.6325" lon="-4.31427">
        <ele>7.8</ele>
        <time>2020-06-10T08:09:33Z</time>
      </trkpt>
      <trkpt lat="48.63245" lon="-4.31426">
        <ele>7.9</ele>
        <time>2020-06-10T08:09:34Z</time>
      </trkpt>
      <trkpt lat="48.63239" lon="-4.31425">
        <ele>8</ele>
        <time>2020-06-10T08:09:35Z</time>
      </trkpt>
      <trkpt lat="48.63234" lon="-4.31425">
        <ele>8.2</ele>
        <time>2020-06-10T08:09:36Z</time>
      </trkpt>
      <trkpt lat="48.6323" lon="-4.31422">
        <ele>8.1</ele>
        <time>2020-06-10T08:09:37Z</time>
      </trkpt>
      <trkpt lat="48.63226" lon="-4.31418">
        <ele>8</ele>
        <time>2020-06-10T08:09:38Z</time>
      </trkpt>
      <trkpt lat="48.63223" lon="-4.31412">
        <ele>8</ele>
        <time>2020-06-10T08:09:39Z</time>
      </trkpt>
      <trkpt lat="48.63222" lon="-4.31408">
        <ele>7.9</ele>
        <time>2020-06-10T08:09:40Z</time>
      </trkpt>
      <trkpt lat="48.63221" lon="-4.314">
        <ele>7.9</ele>
        <time>2020-06-10T08:09:41Z</time>
      </trkpt>
      <trkpt lat="48.6322" lon="-4.31392">
        <ele>7.8</ele>
        <time>2020-06-10T08:09:42Z</time>
      </trkpt>
      <trkpt lat="48.6322" lon="-4.31383">
        <ele>7.7</ele>
        <time>2020-06-10T08:09:43Z</time>
      </trkpt>
      <trkpt lat="48.63219" lon="-4.31373">
        <ele>7.8</ele>
        <time>2020-06-10T08:09:44Z</time>
      </trkpt>
      <trkpt lat="48.63218" lon="-4.31365">
        <ele>7.8</ele>
        <time>2020-06-10T08:09:45Z</time>
      </trkpt>
      <trkpt lat="48.63217" lon="-4.31356">
        <ele>7.9</ele>
        <time>2020-06-10T08:09:46Z</time>
      </trkpt>
      <trkpt lat="48.63215" lon="-4.31348">
        <ele>7.9</ele>
        <time>2020-06-10T08:09:47Z</time>
      </trkpt>
      <trkpt lat="48.63214" lon="-4.31341">
        <ele>7.9</ele>
        <time>2020-06-10T08:09:48Z</time>
      </trkpt>
      <trkpt lat="48.63213" lon="-4.31333">
        <ele>7.8</ele>
        <time>2020-06-10T08:09:49Z</time>
      </trkpt>
      <trkpt lat="48.63211" lon="-4.31322">
        <ele>7.7</ele>
        <time>2020-06-10T08:09:50Z</time>
      </trkpt>
      <trkpt lat="48.63209" lon="-4.31313">
        <ele>7.7</ele>
        <time>2020-06-10T08:09:51Z</time>
      </trkpt>
      <trkpt lat="48.63208" lon="-4.31304">
        <ele>7.6</ele>
        <time>2020-06-10T08:09:52Z</time>
      </trkpt>
      <trkpt lat="48.63206" lon="-4.31295">
        <ele>7.6</ele>
        <time>2020-06-10T08:09:53Z</time>
      </trkpt>
      <trkpt lat="48.63204" lon="-4.31286">
        <ele>7.6</ele>
        <time>2020-06-10T08:09:54Z</time>
      </trkpt>
      <trkpt lat="48.63203" lon="-4.31278">
        <ele>7.5</ele>
        <time>2020-06-10T08:09:55Z</time>
      </trkpt>
      <trkpt lat="48.63202" lon="-4.31268">
        <ele>7.5</ele>
        <time>2020-06-10T08:09:56Z</time>
      </trkpt>
      <trkpt lat="48.63201" lon="-4.31258">
        <ele>7.4</ele>
        <time>2020-06-10T08:09:57Z</time>
      </trkpt>
      <trkpt lat="48.632" lon="-4.3125">
        <ele>7.3</ele>
        <time>2020-06-10T08:09:58Z</time>
      </trkpt>
      <trkpt lat="48.63198" lon="-4.31241">
        <ele>7.3</ele>
        <time>2020-06-10T08:09:59Z</time>
      </trkpt>
      <trkpt lat="48.63197" lon="-4.31232">
        <ele>7.2</ele>
        <time>2020-06-10T08:10:00Z</time>
      </trkpt>
      <trkpt lat="48.63195" lon="-4.31223">
        <ele>7.1</ele>
        <time>2020-06-10T08:10:01Z</time>
      </trkpt>
      <trkpt lat="48.63194" lon="-4.31214">
        <ele>7.1</ele>
        <time>2020-06-10T08:10:02Z</time>
      </trkpt>
      <trkpt lat="48.63192" lon="-4.31204">
        <ele>7.1</ele>
        <time>2020-06-10T08:10:03Z</time>
      </trkpt>
      <trkpt lat="48.63191" lon="-4.31195">
        <ele>7.1</ele>
        <time>2020-06-10T08:10:04Z</time>
      </trkpt>
      <trkpt lat="48.6319" lon="-4.31186">
        <ele>7.1</ele>
        <time>2020-06-10T08:10:05Z</time>
      </trkpt>
      <trkpt lat="48.63189" lon="-4.31177">
        <ele>7.1</ele>
        <time>2020-06-10T08:10:06Z</time>
      </trkpt>
      <trkpt lat="48.63188" lon="-4.31168">
        <ele>7</ele>
        <time>2020-06-10T08:10:07Z</time>
      </trkpt>
      <trkpt lat="48.63187" lon="-4.31159">
        <ele>7</ele>
        <time>2020-06-10T08:10:08Z</time>
      </trkpt>
      <trkpt lat="48.63185" lon="-4.3115">
        <ele>7</ele>
        <time>2020-06-10T08:10:09Z</time>
      </trkpt>
      <trkpt lat="48.63184" lon="-4.3114">
        <ele>7</ele>
        <time>2020-06-10T08:10:10Z</time>
      </trkpt>
      <trkpt lat="48.63182" lon="-4.3113">
        <ele>7</ele>
        <time>2020-06-10T08:10:11Z</time>
      </trkpt>
      <trkpt lat="48.63181" lon="-4.3112">
        <ele>7</ele>
        <time>2020-06-10T08:10:12Z</time>
      </trkpt>
      <trkpt lat="48.63179" lon="-4.31111">
        <ele>6.9</ele>
        <time>2020-06-10T08:10:13Z</time>
      </trkpt>
      <trkpt lat="48.63178" lon="-4.31102">
        <ele>6.9</ele>
        <time>2020-06-10T08:10:14Z</time>
      </trkpt>
      <trkpt lat="48.63176" lon="-4.31093">
        <ele>6.9</ele>
        <time>2020-06-10T08:10:15Z</time>
      </trkpt>
      <trkpt lat="48.63175" lon="-4.31084">
        <ele>6.9</ele>
        <time>2020-06-10T08:10:16Z</time>
      </trkpt>
      <trkpt lat="48.63173" lon="-4.31075">
        <ele>6.9</ele>
        <time>2020-06-10T08:10:17Z</time>
      </trkpt>
      <trkpt lat="48.63172" lon="-4.31065">
        <ele>6.9</ele>
        <time>2020-06-10T08:10:18Z</time>
      </trkpt>
      <trkpt lat="48.6317" lon="-4.31056">
        <ele>6.9</ele>
        <time>2020-06-10T08:10:19Z</time>
      </trkpt>
      <trkpt lat="48.63169" lon="-4.31046">
        <ele>6.8</ele>
        <time>2020-06-10T08:10:20Z</time>
      </trkpt>
      <trkpt lat="48.63167" lon="-4.31037">
        <ele>6.8</ele>
        <time>2020-06-10T08:10:21Z</time>
      </trkpt>
      <trkpt lat="48.63166" lon="-4.31028">
        <ele>6.7</ele>
        <time>2020-06-10T08:10:22Z</time>
      </trkpt>
      <trkpt lat="48.63165" lon="-4.3102">
        <ele>6.7</ele>
        <time>2020-06-10T08:10:23Z</time>
      </trkpt>
      <trkpt lat="48.63164" lon="-4.31011">
        <ele>6.7</ele>
        <time>2020-06-10T08:10:24Z</time>
      </trkpt>
      <trkpt lat="48.63162" lon="-4.31005">
        <ele>6.7</ele>
        <time>2020-06-10T08:10:25Z</time>
      </trkpt>
      <trkpt lat="48.6316" lon="-4.30998">
        <ele>6.8</ele>
        <time>2020-06-10T08:10:26Z</time>
      </trkpt>
      <trkpt lat="48.63158" lon="-4.30991">
        <ele>6.8</ele>
        <time>2020-06-10T08:10:27Z</time>
      </trkpt>
      <trkpt lat="48.63155" lon="-4.30983">
        <ele>6.8</ele>
        <time>2020-06-10T08:10:28Z</time>
      </trkpt>
      <trkpt lat="48.63153" lon="-4.30976">
        <ele>6.9</ele>
        <time>2020-06-10T08:10:29Z</time>
      </trkpt>
      <trkpt lat="48.63151" lon="-4.30968">
        <ele>6.9</ele>
        <time>2020-06-10T08:10:30Z</time>
      </trkpt>
      <trkpt lat="48.63148" lon="-4.3096">
        <ele>7</ele>
        <time>2020-06-10T08:10:31Z</time>
      </trkpt>
      <trkpt lat="48.63145" lon="-4.30952">
        <ele>7</ele>
        <time>2020-06-10T08:10:32Z</time>
      </trkpt>
      <trkpt lat="48.63142" lon="-4.30944">
        <ele>7.1</ele>
        <time>2020-06-10T08:10:33Z</time>
      </trkpt>
      <trkpt lat="48.63138" lon="-4.30936">
        <ele>7.3</ele>
        <time>2020-06-10T08:10:34Z</time>
      </trkpt>
      <trkpt lat="48.63135" lon="-4.30929">
        <ele>7.3</ele>
        <time>2020-06-10T08:10:35Z</time>
      </trkpt>
      <trkpt lat="48.63133" lon="-4.30921">
        <ele>7.4</ele>
        <time>2020-06-10T08:10:36Z</time>
      </trkpt>
      <trkpt lat="48.63129" lon="-4.30914">
        <ele>7.5</ele>
        <time>2020-06-10T08:10:37Z</time>
      </trkpt>
      <trkpt lat="48.63127" lon="-4.30907">
        <ele>7.5</ele>
        <time>2020-06-10T08:10:38Z</time>
      </trkpt>
      <trkpt lat="48.63124" lon="-4.30901">
        <ele>7.6</ele>
        <time>2020-06-10T08:10:39Z</time>
      </trkpt>
      <trkpt lat="48.63121" lon="-4.30897">
        <ele>7.6</ele>
        <time>2020-06-10T08:10:40Z</time>
      </trkpt>
      <trkpt lat="48.63118" lon="-4.30892">
        <ele>7.6</ele>
        <time>2020-06-10T08:10:41Z</time>
      </trkpt>
      <trkpt lat="48.63115" lon="-4.30888">
        <ele>7.7</ele>
        <time>2020-06-10T08:10:42Z</time>
      </trkpt>
      <trkpt lat="48.63111" lon="-4.30882">
        <ele>7.7</ele>
        <time>2020-06-10T08:10:43Z</time>
      </trkpt>
      <trkpt lat="48.63107" lon="-4.30876">
        <ele>7.8</ele>
        <time>2020-06-10T08:10:44Z</time>
      </trkpt>
      <trkpt lat="48.63104" lon="-4.30869">
        <ele>7.8</ele>
        <time>2020-06-10T08:10:45Z</time>
      </trkpt>
      <trkpt lat="48.631" lon="-4.30863">
        <ele>7.9</ele>
        <time>2020-06-10T08:10:46Z</time>
      </trkpt>
      <trkpt lat="48.63097" lon="-4.30858">
        <ele>8</ele>
        <time>2020-06-10T08:10:47Z</time>
      </trkpt>
      <trkpt lat="48.63093" lon="-4.30853">
        <ele>8</ele>
        <time>2020-06-10T08:10:48Z</time>
      </trkpt>
      <trkpt lat="48.63089" lon="-4.30848">
        <ele>8.1</ele>
        <time>2020-06-10T08:10:49Z</time>
      </trkpt>
      <trkpt lat="48.63084" lon="-4.30845">
        <ele>8.2</ele>
        <time>2020-06-10T08:10:50Z</time>
      </trkpt>
      <trkpt lat="48.6308" lon="-4.30842">
        <ele>8.3</ele>
        <time>2020-06-10T08:10:51Z</time>
      </trkpt>
      <trkpt lat="48.63075" lon="-4.30838">
        <ele>8.4</ele>
        <time>2020-06-10T08:10:52Z</time>
      </trkpt>
      <trkpt lat="48.63071" lon="-4.30834">
        <ele>8.5</ele>
        <time>2020-06-10T08:10:53Z</time>
      </trkpt>
      <trkpt lat="48.63066" lon="-4.30831">
        <ele>8.6</ele>
        <time>2020-06-10T08:10:54Z</time>
      </trkpt>
      <trkpt lat="48.63062" lon="-4.30827">
        <ele>8.6</ele>
        <time>2020-06-10T08:10:55Z</time>
      </trkpt>
      <trkpt lat="48.63058" lon="-4.30823">
        <ele>8.7</ele>
        <time>2020-06-10T08:10:56Z</time>
      </trkpt>
      <trkpt lat="48.63054" lon="-4.30819">
        <ele>8.7</ele>
        <time>2020-06-10T08:10:57Z</time>
      </trkpt>
      <trkpt lat="48.63051" lon="-4.30815">
        <ele>8.8</ele>
        <time>2020-06-10T08:10:58Z</time>
      </trkpt>
      <trkpt lat="48.63049" lon="-4.30812">
        <ele>8.8</ele>
        <time>2020-06-10T08:10:59Z</time>
      </trkpt>
      <trkpt lat="48.63046" lon="-4.30807">
        <ele>8.8</ele>
        <time>2020-06-10T08:11:00Z</time>
      </trkpt>
      <trkpt lat="48.63042" lon="-4.30802">
        <ele>8.9</ele>
        <time>2020-06-10T08:11:01Z</time>
      </trkpt>
      <trkpt lat="48.6304" lon="-4.30795">
        <ele>8.9</ele>
        <time>2020-06-10T08:11:02Z</time>
      </trkpt>
      <trkpt lat="48.63037" lon="-4.30789">
        <ele>9</ele>
        <time>2020-06-10T08:11:03Z</time>
      </trkpt>
      <trkpt lat="48.63035" lon="-4.30783">
        <ele>9</ele>
        <time>2020-06-10T08:11:04Z</time>
      </trkpt>
      <trkpt lat="48.63032" lon="-4.30777">
        <ele>9.1</ele>
        <time>2020-06-10T08:11:05Z</time>
      </trkpt>
      <trkpt lat="48.6303" lon="-4.3077">
        <ele>9.2</ele>
        <time>2020-06-10T08:11:06Z</time>
      </trkpt>
      <trkpt lat="48.63028" lon="-4.30763">
        <ele>9.2</ele>
        <time>2020-06-10T08:11:07Z</time>
      </trkpt>
      <trkpt lat="48.63026" lon="-4.30754">
        <ele>9.4</ele>
        <time>2020-06-10T08:11:08Z</time>
      </trkpt>
      <trkpt lat="48.63024" lon="-4.30747">
        <ele>9.4</ele>
        <time>2020-06-10T08:11:09Z</time>
      </trkpt>
      <trkpt lat="48.63022" lon="-4.3074">
        <ele>9.5</ele>
        <time>2020-06-10T08:11:10Z</time>
      </trkpt>
      <trkpt lat="48.6302" lon="-4.30734">
        <ele>9.5</ele>
        <time>2020-06-10T08:11:11Z</time>
      </trkpt>
      <trkpt lat="48.63018" lon="-4.30727">
        <ele>9.6</ele>
        <time>2020-06-10T08:11:12Z</time>
      </trkpt>
      <trkpt lat="48.63018" lon="-4.30721">
        <ele>9.7</ele>
        <time>2020-06-10T08:11:13Z</time>
      </trkpt>
      <trkpt lat="48.63016" lon="-4.30714">
        <ele>9.7</ele>
        <time>2020-06-10T08:11:14Z</time>
      </trkpt>
      <trkpt lat="48.63014" lon="-4.30707">
        <ele>9.8</ele>
        <time>2020-06-10T08:11:15Z</time>
      </trkpt>
      <trkpt lat="48.63012" lon="-4.30699">
        <ele>9.9</ele>
        <time>2020-06-10T08:11:16Z</time>
      </trkpt>
      <trkpt lat="48.6301" lon="-4.30692">
        <ele>10</ele>
        <time>2020-06-10T08:11:17Z</time>
      </trkpt>
      <trkpt lat="48.63008" lon="-4.30684">
        <ele>10.1</ele>
        <time>2020-06-10T08:11:18Z</time>
      </trkpt>
      <trkpt lat="48.63006" lon="-4.30676">
        <ele>10.2</ele>
        <time>2020-06-10T08:11:19Z</time>
      </trkpt>
      <trkpt lat="48.63004" lon="-4.3067">
        <ele>10.2</ele>
        <time>2020-06-10T08:11:20Z</time>
      </trkpt>
      <trkpt lat="48.63" lon="-4.30664">
        <ele>10.2</ele>
        <time>2020-06-10T08:11:21Z</time>
      </trkpt>
      <trkpt lat="48.62998" lon="-4.30656">
        <ele>10.3</ele>
        <time>2020-06-10T08:11:22Z</time>
      </trkpt>
      <trkpt lat="48.62995" lon="-4.30649">
        <ele>10.3</ele>
        <time>2020-06-10T08:11:23Z</time>
      </trkpt>
      <trkpt lat="48.62992" lon="-4.30642">
        <ele>10.3</ele>
        <time>2020-06-10T08:11:24Z</time>
      </trkpt>
      <trkpt lat="48.62989" lon="-4.30635">
        <ele>10.3</ele>
        <time>2020-06-10T08:11:25Z</time>
      </trkpt>
      <trkpt lat="48.62986" lon="-4.30628">
        <ele>10.3</ele>
        <time>2020-06-10T08:11:26Z</time>
      </trkpt>
      <trkpt lat="48.62982" lon="-4.30621">
        <ele>10.3</ele>
        <time>2020-06-10T08:11:27Z</time>
      </trkpt>
      <trkpt lat="48.62979" lon="-4.30616">
        <ele>10.3</ele>
        <time>2020-06-10T08:11:28Z</time>
      </trkpt>
      <trkpt lat="48.62976" lon="-4.30609">
        <ele>10.3</ele>
        <time>2020-06-10T08:11:29Z</time>
      </trkpt>
      <trkpt lat="48.62971" lon="-4.30602">
        <ele>10.3</ele>
        <time>2020-06-10T08:11:30Z</time>
      </trkpt>
      <trkpt lat="48.62967" lon="-4.30596">
        <ele>10.3</ele>
        <time>2020-06-10T08:11:31Z</time>
      </trkpt>
      <trkpt lat="48.62964" lon="-4.3059">
        <ele>10.3</ele>
        <time>2020-06-10T08:11:32Z</time>
      </trkpt>
      <trkpt lat="48.62961" lon="-4.30583">
        <ele>10.3</ele>
        <time>2020-06-10T08:11:33Z</time>
      </trkpt>
      <trkpt lat="48.62958" lon="-4.30576">
        <ele>10.3</ele>
        <time>2020-06-10T08:11:34Z</time>
      </trkpt>
      <trkpt lat="48.62954" lon="-4.30569">
        <ele>10.2</ele>
        <time>2020-06-10T08:11:35Z</time>
      </trkpt>
      <trkpt lat="48.62951" lon="-4.30563">
        <ele>10.2</ele>
        <time>2020-06-10T08:11:36Z</time>
      </trkpt>
      <trkpt lat="48.62948" lon="-4.30556">
        <ele>10.2</ele>
        <time>2020-06-10T08:11:37Z</time>
      </trkpt>
      <trkpt lat="48.62945" lon="-4.30551">
        <ele>10.2</ele>
        <time>2020-06-10T08:11:38Z</time>
      </trkpt>
      <trkpt lat="48.62942" lon="-4.30544">
        <ele>10.2</ele>
        <time>2020-06-10T08:11:39Z</time>
      </trkpt>
      <trkpt lat="48.62938" lon="-4.30536">
        <ele>10.2</ele>
        <time>2020-06-10T08:11:40Z</time>
      </trkpt>
      <trkpt lat="48.62935" lon="-4.30529">
        <ele>10.1</ele>
        <time>2020-06-10T08:11:41Z</time>
      </trkpt>
      <trkpt lat="48.62933" lon="-4.30523">
        <ele>10.1</ele>
        <time>2020-06-10T08:11:42Z</time>
      </trkpt>
      <trkpt lat="48.6293" lon="-4.30516">
        <ele>10.1</ele>
        <time>2020-06-10T08:11:43Z</time>
      </trkpt>
      <trkpt lat="48.62928" lon="-4.30509">
        <ele>10</ele>
        <time>2020-06-10T08:11:44Z</time>
      </trkpt>
      <trkpt lat="48.62926" lon="-4.30502">
        <ele>9.9</ele>
        <time>2020-06-10T08:11:45Z</time>
      </trkpt>
      <trkpt lat="48.62924" lon="-4.30496">
        <ele>9.9</ele>
        <time>2020-06-10T08:11:46Z</time>
      </trkpt>
      <trkpt lat="48.62924" lon="-4.30491">
        <ele>9.8</ele>
        <time>2020-06-10T08:11:47Z</time>
      </trkpt>
      <trkpt lat="48.62922" lon="-4.30486">
        <ele>9.8</ele>
        <time>2020-06-10T08:11:48Z</time>
      </trkpt>
      <trkpt lat="48.62921" lon="-4.30477">
        <ele>9.7</ele>
        <time>2020-06-10T08:11:49Z</time>
      </trkpt>
      <trkpt lat="48.62919" lon="-4.3047">
        <ele>9.7</ele>
        <time>2020-06-10T08:11:50Z</time>
      </trkpt>
      <trkpt lat="48.62918" lon="-4.30462">
        <ele>9.6</ele>
        <time>2020-06-10T08:11:51Z</time>
      </trkpt>
      <trkpt lat="48.62917" lon="-4.30454">
        <ele>9.6</ele>
        <time>2020-06-10T08:11:52Z</time>
      </trkpt>
      <trkpt lat="48.62916" lon="-4.30448">
        <ele>9.5</ele>
        <time>2020-06-10T08:11:53Z</time>
      </trkpt>
      <trkpt lat="48.62915" lon="-4.30439">
        <ele>9.5</ele>
        <time>2020-06-10T08:11:54Z</time>
      </trkpt>
      <trkpt lat="48.62914" lon="-4.3043">
        <ele>9.4</ele>
        <time>2020-06-10T08:11:55Z</time>
      </trkpt>
      <trkpt lat="48.62912" lon="-4.30422">
        <ele>9.4</ele>
        <time>2020-06-10T08:11:56Z</time>
      </trkpt>
      <trkpt lat="48.6291" lon="-4.30416">
        <ele>9.3</ele>
        <time>2020-06-10T08:11:57Z</time>
      </trkpt>
      <trkpt lat="48.62908" lon="-4.30409">
        <ele>9.3</ele>
        <time>2020-06-10T08:11:58Z</time>
      </trkpt>
      <trkpt lat="48.62906" lon="-4.30402">
        <ele>9.3</ele>
        <time>2020-06-10T08:11:59Z</time>
      </trkpt>
      <trkpt lat="48.62904" lon="-4.30395">
        <ele>9.2</ele>
        <time>2020-06-10T08:12:00Z</time>
      </trkpt>
      <trkpt lat="48.62902" lon="-4.30386">
        <ele>9.2</ele>
        <time>2020-06-10T08:12:01Z</time>
      </trkpt>
      <trkpt lat="48.629" lon="-4.30377">
        <ele>9.1</ele>
        <time>2020-06-10T08:12:02Z</time>
      </trkpt>
      <trkpt lat="48.62897" lon="-4.30371">
        <ele>9.1</ele>
        <time>2020-06-10T08:12:03Z</time>
      </trkpt>
      <trkpt lat="48.62896" lon="-4.30363">
        <ele>9.1</ele>
        <time>2020-06-10T08:12:04Z</time>
      </trkpt>
      <trkpt lat="48.62896" lon="-4.30357">
        <ele>9.1</ele>
        <time>2020-06-10T08:12:05Z</time>
      </trkpt>
      <trkpt lat="48.62896" lon="-4.30349">
        <ele>9</ele>
        <time>2020-06-10T08:12:06Z</time>
      </trkpt>
      <trkpt lat="48.62897" lon="-4.30342">
        <ele>9</ele>
        <time>2020-06-10T08:12:07Z</time>
      </trkpt>
      <trkpt lat="48.62898" lon="-4.30334">
        <ele>9</ele>
        <time>2020-06-10T08:12:08Z</time>
      </trkpt>
      <trkpt lat="48.629" lon="-4.30326">
        <ele>9</ele>
        <time>2020-06-10T08:12:09Z</time>
      </trkpt>
      <trkpt lat="48.629" lon="-4.30318">
        <ele>9</ele>
        <time>2020-06-10T08:12:10Z</time>
      </trkpt>
      <trkpt lat="48.62901" lon="-4.3031">
        <ele>9</ele>
        <time>2020-06-10T08:12:11Z</time>
      </trkpt>
      <trkpt lat="48.62903" lon="-4.30302">
        <ele>9</ele>
        <time>2020-06-10T08:12:12Z</time>
      </trkpt>
      <trkpt lat="48.62903" lon="-4.30293">
        <ele>9</ele>
        <time>2020-06-10T08:12:13Z</time>
      </trkpt>
      <trkpt lat="48.62904" lon="-4.30286">
        <ele>9.1</ele>
        <time>2020-06-10T08:12:14Z</time>
      </trkpt>
      <trkpt lat="48.62905" lon="-4.30279">
        <ele>9.1</ele>
        <time>2020-06-10T08:12:15Z</time>
      </trkpt>
      <trkpt lat="48.62906" lon="-4.30271">
        <ele>9.2</ele>
        <time>2020-06-10T08:12:16Z</time>
      </trkpt>
      <trkpt lat="48.62906" lon="-4.30262">
        <ele>9.3</ele>
        <time>2020-06-10T08:12:17Z</time>
      </trkpt>
      <trkpt lat="48.62906" lon="-4.30254">
        <ele>9.5</ele>
        <time>2020-06-10T08:12:18Z</time>
      </trkpt>
      <trkpt lat="48.62905" lon="-4.30247">
        <ele>9.5</ele>
        <time>2020-06-10T08:12:19Z</time>
      </trkpt>
      <trkpt lat="48.62905" lon="-4.30239">
        <ele>9.5</ele>
        <time>2020-06-10T08:12:20Z</time>
      </trkpt>
      <trkpt lat="48.62905" lon="-4.3023">
        <ele>9.6</ele>
        <time>2020-06-10T08:12:21Z</time>
      </trkpt>
      <trkpt lat="48.62904" lon="-4.30222">
        <ele>9.7</ele>
        <time>2020-06-10T08:12:22Z</time>
      </trkpt>
      <trkpt lat="48.62904" lon="-4.30214">
        <ele>9.8</ele>
        <time>2020-06-10T08:12:23Z</time>
      </trkpt>
      <trkpt lat="48.62903" lon="-4.30206">
        <ele>9.9</ele>
        <time>2020-06-10T08:12:24Z</time>
      </trkpt>
      <trkpt lat="48.62902" lon="-4.30199">
        <ele>9.9</ele>
        <time>2020-06-10T08:12:25Z</time>
      </trkpt>
      <trkpt lat="48.62901" lon="-4.30191">
        <ele>10</ele>
        <time>2020-06-10T08:12:26Z</time>
      </trkpt>
      <trkpt lat="48.629" lon="-4.30186">
        <ele>10.1</ele>
        <time>2020-06-10T08:12:27Z</time>
      </trkpt>
      <trkpt lat="48.62898" lon="-4.30177">
        <ele>10.2</ele>
        <time>2020-06-10T08:12:28Z</time>
      </trkpt>
      <trkpt lat="48.62897" lon="-4.3017">
        <ele>10.3</ele>
        <time>2020-06-10T08:12:29Z</time>
      </trkpt>
      <trkpt lat="48.62896" lon="-4.30164">
        <ele>10.3</ele>
        <time>2020-06-10T08:12:30Z</time>
      </trkpt>
      <trkpt lat="48.62896" lon="-4.3016">
        <ele>10.4</ele>
        <time>2020-06-10T08:12:31Z</time>
      </trkpt>
      <trkpt lat="48.62895" lon="-4.30153">
        <ele>10.4</ele>
        <time>2020-06-10T08:12:32Z</time>
      </trkpt>
      <trkpt lat="48.62895" lon="-4.30146">
        <ele>10.5</ele>
        <time>2020-06-10T08:12:33Z</time>
      </trkpt>
      <trkpt lat="48.62894" lon="-4.3014">
        <ele>10.6</ele>
        <time>2020-06-10T08:12:34Z</time>
      </trkpt>
      <trkpt lat="48.62894" lon="-4.30135">
        <ele>10.6</ele>
        <time>2020-06-10T08:12:35Z</time>
      </trkpt>
      <trkpt lat="48.62893" lon="-4.3013">
        <ele>10.6</ele>
        <time>2020-06-10T08:12:36Z</time>
      </trkpt>
      <trkpt lat="48.62892" lon="-4.30125">
        <ele>10.7</ele>
        <time>2020-06-10T08:12:37Z</time>
      </trkpt>
      <trkpt lat="48.62892" lon="-4.30119">
        <ele>10.7</ele>
        <time>2020-06-10T08:12:38Z</time>
      </trkpt>
      <trkpt lat="48.62892" lon="-4.30115">
        <ele>10.7</ele>
        <time>2020-06-10T08:12:39Z</time>
      </trkpt>
      <trkpt lat="48.62892" lon="-4.30111">
        <ele>10.7</ele>
        <time>2020-06-10T08:12:40Z</time>
      </trkpt>
      <trkpt lat="48.62895" lon="-4.30107">
        <ele>10.8</ele>
        <time>2020-06-10T08:12:41Z</time>
      </trkpt>
      <trkpt lat="48.62896" lon="-4.30104">
        <ele>10.8</ele>
        <time>2020-06-10T08:12:42Z</time>
      </trkpt>
      <trkpt lat="48.62897" lon="-4.30103">
        <ele>10.8</ele>
        <time>2020-06-10T08:12:43Z</time>
      </trkpt>
      <trkpt lat="48.62898" lon="-4.30102">
        <ele>10.8</ele>
        <time>2020-06-10T08:12:44Z</time>
      </trkpt>
      <trkpt lat="48.62898" lon="-4.30101">
        <ele>10.8</ele>
        <time>2020-06-10T08:12:45Z</time>
      </trkpt>
      <trkpt lat="48.62898" lon="-4.30102">
        <ele>10.8</ele>
        <time>2020-06-10T08:12:46Z</time>
      </trkpt>
      <trkpt lat="48.62898" lon="-4.30101">
        <ele>10.8</ele>
        <time>2020-06-10T08:12:47Z</time>
      </trkpt>
      <trkpt lat="48.62898" lon="-4.30102">
        <ele>10.8</ele>
        <time>2020-06-10T08:12:48Z</time>
      </trkpt>
      <trkpt lat="48.62898" lon="-4.30102">
        <ele>10.8</ele>
        <time>2020-06-10T08:12:49Z</time>
      </trkpt>
      <trkpt lat="48.62898" lon="-4.30103">
        <ele>10.8</ele>
        <time>2020-06-10T08:12:50Z</time>
      </trkpt>
      <trkpt lat="48.62898" lon="-4.30103">
        <ele>10.8</ele>
        <time>2020-06-10T08:12:51Z</time>
      </trkpt>
      <trkpt lat="48.62898" lon="-4.30104">
        <ele>10.8</ele>
        <time>2020-06-10T08:12:52Z</time>
      </trkpt>
      <trkpt lat="48.62899" lon="-4.30103">
        <ele>10.8</ele>
        <time>2020-06-10T08:12:53Z</time>
      </trkpt>
      <trkpt lat="48.62899" lon="-4.30104">
        <ele>10.8</ele>
        <time>2020-06-10T08:12:54Z</time>
      </trkpt>
      <trkpt lat="48.62899" lon="-4.30104">
        <ele>10.8</ele>
        <time>2020-06-10T08:12:55Z</time>
      </trkpt>
      <trkpt lat="48.62899" lon="-4.30105">
        <ele>10.8</ele>
        <time>2020-06-10T08:12:56Z</time>
      </trkpt>
      <trkpt lat="48.62894" lon="-4.30103">
        <ele>10.9</ele>
        <time>2020-06-10T08:13:10Z</time>
      </trkpt>
      <trkpt lat="48.62892" lon="-4.30104">
        <ele>10.9</ele>
        <time>2020-06-10T08:13:11Z</time>
      </trkpt>
      <trkpt lat="48.6289" lon="-4.30105">
        <ele>10.9</ele>
        <time>2020-06-10T08:13:12Z</time>
      </trkpt>
      <trkpt lat="48.62889" lon="-4.30106">
        <ele>10.9</ele>
        <time>2020-06-10T08:13:13Z</time>
      </trkpt>
      <trkpt lat="48.62887" lon="-4.30106">
        <ele>10.9</ele>
        <time>2020-06-10T08:13:14Z</time>
      </trkpt>
      <trkpt lat="48.62885" lon="-4.30107">
        <ele>10.9</ele>
        <time>2020-06-10T08:13:15Z</time>
      </trkpt>
      <trkpt lat="48.62884" lon="-4.30107">
        <ele>10.9</ele>
        <time>2020-06-10T08:13:16Z</time>
      </trkpt>
      <trkpt lat="48.62883" lon="-4.30108">
        <ele>10.9</ele>
        <time>2020-06-10T08:13:17Z</time>
      </trkpt>
      <trkpt lat="48.62881" lon="-4.30105">
        <ele>11</ele>
        <time>2020-06-10T08:13:18Z</time>
      </trkpt>
      <trkpt lat="48.6288" lon="-4.30104">
        <ele>11</ele>
        <time>2020-06-10T08:13:19Z</time>
      </trkpt>
      <trkpt lat="48.62878" lon="-4.30103">
        <ele>11</ele>
        <time>2020-06-10T08:13:20Z</time>
      </trkpt>
      <trkpt lat="48.62874" lon="-4.30101">
        <ele>11</ele>
        <time>2020-06-10T08:13:21Z</time>
      </trkpt>
      <trkpt lat="48.62872" lon="-4.301">
        <ele>11.1</ele>
        <time>2020-06-10T08:13:22Z</time>
      </trkpt>
      <trkpt lat="48.62869" lon="-4.30098">
        <ele>11.1</ele>
        <time>2020-06-10T08:13:23Z</time>
      </trkpt>
      <trkpt lat="48.62868" lon="-4.30098">
        <ele>11.1</ele>
        <time>2020-06-10T08:13:24Z</time>
      </trkpt>
      <trkpt lat="48.62866" lon="-4.30098">
        <ele>11.1</ele>
        <time>2020-06-10T08:13:25Z</time>
      </trkpt>
      <trkpt lat="48.62863" lon="-4.30096">
        <ele>11.2</ele>
        <time>2020-06-10T08:13:26Z</time>
      </trkpt>
      <trkpt lat="48.62862" lon="-4.30094">
        <ele>11.2</ele>
        <time>2020-06-10T08:13:27Z</time>
      </trkpt>
      <trkpt lat="48.62859" lon="-4.30093">
        <ele>11.2</ele>
        <time>2020-06-10T08:13:28Z</time>
      </trkpt>
      <trkpt lat="48.62858" lon="-4.30092">
        <ele>11.2</ele>
        <time>2020-06-10T08:13:29Z</time>
      </trkpt>
      <trkpt lat="48.62853" lon="-4.3009">
        <ele>11.2</ele>
        <time>2020-06-10T08:13:30Z</time>
      </trkpt>
      <trkpt lat="48.62851" lon="-4.30089">
        <ele>11.2</ele>
        <time>2020-06-10T08:13:31Z</time>
      </trkpt>
      <trkpt lat="48.62848" lon="-4.30085">
        <ele>11.2</ele>
        <time>2020-06-10T08:13:32Z</time>
      </trkpt>
      <trkpt lat="48.62846" lon="-4.30084">
        <ele>11.2</ele>
        <time>2020-06-10T08:13:33Z</time>
      </trkpt>
      <trkpt lat="48.62845" lon="-4.3008">
        <ele>11.2</ele>
        <time>2020-06-10T08:13:34Z</time>
      </trkpt>
      <trkpt lat="48.62843" lon="-4.30075">
        <ele>11.1</ele>
        <time>2020-06-10T08:13:35Z</time>
      </trkpt>
      <trkpt lat="48.62841" lon="-4.30072">
        <ele>11.1</ele>
        <time>2020-06-10T08:13:36Z</time>
      </trkpt>
      <trkpt lat="48.62839" lon="-4.30067">
        <ele>11.1</ele>
        <time>2020-06-10T08:13:37Z</time>
      </trkpt>
      <trkpt lat="48.62838" lon="-4.30065">
        <ele>11</ele>
        <time>2020-06-10T08:13:38Z</time>
      </trkpt>
      <trkpt lat="48.62837" lon="-4.30059">
        <ele>11</ele>
        <time>2020-06-10T08:13:39Z</time>
      </trkpt>
      <trkpt lat="48.62835" lon="-4.30054">
        <ele>10.9</ele>
        <time>2020-06-10T08:13:40Z</time>
      </trkpt>
      <trkpt lat="48.62834" lon="-4.30052">
        <ele>10.9</ele>
        <time>2020-06-10T08:13:41Z</time>
      </trkpt>
      <trkpt lat="48.62833" lon="-4.30047">
        <ele>10.8</ele>
        <time>2020-06-10T08:13:42Z</time>
      </trkpt>
      <trkpt lat="48.62831" lon="-4.30043">
        <ele>10.8</ele>
        <time>2020-06-10T08:13:43Z</time>
      </trkpt>
      <trkpt lat="48.6283" lon="-4.30036">
        <ele>10.7</ele>
        <time>2020-06-10T08:13:44Z</time>
      </trkpt>
      <trkpt lat="48.62829" lon="-4.30034">
        <ele>10.6</ele>
        <time>2020-06-10T08:13:45Z</time>
      </trkpt>
      <trkpt lat="48.62828" lon="-4.30029">
        <ele>10.6</ele>
        <time>2020-06-10T08:13:46Z</time>
      </trkpt>
      <trkpt lat="48.62827" lon="-4.30025">
        <ele>10.5</ele>
        <time>2020-06-10T08:13:47Z</time>
      </trkpt>
      <trkpt lat="48.62827" lon="-4.3002">
        <ele>10.5</ele>
        <time>2020-06-10T08:13:48Z</time>
      </trkpt>
      <trkpt lat="48.62826" lon="-4.30013">
        <ele>10.4</ele>
        <time>2020-06-10T08:13:49Z</time>
      </trkpt>
      <trkpt lat="48.62825" lon="-4.30008">
        <ele>10.4</ele>
        <time>2020-06-10T08:13:50Z</time>
      </trkpt>
      <trkpt lat="48.62824" lon="-4.3">
        <ele>10.4</ele>
        <time>2020-06-10T08:13:51Z</time>
      </trkpt>
      <trkpt lat="48.62823" lon="-4.29995">
        <ele>10.3</ele>
        <time>2020-06-10T08:13:52Z</time>
      </trkpt>
      <trkpt lat="48.62822" lon="-4.29989">
        <ele>10.3</ele>
        <time>2020-06-10T08:13:53Z</time>
      </trkpt>
      <trkpt lat="48.62821" lon="-4.29983">
        <ele>10.3</ele>
        <time>2020-06-10T08:13:54Z</time>
      </trkpt>
      <trkpt lat="48.6282" lon="-4.29977">
        <ele>10.2</ele>
        <time>2020-06-10T08:13:55Z</time>
      </trkpt>
      <trkpt lat="48.62818" lon="-4.2997">
        <ele>10.2</ele>
        <time>2020-06-10T08:13:56Z</time>
      </trkpt>
      <trkpt lat="48.62816" lon="-4.29965">
        <ele>10.2</ele>
        <time>2020-06-10T08:13:57Z</time>
      </trkpt>
      <trkpt lat="48.62814" lon="-4.29959">
        <ele>10.2</ele>
        <time>2020-06-10T08:13:58Z</time>
      </trkpt>
      <trkpt lat="48.62812" lon="-4.29953">
        <ele>10.2</ele>
        <time>2020-06-10T08:13:59Z</time>
      </trkpt>
      <trkpt lat="48.62811" lon="-4.29947">
        <ele>10.2</ele>
        <time>2020-06-10T08:14:00Z</time>
      </trkpt>
      <trkpt lat="48.62808" lon="-4.2994">
        <ele>10.3</ele>
        <time>2020-06-10T08:14:01Z</time>
      </trkpt>
      <trkpt lat="48.62805" lon="-4.29934">
        <ele>10.3</ele>
        <time>2020-06-10T08:14:02Z</time>
      </trkpt>
      <trkpt lat="48.62802" lon="-4.29929">
        <ele>10.3</ele>
        <time>2020-06-10T08:14:03Z</time>
      </trkpt>
      <trkpt lat="48.62799" lon="-4.29924">
        <ele>10.4</ele>
        <time>2020-06-10T08:14:04Z</time>
      </trkpt>
      <trkpt lat="48.62796" lon="-4.29918">
        <ele>10.5</ele>
        <time>2020-06-10T08:14:05Z</time>
      </trkpt>
      <trkpt lat="48.62793" lon="-4.29912">
        <ele>10.5</ele>
        <time>2020-06-10T08:14:06Z</time>
      </trkpt>
      <trkpt lat="48.62791" lon="-4.29906">
        <ele>10.6</ele>
        <time>2020-06-10T08:14:07Z</time>
      </trkpt>
      <trkpt lat="48.6279" lon="-4.299">
        <ele>10.6</ele>
        <time>2020-06-10T08:14:08Z</time>
      </trkpt>
      <trkpt lat="48.62788" lon="-4.29895">
        <ele>10.6</ele>
        <time>2020-06-10T08:14:09Z</time>
      </trkpt>
      <trkpt lat="48.62787" lon="-4.2989">
        <ele>10.7</ele>
        <time>2020-06-10T08:14:10Z</time>
      </trkpt>
      <trkpt lat="48.62784" lon="-4.29885">
        <ele>10.7</ele>
        <time>2020-06-10T08:14:11Z</time>
      </trkpt>
      <trkpt lat="48.62782" lon="-4.29881">
        <ele>10.7</ele>
        <time>2020-06-10T08:14:12Z</time>
      </trkpt>
      <trkpt lat="48.62779" lon="-4.29878">
        <ele>10.8</ele>
        <time>2020-06-10T08:14:13Z</time>
      </trkpt>
      <trkpt lat="48.62776" lon="-4.29876">
        <ele>10.8</ele>
        <time>2020-06-10T08:14:14Z</time>
      </trkpt>
      <trkpt lat="48.62773" lon="-4.29873">
        <ele>10.9</ele>
        <time>2020-06-10T08:14:15Z</time>
      </trkpt>
      <trkpt lat="48.6277" lon="-4.29871">
        <ele>10.9</ele>
        <time>2020-06-10T08:14:16Z</time>
      </trkpt>
      <trkpt lat="48.62767" lon="-4.29871">
        <ele>10.9</ele>
        <time>2020-06-10T08:14:17Z</time>
      </trkpt>
      <trkpt lat="48.62762" lon="-4.2987">
        <ele>11</ele>
        <time>2020-06-10T08:14:18Z</time>
      </trkpt>
      <trkpt lat="48.62758" lon="-4.2987">
        <ele>11.1</ele>
        <time>2020-06-10T08:14:19Z</time>
      </trkpt>
      <trkpt lat="48.62754" lon="-4.29869">
        <ele>11.1</ele>
        <time>2020-06-10T08:14:20Z</time>
      </trkpt>
      <trkpt lat="48.6275" lon="-4.29868">
        <ele>11.2</ele>
        <time>2020-06-10T08:14:21Z</time>
      </trkpt>
      <trkpt lat="48.62743" lon="-4.29869">
        <ele>11.4</ele>
        <time>2020-06-10T08:14:22Z</time>
      </trkpt>
      <trkpt lat="48.62738" lon="-4.29869">
        <ele>11.5</ele>
        <time>2020-06-10T08:14:23Z</time>
      </trkpt>
      <trkpt lat="48.62733" lon="-4.29868">
        <ele>11.6</ele>
        <time>2020-06-10T08:14:24Z</time>
      </trkpt>
      <trkpt lat="48.62728" lon="-4.29867">
        <ele>11.6</ele>
        <time>2020-06-10T08:14:25Z</time>
      </trkpt>
      <trkpt lat="48.62723" lon="-4.29866">
        <ele>11.7</ele>
        <time>2020-06-10T08:14:26Z</time>
      </trkpt>
      <trkpt lat="48.62718" lon="-4.29864">
        <ele>11.8</ele>
        <time>2020-06-10T08:14:27Z</time>
      </trkpt>
      <trkpt lat="48.62713" lon="-4.29863">
        <ele>11.9</ele>
        <time>2020-06-10T08:14:28Z</time>
      </trkpt>
      <trkpt lat="48.62708" lon="-4.29863">
        <ele>12</ele>
        <time>2020-06-10T08:14:29Z</time>
      </trkpt>
      <trkpt lat="48.62703" lon="-4.29861">
        <ele>12.1</ele>
        <time>2020-06-10T08:14:30Z</time>
      </trkpt>
      <trkpt lat="48.62699" lon="-4.29861">
        <ele>12.2</ele>
        <time>2020-06-10T08:14:31Z</time>
      </trkpt>
      <trkpt lat="48.62695" lon="-4.2986">
        <ele>12.3</ele>
        <time>2020-06-10T08:14:32Z</time>
      </trkpt>
      <trkpt lat="48.6269" lon="-4.29858">
        <ele>12.4</ele>
        <time>2020-06-10T08:14:33Z</time>
      </trkpt>
      <trkpt lat="48.62685" lon="-4.29856">
        <ele>12.5</ele>
        <time>2020-06-10T08:14:34Z</time>
      </trkpt>
      <trkpt lat="48.62681" lon="-4.29855">
        <ele>12.6</ele>
        <time>2020-06-10T08:14:35Z</time>
      </trkpt>
      <trkpt lat="48.62677" lon="-4.29854">
        <ele>12.7</ele>
        <time>2020-06-10T08:14:36Z</time>
      </trkpt>
      <trkpt lat="48.62673" lon="-4.29853">
        <ele>12.9</ele>
        <time>2020-06-10T08:14:37Z</time>
      </trkpt>
      <trkpt lat="48.62669" lon="-4.29852">
        <ele>13</ele>
        <time>2020-06-10T08:14:38Z</time>
      </trkpt>
      <trkpt lat="48.62665" lon="-4.29851">
        <ele>13.1</ele>
        <time>2020-06-10T08:14:39Z</time>
      </trkpt>
      <trkpt lat="48.62661" lon="-4.2985">
        <ele>13.2</ele>
        <time>2020-06-10T08:14:40Z</time>
      </trkpt>
      <trkpt lat="48.62657" lon="-4.2985">
        <ele>13.3</ele>
        <time>2020-06-10T08:14:41Z</time>
      </trkpt>
      <trkpt lat="48.62653" lon="-4.29849">
        <ele>13.4</ele>
        <time>2020-06-10T08:14:42Z</time>
      </trkpt>
      <trkpt lat="48.62649" lon="-4.29848">
        <ele>13.5</ele>
        <time>2020-06-10T08:14:43Z</time>
      </trkpt>
      <trkpt lat="48.62646" lon="-4.29847">
        <ele>13.6</ele>
        <time>2020-06-10T08:14:44Z</time>
      </trkpt>
      <trkpt lat="48.62642" lon="-4.29847">
        <ele>13.7</ele>
        <time>2020-06-10T08:14:45Z</time>
      </trkpt>
      <trkpt lat="48.62639" lon="-4.29846">
        <ele>13.8</ele>
        <time>2020-06-10T08:14:46Z</time>
      </trkpt>
      <trkpt lat="48.62636" lon="-4.29844">
        <ele>13.9</ele>
        <time>2020-06-10T08:14:47Z</time>
      </trkpt>
      <trkpt lat="48.62634" lon="-4.2984">
        <ele>14</ele>
        <time>2020-06-10T08:14:48Z</time>
      </trkpt>
      <trkpt lat="48.62631" lon="-4.29837">
        <ele>14.1</ele>
        <time>2020-06-10T08:14:49Z</time>
      </trkpt>
      <trkpt lat="48.62627" lon="-4.29833">
        <ele>14.5</ele>
        <time>2020-06-10T08:14:50Z</time>
      </trkpt>
      <trkpt lat="48.62624" lon="-4.29828">
        <ele>14.6</ele>
        <time>2020-06-10T08:14:51Z</time>
      </trkpt>
      <trkpt lat="48.62622" lon="-4.29823">
        <ele>14.7</ele>
        <time>2020-06-10T08:14:52Z</time>
      </trkpt>
      <trkpt lat="48.6262" lon="-4.29818">
        <ele>14.8</ele>
        <time>2020-06-10T08:14:53Z</time>
      </trkpt>
      <trkpt lat="48.62619" lon="-4.29813">
        <ele>14.9</ele>
        <time>2020-06-10T08:14:54Z</time>
      </trkpt>
      <trkpt lat="48.62618" lon="-4.29808">
        <ele>15</ele>
        <time>2020-06-10T08:14:55Z</time>
      </trkpt>
      <trkpt lat="48.62617" lon="-4.29803">
        <ele>15.1</ele>
        <time>2020-06-10T08:14:56Z</time>
      </trkpt>
      <trkpt lat="48.62616" lon="-4.29799">
        <ele>15.3</ele>
        <time>2020-06-10T08:14:57Z</time>
      </trkpt>
      <trkpt lat="48.62614" lon="-4.29795">
        <ele>15.5</ele>
        <time>2020-06-10T08:14:58Z</time>
      </trkpt>
      <trkpt lat="48.62612" lon="-4.2979">
        <ele>15.6</ele>
        <time>2020-06-10T08:14:59Z</time>
      </trkpt>
      <trkpt lat="48.6261" lon="-4.29786">
        <ele>15.8</ele>
        <time>2020-06-10T08:15:00Z</time>
      </trkpt>
      <trkpt lat="48.6261" lon="-4.29781">
        <ele>16</ele>
        <time>2020-06-10T08:15:01Z</time>
      </trkpt>
      <trkpt lat="48.62609" lon="-4.29776">
        <ele>16.1</ele>
        <time>2020-06-10T08:15:02Z</time>
      </trkpt>
      <trkpt lat="48.62609" lon="-4.29772">
        <ele>16.3</ele>
        <time>2020-06-10T08:15:03Z</time>
      </trkpt>
      <trkpt lat="48.62608" lon="-4.29767">
        <ele>16.5</ele>
        <time>2020-06-10T08:15:04Z</time>
      </trkpt>
      <trkpt lat="48.62605" lon="-4.29763">
        <ele>16.7</ele>
        <time>2020-06-10T08:15:05Z</time>
      </trkpt>
      <trkpt lat="48.62605" lon="-4.29761">
        <ele>16.8</ele>
        <time>2020-06-10T08:15:06Z</time>
      </trkpt>
      <trkpt lat="48.62604" lon="-4.29756">
        <ele>17</ele>
        <time>2020-06-10T08:15:07Z</time>
      </trkpt>
      <trkpt lat="48.62602" lon="-4.2975">
        <ele>17.3</ele>
        <time>2020-06-10T08:15:08Z</time>
      </trkpt>
      <trkpt lat="48.626" lon="-4.29744">
        <ele>17.6</ele>
        <time>2020-06-10T08:15:09Z</time>
      </trkpt>
      <trkpt lat="48.62599" lon="-4.29737">
        <ele>17.9</ele>
        <time>2020-06-10T08:15:10Z</time>
      </trkpt>
      <trkpt lat="48.62599" lon="-4.29731">
        <ele>18.2</ele>
        <time>2020-06-10T08:15:11Z</time>
      </trkpt>
      <trkpt lat="48.62598" lon="-4.29726">
        <ele>18.5</ele>
        <time>2020-06-10T08:15:12Z</time>
      </trkpt>
      <trkpt lat="48.62597" lon="-4.29721">
        <ele>18.8</ele>
        <time>2020-06-10T08:15:13Z</time>
      </trkpt>
      <trkpt lat="48.62595" lon="-4.29717">
        <ele>19</ele>
        <time>2020-06-10T08:15:14Z</time>
      </trkpt>
      <trkpt lat="48.62594" lon="-4.29712">
        <ele>19.3</ele>
        <time>2020-06-10T08:15:15Z</time>
      </trkpt>
      <trkpt lat="48.62594" lon="-4.29708">
        <ele>19.5</ele>
        <time>2020-06-10T08:15:16Z</time>
      </trkpt>
      <trkpt lat="48.62593" lon="-4.29702">
        <ele>19.7</ele>
        <time>2020-06-10T08:15:17Z</time>
      </trkpt>
      <trkpt lat="48.62592" lon="-4.29698">
        <ele>20</ele>
        <time>2020-06-10T08:15:18Z</time>
      </trkpt>
      <trkpt lat="48.62592" lon="-4.29693">
        <ele>20.2</ele>
        <time>2020-06-10T08:15:19Z</time>
      </trkpt>
      <trkpt lat="48.62591" lon="-4.29689">
        <ele>20.4</ele>
        <time>2020-06-10T08:15:20Z</time>
      </trkpt>
      <trkpt lat="48.6259" lon="-4.29685">
        <ele>20.7</ele>
        <time>2020-06-10T08:15:21Z</time>
      </trkpt>
      <trkpt lat="48.62589" lon="-4.29681">
        <ele>20.9</ele>
        <time>2020-06-10T08:15:22Z</time>
      </trkpt>
      <trkpt lat="48.62589" lon="-4.29676">
        <ele>21.1</ele>
        <time>2020-06-10T08:15:23Z</time>
      </trkpt>
      <trkpt lat="48.62589" lon="-4.29671">
        <ele>21.4</ele>
        <time>2020-06-10T08:15:24Z</time>
      </trkpt>
      <trkpt lat="48.62589" lon="-4.29665">
        <ele>21.6</ele>
        <time>2020-06-10T08:15:25Z</time>
      </trkpt>
      <trkpt lat="48.62589" lon="-4.29664">
        <ele>21.7</ele>
        <time>2020-06-10T08:15:26Z</time>
      </trkpt>
      <trkpt lat="48.62589" lon="-4.2966">
        <ele>21.9</ele>
        <time>2020-06-10T08:15:27Z</time>
      </trkpt>
      <trkpt lat="48.62589" lon="-4.29654">
        <ele>22.2</ele>
        <time>2020-06-10T08:15:28Z</time>
      </trkpt>
      <trkpt lat="48.62589" lon="-4.29652">
        <ele>22.3</ele>
        <time>2020-06-10T08:15:29Z</time>
      </trkpt>
      <trkpt lat="48.62588" lon="-4.29647">
        <ele>22.5</ele>
        <time>2020-06-10T08:15:30Z</time>
      </trkpt>
      <trkpt lat="48.62587" lon="-4.29642">
        <ele>22.7</ele>
        <time>2020-06-10T08:15:31Z</time>
      </trkpt>
      <trkpt lat="48.62587" lon="-4.2964">
        <ele>22.8</ele>
        <time>2020-06-10T08:15:32Z</time>
      </trkpt>
      <trkpt lat="48.62586" lon="-4.29636">
        <ele>23</ele>
        <time>2020-06-10T08:15:33Z</time>
      </trkpt>
      <trkpt lat="48.62586" lon="-4.29631">
        <ele>23.2</ele>
        <time>2020-06-10T08:15:34Z</time>
      </trkpt>
      <trkpt lat="48.62585" lon="-4.29625">
        <ele>23.4</ele>
        <time>2020-06-10T08:15:35Z</time>
      </trkpt>
      <trkpt lat="48.62585" lon="-4.29619">
        <ele>23.7</ele>
        <time>2020-06-10T08:15:36Z</time>
      </trkpt>
      <trkpt lat="48.62584" lon="-4.29614">
        <ele>23.9</ele>
        <time>2020-06-10T08:15:37Z</time>
      </trkpt>
      <trkpt lat="48.62584" lon="-4.29608">
        <ele>24</ele>
        <time>2020-06-10T08:15:38Z</time>
      </trkpt>
      <trkpt lat="48.62584" lon="-4.29602">
        <ele>24.2</ele>
        <time>2020-06-10T08:15:39Z</time>
      </trkpt>
      <trkpt lat="48.62584" lon="-4.29596">
        <ele>24.4</ele>
        <time>2020-06-10T08:15:40Z</time>
      </trkpt>
      <trkpt lat="48.62583" lon="-4.29591">
        <ele>24.6</ele>
        <time>2020-06-10T08:15:41Z</time>
      </trkpt>
      <trkpt lat="48.62582" lon="-4.29586">
        <ele>24.8</ele>
        <time>2020-06-10T08:15:42Z</time>
      </trkpt>
      <trkpt lat="48.62581" lon="-4.2958">
        <ele>25.1</ele>
        <time>2020-06-10T08:15:43Z</time>
      </trkpt>
      <trkpt lat="48.6258" lon="-4.29573">
        <ele>25.3</ele>
        <time>2020-06-10T08:15:44Z</time>
      </trkpt>
      <trkpt lat="48.62579" lon="-4.29567">
        <ele>25.5</ele>
        <time>2020-06-10T08:15:45Z</time>
      </trkpt>
      <trkpt lat="48.62578" lon="-4.2956">
        <ele>25.7</ele>
        <time>2020-06-10T08:15:46Z</time>
      </trkpt>
      <trkpt lat="48.62578" lon="-4.29553">
        <ele>25.9</ele>
        <time>2020-06-10T08:15:47Z</time>
      </trkpt>
      <trkpt lat="48.62577" lon="-4.29547">
        <ele>26.1</ele>
        <time>2020-06-10T08:15:48Z</time>
      </trkpt>
      <trkpt lat="48.62577" lon="-4.29541">
        <ele>26.3</ele>
        <time>2020-06-10T08:15:49Z</time>
      </trkpt>
      <trkpt lat="48.62576" lon="-4.29535">
        <ele>26.4</ele>
        <time>2020-06-10T08:15:50Z</time>
      </trkpt>
      <trkpt lat="48.62576" lon="-4.2953">
        <ele>26.5</ele>
        <time>2020-06-10T08:15:51Z</time>
      </trkpt>
      <trkpt lat="48.62576" lon="-4.29524">
        <ele>26.7</ele>
        <time>2020-06-10T08:15:52Z</time>
      </trkpt>
      <trkpt lat="48.62575" lon="-4.29517">
        <ele>26.9</ele>
        <time>2020-06-10T08:15:53Z</time>
      </trkpt>
      <trkpt lat="48.62573" lon="-4.29511">
        <ele>27</ele>
        <time>2020-06-10T08:15:54Z</time>
      </trkpt>
      <trkpt lat="48.62572" lon="-4.29505">
        <ele>27.2</ele>
        <time>2020-06-10T08:15:55Z</time>
      </trkpt>
      <trkpt lat="48.62571" lon="-4.29498">
        <ele>27.3</ele>
        <time>2020-06-10T08:15:56Z</time>
      </trkpt>
      <trkpt lat="48.62571" lon="-4.29491">
        <ele>27.5</ele>
        <time>2020-06-10T08:15:57Z</time>
      </trkpt>
      <trkpt lat="48.6257" lon="-4.29484">
        <ele>27.6</ele>
        <time>2020-06-10T08:15:58Z</time>
      </trkpt>
      <trkpt lat="48.62569" lon="-4.29478">
        <ele>27.8</ele>
        <time>2020-06-10T08:15:59Z</time>
      </trkpt>
      <trkpt lat="48.62568" lon="-4.29472">
        <ele>27.9</ele>
        <time>2020-06-10T08:16:00Z</time>
      </trkpt>
      <trkpt lat="48.62567" lon="-4.29467">
        <ele>28</ele>
        <time>2020-06-10T08:16:01Z</time>
      </trkpt>
      <trkpt lat="48.62567" lon="-4.29462">
        <ele>28.1</ele>
        <time>2020-06-10T08:16:02Z</time>
      </trkpt>
      <trkpt lat="48.62566" lon="-4.29456">
        <ele>28.3</ele>
        <time>2020-06-10T08:16:03Z</time>
      </trkpt>
      <trkpt lat="48.62565" lon="-4.29455">
        <ele>28.3</ele>
        <time>2020-06-10T08:16:04Z</time>
      </trkpt>
      <trkpt lat="48.62564" lon="-4.29452">
        <ele>28.3</ele>
        <time>2020-06-10T08:16:05Z</time>
      </trkpt>
      <trkpt lat="48.62564" lon="-4.2945">
        <ele>28.4</ele>
        <time>2020-06-10T08:16:06Z</time>
      </trkpt>
      <trkpt lat="48.62563" lon="-4.29446">
        <ele>28.5</ele>
        <time>2020-06-10T08:16:07Z</time>
      </trkpt>
      <trkpt lat="48.62563" lon="-4.29444">
        <ele>28.5</ele>
        <time>2020-06-10T08:16:08Z</time>
      </trkpt>
      <trkpt lat="48.62562" lon="-4.2944">
        <ele>28.6</ele>
        <time>2020-06-10T08:16:09Z</time>
      </trkpt>
      <trkpt lat="48.62561" lon="-4.29435">
        <ele>28.7</ele>
        <time>2020-06-10T08:16:10Z</time>
      </trkpt>
      <trkpt lat="48.62561" lon="-4.29433">
        <ele>28.7</ele>
        <time>2020-06-10T08:16:11Z</time>
      </trkpt>
      <trkpt lat="48.62561" lon="-4.2943">
        <ele>28.7</ele>
        <time>2020-06-10T08:16:12Z</time>
      </trkpt>
      <trkpt lat="48.6256" lon="-4.29428">
        <ele>28.8</ele>
        <time>2020-06-10T08:16:13Z</time>
      </trkpt>
      <trkpt lat="48.6256" lon="-4.29425">
        <ele>28.8</ele>
        <time>2020-06-10T08:16:14Z</time>
      </trkpt>
      <trkpt lat="48.6256" lon="-4.29423">
        <ele>28.8</ele>
        <time>2020-06-10T08:16:15Z</time>
      </trkpt>
      <trkpt lat="48.6256" lon="-4.29419">
        <ele>28.8</ele>
        <time>2020-06-10T08:16:16Z</time>
      </trkpt>
      <trkpt lat="48.6256" lon="-4.29417">
        <ele>28.8</ele>
        <time>2020-06-10T08:16:17Z</time>
      </trkpt>
      <trkpt lat="48.62559" lon="-4.29415">
        <ele>28.8</ele>
        <time>2020-06-10T08:16:18Z</time>
      </trkpt>
      <trkpt lat="48.62559" lon="-4.29412">
        <ele>28.8</ele>
        <time>2020-06-10T08:16:19Z</time>
      </trkpt>
      <trkpt lat="48.62558" lon="-4.2941">
        <ele>28.8</ele>
        <time>2020-06-10T08:16:20Z</time>
      </trkpt>
      <trkpt lat="48.62558" lon="-4.29407">
        <ele>28.8</ele>
        <time>2020-06-10T08:16:21Z</time>
      </trkpt>
      <trkpt lat="48.62558" lon="-4.29402">
        <ele>28.8</ele>
        <time>2020-06-10T08:16:22Z</time>
      </trkpt>
      <trkpt lat="48.62558" lon="-4.294">
        <ele>28.8</ele>
        <time>2020-06-10T08:16:23Z</time>
      </trkpt>
      <trkpt lat="48.62558" lon="-4.29395">
        <ele>28.8</ele>
        <time>2020-06-10T08:16:24Z</time>
      </trkpt>
      <trkpt lat="48.62558" lon="-4.29393">
        <ele>28.8</ele>
        <time>2020-06-10T08:16:25Z</time>
      </trkpt>
      <trkpt lat="48.62558" lon="-4.29387">
        <ele>28.8</ele>
        <time>2020-06-10T08:16:26Z</time>
      </trkpt>
      <trkpt lat="48.62557" lon="-4.29385">
        <ele>28.8</ele>
        <time>2020-06-10T08:16:27Z</time>
      </trkpt>
      <trkpt lat="48.62557" lon="-4.2938">
        <ele>28.7</ele>
        <time>2020-06-10T08:16:28Z</time>
      </trkpt>
      <trkpt lat="48.62557" lon="-4.29378">
        <ele>28.7</ele>
        <time>2020-06-10T08:16:29Z</time>
      </trkpt>
      <trkpt lat="48.62557" lon="-4.29372">
        <ele>28.7</ele>
        <time>2020-06-10T08:16:30Z</time>
      </trkpt>
      <trkpt lat="48.62557" lon="-4.2937">
        <ele>28.7</ele>
        <time>2020-06-10T08:16:31Z</time>
      </trkpt>
      <trkpt lat="48.62557" lon="-4.29364">
        <ele>28.6</ele>
        <time>2020-06-10T08:16:32Z</time>
      </trkpt>
      <trkpt lat="48.62558" lon="-4.29358">
        <ele>28.5</ele>
        <time>2020-06-10T08:16:33Z</time>
      </trkpt>
      <trkpt lat="48.62558" lon="-4.29351">
        <ele>28.4</ele>
        <time>2020-06-10T08:16:34Z</time>
      </trkpt>
      <trkpt lat="48.62558" lon="-4.29345">
        <ele>28.4</ele>
        <time>2020-06-10T08:16:35Z</time>
      </trkpt>
      <trkpt lat="48.62558" lon="-4.29338">
        <ele>28.3</ele>
        <time>2020-06-10T08:16:36Z</time>
      </trkpt>
      <trkpt lat="48.62559" lon="-4.29331">
        <ele>28.2</ele>
        <time>2020-06-10T08:16:37Z</time>
      </trkpt>
      <trkpt lat="48.62559" lon="-4.29326">
        <ele>28.2</ele>
        <time>2020-06-10T08:16:38Z</time>
      </trkpt>
      <trkpt lat="48.62559" lon="-4.29319">
        <ele>28.1</ele>
        <time>2020-06-10T08:16:39Z</time>
      </trkpt>
      <trkpt lat="48.62559" lon="-4.29313">
        <ele>28</ele>
        <time>2020-06-10T08:16:40Z</time>
      </trkpt>
      <trkpt lat="48.62559" lon="-4.29306">
        <ele>28</ele>
        <time>2020-06-10T08:16:41Z</time>
      </trkpt>
      <trkpt lat="48.62559" lon="-4.293">
        <ele>27.9</ele>
        <time>2020-06-10T08:16:42Z</time>
      </trkpt>
      <trkpt lat="48.62559" lon="-4.29293">
        <ele>27.9</ele>
        <time>2020-06-10T08:16:43Z</time>
      </trkpt>
      <trkpt lat="48.6256" lon="-4.29285">
        <ele>27.8</ele>
        <time>2020-06-10T08:16:44Z</time>
      </trkpt>
      <trkpt lat="48.6256" lon="-4.29278">
        <ele>27.8</ele>
        <time>2020-06-10T08:16:45Z</time>
      </trkpt>
      <trkpt lat="48.6256" lon="-4.2927">
        <ele>27.8</ele>
        <time>2020-06-10T08:16:46Z</time>
      </trkpt>
      <trkpt lat="48.6256" lon="-4.29264">
        <ele>27.8</ele>
        <time>2020-06-10T08:16:47Z</time>
      </trkpt>
      <trkpt lat="48.6256" lon="-4.29257">
        <ele>27.8</ele>
        <time>2020-06-10T08:16:48Z</time>
      </trkpt>
      <trkpt lat="48.6256" lon="-4.2925">
        <ele>27.8</ele>
        <time>2020-06-10T08:16:49Z</time>
      </trkpt>
      <trkpt lat="48.6256" lon="-4.29244">
        <ele>27.8</ele>
        <time>2020-06-10T08:16:50Z</time>
      </trkpt>
      <trkpt lat="48.62561" lon="-4.29238">
        <ele>27.8</ele>
        <time>2020-06-10T08:16:51Z</time>
      </trkpt>
      <trkpt lat="48.62561" lon="-4.29232">
        <ele>27.8</ele>
        <time>2020-06-10T08:16:52Z</time>
      </trkpt>
      <trkpt lat="48.62562" lon="-4.29227">
        <ele>27.9</ele>
        <time>2020-06-10T08:16:53Z</time>
      </trkpt>
      <trkpt lat="48.62562" lon="-4.29222">
        <ele>27.9</ele>
        <time>2020-06-10T08:16:54Z</time>
      </trkpt>
      <trkpt lat="48.62562" lon="-4.29216">
        <ele>28</ele>
        <time>2020-06-10T08:16:55Z</time>
      </trkpt>
      <trkpt lat="48.62562" lon="-4.29211">
        <ele>28</ele>
        <time>2020-06-10T08:16:56Z</time>
      </trkpt>
      <trkpt lat="48.62562" lon="-4.29205">
        <ele>28.1</ele>
        <time>2020-06-10T08:16:57Z</time>
      </trkpt>
      <trkpt lat="48.62562" lon="-4.29199">
        <ele>28.1</ele>
        <time>2020-06-10T08:16:58Z</time>
      </trkpt>
      <trkpt lat="48.62561" lon="-4.29193">
        <ele>28.2</ele>
        <time>2020-06-10T08:16:59Z</time>
      </trkpt>
      <trkpt lat="48.62561" lon="-4.29186">
        <ele>28.2</ele>
        <time>2020-06-10T08:17:00Z</time>
      </trkpt>
      <trkpt lat="48.6256" lon="-4.29179">
        <ele>28.3</ele>
        <time>2020-06-10T08:17:01Z</time>
      </trkpt>
      <trkpt lat="48.6256" lon="-4.29173">
        <ele>28.3</ele>
        <time>2020-06-10T08:17:02Z</time>
      </trkpt>
      <trkpt lat="48.62559" lon="-4.29167">
        <ele>28.3</ele>
        <time>2020-06-10T08:17:03Z</time>
      </trkpt>
      <trkpt lat="48.62558" lon="-4.29161">
        <ele>28.2</ele>
        <time>2020-06-10T08:17:04Z</time>
      </trkpt>
      <trkpt lat="48.62558" lon="-4.29156">
        <ele>28.2</ele>
        <time>2020-06-10T08:17:05Z</time>
      </trkpt>
      <trkpt lat="48.62557" lon="-4.29149">
        <ele>28.1</ele>
        <time>2020-06-10T08:17:06Z</time>
      </trkpt>
      <trkpt lat="48.62555" lon="-4.29146">
        <ele>28</ele>
        <time>2020-06-10T08:17:07Z</time>
      </trkpt>
      <trkpt lat="48.62555" lon="-4.2914">
        <ele>27.9</ele>
        <time>2020-06-10T08:17:08Z</time>
      </trkpt>
      <trkpt lat="48.62554" lon="-4.29138">
        <ele>27.8</ele>
        <time>2020-06-10T08:17:09Z</time>
      </trkpt>
      <trkpt lat="48.62555" lon="-4.29133">
        <ele>27.7</ele>
        <time>2020-06-10T08:17:10Z</time>
      </trkpt>
      <trkpt lat="48.62555" lon="-4.29128">
        <ele>27.6</ele>
        <time>2020-06-10T08:17:11Z</time>
      </trkpt>
      <trkpt lat="48.62555" lon="-4.29123">
        <ele>27.4</ele>
        <time>2020-06-10T08:17:12Z</time>
      </trkpt>
      <trkpt lat="48.62555" lon="-4.29118">
        <ele>27.2</ele>
        <time>2020-06-10T08:17:13Z</time>
      </trkpt>
      <trkpt lat="48.62555" lon="-4.29112">
        <ele>26.9</ele>
        <time>2020-06-10T08:17:14Z</time>
      </trkpt>
      <trkpt lat="48.62555" lon="-4.29104">
        <ele>26.6</ele>
        <time>2020-06-10T08:17:15Z</time>
      </trkpt>
      <trkpt lat="48.62555" lon="-4.29094">
        <ele>26.1</ele>
        <time>2020-06-10T08:17:16Z</time>
      </trkpt>
      <trkpt lat="48.62554" lon="-4.29084">
        <ele>25.7</ele>
        <time>2020-06-10T08:17:17Z</time>
      </trkpt>
      <trkpt lat="48.62552" lon="-4.29075">
        <ele>25.2</ele>
        <time>2020-06-10T08:17:18Z</time>
      </trkpt>
      <trkpt lat="48.62548" lon="-4.29066">
        <ele>24.8</ele>
        <time>2020-06-10T08:17:19Z</time>
      </trkpt>
      <trkpt lat="48.62543" lon="-4.29058">
        <ele>24.2</ele>
        <time>2020-06-10T08:17:20Z</time>
      </trkpt>
      <trkpt lat="48.62537" lon="-4.29048">
        <ele>23.5</ele>
        <time>2020-06-10T08:17:21Z</time>
      </trkpt>
      <trkpt lat="48.62531" lon="-4.29038">
        <ele>22.9</ele>
        <time>2020-06-10T08:17:22Z</time>
      </trkpt>
      <trkpt lat="48.62524" lon="-4.29028">
        <ele>22.1</ele>
        <time>2020-06-10T08:17:23Z</time>
      </trkpt>
      <trkpt lat="48.62519" lon="-4.29015">
        <ele>21.3</ele>
        <time>2020-06-10T08:17:24Z</time>
      </trkpt>
      <trkpt lat="48.62514" lon="-4.29001">
        <ele>20.5</ele>
        <time>2020-06-10T08:17:25Z</time>
      </trkpt>
      <trkpt lat="48.62509" lon="-4.28988">
        <ele>19.7</ele>
        <time>2020-06-10T08:17:26Z</time>
      </trkpt>
      <trkpt lat="48.62505" lon="-4.28975">
        <ele>18.8</ele>
        <time>2020-06-10T08:17:27Z</time>
      </trkpt>
      <trkpt lat="48.62501" lon="-4.28961">
        <ele>17.9</ele>
        <time>2020-06-10T08:17:28Z</time>
      </trkpt>
      <trkpt lat="48.62496" lon="-4.28947">
        <ele>17.1</ele>
        <time>2020-06-10T08:17:29Z</time>
      </trkpt>
      <trkpt lat="48.62492" lon="-4.28933">
        <ele>16.3</ele>
        <time>2020-06-10T08:17:30Z</time>
      </trkpt>
      <trkpt lat="48.62487" lon="-4.28919">
        <ele>15.5</ele>
        <time>2020-06-10T08:17:31Z</time>
      </trkpt>
      <trkpt lat="48.62483" lon="-4.28905">
        <ele>14.8</ele>
        <time>2020-06-10T08:17:32Z</time>
      </trkpt>
      <trkpt lat="48.62479" lon="-4.2889">
        <ele>14.1</ele>
        <time>2020-06-10T08:17:33Z</time>
      </trkpt>
      <trkpt lat="48.62476" lon="-4.28875">
        <ele>13.4</ele>
        <time>2020-06-10T08:17:34Z</time>
      </trkpt>
      <trkpt lat="48.62473" lon="-4.2886">
        <ele>12.9</ele>
        <time>2020-06-10T08:17:35Z</time>
      </trkpt>
      <trkpt lat="48.62472" lon="-4.28845">
        <ele>12.3</ele>
        <time>2020-06-10T08:17:36Z</time>
      </trkpt>
      <trkpt lat="48.62471" lon="-4.2883">
        <ele>11.8</ele>
        <time>2020-06-10T08:17:37Z</time>
      </trkpt>
      <trkpt lat="48.62471" lon="-4.28815">
        <ele>11.3</ele>
        <time>2020-06-10T08:17:38Z</time>
      </trkpt>
      <trkpt lat="48.62471" lon="-4.288">
        <ele>10.9</ele>
        <time>2020-06-10T08:17:39Z</time>
      </trkpt>
      <trkpt lat="48.6247" lon="-4.28785">
        <ele>10.5</ele>
        <time>2020-06-10T08:17:40Z</time>
      </trkpt>
      <trkpt lat="48.6247" lon="-4.2877">
        <ele>10.2</ele>
        <time>2020-06-10T08:17:41Z</time>
      </trkpt>
      <trkpt lat="48.62468" lon="-4.28756">
        <ele>10</ele>
        <time>2020-06-10T08:17:42Z</time>
      </trkpt>
      <trkpt lat="48.62466" lon="-4.28741">
        <ele>9.7</ele>
        <time>2020-06-10T08:17:43Z</time>
      </trkpt>
      <trkpt lat="48.62463" lon="-4.28728">
        <ele>9.4</ele>
        <time>2020-06-10T08:17:44Z</time>
      </trkpt>
      <trkpt lat="48.62459" lon="-4.28715">
        <ele>9.2</ele>
        <time>2020-06-10T08:17:45Z</time>
      </trkpt>
      <trkpt lat="48.62453" lon="-4.28704">
        <ele>9</ele>
        <time>2020-06-10T08:17:46Z</time>
      </trkpt>
      <trkpt lat="48.62446" lon="-4.28696">
        <ele>8.7</ele>
        <time>2020-06-10T08:17:47Z</time>
      </trkpt>
      <trkpt lat="48.62439" lon="-4.28688">
        <ele>8.6</ele>
        <time>2020-06-10T08:17:48Z</time>
      </trkpt>
      <trkpt lat="48.62433" lon="-4.28679">
        <ele>8.4</ele>
        <time>2020-06-10T08:17:49Z</time>
      </trkpt>
      <trkpt lat="48.62427" lon="-4.28669">
        <ele>8.3</ele>
        <time>2020-06-10T08:17:50Z</time>
      </trkpt>
      <trkpt lat="48.62424" lon="-4.28658">
        <ele>8.3</ele>
        <time>2020-06-10T08:17:51Z</time>
      </trkpt>
      <trkpt lat="48.62421" lon="-4.28647">
        <ele>8.3</ele>
        <time>2020-06-10T08:17:52Z</time>
      </trkpt>
      <trkpt lat="48.62419" lon="-4.28636">
        <ele>8.3</ele>
        <time>2020-06-10T08:17:53Z</time>
      </trkpt>
      <trkpt lat="48.62417" lon="-4.28626">
        <ele>8.3</ele>
        <time>2020-06-10T08:17:54Z</time>
      </trkpt>
      <trkpt lat="48.62414" lon="-4.28615">
        <ele>8.2</ele>
        <time>2020-06-10T08:17:55Z</time>
      </trkpt>
      <trkpt lat="48.62413" lon="-4.28605">
        <ele>8.2</ele>
        <time>2020-06-10T08:17:56Z</time>
      </trkpt>
      <trkpt lat="48.6241" lon="-4.28596">
        <ele>8.2</ele>
        <time>2020-06-10T08:17:57Z</time>
      </trkpt>
      <trkpt lat="48.62408" lon="-4.28587">
        <ele>8.2</ele>
        <time>2020-06-10T08:17:58Z</time>
      </trkpt>
      <trkpt lat="48.62405" lon="-4.28578">
        <ele>8.2</ele>
        <time>2020-06-10T08:17:59Z</time>
      </trkpt>
      <trkpt lat="48.62402" lon="-4.2857">
        <ele>8.2</ele>
        <time>2020-06-10T08:18:00Z</time>
      </trkpt>
      <trkpt lat="48.62398" lon="-4.28563">
        <ele>8.2</ele>
        <time>2020-06-10T08:18:01Z</time>
      </trkpt>
      <trkpt lat="48.62394" lon="-4.28555">
        <ele>8.2</ele>
        <time>2020-06-10T08:18:02Z</time>
      </trkpt>
      <trkpt lat="48.62391" lon="-4.28549">
        <ele>8.2</ele>
        <time>2020-06-10T08:18:03Z</time>
      </trkpt>
      <trkpt lat="48.62386" lon="-4.28542">
        <ele>8.2</ele>
        <time>2020-06-10T08:18:04Z</time>
      </trkpt>
      <trkpt lat="48.62382" lon="-4.28536">
        <ele>8.3</ele>
        <time>2020-06-10T08:18:05Z</time>
      </trkpt>
      <trkpt lat="48.62378" lon="-4.28531">
        <ele>8.4</ele>
        <time>2020-06-10T08:18:06Z</time>
      </trkpt>
      <trkpt lat="48.62374" lon="-4.28526">
        <ele>8.5</ele>
        <time>2020-06-10T08:18:07Z</time>
      </trkpt>
      <trkpt lat="48.6237" lon="-4.28521">
        <ele>8.5</ele>
        <time>2020-06-10T08:18:08Z</time>
      </trkpt>
      <trkpt lat="48.62365" lon="-4.28517">
        <ele>8.6</ele>
        <time>2020-06-10T08:18:09Z</time>
      </trkpt>
      <trkpt lat="48.62361" lon="-4.28512">
        <ele>8.7</ele>
        <time>2020-06-10T08:18:10Z</time>
      </trkpt>
      <trkpt lat="48.62358" lon="-4.28507">
        <ele>8.8</ele>
        <time>2020-06-10T08:18:11Z</time>
      </trkpt>
      <trkpt lat="48.62355" lon="-4.28502">
        <ele>8.8</ele>
        <time>2020-06-10T08:18:12Z</time>
      </trkpt>
      <trkpt lat="48.62353" lon="-4.28495">
        <ele>8.8</ele>
        <time>2020-06-10T08:18:13Z</time>
      </trkpt>
      <trkpt lat="48.62352" lon="-4.28488">
        <ele>8.8</ele>
        <time>2020-06-10T08:18:14Z</time>
      </trkpt>
      <trkpt lat="48.62351" lon="-4.28481">
        <ele>8.8</ele>
        <time>2020-06-10T08:18:15Z</time>
      </trkpt>
      <trkpt lat="48.6235" lon="-4.28475">
        <ele>8.8</ele>
        <time>2020-06-10T08:18:16Z</time>
      </trkpt>
      <trkpt lat="48.62349" lon="-4.28468">
        <ele>8.8</ele>
        <time>2020-06-10T08:18:17Z</time>
      </trkpt>
      <trkpt lat="48.62348" lon="-4.28461">
        <ele>8.9</ele>
        <time>2020-06-10T08:18:18Z</time>
      </trkpt>
      <trkpt lat="48.62346" lon="-4.28455">
        <ele>8.8</ele>
        <time>2020-06-10T08:18:19Z</time>
      </trkpt>
      <trkpt lat="48.62345" lon="-4.28449">
        <ele>8.8</ele>
        <time>2020-06-10T08:18:20Z</time>
      </trkpt>
      <trkpt lat="48.62344" lon="-4.28442">
        <ele>8.8</ele>
        <time>2020-06-10T08:18:21Z</time>
      </trkpt>
      <trkpt lat="48.62342" lon="-4.28436">
        <ele>8.8</ele>
        <time>2020-06-10T08:18:22Z</time>
      </trkpt>
      <trkpt lat="48.6234" lon="-4.28431">
        <ele>8.8</ele>
        <time>2020-06-10T08:18:23Z</time>
      </trkpt>
      <trkpt lat="48.62338" lon="-4.28425">
        <ele>8.8</ele>
        <time>2020-06-10T08:18:24Z</time>
      </trkpt>
      <trkpt lat="48.62337" lon="-4.2842">
        <ele>8.7</ele>
        <time>2020-06-10T08:18:25Z</time>
      </trkpt>
      <trkpt lat="48.62336" lon="-4.28414">
        <ele>8.7</ele>
        <time>2020-06-10T08:18:26Z</time>
      </trkpt>
      <trkpt lat="48.62334" lon="-4.28409">
        <ele>8.7</ele>
        <time>2020-06-10T08:18:27Z</time>
      </trkpt>
      <trkpt lat="48.62332" lon="-4.28404">
        <ele>8.7</ele>
        <time>2020-06-10T08:18:28Z</time>
      </trkpt>
      <trkpt lat="48.62331" lon="-4.28399">
        <ele>8.7</ele>
        <time>2020-06-10T08:18:29Z</time>
      </trkpt>
      <trkpt lat="48.6233" lon="-4.28394">
        <ele>8.7</ele>
        <time>2020-06-10T08:18:30Z</time>
      </trkpt>
      <trkpt lat="48.62329" lon="-4.28389">
        <ele>8.7</ele>
        <time>2020-06-10T08:18:31Z</time>
      </trkpt>
      <trkpt lat="48.62327" lon="-4.28383">
        <ele>8.6</ele>
        <time>2020-06-10T08:18:32Z</time>
      </trkpt>
      <trkpt lat="48.62326" lon="-4.28379">
        <ele>8.6</ele>
        <time>2020-06-10T08:18:33Z</time>
      </trkpt>
      <trkpt lat="48.62326" lon="-4.28373">
        <ele>8.5</ele>
        <time>2020-06-10T08:18:34Z</time>
      </trkpt>
      <trkpt lat="48.62326" lon="-4.28367">
        <ele>8.5</ele>
        <time>2020-06-10T08:18:35Z</time>
      </trkpt>
      <trkpt lat="48.62327" lon="-4.28361">
        <ele>8.4</ele>
        <time>2020-06-10T08:18:36Z</time>
      </trkpt>
      <trkpt lat="48.62327" lon="-4.28354">
        <ele>8.3</ele>
        <time>2020-06-10T08:18:37Z</time>
      </trkpt>
      <trkpt lat="48.62327" lon="-4.28347">
        <ele>8.2</ele>
        <time>2020-06-10T08:18:38Z</time>
      </trkpt>
      <trkpt lat="48.62327" lon="-4.2834">
        <ele>8</ele>
        <time>2020-06-10T08:18:39Z</time>
      </trkpt>
      <trkpt lat="48.62327" lon="-4.28332">
        <ele>7.9</ele>
        <time>2020-06-10T08:18:40Z</time>
      </trkpt>
      <trkpt lat="48.62326" lon="-4.28324">
        <ele>7.7</ele>
        <time>2020-06-10T08:18:41Z</time>
      </trkpt>
      <trkpt lat="48.62325" lon="-4.28316">
        <ele>7.6</ele>
        <time>2020-06-10T08:18:42Z</time>
      </trkpt>
      <trkpt lat="48.62326" lon="-4.28308">
        <ele>7.5</ele>
        <time>2020-06-10T08:18:43Z</time>
      </trkpt>
      <trkpt lat="48.62326" lon="-4.283">
        <ele>7.4</ele>
        <time>2020-06-10T08:18:44Z</time>
      </trkpt>
      <trkpt lat="48.62326" lon="-4.28291">
        <ele>7.3</ele>
        <time>2020-06-10T08:18:45Z</time>
      </trkpt>
      <trkpt lat="48.62326" lon="-4.28282">
        <ele>7.2</ele>
        <time>2020-06-10T08:18:46Z</time>
      </trkpt>
      <trkpt lat="48.62328" lon="-4.28274">
        <ele>7.1</ele>
        <time>2020-06-10T08:18:47Z</time>
      </trkpt>
      <trkpt lat="48.62328" lon="-4.28266">
        <ele>7</ele>
        <time>2020-06-10T08:18:48Z</time>
      </trkpt>
      <trkpt lat="48.62329" lon="-4.28257">
        <ele>6.9</ele>
        <time>2020-06-10T08:18:49Z</time>
      </trkpt>
      <trkpt lat="48.6233" lon="-4.28248">
        <ele>6.9</ele>
        <time>2020-06-10T08:18:50Z</time>
      </trkpt>
      <trkpt lat="48.62331" lon="-4.28239">
        <ele>6.8</ele>
        <time>2020-06-10T08:18:51Z</time>
      </trkpt>
      <trkpt lat="48.62331" lon="-4.28229">
        <ele>6.7</ele>
        <time>2020-06-10T08:18:52Z</time>
      </trkpt>
      <trkpt lat="48.62332" lon="-4.28219">
        <ele>6.6</ele>
        <time>2020-06-10T08:18:53Z</time>
      </trkpt>
      <trkpt lat="48.62332" lon="-4.28209">
        <ele>6.6</ele>
        <time>2020-06-10T08:18:54Z</time>
      </trkpt>
      <trkpt lat="48.62333" lon="-4.282">
        <ele>6.6</ele>
        <time>2020-06-10T08:18:55Z</time>
      </trkpt>
      <trkpt lat="48.62333" lon="-4.2819">
        <ele>6.6</ele>
        <time>2020-06-10T08:18:56Z</time>
      </trkpt>
      <trkpt lat="48.62333" lon="-4.28181">
        <ele>6.6</ele>
        <time>2020-06-10T08:18:57Z</time>
      </trkpt>
      <trkpt lat="48.62332" lon="-4.28171">
        <ele>6.6</ele>
        <time>2020-06-10T08:18:58Z</time>
      </trkpt>
      <trkpt lat="48.62331" lon="-4.28162">
        <ele>6.6</ele>
        <time>2020-06-10T08:18:59Z</time>
      </trkpt>
      <trkpt lat="48.62331" lon="-4.28153">
        <ele>6.7</ele>
        <time>2020-06-10T08:19:00Z</time>
      </trkpt>
      <trkpt lat="48.6233" lon="-4.28145">
        <ele>6.7</ele>
        <time>2020-06-10T08:19:01Z</time>
      </trkpt>
      <trkpt lat="48.62329" lon="-4.28136">
        <ele>6.8</ele>
        <time>2020-06-10T08:19:02Z</time>
      </trkpt>
      <trkpt lat="48.62328" lon="-4.28128">
        <ele>6.9</ele>
        <time>2020-06-10T08:19:03Z</time>
      </trkpt>
      <trkpt lat="48.62327" lon="-4.28119">
        <ele>6.9</ele>
        <time>2020-06-10T08:19:04Z</time>
      </trkpt>
      <trkpt lat="48.62327" lon="-4.2811">
        <ele>7</ele>
        <time>2020-06-10T08:19:05Z</time>
      </trkpt>
      <trkpt lat="48.62327" lon="-4.28101">
        <ele>7</ele>
        <time>2020-06-10T08:19:06Z</time>
      </trkpt>
      <trkpt lat="48.62327" lon="-4.28093">
        <ele>7</ele>
        <time>2020-06-10T08:19:07Z</time>
      </trkpt>
      <trkpt lat="48.62326" lon="-4.28084">
        <ele>7</ele>
        <time>2020-06-10T08:19:08Z</time>
      </trkpt>
      <trkpt lat="48.62325" lon="-4.28075">
        <ele>7.1</ele>
        <time>2020-06-10T08:19:09Z</time>
      </trkpt>
      <trkpt lat="48.62325" lon="-4.28067">
        <ele>7.1</ele>
        <time>2020-06-10T08:19:10Z</time>
      </trkpt>
      <trkpt lat="48.62324" lon="-4.28058">
        <ele>7.1</ele>
        <time>2020-06-10T08:19:11Z</time>
      </trkpt>
      <trkpt lat="48.62324" lon="-4.28049">
        <ele>7.1</ele>
        <time>2020-06-10T08:19:12Z</time>
      </trkpt>
      <trkpt lat="48.62323" lon="-4.2804">
        <ele>7</ele>
        <time>2020-06-10T08:19:13Z</time>
      </trkpt>
      <trkpt lat="48.62322" lon="-4.28032">
        <ele>7</ele>
        <time>2020-06-10T08:19:14Z</time>
      </trkpt>
      <trkpt lat="48.62321" lon="-4.28023">
        <ele>7.1</ele>
        <time>2020-06-10T08:19:15Z</time>
      </trkpt>
      <trkpt lat="48.6232" lon="-4.28014">
        <ele>7.1</ele>
        <time>2020-06-10T08:19:16Z</time>
      </trkpt>
      <trkpt lat="48.6232" lon="-4.28005">
        <ele>7.2</ele>
        <time>2020-06-10T08:19:17Z</time>
      </trkpt>
      <trkpt lat="48.62319" lon="-4.27996">
        <ele>7.2</ele>
        <time>2020-06-10T08:19:18Z</time>
      </trkpt>
      <trkpt lat="48.62319" lon="-4.27987">
        <ele>7.3</ele>
        <time>2020-06-10T08:19:19Z</time>
      </trkpt>
      <trkpt lat="48.62318" lon="-4.27978">
        <ele>7.4</ele>
        <time>2020-06-10T08:19:20Z</time>
      </trkpt>
      <trkpt lat="48.62318" lon="-4.27969">
        <ele>7.4</ele>
        <time>2020-06-10T08:19:21Z</time>
      </trkpt>
      <trkpt lat="48.62318" lon="-4.2796">
        <ele>7.5</ele>
        <time>2020-06-10T08:19:22Z</time>
      </trkpt>
      <trkpt lat="48.62318" lon="-4.27951">
        <ele>7.6</ele>
        <time>2020-06-10T08:19:23Z</time>
      </trkpt>
      <trkpt lat="48.62318" lon="-4.27942">
        <ele>7.6</ele>
        <time>2020-06-10T08:19:24Z</time>
      </trkpt>
      <trkpt lat="48.62319" lon="-4.27933">
        <ele>7.7</ele>
        <time>2020-06-10T08:19:25Z</time>
      </trkpt>
      <trkpt lat="48.62319" lon="-4.27923">
        <ele>7.8</ele>
        <time>2020-06-10T08:19:26Z</time>
      </trkpt>
      <trkpt lat="48.62319" lon="-4.27914">
        <ele>7.7</ele>
        <time>2020-06-10T08:19:27Z</time>
      </trkpt>
      <trkpt lat="48.62319" lon="-4.27905">
        <ele>7.7</ele>
        <time>2020-06-10T08:19:28Z</time>
      </trkpt>
      <trkpt lat="48.62319" lon="-4.27896">
        <ele>7.7</ele>
        <time>2020-06-10T08:19:29Z</time>
      </trkpt>
      <trkpt lat="48.6232" lon="-4.27888">
        <ele>7.7</ele>
        <time>2020-06-10T08:19:30Z</time>
      </trkpt>
      <trkpt lat="48.6232" lon="-4.27879">
        <ele>7.7</ele>
        <time>2020-06-10T08:19:31Z</time>
      </trkpt>
      <trkpt lat="48.62321" lon="-4.2787">
        <ele>7.7</ele>
        <time>2020-06-10T08:19:32Z</time>
      </trkpt>
      <trkpt lat="48.62322" lon="-4.27862">
        <ele>7.7</ele>
        <time>2020-06-10T08:19:33Z</time>
      </trkpt>
      <trkpt lat="48.62323" lon="-4.27853">
        <ele>7.7</ele>
        <time>2020-06-10T08:19:34Z</time>
      </trkpt>
      <trkpt lat="48.62324" lon="-4.27844">
        <ele>7.7</ele>
        <time>2020-06-10T08:19:35Z</time>
      </trkpt>
      <trkpt lat="48.62324" lon="-4.27835">
        <ele>7.8</ele>
        <time>2020-06-10T08:19:36Z</time>
      </trkpt>
      <trkpt lat="48.62325" lon="-4.27826">
        <ele>7.8</ele>
        <time>2020-06-10T08:19:37Z</time>
      </trkpt>
      <trkpt lat="48.62324" lon="-4.27817">
        <ele>7.9</ele>
        <time>2020-06-10T08:19:38Z</time>
      </trkpt>
      <trkpt lat="48.62324" lon="-4.27808">
        <ele>8</ele>
        <time>2020-06-10T08:19:39Z</time>
      </trkpt>
      <trkpt lat="48.62324" lon="-4.278">
        <ele>8.2</ele>
        <time>2020-06-10T08:19:40Z</time>
      </trkpt>
      <trkpt lat="48.62325" lon="-4.27791">
        <ele>8.3</ele>
        <time>2020-06-10T08:19:41Z</time>
      </trkpt>
      <trkpt lat="48.62325" lon="-4.27783">
        <ele>8.5</ele>
        <time>2020-06-10T08:19:42Z</time>
      </trkpt>
      <trkpt lat="48.62326" lon="-4.27775">
        <ele>8.6</ele>
        <time>2020-06-10T08:19:43Z</time>
      </trkpt>
      <trkpt lat="48.62326" lon="-4.27766">
        <ele>8.7</ele>
        <time>2020-06-10T08:19:44Z</time>
      </trkpt>
      <trkpt lat="48.62326" lon="-4.27758">
        <ele>8.9</ele>
        <time>2020-06-10T08:19:45Z</time>
      </trkpt>
      <trkpt lat="48.62325" lon="-4.2775">
        <ele>9</ele>
        <time>2020-06-10T08:19:46Z</time>
      </trkpt>
      <trkpt lat="48.62325" lon="-4.27742">
        <ele>9.2</ele>
        <time>2020-06-10T08:19:47Z</time>
      </trkpt>
      <trkpt lat="48.62324" lon="-4.27734">
        <ele>9.4</ele>
        <time>2020-06-10T08:19:48Z</time>
      </trkpt>
      <trkpt lat="48.62324" lon="-4.27725">
        <ele>9.5</ele>
        <time>2020-06-10T08:19:49Z</time>
      </trkpt>
      <trkpt lat="48.62324" lon="-4.27717">
        <ele>9.7</ele>
        <time>2020-06-10T08:19:50Z</time>
      </trkpt>
      <trkpt lat="48.62323" lon="-4.27709">
        <ele>9.9</ele>
        <time>2020-06-10T08:19:51Z</time>
      </trkpt>
      <trkpt lat="48.62321" lon="-4.27701">
        <ele>10</ele>
        <time>2020-06-10T08:19:52Z</time>
      </trkpt>
      <trkpt lat="48.62321" lon="-4.27693">
        <ele>10.1</ele>
        <time>2020-06-10T08:19:53Z</time>
      </trkpt>
      <trkpt lat="48.6232" lon="-4.27686">
        <ele>10.2</ele>
        <time>2020-06-10T08:19:54Z</time>
      </trkpt>
      <trkpt lat="48.62318" lon="-4.27678">
        <ele>10.3</ele>
        <time>2020-06-10T08:19:55Z</time>
      </trkpt>
      <trkpt lat="48.62317" lon="-4.2767">
        <ele>10.5</ele>
        <time>2020-06-10T08:19:56Z</time>
      </trkpt>
      <trkpt lat="48.62315" lon="-4.27662">
        <ele>10.6</ele>
        <time>2020-06-10T08:19:57Z</time>
      </trkpt>
      <trkpt lat="48.62313" lon="-4.27654">
        <ele>10.7</ele>
        <time>2020-06-10T08:19:58Z</time>
      </trkpt>
      <trkpt lat="48.6231" lon="-4.27648">
        <ele>10.8</ele>
        <time>2020-06-10T08:19:59Z</time>
      </trkpt>
      <trkpt lat="48.62306" lon="-4.27641">
        <ele>10.9</ele>
        <time>2020-06-10T08:20:00Z</time>
      </trkpt>
      <trkpt lat="48.62302" lon="-4.27636">
        <ele>11</ele>
        <time>2020-06-10T08:20:01Z</time>
      </trkpt>
      <trkpt lat="48.62297" lon="-4.27631">
        <ele>11.1</ele>
        <time>2020-06-10T08:20:02Z</time>
      </trkpt>
      <trkpt lat="48.62293" lon="-4.27626">
        <ele>11.3</ele>
        <time>2020-06-10T08:20:03Z</time>
      </trkpt>
      <trkpt lat="48.62288" lon="-4.27622">
        <ele>11.4</ele>
        <time>2020-06-10T08:20:04Z</time>
      </trkpt>
      <trkpt lat="48.62283" lon="-4.27618">
        <ele>11.5</ele>
        <time>2020-06-10T08:20:05Z</time>
      </trkpt>
      <trkpt lat="48.62278" lon="-4.27613">
        <ele>11.6</ele>
        <time>2020-06-10T08:20:06Z</time>
      </trkpt>
      <trkpt lat="48.62274" lon="-4.27608">
        <ele>11.7</ele>
        <time>2020-06-10T08:20:07Z</time>
      </trkpt>
      <trkpt lat="48.6227" lon="-4.27603">
        <ele>11.8</ele>
        <time>2020-06-10T08:20:08Z</time>
      </trkpt>
      <trkpt lat="48.62266" lon="-4.27598">
        <ele>11.9</ele>
        <time>2020-06-10T08:20:09Z</time>
      </trkpt>
      <trkpt lat="48.62262" lon="-4.27593">
        <ele>12</ele>
        <time>2020-06-10T08:20:10Z</time>
      </trkpt>
      <trkpt lat="48.62259" lon="-4.27588">
        <ele>12.1</ele>
        <time>2020-06-10T08:20:11Z</time>
      </trkpt>
      <trkpt lat="48.62255" lon="-4.27584">
        <ele>12.1</ele>
        <time>2020-06-10T08:20:12Z</time>
      </trkpt>
      <trkpt lat="48.62251" lon="-4.27579">
        <ele>12.2</ele>
        <time>2020-06-10T08:20:13Z</time>
      </trkpt>
      <trkpt lat="48.62247" lon="-4.27576">
        <ele>12.3</ele>
        <time>2020-06-10T08:20:14Z</time>
      </trkpt>
      <trkpt lat="48.62243" lon="-4.27573">
        <ele>12.4</ele>
        <time>2020-06-10T08:20:15Z</time>
      </trkpt>
      <trkpt lat="48.62238" lon="-4.27568">
        <ele>12.4</ele>
        <time>2020-06-10T08:20:16Z</time>
      </trkpt>
      <trkpt lat="48.62234" lon="-4.27564">
        <ele>12.5</ele>
        <time>2020-06-10T08:20:17Z</time>
      </trkpt>
      <trkpt lat="48.6223" lon="-4.2756">
        <ele>12.5</ele>
        <time>2020-06-10T08:20:18Z</time>
      </trkpt>
      <trkpt lat="48.62225" lon="-4.27555">
        <ele>12.5</ele>
        <time>2020-06-10T08:20:19Z</time>
      </trkpt>
      <trkpt lat="48.62221" lon="-4.2755">
        <ele>12.5</ele>
        <time>2020-06-10T08:20:20Z</time>
      </trkpt>
      <trkpt lat="48.62216" lon="-4.27546">
        <ele>12.5</ele>
        <time>2020-06-10T08:20:21Z</time>
      </trkpt>
      <trkpt lat="48.62212" lon="-4.27542">
        <ele>12.5</ele>
        <time>2020-06-10T08:20:22Z</time>
      </trkpt>
      <trkpt lat="48.62207" lon="-4.27537">
        <ele>12.4</ele>
        <time>2020-06-10T08:20:23Z</time>
      </trkpt>
      <trkpt lat="48.62203" lon="-4.27533">
        <ele>12.4</ele>
        <time>2020-06-10T08:20:24Z</time>
      </trkpt>
      <trkpt lat="48.62199" lon="-4.27527">
        <ele>12.4</ele>
        <time>2020-06-10T08:20:25Z</time>
      </trkpt>
      <trkpt lat="48.62195" lon="-4.27522">
        <ele>12.3</ele>
        <time>2020-06-10T08:20:26Z</time>
      </trkpt>
      <trkpt lat="48.62191" lon="-4.27516">
        <ele>12.3</ele>
        <time>2020-06-10T08:20:27Z</time>
      </trkpt>
      <trkpt lat="48.62187" lon="-4.2751">
        <ele>12.3</ele>
        <time>2020-06-10T08:20:28Z</time>
      </trkpt>
      <trkpt lat="48.62182" lon="-4.27504">
        <ele>12.3</ele>
        <time>2020-06-10T08:20:29Z</time>
      </trkpt>
      <trkpt lat="48.62177" lon="-4.275">
        <ele>12.3</ele>
        <time>2020-06-10T08:20:30Z</time>
      </trkpt>
      <trkpt lat="48.62172" lon="-4.27495">
        <ele>12.3</ele>
        <time>2020-06-10T08:20:31Z</time>
      </trkpt>
      <trkpt lat="48.62167" lon="-4.2749">
        <ele>12.3</ele>
        <time>2020-06-10T08:20:32Z</time>
      </trkpt>
      <trkpt lat="48.62162" lon="-4.27485">
        <ele>12.3</ele>
        <time>2020-06-10T08:20:33Z</time>
      </trkpt>
      <trkpt lat="48.62157" lon="-4.2748">
        <ele>12.2</ele>
        <time>2020-06-10T08:20:34Z</time>
      </trkpt>
      <trkpt lat="48.62152" lon="-4.27475">
        <ele>12.1</ele>
        <time>2020-06-10T08:20:35Z</time>
      </trkpt>
      <trkpt lat="48.62148" lon="-4.2747">
        <ele>12.1</ele>
        <time>2020-06-10T08:20:36Z</time>
      </trkpt>
      <trkpt lat="48.62143" lon="-4.27465">
        <ele>12</ele>
        <time>2020-06-10T08:20:37Z</time>
      </trkpt>
      <trkpt lat="48.6214" lon="-4.27459">
        <ele>12</ele>
        <time>2020-06-10T08:20:38Z</time>
      </trkpt>
      <trkpt lat="48.62136" lon="-4.27453">
        <ele>11.9</ele>
        <time>2020-06-10T08:20:39Z</time>
      </trkpt>
      <trkpt lat="48.62133" lon="-4.27446">
        <ele>11.9</ele>
        <time>2020-06-10T08:20:40Z</time>
      </trkpt>
      <trkpt lat="48.6213" lon="-4.27439">
        <ele>11.8</ele>
        <time>2020-06-10T08:20:41Z</time>
      </trkpt>
      <trkpt lat="48.62126" lon="-4.27432">
        <ele>11.8</ele>
        <time>2020-06-10T08:20:42Z</time>
      </trkpt>
      <trkpt lat="48.62122" lon="-4.27426">
        <ele>11.7</ele>
        <time>2020-06-10T08:20:43Z</time>
      </trkpt>
      <trkpt lat="48.62119" lon="-4.27418">
        <ele>11.6</ele>
        <time>2020-06-10T08:20:44Z</time>
      </trkpt>
      <trkpt lat="48.62115" lon="-4.27412">
        <ele>11.5</ele>
        <time>2020-06-10T08:20:45Z</time>
      </trkpt>
      <trkpt lat="48.62111" lon="-4.27405">
        <ele>11.5</ele>
        <time>2020-06-10T08:20:46Z</time>
      </trkpt>
      <trkpt lat="48.62108" lon="-4.27399">
        <ele>11.4</ele>
        <time>2020-06-10T08:20:47Z</time>
      </trkpt>
      <trkpt lat="48.62104" lon="-4.27392">
        <ele>11.3</ele>
        <time>2020-06-10T08:20:48Z</time>
      </trkpt>
      <trkpt lat="48.62101" lon="-4.27385">
        <ele>11.2</ele>
        <time>2020-06-10T08:20:49Z</time>
      </trkpt>
      <trkpt lat="48.62097" lon="-4.27379">
        <ele>11.2</ele>
        <time>2020-06-10T08:20:50Z</time>
      </trkpt>
      <trkpt lat="48.62094" lon="-4.27372">
        <ele>11.1</ele>
        <time>2020-06-10T08:20:51Z</time>
      </trkpt>
      <trkpt lat="48.62091" lon="-4.27365">
        <ele>11</ele>
        <time>2020-06-10T08:20:52Z</time>
      </trkpt>
      <trkpt lat="48.62087" lon="-4.2736">
        <ele>10.9</ele>
        <time>2020-06-10T08:20:53Z</time>
      </trkpt>
      <trkpt lat="48.62083" lon="-4.27353">
        <ele>10.7</ele>
        <time>2020-06-10T08:20:54Z</time>
      </trkpt>
      <trkpt lat="48.6208" lon="-4.27346">
        <ele>10.6</ele>
        <time>2020-06-10T08:20:55Z</time>
      </trkpt>
      <trkpt lat="48.62076" lon="-4.27339">
        <ele>10.5</ele>
        <time>2020-06-10T08:20:56Z</time>
      </trkpt>
      <trkpt lat="48.62072" lon="-4.27332">
        <ele>10.3</ele>
        <time>2020-06-10T08:20:57Z</time>
      </trkpt>
      <trkpt lat="48.62068" lon="-4.27325">
        <ele>10.2</ele>
        <time>2020-06-10T08:20:58Z</time>
      </trkpt>
      <trkpt lat="48.62065" lon="-4.27318">
        <ele>10</ele>
        <time>2020-06-10T08:20:59Z</time>
      </trkpt>
      <trkpt lat="48.62061" lon="-4.27311">
        <ele>9.8</ele>
        <time>2020-06-10T08:21:00Z</time>
      </trkpt>
      <trkpt lat="48.62058" lon="-4.27304">
        <ele>9.6</ele>
        <time>2020-06-10T08:21:01Z</time>
      </trkpt>
      <trkpt lat="48.62054" lon="-4.27298">
        <ele>9.4</ele>
        <time>2020-06-10T08:21:02Z</time>
      </trkpt>
      <trkpt lat="48.62051" lon="-4.27291">
        <ele>9.3</ele>
        <time>2020-06-10T08:21:03Z</time>
      </trkpt>
      <trkpt lat="48.62048" lon="-4.27283">
        <ele>9.1</ele>
        <time>2020-06-10T08:21:04Z</time>
      </trkpt>
      <trkpt lat="48.62045" lon="-4.27275">
        <ele>8.9</ele>
        <time>2020-06-10T08:21:05Z</time>
      </trkpt>
      <trkpt lat="48.62042" lon="-4.27267">
        <ele>8.7</ele>
        <time>2020-06-10T08:21:06Z</time>
      </trkpt>
      <trkpt lat="48.6204" lon="-4.27258">
        <ele>8.4</ele>
        <time>2020-06-10T08:21:07Z</time>
      </trkpt>
      <trkpt lat="48.62038" lon="-4.2725">
        <ele>8.2</ele>
        <time>2020-06-10T08:21:08Z</time>
      </trkpt>
      <trkpt lat="48.62035" lon="-4.27241">
        <ele>8</ele>
        <time>2020-06-10T08:21:09Z</time>
      </trkpt>
      <trkpt lat="48.62033" lon="-4.27232">
        <ele>7.7</ele>
        <time>2020-06-10T08:21:10Z</time>
      </trkpt>
      <trkpt lat="48.62033" lon="-4.27222">
        <ele>7.4</ele>
        <time>2020-06-10T08:21:11Z</time>
      </trkpt>
      <trkpt lat="48.62033" lon="-4.27212">
        <ele>7.2</ele>
        <time>2020-06-10T08:21:12Z</time>
      </trkpt>
      <trkpt lat="48.62034" lon="-4.27202">
        <ele>6.9</ele>
        <time>2020-06-10T08:21:13Z</time>
      </trkpt>
      <trkpt lat="48.62035" lon="-4.27191">
        <ele>6.6</ele>
        <time>2020-06-10T08:21:14Z</time>
      </trkpt>
      <trkpt lat="48.62037" lon="-4.2718">
        <ele>6.3</ele>
        <time>2020-06-10T08:21:15Z</time>
      </trkpt>
      <trkpt lat="48.62039" lon="-4.2717">
        <ele>6</ele>
        <time>2020-06-10T08:21:16Z</time>
      </trkpt>
      <trkpt lat="48.62042" lon="-4.27159">
        <ele>5.7</ele>
        <time>2020-06-10T08:21:17Z</time>
      </trkpt>
      <trkpt lat="48.62044" lon="-4.27149">
        <ele>5.6</ele>
        <time>2020-06-10T08:21:18Z</time>
      </trkpt>
      <trkpt lat="48.62047" lon="-4.27138">
        <ele>5.4</ele>
        <time>2020-06-10T08:21:19Z</time>
      </trkpt>
      <trkpt lat="48.6205" lon="-4.27127">
        <ele>5.3</ele>
        <time>2020-06-10T08:21:20Z</time>
      </trkpt>
      <trkpt lat="48.62053" lon="-4.27117">
        <ele>5.2</ele>
        <time>2020-06-10T08:21:21Z</time>
      </trkpt>
      <trkpt lat="48.62055" lon="-4.27106">
        <ele>5</ele>
        <time>2020-06-10T08:21:22Z</time>
      </trkpt>
      <trkpt lat="48.62058" lon="-4.27094">
        <ele>4.8</ele>
        <time>2020-06-10T08:21:23Z</time>
      </trkpt>
      <trkpt lat="48.6206" lon="-4.27083">
        <ele>4.7</ele>
        <time>2020-06-10T08:21:24Z</time>
      </trkpt>
      <trkpt lat="48.62062" lon="-4.27073">
        <ele>4.6</ele>
        <time>2020-06-10T08:21:25Z</time>
      </trkpt>
      <trkpt lat="48.62064" lon="-4.27062">
        <ele>4.5</ele>
        <time>2020-06-10T08:21:26Z</time>
      </trkpt>
      <trkpt lat="48.62066" lon="-4.27051">
        <ele>4.5</ele>
        <time>2020-06-10T08:21:27Z</time>
      </trkpt>
      <trkpt lat="48.62068" lon="-4.27041">
        <ele>4.4</ele>
        <time>2020-06-10T08:21:28Z</time>
      </trkpt>
      <trkpt lat="48.6207" lon="-4.27031">
        <ele>4.2</ele>
        <time>2020-06-10T08:21:29Z</time>
      </trkpt>
      <trkpt lat="48.62072" lon="-4.27021">
        <ele>4.2</ele>
        <time>2020-06-10T08:21:30Z</time>
      </trkpt>
      <trkpt lat="48.62074" lon="-4.27011">
        <ele>4.1</ele>
        <time>2020-06-10T08:21:31Z</time>
      </trkpt>
      <trkpt lat="48.62076" lon="-4.27001">
        <ele>4.1</ele>
        <time>2020-06-10T08:21:32Z</time>
      </trkpt>
      <trkpt lat="48.62077" lon="-4.26992">
        <ele>4.1</ele>
        <time>2020-06-10T08:21:33Z</time>
      </trkpt>
      <trkpt lat="48.62079" lon="-4.26982">
        <ele>4</ele>
        <time>2020-06-10T08:21:34Z</time>
      </trkpt>
      <trkpt lat="48.62081" lon="-4.26972">
        <ele>4</ele>
        <time>2020-06-10T08:21:35Z</time>
      </trkpt>
      <trkpt lat="48.62082" lon="-4.26963">
        <ele>4</ele>
        <time>2020-06-10T08:21:36Z</time>
      </trkpt>
      <trkpt lat="48.62084" lon="-4.26954">
        <ele>4</ele>
        <time>2020-06-10T08:21:37Z</time>
      </trkpt>
      <trkpt lat="48.62085" lon="-4.26945">
        <ele>4</ele>
        <time>2020-06-10T08:21:38Z</time>
      </trkpt>
      <trkpt lat="48.62087" lon="-4.26936">
        <ele>4</ele>
        <time>2020-06-10T08:21:39Z</time>
      </trkpt>
      <trkpt lat="48.62089" lon="-4.26927">
        <ele>4.1</ele>
        <time>2020-06-10T08:21:40Z</time>
      </trkpt>
      <trkpt lat="48.62091" lon="-4.26918">
        <ele>4.2</ele>
        <time>2020-06-10T08:21:41Z</time>
      </trkpt>
      <trkpt lat="48.62093" lon="-4.2691">
        <ele>4.3</ele>
        <time>2020-06-10T08:21:42Z</time>
      </trkpt>
      <trkpt lat="48.62095" lon="-4.26901">
        <ele>4.4</ele>
        <time>2020-06-10T08:21:43Z</time>
      </trkpt>
      <trkpt lat="48.62097" lon="-4.26893">
        <ele>4.6</ele>
        <time>2020-06-10T08:21:44Z</time>
      </trkpt>
      <trkpt lat="48.62099" lon="-4.26885">
        <ele>4.7</ele>
        <time>2020-06-10T08:21:45Z</time>
      </trkpt>
      <trkpt lat="48.621" lon="-4.26877">
        <ele>4.9</ele>
        <time>2020-06-10T08:21:46Z</time>
      </trkpt>
      <trkpt lat="48.62102" lon="-4.26869">
        <ele>5.1</ele>
        <time>2020-06-10T08:21:47Z</time>
      </trkpt>
      <trkpt lat="48.62104" lon="-4.26864">
        <ele>5.3</ele>
        <time>2020-06-10T08:21:48Z</time>
      </trkpt>
      <trkpt lat="48.62105" lon="-4.26857">
        <ele>5.4</ele>
        <time>2020-06-10T08:21:49Z</time>
      </trkpt>
      <trkpt lat="48.62105" lon="-4.26851">
        <ele>5.5</ele>
        <time>2020-06-10T08:21:50Z</time>
      </trkpt>
      <trkpt lat="48.62105" lon="-4.26845">
        <ele>5.7</ele>
        <time>2020-06-10T08:21:51Z</time>
      </trkpt>
      <trkpt lat="48.62106" lon="-4.26838">
        <ele>5.8</ele>
        <time>2020-06-10T08:21:52Z</time>
      </trkpt>
      <trkpt lat="48.62106" lon="-4.26832">
        <ele>6</ele>
        <time>2020-06-10T08:21:53Z</time>
      </trkpt>
      <trkpt lat="48.62108" lon="-4.26827">
        <ele>6.1</ele>
        <time>2020-06-10T08:21:54Z</time>
      </trkpt>
      <trkpt lat="48.62108" lon="-4.26821">
        <ele>6.3</ele>
        <time>2020-06-10T08:21:55Z</time>
      </trkpt>
      <trkpt lat="48.62109" lon="-4.26815">
        <ele>6.4</ele>
        <time>2020-06-10T08:21:56Z</time>
      </trkpt>
      <trkpt lat="48.62109" lon="-4.26809">
        <ele>6.6</ele>
        <time>2020-06-10T08:21:57Z</time>
      </trkpt>
      <trkpt lat="48.62108" lon="-4.26804">
        <ele>6.8</ele>
        <time>2020-06-10T08:21:58Z</time>
      </trkpt>
      <trkpt lat="48.62107" lon="-4.26799">
        <ele>6.9</ele>
        <time>2020-06-10T08:21:59Z</time>
      </trkpt>
      <trkpt lat="48.62106" lon="-4.26793">
        <ele>7.1</ele>
        <time>2020-06-10T08:22:00Z</time>
      </trkpt>
      <trkpt lat="48.62105" lon="-4.26788">
        <ele>7.3</ele>
        <time>2020-06-10T08:22:01Z</time>
      </trkpt>
      <trkpt lat="48.62104" lon="-4.26782">
        <ele>7.4</ele>
        <time>2020-06-10T08:22:02Z</time>
      </trkpt>
      <trkpt lat="48.62104" lon="-4.26776">
        <ele>7.6</ele>
        <time>2020-06-10T08:22:03Z</time>
      </trkpt>
      <trkpt lat="48.62104" lon="-4.2677">
        <ele>7.8</ele>
        <time>2020-06-10T08:22:04Z</time>
      </trkpt>
      <trkpt lat="48.62102" lon="-4.26765">
        <ele>8</ele>
        <time>2020-06-10T08:22:05Z</time>
      </trkpt>
      <trkpt lat="48.62101" lon="-4.26759">
        <ele>8.2</ele>
        <time>2020-06-10T08:22:06Z</time>
      </trkpt>
      <trkpt lat="48.62101" lon="-4.26754">
        <ele>8.4</ele>
        <time>2020-06-10T08:22:07Z</time>
      </trkpt>
      <trkpt lat="48.62101" lon="-4.26749">
        <ele>8.6</ele>
        <time>2020-06-10T08:22:08Z</time>
      </trkpt>
      <trkpt lat="48.621" lon="-4.26743">
        <ele>8.8</ele>
        <time>2020-06-10T08:22:09Z</time>
      </trkpt>
      <trkpt lat="48.621" lon="-4.26738">
        <ele>8.9</ele>
        <time>2020-06-10T08:22:10Z</time>
      </trkpt>
      <trkpt lat="48.62099" lon="-4.26732">
        <ele>9.1</ele>
        <time>2020-06-10T08:22:11Z</time>
      </trkpt>
      <trkpt lat="48.62099" lon="-4.26726">
        <ele>9.3</ele>
        <time>2020-06-10T08:22:12Z</time>
      </trkpt>
      <trkpt lat="48.62097" lon="-4.26721">
        <ele>9.4</ele>
        <time>2020-06-10T08:22:13Z</time>
      </trkpt>
      <trkpt lat="48.62096" lon="-4.26714">
        <ele>9.7</ele>
        <time>2020-06-10T08:22:14Z</time>
      </trkpt>
      <trkpt lat="48.62095" lon="-4.26708">
        <ele>9.8</ele>
        <time>2020-06-10T08:22:15Z</time>
      </trkpt>
      <trkpt lat="48.62094" lon="-4.26702">
        <ele>10</ele>
        <time>2020-06-10T08:22:16Z</time>
      </trkpt>
      <trkpt lat="48.62093" lon="-4.26696">
        <ele>10.2</ele>
        <time>2020-06-10T08:22:17Z</time>
      </trkpt>
      <trkpt lat="48.62092" lon="-4.26689">
        <ele>10.4</ele>
        <time>2020-06-10T08:22:18Z</time>
      </trkpt>
      <trkpt lat="48.62092" lon="-4.26683">
        <ele>10.6</ele>
        <time>2020-06-10T08:22:19Z</time>
      </trkpt>
      <trkpt lat="48.62092" lon="-4.26675">
        <ele>10.8</ele>
        <time>2020-06-10T08:22:20Z</time>
      </trkpt>
      <trkpt lat="48.62091" lon="-4.26668">
        <ele>11</ele>
        <time>2020-06-10T08:22:21Z</time>
      </trkpt>
      <trkpt lat="48.6209" lon="-4.26661">
        <ele>11.2</ele>
        <time>2020-06-10T08:22:22Z</time>
      </trkpt>
      <trkpt lat="48.62089" lon="-4.26656">
        <ele>11.4</ele>
        <time>2020-06-10T08:22:23Z</time>
      </trkpt>
      <trkpt lat="48.62088" lon="-4.2665">
        <ele>11.6</ele>
        <time>2020-06-10T08:22:24Z</time>
      </trkpt>
      <trkpt lat="48.62088" lon="-4.26644">
        <ele>11.8</ele>
        <time>2020-06-10T08:22:25Z</time>
      </trkpt>
      <trkpt lat="48.62087" lon="-4.26638">
        <ele>12</ele>
        <time>2020-06-10T08:22:26Z</time>
      </trkpt>
      <trkpt lat="48.62086" lon="-4.26632">
        <ele>12.2</ele>
        <time>2020-06-10T08:22:27Z</time>
      </trkpt>
      <trkpt lat="48.62085" lon="-4.26626">
        <ele>12.4</ele>
        <time>2020-06-10T08:22:28Z</time>
      </trkpt>
      <trkpt lat="48.62084" lon="-4.2662">
        <ele>12.6</ele>
        <time>2020-06-10T08:22:29Z</time>
      </trkpt>
      <trkpt lat="48.62083" lon="-4.26614">
        <ele>12.8</ele>
        <time>2020-06-10T08:22:30Z</time>
      </trkpt>
      <trkpt lat="48.62082" lon="-4.26608">
        <ele>13.1</ele>
        <time>2020-06-10T08:22:31Z</time>
      </trkpt>
      <trkpt lat="48.62081" lon="-4.26603">
        <ele>13.3</ele>
        <time>2020-06-10T08:22:32Z</time>
      </trkpt>
      <trkpt lat="48.62081" lon="-4.26596">
        <ele>13.5</ele>
        <time>2020-06-10T08:22:33Z</time>
      </trkpt>
      <trkpt lat="48.6208" lon="-4.26589">
        <ele>13.7</ele>
        <time>2020-06-10T08:22:34Z</time>
      </trkpt>
      <trkpt lat="48.6208" lon="-4.26584">
        <ele>13.9</ele>
        <time>2020-06-10T08:22:35Z</time>
      </trkpt>
      <trkpt lat="48.62079" lon="-4.26578">
        <ele>14.2</ele>
        <time>2020-06-10T08:22:36Z</time>
      </trkpt>
      <trkpt lat="48.62079" lon="-4.26574">
        <ele>14.3</ele>
        <time>2020-06-10T08:22:37Z</time>
      </trkpt>
      <trkpt lat="48.62078" lon="-4.26569">
        <ele>14.5</ele>
        <time>2020-06-10T08:22:38Z</time>
      </trkpt>
      <trkpt lat="48.62078" lon="-4.26563">
        <ele>14.9</ele>
        <time>2020-06-10T08:22:39Z</time>
      </trkpt>
      <trkpt lat="48.62076" lon="-4.26557">
        <ele>15.2</ele>
        <time>2020-06-10T08:22:40Z</time>
      </trkpt>
      <trkpt lat="48.62076" lon="-4.26552">
        <ele>15.5</ele>
        <time>2020-06-10T08:22:41Z</time>
      </trkpt>
      <trkpt lat="48.62075" lon="-4.26547">
        <ele>15.7</ele>
        <time>2020-06-10T08:22:42Z</time>
      </trkpt>
      <trkpt lat="48.62075" lon="-4.26542">
        <ele>16</ele>
        <time>2020-06-10T08:22:43Z</time>
      </trkpt>
      <trkpt lat="48.62074" lon="-4.26538">
        <ele>16.2</ele>
        <time>2020-06-10T08:22:44Z</time>
      </trkpt>
      <trkpt lat="48.62073" lon="-4.26533">
        <ele>16.5</ele>
        <time>2020-06-10T08:22:45Z</time>
      </trkpt>
      <trkpt lat="48.62072" lon="-4.26528">
        <ele>16.7</ele>
        <time>2020-06-10T08:22:46Z</time>
      </trkpt>
      <trkpt lat="48.62071" lon="-4.26523">
        <ele>17</ele>
        <time>2020-06-10T08:22:47Z</time>
      </trkpt>
      <trkpt lat="48.62069" lon="-4.26518">
        <ele>17.2</ele>
        <time>2020-06-10T08:22:48Z</time>
      </trkpt>
      <trkpt lat="48.62069" lon="-4.26516">
        <ele>17.4</ele>
        <time>2020-06-10T08:22:49Z</time>
      </trkpt>
      <trkpt lat="48.62068" lon="-4.26511">
        <ele>17.7</ele>
        <time>2020-06-10T08:22:50Z</time>
      </trkpt>
      <trkpt lat="48.62066" lon="-4.26505">
        <ele>18</ele>
        <time>2020-06-10T08:22:51Z</time>
      </trkpt>
      <trkpt lat="48.62066" lon="-4.26503">
        <ele>18.2</ele>
        <time>2020-06-10T08:22:52Z</time>
      </trkpt>
      <trkpt lat="48.62065" lon="-4.26499">
        <ele>18.4</ele>
        <time>2020-06-10T08:22:53Z</time>
      </trkpt>
      <trkpt lat="48.62064" lon="-4.26495">
        <ele>18.7</ele>
        <time>2020-06-10T08:22:54Z</time>
      </trkpt>
      <trkpt lat="48.62062" lon="-4.2649">
        <ele>19</ele>
        <time>2020-06-10T08:22:55Z</time>
      </trkpt>
      <trkpt lat="48.62061" lon="-4.26485">
        <ele>19.3</ele>
        <time>2020-06-10T08:22:56Z</time>
      </trkpt>
      <trkpt lat="48.6206" lon="-4.26481">
        <ele>19.4</ele>
        <time>2020-06-10T08:22:57Z</time>
      </trkpt>
      <trkpt lat="48.62059" lon="-4.26477">
        <ele>19.5</ele>
        <time>2020-06-10T08:22:58Z</time>
      </trkpt>
      <trkpt lat="48.62057" lon="-4.26472">
        <ele>19.7</ele>
        <time>2020-06-10T08:22:59Z</time>
      </trkpt>
      <trkpt lat="48.62056" lon="-4.26467">
        <ele>19.9</ele>
        <time>2020-06-10T08:23:00Z</time>
      </trkpt>
      <trkpt lat="48.62055" lon="-4.26462">
        <ele>20.1</ele>
        <time>2020-06-10T08:23:01Z</time>
      </trkpt>
      <trkpt lat="48.62054" lon="-4.26457">
        <ele>20.3</ele>
        <time>2020-06-10T08:23:02Z</time>
      </trkpt>
      <trkpt lat="48.62054" lon="-4.26453">
        <ele>20.5</ele>
        <time>2020-06-10T08:23:03Z</time>
      </trkpt>
      <trkpt lat="48.62053" lon="-4.26449">
        <ele>20.7</ele>
        <time>2020-06-10T08:23:04Z</time>
      </trkpt>
      <trkpt lat="48.62052" lon="-4.26443">
        <ele>21</ele>
        <time>2020-06-10T08:23:05Z</time>
      </trkpt>
      <trkpt lat="48.62052" lon="-4.26441">
        <ele>21</ele>
        <time>2020-06-10T08:23:06Z</time>
      </trkpt>
      <trkpt lat="48.62052" lon="-4.26435">
        <ele>21.3</ele>
        <time>2020-06-10T08:23:07Z</time>
      </trkpt>
      <trkpt lat="48.62052" lon="-4.26432">
        <ele>21.4</ele>
        <time>2020-06-10T08:23:08Z</time>
      </trkpt>
      <trkpt lat="48.62052" lon="-4.26425">
        <ele>21.6</ele>
        <time>2020-06-10T08:23:09Z</time>
      </trkpt>
      <trkpt lat="48.62052" lon="-4.26421">
        <ele>21.8</ele>
        <time>2020-06-10T08:23:10Z</time>
      </trkpt>
      <trkpt lat="48.62051" lon="-4.26415">
        <ele>22</ele>
        <time>2020-06-10T08:23:11Z</time>
      </trkpt>
      <trkpt lat="48.6205" lon="-4.26414">
        <ele>22.1</ele>
        <time>2020-06-10T08:23:12Z</time>
      </trkpt>
      <trkpt lat="48.6205" lon="-4.26409">
        <ele>22.2</ele>
        <time>2020-06-10T08:23:13Z</time>
      </trkpt>
      <trkpt lat="48.62051" lon="-4.26403">
        <ele>22.4</ele>
        <time>2020-06-10T08:23:14Z</time>
      </trkpt>
      <trkpt lat="48.62051" lon="-4.26398">
        <ele>22.5</ele>
        <time>2020-06-10T08:23:15Z</time>
      </trkpt>
      <trkpt lat="48.62052" lon="-4.26392">
        <ele>22.6</ele>
        <time>2020-06-10T08:23:16Z</time>
      </trkpt>
      <trkpt lat="48.62053" lon="-4.26387">
        <ele>22.7</ele>
        <time>2020-06-10T08:23:17Z</time>
      </trkpt>
      <trkpt lat="48.62053" lon="-4.26385">
        <ele>22.7</ele>
        <time>2020-06-10T08:23:18Z</time>
      </trkpt>
      <trkpt lat="48.62055" lon="-4.26381">
        <ele>22.8</ele>
        <time>2020-06-10T08:23:19Z</time>
      </trkpt>
      <trkpt lat="48.62056" lon="-4.26376">
        <ele>22.9</ele>
        <time>2020-06-10T08:23:20Z</time>
      </trkpt>
      <trkpt lat="48.62057" lon="-4.26369">
        <ele>23</ele>
        <time>2020-06-10T08:23:21Z</time>
      </trkpt>
      <trkpt lat="48.62058" lon="-4.26363">
        <ele>23.1</ele>
        <time>2020-06-10T08:23:22Z</time>
      </trkpt>
      <trkpt lat="48.6206" lon="-4.26357">
        <ele>23.2</ele>
        <time>2020-06-10T08:23:23Z</time>
      </trkpt>
      <trkpt lat="48.62061" lon="-4.26351">
        <ele>23.2</ele>
        <time>2020-06-10T08:23:24Z</time>
      </trkpt>
      <trkpt lat="48.62062" lon="-4.26345">
        <ele>23.2</ele>
        <time>2020-06-10T08:23:25Z</time>
      </trkpt>
      <trkpt lat="48.62063" lon="-4.2634">
        <ele>23.3</ele>
        <time>2020-06-10T08:23:26Z</time>
      </trkpt>
      <trkpt lat="48.62064" lon="-4.26335">
        <ele>23.3</ele>
        <time>2020-06-10T08:23:27Z</time>
      </trkpt>
      <trkpt lat="48.62065" lon="-4.26329">
        <ele>23.3</ele>
        <time>2020-06-10T08:23:28Z</time>
      </trkpt>
      <trkpt lat="48.62066" lon="-4.26323">
        <ele>23.3</ele>
        <time>2020-06-10T08:23:29Z</time>
      </trkpt>
      <trkpt lat="48.62067" lon="-4.26315">
        <ele>23.4</ele>
        <time>2020-06-10T08:23:30Z</time>
      </trkpt>
      <trkpt lat="48.62068" lon="-4.26307">
        <ele>23.4</ele>
        <time>2020-06-10T08:23:31Z</time>
      </trkpt>
      <trkpt lat="48.6207" lon="-4.26301">
        <ele>23.5</ele>
        <time>2020-06-10T08:23:32Z</time>
      </trkpt>
      <trkpt lat="48.62071" lon="-4.26294">
        <ele>23.5</ele>
        <time>2020-06-10T08:23:33Z</time>
      </trkpt>
      <trkpt lat="48.62072" lon="-4.26287">
        <ele>23.6</ele>
        <time>2020-06-10T08:23:34Z</time>
      </trkpt>
      <trkpt lat="48.62072" lon="-4.26281">
        <ele>23.6</ele>
        <time>2020-06-10T08:23:35Z</time>
      </trkpt>
      <trkpt lat="48.62072" lon="-4.26274">
        <ele>23.7</ele>
        <time>2020-06-10T08:23:36Z</time>
      </trkpt>
      <trkpt lat="48.62073" lon="-4.26268">
        <ele>23.7</ele>
        <time>2020-06-10T08:23:37Z</time>
      </trkpt>
      <trkpt lat="48.62074" lon="-4.26263">
        <ele>23.8</ele>
        <time>2020-06-10T08:23:38Z</time>
      </trkpt>
      <trkpt lat="48.62074" lon="-4.26257">
        <ele>23.8</ele>
        <time>2020-06-10T08:23:39Z</time>
      </trkpt>
      <trkpt lat="48.62075" lon="-4.26253">
        <ele>23.8</ele>
        <time>2020-06-10T08:23:40Z</time>
      </trkpt>
      <trkpt lat="48.62075" lon="-4.26247">
        <ele>23.9</ele>
        <time>2020-06-10T08:23:41Z</time>
      </trkpt>
      <trkpt lat="48.62077" lon="-4.2624">
        <ele>23.9</ele>
        <time>2020-06-10T08:23:42Z</time>
      </trkpt>
      <trkpt lat="48.62077" lon="-4.26234">
        <ele>23.9</ele>
        <time>2020-06-10T08:23:43Z</time>
      </trkpt>
      <trkpt lat="48.62078" lon="-4.26228">
        <ele>23.8</ele>
        <time>2020-06-10T08:23:44Z</time>
      </trkpt>
      <trkpt lat="48.62078" lon="-4.26222">
        <ele>23.8</ele>
        <time>2020-06-10T08:23:45Z</time>
      </trkpt>
      <trkpt lat="48.62079" lon="-4.26216">
        <ele>23.7</ele>
        <time>2020-06-10T08:23:46Z</time>
      </trkpt>
      <trkpt lat="48.6208" lon="-4.2621">
        <ele>23.7</ele>
        <time>2020-06-10T08:23:47Z</time>
      </trkpt>
      <trkpt lat="48.62081" lon="-4.26204">
        <ele>23.6</ele>
        <time>2020-06-10T08:23:48Z</time>
      </trkpt>
      <trkpt lat="48.62083" lon="-4.26199">
        <ele>23.6</ele>
        <time>2020-06-10T08:23:49Z</time>
      </trkpt>
      <trkpt lat="48.62084" lon="-4.26192">
        <ele>23.5</ele>
        <time>2020-06-10T08:23:50Z</time>
      </trkpt>
      <trkpt lat="48.62085" lon="-4.26186">
        <ele>23.5</ele>
        <time>2020-06-10T08:23:51Z</time>
      </trkpt>
      <trkpt lat="48.62086" lon="-4.2618">
        <ele>23.4</ele>
        <time>2020-06-10T08:23:52Z</time>
      </trkpt>
      <trkpt lat="48.62087" lon="-4.26174">
        <ele>23.4</ele>
        <time>2020-06-10T08:23:53Z</time>
      </trkpt>
      <trkpt lat="48.62088" lon="-4.26168">
        <ele>23.3</ele>
        <time>2020-06-10T08:23:54Z</time>
      </trkpt>
      <trkpt lat="48.62089" lon="-4.26161">
        <ele>23.2</ele>
        <time>2020-06-10T08:23:55Z</time>
      </trkpt>
      <trkpt lat="48.62091" lon="-4.26154">
        <ele>23.2</ele>
        <time>2020-06-10T08:23:56Z</time>
      </trkpt>
      <trkpt lat="48.62091" lon="-4.26148">
        <ele>23.1</ele>
        <time>2020-06-10T08:23:57Z</time>
      </trkpt>
      <trkpt lat="48.62092" lon="-4.26142">
        <ele>23.1</ele>
        <time>2020-06-10T08:23:58Z</time>
      </trkpt>
      <trkpt lat="48.62094" lon="-4.26136">
        <ele>23</ele>
        <time>2020-06-10T08:23:59Z</time>
      </trkpt>
      <trkpt lat="48.62095" lon="-4.26129">
        <ele>23</ele>
        <time>2020-06-10T08:24:00Z</time>
      </trkpt>
      <trkpt lat="48.62096" lon="-4.26124">
        <ele>22.9</ele>
        <time>2020-06-10T08:24:01Z</time>
      </trkpt>
      <trkpt lat="48.62097" lon="-4.26118">
        <ele>22.9</ele>
        <time>2020-06-10T08:24:02Z</time>
      </trkpt>
      <trkpt lat="48.62098" lon="-4.26111">
        <ele>22.8</ele>
        <time>2020-06-10T08:24:03Z</time>
      </trkpt>
      <trkpt lat="48.621" lon="-4.26105">
        <ele>22.8</ele>
        <time>2020-06-10T08:24:04Z</time>
      </trkpt>
      <trkpt lat="48.62101" lon="-4.26098">
        <ele>22.7</ele>
        <time>2020-06-10T08:24:05Z</time>
      </trkpt>
      <trkpt lat="48.62102" lon="-4.26092">
        <ele>22.6</ele>
        <time>2020-06-10T08:24:06Z</time>
      </trkpt>
      <trkpt lat="48.62104" lon="-4.26087">
        <ele>22.6</ele>
        <time>2020-06-10T08:24:07Z</time>
      </trkpt>
      <trkpt lat="48.62104" lon="-4.2608">
        <ele>22.5</ele>
        <time>2020-06-10T08:24:08Z</time>
      </trkpt>
      <trkpt lat="48.62105" lon="-4.26073">
        <ele>22.5</ele>
        <time>2020-06-10T08:24:09Z</time>
      </trkpt>
      <trkpt lat="48.62105" lon="-4.26067">
        <ele>22.4</ele>
        <time>2020-06-10T08:24:10Z</time>
      </trkpt>
      <trkpt lat="48.62104" lon="-4.26062">
        <ele>22.4</ele>
        <time>2020-06-10T08:24:11Z</time>
      </trkpt>
      <trkpt lat="48.62104" lon="-4.26056">
        <ele>22.3</ele>
        <time>2020-06-10T08:24:12Z</time>
      </trkpt>
      <trkpt lat="48.62104" lon="-4.26049">
        <ele>22.3</ele>
        <time>2020-06-10T08:24:13Z</time>
      </trkpt>
      <trkpt lat="48.62103" lon="-4.26043">
        <ele>22.2</ele>
        <time>2020-06-10T08:24:14Z</time>
      </trkpt>
      <trkpt lat="48.62104" lon="-4.26036">
        <ele>22.2</ele>
        <time>2020-06-10T08:24:15Z</time>
      </trkpt>
      <trkpt lat="48.62103" lon="-4.2603">
        <ele>22.1</ele>
        <time>2020-06-10T08:24:16Z</time>
      </trkpt>
      <trkpt lat="48.62102" lon="-4.26024">
        <ele>22</ele>
        <time>2020-06-10T08:24:17Z</time>
      </trkpt>
      <trkpt lat="48.62101" lon="-4.26017">
        <ele>22</ele>
        <time>2020-06-10T08:24:18Z</time>
      </trkpt>
      <trkpt lat="48.621" lon="-4.2601">
        <ele>21.9</ele>
        <time>2020-06-10T08:24:19Z</time>
      </trkpt>
      <trkpt lat="48.62099" lon="-4.26003">
        <ele>21.8</ele>
        <time>2020-06-10T08:24:20Z</time>
      </trkpt>
      <trkpt lat="48.62099" lon="-4.25995">
        <ele>21.7</ele>
        <time>2020-06-10T08:24:21Z</time>
      </trkpt>
      <trkpt lat="48.62098" lon="-4.25988">
        <ele>21.6</ele>
        <time>2020-06-10T08:24:22Z</time>
      </trkpt>
      <trkpt lat="48.62099" lon="-4.2598">
        <ele>21.5</ele>
        <time>2020-06-10T08:24:23Z</time>
      </trkpt>
      <trkpt lat="48.62098" lon="-4.25972">
        <ele>21.7</ele>
        <time>2020-06-10T08:24:24Z</time>
      </trkpt>
      <trkpt lat="48.62097" lon="-4.25964">
        <ele>22.1</ele>
        <time>2020-06-10T08:24:25Z</time>
      </trkpt>
      <trkpt lat="48.62097" lon="-4.25956">
        <ele>22.6</ele>
        <time>2020-06-10T08:24:26Z</time>
      </trkpt>
      <trkpt lat="48.62097" lon="-4.25949">
        <ele>23</ele>
        <time>2020-06-10T08:24:27Z</time>
      </trkpt>
      <trkpt lat="48.62097" lon="-4.25943">
        <ele>23.4</ele>
        <time>2020-06-10T08:24:28Z</time>
      </trkpt>
      <trkpt lat="48.62098" lon="-4.25939">
        <ele>23.6</ele>
        <time>2020-06-10T08:24:29Z</time>
      </trkpt>
      <trkpt lat="48.62098" lon="-4.25941">
        <ele>23.7</ele>
        <time>2020-06-10T08:24:30Z</time>
      </trkpt>
      <trkpt lat="48.62098" lon="-4.25944">
        <ele>23.9</ele>
        <time>2020-06-10T08:24:31Z</time>
      </trkpt>
      <trkpt lat="48.62098" lon="-4.25946">
        <ele>24.1</ele>
        <time>2020-06-10T08:24:32Z</time>
      </trkpt>
      <trkpt lat="48.62096" lon="-4.25942">
        <ele>24.4</ele>
        <time>2020-06-10T08:24:33Z</time>
      </trkpt>
      <trkpt lat="48.62097" lon="-4.25945">
        <ele>24.5</ele>
        <time>2020-06-10T08:24:34Z</time>
      </trkpt>
      <trkpt lat="48.62097" lon="-4.25948">
        <ele>24.7</ele>
        <time>2020-06-10T08:24:35Z</time>
      </trkpt>
      <trkpt lat="48.62096" lon="-4.25954">
        <ele>25.1</ele>
        <time>2020-06-10T08:24:36Z</time>
      </trkpt>
      <trkpt lat="48.62097" lon="-4.25956">
        <ele>25.3</ele>
        <time>2020-06-10T08:24:37Z</time>
      </trkpt>
      <trkpt lat="48.62098" lon="-4.2596">
        <ele>25.6</ele>
        <time>2020-06-10T08:24:38Z</time>
      </trkpt>
      <trkpt lat="48.621" lon="-4.25963">
        <ele>25.9</ele>
        <time>2020-06-10T08:24:39Z</time>
      </trkpt>
      <trkpt lat="48.62102" lon="-4.25967">
        <ele>26.2</ele>
        <time>2020-06-10T08:24:40Z</time>
      </trkpt>
      <trkpt lat="48.62103" lon="-4.25971">
        <ele>26.5</ele>
        <time>2020-06-10T08:24:41Z</time>
      </trkpt>
      <trkpt lat="48.62105" lon="-4.25975">
        <ele>26.9</ele>
        <time>2020-06-10T08:24:42Z</time>
      </trkpt>
      <trkpt lat="48.62107" lon="-4.25978">
        <ele>27.2</ele>
        <time>2020-06-10T08:24:43Z</time>
      </trkpt>
      <trkpt lat="48.62108" lon="-4.25983">
        <ele>27.6</ele>
        <time>2020-06-10T08:24:44Z</time>
      </trkpt>
      <trkpt lat="48.6211" lon="-4.25986">
        <ele>27.9</ele>
        <time>2020-06-10T08:24:45Z</time>
      </trkpt>
      <trkpt lat="48.62112" lon="-4.2599">
        <ele>28.2</ele>
        <time>2020-06-10T08:24:46Z</time>
      </trkpt>
      <trkpt lat="48.62114" lon="-4.25993">
        <ele>28.5</ele>
        <time>2020-06-10T08:24:47Z</time>
      </trkpt>
      <trkpt lat="48.62116" lon="-4.25995">
        <ele>28.9</ele>
        <time>2020-06-10T08:24:48Z</time>
      </trkpt>
      <trkpt lat="48.62119" lon="-4.25998">
        <ele>29.2</ele>
        <time>2020-06-10T08:24:49Z</time>
      </trkpt>
      <trkpt lat="48.62121" lon="-4.26001">
        <ele>29.5</ele>
        <time>2020-06-10T08:24:50Z</time>
      </trkpt>
      <trkpt lat="48.62123" lon="-4.26002">
        <ele>29.8</ele>
        <time>2020-06-10T08:24:51Z</time>
      </trkpt>
      <trkpt lat="48.62126" lon="-4.26005">
        <ele>30.1</ele>
        <time>2020-06-10T08:24:52Z</time>
      </trkpt>
      <trkpt lat="48.62128" lon="-4.26007">
        <ele>30.4</ele>
        <time>2020-06-10T08:24:53Z</time>
      </trkpt>
      <trkpt lat="48.62131" lon="-4.2601">
        <ele>30.7</ele>
        <time>2020-06-10T08:24:54Z</time>
      </trkpt>
      <trkpt lat="48.62133" lon="-4.26013">
        <ele>31</ele>
        <time>2020-06-10T08:24:55Z</time>
      </trkpt>
      <trkpt lat="48.62136" lon="-4.26016">
        <ele>31.4</ele>
        <time>2020-06-10T08:24:56Z</time>
      </trkpt>
      <trkpt lat="48.62138" lon="-4.26019">
        <ele>31.7</ele>
        <time>2020-06-10T08:24:57Z</time>
      </trkpt>
      <trkpt lat="48.62141" lon="-4.26022">
        <ele>32</ele>
        <time>2020-06-10T08:24:58Z</time>
      </trkpt>
      <trkpt lat="48.62145" lon="-4.26024">
        <ele>32.5</ele>
        <time>2020-06-10T08:24:59Z</time>
      </trkpt>
      <trkpt lat="48.62146" lon="-4.26025">
        <ele>32.6</ele>
        <time>2020-06-10T08:25:00Z</time>
      </trkpt>
      <trkpt lat="48.62148" lon="-4.26028">
        <ele>32.9</ele>
        <time>2020-06-10T08:25:01Z</time>
      </trkpt>
      <trkpt lat="48.62151" lon="-4.2603">
        <ele>33.2</ele>
        <time>2020-06-10T08:25:02Z</time>
      </trkpt>
      <trkpt lat="48.62153" lon="-4.26031">
        <ele>33.5</ele>
        <time>2020-06-10T08:25:03Z</time>
      </trkpt>
      <trkpt lat="48.62156" lon="-4.26033">
        <ele>33.8</ele>
        <time>2020-06-10T08:25:04Z</time>
      </trkpt>
      <trkpt lat="48.62157" lon="-4.26033">
        <ele>33.9</ele>
        <time>2020-06-10T08:25:05Z</time>
      </trkpt>
      <trkpt lat="48.6216" lon="-4.26036">
        <ele>34.3</ele>
        <time>2020-06-10T08:25:06Z</time>
      </trkpt>
      <trkpt lat="48.6216" lon="-4.26037">
        <ele>34.4</ele>
        <time>2020-06-10T08:25:07Z</time>
      </trkpt>
      <trkpt lat="48.62163" lon="-4.26039">
        <ele>34.6</ele>
        <time>2020-06-10T08:25:08Z</time>
      </trkpt>
      <trkpt lat="48.62163" lon="-4.2604">
        <ele>34.8</ele>
        <time>2020-06-10T08:25:09Z</time>
      </trkpt>
      <trkpt lat="48.62166" lon="-4.26042">
        <ele>35.1</ele>
        <time>2020-06-10T08:25:10Z</time>
      </trkpt>
      <trkpt lat="48.62169" lon="-4.26044">
        <ele>35.4</ele>
        <time>2020-06-10T08:25:11Z</time>
      </trkpt>
      <trkpt lat="48.62172" lon="-4.26046">
        <ele>35.7</ele>
        <time>2020-06-10T08:25:12Z</time>
      </trkpt>
      <trkpt lat="48.62175" lon="-4.26048">
        <ele>36.1</ele>
        <time>2020-06-10T08:25:13Z</time>
      </trkpt>
      <trkpt lat="48.62178" lon="-4.26049">
        <ele>36.4</ele>
        <time>2020-06-10T08:25:14Z</time>
      </trkpt>
      <trkpt lat="48.62181" lon="-4.26052">
        <ele>36.8</ele>
        <time>2020-06-10T08:25:15Z</time>
      </trkpt>
      <trkpt lat="48.62183" lon="-4.26053">
        <ele>37</ele>
        <time>2020-06-10T08:25:16Z</time>
      </trkpt>
      <trkpt lat="48.62185" lon="-4.26055">
        <ele>37.3</ele>
        <time>2020-06-10T08:25:17Z</time>
      </trkpt>
      <trkpt lat="48.62188" lon="-4.26057">
        <ele>37.7</ele>
        <time>2020-06-10T08:25:18Z</time>
      </trkpt>
      <trkpt lat="48.62189" lon="-4.26058">
        <ele>37.8</ele>
        <time>2020-06-10T08:25:19Z</time>
      </trkpt>
      <trkpt lat="48.62193" lon="-4.2606">
        <ele>38.3</ele>
        <time>2020-06-10T08:25:20Z</time>
      </trkpt>
      <trkpt lat="48.62194" lon="-4.26062">
        <ele>38.4</ele>
        <time>2020-06-10T08:25:21Z</time>
      </trkpt>
      <trkpt lat="48.62196" lon="-4.26064">
        <ele>39.3</ele>
        <time>2020-06-10T08:25:22Z</time>
      </trkpt>
      <trkpt lat="48.62199" lon="-4.26066">
        <ele>39.4</ele>
        <time>2020-06-10T08:25:23Z</time>
      </trkpt>
      <trkpt lat="48.622" lon="-4.26066">
        <ele>39.4</ele>
        <time>2020-06-10T08:25:24Z</time>
      </trkpt>
      <trkpt lat="48.62203" lon="-4.26069">
        <ele>39.5</ele>
        <time>2020-06-10T08:25:25Z</time>
      </trkpt>
      <trkpt lat="48.62203" lon="-4.2607">
        <ele>39.5</ele>
        <time>2020-06-10T08:25:26Z</time>
      </trkpt>
      <trkpt lat="48.62205" lon="-4.26072">
        <ele>39.6</ele>
        <time>2020-06-10T08:25:27Z</time>
      </trkpt>
      <trkpt lat="48.62207" lon="-4.26073">
        <ele>39.7</ele>
        <time>2020-06-10T08:25:28Z</time>
      </trkpt>
      <trkpt lat="48.62209" lon="-4.26075">
        <ele>39.7</ele>
        <time>2020-06-10T08:25:29Z</time>
      </trkpt>
      <trkpt lat="48.62213" lon="-4.26078">
        <ele>39.9</ele>
        <time>2020-06-10T08:25:30Z</time>
      </trkpt>
      <trkpt lat="48.62214" lon="-4.26079">
        <ele>39.9</ele>
        <time>2020-06-10T08:25:31Z</time>
      </trkpt>
      <trkpt lat="48.62216" lon="-4.26081">
        <ele>40</ele>
        <time>2020-06-10T08:25:32Z</time>
      </trkpt>
      <trkpt lat="48.62217" lon="-4.26082">
        <ele>40</ele>
        <time>2020-06-10T08:25:33Z</time>
      </trkpt>
      <trkpt lat="48.62219" lon="-4.26083">
        <ele>40.1</ele>
        <time>2020-06-10T08:25:34Z</time>
      </trkpt>
      <trkpt lat="48.6222" lon="-4.26084">
        <ele>40.1</ele>
        <time>2020-06-10T08:25:35Z</time>
      </trkpt>
      <trkpt lat="48.62221" lon="-4.26085">
        <ele>40.2</ele>
        <time>2020-06-10T08:25:36Z</time>
      </trkpt>
      <trkpt lat="48.62222" lon="-4.26087">
        <ele>40.2</ele>
        <time>2020-06-10T08:25:37Z</time>
      </trkpt>
      <trkpt lat="48.62223" lon="-4.26088">
        <ele>40.3</ele>
        <time>2020-06-10T08:25:38Z</time>
      </trkpt>
      <trkpt lat="48.62225" lon="-4.26089">
        <ele>40.4</ele>
        <time>2020-06-10T08:25:39Z</time>
      </trkpt>
      <trkpt lat="48.62227" lon="-4.26092">
        <ele>40.5</ele>
        <time>2020-06-10T08:25:40Z</time>
      </trkpt>
      <trkpt lat="48.6223" lon="-4.26095">
        <ele>40.6</ele>
        <time>2020-06-10T08:25:41Z</time>
      </trkpt>
      <trkpt lat="48.62231" lon="-4.26097">
        <ele>40.7</ele>
        <time>2020-06-10T08:25:42Z</time>
      </trkpt>
      <trkpt lat="48.62234" lon="-4.26099">
        <ele>40.8</ele>
        <time>2020-06-10T08:25:43Z</time>
      </trkpt>
      <trkpt lat="48.62237" lon="-4.26101">
        <ele>40.9</ele>
        <time>2020-06-10T08:25:44Z</time>
      </trkpt>
      <trkpt lat="48.62238" lon="-4.26102">
        <ele>41</ele>
        <time>2020-06-10T08:25:45Z</time>
      </trkpt>
      <trkpt lat="48.62241" lon="-4.26104">
        <ele>41.1</ele>
        <time>2020-06-10T08:25:46Z</time>
      </trkpt>
      <trkpt lat="48.62244" lon="-4.26105">
        <ele>41.2</ele>
        <time>2020-06-10T08:25:47Z</time>
      </trkpt>
      <trkpt lat="48.62245" lon="-4.26106">
        <ele>41.2</ele>
        <time>2020-06-10T08:25:48Z</time>
      </trkpt>
      <trkpt lat="48.62247" lon="-4.26108">
        <ele>41.3</ele>
        <time>2020-06-10T08:25:49Z</time>
      </trkpt>
      <trkpt lat="48.62251" lon="-4.26111">
        <ele>41.5</ele>
        <time>2020-06-10T08:25:50Z</time>
      </trkpt>
      <trkpt lat="48.62253" lon="-4.26112">
        <ele>41.5</ele>
        <time>2020-06-10T08:25:51Z</time>
      </trkpt>
      <trkpt lat="48.62254" lon="-4.26112">
        <ele>41.6</ele>
        <time>2020-06-10T08:25:52Z</time>
      </trkpt>
      <trkpt lat="48.62256" lon="-4.26113">
        <ele>41.6</ele>
        <time>2020-06-10T08:25:53Z</time>
      </trkpt>
      <trkpt lat="48.6226" lon="-4.26113">
        <ele>41.7</ele>
        <time>2020-06-10T08:25:54Z</time>
      </trkpt>
      <trkpt lat="48.62261" lon="-4.26113">
        <ele>41.7</ele>
        <time>2020-06-10T08:25:55Z</time>
      </trkpt>
      <trkpt lat="48.62264" lon="-4.26114">
        <ele>41.7</ele>
        <time>2020-06-10T08:25:56Z</time>
      </trkpt>
      <trkpt lat="48.62267" lon="-4.26114">
        <ele>41.8</ele>
        <time>2020-06-10T08:25:57Z</time>
      </trkpt>
      <trkpt lat="48.62271" lon="-4.26114">
        <ele>41.8</ele>
        <time>2020-06-10T08:25:58Z</time>
      </trkpt>
      <trkpt lat="48.62272" lon="-4.26115">
        <ele>41.8</ele>
        <time>2020-06-10T08:25:59Z</time>
      </trkpt>
      <trkpt lat="48.62274" lon="-4.26116">
        <ele>41.7</ele>
        <time>2020-06-10T08:26:00Z</time>
      </trkpt>
      <trkpt lat="48.62275" lon="-4.26116">
        <ele>41.7</ele>
        <time>2020-06-10T08:26:01Z</time>
      </trkpt>
      <trkpt lat="48.62277" lon="-4.26116">
        <ele>41.7</ele>
        <time>2020-06-10T08:26:02Z</time>
      </trkpt>
      <trkpt lat="48.62278" lon="-4.26116">
        <ele>41.6</ele>
        <time>2020-06-10T08:26:03Z</time>
      </trkpt>
      <trkpt lat="48.6228" lon="-4.26117">
        <ele>41.6</ele>
        <time>2020-06-10T08:26:04Z</time>
      </trkpt>
      <trkpt lat="48.62283" lon="-4.26116">
        <ele>41.5</ele>
        <time>2020-06-10T08:26:05Z</time>
      </trkpt>
      <trkpt lat="48.62284" lon="-4.26116">
        <ele>41.4</ele>
        <time>2020-06-10T08:26:06Z</time>
      </trkpt>
      <trkpt lat="48.62287" lon="-4.26116">
        <ele>41.3</ele>
        <time>2020-06-10T08:26:07Z</time>
      </trkpt>
      <trkpt lat="48.62291" lon="-4.26115">
        <ele>41.1</ele>
        <time>2020-06-10T08:26:08Z</time>
      </trkpt>
      <trkpt lat="48.62292" lon="-4.26115">
        <ele>43.2</ele>
        <time>2020-06-10T08:26:09Z</time>
      </trkpt>
      <trkpt lat="48.62294" lon="-4.26115">
        <ele>43.2</ele>
        <time>2020-06-10T08:26:10Z</time>
      </trkpt>
      <trkpt lat="48.62294" lon="-4.26115">
        <ele>43.2</ele>
        <time>2020-06-10T08:26:11Z</time>
      </trkpt>
      <trkpt lat="48.62295" lon="-4.26116">
        <ele>43.2</ele>
        <time>2020-06-10T08:26:12Z</time>
      </trkpt>
      <trkpt lat="48.62297" lon="-4.26116">
        <ele>43.2</ele>
        <time>2020-06-10T08:26:13Z</time>
      </trkpt>
      <trkpt lat="48.62298" lon="-4.26115">
        <ele>43.2</ele>
        <time>2020-06-10T08:26:14Z</time>
      </trkpt>
      <trkpt lat="48.62299" lon="-4.26114">
        <ele>43.2</ele>
        <time>2020-06-10T08:26:15Z</time>
      </trkpt>
      <trkpt lat="48.623" lon="-4.26112">
        <ele>43.3</ele>
        <time>2020-06-10T08:26:16Z</time>
      </trkpt>
      <trkpt lat="48.62301" lon="-4.26112">
        <ele>43.3</ele>
        <time>2020-06-10T08:26:17Z</time>
      </trkpt>
      <trkpt lat="48.62301" lon="-4.26112">
        <ele>43.3</ele>
        <time>2020-06-10T08:26:18Z</time>
      </trkpt>
      <trkpt lat="48.62302" lon="-4.26112">
        <ele>43.3</ele>
        <time>2020-06-10T08:26:19Z</time>
      </trkpt>
      <trkpt lat="48.62304" lon="-4.26113">
        <ele>43.3</ele>
        <time>2020-06-10T08:26:20Z</time>
      </trkpt>
      <trkpt lat="48.62305" lon="-4.26113">
        <ele>43.3</ele>
        <time>2020-06-10T08:26:21Z</time>
      </trkpt>
      <trkpt lat="48.62306" lon="-4.26112">
        <ele>43.3</ele>
        <time>2020-06-10T08:26:22Z</time>
      </trkpt>
      <trkpt lat="48.62309" lon="-4.2611">
        <ele>43.3</ele>
        <time>2020-06-10T08:26:23Z</time>
      </trkpt>
      <trkpt lat="48.62309" lon="-4.2611">
        <ele>43.3</ele>
        <time>2020-06-10T08:26:24Z</time>
      </trkpt>
      <trkpt lat="48.62311" lon="-4.2611">
        <ele>43.3</ele>
        <time>2020-06-10T08:26:25Z</time>
      </trkpt>
      <trkpt lat="48.6231" lon="-4.26108">
        <ele>43.3</ele>
        <time>2020-06-10T08:26:26Z</time>
      </trkpt>
      <trkpt lat="48.62311" lon="-4.26107">
        <ele>43.3</ele>
        <time>2020-06-10T08:26:27Z</time>
      </trkpt>
      <trkpt lat="48.62312" lon="-4.26111">
        <ele>43.3</ele>
        <time>2020-06-10T08:26:28Z</time>
      </trkpt>
      <trkpt lat="48.62312" lon="-4.26112">
        <ele>43.3</ele>
        <time>2020-06-10T08:26:29Z</time>
      </trkpt>
      <trkpt lat="48.62313" lon="-4.26112">
        <ele>43.3</ele>
        <time>2020-06-10T08:26:30Z</time>
      </trkpt>
      <trkpt lat="48.62313" lon="-4.26111">
        <ele>43.3</ele>
        <time>2020-06-10T08:26:31Z</time>
      </trkpt>
      <trkpt lat="48.62313" lon="-4.26111">
        <ele>43.3</ele>
        <time>2020-06-10T08:26:32Z</time>
      </trkpt>
      <trkpt lat="48.62314" lon="-4.2611">
        <ele>43.3</ele>
        <time>2020-06-10T08:26:33Z</time>
      </trkpt>
      <trkpt lat="48.62315" lon="-4.26109">
        <ele>43.3</ele>
        <time>2020-06-10T08:26:34Z</time>
      </trkpt>
      <trkpt lat="48.62315" lon="-4.26108">
        <ele>43.3</ele>
        <time>2020-06-10T08:26:35Z</time>
      </trkpt>
      <trkpt lat="48.62315" lon="-4.26108">
        <ele>43.3</ele>
        <time>2020-06-10T08:26:36Z</time>
      </trkpt>
      <trkpt lat="48.62316" lon="-4.26109">
        <ele>43.3</ele>
        <time>2020-06-10T08:26:37Z</time>
      </trkpt>
      <trkpt lat="48.62316" lon="-4.26109">
        <ele>43.3</ele>
        <time>2020-06-10T08:26:38Z</time>
      </trkpt>
      <trkpt lat="48.62316" lon="-4.2611">
        <ele>43.3</ele>
        <time>2020-06-10T08:26:39Z</time>
      </trkpt>
      <trkpt lat="48.62316" lon="-4.2611">
        <ele>43.3</ele>
        <time>2020-06-10T08:26:40Z</time>
      </trkpt>
      <trkpt lat="48.62316" lon="-4.26111">
        <ele>43.3</ele>
        <time>2020-06-10T08:26:41Z</time>
      </trkpt>
      <trkpt lat="48.62317" lon="-4.26111">
        <ele>43.3</ele>
        <time>2020-06-10T08:26:42Z</time>
      </trkpt>
      <trkpt lat="48.62317" lon="-4.26112">
        <ele>43.3</ele>
        <time>2020-06-10T08:26:43Z</time>
      </trkpt>
      <trkpt lat="48.62317" lon="-4.26113">
        <ele>43.3</ele>
        <time>2020-06-10T08:26:44Z</time>
      </trkpt>
      <trkpt lat="48.62317" lon="-4.26113">
        <ele>43.3</ele>
        <time>2020-06-10T08:26:45Z</time>
      </trkpt>
      <trkpt lat="48.62317" lon="-4.26114">
        <ele>43.3</ele>
        <time>2020-06-10T08:26:46Z</time>
      </trkpt>
      <trkpt lat="48.62318" lon="-4.26114">
        <ele>43.3</ele>
        <time>2020-06-10T08:38:35Z</time>
      </trkpt>
      <trkpt lat="48.62318" lon="-4.26115">
        <ele>43.3</ele>
        <time>2020-06-10T08:38:36Z</time>
      </trkpt>
      <trkpt lat="48.62318" lon="-4.26115">
        <ele>43.3</ele>
        <time>2020-06-10T08:38:37Z</time>
      </trkpt>
      <trkpt lat="48.62315" lon="-4.26118">
        <ele>43.3</ele>
        <time>2020-06-10T08:38:38Z</time>
      </trkpt>
      <trkpt lat="48.62314" lon="-4.26119">
        <ele>43.3</ele>
        <time>2020-06-10T08:38:39Z</time>
      </trkpt>
      <trkpt lat="48.62311" lon="-4.2612">
        <ele>43.2</ele>
        <time>2020-06-10T08:38:40Z</time>
      </trkpt>
      <trkpt lat="48.62309" lon="-4.26122">
        <ele>43.2</ele>
        <time>2020-06-10T08:38:41Z</time>
      </trkpt>
      <trkpt lat="48.62308" lon="-4.26123">
        <ele>43.2</ele>
        <time>2020-06-10T08:38:42Z</time>
      </trkpt>
      <trkpt lat="48.62305" lon="-4.26126">
        <ele>43.2</ele>
        <time>2020-06-10T08:38:43Z</time>
      </trkpt>
      <trkpt lat="48.62304" lon="-4.26127">
        <ele>43.2</ele>
        <time>2020-06-10T08:38:44Z</time>
      </trkpt>
      <trkpt lat="48.62302" lon="-4.26127">
        <ele>43.2</ele>
        <time>2020-06-10T08:38:45Z</time>
      </trkpt>
      <trkpt lat="48.62301" lon="-4.26128">
        <ele>43.2</ele>
        <time>2020-06-10T08:38:46Z</time>
      </trkpt>
      <trkpt lat="48.62299" lon="-4.26125">
        <ele>43.2</ele>
        <time>2020-06-10T08:38:47Z</time>
      </trkpt>
      <trkpt lat="48.62298" lon="-4.26125">
        <ele>43.2</ele>
        <time>2020-06-10T08:38:48Z</time>
      </trkpt>
      <trkpt lat="48.62294" lon="-4.26123">
        <ele>43.2</ele>
        <time>2020-06-10T08:38:49Z</time>
      </trkpt>
      <trkpt lat="48.62293" lon="-4.26122">
        <ele>43.2</ele>
        <time>2020-06-10T08:38:50Z</time>
      </trkpt>
      <trkpt lat="48.6229" lon="-4.26122">
        <ele>41.1</ele>
        <time>2020-06-10T08:38:51Z</time>
      </trkpt>
      <trkpt lat="48.62286" lon="-4.26122">
        <ele>41.3</ele>
        <time>2020-06-10T08:38:52Z</time>
      </trkpt>
      <trkpt lat="48.62283" lon="-4.26121">
        <ele>41.5</ele>
        <time>2020-06-10T08:38:53Z</time>
      </trkpt>
      <trkpt lat="48.6228" lon="-4.26121">
        <ele>41.6</ele>
        <time>2020-06-10T08:38:54Z</time>
      </trkpt>
      <trkpt lat="48.62276" lon="-4.2612">
        <ele>41.7</ele>
        <time>2020-06-10T08:38:55Z</time>
      </trkpt>
      <trkpt lat="48.62272" lon="-4.26119">
        <ele>41.8</ele>
        <time>2020-06-10T08:38:56Z</time>
      </trkpt>
      <trkpt lat="48.62267" lon="-4.26118">
        <ele>41.7</ele>
        <time>2020-06-10T08:38:57Z</time>
      </trkpt>
      <trkpt lat="48.62264" lon="-4.26117">
        <ele>41.7</ele>
        <time>2020-06-10T08:38:58Z</time>
      </trkpt>
      <trkpt lat="48.62259" lon="-4.26116">
        <ele>41.6</ele>
        <time>2020-06-10T08:38:59Z</time>
      </trkpt>
      <trkpt lat="48.62253" lon="-4.26113">
        <ele>41.5</ele>
        <time>2020-06-10T08:39:00Z</time>
      </trkpt>
      <trkpt lat="48.62248" lon="-4.26109">
        <ele>41.3</ele>
        <time>2020-06-10T08:39:01Z</time>
      </trkpt>
      <trkpt lat="48.62241" lon="-4.26105">
        <ele>41</ele>
        <time>2020-06-10T08:39:02Z</time>
      </trkpt>
      <trkpt lat="48.62235" lon="-4.261">
        <ele>40.7</ele>
        <time>2020-06-10T08:39:03Z</time>
      </trkpt>
      <trkpt lat="48.62228" lon="-4.26094">
        <ele>40.4</ele>
        <time>2020-06-10T08:39:04Z</time>
      </trkpt>
      <trkpt lat="48.62221" lon="-4.26088">
        <ele>40.1</ele>
        <time>2020-06-10T08:39:05Z</time>
      </trkpt>
      <trkpt lat="48.62214" lon="-4.26081">
        <ele>39.8</ele>
        <time>2020-06-10T08:39:06Z</time>
      </trkpt>
      <trkpt lat="48.62207" lon="-4.26074">
        <ele>39.6</ele>
        <time>2020-06-10T08:39:07Z</time>
      </trkpt>
      <trkpt lat="48.62199" lon="-4.26067">
        <ele>39.3</ele>
        <time>2020-06-10T08:39:08Z</time>
      </trkpt>
      <trkpt lat="48.62191" lon="-4.2606">
        <ele>37.9</ele>
        <time>2020-06-10T08:39:09Z</time>
      </trkpt>
      <trkpt lat="48.62183" lon="-4.26053">
        <ele>36.4</ele>
        <time>2020-06-10T08:39:10Z</time>
      </trkpt>
      <trkpt lat="48.62174" lon="-4.26046">
        <ele>34.9</ele>
        <time>2020-06-10T08:39:11Z</time>
      </trkpt>
      <trkpt lat="48.62166" lon="-4.26039">
        <ele>33.4</ele>
        <time>2020-06-10T08:39:12Z</time>
      </trkpt>
      <trkpt lat="48.62158" lon="-4.26032">
        <ele>32</ele>
        <time>2020-06-10T08:39:13Z</time>
      </trkpt>
      <trkpt lat="48.6215" lon="-4.26025">
        <ele>30.6</ele>
        <time>2020-06-10T08:39:14Z</time>
      </trkpt>
      <trkpt lat="48.62142" lon="-4.26019">
        <ele>29.4</ele>
        <time>2020-06-10T08:39:15Z</time>
      </trkpt>
      <trkpt lat="48.62135" lon="-4.26013">
        <ele>28.1</ele>
        <time>2020-06-10T08:39:16Z</time>
      </trkpt>
      <trkpt lat="48.62129" lon="-4.26008">
        <ele>26.9</ele>
        <time>2020-06-10T08:39:17Z</time>
      </trkpt>
      <trkpt lat="48.62123" lon="-4.26004">
        <ele>25.9</ele>
        <time>2020-06-10T08:39:18Z</time>
      </trkpt>
      <trkpt lat="48.62117" lon="-4.26">
        <ele>25.1</ele>
        <time>2020-06-10T08:39:19Z</time>
      </trkpt>
      <trkpt lat="48.62112" lon="-4.25996">
        <ele>24.2</ele>
        <time>2020-06-10T08:39:20Z</time>
      </trkpt>
      <trkpt lat="48.62108" lon="-4.25993">
        <ele>23.5</ele>
        <time>2020-06-10T08:39:21Z</time>
      </trkpt>
      <trkpt lat="48.62104" lon="-4.25989">
        <ele>22.8</ele>
        <time>2020-06-10T08:39:22Z</time>
      </trkpt>
      <trkpt lat="48.621" lon="-4.25984">
        <ele>22.2</ele>
        <time>2020-06-10T08:39:23Z</time>
      </trkpt>
      <trkpt lat="48.62097" lon="-4.2598">
        <ele>21.4</ele>
        <time>2020-06-10T08:39:24Z</time>
      </trkpt>
      <trkpt lat="48.62095" lon="-4.25972">
        <ele>21.4</ele>
        <time>2020-06-10T08:39:25Z</time>
      </trkpt>
      <trkpt lat="48.62095" lon="-4.25964">
        <ele>21.4</ele>
        <time>2020-06-10T08:39:26Z</time>
      </trkpt>
      <trkpt lat="48.62095" lon="-4.25955">
        <ele>21.4</ele>
        <time>2020-06-10T08:39:27Z</time>
      </trkpt>
      <trkpt lat="48.62096" lon="-4.25948">
        <ele>21.4</ele>
        <time>2020-06-10T08:39:28Z</time>
      </trkpt>
      <trkpt lat="48.62097" lon="-4.2594">
        <ele>21.4</ele>
        <time>2020-06-10T08:39:29Z</time>
      </trkpt>
      <trkpt lat="48.62097" lon="-4.25932">
        <ele>21.5</ele>
        <time>2020-06-10T08:39:30Z</time>
      </trkpt>
      <trkpt lat="48.62097" lon="-4.25924">
        <ele>21.5</ele>
        <time>2020-06-10T08:39:31Z</time>
      </trkpt>
      <trkpt lat="48.62098" lon="-4.25916">
        <ele>21.6</ele>
        <time>2020-06-10T08:39:32Z</time>
      </trkpt>
      <trkpt lat="48.62098" lon="-4.25908">
        <ele>21.6</ele>
        <time>2020-06-10T08:39:33Z</time>
      </trkpt>
      <trkpt lat="48.62099" lon="-4.25899">
        <ele>21.7</ele>
        <time>2020-06-10T08:39:34Z</time>
      </trkpt>
      <trkpt lat="48.62099" lon="-4.25891">
        <ele>21.7</ele>
        <time>2020-06-10T08:39:35Z</time>
      </trkpt>
      <trkpt lat="48.62099" lon="-4.25884">
        <ele>21.7</ele>
        <time>2020-06-10T08:39:36Z</time>
      </trkpt>
      <trkpt lat="48.621" lon="-4.25877">
        <ele>21.8</ele>
        <time>2020-06-10T08:39:37Z</time>
      </trkpt>
      <trkpt lat="48.621" lon="-4.25871">
        <ele>21.9</ele>
        <time>2020-06-10T08:39:38Z</time>
      </trkpt>
      <trkpt lat="48.621" lon="-4.25864">
        <ele>22</ele>
        <time>2020-06-10T08:39:39Z</time>
      </trkpt>
      <trkpt lat="48.621" lon="-4.25858">
        <ele>22.1</ele>
        <time>2020-06-10T08:39:40Z</time>
      </trkpt>
      <trkpt lat="48.621" lon="-4.25851">
        <ele>22.1</ele>
        <time>2020-06-10T08:39:41Z</time>
      </trkpt>
      <trkpt lat="48.621" lon="-4.25845">
        <ele>22.2</ele>
        <time>2020-06-10T08:39:42Z</time>
      </trkpt>
      <trkpt lat="48.62101" lon="-4.25838">
        <ele>22.2</ele>
        <time>2020-06-10T08:39:43Z</time>
      </trkpt>
      <trkpt lat="48.62101" lon="-4.25831">
        <ele>22.3</ele>
        <time>2020-06-10T08:39:44Z</time>
      </trkpt>
      <trkpt lat="48.62101" lon="-4.25824">
        <ele>22.3</ele>
        <time>2020-06-10T08:39:45Z</time>
      </trkpt>
      <trkpt lat="48.62101" lon="-4.25818">
        <ele>22.4</ele>
        <time>2020-06-10T08:39:46Z</time>
      </trkpt>
      <trkpt lat="48.62102" lon="-4.25811">
        <ele>22.4</ele>
        <time>2020-06-10T08:39:47Z</time>
      </trkpt>
      <trkpt lat="48.62103" lon="-4.25804">
        <ele>22.5</ele>
        <time>2020-06-10T08:39:48Z</time>
      </trkpt>
      <trkpt lat="48.62103" lon="-4.25797">
        <ele>22.5</ele>
        <time>2020-06-10T08:39:49Z</time>
      </trkpt>
      <trkpt lat="48.62103" lon="-4.2579">
        <ele>22.6</ele>
        <time>2020-06-10T08:39:50Z</time>
      </trkpt>
      <trkpt lat="48.62103" lon="-4.25783">
        <ele>22.7</ele>
        <time>2020-06-10T08:39:51Z</time>
      </trkpt>
      <trkpt lat="48.62103" lon="-4.25775">
        <ele>22.7</ele>
        <time>2020-06-10T08:39:52Z</time>
      </trkpt>
      <trkpt lat="48.62103" lon="-4.25768">
        <ele>22.8</ele>
        <time>2020-06-10T08:39:53Z</time>
      </trkpt>
      <trkpt lat="48.62103" lon="-4.2576">
        <ele>22.8</ele>
        <time>2020-06-10T08:39:54Z</time>
      </trkpt>
      <trkpt lat="48.62104" lon="-4.25753">
        <ele>22.8</ele>
        <time>2020-06-10T08:39:55Z</time>
      </trkpt>
      <trkpt lat="48.62104" lon="-4.25746">
        <ele>22.7</ele>
        <time>2020-06-10T08:39:56Z</time>
      </trkpt>
      <trkpt lat="48.62104" lon="-4.25738">
        <ele>22.7</ele>
        <time>2020-06-10T08:39:57Z</time>
      </trkpt>
      <trkpt lat="48.62104" lon="-4.2573">
        <ele>22.7</ele>
        <time>2020-06-10T08:39:58Z</time>
      </trkpt>
      <trkpt lat="48.62104" lon="-4.25722">
        <ele>22.8</ele>
        <time>2020-06-10T08:39:59Z</time>
      </trkpt>
      <trkpt lat="48.62104" lon="-4.25714">
        <ele>22.8</ele>
        <time>2020-06-10T08:40:00Z</time>
      </trkpt>
      <trkpt lat="48.62104" lon="-4.25706">
        <ele>22.9</ele>
        <time>2020-06-10T08:40:01Z</time>
      </trkpt>
      <trkpt lat="48.62104" lon="-4.25699">
        <ele>23</ele>
        <time>2020-06-10T08:40:02Z</time>
      </trkpt>
      <trkpt lat="48.62103" lon="-4.25691">
        <ele>23</ele>
        <time>2020-06-10T08:40:03Z</time>
      </trkpt>
      <trkpt lat="48.62102" lon="-4.25684">
        <ele>23.1</ele>
        <time>2020-06-10T08:40:04Z</time>
      </trkpt>
      <trkpt lat="48.62102" lon="-4.25677">
        <ele>23.2</ele>
        <time>2020-06-10T08:40:05Z</time>
      </trkpt>
      <trkpt lat="48.62102" lon="-4.2567">
        <ele>23.2</ele>
        <time>2020-06-10T08:40:06Z</time>
      </trkpt>
      <trkpt lat="48.62102" lon="-4.25663">
        <ele>23.3</ele>
        <time>2020-06-10T08:40:07Z</time>
      </trkpt>
      <trkpt lat="48.62102" lon="-4.25657">
        <ele>23.4</ele>
        <time>2020-06-10T08:40:08Z</time>
      </trkpt>
      <trkpt lat="48.62102" lon="-4.2565">
        <ele>23.5</ele>
        <time>2020-06-10T08:40:09Z</time>
      </trkpt>
      <trkpt lat="48.62103" lon="-4.25644">
        <ele>23.5</ele>
        <time>2020-06-10T08:40:10Z</time>
      </trkpt>
      <trkpt lat="48.62103" lon="-4.25637">
        <ele>23.6</ele>
        <time>2020-06-10T08:40:11Z</time>
      </trkpt>
      <trkpt lat="48.62102" lon="-4.2563">
        <ele>23.8</ele>
        <time>2020-06-10T08:40:12Z</time>
      </trkpt>
      <trkpt lat="48.62103" lon="-4.25623">
        <ele>23.9</ele>
        <time>2020-06-10T08:40:13Z</time>
      </trkpt>
      <trkpt lat="48.62103" lon="-4.25617">
        <ele>23.9</ele>
        <time>2020-06-10T08:40:14Z</time>
      </trkpt>
      <trkpt lat="48.62102" lon="-4.2561">
        <ele>24</ele>
        <time>2020-06-10T08:40:15Z</time>
      </trkpt>
      <trkpt lat="48.62103" lon="-4.25604">
        <ele>24.1</ele>
        <time>2020-06-10T08:40:16Z</time>
      </trkpt>
      <trkpt lat="48.62104" lon="-4.25597">
        <ele>24.3</ele>
        <time>2020-06-10T08:40:17Z</time>
      </trkpt>
      <trkpt lat="48.62105" lon="-4.25591">
        <ele>24.4</ele>
        <time>2020-06-10T08:40:18Z</time>
      </trkpt>
      <trkpt lat="48.62105" lon="-4.25585">
        <ele>24.6</ele>
        <time>2020-06-10T08:40:19Z</time>
      </trkpt>
      <trkpt lat="48.62106" lon="-4.25579">
        <ele>24.8</ele>
        <time>2020-06-10T08:40:20Z</time>
      </trkpt>
      <trkpt lat="48.62107" lon="-4.25572">
        <ele>25</ele>
        <time>2020-06-10T08:40:21Z</time>
      </trkpt>
      <trkpt lat="48.62107" lon="-4.25566">
        <ele>25.2</ele>
        <time>2020-06-10T08:40:22Z</time>
      </trkpt>
      <trkpt lat="48.62108" lon="-4.2556">
        <ele>25.4</ele>
        <time>2020-06-10T08:40:23Z</time>
      </trkpt>
      <trkpt lat="48.62109" lon="-4.25554">
        <ele>25.7</ele>
        <time>2020-06-10T08:40:24Z</time>
      </trkpt>
      <trkpt lat="48.62109" lon="-4.25548">
        <ele>25.9</ele>
        <time>2020-06-10T08:40:25Z</time>
      </trkpt>
      <trkpt lat="48.6211" lon="-4.25543">
        <ele>26.1</ele>
        <time>2020-06-10T08:40:26Z</time>
      </trkpt>
      <trkpt lat="48.62111" lon="-4.25537">
        <ele>26.4</ele>
        <time>2020-06-10T08:40:27Z</time>
      </trkpt>
      <trkpt lat="48.62112" lon="-4.25531">
        <ele>26.6</ele>
        <time>2020-06-10T08:40:28Z</time>
      </trkpt>
      <trkpt lat="48.62112" lon="-4.25525">
        <ele>26.8</ele>
        <time>2020-06-10T08:40:29Z</time>
      </trkpt>
      <trkpt lat="48.62112" lon="-4.2552">
        <ele>27</ele>
        <time>2020-06-10T08:40:30Z</time>
      </trkpt>
      <trkpt lat="48.62113" lon="-4.25514">
        <ele>27.2</ele>
        <time>2020-06-10T08:40:31Z</time>
      </trkpt>
      <trkpt lat="48.62112" lon="-4.2551">
        <ele>27.4</ele>
        <time>2020-06-10T08:40:32Z</time>
      </trkpt>
      <trkpt lat="48.62111" lon="-4.25504">
        <ele>27.6</ele>
        <time>2020-06-10T08:40:33Z</time>
      </trkpt>
      <trkpt lat="48.6211" lon="-4.25498">
        <ele>27.8</ele>
        <time>2020-06-10T08:40:34Z</time>
      </trkpt>
      <trkpt lat="48.6211" lon="-4.25496">
        <ele>28</ele>
        <time>2020-06-10T08:40:35Z</time>
      </trkpt>
      <trkpt lat="48.62111" lon="-4.25492">
        <ele>28.1</ele>
        <time>2020-06-10T08:40:36Z</time>
      </trkpt>
      <trkpt lat="48.62112" lon="-4.25487">
        <ele>28.3</ele>
        <time>2020-06-10T08:40:37Z</time>
      </trkpt>
      <trkpt lat="48.62113" lon="-4.25482">
        <ele>28.5</ele>
        <time>2020-06-10T08:40:38Z</time>
      </trkpt>
      <trkpt lat="48.62114" lon="-4.25478">
        <ele>29</ele>
        <time>2020-06-10T08:40:39Z</time>
      </trkpt>
      <trkpt lat="48.62115" lon="-4.25475">
        <ele>29</ele>
        <time>2020-06-10T08:40:40Z</time>
      </trkpt>
      <trkpt lat="48.62114" lon="-4.25472">
        <ele>29</ele>
        <time>2020-06-10T08:40:41Z</time>
      </trkpt>
      <trkpt lat="48.62113" lon="-4.25469">
        <ele>29.1</ele>
        <time>2020-06-10T08:40:42Z</time>
      </trkpt>
      <trkpt lat="48.62111" lon="-4.25463">
        <ele>29.1</ele>
        <time>2020-06-10T08:40:43Z</time>
      </trkpt>
      <trkpt lat="48.62111" lon="-4.25461">
        <ele>29.2</ele>
        <time>2020-06-10T08:40:44Z</time>
      </trkpt>
      <trkpt lat="48.6211" lon="-4.25456">
        <ele>29.2</ele>
        <time>2020-06-10T08:40:45Z</time>
      </trkpt>
      <trkpt lat="48.62109" lon="-4.25451">
        <ele>29.3</ele>
        <time>2020-06-10T08:40:46Z</time>
      </trkpt>
      <trkpt lat="48.62109" lon="-4.2545">
        <ele>29.3</ele>
        <time>2020-06-10T08:40:47Z</time>
      </trkpt>
      <trkpt lat="48.62108" lon="-4.25446">
        <ele>29.3</ele>
        <time>2020-06-10T08:40:48Z</time>
      </trkpt>
      <trkpt lat="48.62108" lon="-4.25444">
        <ele>29.3</ele>
        <time>2020-06-10T08:40:49Z</time>
      </trkpt>
      <trkpt lat="48.62107" lon="-4.25439">
        <ele>29.4</ele>
        <time>2020-06-10T08:40:50Z</time>
      </trkpt>
      <trkpt lat="48.62106" lon="-4.25437">
        <ele>29.4</ele>
        <time>2020-06-10T08:40:51Z</time>
      </trkpt>
      <trkpt lat="48.62104" lon="-4.25433">
        <ele>29.4</ele>
        <time>2020-06-10T08:40:52Z</time>
      </trkpt>
      <trkpt lat="48.62104" lon="-4.25432">
        <ele>29.4</ele>
        <time>2020-06-10T08:40:53Z</time>
      </trkpt>
      <trkpt lat="48.62102" lon="-4.25426">
        <ele>29.5</ele>
        <time>2020-06-10T08:40:54Z</time>
      </trkpt>
      <trkpt lat="48.62101" lon="-4.25425">
        <ele>29.5</ele>
        <time>2020-06-10T08:40:55Z</time>
      </trkpt>
      <trkpt lat="48.621" lon="-4.25419">
        <ele>29.6</ele>
        <time>2020-06-10T08:40:56Z</time>
      </trkpt>
      <trkpt lat="48.62099" lon="-4.25415">
        <ele>29.6</ele>
        <time>2020-06-10T08:40:57Z</time>
      </trkpt>
      <trkpt lat="48.62098" lon="-4.25411">
        <ele>29.7</ele>
        <time>2020-06-10T08:40:58Z</time>
      </trkpt>
      <trkpt lat="48.62096" lon="-4.25406">
        <ele>29.7</ele>
        <time>2020-06-10T08:40:59Z</time>
      </trkpt>
      <trkpt lat="48.62095" lon="-4.25402">
        <ele>29.8</ele>
        <time>2020-06-10T08:41:00Z</time>
      </trkpt>
      <trkpt lat="48.62094" lon="-4.25397">
        <ele>29.9</ele>
        <time>2020-06-10T08:41:01Z</time>
      </trkpt>
      <trkpt lat="48.62093" lon="-4.25392">
        <ele>30</ele>
        <time>2020-06-10T08:41:02Z</time>
      </trkpt>
      <trkpt lat="48.62092" lon="-4.25388">
        <ele>30.1</ele>
        <time>2020-06-10T08:41:03Z</time>
      </trkpt>
      <trkpt lat="48.62092" lon="-4.25384">
        <ele>30.1</ele>
        <time>2020-06-10T08:41:04Z</time>
      </trkpt>
      <trkpt lat="48.62091" lon="-4.25379">
        <ele>30.2</ele>
        <time>2020-06-10T08:41:05Z</time>
      </trkpt>
      <trkpt lat="48.62091" lon="-4.25374">
        <ele>30.4</ele>
        <time>2020-06-10T08:41:06Z</time>
      </trkpt>
      <trkpt lat="48.6209" lon="-4.2537">
        <ele>30.5</ele>
        <time>2020-06-10T08:41:07Z</time>
      </trkpt>
      <trkpt lat="48.62088" lon="-4.25364">
        <ele>30.6</ele>
        <time>2020-06-10T08:41:08Z</time>
      </trkpt>
      <trkpt lat="48.62087" lon="-4.25362">
        <ele>30.7</ele>
        <time>2020-06-10T08:41:09Z</time>
      </trkpt>
      <trkpt lat="48.62086" lon="-4.25358">
        <ele>30.8</ele>
        <time>2020-06-10T08:41:10Z</time>
      </trkpt>
      <trkpt lat="48.62085" lon="-4.25353">
        <ele>31</ele>
        <time>2020-06-10T08:41:11Z</time>
      </trkpt>
      <trkpt lat="48.62083" lon="-4.25348">
        <ele>31.1</ele>
        <time>2020-06-10T08:41:12Z</time>
      </trkpt>
      <trkpt lat="48.62083" lon="-4.25344">
        <ele>31.3</ele>
        <time>2020-06-10T08:41:13Z</time>
      </trkpt>
      <trkpt lat="48.62082" lon="-4.25339">
        <ele>31.4</ele>
        <time>2020-06-10T08:41:14Z</time>
      </trkpt>
      <trkpt lat="48.62081" lon="-4.25334">
        <ele>31.6</ele>
        <time>2020-06-10T08:41:15Z</time>
      </trkpt>
      <trkpt lat="48.62079" lon="-4.25327">
        <ele>31.8</ele>
        <time>2020-06-10T08:41:16Z</time>
      </trkpt>
      <trkpt lat="48.62079" lon="-4.25324">
        <ele>31.9</ele>
        <time>2020-06-10T08:41:17Z</time>
      </trkpt>
      <trkpt lat="48.62077" lon="-4.25319">
        <ele>32</ele>
        <time>2020-06-10T08:41:18Z</time>
      </trkpt>
      <trkpt lat="48.62076" lon="-4.25313">
        <ele>32.2</ele>
        <time>2020-06-10T08:41:19Z</time>
      </trkpt>
      <trkpt lat="48.62075" lon="-4.25307">
        <ele>32.4</ele>
        <time>2020-06-10T08:41:20Z</time>
      </trkpt>
      <trkpt lat="48.62073" lon="-4.25299">
        <ele>32.6</ele>
        <time>2020-06-10T08:41:21Z</time>
      </trkpt>
      <trkpt lat="48.62072" lon="-4.25292">
        <ele>32.9</ele>
        <time>2020-06-10T08:41:22Z</time>
      </trkpt>
      <trkpt lat="48.62071" lon="-4.25288">
        <ele>33</ele>
        <time>2020-06-10T08:41:23Z</time>
      </trkpt>
      <trkpt lat="48.6207" lon="-4.25281">
        <ele>33.2</ele>
        <time>2020-06-10T08:41:24Z</time>
      </trkpt>
      <trkpt lat="48.62068" lon="-4.25273">
        <ele>33.5</ele>
        <time>2020-06-10T08:41:25Z</time>
      </trkpt>
      <trkpt lat="48.62066" lon="-4.25267">
        <ele>33.8</ele>
        <time>2020-06-10T08:41:26Z</time>
      </trkpt>
      <trkpt lat="48.62065" lon="-4.2526">
        <ele>34</ele>
        <time>2020-06-10T08:41:27Z</time>
      </trkpt>
      <trkpt lat="48.62063" lon="-4.25254">
        <ele>34.3</ele>
        <time>2020-06-10T08:41:28Z</time>
      </trkpt>
      <trkpt lat="48.62061" lon="-4.25249">
        <ele>34.5</ele>
        <time>2020-06-10T08:41:29Z</time>
      </trkpt>
      <trkpt lat="48.62059" lon="-4.25244">
        <ele>34.7</ele>
        <time>2020-06-10T08:41:30Z</time>
      </trkpt>
      <trkpt lat="48.62057" lon="-4.25238">
        <ele>35</ele>
        <time>2020-06-10T08:41:31Z</time>
      </trkpt>
      <trkpt lat="48.62055" lon="-4.25232">
        <ele>35.3</ele>
        <time>2020-06-10T08:41:32Z</time>
      </trkpt>
      <trkpt lat="48.62055" lon="-4.25228">
        <ele>35.4</ele>
        <time>2020-06-10T08:41:33Z</time>
      </trkpt>
      <trkpt lat="48.62054" lon="-4.25224">
        <ele>35.6</ele>
        <time>2020-06-10T08:41:34Z</time>
      </trkpt>
      <trkpt lat="48.62053" lon="-4.25219">
        <ele>35.9</ele>
        <time>2020-06-10T08:41:35Z</time>
      </trkpt>
      <trkpt lat="48.62051" lon="-4.25214">
        <ele>36.1</ele>
        <time>2020-06-10T08:41:36Z</time>
      </trkpt>
      <trkpt lat="48.62049" lon="-4.25209">
        <ele>36.3</ele>
        <time>2020-06-10T08:41:37Z</time>
      </trkpt>
      <trkpt lat="48.62047" lon="-4.25204">
        <ele>36.6</ele>
        <time>2020-06-10T08:41:38Z</time>
      </trkpt>
      <trkpt lat="48.62046" lon="-4.25199">
        <ele>36.8</ele>
        <time>2020-06-10T08:41:39Z</time>
      </trkpt>
      <trkpt lat="48.62045" lon="-4.25194">
        <ele>37</ele>
        <time>2020-06-10T08:41:40Z</time>
      </trkpt>
      <trkpt lat="48.62043" lon="-4.25189">
        <ele>37.3</ele>
        <time>2020-06-10T08:41:41Z</time>
      </trkpt>
      <trkpt lat="48.62042" lon="-4.25184">
        <ele>37.5</ele>
        <time>2020-06-10T08:41:42Z</time>
      </trkpt>
      <trkpt lat="48.6204" lon="-4.25179">
        <ele>37.7</ele>
        <time>2020-06-10T08:41:43Z</time>
      </trkpt>
      <trkpt lat="48.62039" lon="-4.25174">
        <ele>38</ele>
        <time>2020-06-10T08:41:44Z</time>
      </trkpt>
      <trkpt lat="48.62037" lon="-4.2517">
        <ele>38.2</ele>
        <time>2020-06-10T08:41:45Z</time>
      </trkpt>
      <trkpt lat="48.62036" lon="-4.25164">
        <ele>38.5</ele>
        <time>2020-06-10T08:41:46Z</time>
      </trkpt>
      <trkpt lat="48.62035" lon="-4.25159">
        <ele>38.8</ele>
        <time>2020-06-10T08:41:47Z</time>
      </trkpt>
      <trkpt lat="48.62034" lon="-4.25154">
        <ele>39</ele>
        <time>2020-06-10T08:41:48Z</time>
      </trkpt>
      <trkpt lat="48.62032" lon="-4.25149">
        <ele>39.2</ele>
        <time>2020-06-10T08:41:49Z</time>
      </trkpt>
      <trkpt lat="48.62031" lon="-4.25145">
        <ele>39.4</ele>
        <time>2020-06-10T08:41:50Z</time>
      </trkpt>
      <trkpt lat="48.6203" lon="-4.2514">
        <ele>39.7</ele>
        <time>2020-06-10T08:41:51Z</time>
      </trkpt>
      <trkpt lat="48.62028" lon="-4.25135">
        <ele>39.9</ele>
        <time>2020-06-10T08:41:52Z</time>
      </trkpt>
      <trkpt lat="48.62027" lon="-4.25129">
        <ele>40.2</ele>
        <time>2020-06-10T08:41:53Z</time>
      </trkpt>
      <trkpt lat="48.62026" lon="-4.25123">
        <ele>40.5</ele>
        <time>2020-06-10T08:41:54Z</time>
      </trkpt>
      <trkpt lat="48.62024" lon="-4.25118">
        <ele>40.8</ele>
        <time>2020-06-10T08:41:55Z</time>
      </trkpt>
      <trkpt lat="48.62023" lon="-4.25114">
        <ele>40.9</ele>
        <time>2020-06-10T08:41:56Z</time>
      </trkpt>
      <trkpt lat="48.62021" lon="-4.25108">
        <ele>41.2</ele>
        <time>2020-06-10T08:41:57Z</time>
      </trkpt>
      <trkpt lat="48.62019" lon="-4.25104">
        <ele>41.5</ele>
        <time>2020-06-10T08:41:58Z</time>
      </trkpt>
      <trkpt lat="48.62018" lon="-4.25099">
        <ele>41.7</ele>
        <time>2020-06-10T08:41:59Z</time>
      </trkpt>
      <trkpt lat="48.62016" lon="-4.25094">
        <ele>42</ele>
        <time>2020-06-10T08:42:00Z</time>
      </trkpt>
      <trkpt lat="48.62015" lon="-4.25089">
        <ele>42.3</ele>
        <time>2020-06-10T08:42:01Z</time>
      </trkpt>
      <trkpt lat="48.62014" lon="-4.25087">
        <ele>42.4</ele>
        <time>2020-06-10T08:42:02Z</time>
      </trkpt>
      <trkpt lat="48.62013" lon="-4.25083">
        <ele>42.6</ele>
        <time>2020-06-10T08:42:03Z</time>
      </trkpt>
      <trkpt lat="48.62012" lon="-4.25079">
        <ele>42.8</ele>
        <time>2020-06-10T08:42:04Z</time>
      </trkpt>
      <trkpt lat="48.6201" lon="-4.25074">
        <ele>43</ele>
        <time>2020-06-10T08:42:05Z</time>
      </trkpt>
      <trkpt lat="48.6201" lon="-4.25073">
        <ele>43.1</ele>
        <time>2020-06-10T08:42:06Z</time>
      </trkpt>
      <trkpt lat="48.62008" lon="-4.25066">
        <ele>43.4</ele>
        <time>2020-06-10T08:42:07Z</time>
      </trkpt>
      <trkpt lat="48.62008" lon="-4.25064">
        <ele>43.6</ele>
        <time>2020-06-10T08:42:08Z</time>
      </trkpt>
      <trkpt lat="48.62007" lon="-4.25058">
        <ele>43.8</ele>
        <time>2020-06-10T08:42:09Z</time>
      </trkpt>
      <trkpt lat="48.62005" lon="-4.25052">
        <ele>44.1</ele>
        <time>2020-06-10T08:42:10Z</time>
      </trkpt>
      <trkpt lat="48.62004" lon="-4.25047">
        <ele>44.4</ele>
        <time>2020-06-10T08:42:11Z</time>
      </trkpt>
      <trkpt lat="48.62002" lon="-4.25042">
        <ele>44.6</ele>
        <time>2020-06-10T08:42:12Z</time>
      </trkpt>
      <trkpt lat="48.62001" lon="-4.25038">
        <ele>44.8</ele>
        <time>2020-06-10T08:42:13Z</time>
      </trkpt>
      <trkpt lat="48.61999" lon="-4.25033">
        <ele>45.1</ele>
        <time>2020-06-10T08:42:14Z</time>
      </trkpt>
      <trkpt lat="48.61998" lon="-4.25029">
        <ele>45.2</ele>
        <time>2020-06-10T08:42:15Z</time>
      </trkpt>
      <trkpt lat="48.61996" lon="-4.25023">
        <ele>45.5</ele>
        <time>2020-06-10T08:42:16Z</time>
      </trkpt>
      <trkpt lat="48.61995" lon="-4.25019">
        <ele>45.7</ele>
        <time>2020-06-10T08:42:17Z</time>
      </trkpt>
      <trkpt lat="48.61994" lon="-4.25015">
        <ele>45.9</ele>
        <time>2020-06-10T08:42:18Z</time>
      </trkpt>
      <trkpt lat="48.61992" lon="-4.25011">
        <ele>46.1</ele>
        <time>2020-06-10T08:42:19Z</time>
      </trkpt>
      <trkpt lat="48.61991" lon="-4.25007">
        <ele>46.3</ele>
        <time>2020-06-10T08:42:20Z</time>
      </trkpt>
      <trkpt lat="48.61989" lon="-4.25002">
        <ele>46.5</ele>
        <time>2020-06-10T08:42:21Z</time>
      </trkpt>
      <trkpt lat="48.61987" lon="-4.24997">
        <ele>46.8</ele>
        <time>2020-06-10T08:42:22Z</time>
      </trkpt>
      <trkpt lat="48.61986" lon="-4.24993">
        <ele>47</ele>
        <time>2020-06-10T08:42:23Z</time>
      </trkpt>
      <trkpt lat="48.61984" lon="-4.2499">
        <ele>47.1</ele>
        <time>2020-06-10T08:42:24Z</time>
      </trkpt>
      <trkpt lat="48.61982" lon="-4.24986">
        <ele>47.3</ele>
        <time>2020-06-10T08:42:25Z</time>
      </trkpt>
      <trkpt lat="48.61981" lon="-4.24983">
        <ele>47.5</ele>
        <time>2020-06-10T08:42:26Z</time>
      </trkpt>
      <trkpt lat="48.61979" lon="-4.24978">
        <ele>47.7</ele>
        <time>2020-06-10T08:42:27Z</time>
      </trkpt>
      <trkpt lat="48.61977" lon="-4.24973">
        <ele>48</ele>
        <time>2020-06-10T08:42:28Z</time>
      </trkpt>
      <trkpt lat="48.61976" lon="-4.24968">
        <ele>48.2</ele>
        <time>2020-06-10T08:42:29Z</time>
      </trkpt>
      <trkpt lat="48.61974" lon="-4.24964">
        <ele>48.4</ele>
        <time>2020-06-10T08:42:30Z</time>
      </trkpt>
      <trkpt lat="48.61973" lon="-4.2496">
        <ele>48.5</ele>
        <time>2020-06-10T08:42:31Z</time>
      </trkpt>
      <trkpt lat="48.61972" lon="-4.24956">
        <ele>48.7</ele>
        <time>2020-06-10T08:42:32Z</time>
      </trkpt>
      <trkpt lat="48.61971" lon="-4.24951">
        <ele>48.9</ele>
        <time>2020-06-10T08:42:33Z</time>
      </trkpt>
      <trkpt lat="48.61969" lon="-4.24947">
        <ele>49.1</ele>
        <time>2020-06-10T08:42:34Z</time>
      </trkpt>
      <trkpt lat="48.61967" lon="-4.24942">
        <ele>49.3</ele>
        <time>2020-06-10T08:42:35Z</time>
      </trkpt>
      <trkpt lat="48.61966" lon="-4.24939">
        <ele>49.4</ele>
        <time>2020-06-10T08:42:36Z</time>
      </trkpt>
      <trkpt lat="48.61964" lon="-4.24934">
        <ele>49.6</ele>
        <time>2020-06-10T08:42:37Z</time>
      </trkpt>
      <trkpt lat="48.61963" lon="-4.2493">
        <ele>49.9</ele>
        <time>2020-06-10T08:42:38Z</time>
      </trkpt>
      <trkpt lat="48.61962" lon="-4.24924">
        <ele>50.1</ele>
        <time>2020-06-10T08:42:39Z</time>
      </trkpt>
      <trkpt lat="48.61962" lon="-4.24922">
        <ele>50.1</ele>
        <time>2020-06-10T08:42:40Z</time>
      </trkpt>
      <trkpt lat="48.61962" lon="-4.24917">
        <ele>50.3</ele>
        <time>2020-06-10T08:42:41Z</time>
      </trkpt>
      <trkpt lat="48.61962" lon="-4.24914">
        <ele>50.4</ele>
        <time>2020-06-10T08:42:42Z</time>
      </trkpt>
      <trkpt lat="48.61963" lon="-4.2491">
        <ele>50.5</ele>
        <time>2020-06-10T08:42:43Z</time>
      </trkpt>
      <trkpt lat="48.61962" lon="-4.24905">
        <ele>50.6</ele>
        <time>2020-06-10T08:42:44Z</time>
      </trkpt>
      <trkpt lat="48.61962" lon="-4.24901">
        <ele>50.7</ele>
        <time>2020-06-10T08:42:45Z</time>
      </trkpt>
      <trkpt lat="48.61961" lon="-4.24896">
        <ele>50.9</ele>
        <time>2020-06-10T08:42:46Z</time>
      </trkpt>
      <trkpt lat="48.61961" lon="-4.24891">
        <ele>51</ele>
        <time>2020-06-10T08:42:47Z</time>
      </trkpt>
      <trkpt lat="48.61961" lon="-4.24885">
        <ele>51.2</ele>
        <time>2020-06-10T08:42:48Z</time>
      </trkpt>
      <trkpt lat="48.61961" lon="-4.24881">
        <ele>51.3</ele>
        <time>2020-06-10T08:42:49Z</time>
      </trkpt>
      <trkpt lat="48.61961" lon="-4.24877">
        <ele>51.4</ele>
        <time>2020-06-10T08:42:50Z</time>
      </trkpt>
      <trkpt lat="48.6196" lon="-4.24873">
        <ele>51.6</ele>
        <time>2020-06-10T08:42:51Z</time>
      </trkpt>
      <trkpt lat="48.6196" lon="-4.24868">
        <ele>51.6</ele>
        <time>2020-06-10T08:42:52Z</time>
      </trkpt>
      <trkpt lat="48.61961" lon="-4.24864">
        <ele>51.6</ele>
        <time>2020-06-10T08:42:53Z</time>
      </trkpt>
      <trkpt lat="48.61961" lon="-4.24858">
        <ele>51.5</ele>
        <time>2020-06-10T08:42:54Z</time>
      </trkpt>
      <trkpt lat="48.6196" lon="-4.24856">
        <ele>51.5</ele>
        <time>2020-06-10T08:42:55Z</time>
      </trkpt>
      <trkpt lat="48.6196" lon="-4.24849">
        <ele>51.5</ele>
        <time>2020-06-10T08:42:56Z</time>
      </trkpt>
      <trkpt lat="48.6196" lon="-4.24845">
        <ele>51.5</ele>
        <time>2020-06-10T08:42:57Z</time>
      </trkpt>
      <trkpt lat="48.6196" lon="-4.2484">
        <ele>51.5</ele>
        <time>2020-06-10T08:42:58Z</time>
      </trkpt>
      <trkpt lat="48.6196" lon="-4.24835">
        <ele>51.5</ele>
        <time>2020-06-10T08:42:59Z</time>
      </trkpt>
      <trkpt lat="48.61959" lon="-4.24828">
        <ele>51.5</ele>
        <time>2020-06-10T08:43:00Z</time>
      </trkpt>
      <trkpt lat="48.61959" lon="-4.24826">
        <ele>51.6</ele>
        <time>2020-06-10T08:43:01Z</time>
      </trkpt>
      <trkpt lat="48.61958" lon="-4.24821">
        <ele>51.6</ele>
        <time>2020-06-10T08:43:02Z</time>
      </trkpt>
      <trkpt lat="48.61957" lon="-4.24816">
        <ele>51.6</ele>
        <time>2020-06-10T08:43:03Z</time>
      </trkpt>
      <trkpt lat="48.61955" lon="-4.24809">
        <ele>51.7</ele>
        <time>2020-06-10T08:43:04Z</time>
      </trkpt>
      <trkpt lat="48.61954" lon="-4.24805">
        <ele>51.7</ele>
        <time>2020-06-10T08:43:05Z</time>
      </trkpt>
      <trkpt lat="48.61953" lon="-4.24797">
        <ele>51.8</ele>
        <time>2020-06-10T08:43:06Z</time>
      </trkpt>
      <trkpt lat="48.61952" lon="-4.24792">
        <ele>51.8</ele>
        <time>2020-06-10T08:43:07Z</time>
      </trkpt>
      <trkpt lat="48.61951" lon="-4.24786">
        <ele>51.9</ele>
        <time>2020-06-10T08:43:08Z</time>
      </trkpt>
      <trkpt lat="48.6195" lon="-4.2478">
        <ele>52</ele>
        <time>2020-06-10T08:43:09Z</time>
      </trkpt>
      <trkpt lat="48.61949" lon="-4.24776">
        <ele>52.1</ele>
        <time>2020-06-10T08:43:10Z</time>
      </trkpt>
      <trkpt lat="48.61948" lon="-4.2477">
        <ele>52.2</ele>
        <time>2020-06-10T08:43:11Z</time>
      </trkpt>
      <trkpt lat="48.61947" lon="-4.24766">
        <ele>52.2</ele>
        <time>2020-06-10T08:43:12Z</time>
      </trkpt>
      <trkpt lat="48.61946" lon="-4.2476">
        <ele>52.3</ele>
        <time>2020-06-10T08:43:13Z</time>
      </trkpt>
      <trkpt lat="48.61945" lon="-4.24753">
        <ele>52.4</ele>
        <time>2020-06-10T08:43:14Z</time>
      </trkpt>
      <trkpt lat="48.61943" lon="-4.24746">
        <ele>52.6</ele>
        <time>2020-06-10T08:43:15Z</time>
      </trkpt>
      <trkpt lat="48.61942" lon="-4.24741">
        <ele>52.6</ele>
        <time>2020-06-10T08:43:16Z</time>
      </trkpt>
      <trkpt lat="48.61941" lon="-4.24735">
        <ele>52.7</ele>
        <time>2020-06-10T08:43:17Z</time>
      </trkpt>
      <trkpt lat="48.6194" lon="-4.24731">
        <ele>52.8</ele>
        <time>2020-06-10T08:43:18Z</time>
      </trkpt>
      <trkpt lat="48.6194" lon="-4.24726">
        <ele>52.8</ele>
        <time>2020-06-10T08:43:19Z</time>
      </trkpt>
      <trkpt lat="48.61939" lon="-4.24721">
        <ele>52.9</ele>
        <time>2020-06-10T08:43:20Z</time>
      </trkpt>
      <trkpt lat="48.61938" lon="-4.24717">
        <ele>53</ele>
        <time>2020-06-10T08:43:21Z</time>
      </trkpt>
      <trkpt lat="48.61937" lon="-4.24712">
        <ele>53.1</ele>
        <time>2020-06-10T08:43:22Z</time>
      </trkpt>
      <trkpt lat="48.61936" lon="-4.24707">
        <ele>53.1</ele>
        <time>2020-06-10T08:43:23Z</time>
      </trkpt>
      <trkpt lat="48.61934" lon="-4.247">
        <ele>53.2</ele>
        <time>2020-06-10T08:43:24Z</time>
      </trkpt>
      <trkpt lat="48.61933" lon="-4.24693">
        <ele>53.3</ele>
        <time>2020-06-10T08:43:25Z</time>
      </trkpt>
      <trkpt lat="48.61933" lon="-4.24688">
        <ele>53.4</ele>
        <time>2020-06-10T08:43:26Z</time>
      </trkpt>
      <trkpt lat="48.61932" lon="-4.24683">
        <ele>53.5</ele>
        <time>2020-06-10T08:43:27Z</time>
      </trkpt>
      <trkpt lat="48.6193" lon="-4.24678">
        <ele>53.6</ele>
        <time>2020-06-10T08:43:28Z</time>
      </trkpt>
      <trkpt lat="48.61929" lon="-4.24674">
        <ele>53.7</ele>
        <time>2020-06-10T08:43:29Z</time>
      </trkpt>
      <trkpt lat="48.61927" lon="-4.24669">
        <ele>53.8</ele>
        <time>2020-06-10T08:43:30Z</time>
      </trkpt>
      <trkpt lat="48.61926" lon="-4.24664">
        <ele>53.9</ele>
        <time>2020-06-10T08:43:31Z</time>
      </trkpt>
      <trkpt lat="48.61924" lon="-4.24658">
        <ele>54</ele>
        <time>2020-06-10T08:43:32Z</time>
      </trkpt>
      <trkpt lat="48.61922" lon="-4.24652">
        <ele>54.1</ele>
        <time>2020-06-10T08:43:33Z</time>
      </trkpt>
      <trkpt lat="48.61921" lon="-4.24647">
        <ele>54.2</ele>
        <time>2020-06-10T08:43:34Z</time>
      </trkpt>
      <trkpt lat="48.61919" lon="-4.24641">
        <ele>54.3</ele>
        <time>2020-06-10T08:43:35Z</time>
      </trkpt>
      <trkpt lat="48.61918" lon="-4.24637">
        <ele>54.3</ele>
        <time>2020-06-10T08:43:36Z</time>
      </trkpt>
      <trkpt lat="48.61918" lon="-4.24633">
        <ele>54.4</ele>
        <time>2020-06-10T08:43:37Z</time>
      </trkpt>
      <trkpt lat="48.61918" lon="-4.24626">
        <ele>54.5</ele>
        <time>2020-06-10T08:43:38Z</time>
      </trkpt>
      <trkpt lat="48.61917" lon="-4.24622">
        <ele>54.6</ele>
        <time>2020-06-10T08:43:39Z</time>
      </trkpt>
      <trkpt lat="48.61917" lon="-4.24617">
        <ele>54.7</ele>
        <time>2020-06-10T08:43:40Z</time>
      </trkpt>
      <trkpt lat="48.61917" lon="-4.24612">
        <ele>54.9</ele>
        <time>2020-06-10T08:43:41Z</time>
      </trkpt>
      <trkpt lat="48.61917" lon="-4.24609">
        <ele>54.9</ele>
        <time>2020-06-10T08:43:42Z</time>
      </trkpt>
      <trkpt lat="48.61917" lon="-4.24602">
        <ele>55.1</ele>
        <time>2020-06-10T08:43:43Z</time>
      </trkpt>
      <trkpt lat="48.61919" lon="-4.24597">
        <ele>55.3</ele>
        <time>2020-06-10T08:43:44Z</time>
      </trkpt>
      <trkpt lat="48.61921" lon="-4.2459">
        <ele>55.4</ele>
        <time>2020-06-10T08:43:45Z</time>
      </trkpt>
      <trkpt lat="48.61923" lon="-4.24586">
        <ele>55.5</ele>
        <time>2020-06-10T08:43:46Z</time>
      </trkpt>
      <trkpt lat="48.61925" lon="-4.24584">
        <ele>55.5</ele>
        <time>2020-06-10T08:43:47Z</time>
      </trkpt>
      <trkpt lat="48.6193" lon="-4.2458">
        <ele>55.6</ele>
        <time>2020-06-10T08:43:48Z</time>
      </trkpt>
      <trkpt lat="48.61933" lon="-4.24576">
        <ele>55.6</ele>
        <time>2020-06-10T08:43:49Z</time>
      </trkpt>
      <trkpt lat="48.61937" lon="-4.24573">
        <ele>55.7</ele>
        <time>2020-06-10T08:43:50Z</time>
      </trkpt>
      <trkpt lat="48.6194" lon="-4.24569">
        <ele>55.8</ele>
        <time>2020-06-10T08:43:51Z</time>
      </trkpt>
      <trkpt lat="48.61943" lon="-4.24567">
        <ele>55.9</ele>
        <time>2020-06-10T08:43:52Z</time>
      </trkpt>
      <trkpt lat="48.61945" lon="-4.24565">
        <ele>55.9</ele>
        <time>2020-06-10T08:43:53Z</time>
      </trkpt>
      <trkpt lat="48.61948" lon="-4.24563">
        <ele>56</ele>
        <time>2020-06-10T08:43:54Z</time>
      </trkpt>
      <trkpt lat="48.61951" lon="-4.2456">
        <ele>56.1</ele>
        <time>2020-06-10T08:43:55Z</time>
      </trkpt>
      <trkpt lat="48.61953" lon="-4.24557">
        <ele>56.1</ele>
        <time>2020-06-10T08:43:56Z</time>
      </trkpt>
      <trkpt lat="48.61955" lon="-4.24554">
        <ele>56.2</ele>
        <time>2020-06-10T08:43:57Z</time>
      </trkpt>
      <trkpt lat="48.61957" lon="-4.2455">
        <ele>56.2</ele>
        <time>2020-06-10T08:43:58Z</time>
      </trkpt>
      <trkpt lat="48.61958" lon="-4.24545">
        <ele>56.3</ele>
        <time>2020-06-10T08:43:59Z</time>
      </trkpt>
      <trkpt lat="48.61959" lon="-4.24542">
        <ele>56.3</ele>
        <time>2020-06-10T08:44:00Z</time>
      </trkpt>
      <trkpt lat="48.6196" lon="-4.24538">
        <ele>56.4</ele>
        <time>2020-06-10T08:44:01Z</time>
      </trkpt>
      <trkpt lat="48.61961" lon="-4.24534">
        <ele>56.4</ele>
        <time>2020-06-10T08:44:02Z</time>
      </trkpt>
      <trkpt lat="48.61961" lon="-4.24529">
        <ele>56.5</ele>
        <time>2020-06-10T08:44:03Z</time>
      </trkpt>
      <trkpt lat="48.61962" lon="-4.24525">
        <ele>56.5</ele>
        <time>2020-06-10T08:44:04Z</time>
      </trkpt>
      <trkpt lat="48.61962" lon="-4.24521">
        <ele>56.6</ele>
        <time>2020-06-10T08:44:05Z</time>
      </trkpt>
      <trkpt lat="48.61962" lon="-4.24519">
        <ele>56.6</ele>
        <time>2020-06-10T08:44:06Z</time>
      </trkpt>
      <trkpt lat="48.61962" lon="-4.24513">
        <ele>56.6</ele>
        <time>2020-06-10T08:44:07Z</time>
      </trkpt>
      <trkpt lat="48.61962" lon="-4.24507">
        <ele>56.7</ele>
        <time>2020-06-10T08:44:08Z</time>
      </trkpt>
      <trkpt lat="48.61962" lon="-4.24505">
        <ele>56.7</ele>
        <time>2020-06-10T08:44:09Z</time>
      </trkpt>
      <trkpt lat="48.61961" lon="-4.24501">
        <ele>56.7</ele>
        <time>2020-06-10T08:44:10Z</time>
      </trkpt>
      <trkpt lat="48.61961" lon="-4.24496">
        <ele>56.8</ele>
        <time>2020-06-10T08:44:11Z</time>
      </trkpt>
      <trkpt lat="48.61961" lon="-4.24491">
        <ele>56.8</ele>
        <time>2020-06-10T08:44:12Z</time>
      </trkpt>
      <trkpt lat="48.61961" lon="-4.24489">
        <ele>56.8</ele>
        <time>2020-06-10T08:44:13Z</time>
      </trkpt>
      <trkpt lat="48.61961" lon="-4.24483">
        <ele>56.8</ele>
        <time>2020-06-10T08:44:14Z</time>
      </trkpt>
      <trkpt lat="48.61961" lon="-4.2448">
        <ele>56.8</ele>
        <time>2020-06-10T08:44:15Z</time>
      </trkpt>
      <trkpt lat="48.6196" lon="-4.24476">
        <ele>56.8</ele>
        <time>2020-06-10T08:44:16Z</time>
      </trkpt>
      <trkpt lat="48.6196" lon="-4.2447">
        <ele>56.8</ele>
        <time>2020-06-10T08:44:17Z</time>
      </trkpt>
      <trkpt lat="48.61959" lon="-4.24467">
        <ele>56.8</ele>
        <time>2020-06-10T08:44:18Z</time>
      </trkpt>
      <trkpt lat="48.61959" lon="-4.24462">
        <ele>56.8</ele>
        <time>2020-06-10T08:44:19Z</time>
      </trkpt>
      <trkpt lat="48.61959" lon="-4.24458">
        <ele>56.9</ele>
        <time>2020-06-10T08:44:20Z</time>
      </trkpt>
      <trkpt lat="48.61959" lon="-4.24453">
        <ele>56.9</ele>
        <time>2020-06-10T08:44:21Z</time>
      </trkpt>
      <trkpt lat="48.61958" lon="-4.24448">
        <ele>56.9</ele>
        <time>2020-06-10T08:44:22Z</time>
      </trkpt>
      <trkpt lat="48.61957" lon="-4.24443">
        <ele>56.9</ele>
        <time>2020-06-10T08:44:23Z</time>
      </trkpt>
      <trkpt lat="48.61956" lon="-4.24437">
        <ele>56.9</ele>
        <time>2020-06-10T08:44:24Z</time>
      </trkpt>
      <trkpt lat="48.61955" lon="-4.24432">
        <ele>56.9</ele>
        <time>2020-06-10T08:44:25Z</time>
      </trkpt>
      <trkpt lat="48.61954" lon="-4.24426">
        <ele>57</ele>
        <time>2020-06-10T08:44:26Z</time>
      </trkpt>
      <trkpt lat="48.61953" lon="-4.2442">
        <ele>57</ele>
        <time>2020-06-10T08:44:27Z</time>
      </trkpt>
      <trkpt lat="48.61951" lon="-4.24416">
        <ele>57.1</ele>
        <time>2020-06-10T08:44:28Z</time>
      </trkpt>
      <trkpt lat="48.6195" lon="-4.24411">
        <ele>57.1</ele>
        <time>2020-06-10T08:44:29Z</time>
      </trkpt>
      <trkpt lat="48.61948" lon="-4.24406">
        <ele>57.2</ele>
        <time>2020-06-10T08:44:30Z</time>
      </trkpt>
      <trkpt lat="48.61947" lon="-4.24402">
        <ele>57.2</ele>
        <time>2020-06-10T08:44:31Z</time>
      </trkpt>
      <trkpt lat="48.61947" lon="-4.24397">
        <ele>57.3</ele>
        <time>2020-06-10T08:44:32Z</time>
      </trkpt>
      <trkpt lat="48.61946" lon="-4.24392">
        <ele>57.3</ele>
        <time>2020-06-10T08:44:33Z</time>
      </trkpt>
      <trkpt lat="48.61946" lon="-4.24387">
        <ele>57.4</ele>
        <time>2020-06-10T08:44:34Z</time>
      </trkpt>
      <trkpt lat="48.61945" lon="-4.24379">
        <ele>57.4</ele>
        <time>2020-06-10T08:44:35Z</time>
      </trkpt>
      <trkpt lat="48.61943" lon="-4.24373">
        <ele>57.5</ele>
        <time>2020-06-10T08:44:36Z</time>
      </trkpt>
      <trkpt lat="48.61943" lon="-4.2437">
        <ele>57.5</ele>
        <time>2020-06-10T08:44:37Z</time>
      </trkpt>
      <trkpt lat="48.61941" lon="-4.24365">
        <ele>57.5</ele>
        <time>2020-06-10T08:44:38Z</time>
      </trkpt>
      <trkpt lat="48.6194" lon="-4.24363">
        <ele>57.5</ele>
        <time>2020-06-10T08:44:39Z</time>
      </trkpt>
      <trkpt lat="48.61938" lon="-4.2436">
        <ele>57.5</ele>
        <time>2020-06-10T08:44:40Z</time>
      </trkpt>
      <trkpt lat="48.61937" lon="-4.24353">
        <ele>57.5</ele>
        <time>2020-06-10T08:44:41Z</time>
      </trkpt>
      <trkpt lat="48.61936" lon="-4.2435">
        <ele>57.5</ele>
        <time>2020-06-10T08:44:42Z</time>
      </trkpt>
      <trkpt lat="48.61935" lon="-4.24345">
        <ele>57.5</ele>
        <time>2020-06-10T08:44:43Z</time>
      </trkpt>
      <trkpt lat="48.61934" lon="-4.24341">
        <ele>57.5</ele>
        <time>2020-06-10T08:44:44Z</time>
      </trkpt>
      <trkpt lat="48.61933" lon="-4.24337">
        <ele>57.5</ele>
        <time>2020-06-10T08:44:45Z</time>
      </trkpt>
      <trkpt lat="48.61932" lon="-4.24332">
        <ele>57.6</ele>
        <time>2020-06-10T08:44:46Z</time>
      </trkpt>
      <trkpt lat="48.61932" lon="-4.24328">
        <ele>57.6</ele>
        <time>2020-06-10T08:44:47Z</time>
      </trkpt>
      <trkpt lat="48.61931" lon="-4.24323">
        <ele>57.6</ele>
        <time>2020-06-10T08:44:48Z</time>
      </trkpt>
      <trkpt lat="48.61931" lon="-4.24317">
        <ele>57.7</ele>
        <time>2020-06-10T08:44:49Z</time>
      </trkpt>
      <trkpt lat="48.6193" lon="-4.24312">
        <ele>57.7</ele>
        <time>2020-06-10T08:44:50Z</time>
      </trkpt>
      <trkpt lat="48.61929" lon="-4.24306">
        <ele>57.7</ele>
        <time>2020-06-10T08:44:51Z</time>
      </trkpt>
      <trkpt lat="48.61929" lon="-4.243">
        <ele>57.8</ele>
        <time>2020-06-10T08:44:52Z</time>
      </trkpt>
      <trkpt lat="48.61928" lon="-4.24294">
        <ele>57.8</ele>
        <time>2020-06-10T08:44:53Z</time>
      </trkpt>
      <trkpt lat="48.61927" lon="-4.24288">
        <ele>57.9</ele>
        <time>2020-06-10T08:44:54Z</time>
      </trkpt>
      <trkpt lat="48.61927" lon="-4.24284">
        <ele>57.9</ele>
        <time>2020-06-10T08:44:55Z</time>
      </trkpt>
      <trkpt lat="48.61926" lon="-4.24279">
        <ele>58</ele>
        <time>2020-06-10T08:44:56Z</time>
      </trkpt>
      <trkpt lat="48.61926" lon="-4.24274">
        <ele>58</ele>
        <time>2020-06-10T08:44:57Z</time>
      </trkpt>
      <trkpt lat="48.61925" lon="-4.24268">
        <ele>58.1</ele>
        <time>2020-06-10T08:44:58Z</time>
      </trkpt>
      <trkpt lat="48.61925" lon="-4.24263">
        <ele>58.1</ele>
        <time>2020-06-10T08:44:59Z</time>
      </trkpt>
      <trkpt lat="48.61925" lon="-4.24258">
        <ele>58.2</ele>
        <time>2020-06-10T08:45:00Z</time>
      </trkpt>
      <trkpt lat="48.61925" lon="-4.24252">
        <ele>58.2</ele>
        <time>2020-06-10T08:45:01Z</time>
      </trkpt>
      <trkpt lat="48.61925" lon="-4.24247">
        <ele>58.2</ele>
        <time>2020-06-10T08:45:02Z</time>
      </trkpt>
      <trkpt lat="48.61925" lon="-4.24241">
        <ele>58.1</ele>
        <time>2020-06-10T08:45:03Z</time>
      </trkpt>
      <trkpt lat="48.61924" lon="-4.24237">
        <ele>58.1</ele>
        <time>2020-06-10T08:45:04Z</time>
      </trkpt>
      <trkpt lat="48.61925" lon="-4.24232">
        <ele>58.1</ele>
        <time>2020-06-10T08:45:05Z</time>
      </trkpt>
      <trkpt lat="48.61925" lon="-4.24226">
        <ele>58.1</ele>
        <time>2020-06-10T08:45:06Z</time>
      </trkpt>
      <trkpt lat="48.61925" lon="-4.2422">
        <ele>58.1</ele>
        <time>2020-06-10T08:45:07Z</time>
      </trkpt>
      <trkpt lat="48.61925" lon="-4.24215">
        <ele>58.1</ele>
        <time>2020-06-10T08:45:08Z</time>
      </trkpt>
      <trkpt lat="48.61924" lon="-4.24209">
        <ele>58.1</ele>
        <time>2020-06-10T08:45:09Z</time>
      </trkpt>
      <trkpt lat="48.61924" lon="-4.24204">
        <ele>58.1</ele>
        <time>2020-06-10T08:45:10Z</time>
      </trkpt>
      <trkpt lat="48.61923" lon="-4.24197">
        <ele>58</ele>
        <time>2020-06-10T08:45:11Z</time>
      </trkpt>
      <trkpt lat="48.61923" lon="-4.24191">
        <ele>57.9</ele>
        <time>2020-06-10T08:45:12Z</time>
      </trkpt>
      <trkpt lat="48.61922" lon="-4.24184">
        <ele>57.8</ele>
        <time>2020-06-10T08:45:13Z</time>
      </trkpt>
      <trkpt lat="48.61922" lon="-4.24176">
        <ele>57.6</ele>
        <time>2020-06-10T08:45:14Z</time>
      </trkpt>
      <trkpt lat="48.61923" lon="-4.24169">
        <ele>57.5</ele>
        <time>2020-06-10T08:45:15Z</time>
      </trkpt>
      <trkpt lat="48.61923" lon="-4.24161">
        <ele>57.3</ele>
        <time>2020-06-10T08:45:16Z</time>
      </trkpt>
      <trkpt lat="48.61924" lon="-4.24154">
        <ele>57.2</ele>
        <time>2020-06-10T08:45:17Z</time>
      </trkpt>
      <trkpt lat="48.61925" lon="-4.24146">
        <ele>57</ele>
        <time>2020-06-10T08:45:18Z</time>
      </trkpt>
      <trkpt lat="48.61925" lon="-4.24138">
        <ele>56.8</ele>
        <time>2020-06-10T08:45:19Z</time>
      </trkpt>
      <trkpt lat="48.61926" lon="-4.24129">
        <ele>56.6</ele>
        <time>2020-06-10T08:45:20Z</time>
      </trkpt>
      <trkpt lat="48.61926" lon="-4.24118">
        <ele>56.4</ele>
        <time>2020-06-10T08:45:21Z</time>
      </trkpt>
      <trkpt lat="48.61927" lon="-4.24109">
        <ele>56.2</ele>
        <time>2020-06-10T08:45:22Z</time>
      </trkpt>
      <trkpt lat="48.61928" lon="-4.24099">
        <ele>56</ele>
        <time>2020-06-10T08:45:23Z</time>
      </trkpt>
      <trkpt lat="48.61928" lon="-4.24091">
        <ele>55.8</ele>
        <time>2020-06-10T08:45:24Z</time>
      </trkpt>
      <trkpt lat="48.61928" lon="-4.24082">
        <ele>55.7</ele>
        <time>2020-06-10T08:45:25Z</time>
      </trkpt>
      <trkpt lat="48.61928" lon="-4.24072">
        <ele>55.5</ele>
        <time>2020-06-10T08:45:26Z</time>
      </trkpt>
      <trkpt lat="48.61928" lon="-4.24063">
        <ele>55.4</ele>
        <time>2020-06-10T08:45:27Z</time>
      </trkpt>
      <trkpt lat="48.61928" lon="-4.24054">
        <ele>55.2</ele>
        <time>2020-06-10T08:45:28Z</time>
      </trkpt>
      <trkpt lat="48.61928" lon="-4.24045">
        <ele>55.1</ele>
        <time>2020-06-10T08:45:29Z</time>
      </trkpt>
      <trkpt lat="48.61929" lon="-4.24036">
        <ele>55</ele>
        <time>2020-06-10T08:45:30Z</time>
      </trkpt>
      <trkpt lat="48.61929" lon="-4.24026">
        <ele>54.9</ele>
        <time>2020-06-10T08:45:31Z</time>
      </trkpt>
      <trkpt lat="48.6193" lon="-4.24015">
        <ele>54.7</ele>
        <time>2020-06-10T08:45:32Z</time>
      </trkpt>
      <trkpt lat="48.6193" lon="-4.24006">
        <ele>54.5</ele>
        <time>2020-06-10T08:45:33Z</time>
      </trkpt>
      <trkpt lat="48.6193" lon="-4.23997">
        <ele>54.4</ele>
        <time>2020-06-10T08:45:34Z</time>
      </trkpt>
      <trkpt lat="48.61931" lon="-4.23988">
        <ele>54.2</ele>
        <time>2020-06-10T08:45:35Z</time>
      </trkpt>
      <trkpt lat="48.61931" lon="-4.23979">
        <ele>54.2</ele>
        <time>2020-06-10T08:45:36Z</time>
      </trkpt>
      <trkpt lat="48.61932" lon="-4.2397">
        <ele>54.2</ele>
        <time>2020-06-10T08:45:37Z</time>
      </trkpt>
      <trkpt lat="48.61932" lon="-4.23963">
        <ele>54.2</ele>
        <time>2020-06-10T08:45:38Z</time>
      </trkpt>
      <trkpt lat="48.61931" lon="-4.23954">
        <ele>54.2</ele>
        <time>2020-06-10T08:45:39Z</time>
      </trkpt>
      <trkpt lat="48.61932" lon="-4.23946">
        <ele>54.2</ele>
        <time>2020-06-10T08:45:40Z</time>
      </trkpt>
      <trkpt lat="48.61931" lon="-4.23937">
        <ele>54.3</ele>
        <time>2020-06-10T08:45:41Z</time>
      </trkpt>
      <trkpt lat="48.61931" lon="-4.23929">
        <ele>54.3</ele>
        <time>2020-06-10T08:45:42Z</time>
      </trkpt>
      <trkpt lat="48.61931" lon="-4.23919">
        <ele>54.4</ele>
        <time>2020-06-10T08:45:43Z</time>
      </trkpt>
      <trkpt lat="48.61931" lon="-4.23909">
        <ele>54.4</ele>
        <time>2020-06-10T08:45:44Z</time>
      </trkpt>
      <trkpt lat="48.61932" lon="-4.239">
        <ele>54.5</ele>
        <time>2020-06-10T08:45:45Z</time>
      </trkpt>
      <trkpt lat="48.61931" lon="-4.23892">
        <ele>54.6</ele>
        <time>2020-06-10T08:45:46Z</time>
      </trkpt>
      <trkpt lat="48.61931" lon="-4.23885">
        <ele>54.7</ele>
        <time>2020-06-10T08:45:47Z</time>
      </trkpt>
      <trkpt lat="48.61931" lon="-4.23877">
        <ele>54.7</ele>
        <time>2020-06-10T08:45:48Z</time>
      </trkpt>
      <trkpt lat="48.61931" lon="-4.23869">
        <ele>54.8</ele>
        <time>2020-06-10T08:45:49Z</time>
      </trkpt>
      <trkpt lat="48.61931" lon="-4.23863">
        <ele>54.8</ele>
        <time>2020-06-10T08:45:50Z</time>
      </trkpt>
      <trkpt lat="48.6193" lon="-4.23856">
        <ele>54.9</ele>
        <time>2020-06-10T08:45:51Z</time>
      </trkpt>
      <trkpt lat="48.6193" lon="-4.23848">
        <ele>54.9</ele>
        <time>2020-06-10T08:45:52Z</time>
      </trkpt>
      <trkpt lat="48.6193" lon="-4.23838">
        <ele>54.8</ele>
        <time>2020-06-10T08:45:53Z</time>
      </trkpt>
      <trkpt lat="48.6193" lon="-4.23829">
        <ele>54.8</ele>
        <time>2020-06-10T08:45:54Z</time>
      </trkpt>
      <trkpt lat="48.61929" lon="-4.2382">
        <ele>54.8</ele>
        <time>2020-06-10T08:45:55Z</time>
      </trkpt>
      <trkpt lat="48.61929" lon="-4.23811">
        <ele>54.9</ele>
        <time>2020-06-10T08:45:56Z</time>
      </trkpt>
      <trkpt lat="48.61929" lon="-4.23803">
        <ele>54.9</ele>
        <time>2020-06-10T08:45:57Z</time>
      </trkpt>
      <trkpt lat="48.61928" lon="-4.23795">
        <ele>54.9</ele>
        <time>2020-06-10T08:45:58Z</time>
      </trkpt>
      <trkpt lat="48.61928" lon="-4.23786">
        <ele>55</ele>
        <time>2020-06-10T08:45:59Z</time>
      </trkpt>
      <trkpt lat="48.61928" lon="-4.23778">
        <ele>55</ele>
        <time>2020-06-10T08:46:00Z</time>
      </trkpt>
      <trkpt lat="48.61927" lon="-4.2377">
        <ele>55</ele>
        <time>2020-06-10T08:46:01Z</time>
      </trkpt>
      <trkpt lat="48.61927" lon="-4.23761">
        <ele>55</ele>
        <time>2020-06-10T08:46:02Z</time>
      </trkpt>
      <trkpt lat="48.61927" lon="-4.23752">
        <ele>55</ele>
        <time>2020-06-10T08:46:03Z</time>
      </trkpt>
      <trkpt lat="48.61926" lon="-4.23743">
        <ele>54.9</ele>
        <time>2020-06-10T08:46:04Z</time>
      </trkpt>
      <trkpt lat="48.61926" lon="-4.23736">
        <ele>54.9</ele>
        <time>2020-06-10T08:46:05Z</time>
      </trkpt>
      <trkpt lat="48.61926" lon="-4.23729">
        <ele>54.9</ele>
        <time>2020-06-10T08:46:06Z</time>
      </trkpt>
      <trkpt lat="48.61926" lon="-4.23721">
        <ele>54.9</ele>
        <time>2020-06-10T08:46:07Z</time>
      </trkpt>
      <trkpt lat="48.61926" lon="-4.23713">
        <ele>54.9</ele>
        <time>2020-06-10T08:46:08Z</time>
      </trkpt>
      <trkpt lat="48.61926" lon="-4.23704">
        <ele>54.9</ele>
        <time>2020-06-10T08:46:09Z</time>
      </trkpt>
      <trkpt lat="48.61926" lon="-4.23697">
        <ele>54.9</ele>
        <time>2020-06-10T08:46:10Z</time>
      </trkpt>
      <trkpt lat="48.61925" lon="-4.23688">
        <ele>55</ele>
        <time>2020-06-10T08:46:11Z</time>
      </trkpt>
      <trkpt lat="48.61925" lon="-4.23679">
        <ele>55.1</ele>
        <time>2020-06-10T08:46:12Z</time>
      </trkpt>
      <trkpt lat="48.61925" lon="-4.2367">
        <ele>55.2</ele>
        <time>2020-06-10T08:46:13Z</time>
      </trkpt>
      <trkpt lat="48.61925" lon="-4.23663">
        <ele>55.3</ele>
        <time>2020-06-10T08:46:14Z</time>
      </trkpt>
      <trkpt lat="48.61925" lon="-4.23655">
        <ele>55.4</ele>
        <time>2020-06-10T08:46:15Z</time>
      </trkpt>
      <trkpt lat="48.61924" lon="-4.23647">
        <ele>55.5</ele>
        <time>2020-06-10T08:46:16Z</time>
      </trkpt>
      <trkpt lat="48.6192" lon="-4.23641">
        <ele>55.6</ele>
        <time>2020-06-10T08:46:17Z</time>
      </trkpt>
      <trkpt lat="48.61915" lon="-4.23637">
        <ele>55.7</ele>
        <time>2020-06-10T08:46:18Z</time>
      </trkpt>
      <trkpt lat="48.61909" lon="-4.23636">
        <ele>55.8</ele>
        <time>2020-06-10T08:46:19Z</time>
      </trkpt>
      <trkpt lat="48.61904" lon="-4.23635">
        <ele>56</ele>
        <time>2020-06-10T08:46:20Z</time>
      </trkpt>
      <trkpt lat="48.61898" lon="-4.23635">
        <ele>56.2</ele>
        <time>2020-06-10T08:46:21Z</time>
      </trkpt>
      <trkpt lat="48.61893" lon="-4.23634">
        <ele>56.4</ele>
        <time>2020-06-10T08:46:22Z</time>
      </trkpt>
      <trkpt lat="48.61888" lon="-4.23633">
        <ele>56.5</ele>
        <time>2020-06-10T08:46:23Z</time>
      </trkpt>
      <trkpt lat="48.61883" lon="-4.23632">
        <ele>56.6</ele>
        <time>2020-06-10T08:46:24Z</time>
      </trkpt>
      <trkpt lat="48.61878" lon="-4.23632">
        <ele>56.7</ele>
        <time>2020-06-10T08:46:25Z</time>
      </trkpt>
      <trkpt lat="48.61874" lon="-4.23632">
        <ele>56.7</ele>
        <time>2020-06-10T08:46:26Z</time>
      </trkpt>
      <trkpt lat="48.6187" lon="-4.23631">
        <ele>56.8</ele>
        <time>2020-06-10T08:46:27Z</time>
      </trkpt>
      <trkpt lat="48.61867" lon="-4.23631">
        <ele>56.8</ele>
        <time>2020-06-10T08:46:28Z</time>
      </trkpt>
      <trkpt lat="48.61862" lon="-4.2363">
        <ele>56.9</ele>
        <time>2020-06-10T08:46:29Z</time>
      </trkpt>
      <trkpt lat="48.61858" lon="-4.23629">
        <ele>56.9</ele>
        <time>2020-06-10T08:46:30Z</time>
      </trkpt>
      <trkpt lat="48.61855" lon="-4.23628">
        <ele>57</ele>
        <time>2020-06-10T08:46:31Z</time>
      </trkpt>
      <trkpt lat="48.6185" lon="-4.23628">
        <ele>57.1</ele>
        <time>2020-06-10T08:46:32Z</time>
      </trkpt>
      <trkpt lat="48.61847" lon="-4.23628">
        <ele>57.1</ele>
        <time>2020-06-10T08:46:33Z</time>
      </trkpt>
      <trkpt lat="48.61843" lon="-4.23626">
        <ele>57.2</ele>
        <time>2020-06-10T08:46:34Z</time>
      </trkpt>
      <trkpt lat="48.61839" lon="-4.23624">
        <ele>57.3</ele>
        <time>2020-06-10T08:46:35Z</time>
      </trkpt>
      <trkpt lat="48.61835" lon="-4.23624">
        <ele>57.4</ele>
        <time>2020-06-10T08:46:36Z</time>
      </trkpt>
      <trkpt lat="48.61832" lon="-4.23623">
        <ele>57.5</ele>
        <time>2020-06-10T08:46:37Z</time>
      </trkpt>
      <trkpt lat="48.61829" lon="-4.23621">
        <ele>57.6</ele>
        <time>2020-06-10T08:46:38Z</time>
      </trkpt>
      <trkpt lat="48.61826" lon="-4.23621">
        <ele>57.6</ele>
        <time>2020-06-10T08:46:39Z</time>
      </trkpt>
      <trkpt lat="48.61823" lon="-4.23619">
        <ele>57.6</ele>
        <time>2020-06-10T08:46:40Z</time>
      </trkpt>
      <trkpt lat="48.6182" lon="-4.23618">
        <ele>57.7</ele>
        <time>2020-06-10T08:46:41Z</time>
      </trkpt>
      <trkpt lat="48.61815" lon="-4.23618">
        <ele>57.7</ele>
        <time>2020-06-10T08:46:42Z</time>
      </trkpt>
      <trkpt lat="48.61812" lon="-4.23616">
        <ele>57.7</ele>
        <time>2020-06-10T08:46:43Z</time>
      </trkpt>
      <trkpt lat="48.61808" lon="-4.23616">
        <ele>57.8</ele>
        <time>2020-06-10T08:46:44Z</time>
      </trkpt>
      <trkpt lat="48.61804" lon="-4.23616">
        <ele>57.9</ele>
        <time>2020-06-10T08:46:45Z</time>
      </trkpt>
      <trkpt lat="48.618" lon="-4.23617">
        <ele>57.9</ele>
        <time>2020-06-10T08:46:46Z</time>
      </trkpt>
      <trkpt lat="48.61797" lon="-4.23616">
        <ele>58</ele>
        <time>2020-06-10T08:46:47Z</time>
      </trkpt>
      <trkpt lat="48.61796" lon="-4.23616">
        <ele>58</ele>
        <time>2020-06-10T08:46:48Z</time>
      </trkpt>
      <trkpt lat="48.61792" lon="-4.23615">
        <ele>58.1</ele>
        <time>2020-06-10T08:46:49Z</time>
      </trkpt>
      <trkpt lat="48.61791" lon="-4.23615">
        <ele>58.1</ele>
        <time>2020-06-10T08:46:50Z</time>
      </trkpt>
      <trkpt lat="48.61787" lon="-4.23615">
        <ele>58.1</ele>
        <time>2020-06-10T08:46:51Z</time>
      </trkpt>
      <trkpt lat="48.61786" lon="-4.23615">
        <ele>58.2</ele>
        <time>2020-06-10T08:46:52Z</time>
      </trkpt>
      <trkpt lat="48.61782" lon="-4.23615">
        <ele>58.2</ele>
        <time>2020-06-10T08:46:53Z</time>
      </trkpt>
      <trkpt lat="48.61779" lon="-4.23613">
        <ele>58.3</ele>
        <time>2020-06-10T08:46:54Z</time>
      </trkpt>
      <trkpt lat="48.61778" lon="-4.23612">
        <ele>58.3</ele>
        <time>2020-06-10T08:46:55Z</time>
      </trkpt>
      <trkpt lat="48.61775" lon="-4.2361">
        <ele>58.3</ele>
        <time>2020-06-10T08:46:56Z</time>
      </trkpt>
      <trkpt lat="48.61772" lon="-4.23612">
        <ele>58.4</ele>
        <time>2020-06-10T08:46:57Z</time>
      </trkpt>
      <trkpt lat="48.61771" lon="-4.23612">
        <ele>58.4</ele>
        <time>2020-06-10T08:46:58Z</time>
      </trkpt>
      <trkpt lat="48.61767" lon="-4.23611">
        <ele>58.4</ele>
        <time>2020-06-10T08:46:59Z</time>
      </trkpt>
      <trkpt lat="48.61765" lon="-4.2361">
        <ele>58.4</ele>
        <time>2020-06-10T08:47:00Z</time>
      </trkpt>
      <trkpt lat="48.61762" lon="-4.23609">
        <ele>58.5</ele>
        <time>2020-06-10T08:47:01Z</time>
      </trkpt>
      <trkpt lat="48.61759" lon="-4.23608">
        <ele>58.5</ele>
        <time>2020-06-10T08:47:02Z</time>
      </trkpt>
      <trkpt lat="48.61756" lon="-4.23608">
        <ele>58.6</ele>
        <time>2020-06-10T08:47:03Z</time>
      </trkpt>
      <trkpt lat="48.61755" lon="-4.23608">
        <ele>58.6</ele>
        <time>2020-06-10T08:47:04Z</time>
      </trkpt>
      <trkpt lat="48.61751" lon="-4.23606">
        <ele>58.6</ele>
        <time>2020-06-10T08:47:05Z</time>
      </trkpt>
      <trkpt lat="48.6175" lon="-4.23605">
        <ele>58.6</ele>
        <time>2020-06-10T08:47:06Z</time>
      </trkpt>
      <trkpt lat="48.61747" lon="-4.23604">
        <ele>58.7</ele>
        <time>2020-06-10T08:47:07Z</time>
      </trkpt>
      <trkpt lat="48.61743" lon="-4.23602">
        <ele>58.7</ele>
        <time>2020-06-10T08:47:08Z</time>
      </trkpt>
      <trkpt lat="48.6174" lon="-4.236">
        <ele>58.7</ele>
        <time>2020-06-10T08:47:09Z</time>
      </trkpt>
      <trkpt lat="48.61738" lon="-4.23599">
        <ele>58.7</ele>
        <time>2020-06-10T08:47:10Z</time>
      </trkpt>
      <trkpt lat="48.61736" lon="-4.23597">
        <ele>58.7</ele>
        <time>2020-06-10T08:47:11Z</time>
      </trkpt>
      <trkpt lat="48.61732" lon="-4.23595">
        <ele>58.7</ele>
        <time>2020-06-10T08:47:12Z</time>
      </trkpt>
      <trkpt lat="48.61731" lon="-4.23594">
        <ele>58.7</ele>
        <time>2020-06-10T08:47:13Z</time>
      </trkpt>
      <trkpt lat="48.61728" lon="-4.23592">
        <ele>58.7</ele>
        <time>2020-06-10T08:47:14Z</time>
      </trkpt>
      <trkpt lat="48.61725" lon="-4.23588">
        <ele>58.7</ele>
        <time>2020-06-10T08:47:15Z</time>
      </trkpt>
      <trkpt lat="48.61724" lon="-4.23587">
        <ele>58.7</ele>
        <time>2020-06-10T08:47:16Z</time>
      </trkpt>
      <trkpt lat="48.61722" lon="-4.23585">
        <ele>58.7</ele>
        <time>2020-06-10T08:47:17Z</time>
      </trkpt>
      <trkpt lat="48.61719" lon="-4.23582">
        <ele>58.8</ele>
        <time>2020-06-10T08:47:18Z</time>
      </trkpt>
      <trkpt lat="48.61718" lon="-4.23581">
        <ele>58.8</ele>
        <time>2020-06-10T08:47:19Z</time>
      </trkpt>
      <trkpt lat="48.61717" lon="-4.23579">
        <ele>58.8</ele>
        <time>2020-06-10T08:47:20Z</time>
      </trkpt>
      <trkpt lat="48.61715" lon="-4.23575">
        <ele>58.8</ele>
        <time>2020-06-10T08:47:21Z</time>
      </trkpt>
      <trkpt lat="48.61714" lon="-4.23574">
        <ele>58.9</ele>
        <time>2020-06-10T08:47:22Z</time>
      </trkpt>
      <trkpt lat="48.61713" lon="-4.23568">
        <ele>58.9</ele>
        <time>2020-06-10T08:47:23Z</time>
      </trkpt>
      <trkpt lat="48.61712" lon="-4.23561">
        <ele>59</ele>
        <time>2020-06-10T08:47:24Z</time>
      </trkpt>
      <trkpt lat="48.61711" lon="-4.23554">
        <ele>59.1</ele>
        <time>2020-06-10T08:47:25Z</time>
      </trkpt>
      <trkpt lat="48.6171" lon="-4.23546">
        <ele>59.2</ele>
        <time>2020-06-10T08:47:26Z</time>
      </trkpt>
      <trkpt lat="48.6171" lon="-4.23539">
        <ele>59.3</ele>
        <time>2020-06-10T08:47:27Z</time>
      </trkpt>
      <trkpt lat="48.61709" lon="-4.23532">
        <ele>59.3</ele>
        <time>2020-06-10T08:47:28Z</time>
      </trkpt>
      <trkpt lat="48.61709" lon="-4.23523">
        <ele>59.3</ele>
        <time>2020-06-10T08:47:29Z</time>
      </trkpt>
      <trkpt lat="48.61708" lon="-4.23514">
        <ele>59.3</ele>
        <time>2020-06-10T08:47:30Z</time>
      </trkpt>
      <trkpt lat="48.61707" lon="-4.23502">
        <ele>59.3</ele>
        <time>2020-06-10T08:47:31Z</time>
      </trkpt>
      <trkpt lat="48.61705" lon="-4.2349">
        <ele>59.2</ele>
        <time>2020-06-10T08:47:32Z</time>
      </trkpt>
      <trkpt lat="48.61703" lon="-4.23477">
        <ele>59.2</ele>
        <time>2020-06-10T08:47:33Z</time>
      </trkpt>
      <trkpt lat="48.61701" lon="-4.23465">
        <ele>59.2</ele>
        <time>2020-06-10T08:47:34Z</time>
      </trkpt>
      <trkpt lat="48.61699" lon="-4.23454">
        <ele>59.3</ele>
        <time>2020-06-10T08:47:35Z</time>
      </trkpt>
      <trkpt lat="48.61697" lon="-4.23443">
        <ele>59.4</ele>
        <time>2020-06-10T08:47:36Z</time>
      </trkpt>
      <trkpt lat="48.61695" lon="-4.23432">
        <ele>59.6</ele>
        <time>2020-06-10T08:47:37Z</time>
      </trkpt>
      <trkpt lat="48.61693" lon="-4.23423">
        <ele>59.6</ele>
        <time>2020-06-10T08:47:38Z</time>
      </trkpt>
      <trkpt lat="48.61692" lon="-4.23415">
        <ele>59.6</ele>
        <time>2020-06-10T08:47:39Z</time>
      </trkpt>
      <trkpt lat="48.61691" lon="-4.23405">
        <ele>59.4</ele>
        <time>2020-06-10T08:47:40Z</time>
      </trkpt>
      <trkpt lat="48.6169" lon="-4.23395">
        <ele>59.3</ele>
        <time>2020-06-10T08:47:41Z</time>
      </trkpt>
      <trkpt lat="48.61689" lon="-4.23383">
        <ele>59.2</ele>
        <time>2020-06-10T08:47:42Z</time>
      </trkpt>
      <trkpt lat="48.61688" lon="-4.23371">
        <ele>59.2</ele>
        <time>2020-06-10T08:47:43Z</time>
      </trkpt>
      <trkpt lat="48.61686" lon="-4.2336">
        <ele>59.1</ele>
        <time>2020-06-10T08:47:44Z</time>
      </trkpt>
      <trkpt lat="48.61684" lon="-4.23348">
        <ele>59.2</ele>
        <time>2020-06-10T08:47:45Z</time>
      </trkpt>
      <trkpt lat="48.61681" lon="-4.23336">
        <ele>59.2</ele>
        <time>2020-06-10T08:47:46Z</time>
      </trkpt>
      <trkpt lat="48.61678" lon="-4.23323">
        <ele>59.2</ele>
        <time>2020-06-10T08:47:47Z</time>
      </trkpt>
      <trkpt lat="48.61677" lon="-4.2331">
        <ele>59.2</ele>
        <time>2020-06-10T08:47:48Z</time>
      </trkpt>
      <trkpt lat="48.61675" lon="-4.23297">
        <ele>59.1</ele>
        <time>2020-06-10T08:47:49Z</time>
      </trkpt>
      <trkpt lat="48.61673" lon="-4.23284">
        <ele>59</ele>
        <time>2020-06-10T08:47:50Z</time>
      </trkpt>
      <trkpt lat="48.6167" lon="-4.23271">
        <ele>59</ele>
        <time>2020-06-10T08:47:51Z</time>
      </trkpt>
      <trkpt lat="48.61668" lon="-4.23258">
        <ele>58.9</ele>
        <time>2020-06-10T08:47:52Z</time>
      </trkpt>
      <trkpt lat="48.61665" lon="-4.23245">
        <ele>58.8</ele>
        <time>2020-06-10T08:47:53Z</time>
      </trkpt>
      <trkpt lat="48.61663" lon="-4.23232">
        <ele>58.7</ele>
        <time>2020-06-10T08:47:54Z</time>
      </trkpt>
      <trkpt lat="48.6166" lon="-4.23219">
        <ele>58.6</ele>
        <time>2020-06-10T08:47:55Z</time>
      </trkpt>
      <trkpt lat="48.61658" lon="-4.23207">
        <ele>58.6</ele>
        <time>2020-06-10T08:47:56Z</time>
      </trkpt>
      <trkpt lat="48.61655" lon="-4.23194">
        <ele>58.5</ele>
        <time>2020-06-10T08:47:57Z</time>
      </trkpt>
      <trkpt lat="48.61653" lon="-4.23182">
        <ele>58.5</ele>
        <time>2020-06-10T08:47:58Z</time>
      </trkpt>
      <trkpt lat="48.6165" lon="-4.2317">
        <ele>58.4</ele>
        <time>2020-06-10T08:47:59Z</time>
      </trkpt>
      <trkpt lat="48.61648" lon="-4.23158">
        <ele>58.3</ele>
        <time>2020-06-10T08:48:00Z</time>
      </trkpt>
      <trkpt lat="48.61646" lon="-4.23147">
        <ele>58.2</ele>
        <time>2020-06-10T08:48:01Z</time>
      </trkpt>
      <trkpt lat="48.61644" lon="-4.23137">
        <ele>58.1</ele>
        <time>2020-06-10T08:48:02Z</time>
      </trkpt>
      <trkpt lat="48.61642" lon="-4.23126">
        <ele>58</ele>
        <time>2020-06-10T08:48:03Z</time>
      </trkpt>
      <trkpt lat="48.61639" lon="-4.23116">
        <ele>57.8</ele>
        <time>2020-06-10T08:48:04Z</time>
      </trkpt>
      <trkpt lat="48.61637" lon="-4.23106">
        <ele>57.6</ele>
        <time>2020-06-10T08:48:05Z</time>
      </trkpt>
      <trkpt lat="48.61634" lon="-4.23096">
        <ele>57.4</ele>
        <time>2020-06-10T08:48:06Z</time>
      </trkpt>
      <trkpt lat="48.61631" lon="-4.23086">
        <ele>57.2</ele>
        <time>2020-06-10T08:48:07Z</time>
      </trkpt>
      <trkpt lat="48.61628" lon="-4.23076">
        <ele>57.1</ele>
        <time>2020-06-10T08:48:08Z</time>
      </trkpt>
      <trkpt lat="48.61626" lon="-4.23067">
        <ele>56.9</ele>
        <time>2020-06-10T08:48:09Z</time>
      </trkpt>
      <trkpt lat="48.61623" lon="-4.23057">
        <ele>56.8</ele>
        <time>2020-06-10T08:48:10Z</time>
      </trkpt>
      <trkpt lat="48.61621" lon="-4.23048">
        <ele>56.7</ele>
        <time>2020-06-10T08:48:11Z</time>
      </trkpt>
      <trkpt lat="48.61618" lon="-4.23039">
        <ele>56.6</ele>
        <time>2020-06-10T08:48:12Z</time>
      </trkpt>
      <trkpt lat="48.61616" lon="-4.23029">
        <ele>56.4</ele>
        <time>2020-06-10T08:48:13Z</time>
      </trkpt>
      <trkpt lat="48.61614" lon="-4.2302">
        <ele>56.3</ele>
        <time>2020-06-10T08:48:14Z</time>
      </trkpt>
      <trkpt lat="48.61611" lon="-4.2301">
        <ele>56.2</ele>
        <time>2020-06-10T08:48:15Z</time>
      </trkpt>
      <trkpt lat="48.61609" lon="-4.23001">
        <ele>56.1</ele>
        <time>2020-06-10T08:48:16Z</time>
      </trkpt>
      <trkpt lat="48.61607" lon="-4.22991">
        <ele>56</ele>
        <time>2020-06-10T08:48:17Z</time>
      </trkpt>
      <trkpt lat="48.61605" lon="-4.22982">
        <ele>55.9</ele>
        <time>2020-06-10T08:48:18Z</time>
      </trkpt>
      <trkpt lat="48.61603" lon="-4.22973">
        <ele>55.9</ele>
        <time>2020-06-10T08:48:19Z</time>
      </trkpt>
      <trkpt lat="48.61601" lon="-4.22963">
        <ele>55.8</ele>
        <time>2020-06-10T08:48:20Z</time>
      </trkpt>
      <trkpt lat="48.61599" lon="-4.22953">
        <ele>55.7</ele>
        <time>2020-06-10T08:48:21Z</time>
      </trkpt>
      <trkpt lat="48.61597" lon="-4.22944">
        <ele>55.7</ele>
        <time>2020-06-10T08:48:22Z</time>
      </trkpt>
      <trkpt lat="48.61594" lon="-4.22934">
        <ele>55.7</ele>
        <time>2020-06-10T08:48:23Z</time>
      </trkpt>
      <trkpt lat="48.61592" lon="-4.22925">
        <ele>55.7</ele>
        <time>2020-06-10T08:48:24Z</time>
      </trkpt>
      <trkpt lat="48.6159" lon="-4.22916">
        <ele>55.7</ele>
        <time>2020-06-10T08:48:25Z</time>
      </trkpt>
      <trkpt lat="48.61588" lon="-4.22906">
        <ele>55.8</ele>
        <time>2020-06-10T08:48:26Z</time>
      </trkpt>
      <trkpt lat="48.61585" lon="-4.22897">
        <ele>55.8</ele>
        <time>2020-06-10T08:48:27Z</time>
      </trkpt>
      <trkpt lat="48.61582" lon="-4.22888">
        <ele>55.9</ele>
        <time>2020-06-10T08:48:28Z</time>
      </trkpt>
      <trkpt lat="48.6158" lon="-4.22879">
        <ele>56</ele>
        <time>2020-06-10T08:48:29Z</time>
      </trkpt>
      <trkpt lat="48.61578" lon="-4.2287">
        <ele>56.2</ele>
        <time>2020-06-10T08:48:30Z</time>
      </trkpt>
      <trkpt lat="48.61576" lon="-4.22861">
        <ele>56.3</ele>
        <time>2020-06-10T08:48:31Z</time>
      </trkpt>
      <trkpt lat="48.61574" lon="-4.22852">
        <ele>56.5</ele>
        <time>2020-06-10T08:48:32Z</time>
      </trkpt>
      <trkpt lat="48.61572" lon="-4.22843">
        <ele>56.6</ele>
        <time>2020-06-10T08:48:33Z</time>
      </trkpt>
      <trkpt lat="48.6157" lon="-4.22835">
        <ele>56.8</ele>
        <time>2020-06-10T08:48:34Z</time>
      </trkpt>
      <trkpt lat="48.61567" lon="-4.22827">
        <ele>56.9</ele>
        <time>2020-06-10T08:48:35Z</time>
      </trkpt>
      <trkpt lat="48.61566" lon="-4.22819">
        <ele>57.1</ele>
        <time>2020-06-10T08:48:36Z</time>
      </trkpt>
      <trkpt lat="48.61564" lon="-4.22811">
        <ele>57.2</ele>
        <time>2020-06-10T08:48:37Z</time>
      </trkpt>
      <trkpt lat="48.61562" lon="-4.22803">
        <ele>57.3</ele>
        <time>2020-06-10T08:48:38Z</time>
      </trkpt>
      <trkpt lat="48.6156" lon="-4.22796">
        <ele>57.4</ele>
        <time>2020-06-10T08:48:39Z</time>
      </trkpt>
      <trkpt lat="48.61558" lon="-4.22788">
        <ele>57.5</ele>
        <time>2020-06-10T08:48:40Z</time>
      </trkpt>
      <trkpt lat="48.61557" lon="-4.2278">
        <ele>57.6</ele>
        <time>2020-06-10T08:48:41Z</time>
      </trkpt>
      <trkpt lat="48.61555" lon="-4.22773">
        <ele>57.7</ele>
        <time>2020-06-10T08:48:42Z</time>
      </trkpt>
      <trkpt lat="48.61554" lon="-4.22765">
        <ele>57.9</ele>
        <time>2020-06-10T08:48:43Z</time>
      </trkpt>
      <trkpt lat="48.61552" lon="-4.22758">
        <ele>58.1</ele>
        <time>2020-06-10T08:48:44Z</time>
      </trkpt>
      <trkpt lat="48.61551" lon="-4.22752">
        <ele>58.2</ele>
        <time>2020-06-10T08:48:45Z</time>
      </trkpt>
      <trkpt lat="48.6155" lon="-4.22746">
        <ele>58.4</ele>
        <time>2020-06-10T08:48:46Z</time>
      </trkpt>
      <trkpt lat="48.61549" lon="-4.2274">
        <ele>58.5</ele>
        <time>2020-06-10T08:48:47Z</time>
      </trkpt>
      <trkpt lat="48.61548" lon="-4.22734">
        <ele>58.6</ele>
        <time>2020-06-10T08:48:48Z</time>
      </trkpt>
      <trkpt lat="48.61546" lon="-4.22727">
        <ele>58.8</ele>
        <time>2020-06-10T08:48:49Z</time>
      </trkpt>
      <trkpt lat="48.61545" lon="-4.22721">
        <ele>58.9</ele>
        <time>2020-06-10T08:48:50Z</time>
      </trkpt>
      <trkpt lat="48.61543" lon="-4.22714">
        <ele>59</ele>
        <time>2020-06-10T08:48:51Z</time>
      </trkpt>
      <trkpt lat="48.61542" lon="-4.22707">
        <ele>59.1</ele>
        <time>2020-06-10T08:48:52Z</time>
      </trkpt>
      <trkpt lat="48.61541" lon="-4.227">
        <ele>59.2</ele>
        <time>2020-06-10T08:48:53Z</time>
      </trkpt>
      <trkpt lat="48.61539" lon="-4.22693">
        <ele>59.4</ele>
        <time>2020-06-10T08:48:54Z</time>
      </trkpt>
      <trkpt lat="48.61538" lon="-4.22686">
        <ele>59.5</ele>
        <time>2020-06-10T08:48:55Z</time>
      </trkpt>
      <trkpt lat="48.61537" lon="-4.22679">
        <ele>59.6</ele>
        <time>2020-06-10T08:48:56Z</time>
      </trkpt>
      <trkpt lat="48.61536" lon="-4.22673">
        <ele>59.7</ele>
        <time>2020-06-10T08:48:57Z</time>
      </trkpt>
      <trkpt lat="48.61535" lon="-4.22666">
        <ele>59.8</ele>
        <time>2020-06-10T08:48:58Z</time>
      </trkpt>
      <trkpt lat="48.61533" lon="-4.2266">
        <ele>59.9</ele>
        <time>2020-06-10T08:48:59Z</time>
      </trkpt>
      <trkpt lat="48.61531" lon="-4.22653">
        <ele>60.1</ele>
        <time>2020-06-10T08:49:00Z</time>
      </trkpt>
      <trkpt lat="48.61529" lon="-4.22646">
        <ele>60.2</ele>
        <time>2020-06-10T08:49:01Z</time>
      </trkpt>
      <trkpt lat="48.61527" lon="-4.22639">
        <ele>60.3</ele>
        <time>2020-06-10T08:49:02Z</time>
      </trkpt>
      <trkpt lat="48.61525" lon="-4.22633">
        <ele>60.4</ele>
        <time>2020-06-10T08:49:03Z</time>
      </trkpt>
      <trkpt lat="48.61523" lon="-4.22625">
        <ele>60.5</ele>
        <time>2020-06-10T08:49:04Z</time>
      </trkpt>
      <trkpt lat="48.61521" lon="-4.22619">
        <ele>60.6</ele>
        <time>2020-06-10T08:49:05Z</time>
      </trkpt>
      <trkpt lat="48.61519" lon="-4.22613">
        <ele>60.7</ele>
        <time>2020-06-10T08:49:06Z</time>
      </trkpt>
      <trkpt lat="48.61518" lon="-4.22607">
        <ele>60.8</ele>
        <time>2020-06-10T08:49:07Z</time>
      </trkpt>
      <trkpt lat="48.61517" lon="-4.226">
        <ele>60.9</ele>
        <time>2020-06-10T08:49:08Z</time>
      </trkpt>
      <trkpt lat="48.61516" lon="-4.22594">
        <ele>61.1</ele>
        <time>2020-06-10T08:49:09Z</time>
      </trkpt>
      <trkpt lat="48.61515" lon="-4.22589">
        <ele>61.2</ele>
        <time>2020-06-10T08:49:10Z</time>
      </trkpt>
      <trkpt lat="48.61514" lon="-4.22583">
        <ele>61.4</ele>
        <time>2020-06-10T08:49:11Z</time>
      </trkpt>
      <trkpt lat="48.61512" lon="-4.22576">
        <ele>61.6</ele>
        <time>2020-06-10T08:49:12Z</time>
      </trkpt>
      <trkpt lat="48.6151" lon="-4.22569">
        <ele>61.8</ele>
        <time>2020-06-10T08:49:13Z</time>
      </trkpt>
      <trkpt lat="48.61508" lon="-4.22562">
        <ele>62</ele>
        <time>2020-06-10T08:49:14Z</time>
      </trkpt>
      <trkpt lat="48.61507" lon="-4.22555">
        <ele>62.3</ele>
        <time>2020-06-10T08:49:15Z</time>
      </trkpt>
      <trkpt lat="48.61506" lon="-4.22548">
        <ele>62.5</ele>
        <time>2020-06-10T08:49:16Z</time>
      </trkpt>
      <trkpt lat="48.61505" lon="-4.22541">
        <ele>62.8</ele>
        <time>2020-06-10T08:49:17Z</time>
      </trkpt>
      <trkpt lat="48.61504" lon="-4.22533">
        <ele>62.9</ele>
        <time>2020-06-10T08:49:18Z</time>
      </trkpt>
      <trkpt lat="48.61502" lon="-4.22528">
        <ele>62.9</ele>
        <time>2020-06-10T08:49:19Z</time>
      </trkpt>
      <trkpt lat="48.61501" lon="-4.22523">
        <ele>63</ele>
        <time>2020-06-10T08:49:20Z</time>
      </trkpt>
      <trkpt lat="48.61499" lon="-4.22517">
        <ele>63</ele>
        <time>2020-06-10T08:49:21Z</time>
      </trkpt>
      <trkpt lat="48.61497" lon="-4.2251">
        <ele>63</ele>
        <time>2020-06-10T08:49:22Z</time>
      </trkpt>
      <trkpt lat="48.61494" lon="-4.22503">
        <ele>63</ele>
        <time>2020-06-10T08:49:23Z</time>
      </trkpt>
      <trkpt lat="48.61491" lon="-4.22497">
        <ele>63</ele>
        <time>2020-06-10T08:49:24Z</time>
      </trkpt>
      <trkpt lat="48.61489" lon="-4.22489">
        <ele>63</ele>
        <time>2020-06-10T08:49:25Z</time>
      </trkpt>
      <trkpt lat="48.61488" lon="-4.22482">
        <ele>63.1</ele>
        <time>2020-06-10T08:49:26Z</time>
      </trkpt>
      <trkpt lat="48.61486" lon="-4.22475">
        <ele>63.1</ele>
        <time>2020-06-10T08:49:27Z</time>
      </trkpt>
      <trkpt lat="48.61485" lon="-4.22467">
        <ele>63.2</ele>
        <time>2020-06-10T08:49:28Z</time>
      </trkpt>
      <trkpt lat="48.61482" lon="-4.22461">
        <ele>63.2</ele>
        <time>2020-06-10T08:49:29Z</time>
      </trkpt>
      <trkpt lat="48.6148" lon="-4.22454">
        <ele>63.3</ele>
        <time>2020-06-10T08:49:30Z</time>
      </trkpt>
      <trkpt lat="48.61478" lon="-4.22447">
        <ele>63.3</ele>
        <time>2020-06-10T08:49:31Z</time>
      </trkpt>
      <trkpt lat="48.61476" lon="-4.2244">
        <ele>63.4</ele>
        <time>2020-06-10T08:49:32Z</time>
      </trkpt>
      <trkpt lat="48.61474" lon="-4.22432">
        <ele>63.4</ele>
        <time>2020-06-10T08:49:33Z</time>
      </trkpt>
      <trkpt lat="48.61472" lon="-4.22423">
        <ele>63.4</ele>
        <time>2020-06-10T08:49:34Z</time>
      </trkpt>
      <trkpt lat="48.6147" lon="-4.22415">
        <ele>63.4</ele>
        <time>2020-06-10T08:49:35Z</time>
      </trkpt>
      <trkpt lat="48.61469" lon="-4.22408">
        <ele>63.4</ele>
        <time>2020-06-10T08:49:36Z</time>
      </trkpt>
      <trkpt lat="48.61466" lon="-4.22401">
        <ele>63.4</ele>
        <time>2020-06-10T08:49:37Z</time>
      </trkpt>
      <trkpt lat="48.61463" lon="-4.22394">
        <ele>63.4</ele>
        <time>2020-06-10T08:49:38Z</time>
      </trkpt>
      <trkpt lat="48.61461" lon="-4.22387">
        <ele>63.4</ele>
        <time>2020-06-10T08:49:39Z</time>
      </trkpt>
      <trkpt lat="48.61459" lon="-4.2238">
        <ele>63.5</ele>
        <time>2020-06-10T08:49:40Z</time>
      </trkpt>
      <trkpt lat="48.61457" lon="-4.22373">
        <ele>63.6</ele>
        <time>2020-06-10T08:49:41Z</time>
      </trkpt>
      <trkpt lat="48.61455" lon="-4.22365">
        <ele>63.7</ele>
        <time>2020-06-10T08:49:42Z</time>
      </trkpt>
      <trkpt lat="48.61453" lon="-4.22358">
        <ele>63.8</ele>
        <time>2020-06-10T08:49:43Z</time>
      </trkpt>
      <trkpt lat="48.61452" lon="-4.2235">
        <ele>63.9</ele>
        <time>2020-06-10T08:49:44Z</time>
      </trkpt>
      <trkpt lat="48.61451" lon="-4.22342">
        <ele>63.9</ele>
        <time>2020-06-10T08:49:45Z</time>
      </trkpt>
      <trkpt lat="48.61449" lon="-4.22335">
        <ele>64</ele>
        <time>2020-06-10T08:49:46Z</time>
      </trkpt>
      <trkpt lat="48.61446" lon="-4.22328">
        <ele>64</ele>
        <time>2020-06-10T08:49:47Z</time>
      </trkpt>
      <trkpt lat="48.61445" lon="-4.2232">
        <ele>64.1</ele>
        <time>2020-06-10T08:49:48Z</time>
      </trkpt>
      <trkpt lat="48.61443" lon="-4.22312">
        <ele>64.2</ele>
        <time>2020-06-10T08:49:49Z</time>
      </trkpt>
      <trkpt lat="48.61441" lon="-4.22304">
        <ele>64.2</ele>
        <time>2020-06-10T08:49:50Z</time>
      </trkpt>
      <trkpt lat="48.61439" lon="-4.22296">
        <ele>64.3</ele>
        <time>2020-06-10T08:49:51Z</time>
      </trkpt>
      <trkpt lat="48.61438" lon="-4.22289">
        <ele>64.3</ele>
        <time>2020-06-10T08:49:52Z</time>
      </trkpt>
      <trkpt lat="48.61435" lon="-4.22282">
        <ele>64.3</ele>
        <time>2020-06-10T08:49:53Z</time>
      </trkpt>
      <trkpt lat="48.61434" lon="-4.22274">
        <ele>64.4</ele>
        <time>2020-06-10T08:49:54Z</time>
      </trkpt>
      <trkpt lat="48.61432" lon="-4.22266">
        <ele>64.4</ele>
        <time>2020-06-10T08:49:55Z</time>
      </trkpt>
      <trkpt lat="48.61429" lon="-4.22258">
        <ele>64.5</ele>
        <time>2020-06-10T08:49:56Z</time>
      </trkpt>
      <trkpt lat="48.61427" lon="-4.2225">
        <ele>64.3</ele>
        <time>2020-06-10T08:49:57Z</time>
      </trkpt>
      <trkpt lat="48.61425" lon="-4.22242">
        <ele>64.3</ele>
        <time>2020-06-10T08:49:58Z</time>
      </trkpt>
      <trkpt lat="48.61423" lon="-4.22233">
        <ele>64.2</ele>
        <time>2020-06-10T08:49:59Z</time>
      </trkpt>
      <trkpt lat="48.61421" lon="-4.22225">
        <ele>64.2</ele>
        <time>2020-06-10T08:50:00Z</time>
      </trkpt>
      <trkpt lat="48.61419" lon="-4.22217">
        <ele>64.2</ele>
        <time>2020-06-10T08:50:01Z</time>
      </trkpt>
      <trkpt lat="48.61418" lon="-4.22209">
        <ele>64.2</ele>
        <time>2020-06-10T08:50:02Z</time>
      </trkpt>
      <trkpt lat="48.61416" lon="-4.22201">
        <ele>64.2</ele>
        <time>2020-06-10T08:50:03Z</time>
      </trkpt>
      <trkpt lat="48.61414" lon="-4.22193">
        <ele>64.2</ele>
        <time>2020-06-10T08:50:04Z</time>
      </trkpt>
      <trkpt lat="48.61413" lon="-4.22185">
        <ele>64.3</ele>
        <time>2020-06-10T08:50:05Z</time>
      </trkpt>
      <trkpt lat="48.61412" lon="-4.22177">
        <ele>64.3</ele>
        <time>2020-06-10T08:50:06Z</time>
      </trkpt>
      <trkpt lat="48.61409" lon="-4.2217">
        <ele>64.3</ele>
        <time>2020-06-10T08:50:07Z</time>
      </trkpt>
      <trkpt lat="48.61408" lon="-4.22162">
        <ele>64.3</ele>
        <time>2020-06-10T08:50:08Z</time>
      </trkpt>
      <trkpt lat="48.61405" lon="-4.22155">
        <ele>64.3</ele>
        <time>2020-06-10T08:50:09Z</time>
      </trkpt>
      <trkpt lat="48.61404" lon="-4.22147">
        <ele>64.3</ele>
        <time>2020-06-10T08:50:10Z</time>
      </trkpt>
      <trkpt lat="48.61404" lon="-4.22139">
        <ele>64.3</ele>
        <time>2020-06-10T08:50:11Z</time>
      </trkpt>
      <trkpt lat="48.61402" lon="-4.22132">
        <ele>64.3</ele>
        <time>2020-06-10T08:50:12Z</time>
      </trkpt>
      <trkpt lat="48.61401" lon="-4.22124">
        <ele>64.3</ele>
        <time>2020-06-10T08:50:13Z</time>
      </trkpt>
      <trkpt lat="48.614" lon="-4.22116">
        <ele>64.3</ele>
        <time>2020-06-10T08:50:14Z</time>
      </trkpt>
      <trkpt lat="48.61398" lon="-4.22108">
        <ele>64.3</ele>
        <time>2020-06-10T08:50:15Z</time>
      </trkpt>
      <trkpt lat="48.61397" lon="-4.221">
        <ele>64.3</ele>
        <time>2020-06-10T08:50:16Z</time>
      </trkpt>
      <trkpt lat="48.61395" lon="-4.22093">
        <ele>64.4</ele>
        <time>2020-06-10T08:50:17Z</time>
      </trkpt>
      <trkpt lat="48.61393" lon="-4.22085">
        <ele>64.4</ele>
        <time>2020-06-10T08:50:18Z</time>
      </trkpt>
      <trkpt lat="48.61392" lon="-4.22078">
        <ele>64.4</ele>
        <time>2020-06-10T08:50:19Z</time>
      </trkpt>
      <trkpt lat="48.61391" lon="-4.2207">
        <ele>64.5</ele>
        <time>2020-06-10T08:50:20Z</time>
      </trkpt>
      <trkpt lat="48.6139" lon="-4.22062">
        <ele>64.4</ele>
        <time>2020-06-10T08:50:21Z</time>
      </trkpt>
      <trkpt lat="48.61389" lon="-4.22055">
        <ele>64.4</ele>
        <time>2020-06-10T08:50:22Z</time>
      </trkpt>
      <trkpt lat="48.61389" lon="-4.22047">
        <ele>64.4</ele>
        <time>2020-06-10T08:50:23Z</time>
      </trkpt>
      <trkpt lat="48.61388" lon="-4.22038">
        <ele>64.3</ele>
        <time>2020-06-10T08:50:24Z</time>
      </trkpt>
      <trkpt lat="48.61388" lon="-4.22031">
        <ele>64.3</ele>
        <time>2020-06-10T08:50:25Z</time>
      </trkpt>
      <trkpt lat="48.61388" lon="-4.22023">
        <ele>64.2</ele>
        <time>2020-06-10T08:50:26Z</time>
      </trkpt>
      <trkpt lat="48.61387" lon="-4.22015">
        <ele>64.2</ele>
        <time>2020-06-10T08:50:27Z</time>
      </trkpt>
      <trkpt lat="48.61385" lon="-4.22008">
        <ele>64.2</ele>
        <time>2020-06-10T08:50:28Z</time>
      </trkpt>
      <trkpt lat="48.61384" lon="-4.22">
        <ele>64.3</ele>
        <time>2020-06-10T08:50:29Z</time>
      </trkpt>
      <trkpt lat="48.61384" lon="-4.21992">
        <ele>64.4</ele>
        <time>2020-06-10T08:50:30Z</time>
      </trkpt>
      <trkpt lat="48.61384" lon="-4.21984">
        <ele>64.5</ele>
        <time>2020-06-10T08:50:31Z</time>
      </trkpt>
      <trkpt lat="48.61383" lon="-4.21976">
        <ele>64.5</ele>
        <time>2020-06-10T08:50:32Z</time>
      </trkpt>
      <trkpt lat="48.61381" lon="-4.21969">
        <ele>64.5</ele>
        <time>2020-06-10T08:50:33Z</time>
      </trkpt>
      <trkpt lat="48.6138" lon="-4.21961">
        <ele>64.5</ele>
        <time>2020-06-10T08:50:34Z</time>
      </trkpt>
      <trkpt lat="48.6138" lon="-4.21953">
        <ele>64.5</ele>
        <time>2020-06-10T08:50:35Z</time>
      </trkpt>
      <trkpt lat="48.61379" lon="-4.21945">
        <ele>64.5</ele>
        <time>2020-06-10T08:50:36Z</time>
      </trkpt>
      <trkpt lat="48.61378" lon="-4.21936">
        <ele>64.6</ele>
        <time>2020-06-10T08:50:37Z</time>
      </trkpt>
      <trkpt lat="48.61377" lon="-4.21928">
        <ele>64.6</ele>
        <time>2020-06-10T08:50:38Z</time>
      </trkpt>
      <trkpt lat="48.61376" lon="-4.21919">
        <ele>64.7</ele>
        <time>2020-06-10T08:50:39Z</time>
      </trkpt>
      <trkpt lat="48.61375" lon="-4.21911">
        <ele>64.7</ele>
        <time>2020-06-10T08:50:40Z</time>
      </trkpt>
      <trkpt lat="48.61375" lon="-4.21903">
        <ele>64.7</ele>
        <time>2020-06-10T08:50:41Z</time>
      </trkpt>
      <trkpt lat="48.61375" lon="-4.21896">
        <ele>64.8</ele>
        <time>2020-06-10T08:50:42Z</time>
      </trkpt>
      <trkpt lat="48.61374" lon="-4.21888">
        <ele>64.8</ele>
        <time>2020-06-10T08:50:43Z</time>
      </trkpt>
      <trkpt lat="48.61374" lon="-4.2188">
        <ele>64.8</ele>
        <time>2020-06-10T08:50:44Z</time>
      </trkpt>
      <trkpt lat="48.61374" lon="-4.21872">
        <ele>64.8</ele>
        <time>2020-06-10T08:50:45Z</time>
      </trkpt>
      <trkpt lat="48.61375" lon="-4.21864">
        <ele>64.7</ele>
        <time>2020-06-10T08:50:46Z</time>
      </trkpt>
      <trkpt lat="48.61375" lon="-4.21855">
        <ele>64.7</ele>
        <time>2020-06-10T08:50:47Z</time>
      </trkpt>
      <trkpt lat="48.61376" lon="-4.21847">
        <ele>64.7</ele>
        <time>2020-06-10T08:50:48Z</time>
      </trkpt>
      <trkpt lat="48.61376" lon="-4.21838">
        <ele>64.7</ele>
        <time>2020-06-10T08:50:49Z</time>
      </trkpt>
      <trkpt lat="48.61377" lon="-4.2183">
        <ele>64.7</ele>
        <time>2020-06-10T08:50:50Z</time>
      </trkpt>
      <trkpt lat="48.61378" lon="-4.21822">
        <ele>64.7</ele>
        <time>2020-06-10T08:50:51Z</time>
      </trkpt>
      <trkpt lat="48.61379" lon="-4.21814">
        <ele>64.8</ele>
        <time>2020-06-10T08:50:52Z</time>
      </trkpt>
      <trkpt lat="48.61379" lon="-4.21806">
        <ele>64.9</ele>
        <time>2020-06-10T08:50:53Z</time>
      </trkpt>
      <trkpt lat="48.6138" lon="-4.21798">
        <ele>65</ele>
        <time>2020-06-10T08:50:54Z</time>
      </trkpt>
      <trkpt lat="48.61379" lon="-4.2179">
        <ele>65.1</ele>
        <time>2020-06-10T08:50:55Z</time>
      </trkpt>
      <trkpt lat="48.61379" lon="-4.21782">
        <ele>65.2</ele>
        <time>2020-06-10T08:50:56Z</time>
      </trkpt>
      <trkpt lat="48.61379" lon="-4.21774">
        <ele>65.2</ele>
        <time>2020-06-10T08:50:57Z</time>
      </trkpt>
      <trkpt lat="48.61379" lon="-4.21766">
        <ele>65.3</ele>
        <time>2020-06-10T08:50:58Z</time>
      </trkpt>
      <trkpt lat="48.6138" lon="-4.21758">
        <ele>65.3</ele>
        <time>2020-06-10T08:50:59Z</time>
      </trkpt>
      <trkpt lat="48.6138" lon="-4.2175">
        <ele>65.4</ele>
        <time>2020-06-10T08:51:00Z</time>
      </trkpt>
      <trkpt lat="48.61379" lon="-4.21742">
        <ele>65.4</ele>
        <time>2020-06-10T08:51:01Z</time>
      </trkpt>
      <trkpt lat="48.61378" lon="-4.21733">
        <ele>65.5</ele>
        <time>2020-06-10T08:51:02Z</time>
      </trkpt>
      <trkpt lat="48.61377" lon="-4.21725">
        <ele>65.5</ele>
        <time>2020-06-10T08:51:03Z</time>
      </trkpt>
      <trkpt lat="48.61378" lon="-4.21716">
        <ele>65.5</ele>
        <time>2020-06-10T08:51:04Z</time>
      </trkpt>
      <trkpt lat="48.61379" lon="-4.21708">
        <ele>65.6</ele>
        <time>2020-06-10T08:51:05Z</time>
      </trkpt>
      <trkpt lat="48.61379" lon="-4.21699">
        <ele>65.6</ele>
        <time>2020-06-10T08:51:06Z</time>
      </trkpt>
      <trkpt lat="48.61379" lon="-4.2169">
        <ele>65.7</ele>
        <time>2020-06-10T08:51:07Z</time>
      </trkpt>
      <trkpt lat="48.61379" lon="-4.21682">
        <ele>65.8</ele>
        <time>2020-06-10T08:51:08Z</time>
      </trkpt>
      <trkpt lat="48.6138" lon="-4.21673">
        <ele>65.9</ele>
        <time>2020-06-10T08:51:09Z</time>
      </trkpt>
      <trkpt lat="48.6138" lon="-4.21665">
        <ele>65.9</ele>
        <time>2020-06-10T08:51:10Z</time>
      </trkpt>
      <trkpt lat="48.61381" lon="-4.21657">
        <ele>66</ele>
        <time>2020-06-10T08:51:11Z</time>
      </trkpt>
      <trkpt lat="48.61382" lon="-4.21649">
        <ele>66</ele>
        <time>2020-06-10T08:51:12Z</time>
      </trkpt>
      <trkpt lat="48.61383" lon="-4.21641">
        <ele>66.1</ele>
        <time>2020-06-10T08:51:13Z</time>
      </trkpt>
      <trkpt lat="48.61383" lon="-4.21634">
        <ele>66.1</ele>
        <time>2020-06-10T08:51:14Z</time>
      </trkpt>
      <trkpt lat="48.61383" lon="-4.21627">
        <ele>66.2</ele>
        <time>2020-06-10T08:51:15Z</time>
      </trkpt>
      <trkpt lat="48.61383" lon="-4.2162">
        <ele>66.3</ele>
        <time>2020-06-10T08:51:16Z</time>
      </trkpt>
      <trkpt lat="48.61383" lon="-4.21612">
        <ele>66.3</ele>
        <time>2020-06-10T08:51:17Z</time>
      </trkpt>
      <trkpt lat="48.61383" lon="-4.21606">
        <ele>66.4</ele>
        <time>2020-06-10T08:51:18Z</time>
      </trkpt>
      <trkpt lat="48.61383" lon="-4.21599">
        <ele>66.4</ele>
        <time>2020-06-10T08:51:19Z</time>
      </trkpt>
      <trkpt lat="48.61383" lon="-4.21593">
        <ele>66.4</ele>
        <time>2020-06-10T08:51:20Z</time>
      </trkpt>
      <trkpt lat="48.61383" lon="-4.21588">
        <ele>66.4</ele>
        <time>2020-06-10T08:51:21Z</time>
      </trkpt>
      <trkpt lat="48.61385" lon="-4.21584">
        <ele>66.3</ele>
        <time>2020-06-10T08:51:22Z</time>
      </trkpt>
      <trkpt lat="48.61388" lon="-4.21584">
        <ele>66.2</ele>
        <time>2020-06-10T08:51:23Z</time>
      </trkpt>
      <trkpt lat="48.61389" lon="-4.21585">
        <ele>66.2</ele>
        <time>2020-06-10T08:51:24Z</time>
      </trkpt>
      <trkpt lat="48.61392" lon="-4.21589">
        <ele>66.1</ele>
        <time>2020-06-10T08:51:25Z</time>
      </trkpt>
      <trkpt lat="48.61395" lon="-4.21592">
        <ele>66</ele>
        <time>2020-06-10T08:51:26Z</time>
      </trkpt>
      <trkpt lat="48.61398" lon="-4.21595">
        <ele>65.9</ele>
        <time>2020-06-10T08:51:27Z</time>
      </trkpt>
      <trkpt lat="48.61401" lon="-4.21597">
        <ele>65.8</ele>
        <time>2020-06-10T08:51:28Z</time>
      </trkpt>
      <trkpt lat="48.61405" lon="-4.216">
        <ele>65.8</ele>
        <time>2020-06-10T08:51:29Z</time>
      </trkpt>
      <trkpt lat="48.61409" lon="-4.21599">
        <ele>65.7</ele>
        <time>2020-06-10T08:51:30Z</time>
      </trkpt>
      <trkpt lat="48.61413" lon="-4.21598">
        <ele>65.6</ele>
        <time>2020-06-10T08:51:31Z</time>
      </trkpt>
      <trkpt lat="48.61417" lon="-4.21597">
        <ele>65.5</ele>
        <time>2020-06-10T08:51:32Z</time>
      </trkpt>
      <trkpt lat="48.61422" lon="-4.21596">
        <ele>65.5</ele>
        <time>2020-06-10T08:51:33Z</time>
      </trkpt>
      <trkpt lat="48.61426" lon="-4.21594">
        <ele>65.4</ele>
        <time>2020-06-10T08:51:34Z</time>
      </trkpt>
      <trkpt lat="48.61431" lon="-4.21593">
        <ele>65.4</ele>
        <time>2020-06-10T08:51:35Z</time>
      </trkpt>
      <trkpt lat="48.61436" lon="-4.2159">
        <ele>65.4</ele>
        <time>2020-06-10T08:51:36Z</time>
      </trkpt>
      <trkpt lat="48.61441" lon="-4.21589">
        <ele>65.4</ele>
        <time>2020-06-10T08:51:37Z</time>
      </trkpt>
      <trkpt lat="48.61446" lon="-4.21586">
        <ele>65.4</ele>
        <time>2020-06-10T08:51:38Z</time>
      </trkpt>
      <trkpt lat="48.61451" lon="-4.21584">
        <ele>65.4</ele>
        <time>2020-06-10T08:51:39Z</time>
      </trkpt>
      <trkpt lat="48.61456" lon="-4.21582">
        <ele>65.4</ele>
        <time>2020-06-10T08:51:40Z</time>
      </trkpt>
      <trkpt lat="48.61461" lon="-4.21581">
        <ele>65.5</ele>
        <time>2020-06-10T08:51:41Z</time>
      </trkpt>
      <trkpt lat="48.61466" lon="-4.21579">
        <ele>65.5</ele>
        <time>2020-06-10T08:51:42Z</time>
      </trkpt>
      <trkpt lat="48.61471" lon="-4.21578">
        <ele>65.6</ele>
        <time>2020-06-10T08:51:43Z</time>
      </trkpt>
      <trkpt lat="48.61476" lon="-4.21576">
        <ele>65.7</ele>
        <time>2020-06-10T08:51:44Z</time>
      </trkpt>
      <trkpt lat="48.6148" lon="-4.21574">
        <ele>65.8</ele>
        <time>2020-06-10T08:51:45Z</time>
      </trkpt>
      <trkpt lat="48.61485" lon="-4.21574">
        <ele>65.9</ele>
        <time>2020-06-10T08:51:46Z</time>
      </trkpt>
      <trkpt lat="48.6149" lon="-4.21573">
        <ele>65.9</ele>
        <time>2020-06-10T08:51:47Z</time>
      </trkpt>
      <trkpt lat="48.61495" lon="-4.21571">
        <ele>66</ele>
        <time>2020-06-10T08:51:48Z</time>
      </trkpt>
      <trkpt lat="48.61499" lon="-4.21568">
        <ele>66.1</ele>
        <time>2020-06-10T08:51:49Z</time>
      </trkpt>
      <trkpt lat="48.61504" lon="-4.21567">
        <ele>66.1</ele>
        <time>2020-06-10T08:51:50Z</time>
      </trkpt>
      <trkpt lat="48.61508" lon="-4.21565">
        <ele>66.2</ele>
        <time>2020-06-10T08:51:51Z</time>
      </trkpt>
      <trkpt lat="48.61513" lon="-4.21565">
        <ele>66.3</ele>
        <time>2020-06-10T08:51:52Z</time>
      </trkpt>
      <trkpt lat="48.61518" lon="-4.21563">
        <ele>66.3</ele>
        <time>2020-06-10T08:51:53Z</time>
      </trkpt>
      <trkpt lat="48.61522" lon="-4.21562">
        <ele>66.4</ele>
        <time>2020-06-10T08:51:54Z</time>
      </trkpt>
      <trkpt lat="48.61527" lon="-4.21562">
        <ele>66.5</ele>
        <time>2020-06-10T08:51:55Z</time>
      </trkpt>
      <trkpt lat="48.61532" lon="-4.2156">
        <ele>66.6</ele>
        <time>2020-06-10T08:51:56Z</time>
      </trkpt>
      <trkpt lat="48.61536" lon="-4.21558">
        <ele>66.7</ele>
        <time>2020-06-10T08:51:57Z</time>
      </trkpt>
      <trkpt lat="48.61541" lon="-4.21556">
        <ele>66.7</ele>
        <time>2020-06-10T08:51:58Z</time>
      </trkpt>
      <trkpt lat="48.61545" lon="-4.21555">
        <ele>66.8</ele>
        <time>2020-06-10T08:51:59Z</time>
      </trkpt>
      <trkpt lat="48.6155" lon="-4.21554">
        <ele>66.9</ele>
        <time>2020-06-10T08:52:00Z</time>
      </trkpt>
      <trkpt lat="48.61554" lon="-4.21554">
        <ele>66.9</ele>
        <time>2020-06-10T08:52:01Z</time>
      </trkpt>
      <trkpt lat="48.61558" lon="-4.21554">
        <ele>67</ele>
        <time>2020-06-10T08:52:02Z</time>
      </trkpt>
      <trkpt lat="48.61563" lon="-4.21553">
        <ele>67.1</ele>
        <time>2020-06-10T08:52:03Z</time>
      </trkpt>
      <trkpt lat="48.61567" lon="-4.21553">
        <ele>67.2</ele>
        <time>2020-06-10T08:52:04Z</time>
      </trkpt>
      <trkpt lat="48.61571" lon="-4.21551">
        <ele>67.2</ele>
        <time>2020-06-10T08:52:05Z</time>
      </trkpt>
      <trkpt lat="48.61576" lon="-4.21549">
        <ele>67.3</ele>
        <time>2020-06-10T08:52:06Z</time>
      </trkpt>
      <trkpt lat="48.6158" lon="-4.21544">
        <ele>67.4</ele>
        <time>2020-06-10T08:52:07Z</time>
      </trkpt>
      <trkpt lat="48.61584" lon="-4.2154">
        <ele>67.4</ele>
        <time>2020-06-10T08:52:08Z</time>
      </trkpt>
      <trkpt lat="48.61587" lon="-4.21533">
        <ele>67.4</ele>
        <time>2020-06-10T08:52:09Z</time>
      </trkpt>
      <trkpt lat="48.61591" lon="-4.21527">
        <ele>67.4</ele>
        <time>2020-06-10T08:52:10Z</time>
      </trkpt>
      <trkpt lat="48.61593" lon="-4.2152">
        <ele>67.4</ele>
        <time>2020-06-10T08:52:11Z</time>
      </trkpt>
      <trkpt lat="48.61595" lon="-4.21513">
        <ele>67.3</ele>
        <time>2020-06-10T08:52:12Z</time>
      </trkpt>
      <trkpt lat="48.61598" lon="-4.21506">
        <ele>67.3</ele>
        <time>2020-06-10T08:52:13Z</time>
      </trkpt>
      <trkpt lat="48.616" lon="-4.21499">
        <ele>67.2</ele>
        <time>2020-06-10T08:52:14Z</time>
      </trkpt>
      <trkpt lat="48.61602" lon="-4.21492">
        <ele>67.2</ele>
        <time>2020-06-10T08:52:15Z</time>
      </trkpt>
      <trkpt lat="48.61604" lon="-4.21486">
        <ele>67.2</ele>
        <time>2020-06-10T08:52:16Z</time>
      </trkpt>
      <trkpt lat="48.61605" lon="-4.21478">
        <ele>67.2</ele>
        <time>2020-06-10T08:52:17Z</time>
      </trkpt>
      <trkpt lat="48.61607" lon="-4.21471">
        <ele>67.1</ele>
        <time>2020-06-10T08:52:18Z</time>
      </trkpt>
      <trkpt lat="48.61609" lon="-4.21464">
        <ele>67.1</ele>
        <time>2020-06-10T08:52:19Z</time>
      </trkpt>
      <trkpt lat="48.6161" lon="-4.21456">
        <ele>67.1</ele>
        <time>2020-06-10T08:52:20Z</time>
      </trkpt>
      <trkpt lat="48.61613" lon="-4.2145">
        <ele>67.1</ele>
        <time>2020-06-10T08:52:21Z</time>
      </trkpt>
      <trkpt lat="48.61616" lon="-4.21443">
        <ele>67.1</ele>
        <time>2020-06-10T08:52:22Z</time>
      </trkpt>
      <trkpt lat="48.61618" lon="-4.21436">
        <ele>67.1</ele>
        <time>2020-06-10T08:52:23Z</time>
      </trkpt>
      <trkpt lat="48.61621" lon="-4.21429">
        <ele>67.1</ele>
        <time>2020-06-10T08:52:24Z</time>
      </trkpt>
      <trkpt lat="48.61624" lon="-4.21422">
        <ele>67.1</ele>
        <time>2020-06-10T08:52:25Z</time>
      </trkpt>
      <trkpt lat="48.61625" lon="-4.21414">
        <ele>67.1</ele>
        <time>2020-06-10T08:52:26Z</time>
      </trkpt>
      <trkpt lat="48.61627" lon="-4.21407">
        <ele>67</ele>
        <time>2020-06-10T08:52:27Z</time>
      </trkpt>
      <trkpt lat="48.6163" lon="-4.214">
        <ele>67</ele>
        <time>2020-06-10T08:52:28Z</time>
      </trkpt>
      <trkpt lat="48.61634" lon="-4.21394">
        <ele>67</ele>
        <time>2020-06-10T08:52:29Z</time>
      </trkpt>
      <trkpt lat="48.61637" lon="-4.21388">
        <ele>67</ele>
        <time>2020-06-10T08:52:30Z</time>
      </trkpt>
      <trkpt lat="48.6164" lon="-4.21381">
        <ele>66.9</ele>
        <time>2020-06-10T08:52:31Z</time>
      </trkpt>
      <trkpt lat="48.61642" lon="-4.21375">
        <ele>66.9</ele>
        <time>2020-06-10T08:52:32Z</time>
      </trkpt>
      <trkpt lat="48.61644" lon="-4.21368">
        <ele>66.9</ele>
        <time>2020-06-10T08:52:33Z</time>
      </trkpt>
      <trkpt lat="48.61646" lon="-4.21361">
        <ele>66.9</ele>
        <time>2020-06-10T08:52:34Z</time>
      </trkpt>
      <trkpt lat="48.61648" lon="-4.21353">
        <ele>66.9</ele>
        <time>2020-06-10T08:52:35Z</time>
      </trkpt>
      <trkpt lat="48.61651" lon="-4.21346">
        <ele>66.9</ele>
        <time>2020-06-10T08:52:36Z</time>
      </trkpt>
      <trkpt lat="48.61654" lon="-4.21339">
        <ele>66.9</ele>
        <time>2020-06-10T08:52:37Z</time>
      </trkpt>
      <trkpt lat="48.61655" lon="-4.21331">
        <ele>67</ele>
        <time>2020-06-10T08:52:38Z</time>
      </trkpt>
      <trkpt lat="48.61658" lon="-4.21324">
        <ele>67</ele>
        <time>2020-06-10T08:52:39Z</time>
      </trkpt>
      <trkpt lat="48.61659" lon="-4.21317">
        <ele>67.1</ele>
        <time>2020-06-10T08:52:40Z</time>
      </trkpt>
      <trkpt lat="48.61661" lon="-4.2131">
        <ele>67.2</ele>
        <time>2020-06-10T08:52:41Z</time>
      </trkpt>
      <trkpt lat="48.61663" lon="-4.21303">
        <ele>67.3</ele>
        <time>2020-06-10T08:52:42Z</time>
      </trkpt>
      <trkpt lat="48.61665" lon="-4.21296">
        <ele>67.3</ele>
        <time>2020-06-10T08:52:43Z</time>
      </trkpt>
      <trkpt lat="48.61667" lon="-4.21289">
        <ele>67.4</ele>
        <time>2020-06-10T08:52:44Z</time>
      </trkpt>
      <trkpt lat="48.6167" lon="-4.21283">
        <ele>67.4</ele>
        <time>2020-06-10T08:52:45Z</time>
      </trkpt>
      <trkpt lat="48.61672" lon="-4.21276">
        <ele>67.5</ele>
        <time>2020-06-10T08:52:46Z</time>
      </trkpt>
      <trkpt lat="48.61676" lon="-4.21271">
        <ele>67.5</ele>
        <time>2020-06-10T08:52:47Z</time>
      </trkpt>
      <trkpt lat="48.61679" lon="-4.21265">
        <ele>67.5</ele>
        <time>2020-06-10T08:52:48Z</time>
      </trkpt>
      <trkpt lat="48.61682" lon="-4.2126">
        <ele>67.5</ele>
        <time>2020-06-10T08:52:49Z</time>
      </trkpt>
      <trkpt lat="48.61685" lon="-4.21255">
        <ele>67.5</ele>
        <time>2020-06-10T08:52:50Z</time>
      </trkpt>
      <trkpt lat="48.61688" lon="-4.21249">
        <ele>67.5</ele>
        <time>2020-06-10T08:52:51Z</time>
      </trkpt>
      <trkpt lat="48.61691" lon="-4.21243">
        <ele>67.5</ele>
        <time>2020-06-10T08:52:52Z</time>
      </trkpt>
      <trkpt lat="48.61696" lon="-4.21241">
        <ele>67.4</ele>
        <time>2020-06-10T08:52:53Z</time>
      </trkpt>
      <trkpt lat="48.61699" lon="-4.21237">
        <ele>67.4</ele>
        <time>2020-06-10T08:52:54Z</time>
      </trkpt>
      <trkpt lat="48.61702" lon="-4.21232">
        <ele>67.4</ele>
        <time>2020-06-10T08:52:55Z</time>
      </trkpt>
      <trkpt lat="48.61705" lon="-4.21228">
        <ele>67.4</ele>
        <time>2020-06-10T08:52:56Z</time>
      </trkpt>
      <trkpt lat="48.61707" lon="-4.21223">
        <ele>67.4</ele>
        <time>2020-06-10T08:52:57Z</time>
      </trkpt>
      <trkpt lat="48.6171" lon="-4.21218">
        <ele>67.4</ele>
        <time>2020-06-10T08:52:58Z</time>
      </trkpt>
      <trkpt lat="48.61713" lon="-4.21214">
        <ele>67.4</ele>
        <time>2020-06-10T08:52:59Z</time>
      </trkpt>
      <trkpt lat="48.61715" lon="-4.21209">
        <ele>67.4</ele>
        <time>2020-06-10T08:53:00Z</time>
      </trkpt>
      <trkpt lat="48.61716" lon="-4.21203">
        <ele>67.4</ele>
        <time>2020-06-10T08:53:01Z</time>
      </trkpt>
      <trkpt lat="48.61718" lon="-4.21197">
        <ele>67.4</ele>
        <time>2020-06-10T08:53:02Z</time>
      </trkpt>
      <trkpt lat="48.61719" lon="-4.21191">
        <ele>67.5</ele>
        <time>2020-06-10T08:53:03Z</time>
      </trkpt>
      <trkpt lat="48.61721" lon="-4.21185">
        <ele>67.5</ele>
        <time>2020-06-10T08:53:04Z</time>
      </trkpt>
      <trkpt lat="48.61723" lon="-4.2118">
        <ele>67.4</ele>
        <time>2020-06-10T08:53:05Z</time>
      </trkpt>
      <trkpt lat="48.61724" lon="-4.21174">
        <ele>67.3</ele>
        <time>2020-06-10T08:53:06Z</time>
      </trkpt>
      <trkpt lat="48.61725" lon="-4.21168">
        <ele>67.2</ele>
        <time>2020-06-10T08:53:07Z</time>
      </trkpt>
      <trkpt lat="48.61726" lon="-4.21163">
        <ele>67.1</ele>
        <time>2020-06-10T08:53:08Z</time>
      </trkpt>
      <trkpt lat="48.61727" lon="-4.21157">
        <ele>67</ele>
        <time>2020-06-10T08:53:09Z</time>
      </trkpt>
      <trkpt lat="48.61727" lon="-4.21151">
        <ele>66.9</ele>
        <time>2020-06-10T08:53:10Z</time>
      </trkpt>
      <trkpt lat="48.61729" lon="-4.21145">
        <ele>66.8</ele>
        <time>2020-06-10T08:53:11Z</time>
      </trkpt>
      <trkpt lat="48.61729" lon="-4.21138">
        <ele>66.7</ele>
        <time>2020-06-10T08:53:12Z</time>
      </trkpt>
      <trkpt lat="48.6173" lon="-4.21131">
        <ele>66.5</ele>
        <time>2020-06-10T08:53:13Z</time>
      </trkpt>
      <trkpt lat="48.61731" lon="-4.21124">
        <ele>66.4</ele>
        <time>2020-06-10T08:53:14Z</time>
      </trkpt>
      <trkpt lat="48.61732" lon="-4.21118">
        <ele>66.3</ele>
        <time>2020-06-10T08:53:15Z</time>
      </trkpt>
      <trkpt lat="48.61734" lon="-4.21113">
        <ele>66.2</ele>
        <time>2020-06-10T08:53:16Z</time>
      </trkpt>
      <trkpt lat="48.61735" lon="-4.21108">
        <ele>66.1</ele>
        <time>2020-06-10T08:53:17Z</time>
      </trkpt>
      <trkpt lat="48.61737" lon="-4.21103">
        <ele>66</ele>
        <time>2020-06-10T08:53:18Z</time>
      </trkpt>
      <trkpt lat="48.61738" lon="-4.21099">
        <ele>65.9</ele>
        <time>2020-06-10T08:53:19Z</time>
      </trkpt>
      <trkpt lat="48.61741" lon="-4.21096">
        <ele>65.7</ele>
        <time>2020-06-10T08:53:20Z</time>
      </trkpt>
      <trkpt lat="48.61742" lon="-4.21095">
        <ele>65.7</ele>
        <time>2020-06-10T08:53:21Z</time>
      </trkpt>
      <trkpt lat="48.61745" lon="-4.21095">
        <ele>65.6</ele>
        <time>2020-06-10T08:53:22Z</time>
      </trkpt>
      <trkpt lat="48.61748" lon="-4.21091">
        <ele>65.4</ele>
        <time>2020-06-10T08:53:23Z</time>
      </trkpt>
      <trkpt lat="48.61749" lon="-4.2109">
        <ele>65.4</ele>
        <time>2020-06-10T08:53:24Z</time>
      </trkpt>
      <trkpt lat="48.61751" lon="-4.21088">
        <ele>65.3</ele>
        <time>2020-06-10T08:53:25Z</time>
      </trkpt>
      <trkpt lat="48.61752" lon="-4.21088">
        <ele>65.2</ele>
        <time>2020-06-10T08:53:26Z</time>
      </trkpt>
      <trkpt lat="48.61753" lon="-4.21089">
        <ele>65.2</ele>
        <time>2020-06-10T08:53:27Z</time>
      </trkpt>
      <trkpt lat="48.61754" lon="-4.2109">
        <ele>65.2</ele>
        <time>2020-06-10T08:53:28Z</time>
      </trkpt>
      <trkpt lat="48.61754" lon="-4.21091">
        <ele>65.1</ele>
        <time>2020-06-10T08:53:29Z</time>
      </trkpt>
      <trkpt lat="48.61754" lon="-4.21092">
        <ele>65.1</ele>
        <time>2020-06-10T08:53:30Z</time>
      </trkpt>
      <trkpt lat="48.61754" lon="-4.21093">
        <ele>65.1</ele>
        <time>2020-06-10T08:53:31Z</time>
      </trkpt>
      <trkpt lat="48.61754" lon="-4.21095">
        <ele>65</ele>
        <time>2020-06-10T08:53:32Z</time>
      </trkpt>
      <trkpt lat="48.61755" lon="-4.21095">
        <ele>65</ele>
        <time>2020-06-10T08:53:33Z</time>
      </trkpt>
      <trkpt lat="48.61756" lon="-4.21097">
        <ele>65</ele>
        <time>2020-06-10T08:53:34Z</time>
      </trkpt>
      <trkpt lat="48.61756" lon="-4.21097">
        <ele>64.9</ele>
        <time>2020-06-10T08:53:35Z</time>
      </trkpt>
      <trkpt lat="48.61756" lon="-4.21097">
        <ele>64.9</ele>
        <time>2020-06-10T08:53:36Z</time>
      </trkpt>
      <trkpt lat="48.61757" lon="-4.21099">
        <ele>64.9</ele>
        <time>2020-06-10T08:53:37Z</time>
      </trkpt>
      <trkpt lat="48.61757" lon="-4.21099">
        <ele>64.9</ele>
        <time>2020-06-10T08:53:38Z</time>
      </trkpt>
      <trkpt lat="48.61758" lon="-4.21099">
        <ele>64.9</ele>
        <time>2020-06-10T08:53:39Z</time>
      </trkpt>
      <trkpt lat="48.61758" lon="-4.21099">
        <ele>64.9</ele>
        <time>2020-06-10T08:53:40Z</time>
      </trkpt>
      <trkpt lat="48.61758" lon="-4.21099">
        <ele>64.9</ele>
        <time>2020-06-10T08:53:41Z</time>
      </trkpt>
      <trkpt lat="48.61758" lon="-4.21099">
        <ele>64.9</ele>
        <time>2020-06-10T08:53:42Z</time>
      </trkpt>
      <trkpt lat="48.61758" lon="-4.21099">
        <ele>64.9</ele>
        <time>2020-06-10T08:53:43Z</time>
      </trkpt>
      <trkpt lat="48.61758" lon="-4.21099">
        <ele>64.9</ele>
        <time>2020-06-10T08:53:44Z</time>
      </trkpt>
      <trkpt lat="48.61758" lon="-4.21099">
        <ele>64.9</ele>
        <time>2020-06-10T08:53:45Z</time>
      </trkpt>
      <trkpt lat="48.61758" lon="-4.21099">
        <ele>64.9</ele>
        <time>2020-06-10T08:53:46Z</time>
      </trkpt>
      <trkpt lat="48.61758" lon="-4.21099">
        <ele>64.9</ele>
        <time>2020-06-10T08:53:47Z</time>
      </trkpt>
      <trkpt lat="48.61758" lon="-4.21099">
        <ele>64.9</ele>
        <time>2020-06-10T08:53:48Z</time>
      </trkpt>
      <trkpt lat="48.61758" lon="-4.21099">
        <ele>64.9</ele>
        <time>2020-06-10T08:53:49Z</time>
      </trkpt>
      <trkpt lat="48.61758" lon="-4.21099">
        <ele>64.9</ele>
        <time>2020-06-10T08:53:50Z</time>
      </trkpt>
      <trkpt lat="48.61758" lon="-4.21099">
        <ele>64.9</ele>
        <time>2020-06-10T08:53:51Z</time>
      </trkpt>
      <trkpt lat="48.61758" lon="-4.21099">
        <ele>64.9</ele>
        <time>2020-06-10T08:53:52Z</time>
      </trkpt>
      <trkpt lat="48.61755" lon="-4.21082">
        <ele>64.4</ele>
        <time>2020-06-10T09:02:09Z</time>
      </trkpt>
      <trkpt lat="48.61755" lon="-4.21079">
        <ele>64.4</ele>
        <time>2020-06-10T09:02:10Z</time>
      </trkpt>
      <trkpt lat="48.61754" lon="-4.21076">
        <ele>64.3</ele>
        <time>2020-06-10T09:02:11Z</time>
      </trkpt>
      <trkpt lat="48.61753" lon="-4.21074">
        <ele>64.2</ele>
        <time>2020-06-10T09:02:12Z</time>
      </trkpt>
      <trkpt lat="48.61752" lon="-4.21069">
        <ele>64.1</ele>
        <time>2020-06-10T09:02:13Z</time>
      </trkpt>
      <trkpt lat="48.61752" lon="-4.21068">
        <ele>64</ele>
        <time>2020-06-10T09:02:14Z</time>
      </trkpt>
      <trkpt lat="48.61751" lon="-4.21062">
        <ele>63.9</ele>
        <time>2020-06-10T09:02:15Z</time>
      </trkpt>
      <trkpt lat="48.61751" lon="-4.21061">
        <ele>63.9</ele>
        <time>2020-06-10T09:02:16Z</time>
      </trkpt>
      <trkpt lat="48.61751" lon="-4.21056">
        <ele>63.8</ele>
        <time>2020-06-10T09:02:17Z</time>
      </trkpt>
      <trkpt lat="48.61752" lon="-4.21051">
        <ele>63.6</ele>
        <time>2020-06-10T09:02:18Z</time>
      </trkpt>
      <trkpt lat="48.61753" lon="-4.21046">
        <ele>63.5</ele>
        <time>2020-06-10T09:02:19Z</time>
      </trkpt>
      <trkpt lat="48.61755" lon="-4.21041">
        <ele>63.4</ele>
        <time>2020-06-10T09:02:20Z</time>
      </trkpt>
      <trkpt lat="48.61756" lon="-4.21036">
        <ele>63.3</ele>
        <time>2020-06-10T09:02:21Z</time>
      </trkpt>
      <trkpt lat="48.61757" lon="-4.2103">
        <ele>63.1</ele>
        <time>2020-06-10T09:02:22Z</time>
      </trkpt>
      <trkpt lat="48.61758" lon="-4.21024">
        <ele>63</ele>
        <time>2020-06-10T09:02:23Z</time>
      </trkpt>
      <trkpt lat="48.6176" lon="-4.21018">
        <ele>62.9</ele>
        <time>2020-06-10T09:02:24Z</time>
      </trkpt>
      <trkpt lat="48.61761" lon="-4.21012">
        <ele>62.7</ele>
        <time>2020-06-10T09:02:25Z</time>
      </trkpt>
      <trkpt lat="48.61763" lon="-4.21005">
        <ele>62.6</ele>
        <time>2020-06-10T09:02:26Z</time>
      </trkpt>
      <trkpt lat="48.61764" lon="-4.20998">
        <ele>62.5</ele>
        <time>2020-06-10T09:02:27Z</time>
      </trkpt>
      <trkpt lat="48.61767" lon="-4.2099">
        <ele>62.3</ele>
        <time>2020-06-10T09:02:28Z</time>
      </trkpt>
      <trkpt lat="48.61767" lon="-4.20983">
        <ele>62.2</ele>
        <time>2020-06-10T09:02:29Z</time>
      </trkpt>
      <trkpt lat="48.61769" lon="-4.20976">
        <ele>62.1</ele>
        <time>2020-06-10T09:02:30Z</time>
      </trkpt>
      <trkpt lat="48.6177" lon="-4.20969">
        <ele>61.9</ele>
        <time>2020-06-10T09:02:31Z</time>
      </trkpt>
      <trkpt lat="48.61772" lon="-4.20961">
        <ele>61.8</ele>
        <time>2020-06-10T09:02:32Z</time>
      </trkpt>
      <trkpt lat="48.61773" lon="-4.20954">
        <ele>61.7</ele>
        <time>2020-06-10T09:02:33Z</time>
      </trkpt>
      <trkpt lat="48.61775" lon="-4.20945">
        <ele>61.6</ele>
        <time>2020-06-10T09:02:34Z</time>
      </trkpt>
      <trkpt lat="48.61777" lon="-4.20938">
        <ele>61.5</ele>
        <time>2020-06-10T09:02:35Z</time>
      </trkpt>
      <trkpt lat="48.61779" lon="-4.20931">
        <ele>61.5</ele>
        <time>2020-06-10T09:02:36Z</time>
      </trkpt>
      <trkpt lat="48.61781" lon="-4.20924">
        <ele>61.5</ele>
        <time>2020-06-10T09:02:37Z</time>
      </trkpt>
      <trkpt lat="48.61783" lon="-4.20919">
        <ele>61.5</ele>
        <time>2020-06-10T09:02:38Z</time>
      </trkpt>
      <trkpt lat="48.61784" lon="-4.20913">
        <ele>61.5</ele>
        <time>2020-06-10T09:02:39Z</time>
      </trkpt>
      <trkpt lat="48.61785" lon="-4.20907">
        <ele>61.6</ele>
        <time>2020-06-10T09:02:40Z</time>
      </trkpt>
      <trkpt lat="48.61786" lon="-4.20901">
        <ele>61.6</ele>
        <time>2020-06-10T09:02:41Z</time>
      </trkpt>
      <trkpt lat="48.61786" lon="-4.20897">
        <ele>61.7</ele>
        <time>2020-06-10T09:02:42Z</time>
      </trkpt>
      <trkpt lat="48.61786" lon="-4.20895">
        <ele>61.7</ele>
        <time>2020-06-10T09:02:43Z</time>
      </trkpt>
      <trkpt lat="48.61786" lon="-4.20894">
        <ele>61.7</ele>
        <time>2020-06-10T09:02:44Z</time>
      </trkpt>
      <trkpt lat="48.61787" lon="-4.20893">
        <ele>61.7</ele>
        <time>2020-06-10T09:02:45Z</time>
      </trkpt>
      <trkpt lat="48.61787" lon="-4.20892">
        <ele>61.7</ele>
        <time>2020-06-10T09:02:46Z</time>
      </trkpt>
      <trkpt lat="48.61787" lon="-4.20891">
        <ele>61.7</ele>
        <time>2020-06-10T09:02:47Z</time>
      </trkpt>
      <trkpt lat="48.61788" lon="-4.2089">
        <ele>61.7</ele>
        <time>2020-06-10T09:02:48Z</time>
      </trkpt>
      <trkpt lat="48.61788" lon="-4.20889">
        <ele>61.8</ele>
        <time>2020-06-10T09:02:49Z</time>
      </trkpt>
      <trkpt lat="48.61789" lon="-4.20888">
        <ele>61.8</ele>
        <time>2020-06-10T09:02:50Z</time>
      </trkpt>
      <trkpt lat="48.61789" lon="-4.20888">
        <ele>61.8</ele>
        <time>2020-06-10T09:02:51Z</time>
      </trkpt>
      <trkpt lat="48.6179" lon="-4.20887">
        <ele>61.8</ele>
        <time>2020-06-10T09:02:52Z</time>
      </trkpt>
      <trkpt lat="48.6179" lon="-4.20886">
        <ele>61.8</ele>
        <time>2020-06-10T09:02:53Z</time>
      </trkpt>
      <trkpt lat="48.61791" lon="-4.20885">
        <ele>61.8</ele>
        <time>2020-06-10T09:02:54Z</time>
      </trkpt>
      <trkpt lat="48.61791" lon="-4.20884">
        <ele>61.8</ele>
        <time>2020-06-10T09:03:57Z</time>
      </trkpt>
      <trkpt lat="48.61792" lon="-4.20883">
        <ele>61.9</ele>
        <time>2020-06-10T09:03:58Z</time>
      </trkpt>
      <trkpt lat="48.61792" lon="-4.20879">
        <ele>61.9</ele>
        <time>2020-06-10T09:03:59Z</time>
      </trkpt>
      <trkpt lat="48.61793" lon="-4.20873">
        <ele>62</ele>
        <time>2020-06-10T09:04:00Z</time>
      </trkpt>
      <trkpt lat="48.61795" lon="-4.20869">
        <ele>62</ele>
        <time>2020-06-10T09:04:01Z</time>
      </trkpt>
      <trkpt lat="48.61797" lon="-4.20863">
        <ele>62.1</ele>
        <time>2020-06-10T09:04:02Z</time>
      </trkpt>
      <trkpt lat="48.61798" lon="-4.20858">
        <ele>62.2</ele>
        <time>2020-06-10T09:04:03Z</time>
      </trkpt>
      <trkpt lat="48.61798" lon="-4.20852">
        <ele>62.2</ele>
        <time>2020-06-10T09:04:04Z</time>
      </trkpt>
      <trkpt lat="48.61799" lon="-4.20847">
        <ele>62.3</ele>
        <time>2020-06-10T09:04:05Z</time>
      </trkpt>
      <trkpt lat="48.618" lon="-4.20842">
        <ele>62.4</ele>
        <time>2020-06-10T09:04:06Z</time>
      </trkpt>
      <trkpt lat="48.618" lon="-4.20836">
        <ele>62.4</ele>
        <time>2020-06-10T09:04:07Z</time>
      </trkpt>
      <trkpt lat="48.618" lon="-4.20831">
        <ele>62.5</ele>
        <time>2020-06-10T09:04:08Z</time>
      </trkpt>
      <trkpt lat="48.618" lon="-4.20825">
        <ele>62.6</ele>
        <time>2020-06-10T09:04:09Z</time>
      </trkpt>
      <trkpt lat="48.61801" lon="-4.20819">
        <ele>62.7</ele>
        <time>2020-06-10T09:04:10Z</time>
      </trkpt>
      <trkpt lat="48.61802" lon="-4.20812">
        <ele>62.7</ele>
        <time>2020-06-10T09:04:11Z</time>
      </trkpt>
      <trkpt lat="48.61801" lon="-4.20805">
        <ele>62.8</ele>
        <time>2020-06-10T09:04:12Z</time>
      </trkpt>
      <trkpt lat="48.61802" lon="-4.20799">
        <ele>62.9</ele>
        <time>2020-06-10T09:04:13Z</time>
      </trkpt>
      <trkpt lat="48.61803" lon="-4.20791">
        <ele>63</ele>
        <time>2020-06-10T09:04:14Z</time>
      </trkpt>
      <trkpt lat="48.61802" lon="-4.20782">
        <ele>63.1</ele>
        <time>2020-06-10T09:04:15Z</time>
      </trkpt>
      <trkpt lat="48.61802" lon="-4.20775">
        <ele>63.2</ele>
        <time>2020-06-10T09:04:16Z</time>
      </trkpt>
      <trkpt lat="48.61803" lon="-4.2077">
        <ele>63.2</ele>
        <time>2020-06-10T09:04:17Z</time>
      </trkpt>
      <trkpt lat="48.61804" lon="-4.20764">
        <ele>63.3</ele>
        <time>2020-06-10T09:04:18Z</time>
      </trkpt>
      <trkpt lat="48.61805" lon="-4.2076">
        <ele>63.3</ele>
        <time>2020-06-10T09:04:19Z</time>
      </trkpt>
      <trkpt lat="48.61806" lon="-4.20755">
        <ele>63.3</ele>
        <time>2020-06-10T09:04:20Z</time>
      </trkpt>
      <trkpt lat="48.61806" lon="-4.20751">
        <ele>63.3</ele>
        <time>2020-06-10T09:04:21Z</time>
      </trkpt>
      <trkpt lat="48.61807" lon="-4.20747">
        <ele>63.3</ele>
        <time>2020-06-10T09:04:22Z</time>
      </trkpt>
      <trkpt lat="48.61808" lon="-4.20742">
        <ele>63.3</ele>
        <time>2020-06-10T09:04:23Z</time>
      </trkpt>
      <trkpt lat="48.6181" lon="-4.20737">
        <ele>63.3</ele>
        <time>2020-06-10T09:04:24Z</time>
      </trkpt>
      <trkpt lat="48.6181" lon="-4.20735">
        <ele>63.3</ele>
        <time>2020-06-10T09:04:25Z</time>
      </trkpt>
      <trkpt lat="48.61811" lon="-4.20729">
        <ele>63.2</ele>
        <time>2020-06-10T09:04:26Z</time>
      </trkpt>
      <trkpt lat="48.61812" lon="-4.20727">
        <ele>63.2</ele>
        <time>2020-06-10T09:04:27Z</time>
      </trkpt>
      <trkpt lat="48.61813" lon="-4.20723">
        <ele>63.2</ele>
        <time>2020-06-10T09:04:28Z</time>
      </trkpt>
      <trkpt lat="48.61813" lon="-4.2072">
        <ele>63.1</ele>
        <time>2020-06-10T09:04:29Z</time>
      </trkpt>
      <trkpt lat="48.61812" lon="-4.20719">
        <ele>63.1</ele>
        <time>2020-06-10T09:04:30Z</time>
      </trkpt>
      <trkpt lat="48.61812" lon="-4.20717">
        <ele>63.1</ele>
        <time>2020-06-10T09:04:31Z</time>
      </trkpt>
      <trkpt lat="48.61812" lon="-4.20716">
        <ele>63.1</ele>
        <time>2020-06-10T09:04:32Z</time>
      </trkpt>
      <trkpt lat="48.61812" lon="-4.20714">
        <ele>63.1</ele>
        <time>2020-06-10T09:04:33Z</time>
      </trkpt>
      <trkpt lat="48.6181" lon="-4.20713">
        <ele>63.1</ele>
        <time>2020-06-10T09:04:34Z</time>
      </trkpt>
      <trkpt lat="48.61808" lon="-4.20713">
        <ele>63</ele>
        <time>2020-06-10T09:04:35Z</time>
      </trkpt>
      <trkpt lat="48.61807" lon="-4.20713">
        <ele>63</ele>
        <time>2020-06-10T09:04:36Z</time>
      </trkpt>
      <trkpt lat="48.61806" lon="-4.20714">
        <ele>63</ele>
        <time>2020-06-10T09:04:37Z</time>
      </trkpt>
      <trkpt lat="48.61806" lon="-4.20714">
        <ele>63</ele>
        <time>2020-06-10T09:04:38Z</time>
      </trkpt>
      <trkpt lat="48.61806" lon="-4.20714">
        <ele>63</ele>
        <time>2020-06-10T09:04:39Z</time>
      </trkpt>
      <trkpt lat="48.61806" lon="-4.20713">
        <ele>63</ele>
        <time>2020-06-10T09:04:40Z</time>
      </trkpt>
      <trkpt lat="48.61806" lon="-4.20713">
        <ele>63</ele>
        <time>2020-06-10T09:04:41Z</time>
      </trkpt>
      <trkpt lat="48.61806" lon="-4.20712">
        <ele>63</ele>
        <time>2020-06-10T09:04:42Z</time>
      </trkpt>
      <trkpt lat="48.61806" lon="-4.20711">
        <ele>63</ele>
        <time>2020-06-10T09:04:43Z</time>
      </trkpt>
      <trkpt lat="48.61806" lon="-4.20711">
        <ele>63</ele>
        <time>2020-06-10T09:04:44Z</time>
      </trkpt>
      <trkpt lat="48.61807" lon="-4.2071">
        <ele>62.9</ele>
        <time>2020-06-10T09:04:45Z</time>
      </trkpt>
      <trkpt lat="48.61807" lon="-4.2071">
        <ele>62.9</ele>
        <time>2020-06-10T09:04:46Z</time>
      </trkpt>
      <trkpt lat="48.61807" lon="-4.20709">
        <ele>62.9</ele>
        <time>2020-06-10T09:04:47Z</time>
      </trkpt>
      <trkpt lat="48.61807" lon="-4.20709">
        <ele>62.9</ele>
        <time>2020-06-10T09:04:48Z</time>
      </trkpt>
      <trkpt lat="48.61807" lon="-4.20708">
        <ele>62.9</ele>
        <time>2020-06-10T09:04:49Z</time>
      </trkpt>
      <trkpt lat="48.61807" lon="-4.20708">
        <ele>62.9</ele>
        <time>2020-06-10T09:04:50Z</time>
      </trkpt>
      <trkpt lat="48.61807" lon="-4.20707">
        <ele>62.9</ele>
        <time>2020-06-10T09:04:51Z</time>
      </trkpt>
      <trkpt lat="48.61807" lon="-4.20707">
        <ele>62.9</ele>
        <time>2020-06-10T09:04:52Z</time>
      </trkpt>
      <trkpt lat="48.61808" lon="-4.20706">
        <ele>62.9</ele>
        <time>2020-06-10T09:04:53Z</time>
      </trkpt>
      <trkpt lat="48.61808" lon="-4.20705">
        <ele>62.9</ele>
        <time>2020-06-10T09:04:54Z</time>
      </trkpt>
      <trkpt lat="48.61808" lon="-4.20705">
        <ele>62.9</ele>
        <time>2020-06-10T09:04:55Z</time>
      </trkpt>
      <trkpt lat="48.61808" lon="-4.20704">
        <ele>62.9</ele>
        <time>2020-06-10T09:04:56Z</time>
      </trkpt>
      <trkpt lat="48.61808" lon="-4.20704">
        <ele>62.8</ele>
        <time>2020-06-10T09:15:22Z</time>
      </trkpt>
      <trkpt lat="48.61808" lon="-4.20703">
        <ele>62.8</ele>
        <time>2020-06-10T09:15:23Z</time>
      </trkpt>
      <trkpt lat="48.61808" lon="-4.20698">
        <ele>62.8</ele>
        <time>2020-06-10T09:15:24Z</time>
      </trkpt>
      <trkpt lat="48.61809" lon="-4.20694">
        <ele>62.7</ele>
        <time>2020-06-10T09:15:25Z</time>
      </trkpt>
      <trkpt lat="48.61809" lon="-4.20689">
        <ele>62.6</ele>
        <time>2020-06-10T09:15:26Z</time>
      </trkpt>
      <trkpt lat="48.61811" lon="-4.20684">
        <ele>62.5</ele>
        <time>2020-06-10T09:15:27Z</time>
      </trkpt>
      <trkpt lat="48.61813" lon="-4.20679">
        <ele>62.4</ele>
        <time>2020-06-10T09:15:28Z</time>
      </trkpt>
      <trkpt lat="48.61814" lon="-4.20673">
        <ele>62.2</ele>
        <time>2020-06-10T09:15:29Z</time>
      </trkpt>
      <trkpt lat="48.61816" lon="-4.20665">
        <ele>62.1</ele>
        <time>2020-06-10T09:15:30Z</time>
      </trkpt>
      <trkpt lat="48.61819" lon="-4.20657">
        <ele>61.9</ele>
        <time>2020-06-10T09:15:31Z</time>
      </trkpt>
      <trkpt lat="48.6182" lon="-4.20651">
        <ele>61.7</ele>
        <time>2020-06-10T09:15:32Z</time>
      </trkpt>
      <trkpt lat="48.61822" lon="-4.20644">
        <ele>61.6</ele>
        <time>2020-06-10T09:15:33Z</time>
      </trkpt>
      <trkpt lat="48.61823" lon="-4.20637">
        <ele>61.2</ele>
        <time>2020-06-10T09:15:34Z</time>
      </trkpt>
      <trkpt lat="48.61822" lon="-4.20629">
        <ele>60.9</ele>
        <time>2020-06-10T09:15:35Z</time>
      </trkpt>
      <trkpt lat="48.61822" lon="-4.20621">
        <ele>60.5</ele>
        <time>2020-06-10T09:15:36Z</time>
      </trkpt>
      <trkpt lat="48.61823" lon="-4.20611">
        <ele>60.3</ele>
        <time>2020-06-10T09:15:37Z</time>
      </trkpt>
      <trkpt lat="48.61824" lon="-4.20602">
        <ele>60.1</ele>
        <time>2020-06-10T09:15:38Z</time>
      </trkpt>
      <trkpt lat="48.61824" lon="-4.20593">
        <ele>59.9</ele>
        <time>2020-06-10T09:15:39Z</time>
      </trkpt>
      <trkpt lat="48.61823" lon="-4.20583">
        <ele>59.7</ele>
        <time>2020-06-10T09:15:40Z</time>
      </trkpt>
      <trkpt lat="48.61822" lon="-4.20574">
        <ele>59.5</ele>
        <time>2020-06-10T09:15:41Z</time>
      </trkpt>
      <trkpt lat="48.61819" lon="-4.20565">
        <ele>59.3</ele>
        <time>2020-06-10T09:15:42Z</time>
      </trkpt>
      <trkpt lat="48.61818" lon="-4.20555">
        <ele>59.2</ele>
        <time>2020-06-10T09:15:43Z</time>
      </trkpt>
      <trkpt lat="48.61815" lon="-4.20546">
        <ele>59</ele>
        <time>2020-06-10T09:15:44Z</time>
      </trkpt>
      <trkpt lat="48.61812" lon="-4.20536">
        <ele>58.9</ele>
        <time>2020-06-10T09:15:45Z</time>
      </trkpt>
      <trkpt lat="48.6181" lon="-4.20528">
        <ele>58.9</ele>
        <time>2020-06-10T09:15:46Z</time>
      </trkpt>
      <trkpt lat="48.61806" lon="-4.2052">
        <ele>59</ele>
        <time>2020-06-10T09:15:47Z</time>
      </trkpt>
      <trkpt lat="48.61803" lon="-4.20512">
        <ele>58.9</ele>
        <time>2020-06-10T09:15:48Z</time>
      </trkpt>
      <trkpt lat="48.61799" lon="-4.20505">
        <ele>58.8</ele>
        <time>2020-06-10T09:15:49Z</time>
      </trkpt>
      <trkpt lat="48.61796" lon="-4.20497">
        <ele>58.7</ele>
        <time>2020-06-10T09:15:50Z</time>
      </trkpt>
      <trkpt lat="48.61793" lon="-4.20489">
        <ele>58.7</ele>
        <time>2020-06-10T09:15:51Z</time>
      </trkpt>
      <trkpt lat="48.61789" lon="-4.20481">
        <ele>58.7</ele>
        <time>2020-06-10T09:15:52Z</time>
      </trkpt>
      <trkpt lat="48.61786" lon="-4.20474">
        <ele>58.7</ele>
        <time>2020-06-10T09:15:53Z</time>
      </trkpt>
      <trkpt lat="48.61781" lon="-4.20468">
        <ele>58.7</ele>
        <time>2020-06-10T09:15:54Z</time>
      </trkpt>
      <trkpt lat="48.61778" lon="-4.20462">
        <ele>58.8</ele>
        <time>2020-06-10T09:15:55Z</time>
      </trkpt>
      <trkpt lat="48.61775" lon="-4.20454">
        <ele>58.9</ele>
        <time>2020-06-10T09:15:56Z</time>
      </trkpt>
      <trkpt lat="48.61772" lon="-4.20447">
        <ele>59.1</ele>
        <time>2020-06-10T09:15:57Z</time>
      </trkpt>
      <trkpt lat="48.6177" lon="-4.2044">
        <ele>59.2</ele>
        <time>2020-06-10T09:15:58Z</time>
      </trkpt>
      <trkpt lat="48.61768" lon="-4.20433">
        <ele>59.4</ele>
        <time>2020-06-10T09:15:59Z</time>
      </trkpt>
      <trkpt lat="48.61766" lon="-4.20428">
        <ele>59.6</ele>
        <time>2020-06-10T09:16:00Z</time>
      </trkpt>
      <trkpt lat="48.61765" lon="-4.20422">
        <ele>59.8</ele>
        <time>2020-06-10T09:16:01Z</time>
      </trkpt>
      <trkpt lat="48.61764" lon="-4.20417">
        <ele>59.9</ele>
        <time>2020-06-10T09:16:02Z</time>
      </trkpt>
      <trkpt lat="48.61762" lon="-4.20412">
        <ele>60.1</ele>
        <time>2020-06-10T09:16:03Z</time>
      </trkpt>
      <trkpt lat="48.61761" lon="-4.20407">
        <ele>60.3</ele>
        <time>2020-06-10T09:16:04Z</time>
      </trkpt>
      <trkpt lat="48.6176" lon="-4.20402">
        <ele>60.4</ele>
        <time>2020-06-10T09:16:05Z</time>
      </trkpt>
      <trkpt lat="48.61759" lon="-4.20396">
        <ele>60.6</ele>
        <time>2020-06-10T09:16:06Z</time>
      </trkpt>
      <trkpt lat="48.61758" lon="-4.20391">
        <ele>60.7</ele>
        <time>2020-06-10T09:16:07Z</time>
      </trkpt>
      <trkpt lat="48.61756" lon="-4.20386">
        <ele>60.9</ele>
        <time>2020-06-10T09:16:08Z</time>
      </trkpt>
      <trkpt lat="48.61756" lon="-4.20381">
        <ele>61.2</ele>
        <time>2020-06-10T09:16:09Z</time>
      </trkpt>
      <trkpt lat="48.61756" lon="-4.20376">
        <ele>61.4</ele>
        <time>2020-06-10T09:16:10Z</time>
      </trkpt>
      <trkpt lat="48.61755" lon="-4.2037">
        <ele>61.5</ele>
        <time>2020-06-10T09:16:11Z</time>
      </trkpt>
      <trkpt lat="48.61756" lon="-4.20365">
        <ele>61.7</ele>
        <time>2020-06-10T09:16:12Z</time>
      </trkpt>
      <trkpt lat="48.61757" lon="-4.2036">
        <ele>61.8</ele>
        <time>2020-06-10T09:16:13Z</time>
      </trkpt>
      <trkpt lat="48.61759" lon="-4.20355">
        <ele>62</ele>
        <time>2020-06-10T09:16:14Z</time>
      </trkpt>
      <trkpt lat="48.6176" lon="-4.2035">
        <ele>62.1</ele>
        <time>2020-06-10T09:16:15Z</time>
      </trkpt>
      <trkpt lat="48.61762" lon="-4.20344">
        <ele>62.3</ele>
        <time>2020-06-10T09:16:16Z</time>
      </trkpt>
      <trkpt lat="48.61763" lon="-4.20338">
        <ele>62.4</ele>
        <time>2020-06-10T09:16:17Z</time>
      </trkpt>
      <trkpt lat="48.61765" lon="-4.20333">
        <ele>62.5</ele>
        <time>2020-06-10T09:16:18Z</time>
      </trkpt>
      <trkpt lat="48.61766" lon="-4.20328">
        <ele>62.6</ele>
        <time>2020-06-10T09:16:19Z</time>
      </trkpt>
      <trkpt lat="48.61768" lon="-4.20324">
        <ele>62.8</ele>
        <time>2020-06-10T09:16:20Z</time>
      </trkpt>
      <trkpt lat="48.6177" lon="-4.20319">
        <ele>62.9</ele>
        <time>2020-06-10T09:16:21Z</time>
      </trkpt>
      <trkpt lat="48.61771" lon="-4.20314">
        <ele>63</ele>
        <time>2020-06-10T09:16:22Z</time>
      </trkpt>
      <trkpt lat="48.61772" lon="-4.20312">
        <ele>63.1</ele>
        <time>2020-06-10T09:16:23Z</time>
      </trkpt>
      <trkpt lat="48.61773" lon="-4.20308">
        <ele>63.2</ele>
        <time>2020-06-10T09:16:24Z</time>
      </trkpt>
      <trkpt lat="48.61774" lon="-4.20306">
        <ele>63.2</ele>
        <time>2020-06-10T09:16:25Z</time>
      </trkpt>
      <trkpt lat="48.61774" lon="-4.20305">
        <ele>63.2</ele>
        <time>2020-06-10T09:16:26Z</time>
      </trkpt>
      <trkpt lat="48.61776" lon="-4.20302">
        <ele>63.3</ele>
        <time>2020-06-10T09:16:27Z</time>
      </trkpt>
      <trkpt lat="48.61778" lon="-4.20297">
        <ele>63.4</ele>
        <time>2020-06-10T09:16:28Z</time>
      </trkpt>
      <trkpt lat="48.61779" lon="-4.20295">
        <ele>63.5</ele>
        <time>2020-06-10T09:16:29Z</time>
      </trkpt>
      <trkpt lat="48.61781" lon="-4.2029">
        <ele>63.6</ele>
        <time>2020-06-10T09:16:30Z</time>
      </trkpt>
      <trkpt lat="48.61782" lon="-4.20285">
        <ele>63.6</ele>
        <time>2020-06-10T09:16:31Z</time>
      </trkpt>
      <trkpt lat="48.61783" lon="-4.20283">
        <ele>63.7</ele>
        <time>2020-06-10T09:16:32Z</time>
      </trkpt>
      <trkpt lat="48.61783" lon="-4.20278">
        <ele>63.8</ele>
        <time>2020-06-10T09:16:33Z</time>
      </trkpt>
      <trkpt lat="48.61783" lon="-4.20277">
        <ele>63.8</ele>
        <time>2020-06-10T09:16:34Z</time>
      </trkpt>
      <trkpt lat="48.61784" lon="-4.20272">
        <ele>63.9</ele>
        <time>2020-06-10T09:16:35Z</time>
      </trkpt>
      <trkpt lat="48.61786" lon="-4.20268">
        <ele>64</ele>
        <time>2020-06-10T09:16:36Z</time>
      </trkpt>
      <trkpt lat="48.61788" lon="-4.20264">
        <ele>64.1</ele>
        <time>2020-06-10T09:16:37Z</time>
      </trkpt>
      <trkpt lat="48.61788" lon="-4.20262">
        <ele>64.2</ele>
        <time>2020-06-10T09:16:38Z</time>
      </trkpt>
      <trkpt lat="48.61788" lon="-4.20258">
        <ele>64.3</ele>
        <time>2020-06-10T09:16:39Z</time>
      </trkpt>
      <trkpt lat="48.61789" lon="-4.20254">
        <ele>64.4</ele>
        <time>2020-06-10T09:16:40Z</time>
      </trkpt>
      <trkpt lat="48.61791" lon="-4.20248">
        <ele>64.5</ele>
        <time>2020-06-10T09:16:41Z</time>
      </trkpt>
      <trkpt lat="48.61792" lon="-4.20246">
        <ele>64.6</ele>
        <time>2020-06-10T09:16:42Z</time>
      </trkpt>
      <trkpt lat="48.61793" lon="-4.20241">
        <ele>64.7</ele>
        <time>2020-06-10T09:16:43Z</time>
      </trkpt>
      <trkpt lat="48.61794" lon="-4.20239">
        <ele>64.8</ele>
        <time>2020-06-10T09:16:44Z</time>
      </trkpt>
      <trkpt lat="48.61795" lon="-4.20235">
        <ele>64.9</ele>
        <time>2020-06-10T09:16:45Z</time>
      </trkpt>
      <trkpt lat="48.61795" lon="-4.20231">
        <ele>64.9</ele>
        <time>2020-06-10T09:16:46Z</time>
      </trkpt>
      <trkpt lat="48.61797" lon="-4.20227">
        <ele>65</ele>
        <time>2020-06-10T09:16:47Z</time>
      </trkpt>
      <trkpt lat="48.61798" lon="-4.20223">
        <ele>65.1</ele>
        <time>2020-06-10T09:16:48Z</time>
      </trkpt>
      <trkpt lat="48.618" lon="-4.2022">
        <ele>65.2</ele>
        <time>2020-06-10T09:16:49Z</time>
      </trkpt>
      <trkpt lat="48.61801" lon="-4.20216">
        <ele>65.3</ele>
        <time>2020-06-10T09:16:50Z</time>
      </trkpt>
      <trkpt lat="48.61804" lon="-4.20213">
        <ele>65.4</ele>
        <time>2020-06-10T09:16:51Z</time>
      </trkpt>
      <trkpt lat="48.61805" lon="-4.20208">
        <ele>65.5</ele>
        <time>2020-06-10T09:16:52Z</time>
      </trkpt>
      <trkpt lat="48.61806" lon="-4.20206">
        <ele>65.6</ele>
        <time>2020-06-10T09:16:53Z</time>
      </trkpt>
      <trkpt lat="48.61806" lon="-4.20201">
        <ele>65.6</ele>
        <time>2020-06-10T09:16:54Z</time>
      </trkpt>
      <trkpt lat="48.61807" lon="-4.20197">
        <ele>65.7</ele>
        <time>2020-06-10T09:16:55Z</time>
      </trkpt>
      <trkpt lat="48.61808" lon="-4.20193">
        <ele>65.8</ele>
        <time>2020-06-10T09:16:56Z</time>
      </trkpt>
      <trkpt lat="48.61809" lon="-4.20188">
        <ele>65.9</ele>
        <time>2020-06-10T09:16:57Z</time>
      </trkpt>
      <trkpt lat="48.61811" lon="-4.20182">
        <ele>66</ele>
        <time>2020-06-10T09:16:58Z</time>
      </trkpt>
      <trkpt lat="48.61813" lon="-4.20177">
        <ele>66.1</ele>
        <time>2020-06-10T09:16:59Z</time>
      </trkpt>
      <trkpt lat="48.61814" lon="-4.20171">
        <ele>66.2</ele>
        <time>2020-06-10T09:17:00Z</time>
      </trkpt>
      <trkpt lat="48.61816" lon="-4.20165">
        <ele>66.4</ele>
        <time>2020-06-10T09:17:01Z</time>
      </trkpt>
      <trkpt lat="48.61817" lon="-4.20159">
        <ele>66.6</ele>
        <time>2020-06-10T09:17:02Z</time>
      </trkpt>
      <trkpt lat="48.61819" lon="-4.20153">
        <ele>66.8</ele>
        <time>2020-06-10T09:17:03Z</time>
      </trkpt>
      <trkpt lat="48.6182" lon="-4.20147">
        <ele>66.9</ele>
        <time>2020-06-10T09:17:04Z</time>
      </trkpt>
      <trkpt lat="48.61821" lon="-4.2014">
        <ele>67</ele>
        <time>2020-06-10T09:17:05Z</time>
      </trkpt>
      <trkpt lat="48.61823" lon="-4.20133">
        <ele>67.1</ele>
        <time>2020-06-10T09:17:06Z</time>
      </trkpt>
      <trkpt lat="48.61826" lon="-4.20127">
        <ele>67.1</ele>
        <time>2020-06-10T09:17:07Z</time>
      </trkpt>
      <trkpt lat="48.61828" lon="-4.2012">
        <ele>67.2</ele>
        <time>2020-06-10T09:17:08Z</time>
      </trkpt>
      <trkpt lat="48.6183" lon="-4.20113">
        <ele>67.2</ele>
        <time>2020-06-10T09:17:09Z</time>
      </trkpt>
      <trkpt lat="48.61833" lon="-4.20106">
        <ele>67.2</ele>
        <time>2020-06-10T09:17:10Z</time>
      </trkpt>
      <trkpt lat="48.61835" lon="-4.20099">
        <ele>67.3</ele>
        <time>2020-06-10T09:17:11Z</time>
      </trkpt>
      <trkpt lat="48.61838" lon="-4.20091">
        <ele>67.3</ele>
        <time>2020-06-10T09:17:12Z</time>
      </trkpt>
      <trkpt lat="48.61841" lon="-4.20082">
        <ele>67.3</ele>
        <time>2020-06-10T09:17:13Z</time>
      </trkpt>
      <trkpt lat="48.61843" lon="-4.20075">
        <ele>67.3</ele>
        <time>2020-06-10T09:17:14Z</time>
      </trkpt>
      <trkpt lat="48.61846" lon="-4.20068">
        <ele>67.2</ele>
        <time>2020-06-10T09:17:15Z</time>
      </trkpt>
      <trkpt lat="48.61849" lon="-4.20058">
        <ele>67.2</ele>
        <time>2020-06-10T09:17:16Z</time>
      </trkpt>
      <trkpt lat="48.61852" lon="-4.20052">
        <ele>67.2</ele>
        <time>2020-06-10T09:17:17Z</time>
      </trkpt>
      <trkpt lat="48.61854" lon="-4.20046">
        <ele>67.2</ele>
        <time>2020-06-10T09:17:18Z</time>
      </trkpt>
      <trkpt lat="48.61857" lon="-4.20038">
        <ele>67.2</ele>
        <time>2020-06-10T09:17:19Z</time>
      </trkpt>
      <trkpt lat="48.61861" lon="-4.2003">
        <ele>67.2</ele>
        <time>2020-06-10T09:17:20Z</time>
      </trkpt>
      <trkpt lat="48.61864" lon="-4.20023">
        <ele>67.3</ele>
        <time>2020-06-10T09:17:21Z</time>
      </trkpt>
      <trkpt lat="48.61866" lon="-4.20015">
        <ele>67.3</ele>
        <time>2020-06-10T09:17:22Z</time>
      </trkpt>
      <trkpt lat="48.61869" lon="-4.20005">
        <ele>67.4</ele>
        <time>2020-06-10T09:17:23Z</time>
      </trkpt>
      <trkpt lat="48.61872" lon="-4.19996">
        <ele>67.5</ele>
        <time>2020-06-10T09:17:24Z</time>
      </trkpt>
      <trkpt lat="48.61875" lon="-4.19988">
        <ele>67.5</ele>
        <time>2020-06-10T09:17:25Z</time>
      </trkpt>
      <trkpt lat="48.61877" lon="-4.19983">
        <ele>67.5</ele>
        <time>2020-06-10T09:17:26Z</time>
      </trkpt>
      <trkpt lat="48.6188" lon="-4.19975">
        <ele>67.5</ele>
        <time>2020-06-10T09:17:27Z</time>
      </trkpt>
      <trkpt lat="48.61882" lon="-4.19966">
        <ele>67.6</ele>
        <time>2020-06-10T09:17:28Z</time>
      </trkpt>
      <trkpt lat="48.61885" lon="-4.19959">
        <ele>67.6</ele>
        <time>2020-06-10T09:17:29Z</time>
      </trkpt>
      <trkpt lat="48.61888" lon="-4.19951">
        <ele>67.5</ele>
        <time>2020-06-10T09:17:30Z</time>
      </trkpt>
      <trkpt lat="48.61891" lon="-4.19944">
        <ele>67.4</ele>
        <time>2020-06-10T09:17:31Z</time>
      </trkpt>
      <trkpt lat="48.61894" lon="-4.19936">
        <ele>67.5</ele>
        <time>2020-06-10T09:17:32Z</time>
      </trkpt>
      <trkpt lat="48.61897" lon="-4.19928">
        <ele>67.6</ele>
        <time>2020-06-10T09:17:33Z</time>
      </trkpt>
      <trkpt lat="48.61899" lon="-4.19921">
        <ele>67.7</ele>
        <time>2020-06-10T09:17:34Z</time>
      </trkpt>
      <trkpt lat="48.61902" lon="-4.19916">
        <ele>67.7</ele>
        <time>2020-06-10T09:17:35Z</time>
      </trkpt>
      <trkpt lat="48.61904" lon="-4.19909">
        <ele>67.8</ele>
        <time>2020-06-10T09:17:36Z</time>
      </trkpt>
      <trkpt lat="48.61907" lon="-4.19902">
        <ele>68</ele>
        <time>2020-06-10T09:17:37Z</time>
      </trkpt>
      <trkpt lat="48.6191" lon="-4.19894">
        <ele>68.1</ele>
        <time>2020-06-10T09:17:38Z</time>
      </trkpt>
      <trkpt lat="48.61912" lon="-4.19887">
        <ele>68.3</ele>
        <time>2020-06-10T09:17:39Z</time>
      </trkpt>
      <trkpt lat="48.61916" lon="-4.1988">
        <ele>68.4</ele>
        <time>2020-06-10T09:17:40Z</time>
      </trkpt>
      <trkpt lat="48.61919" lon="-4.19873">
        <ele>68.6</ele>
        <time>2020-06-10T09:17:41Z</time>
      </trkpt>
      <trkpt lat="48.61922" lon="-4.19868">
        <ele>68.7</ele>
        <time>2020-06-10T09:17:42Z</time>
      </trkpt>
      <trkpt lat="48.61924" lon="-4.19861">
        <ele>68.9</ele>
        <time>2020-06-10T09:17:43Z</time>
      </trkpt>
      <trkpt lat="48.61927" lon="-4.19853">
        <ele>69.1</ele>
        <time>2020-06-10T09:17:44Z</time>
      </trkpt>
      <trkpt lat="48.61929" lon="-4.19845">
        <ele>69.3</ele>
        <time>2020-06-10T09:17:45Z</time>
      </trkpt>
      <trkpt lat="48.61932" lon="-4.19839">
        <ele>69.4</ele>
        <time>2020-06-10T09:17:46Z</time>
      </trkpt>
      <trkpt lat="48.61934" lon="-4.19833">
        <ele>69.6</ele>
        <time>2020-06-10T09:17:47Z</time>
      </trkpt>
      <trkpt lat="48.61935" lon="-4.19826">
        <ele>69.8</ele>
        <time>2020-06-10T09:17:48Z</time>
      </trkpt>
      <trkpt lat="48.61937" lon="-4.19818">
        <ele>70</ele>
        <time>2020-06-10T09:17:49Z</time>
      </trkpt>
      <trkpt lat="48.61939" lon="-4.19812">
        <ele>70.1</ele>
        <time>2020-06-10T09:17:50Z</time>
      </trkpt>
      <trkpt lat="48.6194" lon="-4.19806">
        <ele>70.3</ele>
        <time>2020-06-10T09:17:51Z</time>
      </trkpt>
      <trkpt lat="48.61942" lon="-4.19799">
        <ele>70.5</ele>
        <time>2020-06-10T09:17:52Z</time>
      </trkpt>
      <trkpt lat="48.61944" lon="-4.19791">
        <ele>70.7</ele>
        <time>2020-06-10T09:17:53Z</time>
      </trkpt>
      <trkpt lat="48.61945" lon="-4.19785">
        <ele>70.8</ele>
        <time>2020-06-10T09:17:54Z</time>
      </trkpt>
      <trkpt lat="48.61947" lon="-4.19778">
        <ele>71</ele>
        <time>2020-06-10T09:17:55Z</time>
      </trkpt>
      <trkpt lat="48.61948" lon="-4.19773">
        <ele>71.2</ele>
        <time>2020-06-10T09:17:56Z</time>
      </trkpt>
      <trkpt lat="48.61949" lon="-4.19769">
        <ele>71.3</ele>
        <time>2020-06-10T09:17:57Z</time>
      </trkpt>
      <trkpt lat="48.6195" lon="-4.19763">
        <ele>71.4</ele>
        <time>2020-06-10T09:17:58Z</time>
      </trkpt>
      <trkpt lat="48.61951" lon="-4.19757">
        <ele>71.5</ele>
        <time>2020-06-10T09:17:59Z</time>
      </trkpt>
      <trkpt lat="48.61953" lon="-4.19752">
        <ele>71.6</ele>
        <time>2020-06-10T09:18:00Z</time>
      </trkpt>
      <trkpt lat="48.61953" lon="-4.19746">
        <ele>71.6</ele>
        <time>2020-06-10T09:18:01Z</time>
      </trkpt>
      <trkpt lat="48.61954" lon="-4.19742">
        <ele>71.6</ele>
        <time>2020-06-10T09:18:02Z</time>
      </trkpt>
      <trkpt lat="48.61956" lon="-4.19737">
        <ele>71.7</ele>
        <time>2020-06-10T09:18:03Z</time>
      </trkpt>
      <trkpt lat="48.61958" lon="-4.19732">
        <ele>71.7</ele>
        <time>2020-06-10T09:18:04Z</time>
      </trkpt>
      <trkpt lat="48.6196" lon="-4.19726">
        <ele>71.8</ele>
        <time>2020-06-10T09:18:05Z</time>
      </trkpt>
      <trkpt lat="48.61962" lon="-4.1972">
        <ele>71.8</ele>
        <time>2020-06-10T09:18:06Z</time>
      </trkpt>
      <trkpt lat="48.61963" lon="-4.19717">
        <ele>71.8</ele>
        <time>2020-06-10T09:18:07Z</time>
      </trkpt>
      <trkpt lat="48.61964" lon="-4.19712">
        <ele>71.8</ele>
        <time>2020-06-10T09:18:08Z</time>
      </trkpt>
      <trkpt lat="48.61967" lon="-4.19707">
        <ele>71.7</ele>
        <time>2020-06-10T09:18:09Z</time>
      </trkpt>
      <trkpt lat="48.61969" lon="-4.19703">
        <ele>71.7</ele>
        <time>2020-06-10T09:18:10Z</time>
      </trkpt>
      <trkpt lat="48.61972" lon="-4.19697">
        <ele>71.6</ele>
        <time>2020-06-10T09:18:11Z</time>
      </trkpt>
      <trkpt lat="48.61975" lon="-4.19691">
        <ele>71.5</ele>
        <time>2020-06-10T09:18:12Z</time>
      </trkpt>
      <trkpt lat="48.61977" lon="-4.19685">
        <ele>71.4</ele>
        <time>2020-06-10T09:18:13Z</time>
      </trkpt>
      <trkpt lat="48.61979" lon="-4.1968">
        <ele>71.3</ele>
        <time>2020-06-10T09:18:14Z</time>
      </trkpt>
      <trkpt lat="48.61981" lon="-4.19674">
        <ele>71.2</ele>
        <time>2020-06-10T09:18:15Z</time>
      </trkpt>
      <trkpt lat="48.61984" lon="-4.19667">
        <ele>71.1</ele>
        <time>2020-06-10T09:18:16Z</time>
      </trkpt>
      <trkpt lat="48.61987" lon="-4.19658">
        <ele>70.9</ele>
        <time>2020-06-10T09:18:17Z</time>
      </trkpt>
      <trkpt lat="48.61989" lon="-4.19654">
        <ele>70.8</ele>
        <time>2020-06-10T09:18:18Z</time>
      </trkpt>
      <trkpt lat="48.61992" lon="-4.19649">
        <ele>70.6</ele>
        <time>2020-06-10T09:18:19Z</time>
      </trkpt>
      <trkpt lat="48.61995" lon="-4.19643">
        <ele>70.4</ele>
        <time>2020-06-10T09:18:20Z</time>
      </trkpt>
      <trkpt lat="48.61997" lon="-4.19636">
        <ele>70.1</ele>
        <time>2020-06-10T09:18:21Z</time>
      </trkpt>
      <trkpt lat="48.62001" lon="-4.19628">
        <ele>69.8</ele>
        <time>2020-06-10T09:18:22Z</time>
      </trkpt>
      <trkpt lat="48.62004" lon="-4.19618">
        <ele>69.5</ele>
        <time>2020-06-10T09:18:23Z</time>
      </trkpt>
      <trkpt lat="48.62007" lon="-4.19609">
        <ele>69.1</ele>
        <time>2020-06-10T09:18:24Z</time>
      </trkpt>
      <trkpt lat="48.6201" lon="-4.196">
        <ele>68.7</ele>
        <time>2020-06-10T09:18:25Z</time>
      </trkpt>
      <trkpt lat="48.62013" lon="-4.19592">
        <ele>68.4</ele>
        <time>2020-06-10T09:18:26Z</time>
      </trkpt>
      <trkpt lat="48.62016" lon="-4.19583">
        <ele>68</ele>
        <time>2020-06-10T09:18:27Z</time>
      </trkpt>
      <trkpt lat="48.6202" lon="-4.19571">
        <ele>67.5</ele>
        <time>2020-06-10T09:18:28Z</time>
      </trkpt>
      <trkpt lat="48.62024" lon="-4.19561">
        <ele>67</ele>
        <time>2020-06-10T09:18:29Z</time>
      </trkpt>
      <trkpt lat="48.62027" lon="-4.1955">
        <ele>66.6</ele>
        <time>2020-06-10T09:18:30Z</time>
      </trkpt>
      <trkpt lat="48.62032" lon="-4.19539">
        <ele>66.3</ele>
        <time>2020-06-10T09:18:31Z</time>
      </trkpt>
      <trkpt lat="48.62036" lon="-4.19527">
        <ele>66</ele>
        <time>2020-06-10T09:18:32Z</time>
      </trkpt>
      <trkpt lat="48.62041" lon="-4.19516">
        <ele>65.4</ele>
        <time>2020-06-10T09:18:33Z</time>
      </trkpt>
      <trkpt lat="48.62045" lon="-4.19504">
        <ele>65.2</ele>
        <time>2020-06-10T09:18:34Z</time>
      </trkpt>
      <trkpt lat="48.62049" lon="-4.19493">
        <ele>65</ele>
        <time>2020-06-10T09:18:35Z</time>
      </trkpt>
      <trkpt lat="48.62054" lon="-4.19482">
        <ele>64.8</ele>
        <time>2020-06-10T09:18:36Z</time>
      </trkpt>
      <trkpt lat="48.62059" lon="-4.19471">
        <ele>64.6</ele>
        <time>2020-06-10T09:18:37Z</time>
      </trkpt>
      <trkpt lat="48.62064" lon="-4.19461">
        <ele>64.4</ele>
        <time>2020-06-10T09:18:38Z</time>
      </trkpt>
      <trkpt lat="48.62069" lon="-4.1945">
        <ele>63.9</ele>
        <time>2020-06-10T09:18:39Z</time>
      </trkpt>
      <trkpt lat="48.62073" lon="-4.19439">
        <ele>63.8</ele>
        <time>2020-06-10T09:18:40Z</time>
      </trkpt>
      <trkpt lat="48.62079" lon="-4.19429">
        <ele>63.7</ele>
        <time>2020-06-10T09:18:41Z</time>
      </trkpt>
      <trkpt lat="48.62083" lon="-4.19419">
        <ele>63.6</ele>
        <time>2020-06-10T09:18:42Z</time>
      </trkpt>
      <trkpt lat="48.62088" lon="-4.19409">
        <ele>63.4</ele>
        <time>2020-06-10T09:18:43Z</time>
      </trkpt>
      <trkpt lat="48.62093" lon="-4.19398">
        <ele>63.3</ele>
        <time>2020-06-10T09:18:44Z</time>
      </trkpt>
      <trkpt lat="48.62098" lon="-4.19388">
        <ele>63.1</ele>
        <time>2020-06-10T09:18:45Z</time>
      </trkpt>
      <trkpt lat="48.62102" lon="-4.19377">
        <ele>63</ele>
        <time>2020-06-10T09:18:46Z</time>
      </trkpt>
      <trkpt lat="48.62108" lon="-4.19367">
        <ele>62.9</ele>
        <time>2020-06-10T09:18:47Z</time>
      </trkpt>
      <trkpt lat="48.62112" lon="-4.19357">
        <ele>62.9</ele>
        <time>2020-06-10T09:18:48Z</time>
      </trkpt>
      <trkpt lat="48.62117" lon="-4.19346">
        <ele>62.8</ele>
        <time>2020-06-10T09:18:49Z</time>
      </trkpt>
      <trkpt lat="48.62121" lon="-4.19336">
        <ele>62.8</ele>
        <time>2020-06-10T09:18:50Z</time>
      </trkpt>
      <trkpt lat="48.62125" lon="-4.19325">
        <ele>62.7</ele>
        <time>2020-06-10T09:18:51Z</time>
      </trkpt>
      <trkpt lat="48.62128" lon="-4.19314">
        <ele>62.7</ele>
        <time>2020-06-10T09:18:52Z</time>
      </trkpt>
      <trkpt lat="48.62132" lon="-4.19303">
        <ele>62.8</ele>
        <time>2020-06-10T09:18:53Z</time>
      </trkpt>
      <trkpt lat="48.62135" lon="-4.19292">
        <ele>62.9</ele>
        <time>2020-06-10T09:18:54Z</time>
      </trkpt>
      <trkpt lat="48.62137" lon="-4.19281">
        <ele>63.1</ele>
        <time>2020-06-10T09:18:55Z</time>
      </trkpt>
      <trkpt lat="48.6214" lon="-4.19271">
        <ele>63</ele>
        <time>2020-06-10T09:18:56Z</time>
      </trkpt>
      <trkpt lat="48.62143" lon="-4.19261">
        <ele>62.9</ele>
        <time>2020-06-10T09:18:57Z</time>
      </trkpt>
      <trkpt lat="48.62146" lon="-4.19252">
        <ele>62.8</ele>
        <time>2020-06-10T09:18:58Z</time>
      </trkpt>
      <trkpt lat="48.62149" lon="-4.19242">
        <ele>62.7</ele>
        <time>2020-06-10T09:18:59Z</time>
      </trkpt>
      <trkpt lat="48.62152" lon="-4.19233">
        <ele>62.6</ele>
        <time>2020-06-10T09:19:00Z</time>
      </trkpt>
      <trkpt lat="48.62155" lon="-4.19223">
        <ele>62.4</ele>
        <time>2020-06-10T09:19:01Z</time>
      </trkpt>
      <trkpt lat="48.62158" lon="-4.19214">
        <ele>62.3</ele>
        <time>2020-06-10T09:19:02Z</time>
      </trkpt>
      <trkpt lat="48.6216" lon="-4.19205">
        <ele>62.1</ele>
        <time>2020-06-10T09:19:03Z</time>
      </trkpt>
      <trkpt lat="48.62164" lon="-4.19196">
        <ele>61.9</ele>
        <time>2020-06-10T09:19:04Z</time>
      </trkpt>
      <trkpt lat="48.62166" lon="-4.19186">
        <ele>61.6</ele>
        <time>2020-06-10T09:19:05Z</time>
      </trkpt>
      <trkpt lat="48.6217" lon="-4.19176">
        <ele>61.4</ele>
        <time>2020-06-10T09:19:06Z</time>
      </trkpt>
      <trkpt lat="48.62173" lon="-4.19166">
        <ele>61.1</ele>
        <time>2020-06-10T09:19:07Z</time>
      </trkpt>
      <trkpt lat="48.62176" lon="-4.19155">
        <ele>60.8</ele>
        <time>2020-06-10T09:19:08Z</time>
      </trkpt>
      <trkpt lat="48.62179" lon="-4.19145">
        <ele>60.5</ele>
        <time>2020-06-10T09:19:09Z</time>
      </trkpt>
      <trkpt lat="48.62183" lon="-4.19134">
        <ele>60.1</ele>
        <time>2020-06-10T09:19:10Z</time>
      </trkpt>
      <trkpt lat="48.62186" lon="-4.19123">
        <ele>59.8</ele>
        <time>2020-06-10T09:19:11Z</time>
      </trkpt>
      <trkpt lat="48.6219" lon="-4.19113">
        <ele>59.4</ele>
        <time>2020-06-10T09:19:12Z</time>
      </trkpt>
      <trkpt lat="48.62195" lon="-4.19103">
        <ele>59</ele>
        <time>2020-06-10T09:19:13Z</time>
      </trkpt>
      <trkpt lat="48.622" lon="-4.19093">
        <ele>58.6</ele>
        <time>2020-06-10T09:19:14Z</time>
      </trkpt>
      <trkpt lat="48.62205" lon="-4.19083">
        <ele>58.2</ele>
        <time>2020-06-10T09:19:15Z</time>
      </trkpt>
      <trkpt lat="48.62211" lon="-4.19074">
        <ele>57.9</ele>
        <time>2020-06-10T09:19:16Z</time>
      </trkpt>
      <trkpt lat="48.62217" lon="-4.19065">
        <ele>57.5</ele>
        <time>2020-06-10T09:19:17Z</time>
      </trkpt>
      <trkpt lat="48.62223" lon="-4.19056">
        <ele>57.1</ele>
        <time>2020-06-10T09:19:18Z</time>
      </trkpt>
      <trkpt lat="48.62229" lon="-4.19046">
        <ele>56.8</ele>
        <time>2020-06-10T09:19:19Z</time>
      </trkpt>
      <trkpt lat="48.62236" lon="-4.19037">
        <ele>56.4</ele>
        <time>2020-06-10T09:19:20Z</time>
      </trkpt>
      <trkpt lat="48.62242" lon="-4.19028">
        <ele>56</ele>
        <time>2020-06-10T09:19:21Z</time>
      </trkpt>
      <trkpt lat="48.62248" lon="-4.19018">
        <ele>55.6</ele>
        <time>2020-06-10T09:19:22Z</time>
      </trkpt>
      <trkpt lat="48.62255" lon="-4.19008">
        <ele>55.2</ele>
        <time>2020-06-10T09:19:23Z</time>
      </trkpt>
      <trkpt lat="48.62261" lon="-4.18999">
        <ele>54.8</ele>
        <time>2020-06-10T09:19:24Z</time>
      </trkpt>
      <trkpt lat="48.62267" lon="-4.18988">
        <ele>54.3</ele>
        <time>2020-06-10T09:19:25Z</time>
      </trkpt>
      <trkpt lat="48.62272" lon="-4.18977">
        <ele>53.8</ele>
        <time>2020-06-10T09:19:26Z</time>
      </trkpt>
      <trkpt lat="48.62277" lon="-4.18965">
        <ele>53.4</ele>
        <time>2020-06-10T09:19:27Z</time>
      </trkpt>
      <trkpt lat="48.62281" lon="-4.18953">
        <ele>53</ele>
        <time>2020-06-10T09:19:28Z</time>
      </trkpt>
      <trkpt lat="48.62284" lon="-4.18939">
        <ele>52.4</ele>
        <time>2020-06-10T09:19:29Z</time>
      </trkpt>
      <trkpt lat="48.62287" lon="-4.18926">
        <ele>51.9</ele>
        <time>2020-06-10T09:19:30Z</time>
      </trkpt>
      <trkpt lat="48.62291" lon="-4.18913">
        <ele>51.5</ele>
        <time>2020-06-10T09:19:31Z</time>
      </trkpt>
      <trkpt lat="48.62294" lon="-4.18901">
        <ele>51.1</ele>
        <time>2020-06-10T09:19:32Z</time>
      </trkpt>
      <trkpt lat="48.62297" lon="-4.18888">
        <ele>50.7</ele>
        <time>2020-06-10T09:19:33Z</time>
      </trkpt>
      <trkpt lat="48.62301" lon="-4.18876">
        <ele>50.3</ele>
        <time>2020-06-10T09:19:34Z</time>
      </trkpt>
      <trkpt lat="48.62304" lon="-4.18862">
        <ele>50</ele>
        <time>2020-06-10T09:19:35Z</time>
      </trkpt>
      <trkpt lat="48.62307" lon="-4.18848">
        <ele>49.9</ele>
        <time>2020-06-10T09:19:36Z</time>
      </trkpt>
      <trkpt lat="48.6231" lon="-4.18835">
        <ele>49.9</ele>
        <time>2020-06-10T09:19:37Z</time>
      </trkpt>
      <trkpt lat="48.62313" lon="-4.18822">
        <ele>49.8</ele>
        <time>2020-06-10T09:19:38Z</time>
      </trkpt>
      <trkpt lat="48.62315" lon="-4.18808">
        <ele>49.7</ele>
        <time>2020-06-10T09:19:39Z</time>
      </trkpt>
      <trkpt lat="48.62316" lon="-4.18795">
        <ele>49.7</ele>
        <time>2020-06-10T09:19:40Z</time>
      </trkpt>
      <trkpt lat="48.62319" lon="-4.18783">
        <ele>49.7</ele>
        <time>2020-06-10T09:19:41Z</time>
      </trkpt>
      <trkpt lat="48.62323" lon="-4.18771">
        <ele>49.8</ele>
        <time>2020-06-10T09:19:42Z</time>
      </trkpt>
      <trkpt lat="48.62326" lon="-4.1876">
        <ele>50</ele>
        <time>2020-06-10T09:19:43Z</time>
      </trkpt>
      <trkpt lat="48.6233" lon="-4.1875">
        <ele>50.2</ele>
        <time>2020-06-10T09:19:44Z</time>
      </trkpt>
      <trkpt lat="48.62333" lon="-4.18739">
        <ele>50.4</ele>
        <time>2020-06-10T09:19:45Z</time>
      </trkpt>
      <trkpt lat="48.62336" lon="-4.18729">
        <ele>50.6</ele>
        <time>2020-06-10T09:19:46Z</time>
      </trkpt>
      <trkpt lat="48.6234" lon="-4.18719">
        <ele>50.9</ele>
        <time>2020-06-10T09:19:47Z</time>
      </trkpt>
      <trkpt lat="48.62343" lon="-4.1871">
        <ele>51.2</ele>
        <time>2020-06-10T09:19:48Z</time>
      </trkpt>
      <trkpt lat="48.62347" lon="-4.187">
        <ele>51.8</ele>
        <time>2020-06-10T09:19:49Z</time>
      </trkpt>
      <trkpt lat="48.6235" lon="-4.18691">
        <ele>52.1</ele>
        <time>2020-06-10T09:19:50Z</time>
      </trkpt>
      <trkpt lat="48.62353" lon="-4.18682">
        <ele>52.3</ele>
        <time>2020-06-10T09:19:51Z</time>
      </trkpt>
      <trkpt lat="48.62356" lon="-4.18673">
        <ele>52.6</ele>
        <time>2020-06-10T09:19:52Z</time>
      </trkpt>
      <trkpt lat="48.62359" lon="-4.18665">
        <ele>52.9</ele>
        <time>2020-06-10T09:19:53Z</time>
      </trkpt>
      <trkpt lat="48.62362" lon="-4.18658">
        <ele>53.1</ele>
        <time>2020-06-10T09:19:54Z</time>
      </trkpt>
      <trkpt lat="48.62365" lon="-4.18651">
        <ele>53.4</ele>
        <time>2020-06-10T09:19:55Z</time>
      </trkpt>
      <trkpt lat="48.62367" lon="-4.18644">
        <ele>53.6</ele>
        <time>2020-06-10T09:19:56Z</time>
      </trkpt>
      <trkpt lat="48.62369" lon="-4.18638">
        <ele>53.8</ele>
        <time>2020-06-10T09:19:57Z</time>
      </trkpt>
      <trkpt lat="48.6237" lon="-4.18631">
        <ele>54.1</ele>
        <time>2020-06-10T09:19:58Z</time>
      </trkpt>
      <trkpt lat="48.62371" lon="-4.18624">
        <ele>54.3</ele>
        <time>2020-06-10T09:19:59Z</time>
      </trkpt>
      <trkpt lat="48.62372" lon="-4.18617">
        <ele>54.6</ele>
        <time>2020-06-10T09:20:00Z</time>
      </trkpt>
      <trkpt lat="48.62374" lon="-4.1861">
        <ele>54.8</ele>
        <time>2020-06-10T09:20:01Z</time>
      </trkpt>
      <trkpt lat="48.62376" lon="-4.18604">
        <ele>55</ele>
        <time>2020-06-10T09:20:02Z</time>
      </trkpt>
      <trkpt lat="48.62377" lon="-4.18599">
        <ele>55.2</ele>
        <time>2020-06-10T09:20:03Z</time>
      </trkpt>
      <trkpt lat="48.62379" lon="-4.18593">
        <ele>55.4</ele>
        <time>2020-06-10T09:20:04Z</time>
      </trkpt>
      <trkpt lat="48.6238" lon="-4.18587">
        <ele>55.6</ele>
        <time>2020-06-10T09:20:05Z</time>
      </trkpt>
      <trkpt lat="48.62382" lon="-4.18582">
        <ele>55.8</ele>
        <time>2020-06-10T09:20:06Z</time>
      </trkpt>
      <trkpt lat="48.62384" lon="-4.18576">
        <ele>55.9</ele>
        <time>2020-06-10T09:20:07Z</time>
      </trkpt>
      <trkpt lat="48.62386" lon="-4.18571">
        <ele>56.1</ele>
        <time>2020-06-10T09:20:08Z</time>
      </trkpt>
      <trkpt lat="48.62388" lon="-4.18565">
        <ele>56.3</ele>
        <time>2020-06-10T09:20:09Z</time>
      </trkpt>
      <trkpt lat="48.6239" lon="-4.18559">
        <ele>56.4</ele>
        <time>2020-06-10T09:20:10Z</time>
      </trkpt>
      <trkpt lat="48.62392" lon="-4.18553">
        <ele>56.6</ele>
        <time>2020-06-10T09:20:11Z</time>
      </trkpt>
      <trkpt lat="48.62395" lon="-4.18546">
        <ele>56.8</ele>
        <time>2020-06-10T09:20:12Z</time>
      </trkpt>
      <trkpt lat="48.62397" lon="-4.1854">
        <ele>56.9</ele>
        <time>2020-06-10T09:20:13Z</time>
      </trkpt>
      <trkpt lat="48.62399" lon="-4.18534">
        <ele>57</ele>
        <time>2020-06-10T09:20:14Z</time>
      </trkpt>
      <trkpt lat="48.62401" lon="-4.18526">
        <ele>57.1</ele>
        <time>2020-06-10T09:20:15Z</time>
      </trkpt>
      <trkpt lat="48.62403" lon="-4.18521">
        <ele>57.1</ele>
        <time>2020-06-10T09:20:16Z</time>
      </trkpt>
      <trkpt lat="48.62405" lon="-4.18515">
        <ele>57.2</ele>
        <time>2020-06-10T09:20:17Z</time>
      </trkpt>
      <trkpt lat="48.62407" lon="-4.18509">
        <ele>57.3</ele>
        <time>2020-06-10T09:20:18Z</time>
      </trkpt>
      <trkpt lat="48.6241" lon="-4.18504">
        <ele>57.4</ele>
        <time>2020-06-10T09:20:19Z</time>
      </trkpt>
      <trkpt lat="48.62412" lon="-4.18497">
        <ele>57.6</ele>
        <time>2020-06-10T09:20:20Z</time>
      </trkpt>
      <trkpt lat="48.62415" lon="-4.1849">
        <ele>57.7</ele>
        <time>2020-06-10T09:20:21Z</time>
      </trkpt>
      <trkpt lat="48.62418" lon="-4.18482">
        <ele>57.8</ele>
        <time>2020-06-10T09:20:22Z</time>
      </trkpt>
      <trkpt lat="48.6242" lon="-4.18475">
        <ele>58</ele>
        <time>2020-06-10T09:20:23Z</time>
      </trkpt>
      <trkpt lat="48.62422" lon="-4.18468">
        <ele>58</ele>
        <time>2020-06-10T09:20:24Z</time>
      </trkpt>
      <trkpt lat="48.62425" lon="-4.1846">
        <ele>58.1</ele>
        <time>2020-06-10T09:20:25Z</time>
      </trkpt>
      <trkpt lat="48.62427" lon="-4.18454">
        <ele>58.2</ele>
        <time>2020-06-10T09:20:26Z</time>
      </trkpt>
      <trkpt lat="48.62429" lon="-4.18447">
        <ele>58.3</ele>
        <time>2020-06-10T09:20:27Z</time>
      </trkpt>
      <trkpt lat="48.62431" lon="-4.1844">
        <ele>58.4</ele>
        <time>2020-06-10T09:20:28Z</time>
      </trkpt>
      <trkpt lat="48.62433" lon="-4.18434">
        <ele>58.5</ele>
        <time>2020-06-10T09:20:29Z</time>
      </trkpt>
      <trkpt lat="48.62435" lon="-4.18427">
        <ele>58.6</ele>
        <time>2020-06-10T09:20:30Z</time>
      </trkpt>
      <trkpt lat="48.62437" lon="-4.18421">
        <ele>58.7</ele>
        <time>2020-06-10T09:20:31Z</time>
      </trkpt>
      <trkpt lat="48.62439" lon="-4.18413">
        <ele>58.9</ele>
        <time>2020-06-10T09:20:32Z</time>
      </trkpt>
      <trkpt lat="48.62441" lon="-4.18406">
        <ele>59</ele>
        <time>2020-06-10T09:20:33Z</time>
      </trkpt>
      <trkpt lat="48.62443" lon="-4.184">
        <ele>59.2</ele>
        <time>2020-06-10T09:20:34Z</time>
      </trkpt>
      <trkpt lat="48.62445" lon="-4.18394">
        <ele>59.3</ele>
        <time>2020-06-10T09:20:35Z</time>
      </trkpt>
      <trkpt lat="48.62447" lon="-4.18387">
        <ele>59.5</ele>
        <time>2020-06-10T09:20:36Z</time>
      </trkpt>
      <trkpt lat="48.62449" lon="-4.18381">
        <ele>59.7</ele>
        <time>2020-06-10T09:20:37Z</time>
      </trkpt>
      <trkpt lat="48.62451" lon="-4.18375">
        <ele>59.9</ele>
        <time>2020-06-10T09:20:38Z</time>
      </trkpt>
      <trkpt lat="48.62452" lon="-4.18369">
        <ele>60.1</ele>
        <time>2020-06-10T09:20:39Z</time>
      </trkpt>
      <trkpt lat="48.62455" lon="-4.18363">
        <ele>60.3</ele>
        <time>2020-06-10T09:20:40Z</time>
      </trkpt>
      <trkpt lat="48.62457" lon="-4.18356">
        <ele>60.6</ele>
        <time>2020-06-10T09:20:41Z</time>
      </trkpt>
      <trkpt lat="48.62459" lon="-4.18351">
        <ele>60.8</ele>
        <time>2020-06-10T09:20:42Z</time>
      </trkpt>
      <trkpt lat="48.62461" lon="-4.18345">
        <ele>61</ele>
        <time>2020-06-10T09:20:43Z</time>
      </trkpt>
      <trkpt lat="48.62464" lon="-4.1834">
        <ele>61.2</ele>
        <time>2020-06-10T09:20:44Z</time>
      </trkpt>
      <trkpt lat="48.62466" lon="-4.18336">
        <ele>61.4</ele>
        <time>2020-06-10T09:20:45Z</time>
      </trkpt>
      <trkpt lat="48.62468" lon="-4.1833">
        <ele>61.6</ele>
        <time>2020-06-10T09:20:46Z</time>
      </trkpt>
      <trkpt lat="48.6247" lon="-4.18325">
        <ele>61.8</ele>
        <time>2020-06-10T09:20:47Z</time>
      </trkpt>
      <trkpt lat="48.62472" lon="-4.18319">
        <ele>62.1</ele>
        <time>2020-06-10T09:20:48Z</time>
      </trkpt>
      <trkpt lat="48.62475" lon="-4.18313">
        <ele>62.3</ele>
        <time>2020-06-10T09:20:49Z</time>
      </trkpt>
      <trkpt lat="48.62477" lon="-4.18306">
        <ele>62.6</ele>
        <time>2020-06-10T09:20:50Z</time>
      </trkpt>
      <trkpt lat="48.62479" lon="-4.18301">
        <ele>62.8</ele>
        <time>2020-06-10T09:20:51Z</time>
      </trkpt>
      <trkpt lat="48.62482" lon="-4.18298">
        <ele>63</ele>
        <time>2020-06-10T09:20:52Z</time>
      </trkpt>
      <trkpt lat="48.62484" lon="-4.18292">
        <ele>63.3</ele>
        <time>2020-06-10T09:20:53Z</time>
      </trkpt>
      <trkpt lat="48.62486" lon="-4.18288">
        <ele>63.5</ele>
        <time>2020-06-10T09:20:54Z</time>
      </trkpt>
      <trkpt lat="48.62489" lon="-4.18283">
        <ele>63.7</ele>
        <time>2020-06-10T09:20:55Z</time>
      </trkpt>
      <trkpt lat="48.6249" lon="-4.18279">
        <ele>63.9</ele>
        <time>2020-06-10T09:20:56Z</time>
      </trkpt>
      <trkpt lat="48.62493" lon="-4.18273">
        <ele>64.1</ele>
        <time>2020-06-10T09:20:57Z</time>
      </trkpt>
      <trkpt lat="48.62496" lon="-4.18267">
        <ele>64.4</ele>
        <time>2020-06-10T09:20:58Z</time>
      </trkpt>
      <trkpt lat="48.62499" lon="-4.18262">
        <ele>64.6</ele>
        <time>2020-06-10T09:20:59Z</time>
      </trkpt>
      <trkpt lat="48.62501" lon="-4.18258">
        <ele>64.8</ele>
        <time>2020-06-10T09:21:00Z</time>
      </trkpt>
      <trkpt lat="48.62502" lon="-4.18254">
        <ele>64.9</ele>
        <time>2020-06-10T09:21:01Z</time>
      </trkpt>
      <trkpt lat="48.62505" lon="-4.1825">
        <ele>65.1</ele>
        <time>2020-06-10T09:21:02Z</time>
      </trkpt>
      <trkpt lat="48.62506" lon="-4.18246">
        <ele>65.2</ele>
        <time>2020-06-10T09:21:03Z</time>
      </trkpt>
      <trkpt lat="48.62509" lon="-4.18243">
        <ele>65.4</ele>
        <time>2020-06-10T09:21:04Z</time>
      </trkpt>
      <trkpt lat="48.62511" lon="-4.18239">
        <ele>65.5</ele>
        <time>2020-06-10T09:21:05Z</time>
      </trkpt>
      <trkpt lat="48.62513" lon="-4.18235">
        <ele>65.6</ele>
        <time>2020-06-10T09:21:06Z</time>
      </trkpt>
      <trkpt lat="48.62515" lon="-4.1823">
        <ele>65.8</ele>
        <time>2020-06-10T09:21:07Z</time>
      </trkpt>
      <trkpt lat="48.62518" lon="-4.18223">
        <ele>66</ele>
        <time>2020-06-10T09:21:08Z</time>
      </trkpt>
      <trkpt lat="48.6252" lon="-4.18219">
        <ele>66.1</ele>
        <time>2020-06-10T09:21:09Z</time>
      </trkpt>
      <trkpt lat="48.62523" lon="-4.18214">
        <ele>66.1</ele>
        <time>2020-06-10T09:21:10Z</time>
      </trkpt>
      <trkpt lat="48.62525" lon="-4.1821">
        <ele>66.2</ele>
        <time>2020-06-10T09:21:11Z</time>
      </trkpt>
      <trkpt lat="48.62528" lon="-4.18205">
        <ele>66.3</ele>
        <time>2020-06-10T09:21:12Z</time>
      </trkpt>
      <trkpt lat="48.62531" lon="-4.18202">
        <ele>66.3</ele>
        <time>2020-06-10T09:21:13Z</time>
      </trkpt>
      <trkpt lat="48.62534" lon="-4.18196">
        <ele>66.4</ele>
        <time>2020-06-10T09:21:14Z</time>
      </trkpt>
      <trkpt lat="48.62537" lon="-4.18189">
        <ele>66.4</ele>
        <time>2020-06-10T09:21:15Z</time>
      </trkpt>
      <trkpt lat="48.6254" lon="-4.18183">
        <ele>66.5</ele>
        <time>2020-06-10T09:21:16Z</time>
      </trkpt>
      <trkpt lat="48.62544" lon="-4.18176">
        <ele>66.4</ele>
        <time>2020-06-10T09:21:17Z</time>
      </trkpt>
      <trkpt lat="48.62548" lon="-4.18172">
        <ele>66.4</ele>
        <time>2020-06-10T09:21:18Z</time>
      </trkpt>
      <trkpt lat="48.62552" lon="-4.18164">
        <ele>66.3</ele>
        <time>2020-06-10T09:21:19Z</time>
      </trkpt>
      <trkpt lat="48.62556" lon="-4.18156">
        <ele>66.2</ele>
        <time>2020-06-10T09:21:20Z</time>
      </trkpt>
      <trkpt lat="48.62561" lon="-4.18149">
        <ele>66.1</ele>
        <time>2020-06-10T09:21:21Z</time>
      </trkpt>
      <trkpt lat="48.62564" lon="-4.18142">
        <ele>66.1</ele>
        <time>2020-06-10T09:21:22Z</time>
      </trkpt>
      <trkpt lat="48.62568" lon="-4.18135">
        <ele>66</ele>
        <time>2020-06-10T09:21:23Z</time>
      </trkpt>
      <trkpt lat="48.62573" lon="-4.18127">
        <ele>65.9</ele>
        <time>2020-06-10T09:21:24Z</time>
      </trkpt>
      <trkpt lat="48.62577" lon="-4.1812">
        <ele>65.6</ele>
        <time>2020-06-10T09:21:25Z</time>
      </trkpt>
      <trkpt lat="48.62581" lon="-4.18114">
        <ele>65.3</ele>
        <time>2020-06-10T09:21:26Z</time>
      </trkpt>
      <trkpt lat="48.62586" lon="-4.18105">
        <ele>64.8</ele>
        <time>2020-06-10T09:21:27Z</time>
      </trkpt>
      <trkpt lat="48.6259" lon="-4.18097">
        <ele>64.5</ele>
        <time>2020-06-10T09:21:28Z</time>
      </trkpt>
      <trkpt lat="48.62594" lon="-4.18089">
        <ele>64.4</ele>
        <time>2020-06-10T09:21:29Z</time>
      </trkpt>
      <trkpt lat="48.62599" lon="-4.18081">
        <ele>64.2</ele>
        <time>2020-06-10T09:21:30Z</time>
      </trkpt>
      <trkpt lat="48.62603" lon="-4.18072">
        <ele>64.1</ele>
        <time>2020-06-10T09:21:31Z</time>
      </trkpt>
      <trkpt lat="48.62607" lon="-4.18064">
        <ele>64.1</ele>
        <time>2020-06-10T09:21:32Z</time>
      </trkpt>
      <trkpt lat="48.62611" lon="-4.18056">
        <ele>64</ele>
        <time>2020-06-10T09:21:33Z</time>
      </trkpt>
      <trkpt lat="48.62615" lon="-4.18047">
        <ele>64</ele>
        <time>2020-06-10T09:21:34Z</time>
      </trkpt>
      <trkpt lat="48.62619" lon="-4.18038">
        <ele>64</ele>
        <time>2020-06-10T09:21:35Z</time>
      </trkpt>
      <trkpt lat="48.62624" lon="-4.1803">
        <ele>64</ele>
        <time>2020-06-10T09:21:36Z</time>
      </trkpt>
      <trkpt lat="48.62628" lon="-4.18022">
        <ele>63.9</ele>
        <time>2020-06-10T09:21:37Z</time>
      </trkpt>
      <trkpt lat="48.62632" lon="-4.18013">
        <ele>63.9</ele>
        <time>2020-06-10T09:21:38Z</time>
      </trkpt>
      <trkpt lat="48.62637" lon="-4.18004">
        <ele>63.9</ele>
        <time>2020-06-10T09:21:39Z</time>
      </trkpt>
      <trkpt lat="48.62641" lon="-4.17996">
        <ele>63.9</ele>
        <time>2020-06-10T09:21:40Z</time>
      </trkpt>
      <trkpt lat="48.62644" lon="-4.17987">
        <ele>63.9</ele>
        <time>2020-06-10T09:21:41Z</time>
      </trkpt>
      <trkpt lat="48.62649" lon="-4.17979">
        <ele>63.9</ele>
        <time>2020-06-10T09:21:42Z</time>
      </trkpt>
      <trkpt lat="48.62653" lon="-4.17971">
        <ele>64</ele>
        <time>2020-06-10T09:21:43Z</time>
      </trkpt>
      <trkpt lat="48.62656" lon="-4.17962">
        <ele>64.1</ele>
        <time>2020-06-10T09:21:44Z</time>
      </trkpt>
      <trkpt lat="48.6266" lon="-4.17953">
        <ele>64.2</ele>
        <time>2020-06-10T09:21:45Z</time>
      </trkpt>
      <trkpt lat="48.62664" lon="-4.17945">
        <ele>64.3</ele>
        <time>2020-06-10T09:21:46Z</time>
      </trkpt>
      <trkpt lat="48.62668" lon="-4.17936">
        <ele>64.4</ele>
        <time>2020-06-10T09:21:47Z</time>
      </trkpt>
      <trkpt lat="48.62671" lon="-4.17927">
        <ele>64.6</ele>
        <time>2020-06-10T09:21:48Z</time>
      </trkpt>
      <trkpt lat="48.62675" lon="-4.17919">
        <ele>64.9</ele>
        <time>2020-06-10T09:21:49Z</time>
      </trkpt>
      <trkpt lat="48.62678" lon="-4.1791">
        <ele>65.2</ele>
        <time>2020-06-10T09:21:50Z</time>
      </trkpt>
      <trkpt lat="48.62682" lon="-4.17901">
        <ele>65.4</ele>
        <time>2020-06-10T09:21:51Z</time>
      </trkpt>
      <trkpt lat="48.62685" lon="-4.17892">
        <ele>65.6</ele>
        <time>2020-06-10T09:21:52Z</time>
      </trkpt>
      <trkpt lat="48.62686" lon="-4.17883">
        <ele>65.7</ele>
        <time>2020-06-10T09:21:53Z</time>
      </trkpt>
      <trkpt lat="48.62688" lon="-4.17873">
        <ele>65.8</ele>
        <time>2020-06-10T09:21:54Z</time>
      </trkpt>
      <trkpt lat="48.62691" lon="-4.17865">
        <ele>65.8</ele>
        <time>2020-06-10T09:21:55Z</time>
      </trkpt>
      <trkpt lat="48.62693" lon="-4.17855">
        <ele>65.8</ele>
        <time>2020-06-10T09:21:56Z</time>
      </trkpt>
      <trkpt lat="48.62695" lon="-4.17846">
        <ele>65.8</ele>
        <time>2020-06-10T09:21:57Z</time>
      </trkpt>
      <trkpt lat="48.62697" lon="-4.17837">
        <ele>65.8</ele>
        <time>2020-06-10T09:21:58Z</time>
      </trkpt>
      <trkpt lat="48.62699" lon="-4.17828">
        <ele>66</ele>
        <time>2020-06-10T09:21:59Z</time>
      </trkpt>
      <trkpt lat="48.62701" lon="-4.17819">
        <ele>66.1</ele>
        <time>2020-06-10T09:22:00Z</time>
      </trkpt>
      <trkpt lat="48.62703" lon="-4.1781">
        <ele>66.2</ele>
        <time>2020-06-10T09:22:01Z</time>
      </trkpt>
      <trkpt lat="48.62705" lon="-4.17802">
        <ele>66.3</ele>
        <time>2020-06-10T09:22:02Z</time>
      </trkpt>
      <trkpt lat="48.62707" lon="-4.17793">
        <ele>66.4</ele>
        <time>2020-06-10T09:22:03Z</time>
      </trkpt>
      <trkpt lat="48.62709" lon="-4.17785">
        <ele>66.5</ele>
        <time>2020-06-10T09:22:04Z</time>
      </trkpt>
      <trkpt lat="48.62711" lon="-4.17777">
        <ele>66.6</ele>
        <time>2020-06-10T09:22:05Z</time>
      </trkpt>
      <trkpt lat="48.62713" lon="-4.1777">
        <ele>66.7</ele>
        <time>2020-06-10T09:22:06Z</time>
      </trkpt>
      <trkpt lat="48.62716" lon="-4.17763">
        <ele>66.7</ele>
        <time>2020-06-10T09:22:07Z</time>
      </trkpt>
      <trkpt lat="48.62718" lon="-4.17756">
        <ele>66.8</ele>
        <time>2020-06-10T09:22:08Z</time>
      </trkpt>
      <trkpt lat="48.6272" lon="-4.17749">
        <ele>66.9</ele>
        <time>2020-06-10T09:22:09Z</time>
      </trkpt>
      <trkpt lat="48.62722" lon="-4.17743">
        <ele>66.9</ele>
        <time>2020-06-10T09:22:10Z</time>
      </trkpt>
      <trkpt lat="48.62724" lon="-4.17737">
        <ele>67</ele>
        <time>2020-06-10T09:22:11Z</time>
      </trkpt>
      <trkpt lat="48.62726" lon="-4.17731">
        <ele>67</ele>
        <time>2020-06-10T09:22:12Z</time>
      </trkpt>
      <trkpt lat="48.62727" lon="-4.17724">
        <ele>67</ele>
        <time>2020-06-10T09:22:13Z</time>
      </trkpt>
      <trkpt lat="48.62728" lon="-4.17718">
        <ele>67</ele>
        <time>2020-06-10T09:22:14Z</time>
      </trkpt>
      <trkpt lat="48.62729" lon="-4.17712">
        <ele>67</ele>
        <time>2020-06-10T09:22:15Z</time>
      </trkpt>
      <trkpt lat="48.6273" lon="-4.17705">
        <ele>67</ele>
        <time>2020-06-10T09:22:16Z</time>
      </trkpt>
      <trkpt lat="48.62731" lon="-4.17698">
        <ele>66.9</ele>
        <time>2020-06-10T09:22:17Z</time>
      </trkpt>
      <trkpt lat="48.62733" lon="-4.17691">
        <ele>66.8</ele>
        <time>2020-06-10T09:22:18Z</time>
      </trkpt>
      <trkpt lat="48.62735" lon="-4.17683">
        <ele>66.6</ele>
        <time>2020-06-10T09:22:19Z</time>
      </trkpt>
      <trkpt lat="48.62736" lon="-4.17675">
        <ele>66.5</ele>
        <time>2020-06-10T09:22:20Z</time>
      </trkpt>
      <trkpt lat="48.62738" lon="-4.17666">
        <ele>66.3</ele>
        <time>2020-06-10T09:22:21Z</time>
      </trkpt>
      <trkpt lat="48.62739" lon="-4.17657">
        <ele>66.2</ele>
        <time>2020-06-10T09:22:22Z</time>
      </trkpt>
      <trkpt lat="48.62741" lon="-4.17648">
        <ele>66.1</ele>
        <time>2020-06-10T09:22:23Z</time>
      </trkpt>
      <trkpt lat="48.62743" lon="-4.17639">
        <ele>65.9</ele>
        <time>2020-06-10T09:22:24Z</time>
      </trkpt>
      <trkpt lat="48.62744" lon="-4.17629">
        <ele>65.7</ele>
        <time>2020-06-10T09:22:25Z</time>
      </trkpt>
      <trkpt lat="48.62746" lon="-4.17619">
        <ele>65.5</ele>
        <time>2020-06-10T09:22:26Z</time>
      </trkpt>
      <trkpt lat="48.62748" lon="-4.17609">
        <ele>65.3</ele>
        <time>2020-06-10T09:22:27Z</time>
      </trkpt>
      <trkpt lat="48.6275" lon="-4.17598">
        <ele>65</ele>
        <time>2020-06-10T09:22:28Z</time>
      </trkpt>
      <trkpt lat="48.62753" lon="-4.17587">
        <ele>64.7</ele>
        <time>2020-06-10T09:22:29Z</time>
      </trkpt>
      <trkpt lat="48.62755" lon="-4.17577">
        <ele>64.3</ele>
        <time>2020-06-10T09:22:30Z</time>
      </trkpt>
      <trkpt lat="48.6276" lon="-4.17567">
        <ele>64</ele>
        <time>2020-06-10T09:22:31Z</time>
      </trkpt>
      <trkpt lat="48.62765" lon="-4.17558">
        <ele>63.6</ele>
        <time>2020-06-10T09:22:32Z</time>
      </trkpt>
      <trkpt lat="48.62772" lon="-4.17551">
        <ele>63.2</ele>
        <time>2020-06-10T09:22:33Z</time>
      </trkpt>
      <trkpt lat="48.62779" lon="-4.17544">
        <ele>62.8</ele>
        <time>2020-06-10T09:22:34Z</time>
      </trkpt>
      <trkpt lat="48.62787" lon="-4.17538">
        <ele>62.4</ele>
        <time>2020-06-10T09:22:35Z</time>
      </trkpt>
      <trkpt lat="48.62795" lon="-4.17532">
        <ele>61.9</ele>
        <time>2020-06-10T09:22:36Z</time>
      </trkpt>
      <trkpt lat="48.62804" lon="-4.17527">
        <ele>61.4</ele>
        <time>2020-06-10T09:22:37Z</time>
      </trkpt>
      <trkpt lat="48.62812" lon="-4.17521">
        <ele>60.6</ele>
        <time>2020-06-10T09:22:38Z</time>
      </trkpt>
      <trkpt lat="48.62821" lon="-4.17515">
        <ele>60</ele>
        <time>2020-06-10T09:22:39Z</time>
      </trkpt>
      <trkpt lat="48.62831" lon="-4.17508">
        <ele>59.4</ele>
        <time>2020-06-10T09:22:40Z</time>
      </trkpt>
      <trkpt lat="48.6284" lon="-4.17501">
        <ele>59</ele>
        <time>2020-06-10T09:22:41Z</time>
      </trkpt>
      <trkpt lat="48.62848" lon="-4.17493">
        <ele>58.6</ele>
        <time>2020-06-10T09:22:42Z</time>
      </trkpt>
      <trkpt lat="48.62857" lon="-4.17484">
        <ele>58.3</ele>
        <time>2020-06-10T09:22:43Z</time>
      </trkpt>
      <trkpt lat="48.62865" lon="-4.17474">
        <ele>58</ele>
        <time>2020-06-10T09:22:44Z</time>
      </trkpt>
      <trkpt lat="48.62873" lon="-4.17464">
        <ele>57.7</ele>
        <time>2020-06-10T09:22:45Z</time>
      </trkpt>
      <trkpt lat="48.6288" lon="-4.17452">
        <ele>57.6</ele>
        <time>2020-06-10T09:22:46Z</time>
      </trkpt>
      <trkpt lat="48.62885" lon="-4.1744">
        <ele>57.5</ele>
        <time>2020-06-10T09:22:47Z</time>
      </trkpt>
      <trkpt lat="48.62891" lon="-4.17428">
        <ele>57.6</ele>
        <time>2020-06-10T09:22:48Z</time>
      </trkpt>
      <trkpt lat="48.62896" lon="-4.17416">
        <ele>57.7</ele>
        <time>2020-06-10T09:22:49Z</time>
      </trkpt>
      <trkpt lat="48.62901" lon="-4.17404">
        <ele>57.9</ele>
        <time>2020-06-10T09:22:50Z</time>
      </trkpt>
      <trkpt lat="48.62906" lon="-4.17391">
        <ele>58.1</ele>
        <time>2020-06-10T09:22:51Z</time>
      </trkpt>
      <trkpt lat="48.62911" lon="-4.17379">
        <ele>58.4</ele>
        <time>2020-06-10T09:22:52Z</time>
      </trkpt>
      <trkpt lat="48.62916" lon="-4.17368">
        <ele>58.7</ele>
        <time>2020-06-10T09:22:53Z</time>
      </trkpt>
      <trkpt lat="48.6292" lon="-4.17357">
        <ele>59.1</ele>
        <time>2020-06-10T09:22:54Z</time>
      </trkpt>
      <trkpt lat="48.62925" lon="-4.17347">
        <ele>59.4</ele>
        <time>2020-06-10T09:22:55Z</time>
      </trkpt>
      <trkpt lat="48.6293" lon="-4.17337">
        <ele>59.8</ele>
        <time>2020-06-10T09:22:56Z</time>
      </trkpt>
      <trkpt lat="48.62934" lon="-4.17327">
        <ele>60.1</ele>
        <time>2020-06-10T09:22:57Z</time>
      </trkpt>
      <trkpt lat="48.62938" lon="-4.17318">
        <ele>60.5</ele>
        <time>2020-06-10T09:22:58Z</time>
      </trkpt>
      <trkpt lat="48.62942" lon="-4.17309">
        <ele>60.9</ele>
        <time>2020-06-10T09:22:59Z</time>
      </trkpt>
      <trkpt lat="48.62946" lon="-4.173">
        <ele>61.2</ele>
        <time>2020-06-10T09:23:00Z</time>
      </trkpt>
      <trkpt lat="48.6295" lon="-4.17291">
        <ele>61.5</ele>
        <time>2020-06-10T09:23:01Z</time>
      </trkpt>
      <trkpt lat="48.62954" lon="-4.17283">
        <ele>61.8</ele>
        <time>2020-06-10T09:23:02Z</time>
      </trkpt>
      <trkpt lat="48.62957" lon="-4.17275">
        <ele>62.1</ele>
        <time>2020-06-10T09:23:03Z</time>
      </trkpt>
      <trkpt lat="48.62961" lon="-4.17267">
        <ele>62.2</ele>
        <time>2020-06-10T09:23:04Z</time>
      </trkpt>
      <trkpt lat="48.62964" lon="-4.1726">
        <ele>62.4</ele>
        <time>2020-06-10T09:23:05Z</time>
      </trkpt>
      <trkpt lat="48.62968" lon="-4.17252">
        <ele>62.6</ele>
        <time>2020-06-10T09:23:06Z</time>
      </trkpt>
      <trkpt lat="48.62971" lon="-4.17245">
        <ele>62.8</ele>
        <time>2020-06-10T09:23:07Z</time>
      </trkpt>
      <trkpt lat="48.62974" lon="-4.17237">
        <ele>62.9</ele>
        <time>2020-06-10T09:23:08Z</time>
      </trkpt>
      <trkpt lat="48.62977" lon="-4.1723">
        <ele>63.1</ele>
        <time>2020-06-10T09:23:09Z</time>
      </trkpt>
      <trkpt lat="48.6298" lon="-4.17222">
        <ele>63.3</ele>
        <time>2020-06-10T09:23:10Z</time>
      </trkpt>
      <trkpt lat="48.62983" lon="-4.17214">
        <ele>63.5</ele>
        <time>2020-06-10T09:23:11Z</time>
      </trkpt>
      <trkpt lat="48.62985" lon="-4.17206">
        <ele>63.7</ele>
        <time>2020-06-10T09:23:12Z</time>
      </trkpt>
      <trkpt lat="48.62987" lon="-4.17198">
        <ele>64</ele>
        <time>2020-06-10T09:23:13Z</time>
      </trkpt>
      <trkpt lat="48.62989" lon="-4.17191">
        <ele>64.2</ele>
        <time>2020-06-10T09:23:14Z</time>
      </trkpt>
      <trkpt lat="48.62992" lon="-4.17184">
        <ele>64.4</ele>
        <time>2020-06-10T09:23:15Z</time>
      </trkpt>
      <trkpt lat="48.62994" lon="-4.17178">
        <ele>64.6</ele>
        <time>2020-06-10T09:23:16Z</time>
      </trkpt>
      <trkpt lat="48.62996" lon="-4.17172">
        <ele>64.8</ele>
        <time>2020-06-10T09:23:17Z</time>
      </trkpt>
      <trkpt lat="48.62998" lon="-4.17166">
        <ele>64.9</ele>
        <time>2020-06-10T09:23:18Z</time>
      </trkpt>
      <trkpt lat="48.63" lon="-4.1716">
        <ele>65.1</ele>
        <time>2020-06-10T09:23:19Z</time>
      </trkpt>
      <trkpt lat="48.63001" lon="-4.17154">
        <ele>65.2</ele>
        <time>2020-06-10T09:23:20Z</time>
      </trkpt>
      <trkpt lat="48.63002" lon="-4.17148">
        <ele>65.3</ele>
        <time>2020-06-10T09:23:21Z</time>
      </trkpt>
      <trkpt lat="48.63004" lon="-4.1714">
        <ele>65.4</ele>
        <time>2020-06-10T09:23:22Z</time>
      </trkpt>
      <trkpt lat="48.63005" lon="-4.17134">
        <ele>65.5</ele>
        <time>2020-06-10T09:23:23Z</time>
      </trkpt>
      <trkpt lat="48.63005" lon="-4.17127">
        <ele>65.7</ele>
        <time>2020-06-10T09:23:24Z</time>
      </trkpt>
      <trkpt lat="48.63006" lon="-4.1712">
        <ele>65.8</ele>
        <time>2020-06-10T09:23:25Z</time>
      </trkpt>
      <trkpt lat="48.63006" lon="-4.17115">
        <ele>65.9</ele>
        <time>2020-06-10T09:23:26Z</time>
      </trkpt>
      <trkpt lat="48.63005" lon="-4.17108">
        <ele>66</ele>
        <time>2020-06-10T09:23:27Z</time>
      </trkpt>
      <trkpt lat="48.63004" lon="-4.17101">
        <ele>66.1</ele>
        <time>2020-06-10T09:23:28Z</time>
      </trkpt>
      <trkpt lat="48.63004" lon="-4.17095">
        <ele>66.2</ele>
        <time>2020-06-10T09:23:29Z</time>
      </trkpt>
      <trkpt lat="48.63004" lon="-4.17088">
        <ele>66.3</ele>
        <time>2020-06-10T09:23:30Z</time>
      </trkpt>
      <trkpt lat="48.63004" lon="-4.17082">
        <ele>66.4</ele>
        <time>2020-06-10T09:23:31Z</time>
      </trkpt>
      <trkpt lat="48.63004" lon="-4.17075">
        <ele>66.5</ele>
        <time>2020-06-10T09:23:32Z</time>
      </trkpt>
      <trkpt lat="48.63004" lon="-4.17066">
        <ele>66.6</ele>
        <time>2020-06-10T09:23:33Z</time>
      </trkpt>
      <trkpt lat="48.63004" lon="-4.17059">
        <ele>66.7</ele>
        <time>2020-06-10T09:23:34Z</time>
      </trkpt>
      <trkpt lat="48.63003" lon="-4.17052">
        <ele>66.8</ele>
        <time>2020-06-10T09:23:35Z</time>
      </trkpt>
      <trkpt lat="48.63003" lon="-4.17044">
        <ele>66.9</ele>
        <time>2020-06-10T09:23:36Z</time>
      </trkpt>
      <trkpt lat="48.63002" lon="-4.17038">
        <ele>67</ele>
        <time>2020-06-10T09:23:37Z</time>
      </trkpt>
      <trkpt lat="48.63001" lon="-4.17031">
        <ele>67.1</ele>
        <time>2020-06-10T09:23:38Z</time>
      </trkpt>
      <trkpt lat="48.63" lon="-4.17025">
        <ele>67.2</ele>
        <time>2020-06-10T09:23:39Z</time>
      </trkpt>
      <trkpt lat="48.63" lon="-4.17018">
        <ele>67.3</ele>
        <time>2020-06-10T09:23:40Z</time>
      </trkpt>
      <trkpt lat="48.62999" lon="-4.17012">
        <ele>67.4</ele>
        <time>2020-06-10T09:23:41Z</time>
      </trkpt>
      <trkpt lat="48.62999" lon="-4.17005">
        <ele>67.5</ele>
        <time>2020-06-10T09:23:42Z</time>
      </trkpt>
      <trkpt lat="48.63" lon="-4.16999">
        <ele>67.6</ele>
        <time>2020-06-10T09:23:43Z</time>
      </trkpt>
      <trkpt lat="48.63" lon="-4.16993">
        <ele>67.7</ele>
        <time>2020-06-10T09:23:44Z</time>
      </trkpt>
      <trkpt lat="48.62998" lon="-4.16985">
        <ele>67.9</ele>
        <time>2020-06-10T09:23:45Z</time>
      </trkpt>
      <trkpt lat="48.62997" lon="-4.1698">
        <ele>68</ele>
        <time>2020-06-10T09:23:46Z</time>
      </trkpt>
      <trkpt lat="48.62997" lon="-4.16974">
        <ele>68.1</ele>
        <time>2020-06-10T09:23:47Z</time>
      </trkpt>
      <trkpt lat="48.62996" lon="-4.16969">
        <ele>68.2</ele>
        <time>2020-06-10T09:23:48Z</time>
      </trkpt>
      <trkpt lat="48.62995" lon="-4.16964">
        <ele>68.3</ele>
        <time>2020-06-10T09:23:49Z</time>
      </trkpt>
      <trkpt lat="48.62994" lon="-4.16962">
        <ele>68.4</ele>
        <time>2020-06-10T09:23:50Z</time>
      </trkpt>
      <trkpt lat="48.62991" lon="-4.16963">
        <ele>68.3</ele>
        <time>2020-06-10T09:23:51Z</time>
      </trkpt>
      <trkpt lat="48.6299" lon="-4.16962">
        <ele>68.3</ele>
        <time>2020-06-10T09:23:52Z</time>
      </trkpt>
      <trkpt lat="48.62989" lon="-4.16962">
        <ele>68.3</ele>
        <time>2020-06-10T09:23:53Z</time>
      </trkpt>
      <trkpt lat="48.62989" lon="-4.16962">
        <ele>68.2</ele>
        <time>2020-06-10T09:23:54Z</time>
      </trkpt>
      <trkpt lat="48.62989" lon="-4.16962">
        <ele>68.2</ele>
        <time>2020-06-10T09:23:55Z</time>
      </trkpt>
      <trkpt lat="48.62988" lon="-4.16961">
        <ele>68.2</ele>
        <time>2020-06-10T09:23:56Z</time>
      </trkpt>
      <trkpt lat="48.62988" lon="-4.16961">
        <ele>68.2</ele>
        <time>2020-06-10T09:23:57Z</time>
      </trkpt>
      <trkpt lat="48.62989" lon="-4.16962">
        <ele>68.2</ele>
        <time>2020-06-10T09:23:58Z</time>
      </trkpt>
      <trkpt lat="48.62988" lon="-4.1696">
        <ele>68.2</ele>
        <time>2020-06-10T09:23:59Z</time>
      </trkpt>
      <trkpt lat="48.62987" lon="-4.1696">
        <ele>68.2</ele>
        <time>2020-06-10T09:24:00Z</time>
      </trkpt>
      <trkpt lat="48.62987" lon="-4.16959">
        <ele>68.2</ele>
        <time>2020-06-10T09:24:01Z</time>
      </trkpt>
      <trkpt lat="48.62986" lon="-4.16959">
        <ele>68.2</ele>
        <time>2020-06-10T09:24:02Z</time>
      </trkpt>
      <trkpt lat="48.62985" lon="-4.16959">
        <ele>68.1</ele>
        <time>2020-06-10T09:24:03Z</time>
      </trkpt>
      <trkpt lat="48.62984" lon="-4.16959">
        <ele>68.1</ele>
        <time>2020-06-10T09:24:04Z</time>
      </trkpt>
      <trkpt lat="48.62983" lon="-4.16959">
        <ele>68.1</ele>
        <time>2020-06-10T09:24:05Z</time>
      </trkpt>
      <trkpt lat="48.62982" lon="-4.16959">
        <ele>68.1</ele>
        <time>2020-06-10T09:24:06Z</time>
      </trkpt>
      <trkpt lat="48.62981" lon="-4.16959">
        <ele>68.1</ele>
        <time>2020-06-10T09:24:07Z</time>
      </trkpt>
      <trkpt lat="48.6298" lon="-4.16958">
        <ele>68</ele>
        <time>2020-06-10T09:24:08Z</time>
      </trkpt>
      <trkpt lat="48.62979" lon="-4.16958">
        <ele>68</ele>
        <time>2020-06-10T09:24:09Z</time>
      </trkpt>
      <trkpt lat="48.62978" lon="-4.16958">
        <ele>68</ele>
        <time>2020-06-10T09:24:10Z</time>
      </trkpt>
      <trkpt lat="48.62977" lon="-4.16958">
        <ele>68</ele>
        <time>2020-06-10T09:24:11Z</time>
      </trkpt>
      <trkpt lat="48.62975" lon="-4.16958">
        <ele>68</ele>
        <time>2020-06-10T09:24:12Z</time>
      </trkpt>
      <trkpt lat="48.62974" lon="-4.16958">
        <ele>68</ele>
        <time>2020-06-10T09:24:13Z</time>
      </trkpt>
      <trkpt lat="48.62973" lon="-4.16958">
        <ele>68</ele>
        <time>2020-06-10T09:24:14Z</time>
      </trkpt>
      <trkpt lat="48.62972" lon="-4.16957">
        <ele>68</ele>
        <time>2020-06-10T09:25:13Z</time>
      </trkpt>
      <trkpt lat="48.62971" lon="-4.16957">
        <ele>68</ele>
        <time>2020-06-10T09:25:14Z</time>
      </trkpt>
      <trkpt lat="48.62967" lon="-4.16957">
        <ele>67.9</ele>
        <time>2020-06-10T09:25:15Z</time>
      </trkpt>
      <trkpt lat="48.62962" lon="-4.16957">
        <ele>67.9</ele>
        <time>2020-06-10T09:25:16Z</time>
      </trkpt>
      <trkpt lat="48.62958" lon="-4.16956">
        <ele>68</ele>
        <time>2020-06-10T09:25:17Z</time>
      </trkpt>
      <trkpt lat="48.62954" lon="-4.16956">
        <ele>68</ele>
        <time>2020-06-10T09:25:18Z</time>
      </trkpt>
      <trkpt lat="48.62949" lon="-4.16956">
        <ele>68</ele>
        <time>2020-06-10T09:25:19Z</time>
      </trkpt>
      <trkpt lat="48.62944" lon="-4.16955">
        <ele>68</ele>
        <time>2020-06-10T09:25:20Z</time>
      </trkpt>
      <trkpt lat="48.6294" lon="-4.16954">
        <ele>68.1</ele>
        <time>2020-06-10T09:25:21Z</time>
      </trkpt>
      <trkpt lat="48.62934" lon="-4.16953">
        <ele>68.1</ele>
        <time>2020-06-10T09:25:22Z</time>
      </trkpt>
      <trkpt lat="48.62929" lon="-4.16951">
        <ele>68.2</ele>
        <time>2020-06-10T09:25:23Z</time>
      </trkpt>
      <trkpt lat="48.62922" lon="-4.16951">
        <ele>68.3</ele>
        <time>2020-06-10T09:25:24Z</time>
      </trkpt>
      <trkpt lat="48.62915" lon="-4.1695">
        <ele>68.4</ele>
        <time>2020-06-10T09:25:25Z</time>
      </trkpt>
      <trkpt lat="48.62908" lon="-4.16949">
        <ele>68.5</ele>
        <time>2020-06-10T09:25:26Z</time>
      </trkpt>
      <trkpt lat="48.62904" lon="-4.16946">
        <ele>68.6</ele>
        <time>2020-06-10T09:25:27Z</time>
      </trkpt>
      <trkpt lat="48.62898" lon="-4.16944">
        <ele>68.6</ele>
        <time>2020-06-10T09:25:28Z</time>
      </trkpt>
      <trkpt lat="48.62893" lon="-4.16941">
        <ele>68.7</ele>
        <time>2020-06-10T09:25:29Z</time>
      </trkpt>
      <trkpt lat="48.62888" lon="-4.16938">
        <ele>68.8</ele>
        <time>2020-06-10T09:25:30Z</time>
      </trkpt>
      <trkpt lat="48.62882" lon="-4.16937">
        <ele>68.8</ele>
        <time>2020-06-10T09:25:31Z</time>
      </trkpt>
      <trkpt lat="48.62875" lon="-4.16935">
        <ele>68.9</ele>
        <time>2020-06-10T09:25:32Z</time>
      </trkpt>
      <trkpt lat="48.62869" lon="-4.16935">
        <ele>69</ele>
        <time>2020-06-10T09:25:33Z</time>
      </trkpt>
      <trkpt lat="48.62863" lon="-4.16934">
        <ele>69.1</ele>
        <time>2020-06-10T09:25:34Z</time>
      </trkpt>
      <trkpt lat="48.62858" lon="-4.16933">
        <ele>69.2</ele>
        <time>2020-06-10T09:25:35Z</time>
      </trkpt>
      <trkpt lat="48.62854" lon="-4.16934">
        <ele>69.3</ele>
        <time>2020-06-10T09:25:36Z</time>
      </trkpt>
      <trkpt lat="48.62847" lon="-4.16932">
        <ele>69.4</ele>
        <time>2020-06-10T09:25:37Z</time>
      </trkpt>
      <trkpt lat="48.62841" lon="-4.16928">
        <ele>69.5</ele>
        <time>2020-06-10T09:25:38Z</time>
      </trkpt>
      <trkpt lat="48.62834" lon="-4.16924">
        <ele>69.6</ele>
        <time>2020-06-10T09:25:39Z</time>
      </trkpt>
      <trkpt lat="48.62828" lon="-4.16919">
        <ele>69.6</ele>
        <time>2020-06-10T09:25:40Z</time>
      </trkpt>
      <trkpt lat="48.62824" lon="-4.16917">
        <ele>69.6</ele>
        <time>2020-06-10T09:25:41Z</time>
      </trkpt>
      <trkpt lat="48.62819" lon="-4.16913">
        <ele>69.7</ele>
        <time>2020-06-10T09:25:42Z</time>
      </trkpt>
      <trkpt lat="48.62813" lon="-4.16909">
        <ele>69.7</ele>
        <time>2020-06-10T09:25:43Z</time>
      </trkpt>
      <trkpt lat="48.62807" lon="-4.16906">
        <ele>69.7</ele>
        <time>2020-06-10T09:25:44Z</time>
      </trkpt>
      <trkpt lat="48.62801" lon="-4.16901">
        <ele>69.8</ele>
        <time>2020-06-10T09:25:45Z</time>
      </trkpt>
      <trkpt lat="48.62795" lon="-4.16897">
        <ele>69.8</ele>
        <time>2020-06-10T09:25:46Z</time>
      </trkpt>
      <trkpt lat="48.62789" lon="-4.16894">
        <ele>69.9</ele>
        <time>2020-06-10T09:25:47Z</time>
      </trkpt>
      <trkpt lat="48.62784" lon="-4.16892">
        <ele>69.9</ele>
        <time>2020-06-10T09:25:48Z</time>
      </trkpt>
      <trkpt lat="48.62779" lon="-4.16889">
        <ele>69.9</ele>
        <time>2020-06-10T09:25:49Z</time>
      </trkpt>
      <trkpt lat="48.62773" lon="-4.16884">
        <ele>69.9</ele>
        <time>2020-06-10T09:25:50Z</time>
      </trkpt>
      <trkpt lat="48.62768" lon="-4.1688">
        <ele>70</ele>
        <time>2020-06-10T09:25:51Z</time>
      </trkpt>
      <trkpt lat="48.62763" lon="-4.16875">
        <ele>70</ele>
        <time>2020-06-10T09:25:52Z</time>
      </trkpt>
      <trkpt lat="48.62756" lon="-4.16871">
        <ele>70</ele>
        <time>2020-06-10T09:25:53Z</time>
      </trkpt>
      <trkpt lat="48.62751" lon="-4.16866">
        <ele>70</ele>
        <time>2020-06-10T09:25:54Z</time>
      </trkpt>
      <trkpt lat="48.62747" lon="-4.16862">
        <ele>70</ele>
        <time>2020-06-10T09:25:55Z</time>
      </trkpt>
      <trkpt lat="48.62741" lon="-4.16857">
        <ele>70</ele>
        <time>2020-06-10T09:25:56Z</time>
      </trkpt>
      <trkpt lat="48.62737" lon="-4.16853">
        <ele>70.1</ele>
        <time>2020-06-10T09:25:57Z</time>
      </trkpt>
      <trkpt lat="48.62732" lon="-4.16849">
        <ele>70.1</ele>
        <time>2020-06-10T09:25:58Z</time>
      </trkpt>
      <trkpt lat="48.62727" lon="-4.16845">
        <ele>70.1</ele>
        <time>2020-06-10T09:25:59Z</time>
      </trkpt>
      <trkpt lat="48.62722" lon="-4.16841">
        <ele>70.1</ele>
        <time>2020-06-10T09:26:00Z</time>
      </trkpt>
      <trkpt lat="48.62717" lon="-4.16837">
        <ele>70.1</ele>
        <time>2020-06-10T09:26:01Z</time>
      </trkpt>
      <trkpt lat="48.62711" lon="-4.16832">
        <ele>70.2</ele>
        <time>2020-06-10T09:26:02Z</time>
      </trkpt>
      <trkpt lat="48.62706" lon="-4.16827">
        <ele>70.2</ele>
        <time>2020-06-10T09:26:03Z</time>
      </trkpt>
      <trkpt lat="48.627" lon="-4.16822">
        <ele>70.2</ele>
        <time>2020-06-10T09:26:04Z</time>
      </trkpt>
      <trkpt lat="48.62694" lon="-4.16818">
        <ele>70.3</ele>
        <time>2020-06-10T09:26:05Z</time>
      </trkpt>
      <trkpt lat="48.62688" lon="-4.16813">
        <ele>70.3</ele>
        <time>2020-06-10T09:26:06Z</time>
      </trkpt>
      <trkpt lat="48.62683" lon="-4.16808">
        <ele>70.3</ele>
        <time>2020-06-10T09:26:07Z</time>
      </trkpt>
      <trkpt lat="48.62676" lon="-4.16803">
        <ele>70.4</ele>
        <time>2020-06-10T09:26:08Z</time>
      </trkpt>
      <trkpt lat="48.62671" lon="-4.16797">
        <ele>70.4</ele>
        <time>2020-06-10T09:26:09Z</time>
      </trkpt>
      <trkpt lat="48.62666" lon="-4.16793">
        <ele>70.4</ele>
        <time>2020-06-10T09:26:10Z</time>
      </trkpt>
      <trkpt lat="48.62661" lon="-4.16788">
        <ele>70.4</ele>
        <time>2020-06-10T09:26:11Z</time>
      </trkpt>
      <trkpt lat="48.62656" lon="-4.16783">
        <ele>70.4</ele>
        <time>2020-06-10T09:26:12Z</time>
      </trkpt>
      <trkpt lat="48.62651" lon="-4.16778">
        <ele>70.5</ele>
        <time>2020-06-10T09:26:13Z</time>
      </trkpt>
      <trkpt lat="48.62648" lon="-4.16775">
        <ele>70.5</ele>
        <time>2020-06-10T09:26:14Z</time>
      </trkpt>
      <trkpt lat="48.62644" lon="-4.16772">
        <ele>70.5</ele>
        <time>2020-06-10T09:26:15Z</time>
      </trkpt>
      <trkpt lat="48.62639" lon="-4.16767">
        <ele>70.6</ele>
        <time>2020-06-10T09:26:16Z</time>
      </trkpt>
      <trkpt lat="48.62634" lon="-4.16763">
        <ele>70.7</ele>
        <time>2020-06-10T09:26:17Z</time>
      </trkpt>
      <trkpt lat="48.62629" lon="-4.16759">
        <ele>70.8</ele>
        <time>2020-06-10T09:26:18Z</time>
      </trkpt>
      <trkpt lat="48.62624" lon="-4.16754">
        <ele>70.9</ele>
        <time>2020-06-10T09:26:19Z</time>
      </trkpt>
      <trkpt lat="48.62619" lon="-4.1675">
        <ele>71.1</ele>
        <time>2020-06-10T09:26:20Z</time>
      </trkpt>
      <trkpt lat="48.62614" lon="-4.16745">
        <ele>71.2</ele>
        <time>2020-06-10T09:26:21Z</time>
      </trkpt>
      <trkpt lat="48.6261" lon="-4.16743">
        <ele>71.2</ele>
        <time>2020-06-10T09:26:22Z</time>
      </trkpt>
      <trkpt lat="48.62606" lon="-4.16739">
        <ele>71.3</ele>
        <time>2020-06-10T09:26:23Z</time>
      </trkpt>
      <trkpt lat="48.62601" lon="-4.16735">
        <ele>71.3</ele>
        <time>2020-06-10T09:26:24Z</time>
      </trkpt>
      <trkpt lat="48.62597" lon="-4.16732">
        <ele>71.3</ele>
        <time>2020-06-10T09:26:25Z</time>
      </trkpt>
      <trkpt lat="48.62592" lon="-4.16728">
        <ele>71.4</ele>
        <time>2020-06-10T09:26:26Z</time>
      </trkpt>
      <trkpt lat="48.62588" lon="-4.16724">
        <ele>71.4</ele>
        <time>2020-06-10T09:26:27Z</time>
      </trkpt>
      <trkpt lat="48.62582" lon="-4.16721">
        <ele>71.4</ele>
        <time>2020-06-10T09:26:28Z</time>
      </trkpt>
      <trkpt lat="48.62576" lon="-4.16717">
        <ele>71.4</ele>
        <time>2020-06-10T09:26:29Z</time>
      </trkpt>
      <trkpt lat="48.62571" lon="-4.16713">
        <ele>71.4</ele>
        <time>2020-06-10T09:26:30Z</time>
      </trkpt>
      <trkpt lat="48.62566" lon="-4.1671">
        <ele>71.5</ele>
        <time>2020-06-10T09:26:31Z</time>
      </trkpt>
      <trkpt lat="48.62562" lon="-4.16707">
        <ele>71.5</ele>
        <time>2020-06-10T09:26:32Z</time>
      </trkpt>
      <trkpt lat="48.62557" lon="-4.16703">
        <ele>71.5</ele>
        <time>2020-06-10T09:26:33Z</time>
      </trkpt>
      <trkpt lat="48.62553" lon="-4.16699">
        <ele>71.5</ele>
        <time>2020-06-10T09:26:34Z</time>
      </trkpt>
      <trkpt lat="48.62549" lon="-4.16695">
        <ele>71.5</ele>
        <time>2020-06-10T09:26:35Z</time>
      </trkpt>
      <trkpt lat="48.62545" lon="-4.16691">
        <ele>71.6</ele>
        <time>2020-06-10T09:26:36Z</time>
      </trkpt>
      <trkpt lat="48.6254" lon="-4.16687">
        <ele>71.6</ele>
        <time>2020-06-10T09:26:37Z</time>
      </trkpt>
      <trkpt lat="48.62535" lon="-4.16683">
        <ele>71.6</ele>
        <time>2020-06-10T09:26:38Z</time>
      </trkpt>
      <trkpt lat="48.6253" lon="-4.1668">
        <ele>71.6</ele>
        <time>2020-06-10T09:26:39Z</time>
      </trkpt>
      <trkpt lat="48.62525" lon="-4.16677">
        <ele>71.6</ele>
        <time>2020-06-10T09:26:40Z</time>
      </trkpt>
      <trkpt lat="48.6252" lon="-4.16672">
        <ele>71.6</ele>
        <time>2020-06-10T09:26:41Z</time>
      </trkpt>
      <trkpt lat="48.62516" lon="-4.16668">
        <ele>71.7</ele>
        <time>2020-06-10T09:26:42Z</time>
      </trkpt>
      <trkpt lat="48.62511" lon="-4.16663">
        <ele>71.7</ele>
        <time>2020-06-10T09:26:43Z</time>
      </trkpt>
      <trkpt lat="48.62507" lon="-4.1666">
        <ele>71.8</ele>
        <time>2020-06-10T09:26:44Z</time>
      </trkpt>
      <trkpt lat="48.62503" lon="-4.16656">
        <ele>71.8</ele>
        <time>2020-06-10T09:26:45Z</time>
      </trkpt>
      <trkpt lat="48.62498" lon="-4.16653">
        <ele>71.8</ele>
        <time>2020-06-10T09:26:46Z</time>
      </trkpt>
      <trkpt lat="48.62494" lon="-4.16648">
        <ele>71.9</ele>
        <time>2020-06-10T09:26:47Z</time>
      </trkpt>
      <trkpt lat="48.6249" lon="-4.16644">
        <ele>71.9</ele>
        <time>2020-06-10T09:26:48Z</time>
      </trkpt>
      <trkpt lat="48.62486" lon="-4.16638">
        <ele>71.9</ele>
        <time>2020-06-10T09:26:49Z</time>
      </trkpt>
      <trkpt lat="48.62482" lon="-4.16633">
        <ele>71.9</ele>
        <time>2020-06-10T09:26:50Z</time>
      </trkpt>
      <trkpt lat="48.62478" lon="-4.1663">
        <ele>71.9</ele>
        <time>2020-06-10T09:26:51Z</time>
      </trkpt>
      <trkpt lat="48.62473" lon="-4.16625">
        <ele>72</ele>
        <time>2020-06-10T09:26:52Z</time>
      </trkpt>
      <trkpt lat="48.6247" lon="-4.16622">
        <ele>72</ele>
        <time>2020-06-10T09:26:53Z</time>
      </trkpt>
      <trkpt lat="48.62465" lon="-4.16617">
        <ele>72</ele>
        <time>2020-06-10T09:26:54Z</time>
      </trkpt>
      <trkpt lat="48.62461" lon="-4.16613">
        <ele>72.1</ele>
        <time>2020-06-10T09:26:55Z</time>
      </trkpt>
      <trkpt lat="48.62457" lon="-4.16609">
        <ele>72.1</ele>
        <time>2020-06-10T09:26:56Z</time>
      </trkpt>
      <trkpt lat="48.62453" lon="-4.16604">
        <ele>72.2</ele>
        <time>2020-06-10T09:26:57Z</time>
      </trkpt>
      <trkpt lat="48.6245" lon="-4.16602">
        <ele>72.2</ele>
        <time>2020-06-10T09:26:58Z</time>
      </trkpt>
      <trkpt lat="48.62446" lon="-4.16598">
        <ele>72.3</ele>
        <time>2020-06-10T09:26:59Z</time>
      </trkpt>
      <trkpt lat="48.62442" lon="-4.1659">
        <ele>72.5</ele>
        <time>2020-06-10T09:27:00Z</time>
      </trkpt>
      <trkpt lat="48.62437" lon="-4.16585">
        <ele>72.7</ele>
        <time>2020-06-10T09:27:01Z</time>
      </trkpt>
      <trkpt lat="48.62432" lon="-4.16579">
        <ele>72.9</ele>
        <time>2020-06-10T09:27:02Z</time>
      </trkpt>
      <trkpt lat="48.62429" lon="-4.16574">
        <ele>73</ele>
        <time>2020-06-10T09:27:03Z</time>
      </trkpt>
      <trkpt lat="48.62425" lon="-4.1657">
        <ele>73.1</ele>
        <time>2020-06-10T09:27:04Z</time>
      </trkpt>
      <trkpt lat="48.62421" lon="-4.16565">
        <ele>73.2</ele>
        <time>2020-06-10T09:27:05Z</time>
      </trkpt>
      <trkpt lat="48.62417" lon="-4.1656">
        <ele>73.3</ele>
        <time>2020-06-10T09:27:06Z</time>
      </trkpt>
      <trkpt lat="48.62413" lon="-4.16556">
        <ele>73.4</ele>
        <time>2020-06-10T09:27:07Z</time>
      </trkpt>
      <trkpt lat="48.6241" lon="-4.16551">
        <ele>73.5</ele>
        <time>2020-06-10T09:27:08Z</time>
      </trkpt>
      <trkpt lat="48.62405" lon="-4.16547">
        <ele>73.6</ele>
        <time>2020-06-10T09:27:09Z</time>
      </trkpt>
      <trkpt lat="48.624" lon="-4.16543">
        <ele>73.7</ele>
        <time>2020-06-10T09:27:10Z</time>
      </trkpt>
      <trkpt lat="48.62396" lon="-4.16537">
        <ele>73.9</ele>
        <time>2020-06-10T09:27:11Z</time>
      </trkpt>
      <trkpt lat="48.62392" lon="-4.16533">
        <ele>74</ele>
        <time>2020-06-10T09:27:12Z</time>
      </trkpt>
      <trkpt lat="48.62387" lon="-4.16526">
        <ele>74.1</ele>
        <time>2020-06-10T09:27:13Z</time>
      </trkpt>
      <trkpt lat="48.62383" lon="-4.16522">
        <ele>74.2</ele>
        <time>2020-06-10T09:27:14Z</time>
      </trkpt>
      <trkpt lat="48.62379" lon="-4.16516">
        <ele>74.3</ele>
        <time>2020-06-10T09:27:15Z</time>
      </trkpt>
      <trkpt lat="48.62375" lon="-4.16513">
        <ele>74.4</ele>
        <time>2020-06-10T09:27:16Z</time>
      </trkpt>
      <trkpt lat="48.62371" lon="-4.16507">
        <ele>74.5</ele>
        <time>2020-06-10T09:27:17Z</time>
      </trkpt>
      <trkpt lat="48.62367" lon="-4.16503">
        <ele>74.6</ele>
        <time>2020-06-10T09:27:18Z</time>
      </trkpt>
      <trkpt lat="48.62364" lon="-4.16498">
        <ele>74.7</ele>
        <time>2020-06-10T09:27:19Z</time>
      </trkpt>
      <trkpt lat="48.6236" lon="-4.16493">
        <ele>74.8</ele>
        <time>2020-06-10T09:27:20Z</time>
      </trkpt>
      <trkpt lat="48.62357" lon="-4.16488">
        <ele>74.9</ele>
        <time>2020-06-10T09:27:21Z</time>
      </trkpt>
      <trkpt lat="48.62353" lon="-4.16485">
        <ele>75</ele>
        <time>2020-06-10T09:27:22Z</time>
      </trkpt>
      <trkpt lat="48.6235" lon="-4.16481">
        <ele>75.1</ele>
        <time>2020-06-10T09:27:23Z</time>
      </trkpt>
      <trkpt lat="48.62346" lon="-4.16476">
        <ele>75.2</ele>
        <time>2020-06-10T09:27:24Z</time>
      </trkpt>
      <trkpt lat="48.62342" lon="-4.16472">
        <ele>75.3</ele>
        <time>2020-06-10T09:27:25Z</time>
      </trkpt>
      <trkpt lat="48.62337" lon="-4.16467">
        <ele>75.4</ele>
        <time>2020-06-10T09:27:26Z</time>
      </trkpt>
      <trkpt lat="48.62333" lon="-4.16463">
        <ele>75.5</ele>
        <time>2020-06-10T09:27:27Z</time>
      </trkpt>
      <trkpt lat="48.62329" lon="-4.16459">
        <ele>75.6</ele>
        <time>2020-06-10T09:27:28Z</time>
      </trkpt>
      <trkpt lat="48.62325" lon="-4.16454">
        <ele>75.7</ele>
        <time>2020-06-10T09:27:29Z</time>
      </trkpt>
      <trkpt lat="48.62321" lon="-4.1645">
        <ele>75.8</ele>
        <time>2020-06-10T09:27:30Z</time>
      </trkpt>
      <trkpt lat="48.62317" lon="-4.16444">
        <ele>75.9</ele>
        <time>2020-06-10T09:27:31Z</time>
      </trkpt>
      <trkpt lat="48.62314" lon="-4.1644">
        <ele>76</ele>
        <time>2020-06-10T09:27:32Z</time>
      </trkpt>
      <trkpt lat="48.62311" lon="-4.16437">
        <ele>76.1</ele>
        <time>2020-06-10T09:27:33Z</time>
      </trkpt>
      <trkpt lat="48.62308" lon="-4.16433">
        <ele>76.1</ele>
        <time>2020-06-10T09:27:34Z</time>
      </trkpt>
      <trkpt lat="48.62306" lon="-4.1643">
        <ele>76.2</ele>
        <time>2020-06-10T09:27:35Z</time>
      </trkpt>
      <trkpt lat="48.62304" lon="-4.16427">
        <ele>76.3</ele>
        <time>2020-06-10T09:27:36Z</time>
      </trkpt>
      <trkpt lat="48.62303" lon="-4.16427">
        <ele>76.3</ele>
        <time>2020-06-10T09:27:37Z</time>
      </trkpt>
      <trkpt lat="48.62303" lon="-4.16427">
        <ele>76.3</ele>
        <time>2020-06-10T09:27:38Z</time>
      </trkpt>
      <trkpt lat="48.62303" lon="-4.16426">
        <ele>76.3</ele>
        <time>2020-06-10T09:27:39Z</time>
      </trkpt>
      <trkpt lat="48.62301" lon="-4.16424">
        <ele>76.3</ele>
        <time>2020-06-10T09:27:40Z</time>
      </trkpt>
      <trkpt lat="48.62301" lon="-4.16424">
        <ele>76.4</ele>
        <time>2020-06-10T09:27:41Z</time>
      </trkpt>
      <trkpt lat="48.623" lon="-4.16424">
        <ele>76.4</ele>
        <time>2020-06-10T09:27:42Z</time>
      </trkpt>
      <trkpt lat="48.623" lon="-4.16423">
        <ele>76.4</ele>
        <time>2020-06-10T09:27:43Z</time>
      </trkpt>
      <trkpt lat="48.62297" lon="-4.16421">
        <ele>76.5</ele>
        <time>2020-06-10T09:27:44Z</time>
      </trkpt>
      <trkpt lat="48.62296" lon="-4.16421">
        <ele>76.5</ele>
        <time>2020-06-10T09:27:45Z</time>
      </trkpt>
      <trkpt lat="48.62292" lon="-4.16418">
        <ele>76.6</ele>
        <time>2020-06-10T09:27:46Z</time>
      </trkpt>
      <trkpt lat="48.6229" lon="-4.16417">
        <ele>76.6</ele>
        <time>2020-06-10T09:27:47Z</time>
      </trkpt>
      <trkpt lat="48.62287" lon="-4.16414">
        <ele>76.7</ele>
        <time>2020-06-10T09:27:48Z</time>
      </trkpt>
      <trkpt lat="48.62284" lon="-4.16412">
        <ele>76.8</ele>
        <time>2020-06-10T09:27:49Z</time>
      </trkpt>
      <trkpt lat="48.6228" lon="-4.1641">
        <ele>76.9</ele>
        <time>2020-06-10T09:27:50Z</time>
      </trkpt>
      <trkpt lat="48.62279" lon="-4.1641">
        <ele>76.9</ele>
        <time>2020-06-10T09:27:51Z</time>
      </trkpt>
      <trkpt lat="48.62276" lon="-4.16408">
        <ele>77</ele>
        <time>2020-06-10T09:27:52Z</time>
      </trkpt>
      <trkpt lat="48.62273" lon="-4.16405">
        <ele>77</ele>
        <time>2020-06-10T09:27:53Z</time>
      </trkpt>
      <trkpt lat="48.6227" lon="-4.16401">
        <ele>77.1</ele>
        <time>2020-06-10T09:27:54Z</time>
      </trkpt>
      <trkpt lat="48.62266" lon="-4.16397">
        <ele>77.1</ele>
        <time>2020-06-10T09:27:55Z</time>
      </trkpt>
      <trkpt lat="48.62263" lon="-4.16394">
        <ele>77.1</ele>
        <time>2020-06-10T09:27:56Z</time>
      </trkpt>
      <trkpt lat="48.62259" lon="-4.1639">
        <ele>77.1</ele>
        <time>2020-06-10T09:27:57Z</time>
      </trkpt>
      <trkpt lat="48.62256" lon="-4.16386">
        <ele>77.2</ele>
        <time>2020-06-10T09:27:58Z</time>
      </trkpt>
      <trkpt lat="48.62252" lon="-4.16383">
        <ele>77.2</ele>
        <time>2020-06-10T09:27:59Z</time>
      </trkpt>
      <trkpt lat="48.62249" lon="-4.1638">
        <ele>77.2</ele>
        <time>2020-06-10T09:28:00Z</time>
      </trkpt>
      <trkpt lat="48.62246" lon="-4.16376">
        <ele>77.2</ele>
        <time>2020-06-10T09:28:01Z</time>
      </trkpt>
      <trkpt lat="48.62243" lon="-4.16372">
        <ele>77.3</ele>
        <time>2020-06-10T09:28:02Z</time>
      </trkpt>
      <trkpt lat="48.62239" lon="-4.1637">
        <ele>77.3</ele>
        <time>2020-06-10T09:28:03Z</time>
      </trkpt>
      <trkpt lat="48.62236" lon="-4.16367">
        <ele>77.3</ele>
        <time>2020-06-10T09:28:04Z</time>
      </trkpt>
      <trkpt lat="48.62233" lon="-4.16365">
        <ele>77.4</ele>
        <time>2020-06-10T09:28:05Z</time>
      </trkpt>
      <trkpt lat="48.62229" lon="-4.16362">
        <ele>77.4</ele>
        <time>2020-06-10T09:28:06Z</time>
      </trkpt>
      <trkpt lat="48.62226" lon="-4.16359">
        <ele>77.4</ele>
        <time>2020-06-10T09:28:07Z</time>
      </trkpt>
      <trkpt lat="48.62223" lon="-4.16356">
        <ele>77.4</ele>
        <time>2020-06-10T09:28:08Z</time>
      </trkpt>
      <trkpt lat="48.62219" lon="-4.16351">
        <ele>77.5</ele>
        <time>2020-06-10T09:28:09Z</time>
      </trkpt>
      <trkpt lat="48.62216" lon="-4.16349">
        <ele>77.5</ele>
        <time>2020-06-10T09:28:10Z</time>
      </trkpt>
      <trkpt lat="48.62213" lon="-4.16347">
        <ele>77.5</ele>
        <time>2020-06-10T09:28:11Z</time>
      </trkpt>
      <trkpt lat="48.62209" lon="-4.16344">
        <ele>77.5</ele>
        <time>2020-06-10T09:28:12Z</time>
      </trkpt>
      <trkpt lat="48.62206" lon="-4.16341">
        <ele>77.5</ele>
        <time>2020-06-10T09:28:13Z</time>
      </trkpt>
      <trkpt lat="48.62203" lon="-4.16339">
        <ele>77.5</ele>
        <time>2020-06-10T09:28:14Z</time>
      </trkpt>
      <trkpt lat="48.62199" lon="-4.16336">
        <ele>77.5</ele>
        <time>2020-06-10T09:28:15Z</time>
      </trkpt>
      <trkpt lat="48.62196" lon="-4.16333">
        <ele>77.5</ele>
        <time>2020-06-10T09:28:16Z</time>
      </trkpt>
      <trkpt lat="48.62192" lon="-4.1633">
        <ele>77.5</ele>
        <time>2020-06-10T09:28:17Z</time>
      </trkpt>
      <trkpt lat="48.62188" lon="-4.16328">
        <ele>77.5</ele>
        <time>2020-06-10T09:28:18Z</time>
      </trkpt>
      <trkpt lat="48.62184" lon="-4.16325">
        <ele>77.5</ele>
        <time>2020-06-10T09:28:19Z</time>
      </trkpt>
      <trkpt lat="48.6218" lon="-4.16322">
        <ele>77.5</ele>
        <time>2020-06-10T09:28:20Z</time>
      </trkpt>
      <trkpt lat="48.62177" lon="-4.16319">
        <ele>77.5</ele>
        <time>2020-06-10T09:28:21Z</time>
      </trkpt>
      <trkpt lat="48.62173" lon="-4.16316">
        <ele>77.5</ele>
        <time>2020-06-10T09:28:22Z</time>
      </trkpt>
      <trkpt lat="48.62169" lon="-4.16313">
        <ele>77.5</ele>
        <time>2020-06-10T09:28:23Z</time>
      </trkpt>
      <trkpt lat="48.62166" lon="-4.1631">
        <ele>77.5</ele>
        <time>2020-06-10T09:28:24Z</time>
      </trkpt>
      <trkpt lat="48.62162" lon="-4.16307">
        <ele>77.4</ele>
        <time>2020-06-10T09:28:25Z</time>
      </trkpt>
      <trkpt lat="48.62159" lon="-4.16305">
        <ele>77.4</ele>
        <time>2020-06-10T09:28:26Z</time>
      </trkpt>
      <trkpt lat="48.62155" lon="-4.16303">
        <ele>77.4</ele>
        <time>2020-06-10T09:28:27Z</time>
      </trkpt>
      <trkpt lat="48.62151" lon="-4.163">
        <ele>77.3</ele>
        <time>2020-06-10T09:28:28Z</time>
      </trkpt>
      <trkpt lat="48.62147" lon="-4.16297">
        <ele>77.3</ele>
        <time>2020-06-10T09:28:29Z</time>
      </trkpt>
      <trkpt lat="48.62143" lon="-4.16295">
        <ele>77.3</ele>
        <time>2020-06-10T09:28:30Z</time>
      </trkpt>
      <trkpt lat="48.62139" lon="-4.16293">
        <ele>77.3</ele>
        <time>2020-06-10T09:28:31Z</time>
      </trkpt>
      <trkpt lat="48.62135" lon="-4.16292">
        <ele>77.3</ele>
        <time>2020-06-10T09:28:32Z</time>
      </trkpt>
      <trkpt lat="48.62131" lon="-4.16289">
        <ele>77.2</ele>
        <time>2020-06-10T09:28:33Z</time>
      </trkpt>
      <trkpt lat="48.62128" lon="-4.16286">
        <ele>77.2</ele>
        <time>2020-06-10T09:28:34Z</time>
      </trkpt>
      <trkpt lat="48.62124" lon="-4.16284">
        <ele>77.2</ele>
        <time>2020-06-10T09:28:35Z</time>
      </trkpt>
      <trkpt lat="48.6212" lon="-4.16282">
        <ele>77.2</ele>
        <time>2020-06-10T09:28:36Z</time>
      </trkpt>
      <trkpt lat="48.62117" lon="-4.1628">
        <ele>77.1</ele>
        <time>2020-06-10T09:28:37Z</time>
      </trkpt>
      <trkpt lat="48.62113" lon="-4.16277">
        <ele>77.1</ele>
        <time>2020-06-10T09:28:38Z</time>
      </trkpt>
      <trkpt lat="48.62109" lon="-4.16274">
        <ele>77</ele>
        <time>2020-06-10T09:28:39Z</time>
      </trkpt>
      <trkpt lat="48.62105" lon="-4.16271">
        <ele>77</ele>
        <time>2020-06-10T09:28:40Z</time>
      </trkpt>
      <trkpt lat="48.62101" lon="-4.16268">
        <ele>76.9</ele>
        <time>2020-06-10T09:28:41Z</time>
      </trkpt>
      <trkpt lat="48.62097" lon="-4.16266">
        <ele>76.8</ele>
        <time>2020-06-10T09:28:42Z</time>
      </trkpt>
      <trkpt lat="48.62093" lon="-4.16262">
        <ele>76.8</ele>
        <time>2020-06-10T09:28:43Z</time>
      </trkpt>
      <trkpt lat="48.62089" lon="-4.16259">
        <ele>76.7</ele>
        <time>2020-06-10T09:28:44Z</time>
      </trkpt>
      <trkpt lat="48.62086" lon="-4.16257">
        <ele>76.6</ele>
        <time>2020-06-10T09:28:45Z</time>
      </trkpt>
      <trkpt lat="48.62081" lon="-4.16255">
        <ele>76.6</ele>
        <time>2020-06-10T09:28:46Z</time>
      </trkpt>
      <trkpt lat="48.62077" lon="-4.16254">
        <ele>76.5</ele>
        <time>2020-06-10T09:28:47Z</time>
      </trkpt>
      <trkpt lat="48.62073" lon="-4.16252">
        <ele>76.4</ele>
        <time>2020-06-10T09:28:48Z</time>
      </trkpt>
      <trkpt lat="48.62069" lon="-4.16249">
        <ele>76.3</ele>
        <time>2020-06-10T09:28:49Z</time>
      </trkpt>
      <trkpt lat="48.62065" lon="-4.16247">
        <ele>76.3</ele>
        <time>2020-06-10T09:28:50Z</time>
      </trkpt>
      <trkpt lat="48.62061" lon="-4.16243">
        <ele>76.2</ele>
        <time>2020-06-10T09:28:51Z</time>
      </trkpt>
      <trkpt lat="48.62057" lon="-4.16241">
        <ele>76.1</ele>
        <time>2020-06-10T09:28:52Z</time>
      </trkpt>
      <trkpt lat="48.62053" lon="-4.16238">
        <ele>76</ele>
        <time>2020-06-10T09:28:53Z</time>
      </trkpt>
      <trkpt lat="48.62048" lon="-4.16234">
        <ele>75.9</ele>
        <time>2020-06-10T09:28:54Z</time>
      </trkpt>
      <trkpt lat="48.62044" lon="-4.1623">
        <ele>75.7</ele>
        <time>2020-06-10T09:28:55Z</time>
      </trkpt>
      <trkpt lat="48.62039" lon="-4.16228">
        <ele>75.6</ele>
        <time>2020-06-10T09:28:56Z</time>
      </trkpt>
      <trkpt lat="48.62035" lon="-4.16225">
        <ele>75.5</ele>
        <time>2020-06-10T09:28:57Z</time>
      </trkpt>
      <trkpt lat="48.6203" lon="-4.16222">
        <ele>75.4</ele>
        <time>2020-06-10T09:28:58Z</time>
      </trkpt>
      <trkpt lat="48.62025" lon="-4.1622">
        <ele>75.2</ele>
        <time>2020-06-10T09:28:59Z</time>
      </trkpt>
      <trkpt lat="48.62021" lon="-4.16217">
        <ele>75.1</ele>
        <time>2020-06-10T09:29:00Z</time>
      </trkpt>
      <trkpt lat="48.62016" lon="-4.16215">
        <ele>75</ele>
        <time>2020-06-10T09:29:01Z</time>
      </trkpt>
      <trkpt lat="48.62012" lon="-4.16212">
        <ele>74.9</ele>
        <time>2020-06-10T09:29:02Z</time>
      </trkpt>
      <trkpt lat="48.62007" lon="-4.1621">
        <ele>74.7</ele>
        <time>2020-06-10T09:29:03Z</time>
      </trkpt>
      <trkpt lat="48.62002" lon="-4.16207">
        <ele>74.6</ele>
        <time>2020-06-10T09:29:04Z</time>
      </trkpt>
      <trkpt lat="48.61998" lon="-4.16205">
        <ele>74.5</ele>
        <time>2020-06-10T09:29:05Z</time>
      </trkpt>
      <trkpt lat="48.61993" lon="-4.16202">
        <ele>74.3</ele>
        <time>2020-06-10T09:29:06Z</time>
      </trkpt>
      <trkpt lat="48.61988" lon="-4.16199">
        <ele>74.2</ele>
        <time>2020-06-10T09:29:07Z</time>
      </trkpt>
      <trkpt lat="48.61983" lon="-4.16196">
        <ele>74.1</ele>
        <time>2020-06-10T09:29:08Z</time>
      </trkpt>
      <trkpt lat="48.61978" lon="-4.16193">
        <ele>73.9</ele>
        <time>2020-06-10T09:29:09Z</time>
      </trkpt>
      <trkpt lat="48.61972" lon="-4.16189">
        <ele>73.8</ele>
        <time>2020-06-10T09:29:10Z</time>
      </trkpt>
      <trkpt lat="48.61967" lon="-4.16186">
        <ele>73.7</ele>
        <time>2020-06-10T09:29:11Z</time>
      </trkpt>
      <trkpt lat="48.61961" lon="-4.16184">
        <ele>73.6</ele>
        <time>2020-06-10T09:29:12Z</time>
      </trkpt>
      <trkpt lat="48.61956" lon="-4.16181">
        <ele>73.5</ele>
        <time>2020-06-10T09:29:13Z</time>
      </trkpt>
      <trkpt lat="48.6195" lon="-4.16178">
        <ele>73.4</ele>
        <time>2020-06-10T09:29:14Z</time>
      </trkpt>
      <trkpt lat="48.61944" lon="-4.16175">
        <ele>73.4</ele>
        <time>2020-06-10T09:29:15Z</time>
      </trkpt>
      <trkpt lat="48.61939" lon="-4.16172">
        <ele>73.3</ele>
        <time>2020-06-10T09:29:16Z</time>
      </trkpt>
      <trkpt lat="48.61934" lon="-4.16168">
        <ele>73.1</ele>
        <time>2020-06-10T09:29:17Z</time>
      </trkpt>
      <trkpt lat="48.61929" lon="-4.16165">
        <ele>73</ele>
        <time>2020-06-10T09:29:18Z</time>
      </trkpt>
      <trkpt lat="48.61923" lon="-4.16163">
        <ele>72.8</ele>
        <time>2020-06-10T09:29:19Z</time>
      </trkpt>
      <trkpt lat="48.61917" lon="-4.16159">
        <ele>72.5</ele>
        <time>2020-06-10T09:29:20Z</time>
      </trkpt>
      <trkpt lat="48.61912" lon="-4.16155">
        <ele>72.3</ele>
        <time>2020-06-10T09:29:21Z</time>
      </trkpt>
      <trkpt lat="48.61906" lon="-4.16152">
        <ele>72.1</ele>
        <time>2020-06-10T09:29:22Z</time>
      </trkpt>
      <trkpt lat="48.619" lon="-4.16148">
        <ele>71.9</ele>
        <time>2020-06-10T09:29:23Z</time>
      </trkpt>
      <trkpt lat="48.61895" lon="-4.16145">
        <ele>71.6</ele>
        <time>2020-06-10T09:29:24Z</time>
      </trkpt>
      <trkpt lat="48.61889" lon="-4.16141">
        <ele>71.3</ele>
        <time>2020-06-10T09:29:25Z</time>
      </trkpt>
      <trkpt lat="48.61883" lon="-4.16136">
        <ele>70.9</ele>
        <time>2020-06-10T09:29:26Z</time>
      </trkpt>
      <trkpt lat="48.61877" lon="-4.16132">
        <ele>70.6</ele>
        <time>2020-06-10T09:29:27Z</time>
      </trkpt>
      <trkpt lat="48.61871" lon="-4.16127">
        <ele>70.3</ele>
        <time>2020-06-10T09:29:28Z</time>
      </trkpt>
      <trkpt lat="48.61864" lon="-4.16122">
        <ele>70</ele>
        <time>2020-06-10T09:29:29Z</time>
      </trkpt>
      <trkpt lat="48.61858" lon="-4.16116">
        <ele>69.7</ele>
        <time>2020-06-10T09:29:30Z</time>
      </trkpt>
      <trkpt lat="48.61852" lon="-4.16111">
        <ele>69.5</ele>
        <time>2020-06-10T09:29:31Z</time>
      </trkpt>
      <trkpt lat="48.61847" lon="-4.16105">
        <ele>69.3</ele>
        <time>2020-06-10T09:29:32Z</time>
      </trkpt>
      <trkpt lat="48.61841" lon="-4.16099">
        <ele>69.1</ele>
        <time>2020-06-10T09:29:33Z</time>
      </trkpt>
      <trkpt lat="48.61836" lon="-4.16093">
        <ele>68.9</ele>
        <time>2020-06-10T09:29:34Z</time>
      </trkpt>
      <trkpt lat="48.6183" lon="-4.16087">
        <ele>68.7</ele>
        <time>2020-06-10T09:29:35Z</time>
      </trkpt>
      <trkpt lat="48.61825" lon="-4.16081">
        <ele>68.5</ele>
        <time>2020-06-10T09:29:36Z</time>
      </trkpt>
      <trkpt lat="48.6182" lon="-4.16075">
        <ele>68.3</ele>
        <time>2020-06-10T09:29:37Z</time>
      </trkpt>
      <trkpt lat="48.61815" lon="-4.1607">
        <ele>68.2</ele>
        <time>2020-06-10T09:29:38Z</time>
      </trkpt>
      <trkpt lat="48.61811" lon="-4.16064">
        <ele>68.2</ele>
        <time>2020-06-10T09:29:39Z</time>
      </trkpt>
      <trkpt lat="48.61806" lon="-4.16058">
        <ele>68.1</ele>
        <time>2020-06-10T09:29:40Z</time>
      </trkpt>
      <trkpt lat="48.61802" lon="-4.16052">
        <ele>68.2</ele>
        <time>2020-06-10T09:29:41Z</time>
      </trkpt>
      <trkpt lat="48.61798" lon="-4.16046">
        <ele>68.2</ele>
        <time>2020-06-10T09:29:42Z</time>
      </trkpt>
      <trkpt lat="48.61793" lon="-4.16041">
        <ele>68.3</ele>
        <time>2020-06-10T09:29:43Z</time>
      </trkpt>
      <trkpt lat="48.61789" lon="-4.16035">
        <ele>68.4</ele>
        <time>2020-06-10T09:29:44Z</time>
      </trkpt>
      <trkpt lat="48.61785" lon="-4.1603">
        <ele>68.5</ele>
        <time>2020-06-10T09:29:45Z</time>
      </trkpt>
      <trkpt lat="48.61782" lon="-4.16024">
        <ele>68.6</ele>
        <time>2020-06-10T09:29:46Z</time>
      </trkpt>
      <trkpt lat="48.61778" lon="-4.16019">
        <ele>68.7</ele>
        <time>2020-06-10T09:29:47Z</time>
      </trkpt>
      <trkpt lat="48.61774" lon="-4.16014">
        <ele>68.8</ele>
        <time>2020-06-10T09:29:48Z</time>
      </trkpt>
      <trkpt lat="48.6177" lon="-4.16008">
        <ele>68.9</ele>
        <time>2020-06-10T09:29:49Z</time>
      </trkpt>
      <trkpt lat="48.61767" lon="-4.16003">
        <ele>69.1</ele>
        <time>2020-06-10T09:29:50Z</time>
      </trkpt>
      <trkpt lat="48.61764" lon="-4.15997">
        <ele>69.2</ele>
        <time>2020-06-10T09:29:51Z</time>
      </trkpt>
      <trkpt lat="48.61761" lon="-4.15991">
        <ele>69.4</ele>
        <time>2020-06-10T09:29:52Z</time>
      </trkpt>
      <trkpt lat="48.61758" lon="-4.15986">
        <ele>69.5</ele>
        <time>2020-06-10T09:29:53Z</time>
      </trkpt>
      <trkpt lat="48.61754" lon="-4.1598">
        <ele>69.6</ele>
        <time>2020-06-10T09:29:54Z</time>
      </trkpt>
      <trkpt lat="48.61751" lon="-4.15976">
        <ele>69.8</ele>
        <time>2020-06-10T09:29:55Z</time>
      </trkpt>
      <trkpt lat="48.61748" lon="-4.1597">
        <ele>69.9</ele>
        <time>2020-06-10T09:29:56Z</time>
      </trkpt>
      <trkpt lat="48.61745" lon="-4.15965">
        <ele>70</ele>
        <time>2020-06-10T09:29:57Z</time>
      </trkpt>
      <trkpt lat="48.61742" lon="-4.1596">
        <ele>70.2</ele>
        <time>2020-06-10T09:29:58Z</time>
      </trkpt>
      <trkpt lat="48.61739" lon="-4.15955">
        <ele>70.3</ele>
        <time>2020-06-10T09:29:59Z</time>
      </trkpt>
      <trkpt lat="48.61736" lon="-4.1595">
        <ele>70.5</ele>
        <time>2020-06-10T09:30:00Z</time>
      </trkpt>
      <trkpt lat="48.61733" lon="-4.15945">
        <ele>70.7</ele>
        <time>2020-06-10T09:30:01Z</time>
      </trkpt>
      <trkpt lat="48.61731" lon="-4.15941">
        <ele>70.8</ele>
        <time>2020-06-10T09:30:02Z</time>
      </trkpt>
      <trkpt lat="48.61728" lon="-4.15936">
        <ele>71</ele>
        <time>2020-06-10T09:30:03Z</time>
      </trkpt>
      <trkpt lat="48.61726" lon="-4.15931">
        <ele>71.2</ele>
        <time>2020-06-10T09:30:04Z</time>
      </trkpt>
      <trkpt lat="48.61724" lon="-4.15925">
        <ele>71.4</ele>
        <time>2020-06-10T09:30:05Z</time>
      </trkpt>
      <trkpt lat="48.61721" lon="-4.1592">
        <ele>71.5</ele>
        <time>2020-06-10T09:30:06Z</time>
      </trkpt>
      <trkpt lat="48.61719" lon="-4.15914">
        <ele>71.7</ele>
        <time>2020-06-10T09:30:07Z</time>
      </trkpt>
      <trkpt lat="48.61716" lon="-4.15909">
        <ele>71.9</ele>
        <time>2020-06-10T09:30:08Z</time>
      </trkpt>
      <trkpt lat="48.61714" lon="-4.15904">
        <ele>72.1</ele>
        <time>2020-06-10T09:30:09Z</time>
      </trkpt>
      <trkpt lat="48.61711" lon="-4.15899">
        <ele>72.2</ele>
        <time>2020-06-10T09:30:10Z</time>
      </trkpt>
      <trkpt lat="48.61708" lon="-4.15894">
        <ele>72.4</ele>
        <time>2020-06-10T09:30:11Z</time>
      </trkpt>
      <trkpt lat="48.61706" lon="-4.15889">
        <ele>72.6</ele>
        <time>2020-06-10T09:30:12Z</time>
      </trkpt>
      <trkpt lat="48.61704" lon="-4.15884">
        <ele>72.7</ele>
        <time>2020-06-10T09:30:13Z</time>
      </trkpt>
      <trkpt lat="48.61701" lon="-4.15879">
        <ele>72.9</ele>
        <time>2020-06-10T09:30:14Z</time>
      </trkpt>
      <trkpt lat="48.61699" lon="-4.15874">
        <ele>73</ele>
        <time>2020-06-10T09:30:15Z</time>
      </trkpt>
      <trkpt lat="48.61696" lon="-4.15869">
        <ele>73.2</ele>
        <time>2020-06-10T09:30:16Z</time>
      </trkpt>
      <trkpt lat="48.61694" lon="-4.15864">
        <ele>73.3</ele>
        <time>2020-06-10T09:30:17Z</time>
      </trkpt>
      <trkpt lat="48.61692" lon="-4.15859">
        <ele>73.4</ele>
        <time>2020-06-10T09:30:18Z</time>
      </trkpt>
      <trkpt lat="48.6169" lon="-4.15854">
        <ele>73.6</ele>
        <time>2020-06-10T09:30:19Z</time>
      </trkpt>
      <trkpt lat="48.61687" lon="-4.1585">
        <ele>73.7</ele>
        <time>2020-06-10T09:30:20Z</time>
      </trkpt>
      <trkpt lat="48.61685" lon="-4.15846">
        <ele>73.8</ele>
        <time>2020-06-10T09:30:21Z</time>
      </trkpt>
      <trkpt lat="48.61682" lon="-4.15841">
        <ele>74</ele>
        <time>2020-06-10T09:30:22Z</time>
      </trkpt>
      <trkpt lat="48.6168" lon="-4.15836">
        <ele>74.1</ele>
        <time>2020-06-10T09:30:23Z</time>
      </trkpt>
      <trkpt lat="48.61678" lon="-4.15831">
        <ele>74.2</ele>
        <time>2020-06-10T09:30:24Z</time>
      </trkpt>
      <trkpt lat="48.61675" lon="-4.15826">
        <ele>74.4</ele>
        <time>2020-06-10T09:30:25Z</time>
      </trkpt>
      <trkpt lat="48.61673" lon="-4.15822">
        <ele>74.5</ele>
        <time>2020-06-10T09:30:26Z</time>
      </trkpt>
      <trkpt lat="48.6167" lon="-4.15818">
        <ele>74.6</ele>
        <time>2020-06-10T09:30:27Z</time>
      </trkpt>
      <trkpt lat="48.61668" lon="-4.15812">
        <ele>74.8</ele>
        <time>2020-06-10T09:30:28Z</time>
      </trkpt>
      <trkpt lat="48.61665" lon="-4.15808">
        <ele>74.9</ele>
        <time>2020-06-10T09:30:29Z</time>
      </trkpt>
      <trkpt lat="48.61663" lon="-4.15802">
        <ele>75</ele>
        <time>2020-06-10T09:30:30Z</time>
      </trkpt>
      <trkpt lat="48.6166" lon="-4.15797">
        <ele>75.2</ele>
        <time>2020-06-10T09:30:31Z</time>
      </trkpt>
      <trkpt lat="48.61657" lon="-4.15792">
        <ele>75.3</ele>
        <time>2020-06-10T09:30:32Z</time>
      </trkpt>
      <trkpt lat="48.61655" lon="-4.15787">
        <ele>75.5</ele>
        <time>2020-06-10T09:30:33Z</time>
      </trkpt>
      <trkpt lat="48.61652" lon="-4.15782">
        <ele>75.7</ele>
        <time>2020-06-10T09:30:34Z</time>
      </trkpt>
      <trkpt lat="48.6165" lon="-4.15778">
        <ele>75.8</ele>
        <time>2020-06-10T09:30:35Z</time>
      </trkpt>
      <trkpt lat="48.61647" lon="-4.15773">
        <ele>75.9</ele>
        <time>2020-06-10T09:30:36Z</time>
      </trkpt>
      <trkpt lat="48.61645" lon="-4.15769">
        <ele>76.1</ele>
        <time>2020-06-10T09:30:37Z</time>
      </trkpt>
      <trkpt lat="48.61643" lon="-4.15764">
        <ele>76.2</ele>
        <time>2020-06-10T09:30:38Z</time>
      </trkpt>
      <trkpt lat="48.6164" lon="-4.15758">
        <ele>76.4</ele>
        <time>2020-06-10T09:30:39Z</time>
      </trkpt>
      <trkpt lat="48.61639" lon="-4.15754">
        <ele>76.5</ele>
        <time>2020-06-10T09:30:40Z</time>
      </trkpt>
      <trkpt lat="48.61636" lon="-4.15748">
        <ele>76.7</ele>
        <time>2020-06-10T09:30:41Z</time>
      </trkpt>
      <trkpt lat="48.61634" lon="-4.15743">
        <ele>76.8</ele>
        <time>2020-06-10T09:30:42Z</time>
      </trkpt>
      <trkpt lat="48.61632" lon="-4.15737">
        <ele>76.9</ele>
        <time>2020-06-10T09:30:43Z</time>
      </trkpt>
      <trkpt lat="48.61629" lon="-4.15732">
        <ele>77</ele>
        <time>2020-06-10T09:30:44Z</time>
      </trkpt>
      <trkpt lat="48.61627" lon="-4.15727">
        <ele>77.2</ele>
        <time>2020-06-10T09:30:45Z</time>
      </trkpt>
      <trkpt lat="48.61625" lon="-4.15722">
        <ele>77.3</ele>
        <time>2020-06-10T09:30:46Z</time>
      </trkpt>
      <trkpt lat="48.61622" lon="-4.15717">
        <ele>77.4</ele>
        <time>2020-06-10T09:30:47Z</time>
      </trkpt>
      <trkpt lat="48.6162" lon="-4.15712">
        <ele>77.6</ele>
        <time>2020-06-10T09:30:48Z</time>
      </trkpt>
      <trkpt lat="48.61618" lon="-4.15707">
        <ele>77.7</ele>
        <time>2020-06-10T09:30:49Z</time>
      </trkpt>
      <trkpt lat="48.61616" lon="-4.15703">
        <ele>77.8</ele>
        <time>2020-06-10T09:30:50Z</time>
      </trkpt>
      <trkpt lat="48.61614" lon="-4.15699">
        <ele>77.9</ele>
        <time>2020-06-10T09:30:51Z</time>
      </trkpt>
      <trkpt lat="48.61612" lon="-4.15694">
        <ele>78</ele>
        <time>2020-06-10T09:30:52Z</time>
      </trkpt>
      <trkpt lat="48.61609" lon="-4.15688">
        <ele>78.1</ele>
        <time>2020-06-10T09:30:53Z</time>
      </trkpt>
      <trkpt lat="48.61607" lon="-4.15682">
        <ele>78.2</ele>
        <time>2020-06-10T09:30:54Z</time>
      </trkpt>
      <trkpt lat="48.61604" lon="-4.15678">
        <ele>78.3</ele>
        <time>2020-06-10T09:30:55Z</time>
      </trkpt>
      <trkpt lat="48.61602" lon="-4.15673">
        <ele>78.3</ele>
        <time>2020-06-10T09:30:56Z</time>
      </trkpt>
      <trkpt lat="48.616" lon="-4.15667">
        <ele>78.4</ele>
        <time>2020-06-10T09:30:57Z</time>
      </trkpt>
      <trkpt lat="48.61597" lon="-4.15662">
        <ele>78.5</ele>
        <time>2020-06-10T09:30:58Z</time>
      </trkpt>
      <trkpt lat="48.61595" lon="-4.15658">
        <ele>78.6</ele>
        <time>2020-06-10T09:30:59Z</time>
      </trkpt>
      <trkpt lat="48.61593" lon="-4.15653">
        <ele>78.6</ele>
        <time>2020-06-10T09:31:00Z</time>
      </trkpt>
      <trkpt lat="48.6159" lon="-4.15649">
        <ele>78.7</ele>
        <time>2020-06-10T09:31:01Z</time>
      </trkpt>
      <trkpt lat="48.61588" lon="-4.15643">
        <ele>78.8</ele>
        <time>2020-06-10T09:31:02Z</time>
      </trkpt>
      <trkpt lat="48.61585" lon="-4.15639">
        <ele>78.8</ele>
        <time>2020-06-10T09:31:03Z</time>
      </trkpt>
      <trkpt lat="48.61583" lon="-4.15634">
        <ele>78.9</ele>
        <time>2020-06-10T09:31:04Z</time>
      </trkpt>
      <trkpt lat="48.6158" lon="-4.15629">
        <ele>78.9</ele>
        <time>2020-06-10T09:31:05Z</time>
      </trkpt>
      <trkpt lat="48.61577" lon="-4.15624">
        <ele>78.9</ele>
        <time>2020-06-10T09:31:06Z</time>
      </trkpt>
      <trkpt lat="48.61574" lon="-4.1562">
        <ele>79</ele>
        <time>2020-06-10T09:31:07Z</time>
      </trkpt>
      <trkpt lat="48.61572" lon="-4.15617">
        <ele>79</ele>
        <time>2020-06-10T09:31:08Z</time>
      </trkpt>
      <trkpt lat="48.6157" lon="-4.15613">
        <ele>79</ele>
        <time>2020-06-10T09:31:09Z</time>
      </trkpt>
      <trkpt lat="48.61569" lon="-4.15611">
        <ele>79</ele>
        <time>2020-06-10T09:31:10Z</time>
      </trkpt>
      <trkpt lat="48.61568" lon="-4.15607">
        <ele>79</ele>
        <time>2020-06-10T09:31:11Z</time>
      </trkpt>
      <trkpt lat="48.61565" lon="-4.15603">
        <ele>79</ele>
        <time>2020-06-10T09:31:12Z</time>
      </trkpt>
      <trkpt lat="48.61563" lon="-4.15598">
        <ele>79</ele>
        <time>2020-06-10T09:31:13Z</time>
      </trkpt>
      <trkpt lat="48.61561" lon="-4.15593">
        <ele>78.9</ele>
        <time>2020-06-10T09:31:14Z</time>
      </trkpt>
      <trkpt lat="48.61558" lon="-4.15587">
        <ele>78.9</ele>
        <time>2020-06-10T09:31:15Z</time>
      </trkpt>
      <trkpt lat="48.61555" lon="-4.15582">
        <ele>78.8</ele>
        <time>2020-06-10T09:31:16Z</time>
      </trkpt>
      <trkpt lat="48.61553" lon="-4.15576">
        <ele>78.8</ele>
        <time>2020-06-10T09:31:17Z</time>
      </trkpt>
      <trkpt lat="48.6155" lon="-4.1557">
        <ele>78.7</ele>
        <time>2020-06-10T09:31:18Z</time>
      </trkpt>
      <trkpt lat="48.61548" lon="-4.15565">
        <ele>78.7</ele>
        <time>2020-06-10T09:31:19Z</time>
      </trkpt>
      <trkpt lat="48.61545" lon="-4.15559">
        <ele>78.6</ele>
        <time>2020-06-10T09:31:20Z</time>
      </trkpt>
      <trkpt lat="48.61542" lon="-4.15554">
        <ele>78.5</ele>
        <time>2020-06-10T09:31:21Z</time>
      </trkpt>
      <trkpt lat="48.61539" lon="-4.15548">
        <ele>78.5</ele>
        <time>2020-06-10T09:31:22Z</time>
      </trkpt>
      <trkpt lat="48.61536" lon="-4.15542">
        <ele>78.4</ele>
        <time>2020-06-10T09:31:23Z</time>
      </trkpt>
      <trkpt lat="48.61534" lon="-4.15535">
        <ele>78.3</ele>
        <time>2020-06-10T09:31:24Z</time>
      </trkpt>
      <trkpt lat="48.6153" lon="-4.15529">
        <ele>78.2</ele>
        <time>2020-06-10T09:31:25Z</time>
      </trkpt>
      <trkpt lat="48.61527" lon="-4.15524">
        <ele>78.2</ele>
        <time>2020-06-10T09:31:26Z</time>
      </trkpt>
      <trkpt lat="48.61524" lon="-4.15517">
        <ele>78.1</ele>
        <time>2020-06-10T09:31:27Z</time>
      </trkpt>
      <trkpt lat="48.61521" lon="-4.1551">
        <ele>78</ele>
        <time>2020-06-10T09:31:28Z</time>
      </trkpt>
      <trkpt lat="48.61518" lon="-4.15503">
        <ele>77.8</ele>
        <time>2020-06-10T09:31:29Z</time>
      </trkpt>
      <trkpt lat="48.61514" lon="-4.15496">
        <ele>77.7</ele>
        <time>2020-06-10T09:31:30Z</time>
      </trkpt>
      <trkpt lat="48.61511" lon="-4.15489">
        <ele>77.6</ele>
        <time>2020-06-10T09:31:31Z</time>
      </trkpt>
      <trkpt lat="48.61508" lon="-4.15482">
        <ele>77.4</ele>
        <time>2020-06-10T09:31:32Z</time>
      </trkpt>
      <trkpt lat="48.61505" lon="-4.15474">
        <ele>77.2</ele>
        <time>2020-06-10T09:31:33Z</time>
      </trkpt>
      <trkpt lat="48.61502" lon="-4.15466">
        <ele>77</ele>
        <time>2020-06-10T09:31:34Z</time>
      </trkpt>
      <trkpt lat="48.615" lon="-4.15459">
        <ele>76.8</ele>
        <time>2020-06-10T09:31:35Z</time>
      </trkpt>
      <trkpt lat="48.61497" lon="-4.15452">
        <ele>76.6</ele>
        <time>2020-06-10T09:31:36Z</time>
      </trkpt>
      <trkpt lat="48.61494" lon="-4.15443">
        <ele>76.4</ele>
        <time>2020-06-10T09:31:37Z</time>
      </trkpt>
      <trkpt lat="48.61491" lon="-4.15435">
        <ele>76.1</ele>
        <time>2020-06-10T09:31:38Z</time>
      </trkpt>
      <trkpt lat="48.61488" lon="-4.15426">
        <ele>75.9</ele>
        <time>2020-06-10T09:31:39Z</time>
      </trkpt>
      <trkpt lat="48.61485" lon="-4.15418">
        <ele>75.6</ele>
        <time>2020-06-10T09:31:40Z</time>
      </trkpt>
      <trkpt lat="48.61482" lon="-4.15409">
        <ele>75.4</ele>
        <time>2020-06-10T09:31:41Z</time>
      </trkpt>
      <trkpt lat="48.6148" lon="-4.154">
        <ele>75.1</ele>
        <time>2020-06-10T09:31:42Z</time>
      </trkpt>
      <trkpt lat="48.61478" lon="-4.15391">
        <ele>74.7</ele>
        <time>2020-06-10T09:31:43Z</time>
      </trkpt>
      <trkpt lat="48.61475" lon="-4.15382">
        <ele>74.4</ele>
        <time>2020-06-10T09:31:44Z</time>
      </trkpt>
      <trkpt lat="48.61473" lon="-4.1537">
        <ele>73.9</ele>
        <time>2020-06-10T09:31:45Z</time>
      </trkpt>
      <trkpt lat="48.61471" lon="-4.15359">
        <ele>73.5</ele>
        <time>2020-06-10T09:31:46Z</time>
      </trkpt>
      <trkpt lat="48.61469" lon="-4.15348">
        <ele>73.1</ele>
        <time>2020-06-10T09:31:47Z</time>
      </trkpt>
      <trkpt lat="48.61466" lon="-4.15337">
        <ele>72.7</ele>
        <time>2020-06-10T09:31:48Z</time>
      </trkpt>
      <trkpt lat="48.61464" lon="-4.15325">
        <ele>72.2</ele>
        <time>2020-06-10T09:31:49Z</time>
      </trkpt>
      <trkpt lat="48.61462" lon="-4.15313">
        <ele>71.8</ele>
        <time>2020-06-10T09:31:50Z</time>
      </trkpt>
      <trkpt lat="48.61459" lon="-4.15301">
        <ele>71.3</ele>
        <time>2020-06-10T09:31:51Z</time>
      </trkpt>
      <trkpt lat="48.61457" lon="-4.15289">
        <ele>70.9</ele>
        <time>2020-06-10T09:31:52Z</time>
      </trkpt>
      <trkpt lat="48.61455" lon="-4.15276">
        <ele>70.5</ele>
        <time>2020-06-10T09:31:53Z</time>
      </trkpt>
      <trkpt lat="48.61453" lon="-4.15263">
        <ele>69.8</ele>
        <time>2020-06-10T09:31:54Z</time>
      </trkpt>
      <trkpt lat="48.61451" lon="-4.1525">
        <ele>69.4</ele>
        <time>2020-06-10T09:31:55Z</time>
      </trkpt>
      <trkpt lat="48.61448" lon="-4.15237">
        <ele>69</ele>
        <time>2020-06-10T09:31:56Z</time>
      </trkpt>
      <trkpt lat="48.61446" lon="-4.15224">
        <ele>68.7</ele>
        <time>2020-06-10T09:31:57Z</time>
      </trkpt>
      <trkpt lat="48.61444" lon="-4.1521">
        <ele>68.4</ele>
        <time>2020-06-10T09:31:58Z</time>
      </trkpt>
      <trkpt lat="48.61441" lon="-4.15197">
        <ele>68.2</ele>
        <time>2020-06-10T09:31:59Z</time>
      </trkpt>
      <trkpt lat="48.61439" lon="-4.15184">
        <ele>67.9</ele>
        <time>2020-06-10T09:32:00Z</time>
      </trkpt>
      <trkpt lat="48.61437" lon="-4.15171">
        <ele>67.7</ele>
        <time>2020-06-10T09:32:01Z</time>
      </trkpt>
      <trkpt lat="48.61435" lon="-4.15158">
        <ele>67.6</ele>
        <time>2020-06-10T09:32:02Z</time>
      </trkpt>
      <trkpt lat="48.61432" lon="-4.15145">
        <ele>67.5</ele>
        <time>2020-06-10T09:32:03Z</time>
      </trkpt>
      <trkpt lat="48.61429" lon="-4.15133">
        <ele>67.5</ele>
        <time>2020-06-10T09:32:04Z</time>
      </trkpt>
      <trkpt lat="48.61427" lon="-4.1512">
        <ele>67.5</ele>
        <time>2020-06-10T09:32:05Z</time>
      </trkpt>
      <trkpt lat="48.61425" lon="-4.15109">
        <ele>67.6</ele>
        <time>2020-06-10T09:32:06Z</time>
      </trkpt>
      <trkpt lat="48.61423" lon="-4.15097">
        <ele>67.7</ele>
        <time>2020-06-10T09:32:07Z</time>
      </trkpt>
      <trkpt lat="48.6142" lon="-4.15086">
        <ele>67.9</ele>
        <time>2020-06-10T09:32:08Z</time>
      </trkpt>
      <trkpt lat="48.61418" lon="-4.15075">
        <ele>68.1</ele>
        <time>2020-06-10T09:32:09Z</time>
      </trkpt>
      <trkpt lat="48.61415" lon="-4.15065">
        <ele>68.2</ele>
        <time>2020-06-10T09:32:10Z</time>
      </trkpt>
      <trkpt lat="48.61413" lon="-4.15055">
        <ele>68.2</ele>
        <time>2020-06-10T09:32:11Z</time>
      </trkpt>
      <trkpt lat="48.6141" lon="-4.15047">
        <ele>68.2</ele>
        <time>2020-06-10T09:32:12Z</time>
      </trkpt>
      <trkpt lat="48.61407" lon="-4.15038">
        <ele>68.2</ele>
        <time>2020-06-10T09:32:13Z</time>
      </trkpt>
      <trkpt lat="48.61403" lon="-4.1503">
        <ele>68.3</ele>
        <time>2020-06-10T09:32:14Z</time>
      </trkpt>
      <trkpt lat="48.614" lon="-4.15022">
        <ele>68.4</ele>
        <time>2020-06-10T09:32:15Z</time>
      </trkpt>
      <trkpt lat="48.61398" lon="-4.15015">
        <ele>68.5</ele>
        <time>2020-06-10T09:32:16Z</time>
      </trkpt>
      <trkpt lat="48.61396" lon="-4.15007">
        <ele>68.6</ele>
        <time>2020-06-10T09:32:17Z</time>
      </trkpt>
      <trkpt lat="48.61393" lon="-4.15">
        <ele>68.8</ele>
        <time>2020-06-10T09:32:18Z</time>
      </trkpt>
      <trkpt lat="48.61391" lon="-4.14993">
        <ele>68.9</ele>
        <time>2020-06-10T09:32:19Z</time>
      </trkpt>
      <trkpt lat="48.61389" lon="-4.14986">
        <ele>69.1</ele>
        <time>2020-06-10T09:32:20Z</time>
      </trkpt>
      <trkpt lat="48.61386" lon="-4.14979">
        <ele>69.2</ele>
        <time>2020-06-10T09:32:21Z</time>
      </trkpt>
      <trkpt lat="48.61384" lon="-4.14972">
        <ele>69.5</ele>
        <time>2020-06-10T09:32:22Z</time>
      </trkpt>
      <trkpt lat="48.61382" lon="-4.14966">
        <ele>69.6</ele>
        <time>2020-06-10T09:32:23Z</time>
      </trkpt>
      <trkpt lat="48.6138" lon="-4.14959">
        <ele>69.8</ele>
        <time>2020-06-10T09:32:24Z</time>
      </trkpt>
      <trkpt lat="48.61377" lon="-4.14953">
        <ele>69.9</ele>
        <time>2020-06-10T09:32:25Z</time>
      </trkpt>
      <trkpt lat="48.61375" lon="-4.14947">
        <ele>70</ele>
        <time>2020-06-10T09:32:26Z</time>
      </trkpt>
      <trkpt lat="48.61372" lon="-4.1494">
        <ele>70.2</ele>
        <time>2020-06-10T09:32:27Z</time>
      </trkpt>
      <trkpt lat="48.6137" lon="-4.14934">
        <ele>70.3</ele>
        <time>2020-06-10T09:32:28Z</time>
      </trkpt>
      <trkpt lat="48.61368" lon="-4.14928">
        <ele>70.5</ele>
        <time>2020-06-10T09:32:29Z</time>
      </trkpt>
      <trkpt lat="48.61365" lon="-4.14922">
        <ele>70.7</ele>
        <time>2020-06-10T09:32:30Z</time>
      </trkpt>
      <trkpt lat="48.61363" lon="-4.14916">
        <ele>70.9</ele>
        <time>2020-06-10T09:32:31Z</time>
      </trkpt>
      <trkpt lat="48.61361" lon="-4.14909">
        <ele>71.1</ele>
        <time>2020-06-10T09:32:32Z</time>
      </trkpt>
      <trkpt lat="48.61358" lon="-4.14903">
        <ele>71.3</ele>
        <time>2020-06-10T09:32:33Z</time>
      </trkpt>
      <trkpt lat="48.61356" lon="-4.14898">
        <ele>71.5</ele>
        <time>2020-06-10T09:32:34Z</time>
      </trkpt>
      <trkpt lat="48.61353" lon="-4.14892">
        <ele>71.7</ele>
        <time>2020-06-10T09:32:35Z</time>
      </trkpt>
      <trkpt lat="48.6135" lon="-4.14886">
        <ele>71.8</ele>
        <time>2020-06-10T09:32:36Z</time>
      </trkpt>
      <trkpt lat="48.61348" lon="-4.1488">
        <ele>72</ele>
        <time>2020-06-10T09:32:37Z</time>
      </trkpt>
      <trkpt lat="48.61345" lon="-4.14875">
        <ele>72.2</ele>
        <time>2020-06-10T09:32:38Z</time>
      </trkpt>
      <trkpt lat="48.61342" lon="-4.14869">
        <ele>72.3</ele>
        <time>2020-06-10T09:32:39Z</time>
      </trkpt>
      <trkpt lat="48.6134" lon="-4.14864">
        <ele>72.4</ele>
        <time>2020-06-10T09:32:40Z</time>
      </trkpt>
      <trkpt lat="48.61338" lon="-4.14859">
        <ele>72.6</ele>
        <time>2020-06-10T09:32:41Z</time>
      </trkpt>
      <trkpt lat="48.61335" lon="-4.14854">
        <ele>72.7</ele>
        <time>2020-06-10T09:32:42Z</time>
      </trkpt>
      <trkpt lat="48.61333" lon="-4.14848">
        <ele>72.8</ele>
        <time>2020-06-10T09:32:43Z</time>
      </trkpt>
      <trkpt lat="48.61331" lon="-4.14843">
        <ele>72.9</ele>
        <time>2020-06-10T09:32:44Z</time>
      </trkpt>
      <trkpt lat="48.61328" lon="-4.14838">
        <ele>73</ele>
        <time>2020-06-10T09:32:45Z</time>
      </trkpt>
      <trkpt lat="48.61326" lon="-4.14832">
        <ele>73.1</ele>
        <time>2020-06-10T09:32:46Z</time>
      </trkpt>
      <trkpt lat="48.61323" lon="-4.14828">
        <ele>73.2</ele>
        <time>2020-06-10T09:32:47Z</time>
      </trkpt>
      <trkpt lat="48.6132" lon="-4.14823">
        <ele>73.4</ele>
        <time>2020-06-10T09:32:48Z</time>
      </trkpt>
      <trkpt lat="48.61318" lon="-4.14818">
        <ele>73.5</ele>
        <time>2020-06-10T09:32:49Z</time>
      </trkpt>
      <trkpt lat="48.61315" lon="-4.14813">
        <ele>73.6</ele>
        <time>2020-06-10T09:32:50Z</time>
      </trkpt>
      <trkpt lat="48.61313" lon="-4.14809">
        <ele>73.8</ele>
        <time>2020-06-10T09:32:51Z</time>
      </trkpt>
      <trkpt lat="48.6131" lon="-4.14804">
        <ele>73.9</ele>
        <time>2020-06-10T09:32:52Z</time>
      </trkpt>
      <trkpt lat="48.61308" lon="-4.148">
        <ele>74</ele>
        <time>2020-06-10T09:32:53Z</time>
      </trkpt>
      <trkpt lat="48.61305" lon="-4.14795">
        <ele>74.1</ele>
        <time>2020-06-10T09:32:54Z</time>
      </trkpt>
      <trkpt lat="48.61302" lon="-4.14791">
        <ele>74.3</ele>
        <time>2020-06-10T09:32:55Z</time>
      </trkpt>
      <trkpt lat="48.61299" lon="-4.14787">
        <ele>74.4</ele>
        <time>2020-06-10T09:32:56Z</time>
      </trkpt>
      <trkpt lat="48.61296" lon="-4.14783">
        <ele>74.5</ele>
        <time>2020-06-10T09:32:57Z</time>
      </trkpt>
      <trkpt lat="48.61293" lon="-4.1478">
        <ele>74.6</ele>
        <time>2020-06-10T09:32:58Z</time>
      </trkpt>
      <trkpt lat="48.6129" lon="-4.14776">
        <ele>74.8</ele>
        <time>2020-06-10T09:32:59Z</time>
      </trkpt>
      <trkpt lat="48.61287" lon="-4.14771">
        <ele>74.9</ele>
        <time>2020-06-10T09:33:00Z</time>
      </trkpt>
      <trkpt lat="48.61285" lon="-4.14767">
        <ele>75</ele>
        <time>2020-06-10T09:33:01Z</time>
      </trkpt>
      <trkpt lat="48.61281" lon="-4.14764">
        <ele>75.1</ele>
        <time>2020-06-10T09:33:02Z</time>
      </trkpt>
      <trkpt lat="48.61279" lon="-4.1476">
        <ele>75.3</ele>
        <time>2020-06-10T09:33:03Z</time>
      </trkpt>
      <trkpt lat="48.61275" lon="-4.14756">
        <ele>75.4</ele>
        <time>2020-06-10T09:33:04Z</time>
      </trkpt>
      <trkpt lat="48.61272" lon="-4.14753">
        <ele>75.5</ele>
        <time>2020-06-10T09:33:05Z</time>
      </trkpt>
      <trkpt lat="48.61269" lon="-4.14748">
        <ele>75.7</ele>
        <time>2020-06-10T09:33:06Z</time>
      </trkpt>
      <trkpt lat="48.61266" lon="-4.14744">
        <ele>75.8</ele>
        <time>2020-06-10T09:33:07Z</time>
      </trkpt>
      <trkpt lat="48.61263" lon="-4.1474">
        <ele>75.9</ele>
        <time>2020-06-10T09:33:08Z</time>
      </trkpt>
      <trkpt lat="48.61259" lon="-4.14736">
        <ele>76.1</ele>
        <time>2020-06-10T09:33:09Z</time>
      </trkpt>
      <trkpt lat="48.61255" lon="-4.14733">
        <ele>76.2</ele>
        <time>2020-06-10T09:33:10Z</time>
      </trkpt>
      <trkpt lat="48.61252" lon="-4.14729">
        <ele>76.3</ele>
        <time>2020-06-10T09:33:11Z</time>
      </trkpt>
      <trkpt lat="48.61248" lon="-4.14726">
        <ele>76.5</ele>
        <time>2020-06-10T09:33:12Z</time>
      </trkpt>
      <trkpt lat="48.61245" lon="-4.14722">
        <ele>76.7</ele>
        <time>2020-06-10T09:33:13Z</time>
      </trkpt>
      <trkpt lat="48.61241" lon="-4.14719">
        <ele>76.8</ele>
        <time>2020-06-10T09:33:14Z</time>
      </trkpt>
      <trkpt lat="48.61238" lon="-4.14715">
        <ele>77</ele>
        <time>2020-06-10T09:33:15Z</time>
      </trkpt>
      <trkpt lat="48.61234" lon="-4.14712">
        <ele>77.1</ele>
        <time>2020-06-10T09:33:16Z</time>
      </trkpt>
      <trkpt lat="48.6123" lon="-4.14708">
        <ele>77.3</ele>
        <time>2020-06-10T09:33:17Z</time>
      </trkpt>
      <trkpt lat="48.61226" lon="-4.14705">
        <ele>77.4</ele>
        <time>2020-06-10T09:33:18Z</time>
      </trkpt>
      <trkpt lat="48.61223" lon="-4.14701">
        <ele>77.5</ele>
        <time>2020-06-10T09:33:19Z</time>
      </trkpt>
      <trkpt lat="48.61219" lon="-4.14697">
        <ele>77.7</ele>
        <time>2020-06-10T09:33:20Z</time>
      </trkpt>
      <trkpt lat="48.61215" lon="-4.14694">
        <ele>77.8</ele>
        <time>2020-06-10T09:33:21Z</time>
      </trkpt>
      <trkpt lat="48.61211" lon="-4.1469">
        <ele>77.9</ele>
        <time>2020-06-10T09:33:22Z</time>
      </trkpt>
      <trkpt lat="48.61207" lon="-4.14686">
        <ele>78.1</ele>
        <time>2020-06-10T09:33:23Z</time>
      </trkpt>
      <trkpt lat="48.61202" lon="-4.14683">
        <ele>78.3</ele>
        <time>2020-06-10T09:33:24Z</time>
      </trkpt>
      <trkpt lat="48.61199" lon="-4.1468">
        <ele>78.4</ele>
        <time>2020-06-10T09:33:25Z</time>
      </trkpt>
      <trkpt lat="48.61195" lon="-4.14677">
        <ele>78.5</ele>
        <time>2020-06-10T09:33:26Z</time>
      </trkpt>
      <trkpt lat="48.61192" lon="-4.14674">
        <ele>78.7</ele>
        <time>2020-06-10T09:33:27Z</time>
      </trkpt>
      <trkpt lat="48.61188" lon="-4.1467">
        <ele>78.8</ele>
        <time>2020-06-10T09:33:28Z</time>
      </trkpt>
      <trkpt lat="48.61184" lon="-4.14666">
        <ele>78.9</ele>
        <time>2020-06-10T09:33:29Z</time>
      </trkpt>
      <trkpt lat="48.61181" lon="-4.14663">
        <ele>79</ele>
        <time>2020-06-10T09:33:30Z</time>
      </trkpt>
      <trkpt lat="48.61177" lon="-4.14658">
        <ele>79.2</ele>
        <time>2020-06-10T09:33:31Z</time>
      </trkpt>
      <trkpt lat="48.61173" lon="-4.14654">
        <ele>79.3</ele>
        <time>2020-06-10T09:33:32Z</time>
      </trkpt>
      <trkpt lat="48.6117" lon="-4.1465">
        <ele>79.5</ele>
        <time>2020-06-10T09:33:33Z</time>
      </trkpt>
      <trkpt lat="48.61166" lon="-4.14646">
        <ele>79.6</ele>
        <time>2020-06-10T09:33:34Z</time>
      </trkpt>
      <trkpt lat="48.61162" lon="-4.14643">
        <ele>79.7</ele>
        <time>2020-06-10T09:33:35Z</time>
      </trkpt>
      <trkpt lat="48.61159" lon="-4.1464">
        <ele>79.8</ele>
        <time>2020-06-10T09:33:36Z</time>
      </trkpt>
      <trkpt lat="48.61155" lon="-4.14637">
        <ele>79.9</ele>
        <time>2020-06-10T09:33:37Z</time>
      </trkpt>
      <trkpt lat="48.61152" lon="-4.14634">
        <ele>80.1</ele>
        <time>2020-06-10T09:33:38Z</time>
      </trkpt>
      <trkpt lat="48.61148" lon="-4.1463">
        <ele>80.2</ele>
        <time>2020-06-10T09:33:39Z</time>
      </trkpt>
      <trkpt lat="48.61145" lon="-4.14626">
        <ele>80.3</ele>
        <time>2020-06-10T09:33:40Z</time>
      </trkpt>
      <trkpt lat="48.61141" lon="-4.14622">
        <ele>80.3</ele>
        <time>2020-06-10T09:33:41Z</time>
      </trkpt>
      <trkpt lat="48.61137" lon="-4.14618">
        <ele>80.4</ele>
        <time>2020-06-10T09:33:42Z</time>
      </trkpt>
      <trkpt lat="48.61134" lon="-4.14615">
        <ele>80.5</ele>
        <time>2020-06-10T09:33:43Z</time>
      </trkpt>
      <trkpt lat="48.6113" lon="-4.1461">
        <ele>80.5</ele>
        <time>2020-06-10T09:33:44Z</time>
      </trkpt>
      <trkpt lat="48.61127" lon="-4.14606">
        <ele>80.6</ele>
        <time>2020-06-10T09:33:45Z</time>
      </trkpt>
      <trkpt lat="48.61123" lon="-4.14602">
        <ele>80.7</ele>
        <time>2020-06-10T09:33:46Z</time>
      </trkpt>
      <trkpt lat="48.6112" lon="-4.14599">
        <ele>80.7</ele>
        <time>2020-06-10T09:33:47Z</time>
      </trkpt>
      <trkpt lat="48.61116" lon="-4.14594">
        <ele>80.8</ele>
        <time>2020-06-10T09:33:48Z</time>
      </trkpt>
      <trkpt lat="48.61113" lon="-4.14591">
        <ele>80.9</ele>
        <time>2020-06-10T09:33:49Z</time>
      </trkpt>
      <trkpt lat="48.61109" lon="-4.14586">
        <ele>81</ele>
        <time>2020-06-10T09:33:50Z</time>
      </trkpt>
      <trkpt lat="48.61106" lon="-4.14582">
        <ele>81.2</ele>
        <time>2020-06-10T09:33:51Z</time>
      </trkpt>
      <trkpt lat="48.61102" lon="-4.14578">
        <ele>81.3</ele>
        <time>2020-06-10T09:33:52Z</time>
      </trkpt>
      <trkpt lat="48.61098" lon="-4.14574">
        <ele>81.4</ele>
        <time>2020-06-10T09:33:53Z</time>
      </trkpt>
      <trkpt lat="48.61095" lon="-4.1457">
        <ele>81.5</ele>
        <time>2020-06-10T09:33:54Z</time>
      </trkpt>
      <trkpt lat="48.61091" lon="-4.14565">
        <ele>81.5</ele>
        <time>2020-06-10T09:33:55Z</time>
      </trkpt>
      <trkpt lat="48.61088" lon="-4.14562">
        <ele>81.6</ele>
        <time>2020-06-10T09:33:56Z</time>
      </trkpt>
      <trkpt lat="48.61085" lon="-4.14558">
        <ele>81.6</ele>
        <time>2020-06-10T09:33:57Z</time>
      </trkpt>
      <trkpt lat="48.6108" lon="-4.14553">
        <ele>81.5</ele>
        <time>2020-06-10T09:33:58Z</time>
      </trkpt>
      <trkpt lat="48.61077" lon="-4.14549">
        <ele>81.5</ele>
        <time>2020-06-10T09:33:59Z</time>
      </trkpt>
      <trkpt lat="48.61073" lon="-4.14545">
        <ele>81.5</ele>
        <time>2020-06-10T09:34:00Z</time>
      </trkpt>
      <trkpt lat="48.61069" lon="-4.14541">
        <ele>81.5</ele>
        <time>2020-06-10T09:34:01Z</time>
      </trkpt>
      <trkpt lat="48.61065" lon="-4.14537">
        <ele>81.5</ele>
        <time>2020-06-10T09:34:02Z</time>
      </trkpt>
      <trkpt lat="48.61061" lon="-4.14533">
        <ele>81.6</ele>
        <time>2020-06-10T09:34:03Z</time>
      </trkpt>
      <trkpt lat="48.61057" lon="-4.14528">
        <ele>81.6</ele>
        <time>2020-06-10T09:34:04Z</time>
      </trkpt>
      <trkpt lat="48.61054" lon="-4.14524">
        <ele>81.6</ele>
        <time>2020-06-10T09:34:05Z</time>
      </trkpt>
      <trkpt lat="48.6105" lon="-4.1452">
        <ele>81.7</ele>
        <time>2020-06-10T09:34:06Z</time>
      </trkpt>
      <trkpt lat="48.61046" lon="-4.14516">
        <ele>81.7</ele>
        <time>2020-06-10T09:34:07Z</time>
      </trkpt>
      <trkpt lat="48.61043" lon="-4.14511">
        <ele>81.8</ele>
        <time>2020-06-10T09:34:08Z</time>
      </trkpt>
      <trkpt lat="48.61037" lon="-4.14505">
        <ele>81.8</ele>
        <time>2020-06-10T09:34:09Z</time>
      </trkpt>
      <trkpt lat="48.61033" lon="-4.14501">
        <ele>81.9</ele>
        <time>2020-06-10T09:34:10Z</time>
      </trkpt>
      <trkpt lat="48.61029" lon="-4.14496">
        <ele>82</ele>
        <time>2020-06-10T09:34:11Z</time>
      </trkpt>
      <trkpt lat="48.61026" lon="-4.14493">
        <ele>82</ele>
        <time>2020-06-10T09:34:12Z</time>
      </trkpt>
      <trkpt lat="48.61022" lon="-4.14488">
        <ele>82</ele>
        <time>2020-06-10T09:34:13Z</time>
      </trkpt>
      <trkpt lat="48.61018" lon="-4.14484">
        <ele>82.1</ele>
        <time>2020-06-10T09:34:14Z</time>
      </trkpt>
      <trkpt lat="48.61013" lon="-4.14478">
        <ele>82.1</ele>
        <time>2020-06-10T09:34:15Z</time>
      </trkpt>
      <trkpt lat="48.6101" lon="-4.14474">
        <ele>82.1</ele>
        <time>2020-06-10T09:34:16Z</time>
      </trkpt>
      <trkpt lat="48.61006" lon="-4.1447">
        <ele>82.1</ele>
        <time>2020-06-10T09:34:17Z</time>
      </trkpt>
      <trkpt lat="48.61002" lon="-4.14465">
        <ele>82.1</ele>
        <time>2020-06-10T09:34:18Z</time>
      </trkpt>
      <trkpt lat="48.60998" lon="-4.1446">
        <ele>82.2</ele>
        <time>2020-06-10T09:34:19Z</time>
      </trkpt>
      <trkpt lat="48.60994" lon="-4.14455">
        <ele>82.2</ele>
        <time>2020-06-10T09:34:20Z</time>
      </trkpt>
      <trkpt lat="48.6099" lon="-4.1445">
        <ele>82.2</ele>
        <time>2020-06-10T09:34:21Z</time>
      </trkpt>
      <trkpt lat="48.60987" lon="-4.14446">
        <ele>82.3</ele>
        <time>2020-06-10T09:34:22Z</time>
      </trkpt>
      <trkpt lat="48.60982" lon="-4.14441">
        <ele>82.3</ele>
        <time>2020-06-10T09:34:23Z</time>
      </trkpt>
      <trkpt lat="48.60978" lon="-4.14437">
        <ele>82.4</ele>
        <time>2020-06-10T09:34:24Z</time>
      </trkpt>
      <trkpt lat="48.60974" lon="-4.14432">
        <ele>82.4</ele>
        <time>2020-06-10T09:34:25Z</time>
      </trkpt>
      <trkpt lat="48.60969" lon="-4.14427">
        <ele>82.5</ele>
        <time>2020-06-10T09:34:26Z</time>
      </trkpt>
      <trkpt lat="48.60965" lon="-4.14423">
        <ele>82.5</ele>
        <time>2020-06-10T09:34:27Z</time>
      </trkpt>
      <trkpt lat="48.60962" lon="-4.14419">
        <ele>82.6</ele>
        <time>2020-06-10T09:34:28Z</time>
      </trkpt>
      <trkpt lat="48.60958" lon="-4.14415">
        <ele>82.7</ele>
        <time>2020-06-10T09:34:29Z</time>
      </trkpt>
      <trkpt lat="48.60954" lon="-4.1441">
        <ele>82.8</ele>
        <time>2020-06-10T09:34:30Z</time>
      </trkpt>
      <trkpt lat="48.6095" lon="-4.14404">
        <ele>82.9</ele>
        <time>2020-06-10T09:34:31Z</time>
      </trkpt>
      <trkpt lat="48.60945" lon="-4.14399">
        <ele>82.9</ele>
        <time>2020-06-10T09:34:32Z</time>
      </trkpt>
      <trkpt lat="48.60941" lon="-4.14395">
        <ele>83</ele>
        <time>2020-06-10T09:34:33Z</time>
      </trkpt>
      <trkpt lat="48.60938" lon="-4.1439">
        <ele>83.1</ele>
        <time>2020-06-10T09:34:34Z</time>
      </trkpt>
      <trkpt lat="48.60935" lon="-4.14388">
        <ele>83.1</ele>
        <time>2020-06-10T09:34:35Z</time>
      </trkpt>
      <trkpt lat="48.6093" lon="-4.14383">
        <ele>83.2</ele>
        <time>2020-06-10T09:34:36Z</time>
      </trkpt>
      <trkpt lat="48.60926" lon="-4.14379">
        <ele>83.3</ele>
        <time>2020-06-10T09:34:37Z</time>
      </trkpt>
      <trkpt lat="48.60923" lon="-4.14374">
        <ele>83.4</ele>
        <time>2020-06-10T09:34:38Z</time>
      </trkpt>
      <trkpt lat="48.60918" lon="-4.14369">
        <ele>83.4</ele>
        <time>2020-06-10T09:34:39Z</time>
      </trkpt>
      <trkpt lat="48.60914" lon="-4.14364">
        <ele>83.5</ele>
        <time>2020-06-10T09:34:40Z</time>
      </trkpt>
      <trkpt lat="48.6091" lon="-4.1436">
        <ele>83.6</ele>
        <time>2020-06-10T09:34:41Z</time>
      </trkpt>
      <trkpt lat="48.60906" lon="-4.14355">
        <ele>83.7</ele>
        <time>2020-06-10T09:34:42Z</time>
      </trkpt>
      <trkpt lat="48.60902" lon="-4.14351">
        <ele>83.8</ele>
        <time>2020-06-10T09:34:43Z</time>
      </trkpt>
      <trkpt lat="48.60899" lon="-4.14347">
        <ele>83.9</ele>
        <time>2020-06-10T09:34:44Z</time>
      </trkpt>
      <trkpt lat="48.60895" lon="-4.14342">
        <ele>84</ele>
        <time>2020-06-10T09:34:45Z</time>
      </trkpt>
      <trkpt lat="48.60892" lon="-4.14338">
        <ele>84</ele>
        <time>2020-06-10T09:34:46Z</time>
      </trkpt>
      <trkpt lat="48.60889" lon="-4.14334">
        <ele>84.1</ele>
        <time>2020-06-10T09:34:47Z</time>
      </trkpt>
      <trkpt lat="48.60884" lon="-4.14328">
        <ele>84.2</ele>
        <time>2020-06-10T09:34:48Z</time>
      </trkpt>
      <trkpt lat="48.60881" lon="-4.14323">
        <ele>84.3</ele>
        <time>2020-06-10T09:34:49Z</time>
      </trkpt>
      <trkpt lat="48.60878" lon="-4.14319">
        <ele>84.4</ele>
        <time>2020-06-10T09:34:50Z</time>
      </trkpt>
      <trkpt lat="48.60874" lon="-4.14314">
        <ele>84.5</ele>
        <time>2020-06-10T09:34:51Z</time>
      </trkpt>
      <trkpt lat="48.60871" lon="-4.14311">
        <ele>84.6</ele>
        <time>2020-06-10T09:34:52Z</time>
      </trkpt>
      <trkpt lat="48.60868" lon="-4.14306">
        <ele>84.8</ele>
        <time>2020-06-10T09:34:53Z</time>
      </trkpt>
      <trkpt lat="48.60865" lon="-4.14302">
        <ele>84.9</ele>
        <time>2020-06-10T09:34:54Z</time>
      </trkpt>
      <trkpt lat="48.60862" lon="-4.143">
        <ele>85</ele>
        <time>2020-06-10T09:34:55Z</time>
      </trkpt>
      <trkpt lat="48.60859" lon="-4.14297">
        <ele>85.1</ele>
        <time>2020-06-10T09:34:56Z</time>
      </trkpt>
      <trkpt lat="48.60855" lon="-4.14293">
        <ele>85.3</ele>
        <time>2020-06-10T09:34:57Z</time>
      </trkpt>
      <trkpt lat="48.6085" lon="-4.14288">
        <ele>85.5</ele>
        <time>2020-06-10T09:34:58Z</time>
      </trkpt>
      <trkpt lat="48.60846" lon="-4.14283">
        <ele>85.7</ele>
        <time>2020-06-10T09:34:59Z</time>
      </trkpt>
      <trkpt lat="48.60842" lon="-4.14278">
        <ele>85.9</ele>
        <time>2020-06-10T09:35:00Z</time>
      </trkpt>
      <trkpt lat="48.60838" lon="-4.14273">
        <ele>86.1</ele>
        <time>2020-06-10T09:35:01Z</time>
      </trkpt>
      <trkpt lat="48.60834" lon="-4.14268">
        <ele>86.3</ele>
        <time>2020-06-10T09:35:02Z</time>
      </trkpt>
      <trkpt lat="48.6083" lon="-4.14263">
        <ele>86.6</ele>
        <time>2020-06-10T09:35:03Z</time>
      </trkpt>
      <trkpt lat="48.60826" lon="-4.14259">
        <ele>86.8</ele>
        <time>2020-06-10T09:35:04Z</time>
      </trkpt>
      <trkpt lat="48.60823" lon="-4.14256">
        <ele>87.1</ele>
        <time>2020-06-10T09:35:05Z</time>
      </trkpt>
      <trkpt lat="48.60819" lon="-4.14252">
        <ele>87.3</ele>
        <time>2020-06-10T09:35:06Z</time>
      </trkpt>
      <trkpt lat="48.60816" lon="-4.14248">
        <ele>87.4</ele>
        <time>2020-06-10T09:35:07Z</time>
      </trkpt>
      <trkpt lat="48.60813" lon="-4.14244">
        <ele>87.5</ele>
        <time>2020-06-10T09:35:08Z</time>
      </trkpt>
      <trkpt lat="48.6081" lon="-4.14241">
        <ele>87.6</ele>
        <time>2020-06-10T09:35:09Z</time>
      </trkpt>
      <trkpt lat="48.60809" lon="-4.1424">
        <ele>87.6</ele>
        <time>2020-06-10T09:35:10Z</time>
      </trkpt>
      <trkpt lat="48.60806" lon="-4.14237">
        <ele>87.8</ele>
        <time>2020-06-10T09:35:11Z</time>
      </trkpt>
      <trkpt lat="48.60804" lon="-4.14233">
        <ele>87.9</ele>
        <time>2020-06-10T09:35:12Z</time>
      </trkpt>
      <trkpt lat="48.608" lon="-4.14228">
        <ele>88</ele>
        <time>2020-06-10T09:35:13Z</time>
      </trkpt>
      <trkpt lat="48.60797" lon="-4.14225">
        <ele>88.1</ele>
        <time>2020-06-10T09:35:14Z</time>
      </trkpt>
      <trkpt lat="48.60793" lon="-4.14219">
        <ele>88.2</ele>
        <time>2020-06-10T09:35:15Z</time>
      </trkpt>
      <trkpt lat="48.60789" lon="-4.14216">
        <ele>88.3</ele>
        <time>2020-06-10T09:35:16Z</time>
      </trkpt>
      <trkpt lat="48.60786" lon="-4.14212">
        <ele>88.4</ele>
        <time>2020-06-10T09:35:17Z</time>
      </trkpt>
      <trkpt lat="48.60782" lon="-4.14208">
        <ele>88.5</ele>
        <time>2020-06-10T09:35:18Z</time>
      </trkpt>
      <trkpt lat="48.60778" lon="-4.14203">
        <ele>88.6</ele>
        <time>2020-06-10T09:35:19Z</time>
      </trkpt>
      <trkpt lat="48.60774" lon="-4.14198">
        <ele>88.8</ele>
        <time>2020-06-10T09:35:20Z</time>
      </trkpt>
      <trkpt lat="48.60771" lon="-4.14196">
        <ele>88.8</ele>
        <time>2020-06-10T09:35:21Z</time>
      </trkpt>
      <trkpt lat="48.60767" lon="-4.1419">
        <ele>89</ele>
        <time>2020-06-10T09:35:22Z</time>
      </trkpt>
      <trkpt lat="48.60764" lon="-4.14186">
        <ele>89.1</ele>
        <time>2020-06-10T09:35:23Z</time>
      </trkpt>
      <trkpt lat="48.6076" lon="-4.14181">
        <ele>89.2</ele>
        <time>2020-06-10T09:35:24Z</time>
      </trkpt>
      <trkpt lat="48.60756" lon="-4.14176">
        <ele>89.3</ele>
        <time>2020-06-10T09:35:25Z</time>
      </trkpt>
      <trkpt lat="48.60753" lon="-4.14172">
        <ele>89.4</ele>
        <time>2020-06-10T09:35:26Z</time>
      </trkpt>
      <trkpt lat="48.60749" lon="-4.14167">
        <ele>89.5</ele>
        <time>2020-06-10T09:35:27Z</time>
      </trkpt>
      <trkpt lat="48.60746" lon="-4.14163">
        <ele>89.6</ele>
        <time>2020-06-10T09:35:28Z</time>
      </trkpt>
      <trkpt lat="48.60743" lon="-4.14159">
        <ele>89.7</ele>
        <time>2020-06-10T09:35:29Z</time>
      </trkpt>
      <trkpt lat="48.60739" lon="-4.14156">
        <ele>89.7</ele>
        <time>2020-06-10T09:35:30Z</time>
      </trkpt>
      <trkpt lat="48.60737" lon="-4.14152">
        <ele>89.8</ele>
        <time>2020-06-10T09:35:31Z</time>
      </trkpt>
      <trkpt lat="48.60734" lon="-4.14149">
        <ele>89.9</ele>
        <time>2020-06-10T09:35:32Z</time>
      </trkpt>
      <trkpt lat="48.60731" lon="-4.14145">
        <ele>90</ele>
        <time>2020-06-10T09:35:33Z</time>
      </trkpt>
      <trkpt lat="48.60727" lon="-4.14142">
        <ele>90.1</ele>
        <time>2020-06-10T09:35:34Z</time>
      </trkpt>
      <trkpt lat="48.60724" lon="-4.14137">
        <ele>90.2</ele>
        <time>2020-06-10T09:35:35Z</time>
      </trkpt>
      <trkpt lat="48.6072" lon="-4.14131">
        <ele>90.3</ele>
        <time>2020-06-10T09:35:36Z</time>
      </trkpt>
      <trkpt lat="48.60717" lon="-4.14127">
        <ele>90.4</ele>
        <time>2020-06-10T09:35:37Z</time>
      </trkpt>
      <trkpt lat="48.60715" lon="-4.14122">
        <ele>90.4</ele>
        <time>2020-06-10T09:35:38Z</time>
      </trkpt>
      <trkpt lat="48.60712" lon="-4.14117">
        <ele>90.5</ele>
        <time>2020-06-10T09:35:39Z</time>
      </trkpt>
      <trkpt lat="48.6071" lon="-4.14114">
        <ele>90.5</ele>
        <time>2020-06-10T09:35:40Z</time>
      </trkpt>
      <trkpt lat="48.60707" lon="-4.1411">
        <ele>90.6</ele>
        <time>2020-06-10T09:35:41Z</time>
      </trkpt>
      <trkpt lat="48.60704" lon="-4.14105">
        <ele>90.7</ele>
        <time>2020-06-10T09:35:42Z</time>
      </trkpt>
      <trkpt lat="48.60701" lon="-4.14101">
        <ele>90.7</ele>
        <time>2020-06-10T09:35:43Z</time>
      </trkpt>
      <trkpt lat="48.60698" lon="-4.14097">
        <ele>90.8</ele>
        <time>2020-06-10T09:35:44Z</time>
      </trkpt>
      <trkpt lat="48.60694" lon="-4.14094">
        <ele>90.8</ele>
        <time>2020-06-10T09:35:45Z</time>
      </trkpt>
      <trkpt lat="48.60689" lon="-4.14089">
        <ele>90.9</ele>
        <time>2020-06-10T09:35:46Z</time>
      </trkpt>
      <trkpt lat="48.60686" lon="-4.14086">
        <ele>91</ele>
        <time>2020-06-10T09:35:47Z</time>
      </trkpt>
      <trkpt lat="48.60682" lon="-4.1408">
        <ele>91</ele>
        <time>2020-06-10T09:35:48Z</time>
      </trkpt>
      <trkpt lat="48.60678" lon="-4.14075">
        <ele>91</ele>
        <time>2020-06-10T09:35:49Z</time>
      </trkpt>
      <trkpt lat="48.60675" lon="-4.14071">
        <ele>91.1</ele>
        <time>2020-06-10T09:35:50Z</time>
      </trkpt>
      <trkpt lat="48.60671" lon="-4.14067">
        <ele>91.1</ele>
        <time>2020-06-10T09:35:51Z</time>
      </trkpt>
      <trkpt lat="48.60668" lon="-4.14063">
        <ele>91.1</ele>
        <time>2020-06-10T09:35:52Z</time>
      </trkpt>
      <trkpt lat="48.60663" lon="-4.14059">
        <ele>91.2</ele>
        <time>2020-06-10T09:35:53Z</time>
      </trkpt>
      <trkpt lat="48.60659" lon="-4.14056">
        <ele>91.3</ele>
        <time>2020-06-10T09:35:54Z</time>
      </trkpt>
      <trkpt lat="48.60656" lon="-4.14052">
        <ele>91.3</ele>
        <time>2020-06-10T09:35:55Z</time>
      </trkpt>
      <trkpt lat="48.60653" lon="-4.14049">
        <ele>91.4</ele>
        <time>2020-06-10T09:35:56Z</time>
      </trkpt>
      <trkpt lat="48.60649" lon="-4.14046">
        <ele>91.4</ele>
        <time>2020-06-10T09:35:57Z</time>
      </trkpt>
      <trkpt lat="48.60646" lon="-4.14042">
        <ele>91.5</ele>
        <time>2020-06-10T09:35:58Z</time>
      </trkpt>
      <trkpt lat="48.60643" lon="-4.14039">
        <ele>91.5</ele>
        <time>2020-06-10T09:35:59Z</time>
      </trkpt>
      <trkpt lat="48.60641" lon="-4.14037">
        <ele>91.5</ele>
        <time>2020-06-10T09:36:00Z</time>
      </trkpt>
      <trkpt lat="48.60638" lon="-4.14035">
        <ele>91.6</ele>
        <time>2020-06-10T09:36:01Z</time>
      </trkpt>
      <trkpt lat="48.60637" lon="-4.14035">
        <ele>91.6</ele>
        <time>2020-06-10T09:36:02Z</time>
      </trkpt>
      <trkpt lat="48.60636" lon="-4.14035">
        <ele>91.6</ele>
        <time>2020-06-10T09:36:03Z</time>
      </trkpt>
      <trkpt lat="48.60636" lon="-4.14034">
        <ele>91.6</ele>
        <time>2020-06-10T09:36:04Z</time>
      </trkpt>
      <trkpt lat="48.60635" lon="-4.14034">
        <ele>91.6</ele>
        <time>2020-06-10T09:36:05Z</time>
      </trkpt>
      <trkpt lat="48.60635" lon="-4.14034">
        <ele>91.6</ele>
        <time>2020-06-10T09:36:06Z</time>
      </trkpt>
      <trkpt lat="48.60634" lon="-4.14033">
        <ele>91.6</ele>
        <time>2020-06-10T09:36:07Z</time>
      </trkpt>
      <trkpt lat="48.60634" lon="-4.14033">
        <ele>91.6</ele>
        <time>2020-06-10T09:36:08Z</time>
      </trkpt>
      <trkpt lat="48.60634" lon="-4.14033">
        <ele>91.6</ele>
        <time>2020-06-10T09:36:09Z</time>
      </trkpt>
      <trkpt lat="48.60633" lon="-4.14032">
        <ele>91.6</ele>
        <time>2020-06-10T09:36:10Z</time>
      </trkpt>
      <trkpt lat="48.60633" lon="-4.14032">
        <ele>91.6</ele>
        <time>2020-06-10T09:36:11Z</time>
      </trkpt>
      <trkpt lat="48.60633" lon="-4.14032">
        <ele>91.6</ele>
        <time>2020-06-10T09:36:12Z</time>
      </trkpt>
      <trkpt lat="48.60632" lon="-4.14031">
        <ele>91.6</ele>
        <time>2020-06-10T09:36:13Z</time>
      </trkpt>
      <trkpt lat="48.60632" lon="-4.14031">
        <ele>91.6</ele>
        <time>2020-06-10T09:36:14Z</time>
      </trkpt>
      <trkpt lat="48.60631" lon="-4.14031">
        <ele>91.6</ele>
        <time>2020-06-10T09:36:15Z</time>
      </trkpt>
      <trkpt lat="48.60631" lon="-4.1403">
        <ele>91.6</ele>
        <time>2020-06-10T09:36:16Z</time>
      </trkpt>
      <trkpt lat="48.60631" lon="-4.1403">
        <ele>91.6</ele>
        <time>2020-06-10T09:36:17Z</time>
      </trkpt>
      <trkpt lat="48.6063" lon="-4.1403">
        <ele>91.6</ele>
        <time>2020-06-10T09:36:18Z</time>
      </trkpt>
      <trkpt lat="48.6063" lon="-4.14029">
        <ele>91.6</ele>
        <time>2020-06-10T09:36:19Z</time>
      </trkpt>
      <trkpt lat="48.6063" lon="-4.14029">
        <ele>91.6</ele>
        <time>2020-06-10T09:36:20Z</time>
      </trkpt>
      <trkpt lat="48.60629" lon="-4.14028">
        <ele>91.6</ele>
        <time>2020-06-10T09:37:26Z</time>
      </trkpt>
      <trkpt lat="48.60629" lon="-4.14028">
        <ele>91.6</ele>
        <time>2020-06-10T09:37:27Z</time>
      </trkpt>
      <trkpt lat="48.60626" lon="-4.14024">
        <ele>91.6</ele>
        <time>2020-06-10T09:37:28Z</time>
      </trkpt>
      <trkpt lat="48.60625" lon="-4.14022">
        <ele>91.6</ele>
        <time>2020-06-10T09:37:29Z</time>
      </trkpt>
      <trkpt lat="48.60623" lon="-4.1402">
        <ele>91.6</ele>
        <time>2020-06-10T09:37:30Z</time>
      </trkpt>
      <trkpt lat="48.60621" lon="-4.14017">
        <ele>91.6</ele>
        <time>2020-06-10T09:37:31Z</time>
      </trkpt>
      <trkpt lat="48.60618" lon="-4.14014">
        <ele>91.6</ele>
        <time>2020-06-10T09:37:32Z</time>
      </trkpt>
      <trkpt lat="48.60615" lon="-4.14012">
        <ele>91.6</ele>
        <time>2020-06-10T09:37:33Z</time>
      </trkpt>
      <trkpt lat="48.60612" lon="-4.1401">
        <ele>91.6</ele>
        <time>2020-06-10T09:37:34Z</time>
      </trkpt>
      <trkpt lat="48.60609" lon="-4.14006">
        <ele>91.6</ele>
        <time>2020-06-10T09:37:35Z</time>
      </trkpt>
      <trkpt lat="48.60605" lon="-4.14003">
        <ele>91.6</ele>
        <time>2020-06-10T09:37:36Z</time>
      </trkpt>
      <trkpt lat="48.60601" lon="-4.14">
        <ele>91.6</ele>
        <time>2020-06-10T09:37:37Z</time>
      </trkpt>
      <trkpt lat="48.60598" lon="-4.13997">
        <ele>91.5</ele>
        <time>2020-06-10T09:37:38Z</time>
      </trkpt>
      <trkpt lat="48.60594" lon="-4.13994">
        <ele>91.5</ele>
        <time>2020-06-10T09:37:39Z</time>
      </trkpt>
      <trkpt lat="48.6059" lon="-4.1399">
        <ele>91.4</ele>
        <time>2020-06-10T09:37:40Z</time>
      </trkpt>
      <trkpt lat="48.60586" lon="-4.13987">
        <ele>91.4</ele>
        <time>2020-06-10T09:37:41Z</time>
      </trkpt>
      <trkpt lat="48.60581" lon="-4.13985">
        <ele>91.3</ele>
        <time>2020-06-10T09:37:42Z</time>
      </trkpt>
      <trkpt lat="48.60574" lon="-4.13984">
        <ele>91.1</ele>
        <time>2020-06-10T09:37:43Z</time>
      </trkpt>
      <trkpt lat="48.60569" lon="-4.13982">
        <ele>91</ele>
        <time>2020-06-10T09:37:44Z</time>
      </trkpt>
      <trkpt lat="48.60563" lon="-4.13982">
        <ele>90.8</ele>
        <time>2020-06-10T09:37:45Z</time>
      </trkpt>
      <trkpt lat="48.60557" lon="-4.13982">
        <ele>90.7</ele>
        <time>2020-06-10T09:37:46Z</time>
      </trkpt>
      <trkpt lat="48.60552" lon="-4.13981">
        <ele>90.5</ele>
        <time>2020-06-10T09:37:47Z</time>
      </trkpt>
      <trkpt lat="48.60546" lon="-4.13981">
        <ele>90.4</ele>
        <time>2020-06-10T09:37:48Z</time>
      </trkpt>
      <trkpt lat="48.6054" lon="-4.13982">
        <ele>90.3</ele>
        <time>2020-06-10T09:37:49Z</time>
      </trkpt>
      <trkpt lat="48.60533" lon="-4.13984">
        <ele>90.1</ele>
        <time>2020-06-10T09:37:50Z</time>
      </trkpt>
      <trkpt lat="48.60527" lon="-4.13986">
        <ele>89.9</ele>
        <time>2020-06-10T09:37:51Z</time>
      </trkpt>
      <trkpt lat="48.60521" lon="-4.13988">
        <ele>89.7</ele>
        <time>2020-06-10T09:37:52Z</time>
      </trkpt>
      <trkpt lat="48.60517" lon="-4.13989">
        <ele>89.5</ele>
        <time>2020-06-10T09:37:53Z</time>
      </trkpt>
      <trkpt lat="48.60511" lon="-4.13991">
        <ele>89.3</ele>
        <time>2020-06-10T09:37:54Z</time>
      </trkpt>
      <trkpt lat="48.60505" lon="-4.13992">
        <ele>89.1</ele>
        <time>2020-06-10T09:37:55Z</time>
      </trkpt>
      <trkpt lat="48.605" lon="-4.13994">
        <ele>89</ele>
        <time>2020-06-10T09:37:56Z</time>
      </trkpt>
      <trkpt lat="48.60493" lon="-4.13996">
        <ele>88.8</ele>
        <time>2020-06-10T09:37:57Z</time>
      </trkpt>
      <trkpt lat="48.60487" lon="-4.13997">
        <ele>88.6</ele>
        <time>2020-06-10T09:37:58Z</time>
      </trkpt>
      <trkpt lat="48.60481" lon="-4.13999">
        <ele>88.4</ele>
        <time>2020-06-10T09:37:59Z</time>
      </trkpt>
      <trkpt lat="48.60475" lon="-4.14002">
        <ele>88.2</ele>
        <time>2020-06-10T09:38:00Z</time>
      </trkpt>
      <trkpt lat="48.60469" lon="-4.14004">
        <ele>88.1</ele>
        <time>2020-06-10T09:38:01Z</time>
      </trkpt>
      <trkpt lat="48.60464" lon="-4.14006">
        <ele>87.9</ele>
        <time>2020-06-10T09:38:02Z</time>
      </trkpt>
      <trkpt lat="48.60458" lon="-4.14009">
        <ele>87.8</ele>
        <time>2020-06-10T09:38:03Z</time>
      </trkpt>
      <trkpt lat="48.60452" lon="-4.14011">
        <ele>87.6</ele>
        <time>2020-06-10T09:38:04Z</time>
      </trkpt>
      <trkpt lat="48.60447" lon="-4.14014">
        <ele>87.5</ele>
        <time>2020-06-10T09:38:05Z</time>
      </trkpt>
      <trkpt lat="48.60441" lon="-4.14016">
        <ele>87.4</ele>
        <time>2020-06-10T09:38:06Z</time>
      </trkpt>
      <trkpt lat="48.60435" lon="-4.14019">
        <ele>87.3</ele>
        <time>2020-06-10T09:38:07Z</time>
      </trkpt>
      <trkpt lat="48.60429" lon="-4.14021">
        <ele>87.2</ele>
        <time>2020-06-10T09:38:08Z</time>
      </trkpt>
      <trkpt lat="48.60423" lon="-4.14024">
        <ele>87.1</ele>
        <time>2020-06-10T09:38:09Z</time>
      </trkpt>
      <trkpt lat="48.60417" lon="-4.14026">
        <ele>87</ele>
        <time>2020-06-10T09:38:10Z</time>
      </trkpt>
      <trkpt lat="48.60411" lon="-4.14028">
        <ele>86.9</ele>
        <time>2020-06-10T09:38:11Z</time>
      </trkpt>
      <trkpt lat="48.60405" lon="-4.14031">
        <ele>86.8</ele>
        <time>2020-06-10T09:38:12Z</time>
      </trkpt>
      <trkpt lat="48.60398" lon="-4.14033">
        <ele>86.8</ele>
        <time>2020-06-10T09:38:13Z</time>
      </trkpt>
      <trkpt lat="48.60393" lon="-4.14035">
        <ele>86.8</ele>
        <time>2020-06-10T09:38:14Z</time>
      </trkpt>
      <trkpt lat="48.60389" lon="-4.14037">
        <ele>86.9</ele>
        <time>2020-06-10T09:38:15Z</time>
      </trkpt>
      <trkpt lat="48.60383" lon="-4.14039">
        <ele>86.9</ele>
        <time>2020-06-10T09:38:16Z</time>
      </trkpt>
      <trkpt lat="48.60378" lon="-4.14041">
        <ele>87</ele>
        <time>2020-06-10T09:38:17Z</time>
      </trkpt>
      <trkpt lat="48.60373" lon="-4.14041">
        <ele>87</ele>
        <time>2020-06-10T09:38:18Z</time>
      </trkpt>
      <trkpt lat="48.60368" lon="-4.14042">
        <ele>87</ele>
        <time>2020-06-10T09:38:19Z</time>
      </trkpt>
      <trkpt lat="48.60364" lon="-4.14042">
        <ele>87</ele>
        <time>2020-06-10T09:38:20Z</time>
      </trkpt>
      <trkpt lat="48.6036" lon="-4.14042">
        <ele>87</ele>
        <time>2020-06-10T09:38:21Z</time>
      </trkpt>
      <trkpt lat="48.60356" lon="-4.14042">
        <ele>86.9</ele>
        <time>2020-06-10T09:38:22Z</time>
      </trkpt>
      <trkpt lat="48.60353" lon="-4.14042">
        <ele>86.7</ele>
        <time>2020-06-10T09:38:23Z</time>
      </trkpt>
      <trkpt lat="48.60348" lon="-4.14042">
        <ele>86.5</ele>
        <time>2020-06-10T09:38:24Z</time>
      </trkpt>
      <trkpt lat="48.60343" lon="-4.14041">
        <ele>86.2</ele>
        <time>2020-06-10T09:38:25Z</time>
      </trkpt>
      <trkpt lat="48.60339" lon="-4.14039">
        <ele>86</ele>
        <time>2020-06-10T09:38:26Z</time>
      </trkpt>
      <trkpt lat="48.60334" lon="-4.14036">
        <ele>85.7</ele>
        <time>2020-06-10T09:38:27Z</time>
      </trkpt>
      <trkpt lat="48.60328" lon="-4.14033">
        <ele>85.5</ele>
        <time>2020-06-10T09:38:28Z</time>
      </trkpt>
      <trkpt lat="48.60323" lon="-4.1403">
        <ele>85.2</ele>
        <time>2020-06-10T09:38:29Z</time>
      </trkpt>
      <trkpt lat="48.60318" lon="-4.14028">
        <ele>85</ele>
        <time>2020-06-10T09:38:30Z</time>
      </trkpt>
      <trkpt lat="48.60313" lon="-4.14025">
        <ele>84.7</ele>
        <time>2020-06-10T09:38:31Z</time>
      </trkpt>
      <trkpt lat="48.60308" lon="-4.14023">
        <ele>84.5</ele>
        <time>2020-06-10T09:38:32Z</time>
      </trkpt>
      <trkpt lat="48.60302" lon="-4.1402">
        <ele>84.4</ele>
        <time>2020-06-10T09:38:33Z</time>
      </trkpt>
      <trkpt lat="48.60298" lon="-4.14019">
        <ele>84.2</ele>
        <time>2020-06-10T09:38:34Z</time>
      </trkpt>
      <trkpt lat="48.60293" lon="-4.14017">
        <ele>84.1</ele>
        <time>2020-06-10T09:38:35Z</time>
      </trkpt>
      <trkpt lat="48.60287" lon="-4.14017">
        <ele>83.9</ele>
        <time>2020-06-10T09:38:36Z</time>
      </trkpt>
      <trkpt lat="48.60282" lon="-4.14016">
        <ele>83.8</ele>
        <time>2020-06-10T09:38:37Z</time>
      </trkpt>
      <trkpt lat="48.60277" lon="-4.14015">
        <ele>83.7</ele>
        <time>2020-06-10T09:38:38Z</time>
      </trkpt>
      <trkpt lat="48.60272" lon="-4.14015">
        <ele>83.6</ele>
        <time>2020-06-10T09:38:39Z</time>
      </trkpt>
      <trkpt lat="48.60267" lon="-4.14014">
        <ele>83.5</ele>
        <time>2020-06-10T09:38:40Z</time>
      </trkpt>
      <trkpt lat="48.60262" lon="-4.14013">
        <ele>83.4</ele>
        <time>2020-06-10T09:38:41Z</time>
      </trkpt>
      <trkpt lat="48.60256" lon="-4.14013">
        <ele>83.4</ele>
        <time>2020-06-10T09:38:42Z</time>
      </trkpt>
      <trkpt lat="48.60251" lon="-4.14013">
        <ele>83.3</ele>
        <time>2020-06-10T09:38:43Z</time>
      </trkpt>
      <trkpt lat="48.60247" lon="-4.14013">
        <ele>83.2</ele>
        <time>2020-06-10T09:38:44Z</time>
      </trkpt>
      <trkpt lat="48.60243" lon="-4.14012">
        <ele>83.2</ele>
        <time>2020-06-10T09:38:45Z</time>
      </trkpt>
      <trkpt lat="48.6024" lon="-4.14011">
        <ele>83.2</ele>
        <time>2020-06-10T09:38:46Z</time>
      </trkpt>
      <trkpt lat="48.60239" lon="-4.1401">
        <ele>83.1</ele>
        <time>2020-06-10T09:38:47Z</time>
      </trkpt>
      <trkpt lat="48.6024" lon="-4.1401">
        <ele>83.1</ele>
        <time>2020-06-10T09:38:48Z</time>
      </trkpt>
      <trkpt lat="48.60241" lon="-4.1401">
        <ele>83.1</ele>
        <time>2020-06-10T09:38:49Z</time>
      </trkpt>
      <trkpt lat="48.60242" lon="-4.1401">
        <ele>83.1</ele>
        <time>2020-06-10T09:38:50Z</time>
      </trkpt>
      <trkpt lat="48.60243" lon="-4.1401">
        <ele>83.1</ele>
        <time>2020-06-10T09:38:51Z</time>
      </trkpt>
      <trkpt lat="48.60244" lon="-4.1401">
        <ele>83.1</ele>
        <time>2020-06-10T09:38:52Z</time>
      </trkpt>
      <trkpt lat="48.60249" lon="-4.1401">
        <ele>83.2</ele>
        <time>2020-06-10T09:38:53Z</time>
      </trkpt>
      <trkpt lat="48.60252" lon="-4.14011">
        <ele>83.2</ele>
        <time>2020-06-10T09:38:54Z</time>
      </trkpt>
      <trkpt lat="48.60257" lon="-4.14013">
        <ele>83.3</ele>
        <time>2020-06-10T09:38:55Z</time>
      </trkpt>
      <trkpt lat="48.60261" lon="-4.14014">
        <ele>83.3</ele>
        <time>2020-06-10T09:38:56Z</time>
      </trkpt>
      <trkpt lat="48.60265" lon="-4.14014">
        <ele>83.4</ele>
        <time>2020-06-10T09:38:57Z</time>
      </trkpt>
      <trkpt lat="48.60269" lon="-4.14012">
        <ele>83.4</ele>
        <time>2020-06-10T09:38:58Z</time>
      </trkpt>
      <trkpt lat="48.60274" lon="-4.14012">
        <ele>83.5</ele>
        <time>2020-06-10T09:38:59Z</time>
      </trkpt>
      <trkpt lat="48.60277" lon="-4.14011">
        <ele>83.6</ele>
        <time>2020-06-10T09:39:00Z</time>
      </trkpt>
      <trkpt lat="48.60281" lon="-4.14012">
        <ele>83.6</ele>
        <time>2020-06-10T09:39:01Z</time>
      </trkpt>
      <trkpt lat="48.60286" lon="-4.14011">
        <ele>83.7</ele>
        <time>2020-06-10T09:39:02Z</time>
      </trkpt>
      <trkpt lat="48.60292" lon="-4.14012">
        <ele>83.9</ele>
        <time>2020-06-10T09:39:03Z</time>
      </trkpt>
      <trkpt lat="48.60298" lon="-4.14012">
        <ele>84.1</ele>
        <time>2020-06-10T09:39:04Z</time>
      </trkpt>
      <trkpt lat="48.60301" lon="-4.14012">
        <ele>84.2</ele>
        <time>2020-06-10T09:39:05Z</time>
      </trkpt>
      <trkpt lat="48.60307" lon="-4.14011">
        <ele>84.3</ele>
        <time>2020-06-10T09:39:06Z</time>
      </trkpt>
      <trkpt lat="48.6031" lon="-4.14012">
        <ele>84.5</ele>
        <time>2020-06-10T09:39:07Z</time>
      </trkpt>
      <trkpt lat="48.60315" lon="-4.14013">
        <ele>84.6</ele>
        <time>2020-06-10T09:39:08Z</time>
      </trkpt>
      <trkpt lat="48.60319" lon="-4.14014">
        <ele>84.8</ele>
        <time>2020-06-10T09:39:09Z</time>
      </trkpt>
      <trkpt lat="48.60323" lon="-4.14014">
        <ele>85</ele>
        <time>2020-06-10T09:39:10Z</time>
      </trkpt>
      <trkpt lat="48.60327" lon="-4.14015">
        <ele>85.2</ele>
        <time>2020-06-10T09:39:11Z</time>
      </trkpt>
      <trkpt lat="48.6033" lon="-4.14016">
        <ele>85.3</ele>
        <time>2020-06-10T09:39:12Z</time>
      </trkpt>
      <trkpt lat="48.60335" lon="-4.14016">
        <ele>85.6</ele>
        <time>2020-06-10T09:39:13Z</time>
      </trkpt>
      <trkpt lat="48.60338" lon="-4.14018">
        <ele>85.8</ele>
        <time>2020-06-10T09:39:14Z</time>
      </trkpt>
      <trkpt lat="48.60342" lon="-4.1402">
        <ele>86</ele>
        <time>2020-06-10T09:39:15Z</time>
      </trkpt>
      <trkpt lat="48.60345" lon="-4.14021">
        <ele>86.2</ele>
        <time>2020-06-10T09:39:16Z</time>
      </trkpt>
      <trkpt lat="48.6035" lon="-4.14022">
        <ele>86.4</ele>
        <time>2020-06-10T09:39:17Z</time>
      </trkpt>
      <trkpt lat="48.60353" lon="-4.14022">
        <ele>86.6</ele>
        <time>2020-06-10T09:39:18Z</time>
      </trkpt>
      <trkpt lat="48.60356" lon="-4.14022">
        <ele>86.7</ele>
        <time>2020-06-10T09:39:19Z</time>
      </trkpt>
      <trkpt lat="48.60359" lon="-4.14021">
        <ele>87</ele>
        <time>2020-06-10T09:39:20Z</time>
      </trkpt>
      <trkpt lat="48.60362" lon="-4.14021">
        <ele>87</ele>
        <time>2020-06-10T09:39:21Z</time>
      </trkpt>
      <trkpt lat="48.60364" lon="-4.14016">
        <ele>87</ele>
        <time>2020-06-10T09:39:22Z</time>
      </trkpt>
      <trkpt lat="48.60364" lon="-4.14012">
        <ele>87</ele>
        <time>2020-06-10T09:39:23Z</time>
      </trkpt>
      <trkpt lat="48.60364" lon="-4.14007">
        <ele>87</ele>
        <time>2020-06-10T09:39:24Z</time>
      </trkpt>
      <trkpt lat="48.60364" lon="-4.14001">
        <ele>87</ele>
        <time>2020-06-10T09:39:25Z</time>
      </trkpt>
      <trkpt lat="48.60365" lon="-4.13996">
        <ele>87</ele>
        <time>2020-06-10T09:39:26Z</time>
      </trkpt>
      <trkpt lat="48.60366" lon="-4.13991">
        <ele>87</ele>
        <time>2020-06-10T09:39:27Z</time>
      </trkpt>
      <trkpt lat="48.60366" lon="-4.13986">
        <ele>87</ele>
        <time>2020-06-10T09:39:28Z</time>
      </trkpt>
      <trkpt lat="48.60366" lon="-4.1398">
        <ele>87.1</ele>
        <time>2020-06-10T09:39:29Z</time>
      </trkpt>
      <trkpt lat="48.60367" lon="-4.13975">
        <ele>87.1</ele>
        <time>2020-06-10T09:39:30Z</time>
      </trkpt>
      <trkpt lat="48.60368" lon="-4.13968">
        <ele>87.1</ele>
        <time>2020-06-10T09:39:31Z</time>
      </trkpt>
      <trkpt lat="48.60368" lon="-4.13963">
        <ele>87.2</ele>
        <time>2020-06-10T09:39:32Z</time>
      </trkpt>
      <trkpt lat="48.60368" lon="-4.13956">
        <ele>87.2</ele>
        <time>2020-06-10T09:39:33Z</time>
      </trkpt>
      <trkpt lat="48.60369" lon="-4.13949">
        <ele>87.2</ele>
        <time>2020-06-10T09:39:34Z</time>
      </trkpt>
      <trkpt lat="48.6037" lon="-4.13941">
        <ele>87.3</ele>
        <time>2020-06-10T09:39:35Z</time>
      </trkpt>
      <trkpt lat="48.6037" lon="-4.13934">
        <ele>87.3</ele>
        <time>2020-06-10T09:39:36Z</time>
      </trkpt>
      <trkpt lat="48.60371" lon="-4.13928">
        <ele>87.4</ele>
        <time>2020-06-10T09:39:37Z</time>
      </trkpt>
      <trkpt lat="48.60372" lon="-4.1392">
        <ele>87.5</ele>
        <time>2020-06-10T09:39:38Z</time>
      </trkpt>
      <trkpt lat="48.60373" lon="-4.13913">
        <ele>87.6</ele>
        <time>2020-06-10T09:39:39Z</time>
      </trkpt>
      <trkpt lat="48.60375" lon="-4.13905">
        <ele>87.8</ele>
        <time>2020-06-10T09:39:40Z</time>
      </trkpt>
      <trkpt lat="48.60377" lon="-4.13899">
        <ele>87.8</ele>
        <time>2020-06-10T09:39:41Z</time>
      </trkpt>
      <trkpt lat="48.60378" lon="-4.13894">
        <ele>87.9</ele>
        <time>2020-06-10T09:39:42Z</time>
      </trkpt>
      <trkpt lat="48.6038" lon="-4.13888">
        <ele>88</ele>
        <time>2020-06-10T09:39:43Z</time>
      </trkpt>
      <trkpt lat="48.60381" lon="-4.13881">
        <ele>88.1</ele>
        <time>2020-06-10T09:39:44Z</time>
      </trkpt>
      <trkpt lat="48.60381" lon="-4.13875">
        <ele>88.3</ele>
        <time>2020-06-10T09:39:45Z</time>
      </trkpt>
      <trkpt lat="48.60382" lon="-4.13868">
        <ele>88.4</ele>
        <time>2020-06-10T09:39:46Z</time>
      </trkpt>
      <trkpt lat="48.60383" lon="-4.13861">
        <ele>88.5</ele>
        <time>2020-06-10T09:39:47Z</time>
      </trkpt>
      <trkpt lat="48.60384" lon="-4.13853">
        <ele>88.6</ele>
        <time>2020-06-10T09:39:48Z</time>
      </trkpt>
      <trkpt lat="48.60385" lon="-4.13847">
        <ele>88.7</ele>
        <time>2020-06-10T09:39:49Z</time>
      </trkpt>
      <trkpt lat="48.60387" lon="-4.1384">
        <ele>88.8</ele>
        <time>2020-06-10T09:39:50Z</time>
      </trkpt>
      <trkpt lat="48.60388" lon="-4.13834">
        <ele>88.9</ele>
        <time>2020-06-10T09:39:51Z</time>
      </trkpt>
      <trkpt lat="48.6039" lon="-4.13826">
        <ele>88.9</ele>
        <time>2020-06-10T09:39:52Z</time>
      </trkpt>
      <trkpt lat="48.60391" lon="-4.13819">
        <ele>89</ele>
        <time>2020-06-10T09:39:53Z</time>
      </trkpt>
      <trkpt lat="48.60391" lon="-4.13812">
        <ele>89</ele>
        <time>2020-06-10T09:39:54Z</time>
      </trkpt>
      <trkpt lat="48.60392" lon="-4.13806">
        <ele>89</ele>
        <time>2020-06-10T09:39:55Z</time>
      </trkpt>
      <trkpt lat="48.60392" lon="-4.13802">
        <ele>89.1</ele>
        <time>2020-06-10T09:39:56Z</time>
      </trkpt>
      <trkpt lat="48.60392" lon="-4.13795">
        <ele>89.1</ele>
        <time>2020-06-10T09:39:57Z</time>
      </trkpt>
      <trkpt lat="48.60393" lon="-4.13789">
        <ele>89.2</ele>
        <time>2020-06-10T09:39:58Z</time>
      </trkpt>
      <trkpt lat="48.60394" lon="-4.13782">
        <ele>89.2</ele>
        <time>2020-06-10T09:39:59Z</time>
      </trkpt>
      <trkpt lat="48.60395" lon="-4.13775">
        <ele>89.3</ele>
        <time>2020-06-10T09:40:00Z</time>
      </trkpt>
      <trkpt lat="48.60396" lon="-4.13768">
        <ele>89.3</ele>
        <time>2020-06-10T09:40:01Z</time>
      </trkpt>
      <trkpt lat="48.60397" lon="-4.1376">
        <ele>89.4</ele>
        <time>2020-06-10T09:40:02Z</time>
      </trkpt>
      <trkpt lat="48.60398" lon="-4.13752">
        <ele>89.4</ele>
        <time>2020-06-10T09:40:03Z</time>
      </trkpt>
      <trkpt lat="48.60398" lon="-4.13745">
        <ele>89.5</ele>
        <time>2020-06-10T09:40:04Z</time>
      </trkpt>
      <trkpt lat="48.60399" lon="-4.13738">
        <ele>89.5</ele>
        <time>2020-06-10T09:40:05Z</time>
      </trkpt>
      <trkpt lat="48.604" lon="-4.1373">
        <ele>89.6</ele>
        <time>2020-06-10T09:40:06Z</time>
      </trkpt>
      <trkpt lat="48.60401" lon="-4.13723">
        <ele>89.6</ele>
        <time>2020-06-10T09:40:07Z</time>
      </trkpt>
      <trkpt lat="48.60402" lon="-4.13717">
        <ele>89.6</ele>
        <time>2020-06-10T09:40:08Z</time>
      </trkpt>
      <trkpt lat="48.60403" lon="-4.13709">
        <ele>89.6</ele>
        <time>2020-06-10T09:40:09Z</time>
      </trkpt>
      <trkpt lat="48.60404" lon="-4.13703">
        <ele>89.7</ele>
        <time>2020-06-10T09:40:10Z</time>
      </trkpt>
      <trkpt lat="48.60405" lon="-4.13695">
        <ele>89.7</ele>
        <time>2020-06-10T09:40:11Z</time>
      </trkpt>
      <trkpt lat="48.60406" lon="-4.13687">
        <ele>89.8</ele>
        <time>2020-06-10T09:40:12Z</time>
      </trkpt>
      <trkpt lat="48.60407" lon="-4.13679">
        <ele>89.8</ele>
        <time>2020-06-10T09:40:13Z</time>
      </trkpt>
      <trkpt lat="48.60408" lon="-4.13671">
        <ele>89.8</ele>
        <time>2020-06-10T09:40:14Z</time>
      </trkpt>
      <trkpt lat="48.60409" lon="-4.13663">
        <ele>89.8</ele>
        <time>2020-06-10T09:40:15Z</time>
      </trkpt>
      <trkpt lat="48.6041" lon="-4.13655">
        <ele>89.8</ele>
        <time>2020-06-10T09:40:16Z</time>
      </trkpt>
      <trkpt lat="48.60412" lon="-4.13648">
        <ele>89.8</ele>
        <time>2020-06-10T09:40:17Z</time>
      </trkpt>
      <trkpt lat="48.60411" lon="-4.1364">
        <ele>89.7</ele>
        <time>2020-06-10T09:40:18Z</time>
      </trkpt>
      <trkpt lat="48.60412" lon="-4.13631">
        <ele>89.7</ele>
        <time>2020-06-10T09:40:19Z</time>
      </trkpt>
      <trkpt lat="48.60413" lon="-4.13623">
        <ele>89.6</ele>
        <time>2020-06-10T09:40:20Z</time>
      </trkpt>
      <trkpt lat="48.60414" lon="-4.13614">
        <ele>89.6</ele>
        <time>2020-06-10T09:40:21Z</time>
      </trkpt>
      <trkpt lat="48.60415" lon="-4.13606">
        <ele>89.5</ele>
        <time>2020-06-10T09:40:22Z</time>
      </trkpt>
      <trkpt lat="48.60417" lon="-4.13597">
        <ele>89.5</ele>
        <time>2020-06-10T09:40:23Z</time>
      </trkpt>
      <trkpt lat="48.60418" lon="-4.13587">
        <ele>89.4</ele>
        <time>2020-06-10T09:40:24Z</time>
      </trkpt>
      <trkpt lat="48.60419" lon="-4.13578">
        <ele>89.4</ele>
        <time>2020-06-10T09:40:25Z</time>
      </trkpt>
      <trkpt lat="48.6042" lon="-4.13568">
        <ele>89.3</ele>
        <time>2020-06-10T09:40:26Z</time>
      </trkpt>
      <trkpt lat="48.60421" lon="-4.13558">
        <ele>89.2</ele>
        <time>2020-06-10T09:40:27Z</time>
      </trkpt>
      <trkpt lat="48.60422" lon="-4.13548">
        <ele>89.2</ele>
        <time>2020-06-10T09:40:28Z</time>
      </trkpt>
      <trkpt lat="48.60422" lon="-4.13539">
        <ele>89.1</ele>
        <time>2020-06-10T09:40:29Z</time>
      </trkpt>
      <trkpt lat="48.60422" lon="-4.13529">
        <ele>89</ele>
        <time>2020-06-10T09:40:30Z</time>
      </trkpt>
      <trkpt lat="48.60423" lon="-4.1352">
        <ele>89</ele>
        <time>2020-06-10T09:40:31Z</time>
      </trkpt>
      <trkpt lat="48.60423" lon="-4.13512">
        <ele>89</ele>
        <time>2020-06-10T09:40:32Z</time>
      </trkpt>
      <trkpt lat="48.60423" lon="-4.13503">
        <ele>88.9</ele>
        <time>2020-06-10T09:40:33Z</time>
      </trkpt>
      <trkpt lat="48.60423" lon="-4.13494">
        <ele>88.9</ele>
        <time>2020-06-10T09:40:34Z</time>
      </trkpt>
      <trkpt lat="48.60423" lon="-4.13484">
        <ele>88.9</ele>
        <time>2020-06-10T09:40:35Z</time>
      </trkpt>
      <trkpt lat="48.60424" lon="-4.13474">
        <ele>88.8</ele>
        <time>2020-06-10T09:40:36Z</time>
      </trkpt>
      <trkpt lat="48.60424" lon="-4.13464">
        <ele>88.8</ele>
        <time>2020-06-10T09:40:37Z</time>
      </trkpt>
      <trkpt lat="48.60424" lon="-4.13454">
        <ele>88.8</ele>
        <time>2020-06-10T09:40:38Z</time>
      </trkpt>
      <trkpt lat="48.60425" lon="-4.13443">
        <ele>88.8</ele>
        <time>2020-06-10T09:40:39Z</time>
      </trkpt>
      <trkpt lat="48.60425" lon="-4.13434">
        <ele>88.8</ele>
        <time>2020-06-10T09:40:40Z</time>
      </trkpt>
      <trkpt lat="48.60425" lon="-4.13424">
        <ele>88.9</ele>
        <time>2020-06-10T09:40:41Z</time>
      </trkpt>
      <trkpt lat="48.60426" lon="-4.13415">
        <ele>88.9</ele>
        <time>2020-06-10T09:40:42Z</time>
      </trkpt>
      <trkpt lat="48.60426" lon="-4.13406">
        <ele>88.8</ele>
        <time>2020-06-10T09:40:43Z</time>
      </trkpt>
      <trkpt lat="48.60427" lon="-4.13396">
        <ele>88.8</ele>
        <time>2020-06-10T09:40:44Z</time>
      </trkpt>
      <trkpt lat="48.60427" lon="-4.13386">
        <ele>88.8</ele>
        <time>2020-06-10T09:40:45Z</time>
      </trkpt>
      <trkpt lat="48.60428" lon="-4.13377">
        <ele>88.8</ele>
        <time>2020-06-10T09:40:46Z</time>
      </trkpt>
      <trkpt lat="48.60428" lon="-4.13368">
        <ele>88.9</ele>
        <time>2020-06-10T09:40:47Z</time>
      </trkpt>
      <trkpt lat="48.60429" lon="-4.13359">
        <ele>88.9</ele>
        <time>2020-06-10T09:40:48Z</time>
      </trkpt>
      <trkpt lat="48.60429" lon="-4.13349">
        <ele>88.9</ele>
        <time>2020-06-10T09:40:49Z</time>
      </trkpt>
      <trkpt lat="48.60429" lon="-4.1334">
        <ele>88.9</ele>
        <time>2020-06-10T09:40:50Z</time>
      </trkpt>
      <trkpt lat="48.60429" lon="-4.1333">
        <ele>89</ele>
        <time>2020-06-10T09:40:51Z</time>
      </trkpt>
      <trkpt lat="48.6043" lon="-4.13321">
        <ele>89</ele>
        <time>2020-06-10T09:40:52Z</time>
      </trkpt>
      <trkpt lat="48.6043" lon="-4.13312">
        <ele>89</ele>
        <time>2020-06-10T09:40:53Z</time>
      </trkpt>
      <trkpt lat="48.6043" lon="-4.13303">
        <ele>89</ele>
        <time>2020-06-10T09:40:54Z</time>
      </trkpt>
      <trkpt lat="48.60431" lon="-4.13294">
        <ele>89</ele>
        <time>2020-06-10T09:40:55Z</time>
      </trkpt>
      <trkpt lat="48.60431" lon="-4.13285">
        <ele>89</ele>
        <time>2020-06-10T09:40:56Z</time>
      </trkpt>
      <trkpt lat="48.60432" lon="-4.13276">
        <ele>89</ele>
        <time>2020-06-10T09:40:57Z</time>
      </trkpt>
      <trkpt lat="48.60433" lon="-4.13268">
        <ele>89.1</ele>
        <time>2020-06-10T09:40:58Z</time>
      </trkpt>
      <trkpt lat="48.60434" lon="-4.13259">
        <ele>89.1</ele>
        <time>2020-06-10T09:40:59Z</time>
      </trkpt>
      <trkpt lat="48.60435" lon="-4.13251">
        <ele>89.1</ele>
        <time>2020-06-10T09:41:00Z</time>
      </trkpt>
      <trkpt lat="48.60435" lon="-4.13241">
        <ele>89.2</ele>
        <time>2020-06-10T09:41:01Z</time>
      </trkpt>
      <trkpt lat="48.60437" lon="-4.13232">
        <ele>89.3</ele>
        <time>2020-06-10T09:41:02Z</time>
      </trkpt>
      <trkpt lat="48.60438" lon="-4.13224">
        <ele>89.2</ele>
        <time>2020-06-10T09:41:03Z</time>
      </trkpt>
      <trkpt lat="48.60439" lon="-4.13215">
        <ele>89.2</ele>
        <time>2020-06-10T09:41:04Z</time>
      </trkpt>
      <trkpt lat="48.60439" lon="-4.13205">
        <ele>89.2</ele>
        <time>2020-06-10T09:41:05Z</time>
      </trkpt>
      <trkpt lat="48.6044" lon="-4.13196">
        <ele>89.2</ele>
        <time>2020-06-10T09:41:06Z</time>
      </trkpt>
      <trkpt lat="48.60441" lon="-4.13188">
        <ele>89.3</ele>
        <time>2020-06-10T09:41:07Z</time>
      </trkpt>
      <trkpt lat="48.60442" lon="-4.13179">
        <ele>89.3</ele>
        <time>2020-06-10T09:41:08Z</time>
      </trkpt>
      <trkpt lat="48.60442" lon="-4.13171">
        <ele>89.4</ele>
        <time>2020-06-10T09:41:09Z</time>
      </trkpt>
      <trkpt lat="48.60443" lon="-4.13162">
        <ele>89.4</ele>
        <time>2020-06-10T09:41:10Z</time>
      </trkpt>
      <trkpt lat="48.60445" lon="-4.13153">
        <ele>89.5</ele>
        <time>2020-06-10T09:41:11Z</time>
      </trkpt>
      <trkpt lat="48.60446" lon="-4.13146">
        <ele>89.6</ele>
        <time>2020-06-10T09:41:12Z</time>
      </trkpt>
      <trkpt lat="48.60447" lon="-4.13138">
        <ele>89.6</ele>
        <time>2020-06-10T09:41:13Z</time>
      </trkpt>
      <trkpt lat="48.60449" lon="-4.1313">
        <ele>89.7</ele>
        <time>2020-06-10T09:41:14Z</time>
      </trkpt>
      <trkpt lat="48.60449" lon="-4.13124">
        <ele>89.7</ele>
        <time>2020-06-10T09:41:15Z</time>
      </trkpt>
      <trkpt lat="48.6045" lon="-4.13117">
        <ele>89.7</ele>
        <time>2020-06-10T09:41:16Z</time>
      </trkpt>
      <trkpt lat="48.60451" lon="-4.13111">
        <ele>89.7</ele>
        <time>2020-06-10T09:41:17Z</time>
      </trkpt>
      <trkpt lat="48.60452" lon="-4.13102">
        <ele>89.8</ele>
        <time>2020-06-10T09:41:18Z</time>
      </trkpt>
      <trkpt lat="48.60452" lon="-4.13094">
        <ele>89.8</ele>
        <time>2020-06-10T09:41:19Z</time>
      </trkpt>
      <trkpt lat="48.60453" lon="-4.13086">
        <ele>89.8</ele>
        <time>2020-06-10T09:41:20Z</time>
      </trkpt>
      <trkpt lat="48.60454" lon="-4.1308">
        <ele>89.9</ele>
        <time>2020-06-10T09:41:21Z</time>
      </trkpt>
      <trkpt lat="48.60455" lon="-4.13073">
        <ele>89.9</ele>
        <time>2020-06-10T09:41:22Z</time>
      </trkpt>
      <trkpt lat="48.60456" lon="-4.13066">
        <ele>89.9</ele>
        <time>2020-06-10T09:41:23Z</time>
      </trkpt>
      <trkpt lat="48.60457" lon="-4.13059">
        <ele>90</ele>
        <time>2020-06-10T09:41:24Z</time>
      </trkpt>
      <trkpt lat="48.60458" lon="-4.13049">
        <ele>90</ele>
        <time>2020-06-10T09:41:25Z</time>
      </trkpt>
      <trkpt lat="48.60458" lon="-4.1304">
        <ele>90</ele>
        <time>2020-06-10T09:41:26Z</time>
      </trkpt>
      <trkpt lat="48.60458" lon="-4.13032">
        <ele>90</ele>
        <time>2020-06-10T09:41:27Z</time>
      </trkpt>
      <trkpt lat="48.60459" lon="-4.13023">
        <ele>90</ele>
        <time>2020-06-10T09:41:28Z</time>
      </trkpt>
      <trkpt lat="48.6046" lon="-4.13014">
        <ele>90</ele>
        <time>2020-06-10T09:41:29Z</time>
      </trkpt>
      <trkpt lat="48.6046" lon="-4.13005">
        <ele>89.9</ele>
        <time>2020-06-10T09:41:30Z</time>
      </trkpt>
      <trkpt lat="48.60461" lon="-4.12996">
        <ele>89.9</ele>
        <time>2020-06-10T09:41:31Z</time>
      </trkpt>
      <trkpt lat="48.60462" lon="-4.12988">
        <ele>89.8</ele>
        <time>2020-06-10T09:41:32Z</time>
      </trkpt>
      <trkpt lat="48.60463" lon="-4.12981">
        <ele>89.8</ele>
        <time>2020-06-10T09:41:33Z</time>
      </trkpt>
      <trkpt lat="48.60463" lon="-4.12972">
        <ele>89.8</ele>
        <time>2020-06-10T09:41:34Z</time>
      </trkpt>
      <trkpt lat="48.60464" lon="-4.12964">
        <ele>89.8</ele>
        <time>2020-06-10T09:41:35Z</time>
      </trkpt>
      <trkpt lat="48.60465" lon="-4.12955">
        <ele>89.7</ele>
        <time>2020-06-10T09:41:36Z</time>
      </trkpt>
      <trkpt lat="48.60465" lon="-4.12945">
        <ele>89.7</ele>
        <time>2020-06-10T09:41:37Z</time>
      </trkpt>
      <trkpt lat="48.60466" lon="-4.12936">
        <ele>89.6</ele>
        <time>2020-06-10T09:41:38Z</time>
      </trkpt>
      <trkpt lat="48.60467" lon="-4.12928">
        <ele>89.5</ele>
        <time>2020-06-10T09:41:39Z</time>
      </trkpt>
      <trkpt lat="48.60467" lon="-4.12919">
        <ele>89.3</ele>
        <time>2020-06-10T09:41:40Z</time>
      </trkpt>
      <trkpt lat="48.60468" lon="-4.12909">
        <ele>89.2</ele>
        <time>2020-06-10T09:41:41Z</time>
      </trkpt>
      <trkpt lat="48.60468" lon="-4.129">
        <ele>89.2</ele>
        <time>2020-06-10T09:41:42Z</time>
      </trkpt>
      <trkpt lat="48.6047" lon="-4.12891">
        <ele>89.1</ele>
        <time>2020-06-10T09:41:43Z</time>
      </trkpt>
      <trkpt lat="48.60471" lon="-4.12881">
        <ele>89.1</ele>
        <time>2020-06-10T09:41:44Z</time>
      </trkpt>
      <trkpt lat="48.60471" lon="-4.12872">
        <ele>89.1</ele>
        <time>2020-06-10T09:41:45Z</time>
      </trkpt>
      <trkpt lat="48.60472" lon="-4.12861">
        <ele>89</ele>
        <time>2020-06-10T09:41:46Z</time>
      </trkpt>
      <trkpt lat="48.60473" lon="-4.12852">
        <ele>88.9</ele>
        <time>2020-06-10T09:41:47Z</time>
      </trkpt>
      <trkpt lat="48.60473" lon="-4.12842">
        <ele>88.9</ele>
        <time>2020-06-10T09:41:48Z</time>
      </trkpt>
      <trkpt lat="48.60474" lon="-4.12831">
        <ele>88.8</ele>
        <time>2020-06-10T09:41:49Z</time>
      </trkpt>
      <trkpt lat="48.60475" lon="-4.12822">
        <ele>88.8</ele>
        <time>2020-06-10T09:41:50Z</time>
      </trkpt>
      <trkpt lat="48.60476" lon="-4.12811">
        <ele>88.8</ele>
        <time>2020-06-10T09:41:51Z</time>
      </trkpt>
      <trkpt lat="48.60476" lon="-4.12802">
        <ele>88.8</ele>
        <time>2020-06-10T09:41:52Z</time>
      </trkpt>
      <trkpt lat="48.60477" lon="-4.12793">
        <ele>88.8</ele>
        <time>2020-06-10T09:41:53Z</time>
      </trkpt>
      <trkpt lat="48.60477" lon="-4.12784">
        <ele>88.8</ele>
        <time>2020-06-10T09:41:54Z</time>
      </trkpt>
      <trkpt lat="48.60478" lon="-4.12775">
        <ele>88.8</ele>
        <time>2020-06-10T09:41:55Z</time>
      </trkpt>
      <trkpt lat="48.60479" lon="-4.12767">
        <ele>88.8</ele>
        <time>2020-06-10T09:41:56Z</time>
      </trkpt>
      <trkpt lat="48.6048" lon="-4.12759">
        <ele>88.8</ele>
        <time>2020-06-10T09:41:57Z</time>
      </trkpt>
      <trkpt lat="48.6048" lon="-4.12749">
        <ele>88.8</ele>
        <time>2020-06-10T09:41:58Z</time>
      </trkpt>
      <trkpt lat="48.60481" lon="-4.12739">
        <ele>88.8</ele>
        <time>2020-06-10T09:41:59Z</time>
      </trkpt>
      <trkpt lat="48.60481" lon="-4.12729">
        <ele>88.8</ele>
        <time>2020-06-10T09:42:00Z</time>
      </trkpt>
      <trkpt lat="48.60481" lon="-4.1272">
        <ele>88.8</ele>
        <time>2020-06-10T09:42:01Z</time>
      </trkpt>
      <trkpt lat="48.60481" lon="-4.12712">
        <ele>88.8</ele>
        <time>2020-06-10T09:42:02Z</time>
      </trkpt>
      <trkpt lat="48.60481" lon="-4.12702">
        <ele>88.8</ele>
        <time>2020-06-10T09:42:03Z</time>
      </trkpt>
      <trkpt lat="48.60481" lon="-4.12694">
        <ele>88.9</ele>
        <time>2020-06-10T09:42:04Z</time>
      </trkpt>
      <trkpt lat="48.60482" lon="-4.12686">
        <ele>88.9</ele>
        <time>2020-06-10T09:42:05Z</time>
      </trkpt>
      <trkpt lat="48.60482" lon="-4.12678">
        <ele>88.9</ele>
        <time>2020-06-10T09:42:06Z</time>
      </trkpt>
      <trkpt lat="48.60482" lon="-4.12671">
        <ele>88.9</ele>
        <time>2020-06-10T09:42:07Z</time>
      </trkpt>
      <trkpt lat="48.60482" lon="-4.12663">
        <ele>89</ele>
        <time>2020-06-10T09:42:08Z</time>
      </trkpt>
      <trkpt lat="48.60483" lon="-4.12655">
        <ele>89</ele>
        <time>2020-06-10T09:42:09Z</time>
      </trkpt>
      <trkpt lat="48.60483" lon="-4.12646">
        <ele>89</ele>
        <time>2020-06-10T09:42:10Z</time>
      </trkpt>
      <trkpt lat="48.60484" lon="-4.12637">
        <ele>89.1</ele>
        <time>2020-06-10T09:42:11Z</time>
      </trkpt>
      <trkpt lat="48.60485" lon="-4.12629">
        <ele>89.1</ele>
        <time>2020-06-10T09:42:12Z</time>
      </trkpt>
      <trkpt lat="48.60485" lon="-4.1262">
        <ele>89.1</ele>
        <time>2020-06-10T09:42:13Z</time>
      </trkpt>
      <trkpt lat="48.60485" lon="-4.12612">
        <ele>89.2</ele>
        <time>2020-06-10T09:42:14Z</time>
      </trkpt>
      <trkpt lat="48.60485" lon="-4.12603">
        <ele>89.2</ele>
        <time>2020-06-10T09:42:15Z</time>
      </trkpt>
      <trkpt lat="48.60485" lon="-4.12596">
        <ele>89.3</ele>
        <time>2020-06-10T09:42:16Z</time>
      </trkpt>
      <trkpt lat="48.60485" lon="-4.12588">
        <ele>89.3</ele>
        <time>2020-06-10T09:42:17Z</time>
      </trkpt>
      <trkpt lat="48.60486" lon="-4.12581">
        <ele>89.3</ele>
        <time>2020-06-10T09:42:18Z</time>
      </trkpt>
      <trkpt lat="48.60486" lon="-4.12573">
        <ele>89.4</ele>
        <time>2020-06-10T09:42:19Z</time>
      </trkpt>
      <trkpt lat="48.60486" lon="-4.12566">
        <ele>89.4</ele>
        <time>2020-06-10T09:42:20Z</time>
      </trkpt>
      <trkpt lat="48.60486" lon="-4.12559">
        <ele>89.5</ele>
        <time>2020-06-10T09:42:21Z</time>
      </trkpt>
      <trkpt lat="48.60486" lon="-4.12551">
        <ele>89.6</ele>
        <time>2020-06-10T09:42:22Z</time>
      </trkpt>
      <trkpt lat="48.60487" lon="-4.12543">
        <ele>89.6</ele>
        <time>2020-06-10T09:42:23Z</time>
      </trkpt>
      <trkpt lat="48.60487" lon="-4.12535">
        <ele>89.7</ele>
        <time>2020-06-10T09:42:24Z</time>
      </trkpt>
      <trkpt lat="48.60487" lon="-4.12526">
        <ele>89.8</ele>
        <time>2020-06-10T09:42:25Z</time>
      </trkpt>
      <trkpt lat="48.60488" lon="-4.12518">
        <ele>89.9</ele>
        <time>2020-06-10T09:42:26Z</time>
      </trkpt>
      <trkpt lat="48.60487" lon="-4.12509">
        <ele>90</ele>
        <time>2020-06-10T09:42:27Z</time>
      </trkpt>
      <trkpt lat="48.60487" lon="-4.12502">
        <ele>90</ele>
        <time>2020-06-10T09:42:28Z</time>
      </trkpt>
      <trkpt lat="48.60487" lon="-4.12494">
        <ele>90.1</ele>
        <time>2020-06-10T09:42:29Z</time>
      </trkpt>
      <trkpt lat="48.60488" lon="-4.12486">
        <ele>90.2</ele>
        <time>2020-06-10T09:42:30Z</time>
      </trkpt>
      <trkpt lat="48.60489" lon="-4.12479">
        <ele>90.4</ele>
        <time>2020-06-10T09:42:31Z</time>
      </trkpt>
      <trkpt lat="48.60491" lon="-4.12471">
        <ele>90.5</ele>
        <time>2020-06-10T09:42:32Z</time>
      </trkpt>
      <trkpt lat="48.60492" lon="-4.12462">
        <ele>90.7</ele>
        <time>2020-06-10T09:42:33Z</time>
      </trkpt>
      <trkpt lat="48.60494" lon="-4.12455">
        <ele>90.8</ele>
        <time>2020-06-10T09:42:34Z</time>
      </trkpt>
      <trkpt lat="48.60495" lon="-4.12448">
        <ele>90.8</ele>
        <time>2020-06-10T09:42:35Z</time>
      </trkpt>
      <trkpt lat="48.60496" lon="-4.12442">
        <ele>90.9</ele>
        <time>2020-06-10T09:42:36Z</time>
      </trkpt>
      <trkpt lat="48.60497" lon="-4.12435">
        <ele>91</ele>
        <time>2020-06-10T09:42:37Z</time>
      </trkpt>
      <trkpt lat="48.60498" lon="-4.12428">
        <ele>91.1</ele>
        <time>2020-06-10T09:42:38Z</time>
      </trkpt>
      <trkpt lat="48.605" lon="-4.12423">
        <ele>91.2</ele>
        <time>2020-06-10T09:42:39Z</time>
      </trkpt>
      <trkpt lat="48.60501" lon="-4.12416">
        <ele>91.3</ele>
        <time>2020-06-10T09:42:40Z</time>
      </trkpt>
      <trkpt lat="48.60502" lon="-4.12409">
        <ele>91.5</ele>
        <time>2020-06-10T09:42:41Z</time>
      </trkpt>
      <trkpt lat="48.60504" lon="-4.12401">
        <ele>91.6</ele>
        <time>2020-06-10T09:42:42Z</time>
      </trkpt>
      <trkpt lat="48.60504" lon="-4.12394">
        <ele>91.7</ele>
        <time>2020-06-10T09:42:43Z</time>
      </trkpt>
      <trkpt lat="48.60505" lon="-4.12387">
        <ele>91.8</ele>
        <time>2020-06-10T09:42:44Z</time>
      </trkpt>
      <trkpt lat="48.60506" lon="-4.12377">
        <ele>91.9</ele>
        <time>2020-06-10T09:42:45Z</time>
      </trkpt>
      <trkpt lat="48.60505" lon="-4.12371">
        <ele>92</ele>
        <time>2020-06-10T09:42:46Z</time>
      </trkpt>
      <trkpt lat="48.60504" lon="-4.12364">
        <ele>92.1</ele>
        <time>2020-06-10T09:42:47Z</time>
      </trkpt>
      <trkpt lat="48.60504" lon="-4.12359">
        <ele>92.7</ele>
        <time>2020-06-10T09:42:48Z</time>
      </trkpt>
      <trkpt lat="48.60503" lon="-4.12354">
        <ele>92.7</ele>
        <time>2020-06-10T09:42:49Z</time>
      </trkpt>
      <trkpt lat="48.60502" lon="-4.12348">
        <ele>92.8</ele>
        <time>2020-06-10T09:42:50Z</time>
      </trkpt>
      <trkpt lat="48.60503" lon="-4.12341">
        <ele>92.4</ele>
        <time>2020-06-10T09:42:51Z</time>
      </trkpt>
      <trkpt lat="48.60505" lon="-4.12335">
        <ele>92.4</ele>
        <time>2020-06-10T09:42:52Z</time>
      </trkpt>
      <trkpt lat="48.60507" lon="-4.1233">
        <ele>92.3</ele>
        <time>2020-06-10T09:42:53Z</time>
      </trkpt>
      <trkpt lat="48.6051" lon="-4.12325">
        <ele>92.3</ele>
        <time>2020-06-10T09:42:54Z</time>
      </trkpt>
      <trkpt lat="48.60513" lon="-4.12321">
        <ele>92.2</ele>
        <time>2020-06-10T09:42:55Z</time>
      </trkpt>
      <trkpt lat="48.60517" lon="-4.12318">
        <ele>92.1</ele>
        <time>2020-06-10T09:42:56Z</time>
      </trkpt>
      <trkpt lat="48.60521" lon="-4.12312">
        <ele>92</ele>
        <time>2020-06-10T09:42:57Z</time>
      </trkpt>
      <trkpt lat="48.60524" lon="-4.12306">
        <ele>91.9</ele>
        <time>2020-06-10T09:42:58Z</time>
      </trkpt>
      <trkpt lat="48.60527" lon="-4.123">
        <ele>91.7</ele>
        <time>2020-06-10T09:42:59Z</time>
      </trkpt>
      <trkpt lat="48.60531" lon="-4.12291">
        <ele>91.6</ele>
        <time>2020-06-10T09:43:00Z</time>
      </trkpt>
      <trkpt lat="48.60534" lon="-4.12283">
        <ele>91.5</ele>
        <time>2020-06-10T09:43:01Z</time>
      </trkpt>
      <trkpt lat="48.60536" lon="-4.12276">
        <ele>91.4</ele>
        <time>2020-06-10T09:43:02Z</time>
      </trkpt>
      <trkpt lat="48.60537" lon="-4.12269">
        <ele>91.3</ele>
        <time>2020-06-10T09:43:03Z</time>
      </trkpt>
      <trkpt lat="48.60538" lon="-4.12262">
        <ele>91.3</ele>
        <time>2020-06-10T09:43:04Z</time>
      </trkpt>
      <trkpt lat="48.60539" lon="-4.12254">
        <ele>91.2</ele>
        <time>2020-06-10T09:43:05Z</time>
      </trkpt>
      <trkpt lat="48.6054" lon="-4.12246">
        <ele>91.1</ele>
        <time>2020-06-10T09:43:06Z</time>
      </trkpt>
      <trkpt lat="48.60542" lon="-4.12239">
        <ele>91</ele>
        <time>2020-06-10T09:43:07Z</time>
      </trkpt>
      <trkpt lat="48.60543" lon="-4.12231">
        <ele>90.9</ele>
        <time>2020-06-10T09:43:08Z</time>
      </trkpt>
      <trkpt lat="48.60545" lon="-4.12222">
        <ele>90.8</ele>
        <time>2020-06-10T09:43:09Z</time>
      </trkpt>
      <trkpt lat="48.60546" lon="-4.12214">
        <ele>90.6</ele>
        <time>2020-06-10T09:43:10Z</time>
      </trkpt>
      <trkpt lat="48.60548" lon="-4.12205">
        <ele>90.5</ele>
        <time>2020-06-10T09:43:11Z</time>
      </trkpt>
      <trkpt lat="48.60549" lon="-4.12196">
        <ele>90.4</ele>
        <time>2020-06-10T09:43:12Z</time>
      </trkpt>
      <trkpt lat="48.60551" lon="-4.12188">
        <ele>90.3</ele>
        <time>2020-06-10T09:43:13Z</time>
      </trkpt>
      <trkpt lat="48.60553" lon="-4.12179">
        <ele>90.2</ele>
        <time>2020-06-10T09:43:14Z</time>
      </trkpt>
      <trkpt lat="48.60555" lon="-4.1217">
        <ele>90</ele>
        <time>2020-06-10T09:43:15Z</time>
      </trkpt>
      <trkpt lat="48.60557" lon="-4.1216">
        <ele>89.9</ele>
        <time>2020-06-10T09:43:16Z</time>
      </trkpt>
      <trkpt lat="48.60559" lon="-4.12151">
        <ele>89.7</ele>
        <time>2020-06-10T09:43:17Z</time>
      </trkpt>
      <trkpt lat="48.60561" lon="-4.12143">
        <ele>89.6</ele>
        <time>2020-06-10T09:43:18Z</time>
      </trkpt>
      <trkpt lat="48.60562" lon="-4.12135">
        <ele>89.5</ele>
        <time>2020-06-10T09:43:19Z</time>
      </trkpt>
      <trkpt lat="48.60564" lon="-4.12125">
        <ele>89.5</ele>
        <time>2020-06-10T09:43:20Z</time>
      </trkpt>
      <trkpt lat="48.60566" lon="-4.12116">
        <ele>89.3</ele>
        <time>2020-06-10T09:43:21Z</time>
      </trkpt>
      <trkpt lat="48.60567" lon="-4.12106">
        <ele>89.1</ele>
        <time>2020-06-10T09:43:22Z</time>
      </trkpt>
      <trkpt lat="48.60569" lon="-4.12096">
        <ele>89</ele>
        <time>2020-06-10T09:43:23Z</time>
      </trkpt>
      <trkpt lat="48.60571" lon="-4.12086">
        <ele>88.8</ele>
        <time>2020-06-10T09:43:24Z</time>
      </trkpt>
      <trkpt lat="48.60573" lon="-4.12076">
        <ele>88.6</ele>
        <time>2020-06-10T09:43:25Z</time>
      </trkpt>
      <trkpt lat="48.60574" lon="-4.12065">
        <ele>88.4</ele>
        <time>2020-06-10T09:43:26Z</time>
      </trkpt>
      <trkpt lat="48.60576" lon="-4.12055">
        <ele>88.2</ele>
        <time>2020-06-10T09:43:27Z</time>
      </trkpt>
      <trkpt lat="48.60577" lon="-4.12044">
        <ele>88.1</ele>
        <time>2020-06-10T09:43:28Z</time>
      </trkpt>
      <trkpt lat="48.60579" lon="-4.12034">
        <ele>87.9</ele>
        <time>2020-06-10T09:43:29Z</time>
      </trkpt>
      <trkpt lat="48.6058" lon="-4.12024">
        <ele>87.8</ele>
        <time>2020-06-10T09:43:30Z</time>
      </trkpt>
      <trkpt lat="48.60581" lon="-4.12013">
        <ele>87.7</ele>
        <time>2020-06-10T09:43:31Z</time>
      </trkpt>
      <trkpt lat="48.60583" lon="-4.12003">
        <ele>87.6</ele>
        <time>2020-06-10T09:43:32Z</time>
      </trkpt>
      <trkpt lat="48.60584" lon="-4.11993">
        <ele>87.5</ele>
        <time>2020-06-10T09:43:33Z</time>
      </trkpt>
      <trkpt lat="48.60585" lon="-4.11983">
        <ele>87.4</ele>
        <time>2020-06-10T09:43:34Z</time>
      </trkpt>
      <trkpt lat="48.60587" lon="-4.11972">
        <ele>87.2</ele>
        <time>2020-06-10T09:43:35Z</time>
      </trkpt>
      <trkpt lat="48.60588" lon="-4.11962">
        <ele>87.1</ele>
        <time>2020-06-10T09:43:36Z</time>
      </trkpt>
      <trkpt lat="48.60589" lon="-4.11953">
        <ele>87</ele>
        <time>2020-06-10T09:43:37Z</time>
      </trkpt>
      <trkpt lat="48.6059" lon="-4.11942">
        <ele>86.9</ele>
        <time>2020-06-10T09:43:38Z</time>
      </trkpt>
      <trkpt lat="48.60591" lon="-4.11932">
        <ele>86.7</ele>
        <time>2020-06-10T09:43:39Z</time>
      </trkpt>
      <trkpt lat="48.60592" lon="-4.11921">
        <ele>86.6</ele>
        <time>2020-06-10T09:43:40Z</time>
      </trkpt>
      <trkpt lat="48.60593" lon="-4.11911">
        <ele>86.5</ele>
        <time>2020-06-10T09:43:41Z</time>
      </trkpt>
      <trkpt lat="48.60594" lon="-4.119">
        <ele>86.4</ele>
        <time>2020-06-10T09:43:42Z</time>
      </trkpt>
      <trkpt lat="48.60595" lon="-4.1189">
        <ele>86.5</ele>
        <time>2020-06-10T09:43:43Z</time>
      </trkpt>
      <trkpt lat="48.60595" lon="-4.1188">
        <ele>86.5</ele>
        <time>2020-06-10T09:43:44Z</time>
      </trkpt>
      <trkpt lat="48.60594" lon="-4.1187">
        <ele>86.4</ele>
        <time>2020-06-10T09:43:45Z</time>
      </trkpt>
      <trkpt lat="48.60594" lon="-4.11861">
        <ele>86.4</ele>
        <time>2020-06-10T09:43:46Z</time>
      </trkpt>
      <trkpt lat="48.60594" lon="-4.11852">
        <ele>86.4</ele>
        <time>2020-06-10T09:43:47Z</time>
      </trkpt>
      <trkpt lat="48.60594" lon="-4.11843">
        <ele>86.4</ele>
        <time>2020-06-10T09:43:48Z</time>
      </trkpt>
      <trkpt lat="48.60594" lon="-4.11833">
        <ele>86.3</ele>
        <time>2020-06-10T09:43:49Z</time>
      </trkpt>
      <trkpt lat="48.60594" lon="-4.11824">
        <ele>86.3</ele>
        <time>2020-06-10T09:43:50Z</time>
      </trkpt>
      <trkpt lat="48.60594" lon="-4.11816">
        <ele>86.3</ele>
        <time>2020-06-10T09:43:51Z</time>
      </trkpt>
      <trkpt lat="48.60593" lon="-4.11807">
        <ele>86.3</ele>
        <time>2020-06-10T09:43:52Z</time>
      </trkpt>
      <trkpt lat="48.60594" lon="-4.11799">
        <ele>86.3</ele>
        <time>2020-06-10T09:43:53Z</time>
      </trkpt>
      <trkpt lat="48.60595" lon="-4.1179">
        <ele>86.3</ele>
        <time>2020-06-10T09:43:54Z</time>
      </trkpt>
      <trkpt lat="48.60594" lon="-4.11783">
        <ele>86.3</ele>
        <time>2020-06-10T09:43:55Z</time>
      </trkpt>
      <trkpt lat="48.60594" lon="-4.11774">
        <ele>86.3</ele>
        <time>2020-06-10T09:43:56Z</time>
      </trkpt>
      <trkpt lat="48.60593" lon="-4.11766">
        <ele>86.3</ele>
        <time>2020-06-10T09:43:57Z</time>
      </trkpt>
      <trkpt lat="48.60592" lon="-4.11758">
        <ele>86.3</ele>
        <time>2020-06-10T09:43:58Z</time>
      </trkpt>
      <trkpt lat="48.60592" lon="-4.1175">
        <ele>86.3</ele>
        <time>2020-06-10T09:43:59Z</time>
      </trkpt>
      <trkpt lat="48.60593" lon="-4.11742">
        <ele>86.4</ele>
        <time>2020-06-10T09:44:00Z</time>
      </trkpt>
      <trkpt lat="48.60594" lon="-4.11734">
        <ele>86.4</ele>
        <time>2020-06-10T09:44:01Z</time>
      </trkpt>
      <trkpt lat="48.60595" lon="-4.11726">
        <ele>86.4</ele>
        <time>2020-06-10T09:44:02Z</time>
      </trkpt>
      <trkpt lat="48.60595" lon="-4.11717">
        <ele>86.4</ele>
        <time>2020-06-10T09:44:03Z</time>
      </trkpt>
      <trkpt lat="48.60594" lon="-4.11709">
        <ele>86.4</ele>
        <time>2020-06-10T09:44:04Z</time>
      </trkpt>
      <trkpt lat="48.60594" lon="-4.117">
        <ele>86.4</ele>
        <time>2020-06-10T09:44:05Z</time>
      </trkpt>
      <trkpt lat="48.60593" lon="-4.11691">
        <ele>86.4</ele>
        <time>2020-06-10T09:44:06Z</time>
      </trkpt>
      <trkpt lat="48.60593" lon="-4.11683">
        <ele>86.4</ele>
        <time>2020-06-10T09:44:07Z</time>
      </trkpt>
      <trkpt lat="48.60592" lon="-4.11674">
        <ele>86.4</ele>
        <time>2020-06-10T09:44:08Z</time>
      </trkpt>
      <trkpt lat="48.60592" lon="-4.11666">
        <ele>86.4</ele>
        <time>2020-06-10T09:44:09Z</time>
      </trkpt>
      <trkpt lat="48.60592" lon="-4.11658">
        <ele>86.4</ele>
        <time>2020-06-10T09:44:10Z</time>
      </trkpt>
      <trkpt lat="48.60592" lon="-4.11649">
        <ele>86.4</ele>
        <time>2020-06-10T09:44:11Z</time>
      </trkpt>
      <trkpt lat="48.60592" lon="-4.11641">
        <ele>86.4</ele>
        <time>2020-06-10T09:44:12Z</time>
      </trkpt>
      <trkpt lat="48.60592" lon="-4.11633">
        <ele>86.5</ele>
        <time>2020-06-10T09:44:13Z</time>
      </trkpt>
      <trkpt lat="48.60592" lon="-4.11625">
        <ele>86.5</ele>
        <time>2020-06-10T09:44:14Z</time>
      </trkpt>
      <trkpt lat="48.60592" lon="-4.11617">
        <ele>86.5</ele>
        <time>2020-06-10T09:44:15Z</time>
      </trkpt>
      <trkpt lat="48.60592" lon="-4.11609">
        <ele>86.5</ele>
        <time>2020-06-10T09:44:16Z</time>
      </trkpt>
      <trkpt lat="48.60592" lon="-4.11601">
        <ele>86.5</ele>
        <time>2020-06-10T09:44:17Z</time>
      </trkpt>
      <trkpt lat="48.60593" lon="-4.11592">
        <ele>86.6</ele>
        <time>2020-06-10T09:44:18Z</time>
      </trkpt>
      <trkpt lat="48.60593" lon="-4.11584">
        <ele>86.6</ele>
        <time>2020-06-10T09:44:19Z</time>
      </trkpt>
      <trkpt lat="48.60592" lon="-4.11576">
        <ele>86.6</ele>
        <time>2020-06-10T09:44:20Z</time>
      </trkpt>
      <trkpt lat="48.60592" lon="-4.11568">
        <ele>86.6</ele>
        <time>2020-06-10T09:44:21Z</time>
      </trkpt>
      <trkpt lat="48.60593" lon="-4.1156">
        <ele>86.7</ele>
        <time>2020-06-10T09:44:22Z</time>
      </trkpt>
      <trkpt lat="48.60593" lon="-4.11552">
        <ele>86.7</ele>
        <time>2020-06-10T09:44:23Z</time>
      </trkpt>
      <trkpt lat="48.60593" lon="-4.11543">
        <ele>86.7</ele>
        <time>2020-06-10T09:44:24Z</time>
      </trkpt>
      <trkpt lat="48.60593" lon="-4.11535">
        <ele>86.8</ele>
        <time>2020-06-10T09:44:25Z</time>
      </trkpt>
      <trkpt lat="48.60595" lon="-4.11526">
        <ele>86.8</ele>
        <time>2020-06-10T09:44:26Z</time>
      </trkpt>
      <trkpt lat="48.60595" lon="-4.11518">
        <ele>86.8</ele>
        <time>2020-06-10T09:44:27Z</time>
      </trkpt>
      <trkpt lat="48.60595" lon="-4.11509">
        <ele>86.8</ele>
        <time>2020-06-10T09:44:28Z</time>
      </trkpt>
      <trkpt lat="48.60596" lon="-4.11502">
        <ele>86.8</ele>
        <time>2020-06-10T09:44:29Z</time>
      </trkpt>
      <trkpt lat="48.60596" lon="-4.11494">
        <ele>86.8</ele>
        <time>2020-06-10T09:44:30Z</time>
      </trkpt>
      <trkpt lat="48.60597" lon="-4.11486">
        <ele>86.8</ele>
        <time>2020-06-10T09:44:31Z</time>
      </trkpt>
      <trkpt lat="48.60597" lon="-4.11479">
        <ele>86.7</ele>
        <time>2020-06-10T09:44:32Z</time>
      </trkpt>
      <trkpt lat="48.60597" lon="-4.11471">
        <ele>86.7</ele>
        <time>2020-06-10T09:44:33Z</time>
      </trkpt>
      <trkpt lat="48.60598" lon="-4.11464">
        <ele>86.7</ele>
        <time>2020-06-10T09:44:34Z</time>
      </trkpt>
      <trkpt lat="48.60599" lon="-4.11456">
        <ele>86.7</ele>
        <time>2020-06-10T09:44:35Z</time>
      </trkpt>
      <trkpt lat="48.60601" lon="-4.11449">
        <ele>86.7</ele>
        <time>2020-06-10T09:44:36Z</time>
      </trkpt>
      <trkpt lat="48.60602" lon="-4.11443">
        <ele>86.6</ele>
        <time>2020-06-10T09:44:37Z</time>
      </trkpt>
      <trkpt lat="48.60603" lon="-4.11435">
        <ele>86.6</ele>
        <time>2020-06-10T09:44:38Z</time>
      </trkpt>
      <trkpt lat="48.60603" lon="-4.11427">
        <ele>86.6</ele>
        <time>2020-06-10T09:44:39Z</time>
      </trkpt>
      <trkpt lat="48.60605" lon="-4.1142">
        <ele>86.6</ele>
        <time>2020-06-10T09:44:40Z</time>
      </trkpt>
      <trkpt lat="48.60605" lon="-4.11412">
        <ele>86.6</ele>
        <time>2020-06-10T09:44:41Z</time>
      </trkpt>
      <trkpt lat="48.60606" lon="-4.11404">
        <ele>86.6</ele>
        <time>2020-06-10T09:44:42Z</time>
      </trkpt>
      <trkpt lat="48.60607" lon="-4.11396">
        <ele>86.7</ele>
        <time>2020-06-10T09:44:43Z</time>
      </trkpt>
      <trkpt lat="48.60609" lon="-4.11388">
        <ele>86.8</ele>
        <time>2020-06-10T09:44:44Z</time>
      </trkpt>
      <trkpt lat="48.60609" lon="-4.1138">
        <ele>86.9</ele>
        <time>2020-06-10T09:44:45Z</time>
      </trkpt>
      <trkpt lat="48.60609" lon="-4.11372">
        <ele>87</ele>
        <time>2020-06-10T09:44:46Z</time>
      </trkpt>
      <trkpt lat="48.60608" lon="-4.11365">
        <ele>87.1</ele>
        <time>2020-06-10T09:44:47Z</time>
      </trkpt>
      <trkpt lat="48.60608" lon="-4.11358">
        <ele>87.1</ele>
        <time>2020-06-10T09:44:48Z</time>
      </trkpt>
      <trkpt lat="48.60606" lon="-4.11352">
        <ele>87.2</ele>
        <time>2020-06-10T09:44:49Z</time>
      </trkpt>
      <trkpt lat="48.60604" lon="-4.11346">
        <ele>87.3</ele>
        <time>2020-06-10T09:44:50Z</time>
      </trkpt>
      <trkpt lat="48.60603" lon="-4.1134">
        <ele>87.3</ele>
        <time>2020-06-10T09:44:51Z</time>
      </trkpt>
      <trkpt lat="48.60602" lon="-4.11335">
        <ele>87.3</ele>
        <time>2020-06-10T09:44:52Z</time>
      </trkpt>
      <trkpt lat="48.60601" lon="-4.11329">
        <ele>87.3</ele>
        <time>2020-06-10T09:44:53Z</time>
      </trkpt>
      <trkpt lat="48.606" lon="-4.11324">
        <ele>87.3</ele>
        <time>2020-06-10T09:44:54Z</time>
      </trkpt>
      <trkpt lat="48.60601" lon="-4.11318">
        <ele>87.3</ele>
        <time>2020-06-10T09:44:55Z</time>
      </trkpt>
      <trkpt lat="48.60601" lon="-4.11312">
        <ele>87.3</ele>
        <time>2020-06-10T09:44:56Z</time>
      </trkpt>
      <trkpt lat="48.606" lon="-4.11307">
        <ele>87.3</ele>
        <time>2020-06-10T09:44:57Z</time>
      </trkpt>
      <trkpt lat="48.60601" lon="-4.11302">
        <ele>87.3</ele>
        <time>2020-06-10T09:44:58Z</time>
      </trkpt>
      <trkpt lat="48.60601" lon="-4.11297">
        <ele>87.3</ele>
        <time>2020-06-10T09:44:59Z</time>
      </trkpt>
      <trkpt lat="48.60601" lon="-4.11292">
        <ele>87.3</ele>
        <time>2020-06-10T09:45:00Z</time>
      </trkpt>
      <trkpt lat="48.60602" lon="-4.11287">
        <ele>87.4</ele>
        <time>2020-06-10T09:45:01Z</time>
      </trkpt>
      <trkpt lat="48.60602" lon="-4.11282">
        <ele>87.4</ele>
        <time>2020-06-10T09:45:02Z</time>
      </trkpt>
      <trkpt lat="48.60602" lon="-4.1128">
        <ele>87.4</ele>
        <time>2020-06-10T09:45:03Z</time>
      </trkpt>
      <trkpt lat="48.60602" lon="-4.11277">
        <ele>87.4</ele>
        <time>2020-06-10T09:45:04Z</time>
      </trkpt>
      <trkpt lat="48.60602" lon="-4.11276">
        <ele>87.4</ele>
        <time>2020-06-10T09:45:05Z</time>
      </trkpt>
      <trkpt lat="48.60602" lon="-4.11272">
        <ele>87.4</ele>
        <time>2020-06-10T09:45:06Z</time>
      </trkpt>
      <trkpt lat="48.60602" lon="-4.11269">
        <ele>87.4</ele>
        <time>2020-06-10T09:45:07Z</time>
      </trkpt>
      <trkpt lat="48.60602" lon="-4.11267">
        <ele>87.4</ele>
        <time>2020-06-10T09:45:08Z</time>
      </trkpt>
      <trkpt lat="48.60602" lon="-4.11264">
        <ele>87.5</ele>
        <time>2020-06-10T09:45:09Z</time>
      </trkpt>
      <trkpt lat="48.60602" lon="-4.11261">
        <ele>87.5</ele>
        <time>2020-06-10T09:45:10Z</time>
      </trkpt>
      <trkpt lat="48.60602" lon="-4.11258">
        <ele>87.5</ele>
        <time>2020-06-10T09:45:11Z</time>
      </trkpt>
      <trkpt lat="48.60602" lon="-4.11256">
        <ele>87.5</ele>
        <time>2020-06-10T09:45:12Z</time>
      </trkpt>
      <trkpt lat="48.60602" lon="-4.11253">
        <ele>87.5</ele>
        <time>2020-06-10T09:45:13Z</time>
      </trkpt>
      <trkpt lat="48.60602" lon="-4.1125">
        <ele>87.5</ele>
        <time>2020-06-10T09:45:14Z</time>
      </trkpt>
      <trkpt lat="48.60602" lon="-4.11247">
        <ele>87.5</ele>
        <time>2020-06-10T09:45:15Z</time>
      </trkpt>
      <trkpt lat="48.60602" lon="-4.11245">
        <ele>87.5</ele>
        <time>2020-06-10T09:45:16Z</time>
      </trkpt>
      <trkpt lat="48.60601" lon="-4.11242">
        <ele>87.6</ele>
        <time>2020-06-10T09:57:55Z</time>
      </trkpt>
      <trkpt lat="48.60601" lon="-4.11239">
        <ele>87.6</ele>
        <time>2020-06-10T09:57:56Z</time>
      </trkpt>
      <trkpt lat="48.60601" lon="-4.11233">
        <ele>87.6</ele>
        <time>2020-06-10T09:57:57Z</time>
      </trkpt>
      <trkpt lat="48.60601" lon="-4.11225">
        <ele>87.6</ele>
        <time>2020-06-10T09:57:58Z</time>
      </trkpt>
      <trkpt lat="48.606" lon="-4.11219">
        <ele>87.6</ele>
        <time>2020-06-10T09:57:59Z</time>
      </trkpt>
      <trkpt lat="48.60598" lon="-4.11213">
        <ele>87.6</ele>
        <time>2020-06-10T09:58:00Z</time>
      </trkpt>
      <trkpt lat="48.60597" lon="-4.11208">
        <ele>87.6</ele>
        <time>2020-06-10T09:58:01Z</time>
      </trkpt>
      <trkpt lat="48.60596" lon="-4.11202">
        <ele>87.6</ele>
        <time>2020-06-10T09:58:02Z</time>
      </trkpt>
      <trkpt lat="48.60596" lon="-4.11196">
        <ele>87.6</ele>
        <time>2020-06-10T09:58:03Z</time>
      </trkpt>
      <trkpt lat="48.60596" lon="-4.11192">
        <ele>87.6</ele>
        <time>2020-06-10T09:58:04Z</time>
      </trkpt>
      <trkpt lat="48.60596" lon="-4.11186">
        <ele>87.6</ele>
        <time>2020-06-10T09:58:05Z</time>
      </trkpt>
      <trkpt lat="48.60596" lon="-4.1118">
        <ele>87.6</ele>
        <time>2020-06-10T09:58:06Z</time>
      </trkpt>
      <trkpt lat="48.60596" lon="-4.11173">
        <ele>87.5</ele>
        <time>2020-06-10T09:58:07Z</time>
      </trkpt>
      <trkpt lat="48.60597" lon="-4.11167">
        <ele>87.5</ele>
        <time>2020-06-10T09:58:08Z</time>
      </trkpt>
      <trkpt lat="48.60596" lon="-4.1116">
        <ele>87.5</ele>
        <time>2020-06-10T09:58:09Z</time>
      </trkpt>
      <trkpt lat="48.60596" lon="-4.11153">
        <ele>87.5</ele>
        <time>2020-06-10T09:58:10Z</time>
      </trkpt>
      <trkpt lat="48.60596" lon="-4.11146">
        <ele>87.5</ele>
        <time>2020-06-10T09:58:11Z</time>
      </trkpt>
      <trkpt lat="48.60595" lon="-4.11139">
        <ele>87.4</ele>
        <time>2020-06-10T09:58:12Z</time>
      </trkpt>
      <trkpt lat="48.60595" lon="-4.11133">
        <ele>87.4</ele>
        <time>2020-06-10T09:58:13Z</time>
      </trkpt>
      <trkpt lat="48.60593" lon="-4.11127">
        <ele>87.4</ele>
        <time>2020-06-10T09:58:14Z</time>
      </trkpt>
      <trkpt lat="48.60592" lon="-4.11121">
        <ele>87.4</ele>
        <time>2020-06-10T09:58:15Z</time>
      </trkpt>
      <trkpt lat="48.60592" lon="-4.11114">
        <ele>87.4</ele>
        <time>2020-06-10T09:58:16Z</time>
      </trkpt>
      <trkpt lat="48.60591" lon="-4.11107">
        <ele>87.4</ele>
        <time>2020-06-10T09:58:17Z</time>
      </trkpt>
      <trkpt lat="48.60591" lon="-4.11101">
        <ele>87.4</ele>
        <time>2020-06-10T09:58:18Z</time>
      </trkpt>
      <trkpt lat="48.6059" lon="-4.11095">
        <ele>87.4</ele>
        <time>2020-06-10T09:58:19Z</time>
      </trkpt>
      <trkpt lat="48.60589" lon="-4.11089">
        <ele>87.5</ele>
        <time>2020-06-10T09:58:20Z</time>
      </trkpt>
      <trkpt lat="48.60588" lon="-4.11083">
        <ele>87.4</ele>
        <time>2020-06-10T09:58:21Z</time>
      </trkpt>
      <trkpt lat="48.60588" lon="-4.11077">
        <ele>87.3</ele>
        <time>2020-06-10T09:58:22Z</time>
      </trkpt>
      <trkpt lat="48.60588" lon="-4.11071">
        <ele>87.2</ele>
        <time>2020-06-10T09:58:23Z</time>
      </trkpt>
      <trkpt lat="48.60588" lon="-4.11065">
        <ele>87.1</ele>
        <time>2020-06-10T09:58:24Z</time>
      </trkpt>
      <trkpt lat="48.60587" lon="-4.11058">
        <ele>87.1</ele>
        <time>2020-06-10T09:58:25Z</time>
      </trkpt>
      <trkpt lat="48.60587" lon="-4.11052">
        <ele>87</ele>
        <time>2020-06-10T09:58:26Z</time>
      </trkpt>
      <trkpt lat="48.60586" lon="-4.11044">
        <ele>86.9</ele>
        <time>2020-06-10T09:58:27Z</time>
      </trkpt>
      <trkpt lat="48.60586" lon="-4.11037">
        <ele>86.9</ele>
        <time>2020-06-10T09:58:28Z</time>
      </trkpt>
      <trkpt lat="48.60586" lon="-4.11031">
        <ele>86.8</ele>
        <time>2020-06-10T09:58:29Z</time>
      </trkpt>
      <trkpt lat="48.60586" lon="-4.11023">
        <ele>86.8</ele>
        <time>2020-06-10T09:58:30Z</time>
      </trkpt>
      <trkpt lat="48.60587" lon="-4.11016">
        <ele>86.7</ele>
        <time>2020-06-10T09:58:31Z</time>
      </trkpt>
      <trkpt lat="48.60586" lon="-4.11008">
        <ele>86.7</ele>
        <time>2020-06-10T09:58:32Z</time>
      </trkpt>
      <trkpt lat="48.60586" lon="-4.10997">
        <ele>86.6</ele>
        <time>2020-06-10T09:58:33Z</time>
      </trkpt>
      <trkpt lat="48.60585" lon="-4.10992">
        <ele>86.6</ele>
        <time>2020-06-10T09:58:34Z</time>
      </trkpt>
      <trkpt lat="48.60585" lon="-4.10986">
        <ele>86.5</ele>
        <time>2020-06-10T09:58:35Z</time>
      </trkpt>
      <trkpt lat="48.60584" lon="-4.10978">
        <ele>86.5</ele>
        <time>2020-06-10T09:58:36Z</time>
      </trkpt>
      <trkpt lat="48.60584" lon="-4.1097">
        <ele>86.5</ele>
        <time>2020-06-10T09:58:37Z</time>
      </trkpt>
      <trkpt lat="48.60583" lon="-4.10962">
        <ele>86.4</ele>
        <time>2020-06-10T09:58:38Z</time>
      </trkpt>
      <trkpt lat="48.60582" lon="-4.10956">
        <ele>86.4</ele>
        <time>2020-06-10T09:58:39Z</time>
      </trkpt>
      <trkpt lat="48.60582" lon="-4.10949">
        <ele>86.4</ele>
        <time>2020-06-10T09:58:40Z</time>
      </trkpt>
      <trkpt lat="48.60582" lon="-4.10941">
        <ele>86.3</ele>
        <time>2020-06-10T09:58:41Z</time>
      </trkpt>
      <trkpt lat="48.60581" lon="-4.10935">
        <ele>86.3</ele>
        <time>2020-06-10T09:58:42Z</time>
      </trkpt>
      <trkpt lat="48.60581" lon="-4.10928">
        <ele>86.3</ele>
        <time>2020-06-10T09:58:43Z</time>
      </trkpt>
      <trkpt lat="48.60579" lon="-4.10921">
        <ele>86.3</ele>
        <time>2020-06-10T09:58:44Z</time>
      </trkpt>
      <trkpt lat="48.60578" lon="-4.10915">
        <ele>86.3</ele>
        <time>2020-06-10T09:58:45Z</time>
      </trkpt>
      <trkpt lat="48.60578" lon="-4.10907">
        <ele>86.2</ele>
        <time>2020-06-10T09:58:46Z</time>
      </trkpt>
      <trkpt lat="48.60578" lon="-4.109">
        <ele>86.2</ele>
        <time>2020-06-10T09:58:47Z</time>
      </trkpt>
      <trkpt lat="48.60578" lon="-4.10893">
        <ele>86.2</ele>
        <time>2020-06-10T09:58:48Z</time>
      </trkpt>
      <trkpt lat="48.60577" lon="-4.10887">
        <ele>86.2</ele>
        <time>2020-06-10T09:58:49Z</time>
      </trkpt>
      <trkpt lat="48.60578" lon="-4.10878">
        <ele>86.1</ele>
        <time>2020-06-10T09:58:50Z</time>
      </trkpt>
      <trkpt lat="48.60578" lon="-4.10872">
        <ele>86.1</ele>
        <time>2020-06-10T09:58:51Z</time>
      </trkpt>
      <trkpt lat="48.60578" lon="-4.10865">
        <ele>86</ele>
        <time>2020-06-10T09:58:52Z</time>
      </trkpt>
      <trkpt lat="48.60578" lon="-4.10857">
        <ele>85.9</ele>
        <time>2020-06-10T09:58:53Z</time>
      </trkpt>
      <trkpt lat="48.60578" lon="-4.1085">
        <ele>85.9</ele>
        <time>2020-06-10T09:58:54Z</time>
      </trkpt>
      <trkpt lat="48.60578" lon="-4.10842">
        <ele>85.8</ele>
        <time>2020-06-10T09:58:55Z</time>
      </trkpt>
      <trkpt lat="48.60578" lon="-4.10834">
        <ele>85.7</ele>
        <time>2020-06-10T09:58:56Z</time>
      </trkpt>
      <trkpt lat="48.60578" lon="-4.10825">
        <ele>85.6</ele>
        <time>2020-06-10T09:58:57Z</time>
      </trkpt>
      <trkpt lat="48.60578" lon="-4.10817">
        <ele>85.5</ele>
        <time>2020-06-10T09:58:58Z</time>
      </trkpt>
      <trkpt lat="48.60578" lon="-4.1081">
        <ele>85.4</ele>
        <time>2020-06-10T09:58:59Z</time>
      </trkpt>
      <trkpt lat="48.60578" lon="-4.10802">
        <ele>85.4</ele>
        <time>2020-06-10T09:59:00Z</time>
      </trkpt>
      <trkpt lat="48.60578" lon="-4.10794">
        <ele>85.2</ele>
        <time>2020-06-10T09:59:01Z</time>
      </trkpt>
      <trkpt lat="48.60577" lon="-4.10786">
        <ele>85</ele>
        <time>2020-06-10T09:59:02Z</time>
      </trkpt>
      <trkpt lat="48.60578" lon="-4.10776">
        <ele>84.8</ele>
        <time>2020-06-10T09:59:03Z</time>
      </trkpt>
      <trkpt lat="48.60578" lon="-4.10767">
        <ele>84.7</ele>
        <time>2020-06-10T09:59:04Z</time>
      </trkpt>
      <trkpt lat="48.60577" lon="-4.10757">
        <ele>84.6</ele>
        <time>2020-06-10T09:59:05Z</time>
      </trkpt>
      <trkpt lat="48.60577" lon="-4.10748">
        <ele>84.4</ele>
        <time>2020-06-10T09:59:06Z</time>
      </trkpt>
      <trkpt lat="48.60577" lon="-4.10739">
        <ele>84.3</ele>
        <time>2020-06-10T09:59:07Z</time>
      </trkpt>
      <trkpt lat="48.60577" lon="-4.10731">
        <ele>84.2</ele>
        <time>2020-06-10T09:59:08Z</time>
      </trkpt>
      <trkpt lat="48.60576" lon="-4.10723">
        <ele>84.1</ele>
        <time>2020-06-10T09:59:09Z</time>
      </trkpt>
      <trkpt lat="48.60576" lon="-4.10714">
        <ele>84</ele>
        <time>2020-06-10T09:59:10Z</time>
      </trkpt>
      <trkpt lat="48.60575" lon="-4.10704">
        <ele>83.8</ele>
        <time>2020-06-10T09:59:11Z</time>
      </trkpt>
      <trkpt lat="48.60573" lon="-4.10696">
        <ele>83.7</ele>
        <time>2020-06-10T09:59:12Z</time>
      </trkpt>
      <trkpt lat="48.60572" lon="-4.10687">
        <ele>83.7</ele>
        <time>2020-06-10T09:59:13Z</time>
      </trkpt>
      <trkpt lat="48.60571" lon="-4.10678">
        <ele>83.6</ele>
        <time>2020-06-10T09:59:14Z</time>
      </trkpt>
      <trkpt lat="48.6057" lon="-4.1067">
        <ele>83.6</ele>
        <time>2020-06-10T09:59:15Z</time>
      </trkpt>
      <trkpt lat="48.60569" lon="-4.10662">
        <ele>83.6</ele>
        <time>2020-06-10T09:59:16Z</time>
      </trkpt>
      <trkpt lat="48.60568" lon="-4.10653">
        <ele>83.6</ele>
        <time>2020-06-10T09:59:17Z</time>
      </trkpt>
      <trkpt lat="48.60568" lon="-4.10644">
        <ele>83.6</ele>
        <time>2020-06-10T09:59:18Z</time>
      </trkpt>
      <trkpt lat="48.60569" lon="-4.10634">
        <ele>83.5</ele>
        <time>2020-06-10T09:59:19Z</time>
      </trkpt>
      <trkpt lat="48.6057" lon="-4.10625">
        <ele>83.5</ele>
        <time>2020-06-10T09:59:20Z</time>
      </trkpt>
      <trkpt lat="48.60571" lon="-4.10616">
        <ele>83.5</ele>
        <time>2020-06-10T09:59:21Z</time>
      </trkpt>
      <trkpt lat="48.60572" lon="-4.10607">
        <ele>83.5</ele>
        <time>2020-06-10T09:59:22Z</time>
      </trkpt>
      <trkpt lat="48.60572" lon="-4.10598">
        <ele>83.4</ele>
        <time>2020-06-10T09:59:23Z</time>
      </trkpt>
      <trkpt lat="48.60573" lon="-4.10588">
        <ele>83.4</ele>
        <time>2020-06-10T09:59:24Z</time>
      </trkpt>
      <trkpt lat="48.60572" lon="-4.10579">
        <ele>83.4</ele>
        <time>2020-06-10T09:59:25Z</time>
      </trkpt>
      <trkpt lat="48.60572" lon="-4.1057">
        <ele>83.5</ele>
        <time>2020-06-10T09:59:26Z</time>
      </trkpt>
      <trkpt lat="48.60572" lon="-4.10562">
        <ele>83.5</ele>
        <time>2020-06-10T09:59:27Z</time>
      </trkpt>
      <trkpt lat="48.60571" lon="-4.10551">
        <ele>83.4</ele>
        <time>2020-06-10T09:59:28Z</time>
      </trkpt>
      <trkpt lat="48.60571" lon="-4.10542">
        <ele>83.3</ele>
        <time>2020-06-10T09:59:29Z</time>
      </trkpt>
      <trkpt lat="48.60571" lon="-4.10532">
        <ele>83.3</ele>
        <time>2020-06-10T09:59:30Z</time>
      </trkpt>
      <trkpt lat="48.60571" lon="-4.10521">
        <ele>83.2</ele>
        <time>2020-06-10T09:59:31Z</time>
      </trkpt>
      <trkpt lat="48.60571" lon="-4.10512">
        <ele>83.2</ele>
        <time>2020-06-10T09:59:32Z</time>
      </trkpt>
      <trkpt lat="48.60572" lon="-4.10502">
        <ele>83.2</ele>
        <time>2020-06-10T09:59:33Z</time>
      </trkpt>
      <trkpt lat="48.60572" lon="-4.10493">
        <ele>83.2</ele>
        <time>2020-06-10T09:59:34Z</time>
      </trkpt>
      <trkpt lat="48.60572" lon="-4.10485">
        <ele>83.2</ele>
        <time>2020-06-10T09:59:35Z</time>
      </trkpt>
      <trkpt lat="48.60572" lon="-4.10475">
        <ele>83.2</ele>
        <time>2020-06-10T09:59:36Z</time>
      </trkpt>
      <trkpt lat="48.60572" lon="-4.10465">
        <ele>83.2</ele>
        <time>2020-06-10T09:59:37Z</time>
      </trkpt>
      <trkpt lat="48.60572" lon="-4.10457">
        <ele>83.3</ele>
        <time>2020-06-10T09:59:38Z</time>
      </trkpt>
      <trkpt lat="48.60572" lon="-4.10448">
        <ele>83.3</ele>
        <time>2020-06-10T09:59:39Z</time>
      </trkpt>
      <trkpt lat="48.60573" lon="-4.1044">
        <ele>83.3</ele>
        <time>2020-06-10T09:59:40Z</time>
      </trkpt>
      <trkpt lat="48.60572" lon="-4.10434">
        <ele>83.3</ele>
        <time>2020-06-10T09:59:41Z</time>
      </trkpt>
      <trkpt lat="48.60572" lon="-4.10426">
        <ele>83.4</ele>
        <time>2020-06-10T09:59:42Z</time>
      </trkpt>
      <trkpt lat="48.60573" lon="-4.10418">
        <ele>83.5</ele>
        <time>2020-06-10T09:59:43Z</time>
      </trkpt>
      <trkpt lat="48.60573" lon="-4.10407">
        <ele>83.5</ele>
        <time>2020-06-10T09:59:44Z</time>
      </trkpt>
      <trkpt lat="48.60573" lon="-4.10399">
        <ele>83.6</ele>
        <time>2020-06-10T09:59:45Z</time>
      </trkpt>
      <trkpt lat="48.60574" lon="-4.10392">
        <ele>83.6</ele>
        <time>2020-06-10T09:59:46Z</time>
      </trkpt>
      <trkpt lat="48.60574" lon="-4.10385">
        <ele>83.6</ele>
        <time>2020-06-10T09:59:47Z</time>
      </trkpt>
      <trkpt lat="48.60575" lon="-4.10376">
        <ele>83.6</ele>
        <time>2020-06-10T09:59:48Z</time>
      </trkpt>
      <trkpt lat="48.60576" lon="-4.10368">
        <ele>83.6</ele>
        <time>2020-06-10T09:59:49Z</time>
      </trkpt>
      <trkpt lat="48.60577" lon="-4.1036">
        <ele>83.6</ele>
        <time>2020-06-10T09:59:50Z</time>
      </trkpt>
      <trkpt lat="48.60577" lon="-4.10349">
        <ele>83.6</ele>
        <time>2020-06-10T09:59:51Z</time>
      </trkpt>
      <trkpt lat="48.60577" lon="-4.10341">
        <ele>83.7</ele>
        <time>2020-06-10T09:59:52Z</time>
      </trkpt>
      <trkpt lat="48.60578" lon="-4.10333">
        <ele>83.7</ele>
        <time>2020-06-10T09:59:53Z</time>
      </trkpt>
      <trkpt lat="48.60579" lon="-4.10324">
        <ele>83.8</ele>
        <time>2020-06-10T09:59:54Z</time>
      </trkpt>
      <trkpt lat="48.60579" lon="-4.10316">
        <ele>83.8</ele>
        <time>2020-06-10T09:59:55Z</time>
      </trkpt>
      <trkpt lat="48.6058" lon="-4.10308">
        <ele>83.9</ele>
        <time>2020-06-10T09:59:56Z</time>
      </trkpt>
      <trkpt lat="48.60581" lon="-4.10298">
        <ele>83.9</ele>
        <time>2020-06-10T09:59:57Z</time>
      </trkpt>
      <trkpt lat="48.60581" lon="-4.1029">
        <ele>84</ele>
        <time>2020-06-10T09:59:58Z</time>
      </trkpt>
      <trkpt lat="48.60581" lon="-4.10281">
        <ele>83.9</ele>
        <time>2020-06-10T09:59:59Z</time>
      </trkpt>
      <trkpt lat="48.60582" lon="-4.10273">
        <ele>83.9</ele>
        <time>2020-06-10T10:00:00Z</time>
      </trkpt>
      <trkpt lat="48.60582" lon="-4.10265">
        <ele>83.9</ele>
        <time>2020-06-10T10:00:01Z</time>
      </trkpt>
      <trkpt lat="48.60582" lon="-4.10257">
        <ele>83.9</ele>
        <time>2020-06-10T10:00:02Z</time>
      </trkpt>
      <trkpt lat="48.60582" lon="-4.10249">
        <ele>83.9</ele>
        <time>2020-06-10T10:00:03Z</time>
      </trkpt>
      <trkpt lat="48.60583" lon="-4.10241">
        <ele>83.9</ele>
        <time>2020-06-10T10:00:04Z</time>
      </trkpt>
      <trkpt lat="48.60583" lon="-4.10233">
        <ele>84</ele>
        <time>2020-06-10T10:00:05Z</time>
      </trkpt>
      <trkpt lat="48.60584" lon="-4.10225">
        <ele>84</ele>
        <time>2020-06-10T10:00:06Z</time>
      </trkpt>
      <trkpt lat="48.60584" lon="-4.10217">
        <ele>84.1</ele>
        <time>2020-06-10T10:00:07Z</time>
      </trkpt>
      <trkpt lat="48.60585" lon="-4.10208">
        <ele>84.2</ele>
        <time>2020-06-10T10:00:08Z</time>
      </trkpt>
      <trkpt lat="48.60586" lon="-4.102">
        <ele>84.2</ele>
        <time>2020-06-10T10:00:09Z</time>
      </trkpt>
      <trkpt lat="48.60586" lon="-4.10191">
        <ele>84.3</ele>
        <time>2020-06-10T10:00:10Z</time>
      </trkpt>
      <trkpt lat="48.60586" lon="-4.10182">
        <ele>84.3</ele>
        <time>2020-06-10T10:00:11Z</time>
      </trkpt>
      <trkpt lat="48.60587" lon="-4.10174">
        <ele>84.4</ele>
        <time>2020-06-10T10:00:12Z</time>
      </trkpt>
      <trkpt lat="48.60588" lon="-4.10166">
        <ele>84.5</ele>
        <time>2020-06-10T10:00:13Z</time>
      </trkpt>
      <trkpt lat="48.60588" lon="-4.10155">
        <ele>84.6</ele>
        <time>2020-06-10T10:00:14Z</time>
      </trkpt>
      <trkpt lat="48.60588" lon="-4.10147">
        <ele>84.7</ele>
        <time>2020-06-10T10:00:15Z</time>
      </trkpt>
      <trkpt lat="48.60589" lon="-4.10137">
        <ele>84.8</ele>
        <time>2020-06-10T10:00:16Z</time>
      </trkpt>
      <trkpt lat="48.6059" lon="-4.1013">
        <ele>84.8</ele>
        <time>2020-06-10T10:00:17Z</time>
      </trkpt>
      <trkpt lat="48.60591" lon="-4.10126">
        <ele>84.9</ele>
        <time>2020-06-10T10:00:18Z</time>
      </trkpt>
      <trkpt lat="48.60592" lon="-4.10117">
        <ele>85</ele>
        <time>2020-06-10T10:00:19Z</time>
      </trkpt>
      <trkpt lat="48.60592" lon="-4.1011">
        <ele>85.1</ele>
        <time>2020-06-10T10:00:20Z</time>
      </trkpt>
      <trkpt lat="48.60593" lon="-4.10102">
        <ele>85.2</ele>
        <time>2020-06-10T10:00:21Z</time>
      </trkpt>
      <trkpt lat="48.60594" lon="-4.10093">
        <ele>85.2</ele>
        <time>2020-06-10T10:00:22Z</time>
      </trkpt>
      <trkpt lat="48.60595" lon="-4.10084">
        <ele>85.2</ele>
        <time>2020-06-10T10:00:23Z</time>
      </trkpt>
      <trkpt lat="48.60595" lon="-4.10076">
        <ele>85.3</ele>
        <time>2020-06-10T10:00:24Z</time>
      </trkpt>
      <trkpt lat="48.60596" lon="-4.10068">
        <ele>85.3</ele>
        <time>2020-06-10T10:00:25Z</time>
      </trkpt>
      <trkpt lat="48.60597" lon="-4.10061">
        <ele>85.4</ele>
        <time>2020-06-10T10:00:26Z</time>
      </trkpt>
      <trkpt lat="48.60598" lon="-4.10052">
        <ele>85.4</ele>
        <time>2020-06-10T10:00:27Z</time>
      </trkpt>
      <trkpt lat="48.60598" lon="-4.10044">
        <ele>85.5</ele>
        <time>2020-06-10T10:00:28Z</time>
      </trkpt>
      <trkpt lat="48.60599" lon="-4.10035">
        <ele>85.5</ele>
        <time>2020-06-10T10:00:29Z</time>
      </trkpt>
      <trkpt lat="48.606" lon="-4.10028">
        <ele>85.6</ele>
        <time>2020-06-10T10:00:30Z</time>
      </trkpt>
      <trkpt lat="48.60601" lon="-4.10019">
        <ele>85.7</ele>
        <time>2020-06-10T10:00:31Z</time>
      </trkpt>
      <trkpt lat="48.60601" lon="-4.1001">
        <ele>85.7</ele>
        <time>2020-06-10T10:00:32Z</time>
      </trkpt>
      <trkpt lat="48.60602" lon="-4.10002">
        <ele>85.8</ele>
        <time>2020-06-10T10:00:33Z</time>
      </trkpt>
      <trkpt lat="48.60603" lon="-4.09994">
        <ele>86</ele>
        <time>2020-06-10T10:00:34Z</time>
      </trkpt>
      <trkpt lat="48.60603" lon="-4.09986">
        <ele>86.1</ele>
        <time>2020-06-10T10:00:35Z</time>
      </trkpt>
      <trkpt lat="48.60604" lon="-4.09978">
        <ele>86.2</ele>
        <time>2020-06-10T10:00:36Z</time>
      </trkpt>
      <trkpt lat="48.60605" lon="-4.0997">
        <ele>86.4</ele>
        <time>2020-06-10T10:00:37Z</time>
      </trkpt>
      <trkpt lat="48.60606" lon="-4.09963">
        <ele>86.5</ele>
        <time>2020-06-10T10:00:38Z</time>
      </trkpt>
      <trkpt lat="48.60606" lon="-4.09956">
        <ele>86.6</ele>
        <time>2020-06-10T10:00:39Z</time>
      </trkpt>
      <trkpt lat="48.60607" lon="-4.09948">
        <ele>86.7</ele>
        <time>2020-06-10T10:00:40Z</time>
      </trkpt>
      <trkpt lat="48.60608" lon="-4.0994">
        <ele>86.9</ele>
        <time>2020-06-10T10:00:41Z</time>
      </trkpt>
      <trkpt lat="48.60609" lon="-4.09932">
        <ele>87</ele>
        <time>2020-06-10T10:00:42Z</time>
      </trkpt>
      <trkpt lat="48.6061" lon="-4.09924">
        <ele>87.1</ele>
        <time>2020-06-10T10:00:43Z</time>
      </trkpt>
      <trkpt lat="48.6061" lon="-4.09916">
        <ele>87.2</ele>
        <time>2020-06-10T10:00:44Z</time>
      </trkpt>
      <trkpt lat="48.60611" lon="-4.09908">
        <ele>87.3</ele>
        <time>2020-06-10T10:00:45Z</time>
      </trkpt>
      <trkpt lat="48.60612" lon="-4.099">
        <ele>87.4</ele>
        <time>2020-06-10T10:00:46Z</time>
      </trkpt>
      <trkpt lat="48.60613" lon="-4.09892">
        <ele>87.6</ele>
        <time>2020-06-10T10:00:47Z</time>
      </trkpt>
      <trkpt lat="48.60614" lon="-4.09886">
        <ele>87.7</ele>
        <time>2020-06-10T10:00:48Z</time>
      </trkpt>
      <trkpt lat="48.60615" lon="-4.09879">
        <ele>87.9</ele>
        <time>2020-06-10T10:00:49Z</time>
      </trkpt>
      <trkpt lat="48.60617" lon="-4.09871">
        <ele>88.1</ele>
        <time>2020-06-10T10:00:50Z</time>
      </trkpt>
      <trkpt lat="48.60618" lon="-4.09865">
        <ele>88.2</ele>
        <time>2020-06-10T10:00:51Z</time>
      </trkpt>
      <trkpt lat="48.6062" lon="-4.0986">
        <ele>88.3</ele>
        <time>2020-06-10T10:00:52Z</time>
      </trkpt>
      <trkpt lat="48.60621" lon="-4.09854">
        <ele>88.4</ele>
        <time>2020-06-10T10:00:53Z</time>
      </trkpt>
      <trkpt lat="48.60623" lon="-4.09846">
        <ele>88.6</ele>
        <time>2020-06-10T10:00:54Z</time>
      </trkpt>
      <trkpt lat="48.60624" lon="-4.0984">
        <ele>88.6</ele>
        <time>2020-06-10T10:00:55Z</time>
      </trkpt>
      <trkpt lat="48.60625" lon="-4.09829">
        <ele>88.7</ele>
        <time>2020-06-10T10:00:56Z</time>
      </trkpt>
      <trkpt lat="48.60624" lon="-4.09824">
        <ele>88.8</ele>
        <time>2020-06-10T10:00:57Z</time>
      </trkpt>
      <trkpt lat="48.60623" lon="-4.09819">
        <ele>88.7</ele>
        <time>2020-06-10T10:00:58Z</time>
      </trkpt>
      <trkpt lat="48.60619" lon="-4.09813">
        <ele>88.7</ele>
        <time>2020-06-10T10:00:59Z</time>
      </trkpt>
      <trkpt lat="48.60614" lon="-4.09807">
        <ele>88.6</ele>
        <time>2020-06-10T10:01:00Z</time>
      </trkpt>
      <trkpt lat="48.6061" lon="-4.09804">
        <ele>88.5</ele>
        <time>2020-06-10T10:01:01Z</time>
      </trkpt>
      <trkpt lat="48.60605" lon="-4.09801">
        <ele>88.5</ele>
        <time>2020-06-10T10:01:02Z</time>
      </trkpt>
      <trkpt lat="48.606" lon="-4.09799">
        <ele>88.4</ele>
        <time>2020-06-10T10:01:03Z</time>
      </trkpt>
      <trkpt lat="48.60596" lon="-4.09798">
        <ele>88.3</ele>
        <time>2020-06-10T10:01:04Z</time>
      </trkpt>
      <trkpt lat="48.60592" lon="-4.09794">
        <ele>88.2</ele>
        <time>2020-06-10T10:01:05Z</time>
      </trkpt>
      <trkpt lat="48.60588" lon="-4.09792">
        <ele>88.2</ele>
        <time>2020-06-10T10:01:06Z</time>
      </trkpt>
      <trkpt lat="48.60584" lon="-4.09789">
        <ele>88.1</ele>
        <time>2020-06-10T10:01:07Z</time>
      </trkpt>
      <trkpt lat="48.6058" lon="-4.09787">
        <ele>88</ele>
        <time>2020-06-10T10:01:08Z</time>
      </trkpt>
      <trkpt lat="48.60576" lon="-4.09784">
        <ele>87.9</ele>
        <time>2020-06-10T10:01:09Z</time>
      </trkpt>
      <trkpt lat="48.60571" lon="-4.0978">
        <ele>87.9</ele>
        <time>2020-06-10T10:01:10Z</time>
      </trkpt>
      <trkpt lat="48.60568" lon="-4.09778">
        <ele>87.8</ele>
        <time>2020-06-10T10:01:11Z</time>
      </trkpt>
      <trkpt lat="48.60565" lon="-4.09776">
        <ele>87.8</ele>
        <time>2020-06-10T10:01:12Z</time>
      </trkpt>
      <trkpt lat="48.60561" lon="-4.09774">
        <ele>87.7</ele>
        <time>2020-06-10T10:01:13Z</time>
      </trkpt>
      <trkpt lat="48.6056" lon="-4.09774">
        <ele>87.7</ele>
        <time>2020-06-10T10:01:14Z</time>
      </trkpt>
      <trkpt lat="48.6056" lon="-4.09774">
        <ele>87.7</ele>
        <time>2020-06-10T10:01:15Z</time>
      </trkpt>
      <trkpt lat="48.6056" lon="-4.09775">
        <ele>87.7</ele>
        <time>2020-06-10T10:01:16Z</time>
      </trkpt>
      <trkpt lat="48.60561" lon="-4.09776">
        <ele>87.7</ele>
        <time>2020-06-10T10:01:17Z</time>
      </trkpt>
      <trkpt lat="48.6056" lon="-4.09776">
        <ele>87.7</ele>
        <time>2020-06-10T10:01:18Z</time>
      </trkpt>
      <trkpt lat="48.6056" lon="-4.09776">
        <ele>87.7</ele>
        <time>2020-06-10T10:01:19Z</time>
      </trkpt>
      <trkpt lat="48.6056" lon="-4.09776">
        <ele>87.7</ele>
        <time>2020-06-10T10:01:20Z</time>
      </trkpt>
      <trkpt lat="48.60561" lon="-4.09776">
        <ele>87.7</ele>
        <time>2020-06-10T10:01:21Z</time>
      </trkpt>
      <trkpt lat="48.60561" lon="-4.09777">
        <ele>87.7</ele>
        <time>2020-06-10T10:01:22Z</time>
      </trkpt>
      <trkpt lat="48.60562" lon="-4.09778">
        <ele>87.7</ele>
        <time>2020-06-10T10:01:23Z</time>
      </trkpt>
      <trkpt lat="48.60561" lon="-4.09777">
        <ele>87.7</ele>
        <time>2020-06-10T10:01:24Z</time>
      </trkpt>
      <trkpt lat="48.60559" lon="-4.09775">
        <ele>87.7</ele>
        <time>2020-06-10T10:01:25Z</time>
      </trkpt>
      <trkpt lat="48.60558" lon="-4.09774">
        <ele>87.7</ele>
        <time>2020-06-10T10:01:26Z</time>
      </trkpt>
      <trkpt lat="48.60557" lon="-4.09773">
        <ele>87.7</ele>
        <time>2020-06-10T10:02:18Z</time>
      </trkpt>
      <trkpt lat="48.60556" lon="-4.09771">
        <ele>87.7</ele>
        <time>2020-06-10T10:02:19Z</time>
      </trkpt>
      <trkpt lat="48.60554" lon="-4.09768">
        <ele>87.7</ele>
        <time>2020-06-10T10:02:20Z</time>
      </trkpt>
      <trkpt lat="48.60552" lon="-4.09765">
        <ele>87.7</ele>
        <time>2020-06-10T10:02:21Z</time>
      </trkpt>
      <trkpt lat="48.60552" lon="-4.09764">
        <ele>87.7</ele>
        <time>2020-06-10T10:02:22Z</time>
      </trkpt>
      <trkpt lat="48.60549" lon="-4.0976">
        <ele>87.7</ele>
        <time>2020-06-10T10:02:23Z</time>
      </trkpt>
      <trkpt lat="48.60548" lon="-4.09759">
        <ele>87.7</ele>
        <time>2020-06-10T10:02:24Z</time>
      </trkpt>
      <trkpt lat="48.60545" lon="-4.09755">
        <ele>87.7</ele>
        <time>2020-06-10T10:02:25Z</time>
      </trkpt>
      <trkpt lat="48.60544" lon="-4.09754">
        <ele>87.7</ele>
        <time>2020-06-10T10:02:26Z</time>
      </trkpt>
      <trkpt lat="48.60542" lon="-4.09751">
        <ele>87.7</ele>
        <time>2020-06-10T10:02:27Z</time>
      </trkpt>
      <trkpt lat="48.60541" lon="-4.09749">
        <ele>87.7</ele>
        <time>2020-06-10T10:02:28Z</time>
      </trkpt>
      <trkpt lat="48.60539" lon="-4.09746">
        <ele>87.7</ele>
        <time>2020-06-10T10:02:29Z</time>
      </trkpt>
      <trkpt lat="48.60538" lon="-4.09745">
        <ele>87.7</ele>
        <time>2020-06-10T10:02:30Z</time>
      </trkpt>
      <trkpt lat="48.60535" lon="-4.09743">
        <ele>87.7</ele>
        <time>2020-06-10T10:02:31Z</time>
      </trkpt>
      <trkpt lat="48.60534" lon="-4.09742">
        <ele>87.7</ele>
        <time>2020-06-10T10:02:32Z</time>
      </trkpt>
      <trkpt lat="48.60533" lon="-4.0974">
        <ele>87.7</ele>
        <time>2020-06-10T10:02:33Z</time>
      </trkpt>
      <trkpt lat="48.60532" lon="-4.09737">
        <ele>87.7</ele>
        <time>2020-06-10T10:02:34Z</time>
      </trkpt>
      <trkpt lat="48.60531" lon="-4.09734">
        <ele>87.7</ele>
        <time>2020-06-10T10:02:35Z</time>
      </trkpt>
      <trkpt lat="48.6053" lon="-4.09732">
        <ele>87.7</ele>
        <time>2020-06-10T10:02:36Z</time>
      </trkpt>
      <trkpt lat="48.60528" lon="-4.09727">
        <ele>87.7</ele>
        <time>2020-06-10T10:02:37Z</time>
      </trkpt>
      <trkpt lat="48.60527" lon="-4.09725">
        <ele>87.6</ele>
        <time>2020-06-10T10:02:38Z</time>
      </trkpt>
      <trkpt lat="48.60526" lon="-4.09719">
        <ele>87.6</ele>
        <time>2020-06-10T10:02:39Z</time>
      </trkpt>
      <trkpt lat="48.60524" lon="-4.09712">
        <ele>87.6</ele>
        <time>2020-06-10T10:02:40Z</time>
      </trkpt>
      <trkpt lat="48.60523" lon="-4.09707">
        <ele>87.5</ele>
        <time>2020-06-10T10:02:41Z</time>
      </trkpt>
      <trkpt lat="48.60521" lon="-4.097">
        <ele>87.4</ele>
        <time>2020-06-10T10:02:42Z</time>
      </trkpt>
      <trkpt lat="48.60518" lon="-4.09693">
        <ele>87.4</ele>
        <time>2020-06-10T10:02:43Z</time>
      </trkpt>
      <trkpt lat="48.60516" lon="-4.09687">
        <ele>87.3</ele>
        <time>2020-06-10T10:02:44Z</time>
      </trkpt>
      <trkpt lat="48.60514" lon="-4.09679">
        <ele>87.2</ele>
        <time>2020-06-10T10:02:45Z</time>
      </trkpt>
      <trkpt lat="48.60512" lon="-4.09669">
        <ele>87</ele>
        <time>2020-06-10T10:02:46Z</time>
      </trkpt>
      <trkpt lat="48.6051" lon="-4.09662">
        <ele>86.9</ele>
        <time>2020-06-10T10:02:47Z</time>
      </trkpt>
      <trkpt lat="48.60508" lon="-4.09655">
        <ele>86.7</ele>
        <time>2020-06-10T10:02:48Z</time>
      </trkpt>
      <trkpt lat="48.60505" lon="-4.09646">
        <ele>86.5</ele>
        <time>2020-06-10T10:02:49Z</time>
      </trkpt>
      <trkpt lat="48.60503" lon="-4.09636">
        <ele>86.2</ele>
        <time>2020-06-10T10:02:50Z</time>
      </trkpt>
      <trkpt lat="48.60501" lon="-4.09628">
        <ele>86</ele>
        <time>2020-06-10T10:02:51Z</time>
      </trkpt>
      <trkpt lat="48.60501" lon="-4.09618">
        <ele>85.7</ele>
        <time>2020-06-10T10:02:52Z</time>
      </trkpt>
      <trkpt lat="48.605" lon="-4.09609">
        <ele>85.5</ele>
        <time>2020-06-10T10:02:53Z</time>
      </trkpt>
      <trkpt lat="48.60499" lon="-4.09599">
        <ele>85.2</ele>
        <time>2020-06-10T10:02:54Z</time>
      </trkpt>
      <trkpt lat="48.60497" lon="-4.09588">
        <ele>84.9</ele>
        <time>2020-06-10T10:02:55Z</time>
      </trkpt>
      <trkpt lat="48.60495" lon="-4.09576">
        <ele>84.5</ele>
        <time>2020-06-10T10:02:56Z</time>
      </trkpt>
      <trkpt lat="48.60494" lon="-4.09565">
        <ele>84.2</ele>
        <time>2020-06-10T10:02:57Z</time>
      </trkpt>
      <trkpt lat="48.60492" lon="-4.09554">
        <ele>83.9</ele>
        <time>2020-06-10T10:02:58Z</time>
      </trkpt>
      <trkpt lat="48.6049" lon="-4.09542">
        <ele>83.6</ele>
        <time>2020-06-10T10:02:59Z</time>
      </trkpt>
      <trkpt lat="48.60487" lon="-4.09531">
        <ele>83.3</ele>
        <time>2020-06-10T10:03:00Z</time>
      </trkpt>
      <trkpt lat="48.60484" lon="-4.0952">
        <ele>83</ele>
        <time>2020-06-10T10:03:01Z</time>
      </trkpt>
      <trkpt lat="48.6048" lon="-4.09509">
        <ele>82.3</ele>
        <time>2020-06-10T10:03:02Z</time>
      </trkpt>
      <trkpt lat="48.60477" lon="-4.09498">
        <ele>81.9</ele>
        <time>2020-06-10T10:03:03Z</time>
      </trkpt>
      <trkpt lat="48.60473" lon="-4.09488">
        <ele>81.7</ele>
        <time>2020-06-10T10:03:04Z</time>
      </trkpt>
      <trkpt lat="48.6047" lon="-4.09476">
        <ele>81.5</ele>
        <time>2020-06-10T10:03:05Z</time>
      </trkpt>
      <trkpt lat="48.60466" lon="-4.09465">
        <ele>81.3</ele>
        <time>2020-06-10T10:03:06Z</time>
      </trkpt>
      <trkpt lat="48.60463" lon="-4.09454">
        <ele>81.2</ele>
        <time>2020-06-10T10:03:07Z</time>
      </trkpt>
      <trkpt lat="48.60459" lon="-4.09443">
        <ele>81.1</ele>
        <time>2020-06-10T10:03:08Z</time>
      </trkpt>
      <trkpt lat="48.60456" lon="-4.09432">
        <ele>81</ele>
        <time>2020-06-10T10:03:09Z</time>
      </trkpt>
      <trkpt lat="48.60453" lon="-4.09421">
        <ele>81</ele>
        <time>2020-06-10T10:03:10Z</time>
      </trkpt>
      <trkpt lat="48.6045" lon="-4.0941">
        <ele>81</ele>
        <time>2020-06-10T10:03:11Z</time>
      </trkpt>
      <trkpt lat="48.60447" lon="-4.094">
        <ele>80.9</ele>
        <time>2020-06-10T10:03:12Z</time>
      </trkpt>
      <trkpt lat="48.60444" lon="-4.09389">
        <ele>80.9</ele>
        <time>2020-06-10T10:03:13Z</time>
      </trkpt>
      <trkpt lat="48.60442" lon="-4.09379">
        <ele>80.8</ele>
        <time>2020-06-10T10:03:14Z</time>
      </trkpt>
      <trkpt lat="48.60439" lon="-4.09369">
        <ele>80.7</ele>
        <time>2020-06-10T10:03:15Z</time>
      </trkpt>
      <trkpt lat="48.60436" lon="-4.09358">
        <ele>80.6</ele>
        <time>2020-06-10T10:03:16Z</time>
      </trkpt>
      <trkpt lat="48.60433" lon="-4.09348">
        <ele>80.5</ele>
        <time>2020-06-10T10:03:17Z</time>
      </trkpt>
      <trkpt lat="48.6043" lon="-4.09338">
        <ele>80.4</ele>
        <time>2020-06-10T10:03:18Z</time>
      </trkpt>
      <trkpt lat="48.60427" lon="-4.09327">
        <ele>80.3</ele>
        <time>2020-06-10T10:03:19Z</time>
      </trkpt>
      <trkpt lat="48.60424" lon="-4.09317">
        <ele>80.2</ele>
        <time>2020-06-10T10:03:20Z</time>
      </trkpt>
      <trkpt lat="48.60422" lon="-4.09307">
        <ele>80.1</ele>
        <time>2020-06-10T10:03:21Z</time>
      </trkpt>
      <trkpt lat="48.60419" lon="-4.09297">
        <ele>80</ele>
        <time>2020-06-10T10:03:22Z</time>
      </trkpt>
      <trkpt lat="48.60416" lon="-4.09288">
        <ele>80</ele>
        <time>2020-06-10T10:03:23Z</time>
      </trkpt>
      <trkpt lat="48.60414" lon="-4.09278">
        <ele>79.9</ele>
        <time>2020-06-10T10:03:24Z</time>
      </trkpt>
      <trkpt lat="48.60411" lon="-4.09268">
        <ele>79.7</ele>
        <time>2020-06-10T10:03:25Z</time>
      </trkpt>
      <trkpt lat="48.60408" lon="-4.09259">
        <ele>79.5</ele>
        <time>2020-06-10T10:03:26Z</time>
      </trkpt>
      <trkpt lat="48.60406" lon="-4.09249">
        <ele>79.3</ele>
        <time>2020-06-10T10:03:27Z</time>
      </trkpt>
      <trkpt lat="48.60403" lon="-4.09239">
        <ele>79.1</ele>
        <time>2020-06-10T10:03:28Z</time>
      </trkpt>
      <trkpt lat="48.604" lon="-4.09229">
        <ele>78.9</ele>
        <time>2020-06-10T10:03:29Z</time>
      </trkpt>
      <trkpt lat="48.60398" lon="-4.09219">
        <ele>78.7</ele>
        <time>2020-06-10T10:03:30Z</time>
      </trkpt>
      <trkpt lat="48.60395" lon="-4.0921">
        <ele>78.5</ele>
        <time>2020-06-10T10:03:31Z</time>
      </trkpt>
      <trkpt lat="48.60392" lon="-4.092">
        <ele>78.3</ele>
        <time>2020-06-10T10:03:32Z</time>
      </trkpt>
      <trkpt lat="48.60389" lon="-4.09191">
        <ele>78</ele>
        <time>2020-06-10T10:03:33Z</time>
      </trkpt>
      <trkpt lat="48.60386" lon="-4.09182">
        <ele>77.7</ele>
        <time>2020-06-10T10:03:34Z</time>
      </trkpt>
      <trkpt lat="48.60383" lon="-4.09173">
        <ele>77.4</ele>
        <time>2020-06-10T10:03:35Z</time>
      </trkpt>
      <trkpt lat="48.6038" lon="-4.09163">
        <ele>77</ele>
        <time>2020-06-10T10:03:36Z</time>
      </trkpt>
      <trkpt lat="48.60376" lon="-4.09153">
        <ele>76.5</ele>
        <time>2020-06-10T10:03:37Z</time>
      </trkpt>
      <trkpt lat="48.60373" lon="-4.09143">
        <ele>76</ele>
        <time>2020-06-10T10:03:38Z</time>
      </trkpt>
      <trkpt lat="48.6037" lon="-4.09132">
        <ele>75.5</ele>
        <time>2020-06-10T10:03:39Z</time>
      </trkpt>
      <trkpt lat="48.60367" lon="-4.09121">
        <ele>74.9</ele>
        <time>2020-06-10T10:03:40Z</time>
      </trkpt>
      <trkpt lat="48.60363" lon="-4.0911">
        <ele>74.3</ele>
        <time>2020-06-10T10:03:41Z</time>
      </trkpt>
      <trkpt lat="48.6036" lon="-4.09098">
        <ele>73.7</ele>
        <time>2020-06-10T10:03:42Z</time>
      </trkpt>
      <trkpt lat="48.60356" lon="-4.09085">
        <ele>73.1</ele>
        <time>2020-06-10T10:03:43Z</time>
      </trkpt>
      <trkpt lat="48.60353" lon="-4.09072">
        <ele>72.4</ele>
        <time>2020-06-10T10:03:44Z</time>
      </trkpt>
      <trkpt lat="48.60351" lon="-4.09059">
        <ele>71.6</ele>
        <time>2020-06-10T10:03:45Z</time>
      </trkpt>
      <trkpt lat="48.60347" lon="-4.09045">
        <ele>70.8</ele>
        <time>2020-06-10T10:03:46Z</time>
      </trkpt>
      <trkpt lat="48.60344" lon="-4.09031">
        <ele>70.1</ele>
        <time>2020-06-10T10:03:47Z</time>
      </trkpt>
      <trkpt lat="48.60341" lon="-4.09017">
        <ele>69.3</ele>
        <time>2020-06-10T10:03:48Z</time>
      </trkpt>
      <trkpt lat="48.60338" lon="-4.09002">
        <ele>68.5</ele>
        <time>2020-06-10T10:03:49Z</time>
      </trkpt>
      <trkpt lat="48.60335" lon="-4.08987">
        <ele>67.7</ele>
        <time>2020-06-10T10:03:50Z</time>
      </trkpt>
      <trkpt lat="48.60332" lon="-4.08972">
        <ele>66.9</ele>
        <time>2020-06-10T10:03:51Z</time>
      </trkpt>
      <trkpt lat="48.60328" lon="-4.08957">
        <ele>66.2</ele>
        <time>2020-06-10T10:03:52Z</time>
      </trkpt>
      <trkpt lat="48.60325" lon="-4.08941">
        <ele>65.5</ele>
        <time>2020-06-10T10:03:53Z</time>
      </trkpt>
      <trkpt lat="48.60321" lon="-4.08925">
        <ele>65</ele>
        <time>2020-06-10T10:03:54Z</time>
      </trkpt>
      <trkpt lat="48.60317" lon="-4.08909">
        <ele>64.7</ele>
        <time>2020-06-10T10:03:55Z</time>
      </trkpt>
      <trkpt lat="48.60314" lon="-4.08892">
        <ele>64.6</ele>
        <time>2020-06-10T10:03:56Z</time>
      </trkpt>
      <trkpt lat="48.60311" lon="-4.08875">
        <ele>64.4</ele>
        <time>2020-06-10T10:03:57Z</time>
      </trkpt>
      <trkpt lat="48.60308" lon="-4.08859">
        <ele>63.8</ele>
        <time>2020-06-10T10:03:58Z</time>
      </trkpt>
      <trkpt lat="48.60305" lon="-4.08844">
        <ele>63.3</ele>
        <time>2020-06-10T10:03:59Z</time>
      </trkpt>
      <trkpt lat="48.60302" lon="-4.08828">
        <ele>63</ele>
        <time>2020-06-10T10:04:00Z</time>
      </trkpt>
      <trkpt lat="48.60299" lon="-4.08813">
        <ele>62.8</ele>
        <time>2020-06-10T10:04:01Z</time>
      </trkpt>
      <trkpt lat="48.60296" lon="-4.08799">
        <ele>62.7</ele>
        <time>2020-06-10T10:04:02Z</time>
      </trkpt>
      <trkpt lat="48.60293" lon="-4.08785">
        <ele>62.7</ele>
        <time>2020-06-10T10:04:03Z</time>
      </trkpt>
      <trkpt lat="48.6029" lon="-4.08771">
        <ele>62.8</ele>
        <time>2020-06-10T10:04:04Z</time>
      </trkpt>
      <trkpt lat="48.60287" lon="-4.08758">
        <ele>62.9</ele>
        <time>2020-06-10T10:04:05Z</time>
      </trkpt>
      <trkpt lat="48.60284" lon="-4.08745">
        <ele>63.1</ele>
        <time>2020-06-10T10:04:06Z</time>
      </trkpt>
      <trkpt lat="48.60281" lon="-4.08733">
        <ele>63.3</ele>
        <time>2020-06-10T10:04:07Z</time>
      </trkpt>
      <trkpt lat="48.60278" lon="-4.08721">
        <ele>63.6</ele>
        <time>2020-06-10T10:04:08Z</time>
      </trkpt>
      <trkpt lat="48.60275" lon="-4.0871">
        <ele>63.8</ele>
        <time>2020-06-10T10:04:09Z</time>
      </trkpt>
      <trkpt lat="48.60273" lon="-4.08699">
        <ele>64.1</ele>
        <time>2020-06-10T10:04:10Z</time>
      </trkpt>
      <trkpt lat="48.60271" lon="-4.08688">
        <ele>64.4</ele>
        <time>2020-06-10T10:04:11Z</time>
      </trkpt>
      <trkpt lat="48.60268" lon="-4.08678">
        <ele>64.6</ele>
        <time>2020-06-10T10:04:12Z</time>
      </trkpt>
      <trkpt lat="48.60266" lon="-4.08668">
        <ele>64.9</ele>
        <time>2020-06-10T10:04:13Z</time>
      </trkpt>
      <trkpt lat="48.60265" lon="-4.08658">
        <ele>65.2</ele>
        <time>2020-06-10T10:04:14Z</time>
      </trkpt>
      <trkpt lat="48.60263" lon="-4.08649">
        <ele>65.4</ele>
        <time>2020-06-10T10:04:15Z</time>
      </trkpt>
      <trkpt lat="48.60261" lon="-4.08639">
        <ele>65.6</ele>
        <time>2020-06-10T10:04:16Z</time>
      </trkpt>
      <trkpt lat="48.60259" lon="-4.0863">
        <ele>65.8</ele>
        <time>2020-06-10T10:04:17Z</time>
      </trkpt>
      <trkpt lat="48.60257" lon="-4.08621">
        <ele>66</ele>
        <time>2020-06-10T10:04:18Z</time>
      </trkpt>
      <trkpt lat="48.60255" lon="-4.08612">
        <ele>66.2</ele>
        <time>2020-06-10T10:04:19Z</time>
      </trkpt>
      <trkpt lat="48.60253" lon="-4.08603">
        <ele>66.4</ele>
        <time>2020-06-10T10:04:20Z</time>
      </trkpt>
      <trkpt lat="48.60252" lon="-4.08594">
        <ele>66.6</ele>
        <time>2020-06-10T10:04:21Z</time>
      </trkpt>
      <trkpt lat="48.60249" lon="-4.08585">
        <ele>66.7</ele>
        <time>2020-06-10T10:04:22Z</time>
      </trkpt>
      <trkpt lat="48.60247" lon="-4.08577">
        <ele>66.9</ele>
        <time>2020-06-10T10:04:23Z</time>
      </trkpt>
      <trkpt lat="48.60244" lon="-4.08569">
        <ele>67</ele>
        <time>2020-06-10T10:04:24Z</time>
      </trkpt>
      <trkpt lat="48.60242" lon="-4.0856">
        <ele>67.2</ele>
        <time>2020-06-10T10:04:25Z</time>
      </trkpt>
      <trkpt lat="48.60238" lon="-4.08552">
        <ele>67.4</ele>
        <time>2020-06-10T10:04:26Z</time>
      </trkpt>
      <trkpt lat="48.60235" lon="-4.08544">
        <ele>67.6</ele>
        <time>2020-06-10T10:04:27Z</time>
      </trkpt>
      <trkpt lat="48.60232" lon="-4.08537">
        <ele>67.8</ele>
        <time>2020-06-10T10:04:28Z</time>
      </trkpt>
      <trkpt lat="48.60228" lon="-4.0853">
        <ele>68</ele>
        <time>2020-06-10T10:04:29Z</time>
      </trkpt>
      <trkpt lat="48.60224" lon="-4.08524">
        <ele>68.2</ele>
        <time>2020-06-10T10:04:30Z</time>
      </trkpt>
      <trkpt lat="48.6022" lon="-4.08518">
        <ele>68.4</ele>
        <time>2020-06-10T10:04:31Z</time>
      </trkpt>
      <trkpt lat="48.60216" lon="-4.08512">
        <ele>68.7</ele>
        <time>2020-06-10T10:04:32Z</time>
      </trkpt>
      <trkpt lat="48.60213" lon="-4.08507">
        <ele>68.9</ele>
        <time>2020-06-10T10:04:33Z</time>
      </trkpt>
      <trkpt lat="48.60209" lon="-4.08502">
        <ele>69.1</ele>
        <time>2020-06-10T10:04:34Z</time>
      </trkpt>
      <trkpt lat="48.60205" lon="-4.08497">
        <ele>69.4</ele>
        <time>2020-06-10T10:04:35Z</time>
      </trkpt>
      <trkpt lat="48.60201" lon="-4.08494">
        <ele>69.6</ele>
        <time>2020-06-10T10:04:36Z</time>
      </trkpt>
      <trkpt lat="48.60197" lon="-4.0849">
        <ele>69.7</ele>
        <time>2020-06-10T10:04:37Z</time>
      </trkpt>
      <trkpt lat="48.60194" lon="-4.08487">
        <ele>69.8</ele>
        <time>2020-06-10T10:04:38Z</time>
      </trkpt>
      <trkpt lat="48.60191" lon="-4.08484">
        <ele>69.8</ele>
        <time>2020-06-10T10:04:39Z</time>
      </trkpt>
      <trkpt lat="48.60188" lon="-4.08481">
        <ele>69.9</ele>
        <time>2020-06-10T10:04:40Z</time>
      </trkpt>
      <trkpt lat="48.60184" lon="-4.08478">
        <ele>70</ele>
        <time>2020-06-10T10:04:41Z</time>
      </trkpt>
      <trkpt lat="48.6018" lon="-4.08475">
        <ele>70</ele>
        <time>2020-06-10T10:04:42Z</time>
      </trkpt>
      <trkpt lat="48.60176" lon="-4.08474">
        <ele>70</ele>
        <time>2020-06-10T10:04:43Z</time>
      </trkpt>
      <trkpt lat="48.60171" lon="-4.08471">
        <ele>70.1</ele>
        <time>2020-06-10T10:04:44Z</time>
      </trkpt>
      <trkpt lat="48.60167" lon="-4.08468">
        <ele>70.1</ele>
        <time>2020-06-10T10:04:45Z</time>
      </trkpt>
      <trkpt lat="48.60163" lon="-4.08465">
        <ele>70</ele>
        <time>2020-06-10T10:04:46Z</time>
      </trkpt>
      <trkpt lat="48.60158" lon="-4.08463">
        <ele>70</ele>
        <time>2020-06-10T10:04:47Z</time>
      </trkpt>
      <trkpt lat="48.60153" lon="-4.0846">
        <ele>69.9</ele>
        <time>2020-06-10T10:04:48Z</time>
      </trkpt>
      <trkpt lat="48.60148" lon="-4.08457">
        <ele>69.9</ele>
        <time>2020-06-10T10:04:49Z</time>
      </trkpt>
      <trkpt lat="48.60144" lon="-4.08455">
        <ele>69.8</ele>
        <time>2020-06-10T10:04:50Z</time>
      </trkpt>
      <trkpt lat="48.60139" lon="-4.08453">
        <ele>69.7</ele>
        <time>2020-06-10T10:04:51Z</time>
      </trkpt>
      <trkpt lat="48.60135" lon="-4.08451">
        <ele>69.7</ele>
        <time>2020-06-10T10:04:52Z</time>
      </trkpt>
      <trkpt lat="48.6013" lon="-4.08449">
        <ele>69.6</ele>
        <time>2020-06-10T10:04:53Z</time>
      </trkpt>
      <trkpt lat="48.60125" lon="-4.08446">
        <ele>69.4</ele>
        <time>2020-06-10T10:04:54Z</time>
      </trkpt>
      <trkpt lat="48.6012" lon="-4.08444">
        <ele>69.2</ele>
        <time>2020-06-10T10:04:55Z</time>
      </trkpt>
      <trkpt lat="48.60116" lon="-4.08441">
        <ele>68.9</ele>
        <time>2020-06-10T10:04:56Z</time>
      </trkpt>
      <trkpt lat="48.6011" lon="-4.08438">
        <ele>68.5</ele>
        <time>2020-06-10T10:04:57Z</time>
      </trkpt>
      <trkpt lat="48.60104" lon="-4.08434">
        <ele>68.1</ele>
        <time>2020-06-10T10:04:58Z</time>
      </trkpt>
      <trkpt lat="48.60097" lon="-4.0843">
        <ele>67.7</ele>
        <time>2020-06-10T10:04:59Z</time>
      </trkpt>
      <trkpt lat="48.60091" lon="-4.08425">
        <ele>67.2</ele>
        <time>2020-06-10T10:05:00Z</time>
      </trkpt>
      <trkpt lat="48.60084" lon="-4.0842">
        <ele>66.7</ele>
        <time>2020-06-10T10:05:01Z</time>
      </trkpt>
      <trkpt lat="48.60077" lon="-4.08414">
        <ele>66.2</ele>
        <time>2020-06-10T10:05:02Z</time>
      </trkpt>
      <trkpt lat="48.60071" lon="-4.08406">
        <ele>65.8</ele>
        <time>2020-06-10T10:05:03Z</time>
      </trkpt>
      <trkpt lat="48.60065" lon="-4.08399">
        <ele>65.3</ele>
        <time>2020-06-10T10:05:04Z</time>
      </trkpt>
      <trkpt lat="48.6006" lon="-4.0839">
        <ele>64.8</ele>
        <time>2020-06-10T10:05:05Z</time>
      </trkpt>
      <trkpt lat="48.60055" lon="-4.0838">
        <ele>64.3</ele>
        <time>2020-06-10T10:05:06Z</time>
      </trkpt>
      <trkpt lat="48.6005" lon="-4.0837">
        <ele>63.7</ele>
        <time>2020-06-10T10:05:07Z</time>
      </trkpt>
      <trkpt lat="48.60046" lon="-4.08359">
        <ele>63.1</ele>
        <time>2020-06-10T10:05:08Z</time>
      </trkpt>
      <trkpt lat="48.60041" lon="-4.08347">
        <ele>62.5</ele>
        <time>2020-06-10T10:05:09Z</time>
      </trkpt>
      <trkpt lat="48.60037" lon="-4.08335">
        <ele>61.9</ele>
        <time>2020-06-10T10:05:10Z</time>
      </trkpt>
      <trkpt lat="48.60033" lon="-4.08324">
        <ele>61.3</ele>
        <time>2020-06-10T10:05:11Z</time>
      </trkpt>
      <trkpt lat="48.60028" lon="-4.08312">
        <ele>60.9</ele>
        <time>2020-06-10T10:05:12Z</time>
      </trkpt>
      <trkpt lat="48.60024" lon="-4.083">
        <ele>60.5</ele>
        <time>2020-06-10T10:05:13Z</time>
      </trkpt>
      <trkpt lat="48.60019" lon="-4.08288">
        <ele>60.1</ele>
        <time>2020-06-10T10:05:14Z</time>
      </trkpt>
      <trkpt lat="48.60015" lon="-4.08276">
        <ele>59.7</ele>
        <time>2020-06-10T10:05:15Z</time>
      </trkpt>
      <trkpt lat="48.6001" lon="-4.08264">
        <ele>59.4</ele>
        <time>2020-06-10T10:05:16Z</time>
      </trkpt>
      <trkpt lat="48.60006" lon="-4.08253">
        <ele>59.2</ele>
        <time>2020-06-10T10:05:17Z</time>
      </trkpt>
      <trkpt lat="48.60002" lon="-4.08242">
        <ele>59</ele>
        <time>2020-06-10T10:05:18Z</time>
      </trkpt>
      <trkpt lat="48.59997" lon="-4.08231">
        <ele>58.8</ele>
        <time>2020-06-10T10:05:19Z</time>
      </trkpt>
      <trkpt lat="48.59993" lon="-4.0822">
        <ele>58.6</ele>
        <time>2020-06-10T10:05:20Z</time>
      </trkpt>
      <trkpt lat="48.5999" lon="-4.0821">
        <ele>58.4</ele>
        <time>2020-06-10T10:05:21Z</time>
      </trkpt>
      <trkpt lat="48.59986" lon="-4.08199">
        <ele>58.2</ele>
        <time>2020-06-10T10:05:22Z</time>
      </trkpt>
      <trkpt lat="48.59982" lon="-4.08189">
        <ele>58.1</ele>
        <time>2020-06-10T10:05:23Z</time>
      </trkpt>
      <trkpt lat="48.59978" lon="-4.08179">
        <ele>57.9</ele>
        <time>2020-06-10T10:05:24Z</time>
      </trkpt>
      <trkpt lat="48.59974" lon="-4.0817">
        <ele>57.8</ele>
        <time>2020-06-10T10:05:25Z</time>
      </trkpt>
      <trkpt lat="48.5997" lon="-4.0816">
        <ele>57.7</ele>
        <time>2020-06-10T10:05:26Z</time>
      </trkpt>
      <trkpt lat="48.59966" lon="-4.08149">
        <ele>57.6</ele>
        <time>2020-06-10T10:05:27Z</time>
      </trkpt>
      <trkpt lat="48.59961" lon="-4.0814">
        <ele>57.6</ele>
        <time>2020-06-10T10:05:28Z</time>
      </trkpt>
      <trkpt lat="48.59957" lon="-4.08131">
        <ele>57.7</ele>
        <time>2020-06-10T10:05:29Z</time>
      </trkpt>
      <trkpt lat="48.59952" lon="-4.08122">
        <ele>57.8</ele>
        <time>2020-06-10T10:05:30Z</time>
      </trkpt>
      <trkpt lat="48.59946" lon="-4.08113">
        <ele>57.9</ele>
        <time>2020-06-10T10:05:31Z</time>
      </trkpt>
      <trkpt lat="48.59941" lon="-4.08105">
        <ele>57.9</ele>
        <time>2020-06-10T10:05:32Z</time>
      </trkpt>
      <trkpt lat="48.59935" lon="-4.08097">
        <ele>57.9</ele>
        <time>2020-06-10T10:05:33Z</time>
      </trkpt>
      <trkpt lat="48.59929" lon="-4.08089">
        <ele>57.9</ele>
        <time>2020-06-10T10:05:34Z</time>
      </trkpt>
      <trkpt lat="48.59923" lon="-4.08082">
        <ele>58</ele>
        <time>2020-06-10T10:05:35Z</time>
      </trkpt>
      <trkpt lat="48.59918" lon="-4.08075">
        <ele>58.1</ele>
        <time>2020-06-10T10:05:36Z</time>
      </trkpt>
      <trkpt lat="48.59912" lon="-4.08067">
        <ele>58.2</ele>
        <time>2020-06-10T10:05:37Z</time>
      </trkpt>
      <trkpt lat="48.59907" lon="-4.0806">
        <ele>58.2</ele>
        <time>2020-06-10T10:05:38Z</time>
      </trkpt>
      <trkpt lat="48.59901" lon="-4.08053">
        <ele>58.3</ele>
        <time>2020-06-10T10:05:39Z</time>
      </trkpt>
      <trkpt lat="48.59896" lon="-4.08046">
        <ele>58.3</ele>
        <time>2020-06-10T10:05:40Z</time>
      </trkpt>
      <trkpt lat="48.59891" lon="-4.08039">
        <ele>58.4</ele>
        <time>2020-06-10T10:05:41Z</time>
      </trkpt>
      <trkpt lat="48.59886" lon="-4.08032">
        <ele>58.5</ele>
        <time>2020-06-10T10:05:42Z</time>
      </trkpt>
      <trkpt lat="48.59881" lon="-4.08026">
        <ele>58.7</ele>
        <time>2020-06-10T10:05:43Z</time>
      </trkpt>
      <trkpt lat="48.59876" lon="-4.0802">
        <ele>58.9</ele>
        <time>2020-06-10T10:05:44Z</time>
      </trkpt>
      <trkpt lat="48.59872" lon="-4.08013">
        <ele>59.1</ele>
        <time>2020-06-10T10:05:45Z</time>
      </trkpt>
      <trkpt lat="48.59867" lon="-4.08007">
        <ele>59.3</ele>
        <time>2020-06-10T10:05:46Z</time>
      </trkpt>
      <trkpt lat="48.59862" lon="-4.08001">
        <ele>59.6</ele>
        <time>2020-06-10T10:05:47Z</time>
      </trkpt>
      <trkpt lat="48.59858" lon="-4.07996">
        <ele>59.8</ele>
        <time>2020-06-10T10:05:48Z</time>
      </trkpt>
      <trkpt lat="48.59854" lon="-4.0799">
        <ele>60.1</ele>
        <time>2020-06-10T10:05:49Z</time>
      </trkpt>
      <trkpt lat="48.5985" lon="-4.07985">
        <ele>60.3</ele>
        <time>2020-06-10T10:05:50Z</time>
      </trkpt>
      <trkpt lat="48.59845" lon="-4.0798">
        <ele>60.6</ele>
        <time>2020-06-10T10:05:51Z</time>
      </trkpt>
      <trkpt lat="48.59841" lon="-4.07975">
        <ele>60.8</ele>
        <time>2020-06-10T10:05:52Z</time>
      </trkpt>
      <trkpt lat="48.59837" lon="-4.07971">
        <ele>61</ele>
        <time>2020-06-10T10:05:53Z</time>
      </trkpt>
      <trkpt lat="48.59832" lon="-4.07966">
        <ele>61.3</ele>
        <time>2020-06-10T10:05:54Z</time>
      </trkpt>
      <trkpt lat="48.59828" lon="-4.07962">
        <ele>61.5</ele>
        <time>2020-06-10T10:05:55Z</time>
      </trkpt>
      <trkpt lat="48.59824" lon="-4.07958">
        <ele>61.8</ele>
        <time>2020-06-10T10:05:56Z</time>
      </trkpt>
      <trkpt lat="48.5982" lon="-4.07955">
        <ele>62</ele>
        <time>2020-06-10T10:05:57Z</time>
      </trkpt>
      <trkpt lat="48.59816" lon="-4.07953">
        <ele>62.3</ele>
        <time>2020-06-10T10:05:58Z</time>
      </trkpt>
      <trkpt lat="48.59811" lon="-4.07952">
        <ele>62.5</ele>
        <time>2020-06-10T10:05:59Z</time>
      </trkpt>
      <trkpt lat="48.59807" lon="-4.0795">
        <ele>62.7</ele>
        <time>2020-06-10T10:06:00Z</time>
      </trkpt>
      <trkpt lat="48.59803" lon="-4.07949">
        <ele>62.9</ele>
        <time>2020-06-10T10:06:01Z</time>
      </trkpt>
      <trkpt lat="48.59799" lon="-4.07948">
        <ele>63</ele>
        <time>2020-06-10T10:06:02Z</time>
      </trkpt>
      <trkpt lat="48.59796" lon="-4.07948">
        <ele>63.2</ele>
        <time>2020-06-10T10:06:03Z</time>
      </trkpt>
      <trkpt lat="48.59792" lon="-4.07948">
        <ele>63.3</ele>
        <time>2020-06-10T10:06:04Z</time>
      </trkpt>
      <trkpt lat="48.59788" lon="-4.07949">
        <ele>63.4</ele>
        <time>2020-06-10T10:06:05Z</time>
      </trkpt>
      <trkpt lat="48.59784" lon="-4.0795">
        <ele>63.6</ele>
        <time>2020-06-10T10:06:06Z</time>
      </trkpt>
      <trkpt lat="48.59781" lon="-4.07952">
        <ele>63.7</ele>
        <time>2020-06-10T10:06:07Z</time>
      </trkpt>
      <trkpt lat="48.59777" lon="-4.07954">
        <ele>63.8</ele>
        <time>2020-06-10T10:06:08Z</time>
      </trkpt>
      <trkpt lat="48.59774" lon="-4.07955">
        <ele>63.9</ele>
        <time>2020-06-10T10:06:09Z</time>
      </trkpt>
      <trkpt lat="48.5977" lon="-4.07957">
        <ele>64.1</ele>
        <time>2020-06-10T10:06:10Z</time>
      </trkpt>
      <trkpt lat="48.59767" lon="-4.07958">
        <ele>64.2</ele>
        <time>2020-06-10T10:06:11Z</time>
      </trkpt>
      <trkpt lat="48.59763" lon="-4.0796">
        <ele>64.3</ele>
        <time>2020-06-10T10:06:12Z</time>
      </trkpt>
      <trkpt lat="48.59759" lon="-4.07962">
        <ele>64.4</ele>
        <time>2020-06-10T10:06:13Z</time>
      </trkpt>
      <trkpt lat="48.59754" lon="-4.07964">
        <ele>64.5</ele>
        <time>2020-06-10T10:06:14Z</time>
      </trkpt>
      <trkpt lat="48.5975" lon="-4.07965">
        <ele>64.6</ele>
        <time>2020-06-10T10:06:15Z</time>
      </trkpt>
      <trkpt lat="48.59747" lon="-4.07967">
        <ele>64.6</ele>
        <time>2020-06-10T10:06:16Z</time>
      </trkpt>
      <trkpt lat="48.59742" lon="-4.07968">
        <ele>64.6</ele>
        <time>2020-06-10T10:06:17Z</time>
      </trkpt>
      <trkpt lat="48.59738" lon="-4.07969">
        <ele>64.7</ele>
        <time>2020-06-10T10:06:18Z</time>
      </trkpt>
      <trkpt lat="48.59734" lon="-4.0797">
        <ele>64.7</ele>
        <time>2020-06-10T10:06:19Z</time>
      </trkpt>
      <trkpt lat="48.5973" lon="-4.0797">
        <ele>64.8</ele>
        <time>2020-06-10T10:06:20Z</time>
      </trkpt>
      <trkpt lat="48.59726" lon="-4.0797">
        <ele>64.8</ele>
        <time>2020-06-10T10:06:21Z</time>
      </trkpt>
      <trkpt lat="48.59723" lon="-4.0797">
        <ele>64.9</ele>
        <time>2020-06-10T10:06:22Z</time>
      </trkpt>
      <trkpt lat="48.59719" lon="-4.07969">
        <ele>64.9</ele>
        <time>2020-06-10T10:06:23Z</time>
      </trkpt>
      <trkpt lat="48.59715" lon="-4.0797">
        <ele>65</ele>
        <time>2020-06-10T10:06:24Z</time>
      </trkpt>
      <trkpt lat="48.5971" lon="-4.07968">
        <ele>65</ele>
        <time>2020-06-10T10:06:25Z</time>
      </trkpt>
      <trkpt lat="48.59705" lon="-4.07966">
        <ele>65</ele>
        <time>2020-06-10T10:06:26Z</time>
      </trkpt>
      <trkpt lat="48.597" lon="-4.07964">
        <ele>65</ele>
        <time>2020-06-10T10:06:27Z</time>
      </trkpt>
      <trkpt lat="48.59697" lon="-4.07963">
        <ele>65</ele>
        <time>2020-06-10T10:06:28Z</time>
      </trkpt>
      <trkpt lat="48.59692" lon="-4.07961">
        <ele>65</ele>
        <time>2020-06-10T10:06:29Z</time>
      </trkpt>
      <trkpt lat="48.59688" lon="-4.07958">
        <ele>64.9</ele>
        <time>2020-06-10T10:06:30Z</time>
      </trkpt>
      <trkpt lat="48.59684" lon="-4.07955">
        <ele>64.9</ele>
        <time>2020-06-10T10:06:31Z</time>
      </trkpt>
      <trkpt lat="48.59679" lon="-4.07952">
        <ele>64.8</ele>
        <time>2020-06-10T10:06:32Z</time>
      </trkpt>
      <trkpt lat="48.59675" lon="-4.07948">
        <ele>64.7</ele>
        <time>2020-06-10T10:06:33Z</time>
      </trkpt>
      <trkpt lat="48.5967" lon="-4.07944">
        <ele>64.7</ele>
        <time>2020-06-10T10:06:34Z</time>
      </trkpt>
      <trkpt lat="48.59666" lon="-4.07939">
        <ele>64.6</ele>
        <time>2020-06-10T10:06:35Z</time>
      </trkpt>
      <trkpt lat="48.59661" lon="-4.07934">
        <ele>64.4</ele>
        <time>2020-06-10T10:06:36Z</time>
      </trkpt>
      <trkpt lat="48.59657" lon="-4.07928">
        <ele>64.3</ele>
        <time>2020-06-10T10:06:37Z</time>
      </trkpt>
      <trkpt lat="48.59653" lon="-4.07922">
        <ele>64.1</ele>
        <time>2020-06-10T10:06:38Z</time>
      </trkpt>
      <trkpt lat="48.59649" lon="-4.07914">
        <ele>63.8</ele>
        <time>2020-06-10T10:06:39Z</time>
      </trkpt>
      <trkpt lat="48.59645" lon="-4.07905">
        <ele>63.4</ele>
        <time>2020-06-10T10:06:40Z</time>
      </trkpt>
      <trkpt lat="48.59641" lon="-4.07896">
        <ele>62.9</ele>
        <time>2020-06-10T10:06:41Z</time>
      </trkpt>
      <trkpt lat="48.59638" lon="-4.07886">
        <ele>62.4</ele>
        <time>2020-06-10T10:06:42Z</time>
      </trkpt>
      <trkpt lat="48.59635" lon="-4.07876">
        <ele>62</ele>
        <time>2020-06-10T10:06:43Z</time>
      </trkpt>
      <trkpt lat="48.59632" lon="-4.07864">
        <ele>61.5</ele>
        <time>2020-06-10T10:06:44Z</time>
      </trkpt>
      <trkpt lat="48.5963" lon="-4.07853">
        <ele>61</ele>
        <time>2020-06-10T10:06:45Z</time>
      </trkpt>
      <trkpt lat="48.59627" lon="-4.0784">
        <ele>60.4</ele>
        <time>2020-06-10T10:06:46Z</time>
      </trkpt>
      <trkpt lat="48.59626" lon="-4.07826">
        <ele>59.7</ele>
        <time>2020-06-10T10:06:47Z</time>
      </trkpt>
      <trkpt lat="48.59625" lon="-4.07812">
        <ele>59.2</ele>
        <time>2020-06-10T10:06:48Z</time>
      </trkpt>
      <trkpt lat="48.59625" lon="-4.07797">
        <ele>58.5</ele>
        <time>2020-06-10T10:06:49Z</time>
      </trkpt>
      <trkpt lat="48.59625" lon="-4.07782">
        <ele>57.8</ele>
        <time>2020-06-10T10:06:50Z</time>
      </trkpt>
      <trkpt lat="48.59626" lon="-4.07768">
        <ele>57.1</ele>
        <time>2020-06-10T10:06:51Z</time>
      </trkpt>
      <trkpt lat="48.59627" lon="-4.07753">
        <ele>56.3</ele>
        <time>2020-06-10T10:06:52Z</time>
      </trkpt>
      <trkpt lat="48.59629" lon="-4.07738">
        <ele>55.6</ele>
        <time>2020-06-10T10:06:53Z</time>
      </trkpt>
      <trkpt lat="48.5963" lon="-4.07723">
        <ele>54.8</ele>
        <time>2020-06-10T10:06:54Z</time>
      </trkpt>
      <trkpt lat="48.59632" lon="-4.07707">
        <ele>54</ele>
        <time>2020-06-10T10:06:55Z</time>
      </trkpt>
      <trkpt lat="48.59633" lon="-4.07692">
        <ele>53.2</ele>
        <time>2020-06-10T10:06:56Z</time>
      </trkpt>
      <trkpt lat="48.59635" lon="-4.07676">
        <ele>52.4</ele>
        <time>2020-06-10T10:06:57Z</time>
      </trkpt>
      <trkpt lat="48.59637" lon="-4.0766">
        <ele>51.5</ele>
        <time>2020-06-10T10:06:58Z</time>
      </trkpt>
      <trkpt lat="48.59639" lon="-4.07644">
        <ele>50.6</ele>
        <time>2020-06-10T10:06:59Z</time>
      </trkpt>
      <trkpt lat="48.5964" lon="-4.07628">
        <ele>49.7</ele>
        <time>2020-06-10T10:07:00Z</time>
      </trkpt>
      <trkpt lat="48.59642" lon="-4.07611">
        <ele>48.8</ele>
        <time>2020-06-10T10:07:01Z</time>
      </trkpt>
      <trkpt lat="48.59643" lon="-4.07595">
        <ele>47.9</ele>
        <time>2020-06-10T10:07:02Z</time>
      </trkpt>
      <trkpt lat="48.59644" lon="-4.07578">
        <ele>47.1</ele>
        <time>2020-06-10T10:07:03Z</time>
      </trkpt>
      <trkpt lat="48.59646" lon="-4.07561">
        <ele>46.4</ele>
        <time>2020-06-10T10:07:04Z</time>
      </trkpt>
      <trkpt lat="48.59647" lon="-4.07544">
        <ele>45.8</ele>
        <time>2020-06-10T10:07:05Z</time>
      </trkpt>
      <trkpt lat="48.59647" lon="-4.07527">
        <ele>45.2</ele>
        <time>2020-06-10T10:07:06Z</time>
      </trkpt>
      <trkpt lat="48.59647" lon="-4.07509">
        <ele>44.7</ele>
        <time>2020-06-10T10:07:07Z</time>
      </trkpt>
      <trkpt lat="48.59645" lon="-4.07492">
        <ele>44.4</ele>
        <time>2020-06-10T10:07:08Z</time>
      </trkpt>
      <trkpt lat="48.59642" lon="-4.07475">
        <ele>44.3</ele>
        <time>2020-06-10T10:07:09Z</time>
      </trkpt>
      <trkpt lat="48.59639" lon="-4.07459">
        <ele>44.5</ele>
        <time>2020-06-10T10:07:10Z</time>
      </trkpt>
      <trkpt lat="48.59635" lon="-4.07444">
        <ele>44.6</ele>
        <time>2020-06-10T10:07:11Z</time>
      </trkpt>
      <trkpt lat="48.59631" lon="-4.0743">
        <ele>44.6</ele>
        <time>2020-06-10T10:07:12Z</time>
      </trkpt>
      <trkpt lat="48.59627" lon="-4.07416">
        <ele>44.5</ele>
        <time>2020-06-10T10:07:13Z</time>
      </trkpt>
      <trkpt lat="48.59622" lon="-4.07404">
        <ele>44.6</ele>
        <time>2020-06-10T10:07:14Z</time>
      </trkpt>
      <trkpt lat="48.59615" lon="-4.07395">
        <ele>44.8</ele>
        <time>2020-06-10T10:07:15Z</time>
      </trkpt>
      <trkpt lat="48.59609" lon="-4.07387">
        <ele>45</ele>
        <time>2020-06-10T10:07:16Z</time>
      </trkpt>
      <trkpt lat="48.59602" lon="-4.07381">
        <ele>45.4</ele>
        <time>2020-06-10T10:07:17Z</time>
      </trkpt>
      <trkpt lat="48.59595" lon="-4.07377">
        <ele>45.9</ele>
        <time>2020-06-10T10:07:18Z</time>
      </trkpt>
      <trkpt lat="48.59588" lon="-4.07375">
        <ele>46.3</ele>
        <time>2020-06-10T10:07:19Z</time>
      </trkpt>
      <trkpt lat="48.59581" lon="-4.07371">
        <ele>46.8</ele>
        <time>2020-06-10T10:07:20Z</time>
      </trkpt>
      <trkpt lat="48.59575" lon="-4.07368">
        <ele>47.2</ele>
        <time>2020-06-10T10:07:21Z</time>
      </trkpt>
      <trkpt lat="48.59569" lon="-4.07366">
        <ele>47.6</ele>
        <time>2020-06-10T10:07:22Z</time>
      </trkpt>
      <trkpt lat="48.59563" lon="-4.07363">
        <ele>48.1</ele>
        <time>2020-06-10T10:07:23Z</time>
      </trkpt>
      <trkpt lat="48.59557" lon="-4.07361">
        <ele>48.5</ele>
        <time>2020-06-10T10:07:24Z</time>
      </trkpt>
      <trkpt lat="48.59552" lon="-4.07357">
        <ele>48.9</ele>
        <time>2020-06-10T10:07:25Z</time>
      </trkpt>
      <trkpt lat="48.59547" lon="-4.07354">
        <ele>49.2</ele>
        <time>2020-06-10T10:07:26Z</time>
      </trkpt>
      <trkpt lat="48.59542" lon="-4.07351">
        <ele>49.5</ele>
        <time>2020-06-10T10:07:27Z</time>
      </trkpt>
      <trkpt lat="48.59537" lon="-4.07347">
        <ele>49.9</ele>
        <time>2020-06-10T10:07:28Z</time>
      </trkpt>
      <trkpt lat="48.59533" lon="-4.07343">
        <ele>50.3</ele>
        <time>2020-06-10T10:07:29Z</time>
      </trkpt>
      <trkpt lat="48.59529" lon="-4.0734">
        <ele>50.6</ele>
        <time>2020-06-10T10:07:30Z</time>
      </trkpt>
      <trkpt lat="48.59524" lon="-4.07337">
        <ele>50.9</ele>
        <time>2020-06-10T10:07:31Z</time>
      </trkpt>
      <trkpt lat="48.59521" lon="-4.07334">
        <ele>51.1</ele>
        <time>2020-06-10T10:07:32Z</time>
      </trkpt>
      <trkpt lat="48.59518" lon="-4.0733">
        <ele>51.4</ele>
        <time>2020-06-10T10:07:33Z</time>
      </trkpt>
      <trkpt lat="48.59514" lon="-4.07328">
        <ele>51.6</ele>
        <time>2020-06-10T10:07:34Z</time>
      </trkpt>
      <trkpt lat="48.59512" lon="-4.07324">
        <ele>51.8</ele>
        <time>2020-06-10T10:07:35Z</time>
      </trkpt>
      <trkpt lat="48.59509" lon="-4.07322">
        <ele>52</ele>
        <time>2020-06-10T10:07:36Z</time>
      </trkpt>
      <trkpt lat="48.59506" lon="-4.07319">
        <ele>52.2</ele>
        <time>2020-06-10T10:07:37Z</time>
      </trkpt>
      <trkpt lat="48.59504" lon="-4.07316">
        <ele>52.4</ele>
        <time>2020-06-10T10:07:38Z</time>
      </trkpt>
      <trkpt lat="48.59501" lon="-4.07313">
        <ele>52.5</ele>
        <time>2020-06-10T10:07:39Z</time>
      </trkpt>
      <trkpt lat="48.59499" lon="-4.0731">
        <ele>52.7</ele>
        <time>2020-06-10T10:07:40Z</time>
      </trkpt>
      <trkpt lat="48.59496" lon="-4.07306">
        <ele>52.9</ele>
        <time>2020-06-10T10:07:41Z</time>
      </trkpt>
      <trkpt lat="48.59493" lon="-4.07302">
        <ele>53.1</ele>
        <time>2020-06-10T10:07:42Z</time>
      </trkpt>
      <trkpt lat="48.5949" lon="-4.07299">
        <ele>53.3</ele>
        <time>2020-06-10T10:07:43Z</time>
      </trkpt>
      <trkpt lat="48.59487" lon="-4.07296">
        <ele>53.5</ele>
        <time>2020-06-10T10:07:44Z</time>
      </trkpt>
      <trkpt lat="48.59484" lon="-4.07292">
        <ele>53.7</ele>
        <time>2020-06-10T10:07:45Z</time>
      </trkpt>
      <trkpt lat="48.5948" lon="-4.07289">
        <ele>53.9</ele>
        <time>2020-06-10T10:07:46Z</time>
      </trkpt>
      <trkpt lat="48.59477" lon="-4.07286">
        <ele>54.1</ele>
        <time>2020-06-10T10:07:47Z</time>
      </trkpt>
      <trkpt lat="48.59474" lon="-4.07282">
        <ele>54.3</ele>
        <time>2020-06-10T10:07:48Z</time>
      </trkpt>
      <trkpt lat="48.5947" lon="-4.07279">
        <ele>54.5</ele>
        <time>2020-06-10T10:07:49Z</time>
      </trkpt>
      <trkpt lat="48.59467" lon="-4.07275">
        <ele>54.7</ele>
        <time>2020-06-10T10:07:50Z</time>
      </trkpt>
      <trkpt lat="48.59464" lon="-4.07271">
        <ele>54.9</ele>
        <time>2020-06-10T10:07:51Z</time>
      </trkpt>
      <trkpt lat="48.59461" lon="-4.07267">
        <ele>55.1</ele>
        <time>2020-06-10T10:07:52Z</time>
      </trkpt>
      <trkpt lat="48.59458" lon="-4.07264">
        <ele>55.3</ele>
        <time>2020-06-10T10:07:53Z</time>
      </trkpt>
      <trkpt lat="48.59455" lon="-4.07259">
        <ele>55.4</ele>
        <time>2020-06-10T10:07:54Z</time>
      </trkpt>
      <trkpt lat="48.59452" lon="-4.07255">
        <ele>55.6</ele>
        <time>2020-06-10T10:07:55Z</time>
      </trkpt>
      <trkpt lat="48.59449" lon="-4.07251">
        <ele>55.7</ele>
        <time>2020-06-10T10:07:56Z</time>
      </trkpt>
      <trkpt lat="48.59446" lon="-4.07248">
        <ele>55.8</ele>
        <time>2020-06-10T10:07:57Z</time>
      </trkpt>
      <trkpt lat="48.59444" lon="-4.07245">
        <ele>55.9</ele>
        <time>2020-06-10T10:07:58Z</time>
      </trkpt>
      <trkpt lat="48.59441" lon="-4.07242">
        <ele>56</ele>
        <time>2020-06-10T10:07:59Z</time>
      </trkpt>
      <trkpt lat="48.59438" lon="-4.07238">
        <ele>56.1</ele>
        <time>2020-06-10T10:08:00Z</time>
      </trkpt>
      <trkpt lat="48.59436" lon="-4.07235">
        <ele>56.1</ele>
        <time>2020-06-10T10:08:01Z</time>
      </trkpt>
      <trkpt lat="48.59433" lon="-4.0723">
        <ele>56.2</ele>
        <time>2020-06-10T10:08:02Z</time>
      </trkpt>
      <trkpt lat="48.59432" lon="-4.07228">
        <ele>56.2</ele>
        <time>2020-06-10T10:08:03Z</time>
      </trkpt>
      <trkpt lat="48.5943" lon="-4.07223">
        <ele>56.3</ele>
        <time>2020-06-10T10:08:04Z</time>
      </trkpt>
      <trkpt lat="48.59429" lon="-4.07222">
        <ele>56.3</ele>
        <time>2020-06-10T10:08:05Z</time>
      </trkpt>
      <trkpt lat="48.59427" lon="-4.07216">
        <ele>56.3</ele>
        <time>2020-06-10T10:08:06Z</time>
      </trkpt>
      <trkpt lat="48.59425" lon="-4.07212">
        <ele>56.3</ele>
        <time>2020-06-10T10:08:07Z</time>
      </trkpt>
      <trkpt lat="48.59423" lon="-4.07207">
        <ele>56.3</ele>
        <time>2020-06-10T10:08:08Z</time>
      </trkpt>
      <trkpt lat="48.59421" lon="-4.07201">
        <ele>56.3</ele>
        <time>2020-06-10T10:08:09Z</time>
      </trkpt>
      <trkpt lat="48.59418" lon="-4.07195">
        <ele>56.3</ele>
        <time>2020-06-10T10:08:10Z</time>
      </trkpt>
      <trkpt lat="48.59416" lon="-4.0719">
        <ele>56.3</ele>
        <time>2020-06-10T10:08:11Z</time>
      </trkpt>
      <trkpt lat="48.59414" lon="-4.07184">
        <ele>56.3</ele>
        <time>2020-06-10T10:08:12Z</time>
      </trkpt>
      <trkpt lat="48.59412" lon="-4.0718">
        <ele>56.3</ele>
        <time>2020-06-10T10:08:13Z</time>
      </trkpt>
      <trkpt lat="48.5941" lon="-4.07174">
        <ele>56.2</ele>
        <time>2020-06-10T10:08:14Z</time>
      </trkpt>
      <trkpt lat="48.59408" lon="-4.0717">
        <ele>56.2</ele>
        <time>2020-06-10T10:08:15Z</time>
      </trkpt>
      <trkpt lat="48.59406" lon="-4.07165">
        <ele>56.2</ele>
        <time>2020-06-10T10:08:16Z</time>
      </trkpt>
      <trkpt lat="48.59404" lon="-4.07161">
        <ele>56.2</ele>
        <time>2020-06-10T10:08:17Z</time>
      </trkpt>
      <trkpt lat="48.59402" lon="-4.07155">
        <ele>56.2</ele>
        <time>2020-06-10T10:08:18Z</time>
      </trkpt>
      <trkpt lat="48.594" lon="-4.07148">
        <ele>56.2</ele>
        <time>2020-06-10T10:08:19Z</time>
      </trkpt>
      <trkpt lat="48.59398" lon="-4.07143">
        <ele>56.2</ele>
        <time>2020-06-10T10:08:20Z</time>
      </trkpt>
      <trkpt lat="48.59397" lon="-4.07138">
        <ele>56.3</ele>
        <time>2020-06-10T10:08:21Z</time>
      </trkpt>
      <trkpt lat="48.59394" lon="-4.07132">
        <ele>56.3</ele>
        <time>2020-06-10T10:08:22Z</time>
      </trkpt>
      <trkpt lat="48.59392" lon="-4.07124">
        <ele>56.3</ele>
        <time>2020-06-10T10:08:23Z</time>
      </trkpt>
      <trkpt lat="48.59389" lon="-4.07117">
        <ele>56.4</ele>
        <time>2020-06-10T10:08:24Z</time>
      </trkpt>
      <trkpt lat="48.59387" lon="-4.0711">
        <ele>56.5</ele>
        <time>2020-06-10T10:08:25Z</time>
      </trkpt>
      <trkpt lat="48.59384" lon="-4.07104">
        <ele>56.5</ele>
        <time>2020-06-10T10:08:26Z</time>
      </trkpt>
      <trkpt lat="48.59382" lon="-4.07098">
        <ele>56.6</ele>
        <time>2020-06-10T10:08:27Z</time>
      </trkpt>
      <trkpt lat="48.59379" lon="-4.07091">
        <ele>56.7</ele>
        <time>2020-06-10T10:08:28Z</time>
      </trkpt>
      <trkpt lat="48.59378" lon="-4.07086">
        <ele>56.8</ele>
        <time>2020-06-10T10:08:29Z</time>
      </trkpt>
      <trkpt lat="48.59376" lon="-4.07078">
        <ele>57</ele>
        <time>2020-06-10T10:08:30Z</time>
      </trkpt>
      <trkpt lat="48.59374" lon="-4.0707">
        <ele>57</ele>
        <time>2020-06-10T10:08:31Z</time>
      </trkpt>
      <trkpt lat="48.59371" lon="-4.07063">
        <ele>57</ele>
        <time>2020-06-10T10:08:32Z</time>
      </trkpt>
      <trkpt lat="48.59369" lon="-4.07057">
        <ele>57</ele>
        <time>2020-06-10T10:08:33Z</time>
      </trkpt>
      <trkpt lat="48.59367" lon="-4.07049">
        <ele>57.1</ele>
        <time>2020-06-10T10:08:34Z</time>
      </trkpt>
      <trkpt lat="48.59365" lon="-4.07041">
        <ele>57.2</ele>
        <time>2020-06-10T10:08:35Z</time>
      </trkpt>
      <trkpt lat="48.59362" lon="-4.07034">
        <ele>57.4</ele>
        <time>2020-06-10T10:08:36Z</time>
      </trkpt>
      <trkpt lat="48.59361" lon="-4.07029">
        <ele>57.5</ele>
        <time>2020-06-10T10:08:37Z</time>
      </trkpt>
      <trkpt lat="48.59359" lon="-4.07022">
        <ele>57.6</ele>
        <time>2020-06-10T10:08:38Z</time>
      </trkpt>
      <trkpt lat="48.59357" lon="-4.07013">
        <ele>57.9</ele>
        <time>2020-06-10T10:08:39Z</time>
      </trkpt>
      <trkpt lat="48.59356" lon="-4.07007">
        <ele>58</ele>
        <time>2020-06-10T10:08:40Z</time>
      </trkpt>
      <trkpt lat="48.59354" lon="-4.07001">
        <ele>58.3</ele>
        <time>2020-06-10T10:08:41Z</time>
      </trkpt>
      <trkpt lat="48.59351" lon="-4.06995">
        <ele>58.5</ele>
        <time>2020-06-10T10:08:42Z</time>
      </trkpt>
      <trkpt lat="48.59349" lon="-4.06988">
        <ele>58.7</ele>
        <time>2020-06-10T10:08:43Z</time>
      </trkpt>
      <trkpt lat="48.59346" lon="-4.06982">
        <ele>58.9</ele>
        <time>2020-06-10T10:08:44Z</time>
      </trkpt>
      <trkpt lat="48.59344" lon="-4.06976">
        <ele>59.2</ele>
        <time>2020-06-10T10:08:45Z</time>
      </trkpt>
      <trkpt lat="48.59341" lon="-4.0697">
        <ele>59.4</ele>
        <time>2020-06-10T10:08:46Z</time>
      </trkpt>
      <trkpt lat="48.59338" lon="-4.06962">
        <ele>59.8</ele>
        <time>2020-06-10T10:08:47Z</time>
      </trkpt>
      <trkpt lat="48.59336" lon="-4.06957">
        <ele>60</ele>
        <time>2020-06-10T10:08:48Z</time>
      </trkpt>
      <trkpt lat="48.59334" lon="-4.06951">
        <ele>60.2</ele>
        <time>2020-06-10T10:08:49Z</time>
      </trkpt>
      <trkpt lat="48.59331" lon="-4.06946">
        <ele>60.4</ele>
        <time>2020-06-10T10:08:50Z</time>
      </trkpt>
      <trkpt lat="48.5933" lon="-4.06938">
        <ele>60.7</ele>
        <time>2020-06-10T10:08:51Z</time>
      </trkpt>
      <trkpt lat="48.59328" lon="-4.0693">
        <ele>61</ele>
        <time>2020-06-10T10:08:52Z</time>
      </trkpt>
      <trkpt lat="48.59326" lon="-4.06925">
        <ele>61.2</ele>
        <time>2020-06-10T10:08:53Z</time>
      </trkpt>
      <trkpt lat="48.59324" lon="-4.06918">
        <ele>61.5</ele>
        <time>2020-06-10T10:08:54Z</time>
      </trkpt>
      <trkpt lat="48.59322" lon="-4.06912">
        <ele>61.8</ele>
        <time>2020-06-10T10:08:55Z</time>
      </trkpt>
      <trkpt lat="48.5932" lon="-4.06907">
        <ele>62</ele>
        <time>2020-06-10T10:08:56Z</time>
      </trkpt>
      <trkpt lat="48.59319" lon="-4.06902">
        <ele>62.3</ele>
        <time>2020-06-10T10:08:57Z</time>
      </trkpt>
      <trkpt lat="48.59317" lon="-4.06898">
        <ele>62.5</ele>
        <time>2020-06-10T10:08:58Z</time>
      </trkpt>
      <trkpt lat="48.59315" lon="-4.06893">
        <ele>62.7</ele>
        <time>2020-06-10T10:08:59Z</time>
      </trkpt>
      <trkpt lat="48.59313" lon="-4.06887">
        <ele>62.9</ele>
        <time>2020-06-10T10:09:00Z</time>
      </trkpt>
      <trkpt lat="48.59311" lon="-4.0688">
        <ele>63.2</ele>
        <time>2020-06-10T10:09:01Z</time>
      </trkpt>
      <trkpt lat="48.59309" lon="-4.06874">
        <ele>63.4</ele>
        <time>2020-06-10T10:09:02Z</time>
      </trkpt>
      <trkpt lat="48.59307" lon="-4.06868">
        <ele>63.7</ele>
        <time>2020-06-10T10:09:03Z</time>
      </trkpt>
      <trkpt lat="48.59306" lon="-4.06863">
        <ele>63.8</ele>
        <time>2020-06-10T10:09:04Z</time>
      </trkpt>
      <trkpt lat="48.59303" lon="-4.06855">
        <ele>64.1</ele>
        <time>2020-06-10T10:09:05Z</time>
      </trkpt>
      <trkpt lat="48.59302" lon="-4.06851">
        <ele>64.3</ele>
        <time>2020-06-10T10:09:06Z</time>
      </trkpt>
      <trkpt lat="48.593" lon="-4.06843">
        <ele>64.7</ele>
        <time>2020-06-10T10:09:07Z</time>
      </trkpt>
      <trkpt lat="48.59299" lon="-4.06838">
        <ele>64.9</ele>
        <time>2020-06-10T10:09:08Z</time>
      </trkpt>
      <trkpt lat="48.59297" lon="-4.06833">
        <ele>65.1</ele>
        <time>2020-06-10T10:09:09Z</time>
      </trkpt>
      <trkpt lat="48.59296" lon="-4.06827">
        <ele>65.4</ele>
        <time>2020-06-10T10:09:10Z</time>
      </trkpt>
      <trkpt lat="48.59294" lon="-4.06821">
        <ele>65.7</ele>
        <time>2020-06-10T10:09:11Z</time>
      </trkpt>
      <trkpt lat="48.59293" lon="-4.06816">
        <ele>65.9</ele>
        <time>2020-06-10T10:09:12Z</time>
      </trkpt>
      <trkpt lat="48.59291" lon="-4.06811">
        <ele>66.1</ele>
        <time>2020-06-10T10:09:13Z</time>
      </trkpt>
      <trkpt lat="48.59291" lon="-4.06809">
        <ele>66.2</ele>
        <time>2020-06-10T10:09:14Z</time>
      </trkpt>
      <trkpt lat="48.59289" lon="-4.06804">
        <ele>66.4</ele>
        <time>2020-06-10T10:09:15Z</time>
      </trkpt>
      <trkpt lat="48.59288" lon="-4.06797">
        <ele>66.6</ele>
        <time>2020-06-10T10:09:16Z</time>
      </trkpt>
      <trkpt lat="48.59287" lon="-4.06794">
        <ele>66.8</ele>
        <time>2020-06-10T10:09:17Z</time>
      </trkpt>
      <trkpt lat="48.59285" lon="-4.06789">
        <ele>67</ele>
        <time>2020-06-10T10:09:18Z</time>
      </trkpt>
      <trkpt lat="48.59284" lon="-4.06785">
        <ele>67.2</ele>
        <time>2020-06-10T10:09:19Z</time>
      </trkpt>
      <trkpt lat="48.59283" lon="-4.06782">
        <ele>67.3</ele>
        <time>2020-06-10T10:09:20Z</time>
      </trkpt>
      <trkpt lat="48.59283" lon="-4.0678">
        <ele>67.4</ele>
        <time>2020-06-10T10:09:21Z</time>
      </trkpt>
      <trkpt lat="48.59281" lon="-4.06777">
        <ele>67.5</ele>
        <time>2020-06-10T10:09:22Z</time>
      </trkpt>
      <trkpt lat="48.59281" lon="-4.06775">
        <ele>67.6</ele>
        <time>2020-06-10T10:09:23Z</time>
      </trkpt>
      <trkpt lat="48.5928" lon="-4.06771">
        <ele>67.8</ele>
        <time>2020-06-10T10:09:24Z</time>
      </trkpt>
      <trkpt lat="48.59278" lon="-4.06767">
        <ele>68</ele>
        <time>2020-06-10T10:09:25Z</time>
      </trkpt>
      <trkpt lat="48.59278" lon="-4.06764">
        <ele>68</ele>
        <time>2020-06-10T10:09:26Z</time>
      </trkpt>
      <trkpt lat="48.59277" lon="-4.06759">
        <ele>68.3</ele>
        <time>2020-06-10T10:09:27Z</time>
      </trkpt>
      <trkpt lat="48.59275" lon="-4.06754">
        <ele>68.5</ele>
        <time>2020-06-10T10:09:28Z</time>
      </trkpt>
      <trkpt lat="48.59274" lon="-4.06752">
        <ele>68.6</ele>
        <time>2020-06-10T10:09:29Z</time>
      </trkpt>
      <trkpt lat="48.59272" lon="-4.06748">
        <ele>68.8</ele>
        <time>2020-06-10T10:09:30Z</time>
      </trkpt>
      <trkpt lat="48.5927" lon="-4.06744">
        <ele>69</ele>
        <time>2020-06-10T10:09:31Z</time>
      </trkpt>
      <trkpt lat="48.59268" lon="-4.06737">
        <ele>69.3</ele>
        <time>2020-06-10T10:09:32Z</time>
      </trkpt>
      <trkpt lat="48.59266" lon="-4.06732">
        <ele>69.5</ele>
        <time>2020-06-10T10:09:33Z</time>
      </trkpt>
      <trkpt lat="48.59265" lon="-4.0673">
        <ele>69.6</ele>
        <time>2020-06-10T10:09:34Z</time>
      </trkpt>
      <trkpt lat="48.59263" lon="-4.06725">
        <ele>69.8</ele>
        <time>2020-06-10T10:09:35Z</time>
      </trkpt>
      <trkpt lat="48.59262" lon="-4.06719">
        <ele>70</ele>
        <time>2020-06-10T10:09:36Z</time>
      </trkpt>
      <trkpt lat="48.5926" lon="-4.06713">
        <ele>70.3</ele>
        <time>2020-06-10T10:09:37Z</time>
      </trkpt>
      <trkpt lat="48.59258" lon="-4.06706">
        <ele>70.6</ele>
        <time>2020-06-10T10:09:38Z</time>
      </trkpt>
      <trkpt lat="48.59256" lon="-4.06703">
        <ele>70.8</ele>
        <time>2020-06-10T10:09:39Z</time>
      </trkpt>
      <trkpt lat="48.59253" lon="-4.06697">
        <ele>71.1</ele>
        <time>2020-06-10T10:09:40Z</time>
      </trkpt>
      <trkpt lat="48.59251" lon="-4.06693">
        <ele>71.3</ele>
        <time>2020-06-10T10:09:41Z</time>
      </trkpt>
      <trkpt lat="48.5925" lon="-4.06689">
        <ele>71.5</ele>
        <time>2020-06-10T10:09:42Z</time>
      </trkpt>
      <trkpt lat="48.5925" lon="-4.06684">
        <ele>71.7</ele>
        <time>2020-06-10T10:09:43Z</time>
      </trkpt>
      <trkpt lat="48.59248" lon="-4.0668">
        <ele>71.9</ele>
        <time>2020-06-10T10:09:44Z</time>
      </trkpt>
      <trkpt lat="48.59247" lon="-4.06673">
        <ele>72.1</ele>
        <time>2020-06-10T10:09:45Z</time>
      </trkpt>
      <trkpt lat="48.59245" lon="-4.06668">
        <ele>72.4</ele>
        <time>2020-06-10T10:09:46Z</time>
      </trkpt>
      <trkpt lat="48.59241" lon="-4.06661">
        <ele>72.7</ele>
        <time>2020-06-10T10:09:47Z</time>
      </trkpt>
      <trkpt lat="48.59239" lon="-4.06656">
        <ele>72.9</ele>
        <time>2020-06-10T10:09:48Z</time>
      </trkpt>
      <trkpt lat="48.59237" lon="-4.06651">
        <ele>73.1</ele>
        <time>2020-06-10T10:09:49Z</time>
      </trkpt>
      <trkpt lat="48.59234" lon="-4.06648">
        <ele>73.4</ele>
        <time>2020-06-10T10:09:50Z</time>
      </trkpt>
      <trkpt lat="48.59231" lon="-4.06644">
        <ele>73.6</ele>
        <time>2020-06-10T10:09:51Z</time>
      </trkpt>
      <trkpt lat="48.59228" lon="-4.06637">
        <ele>73.9</ele>
        <time>2020-06-10T10:09:52Z</time>
      </trkpt>
      <trkpt lat="48.59225" lon="-4.06633">
        <ele>74.2</ele>
        <time>2020-06-10T10:09:53Z</time>
      </trkpt>
      <trkpt lat="48.59223" lon="-4.06629">
        <ele>74.4</ele>
        <time>2020-06-10T10:09:54Z</time>
      </trkpt>
      <trkpt lat="48.59221" lon="-4.06622">
        <ele>74.7</ele>
        <time>2020-06-10T10:09:55Z</time>
      </trkpt>
      <trkpt lat="48.59219" lon="-4.06618">
        <ele>74.9</ele>
        <time>2020-06-10T10:09:56Z</time>
      </trkpt>
      <trkpt lat="48.59215" lon="-4.06613">
        <ele>75.2</ele>
        <time>2020-06-10T10:09:57Z</time>
      </trkpt>
      <trkpt lat="48.59214" lon="-4.06611">
        <ele>75.3</ele>
        <time>2020-06-10T10:09:58Z</time>
      </trkpt>
      <trkpt lat="48.59212" lon="-4.06606">
        <ele>75.6</ele>
        <time>2020-06-10T10:09:59Z</time>
      </trkpt>
      <trkpt lat="48.59209" lon="-4.06602">
        <ele>75.8</ele>
        <time>2020-06-10T10:10:00Z</time>
      </trkpt>
      <trkpt lat="48.59207" lon="-4.06598">
        <ele>76</ele>
        <time>2020-06-10T10:10:01Z</time>
      </trkpt>
      <trkpt lat="48.59204" lon="-4.06595">
        <ele>76.2</ele>
        <time>2020-06-10T10:10:02Z</time>
      </trkpt>
      <trkpt lat="48.59201" lon="-4.06591">
        <ele>76.4</ele>
        <time>2020-06-10T10:10:03Z</time>
      </trkpt>
      <trkpt lat="48.59199" lon="-4.06587">
        <ele>76.6</ele>
        <time>2020-06-10T10:10:04Z</time>
      </trkpt>
      <trkpt lat="48.59197" lon="-4.06583">
        <ele>76.8</ele>
        <time>2020-06-10T10:10:05Z</time>
      </trkpt>
      <trkpt lat="48.59195" lon="-4.0658">
        <ele>77</ele>
        <time>2020-06-10T10:10:06Z</time>
      </trkpt>
      <trkpt lat="48.59192" lon="-4.06577">
        <ele>77.2</ele>
        <time>2020-06-10T10:10:07Z</time>
      </trkpt>
      <trkpt lat="48.59188" lon="-4.06569">
        <ele>77.5</ele>
        <time>2020-06-10T10:10:08Z</time>
      </trkpt>
      <trkpt lat="48.59185" lon="-4.06565">
        <ele>77.8</ele>
        <time>2020-06-10T10:10:09Z</time>
      </trkpt>
      <trkpt lat="48.59182" lon="-4.0656">
        <ele>78</ele>
        <time>2020-06-10T10:10:10Z</time>
      </trkpt>
      <trkpt lat="48.5918" lon="-4.06555">
        <ele>78.2</ele>
        <time>2020-06-10T10:10:11Z</time>
      </trkpt>
      <trkpt lat="48.59178" lon="-4.0655">
        <ele>78.4</ele>
        <time>2020-06-10T10:10:12Z</time>
      </trkpt>
      <trkpt lat="48.59176" lon="-4.06546">
        <ele>78.6</ele>
        <time>2020-06-10T10:10:13Z</time>
      </trkpt>
      <trkpt lat="48.59173" lon="-4.06542">
        <ele>78.8</ele>
        <time>2020-06-10T10:10:14Z</time>
      </trkpt>
      <trkpt lat="48.5917" lon="-4.06538">
        <ele>78.9</ele>
        <time>2020-06-10T10:10:15Z</time>
      </trkpt>
      <trkpt lat="48.59167" lon="-4.06534">
        <ele>79.1</ele>
        <time>2020-06-10T10:10:16Z</time>
      </trkpt>
      <trkpt lat="48.59166" lon="-4.0653">
        <ele>79.2</ele>
        <time>2020-06-10T10:10:17Z</time>
      </trkpt>
      <trkpt lat="48.59163" lon="-4.06527">
        <ele>79.3</ele>
        <time>2020-06-10T10:10:18Z</time>
      </trkpt>
      <trkpt lat="48.5916" lon="-4.06522">
        <ele>79.4</ele>
        <time>2020-06-10T10:10:19Z</time>
      </trkpt>
      <trkpt lat="48.59157" lon="-4.06519">
        <ele>79.6</ele>
        <time>2020-06-10T10:10:20Z</time>
      </trkpt>
      <trkpt lat="48.59154" lon="-4.06515">
        <ele>79.7</ele>
        <time>2020-06-10T10:10:21Z</time>
      </trkpt>
      <trkpt lat="48.59151" lon="-4.06511">
        <ele>79.9</ele>
        <time>2020-06-10T10:10:22Z</time>
      </trkpt>
      <trkpt lat="48.59148" lon="-4.06507">
        <ele>80.1</ele>
        <time>2020-06-10T10:10:23Z</time>
      </trkpt>
      <trkpt lat="48.59146" lon="-4.06502">
        <ele>80.3</ele>
        <time>2020-06-10T10:10:24Z</time>
      </trkpt>
      <trkpt lat="48.59143" lon="-4.06498">
        <ele>80.5</ele>
        <time>2020-06-10T10:10:25Z</time>
      </trkpt>
      <trkpt lat="48.59141" lon="-4.06494">
        <ele>80.6</ele>
        <time>2020-06-10T10:10:26Z</time>
      </trkpt>
      <trkpt lat="48.59139" lon="-4.0649">
        <ele>80.7</ele>
        <time>2020-06-10T10:10:27Z</time>
      </trkpt>
      <trkpt lat="48.59136" lon="-4.06486">
        <ele>80.9</ele>
        <time>2020-06-10T10:10:28Z</time>
      </trkpt>
      <trkpt lat="48.59135" lon="-4.06484">
        <ele>80.9</ele>
        <time>2020-06-10T10:10:29Z</time>
      </trkpt>
      <trkpt lat="48.59133" lon="-4.06481">
        <ele>81</ele>
        <time>2020-06-10T10:10:30Z</time>
      </trkpt>
      <trkpt lat="48.5913" lon="-4.06478">
        <ele>81.1</ele>
        <time>2020-06-10T10:10:31Z</time>
      </trkpt>
      <trkpt lat="48.59128" lon="-4.06473">
        <ele>81.2</ele>
        <time>2020-06-10T10:10:32Z</time>
      </trkpt>
      <trkpt lat="48.59126" lon="-4.06469">
        <ele>81.3</ele>
        <time>2020-06-10T10:10:33Z</time>
      </trkpt>
      <trkpt lat="48.59123" lon="-4.06464">
        <ele>81.5</ele>
        <time>2020-06-10T10:10:34Z</time>
      </trkpt>
      <trkpt lat="48.5912" lon="-4.06458">
        <ele>81.6</ele>
        <time>2020-06-10T10:10:35Z</time>
      </trkpt>
      <trkpt lat="48.59117" lon="-4.06454">
        <ele>81.7</ele>
        <time>2020-06-10T10:10:36Z</time>
      </trkpt>
      <trkpt lat="48.59115" lon="-4.0645">
        <ele>81.9</ele>
        <time>2020-06-10T10:10:37Z</time>
      </trkpt>
      <trkpt lat="48.59112" lon="-4.06444">
        <ele>82</ele>
        <time>2020-06-10T10:10:38Z</time>
      </trkpt>
      <trkpt lat="48.59109" lon="-4.06439">
        <ele>82.2</ele>
        <time>2020-06-10T10:10:39Z</time>
      </trkpt>
      <trkpt lat="48.59106" lon="-4.06434">
        <ele>82.3</ele>
        <time>2020-06-10T10:10:40Z</time>
      </trkpt>
      <trkpt lat="48.59104" lon="-4.0643">
        <ele>82.4</ele>
        <time>2020-06-10T10:10:41Z</time>
      </trkpt>
      <trkpt lat="48.59102" lon="-4.06426">
        <ele>82.5</ele>
        <time>2020-06-10T10:10:42Z</time>
      </trkpt>
      <trkpt lat="48.59099" lon="-4.06421">
        <ele>82.7</ele>
        <time>2020-06-10T10:10:43Z</time>
      </trkpt>
      <trkpt lat="48.59097" lon="-4.06417">
        <ele>82.8</ele>
        <time>2020-06-10T10:10:44Z</time>
      </trkpt>
      <trkpt lat="48.59095" lon="-4.06412">
        <ele>83</ele>
        <time>2020-06-10T10:10:45Z</time>
      </trkpt>
      <trkpt lat="48.59092" lon="-4.06408">
        <ele>83.1</ele>
        <time>2020-06-10T10:10:46Z</time>
      </trkpt>
      <trkpt lat="48.59089" lon="-4.06404">
        <ele>83.2</ele>
        <time>2020-06-10T10:10:47Z</time>
      </trkpt>
      <trkpt lat="48.59087" lon="-4.064">
        <ele>83.3</ele>
        <time>2020-06-10T10:10:48Z</time>
      </trkpt>
      <trkpt lat="48.59084" lon="-4.06395">
        <ele>83.4</ele>
        <time>2020-06-10T10:10:49Z</time>
      </trkpt>
      <trkpt lat="48.59083" lon="-4.06393">
        <ele>83.5</ele>
        <time>2020-06-10T10:10:50Z</time>
      </trkpt>
      <trkpt lat="48.5908" lon="-4.06387">
        <ele>83.7</ele>
        <time>2020-06-10T10:10:51Z</time>
      </trkpt>
      <trkpt lat="48.59077" lon="-4.06383">
        <ele>83.8</ele>
        <time>2020-06-10T10:10:52Z</time>
      </trkpt>
      <trkpt lat="48.59075" lon="-4.06378">
        <ele>83.9</ele>
        <time>2020-06-10T10:10:53Z</time>
      </trkpt>
      <trkpt lat="48.59072" lon="-4.06374">
        <ele>84.1</ele>
        <time>2020-06-10T10:10:54Z</time>
      </trkpt>
      <trkpt lat="48.5907" lon="-4.0637">
        <ele>84.2</ele>
        <time>2020-06-10T10:10:55Z</time>
      </trkpt>
      <trkpt lat="48.59067" lon="-4.06365">
        <ele>84.3</ele>
        <time>2020-06-10T10:10:56Z</time>
      </trkpt>
      <trkpt lat="48.59064" lon="-4.06358">
        <ele>84.5</ele>
        <time>2020-06-10T10:10:57Z</time>
      </trkpt>
      <trkpt lat="48.59062" lon="-4.06352">
        <ele>84.7</ele>
        <time>2020-06-10T10:10:58Z</time>
      </trkpt>
      <trkpt lat="48.5906" lon="-4.06349">
        <ele>84.8</ele>
        <time>2020-06-10T10:10:59Z</time>
      </trkpt>
      <trkpt lat="48.59058" lon="-4.06342">
        <ele>84.9</ele>
        <time>2020-06-10T10:11:00Z</time>
      </trkpt>
      <trkpt lat="48.59055" lon="-4.06338">
        <ele>85</ele>
        <time>2020-06-10T10:11:01Z</time>
      </trkpt>
      <trkpt lat="48.59053" lon="-4.06332">
        <ele>85.1</ele>
        <time>2020-06-10T10:11:02Z</time>
      </trkpt>
      <trkpt lat="48.5905" lon="-4.06325">
        <ele>85.2</ele>
        <time>2020-06-10T10:11:03Z</time>
      </trkpt>
      <trkpt lat="48.59049" lon="-4.06322">
        <ele>85.3</ele>
        <time>2020-06-10T10:11:04Z</time>
      </trkpt>
      <trkpt lat="48.59048" lon="-4.06316">
        <ele>85.4</ele>
        <time>2020-06-10T10:11:05Z</time>
      </trkpt>
      <trkpt lat="48.59046" lon="-4.06311">
        <ele>85.5</ele>
        <time>2020-06-10T10:11:06Z</time>
      </trkpt>
      <trkpt lat="48.59045" lon="-4.06307">
        <ele>85.5</ele>
        <time>2020-06-10T10:11:07Z</time>
      </trkpt>
      <trkpt lat="48.59042" lon="-4.06301">
        <ele>85.6</ele>
        <time>2020-06-10T10:11:08Z</time>
      </trkpt>
      <trkpt lat="48.5904" lon="-4.06295">
        <ele>85.7</ele>
        <time>2020-06-10T10:11:09Z</time>
      </trkpt>
      <trkpt lat="48.59039" lon="-4.06293">
        <ele>85.8</ele>
        <time>2020-06-10T10:11:10Z</time>
      </trkpt>
      <trkpt lat="48.59038" lon="-4.06287">
        <ele>85.9</ele>
        <time>2020-06-10T10:11:11Z</time>
      </trkpt>
      <trkpt lat="48.59036" lon="-4.06281">
        <ele>86</ele>
        <time>2020-06-10T10:11:12Z</time>
      </trkpt>
      <trkpt lat="48.59034" lon="-4.06272">
        <ele>86.2</ele>
        <time>2020-06-10T10:11:13Z</time>
      </trkpt>
      <trkpt lat="48.59031" lon="-4.06265">
        <ele>86.3</ele>
        <time>2020-06-10T10:11:14Z</time>
      </trkpt>
      <trkpt lat="48.5903" lon="-4.0626">
        <ele>86.4</ele>
        <time>2020-06-10T10:11:15Z</time>
      </trkpt>
      <trkpt lat="48.59028" lon="-4.06255">
        <ele>86.5</ele>
        <time>2020-06-10T10:11:16Z</time>
      </trkpt>
      <trkpt lat="48.59026" lon="-4.06248">
        <ele>86.7</ele>
        <time>2020-06-10T10:11:17Z</time>
      </trkpt>
      <trkpt lat="48.59025" lon="-4.06242">
        <ele>86.9</ele>
        <time>2020-06-10T10:11:18Z</time>
      </trkpt>
      <trkpt lat="48.59023" lon="-4.06237">
        <ele>87.1</ele>
        <time>2020-06-10T10:11:19Z</time>
      </trkpt>
      <trkpt lat="48.59021" lon="-4.06229">
        <ele>87.2</ele>
        <time>2020-06-10T10:11:20Z</time>
      </trkpt>
      <trkpt lat="48.59019" lon="-4.06221">
        <ele>87.4</ele>
        <time>2020-06-10T10:11:21Z</time>
      </trkpt>
      <trkpt lat="48.59017" lon="-4.06215">
        <ele>87.6</ele>
        <time>2020-06-10T10:11:22Z</time>
      </trkpt>
      <trkpt lat="48.59014" lon="-4.06208">
        <ele>87.8</ele>
        <time>2020-06-10T10:11:23Z</time>
      </trkpt>
      <trkpt lat="48.59012" lon="-4.06202">
        <ele>87.9</ele>
        <time>2020-06-10T10:11:24Z</time>
      </trkpt>
      <trkpt lat="48.5901" lon="-4.06197">
        <ele>88</ele>
        <time>2020-06-10T10:11:25Z</time>
      </trkpt>
      <trkpt lat="48.59008" lon="-4.06191">
        <ele>88.1</ele>
        <time>2020-06-10T10:11:26Z</time>
      </trkpt>
      <trkpt lat="48.59006" lon="-4.06186">
        <ele>88.3</ele>
        <time>2020-06-10T10:11:27Z</time>
      </trkpt>
      <trkpt lat="48.59004" lon="-4.0618">
        <ele>88.4</ele>
        <time>2020-06-10T10:11:28Z</time>
      </trkpt>
      <trkpt lat="48.59001" lon="-4.06174">
        <ele>88.5</ele>
        <time>2020-06-10T10:11:29Z</time>
      </trkpt>
      <trkpt lat="48.58999" lon="-4.06165">
        <ele>88.7</ele>
        <time>2020-06-10T10:11:30Z</time>
      </trkpt>
      <trkpt lat="48.58999" lon="-4.06161">
        <ele>88.9</ele>
        <time>2020-06-10T10:11:31Z</time>
      </trkpt>
      <trkpt lat="48.58997" lon="-4.06154">
        <ele>89</ele>
        <time>2020-06-10T10:11:32Z</time>
      </trkpt>
      <trkpt lat="48.58995" lon="-4.06148">
        <ele>89.2</ele>
        <time>2020-06-10T10:11:33Z</time>
      </trkpt>
      <trkpt lat="48.58994" lon="-4.06143">
        <ele>89.4</ele>
        <time>2020-06-10T10:11:34Z</time>
      </trkpt>
      <trkpt lat="48.58993" lon="-4.06137">
        <ele>89.5</ele>
        <time>2020-06-10T10:11:35Z</time>
      </trkpt>
      <trkpt lat="48.58991" lon="-4.06131">
        <ele>89.7</ele>
        <time>2020-06-10T10:11:36Z</time>
      </trkpt>
      <trkpt lat="48.58989" lon="-4.06126">
        <ele>89.9</ele>
        <time>2020-06-10T10:11:37Z</time>
      </trkpt>
      <trkpt lat="48.58988" lon="-4.06119">
        <ele>90.1</ele>
        <time>2020-06-10T10:11:38Z</time>
      </trkpt>
      <trkpt lat="48.58986" lon="-4.06114">
        <ele>90.3</ele>
        <time>2020-06-10T10:11:39Z</time>
      </trkpt>
      <trkpt lat="48.58985" lon="-4.06108">
        <ele>90.4</ele>
        <time>2020-06-10T10:11:40Z</time>
      </trkpt>
      <trkpt lat="48.58982" lon="-4.06104">
        <ele>90.6</ele>
        <time>2020-06-10T10:11:41Z</time>
      </trkpt>
      <trkpt lat="48.5898" lon="-4.06101">
        <ele>90.7</ele>
        <time>2020-06-10T10:11:42Z</time>
      </trkpt>
      <trkpt lat="48.58978" lon="-4.06094">
        <ele>90.9</ele>
        <time>2020-06-10T10:11:43Z</time>
      </trkpt>
      <trkpt lat="48.58977" lon="-4.06089">
        <ele>91.1</ele>
        <time>2020-06-10T10:11:44Z</time>
      </trkpt>
      <trkpt lat="48.58975" lon="-4.06081">
        <ele>91.3</ele>
        <time>2020-06-10T10:11:45Z</time>
      </trkpt>
      <trkpt lat="48.58974" lon="-4.06075">
        <ele>91.5</ele>
        <time>2020-06-10T10:11:46Z</time>
      </trkpt>
      <trkpt lat="48.58972" lon="-4.06068">
        <ele>91.7</ele>
        <time>2020-06-10T10:11:47Z</time>
      </trkpt>
      <trkpt lat="48.58971" lon="-4.06063">
        <ele>91.9</ele>
        <time>2020-06-10T10:11:48Z</time>
      </trkpt>
      <trkpt lat="48.5897" lon="-4.06057">
        <ele>92</ele>
        <time>2020-06-10T10:11:49Z</time>
      </trkpt>
      <trkpt lat="48.58968" lon="-4.0605">
        <ele>92.2</ele>
        <time>2020-06-10T10:11:50Z</time>
      </trkpt>
      <trkpt lat="48.58966" lon="-4.06045">
        <ele>92.4</ele>
        <time>2020-06-10T10:11:51Z</time>
      </trkpt>
      <trkpt lat="48.58965" lon="-4.0604">
        <ele>92.5</ele>
        <time>2020-06-10T10:11:52Z</time>
      </trkpt>
      <trkpt lat="48.58963" lon="-4.06035">
        <ele>92.7</ele>
        <time>2020-06-10T10:11:53Z</time>
      </trkpt>
      <trkpt lat="48.58962" lon="-4.06028">
        <ele>92.9</ele>
        <time>2020-06-10T10:11:54Z</time>
      </trkpt>
      <trkpt lat="48.5896" lon="-4.06022">
        <ele>93</ele>
        <time>2020-06-10T10:11:55Z</time>
      </trkpt>
      <trkpt lat="48.58958" lon="-4.06014">
        <ele>93.3</ele>
        <time>2020-06-10T10:11:56Z</time>
      </trkpt>
      <trkpt lat="48.58956" lon="-4.0601">
        <ele>93.4</ele>
        <time>2020-06-10T10:11:57Z</time>
      </trkpt>
      <trkpt lat="48.58954" lon="-4.06002">
        <ele>93.6</ele>
        <time>2020-06-10T10:11:58Z</time>
      </trkpt>
      <trkpt lat="48.58952" lon="-4.05998">
        <ele>93.7</ele>
        <time>2020-06-10T10:11:59Z</time>
      </trkpt>
      <trkpt lat="48.58951" lon="-4.05993">
        <ele>93.8</ele>
        <time>2020-06-10T10:12:00Z</time>
      </trkpt>
      <trkpt lat="48.58948" lon="-4.05987">
        <ele>94</ele>
        <time>2020-06-10T10:12:01Z</time>
      </trkpt>
      <trkpt lat="48.58946" lon="-4.05981">
        <ele>94.2</ele>
        <time>2020-06-10T10:12:02Z</time>
      </trkpt>
      <trkpt lat="48.58944" lon="-4.05973">
        <ele>94.4</ele>
        <time>2020-06-10T10:12:03Z</time>
      </trkpt>
      <trkpt lat="48.58942" lon="-4.05966">
        <ele>94.6</ele>
        <time>2020-06-10T10:12:04Z</time>
      </trkpt>
      <trkpt lat="48.5894" lon="-4.05959">
        <ele>94.8</ele>
        <time>2020-06-10T10:12:05Z</time>
      </trkpt>
      <trkpt lat="48.58938" lon="-4.05952">
        <ele>95</ele>
        <time>2020-06-10T10:12:06Z</time>
      </trkpt>
      <trkpt lat="48.58936" lon="-4.05945">
        <ele>95.2</ele>
        <time>2020-06-10T10:12:07Z</time>
      </trkpt>
      <trkpt lat="48.58935" lon="-4.0594">
        <ele>95.3</ele>
        <time>2020-06-10T10:12:08Z</time>
      </trkpt>
      <trkpt lat="48.58933" lon="-4.05935">
        <ele>95.4</ele>
        <time>2020-06-10T10:12:09Z</time>
      </trkpt>
      <trkpt lat="48.58932" lon="-4.0593">
        <ele>95.6</ele>
        <time>2020-06-10T10:12:10Z</time>
      </trkpt>
      <trkpt lat="48.5893" lon="-4.05925">
        <ele>95.7</ele>
        <time>2020-06-10T10:12:11Z</time>
      </trkpt>
      <trkpt lat="48.58928" lon="-4.05917">
        <ele>95.9</ele>
        <time>2020-06-10T10:12:12Z</time>
      </trkpt>
      <trkpt lat="48.58927" lon="-4.05911">
        <ele>96.1</ele>
        <time>2020-06-10T10:12:13Z</time>
      </trkpt>
      <trkpt lat="48.58925" lon="-4.05904">
        <ele>96.3</ele>
        <time>2020-06-10T10:12:14Z</time>
      </trkpt>
      <trkpt lat="48.58923" lon="-4.05899">
        <ele>96.5</ele>
        <time>2020-06-10T10:12:15Z</time>
      </trkpt>
      <trkpt lat="48.58922" lon="-4.05895">
        <ele>96.6</ele>
        <time>2020-06-10T10:12:16Z</time>
      </trkpt>
      <trkpt lat="48.5892" lon="-4.05889">
        <ele>96.8</ele>
        <time>2020-06-10T10:12:17Z</time>
      </trkpt>
      <trkpt lat="48.58918" lon="-4.05885">
        <ele>96.9</ele>
        <time>2020-06-10T10:12:18Z</time>
      </trkpt>
      <trkpt lat="48.58915" lon="-4.05879">
        <ele>97.1</ele>
        <time>2020-06-10T10:12:19Z</time>
      </trkpt>
      <trkpt lat="48.58913" lon="-4.05873">
        <ele>97.3</ele>
        <time>2020-06-10T10:12:20Z</time>
      </trkpt>
      <trkpt lat="48.58911" lon="-4.05867">
        <ele>97.4</ele>
        <time>2020-06-10T10:12:21Z</time>
      </trkpt>
      <trkpt lat="48.5891" lon="-4.05862">
        <ele>97.5</ele>
        <time>2020-06-10T10:12:22Z</time>
      </trkpt>
      <trkpt lat="48.58907" lon="-4.05857">
        <ele>97.7</ele>
        <time>2020-06-10T10:12:23Z</time>
      </trkpt>
      <trkpt lat="48.58905" lon="-4.05851">
        <ele>97.8</ele>
        <time>2020-06-10T10:12:24Z</time>
      </trkpt>
      <trkpt lat="48.58903" lon="-4.05843">
        <ele>98</ele>
        <time>2020-06-10T10:12:25Z</time>
      </trkpt>
      <trkpt lat="48.58901" lon="-4.05838">
        <ele>98.1</ele>
        <time>2020-06-10T10:12:26Z</time>
      </trkpt>
      <trkpt lat="48.58899" lon="-4.0583">
        <ele>98.3</ele>
        <time>2020-06-10T10:12:27Z</time>
      </trkpt>
      <trkpt lat="48.58897" lon="-4.05826">
        <ele>98.4</ele>
        <time>2020-06-10T10:12:28Z</time>
      </trkpt>
      <trkpt lat="48.58895" lon="-4.05821">
        <ele>98.4</ele>
        <time>2020-06-10T10:12:29Z</time>
      </trkpt>
      <trkpt lat="48.58892" lon="-4.05814">
        <ele>98.6</ele>
        <time>2020-06-10T10:12:30Z</time>
      </trkpt>
      <trkpt lat="48.5889" lon="-4.05806">
        <ele>98.7</ele>
        <time>2020-06-10T10:12:31Z</time>
      </trkpt>
      <trkpt lat="48.58887" lon="-4.05799">
        <ele>98.9</ele>
        <time>2020-06-10T10:12:32Z</time>
      </trkpt>
      <trkpt lat="48.58885" lon="-4.05793">
        <ele>99</ele>
        <time>2020-06-10T10:12:33Z</time>
      </trkpt>
      <trkpt lat="48.58883" lon="-4.05787">
        <ele>99.2</ele>
        <time>2020-06-10T10:12:34Z</time>
      </trkpt>
      <trkpt lat="48.58881" lon="-4.05782">
        <ele>99.3</ele>
        <time>2020-06-10T10:12:35Z</time>
      </trkpt>
      <trkpt lat="48.58879" lon="-4.05776">
        <ele>99.5</ele>
        <time>2020-06-10T10:12:36Z</time>
      </trkpt>
      <trkpt lat="48.58876" lon="-4.05768">
        <ele>99.6</ele>
        <time>2020-06-10T10:12:37Z</time>
      </trkpt>
      <trkpt lat="48.58874" lon="-4.05762">
        <ele>99.7</ele>
        <time>2020-06-10T10:12:38Z</time>
      </trkpt>
      <trkpt lat="48.58872" lon="-4.05758">
        <ele>99.8</ele>
        <time>2020-06-10T10:12:39Z</time>
      </trkpt>
      <trkpt lat="48.5887" lon="-4.05751">
        <ele>100</ele>
        <time>2020-06-10T10:12:40Z</time>
      </trkpt>
      <trkpt lat="48.58867" lon="-4.05745">
        <ele>100.1</ele>
        <time>2020-06-10T10:12:41Z</time>
      </trkpt>
      <trkpt lat="48.58866" lon="-4.0574">
        <ele>100.2</ele>
        <time>2020-06-10T10:12:42Z</time>
      </trkpt>
      <trkpt lat="48.58865" lon="-4.05734">
        <ele>100.3</ele>
        <time>2020-06-10T10:12:43Z</time>
      </trkpt>
      <trkpt lat="48.58863" lon="-4.05728">
        <ele>100.4</ele>
        <time>2020-06-10T10:12:44Z</time>
      </trkpt>
      <trkpt lat="48.58861" lon="-4.05722">
        <ele>100.5</ele>
        <time>2020-06-10T10:12:45Z</time>
      </trkpt>
      <trkpt lat="48.5886" lon="-4.05715">
        <ele>100.6</ele>
        <time>2020-06-10T10:12:46Z</time>
      </trkpt>
      <trkpt lat="48.58857" lon="-4.05708">
        <ele>100.8</ele>
        <time>2020-06-10T10:12:47Z</time>
      </trkpt>
      <trkpt lat="48.58855" lon="-4.057">
        <ele>100.9</ele>
        <time>2020-06-10T10:12:48Z</time>
      </trkpt>
      <trkpt lat="48.58853" lon="-4.05693">
        <ele>101</ele>
        <time>2020-06-10T10:12:49Z</time>
      </trkpt>
      <trkpt lat="48.5885" lon="-4.05686">
        <ele>101.1</ele>
        <time>2020-06-10T10:12:50Z</time>
      </trkpt>
      <trkpt lat="48.58848" lon="-4.0568">
        <ele>101.2</ele>
        <time>2020-06-10T10:12:51Z</time>
      </trkpt>
      <trkpt lat="48.58846" lon="-4.05674">
        <ele>101.3</ele>
        <time>2020-06-10T10:12:52Z</time>
      </trkpt>
      <trkpt lat="48.58843" lon="-4.05666">
        <ele>101.4</ele>
        <time>2020-06-10T10:12:53Z</time>
      </trkpt>
      <trkpt lat="48.5884" lon="-4.05659">
        <ele>101.5</ele>
        <time>2020-06-10T10:12:54Z</time>
      </trkpt>
      <trkpt lat="48.58838" lon="-4.05653">
        <ele>101.5</ele>
        <time>2020-06-10T10:12:55Z</time>
      </trkpt>
      <trkpt lat="48.58836" lon="-4.05648">
        <ele>101.6</ele>
        <time>2020-06-10T10:12:56Z</time>
      </trkpt>
      <trkpt lat="48.58834" lon="-4.05643">
        <ele>101.6</ele>
        <time>2020-06-10T10:12:57Z</time>
      </trkpt>
      <trkpt lat="48.58832" lon="-4.05638">
        <ele>101.7</ele>
        <time>2020-06-10T10:12:58Z</time>
      </trkpt>
      <trkpt lat="48.5883" lon="-4.05633">
        <ele>101.8</ele>
        <time>2020-06-10T10:12:59Z</time>
      </trkpt>
      <trkpt lat="48.58829" lon="-4.05628">
        <ele>101.9</ele>
        <time>2020-06-10T10:13:00Z</time>
      </trkpt>
      <trkpt lat="48.58827" lon="-4.05623">
        <ele>101.9</ele>
        <time>2020-06-10T10:13:01Z</time>
      </trkpt>
      <trkpt lat="48.58826" lon="-4.05622">
        <ele>102</ele>
        <time>2020-06-10T10:13:02Z</time>
      </trkpt>
      <trkpt lat="48.58825" lon="-4.05617">
        <ele>102.1</ele>
        <time>2020-06-10T10:13:03Z</time>
      </trkpt>
      <trkpt lat="48.58824" lon="-4.05616">
        <ele>102.1</ele>
        <time>2020-06-10T10:13:04Z</time>
      </trkpt>
      <trkpt lat="48.58823" lon="-4.05611">
        <ele>102.2</ele>
        <time>2020-06-10T10:13:05Z</time>
      </trkpt>
      <trkpt lat="48.58823" lon="-4.0561">
        <ele>102.2</ele>
        <time>2020-06-10T10:13:06Z</time>
      </trkpt>
      <trkpt lat="48.5882" lon="-4.05607">
        <ele>102.3</ele>
        <time>2020-06-10T10:13:07Z</time>
      </trkpt>
      <trkpt lat="48.58819" lon="-4.05606">
        <ele>102.3</ele>
        <time>2020-06-10T10:13:08Z</time>
      </trkpt>
      <trkpt lat="48.58817" lon="-4.05604">
        <ele>102.4</ele>
        <time>2020-06-10T10:13:09Z</time>
      </trkpt>
      <trkpt lat="48.58816" lon="-4.05603">
        <ele>102.4</ele>
        <time>2020-06-10T10:13:10Z</time>
      </trkpt>
      <trkpt lat="48.58815" lon="-4.056">
        <ele>102.5</ele>
        <time>2020-06-10T10:13:11Z</time>
      </trkpt>
      <trkpt lat="48.58815" lon="-4.05599">
        <ele>102.5</ele>
        <time>2020-06-10T10:13:12Z</time>
      </trkpt>
      <trkpt lat="48.58815" lon="-4.05598">
        <ele>102.6</ele>
        <time>2020-06-10T10:13:13Z</time>
      </trkpt>
      <trkpt lat="48.58814" lon="-4.05597">
        <ele>102.6</ele>
        <time>2020-06-10T10:13:14Z</time>
      </trkpt>
      <trkpt lat="48.58814" lon="-4.05596">
        <ele>102.6</ele>
        <time>2020-06-10T10:13:15Z</time>
      </trkpt>
      <trkpt lat="48.58814" lon="-4.05595">
        <ele>102.6</ele>
        <time>2020-06-10T10:13:16Z</time>
      </trkpt>
      <trkpt lat="48.58814" lon="-4.05594">
        <ele>102.6</ele>
        <time>2020-06-10T10:13:17Z</time>
      </trkpt>
      <trkpt lat="48.58813" lon="-4.05593">
        <ele>102.6</ele>
        <time>2020-06-10T10:13:18Z</time>
      </trkpt>
      <trkpt lat="48.58813" lon="-4.05592">
        <ele>102.6</ele>
        <time>2020-06-10T10:13:19Z</time>
      </trkpt>
      <trkpt lat="48.58813" lon="-4.05591">
        <ele>102.6</ele>
        <time>2020-06-10T10:13:20Z</time>
      </trkpt>
      <trkpt lat="48.58813" lon="-4.0559">
        <ele>102.6</ele>
        <time>2020-06-10T10:13:21Z</time>
      </trkpt>
      <trkpt lat="48.58813" lon="-4.05589">
        <ele>102.6</ele>
        <time>2020-06-10T10:13:22Z</time>
      </trkpt>
      <trkpt lat="48.58812" lon="-4.05588">
        <ele>102.6</ele>
        <time>2020-06-10T10:13:23Z</time>
      </trkpt>
      <trkpt lat="48.58812" lon="-4.05587">
        <ele>102.6</ele>
        <time>2020-06-10T10:13:24Z</time>
      </trkpt>
      <trkpt lat="48.58812" lon="-4.05586">
        <ele>102.6</ele>
        <time>2020-06-10T10:17:10Z</time>
      </trkpt>
      <trkpt lat="48.58812" lon="-4.05585">
        <ele>102.6</ele>
        <time>2020-06-10T10:17:11Z</time>
      </trkpt>
      <trkpt lat="48.5881" lon="-4.05582">
        <ele>102.6</ele>
        <time>2020-06-10T10:17:12Z</time>
      </trkpt>
      <trkpt lat="48.58809" lon="-4.05577">
        <ele>102.6</ele>
        <time>2020-06-10T10:17:13Z</time>
      </trkpt>
      <trkpt lat="48.58808" lon="-4.05573">
        <ele>102.6</ele>
        <time>2020-06-10T10:17:14Z</time>
      </trkpt>
      <trkpt lat="48.58807" lon="-4.05569">
        <ele>102.6</ele>
        <time>2020-06-10T10:17:15Z</time>
      </trkpt>
      <trkpt lat="48.58805" lon="-4.05565">
        <ele>102.6</ele>
        <time>2020-06-10T10:17:16Z</time>
      </trkpt>
      <trkpt lat="48.58804" lon="-4.05561">
        <ele>102.6</ele>
        <time>2020-06-10T10:17:17Z</time>
      </trkpt>
      <trkpt lat="48.58801" lon="-4.05557">
        <ele>102.6</ele>
        <time>2020-06-10T10:17:18Z</time>
      </trkpt>
      <trkpt lat="48.58799" lon="-4.05553">
        <ele>102.6</ele>
        <time>2020-06-10T10:17:19Z</time>
      </trkpt>
      <trkpt lat="48.58797" lon="-4.05548">
        <ele>102.6</ele>
        <time>2020-06-10T10:17:20Z</time>
      </trkpt>
      <trkpt lat="48.58796" lon="-4.05543">
        <ele>102.6</ele>
        <time>2020-06-10T10:17:21Z</time>
      </trkpt>
      <trkpt lat="48.58794" lon="-4.05537">
        <ele>102.7</ele>
        <time>2020-06-10T10:17:22Z</time>
      </trkpt>
      <trkpt lat="48.58792" lon="-4.05532">
        <ele>102.7</ele>
        <time>2020-06-10T10:17:23Z</time>
      </trkpt>
      <trkpt lat="48.58791" lon="-4.05527">
        <ele>102.7</ele>
        <time>2020-06-10T10:17:24Z</time>
      </trkpt>
      <trkpt lat="48.58789" lon="-4.05522">
        <ele>102.7</ele>
        <time>2020-06-10T10:17:25Z</time>
      </trkpt>
      <trkpt lat="48.58787" lon="-4.05517">
        <ele>102.7</ele>
        <time>2020-06-10T10:17:26Z</time>
      </trkpt>
      <trkpt lat="48.58786" lon="-4.05512">
        <ele>102.8</ele>
        <time>2020-06-10T10:17:27Z</time>
      </trkpt>
      <trkpt lat="48.58784" lon="-4.05506">
        <ele>102.8</ele>
        <time>2020-06-10T10:17:28Z</time>
      </trkpt>
      <trkpt lat="48.58782" lon="-4.05501">
        <ele>102.8</ele>
        <time>2020-06-10T10:17:29Z</time>
      </trkpt>
      <trkpt lat="48.58779" lon="-4.05495">
        <ele>102.9</ele>
        <time>2020-06-10T10:17:30Z</time>
      </trkpt>
      <trkpt lat="48.58777" lon="-4.05489">
        <ele>102.9</ele>
        <time>2020-06-10T10:17:31Z</time>
      </trkpt>
      <trkpt lat="48.58777" lon="-4.05482">
        <ele>102.9</ele>
        <time>2020-06-10T10:17:32Z</time>
      </trkpt>
      <trkpt lat="48.58775" lon="-4.05477">
        <ele>102.9</ele>
        <time>2020-06-10T10:17:33Z</time>
      </trkpt>
      <trkpt lat="48.58773" lon="-4.05471">
        <ele>102.9</ele>
        <time>2020-06-10T10:17:34Z</time>
      </trkpt>
      <trkpt lat="48.58771" lon="-4.05467">
        <ele>102.9</ele>
        <time>2020-06-10T10:17:35Z</time>
      </trkpt>
      <trkpt lat="48.58768" lon="-4.05462">
        <ele>102.9</ele>
        <time>2020-06-10T10:17:36Z</time>
      </trkpt>
      <trkpt lat="48.58766" lon="-4.05456">
        <ele>102.9</ele>
        <time>2020-06-10T10:17:37Z</time>
      </trkpt>
      <trkpt lat="48.58764" lon="-4.05449">
        <ele>102.9</ele>
        <time>2020-06-10T10:17:38Z</time>
      </trkpt>
      <trkpt lat="48.58762" lon="-4.05443">
        <ele>102.9</ele>
        <time>2020-06-10T10:17:39Z</time>
      </trkpt>
      <trkpt lat="48.5876" lon="-4.05436">
        <ele>102.9</ele>
        <time>2020-06-10T10:17:40Z</time>
      </trkpt>
      <trkpt lat="48.58757" lon="-4.0543">
        <ele>102.9</ele>
        <time>2020-06-10T10:17:41Z</time>
      </trkpt>
      <trkpt lat="48.58754" lon="-4.05423">
        <ele>102.9</ele>
        <time>2020-06-10T10:17:42Z</time>
      </trkpt>
      <trkpt lat="48.58752" lon="-4.05418">
        <ele>102.9</ele>
        <time>2020-06-10T10:17:43Z</time>
      </trkpt>
      <trkpt lat="48.5875" lon="-4.05412">
        <ele>102.9</ele>
        <time>2020-06-10T10:17:44Z</time>
      </trkpt>
      <trkpt lat="48.58749" lon="-4.05405">
        <ele>102.9</ele>
        <time>2020-06-10T10:17:45Z</time>
      </trkpt>
      <trkpt lat="48.58747" lon="-4.054">
        <ele>102.9</ele>
        <time>2020-06-10T10:17:46Z</time>
      </trkpt>
      <trkpt lat="48.58745" lon="-4.05395">
        <ele>102.9</ele>
        <time>2020-06-10T10:17:47Z</time>
      </trkpt>
      <trkpt lat="48.58743" lon="-4.0539">
        <ele>102.9</ele>
        <time>2020-06-10T10:17:48Z</time>
      </trkpt>
      <trkpt lat="48.58741" lon="-4.05384">
        <ele>102.9</ele>
        <time>2020-06-10T10:17:49Z</time>
      </trkpt>
      <trkpt lat="48.5874" lon="-4.05379">
        <ele>102.9</ele>
        <time>2020-06-10T10:17:50Z</time>
      </trkpt>
      <trkpt lat="48.58738" lon="-4.05373">
        <ele>102.9</ele>
        <time>2020-06-10T10:17:51Z</time>
      </trkpt>
      <trkpt lat="48.58737" lon="-4.05367">
        <ele>102.9</ele>
        <time>2020-06-10T10:17:52Z</time>
      </trkpt>
      <trkpt lat="48.58735" lon="-4.0536">
        <ele>102.9</ele>
        <time>2020-06-10T10:17:53Z</time>
      </trkpt>
      <trkpt lat="48.58734" lon="-4.05353">
        <ele>102.9</ele>
        <time>2020-06-10T10:17:54Z</time>
      </trkpt>
      <trkpt lat="48.58732" lon="-4.05347">
        <ele>102.8</ele>
        <time>2020-06-10T10:17:55Z</time>
      </trkpt>
      <trkpt lat="48.5873" lon="-4.05342">
        <ele>102.8</ele>
        <time>2020-06-10T10:17:56Z</time>
      </trkpt>
      <trkpt lat="48.58728" lon="-4.05337">
        <ele>102.8</ele>
        <time>2020-06-10T10:17:57Z</time>
      </trkpt>
      <trkpt lat="48.58726" lon="-4.05331">
        <ele>102.8</ele>
        <time>2020-06-10T10:17:58Z</time>
      </trkpt>
      <trkpt lat="48.58725" lon="-4.05324">
        <ele>102.8</ele>
        <time>2020-06-10T10:17:59Z</time>
      </trkpt>
      <trkpt lat="48.58723" lon="-4.05317">
        <ele>102.8</ele>
        <time>2020-06-10T10:18:00Z</time>
      </trkpt>
      <trkpt lat="48.5872" lon="-4.05311">
        <ele>102.8</ele>
        <time>2020-06-10T10:18:01Z</time>
      </trkpt>
      <trkpt lat="48.58718" lon="-4.05304">
        <ele>102.8</ele>
        <time>2020-06-10T10:18:02Z</time>
      </trkpt>
      <trkpt lat="48.58716" lon="-4.05297">
        <ele>102.8</ele>
        <time>2020-06-10T10:18:03Z</time>
      </trkpt>
      <trkpt lat="48.58714" lon="-4.05291">
        <ele>102.8</ele>
        <time>2020-06-10T10:18:04Z</time>
      </trkpt>
      <trkpt lat="48.58712" lon="-4.05286">
        <ele>102.8</ele>
        <time>2020-06-10T10:18:05Z</time>
      </trkpt>
      <trkpt lat="48.5871" lon="-4.0528">
        <ele>102.7</ele>
        <time>2020-06-10T10:18:06Z</time>
      </trkpt>
      <trkpt lat="48.58708" lon="-4.05273">
        <ele>102.7</ele>
        <time>2020-06-10T10:18:07Z</time>
      </trkpt>
      <trkpt lat="48.58706" lon="-4.05267">
        <ele>102.7</ele>
        <time>2020-06-10T10:18:08Z</time>
      </trkpt>
      <trkpt lat="48.58704" lon="-4.05261">
        <ele>102.7</ele>
        <time>2020-06-10T10:18:09Z</time>
      </trkpt>
      <trkpt lat="48.58702" lon="-4.05255">
        <ele>102.6</ele>
        <time>2020-06-10T10:18:10Z</time>
      </trkpt>
      <trkpt lat="48.58701" lon="-4.05248">
        <ele>102.6</ele>
        <time>2020-06-10T10:18:11Z</time>
      </trkpt>
      <trkpt lat="48.58699" lon="-4.05243">
        <ele>102.6</ele>
        <time>2020-06-10T10:18:12Z</time>
      </trkpt>
      <trkpt lat="48.58697" lon="-4.05236">
        <ele>102.6</ele>
        <time>2020-06-10T10:18:13Z</time>
      </trkpt>
      <trkpt lat="48.58696" lon="-4.05231">
        <ele>102.6</ele>
        <time>2020-06-10T10:18:14Z</time>
      </trkpt>
      <trkpt lat="48.58695" lon="-4.05225">
        <ele>102.7</ele>
        <time>2020-06-10T10:18:15Z</time>
      </trkpt>
      <trkpt lat="48.58694" lon="-4.0522">
        <ele>102.7</ele>
        <time>2020-06-10T10:18:16Z</time>
      </trkpt>
      <trkpt lat="48.58692" lon="-4.05215">
        <ele>102.7</ele>
        <time>2020-06-10T10:18:17Z</time>
      </trkpt>
      <trkpt lat="48.5869" lon="-4.0521">
        <ele>102.7</ele>
        <time>2020-06-10T10:18:18Z</time>
      </trkpt>
      <trkpt lat="48.58689" lon="-4.05204">
        <ele>102.7</ele>
        <time>2020-06-10T10:18:19Z</time>
      </trkpt>
      <trkpt lat="48.58687" lon="-4.05199">
        <ele>102.7</ele>
        <time>2020-06-10T10:18:20Z</time>
      </trkpt>
      <trkpt lat="48.58686" lon="-4.05195">
        <ele>102.7</ele>
        <time>2020-06-10T10:18:21Z</time>
      </trkpt>
      <trkpt lat="48.58685" lon="-4.05189">
        <ele>102.7</ele>
        <time>2020-06-10T10:18:22Z</time>
      </trkpt>
      <trkpt lat="48.58683" lon="-4.05184">
        <ele>102.7</ele>
        <time>2020-06-10T10:18:23Z</time>
      </trkpt>
      <trkpt lat="48.58682" lon="-4.05179">
        <ele>102.6</ele>
        <time>2020-06-10T10:18:24Z</time>
      </trkpt>
      <trkpt lat="48.58681" lon="-4.05173">
        <ele>102.6</ele>
        <time>2020-06-10T10:18:25Z</time>
      </trkpt>
      <trkpt lat="48.5868" lon="-4.05168">
        <ele>102.6</ele>
        <time>2020-06-10T10:18:26Z</time>
      </trkpt>
      <trkpt lat="48.58679" lon="-4.05162">
        <ele>102.6</ele>
        <time>2020-06-10T10:18:27Z</time>
      </trkpt>
      <trkpt lat="48.58678" lon="-4.05157">
        <ele>102.5</ele>
        <time>2020-06-10T10:18:28Z</time>
      </trkpt>
      <trkpt lat="48.58677" lon="-4.05151">
        <ele>102.5</ele>
        <time>2020-06-10T10:18:29Z</time>
      </trkpt>
      <trkpt lat="48.58676" lon="-4.05147">
        <ele>102.5</ele>
        <time>2020-06-10T10:18:30Z</time>
      </trkpt>
      <trkpt lat="48.58675" lon="-4.05143">
        <ele>102.4</ele>
        <time>2020-06-10T10:18:31Z</time>
      </trkpt>
      <trkpt lat="48.58674" lon="-4.05138">
        <ele>102.4</ele>
        <time>2020-06-10T10:18:32Z</time>
      </trkpt>
      <trkpt lat="48.58673" lon="-4.05133">
        <ele>102.3</ele>
        <time>2020-06-10T10:18:33Z</time>
      </trkpt>
      <trkpt lat="48.58671" lon="-4.05127">
        <ele>102.3</ele>
        <time>2020-06-10T10:18:34Z</time>
      </trkpt>
      <trkpt lat="48.5867" lon="-4.05121">
        <ele>102.2</ele>
        <time>2020-06-10T10:18:35Z</time>
      </trkpt>
      <trkpt lat="48.58669" lon="-4.05117">
        <ele>102.2</ele>
        <time>2020-06-10T10:18:36Z</time>
      </trkpt>
      <trkpt lat="48.58668" lon="-4.05111">
        <ele>102.1</ele>
        <time>2020-06-10T10:18:37Z</time>
      </trkpt>
      <trkpt lat="48.58667" lon="-4.05106">
        <ele>102</ele>
        <time>2020-06-10T10:18:38Z</time>
      </trkpt>
      <trkpt lat="48.58664" lon="-4.051">
        <ele>102</ele>
        <time>2020-06-10T10:18:39Z</time>
      </trkpt>
      <trkpt lat="48.58662" lon="-4.05094">
        <ele>101.9</ele>
        <time>2020-06-10T10:18:40Z</time>
      </trkpt>
      <trkpt lat="48.58661" lon="-4.05087">
        <ele>101.8</ele>
        <time>2020-06-10T10:18:41Z</time>
      </trkpt>
      <trkpt lat="48.58659" lon="-4.05082">
        <ele>101.7</ele>
        <time>2020-06-10T10:18:42Z</time>
      </trkpt>
      <trkpt lat="48.58656" lon="-4.05077">
        <ele>101.6</ele>
        <time>2020-06-10T10:18:43Z</time>
      </trkpt>
      <trkpt lat="48.58653" lon="-4.0507">
        <ele>101.5</ele>
        <time>2020-06-10T10:18:44Z</time>
      </trkpt>
      <trkpt lat="48.5865" lon="-4.05063">
        <ele>101.4</ele>
        <time>2020-06-10T10:18:45Z</time>
      </trkpt>
      <trkpt lat="48.58646" lon="-4.05056">
        <ele>101.2</ele>
        <time>2020-06-10T10:18:46Z</time>
      </trkpt>
      <trkpt lat="48.58642" lon="-4.05049">
        <ele>101.1</ele>
        <time>2020-06-10T10:18:47Z</time>
      </trkpt>
      <trkpt lat="48.58638" lon="-4.05041">
        <ele>101</ele>
        <time>2020-06-10T10:18:48Z</time>
      </trkpt>
      <trkpt lat="48.58634" lon="-4.05036">
        <ele>100.8</ele>
        <time>2020-06-10T10:18:49Z</time>
      </trkpt>
      <trkpt lat="48.58629" lon="-4.05033">
        <ele>100.7</ele>
        <time>2020-06-10T10:18:50Z</time>
      </trkpt>
      <trkpt lat="48.58623" lon="-4.0503">
        <ele>100.6</ele>
        <time>2020-06-10T10:18:51Z</time>
      </trkpt>
      <trkpt lat="48.58618" lon="-4.05027">
        <ele>100.5</ele>
        <time>2020-06-10T10:18:52Z</time>
      </trkpt>
      <trkpt lat="48.58613" lon="-4.05025">
        <ele>100.3</ele>
        <time>2020-06-10T10:18:53Z</time>
      </trkpt>
      <trkpt lat="48.58607" lon="-4.05023">
        <ele>100.2</ele>
        <time>2020-06-10T10:18:54Z</time>
      </trkpt>
      <trkpt lat="48.58601" lon="-4.05022">
        <ele>100</ele>
        <time>2020-06-10T10:18:55Z</time>
      </trkpt>
      <trkpt lat="48.58595" lon="-4.05021">
        <ele>99.8</ele>
        <time>2020-06-10T10:18:56Z</time>
      </trkpt>
      <trkpt lat="48.5859" lon="-4.0502">
        <ele>99.7</ele>
        <time>2020-06-10T10:18:57Z</time>
      </trkpt>
      <trkpt lat="48.58585" lon="-4.05018">
        <ele>99.5</ele>
        <time>2020-06-10T10:18:58Z</time>
      </trkpt>
      <trkpt lat="48.5858" lon="-4.05018">
        <ele>99.4</ele>
        <time>2020-06-10T10:18:59Z</time>
      </trkpt>
      <trkpt lat="48.58575" lon="-4.05016">
        <ele>99.2</ele>
        <time>2020-06-10T10:19:00Z</time>
      </trkpt>
      <trkpt lat="48.58569" lon="-4.05015">
        <ele>99</ele>
        <time>2020-06-10T10:19:01Z</time>
      </trkpt>
      <trkpt lat="48.58564" lon="-4.05014">
        <ele>98.9</ele>
        <time>2020-06-10T10:19:02Z</time>
      </trkpt>
      <trkpt lat="48.58559" lon="-4.05012">
        <ele>98.7</ele>
        <time>2020-06-10T10:19:03Z</time>
      </trkpt>
      <trkpt lat="48.58554" lon="-4.05011">
        <ele>98.6</ele>
        <time>2020-06-10T10:19:04Z</time>
      </trkpt>
      <trkpt lat="48.5855" lon="-4.05008">
        <ele>98.4</ele>
        <time>2020-06-10T10:19:05Z</time>
      </trkpt>
      <trkpt lat="48.58544" lon="-4.05006">
        <ele>98.3</ele>
        <time>2020-06-10T10:19:06Z</time>
      </trkpt>
      <trkpt lat="48.58538" lon="-4.05004">
        <ele>98.1</ele>
        <time>2020-06-10T10:19:07Z</time>
      </trkpt>
      <trkpt lat="48.58532" lon="-4.05002">
        <ele>98</ele>
        <time>2020-06-10T10:19:08Z</time>
      </trkpt>
      <trkpt lat="48.58527" lon="-4.05001">
        <ele>97.8</ele>
        <time>2020-06-10T10:19:09Z</time>
      </trkpt>
      <trkpt lat="48.58521" lon="-4.04999">
        <ele>97.7</ele>
        <time>2020-06-10T10:19:10Z</time>
      </trkpt>
      <trkpt lat="48.58515" lon="-4.04997">
        <ele>97.6</ele>
        <time>2020-06-10T10:19:11Z</time>
      </trkpt>
      <trkpt lat="48.58509" lon="-4.04995">
        <ele>97.5</ele>
        <time>2020-06-10T10:19:12Z</time>
      </trkpt>
      <trkpt lat="48.58503" lon="-4.04993">
        <ele>97.4</ele>
        <time>2020-06-10T10:19:13Z</time>
      </trkpt>
      <trkpt lat="48.58497" lon="-4.04991">
        <ele>97.3</ele>
        <time>2020-06-10T10:19:14Z</time>
      </trkpt>
      <trkpt lat="48.58492" lon="-4.04989">
        <ele>97.1</ele>
        <time>2020-06-10T10:19:15Z</time>
      </trkpt>
      <trkpt lat="48.58486" lon="-4.04987">
        <ele>97</ele>
        <time>2020-06-10T10:19:16Z</time>
      </trkpt>
      <trkpt lat="48.58481" lon="-4.04984">
        <ele>97</ele>
        <time>2020-06-10T10:19:17Z</time>
      </trkpt>
      <trkpt lat="48.58475" lon="-4.04981">
        <ele>96.9</ele>
        <time>2020-06-10T10:19:18Z</time>
      </trkpt>
      <trkpt lat="48.58469" lon="-4.04978">
        <ele>96.9</ele>
        <time>2020-06-10T10:19:19Z</time>
      </trkpt>
      <trkpt lat="48.58464" lon="-4.04976">
        <ele>96.9</ele>
        <time>2020-06-10T10:19:20Z</time>
      </trkpt>
      <trkpt lat="48.58458" lon="-4.04973">
        <ele>97</ele>
        <time>2020-06-10T10:19:21Z</time>
      </trkpt>
      <trkpt lat="48.58451" lon="-4.04969">
        <ele>97</ele>
        <time>2020-06-10T10:19:22Z</time>
      </trkpt>
      <trkpt lat="48.58445" lon="-4.04968">
        <ele>97</ele>
        <time>2020-06-10T10:19:23Z</time>
      </trkpt>
      <trkpt lat="48.58439" lon="-4.04968">
        <ele>97.1</ele>
        <time>2020-06-10T10:19:24Z</time>
      </trkpt>
      <trkpt lat="48.58433" lon="-4.04966">
        <ele>97.1</ele>
        <time>2020-06-10T10:19:25Z</time>
      </trkpt>
      <trkpt lat="48.58427" lon="-4.04966">
        <ele>97.2</ele>
        <time>2020-06-10T10:19:26Z</time>
      </trkpt>
      <trkpt lat="48.58421" lon="-4.04965">
        <ele>97.3</ele>
        <time>2020-06-10T10:19:27Z</time>
      </trkpt>
      <trkpt lat="48.58416" lon="-4.04963">
        <ele>97.4</ele>
        <time>2020-06-10T10:19:28Z</time>
      </trkpt>
      <trkpt lat="48.5841" lon="-4.04961">
        <ele>97.4</ele>
        <time>2020-06-10T10:19:29Z</time>
      </trkpt>
      <trkpt lat="48.58404" lon="-4.04959">
        <ele>97.5</ele>
        <time>2020-06-10T10:19:30Z</time>
      </trkpt>
      <trkpt lat="48.584" lon="-4.04958">
        <ele>97.6</ele>
        <time>2020-06-10T10:19:31Z</time>
      </trkpt>
      <trkpt lat="48.58395" lon="-4.04956">
        <ele>97.7</ele>
        <time>2020-06-10T10:19:32Z</time>
      </trkpt>
      <trkpt lat="48.5839" lon="-4.04954">
        <ele>97.8</ele>
        <time>2020-06-10T10:19:33Z</time>
      </trkpt>
      <trkpt lat="48.58385" lon="-4.04953">
        <ele>97.9</ele>
        <time>2020-06-10T10:19:34Z</time>
      </trkpt>
      <trkpt lat="48.5838" lon="-4.04952">
        <ele>97.9</ele>
        <time>2020-06-10T10:19:35Z</time>
      </trkpt>
      <trkpt lat="48.58376" lon="-4.0495">
        <ele>98</ele>
        <time>2020-06-10T10:19:36Z</time>
      </trkpt>
      <trkpt lat="48.58371" lon="-4.04948">
        <ele>98.1</ele>
        <time>2020-06-10T10:19:37Z</time>
      </trkpt>
      <trkpt lat="48.58366" lon="-4.04947">
        <ele>98.2</ele>
        <time>2020-06-10T10:19:38Z</time>
      </trkpt>
      <trkpt lat="48.58362" lon="-4.04945">
        <ele>98.2</ele>
        <time>2020-06-10T10:19:39Z</time>
      </trkpt>
      <trkpt lat="48.58357" lon="-4.04943">
        <ele>98.3</ele>
        <time>2020-06-10T10:19:40Z</time>
      </trkpt>
      <trkpt lat="48.58351" lon="-4.04941">
        <ele>98.5</ele>
        <time>2020-06-10T10:19:41Z</time>
      </trkpt>
      <trkpt lat="48.58346" lon="-4.0494">
        <ele>98.5</ele>
        <time>2020-06-10T10:19:42Z</time>
      </trkpt>
      <trkpt lat="48.58342" lon="-4.04938">
        <ele>98.6</ele>
        <time>2020-06-10T10:19:43Z</time>
      </trkpt>
      <trkpt lat="48.58337" lon="-4.04937">
        <ele>98.7</ele>
        <time>2020-06-10T10:19:44Z</time>
      </trkpt>
      <trkpt lat="48.58332" lon="-4.04935">
        <ele>98.7</ele>
        <time>2020-06-10T10:19:45Z</time>
      </trkpt>
      <trkpt lat="48.58328" lon="-4.04934">
        <ele>98.8</ele>
        <time>2020-06-10T10:19:46Z</time>
      </trkpt>
      <trkpt lat="48.58322" lon="-4.04932">
        <ele>98.9</ele>
        <time>2020-06-10T10:19:47Z</time>
      </trkpt>
      <trkpt lat="48.58318" lon="-4.04931">
        <ele>98.9</ele>
        <time>2020-06-10T10:19:48Z</time>
      </trkpt>
      <trkpt lat="48.58313" lon="-4.04929">
        <ele>98.9</ele>
        <time>2020-06-10T10:19:49Z</time>
      </trkpt>
      <trkpt lat="48.58308" lon="-4.04928">
        <ele>99</ele>
        <time>2020-06-10T10:19:50Z</time>
      </trkpt>
      <trkpt lat="48.58303" lon="-4.04926">
        <ele>99</ele>
        <time>2020-06-10T10:19:51Z</time>
      </trkpt>
      <trkpt lat="48.58296" lon="-4.04924">
        <ele>99</ele>
        <time>2020-06-10T10:19:52Z</time>
      </trkpt>
      <trkpt lat="48.58291" lon="-4.04922">
        <ele>99.1</ele>
        <time>2020-06-10T10:19:53Z</time>
      </trkpt>
      <trkpt lat="48.58285" lon="-4.0492">
        <ele>99.2</ele>
        <time>2020-06-10T10:19:54Z</time>
      </trkpt>
      <trkpt lat="48.5828" lon="-4.04919">
        <ele>99.2</ele>
        <time>2020-06-10T10:19:55Z</time>
      </trkpt>
      <trkpt lat="48.58274" lon="-4.04918">
        <ele>99.3</ele>
        <time>2020-06-10T10:19:56Z</time>
      </trkpt>
      <trkpt lat="48.5827" lon="-4.04917">
        <ele>99.3</ele>
        <time>2020-06-10T10:19:57Z</time>
      </trkpt>
      <trkpt lat="48.58265" lon="-4.04916">
        <ele>99.4</ele>
        <time>2020-06-10T10:19:58Z</time>
      </trkpt>
      <trkpt lat="48.5826" lon="-4.04915">
        <ele>99.4</ele>
        <time>2020-06-10T10:19:59Z</time>
      </trkpt>
      <trkpt lat="48.58255" lon="-4.04913">
        <ele>99.5</ele>
        <time>2020-06-10T10:20:00Z</time>
      </trkpt>
      <trkpt lat="48.58251" lon="-4.04912">
        <ele>99.5</ele>
        <time>2020-06-10T10:20:01Z</time>
      </trkpt>
      <trkpt lat="48.58247" lon="-4.0491">
        <ele>99.6</ele>
        <time>2020-06-10T10:20:02Z</time>
      </trkpt>
      <trkpt lat="48.58243" lon="-4.04907">
        <ele>99.6</ele>
        <time>2020-06-10T10:20:03Z</time>
      </trkpt>
      <trkpt lat="48.58239" lon="-4.04904">
        <ele>99.7</ele>
        <time>2020-06-10T10:20:04Z</time>
      </trkpt>
      <trkpt lat="48.58236" lon="-4.04902">
        <ele>99.7</ele>
        <time>2020-06-10T10:20:05Z</time>
      </trkpt>
      <trkpt lat="48.58233" lon="-4.04899">
        <ele>99.7</ele>
        <time>2020-06-10T10:20:06Z</time>
      </trkpt>
      <trkpt lat="48.58232" lon="-4.04894">
        <ele>99.7</ele>
        <time>2020-06-10T10:20:07Z</time>
      </trkpt>
      <trkpt lat="48.58233" lon="-4.04892">
        <ele>99.7</ele>
        <time>2020-06-10T10:20:08Z</time>
      </trkpt>
      <trkpt lat="48.58235" lon="-4.04888">
        <ele>99.7</ele>
        <time>2020-06-10T10:20:09Z</time>
      </trkpt>
      <trkpt lat="48.58237" lon="-4.04883">
        <ele>99.7</ele>
        <time>2020-06-10T10:20:10Z</time>
      </trkpt>
      <trkpt lat="48.58239" lon="-4.04878">
        <ele>99.7</ele>
        <time>2020-06-10T10:20:11Z</time>
      </trkpt>
      <trkpt lat="48.5824" lon="-4.04872">
        <ele>99.7</ele>
        <time>2020-06-10T10:20:12Z</time>
      </trkpt>
      <trkpt lat="48.58242" lon="-4.04866">
        <ele>99.7</ele>
        <time>2020-06-10T10:20:13Z</time>
      </trkpt>
      <trkpt lat="48.58244" lon="-4.04858">
        <ele>99.7</ele>
        <time>2020-06-10T10:20:14Z</time>
      </trkpt>
      <trkpt lat="48.58245" lon="-4.04851">
        <ele>99.7</ele>
        <time>2020-06-10T10:20:15Z</time>
      </trkpt>
      <trkpt lat="48.58247" lon="-4.04843">
        <ele>99.7</ele>
        <time>2020-06-10T10:20:16Z</time>
      </trkpt>
      <trkpt lat="48.58248" lon="-4.04837">
        <ele>99.7</ele>
        <time>2020-06-10T10:20:17Z</time>
      </trkpt>
      <trkpt lat="48.58249" lon="-4.0483">
        <ele>99.7</ele>
        <time>2020-06-10T10:20:18Z</time>
      </trkpt>
      <trkpt lat="48.5825" lon="-4.04823">
        <ele>99.7</ele>
        <time>2020-06-10T10:20:19Z</time>
      </trkpt>
      <trkpt lat="48.58252" lon="-4.04815">
        <ele>99.7</ele>
        <time>2020-06-10T10:20:20Z</time>
      </trkpt>
      <trkpt lat="48.58253" lon="-4.04807">
        <ele>99.7</ele>
        <time>2020-06-10T10:20:21Z</time>
      </trkpt>
      <trkpt lat="48.58254" lon="-4.04799">
        <ele>99.7</ele>
        <time>2020-06-10T10:20:22Z</time>
      </trkpt>
      <trkpt lat="48.58255" lon="-4.04791">
        <ele>99.7</ele>
        <time>2020-06-10T10:20:23Z</time>
      </trkpt>
      <trkpt lat="48.58256" lon="-4.04783">
        <ele>99.7</ele>
        <time>2020-06-10T10:20:24Z</time>
      </trkpt>
      <trkpt lat="48.58258" lon="-4.04776">
        <ele>99.7</ele>
        <time>2020-06-10T10:20:25Z</time>
      </trkpt>
      <trkpt lat="48.58259" lon="-4.04768">
        <ele>99.7</ele>
        <time>2020-06-10T10:20:26Z</time>
      </trkpt>
      <trkpt lat="48.5826" lon="-4.0476">
        <ele>99.7</ele>
        <time>2020-06-10T10:20:27Z</time>
      </trkpt>
      <trkpt lat="48.58261" lon="-4.04753">
        <ele>99.7</ele>
        <time>2020-06-10T10:20:28Z</time>
      </trkpt>
      <trkpt lat="48.58263" lon="-4.04745">
        <ele>99.7</ele>
        <time>2020-06-10T10:20:29Z</time>
      </trkpt>
      <trkpt lat="48.58265" lon="-4.04737">
        <ele>99.7</ele>
        <time>2020-06-10T10:20:30Z</time>
      </trkpt>
      <trkpt lat="48.58266" lon="-4.04729">
        <ele>99.7</ele>
        <time>2020-06-10T10:20:31Z</time>
      </trkpt>
      <trkpt lat="48.58268" lon="-4.04722">
        <ele>99.7</ele>
        <time>2020-06-10T10:20:32Z</time>
      </trkpt>
      <trkpt lat="48.5827" lon="-4.04715">
        <ele>99.7</ele>
        <time>2020-06-10T10:20:33Z</time>
      </trkpt>
      <trkpt lat="48.58272" lon="-4.04708">
        <ele>99.7</ele>
        <time>2020-06-10T10:20:34Z</time>
      </trkpt>
      <trkpt lat="48.58274" lon="-4.04701">
        <ele>99.7</ele>
        <time>2020-06-10T10:20:35Z</time>
      </trkpt>
      <trkpt lat="48.58275" lon="-4.04694">
        <ele>99.7</ele>
        <time>2020-06-10T10:20:36Z</time>
      </trkpt>
      <trkpt lat="48.58277" lon="-4.04687">
        <ele>99.7</ele>
        <time>2020-06-10T10:20:37Z</time>
      </trkpt>
      <trkpt lat="48.58278" lon="-4.0468">
        <ele>99.7</ele>
        <time>2020-06-10T10:20:38Z</time>
      </trkpt>
      <trkpt lat="48.5828" lon="-4.04673">
        <ele>99.7</ele>
        <time>2020-06-10T10:20:39Z</time>
      </trkpt>
      <trkpt lat="48.58281" lon="-4.04666">
        <ele>99.7</ele>
        <time>2020-06-10T10:20:40Z</time>
      </trkpt>
      <trkpt lat="48.58281" lon="-4.04658">
        <ele>99.7</ele>
        <time>2020-06-10T10:20:41Z</time>
      </trkpt>
      <trkpt lat="48.58281" lon="-4.0465">
        <ele>99.7</ele>
        <time>2020-06-10T10:20:42Z</time>
      </trkpt>
      <trkpt lat="48.58281" lon="-4.04641">
        <ele>99.5</ele>
        <time>2020-06-10T10:20:43Z</time>
      </trkpt>
      <trkpt lat="48.58281" lon="-4.04633">
        <ele>99.3</ele>
        <time>2020-06-10T10:20:44Z</time>
      </trkpt>
      <trkpt lat="48.5828" lon="-4.04625">
        <ele>99.1</ele>
        <time>2020-06-10T10:20:45Z</time>
      </trkpt>
      <trkpt lat="48.58279" lon="-4.04617">
        <ele>98.9</ele>
        <time>2020-06-10T10:20:46Z</time>
      </trkpt>
      <trkpt lat="48.58277" lon="-4.0461">
        <ele>98.7</ele>
        <time>2020-06-10T10:20:47Z</time>
      </trkpt>
      <trkpt lat="48.58275" lon="-4.04602">
        <ele>98.5</ele>
        <time>2020-06-10T10:20:48Z</time>
      </trkpt>
      <trkpt lat="48.58273" lon="-4.04594">
        <ele>98.2</ele>
        <time>2020-06-10T10:20:49Z</time>
      </trkpt>
      <trkpt lat="48.5827" lon="-4.04586">
        <ele>98.2</ele>
        <time>2020-06-10T10:20:50Z</time>
      </trkpt>
      <trkpt lat="48.58267" lon="-4.04579">
        <ele>98.1</ele>
        <time>2020-06-10T10:20:51Z</time>
      </trkpt>
      <trkpt lat="48.58264" lon="-4.04572">
        <ele>98</ele>
        <time>2020-06-10T10:20:52Z</time>
      </trkpt>
      <trkpt lat="48.5826" lon="-4.04565">
        <ele>97.9</ele>
        <time>2020-06-10T10:20:53Z</time>
      </trkpt>
      <trkpt lat="48.58256" lon="-4.04559">
        <ele>97.9</ele>
        <time>2020-06-10T10:20:54Z</time>
      </trkpt>
      <trkpt lat="48.58251" lon="-4.04553">
        <ele>97.8</ele>
        <time>2020-06-10T10:20:55Z</time>
      </trkpt>
      <trkpt lat="48.58247" lon="-4.04547">
        <ele>97.8</ele>
        <time>2020-06-10T10:20:56Z</time>
      </trkpt>
      <trkpt lat="48.58242" lon="-4.04542">
        <ele>97.8</ele>
        <time>2020-06-10T10:20:57Z</time>
      </trkpt>
      <trkpt lat="48.58237" lon="-4.04537">
        <ele>97.7</ele>
        <time>2020-06-10T10:20:58Z</time>
      </trkpt>
      <trkpt lat="48.58232" lon="-4.04533">
        <ele>97.7</ele>
        <time>2020-06-10T10:20:59Z</time>
      </trkpt>
      <trkpt lat="48.58227" lon="-4.04529">
        <ele>97.7</ele>
        <time>2020-06-10T10:21:00Z</time>
      </trkpt>
      <trkpt lat="48.58221" lon="-4.04526">
        <ele>97.7</ele>
        <time>2020-06-10T10:21:01Z</time>
      </trkpt>
      <trkpt lat="48.58216" lon="-4.04523">
        <ele>97.6</ele>
        <time>2020-06-10T10:21:02Z</time>
      </trkpt>
      <trkpt lat="48.5821" lon="-4.04521">
        <ele>97.6</ele>
        <time>2020-06-10T10:21:03Z</time>
      </trkpt>
      <trkpt lat="48.58204" lon="-4.0452">
        <ele>97.6</ele>
        <time>2020-06-10T10:21:04Z</time>
      </trkpt>
      <trkpt lat="48.58199" lon="-4.04519">
        <ele>97.5</ele>
        <time>2020-06-10T10:21:05Z</time>
      </trkpt>
      <trkpt lat="48.58193" lon="-4.04518">
        <ele>97.5</ele>
        <time>2020-06-10T10:21:06Z</time>
      </trkpt>
      <trkpt lat="48.58188" lon="-4.04519">
        <ele>97.5</ele>
        <time>2020-06-10T10:21:07Z</time>
      </trkpt>
      <trkpt lat="48.58183" lon="-4.04518">
        <ele>97.5</ele>
        <time>2020-06-10T10:21:08Z</time>
      </trkpt>
      <trkpt lat="48.58178" lon="-4.04519">
        <ele>97.5</ele>
        <time>2020-06-10T10:21:09Z</time>
      </trkpt>
      <trkpt lat="48.58174" lon="-4.04519">
        <ele>97.4</ele>
        <time>2020-06-10T10:21:10Z</time>
      </trkpt>
      <trkpt lat="48.5817" lon="-4.04519">
        <ele>97.4</ele>
        <time>2020-06-10T10:21:11Z</time>
      </trkpt>
      <trkpt lat="48.58166" lon="-4.04519">
        <ele>97.3</ele>
        <time>2020-06-10T10:21:12Z</time>
      </trkpt>
      <trkpt lat="48.58164" lon="-4.04519">
        <ele>97.3</ele>
        <time>2020-06-10T10:21:13Z</time>
      </trkpt>
      <trkpt lat="48.58163" lon="-4.04517">
        <ele>97.3</ele>
        <time>2020-06-10T10:21:14Z</time>
      </trkpt>
      <trkpt lat="48.58162" lon="-4.04512">
        <ele>97.2</ele>
        <time>2020-06-10T10:21:15Z</time>
      </trkpt>
      <trkpt lat="48.58162" lon="-4.0451">
        <ele>97.2</ele>
        <time>2020-06-10T10:21:16Z</time>
      </trkpt>
      <trkpt lat="48.58161" lon="-4.04506">
        <ele>97.2</ele>
        <time>2020-06-10T10:21:17Z</time>
      </trkpt>
      <trkpt lat="48.5816" lon="-4.04501">
        <ele>97.1</ele>
        <time>2020-06-10T10:21:18Z</time>
      </trkpt>
      <trkpt lat="48.5816" lon="-4.04495">
        <ele>97</ele>
        <time>2020-06-10T10:21:19Z</time>
      </trkpt>
      <trkpt lat="48.5816" lon="-4.04488">
        <ele>96.9</ele>
        <time>2020-06-10T10:21:20Z</time>
      </trkpt>
      <trkpt lat="48.58161" lon="-4.04481">
        <ele>96.8</ele>
        <time>2020-06-10T10:21:21Z</time>
      </trkpt>
      <trkpt lat="48.58162" lon="-4.04473">
        <ele>96.7</ele>
        <time>2020-06-10T10:21:22Z</time>
      </trkpt>
      <trkpt lat="48.58163" lon="-4.04465">
        <ele>96.6</ele>
        <time>2020-06-10T10:21:23Z</time>
      </trkpt>
      <trkpt lat="48.58163" lon="-4.04457">
        <ele>96.5</ele>
        <time>2020-06-10T10:21:24Z</time>
      </trkpt>
      <trkpt lat="48.58164" lon="-4.04448">
        <ele>96.3</ele>
        <time>2020-06-10T10:21:25Z</time>
      </trkpt>
      <trkpt lat="48.58164" lon="-4.0444">
        <ele>96.2</ele>
        <time>2020-06-10T10:21:26Z</time>
      </trkpt>
      <trkpt lat="48.58164" lon="-4.0443">
        <ele>96</ele>
        <time>2020-06-10T10:21:27Z</time>
      </trkpt>
      <trkpt lat="48.58163" lon="-4.04422">
        <ele>95.9</ele>
        <time>2020-06-10T10:21:28Z</time>
      </trkpt>
      <trkpt lat="48.58163" lon="-4.04413">
        <ele>95.7</ele>
        <time>2020-06-10T10:21:29Z</time>
      </trkpt>
      <trkpt lat="48.58162" lon="-4.04403">
        <ele>95.5</ele>
        <time>2020-06-10T10:21:30Z</time>
      </trkpt>
      <trkpt lat="48.58161" lon="-4.04394">
        <ele>95.4</ele>
        <time>2020-06-10T10:21:31Z</time>
      </trkpt>
      <trkpt lat="48.5816" lon="-4.04385">
        <ele>95.1</ele>
        <time>2020-06-10T10:21:32Z</time>
      </trkpt>
      <trkpt lat="48.58158" lon="-4.04375">
        <ele>94.9</ele>
        <time>2020-06-10T10:21:33Z</time>
      </trkpt>
      <trkpt lat="48.58157" lon="-4.04365">
        <ele>94.7</ele>
        <time>2020-06-10T10:21:34Z</time>
      </trkpt>
      <trkpt lat="48.58156" lon="-4.04355">
        <ele>94.4</ele>
        <time>2020-06-10T10:21:35Z</time>
      </trkpt>
      <trkpt lat="48.58155" lon="-4.04344">
        <ele>94.2</ele>
        <time>2020-06-10T10:21:36Z</time>
      </trkpt>
      <trkpt lat="48.58153" lon="-4.04334">
        <ele>94</ele>
        <time>2020-06-10T10:21:37Z</time>
      </trkpt>
      <trkpt lat="48.58151" lon="-4.04324">
        <ele>93.7</ele>
        <time>2020-06-10T10:21:38Z</time>
      </trkpt>
      <trkpt lat="48.58149" lon="-4.04313">
        <ele>93.5</ele>
        <time>2020-06-10T10:21:39Z</time>
      </trkpt>
      <trkpt lat="48.58147" lon="-4.04303">
        <ele>93.3</ele>
        <time>2020-06-10T10:21:40Z</time>
      </trkpt>
      <trkpt lat="48.58143" lon="-4.04293">
        <ele>93</ele>
        <time>2020-06-10T10:21:41Z</time>
      </trkpt>
      <trkpt lat="48.5814" lon="-4.04283">
        <ele>92.7</ele>
        <time>2020-06-10T10:21:42Z</time>
      </trkpt>
      <trkpt lat="48.58137" lon="-4.04273">
        <ele>92.5</ele>
        <time>2020-06-10T10:21:43Z</time>
      </trkpt>
      <trkpt lat="48.58134" lon="-4.04262">
        <ele>92.2</ele>
        <time>2020-06-10T10:21:44Z</time>
      </trkpt>
      <trkpt lat="48.5813" lon="-4.04252">
        <ele>91.9</ele>
        <time>2020-06-10T10:21:45Z</time>
      </trkpt>
      <trkpt lat="48.58127" lon="-4.04241">
        <ele>91.6</ele>
        <time>2020-06-10T10:21:46Z</time>
      </trkpt>
      <trkpt lat="48.58123" lon="-4.04231">
        <ele>91.2</ele>
        <time>2020-06-10T10:21:47Z</time>
      </trkpt>
      <trkpt lat="48.5812" lon="-4.0422">
        <ele>90.9</ele>
        <time>2020-06-10T10:21:48Z</time>
      </trkpt>
      <trkpt lat="48.58117" lon="-4.04209">
        <ele>90.6</ele>
        <time>2020-06-10T10:21:49Z</time>
      </trkpt>
      <trkpt lat="48.58114" lon="-4.04198">
        <ele>90.3</ele>
        <time>2020-06-10T10:21:50Z</time>
      </trkpt>
      <trkpt lat="48.58111" lon="-4.04188">
        <ele>90.1</ele>
        <time>2020-06-10T10:21:51Z</time>
      </trkpt>
      <trkpt lat="48.58109" lon="-4.04179">
        <ele>89.9</ele>
        <time>2020-06-10T10:21:52Z</time>
      </trkpt>
      <trkpt lat="48.58106" lon="-4.04171">
        <ele>89.8</ele>
        <time>2020-06-10T10:21:53Z</time>
      </trkpt>
      <trkpt lat="48.58104" lon="-4.04163">
        <ele>89.7</ele>
        <time>2020-06-10T10:21:54Z</time>
      </trkpt>
      <trkpt lat="48.58101" lon="-4.04156">
        <ele>89.5</ele>
        <time>2020-06-10T10:21:55Z</time>
      </trkpt>
      <trkpt lat="48.58098" lon="-4.0415">
        <ele>89.5</ele>
        <time>2020-06-10T10:21:56Z</time>
      </trkpt>
      <trkpt lat="48.58095" lon="-4.04145">
        <ele>89.5</ele>
        <time>2020-06-10T10:21:57Z</time>
      </trkpt>
      <trkpt lat="48.58091" lon="-4.04144">
        <ele>89.5</ele>
        <time>2020-06-10T10:21:58Z</time>
      </trkpt>
      <trkpt lat="48.58086" lon="-4.04144">
        <ele>89.4</ele>
        <time>2020-06-10T10:21:59Z</time>
      </trkpt>
      <trkpt lat="48.58082" lon="-4.0414">
        <ele>89.4</ele>
        <time>2020-06-10T10:22:00Z</time>
      </trkpt>
      <trkpt lat="48.58078" lon="-4.04135">
        <ele>89.3</ele>
        <time>2020-06-10T10:22:01Z</time>
      </trkpt>
      <trkpt lat="48.58074" lon="-4.0413">
        <ele>89.3</ele>
        <time>2020-06-10T10:22:02Z</time>
      </trkpt>
      <trkpt lat="48.58069" lon="-4.04125">
        <ele>89.2</ele>
        <time>2020-06-10T10:22:03Z</time>
      </trkpt>
      <trkpt lat="48.58064" lon="-4.0412">
        <ele>89.2</ele>
        <time>2020-06-10T10:22:04Z</time>
      </trkpt>
      <trkpt lat="48.58059" lon="-4.04116">
        <ele>89.1</ele>
        <time>2020-06-10T10:22:05Z</time>
      </trkpt>
      <trkpt lat="48.58054" lon="-4.0411">
        <ele>89.1</ele>
        <time>2020-06-10T10:22:06Z</time>
      </trkpt>
      <trkpt lat="48.58049" lon="-4.04105">
        <ele>89</ele>
        <time>2020-06-10T10:22:07Z</time>
      </trkpt>
      <trkpt lat="48.58045" lon="-4.04099">
        <ele>89</ele>
        <time>2020-06-10T10:22:08Z</time>
      </trkpt>
      <trkpt lat="48.5804" lon="-4.04093">
        <ele>89</ele>
        <time>2020-06-10T10:22:09Z</time>
      </trkpt>
      <trkpt lat="48.58035" lon="-4.04088">
        <ele>89</ele>
        <time>2020-06-10T10:22:10Z</time>
      </trkpt>
      <trkpt lat="48.58031" lon="-4.04082">
        <ele>89</ele>
        <time>2020-06-10T10:22:11Z</time>
      </trkpt>
      <trkpt lat="48.58026" lon="-4.04077">
        <ele>89</ele>
        <time>2020-06-10T10:22:12Z</time>
      </trkpt>
      <trkpt lat="48.58022" lon="-4.04071">
        <ele>89</ele>
        <time>2020-06-10T10:22:13Z</time>
      </trkpt>
      <trkpt lat="48.58018" lon="-4.04064">
        <ele>89</ele>
        <time>2020-06-10T10:22:14Z</time>
      </trkpt>
      <trkpt lat="48.58014" lon="-4.04058">
        <ele>89.1</ele>
        <time>2020-06-10T10:22:15Z</time>
      </trkpt>
      <trkpt lat="48.58011" lon="-4.04051">
        <ele>89.1</ele>
        <time>2020-06-10T10:22:16Z</time>
      </trkpt>
      <trkpt lat="48.58008" lon="-4.04045">
        <ele>89.2</ele>
        <time>2020-06-10T10:22:17Z</time>
      </trkpt>
      <trkpt lat="48.58004" lon="-4.04039">
        <ele>89.2</ele>
        <time>2020-06-10T10:22:18Z</time>
      </trkpt>
      <trkpt lat="48.58" lon="-4.04033">
        <ele>89.2</ele>
        <time>2020-06-10T10:22:19Z</time>
      </trkpt>
      <trkpt lat="48.57996" lon="-4.04027">
        <ele>89.1</ele>
        <time>2020-06-10T10:22:20Z</time>
      </trkpt>
      <trkpt lat="48.57992" lon="-4.04022">
        <ele>89.1</ele>
        <time>2020-06-10T10:22:21Z</time>
      </trkpt>
      <trkpt lat="48.57988" lon="-4.04016">
        <ele>89.1</ele>
        <time>2020-06-10T10:22:22Z</time>
      </trkpt>
      <trkpt lat="48.57985" lon="-4.0401">
        <ele>89.4</ele>
        <time>2020-06-10T10:22:23Z</time>
      </trkpt>
      <trkpt lat="48.5798" lon="-4.04005">
        <ele>89.5</ele>
        <time>2020-06-10T10:22:24Z</time>
      </trkpt>
      <trkpt lat="48.57977" lon="-4.04">
        <ele>89.5</ele>
        <time>2020-06-10T10:22:25Z</time>
      </trkpt>
      <trkpt lat="48.57973" lon="-4.03994">
        <ele>89.4</ele>
        <time>2020-06-10T10:22:26Z</time>
      </trkpt>
      <trkpt lat="48.57969" lon="-4.03989">
        <ele>89.4</ele>
        <time>2020-06-10T10:22:27Z</time>
      </trkpt>
      <trkpt lat="48.57965" lon="-4.03984">
        <ele>89.3</ele>
        <time>2020-06-10T10:22:28Z</time>
      </trkpt>
      <trkpt lat="48.57961" lon="-4.03978">
        <ele>89.2</ele>
        <time>2020-06-10T10:22:29Z</time>
      </trkpt>
      <trkpt lat="48.57958" lon="-4.03973">
        <ele>89.1</ele>
        <time>2020-06-10T10:22:30Z</time>
      </trkpt>
      <trkpt lat="48.57954" lon="-4.03967">
        <ele>89</ele>
        <time>2020-06-10T10:22:31Z</time>
      </trkpt>
      <trkpt lat="48.57951" lon="-4.03962">
        <ele>89</ele>
        <time>2020-06-10T10:22:32Z</time>
      </trkpt>
      <trkpt lat="48.57947" lon="-4.03957">
        <ele>88.9</ele>
        <time>2020-06-10T10:22:33Z</time>
      </trkpt>
      <trkpt lat="48.57943" lon="-4.03952">
        <ele>88.9</ele>
        <time>2020-06-10T10:22:34Z</time>
      </trkpt>
      <trkpt lat="48.5794" lon="-4.03947">
        <ele>88.9</ele>
        <time>2020-06-10T10:22:35Z</time>
      </trkpt>
      <trkpt lat="48.57936" lon="-4.03943">
        <ele>88.8</ele>
        <time>2020-06-10T10:22:36Z</time>
      </trkpt>
      <trkpt lat="48.57933" lon="-4.03937">
        <ele>88.8</ele>
        <time>2020-06-10T10:22:37Z</time>
      </trkpt>
      <trkpt lat="48.5793" lon="-4.03931">
        <ele>88.8</ele>
        <time>2020-06-10T10:22:38Z</time>
      </trkpt>
      <trkpt lat="48.57927" lon="-4.03925">
        <ele>88.7</ele>
        <time>2020-06-10T10:22:39Z</time>
      </trkpt>
      <trkpt lat="48.57923" lon="-4.0392">
        <ele>88.7</ele>
        <time>2020-06-10T10:22:40Z</time>
      </trkpt>
      <trkpt lat="48.57919" lon="-4.03917">
        <ele>88.7</ele>
        <time>2020-06-10T10:22:41Z</time>
      </trkpt>
      <trkpt lat="48.57916" lon="-4.03912">
        <ele>88.7</ele>
        <time>2020-06-10T10:22:42Z</time>
      </trkpt>
      <trkpt lat="48.57912" lon="-4.03907">
        <ele>88.7</ele>
        <time>2020-06-10T10:22:43Z</time>
      </trkpt>
      <trkpt lat="48.57909" lon="-4.03904">
        <ele>88.7</ele>
        <time>2020-06-10T10:22:44Z</time>
      </trkpt>
      <trkpt lat="48.57905" lon="-4.03901">
        <ele>88.7</ele>
        <time>2020-06-10T10:22:45Z</time>
      </trkpt>
      <trkpt lat="48.57901" lon="-4.039">
        <ele>88.7</ele>
        <time>2020-06-10T10:22:46Z</time>
      </trkpt>
      <trkpt lat="48.57898" lon="-4.03898">
        <ele>88.8</ele>
        <time>2020-06-10T10:22:47Z</time>
      </trkpt>
      <trkpt lat="48.57895" lon="-4.03898">
        <ele>88.8</ele>
        <time>2020-06-10T10:22:48Z</time>
      </trkpt>
      <trkpt lat="48.57894" lon="-4.03898">
        <ele>88.8</ele>
        <time>2020-06-10T10:22:49Z</time>
      </trkpt>
      <trkpt lat="48.57893" lon="-4.03897">
        <ele>88.8</ele>
        <time>2020-06-10T10:22:50Z</time>
      </trkpt>
      <trkpt lat="48.57894" lon="-4.03897">
        <ele>88.8</ele>
        <time>2020-06-10T10:22:51Z</time>
      </trkpt>
      <trkpt lat="48.57894" lon="-4.03897">
        <ele>88.8</ele>
        <time>2020-06-10T10:22:52Z</time>
      </trkpt>
      <trkpt lat="48.57894" lon="-4.03897">
        <ele>88.8</ele>
        <time>2020-06-10T10:22:53Z</time>
      </trkpt>
      <trkpt lat="48.57894" lon="-4.03898">
        <ele>88.8</ele>
        <time>2020-06-10T10:22:54Z</time>
      </trkpt>
      <trkpt lat="48.57893" lon="-4.03897">
        <ele>88.8</ele>
        <time>2020-06-10T10:22:55Z</time>
      </trkpt>
      <trkpt lat="48.57893" lon="-4.03896">
        <ele>88.8</ele>
        <time>2020-06-10T10:22:56Z</time>
      </trkpt>
      <trkpt lat="48.57892" lon="-4.03894">
        <ele>88.8</ele>
        <time>2020-06-10T10:22:57Z</time>
      </trkpt>
      <trkpt lat="48.57892" lon="-4.03889">
        <ele>88.8</ele>
        <time>2020-06-10T10:22:58Z</time>
      </trkpt>
      <trkpt lat="48.57892" lon="-4.03888">
        <ele>88.8</ele>
        <time>2020-06-10T10:22:59Z</time>
      </trkpt>
      <trkpt lat="48.57892" lon="-4.03883">
        <ele>88.8</ele>
        <time>2020-06-10T10:23:00Z</time>
      </trkpt>
      <trkpt lat="48.57892" lon="-4.03878">
        <ele>88.7</ele>
        <time>2020-06-10T10:23:01Z</time>
      </trkpt>
      <trkpt lat="48.57892" lon="-4.03873">
        <ele>88.7</ele>
        <time>2020-06-10T10:23:02Z</time>
      </trkpt>
      <trkpt lat="48.57892" lon="-4.03867">
        <ele>88.7</ele>
        <time>2020-06-10T10:23:03Z</time>
      </trkpt>
      <trkpt lat="48.57892" lon="-4.03861">
        <ele>88.7</ele>
        <time>2020-06-10T10:23:04Z</time>
      </trkpt>
      <trkpt lat="48.57892" lon="-4.03855">
        <ele>88.7</ele>
        <time>2020-06-10T10:23:05Z</time>
      </trkpt>
      <trkpt lat="48.57892" lon="-4.03849">
        <ele>88.7</ele>
        <time>2020-06-10T10:23:06Z</time>
      </trkpt>
      <trkpt lat="48.57892" lon="-4.03843">
        <ele>88.6</ele>
        <time>2020-06-10T10:23:07Z</time>
      </trkpt>
      <trkpt lat="48.57891" lon="-4.03836">
        <ele>88.6</ele>
        <time>2020-06-10T10:23:08Z</time>
      </trkpt>
      <trkpt lat="48.5789" lon="-4.0383">
        <ele>88.6</ele>
        <time>2020-06-10T10:23:09Z</time>
      </trkpt>
      <trkpt lat="48.5789" lon="-4.03823">
        <ele>88.6</ele>
        <time>2020-06-10T10:23:10Z</time>
      </trkpt>
      <trkpt lat="48.57889" lon="-4.03817">
        <ele>88.6</ele>
        <time>2020-06-10T10:23:11Z</time>
      </trkpt>
      <trkpt lat="48.57888" lon="-4.0381">
        <ele>88.6</ele>
        <time>2020-06-10T10:23:12Z</time>
      </trkpt>
      <trkpt lat="48.57887" lon="-4.03803">
        <ele>88.5</ele>
        <time>2020-06-10T10:23:13Z</time>
      </trkpt>
      <trkpt lat="48.57886" lon="-4.03797">
        <ele>88.5</ele>
        <time>2020-06-10T10:23:14Z</time>
      </trkpt>
      <trkpt lat="48.57886" lon="-4.0379">
        <ele>88.5</ele>
        <time>2020-06-10T10:23:15Z</time>
      </trkpt>
      <trkpt lat="48.57885" lon="-4.03784">
        <ele>88.4</ele>
        <time>2020-06-10T10:23:16Z</time>
      </trkpt>
      <trkpt lat="48.57884" lon="-4.03778">
        <ele>88.4</ele>
        <time>2020-06-10T10:23:17Z</time>
      </trkpt>
      <trkpt lat="48.57883" lon="-4.03772">
        <ele>88.3</ele>
        <time>2020-06-10T10:23:18Z</time>
      </trkpt>
      <trkpt lat="48.57883" lon="-4.03766">
        <ele>88.3</ele>
        <time>2020-06-10T10:23:19Z</time>
      </trkpt>
      <trkpt lat="48.57882" lon="-4.0376">
        <ele>88.2</ele>
        <time>2020-06-10T10:23:20Z</time>
      </trkpt>
      <trkpt lat="48.57881" lon="-4.03753">
        <ele>88.2</ele>
        <time>2020-06-10T10:23:21Z</time>
      </trkpt>
      <trkpt lat="48.5788" lon="-4.03747">
        <ele>88.2</ele>
        <time>2020-06-10T10:23:22Z</time>
      </trkpt>
      <trkpt lat="48.57879" lon="-4.03741">
        <ele>88.2</ele>
        <time>2020-06-10T10:23:23Z</time>
      </trkpt>
      <trkpt lat="48.57879" lon="-4.03734">
        <ele>88.1</ele>
        <time>2020-06-10T10:23:24Z</time>
      </trkpt>
      <trkpt lat="48.57878" lon="-4.03728">
        <ele>88</ele>
        <time>2020-06-10T10:23:25Z</time>
      </trkpt>
      <trkpt lat="48.57878" lon="-4.03721">
        <ele>87.9</ele>
        <time>2020-06-10T10:23:26Z</time>
      </trkpt>
      <trkpt lat="48.57877" lon="-4.03714">
        <ele>87.8</ele>
        <time>2020-06-10T10:23:27Z</time>
      </trkpt>
      <trkpt lat="48.57876" lon="-4.03707">
        <ele>87.7</ele>
        <time>2020-06-10T10:23:28Z</time>
      </trkpt>
      <trkpt lat="48.57875" lon="-4.037">
        <ele>87.6</ele>
        <time>2020-06-10T10:23:29Z</time>
      </trkpt>
      <trkpt lat="48.57874" lon="-4.03693">
        <ele>87.6</ele>
        <time>2020-06-10T10:23:30Z</time>
      </trkpt>
      <trkpt lat="48.57874" lon="-4.03687">
        <ele>87.5</ele>
        <time>2020-06-10T10:23:31Z</time>
      </trkpt>
      <trkpt lat="48.57874" lon="-4.03682">
        <ele>87.4</ele>
        <time>2020-06-10T10:23:32Z</time>
      </trkpt>
      <trkpt lat="48.57873" lon="-4.03677">
        <ele>87.4</ele>
        <time>2020-06-10T10:23:33Z</time>
      </trkpt>
      <trkpt lat="48.57872" lon="-4.03673">
        <ele>87.4</ele>
        <time>2020-06-10T10:23:34Z</time>
      </trkpt>
      <trkpt lat="48.57872" lon="-4.0367">
        <ele>87.3</ele>
        <time>2020-06-10T10:23:35Z</time>
      </trkpt>
      <trkpt lat="48.57872" lon="-4.03668">
        <ele>87.3</ele>
        <time>2020-06-10T10:23:36Z</time>
      </trkpt>
      <trkpt lat="48.57871" lon="-4.03667">
        <ele>87.3</ele>
        <time>2020-06-10T10:23:37Z</time>
      </trkpt>
      <trkpt lat="48.57872" lon="-4.03666">
        <ele>87.3</ele>
        <time>2020-06-10T10:23:38Z</time>
      </trkpt>
      <trkpt lat="48.57873" lon="-4.03665">
        <ele>87.3</ele>
        <time>2020-06-10T10:23:39Z</time>
      </trkpt>
      <trkpt lat="48.57873" lon="-4.03665">
        <ele>87.3</ele>
        <time>2020-06-10T10:23:40Z</time>
      </trkpt>
      <trkpt lat="48.57872" lon="-4.03665">
        <ele>87.3</ele>
        <time>2020-06-10T10:23:41Z</time>
      </trkpt>
      <trkpt lat="48.57872" lon="-4.03665">
        <ele>87.3</ele>
        <time>2020-06-10T10:23:42Z</time>
      </trkpt>
      <trkpt lat="48.57872" lon="-4.03665">
        <ele>87.3</ele>
        <time>2020-06-10T10:23:43Z</time>
      </trkpt>
      <trkpt lat="48.57872" lon="-4.03665">
        <ele>87.3</ele>
        <time>2020-06-10T10:23:44Z</time>
      </trkpt>
      <trkpt lat="48.57872" lon="-4.03664">
        <ele>87.2</ele>
        <time>2020-06-10T10:23:45Z</time>
      </trkpt>
      <trkpt lat="48.57872" lon="-4.03664">
        <ele>87.2</ele>
        <time>2020-06-10T10:23:46Z</time>
      </trkpt>
      <trkpt lat="48.57873" lon="-4.03664">
        <ele>87.2</ele>
        <time>2020-06-10T10:23:47Z</time>
      </trkpt>
      <trkpt lat="48.57872" lon="-4.03664">
        <ele>87.2</ele>
        <time>2020-06-10T10:23:48Z</time>
      </trkpt>
      <trkpt lat="48.57871" lon="-4.03665">
        <ele>87.2</ele>
        <time>2020-06-10T10:23:49Z</time>
      </trkpt>
      <trkpt lat="48.57871" lon="-4.03666">
        <ele>87.2</ele>
        <time>2020-06-10T10:23:50Z</time>
      </trkpt>
      <trkpt lat="48.57872" lon="-4.03665">
        <ele>87.2</ele>
        <time>2020-06-10T10:23:51Z</time>
      </trkpt>
      <trkpt lat="48.57872" lon="-4.03664">
        <ele>87.2</ele>
        <time>2020-06-10T10:23:52Z</time>
      </trkpt>
      <trkpt lat="48.57872" lon="-4.03665">
        <ele>87.2</ele>
        <time>2020-06-10T10:23:53Z</time>
      </trkpt>
      <trkpt lat="48.57871" lon="-4.03665">
        <ele>87.2</ele>
        <time>2020-06-10T10:23:54Z</time>
      </trkpt>
      <trkpt lat="48.57871" lon="-4.03665">
        <ele>87.2</ele>
        <time>2020-06-10T10:23:55Z</time>
      </trkpt>
      <trkpt lat="48.57871" lon="-4.03664">
        <ele>87.2</ele>
        <time>2020-06-10T10:23:56Z</time>
      </trkpt>
      <trkpt lat="48.57871" lon="-4.03663">
        <ele>87.1</ele>
        <time>2020-06-10T10:23:57Z</time>
      </trkpt>
      <trkpt lat="48.57872" lon="-4.03662">
        <ele>87.1</ele>
        <time>2020-06-10T10:23:58Z</time>
      </trkpt>
      <trkpt lat="48.57872" lon="-4.03661">
        <ele>87.1</ele>
        <time>2020-06-10T10:23:59Z</time>
      </trkpt>
      <trkpt lat="48.57873" lon="-4.0366">
        <ele>87.1</ele>
        <time>2020-06-10T10:24:00Z</time>
      </trkpt>
      <trkpt lat="48.57873" lon="-4.0366">
        <ele>87.1</ele>
        <time>2020-06-10T10:24:01Z</time>
      </trkpt>
      <trkpt lat="48.57874" lon="-4.0366">
        <ele>87.1</ele>
        <time>2020-06-10T10:24:02Z</time>
      </trkpt>
      <trkpt lat="48.57874" lon="-4.0366">
        <ele>87.1</ele>
        <time>2020-06-10T10:24:03Z</time>
      </trkpt>
      <trkpt lat="48.57874" lon="-4.03659">
        <ele>87</ele>
        <time>2020-06-10T10:24:04Z</time>
      </trkpt>
      <trkpt lat="48.57875" lon="-4.03659">
        <ele>87</ele>
        <time>2020-06-10T10:24:05Z</time>
      </trkpt>
      <trkpt lat="48.57875" lon="-4.03658">
        <ele>87</ele>
        <time>2020-06-10T10:24:06Z</time>
      </trkpt>
      <trkpt lat="48.57876" lon="-4.03658">
        <ele>87</ele>
        <time>2020-06-10T10:24:07Z</time>
      </trkpt>
      <trkpt lat="48.57873" lon="-4.03655">
        <ele>87</ele>
        <time>2020-06-10T10:24:08Z</time>
      </trkpt>
      <trkpt lat="48.57872" lon="-4.03653">
        <ele>87</ele>
        <time>2020-06-10T10:24:09Z</time>
      </trkpt>
      <trkpt lat="48.57871" lon="-4.0365">
        <ele>87</ele>
        <time>2020-06-10T10:24:10Z</time>
      </trkpt>
      <trkpt lat="48.57869" lon="-4.03647">
        <ele>87</ele>
        <time>2020-06-10T10:24:11Z</time>
      </trkpt>
      <trkpt lat="48.57868" lon="-4.03644">
        <ele>87</ele>
        <time>2020-06-10T10:24:12Z</time>
      </trkpt>
      <trkpt lat="48.57866" lon="-4.03641">
        <ele>87</ele>
        <time>2020-06-10T10:24:13Z</time>
      </trkpt>
      <trkpt lat="48.57865" lon="-4.03638">
        <ele>87</ele>
        <time>2020-06-10T10:37:32Z</time>
      </trkpt>
      <trkpt lat="48.57864" lon="-4.03635">
        <ele>86.9</ele>
        <time>2020-06-10T10:37:33Z</time>
      </trkpt>
      <trkpt lat="48.57865" lon="-4.0363">
        <ele>86.9</ele>
        <time>2020-06-10T10:37:34Z</time>
      </trkpt>
      <trkpt lat="48.57865" lon="-4.03626">
        <ele>86.9</ele>
        <time>2020-06-10T10:37:35Z</time>
      </trkpt>
      <trkpt lat="48.57865" lon="-4.03621">
        <ele>86.8</ele>
        <time>2020-06-10T10:37:36Z</time>
      </trkpt>
      <trkpt lat="48.57864" lon="-4.03617">
        <ele>86.8</ele>
        <time>2020-06-10T10:37:37Z</time>
      </trkpt>
      <trkpt lat="48.57864" lon="-4.03612">
        <ele>86.7</ele>
        <time>2020-06-10T10:37:38Z</time>
      </trkpt>
      <trkpt lat="48.57863" lon="-4.03607">
        <ele>86.7</ele>
        <time>2020-06-10T10:37:39Z</time>
      </trkpt>
      <trkpt lat="48.57864" lon="-4.03602">
        <ele>86.6</ele>
        <time>2020-06-10T10:37:40Z</time>
      </trkpt>
      <trkpt lat="48.57865" lon="-4.03597">
        <ele>86.5</ele>
        <time>2020-06-10T10:37:41Z</time>
      </trkpt>
      <trkpt lat="48.57865" lon="-4.03592">
        <ele>86.5</ele>
        <time>2020-06-10T10:37:42Z</time>
      </trkpt>
      <trkpt lat="48.57865" lon="-4.03588">
        <ele>86.4</ele>
        <time>2020-06-10T10:37:43Z</time>
      </trkpt>
      <trkpt lat="48.57865" lon="-4.03583">
        <ele>86.3</ele>
        <time>2020-06-10T10:37:44Z</time>
      </trkpt>
      <trkpt lat="48.57865" lon="-4.03578">
        <ele>86.3</ele>
        <time>2020-06-10T10:37:45Z</time>
      </trkpt>
      <trkpt lat="48.57866" lon="-4.03573">
        <ele>86.2</ele>
        <time>2020-06-10T10:37:46Z</time>
      </trkpt>
      <trkpt lat="48.57866" lon="-4.03568">
        <ele>86.1</ele>
        <time>2020-06-10T10:37:47Z</time>
      </trkpt>
      <trkpt lat="48.57867" lon="-4.03563">
        <ele>86.1</ele>
        <time>2020-06-10T10:37:48Z</time>
      </trkpt>
      <trkpt lat="48.57868" lon="-4.03557">
        <ele>86</ele>
        <time>2020-06-10T10:37:49Z</time>
      </trkpt>
      <trkpt lat="48.57868" lon="-4.03551">
        <ele>85.9</ele>
        <time>2020-06-10T10:37:50Z</time>
      </trkpt>
      <trkpt lat="48.57868" lon="-4.03545">
        <ele>85.9</ele>
        <time>2020-06-10T10:37:51Z</time>
      </trkpt>
      <trkpt lat="48.57869" lon="-4.03538">
        <ele>85.8</ele>
        <time>2020-06-10T10:37:52Z</time>
      </trkpt>
      <trkpt lat="48.57869" lon="-4.03532">
        <ele>85.7</ele>
        <time>2020-06-10T10:37:53Z</time>
      </trkpt>
      <trkpt lat="48.57869" lon="-4.03525">
        <ele>85.7</ele>
        <time>2020-06-10T10:37:54Z</time>
      </trkpt>
      <trkpt lat="48.57869" lon="-4.03518">
        <ele>85.6</ele>
        <time>2020-06-10T10:37:55Z</time>
      </trkpt>
      <trkpt lat="48.57869" lon="-4.03511">
        <ele>85.5</ele>
        <time>2020-06-10T10:37:56Z</time>
      </trkpt>
      <trkpt lat="48.57868" lon="-4.03503">
        <ele>85.4</ele>
        <time>2020-06-10T10:37:57Z</time>
      </trkpt>
      <trkpt lat="48.57868" lon="-4.03496">
        <ele>85.3</ele>
        <time>2020-06-10T10:37:58Z</time>
      </trkpt>
      <trkpt lat="48.57868" lon="-4.03489">
        <ele>85.2</ele>
        <time>2020-06-10T10:37:59Z</time>
      </trkpt>
      <trkpt lat="48.57868" lon="-4.03481">
        <ele>85.1</ele>
        <time>2020-06-10T10:38:00Z</time>
      </trkpt>
      <trkpt lat="48.57868" lon="-4.03474">
        <ele>84.9</ele>
        <time>2020-06-10T10:38:01Z</time>
      </trkpt>
      <trkpt lat="48.57868" lon="-4.03465">
        <ele>84.8</ele>
        <time>2020-06-10T10:38:02Z</time>
      </trkpt>
      <trkpt lat="48.57869" lon="-4.03459">
        <ele>84.7</ele>
        <time>2020-06-10T10:38:03Z</time>
      </trkpt>
      <trkpt lat="48.57869" lon="-4.0345">
        <ele>84.6</ele>
        <time>2020-06-10T10:38:04Z</time>
      </trkpt>
      <trkpt lat="48.5787" lon="-4.03441">
        <ele>84.5</ele>
        <time>2020-06-10T10:38:05Z</time>
      </trkpt>
      <trkpt lat="48.5787" lon="-4.03432">
        <ele>84.4</ele>
        <time>2020-06-10T10:38:06Z</time>
      </trkpt>
      <trkpt lat="48.57871" lon="-4.03421">
        <ele>84.3</ele>
        <time>2020-06-10T10:38:07Z</time>
      </trkpt>
      <trkpt lat="48.57872" lon="-4.03412">
        <ele>84.2</ele>
        <time>2020-06-10T10:38:08Z</time>
      </trkpt>
      <trkpt lat="48.57873" lon="-4.03406">
        <ele>84.1</ele>
        <time>2020-06-10T10:38:09Z</time>
      </trkpt>
      <trkpt lat="48.57874" lon="-4.03397">
        <ele>84</ele>
        <time>2020-06-10T10:38:10Z</time>
      </trkpt>
      <trkpt lat="48.57875" lon="-4.03388">
        <ele>84</ele>
        <time>2020-06-10T10:38:11Z</time>
      </trkpt>
      <trkpt lat="48.57876" lon="-4.03379">
        <ele>83.9</ele>
        <time>2020-06-10T10:38:12Z</time>
      </trkpt>
      <trkpt lat="48.57876" lon="-4.03371">
        <ele>83.8</ele>
        <time>2020-06-10T10:38:13Z</time>
      </trkpt>
      <trkpt lat="48.57877" lon="-4.03363">
        <ele>83.7</ele>
        <time>2020-06-10T10:38:14Z</time>
      </trkpt>
      <trkpt lat="48.57878" lon="-4.03355">
        <ele>83.6</ele>
        <time>2020-06-10T10:38:15Z</time>
      </trkpt>
      <trkpt lat="48.57878" lon="-4.03348">
        <ele>83.5</ele>
        <time>2020-06-10T10:38:16Z</time>
      </trkpt>
      <trkpt lat="48.57879" lon="-4.03341">
        <ele>83.3</ele>
        <time>2020-06-10T10:38:17Z</time>
      </trkpt>
      <trkpt lat="48.5788" lon="-4.03333">
        <ele>83.2</ele>
        <time>2020-06-10T10:38:18Z</time>
      </trkpt>
      <trkpt lat="48.57882" lon="-4.03323">
        <ele>83</ele>
        <time>2020-06-10T10:38:19Z</time>
      </trkpt>
      <trkpt lat="48.57883" lon="-4.03315">
        <ele>82.9</ele>
        <time>2020-06-10T10:38:20Z</time>
      </trkpt>
      <trkpt lat="48.57884" lon="-4.03305">
        <ele>82.7</ele>
        <time>2020-06-10T10:38:21Z</time>
      </trkpt>
      <trkpt lat="48.57886" lon="-4.03297">
        <ele>82.6</ele>
        <time>2020-06-10T10:38:22Z</time>
      </trkpt>
      <trkpt lat="48.57887" lon="-4.03289">
        <ele>82.4</ele>
        <time>2020-06-10T10:38:23Z</time>
      </trkpt>
      <trkpt lat="48.57889" lon="-4.03281">
        <ele>82.3</ele>
        <time>2020-06-10T10:38:24Z</time>
      </trkpt>
      <trkpt lat="48.57891" lon="-4.03272">
        <ele>82.1</ele>
        <time>2020-06-10T10:38:25Z</time>
      </trkpt>
      <trkpt lat="48.57893" lon="-4.03263">
        <ele>81.9</ele>
        <time>2020-06-10T10:38:26Z</time>
      </trkpt>
      <trkpt lat="48.57895" lon="-4.03254">
        <ele>81.7</ele>
        <time>2020-06-10T10:38:27Z</time>
      </trkpt>
      <trkpt lat="48.57898" lon="-4.03244">
        <ele>81.5</ele>
        <time>2020-06-10T10:38:28Z</time>
      </trkpt>
      <trkpt lat="48.579" lon="-4.03234">
        <ele>81.3</ele>
        <time>2020-06-10T10:38:29Z</time>
      </trkpt>
      <trkpt lat="48.57902" lon="-4.03224">
        <ele>81</ele>
        <time>2020-06-10T10:38:30Z</time>
      </trkpt>
      <trkpt lat="48.57905" lon="-4.03214">
        <ele>80.8</ele>
        <time>2020-06-10T10:38:31Z</time>
      </trkpt>
      <trkpt lat="48.57907" lon="-4.03205">
        <ele>80.6</ele>
        <time>2020-06-10T10:38:32Z</time>
      </trkpt>
      <trkpt lat="48.5791" lon="-4.03195">
        <ele>80.4</ele>
        <time>2020-06-10T10:38:33Z</time>
      </trkpt>
      <trkpt lat="48.57912" lon="-4.03185">
        <ele>80.2</ele>
        <time>2020-06-10T10:38:34Z</time>
      </trkpt>
      <trkpt lat="48.57914" lon="-4.03176">
        <ele>80</ele>
        <time>2020-06-10T10:38:35Z</time>
      </trkpt>
      <trkpt lat="48.57917" lon="-4.03165">
        <ele>79.7</ele>
        <time>2020-06-10T10:38:36Z</time>
      </trkpt>
      <trkpt lat="48.57919" lon="-4.03155">
        <ele>79.4</ele>
        <time>2020-06-10T10:38:37Z</time>
      </trkpt>
      <trkpt lat="48.57922" lon="-4.03144">
        <ele>79.2</ele>
        <time>2020-06-10T10:38:38Z</time>
      </trkpt>
      <trkpt lat="48.57925" lon="-4.03134">
        <ele>78.9</ele>
        <time>2020-06-10T10:38:39Z</time>
      </trkpt>
      <trkpt lat="48.57928" lon="-4.03124">
        <ele>78.7</ele>
        <time>2020-06-10T10:38:40Z</time>
      </trkpt>
      <trkpt lat="48.57931" lon="-4.03113">
        <ele>78.4</ele>
        <time>2020-06-10T10:38:41Z</time>
      </trkpt>
      <trkpt lat="48.57933" lon="-4.03102">
        <ele>78.1</ele>
        <time>2020-06-10T10:38:42Z</time>
      </trkpt>
      <trkpt lat="48.57937" lon="-4.03092">
        <ele>77.8</ele>
        <time>2020-06-10T10:38:43Z</time>
      </trkpt>
      <trkpt lat="48.5794" lon="-4.03081">
        <ele>77.6</ele>
        <time>2020-06-10T10:38:44Z</time>
      </trkpt>
      <trkpt lat="48.57943" lon="-4.0307">
        <ele>77.3</ele>
        <time>2020-06-10T10:38:45Z</time>
      </trkpt>
      <trkpt lat="48.57945" lon="-4.03059">
        <ele>77</ele>
        <time>2020-06-10T10:38:46Z</time>
      </trkpt>
      <trkpt lat="48.57948" lon="-4.03047">
        <ele>76.7</ele>
        <time>2020-06-10T10:38:47Z</time>
      </trkpt>
      <trkpt lat="48.57951" lon="-4.03036">
        <ele>76.4</ele>
        <time>2020-06-10T10:38:48Z</time>
      </trkpt>
      <trkpt lat="48.57954" lon="-4.03025">
        <ele>76.2</ele>
        <time>2020-06-10T10:38:49Z</time>
      </trkpt>
      <trkpt lat="48.57957" lon="-4.03013">
        <ele>76</ele>
        <time>2020-06-10T10:38:50Z</time>
      </trkpt>
      <trkpt lat="48.57959" lon="-4.03002">
        <ele>75.7</ele>
        <time>2020-06-10T10:38:51Z</time>
      </trkpt>
      <trkpt lat="48.57962" lon="-4.02991">
        <ele>75.5</ele>
        <time>2020-06-10T10:38:52Z</time>
      </trkpt>
      <trkpt lat="48.57965" lon="-4.02979">
        <ele>75.2</ele>
        <time>2020-06-10T10:38:53Z</time>
      </trkpt>
      <trkpt lat="48.57968" lon="-4.02968">
        <ele>75</ele>
        <time>2020-06-10T10:38:54Z</time>
      </trkpt>
      <trkpt lat="48.57971" lon="-4.02958">
        <ele>74.7</ele>
        <time>2020-06-10T10:38:55Z</time>
      </trkpt>
      <trkpt lat="48.57974" lon="-4.02947">
        <ele>74.5</ele>
        <time>2020-06-10T10:38:56Z</time>
      </trkpt>
      <trkpt lat="48.57976" lon="-4.02937">
        <ele>74.3</ele>
        <time>2020-06-10T10:38:57Z</time>
      </trkpt>
      <trkpt lat="48.57977" lon="-4.02928">
        <ele>74.2</ele>
        <time>2020-06-10T10:38:58Z</time>
      </trkpt>
      <trkpt lat="48.57979" lon="-4.02918">
        <ele>74.2</ele>
        <time>2020-06-10T10:38:59Z</time>
      </trkpt>
      <trkpt lat="48.57981" lon="-4.02909">
        <ele>74.5</ele>
        <time>2020-06-10T10:39:00Z</time>
      </trkpt>
      <trkpt lat="48.57983" lon="-4.029">
        <ele>74.2</ele>
        <time>2020-06-10T10:39:01Z</time>
      </trkpt>
      <trkpt lat="48.57987" lon="-4.02891">
        <ele>73.9</ele>
        <time>2020-06-10T10:39:02Z</time>
      </trkpt>
      <trkpt lat="48.57991" lon="-4.02882">
        <ele>73.6</ele>
        <time>2020-06-10T10:39:03Z</time>
      </trkpt>
      <trkpt lat="48.57995" lon="-4.02873">
        <ele>73.3</ele>
        <time>2020-06-10T10:39:04Z</time>
      </trkpt>
      <trkpt lat="48.57999" lon="-4.02863">
        <ele>73.1</ele>
        <time>2020-06-10T10:39:05Z</time>
      </trkpt>
      <trkpt lat="48.58002" lon="-4.02852">
        <ele>72.7</ele>
        <time>2020-06-10T10:39:06Z</time>
      </trkpt>
      <trkpt lat="48.58005" lon="-4.02842">
        <ele>72.4</ele>
        <time>2020-06-10T10:39:07Z</time>
      </trkpt>
      <trkpt lat="48.58009" lon="-4.02831">
        <ele>72.1</ele>
        <time>2020-06-10T10:39:08Z</time>
      </trkpt>
      <trkpt lat="48.58012" lon="-4.02821">
        <ele>71.8</ele>
        <time>2020-06-10T10:39:09Z</time>
      </trkpt>
      <trkpt lat="48.58015" lon="-4.0281">
        <ele>71.5</ele>
        <time>2020-06-10T10:39:10Z</time>
      </trkpt>
      <trkpt lat="48.58018" lon="-4.02799">
        <ele>71.2</ele>
        <time>2020-06-10T10:39:11Z</time>
      </trkpt>
      <trkpt lat="48.58021" lon="-4.02789">
        <ele>70.8</ele>
        <time>2020-06-10T10:39:12Z</time>
      </trkpt>
      <trkpt lat="48.58024" lon="-4.02778">
        <ele>70.5</ele>
        <time>2020-06-10T10:39:13Z</time>
      </trkpt>
      <trkpt lat="48.58027" lon="-4.02767">
        <ele>70.1</ele>
        <time>2020-06-10T10:39:14Z</time>
      </trkpt>
      <trkpt lat="48.58031" lon="-4.02756">
        <ele>69.6</ele>
        <time>2020-06-10T10:39:15Z</time>
      </trkpt>
      <trkpt lat="48.58034" lon="-4.02744">
        <ele>69.2</ele>
        <time>2020-06-10T10:39:16Z</time>
      </trkpt>
      <trkpt lat="48.58038" lon="-4.02732">
        <ele>68.7</ele>
        <time>2020-06-10T10:39:17Z</time>
      </trkpt>
      <trkpt lat="48.58041" lon="-4.0272">
        <ele>68.2</ele>
        <time>2020-06-10T10:39:18Z</time>
      </trkpt>
      <trkpt lat="48.58044" lon="-4.02708">
        <ele>67.7</ele>
        <time>2020-06-10T10:39:19Z</time>
      </trkpt>
      <trkpt lat="48.58048" lon="-4.02695">
        <ele>67.2</ele>
        <time>2020-06-10T10:39:20Z</time>
      </trkpt>
      <trkpt lat="48.58051" lon="-4.02681">
        <ele>66.7</ele>
        <time>2020-06-10T10:39:21Z</time>
      </trkpt>
      <trkpt lat="48.58054" lon="-4.02668">
        <ele>66.3</ele>
        <time>2020-06-10T10:39:22Z</time>
      </trkpt>
      <trkpt lat="48.58057" lon="-4.02653">
        <ele>65.7</ele>
        <time>2020-06-10T10:39:23Z</time>
      </trkpt>
      <trkpt lat="48.58059" lon="-4.02638">
        <ele>65.1</ele>
        <time>2020-06-10T10:39:24Z</time>
      </trkpt>
      <trkpt lat="48.58061" lon="-4.02623">
        <ele>64.5</ele>
        <time>2020-06-10T10:39:25Z</time>
      </trkpt>
      <trkpt lat="48.58063" lon="-4.02608">
        <ele>63.9</ele>
        <time>2020-06-10T10:39:26Z</time>
      </trkpt>
      <trkpt lat="48.58064" lon="-4.02593">
        <ele>63.5</ele>
        <time>2020-06-10T10:39:27Z</time>
      </trkpt>
      <trkpt lat="48.58065" lon="-4.02577">
        <ele>63.1</ele>
        <time>2020-06-10T10:39:28Z</time>
      </trkpt>
      <trkpt lat="48.58066" lon="-4.02561">
        <ele>62.7</ele>
        <time>2020-06-10T10:39:29Z</time>
      </trkpt>
      <trkpt lat="48.58068" lon="-4.02545">
        <ele>62.3</ele>
        <time>2020-06-10T10:39:30Z</time>
      </trkpt>
      <trkpt lat="48.58068" lon="-4.0253">
        <ele>61.8</ele>
        <time>2020-06-10T10:39:31Z</time>
      </trkpt>
      <trkpt lat="48.58069" lon="-4.02514">
        <ele>61.2</ele>
        <time>2020-06-10T10:39:32Z</time>
      </trkpt>
      <trkpt lat="48.58068" lon="-4.02498">
        <ele>60.6</ele>
        <time>2020-06-10T10:39:33Z</time>
      </trkpt>
      <trkpt lat="48.58068" lon="-4.02483">
        <ele>60</ele>
        <time>2020-06-10T10:39:34Z</time>
      </trkpt>
      <trkpt lat="48.58067" lon="-4.02467">
        <ele>59.3</ele>
        <time>2020-06-10T10:39:35Z</time>
      </trkpt>
      <trkpt lat="48.58066" lon="-4.02451">
        <ele>58.7</ele>
        <time>2020-06-10T10:39:36Z</time>
      </trkpt>
      <trkpt lat="48.58064" lon="-4.02434">
        <ele>58.1</ele>
        <time>2020-06-10T10:39:37Z</time>
      </trkpt>
      <trkpt lat="48.58061" lon="-4.02418">
        <ele>57.4</ele>
        <time>2020-06-10T10:39:38Z</time>
      </trkpt>
      <trkpt lat="48.58059" lon="-4.02402">
        <ele>56.8</ele>
        <time>2020-06-10T10:39:39Z</time>
      </trkpt>
      <trkpt lat="48.58056" lon="-4.02385">
        <ele>56.2</ele>
        <time>2020-06-10T10:39:40Z</time>
      </trkpt>
      <trkpt lat="48.58053" lon="-4.02368">
        <ele>55.6</ele>
        <time>2020-06-10T10:39:41Z</time>
      </trkpt>
      <trkpt lat="48.5805" lon="-4.02352">
        <ele>55.2</ele>
        <time>2020-06-10T10:39:42Z</time>
      </trkpt>
      <trkpt lat="48.58047" lon="-4.02335">
        <ele>54.8</ele>
        <time>2020-06-10T10:39:43Z</time>
      </trkpt>
      <trkpt lat="48.58044" lon="-4.02319">
        <ele>54.5</ele>
        <time>2020-06-10T10:39:44Z</time>
      </trkpt>
      <trkpt lat="48.58041" lon="-4.02303">
        <ele>54.5</ele>
        <time>2020-06-10T10:39:45Z</time>
      </trkpt>
      <trkpt lat="48.58039" lon="-4.02287">
        <ele>54.2</ele>
        <time>2020-06-10T10:39:46Z</time>
      </trkpt>
      <trkpt lat="48.58036" lon="-4.02273">
        <ele>54.1</ele>
        <time>2020-06-10T10:39:47Z</time>
      </trkpt>
      <trkpt lat="48.58033" lon="-4.02258">
        <ele>54</ele>
        <time>2020-06-10T10:39:48Z</time>
      </trkpt>
      <trkpt lat="48.5803" lon="-4.02244">
        <ele>54</ele>
        <time>2020-06-10T10:39:49Z</time>
      </trkpt>
      <trkpt lat="48.58028" lon="-4.0223">
        <ele>54.1</ele>
        <time>2020-06-10T10:39:50Z</time>
      </trkpt>
      <trkpt lat="48.58026" lon="-4.02218">
        <ele>54.2</ele>
        <time>2020-06-10T10:39:51Z</time>
      </trkpt>
      <trkpt lat="48.58024" lon="-4.02205">
        <ele>54.3</ele>
        <time>2020-06-10T10:39:52Z</time>
      </trkpt>
      <trkpt lat="48.58023" lon="-4.02193">
        <ele>54.5</ele>
        <time>2020-06-10T10:39:53Z</time>
      </trkpt>
      <trkpt lat="48.58022" lon="-4.02181">
        <ele>54.7</ele>
        <time>2020-06-10T10:39:54Z</time>
      </trkpt>
      <trkpt lat="48.58022" lon="-4.0217">
        <ele>55</ele>
        <time>2020-06-10T10:39:55Z</time>
      </trkpt>
      <trkpt lat="48.58021" lon="-4.02159">
        <ele>55.2</ele>
        <time>2020-06-10T10:39:56Z</time>
      </trkpt>
      <trkpt lat="48.5802" lon="-4.02149">
        <ele>55.4</ele>
        <time>2020-06-10T10:39:57Z</time>
      </trkpt>
      <trkpt lat="48.5802" lon="-4.02138">
        <ele>55.6</ele>
        <time>2020-06-10T10:39:58Z</time>
      </trkpt>
      <trkpt lat="48.5802" lon="-4.02129">
        <ele>55.9</ele>
        <time>2020-06-10T10:39:59Z</time>
      </trkpt>
      <trkpt lat="48.5802" lon="-4.02119">
        <ele>56.1</ele>
        <time>2020-06-10T10:40:00Z</time>
      </trkpt>
      <trkpt lat="48.58021" lon="-4.0211">
        <ele>56.4</ele>
        <time>2020-06-10T10:40:01Z</time>
      </trkpt>
      <trkpt lat="48.58021" lon="-4.02101">
        <ele>56.7</ele>
        <time>2020-06-10T10:40:02Z</time>
      </trkpt>
      <trkpt lat="48.58022" lon="-4.02093">
        <ele>57</ele>
        <time>2020-06-10T10:40:03Z</time>
      </trkpt>
      <trkpt lat="48.58022" lon="-4.02085">
        <ele>57.2</ele>
        <time>2020-06-10T10:40:04Z</time>
      </trkpt>
      <trkpt lat="48.58023" lon="-4.02078">
        <ele>57.5</ele>
        <time>2020-06-10T10:40:05Z</time>
      </trkpt>
      <trkpt lat="48.58024" lon="-4.0207">
        <ele>57.8</ele>
        <time>2020-06-10T10:40:06Z</time>
      </trkpt>
      <trkpt lat="48.58025" lon="-4.02063">
        <ele>58</ele>
        <time>2020-06-10T10:40:07Z</time>
      </trkpt>
      <trkpt lat="48.58025" lon="-4.02056">
        <ele>58.3</ele>
        <time>2020-06-10T10:40:08Z</time>
      </trkpt>
      <trkpt lat="48.58026" lon="-4.0205">
        <ele>58.5</ele>
        <time>2020-06-10T10:40:09Z</time>
      </trkpt>
      <trkpt lat="48.58026" lon="-4.02044">
        <ele>58.7</ele>
        <time>2020-06-10T10:40:10Z</time>
      </trkpt>
      <trkpt lat="48.58026" lon="-4.02038">
        <ele>59</ele>
        <time>2020-06-10T10:40:11Z</time>
      </trkpt>
      <trkpt lat="48.58026" lon="-4.02032">
        <ele>59.2</ele>
        <time>2020-06-10T10:40:12Z</time>
      </trkpt>
      <trkpt lat="48.58027" lon="-4.02026">
        <ele>59.4</ele>
        <time>2020-06-10T10:40:13Z</time>
      </trkpt>
      <trkpt lat="48.58026" lon="-4.02021">
        <ele>59.6</ele>
        <time>2020-06-10T10:40:14Z</time>
      </trkpt>
      <trkpt lat="48.58027" lon="-4.02016">
        <ele>59.8</ele>
        <time>2020-06-10T10:40:15Z</time>
      </trkpt>
      <trkpt lat="48.58027" lon="-4.02011">
        <ele>60</ele>
        <time>2020-06-10T10:40:16Z</time>
      </trkpt>
      <trkpt lat="48.58027" lon="-4.02006">
        <ele>60.2</ele>
        <time>2020-06-10T10:40:17Z</time>
      </trkpt>
      <trkpt lat="48.58027" lon="-4.02001">
        <ele>60.3</ele>
        <time>2020-06-10T10:40:18Z</time>
      </trkpt>
      <trkpt lat="48.58027" lon="-4.01997">
        <ele>60.5</ele>
        <time>2020-06-10T10:40:19Z</time>
      </trkpt>
      <trkpt lat="48.58027" lon="-4.01991">
        <ele>60.7</ele>
        <time>2020-06-10T10:40:20Z</time>
      </trkpt>
      <trkpt lat="48.58026" lon="-4.01985">
        <ele>61</ele>
        <time>2020-06-10T10:40:21Z</time>
      </trkpt>
      <trkpt lat="48.58026" lon="-4.0198">
        <ele>61.1</ele>
        <time>2020-06-10T10:40:22Z</time>
      </trkpt>
      <trkpt lat="48.58026" lon="-4.01975">
        <ele>61.3</ele>
        <time>2020-06-10T10:40:23Z</time>
      </trkpt>
      <trkpt lat="48.58026" lon="-4.0197">
        <ele>61.5</ele>
        <time>2020-06-10T10:40:24Z</time>
      </trkpt>
      <trkpt lat="48.58026" lon="-4.01969">
        <ele>61.5</ele>
        <time>2020-06-10T10:40:25Z</time>
      </trkpt>
      <trkpt lat="48.58026" lon="-4.01963">
        <ele>61.7</ele>
        <time>2020-06-10T10:40:26Z</time>
      </trkpt>
      <trkpt lat="48.58026" lon="-4.01961">
        <ele>61.8</ele>
        <time>2020-06-10T10:40:27Z</time>
      </trkpt>
      <trkpt lat="48.58026" lon="-4.01955">
        <ele>62</ele>
        <time>2020-06-10T10:40:28Z</time>
      </trkpt>
      <trkpt lat="48.58026" lon="-4.01951">
        <ele>62.1</ele>
        <time>2020-06-10T10:40:29Z</time>
      </trkpt>
      <trkpt lat="48.58026" lon="-4.01947">
        <ele>62.4</ele>
        <time>2020-06-10T10:40:30Z</time>
      </trkpt>
      <trkpt lat="48.58026" lon="-4.01942">
        <ele>62.6</ele>
        <time>2020-06-10T10:40:31Z</time>
      </trkpt>
      <trkpt lat="48.58027" lon="-4.01936">
        <ele>62.9</ele>
        <time>2020-06-10T10:40:32Z</time>
      </trkpt>
      <trkpt lat="48.58028" lon="-4.01932">
        <ele>63.1</ele>
        <time>2020-06-10T10:40:33Z</time>
      </trkpt>
      <trkpt lat="48.58029" lon="-4.01928">
        <ele>63.3</ele>
        <time>2020-06-10T10:40:34Z</time>
      </trkpt>
      <trkpt lat="48.58029" lon="-4.01926">
        <ele>63.4</ele>
        <time>2020-06-10T10:40:35Z</time>
      </trkpt>
      <trkpt lat="48.58029" lon="-4.0192">
        <ele>63.7</ele>
        <time>2020-06-10T10:40:36Z</time>
      </trkpt>
      <trkpt lat="48.58029" lon="-4.01918">
        <ele>63.8</ele>
        <time>2020-06-10T10:40:37Z</time>
      </trkpt>
      <trkpt lat="48.58029" lon="-4.01913">
        <ele>64</ele>
        <time>2020-06-10T10:40:38Z</time>
      </trkpt>
      <trkpt lat="48.5803" lon="-4.01907">
        <ele>64.2</ele>
        <time>2020-06-10T10:40:39Z</time>
      </trkpt>
      <trkpt lat="48.5803" lon="-4.01905">
        <ele>64.3</ele>
        <time>2020-06-10T10:40:40Z</time>
      </trkpt>
      <trkpt lat="48.5803" lon="-4.01901">
        <ele>64.5</ele>
        <time>2020-06-10T10:40:41Z</time>
      </trkpt>
      <trkpt lat="48.5803" lon="-4.01896">
        <ele>64.7</ele>
        <time>2020-06-10T10:40:42Z</time>
      </trkpt>
      <trkpt lat="48.5803" lon="-4.01893">
        <ele>64.8</ele>
        <time>2020-06-10T10:40:43Z</time>
      </trkpt>
      <trkpt lat="48.5803" lon="-4.01889">
        <ele>65</ele>
        <time>2020-06-10T10:40:44Z</time>
      </trkpt>
      <trkpt lat="48.5803" lon="-4.01884">
        <ele>65.2</ele>
        <time>2020-06-10T10:40:45Z</time>
      </trkpt>
      <trkpt lat="48.5803" lon="-4.01882">
        <ele>65.3</ele>
        <time>2020-06-10T10:40:46Z</time>
      </trkpt>
      <trkpt lat="48.5803" lon="-4.01876">
        <ele>65.5</ele>
        <time>2020-06-10T10:40:47Z</time>
      </trkpt>
      <trkpt lat="48.5803" lon="-4.01873">
        <ele>65.6</ele>
        <time>2020-06-10T10:40:48Z</time>
      </trkpt>
      <trkpt lat="48.58031" lon="-4.01868">
        <ele>65.8</ele>
        <time>2020-06-10T10:40:49Z</time>
      </trkpt>
      <trkpt lat="48.58031" lon="-4.01866">
        <ele>65.9</ele>
        <time>2020-06-10T10:40:50Z</time>
      </trkpt>
      <trkpt lat="48.58031" lon="-4.01862">
        <ele>66.1</ele>
        <time>2020-06-10T10:40:51Z</time>
      </trkpt>
      <trkpt lat="48.58031" lon="-4.0186">
        <ele>66.2</ele>
        <time>2020-06-10T10:40:52Z</time>
      </trkpt>
      <trkpt lat="48.58031" lon="-4.01855">
        <ele>66.4</ele>
        <time>2020-06-10T10:40:53Z</time>
      </trkpt>
      <trkpt lat="48.58031" lon="-4.01851">
        <ele>66.6</ele>
        <time>2020-06-10T10:40:54Z</time>
      </trkpt>
      <trkpt lat="48.58031" lon="-4.01849">
        <ele>66.7</ele>
        <time>2020-06-10T10:40:55Z</time>
      </trkpt>
      <trkpt lat="48.58031" lon="-4.01846">
        <ele>66.8</ele>
        <time>2020-06-10T10:40:56Z</time>
      </trkpt>
      <trkpt lat="48.5803" lon="-4.0184">
        <ele>67</ele>
        <time>2020-06-10T10:40:57Z</time>
      </trkpt>
      <trkpt lat="48.5803" lon="-4.01836">
        <ele>67.2</ele>
        <time>2020-06-10T10:40:58Z</time>
      </trkpt>
      <trkpt lat="48.58029" lon="-4.01831">
        <ele>67.4</ele>
        <time>2020-06-10T10:40:59Z</time>
      </trkpt>
      <trkpt lat="48.58029" lon="-4.01827">
        <ele>67.6</ele>
        <time>2020-06-10T10:41:00Z</time>
      </trkpt>
      <trkpt lat="48.58029" lon="-4.0182">
        <ele>67.8</ele>
        <time>2020-06-10T10:41:01Z</time>
      </trkpt>
      <trkpt lat="48.58029" lon="-4.01818">
        <ele>67.9</ele>
        <time>2020-06-10T10:41:02Z</time>
      </trkpt>
      <trkpt lat="48.58029" lon="-4.01812">
        <ele>68.1</ele>
        <time>2020-06-10T10:41:03Z</time>
      </trkpt>
      <trkpt lat="48.58029" lon="-4.0181">
        <ele>68.2</ele>
        <time>2020-06-10T10:41:04Z</time>
      </trkpt>
      <trkpt lat="48.58028" lon="-4.01806">
        <ele>68.4</ele>
        <time>2020-06-10T10:41:05Z</time>
      </trkpt>
      <trkpt lat="48.58028" lon="-4.018">
        <ele>68.6</ele>
        <time>2020-06-10T10:41:06Z</time>
      </trkpt>
      <trkpt lat="48.58028" lon="-4.01797">
        <ele>68.7</ele>
        <time>2020-06-10T10:41:07Z</time>
      </trkpt>
      <trkpt lat="48.58028" lon="-4.01792">
        <ele>68.9</ele>
        <time>2020-06-10T10:41:08Z</time>
      </trkpt>
      <trkpt lat="48.58028" lon="-4.0179">
        <ele>69</ele>
        <time>2020-06-10T10:41:09Z</time>
      </trkpt>
      <trkpt lat="48.58027" lon="-4.01785">
        <ele>69.2</ele>
        <time>2020-06-10T10:41:10Z</time>
      </trkpt>
      <trkpt lat="48.58027" lon="-4.01783">
        <ele>69.2</ele>
        <time>2020-06-10T10:41:11Z</time>
      </trkpt>
      <trkpt lat="48.58027" lon="-4.01777">
        <ele>69.4</ele>
        <time>2020-06-10T10:41:12Z</time>
      </trkpt>
      <trkpt lat="48.58027" lon="-4.01774">
        <ele>69.5</ele>
        <time>2020-06-10T10:41:13Z</time>
      </trkpt>
      <trkpt lat="48.58026" lon="-4.01769">
        <ele>69.7</ele>
        <time>2020-06-10T10:41:14Z</time>
      </trkpt>
      <trkpt lat="48.58026" lon="-4.01764">
        <ele>69.9</ele>
        <time>2020-06-10T10:41:15Z</time>
      </trkpt>
      <trkpt lat="48.58026" lon="-4.01758">
        <ele>70.1</ele>
        <time>2020-06-10T10:41:16Z</time>
      </trkpt>
      <trkpt lat="48.58025" lon="-4.01753">
        <ele>70.2</ele>
        <time>2020-06-10T10:41:17Z</time>
      </trkpt>
      <trkpt lat="48.58025" lon="-4.01747">
        <ele>70.4</ele>
        <time>2020-06-10T10:41:18Z</time>
      </trkpt>
      <trkpt lat="48.58024" lon="-4.01744">
        <ele>70.5</ele>
        <time>2020-06-10T10:41:19Z</time>
      </trkpt>
      <trkpt lat="48.58023" lon="-4.0174">
        <ele>70.6</ele>
        <time>2020-06-10T10:41:20Z</time>
      </trkpt>
      <trkpt lat="48.58022" lon="-4.01735">
        <ele>70.8</ele>
        <time>2020-06-10T10:41:21Z</time>
      </trkpt>
      <trkpt lat="48.58022" lon="-4.0173">
        <ele>71</ele>
        <time>2020-06-10T10:41:22Z</time>
      </trkpt>
      <trkpt lat="48.58021" lon="-4.01724">
        <ele>71.1</ele>
        <time>2020-06-10T10:41:23Z</time>
      </trkpt>
      <trkpt lat="48.58021" lon="-4.01719">
        <ele>71.3</ele>
        <time>2020-06-10T10:41:24Z</time>
      </trkpt>
      <trkpt lat="48.5802" lon="-4.01713">
        <ele>71.5</ele>
        <time>2020-06-10T10:41:25Z</time>
      </trkpt>
      <trkpt lat="48.5802" lon="-4.01708">
        <ele>71.6</ele>
        <time>2020-06-10T10:41:26Z</time>
      </trkpt>
      <trkpt lat="48.58019" lon="-4.01704">
        <ele>71.8</ele>
        <time>2020-06-10T10:41:27Z</time>
      </trkpt>
      <trkpt lat="48.58019" lon="-4.01699">
        <ele>71.9</ele>
        <time>2020-06-10T10:41:28Z</time>
      </trkpt>
      <trkpt lat="48.58018" lon="-4.01693">
        <ele>72.1</ele>
        <time>2020-06-10T10:41:29Z</time>
      </trkpt>
      <trkpt lat="48.58017" lon="-4.01688">
        <ele>72.3</ele>
        <time>2020-06-10T10:41:30Z</time>
      </trkpt>
      <trkpt lat="48.58017" lon="-4.01682">
        <ele>72.4</ele>
        <time>2020-06-10T10:41:31Z</time>
      </trkpt>
      <trkpt lat="48.58017" lon="-4.01677">
        <ele>72.6</ele>
        <time>2020-06-10T10:41:32Z</time>
      </trkpt>
      <trkpt lat="48.58016" lon="-4.01673">
        <ele>72.7</ele>
        <time>2020-06-10T10:41:33Z</time>
      </trkpt>
      <trkpt lat="48.58016" lon="-4.0167">
        <ele>72.8</ele>
        <time>2020-06-10T10:41:34Z</time>
      </trkpt>
      <trkpt lat="48.58015" lon="-4.01665">
        <ele>73</ele>
        <time>2020-06-10T10:41:35Z</time>
      </trkpt>
      <trkpt lat="48.58015" lon="-4.01659">
        <ele>73.1</ele>
        <time>2020-06-10T10:41:36Z</time>
      </trkpt>
      <trkpt lat="48.58014" lon="-4.01654">
        <ele>73.3</ele>
        <time>2020-06-10T10:41:37Z</time>
      </trkpt>
      <trkpt lat="48.58014" lon="-4.01648">
        <ele>73.5</ele>
        <time>2020-06-10T10:41:38Z</time>
      </trkpt>
      <trkpt lat="48.58014" lon="-4.01645">
        <ele>73.6</ele>
        <time>2020-06-10T10:41:39Z</time>
      </trkpt>
      <trkpt lat="48.58014" lon="-4.01639">
        <ele>73.7</ele>
        <time>2020-06-10T10:41:40Z</time>
      </trkpt>
      <trkpt lat="48.58014" lon="-4.01636">
        <ele>73.8</ele>
        <time>2020-06-10T10:41:41Z</time>
      </trkpt>
      <trkpt lat="48.58014" lon="-4.01633">
        <ele>73.9</ele>
        <time>2020-06-10T10:41:42Z</time>
      </trkpt>
      <trkpt lat="48.58013" lon="-4.01628">
        <ele>74</ele>
        <time>2020-06-10T10:41:43Z</time>
      </trkpt>
      <trkpt lat="48.58013" lon="-4.01622">
        <ele>74.2</ele>
        <time>2020-06-10T10:41:44Z</time>
      </trkpt>
      <trkpt lat="48.58013" lon="-4.01619">
        <ele>74.3</ele>
        <time>2020-06-10T10:41:45Z</time>
      </trkpt>
      <trkpt lat="48.58012" lon="-4.01613">
        <ele>74.4</ele>
        <time>2020-06-10T10:41:46Z</time>
      </trkpt>
      <trkpt lat="48.58012" lon="-4.01609">
        <ele>74.6</ele>
        <time>2020-06-10T10:41:47Z</time>
      </trkpt>
      <trkpt lat="48.58012" lon="-4.01603">
        <ele>74.7</ele>
        <time>2020-06-10T10:41:48Z</time>
      </trkpt>
      <trkpt lat="48.58012" lon="-4.01598">
        <ele>74.9</ele>
        <time>2020-06-10T10:41:49Z</time>
      </trkpt>
      <trkpt lat="48.58013" lon="-4.01596">
        <ele>74.9</ele>
        <time>2020-06-10T10:41:50Z</time>
      </trkpt>
      <trkpt lat="48.58012" lon="-4.01591">
        <ele>75.1</ele>
        <time>2020-06-10T10:41:51Z</time>
      </trkpt>
      <trkpt lat="48.58013" lon="-4.01587">
        <ele>75.2</ele>
        <time>2020-06-10T10:41:52Z</time>
      </trkpt>
      <trkpt lat="48.58013" lon="-4.01582">
        <ele>75.3</ele>
        <time>2020-06-10T10:41:53Z</time>
      </trkpt>
      <trkpt lat="48.58013" lon="-4.01578">
        <ele>75.5</ele>
        <time>2020-06-10T10:41:54Z</time>
      </trkpt>
      <trkpt lat="48.58012" lon="-4.01572">
        <ele>75.6</ele>
        <time>2020-06-10T10:41:55Z</time>
      </trkpt>
      <trkpt lat="48.58012" lon="-4.01569">
        <ele>75.7</ele>
        <time>2020-06-10T10:41:56Z</time>
      </trkpt>
      <trkpt lat="48.58012" lon="-4.01564">
        <ele>75.8</ele>
        <time>2020-06-10T10:41:57Z</time>
      </trkpt>
      <trkpt lat="48.58011" lon="-4.01558">
        <ele>76</ele>
        <time>2020-06-10T10:41:58Z</time>
      </trkpt>
      <trkpt lat="48.58011" lon="-4.01555">
        <ele>76.1</ele>
        <time>2020-06-10T10:41:59Z</time>
      </trkpt>
      <trkpt lat="48.58011" lon="-4.01546">
        <ele>76.3</ele>
        <time>2020-06-10T10:42:00Z</time>
      </trkpt>
      <trkpt lat="48.5801" lon="-4.0154">
        <ele>76.4</ele>
        <time>2020-06-10T10:42:01Z</time>
      </trkpt>
      <trkpt lat="48.5801" lon="-4.01534">
        <ele>76.5</ele>
        <time>2020-06-10T10:42:02Z</time>
      </trkpt>
      <trkpt lat="48.5801" lon="-4.01529">
        <ele>76.7</ele>
        <time>2020-06-10T10:42:03Z</time>
      </trkpt>
      <trkpt lat="48.58009" lon="-4.01523">
        <ele>76.8</ele>
        <time>2020-06-10T10:42:04Z</time>
      </trkpt>
      <trkpt lat="48.58009" lon="-4.01516">
        <ele>76.9</ele>
        <time>2020-06-10T10:42:05Z</time>
      </trkpt>
      <trkpt lat="48.58008" lon="-4.0151">
        <ele>77.1</ele>
        <time>2020-06-10T10:42:06Z</time>
      </trkpt>
      <trkpt lat="48.58008" lon="-4.01503">
        <ele>77.2</ele>
        <time>2020-06-10T10:42:07Z</time>
      </trkpt>
      <trkpt lat="48.58008" lon="-4.01498">
        <ele>77.3</ele>
        <time>2020-06-10T10:42:08Z</time>
      </trkpt>
      <trkpt lat="48.58008" lon="-4.01492">
        <ele>77.4</ele>
        <time>2020-06-10T10:42:09Z</time>
      </trkpt>
      <trkpt lat="48.58008" lon="-4.0149">
        <ele>77.4</ele>
        <time>2020-06-10T10:42:10Z</time>
      </trkpt>
      <trkpt lat="48.58008" lon="-4.01485">
        <ele>77.5</ele>
        <time>2020-06-10T10:42:11Z</time>
      </trkpt>
      <trkpt lat="48.58009" lon="-4.0148">
        <ele>77.6</ele>
        <time>2020-06-10T10:42:12Z</time>
      </trkpt>
      <trkpt lat="48.58008" lon="-4.01475">
        <ele>77.7</ele>
        <time>2020-06-10T10:42:13Z</time>
      </trkpt>
      <trkpt lat="48.58008" lon="-4.01468">
        <ele>77.8</ele>
        <time>2020-06-10T10:42:14Z</time>
      </trkpt>
      <trkpt lat="48.58008" lon="-4.01463">
        <ele>77.8</ele>
        <time>2020-06-10T10:42:15Z</time>
      </trkpt>
      <trkpt lat="48.58008" lon="-4.01458">
        <ele>77.9</ele>
        <time>2020-06-10T10:42:16Z</time>
      </trkpt>
      <trkpt lat="48.58007" lon="-4.01452">
        <ele>78</ele>
        <time>2020-06-10T10:42:17Z</time>
      </trkpt>
      <trkpt lat="48.58007" lon="-4.0145">
        <ele>78</ele>
        <time>2020-06-10T10:42:18Z</time>
      </trkpt>
      <trkpt lat="48.58006" lon="-4.01445">
        <ele>78.1</ele>
        <time>2020-06-10T10:42:19Z</time>
      </trkpt>
      <trkpt lat="48.58006" lon="-4.01439">
        <ele>78.2</ele>
        <time>2020-06-10T10:42:20Z</time>
      </trkpt>
      <trkpt lat="48.58005" lon="-4.01432">
        <ele>78.3</ele>
        <time>2020-06-10T10:42:21Z</time>
      </trkpt>
      <trkpt lat="48.58005" lon="-4.01425">
        <ele>78.4</ele>
        <time>2020-06-10T10:42:22Z</time>
      </trkpt>
      <trkpt lat="48.58004" lon="-4.01419">
        <ele>78.4</ele>
        <time>2020-06-10T10:42:23Z</time>
      </trkpt>
      <trkpt lat="48.58003" lon="-4.01413">
        <ele>78.5</ele>
        <time>2020-06-10T10:42:24Z</time>
      </trkpt>
      <trkpt lat="48.58003" lon="-4.01407">
        <ele>78.6</ele>
        <time>2020-06-10T10:42:25Z</time>
      </trkpt>
      <trkpt lat="48.58002" lon="-4.01401">
        <ele>78.7</ele>
        <time>2020-06-10T10:42:26Z</time>
      </trkpt>
      <trkpt lat="48.58002" lon="-4.01394">
        <ele>78.7</ele>
        <time>2020-06-10T10:42:27Z</time>
      </trkpt>
      <trkpt lat="48.58001" lon="-4.01388">
        <ele>78.8</ele>
        <time>2020-06-10T10:42:28Z</time>
      </trkpt>
      <trkpt lat="48.58001" lon="-4.0138">
        <ele>78.9</ele>
        <time>2020-06-10T10:42:29Z</time>
      </trkpt>
      <trkpt lat="48.58" lon="-4.01373">
        <ele>79</ele>
        <time>2020-06-10T10:42:30Z</time>
      </trkpt>
      <trkpt lat="48.57999" lon="-4.01366">
        <ele>79</ele>
        <time>2020-06-10T10:42:31Z</time>
      </trkpt>
      <trkpt lat="48.57999" lon="-4.0136">
        <ele>79.1</ele>
        <time>2020-06-10T10:42:32Z</time>
      </trkpt>
      <trkpt lat="48.57999" lon="-4.01354">
        <ele>79.2</ele>
        <time>2020-06-10T10:42:33Z</time>
      </trkpt>
      <trkpt lat="48.57999" lon="-4.01348">
        <ele>79.2</ele>
        <time>2020-06-10T10:42:34Z</time>
      </trkpt>
      <trkpt lat="48.57999" lon="-4.01342">
        <ele>79.3</ele>
        <time>2020-06-10T10:42:35Z</time>
      </trkpt>
      <trkpt lat="48.57998" lon="-4.01335">
        <ele>79.4</ele>
        <time>2020-06-10T10:42:36Z</time>
      </trkpt>
      <trkpt lat="48.57997" lon="-4.01327">
        <ele>79.6</ele>
        <time>2020-06-10T10:42:37Z</time>
      </trkpt>
      <trkpt lat="48.57997" lon="-4.01319">
        <ele>79.8</ele>
        <time>2020-06-10T10:42:38Z</time>
      </trkpt>
      <trkpt lat="48.57996" lon="-4.01313">
        <ele>79.9</ele>
        <time>2020-06-10T10:42:39Z</time>
      </trkpt>
      <trkpt lat="48.57994" lon="-4.01306">
        <ele>80</ele>
        <time>2020-06-10T10:42:40Z</time>
      </trkpt>
      <trkpt lat="48.57993" lon="-4.013">
        <ele>80.1</ele>
        <time>2020-06-10T10:42:41Z</time>
      </trkpt>
      <trkpt lat="48.57992" lon="-4.01293">
        <ele>80.2</ele>
        <time>2020-06-10T10:42:42Z</time>
      </trkpt>
      <trkpt lat="48.5799" lon="-4.01286">
        <ele>80.2</ele>
        <time>2020-06-10T10:42:43Z</time>
      </trkpt>
      <trkpt lat="48.57989" lon="-4.0128">
        <ele>80.3</ele>
        <time>2020-06-10T10:42:44Z</time>
      </trkpt>
      <trkpt lat="48.57988" lon="-4.01271">
        <ele>80.4</ele>
        <time>2020-06-10T10:42:45Z</time>
      </trkpt>
      <trkpt lat="48.57986" lon="-4.01264">
        <ele>80.5</ele>
        <time>2020-06-10T10:42:46Z</time>
      </trkpt>
      <trkpt lat="48.57985" lon="-4.01258">
        <ele>80.5</ele>
        <time>2020-06-10T10:42:47Z</time>
      </trkpt>
      <trkpt lat="48.57984" lon="-4.0125">
        <ele>80.6</ele>
        <time>2020-06-10T10:42:48Z</time>
      </trkpt>
      <trkpt lat="48.57983" lon="-4.01243">
        <ele>80.7</ele>
        <time>2020-06-10T10:42:49Z</time>
      </trkpt>
      <trkpt lat="48.57982" lon="-4.01237">
        <ele>80.8</ele>
        <time>2020-06-10T10:42:50Z</time>
      </trkpt>
      <trkpt lat="48.57981" lon="-4.01231">
        <ele>80.9</ele>
        <time>2020-06-10T10:42:51Z</time>
      </trkpt>
      <trkpt lat="48.5798" lon="-4.01225">
        <ele>81</ele>
        <time>2020-06-10T10:42:52Z</time>
      </trkpt>
      <trkpt lat="48.57979" lon="-4.01219">
        <ele>81.1</ele>
        <time>2020-06-10T10:42:53Z</time>
      </trkpt>
      <trkpt lat="48.57978" lon="-4.01212">
        <ele>81.2</ele>
        <time>2020-06-10T10:42:54Z</time>
      </trkpt>
      <trkpt lat="48.57976" lon="-4.01206">
        <ele>81.3</ele>
        <time>2020-06-10T10:42:55Z</time>
      </trkpt>
      <trkpt lat="48.57975" lon="-4.01201">
        <ele>81.4</ele>
        <time>2020-06-10T10:42:56Z</time>
      </trkpt>
      <trkpt lat="48.57973" lon="-4.01195">
        <ele>81.5</ele>
        <time>2020-06-10T10:42:57Z</time>
      </trkpt>
      <trkpt lat="48.57971" lon="-4.01189">
        <ele>81.6</ele>
        <time>2020-06-10T10:42:58Z</time>
      </trkpt>
      <trkpt lat="48.5797" lon="-4.01183">
        <ele>81.7</ele>
        <time>2020-06-10T10:42:59Z</time>
      </trkpt>
      <trkpt lat="48.57968" lon="-4.01177">
        <ele>81.8</ele>
        <time>2020-06-10T10:43:00Z</time>
      </trkpt>
      <trkpt lat="48.57967" lon="-4.01169">
        <ele>81.9</ele>
        <time>2020-06-10T10:43:01Z</time>
      </trkpt>
      <trkpt lat="48.57965" lon="-4.01162">
        <ele>82</ele>
        <time>2020-06-10T10:43:02Z</time>
      </trkpt>
      <trkpt lat="48.57964" lon="-4.01155">
        <ele>82.1</ele>
        <time>2020-06-10T10:43:03Z</time>
      </trkpt>
      <trkpt lat="48.57963" lon="-4.01149">
        <ele>82.2</ele>
        <time>2020-06-10T10:43:04Z</time>
      </trkpt>
      <trkpt lat="48.57962" lon="-4.01143">
        <ele>82.3</ele>
        <time>2020-06-10T10:43:05Z</time>
      </trkpt>
      <trkpt lat="48.57961" lon="-4.01138">
        <ele>82.4</ele>
        <time>2020-06-10T10:43:06Z</time>
      </trkpt>
      <trkpt lat="48.57959" lon="-4.01131">
        <ele>82.5</ele>
        <time>2020-06-10T10:43:07Z</time>
      </trkpt>
      <trkpt lat="48.57957" lon="-4.01124">
        <ele>82.6</ele>
        <time>2020-06-10T10:43:08Z</time>
      </trkpt>
      <trkpt lat="48.57955" lon="-4.01117">
        <ele>82.6</ele>
        <time>2020-06-10T10:43:09Z</time>
      </trkpt>
      <trkpt lat="48.57954" lon="-4.0111">
        <ele>82.7</ele>
        <time>2020-06-10T10:43:10Z</time>
      </trkpt>
      <trkpt lat="48.57952" lon="-4.01104">
        <ele>82.8</ele>
        <time>2020-06-10T10:43:11Z</time>
      </trkpt>
      <trkpt lat="48.57951" lon="-4.01097">
        <ele>82.9</ele>
        <time>2020-06-10T10:43:12Z</time>
      </trkpt>
      <trkpt lat="48.57948" lon="-4.01091">
        <ele>83</ele>
        <time>2020-06-10T10:43:13Z</time>
      </trkpt>
      <trkpt lat="48.57947" lon="-4.01086">
        <ele>83.1</ele>
        <time>2020-06-10T10:43:14Z</time>
      </trkpt>
      <trkpt lat="48.57945" lon="-4.0108">
        <ele>83.3</ele>
        <time>2020-06-10T10:43:15Z</time>
      </trkpt>
      <trkpt lat="48.57943" lon="-4.01074">
        <ele>83.4</ele>
        <time>2020-06-10T10:43:16Z</time>
      </trkpt>
      <trkpt lat="48.57942" lon="-4.01067">
        <ele>83.5</ele>
        <time>2020-06-10T10:43:17Z</time>
      </trkpt>
      <trkpt lat="48.5794" lon="-4.0106">
        <ele>83.6</ele>
        <time>2020-06-10T10:43:18Z</time>
      </trkpt>
      <trkpt lat="48.57939" lon="-4.01053">
        <ele>83.7</ele>
        <time>2020-06-10T10:43:19Z</time>
      </trkpt>
      <trkpt lat="48.57937" lon="-4.01047">
        <ele>83.8</ele>
        <time>2020-06-10T10:43:20Z</time>
      </trkpt>
      <trkpt lat="48.57935" lon="-4.01039">
        <ele>83.8</ele>
        <time>2020-06-10T10:43:21Z</time>
      </trkpt>
      <trkpt lat="48.57933" lon="-4.01034">
        <ele>83.9</ele>
        <time>2020-06-10T10:43:22Z</time>
      </trkpt>
      <trkpt lat="48.57931" lon="-4.01028">
        <ele>84</ele>
        <time>2020-06-10T10:43:23Z</time>
      </trkpt>
      <trkpt lat="48.57929" lon="-4.01023">
        <ele>84.1</ele>
        <time>2020-06-10T10:43:24Z</time>
      </trkpt>
      <trkpt lat="48.57927" lon="-4.01018">
        <ele>84.1</ele>
        <time>2020-06-10T10:43:25Z</time>
      </trkpt>
      <trkpt lat="48.57925" lon="-4.01012">
        <ele>84.2</ele>
        <time>2020-06-10T10:43:26Z</time>
      </trkpt>
      <trkpt lat="48.57924" lon="-4.01008">
        <ele>84.3</ele>
        <time>2020-06-10T10:43:27Z</time>
      </trkpt>
      <trkpt lat="48.57922" lon="-4.01003">
        <ele>84.4</ele>
        <time>2020-06-10T10:43:28Z</time>
      </trkpt>
      <trkpt lat="48.5792" lon="-4.00996">
        <ele>84.4</ele>
        <time>2020-06-10T10:43:29Z</time>
      </trkpt>
      <trkpt lat="48.57918" lon="-4.0099">
        <ele>84.5</ele>
        <time>2020-06-10T10:43:30Z</time>
      </trkpt>
      <trkpt lat="48.57916" lon="-4.00985">
        <ele>84.6</ele>
        <time>2020-06-10T10:43:31Z</time>
      </trkpt>
      <trkpt lat="48.57914" lon="-4.00979">
        <ele>84.8</ele>
        <time>2020-06-10T10:43:32Z</time>
      </trkpt>
      <trkpt lat="48.57913" lon="-4.00974">
        <ele>84.9</ele>
        <time>2020-06-10T10:43:33Z</time>
      </trkpt>
      <trkpt lat="48.57912" lon="-4.00967">
        <ele>85</ele>
        <time>2020-06-10T10:43:34Z</time>
      </trkpt>
      <trkpt lat="48.5791" lon="-4.00963">
        <ele>85.1</ele>
        <time>2020-06-10T10:43:35Z</time>
      </trkpt>
      <trkpt lat="48.57908" lon="-4.00957">
        <ele>85.2</ele>
        <time>2020-06-10T10:43:36Z</time>
      </trkpt>
      <trkpt lat="48.57907" lon="-4.00952">
        <ele>85.3</ele>
        <time>2020-06-10T10:43:37Z</time>
      </trkpt>
      <trkpt lat="48.57906" lon="-4.00946">
        <ele>85.4</ele>
        <time>2020-06-10T10:43:38Z</time>
      </trkpt>
      <trkpt lat="48.57904" lon="-4.0094">
        <ele>85.5</ele>
        <time>2020-06-10T10:43:39Z</time>
      </trkpt>
      <trkpt lat="48.57902" lon="-4.00934">
        <ele>85.6</ele>
        <time>2020-06-10T10:43:40Z</time>
      </trkpt>
      <trkpt lat="48.579" lon="-4.00928">
        <ele>85.7</ele>
        <time>2020-06-10T10:43:41Z</time>
      </trkpt>
      <trkpt lat="48.57899" lon="-4.00923">
        <ele>85.8</ele>
        <time>2020-06-10T10:43:42Z</time>
      </trkpt>
      <trkpt lat="48.57897" lon="-4.00917">
        <ele>85.9</ele>
        <time>2020-06-10T10:43:43Z</time>
      </trkpt>
      <trkpt lat="48.57895" lon="-4.0091">
        <ele>86</ele>
        <time>2020-06-10T10:43:44Z</time>
      </trkpt>
      <trkpt lat="48.57893" lon="-4.00903">
        <ele>86.2</ele>
        <time>2020-06-10T10:43:45Z</time>
      </trkpt>
      <trkpt lat="48.57892" lon="-4.00897">
        <ele>86.3</ele>
        <time>2020-06-10T10:43:46Z</time>
      </trkpt>
      <trkpt lat="48.57889" lon="-4.0089">
        <ele>86.4</ele>
        <time>2020-06-10T10:43:47Z</time>
      </trkpt>
      <trkpt lat="48.57888" lon="-4.00885">
        <ele>86.5</ele>
        <time>2020-06-10T10:43:48Z</time>
      </trkpt>
      <trkpt lat="48.57886" lon="-4.00879">
        <ele>86.5</ele>
        <time>2020-06-10T10:43:49Z</time>
      </trkpt>
      <trkpt lat="48.57885" lon="-4.00873">
        <ele>86.6</ele>
        <time>2020-06-10T10:43:50Z</time>
      </trkpt>
      <trkpt lat="48.57884" lon="-4.00867">
        <ele>86.7</ele>
        <time>2020-06-10T10:43:51Z</time>
      </trkpt>
      <trkpt lat="48.57882" lon="-4.00861">
        <ele>86.8</ele>
        <time>2020-06-10T10:43:52Z</time>
      </trkpt>
      <trkpt lat="48.57881" lon="-4.00857">
        <ele>86.8</ele>
        <time>2020-06-10T10:43:53Z</time>
      </trkpt>
      <trkpt lat="48.5788" lon="-4.0085">
        <ele>86.9</ele>
        <time>2020-06-10T10:43:54Z</time>
      </trkpt>
      <trkpt lat="48.57879" lon="-4.00844">
        <ele>86.9</ele>
        <time>2020-06-10T10:43:55Z</time>
      </trkpt>
      <trkpt lat="48.57877" lon="-4.00837">
        <ele>87</ele>
        <time>2020-06-10T10:43:56Z</time>
      </trkpt>
      <trkpt lat="48.57875" lon="-4.00831">
        <ele>87.1</ele>
        <time>2020-06-10T10:43:57Z</time>
      </trkpt>
      <trkpt lat="48.57873" lon="-4.00826">
        <ele>87.1</ele>
        <time>2020-06-10T10:43:58Z</time>
      </trkpt>
      <trkpt lat="48.57872" lon="-4.0082">
        <ele>87.3</ele>
        <time>2020-06-10T10:43:59Z</time>
      </trkpt>
      <trkpt lat="48.57871" lon="-4.00814">
        <ele>87.3</ele>
        <time>2020-06-10T10:44:00Z</time>
      </trkpt>
      <trkpt lat="48.5787" lon="-4.00809">
        <ele>87.4</ele>
        <time>2020-06-10T10:44:01Z</time>
      </trkpt>
      <trkpt lat="48.57869" lon="-4.00803">
        <ele>87.5</ele>
        <time>2020-06-10T10:44:02Z</time>
      </trkpt>
      <trkpt lat="48.57867" lon="-4.00798">
        <ele>87.6</ele>
        <time>2020-06-10T10:44:03Z</time>
      </trkpt>
      <trkpt lat="48.57866" lon="-4.00792">
        <ele>87.6</ele>
        <time>2020-06-10T10:44:04Z</time>
      </trkpt>
      <trkpt lat="48.57864" lon="-4.00785">
        <ele>87.7</ele>
        <time>2020-06-10T10:44:05Z</time>
      </trkpt>
      <trkpt lat="48.57863" lon="-4.00777">
        <ele>87.8</ele>
        <time>2020-06-10T10:44:06Z</time>
      </trkpt>
      <trkpt lat="48.57861" lon="-4.00771">
        <ele>87.9</ele>
        <time>2020-06-10T10:44:07Z</time>
      </trkpt>
      <trkpt lat="48.5786" lon="-4.00764">
        <ele>88</ele>
        <time>2020-06-10T10:44:08Z</time>
      </trkpt>
      <trkpt lat="48.57859" lon="-4.00757">
        <ele>88</ele>
        <time>2020-06-10T10:44:09Z</time>
      </trkpt>
      <trkpt lat="48.57858" lon="-4.00753">
        <ele>88.1</ele>
        <time>2020-06-10T10:44:10Z</time>
      </trkpt>
      <trkpt lat="48.57857" lon="-4.00747">
        <ele>88.1</ele>
        <time>2020-06-10T10:44:11Z</time>
      </trkpt>
      <trkpt lat="48.57856" lon="-4.0074">
        <ele>88.2</ele>
        <time>2020-06-10T10:44:12Z</time>
      </trkpt>
      <trkpt lat="48.57854" lon="-4.00735">
        <ele>88.2</ele>
        <time>2020-06-10T10:44:13Z</time>
      </trkpt>
      <trkpt lat="48.57853" lon="-4.0073">
        <ele>88.3</ele>
        <time>2020-06-10T10:44:14Z</time>
      </trkpt>
      <trkpt lat="48.57852" lon="-4.00724">
        <ele>88.3</ele>
        <time>2020-06-10T10:44:15Z</time>
      </trkpt>
      <trkpt lat="48.5785" lon="-4.00716">
        <ele>88.4</ele>
        <time>2020-06-10T10:44:16Z</time>
      </trkpt>
      <trkpt lat="48.57849" lon="-4.0071">
        <ele>88.5</ele>
        <time>2020-06-10T10:44:17Z</time>
      </trkpt>
      <trkpt lat="48.57848" lon="-4.00703">
        <ele>88.5</ele>
        <time>2020-06-10T10:44:18Z</time>
      </trkpt>
      <trkpt lat="48.57847" lon="-4.00695">
        <ele>88.6</ele>
        <time>2020-06-10T10:44:19Z</time>
      </trkpt>
      <trkpt lat="48.57845" lon="-4.00687">
        <ele>88.7</ele>
        <time>2020-06-10T10:44:20Z</time>
      </trkpt>
      <trkpt lat="48.57843" lon="-4.00679">
        <ele>88.7</ele>
        <time>2020-06-10T10:44:21Z</time>
      </trkpt>
      <trkpt lat="48.57842" lon="-4.0067">
        <ele>88.8</ele>
        <time>2020-06-10T10:44:22Z</time>
      </trkpt>
      <trkpt lat="48.5784" lon="-4.00661">
        <ele>88.9</ele>
        <time>2020-06-10T10:44:23Z</time>
      </trkpt>
      <trkpt lat="48.57838" lon="-4.00651">
        <ele>89</ele>
        <time>2020-06-10T10:44:24Z</time>
      </trkpt>
      <trkpt lat="48.57837" lon="-4.00643">
        <ele>89.1</ele>
        <time>2020-06-10T10:44:25Z</time>
      </trkpt>
      <trkpt lat="48.57836" lon="-4.00634">
        <ele>89.1</ele>
        <time>2020-06-10T10:44:26Z</time>
      </trkpt>
      <trkpt lat="48.57834" lon="-4.00624">
        <ele>89.1</ele>
        <time>2020-06-10T10:44:27Z</time>
      </trkpt>
      <trkpt lat="48.57833" lon="-4.00615">
        <ele>89.1</ele>
        <time>2020-06-10T10:44:28Z</time>
      </trkpt>
      <trkpt lat="48.57831" lon="-4.00606">
        <ele>89.1</ele>
        <time>2020-06-10T10:44:29Z</time>
      </trkpt>
      <trkpt lat="48.57829" lon="-4.00596">
        <ele>89.1</ele>
        <time>2020-06-10T10:44:30Z</time>
      </trkpt>
      <trkpt lat="48.57828" lon="-4.00587">
        <ele>89.1</ele>
        <time>2020-06-10T10:44:31Z</time>
      </trkpt>
      <trkpt lat="48.57827" lon="-4.00578">
        <ele>89.2</ele>
        <time>2020-06-10T10:44:32Z</time>
      </trkpt>
      <trkpt lat="48.57825" lon="-4.00569">
        <ele>89.2</ele>
        <time>2020-06-10T10:44:33Z</time>
      </trkpt>
      <trkpt lat="48.57824" lon="-4.00562">
        <ele>89.3</ele>
        <time>2020-06-10T10:44:34Z</time>
      </trkpt>
      <trkpt lat="48.57822" lon="-4.00554">
        <ele>89.3</ele>
        <time>2020-06-10T10:44:35Z</time>
      </trkpt>
      <trkpt lat="48.5782" lon="-4.00546">
        <ele>89.3</ele>
        <time>2020-06-10T10:44:36Z</time>
      </trkpt>
      <trkpt lat="48.57819" lon="-4.00538">
        <ele>89.4</ele>
        <time>2020-06-10T10:44:37Z</time>
      </trkpt>
      <trkpt lat="48.57818" lon="-4.00528">
        <ele>89.4</ele>
        <time>2020-06-10T10:44:38Z</time>
      </trkpt>
      <trkpt lat="48.57817" lon="-4.00518">
        <ele>89.5</ele>
        <time>2020-06-10T10:44:39Z</time>
      </trkpt>
      <trkpt lat="48.57815" lon="-4.0051">
        <ele>89.6</ele>
        <time>2020-06-10T10:44:40Z</time>
      </trkpt>
      <trkpt lat="48.57814" lon="-4.00501">
        <ele>89.6</ele>
        <time>2020-06-10T10:44:41Z</time>
      </trkpt>
      <trkpt lat="48.57813" lon="-4.00492">
        <ele>89.7</ele>
        <time>2020-06-10T10:44:42Z</time>
      </trkpt>
      <trkpt lat="48.57811" lon="-4.00485">
        <ele>89.8</ele>
        <time>2020-06-10T10:44:43Z</time>
      </trkpt>
      <trkpt lat="48.5781" lon="-4.00476">
        <ele>89.9</ele>
        <time>2020-06-10T10:44:44Z</time>
      </trkpt>
      <trkpt lat="48.57808" lon="-4.00467">
        <ele>90</ele>
        <time>2020-06-10T10:44:45Z</time>
      </trkpt>
      <trkpt lat="48.57807" lon="-4.00459">
        <ele>90</ele>
        <time>2020-06-10T10:44:46Z</time>
      </trkpt>
      <trkpt lat="48.57806" lon="-4.00451">
        <ele>90.1</ele>
        <time>2020-06-10T10:44:47Z</time>
      </trkpt>
      <trkpt lat="48.57804" lon="-4.00443">
        <ele>90.2</ele>
        <time>2020-06-10T10:44:48Z</time>
      </trkpt>
      <trkpt lat="48.57803" lon="-4.00435">
        <ele>90.2</ele>
        <time>2020-06-10T10:44:49Z</time>
      </trkpt>
      <trkpt lat="48.57801" lon="-4.00425">
        <ele>90.3</ele>
        <time>2020-06-10T10:44:50Z</time>
      </trkpt>
      <trkpt lat="48.578" lon="-4.00417">
        <ele>90.4</ele>
        <time>2020-06-10T10:44:51Z</time>
      </trkpt>
      <trkpt lat="48.57799" lon="-4.00409">
        <ele>90.4</ele>
        <time>2020-06-10T10:44:52Z</time>
      </trkpt>
      <trkpt lat="48.57797" lon="-4.00401">
        <ele>90.5</ele>
        <time>2020-06-10T10:44:53Z</time>
      </trkpt>
      <trkpt lat="48.57796" lon="-4.00392">
        <ele>90.6</ele>
        <time>2020-06-10T10:44:54Z</time>
      </trkpt>
      <trkpt lat="48.57794" lon="-4.00384">
        <ele>90.6</ele>
        <time>2020-06-10T10:44:55Z</time>
      </trkpt>
      <trkpt lat="48.57794" lon="-4.00374">
        <ele>90.7</ele>
        <time>2020-06-10T10:44:56Z</time>
      </trkpt>
      <trkpt lat="48.57793" lon="-4.00365">
        <ele>90.8</ele>
        <time>2020-06-10T10:44:57Z</time>
      </trkpt>
      <trkpt lat="48.57792" lon="-4.00355">
        <ele>90.9</ele>
        <time>2020-06-10T10:44:58Z</time>
      </trkpt>
      <trkpt lat="48.5779" lon="-4.00345">
        <ele>91</ele>
        <time>2020-06-10T10:44:59Z</time>
      </trkpt>
      <trkpt lat="48.57789" lon="-4.00337">
        <ele>91.1</ele>
        <time>2020-06-10T10:45:00Z</time>
      </trkpt>
      <trkpt lat="48.57787" lon="-4.00329">
        <ele>91.1</ele>
        <time>2020-06-10T10:45:01Z</time>
      </trkpt>
      <trkpt lat="48.57786" lon="-4.00319">
        <ele>91.2</ele>
        <time>2020-06-10T10:45:02Z</time>
      </trkpt>
      <trkpt lat="48.57784" lon="-4.00311">
        <ele>91.2</ele>
        <time>2020-06-10T10:45:03Z</time>
      </trkpt>
      <trkpt lat="48.57783" lon="-4.00302">
        <ele>91.2</ele>
        <time>2020-06-10T10:45:04Z</time>
      </trkpt>
      <trkpt lat="48.57782" lon="-4.00293">
        <ele>91.3</ele>
        <time>2020-06-10T10:45:05Z</time>
      </trkpt>
      <trkpt lat="48.5778" lon="-4.00284">
        <ele>91.4</ele>
        <time>2020-06-10T10:45:06Z</time>
      </trkpt>
      <trkpt lat="48.57779" lon="-4.00276">
        <ele>91.4</ele>
        <time>2020-06-10T10:45:07Z</time>
      </trkpt>
      <trkpt lat="48.57778" lon="-4.00268">
        <ele>91.5</ele>
        <time>2020-06-10T10:45:08Z</time>
      </trkpt>
      <trkpt lat="48.57777" lon="-4.00261">
        <ele>91.6</ele>
        <time>2020-06-10T10:45:09Z</time>
      </trkpt>
      <trkpt lat="48.57776" lon="-4.00253">
        <ele>91.7</ele>
        <time>2020-06-10T10:45:10Z</time>
      </trkpt>
      <trkpt lat="48.57775" lon="-4.00244">
        <ele>91.8</ele>
        <time>2020-06-10T10:45:11Z</time>
      </trkpt>
      <trkpt lat="48.57773" lon="-4.00235">
        <ele>91.9</ele>
        <time>2020-06-10T10:45:12Z</time>
      </trkpt>
      <trkpt lat="48.57773" lon="-4.00225">
        <ele>92</ele>
        <time>2020-06-10T10:45:13Z</time>
      </trkpt>
      <trkpt lat="48.57772" lon="-4.00216">
        <ele>92</ele>
        <time>2020-06-10T10:45:14Z</time>
      </trkpt>
      <trkpt lat="48.57771" lon="-4.00211">
        <ele>92.1</ele>
        <time>2020-06-10T10:45:15Z</time>
      </trkpt>
      <trkpt lat="48.5777" lon="-4.00203">
        <ele>92.1</ele>
        <time>2020-06-10T10:45:16Z</time>
      </trkpt>
      <trkpt lat="48.57769" lon="-4.00197">
        <ele>92.1</ele>
        <time>2020-06-10T10:45:17Z</time>
      </trkpt>
      <trkpt lat="48.57769" lon="-4.00189">
        <ele>92.2</ele>
        <time>2020-06-10T10:45:18Z</time>
      </trkpt>
      <trkpt lat="48.57768" lon="-4.00182">
        <ele>92.3</ele>
        <time>2020-06-10T10:45:19Z</time>
      </trkpt>
      <trkpt lat="48.57767" lon="-4.00175">
        <ele>92.3</ele>
        <time>2020-06-10T10:45:20Z</time>
      </trkpt>
      <trkpt lat="48.57766" lon="-4.0017">
        <ele>92.4</ele>
        <time>2020-06-10T10:45:21Z</time>
      </trkpt>
      <trkpt lat="48.57765" lon="-4.00164">
        <ele>92.4</ele>
        <time>2020-06-10T10:45:22Z</time>
      </trkpt>
      <trkpt lat="48.57764" lon="-4.00157">
        <ele>92.5</ele>
        <time>2020-06-10T10:45:23Z</time>
      </trkpt>
      <trkpt lat="48.57763" lon="-4.00151">
        <ele>92.5</ele>
        <time>2020-06-10T10:45:24Z</time>
      </trkpt>
      <trkpt lat="48.57762" lon="-4.00144">
        <ele>92.6</ele>
        <time>2020-06-10T10:45:25Z</time>
      </trkpt>
      <trkpt lat="48.57761" lon="-4.00138">
        <ele>92.6</ele>
        <time>2020-06-10T10:45:26Z</time>
      </trkpt>
      <trkpt lat="48.5776" lon="-4.00131">
        <ele>92.6</ele>
        <time>2020-06-10T10:45:27Z</time>
      </trkpt>
      <trkpt lat="48.57759" lon="-4.00124">
        <ele>92.7</ele>
        <time>2020-06-10T10:45:28Z</time>
      </trkpt>
      <trkpt lat="48.57758" lon="-4.00115">
        <ele>92.8</ele>
        <time>2020-06-10T10:45:29Z</time>
      </trkpt>
      <trkpt lat="48.57757" lon="-4.00108">
        <ele>92.8</ele>
        <time>2020-06-10T10:45:30Z</time>
      </trkpt>
      <trkpt lat="48.57756" lon="-4.00099">
        <ele>92.9</ele>
        <time>2020-06-10T10:45:31Z</time>
      </trkpt>
      <trkpt lat="48.57755" lon="-4.00092">
        <ele>92.9</ele>
        <time>2020-06-10T10:45:32Z</time>
      </trkpt>
      <trkpt lat="48.57754" lon="-4.00084">
        <ele>93</ele>
        <time>2020-06-10T10:45:33Z</time>
      </trkpt>
      <trkpt lat="48.57754" lon="-4.00077">
        <ele>93.1</ele>
        <time>2020-06-10T10:45:34Z</time>
      </trkpt>
      <trkpt lat="48.57753" lon="-4.0007">
        <ele>93.2</ele>
        <time>2020-06-10T10:45:35Z</time>
      </trkpt>
      <trkpt lat="48.57752" lon="-4.00062">
        <ele>93.2</ele>
        <time>2020-06-10T10:45:36Z</time>
      </trkpt>
      <trkpt lat="48.57752" lon="-4.00054">
        <ele>93.3</ele>
        <time>2020-06-10T10:45:37Z</time>
      </trkpt>
      <trkpt lat="48.57751" lon="-4.00047">
        <ele>93.3</ele>
        <time>2020-06-10T10:45:38Z</time>
      </trkpt>
      <trkpt lat="48.57751" lon="-4.0004">
        <ele>93.4</ele>
        <time>2020-06-10T10:45:39Z</time>
      </trkpt>
      <trkpt lat="48.5775" lon="-4.00033">
        <ele>93.4</ele>
        <time>2020-06-10T10:45:40Z</time>
      </trkpt>
      <trkpt lat="48.5775" lon="-4.00025">
        <ele>93.5</ele>
        <time>2020-06-10T10:45:41Z</time>
      </trkpt>
      <trkpt lat="48.5775" lon="-4.00016">
        <ele>93.6</ele>
        <time>2020-06-10T10:45:42Z</time>
      </trkpt>
      <trkpt lat="48.57749" lon="-4.00009">
        <ele>93.6</ele>
        <time>2020-06-10T10:45:43Z</time>
      </trkpt>
      <trkpt lat="48.57749" lon="-4.00001">
        <ele>93.7</ele>
        <time>2020-06-10T10:45:44Z</time>
      </trkpt>
      <trkpt lat="48.57749" lon="-3.99994">
        <ele>93.8</ele>
        <time>2020-06-10T10:45:45Z</time>
      </trkpt>
      <trkpt lat="48.57748" lon="-3.99988">
        <ele>93.8</ele>
        <time>2020-06-10T10:45:46Z</time>
      </trkpt>
      <trkpt lat="48.57748" lon="-3.99982">
        <ele>93.8</ele>
        <time>2020-06-10T10:45:47Z</time>
      </trkpt>
      <trkpt lat="48.57747" lon="-3.99975">
        <ele>93.7</ele>
        <time>2020-06-10T10:45:48Z</time>
      </trkpt>
      <trkpt lat="48.57747" lon="-3.99967">
        <ele>93.7</ele>
        <time>2020-06-10T10:45:49Z</time>
      </trkpt>
      <trkpt lat="48.57746" lon="-3.99959">
        <ele>93.7</ele>
        <time>2020-06-10T10:45:50Z</time>
      </trkpt>
      <trkpt lat="48.57745" lon="-3.99951">
        <ele>93.7</ele>
        <time>2020-06-10T10:45:51Z</time>
      </trkpt>
      <trkpt lat="48.57745" lon="-3.99944">
        <ele>93.7</ele>
        <time>2020-06-10T10:45:52Z</time>
      </trkpt>
      <trkpt lat="48.57744" lon="-3.99936">
        <ele>93.8</ele>
        <time>2020-06-10T10:45:53Z</time>
      </trkpt>
      <trkpt lat="48.57743" lon="-3.99928">
        <ele>93.8</ele>
        <time>2020-06-10T10:45:54Z</time>
      </trkpt>
      <trkpt lat="48.57742" lon="-3.9992">
        <ele>93.9</ele>
        <time>2020-06-10T10:45:55Z</time>
      </trkpt>
      <trkpt lat="48.57742" lon="-3.9991">
        <ele>94</ele>
        <time>2020-06-10T10:45:56Z</time>
      </trkpt>
      <trkpt lat="48.57743" lon="-3.99903">
        <ele>94</ele>
        <time>2020-06-10T10:45:57Z</time>
      </trkpt>
      <trkpt lat="48.57742" lon="-3.99895">
        <ele>94.1</ele>
        <time>2020-06-10T10:45:58Z</time>
      </trkpt>
      <trkpt lat="48.57742" lon="-3.99888">
        <ele>94.1</ele>
        <time>2020-06-10T10:45:59Z</time>
      </trkpt>
      <trkpt lat="48.57742" lon="-3.99881">
        <ele>94.2</ele>
        <time>2020-06-10T10:46:00Z</time>
      </trkpt>
      <trkpt lat="48.57741" lon="-3.99875">
        <ele>94.2</ele>
        <time>2020-06-10T10:46:01Z</time>
      </trkpt>
      <trkpt lat="48.57741" lon="-3.99868">
        <ele>94.2</ele>
        <time>2020-06-10T10:46:02Z</time>
      </trkpt>
      <trkpt lat="48.5774" lon="-3.99862">
        <ele>94.3</ele>
        <time>2020-06-10T10:46:03Z</time>
      </trkpt>
      <trkpt lat="48.5774" lon="-3.99854">
        <ele>94.3</ele>
        <time>2020-06-10T10:46:04Z</time>
      </trkpt>
      <trkpt lat="48.57739" lon="-3.99847">
        <ele>94.4</ele>
        <time>2020-06-10T10:46:05Z</time>
      </trkpt>
      <trkpt lat="48.57739" lon="-3.99839">
        <ele>94.4</ele>
        <time>2020-06-10T10:46:06Z</time>
      </trkpt>
      <trkpt lat="48.57739" lon="-3.99831">
        <ele>94.5</ele>
        <time>2020-06-10T10:46:07Z</time>
      </trkpt>
      <trkpt lat="48.57738" lon="-3.99824">
        <ele>94.5</ele>
        <time>2020-06-10T10:46:08Z</time>
      </trkpt>
      <trkpt lat="48.57738" lon="-3.99816">
        <ele>94.5</ele>
        <time>2020-06-10T10:46:09Z</time>
      </trkpt>
      <trkpt lat="48.57738" lon="-3.99808">
        <ele>94.5</ele>
        <time>2020-06-10T10:46:10Z</time>
      </trkpt>
      <trkpt lat="48.57738" lon="-3.99799">
        <ele>94.5</ele>
        <time>2020-06-10T10:46:11Z</time>
      </trkpt>
      <trkpt lat="48.57737" lon="-3.99792">
        <ele>94.5</ele>
        <time>2020-06-10T10:46:12Z</time>
      </trkpt>
      <trkpt lat="48.57738" lon="-3.99784">
        <ele>94.5</ele>
        <time>2020-06-10T10:46:13Z</time>
      </trkpt>
      <trkpt lat="48.57738" lon="-3.99776">
        <ele>94.5</ele>
        <time>2020-06-10T10:46:14Z</time>
      </trkpt>
      <trkpt lat="48.57738" lon="-3.99768">
        <ele>94.5</ele>
        <time>2020-06-10T10:46:15Z</time>
      </trkpt>
      <trkpt lat="48.57739" lon="-3.99761">
        <ele>94.5</ele>
        <time>2020-06-10T10:46:16Z</time>
      </trkpt>
      <trkpt lat="48.57739" lon="-3.99756">
        <ele>94.5</ele>
        <time>2020-06-10T10:46:17Z</time>
      </trkpt>
      <trkpt lat="48.57739" lon="-3.99747">
        <ele>94.5</ele>
        <time>2020-06-10T10:46:18Z</time>
      </trkpt>
      <trkpt lat="48.5774" lon="-3.9974">
        <ele>94.5</ele>
        <time>2020-06-10T10:46:19Z</time>
      </trkpt>
      <trkpt lat="48.5774" lon="-3.99733">
        <ele>94.5</ele>
        <time>2020-06-10T10:46:20Z</time>
      </trkpt>
      <trkpt lat="48.5774" lon="-3.99727">
        <ele>94.5</ele>
        <time>2020-06-10T10:46:21Z</time>
      </trkpt>
      <trkpt lat="48.57741" lon="-3.9972">
        <ele>94.5</ele>
        <time>2020-06-10T10:46:22Z</time>
      </trkpt>
      <trkpt lat="48.5774" lon="-3.99713">
        <ele>94.5</ele>
        <time>2020-06-10T10:46:23Z</time>
      </trkpt>
      <trkpt lat="48.57741" lon="-3.99705">
        <ele>94.5</ele>
        <time>2020-06-10T10:46:24Z</time>
      </trkpt>
      <trkpt lat="48.5774" lon="-3.99699">
        <ele>94.5</ele>
        <time>2020-06-10T10:46:25Z</time>
      </trkpt>
      <trkpt lat="48.5774" lon="-3.99692">
        <ele>94.5</ele>
        <time>2020-06-10T10:46:26Z</time>
      </trkpt>
      <trkpt lat="48.5774" lon="-3.99685">
        <ele>94.6</ele>
        <time>2020-06-10T10:46:27Z</time>
      </trkpt>
      <trkpt lat="48.57741" lon="-3.99678">
        <ele>94.6</ele>
        <time>2020-06-10T10:46:28Z</time>
      </trkpt>
      <trkpt lat="48.5774" lon="-3.99671">
        <ele>94.6</ele>
        <time>2020-06-10T10:46:29Z</time>
      </trkpt>
      <trkpt lat="48.57741" lon="-3.99664">
        <ele>94.5</ele>
        <time>2020-06-10T10:46:30Z</time>
      </trkpt>
      <trkpt lat="48.57742" lon="-3.99657">
        <ele>94.5</ele>
        <time>2020-06-10T10:46:31Z</time>
      </trkpt>
      <trkpt lat="48.57742" lon="-3.99651">
        <ele>94.5</ele>
        <time>2020-06-10T10:46:32Z</time>
      </trkpt>
      <trkpt lat="48.57742" lon="-3.99644">
        <ele>94.5</ele>
        <time>2020-06-10T10:46:33Z</time>
      </trkpt>
      <trkpt lat="48.57743" lon="-3.99638">
        <ele>94.4</ele>
        <time>2020-06-10T10:46:34Z</time>
      </trkpt>
      <trkpt lat="48.57742" lon="-3.99632">
        <ele>94.4</ele>
        <time>2020-06-10T10:46:35Z</time>
      </trkpt>
      <trkpt lat="48.57742" lon="-3.99626">
        <ele>94.4</ele>
        <time>2020-06-10T10:46:36Z</time>
      </trkpt>
      <trkpt lat="48.57742" lon="-3.9962">
        <ele>94.4</ele>
        <time>2020-06-10T10:46:37Z</time>
      </trkpt>
      <trkpt lat="48.57743" lon="-3.99613">
        <ele>94.3</ele>
        <time>2020-06-10T10:46:38Z</time>
      </trkpt>
      <trkpt lat="48.57743" lon="-3.99606">
        <ele>94.3</ele>
        <time>2020-06-10T10:46:39Z</time>
      </trkpt>
      <trkpt lat="48.57743" lon="-3.99598">
        <ele>94.3</ele>
        <time>2020-06-10T10:46:40Z</time>
      </trkpt>
      <trkpt lat="48.57744" lon="-3.9959">
        <ele>94.3</ele>
        <time>2020-06-10T10:46:41Z</time>
      </trkpt>
      <trkpt lat="48.57744" lon="-3.99582">
        <ele>94.3</ele>
        <time>2020-06-10T10:46:42Z</time>
      </trkpt>
      <trkpt lat="48.57744" lon="-3.99574">
        <ele>94.3</ele>
        <time>2020-06-10T10:46:43Z</time>
      </trkpt>
      <trkpt lat="48.57744" lon="-3.99566">
        <ele>94.3</ele>
        <time>2020-06-10T10:46:44Z</time>
      </trkpt>
      <trkpt lat="48.57744" lon="-3.99558">
        <ele>94.2</ele>
        <time>2020-06-10T10:46:45Z</time>
      </trkpt>
      <trkpt lat="48.57744" lon="-3.99551">
        <ele>94.2</ele>
        <time>2020-06-10T10:46:46Z</time>
      </trkpt>
      <trkpt lat="48.57745" lon="-3.99543">
        <ele>94.2</ele>
        <time>2020-06-10T10:46:47Z</time>
      </trkpt>
      <trkpt lat="48.57745" lon="-3.99535">
        <ele>94.1</ele>
        <time>2020-06-10T10:46:48Z</time>
      </trkpt>
      <trkpt lat="48.57745" lon="-3.99527">
        <ele>94.1</ele>
        <time>2020-06-10T10:46:49Z</time>
      </trkpt>
      <trkpt lat="48.57745" lon="-3.99519">
        <ele>94.1</ele>
        <time>2020-06-10T10:46:50Z</time>
      </trkpt>
      <trkpt lat="48.57745" lon="-3.99511">
        <ele>94</ele>
        <time>2020-06-10T10:46:51Z</time>
      </trkpt>
      <trkpt lat="48.57745" lon="-3.99504">
        <ele>94</ele>
        <time>2020-06-10T10:46:52Z</time>
      </trkpt>
      <trkpt lat="48.57746" lon="-3.99496">
        <ele>93.9</ele>
        <time>2020-06-10T10:46:53Z</time>
      </trkpt>
      <trkpt lat="48.57746" lon="-3.99489">
        <ele>93.9</ele>
        <time>2020-06-10T10:46:54Z</time>
      </trkpt>
      <trkpt lat="48.57747" lon="-3.99481">
        <ele>93.8</ele>
        <time>2020-06-10T10:46:55Z</time>
      </trkpt>
      <trkpt lat="48.57747" lon="-3.99473">
        <ele>93.8</ele>
        <time>2020-06-10T10:46:56Z</time>
      </trkpt>
      <trkpt lat="48.57747" lon="-3.99465">
        <ele>93.7</ele>
        <time>2020-06-10T10:46:57Z</time>
      </trkpt>
      <trkpt lat="48.57747" lon="-3.99457">
        <ele>93.5</ele>
        <time>2020-06-10T10:46:58Z</time>
      </trkpt>
      <trkpt lat="48.57747" lon="-3.99449">
        <ele>93.4</ele>
        <time>2020-06-10T10:46:59Z</time>
      </trkpt>
      <trkpt lat="48.57747" lon="-3.9944">
        <ele>93.3</ele>
        <time>2020-06-10T10:47:00Z</time>
      </trkpt>
      <trkpt lat="48.57747" lon="-3.99432">
        <ele>93.2</ele>
        <time>2020-06-10T10:47:01Z</time>
      </trkpt>
      <trkpt lat="48.57747" lon="-3.99424">
        <ele>93.2</ele>
        <time>2020-06-10T10:47:02Z</time>
      </trkpt>
      <trkpt lat="48.57748" lon="-3.99417">
        <ele>93.1</ele>
        <time>2020-06-10T10:47:03Z</time>
      </trkpt>
      <trkpt lat="48.57747" lon="-3.9941">
        <ele>93.1</ele>
        <time>2020-06-10T10:47:04Z</time>
      </trkpt>
      <trkpt lat="48.57746" lon="-3.99404">
        <ele>93</ele>
        <time>2020-06-10T10:47:05Z</time>
      </trkpt>
      <trkpt lat="48.57744" lon="-3.99399">
        <ele>93</ele>
        <time>2020-06-10T10:47:06Z</time>
      </trkpt>
      <trkpt lat="48.57742" lon="-3.99395">
        <ele>92.9</ele>
        <time>2020-06-10T10:47:07Z</time>
      </trkpt>
      <trkpt lat="48.57741" lon="-3.99391">
        <ele>92.8</ele>
        <time>2020-06-10T10:47:08Z</time>
      </trkpt>
      <trkpt lat="48.5774" lon="-3.99386">
        <ele>92.7</ele>
        <time>2020-06-10T10:47:09Z</time>
      </trkpt>
      <trkpt lat="48.5774" lon="-3.99381">
        <ele>92.6</ele>
        <time>2020-06-10T10:47:10Z</time>
      </trkpt>
      <trkpt lat="48.57741" lon="-3.99376">
        <ele>92.5</ele>
        <time>2020-06-10T10:47:11Z</time>
      </trkpt>
      <trkpt lat="48.57743" lon="-3.99371">
        <ele>92.4</ele>
        <time>2020-06-10T10:47:12Z</time>
      </trkpt>
      <trkpt lat="48.57743" lon="-3.9937">
        <ele>92.3</ele>
        <time>2020-06-10T10:47:13Z</time>
      </trkpt>
      <trkpt lat="48.57744" lon="-3.9937">
        <ele>92.3</ele>
        <time>2020-06-10T10:47:14Z</time>
      </trkpt>
      <trkpt lat="48.57744" lon="-3.9937">
        <ele>92.3</ele>
        <time>2020-06-10T10:47:15Z</time>
      </trkpt>
      <trkpt lat="48.57744" lon="-3.9937">
        <ele>92.3</ele>
        <time>2020-06-10T10:47:16Z</time>
      </trkpt>
      <trkpt lat="48.57743" lon="-3.9937">
        <ele>92.3</ele>
        <time>2020-06-10T10:47:17Z</time>
      </trkpt>
      <trkpt lat="48.57743" lon="-3.9937">
        <ele>92.2</ele>
        <time>2020-06-10T10:47:18Z</time>
      </trkpt>
      <trkpt lat="48.57742" lon="-3.99369">
        <ele>92.2</ele>
        <time>2020-06-10T10:47:19Z</time>
      </trkpt>
      <trkpt lat="48.57742" lon="-3.99369">
        <ele>92.2</ele>
        <time>2020-06-10T10:47:20Z</time>
      </trkpt>
      <trkpt lat="48.57741" lon="-3.99368">
        <ele>92.2</ele>
        <time>2020-06-10T10:47:21Z</time>
      </trkpt>
      <trkpt lat="48.57741" lon="-3.99369">
        <ele>92.2</ele>
        <time>2020-06-10T10:47:22Z</time>
      </trkpt>
      <trkpt lat="48.5774" lon="-3.99368">
        <ele>92.2</ele>
        <time>2020-06-10T10:47:23Z</time>
      </trkpt>
      <trkpt lat="48.57744" lon="-3.99364">
        <ele>92</ele>
        <time>2020-06-10T10:47:24Z</time>
      </trkpt>
      <trkpt lat="48.57746" lon="-3.99359">
        <ele>91.9</ele>
        <time>2020-06-10T10:48:16Z</time>
      </trkpt>
      <trkpt lat="48.57748" lon="-3.99354">
        <ele>91.8</ele>
        <time>2020-06-10T10:48:17Z</time>
      </trkpt>
      <trkpt lat="48.57748" lon="-3.99349">
        <ele>91.7</ele>
        <time>2020-06-10T10:48:18Z</time>
      </trkpt>
      <trkpt lat="48.57748" lon="-3.99344">
        <ele>91.6</ele>
        <time>2020-06-10T10:48:19Z</time>
      </trkpt>
      <trkpt lat="48.57747" lon="-3.99338">
        <ele>91.5</ele>
        <time>2020-06-10T10:48:20Z</time>
      </trkpt>
      <trkpt lat="48.57747" lon="-3.99331">
        <ele>91.4</ele>
        <time>2020-06-10T10:48:21Z</time>
      </trkpt>
      <trkpt lat="48.57747" lon="-3.99325">
        <ele>91.3</ele>
        <time>2020-06-10T10:48:22Z</time>
      </trkpt>
      <trkpt lat="48.57746" lon="-3.99318">
        <ele>91.1</ele>
        <time>2020-06-10T10:48:23Z</time>
      </trkpt>
      <trkpt lat="48.57746" lon="-3.9931">
        <ele>90.9</ele>
        <time>2020-06-10T10:48:24Z</time>
      </trkpt>
      <trkpt lat="48.57746" lon="-3.99302">
        <ele>90.7</ele>
        <time>2020-06-10T10:48:25Z</time>
      </trkpt>
      <trkpt lat="48.57746" lon="-3.99293">
        <ele>90.5</ele>
        <time>2020-06-10T10:48:26Z</time>
      </trkpt>
      <trkpt lat="48.57746" lon="-3.99285">
        <ele>90.3</ele>
        <time>2020-06-10T10:48:27Z</time>
      </trkpt>
      <trkpt lat="48.57747" lon="-3.99276">
        <ele>90.1</ele>
        <time>2020-06-10T10:48:28Z</time>
      </trkpt>
      <trkpt lat="48.57748" lon="-3.99267">
        <ele>89.9</ele>
        <time>2020-06-10T10:48:29Z</time>
      </trkpt>
      <trkpt lat="48.57748" lon="-3.99257">
        <ele>89.6</ele>
        <time>2020-06-10T10:48:30Z</time>
      </trkpt>
      <trkpt lat="48.57749" lon="-3.99248">
        <ele>89.4</ele>
        <time>2020-06-10T10:48:31Z</time>
      </trkpt>
      <trkpt lat="48.57749" lon="-3.99238">
        <ele>89.1</ele>
        <time>2020-06-10T10:48:32Z</time>
      </trkpt>
      <trkpt lat="48.5775" lon="-3.99228">
        <ele>88.9</ele>
        <time>2020-06-10T10:48:33Z</time>
      </trkpt>
      <trkpt lat="48.5775" lon="-3.99217">
        <ele>88.6</ele>
        <time>2020-06-10T10:48:34Z</time>
      </trkpt>
      <trkpt lat="48.57749" lon="-3.99206">
        <ele>88.3</ele>
        <time>2020-06-10T10:48:35Z</time>
      </trkpt>
      <trkpt lat="48.57749" lon="-3.99194">
        <ele>87.9</ele>
        <time>2020-06-10T10:48:36Z</time>
      </trkpt>
      <trkpt lat="48.57748" lon="-3.99183">
        <ele>87.6</ele>
        <time>2020-06-10T10:48:37Z</time>
      </trkpt>
      <trkpt lat="48.57748" lon="-3.99171">
        <ele>87.3</ele>
        <time>2020-06-10T10:48:38Z</time>
      </trkpt>
      <trkpt lat="48.57747" lon="-3.99159">
        <ele>86.9</ele>
        <time>2020-06-10T10:48:39Z</time>
      </trkpt>
      <trkpt lat="48.57746" lon="-3.99146">
        <ele>86.6</ele>
        <time>2020-06-10T10:48:40Z</time>
      </trkpt>
      <trkpt lat="48.57745" lon="-3.99134">
        <ele>86.2</ele>
        <time>2020-06-10T10:48:41Z</time>
      </trkpt>
      <trkpt lat="48.57744" lon="-3.99122">
        <ele>85.8</ele>
        <time>2020-06-10T10:48:42Z</time>
      </trkpt>
      <trkpt lat="48.57741" lon="-3.99109">
        <ele>85.3</ele>
        <time>2020-06-10T10:48:43Z</time>
      </trkpt>
      <trkpt lat="48.57739" lon="-3.99096">
        <ele>84.9</ele>
        <time>2020-06-10T10:48:44Z</time>
      </trkpt>
      <trkpt lat="48.57737" lon="-3.99083">
        <ele>84.4</ele>
        <time>2020-06-10T10:48:45Z</time>
      </trkpt>
      <trkpt lat="48.57733" lon="-3.9907">
        <ele>83.9</ele>
        <time>2020-06-10T10:48:46Z</time>
      </trkpt>
      <trkpt lat="48.5773" lon="-3.99057">
        <ele>83.4</ele>
        <time>2020-06-10T10:48:47Z</time>
      </trkpt>
      <trkpt lat="48.57727" lon="-3.99043">
        <ele>82.9</ele>
        <time>2020-06-10T10:48:48Z</time>
      </trkpt>
      <trkpt lat="48.57723" lon="-3.99029">
        <ele>82.3</ele>
        <time>2020-06-10T10:48:49Z</time>
      </trkpt>
      <trkpt lat="48.57719" lon="-3.99015">
        <ele>81.6</ele>
        <time>2020-06-10T10:48:50Z</time>
      </trkpt>
      <trkpt lat="48.57714" lon="-3.99">
        <ele>81</ele>
        <time>2020-06-10T10:48:51Z</time>
      </trkpt>
      <trkpt lat="48.5771" lon="-3.98984">
        <ele>80.4</ele>
        <time>2020-06-10T10:48:52Z</time>
      </trkpt>
      <trkpt lat="48.57706" lon="-3.98969">
        <ele>79.8</ele>
        <time>2020-06-10T10:48:53Z</time>
      </trkpt>
      <trkpt lat="48.57701" lon="-3.98953">
        <ele>79.2</ele>
        <time>2020-06-10T10:48:54Z</time>
      </trkpt>
      <trkpt lat="48.57697" lon="-3.98937">
        <ele>78.5</ele>
        <time>2020-06-10T10:48:55Z</time>
      </trkpt>
      <trkpt lat="48.57693" lon="-3.98921">
        <ele>77.8</ele>
        <time>2020-06-10T10:48:56Z</time>
      </trkpt>
      <trkpt lat="48.57688" lon="-3.98904">
        <ele>77.1</ele>
        <time>2020-06-10T10:48:57Z</time>
      </trkpt>
      <trkpt lat="48.57683" lon="-3.98888">
        <ele>76.4</ele>
        <time>2020-06-10T10:48:58Z</time>
      </trkpt>
      <trkpt lat="48.57679" lon="-3.98871">
        <ele>75.6</ele>
        <time>2020-06-10T10:48:59Z</time>
      </trkpt>
      <trkpt lat="48.57674" lon="-3.98854">
        <ele>74.8</ele>
        <time>2020-06-10T10:49:00Z</time>
      </trkpt>
      <trkpt lat="48.5767" lon="-3.98837">
        <ele>74</ele>
        <time>2020-06-10T10:49:01Z</time>
      </trkpt>
      <trkpt lat="48.57665" lon="-3.9882">
        <ele>73.3</ele>
        <time>2020-06-10T10:49:02Z</time>
      </trkpt>
      <trkpt lat="48.5766" lon="-3.98803">
        <ele>72.5</ele>
        <time>2020-06-10T10:49:03Z</time>
      </trkpt>
      <trkpt lat="48.57656" lon="-3.98785">
        <ele>71.7</ele>
        <time>2020-06-10T10:49:04Z</time>
      </trkpt>
      <trkpt lat="48.57651" lon="-3.98768">
        <ele>71</ele>
        <time>2020-06-10T10:49:05Z</time>
      </trkpt>
      <trkpt lat="48.57646" lon="-3.98751">
        <ele>70.2</ele>
        <time>2020-06-10T10:49:06Z</time>
      </trkpt>
      <trkpt lat="48.57641" lon="-3.98733">
        <ele>69.3</ele>
        <time>2020-06-10T10:49:07Z</time>
      </trkpt>
      <trkpt lat="48.57637" lon="-3.98715">
        <ele>68.3</ele>
        <time>2020-06-10T10:49:08Z</time>
      </trkpt>
      <trkpt lat="48.57632" lon="-3.98697">
        <ele>67.3</ele>
        <time>2020-06-10T10:49:09Z</time>
      </trkpt>
      <trkpt lat="48.57627" lon="-3.98678">
        <ele>66.3</ele>
        <time>2020-06-10T10:49:10Z</time>
      </trkpt>
      <trkpt lat="48.57622" lon="-3.9866">
        <ele>65.3</ele>
        <time>2020-06-10T10:49:11Z</time>
      </trkpt>
      <trkpt lat="48.57617" lon="-3.98641">
        <ele>64.2</ele>
        <time>2020-06-10T10:49:12Z</time>
      </trkpt>
      <trkpt lat="48.57612" lon="-3.98622">
        <ele>63.1</ele>
        <time>2020-06-10T10:49:13Z</time>
      </trkpt>
      <trkpt lat="48.57607" lon="-3.98602">
        <ele>62.1</ele>
        <time>2020-06-10T10:49:14Z</time>
      </trkpt>
      <trkpt lat="48.57602" lon="-3.98582">
        <ele>61.2</ele>
        <time>2020-06-10T10:49:15Z</time>
      </trkpt>
      <trkpt lat="48.57597" lon="-3.98563">
        <ele>60.3</ele>
        <time>2020-06-10T10:49:16Z</time>
      </trkpt>
      <trkpt lat="48.57592" lon="-3.98544">
        <ele>59.4</ele>
        <time>2020-06-10T10:49:17Z</time>
      </trkpt>
      <trkpt lat="48.57587" lon="-3.98525">
        <ele>58.6</ele>
        <time>2020-06-10T10:49:18Z</time>
      </trkpt>
      <trkpt lat="48.57582" lon="-3.98506">
        <ele>58.1</ele>
        <time>2020-06-10T10:49:19Z</time>
      </trkpt>
      <trkpt lat="48.57577" lon="-3.98488">
        <ele>57.6</ele>
        <time>2020-06-10T10:49:20Z</time>
      </trkpt>
      <trkpt lat="48.57572" lon="-3.98471">
        <ele>57.3</ele>
        <time>2020-06-10T10:49:21Z</time>
      </trkpt>
      <trkpt lat="48.57567" lon="-3.98453">
        <ele>57.2</ele>
        <time>2020-06-10T10:49:22Z</time>
      </trkpt>
      <trkpt lat="48.57563" lon="-3.98436">
        <ele>57.1</ele>
        <time>2020-06-10T10:49:23Z</time>
      </trkpt>
      <trkpt lat="48.57559" lon="-3.9842">
        <ele>57.1</ele>
        <time>2020-06-10T10:49:24Z</time>
      </trkpt>
      <trkpt lat="48.57555" lon="-3.98404">
        <ele>57.3</ele>
        <time>2020-06-10T10:49:25Z</time>
      </trkpt>
      <trkpt lat="48.57551" lon="-3.98389">
        <ele>57.6</ele>
        <time>2020-06-10T10:49:26Z</time>
      </trkpt>
      <trkpt lat="48.57547" lon="-3.98375">
        <ele>57.9</ele>
        <time>2020-06-10T10:49:27Z</time>
      </trkpt>
      <trkpt lat="48.57544" lon="-3.98361">
        <ele>58.3</ele>
        <time>2020-06-10T10:49:28Z</time>
      </trkpt>
      <trkpt lat="48.57541" lon="-3.98348">
        <ele>58.6</ele>
        <time>2020-06-10T10:49:29Z</time>
      </trkpt>
      <trkpt lat="48.57537" lon="-3.98336">
        <ele>59</ele>
        <time>2020-06-10T10:49:30Z</time>
      </trkpt>
      <trkpt lat="48.57535" lon="-3.98324">
        <ele>59.5</ele>
        <time>2020-06-10T10:49:31Z</time>
      </trkpt>
      <trkpt lat="48.57532" lon="-3.98313">
        <ele>60</ele>
        <time>2020-06-10T10:49:32Z</time>
      </trkpt>
      <trkpt lat="48.57531" lon="-3.98302">
        <ele>60.6</ele>
        <time>2020-06-10T10:49:33Z</time>
      </trkpt>
      <trkpt lat="48.5753" lon="-3.98292">
        <ele>61.2</ele>
        <time>2020-06-10T10:49:34Z</time>
      </trkpt>
      <trkpt lat="48.57528" lon="-3.98282">
        <ele>61.8</ele>
        <time>2020-06-10T10:49:35Z</time>
      </trkpt>
      <trkpt lat="48.57528" lon="-3.98273">
        <ele>62.4</ele>
        <time>2020-06-10T10:49:36Z</time>
      </trkpt>
      <trkpt lat="48.57527" lon="-3.98264">
        <ele>63</ele>
        <time>2020-06-10T10:49:37Z</time>
      </trkpt>
      <trkpt lat="48.57527" lon="-3.98256">
        <ele>63.5</ele>
        <time>2020-06-10T10:49:38Z</time>
      </trkpt>
      <trkpt lat="48.57526" lon="-3.98248">
        <ele>64</ele>
        <time>2020-06-10T10:49:39Z</time>
      </trkpt>
      <trkpt lat="48.57526" lon="-3.98241">
        <ele>64.4</ele>
        <time>2020-06-10T10:49:40Z</time>
      </trkpt>
      <trkpt lat="48.57526" lon="-3.98233">
        <ele>64.9</ele>
        <time>2020-06-10T10:49:41Z</time>
      </trkpt>
      <trkpt lat="48.57526" lon="-3.98226">
        <ele>65.3</ele>
        <time>2020-06-10T10:49:42Z</time>
      </trkpt>
      <trkpt lat="48.57526" lon="-3.98219">
        <ele>65.6</ele>
        <time>2020-06-10T10:49:43Z</time>
      </trkpt>
      <trkpt lat="48.57526" lon="-3.98213">
        <ele>66</ele>
        <time>2020-06-10T10:49:44Z</time>
      </trkpt>
      <trkpt lat="48.57527" lon="-3.98207">
        <ele>66.3</ele>
        <time>2020-06-10T10:49:45Z</time>
      </trkpt>
      <trkpt lat="48.57527" lon="-3.98201">
        <ele>66.7</ele>
        <time>2020-06-10T10:49:46Z</time>
      </trkpt>
      <trkpt lat="48.57528" lon="-3.98195">
        <ele>67</ele>
        <time>2020-06-10T10:49:47Z</time>
      </trkpt>
      <trkpt lat="48.57528" lon="-3.98189">
        <ele>67.3</ele>
        <time>2020-06-10T10:49:48Z</time>
      </trkpt>
      <trkpt lat="48.57529" lon="-3.98184">
        <ele>67.6</ele>
        <time>2020-06-10T10:49:49Z</time>
      </trkpt>
      <trkpt lat="48.5753" lon="-3.98178">
        <ele>67.9</ele>
        <time>2020-06-10T10:49:50Z</time>
      </trkpt>
      <trkpt lat="48.57531" lon="-3.98173">
        <ele>68.2</ele>
        <time>2020-06-10T10:49:51Z</time>
      </trkpt>
      <trkpt lat="48.57533" lon="-3.98168">
        <ele>68.5</ele>
        <time>2020-06-10T10:49:52Z</time>
      </trkpt>
      <trkpt lat="48.57534" lon="-3.98163">
        <ele>68.8</ele>
        <time>2020-06-10T10:49:53Z</time>
      </trkpt>
      <trkpt lat="48.57535" lon="-3.98157">
        <ele>69</ele>
        <time>2020-06-10T10:49:54Z</time>
      </trkpt>
      <trkpt lat="48.57536" lon="-3.98152">
        <ele>69.3</ele>
        <time>2020-06-10T10:49:55Z</time>
      </trkpt>
      <trkpt lat="48.57538" lon="-3.98147">
        <ele>69.6</ele>
        <time>2020-06-10T10:49:56Z</time>
      </trkpt>
      <trkpt lat="48.5754" lon="-3.9814">
        <ele>69.9</ele>
        <time>2020-06-10T10:49:57Z</time>
      </trkpt>
      <trkpt lat="48.5754" lon="-3.98137">
        <ele>70.1</ele>
        <time>2020-06-10T10:49:58Z</time>
      </trkpt>
      <trkpt lat="48.57541" lon="-3.98132">
        <ele>70.4</ele>
        <time>2020-06-10T10:49:59Z</time>
      </trkpt>
      <trkpt lat="48.57544" lon="-3.98126">
        <ele>70.7</ele>
        <time>2020-06-10T10:50:00Z</time>
      </trkpt>
      <trkpt lat="48.57545" lon="-3.98122">
        <ele>70.9</ele>
        <time>2020-06-10T10:50:01Z</time>
      </trkpt>
      <trkpt lat="48.57546" lon="-3.98117">
        <ele>71.1</ele>
        <time>2020-06-10T10:50:02Z</time>
      </trkpt>
      <trkpt lat="48.57547" lon="-3.98113">
        <ele>71.3</ele>
        <time>2020-06-10T10:50:03Z</time>
      </trkpt>
      <trkpt lat="48.57548" lon="-3.98107">
        <ele>71.6</ele>
        <time>2020-06-10T10:50:04Z</time>
      </trkpt>
      <trkpt lat="48.57548" lon="-3.98103">
        <ele>71.8</ele>
        <time>2020-06-10T10:50:05Z</time>
      </trkpt>
      <trkpt lat="48.57549" lon="-3.98097">
        <ele>72.1</ele>
        <time>2020-06-10T10:50:06Z</time>
      </trkpt>
      <trkpt lat="48.57549" lon="-3.98091">
        <ele>72.4</ele>
        <time>2020-06-10T10:50:07Z</time>
      </trkpt>
      <trkpt lat="48.5755" lon="-3.98086">
        <ele>72.6</ele>
        <time>2020-06-10T10:50:08Z</time>
      </trkpt>
      <trkpt lat="48.57552" lon="-3.98081">
        <ele>72.9</ele>
        <time>2020-06-10T10:50:09Z</time>
      </trkpt>
      <trkpt lat="48.57553" lon="-3.98075">
        <ele>73.2</ele>
        <time>2020-06-10T10:50:10Z</time>
      </trkpt>
      <trkpt lat="48.57554" lon="-3.98071">
        <ele>73.4</ele>
        <time>2020-06-10T10:50:11Z</time>
      </trkpt>
      <trkpt lat="48.57555" lon="-3.98067">
        <ele>73.6</ele>
        <time>2020-06-10T10:50:12Z</time>
      </trkpt>
      <trkpt lat="48.57558" lon="-3.9806">
        <ele>73.9</ele>
        <time>2020-06-10T10:50:13Z</time>
      </trkpt>
      <trkpt lat="48.57558" lon="-3.98055">
        <ele>74.1</ele>
        <time>2020-06-10T10:50:14Z</time>
      </trkpt>
      <trkpt lat="48.57559" lon="-3.98049">
        <ele>74.4</ele>
        <time>2020-06-10T10:50:15Z</time>
      </trkpt>
      <trkpt lat="48.57559" lon="-3.98047">
        <ele>74.5</ele>
        <time>2020-06-10T10:50:16Z</time>
      </trkpt>
      <trkpt lat="48.57561" lon="-3.98041">
        <ele>74.7</ele>
        <time>2020-06-10T10:50:17Z</time>
      </trkpt>
      <trkpt lat="48.57561" lon="-3.98039">
        <ele>74.8</ele>
        <time>2020-06-10T10:50:18Z</time>
      </trkpt>
      <trkpt lat="48.57562" lon="-3.98034">
        <ele>75</ele>
        <time>2020-06-10T10:50:19Z</time>
      </trkpt>
      <trkpt lat="48.57562" lon="-3.9803">
        <ele>75.1</ele>
        <time>2020-06-10T10:50:20Z</time>
      </trkpt>
      <trkpt lat="48.57563" lon="-3.98024">
        <ele>75.3</ele>
        <time>2020-06-10T10:50:21Z</time>
      </trkpt>
      <trkpt lat="48.57564" lon="-3.98018">
        <ele>75.5</ele>
        <time>2020-06-10T10:50:22Z</time>
      </trkpt>
      <trkpt lat="48.57565" lon="-3.98012">
        <ele>75.7</ele>
        <time>2020-06-10T10:50:23Z</time>
      </trkpt>
      <trkpt lat="48.57565" lon="-3.98006">
        <ele>75.9</ele>
        <time>2020-06-10T10:50:24Z</time>
      </trkpt>
      <trkpt lat="48.57566" lon="-3.98">
        <ele>76</ele>
        <time>2020-06-10T10:50:25Z</time>
      </trkpt>
      <trkpt lat="48.57567" lon="-3.97996">
        <ele>76.2</ele>
        <time>2020-06-10T10:50:26Z</time>
      </trkpt>
      <trkpt lat="48.57568" lon="-3.97988">
        <ele>76.3</ele>
        <time>2020-06-10T10:50:27Z</time>
      </trkpt>
      <trkpt lat="48.57568" lon="-3.97984">
        <ele>76.4</ele>
        <time>2020-06-10T10:50:28Z</time>
      </trkpt>
      <trkpt lat="48.57568" lon="-3.97979">
        <ele>76.5</ele>
        <time>2020-06-10T10:50:29Z</time>
      </trkpt>
      <trkpt lat="48.57569" lon="-3.97972">
        <ele>76.6</ele>
        <time>2020-06-10T10:50:30Z</time>
      </trkpt>
      <trkpt lat="48.57571" lon="-3.97966">
        <ele>76.8</ele>
        <time>2020-06-10T10:50:31Z</time>
      </trkpt>
      <trkpt lat="48.57572" lon="-3.9796">
        <ele>76.9</ele>
        <time>2020-06-10T10:50:32Z</time>
      </trkpt>
      <trkpt lat="48.57572" lon="-3.97953">
        <ele>77</ele>
        <time>2020-06-10T10:50:33Z</time>
      </trkpt>
      <trkpt lat="48.57573" lon="-3.97947">
        <ele>77.1</ele>
        <time>2020-06-10T10:50:34Z</time>
      </trkpt>
      <trkpt lat="48.57574" lon="-3.9794">
        <ele>77.2</ele>
        <time>2020-06-10T10:50:35Z</time>
      </trkpt>
      <trkpt lat="48.57574" lon="-3.97934">
        <ele>77.3</ele>
        <time>2020-06-10T10:50:36Z</time>
      </trkpt>
      <trkpt lat="48.57574" lon="-3.97926">
        <ele>77.3</ele>
        <time>2020-06-10T10:50:37Z</time>
      </trkpt>
      <trkpt lat="48.57576" lon="-3.97921">
        <ele>77.4</ele>
        <time>2020-06-10T10:50:38Z</time>
      </trkpt>
      <trkpt lat="48.57576" lon="-3.97916">
        <ele>77.4</ele>
        <time>2020-06-10T10:50:39Z</time>
      </trkpt>
      <trkpt lat="48.57577" lon="-3.97908">
        <ele>77.4</ele>
        <time>2020-06-10T10:50:40Z</time>
      </trkpt>
      <trkpt lat="48.57578" lon="-3.97901">
        <ele>77.4</ele>
        <time>2020-06-10T10:50:41Z</time>
      </trkpt>
      <trkpt lat="48.57578" lon="-3.97893">
        <ele>77.4</ele>
        <time>2020-06-10T10:50:42Z</time>
      </trkpt>
      <trkpt lat="48.57579" lon="-3.97887">
        <ele>77.4</ele>
        <time>2020-06-10T10:50:43Z</time>
      </trkpt>
      <trkpt lat="48.57579" lon="-3.97879">
        <ele>77.4</ele>
        <time>2020-06-10T10:50:44Z</time>
      </trkpt>
      <trkpt lat="48.5758" lon="-3.97871">
        <ele>77.4</ele>
        <time>2020-06-10T10:50:45Z</time>
      </trkpt>
      <trkpt lat="48.57581" lon="-3.97864">
        <ele>77.3</ele>
        <time>2020-06-10T10:50:46Z</time>
      </trkpt>
      <trkpt lat="48.57582" lon="-3.97857">
        <ele>77.3</ele>
        <time>2020-06-10T10:50:47Z</time>
      </trkpt>
      <trkpt lat="48.57584" lon="-3.97848">
        <ele>77.2</ele>
        <time>2020-06-10T10:50:48Z</time>
      </trkpt>
      <trkpt lat="48.57585" lon="-3.97841">
        <ele>77.1</ele>
        <time>2020-06-10T10:50:49Z</time>
      </trkpt>
      <trkpt lat="48.57588" lon="-3.97828">
        <ele>76.9</ele>
        <time>2020-06-10T10:50:50Z</time>
      </trkpt>
      <trkpt lat="48.5759" lon="-3.97817">
        <ele>76.6</ele>
        <time>2020-06-10T10:50:51Z</time>
      </trkpt>
      <trkpt lat="48.57591" lon="-3.97807">
        <ele>76.4</ele>
        <time>2020-06-10T10:50:52Z</time>
      </trkpt>
      <trkpt lat="48.57592" lon="-3.97799">
        <ele>76.2</ele>
        <time>2020-06-10T10:50:53Z</time>
      </trkpt>
      <trkpt lat="48.57594" lon="-3.97789">
        <ele>76</ele>
        <time>2020-06-10T10:50:54Z</time>
      </trkpt>
      <trkpt lat="48.57595" lon="-3.97779">
        <ele>75.7</ele>
        <time>2020-06-10T10:50:55Z</time>
      </trkpt>
      <trkpt lat="48.57596" lon="-3.9777">
        <ele>75.5</ele>
        <time>2020-06-10T10:50:56Z</time>
      </trkpt>
      <trkpt lat="48.57596" lon="-3.97761">
        <ele>75.3</ele>
        <time>2020-06-10T10:50:57Z</time>
      </trkpt>
      <trkpt lat="48.57595" lon="-3.97755">
        <ele>75.3</ele>
        <time>2020-06-10T10:50:58Z</time>
      </trkpt>
      <trkpt lat="48.57594" lon="-3.97751">
        <ele>75.3</ele>
        <time>2020-06-10T10:50:59Z</time>
      </trkpt>
      <trkpt lat="48.57594" lon="-3.97747">
        <ele>75.3</ele>
        <time>2020-06-10T10:51:00Z</time>
      </trkpt>
      <trkpt lat="48.57593" lon="-3.97746">
        <ele>75.3</ele>
        <time>2020-06-10T10:51:01Z</time>
      </trkpt>
      <trkpt lat="48.57593" lon="-3.97743">
        <ele>75.3</ele>
        <time>2020-06-10T10:51:02Z</time>
      </trkpt>
      <trkpt lat="48.57593" lon="-3.97745">
        <ele>75.3</ele>
        <time>2020-06-10T10:51:03Z</time>
      </trkpt>
      <trkpt lat="48.57593" lon="-3.97745">
        <ele>75.3</ele>
        <time>2020-06-10T10:51:04Z</time>
      </trkpt>
      <trkpt lat="48.57593" lon="-3.97745">
        <ele>75.3</ele>
        <time>2020-06-10T10:51:05Z</time>
      </trkpt>
      <trkpt lat="48.57592" lon="-3.97745">
        <ele>75.3</ele>
        <time>2020-06-10T10:51:06Z</time>
      </trkpt>
      <trkpt lat="48.57592" lon="-3.97747">
        <ele>75.3</ele>
        <time>2020-06-10T10:51:07Z</time>
      </trkpt>
      <trkpt lat="48.57592" lon="-3.97746">
        <ele>75.3</ele>
        <time>2020-06-10T10:51:08Z</time>
      </trkpt>
      <trkpt lat="48.57592" lon="-3.97746">
        <ele>75.3</ele>
        <time>2020-06-10T10:51:09Z</time>
      </trkpt>
      <trkpt lat="48.57592" lon="-3.97747">
        <ele>75.3</ele>
        <time>2020-06-10T10:51:10Z</time>
      </trkpt>
      <trkpt lat="48.57592" lon="-3.97747">
        <ele>75.3</ele>
        <time>2020-06-10T10:51:11Z</time>
      </trkpt>
      <trkpt lat="48.57593" lon="-3.97748">
        <ele>75.3</ele>
        <time>2020-06-10T10:51:12Z</time>
      </trkpt>
      <trkpt lat="48.57592" lon="-3.97748">
        <ele>75.3</ele>
        <time>2020-06-10T10:51:13Z</time>
      </trkpt>
      <trkpt lat="48.57592" lon="-3.97749">
        <ele>75.3</ele>
        <time>2020-06-10T10:51:14Z</time>
      </trkpt>
      <trkpt lat="48.57593" lon="-3.97749">
        <ele>75.3</ele>
        <time>2020-06-10T10:51:15Z</time>
      </trkpt>
      <trkpt lat="48.57593" lon="-3.97749">
        <ele>75.3</ele>
        <time>2020-06-10T10:51:16Z</time>
      </trkpt>
      <trkpt lat="48.57593" lon="-3.97748">
        <ele>75.3</ele>
        <time>2020-06-10T10:51:17Z</time>
      </trkpt>
      <trkpt lat="48.57593" lon="-3.97747">
        <ele>75.3</ele>
        <time>2020-06-10T10:51:18Z</time>
      </trkpt>
      <trkpt lat="48.57597" lon="-3.97739">
        <ele>75.2</ele>
        <time>2020-06-10T10:51:21Z</time>
      </trkpt>
      <trkpt lat="48.57598" lon="-3.97734">
        <ele>75</ele>
        <time>2020-06-10T10:51:22Z</time>
      </trkpt>
      <trkpt lat="48.57599" lon="-3.97731">
        <ele>74.9</ele>
        <time>2020-06-10T10:51:23Z</time>
      </trkpt>
      <trkpt lat="48.57601" lon="-3.97724">
        <ele>74.6</ele>
        <time>2020-06-10T10:51:24Z</time>
      </trkpt>
      <trkpt lat="48.57603" lon="-3.97717">
        <ele>74.2</ele>
        <time>2020-06-10T10:51:25Z</time>
      </trkpt>
      <trkpt lat="48.57604" lon="-3.97708">
        <ele>73.8</ele>
        <time>2020-06-10T10:51:26Z</time>
      </trkpt>
      <trkpt lat="48.57606" lon="-3.977">
        <ele>73.4</ele>
        <time>2020-06-10T10:51:27Z</time>
      </trkpt>
      <trkpt lat="48.57607" lon="-3.97692">
        <ele>73</ele>
        <time>2020-06-10T10:51:28Z</time>
      </trkpt>
      <trkpt lat="48.57608" lon="-3.97683">
        <ele>72.6</ele>
        <time>2020-06-10T10:51:29Z</time>
      </trkpt>
      <trkpt lat="48.57609" lon="-3.97671">
        <ele>72</ele>
        <time>2020-06-10T10:51:30Z</time>
      </trkpt>
      <trkpt lat="48.57611" lon="-3.9766">
        <ele>71.4</ele>
        <time>2020-06-10T10:51:31Z</time>
      </trkpt>
      <trkpt lat="48.57612" lon="-3.97647">
        <ele>70.9</ele>
        <time>2020-06-10T10:51:32Z</time>
      </trkpt>
      <trkpt lat="48.57613" lon="-3.97634">
        <ele>70.3</ele>
        <time>2020-06-10T10:51:33Z</time>
      </trkpt>
      <trkpt lat="48.57614" lon="-3.9762">
        <ele>69.6</ele>
        <time>2020-06-10T10:51:34Z</time>
      </trkpt>
      <trkpt lat="48.57615" lon="-3.97605">
        <ele>68.9</ele>
        <time>2020-06-10T10:51:35Z</time>
      </trkpt>
      <trkpt lat="48.57615" lon="-3.97592">
        <ele>68.2</ele>
        <time>2020-06-10T10:51:36Z</time>
      </trkpt>
      <trkpt lat="48.57616" lon="-3.97579">
        <ele>67.4</ele>
        <time>2020-06-10T10:51:37Z</time>
      </trkpt>
      <trkpt lat="48.57617" lon="-3.97564">
        <ele>66.6</ele>
        <time>2020-06-10T10:51:38Z</time>
      </trkpt>
      <trkpt lat="48.57616" lon="-3.9755">
        <ele>65.8</ele>
        <time>2020-06-10T10:51:39Z</time>
      </trkpt>
      <trkpt lat="48.57616" lon="-3.97534">
        <ele>65</ele>
        <time>2020-06-10T10:51:40Z</time>
      </trkpt>
      <trkpt lat="48.57615" lon="-3.97518">
        <ele>64.1</ele>
        <time>2020-06-10T10:51:41Z</time>
      </trkpt>
      <trkpt lat="48.57614" lon="-3.97502">
        <ele>63.3</ele>
        <time>2020-06-10T10:51:42Z</time>
      </trkpt>
      <trkpt lat="48.57614" lon="-3.97486">
        <ele>62.4</ele>
        <time>2020-06-10T10:51:43Z</time>
      </trkpt>
      <trkpt lat="48.57613" lon="-3.9747">
        <ele>61.5</ele>
        <time>2020-06-10T10:51:44Z</time>
      </trkpt>
      <trkpt lat="48.57612" lon="-3.97453">
        <ele>60.7</ele>
        <time>2020-06-10T10:51:45Z</time>
      </trkpt>
      <trkpt lat="48.57611" lon="-3.97435">
        <ele>60</ele>
        <time>2020-06-10T10:51:46Z</time>
      </trkpt>
      <trkpt lat="48.57611" lon="-3.97417">
        <ele>59.4</ele>
        <time>2020-06-10T10:51:47Z</time>
      </trkpt>
      <trkpt lat="48.57612" lon="-3.97399">
        <ele>58.8</ele>
        <time>2020-06-10T10:51:48Z</time>
      </trkpt>
      <trkpt lat="48.57614" lon="-3.97382">
        <ele>58.3</ele>
        <time>2020-06-10T10:51:49Z</time>
      </trkpt>
      <trkpt lat="48.57616" lon="-3.97364">
        <ele>57.9</ele>
        <time>2020-06-10T10:51:50Z</time>
      </trkpt>
      <trkpt lat="48.57619" lon="-3.97348">
        <ele>57.5</ele>
        <time>2020-06-10T10:51:51Z</time>
      </trkpt>
      <trkpt lat="48.57622" lon="-3.97332">
        <ele>57.2</ele>
        <time>2020-06-10T10:51:52Z</time>
      </trkpt>
      <trkpt lat="48.57626" lon="-3.97316">
        <ele>57.1</ele>
        <time>2020-06-10T10:51:53Z</time>
      </trkpt>
      <trkpt lat="48.57631" lon="-3.97301">
        <ele>57.1</ele>
        <time>2020-06-10T10:51:54Z</time>
      </trkpt>
      <trkpt lat="48.57636" lon="-3.97287">
        <ele>57.3</ele>
        <time>2020-06-10T10:51:55Z</time>
      </trkpt>
      <trkpt lat="48.57642" lon="-3.97274">
        <ele>57.5</ele>
        <time>2020-06-10T10:51:56Z</time>
      </trkpt>
      <trkpt lat="48.57647" lon="-3.97262">
        <ele>57.8</ele>
        <time>2020-06-10T10:51:57Z</time>
      </trkpt>
      <trkpt lat="48.57651" lon="-3.97249">
        <ele>58.1</ele>
        <time>2020-06-10T10:51:58Z</time>
      </trkpt>
      <trkpt lat="48.57656" lon="-3.97238">
        <ele>58.4</ele>
        <time>2020-06-10T10:51:59Z</time>
      </trkpt>
      <trkpt lat="48.57661" lon="-3.97227">
        <ele>58.8</ele>
        <time>2020-06-10T10:52:00Z</time>
      </trkpt>
      <trkpt lat="48.57666" lon="-3.97217">
        <ele>59.1</ele>
        <time>2020-06-10T10:52:01Z</time>
      </trkpt>
      <trkpt lat="48.57669" lon="-3.97208">
        <ele>59.5</ele>
        <time>2020-06-10T10:52:02Z</time>
      </trkpt>
      <trkpt lat="48.57673" lon="-3.97198">
        <ele>60</ele>
        <time>2020-06-10T10:52:03Z</time>
      </trkpt>
      <trkpt lat="48.57677" lon="-3.97189">
        <ele>60.5</ele>
        <time>2020-06-10T10:52:04Z</time>
      </trkpt>
      <trkpt lat="48.5768" lon="-3.9718">
        <ele>61.1</ele>
        <time>2020-06-10T10:52:05Z</time>
      </trkpt>
      <trkpt lat="48.57684" lon="-3.97172">
        <ele>61.8</ele>
        <time>2020-06-10T10:52:06Z</time>
      </trkpt>
      <trkpt lat="48.57688" lon="-3.97165">
        <ele>62.4</ele>
        <time>2020-06-10T10:52:07Z</time>
      </trkpt>
      <trkpt lat="48.57691" lon="-3.97158">
        <ele>63</ele>
        <time>2020-06-10T10:52:08Z</time>
      </trkpt>
      <trkpt lat="48.57694" lon="-3.97151">
        <ele>63.6</ele>
        <time>2020-06-10T10:52:09Z</time>
      </trkpt>
      <trkpt lat="48.57696" lon="-3.97144">
        <ele>64.1</ele>
        <time>2020-06-10T10:52:10Z</time>
      </trkpt>
      <trkpt lat="48.57699" lon="-3.97137">
        <ele>64.6</ele>
        <time>2020-06-10T10:52:11Z</time>
      </trkpt>
      <trkpt lat="48.57703" lon="-3.97132">
        <ele>65</ele>
        <time>2020-06-10T10:52:12Z</time>
      </trkpt>
      <trkpt lat="48.57706" lon="-3.97126">
        <ele>65.5</ele>
        <time>2020-06-10T10:52:13Z</time>
      </trkpt>
      <trkpt lat="48.57709" lon="-3.9712">
        <ele>65.9</ele>
        <time>2020-06-10T10:52:14Z</time>
      </trkpt>
      <trkpt lat="48.5771" lon="-3.97114">
        <ele>66.3</ele>
        <time>2020-06-10T10:52:15Z</time>
      </trkpt>
      <trkpt lat="48.57712" lon="-3.97108">
        <ele>66.6</ele>
        <time>2020-06-10T10:52:16Z</time>
      </trkpt>
      <trkpt lat="48.57715" lon="-3.97103">
        <ele>67</ele>
        <time>2020-06-10T10:52:17Z</time>
      </trkpt>
      <trkpt lat="48.57717" lon="-3.97098">
        <ele>67.3</ele>
        <time>2020-06-10T10:52:18Z</time>
      </trkpt>
      <trkpt lat="48.5772" lon="-3.97093">
        <ele>67.5</ele>
        <time>2020-06-10T10:52:19Z</time>
      </trkpt>
      <trkpt lat="48.57723" lon="-3.97089">
        <ele>67.8</ele>
        <time>2020-06-10T10:52:20Z</time>
      </trkpt>
      <trkpt lat="48.57725" lon="-3.97084">
        <ele>68</ele>
        <time>2020-06-10T10:52:21Z</time>
      </trkpt>
      <trkpt lat="48.57727" lon="-3.97079">
        <ele>68.2</ele>
        <time>2020-06-10T10:52:22Z</time>
      </trkpt>
      <trkpt lat="48.57729" lon="-3.97075">
        <ele>68.5</ele>
        <time>2020-06-10T10:52:23Z</time>
      </trkpt>
      <trkpt lat="48.57731" lon="-3.9707">
        <ele>68.7</ele>
        <time>2020-06-10T10:52:24Z</time>
      </trkpt>
      <trkpt lat="48.57734" lon="-3.97065">
        <ele>68.9</ele>
        <time>2020-06-10T10:52:25Z</time>
      </trkpt>
      <trkpt lat="48.57736" lon="-3.97059">
        <ele>69.1</ele>
        <time>2020-06-10T10:52:26Z</time>
      </trkpt>
      <trkpt lat="48.57739" lon="-3.97053">
        <ele>69.4</ele>
        <time>2020-06-10T10:52:27Z</time>
      </trkpt>
      <trkpt lat="48.57741" lon="-3.97047">
        <ele>69.6</ele>
        <time>2020-06-10T10:52:28Z</time>
      </trkpt>
      <trkpt lat="48.57743" lon="-3.9704">
        <ele>69.8</ele>
        <time>2020-06-10T10:52:29Z</time>
      </trkpt>
      <trkpt lat="48.57745" lon="-3.97034">
        <ele>70</ele>
        <time>2020-06-10T10:52:30Z</time>
      </trkpt>
      <trkpt lat="48.57748" lon="-3.97029">
        <ele>70.2</ele>
        <time>2020-06-10T10:52:31Z</time>
      </trkpt>
      <trkpt lat="48.57751" lon="-3.97021">
        <ele>70.5</ele>
        <time>2020-06-10T10:52:32Z</time>
      </trkpt>
      <trkpt lat="48.57753" lon="-3.97015">
        <ele>70.7</ele>
        <time>2020-06-10T10:52:33Z</time>
      </trkpt>
      <trkpt lat="48.57756" lon="-3.97008">
        <ele>70.9</ele>
        <time>2020-06-10T10:52:34Z</time>
      </trkpt>
      <trkpt lat="48.57758" lon="-3.97002">
        <ele>71.1</ele>
        <time>2020-06-10T10:52:35Z</time>
      </trkpt>
      <trkpt lat="48.5776" lon="-3.96996">
        <ele>71.3</ele>
        <time>2020-06-10T10:52:36Z</time>
      </trkpt>
      <trkpt lat="48.57762" lon="-3.96991">
        <ele>71.5</ele>
        <time>2020-06-10T10:52:37Z</time>
      </trkpt>
      <trkpt lat="48.57765" lon="-3.96984">
        <ele>71.7</ele>
        <time>2020-06-10T10:52:38Z</time>
      </trkpt>
      <trkpt lat="48.57767" lon="-3.9698">
        <ele>71.8</ele>
        <time>2020-06-10T10:52:39Z</time>
      </trkpt>
      <trkpt lat="48.57768" lon="-3.96975">
        <ele>72</ele>
        <time>2020-06-10T10:52:40Z</time>
      </trkpt>
      <trkpt lat="48.5777" lon="-3.96968">
        <ele>72.2</ele>
        <time>2020-06-10T10:52:41Z</time>
      </trkpt>
      <trkpt lat="48.57772" lon="-3.96963">
        <ele>72.4</ele>
        <time>2020-06-10T10:52:42Z</time>
      </trkpt>
      <trkpt lat="48.57774" lon="-3.96956">
        <ele>72.6</ele>
        <time>2020-06-10T10:52:43Z</time>
      </trkpt>
      <trkpt lat="48.57775" lon="-3.96951">
        <ele>72.7</ele>
        <time>2020-06-10T10:52:44Z</time>
      </trkpt>
      <trkpt lat="48.57776" lon="-3.96945">
        <ele>72.9</ele>
        <time>2020-06-10T10:52:45Z</time>
      </trkpt>
      <trkpt lat="48.57778" lon="-3.96938">
        <ele>73.1</ele>
        <time>2020-06-10T10:52:46Z</time>
      </trkpt>
      <trkpt lat="48.57779" lon="-3.96932">
        <ele>73.3</ele>
        <time>2020-06-10T10:52:47Z</time>
      </trkpt>
      <trkpt lat="48.57781" lon="-3.96925">
        <ele>73.5</ele>
        <time>2020-06-10T10:52:48Z</time>
      </trkpt>
      <trkpt lat="48.57782" lon="-3.96919">
        <ele>73.7</ele>
        <time>2020-06-10T10:52:49Z</time>
      </trkpt>
      <trkpt lat="48.57783" lon="-3.96912">
        <ele>73.9</ele>
        <time>2020-06-10T10:52:50Z</time>
      </trkpt>
      <trkpt lat="48.57783" lon="-3.96906">
        <ele>74.1</ele>
        <time>2020-06-10T10:52:51Z</time>
      </trkpt>
      <trkpt lat="48.57784" lon="-3.969">
        <ele>74.3</ele>
        <time>2020-06-10T10:52:52Z</time>
      </trkpt>
      <trkpt lat="48.57785" lon="-3.96894">
        <ele>74.6</ele>
        <time>2020-06-10T10:52:53Z</time>
      </trkpt>
      <trkpt lat="48.57785" lon="-3.96888">
        <ele>74.8</ele>
        <time>2020-06-10T10:52:54Z</time>
      </trkpt>
      <trkpt lat="48.57786" lon="-3.9688">
        <ele>75</ele>
        <time>2020-06-10T10:52:55Z</time>
      </trkpt>
      <trkpt lat="48.57787" lon="-3.96873">
        <ele>75.2</ele>
        <time>2020-06-10T10:52:56Z</time>
      </trkpt>
      <trkpt lat="48.57788" lon="-3.96864">
        <ele>75.4</ele>
        <time>2020-06-10T10:52:57Z</time>
      </trkpt>
      <trkpt lat="48.57789" lon="-3.96856">
        <ele>75.6</ele>
        <time>2020-06-10T10:52:58Z</time>
      </trkpt>
      <trkpt lat="48.5779" lon="-3.96848">
        <ele>75.8</ele>
        <time>2020-06-10T10:52:59Z</time>
      </trkpt>
      <trkpt lat="48.57791" lon="-3.9684">
        <ele>76</ele>
        <time>2020-06-10T10:53:00Z</time>
      </trkpt>
      <trkpt lat="48.57791" lon="-3.96834">
        <ele>76.2</ele>
        <time>2020-06-10T10:53:01Z</time>
      </trkpt>
      <trkpt lat="48.57792" lon="-3.96828">
        <ele>76.3</ele>
        <time>2020-06-10T10:53:02Z</time>
      </trkpt>
      <trkpt lat="48.57792" lon="-3.96823">
        <ele>76.5</ele>
        <time>2020-06-10T10:53:03Z</time>
      </trkpt>
      <trkpt lat="48.57792" lon="-3.96816">
        <ele>76.6</ele>
        <time>2020-06-10T10:53:04Z</time>
      </trkpt>
      <trkpt lat="48.57792" lon="-3.9681">
        <ele>76.8</ele>
        <time>2020-06-10T10:53:05Z</time>
      </trkpt>
      <trkpt lat="48.57793" lon="-3.96803">
        <ele>77</ele>
        <time>2020-06-10T10:53:06Z</time>
      </trkpt>
      <trkpt lat="48.57793" lon="-3.96798">
        <ele>77.1</ele>
        <time>2020-06-10T10:53:07Z</time>
      </trkpt>
      <trkpt lat="48.57793" lon="-3.96793">
        <ele>77.2</ele>
        <time>2020-06-10T10:53:08Z</time>
      </trkpt>
      <trkpt lat="48.57793" lon="-3.96788">
        <ele>77.4</ele>
        <time>2020-06-10T10:53:09Z</time>
      </trkpt>
      <trkpt lat="48.57794" lon="-3.96782">
        <ele>77.5</ele>
        <time>2020-06-10T10:53:10Z</time>
      </trkpt>
      <trkpt lat="48.57794" lon="-3.96776">
        <ele>77.7</ele>
        <time>2020-06-10T10:53:11Z</time>
      </trkpt>
      <trkpt lat="48.57794" lon="-3.9677">
        <ele>77.8</ele>
        <time>2020-06-10T10:53:12Z</time>
      </trkpt>
      <trkpt lat="48.57794" lon="-3.96765">
        <ele>78</ele>
        <time>2020-06-10T10:53:13Z</time>
      </trkpt>
      <trkpt lat="48.57794" lon="-3.96759">
        <ele>78.1</ele>
        <time>2020-06-10T10:53:14Z</time>
      </trkpt>
      <trkpt lat="48.57794" lon="-3.96754">
        <ele>78.3</ele>
        <time>2020-06-10T10:53:15Z</time>
      </trkpt>
      <trkpt lat="48.57794" lon="-3.96748">
        <ele>78.4</ele>
        <time>2020-06-10T10:53:16Z</time>
      </trkpt>
      <trkpt lat="48.57794" lon="-3.96742">
        <ele>78.5</ele>
        <time>2020-06-10T10:53:17Z</time>
      </trkpt>
      <trkpt lat="48.57794" lon="-3.96736">
        <ele>78.7</ele>
        <time>2020-06-10T10:53:18Z</time>
      </trkpt>
      <trkpt lat="48.57794" lon="-3.96729">
        <ele>78.8</ele>
        <time>2020-06-10T10:53:19Z</time>
      </trkpt>
      <trkpt lat="48.57794" lon="-3.96723">
        <ele>79</ele>
        <time>2020-06-10T10:53:20Z</time>
      </trkpt>
      <trkpt lat="48.57793" lon="-3.96716">
        <ele>79.1</ele>
        <time>2020-06-10T10:53:21Z</time>
      </trkpt>
      <trkpt lat="48.57793" lon="-3.96709">
        <ele>79.3</ele>
        <time>2020-06-10T10:53:22Z</time>
      </trkpt>
      <trkpt lat="48.57793" lon="-3.96701">
        <ele>79.4</ele>
        <time>2020-06-10T10:53:23Z</time>
      </trkpt>
      <trkpt lat="48.57793" lon="-3.96695">
        <ele>79.6</ele>
        <time>2020-06-10T10:53:24Z</time>
      </trkpt>
      <trkpt lat="48.57792" lon="-3.9669">
        <ele>79.6</ele>
        <time>2020-06-10T10:53:25Z</time>
      </trkpt>
      <trkpt lat="48.57792" lon="-3.96683">
        <ele>79.8</ele>
        <time>2020-06-10T10:53:26Z</time>
      </trkpt>
      <trkpt lat="48.57791" lon="-3.96677">
        <ele>79.8</ele>
        <time>2020-06-10T10:53:27Z</time>
      </trkpt>
      <trkpt lat="48.57791" lon="-3.96672">
        <ele>79.9</ele>
        <time>2020-06-10T10:53:28Z</time>
      </trkpt>
      <trkpt lat="48.57791" lon="-3.96666">
        <ele>80</ele>
        <time>2020-06-10T10:53:29Z</time>
      </trkpt>
      <trkpt lat="48.5779" lon="-3.9666">
        <ele>80.1</ele>
        <time>2020-06-10T10:53:30Z</time>
      </trkpt>
      <trkpt lat="48.5779" lon="-3.96655">
        <ele>80.2</ele>
        <time>2020-06-10T10:53:31Z</time>
      </trkpt>
      <trkpt lat="48.57789" lon="-3.96649">
        <ele>80.2</ele>
        <time>2020-06-10T10:53:32Z</time>
      </trkpt>
      <trkpt lat="48.57789" lon="-3.96644">
        <ele>80.3</ele>
        <time>2020-06-10T10:53:33Z</time>
      </trkpt>
      <trkpt lat="48.57788" lon="-3.9664">
        <ele>80.4</ele>
        <time>2020-06-10T10:53:34Z</time>
      </trkpt>
      <trkpt lat="48.57788" lon="-3.96635">
        <ele>80.4</ele>
        <time>2020-06-10T10:53:35Z</time>
      </trkpt>
      <trkpt lat="48.57788" lon="-3.96631">
        <ele>80.5</ele>
        <time>2020-06-10T10:53:36Z</time>
      </trkpt>
      <trkpt lat="48.57787" lon="-3.96627">
        <ele>80.5</ele>
        <time>2020-06-10T10:53:37Z</time>
      </trkpt>
      <trkpt lat="48.57787" lon="-3.96622">
        <ele>80.6</ele>
        <time>2020-06-10T10:53:38Z</time>
      </trkpt>
      <trkpt lat="48.57787" lon="-3.96618">
        <ele>80.6</ele>
        <time>2020-06-10T10:53:39Z</time>
      </trkpt>
      <trkpt lat="48.57786" lon="-3.96613">
        <ele>80.6</ele>
        <time>2020-06-10T10:53:40Z</time>
      </trkpt>
      <trkpt lat="48.57785" lon="-3.96611">
        <ele>80.6</ele>
        <time>2020-06-10T10:53:41Z</time>
      </trkpt>
      <trkpt lat="48.57784" lon="-3.96606">
        <ele>80.6</ele>
        <time>2020-06-10T10:53:42Z</time>
      </trkpt>
      <trkpt lat="48.57783" lon="-3.96604">
        <ele>80.6</ele>
        <time>2020-06-10T10:53:43Z</time>
      </trkpt>
      <trkpt lat="48.57782" lon="-3.96602">
        <ele>80.6</ele>
        <time>2020-06-10T10:53:44Z</time>
      </trkpt>
      <trkpt lat="48.57781" lon="-3.966">
        <ele>80.6</ele>
        <time>2020-06-10T10:53:45Z</time>
      </trkpt>
      <trkpt lat="48.57781" lon="-3.96598">
        <ele>80.6</ele>
        <time>2020-06-10T10:53:46Z</time>
      </trkpt>
      <trkpt lat="48.5778" lon="-3.96595">
        <ele>80.7</ele>
        <time>2020-06-10T10:53:47Z</time>
      </trkpt>
      <trkpt lat="48.57779" lon="-3.9659">
        <ele>80.8</ele>
        <time>2020-06-10T10:53:48Z</time>
      </trkpt>
      <trkpt lat="48.57779" lon="-3.96588">
        <ele>80.8</ele>
        <time>2020-06-10T10:53:49Z</time>
      </trkpt>
      <trkpt lat="48.57778" lon="-3.96585">
        <ele>80.8</ele>
        <time>2020-06-10T10:53:50Z</time>
      </trkpt>
      <trkpt lat="48.57778" lon="-3.96583">
        <ele>80.8</ele>
        <time>2020-06-10T10:53:51Z</time>
      </trkpt>
      <trkpt lat="48.57777" lon="-3.9658">
        <ele>80.8</ele>
        <time>2020-06-10T10:53:52Z</time>
      </trkpt>
      <trkpt lat="48.57778" lon="-3.96579">
        <ele>80.8</ele>
        <time>2020-06-10T10:53:53Z</time>
      </trkpt>
      <trkpt lat="48.57778" lon="-3.96578">
        <ele>80.8</ele>
        <time>2020-06-10T10:53:54Z</time>
      </trkpt>
      <trkpt lat="48.57778" lon="-3.96577">
        <ele>80.8</ele>
        <time>2020-06-10T10:53:55Z</time>
      </trkpt>
      <trkpt lat="48.57778" lon="-3.96576">
        <ele>80.7</ele>
        <time>2020-06-10T10:53:56Z</time>
      </trkpt>
      <trkpt lat="48.57778" lon="-3.96575">
        <ele>80.7</ele>
        <time>2020-06-10T10:53:57Z</time>
      </trkpt>
      <trkpt lat="48.57778" lon="-3.96574">
        <ele>80.7</ele>
        <time>2020-06-10T10:53:58Z</time>
      </trkpt>
      <trkpt lat="48.57779" lon="-3.96573">
        <ele>80.7</ele>
        <time>2020-06-10T10:53:59Z</time>
      </trkpt>
      <trkpt lat="48.57779" lon="-3.96572">
        <ele>80.7</ele>
        <time>2020-06-10T10:54:00Z</time>
      </trkpt>
      <trkpt lat="48.57779" lon="-3.96571">
        <ele>80.6</ele>
        <time>2020-06-10T10:54:01Z</time>
      </trkpt>
      <trkpt lat="48.57779" lon="-3.9657">
        <ele>80.6</ele>
        <time>2020-06-10T10:54:02Z</time>
      </trkpt>
      <trkpt lat="48.57779" lon="-3.96569">
        <ele>80.6</ele>
        <time>2020-06-10T10:54:03Z</time>
      </trkpt>
      <trkpt lat="48.5778" lon="-3.96567">
        <ele>80.6</ele>
        <time>2020-06-10T10:54:04Z</time>
      </trkpt>
      <trkpt lat="48.5778" lon="-3.96566">
        <ele>80.5</ele>
        <time>2020-06-10T10:55:24Z</time>
      </trkpt>
      <trkpt lat="48.5778" lon="-3.96565">
        <ele>80.5</ele>
        <time>2020-06-10T10:55:25Z</time>
      </trkpt>
      <trkpt lat="48.57779" lon="-3.96561">
        <ele>80.4</ele>
        <time>2020-06-10T10:55:26Z</time>
      </trkpt>
      <trkpt lat="48.57778" lon="-3.96556">
        <ele>80.3</ele>
        <time>2020-06-10T10:55:27Z</time>
      </trkpt>
      <trkpt lat="48.57778" lon="-3.96549">
        <ele>80.1</ele>
        <time>2020-06-10T10:55:28Z</time>
      </trkpt>
      <trkpt lat="48.57776" lon="-3.96543">
        <ele>79.9</ele>
        <time>2020-06-10T10:55:29Z</time>
      </trkpt>
      <trkpt lat="48.57775" lon="-3.96536">
        <ele>79.8</ele>
        <time>2020-06-10T10:55:30Z</time>
      </trkpt>
      <trkpt lat="48.57773" lon="-3.96529">
        <ele>79.6</ele>
        <time>2020-06-10T10:55:31Z</time>
      </trkpt>
      <trkpt lat="48.57771" lon="-3.96522">
        <ele>79.4</ele>
        <time>2020-06-10T10:55:32Z</time>
      </trkpt>
      <trkpt lat="48.5777" lon="-3.96513">
        <ele>79.2</ele>
        <time>2020-06-10T10:55:33Z</time>
      </trkpt>
      <trkpt lat="48.57768" lon="-3.96506">
        <ele>78.9</ele>
        <time>2020-06-10T10:55:34Z</time>
      </trkpt>
      <trkpt lat="48.57765" lon="-3.96498">
        <ele>78.6</ele>
        <time>2020-06-10T10:55:35Z</time>
      </trkpt>
      <trkpt lat="48.57764" lon="-3.96489">
        <ele>78.2</ele>
        <time>2020-06-10T10:55:36Z</time>
      </trkpt>
      <trkpt lat="48.57761" lon="-3.9648">
        <ele>77.8</ele>
        <time>2020-06-10T10:55:37Z</time>
      </trkpt>
      <trkpt lat="48.57759" lon="-3.96469">
        <ele>77.3</ele>
        <time>2020-06-10T10:55:38Z</time>
      </trkpt>
      <trkpt lat="48.57756" lon="-3.96459">
        <ele>76.7</ele>
        <time>2020-06-10T10:55:39Z</time>
      </trkpt>
      <trkpt lat="48.57753" lon="-3.96447">
        <ele>76.2</ele>
        <time>2020-06-10T10:55:40Z</time>
      </trkpt>
      <trkpt lat="48.5775" lon="-3.96435">
        <ele>75.5</ele>
        <time>2020-06-10T10:55:41Z</time>
      </trkpt>
      <trkpt lat="48.57748" lon="-3.96421">
        <ele>74.7</ele>
        <time>2020-06-10T10:55:42Z</time>
      </trkpt>
      <trkpt lat="48.57745" lon="-3.96407">
        <ele>73.9</ele>
        <time>2020-06-10T10:55:43Z</time>
      </trkpt>
      <trkpt lat="48.57742" lon="-3.96392">
        <ele>73</ele>
        <time>2020-06-10T10:55:44Z</time>
      </trkpt>
      <trkpt lat="48.5774" lon="-3.96376">
        <ele>72.1</ele>
        <time>2020-06-10T10:55:45Z</time>
      </trkpt>
      <trkpt lat="48.57737" lon="-3.9636">
        <ele>71.2</ele>
        <time>2020-06-10T10:55:46Z</time>
      </trkpt>
      <trkpt lat="48.57734" lon="-3.96343">
        <ele>70.2</ele>
        <time>2020-06-10T10:55:47Z</time>
      </trkpt>
      <trkpt lat="48.57732" lon="-3.96325">
        <ele>69.2</ele>
        <time>2020-06-10T10:55:48Z</time>
      </trkpt>
      <trkpt lat="48.5773" lon="-3.96307">
        <ele>68.3</ele>
        <time>2020-06-10T10:55:49Z</time>
      </trkpt>
      <trkpt lat="48.57729" lon="-3.96288">
        <ele>67.5</ele>
        <time>2020-06-10T10:55:50Z</time>
      </trkpt>
      <trkpt lat="48.57729" lon="-3.96269">
        <ele>66.6</ele>
        <time>2020-06-10T10:55:51Z</time>
      </trkpt>
      <trkpt lat="48.57729" lon="-3.9625">
        <ele>65.9</ele>
        <time>2020-06-10T10:55:52Z</time>
      </trkpt>
      <trkpt lat="48.57729" lon="-3.96232">
        <ele>65.3</ele>
        <time>2020-06-10T10:55:53Z</time>
      </trkpt>
      <trkpt lat="48.57729" lon="-3.96213">
        <ele>65</ele>
        <time>2020-06-10T10:55:54Z</time>
      </trkpt>
      <trkpt lat="48.57729" lon="-3.96195">
        <ele>64.8</ele>
        <time>2020-06-10T10:55:55Z</time>
      </trkpt>
      <trkpt lat="48.5773" lon="-3.96177">
        <ele>64.8</ele>
        <time>2020-06-10T10:55:56Z</time>
      </trkpt>
      <trkpt lat="48.57731" lon="-3.96159">
        <ele>64.9</ele>
        <time>2020-06-10T10:55:57Z</time>
      </trkpt>
      <trkpt lat="48.57732" lon="-3.96142">
        <ele>65</ele>
        <time>2020-06-10T10:55:58Z</time>
      </trkpt>
      <trkpt lat="48.57734" lon="-3.96125">
        <ele>65.2</ele>
        <time>2020-06-10T10:55:59Z</time>
      </trkpt>
      <trkpt lat="48.57736" lon="-3.96109">
        <ele>65.6</ele>
        <time>2020-06-10T10:56:00Z</time>
      </trkpt>
      <trkpt lat="48.57738" lon="-3.96094">
        <ele>66</ele>
        <time>2020-06-10T10:56:01Z</time>
      </trkpt>
      <trkpt lat="48.57739" lon="-3.96079">
        <ele>66.6</ele>
        <time>2020-06-10T10:56:02Z</time>
      </trkpt>
      <trkpt lat="48.57741" lon="-3.96065">
        <ele>67.2</ele>
        <time>2020-06-10T10:56:03Z</time>
      </trkpt>
      <trkpt lat="48.57743" lon="-3.96052">
        <ele>67.9</ele>
        <time>2020-06-10T10:56:04Z</time>
      </trkpt>
      <trkpt lat="48.57745" lon="-3.9604">
        <ele>68.6</ele>
        <time>2020-06-10T10:56:05Z</time>
      </trkpt>
      <trkpt lat="48.57747" lon="-3.96028">
        <ele>69.2</ele>
        <time>2020-06-10T10:56:06Z</time>
      </trkpt>
      <trkpt lat="48.57749" lon="-3.96017">
        <ele>69.9</ele>
        <time>2020-06-10T10:56:07Z</time>
      </trkpt>
      <trkpt lat="48.57751" lon="-3.96007">
        <ele>70.5</ele>
        <time>2020-06-10T10:56:08Z</time>
      </trkpt>
      <trkpt lat="48.57753" lon="-3.95997">
        <ele>71</ele>
        <time>2020-06-10T10:56:09Z</time>
      </trkpt>
      <trkpt lat="48.57753" lon="-3.95987">
        <ele>71.5</ele>
        <time>2020-06-10T10:56:10Z</time>
      </trkpt>
      <trkpt lat="48.57754" lon="-3.95978">
        <ele>72</ele>
        <time>2020-06-10T10:56:11Z</time>
      </trkpt>
      <trkpt lat="48.57756" lon="-3.9597">
        <ele>72.5</ele>
        <time>2020-06-10T10:56:12Z</time>
      </trkpt>
      <trkpt lat="48.57757" lon="-3.95962">
        <ele>73</ele>
        <time>2020-06-10T10:56:13Z</time>
      </trkpt>
      <trkpt lat="48.57758" lon="-3.95954">
        <ele>73.4</ele>
        <time>2020-06-10T10:56:14Z</time>
      </trkpt>
      <trkpt lat="48.5776" lon="-3.95947">
        <ele>73.8</ele>
        <time>2020-06-10T10:56:15Z</time>
      </trkpt>
      <trkpt lat="48.57762" lon="-3.9594">
        <ele>74.2</ele>
        <time>2020-06-10T10:56:16Z</time>
      </trkpt>
      <trkpt lat="48.57765" lon="-3.95934">
        <ele>74.6</ele>
        <time>2020-06-10T10:56:17Z</time>
      </trkpt>
      <trkpt lat="48.57766" lon="-3.95927">
        <ele>74.9</ele>
        <time>2020-06-10T10:56:18Z</time>
      </trkpt>
      <trkpt lat="48.57769" lon="-3.95921">
        <ele>75.2</ele>
        <time>2020-06-10T10:56:19Z</time>
      </trkpt>
      <trkpt lat="48.57771" lon="-3.95915">
        <ele>75.5</ele>
        <time>2020-06-10T10:56:20Z</time>
      </trkpt>
      <trkpt lat="48.57773" lon="-3.95908">
        <ele>75.8</ele>
        <time>2020-06-10T10:56:21Z</time>
      </trkpt>
      <trkpt lat="48.57775" lon="-3.95902">
        <ele>76.1</ele>
        <time>2020-06-10T10:56:22Z</time>
      </trkpt>
      <trkpt lat="48.57778" lon="-3.95896">
        <ele>76.4</ele>
        <time>2020-06-10T10:56:23Z</time>
      </trkpt>
      <trkpt lat="48.5778" lon="-3.9589">
        <ele>76.6</ele>
        <time>2020-06-10T10:56:24Z</time>
      </trkpt>
      <trkpt lat="48.57782" lon="-3.95882">
        <ele>76.9</ele>
        <time>2020-06-10T10:56:25Z</time>
      </trkpt>
      <trkpt lat="48.57783" lon="-3.95878">
        <ele>77</ele>
        <time>2020-06-10T10:56:26Z</time>
      </trkpt>
      <trkpt lat="48.57785" lon="-3.95872">
        <ele>77.3</ele>
        <time>2020-06-10T10:56:27Z</time>
      </trkpt>
      <trkpt lat="48.57787" lon="-3.95866">
        <ele>77.5</ele>
        <time>2020-06-10T10:56:28Z</time>
      </trkpt>
      <trkpt lat="48.57789" lon="-3.95859">
        <ele>77.7</ele>
        <time>2020-06-10T10:56:29Z</time>
      </trkpt>
      <trkpt lat="48.57791" lon="-3.95853">
        <ele>77.9</ele>
        <time>2020-06-10T10:56:30Z</time>
      </trkpt>
      <trkpt lat="48.57793" lon="-3.95847">
        <ele>78.1</ele>
        <time>2020-06-10T10:56:31Z</time>
      </trkpt>
      <trkpt lat="48.57794" lon="-3.95841">
        <ele>78.3</ele>
        <time>2020-06-10T10:56:32Z</time>
      </trkpt>
      <trkpt lat="48.57796" lon="-3.95836">
        <ele>78.5</ele>
        <time>2020-06-10T10:56:33Z</time>
      </trkpt>
      <trkpt lat="48.57798" lon="-3.9583">
        <ele>78.7</ele>
        <time>2020-06-10T10:56:34Z</time>
      </trkpt>
      <trkpt lat="48.578" lon="-3.95824">
        <ele>78.8</ele>
        <time>2020-06-10T10:56:35Z</time>
      </trkpt>
      <trkpt lat="48.57802" lon="-3.95817">
        <ele>79</ele>
        <time>2020-06-10T10:56:36Z</time>
      </trkpt>
      <trkpt lat="48.57805" lon="-3.95809">
        <ele>79.2</ele>
        <time>2020-06-10T10:56:37Z</time>
      </trkpt>
      <trkpt lat="48.57807" lon="-3.95804">
        <ele>79.4</ele>
        <time>2020-06-10T10:56:38Z</time>
      </trkpt>
      <trkpt lat="48.57809" lon="-3.95796">
        <ele>79.5</ele>
        <time>2020-06-10T10:56:39Z</time>
      </trkpt>
      <trkpt lat="48.57811" lon="-3.9579">
        <ele>79.7</ele>
        <time>2020-06-10T10:56:40Z</time>
      </trkpt>
      <trkpt lat="48.57814" lon="-3.95783">
        <ele>79.9</ele>
        <time>2020-06-10T10:56:41Z</time>
      </trkpt>
      <trkpt lat="48.57816" lon="-3.95777">
        <ele>80</ele>
        <time>2020-06-10T10:56:42Z</time>
      </trkpt>
      <trkpt lat="48.57818" lon="-3.9577">
        <ele>80.1</ele>
        <time>2020-06-10T10:56:43Z</time>
      </trkpt>
      <trkpt lat="48.57821" lon="-3.95764">
        <ele>80.3</ele>
        <time>2020-06-10T10:56:44Z</time>
      </trkpt>
      <trkpt lat="48.57823" lon="-3.95759">
        <ele>80.4</ele>
        <time>2020-06-10T10:56:45Z</time>
      </trkpt>
      <trkpt lat="48.57825" lon="-3.95753">
        <ele>80.5</ele>
        <time>2020-06-10T10:56:46Z</time>
      </trkpt>
      <trkpt lat="48.57827" lon="-3.95746">
        <ele>80.6</ele>
        <time>2020-06-10T10:56:47Z</time>
      </trkpt>
      <trkpt lat="48.57829" lon="-3.95739">
        <ele>80.7</ele>
        <time>2020-06-10T10:56:48Z</time>
      </trkpt>
      <trkpt lat="48.57831" lon="-3.95733">
        <ele>80.8</ele>
        <time>2020-06-10T10:56:49Z</time>
      </trkpt>
      <trkpt lat="48.57833" lon="-3.95727">
        <ele>80.9</ele>
        <time>2020-06-10T10:56:50Z</time>
      </trkpt>
      <trkpt lat="48.57836" lon="-3.95722">
        <ele>81</ele>
        <time>2020-06-10T10:56:51Z</time>
      </trkpt>
      <trkpt lat="48.57839" lon="-3.95714">
        <ele>81.1</ele>
        <time>2020-06-10T10:56:52Z</time>
      </trkpt>
      <trkpt lat="48.57842" lon="-3.95709">
        <ele>81.1</ele>
        <time>2020-06-10T10:56:53Z</time>
      </trkpt>
      <trkpt lat="48.57845" lon="-3.95703">
        <ele>81.2</ele>
        <time>2020-06-10T10:56:54Z</time>
      </trkpt>
      <trkpt lat="48.57848" lon="-3.95699">
        <ele>81.2</ele>
        <time>2020-06-10T10:56:55Z</time>
      </trkpt>
      <trkpt lat="48.5785" lon="-3.95694">
        <ele>81.2</ele>
        <time>2020-06-10T10:56:56Z</time>
      </trkpt>
      <trkpt lat="48.57852" lon="-3.9569">
        <ele>81.3</ele>
        <time>2020-06-10T10:56:57Z</time>
      </trkpt>
      <trkpt lat="48.57855" lon="-3.95684">
        <ele>81.3</ele>
        <time>2020-06-10T10:56:58Z</time>
      </trkpt>
      <trkpt lat="48.57858" lon="-3.95679">
        <ele>81.3</ele>
        <time>2020-06-10T10:56:59Z</time>
      </trkpt>
      <trkpt lat="48.5786" lon="-3.95673">
        <ele>81.3</ele>
        <time>2020-06-10T10:57:00Z</time>
      </trkpt>
      <trkpt lat="48.57862" lon="-3.95668">
        <ele>81.3</ele>
        <time>2020-06-10T10:57:01Z</time>
      </trkpt>
      <trkpt lat="48.57864" lon="-3.95663">
        <ele>81.3</ele>
        <time>2020-06-10T10:57:02Z</time>
      </trkpt>
      <trkpt lat="48.57867" lon="-3.95656">
        <ele>81.3</ele>
        <time>2020-06-10T10:57:03Z</time>
      </trkpt>
      <trkpt lat="48.5787" lon="-3.9565">
        <ele>81.3</ele>
        <time>2020-06-10T10:57:04Z</time>
      </trkpt>
      <trkpt lat="48.57872" lon="-3.95644">
        <ele>81.2</ele>
        <time>2020-06-10T10:57:05Z</time>
      </trkpt>
      <trkpt lat="48.57874" lon="-3.95639">
        <ele>81.2</ele>
        <time>2020-06-10T10:57:06Z</time>
      </trkpt>
      <trkpt lat="48.57877" lon="-3.95632">
        <ele>81.1</ele>
        <time>2020-06-10T10:57:07Z</time>
      </trkpt>
      <trkpt lat="48.5788" lon="-3.95627">
        <ele>81</ele>
        <time>2020-06-10T10:57:08Z</time>
      </trkpt>
      <trkpt lat="48.57884" lon="-3.95621">
        <ele>80.9</ele>
        <time>2020-06-10T10:57:09Z</time>
      </trkpt>
      <trkpt lat="48.57887" lon="-3.95615">
        <ele>80.9</ele>
        <time>2020-06-10T10:57:10Z</time>
      </trkpt>
      <trkpt lat="48.57891" lon="-3.95608">
        <ele>80.8</ele>
        <time>2020-06-10T10:57:11Z</time>
      </trkpt>
      <trkpt lat="48.57894" lon="-3.95602">
        <ele>80.7</ele>
        <time>2020-06-10T10:57:12Z</time>
      </trkpt>
      <trkpt lat="48.57897" lon="-3.95595">
        <ele>80.5</ele>
        <time>2020-06-10T10:57:13Z</time>
      </trkpt>
      <trkpt lat="48.579" lon="-3.95588">
        <ele>80.4</ele>
        <time>2020-06-10T10:57:14Z</time>
      </trkpt>
      <trkpt lat="48.57903" lon="-3.95581">
        <ele>80.3</ele>
        <time>2020-06-10T10:57:15Z</time>
      </trkpt>
      <trkpt lat="48.57907" lon="-3.95572">
        <ele>80.2</ele>
        <time>2020-06-10T10:57:16Z</time>
      </trkpt>
      <trkpt lat="48.5791" lon="-3.95565">
        <ele>80.1</ele>
        <time>2020-06-10T10:57:17Z</time>
      </trkpt>
      <trkpt lat="48.57914" lon="-3.95557">
        <ele>80</ele>
        <time>2020-06-10T10:57:18Z</time>
      </trkpt>
      <trkpt lat="48.57918" lon="-3.95548">
        <ele>80</ele>
        <time>2020-06-10T10:57:19Z</time>
      </trkpt>
      <trkpt lat="48.57922" lon="-3.9554">
        <ele>79.8</ele>
        <time>2020-06-10T10:57:20Z</time>
      </trkpt>
      <trkpt lat="48.57926" lon="-3.95532">
        <ele>79.7</ele>
        <time>2020-06-10T10:57:21Z</time>
      </trkpt>
      <trkpt lat="48.5793" lon="-3.95525">
        <ele>79.4</ele>
        <time>2020-06-10T10:57:22Z</time>
      </trkpt>
      <trkpt lat="48.57934" lon="-3.95517">
        <ele>79.2</ele>
        <time>2020-06-10T10:57:23Z</time>
      </trkpt>
      <trkpt lat="48.57938" lon="-3.95508">
        <ele>78.9</ele>
        <time>2020-06-10T10:57:24Z</time>
      </trkpt>
      <trkpt lat="48.57942" lon="-3.95499">
        <ele>78.7</ele>
        <time>2020-06-10T10:57:25Z</time>
      </trkpt>
      <trkpt lat="48.57946" lon="-3.9549">
        <ele>78.4</ele>
        <time>2020-06-10T10:57:26Z</time>
      </trkpt>
      <trkpt lat="48.5795" lon="-3.95481">
        <ele>78</ele>
        <time>2020-06-10T10:57:27Z</time>
      </trkpt>
      <trkpt lat="48.57953" lon="-3.9547">
        <ele>77.8</ele>
        <time>2020-06-10T10:57:28Z</time>
      </trkpt>
      <trkpt lat="48.57957" lon="-3.9546">
        <ele>77.5</ele>
        <time>2020-06-10T10:57:29Z</time>
      </trkpt>
      <trkpt lat="48.57961" lon="-3.95449">
        <ele>77.2</ele>
        <time>2020-06-10T10:57:30Z</time>
      </trkpt>
      <trkpt lat="48.57964" lon="-3.95438">
        <ele>76.9</ele>
        <time>2020-06-10T10:57:31Z</time>
      </trkpt>
      <trkpt lat="48.57966" lon="-3.95426">
        <ele>76.5</ele>
        <time>2020-06-10T10:57:32Z</time>
      </trkpt>
      <trkpt lat="48.57969" lon="-3.95414">
        <ele>76.2</ele>
        <time>2020-06-10T10:57:33Z</time>
      </trkpt>
      <trkpt lat="48.57972" lon="-3.95402">
        <ele>75.8</ele>
        <time>2020-06-10T10:57:34Z</time>
      </trkpt>
      <trkpt lat="48.57975" lon="-3.9539">
        <ele>75.4</ele>
        <time>2020-06-10T10:57:35Z</time>
      </trkpt>
      <trkpt lat="48.57978" lon="-3.95377">
        <ele>75</ele>
        <time>2020-06-10T10:57:36Z</time>
      </trkpt>
      <trkpt lat="48.57979" lon="-3.95363">
        <ele>74.6</ele>
        <time>2020-06-10T10:57:37Z</time>
      </trkpt>
      <trkpt lat="48.5798" lon="-3.9535">
        <ele>74.2</ele>
        <time>2020-06-10T10:57:38Z</time>
      </trkpt>
      <trkpt lat="48.5798" lon="-3.95335">
        <ele>73.8</ele>
        <time>2020-06-10T10:57:39Z</time>
      </trkpt>
      <trkpt lat="48.5798" lon="-3.95321">
        <ele>73.4</ele>
        <time>2020-06-10T10:57:40Z</time>
      </trkpt>
      <trkpt lat="48.5798" lon="-3.95307">
        <ele>73</ele>
        <time>2020-06-10T10:57:41Z</time>
      </trkpt>
      <trkpt lat="48.5798" lon="-3.95292">
        <ele>72.6</ele>
        <time>2020-06-10T10:57:42Z</time>
      </trkpt>
      <trkpt lat="48.57978" lon="-3.95278">
        <ele>72.2</ele>
        <time>2020-06-10T10:57:43Z</time>
      </trkpt>
      <trkpt lat="48.57977" lon="-3.95263">
        <ele>71.7</ele>
        <time>2020-06-10T10:57:44Z</time>
      </trkpt>
      <trkpt lat="48.57976" lon="-3.95247">
        <ele>71.1</ele>
        <time>2020-06-10T10:57:45Z</time>
      </trkpt>
      <trkpt lat="48.57975" lon="-3.95232">
        <ele>70.7</ele>
        <time>2020-06-10T10:57:46Z</time>
      </trkpt>
      <trkpt lat="48.57975" lon="-3.95216">
        <ele>70.3</ele>
        <time>2020-06-10T10:57:47Z</time>
      </trkpt>
      <trkpt lat="48.57974" lon="-3.952">
        <ele>70</ele>
        <time>2020-06-10T10:57:48Z</time>
      </trkpt>
      <trkpt lat="48.57973" lon="-3.95184">
        <ele>69.7</ele>
        <time>2020-06-10T10:57:49Z</time>
      </trkpt>
      <trkpt lat="48.57973" lon="-3.95168">
        <ele>69.5</ele>
        <time>2020-06-10T10:57:50Z</time>
      </trkpt>
      <trkpt lat="48.57972" lon="-3.95152">
        <ele>69.4</ele>
        <time>2020-06-10T10:57:51Z</time>
      </trkpt>
      <trkpt lat="48.57971" lon="-3.95136">
        <ele>69.3</ele>
        <time>2020-06-10T10:57:52Z</time>
      </trkpt>
      <trkpt lat="48.57971" lon="-3.95121">
        <ele>69.3</ele>
        <time>2020-06-10T10:57:53Z</time>
      </trkpt>
      <trkpt lat="48.5797" lon="-3.95106">
        <ele>69.3</ele>
        <time>2020-06-10T10:57:54Z</time>
      </trkpt>
      <trkpt lat="48.57969" lon="-3.95091">
        <ele>69.4</ele>
        <time>2020-06-10T10:57:55Z</time>
      </trkpt>
      <trkpt lat="48.57967" lon="-3.95076">
        <ele>69.5</ele>
        <time>2020-06-10T10:57:56Z</time>
      </trkpt>
      <trkpt lat="48.57966" lon="-3.95062">
        <ele>69.8</ele>
        <time>2020-06-10T10:57:57Z</time>
      </trkpt>
      <trkpt lat="48.57966" lon="-3.95048">
        <ele>70</ele>
        <time>2020-06-10T10:57:58Z</time>
      </trkpt>
      <trkpt lat="48.57965" lon="-3.95034">
        <ele>70.1</ele>
        <time>2020-06-10T10:57:59Z</time>
      </trkpt>
      <trkpt lat="48.57964" lon="-3.9502">
        <ele>70.2</ele>
        <time>2020-06-10T10:58:00Z</time>
      </trkpt>
      <trkpt lat="48.57963" lon="-3.95007">
        <ele>70.4</ele>
        <time>2020-06-10T10:58:01Z</time>
      </trkpt>
      <trkpt lat="48.57962" lon="-3.94994">
        <ele>70.8</ele>
        <time>2020-06-10T10:58:02Z</time>
      </trkpt>
      <trkpt lat="48.57962" lon="-3.94981">
        <ele>71.4</ele>
        <time>2020-06-10T10:58:03Z</time>
      </trkpt>
      <trkpt lat="48.57961" lon="-3.94969">
        <ele>71.9</ele>
        <time>2020-06-10T10:58:04Z</time>
      </trkpt>
      <trkpt lat="48.5796" lon="-3.94958">
        <ele>72.4</ele>
        <time>2020-06-10T10:58:05Z</time>
      </trkpt>
      <trkpt lat="48.57959" lon="-3.94947">
        <ele>72.9</ele>
        <time>2020-06-10T10:58:06Z</time>
      </trkpt>
      <trkpt lat="48.57957" lon="-3.94936">
        <ele>73.5</ele>
        <time>2020-06-10T10:58:07Z</time>
      </trkpt>
      <trkpt lat="48.57957" lon="-3.94927">
        <ele>74</ele>
        <time>2020-06-10T10:58:08Z</time>
      </trkpt>
      <trkpt lat="48.57956" lon="-3.94917">
        <ele>74.6</ele>
        <time>2020-06-10T10:58:09Z</time>
      </trkpt>
      <trkpt lat="48.57956" lon="-3.94908">
        <ele>75.1</ele>
        <time>2020-06-10T10:58:10Z</time>
      </trkpt>
      <trkpt lat="48.57956" lon="-3.94899">
        <ele>75.6</ele>
        <time>2020-06-10T10:58:11Z</time>
      </trkpt>
      <trkpt lat="48.57956" lon="-3.94891">
        <ele>76.1</ele>
        <time>2020-06-10T10:58:12Z</time>
      </trkpt>
      <trkpt lat="48.57955" lon="-3.94883">
        <ele>76.6</ele>
        <time>2020-06-10T10:58:13Z</time>
      </trkpt>
      <trkpt lat="48.57954" lon="-3.94876">
        <ele>77</ele>
        <time>2020-06-10T10:58:14Z</time>
      </trkpt>
      <trkpt lat="48.57954" lon="-3.94868">
        <ele>77.4</ele>
        <time>2020-06-10T10:58:15Z</time>
      </trkpt>
      <trkpt lat="48.57953" lon="-3.94861">
        <ele>77.7</ele>
        <time>2020-06-10T10:58:16Z</time>
      </trkpt>
      <trkpt lat="48.57952" lon="-3.94853">
        <ele>78.1</ele>
        <time>2020-06-10T10:58:17Z</time>
      </trkpt>
      <trkpt lat="48.57953" lon="-3.94846">
        <ele>78.5</ele>
        <time>2020-06-10T10:58:18Z</time>
      </trkpt>
      <trkpt lat="48.57953" lon="-3.94839">
        <ele>78.8</ele>
        <time>2020-06-10T10:58:19Z</time>
      </trkpt>
      <trkpt lat="48.57953" lon="-3.94832">
        <ele>79.2</ele>
        <time>2020-06-10T10:58:20Z</time>
      </trkpt>
      <trkpt lat="48.57952" lon="-3.94825">
        <ele>79.5</ele>
        <time>2020-06-10T10:58:21Z</time>
      </trkpt>
      <trkpt lat="48.57952" lon="-3.94818">
        <ele>79.9</ele>
        <time>2020-06-10T10:58:22Z</time>
      </trkpt>
      <trkpt lat="48.57952" lon="-3.94811">
        <ele>80.2</ele>
        <time>2020-06-10T10:58:23Z</time>
      </trkpt>
      <trkpt lat="48.57952" lon="-3.94805">
        <ele>80.5</ele>
        <time>2020-06-10T10:58:24Z</time>
      </trkpt>
      <trkpt lat="48.57952" lon="-3.94801">
        <ele>80.7</ele>
        <time>2020-06-10T10:58:25Z</time>
      </trkpt>
      <trkpt lat="48.57952" lon="-3.94795">
        <ele>80.9</ele>
        <time>2020-06-10T10:58:26Z</time>
      </trkpt>
      <trkpt lat="48.57952" lon="-3.94788">
        <ele>81.2</ele>
        <time>2020-06-10T10:58:27Z</time>
      </trkpt>
      <trkpt lat="48.57952" lon="-3.9478">
        <ele>81.5</ele>
        <time>2020-06-10T10:58:28Z</time>
      </trkpt>
      <trkpt lat="48.57953" lon="-3.94773">
        <ele>81.7</ele>
        <time>2020-06-10T10:58:29Z</time>
      </trkpt>
      <trkpt lat="48.57953" lon="-3.94767">
        <ele>82</ele>
        <time>2020-06-10T10:58:30Z</time>
      </trkpt>
      <trkpt lat="48.57953" lon="-3.94758">
        <ele>82.3</ele>
        <time>2020-06-10T10:58:31Z</time>
      </trkpt>
      <trkpt lat="48.57953" lon="-3.94751">
        <ele>82.5</ele>
        <time>2020-06-10T10:58:32Z</time>
      </trkpt>
      <trkpt lat="48.57953" lon="-3.94744">
        <ele>82.7</ele>
        <time>2020-06-10T10:58:33Z</time>
      </trkpt>
      <trkpt lat="48.57953" lon="-3.94737">
        <ele>83</ele>
        <time>2020-06-10T10:58:34Z</time>
      </trkpt>
      <trkpt lat="48.57954" lon="-3.94731">
        <ele>83.2</ele>
        <time>2020-06-10T10:58:35Z</time>
      </trkpt>
      <trkpt lat="48.57954" lon="-3.94724">
        <ele>83.4</ele>
        <time>2020-06-10T10:58:36Z</time>
      </trkpt>
      <trkpt lat="48.57954" lon="-3.94718">
        <ele>83.6</ele>
        <time>2020-06-10T10:58:37Z</time>
      </trkpt>
      <trkpt lat="48.57954" lon="-3.9471">
        <ele>83.9</ele>
        <time>2020-06-10T10:58:38Z</time>
      </trkpt>
      <trkpt lat="48.57955" lon="-3.94703">
        <ele>84.1</ele>
        <time>2020-06-10T10:58:39Z</time>
      </trkpt>
      <trkpt lat="48.57955" lon="-3.94697">
        <ele>84.3</ele>
        <time>2020-06-10T10:58:40Z</time>
      </trkpt>
      <trkpt lat="48.57955" lon="-3.94692">
        <ele>84.4</ele>
        <time>2020-06-10T10:58:41Z</time>
      </trkpt>
      <trkpt lat="48.57955" lon="-3.94686">
        <ele>84.6</ele>
        <time>2020-06-10T10:58:42Z</time>
      </trkpt>
      <trkpt lat="48.57956" lon="-3.9468">
        <ele>84.8</ele>
        <time>2020-06-10T10:58:43Z</time>
      </trkpt>
      <trkpt lat="48.57956" lon="-3.94674">
        <ele>85</ele>
        <time>2020-06-10T10:58:44Z</time>
      </trkpt>
      <trkpt lat="48.57956" lon="-3.94668">
        <ele>85.2</ele>
        <time>2020-06-10T10:58:45Z</time>
      </trkpt>
      <trkpt lat="48.57956" lon="-3.94661">
        <ele>85.3</ele>
        <time>2020-06-10T10:58:46Z</time>
      </trkpt>
      <trkpt lat="48.57957" lon="-3.94655">
        <ele>85.5</ele>
        <time>2020-06-10T10:58:47Z</time>
      </trkpt>
      <trkpt lat="48.57958" lon="-3.94649">
        <ele>85.6</ele>
        <time>2020-06-10T10:58:48Z</time>
      </trkpt>
      <trkpt lat="48.57959" lon="-3.94642">
        <ele>85.8</ele>
        <time>2020-06-10T10:58:49Z</time>
      </trkpt>
      <trkpt lat="48.57959" lon="-3.94635">
        <ele>85.9</ele>
        <time>2020-06-10T10:58:50Z</time>
      </trkpt>
      <trkpt lat="48.5796" lon="-3.94627">
        <ele>86.1</ele>
        <time>2020-06-10T10:58:51Z</time>
      </trkpt>
      <trkpt lat="48.5796" lon="-3.9462">
        <ele>86.2</ele>
        <time>2020-06-10T10:58:52Z</time>
      </trkpt>
      <trkpt lat="48.5796" lon="-3.94614">
        <ele>86.3</ele>
        <time>2020-06-10T10:58:53Z</time>
      </trkpt>
      <trkpt lat="48.5796" lon="-3.94607">
        <ele>86.5</ele>
        <time>2020-06-10T10:58:54Z</time>
      </trkpt>
      <trkpt lat="48.57961" lon="-3.94599">
        <ele>86.6</ele>
        <time>2020-06-10T10:58:55Z</time>
      </trkpt>
      <trkpt lat="48.57961" lon="-3.94593">
        <ele>86.6</ele>
        <time>2020-06-10T10:58:56Z</time>
      </trkpt>
      <trkpt lat="48.57962" lon="-3.94587">
        <ele>86.7</ele>
        <time>2020-06-10T10:58:57Z</time>
      </trkpt>
      <trkpt lat="48.57963" lon="-3.94579">
        <ele>86.8</ele>
        <time>2020-06-10T10:58:58Z</time>
      </trkpt>
      <trkpt lat="48.57963" lon="-3.94571">
        <ele>86.9</ele>
        <time>2020-06-10T10:58:59Z</time>
      </trkpt>
      <trkpt lat="48.57964" lon="-3.94564">
        <ele>87</ele>
        <time>2020-06-10T10:59:00Z</time>
      </trkpt>
      <trkpt lat="48.57965" lon="-3.94556">
        <ele>87.1</ele>
        <time>2020-06-10T10:59:01Z</time>
      </trkpt>
      <trkpt lat="48.57966" lon="-3.94549">
        <ele>87.1</ele>
        <time>2020-06-10T10:59:02Z</time>
      </trkpt>
      <trkpt lat="48.57966" lon="-3.94542">
        <ele>87.2</ele>
        <time>2020-06-10T10:59:03Z</time>
      </trkpt>
      <trkpt lat="48.57967" lon="-3.94535">
        <ele>87.2</ele>
        <time>2020-06-10T10:59:04Z</time>
      </trkpt>
      <trkpt lat="48.57968" lon="-3.94527">
        <ele>87.3</ele>
        <time>2020-06-10T10:59:05Z</time>
      </trkpt>
      <trkpt lat="48.57969" lon="-3.94519">
        <ele>87.3</ele>
        <time>2020-06-10T10:59:06Z</time>
      </trkpt>
      <trkpt lat="48.57969" lon="-3.94514">
        <ele>87.3</ele>
        <time>2020-06-10T10:59:07Z</time>
      </trkpt>
      <trkpt lat="48.5797" lon="-3.94507">
        <ele>87.3</ele>
        <time>2020-06-10T10:59:08Z</time>
      </trkpt>
      <trkpt lat="48.57971" lon="-3.94499">
        <ele>87.3</ele>
        <time>2020-06-10T10:59:09Z</time>
      </trkpt>
      <trkpt lat="48.57972" lon="-3.9449">
        <ele>87.4</ele>
        <time>2020-06-10T10:59:10Z</time>
      </trkpt>
      <trkpt lat="48.57973" lon="-3.94484">
        <ele>87.4</ele>
        <time>2020-06-10T10:59:11Z</time>
      </trkpt>
      <trkpt lat="48.57974" lon="-3.94475">
        <ele>87.4</ele>
        <time>2020-06-10T10:59:12Z</time>
      </trkpt>
      <trkpt lat="48.57974" lon="-3.94467">
        <ele>87.4</ele>
        <time>2020-06-10T10:59:13Z</time>
      </trkpt>
      <trkpt lat="48.57974" lon="-3.9446">
        <ele>87.4</ele>
        <time>2020-06-10T10:59:14Z</time>
      </trkpt>
      <trkpt lat="48.57973" lon="-3.94452">
        <ele>87.4</ele>
        <time>2020-06-10T10:59:15Z</time>
      </trkpt>
      <trkpt lat="48.57974" lon="-3.94443">
        <ele>87.4</ele>
        <time>2020-06-10T10:59:16Z</time>
      </trkpt>
      <trkpt lat="48.57974" lon="-3.94438">
        <ele>87.4</ele>
        <time>2020-06-10T10:59:17Z</time>
      </trkpt>
      <trkpt lat="48.57974" lon="-3.9443">
        <ele>87.5</ele>
        <time>2020-06-10T10:59:18Z</time>
      </trkpt>
      <trkpt lat="48.57974" lon="-3.94422">
        <ele>87.5</ele>
        <time>2020-06-10T10:59:19Z</time>
      </trkpt>
      <trkpt lat="48.57974" lon="-3.94415">
        <ele>87.5</ele>
        <time>2020-06-10T10:59:20Z</time>
      </trkpt>
      <trkpt lat="48.57974" lon="-3.94407">
        <ele>87.6</ele>
        <time>2020-06-10T10:59:21Z</time>
      </trkpt>
      <trkpt lat="48.57974" lon="-3.94401">
        <ele>87.6</ele>
        <time>2020-06-10T10:59:22Z</time>
      </trkpt>
      <trkpt lat="48.57974" lon="-3.94395">
        <ele>87.6</ele>
        <time>2020-06-10T10:59:23Z</time>
      </trkpt>
      <trkpt lat="48.57973" lon="-3.94389">
        <ele>87.6</ele>
        <time>2020-06-10T10:59:24Z</time>
      </trkpt>
      <trkpt lat="48.57973" lon="-3.94383">
        <ele>87.6</ele>
        <time>2020-06-10T10:59:25Z</time>
      </trkpt>
      <trkpt lat="48.57973" lon="-3.94378">
        <ele>87.5</ele>
        <time>2020-06-10T10:59:26Z</time>
      </trkpt>
      <trkpt lat="48.57973" lon="-3.94369">
        <ele>87.5</ele>
        <time>2020-06-10T10:59:27Z</time>
      </trkpt>
      <trkpt lat="48.57973" lon="-3.94362">
        <ele>87.5</ele>
        <time>2020-06-10T10:59:28Z</time>
      </trkpt>
      <trkpt lat="48.57973" lon="-3.94354">
        <ele>87.5</ele>
        <time>2020-06-10T10:59:29Z</time>
      </trkpt>
      <trkpt lat="48.57973" lon="-3.94347">
        <ele>87.5</ele>
        <time>2020-06-10T10:59:30Z</time>
      </trkpt>
      <trkpt lat="48.57972" lon="-3.94342">
        <ele>87.4</ele>
        <time>2020-06-10T10:59:31Z</time>
      </trkpt>
      <trkpt lat="48.57972" lon="-3.94336">
        <ele>87.4</ele>
        <time>2020-06-10T10:59:32Z</time>
      </trkpt>
      <trkpt lat="48.57971" lon="-3.9433">
        <ele>87.4</ele>
        <time>2020-06-10T10:59:33Z</time>
      </trkpt>
      <trkpt lat="48.57971" lon="-3.94324">
        <ele>87.4</ele>
        <time>2020-06-10T10:59:34Z</time>
      </trkpt>
      <trkpt lat="48.57971" lon="-3.94316">
        <ele>87.4</ele>
        <time>2020-06-10T10:59:35Z</time>
      </trkpt>
      <trkpt lat="48.57971" lon="-3.9431">
        <ele>87.4</ele>
        <time>2020-06-10T10:59:36Z</time>
      </trkpt>
      <trkpt lat="48.57971" lon="-3.94304">
        <ele>87.3</ele>
        <time>2020-06-10T10:59:37Z</time>
      </trkpt>
      <trkpt lat="48.57971" lon="-3.94298">
        <ele>87.3</ele>
        <time>2020-06-10T10:59:38Z</time>
      </trkpt>
      <trkpt lat="48.57971" lon="-3.94291">
        <ele>87.3</ele>
        <time>2020-06-10T10:59:39Z</time>
      </trkpt>
      <trkpt lat="48.5797" lon="-3.94286">
        <ele>87.3</ele>
        <time>2020-06-10T10:59:40Z</time>
      </trkpt>
      <trkpt lat="48.5797" lon="-3.94279">
        <ele>87.3</ele>
        <time>2020-06-10T10:59:41Z</time>
      </trkpt>
      <trkpt lat="48.57969" lon="-3.94272">
        <ele>87.3</ele>
        <time>2020-06-10T10:59:42Z</time>
      </trkpt>
      <trkpt lat="48.57969" lon="-3.94262">
        <ele>87.3</ele>
        <time>2020-06-10T10:59:43Z</time>
      </trkpt>
      <trkpt lat="48.57969" lon="-3.94256">
        <ele>87.3</ele>
        <time>2020-06-10T10:59:44Z</time>
      </trkpt>
      <trkpt lat="48.57969" lon="-3.94249">
        <ele>87.3</ele>
        <time>2020-06-10T10:59:45Z</time>
      </trkpt>
      <trkpt lat="48.5797" lon="-3.94243">
        <ele>87.3</ele>
        <time>2020-06-10T10:59:46Z</time>
      </trkpt>
      <trkpt lat="48.57969" lon="-3.94236">
        <ele>87.3</ele>
        <time>2020-06-10T10:59:47Z</time>
      </trkpt>
      <trkpt lat="48.57969" lon="-3.94231">
        <ele>87.3</ele>
        <time>2020-06-10T10:59:48Z</time>
      </trkpt>
      <trkpt lat="48.57969" lon="-3.94224">
        <ele>87.4</ele>
        <time>2020-06-10T10:59:49Z</time>
      </trkpt>
      <trkpt lat="48.57969" lon="-3.94218">
        <ele>87.4</ele>
        <time>2020-06-10T10:59:50Z</time>
      </trkpt>
      <trkpt lat="48.57969" lon="-3.94212">
        <ele>87.4</ele>
        <time>2020-06-10T10:59:51Z</time>
      </trkpt>
      <trkpt lat="48.57968" lon="-3.94207">
        <ele>87.4</ele>
        <time>2020-06-10T10:59:52Z</time>
      </trkpt>
      <trkpt lat="48.57969" lon="-3.94202">
        <ele>87.4</ele>
        <time>2020-06-10T10:59:53Z</time>
      </trkpt>
      <trkpt lat="48.57969" lon="-3.94196">
        <ele>87.4</ele>
        <time>2020-06-10T10:59:54Z</time>
      </trkpt>
      <trkpt lat="48.57968" lon="-3.94192">
        <ele>87.4</ele>
        <time>2020-06-10T10:59:55Z</time>
      </trkpt>
      <trkpt lat="48.57969" lon="-3.94186">
        <ele>87.4</ele>
        <time>2020-06-10T10:59:56Z</time>
      </trkpt>
      <trkpt lat="48.57969" lon="-3.94182">
        <ele>87.3</ele>
        <time>2020-06-10T10:59:57Z</time>
      </trkpt>
      <trkpt lat="48.57969" lon="-3.94178">
        <ele>87.3</ele>
        <time>2020-06-10T10:59:58Z</time>
      </trkpt>
      <trkpt lat="48.57969" lon="-3.94177">
        <ele>87.2</ele>
        <time>2020-06-10T10:59:59Z</time>
      </trkpt>
      <trkpt lat="48.57969" lon="-3.94175">
        <ele>87.2</ele>
        <time>2020-06-10T11:00:00Z</time>
      </trkpt>
      <trkpt lat="48.57968" lon="-3.94174">
        <ele>87.2</ele>
        <time>2020-06-10T11:00:01Z</time>
      </trkpt>
      <trkpt lat="48.57968" lon="-3.94173">
        <ele>87.2</ele>
        <time>2020-06-10T11:00:02Z</time>
      </trkpt>
      <trkpt lat="48.57969" lon="-3.94173">
        <ele>87.2</ele>
        <time>2020-06-10T11:00:03Z</time>
      </trkpt>
      <trkpt lat="48.57969" lon="-3.94173">
        <ele>87.2</ele>
        <time>2020-06-10T11:00:04Z</time>
      </trkpt>
      <trkpt lat="48.57969" lon="-3.94173">
        <ele>87.1</ele>
        <time>2020-06-10T11:00:05Z</time>
      </trkpt>
      <trkpt lat="48.57969" lon="-3.94172">
        <ele>87.1</ele>
        <time>2020-06-10T11:00:06Z</time>
      </trkpt>
      <trkpt lat="48.57969" lon="-3.94172">
        <ele>87.1</ele>
        <time>2020-06-10T11:00:07Z</time>
      </trkpt>
      <trkpt lat="48.57969" lon="-3.94172">
        <ele>87.1</ele>
        <time>2020-06-10T11:00:08Z</time>
      </trkpt>
      <trkpt lat="48.57969" lon="-3.94171">
        <ele>87.1</ele>
        <time>2020-06-10T11:00:09Z</time>
      </trkpt>
      <trkpt lat="48.57969" lon="-3.94171">
        <ele>87.1</ele>
        <time>2020-06-10T11:00:10Z</time>
      </trkpt>
      <trkpt lat="48.57969" lon="-3.94171">
        <ele>87.1</ele>
        <time>2020-06-10T11:00:11Z</time>
      </trkpt>
      <trkpt lat="48.57969" lon="-3.9417">
        <ele>87.1</ele>
        <time>2020-06-10T11:00:12Z</time>
      </trkpt>
      <trkpt lat="48.5797" lon="-3.9417">
        <ele>87.1</ele>
        <time>2020-06-10T11:00:13Z</time>
      </trkpt>
      <trkpt lat="48.5797" lon="-3.9417">
        <ele>87.1</ele>
        <time>2020-06-10T11:00:14Z</time>
      </trkpt>
      <trkpt lat="48.5797" lon="-3.94169">
        <ele>87.1</ele>
        <time>2020-06-10T11:00:15Z</time>
      </trkpt>
      <trkpt lat="48.5797" lon="-3.94169">
        <ele>87.1</ele>
        <time>2020-06-10T11:00:16Z</time>
      </trkpt>
      <trkpt lat="48.5797" lon="-3.94169">
        <ele>87.1</ele>
        <time>2020-06-10T11:04:07Z</time>
      </trkpt>
      <trkpt lat="48.5797" lon="-3.94169">
        <ele>87.1</ele>
        <time>2020-06-10T11:04:08Z</time>
      </trkpt>
      <trkpt lat="48.5797" lon="-3.94168">
        <ele>87.1</ele>
        <time>2020-06-10T11:04:09Z</time>
      </trkpt>
      <trkpt lat="48.57971" lon="-3.94166">
        <ele>87</ele>
        <time>2020-06-10T11:04:10Z</time>
      </trkpt>
      <trkpt lat="48.57971" lon="-3.94165">
        <ele>87</ele>
        <time>2020-06-10T11:04:11Z</time>
      </trkpt>
      <trkpt lat="48.57971" lon="-3.94164">
        <ele>87</ele>
        <time>2020-06-10T11:04:12Z</time>
      </trkpt>
      <trkpt lat="48.57971" lon="-3.94164">
        <ele>87</ele>
        <time>2020-06-10T11:04:13Z</time>
      </trkpt>
      <trkpt lat="48.57971" lon="-3.94164">
        <ele>87</ele>
        <time>2020-06-10T11:04:14Z</time>
      </trkpt>
      <trkpt lat="48.57971" lon="-3.94164">
        <ele>87</ele>
        <time>2020-06-10T11:04:15Z</time>
      </trkpt>
      <trkpt lat="48.57972" lon="-3.94164">
        <ele>87</ele>
        <time>2020-06-10T11:04:16Z</time>
      </trkpt>
      <trkpt lat="48.57972" lon="-3.94164">
        <ele>87</ele>
        <time>2020-06-10T11:04:17Z</time>
      </trkpt>
      <trkpt lat="48.57972" lon="-3.94164">
        <ele>87</ele>
        <time>2020-06-10T11:04:18Z</time>
      </trkpt>
      <trkpt lat="48.57972" lon="-3.94164">
        <ele>87</ele>
        <time>2020-06-10T11:04:19Z</time>
      </trkpt>
      <trkpt lat="48.57971" lon="-3.94163">
        <ele>86.9</ele>
        <time>2020-06-10T11:04:20Z</time>
      </trkpt>
      <trkpt lat="48.57971" lon="-3.94163">
        <ele>86.9</ele>
        <time>2020-06-10T11:04:21Z</time>
      </trkpt>
      <trkpt lat="48.57971" lon="-3.94163">
        <ele>86.9</ele>
        <time>2020-06-10T11:04:22Z</time>
      </trkpt>
      <trkpt lat="48.57971" lon="-3.94163">
        <ele>86.9</ele>
        <time>2020-06-10T11:04:23Z</time>
      </trkpt>
      <trkpt lat="48.57971" lon="-3.94162">
        <ele>86.9</ele>
        <time>2020-06-10T11:04:24Z</time>
      </trkpt>
      <trkpt lat="48.57971" lon="-3.94162">
        <ele>86.9</ele>
        <time>2020-06-10T11:04:25Z</time>
      </trkpt>
      <trkpt lat="48.5797" lon="-3.94163">
        <ele>86.9</ele>
        <time>2020-06-10T11:04:26Z</time>
      </trkpt>
      <trkpt lat="48.5797" lon="-3.94163">
        <ele>86.9</ele>
        <time>2020-06-10T11:04:27Z</time>
      </trkpt>
      <trkpt lat="48.57969" lon="-3.94164">
        <ele>86.9</ele>
        <time>2020-06-10T11:04:28Z</time>
      </trkpt>
      <trkpt lat="48.57969" lon="-3.94164">
        <ele>86.9</ele>
        <time>2020-06-10T11:04:29Z</time>
      </trkpt>
      <trkpt lat="48.57968" lon="-3.94164">
        <ele>86.8</ele>
        <time>2020-06-10T11:04:30Z</time>
      </trkpt>
      <trkpt lat="48.57969" lon="-3.94164">
        <ele>86.8</ele>
        <time>2020-06-10T11:04:31Z</time>
      </trkpt>
      <trkpt lat="48.57969" lon="-3.94164">
        <ele>86.8</ele>
        <time>2020-06-10T11:04:32Z</time>
      </trkpt>
      <trkpt lat="48.57967" lon="-3.94156">
        <ele>86.7</ele>
        <time>2020-06-10T11:04:51Z</time>
      </trkpt>
      <trkpt lat="48.57968" lon="-3.94153">
        <ele>86.7</ele>
        <time>2020-06-10T11:04:52Z</time>
      </trkpt>
      <trkpt lat="48.57969" lon="-3.94148">
        <ele>86.6</ele>
        <time>2020-06-10T11:04:53Z</time>
      </trkpt>
      <trkpt lat="48.57969" lon="-3.94146">
        <ele>86.6</ele>
        <time>2020-06-10T11:04:54Z</time>
      </trkpt>
      <trkpt lat="48.57969" lon="-3.94141">
        <ele>86.5</ele>
        <time>2020-06-10T11:04:55Z</time>
      </trkpt>
      <trkpt lat="48.57969" lon="-3.94136">
        <ele>86.4</ele>
        <time>2020-06-10T11:04:56Z</time>
      </trkpt>
      <trkpt lat="48.57969" lon="-3.94131">
        <ele>86.3</ele>
        <time>2020-06-10T11:04:57Z</time>
      </trkpt>
      <trkpt lat="48.57969" lon="-3.94126">
        <ele>86.3</ele>
        <time>2020-06-10T11:04:58Z</time>
      </trkpt>
      <trkpt lat="48.5797" lon="-3.9412">
        <ele>86.2</ele>
        <time>2020-06-10T11:04:59Z</time>
      </trkpt>
      <trkpt lat="48.57971" lon="-3.94115">
        <ele>86.1</ele>
        <time>2020-06-10T11:05:00Z</time>
      </trkpt>
      <trkpt lat="48.57971" lon="-3.94108">
        <ele>86</ele>
        <time>2020-06-10T11:05:01Z</time>
      </trkpt>
      <trkpt lat="48.57972" lon="-3.94102">
        <ele>86</ele>
        <time>2020-06-10T11:05:02Z</time>
      </trkpt>
      <trkpt lat="48.57972" lon="-3.94096">
        <ele>85.9</ele>
        <time>2020-06-10T11:05:03Z</time>
      </trkpt>
      <trkpt lat="48.57973" lon="-3.9409">
        <ele>85.8</ele>
        <time>2020-06-10T11:05:04Z</time>
      </trkpt>
      <trkpt lat="48.57973" lon="-3.94084">
        <ele>85.7</ele>
        <time>2020-06-10T11:05:05Z</time>
      </trkpt>
      <trkpt lat="48.57973" lon="-3.94078">
        <ele>85.7</ele>
        <time>2020-06-10T11:05:06Z</time>
      </trkpt>
      <trkpt lat="48.57973" lon="-3.94071">
        <ele>85.6</ele>
        <time>2020-06-10T11:05:07Z</time>
      </trkpt>
      <trkpt lat="48.57972" lon="-3.94065">
        <ele>85.5</ele>
        <time>2020-06-10T11:05:08Z</time>
      </trkpt>
      <trkpt lat="48.57973" lon="-3.94058">
        <ele>85.4</ele>
        <time>2020-06-10T11:05:09Z</time>
      </trkpt>
      <trkpt lat="48.57973" lon="-3.94051">
        <ele>85.4</ele>
        <time>2020-06-10T11:05:10Z</time>
      </trkpt>
      <trkpt lat="48.57973" lon="-3.94044">
        <ele>85.2</ele>
        <time>2020-06-10T11:05:11Z</time>
      </trkpt>
      <trkpt lat="48.57973" lon="-3.94037">
        <ele>85.1</ele>
        <time>2020-06-10T11:05:12Z</time>
      </trkpt>
      <trkpt lat="48.57972" lon="-3.94029">
        <ele>85</ele>
        <time>2020-06-10T11:05:13Z</time>
      </trkpt>
      <trkpt lat="48.57972" lon="-3.94021">
        <ele>84.9</ele>
        <time>2020-06-10T11:05:14Z</time>
      </trkpt>
      <trkpt lat="48.57973" lon="-3.94013">
        <ele>84.7</ele>
        <time>2020-06-10T11:05:15Z</time>
      </trkpt>
      <trkpt lat="48.57972" lon="-3.94005">
        <ele>84.6</ele>
        <time>2020-06-10T11:05:16Z</time>
      </trkpt>
      <trkpt lat="48.57973" lon="-3.93997">
        <ele>84.4</ele>
        <time>2020-06-10T11:05:17Z</time>
      </trkpt>
      <trkpt lat="48.57973" lon="-3.93989">
        <ele>84.3</ele>
        <time>2020-06-10T11:05:18Z</time>
      </trkpt>
      <trkpt lat="48.57973" lon="-3.93981">
        <ele>84.1</ele>
        <time>2020-06-10T11:05:19Z</time>
      </trkpt>
      <trkpt lat="48.57973" lon="-3.93973">
        <ele>83.9</ele>
        <time>2020-06-10T11:05:20Z</time>
      </trkpt>
      <trkpt lat="48.57973" lon="-3.93965">
        <ele>83.8</ele>
        <time>2020-06-10T11:05:21Z</time>
      </trkpt>
      <trkpt lat="48.57973" lon="-3.93956">
        <ele>83.6</ele>
        <time>2020-06-10T11:05:22Z</time>
      </trkpt>
      <trkpt lat="48.57973" lon="-3.93948">
        <ele>83.5</ele>
        <time>2020-06-10T11:05:23Z</time>
      </trkpt>
      <trkpt lat="48.57973" lon="-3.93939">
        <ele>83.4</ele>
        <time>2020-06-10T11:05:24Z</time>
      </trkpt>
      <trkpt lat="48.57973" lon="-3.9393">
        <ele>83.2</ele>
        <time>2020-06-10T11:05:25Z</time>
      </trkpt>
      <trkpt lat="48.57973" lon="-3.93921">
        <ele>83.1</ele>
        <time>2020-06-10T11:05:26Z</time>
      </trkpt>
      <trkpt lat="48.57974" lon="-3.93912">
        <ele>83</ele>
        <time>2020-06-10T11:05:27Z</time>
      </trkpt>
      <trkpt lat="48.57975" lon="-3.93903">
        <ele>82.8</ele>
        <time>2020-06-10T11:05:28Z</time>
      </trkpt>
      <trkpt lat="48.57975" lon="-3.93894">
        <ele>82.7</ele>
        <time>2020-06-10T11:05:29Z</time>
      </trkpt>
      <trkpt lat="48.57975" lon="-3.93885">
        <ele>82.6</ele>
        <time>2020-06-10T11:05:30Z</time>
      </trkpt>
      <trkpt lat="48.57975" lon="-3.93876">
        <ele>82.5</ele>
        <time>2020-06-10T11:05:31Z</time>
      </trkpt>
      <trkpt lat="48.57976" lon="-3.93868">
        <ele>82.3</ele>
        <time>2020-06-10T11:05:32Z</time>
      </trkpt>
      <trkpt lat="48.57975" lon="-3.93859">
        <ele>82.2</ele>
        <time>2020-06-10T11:05:33Z</time>
      </trkpt>
      <trkpt lat="48.57974" lon="-3.9385">
        <ele>82.1</ele>
        <time>2020-06-10T11:05:34Z</time>
      </trkpt>
      <trkpt lat="48.57975" lon="-3.93841">
        <ele>82</ele>
        <time>2020-06-10T11:05:35Z</time>
      </trkpt>
      <trkpt lat="48.57975" lon="-3.93832">
        <ele>81.9</ele>
        <time>2020-06-10T11:05:36Z</time>
      </trkpt>
      <trkpt lat="48.57975" lon="-3.93823">
        <ele>81.7</ele>
        <time>2020-06-10T11:05:37Z</time>
      </trkpt>
      <trkpt lat="48.57974" lon="-3.93814">
        <ele>81.6</ele>
        <time>2020-06-10T11:05:38Z</time>
      </trkpt>
      <trkpt lat="48.57973" lon="-3.93804">
        <ele>81.5</ele>
        <time>2020-06-10T11:05:39Z</time>
      </trkpt>
      <trkpt lat="48.57974" lon="-3.93796">
        <ele>81.3</ele>
        <time>2020-06-10T11:05:40Z</time>
      </trkpt>
      <trkpt lat="48.57974" lon="-3.93788">
        <ele>81.2</ele>
        <time>2020-06-10T11:05:41Z</time>
      </trkpt>
      <trkpt lat="48.57974" lon="-3.9378">
        <ele>81</ele>
        <time>2020-06-10T11:05:42Z</time>
      </trkpt>
      <trkpt lat="48.57974" lon="-3.93772">
        <ele>80.8</ele>
        <time>2020-06-10T11:05:43Z</time>
      </trkpt>
      <trkpt lat="48.57975" lon="-3.93764">
        <ele>80.7</ele>
        <time>2020-06-10T11:05:44Z</time>
      </trkpt>
      <trkpt lat="48.57976" lon="-3.93755">
        <ele>80.5</ele>
        <time>2020-06-10T11:05:45Z</time>
      </trkpt>
      <trkpt lat="48.57976" lon="-3.93746">
        <ele>80.4</ele>
        <time>2020-06-10T11:05:46Z</time>
      </trkpt>
      <trkpt lat="48.57976" lon="-3.93737">
        <ele>80.3</ele>
        <time>2020-06-10T11:05:47Z</time>
      </trkpt>
      <trkpt lat="48.57977" lon="-3.93728">
        <ele>80.2</ele>
        <time>2020-06-10T11:05:48Z</time>
      </trkpt>
      <trkpt lat="48.57977" lon="-3.93719">
        <ele>80.1</ele>
        <time>2020-06-10T11:05:49Z</time>
      </trkpt>
      <trkpt lat="48.57978" lon="-3.93709">
        <ele>80</ele>
        <time>2020-06-10T11:05:50Z</time>
      </trkpt>
      <trkpt lat="48.57978" lon="-3.93699">
        <ele>79.9</ele>
        <time>2020-06-10T11:05:51Z</time>
      </trkpt>
      <trkpt lat="48.57977" lon="-3.9369">
        <ele>79.8</ele>
        <time>2020-06-10T11:05:52Z</time>
      </trkpt>
      <trkpt lat="48.57977" lon="-3.9368">
        <ele>79.7</ele>
        <time>2020-06-10T11:05:53Z</time>
      </trkpt>
      <trkpt lat="48.57977" lon="-3.9367">
        <ele>79.6</ele>
        <time>2020-06-10T11:05:54Z</time>
      </trkpt>
      <trkpt lat="48.57977" lon="-3.9366">
        <ele>79.5</ele>
        <time>2020-06-10T11:05:55Z</time>
      </trkpt>
      <trkpt lat="48.57977" lon="-3.93651">
        <ele>79.4</ele>
        <time>2020-06-10T11:05:56Z</time>
      </trkpt>
      <trkpt lat="48.57977" lon="-3.93641">
        <ele>79.3</ele>
        <time>2020-06-10T11:05:57Z</time>
      </trkpt>
      <trkpt lat="48.57977" lon="-3.93631">
        <ele>79.2</ele>
        <time>2020-06-10T11:05:58Z</time>
      </trkpt>
      <trkpt lat="48.57977" lon="-3.93621">
        <ele>79.1</ele>
        <time>2020-06-10T11:05:59Z</time>
      </trkpt>
      <trkpt lat="48.57977" lon="-3.93611">
        <ele>79</ele>
        <time>2020-06-10T11:06:00Z</time>
      </trkpt>
      <trkpt lat="48.57977" lon="-3.93602">
        <ele>78.9</ele>
        <time>2020-06-10T11:06:01Z</time>
      </trkpt>
      <trkpt lat="48.57977" lon="-3.93592">
        <ele>78.8</ele>
        <time>2020-06-10T11:06:02Z</time>
      </trkpt>
      <trkpt lat="48.57977" lon="-3.93582">
        <ele>78.7</ele>
        <time>2020-06-10T11:06:03Z</time>
      </trkpt>
      <trkpt lat="48.57977" lon="-3.93572">
        <ele>78.6</ele>
        <time>2020-06-10T11:06:04Z</time>
      </trkpt>
      <trkpt lat="48.57978" lon="-3.93562">
        <ele>78.4</ele>
        <time>2020-06-10T11:06:05Z</time>
      </trkpt>
      <trkpt lat="48.57978" lon="-3.93552">
        <ele>78.3</ele>
        <time>2020-06-10T11:06:06Z</time>
      </trkpt>
      <trkpt lat="48.57978" lon="-3.93542">
        <ele>78.2</ele>
        <time>2020-06-10T11:06:07Z</time>
      </trkpt>
      <trkpt lat="48.57978" lon="-3.93532">
        <ele>78</ele>
        <time>2020-06-10T11:06:08Z</time>
      </trkpt>
      <trkpt lat="48.57978" lon="-3.93522">
        <ele>77.9</ele>
        <time>2020-06-10T11:06:09Z</time>
      </trkpt>
      <trkpt lat="48.57978" lon="-3.93511">
        <ele>77.7</ele>
        <time>2020-06-10T11:06:10Z</time>
      </trkpt>
      <trkpt lat="48.57978" lon="-3.93501">
        <ele>77.6</ele>
        <time>2020-06-10T11:06:11Z</time>
      </trkpt>
      <trkpt lat="48.57978" lon="-3.9349">
        <ele>77.4</ele>
        <time>2020-06-10T11:06:12Z</time>
      </trkpt>
      <trkpt lat="48.57979" lon="-3.9348">
        <ele>77.3</ele>
        <time>2020-06-10T11:06:13Z</time>
      </trkpt>
      <trkpt lat="48.57979" lon="-3.93469">
        <ele>77.1</ele>
        <time>2020-06-10T11:06:14Z</time>
      </trkpt>
      <trkpt lat="48.57978" lon="-3.93459">
        <ele>77</ele>
        <time>2020-06-10T11:06:15Z</time>
      </trkpt>
      <trkpt lat="48.57979" lon="-3.93448">
        <ele>76.8</ele>
        <time>2020-06-10T11:06:16Z</time>
      </trkpt>
      <trkpt lat="48.57979" lon="-3.93437">
        <ele>76.6</ele>
        <time>2020-06-10T11:06:17Z</time>
      </trkpt>
      <trkpt lat="48.5798" lon="-3.93426">
        <ele>76.4</ele>
        <time>2020-06-10T11:06:18Z</time>
      </trkpt>
      <trkpt lat="48.5798" lon="-3.93415">
        <ele>76.2</ele>
        <time>2020-06-10T11:06:19Z</time>
      </trkpt>
      <trkpt lat="48.5798" lon="-3.93404">
        <ele>75.9</ele>
        <time>2020-06-10T11:06:20Z</time>
      </trkpt>
      <trkpt lat="48.57981" lon="-3.93393">
        <ele>75.6</ele>
        <time>2020-06-10T11:06:21Z</time>
      </trkpt>
      <trkpt lat="48.57982" lon="-3.93381">
        <ele>75.3</ele>
        <time>2020-06-10T11:06:22Z</time>
      </trkpt>
      <trkpt lat="48.57983" lon="-3.93369">
        <ele>74.9</ele>
        <time>2020-06-10T11:06:23Z</time>
      </trkpt>
      <trkpt lat="48.57984" lon="-3.93357">
        <ele>74.5</ele>
        <time>2020-06-10T11:06:24Z</time>
      </trkpt>
      <trkpt lat="48.57985" lon="-3.93345">
        <ele>74.1</ele>
        <time>2020-06-10T11:06:25Z</time>
      </trkpt>
      <trkpt lat="48.57986" lon="-3.93333">
        <ele>73.6</ele>
        <time>2020-06-10T11:06:26Z</time>
      </trkpt>
      <trkpt lat="48.57987" lon="-3.9332">
        <ele>73.1</ele>
        <time>2020-06-10T11:06:27Z</time>
      </trkpt>
      <trkpt lat="48.57989" lon="-3.93306">
        <ele>72.5</ele>
        <time>2020-06-10T11:06:28Z</time>
      </trkpt>
      <trkpt lat="48.5799" lon="-3.93293">
        <ele>71.9</ele>
        <time>2020-06-10T11:06:29Z</time>
      </trkpt>
      <trkpt lat="48.57991" lon="-3.93278">
        <ele>71.2</ele>
        <time>2020-06-10T11:06:30Z</time>
      </trkpt>
      <trkpt lat="48.57992" lon="-3.93264">
        <ele>70.5</ele>
        <time>2020-06-10T11:06:31Z</time>
      </trkpt>
      <trkpt lat="48.57994" lon="-3.93249">
        <ele>69.9</ele>
        <time>2020-06-10T11:06:32Z</time>
      </trkpt>
      <trkpt lat="48.57996" lon="-3.93233">
        <ele>69.7</ele>
        <time>2020-06-10T11:06:33Z</time>
      </trkpt>
      <trkpt lat="48.57997" lon="-3.93218">
        <ele>68.9</ele>
        <time>2020-06-10T11:06:34Z</time>
      </trkpt>
      <trkpt lat="48.57999" lon="-3.93202">
        <ele>67.9</ele>
        <time>2020-06-10T11:06:35Z</time>
      </trkpt>
      <trkpt lat="48.58001" lon="-3.93186">
        <ele>66.9</ele>
        <time>2020-06-10T11:06:36Z</time>
      </trkpt>
      <trkpt lat="48.58003" lon="-3.93169">
        <ele>65.8</ele>
        <time>2020-06-10T11:06:37Z</time>
      </trkpt>
      <trkpt lat="48.58005" lon="-3.93153">
        <ele>64.8</ele>
        <time>2020-06-10T11:06:38Z</time>
      </trkpt>
      <trkpt lat="48.58007" lon="-3.93136">
        <ele>63.8</ele>
        <time>2020-06-10T11:06:39Z</time>
      </trkpt>
      <trkpt lat="48.5801" lon="-3.93119">
        <ele>62.9</ele>
        <time>2020-06-10T11:06:40Z</time>
      </trkpt>
      <trkpt lat="48.58013" lon="-3.93102">
        <ele>61.9</ele>
        <time>2020-06-10T11:06:41Z</time>
      </trkpt>
      <trkpt lat="48.58017" lon="-3.93086">
        <ele>60.9</ele>
        <time>2020-06-10T11:06:42Z</time>
      </trkpt>
      <trkpt lat="48.58023" lon="-3.9307">
        <ele>59.8</ele>
        <time>2020-06-10T11:06:43Z</time>
      </trkpt>
      <trkpt lat="48.58029" lon="-3.93054">
        <ele>58.8</ele>
        <time>2020-06-10T11:06:44Z</time>
      </trkpt>
      <trkpt lat="48.58035" lon="-3.93039">
        <ele>57.9</ele>
        <time>2020-06-10T11:06:45Z</time>
      </trkpt>
      <trkpt lat="48.58043" lon="-3.93025">
        <ele>57</ele>
        <time>2020-06-10T11:06:46Z</time>
      </trkpt>
      <trkpt lat="48.58051" lon="-3.93012">
        <ele>56.1</ele>
        <time>2020-06-10T11:06:47Z</time>
      </trkpt>
      <trkpt lat="48.5806" lon="-3.93">
        <ele>55.2</ele>
        <time>2020-06-10T11:06:48Z</time>
      </trkpt>
      <trkpt lat="48.58069" lon="-3.92988">
        <ele>54.3</ele>
        <time>2020-06-10T11:06:49Z</time>
      </trkpt>
      <trkpt lat="48.58079" lon="-3.92977">
        <ele>53.4</ele>
        <time>2020-06-10T11:06:50Z</time>
      </trkpt>
      <trkpt lat="48.58088" lon="-3.92967">
        <ele>52.5</ele>
        <time>2020-06-10T11:06:51Z</time>
      </trkpt>
      <trkpt lat="48.58098" lon="-3.92957">
        <ele>51.6</ele>
        <time>2020-06-10T11:06:52Z</time>
      </trkpt>
      <trkpt lat="48.58108" lon="-3.92947">
        <ele>50.8</ele>
        <time>2020-06-10T11:06:53Z</time>
      </trkpt>
      <trkpt lat="48.58119" lon="-3.92938">
        <ele>50</ele>
        <time>2020-06-10T11:06:54Z</time>
      </trkpt>
      <trkpt lat="48.58129" lon="-3.9293">
        <ele>49.1</ele>
        <time>2020-06-10T11:06:55Z</time>
      </trkpt>
      <trkpt lat="48.5814" lon="-3.92922">
        <ele>48.3</ele>
        <time>2020-06-10T11:06:56Z</time>
      </trkpt>
      <trkpt lat="48.58152" lon="-3.92914">
        <ele>47.3</ele>
        <time>2020-06-10T11:06:57Z</time>
      </trkpt>
      <trkpt lat="48.58163" lon="-3.92905">
        <ele>46.5</ele>
        <time>2020-06-10T11:06:58Z</time>
      </trkpt>
      <trkpt lat="48.58174" lon="-3.92897">
        <ele>45.7</ele>
        <time>2020-06-10T11:06:59Z</time>
      </trkpt>
      <trkpt lat="48.58185" lon="-3.92887">
        <ele>44.9</ele>
        <time>2020-06-10T11:07:00Z</time>
      </trkpt>
      <trkpt lat="48.58196" lon="-3.92878">
        <ele>44.1</ele>
        <time>2020-06-10T11:07:01Z</time>
      </trkpt>
      <trkpt lat="48.58207" lon="-3.92868">
        <ele>43.2</ele>
        <time>2020-06-10T11:07:02Z</time>
      </trkpt>
      <trkpt lat="48.58218" lon="-3.9286">
        <ele>42.4</ele>
        <time>2020-06-10T11:07:03Z</time>
      </trkpt>
      <trkpt lat="48.58229" lon="-3.9285">
        <ele>41.6</ele>
        <time>2020-06-10T11:07:04Z</time>
      </trkpt>
      <trkpt lat="48.5824" lon="-3.9284">
        <ele>40.7</ele>
        <time>2020-06-10T11:07:05Z</time>
      </trkpt>
      <trkpt lat="48.58249" lon="-3.92828">
        <ele>39.8</ele>
        <time>2020-06-10T11:07:06Z</time>
      </trkpt>
      <trkpt lat="48.58259" lon="-3.92816">
        <ele>38.9</ele>
        <time>2020-06-10T11:07:07Z</time>
      </trkpt>
      <trkpt lat="48.58268" lon="-3.92805">
        <ele>38.1</ele>
        <time>2020-06-10T11:07:08Z</time>
      </trkpt>
      <trkpt lat="48.58278" lon="-3.92795">
        <ele>37.3</ele>
        <time>2020-06-10T11:07:09Z</time>
      </trkpt>
      <trkpt lat="48.58286" lon="-3.92783">
        <ele>36.6</ele>
        <time>2020-06-10T11:07:10Z</time>
      </trkpt>
      <trkpt lat="48.58293" lon="-3.92772">
        <ele>35.9</ele>
        <time>2020-06-10T11:07:11Z</time>
      </trkpt>
      <trkpt lat="48.58301" lon="-3.92762">
        <ele>35.2</ele>
        <time>2020-06-10T11:07:12Z</time>
      </trkpt>
      <trkpt lat="48.58309" lon="-3.9275">
        <ele>34.6</ele>
        <time>2020-06-10T11:07:13Z</time>
      </trkpt>
      <trkpt lat="48.58316" lon="-3.92737">
        <ele>33.8</ele>
        <time>2020-06-10T11:07:14Z</time>
      </trkpt>
      <trkpt lat="48.58324" lon="-3.92725">
        <ele>33</ele>
        <time>2020-06-10T11:07:15Z</time>
      </trkpt>
      <trkpt lat="48.58332" lon="-3.92713">
        <ele>32.2</ele>
        <time>2020-06-10T11:07:16Z</time>
      </trkpt>
      <trkpt lat="48.5834" lon="-3.92701">
        <ele>31.6</ele>
        <time>2020-06-10T11:07:17Z</time>
      </trkpt>
      <trkpt lat="48.58348" lon="-3.92689">
        <ele>31</ele>
        <time>2020-06-10T11:07:18Z</time>
      </trkpt>
      <trkpt lat="48.58356" lon="-3.92678">
        <ele>30.4</ele>
        <time>2020-06-10T11:07:19Z</time>
      </trkpt>
      <trkpt lat="48.58365" lon="-3.92667">
        <ele>29.8</ele>
        <time>2020-06-10T11:07:20Z</time>
      </trkpt>
      <trkpt lat="48.58373" lon="-3.92655">
        <ele>29.1</ele>
        <time>2020-06-10T11:07:21Z</time>
      </trkpt>
      <trkpt lat="48.58381" lon="-3.92643">
        <ele>28.5</ele>
        <time>2020-06-10T11:07:22Z</time>
      </trkpt>
      <trkpt lat="48.58389" lon="-3.92633">
        <ele>27.8</ele>
        <time>2020-06-10T11:07:23Z</time>
      </trkpt>
      <trkpt lat="48.58395" lon="-3.92624">
        <ele>27.2</ele>
        <time>2020-06-10T11:07:24Z</time>
      </trkpt>
      <trkpt lat="48.58402" lon="-3.92615">
        <ele>26.7</ele>
        <time>2020-06-10T11:07:25Z</time>
      </trkpt>
      <trkpt lat="48.58408" lon="-3.92605">
        <ele>26.2</ele>
        <time>2020-06-10T11:07:26Z</time>
      </trkpt>
      <trkpt lat="48.58413" lon="-3.92594">
        <ele>25.7</ele>
        <time>2020-06-10T11:07:27Z</time>
      </trkpt>
      <trkpt lat="48.5842" lon="-3.92584">
        <ele>25.3</ele>
        <time>2020-06-10T11:07:28Z</time>
      </trkpt>
      <trkpt lat="48.58426" lon="-3.92574">
        <ele>24.8</ele>
        <time>2020-06-10T11:07:29Z</time>
      </trkpt>
      <trkpt lat="48.58433" lon="-3.92564">
        <ele>24.3</ele>
        <time>2020-06-10T11:07:30Z</time>
      </trkpt>
      <trkpt lat="48.5844" lon="-3.92556">
        <ele>23.8</ele>
        <time>2020-06-10T11:07:31Z</time>
      </trkpt>
      <trkpt lat="48.58447" lon="-3.92548">
        <ele>23.2</ele>
        <time>2020-06-10T11:07:32Z</time>
      </trkpt>
      <trkpt lat="48.58455" lon="-3.92541">
        <ele>22.6</ele>
        <time>2020-06-10T11:07:33Z</time>
      </trkpt>
      <trkpt lat="48.58462" lon="-3.92533">
        <ele>21.9</ele>
        <time>2020-06-10T11:07:34Z</time>
      </trkpt>
      <trkpt lat="48.5847" lon="-3.92528">
        <ele>21.3</ele>
        <time>2020-06-10T11:07:35Z</time>
      </trkpt>
      <trkpt lat="48.58478" lon="-3.92523">
        <ele>20.8</ele>
        <time>2020-06-10T11:07:36Z</time>
      </trkpt>
      <trkpt lat="48.58486" lon="-3.92519">
        <ele>20.4</ele>
        <time>2020-06-10T11:07:37Z</time>
      </trkpt>
      <trkpt lat="48.58494" lon="-3.92514">
        <ele>19.9</ele>
        <time>2020-06-10T11:07:38Z</time>
      </trkpt>
      <trkpt lat="48.58503" lon="-3.92507">
        <ele>19.3</ele>
        <time>2020-06-10T11:07:39Z</time>
      </trkpt>
      <trkpt lat="48.58511" lon="-3.925">
        <ele>18.6</ele>
        <time>2020-06-10T11:07:40Z</time>
      </trkpt>
      <trkpt lat="48.5852" lon="-3.92492">
        <ele>17.9</ele>
        <time>2020-06-10T11:07:41Z</time>
      </trkpt>
      <trkpt lat="48.58529" lon="-3.92483">
        <ele>17.1</ele>
        <time>2020-06-10T11:07:42Z</time>
      </trkpt>
      <trkpt lat="48.58538" lon="-3.92475">
        <ele>16.3</ele>
        <time>2020-06-10T11:07:43Z</time>
      </trkpt>
      <trkpt lat="48.58548" lon="-3.92468">
        <ele>15.5</ele>
        <time>2020-06-10T11:07:44Z</time>
      </trkpt>
      <trkpt lat="48.58557" lon="-3.9246">
        <ele>14.8</ele>
        <time>2020-06-10T11:07:45Z</time>
      </trkpt>
      <trkpt lat="48.58567" lon="-3.92452">
        <ele>14.1</ele>
        <time>2020-06-10T11:07:46Z</time>
      </trkpt>
      <trkpt lat="48.58575" lon="-3.92444">
        <ele>13.5</ele>
        <time>2020-06-10T11:07:47Z</time>
      </trkpt>
      <trkpt lat="48.58583" lon="-3.92436">
        <ele>12.9</ele>
        <time>2020-06-10T11:07:48Z</time>
      </trkpt>
      <trkpt lat="48.58591" lon="-3.92429">
        <ele>12.4</ele>
        <time>2020-06-10T11:07:49Z</time>
      </trkpt>
      <trkpt lat="48.58598" lon="-3.92421">
        <ele>11.9</ele>
        <time>2020-06-10T11:07:50Z</time>
      </trkpt>
      <trkpt lat="48.58605" lon="-3.92413">
        <ele>11.4</ele>
        <time>2020-06-10T11:07:51Z</time>
      </trkpt>
      <trkpt lat="48.58613" lon="-3.92407">
        <ele>10.9</ele>
        <time>2020-06-10T11:07:52Z</time>
      </trkpt>
      <trkpt lat="48.58621" lon="-3.924">
        <ele>10.5</ele>
        <time>2020-06-10T11:07:53Z</time>
      </trkpt>
      <trkpt lat="48.58628" lon="-3.92391">
        <ele>10.2</ele>
        <time>2020-06-10T11:07:54Z</time>
      </trkpt>
      <trkpt lat="48.58633" lon="-3.9238">
        <ele>9.9</ele>
        <time>2020-06-10T11:07:55Z</time>
      </trkpt>
      <trkpt lat="48.58636" lon="-3.92368">
        <ele>9.7</ele>
        <time>2020-06-10T11:07:56Z</time>
      </trkpt>
      <trkpt lat="48.58636" lon="-3.92356">
        <ele>9.8</ele>
        <time>2020-06-10T11:07:57Z</time>
      </trkpt>
      <trkpt lat="48.58636" lon="-3.92344">
        <ele>10</ele>
        <time>2020-06-10T11:07:58Z</time>
      </trkpt>
      <trkpt lat="48.58636" lon="-3.92332">
        <ele>10.1</ele>
        <time>2020-06-10T11:07:59Z</time>
      </trkpt>
      <trkpt lat="48.58634" lon="-3.9232">
        <ele>10.3</ele>
        <time>2020-06-10T11:08:00Z</time>
      </trkpt>
      <trkpt lat="48.58633" lon="-3.9231">
        <ele>10.5</ele>
        <time>2020-06-10T11:08:01Z</time>
      </trkpt>
      <trkpt lat="48.58629" lon="-3.923">
        <ele>10.8</ele>
        <time>2020-06-10T11:08:02Z</time>
      </trkpt>
      <trkpt lat="48.58625" lon="-3.92291">
        <ele>11.1</ele>
        <time>2020-06-10T11:08:03Z</time>
      </trkpt>
      <trkpt lat="48.58621" lon="-3.92282">
        <ele>11.2</ele>
        <time>2020-06-10T11:08:04Z</time>
      </trkpt>
      <trkpt lat="48.58616" lon="-3.92276">
        <ele>11.3</ele>
        <time>2020-06-10T11:08:05Z</time>
      </trkpt>
      <trkpt lat="48.58612" lon="-3.92271">
        <ele>11.3</ele>
        <time>2020-06-10T11:08:06Z</time>
      </trkpt>
      <trkpt lat="48.58607" lon="-3.92267">
        <ele>11.4</ele>
        <time>2020-06-10T11:08:07Z</time>
      </trkpt>
      <trkpt lat="48.58603" lon="-3.92264">
        <ele>11.6</ele>
        <time>2020-06-10T11:08:08Z</time>
      </trkpt>
      <trkpt lat="48.58599" lon="-3.9226">
        <ele>11.7</ele>
        <time>2020-06-10T11:08:09Z</time>
      </trkpt>
      <trkpt lat="48.58596" lon="-3.92256">
        <ele>11.9</ele>
        <time>2020-06-10T11:08:10Z</time>
      </trkpt>
      <trkpt lat="48.58593" lon="-3.92253">
        <ele>12.1</ele>
        <time>2020-06-10T11:08:11Z</time>
      </trkpt>
      <trkpt lat="48.5859" lon="-3.92251">
        <ele>12.3</ele>
        <time>2020-06-10T11:08:12Z</time>
      </trkpt>
      <trkpt lat="48.58587" lon="-3.92249">
        <ele>12.4</ele>
        <time>2020-06-10T11:08:13Z</time>
      </trkpt>
      <trkpt lat="48.58585" lon="-3.92246">
        <ele>12.5</ele>
        <time>2020-06-10T11:08:14Z</time>
      </trkpt>
      <trkpt lat="48.58582" lon="-3.92244">
        <ele>12.7</ele>
        <time>2020-06-10T11:08:15Z</time>
      </trkpt>
      <trkpt lat="48.58579" lon="-3.92243">
        <ele>12.8</ele>
        <time>2020-06-10T11:08:16Z</time>
      </trkpt>
      <trkpt lat="48.58576" lon="-3.9224">
        <ele>12.9</ele>
        <time>2020-06-10T11:08:17Z</time>
      </trkpt>
      <trkpt lat="48.58574" lon="-3.92237">
        <ele>13.1</ele>
        <time>2020-06-10T11:08:18Z</time>
      </trkpt>
      <trkpt lat="48.58571" lon="-3.92234">
        <ele>13.3</ele>
        <time>2020-06-10T11:08:19Z</time>
      </trkpt>
      <trkpt lat="48.58568" lon="-3.92231">
        <ele>13.7</ele>
        <time>2020-06-10T11:08:20Z</time>
      </trkpt>
      <trkpt lat="48.58564" lon="-3.92227">
        <ele>14</ele>
        <time>2020-06-10T11:08:21Z</time>
      </trkpt>
      <trkpt lat="48.58561" lon="-3.92222">
        <ele>14.4</ele>
        <time>2020-06-10T11:08:22Z</time>
      </trkpt>
      <trkpt lat="48.58558" lon="-3.92218">
        <ele>14.7</ele>
        <time>2020-06-10T11:08:23Z</time>
      </trkpt>
      <trkpt lat="48.58555" lon="-3.92213">
        <ele>15.1</ele>
        <time>2020-06-10T11:08:24Z</time>
      </trkpt>
      <trkpt lat="48.58552" lon="-3.92208">
        <ele>15.5</ele>
        <time>2020-06-10T11:08:25Z</time>
      </trkpt>
      <trkpt lat="48.58549" lon="-3.92203">
        <ele>15.9</ele>
        <time>2020-06-10T11:08:26Z</time>
      </trkpt>
      <trkpt lat="48.58545" lon="-3.92197">
        <ele>16.3</ele>
        <time>2020-06-10T11:08:27Z</time>
      </trkpt>
      <trkpt lat="48.58542" lon="-3.92192">
        <ele>16.8</ele>
        <time>2020-06-10T11:08:28Z</time>
      </trkpt>
      <trkpt lat="48.58539" lon="-3.92187">
        <ele>17.1</ele>
        <time>2020-06-10T11:08:29Z</time>
      </trkpt>
      <trkpt lat="48.58535" lon="-3.92181">
        <ele>17.6</ele>
        <time>2020-06-10T11:08:30Z</time>
      </trkpt>
      <trkpt lat="48.58533" lon="-3.92177">
        <ele>17.9</ele>
        <time>2020-06-10T11:08:31Z</time>
      </trkpt>
      <trkpt lat="48.58531" lon="-3.92169">
        <ele>18.4</ele>
        <time>2020-06-10T11:08:32Z</time>
      </trkpt>
      <trkpt lat="48.58529" lon="-3.92165">
        <ele>18.6</ele>
        <time>2020-06-10T11:08:33Z</time>
      </trkpt>
      <trkpt lat="48.58528" lon="-3.92161">
        <ele>18.9</ele>
        <time>2020-06-10T11:08:34Z</time>
      </trkpt>
      <trkpt lat="48.58525" lon="-3.92157">
        <ele>19.1</ele>
        <time>2020-06-10T11:08:35Z</time>
      </trkpt>
      <trkpt lat="48.58523" lon="-3.92153">
        <ele>19.4</ele>
        <time>2020-06-10T11:08:36Z</time>
      </trkpt>
      <trkpt lat="48.58522" lon="-3.92151">
        <ele>19.6</ele>
        <time>2020-06-10T11:08:37Z</time>
      </trkpt>
      <trkpt lat="48.58519" lon="-3.92146">
        <ele>19.9</ele>
        <time>2020-06-10T11:08:38Z</time>
      </trkpt>
      <trkpt lat="48.58519" lon="-3.92144">
        <ele>20</ele>
        <time>2020-06-10T11:08:39Z</time>
      </trkpt>
      <trkpt lat="48.58516" lon="-3.92138">
        <ele>20.3</ele>
        <time>2020-06-10T11:08:40Z</time>
      </trkpt>
      <trkpt lat="48.58515" lon="-3.92134">
        <ele>20.5</ele>
        <time>2020-06-10T11:08:41Z</time>
      </trkpt>
      <trkpt lat="48.58514" lon="-3.92128">
        <ele>20.8</ele>
        <time>2020-06-10T11:08:42Z</time>
      </trkpt>
      <trkpt lat="48.58514" lon="-3.92125">
        <ele>21</ele>
        <time>2020-06-10T11:08:43Z</time>
      </trkpt>
      <trkpt lat="48.58513" lon="-3.92121">
        <ele>21.2</ele>
        <time>2020-06-10T11:08:44Z</time>
      </trkpt>
      <trkpt lat="48.58512" lon="-3.92118">
        <ele>21.3</ele>
        <time>2020-06-10T11:08:45Z</time>
      </trkpt>
      <trkpt lat="48.58512" lon="-3.92114">
        <ele>21.5</ele>
        <time>2020-06-10T11:08:46Z</time>
      </trkpt>
      <trkpt lat="48.58511" lon="-3.9211">
        <ele>21.7</ele>
        <time>2020-06-10T11:08:47Z</time>
      </trkpt>
      <trkpt lat="48.58511" lon="-3.92105">
        <ele>21.9</ele>
        <time>2020-06-10T11:08:48Z</time>
      </trkpt>
      <trkpt lat="48.5851" lon="-3.921">
        <ele>22.2</ele>
        <time>2020-06-10T11:08:49Z</time>
      </trkpt>
      <trkpt lat="48.58509" lon="-3.92095">
        <ele>22.5</ele>
        <time>2020-06-10T11:08:50Z</time>
      </trkpt>
      <trkpt lat="48.58508" lon="-3.92093">
        <ele>22.6</ele>
        <time>2020-06-10T11:08:51Z</time>
      </trkpt>
      <trkpt lat="48.58507" lon="-3.92089">
        <ele>22.8</ele>
        <time>2020-06-10T11:08:52Z</time>
      </trkpt>
      <trkpt lat="48.58506" lon="-3.92084">
        <ele>23</ele>
        <time>2020-06-10T11:08:53Z</time>
      </trkpt>
      <trkpt lat="48.58505" lon="-3.92081">
        <ele>23.2</ele>
        <time>2020-06-10T11:08:54Z</time>
      </trkpt>
      <trkpt lat="48.58504" lon="-3.92075">
        <ele>23.5</ele>
        <time>2020-06-10T11:08:55Z</time>
      </trkpt>
      <trkpt lat="48.58503" lon="-3.9207">
        <ele>23.7</ele>
        <time>2020-06-10T11:08:56Z</time>
      </trkpt>
      <trkpt lat="48.58502" lon="-3.92066">
        <ele>23.9</ele>
        <time>2020-06-10T11:08:57Z</time>
      </trkpt>
      <trkpt lat="48.58501" lon="-3.92062">
        <ele>24.1</ele>
        <time>2020-06-10T11:08:58Z</time>
      </trkpt>
      <trkpt lat="48.585" lon="-3.92058">
        <ele>24.3</ele>
        <time>2020-06-10T11:08:59Z</time>
      </trkpt>
      <trkpt lat="48.58499" lon="-3.92053">
        <ele>24.5</ele>
        <time>2020-06-10T11:09:00Z</time>
      </trkpt>
      <trkpt lat="48.58498" lon="-3.92049">
        <ele>24.7</ele>
        <time>2020-06-10T11:09:01Z</time>
      </trkpt>
      <trkpt lat="48.58497" lon="-3.92044">
        <ele>24.9</ele>
        <time>2020-06-10T11:09:02Z</time>
      </trkpt>
      <trkpt lat="48.58496" lon="-3.92039">
        <ele>25.2</ele>
        <time>2020-06-10T11:09:03Z</time>
      </trkpt>
      <trkpt lat="48.58495" lon="-3.92035">
        <ele>25.4</ele>
        <time>2020-06-10T11:09:04Z</time>
      </trkpt>
      <trkpt lat="48.58494" lon="-3.9203">
        <ele>25.7</ele>
        <time>2020-06-10T11:09:05Z</time>
      </trkpt>
      <trkpt lat="48.58493" lon="-3.92025">
        <ele>25.9</ele>
        <time>2020-06-10T11:09:06Z</time>
      </trkpt>
      <trkpt lat="48.58493" lon="-3.92019">
        <ele>26.2</ele>
        <time>2020-06-10T11:09:07Z</time>
      </trkpt>
      <trkpt lat="48.58492" lon="-3.92013">
        <ele>26.5</ele>
        <time>2020-06-10T11:09:08Z</time>
      </trkpt>
      <trkpt lat="48.5849" lon="-3.92006">
        <ele>26.8</ele>
        <time>2020-06-10T11:09:09Z</time>
      </trkpt>
      <trkpt lat="48.58488" lon="-3.92001">
        <ele>27.1</ele>
        <time>2020-06-10T11:09:10Z</time>
      </trkpt>
      <trkpt lat="48.58486" lon="-3.91996">
        <ele>27.3</ele>
        <time>2020-06-10T11:09:11Z</time>
      </trkpt>
      <trkpt lat="48.58486" lon="-3.91991">
        <ele>27.6</ele>
        <time>2020-06-10T11:09:12Z</time>
      </trkpt>
      <trkpt lat="48.58486" lon="-3.91983">
        <ele>27.9</ele>
        <time>2020-06-10T11:09:13Z</time>
      </trkpt>
      <trkpt lat="48.58485" lon="-3.91978">
        <ele>28.1</ele>
        <time>2020-06-10T11:09:14Z</time>
      </trkpt>
      <trkpt lat="48.58485" lon="-3.91972">
        <ele>28.3</ele>
        <time>2020-06-10T11:09:15Z</time>
      </trkpt>
      <trkpt lat="48.58485" lon="-3.91968">
        <ele>28.5</ele>
        <time>2020-06-10T11:09:16Z</time>
      </trkpt>
      <trkpt lat="48.58485" lon="-3.91962">
        <ele>28.7</ele>
        <time>2020-06-10T11:09:17Z</time>
      </trkpt>
      <trkpt lat="48.58485" lon="-3.91957">
        <ele>28.9</ele>
        <time>2020-06-10T11:09:18Z</time>
      </trkpt>
      <trkpt lat="48.58484" lon="-3.91951">
        <ele>29.1</ele>
        <time>2020-06-10T11:09:19Z</time>
      </trkpt>
      <trkpt lat="48.58483" lon="-3.91947">
        <ele>29.3</ele>
        <time>2020-06-10T11:09:20Z</time>
      </trkpt>
      <trkpt lat="48.58483" lon="-3.91941">
        <ele>29.5</ele>
        <time>2020-06-10T11:09:21Z</time>
      </trkpt>
      <trkpt lat="48.58484" lon="-3.91935">
        <ele>29.7</ele>
        <time>2020-06-10T11:09:22Z</time>
      </trkpt>
      <trkpt lat="48.58483" lon="-3.9193">
        <ele>29.9</ele>
        <time>2020-06-10T11:09:23Z</time>
      </trkpt>
      <trkpt lat="48.58483" lon="-3.91925">
        <ele>30.1</ele>
        <time>2020-06-10T11:09:24Z</time>
      </trkpt>
      <trkpt lat="48.58483" lon="-3.91919">
        <ele>30.4</ele>
        <time>2020-06-10T11:09:25Z</time>
      </trkpt>
      <trkpt lat="48.58484" lon="-3.91913">
        <ele>30.7</ele>
        <time>2020-06-10T11:09:26Z</time>
      </trkpt>
      <trkpt lat="48.58484" lon="-3.91908">
        <ele>30.9</ele>
        <time>2020-06-10T11:09:27Z</time>
      </trkpt>
      <trkpt lat="48.58486" lon="-3.91902">
        <ele>31.2</ele>
        <time>2020-06-10T11:09:28Z</time>
      </trkpt>
      <trkpt lat="48.58486" lon="-3.91899">
        <ele>31.3</ele>
        <time>2020-06-10T11:09:29Z</time>
      </trkpt>
      <trkpt lat="48.58486" lon="-3.91893">
        <ele>31.6</ele>
        <time>2020-06-10T11:09:30Z</time>
      </trkpt>
      <trkpt lat="48.58487" lon="-3.91886">
        <ele>31.8</ele>
        <time>2020-06-10T11:09:31Z</time>
      </trkpt>
      <trkpt lat="48.58488" lon="-3.91881">
        <ele>32.1</ele>
        <time>2020-06-10T11:09:32Z</time>
      </trkpt>
      <trkpt lat="48.58488" lon="-3.91874">
        <ele>32.4</ele>
        <time>2020-06-10T11:09:33Z</time>
      </trkpt>
      <trkpt lat="48.5849" lon="-3.91868">
        <ele>32.7</ele>
        <time>2020-06-10T11:09:34Z</time>
      </trkpt>
      <trkpt lat="48.5849" lon="-3.91863">
        <ele>32.9</ele>
        <time>2020-06-10T11:09:35Z</time>
      </trkpt>
      <trkpt lat="48.5849" lon="-3.91856">
        <ele>33.2</ele>
        <time>2020-06-10T11:09:36Z</time>
      </trkpt>
      <trkpt lat="48.58491" lon="-3.91853">
        <ele>33.3</ele>
        <time>2020-06-10T11:09:37Z</time>
      </trkpt>
      <trkpt lat="48.58491" lon="-3.91847">
        <ele>33.6</ele>
        <time>2020-06-10T11:09:38Z</time>
      </trkpt>
      <trkpt lat="48.58491" lon="-3.91842">
        <ele>33.8</ele>
        <time>2020-06-10T11:09:39Z</time>
      </trkpt>
      <trkpt lat="48.58491" lon="-3.91838">
        <ele>34</ele>
        <time>2020-06-10T11:09:40Z</time>
      </trkpt>
      <trkpt lat="48.58491" lon="-3.91833">
        <ele>34.2</ele>
        <time>2020-06-10T11:09:41Z</time>
      </trkpt>
      <trkpt lat="48.58491" lon="-3.91828">
        <ele>34.4</ele>
        <time>2020-06-10T11:09:42Z</time>
      </trkpt>
      <trkpt lat="48.58491" lon="-3.91822">
        <ele>34.6</ele>
        <time>2020-06-10T11:09:43Z</time>
      </trkpt>
      <trkpt lat="48.58491" lon="-3.91817">
        <ele>34.8</ele>
        <time>2020-06-10T11:09:44Z</time>
      </trkpt>
      <trkpt lat="48.58491" lon="-3.91812">
        <ele>35.1</ele>
        <time>2020-06-10T11:09:45Z</time>
      </trkpt>
      <trkpt lat="48.58492" lon="-3.91808">
        <ele>35.3</ele>
        <time>2020-06-10T11:09:46Z</time>
      </trkpt>
      <trkpt lat="48.58492" lon="-3.91802">
        <ele>35.5</ele>
        <time>2020-06-10T11:09:47Z</time>
      </trkpt>
      <trkpt lat="48.58492" lon="-3.91796">
        <ele>35.7</ele>
        <time>2020-06-10T11:09:48Z</time>
      </trkpt>
      <trkpt lat="48.58492" lon="-3.91791">
        <ele>35.9</ele>
        <time>2020-06-10T11:09:49Z</time>
      </trkpt>
      <trkpt lat="48.58492" lon="-3.91785">
        <ele>36.1</ele>
        <time>2020-06-10T11:09:50Z</time>
      </trkpt>
      <trkpt lat="48.58491" lon="-3.9178">
        <ele>36.4</ele>
        <time>2020-06-10T11:09:51Z</time>
      </trkpt>
      <trkpt lat="48.58491" lon="-3.91774">
        <ele>36.6</ele>
        <time>2020-06-10T11:09:52Z</time>
      </trkpt>
      <trkpt lat="48.58489" lon="-3.9177">
        <ele>36.8</ele>
        <time>2020-06-10T11:09:53Z</time>
      </trkpt>
      <trkpt lat="48.58487" lon="-3.91765">
        <ele>37</ele>
        <time>2020-06-10T11:09:54Z</time>
      </trkpt>
      <trkpt lat="48.58485" lon="-3.91761">
        <ele>37.2</ele>
        <time>2020-06-10T11:09:55Z</time>
      </trkpt>
      <trkpt lat="48.58482" lon="-3.91756">
        <ele>37.5</ele>
        <time>2020-06-10T11:09:56Z</time>
      </trkpt>
      <trkpt lat="48.5848" lon="-3.91751">
        <ele>37.7</ele>
        <time>2020-06-10T11:09:57Z</time>
      </trkpt>
      <trkpt lat="48.58479" lon="-3.91746">
        <ele>38</ele>
        <time>2020-06-10T11:09:58Z</time>
      </trkpt>
      <trkpt lat="48.58477" lon="-3.91742">
        <ele>38.1</ele>
        <time>2020-06-10T11:09:59Z</time>
      </trkpt>
      <trkpt lat="48.58475" lon="-3.91738">
        <ele>38.3</ele>
        <time>2020-06-10T11:10:00Z</time>
      </trkpt>
      <trkpt lat="48.58473" lon="-3.91734">
        <ele>38.6</ele>
        <time>2020-06-10T11:10:01Z</time>
      </trkpt>
      <trkpt lat="48.58471" lon="-3.91729">
        <ele>38.8</ele>
        <time>2020-06-10T11:10:02Z</time>
      </trkpt>
      <trkpt lat="48.58469" lon="-3.91724">
        <ele>39</ele>
        <time>2020-06-10T11:10:03Z</time>
      </trkpt>
      <trkpt lat="48.58467" lon="-3.9172">
        <ele>39.2</ele>
        <time>2020-06-10T11:10:04Z</time>
      </trkpt>
      <trkpt lat="48.58466" lon="-3.91715">
        <ele>39.4</ele>
        <time>2020-06-10T11:10:05Z</time>
      </trkpt>
      <trkpt lat="48.58465" lon="-3.91711">
        <ele>39.6</ele>
        <time>2020-06-10T11:10:06Z</time>
      </trkpt>
      <trkpt lat="48.58463" lon="-3.91707">
        <ele>39.8</ele>
        <time>2020-06-10T11:10:07Z</time>
      </trkpt>
      <trkpt lat="48.58461" lon="-3.91702">
        <ele>40</ele>
        <time>2020-06-10T11:10:08Z</time>
      </trkpt>
      <trkpt lat="48.5846" lon="-3.91697">
        <ele>40.3</ele>
        <time>2020-06-10T11:10:09Z</time>
      </trkpt>
      <trkpt lat="48.58459" lon="-3.91692">
        <ele>40.5</ele>
        <time>2020-06-10T11:10:10Z</time>
      </trkpt>
      <trkpt lat="48.58458" lon="-3.91687">
        <ele>40.8</ele>
        <time>2020-06-10T11:10:11Z</time>
      </trkpt>
      <trkpt lat="48.58457" lon="-3.91681">
        <ele>41.1</ele>
        <time>2020-06-10T11:10:12Z</time>
      </trkpt>
      <trkpt lat="48.58456" lon="-3.91677">
        <ele>41.3</ele>
        <time>2020-06-10T11:10:13Z</time>
      </trkpt>
      <trkpt lat="48.58455" lon="-3.91673">
        <ele>41.4</ele>
        <time>2020-06-10T11:10:14Z</time>
      </trkpt>
      <trkpt lat="48.58454" lon="-3.91668">
        <ele>41.6</ele>
        <time>2020-06-10T11:10:15Z</time>
      </trkpt>
      <trkpt lat="48.58453" lon="-3.91665">
        <ele>41.8</ele>
        <time>2020-06-10T11:10:16Z</time>
      </trkpt>
      <trkpt lat="48.58451" lon="-3.91661">
        <ele>41.9</ele>
        <time>2020-06-10T11:10:17Z</time>
      </trkpt>
      <trkpt lat="48.5845" lon="-3.91657">
        <ele>42.1</ele>
        <time>2020-06-10T11:10:18Z</time>
      </trkpt>
      <trkpt lat="48.58449" lon="-3.91653">
        <ele>42.3</ele>
        <time>2020-06-10T11:10:19Z</time>
      </trkpt>
      <trkpt lat="48.58447" lon="-3.91647">
        <ele>42.5</ele>
        <time>2020-06-10T11:10:20Z</time>
      </trkpt>
      <trkpt lat="48.58447" lon="-3.91644">
        <ele>42.7</ele>
        <time>2020-06-10T11:10:21Z</time>
      </trkpt>
      <trkpt lat="48.58446" lon="-3.91639">
        <ele>42.9</ele>
        <time>2020-06-10T11:10:22Z</time>
      </trkpt>
      <trkpt lat="48.58446" lon="-3.91633">
        <ele>43.1</ele>
        <time>2020-06-10T11:10:23Z</time>
      </trkpt>
      <trkpt lat="48.58445" lon="-3.91628">
        <ele>43.3</ele>
        <time>2020-06-10T11:10:24Z</time>
      </trkpt>
      <trkpt lat="48.58445" lon="-3.91622">
        <ele>43.6</ele>
        <time>2020-06-10T11:10:25Z</time>
      </trkpt>
      <trkpt lat="48.58445" lon="-3.91619">
        <ele>43.7</ele>
        <time>2020-06-10T11:10:26Z</time>
      </trkpt>
      <trkpt lat="48.58444" lon="-3.91614">
        <ele>43.9</ele>
        <time>2020-06-10T11:10:27Z</time>
      </trkpt>
      <trkpt lat="48.58444" lon="-3.91609">
        <ele>44.1</ele>
        <time>2020-06-10T11:10:28Z</time>
      </trkpt>
      <trkpt lat="48.58442" lon="-3.91605">
        <ele>44.3</ele>
        <time>2020-06-10T11:10:29Z</time>
      </trkpt>
      <trkpt lat="48.58442" lon="-3.91599">
        <ele>44.6</ele>
        <time>2020-06-10T11:10:30Z</time>
      </trkpt>
      <trkpt lat="48.58441" lon="-3.91595">
        <ele>44.8</ele>
        <time>2020-06-10T11:10:31Z</time>
      </trkpt>
      <trkpt lat="48.58441" lon="-3.9159">
        <ele>45</ele>
        <time>2020-06-10T11:10:32Z</time>
      </trkpt>
      <trkpt lat="48.58441" lon="-3.91584">
        <ele>45.3</ele>
        <time>2020-06-10T11:10:33Z</time>
      </trkpt>
      <trkpt lat="48.58441" lon="-3.91579">
        <ele>45.5</ele>
        <time>2020-06-10T11:10:34Z</time>
      </trkpt>
      <trkpt lat="48.58442" lon="-3.91575">
        <ele>45.6</ele>
        <time>2020-06-10T11:10:35Z</time>
      </trkpt>
      <trkpt lat="48.58442" lon="-3.91571">
        <ele>45.8</ele>
        <time>2020-06-10T11:10:36Z</time>
      </trkpt>
      <trkpt lat="48.58442" lon="-3.91566">
        <ele>46</ele>
        <time>2020-06-10T11:10:37Z</time>
      </trkpt>
      <trkpt lat="48.58441" lon="-3.91561">
        <ele>46.2</ele>
        <time>2020-06-10T11:10:38Z</time>
      </trkpt>
      <trkpt lat="48.58441" lon="-3.91557">
        <ele>46.4</ele>
        <time>2020-06-10T11:10:39Z</time>
      </trkpt>
      <trkpt lat="48.58441" lon="-3.91555">
        <ele>46.5</ele>
        <time>2020-06-10T11:10:40Z</time>
      </trkpt>
      <trkpt lat="48.58441" lon="-3.9155">
        <ele>46.7</ele>
        <time>2020-06-10T11:10:41Z</time>
      </trkpt>
      <trkpt lat="48.58442" lon="-3.91549">
        <ele>46.7</ele>
        <time>2020-06-10T11:10:42Z</time>
      </trkpt>
      <trkpt lat="48.58441" lon="-3.91546">
        <ele>46.9</ele>
        <time>2020-06-10T11:10:43Z</time>
      </trkpt>
      <trkpt lat="48.58441" lon="-3.91543">
        <ele>47</ele>
        <time>2020-06-10T11:10:44Z</time>
      </trkpt>
      <trkpt lat="48.58442" lon="-3.91537">
        <ele>47.2</ele>
        <time>2020-06-10T11:10:45Z</time>
      </trkpt>
      <trkpt lat="48.58442" lon="-3.91535">
        <ele>47.3</ele>
        <time>2020-06-10T11:10:46Z</time>
      </trkpt>
      <trkpt lat="48.58441" lon="-3.91531">
        <ele>47.5</ele>
        <time>2020-06-10T11:10:47Z</time>
      </trkpt>
      <trkpt lat="48.58441" lon="-3.91526">
        <ele>47.7</ele>
        <time>2020-06-10T11:10:48Z</time>
      </trkpt>
      <trkpt lat="48.58441" lon="-3.91522">
        <ele>47.9</ele>
        <time>2020-06-10T11:10:49Z</time>
      </trkpt>
      <trkpt lat="48.58441" lon="-3.91517">
        <ele>48.1</ele>
        <time>2020-06-10T11:10:50Z</time>
      </trkpt>
      <trkpt lat="48.58441" lon="-3.91512">
        <ele>48.3</ele>
        <time>2020-06-10T11:10:51Z</time>
      </trkpt>
      <trkpt lat="48.58441" lon="-3.91511">
        <ele>48.4</ele>
        <time>2020-06-10T11:10:52Z</time>
      </trkpt>
      <trkpt lat="48.58441" lon="-3.91505">
        <ele>48.6</ele>
        <time>2020-06-10T11:10:53Z</time>
      </trkpt>
      <trkpt lat="48.58441" lon="-3.91503">
        <ele>48.7</ele>
        <time>2020-06-10T11:10:54Z</time>
      </trkpt>
      <trkpt lat="48.58441" lon="-3.91498">
        <ele>48.9</ele>
        <time>2020-06-10T11:10:55Z</time>
      </trkpt>
      <trkpt lat="48.58441" lon="-3.91496">
        <ele>49</ele>
        <time>2020-06-10T11:10:56Z</time>
      </trkpt>
      <trkpt lat="48.5844" lon="-3.91492">
        <ele>49.2</ele>
        <time>2020-06-10T11:10:57Z</time>
      </trkpt>
      <trkpt lat="48.5844" lon="-3.91488">
        <ele>49.4</ele>
        <time>2020-06-10T11:10:58Z</time>
      </trkpt>
      <trkpt lat="48.5844" lon="-3.91483">
        <ele>49.6</ele>
        <time>2020-06-10T11:10:59Z</time>
      </trkpt>
      <trkpt lat="48.5844" lon="-3.91481">
        <ele>49.7</ele>
        <time>2020-06-10T11:11:00Z</time>
      </trkpt>
      <trkpt lat="48.5844" lon="-3.91476">
        <ele>49.9</ele>
        <time>2020-06-10T11:11:01Z</time>
      </trkpt>
      <trkpt lat="48.5844" lon="-3.91474">
        <ele>50</ele>
        <time>2020-06-10T11:11:02Z</time>
      </trkpt>
      <trkpt lat="48.58441" lon="-3.91469">
        <ele>50.2</ele>
        <time>2020-06-10T11:11:03Z</time>
      </trkpt>
      <trkpt lat="48.58441" lon="-3.91467">
        <ele>50.3</ele>
        <time>2020-06-10T11:11:04Z</time>
      </trkpt>
      <trkpt lat="48.58441" lon="-3.91462">
        <ele>50.6</ele>
        <time>2020-06-10T11:11:05Z</time>
      </trkpt>
      <trkpt lat="48.58441" lon="-3.9146">
        <ele>50.6</ele>
        <time>2020-06-10T11:11:06Z</time>
      </trkpt>
      <trkpt lat="48.58442" lon="-3.91455">
        <ele>50.9</ele>
        <time>2020-06-10T11:11:07Z</time>
      </trkpt>
      <trkpt lat="48.58442" lon="-3.91453">
        <ele>51</ele>
        <time>2020-06-10T11:11:08Z</time>
      </trkpt>
      <trkpt lat="48.58443" lon="-3.91447">
        <ele>51.3</ele>
        <time>2020-06-10T11:11:09Z</time>
      </trkpt>
      <trkpt lat="48.58443" lon="-3.91445">
        <ele>51.4</ele>
        <time>2020-06-10T11:11:10Z</time>
      </trkpt>
      <trkpt lat="48.58442" lon="-3.91441">
        <ele>51.6</ele>
        <time>2020-06-10T11:11:11Z</time>
      </trkpt>
      <trkpt lat="48.58442" lon="-3.91439">
        <ele>51.7</ele>
        <time>2020-06-10T11:11:12Z</time>
      </trkpt>
      <trkpt lat="48.58441" lon="-3.91434">
        <ele>51.9</ele>
        <time>2020-06-10T11:11:13Z</time>
      </trkpt>
      <trkpt lat="48.58441" lon="-3.91432">
        <ele>52</ele>
        <time>2020-06-10T11:11:14Z</time>
      </trkpt>
      <trkpt lat="48.58441" lon="-3.91426">
        <ele>52.2</ele>
        <time>2020-06-10T11:11:15Z</time>
      </trkpt>
      <trkpt lat="48.58441" lon="-3.91424">
        <ele>52.3</ele>
        <time>2020-06-10T11:11:16Z</time>
      </trkpt>
      <trkpt lat="48.58441" lon="-3.9142">
        <ele>52.5</ele>
        <time>2020-06-10T11:11:17Z</time>
      </trkpt>
      <trkpt lat="48.58441" lon="-3.91416">
        <ele>52.7</ele>
        <time>2020-06-10T11:11:18Z</time>
      </trkpt>
      <trkpt lat="48.58441" lon="-3.91411">
        <ele>52.9</ele>
        <time>2020-06-10T11:11:19Z</time>
      </trkpt>
      <trkpt lat="48.58441" lon="-3.91409">
        <ele>53</ele>
        <time>2020-06-10T11:11:20Z</time>
      </trkpt>
      <trkpt lat="48.58442" lon="-3.91405">
        <ele>53.2</ele>
        <time>2020-06-10T11:11:21Z</time>
      </trkpt>
      <trkpt lat="48.58442" lon="-3.914">
        <ele>53.4</ele>
        <time>2020-06-10T11:11:22Z</time>
      </trkpt>
      <trkpt lat="48.58442" lon="-3.91398">
        <ele>53.5</ele>
        <time>2020-06-10T11:11:23Z</time>
      </trkpt>
      <trkpt lat="48.58441" lon="-3.91394">
        <ele>53.7</ele>
        <time>2020-06-10T11:11:24Z</time>
      </trkpt>
      <trkpt lat="48.58441" lon="-3.91392">
        <ele>53.8</ele>
        <time>2020-06-10T11:11:25Z</time>
      </trkpt>
      <trkpt lat="48.58442" lon="-3.91387">
        <ele>54</ele>
        <time>2020-06-10T11:11:26Z</time>
      </trkpt>
      <trkpt lat="48.58442" lon="-3.91386">
        <ele>54</ele>
        <time>2020-06-10T11:11:27Z</time>
      </trkpt>
      <trkpt lat="48.58444" lon="-3.9138">
        <ele>54.3</ele>
        <time>2020-06-10T11:11:28Z</time>
      </trkpt>
      <trkpt lat="48.58444" lon="-3.91378">
        <ele>54.4</ele>
        <time>2020-06-10T11:11:29Z</time>
      </trkpt>
      <trkpt lat="48.58444" lon="-3.91371">
        <ele>54.7</ele>
        <time>2020-06-10T11:11:30Z</time>
      </trkpt>
      <trkpt lat="48.58444" lon="-3.91369">
        <ele>54.8</ele>
        <time>2020-06-10T11:11:31Z</time>
      </trkpt>
      <trkpt lat="48.58444" lon="-3.91364">
        <ele>55</ele>
        <time>2020-06-10T11:11:32Z</time>
      </trkpt>
      <trkpt lat="48.58444" lon="-3.91363">
        <ele>55</ele>
        <time>2020-06-10T11:11:33Z</time>
      </trkpt>
      <trkpt lat="48.58443" lon="-3.91358">
        <ele>55.2</ele>
        <time>2020-06-10T11:11:34Z</time>
      </trkpt>
      <trkpt lat="48.58443" lon="-3.91357">
        <ele>55.3</ele>
        <time>2020-06-10T11:11:35Z</time>
      </trkpt>
      <trkpt lat="48.58444" lon="-3.91351">
        <ele>55.5</ele>
        <time>2020-06-10T11:11:36Z</time>
      </trkpt>
      <trkpt lat="48.58445" lon="-3.91349">
        <ele>55.6</ele>
        <time>2020-06-10T11:11:37Z</time>
      </trkpt>
      <trkpt lat="48.58446" lon="-3.91345">
        <ele>55.8</ele>
        <time>2020-06-10T11:11:38Z</time>
      </trkpt>
      <trkpt lat="48.58446" lon="-3.91341">
        <ele>56</ele>
        <time>2020-06-10T11:11:39Z</time>
      </trkpt>
      <trkpt lat="48.58446" lon="-3.91335">
        <ele>56.3</ele>
        <time>2020-06-10T11:11:40Z</time>
      </trkpt>
      <trkpt lat="48.58446" lon="-3.91332">
        <ele>56.4</ele>
        <time>2020-06-10T11:11:41Z</time>
      </trkpt>
      <trkpt lat="48.58447" lon="-3.91327">
        <ele>56.6</ele>
        <time>2020-06-10T11:11:42Z</time>
      </trkpt>
      <trkpt lat="48.58448" lon="-3.91324">
        <ele>56.7</ele>
        <time>2020-06-10T11:11:43Z</time>
      </trkpt>
      <trkpt lat="48.58448" lon="-3.91319">
        <ele>57</ele>
        <time>2020-06-10T11:11:44Z</time>
      </trkpt>
      <trkpt lat="48.58448" lon="-3.91317">
        <ele>57.1</ele>
        <time>2020-06-10T11:11:45Z</time>
      </trkpt>
      <trkpt lat="48.58448" lon="-3.91311">
        <ele>57.3</ele>
        <time>2020-06-10T11:11:46Z</time>
      </trkpt>
      <trkpt lat="48.58448" lon="-3.91309">
        <ele>57.4</ele>
        <time>2020-06-10T11:11:47Z</time>
      </trkpt>
      <trkpt lat="48.58449" lon="-3.91303">
        <ele>57.7</ele>
        <time>2020-06-10T11:11:48Z</time>
      </trkpt>
      <trkpt lat="48.5845" lon="-3.91297">
        <ele>57.9</ele>
        <time>2020-06-10T11:11:49Z</time>
      </trkpt>
      <trkpt lat="48.5845" lon="-3.91295">
        <ele>58</ele>
        <time>2020-06-10T11:11:50Z</time>
      </trkpt>
      <trkpt lat="48.5845" lon="-3.91289">
        <ele>58.2</ele>
        <time>2020-06-10T11:11:51Z</time>
      </trkpt>
      <trkpt lat="48.5845" lon="-3.91287">
        <ele>58.3</ele>
        <time>2020-06-10T11:11:52Z</time>
      </trkpt>
      <trkpt lat="48.58451" lon="-3.91282">
        <ele>58.5</ele>
        <time>2020-06-10T11:11:53Z</time>
      </trkpt>
      <trkpt lat="48.58451" lon="-3.9128">
        <ele>58.6</ele>
        <time>2020-06-10T11:11:54Z</time>
      </trkpt>
      <trkpt lat="48.58452" lon="-3.91276">
        <ele>58.8</ele>
        <time>2020-06-10T11:11:55Z</time>
      </trkpt>
      <trkpt lat="48.58452" lon="-3.9127">
        <ele>59</ele>
        <time>2020-06-10T11:11:56Z</time>
      </trkpt>
      <trkpt lat="48.58453" lon="-3.91268">
        <ele>59.1</ele>
        <time>2020-06-10T11:11:57Z</time>
      </trkpt>
      <trkpt lat="48.58453" lon="-3.91263">
        <ele>59.5</ele>
        <time>2020-06-10T11:11:58Z</time>
      </trkpt>
      <trkpt lat="48.58453" lon="-3.91261">
        <ele>59.6</ele>
        <time>2020-06-10T11:11:59Z</time>
      </trkpt>
      <trkpt lat="48.58453" lon="-3.91256">
        <ele>59.8</ele>
        <time>2020-06-10T11:12:00Z</time>
      </trkpt>
      <trkpt lat="48.58454" lon="-3.91254">
        <ele>59.8</ele>
        <time>2020-06-10T11:12:01Z</time>
      </trkpt>
      <trkpt lat="48.58454" lon="-3.9125">
        <ele>60</ele>
        <time>2020-06-10T11:12:02Z</time>
      </trkpt>
      <trkpt lat="48.58455" lon="-3.91245">
        <ele>60.2</ele>
        <time>2020-06-10T11:12:03Z</time>
      </trkpt>
      <trkpt lat="48.58455" lon="-3.91244">
        <ele>60.3</ele>
        <time>2020-06-10T11:12:04Z</time>
      </trkpt>
      <trkpt lat="48.58456" lon="-3.91239">
        <ele>60.5</ele>
        <time>2020-06-10T11:12:05Z</time>
      </trkpt>
      <trkpt lat="48.58456" lon="-3.91237">
        <ele>60.6</ele>
        <time>2020-06-10T11:12:06Z</time>
      </trkpt>
      <trkpt lat="48.58457" lon="-3.91232">
        <ele>60.7</ele>
        <time>2020-06-10T11:12:07Z</time>
      </trkpt>
      <trkpt lat="48.58459" lon="-3.91228">
        <ele>60.9</ele>
        <time>2020-06-10T11:12:08Z</time>
      </trkpt>
      <trkpt lat="48.5846" lon="-3.91223">
        <ele>61.1</ele>
        <time>2020-06-10T11:12:09Z</time>
      </trkpt>
      <trkpt lat="48.5846" lon="-3.91218">
        <ele>61.3</ele>
        <time>2020-06-10T11:12:10Z</time>
      </trkpt>
      <trkpt lat="48.58461" lon="-3.91214">
        <ele>61.4</ele>
        <time>2020-06-10T11:12:11Z</time>
      </trkpt>
      <trkpt lat="48.58462" lon="-3.91209">
        <ele>61.6</ele>
        <time>2020-06-10T11:12:12Z</time>
      </trkpt>
      <trkpt lat="48.58462" lon="-3.91206">
        <ele>61.7</ele>
        <time>2020-06-10T11:12:13Z</time>
      </trkpt>
      <trkpt lat="48.58463" lon="-3.91202">
        <ele>61.8</ele>
        <time>2020-06-10T11:12:14Z</time>
      </trkpt>
      <trkpt lat="48.58464" lon="-3.91197">
        <ele>62</ele>
        <time>2020-06-10T11:12:15Z</time>
      </trkpt>
      <trkpt lat="48.58465" lon="-3.91193">
        <ele>62.1</ele>
        <time>2020-06-10T11:12:16Z</time>
      </trkpt>
      <trkpt lat="48.58467" lon="-3.91189">
        <ele>62.3</ele>
        <time>2020-06-10T11:12:17Z</time>
      </trkpt>
      <trkpt lat="48.58468" lon="-3.91185">
        <ele>62.4</ele>
        <time>2020-06-10T11:12:18Z</time>
      </trkpt>
      <trkpt lat="48.58469" lon="-3.91178">
        <ele>62.6</ele>
        <time>2020-06-10T11:12:19Z</time>
      </trkpt>
      <trkpt lat="48.58469" lon="-3.91176">
        <ele>62.7</ele>
        <time>2020-06-10T11:12:20Z</time>
      </trkpt>
      <trkpt lat="48.5847" lon="-3.91172">
        <ele>62.8</ele>
        <time>2020-06-10T11:12:21Z</time>
      </trkpt>
      <trkpt lat="48.58471" lon="-3.91166">
        <ele>62.9</ele>
        <time>2020-06-10T11:12:22Z</time>
      </trkpt>
      <trkpt lat="48.58472" lon="-3.91164">
        <ele>63</ele>
        <time>2020-06-10T11:12:23Z</time>
      </trkpt>
      <trkpt lat="48.58473" lon="-3.9116">
        <ele>63.1</ele>
        <time>2020-06-10T11:12:24Z</time>
      </trkpt>
      <trkpt lat="48.58473" lon="-3.91156">
        <ele>63.2</ele>
        <time>2020-06-10T11:12:25Z</time>
      </trkpt>
      <trkpt lat="48.58475" lon="-3.9115">
        <ele>63.4</ele>
        <time>2020-06-10T11:12:26Z</time>
      </trkpt>
      <trkpt lat="48.58475" lon="-3.91148">
        <ele>63.5</ele>
        <time>2020-06-10T11:12:27Z</time>
      </trkpt>
      <trkpt lat="48.58477" lon="-3.91145">
        <ele>63.6</ele>
        <time>2020-06-10T11:12:28Z</time>
      </trkpt>
      <trkpt lat="48.58478" lon="-3.9114">
        <ele>63.8</ele>
        <time>2020-06-10T11:12:29Z</time>
      </trkpt>
      <trkpt lat="48.58479" lon="-3.91135">
        <ele>64</ele>
        <time>2020-06-10T11:12:30Z</time>
      </trkpt>
      <trkpt lat="48.58479" lon="-3.9113">
        <ele>64.1</ele>
        <time>2020-06-10T11:12:31Z</time>
      </trkpt>
      <trkpt lat="48.5848" lon="-3.91126">
        <ele>64.3</ele>
        <time>2020-06-10T11:12:32Z</time>
      </trkpt>
      <trkpt lat="48.58482" lon="-3.91121">
        <ele>64.5</ele>
        <time>2020-06-10T11:12:33Z</time>
      </trkpt>
      <trkpt lat="48.58482" lon="-3.91119">
        <ele>64.5</ele>
        <time>2020-06-10T11:12:34Z</time>
      </trkpt>
      <trkpt lat="48.58483" lon="-3.91114">
        <ele>64.7</ele>
        <time>2020-06-10T11:12:35Z</time>
      </trkpt>
      <trkpt lat="48.58484" lon="-3.9111">
        <ele>64.9</ele>
        <time>2020-06-10T11:12:36Z</time>
      </trkpt>
      <trkpt lat="48.58486" lon="-3.91106">
        <ele>65</ele>
        <time>2020-06-10T11:12:37Z</time>
      </trkpt>
      <trkpt lat="48.58486" lon="-3.91102">
        <ele>65.2</ele>
        <time>2020-06-10T11:12:38Z</time>
      </trkpt>
      <trkpt lat="48.58489" lon="-3.91097">
        <ele>65.4</ele>
        <time>2020-06-10T11:12:39Z</time>
      </trkpt>
      <trkpt lat="48.5849" lon="-3.91095">
        <ele>65.5</ele>
        <time>2020-06-10T11:12:40Z</time>
      </trkpt>
      <trkpt lat="48.5849" lon="-3.91091">
        <ele>65.7</ele>
        <time>2020-06-10T11:12:41Z</time>
      </trkpt>
      <trkpt lat="48.58491" lon="-3.91086">
        <ele>65.9</ele>
        <time>2020-06-10T11:12:42Z</time>
      </trkpt>
      <trkpt lat="48.58493" lon="-3.91082">
        <ele>66.1</ele>
        <time>2020-06-10T11:12:43Z</time>
      </trkpt>
      <trkpt lat="48.58494" lon="-3.91076">
        <ele>66.3</ele>
        <time>2020-06-10T11:12:44Z</time>
      </trkpt>
      <trkpt lat="48.58495" lon="-3.91075">
        <ele>66.4</ele>
        <time>2020-06-10T11:12:45Z</time>
      </trkpt>
      <trkpt lat="48.58496" lon="-3.91071">
        <ele>66.6</ele>
        <time>2020-06-10T11:12:46Z</time>
      </trkpt>
      <trkpt lat="48.58496" lon="-3.91066">
        <ele>66.8</ele>
        <time>2020-06-10T11:12:47Z</time>
      </trkpt>
      <trkpt lat="48.58497" lon="-3.91061">
        <ele>67</ele>
        <time>2020-06-10T11:12:48Z</time>
      </trkpt>
      <trkpt lat="48.58498" lon="-3.91056">
        <ele>67.2</ele>
        <time>2020-06-10T11:12:49Z</time>
      </trkpt>
      <trkpt lat="48.58498" lon="-3.91052">
        <ele>67.3</ele>
        <time>2020-06-10T11:12:50Z</time>
      </trkpt>
      <trkpt lat="48.58499" lon="-3.91046">
        <ele>67.6</ele>
        <time>2020-06-10T11:12:51Z</time>
      </trkpt>
      <trkpt lat="48.58499" lon="-3.91045">
        <ele>67.6</ele>
        <time>2020-06-10T11:12:52Z</time>
      </trkpt>
      <trkpt lat="48.58501" lon="-3.9104">
        <ele>67.9</ele>
        <time>2020-06-10T11:12:53Z</time>
      </trkpt>
      <trkpt lat="48.58502" lon="-3.91038">
        <ele>67.9</ele>
        <time>2020-06-10T11:12:54Z</time>
      </trkpt>
      <trkpt lat="48.58503" lon="-3.91033">
        <ele>68.2</ele>
        <time>2020-06-10T11:12:55Z</time>
      </trkpt>
      <trkpt lat="48.58503" lon="-3.9103">
        <ele>68.3</ele>
        <time>2020-06-10T11:12:56Z</time>
      </trkpt>
      <trkpt lat="48.58504" lon="-3.91026">
        <ele>68.5</ele>
        <time>2020-06-10T11:12:57Z</time>
      </trkpt>
      <trkpt lat="48.58505" lon="-3.91021">
        <ele>68.7</ele>
        <time>2020-06-10T11:12:58Z</time>
      </trkpt>
      <trkpt lat="48.58505" lon="-3.91019">
        <ele>68.8</ele>
        <time>2020-06-10T11:12:59Z</time>
      </trkpt>
      <trkpt lat="48.58506" lon="-3.91015">
        <ele>69</ele>
        <time>2020-06-10T11:13:00Z</time>
      </trkpt>
      <trkpt lat="48.58507" lon="-3.91013">
        <ele>69.1</ele>
        <time>2020-06-10T11:13:01Z</time>
      </trkpt>
      <trkpt lat="48.58508" lon="-3.91008">
        <ele>69.3</ele>
        <time>2020-06-10T11:13:02Z</time>
      </trkpt>
      <trkpt lat="48.58509" lon="-3.91004">
        <ele>69.5</ele>
        <time>2020-06-10T11:13:03Z</time>
      </trkpt>
      <trkpt lat="48.5851" lon="-3.90999">
        <ele>69.8</ele>
        <time>2020-06-10T11:13:04Z</time>
      </trkpt>
      <trkpt lat="48.5851" lon="-3.90997">
        <ele>69.9</ele>
        <time>2020-06-10T11:13:05Z</time>
      </trkpt>
      <trkpt lat="48.58511" lon="-3.90991">
        <ele>70.1</ele>
        <time>2020-06-10T11:13:06Z</time>
      </trkpt>
      <trkpt lat="48.58511" lon="-3.90986">
        <ele>70.4</ele>
        <time>2020-06-10T11:13:07Z</time>
      </trkpt>
      <trkpt lat="48.58512" lon="-3.90984">
        <ele>70.4</ele>
        <time>2020-06-10T11:13:08Z</time>
      </trkpt>
      <trkpt lat="48.58512" lon="-3.9098">
        <ele>70.6</ele>
        <time>2020-06-10T11:13:09Z</time>
      </trkpt>
      <trkpt lat="48.58512" lon="-3.90978">
        <ele>70.7</ele>
        <time>2020-06-10T11:13:10Z</time>
      </trkpt>
      <trkpt lat="48.58513" lon="-3.90973">
        <ele>71</ele>
        <time>2020-06-10T11:13:11Z</time>
      </trkpt>
      <trkpt lat="48.58514" lon="-3.90972">
        <ele>71</ele>
        <time>2020-06-10T11:13:12Z</time>
      </trkpt>
      <trkpt lat="48.58514" lon="-3.90967">
        <ele>71.2</ele>
        <time>2020-06-10T11:13:13Z</time>
      </trkpt>
      <trkpt lat="48.58514" lon="-3.90961">
        <ele>71.5</ele>
        <time>2020-06-10T11:13:14Z</time>
      </trkpt>
      <trkpt lat="48.58513" lon="-3.9096">
        <ele>71.6</ele>
        <time>2020-06-10T11:13:15Z</time>
      </trkpt>
      <trkpt lat="48.58513" lon="-3.90954">
        <ele>71.8</ele>
        <time>2020-06-10T11:13:16Z</time>
      </trkpt>
      <trkpt lat="48.58512" lon="-3.90952">
        <ele>71.9</ele>
        <time>2020-06-10T11:13:17Z</time>
      </trkpt>
      <trkpt lat="48.58511" lon="-3.90947">
        <ele>72.1</ele>
        <time>2020-06-10T11:13:18Z</time>
      </trkpt>
      <trkpt lat="48.58511" lon="-3.90945">
        <ele>72.2</ele>
        <time>2020-06-10T11:13:19Z</time>
      </trkpt>
      <trkpt lat="48.58512" lon="-3.90939">
        <ele>72.5</ele>
        <time>2020-06-10T11:13:20Z</time>
      </trkpt>
      <trkpt lat="48.58511" lon="-3.90935">
        <ele>72.7</ele>
        <time>2020-06-10T11:13:21Z</time>
      </trkpt>
      <trkpt lat="48.58511" lon="-3.90933">
        <ele>72.7</ele>
        <time>2020-06-10T11:13:22Z</time>
      </trkpt>
      <trkpt lat="48.58511" lon="-3.90929">
        <ele>72.9</ele>
        <time>2020-06-10T11:13:23Z</time>
      </trkpt>
      <trkpt lat="48.58509" lon="-3.90925">
        <ele>73.1</ele>
        <time>2020-06-10T11:13:24Z</time>
      </trkpt>
      <trkpt lat="48.58506" lon="-3.90921">
        <ele>73.3</ele>
        <time>2020-06-10T11:13:25Z</time>
      </trkpt>
      <trkpt lat="48.58504" lon="-3.90917">
        <ele>73.5</ele>
        <time>2020-06-10T11:13:26Z</time>
      </trkpt>
      <trkpt lat="48.58503" lon="-3.90913">
        <ele>73.7</ele>
        <time>2020-06-10T11:13:27Z</time>
      </trkpt>
      <trkpt lat="48.58502" lon="-3.90908">
        <ele>73.9</ele>
        <time>2020-06-10T11:13:28Z</time>
      </trkpt>
      <trkpt lat="48.58501" lon="-3.90907">
        <ele>74</ele>
        <time>2020-06-10T11:13:29Z</time>
      </trkpt>
      <trkpt lat="48.585" lon="-3.90902">
        <ele>74.3</ele>
        <time>2020-06-10T11:13:30Z</time>
      </trkpt>
      <trkpt lat="48.58499" lon="-3.909">
        <ele>74.3</ele>
        <time>2020-06-10T11:13:31Z</time>
      </trkpt>
      <trkpt lat="48.58497" lon="-3.90895">
        <ele>74.6</ele>
        <time>2020-06-10T11:13:32Z</time>
      </trkpt>
      <trkpt lat="48.58496" lon="-3.90894">
        <ele>74.7</ele>
        <time>2020-06-10T11:13:33Z</time>
      </trkpt>
      <trkpt lat="48.58495" lon="-3.9089">
        <ele>74.9</ele>
        <time>2020-06-10T11:13:34Z</time>
      </trkpt>
      <trkpt lat="48.58494" lon="-3.90888">
        <ele>74.9</ele>
        <time>2020-06-10T11:13:35Z</time>
      </trkpt>
      <trkpt lat="48.58494" lon="-3.90883">
        <ele>75.1</ele>
        <time>2020-06-10T11:13:36Z</time>
      </trkpt>
      <trkpt lat="48.58492" lon="-3.9088">
        <ele>75.3</ele>
        <time>2020-06-10T11:13:37Z</time>
      </trkpt>
      <trkpt lat="48.58491" lon="-3.90876">
        <ele>75.5</ele>
        <time>2020-06-10T11:13:38Z</time>
      </trkpt>
      <trkpt lat="48.58489" lon="-3.9087">
        <ele>75.8</ele>
        <time>2020-06-10T11:13:39Z</time>
      </trkpt>
      <trkpt lat="48.58488" lon="-3.90868">
        <ele>75.9</ele>
        <time>2020-06-10T11:13:40Z</time>
      </trkpt>
      <trkpt lat="48.58486" lon="-3.90863">
        <ele>76.2</ele>
        <time>2020-06-10T11:13:41Z</time>
      </trkpt>
      <trkpt lat="48.58485" lon="-3.90861">
        <ele>76.3</ele>
        <time>2020-06-10T11:13:42Z</time>
      </trkpt>
      <trkpt lat="48.58484" lon="-3.90856">
        <ele>76.5</ele>
        <time>2020-06-10T11:13:43Z</time>
      </trkpt>
      <trkpt lat="48.58482" lon="-3.90853">
        <ele>76.7</ele>
        <time>2020-06-10T11:13:44Z</time>
      </trkpt>
      <trkpt lat="48.5848" lon="-3.90848">
        <ele>77</ele>
        <time>2020-06-10T11:13:45Z</time>
      </trkpt>
      <trkpt lat="48.58478" lon="-3.90846">
        <ele>77.1</ele>
        <time>2020-06-10T11:13:46Z</time>
      </trkpt>
      <trkpt lat="48.58477" lon="-3.90843">
        <ele>77.3</ele>
        <time>2020-06-10T11:13:47Z</time>
      </trkpt>
      <trkpt lat="48.58475" lon="-3.90839">
        <ele>77.5</ele>
        <time>2020-06-10T11:13:48Z</time>
      </trkpt>
      <trkpt lat="48.58474" lon="-3.90835">
        <ele>77.8</ele>
        <time>2020-06-10T11:13:49Z</time>
      </trkpt>
      <trkpt lat="48.58473" lon="-3.90831">
        <ele>78</ele>
        <time>2020-06-10T11:13:50Z</time>
      </trkpt>
      <trkpt lat="48.58473" lon="-3.90827">
        <ele>78.2</ele>
        <time>2020-06-10T11:13:51Z</time>
      </trkpt>
      <trkpt lat="48.58471" lon="-3.90825">
        <ele>78.3</ele>
        <time>2020-06-10T11:13:52Z</time>
      </trkpt>
      <trkpt lat="48.58469" lon="-3.9082">
        <ele>78.6</ele>
        <time>2020-06-10T11:13:53Z</time>
      </trkpt>
      <trkpt lat="48.58469" lon="-3.90819">
        <ele>78.7</ele>
        <time>2020-06-10T11:13:54Z</time>
      </trkpt>
      <trkpt lat="48.58467" lon="-3.90814">
        <ele>78.9</ele>
        <time>2020-06-10T11:13:55Z</time>
      </trkpt>
      <trkpt lat="48.58467" lon="-3.90812">
        <ele>79</ele>
        <time>2020-06-10T11:13:56Z</time>
      </trkpt>
      <trkpt lat="48.58465" lon="-3.90808">
        <ele>79.3</ele>
        <time>2020-06-10T11:13:57Z</time>
      </trkpt>
      <trkpt lat="48.58464" lon="-3.90806">
        <ele>79.4</ele>
        <time>2020-06-10T11:13:58Z</time>
      </trkpt>
      <trkpt lat="48.58463" lon="-3.90801">
        <ele>79.5</ele>
        <time>2020-06-10T11:13:59Z</time>
      </trkpt>
      <trkpt lat="48.58461" lon="-3.90797">
        <ele>79.6</ele>
        <time>2020-06-10T11:14:00Z</time>
      </trkpt>
      <trkpt lat="48.5846" lon="-3.90795">
        <ele>79.6</ele>
        <time>2020-06-10T11:14:01Z</time>
      </trkpt>
      <trkpt lat="48.58459" lon="-3.90789">
        <ele>79.7</ele>
        <time>2020-06-10T11:14:02Z</time>
      </trkpt>
      <trkpt lat="48.58457" lon="-3.90786">
        <ele>79.8</ele>
        <time>2020-06-10T11:14:03Z</time>
      </trkpt>
      <trkpt lat="48.58455" lon="-3.90781">
        <ele>79.9</ele>
        <time>2020-06-10T11:14:04Z</time>
      </trkpt>
      <trkpt lat="48.58454" lon="-3.90776">
        <ele>80.2</ele>
        <time>2020-06-10T11:14:05Z</time>
      </trkpt>
      <trkpt lat="48.58453" lon="-3.90775">
        <ele>80.3</ele>
        <time>2020-06-10T11:14:06Z</time>
      </trkpt>
      <trkpt lat="48.58452" lon="-3.9077">
        <ele>80.6</ele>
        <time>2020-06-10T11:14:07Z</time>
      </trkpt>
      <trkpt lat="48.58451" lon="-3.90768">
        <ele>80.7</ele>
        <time>2020-06-10T11:14:08Z</time>
      </trkpt>
      <trkpt lat="48.5845" lon="-3.90764">
        <ele>80.9</ele>
        <time>2020-06-10T11:14:09Z</time>
      </trkpt>
      <trkpt lat="48.58447" lon="-3.9076">
        <ele>81.2</ele>
        <time>2020-06-10T11:14:10Z</time>
      </trkpt>
      <trkpt lat="48.58447" lon="-3.90759">
        <ele>81.2</ele>
        <time>2020-06-10T11:14:11Z</time>
      </trkpt>
      <trkpt lat="48.58445" lon="-3.90755">
        <ele>81.4</ele>
        <time>2020-06-10T11:14:12Z</time>
      </trkpt>
      <trkpt lat="48.58443" lon="-3.90751">
        <ele>81.7</ele>
        <time>2020-06-10T11:14:13Z</time>
      </trkpt>
      <trkpt lat="48.58442" lon="-3.9075">
        <ele>81.7</ele>
        <time>2020-06-10T11:14:14Z</time>
      </trkpt>
      <trkpt lat="48.5844" lon="-3.90745">
        <ele>82</ele>
        <time>2020-06-10T11:14:15Z</time>
      </trkpt>
      <trkpt lat="48.58439" lon="-3.90743">
        <ele>82.1</ele>
        <time>2020-06-10T11:14:16Z</time>
      </trkpt>
      <trkpt lat="48.58436" lon="-3.90738">
        <ele>82.4</ele>
        <time>2020-06-10T11:14:17Z</time>
      </trkpt>
      <trkpt lat="48.58435" lon="-3.90735">
        <ele>82.5</ele>
        <time>2020-06-10T11:14:18Z</time>
      </trkpt>
      <trkpt lat="48.58434" lon="-3.90731">
        <ele>82.8</ele>
        <time>2020-06-10T11:14:19Z</time>
      </trkpt>
      <trkpt lat="48.58431" lon="-3.90728">
        <ele>83</ele>
        <time>2020-06-10T11:14:20Z</time>
      </trkpt>
      <trkpt lat="48.5843" lon="-3.90725">
        <ele>83.2</ele>
        <time>2020-06-10T11:14:21Z</time>
      </trkpt>
      <trkpt lat="48.58428" lon="-3.90721">
        <ele>83.4</ele>
        <time>2020-06-10T11:14:22Z</time>
      </trkpt>
      <trkpt lat="48.58426" lon="-3.90718">
        <ele>83.6</ele>
        <time>2020-06-10T11:14:23Z</time>
      </trkpt>
      <trkpt lat="48.58424" lon="-3.90713">
        <ele>83.9</ele>
        <time>2020-06-10T11:14:24Z</time>
      </trkpt>
      <trkpt lat="48.58422" lon="-3.90712">
        <ele>84</ele>
        <time>2020-06-10T11:14:25Z</time>
      </trkpt>
      <trkpt lat="48.58421" lon="-3.90708">
        <ele>84.2</ele>
        <time>2020-06-10T11:14:26Z</time>
      </trkpt>
      <trkpt lat="48.58419" lon="-3.90705">
        <ele>84.4</ele>
        <time>2020-06-10T11:14:27Z</time>
      </trkpt>
      <trkpt lat="48.58416" lon="-3.90702">
        <ele>84.6</ele>
        <time>2020-06-10T11:14:28Z</time>
      </trkpt>
      <trkpt lat="48.58413" lon="-3.90698">
        <ele>84.9</ele>
        <time>2020-06-10T11:14:29Z</time>
      </trkpt>
      <trkpt lat="48.58412" lon="-3.90697">
        <ele>85</ele>
        <time>2020-06-10T11:14:30Z</time>
      </trkpt>
      <trkpt lat="48.5841" lon="-3.90694">
        <ele>85.2</ele>
        <time>2020-06-10T11:14:31Z</time>
      </trkpt>
      <trkpt lat="48.58407" lon="-3.90691">
        <ele>85.5</ele>
        <time>2020-06-10T11:14:32Z</time>
      </trkpt>
      <trkpt lat="48.58406" lon="-3.9069">
        <ele>85.6</ele>
        <time>2020-06-10T11:14:33Z</time>
      </trkpt>
      <trkpt lat="48.58405" lon="-3.90686">
        <ele>85.8</ele>
        <time>2020-06-10T11:14:34Z</time>
      </trkpt>
      <trkpt lat="48.58402" lon="-3.90682">
        <ele>86</ele>
        <time>2020-06-10T11:14:35Z</time>
      </trkpt>
      <trkpt lat="48.58401" lon="-3.90681">
        <ele>86.1</ele>
        <time>2020-06-10T11:14:36Z</time>
      </trkpt>
      <trkpt lat="48.58399" lon="-3.90678">
        <ele>86.3</ele>
        <time>2020-06-10T11:14:37Z</time>
      </trkpt>
      <trkpt lat="48.58398" lon="-3.90676">
        <ele>86.4</ele>
        <time>2020-06-10T11:14:38Z</time>
      </trkpt>
      <trkpt lat="48.58395" lon="-3.90673">
        <ele>86.7</ele>
        <time>2020-06-10T11:14:39Z</time>
      </trkpt>
      <trkpt lat="48.58394" lon="-3.90672">
        <ele>86.8</ele>
        <time>2020-06-10T11:14:40Z</time>
      </trkpt>
      <trkpt lat="48.58391" lon="-3.9067">
        <ele>87</ele>
        <time>2020-06-10T11:14:41Z</time>
      </trkpt>
      <trkpt lat="48.58388" lon="-3.90667">
        <ele>87.2</ele>
        <time>2020-06-10T11:14:42Z</time>
      </trkpt>
      <trkpt lat="48.58385" lon="-3.90664">
        <ele>87.5</ele>
        <time>2020-06-10T11:14:43Z</time>
      </trkpt>
      <trkpt lat="48.58384" lon="-3.90663">
        <ele>87.6</ele>
        <time>2020-06-10T11:14:44Z</time>
      </trkpt>
      <trkpt lat="48.58382" lon="-3.9066">
        <ele>87.7</ele>
        <time>2020-06-10T11:14:45Z</time>
      </trkpt>
      <trkpt lat="48.5838" lon="-3.90657">
        <ele>87.9</ele>
        <time>2020-06-10T11:14:46Z</time>
      </trkpt>
      <trkpt lat="48.58378" lon="-3.90654">
        <ele>88.1</ele>
        <time>2020-06-10T11:14:47Z</time>
      </trkpt>
      <trkpt lat="48.58376" lon="-3.9065">
        <ele>88.3</ele>
        <time>2020-06-10T11:14:48Z</time>
      </trkpt>
      <trkpt lat="48.58374" lon="-3.90646">
        <ele>88.5</ele>
        <time>2020-06-10T11:14:49Z</time>
      </trkpt>
      <trkpt lat="48.58372" lon="-3.90642">
        <ele>88.7</ele>
        <time>2020-06-10T11:14:50Z</time>
      </trkpt>
      <trkpt lat="48.5837" lon="-3.90636">
        <ele>89</ele>
        <time>2020-06-10T11:14:51Z</time>
      </trkpt>
      <trkpt lat="48.58368" lon="-3.90632">
        <ele>89.2</ele>
        <time>2020-06-10T11:14:52Z</time>
      </trkpt>
      <trkpt lat="48.58365" lon="-3.90628">
        <ele>89.5</ele>
        <time>2020-06-10T11:14:53Z</time>
      </trkpt>
      <trkpt lat="48.58365" lon="-3.90627">
        <ele>89.5</ele>
        <time>2020-06-10T11:14:54Z</time>
      </trkpt>
      <trkpt lat="48.58363" lon="-3.90624">
        <ele>89.7</ele>
        <time>2020-06-10T11:14:55Z</time>
      </trkpt>
      <trkpt lat="48.5836" lon="-3.90621">
        <ele>89.9</ele>
        <time>2020-06-10T11:14:56Z</time>
      </trkpt>
      <trkpt lat="48.58358" lon="-3.90619">
        <ele>90.1</ele>
        <time>2020-06-10T11:14:57Z</time>
      </trkpt>
      <trkpt lat="48.58356" lon="-3.90616">
        <ele>90.2</ele>
        <time>2020-06-10T11:14:58Z</time>
      </trkpt>
      <trkpt lat="48.58353" lon="-3.90613">
        <ele>90.4</ele>
        <time>2020-06-10T11:14:59Z</time>
      </trkpt>
      <trkpt lat="48.58351" lon="-3.9061">
        <ele>90.6</ele>
        <time>2020-06-10T11:15:00Z</time>
      </trkpt>
      <trkpt lat="48.58349" lon="-3.90607">
        <ele>90.7</ele>
        <time>2020-06-10T11:15:01Z</time>
      </trkpt>
      <trkpt lat="48.58347" lon="-3.90604">
        <ele>90.9</ele>
        <time>2020-06-10T11:15:02Z</time>
      </trkpt>
      <trkpt lat="48.58345" lon="-3.906">
        <ele>91.1</ele>
        <time>2020-06-10T11:15:03Z</time>
      </trkpt>
      <trkpt lat="48.58344" lon="-3.90598">
        <ele>91.2</ele>
        <time>2020-06-10T11:15:04Z</time>
      </trkpt>
      <trkpt lat="48.58342" lon="-3.90595">
        <ele>91.4</ele>
        <time>2020-06-10T11:15:05Z</time>
      </trkpt>
      <trkpt lat="48.58341" lon="-3.90591">
        <ele>91.6</ele>
        <time>2020-06-10T11:15:06Z</time>
      </trkpt>
      <trkpt lat="48.58339" lon="-3.90587">
        <ele>91.7</ele>
        <time>2020-06-10T11:15:07Z</time>
      </trkpt>
      <trkpt lat="48.58337" lon="-3.90584">
        <ele>91.9</ele>
        <time>2020-06-10T11:15:08Z</time>
      </trkpt>
      <trkpt lat="48.58334" lon="-3.90582">
        <ele>92</ele>
        <time>2020-06-10T11:15:09Z</time>
      </trkpt>
      <trkpt lat="48.58332" lon="-3.90578">
        <ele>92.2</ele>
        <time>2020-06-10T11:15:10Z</time>
      </trkpt>
      <trkpt lat="48.58331" lon="-3.90576">
        <ele>92.3</ele>
        <time>2020-06-10T11:15:11Z</time>
      </trkpt>
      <trkpt lat="48.58328" lon="-3.90572">
        <ele>92.5</ele>
        <time>2020-06-10T11:15:12Z</time>
      </trkpt>
      <trkpt lat="48.58327" lon="-3.9057">
        <ele>92.6</ele>
        <time>2020-06-10T11:15:13Z</time>
      </trkpt>
      <trkpt lat="48.58325" lon="-3.90567">
        <ele>92.7</ele>
        <time>2020-06-10T11:15:14Z</time>
      </trkpt>
      <trkpt lat="48.58323" lon="-3.90564">
        <ele>92.9</ele>
        <time>2020-06-10T11:15:15Z</time>
      </trkpt>
      <trkpt lat="48.58319" lon="-3.90561">
        <ele>93.1</ele>
        <time>2020-06-10T11:15:16Z</time>
      </trkpt>
      <trkpt lat="48.58317" lon="-3.9056">
        <ele>93.2</ele>
        <time>2020-06-10T11:15:17Z</time>
      </trkpt>
      <trkpt lat="48.58314" lon="-3.90558">
        <ele>93.3</ele>
        <time>2020-06-10T11:15:18Z</time>
      </trkpt>
      <trkpt lat="48.58311" lon="-3.90555">
        <ele>93.5</ele>
        <time>2020-06-10T11:15:19Z</time>
      </trkpt>
      <trkpt lat="48.58308" lon="-3.90552">
        <ele>93.6</ele>
        <time>2020-06-10T11:15:20Z</time>
      </trkpt>
      <trkpt lat="48.58306" lon="-3.90546">
        <ele>93.8</ele>
        <time>2020-06-10T11:15:21Z</time>
      </trkpt>
      <trkpt lat="48.58306" lon="-3.90545">
        <ele>93.9</ele>
        <time>2020-06-10T11:15:22Z</time>
      </trkpt>
      <trkpt lat="48.58303" lon="-3.90541">
        <ele>94</ele>
        <time>2020-06-10T11:15:23Z</time>
      </trkpt>
      <trkpt lat="48.58302" lon="-3.90538">
        <ele>94.2</ele>
        <time>2020-06-10T11:15:24Z</time>
      </trkpt>
      <trkpt lat="48.583" lon="-3.90534">
        <ele>94.3</ele>
        <time>2020-06-10T11:15:25Z</time>
      </trkpt>
      <trkpt lat="48.58298" lon="-3.90531">
        <ele>94.4</ele>
        <time>2020-06-10T11:15:26Z</time>
      </trkpt>
      <trkpt lat="48.58295" lon="-3.90527">
        <ele>94.6</ele>
        <time>2020-06-10T11:15:27Z</time>
      </trkpt>
      <trkpt lat="48.58294" lon="-3.90526">
        <ele>94.7</ele>
        <time>2020-06-10T11:15:28Z</time>
      </trkpt>
      <trkpt lat="48.58292" lon="-3.90522">
        <ele>94.8</ele>
        <time>2020-06-10T11:15:29Z</time>
      </trkpt>
      <trkpt lat="48.58291" lon="-3.90519">
        <ele>94.9</ele>
        <time>2020-06-10T11:15:30Z</time>
      </trkpt>
      <trkpt lat="48.58287" lon="-3.90515">
        <ele>95.1</ele>
        <time>2020-06-10T11:15:31Z</time>
      </trkpt>
      <trkpt lat="48.58285" lon="-3.90511">
        <ele>95.3</ele>
        <time>2020-06-10T11:15:32Z</time>
      </trkpt>
      <trkpt lat="48.58284" lon="-3.90507">
        <ele>95.4</ele>
        <time>2020-06-10T11:15:33Z</time>
      </trkpt>
      <trkpt lat="48.58281" lon="-3.90503">
        <ele>95.6</ele>
        <time>2020-06-10T11:15:34Z</time>
      </trkpt>
      <trkpt lat="48.58279" lon="-3.905">
        <ele>95.7</ele>
        <time>2020-06-10T11:15:35Z</time>
      </trkpt>
      <trkpt lat="48.58278" lon="-3.90494">
        <ele>95.9</ele>
        <time>2020-06-10T11:15:36Z</time>
      </trkpt>
      <trkpt lat="48.58276" lon="-3.90491">
        <ele>96</ele>
        <time>2020-06-10T11:15:37Z</time>
      </trkpt>
      <trkpt lat="48.58273" lon="-3.90488">
        <ele>96.1</ele>
        <time>2020-06-10T11:15:38Z</time>
      </trkpt>
      <trkpt lat="48.58271" lon="-3.90485">
        <ele>96.3</ele>
        <time>2020-06-10T11:15:39Z</time>
      </trkpt>
      <trkpt lat="48.58269" lon="-3.90481">
        <ele>96.4</ele>
        <time>2020-06-10T11:15:40Z</time>
      </trkpt>
      <trkpt lat="48.58267" lon="-3.90477">
        <ele>96.6</ele>
        <time>2020-06-10T11:15:41Z</time>
      </trkpt>
      <trkpt lat="48.58264" lon="-3.90473">
        <ele>96.8</ele>
        <time>2020-06-10T11:15:42Z</time>
      </trkpt>
      <trkpt lat="48.58263" lon="-3.90472">
        <ele>96.8</ele>
        <time>2020-06-10T11:15:43Z</time>
      </trkpt>
      <trkpt lat="48.58261" lon="-3.90469">
        <ele>97</ele>
        <time>2020-06-10T11:15:44Z</time>
      </trkpt>
      <trkpt lat="48.58259" lon="-3.90465">
        <ele>97.1</ele>
        <time>2020-06-10T11:15:45Z</time>
      </trkpt>
      <trkpt lat="48.58257" lon="-3.90461">
        <ele>97.3</ele>
        <time>2020-06-10T11:15:46Z</time>
      </trkpt>
      <trkpt lat="48.58255" lon="-3.90456">
        <ele>97.5</ele>
        <time>2020-06-10T11:15:47Z</time>
      </trkpt>
      <trkpt lat="48.58253" lon="-3.90453">
        <ele>97.6</ele>
        <time>2020-06-10T11:15:48Z</time>
      </trkpt>
      <trkpt lat="48.5825" lon="-3.90449">
        <ele>97.7</ele>
        <time>2020-06-10T11:15:49Z</time>
      </trkpt>
      <trkpt lat="48.58249" lon="-3.90445">
        <ele>97.9</ele>
        <time>2020-06-10T11:15:50Z</time>
      </trkpt>
      <trkpt lat="48.58247" lon="-3.90442">
        <ele>98</ele>
        <time>2020-06-10T11:15:51Z</time>
      </trkpt>
      <trkpt lat="48.58244" lon="-3.90436">
        <ele>98.2</ele>
        <time>2020-06-10T11:15:52Z</time>
      </trkpt>
      <trkpt lat="48.58242" lon="-3.90432">
        <ele>98.3</ele>
        <time>2020-06-10T11:15:53Z</time>
      </trkpt>
      <trkpt lat="48.5824" lon="-3.90428">
        <ele>98.4</ele>
        <time>2020-06-10T11:15:54Z</time>
      </trkpt>
      <trkpt lat="48.58237" lon="-3.90426">
        <ele>98.5</ele>
        <time>2020-06-10T11:15:55Z</time>
      </trkpt>
      <trkpt lat="48.58236" lon="-3.90419">
        <ele>98.7</ele>
        <time>2020-06-10T11:15:56Z</time>
      </trkpt>
      <trkpt lat="48.58234" lon="-3.90415">
        <ele>98.8</ele>
        <time>2020-06-10T11:15:57Z</time>
      </trkpt>
      <trkpt lat="48.58232" lon="-3.90411">
        <ele>99</ele>
        <time>2020-06-10T11:15:58Z</time>
      </trkpt>
      <trkpt lat="48.5823" lon="-3.90406">
        <ele>99.1</ele>
        <time>2020-06-10T11:15:59Z</time>
      </trkpt>
      <trkpt lat="48.58228" lon="-3.90401">
        <ele>99.2</ele>
        <time>2020-06-10T11:16:00Z</time>
      </trkpt>
      <trkpt lat="48.58227" lon="-3.90396">
        <ele>99.3</ele>
        <time>2020-06-10T11:16:01Z</time>
      </trkpt>
      <trkpt lat="48.58225" lon="-3.90391">
        <ele>99.5</ele>
        <time>2020-06-10T11:16:02Z</time>
      </trkpt>
      <trkpt lat="48.58222" lon="-3.90387">
        <ele>99.6</ele>
        <time>2020-06-10T11:16:03Z</time>
      </trkpt>
      <trkpt lat="48.5822" lon="-3.90381">
        <ele>99.7</ele>
        <time>2020-06-10T11:16:04Z</time>
      </trkpt>
      <trkpt lat="48.58219" lon="-3.90377">
        <ele>99.8</ele>
        <time>2020-06-10T11:16:05Z</time>
      </trkpt>
      <trkpt lat="48.58216" lon="-3.90374">
        <ele>99.9</ele>
        <time>2020-06-10T11:16:06Z</time>
      </trkpt>
      <trkpt lat="48.58215" lon="-3.90369">
        <ele>99.9</ele>
        <time>2020-06-10T11:16:07Z</time>
      </trkpt>
      <trkpt lat="48.58213" lon="-3.90365">
        <ele>100</ele>
        <time>2020-06-10T11:16:08Z</time>
      </trkpt>
      <trkpt lat="48.58211" lon="-3.9036">
        <ele>100.1</ele>
        <time>2020-06-10T11:16:09Z</time>
      </trkpt>
      <trkpt lat="48.58209" lon="-3.90357">
        <ele>100.1</ele>
        <time>2020-06-10T11:16:10Z</time>
      </trkpt>
      <trkpt lat="48.58208" lon="-3.90353">
        <ele>100.1</ele>
        <time>2020-06-10T11:16:11Z</time>
      </trkpt>
      <trkpt lat="48.58206" lon="-3.9035">
        <ele>100.1</ele>
        <time>2020-06-10T11:16:12Z</time>
      </trkpt>
      <trkpt lat="48.58204" lon="-3.90345">
        <ele>100.1</ele>
        <time>2020-06-10T11:16:13Z</time>
      </trkpt>
      <trkpt lat="48.58204" lon="-3.90344">
        <ele>100.1</ele>
        <time>2020-06-10T11:16:14Z</time>
      </trkpt>
      <trkpt lat="48.58202" lon="-3.9034">
        <ele>100.1</ele>
        <time>2020-06-10T11:16:15Z</time>
      </trkpt>
      <trkpt lat="48.58202" lon="-3.90339">
        <ele>100.2</ele>
        <time>2020-06-10T11:16:16Z</time>
      </trkpt>
      <trkpt lat="48.58202" lon="-3.90338">
        <ele>100.2</ele>
        <time>2020-06-10T11:16:17Z</time>
      </trkpt>
      <trkpt lat="48.58203" lon="-3.90338">
        <ele>100.2</ele>
        <time>2020-06-10T11:16:18Z</time>
      </trkpt>
      <trkpt lat="48.58203" lon="-3.90338">
        <ele>100.2</ele>
        <time>2020-06-10T11:16:19Z</time>
      </trkpt>
      <trkpt lat="48.58204" lon="-3.90339">
        <ele>100.2</ele>
        <time>2020-06-10T11:16:20Z</time>
      </trkpt>
      <trkpt lat="48.58204" lon="-3.90339">
        <ele>100.2</ele>
        <time>2020-06-10T11:16:21Z</time>
      </trkpt>
      <trkpt lat="48.58204" lon="-3.90339">
        <ele>100.2</ele>
        <time>2020-06-10T11:16:22Z</time>
      </trkpt>
      <trkpt lat="48.58205" lon="-3.9034">
        <ele>100.2</ele>
        <time>2020-06-10T11:16:23Z</time>
      </trkpt>
      <trkpt lat="48.58205" lon="-3.9034">
        <ele>100.2</ele>
        <time>2020-06-10T11:16:24Z</time>
      </trkpt>
      <trkpt lat="48.58205" lon="-3.9034">
        <ele>100.2</ele>
        <time>2020-06-10T11:16:25Z</time>
      </trkpt>
      <trkpt lat="48.58204" lon="-3.90336">
        <ele>100.2</ele>
        <time>2020-06-10T11:16:26Z</time>
      </trkpt>
      <trkpt lat="48.58203" lon="-3.90332">
        <ele>100.3</ele>
        <time>2020-06-10T11:16:27Z</time>
      </trkpt>
      <trkpt lat="48.58201" lon="-3.90328">
        <ele>100.3</ele>
        <time>2020-06-10T11:16:28Z</time>
      </trkpt>
      <trkpt lat="48.582" lon="-3.90324">
        <ele>100.3</ele>
        <time>2020-06-10T11:19:33Z</time>
      </trkpt>
      <trkpt lat="48.58199" lon="-3.9032">
        <ele>100.3</ele>
        <time>2020-06-10T11:19:34Z</time>
      </trkpt>
      <trkpt lat="48.58198" lon="-3.90316">
        <ele>100.3</ele>
        <time>2020-06-10T11:19:35Z</time>
      </trkpt>
      <trkpt lat="48.58198" lon="-3.90312">
        <ele>100.3</ele>
        <time>2020-06-10T11:19:36Z</time>
      </trkpt>
      <trkpt lat="48.58197" lon="-3.90307">
        <ele>100.3</ele>
        <time>2020-06-10T11:19:37Z</time>
      </trkpt>
      <trkpt lat="48.58196" lon="-3.90302">
        <ele>100.3</ele>
        <time>2020-06-10T11:19:38Z</time>
      </trkpt>
      <trkpt lat="48.58195" lon="-3.90297">
        <ele>100.4</ele>
        <time>2020-06-10T11:19:39Z</time>
      </trkpt>
      <trkpt lat="48.58193" lon="-3.90293">
        <ele>100.4</ele>
        <time>2020-06-10T11:19:40Z</time>
      </trkpt>
      <trkpt lat="48.58192" lon="-3.90287">
        <ele>100.4</ele>
        <time>2020-06-10T11:19:41Z</time>
      </trkpt>
      <trkpt lat="48.58191" lon="-3.90282">
        <ele>100.3</ele>
        <time>2020-06-10T11:19:42Z</time>
      </trkpt>
      <trkpt lat="48.5819" lon="-3.90276">
        <ele>100.3</ele>
        <time>2020-06-10T11:19:43Z</time>
      </trkpt>
      <trkpt lat="48.58189" lon="-3.90271">
        <ele>100.3</ele>
        <time>2020-06-10T11:19:44Z</time>
      </trkpt>
      <trkpt lat="48.58188" lon="-3.90264">
        <ele>100.3</ele>
        <time>2020-06-10T11:19:45Z</time>
      </trkpt>
      <trkpt lat="48.58186" lon="-3.90257">
        <ele>100.3</ele>
        <time>2020-06-10T11:19:46Z</time>
      </trkpt>
      <trkpt lat="48.58185" lon="-3.90251">
        <ele>100.2</ele>
        <time>2020-06-10T11:19:47Z</time>
      </trkpt>
      <trkpt lat="48.58184" lon="-3.90245">
        <ele>100.2</ele>
        <time>2020-06-10T11:19:48Z</time>
      </trkpt>
      <trkpt lat="48.58182" lon="-3.90239">
        <ele>100.2</ele>
        <time>2020-06-10T11:19:49Z</time>
      </trkpt>
      <trkpt lat="48.5818" lon="-3.90233">
        <ele>100.2</ele>
        <time>2020-06-10T11:19:50Z</time>
      </trkpt>
      <trkpt lat="48.58179" lon="-3.90226">
        <ele>100.1</ele>
        <time>2020-06-10T11:19:51Z</time>
      </trkpt>
      <trkpt lat="48.58178" lon="-3.90218">
        <ele>100.1</ele>
        <time>2020-06-10T11:19:52Z</time>
      </trkpt>
      <trkpt lat="48.58176" lon="-3.90211">
        <ele>100</ele>
        <time>2020-06-10T11:19:53Z</time>
      </trkpt>
      <trkpt lat="48.58175" lon="-3.90203">
        <ele>99.9</ele>
        <time>2020-06-10T11:19:54Z</time>
      </trkpt>
      <trkpt lat="48.58174" lon="-3.90196">
        <ele>99.8</ele>
        <time>2020-06-10T11:19:55Z</time>
      </trkpt>
      <trkpt lat="48.58172" lon="-3.90187">
        <ele>99.7</ele>
        <time>2020-06-10T11:19:56Z</time>
      </trkpt>
      <trkpt lat="48.58169" lon="-3.90179">
        <ele>99.6</ele>
        <time>2020-06-10T11:19:57Z</time>
      </trkpt>
      <trkpt lat="48.58167" lon="-3.90172">
        <ele>99.5</ele>
        <time>2020-06-10T11:19:58Z</time>
      </trkpt>
      <trkpt lat="48.58165" lon="-3.90164">
        <ele>99.4</ele>
        <time>2020-06-10T11:19:59Z</time>
      </trkpt>
      <trkpt lat="48.58163" lon="-3.90155">
        <ele>99.3</ele>
        <time>2020-06-10T11:20:00Z</time>
      </trkpt>
      <trkpt lat="48.58162" lon="-3.90147">
        <ele>99.1</ele>
        <time>2020-06-10T11:20:01Z</time>
      </trkpt>
      <trkpt lat="48.58161" lon="-3.90139">
        <ele>99</ele>
        <time>2020-06-10T11:20:02Z</time>
      </trkpt>
      <trkpt lat="48.58159" lon="-3.9013">
        <ele>98.9</ele>
        <time>2020-06-10T11:20:03Z</time>
      </trkpt>
      <trkpt lat="48.58158" lon="-3.90121">
        <ele>98.7</ele>
        <time>2020-06-10T11:20:04Z</time>
      </trkpt>
      <trkpt lat="48.58156" lon="-3.90112">
        <ele>98.6</ele>
        <time>2020-06-10T11:20:05Z</time>
      </trkpt>
      <trkpt lat="48.58154" lon="-3.90103">
        <ele>98.5</ele>
        <time>2020-06-10T11:20:06Z</time>
      </trkpt>
      <trkpt lat="48.58152" lon="-3.90092">
        <ele>98.3</ele>
        <time>2020-06-10T11:20:07Z</time>
      </trkpt>
      <trkpt lat="48.5815" lon="-3.9008">
        <ele>98.2</ele>
        <time>2020-06-10T11:20:08Z</time>
      </trkpt>
      <trkpt lat="48.58148" lon="-3.90071">
        <ele>98.1</ele>
        <time>2020-06-10T11:20:09Z</time>
      </trkpt>
      <trkpt lat="48.58146" lon="-3.90063">
        <ele>98</ele>
        <time>2020-06-10T11:20:10Z</time>
      </trkpt>
      <trkpt lat="48.58144" lon="-3.90054">
        <ele>98</ele>
        <time>2020-06-10T11:20:11Z</time>
      </trkpt>
      <trkpt lat="48.58141" lon="-3.90044">
        <ele>97.9</ele>
        <time>2020-06-10T11:20:12Z</time>
      </trkpt>
      <trkpt lat="48.5814" lon="-3.90034">
        <ele>97.8</ele>
        <time>2020-06-10T11:20:13Z</time>
      </trkpt>
      <trkpt lat="48.58138" lon="-3.90025">
        <ele>97.8</ele>
        <time>2020-06-10T11:20:14Z</time>
      </trkpt>
      <trkpt lat="48.58135" lon="-3.90014">
        <ele>97.6</ele>
        <time>2020-06-10T11:20:15Z</time>
      </trkpt>
      <trkpt lat="48.58132" lon="-3.90001">
        <ele>97.4</ele>
        <time>2020-06-10T11:20:16Z</time>
      </trkpt>
      <trkpt lat="48.5813" lon="-3.89991">
        <ele>97.3</ele>
        <time>2020-06-10T11:20:17Z</time>
      </trkpt>
      <trkpt lat="48.58128" lon="-3.89983">
        <ele>97.2</ele>
        <time>2020-06-10T11:20:18Z</time>
      </trkpt>
      <trkpt lat="48.58125" lon="-3.89974">
        <ele>97.2</ele>
        <time>2020-06-10T11:20:19Z</time>
      </trkpt>
      <trkpt lat="48.58123" lon="-3.89966">
        <ele>97.1</ele>
        <time>2020-06-10T11:20:20Z</time>
      </trkpt>
      <trkpt lat="48.58119" lon="-3.89958">
        <ele>97.1</ele>
        <time>2020-06-10T11:20:21Z</time>
      </trkpt>
      <trkpt lat="48.58117" lon="-3.89949">
        <ele>97</ele>
        <time>2020-06-10T11:20:22Z</time>
      </trkpt>
      <trkpt lat="48.58115" lon="-3.89939">
        <ele>97</ele>
        <time>2020-06-10T11:20:23Z</time>
      </trkpt>
      <trkpt lat="48.58113" lon="-3.8993">
        <ele>96.9</ele>
        <time>2020-06-10T11:20:24Z</time>
      </trkpt>
      <trkpt lat="48.58111" lon="-3.89919">
        <ele>96.8</ele>
        <time>2020-06-10T11:20:25Z</time>
      </trkpt>
      <trkpt lat="48.58109" lon="-3.8991">
        <ele>96.7</ele>
        <time>2020-06-10T11:20:26Z</time>
      </trkpt>
      <trkpt lat="48.58107" lon="-3.89901">
        <ele>96.7</ele>
        <time>2020-06-10T11:20:27Z</time>
      </trkpt>
      <trkpt lat="48.58105" lon="-3.89892">
        <ele>96.6</ele>
        <time>2020-06-10T11:20:28Z</time>
      </trkpt>
      <trkpt lat="48.58102" lon="-3.89883">
        <ele>96.6</ele>
        <time>2020-06-10T11:20:29Z</time>
      </trkpt>
      <trkpt lat="48.581" lon="-3.89873">
        <ele>96.6</ele>
        <time>2020-06-10T11:20:30Z</time>
      </trkpt>
      <trkpt lat="48.58097" lon="-3.89862">
        <ele>96.5</ele>
        <time>2020-06-10T11:20:31Z</time>
      </trkpt>
      <trkpt lat="48.58095" lon="-3.89853">
        <ele>96.5</ele>
        <time>2020-06-10T11:20:32Z</time>
      </trkpt>
      <trkpt lat="48.58093" lon="-3.89844">
        <ele>96.5</ele>
        <time>2020-06-10T11:20:33Z</time>
      </trkpt>
      <trkpt lat="48.58091" lon="-3.89835">
        <ele>96.4</ele>
        <time>2020-06-10T11:20:34Z</time>
      </trkpt>
      <trkpt lat="48.58089" lon="-3.89826">
        <ele>96.4</ele>
        <time>2020-06-10T11:20:35Z</time>
      </trkpt>
      <trkpt lat="48.58087" lon="-3.89816">
        <ele>96.4</ele>
        <time>2020-06-10T11:20:36Z</time>
      </trkpt>
      <trkpt lat="48.58085" lon="-3.89806">
        <ele>96.3</ele>
        <time>2020-06-10T11:20:37Z</time>
      </trkpt>
      <trkpt lat="48.58083" lon="-3.89796">
        <ele>96.3</ele>
        <time>2020-06-10T11:20:38Z</time>
      </trkpt>
      <trkpt lat="48.58081" lon="-3.89787">
        <ele>96.3</ele>
        <time>2020-06-10T11:20:39Z</time>
      </trkpt>
      <trkpt lat="48.58079" lon="-3.89777">
        <ele>96.3</ele>
        <time>2020-06-10T11:20:40Z</time>
      </trkpt>
      <trkpt lat="48.58077" lon="-3.89768">
        <ele>96.3</ele>
        <time>2020-06-10T11:20:41Z</time>
      </trkpt>
      <trkpt lat="48.58075" lon="-3.89758">
        <ele>96.2</ele>
        <time>2020-06-10T11:20:42Z</time>
      </trkpt>
      <trkpt lat="48.58073" lon="-3.89749">
        <ele>96.2</ele>
        <time>2020-06-10T11:20:43Z</time>
      </trkpt>
      <trkpt lat="48.58071" lon="-3.89738">
        <ele>96.2</ele>
        <time>2020-06-10T11:20:44Z</time>
      </trkpt>
      <trkpt lat="48.58069" lon="-3.89728">
        <ele>96.1</ele>
        <time>2020-06-10T11:20:45Z</time>
      </trkpt>
      <trkpt lat="48.58067" lon="-3.89719">
        <ele>96.1</ele>
        <time>2020-06-10T11:20:46Z</time>
      </trkpt>
      <trkpt lat="48.58066" lon="-3.89709">
        <ele>96.1</ele>
        <time>2020-06-10T11:20:47Z</time>
      </trkpt>
      <trkpt lat="48.58066" lon="-3.89698">
        <ele>96.1</ele>
        <time>2020-06-10T11:20:48Z</time>
      </trkpt>
      <trkpt lat="48.58065" lon="-3.89687">
        <ele>96.1</ele>
        <time>2020-06-10T11:20:49Z</time>
      </trkpt>
      <trkpt lat="48.58064" lon="-3.89676">
        <ele>96</ele>
        <time>2020-06-10T11:20:50Z</time>
      </trkpt>
      <trkpt lat="48.58063" lon="-3.89665">
        <ele>96</ele>
        <time>2020-06-10T11:20:51Z</time>
      </trkpt>
      <trkpt lat="48.58062" lon="-3.89654">
        <ele>96</ele>
        <time>2020-06-10T11:20:52Z</time>
      </trkpt>
      <trkpt lat="48.58062" lon="-3.89645">
        <ele>96</ele>
        <time>2020-06-10T11:20:53Z</time>
      </trkpt>
      <trkpt lat="48.58062" lon="-3.89635">
        <ele>96</ele>
        <time>2020-06-10T11:20:54Z</time>
      </trkpt>
      <trkpt lat="48.58063" lon="-3.89625">
        <ele>96</ele>
        <time>2020-06-10T11:20:55Z</time>
      </trkpt>
      <trkpt lat="48.58063" lon="-3.89616">
        <ele>96</ele>
        <time>2020-06-10T11:20:56Z</time>
      </trkpt>
      <trkpt lat="48.58063" lon="-3.89609">
        <ele>95.9</ele>
        <time>2020-06-10T11:20:57Z</time>
      </trkpt>
      <trkpt lat="48.58062" lon="-3.896">
        <ele>95.9</ele>
        <time>2020-06-10T11:20:58Z</time>
      </trkpt>
      <trkpt lat="48.58061" lon="-3.89591">
        <ele>95.9</ele>
        <time>2020-06-10T11:20:59Z</time>
      </trkpt>
      <trkpt lat="48.58061" lon="-3.89581">
        <ele>95.8</ele>
        <time>2020-06-10T11:21:00Z</time>
      </trkpt>
      <trkpt lat="48.58061" lon="-3.89572">
        <ele>95.7</ele>
        <time>2020-06-10T11:21:01Z</time>
      </trkpt>
      <trkpt lat="48.5806" lon="-3.89563">
        <ele>95.7</ele>
        <time>2020-06-10T11:21:02Z</time>
      </trkpt>
      <trkpt lat="48.58059" lon="-3.89554">
        <ele>95.6</ele>
        <time>2020-06-10T11:21:03Z</time>
      </trkpt>
      <trkpt lat="48.58058" lon="-3.89544">
        <ele>95.5</ele>
        <time>2020-06-10T11:21:04Z</time>
      </trkpt>
      <trkpt lat="48.58058" lon="-3.89533">
        <ele>95.3</ele>
        <time>2020-06-10T11:21:05Z</time>
      </trkpt>
      <trkpt lat="48.58059" lon="-3.89522">
        <ele>95.1</ele>
        <time>2020-06-10T11:21:06Z</time>
      </trkpt>
      <trkpt lat="48.58058" lon="-3.89512">
        <ele>94.9</ele>
        <time>2020-06-10T11:21:07Z</time>
      </trkpt>
      <trkpt lat="48.58058" lon="-3.89502">
        <ele>94.7</ele>
        <time>2020-06-10T11:21:08Z</time>
      </trkpt>
      <trkpt lat="48.58058" lon="-3.89491">
        <ele>94.4</ele>
        <time>2020-06-10T11:21:09Z</time>
      </trkpt>
      <trkpt lat="48.58057" lon="-3.8948">
        <ele>94.2</ele>
        <time>2020-06-10T11:21:10Z</time>
      </trkpt>
      <trkpt lat="48.58057" lon="-3.89469">
        <ele>94</ele>
        <time>2020-06-10T11:21:11Z</time>
      </trkpt>
      <trkpt lat="48.58057" lon="-3.89457">
        <ele>93.8</ele>
        <time>2020-06-10T11:21:12Z</time>
      </trkpt>
      <trkpt lat="48.58057" lon="-3.89446">
        <ele>93.6</ele>
        <time>2020-06-10T11:21:13Z</time>
      </trkpt>
      <trkpt lat="48.58056" lon="-3.89434">
        <ele>93.4</ele>
        <time>2020-06-10T11:21:14Z</time>
      </trkpt>
      <trkpt lat="48.58056" lon="-3.89422">
        <ele>93.3</ele>
        <time>2020-06-10T11:21:15Z</time>
      </trkpt>
      <trkpt lat="48.58055" lon="-3.89409">
        <ele>93.1</ele>
        <time>2020-06-10T11:21:16Z</time>
      </trkpt>
      <trkpt lat="48.58055" lon="-3.89397">
        <ele>92.9</ele>
        <time>2020-06-10T11:21:17Z</time>
      </trkpt>
      <trkpt lat="48.58054" lon="-3.89385">
        <ele>92.7</ele>
        <time>2020-06-10T11:21:18Z</time>
      </trkpt>
      <trkpt lat="48.58054" lon="-3.89372">
        <ele>92.5</ele>
        <time>2020-06-10T11:21:19Z</time>
      </trkpt>
      <trkpt lat="48.58053" lon="-3.89359">
        <ele>92.3</ele>
        <time>2020-06-10T11:21:20Z</time>
      </trkpt>
      <trkpt lat="48.58053" lon="-3.89346">
        <ele>92.1</ele>
        <time>2020-06-10T11:21:21Z</time>
      </trkpt>
      <trkpt lat="48.58052" lon="-3.89333">
        <ele>91.9</ele>
        <time>2020-06-10T11:21:22Z</time>
      </trkpt>
      <trkpt lat="48.58052" lon="-3.8932">
        <ele>91.7</ele>
        <time>2020-06-10T11:21:23Z</time>
      </trkpt>
      <trkpt lat="48.58051" lon="-3.89306">
        <ele>91.5</ele>
        <time>2020-06-10T11:21:24Z</time>
      </trkpt>
      <trkpt lat="48.5805" lon="-3.89293">
        <ele>91.3</ele>
        <time>2020-06-10T11:21:25Z</time>
      </trkpt>
      <trkpt lat="48.5805" lon="-3.89279">
        <ele>91.2</ele>
        <time>2020-06-10T11:21:26Z</time>
      </trkpt>
      <trkpt lat="48.58049" lon="-3.89265">
        <ele>91.1</ele>
        <time>2020-06-10T11:21:27Z</time>
      </trkpt>
      <trkpt lat="48.58048" lon="-3.89252">
        <ele>90.9</ele>
        <time>2020-06-10T11:21:28Z</time>
      </trkpt>
      <trkpt lat="48.58048" lon="-3.89239">
        <ele>90.8</ele>
        <time>2020-06-10T11:21:29Z</time>
      </trkpt>
      <trkpt lat="48.58046" lon="-3.89226">
        <ele>90.7</ele>
        <time>2020-06-10T11:21:30Z</time>
      </trkpt>
      <trkpt lat="48.58045" lon="-3.89213">
        <ele>90.7</ele>
        <time>2020-06-10T11:21:31Z</time>
      </trkpt>
      <trkpt lat="48.58044" lon="-3.89201">
        <ele>90.6</ele>
        <time>2020-06-10T11:21:32Z</time>
      </trkpt>
      <trkpt lat="48.58044" lon="-3.89189">
        <ele>90.6</ele>
        <time>2020-06-10T11:21:33Z</time>
      </trkpt>
      <trkpt lat="48.58043" lon="-3.89176">
        <ele>90.6</ele>
        <time>2020-06-10T11:21:34Z</time>
      </trkpt>
      <trkpt lat="48.58043" lon="-3.89163">
        <ele>90.6</ele>
        <time>2020-06-10T11:21:35Z</time>
      </trkpt>
      <trkpt lat="48.58042" lon="-3.8915">
        <ele>90.6</ele>
        <time>2020-06-10T11:21:36Z</time>
      </trkpt>
      <trkpt lat="48.58041" lon="-3.89137">
        <ele>90.7</ele>
        <time>2020-06-10T11:21:37Z</time>
      </trkpt>
      <trkpt lat="48.58039" lon="-3.89126">
        <ele>90.7</ele>
        <time>2020-06-10T11:21:38Z</time>
      </trkpt>
      <trkpt lat="48.58038" lon="-3.89114">
        <ele>90.7</ele>
        <time>2020-06-10T11:21:39Z</time>
      </trkpt>
      <trkpt lat="48.58038" lon="-3.89102">
        <ele>90.8</ele>
        <time>2020-06-10T11:21:40Z</time>
      </trkpt>
      <trkpt lat="48.58037" lon="-3.8909">
        <ele>90.8</ele>
        <time>2020-06-10T11:21:41Z</time>
      </trkpt>
      <trkpt lat="48.58037" lon="-3.89078">
        <ele>90.9</ele>
        <time>2020-06-10T11:21:42Z</time>
      </trkpt>
      <trkpt lat="48.58036" lon="-3.89066">
        <ele>90.9</ele>
        <time>2020-06-10T11:21:43Z</time>
      </trkpt>
      <trkpt lat="48.58035" lon="-3.89054">
        <ele>91</ele>
        <time>2020-06-10T11:21:44Z</time>
      </trkpt>
      <trkpt lat="48.58034" lon="-3.89043">
        <ele>91</ele>
        <time>2020-06-10T11:21:45Z</time>
      </trkpt>
      <trkpt lat="48.58033" lon="-3.89031">
        <ele>91.1</ele>
        <time>2020-06-10T11:21:46Z</time>
      </trkpt>
      <trkpt lat="48.58032" lon="-3.8902">
        <ele>91.1</ele>
        <time>2020-06-10T11:21:47Z</time>
      </trkpt>
      <trkpt lat="48.58031" lon="-3.89009">
        <ele>91.2</ele>
        <time>2020-06-10T11:21:48Z</time>
      </trkpt>
      <trkpt lat="48.58031" lon="-3.88998">
        <ele>91.3</ele>
        <time>2020-06-10T11:21:49Z</time>
      </trkpt>
      <trkpt lat="48.5803" lon="-3.88987">
        <ele>91.3</ele>
        <time>2020-06-10T11:21:50Z</time>
      </trkpt>
      <trkpt lat="48.58029" lon="-3.88976">
        <ele>91.4</ele>
        <time>2020-06-10T11:21:51Z</time>
      </trkpt>
      <trkpt lat="48.58028" lon="-3.88965">
        <ele>91.5</ele>
        <time>2020-06-10T11:21:52Z</time>
      </trkpt>
      <trkpt lat="48.58027" lon="-3.88954">
        <ele>91.5</ele>
        <time>2020-06-10T11:21:53Z</time>
      </trkpt>
      <trkpt lat="48.58026" lon="-3.88943">
        <ele>91.6</ele>
        <time>2020-06-10T11:21:54Z</time>
      </trkpt>
      <trkpt lat="48.58026" lon="-3.88932">
        <ele>91.7</ele>
        <time>2020-06-10T11:21:55Z</time>
      </trkpt>
      <trkpt lat="48.58025" lon="-3.88922">
        <ele>91.8</ele>
        <time>2020-06-10T11:21:56Z</time>
      </trkpt>
      <trkpt lat="48.58024" lon="-3.88911">
        <ele>91.8</ele>
        <time>2020-06-10T11:21:57Z</time>
      </trkpt>
      <trkpt lat="48.58024" lon="-3.88901">
        <ele>91.9</ele>
        <time>2020-06-10T11:21:58Z</time>
      </trkpt>
      <trkpt lat="48.58023" lon="-3.88891">
        <ele>91.9</ele>
        <time>2020-06-10T11:21:59Z</time>
      </trkpt>
      <trkpt lat="48.58022" lon="-3.88881">
        <ele>92</ele>
        <time>2020-06-10T11:22:00Z</time>
      </trkpt>
      <trkpt lat="48.58022" lon="-3.88871">
        <ele>92</ele>
        <time>2020-06-10T11:22:01Z</time>
      </trkpt>
      <trkpt lat="48.58021" lon="-3.88862">
        <ele>92.1</ele>
        <time>2020-06-10T11:22:02Z</time>
      </trkpt>
      <trkpt lat="48.5802" lon="-3.88853">
        <ele>92.2</ele>
        <time>2020-06-10T11:22:03Z</time>
      </trkpt>
      <trkpt lat="48.5802" lon="-3.88843">
        <ele>92.3</ele>
        <time>2020-06-10T11:22:04Z</time>
      </trkpt>
      <trkpt lat="48.58019" lon="-3.88834">
        <ele>92.4</ele>
        <time>2020-06-10T11:22:05Z</time>
      </trkpt>
      <trkpt lat="48.58017" lon="-3.88825">
        <ele>92.5</ele>
        <time>2020-06-10T11:22:06Z</time>
      </trkpt>
      <trkpt lat="48.58016" lon="-3.88815">
        <ele>92.6</ele>
        <time>2020-06-10T11:22:07Z</time>
      </trkpt>
      <trkpt lat="48.58014" lon="-3.88806">
        <ele>92.7</ele>
        <time>2020-06-10T11:22:08Z</time>
      </trkpt>
      <trkpt lat="48.58012" lon="-3.88796">
        <ele>92.8</ele>
        <time>2020-06-10T11:22:09Z</time>
      </trkpt>
      <trkpt lat="48.58009" lon="-3.88787">
        <ele>92.9</ele>
        <time>2020-06-10T11:22:10Z</time>
      </trkpt>
      <trkpt lat="48.58007" lon="-3.88778">
        <ele>92.7</ele>
        <time>2020-06-10T11:22:11Z</time>
      </trkpt>
      <trkpt lat="48.58004" lon="-3.8877">
        <ele>92.5</ele>
        <time>2020-06-10T11:22:12Z</time>
      </trkpt>
      <trkpt lat="48.58" lon="-3.88761">
        <ele>92.4</ele>
        <time>2020-06-10T11:22:13Z</time>
      </trkpt>
      <trkpt lat="48.57997" lon="-3.88753">
        <ele>92.3</ele>
        <time>2020-06-10T11:22:14Z</time>
      </trkpt>
      <trkpt lat="48.57993" lon="-3.88745">
        <ele>92.2</ele>
        <time>2020-06-10T11:22:15Z</time>
      </trkpt>
      <trkpt lat="48.57989" lon="-3.88736">
        <ele>92.2</ele>
        <time>2020-06-10T11:22:16Z</time>
      </trkpt>
      <trkpt lat="48.57986" lon="-3.88728">
        <ele>92.1</ele>
        <time>2020-06-10T11:22:17Z</time>
      </trkpt>
      <trkpt lat="48.57981" lon="-3.8872">
        <ele>92</ele>
        <time>2020-06-10T11:22:18Z</time>
      </trkpt>
      <trkpt lat="48.57976" lon="-3.88713">
        <ele>91.9</ele>
        <time>2020-06-10T11:22:19Z</time>
      </trkpt>
      <trkpt lat="48.57972" lon="-3.88705">
        <ele>91.8</ele>
        <time>2020-06-10T11:22:20Z</time>
      </trkpt>
      <trkpt lat="48.57967" lon="-3.88697">
        <ele>91.7</ele>
        <time>2020-06-10T11:22:21Z</time>
      </trkpt>
      <trkpt lat="48.57963" lon="-3.88689">
        <ele>91.6</ele>
        <time>2020-06-10T11:22:22Z</time>
      </trkpt>
      <trkpt lat="48.57958" lon="-3.88681">
        <ele>91.5</ele>
        <time>2020-06-10T11:22:23Z</time>
      </trkpt>
      <trkpt lat="48.57953" lon="-3.88672">
        <ele>91.4</ele>
        <time>2020-06-10T11:22:24Z</time>
      </trkpt>
      <trkpt lat="48.57949" lon="-3.88664">
        <ele>91.3</ele>
        <time>2020-06-10T11:22:25Z</time>
      </trkpt>
      <trkpt lat="48.57944" lon="-3.88656">
        <ele>91</ele>
        <time>2020-06-10T11:22:26Z</time>
      </trkpt>
      <trkpt lat="48.57939" lon="-3.88647">
        <ele>90.8</ele>
        <time>2020-06-10T11:22:27Z</time>
      </trkpt>
      <trkpt lat="48.57934" lon="-3.88639">
        <ele>90.5</ele>
        <time>2020-06-10T11:22:28Z</time>
      </trkpt>
      <trkpt lat="48.57929" lon="-3.8863">
        <ele>90.2</ele>
        <time>2020-06-10T11:22:29Z</time>
      </trkpt>
      <trkpt lat="48.57924" lon="-3.88621">
        <ele>89.8</ele>
        <time>2020-06-10T11:22:30Z</time>
      </trkpt>
      <trkpt lat="48.57919" lon="-3.88612">
        <ele>89.5</ele>
        <time>2020-06-10T11:22:31Z</time>
      </trkpt>
      <trkpt lat="48.57913" lon="-3.88602">
        <ele>89.2</ele>
        <time>2020-06-10T11:22:32Z</time>
      </trkpt>
      <trkpt lat="48.57908" lon="-3.88592">
        <ele>88.9</ele>
        <time>2020-06-10T11:22:33Z</time>
      </trkpt>
      <trkpt lat="48.57903" lon="-3.88583">
        <ele>88.5</ele>
        <time>2020-06-10T11:22:34Z</time>
      </trkpt>
      <trkpt lat="48.57897" lon="-3.88573">
        <ele>88.1</ele>
        <time>2020-06-10T11:22:35Z</time>
      </trkpt>
      <trkpt lat="48.57891" lon="-3.88563">
        <ele>87.7</ele>
        <time>2020-06-10T11:22:36Z</time>
      </trkpt>
      <trkpt lat="48.57886" lon="-3.88553">
        <ele>87.3</ele>
        <time>2020-06-10T11:22:37Z</time>
      </trkpt>
      <trkpt lat="48.5788" lon="-3.88542">
        <ele>87</ele>
        <time>2020-06-10T11:22:38Z</time>
      </trkpt>
      <trkpt lat="48.57875" lon="-3.88531">
        <ele>86.6</ele>
        <time>2020-06-10T11:22:39Z</time>
      </trkpt>
      <trkpt lat="48.57869" lon="-3.88519">
        <ele>86.2</ele>
        <time>2020-06-10T11:22:40Z</time>
      </trkpt>
      <trkpt lat="48.57864" lon="-3.88508">
        <ele>85.8</ele>
        <time>2020-06-10T11:22:41Z</time>
      </trkpt>
      <trkpt lat="48.5786" lon="-3.88496">
        <ele>85.3</ele>
        <time>2020-06-10T11:22:42Z</time>
      </trkpt>
      <trkpt lat="48.57856" lon="-3.88482">
        <ele>84.8</ele>
        <time>2020-06-10T11:22:43Z</time>
      </trkpt>
      <trkpt lat="48.57853" lon="-3.88468">
        <ele>84.3</ele>
        <time>2020-06-10T11:22:44Z</time>
      </trkpt>
      <trkpt lat="48.57851" lon="-3.88454">
        <ele>83.8</ele>
        <time>2020-06-10T11:22:45Z</time>
      </trkpt>
      <trkpt lat="48.57849" lon="-3.8844">
        <ele>83.3</ele>
        <time>2020-06-10T11:22:46Z</time>
      </trkpt>
      <trkpt lat="48.57849" lon="-3.88426">
        <ele>82.9</ele>
        <time>2020-06-10T11:22:47Z</time>
      </trkpt>
      <trkpt lat="48.57849" lon="-3.88411">
        <ele>82.5</ele>
        <time>2020-06-10T11:22:48Z</time>
      </trkpt>
      <trkpt lat="48.5785" lon="-3.88396">
        <ele>82</ele>
        <time>2020-06-10T11:22:49Z</time>
      </trkpt>
      <trkpt lat="48.57852" lon="-3.88381">
        <ele>81.4</ele>
        <time>2020-06-10T11:22:50Z</time>
      </trkpt>
      <trkpt lat="48.57854" lon="-3.88366">
        <ele>80.8</ele>
        <time>2020-06-10T11:22:51Z</time>
      </trkpt>
      <trkpt lat="48.57858" lon="-3.88353">
        <ele>80.3</ele>
        <time>2020-06-10T11:22:52Z</time>
      </trkpt>
      <trkpt lat="48.57863" lon="-3.8834">
        <ele>79.8</ele>
        <time>2020-06-10T11:22:53Z</time>
      </trkpt>
      <trkpt lat="48.57868" lon="-3.88329">
        <ele>79.3</ele>
        <time>2020-06-10T11:22:54Z</time>
      </trkpt>
      <trkpt lat="48.57874" lon="-3.88317">
        <ele>78.9</ele>
        <time>2020-06-10T11:22:55Z</time>
      </trkpt>
      <trkpt lat="48.5788" lon="-3.88305">
        <ele>78.4</ele>
        <time>2020-06-10T11:22:56Z</time>
      </trkpt>
      <trkpt lat="48.57886" lon="-3.88293">
        <ele>77.9</ele>
        <time>2020-06-10T11:22:57Z</time>
      </trkpt>
      <trkpt lat="48.57892" lon="-3.88281">
        <ele>77.5</ele>
        <time>2020-06-10T11:22:58Z</time>
      </trkpt>
      <trkpt lat="48.57898" lon="-3.88269">
        <ele>77</ele>
        <time>2020-06-10T11:22:59Z</time>
      </trkpt>
      <trkpt lat="48.57904" lon="-3.88258">
        <ele>76.5</ele>
        <time>2020-06-10T11:23:00Z</time>
      </trkpt>
      <trkpt lat="48.5791" lon="-3.88247">
        <ele>76</ele>
        <time>2020-06-10T11:23:01Z</time>
      </trkpt>
      <trkpt lat="48.57917" lon="-3.88236">
        <ele>75.5</ele>
        <time>2020-06-10T11:23:02Z</time>
      </trkpt>
      <trkpt lat="48.57923" lon="-3.88224">
        <ele>75</ele>
        <time>2020-06-10T11:23:03Z</time>
      </trkpt>
      <trkpt lat="48.57928" lon="-3.88212">
        <ele>74.5</ele>
        <time>2020-06-10T11:23:04Z</time>
      </trkpt>
      <trkpt lat="48.57934" lon="-3.882">
        <ele>74</ele>
        <time>2020-06-10T11:23:05Z</time>
      </trkpt>
      <trkpt lat="48.57941" lon="-3.88189">
        <ele>73.5</ele>
        <time>2020-06-10T11:23:06Z</time>
      </trkpt>
      <trkpt lat="48.57947" lon="-3.88177">
        <ele>73</ele>
        <time>2020-06-10T11:23:07Z</time>
      </trkpt>
      <trkpt lat="48.57954" lon="-3.88165">
        <ele>72.5</ele>
        <time>2020-06-10T11:23:08Z</time>
      </trkpt>
      <trkpt lat="48.5796" lon="-3.88153">
        <ele>72</ele>
        <time>2020-06-10T11:23:09Z</time>
      </trkpt>
      <trkpt lat="48.57966" lon="-3.88141">
        <ele>71.6</ele>
        <time>2020-06-10T11:23:10Z</time>
      </trkpt>
      <trkpt lat="48.57972" lon="-3.88131">
        <ele>71.3</ele>
        <time>2020-06-10T11:23:11Z</time>
      </trkpt>
      <trkpt lat="48.57977" lon="-3.88122">
        <ele>71</ele>
        <time>2020-06-10T11:23:12Z</time>
      </trkpt>
      <trkpt lat="48.57982" lon="-3.88114">
        <ele>70.7</ele>
        <time>2020-06-10T11:23:13Z</time>
      </trkpt>
      <trkpt lat="48.57986" lon="-3.88105">
        <ele>70.5</ele>
        <time>2020-06-10T11:23:14Z</time>
      </trkpt>
      <trkpt lat="48.5799" lon="-3.88097">
        <ele>70.3</ele>
        <time>2020-06-10T11:23:15Z</time>
      </trkpt>
      <trkpt lat="48.57994" lon="-3.88088">
        <ele>69.9</ele>
        <time>2020-06-10T11:23:16Z</time>
      </trkpt>
      <trkpt lat="48.57999" lon="-3.88079">
        <ele>69.6</ele>
        <time>2020-06-10T11:23:17Z</time>
      </trkpt>
      <trkpt lat="48.58002" lon="-3.88069">
        <ele>69.2</ele>
        <time>2020-06-10T11:23:18Z</time>
      </trkpt>
      <trkpt lat="48.58005" lon="-3.88058">
        <ele>68.7</ele>
        <time>2020-06-10T11:23:19Z</time>
      </trkpt>
      <trkpt lat="48.58007" lon="-3.88047">
        <ele>68.3</ele>
        <time>2020-06-10T11:23:20Z</time>
      </trkpt>
      <trkpt lat="48.58008" lon="-3.88034">
        <ele>67.8</ele>
        <time>2020-06-10T11:23:21Z</time>
      </trkpt>
      <trkpt lat="48.58009" lon="-3.88021">
        <ele>67.3</ele>
        <time>2020-06-10T11:23:22Z</time>
      </trkpt>
      <trkpt lat="48.58009" lon="-3.88008">
        <ele>66.8</ele>
        <time>2020-06-10T11:23:23Z</time>
      </trkpt>
      <trkpt lat="48.58009" lon="-3.87995">
        <ele>66.3</ele>
        <time>2020-06-10T11:23:24Z</time>
      </trkpt>
      <trkpt lat="48.58007" lon="-3.87981">
        <ele>65.9</ele>
        <time>2020-06-10T11:23:25Z</time>
      </trkpt>
      <trkpt lat="48.58006" lon="-3.87968">
        <ele>65.5</ele>
        <time>2020-06-10T11:23:26Z</time>
      </trkpt>
      <trkpt lat="48.58003" lon="-3.87955">
        <ele>65.1</ele>
        <time>2020-06-10T11:23:27Z</time>
      </trkpt>
      <trkpt lat="48.58001" lon="-3.87943">
        <ele>64.7</ele>
        <time>2020-06-10T11:23:28Z</time>
      </trkpt>
      <trkpt lat="48.57999" lon="-3.8793">
        <ele>64.2</ele>
        <time>2020-06-10T11:23:29Z</time>
      </trkpt>
      <trkpt lat="48.57997" lon="-3.87917">
        <ele>63.7</ele>
        <time>2020-06-10T11:23:30Z</time>
      </trkpt>
      <trkpt lat="48.57996" lon="-3.87903">
        <ele>63.2</ele>
        <time>2020-06-10T11:23:31Z</time>
      </trkpt>
      <trkpt lat="48.57994" lon="-3.8789">
        <ele>62.8</ele>
        <time>2020-06-10T11:23:32Z</time>
      </trkpt>
      <trkpt lat="48.57992" lon="-3.87877">
        <ele>62.3</ele>
        <time>2020-06-10T11:23:33Z</time>
      </trkpt>
      <trkpt lat="48.57989" lon="-3.87864">
        <ele>61.8</ele>
        <time>2020-06-10T11:23:34Z</time>
      </trkpt>
      <trkpt lat="48.57988" lon="-3.87851">
        <ele>61.3</ele>
        <time>2020-06-10T11:23:35Z</time>
      </trkpt>
      <trkpt lat="48.57986" lon="-3.87838">
        <ele>60.9</ele>
        <time>2020-06-10T11:23:36Z</time>
      </trkpt>
      <trkpt lat="48.57984" lon="-3.87825">
        <ele>60.4</ele>
        <time>2020-06-10T11:23:37Z</time>
      </trkpt>
      <trkpt lat="48.57982" lon="-3.87812">
        <ele>60</ele>
        <time>2020-06-10T11:23:38Z</time>
      </trkpt>
      <trkpt lat="48.57981" lon="-3.87799">
        <ele>59.5</ele>
        <time>2020-06-10T11:23:39Z</time>
      </trkpt>
      <trkpt lat="48.57979" lon="-3.87785">
        <ele>59.1</ele>
        <time>2020-06-10T11:23:40Z</time>
      </trkpt>
      <trkpt lat="48.57977" lon="-3.87772">
        <ele>58.6</ele>
        <time>2020-06-10T11:23:41Z</time>
      </trkpt>
      <trkpt lat="48.57975" lon="-3.87758">
        <ele>58.1</ele>
        <time>2020-06-10T11:23:42Z</time>
      </trkpt>
      <trkpt lat="48.57974" lon="-3.87744">
        <ele>57.6</ele>
        <time>2020-06-10T11:23:43Z</time>
      </trkpt>
      <trkpt lat="48.57974" lon="-3.8773">
        <ele>57</ele>
        <time>2020-06-10T11:23:44Z</time>
      </trkpt>
      <trkpt lat="48.57975" lon="-3.87715">
        <ele>56.5</ele>
        <time>2020-06-10T11:23:45Z</time>
      </trkpt>
      <trkpt lat="48.57976" lon="-3.877">
        <ele>55.9</ele>
        <time>2020-06-10T11:23:46Z</time>
      </trkpt>
      <trkpt lat="48.57978" lon="-3.87685">
        <ele>55.4</ele>
        <time>2020-06-10T11:23:47Z</time>
      </trkpt>
      <trkpt lat="48.57981" lon="-3.8767">
        <ele>54.9</ele>
        <time>2020-06-10T11:23:48Z</time>
      </trkpt>
      <trkpt lat="48.57984" lon="-3.87656">
        <ele>54.5</ele>
        <time>2020-06-10T11:23:49Z</time>
      </trkpt>
      <trkpt lat="48.57987" lon="-3.87642">
        <ele>54</ele>
        <time>2020-06-10T11:23:50Z</time>
      </trkpt>
      <trkpt lat="48.57991" lon="-3.87628">
        <ele>53.4</ele>
        <time>2020-06-10T11:23:51Z</time>
      </trkpt>
      <trkpt lat="48.57996" lon="-3.87615">
        <ele>52.9</ele>
        <time>2020-06-10T11:23:52Z</time>
      </trkpt>
      <trkpt lat="48.58001" lon="-3.87602">
        <ele>52.4</ele>
        <time>2020-06-10T11:23:53Z</time>
      </trkpt>
      <trkpt lat="48.58006" lon="-3.8759">
        <ele>51.9</ele>
        <time>2020-06-10T11:23:54Z</time>
      </trkpt>
      <trkpt lat="48.58013" lon="-3.87578">
        <ele>51.3</ele>
        <time>2020-06-10T11:23:55Z</time>
      </trkpt>
      <trkpt lat="48.58019" lon="-3.87567">
        <ele>50.8</ele>
        <time>2020-06-10T11:23:56Z</time>
      </trkpt>
      <trkpt lat="48.58026" lon="-3.87556">
        <ele>50.3</ele>
        <time>2020-06-10T11:23:57Z</time>
      </trkpt>
      <trkpt lat="48.58034" lon="-3.87545">
        <ele>49.8</ele>
        <time>2020-06-10T11:23:58Z</time>
      </trkpt>
      <trkpt lat="48.58041" lon="-3.87535">
        <ele>49.4</ele>
        <time>2020-06-10T11:23:59Z</time>
      </trkpt>
      <trkpt lat="48.58048" lon="-3.87526">
        <ele>48.9</ele>
        <time>2020-06-10T11:24:00Z</time>
      </trkpt>
      <trkpt lat="48.58055" lon="-3.87517">
        <ele>48.4</ele>
        <time>2020-06-10T11:24:01Z</time>
      </trkpt>
      <trkpt lat="48.58062" lon="-3.87509">
        <ele>48</ele>
        <time>2020-06-10T11:24:02Z</time>
      </trkpt>
      <trkpt lat="48.58068" lon="-3.87501">
        <ele>47.6</ele>
        <time>2020-06-10T11:24:03Z</time>
      </trkpt>
      <trkpt lat="48.58074" lon="-3.87494">
        <ele>47.2</ele>
        <time>2020-06-10T11:24:04Z</time>
      </trkpt>
      <trkpt lat="48.58081" lon="-3.87486">
        <ele>46.8</ele>
        <time>2020-06-10T11:24:05Z</time>
      </trkpt>
      <trkpt lat="48.58088" lon="-3.87479">
        <ele>46.4</ele>
        <time>2020-06-10T11:24:06Z</time>
      </trkpt>
      <trkpt lat="48.58094" lon="-3.87471">
        <ele>45.9</ele>
        <time>2020-06-10T11:24:07Z</time>
      </trkpt>
      <trkpt lat="48.581" lon="-3.87465">
        <ele>45.5</ele>
        <time>2020-06-10T11:24:08Z</time>
      </trkpt>
      <trkpt lat="48.58105" lon="-3.87459">
        <ele>45.1</ele>
        <time>2020-06-10T11:24:09Z</time>
      </trkpt>
      <trkpt lat="48.5811" lon="-3.87453">
        <ele>44.7</ele>
        <time>2020-06-10T11:24:10Z</time>
      </trkpt>
      <trkpt lat="48.58115" lon="-3.87446">
        <ele>44.4</ele>
        <time>2020-06-10T11:24:11Z</time>
      </trkpt>
      <trkpt lat="48.5812" lon="-3.87439">
        <ele>44</ele>
        <time>2020-06-10T11:24:12Z</time>
      </trkpt>
      <trkpt lat="48.58124" lon="-3.87433">
        <ele>43.7</ele>
        <time>2020-06-10T11:24:13Z</time>
      </trkpt>
      <trkpt lat="48.5813" lon="-3.87427">
        <ele>43.4</ele>
        <time>2020-06-10T11:24:14Z</time>
      </trkpt>
      <trkpt lat="48.58135" lon="-3.8742">
        <ele>43.1</ele>
        <time>2020-06-10T11:24:15Z</time>
      </trkpt>
      <trkpt lat="48.5814" lon="-3.87413">
        <ele>42.8</ele>
        <time>2020-06-10T11:24:16Z</time>
      </trkpt>
      <trkpt lat="48.58146" lon="-3.87406">
        <ele>42.4</ele>
        <time>2020-06-10T11:24:17Z</time>
      </trkpt>
      <trkpt lat="48.58151" lon="-3.87399">
        <ele>42.2</ele>
        <time>2020-06-10T11:24:18Z</time>
      </trkpt>
      <trkpt lat="48.58157" lon="-3.87392">
        <ele>41.9</ele>
        <time>2020-06-10T11:24:19Z</time>
      </trkpt>
      <trkpt lat="48.58163" lon="-3.87384">
        <ele>41.7</ele>
        <time>2020-06-10T11:24:20Z</time>
      </trkpt>
      <trkpt lat="48.58168" lon="-3.87377">
        <ele>41.6</ele>
        <time>2020-06-10T11:24:21Z</time>
      </trkpt>
      <trkpt lat="48.58174" lon="-3.87369">
        <ele>41.5</ele>
        <time>2020-06-10T11:24:22Z</time>
      </trkpt>
      <trkpt lat="48.58179" lon="-3.8736">
        <ele>41.3</ele>
        <time>2020-06-10T11:24:23Z</time>
      </trkpt>
      <trkpt lat="48.58182" lon="-3.8735">
        <ele>40.9</ele>
        <time>2020-06-10T11:24:24Z</time>
      </trkpt>
      <trkpt lat="48.58186" lon="-3.87341">
        <ele>40.6</ele>
        <time>2020-06-10T11:24:25Z</time>
      </trkpt>
      <trkpt lat="48.5819" lon="-3.87332">
        <ele>40.2</ele>
        <time>2020-06-10T11:24:26Z</time>
      </trkpt>
      <trkpt lat="48.58195" lon="-3.87325">
        <ele>40.1</ele>
        <time>2020-06-10T11:24:27Z</time>
      </trkpt>
      <trkpt lat="48.58201" lon="-3.87321">
        <ele>40.2</ele>
        <time>2020-06-10T11:24:28Z</time>
      </trkpt>
      <trkpt lat="48.58207" lon="-3.87318">
        <ele>40.3</ele>
        <time>2020-06-10T11:24:29Z</time>
      </trkpt>
      <trkpt lat="48.58213" lon="-3.87313">
        <ele>40.4</ele>
        <time>2020-06-10T11:24:30Z</time>
      </trkpt>
      <trkpt lat="48.58219" lon="-3.8731">
        <ele>41.3</ele>
        <time>2020-06-10T11:24:31Z</time>
      </trkpt>
      <trkpt lat="48.58225" lon="-3.87312">
        <ele>41.4</ele>
        <time>2020-06-10T11:24:32Z</time>
      </trkpt>
      <trkpt lat="48.5823" lon="-3.87309">
        <ele>41.5</ele>
        <time>2020-06-10T11:24:33Z</time>
      </trkpt>
      <trkpt lat="48.58234" lon="-3.87303">
        <ele>41.7</ele>
        <time>2020-06-10T11:24:34Z</time>
      </trkpt>
      <trkpt lat="48.58237" lon="-3.87297">
        <ele>41.8</ele>
        <time>2020-06-10T11:24:35Z</time>
      </trkpt>
      <trkpt lat="48.5824" lon="-3.87291">
        <ele>41.9</ele>
        <time>2020-06-10T11:24:36Z</time>
      </trkpt>
      <trkpt lat="48.58245" lon="-3.87288">
        <ele>42.1</ele>
        <time>2020-06-10T11:24:37Z</time>
      </trkpt>
      <trkpt lat="48.58248" lon="-3.87283">
        <ele>42.2</ele>
        <time>2020-06-10T11:24:38Z</time>
      </trkpt>
      <trkpt lat="48.58252" lon="-3.87279">
        <ele>42.3</ele>
        <time>2020-06-10T11:24:39Z</time>
      </trkpt>
      <trkpt lat="48.58254" lon="-3.87274">
        <ele>42.4</ele>
        <time>2020-06-10T11:24:40Z</time>
      </trkpt>
      <trkpt lat="48.58258" lon="-3.8727">
        <ele>42.5</ele>
        <time>2020-06-10T11:24:41Z</time>
      </trkpt>
      <trkpt lat="48.5826" lon="-3.87266">
        <ele>42.5</ele>
        <time>2020-06-10T11:24:42Z</time>
      </trkpt>
      <trkpt lat="48.58263" lon="-3.87262">
        <ele>42.6</ele>
        <time>2020-06-10T11:24:43Z</time>
      </trkpt>
      <trkpt lat="48.58265" lon="-3.87257">
        <ele>42.7</ele>
        <time>2020-06-10T11:24:44Z</time>
      </trkpt>
      <trkpt lat="48.58268" lon="-3.87254">
        <ele>42.7</ele>
        <time>2020-06-10T11:24:45Z</time>
      </trkpt>
      <trkpt lat="48.58271" lon="-3.87251">
        <ele>42.7</ele>
        <time>2020-06-10T11:24:46Z</time>
      </trkpt>
      <trkpt lat="48.58273" lon="-3.87248">
        <ele>42.7</ele>
        <time>2020-06-10T11:24:47Z</time>
      </trkpt>
      <trkpt lat="48.58276" lon="-3.87244">
        <ele>42.7</ele>
        <time>2020-06-10T11:24:48Z</time>
      </trkpt>
      <trkpt lat="48.58278" lon="-3.8724">
        <ele>42.7</ele>
        <time>2020-06-10T11:24:49Z</time>
      </trkpt>
      <trkpt lat="48.58281" lon="-3.87237">
        <ele>42.7</ele>
        <time>2020-06-10T11:24:50Z</time>
      </trkpt>
      <trkpt lat="48.58283" lon="-3.87234">
        <ele>42.7</ele>
        <time>2020-06-10T11:24:51Z</time>
      </trkpt>
      <trkpt lat="48.58286" lon="-3.8723">
        <ele>42.7</ele>
        <time>2020-06-10T11:24:52Z</time>
      </trkpt>
      <trkpt lat="48.58288" lon="-3.87226">
        <ele>42.7</ele>
        <time>2020-06-10T11:24:53Z</time>
      </trkpt>
      <trkpt lat="48.5829" lon="-3.87222">
        <ele>42.6</ele>
        <time>2020-06-10T11:24:54Z</time>
      </trkpt>
      <trkpt lat="48.58293" lon="-3.87218">
        <ele>42.6</ele>
        <time>2020-06-10T11:24:55Z</time>
      </trkpt>
      <trkpt lat="48.58295" lon="-3.87214">
        <ele>42.6</ele>
        <time>2020-06-10T11:24:56Z</time>
      </trkpt>
      <trkpt lat="48.58296" lon="-3.8721">
        <ele>42.5</ele>
        <time>2020-06-10T11:24:57Z</time>
      </trkpt>
      <trkpt lat="48.58299" lon="-3.87208">
        <ele>42.5</ele>
        <time>2020-06-10T11:24:58Z</time>
      </trkpt>
      <trkpt lat="48.58301" lon="-3.87205">
        <ele>42.4</ele>
        <time>2020-06-10T11:24:59Z</time>
      </trkpt>
      <trkpt lat="48.58303" lon="-3.87201">
        <ele>42.4</ele>
        <time>2020-06-10T11:25:00Z</time>
      </trkpt>
      <trkpt lat="48.58305" lon="-3.87198">
        <ele>42.3</ele>
        <time>2020-06-10T11:25:01Z</time>
      </trkpt>
      <trkpt lat="48.58307" lon="-3.87193">
        <ele>42.2</ele>
        <time>2020-06-10T11:25:02Z</time>
      </trkpt>
      <trkpt lat="48.58309" lon="-3.87188">
        <ele>42.1</ele>
        <time>2020-06-10T11:25:03Z</time>
      </trkpt>
      <trkpt lat="48.58311" lon="-3.87184">
        <ele>42.1</ele>
        <time>2020-06-10T11:25:04Z</time>
      </trkpt>
      <trkpt lat="48.58313" lon="-3.87178">
        <ele>42</ele>
        <time>2020-06-10T11:25:05Z</time>
      </trkpt>
      <trkpt lat="48.58313" lon="-3.87173">
        <ele>41.9</ele>
        <time>2020-06-10T11:25:06Z</time>
      </trkpt>
      <trkpt lat="48.58316" lon="-3.87168">
        <ele>41.8</ele>
        <time>2020-06-10T11:25:07Z</time>
      </trkpt>
      <trkpt lat="48.58317" lon="-3.87163">
        <ele>41.8</ele>
        <time>2020-06-10T11:25:08Z</time>
      </trkpt>
      <trkpt lat="48.58317" lon="-3.87158">
        <ele>41.7</ele>
        <time>2020-06-10T11:25:09Z</time>
      </trkpt>
      <trkpt lat="48.58319" lon="-3.87153">
        <ele>41.6</ele>
        <time>2020-06-10T11:25:10Z</time>
      </trkpt>
      <trkpt lat="48.5832" lon="-3.87148">
        <ele>41.5</ele>
        <time>2020-06-10T11:25:11Z</time>
      </trkpt>
      <trkpt lat="48.58321" lon="-3.87142">
        <ele>41.4</ele>
        <time>2020-06-10T11:25:12Z</time>
      </trkpt>
      <trkpt lat="48.58322" lon="-3.87137">
        <ele>41.3</ele>
        <time>2020-06-10T11:25:13Z</time>
      </trkpt>
      <trkpt lat="48.58323" lon="-3.87131">
        <ele>41.2</ele>
        <time>2020-06-10T11:25:14Z</time>
      </trkpt>
      <trkpt lat="48.58323" lon="-3.87124">
        <ele>41.1</ele>
        <time>2020-06-10T11:25:15Z</time>
      </trkpt>
      <trkpt lat="48.58322" lon="-3.87117">
        <ele>41</ele>
        <time>2020-06-10T11:25:16Z</time>
      </trkpt>
      <trkpt lat="48.58321" lon="-3.87111">
        <ele>40.9</ele>
        <time>2020-06-10T11:25:17Z</time>
      </trkpt>
      <trkpt lat="48.58319" lon="-3.87105">
        <ele>40.8</ele>
        <time>2020-06-10T11:25:18Z</time>
      </trkpt>
      <trkpt lat="48.58317" lon="-3.87098">
        <ele>40.7</ele>
        <time>2020-06-10T11:25:19Z</time>
      </trkpt>
      <trkpt lat="48.58314" lon="-3.87091">
        <ele>40.6</ele>
        <time>2020-06-10T11:25:20Z</time>
      </trkpt>
      <trkpt lat="48.58312" lon="-3.87084">
        <ele>40.6</ele>
        <time>2020-06-10T11:25:21Z</time>
      </trkpt>
      <trkpt lat="48.5831" lon="-3.87077">
        <ele>40.5</ele>
        <time>2020-06-10T11:25:22Z</time>
      </trkpt>
      <trkpt lat="48.58307" lon="-3.87071">
        <ele>40.4</ele>
        <time>2020-06-10T11:25:23Z</time>
      </trkpt>
      <trkpt lat="48.58303" lon="-3.87066">
        <ele>40.6</ele>
        <time>2020-06-10T11:25:24Z</time>
      </trkpt>
      <trkpt lat="48.583" lon="-3.87059">
        <ele>40.6</ele>
        <time>2020-06-10T11:25:25Z</time>
      </trkpt>
      <trkpt lat="48.58298" lon="-3.87052">
        <ele>40.6</ele>
        <time>2020-06-10T11:25:26Z</time>
      </trkpt>
      <trkpt lat="48.58299" lon="-3.87045">
        <ele>40.7</ele>
        <time>2020-06-10T11:25:27Z</time>
      </trkpt>
      <trkpt lat="48.583" lon="-3.87038">
        <ele>40.9</ele>
        <time>2020-06-10T11:25:28Z</time>
      </trkpt>
      <trkpt lat="48.583" lon="-3.87031">
        <ele>41.1</ele>
        <time>2020-06-10T11:25:29Z</time>
      </trkpt>
      <trkpt lat="48.583" lon="-3.87025">
        <ele>41.4</ele>
        <time>2020-06-10T11:25:30Z</time>
      </trkpt>
      <trkpt lat="48.583" lon="-3.87018">
        <ele>41.5</ele>
        <time>2020-06-10T11:25:31Z</time>
      </trkpt>
      <trkpt lat="48.583" lon="-3.87011">
        <ele>41.5</ele>
        <time>2020-06-10T11:25:32Z</time>
      </trkpt>
      <trkpt lat="48.58299" lon="-3.87004">
        <ele>41.6</ele>
        <time>2020-06-10T11:25:33Z</time>
      </trkpt>
      <trkpt lat="48.58298" lon="-3.86998">
        <ele>41.7</ele>
        <time>2020-06-10T11:25:34Z</time>
      </trkpt>
      <trkpt lat="48.58297" lon="-3.86992">
        <ele>41.8</ele>
        <time>2020-06-10T11:25:35Z</time>
      </trkpt>
      <trkpt lat="48.58295" lon="-3.86985">
        <ele>41.9</ele>
        <time>2020-06-10T11:25:36Z</time>
      </trkpt>
      <trkpt lat="48.58293" lon="-3.8698">
        <ele>42</ele>
        <time>2020-06-10T11:25:37Z</time>
      </trkpt>
      <trkpt lat="48.58291" lon="-3.86973">
        <ele>42.2</ele>
        <time>2020-06-10T11:25:38Z</time>
      </trkpt>
      <trkpt lat="48.58289" lon="-3.86967">
        <ele>42.3</ele>
        <time>2020-06-10T11:25:39Z</time>
      </trkpt>
      <trkpt lat="48.58287" lon="-3.86961">
        <ele>42.5</ele>
        <time>2020-06-10T11:25:40Z</time>
      </trkpt>
      <trkpt lat="48.58286" lon="-3.86955">
        <ele>42.6</ele>
        <time>2020-06-10T11:25:41Z</time>
      </trkpt>
      <trkpt lat="48.58284" lon="-3.86949">
        <ele>42.8</ele>
        <time>2020-06-10T11:25:42Z</time>
      </trkpt>
      <trkpt lat="48.58283" lon="-3.86944">
        <ele>42.9</ele>
        <time>2020-06-10T11:25:43Z</time>
      </trkpt>
      <trkpt lat="48.58282" lon="-3.86937">
        <ele>43.1</ele>
        <time>2020-06-10T11:25:44Z</time>
      </trkpt>
      <trkpt lat="48.5828" lon="-3.8693">
        <ele>43.2</ele>
        <time>2020-06-10T11:25:45Z</time>
      </trkpt>
      <trkpt lat="48.58278" lon="-3.86923">
        <ele>43.4</ele>
        <time>2020-06-10T11:25:46Z</time>
      </trkpt>
      <trkpt lat="48.58276" lon="-3.86917">
        <ele>43.6</ele>
        <time>2020-06-10T11:25:47Z</time>
      </trkpt>
      <trkpt lat="48.58273" lon="-3.8691">
        <ele>43.8</ele>
        <time>2020-06-10T11:25:48Z</time>
      </trkpt>
      <trkpt lat="48.58272" lon="-3.86904">
        <ele>43.9</ele>
        <time>2020-06-10T11:25:49Z</time>
      </trkpt>
      <trkpt lat="48.58269" lon="-3.86898">
        <ele>44.1</ele>
        <time>2020-06-10T11:25:50Z</time>
      </trkpt>
      <trkpt lat="48.58268" lon="-3.86892">
        <ele>44.3</ele>
        <time>2020-06-10T11:25:51Z</time>
      </trkpt>
      <trkpt lat="48.58266" lon="-3.86887">
        <ele>44.4</ele>
        <time>2020-06-10T11:25:52Z</time>
      </trkpt>
      <trkpt lat="48.58263" lon="-3.86882">
        <ele>44.5</ele>
        <time>2020-06-10T11:25:53Z</time>
      </trkpt>
      <trkpt lat="48.58261" lon="-3.86876">
        <ele>44.7</ele>
        <time>2020-06-10T11:25:54Z</time>
      </trkpt>
      <trkpt lat="48.58259" lon="-3.86871">
        <ele>44.9</ele>
        <time>2020-06-10T11:25:55Z</time>
      </trkpt>
      <trkpt lat="48.58257" lon="-3.86864">
        <ele>45</ele>
        <time>2020-06-10T11:25:56Z</time>
      </trkpt>
      <trkpt lat="48.58255" lon="-3.86858">
        <ele>45.2</ele>
        <time>2020-06-10T11:25:57Z</time>
      </trkpt>
      <trkpt lat="48.58253" lon="-3.86852">
        <ele>45.3</ele>
        <time>2020-06-10T11:25:58Z</time>
      </trkpt>
      <trkpt lat="48.58251" lon="-3.86848">
        <ele>45.4</ele>
        <time>2020-06-10T11:25:59Z</time>
      </trkpt>
      <trkpt lat="48.5825" lon="-3.86844">
        <ele>45.5</ele>
        <time>2020-06-10T11:26:00Z</time>
      </trkpt>
      <trkpt lat="48.58248" lon="-3.8684">
        <ele>45.6</ele>
        <time>2020-06-10T11:26:01Z</time>
      </trkpt>
      <trkpt lat="48.58246" lon="-3.86835">
        <ele>45.7</ele>
        <time>2020-06-10T11:26:02Z</time>
      </trkpt>
      <trkpt lat="48.58244" lon="-3.86829">
        <ele>45.9</ele>
        <time>2020-06-10T11:26:03Z</time>
      </trkpt>
      <trkpt lat="48.58243" lon="-3.86823">
        <ele>46.1</ele>
        <time>2020-06-10T11:26:04Z</time>
      </trkpt>
      <trkpt lat="48.58242" lon="-3.86819">
        <ele>46.2</ele>
        <time>2020-06-10T11:26:05Z</time>
      </trkpt>
      <trkpt lat="48.5824" lon="-3.86815">
        <ele>46.4</ele>
        <time>2020-06-10T11:26:06Z</time>
      </trkpt>
      <trkpt lat="48.5824" lon="-3.86809">
        <ele>46.5</ele>
        <time>2020-06-10T11:26:07Z</time>
      </trkpt>
      <trkpt lat="48.58241" lon="-3.86806">
        <ele>46.6</ele>
        <time>2020-06-10T11:26:08Z</time>
      </trkpt>
      <trkpt lat="48.58243" lon="-3.868">
        <ele>47.1</ele>
        <time>2020-06-10T11:26:09Z</time>
      </trkpt>
      <trkpt lat="48.58247" lon="-3.86797">
        <ele>47.3</ele>
        <time>2020-06-10T11:26:10Z</time>
      </trkpt>
      <trkpt lat="48.5825" lon="-3.86796">
        <ele>47.6</ele>
        <time>2020-06-10T11:26:11Z</time>
      </trkpt>
      <trkpt lat="48.58252" lon="-3.86795">
        <ele>47.7</ele>
        <time>2020-06-10T11:26:12Z</time>
      </trkpt>
      <trkpt lat="48.58254" lon="-3.86793">
        <ele>47.9</ele>
        <time>2020-06-10T11:26:13Z</time>
      </trkpt>
      <trkpt lat="48.58257" lon="-3.8679">
        <ele>48.2</ele>
        <time>2020-06-10T11:26:14Z</time>
      </trkpt>
      <trkpt lat="48.5826" lon="-3.86788">
        <ele>48.4</ele>
        <time>2020-06-10T11:26:15Z</time>
      </trkpt>
      <trkpt lat="48.58261" lon="-3.86788">
        <ele>48.5</ele>
        <time>2020-06-10T11:26:16Z</time>
      </trkpt>
      <trkpt lat="48.58264" lon="-3.86786">
        <ele>48.8</ele>
        <time>2020-06-10T11:26:17Z</time>
      </trkpt>
      <trkpt lat="48.58265" lon="-3.86785">
        <ele>48.9</ele>
        <time>2020-06-10T11:26:18Z</time>
      </trkpt>
      <trkpt lat="48.58266" lon="-3.86783">
        <ele>49.1</ele>
        <time>2020-06-10T11:26:19Z</time>
      </trkpt>
      <trkpt lat="48.58268" lon="-3.86782">
        <ele>49.2</ele>
        <time>2020-06-10T11:26:20Z</time>
      </trkpt>
      <trkpt lat="48.5827" lon="-3.86778">
        <ele>49.5</ele>
        <time>2020-06-10T11:26:21Z</time>
      </trkpt>
      <trkpt lat="48.58271" lon="-3.86776">
        <ele>49.6</ele>
        <time>2020-06-10T11:26:22Z</time>
      </trkpt>
      <trkpt lat="48.58274" lon="-3.86774">
        <ele>49.9</ele>
        <time>2020-06-10T11:26:23Z</time>
      </trkpt>
      <trkpt lat="48.58275" lon="-3.86773">
        <ele>50</ele>
        <time>2020-06-10T11:26:24Z</time>
      </trkpt>
      <trkpt lat="48.58277" lon="-3.86771">
        <ele>50.2</ele>
        <time>2020-06-10T11:26:25Z</time>
      </trkpt>
      <trkpt lat="48.58277" lon="-3.8677">
        <ele>50.3</ele>
        <time>2020-06-10T11:26:26Z</time>
      </trkpt>
      <trkpt lat="48.58278" lon="-3.8677">
        <ele>50.4</ele>
        <time>2020-06-10T11:26:27Z</time>
      </trkpt>
      <trkpt lat="48.58279" lon="-3.86769">
        <ele>50.5</ele>
        <time>2020-06-10T11:26:28Z</time>
      </trkpt>
      <trkpt lat="48.5828" lon="-3.86768">
        <ele>50.6</ele>
        <time>2020-06-10T11:26:29Z</time>
      </trkpt>
      <trkpt lat="48.5828" lon="-3.86767">
        <ele>50.7</ele>
        <time>2020-06-10T11:26:30Z</time>
      </trkpt>
      <trkpt lat="48.58281" lon="-3.86766">
        <ele>50.7</ele>
        <time>2020-06-10T11:26:31Z</time>
      </trkpt>
      <trkpt lat="48.58282" lon="-3.86764">
        <ele>50.9</ele>
        <time>2020-06-10T11:26:32Z</time>
      </trkpt>
      <trkpt lat="48.58284" lon="-3.86762">
        <ele>51.1</ele>
        <time>2020-06-10T11:26:33Z</time>
      </trkpt>
      <trkpt lat="48.58286" lon="-3.86759">
        <ele>51.4</ele>
        <time>2020-06-10T11:26:34Z</time>
      </trkpt>
      <trkpt lat="48.58289" lon="-3.86756">
        <ele>51.7</ele>
        <time>2020-06-10T11:26:35Z</time>
      </trkpt>
      <trkpt lat="48.58291" lon="-3.86753">
        <ele>51.9</ele>
        <time>2020-06-10T11:26:36Z</time>
      </trkpt>
      <trkpt lat="48.58294" lon="-3.8675">
        <ele>52.3</ele>
        <time>2020-06-10T11:26:37Z</time>
      </trkpt>
      <trkpt lat="48.58295" lon="-3.86749">
        <ele>52.4</ele>
        <time>2020-06-10T11:26:38Z</time>
      </trkpt>
      <trkpt lat="48.58297" lon="-3.86746">
        <ele>52.7</ele>
        <time>2020-06-10T11:26:39Z</time>
      </trkpt>
      <trkpt lat="48.58298" lon="-3.86745">
        <ele>52.8</ele>
        <time>2020-06-10T11:26:40Z</time>
      </trkpt>
      <trkpt lat="48.583" lon="-3.86742">
        <ele>53.1</ele>
        <time>2020-06-10T11:26:41Z</time>
      </trkpt>
      <trkpt lat="48.58301" lon="-3.86742">
        <ele>53.2</ele>
        <time>2020-06-10T11:26:42Z</time>
      </trkpt>
      <trkpt lat="48.58304" lon="-3.86739">
        <ele>53.5</ele>
        <time>2020-06-10T11:26:43Z</time>
      </trkpt>
      <trkpt lat="48.58304" lon="-3.86738">
        <ele>53.6</ele>
        <time>2020-06-10T11:26:44Z</time>
      </trkpt>
      <trkpt lat="48.58307" lon="-3.86735">
        <ele>53.9</ele>
        <time>2020-06-10T11:26:45Z</time>
      </trkpt>
      <trkpt lat="48.58307" lon="-3.86734">
        <ele>54</ele>
        <time>2020-06-10T11:26:46Z</time>
      </trkpt>
      <trkpt lat="48.58309" lon="-3.86734">
        <ele>54.2</ele>
        <time>2020-06-10T11:26:47Z</time>
      </trkpt>
      <trkpt lat="48.5831" lon="-3.86732">
        <ele>54.4</ele>
        <time>2020-06-10T11:26:48Z</time>
      </trkpt>
      <trkpt lat="48.58312" lon="-3.86728">
        <ele>54.7</ele>
        <time>2020-06-10T11:26:49Z</time>
      </trkpt>
      <trkpt lat="48.58312" lon="-3.86727">
        <ele>54.8</ele>
        <time>2020-06-10T11:26:50Z</time>
      </trkpt>
      <trkpt lat="48.58313" lon="-3.86726">
        <ele>55</ele>
        <time>2020-06-10T11:26:51Z</time>
      </trkpt>
      <trkpt lat="48.58315" lon="-3.86725">
        <ele>55.1</ele>
        <time>2020-06-10T11:26:52Z</time>
      </trkpt>
      <trkpt lat="48.58316" lon="-3.86723">
        <ele>55.3</ele>
        <time>2020-06-10T11:26:53Z</time>
      </trkpt>
      <trkpt lat="48.58317" lon="-3.86721">
        <ele>55.5</ele>
        <time>2020-06-10T11:26:54Z</time>
      </trkpt>
      <trkpt lat="48.5832" lon="-3.86719">
        <ele>55.8</ele>
        <time>2020-06-10T11:26:55Z</time>
      </trkpt>
      <trkpt lat="48.58321" lon="-3.86718">
        <ele>55.9</ele>
        <time>2020-06-10T11:26:56Z</time>
      </trkpt>
      <trkpt lat="48.58323" lon="-3.86715">
        <ele>56.2</ele>
        <time>2020-06-10T11:26:57Z</time>
      </trkpt>
      <trkpt lat="48.58324" lon="-3.86714">
        <ele>56.4</ele>
        <time>2020-06-10T11:26:58Z</time>
      </trkpt>
      <trkpt lat="48.58326" lon="-3.8671">
        <ele>56.7</ele>
        <time>2020-06-10T11:26:59Z</time>
      </trkpt>
      <trkpt lat="48.58327" lon="-3.86709">
        <ele>56.8</ele>
        <time>2020-06-10T11:27:00Z</time>
      </trkpt>
      <trkpt lat="48.58328" lon="-3.86708">
        <ele>57</ele>
        <time>2020-06-10T11:27:01Z</time>
      </trkpt>
      <trkpt lat="48.5833" lon="-3.86708">
        <ele>57.2</ele>
        <time>2020-06-10T11:27:02Z</time>
      </trkpt>
      <trkpt lat="48.58333" lon="-3.86705">
        <ele>57.5</ele>
        <time>2020-06-10T11:27:03Z</time>
      </trkpt>
      <trkpt lat="48.58334" lon="-3.86704">
        <ele>57.7</ele>
        <time>2020-06-10T11:27:04Z</time>
      </trkpt>
      <trkpt lat="48.58335" lon="-3.86702">
        <ele>57.9</ele>
        <time>2020-06-10T11:27:05Z</time>
      </trkpt>
      <trkpt lat="48.58336" lon="-3.86701">
        <ele>58.1</ele>
        <time>2020-06-10T11:27:06Z</time>
      </trkpt>
      <trkpt lat="48.58338" lon="-3.86699">
        <ele>58.3</ele>
        <time>2020-06-10T11:27:07Z</time>
      </trkpt>
      <trkpt lat="48.58339" lon="-3.86698">
        <ele>58.5</ele>
        <time>2020-06-10T11:27:08Z</time>
      </trkpt>
      <trkpt lat="48.58342" lon="-3.86695">
        <ele>58.8</ele>
        <time>2020-06-10T11:27:09Z</time>
      </trkpt>
      <trkpt lat="48.58343" lon="-3.86694">
        <ele>58.9</ele>
        <time>2020-06-10T11:27:10Z</time>
      </trkpt>
      <trkpt lat="48.58345" lon="-3.86693">
        <ele>59.2</ele>
        <time>2020-06-10T11:27:11Z</time>
      </trkpt>
      <trkpt lat="48.58346" lon="-3.86692">
        <ele>59.3</ele>
        <time>2020-06-10T11:27:12Z</time>
      </trkpt>
      <trkpt lat="48.58348" lon="-3.86688">
        <ele>59.7</ele>
        <time>2020-06-10T11:27:13Z</time>
      </trkpt>
      <trkpt lat="48.58349" lon="-3.86687">
        <ele>59.8</ele>
        <time>2020-06-10T11:27:14Z</time>
      </trkpt>
      <trkpt lat="48.5835" lon="-3.86685">
        <ele>60</ele>
        <time>2020-06-10T11:27:15Z</time>
      </trkpt>
      <trkpt lat="48.58351" lon="-3.86683">
        <ele>60.2</ele>
        <time>2020-06-10T11:27:16Z</time>
      </trkpt>
      <trkpt lat="48.58353" lon="-3.86681">
        <ele>60.4</ele>
        <time>2020-06-10T11:27:17Z</time>
      </trkpt>
      <trkpt lat="48.58354" lon="-3.8668">
        <ele>60.5</ele>
        <time>2020-06-10T11:27:18Z</time>
      </trkpt>
      <trkpt lat="48.58357" lon="-3.86678">
        <ele>60.8</ele>
        <time>2020-06-10T11:27:19Z</time>
      </trkpt>
      <trkpt lat="48.58358" lon="-3.86677">
        <ele>61</ele>
        <time>2020-06-10T11:27:20Z</time>
      </trkpt>
      <trkpt lat="48.5836" lon="-3.86676">
        <ele>61.2</ele>
        <time>2020-06-10T11:27:21Z</time>
      </trkpt>
      <trkpt lat="48.58361" lon="-3.86675">
        <ele>61.3</ele>
        <time>2020-06-10T11:27:22Z</time>
      </trkpt>
      <trkpt lat="48.58364" lon="-3.86672">
        <ele>61.6</ele>
        <time>2020-06-10T11:27:23Z</time>
      </trkpt>
      <trkpt lat="48.58364" lon="-3.86671">
        <ele>61.8</ele>
        <time>2020-06-10T11:27:24Z</time>
      </trkpt>
      <trkpt lat="48.58365" lon="-3.86671">
        <ele>61.9</ele>
        <time>2020-06-10T11:27:25Z</time>
      </trkpt>
      <trkpt lat="48.58366" lon="-3.8667">
        <ele>62</ele>
        <time>2020-06-10T11:27:26Z</time>
      </trkpt>
      <trkpt lat="48.58367" lon="-3.86669">
        <ele>62.1</ele>
        <time>2020-06-10T11:27:27Z</time>
      </trkpt>
      <trkpt lat="48.5837" lon="-3.86667">
        <ele>62.4</ele>
        <time>2020-06-10T11:27:28Z</time>
      </trkpt>
      <trkpt lat="48.58371" lon="-3.86666">
        <ele>62.5</ele>
        <time>2020-06-10T11:27:29Z</time>
      </trkpt>
      <trkpt lat="48.58373" lon="-3.86664">
        <ele>62.8</ele>
        <time>2020-06-10T11:27:30Z</time>
      </trkpt>
      <trkpt lat="48.58373" lon="-3.86663">
        <ele>62.9</ele>
        <time>2020-06-10T11:27:31Z</time>
      </trkpt>
      <trkpt lat="48.58375" lon="-3.86661">
        <ele>63.1</ele>
        <time>2020-06-10T11:27:32Z</time>
      </trkpt>
      <trkpt lat="48.58376" lon="-3.8666">
        <ele>63.3</ele>
        <time>2020-06-10T11:27:33Z</time>
      </trkpt>
      <trkpt lat="48.58379" lon="-3.86658">
        <ele>63.6</ele>
        <time>2020-06-10T11:27:34Z</time>
      </trkpt>
      <trkpt lat="48.5838" lon="-3.86657">
        <ele>63.7</ele>
        <time>2020-06-10T11:27:35Z</time>
      </trkpt>
      <trkpt lat="48.58381" lon="-3.86656">
        <ele>63.9</ele>
        <time>2020-06-10T11:27:36Z</time>
      </trkpt>
      <trkpt lat="48.58382" lon="-3.86655">
        <ele>64.1</ele>
        <time>2020-06-10T11:27:37Z</time>
      </trkpt>
      <trkpt lat="48.58384" lon="-3.86654">
        <ele>64.3</ele>
        <time>2020-06-10T11:27:38Z</time>
      </trkpt>
      <trkpt lat="48.58385" lon="-3.86652">
        <ele>64.4</ele>
        <time>2020-06-10T11:27:39Z</time>
      </trkpt>
      <trkpt lat="48.58386" lon="-3.86648">
        <ele>64.7</ele>
        <time>2020-06-10T11:27:40Z</time>
      </trkpt>
      <trkpt lat="48.58387" lon="-3.86647">
        <ele>64.8</ele>
        <time>2020-06-10T11:27:41Z</time>
      </trkpt>
      <trkpt lat="48.58389" lon="-3.86647">
        <ele>65</ele>
        <time>2020-06-10T11:27:42Z</time>
      </trkpt>
      <trkpt lat="48.5839" lon="-3.86645">
        <ele>65.2</ele>
        <time>2020-06-10T11:27:43Z</time>
      </trkpt>
      <trkpt lat="48.58392" lon="-3.86643">
        <ele>65.4</ele>
        <time>2020-06-10T11:27:44Z</time>
      </trkpt>
      <trkpt lat="48.58393" lon="-3.86642">
        <ele>65.5</ele>
        <time>2020-06-10T11:27:45Z</time>
      </trkpt>
      <trkpt lat="48.58395" lon="-3.86641">
        <ele>65.7</ele>
        <time>2020-06-10T11:27:46Z</time>
      </trkpt>
      <trkpt lat="48.58396" lon="-3.86641">
        <ele>65.8</ele>
        <time>2020-06-10T11:27:47Z</time>
      </trkpt>
      <trkpt lat="48.58398" lon="-3.86637">
        <ele>66.1</ele>
        <time>2020-06-10T11:27:48Z</time>
      </trkpt>
      <trkpt lat="48.58399" lon="-3.86636">
        <ele>66.2</ele>
        <time>2020-06-10T11:27:49Z</time>
      </trkpt>
      <trkpt lat="48.584" lon="-3.86635">
        <ele>66.4</ele>
        <time>2020-06-10T11:27:50Z</time>
      </trkpt>
      <trkpt lat="48.58402" lon="-3.86634">
        <ele>66.6</ele>
        <time>2020-06-10T11:27:51Z</time>
      </trkpt>
      <trkpt lat="48.58404" lon="-3.8663">
        <ele>66.9</ele>
        <time>2020-06-10T11:27:52Z</time>
      </trkpt>
      <trkpt lat="48.58404" lon="-3.86629">
        <ele>66.9</ele>
        <time>2020-06-10T11:27:53Z</time>
      </trkpt>
      <trkpt lat="48.58405" lon="-3.86628">
        <ele>67.1</ele>
        <time>2020-06-10T11:27:54Z</time>
      </trkpt>
      <trkpt lat="48.58407" lon="-3.86627">
        <ele>67.2</ele>
        <time>2020-06-10T11:27:55Z</time>
      </trkpt>
      <trkpt lat="48.58408" lon="-3.86626">
        <ele>67.4</ele>
        <time>2020-06-10T11:27:56Z</time>
      </trkpt>
      <trkpt lat="48.5841" lon="-3.86624">
        <ele>67.6</ele>
        <time>2020-06-10T11:27:57Z</time>
      </trkpt>
      <trkpt lat="48.58412" lon="-3.86622">
        <ele>67.9</ele>
        <time>2020-06-10T11:27:58Z</time>
      </trkpt>
      <trkpt lat="48.58413" lon="-3.86621">
        <ele>68</ele>
        <time>2020-06-10T11:27:59Z</time>
      </trkpt>
      <trkpt lat="48.58414" lon="-3.8662">
        <ele>68.2</ele>
        <time>2020-06-10T11:28:00Z</time>
      </trkpt>
      <trkpt lat="48.58416" lon="-3.86619">
        <ele>68.4</ele>
        <time>2020-06-10T11:28:01Z</time>
      </trkpt>
      <trkpt lat="48.58417" lon="-3.86617">
        <ele>68.5</ele>
        <time>2020-06-10T11:28:02Z</time>
      </trkpt>
      <trkpt lat="48.58419" lon="-3.86615">
        <ele>68.7</ele>
        <time>2020-06-10T11:28:03Z</time>
      </trkpt>
      <trkpt lat="48.5842" lon="-3.86614">
        <ele>69</ele>
        <time>2020-06-10T11:28:04Z</time>
      </trkpt>
      <trkpt lat="48.58421" lon="-3.86613">
        <ele>69</ele>
        <time>2020-06-10T11:28:05Z</time>
      </trkpt>
      <trkpt lat="48.58422" lon="-3.86612">
        <ele>69.1</ele>
        <time>2020-06-10T11:28:06Z</time>
      </trkpt>
      <trkpt lat="48.58423" lon="-3.8661">
        <ele>69.3</ele>
        <time>2020-06-10T11:28:07Z</time>
      </trkpt>
      <trkpt lat="48.58424" lon="-3.86609">
        <ele>69.4</ele>
        <time>2020-06-10T11:28:08Z</time>
      </trkpt>
      <trkpt lat="48.58425" lon="-3.86608">
        <ele>69.6</ele>
        <time>2020-06-10T11:28:09Z</time>
      </trkpt>
      <trkpt lat="48.58426" lon="-3.86607">
        <ele>69.7</ele>
        <time>2020-06-10T11:28:10Z</time>
      </trkpt>
      <trkpt lat="48.58429" lon="-3.86606">
        <ele>70</ele>
        <time>2020-06-10T11:28:11Z</time>
      </trkpt>
      <trkpt lat="48.5843" lon="-3.86605">
        <ele>70.1</ele>
        <time>2020-06-10T11:28:12Z</time>
      </trkpt>
      <trkpt lat="48.58432" lon="-3.86604">
        <ele>70.3</ele>
        <time>2020-06-10T11:28:13Z</time>
      </trkpt>
      <trkpt lat="48.58433" lon="-3.86603">
        <ele>70.5</ele>
        <time>2020-06-10T11:28:14Z</time>
      </trkpt>
      <trkpt lat="48.58435" lon="-3.86602">
        <ele>70.7</ele>
        <time>2020-06-10T11:28:15Z</time>
      </trkpt>
      <trkpt lat="48.58435" lon="-3.86601">
        <ele>70.8</ele>
        <time>2020-06-10T11:28:16Z</time>
      </trkpt>
      <trkpt lat="48.58437" lon="-3.866">
        <ele>70.9</ele>
        <time>2020-06-10T11:28:17Z</time>
      </trkpt>
      <trkpt lat="48.58438" lon="-3.86597">
        <ele>71.1</ele>
        <time>2020-06-10T11:28:18Z</time>
      </trkpt>
      <trkpt lat="48.5844" lon="-3.86594">
        <ele>71.5</ele>
        <time>2020-06-10T11:28:19Z</time>
      </trkpt>
      <trkpt lat="48.58441" lon="-3.86592">
        <ele>71.6</ele>
        <time>2020-06-10T11:28:20Z</time>
      </trkpt>
      <trkpt lat="48.58443" lon="-3.86589">
        <ele>71.9</ele>
        <time>2020-06-10T11:28:21Z</time>
      </trkpt>
      <trkpt lat="48.58444" lon="-3.86588">
        <ele>72</ele>
        <time>2020-06-10T11:28:22Z</time>
      </trkpt>
      <trkpt lat="48.58446" lon="-3.86586">
        <ele>72.2</ele>
        <time>2020-06-10T11:28:23Z</time>
      </trkpt>
      <trkpt lat="48.58447" lon="-3.86585">
        <ele>72.3</ele>
        <time>2020-06-10T11:28:24Z</time>
      </trkpt>
      <trkpt lat="48.58449" lon="-3.86583">
        <ele>72.5</ele>
        <time>2020-06-10T11:28:25Z</time>
      </trkpt>
      <trkpt lat="48.5845" lon="-3.86581">
        <ele>72.6</ele>
        <time>2020-06-10T11:28:26Z</time>
      </trkpt>
      <trkpt lat="48.5845" lon="-3.86579">
        <ele>72.7</ele>
        <time>2020-06-10T11:28:27Z</time>
      </trkpt>
      <trkpt lat="48.5845" lon="-3.86576">
        <ele>72.9</ele>
        <time>2020-06-10T11:28:28Z</time>
      </trkpt>
      <trkpt lat="48.58452" lon="-3.86573">
        <ele>73.1</ele>
        <time>2020-06-10T11:28:29Z</time>
      </trkpt>
      <trkpt lat="48.58453" lon="-3.86571">
        <ele>73.2</ele>
        <time>2020-06-10T11:28:30Z</time>
      </trkpt>
      <trkpt lat="48.58456" lon="-3.86569">
        <ele>73.4</ele>
        <time>2020-06-10T11:28:31Z</time>
      </trkpt>
      <trkpt lat="48.58456" lon="-3.86569">
        <ele>73.5</ele>
        <time>2020-06-10T11:28:32Z</time>
      </trkpt>
      <trkpt lat="48.58459" lon="-3.86565">
        <ele>73.8</ele>
        <time>2020-06-10T11:28:33Z</time>
      </trkpt>
      <trkpt lat="48.5846" lon="-3.86564">
        <ele>73.9</ele>
        <time>2020-06-10T11:28:34Z</time>
      </trkpt>
      <trkpt lat="48.58463" lon="-3.86561">
        <ele>74.1</ele>
        <time>2020-06-10T11:28:35Z</time>
      </trkpt>
      <trkpt lat="48.58464" lon="-3.8656">
        <ele>74.2</ele>
        <time>2020-06-10T11:28:36Z</time>
      </trkpt>
      <trkpt lat="48.58466" lon="-3.86557">
        <ele>74.3</ele>
        <time>2020-06-10T11:28:37Z</time>
      </trkpt>
      <trkpt lat="48.58469" lon="-3.86554">
        <ele>74.6</ele>
        <time>2020-06-10T11:28:38Z</time>
      </trkpt>
      <trkpt lat="48.58469" lon="-3.86553">
        <ele>74.7</ele>
        <time>2020-06-10T11:28:39Z</time>
      </trkpt>
      <trkpt lat="48.58472" lon="-3.86549">
        <ele>74.8</ele>
        <time>2020-06-10T11:28:40Z</time>
      </trkpt>
      <trkpt lat="48.58472" lon="-3.86548">
        <ele>74.9</ele>
        <time>2020-06-10T11:28:41Z</time>
      </trkpt>
      <trkpt lat="48.58474" lon="-3.86545">
        <ele>75.1</ele>
        <time>2020-06-10T11:28:42Z</time>
      </trkpt>
      <trkpt lat="48.58474" lon="-3.86544">
        <ele>75.1</ele>
        <time>2020-06-10T11:28:43Z</time>
      </trkpt>
      <trkpt lat="48.58476" lon="-3.86541">
        <ele>75.5</ele>
        <time>2020-06-10T11:28:44Z</time>
      </trkpt>
      <trkpt lat="48.58477" lon="-3.8654">
        <ele>75.6</ele>
        <time>2020-06-10T11:28:45Z</time>
      </trkpt>
      <trkpt lat="48.58479" lon="-3.86536">
        <ele>75.8</ele>
        <time>2020-06-10T11:28:46Z</time>
      </trkpt>
      <trkpt lat="48.5848" lon="-3.86535">
        <ele>75.9</ele>
        <time>2020-06-10T11:28:47Z</time>
      </trkpt>
      <trkpt lat="48.58482" lon="-3.86531">
        <ele>76.1</ele>
        <time>2020-06-10T11:28:48Z</time>
      </trkpt>
      <trkpt lat="48.58483" lon="-3.8653">
        <ele>76.2</ele>
        <time>2020-06-10T11:28:49Z</time>
      </trkpt>
      <trkpt lat="48.58484" lon="-3.86528">
        <ele>76.3</ele>
        <time>2020-06-10T11:28:50Z</time>
      </trkpt>
      <trkpt lat="48.58485" lon="-3.86526">
        <ele>76.5</ele>
        <time>2020-06-10T11:28:51Z</time>
      </trkpt>
      <trkpt lat="48.58485" lon="-3.86524">
        <ele>76.6</ele>
        <time>2020-06-10T11:28:52Z</time>
      </trkpt>
      <trkpt lat="48.58486" lon="-3.86521">
        <ele>76.7</ele>
        <time>2020-06-10T11:28:53Z</time>
      </trkpt>
      <trkpt lat="48.58487" lon="-3.86519">
        <ele>76.8</ele>
        <time>2020-06-10T11:28:54Z</time>
      </trkpt>
      <trkpt lat="48.58488" lon="-3.86516">
        <ele>77</ele>
        <time>2020-06-10T11:28:55Z</time>
      </trkpt>
      <trkpt lat="48.58489" lon="-3.86514">
        <ele>77.1</ele>
        <time>2020-06-10T11:28:56Z</time>
      </trkpt>
      <trkpt lat="48.5849" lon="-3.86512">
        <ele>77.2</ele>
        <time>2020-06-10T11:28:57Z</time>
      </trkpt>
      <trkpt lat="48.58492" lon="-3.86509">
        <ele>77.5</ele>
        <time>2020-06-10T11:28:58Z</time>
      </trkpt>
      <trkpt lat="48.58492" lon="-3.86508">
        <ele>77.6</ele>
        <time>2020-06-10T11:28:59Z</time>
      </trkpt>
      <trkpt lat="48.58494" lon="-3.86505">
        <ele>77.7</ele>
        <time>2020-06-10T11:29:00Z</time>
      </trkpt>
      <trkpt lat="48.58494" lon="-3.86503">
        <ele>77.8</ele>
        <time>2020-06-10T11:29:01Z</time>
      </trkpt>
      <trkpt lat="48.58495" lon="-3.86501">
        <ele>78</ele>
        <time>2020-06-10T11:29:02Z</time>
      </trkpt>
      <trkpt lat="48.58496" lon="-3.86498">
        <ele>78.1</ele>
        <time>2020-06-10T11:29:03Z</time>
      </trkpt>
      <trkpt lat="48.58498" lon="-3.86495">
        <ele>78.4</ele>
        <time>2020-06-10T11:29:04Z</time>
      </trkpt>
      <trkpt lat="48.58499" lon="-3.86493">
        <ele>78.5</ele>
        <time>2020-06-10T11:29:05Z</time>
      </trkpt>
      <trkpt lat="48.58501" lon="-3.86489">
        <ele>78.7</ele>
        <time>2020-06-10T11:29:06Z</time>
      </trkpt>
      <trkpt lat="48.58501" lon="-3.86488">
        <ele>78.8</ele>
        <time>2020-06-10T11:29:07Z</time>
      </trkpt>
      <trkpt lat="48.58503" lon="-3.86484">
        <ele>79</ele>
        <time>2020-06-10T11:29:08Z</time>
      </trkpt>
      <trkpt lat="48.58503" lon="-3.86483">
        <ele>79.1</ele>
        <time>2020-06-10T11:29:09Z</time>
      </trkpt>
      <trkpt lat="48.58505" lon="-3.8648">
        <ele>79.3</ele>
        <time>2020-06-10T11:29:10Z</time>
      </trkpt>
      <trkpt lat="48.58506" lon="-3.86478">
        <ele>79.4</ele>
        <time>2020-06-10T11:29:11Z</time>
      </trkpt>
      <trkpt lat="48.58507" lon="-3.86476">
        <ele>79.5</ele>
        <time>2020-06-10T11:29:12Z</time>
      </trkpt>
      <trkpt lat="48.58507" lon="-3.86473">
        <ele>79.7</ele>
        <time>2020-06-10T11:29:13Z</time>
      </trkpt>
      <trkpt lat="48.58508" lon="-3.86469">
        <ele>79.9</ele>
        <time>2020-06-10T11:29:14Z</time>
      </trkpt>
      <trkpt lat="48.58508" lon="-3.86468">
        <ele>80</ele>
        <time>2020-06-10T11:29:15Z</time>
      </trkpt>
      <trkpt lat="48.5851" lon="-3.86464">
        <ele>80.2</ele>
        <time>2020-06-10T11:29:16Z</time>
      </trkpt>
      <trkpt lat="48.5851" lon="-3.86462">
        <ele>80.3</ele>
        <time>2020-06-10T11:29:17Z</time>
      </trkpt>
      <trkpt lat="48.58512" lon="-3.86458">
        <ele>80.5</ele>
        <time>2020-06-10T11:29:18Z</time>
      </trkpt>
      <trkpt lat="48.58512" lon="-3.86457">
        <ele>80.6</ele>
        <time>2020-06-10T11:29:19Z</time>
      </trkpt>
      <trkpt lat="48.58514" lon="-3.86454">
        <ele>80.8</ele>
        <time>2020-06-10T11:29:20Z</time>
      </trkpt>
      <trkpt lat="48.58515" lon="-3.86453">
        <ele>80.9</ele>
        <time>2020-06-10T11:29:21Z</time>
      </trkpt>
      <trkpt lat="48.58517" lon="-3.86449">
        <ele>81.1</ele>
        <time>2020-06-10T11:29:22Z</time>
      </trkpt>
      <trkpt lat="48.58518" lon="-3.86448">
        <ele>81.2</ele>
        <time>2020-06-10T11:29:23Z</time>
      </trkpt>
      <trkpt lat="48.58519" lon="-3.86446">
        <ele>81.3</ele>
        <time>2020-06-10T11:29:24Z</time>
      </trkpt>
      <trkpt lat="48.5852" lon="-3.86445">
        <ele>81.4</ele>
        <time>2020-06-10T11:29:25Z</time>
      </trkpt>
      <trkpt lat="48.58521" lon="-3.86441">
        <ele>81.7</ele>
        <time>2020-06-10T11:29:26Z</time>
      </trkpt>
      <trkpt lat="48.58522" lon="-3.8644">
        <ele>81.7</ele>
        <time>2020-06-10T11:29:27Z</time>
      </trkpt>
      <trkpt lat="48.58523" lon="-3.86436">
        <ele>82</ele>
        <time>2020-06-10T11:29:28Z</time>
      </trkpt>
      <trkpt lat="48.58524" lon="-3.86435">
        <ele>82</ele>
        <time>2020-06-10T11:29:29Z</time>
      </trkpt>
      <trkpt lat="48.58526" lon="-3.86431">
        <ele>82.3</ele>
        <time>2020-06-10T11:29:30Z</time>
      </trkpt>
      <trkpt lat="48.58527" lon="-3.86429">
        <ele>82.4</ele>
        <time>2020-06-10T11:29:31Z</time>
      </trkpt>
      <trkpt lat="48.58529" lon="-3.86425">
        <ele>82.6</ele>
        <time>2020-06-10T11:29:32Z</time>
      </trkpt>
      <trkpt lat="48.5853" lon="-3.86424">
        <ele>82.7</ele>
        <time>2020-06-10T11:29:33Z</time>
      </trkpt>
      <trkpt lat="48.58533" lon="-3.86422">
        <ele>83</ele>
        <time>2020-06-10T11:29:34Z</time>
      </trkpt>
      <trkpt lat="48.58533" lon="-3.86421">
        <ele>83</ele>
        <time>2020-06-10T11:29:35Z</time>
      </trkpt>
      <trkpt lat="48.58535" lon="-3.86417">
        <ele>83.2</ele>
        <time>2020-06-10T11:29:36Z</time>
      </trkpt>
      <trkpt lat="48.58536" lon="-3.86415">
        <ele>83.3</ele>
        <time>2020-06-10T11:29:37Z</time>
      </trkpt>
      <trkpt lat="48.58538" lon="-3.86411">
        <ele>83.5</ele>
        <time>2020-06-10T11:29:38Z</time>
      </trkpt>
      <trkpt lat="48.58538" lon="-3.8641">
        <ele>83.6</ele>
        <time>2020-06-10T11:29:39Z</time>
      </trkpt>
      <trkpt lat="48.58541" lon="-3.86407">
        <ele>83.8</ele>
        <time>2020-06-10T11:29:40Z</time>
      </trkpt>
      <trkpt lat="48.58541" lon="-3.86406">
        <ele>83.9</ele>
        <time>2020-06-10T11:29:41Z</time>
      </trkpt>
      <trkpt lat="48.58544" lon="-3.86403">
        <ele>84.1</ele>
        <time>2020-06-10T11:29:42Z</time>
      </trkpt>
      <trkpt lat="48.58544" lon="-3.86402">
        <ele>84.2</ele>
        <time>2020-06-10T11:29:43Z</time>
      </trkpt>
      <trkpt lat="48.58547" lon="-3.864">
        <ele>84.4</ele>
        <time>2020-06-10T11:29:44Z</time>
      </trkpt>
      <trkpt lat="48.58548" lon="-3.86399">
        <ele>84.4</ele>
        <time>2020-06-10T11:29:45Z</time>
      </trkpt>
      <trkpt lat="48.5855" lon="-3.86395">
        <ele>84.6</ele>
        <time>2020-06-10T11:29:46Z</time>
      </trkpt>
      <trkpt lat="48.58551" lon="-3.86394">
        <ele>84.7</ele>
        <time>2020-06-10T11:29:47Z</time>
      </trkpt>
      <trkpt lat="48.58554" lon="-3.8639">
        <ele>84.9</ele>
        <time>2020-06-10T11:29:48Z</time>
      </trkpt>
      <trkpt lat="48.58555" lon="-3.86389">
        <ele>85</ele>
        <time>2020-06-10T11:29:49Z</time>
      </trkpt>
      <trkpt lat="48.58557" lon="-3.86386">
        <ele>85.2</ele>
        <time>2020-06-10T11:29:50Z</time>
      </trkpt>
      <trkpt lat="48.58558" lon="-3.86385">
        <ele>85.3</ele>
        <time>2020-06-10T11:29:51Z</time>
      </trkpt>
      <trkpt lat="48.58561" lon="-3.86382">
        <ele>85.5</ele>
        <time>2020-06-10T11:29:52Z</time>
      </trkpt>
      <trkpt lat="48.58562" lon="-3.8638">
        <ele>85.6</ele>
        <time>2020-06-10T11:29:53Z</time>
      </trkpt>
      <trkpt lat="48.58565" lon="-3.86378">
        <ele>85.8</ele>
        <time>2020-06-10T11:29:54Z</time>
      </trkpt>
      <trkpt lat="48.58566" lon="-3.86377">
        <ele>85.8</ele>
        <time>2020-06-10T11:29:55Z</time>
      </trkpt>
      <trkpt lat="48.58568" lon="-3.86374">
        <ele>86</ele>
        <time>2020-06-10T11:29:56Z</time>
      </trkpt>
      <trkpt lat="48.58569" lon="-3.86373">
        <ele>86.1</ele>
        <time>2020-06-10T11:29:57Z</time>
      </trkpt>
      <trkpt lat="48.58572" lon="-3.86369">
        <ele>86.3</ele>
        <time>2020-06-10T11:29:58Z</time>
      </trkpt>
      <trkpt lat="48.58573" lon="-3.86368">
        <ele>86.4</ele>
        <time>2020-06-10T11:29:59Z</time>
      </trkpt>
      <trkpt lat="48.58576" lon="-3.86366">
        <ele>86.5</ele>
        <time>2020-06-10T11:30:00Z</time>
      </trkpt>
      <trkpt lat="48.58576" lon="-3.86365">
        <ele>86.6</ele>
        <time>2020-06-10T11:30:01Z</time>
      </trkpt>
      <trkpt lat="48.58579" lon="-3.86362">
        <ele>86.8</ele>
        <time>2020-06-10T11:30:02Z</time>
      </trkpt>
      <trkpt lat="48.5858" lon="-3.86362">
        <ele>86.8</ele>
        <time>2020-06-10T11:30:03Z</time>
      </trkpt>
      <trkpt lat="48.58583" lon="-3.86359">
        <ele>87</ele>
        <time>2020-06-10T11:30:04Z</time>
      </trkpt>
      <trkpt lat="48.58584" lon="-3.86357">
        <ele>87.1</ele>
        <time>2020-06-10T11:30:05Z</time>
      </trkpt>
      <trkpt lat="48.58586" lon="-3.86354">
        <ele>87.2</ele>
        <time>2020-06-10T11:30:06Z</time>
      </trkpt>
      <trkpt lat="48.58589" lon="-3.86352">
        <ele>87.4</ele>
        <time>2020-06-10T11:30:07Z</time>
      </trkpt>
      <trkpt lat="48.5859" lon="-3.86351">
        <ele>87.4</ele>
        <time>2020-06-10T11:30:08Z</time>
      </trkpt>
      <trkpt lat="48.58593" lon="-3.86349">
        <ele>87.6</ele>
        <time>2020-06-10T11:30:09Z</time>
      </trkpt>
      <trkpt lat="48.58593" lon="-3.86348">
        <ele>87.6</ele>
        <time>2020-06-10T11:30:10Z</time>
      </trkpt>
      <trkpt lat="48.58596" lon="-3.86346">
        <ele>87.7</ele>
        <time>2020-06-10T11:30:11Z</time>
      </trkpt>
      <trkpt lat="48.58598" lon="-3.86346">
        <ele>87.8</ele>
        <time>2020-06-10T11:30:12Z</time>
      </trkpt>
      <trkpt lat="48.58601" lon="-3.86345">
        <ele>87.9</ele>
        <time>2020-06-10T11:30:13Z</time>
      </trkpt>
      <trkpt lat="48.58602" lon="-3.86344">
        <ele>88</ele>
        <time>2020-06-10T11:30:14Z</time>
      </trkpt>
      <trkpt lat="48.58604" lon="-3.86341">
        <ele>88.1</ele>
        <time>2020-06-10T11:30:15Z</time>
      </trkpt>
      <trkpt lat="48.58605" lon="-3.8634">
        <ele>88.2</ele>
        <time>2020-06-10T11:30:16Z</time>
      </trkpt>
      <trkpt lat="48.58608" lon="-3.86337">
        <ele>88.3</ele>
        <time>2020-06-10T11:30:17Z</time>
      </trkpt>
      <trkpt lat="48.58609" lon="-3.86336">
        <ele>88.4</ele>
        <time>2020-06-10T11:30:18Z</time>
      </trkpt>
      <trkpt lat="48.58611" lon="-3.86332">
        <ele>88.5</ele>
        <time>2020-06-10T11:30:19Z</time>
      </trkpt>
      <trkpt lat="48.58612" lon="-3.86331">
        <ele>88.6</ele>
        <time>2020-06-10T11:30:20Z</time>
      </trkpt>
      <trkpt lat="48.58613" lon="-3.8633">
        <ele>88.6</ele>
        <time>2020-06-10T11:30:21Z</time>
      </trkpt>
      <trkpt lat="48.58614" lon="-3.86328">
        <ele>88.7</ele>
        <time>2020-06-10T11:30:22Z</time>
      </trkpt>
      <trkpt lat="48.58615" lon="-3.86326">
        <ele>88.8</ele>
        <time>2020-06-10T11:30:23Z</time>
      </trkpt>
      <trkpt lat="48.58616" lon="-3.86324">
        <ele>88.8</ele>
        <time>2020-06-10T11:30:24Z</time>
      </trkpt>
      <trkpt lat="48.58616" lon="-3.86323">
        <ele>88.8</ele>
        <time>2020-06-10T11:30:25Z</time>
      </trkpt>
      <trkpt lat="48.58616" lon="-3.86321">
        <ele>88.9</ele>
        <time>2020-06-10T11:30:26Z</time>
      </trkpt>
      <trkpt lat="48.58617" lon="-3.8632">
        <ele>88.9</ele>
        <time>2020-06-10T11:30:27Z</time>
      </trkpt>
      <trkpt lat="48.58618" lon="-3.8632">
        <ele>88.9</ele>
        <time>2020-06-10T11:30:28Z</time>
      </trkpt>
      <trkpt lat="48.58618" lon="-3.8632">
        <ele>89</ele>
        <time>2020-06-10T11:30:29Z</time>
      </trkpt>
      <trkpt lat="48.58618" lon="-3.86319">
        <ele>89</ele>
        <time>2020-06-10T11:30:30Z</time>
      </trkpt>
      <trkpt lat="48.58617" lon="-3.86318">
        <ele>89</ele>
        <time>2020-06-10T11:30:31Z</time>
      </trkpt>
      <trkpt lat="48.58617" lon="-3.86317">
        <ele>89</ele>
        <time>2020-06-10T11:30:32Z</time>
      </trkpt>
      <trkpt lat="48.58617" lon="-3.86315">
        <ele>89</ele>
        <time>2020-06-10T11:30:33Z</time>
      </trkpt>
      <trkpt lat="48.58617" lon="-3.86314">
        <ele>89</ele>
        <time>2020-06-10T11:30:34Z</time>
      </trkpt>
      <trkpt lat="48.58616" lon="-3.86313">
        <ele>89</ele>
        <time>2020-06-10T11:30:35Z</time>
      </trkpt>
      <trkpt lat="48.58616" lon="-3.86312">
        <ele>89</ele>
        <time>2020-06-10T11:30:36Z</time>
      </trkpt>
      <trkpt lat="48.58616" lon="-3.86311">
        <ele>89</ele>
        <time>2020-06-10T11:30:37Z</time>
      </trkpt>
      <trkpt lat="48.58616" lon="-3.8631">
        <ele>89</ele>
        <time>2020-06-10T11:30:38Z</time>
      </trkpt>
      <trkpt lat="48.58615" lon="-3.86309">
        <ele>89</ele>
        <time>2020-06-10T11:33:30Z</time>
      </trkpt>
      <trkpt lat="48.58615" lon="-3.86308">
        <ele>89</ele>
        <time>2020-06-10T11:33:31Z</time>
      </trkpt>
      <trkpt lat="48.58615" lon="-3.86307">
        <ele>89</ele>
        <time>2020-06-10T11:33:32Z</time>
      </trkpt>
      <trkpt lat="48.58613" lon="-3.86304">
        <ele>89</ele>
        <time>2020-06-10T11:33:33Z</time>
      </trkpt>
      <trkpt lat="48.58612" lon="-3.86303">
        <ele>89</ele>
        <time>2020-06-10T11:33:34Z</time>
      </trkpt>
      <trkpt lat="48.58609" lon="-3.863">
        <ele>89.1</ele>
        <time>2020-06-10T11:33:35Z</time>
      </trkpt>
      <trkpt lat="48.58608" lon="-3.86298">
        <ele>89.1</ele>
        <time>2020-06-10T11:33:36Z</time>
      </trkpt>
      <trkpt lat="48.58606" lon="-3.86295">
        <ele>89.1</ele>
        <time>2020-06-10T11:33:37Z</time>
      </trkpt>
      <trkpt lat="48.58604" lon="-3.86291">
        <ele>89.1</ele>
        <time>2020-06-10T11:33:38Z</time>
      </trkpt>
      <trkpt lat="48.58602" lon="-3.86286">
        <ele>89.1</ele>
        <time>2020-06-10T11:33:39Z</time>
      </trkpt>
      <trkpt lat="48.58601" lon="-3.86281">
        <ele>89.2</ele>
        <time>2020-06-10T11:33:40Z</time>
      </trkpt>
      <trkpt lat="48.58599" lon="-3.86277">
        <ele>89.2</ele>
        <time>2020-06-10T11:33:41Z</time>
      </trkpt>
      <trkpt lat="48.58597" lon="-3.86273">
        <ele>89.2</ele>
        <time>2020-06-10T11:33:42Z</time>
      </trkpt>
      <trkpt lat="48.58595" lon="-3.86268">
        <ele>89.2</ele>
        <time>2020-06-10T11:33:43Z</time>
      </trkpt>
      <trkpt lat="48.58594" lon="-3.86264">
        <ele>89.2</ele>
        <time>2020-06-10T11:33:44Z</time>
      </trkpt>
      <trkpt lat="48.58592" lon="-3.86258">
        <ele>89.1</ele>
        <time>2020-06-10T11:33:45Z</time>
      </trkpt>
      <trkpt lat="48.58589" lon="-3.86253">
        <ele>89.1</ele>
        <time>2020-06-10T11:33:46Z</time>
      </trkpt>
      <trkpt lat="48.58587" lon="-3.86249">
        <ele>89.1</ele>
        <time>2020-06-10T11:33:47Z</time>
      </trkpt>
      <trkpt lat="48.58585" lon="-3.86244">
        <ele>89.1</ele>
        <time>2020-06-10T11:33:48Z</time>
      </trkpt>
      <trkpt lat="48.58583" lon="-3.86238">
        <ele>89.2</ele>
        <time>2020-06-10T11:33:49Z</time>
      </trkpt>
      <trkpt lat="48.58579" lon="-3.86231">
        <ele>89.2</ele>
        <time>2020-06-10T11:33:50Z</time>
      </trkpt>
      <trkpt lat="48.58576" lon="-3.86226">
        <ele>89.2</ele>
        <time>2020-06-10T11:33:51Z</time>
      </trkpt>
      <trkpt lat="48.58574" lon="-3.8622">
        <ele>89.2</ele>
        <time>2020-06-10T11:33:52Z</time>
      </trkpt>
      <trkpt lat="48.58572" lon="-3.86215">
        <ele>89.2</ele>
        <time>2020-06-10T11:33:53Z</time>
      </trkpt>
      <trkpt lat="48.5857" lon="-3.86211">
        <ele>89.2</ele>
        <time>2020-06-10T11:33:54Z</time>
      </trkpt>
      <trkpt lat="48.58567" lon="-3.86206">
        <ele>89.2</ele>
        <time>2020-06-10T11:33:55Z</time>
      </trkpt>
      <trkpt lat="48.58565" lon="-3.862">
        <ele>89.2</ele>
        <time>2020-06-10T11:33:56Z</time>
      </trkpt>
      <trkpt lat="48.58563" lon="-3.86195">
        <ele>89.2</ele>
        <time>2020-06-10T11:33:57Z</time>
      </trkpt>
      <trkpt lat="48.58561" lon="-3.86189">
        <ele>89.2</ele>
        <time>2020-06-10T11:33:58Z</time>
      </trkpt>
      <trkpt lat="48.58558" lon="-3.86182">
        <ele>89.2</ele>
        <time>2020-06-10T11:33:59Z</time>
      </trkpt>
      <trkpt lat="48.58556" lon="-3.86177">
        <ele>89.2</ele>
        <time>2020-06-10T11:34:00Z</time>
      </trkpt>
      <trkpt lat="48.58553" lon="-3.86171">
        <ele>89.2</ele>
        <time>2020-06-10T11:34:01Z</time>
      </trkpt>
      <trkpt lat="48.5855" lon="-3.86166">
        <ele>89.2</ele>
        <time>2020-06-10T11:34:02Z</time>
      </trkpt>
      <trkpt lat="48.58548" lon="-3.8616">
        <ele>89.3</ele>
        <time>2020-06-10T11:34:03Z</time>
      </trkpt>
      <trkpt lat="48.58546" lon="-3.86154">
        <ele>89.3</ele>
        <time>2020-06-10T11:34:04Z</time>
      </trkpt>
      <trkpt lat="48.58543" lon="-3.86149">
        <ele>89.3</ele>
        <time>2020-06-10T11:34:05Z</time>
      </trkpt>
      <trkpt lat="48.5854" lon="-3.86144">
        <ele>89.3</ele>
        <time>2020-06-10T11:34:06Z</time>
      </trkpt>
      <trkpt lat="48.58537" lon="-3.86138">
        <ele>89.3</ele>
        <time>2020-06-10T11:34:07Z</time>
      </trkpt>
      <trkpt lat="48.58534" lon="-3.86134">
        <ele>89.3</ele>
        <time>2020-06-10T11:34:08Z</time>
      </trkpt>
      <trkpt lat="48.58532" lon="-3.86128">
        <ele>89.3</ele>
        <time>2020-06-10T11:34:09Z</time>
      </trkpt>
      <trkpt lat="48.58529" lon="-3.86123">
        <ele>89.3</ele>
        <time>2020-06-10T11:34:10Z</time>
      </trkpt>
      <trkpt lat="48.58526" lon="-3.8612">
        <ele>89.3</ele>
        <time>2020-06-10T11:34:11Z</time>
      </trkpt>
      <trkpt lat="48.58523" lon="-3.86115">
        <ele>89.3</ele>
        <time>2020-06-10T11:34:12Z</time>
      </trkpt>
      <trkpt lat="48.58519" lon="-3.8611">
        <ele>89.2</ele>
        <time>2020-06-10T11:34:13Z</time>
      </trkpt>
      <trkpt lat="48.58516" lon="-3.86106">
        <ele>89.2</ele>
        <time>2020-06-10T11:34:14Z</time>
      </trkpt>
      <trkpt lat="48.58512" lon="-3.861">
        <ele>89.2</ele>
        <time>2020-06-10T11:34:15Z</time>
      </trkpt>
      <trkpt lat="48.58509" lon="-3.86095">
        <ele>89.1</ele>
        <time>2020-06-10T11:34:16Z</time>
      </trkpt>
      <trkpt lat="48.58505" lon="-3.86091">
        <ele>89</ele>
        <time>2020-06-10T11:34:17Z</time>
      </trkpt>
      <trkpt lat="48.58502" lon="-3.86086">
        <ele>88.9</ele>
        <time>2020-06-10T11:34:18Z</time>
      </trkpt>
      <trkpt lat="48.58499" lon="-3.86081">
        <ele>88.8</ele>
        <time>2020-06-10T11:34:19Z</time>
      </trkpt>
      <trkpt lat="48.58497" lon="-3.86076">
        <ele>88.8</ele>
        <time>2020-06-10T11:34:20Z</time>
      </trkpt>
      <trkpt lat="48.58494" lon="-3.86071">
        <ele>88.7</ele>
        <time>2020-06-10T11:34:21Z</time>
      </trkpt>
      <trkpt lat="48.58491" lon="-3.86065">
        <ele>88.6</ele>
        <time>2020-06-10T11:34:22Z</time>
      </trkpt>
      <trkpt lat="48.58488" lon="-3.8606">
        <ele>88.5</ele>
        <time>2020-06-10T11:34:23Z</time>
      </trkpt>
      <trkpt lat="48.58485" lon="-3.86053">
        <ele>88.3</ele>
        <time>2020-06-10T11:34:24Z</time>
      </trkpt>
      <trkpt lat="48.58482" lon="-3.86047">
        <ele>88.3</ele>
        <time>2020-06-10T11:34:25Z</time>
      </trkpt>
      <trkpt lat="48.58479" lon="-3.86042">
        <ele>88.2</ele>
        <time>2020-06-10T11:34:26Z</time>
      </trkpt>
      <trkpt lat="48.58475" lon="-3.86036">
        <ele>88.1</ele>
        <time>2020-06-10T11:34:27Z</time>
      </trkpt>
      <trkpt lat="48.58471" lon="-3.86032">
        <ele>88</ele>
        <time>2020-06-10T11:34:28Z</time>
      </trkpt>
      <trkpt lat="48.58467" lon="-3.86026">
        <ele>87.9</ele>
        <time>2020-06-10T11:34:29Z</time>
      </trkpt>
      <trkpt lat="48.58464" lon="-3.86019">
        <ele>87.9</ele>
        <time>2020-06-10T11:34:30Z</time>
      </trkpt>
      <trkpt lat="48.5846" lon="-3.86014">
        <ele>87.8</ele>
        <time>2020-06-10T11:34:31Z</time>
      </trkpt>
      <trkpt lat="48.58456" lon="-3.8601">
        <ele>87.8</ele>
        <time>2020-06-10T11:34:32Z</time>
      </trkpt>
      <trkpt lat="48.58452" lon="-3.86006">
        <ele>87.7</ele>
        <time>2020-06-10T11:34:33Z</time>
      </trkpt>
      <trkpt lat="48.58449" lon="-3.86002">
        <ele>87.6</ele>
        <time>2020-06-10T11:34:34Z</time>
      </trkpt>
      <trkpt lat="48.58445" lon="-3.85997">
        <ele>87.5</ele>
        <time>2020-06-10T11:34:35Z</time>
      </trkpt>
      <trkpt lat="48.58441" lon="-3.85993">
        <ele>87.5</ele>
        <time>2020-06-10T11:34:36Z</time>
      </trkpt>
      <trkpt lat="48.58438" lon="-3.85988">
        <ele>87.4</ele>
        <time>2020-06-10T11:34:37Z</time>
      </trkpt>
      <trkpt lat="48.58434" lon="-3.85987">
        <ele>87.3</ele>
        <time>2020-06-10T11:34:38Z</time>
      </trkpt>
      <trkpt lat="48.58431" lon="-3.85983">
        <ele>87.3</ele>
        <time>2020-06-10T11:34:39Z</time>
      </trkpt>
      <trkpt lat="48.58429" lon="-3.85979">
        <ele>87.3</ele>
        <time>2020-06-10T11:34:40Z</time>
      </trkpt>
      <trkpt lat="48.58426" lon="-3.85976">
        <ele>87.2</ele>
        <time>2020-06-10T11:34:41Z</time>
      </trkpt>
      <trkpt lat="48.58423" lon="-3.85973">
        <ele>87.2</ele>
        <time>2020-06-10T11:34:42Z</time>
      </trkpt>
      <trkpt lat="48.5842" lon="-3.8597">
        <ele>87.2</ele>
        <time>2020-06-10T11:34:43Z</time>
      </trkpt>
      <trkpt lat="48.58416" lon="-3.85967">
        <ele>87.1</ele>
        <time>2020-06-10T11:34:44Z</time>
      </trkpt>
      <trkpt lat="48.58413" lon="-3.85965">
        <ele>87.1</ele>
        <time>2020-06-10T11:34:45Z</time>
      </trkpt>
      <trkpt lat="48.5841" lon="-3.85963">
        <ele>87</ele>
        <time>2020-06-10T11:34:46Z</time>
      </trkpt>
      <trkpt lat="48.58407" lon="-3.85962">
        <ele>86.9</ele>
        <time>2020-06-10T11:34:47Z</time>
      </trkpt>
      <trkpt lat="48.58403" lon="-3.8596">
        <ele>86.8</ele>
        <time>2020-06-10T11:34:48Z</time>
      </trkpt>
      <trkpt lat="48.584" lon="-3.8596">
        <ele>86.7</ele>
        <time>2020-06-10T11:34:49Z</time>
      </trkpt>
      <trkpt lat="48.58397" lon="-3.85958">
        <ele>86.6</ele>
        <time>2020-06-10T11:34:50Z</time>
      </trkpt>
      <trkpt lat="48.58394" lon="-3.85955">
        <ele>86.5</ele>
        <time>2020-06-10T11:34:51Z</time>
      </trkpt>
      <trkpt lat="48.58391" lon="-3.85953">
        <ele>86.4</ele>
        <time>2020-06-10T11:34:52Z</time>
      </trkpt>
      <trkpt lat="48.58388" lon="-3.85951">
        <ele>86.3</ele>
        <time>2020-06-10T11:34:53Z</time>
      </trkpt>
      <trkpt lat="48.58384" lon="-3.8595">
        <ele>86.2</ele>
        <time>2020-06-10T11:34:54Z</time>
      </trkpt>
      <trkpt lat="48.58381" lon="-3.85948">
        <ele>86.1</ele>
        <time>2020-06-10T11:34:55Z</time>
      </trkpt>
      <trkpt lat="48.58376" lon="-3.85946">
        <ele>86</ele>
        <time>2020-06-10T11:34:56Z</time>
      </trkpt>
      <trkpt lat="48.58372" lon="-3.85944">
        <ele>85.9</ele>
        <time>2020-06-10T11:34:57Z</time>
      </trkpt>
      <trkpt lat="48.58368" lon="-3.85942">
        <ele>85.8</ele>
        <time>2020-06-10T11:34:58Z</time>
      </trkpt>
      <trkpt lat="48.58365" lon="-3.8594">
        <ele>85.7</ele>
        <time>2020-06-10T11:34:59Z</time>
      </trkpt>
      <trkpt lat="48.5836" lon="-3.85937">
        <ele>85.6</ele>
        <time>2020-06-10T11:35:00Z</time>
      </trkpt>
      <trkpt lat="48.58356" lon="-3.85934">
        <ele>85.5</ele>
        <time>2020-06-10T11:35:01Z</time>
      </trkpt>
      <trkpt lat="48.58351" lon="-3.85931">
        <ele>85.5</ele>
        <time>2020-06-10T11:35:02Z</time>
      </trkpt>
      <trkpt lat="48.58347" lon="-3.85927">
        <ele>85.4</ele>
        <time>2020-06-10T11:35:03Z</time>
      </trkpt>
      <trkpt lat="48.58342" lon="-3.85923">
        <ele>85.4</ele>
        <time>2020-06-10T11:35:04Z</time>
      </trkpt>
      <trkpt lat="48.58339" lon="-3.85919">
        <ele>85.4</ele>
        <time>2020-06-10T11:35:05Z</time>
      </trkpt>
      <trkpt lat="48.58334" lon="-3.85914">
        <ele>85.5</ele>
        <time>2020-06-10T11:35:06Z</time>
      </trkpt>
      <trkpt lat="48.5833" lon="-3.85911">
        <ele>85.5</ele>
        <time>2020-06-10T11:35:07Z</time>
      </trkpt>
      <trkpt lat="48.58327" lon="-3.85907">
        <ele>85.5</ele>
        <time>2020-06-10T11:35:08Z</time>
      </trkpt>
      <trkpt lat="48.58324" lon="-3.85905">
        <ele>85.5</ele>
        <time>2020-06-10T11:35:09Z</time>
      </trkpt>
      <trkpt lat="48.5832" lon="-3.85902">
        <ele>85.6</ele>
        <time>2020-06-10T11:35:10Z</time>
      </trkpt>
      <trkpt lat="48.58316" lon="-3.85899">
        <ele>85.6</ele>
        <time>2020-06-10T11:35:11Z</time>
      </trkpt>
      <trkpt lat="48.58313" lon="-3.85895">
        <ele>85.6</ele>
        <time>2020-06-10T11:35:12Z</time>
      </trkpt>
      <trkpt lat="48.5831" lon="-3.85891">
        <ele>85.6</ele>
        <time>2020-06-10T11:35:13Z</time>
      </trkpt>
      <trkpt lat="48.58307" lon="-3.85886">
        <ele>85.6</ele>
        <time>2020-06-10T11:35:14Z</time>
      </trkpt>
      <trkpt lat="48.58303" lon="-3.85881">
        <ele>85.6</ele>
        <time>2020-06-10T11:35:15Z</time>
      </trkpt>
      <trkpt lat="48.58299" lon="-3.85877">
        <ele>85.7</ele>
        <time>2020-06-10T11:35:16Z</time>
      </trkpt>
      <trkpt lat="48.58296" lon="-3.85872">
        <ele>85.7</ele>
        <time>2020-06-10T11:35:17Z</time>
      </trkpt>
      <trkpt lat="48.58293" lon="-3.85867">
        <ele>85.7</ele>
        <time>2020-06-10T11:35:18Z</time>
      </trkpt>
      <trkpt lat="48.5829" lon="-3.85863">
        <ele>85.7</ele>
        <time>2020-06-10T11:35:19Z</time>
      </trkpt>
      <trkpt lat="48.58287" lon="-3.85859">
        <ele>85.7</ele>
        <time>2020-06-10T11:35:20Z</time>
      </trkpt>
      <trkpt lat="48.58284" lon="-3.85854">
        <ele>85.7</ele>
        <time>2020-06-10T11:35:21Z</time>
      </trkpt>
      <trkpt lat="48.58282" lon="-3.8585">
        <ele>85.7</ele>
        <time>2020-06-10T11:35:22Z</time>
      </trkpt>
      <trkpt lat="48.58278" lon="-3.85845">
        <ele>85.7</ele>
        <time>2020-06-10T11:35:23Z</time>
      </trkpt>
      <trkpt lat="48.58275" lon="-3.85841">
        <ele>85.7</ele>
        <time>2020-06-10T11:35:24Z</time>
      </trkpt>
      <trkpt lat="48.58273" lon="-3.85837">
        <ele>85.7</ele>
        <time>2020-06-10T11:35:25Z</time>
      </trkpt>
      <trkpt lat="48.5827" lon="-3.85832">
        <ele>85.7</ele>
        <time>2020-06-10T11:35:26Z</time>
      </trkpt>
      <trkpt lat="48.58268" lon="-3.85827">
        <ele>85.7</ele>
        <time>2020-06-10T11:35:27Z</time>
      </trkpt>
      <trkpt lat="48.58265" lon="-3.85823">
        <ele>85.7</ele>
        <time>2020-06-10T11:35:28Z</time>
      </trkpt>
      <trkpt lat="48.58261" lon="-3.85819">
        <ele>85.7</ele>
        <time>2020-06-10T11:35:29Z</time>
      </trkpt>
      <trkpt lat="48.58258" lon="-3.85815">
        <ele>85.7</ele>
        <time>2020-06-10T11:35:30Z</time>
      </trkpt>
      <trkpt lat="48.58255" lon="-3.85812">
        <ele>85.7</ele>
        <time>2020-06-10T11:35:31Z</time>
      </trkpt>
      <trkpt lat="48.58251" lon="-3.85809">
        <ele>85.7</ele>
        <time>2020-06-10T11:35:32Z</time>
      </trkpt>
      <trkpt lat="48.58248" lon="-3.85806">
        <ele>85.7</ele>
        <time>2020-06-10T11:35:33Z</time>
      </trkpt>
      <trkpt lat="48.58244" lon="-3.85803">
        <ele>85.7</ele>
        <time>2020-06-10T11:35:34Z</time>
      </trkpt>
      <trkpt lat="48.5824" lon="-3.858">
        <ele>85.7</ele>
        <time>2020-06-10T11:35:35Z</time>
      </trkpt>
      <trkpt lat="48.58236" lon="-3.85797">
        <ele>85.7</ele>
        <time>2020-06-10T11:35:36Z</time>
      </trkpt>
      <trkpt lat="48.58232" lon="-3.85793">
        <ele>85.7</ele>
        <time>2020-06-10T11:35:37Z</time>
      </trkpt>
      <trkpt lat="48.58229" lon="-3.85791">
        <ele>85.7</ele>
        <time>2020-06-10T11:35:38Z</time>
      </trkpt>
      <trkpt lat="48.58225" lon="-3.85787">
        <ele>85.7</ele>
        <time>2020-06-10T11:35:39Z</time>
      </trkpt>
      <trkpt lat="48.58221" lon="-3.85784">
        <ele>85.7</ele>
        <time>2020-06-10T11:35:40Z</time>
      </trkpt>
      <trkpt lat="48.58218" lon="-3.85781">
        <ele>85.7</ele>
        <time>2020-06-10T11:35:41Z</time>
      </trkpt>
      <trkpt lat="48.58214" lon="-3.85777">
        <ele>85.7</ele>
        <time>2020-06-10T11:35:42Z</time>
      </trkpt>
      <trkpt lat="48.58209" lon="-3.85774">
        <ele>85.8</ele>
        <time>2020-06-10T11:35:43Z</time>
      </trkpt>
      <trkpt lat="48.58205" lon="-3.85771">
        <ele>85.8</ele>
        <time>2020-06-10T11:35:44Z</time>
      </trkpt>
      <trkpt lat="48.58201" lon="-3.85768">
        <ele>85.9</ele>
        <time>2020-06-10T11:35:45Z</time>
      </trkpt>
      <trkpt lat="48.58196" lon="-3.85765">
        <ele>85.9</ele>
        <time>2020-06-10T11:35:46Z</time>
      </trkpt>
      <trkpt lat="48.58193" lon="-3.85761">
        <ele>86</ele>
        <time>2020-06-10T11:35:47Z</time>
      </trkpt>
      <trkpt lat="48.58189" lon="-3.8576">
        <ele>86.1</ele>
        <time>2020-06-10T11:35:48Z</time>
      </trkpt>
      <trkpt lat="48.58185" lon="-3.85757">
        <ele>86.1</ele>
        <time>2020-06-10T11:35:49Z</time>
      </trkpt>
      <trkpt lat="48.58181" lon="-3.85755">
        <ele>86.2</ele>
        <time>2020-06-10T11:35:50Z</time>
      </trkpt>
      <trkpt lat="48.58176" lon="-3.85751">
        <ele>86.3</ele>
        <time>2020-06-10T11:35:51Z</time>
      </trkpt>
      <trkpt lat="48.58172" lon="-3.85749">
        <ele>86.4</ele>
        <time>2020-06-10T11:35:52Z</time>
      </trkpt>
      <trkpt lat="48.58168" lon="-3.85745">
        <ele>86.4</ele>
        <time>2020-06-10T11:35:53Z</time>
      </trkpt>
      <trkpt lat="48.58164" lon="-3.85743">
        <ele>86.5</ele>
        <time>2020-06-10T11:35:54Z</time>
      </trkpt>
      <trkpt lat="48.58161" lon="-3.85741">
        <ele>86.6</ele>
        <time>2020-06-10T11:35:55Z</time>
      </trkpt>
      <trkpt lat="48.58158" lon="-3.85738">
        <ele>86.7</ele>
        <time>2020-06-10T11:35:56Z</time>
      </trkpt>
      <trkpt lat="48.58155" lon="-3.85736">
        <ele>86.7</ele>
        <time>2020-06-10T11:35:57Z</time>
      </trkpt>
      <trkpt lat="48.58152" lon="-3.85734">
        <ele>86.8</ele>
        <time>2020-06-10T11:35:58Z</time>
      </trkpt>
      <trkpt lat="48.58149" lon="-3.85731">
        <ele>86.9</ele>
        <time>2020-06-10T11:35:59Z</time>
      </trkpt>
      <trkpt lat="48.58146" lon="-3.85728">
        <ele>87</ele>
        <time>2020-06-10T11:36:00Z</time>
      </trkpt>
      <trkpt lat="48.58145" lon="-3.85725">
        <ele>87</ele>
        <time>2020-06-10T11:36:01Z</time>
      </trkpt>
      <trkpt lat="48.58144" lon="-3.85719">
        <ele>87.1</ele>
        <time>2020-06-10T11:36:02Z</time>
      </trkpt>
      <trkpt lat="48.58145" lon="-3.85712">
        <ele>87.3</ele>
        <time>2020-06-10T11:36:03Z</time>
      </trkpt>
      <trkpt lat="48.58147" lon="-3.85706">
        <ele>87.4</ele>
        <time>2020-06-10T11:36:04Z</time>
      </trkpt>
      <trkpt lat="48.58149" lon="-3.857">
        <ele>87.6</ele>
        <time>2020-06-10T11:36:05Z</time>
      </trkpt>
      <trkpt lat="48.58151" lon="-3.85694">
        <ele>87.8</ele>
        <time>2020-06-10T11:36:06Z</time>
      </trkpt>
      <trkpt lat="48.58152" lon="-3.85691">
        <ele>87.8</ele>
        <time>2020-06-10T11:36:07Z</time>
      </trkpt>
      <trkpt lat="48.58153" lon="-3.85686">
        <ele>88</ele>
        <time>2020-06-10T11:36:08Z</time>
      </trkpt>
      <trkpt lat="48.58154" lon="-3.85679">
        <ele>88.2</ele>
        <time>2020-06-10T11:36:09Z</time>
      </trkpt>
      <trkpt lat="48.58155" lon="-3.85674">
        <ele>88.4</ele>
        <time>2020-06-10T11:36:10Z</time>
      </trkpt>
      <trkpt lat="48.58155" lon="-3.85668">
        <ele>88.6</ele>
        <time>2020-06-10T11:36:11Z</time>
      </trkpt>
      <trkpt lat="48.58156" lon="-3.85664">
        <ele>88.7</ele>
        <time>2020-06-10T11:36:12Z</time>
      </trkpt>
      <trkpt lat="48.58157" lon="-3.85658">
        <ele>88.9</ele>
        <time>2020-06-10T11:36:13Z</time>
      </trkpt>
      <trkpt lat="48.58158" lon="-3.85653">
        <ele>89</ele>
        <time>2020-06-10T11:36:14Z</time>
      </trkpt>
      <trkpt lat="48.58159" lon="-3.85649">
        <ele>89.2</ele>
        <time>2020-06-10T11:36:15Z</time>
      </trkpt>
      <trkpt lat="48.5816" lon="-3.85644">
        <ele>89.3</ele>
        <time>2020-06-10T11:36:16Z</time>
      </trkpt>
      <trkpt lat="48.5816" lon="-3.8564">
        <ele>89.4</ele>
        <time>2020-06-10T11:36:17Z</time>
      </trkpt>
      <trkpt lat="48.5816" lon="-3.85635">
        <ele>89.5</ele>
        <time>2020-06-10T11:36:18Z</time>
      </trkpt>
      <trkpt lat="48.58161" lon="-3.85631">
        <ele>89.6</ele>
        <time>2020-06-10T11:36:19Z</time>
      </trkpt>
      <trkpt lat="48.58161" lon="-3.85626">
        <ele>89.7</ele>
        <time>2020-06-10T11:36:20Z</time>
      </trkpt>
      <trkpt lat="48.58162" lon="-3.85622">
        <ele>89.9</ele>
        <time>2020-06-10T11:36:21Z</time>
      </trkpt>
      <trkpt lat="48.58164" lon="-3.85616">
        <ele>90</ele>
        <time>2020-06-10T11:36:22Z</time>
      </trkpt>
      <trkpt lat="48.58165" lon="-3.85611">
        <ele>90.1</ele>
        <time>2020-06-10T11:36:23Z</time>
      </trkpt>
      <trkpt lat="48.58165" lon="-3.85607">
        <ele>90.2</ele>
        <time>2020-06-10T11:36:24Z</time>
      </trkpt>
      <trkpt lat="48.58166" lon="-3.85603">
        <ele>90.2</ele>
        <time>2020-06-10T11:36:25Z</time>
      </trkpt>
      <trkpt lat="48.58165" lon="-3.856">
        <ele>90.4</ele>
        <time>2020-06-10T11:36:26Z</time>
      </trkpt>
      <trkpt lat="48.58164" lon="-3.85597">
        <ele>90.4</ele>
        <time>2020-06-10T11:36:27Z</time>
      </trkpt>
      <trkpt lat="48.58161" lon="-3.85595">
        <ele>90.4</ele>
        <time>2020-06-10T11:36:28Z</time>
      </trkpt>
      <trkpt lat="48.58159" lon="-3.85594">
        <ele>90.4</ele>
        <time>2020-06-10T11:36:29Z</time>
      </trkpt>
      <trkpt lat="48.58156" lon="-3.85594">
        <ele>90.4</ele>
        <time>2020-06-10T11:36:30Z</time>
      </trkpt>
      <trkpt lat="48.58153" lon="-3.85592">
        <ele>90.4</ele>
        <time>2020-06-10T11:36:31Z</time>
      </trkpt>
      <trkpt lat="48.58149" lon="-3.85591">
        <ele>90.4</ele>
        <time>2020-06-10T11:36:32Z</time>
      </trkpt>
      <trkpt lat="48.58145" lon="-3.85589">
        <ele>90.4</ele>
        <time>2020-06-10T11:36:33Z</time>
      </trkpt>
      <trkpt lat="48.58142" lon="-3.85588">
        <ele>90.4</ele>
        <time>2020-06-10T11:36:34Z</time>
      </trkpt>
      <trkpt lat="48.58138" lon="-3.85587">
        <ele>90.4</ele>
        <time>2020-06-10T11:36:35Z</time>
      </trkpt>
      <trkpt lat="48.58134" lon="-3.85585">
        <ele>90.4</ele>
        <time>2020-06-10T11:36:36Z</time>
      </trkpt>
      <trkpt lat="48.5813" lon="-3.85584">
        <ele>90.3</ele>
        <time>2020-06-10T11:36:37Z</time>
      </trkpt>
      <trkpt lat="48.58127" lon="-3.85583">
        <ele>90.3</ele>
        <time>2020-06-10T11:36:38Z</time>
      </trkpt>
      <trkpt lat="48.58122" lon="-3.85581">
        <ele>90.2</ele>
        <time>2020-06-10T11:36:39Z</time>
      </trkpt>
      <trkpt lat="48.58117" lon="-3.85582">
        <ele>90.2</ele>
        <time>2020-06-10T11:36:40Z</time>
      </trkpt>
      <trkpt lat="48.58113" lon="-3.8558">
        <ele>90.1</ele>
        <time>2020-06-10T11:36:41Z</time>
      </trkpt>
      <trkpt lat="48.5811" lon="-3.85578">
        <ele>90.1</ele>
        <time>2020-06-10T11:36:42Z</time>
      </trkpt>
      <trkpt lat="48.58106" lon="-3.85575">
        <ele>90</ele>
        <time>2020-06-10T11:36:43Z</time>
      </trkpt>
      <trkpt lat="48.58103" lon="-3.85573">
        <ele>90</ele>
        <time>2020-06-10T11:36:44Z</time>
      </trkpt>
      <trkpt lat="48.58099" lon="-3.85572">
        <ele>90</ele>
        <time>2020-06-10T11:36:45Z</time>
      </trkpt>
      <trkpt lat="48.58095" lon="-3.85569">
        <ele>89.9</ele>
        <time>2020-06-10T11:36:46Z</time>
      </trkpt>
      <trkpt lat="48.5809" lon="-3.85567">
        <ele>89.8</ele>
        <time>2020-06-10T11:36:47Z</time>
      </trkpt>
      <trkpt lat="48.58086" lon="-3.85565">
        <ele>89.7</ele>
        <time>2020-06-10T11:36:48Z</time>
      </trkpt>
      <trkpt lat="48.58082" lon="-3.85562">
        <ele>89.7</ele>
        <time>2020-06-10T11:36:49Z</time>
      </trkpt>
      <trkpt lat="48.58078" lon="-3.85559">
        <ele>89.6</ele>
        <time>2020-06-10T11:36:50Z</time>
      </trkpt>
      <trkpt lat="48.58073" lon="-3.85556">
        <ele>89.5</ele>
        <time>2020-06-10T11:36:51Z</time>
      </trkpt>
      <trkpt lat="48.58069" lon="-3.85552">
        <ele>89.4</ele>
        <time>2020-06-10T11:36:52Z</time>
      </trkpt>
      <trkpt lat="48.58065" lon="-3.85548">
        <ele>89.3</ele>
        <time>2020-06-10T11:36:53Z</time>
      </trkpt>
      <trkpt lat="48.5806" lon="-3.85544">
        <ele>89.2</ele>
        <time>2020-06-10T11:36:54Z</time>
      </trkpt>
      <trkpt lat="48.58055" lon="-3.85542">
        <ele>89.1</ele>
        <time>2020-06-10T11:36:55Z</time>
      </trkpt>
      <trkpt lat="48.5805" lon="-3.85538">
        <ele>89.1</ele>
        <time>2020-06-10T11:36:56Z</time>
      </trkpt>
      <trkpt lat="48.58046" lon="-3.85536">
        <ele>89</ele>
        <time>2020-06-10T11:36:57Z</time>
      </trkpt>
      <trkpt lat="48.58042" lon="-3.85532">
        <ele>88.9</ele>
        <time>2020-06-10T11:36:58Z</time>
      </trkpt>
      <trkpt lat="48.58037" lon="-3.85529">
        <ele>88.9</ele>
        <time>2020-06-10T11:36:59Z</time>
      </trkpt>
      <trkpt lat="48.58033" lon="-3.85525">
        <ele>88.8</ele>
        <time>2020-06-10T11:37:00Z</time>
      </trkpt>
      <trkpt lat="48.58029" lon="-3.85522">
        <ele>88.8</ele>
        <time>2020-06-10T11:37:01Z</time>
      </trkpt>
      <trkpt lat="48.58024" lon="-3.85518">
        <ele>88.8</ele>
        <time>2020-06-10T11:37:02Z</time>
      </trkpt>
      <trkpt lat="48.58019" lon="-3.85514">
        <ele>88.7</ele>
        <time>2020-06-10T11:37:03Z</time>
      </trkpt>
      <trkpt lat="48.58014" lon="-3.8551">
        <ele>88.7</ele>
        <time>2020-06-10T11:37:04Z</time>
      </trkpt>
      <trkpt lat="48.58008" lon="-3.85506">
        <ele>88.7</ele>
        <time>2020-06-10T11:37:05Z</time>
      </trkpt>
      <trkpt lat="48.58003" lon="-3.85503">
        <ele>88.7</ele>
        <time>2020-06-10T11:37:06Z</time>
      </trkpt>
      <trkpt lat="48.57998" lon="-3.855">
        <ele>88.7</ele>
        <time>2020-06-10T11:37:07Z</time>
      </trkpt>
      <trkpt lat="48.57992" lon="-3.85497">
        <ele>88.7</ele>
        <time>2020-06-10T11:37:08Z</time>
      </trkpt>
      <trkpt lat="48.57986" lon="-3.85495">
        <ele>88.7</ele>
        <time>2020-06-10T11:37:09Z</time>
      </trkpt>
      <trkpt lat="48.57981" lon="-3.85492">
        <ele>88.7</ele>
        <time>2020-06-10T11:37:10Z</time>
      </trkpt>
      <trkpt lat="48.57976" lon="-3.8549">
        <ele>88.7</ele>
        <time>2020-06-10T11:37:11Z</time>
      </trkpt>
      <trkpt lat="48.5797" lon="-3.85488">
        <ele>88.7</ele>
        <time>2020-06-10T11:37:12Z</time>
      </trkpt>
      <trkpt lat="48.57965" lon="-3.85486">
        <ele>88.8</ele>
        <time>2020-06-10T11:37:13Z</time>
      </trkpt>
      <trkpt lat="48.5796" lon="-3.85484">
        <ele>88.8</ele>
        <time>2020-06-10T11:37:14Z</time>
      </trkpt>
      <trkpt lat="48.57955" lon="-3.85482">
        <ele>88.8</ele>
        <time>2020-06-10T11:37:15Z</time>
      </trkpt>
      <trkpt lat="48.5795" lon="-3.8548">
        <ele>88.8</ele>
        <time>2020-06-10T11:37:16Z</time>
      </trkpt>
      <trkpt lat="48.57945" lon="-3.85477">
        <ele>88.8</ele>
        <time>2020-06-10T11:37:17Z</time>
      </trkpt>
      <trkpt lat="48.57941" lon="-3.85476">
        <ele>88.8</ele>
        <time>2020-06-10T11:37:18Z</time>
      </trkpt>
      <trkpt lat="48.57936" lon="-3.85474">
        <ele>88.8</ele>
        <time>2020-06-10T11:37:19Z</time>
      </trkpt>
      <trkpt lat="48.57931" lon="-3.85471">
        <ele>88.8</ele>
        <time>2020-06-10T11:37:20Z</time>
      </trkpt>
      <trkpt lat="48.57926" lon="-3.85469">
        <ele>88.8</ele>
        <time>2020-06-10T11:37:21Z</time>
      </trkpt>
      <trkpt lat="48.57921" lon="-3.85466">
        <ele>88.9</ele>
        <time>2020-06-10T11:37:22Z</time>
      </trkpt>
      <trkpt lat="48.57916" lon="-3.85464">
        <ele>88.9</ele>
        <time>2020-06-10T11:37:23Z</time>
      </trkpt>
      <trkpt lat="48.57912" lon="-3.85462">
        <ele>88.9</ele>
        <time>2020-06-10T11:37:24Z</time>
      </trkpt>
      <trkpt lat="48.57908" lon="-3.85458">
        <ele>88.9</ele>
        <time>2020-06-10T11:37:25Z</time>
      </trkpt>
      <trkpt lat="48.57903" lon="-3.85454">
        <ele>89</ele>
        <time>2020-06-10T11:37:26Z</time>
      </trkpt>
      <trkpt lat="48.57899" lon="-3.8545">
        <ele>89</ele>
        <time>2020-06-10T11:37:27Z</time>
      </trkpt>
      <trkpt lat="48.57895" lon="-3.85447">
        <ele>89.1</ele>
        <time>2020-06-10T11:37:28Z</time>
      </trkpt>
      <trkpt lat="48.57891" lon="-3.85443">
        <ele>89.1</ele>
        <time>2020-06-10T11:37:29Z</time>
      </trkpt>
      <trkpt lat="48.57887" lon="-3.85439">
        <ele>89.1</ele>
        <time>2020-06-10T11:37:30Z</time>
      </trkpt>
      <trkpt lat="48.57883" lon="-3.85435">
        <ele>89.2</ele>
        <time>2020-06-10T11:37:31Z</time>
      </trkpt>
      <trkpt lat="48.5788" lon="-3.85433">
        <ele>89.2</ele>
        <time>2020-06-10T11:37:32Z</time>
      </trkpt>
      <trkpt lat="48.57875" lon="-3.85431">
        <ele>89.2</ele>
        <time>2020-06-10T11:37:33Z</time>
      </trkpt>
      <trkpt lat="48.57872" lon="-3.8543">
        <ele>89.2</ele>
        <time>2020-06-10T11:37:34Z</time>
      </trkpt>
      <trkpt lat="48.57867" lon="-3.8543">
        <ele>89.3</ele>
        <time>2020-06-10T11:37:35Z</time>
      </trkpt>
      <trkpt lat="48.57864" lon="-3.85432">
        <ele>89.3</ele>
        <time>2020-06-10T11:37:36Z</time>
      </trkpt>
      <trkpt lat="48.5786" lon="-3.85433">
        <ele>89.3</ele>
        <time>2020-06-10T11:37:37Z</time>
      </trkpt>
      <trkpt lat="48.57857" lon="-3.85433">
        <ele>89.3</ele>
        <time>2020-06-10T11:37:38Z</time>
      </trkpt>
      <trkpt lat="48.57854" lon="-3.85431">
        <ele>89.4</ele>
        <time>2020-06-10T11:37:39Z</time>
      </trkpt>
      <trkpt lat="48.57851" lon="-3.85428">
        <ele>89.9</ele>
        <time>2020-06-10T11:37:40Z</time>
      </trkpt>
      <trkpt lat="48.5785" lon="-3.85425">
        <ele>90.3</ele>
        <time>2020-06-10T11:37:41Z</time>
      </trkpt>
      <trkpt lat="48.57849" lon="-3.85424">
        <ele>90.4</ele>
        <time>2020-06-10T11:37:42Z</time>
      </trkpt>
      <trkpt lat="48.57847" lon="-3.85422">
        <ele>90.8</ele>
        <time>2020-06-10T11:37:43Z</time>
      </trkpt>
      <trkpt lat="48.57845" lon="-3.85422">
        <ele>91</ele>
        <time>2020-06-10T11:37:44Z</time>
      </trkpt>
      <trkpt lat="48.57843" lon="-3.85419">
        <ele>91.5</ele>
        <time>2020-06-10T11:37:45Z</time>
      </trkpt>
      <trkpt lat="48.57842" lon="-3.85417">
        <ele>91.7</ele>
        <time>2020-06-10T11:37:46Z</time>
      </trkpt>
      <trkpt lat="48.57841" lon="-3.85413">
        <ele>92.2</ele>
        <time>2020-06-10T11:37:47Z</time>
      </trkpt>
      <trkpt lat="48.57839" lon="-3.85409">
        <ele>92.8</ele>
        <time>2020-06-10T11:37:48Z</time>
      </trkpt>
      <trkpt lat="48.57836" lon="-3.85405">
        <ele>93.4</ele>
        <time>2020-06-10T11:37:49Z</time>
      </trkpt>
      <trkpt lat="48.57835" lon="-3.85403">
        <ele>93.6</ele>
        <time>2020-06-10T11:37:50Z</time>
      </trkpt>
      <trkpt lat="48.57833" lon="-3.854">
        <ele>94.1</ele>
        <time>2020-06-10T11:37:51Z</time>
      </trkpt>
      <trkpt lat="48.57831" lon="-3.85397">
        <ele>94.6</ele>
        <time>2020-06-10T11:37:52Z</time>
      </trkpt>
      <trkpt lat="48.57831" lon="-3.85396">
        <ele>94.6</ele>
        <time>2020-06-10T11:37:53Z</time>
      </trkpt>
      <trkpt lat="48.57828" lon="-3.85393">
        <ele>94.7</ele>
        <time>2020-06-10T11:37:54Z</time>
      </trkpt>
      <trkpt lat="48.57827" lon="-3.85392">
        <ele>94.7</ele>
        <time>2020-06-10T11:37:55Z</time>
      </trkpt>
      <trkpt lat="48.57825" lon="-3.85391">
        <ele>94.8</ele>
        <time>2020-06-10T11:37:56Z</time>
      </trkpt>
      <trkpt lat="48.57825" lon="-3.85387">
        <ele>94.8</ele>
        <time>2020-06-10T11:37:57Z</time>
      </trkpt>
      <trkpt lat="48.57824" lon="-3.85384">
        <ele>94.9</ele>
        <time>2020-06-10T11:37:58Z</time>
      </trkpt>
      <trkpt lat="48.57822" lon="-3.85379">
        <ele>95</ele>
        <time>2020-06-10T11:37:59Z</time>
      </trkpt>
      <trkpt lat="48.57822" lon="-3.85378">
        <ele>95</ele>
        <time>2020-06-10T11:38:00Z</time>
      </trkpt>
      <trkpt lat="48.5782" lon="-3.85374">
        <ele>95</ele>
        <time>2020-06-10T11:38:01Z</time>
      </trkpt>
      <trkpt lat="48.5782" lon="-3.85372">
        <ele>95.1</ele>
        <time>2020-06-10T11:38:02Z</time>
      </trkpt>
      <trkpt lat="48.5782" lon="-3.85367">
        <ele>95.1</ele>
        <time>2020-06-10T11:38:03Z</time>
      </trkpt>
      <trkpt lat="48.5782" lon="-3.85365">
        <ele>95.1</ele>
        <time>2020-06-10T11:38:04Z</time>
      </trkpt>
      <trkpt lat="48.5782" lon="-3.85363">
        <ele>95.1</ele>
        <time>2020-06-10T11:38:05Z</time>
      </trkpt>
      <trkpt lat="48.57821" lon="-3.85361">
        <ele>95.1</ele>
        <time>2020-06-10T11:38:06Z</time>
      </trkpt>
      <trkpt lat="48.5782" lon="-3.8536">
        <ele>95.1</ele>
        <time>2020-06-10T11:38:07Z</time>
      </trkpt>
      <trkpt lat="48.57819" lon="-3.85358">
        <ele>95.1</ele>
        <time>2020-06-10T11:38:08Z</time>
      </trkpt>
      <trkpt lat="48.57818" lon="-3.85356">
        <ele>95.1</ele>
        <time>2020-06-10T11:38:09Z</time>
      </trkpt>
      <trkpt lat="48.57817" lon="-3.85354">
        <ele>95.1</ele>
        <time>2020-06-10T11:38:10Z</time>
      </trkpt>
      <trkpt lat="48.57817" lon="-3.85351">
        <ele>95</ele>
        <time>2020-06-10T11:38:11Z</time>
      </trkpt>
      <trkpt lat="48.57816" lon="-3.85347">
        <ele>95</ele>
        <time>2020-06-10T11:38:12Z</time>
      </trkpt>
      <trkpt lat="48.57815" lon="-3.85346">
        <ele>95</ele>
        <time>2020-06-10T11:38:13Z</time>
      </trkpt>
      <trkpt lat="48.57815" lon="-3.85343">
        <ele>94.9</ele>
        <time>2020-06-10T11:38:14Z</time>
      </trkpt>
      <trkpt lat="48.57815" lon="-3.85342">
        <ele>94.6</ele>
        <time>2020-06-10T11:38:15Z</time>
      </trkpt>
      <trkpt lat="48.57818" lon="-3.85341">
        <ele>94.4</ele>
        <time>2020-06-10T11:38:16Z</time>
      </trkpt>
      <trkpt lat="48.57819" lon="-3.85341">
        <ele>94.3</ele>
        <time>2020-06-10T11:38:17Z</time>
      </trkpt>
      <trkpt lat="48.57821" lon="-3.85339">
        <ele>94.1</ele>
        <time>2020-06-10T11:38:18Z</time>
      </trkpt>
      <trkpt lat="48.57822" lon="-3.85337">
        <ele>93.9</ele>
        <time>2020-06-10T11:38:19Z</time>
      </trkpt>
      <trkpt lat="48.57823" lon="-3.85338">
        <ele>93.7</ele>
        <time>2020-06-10T11:38:20Z</time>
      </trkpt>
      <trkpt lat="48.57824" lon="-3.85339">
        <ele>93.6</ele>
        <time>2020-06-10T11:38:21Z</time>
      </trkpt>
      <trkpt lat="48.57825" lon="-3.8534">
        <ele>93.5</ele>
        <time>2020-06-10T11:38:22Z</time>
      </trkpt>
      <trkpt lat="48.57824" lon="-3.85342">
        <ele>93.4</ele>
        <time>2020-06-10T11:38:23Z</time>
      </trkpt>
      <trkpt lat="48.57823" lon="-3.85344">
        <ele>93.2</ele>
        <time>2020-06-10T11:38:24Z</time>
      </trkpt>
      <trkpt lat="48.57822" lon="-3.85345">
        <ele>93.1</ele>
        <time>2020-06-10T11:38:25Z</time>
      </trkpt>
      <trkpt lat="48.57821" lon="-3.85347">
        <ele>92.8</ele>
        <time>2020-06-10T11:38:26Z</time>
      </trkpt>
      <trkpt lat="48.57819" lon="-3.85348">
        <ele>92.6</ele>
        <time>2020-06-10T11:38:27Z</time>
      </trkpt>
      <trkpt lat="48.57818" lon="-3.8535">
        <ele>92.4</ele>
        <time>2020-06-10T11:38:28Z</time>
      </trkpt>
      <trkpt lat="48.57817" lon="-3.85352">
        <ele>92.3</ele>
        <time>2020-06-10T11:38:29Z</time>
      </trkpt>
      <trkpt lat="48.57814" lon="-3.85351">
        <ele>92</ele>
        <time>2020-06-10T11:38:30Z</time>
      </trkpt>
      <trkpt lat="48.57811" lon="-3.8535">
        <ele>91.7</ele>
        <time>2020-06-10T11:38:31Z</time>
      </trkpt>
      <trkpt lat="48.5781" lon="-3.8535">
        <ele>91.6</ele>
        <time>2020-06-10T11:38:32Z</time>
      </trkpt>
      <trkpt lat="48.57807" lon="-3.85347">
        <ele>91.4</ele>
        <time>2020-06-10T11:38:33Z</time>
      </trkpt>
      <trkpt lat="48.57804" lon="-3.85344">
        <ele>91.2</ele>
        <time>2020-06-10T11:38:34Z</time>
      </trkpt>
      <trkpt lat="48.57802" lon="-3.85342">
        <ele>91.1</ele>
        <time>2020-06-10T11:38:35Z</time>
      </trkpt>
      <trkpt lat="48.57799" lon="-3.85339">
        <ele>91</ele>
        <time>2020-06-10T11:38:36Z</time>
      </trkpt>
      <trkpt lat="48.57798" lon="-3.85337">
        <ele>91</ele>
        <time>2020-06-10T11:38:37Z</time>
      </trkpt>
      <trkpt lat="48.578" lon="-3.85334">
        <ele>91</ele>
        <time>2020-06-10T11:38:38Z</time>
      </trkpt>
      <trkpt lat="48.57801" lon="-3.85333">
        <ele>91</ele>
        <time>2020-06-10T11:38:39Z</time>
      </trkpt>
      <trkpt lat="48.57802" lon="-3.85333">
        <ele>91</ele>
        <time>2020-06-10T11:38:40Z</time>
      </trkpt>
      <trkpt lat="48.57804" lon="-3.85332">
        <ele>91</ele>
        <time>2020-06-10T11:38:41Z</time>
      </trkpt>
      <trkpt lat="48.57806" lon="-3.85331">
        <ele>91</ele>
        <time>2020-06-10T11:38:42Z</time>
      </trkpt>
      <trkpt lat="48.57807" lon="-3.85332">
        <ele>90.9</ele>
        <time>2020-06-10T11:38:43Z</time>
      </trkpt>
      <trkpt lat="48.57809" lon="-3.85331">
        <ele>90.9</ele>
        <time>2020-06-10T11:38:44Z</time>
      </trkpt>
      <trkpt lat="48.57811" lon="-3.8533">
        <ele>90.9</ele>
        <time>2020-06-10T11:38:45Z</time>
      </trkpt>
      <trkpt lat="48.57814" lon="-3.85329">
        <ele>90.9</ele>
        <time>2020-06-10T11:38:46Z</time>
      </trkpt>
      <trkpt lat="48.57815" lon="-3.85329">
        <ele>90.9</ele>
        <time>2020-06-10T11:38:47Z</time>
      </trkpt>
      <trkpt lat="48.57819" lon="-3.85328">
        <ele>90.8</ele>
        <time>2020-06-10T11:38:48Z</time>
      </trkpt>
      <trkpt lat="48.5782" lon="-3.85328">
        <ele>90.8</ele>
        <time>2020-06-10T11:38:49Z</time>
      </trkpt>
      <trkpt lat="48.57824" lon="-3.85325">
        <ele>90.8</ele>
        <time>2020-06-10T11:38:50Z</time>
      </trkpt>
      <trkpt lat="48.57825" lon="-3.85324">
        <ele>90.8</ele>
        <time>2020-06-10T11:38:51Z</time>
      </trkpt>
      <trkpt lat="48.57829" lon="-3.85322">
        <ele>90.7</ele>
        <time>2020-06-10T11:38:52Z</time>
      </trkpt>
      <trkpt lat="48.57832" lon="-3.8532">
        <ele>90.7</ele>
        <time>2020-06-10T11:38:53Z</time>
      </trkpt>
      <trkpt lat="48.57835" lon="-3.85318">
        <ele>90.7</ele>
        <time>2020-06-10T11:38:54Z</time>
      </trkpt>
      <trkpt lat="48.5784" lon="-3.85316">
        <ele>90.7</ele>
        <time>2020-06-10T11:38:55Z</time>
      </trkpt>
      <trkpt lat="48.57843" lon="-3.85314">
        <ele>90.7</ele>
        <time>2020-06-10T11:38:56Z</time>
      </trkpt>
      <trkpt lat="48.57845" lon="-3.85314">
        <ele>90.7</ele>
        <time>2020-06-10T11:38:57Z</time>
      </trkpt>
      <trkpt lat="48.57848" lon="-3.85312">
        <ele>90.7</ele>
        <time>2020-06-10T11:38:58Z</time>
      </trkpt>
      <trkpt lat="48.57851" lon="-3.85311">
        <ele>90.7</ele>
        <time>2020-06-10T11:38:59Z</time>
      </trkpt>
      <trkpt lat="48.57855" lon="-3.85309">
        <ele>90.7</ele>
        <time>2020-06-10T11:39:00Z</time>
      </trkpt>
      <trkpt lat="48.57858" lon="-3.85307">
        <ele>90.7</ele>
        <time>2020-06-10T11:39:01Z</time>
      </trkpt>
      <trkpt lat="48.57861" lon="-3.85306">
        <ele>90.7</ele>
        <time>2020-06-10T11:39:02Z</time>
      </trkpt>
      <trkpt lat="48.57864" lon="-3.85304">
        <ele>90.7</ele>
        <time>2020-06-10T11:39:03Z</time>
      </trkpt>
      <trkpt lat="48.57865" lon="-3.85304">
        <ele>90.7</ele>
        <time>2020-06-10T11:39:04Z</time>
      </trkpt>
      <trkpt lat="48.57868" lon="-3.85302">
        <ele>90.7</ele>
        <time>2020-06-10T11:39:05Z</time>
      </trkpt>
      <trkpt lat="48.5787" lon="-3.85301">
        <ele>90.7</ele>
        <time>2020-06-10T11:39:06Z</time>
      </trkpt>
      <trkpt lat="48.57869" lon="-3.85298">
        <ele>90.7</ele>
        <time>2020-06-10T11:39:07Z</time>
      </trkpt>
      <trkpt lat="48.5787" lon="-3.85298">
        <ele>90.7</ele>
        <time>2020-06-10T11:39:08Z</time>
      </trkpt>
      <trkpt lat="48.57871" lon="-3.85299">
        <ele>90.7</ele>
        <time>2020-06-10T11:39:09Z</time>
      </trkpt>
      <trkpt lat="48.57871" lon="-3.85301">
        <ele>90.7</ele>
        <time>2020-06-10T11:39:10Z</time>
      </trkpt>
      <trkpt lat="48.57873" lon="-3.85302">
        <ele>90.7</ele>
        <time>2020-06-10T11:39:11Z</time>
      </trkpt>
      <trkpt lat="48.57874" lon="-3.85301">
        <ele>90.7</ele>
        <time>2020-06-10T11:39:12Z</time>
      </trkpt>
      <trkpt lat="48.57874" lon="-3.85299">
        <ele>90.7</ele>
        <time>2020-06-10T11:39:13Z</time>
      </trkpt>
      <trkpt lat="48.57875" lon="-3.85297">
        <ele>90.6</ele>
        <time>2020-06-10T11:39:14Z</time>
      </trkpt>
      <trkpt lat="48.57877" lon="-3.85297">
        <ele>90.6</ele>
        <time>2020-06-10T11:39:15Z</time>
      </trkpt>
      <trkpt lat="48.5788" lon="-3.85294">
        <ele>90.6</ele>
        <time>2020-06-10T11:39:16Z</time>
      </trkpt>
      <trkpt lat="48.57881" lon="-3.85293">
        <ele>90.6</ele>
        <time>2020-06-10T11:39:17Z</time>
      </trkpt>
      <trkpt lat="48.57884" lon="-3.8529">
        <ele>90.6</ele>
        <time>2020-06-10T11:39:18Z</time>
      </trkpt>
      <trkpt lat="48.57887" lon="-3.85288">
        <ele>90.5</ele>
        <time>2020-06-10T11:39:19Z</time>
      </trkpt>
      <trkpt lat="48.5789" lon="-3.85286">
        <ele>90.5</ele>
        <time>2020-06-10T11:39:20Z</time>
      </trkpt>
      <trkpt lat="48.57894" lon="-3.85284">
        <ele>90.5</ele>
        <time>2020-06-10T11:39:21Z</time>
      </trkpt>
      <trkpt lat="48.57898" lon="-3.85282">
        <ele>90.4</ele>
        <time>2020-06-10T11:39:22Z</time>
      </trkpt>
      <trkpt lat="48.57902" lon="-3.8528">
        <ele>90.4</ele>
        <time>2020-06-10T11:39:23Z</time>
      </trkpt>
      <trkpt lat="48.57905" lon="-3.85278">
        <ele>90.4</ele>
        <time>2020-06-10T11:39:24Z</time>
      </trkpt>
      <trkpt lat="48.57909" lon="-3.85277">
        <ele>90.3</ele>
        <time>2020-06-10T11:39:25Z</time>
      </trkpt>
      <trkpt lat="48.57913" lon="-3.85275">
        <ele>90.3</ele>
        <time>2020-06-10T11:39:26Z</time>
      </trkpt>
      <trkpt lat="48.57916" lon="-3.85274">
        <ele>90.3</ele>
        <time>2020-06-10T11:39:27Z</time>
      </trkpt>
      <trkpt lat="48.57919" lon="-3.85271">
        <ele>90.3</ele>
        <time>2020-06-10T11:39:28Z</time>
      </trkpt>
      <trkpt lat="48.57923" lon="-3.85268">
        <ele>90.2</ele>
        <time>2020-06-10T11:39:29Z</time>
      </trkpt>
      <trkpt lat="48.57927" lon="-3.85266">
        <ele>90.2</ele>
        <time>2020-06-10T11:39:30Z</time>
      </trkpt>
      <trkpt lat="48.57931" lon="-3.85264">
        <ele>90.2</ele>
        <time>2020-06-10T11:39:31Z</time>
      </trkpt>
      <trkpt lat="48.57935" lon="-3.85262">
        <ele>90.2</ele>
        <time>2020-06-10T11:39:32Z</time>
      </trkpt>
      <trkpt lat="48.57938" lon="-3.8526">
        <ele>90.2</ele>
        <time>2020-06-10T11:39:33Z</time>
      </trkpt>
      <trkpt lat="48.57942" lon="-3.85257">
        <ele>90.1</ele>
        <time>2020-06-10T11:39:34Z</time>
      </trkpt>
      <trkpt lat="48.57945" lon="-3.85254">
        <ele>90.1</ele>
        <time>2020-06-10T11:39:35Z</time>
      </trkpt>
      <trkpt lat="48.57949" lon="-3.85251">
        <ele>90.1</ele>
        <time>2020-06-10T11:39:36Z</time>
      </trkpt>
      <trkpt lat="48.57953" lon="-3.85249">
        <ele>90.1</ele>
        <time>2020-06-10T11:39:37Z</time>
      </trkpt>
      <trkpt lat="48.57957" lon="-3.85247">
        <ele>90</ele>
        <time>2020-06-10T11:39:38Z</time>
      </trkpt>
      <trkpt lat="48.57962" lon="-3.85245">
        <ele>90</ele>
        <time>2020-06-10T11:39:39Z</time>
      </trkpt>
      <trkpt lat="48.57966" lon="-3.85243">
        <ele>90</ele>
        <time>2020-06-10T11:39:40Z</time>
      </trkpt>
      <trkpt lat="48.5797" lon="-3.85241">
        <ele>89.9</ele>
        <time>2020-06-10T11:39:41Z</time>
      </trkpt>
      <trkpt lat="48.57974" lon="-3.85238">
        <ele>89.9</ele>
        <time>2020-06-10T11:39:42Z</time>
      </trkpt>
      <trkpt lat="48.57978" lon="-3.85236">
        <ele>89.9</ele>
        <time>2020-06-10T11:39:43Z</time>
      </trkpt>
      <trkpt lat="48.57981" lon="-3.85232">
        <ele>89.8</ele>
        <time>2020-06-10T11:39:44Z</time>
      </trkpt>
      <trkpt lat="48.57985" lon="-3.85229">
        <ele>89.8</ele>
        <time>2020-06-10T11:39:45Z</time>
      </trkpt>
      <trkpt lat="48.57989" lon="-3.85227">
        <ele>89.7</ele>
        <time>2020-06-10T11:39:46Z</time>
      </trkpt>
      <trkpt lat="48.57991" lon="-3.85226">
        <ele>89.7</ele>
        <time>2020-06-10T11:39:47Z</time>
      </trkpt>
      <trkpt lat="48.57995" lon="-3.85223">
        <ele>89.6</ele>
        <time>2020-06-10T11:39:48Z</time>
      </trkpt>
      <trkpt lat="48.57999" lon="-3.85219">
        <ele>89.6</ele>
        <time>2020-06-10T11:39:49Z</time>
      </trkpt>
      <trkpt lat="48.58002" lon="-3.85216">
        <ele>89.6</ele>
        <time>2020-06-10T11:39:50Z</time>
      </trkpt>
      <trkpt lat="48.58006" lon="-3.85212">
        <ele>89.5</ele>
        <time>2020-06-10T11:39:51Z</time>
      </trkpt>
      <trkpt lat="48.5801" lon="-3.85209">
        <ele>89.4</ele>
        <time>2020-06-10T11:39:52Z</time>
      </trkpt>
      <trkpt lat="48.58014" lon="-3.85207">
        <ele>89.4</ele>
        <time>2020-06-10T11:39:53Z</time>
      </trkpt>
      <trkpt lat="48.58018" lon="-3.85205">
        <ele>89.3</ele>
        <time>2020-06-10T11:39:54Z</time>
      </trkpt>
      <trkpt lat="48.58023" lon="-3.85203">
        <ele>89.2</ele>
        <time>2020-06-10T11:39:55Z</time>
      </trkpt>
      <trkpt lat="48.58028" lon="-3.852">
        <ele>89.1</ele>
        <time>2020-06-10T11:39:56Z</time>
      </trkpt>
      <trkpt lat="48.58033" lon="-3.85198">
        <ele>89</ele>
        <time>2020-06-10T11:39:57Z</time>
      </trkpt>
      <trkpt lat="48.58037" lon="-3.85196">
        <ele>88.9</ele>
        <time>2020-06-10T11:39:58Z</time>
      </trkpt>
      <trkpt lat="48.58042" lon="-3.85193">
        <ele>88.8</ele>
        <time>2020-06-10T11:39:59Z</time>
      </trkpt>
      <trkpt lat="48.58047" lon="-3.85192">
        <ele>88.7</ele>
        <time>2020-06-10T11:40:00Z</time>
      </trkpt>
      <trkpt lat="48.5805" lon="-3.8519">
        <ele>88.7</ele>
        <time>2020-06-10T11:40:01Z</time>
      </trkpt>
      <trkpt lat="48.58053" lon="-3.85188">
        <ele>88.6</ele>
        <time>2020-06-10T11:40:02Z</time>
      </trkpt>
      <trkpt lat="48.58056" lon="-3.85185">
        <ele>88.6</ele>
        <time>2020-06-10T11:40:03Z</time>
      </trkpt>
      <trkpt lat="48.5806" lon="-3.85184">
        <ele>88.6</ele>
        <time>2020-06-10T11:40:04Z</time>
      </trkpt>
      <trkpt lat="48.58064" lon="-3.85183">
        <ele>88.5</ele>
        <time>2020-06-10T11:40:05Z</time>
      </trkpt>
      <trkpt lat="48.58067" lon="-3.85182">
        <ele>88.5</ele>
        <time>2020-06-10T11:40:06Z</time>
      </trkpt>
      <trkpt lat="48.5807" lon="-3.85181">
        <ele>88.4</ele>
        <time>2020-06-10T11:40:07Z</time>
      </trkpt>
      <trkpt lat="48.58073" lon="-3.85178">
        <ele>88.4</ele>
        <time>2020-06-10T11:40:08Z</time>
      </trkpt>
      <trkpt lat="48.58076" lon="-3.85175">
        <ele>88.3</ele>
        <time>2020-06-10T11:40:09Z</time>
      </trkpt>
      <trkpt lat="48.5808" lon="-3.85173">
        <ele>88.2</ele>
        <time>2020-06-10T11:40:10Z</time>
      </trkpt>
      <trkpt lat="48.58084" lon="-3.85171">
        <ele>88.2</ele>
        <time>2020-06-10T11:40:11Z</time>
      </trkpt>
      <trkpt lat="48.58088" lon="-3.85168">
        <ele>88.1</ele>
        <time>2020-06-10T11:40:12Z</time>
      </trkpt>
      <trkpt lat="48.58093" lon="-3.85165">
        <ele>88</ele>
        <time>2020-06-10T11:40:13Z</time>
      </trkpt>
      <trkpt lat="48.58097" lon="-3.85162">
        <ele>87.9</ele>
        <time>2020-06-10T11:40:14Z</time>
      </trkpt>
      <trkpt lat="48.58101" lon="-3.8516">
        <ele>87.8</ele>
        <time>2020-06-10T11:40:15Z</time>
      </trkpt>
      <trkpt lat="48.58105" lon="-3.85158">
        <ele>87.7</ele>
        <time>2020-06-10T11:40:16Z</time>
      </trkpt>
      <trkpt lat="48.58109" lon="-3.85155">
        <ele>87.6</ele>
        <time>2020-06-10T11:40:17Z</time>
      </trkpt>
      <trkpt lat="48.58113" lon="-3.85152">
        <ele>87.6</ele>
        <time>2020-06-10T11:40:18Z</time>
      </trkpt>
      <trkpt lat="48.58117" lon="-3.85148">
        <ele>87.5</ele>
        <time>2020-06-10T11:40:19Z</time>
      </trkpt>
      <trkpt lat="48.5812" lon="-3.85145">
        <ele>87.4</ele>
        <time>2020-06-10T11:40:20Z</time>
      </trkpt>
      <trkpt lat="48.58121" lon="-3.85145">
        <ele>87.4</ele>
        <time>2020-06-10T11:40:21Z</time>
      </trkpt>
      <trkpt lat="48.58124" lon="-3.85144">
        <ele>87.4</ele>
        <time>2020-06-10T11:40:22Z</time>
      </trkpt>
      <trkpt lat="48.58125" lon="-3.85143">
        <ele>87.4</ele>
        <time>2020-06-10T11:40:23Z</time>
      </trkpt>
      <trkpt lat="48.58127" lon="-3.85141">
        <ele>87.4</ele>
        <time>2020-06-10T11:40:24Z</time>
      </trkpt>
      <trkpt lat="48.58128" lon="-3.8514">
        <ele>87.4</ele>
        <time>2020-06-10T11:40:25Z</time>
      </trkpt>
      <trkpt lat="48.5813" lon="-3.8514">
        <ele>87.3</ele>
        <time>2020-06-10T11:40:26Z</time>
      </trkpt>
      <trkpt lat="48.58131" lon="-3.85139">
        <ele>87.3</ele>
        <time>2020-06-10T11:40:27Z</time>
      </trkpt>
      <trkpt lat="48.58132" lon="-3.85138">
        <ele>87.3</ele>
        <time>2020-06-10T11:40:28Z</time>
      </trkpt>
      <trkpt lat="48.58133" lon="-3.85138">
        <ele>87.3</ele>
        <time>2020-06-10T11:40:29Z</time>
      </trkpt>
      <trkpt lat="48.58134" lon="-3.85137">
        <ele>87.3</ele>
        <time>2020-06-10T11:40:30Z</time>
      </trkpt>
      <trkpt lat="48.58134" lon="-3.85137">
        <ele>87.3</ele>
        <time>2020-06-10T11:40:31Z</time>
      </trkpt>
      <trkpt lat="48.58134" lon="-3.85137">
        <ele>87.3</ele>
        <time>2020-06-10T11:40:32Z</time>
      </trkpt>
      <trkpt lat="48.58134" lon="-3.85137">
        <ele>87.2</ele>
        <time>2020-06-10T11:40:33Z</time>
      </trkpt>
      <trkpt lat="48.58135" lon="-3.85137">
        <ele>87.2</ele>
        <time>2020-06-10T11:40:34Z</time>
      </trkpt>
      <trkpt lat="48.58135" lon="-3.85137">
        <ele>87.2</ele>
        <time>2020-06-10T11:40:35Z</time>
      </trkpt>
      <trkpt lat="48.58135" lon="-3.85137">
        <ele>87.2</ele>
        <time>2020-06-10T11:40:36Z</time>
      </trkpt>
      <trkpt lat="48.58135" lon="-3.85137">
        <ele>87.2</ele>
        <time>2020-06-10T11:40:37Z</time>
      </trkpt>
      <trkpt lat="48.58136" lon="-3.85137">
        <ele>87.2</ele>
        <time>2020-06-10T11:40:38Z</time>
      </trkpt>
      <trkpt lat="48.58136" lon="-3.85137">
        <ele>87.2</ele>
        <time>2020-06-10T11:40:39Z</time>
      </trkpt>
      <trkpt lat="48.58136" lon="-3.85137">
        <ele>87.2</ele>
        <time>2020-06-10T11:40:40Z</time>
      </trkpt>
      <trkpt lat="48.58138" lon="-3.85136">
        <ele>87.2</ele>
        <time>2020-06-10T11:40:48Z</time>
      </trkpt>
      <trkpt lat="48.58139" lon="-3.85135">
        <ele>87.1</ele>
        <time>2020-06-10T11:40:49Z</time>
      </trkpt>
      <trkpt lat="48.58142" lon="-3.85135">
        <ele>87</ele>
        <time>2020-06-10T11:40:50Z</time>
      </trkpt>
      <trkpt lat="48.58143" lon="-3.85135">
        <ele>87</ele>
        <time>2020-06-10T11:40:51Z</time>
      </trkpt>
      <trkpt lat="48.58146" lon="-3.85137">
        <ele>86.9</ele>
        <time>2020-06-10T11:40:52Z</time>
      </trkpt>
      <trkpt lat="48.58146" lon="-3.85137">
        <ele>86.9</ele>
        <time>2020-06-10T11:40:53Z</time>
      </trkpt>
      <trkpt lat="48.58147" lon="-3.85138">
        <ele>86.9</ele>
        <time>2020-06-10T11:40:54Z</time>
      </trkpt>
      <trkpt lat="48.58147" lon="-3.85138">
        <ele>86.9</ele>
        <time>2020-06-10T11:40:55Z</time>
      </trkpt>
      <trkpt lat="48.58147" lon="-3.85139">
        <ele>86.9</ele>
        <time>2020-06-10T11:40:56Z</time>
      </trkpt>
      <trkpt lat="48.58148" lon="-3.85139">
        <ele>86.9</ele>
        <time>2020-06-10T11:40:57Z</time>
      </trkpt>
      <trkpt lat="48.58148" lon="-3.85138">
        <ele>86.8</ele>
        <time>2020-06-10T11:40:58Z</time>
      </trkpt>
      <trkpt lat="48.58149" lon="-3.85137">
        <ele>86.8</ele>
        <time>2020-06-10T11:40:59Z</time>
      </trkpt>
      <trkpt lat="48.5815" lon="-3.85136">
        <ele>86.8</ele>
        <time>2020-06-10T11:41:00Z</time>
      </trkpt>
      <trkpt lat="48.58151" lon="-3.85134">
        <ele>86.7</ele>
        <time>2020-06-10T11:41:01Z</time>
      </trkpt>
      <trkpt lat="48.58151" lon="-3.85132">
        <ele>86.6</ele>
        <time>2020-06-10T11:41:02Z</time>
      </trkpt>
      <trkpt lat="48.58151" lon="-3.85131">
        <ele>86.6</ele>
        <time>2020-06-10T11:41:03Z</time>
      </trkpt>
      <trkpt lat="48.58154" lon="-3.85128">
        <ele>86.4</ele>
        <time>2020-06-10T11:41:04Z</time>
      </trkpt>
      <trkpt lat="48.58155" lon="-3.85128">
        <ele>86.4</ele>
        <time>2020-06-10T11:41:05Z</time>
      </trkpt>
      <trkpt lat="48.58159" lon="-3.85127">
        <ele>86.2</ele>
        <time>2020-06-10T11:41:06Z</time>
      </trkpt>
      <trkpt lat="48.5816" lon="-3.85127">
        <ele>86.1</ele>
        <time>2020-06-10T11:41:07Z</time>
      </trkpt>
      <trkpt lat="48.58164" lon="-3.85125">
        <ele>85.9</ele>
        <time>2020-06-10T11:41:08Z</time>
      </trkpt>
      <trkpt lat="48.58165" lon="-3.85124">
        <ele>85.8</ele>
        <time>2020-06-10T11:41:09Z</time>
      </trkpt>
      <trkpt lat="48.58167" lon="-3.8512">
        <ele>85.6</ele>
        <time>2020-06-10T11:41:10Z</time>
      </trkpt>
      <trkpt lat="48.58168" lon="-3.85119">
        <ele>85.6</ele>
        <time>2020-06-10T11:41:11Z</time>
      </trkpt>
      <trkpt lat="48.58171" lon="-3.85117">
        <ele>85.4</ele>
        <time>2020-06-10T11:41:12Z</time>
      </trkpt>
      <trkpt lat="48.58175" lon="-3.85114">
        <ele>85.2</ele>
        <time>2020-06-10T11:41:13Z</time>
      </trkpt>
      <trkpt lat="48.58176" lon="-3.85112">
        <ele>85.1</ele>
        <time>2020-06-10T11:41:14Z</time>
      </trkpt>
      <trkpt lat="48.58178" lon="-3.8511">
        <ele>84.9</ele>
        <time>2020-06-10T11:41:15Z</time>
      </trkpt>
      <trkpt lat="48.58181" lon="-3.85106">
        <ele>84.8</ele>
        <time>2020-06-10T11:41:16Z</time>
      </trkpt>
      <trkpt lat="48.58184" lon="-3.85104">
        <ele>84.6</ele>
        <time>2020-06-10T11:41:17Z</time>
      </trkpt>
      <trkpt lat="48.58185" lon="-3.85103">
        <ele>84.6</ele>
        <time>2020-06-10T11:41:18Z</time>
      </trkpt>
      <trkpt lat="48.58186" lon="-3.85102">
        <ele>84.5</ele>
        <time>2020-06-10T11:41:19Z</time>
      </trkpt>
      <trkpt lat="48.58187" lon="-3.85101">
        <ele>84.4</ele>
        <time>2020-06-10T11:41:20Z</time>
      </trkpt>
      <trkpt lat="48.58186" lon="-3.85101">
        <ele>84.4</ele>
        <time>2020-06-10T11:41:21Z</time>
      </trkpt>
      <trkpt lat="48.58186" lon="-3.85101">
        <ele>84.4</ele>
        <time>2020-06-10T11:41:22Z</time>
      </trkpt>
      <trkpt lat="48.58186" lon="-3.85101">
        <ele>84.4</ele>
        <time>2020-06-10T11:41:23Z</time>
      </trkpt>
      <trkpt lat="48.58187" lon="-3.85102">
        <ele>84.4</ele>
        <time>2020-06-10T11:41:24Z</time>
      </trkpt>
      <trkpt lat="48.58187" lon="-3.85102">
        <ele>84.3</ele>
        <time>2020-06-10T11:41:25Z</time>
      </trkpt>
      <trkpt lat="48.58187" lon="-3.85101">
        <ele>84.3</ele>
        <time>2020-06-10T11:41:26Z</time>
      </trkpt>
      <trkpt lat="48.58187" lon="-3.851">
        <ele>84.3</ele>
        <time>2020-06-10T11:41:27Z</time>
      </trkpt>
      <trkpt lat="48.58187" lon="-3.85099">
        <ele>83.2</ele>
        <time>2020-06-10T11:41:28Z</time>
      </trkpt>
      <trkpt lat="48.58186" lon="-3.85097">
        <ele>83.2</ele>
        <time>2020-06-10T11:41:29Z</time>
      </trkpt>
      <trkpt lat="48.58186" lon="-3.85096">
        <ele>83.1</ele>
        <time>2020-06-10T11:41:30Z</time>
      </trkpt>
      <trkpt lat="48.58185" lon="-3.85095">
        <ele>83.1</ele>
        <time>2020-06-10T11:41:31Z</time>
      </trkpt>
      <trkpt lat="48.58185" lon="-3.85094">
        <ele>83.1</ele>
        <time>2020-06-10T11:41:50Z</time>
      </trkpt>
      <trkpt lat="48.58185" lon="-3.85093">
        <ele>83</ele>
        <time>2020-06-10T11:41:51Z</time>
      </trkpt>
      <trkpt lat="48.58182" lon="-3.8509">
        <ele>82.9</ele>
        <time>2020-06-10T11:41:52Z</time>
      </trkpt>
      <trkpt lat="48.58179" lon="-3.85088">
        <ele>82.8</ele>
        <time>2020-06-10T11:41:53Z</time>
      </trkpt>
      <trkpt lat="48.58176" lon="-3.85084">
        <ele>82.5</ele>
        <time>2020-06-10T11:41:54Z</time>
      </trkpt>
      <trkpt lat="48.58175" lon="-3.85083">
        <ele>82.5</ele>
        <time>2020-06-10T11:41:55Z</time>
      </trkpt>
      <trkpt lat="48.58172" lon="-3.85079">
        <ele>82.3</ele>
        <time>2020-06-10T11:41:56Z</time>
      </trkpt>
      <trkpt lat="48.58171" lon="-3.85076">
        <ele>82.2</ele>
        <time>2020-06-10T11:41:57Z</time>
      </trkpt>
      <trkpt lat="48.58171" lon="-3.85071">
        <ele>82</ele>
        <time>2020-06-10T11:41:58Z</time>
      </trkpt>
      <trkpt lat="48.58171" lon="-3.85067">
        <ele>81.9</ele>
        <time>2020-06-10T11:41:59Z</time>
      </trkpt>
      <trkpt lat="48.58169" lon="-3.85062">
        <ele>81.7</ele>
        <time>2020-06-10T11:42:00Z</time>
      </trkpt>
      <trkpt lat="48.58167" lon="-3.85058">
        <ele>81.5</ele>
        <time>2020-06-10T11:42:01Z</time>
      </trkpt>
      <trkpt lat="48.58166" lon="-3.85054">
        <ele>81.4</ele>
        <time>2020-06-10T11:42:02Z</time>
      </trkpt>
      <trkpt lat="48.58164" lon="-3.85048">
        <ele>81.3</ele>
        <time>2020-06-10T11:42:03Z</time>
      </trkpt>
      <trkpt lat="48.58164" lon="-3.85045">
        <ele>81.2</ele>
        <time>2020-06-10T11:42:04Z</time>
      </trkpt>
      <trkpt lat="48.58162" lon="-3.8504">
        <ele>81.1</ele>
        <time>2020-06-10T11:42:05Z</time>
      </trkpt>
      <trkpt lat="48.58159" lon="-3.85035">
        <ele>80.9</ele>
        <time>2020-06-10T11:42:06Z</time>
      </trkpt>
      <trkpt lat="48.58157" lon="-3.8503">
        <ele>80.7</ele>
        <time>2020-06-10T11:42:07Z</time>
      </trkpt>
      <trkpt lat="48.58155" lon="-3.85025">
        <ele>80.7</ele>
        <time>2020-06-10T11:42:08Z</time>
      </trkpt>
      <trkpt lat="48.58153" lon="-3.85021">
        <ele>80.7</ele>
        <time>2020-06-10T11:42:09Z</time>
      </trkpt>
      <trkpt lat="48.58149" lon="-3.85018">
        <ele>80.7</ele>
        <time>2020-06-10T11:42:10Z</time>
      </trkpt>
      <trkpt lat="48.58145" lon="-3.85014">
        <ele>80.7</ele>
        <time>2020-06-10T11:42:11Z</time>
      </trkpt>
      <trkpt lat="48.58141" lon="-3.85011">
        <ele>80.7</ele>
        <time>2020-06-10T11:42:12Z</time>
      </trkpt>
      <trkpt lat="48.58138" lon="-3.85009">
        <ele>80.7</ele>
        <time>2020-06-10T11:42:13Z</time>
      </trkpt>
      <trkpt lat="48.58136" lon="-3.85007">
        <ele>80.7</ele>
        <time>2020-06-10T11:42:14Z</time>
      </trkpt>
      <trkpt lat="48.58133" lon="-3.85005">
        <ele>80.8</ele>
        <time>2020-06-10T11:42:15Z</time>
      </trkpt>
      <trkpt lat="48.5813" lon="-3.85002">
        <ele>80.8</ele>
        <time>2020-06-10T11:42:16Z</time>
      </trkpt>
      <trkpt lat="48.58129" lon="-3.85">
        <ele>80.8</ele>
        <time>2020-06-10T11:42:17Z</time>
      </trkpt>
      <trkpt lat="48.58126" lon="-3.84998">
        <ele>80.8</ele>
        <time>2020-06-10T11:42:18Z</time>
      </trkpt>
      <trkpt lat="48.58123" lon="-3.84995">
        <ele>80.9</ele>
        <time>2020-06-10T11:42:19Z</time>
      </trkpt>
      <trkpt lat="48.5812" lon="-3.84993">
        <ele>80.9</ele>
        <time>2020-06-10T11:42:20Z</time>
      </trkpt>
      <trkpt lat="48.58117" lon="-3.84991">
        <ele>80.9</ele>
        <time>2020-06-10T11:42:21Z</time>
      </trkpt>
      <trkpt lat="48.58114" lon="-3.84988">
        <ele>80.9</ele>
        <time>2020-06-10T11:42:22Z</time>
      </trkpt>
      <trkpt lat="48.5811" lon="-3.84985">
        <ele>80.9</ele>
        <time>2020-06-10T11:42:23Z</time>
      </trkpt>
      <trkpt lat="48.58108" lon="-3.84982">
        <ele>80.9</ele>
        <time>2020-06-10T11:42:24Z</time>
      </trkpt>
      <trkpt lat="48.58105" lon="-3.84979">
        <ele>80.9</ele>
        <time>2020-06-10T11:42:25Z</time>
      </trkpt>
      <trkpt lat="48.58101" lon="-3.84976">
        <ele>80.9</ele>
        <time>2020-06-10T11:42:26Z</time>
      </trkpt>
      <trkpt lat="48.58098" lon="-3.84974">
        <ele>80.9</ele>
        <time>2020-06-10T11:42:27Z</time>
      </trkpt>
      <trkpt lat="48.58094" lon="-3.84971">
        <ele>80.9</ele>
        <time>2020-06-10T11:42:28Z</time>
      </trkpt>
      <trkpt lat="48.58092" lon="-3.84968">
        <ele>80.9</ele>
        <time>2020-06-10T11:42:29Z</time>
      </trkpt>
      <trkpt lat="48.58088" lon="-3.84965">
        <ele>80.9</ele>
        <time>2020-06-10T11:42:30Z</time>
      </trkpt>
      <trkpt lat="48.58086" lon="-3.84963">
        <ele>80.9</ele>
        <time>2020-06-10T11:42:31Z</time>
      </trkpt>
      <trkpt lat="48.58082" lon="-3.84961">
        <ele>80.8</ele>
        <time>2020-06-10T11:42:32Z</time>
      </trkpt>
      <trkpt lat="48.5808" lon="-3.84957">
        <ele>80.8</ele>
        <time>2020-06-10T11:42:33Z</time>
      </trkpt>
      <trkpt lat="48.58076" lon="-3.84954">
        <ele>80.8</ele>
        <time>2020-06-10T11:42:34Z</time>
      </trkpt>
      <trkpt lat="48.58073" lon="-3.84952">
        <ele>80.7</ele>
        <time>2020-06-10T11:42:35Z</time>
      </trkpt>
      <trkpt lat="48.58071" lon="-3.84949">
        <ele>80.7</ele>
        <time>2020-06-10T11:42:36Z</time>
      </trkpt>
      <trkpt lat="48.58068" lon="-3.84948">
        <ele>80.7</ele>
        <time>2020-06-10T11:42:37Z</time>
      </trkpt>
      <trkpt lat="48.58065" lon="-3.84944">
        <ele>80.7</ele>
        <time>2020-06-10T11:42:38Z</time>
      </trkpt>
      <trkpt lat="48.58061" lon="-3.8494">
        <ele>80.7</ele>
        <time>2020-06-10T11:42:39Z</time>
      </trkpt>
      <trkpt lat="48.5806" lon="-3.84939">
        <ele>80.7</ele>
        <time>2020-06-10T11:42:40Z</time>
      </trkpt>
      <trkpt lat="48.58057" lon="-3.84936">
        <ele>80.7</ele>
        <time>2020-06-10T11:42:41Z</time>
      </trkpt>
      <trkpt lat="48.58057" lon="-3.84934">
        <ele>80.7</ele>
        <time>2020-06-10T11:42:42Z</time>
      </trkpt>
      <trkpt lat="48.58056" lon="-3.84929">
        <ele>80.7</ele>
        <time>2020-06-10T11:42:43Z</time>
      </trkpt>
      <trkpt lat="48.58056" lon="-3.84927">
        <ele>80.7</ele>
        <time>2020-06-10T11:42:44Z</time>
      </trkpt>
      <trkpt lat="48.58057" lon="-3.84921">
        <ele>80.6</ele>
        <time>2020-06-10T11:42:45Z</time>
      </trkpt>
      <trkpt lat="48.58057" lon="-3.84919">
        <ele>80.6</ele>
        <time>2020-06-10T11:42:46Z</time>
      </trkpt>
      <trkpt lat="48.58058" lon="-3.84914">
        <ele>80.6</ele>
        <time>2020-06-10T11:42:47Z</time>
      </trkpt>
      <trkpt lat="48.58058" lon="-3.84913">
        <ele>80.6</ele>
        <time>2020-06-10T11:42:48Z</time>
      </trkpt>
      <trkpt lat="48.5806" lon="-3.84908">
        <ele>80.6</ele>
        <time>2020-06-10T11:42:49Z</time>
      </trkpt>
      <trkpt lat="48.58061" lon="-3.84903">
        <ele>80</ele>
        <time>2020-06-10T11:42:50Z</time>
      </trkpt>
      <trkpt lat="48.58062" lon="-3.84901">
        <ele>79.8</ele>
        <time>2020-06-10T11:42:51Z</time>
      </trkpt>
      <trkpt lat="48.58063" lon="-3.84897">
        <ele>79.3</ele>
        <time>2020-06-10T11:42:52Z</time>
      </trkpt>
      <trkpt lat="48.58064" lon="-3.84892">
        <ele>78.7</ele>
        <time>2020-06-10T11:42:53Z</time>
      </trkpt>
      <trkpt lat="48.58065" lon="-3.84888">
        <ele>78.3</ele>
        <time>2020-06-10T11:42:54Z</time>
      </trkpt>
      <trkpt lat="48.58067" lon="-3.84885">
        <ele>77.8</ele>
        <time>2020-06-10T11:42:55Z</time>
      </trkpt>
      <trkpt lat="48.58069" lon="-3.84882">
        <ele>77.3</ele>
        <time>2020-06-10T11:42:56Z</time>
      </trkpt>
      <trkpt lat="48.5807" lon="-3.84878">
        <ele>76.9</ele>
        <time>2020-06-10T11:42:57Z</time>
      </trkpt>
      <trkpt lat="48.58071" lon="-3.84873">
        <ele>76.3</ele>
        <time>2020-06-10T11:42:58Z</time>
      </trkpt>
      <trkpt lat="48.58073" lon="-3.84867">
        <ele>75.5</ele>
        <time>2020-06-10T11:42:59Z</time>
      </trkpt>
      <trkpt lat="48.58075" lon="-3.8486">
        <ele>74.8</ele>
        <time>2020-06-10T11:43:00Z</time>
      </trkpt>
      <trkpt lat="48.58077" lon="-3.84853">
        <ele>73.9</ele>
        <time>2020-06-10T11:43:01Z</time>
      </trkpt>
      <trkpt lat="48.58078" lon="-3.84846">
        <ele>73.1</ele>
        <time>2020-06-10T11:43:02Z</time>
      </trkpt>
      <trkpt lat="48.58079" lon="-3.8484">
        <ele>72.4</ele>
        <time>2020-06-10T11:43:03Z</time>
      </trkpt>
      <trkpt lat="48.58078" lon="-3.84834">
        <ele>71.3</ele>
        <time>2020-06-10T11:43:04Z</time>
      </trkpt>
      <trkpt lat="48.58076" lon="-3.84829">
        <ele>71.3</ele>
        <time>2020-06-10T11:43:05Z</time>
      </trkpt>
      <trkpt lat="48.58072" lon="-3.84827">
        <ele>71.4</ele>
        <time>2020-06-10T11:43:06Z</time>
      </trkpt>
      <trkpt lat="48.58069" lon="-3.84827">
        <ele>71.4</ele>
        <time>2020-06-10T11:43:07Z</time>
      </trkpt>
      <trkpt lat="48.58068" lon="-3.84825">
        <ele>71.4</ele>
        <time>2020-06-10T11:43:08Z</time>
      </trkpt>
      <trkpt lat="48.58068" lon="-3.84825">
        <ele>71.4</ele>
        <time>2020-06-10T11:43:09Z</time>
      </trkpt>
      <trkpt lat="48.58068" lon="-3.84824">
        <ele>71.4</ele>
        <time>2020-06-10T11:43:10Z</time>
      </trkpt>
      <trkpt lat="48.58069" lon="-3.84828">
        <ele>71.5</ele>
        <time>2020-06-10T11:43:11Z</time>
      </trkpt>
      <trkpt lat="48.58071" lon="-3.8483">
        <ele>71.5</ele>
        <time>2020-06-10T11:43:12Z</time>
      </trkpt>
      <trkpt lat="48.58074" lon="-3.8483">
        <ele>71.5</ele>
        <time>2020-06-10T11:43:13Z</time>
      </trkpt>
      <trkpt lat="48.58075" lon="-3.84831">
        <ele>71.5</ele>
        <time>2020-06-10T11:43:14Z</time>
      </trkpt>
      <trkpt lat="48.58077" lon="-3.84831">
        <ele>71.6</ele>
        <time>2020-06-10T11:43:15Z</time>
      </trkpt>
      <trkpt lat="48.58078" lon="-3.84831">
        <ele>71.6</ele>
        <time>2020-06-10T11:43:16Z</time>
      </trkpt>
      <trkpt lat="48.5808" lon="-3.84832">
        <ele>71.6</ele>
        <time>2020-06-10T11:43:17Z</time>
      </trkpt>
      <trkpt lat="48.58082" lon="-3.84833">
        <ele>71.6</ele>
        <time>2020-06-10T11:43:18Z</time>
      </trkpt>
      <trkpt lat="48.58082" lon="-3.84833">
        <ele>71.6</ele>
        <time>2020-06-10T11:43:19Z</time>
      </trkpt>
      <trkpt lat="48.58082" lon="-3.84833">
        <ele>71.6</ele>
        <time>2020-06-10T11:43:20Z</time>
      </trkpt>
      <trkpt lat="48.58082" lon="-3.84833">
        <ele>71.6</ele>
        <time>2020-06-10T11:43:21Z</time>
      </trkpt>
      <trkpt lat="48.58082" lon="-3.84833">
        <ele>71.6</ele>
        <time>2020-06-10T11:43:22Z</time>
      </trkpt>
      <trkpt lat="48.58082" lon="-3.84833">
        <ele>71.6</ele>
        <time>2020-06-10T11:43:23Z</time>
      </trkpt>
      <trkpt lat="48.58082" lon="-3.84833">
        <ele>71.6</ele>
        <time>2020-06-10T11:43:24Z</time>
      </trkpt>
      <trkpt lat="48.58082" lon="-3.84833">
        <ele>71.6</ele>
        <time>2020-06-10T11:43:25Z</time>
      </trkpt>
      <trkpt lat="48.58082" lon="-3.84833">
        <ele>71.6</ele>
        <time>2020-06-10T11:43:26Z</time>
      </trkpt>
      <trkpt lat="48.58082" lon="-3.84833">
        <ele>71.6</ele>
        <time>2020-06-10T11:43:27Z</time>
      </trkpt>
      <trkpt lat="48.58082" lon="-3.84833">
        <ele>71.6</ele>
        <time>2020-06-10T11:43:28Z</time>
      </trkpt>
      <trkpt lat="48.58082" lon="-3.84833">
        <ele>71.6</ele>
        <time>2020-06-10T11:43:29Z</time>
      </trkpt>
      <trkpt lat="48.58088" lon="-3.84837">
        <ele>71.7</ele>
        <time>2020-06-10T11:44:21Z</time>
      </trkpt>
      <trkpt lat="48.58091" lon="-3.84838">
        <ele>71.8</ele>
        <time>2020-06-10T11:44:22Z</time>
      </trkpt>
      <trkpt lat="48.58094" lon="-3.8484">
        <ele>71.8</ele>
        <time>2020-06-10T11:44:23Z</time>
      </trkpt>
      <trkpt lat="48.58097" lon="-3.84842">
        <ele>71.8</ele>
        <time>2020-06-10T11:44:24Z</time>
      </trkpt>
      <trkpt lat="48.58101" lon="-3.84844">
        <ele>71.8</ele>
        <time>2020-06-10T11:44:25Z</time>
      </trkpt>
      <trkpt lat="48.58105" lon="-3.84843">
        <ele>71.9</ele>
        <time>2020-06-10T11:44:26Z</time>
      </trkpt>
      <trkpt lat="48.58108" lon="-3.84844">
        <ele>71.9</ele>
        <time>2020-06-10T11:44:27Z</time>
      </trkpt>
      <trkpt lat="48.5811" lon="-3.84847">
        <ele>71.9</ele>
        <time>2020-06-10T11:44:28Z</time>
      </trkpt>
      <trkpt lat="48.58113" lon="-3.84849">
        <ele>71.9</ele>
        <time>2020-06-10T11:44:29Z</time>
      </trkpt>
      <trkpt lat="48.58117" lon="-3.84852">
        <ele>71.9</ele>
        <time>2020-06-10T11:44:30Z</time>
      </trkpt>
      <trkpt lat="48.5812" lon="-3.84854">
        <ele>71.9</ele>
        <time>2020-06-10T11:44:31Z</time>
      </trkpt>
      <trkpt lat="48.58123" lon="-3.84856">
        <ele>71.9</ele>
        <time>2020-06-10T11:44:32Z</time>
      </trkpt>
      <trkpt lat="48.58128" lon="-3.84857">
        <ele>72</ele>
        <time>2020-06-10T11:44:33Z</time>
      </trkpt>
      <trkpt lat="48.58132" lon="-3.84856">
        <ele>72</ele>
        <time>2020-06-10T11:44:34Z</time>
      </trkpt>
      <trkpt lat="48.58135" lon="-3.84858">
        <ele>72.1</ele>
        <time>2020-06-10T11:44:35Z</time>
      </trkpt>
      <trkpt lat="48.58139" lon="-3.84861">
        <ele>72.2</ele>
        <time>2020-06-10T11:44:36Z</time>
      </trkpt>
      <trkpt lat="48.58141" lon="-3.84863">
        <ele>72.2</ele>
        <time>2020-06-10T11:44:37Z</time>
      </trkpt>
      <trkpt lat="48.58144" lon="-3.84864">
        <ele>72.3</ele>
        <time>2020-06-10T11:44:38Z</time>
      </trkpt>
      <trkpt lat="48.58146" lon="-3.84864">
        <ele>72.3</ele>
        <time>2020-06-10T11:44:39Z</time>
      </trkpt>
      <trkpt lat="48.58148" lon="-3.84864">
        <ele>72.3</ele>
        <time>2020-06-10T11:44:40Z</time>
      </trkpt>
      <trkpt lat="48.58151" lon="-3.84861">
        <ele>71.9</ele>
        <time>2020-06-10T11:44:41Z</time>
      </trkpt>
      <trkpt lat="48.58152" lon="-3.8486">
        <ele>71.8</ele>
        <time>2020-06-10T11:44:42Z</time>
      </trkpt>
      <trkpt lat="48.58154" lon="-3.84856">
        <ele>71.6</ele>
        <time>2020-06-10T11:44:43Z</time>
      </trkpt>
      <trkpt lat="48.58155" lon="-3.84851">
        <ele>71.4</ele>
        <time>2020-06-10T11:44:44Z</time>
      </trkpt>
      <trkpt lat="48.58156" lon="-3.84846">
        <ele>71.2</ele>
        <time>2020-06-10T11:44:45Z</time>
      </trkpt>
      <trkpt lat="48.58158" lon="-3.84842">
        <ele>71</ele>
        <time>2020-06-10T11:44:46Z</time>
      </trkpt>
      <trkpt lat="48.58158" lon="-3.8484">
        <ele>71</ele>
        <time>2020-06-10T11:44:47Z</time>
      </trkpt>
      <trkpt lat="48.58159" lon="-3.84838">
        <ele>70.9</ele>
        <time>2020-06-10T11:44:48Z</time>
      </trkpt>
      <trkpt lat="48.58159" lon="-3.84836">
        <ele>70.8</ele>
        <time>2020-06-10T11:44:49Z</time>
      </trkpt>
      <trkpt lat="48.58161" lon="-3.84836">
        <ele>70.7</ele>
        <time>2020-06-10T11:44:50Z</time>
      </trkpt>
      <trkpt lat="48.58161" lon="-3.84834">
        <ele>70.6</ele>
        <time>2020-06-10T11:44:51Z</time>
      </trkpt>
      <trkpt lat="48.58161" lon="-3.84832">
        <ele>70.6</ele>
        <time>2020-06-10T11:44:52Z</time>
      </trkpt>
      <trkpt lat="48.58161" lon="-3.84831">
        <ele>70.2</ele>
        <time>2020-06-10T11:44:53Z</time>
      </trkpt>
      <trkpt lat="48.58161" lon="-3.8483">
        <ele>70.2</ele>
        <time>2020-06-10T11:44:54Z</time>
      </trkpt>
      <trkpt lat="48.58161" lon="-3.84829">
        <ele>70.1</ele>
        <time>2020-06-10T11:44:55Z</time>
      </trkpt>
      <trkpt lat="48.58161" lon="-3.84829">
        <ele>70</ele>
        <time>2020-06-10T11:44:56Z</time>
      </trkpt>
      <trkpt lat="48.58162" lon="-3.84828">
        <ele>70</ele>
        <time>2020-06-10T11:44:57Z</time>
      </trkpt>
      <trkpt lat="48.58162" lon="-3.84827">
        <ele>69.9</ele>
        <time>2020-06-10T11:44:58Z</time>
      </trkpt>
      <trkpt lat="48.58162" lon="-3.84826">
        <ele>69.8</ele>
        <time>2020-06-10T11:44:59Z</time>
      </trkpt>
      <trkpt lat="48.58162" lon="-3.84825">
        <ele>69.8</ele>
        <time>2020-06-10T11:45:00Z</time>
      </trkpt>
      <trkpt lat="48.58162" lon="-3.84825">
        <ele>69.7</ele>
        <time>2020-06-10T11:45:01Z</time>
      </trkpt>
      <trkpt lat="48.58163" lon="-3.84824">
        <ele>69.6</ele>
        <time>2020-06-10T11:45:02Z</time>
      </trkpt>
      <trkpt lat="48.58163" lon="-3.84823">
        <ele>69.6</ele>
        <time>2020-06-10T11:45:14Z</time>
      </trkpt>
      <trkpt lat="48.58163" lon="-3.84822">
        <ele>69.5</ele>
        <time>2020-06-10T11:45:15Z</time>
      </trkpt>
      <trkpt lat="48.58163" lon="-3.84821">
        <ele>69.4</ele>
        <time>2020-06-10T11:45:16Z</time>
      </trkpt>
      <trkpt lat="48.58163" lon="-3.84819">
        <ele>69.3</ele>
        <time>2020-06-10T11:45:17Z</time>
      </trkpt>
      <trkpt lat="48.58163" lon="-3.84818">
        <ele>69.2</ele>
        <time>2020-06-10T11:45:18Z</time>
      </trkpt>
      <trkpt lat="48.58163" lon="-3.84816">
        <ele>69</ele>
        <time>2020-06-10T11:45:19Z</time>
      </trkpt>
      <trkpt lat="48.58163" lon="-3.84813">
        <ele>68.8</ele>
        <time>2020-06-10T11:45:20Z</time>
      </trkpt>
      <trkpt lat="48.58165" lon="-3.84809">
        <ele>68.5</ele>
        <time>2020-06-10T11:45:21Z</time>
      </trkpt>
      <trkpt lat="48.58166" lon="-3.84807">
        <ele>68.3</ele>
        <time>2020-06-10T11:45:22Z</time>
      </trkpt>
      <trkpt lat="48.58168" lon="-3.84802">
        <ele>68</ele>
        <time>2020-06-10T11:45:23Z</time>
      </trkpt>
      <trkpt lat="48.5817" lon="-3.84798">
        <ele>67.6</ele>
        <time>2020-06-10T11:45:24Z</time>
      </trkpt>
      <trkpt lat="48.58171" lon="-3.84793">
        <ele>67.3</ele>
        <time>2020-06-10T11:45:25Z</time>
      </trkpt>
      <trkpt lat="48.58172" lon="-3.84791">
        <ele>67.1</ele>
        <time>2020-06-10T11:45:26Z</time>
      </trkpt>
      <trkpt lat="48.58173" lon="-3.84789">
        <ele>67</ele>
        <time>2020-06-10T11:45:27Z</time>
      </trkpt>
      <trkpt lat="48.58174" lon="-3.84788">
        <ele>66.8</ele>
        <time>2020-06-10T11:45:28Z</time>
      </trkpt>
      <trkpt lat="48.58177" lon="-3.84785">
        <ele>66.4</ele>
        <time>2020-06-10T11:45:29Z</time>
      </trkpt>
      <trkpt lat="48.58177" lon="-3.84784">
        <ele>66.3</ele>
        <time>2020-06-10T11:45:30Z</time>
      </trkpt>
      <trkpt lat="48.58178" lon="-3.84781">
        <ele>66.1</ele>
        <time>2020-06-10T11:45:31Z</time>
      </trkpt>
      <trkpt lat="48.58178" lon="-3.8478">
        <ele>65.9</ele>
        <time>2020-06-10T11:45:32Z</time>
      </trkpt>
      <trkpt lat="48.58178" lon="-3.84778">
        <ele>65.8</ele>
        <time>2020-06-10T11:45:33Z</time>
      </trkpt>
      <trkpt lat="48.58178" lon="-3.84777">
        <ele>65.7</ele>
        <time>2020-06-10T11:45:34Z</time>
      </trkpt>
      <trkpt lat="48.58178" lon="-3.84775">
        <ele>65.6</ele>
        <time>2020-06-10T11:45:35Z</time>
      </trkpt>
      <trkpt lat="48.58179" lon="-3.84773">
        <ele>65.3</ele>
        <time>2020-06-10T11:45:36Z</time>
      </trkpt>
      <trkpt lat="48.58179" lon="-3.84771">
        <ele>65.2</ele>
        <time>2020-06-10T11:45:37Z</time>
      </trkpt>
      <trkpt lat="48.5818" lon="-3.8477">
        <ele>65</ele>
        <time>2020-06-10T11:45:38Z</time>
      </trkpt>
      <trkpt lat="48.58183" lon="-3.84767">
        <ele>64.6</ele>
        <time>2020-06-10T11:45:39Z</time>
      </trkpt>
      <trkpt lat="48.58185" lon="-3.84763">
        <ele>64.2</ele>
        <time>2020-06-10T11:45:40Z</time>
      </trkpt>
      <trkpt lat="48.58188" lon="-3.84759">
        <ele>63.7</ele>
        <time>2020-06-10T11:45:41Z</time>
      </trkpt>
      <trkpt lat="48.5819" lon="-3.84754">
        <ele>63.3</ele>
        <time>2020-06-10T11:45:42Z</time>
      </trkpt>
      <trkpt lat="48.58193" lon="-3.84751">
        <ele>62.8</ele>
        <time>2020-06-10T11:45:43Z</time>
      </trkpt>
      <trkpt lat="48.58196" lon="-3.84747">
        <ele>62.4</ele>
        <time>2020-06-10T11:45:44Z</time>
      </trkpt>
      <trkpt lat="48.58197" lon="-3.84746">
        <ele>62.2</ele>
        <time>2020-06-10T11:45:45Z</time>
      </trkpt>
      <trkpt lat="48.58198" lon="-3.84742">
        <ele>60.7</ele>
        <time>2020-06-10T11:45:46Z</time>
      </trkpt>
      <trkpt lat="48.58199" lon="-3.8474">
        <ele>60.7</ele>
        <time>2020-06-10T11:45:47Z</time>
      </trkpt>
      <trkpt lat="48.582" lon="-3.84735">
        <ele>60.2</ele>
        <time>2020-06-10T11:45:48Z</time>
      </trkpt>
      <trkpt lat="48.582" lon="-3.84733">
        <ele>60.1</ele>
        <time>2020-06-10T11:45:49Z</time>
      </trkpt>
      <trkpt lat="48.58199" lon="-3.84729">
        <ele>60.1</ele>
        <time>2020-06-10T11:45:50Z</time>
      </trkpt>
      <trkpt lat="48.58199" lon="-3.84728">
        <ele>60</ele>
        <time>2020-06-10T11:45:51Z</time>
      </trkpt>
      <trkpt lat="48.58198" lon="-3.84723">
        <ele>60</ele>
        <time>2020-06-10T11:45:52Z</time>
      </trkpt>
      <trkpt lat="48.58198" lon="-3.84721">
        <ele>59.9</ele>
        <time>2020-06-10T11:45:53Z</time>
      </trkpt>
      <trkpt lat="48.58197" lon="-3.84716">
        <ele>59.8</ele>
        <time>2020-06-10T11:45:54Z</time>
      </trkpt>
      <trkpt lat="48.58196" lon="-3.84714">
        <ele>59.8</ele>
        <time>2020-06-10T11:45:55Z</time>
      </trkpt>
      <trkpt lat="48.58196" lon="-3.8471">
        <ele>59.7</ele>
        <time>2020-06-10T11:45:56Z</time>
      </trkpt>
      <trkpt lat="48.58196" lon="-3.84705">
        <ele>59.7</ele>
        <time>2020-06-10T11:45:57Z</time>
      </trkpt>
      <trkpt lat="48.58196" lon="-3.847">
        <ele>59.6</ele>
        <time>2020-06-10T11:45:58Z</time>
      </trkpt>
      <trkpt lat="48.58198" lon="-3.84696">
        <ele>59.5</ele>
        <time>2020-06-10T11:45:59Z</time>
      </trkpt>
      <trkpt lat="48.58201" lon="-3.84691">
        <ele>59.4</ele>
        <time>2020-06-10T11:46:00Z</time>
      </trkpt>
      <trkpt lat="48.58201" lon="-3.84685">
        <ele>59.3</ele>
        <time>2020-06-10T11:46:01Z</time>
      </trkpt>
      <trkpt lat="48.58199" lon="-3.84679">
        <ele>59.2</ele>
        <time>2020-06-10T11:46:02Z</time>
      </trkpt>
      <trkpt lat="48.58196" lon="-3.84674">
        <ele>59.1</ele>
        <time>2020-06-10T11:46:03Z</time>
      </trkpt>
      <trkpt lat="48.58194" lon="-3.84669">
        <ele>59</ele>
        <time>2020-06-10T11:46:04Z</time>
      </trkpt>
      <trkpt lat="48.58191" lon="-3.84665">
        <ele>58.9</ele>
        <time>2020-06-10T11:46:05Z</time>
      </trkpt>
      <trkpt lat="48.58188" lon="-3.84661">
        <ele>58.8</ele>
        <time>2020-06-10T11:46:06Z</time>
      </trkpt>
      <trkpt lat="48.58186" lon="-3.84657">
        <ele>58.7</ele>
        <time>2020-06-10T11:46:07Z</time>
      </trkpt>
      <trkpt lat="48.58183" lon="-3.84652">
        <ele>58.7</ele>
        <time>2020-06-10T11:46:08Z</time>
      </trkpt>
      <trkpt lat="48.5818" lon="-3.84649">
        <ele>58.6</ele>
        <time>2020-06-10T11:46:09Z</time>
      </trkpt>
      <trkpt lat="48.58177" lon="-3.84645">
        <ele>58.5</ele>
        <time>2020-06-10T11:46:10Z</time>
      </trkpt>
      <trkpt lat="48.58174" lon="-3.84642">
        <ele>58.4</ele>
        <time>2020-06-10T11:46:11Z</time>
      </trkpt>
      <trkpt lat="48.58172" lon="-3.84638">
        <ele>58.3</ele>
        <time>2020-06-10T11:46:12Z</time>
      </trkpt>
      <trkpt lat="48.58169" lon="-3.84635">
        <ele>58.2</ele>
        <time>2020-06-10T11:46:13Z</time>
      </trkpt>
      <trkpt lat="48.58167" lon="-3.84631">
        <ele>58.1</ele>
        <time>2020-06-10T11:46:14Z</time>
      </trkpt>
      <trkpt lat="48.58165" lon="-3.84626">
        <ele>58.1</ele>
        <time>2020-06-10T11:46:15Z</time>
      </trkpt>
      <trkpt lat="48.58163" lon="-3.84622">
        <ele>58</ele>
        <time>2020-06-10T11:46:16Z</time>
      </trkpt>
      <trkpt lat="48.58163" lon="-3.84616">
        <ele>57.9</ele>
        <time>2020-06-10T11:46:17Z</time>
      </trkpt>
      <trkpt lat="48.58163" lon="-3.84608">
        <ele>57.8</ele>
        <time>2020-06-10T11:46:18Z</time>
      </trkpt>
      <trkpt lat="48.5816" lon="-3.84602">
        <ele>57.5</ele>
        <time>2020-06-10T11:46:19Z</time>
      </trkpt>
      <trkpt lat="48.58157" lon="-3.84597">
        <ele>57.5</ele>
        <time>2020-06-10T11:46:20Z</time>
      </trkpt>
      <trkpt lat="48.58155" lon="-3.84594">
        <ele>57.4</ele>
        <time>2020-06-10T11:46:21Z</time>
      </trkpt>
      <trkpt lat="48.58154" lon="-3.84593">
        <ele>57.4</ele>
        <time>2020-06-10T11:46:22Z</time>
      </trkpt>
      <trkpt lat="48.58153" lon="-3.84588">
        <ele>57.3</ele>
        <time>2020-06-10T11:46:23Z</time>
      </trkpt>
      <trkpt lat="48.58153" lon="-3.84587">
        <ele>57.3</ele>
        <time>2020-06-10T11:46:24Z</time>
      </trkpt>
      <trkpt lat="48.58152" lon="-3.84585">
        <ele>57.3</ele>
        <time>2020-06-10T11:46:25Z</time>
      </trkpt>
      <trkpt lat="48.58153" lon="-3.84584">
        <ele>57.3</ele>
        <time>2020-06-10T11:46:26Z</time>
      </trkpt>
      <trkpt lat="48.58154" lon="-3.84583">
        <ele>57.2</ele>
        <time>2020-06-10T11:46:27Z</time>
      </trkpt>
      <trkpt lat="48.58155" lon="-3.84584">
        <ele>57.2</ele>
        <time>2020-06-10T11:46:28Z</time>
      </trkpt>
      <trkpt lat="48.58158" lon="-3.84584">
        <ele>57.1</ele>
        <time>2020-06-10T11:46:29Z</time>
      </trkpt>
      <trkpt lat="48.58159" lon="-3.84585">
        <ele>57.1</ele>
        <time>2020-06-10T11:46:30Z</time>
      </trkpt>
      <trkpt lat="48.58161" lon="-3.84587">
        <ele>57.1</ele>
        <time>2020-06-10T11:46:31Z</time>
      </trkpt>
      <trkpt lat="48.58164" lon="-3.84591">
        <ele>57</ele>
        <time>2020-06-10T11:46:32Z</time>
      </trkpt>
      <trkpt lat="48.58166" lon="-3.84594">
        <ele>57</ele>
        <time>2020-06-10T11:46:33Z</time>
      </trkpt>
      <trkpt lat="48.58169" lon="-3.84598">
        <ele>56.9</ele>
        <time>2020-06-10T11:46:34Z</time>
      </trkpt>
      <trkpt lat="48.58172" lon="-3.84602">
        <ele>56.7</ele>
        <time>2020-06-10T11:46:35Z</time>
      </trkpt>
      <trkpt lat="48.58175" lon="-3.84605">
        <ele>56.7</ele>
        <time>2020-06-10T11:46:36Z</time>
      </trkpt>
      <trkpt lat="48.58178" lon="-3.84609">
        <ele>56.8</ele>
        <time>2020-06-10T11:46:37Z</time>
      </trkpt>
      <trkpt lat="48.58181" lon="-3.84613">
        <ele>56.7</ele>
        <time>2020-06-10T11:46:38Z</time>
      </trkpt>
      <trkpt lat="48.58185" lon="-3.84617">
        <ele>56.6</ele>
        <time>2020-06-10T11:46:39Z</time>
      </trkpt>
      <trkpt lat="48.58188" lon="-3.8462">
        <ele>56.5</ele>
        <time>2020-06-10T11:46:40Z</time>
      </trkpt>
      <trkpt lat="48.58192" lon="-3.84623">
        <ele>56.4</ele>
        <time>2020-06-10T11:46:41Z</time>
      </trkpt>
      <trkpt lat="48.58196" lon="-3.84626">
        <ele>56.2</ele>
        <time>2020-06-10T11:46:42Z</time>
      </trkpt>
      <trkpt lat="48.58199" lon="-3.8463">
        <ele>56.1</ele>
        <time>2020-06-10T11:46:43Z</time>
      </trkpt>
      <trkpt lat="48.58203" lon="-3.84634">
        <ele>56</ele>
        <time>2020-06-10T11:46:44Z</time>
      </trkpt>
      <trkpt lat="48.58206" lon="-3.84638">
        <ele>55.9</ele>
        <time>2020-06-10T11:46:45Z</time>
      </trkpt>
      <trkpt lat="48.58209" lon="-3.84642">
        <ele>55.7</ele>
        <time>2020-06-10T11:46:46Z</time>
      </trkpt>
      <trkpt lat="48.58213" lon="-3.84647">
        <ele>55.6</ele>
        <time>2020-06-10T11:46:47Z</time>
      </trkpt>
      <trkpt lat="48.58216" lon="-3.8465">
        <ele>55.4</ele>
        <time>2020-06-10T11:46:48Z</time>
      </trkpt>
      <trkpt lat="48.5822" lon="-3.84653">
        <ele>55.3</ele>
        <time>2020-06-10T11:46:49Z</time>
      </trkpt>
      <trkpt lat="48.58225" lon="-3.84653">
        <ele>55.2</ele>
        <time>2020-06-10T11:46:50Z</time>
      </trkpt>
      <trkpt lat="48.5823" lon="-3.84651">
        <ele>55</ele>
        <time>2020-06-10T11:46:51Z</time>
      </trkpt>
      <trkpt lat="48.58236" lon="-3.8465">
        <ele>54.8</ele>
        <time>2020-06-10T11:46:52Z</time>
      </trkpt>
      <trkpt lat="48.58241" lon="-3.84649">
        <ele>54.6</ele>
        <time>2020-06-10T11:46:53Z</time>
      </trkpt>
      <trkpt lat="48.58247" lon="-3.84649">
        <ele>54.4</ele>
        <time>2020-06-10T11:46:54Z</time>
      </trkpt>
      <trkpt lat="48.58253" lon="-3.84649">
        <ele>54</ele>
        <time>2020-06-10T11:46:55Z</time>
      </trkpt>
      <trkpt lat="48.58259" lon="-3.84648">
        <ele>53.5</ele>
        <time>2020-06-10T11:46:56Z</time>
      </trkpt>
      <trkpt lat="48.58265" lon="-3.84647">
        <ele>53.1</ele>
        <time>2020-06-10T11:46:57Z</time>
      </trkpt>
      <trkpt lat="48.58271" lon="-3.84643">
        <ele>52.6</ele>
        <time>2020-06-10T11:46:58Z</time>
      </trkpt>
      <trkpt lat="48.58277" lon="-3.84637">
        <ele>52</ele>
        <time>2020-06-10T11:46:59Z</time>
      </trkpt>
      <trkpt lat="48.58283" lon="-3.8463">
        <ele>51.3</ele>
        <time>2020-06-10T11:47:00Z</time>
      </trkpt>
      <trkpt lat="48.5829" lon="-3.84624">
        <ele>50.6</ele>
        <time>2020-06-10T11:47:01Z</time>
      </trkpt>
      <trkpt lat="48.58297" lon="-3.84617">
        <ele>49.9</ele>
        <time>2020-06-10T11:47:02Z</time>
      </trkpt>
      <trkpt lat="48.58304" lon="-3.84609">
        <ele>49.1</ele>
        <time>2020-06-10T11:47:03Z</time>
      </trkpt>
      <trkpt lat="48.58312" lon="-3.846">
        <ele>48.3</ele>
        <time>2020-06-10T11:47:04Z</time>
      </trkpt>
      <trkpt lat="48.5832" lon="-3.84591">
        <ele>47.6</ele>
        <time>2020-06-10T11:47:05Z</time>
      </trkpt>
      <trkpt lat="48.58328" lon="-3.84581">
        <ele>46.8</ele>
        <time>2020-06-10T11:47:06Z</time>
      </trkpt>
      <trkpt lat="48.58336" lon="-3.84572">
        <ele>46</ele>
        <time>2020-06-10T11:47:07Z</time>
      </trkpt>
      <trkpt lat="48.58346" lon="-3.84564">
        <ele>45.3</ele>
        <time>2020-06-10T11:47:08Z</time>
      </trkpt>
      <trkpt lat="48.58354" lon="-3.84555">
        <ele>44.6</ele>
        <time>2020-06-10T11:47:09Z</time>
      </trkpt>
      <trkpt lat="48.58363" lon="-3.84546">
        <ele>43.8</ele>
        <time>2020-06-10T11:47:10Z</time>
      </trkpt>
      <trkpt lat="48.58373" lon="-3.84538">
        <ele>43.1</ele>
        <time>2020-06-10T11:47:11Z</time>
      </trkpt>
      <trkpt lat="48.58382" lon="-3.84529">
        <ele>42.4</ele>
        <time>2020-06-10T11:47:12Z</time>
      </trkpt>
      <trkpt lat="48.58391" lon="-3.84519">
        <ele>41.7</ele>
        <time>2020-06-10T11:47:13Z</time>
      </trkpt>
      <trkpt lat="48.584" lon="-3.8451">
        <ele>41</ele>
        <time>2020-06-10T11:47:14Z</time>
      </trkpt>
      <trkpt lat="48.5841" lon="-3.84502">
        <ele>40.3</ele>
        <time>2020-06-10T11:47:15Z</time>
      </trkpt>
      <trkpt lat="48.5842" lon="-3.84493">
        <ele>39.8</ele>
        <time>2020-06-10T11:47:16Z</time>
      </trkpt>
      <trkpt lat="48.5843" lon="-3.84483">
        <ele>39.3</ele>
        <time>2020-06-10T11:47:17Z</time>
      </trkpt>
      <trkpt lat="48.58439" lon="-3.84473">
        <ele>38.8</ele>
        <time>2020-06-10T11:47:18Z</time>
      </trkpt>
      <trkpt lat="48.58449" lon="-3.84462">
        <ele>38.3</ele>
        <time>2020-06-10T11:47:19Z</time>
      </trkpt>
      <trkpt lat="48.58459" lon="-3.84453">
        <ele>37.9</ele>
        <time>2020-06-10T11:47:20Z</time>
      </trkpt>
      <trkpt lat="48.58468" lon="-3.84444">
        <ele>37.6</ele>
        <time>2020-06-10T11:47:21Z</time>
      </trkpt>
      <trkpt lat="48.58477" lon="-3.84435">
        <ele>37.2</ele>
        <time>2020-06-10T11:47:22Z</time>
      </trkpt>
      <trkpt lat="48.58487" lon="-3.84426">
        <ele>36.9</ele>
        <time>2020-06-10T11:47:23Z</time>
      </trkpt>
      <trkpt lat="48.58496" lon="-3.84416">
        <ele>36.6</ele>
        <time>2020-06-10T11:47:24Z</time>
      </trkpt>
      <trkpt lat="48.58504" lon="-3.84407">
        <ele>36.5</ele>
        <time>2020-06-10T11:47:25Z</time>
      </trkpt>
      <trkpt lat="48.58513" lon="-3.84398">
        <ele>36.3</ele>
        <time>2020-06-10T11:47:26Z</time>
      </trkpt>
      <trkpt lat="48.58522" lon="-3.84389">
        <ele>36.1</ele>
        <time>2020-06-10T11:47:27Z</time>
      </trkpt>
      <trkpt lat="48.5853" lon="-3.8438">
        <ele>36</ele>
        <time>2020-06-10T11:47:28Z</time>
      </trkpt>
      <trkpt lat="48.58537" lon="-3.84371">
        <ele>35.9</ele>
        <time>2020-06-10T11:47:29Z</time>
      </trkpt>
      <trkpt lat="48.58544" lon="-3.84362">
        <ele>35.7</ele>
        <time>2020-06-10T11:47:30Z</time>
      </trkpt>
      <trkpt lat="48.58551" lon="-3.84352">
        <ele>35.7</ele>
        <time>2020-06-10T11:47:31Z</time>
      </trkpt>
      <trkpt lat="48.58556" lon="-3.84343">
        <ele>35.6</ele>
        <time>2020-06-10T11:47:32Z</time>
      </trkpt>
      <trkpt lat="48.58561" lon="-3.84335">
        <ele>35.5</ele>
        <time>2020-06-10T11:47:33Z</time>
      </trkpt>
      <trkpt lat="48.58565" lon="-3.84327">
        <ele>35.5</ele>
        <time>2020-06-10T11:47:34Z</time>
      </trkpt>
      <trkpt lat="48.58568" lon="-3.8432">
        <ele>35.5</ele>
        <time>2020-06-10T11:47:35Z</time>
      </trkpt>
      <trkpt lat="48.58571" lon="-3.84313">
        <ele>35.4</ele>
        <time>2020-06-10T11:47:36Z</time>
      </trkpt>
      <trkpt lat="48.58573" lon="-3.84305">
        <ele>35.4</ele>
        <time>2020-06-10T11:47:37Z</time>
      </trkpt>
      <trkpt lat="48.58575" lon="-3.84298">
        <ele>35.3</ele>
        <time>2020-06-10T11:47:38Z</time>
      </trkpt>
      <trkpt lat="48.58577" lon="-3.84291">
        <ele>35.3</ele>
        <time>2020-06-10T11:47:39Z</time>
      </trkpt>
      <trkpt lat="48.5858" lon="-3.84284">
        <ele>35.3</ele>
        <time>2020-06-10T11:47:40Z</time>
      </trkpt>
      <trkpt lat="48.58582" lon="-3.84276">
        <ele>35.3</ele>
        <time>2020-06-10T11:47:41Z</time>
      </trkpt>
      <trkpt lat="48.58584" lon="-3.84268">
        <ele>35.3</ele>
        <time>2020-06-10T11:47:42Z</time>
      </trkpt>
      <trkpt lat="48.58585" lon="-3.84258">
        <ele>34.8</ele>
        <time>2020-06-10T11:47:43Z</time>
      </trkpt>
      <trkpt lat="48.58586" lon="-3.84247">
        <ele>34.1</ele>
        <time>2020-06-10T11:47:44Z</time>
      </trkpt>
      <trkpt lat="48.58587" lon="-3.84235">
        <ele>33.3</ele>
        <time>2020-06-10T11:47:45Z</time>
      </trkpt>
      <trkpt lat="48.58587" lon="-3.84223">
        <ele>32.3</ele>
        <time>2020-06-10T11:47:46Z</time>
      </trkpt>
      <trkpt lat="48.58588" lon="-3.84209">
        <ele>31.1</ele>
        <time>2020-06-10T11:47:47Z</time>
      </trkpt>
      <trkpt lat="48.5859" lon="-3.84194">
        <ele>29.9</ele>
        <time>2020-06-10T11:47:48Z</time>
      </trkpt>
      <trkpt lat="48.58592" lon="-3.84179">
        <ele>28.8</ele>
        <time>2020-06-10T11:47:49Z</time>
      </trkpt>
      <trkpt lat="48.58595" lon="-3.84165">
        <ele>27.8</ele>
        <time>2020-06-10T11:47:50Z</time>
      </trkpt>
      <trkpt lat="48.58598" lon="-3.84152">
        <ele>27</ele>
        <time>2020-06-10T11:47:51Z</time>
      </trkpt>
      <trkpt lat="48.58602" lon="-3.84138">
        <ele>26.1</ele>
        <time>2020-06-10T11:47:52Z</time>
      </trkpt>
      <trkpt lat="48.58606" lon="-3.84124">
        <ele>25.1</ele>
        <time>2020-06-10T11:47:53Z</time>
      </trkpt>
      <trkpt lat="48.5861" lon="-3.84109">
        <ele>24.1</ele>
        <time>2020-06-10T11:47:54Z</time>
      </trkpt>
      <trkpt lat="48.58614" lon="-3.84095">
        <ele>23.1</ele>
        <time>2020-06-10T11:47:55Z</time>
      </trkpt>
      <trkpt lat="48.58619" lon="-3.84081">
        <ele>22.1</ele>
        <time>2020-06-10T11:47:56Z</time>
      </trkpt>
      <trkpt lat="48.58623" lon="-3.84066">
        <ele>21.2</ele>
        <time>2020-06-10T11:47:57Z</time>
      </trkpt>
      <trkpt lat="48.58628" lon="-3.84051">
        <ele>20.2</ele>
        <time>2020-06-10T11:47:58Z</time>
      </trkpt>
      <trkpt lat="48.58633" lon="-3.84036">
        <ele>19.3</ele>
        <time>2020-06-10T11:47:59Z</time>
      </trkpt>
      <trkpt lat="48.58637" lon="-3.84021">
        <ele>18.5</ele>
        <time>2020-06-10T11:48:00Z</time>
      </trkpt>
      <trkpt lat="48.58641" lon="-3.84007">
        <ele>17.6</ele>
        <time>2020-06-10T11:48:01Z</time>
      </trkpt>
      <trkpt lat="48.58646" lon="-3.83992">
        <ele>16.7</ele>
        <time>2020-06-10T11:48:02Z</time>
      </trkpt>
      <trkpt lat="48.58651" lon="-3.83978">
        <ele>15.8</ele>
        <time>2020-06-10T11:48:03Z</time>
      </trkpt>
      <trkpt lat="48.58655" lon="-3.83964">
        <ele>15</ele>
        <time>2020-06-10T11:48:04Z</time>
      </trkpt>
      <trkpt lat="48.58659" lon="-3.83951">
        <ele>14.2</ele>
        <time>2020-06-10T11:48:05Z</time>
      </trkpt>
      <trkpt lat="48.58662" lon="-3.83938">
        <ele>13.5</ele>
        <time>2020-06-10T11:48:06Z</time>
      </trkpt>
      <trkpt lat="48.58666" lon="-3.83925">
        <ele>12.8</ele>
        <time>2020-06-10T11:48:07Z</time>
      </trkpt>
      <trkpt lat="48.58669" lon="-3.83913">
        <ele>12.2</ele>
        <time>2020-06-10T11:48:08Z</time>
      </trkpt>
      <trkpt lat="48.58673" lon="-3.83901">
        <ele>11.5</ele>
        <time>2020-06-10T11:48:09Z</time>
      </trkpt>
      <trkpt lat="48.58677" lon="-3.83889">
        <ele>11</ele>
        <time>2020-06-10T11:48:10Z</time>
      </trkpt>
      <trkpt lat="48.5868" lon="-3.83877">
        <ele>10.5</ele>
        <time>2020-06-10T11:48:11Z</time>
      </trkpt>
      <trkpt lat="48.58683" lon="-3.83865">
        <ele>10</ele>
        <time>2020-06-10T11:48:12Z</time>
      </trkpt>
      <trkpt lat="48.58685" lon="-3.83854">
        <ele>9.7</ele>
        <time>2020-06-10T11:48:13Z</time>
      </trkpt>
      <trkpt lat="48.58688" lon="-3.83844">
        <ele>9.4</ele>
        <time>2020-06-10T11:48:14Z</time>
      </trkpt>
      <trkpt lat="48.5869" lon="-3.83835">
        <ele>9.1</ele>
        <time>2020-06-10T11:48:15Z</time>
      </trkpt>
      <trkpt lat="48.5869" lon="-3.83824">
        <ele>8.8</ele>
        <time>2020-06-10T11:48:16Z</time>
      </trkpt>
      <trkpt lat="48.58691" lon="-3.83813">
        <ele>8.6</ele>
        <time>2020-06-10T11:48:17Z</time>
      </trkpt>
      <trkpt lat="48.5869" lon="-3.83802">
        <ele>8.4</ele>
        <time>2020-06-10T11:48:18Z</time>
      </trkpt>
      <trkpt lat="48.58689" lon="-3.83792">
        <ele>8.2</ele>
        <time>2020-06-10T11:48:19Z</time>
      </trkpt>
      <trkpt lat="48.58686" lon="-3.83785">
        <ele>7.9</ele>
        <time>2020-06-10T11:48:20Z</time>
      </trkpt>
      <trkpt lat="48.58684" lon="-3.83779">
        <ele>7.6</ele>
        <time>2020-06-10T11:48:21Z</time>
      </trkpt>
      <trkpt lat="48.58682" lon="-3.83775">
        <ele>7.4</ele>
        <time>2020-06-10T11:48:22Z</time>
      </trkpt>
      <trkpt lat="48.58681" lon="-3.83771">
        <ele>6.9</ele>
        <time>2020-06-10T11:48:23Z</time>
      </trkpt>
      <trkpt lat="48.5868" lon="-3.83767">
        <ele>7</ele>
        <time>2020-06-10T11:48:24Z</time>
      </trkpt>
      <trkpt lat="48.58678" lon="-3.83764">
        <ele>7</ele>
        <time>2020-06-10T11:48:25Z</time>
      </trkpt>
      <trkpt lat="48.58675" lon="-3.83762">
        <ele>7</ele>
        <time>2020-06-10T11:48:26Z</time>
      </trkpt>
      <trkpt lat="48.58672" lon="-3.8376">
        <ele>7</ele>
        <time>2020-06-10T11:48:27Z</time>
      </trkpt>
      <trkpt lat="48.58668" lon="-3.83757">
        <ele>7</ele>
        <time>2020-06-10T11:48:28Z</time>
      </trkpt>
      <trkpt lat="48.58664" lon="-3.83754">
        <ele>7</ele>
        <time>2020-06-10T11:48:29Z</time>
      </trkpt>
      <trkpt lat="48.5866" lon="-3.83751">
        <ele>7</ele>
        <time>2020-06-10T11:48:30Z</time>
      </trkpt>
      <trkpt lat="48.58656" lon="-3.83746">
        <ele>7</ele>
        <time>2020-06-10T11:48:31Z</time>
      </trkpt>
      <trkpt lat="48.58653" lon="-3.83744">
        <ele>7</ele>
        <time>2020-06-10T11:48:32Z</time>
      </trkpt>
      <trkpt lat="48.58649" lon="-3.83742">
        <ele>7</ele>
        <time>2020-06-10T11:48:33Z</time>
      </trkpt>
      <trkpt lat="48.58646" lon="-3.8374">
        <ele>7</ele>
        <time>2020-06-10T11:48:34Z</time>
      </trkpt>
      <trkpt lat="48.58642" lon="-3.83738">
        <ele>7</ele>
        <time>2020-06-10T11:48:35Z</time>
      </trkpt>
      <trkpt lat="48.58638" lon="-3.83736">
        <ele>6.9</ele>
        <time>2020-06-10T11:48:36Z</time>
      </trkpt>
      <trkpt lat="48.58635" lon="-3.83734">
        <ele>6.9</ele>
        <time>2020-06-10T11:48:37Z</time>
      </trkpt>
      <trkpt lat="48.58631" lon="-3.83732">
        <ele>6.9</ele>
        <time>2020-06-10T11:48:38Z</time>
      </trkpt>
      <trkpt lat="48.58628" lon="-3.8373">
        <ele>6.9</ele>
        <time>2020-06-10T11:48:39Z</time>
      </trkpt>
      <trkpt lat="48.58625" lon="-3.83727">
        <ele>6.9</ele>
        <time>2020-06-10T11:48:40Z</time>
      </trkpt>
      <trkpt lat="48.58621" lon="-3.83725">
        <ele>6.9</ele>
        <time>2020-06-10T11:48:41Z</time>
      </trkpt>
      <trkpt lat="48.58616" lon="-3.83722">
        <ele>6.8</ele>
        <time>2020-06-10T11:48:42Z</time>
      </trkpt>
      <trkpt lat="48.58612" lon="-3.83721">
        <ele>6.8</ele>
        <time>2020-06-10T11:48:43Z</time>
      </trkpt>
      <trkpt lat="48.58607" lon="-3.8372">
        <ele>6.8</ele>
        <time>2020-06-10T11:48:44Z</time>
      </trkpt>
      <trkpt lat="48.58602" lon="-3.8372">
        <ele>6.8</ele>
        <time>2020-06-10T11:48:45Z</time>
      </trkpt>
      <trkpt lat="48.58597" lon="-3.83719">
        <ele>6.8</ele>
        <time>2020-06-10T11:48:46Z</time>
      </trkpt>
      <trkpt lat="48.58592" lon="-3.83718">
        <ele>6.8</ele>
        <time>2020-06-10T11:48:47Z</time>
      </trkpt>
      <trkpt lat="48.58587" lon="-3.83719">
        <ele>6.8</ele>
        <time>2020-06-10T11:48:48Z</time>
      </trkpt>
      <trkpt lat="48.58581" lon="-3.8372">
        <ele>6.8</ele>
        <time>2020-06-10T11:48:49Z</time>
      </trkpt>
      <trkpt lat="48.58576" lon="-3.8372">
        <ele>6.8</ele>
        <time>2020-06-10T11:48:50Z</time>
      </trkpt>
      <trkpt lat="48.58571" lon="-3.83719">
        <ele>6.8</ele>
        <time>2020-06-10T11:48:51Z</time>
      </trkpt>
      <trkpt lat="48.58566" lon="-3.83717">
        <ele>6.9</ele>
        <time>2020-06-10T11:48:52Z</time>
      </trkpt>
      <trkpt lat="48.58562" lon="-3.83716">
        <ele>6.9</ele>
        <time>2020-06-10T11:48:53Z</time>
      </trkpt>
      <trkpt lat="48.58557" lon="-3.83714">
        <ele>6.9</ele>
        <time>2020-06-10T11:48:54Z</time>
      </trkpt>
      <trkpt lat="48.58553" lon="-3.83712">
        <ele>7</ele>
        <time>2020-06-10T11:48:55Z</time>
      </trkpt>
      <trkpt lat="48.58549" lon="-3.8371">
        <ele>7</ele>
        <time>2020-06-10T11:48:56Z</time>
      </trkpt>
      <trkpt lat="48.58545" lon="-3.83708">
        <ele>7.1</ele>
        <time>2020-06-10T11:48:57Z</time>
      </trkpt>
      <trkpt lat="48.5854" lon="-3.83705">
        <ele>7.2</ele>
        <time>2020-06-10T11:48:58Z</time>
      </trkpt>
      <trkpt lat="48.58536" lon="-3.837">
        <ele>7.3</ele>
        <time>2020-06-10T11:48:59Z</time>
      </trkpt>
      <trkpt lat="48.58532" lon="-3.83698">
        <ele>7.3</ele>
        <time>2020-06-10T11:49:00Z</time>
      </trkpt>
      <trkpt lat="48.58528" lon="-3.83693">
        <ele>7.4</ele>
        <time>2020-06-10T11:49:01Z</time>
      </trkpt>
      <trkpt lat="48.58524" lon="-3.8369">
        <ele>7.5</ele>
        <time>2020-06-10T11:49:02Z</time>
      </trkpt>
      <trkpt lat="48.58519" lon="-3.83686">
        <ele>7.6</ele>
        <time>2020-06-10T11:49:03Z</time>
      </trkpt>
      <trkpt lat="48.58515" lon="-3.83682">
        <ele>7.7</ele>
        <time>2020-06-10T11:49:04Z</time>
      </trkpt>
      <trkpt lat="48.58511" lon="-3.83679">
        <ele>7.7</ele>
        <time>2020-06-10T11:49:05Z</time>
      </trkpt>
      <trkpt lat="48.58508" lon="-3.83676">
        <ele>7.8</ele>
        <time>2020-06-10T11:49:06Z</time>
      </trkpt>
      <trkpt lat="48.58504" lon="-3.83674">
        <ele>7.9</ele>
        <time>2020-06-10T11:49:07Z</time>
      </trkpt>
      <trkpt lat="48.58501" lon="-3.8367">
        <ele>8</ele>
        <time>2020-06-10T11:49:08Z</time>
      </trkpt>
      <trkpt lat="48.58498" lon="-3.83667">
        <ele>8</ele>
        <time>2020-06-10T11:49:09Z</time>
      </trkpt>
      <trkpt lat="48.58494" lon="-3.83667">
        <ele>8.2</ele>
        <time>2020-06-10T11:49:10Z</time>
      </trkpt>
      <trkpt lat="48.58492" lon="-3.83664">
        <ele>8.3</ele>
        <time>2020-06-10T11:49:11Z</time>
      </trkpt>
      <trkpt lat="48.58489" lon="-3.8366">
        <ele>8.3</ele>
        <time>2020-06-10T11:49:12Z</time>
      </trkpt>
      <trkpt lat="48.58487" lon="-3.83656">
        <ele>8.1</ele>
        <time>2020-06-10T11:49:13Z</time>
      </trkpt>
      <trkpt lat="48.58484" lon="-3.83653">
        <ele>8.1</ele>
        <time>2020-06-10T11:49:14Z</time>
      </trkpt>
      <trkpt lat="48.58481" lon="-3.8365">
        <ele>8</ele>
        <time>2020-06-10T11:49:15Z</time>
      </trkpt>
      <trkpt lat="48.58478" lon="-3.83647">
        <ele>8</ele>
        <time>2020-06-10T11:49:16Z</time>
      </trkpt>
      <trkpt lat="48.58475" lon="-3.83645">
        <ele>7.9</ele>
        <time>2020-06-10T11:49:17Z</time>
      </trkpt>
      <trkpt lat="48.58471" lon="-3.83642">
        <ele>7.9</ele>
        <time>2020-06-10T11:49:18Z</time>
      </trkpt>
      <trkpt lat="48.58467" lon="-3.8364">
        <ele>7.8</ele>
        <time>2020-06-10T11:49:19Z</time>
      </trkpt>
      <trkpt lat="48.58463" lon="-3.83637">
        <ele>7.8</ele>
        <time>2020-06-10T11:49:20Z</time>
      </trkpt>
      <trkpt lat="48.5846" lon="-3.83634">
        <ele>7.7</ele>
        <time>2020-06-10T11:49:21Z</time>
      </trkpt>
      <trkpt lat="48.58456" lon="-3.83631">
        <ele>7.7</ele>
        <time>2020-06-10T11:49:22Z</time>
      </trkpt>
      <trkpt lat="48.58452" lon="-3.83628">
        <ele>7.6</ele>
        <time>2020-06-10T11:49:23Z</time>
      </trkpt>
      <trkpt lat="48.58449" lon="-3.83625">
        <ele>7.6</ele>
        <time>2020-06-10T11:49:24Z</time>
      </trkpt>
      <trkpt lat="48.58445" lon="-3.83622">
        <ele>7.5</ele>
        <time>2020-06-10T11:49:25Z</time>
      </trkpt>
      <trkpt lat="48.58442" lon="-3.83618">
        <ele>7.5</ele>
        <time>2020-06-10T11:49:26Z</time>
      </trkpt>
      <trkpt lat="48.58439" lon="-3.83613">
        <ele>7.4</ele>
        <time>2020-06-10T11:49:27Z</time>
      </trkpt>
      <trkpt lat="48.58437" lon="-3.83607">
        <ele>7.2</ele>
        <time>2020-06-10T11:49:28Z</time>
      </trkpt>
      <trkpt lat="48.58436" lon="-3.836">
        <ele>7.1</ele>
        <time>2020-06-10T11:49:29Z</time>
      </trkpt>
      <trkpt lat="48.58435" lon="-3.83593">
        <ele>7</ele>
        <time>2020-06-10T11:49:30Z</time>
      </trkpt>
      <trkpt lat="48.58434" lon="-3.83585">
        <ele>6.8</ele>
        <time>2020-06-10T11:49:31Z</time>
      </trkpt>
      <trkpt lat="48.58433" lon="-3.83577">
        <ele>6.7</ele>
        <time>2020-06-10T11:49:32Z</time>
      </trkpt>
      <trkpt lat="48.58433" lon="-3.83569">
        <ele>6.5</ele>
        <time>2020-06-10T11:49:33Z</time>
      </trkpt>
      <trkpt lat="48.58433" lon="-3.83561">
        <ele>6.4</ele>
        <time>2020-06-10T11:49:34Z</time>
      </trkpt>
      <trkpt lat="48.58433" lon="-3.83553">
        <ele>6.2</ele>
        <time>2020-06-10T11:49:35Z</time>
      </trkpt>
      <trkpt lat="48.58433" lon="-3.83544">
        <ele>6.1</ele>
        <time>2020-06-10T11:49:36Z</time>
      </trkpt>
      <trkpt lat="48.58433" lon="-3.83536">
        <ele>6</ele>
        <time>2020-06-10T11:49:37Z</time>
      </trkpt>
      <trkpt lat="48.58432" lon="-3.83528">
        <ele>5.8</ele>
        <time>2020-06-10T11:49:38Z</time>
      </trkpt>
      <trkpt lat="48.58431" lon="-3.8352">
        <ele>5.6</ele>
        <time>2020-06-10T11:49:39Z</time>
      </trkpt>
      <trkpt lat="48.58427" lon="-3.83512">
        <ele>5.4</ele>
        <time>2020-06-10T11:49:40Z</time>
      </trkpt>
      <trkpt lat="48.58422" lon="-3.83507">
        <ele>5.2</ele>
        <time>2020-06-10T11:49:41Z</time>
      </trkpt>
      <trkpt lat="48.58417" lon="-3.83502">
        <ele>5.3</ele>
        <time>2020-06-10T11:49:42Z</time>
      </trkpt>
      <trkpt lat="48.58411" lon="-3.83497">
        <ele>5.2</ele>
        <time>2020-06-10T11:49:43Z</time>
      </trkpt>
      <trkpt lat="48.58406" lon="-3.83492">
        <ele>5.2</ele>
        <time>2020-06-10T11:49:44Z</time>
      </trkpt>
      <trkpt lat="48.58401" lon="-3.83488">
        <ele>5.2</ele>
        <time>2020-06-10T11:49:45Z</time>
      </trkpt>
      <trkpt lat="48.58396" lon="-3.83484">
        <ele>5.1</ele>
        <time>2020-06-10T11:49:46Z</time>
      </trkpt>
      <trkpt lat="48.58391" lon="-3.83481">
        <ele>5.1</ele>
        <time>2020-06-10T11:49:47Z</time>
      </trkpt>
      <trkpt lat="48.58388" lon="-3.83478">
        <ele>5.1</ele>
        <time>2020-06-10T11:49:48Z</time>
      </trkpt>
      <trkpt lat="48.58384" lon="-3.83475">
        <ele>5.1</ele>
        <time>2020-06-10T11:49:49Z</time>
      </trkpt>
      <trkpt lat="48.5838" lon="-3.83471">
        <ele>5.1</ele>
        <time>2020-06-10T11:49:50Z</time>
      </trkpt>
      <trkpt lat="48.58376" lon="-3.83468">
        <ele>5.1</ele>
        <time>2020-06-10T11:49:51Z</time>
      </trkpt>
      <trkpt lat="48.58371" lon="-3.83465">
        <ele>5.1</ele>
        <time>2020-06-10T11:49:52Z</time>
      </trkpt>
      <trkpt lat="48.58367" lon="-3.83462">
        <ele>5.1</ele>
        <time>2020-06-10T11:49:53Z</time>
      </trkpt>
      <trkpt lat="48.58362" lon="-3.83458">
        <ele>5.1</ele>
        <time>2020-06-10T11:49:54Z</time>
      </trkpt>
      <trkpt lat="48.58357" lon="-3.83454">
        <ele>5.2</ele>
        <time>2020-06-10T11:49:55Z</time>
      </trkpt>
      <trkpt lat="48.58352" lon="-3.83451">
        <ele>5.2</ele>
        <time>2020-06-10T11:49:56Z</time>
      </trkpt>
      <trkpt lat="48.58347" lon="-3.83448">
        <ele>5.3</ele>
        <time>2020-06-10T11:49:57Z</time>
      </trkpt>
      <trkpt lat="48.58342" lon="-3.83443">
        <ele>5.3</ele>
        <time>2020-06-10T11:49:58Z</time>
      </trkpt>
      <trkpt lat="48.58337" lon="-3.83439">
        <ele>5.4</ele>
        <time>2020-06-10T11:49:59Z</time>
      </trkpt>
      <trkpt lat="48.58333" lon="-3.83435">
        <ele>5.4</ele>
        <time>2020-06-10T11:50:00Z</time>
      </trkpt>
      <trkpt lat="48.58328" lon="-3.83432">
        <ele>5.5</ele>
        <time>2020-06-10T11:50:01Z</time>
      </trkpt>
      <trkpt lat="48.58324" lon="-3.83427">
        <ele>5.5</ele>
        <time>2020-06-10T11:50:02Z</time>
      </trkpt>
      <trkpt lat="48.58319" lon="-3.83423">
        <ele>5.5</ele>
        <time>2020-06-10T11:50:03Z</time>
      </trkpt>
      <trkpt lat="48.58314" lon="-3.83419">
        <ele>5.6</ele>
        <time>2020-06-10T11:50:04Z</time>
      </trkpt>
      <trkpt lat="48.58309" lon="-3.83415">
        <ele>5.6</ele>
        <time>2020-06-10T11:50:05Z</time>
      </trkpt>
      <trkpt lat="48.58304" lon="-3.83411">
        <ele>5.7</ele>
        <time>2020-06-10T11:50:06Z</time>
      </trkpt>
      <trkpt lat="48.58299" lon="-3.83406">
        <ele>5.7</ele>
        <time>2020-06-10T11:50:07Z</time>
      </trkpt>
      <trkpt lat="48.58294" lon="-3.83402">
        <ele>5.7</ele>
        <time>2020-06-10T11:50:08Z</time>
      </trkpt>
      <trkpt lat="48.58289" lon="-3.83398">
        <ele>5.8</ele>
        <time>2020-06-10T11:50:09Z</time>
      </trkpt>
      <trkpt lat="48.58284" lon="-3.83395">
        <ele>5.8</ele>
        <time>2020-06-10T11:50:10Z</time>
      </trkpt>
      <trkpt lat="48.5828" lon="-3.8339">
        <ele>5.8</ele>
        <time>2020-06-10T11:50:11Z</time>
      </trkpt>
      <trkpt lat="48.58276" lon="-3.83387">
        <ele>5.8</ele>
        <time>2020-06-10T11:50:12Z</time>
      </trkpt>
      <trkpt lat="48.58272" lon="-3.83384">
        <ele>5.9</ele>
        <time>2020-06-10T11:50:13Z</time>
      </trkpt>
      <trkpt lat="48.58269" lon="-3.8338">
        <ele>5.8</ele>
        <time>2020-06-10T11:50:14Z</time>
      </trkpt>
      <trkpt lat="48.58266" lon="-3.83377">
        <ele>5.8</ele>
        <time>2020-06-10T11:50:15Z</time>
      </trkpt>
      <trkpt lat="48.58262" lon="-3.83374">
        <ele>5.8</ele>
        <time>2020-06-10T11:50:16Z</time>
      </trkpt>
      <trkpt lat="48.58258" lon="-3.83371">
        <ele>5.8</ele>
        <time>2020-06-10T11:50:17Z</time>
      </trkpt>
      <trkpt lat="48.58254" lon="-3.83367">
        <ele>5.8</ele>
        <time>2020-06-10T11:50:18Z</time>
      </trkpt>
      <trkpt lat="48.5825" lon="-3.83365">
        <ele>5.8</ele>
        <time>2020-06-10T11:50:19Z</time>
      </trkpt>
      <trkpt lat="48.58247" lon="-3.83361">
        <ele>5.7</ele>
        <time>2020-06-10T11:50:20Z</time>
      </trkpt>
      <trkpt lat="48.58243" lon="-3.83358">
        <ele>5.7</ele>
        <time>2020-06-10T11:50:21Z</time>
      </trkpt>
      <trkpt lat="48.58239" lon="-3.83354">
        <ele>5.7</ele>
        <time>2020-06-10T11:50:22Z</time>
      </trkpt>
      <trkpt lat="48.58235" lon="-3.83351">
        <ele>5.7</ele>
        <time>2020-06-10T11:50:23Z</time>
      </trkpt>
      <trkpt lat="48.5823" lon="-3.83347">
        <ele>5.7</ele>
        <time>2020-06-10T11:50:24Z</time>
      </trkpt>
      <trkpt lat="48.58226" lon="-3.83343">
        <ele>5.7</ele>
        <time>2020-06-10T11:50:25Z</time>
      </trkpt>
      <trkpt lat="48.58222" lon="-3.83339">
        <ele>5.7</ele>
        <time>2020-06-10T11:50:26Z</time>
      </trkpt>
      <trkpt lat="48.58219" lon="-3.83335">
        <ele>5.7</ele>
        <time>2020-06-10T11:50:27Z</time>
      </trkpt>
      <trkpt lat="48.58214" lon="-3.83331">
        <ele>5.7</ele>
        <time>2020-06-10T11:50:28Z</time>
      </trkpt>
      <trkpt lat="48.5821" lon="-3.83327">
        <ele>5.7</ele>
        <time>2020-06-10T11:50:29Z</time>
      </trkpt>
      <trkpt lat="48.58206" lon="-3.83324">
        <ele>5.8</ele>
        <time>2020-06-10T11:50:30Z</time>
      </trkpt>
      <trkpt lat="48.58202" lon="-3.83321">
        <ele>5.8</ele>
        <time>2020-06-10T11:50:31Z</time>
      </trkpt>
      <trkpt lat="48.58198" lon="-3.83318">
        <ele>5.8</ele>
        <time>2020-06-10T11:50:32Z</time>
      </trkpt>
      <trkpt lat="48.58194" lon="-3.83315">
        <ele>5.8</ele>
        <time>2020-06-10T11:50:33Z</time>
      </trkpt>
      <trkpt lat="48.5819" lon="-3.8331">
        <ele>5.9</ele>
        <time>2020-06-10T11:50:34Z</time>
      </trkpt>
      <trkpt lat="48.58186" lon="-3.83307">
        <ele>5.8</ele>
        <time>2020-06-10T11:50:35Z</time>
      </trkpt>
      <trkpt lat="48.58182" lon="-3.83303">
        <ele>5.7</ele>
        <time>2020-06-10T11:50:36Z</time>
      </trkpt>
      <trkpt lat="48.5818" lon="-3.83299">
        <ele>5.7</ele>
        <time>2020-06-10T11:50:37Z</time>
      </trkpt>
      <trkpt lat="48.58178" lon="-3.83293">
        <ele>5.6</ele>
        <time>2020-06-10T11:50:38Z</time>
      </trkpt>
      <trkpt lat="48.58175" lon="-3.83288">
        <ele>5.6</ele>
        <time>2020-06-10T11:50:39Z</time>
      </trkpt>
      <trkpt lat="48.58173" lon="-3.83282">
        <ele>5.7</ele>
        <time>2020-06-10T11:50:40Z</time>
      </trkpt>
      <trkpt lat="48.5817" lon="-3.83276">
        <ele>5.8</ele>
        <time>2020-06-10T11:50:41Z</time>
      </trkpt>
      <trkpt lat="48.58167" lon="-3.8327">
        <ele>5.9</ele>
        <time>2020-06-10T11:50:42Z</time>
      </trkpt>
      <trkpt lat="48.58165" lon="-3.83264">
        <ele>6</ele>
        <time>2020-06-10T11:50:43Z</time>
      </trkpt>
      <trkpt lat="48.58162" lon="-3.83258">
        <ele>6.2</ele>
        <time>2020-06-10T11:50:44Z</time>
      </trkpt>
      <trkpt lat="48.58159" lon="-3.83253">
        <ele>6.3</ele>
        <time>2020-06-10T11:50:45Z</time>
      </trkpt>
      <trkpt lat="48.58156" lon="-3.83248">
        <ele>6.4</ele>
        <time>2020-06-10T11:50:46Z</time>
      </trkpt>
      <trkpt lat="48.58154" lon="-3.83242">
        <ele>6.5</ele>
        <time>2020-06-10T11:50:47Z</time>
      </trkpt>
      <trkpt lat="48.58151" lon="-3.83237">
        <ele>6.6</ele>
        <time>2020-06-10T11:50:48Z</time>
      </trkpt>
      <trkpt lat="48.58149" lon="-3.83232">
        <ele>6.7</ele>
        <time>2020-06-10T11:50:49Z</time>
      </trkpt>
      <trkpt lat="48.58146" lon="-3.83227">
        <ele>6.8</ele>
        <time>2020-06-10T11:50:50Z</time>
      </trkpt>
      <trkpt lat="48.58143" lon="-3.83222">
        <ele>6.9</ele>
        <time>2020-06-10T11:50:51Z</time>
      </trkpt>
      <trkpt lat="48.58139" lon="-3.83217">
        <ele>7</ele>
        <time>2020-06-10T11:50:52Z</time>
      </trkpt>
      <trkpt lat="48.58136" lon="-3.83212">
        <ele>7.3</ele>
        <time>2020-06-10T11:50:53Z</time>
      </trkpt>
      <trkpt lat="48.58132" lon="-3.83207">
        <ele>7.4</ele>
        <time>2020-06-10T11:50:54Z</time>
      </trkpt>
      <trkpt lat="48.58129" lon="-3.83203">
        <ele>7.6</ele>
        <time>2020-06-10T11:50:55Z</time>
      </trkpt>
      <trkpt lat="48.58126" lon="-3.83198">
        <ele>7.7</ele>
        <time>2020-06-10T11:50:56Z</time>
      </trkpt>
      <trkpt lat="48.58124" lon="-3.83195">
        <ele>7.7</ele>
        <time>2020-06-10T11:50:57Z</time>
      </trkpt>
      <trkpt lat="48.58121" lon="-3.83191">
        <ele>7.8</ele>
        <time>2020-06-10T11:50:58Z</time>
      </trkpt>
      <trkpt lat="48.58118" lon="-3.83187">
        <ele>7.9</ele>
        <time>2020-06-10T11:50:59Z</time>
      </trkpt>
      <trkpt lat="48.58115" lon="-3.83182">
        <ele>7.9</ele>
        <time>2020-06-10T11:51:00Z</time>
      </trkpt>
      <trkpt lat="48.58113" lon="-3.83178">
        <ele>8</ele>
        <time>2020-06-10T11:51:01Z</time>
      </trkpt>
      <trkpt lat="48.5811" lon="-3.83173">
        <ele>8</ele>
        <time>2020-06-10T11:51:02Z</time>
      </trkpt>
      <trkpt lat="48.58108" lon="-3.83169">
        <ele>8.1</ele>
        <time>2020-06-10T11:51:03Z</time>
      </trkpt>
      <trkpt lat="48.58106" lon="-3.83163">
        <ele>8.1</ele>
        <time>2020-06-10T11:51:04Z</time>
      </trkpt>
      <trkpt lat="48.58102" lon="-3.8316">
        <ele>8.2</ele>
        <time>2020-06-10T11:51:05Z</time>
      </trkpt>
      <trkpt lat="48.581" lon="-3.83156">
        <ele>8.2</ele>
        <time>2020-06-10T11:51:06Z</time>
      </trkpt>
      <trkpt lat="48.58097" lon="-3.83152">
        <ele>8.3</ele>
        <time>2020-06-10T11:51:07Z</time>
      </trkpt>
      <trkpt lat="48.58094" lon="-3.83148">
        <ele>8.3</ele>
        <time>2020-06-10T11:51:08Z</time>
      </trkpt>
      <trkpt lat="48.58092" lon="-3.83143">
        <ele>8.4</ele>
        <time>2020-06-10T11:51:09Z</time>
      </trkpt>
      <trkpt lat="48.5809" lon="-3.8314">
        <ele>8.4</ele>
        <time>2020-06-10T11:51:10Z</time>
      </trkpt>
      <trkpt lat="48.58088" lon="-3.83136">
        <ele>8.5</ele>
        <time>2020-06-10T11:51:11Z</time>
      </trkpt>
      <trkpt lat="48.58085" lon="-3.83133">
        <ele>8.5</ele>
        <time>2020-06-10T11:51:12Z</time>
      </trkpt>
      <trkpt lat="48.58083" lon="-3.83128">
        <ele>8.6</ele>
        <time>2020-06-10T11:51:13Z</time>
      </trkpt>
      <trkpt lat="48.58081" lon="-3.83124">
        <ele>8.6</ele>
        <time>2020-06-10T11:51:14Z</time>
      </trkpt>
      <trkpt lat="48.58078" lon="-3.83119">
        <ele>8.6</ele>
        <time>2020-06-10T11:51:15Z</time>
      </trkpt>
      <trkpt lat="48.58075" lon="-3.83115">
        <ele>8.7</ele>
        <time>2020-06-10T11:51:16Z</time>
      </trkpt>
      <trkpt lat="48.58072" lon="-3.83111">
        <ele>8.7</ele>
        <time>2020-06-10T11:51:17Z</time>
      </trkpt>
      <trkpt lat="48.5807" lon="-3.83107">
        <ele>8.8</ele>
        <time>2020-06-10T11:51:18Z</time>
      </trkpt>
      <trkpt lat="48.58067" lon="-3.83103">
        <ele>8.8</ele>
        <time>2020-06-10T11:51:19Z</time>
      </trkpt>
      <trkpt lat="48.58064" lon="-3.83099">
        <ele>8.9</ele>
        <time>2020-06-10T11:51:20Z</time>
      </trkpt>
      <trkpt lat="48.58062" lon="-3.83094">
        <ele>8.9</ele>
        <time>2020-06-10T11:51:21Z</time>
      </trkpt>
      <trkpt lat="48.58059" lon="-3.83091">
        <ele>9</ele>
        <time>2020-06-10T11:51:22Z</time>
      </trkpt>
      <trkpt lat="48.58056" lon="-3.83087">
        <ele>9</ele>
        <time>2020-06-10T11:51:23Z</time>
      </trkpt>
      <trkpt lat="48.58053" lon="-3.83084">
        <ele>9</ele>
        <time>2020-06-10T11:51:24Z</time>
      </trkpt>
      <trkpt lat="48.58051" lon="-3.83079">
        <ele>9.1</ele>
        <time>2020-06-10T11:51:25Z</time>
      </trkpt>
      <trkpt lat="48.58048" lon="-3.83076">
        <ele>9.1</ele>
        <time>2020-06-10T11:51:26Z</time>
      </trkpt>
      <trkpt lat="48.58045" lon="-3.83073">
        <ele>9.1</ele>
        <time>2020-06-10T11:51:27Z</time>
      </trkpt>
      <trkpt lat="48.58041" lon="-3.83071">
        <ele>9.2</ele>
        <time>2020-06-10T11:51:28Z</time>
      </trkpt>
      <trkpt lat="48.58038" lon="-3.83069">
        <ele>9.2</ele>
        <time>2020-06-10T11:51:29Z</time>
      </trkpt>
      <trkpt lat="48.58035" lon="-3.83066">
        <ele>9.2</ele>
        <time>2020-06-10T11:51:30Z</time>
      </trkpt>
      <trkpt lat="48.58031" lon="-3.83065">
        <ele>9.2</ele>
        <time>2020-06-10T11:51:31Z</time>
      </trkpt>
      <trkpt lat="48.58029" lon="-3.83063">
        <ele>9.2</ele>
        <time>2020-06-10T11:51:32Z</time>
      </trkpt>
      <trkpt lat="48.58027" lon="-3.8306">
        <ele>9.2</ele>
        <time>2020-06-10T11:51:33Z</time>
      </trkpt>
      <trkpt lat="48.58023" lon="-3.83058">
        <ele>9.2</ele>
        <time>2020-06-10T11:51:34Z</time>
      </trkpt>
      <trkpt lat="48.58022" lon="-3.83058">
        <ele>9.2</ele>
        <time>2020-06-10T11:51:35Z</time>
      </trkpt>
      <trkpt lat="48.58022" lon="-3.83057">
        <ele>9.2</ele>
        <time>2020-06-10T11:51:36Z</time>
      </trkpt>
      <trkpt lat="48.58021" lon="-3.83056">
        <ele>9.2</ele>
        <time>2020-06-10T11:51:37Z</time>
      </trkpt>
      <trkpt lat="48.58021" lon="-3.83056">
        <ele>9.2</ele>
        <time>2020-06-10T11:51:38Z</time>
      </trkpt>
      <trkpt lat="48.58021" lon="-3.83055">
        <ele>9.2</ele>
        <time>2020-06-10T11:51:39Z</time>
      </trkpt>
      <trkpt lat="48.5802" lon="-3.83055">
        <ele>9.2</ele>
        <time>2020-06-10T11:51:40Z</time>
      </trkpt>
      <trkpt lat="48.58019" lon="-3.83054">
        <ele>9.2</ele>
        <time>2020-06-10T11:51:41Z</time>
      </trkpt>
      <trkpt lat="48.58019" lon="-3.83053">
        <ele>9.2</ele>
        <time>2020-06-10T11:51:42Z</time>
      </trkpt>
      <trkpt lat="48.58018" lon="-3.83053">
        <ele>9.2</ele>
        <time>2020-06-10T11:51:43Z</time>
      </trkpt>
      <trkpt lat="48.58017" lon="-3.83052">
        <ele>9.2</ele>
        <time>2020-06-10T11:51:44Z</time>
      </trkpt>
      <trkpt lat="48.58017" lon="-3.83052">
        <ele>9.2</ele>
        <time>2020-06-10T11:51:45Z</time>
      </trkpt>
      <trkpt lat="48.58016" lon="-3.83051">
        <ele>9.2</ele>
        <time>2020-06-10T11:51:46Z</time>
      </trkpt>
      <trkpt lat="48.58015" lon="-3.8305">
        <ele>9.2</ele>
        <time>2020-06-10T11:51:47Z</time>
      </trkpt>
      <trkpt lat="48.58015" lon="-3.8305">
        <ele>9.2</ele>
        <time>2020-06-10T11:51:48Z</time>
      </trkpt>
      <trkpt lat="48.58014" lon="-3.83049">
        <ele>9.2</ele>
        <time>2020-06-10T11:51:49Z</time>
      </trkpt>
      <trkpt lat="48.58013" lon="-3.83049">
        <ele>9.2</ele>
        <time>2020-06-10T11:51:50Z</time>
      </trkpt>
      <trkpt lat="48.58013" lon="-3.83048">
        <ele>9.2</ele>
        <time>2020-06-10T11:51:51Z</time>
      </trkpt>
      <trkpt lat="48.58012" lon="-3.83047">
        <ele>9.2</ele>
        <time>2020-06-10T11:51:52Z</time>
      </trkpt>
      <trkpt lat="48.58012" lon="-3.83047">
        <ele>9.2</ele>
        <time>2020-06-10T11:51:53Z</time>
      </trkpt>
      <trkpt lat="48.58011" lon="-3.83046">
        <ele>9.2</ele>
        <time>2020-06-10T11:51:54Z</time>
      </trkpt>
      <trkpt lat="48.5801" lon="-3.83046">
        <ele>9.2</ele>
        <time>2020-06-10T11:51:55Z</time>
      </trkpt>
      <trkpt lat="48.5801" lon="-3.83045">
        <ele>9.2</ele>
        <time>2020-06-10T11:51:56Z</time>
      </trkpt>
      <trkpt lat="48.58009" lon="-3.83045">
        <ele>9.2</ele>
        <time>2020-06-10T11:51:57Z</time>
      </trkpt>
      <trkpt lat="48.58008" lon="-3.83044">
        <ele>9.2</ele>
        <time>2020-06-10T11:53:53Z</time>
      </trkpt>
      <trkpt lat="48.58008" lon="-3.83043">
        <ele>9.2</ele>
        <time>2020-06-10T11:53:54Z</time>
      </trkpt>
      <trkpt lat="48.58005" lon="-3.83041">
        <ele>9.2</ele>
        <time>2020-06-10T11:53:55Z</time>
      </trkpt>
      <trkpt lat="48.58001" lon="-3.83038">
        <ele>9.2</ele>
        <time>2020-06-10T11:53:56Z</time>
      </trkpt>
      <trkpt lat="48.57998" lon="-3.83034">
        <ele>9.2</ele>
        <time>2020-06-10T11:53:57Z</time>
      </trkpt>
      <trkpt lat="48.57997" lon="-3.83033">
        <ele>9.3</ele>
        <time>2020-06-10T11:53:58Z</time>
      </trkpt>
      <trkpt lat="48.57995" lon="-3.8303">
        <ele>9.3</ele>
        <time>2020-06-10T11:53:59Z</time>
      </trkpt>
      <trkpt lat="48.57991" lon="-3.83027">
        <ele>9.3</ele>
        <time>2020-06-10T11:54:00Z</time>
      </trkpt>
      <trkpt lat="48.5799" lon="-3.83025">
        <ele>9.3</ele>
        <time>2020-06-10T11:54:01Z</time>
      </trkpt>
      <trkpt lat="48.57986" lon="-3.83022">
        <ele>9.2</ele>
        <time>2020-06-10T11:54:02Z</time>
      </trkpt>
      <trkpt lat="48.57982" lon="-3.8302">
        <ele>9.2</ele>
        <time>2020-06-10T11:54:03Z</time>
      </trkpt>
      <trkpt lat="48.57978" lon="-3.83018">
        <ele>9.2</ele>
        <time>2020-06-10T11:54:04Z</time>
      </trkpt>
      <trkpt lat="48.57975" lon="-3.83016">
        <ele>9.2</ele>
        <time>2020-06-10T11:54:05Z</time>
      </trkpt>
      <trkpt lat="48.57971" lon="-3.83015">
        <ele>9.2</ele>
        <time>2020-06-10T11:54:06Z</time>
      </trkpt>
      <trkpt lat="48.57968" lon="-3.83014">
        <ele>9.2</ele>
        <time>2020-06-10T11:54:07Z</time>
      </trkpt>
      <trkpt lat="48.57964" lon="-3.83012">
        <ele>9.2</ele>
        <time>2020-06-10T11:54:08Z</time>
      </trkpt>
      <trkpt lat="48.5796" lon="-3.83009">
        <ele>9.2</ele>
        <time>2020-06-10T11:54:09Z</time>
      </trkpt>
      <trkpt lat="48.57957" lon="-3.83007">
        <ele>9.2</ele>
        <time>2020-06-10T11:54:10Z</time>
      </trkpt>
      <trkpt lat="48.57954" lon="-3.83005">
        <ele>9.2</ele>
        <time>2020-06-10T11:54:11Z</time>
      </trkpt>
      <trkpt lat="48.5795" lon="-3.83003">
        <ele>9.2</ele>
        <time>2020-06-10T11:54:12Z</time>
      </trkpt>
      <trkpt lat="48.57947" lon="-3.83001">
        <ele>9.2</ele>
        <time>2020-06-10T11:54:13Z</time>
      </trkpt>
      <trkpt lat="48.57944" lon="-3.82998">
        <ele>9.2</ele>
        <time>2020-06-10T11:54:14Z</time>
      </trkpt>
      <trkpt lat="48.57941" lon="-3.82996">
        <ele>9.2</ele>
        <time>2020-06-10T11:54:15Z</time>
      </trkpt>
      <trkpt lat="48.57938" lon="-3.82994">
        <ele>9.2</ele>
        <time>2020-06-10T11:54:16Z</time>
      </trkpt>
      <trkpt lat="48.57935" lon="-3.82992">
        <ele>9.2</ele>
        <time>2020-06-10T11:54:17Z</time>
      </trkpt>
      <trkpt lat="48.57933" lon="-3.8299">
        <ele>9.2</ele>
        <time>2020-06-10T11:54:18Z</time>
      </trkpt>
      <trkpt lat="48.5793" lon="-3.82988">
        <ele>9.2</ele>
        <time>2020-06-10T11:54:19Z</time>
      </trkpt>
      <trkpt lat="48.57927" lon="-3.82986">
        <ele>9.2</ele>
        <time>2020-06-10T11:54:20Z</time>
      </trkpt>
      <trkpt lat="48.57924" lon="-3.82984">
        <ele>9.2</ele>
        <time>2020-06-10T11:54:21Z</time>
      </trkpt>
      <trkpt lat="48.57922" lon="-3.82982">
        <ele>9.2</ele>
        <time>2020-06-10T11:54:22Z</time>
      </trkpt>
      <trkpt lat="48.57918" lon="-3.82979">
        <ele>9.2</ele>
        <time>2020-06-10T11:54:23Z</time>
      </trkpt>
      <trkpt lat="48.57915" lon="-3.82977">
        <ele>9.2</ele>
        <time>2020-06-10T11:54:24Z</time>
      </trkpt>
      <trkpt lat="48.57912" lon="-3.82975">
        <ele>9.2</ele>
        <time>2020-06-10T11:54:25Z</time>
      </trkpt>
      <trkpt lat="48.57909" lon="-3.82973">
        <ele>9.2</ele>
        <time>2020-06-10T11:54:26Z</time>
      </trkpt>
      <trkpt lat="48.57906" lon="-3.82971">
        <ele>9.2</ele>
        <time>2020-06-10T11:54:27Z</time>
      </trkpt>
      <trkpt lat="48.57902" lon="-3.82968">
        <ele>9.2</ele>
        <time>2020-06-10T11:54:28Z</time>
      </trkpt>
      <trkpt lat="48.57898" lon="-3.82964">
        <ele>9.2</ele>
        <time>2020-06-10T11:54:29Z</time>
      </trkpt>
      <trkpt lat="48.57892" lon="-3.82959">
        <ele>9.2</ele>
        <time>2020-06-10T11:54:30Z</time>
      </trkpt>
      <trkpt lat="48.57887" lon="-3.82955">
        <ele>9.2</ele>
        <time>2020-06-10T11:54:31Z</time>
      </trkpt>
      <trkpt lat="48.57883" lon="-3.82952">
        <ele>9.3</ele>
        <time>2020-06-10T11:54:32Z</time>
      </trkpt>
      <trkpt lat="48.57878" lon="-3.82949">
        <ele>9.4</ele>
        <time>2020-06-10T11:54:33Z</time>
      </trkpt>
      <trkpt lat="48.57874" lon="-3.82946">
        <ele>9.5</ele>
        <time>2020-06-10T11:54:34Z</time>
      </trkpt>
      <trkpt lat="48.5787" lon="-3.82943">
        <ele>9.5</ele>
        <time>2020-06-10T11:54:35Z</time>
      </trkpt>
      <trkpt lat="48.57865" lon="-3.82939">
        <ele>9.5</ele>
        <time>2020-06-10T11:54:36Z</time>
      </trkpt>
      <trkpt lat="48.5786" lon="-3.82935">
        <ele>9.5</ele>
        <time>2020-06-10T11:54:37Z</time>
      </trkpt>
      <trkpt lat="48.57856" lon="-3.82933">
        <ele>9.4</ele>
        <time>2020-06-10T11:54:38Z</time>
      </trkpt>
      <trkpt lat="48.57852" lon="-3.82932">
        <ele>9.4</ele>
        <time>2020-06-10T11:54:39Z</time>
      </trkpt>
      <trkpt lat="48.57849" lon="-3.8293">
        <ele>9.4</ele>
        <time>2020-06-10T11:54:40Z</time>
      </trkpt>
      <trkpt lat="48.57846" lon="-3.82928">
        <ele>9.4</ele>
        <time>2020-06-10T11:54:41Z</time>
      </trkpt>
      <trkpt lat="48.57843" lon="-3.82924">
        <ele>9.4</ele>
        <time>2020-06-10T11:54:42Z</time>
      </trkpt>
      <trkpt lat="48.57841" lon="-3.82923">
        <ele>9.4</ele>
        <time>2020-06-10T11:54:43Z</time>
      </trkpt>
      <trkpt lat="48.57838" lon="-3.82921">
        <ele>9.3</ele>
        <time>2020-06-10T11:54:44Z</time>
      </trkpt>
      <trkpt lat="48.57835" lon="-3.82918">
        <ele>9.3</ele>
        <time>2020-06-10T11:54:45Z</time>
      </trkpt>
      <trkpt lat="48.57831" lon="-3.82916">
        <ele>9.3</ele>
        <time>2020-06-10T11:54:46Z</time>
      </trkpt>
      <trkpt lat="48.57829" lon="-3.82913">
        <ele>9.3</ele>
        <time>2020-06-10T11:54:47Z</time>
      </trkpt>
      <trkpt lat="48.57825" lon="-3.82911">
        <ele>9.3</ele>
        <time>2020-06-10T11:54:48Z</time>
      </trkpt>
      <trkpt lat="48.57822" lon="-3.82909">
        <ele>9.2</ele>
        <time>2020-06-10T11:54:49Z</time>
      </trkpt>
      <trkpt lat="48.57818" lon="-3.82907">
        <ele>9.2</ele>
        <time>2020-06-10T11:54:50Z</time>
      </trkpt>
      <trkpt lat="48.57815" lon="-3.82904">
        <ele>9.2</ele>
        <time>2020-06-10T11:54:51Z</time>
      </trkpt>
      <trkpt lat="48.57812" lon="-3.82902">
        <ele>9.2</ele>
        <time>2020-06-10T11:54:52Z</time>
      </trkpt>
      <trkpt lat="48.57809" lon="-3.829">
        <ele>9.1</ele>
        <time>2020-06-10T11:54:53Z</time>
      </trkpt>
      <trkpt lat="48.57806" lon="-3.82898">
        <ele>9.1</ele>
        <time>2020-06-10T11:54:54Z</time>
      </trkpt>
      <trkpt lat="48.57803" lon="-3.82896">
        <ele>9.1</ele>
        <time>2020-06-10T11:54:55Z</time>
      </trkpt>
      <trkpt lat="48.57801" lon="-3.82893">
        <ele>9.1</ele>
        <time>2020-06-10T11:54:56Z</time>
      </trkpt>
      <trkpt lat="48.57799" lon="-3.82891">
        <ele>9.1</ele>
        <time>2020-06-10T11:54:57Z</time>
      </trkpt>
      <trkpt lat="48.57798" lon="-3.8289">
        <ele>9.1</ele>
        <time>2020-06-10T11:54:58Z</time>
      </trkpt>
      <trkpt lat="48.57797" lon="-3.8289">
        <ele>9</ele>
        <time>2020-06-10T11:54:59Z</time>
      </trkpt>
      <trkpt lat="48.57797" lon="-3.82889">
        <ele>9</ele>
        <time>2020-06-10T11:55:00Z</time>
      </trkpt>
      <trkpt lat="48.57797" lon="-3.8289">
        <ele>9</ele>
        <time>2020-06-10T11:55:01Z</time>
      </trkpt>
      <trkpt lat="48.57797" lon="-3.8289">
        <ele>9</ele>
        <time>2020-06-10T11:55:02Z</time>
      </trkpt>
      <trkpt lat="48.57797" lon="-3.82891">
        <ele>9</ele>
        <time>2020-06-10T11:55:03Z</time>
      </trkpt>
      <trkpt lat="48.57796" lon="-3.82892">
        <ele>9</ele>
        <time>2020-06-10T11:55:04Z</time>
      </trkpt>
      <trkpt lat="48.57796" lon="-3.82892">
        <ele>9</ele>
        <time>2020-06-10T11:55:05Z</time>
      </trkpt>
      <trkpt lat="48.57795" lon="-3.82893">
        <ele>9</ele>
        <time>2020-06-10T11:55:06Z</time>
      </trkpt>
      <trkpt lat="48.57796" lon="-3.82892">
        <ele>9</ele>
        <time>2020-06-10T11:55:07Z</time>
      </trkpt>
      <trkpt lat="48.57795" lon="-3.82891">
        <ele>9</ele>
        <time>2020-06-10T11:55:08Z</time>
      </trkpt>
      <trkpt lat="48.57795" lon="-3.82891">
        <ele>9</ele>
        <time>2020-06-10T11:55:09Z</time>
      </trkpt>
      <trkpt lat="48.57794" lon="-3.82892">
        <ele>9</ele>
        <time>2020-06-10T11:55:10Z</time>
      </trkpt>
      <trkpt lat="48.57794" lon="-3.82892">
        <ele>9</ele>
        <time>2020-06-10T11:55:11Z</time>
      </trkpt>
      <trkpt lat="48.57794" lon="-3.82892">
        <ele>9</ele>
        <time>2020-06-10T11:55:12Z</time>
      </trkpt>
      <trkpt lat="48.57793" lon="-3.82892">
        <ele>9</ele>
        <time>2020-06-10T11:55:13Z</time>
      </trkpt>
      <trkpt lat="48.57792" lon="-3.82893">
        <ele>9</ele>
        <time>2020-06-10T11:55:14Z</time>
      </trkpt>
      <trkpt lat="48.57792" lon="-3.82893">
        <ele>9</ele>
        <time>2020-06-10T11:55:15Z</time>
      </trkpt>
      <trkpt lat="48.57792" lon="-3.82894">
        <ele>9</ele>
        <time>2020-06-10T11:55:16Z</time>
      </trkpt>
      <trkpt lat="48.57792" lon="-3.82893">
        <ele>9</ele>
        <time>2020-06-10T11:55:17Z</time>
      </trkpt>
      <trkpt lat="48.57793" lon="-3.82893">
        <ele>9</ele>
        <time>2020-06-10T11:55:18Z</time>
      </trkpt>
      <trkpt lat="48.57793" lon="-3.82892">
        <ele>9</ele>
        <time>2020-06-10T11:55:19Z</time>
      </trkpt>
      <trkpt lat="48.57793" lon="-3.82891">
        <ele>9</ele>
        <time>2020-06-10T11:55:20Z</time>
      </trkpt>
      <trkpt lat="48.57793" lon="-3.82891">
        <ele>9</ele>
        <time>2020-06-10T11:55:21Z</time>
      </trkpt>
      <trkpt lat="48.57794" lon="-3.82891">
        <ele>9</ele>
        <time>2020-06-10T11:55:22Z</time>
      </trkpt>
      <trkpt lat="48.57794" lon="-3.82892">
        <ele>9</ele>
        <time>2020-06-10T11:55:23Z</time>
      </trkpt>
      <trkpt lat="48.57794" lon="-3.82892">
        <ele>9</ele>
        <time>2020-06-10T11:55:24Z</time>
      </trkpt>
      <trkpt lat="48.57794" lon="-3.82892">
        <ele>9</ele>
        <time>2020-06-10T11:55:25Z</time>
      </trkpt>
      <trkpt lat="48.57794" lon="-3.82891">
        <ele>9</ele>
        <time>2020-06-10T11:55:26Z</time>
      </trkpt>
      <trkpt lat="48.57794" lon="-3.82891">
        <ele>9</ele>
        <time>2020-06-10T11:55:27Z</time>
      </trkpt>
      <trkpt lat="48.57794" lon="-3.82892">
        <ele>9</ele>
        <time>2020-06-10T11:55:28Z</time>
      </trkpt>
      <trkpt lat="48.57795" lon="-3.82892">
        <ele>9</ele>
        <time>2020-06-10T11:55:29Z</time>
      </trkpt>
      <trkpt lat="48.57795" lon="-3.82892">
        <ele>9</ele>
        <time>2020-06-10T11:55:30Z</time>
      </trkpt>
      <trkpt lat="48.57795" lon="-3.82892">
        <ele>9</ele>
        <time>2020-06-10T11:55:31Z</time>
      </trkpt>
      <trkpt lat="48.57795" lon="-3.82892">
        <ele>9</ele>
        <time>2020-06-10T11:55:32Z</time>
      </trkpt>
      <trkpt lat="48.57795" lon="-3.82892">
        <ele>9</ele>
        <time>2020-06-10T11:55:33Z</time>
      </trkpt>
      <trkpt lat="48.57795" lon="-3.82892">
        <ele>9</ele>
        <time>2020-06-10T11:55:34Z</time>
      </trkpt>
      <trkpt lat="48.57795" lon="-3.82892">
        <ele>9</ele>
        <time>2020-06-10T11:55:35Z</time>
      </trkpt>
      <trkpt lat="48.57795" lon="-3.82892">
        <ele>9</ele>
        <time>2020-06-10T11:55:36Z</time>
      </trkpt>
      <trkpt lat="48.57795" lon="-3.82892">
        <ele>9</ele>
        <time>2020-06-10T11:55:37Z</time>
      </trkpt>
      <trkpt lat="48.57797" lon="-3.82883">
        <ele>8.3</ele>
        <time>2020-06-10T11:56:01Z</time>
      </trkpt>
      <trkpt lat="48.57797" lon="-3.82882">
        <ele>7.9</ele>
        <time>2020-06-10T11:56:02Z</time>
      </trkpt>
      <trkpt lat="48.57797" lon="-3.82881">
        <ele>7.9</ele>
        <time>2020-06-10T11:56:03Z</time>
      </trkpt>
      <trkpt lat="48.57797" lon="-3.8288">
        <ele>7.9</ele>
        <time>2020-06-10T11:56:04Z</time>
      </trkpt>
      <trkpt lat="48.57798" lon="-3.82879">
        <ele>7.8</ele>
        <time>2020-06-10T11:56:05Z</time>
      </trkpt>
      <trkpt lat="48.57798" lon="-3.82879">
        <ele>7.8</ele>
        <time>2020-06-10T11:56:06Z</time>
      </trkpt>
      <trkpt lat="48.57799" lon="-3.82878">
        <ele>7.3</ele>
        <time>2020-06-10T11:56:07Z</time>
      </trkpt>
      <trkpt lat="48.57799" lon="-3.82877">
        <ele>7.3</ele>
        <time>2020-06-10T11:56:08Z</time>
      </trkpt>
      <trkpt lat="48.57799" lon="-3.82878">
        <ele>7.8</ele>
        <time>2020-06-10T11:56:09Z</time>
      </trkpt>
      <trkpt lat="48.57799" lon="-3.82881">
        <ele>7.8</ele>
        <time>2020-06-10T11:56:10Z</time>
      </trkpt>
      <trkpt lat="48.57799" lon="-3.82883">
        <ele>8.3</ele>
        <time>2020-06-10T11:56:11Z</time>
      </trkpt>
      <trkpt lat="48.57801" lon="-3.82883">
        <ele>8.2</ele>
        <time>2020-06-10T11:56:12Z</time>
      </trkpt>
      <trkpt lat="48.57802" lon="-3.82883">
        <ele>8.2</ele>
        <time>2020-06-10T11:56:13Z</time>
      </trkpt>
      <trkpt lat="48.57803" lon="-3.82884">
        <ele>8.1</ele>
        <time>2020-06-10T11:56:14Z</time>
      </trkpt>
      <trkpt lat="48.57804" lon="-3.82884">
        <ele>8.1</ele>
        <time>2020-06-10T11:56:15Z</time>
      </trkpt>
      <trkpt lat="48.57806" lon="-3.82883">
        <ele>8</ele>
        <time>2020-06-10T11:56:16Z</time>
      </trkpt>
      <trkpt lat="48.57808" lon="-3.82881">
        <ele>7.4</ele>
        <time>2020-06-10T11:56:17Z</time>
      </trkpt>
      <trkpt lat="48.57809" lon="-3.82881">
        <ele>7.2</ele>
        <time>2020-06-10T11:56:18Z</time>
      </trkpt>
      <trkpt lat="48.5781" lon="-3.82881">
        <ele>7.2</ele>
        <time>2020-06-10T11:56:19Z</time>
      </trkpt>
      <trkpt lat="48.57814" lon="-3.82879">
        <ele>7.1</ele>
        <time>2020-06-10T11:56:20Z</time>
      </trkpt>
      <trkpt lat="48.57815" lon="-3.82877">
        <ele>6.3</ele>
        <time>2020-06-10T11:56:21Z</time>
      </trkpt>
      <trkpt lat="48.57818" lon="-3.82876">
        <ele>6.1</ele>
        <time>2020-06-10T11:56:22Z</time>
      </trkpt>
      <trkpt lat="48.57819" lon="-3.82876">
        <ele>6.1</ele>
        <time>2020-06-10T11:56:23Z</time>
      </trkpt>
      <trkpt lat="48.57819" lon="-3.82873">
        <ele>5.5</ele>
        <time>2020-06-10T11:56:24Z</time>
      </trkpt>
      <trkpt lat="48.57821" lon="-3.82874">
        <ele>5.5</ele>
        <time>2020-06-10T11:56:25Z</time>
      </trkpt>
      <trkpt lat="48.57821" lon="-3.82873">
        <ele>5.5</ele>
        <time>2020-06-10T11:56:26Z</time>
      </trkpt>
      <trkpt lat="48.57822" lon="-3.82872">
        <ele>5.5</ele>
        <time>2020-06-10T11:56:27Z</time>
      </trkpt>
      <trkpt lat="48.57823" lon="-3.82872">
        <ele>5.5</ele>
        <time>2020-06-10T11:56:28Z</time>
      </trkpt>
      <trkpt lat="48.57823" lon="-3.82872">
        <ele>5.5</ele>
        <time>2020-06-10T11:56:29Z</time>
      </trkpt>
      <trkpt lat="48.57824" lon="-3.82873">
        <ele>5.5</ele>
        <time>2020-06-10T11:56:30Z</time>
      </trkpt>
      <trkpt lat="48.57825" lon="-3.82873">
        <ele>5.5</ele>
        <time>2020-06-10T11:56:31Z</time>
      </trkpt>
      <trkpt lat="48.57825" lon="-3.82872">
        <ele>5.6</ele>
        <time>2020-06-10T11:56:32Z</time>
      </trkpt>
      <trkpt lat="48.57826" lon="-3.82872">
        <ele>5.6</ele>
        <time>2020-06-10T11:56:33Z</time>
      </trkpt>
      <trkpt lat="48.57826" lon="-3.82872">
        <ele>5.6</ele>
        <time>2020-06-10T11:56:34Z</time>
      </trkpt>
      <trkpt lat="48.57826" lon="-3.82872">
        <ele>5.6</ele>
        <time>2020-06-10T11:56:35Z</time>
      </trkpt>
      <trkpt lat="48.57826" lon="-3.82872">
        <ele>5.6</ele>
        <time>2020-06-10T11:56:36Z</time>
      </trkpt>
      <trkpt lat="48.57826" lon="-3.82872">
        <ele>5.6</ele>
        <time>2020-06-10T11:56:37Z</time>
      </trkpt>
      <trkpt lat="48.57827" lon="-3.82873">
        <ele>5.6</ele>
        <time>2020-06-10T11:56:38Z</time>
      </trkpt>
      <trkpt lat="48.57827" lon="-3.82873">
        <ele>5.6</ele>
        <time>2020-06-10T11:56:39Z</time>
      </trkpt>
      <trkpt lat="48.57827" lon="-3.82873">
        <ele>5.6</ele>
        <time>2020-06-10T11:56:40Z</time>
      </trkpt>
      <trkpt lat="48.57827" lon="-3.82873">
        <ele>5.6</ele>
        <time>2020-06-10T11:56:41Z</time>
      </trkpt>
      <trkpt lat="48.57827" lon="-3.82873">
        <ele>5.6</ele>
        <time>2020-06-10T11:56:42Z</time>
      </trkpt>
      <trkpt lat="48.57827" lon="-3.82873">
        <ele>5.6</ele>
        <time>2020-06-10T11:56:43Z</time>
      </trkpt>
      <trkpt lat="48.57827" lon="-3.82873">
        <ele>5.6</ele>
        <time>2020-06-10T11:56:44Z</time>
      </trkpt>
      <trkpt lat="48.57827" lon="-3.82873">
        <ele>5.6</ele>
        <time>2020-06-10T11:56:45Z</time>
      </trkpt>
      <trkpt lat="48.57827" lon="-3.82873">
        <ele>5.6</ele>
        <time>2020-06-10T11:56:46Z</time>
      </trkpt>
      <trkpt lat="48.57827" lon="-3.82873">
        <ele>5.6</ele>
        <time>2020-06-10T11:56:47Z</time>
      </trkpt>
      <trkpt lat="48.57827" lon="-3.82873">
        <ele>5.6</ele>
        <time>2020-06-10T11:56:48Z</time>
      </trkpt>
      <trkpt lat="48.57827" lon="-3.82873">
        <ele>5.6</ele>
        <time>2020-06-10T11:56:49Z</time>
      </trkpt>
      <trkpt lat="48.57827" lon="-3.82873">
        <ele>5.6</ele>
        <time>2020-06-10T11:56:50Z</time>
      </trkpt>
      <trkpt lat="48.57827" lon="-3.82873">
        <ele>5.6</ele>
        <time>2020-06-10T11:56:51Z</time>
      </trkpt>
      <trkpt lat="48.57829" lon="-3.82862">
        <ele>5.3</ele>
        <time>2020-06-10T11:57:23Z</time>
      </trkpt>
      <trkpt lat="48.57828" lon="-3.82862">
        <ele>5.3</ele>
        <time>2020-06-10T11:57:24Z</time>
      </trkpt>
      <trkpt lat="48.57827" lon="-3.82862">
        <ele>5</ele>
        <time>2020-06-10T11:57:25Z</time>
      </trkpt>
      <trkpt lat="48.57827" lon="-3.82863">
        <ele>5</ele>
        <time>2020-06-10T11:57:26Z</time>
      </trkpt>
      <trkpt lat="48.57827" lon="-3.82862">
        <ele>5</ele>
        <time>2020-06-10T11:57:27Z</time>
      </trkpt>
      <trkpt lat="48.57827" lon="-3.82863">
        <ele>5</ele>
        <time>2020-06-10T11:57:28Z</time>
      </trkpt>
      <trkpt lat="48.57828" lon="-3.82862">
        <ele>5</ele>
        <time>2020-06-10T11:57:29Z</time>
      </trkpt>
      <trkpt lat="48.5783" lon="-3.82861">
        <ele>5.3</ele>
        <time>2020-06-10T11:57:30Z</time>
      </trkpt>
      <trkpt lat="48.57831" lon="-3.82861">
        <ele>5.7</ele>
        <time>2020-06-10T11:57:31Z</time>
      </trkpt>
      <trkpt lat="48.57831" lon="-3.82861">
        <ele>5.7</ele>
        <time>2020-06-10T11:57:32Z</time>
      </trkpt>
      <trkpt lat="48.57832" lon="-3.8286">
        <ele>5.7</ele>
        <time>2020-06-10T11:57:33Z</time>
      </trkpt>
      <trkpt lat="48.57832" lon="-3.8286">
        <ele>5.7</ele>
        <time>2020-06-10T11:57:34Z</time>
      </trkpt>
      <trkpt lat="48.57833" lon="-3.8286">
        <ele>5.7</ele>
        <time>2020-06-10T11:57:35Z</time>
      </trkpt>
      <trkpt lat="48.57832" lon="-3.8286">
        <ele>5.7</ele>
        <time>2020-06-10T11:57:36Z</time>
      </trkpt>
      <trkpt lat="48.57832" lon="-3.8286">
        <ele>5.7</ele>
        <time>2020-06-10T11:57:37Z</time>
      </trkpt>
      <trkpt lat="48.57832" lon="-3.8286">
        <ele>5.7</ele>
        <time>2020-06-10T11:57:38Z</time>
      </trkpt>
      <trkpt lat="48.57833" lon="-3.8286">
        <ele>5.7</ele>
        <time>2020-06-10T11:57:39Z</time>
      </trkpt>
      <trkpt lat="48.57834" lon="-3.82859">
        <ele>5.7</ele>
        <time>2020-06-10T11:57:40Z</time>
      </trkpt>
      <trkpt lat="48.57835" lon="-3.82859">
        <ele>6.1</ele>
        <time>2020-06-10T11:57:41Z</time>
      </trkpt>
      <trkpt lat="48.57836" lon="-3.8286">
        <ele>6.1</ele>
        <time>2020-06-10T11:57:42Z</time>
      </trkpt>
      <trkpt lat="48.57836" lon="-3.8286">
        <ele>6.1</ele>
        <time>2020-06-10T11:57:43Z</time>
      </trkpt>
      <trkpt lat="48.57836" lon="-3.8286">
        <ele>6.1</ele>
        <time>2020-06-10T11:57:44Z</time>
      </trkpt>
      <trkpt lat="48.57837" lon="-3.82861">
        <ele>6</ele>
        <time>2020-06-10T11:57:45Z</time>
      </trkpt>
      <trkpt lat="48.57837" lon="-3.82861">
        <ele>6.5</ele>
        <time>2020-06-10T11:57:46Z</time>
      </trkpt>
      <trkpt lat="48.57837" lon="-3.82861">
        <ele>6.5</ele>
        <time>2020-06-10T11:57:47Z</time>
      </trkpt>
      <trkpt lat="48.57837" lon="-3.82862">
        <ele>6.5</ele>
        <time>2020-06-10T11:57:48Z</time>
      </trkpt>
      <trkpt lat="48.57838" lon="-3.82862">
        <ele>6.5</ele>
        <time>2020-06-10T11:57:49Z</time>
      </trkpt>
      <trkpt lat="48.57838" lon="-3.82862">
        <ele>6.5</ele>
        <time>2020-06-10T11:57:50Z</time>
      </trkpt>
      <trkpt lat="48.57838" lon="-3.82863">
        <ele>6.5</ele>
        <time>2020-06-10T11:57:51Z</time>
      </trkpt>
      <trkpt lat="48.57839" lon="-3.82863">
        <ele>6.5</ele>
        <time>2020-06-10T11:57:52Z</time>
      </trkpt>
      <trkpt lat="48.57839" lon="-3.82863">
        <ele>6.5</ele>
        <time>2020-06-10T11:57:53Z</time>
      </trkpt>
      <trkpt lat="48.57839" lon="-3.82864">
        <ele>6.5</ele>
        <time>2020-06-10T11:57:54Z</time>
      </trkpt>
      <trkpt lat="48.57839" lon="-3.82864">
        <ele>6.5</ele>
        <time>2020-06-10T11:57:55Z</time>
      </trkpt>
      <trkpt lat="48.5784" lon="-3.82864">
        <ele>6.9</ele>
        <time>2020-06-10T11:57:56Z</time>
      </trkpt>
      <trkpt lat="48.5784" lon="-3.82865">
        <ele>6.9</ele>
        <time>2020-06-10T11:57:57Z</time>
      </trkpt>
      <trkpt lat="48.5784" lon="-3.82865">
        <ele>6.9</ele>
        <time>2020-06-10T11:57:58Z</time>
      </trkpt>
      <trkpt lat="48.57841" lon="-3.82865">
        <ele>6.7</ele>
        <time>2020-06-10T11:57:59Z</time>
      </trkpt>
      <trkpt lat="48.57841" lon="-3.82866">
        <ele>6.7</ele>
        <time>2020-06-10T11:58:00Z</time>
      </trkpt>
      <trkpt lat="48.57841" lon="-3.82866">
        <ele>6.7</ele>
        <time>2020-06-10T11:58:01Z</time>
      </trkpt>
      <trkpt lat="48.57841" lon="-3.82866">
        <ele>6.7</ele>
        <time>2020-06-10T11:58:02Z</time>
      </trkpt>
      <trkpt lat="48.57842" lon="-3.82867">
        <ele>6.7</ele>
        <time>2020-06-10T11:58:03Z</time>
      </trkpt>
      <trkpt lat="48.57842" lon="-3.82867">
        <ele>6.7</ele>
        <time>2020-06-10T11:58:04Z</time>
      </trkpt>
      <trkpt lat="48.57842" lon="-3.82867">
        <ele>6.7</ele>
        <time>2020-06-10T11:58:05Z</time>
      </trkpt>
      <trkpt lat="48.57842" lon="-3.82868">
        <ele>6.7</ele>
        <time>2020-06-10T11:59:08Z</time>
      </trkpt>
      <trkpt lat="48.57843" lon="-3.82868">
        <ele>7</ele>
        <time>2020-06-10T11:59:09Z</time>
      </trkpt>
      <trkpt lat="48.57843" lon="-3.82868">
        <ele>7</ele>
        <time>2020-06-10T11:59:10Z</time>
      </trkpt>
      <trkpt lat="48.57845" lon="-3.8287">
        <ele>7</ele>
        <time>2020-06-10T11:59:11Z</time>
      </trkpt>
      <trkpt lat="48.57845" lon="-3.8287">
        <ele>7.2</ele>
        <time>2020-06-10T11:59:12Z</time>
      </trkpt>
      <trkpt lat="48.57846" lon="-3.8287">
        <ele>7.2</ele>
        <time>2020-06-10T11:59:13Z</time>
      </trkpt>
      <trkpt lat="48.57847" lon="-3.82873">
        <ele>7.2</ele>
        <time>2020-06-10T11:59:14Z</time>
      </trkpt>
      <trkpt lat="48.57848" lon="-3.82874">
        <ele>7.2</ele>
        <time>2020-06-10T11:59:15Z</time>
      </trkpt>
      <trkpt lat="48.57849" lon="-3.82876">
        <ele>7.4</ele>
        <time>2020-06-10T11:59:16Z</time>
      </trkpt>
      <trkpt lat="48.5785" lon="-3.82877">
        <ele>7.4</ele>
        <time>2020-06-10T11:59:17Z</time>
      </trkpt>
      <trkpt lat="48.5785" lon="-3.82878">
        <ele>7.5</ele>
        <time>2020-06-10T11:59:18Z</time>
      </trkpt>
      <trkpt lat="48.57851" lon="-3.8288">
        <ele>7.6</ele>
        <time>2020-06-10T11:59:19Z</time>
      </trkpt>
      <trkpt lat="48.57851" lon="-3.82881">
        <ele>7.6</ele>
        <time>2020-06-10T11:59:20Z</time>
      </trkpt>
      <trkpt lat="48.57852" lon="-3.82882">
        <ele>7.6</ele>
        <time>2020-06-10T11:59:21Z</time>
      </trkpt>
      <trkpt lat="48.57853" lon="-3.82883">
        <ele>7.9</ele>
        <time>2020-06-10T11:59:22Z</time>
      </trkpt>
      <trkpt lat="48.57853" lon="-3.82883">
        <ele>7.9</ele>
        <time>2020-06-10T11:59:23Z</time>
      </trkpt>
      <trkpt lat="48.57854" lon="-3.82883">
        <ele>7.9</ele>
        <time>2020-06-10T11:59:24Z</time>
      </trkpt>
      <trkpt lat="48.57855" lon="-3.82883">
        <ele>7.9</ele>
        <time>2020-06-10T11:59:25Z</time>
      </trkpt>
      <trkpt lat="48.57856" lon="-3.82883">
        <ele>7.9</ele>
        <time>2020-06-10T11:59:26Z</time>
      </trkpt>
      <trkpt lat="48.57856" lon="-3.82885">
        <ele>7.9</ele>
        <time>2020-06-10T11:59:27Z</time>
      </trkpt>
      <trkpt lat="48.57857" lon="-3.82885">
        <ele>7.9</ele>
        <time>2020-06-10T11:59:28Z</time>
      </trkpt>
      <trkpt lat="48.57857" lon="-3.82886">
        <ele>7.9</ele>
        <time>2020-06-10T11:59:29Z</time>
      </trkpt>
      <trkpt lat="48.57858" lon="-3.82887">
        <ele>8.3</ele>
        <time>2020-06-10T11:59:30Z</time>
      </trkpt>
      <trkpt lat="48.57859" lon="-3.82887">
        <ele>8.3</ele>
        <time>2020-06-10T11:59:31Z</time>
      </trkpt>
      <trkpt lat="48.57859" lon="-3.82888">
        <ele>8.3</ele>
        <time>2020-06-10T11:59:32Z</time>
      </trkpt>
      <trkpt lat="48.5786" lon="-3.82889">
        <ele>8.2</ele>
        <time>2020-06-10T11:59:33Z</time>
      </trkpt>
      <trkpt lat="48.57861" lon="-3.82889">
        <ele>8.2</ele>
        <time>2020-06-10T11:59:34Z</time>
      </trkpt>
      <trkpt lat="48.57861" lon="-3.82889">
        <ele>8.2</ele>
        <time>2020-06-10T11:59:35Z</time>
      </trkpt>
      <trkpt lat="48.57863" lon="-3.8289">
        <ele>8.2</ele>
        <time>2020-06-10T11:59:36Z</time>
      </trkpt>
      <trkpt lat="48.57864" lon="-3.82892">
        <ele>8.6</ele>
        <time>2020-06-10T11:59:37Z</time>
      </trkpt>
      <trkpt lat="48.57865" lon="-3.82893">
        <ele>8.6</ele>
        <time>2020-06-10T11:59:38Z</time>
      </trkpt>
      <trkpt lat="48.57865" lon="-3.82893">
        <ele>8.6</ele>
        <time>2020-06-10T11:59:39Z</time>
      </trkpt>
      <trkpt lat="48.57865" lon="-3.82893">
        <ele>8.6</ele>
        <time>2020-06-10T11:59:40Z</time>
      </trkpt>
      <trkpt lat="48.57866" lon="-3.82893">
        <ele>8.5</ele>
        <time>2020-06-10T11:59:41Z</time>
      </trkpt>
      <trkpt lat="48.57866" lon="-3.82893">
        <ele>8.5</ele>
        <time>2020-06-10T11:59:42Z</time>
      </trkpt>
      <trkpt lat="48.57866" lon="-3.82893">
        <ele>8.5</ele>
        <time>2020-06-10T11:59:43Z</time>
      </trkpt>
      <trkpt lat="48.57867" lon="-3.82893">
        <ele>8.5</ele>
        <time>2020-06-10T11:59:44Z</time>
      </trkpt>
      <trkpt lat="48.57867" lon="-3.82893">
        <ele>8.5</ele>
        <time>2020-06-10T11:59:45Z</time>
      </trkpt>
      <trkpt lat="48.57868" lon="-3.82893">
        <ele>8.5</ele>
        <time>2020-06-10T11:59:46Z</time>
      </trkpt>
      <trkpt lat="48.57868" lon="-3.82893">
        <ele>8.5</ele>
        <time>2020-06-10T11:59:47Z</time>
      </trkpt>
      <trkpt lat="48.57869" lon="-3.82893">
        <ele>8.4</ele>
        <time>2020-06-10T11:59:48Z</time>
      </trkpt>
      <trkpt lat="48.5787" lon="-3.82893">
        <ele>8.4</ele>
        <time>2020-06-10T11:59:49Z</time>
      </trkpt>
      <trkpt lat="48.5787" lon="-3.82894">
        <ele>8.4</ele>
        <time>2020-06-10T11:59:50Z</time>
      </trkpt>
      <trkpt lat="48.57871" lon="-3.82896">
        <ele>8.7</ele>
        <time>2020-06-10T11:59:51Z</time>
      </trkpt>
      <trkpt lat="48.57871" lon="-3.82897">
        <ele>8.7</ele>
        <time>2020-06-10T11:59:52Z</time>
      </trkpt>
      <trkpt lat="48.57871" lon="-3.82897">
        <ele>8.7</ele>
        <time>2020-06-10T11:59:53Z</time>
      </trkpt>
      <trkpt lat="48.57871" lon="-3.82898">
        <ele>8.7</ele>
        <time>2020-06-10T11:59:54Z</time>
      </trkpt>
      <trkpt lat="48.57871" lon="-3.82898">
        <ele>8.7</ele>
        <time>2020-06-10T11:59:55Z</time>
      </trkpt>
      <trkpt lat="48.57871" lon="-3.82899">
        <ele>8.7</ele>
        <time>2020-06-10T11:59:56Z</time>
      </trkpt>
      <trkpt lat="48.57872" lon="-3.829">
        <ele>9.2</ele>
        <time>2020-06-10T11:59:57Z</time>
      </trkpt>
      <trkpt lat="48.57872" lon="-3.829">
        <ele>9.2</ele>
        <time>2020-06-10T11:59:58Z</time>
      </trkpt>
      <trkpt lat="48.57873" lon="-3.829">
        <ele>9.2</ele>
        <time>2020-06-10T11:59:59Z</time>
      </trkpt>
      <trkpt lat="48.57873" lon="-3.829">
        <ele>9.2</ele>
        <time>2020-06-10T12:00:00Z</time>
      </trkpt>
      <trkpt lat="48.57873" lon="-3.829">
        <ele>9.2</ele>
        <time>2020-06-10T12:00:01Z</time>
      </trkpt>
      <trkpt lat="48.57873" lon="-3.829">
        <ele>9.2</ele>
        <time>2020-06-10T12:00:02Z</time>
      </trkpt>
      <trkpt lat="48.57873" lon="-3.829">
        <ele>9.2</ele>
        <time>2020-06-10T12:00:03Z</time>
      </trkpt>
      <trkpt lat="48.57873" lon="-3.829">
        <ele>9.2</ele>
        <time>2020-06-10T12:00:04Z</time>
      </trkpt>
      <trkpt lat="48.57874" lon="-3.829">
        <ele>9.2</ele>
        <time>2020-06-10T12:00:05Z</time>
      </trkpt>
      <trkpt lat="48.57874" lon="-3.829">
        <ele>9.2</ele>
        <time>2020-06-10T12:00:06Z</time>
      </trkpt>
      <trkpt lat="48.57874" lon="-3.829">
        <ele>9.2</ele>
        <time>2020-06-10T12:00:07Z</time>
      </trkpt>
      <trkpt lat="48.57872" lon="-3.8289">
        <ele>8.2</ele>
        <time>2020-06-10T12:00:20Z</time>
      </trkpt>
      <trkpt lat="48.57873" lon="-3.82889">
        <ele>8.2</ele>
        <time>2020-06-10T12:00:21Z</time>
      </trkpt>
      <trkpt lat="48.57873" lon="-3.82889">
        <ele>8.2</ele>
        <time>2020-06-10T12:00:22Z</time>
      </trkpt>
      <trkpt lat="48.57873" lon="-3.82889">
        <ele>8.2</ele>
        <time>2020-06-10T12:00:23Z</time>
      </trkpt>
      <trkpt lat="48.57874" lon="-3.8289">
        <ele>8.2</ele>
        <time>2020-06-10T12:00:24Z</time>
      </trkpt>
      <trkpt lat="48.57875" lon="-3.8289">
        <ele>8.2</ele>
        <time>2020-06-10T12:00:25Z</time>
      </trkpt>
      <trkpt lat="48.57875" lon="-3.8289">
        <ele>8.2</ele>
        <time>2020-06-10T12:00:26Z</time>
      </trkpt>
      <trkpt lat="48.57875" lon="-3.8289">
        <ele>8.2</ele>
        <time>2020-06-10T12:00:27Z</time>
      </trkpt>
      <trkpt lat="48.57874" lon="-3.8289">
        <ele>8.2</ele>
        <time>2020-06-10T12:00:28Z</time>
      </trkpt>
      <trkpt lat="48.57875" lon="-3.8289">
        <ele>8.2</ele>
        <time>2020-06-10T12:00:29Z</time>
      </trkpt>
      <trkpt lat="48.57875" lon="-3.8289">
        <ele>8.2</ele>
        <time>2020-06-10T12:00:30Z</time>
      </trkpt>
      <trkpt lat="48.57876" lon="-3.82889">
        <ele>8.2</ele>
        <time>2020-06-10T12:00:31Z</time>
      </trkpt>
      <trkpt lat="48.57877" lon="-3.82888">
        <ele>8.3</ele>
        <time>2020-06-10T12:00:32Z</time>
      </trkpt>
      <trkpt lat="48.57877" lon="-3.82888">
        <ele>8.3</ele>
        <time>2020-06-10T12:00:33Z</time>
      </trkpt>
      <trkpt lat="48.57878" lon="-3.82889">
        <ele>8.3</ele>
        <time>2020-06-10T12:06:18Z</time>
      </trkpt>
      <trkpt lat="48.57879" lon="-3.82887">
        <ele>8.3</ele>
        <time>2020-06-10T12:06:19Z</time>
      </trkpt>
      <trkpt lat="48.57879" lon="-3.82888">
        <ele>8.3</ele>
        <time>2020-06-10T12:06:20Z</time>
      </trkpt>
      <trkpt lat="48.57879" lon="-3.82889">
        <ele>8.3</ele>
        <time>2020-06-10T12:06:21Z</time>
      </trkpt>
      <trkpt lat="48.57879" lon="-3.8289">
        <ele>8.3</ele>
        <time>2020-06-10T12:06:22Z</time>
      </trkpt>
      <trkpt lat="48.57879" lon="-3.8289">
        <ele>8.3</ele>
        <time>2020-06-10T12:06:23Z</time>
      </trkpt>
      <trkpt lat="48.57879" lon="-3.82889">
        <ele>8.3</ele>
        <time>2020-06-10T12:06:24Z</time>
      </trkpt>
      <trkpt lat="48.5788" lon="-3.82889">
        <ele>8.3</ele>
        <time>2020-06-10T12:06:25Z</time>
      </trkpt>
      <trkpt lat="48.5788" lon="-3.8289">
        <ele>8.3</ele>
        <time>2020-06-10T12:06:26Z</time>
      </trkpt>
      <trkpt lat="48.5788" lon="-3.8289">
        <ele>8.3</ele>
        <time>2020-06-10T12:06:27Z</time>
      </trkpt>
      <trkpt lat="48.5788" lon="-3.8289">
        <ele>8.3</ele>
        <time>2020-06-10T12:06:28Z</time>
      </trkpt>
      <trkpt lat="48.5788" lon="-3.8289">
        <ele>8.3</ele>
        <time>2020-06-10T12:06:29Z</time>
      </trkpt>
      <trkpt lat="48.5788" lon="-3.82892">
        <ele>8.1</ele>
        <time>2020-06-10T12:06:30Z</time>
      </trkpt>
      <trkpt lat="48.57879" lon="-3.82892">
        <ele>8.1</ele>
        <time>2020-06-10T12:06:31Z</time>
      </trkpt>
      <trkpt lat="48.57883" lon="-3.8289">
        <ele>8.4</ele>
        <time>2020-06-10T12:08:21Z</time>
      </trkpt>
      <trkpt lat="48.57883" lon="-3.8289">
        <ele>8.4</ele>
        <time>2020-06-10T12:08:22Z</time>
      </trkpt>
      <trkpt lat="48.57883" lon="-3.8289">
        <ele>8.4</ele>
        <time>2020-06-10T12:08:23Z</time>
      </trkpt>
      <trkpt lat="48.57883" lon="-3.8289">
        <ele>8.4</ele>
        <time>2020-06-10T12:08:24Z</time>
      </trkpt>
      <trkpt lat="48.57883" lon="-3.8289">
        <ele>8.4</ele>
        <time>2020-06-10T12:08:25Z</time>
      </trkpt>
      <trkpt lat="48.57883" lon="-3.8289">
        <ele>8.4</ele>
        <time>2020-06-10T12:08:26Z</time>
      </trkpt>
      <trkpt lat="48.57883" lon="-3.8289">
        <ele>8.4</ele>
        <time>2020-06-10T12:08:27Z</time>
      </trkpt>
      <trkpt lat="48.57883" lon="-3.8289">
        <ele>8.4</ele>
        <time>2020-06-10T12:08:28Z</time>
      </trkpt>
      <trkpt lat="48.57883" lon="-3.8289">
        <ele>8.4</ele>
        <time>2020-06-10T12:08:29Z</time>
      </trkpt>
      <trkpt lat="48.57883" lon="-3.8289">
        <ele>8.4</ele>
        <time>2020-06-10T12:08:30Z</time>
      </trkpt>
      <trkpt lat="48.57882" lon="-3.82891">
        <ele>8.4</ele>
        <time>2020-06-10T12:08:31Z</time>
      </trkpt>
      <trkpt lat="48.57882" lon="-3.82892">
        <ele>8.1</ele>
        <time>2020-06-10T12:08:32Z</time>
      </trkpt>
      <trkpt lat="48.57882" lon="-3.82892">
        <ele>8.1</ele>
        <time>2020-06-10T12:08:33Z</time>
      </trkpt>
      <trkpt lat="48.57885" lon="-3.82891">
        <ele>8.1</ele>
        <time>2020-06-10T12:08:51Z</time>
      </trkpt>
      <trkpt lat="48.57885" lon="-3.82891">
        <ele>8.1</ele>
        <time>2020-06-10T12:08:52Z</time>
      </trkpt>
      <trkpt lat="48.57885" lon="-3.82891">
        <ele>8.1</ele>
        <time>2020-06-10T12:08:53Z</time>
      </trkpt>
      <trkpt lat="48.57885" lon="-3.82892">
        <ele>8.1</ele>
        <time>2020-06-10T12:08:54Z</time>
      </trkpt>
      <trkpt lat="48.57885" lon="-3.82892">
        <ele>8.1</ele>
        <time>2020-06-10T12:08:55Z</time>
      </trkpt>
      <trkpt lat="48.57885" lon="-3.82892">
        <ele>8.1</ele>
        <time>2020-06-10T12:08:56Z</time>
      </trkpt>
      <trkpt lat="48.57885" lon="-3.82891">
        <ele>8.1</ele>
        <time>2020-06-10T12:08:57Z</time>
      </trkpt>
      <trkpt lat="48.57886" lon="-3.82891">
        <ele>8.5</ele>
        <time>2020-06-10T12:08:58Z</time>
      </trkpt>
      <trkpt lat="48.57886" lon="-3.8289">
        <ele>8.5</ele>
        <time>2020-06-10T12:08:59Z</time>
      </trkpt>
      <trkpt lat="48.57886" lon="-3.82889">
        <ele>8.5</ele>
        <time>2020-06-10T12:09:00Z</time>
      </trkpt>
      <trkpt lat="48.57887" lon="-3.82888">
        <ele>8.5</ele>
        <time>2020-06-10T12:09:01Z</time>
      </trkpt>
      <trkpt lat="48.57887" lon="-3.82887">
        <ele>8.5</ele>
        <time>2020-06-10T12:09:02Z</time>
      </trkpt>
      <trkpt lat="48.57888" lon="-3.82886">
        <ele>9.3</ele>
        <time>2020-06-10T12:09:03Z</time>
      </trkpt>
      <trkpt lat="48.57888" lon="-3.82886">
        <ele>9.3</ele>
        <time>2020-06-10T12:09:04Z</time>
      </trkpt>
      <trkpt lat="48.57888" lon="-3.82885">
        <ele>9.3</ele>
        <time>2020-06-10T12:09:05Z</time>
      </trkpt>
      <trkpt lat="48.57888" lon="-3.82885">
        <ele>9.3</ele>
        <time>2020-06-10T12:09:06Z</time>
      </trkpt>
      <trkpt lat="48.57889" lon="-3.82884">
        <ele>9.3</ele>
        <time>2020-06-10T12:09:07Z</time>
      </trkpt>
      <trkpt lat="48.57889" lon="-3.82884">
        <ele>9.3</ele>
        <time>2020-06-10T12:09:08Z</time>
      </trkpt>
      <trkpt lat="48.57889" lon="-3.82883">
        <ele>9.3</ele>
        <time>2020-06-10T12:09:09Z</time>
      </trkpt>
      <trkpt lat="48.57889" lon="-3.82883">
        <ele>9.3</ele>
        <time>2020-06-10T12:09:10Z</time>
      </trkpt>
      <trkpt lat="48.57889" lon="-3.82882">
        <ele>9.3</ele>
        <time>2020-06-10T12:09:11Z</time>
      </trkpt>
      <trkpt lat="48.57889" lon="-3.82882">
        <ele>10</ele>
        <time>2020-06-10T12:09:12Z</time>
      </trkpt>
      <trkpt lat="48.5789" lon="-3.82881">
        <ele>10</ele>
        <time>2020-06-10T12:09:13Z</time>
      </trkpt>
      <trkpt lat="48.5789" lon="-3.82881">
        <ele>10</ele>
        <time>2020-06-10T12:09:14Z</time>
      </trkpt>
      <trkpt lat="48.5789" lon="-3.8288">
        <ele>10</ele>
        <time>2020-06-10T12:09:15Z</time>
      </trkpt>
      <trkpt lat="48.5789" lon="-3.8288">
        <ele>10</ele>
        <time>2020-06-10T12:09:16Z</time>
      </trkpt>
      <trkpt lat="48.5789" lon="-3.8288">
        <ele>10</ele>
        <time>2020-06-10T12:10:24Z</time>
      </trkpt>
      <trkpt lat="48.5789" lon="-3.82879">
        <ele>10</ele>
        <time>2020-06-10T12:10:25Z</time>
      </trkpt>
      <trkpt lat="48.57891" lon="-3.82879">
        <ele>10</ele>
        <time>2020-06-10T12:10:26Z</time>
      </trkpt>
      <trkpt lat="48.57891" lon="-3.82878">
        <ele>10</ele>
        <time>2020-06-10T12:10:27Z</time>
      </trkpt>
      <trkpt lat="48.57891" lon="-3.82878">
        <ele>11.1</ele>
        <time>2020-06-10T12:10:28Z</time>
      </trkpt>
      <trkpt lat="48.57891" lon="-3.82877">
        <ele>11.1</ele>
        <time>2020-06-10T12:10:29Z</time>
      </trkpt>
      <trkpt lat="48.57891" lon="-3.82877">
        <ele>11.1</ele>
        <time>2020-06-10T12:10:30Z</time>
      </trkpt>
      <trkpt lat="48.57891" lon="-3.82876">
        <ele>11.1</ele>
        <time>2020-06-10T12:10:31Z</time>
      </trkpt>
      <trkpt lat="48.57891" lon="-3.82876">
        <ele>11.1</ele>
        <time>2020-06-10T12:10:32Z</time>
      </trkpt>
      <trkpt lat="48.57892" lon="-3.82875">
        <ele>11.1</ele>
        <time>2020-06-10T12:10:33Z</time>
      </trkpt>
      <trkpt lat="48.57892" lon="-3.82875">
        <ele>11.1</ele>
        <time>2020-06-10T12:10:34Z</time>
      </trkpt>
      <trkpt lat="48.57892" lon="-3.82874">
        <ele>11.1</ele>
        <time>2020-06-10T12:11:01Z</time>
      </trkpt>
      <trkpt lat="48.57892" lon="-3.82874">
        <ele>11.1</ele>
        <time>2020-06-10T12:11:02Z</time>
      </trkpt>
      <trkpt lat="48.57892" lon="-3.82873">
        <ele>11.7</ele>
        <time>2020-06-10T12:11:03Z</time>
      </trkpt>
      <trkpt lat="48.57892" lon="-3.82873">
        <ele>11.7</ele>
        <time>2020-06-10T12:11:04Z</time>
      </trkpt>
      <trkpt lat="48.57893" lon="-3.82872">
        <ele>11.7</ele>
        <time>2020-06-10T12:11:05Z</time>
      </trkpt>
      <trkpt lat="48.57893" lon="-3.82872">
        <ele>11.7</ele>
        <time>2020-06-10T12:11:06Z</time>
      </trkpt>
      <trkpt lat="48.57893" lon="-3.82872">
        <ele>11.7</ele>
        <time>2020-06-10T12:11:07Z</time>
      </trkpt>
      <trkpt lat="48.57893" lon="-3.82871">
        <ele>11.7</ele>
        <time>2020-06-10T12:11:08Z</time>
      </trkpt>
      <trkpt lat="48.57893" lon="-3.8287">
        <ele>11.7</ele>
        <time>2020-06-10T12:11:09Z</time>
      </trkpt>
      <trkpt lat="48.57893" lon="-3.82873">
        <ele>11.7</ele>
        <time>2020-06-10T12:11:10Z</time>
      </trkpt>
      <trkpt lat="48.57894" lon="-3.82876">
        <ele>11.4</ele>
        <time>2020-06-10T12:11:11Z</time>
      </trkpt>
      <trkpt lat="48.57894" lon="-3.82878">
        <ele>10.6</ele>
        <time>2020-06-10T12:11:12Z</time>
      </trkpt>
      <trkpt lat="48.57893" lon="-3.8288">
        <ele>10.3</ele>
        <time>2020-06-10T12:11:13Z</time>
      </trkpt>
      <trkpt lat="48.57893" lon="-3.82881">
        <ele>10.3</ele>
        <time>2020-06-10T12:11:14Z</time>
      </trkpt>
      <trkpt lat="48.57893" lon="-3.82882">
        <ele>10.3</ele>
        <time>2020-06-10T12:11:15Z</time>
      </trkpt>
      <trkpt lat="48.57893" lon="-3.82881">
        <ele>10.3</ele>
        <time>2020-06-10T12:11:16Z</time>
      </trkpt>
      <trkpt lat="48.57894" lon="-3.82881">
        <ele>10.6</ele>
        <time>2020-06-10T12:11:17Z</time>
      </trkpt>
      <trkpt lat="48.57894" lon="-3.8288">
        <ele>10.6</ele>
        <time>2020-06-10T12:11:18Z</time>
      </trkpt>
      <trkpt lat="48.57895" lon="-3.82881">
        <ele>10.6</ele>
        <time>2020-06-10T12:11:19Z</time>
      </trkpt>
      <trkpt lat="48.57895" lon="-3.82881">
        <ele>10.6</ele>
        <time>2020-06-10T12:11:20Z</time>
      </trkpt>
      <trkpt lat="48.57896" lon="-3.82881">
        <ele>10.6</ele>
        <time>2020-06-10T12:11:21Z</time>
      </trkpt>
      <trkpt lat="48.57896" lon="-3.82881">
        <ele>10.6</ele>
        <time>2020-06-10T12:11:22Z</time>
      </trkpt>
      <trkpt lat="48.57895" lon="-3.8288">
        <ele>10.6</ele>
        <time>2020-06-10T12:11:23Z</time>
      </trkpt>
      <trkpt lat="48.57895" lon="-3.8288">
        <ele>10.6</ele>
        <time>2020-06-10T12:11:24Z</time>
      </trkpt>
      <trkpt lat="48.57894" lon="-3.8288">
        <ele>10.6</ele>
        <time>2020-06-10T12:11:25Z</time>
      </trkpt>
      <trkpt lat="48.57894" lon="-3.8288">
        <ele>10.6</ele>
        <time>2020-06-10T12:11:26Z</time>
      </trkpt>
      <trkpt lat="48.57894" lon="-3.8288">
        <ele>10.6</ele>
        <time>2020-06-10T12:11:27Z</time>
      </trkpt>
      <trkpt lat="48.57893" lon="-3.8288">
        <ele>10.3</ele>
        <time>2020-06-10T12:11:28Z</time>
      </trkpt>
      <trkpt lat="48.57893" lon="-3.8288">
        <ele>10.3</ele>
        <time>2020-06-10T12:11:29Z</time>
      </trkpt>
      <trkpt lat="48.57886" lon="-3.82875">
        <ele>10.4</ele>
        <time>2020-06-10T12:11:33Z</time>
      </trkpt>
      <trkpt lat="48.57885" lon="-3.82874">
        <ele>10</ele>
        <time>2020-06-10T12:11:34Z</time>
      </trkpt>
      <trkpt lat="48.57883" lon="-3.82873">
        <ele>10.6</ele>
        <time>2020-06-10T12:11:35Z</time>
      </trkpt>
      <trkpt lat="48.57882" lon="-3.82873">
        <ele>10.3</ele>
        <time>2020-06-10T12:11:36Z</time>
      </trkpt>
      <trkpt lat="48.57881" lon="-3.82873">
        <ele>10.3</ele>
        <time>2020-06-10T12:11:37Z</time>
      </trkpt>
      <trkpt lat="48.5788" lon="-3.82873">
        <ele>10.3</ele>
        <time>2020-06-10T12:11:38Z</time>
      </trkpt>
      <trkpt lat="48.57879" lon="-3.82873">
        <ele>9.9</ele>
        <time>2020-06-10T12:11:39Z</time>
      </trkpt>
      <trkpt lat="48.57878" lon="-3.82872">
        <ele>9.9</ele>
        <time>2020-06-10T12:11:40Z</time>
      </trkpt>
      <trkpt lat="48.57876" lon="-3.82872">
        <ele>9.6</ele>
        <time>2020-06-10T12:11:41Z</time>
      </trkpt>
      <trkpt lat="48.57875" lon="-3.82872">
        <ele>9.6</ele>
        <time>2020-06-10T12:11:42Z</time>
      </trkpt>
      <trkpt lat="48.57873" lon="-3.82872">
        <ele>9.3</ele>
        <time>2020-06-10T12:11:43Z</time>
      </trkpt>
      <trkpt lat="48.57873" lon="-3.82872">
        <ele>9.3</ele>
        <time>2020-06-10T12:11:44Z</time>
      </trkpt>
      <trkpt lat="48.57872" lon="-3.82872">
        <ele>9.3</ele>
        <time>2020-06-10T12:11:45Z</time>
      </trkpt>
      <trkpt lat="48.57871" lon="-3.82872">
        <ele>9.3</ele>
        <time>2020-06-10T12:11:46Z</time>
      </trkpt>
      <trkpt lat="48.5787" lon="-3.82872">
        <ele>9.1</ele>
        <time>2020-06-10T12:11:47Z</time>
      </trkpt>
      <trkpt lat="48.57869" lon="-3.82873">
        <ele>9.1</ele>
        <time>2020-06-10T12:11:48Z</time>
      </trkpt>
      <trkpt lat="48.57868" lon="-3.82873">
        <ele>8.8</ele>
        <time>2020-06-10T12:11:49Z</time>
      </trkpt>
      <trkpt lat="48.57867" lon="-3.82873">
        <ele>8.8</ele>
        <time>2020-06-10T12:11:50Z</time>
      </trkpt>
      <trkpt lat="48.57867" lon="-3.82872">
        <ele>8.8</ele>
        <time>2020-06-10T12:11:51Z</time>
      </trkpt>
      <trkpt lat="48.57866" lon="-3.82872">
        <ele>8.8</ele>
        <time>2020-06-10T12:11:52Z</time>
      </trkpt>
      <trkpt lat="48.57866" lon="-3.82871">
        <ele>8.8</ele>
        <time>2020-06-10T12:11:53Z</time>
      </trkpt>
      <trkpt lat="48.57865" lon="-3.82871">
        <ele>8.5</ele>
        <time>2020-06-10T12:11:54Z</time>
      </trkpt>
      <trkpt lat="48.57864" lon="-3.8287">
        <ele>8.5</ele>
        <time>2020-06-10T12:11:55Z</time>
      </trkpt>
      <trkpt lat="48.57862" lon="-3.82869">
        <ele>8.7</ele>
        <time>2020-06-10T12:11:56Z</time>
      </trkpt>
      <trkpt lat="48.57861" lon="-3.82868">
        <ele>8.7</ele>
        <time>2020-06-10T12:11:57Z</time>
      </trkpt>
      <trkpt lat="48.57859" lon="-3.82867">
        <ele>8.5</ele>
        <time>2020-06-10T12:11:58Z</time>
      </trkpt>
      <trkpt lat="48.57858" lon="-3.82866">
        <ele>8.5</ele>
        <time>2020-06-10T12:11:59Z</time>
      </trkpt>
      <trkpt lat="48.57858" lon="-3.82865">
        <ele>8.9</ele>
        <time>2020-06-10T12:12:00Z</time>
      </trkpt>
      <trkpt lat="48.57857" lon="-3.82864">
        <ele>8.9</ele>
        <time>2020-06-10T12:12:01Z</time>
      </trkpt>
      <trkpt lat="48.57857" lon="-3.82863">
        <ele>8.6</ele>
        <time>2020-06-10T12:12:02Z</time>
      </trkpt>
      <trkpt lat="48.57856" lon="-3.82862">
        <ele>8.6</ele>
        <time>2020-06-10T12:12:03Z</time>
      </trkpt>
      <trkpt lat="48.57855" lon="-3.8286">
        <ele>9.1</ele>
        <time>2020-06-10T12:12:04Z</time>
      </trkpt>
      <trkpt lat="48.57855" lon="-3.8286">
        <ele>9.1</ele>
        <time>2020-06-10T12:12:05Z</time>
      </trkpt>
      <trkpt lat="48.57854" lon="-3.82858">
        <ele>8.7</ele>
        <time>2020-06-10T12:12:06Z</time>
      </trkpt>
      <trkpt lat="48.57853" lon="-3.82857">
        <ele>8.7</ele>
        <time>2020-06-10T12:12:07Z</time>
      </trkpt>
      <trkpt lat="48.57853" lon="-3.82856">
        <ele>9.2</ele>
        <time>2020-06-10T12:12:08Z</time>
      </trkpt>
      <trkpt lat="48.57853" lon="-3.82856">
        <ele>9.2</ele>
        <time>2020-06-10T12:12:09Z</time>
      </trkpt>
      <trkpt lat="48.57852" lon="-3.82855">
        <ele>9.2</ele>
        <time>2020-06-10T12:12:10Z</time>
      </trkpt>
      <trkpt lat="48.57852" lon="-3.82854">
        <ele>9.2</ele>
        <time>2020-06-10T12:12:11Z</time>
      </trkpt>
      <trkpt lat="48.57852" lon="-3.82854">
        <ele>9.2</ele>
        <time>2020-06-10T12:12:12Z</time>
      </trkpt>
      <trkpt lat="48.57852" lon="-3.82853">
        <ele>9.2</ele>
        <time>2020-06-10T12:12:13Z</time>
      </trkpt>
      <trkpt lat="48.57852" lon="-3.82853">
        <ele>9.2</ele>
        <time>2020-06-10T12:12:14Z</time>
      </trkpt>
      <trkpt lat="48.57852" lon="-3.82854">
        <ele>9.2</ele>
        <time>2020-06-10T12:12:15Z</time>
      </trkpt>
      <trkpt lat="48.57852" lon="-3.82854">
        <ele>9.2</ele>
        <time>2020-06-10T12:12:16Z</time>
      </trkpt>
      <trkpt lat="48.57852" lon="-3.82855">
        <ele>9.2</ele>
        <time>2020-06-10T12:12:17Z</time>
      </trkpt>
      <trkpt lat="48.57851" lon="-3.82856">
        <ele>9.2</ele>
        <time>2020-06-10T12:12:18Z</time>
      </trkpt>
      <trkpt lat="48.57851" lon="-3.82857">
        <ele>8.7</ele>
        <time>2020-06-10T12:12:19Z</time>
      </trkpt>
      <trkpt lat="48.57852" lon="-3.82858">
        <ele>8.7</ele>
        <time>2020-06-10T12:12:20Z</time>
      </trkpt>
      <trkpt lat="48.57853" lon="-3.82858">
        <ele>8.7</ele>
        <time>2020-06-10T12:12:21Z</time>
      </trkpt>
      <trkpt lat="48.57853" lon="-3.82859">
        <ele>8.7</ele>
        <time>2020-06-10T12:12:22Z</time>
      </trkpt>
      <trkpt lat="48.57854" lon="-3.8286">
        <ele>8.7</ele>
        <time>2020-06-10T12:12:23Z</time>
      </trkpt>
      <trkpt lat="48.57854" lon="-3.8286">
        <ele>9.1</ele>
        <time>2020-06-10T12:12:24Z</time>
      </trkpt>
      <trkpt lat="48.57855" lon="-3.82861">
        <ele>8.6</ele>
        <time>2020-06-10T12:12:25Z</time>
      </trkpt>
      <trkpt lat="48.57855" lon="-3.82861">
        <ele>8.6</ele>
        <time>2020-06-10T12:12:26Z</time>
      </trkpt>
      <trkpt lat="48.57856" lon="-3.82861">
        <ele>8.6</ele>
        <time>2020-06-10T12:12:27Z</time>
      </trkpt>
      <trkpt lat="48.57856" lon="-3.82861">
        <ele>8.6</ele>
        <time>2020-06-10T12:12:28Z</time>
      </trkpt>
      <trkpt lat="48.57857" lon="-3.82861">
        <ele>8.6</ele>
        <time>2020-06-10T12:12:29Z</time>
      </trkpt>
      <trkpt lat="48.57857" lon="-3.82861">
        <ele>8.9</ele>
        <time>2020-06-10T12:12:30Z</time>
      </trkpt>
      <trkpt lat="48.57857" lon="-3.82861">
        <ele>8.9</ele>
        <time>2020-06-10T12:12:31Z</time>
      </trkpt>
      <trkpt lat="48.57857" lon="-3.82861">
        <ele>8.9</ele>
        <time>2020-06-10T12:12:32Z</time>
      </trkpt>
      <trkpt lat="48.57857" lon="-3.82861">
        <ele>8.9</ele>
        <time>2020-06-10T12:12:33Z</time>
      </trkpt>
      <trkpt lat="48.57857" lon="-3.82861">
        <ele>8.9</ele>
        <time>2020-06-10T12:12:34Z</time>
      </trkpt>
      <trkpt lat="48.57857" lon="-3.82862">
        <ele>8.9</ele>
        <time>2020-06-10T12:12:35Z</time>
      </trkpt>
      <trkpt lat="48.57858" lon="-3.82863">
        <ele>8.9</ele>
        <time>2020-06-10T12:12:36Z</time>
      </trkpt>
      <trkpt lat="48.57857" lon="-3.82864">
        <ele>8.9</ele>
        <time>2020-06-10T12:12:37Z</time>
      </trkpt>
      <trkpt lat="48.57856" lon="-3.82865">
        <ele>8.6</ele>
        <time>2020-06-10T12:12:38Z</time>
      </trkpt>
      <trkpt lat="48.57855" lon="-3.82865">
        <ele>8.2</ele>
        <time>2020-06-10T12:12:39Z</time>
      </trkpt>
      <trkpt lat="48.57856" lon="-3.82867">
        <ele>8.2</ele>
        <time>2020-06-10T12:12:40Z</time>
      </trkpt>
      <trkpt lat="48.57856" lon="-3.82868">
        <ele>8.2</ele>
        <time>2020-06-10T12:12:41Z</time>
      </trkpt>
      <trkpt lat="48.57857" lon="-3.82869">
        <ele>8.5</ele>
        <time>2020-06-10T12:12:42Z</time>
      </trkpt>
      <trkpt lat="48.57857" lon="-3.82869">
        <ele>8.2</ele>
        <time>2020-06-10T12:12:43Z</time>
      </trkpt>
      <trkpt lat="48.57857" lon="-3.82868">
        <ele>8.2</ele>
        <time>2020-06-10T12:12:44Z</time>
      </trkpt>
      <trkpt lat="48.57856" lon="-3.82868">
        <ele>8.2</ele>
        <time>2020-06-10T12:12:45Z</time>
      </trkpt>
      <trkpt lat="48.57856" lon="-3.82867">
        <ele>8.2</ele>
        <time>2020-06-10T12:12:46Z</time>
      </trkpt>
      <trkpt lat="48.57856" lon="-3.82867">
        <ele>8.2</ele>
        <time>2020-06-10T12:12:47Z</time>
      </trkpt>
      <trkpt lat="48.57856" lon="-3.82866">
        <ele>8.2</ele>
        <time>2020-06-10T12:12:48Z</time>
      </trkpt>
      <trkpt lat="48.57856" lon="-3.82866">
        <ele>8.2</ele>
        <time>2020-06-10T12:12:49Z</time>
      </trkpt>
      <trkpt lat="48.57856" lon="-3.82865">
        <ele>8.2</ele>
        <time>2020-06-10T12:12:50Z</time>
      </trkpt>
      <trkpt lat="48.57856" lon="-3.82865">
        <ele>8.6</ele>
        <time>2020-06-10T12:12:51Z</time>
      </trkpt>
      <trkpt lat="48.57856" lon="-3.82864">
        <ele>8.6</ele>
        <time>2020-06-10T12:12:52Z</time>
      </trkpt>
      <trkpt lat="48.57856" lon="-3.82864">
        <ele>8.6</ele>
        <time>2020-06-10T12:12:53Z</time>
      </trkpt>
      <trkpt lat="48.57856" lon="-3.82863">
        <ele>8.6</ele>
        <time>2020-06-10T12:12:54Z</time>
      </trkpt>
      <trkpt lat="48.57856" lon="-3.82862">
        <ele>8.6</ele>
        <time>2020-06-10T12:12:55Z</time>
      </trkpt>
      <trkpt lat="48.57856" lon="-3.8286">
        <ele>9.1</ele>
        <time>2020-06-10T12:12:56Z</time>
      </trkpt>
      <trkpt lat="48.57856" lon="-3.82859">
        <ele>9.1</ele>
        <time>2020-06-10T12:12:57Z</time>
      </trkpt>
      <trkpt lat="48.57856" lon="-3.82857">
        <ele>9.1</ele>
        <time>2020-06-10T12:12:58Z</time>
      </trkpt>
      <trkpt lat="48.57856" lon="-3.82856">
        <ele>9.6</ele>
        <time>2020-06-10T12:12:59Z</time>
      </trkpt>
      <trkpt lat="48.57856" lon="-3.82855">
        <ele>9.6</ele>
        <time>2020-06-10T12:13:00Z</time>
      </trkpt>
      <trkpt lat="48.57857" lon="-3.82854">
        <ele>9.9</ele>
        <time>2020-06-10T12:13:01Z</time>
      </trkpt>
      <trkpt lat="48.57857" lon="-3.82854">
        <ele>9.9</ele>
        <time>2020-06-10T12:13:02Z</time>
      </trkpt>
      <trkpt lat="48.57858" lon="-3.82853">
        <ele>9.9</ele>
        <time>2020-06-10T12:13:03Z</time>
      </trkpt>
      <trkpt lat="48.57858" lon="-3.82853">
        <ele>9.9</ele>
        <time>2020-06-10T12:13:04Z</time>
      </trkpt>
      <trkpt lat="48.57858" lon="-3.82853">
        <ele>9.9</ele>
        <time>2020-06-10T12:13:05Z</time>
      </trkpt>
      <trkpt lat="48.57859" lon="-3.82852">
        <ele>9.9</ele>
        <time>2020-06-10T12:13:06Z</time>
      </trkpt>
      <trkpt lat="48.57859" lon="-3.82852">
        <ele>9.9</ele>
        <time>2020-06-10T12:13:07Z</time>
      </trkpt>
      <trkpt lat="48.57858" lon="-3.82854">
        <ele>9.9</ele>
        <time>2020-06-10T12:13:08Z</time>
      </trkpt>
      <trkpt lat="48.57857" lon="-3.82854">
        <ele>9.9</ele>
        <time>2020-06-10T12:13:09Z</time>
      </trkpt>
      <trkpt lat="48.57857" lon="-3.82855">
        <ele>9.9</ele>
        <time>2020-06-10T12:13:10Z</time>
      </trkpt>
      <trkpt lat="48.57857" lon="-3.82855">
        <ele>9.9</ele>
        <time>2020-06-10T12:13:11Z</time>
      </trkpt>
      <trkpt lat="48.57857" lon="-3.82856">
        <ele>9.9</ele>
        <time>2020-06-10T12:13:12Z</time>
      </trkpt>
      <trkpt lat="48.57858" lon="-3.82856">
        <ele>9.9</ele>
        <time>2020-06-10T12:13:13Z</time>
      </trkpt>
      <trkpt lat="48.57859" lon="-3.82855">
        <ele>9.9</ele>
        <time>2020-06-10T12:13:33Z</time>
      </trkpt>
      <trkpt lat="48.5786" lon="-3.82855">
        <ele>10.2</ele>
        <time>2020-06-10T12:13:34Z</time>
      </trkpt>
      <trkpt lat="48.5786" lon="-3.82854">
        <ele>10.2</ele>
        <time>2020-06-10T12:13:35Z</time>
      </trkpt>
      <trkpt lat="48.57861" lon="-3.82854">
        <ele>10.2</ele>
        <time>2020-06-10T12:13:36Z</time>
      </trkpt>
      <trkpt lat="48.57862" lon="-3.82853">
        <ele>10.2</ele>
        <time>2020-06-10T12:13:37Z</time>
      </trkpt>
      <trkpt lat="48.57863" lon="-3.82853">
        <ele>10.5</ele>
        <time>2020-06-10T12:13:38Z</time>
      </trkpt>
      <trkpt lat="48.57863" lon="-3.82853">
        <ele>10.5</ele>
        <time>2020-06-10T12:13:39Z</time>
      </trkpt>
      <trkpt lat="48.57863" lon="-3.82853">
        <ele>10.6</ele>
        <time>2020-06-10T12:13:40Z</time>
      </trkpt>
      <trkpt lat="48.57863" lon="-3.82852">
        <ele>10.6</ele>
        <time>2020-06-10T12:13:41Z</time>
      </trkpt>
      <trkpt lat="48.57864" lon="-3.82852">
        <ele>11.1</ele>
        <time>2020-06-10T12:13:42Z</time>
      </trkpt>
      <trkpt lat="48.57864" lon="-3.82852">
        <ele>11.1</ele>
        <time>2020-06-10T12:13:43Z</time>
      </trkpt>
      <trkpt lat="48.57864" lon="-3.82852">
        <ele>11.1</ele>
        <time>2020-06-10T12:13:44Z</time>
      </trkpt>
      <trkpt lat="48.57863" lon="-3.82853">
        <ele>10.8</ele>
        <time>2020-06-10T12:13:45Z</time>
      </trkpt>
      <trkpt lat="48.57863" lon="-3.82853">
        <ele>10.8</ele>
        <time>2020-06-10T12:13:46Z</time>
      </trkpt>
      <trkpt lat="48.57863" lon="-3.82853">
        <ele>10.9</ele>
        <time>2020-06-10T12:13:47Z</time>
      </trkpt>
      <trkpt lat="48.57863" lon="-3.82853">
        <ele>10.9</ele>
        <time>2020-06-10T12:13:48Z</time>
      </trkpt>
      <trkpt lat="48.57863" lon="-3.82853">
        <ele>10.9</ele>
        <time>2020-06-10T12:13:49Z</time>
      </trkpt>
      <trkpt lat="48.57862" lon="-3.82853">
        <ele>10.7</ele>
        <time>2020-06-10T12:13:50Z</time>
      </trkpt>
      <trkpt lat="48.57862" lon="-3.82853">
        <ele>10.7</ele>
        <time>2020-06-10T12:13:51Z</time>
      </trkpt>
      <trkpt lat="48.57862" lon="-3.82854">
        <ele>10.7</ele>
        <time>2020-06-10T12:13:52Z</time>
      </trkpt>
      <trkpt lat="48.57862" lon="-3.82854">
        <ele>10.8</ele>
        <time>2020-06-10T12:13:53Z</time>
      </trkpt>
      <trkpt lat="48.57862" lon="-3.82853">
        <ele>10.8</ele>
        <time>2020-06-10T12:13:54Z</time>
      </trkpt>
      <trkpt lat="48.57861" lon="-3.82852">
        <ele>11.3</ele>
        <time>2020-06-10T12:13:55Z</time>
      </trkpt>
      <trkpt lat="48.57861" lon="-3.82851">
        <ele>11.3</ele>
        <time>2020-06-10T12:13:56Z</time>
      </trkpt>
      <trkpt lat="48.5786" lon="-3.82849">
        <ele>11.3</ele>
        <time>2020-06-10T12:13:57Z</time>
      </trkpt>
      <trkpt lat="48.5786" lon="-3.8285">
        <ele>11.4</ele>
        <time>2020-06-10T12:13:58Z</time>
      </trkpt>
      <trkpt lat="48.57859" lon="-3.82849">
        <ele>11.1</ele>
        <time>2020-06-10T12:13:59Z</time>
      </trkpt>
      <trkpt lat="48.57859" lon="-3.82848">
        <ele>11.2</ele>
        <time>2020-06-10T12:14:00Z</time>
      </trkpt>
      <trkpt lat="48.57859" lon="-3.82847">
        <ele>11.5</ele>
        <time>2020-06-10T12:14:01Z</time>
      </trkpt>
      <trkpt lat="48.57858" lon="-3.82847">
        <ele>11.5</ele>
        <time>2020-06-10T12:14:02Z</time>
      </trkpt>
      <trkpt lat="48.57857" lon="-3.82847">
        <ele>11.6</ele>
        <time>2020-06-10T12:14:03Z</time>
      </trkpt>
      <trkpt lat="48.57856" lon="-3.82846">
        <ele>11.3</ele>
        <time>2020-06-10T12:14:04Z</time>
      </trkpt>
      <trkpt lat="48.57855" lon="-3.82845">
        <ele>11.4</ele>
        <time>2020-06-10T12:14:05Z</time>
      </trkpt>
      <trkpt lat="48.57855" lon="-3.82846">
        <ele>11.4</ele>
        <time>2020-06-10T12:14:06Z</time>
      </trkpt>
      <trkpt lat="48.57855" lon="-3.82845">
        <ele>11.4</ele>
        <time>2020-06-10T12:14:07Z</time>
      </trkpt>
      <trkpt lat="48.57855" lon="-3.82846">
        <ele>11.5</ele>
        <time>2020-06-10T12:14:08Z</time>
      </trkpt>
      <trkpt lat="48.57855" lon="-3.82846">
        <ele>11.5</ele>
        <time>2020-06-10T12:14:09Z</time>
      </trkpt>
      <trkpt lat="48.57854" lon="-3.82846">
        <ele>11.5</ele>
        <time>2020-06-10T12:14:10Z</time>
      </trkpt>
      <trkpt lat="48.57854" lon="-3.82847">
        <ele>11.6</ele>
        <time>2020-06-10T12:14:11Z</time>
      </trkpt>
      <trkpt lat="48.57854" lon="-3.82847">
        <ele>11.6</ele>
        <time>2020-06-10T12:14:12Z</time>
      </trkpt>
      <trkpt lat="48.57854" lon="-3.82847">
        <ele>11.7</ele>
        <time>2020-06-10T12:14:13Z</time>
      </trkpt>
      <trkpt lat="48.57853" lon="-3.82847">
        <ele>11.3</ele>
        <time>2020-06-10T12:14:14Z</time>
      </trkpt>
      <trkpt lat="48.57853" lon="-3.82848">
        <ele>11.3</ele>
        <time>2020-06-10T12:14:15Z</time>
      </trkpt>
      <trkpt lat="48.57853" lon="-3.82847">
        <ele>11.4</ele>
        <time>2020-06-10T12:14:16Z</time>
      </trkpt>
      <trkpt lat="48.57853" lon="-3.82846">
        <ele>11.4</ele>
        <time>2020-06-10T12:14:17Z</time>
      </trkpt>
      <trkpt lat="48.57852" lon="-3.82846">
        <ele>11.5</ele>
        <time>2020-06-10T12:14:18Z</time>
      </trkpt>
      <trkpt lat="48.57851" lon="-3.82845">
        <ele>11.5</ele>
        <time>2020-06-10T12:14:19Z</time>
      </trkpt>
      <trkpt lat="48.57851" lon="-3.82846">
        <ele>11.1</ele>
        <time>2020-06-10T12:14:20Z</time>
      </trkpt>
      <trkpt lat="48.5785" lon="-3.82847">
        <ele>11.1</ele>
        <time>2020-06-10T12:14:21Z</time>
      </trkpt>
      <trkpt lat="48.5785" lon="-3.82848">
        <ele>10.9</ele>
        <time>2020-06-10T12:14:22Z</time>
      </trkpt>
      <trkpt lat="48.5785" lon="-3.8285">
        <ele>11</ele>
        <time>2020-06-10T12:14:23Z</time>
      </trkpt>
      <trkpt lat="48.57851" lon="-3.8285">
        <ele>11</ele>
        <time>2020-06-10T12:14:24Z</time>
      </trkpt>
      <trkpt lat="48.57849" lon="-3.82848">
        <ele>11</ele>
        <time>2020-06-10T12:14:25Z</time>
      </trkpt>
      <trkpt lat="48.57851" lon="-3.82849">
        <ele>11.1</ele>
        <time>2020-06-10T12:14:26Z</time>
      </trkpt>
      <trkpt lat="48.5785" lon="-3.82848">
        <ele>11.1</ele>
        <time>2020-06-10T12:14:27Z</time>
      </trkpt>
      <trkpt lat="48.5785" lon="-3.82847">
        <ele>11.4</ele>
        <time>2020-06-10T12:14:28Z</time>
      </trkpt>
      <trkpt lat="48.5785" lon="-3.82847">
        <ele>11.4</ele>
        <time>2020-06-10T12:14:29Z</time>
      </trkpt>
      <trkpt lat="48.5785" lon="-3.82846">
        <ele>11.5</ele>
        <time>2020-06-10T12:14:30Z</time>
      </trkpt>
      <trkpt lat="48.5785" lon="-3.82846">
        <ele>11.5</ele>
        <time>2020-06-10T12:14:31Z</time>
      </trkpt>
      <trkpt lat="48.5785" lon="-3.82845">
        <ele>11.6</ele>
        <time>2020-06-10T12:14:32Z</time>
      </trkpt>
      <trkpt lat="48.5785" lon="-3.82844">
        <ele>11.6</ele>
        <time>2020-06-10T12:14:33Z</time>
      </trkpt>
      <trkpt lat="48.5785" lon="-3.82843">
        <ele>11.8</ele>
        <time>2020-06-10T12:14:34Z</time>
      </trkpt>
      <trkpt lat="48.5785" lon="-3.82843">
        <ele>11.8</ele>
        <time>2020-06-10T12:14:35Z</time>
      </trkpt>
      <trkpt lat="48.5785" lon="-3.82843">
        <ele>11.9</ele>
        <time>2020-06-10T12:14:36Z</time>
      </trkpt>
      <trkpt lat="48.57851" lon="-3.82843">
        <ele>11.9</ele>
        <time>2020-06-10T12:14:37Z</time>
      </trkpt>
      <trkpt lat="48.57851" lon="-3.82843">
        <ele>11.9</ele>
        <time>2020-06-10T12:14:38Z</time>
      </trkpt>
      <trkpt lat="48.5785" lon="-3.82842">
        <ele>12</ele>
        <time>2020-06-10T12:14:39Z</time>
      </trkpt>
      <trkpt lat="48.5785" lon="-3.82841">
        <ele>12</ele>
        <time>2020-06-10T12:14:40Z</time>
      </trkpt>
      <trkpt lat="48.57851" lon="-3.82841">
        <ele>12.1</ele>
        <time>2020-06-10T12:14:41Z</time>
      </trkpt>
      <trkpt lat="48.57851" lon="-3.82841">
        <ele>12.1</ele>
        <time>2020-06-10T12:14:42Z</time>
      </trkpt>
      <trkpt lat="48.57851" lon="-3.82841">
        <ele>12.6</ele>
        <time>2020-06-10T12:14:43Z</time>
      </trkpt>
      <trkpt lat="48.57851" lon="-3.82841">
        <ele>12.6</ele>
        <time>2020-06-10T12:14:44Z</time>
      </trkpt>
      <trkpt lat="48.57851" lon="-3.82842">
        <ele>12.6</ele>
        <time>2020-06-10T12:14:45Z</time>
      </trkpt>
      <trkpt lat="48.57851" lon="-3.82842">
        <ele>12.7</ele>
        <time>2020-06-10T12:14:46Z</time>
      </trkpt>
      <trkpt lat="48.57851" lon="-3.82842">
        <ele>12.7</ele>
        <time>2020-06-10T12:14:47Z</time>
      </trkpt>
      <trkpt lat="48.57851" lon="-3.82843">
        <ele>12.8</ele>
        <time>2020-06-10T12:14:48Z</time>
      </trkpt>
      <trkpt lat="48.57851" lon="-3.82843">
        <ele>12.8</ele>
        <time>2020-06-10T12:14:49Z</time>
      </trkpt>
      <trkpt lat="48.57851" lon="-3.82843">
        <ele>12.4</ele>
        <time>2020-06-10T12:14:50Z</time>
      </trkpt>
      <trkpt lat="48.57856" lon="-3.82853">
        <ele>12.4</ele>
        <time>2020-06-10T12:16:20Z</time>
      </trkpt>
      <trkpt lat="48.57855" lon="-3.82854">
        <ele>12.4</ele>
        <time>2020-06-10T12:16:21Z</time>
      </trkpt>
      <trkpt lat="48.57855" lon="-3.82854">
        <ele>12.5</ele>
        <time>2020-06-10T12:16:22Z</time>
      </trkpt>
      <trkpt lat="48.57855" lon="-3.82854">
        <ele>12.5</ele>
        <time>2020-06-10T12:16:23Z</time>
      </trkpt>
      <trkpt lat="48.57855" lon="-3.82855">
        <ele>12.5</ele>
        <time>2020-06-10T12:16:24Z</time>
      </trkpt>
      <trkpt lat="48.57855" lon="-3.82855">
        <ele>12.6</ele>
        <time>2020-06-10T12:16:25Z</time>
      </trkpt>
      <trkpt lat="48.57856" lon="-3.82855">
        <ele>12.6</ele>
        <time>2020-06-10T12:16:26Z</time>
      </trkpt>
      <trkpt lat="48.57856" lon="-3.82855">
        <ele>12.6</ele>
        <time>2020-06-10T12:16:27Z</time>
      </trkpt>
      <trkpt lat="48.57856" lon="-3.82854">
        <ele>12.7</ele>
        <time>2020-06-10T12:16:28Z</time>
      </trkpt>
      <trkpt lat="48.57856" lon="-3.82853">
        <ele>12.7</ele>
        <time>2020-06-10T12:16:29Z</time>
      </trkpt>
      <trkpt lat="48.57856" lon="-3.82854">
        <ele>12.8</ele>
        <time>2020-06-10T12:16:30Z</time>
      </trkpt>
      <trkpt lat="48.57858" lon="-3.82854">
        <ele>13.2</ele>
        <time>2020-06-10T12:16:31Z</time>
      </trkpt>
      <trkpt lat="48.57858" lon="-3.82853">
        <ele>13.2</ele>
        <time>2020-06-10T12:16:32Z</time>
      </trkpt>
      <trkpt lat="48.57858" lon="-3.82852">
        <ele>13.7</ele>
        <time>2020-06-10T12:16:33Z</time>
      </trkpt>
      <trkpt lat="48.57858" lon="-3.82852">
        <ele>13.7</ele>
        <time>2020-06-10T12:16:34Z</time>
      </trkpt>
      <trkpt lat="48.57858" lon="-3.82851">
        <ele>13.7</ele>
        <time>2020-06-10T12:16:35Z</time>
      </trkpt>
      <trkpt lat="48.57858" lon="-3.82851">
        <ele>13.8</ele>
        <time>2020-06-10T12:16:36Z</time>
      </trkpt>
      <trkpt lat="48.57858" lon="-3.8285">
        <ele>13.8</ele>
        <time>2020-06-10T12:16:37Z</time>
      </trkpt>
      <trkpt lat="48.57858" lon="-3.8285">
        <ele>13.8</ele>
        <time>2020-06-10T12:16:38Z</time>
      </trkpt>
      <trkpt lat="48.57859" lon="-3.8285">
        <ele>13.9</ele>
        <time>2020-06-10T12:16:39Z</time>
      </trkpt>
      <trkpt lat="48.57859" lon="-3.82847">
        <ele>14.2</ele>
        <time>2020-06-10T12:16:40Z</time>
      </trkpt>
      <trkpt lat="48.57859" lon="-3.82846">
        <ele>14.3</ele>
        <time>2020-06-10T12:16:41Z</time>
      </trkpt>
      <trkpt lat="48.57859" lon="-3.82845">
        <ele>14.3</ele>
        <time>2020-06-10T12:16:42Z</time>
      </trkpt>
      <trkpt lat="48.57859" lon="-3.82844">
        <ele>14.3</ele>
        <time>2020-06-10T12:16:43Z</time>
      </trkpt>
      <trkpt lat="48.57859" lon="-3.82841">
        <ele>14.6</ele>
        <time>2020-06-10T12:16:44Z</time>
      </trkpt>
      <trkpt lat="48.57859" lon="-3.82839">
        <ele>14.6</ele>
        <time>2020-06-10T12:16:45Z</time>
      </trkpt>
      <trkpt lat="48.57859" lon="-3.82838">
        <ele>14.8</ele>
        <time>2020-06-10T12:16:46Z</time>
      </trkpt>
      <trkpt lat="48.57859" lon="-3.82837">
        <ele>14.8</ele>
        <time>2020-06-10T12:16:47Z</time>
      </trkpt>
      <trkpt lat="48.57859" lon="-3.82835">
        <ele>14.8</ele>
        <time>2020-06-10T12:16:48Z</time>
      </trkpt>
      <trkpt lat="48.57859" lon="-3.82834">
        <ele>14.7</ele>
        <time>2020-06-10T12:16:49Z</time>
      </trkpt>
      <trkpt lat="48.5786" lon="-3.82833">
        <ele>15</ele>
        <time>2020-06-10T12:16:50Z</time>
      </trkpt>
      <trkpt lat="48.5786" lon="-3.82833">
        <ele>15</ele>
        <time>2020-06-10T12:16:51Z</time>
      </trkpt>
      <trkpt lat="48.5786" lon="-3.82833">
        <ele>15</ele>
        <time>2020-06-10T12:16:52Z</time>
      </trkpt>
      <trkpt lat="48.57861" lon="-3.82833">
        <ele>15</ele>
        <time>2020-06-10T12:16:53Z</time>
      </trkpt>
      <trkpt lat="48.57861" lon="-3.82833">
        <ele>15</ele>
        <time>2020-06-10T12:16:54Z</time>
      </trkpt>
      <trkpt lat="48.57861" lon="-3.82832">
        <ele>15</ele>
        <time>2020-06-10T12:16:55Z</time>
      </trkpt>
      <trkpt lat="48.57862" lon="-3.82832">
        <ele>15</ele>
        <time>2020-06-10T12:16:56Z</time>
      </trkpt>
      <trkpt lat="48.57862" lon="-3.82832">
        <ele>15</ele>
        <time>2020-06-10T12:16:57Z</time>
      </trkpt>
      <trkpt lat="48.57862" lon="-3.8283">
        <ele>14.9</ele>
        <time>2020-06-10T12:16:58Z</time>
      </trkpt>
      <trkpt lat="48.57862" lon="-3.82829">
        <ele>15.2</ele>
        <time>2020-06-10T12:16:59Z</time>
      </trkpt>
      <trkpt lat="48.57863" lon="-3.82829">
        <ele>15.2</ele>
        <time>2020-06-10T12:17:00Z</time>
      </trkpt>
      <trkpt lat="48.57863" lon="-3.82828">
        <ele>15.2</ele>
        <time>2020-06-10T12:17:01Z</time>
      </trkpt>
      <trkpt lat="48.57863" lon="-3.82827">
        <ele>15.2</ele>
        <time>2020-06-10T12:17:02Z</time>
      </trkpt>
      <trkpt lat="48.57863" lon="-3.82828">
        <ele>15.2</ele>
        <time>2020-06-10T12:17:03Z</time>
      </trkpt>
      <trkpt lat="48.57862" lon="-3.82829">
        <ele>14.9</ele>
        <time>2020-06-10T12:17:04Z</time>
      </trkpt>
      <trkpt lat="48.57862" lon="-3.8283">
        <ele>14.9</ele>
        <time>2020-06-10T12:17:05Z</time>
      </trkpt>
      <trkpt lat="48.57861" lon="-3.8283">
        <ele>14.9</ele>
        <time>2020-06-10T12:17:06Z</time>
      </trkpt>
      <trkpt lat="48.57862" lon="-3.82829">
        <ele>14.9</ele>
        <time>2020-06-10T12:17:07Z</time>
      </trkpt>
      <trkpt lat="48.57863" lon="-3.8283">
        <ele>15.2</ele>
        <time>2020-06-10T12:17:08Z</time>
      </trkpt>
      <trkpt lat="48.57863" lon="-3.8283">
        <ele>15.2</ele>
        <time>2020-06-10T12:17:09Z</time>
      </trkpt>
      <trkpt lat="48.57863" lon="-3.8283">
        <ele>15.2</ele>
        <time>2020-06-10T12:17:10Z</time>
      </trkpt>
      <trkpt lat="48.57863" lon="-3.82829">
        <ele>15.2</ele>
        <time>2020-06-10T12:17:11Z</time>
      </trkpt>
      <trkpt lat="48.57863" lon="-3.8283">
        <ele>15.2</ele>
        <time>2020-06-10T12:17:12Z</time>
      </trkpt>
      <trkpt lat="48.57862" lon="-3.8283">
        <ele>15.2</ele>
        <time>2020-06-10T12:17:13Z</time>
      </trkpt>
      <trkpt lat="48.57862" lon="-3.82829">
        <ele>15.2</ele>
        <time>2020-06-10T12:17:14Z</time>
      </trkpt>
      <trkpt lat="48.57862" lon="-3.82827">
        <ele>14.9</ele>
        <time>2020-06-10T12:17:15Z</time>
      </trkpt>
      <trkpt lat="48.57862" lon="-3.82827">
        <ele>14.9</ele>
        <time>2020-06-10T12:17:16Z</time>
      </trkpt>
      <trkpt lat="48.57862" lon="-3.82826">
        <ele>14.8</ele>
        <time>2020-06-10T12:17:17Z</time>
      </trkpt>
      <trkpt lat="48.57862" lon="-3.82827">
        <ele>14.9</ele>
        <time>2020-06-10T12:17:18Z</time>
      </trkpt>
      <trkpt lat="48.57862" lon="-3.82827">
        <ele>15.2</ele>
        <time>2020-06-10T12:17:19Z</time>
      </trkpt>
      <trkpt lat="48.57863" lon="-3.82828">
        <ele>15.2</ele>
        <time>2020-06-10T12:17:20Z</time>
      </trkpt>
      <trkpt lat="48.57863" lon="-3.82827">
        <ele>15.2</ele>
        <time>2020-06-10T12:17:21Z</time>
      </trkpt>
      <trkpt lat="48.57862" lon="-3.82828">
        <ele>15.2</ele>
        <time>2020-06-10T12:17:22Z</time>
      </trkpt>
      <trkpt lat="48.57862" lon="-3.82828">
        <ele>14.9</ele>
        <time>2020-06-10T12:17:23Z</time>
      </trkpt>
      <trkpt lat="48.57862" lon="-3.82829">
        <ele>14.9</ele>
        <time>2020-06-10T12:17:24Z</time>
      </trkpt>
      <trkpt lat="48.57861" lon="-3.82829">
        <ele>14.9</ele>
        <time>2020-06-10T12:17:25Z</time>
      </trkpt>
      <trkpt lat="48.57861" lon="-3.8283">
        <ele>14.9</ele>
        <time>2020-06-10T12:17:26Z</time>
      </trkpt>
      <trkpt lat="48.5786" lon="-3.82831">
        <ele>15</ele>
        <time>2020-06-10T12:17:27Z</time>
      </trkpt>
      <trkpt lat="48.5786" lon="-3.82832">
        <ele>15</ele>
        <time>2020-06-10T12:17:28Z</time>
      </trkpt>
      <trkpt lat="48.5786" lon="-3.82831">
        <ele>15</ele>
        <time>2020-06-10T12:17:29Z</time>
      </trkpt>
      <trkpt lat="48.57862" lon="-3.8283">
        <ele>14.9</ele>
        <time>2020-06-10T12:17:30Z</time>
      </trkpt>
      <trkpt lat="48.57863" lon="-3.82831">
        <ele>15.3</ele>
        <time>2020-06-10T12:17:31Z</time>
      </trkpt>
      <trkpt lat="48.57864" lon="-3.82831">
        <ele>15.3</ele>
        <time>2020-06-10T12:17:32Z</time>
      </trkpt>
      <trkpt lat="48.57863" lon="-3.82831">
        <ele>15.3</ele>
        <time>2020-06-10T12:17:33Z</time>
      </trkpt>
      <trkpt lat="48.57863" lon="-3.82832">
        <ele>15.3</ele>
        <time>2020-06-10T12:17:34Z</time>
      </trkpt>
      <trkpt lat="48.57863" lon="-3.82832">
        <ele>15.3</ele>
        <time>2020-06-10T12:17:35Z</time>
      </trkpt>
      <trkpt lat="48.57862" lon="-3.82832">
        <ele>15</ele>
        <time>2020-06-10T12:17:36Z</time>
      </trkpt>
      <trkpt lat="48.57862" lon="-3.82832">
        <ele>15</ele>
        <time>2020-06-10T12:17:37Z</time>
      </trkpt>
      <trkpt lat="48.57862" lon="-3.82832">
        <ele>15</ele>
        <time>2020-06-10T12:17:38Z</time>
      </trkpt>
      <trkpt lat="48.57861" lon="-3.82832">
        <ele>15</ele>
        <time>2020-06-10T12:17:39Z</time>
      </trkpt>
      <trkpt lat="48.57861" lon="-3.82832">
        <ele>15</ele>
        <time>2020-06-10T12:17:40Z</time>
      </trkpt>
      <trkpt lat="48.57861" lon="-3.82832">
        <ele>15</ele>
        <time>2020-06-10T12:17:41Z</time>
      </trkpt>
      <trkpt lat="48.5786" lon="-3.82832">
        <ele>15</ele>
        <time>2020-06-10T12:17:42Z</time>
      </trkpt>
      <trkpt lat="48.5786" lon="-3.82832">
        <ele>15</ele>
        <time>2020-06-10T12:17:43Z</time>
      </trkpt>
      <trkpt lat="48.5786" lon="-3.82832">
        <ele>15</ele>
        <time>2020-06-10T12:17:44Z</time>
      </trkpt>
      <trkpt lat="48.57859" lon="-3.82832">
        <ele>14.7</ele>
        <time>2020-06-10T12:17:45Z</time>
      </trkpt>
      <trkpt lat="48.57859" lon="-3.82832">
        <ele>14.7</ele>
        <time>2020-06-10T12:17:46Z</time>
      </trkpt>
      <trkpt lat="48.57859" lon="-3.82832">
        <ele>14.7</ele>
        <time>2020-06-10T12:17:47Z</time>
      </trkpt>
      <trkpt lat="48.57858" lon="-3.82832">
        <ele>14.7</ele>
        <time>2020-06-10T12:17:48Z</time>
      </trkpt>
      <trkpt lat="48.57858" lon="-3.82832">
        <ele>14.7</ele>
        <time>2020-06-10T12:17:49Z</time>
      </trkpt>
      <trkpt lat="48.57858" lon="-3.82832">
        <ele>14.7</ele>
        <time>2020-06-10T12:18:28Z</time>
      </trkpt>
      <trkpt lat="48.57857" lon="-3.82832">
        <ele>14.7</ele>
        <time>2020-06-10T12:18:29Z</time>
      </trkpt>
      <trkpt lat="48.57857" lon="-3.82832">
        <ele>14.7</ele>
        <time>2020-06-10T12:18:30Z</time>
      </trkpt>
      <trkpt lat="48.57857" lon="-3.82832">
        <ele>14.7</ele>
        <time>2020-06-10T12:18:31Z</time>
      </trkpt>
      <trkpt lat="48.57857" lon="-3.82833">
        <ele>14.4</ele>
        <time>2020-06-10T12:18:32Z</time>
      </trkpt>
      <trkpt lat="48.57856" lon="-3.82833">
        <ele>14.4</ele>
        <time>2020-06-10T12:18:33Z</time>
      </trkpt>
      <trkpt lat="48.57856" lon="-3.82833">
        <ele>14.4</ele>
        <time>2020-06-10T12:18:34Z</time>
      </trkpt>
      <trkpt lat="48.57856" lon="-3.82833">
        <ele>14.4</ele>
        <time>2020-06-10T12:18:35Z</time>
      </trkpt>
      <trkpt lat="48.57855" lon="-3.82835">
        <ele>14.4</ele>
        <time>2020-06-10T12:18:36Z</time>
      </trkpt>
      <trkpt lat="48.57855" lon="-3.82837">
        <ele>14.4</ele>
        <time>2020-06-10T12:18:37Z</time>
      </trkpt>
      <trkpt lat="48.57855" lon="-3.82838">
        <ele>14.4</ele>
        <time>2020-06-10T12:18:38Z</time>
      </trkpt>
      <trkpt lat="48.57855" lon="-3.8284">
        <ele>14.3</ele>
        <time>2020-06-10T12:18:39Z</time>
      </trkpt>
      <trkpt lat="48.57855" lon="-3.8284">
        <ele>14.3</ele>
        <time>2020-06-10T12:18:40Z</time>
      </trkpt>
      <trkpt lat="48.57855" lon="-3.8284">
        <ele>14.3</ele>
        <time>2020-06-10T12:18:41Z</time>
      </trkpt>
      <trkpt lat="48.57855" lon="-3.82841">
        <ele>14.3</ele>
        <time>2020-06-10T12:18:42Z</time>
      </trkpt>
      <trkpt lat="48.57854" lon="-3.82841">
        <ele>14.3</ele>
        <time>2020-06-10T12:18:43Z</time>
      </trkpt>
      <trkpt lat="48.5785" lon="-3.82845">
        <ele>13.3</ele>
        <time>2020-06-10T12:19:57Z</time>
      </trkpt>
      <trkpt lat="48.5785" lon="-3.82844">
        <ele>13.3</ele>
        <time>2020-06-10T12:19:58Z</time>
      </trkpt>
      <trkpt lat="48.57849" lon="-3.82843">
        <ele>13.5</ele>
        <time>2020-06-10T12:19:59Z</time>
      </trkpt>
      <trkpt lat="48.57848" lon="-3.82842">
        <ele>13.5</ele>
        <time>2020-06-10T12:20:00Z</time>
      </trkpt>
      <trkpt lat="48.57849" lon="-3.82842">
        <ele>13.5</ele>
        <time>2020-06-10T12:20:01Z</time>
      </trkpt>
      <trkpt lat="48.57848" lon="-3.8284">
        <ele>13</ele>
        <time>2020-06-10T12:20:02Z</time>
      </trkpt>
      <trkpt lat="48.57847" lon="-3.82839">
        <ele>13</ele>
        <time>2020-06-10T12:20:03Z</time>
      </trkpt>
      <trkpt lat="48.57847" lon="-3.82839">
        <ele>13.1</ele>
        <time>2020-06-10T12:20:04Z</time>
      </trkpt>
      <trkpt lat="48.57846" lon="-3.82838">
        <ele>13.1</ele>
        <time>2020-06-10T12:20:05Z</time>
      </trkpt>
      <trkpt lat="48.57846" lon="-3.82837">
        <ele>13.1</ele>
        <time>2020-06-10T12:20:06Z</time>
      </trkpt>
      <trkpt lat="48.57846" lon="-3.82837">
        <ele>13.1</ele>
        <time>2020-06-10T12:20:07Z</time>
      </trkpt>
      <trkpt lat="48.57846" lon="-3.82836">
        <ele>13.1</ele>
        <time>2020-06-10T12:20:08Z</time>
      </trkpt>
      <trkpt lat="48.57846" lon="-3.82836">
        <ele>13.1</ele>
        <time>2020-06-10T12:20:09Z</time>
      </trkpt>
      <trkpt lat="48.57854" lon="-3.82841">
        <ele>14.3</ele>
        <time>2020-06-10T12:20:32Z</time>
      </trkpt>
      <trkpt lat="48.57854" lon="-3.82841">
        <ele>14.3</ele>
        <time>2020-06-10T12:20:33Z</time>
      </trkpt>
      <trkpt lat="48.57854" lon="-3.8284">
        <ele>13.9</ele>
        <time>2020-06-10T12:20:34Z</time>
      </trkpt>
      <trkpt lat="48.57853" lon="-3.82839">
        <ele>13.9</ele>
        <time>2020-06-10T12:20:35Z</time>
      </trkpt>
      <trkpt lat="48.57853" lon="-3.82838">
        <ele>14</ele>
        <time>2020-06-10T12:20:36Z</time>
      </trkpt>
      <trkpt lat="48.57852" lon="-3.82838">
        <ele>14</ele>
        <time>2020-06-10T12:20:37Z</time>
      </trkpt>
      <trkpt lat="48.57851" lon="-3.82837">
        <ele>14</ele>
        <time>2020-06-10T12:20:38Z</time>
      </trkpt>
      <trkpt lat="48.5785" lon="-3.82837">
        <ele>13.6</ele>
        <time>2020-06-10T12:20:39Z</time>
      </trkpt>
      <trkpt lat="48.5785" lon="-3.82836">
        <ele>13.6</ele>
        <time>2020-06-10T12:20:40Z</time>
      </trkpt>
      <trkpt lat="48.57849" lon="-3.82836">
        <ele>13.6</ele>
        <time>2020-06-10T12:20:41Z</time>
      </trkpt>
      <trkpt lat="48.57848" lon="-3.82836">
        <ele>13.1</ele>
        <time>2020-06-10T12:20:42Z</time>
      </trkpt>
      <trkpt lat="48.57847" lon="-3.82835">
        <ele>13.1</ele>
        <time>2020-06-10T12:20:43Z</time>
      </trkpt>
      <trkpt lat="48.57846" lon="-3.82835">
        <ele>13.1</ele>
        <time>2020-06-10T12:20:44Z</time>
      </trkpt>
      <trkpt lat="48.57846" lon="-3.82836">
        <ele>13.1</ele>
        <time>2020-06-10T12:20:45Z</time>
      </trkpt>
      <trkpt lat="48.57845" lon="-3.82835">
        <ele>13.1</ele>
        <time>2020-06-10T12:20:46Z</time>
      </trkpt>
      <trkpt lat="48.57845" lon="-3.82835">
        <ele>13.1</ele>
        <time>2020-06-10T12:20:47Z</time>
      </trkpt>
      <trkpt lat="48.57845" lon="-3.82835">
        <ele>13.1</ele>
        <time>2020-06-10T12:20:48Z</time>
      </trkpt>
      <trkpt lat="48.57845" lon="-3.82835">
        <ele>13.1</ele>
        <time>2020-06-10T12:20:49Z</time>
      </trkpt>
      <trkpt lat="48.57845" lon="-3.82835">
        <ele>13.1</ele>
        <time>2020-06-10T12:20:50Z</time>
      </trkpt>
      <trkpt lat="48.57845" lon="-3.82835">
        <ele>13.1</ele>
        <time>2020-06-10T12:20:51Z</time>
      </trkpt>
      <trkpt lat="48.57845" lon="-3.82835">
        <ele>13.1</ele>
        <time>2020-06-10T12:20:52Z</time>
      </trkpt>
      <trkpt lat="48.57845" lon="-3.82835">
        <ele>13.1</ele>
        <time>2020-06-10T12:20:53Z</time>
      </trkpt>
      <trkpt lat="48.57845" lon="-3.82835">
        <ele>13.1</ele>
        <time>2020-06-10T12:20:54Z</time>
      </trkpt>
      <trkpt lat="48.57846" lon="-3.82835">
        <ele>13.1</ele>
        <time>2020-06-10T12:20:55Z</time>
      </trkpt>
      <trkpt lat="48.57847" lon="-3.82836">
        <ele>13.1</ele>
        <time>2020-06-10T12:20:56Z</time>
      </trkpt>
      <trkpt lat="48.57847" lon="-3.82836">
        <ele>13.1</ele>
        <time>2020-06-10T12:20:57Z</time>
      </trkpt>
      <trkpt lat="48.57853" lon="-3.82837">
        <ele>14</ele>
        <time>2020-06-10T12:21:29Z</time>
      </trkpt>
      <trkpt lat="48.57853" lon="-3.82836">
        <ele>14</ele>
        <time>2020-06-10T12:21:30Z</time>
      </trkpt>
      <trkpt lat="48.57853" lon="-3.82836">
        <ele>14</ele>
        <time>2020-06-10T12:21:31Z</time>
      </trkpt>
      <trkpt lat="48.57852" lon="-3.82836">
        <ele>14</ele>
        <time>2020-06-10T12:21:32Z</time>
      </trkpt>
      <trkpt lat="48.57852" lon="-3.82836">
        <ele>14</ele>
        <time>2020-06-10T12:21:33Z</time>
      </trkpt>
      <trkpt lat="48.57852" lon="-3.82836">
        <ele>14</ele>
        <time>2020-06-10T12:21:34Z</time>
      </trkpt>
      <trkpt lat="48.57852" lon="-3.82835">
        <ele>14</ele>
        <time>2020-06-10T12:21:35Z</time>
      </trkpt>
      <trkpt lat="48.57853" lon="-3.82835">
        <ele>14</ele>
        <time>2020-06-10T12:21:36Z</time>
      </trkpt>
      <trkpt lat="48.57853" lon="-3.82834">
        <ele>14</ele>
        <time>2020-06-10T12:21:37Z</time>
      </trkpt>
      <trkpt lat="48.57853" lon="-3.82834">
        <ele>14</ele>
        <time>2020-06-10T12:21:38Z</time>
      </trkpt>
      <trkpt lat="48.57849" lon="-3.8284">
        <ele>13.5</ele>
        <time>2020-06-10T12:21:39Z</time>
      </trkpt>
      <trkpt lat="48.57845" lon="-3.82845">
        <ele>12.3</ele>
        <time>2020-06-10T12:21:56Z</time>
      </trkpt>
      <trkpt lat="48.5784" lon="-3.8285">
        <ele>11.5</ele>
        <time>2020-06-10T12:21:57Z</time>
      </trkpt>
      <trkpt lat="48.57836" lon="-3.82856">
        <ele>10.2</ele>
        <time>2020-06-10T12:21:58Z</time>
      </trkpt>
      <trkpt lat="48.57831" lon="-3.82861">
        <ele>9.5</ele>
        <time>2020-06-10T12:21:59Z</time>
      </trkpt>
      <trkpt lat="48.57827" lon="-3.82866">
        <ele>9.1</ele>
        <time>2020-06-10T12:22:00Z</time>
      </trkpt>
      <trkpt lat="48.57822" lon="-3.82872">
        <ele>9.4</ele>
        <time>2020-06-10T12:22:01Z</time>
      </trkpt>
      <trkpt lat="48.57818" lon="-3.82877">
        <ele>10</ele>
        <time>2020-06-10T12:22:11Z</time>
      </trkpt>
      <trkpt lat="48.57814" lon="-3.82882">
        <ele>11.6</ele>
        <time>2020-06-10T13:22:30Z</time>
      </trkpt>
      <trkpt lat="48.57809" lon="-3.82888">
        <ele>12.4</ele>
        <time>2020-06-10T13:22:31Z</time>
      </trkpt>
      <trkpt lat="48.57809" lon="-3.82886">
        <ele>11.8</ele>
        <time>2020-06-10T13:22:32Z</time>
      </trkpt>
      <trkpt lat="48.57811" lon="-3.82888">
        <ele>12.4</ele>
        <time>2020-06-10T13:22:33Z</time>
      </trkpt>
      <trkpt lat="48.57812" lon="-3.8289">
        <ele>12.3</ele>
        <time>2020-06-10T13:22:34Z</time>
      </trkpt>
      <trkpt lat="48.57814" lon="-3.82891">
        <ele>12.3</ele>
        <time>2020-06-10T13:22:35Z</time>
      </trkpt>
      <trkpt lat="48.57814" lon="-3.82892">
        <ele>13</ele>
        <time>2020-06-10T13:22:36Z</time>
      </trkpt>
      <trkpt lat="48.57815" lon="-3.82893">
        <ele>13</ele>
        <time>2020-06-10T13:22:37Z</time>
      </trkpt>
      <trkpt lat="48.57815" lon="-3.82893">
        <ele>13</ele>
        <time>2020-06-10T13:22:38Z</time>
      </trkpt>
      <trkpt lat="48.57815" lon="-3.82893">
        <ele>13</ele>
        <time>2020-06-10T13:22:39Z</time>
      </trkpt>
      <trkpt lat="48.57815" lon="-3.82892">
        <ele>13</ele>
        <time>2020-06-10T13:22:40Z</time>
      </trkpt>
      <trkpt lat="48.57815" lon="-3.82893">
        <ele>13</ele>
        <time>2020-06-10T13:22:41Z</time>
      </trkpt>
      <trkpt lat="48.57816" lon="-3.82894">
        <ele>13</ele>
        <time>2020-06-10T13:22:42Z</time>
      </trkpt>
      <trkpt lat="48.57816" lon="-3.82894">
        <ele>13</ele>
        <time>2020-06-10T13:22:43Z</time>
      </trkpt>
      <trkpt lat="48.57816" lon="-3.82894">
        <ele>13</ele>
        <time>2020-06-10T13:22:44Z</time>
      </trkpt>
      <trkpt lat="48.57816" lon="-3.82894">
        <ele>13</ele>
        <time>2020-06-10T13:22:45Z</time>
      </trkpt>
      <trkpt lat="48.57816" lon="-3.82894">
        <ele>13</ele>
        <time>2020-06-10T13:22:46Z</time>
      </trkpt>
      <trkpt lat="48.57817" lon="-3.82895">
        <ele>13</ele>
        <time>2020-06-10T13:22:47Z</time>
      </trkpt>
      <trkpt lat="48.57817" lon="-3.82895">
        <ele>13.7</ele>
        <time>2020-06-10T13:22:48Z</time>
      </trkpt>
      <trkpt lat="48.57816" lon="-3.82895">
        <ele>13.7</ele>
        <time>2020-06-10T13:22:49Z</time>
      </trkpt>
      <trkpt lat="48.57816" lon="-3.82895">
        <ele>13.7</ele>
        <time>2020-06-10T13:22:50Z</time>
      </trkpt>
      <trkpt lat="48.57816" lon="-3.82896">
        <ele>13.7</ele>
        <time>2020-06-10T13:22:51Z</time>
      </trkpt>
      <trkpt lat="48.57816" lon="-3.82896">
        <ele>13.7</ele>
        <time>2020-06-10T13:22:52Z</time>
      </trkpt>
      <trkpt lat="48.57816" lon="-3.82897">
        <ele>13.7</ele>
        <time>2020-06-10T13:22:53Z</time>
      </trkpt>
      <trkpt lat="48.57817" lon="-3.82897">
        <ele>13.7</ele>
        <time>2020-06-10T13:22:54Z</time>
      </trkpt>
      <trkpt lat="48.57817" lon="-3.82897">
        <ele>13.7</ele>
        <time>2020-06-10T13:22:55Z</time>
      </trkpt>
      <trkpt lat="48.57817" lon="-3.82897">
        <ele>13.7</ele>
        <time>2020-06-10T13:22:56Z</time>
      </trkpt>
      <trkpt lat="48.57817" lon="-3.82897">
        <ele>13.7</ele>
        <time>2020-06-10T13:22:57Z</time>
      </trkpt>
      <trkpt lat="48.57816" lon="-3.82896">
        <ele>13.7</ele>
        <time>2020-06-10T13:22:58Z</time>
      </trkpt>
      <trkpt lat="48.57816" lon="-3.82896">
        <ele>13.7</ele>
        <time>2020-06-10T13:22:59Z</time>
      </trkpt>
      <trkpt lat="48.57816" lon="-3.82895">
        <ele>13</ele>
        <time>2020-06-10T13:23:00Z</time>
      </trkpt>
      <trkpt lat="48.57816" lon="-3.82895">
        <ele>13</ele>
        <time>2020-06-10T13:23:01Z</time>
      </trkpt>
      <trkpt lat="48.57816" lon="-3.82894">
        <ele>13</ele>
        <time>2020-06-10T13:23:02Z</time>
      </trkpt>
      <trkpt lat="48.57816" lon="-3.82894">
        <ele>13</ele>
        <time>2020-06-10T13:23:03Z</time>
      </trkpt>
      <trkpt lat="48.57816" lon="-3.82893">
        <ele>13</ele>
        <time>2020-06-10T13:23:04Z</time>
      </trkpt>
      <trkpt lat="48.57816" lon="-3.82892">
        <ele>13</ele>
        <time>2020-06-10T13:23:05Z</time>
      </trkpt>
      <trkpt lat="48.57817" lon="-3.82892">
        <ele>13</ele>
        <time>2020-06-10T13:23:06Z</time>
      </trkpt>
      <trkpt lat="48.57816" lon="-3.82892">
        <ele>13</ele>
        <time>2020-06-10T13:23:07Z</time>
      </trkpt>
      <trkpt lat="48.57817" lon="-3.82892">
        <ele>13</ele>
        <time>2020-06-10T13:23:08Z</time>
      </trkpt>
      <trkpt lat="48.57817" lon="-3.82892">
        <ele>13</ele>
        <time>2020-06-10T13:23:09Z</time>
      </trkpt>
      <trkpt lat="48.57817" lon="-3.82894">
        <ele>13</ele>
        <time>2020-06-10T13:23:10Z</time>
      </trkpt>
      <trkpt lat="48.57817" lon="-3.82894">
        <ele>13</ele>
        <time>2020-06-10T13:23:11Z</time>
      </trkpt>
      <trkpt lat="48.57817" lon="-3.82895">
        <ele>13</ele>
        <time>2020-06-10T13:23:12Z</time>
      </trkpt>
      <trkpt lat="48.57817" lon="-3.82895">
        <ele>13</ele>
        <time>2020-06-10T13:23:13Z</time>
      </trkpt>
      <trkpt lat="48.57817" lon="-3.82895">
        <ele>13</ele>
        <time>2020-06-10T13:23:14Z</time>
      </trkpt>
      <trkpt lat="48.57817" lon="-3.82895">
        <ele>13</ele>
        <time>2020-06-10T13:23:15Z</time>
      </trkpt>
      <trkpt lat="48.57817" lon="-3.82895">
        <ele>13</ele>
        <time>2020-06-10T13:23:16Z</time>
      </trkpt>
      <trkpt lat="48.57818" lon="-3.82895">
        <ele>13</ele>
        <time>2020-06-10T13:23:17Z</time>
      </trkpt>
      <trkpt lat="48.57815" lon="-3.82889">
        <ele>12.3</ele>
        <time>2020-06-10T13:23:18Z</time>
      </trkpt>
      <trkpt lat="48.57825" lon="-3.82864">
        <ele>8.7</ele>
        <time>2020-06-10T13:27:39Z</time>
      </trkpt>
      <trkpt lat="48.57823" lon="-3.82863">
        <ele>8.7</ele>
        <time>2020-06-10T13:27:40Z</time>
      </trkpt>
      <trkpt lat="48.57821" lon="-3.8286">
        <ele>8.2</ele>
        <time>2020-06-10T13:27:41Z</time>
      </trkpt>
      <trkpt lat="48.5782" lon="-3.82859">
        <ele>8.1</ele>
        <time>2020-06-10T13:27:42Z</time>
      </trkpt>
      <trkpt lat="48.57817" lon="-3.82855">
        <ele>7.8</ele>
        <time>2020-06-10T13:27:43Z</time>
      </trkpt>
      <trkpt lat="48.57816" lon="-3.82854">
        <ele>7.7</ele>
        <time>2020-06-10T13:27:44Z</time>
      </trkpt>
      <trkpt lat="48.57815" lon="-3.82853">
        <ele>7.7</ele>
        <time>2020-06-10T13:27:45Z</time>
      </trkpt>
      <trkpt lat="48.57814" lon="-3.82852">
        <ele>7.3</ele>
        <time>2020-06-10T13:27:46Z</time>
      </trkpt>
      <trkpt lat="48.57814" lon="-3.82852">
        <ele>7.2</ele>
        <time>2020-06-10T13:27:47Z</time>
      </trkpt>
      <trkpt lat="48.57811" lon="-3.82851">
        <ele>7.2</ele>
        <time>2020-06-10T13:27:48Z</time>
      </trkpt>
      <trkpt lat="48.5781" lon="-3.82851">
        <ele>7.1</ele>
        <time>2020-06-10T13:27:49Z</time>
      </trkpt>
      <trkpt lat="48.5781" lon="-3.8285">
        <ele>7.1</ele>
        <time>2020-06-10T13:27:50Z</time>
      </trkpt>
      <trkpt lat="48.5781" lon="-3.82849">
        <ele>7.1</ele>
        <time>2020-06-10T13:27:51Z</time>
      </trkpt>
      <trkpt lat="48.57808" lon="-3.82846">
        <ele>6.6</ele>
        <time>2020-06-10T13:27:52Z</time>
      </trkpt>
      <trkpt lat="48.57805" lon="-3.82843">
        <ele>6.1</ele>
        <time>2020-06-10T13:27:53Z</time>
      </trkpt>
      <trkpt lat="48.57803" lon="-3.82841">
        <ele>6.1</ele>
        <time>2020-06-10T13:27:54Z</time>
      </trkpt>
      <trkpt lat="48.578" lon="-3.82837">
        <ele>5.6</ele>
        <time>2020-06-10T13:27:55Z</time>
      </trkpt>
      <trkpt lat="48.57799" lon="-3.82836">
        <ele>5.6</ele>
        <time>2020-06-10T13:27:56Z</time>
      </trkpt>
      <trkpt lat="48.57796" lon="-3.82833">
        <ele>5.2</ele>
        <time>2020-06-10T13:27:57Z</time>
      </trkpt>
      <trkpt lat="48.57795" lon="-3.82832">
        <ele>5.2</ele>
        <time>2020-06-10T13:27:58Z</time>
      </trkpt>
      <trkpt lat="48.57793" lon="-3.82833">
        <ele>5.2</ele>
        <time>2020-06-10T13:27:59Z</time>
      </trkpt>
      <trkpt lat="48.57792" lon="-3.82834">
        <ele>5.2</ele>
        <time>2020-06-10T13:28:00Z</time>
      </trkpt>
      <trkpt lat="48.57792" lon="-3.82836">
        <ele>5.6</ele>
        <time>2020-06-10T13:28:01Z</time>
      </trkpt>
      <trkpt lat="48.5779" lon="-3.82835">
        <ele>5.7</ele>
        <time>2020-06-10T13:28:02Z</time>
      </trkpt>
      <trkpt lat="48.57789" lon="-3.82834">
        <ele>5.2</ele>
        <time>2020-06-10T13:28:03Z</time>
      </trkpt>
      <trkpt lat="48.57788" lon="-3.82833">
        <ele>5.3</ele>
        <time>2020-06-10T13:28:04Z</time>
      </trkpt>
      <trkpt lat="48.57787" lon="-3.82831">
        <ele>4.9</ele>
        <time>2020-06-10T13:28:05Z</time>
      </trkpt>
      <trkpt lat="48.57787" lon="-3.82829">
        <ele>4.9</ele>
        <time>2020-06-10T13:28:06Z</time>
      </trkpt>
      <trkpt lat="48.57788" lon="-3.82826">
        <ele>4.6</ele>
        <time>2020-06-10T13:28:07Z</time>
      </trkpt>
      <trkpt lat="48.57788" lon="-3.82824">
        <ele>4.6</ele>
        <time>2020-06-10T13:28:08Z</time>
      </trkpt>
      <trkpt lat="48.57788" lon="-3.82821">
        <ele>4.4</ele>
        <time>2020-06-10T13:28:09Z</time>
      </trkpt>
      <trkpt lat="48.57788" lon="-3.8282">
        <ele>4.4</ele>
        <time>2020-06-10T13:28:10Z</time>
      </trkpt>
      <trkpt lat="48.57788" lon="-3.82818">
        <ele>4.4</ele>
        <time>2020-06-10T13:28:11Z</time>
      </trkpt>
      <trkpt lat="48.57788" lon="-3.82818">
        <ele>4.4</ele>
        <time>2020-06-10T13:28:12Z</time>
      </trkpt>
      <trkpt lat="48.57787" lon="-3.82818">
        <ele>4.4</ele>
        <time>2020-06-10T13:28:13Z</time>
      </trkpt>
      <trkpt lat="48.57787" lon="-3.82819">
        <ele>4.4</ele>
        <time>2020-06-10T13:28:14Z</time>
      </trkpt>
      <trkpt lat="48.57787" lon="-3.82821">
        <ele>4.4</ele>
        <time>2020-06-10T13:28:15Z</time>
      </trkpt>
      <trkpt lat="48.57785" lon="-3.82824">
        <ele>4.6</ele>
        <time>2020-06-10T13:28:16Z</time>
      </trkpt>
      <trkpt lat="48.57784" lon="-3.82829">
        <ele>4.9</ele>
        <time>2020-06-10T13:28:17Z</time>
      </trkpt>
      <trkpt lat="48.57784" lon="-3.82832">
        <ele>5.4</ele>
        <time>2020-06-10T13:28:18Z</time>
      </trkpt>
      <trkpt lat="48.57783" lon="-3.82836">
        <ele>6</ele>
        <time>2020-06-10T13:28:19Z</time>
      </trkpt>
      <trkpt lat="48.57781" lon="-3.8284">
        <ele>6.8</ele>
        <time>2020-06-10T13:28:20Z</time>
      </trkpt>
      <trkpt lat="48.5778" lon="-3.82841">
        <ele>6.8</ele>
        <time>2020-06-10T13:28:21Z</time>
      </trkpt>
      <trkpt lat="48.57778" lon="-3.82845">
        <ele>7.7</ele>
        <time>2020-06-10T13:28:22Z</time>
      </trkpt>
      <trkpt lat="48.57778" lon="-3.82846">
        <ele>7.7</ele>
        <time>2020-06-10T13:28:23Z</time>
      </trkpt>
      <trkpt lat="48.57775" lon="-3.82849">
        <ele>8.4</ele>
        <time>2020-06-10T13:28:24Z</time>
      </trkpt>
      <trkpt lat="48.57773" lon="-3.82849">
        <ele>8.5</ele>
        <time>2020-06-10T13:28:25Z</time>
      </trkpt>
      <trkpt lat="48.57772" lon="-3.8285">
        <ele>8.5</ele>
        <time>2020-06-10T13:28:26Z</time>
      </trkpt>
      <trkpt lat="48.57771" lon="-3.8285">
        <ele>8.6</ele>
        <time>2020-06-10T13:28:27Z</time>
      </trkpt>
      <trkpt lat="48.5777" lon="-3.82852">
        <ele>8.6</ele>
        <time>2020-06-10T13:28:28Z</time>
      </trkpt>
      <trkpt lat="48.57769" lon="-3.82852">
        <ele>9.1</ele>
        <time>2020-06-10T13:28:29Z</time>
      </trkpt>
      <trkpt lat="48.57768" lon="-3.82853">
        <ele>9.1</ele>
        <time>2020-06-10T13:28:30Z</time>
      </trkpt>
      <trkpt lat="48.57767" lon="-3.82854">
        <ele>9.1</ele>
        <time>2020-06-10T13:28:31Z</time>
      </trkpt>
      <trkpt lat="48.57765" lon="-3.82855">
        <ele>9.1</ele>
        <time>2020-06-10T13:28:32Z</time>
      </trkpt>
      <trkpt lat="48.57763" lon="-3.82856">
        <ele>9.1</ele>
        <time>2020-06-10T13:28:33Z</time>
      </trkpt>
      <trkpt lat="48.57762" lon="-3.82857">
        <ele>9.4</ele>
        <time>2020-06-10T13:28:34Z</time>
      </trkpt>
      <trkpt lat="48.57758" lon="-3.82857">
        <ele>9.3</ele>
        <time>2020-06-10T13:28:35Z</time>
      </trkpt>
      <trkpt lat="48.57756" lon="-3.82857">
        <ele>9.3</ele>
        <time>2020-06-10T13:28:36Z</time>
      </trkpt>
      <trkpt lat="48.57752" lon="-3.82856">
        <ele>9.4</ele>
        <time>2020-06-10T13:28:37Z</time>
      </trkpt>
      <trkpt lat="48.5775" lon="-3.82855">
        <ele>9.4</ele>
        <time>2020-06-10T13:28:38Z</time>
      </trkpt>
      <trkpt lat="48.57747" lon="-3.82855">
        <ele>9.5</ele>
        <time>2020-06-10T13:28:39Z</time>
      </trkpt>
      <trkpt lat="48.57744" lon="-3.82854">
        <ele>9.5</ele>
        <time>2020-06-10T13:28:40Z</time>
      </trkpt>
      <trkpt lat="48.57742" lon="-3.82853">
        <ele>9.6</ele>
        <time>2020-06-10T13:28:41Z</time>
      </trkpt>
      <trkpt lat="48.57738" lon="-3.82851">
        <ele>9.6</ele>
        <time>2020-06-10T13:28:42Z</time>
      </trkpt>
      <trkpt lat="48.57735" lon="-3.82848">
        <ele>9.7</ele>
        <time>2020-06-10T13:28:43Z</time>
      </trkpt>
      <trkpt lat="48.57731" lon="-3.82846">
        <ele>9.7</ele>
        <time>2020-06-10T13:28:44Z</time>
      </trkpt>
      <trkpt lat="48.57729" lon="-3.82844">
        <ele>9.8</ele>
        <time>2020-06-10T13:28:45Z</time>
      </trkpt>
      <trkpt lat="48.57726" lon="-3.82841">
        <ele>9.9</ele>
        <time>2020-06-10T13:28:46Z</time>
      </trkpt>
      <trkpt lat="48.57723" lon="-3.82835">
        <ele>10.1</ele>
        <time>2020-06-10T13:28:47Z</time>
      </trkpt>
      <trkpt lat="48.57721" lon="-3.82833">
        <ele>10.2</ele>
        <time>2020-06-10T13:28:48Z</time>
      </trkpt>
      <trkpt lat="48.57718" lon="-3.82827">
        <ele>10.3</ele>
        <time>2020-06-10T13:28:49Z</time>
      </trkpt>
      <trkpt lat="48.57715" lon="-3.82823">
        <ele>10.5</ele>
        <time>2020-06-10T13:28:50Z</time>
      </trkpt>
      <trkpt lat="48.57711" lon="-3.8282">
        <ele>10.6</ele>
        <time>2020-06-10T13:28:51Z</time>
      </trkpt>
      <trkpt lat="48.57707" lon="-3.82818">
        <ele>10.7</ele>
        <time>2020-06-10T13:28:52Z</time>
      </trkpt>
      <trkpt lat="48.57704" lon="-3.82815">
        <ele>10.8</ele>
        <time>2020-06-10T13:28:53Z</time>
      </trkpt>
      <trkpt lat="48.57701" lon="-3.82813">
        <ele>10.8</ele>
        <time>2020-06-10T13:28:54Z</time>
      </trkpt>
      <trkpt lat="48.57698" lon="-3.8281">
        <ele>10.9</ele>
        <time>2020-06-10T13:28:55Z</time>
      </trkpt>
      <trkpt lat="48.57697" lon="-3.8281">
        <ele>10.9</ele>
        <time>2020-06-10T13:28:56Z</time>
      </trkpt>
      <trkpt lat="48.57696" lon="-3.82804">
        <ele>10.9</ele>
        <time>2020-06-10T13:28:57Z</time>
      </trkpt>
      <trkpt lat="48.57696" lon="-3.82802">
        <ele>10.9</ele>
        <time>2020-06-10T13:28:58Z</time>
      </trkpt>
      <trkpt lat="48.57698" lon="-3.82797">
        <ele>10.9</ele>
        <time>2020-06-10T13:28:59Z</time>
      </trkpt>
      <trkpt lat="48.57698" lon="-3.82795">
        <ele>11</ele>
        <time>2020-06-10T13:29:00Z</time>
      </trkpt>
      <trkpt lat="48.577" lon="-3.82789">
        <ele>11</ele>
        <time>2020-06-10T13:29:01Z</time>
      </trkpt>
      <trkpt lat="48.57701" lon="-3.82784">
        <ele>11</ele>
        <time>2020-06-10T13:29:02Z</time>
      </trkpt>
      <trkpt lat="48.57703" lon="-3.82779">
        <ele>11</ele>
        <time>2020-06-10T13:29:03Z</time>
      </trkpt>
      <trkpt lat="48.57705" lon="-3.82776">
        <ele>11.1</ele>
        <time>2020-06-10T13:29:04Z</time>
      </trkpt>
      <trkpt lat="48.57707" lon="-3.82772">
        <ele>11.1</ele>
        <time>2020-06-10T13:29:05Z</time>
      </trkpt>
      <trkpt lat="48.57708" lon="-3.82767">
        <ele>11.1</ele>
        <time>2020-06-10T13:29:06Z</time>
      </trkpt>
      <trkpt lat="48.57708" lon="-3.82764">
        <ele>11.1</ele>
        <time>2020-06-10T13:29:07Z</time>
      </trkpt>
      <trkpt lat="48.5771" lon="-3.8276">
        <ele>11.2</ele>
        <time>2020-06-10T13:29:08Z</time>
      </trkpt>
      <trkpt lat="48.5771" lon="-3.82759">
        <ele>11.2</ele>
        <time>2020-06-10T13:29:09Z</time>
      </trkpt>
      <trkpt lat="48.57711" lon="-3.82757">
        <ele>11.2</ele>
        <time>2020-06-10T13:29:10Z</time>
      </trkpt>
      <trkpt lat="48.57712" lon="-3.82755">
        <ele>11.2</ele>
        <time>2020-06-10T13:29:11Z</time>
      </trkpt>
      <trkpt lat="48.57714" lon="-3.82753">
        <ele>11.2</ele>
        <time>2020-06-10T13:29:12Z</time>
      </trkpt>
      <trkpt lat="48.57715" lon="-3.82752">
        <ele>11.2</ele>
        <time>2020-06-10T13:29:13Z</time>
      </trkpt>
      <trkpt lat="48.57718" lon="-3.8275">
        <ele>11.2</ele>
        <time>2020-06-10T13:29:14Z</time>
      </trkpt>
      <trkpt lat="48.57719" lon="-3.82749">
        <ele>11.2</ele>
        <time>2020-06-10T13:29:15Z</time>
      </trkpt>
      <trkpt lat="48.57721" lon="-3.82747">
        <ele>11.2</ele>
        <time>2020-06-10T13:29:16Z</time>
      </trkpt>
      <trkpt lat="48.57724" lon="-3.82741">
        <ele>11.2</ele>
        <time>2020-06-10T13:29:17Z</time>
      </trkpt>
      <trkpt lat="48.57725" lon="-3.82735">
        <ele>11.2</ele>
        <time>2020-06-10T13:29:18Z</time>
      </trkpt>
      <trkpt lat="48.57725" lon="-3.82729">
        <ele>11.2</ele>
        <time>2020-06-10T13:29:19Z</time>
      </trkpt>
      <trkpt lat="48.57728" lon="-3.82726">
        <ele>11.2</ele>
        <time>2020-06-10T13:29:20Z</time>
      </trkpt>
      <trkpt lat="48.57729" lon="-3.82725">
        <ele>11.2</ele>
        <time>2020-06-10T13:29:21Z</time>
      </trkpt>
      <trkpt lat="48.57732" lon="-3.82723">
        <ele>11.2</ele>
        <time>2020-06-10T13:29:22Z</time>
      </trkpt>
      <trkpt lat="48.57737" lon="-3.82721">
        <ele>11.3</ele>
        <time>2020-06-10T13:29:23Z</time>
      </trkpt>
      <trkpt lat="48.5774" lon="-3.82718">
        <ele>11.3</ele>
        <time>2020-06-10T13:29:24Z</time>
      </trkpt>
      <trkpt lat="48.57744" lon="-3.82715">
        <ele>11.3</ele>
        <time>2020-06-10T13:29:25Z</time>
      </trkpt>
      <trkpt lat="48.57746" lon="-3.82711">
        <ele>11.3</ele>
        <time>2020-06-10T13:29:26Z</time>
      </trkpt>
      <trkpt lat="48.57748" lon="-3.82707">
        <ele>11.4</ele>
        <time>2020-06-10T13:29:27Z</time>
      </trkpt>
      <trkpt lat="48.57748" lon="-3.82702">
        <ele>11.4</ele>
        <time>2020-06-10T13:29:28Z</time>
      </trkpt>
      <trkpt lat="48.57746" lon="-3.82699">
        <ele>11.1</ele>
        <time>2020-06-10T13:29:29Z</time>
      </trkpt>
      <trkpt lat="48.57744" lon="-3.82693">
        <ele>11</ele>
        <time>2020-06-10T13:29:30Z</time>
      </trkpt>
      <trkpt lat="48.57741" lon="-3.82687">
        <ele>10.9</ele>
        <time>2020-06-10T13:29:31Z</time>
      </trkpt>
      <trkpt lat="48.57739" lon="-3.82682">
        <ele>10.7</ele>
        <time>2020-06-10T13:29:32Z</time>
      </trkpt>
      <trkpt lat="48.57736" lon="-3.82678">
        <ele>10.6</ele>
        <time>2020-06-10T13:29:33Z</time>
      </trkpt>
      <trkpt lat="48.57732" lon="-3.82673">
        <ele>10.5</ele>
        <time>2020-06-10T13:29:34Z</time>
      </trkpt>
      <trkpt lat="48.5773" lon="-3.82669">
        <ele>10.4</ele>
        <time>2020-06-10T13:29:35Z</time>
      </trkpt>
      <trkpt lat="48.57728" lon="-3.82666">
        <ele>10.3</ele>
        <time>2020-06-10T13:29:36Z</time>
      </trkpt>
      <trkpt lat="48.57726" lon="-3.82663">
        <ele>10.3</ele>
        <time>2020-06-10T13:29:37Z</time>
      </trkpt>
      <trkpt lat="48.57724" lon="-3.82658">
        <ele>10.2</ele>
        <time>2020-06-10T13:29:38Z</time>
      </trkpt>
      <trkpt lat="48.57722" lon="-3.82654">
        <ele>10.3</ele>
        <time>2020-06-10T13:29:39Z</time>
      </trkpt>
      <trkpt lat="48.57719" lon="-3.82652">
        <ele>10.3</ele>
        <time>2020-06-10T13:29:40Z</time>
      </trkpt>
      <trkpt lat="48.57716" lon="-3.82647">
        <ele>10.3</ele>
        <time>2020-06-10T13:29:41Z</time>
      </trkpt>
      <trkpt lat="48.57713" lon="-3.82643">
        <ele>10.3</ele>
        <time>2020-06-10T13:29:42Z</time>
      </trkpt>
      <trkpt lat="48.5771" lon="-3.82638">
        <ele>10.4</ele>
        <time>2020-06-10T13:29:43Z</time>
      </trkpt>
      <trkpt lat="48.57707" lon="-3.82634">
        <ele>10.4</ele>
        <time>2020-06-10T13:29:44Z</time>
      </trkpt>
      <trkpt lat="48.57704" lon="-3.82629">
        <ele>10.5</ele>
        <time>2020-06-10T13:29:45Z</time>
      </trkpt>
      <trkpt lat="48.57702" lon="-3.82625">
        <ele>10.5</ele>
        <time>2020-06-10T13:29:46Z</time>
      </trkpt>
      <trkpt lat="48.577" lon="-3.8262">
        <ele>10.6</ele>
        <time>2020-06-10T13:29:47Z</time>
      </trkpt>
      <trkpt lat="48.57697" lon="-3.82615">
        <ele>10.6</ele>
        <time>2020-06-10T13:29:48Z</time>
      </trkpt>
      <trkpt lat="48.57694" lon="-3.82611">
        <ele>10.7</ele>
        <time>2020-06-10T13:29:49Z</time>
      </trkpt>
      <trkpt lat="48.57691" lon="-3.82607">
        <ele>10.7</ele>
        <time>2020-06-10T13:29:50Z</time>
      </trkpt>
      <trkpt lat="48.57689" lon="-3.82603">
        <ele>10.8</ele>
        <time>2020-06-10T13:29:51Z</time>
      </trkpt>
      <trkpt lat="48.57687" lon="-3.82599">
        <ele>10.8</ele>
        <time>2020-06-10T13:29:52Z</time>
      </trkpt>
      <trkpt lat="48.57685" lon="-3.82596">
        <ele>10.9</ele>
        <time>2020-06-10T13:29:53Z</time>
      </trkpt>
      <trkpt lat="48.57684" lon="-3.82591">
        <ele>10.9</ele>
        <time>2020-06-10T13:29:54Z</time>
      </trkpt>
      <trkpt lat="48.57685" lon="-3.82581">
        <ele>11</ele>
        <time>2020-06-10T13:29:55Z</time>
      </trkpt>
      <trkpt lat="48.57684" lon="-3.82576">
        <ele>11.2</ele>
        <time>2020-06-10T13:29:56Z</time>
      </trkpt>
      <trkpt lat="48.57684" lon="-3.8257">
        <ele>11.3</ele>
        <time>2020-06-10T13:29:57Z</time>
      </trkpt>
      <trkpt lat="48.57684" lon="-3.82565">
        <ele>11.4</ele>
        <time>2020-06-10T13:29:58Z</time>
      </trkpt>
      <trkpt lat="48.57685" lon="-3.8256">
        <ele>11.4</ele>
        <time>2020-06-10T13:29:59Z</time>
      </trkpt>
      <trkpt lat="48.57686" lon="-3.82559">
        <ele>11.5</ele>
        <time>2020-06-10T13:30:00Z</time>
      </trkpt>
      <trkpt lat="48.57689" lon="-3.82555">
        <ele>11.6</ele>
        <time>2020-06-10T13:30:01Z</time>
      </trkpt>
      <trkpt lat="48.57691" lon="-3.82551">
        <ele>11.7</ele>
        <time>2020-06-10T13:30:02Z</time>
      </trkpt>
      <trkpt lat="48.57695" lon="-3.82546">
        <ele>11.8</ele>
        <time>2020-06-10T13:30:03Z</time>
      </trkpt>
      <trkpt lat="48.57698" lon="-3.82542">
        <ele>11.9</ele>
        <time>2020-06-10T13:30:04Z</time>
      </trkpt>
      <trkpt lat="48.57701" lon="-3.82542">
        <ele>12</ele>
        <time>2020-06-10T13:30:05Z</time>
      </trkpt>
      <trkpt lat="48.57705" lon="-3.82542">
        <ele>12</ele>
        <time>2020-06-10T13:30:06Z</time>
      </trkpt>
      <trkpt lat="48.57706" lon="-3.82542">
        <ele>12</ele>
        <time>2020-06-10T13:30:07Z</time>
      </trkpt>
      <trkpt lat="48.57709" lon="-3.82542">
        <ele>12.1</ele>
        <time>2020-06-10T13:30:08Z</time>
      </trkpt>
      <trkpt lat="48.57712" lon="-3.82541">
        <ele>12.1</ele>
        <time>2020-06-10T13:30:09Z</time>
      </trkpt>
      <trkpt lat="48.57713" lon="-3.8254">
        <ele>12.1</ele>
        <time>2020-06-10T13:30:10Z</time>
      </trkpt>
      <trkpt lat="48.57717" lon="-3.82537">
        <ele>12.2</ele>
        <time>2020-06-10T13:30:11Z</time>
      </trkpt>
      <trkpt lat="48.57718" lon="-3.82535">
        <ele>12.3</ele>
        <time>2020-06-10T13:30:12Z</time>
      </trkpt>
      <trkpt lat="48.57718" lon="-3.8253">
        <ele>12.3</ele>
        <time>2020-06-10T13:30:13Z</time>
      </trkpt>
      <trkpt lat="48.57718" lon="-3.82525">
        <ele>12.4</ele>
        <time>2020-06-10T13:30:14Z</time>
      </trkpt>
      <trkpt lat="48.57718" lon="-3.82519">
        <ele>12.4</ele>
        <time>2020-06-10T13:30:15Z</time>
      </trkpt>
      <trkpt lat="48.57718" lon="-3.82517">
        <ele>12.4</ele>
        <time>2020-06-10T13:30:16Z</time>
      </trkpt>
      <trkpt lat="48.57718" lon="-3.82513">
        <ele>12.7</ele>
        <time>2020-06-10T13:30:17Z</time>
      </trkpt>
      <trkpt lat="48.57717" lon="-3.82509">
        <ele>12.8</ele>
        <time>2020-06-10T13:30:18Z</time>
      </trkpt>
      <trkpt lat="48.57717" lon="-3.82503">
        <ele>13</ele>
        <time>2020-06-10T13:30:19Z</time>
      </trkpt>
      <trkpt lat="48.57717" lon="-3.82501">
        <ele>13</ele>
        <time>2020-06-10T13:30:20Z</time>
      </trkpt>
      <trkpt lat="48.57717" lon="-3.82497">
        <ele>13.2</ele>
        <time>2020-06-10T13:30:21Z</time>
      </trkpt>
      <trkpt lat="48.57716" lon="-3.82491">
        <ele>13.4</ele>
        <time>2020-06-10T13:30:22Z</time>
      </trkpt>
      <trkpt lat="48.57716" lon="-3.82489">
        <ele>13.5</ele>
        <time>2020-06-10T13:30:23Z</time>
      </trkpt>
      <trkpt lat="48.57716" lon="-3.82483">
        <ele>13.7</ele>
        <time>2020-06-10T13:30:24Z</time>
      </trkpt>
      <trkpt lat="48.57716" lon="-3.82481">
        <ele>13.8</ele>
        <time>2020-06-10T13:30:25Z</time>
      </trkpt>
      <trkpt lat="48.57715" lon="-3.82476">
        <ele>14</ele>
        <time>2020-06-10T13:30:26Z</time>
      </trkpt>
      <trkpt lat="48.57715" lon="-3.82475">
        <ele>14</ele>
        <time>2020-06-10T13:30:27Z</time>
      </trkpt>
      <trkpt lat="48.57715" lon="-3.8247">
        <ele>14.2</ele>
        <time>2020-06-10T13:30:28Z</time>
      </trkpt>
      <trkpt lat="48.57716" lon="-3.82466">
        <ele>14.4</ele>
        <time>2020-06-10T13:30:29Z</time>
      </trkpt>
      <trkpt lat="48.57716" lon="-3.82462">
        <ele>14.6</ele>
        <time>2020-06-10T13:30:30Z</time>
      </trkpt>
      <trkpt lat="48.57717" lon="-3.82456">
        <ele>14.9</ele>
        <time>2020-06-10T13:30:31Z</time>
      </trkpt>
      <trkpt lat="48.57717" lon="-3.82454">
        <ele>15</ele>
        <time>2020-06-10T13:30:32Z</time>
      </trkpt>
      <trkpt lat="48.57717" lon="-3.82449">
        <ele>15.2</ele>
        <time>2020-06-10T13:30:33Z</time>
      </trkpt>
      <trkpt lat="48.57718" lon="-3.82444">
        <ele>15.5</ele>
        <time>2020-06-10T13:30:34Z</time>
      </trkpt>
      <trkpt lat="48.57718" lon="-3.82442">
        <ele>15.6</ele>
        <time>2020-06-10T13:30:35Z</time>
      </trkpt>
      <trkpt lat="48.57717" lon="-3.82435">
        <ele>16</ele>
        <time>2020-06-10T13:30:36Z</time>
      </trkpt>
      <trkpt lat="48.57717" lon="-3.82433">
        <ele>16.1</ele>
        <time>2020-06-10T13:30:37Z</time>
      </trkpt>
      <trkpt lat="48.57717" lon="-3.82428">
        <ele>16.4</ele>
        <time>2020-06-10T13:30:38Z</time>
      </trkpt>
      <trkpt lat="48.57716" lon="-3.82427">
        <ele>16.5</ele>
        <time>2020-06-10T13:30:39Z</time>
      </trkpt>
      <trkpt lat="48.57714" lon="-3.82423">
        <ele>16.8</ele>
        <time>2020-06-10T13:30:40Z</time>
      </trkpt>
      <trkpt lat="48.57711" lon="-3.8242">
        <ele>17.1</ele>
        <time>2020-06-10T13:30:41Z</time>
      </trkpt>
      <trkpt lat="48.5771" lon="-3.82419">
        <ele>17.2</ele>
        <time>2020-06-10T13:30:42Z</time>
      </trkpt>
      <trkpt lat="48.57708" lon="-3.82415">
        <ele>17.6</ele>
        <time>2020-06-10T13:30:43Z</time>
      </trkpt>
      <trkpt lat="48.57708" lon="-3.82414">
        <ele>17.7</ele>
        <time>2020-06-10T13:30:44Z</time>
      </trkpt>
      <trkpt lat="48.57707" lon="-3.8241">
        <ele>18</ele>
        <time>2020-06-10T13:30:45Z</time>
      </trkpt>
      <trkpt lat="48.57707" lon="-3.82405">
        <ele>18.4</ele>
        <time>2020-06-10T13:30:46Z</time>
      </trkpt>
      <trkpt lat="48.57707" lon="-3.82403">
        <ele>18.5</ele>
        <time>2020-06-10T13:30:47Z</time>
      </trkpt>
      <trkpt lat="48.57706" lon="-3.82399">
        <ele>18.8</ele>
        <time>2020-06-10T13:30:48Z</time>
      </trkpt>
      <trkpt lat="48.57705" lon="-3.82397">
        <ele>18.9</ele>
        <time>2020-06-10T13:30:49Z</time>
      </trkpt>
      <trkpt lat="48.57705" lon="-3.82392">
        <ele>19.3</ele>
        <time>2020-06-10T13:30:50Z</time>
      </trkpt>
      <trkpt lat="48.57705" lon="-3.8239">
        <ele>19.5</ele>
        <time>2020-06-10T13:30:51Z</time>
      </trkpt>
      <trkpt lat="48.57704" lon="-3.82386">
        <ele>19.8</ele>
        <time>2020-06-10T13:30:52Z</time>
      </trkpt>
      <trkpt lat="48.57704" lon="-3.82384">
        <ele>19.9</ele>
        <time>2020-06-10T13:30:53Z</time>
      </trkpt>
      <trkpt lat="48.57703" lon="-3.8238">
        <ele>20.3</ele>
        <time>2020-06-10T13:30:54Z</time>
      </trkpt>
      <trkpt lat="48.57702" lon="-3.82379">
        <ele>20.4</ele>
        <time>2020-06-10T13:30:55Z</time>
      </trkpt>
      <trkpt lat="48.57702" lon="-3.82374">
        <ele>20.8</ele>
        <time>2020-06-10T13:30:56Z</time>
      </trkpt>
      <trkpt lat="48.57701" lon="-3.82372">
        <ele>20.9</ele>
        <time>2020-06-10T13:30:57Z</time>
      </trkpt>
      <trkpt lat="48.57699" lon="-3.82367">
        <ele>21.3</ele>
        <time>2020-06-10T13:30:58Z</time>
      </trkpt>
      <trkpt lat="48.57699" lon="-3.82364">
        <ele>21.6</ele>
        <time>2020-06-10T13:30:59Z</time>
      </trkpt>
      <trkpt lat="48.57698" lon="-3.82364">
        <ele>21.7</ele>
        <time>2020-06-10T13:31:00Z</time>
      </trkpt>
      <trkpt lat="48.57697" lon="-3.82363">
        <ele>21.8</ele>
        <time>2020-06-10T13:31:01Z</time>
      </trkpt>
      <trkpt lat="48.57697" lon="-3.8236">
        <ele>22</ele>
        <time>2020-06-10T13:31:02Z</time>
      </trkpt>
      <trkpt lat="48.57697" lon="-3.82359">
        <ele>22.1</ele>
        <time>2020-06-10T13:31:03Z</time>
      </trkpt>
      <trkpt lat="48.57697" lon="-3.82357">
        <ele>22.2</ele>
        <time>2020-06-10T13:31:04Z</time>
      </trkpt>
      <trkpt lat="48.57696" lon="-3.82354">
        <ele>22.5</ele>
        <time>2020-06-10T13:31:05Z</time>
      </trkpt>
      <trkpt lat="48.57695" lon="-3.82352">
        <ele>22.6</ele>
        <time>2020-06-10T13:31:06Z</time>
      </trkpt>
      <trkpt lat="48.57693" lon="-3.8235">
        <ele>22.9</ele>
        <time>2020-06-10T13:31:07Z</time>
      </trkpt>
      <trkpt lat="48.57692" lon="-3.82349">
        <ele>23.1</ele>
        <time>2020-06-10T13:31:08Z</time>
      </trkpt>
      <trkpt lat="48.57692" lon="-3.82346">
        <ele>23.2</ele>
        <time>2020-06-10T13:31:09Z</time>
      </trkpt>
      <trkpt lat="48.57691" lon="-3.82344">
        <ele>23.4</ele>
        <time>2020-06-10T13:31:10Z</time>
      </trkpt>
      <trkpt lat="48.5769" lon="-3.82339">
        <ele>23.9</ele>
        <time>2020-06-10T13:31:11Z</time>
      </trkpt>
      <trkpt lat="48.5769" lon="-3.82337">
        <ele>24</ele>
        <time>2020-06-10T13:31:12Z</time>
      </trkpt>
      <trkpt lat="48.57689" lon="-3.82335">
        <ele>24.2</ele>
        <time>2020-06-10T13:31:13Z</time>
      </trkpt>
      <trkpt lat="48.57689" lon="-3.82333">
        <ele>24.4</ele>
        <time>2020-06-10T13:31:14Z</time>
      </trkpt>
      <trkpt lat="48.57688" lon="-3.82329">
        <ele>24.7</ele>
        <time>2020-06-10T13:31:15Z</time>
      </trkpt>
      <trkpt lat="48.57688" lon="-3.82327">
        <ele>24.8</ele>
        <time>2020-06-10T13:31:16Z</time>
      </trkpt>
      <trkpt lat="48.57688" lon="-3.82323">
        <ele>25.1</ele>
        <time>2020-06-10T13:31:17Z</time>
      </trkpt>
      <trkpt lat="48.57688" lon="-3.82322">
        <ele>25.3</ele>
        <time>2020-06-10T13:31:18Z</time>
      </trkpt>
      <trkpt lat="48.57688" lon="-3.82319">
        <ele>25.5</ele>
        <time>2020-06-10T13:31:19Z</time>
      </trkpt>
      <trkpt lat="48.57687" lon="-3.82317">
        <ele>25.6</ele>
        <time>2020-06-10T13:31:20Z</time>
      </trkpt>
      <trkpt lat="48.57687" lon="-3.82315">
        <ele>25.8</ele>
        <time>2020-06-10T13:31:21Z</time>
      </trkpt>
      <trkpt lat="48.57686" lon="-3.82313">
        <ele>26</ele>
        <time>2020-06-10T13:31:22Z</time>
      </trkpt>
      <trkpt lat="48.57686" lon="-3.8231">
        <ele>26.2</ele>
        <time>2020-06-10T13:31:23Z</time>
      </trkpt>
      <trkpt lat="48.57686" lon="-3.82308">
        <ele>26.4</ele>
        <time>2020-06-10T13:31:24Z</time>
      </trkpt>
      <trkpt lat="48.57687" lon="-3.82303">
        <ele>26.8</ele>
        <time>2020-06-10T13:31:25Z</time>
      </trkpt>
      <trkpt lat="48.57687" lon="-3.82302">
        <ele>26.9</ele>
        <time>2020-06-10T13:31:26Z</time>
      </trkpt>
      <trkpt lat="48.57687" lon="-3.82299">
        <ele>27.1</ele>
        <time>2020-06-10T13:31:27Z</time>
      </trkpt>
      <trkpt lat="48.57686" lon="-3.82297">
        <ele>27.3</ele>
        <time>2020-06-10T13:31:28Z</time>
      </trkpt>
      <trkpt lat="48.57684" lon="-3.82293">
        <ele>27.7</ele>
        <time>2020-06-10T13:31:29Z</time>
      </trkpt>
      <trkpt lat="48.57683" lon="-3.82292">
        <ele>27.8</ele>
        <time>2020-06-10T13:31:30Z</time>
      </trkpt>
      <trkpt lat="48.57682" lon="-3.8229">
        <ele>28</ele>
        <time>2020-06-10T13:31:31Z</time>
      </trkpt>
      <trkpt lat="48.57682" lon="-3.82288">
        <ele>28.2</ele>
        <time>2020-06-10T13:31:32Z</time>
      </trkpt>
      <trkpt lat="48.57681" lon="-3.82287">
        <ele>28.3</ele>
        <time>2020-06-10T13:31:33Z</time>
      </trkpt>
      <trkpt lat="48.5768" lon="-3.82284">
        <ele>28.6</ele>
        <time>2020-06-10T13:31:34Z</time>
      </trkpt>
      <trkpt lat="48.5768" lon="-3.82282">
        <ele>28.8</ele>
        <time>2020-06-10T13:31:35Z</time>
      </trkpt>
      <trkpt lat="48.5768" lon="-3.8228">
        <ele>28.9</ele>
        <time>2020-06-10T13:31:36Z</time>
      </trkpt>
      <trkpt lat="48.5768" lon="-3.82278">
        <ele>29.1</ele>
        <time>2020-06-10T13:31:37Z</time>
      </trkpt>
      <trkpt lat="48.57679" lon="-3.82276">
        <ele>29.3</ele>
        <time>2020-06-10T13:31:38Z</time>
      </trkpt>
      <trkpt lat="48.57678" lon="-3.82271">
        <ele>29.7</ele>
        <time>2020-06-10T13:31:39Z</time>
      </trkpt>
      <trkpt lat="48.57678" lon="-3.8227">
        <ele>29.8</ele>
        <time>2020-06-10T13:31:40Z</time>
      </trkpt>
      <trkpt lat="48.57677" lon="-3.82266">
        <ele>30.1</ele>
        <time>2020-06-10T13:31:41Z</time>
      </trkpt>
      <trkpt lat="48.57677" lon="-3.82265">
        <ele>30.2</ele>
        <time>2020-06-10T13:31:42Z</time>
      </trkpt>
      <trkpt lat="48.57676" lon="-3.82263">
        <ele>30.4</ele>
        <time>2020-06-10T13:31:43Z</time>
      </trkpt>
      <trkpt lat="48.57676" lon="-3.8226">
        <ele>30.6</ele>
        <time>2020-06-10T13:31:44Z</time>
      </trkpt>
      <trkpt lat="48.57676" lon="-3.82257">
        <ele>30.8</ele>
        <time>2020-06-10T13:31:45Z</time>
      </trkpt>
      <trkpt lat="48.57676" lon="-3.82256">
        <ele>31</ele>
        <time>2020-06-10T13:31:46Z</time>
      </trkpt>
      <trkpt lat="48.57676" lon="-3.82254">
        <ele>31.1</ele>
        <time>2020-06-10T13:31:47Z</time>
      </trkpt>
      <trkpt lat="48.57675" lon="-3.82251">
        <ele>31.3</ele>
        <time>2020-06-10T13:31:48Z</time>
      </trkpt>
      <trkpt lat="48.57675" lon="-3.82249">
        <ele>31.5</ele>
        <time>2020-06-10T13:31:49Z</time>
      </trkpt>
      <trkpt lat="48.57675" lon="-3.82247">
        <ele>31.7</ele>
        <time>2020-06-10T13:31:50Z</time>
      </trkpt>
      <trkpt lat="48.57674" lon="-3.82243">
        <ele>31.9</ele>
        <time>2020-06-10T13:31:51Z</time>
      </trkpt>
      <trkpt lat="48.57674" lon="-3.82242">
        <ele>32.1</ele>
        <time>2020-06-10T13:31:52Z</time>
      </trkpt>
      <trkpt lat="48.57674" lon="-3.8224">
        <ele>32.2</ele>
        <time>2020-06-10T13:31:53Z</time>
      </trkpt>
      <trkpt lat="48.57673" lon="-3.82238">
        <ele>32.3</ele>
        <time>2020-06-10T13:31:54Z</time>
      </trkpt>
      <trkpt lat="48.57673" lon="-3.82236">
        <ele>32.5</ele>
        <time>2020-06-10T13:31:55Z</time>
      </trkpt>
      <trkpt lat="48.57672" lon="-3.82233">
        <ele>32.7</ele>
        <time>2020-06-10T13:31:56Z</time>
      </trkpt>
      <trkpt lat="48.57672" lon="-3.82231">
        <ele>32.9</ele>
        <time>2020-06-10T13:31:57Z</time>
      </trkpt>
      <trkpt lat="48.57672" lon="-3.82229">
        <ele>33</ele>
        <time>2020-06-10T13:31:58Z</time>
      </trkpt>
      <trkpt lat="48.57671" lon="-3.82227">
        <ele>33.2</ele>
        <time>2020-06-10T13:31:59Z</time>
      </trkpt>
      <trkpt lat="48.5767" lon="-3.82223">
        <ele>33.5</ele>
        <time>2020-06-10T13:32:00Z</time>
      </trkpt>
      <trkpt lat="48.57669" lon="-3.82222">
        <ele>33.6</ele>
        <time>2020-06-10T13:32:01Z</time>
      </trkpt>
      <trkpt lat="48.57668" lon="-3.82217">
        <ele>34</ele>
        <time>2020-06-10T13:32:02Z</time>
      </trkpt>
      <trkpt lat="48.57668" lon="-3.82216">
        <ele>34.1</ele>
        <time>2020-06-10T13:32:03Z</time>
      </trkpt>
      <trkpt lat="48.57667" lon="-3.82214">
        <ele>34.3</ele>
        <time>2020-06-10T13:32:04Z</time>
      </trkpt>
      <trkpt lat="48.57666" lon="-3.82212">
        <ele>34.4</ele>
        <time>2020-06-10T13:32:05Z</time>
      </trkpt>
      <trkpt lat="48.57666" lon="-3.82209">
        <ele>34.6</ele>
        <time>2020-06-10T13:32:06Z</time>
      </trkpt>
      <trkpt lat="48.57665" lon="-3.82207">
        <ele>34.8</ele>
        <time>2020-06-10T13:32:07Z</time>
      </trkpt>
      <trkpt lat="48.57665" lon="-3.82204">
        <ele>34.9</ele>
        <time>2020-06-10T13:32:08Z</time>
      </trkpt>
      <trkpt lat="48.57665" lon="-3.82202">
        <ele>35.1</ele>
        <time>2020-06-10T13:32:09Z</time>
      </trkpt>
      <trkpt lat="48.57665" lon="-3.82199">
        <ele>35.3</ele>
        <time>2020-06-10T13:32:10Z</time>
      </trkpt>
      <trkpt lat="48.57664" lon="-3.82197">
        <ele>35.4</ele>
        <time>2020-06-10T13:32:11Z</time>
      </trkpt>
      <trkpt lat="48.57663" lon="-3.82194">
        <ele>35.7</ele>
        <time>2020-06-10T13:32:12Z</time>
      </trkpt>
      <trkpt lat="48.57663" lon="-3.82192">
        <ele>35.8</ele>
        <time>2020-06-10T13:32:13Z</time>
      </trkpt>
      <trkpt lat="48.57663" lon="-3.82191">
        <ele>35.9</ele>
        <time>2020-06-10T13:32:14Z</time>
      </trkpt>
      <trkpt lat="48.57664" lon="-3.82188">
        <ele>36.1</ele>
        <time>2020-06-10T13:32:15Z</time>
      </trkpt>
      <trkpt lat="48.57664" lon="-3.82186">
        <ele>36.3</ele>
        <time>2020-06-10T13:32:16Z</time>
      </trkpt>
      <trkpt lat="48.57664" lon="-3.82183">
        <ele>36.6</ele>
        <time>2020-06-10T13:32:17Z</time>
      </trkpt>
      <trkpt lat="48.57665" lon="-3.82181">
        <ele>36.7</ele>
        <time>2020-06-10T13:32:18Z</time>
      </trkpt>
      <trkpt lat="48.57665" lon="-3.8218">
        <ele>36.8</ele>
        <time>2020-06-10T13:32:19Z</time>
      </trkpt>
      <trkpt lat="48.57666" lon="-3.82177">
        <ele>36.9</ele>
        <time>2020-06-10T13:32:20Z</time>
      </trkpt>
      <trkpt lat="48.57666" lon="-3.82176">
        <ele>37</ele>
        <time>2020-06-10T13:32:21Z</time>
      </trkpt>
      <trkpt lat="48.57666" lon="-3.82174">
        <ele>37</ele>
        <time>2020-06-10T13:32:22Z</time>
      </trkpt>
      <trkpt lat="48.57667" lon="-3.82171">
        <ele>37.2</ele>
        <time>2020-06-10T13:32:23Z</time>
      </trkpt>
      <trkpt lat="48.57668" lon="-3.82169">
        <ele>37.2</ele>
        <time>2020-06-10T13:32:24Z</time>
      </trkpt>
      <trkpt lat="48.57668" lon="-3.82167">
        <ele>37.3</ele>
        <time>2020-06-10T13:32:25Z</time>
      </trkpt>
      <trkpt lat="48.5767" lon="-3.82166">
        <ele>37.5</ele>
        <time>2020-06-10T13:32:26Z</time>
      </trkpt>
      <trkpt lat="48.57671" lon="-3.82165">
        <ele>37.5</ele>
        <time>2020-06-10T13:32:27Z</time>
      </trkpt>
      <trkpt lat="48.57672" lon="-3.82163">
        <ele>37.6</ele>
        <time>2020-06-10T13:32:28Z</time>
      </trkpt>
      <trkpt lat="48.57673" lon="-3.82163">
        <ele>37.7</ele>
        <time>2020-06-10T13:32:29Z</time>
      </trkpt>
      <trkpt lat="48.57675" lon="-3.82162">
        <ele>37.8</ele>
        <time>2020-06-10T13:32:30Z</time>
      </trkpt>
      <trkpt lat="48.57677" lon="-3.82162">
        <ele>38</ele>
        <time>2020-06-10T13:32:31Z</time>
      </trkpt>
      <trkpt lat="48.57678" lon="-3.8216">
        <ele>38.1</ele>
        <time>2020-06-10T13:32:32Z</time>
      </trkpt>
      <trkpt lat="48.57679" lon="-3.82157">
        <ele>38.3</ele>
        <time>2020-06-10T13:32:33Z</time>
      </trkpt>
      <trkpt lat="48.57679" lon="-3.82156">
        <ele>38.3</ele>
        <time>2020-06-10T13:32:34Z</time>
      </trkpt>
      <trkpt lat="48.5768" lon="-3.82155">
        <ele>38.4</ele>
        <time>2020-06-10T13:32:35Z</time>
      </trkpt>
      <trkpt lat="48.5768" lon="-3.82154">
        <ele>38.5</ele>
        <time>2020-06-10T13:32:36Z</time>
      </trkpt>
      <trkpt lat="48.57681" lon="-3.82152">
        <ele>38.6</ele>
        <time>2020-06-10T13:32:37Z</time>
      </trkpt>
      <trkpt lat="48.57683" lon="-3.82147">
        <ele>38.8</ele>
        <time>2020-06-10T13:32:38Z</time>
      </trkpt>
      <trkpt lat="48.57683" lon="-3.82145">
        <ele>38.9</ele>
        <time>2020-06-10T13:32:39Z</time>
      </trkpt>
      <trkpt lat="48.57684" lon="-3.82143">
        <ele>39.1</ele>
        <time>2020-06-10T13:32:40Z</time>
      </trkpt>
      <trkpt lat="48.57684" lon="-3.82141">
        <ele>39.3</ele>
        <time>2020-06-10T13:32:41Z</time>
      </trkpt>
      <trkpt lat="48.57685" lon="-3.82138">
        <ele>39.5</ele>
        <time>2020-06-10T13:32:42Z</time>
      </trkpt>
      <trkpt lat="48.57685" lon="-3.82136">
        <ele>39.6</ele>
        <time>2020-06-10T13:32:43Z</time>
      </trkpt>
      <trkpt lat="48.57685" lon="-3.82134">
        <ele>39.7</ele>
        <time>2020-06-10T13:32:44Z</time>
      </trkpt>
      <trkpt lat="48.57686" lon="-3.82131">
        <ele>39.9</ele>
        <time>2020-06-10T13:32:45Z</time>
      </trkpt>
      <trkpt lat="48.57687" lon="-3.82128">
        <ele>40.1</ele>
        <time>2020-06-10T13:32:46Z</time>
      </trkpt>
      <trkpt lat="48.57687" lon="-3.82126">
        <ele>40.3</ele>
        <time>2020-06-10T13:32:47Z</time>
      </trkpt>
      <trkpt lat="48.57687" lon="-3.82122">
        <ele>40.6</ele>
        <time>2020-06-10T13:32:48Z</time>
      </trkpt>
      <trkpt lat="48.57687" lon="-3.8212">
        <ele>40.7</ele>
        <time>2020-06-10T13:32:49Z</time>
      </trkpt>
      <trkpt lat="48.57687" lon="-3.82117">
        <ele>40.8</ele>
        <time>2020-06-10T13:32:50Z</time>
      </trkpt>
      <trkpt lat="48.57686" lon="-3.82115">
        <ele>41</ele>
        <time>2020-06-10T13:32:51Z</time>
      </trkpt>
      <trkpt lat="48.57687" lon="-3.82112">
        <ele>41.2</ele>
        <time>2020-06-10T13:32:52Z</time>
      </trkpt>
      <trkpt lat="48.57686" lon="-3.8211">
        <ele>41.4</ele>
        <time>2020-06-10T13:32:53Z</time>
      </trkpt>
      <trkpt lat="48.57686" lon="-3.82105">
        <ele>41.6</ele>
        <time>2020-06-10T13:32:54Z</time>
      </trkpt>
      <trkpt lat="48.57686" lon="-3.82104">
        <ele>41.7</ele>
        <time>2020-06-10T13:32:55Z</time>
      </trkpt>
      <trkpt lat="48.57686" lon="-3.821">
        <ele>42</ele>
        <time>2020-06-10T13:32:56Z</time>
      </trkpt>
      <trkpt lat="48.57687" lon="-3.82098">
        <ele>42.1</ele>
        <time>2020-06-10T13:32:57Z</time>
      </trkpt>
      <trkpt lat="48.57687" lon="-3.82097">
        <ele>42.2</ele>
        <time>2020-06-10T13:32:58Z</time>
      </trkpt>
      <trkpt lat="48.57688" lon="-3.82094">
        <ele>42.4</ele>
        <time>2020-06-10T13:32:59Z</time>
      </trkpt>
      <trkpt lat="48.57688" lon="-3.82092">
        <ele>42.6</ele>
        <time>2020-06-10T13:33:00Z</time>
      </trkpt>
      <trkpt lat="48.57688" lon="-3.82089">
        <ele>42.7</ele>
        <time>2020-06-10T13:33:01Z</time>
      </trkpt>
      <trkpt lat="48.57688" lon="-3.82087">
        <ele>42.9</ele>
        <time>2020-06-10T13:33:02Z</time>
      </trkpt>
      <trkpt lat="48.57688" lon="-3.82084">
        <ele>43</ele>
        <time>2020-06-10T13:33:03Z</time>
      </trkpt>
      <trkpt lat="48.57688" lon="-3.82082">
        <ele>43.2</ele>
        <time>2020-06-10T13:33:04Z</time>
      </trkpt>
      <trkpt lat="48.57689" lon="-3.82078">
        <ele>43.5</ele>
        <time>2020-06-10T13:33:05Z</time>
      </trkpt>
      <trkpt lat="48.57688" lon="-3.82076">
        <ele>43.6</ele>
        <time>2020-06-10T13:33:06Z</time>
      </trkpt>
      <trkpt lat="48.57689" lon="-3.82071">
        <ele>43.9</ele>
        <time>2020-06-10T13:33:07Z</time>
      </trkpt>
      <trkpt lat="48.57689" lon="-3.82069">
        <ele>44</ele>
        <time>2020-06-10T13:33:08Z</time>
      </trkpt>
      <trkpt lat="48.57689" lon="-3.82065">
        <ele>44.3</ele>
        <time>2020-06-10T13:33:09Z</time>
      </trkpt>
      <trkpt lat="48.57689" lon="-3.82064">
        <ele>44.4</ele>
        <time>2020-06-10T13:33:10Z</time>
      </trkpt>
      <trkpt lat="48.57689" lon="-3.82059">
        <ele>44.7</ele>
        <time>2020-06-10T13:33:11Z</time>
      </trkpt>
      <trkpt lat="48.57689" lon="-3.82057">
        <ele>44.9</ele>
        <time>2020-06-10T13:33:12Z</time>
      </trkpt>
      <trkpt lat="48.57689" lon="-3.82052">
        <ele>45.2</ele>
        <time>2020-06-10T13:33:13Z</time>
      </trkpt>
      <trkpt lat="48.57689" lon="-3.82051">
        <ele>45.3</ele>
        <time>2020-06-10T13:33:14Z</time>
      </trkpt>
      <trkpt lat="48.57689" lon="-3.82046">
        <ele>45.6</ele>
        <time>2020-06-10T13:33:15Z</time>
      </trkpt>
      <trkpt lat="48.57689" lon="-3.82045">
        <ele>45.7</ele>
        <time>2020-06-10T13:33:16Z</time>
      </trkpt>
      <trkpt lat="48.57689" lon="-3.82042">
        <ele>45.9</ele>
        <time>2020-06-10T13:33:17Z</time>
      </trkpt>
      <trkpt lat="48.5769" lon="-3.8204">
        <ele>46</ele>
        <time>2020-06-10T13:33:18Z</time>
      </trkpt>
      <trkpt lat="48.57691" lon="-3.82035">
        <ele>46.4</ele>
        <time>2020-06-10T13:33:19Z</time>
      </trkpt>
      <trkpt lat="48.57691" lon="-3.82034">
        <ele>46.5</ele>
        <time>2020-06-10T13:33:20Z</time>
      </trkpt>
      <trkpt lat="48.57692" lon="-3.8203">
        <ele>46.8</ele>
        <time>2020-06-10T13:33:21Z</time>
      </trkpt>
      <trkpt lat="48.57692" lon="-3.82028">
        <ele>46.9</ele>
        <time>2020-06-10T13:33:22Z</time>
      </trkpt>
      <trkpt lat="48.57692" lon="-3.82026">
        <ele>47.1</ele>
        <time>2020-06-10T13:33:23Z</time>
      </trkpt>
      <trkpt lat="48.57693" lon="-3.82024">
        <ele>47.2</ele>
        <time>2020-06-10T13:33:24Z</time>
      </trkpt>
      <trkpt lat="48.57695" lon="-3.82021">
        <ele>47.5</ele>
        <time>2020-06-10T13:33:25Z</time>
      </trkpt>
      <trkpt lat="48.57695" lon="-3.82019">
        <ele>47.7</ele>
        <time>2020-06-10T13:33:26Z</time>
      </trkpt>
      <trkpt lat="48.57696" lon="-3.82015">
        <ele>48</ele>
        <time>2020-06-10T13:33:27Z</time>
      </trkpt>
      <trkpt lat="48.57697" lon="-3.8201">
        <ele>48.4</ele>
        <time>2020-06-10T13:33:28Z</time>
      </trkpt>
      <trkpt lat="48.57698" lon="-3.82009">
        <ele>48.5</ele>
        <time>2020-06-10T13:33:29Z</time>
      </trkpt>
      <trkpt lat="48.57698" lon="-3.82006">
        <ele>48.7</ele>
        <time>2020-06-10T13:33:30Z</time>
      </trkpt>
      <trkpt lat="48.57699" lon="-3.82004">
        <ele>48.9</ele>
        <time>2020-06-10T13:33:31Z</time>
      </trkpt>
      <trkpt lat="48.577" lon="-3.82002">
        <ele>49.1</ele>
        <time>2020-06-10T13:33:32Z</time>
      </trkpt>
      <trkpt lat="48.577" lon="-3.82">
        <ele>49.2</ele>
        <time>2020-06-10T13:33:33Z</time>
      </trkpt>
      <trkpt lat="48.57701" lon="-3.81998">
        <ele>49.4</ele>
        <time>2020-06-10T13:33:34Z</time>
      </trkpt>
      <trkpt lat="48.57702" lon="-3.81995">
        <ele>49.6</ele>
        <time>2020-06-10T13:33:35Z</time>
      </trkpt>
      <trkpt lat="48.57702" lon="-3.81993">
        <ele>49.8</ele>
        <time>2020-06-10T13:33:36Z</time>
      </trkpt>
      <trkpt lat="48.57703" lon="-3.81991">
        <ele>49.9</ele>
        <time>2020-06-10T13:33:37Z</time>
      </trkpt>
      <trkpt lat="48.57703" lon="-3.81989">
        <ele>50.1</ele>
        <time>2020-06-10T13:33:38Z</time>
      </trkpt>
      <trkpt lat="48.57704" lon="-3.81986">
        <ele>50.3</ele>
        <time>2020-06-10T13:33:39Z</time>
      </trkpt>
      <trkpt lat="48.57704" lon="-3.81981">
        <ele>50.7</ele>
        <time>2020-06-10T13:33:40Z</time>
      </trkpt>
      <trkpt lat="48.57705" lon="-3.8198">
        <ele>50.8</ele>
        <time>2020-06-10T13:33:41Z</time>
      </trkpt>
      <trkpt lat="48.57705" lon="-3.81978">
        <ele>50.9</ele>
        <time>2020-06-10T13:33:42Z</time>
      </trkpt>
      <trkpt lat="48.57705" lon="-3.81975">
        <ele>51.1</ele>
        <time>2020-06-10T13:33:43Z</time>
      </trkpt>
      <trkpt lat="48.57706" lon="-3.8197">
        <ele>51.4</ele>
        <time>2020-06-10T13:33:44Z</time>
      </trkpt>
      <trkpt lat="48.57706" lon="-3.81969">
        <ele>51.5</ele>
        <time>2020-06-10T13:33:45Z</time>
      </trkpt>
      <trkpt lat="48.57707" lon="-3.81965">
        <ele>51.8</ele>
        <time>2020-06-10T13:33:46Z</time>
      </trkpt>
      <trkpt lat="48.57707" lon="-3.81964">
        <ele>51.9</ele>
        <time>2020-06-10T13:33:47Z</time>
      </trkpt>
      <trkpt lat="48.57708" lon="-3.8196">
        <ele>52.1</ele>
        <time>2020-06-10T13:33:48Z</time>
      </trkpt>
      <trkpt lat="48.57708" lon="-3.81958">
        <ele>52.2</ele>
        <time>2020-06-10T13:33:49Z</time>
      </trkpt>
      <trkpt lat="48.57708" lon="-3.81955">
        <ele>52.4</ele>
        <time>2020-06-10T13:33:50Z</time>
      </trkpt>
      <trkpt lat="48.57708" lon="-3.81953">
        <ele>52.6</ele>
        <time>2020-06-10T13:33:51Z</time>
      </trkpt>
      <trkpt lat="48.57708" lon="-3.8195">
        <ele>52.8</ele>
        <time>2020-06-10T13:33:52Z</time>
      </trkpt>
      <trkpt lat="48.57708" lon="-3.81948">
        <ele>52.9</ele>
        <time>2020-06-10T13:33:53Z</time>
      </trkpt>
      <trkpt lat="48.57708" lon="-3.81943">
        <ele>53.3</ele>
        <time>2020-06-10T13:33:54Z</time>
      </trkpt>
      <trkpt lat="48.57708" lon="-3.81941">
        <ele>53.4</ele>
        <time>2020-06-10T13:33:55Z</time>
      </trkpt>
      <trkpt lat="48.57709" lon="-3.81936">
        <ele>53.7</ele>
        <time>2020-06-10T13:33:56Z</time>
      </trkpt>
      <trkpt lat="48.57709" lon="-3.81935">
        <ele>53.8</ele>
        <time>2020-06-10T13:33:57Z</time>
      </trkpt>
      <trkpt lat="48.5771" lon="-3.81931">
        <ele>54.1</ele>
        <time>2020-06-10T13:33:58Z</time>
      </trkpt>
      <trkpt lat="48.5771" lon="-3.81929">
        <ele>54.1</ele>
        <time>2020-06-10T13:33:59Z</time>
      </trkpt>
      <trkpt lat="48.57711" lon="-3.81927">
        <ele>54.3</ele>
        <time>2020-06-10T13:34:00Z</time>
      </trkpt>
      <trkpt lat="48.57711" lon="-3.81925">
        <ele>54.4</ele>
        <time>2020-06-10T13:34:01Z</time>
      </trkpt>
      <trkpt lat="48.57712" lon="-3.8192">
        <ele>54.7</ele>
        <time>2020-06-10T13:34:02Z</time>
      </trkpt>
      <trkpt lat="48.57712" lon="-3.81919">
        <ele>54.8</ele>
        <time>2020-06-10T13:34:03Z</time>
      </trkpt>
      <trkpt lat="48.57712" lon="-3.81917">
        <ele>54.9</ele>
        <time>2020-06-10T13:34:04Z</time>
      </trkpt>
      <trkpt lat="48.57713" lon="-3.81915">
        <ele>55</ele>
        <time>2020-06-10T13:34:05Z</time>
      </trkpt>
      <trkpt lat="48.57715" lon="-3.81911">
        <ele>55.4</ele>
        <time>2020-06-10T13:34:06Z</time>
      </trkpt>
      <trkpt lat="48.57716" lon="-3.81909">
        <ele>55.5</ele>
        <time>2020-06-10T13:34:07Z</time>
      </trkpt>
      <trkpt lat="48.57718" lon="-3.81906">
        <ele>55.8</ele>
        <time>2020-06-10T13:34:08Z</time>
      </trkpt>
      <trkpt lat="48.57719" lon="-3.81905">
        <ele>55.9</ele>
        <time>2020-06-10T13:34:09Z</time>
      </trkpt>
      <trkpt lat="48.57721" lon="-3.81902">
        <ele>56.1</ele>
        <time>2020-06-10T13:34:10Z</time>
      </trkpt>
      <trkpt lat="48.57721" lon="-3.81901">
        <ele>56.2</ele>
        <time>2020-06-10T13:34:11Z</time>
      </trkpt>
      <trkpt lat="48.57722" lon="-3.81898">
        <ele>56.4</ele>
        <time>2020-06-10T13:34:12Z</time>
      </trkpt>
      <trkpt lat="48.57723" lon="-3.81896">
        <ele>56.6</ele>
        <time>2020-06-10T13:34:13Z</time>
      </trkpt>
      <trkpt lat="48.57724" lon="-3.81895">
        <ele>56.7</ele>
        <time>2020-06-10T13:34:14Z</time>
      </trkpt>
      <trkpt lat="48.57725" lon="-3.81893">
        <ele>56.9</ele>
        <time>2020-06-10T13:34:15Z</time>
      </trkpt>
      <trkpt lat="48.57728" lon="-3.81889">
        <ele>57.3</ele>
        <time>2020-06-10T13:34:16Z</time>
      </trkpt>
      <trkpt lat="48.57728" lon="-3.81889">
        <ele>57.3</ele>
        <time>2020-06-10T13:34:17Z</time>
      </trkpt>
      <trkpt lat="48.57729" lon="-3.81887">
        <ele>57.5</ele>
        <time>2020-06-10T13:34:18Z</time>
      </trkpt>
      <trkpt lat="48.5773" lon="-3.81884">
        <ele>57.7</ele>
        <time>2020-06-10T13:34:19Z</time>
      </trkpt>
      <trkpt lat="48.57732" lon="-3.81881">
        <ele>58</ele>
        <time>2020-06-10T13:34:20Z</time>
      </trkpt>
      <trkpt lat="48.57733" lon="-3.81881">
        <ele>58.1</ele>
        <time>2020-06-10T13:34:21Z</time>
      </trkpt>
      <trkpt lat="48.57735" lon="-3.81879">
        <ele>58.3</ele>
        <time>2020-06-10T13:34:22Z</time>
      </trkpt>
      <trkpt lat="48.57736" lon="-3.81877">
        <ele>58.5</ele>
        <time>2020-06-10T13:34:23Z</time>
      </trkpt>
      <trkpt lat="48.57737" lon="-3.81875">
        <ele>58.7</ele>
        <time>2020-06-10T13:34:24Z</time>
      </trkpt>
      <trkpt lat="48.57738" lon="-3.81873">
        <ele>58.8</ele>
        <time>2020-06-10T13:34:25Z</time>
      </trkpt>
      <trkpt lat="48.57739" lon="-3.8187">
        <ele>59</ele>
        <time>2020-06-10T13:34:26Z</time>
      </trkpt>
      <trkpt lat="48.57739" lon="-3.81868">
        <ele>59.2</ele>
        <time>2020-06-10T13:34:27Z</time>
      </trkpt>
      <trkpt lat="48.57741" lon="-3.81865">
        <ele>59.5</ele>
        <time>2020-06-10T13:34:28Z</time>
      </trkpt>
      <trkpt lat="48.57741" lon="-3.81863">
        <ele>59.6</ele>
        <time>2020-06-10T13:34:29Z</time>
      </trkpt>
      <trkpt lat="48.57742" lon="-3.81862">
        <ele>59.7</ele>
        <time>2020-06-10T13:34:30Z</time>
      </trkpt>
      <trkpt lat="48.57743" lon="-3.81859">
        <ele>59.9</ele>
        <time>2020-06-10T13:34:31Z</time>
      </trkpt>
      <trkpt lat="48.57744" lon="-3.81857">
        <ele>60</ele>
        <time>2020-06-10T13:34:32Z</time>
      </trkpt>
      <trkpt lat="48.57745" lon="-3.81855">
        <ele>60.2</ele>
        <time>2020-06-10T13:34:33Z</time>
      </trkpt>
      <trkpt lat="48.57746" lon="-3.81852">
        <ele>60.5</ele>
        <time>2020-06-10T13:34:34Z</time>
      </trkpt>
      <trkpt lat="48.57747" lon="-3.81851">
        <ele>60.6</ele>
        <time>2020-06-10T13:34:35Z</time>
      </trkpt>
      <trkpt lat="48.57747" lon="-3.8185">
        <ele>60.7</ele>
        <time>2020-06-10T13:34:36Z</time>
      </trkpt>
      <trkpt lat="48.57748" lon="-3.81846">
        <ele>60.9</ele>
        <time>2020-06-10T13:34:37Z</time>
      </trkpt>
      <trkpt lat="48.57749" lon="-3.81845">
        <ele>61</ele>
        <time>2020-06-10T13:34:38Z</time>
      </trkpt>
      <trkpt lat="48.57749" lon="-3.81844">
        <ele>61.1</ele>
        <time>2020-06-10T13:34:39Z</time>
      </trkpt>
      <trkpt lat="48.5775" lon="-3.8184">
        <ele>61.3</ele>
        <time>2020-06-10T13:34:40Z</time>
      </trkpt>
      <trkpt lat="48.57751" lon="-3.81839">
        <ele>61.4</ele>
        <time>2020-06-10T13:34:41Z</time>
      </trkpt>
      <trkpt lat="48.57752" lon="-3.81837">
        <ele>61.6</ele>
        <time>2020-06-10T13:34:42Z</time>
      </trkpt>
      <trkpt lat="48.57753" lon="-3.81835">
        <ele>61.7</ele>
        <time>2020-06-10T13:34:43Z</time>
      </trkpt>
      <trkpt lat="48.57754" lon="-3.81834">
        <ele>61.8</ele>
        <time>2020-06-10T13:34:44Z</time>
      </trkpt>
      <trkpt lat="48.57755" lon="-3.81832">
        <ele>62</ele>
        <time>2020-06-10T13:34:45Z</time>
      </trkpt>
      <trkpt lat="48.57755" lon="-3.8183">
        <ele>62.1</ele>
        <time>2020-06-10T13:34:46Z</time>
      </trkpt>
      <trkpt lat="48.57756" lon="-3.81829">
        <ele>62.2</ele>
        <time>2020-06-10T13:34:47Z</time>
      </trkpt>
      <trkpt lat="48.57756" lon="-3.81827">
        <ele>62.3</ele>
        <time>2020-06-10T13:34:48Z</time>
      </trkpt>
      <trkpt lat="48.57757" lon="-3.81824">
        <ele>62.5</ele>
        <time>2020-06-10T13:34:49Z</time>
      </trkpt>
      <trkpt lat="48.57757" lon="-3.81823">
        <ele>62.6</ele>
        <time>2020-06-10T13:34:50Z</time>
      </trkpt>
      <trkpt lat="48.57758" lon="-3.81822">
        <ele>62.6</ele>
        <time>2020-06-10T13:34:51Z</time>
      </trkpt>
      <trkpt lat="48.57758" lon="-3.81821">
        <ele>63.1</ele>
        <time>2020-06-10T13:34:52Z</time>
      </trkpt>
      <trkpt lat="48.57759" lon="-3.81819">
        <ele>63.1</ele>
        <time>2020-06-10T13:34:53Z</time>
      </trkpt>
      <trkpt lat="48.5776" lon="-3.81817">
        <ele>63.1</ele>
        <time>2020-06-10T13:34:54Z</time>
      </trkpt>
      <trkpt lat="48.57761" lon="-3.81816">
        <ele>63.1</ele>
        <time>2020-06-10T13:34:55Z</time>
      </trkpt>
      <trkpt lat="48.57761" lon="-3.81814">
        <ele>63.2</ele>
        <time>2020-06-10T13:34:56Z</time>
      </trkpt>
      <trkpt lat="48.57762" lon="-3.81813">
        <ele>63.2</ele>
        <time>2020-06-10T13:34:57Z</time>
      </trkpt>
      <trkpt lat="48.57763" lon="-3.81812">
        <ele>63.2</ele>
        <time>2020-06-10T13:34:58Z</time>
      </trkpt>
      <trkpt lat="48.57764" lon="-3.81811">
        <ele>63.2</ele>
        <time>2020-06-10T13:34:59Z</time>
      </trkpt>
      <trkpt lat="48.57765" lon="-3.8181">
        <ele>63.2</ele>
        <time>2020-06-10T13:35:00Z</time>
      </trkpt>
      <trkpt lat="48.57766" lon="-3.81808">
        <ele>63.2</ele>
        <time>2020-06-10T13:35:01Z</time>
      </trkpt>
      <trkpt lat="48.57766" lon="-3.81807">
        <ele>63.2</ele>
        <time>2020-06-10T13:35:02Z</time>
      </trkpt>
      <trkpt lat="48.57766" lon="-3.81806">
        <ele>63.2</ele>
        <time>2020-06-10T13:35:03Z</time>
      </trkpt>
      <trkpt lat="48.57767" lon="-3.81806">
        <ele>63.2</ele>
        <time>2020-06-10T13:35:04Z</time>
      </trkpt>
      <trkpt lat="48.57767" lon="-3.81805">
        <ele>63.2</ele>
        <time>2020-06-10T13:35:05Z</time>
      </trkpt>
      <trkpt lat="48.57767" lon="-3.81804">
        <ele>63.3</ele>
        <time>2020-06-10T13:35:06Z</time>
      </trkpt>
      <trkpt lat="48.57768" lon="-3.81803">
        <ele>63.3</ele>
        <time>2020-06-10T13:35:07Z</time>
      </trkpt>
      <trkpt lat="48.57768" lon="-3.81803">
        <ele>63.3</ele>
        <time>2020-06-10T13:35:08Z</time>
      </trkpt>
      <trkpt lat="48.57769" lon="-3.81802">
        <ele>63.3</ele>
        <time>2020-06-10T13:35:09Z</time>
      </trkpt>
      <trkpt lat="48.57769" lon="-3.81801">
        <ele>63.3</ele>
        <time>2020-06-10T13:35:10Z</time>
      </trkpt>
      <trkpt lat="48.57769" lon="-3.818">
        <ele>63.3</ele>
        <time>2020-06-10T13:35:11Z</time>
      </trkpt>
      <trkpt lat="48.5777" lon="-3.818">
        <ele>63.3</ele>
        <time>2020-06-10T13:35:12Z</time>
      </trkpt>
      <trkpt lat="48.5777" lon="-3.81799">
        <ele>63.3</ele>
        <time>2020-06-10T13:37:01Z</time>
      </trkpt>
      <trkpt lat="48.5777" lon="-3.81798">
        <ele>63.3</ele>
        <time>2020-06-10T13:37:02Z</time>
      </trkpt>
      <trkpt lat="48.57772" lon="-3.81795">
        <ele>63.3</ele>
        <time>2020-06-10T13:37:03Z</time>
      </trkpt>
      <trkpt lat="48.57773" lon="-3.81794">
        <ele>63.4</ele>
        <time>2020-06-10T13:37:04Z</time>
      </trkpt>
      <trkpt lat="48.57774" lon="-3.81793">
        <ele>63.4</ele>
        <time>2020-06-10T13:37:05Z</time>
      </trkpt>
      <trkpt lat="48.57775" lon="-3.81789">
        <ele>63.4</ele>
        <time>2020-06-10T13:37:06Z</time>
      </trkpt>
      <trkpt lat="48.57776" lon="-3.81788">
        <ele>63.4</ele>
        <time>2020-06-10T13:37:07Z</time>
      </trkpt>
      <trkpt lat="48.57778" lon="-3.81783">
        <ele>63.5</ele>
        <time>2020-06-10T13:37:08Z</time>
      </trkpt>
      <trkpt lat="48.57778" lon="-3.81782">
        <ele>63.5</ele>
        <time>2020-06-10T13:37:09Z</time>
      </trkpt>
      <trkpt lat="48.57779" lon="-3.81778">
        <ele>63.5</ele>
        <time>2020-06-10T13:37:10Z</time>
      </trkpt>
      <trkpt lat="48.5778" lon="-3.81776">
        <ele>63.5</ele>
        <time>2020-06-10T13:37:11Z</time>
      </trkpt>
      <trkpt lat="48.57782" lon="-3.81772">
        <ele>63.6</ele>
        <time>2020-06-10T13:37:12Z</time>
      </trkpt>
      <trkpt lat="48.57783" lon="-3.81768">
        <ele>63.6</ele>
        <time>2020-06-10T13:37:13Z</time>
      </trkpt>
      <trkpt lat="48.57784" lon="-3.81764">
        <ele>63.6</ele>
        <time>2020-06-10T13:37:14Z</time>
      </trkpt>
      <trkpt lat="48.57785" lon="-3.8176">
        <ele>63.7</ele>
        <time>2020-06-10T13:37:15Z</time>
      </trkpt>
      <trkpt lat="48.57786" lon="-3.81756">
        <ele>63.7</ele>
        <time>2020-06-10T13:37:16Z</time>
      </trkpt>
      <trkpt lat="48.57786" lon="-3.8175">
        <ele>63.7</ele>
        <time>2020-06-10T13:37:17Z</time>
      </trkpt>
      <trkpt lat="48.57787" lon="-3.81749">
        <ele>63.7</ele>
        <time>2020-06-10T13:37:18Z</time>
      </trkpt>
      <trkpt lat="48.57786" lon="-3.81745">
        <ele>63.7</ele>
        <time>2020-06-10T13:37:19Z</time>
      </trkpt>
      <trkpt lat="48.57787" lon="-3.8174">
        <ele>63.6</ele>
        <time>2020-06-10T13:37:20Z</time>
      </trkpt>
      <trkpt lat="48.57788" lon="-3.81739">
        <ele>63.6</ele>
        <time>2020-06-10T13:37:21Z</time>
      </trkpt>
      <trkpt lat="48.57789" lon="-3.81735">
        <ele>63.6</ele>
        <time>2020-06-10T13:37:22Z</time>
      </trkpt>
      <trkpt lat="48.57789" lon="-3.81734">
        <ele>63.6</ele>
        <time>2020-06-10T13:37:23Z</time>
      </trkpt>
      <trkpt lat="48.57791" lon="-3.81731">
        <ele>63.5</ele>
        <time>2020-06-10T13:37:24Z</time>
      </trkpt>
      <trkpt lat="48.57791" lon="-3.8173">
        <ele>63.5</ele>
        <time>2020-06-10T13:37:25Z</time>
      </trkpt>
      <trkpt lat="48.57792" lon="-3.81728">
        <ele>63.5</ele>
        <time>2020-06-10T13:37:26Z</time>
      </trkpt>
      <trkpt lat="48.57793" lon="-3.81727">
        <ele>63.5</ele>
        <time>2020-06-10T13:37:27Z</time>
      </trkpt>
      <trkpt lat="48.57793" lon="-3.81725">
        <ele>63.5</ele>
        <time>2020-06-10T13:37:28Z</time>
      </trkpt>
      <trkpt lat="48.57794" lon="-3.81722">
        <ele>63.5</ele>
        <time>2020-06-10T13:37:29Z</time>
      </trkpt>
      <trkpt lat="48.57794" lon="-3.81719">
        <ele>63.5</ele>
        <time>2020-06-10T13:37:30Z</time>
      </trkpt>
      <trkpt lat="48.57794" lon="-3.81713">
        <ele>63.5</ele>
        <time>2020-06-10T13:37:31Z</time>
      </trkpt>
      <trkpt lat="48.57794" lon="-3.81711">
        <ele>63.4</ele>
        <time>2020-06-10T13:37:32Z</time>
      </trkpt>
      <trkpt lat="48.57793" lon="-3.81705">
        <ele>63.4</ele>
        <time>2020-06-10T13:37:33Z</time>
      </trkpt>
      <trkpt lat="48.57793" lon="-3.81704">
        <ele>63.4</ele>
        <time>2020-06-10T13:37:34Z</time>
      </trkpt>
      <trkpt lat="48.57791" lon="-3.817">
        <ele>63.4</ele>
        <time>2020-06-10T13:37:35Z</time>
      </trkpt>
      <trkpt lat="48.5779" lon="-3.81696">
        <ele>63.5</ele>
        <time>2020-06-10T13:37:36Z</time>
      </trkpt>
      <trkpt lat="48.57789" lon="-3.8169">
        <ele>63.6</ele>
        <time>2020-06-10T13:37:37Z</time>
      </trkpt>
      <trkpt lat="48.57788" lon="-3.81684">
        <ele>63.7</ele>
        <time>2020-06-10T13:37:38Z</time>
      </trkpt>
      <trkpt lat="48.57787" lon="-3.81678">
        <ele>63.9</ele>
        <time>2020-06-10T13:37:39Z</time>
      </trkpt>
      <trkpt lat="48.57786" lon="-3.81673">
        <ele>64</ele>
        <time>2020-06-10T13:37:40Z</time>
      </trkpt>
      <trkpt lat="48.57785" lon="-3.81667">
        <ele>64.1</ele>
        <time>2020-06-10T13:37:41Z</time>
      </trkpt>
      <trkpt lat="48.57785" lon="-3.81662">
        <ele>64.3</ele>
        <time>2020-06-10T13:37:42Z</time>
      </trkpt>
      <trkpt lat="48.57784" lon="-3.81655">
        <ele>64.5</ele>
        <time>2020-06-10T13:37:43Z</time>
      </trkpt>
      <trkpt lat="48.57784" lon="-3.81651">
        <ele>64.6</ele>
        <time>2020-06-10T13:37:44Z</time>
      </trkpt>
      <trkpt lat="48.57785" lon="-3.81645">
        <ele>64.8</ele>
        <time>2020-06-10T13:37:45Z</time>
      </trkpt>
      <trkpt lat="48.57784" lon="-3.8164">
        <ele>64.9</ele>
        <time>2020-06-10T13:37:46Z</time>
      </trkpt>
      <trkpt lat="48.57783" lon="-3.81636">
        <ele>65</ele>
        <time>2020-06-10T13:37:47Z</time>
      </trkpt>
      <trkpt lat="48.57783" lon="-3.8163">
        <ele>65.2</ele>
        <time>2020-06-10T13:37:48Z</time>
      </trkpt>
      <trkpt lat="48.57782" lon="-3.81628">
        <ele>65.2</ele>
        <time>2020-06-10T13:37:49Z</time>
      </trkpt>
      <trkpt lat="48.57781" lon="-3.81624">
        <ele>65.3</ele>
        <time>2020-06-10T13:37:50Z</time>
      </trkpt>
      <trkpt lat="48.57779" lon="-3.81619">
        <ele>65.5</ele>
        <time>2020-06-10T13:37:51Z</time>
      </trkpt>
      <trkpt lat="48.57778" lon="-3.81614">
        <ele>65.6</ele>
        <time>2020-06-10T13:37:52Z</time>
      </trkpt>
      <trkpt lat="48.57776" lon="-3.81609">
        <ele>65.7</ele>
        <time>2020-06-10T13:37:53Z</time>
      </trkpt>
      <trkpt lat="48.57775" lon="-3.81605">
        <ele>65.8</ele>
        <time>2020-06-10T13:37:54Z</time>
      </trkpt>
      <trkpt lat="48.57773" lon="-3.816">
        <ele>65.9</ele>
        <time>2020-06-10T13:37:55Z</time>
      </trkpt>
      <trkpt lat="48.57773" lon="-3.81599">
        <ele>66</ele>
        <time>2020-06-10T13:37:56Z</time>
      </trkpt>
      <trkpt lat="48.57771" lon="-3.81594">
        <ele>66.1</ele>
        <time>2020-06-10T13:37:57Z</time>
      </trkpt>
      <trkpt lat="48.57769" lon="-3.8159">
        <ele>66.2</ele>
        <time>2020-06-10T13:37:58Z</time>
      </trkpt>
      <trkpt lat="48.57768" lon="-3.81586">
        <ele>66.3</ele>
        <time>2020-06-10T13:37:59Z</time>
      </trkpt>
      <trkpt lat="48.57766" lon="-3.8158">
        <ele>66.4</ele>
        <time>2020-06-10T13:38:00Z</time>
      </trkpt>
      <trkpt lat="48.57765" lon="-3.81578">
        <ele>66.4</ele>
        <time>2020-06-10T13:38:01Z</time>
      </trkpt>
      <trkpt lat="48.57764" lon="-3.81574">
        <ele>66.5</ele>
        <time>2020-06-10T13:38:02Z</time>
      </trkpt>
      <trkpt lat="48.57762" lon="-3.81569">
        <ele>66.6</ele>
        <time>2020-06-10T13:38:03Z</time>
      </trkpt>
      <trkpt lat="48.57761" lon="-3.81567">
        <ele>66.6</ele>
        <time>2020-06-10T13:38:04Z</time>
      </trkpt>
      <trkpt lat="48.57759" lon="-3.81563">
        <ele>66.7</ele>
        <time>2020-06-10T13:38:05Z</time>
      </trkpt>
      <trkpt lat="48.57758" lon="-3.81558">
        <ele>66.8</ele>
        <time>2020-06-10T13:38:06Z</time>
      </trkpt>
      <trkpt lat="48.57757" lon="-3.81556">
        <ele>66.9</ele>
        <time>2020-06-10T13:38:07Z</time>
      </trkpt>
      <trkpt lat="48.57756" lon="-3.8155">
        <ele>67</ele>
        <time>2020-06-10T13:38:08Z</time>
      </trkpt>
      <trkpt lat="48.57755" lon="-3.81545">
        <ele>67</ele>
        <time>2020-06-10T13:38:09Z</time>
      </trkpt>
      <trkpt lat="48.57754" lon="-3.8154">
        <ele>67.1</ele>
        <time>2020-06-10T13:38:10Z</time>
      </trkpt>
      <trkpt lat="48.57752" lon="-3.81536">
        <ele>67.2</ele>
        <time>2020-06-10T13:38:11Z</time>
      </trkpt>
      <trkpt lat="48.57751" lon="-3.81532">
        <ele>67.3</ele>
        <time>2020-06-10T13:38:12Z</time>
      </trkpt>
      <trkpt lat="48.57749" lon="-3.81528">
        <ele>67.3</ele>
        <time>2020-06-10T13:38:13Z</time>
      </trkpt>
      <trkpt lat="48.57748" lon="-3.81523">
        <ele>67.4</ele>
        <time>2020-06-10T13:38:14Z</time>
      </trkpt>
      <trkpt lat="48.57747" lon="-3.81518">
        <ele>67.5</ele>
        <time>2020-06-10T13:38:15Z</time>
      </trkpt>
      <trkpt lat="48.57745" lon="-3.81514">
        <ele>67.5</ele>
        <time>2020-06-10T13:38:16Z</time>
      </trkpt>
      <trkpt lat="48.57744" lon="-3.81509">
        <ele>67.6</ele>
        <time>2020-06-10T13:38:17Z</time>
      </trkpt>
      <trkpt lat="48.57742" lon="-3.81505">
        <ele>67.6</ele>
        <time>2020-06-10T13:38:18Z</time>
      </trkpt>
      <trkpt lat="48.5774" lon="-3.815">
        <ele>67.7</ele>
        <time>2020-06-10T13:38:19Z</time>
      </trkpt>
      <trkpt lat="48.5774" lon="-3.81499">
        <ele>67.7</ele>
        <time>2020-06-10T13:38:20Z</time>
      </trkpt>
      <trkpt lat="48.57739" lon="-3.81494">
        <ele>67.8</ele>
        <time>2020-06-10T13:38:21Z</time>
      </trkpt>
      <trkpt lat="48.57737" lon="-3.8149">
        <ele>67.8</ele>
        <time>2020-06-10T13:38:22Z</time>
      </trkpt>
      <trkpt lat="48.57736" lon="-3.81486">
        <ele>67.9</ele>
        <time>2020-06-10T13:38:23Z</time>
      </trkpt>
      <trkpt lat="48.57736" lon="-3.81481">
        <ele>67.9</ele>
        <time>2020-06-10T13:38:24Z</time>
      </trkpt>
      <trkpt lat="48.57735" lon="-3.81479">
        <ele>67.9</ele>
        <time>2020-06-10T13:38:25Z</time>
      </trkpt>
      <trkpt lat="48.57735" lon="-3.81475">
        <ele>68</ele>
        <time>2020-06-10T13:38:26Z</time>
      </trkpt>
      <trkpt lat="48.57733" lon="-3.81469">
        <ele>68</ele>
        <time>2020-06-10T13:38:27Z</time>
      </trkpt>
      <trkpt lat="48.57732" lon="-3.81467">
        <ele>68</ele>
        <time>2020-06-10T13:38:28Z</time>
      </trkpt>
      <trkpt lat="48.5773" lon="-3.81463">
        <ele>68.1</ele>
        <time>2020-06-10T13:38:29Z</time>
      </trkpt>
      <trkpt lat="48.57729" lon="-3.81461">
        <ele>68.1</ele>
        <time>2020-06-10T13:38:30Z</time>
      </trkpt>
      <trkpt lat="48.57728" lon="-3.81455">
        <ele>68.1</ele>
        <time>2020-06-10T13:38:31Z</time>
      </trkpt>
      <trkpt lat="48.57728" lon="-3.81449">
        <ele>68.1</ele>
        <time>2020-06-10T13:38:32Z</time>
      </trkpt>
      <trkpt lat="48.57727" lon="-3.81443">
        <ele>68.1</ele>
        <time>2020-06-10T13:38:33Z</time>
      </trkpt>
      <trkpt lat="48.57726" lon="-3.81437">
        <ele>68.1</ele>
        <time>2020-06-10T13:38:34Z</time>
      </trkpt>
      <trkpt lat="48.57726" lon="-3.81432">
        <ele>68.1</ele>
        <time>2020-06-10T13:38:35Z</time>
      </trkpt>
      <trkpt lat="48.57725" lon="-3.81428">
        <ele>68.1</ele>
        <time>2020-06-10T13:38:36Z</time>
      </trkpt>
      <trkpt lat="48.57725" lon="-3.81424">
        <ele>68.1</ele>
        <time>2020-06-10T13:38:37Z</time>
      </trkpt>
      <trkpt lat="48.57724" lon="-3.81418">
        <ele>68.1</ele>
        <time>2020-06-10T13:38:38Z</time>
      </trkpt>
      <trkpt lat="48.57724" lon="-3.81416">
        <ele>68.1</ele>
        <time>2020-06-10T13:38:39Z</time>
      </trkpt>
      <trkpt lat="48.57722" lon="-3.81412">
        <ele>68.1</ele>
        <time>2020-06-10T13:38:40Z</time>
      </trkpt>
      <trkpt lat="48.57721" lon="-3.81406">
        <ele>68.1</ele>
        <time>2020-06-10T13:38:41Z</time>
      </trkpt>
      <trkpt lat="48.5772" lon="-3.81404">
        <ele>68.1</ele>
        <time>2020-06-10T13:38:42Z</time>
      </trkpt>
      <trkpt lat="48.57718" lon="-3.81398">
        <ele>68.1</ele>
        <time>2020-06-10T13:38:43Z</time>
      </trkpt>
      <trkpt lat="48.57718" lon="-3.81395">
        <ele>68.1</ele>
        <time>2020-06-10T13:38:44Z</time>
      </trkpt>
      <trkpt lat="48.57717" lon="-3.81391">
        <ele>68.1</ele>
        <time>2020-06-10T13:38:45Z</time>
      </trkpt>
      <trkpt lat="48.57716" lon="-3.81386">
        <ele>68</ele>
        <time>2020-06-10T13:38:46Z</time>
      </trkpt>
      <trkpt lat="48.57715" lon="-3.81381">
        <ele>68</ele>
        <time>2020-06-10T13:38:47Z</time>
      </trkpt>
      <trkpt lat="48.57715" lon="-3.81375">
        <ele>67.9</ele>
        <time>2020-06-10T13:38:48Z</time>
      </trkpt>
      <trkpt lat="48.57714" lon="-3.81371">
        <ele>67.9</ele>
        <time>2020-06-10T13:38:49Z</time>
      </trkpt>
      <trkpt lat="48.57714" lon="-3.81365">
        <ele>67.9</ele>
        <time>2020-06-10T13:38:50Z</time>
      </trkpt>
      <trkpt lat="48.57715" lon="-3.81364">
        <ele>67.8</ele>
        <time>2020-06-10T13:38:51Z</time>
      </trkpt>
      <trkpt lat="48.57715" lon="-3.81359">
        <ele>67.8</ele>
        <time>2020-06-10T13:38:52Z</time>
      </trkpt>
      <trkpt lat="48.57715" lon="-3.81357">
        <ele>67.8</ele>
        <time>2020-06-10T13:38:53Z</time>
      </trkpt>
      <trkpt lat="48.57714" lon="-3.81356">
        <ele>67.8</ele>
        <time>2020-06-10T13:38:54Z</time>
      </trkpt>
      <trkpt lat="48.57714" lon="-3.81354">
        <ele>67.7</ele>
        <time>2020-06-10T13:38:55Z</time>
      </trkpt>
      <trkpt lat="48.57714" lon="-3.81355">
        <ele>67.7</ele>
        <time>2020-06-10T13:38:56Z</time>
      </trkpt>
      <trkpt lat="48.57715" lon="-3.81354">
        <ele>67.7</ele>
        <time>2020-06-10T13:38:57Z</time>
      </trkpt>
      <trkpt lat="48.57715" lon="-3.81355">
        <ele>67.7</ele>
        <time>2020-06-10T13:38:58Z</time>
      </trkpt>
      <trkpt lat="48.57715" lon="-3.81355">
        <ele>67.7</ele>
        <time>2020-06-10T13:38:59Z</time>
      </trkpt>
      <trkpt lat="48.57715" lon="-3.81355">
        <ele>67.7</ele>
        <time>2020-06-10T13:39:00Z</time>
      </trkpt>
      <trkpt lat="48.57715" lon="-3.81355">
        <ele>67.7</ele>
        <time>2020-06-10T13:39:01Z</time>
      </trkpt>
      <trkpt lat="48.57715" lon="-3.81355">
        <ele>67.7</ele>
        <time>2020-06-10T13:39:02Z</time>
      </trkpt>
      <trkpt lat="48.57715" lon="-3.81355">
        <ele>67.7</ele>
        <time>2020-06-10T13:39:03Z</time>
      </trkpt>
      <trkpt lat="48.57715" lon="-3.81355">
        <ele>67.7</ele>
        <time>2020-06-10T13:39:04Z</time>
      </trkpt>
      <trkpt lat="48.57715" lon="-3.81355">
        <ele>67.7</ele>
        <time>2020-06-10T13:39:05Z</time>
      </trkpt>
      <trkpt lat="48.57715" lon="-3.81349">
        <ele>67.6</ele>
        <time>2020-06-10T13:39:12Z</time>
      </trkpt>
      <trkpt lat="48.57715" lon="-3.81345">
        <ele>67.6</ele>
        <time>2020-06-10T13:39:13Z</time>
      </trkpt>
      <trkpt lat="48.57715" lon="-3.81341">
        <ele>67.5</ele>
        <time>2020-06-10T13:39:14Z</time>
      </trkpt>
      <trkpt lat="48.57715" lon="-3.81339">
        <ele>67.5</ele>
        <time>2020-06-10T13:39:15Z</time>
      </trkpt>
      <trkpt lat="48.57715" lon="-3.81334">
        <ele>67.4</ele>
        <time>2020-06-10T13:39:16Z</time>
      </trkpt>
      <trkpt lat="48.57715" lon="-3.81333">
        <ele>67.4</ele>
        <time>2020-06-10T13:39:17Z</time>
      </trkpt>
      <trkpt lat="48.57714" lon="-3.81327">
        <ele>67.3</ele>
        <time>2020-06-10T13:39:18Z</time>
      </trkpt>
      <trkpt lat="48.57714" lon="-3.81325">
        <ele>67.2</ele>
        <time>2020-06-10T13:39:19Z</time>
      </trkpt>
      <trkpt lat="48.57714" lon="-3.81321">
        <ele>67.1</ele>
        <time>2020-06-10T13:39:20Z</time>
      </trkpt>
      <trkpt lat="48.57714" lon="-3.81316">
        <ele>67</ele>
        <time>2020-06-10T13:39:21Z</time>
      </trkpt>
      <trkpt lat="48.57714" lon="-3.81311">
        <ele>66.8</ele>
        <time>2020-06-10T13:39:22Z</time>
      </trkpt>
      <trkpt lat="48.57714" lon="-3.8131">
        <ele>66.8</ele>
        <time>2020-06-10T13:39:23Z</time>
      </trkpt>
      <trkpt lat="48.57715" lon="-3.81304">
        <ele>66.6</ele>
        <time>2020-06-10T13:39:24Z</time>
      </trkpt>
      <trkpt lat="48.57715" lon="-3.81302">
        <ele>66.5</ele>
        <time>2020-06-10T13:39:25Z</time>
      </trkpt>
      <trkpt lat="48.57715" lon="-3.81297">
        <ele>66.2</ele>
        <time>2020-06-10T13:39:26Z</time>
      </trkpt>
      <trkpt lat="48.57715" lon="-3.81295">
        <ele>66.2</ele>
        <time>2020-06-10T13:39:27Z</time>
      </trkpt>
      <trkpt lat="48.57714" lon="-3.8129">
        <ele>65.9</ele>
        <time>2020-06-10T13:39:28Z</time>
      </trkpt>
      <trkpt lat="48.57714" lon="-3.81289">
        <ele>65.9</ele>
        <time>2020-06-10T13:39:29Z</time>
      </trkpt>
      <trkpt lat="48.57715" lon="-3.81284">
        <ele>65.6</ele>
        <time>2020-06-10T13:39:30Z</time>
      </trkpt>
      <trkpt lat="48.57715" lon="-3.81282">
        <ele>65.5</ele>
        <time>2020-06-10T13:39:31Z</time>
      </trkpt>
      <trkpt lat="48.57716" lon="-3.81277">
        <ele>65.3</ele>
        <time>2020-06-10T13:39:32Z</time>
      </trkpt>
      <trkpt lat="48.57716" lon="-3.81276">
        <ele>65.2</ele>
        <time>2020-06-10T13:39:33Z</time>
      </trkpt>
      <trkpt lat="48.57717" lon="-3.81272">
        <ele>65</ele>
        <time>2020-06-10T13:39:34Z</time>
      </trkpt>
      <trkpt lat="48.57717" lon="-3.8127">
        <ele>64.9</ele>
        <time>2020-06-10T13:39:35Z</time>
      </trkpt>
      <trkpt lat="48.57718" lon="-3.81267">
        <ele>64.7</ele>
        <time>2020-06-10T13:39:36Z</time>
      </trkpt>
      <trkpt lat="48.57718" lon="-3.81265">
        <ele>64.6</ele>
        <time>2020-06-10T13:39:37Z</time>
      </trkpt>
      <trkpt lat="48.57718" lon="-3.81261">
        <ele>64.4</ele>
        <time>2020-06-10T13:39:38Z</time>
      </trkpt>
      <trkpt lat="48.57719" lon="-3.81259">
        <ele>64.3</ele>
        <time>2020-06-10T13:39:39Z</time>
      </trkpt>
      <trkpt lat="48.57718" lon="-3.81254">
        <ele>64</ele>
        <time>2020-06-10T13:39:40Z</time>
      </trkpt>
      <trkpt lat="48.57718" lon="-3.81248">
        <ele>63.7</ele>
        <time>2020-06-10T13:39:41Z</time>
      </trkpt>
      <trkpt lat="48.57718" lon="-3.81246">
        <ele>63.5</ele>
        <time>2020-06-10T13:39:42Z</time>
      </trkpt>
      <trkpt lat="48.57719" lon="-3.81242">
        <ele>63.3</ele>
        <time>2020-06-10T13:39:43Z</time>
      </trkpt>
      <trkpt lat="48.57719" lon="-3.81237">
        <ele>63</ele>
        <time>2020-06-10T13:39:44Z</time>
      </trkpt>
      <trkpt lat="48.57719" lon="-3.81231">
        <ele>62.7</ele>
        <time>2020-06-10T13:39:45Z</time>
      </trkpt>
      <trkpt lat="48.57719" lon="-3.81229">
        <ele>62.6</ele>
        <time>2020-06-10T13:39:46Z</time>
      </trkpt>
      <trkpt lat="48.5772" lon="-3.81224">
        <ele>62.3</ele>
        <time>2020-06-10T13:39:47Z</time>
      </trkpt>
      <trkpt lat="48.57719" lon="-3.8122">
        <ele>62</ele>
        <time>2020-06-10T13:39:48Z</time>
      </trkpt>
      <trkpt lat="48.57719" lon="-3.81215">
        <ele>61.6</ele>
        <time>2020-06-10T13:39:49Z</time>
      </trkpt>
      <trkpt lat="48.57717" lon="-3.81205">
        <ele>61</ele>
        <time>2020-06-10T13:39:50Z</time>
      </trkpt>
      <trkpt lat="48.57715" lon="-3.81197">
        <ele>60.4</ele>
        <time>2020-06-10T13:39:51Z</time>
      </trkpt>
      <trkpt lat="48.57713" lon="-3.81193">
        <ele>60</ele>
        <time>2020-06-10T13:39:52Z</time>
      </trkpt>
      <trkpt lat="48.57712" lon="-3.81188">
        <ele>59.7</ele>
        <time>2020-06-10T13:39:53Z</time>
      </trkpt>
      <trkpt lat="48.57711" lon="-3.81186">
        <ele>59.6</ele>
        <time>2020-06-10T13:39:54Z</time>
      </trkpt>
      <trkpt lat="48.57711" lon="-3.8118">
        <ele>59.2</ele>
        <time>2020-06-10T13:39:55Z</time>
      </trkpt>
      <trkpt lat="48.57711" lon="-3.81178">
        <ele>59</ele>
        <time>2020-06-10T13:39:56Z</time>
      </trkpt>
      <trkpt lat="48.57709" lon="-3.81173">
        <ele>58.7</ele>
        <time>2020-06-10T13:39:57Z</time>
      </trkpt>
      <trkpt lat="48.57709" lon="-3.81171">
        <ele>58.6</ele>
        <time>2020-06-10T13:39:58Z</time>
      </trkpt>
      <trkpt lat="48.57708" lon="-3.81166">
        <ele>58.2</ele>
        <time>2020-06-10T13:39:59Z</time>
      </trkpt>
      <trkpt lat="48.57708" lon="-3.81163">
        <ele>58</ele>
        <time>2020-06-10T13:40:00Z</time>
      </trkpt>
      <trkpt lat="48.57707" lon="-3.81158">
        <ele>57.6</ele>
        <time>2020-06-10T13:40:01Z</time>
      </trkpt>
      <trkpt lat="48.57707" lon="-3.81156">
        <ele>57.5</ele>
        <time>2020-06-10T13:40:02Z</time>
      </trkpt>
      <trkpt lat="48.57705" lon="-3.81151">
        <ele>57.2</ele>
        <time>2020-06-10T13:40:03Z</time>
      </trkpt>
      <trkpt lat="48.57705" lon="-3.81149">
        <ele>57.1</ele>
        <time>2020-06-10T13:40:04Z</time>
      </trkpt>
      <trkpt lat="48.57703" lon="-3.81146">
        <ele>56.8</ele>
        <time>2020-06-10T13:40:05Z</time>
      </trkpt>
      <trkpt lat="48.57703" lon="-3.81145">
        <ele>56.7</ele>
        <time>2020-06-10T13:40:06Z</time>
      </trkpt>
      <trkpt lat="48.57703" lon="-3.8114">
        <ele>56.5</ele>
        <time>2020-06-10T13:40:07Z</time>
      </trkpt>
      <trkpt lat="48.57703" lon="-3.81139">
        <ele>56.4</ele>
        <time>2020-06-10T13:40:08Z</time>
      </trkpt>
      <trkpt lat="48.57703" lon="-3.81138">
        <ele>56.3</ele>
        <time>2020-06-10T13:40:09Z</time>
      </trkpt>
      <trkpt lat="48.57703" lon="-3.81135">
        <ele>56.1</ele>
        <time>2020-06-10T13:40:10Z</time>
      </trkpt>
      <trkpt lat="48.57704" lon="-3.81132">
        <ele>56</ele>
        <time>2020-06-10T13:40:11Z</time>
      </trkpt>
      <trkpt lat="48.57705" lon="-3.8113">
        <ele>55.8</ele>
        <time>2020-06-10T13:40:12Z</time>
      </trkpt>
      <trkpt lat="48.57708" lon="-3.81127">
        <ele>55.5</ele>
        <time>2020-06-10T13:40:13Z</time>
      </trkpt>
      <trkpt lat="48.57709" lon="-3.81125">
        <ele>55.3</ele>
        <time>2020-06-10T13:40:14Z</time>
      </trkpt>
      <trkpt lat="48.57713" lon="-3.81117">
        <ele>54.8</ele>
        <time>2020-06-10T13:40:15Z</time>
      </trkpt>
      <trkpt lat="48.57716" lon="-3.81107">
        <ele>55.2</ele>
        <time>2020-06-10T13:40:16Z</time>
      </trkpt>
      <trkpt lat="48.57719" lon="-3.811">
        <ele>55.3</ele>
        <time>2020-06-10T13:40:17Z</time>
      </trkpt>
      <trkpt lat="48.57723" lon="-3.81094">
        <ele>55.6</ele>
        <time>2020-06-10T13:40:18Z</time>
      </trkpt>
      <trkpt lat="48.57725" lon="-3.81087">
        <ele>55.8</ele>
        <time>2020-06-10T13:40:19Z</time>
      </trkpt>
      <trkpt lat="48.57728" lon="-3.81083">
        <ele>56</ele>
        <time>2020-06-10T13:40:20Z</time>
      </trkpt>
      <trkpt lat="48.57731" lon="-3.81077">
        <ele>56.2</ele>
        <time>2020-06-10T13:40:21Z</time>
      </trkpt>
      <trkpt lat="48.57733" lon="-3.81074">
        <ele>56.3</ele>
        <time>2020-06-10T13:40:22Z</time>
      </trkpt>
      <trkpt lat="48.57735" lon="-3.8107">
        <ele>56.5</ele>
        <time>2020-06-10T13:40:23Z</time>
      </trkpt>
      <trkpt lat="48.57736" lon="-3.81068">
        <ele>56.5</ele>
        <time>2020-06-10T13:40:24Z</time>
      </trkpt>
      <trkpt lat="48.57738" lon="-3.81066">
        <ele>56.7</ele>
        <time>2020-06-10T13:40:25Z</time>
      </trkpt>
      <trkpt lat="48.5774" lon="-3.81063">
        <ele>56.8</ele>
        <time>2020-06-10T13:40:26Z</time>
      </trkpt>
      <trkpt lat="48.57743" lon="-3.81059">
        <ele>57</ele>
        <time>2020-06-10T13:40:27Z</time>
      </trkpt>
      <trkpt lat="48.57744" lon="-3.81058">
        <ele>57</ele>
        <time>2020-06-10T13:40:28Z</time>
      </trkpt>
      <trkpt lat="48.57745" lon="-3.81057">
        <ele>57.1</ele>
        <time>2020-06-10T13:40:29Z</time>
      </trkpt>
      <trkpt lat="48.57747" lon="-3.81055">
        <ele>57.1</ele>
        <time>2020-06-10T13:40:30Z</time>
      </trkpt>
      <trkpt lat="48.57748" lon="-3.81053">
        <ele>57.2</ele>
        <time>2020-06-10T13:40:31Z</time>
      </trkpt>
      <trkpt lat="48.57749" lon="-3.81052">
        <ele>57.3</ele>
        <time>2020-06-10T13:40:32Z</time>
      </trkpt>
      <trkpt lat="48.57752" lon="-3.81047">
        <ele>57.6</ele>
        <time>2020-06-10T13:40:33Z</time>
      </trkpt>
      <trkpt lat="48.57753" lon="-3.81046">
        <ele>57.7</ele>
        <time>2020-06-10T13:40:34Z</time>
      </trkpt>
      <trkpt lat="48.57756" lon="-3.81041">
        <ele>57.9</ele>
        <time>2020-06-10T13:40:35Z</time>
      </trkpt>
      <trkpt lat="48.57759" lon="-3.81037">
        <ele>58.1</ele>
        <time>2020-06-10T13:40:36Z</time>
      </trkpt>
      <trkpt lat="48.57759" lon="-3.81036">
        <ele>58.1</ele>
        <time>2020-06-10T13:40:37Z</time>
      </trkpt>
      <trkpt lat="48.57761" lon="-3.81032">
        <ele>58.3</ele>
        <time>2020-06-10T13:40:38Z</time>
      </trkpt>
      <trkpt lat="48.57762" lon="-3.81031">
        <ele>58.4</ele>
        <time>2020-06-10T13:40:39Z</time>
      </trkpt>
      <trkpt lat="48.57764" lon="-3.81027">
        <ele>58.5</ele>
        <time>2020-06-10T13:40:40Z</time>
      </trkpt>
      <trkpt lat="48.57765" lon="-3.81027">
        <ele>58.6</ele>
        <time>2020-06-10T13:40:41Z</time>
      </trkpt>
      <trkpt lat="48.57766" lon="-3.81026">
        <ele>58.6</ele>
        <time>2020-06-10T13:40:42Z</time>
      </trkpt>
      <trkpt lat="48.57766" lon="-3.81025">
        <ele>58.7</ele>
        <time>2020-06-10T13:40:43Z</time>
      </trkpt>
      <trkpt lat="48.57766" lon="-3.81025">
        <ele>58.7</ele>
        <time>2020-06-10T13:40:44Z</time>
      </trkpt>
      <trkpt lat="48.57766" lon="-3.81025">
        <ele>58.7</ele>
        <time>2020-06-10T13:40:45Z</time>
      </trkpt>
      <trkpt lat="48.57766" lon="-3.81025">
        <ele>58.7</ele>
        <time>2020-06-10T13:40:46Z</time>
      </trkpt>
      <trkpt lat="48.57766" lon="-3.81026">
        <ele>58.7</ele>
        <time>2020-06-10T13:40:47Z</time>
      </trkpt>
      <trkpt lat="48.57765" lon="-3.81027">
        <ele>58.8</ele>
        <time>2020-06-10T13:40:48Z</time>
      </trkpt>
      <trkpt lat="48.57765" lon="-3.81029">
        <ele>58.8</ele>
        <time>2020-06-10T13:40:49Z</time>
      </trkpt>
      <trkpt lat="48.57765" lon="-3.81031">
        <ele>58.9</ele>
        <time>2020-06-10T13:40:50Z</time>
      </trkpt>
      <trkpt lat="48.57767" lon="-3.81035">
        <ele>59</ele>
        <time>2020-06-10T13:40:51Z</time>
      </trkpt>
      <trkpt lat="48.57766" lon="-3.81041">
        <ele>59.2</ele>
        <time>2020-06-10T13:40:52Z</time>
      </trkpt>
      <trkpt lat="48.57766" lon="-3.81044">
        <ele>59.3</ele>
        <time>2020-06-10T13:40:53Z</time>
      </trkpt>
      <trkpt lat="48.57766" lon="-3.81051">
        <ele>59.5</ele>
        <time>2020-06-10T13:40:54Z</time>
      </trkpt>
      <trkpt lat="48.57767" lon="-3.81056">
        <ele>59.7</ele>
        <time>2020-06-10T13:40:55Z</time>
      </trkpt>
      <trkpt lat="48.57768" lon="-3.81061">
        <ele>59.9</ele>
        <time>2020-06-10T13:40:56Z</time>
      </trkpt>
      <trkpt lat="48.5777" lon="-3.81066">
        <ele>60.1</ele>
        <time>2020-06-10T13:40:57Z</time>
      </trkpt>
      <trkpt lat="48.57771" lon="-3.81071">
        <ele>60.2</ele>
        <time>2020-06-10T13:40:58Z</time>
      </trkpt>
      <trkpt lat="48.57773" lon="-3.81074">
        <ele>60.4</ele>
        <time>2020-06-10T13:40:59Z</time>
      </trkpt>
      <trkpt lat="48.57775" lon="-3.81077">
        <ele>60.5</ele>
        <time>2020-06-10T13:41:00Z</time>
      </trkpt>
      <trkpt lat="48.57778" lon="-3.81081">
        <ele>60.7</ele>
        <time>2020-06-10T13:41:01Z</time>
      </trkpt>
      <trkpt lat="48.57779" lon="-3.81083">
        <ele>60.8</ele>
        <time>2020-06-10T13:41:02Z</time>
      </trkpt>
      <trkpt lat="48.57781" lon="-3.81084">
        <ele>60.9</ele>
        <time>2020-06-10T13:41:03Z</time>
      </trkpt>
      <trkpt lat="48.57782" lon="-3.81085">
        <ele>61</ele>
        <time>2020-06-10T13:41:04Z</time>
      </trkpt>
      <trkpt lat="48.57786" lon="-3.81086">
        <ele>61.1</ele>
        <time>2020-06-10T13:41:05Z</time>
      </trkpt>
      <trkpt lat="48.57787" lon="-3.81087">
        <ele>61.2</ele>
        <time>2020-06-10T13:41:06Z</time>
      </trkpt>
      <trkpt lat="48.5779" lon="-3.81087">
        <ele>61.3</ele>
        <time>2020-06-10T13:41:07Z</time>
      </trkpt>
      <trkpt lat="48.5779" lon="-3.81087">
        <ele>61.4</ele>
        <time>2020-06-10T13:41:08Z</time>
      </trkpt>
      <trkpt lat="48.57794" lon="-3.81089">
        <ele>61.6</ele>
        <time>2020-06-10T13:41:09Z</time>
      </trkpt>
      <trkpt lat="48.57795" lon="-3.8109">
        <ele>61.6</ele>
        <time>2020-06-10T13:41:10Z</time>
      </trkpt>
      <trkpt lat="48.57798" lon="-3.81092">
        <ele>61.8</ele>
        <time>2020-06-10T13:41:11Z</time>
      </trkpt>
      <trkpt lat="48.578" lon="-3.81093">
        <ele>61.9</ele>
        <time>2020-06-10T13:41:12Z</time>
      </trkpt>
      <trkpt lat="48.57803" lon="-3.81094">
        <ele>62</ele>
        <time>2020-06-10T13:41:13Z</time>
      </trkpt>
      <trkpt lat="48.57806" lon="-3.81096">
        <ele>62.2</ele>
        <time>2020-06-10T13:41:14Z</time>
      </trkpt>
      <trkpt lat="48.57807" lon="-3.81096">
        <ele>62.3</ele>
        <time>2020-06-10T13:41:15Z</time>
      </trkpt>
      <trkpt lat="48.5781" lon="-3.81097">
        <ele>62.4</ele>
        <time>2020-06-10T13:41:16Z</time>
      </trkpt>
      <trkpt lat="48.57813" lon="-3.81099">
        <ele>62.6</ele>
        <time>2020-06-10T13:41:17Z</time>
      </trkpt>
      <trkpt lat="48.57814" lon="-3.81099">
        <ele>62.6</ele>
        <time>2020-06-10T13:41:18Z</time>
      </trkpt>
      <trkpt lat="48.57817" lon="-3.811">
        <ele>62.8</ele>
        <time>2020-06-10T13:41:19Z</time>
      </trkpt>
      <trkpt lat="48.57818" lon="-3.811">
        <ele>62.8</ele>
        <time>2020-06-10T13:41:20Z</time>
      </trkpt>
      <trkpt lat="48.57819" lon="-3.811">
        <ele>62.9</ele>
        <time>2020-06-10T13:41:21Z</time>
      </trkpt>
      <trkpt lat="48.57821" lon="-3.81101">
        <ele>63</ele>
        <time>2020-06-10T13:41:22Z</time>
      </trkpt>
      <trkpt lat="48.57824" lon="-3.81103">
        <ele>63.2</ele>
        <time>2020-06-10T13:41:23Z</time>
      </trkpt>
      <trkpt lat="48.57825" lon="-3.81104">
        <ele>63.2</ele>
        <time>2020-06-10T13:41:24Z</time>
      </trkpt>
      <trkpt lat="48.57828" lon="-3.81105">
        <ele>63.4</ele>
        <time>2020-06-10T13:41:25Z</time>
      </trkpt>
      <trkpt lat="48.57829" lon="-3.81105">
        <ele>63.4</ele>
        <time>2020-06-10T13:41:26Z</time>
      </trkpt>
      <trkpt lat="48.57832" lon="-3.81106">
        <ele>63.5</ele>
        <time>2020-06-10T13:41:27Z</time>
      </trkpt>
      <trkpt lat="48.57833" lon="-3.81107">
        <ele>63.6</ele>
        <time>2020-06-10T13:41:28Z</time>
      </trkpt>
      <trkpt lat="48.57834" lon="-3.81109">
        <ele>63.7</ele>
        <time>2020-06-10T13:41:29Z</time>
      </trkpt>
      <trkpt lat="48.57835" lon="-3.8111">
        <ele>63.7</ele>
        <time>2020-06-10T13:41:30Z</time>
      </trkpt>
      <trkpt lat="48.57835" lon="-3.81111">
        <ele>63.8</ele>
        <time>2020-06-10T13:41:31Z</time>
      </trkpt>
      <trkpt lat="48.57834" lon="-3.81111">
        <ele>63.8</ele>
        <time>2020-06-10T13:41:32Z</time>
      </trkpt>
      <trkpt lat="48.57833" lon="-3.8111">
        <ele>63.9</ele>
        <time>2020-06-10T13:41:33Z</time>
      </trkpt>
      <trkpt lat="48.57832" lon="-3.8111">
        <ele>63.9</ele>
        <time>2020-06-10T13:41:34Z</time>
      </trkpt>
      <trkpt lat="48.57831" lon="-3.81109">
        <ele>64</ele>
        <time>2020-06-10T13:41:35Z</time>
      </trkpt>
      <trkpt lat="48.5783" lon="-3.81109">
        <ele>64</ele>
        <time>2020-06-10T13:41:36Z</time>
      </trkpt>
      <trkpt lat="48.57829" lon="-3.81108">
        <ele>64.1</ele>
        <time>2020-06-10T13:41:37Z</time>
      </trkpt>
      <trkpt lat="48.57828" lon="-3.81108">
        <ele>64.1</ele>
        <time>2020-06-10T13:41:38Z</time>
      </trkpt>
      <trkpt lat="48.57828" lon="-3.81107">
        <ele>64.2</ele>
        <time>2020-06-10T13:41:39Z</time>
      </trkpt>
      <trkpt lat="48.57827" lon="-3.81107">
        <ele>64.2</ele>
        <time>2020-06-10T13:41:40Z</time>
      </trkpt>
      <trkpt lat="48.57826" lon="-3.81106">
        <ele>64.3</ele>
        <time>2020-06-10T13:41:41Z</time>
      </trkpt>
      <trkpt lat="48.57825" lon="-3.81106">
        <ele>64.3</ele>
        <time>2020-06-10T13:42:46Z</time>
      </trkpt>
      <trkpt lat="48.57824" lon="-3.81105">
        <ele>64.3</ele>
        <time>2020-06-10T13:42:47Z</time>
      </trkpt>
      <trkpt lat="48.5782" lon="-3.81103">
        <ele>64</ele>
        <time>2020-06-10T13:42:48Z</time>
      </trkpt>
      <trkpt lat="48.57816" lon="-3.81101">
        <ele>63.7</ele>
        <time>2020-06-10T13:42:49Z</time>
      </trkpt>
      <trkpt lat="48.57812" lon="-3.81099">
        <ele>63.3</ele>
        <time>2020-06-10T13:42:50Z</time>
      </trkpt>
      <trkpt lat="48.57808" lon="-3.81096">
        <ele>62.9</ele>
        <time>2020-06-10T13:42:51Z</time>
      </trkpt>
      <trkpt lat="48.57804" lon="-3.81094">
        <ele>62.6</ele>
        <time>2020-06-10T13:42:52Z</time>
      </trkpt>
      <trkpt lat="48.57801" lon="-3.81091">
        <ele>62.3</ele>
        <time>2020-06-10T13:42:53Z</time>
      </trkpt>
      <trkpt lat="48.57796" lon="-3.81088">
        <ele>61.8</ele>
        <time>2020-06-10T13:42:54Z</time>
      </trkpt>
      <trkpt lat="48.57791" lon="-3.81086">
        <ele>61.4</ele>
        <time>2020-06-10T13:42:55Z</time>
      </trkpt>
      <trkpt lat="48.57787" lon="-3.81084">
        <ele>61</ele>
        <time>2020-06-10T13:42:56Z</time>
      </trkpt>
      <trkpt lat="48.57783" lon="-3.81082">
        <ele>60.6</ele>
        <time>2020-06-10T13:42:57Z</time>
      </trkpt>
      <trkpt lat="48.57778" lon="-3.81079">
        <ele>60.2</ele>
        <time>2020-06-10T13:42:58Z</time>
      </trkpt>
      <trkpt lat="48.57774" lon="-3.81076">
        <ele>59.8</ele>
        <time>2020-06-10T13:42:59Z</time>
      </trkpt>
      <trkpt lat="48.57771" lon="-3.81072">
        <ele>59.5</ele>
        <time>2020-06-10T13:43:00Z</time>
      </trkpt>
      <trkpt lat="48.57768" lon="-3.81067">
        <ele>59.1</ele>
        <time>2020-06-10T13:43:01Z</time>
      </trkpt>
      <trkpt lat="48.57766" lon="-3.81063">
        <ele>58.8</ele>
        <time>2020-06-10T13:43:02Z</time>
      </trkpt>
      <trkpt lat="48.57764" lon="-3.81058">
        <ele>58.5</ele>
        <time>2020-06-10T13:43:03Z</time>
      </trkpt>
      <trkpt lat="48.57764" lon="-3.81056">
        <ele>58.4</ele>
        <time>2020-06-10T13:43:04Z</time>
      </trkpt>
      <trkpt lat="48.57762" lon="-3.81054">
        <ele>58.2</ele>
        <time>2020-06-10T13:43:05Z</time>
      </trkpt>
      <trkpt lat="48.57762" lon="-3.81051">
        <ele>58.1</ele>
        <time>2020-06-10T13:43:06Z</time>
      </trkpt>
      <trkpt lat="48.57762" lon="-3.81049">
        <ele>58</ele>
        <time>2020-06-10T13:43:07Z</time>
      </trkpt>
      <trkpt lat="48.57762" lon="-3.81049">
        <ele>58</ele>
        <time>2020-06-10T13:43:08Z</time>
      </trkpt>
      <trkpt lat="48.57761" lon="-3.81048">
        <ele>57.9</ele>
        <time>2020-06-10T13:43:09Z</time>
      </trkpt>
      <trkpt lat="48.57761" lon="-3.81047">
        <ele>57.8</ele>
        <time>2020-06-10T13:43:10Z</time>
      </trkpt>
      <trkpt lat="48.57762" lon="-3.81046">
        <ele>57.8</ele>
        <time>2020-06-10T13:43:11Z</time>
      </trkpt>
      <trkpt lat="48.57762" lon="-3.81045">
        <ele>57.8</ele>
        <time>2020-06-10T13:43:12Z</time>
      </trkpt>
      <trkpt lat="48.57762" lon="-3.81044">
        <ele>57.8</ele>
        <time>2020-06-10T13:43:13Z</time>
      </trkpt>
      <trkpt lat="48.57762" lon="-3.81043">
        <ele>57.8</ele>
        <time>2020-06-10T13:43:14Z</time>
      </trkpt>
      <trkpt lat="48.57762" lon="-3.81043">
        <ele>57.9</ele>
        <time>2020-06-10T13:43:15Z</time>
      </trkpt>
      <trkpt lat="48.57762" lon="-3.81042">
        <ele>57.9</ele>
        <time>2020-06-10T13:43:16Z</time>
      </trkpt>
      <trkpt lat="48.57762" lon="-3.81041">
        <ele>57.9</ele>
        <time>2020-06-10T13:43:17Z</time>
      </trkpt>
      <trkpt lat="48.57762" lon="-3.8104">
        <ele>58</ele>
        <time>2020-06-10T13:43:18Z</time>
      </trkpt>
      <trkpt lat="48.57762" lon="-3.81039">
        <ele>58</ele>
        <time>2020-06-10T13:43:19Z</time>
      </trkpt>
      <trkpt lat="48.57762" lon="-3.81039">
        <ele>58</ele>
        <time>2020-06-10T13:43:20Z</time>
      </trkpt>
      <trkpt lat="48.57762" lon="-3.81038">
        <ele>58.1</ele>
        <time>2020-06-10T13:43:28Z</time>
      </trkpt>
      <trkpt lat="48.57762" lon="-3.81037">
        <ele>58.1</ele>
        <time>2020-06-10T13:43:29Z</time>
      </trkpt>
      <trkpt lat="48.57764" lon="-3.81034">
        <ele>58.2</ele>
        <time>2020-06-10T13:43:30Z</time>
      </trkpt>
      <trkpt lat="48.57766" lon="-3.81031">
        <ele>58.4</ele>
        <time>2020-06-10T13:43:31Z</time>
      </trkpt>
      <trkpt lat="48.57768" lon="-3.81027">
        <ele>58.6</ele>
        <time>2020-06-10T13:43:32Z</time>
      </trkpt>
      <trkpt lat="48.5777" lon="-3.81022">
        <ele>58.8</ele>
        <time>2020-06-10T13:43:33Z</time>
      </trkpt>
      <trkpt lat="48.57772" lon="-3.81017">
        <ele>59</ele>
        <time>2020-06-10T13:43:34Z</time>
      </trkpt>
      <trkpt lat="48.57774" lon="-3.81011">
        <ele>59.3</ele>
        <time>2020-06-10T13:43:35Z</time>
      </trkpt>
      <trkpt lat="48.57776" lon="-3.81007">
        <ele>59.5</ele>
        <time>2020-06-10T13:43:36Z</time>
      </trkpt>
      <trkpt lat="48.57779" lon="-3.81002">
        <ele>59.7</ele>
        <time>2020-06-10T13:43:37Z</time>
      </trkpt>
      <trkpt lat="48.57782" lon="-3.80998">
        <ele>59.9</ele>
        <time>2020-06-10T13:43:38Z</time>
      </trkpt>
      <trkpt lat="48.57784" lon="-3.80994">
        <ele>60.2</ele>
        <time>2020-06-10T13:43:39Z</time>
      </trkpt>
      <trkpt lat="48.57786" lon="-3.80991">
        <ele>60.3</ele>
        <time>2020-06-10T13:43:40Z</time>
      </trkpt>
      <trkpt lat="48.57789" lon="-3.80987">
        <ele>60.6</ele>
        <time>2020-06-10T13:43:41Z</time>
      </trkpt>
      <trkpt lat="48.5779" lon="-3.80985">
        <ele>60.7</ele>
        <time>2020-06-10T13:43:42Z</time>
      </trkpt>
      <trkpt lat="48.57791" lon="-3.80982">
        <ele>60.9</ele>
        <time>2020-06-10T13:43:43Z</time>
      </trkpt>
      <trkpt lat="48.57793" lon="-3.80977">
        <ele>61.1</ele>
        <time>2020-06-10T13:43:44Z</time>
      </trkpt>
      <trkpt lat="48.57794" lon="-3.80971">
        <ele>61.4</ele>
        <time>2020-06-10T13:43:45Z</time>
      </trkpt>
      <trkpt lat="48.57795" lon="-3.80966">
        <ele>61.6</ele>
        <time>2020-06-10T13:43:46Z</time>
      </trkpt>
      <trkpt lat="48.57797" lon="-3.80962">
        <ele>61.9</ele>
        <time>2020-06-10T13:43:47Z</time>
      </trkpt>
      <trkpt lat="48.57798" lon="-3.8096">
        <ele>62</ele>
        <time>2020-06-10T13:43:48Z</time>
      </trkpt>
      <trkpt lat="48.57799" lon="-3.80956">
        <ele>62.1</ele>
        <time>2020-06-10T13:43:49Z</time>
      </trkpt>
      <trkpt lat="48.578" lon="-3.80951">
        <ele>62.4</ele>
        <time>2020-06-10T13:43:50Z</time>
      </trkpt>
      <trkpt lat="48.578" lon="-3.80948">
        <ele>62.5</ele>
        <time>2020-06-10T13:43:51Z</time>
      </trkpt>
      <trkpt lat="48.578" lon="-3.80943">
        <ele>62.7</ele>
        <time>2020-06-10T13:43:52Z</time>
      </trkpt>
      <trkpt lat="48.578" lon="-3.80938">
        <ele>62.7</ele>
        <time>2020-06-10T13:43:53Z</time>
      </trkpt>
      <trkpt lat="48.578" lon="-3.80932">
        <ele>62.7</ele>
        <time>2020-06-10T13:43:54Z</time>
      </trkpt>
      <trkpt lat="48.578" lon="-3.80929">
        <ele>62.7</ele>
        <time>2020-06-10T13:43:55Z</time>
      </trkpt>
      <trkpt lat="48.578" lon="-3.80924">
        <ele>63</ele>
        <time>2020-06-10T13:43:56Z</time>
      </trkpt>
      <trkpt lat="48.57801" lon="-3.8092">
        <ele>63</ele>
        <time>2020-06-10T13:43:57Z</time>
      </trkpt>
      <trkpt lat="48.57803" lon="-3.80916">
        <ele>63.1</ele>
        <time>2020-06-10T13:43:58Z</time>
      </trkpt>
      <trkpt lat="48.57804" lon="-3.80911">
        <ele>63.1</ele>
        <time>2020-06-10T13:43:59Z</time>
      </trkpt>
      <trkpt lat="48.57803" lon="-3.80907">
        <ele>63.2</ele>
        <time>2020-06-10T13:44:00Z</time>
      </trkpt>
      <trkpt lat="48.57803" lon="-3.80901">
        <ele>63.2</ele>
        <time>2020-06-10T13:44:01Z</time>
      </trkpt>
      <trkpt lat="48.57803" lon="-3.80899">
        <ele>63.2</ele>
        <time>2020-06-10T13:44:02Z</time>
      </trkpt>
      <trkpt lat="48.57803" lon="-3.80895">
        <ele>63.3</ele>
        <time>2020-06-10T13:44:03Z</time>
      </trkpt>
      <trkpt lat="48.57802" lon="-3.8089">
        <ele>63.3</ele>
        <time>2020-06-10T13:44:04Z</time>
      </trkpt>
      <trkpt lat="48.57801" lon="-3.80885">
        <ele>63.5</ele>
        <time>2020-06-10T13:44:05Z</time>
      </trkpt>
      <trkpt lat="48.57801" lon="-3.8088">
        <ele>63.6</ele>
        <time>2020-06-10T13:44:06Z</time>
      </trkpt>
      <trkpt lat="48.578" lon="-3.80876">
        <ele>63.8</ele>
        <time>2020-06-10T13:44:07Z</time>
      </trkpt>
      <trkpt lat="48.57799" lon="-3.80871">
        <ele>63.9</ele>
        <time>2020-06-10T13:44:08Z</time>
      </trkpt>
      <trkpt lat="48.57799" lon="-3.80866">
        <ele>64</ele>
        <time>2020-06-10T13:44:09Z</time>
      </trkpt>
      <trkpt lat="48.57799" lon="-3.8086">
        <ele>64.2</ele>
        <time>2020-06-10T13:44:10Z</time>
      </trkpt>
      <trkpt lat="48.57799" lon="-3.80858">
        <ele>64.3</ele>
        <time>2020-06-10T13:44:11Z</time>
      </trkpt>
      <trkpt lat="48.578" lon="-3.80853">
        <ele>64.4</ele>
        <time>2020-06-10T13:44:12Z</time>
      </trkpt>
      <trkpt lat="48.57799" lon="-3.80849">
        <ele>64.6</ele>
        <time>2020-06-10T13:44:13Z</time>
      </trkpt>
      <trkpt lat="48.57798" lon="-3.80847">
        <ele>64.6</ele>
        <time>2020-06-10T13:44:14Z</time>
      </trkpt>
      <trkpt lat="48.57798" lon="-3.80843">
        <ele>64.8</ele>
        <time>2020-06-10T13:44:15Z</time>
      </trkpt>
      <trkpt lat="48.57796" lon="-3.80838">
        <ele>64.9</ele>
        <time>2020-06-10T13:44:16Z</time>
      </trkpt>
      <trkpt lat="48.57796" lon="-3.80833">
        <ele>65.1</ele>
        <time>2020-06-10T13:44:17Z</time>
      </trkpt>
      <trkpt lat="48.57795" lon="-3.80829">
        <ele>65.2</ele>
        <time>2020-06-10T13:44:18Z</time>
      </trkpt>
      <trkpt lat="48.57795" lon="-3.80825">
        <ele>65.3</ele>
        <time>2020-06-10T13:44:19Z</time>
      </trkpt>
      <trkpt lat="48.57794" lon="-3.80821">
        <ele>65.5</ele>
        <time>2020-06-10T13:44:20Z</time>
      </trkpt>
      <trkpt lat="48.57793" lon="-3.80816">
        <ele>65.6</ele>
        <time>2020-06-10T13:44:21Z</time>
      </trkpt>
      <trkpt lat="48.57792" lon="-3.80811">
        <ele>65.8</ele>
        <time>2020-06-10T13:44:22Z</time>
      </trkpt>
      <trkpt lat="48.5779" lon="-3.80808">
        <ele>65.9</ele>
        <time>2020-06-10T13:44:23Z</time>
      </trkpt>
      <trkpt lat="48.57789" lon="-3.80803">
        <ele>66.1</ele>
        <time>2020-06-10T13:44:24Z</time>
      </trkpt>
      <trkpt lat="48.57788" lon="-3.80798">
        <ele>66.3</ele>
        <time>2020-06-10T13:44:25Z</time>
      </trkpt>
      <trkpt lat="48.57786" lon="-3.80793">
        <ele>66.5</ele>
        <time>2020-06-10T13:44:26Z</time>
      </trkpt>
      <trkpt lat="48.57784" lon="-3.80789">
        <ele>66.6</ele>
        <time>2020-06-10T13:44:27Z</time>
      </trkpt>
      <trkpt lat="48.57782" lon="-3.80785">
        <ele>66.8</ele>
        <time>2020-06-10T13:44:28Z</time>
      </trkpt>
      <trkpt lat="48.5778" lon="-3.8078">
        <ele>67</ele>
        <time>2020-06-10T13:44:29Z</time>
      </trkpt>
      <trkpt lat="48.57779" lon="-3.80776">
        <ele>67.1</ele>
        <time>2020-06-10T13:44:30Z</time>
      </trkpt>
      <trkpt lat="48.57777" lon="-3.80773">
        <ele>67.3</ele>
        <time>2020-06-10T13:44:31Z</time>
      </trkpt>
      <trkpt lat="48.57775" lon="-3.80769">
        <ele>67.5</ele>
        <time>2020-06-10T13:44:32Z</time>
      </trkpt>
      <trkpt lat="48.57774" lon="-3.80764">
        <ele>67.6</ele>
        <time>2020-06-10T13:44:33Z</time>
      </trkpt>
      <trkpt lat="48.57773" lon="-3.80762">
        <ele>67.7</ele>
        <time>2020-06-10T13:44:34Z</time>
      </trkpt>
      <trkpt lat="48.57772" lon="-3.80756">
        <ele>67.9</ele>
        <time>2020-06-10T13:44:35Z</time>
      </trkpt>
      <trkpt lat="48.57771" lon="-3.80751">
        <ele>68</ele>
        <time>2020-06-10T13:44:36Z</time>
      </trkpt>
      <trkpt lat="48.5777" lon="-3.80746">
        <ele>68.2</ele>
        <time>2020-06-10T13:44:37Z</time>
      </trkpt>
      <trkpt lat="48.57769" lon="-3.80743">
        <ele>68.3</ele>
        <time>2020-06-10T13:44:38Z</time>
      </trkpt>
      <trkpt lat="48.57769" lon="-3.80739">
        <ele>68.4</ele>
        <time>2020-06-10T13:44:39Z</time>
      </trkpt>
      <trkpt lat="48.57768" lon="-3.80734">
        <ele>68.6</ele>
        <time>2020-06-10T13:44:40Z</time>
      </trkpt>
      <trkpt lat="48.57768" lon="-3.80728">
        <ele>68.8</ele>
        <time>2020-06-10T13:44:41Z</time>
      </trkpt>
      <trkpt lat="48.57768" lon="-3.80726">
        <ele>68.8</ele>
        <time>2020-06-10T13:44:42Z</time>
      </trkpt>
      <trkpt lat="48.57767" lon="-3.80721">
        <ele>69</ele>
        <time>2020-06-10T13:44:43Z</time>
      </trkpt>
      <trkpt lat="48.57767" lon="-3.80716">
        <ele>69.2</ele>
        <time>2020-06-10T13:44:44Z</time>
      </trkpt>
      <trkpt lat="48.57767" lon="-3.80711">
        <ele>69.4</ele>
        <time>2020-06-10T13:44:45Z</time>
      </trkpt>
      <trkpt lat="48.57767" lon="-3.80706">
        <ele>69.5</ele>
        <time>2020-06-10T13:44:46Z</time>
      </trkpt>
      <trkpt lat="48.57767" lon="-3.80702">
        <ele>69.6</ele>
        <time>2020-06-10T13:44:47Z</time>
      </trkpt>
      <trkpt lat="48.57767" lon="-3.80698">
        <ele>69.7</ele>
        <time>2020-06-10T13:44:48Z</time>
      </trkpt>
      <trkpt lat="48.57766" lon="-3.80693">
        <ele>69.8</ele>
        <time>2020-06-10T13:44:49Z</time>
      </trkpt>
      <trkpt lat="48.57766" lon="-3.80688">
        <ele>70</ele>
        <time>2020-06-10T13:44:50Z</time>
      </trkpt>
      <trkpt lat="48.57766" lon="-3.80682">
        <ele>70.2</ele>
        <time>2020-06-10T13:44:51Z</time>
      </trkpt>
      <trkpt lat="48.57766" lon="-3.8068">
        <ele>70.2</ele>
        <time>2020-06-10T13:44:52Z</time>
      </trkpt>
      <trkpt lat="48.57767" lon="-3.80675">
        <ele>70.3</ele>
        <time>2020-06-10T13:44:53Z</time>
      </trkpt>
      <trkpt lat="48.57767" lon="-3.80669">
        <ele>70.5</ele>
        <time>2020-06-10T13:44:54Z</time>
      </trkpt>
      <trkpt lat="48.57768" lon="-3.80663">
        <ele>70.7</ele>
        <time>2020-06-10T13:44:55Z</time>
      </trkpt>
      <trkpt lat="48.57768" lon="-3.80657">
        <ele>70.9</ele>
        <time>2020-06-10T13:44:56Z</time>
      </trkpt>
      <trkpt lat="48.57769" lon="-3.80652">
        <ele>71</ele>
        <time>2020-06-10T13:44:57Z</time>
      </trkpt>
      <trkpt lat="48.5777" lon="-3.80647">
        <ele>71.2</ele>
        <time>2020-06-10T13:44:58Z</time>
      </trkpt>
      <trkpt lat="48.57771" lon="-3.80642">
        <ele>71.3</ele>
        <time>2020-06-10T13:44:59Z</time>
      </trkpt>
      <trkpt lat="48.57772" lon="-3.80637">
        <ele>71.5</ele>
        <time>2020-06-10T13:45:00Z</time>
      </trkpt>
      <trkpt lat="48.57773" lon="-3.80632">
        <ele>71.6</ele>
        <time>2020-06-10T13:45:01Z</time>
      </trkpt>
      <trkpt lat="48.57775" lon="-3.80627">
        <ele>71.8</ele>
        <time>2020-06-10T13:45:02Z</time>
      </trkpt>
      <trkpt lat="48.57776" lon="-3.80622">
        <ele>71.9</ele>
        <time>2020-06-10T13:45:03Z</time>
      </trkpt>
      <trkpt lat="48.57778" lon="-3.80618">
        <ele>72</ele>
        <time>2020-06-10T13:45:04Z</time>
      </trkpt>
      <trkpt lat="48.57779" lon="-3.80614">
        <ele>72.2</ele>
        <time>2020-06-10T13:45:05Z</time>
      </trkpt>
      <trkpt lat="48.57781" lon="-3.80611">
        <ele>72.3</ele>
        <time>2020-06-10T13:45:06Z</time>
      </trkpt>
      <trkpt lat="48.57783" lon="-3.80606">
        <ele>72.5</ele>
        <time>2020-06-10T13:45:07Z</time>
      </trkpt>
      <trkpt lat="48.57784" lon="-3.80601">
        <ele>72.7</ele>
        <time>2020-06-10T13:45:08Z</time>
      </trkpt>
      <trkpt lat="48.57786" lon="-3.80596">
        <ele>72.8</ele>
        <time>2020-06-10T13:45:09Z</time>
      </trkpt>
      <trkpt lat="48.57788" lon="-3.80592">
        <ele>73</ele>
        <time>2020-06-10T13:45:10Z</time>
      </trkpt>
      <trkpt lat="48.5779" lon="-3.80588">
        <ele>73.1</ele>
        <time>2020-06-10T13:45:11Z</time>
      </trkpt>
      <trkpt lat="48.57792" lon="-3.80583">
        <ele>73.3</ele>
        <time>2020-06-10T13:45:12Z</time>
      </trkpt>
      <trkpt lat="48.57793" lon="-3.80582">
        <ele>73.3</ele>
        <time>2020-06-10T13:45:13Z</time>
      </trkpt>
      <trkpt lat="48.57795" lon="-3.80578">
        <ele>73.5</ele>
        <time>2020-06-10T13:45:14Z</time>
      </trkpt>
      <trkpt lat="48.57796" lon="-3.80574">
        <ele>73.6</ele>
        <time>2020-06-10T13:45:15Z</time>
      </trkpt>
      <trkpt lat="48.57798" lon="-3.80569">
        <ele>73.7</ele>
        <time>2020-06-10T13:45:16Z</time>
      </trkpt>
      <trkpt lat="48.578" lon="-3.80566">
        <ele>73.9</ele>
        <time>2020-06-10T13:45:17Z</time>
      </trkpt>
      <trkpt lat="48.57802" lon="-3.80562">
        <ele>74</ele>
        <time>2020-06-10T13:45:18Z</time>
      </trkpt>
      <trkpt lat="48.57805" lon="-3.80558">
        <ele>74.1</ele>
        <time>2020-06-10T13:45:19Z</time>
      </trkpt>
      <trkpt lat="48.57806" lon="-3.80554">
        <ele>74.2</ele>
        <time>2020-06-10T13:45:20Z</time>
      </trkpt>
      <trkpt lat="48.57808" lon="-3.80551">
        <ele>74.3</ele>
        <time>2020-06-10T13:45:21Z</time>
      </trkpt>
      <trkpt lat="48.5781" lon="-3.80547">
        <ele>74.5</ele>
        <time>2020-06-10T13:45:22Z</time>
      </trkpt>
      <trkpt lat="48.57811" lon="-3.80545">
        <ele>74.6</ele>
        <time>2020-06-10T13:45:23Z</time>
      </trkpt>
      <trkpt lat="48.57814" lon="-3.80541">
        <ele>74.7</ele>
        <time>2020-06-10T13:45:24Z</time>
      </trkpt>
      <trkpt lat="48.57816" lon="-3.80538">
        <ele>74.9</ele>
        <time>2020-06-10T13:45:25Z</time>
      </trkpt>
      <trkpt lat="48.57818" lon="-3.80534">
        <ele>75</ele>
        <time>2020-06-10T13:45:26Z</time>
      </trkpt>
      <trkpt lat="48.5782" lon="-3.80529">
        <ele>75.2</ele>
        <time>2020-06-10T13:45:27Z</time>
      </trkpt>
      <trkpt lat="48.57821" lon="-3.80528">
        <ele>75.2</ele>
        <time>2020-06-10T13:45:28Z</time>
      </trkpt>
      <trkpt lat="48.57824" lon="-3.80524">
        <ele>75.4</ele>
        <time>2020-06-10T13:45:29Z</time>
      </trkpt>
      <trkpt lat="48.57827" lon="-3.80521">
        <ele>75.6</ele>
        <time>2020-06-10T13:45:30Z</time>
      </trkpt>
      <trkpt lat="48.57831" lon="-3.80518">
        <ele>75.8</ele>
        <time>2020-06-10T13:45:31Z</time>
      </trkpt>
      <trkpt lat="48.57833" lon="-3.80514">
        <ele>75.9</ele>
        <time>2020-06-10T13:45:32Z</time>
      </trkpt>
      <trkpt lat="48.57836" lon="-3.80511">
        <ele>76</ele>
        <time>2020-06-10T13:45:33Z</time>
      </trkpt>
      <trkpt lat="48.57838" lon="-3.80507">
        <ele>76.2</ele>
        <time>2020-06-10T13:45:34Z</time>
      </trkpt>
      <trkpt lat="48.57841" lon="-3.80504">
        <ele>76.3</ele>
        <time>2020-06-10T13:45:35Z</time>
      </trkpt>
      <trkpt lat="48.57843" lon="-3.80501">
        <ele>76.5</ele>
        <time>2020-06-10T13:45:36Z</time>
      </trkpt>
      <trkpt lat="48.57845" lon="-3.80496">
        <ele>76.6</ele>
        <time>2020-06-10T13:45:37Z</time>
      </trkpt>
      <trkpt lat="48.57845" lon="-3.80491">
        <ele>76.7</ele>
        <time>2020-06-10T13:45:38Z</time>
      </trkpt>
      <trkpt lat="48.57847" lon="-3.80487">
        <ele>76.9</ele>
        <time>2020-06-10T13:45:39Z</time>
      </trkpt>
      <trkpt lat="48.57849" lon="-3.80484">
        <ele>77</ele>
        <time>2020-06-10T13:45:40Z</time>
      </trkpt>
      <trkpt lat="48.57851" lon="-3.8048">
        <ele>77.2</ele>
        <time>2020-06-10T13:45:41Z</time>
      </trkpt>
      <trkpt lat="48.57853" lon="-3.80476">
        <ele>77.3</ele>
        <time>2020-06-10T13:45:42Z</time>
      </trkpt>
      <trkpt lat="48.57854" lon="-3.80474">
        <ele>77.4</ele>
        <time>2020-06-10T13:45:43Z</time>
      </trkpt>
      <trkpt lat="48.57855" lon="-3.80469">
        <ele>77.5</ele>
        <time>2020-06-10T13:45:44Z</time>
      </trkpt>
      <trkpt lat="48.57856" lon="-3.80464">
        <ele>77.7</ele>
        <time>2020-06-10T13:45:45Z</time>
      </trkpt>
      <trkpt lat="48.57858" lon="-3.80459">
        <ele>77.8</ele>
        <time>2020-06-10T13:45:46Z</time>
      </trkpt>
      <trkpt lat="48.57859" lon="-3.80454">
        <ele>78</ele>
        <time>2020-06-10T13:45:47Z</time>
      </trkpt>
      <trkpt lat="48.57861" lon="-3.8045">
        <ele>78.1</ele>
        <time>2020-06-10T13:45:48Z</time>
      </trkpt>
      <trkpt lat="48.57861" lon="-3.80446">
        <ele>78.2</ele>
        <time>2020-06-10T13:45:49Z</time>
      </trkpt>
      <trkpt lat="48.57862" lon="-3.80441">
        <ele>78.4</ele>
        <time>2020-06-10T13:45:50Z</time>
      </trkpt>
      <trkpt lat="48.57863" lon="-3.80437">
        <ele>78.5</ele>
        <time>2020-06-10T13:45:51Z</time>
      </trkpt>
      <trkpt lat="48.57864" lon="-3.80432">
        <ele>78.6</ele>
        <time>2020-06-10T13:45:52Z</time>
      </trkpt>
      <trkpt lat="48.57865" lon="-3.80427">
        <ele>78.8</ele>
        <time>2020-06-10T13:45:53Z</time>
      </trkpt>
      <trkpt lat="48.57865" lon="-3.80422">
        <ele>79</ele>
        <time>2020-06-10T13:45:54Z</time>
      </trkpt>
      <trkpt lat="48.57866" lon="-3.80418">
        <ele>79.1</ele>
        <time>2020-06-10T13:45:55Z</time>
      </trkpt>
      <trkpt lat="48.57867" lon="-3.80413">
        <ele>79.3</ele>
        <time>2020-06-10T13:45:56Z</time>
      </trkpt>
      <trkpt lat="48.57867" lon="-3.80407">
        <ele>79.4</ele>
        <time>2020-06-10T13:45:57Z</time>
      </trkpt>
      <trkpt lat="48.57867" lon="-3.80403">
        <ele>79.6</ele>
        <time>2020-06-10T13:45:58Z</time>
      </trkpt>
      <trkpt lat="48.57868" lon="-3.80397">
        <ele>79.8</ele>
        <time>2020-06-10T13:45:59Z</time>
      </trkpt>
      <trkpt lat="48.57868" lon="-3.80395">
        <ele>79.9</ele>
        <time>2020-06-10T13:46:00Z</time>
      </trkpt>
      <trkpt lat="48.57868" lon="-3.8039">
        <ele>80</ele>
        <time>2020-06-10T13:46:01Z</time>
      </trkpt>
      <trkpt lat="48.57868" lon="-3.80384">
        <ele>80.2</ele>
        <time>2020-06-10T13:46:02Z</time>
      </trkpt>
      <trkpt lat="48.57868" lon="-3.80379">
        <ele>80.3</ele>
        <time>2020-06-10T13:46:03Z</time>
      </trkpt>
      <trkpt lat="48.57869" lon="-3.80374">
        <ele>80.5</ele>
        <time>2020-06-10T13:46:04Z</time>
      </trkpt>
      <trkpt lat="48.5787" lon="-3.80369">
        <ele>80.7</ele>
        <time>2020-06-10T13:46:05Z</time>
      </trkpt>
      <trkpt lat="48.57871" lon="-3.80364">
        <ele>80.8</ele>
        <time>2020-06-10T13:46:06Z</time>
      </trkpt>
      <trkpt lat="48.57873" lon="-3.80359">
        <ele>81</ele>
        <time>2020-06-10T13:46:07Z</time>
      </trkpt>
      <trkpt lat="48.57874" lon="-3.80357">
        <ele>81.1</ele>
        <time>2020-06-10T13:46:08Z</time>
      </trkpt>
      <trkpt lat="48.57875" lon="-3.80353">
        <ele>81.2</ele>
        <time>2020-06-10T13:46:09Z</time>
      </trkpt>
      <trkpt lat="48.57877" lon="-3.80349">
        <ele>81.4</ele>
        <time>2020-06-10T13:46:10Z</time>
      </trkpt>
      <trkpt lat="48.57878" lon="-3.80345">
        <ele>81.5</ele>
        <time>2020-06-10T13:46:11Z</time>
      </trkpt>
      <trkpt lat="48.57879" lon="-3.80341">
        <ele>81.6</ele>
        <time>2020-06-10T13:46:12Z</time>
      </trkpt>
      <trkpt lat="48.5788" lon="-3.80337">
        <ele>81.7</ele>
        <time>2020-06-10T13:46:13Z</time>
      </trkpt>
      <trkpt lat="48.57882" lon="-3.80333">
        <ele>81.9</ele>
        <time>2020-06-10T13:46:14Z</time>
      </trkpt>
      <trkpt lat="48.57883" lon="-3.80328">
        <ele>82</ele>
        <time>2020-06-10T13:46:15Z</time>
      </trkpt>
      <trkpt lat="48.57886" lon="-3.80325">
        <ele>82.2</ele>
        <time>2020-06-10T13:46:16Z</time>
      </trkpt>
      <trkpt lat="48.57887" lon="-3.80321">
        <ele>82.3</ele>
        <time>2020-06-10T13:46:17Z</time>
      </trkpt>
      <trkpt lat="48.57888" lon="-3.80317">
        <ele>82.4</ele>
        <time>2020-06-10T13:46:18Z</time>
      </trkpt>
      <trkpt lat="48.5789" lon="-3.80313">
        <ele>82.6</ele>
        <time>2020-06-10T13:46:19Z</time>
      </trkpt>
      <trkpt lat="48.57892" lon="-3.80309">
        <ele>82.7</ele>
        <time>2020-06-10T13:46:20Z</time>
      </trkpt>
      <trkpt lat="48.57894" lon="-3.80304">
        <ele>82.9</ele>
        <time>2020-06-10T13:46:21Z</time>
      </trkpt>
      <trkpt lat="48.57895" lon="-3.80299">
        <ele>83</ele>
        <time>2020-06-10T13:46:22Z</time>
      </trkpt>
      <trkpt lat="48.57896" lon="-3.80295">
        <ele>83.1</ele>
        <time>2020-06-10T13:46:23Z</time>
      </trkpt>
      <trkpt lat="48.57897" lon="-3.8029">
        <ele>83.3</ele>
        <time>2020-06-10T13:46:24Z</time>
      </trkpt>
      <trkpt lat="48.57898" lon="-3.80285">
        <ele>83.4</ele>
        <time>2020-06-10T13:46:25Z</time>
      </trkpt>
      <trkpt lat="48.57899" lon="-3.8028">
        <ele>83.5</ele>
        <time>2020-06-10T13:46:26Z</time>
      </trkpt>
      <trkpt lat="48.57901" lon="-3.80274">
        <ele>83.6</ele>
        <time>2020-06-10T13:46:27Z</time>
      </trkpt>
      <trkpt lat="48.57903" lon="-3.80269">
        <ele>83.7</ele>
        <time>2020-06-10T13:46:28Z</time>
      </trkpt>
      <trkpt lat="48.57904" lon="-3.80263">
        <ele>83.8</ele>
        <time>2020-06-10T13:46:29Z</time>
      </trkpt>
      <trkpt lat="48.57905" lon="-3.80257">
        <ele>84</ele>
        <time>2020-06-10T13:46:30Z</time>
      </trkpt>
      <trkpt lat="48.57906" lon="-3.80251">
        <ele>84.1</ele>
        <time>2020-06-10T13:46:31Z</time>
      </trkpt>
      <trkpt lat="48.57908" lon="-3.80246">
        <ele>84.3</ele>
        <time>2020-06-10T13:46:32Z</time>
      </trkpt>
      <trkpt lat="48.57908" lon="-3.80241">
        <ele>84.4</ele>
        <time>2020-06-10T13:46:33Z</time>
      </trkpt>
      <trkpt lat="48.57909" lon="-3.80235">
        <ele>84.6</ele>
        <time>2020-06-10T13:46:34Z</time>
      </trkpt>
      <trkpt lat="48.5791" lon="-3.80231">
        <ele>84.7</ele>
        <time>2020-06-10T13:46:35Z</time>
      </trkpt>
      <trkpt lat="48.57911" lon="-3.80227">
        <ele>84.8</ele>
        <time>2020-06-10T13:46:36Z</time>
      </trkpt>
      <trkpt lat="48.57911" lon="-3.80222">
        <ele>85</ele>
        <time>2020-06-10T13:46:37Z</time>
      </trkpt>
      <trkpt lat="48.57911" lon="-3.80215">
        <ele>85.1</ele>
        <time>2020-06-10T13:46:38Z</time>
      </trkpt>
      <trkpt lat="48.57912" lon="-3.8021">
        <ele>85.3</ele>
        <time>2020-06-10T13:46:39Z</time>
      </trkpt>
      <trkpt lat="48.57912" lon="-3.80204">
        <ele>85.5</ele>
        <time>2020-06-10T13:46:40Z</time>
      </trkpt>
      <trkpt lat="48.57913" lon="-3.80198">
        <ele>85.6</ele>
        <time>2020-06-10T13:46:41Z</time>
      </trkpt>
      <trkpt lat="48.57913" lon="-3.80192">
        <ele>85.7</ele>
        <time>2020-06-10T13:46:42Z</time>
      </trkpt>
      <trkpt lat="48.57913" lon="-3.80186">
        <ele>85.9</ele>
        <time>2020-06-10T13:46:43Z</time>
      </trkpt>
      <trkpt lat="48.57913" lon="-3.80181">
        <ele>86</ele>
        <time>2020-06-10T13:46:44Z</time>
      </trkpt>
      <trkpt lat="48.57912" lon="-3.80175">
        <ele>86.1</ele>
        <time>2020-06-10T13:46:45Z</time>
      </trkpt>
      <trkpt lat="48.57911" lon="-3.80169">
        <ele>86.3</ele>
        <time>2020-06-10T13:46:46Z</time>
      </trkpt>
      <trkpt lat="48.5791" lon="-3.80163">
        <ele>86.4</ele>
        <time>2020-06-10T13:46:47Z</time>
      </trkpt>
      <trkpt lat="48.57909" lon="-3.80157">
        <ele>86.6</ele>
        <time>2020-06-10T13:46:48Z</time>
      </trkpt>
      <trkpt lat="48.57909" lon="-3.80151">
        <ele>86.7</ele>
        <time>2020-06-10T13:46:49Z</time>
      </trkpt>
      <trkpt lat="48.57908" lon="-3.80146">
        <ele>86.9</ele>
        <time>2020-06-10T13:46:50Z</time>
      </trkpt>
      <trkpt lat="48.57907" lon="-3.8014">
        <ele>87</ele>
        <time>2020-06-10T13:46:51Z</time>
      </trkpt>
      <trkpt lat="48.57906" lon="-3.80136">
        <ele>87.2</ele>
        <time>2020-06-10T13:46:52Z</time>
      </trkpt>
      <trkpt lat="48.57905" lon="-3.8013">
        <ele>87.3</ele>
        <time>2020-06-10T13:46:53Z</time>
      </trkpt>
      <trkpt lat="48.57904" lon="-3.80126">
        <ele>87.4</ele>
        <time>2020-06-10T13:46:54Z</time>
      </trkpt>
      <trkpt lat="48.57903" lon="-3.8012">
        <ele>87.6</ele>
        <time>2020-06-10T13:46:55Z</time>
      </trkpt>
      <trkpt lat="48.57903" lon="-3.80114">
        <ele>87.8</ele>
        <time>2020-06-10T13:46:56Z</time>
      </trkpt>
      <trkpt lat="48.57902" lon="-3.80108">
        <ele>87.9</ele>
        <time>2020-06-10T13:46:57Z</time>
      </trkpt>
      <trkpt lat="48.57901" lon="-3.80103">
        <ele>88</ele>
        <time>2020-06-10T13:46:58Z</time>
      </trkpt>
      <trkpt lat="48.57901" lon="-3.80098">
        <ele>88.2</ele>
        <time>2020-06-10T13:46:59Z</time>
      </trkpt>
      <trkpt lat="48.579" lon="-3.80092">
        <ele>88.3</ele>
        <time>2020-06-10T13:47:00Z</time>
      </trkpt>
      <trkpt lat="48.57901" lon="-3.80088">
        <ele>88.4</ele>
        <time>2020-06-10T13:47:01Z</time>
      </trkpt>
      <trkpt lat="48.57899" lon="-3.80081">
        <ele>88.6</ele>
        <time>2020-06-10T13:47:02Z</time>
      </trkpt>
      <trkpt lat="48.57898" lon="-3.80075">
        <ele>88.8</ele>
        <time>2020-06-10T13:47:03Z</time>
      </trkpt>
      <trkpt lat="48.57896" lon="-3.8007">
        <ele>89</ele>
        <time>2020-06-10T13:47:04Z</time>
      </trkpt>
      <trkpt lat="48.57896" lon="-3.80065">
        <ele>89.1</ele>
        <time>2020-06-10T13:47:05Z</time>
      </trkpt>
      <trkpt lat="48.57896" lon="-3.8006">
        <ele>89.3</ele>
        <time>2020-06-10T13:47:06Z</time>
      </trkpt>
      <trkpt lat="48.57896" lon="-3.80054">
        <ele>89.4</ele>
        <time>2020-06-10T13:47:07Z</time>
      </trkpt>
      <trkpt lat="48.57895" lon="-3.80049">
        <ele>89.6</ele>
        <time>2020-06-10T13:47:08Z</time>
      </trkpt>
      <trkpt lat="48.57895" lon="-3.80044">
        <ele>89.7</ele>
        <time>2020-06-10T13:47:09Z</time>
      </trkpt>
      <trkpt lat="48.57895" lon="-3.80039">
        <ele>89.9</ele>
        <time>2020-06-10T13:47:10Z</time>
      </trkpt>
      <trkpt lat="48.57895" lon="-3.80032">
        <ele>90.1</ele>
        <time>2020-06-10T13:47:11Z</time>
      </trkpt>
      <trkpt lat="48.57894" lon="-3.80025">
        <ele>90.3</ele>
        <time>2020-06-10T13:47:12Z</time>
      </trkpt>
      <trkpt lat="48.57894" lon="-3.80019">
        <ele>90.5</ele>
        <time>2020-06-10T13:47:13Z</time>
      </trkpt>
      <trkpt lat="48.57893" lon="-3.80012">
        <ele>90.7</ele>
        <time>2020-06-10T13:47:14Z</time>
      </trkpt>
      <trkpt lat="48.57892" lon="-3.80007">
        <ele>90.8</ele>
        <time>2020-06-10T13:47:15Z</time>
      </trkpt>
      <trkpt lat="48.57891" lon="-3.80002">
        <ele>91</ele>
        <time>2020-06-10T13:47:16Z</time>
      </trkpt>
      <trkpt lat="48.57891" lon="-3.79997">
        <ele>91.1</ele>
        <time>2020-06-10T13:47:17Z</time>
      </trkpt>
      <trkpt lat="48.57891" lon="-3.79993">
        <ele>91.2</ele>
        <time>2020-06-10T13:47:18Z</time>
      </trkpt>
      <trkpt lat="48.5789" lon="-3.79987">
        <ele>91.4</ele>
        <time>2020-06-10T13:47:19Z</time>
      </trkpt>
      <trkpt lat="48.5789" lon="-3.79982">
        <ele>91.5</ele>
        <time>2020-06-10T13:47:20Z</time>
      </trkpt>
      <trkpt lat="48.57891" lon="-3.79976">
        <ele>91.7</ele>
        <time>2020-06-10T13:47:21Z</time>
      </trkpt>
      <trkpt lat="48.5789" lon="-3.79971">
        <ele>91.8</ele>
        <time>2020-06-10T13:47:22Z</time>
      </trkpt>
      <trkpt lat="48.5789" lon="-3.79965">
        <ele>92</ele>
        <time>2020-06-10T13:47:23Z</time>
      </trkpt>
      <trkpt lat="48.57889" lon="-3.79959">
        <ele>92.3</ele>
        <time>2020-06-10T13:47:24Z</time>
      </trkpt>
      <trkpt lat="48.57888" lon="-3.79954">
        <ele>92.4</ele>
        <time>2020-06-10T13:47:25Z</time>
      </trkpt>
      <trkpt lat="48.57887" lon="-3.79949">
        <ele>92.6</ele>
        <time>2020-06-10T13:47:26Z</time>
      </trkpt>
      <trkpt lat="48.57887" lon="-3.79944">
        <ele>92.7</ele>
        <time>2020-06-10T13:47:27Z</time>
      </trkpt>
      <trkpt lat="48.57887" lon="-3.79938">
        <ele>92.9</ele>
        <time>2020-06-10T13:47:28Z</time>
      </trkpt>
      <trkpt lat="48.57886" lon="-3.79933">
        <ele>93</ele>
        <time>2020-06-10T13:47:29Z</time>
      </trkpt>
      <trkpt lat="48.57886" lon="-3.79927">
        <ele>93.1</ele>
        <time>2020-06-10T13:47:30Z</time>
      </trkpt>
      <trkpt lat="48.57885" lon="-3.79921">
        <ele>93.3</ele>
        <time>2020-06-10T13:47:31Z</time>
      </trkpt>
      <trkpt lat="48.57884" lon="-3.79916">
        <ele>93.4</ele>
        <time>2020-06-10T13:47:32Z</time>
      </trkpt>
      <trkpt lat="48.57883" lon="-3.7991">
        <ele>93.5</ele>
        <time>2020-06-10T13:47:33Z</time>
      </trkpt>
      <trkpt lat="48.57882" lon="-3.79905">
        <ele>93.6</ele>
        <time>2020-06-10T13:47:34Z</time>
      </trkpt>
      <trkpt lat="48.57882" lon="-3.799">
        <ele>93.8</ele>
        <time>2020-06-10T13:47:35Z</time>
      </trkpt>
      <trkpt lat="48.57882" lon="-3.79895">
        <ele>93.9</ele>
        <time>2020-06-10T13:47:36Z</time>
      </trkpt>
      <trkpt lat="48.57882" lon="-3.79889">
        <ele>94</ele>
        <time>2020-06-10T13:47:37Z</time>
      </trkpt>
      <trkpt lat="48.57881" lon="-3.79883">
        <ele>94.2</ele>
        <time>2020-06-10T13:47:38Z</time>
      </trkpt>
      <trkpt lat="48.57881" lon="-3.79877">
        <ele>94.3</ele>
        <time>2020-06-10T13:47:39Z</time>
      </trkpt>
      <trkpt lat="48.57879" lon="-3.79871">
        <ele>94.5</ele>
        <time>2020-06-10T13:47:40Z</time>
      </trkpt>
      <trkpt lat="48.57878" lon="-3.79866">
        <ele>94.7</ele>
        <time>2020-06-10T13:47:41Z</time>
      </trkpt>
      <trkpt lat="48.57877" lon="-3.7986">
        <ele>94.8</ele>
        <time>2020-06-10T13:47:42Z</time>
      </trkpt>
      <trkpt lat="48.57879" lon="-3.79855">
        <ele>95</ele>
        <time>2020-06-10T13:47:43Z</time>
      </trkpt>
      <trkpt lat="48.57878" lon="-3.79849">
        <ele>95.2</ele>
        <time>2020-06-10T13:47:44Z</time>
      </trkpt>
      <trkpt lat="48.57878" lon="-3.79847">
        <ele>95.2</ele>
        <time>2020-06-10T13:47:45Z</time>
      </trkpt>
      <trkpt lat="48.57878" lon="-3.79842">
        <ele>95.4</ele>
        <time>2020-06-10T13:47:46Z</time>
      </trkpt>
      <trkpt lat="48.57877" lon="-3.79837">
        <ele>95.5</ele>
        <time>2020-06-10T13:47:47Z</time>
      </trkpt>
      <trkpt lat="48.57877" lon="-3.79833">
        <ele>95.7</ele>
        <time>2020-06-10T13:47:48Z</time>
      </trkpt>
      <trkpt lat="48.57878" lon="-3.79826">
        <ele>95.9</ele>
        <time>2020-06-10T13:47:49Z</time>
      </trkpt>
      <trkpt lat="48.57877" lon="-3.79821">
        <ele>96</ele>
        <time>2020-06-10T13:47:50Z</time>
      </trkpt>
      <trkpt lat="48.57877" lon="-3.79814">
        <ele>96.2</ele>
        <time>2020-06-10T13:47:51Z</time>
      </trkpt>
      <trkpt lat="48.57877" lon="-3.7981">
        <ele>96.4</ele>
        <time>2020-06-10T13:47:52Z</time>
      </trkpt>
      <trkpt lat="48.57876" lon="-3.79803">
        <ele>96.6</ele>
        <time>2020-06-10T13:47:53Z</time>
      </trkpt>
      <trkpt lat="48.57875" lon="-3.79801">
        <ele>96.7</ele>
        <time>2020-06-10T13:47:54Z</time>
      </trkpt>
      <trkpt lat="48.57874" lon="-3.79795">
        <ele>96.9</ele>
        <time>2020-06-10T13:47:55Z</time>
      </trkpt>
      <trkpt lat="48.57873" lon="-3.79793">
        <ele>96.9</ele>
        <time>2020-06-10T13:47:56Z</time>
      </trkpt>
      <trkpt lat="48.57873" lon="-3.79789">
        <ele>97</ele>
        <time>2020-06-10T13:47:57Z</time>
      </trkpt>
      <trkpt lat="48.57872" lon="-3.79788">
        <ele>97.1</ele>
        <time>2020-06-10T13:47:58Z</time>
      </trkpt>
      <trkpt lat="48.57872" lon="-3.79788">
        <ele>97.1</ele>
        <time>2020-06-10T13:47:59Z</time>
      </trkpt>
      <trkpt lat="48.57873" lon="-3.79789">
        <ele>97.1</ele>
        <time>2020-06-10T13:48:00Z</time>
      </trkpt>
      <trkpt lat="48.57873" lon="-3.79789">
        <ele>97.1</ele>
        <time>2020-06-10T13:48:01Z</time>
      </trkpt>
      <trkpt lat="48.57873" lon="-3.79789">
        <ele>97.1</ele>
        <time>2020-06-10T13:48:02Z</time>
      </trkpt>
      <trkpt lat="48.57874" lon="-3.79789">
        <ele>97.2</ele>
        <time>2020-06-10T13:48:03Z</time>
      </trkpt>
      <trkpt lat="48.57874" lon="-3.79789">
        <ele>97.2</ele>
        <time>2020-06-10T13:48:04Z</time>
      </trkpt>
      <trkpt lat="48.57874" lon="-3.79789">
        <ele>97.2</ele>
        <time>2020-06-10T13:48:05Z</time>
      </trkpt>
      <trkpt lat="48.57874" lon="-3.79789">
        <ele>97.2</ele>
        <time>2020-06-10T13:48:06Z</time>
      </trkpt>
      <trkpt lat="48.57874" lon="-3.79789">
        <ele>97.2</ele>
        <time>2020-06-10T13:48:07Z</time>
      </trkpt>
      <trkpt lat="48.57874" lon="-3.79789">
        <ele>97.2</ele>
        <time>2020-06-10T13:48:08Z</time>
      </trkpt>
      <trkpt lat="48.57873" lon="-3.79789">
        <ele>97.3</ele>
        <time>2020-06-10T13:48:09Z</time>
      </trkpt>
      <trkpt lat="48.57873" lon="-3.79781">
        <ele>97.5</ele>
        <time>2020-06-10T13:48:12Z</time>
      </trkpt>
      <trkpt lat="48.57873" lon="-3.79778">
        <ele>97.6</ele>
        <time>2020-06-10T13:48:13Z</time>
      </trkpt>
      <trkpt lat="48.57872" lon="-3.79775">
        <ele>97.7</ele>
        <time>2020-06-10T13:48:14Z</time>
      </trkpt>
      <trkpt lat="48.57873" lon="-3.79773">
        <ele>97.7</ele>
        <time>2020-06-10T13:48:15Z</time>
      </trkpt>
      <trkpt lat="48.57872" lon="-3.79768">
        <ele>97.9</ele>
        <time>2020-06-10T13:48:16Z</time>
      </trkpt>
      <trkpt lat="48.57872" lon="-3.79766">
        <ele>97.9</ele>
        <time>2020-06-10T13:48:17Z</time>
      </trkpt>
      <trkpt lat="48.57871" lon="-3.79761">
        <ele>98.1</ele>
        <time>2020-06-10T13:48:18Z</time>
      </trkpt>
      <trkpt lat="48.57871" lon="-3.79759">
        <ele>98.1</ele>
        <time>2020-06-10T13:48:19Z</time>
      </trkpt>
      <trkpt lat="48.57872" lon="-3.79755">
        <ele>98.4</ele>
        <time>2020-06-10T13:48:20Z</time>
      </trkpt>
      <trkpt lat="48.57872" lon="-3.7975">
        <ele>98.6</ele>
        <time>2020-06-10T13:48:21Z</time>
      </trkpt>
      <trkpt lat="48.57871" lon="-3.79745">
        <ele>98.7</ele>
        <time>2020-06-10T13:48:22Z</time>
      </trkpt>
      <trkpt lat="48.5787" lon="-3.79741">
        <ele>98.8</ele>
        <time>2020-06-10T13:48:23Z</time>
      </trkpt>
      <trkpt lat="48.5787" lon="-3.79737">
        <ele>98.9</ele>
        <time>2020-06-10T13:48:24Z</time>
      </trkpt>
      <trkpt lat="48.5787" lon="-3.79733">
        <ele>99.1</ele>
        <time>2020-06-10T13:48:25Z</time>
      </trkpt>
      <trkpt lat="48.57869" lon="-3.79728">
        <ele>99.2</ele>
        <time>2020-06-10T13:48:26Z</time>
      </trkpt>
      <trkpt lat="48.57869" lon="-3.79723">
        <ele>99.3</ele>
        <time>2020-06-10T13:48:27Z</time>
      </trkpt>
      <trkpt lat="48.57869" lon="-3.79719">
        <ele>99.5</ele>
        <time>2020-06-10T13:48:28Z</time>
      </trkpt>
      <trkpt lat="48.57869" lon="-3.79713">
        <ele>99.6</ele>
        <time>2020-06-10T13:48:29Z</time>
      </trkpt>
      <trkpt lat="48.57869" lon="-3.79707">
        <ele>99.7</ele>
        <time>2020-06-10T13:48:30Z</time>
      </trkpt>
      <trkpt lat="48.57868" lon="-3.79706">
        <ele>99.8</ele>
        <time>2020-06-10T13:48:31Z</time>
      </trkpt>
      <trkpt lat="48.57867" lon="-3.797">
        <ele>99.9</ele>
        <time>2020-06-10T13:48:32Z</time>
      </trkpt>
      <trkpt lat="48.57867" lon="-3.79698">
        <ele>100</ele>
        <time>2020-06-10T13:48:33Z</time>
      </trkpt>
      <trkpt lat="48.57866" lon="-3.79692">
        <ele>100.1</ele>
        <time>2020-06-10T13:48:34Z</time>
      </trkpt>
      <trkpt lat="48.57865" lon="-3.79687">
        <ele>100.2</ele>
        <time>2020-06-10T13:48:35Z</time>
      </trkpt>
      <trkpt lat="48.57864" lon="-3.79681">
        <ele>100.4</ele>
        <time>2020-06-10T13:48:36Z</time>
      </trkpt>
      <trkpt lat="48.57863" lon="-3.79677">
        <ele>100.5</ele>
        <time>2020-06-10T13:48:37Z</time>
      </trkpt>
      <trkpt lat="48.57863" lon="-3.79672">
        <ele>100.6</ele>
        <time>2020-06-10T13:48:38Z</time>
      </trkpt>
      <trkpt lat="48.57863" lon="-3.79665">
        <ele>100.8</ele>
        <time>2020-06-10T13:48:39Z</time>
      </trkpt>
      <trkpt lat="48.57863" lon="-3.79663">
        <ele>100.9</ele>
        <time>2020-06-10T13:48:40Z</time>
      </trkpt>
      <trkpt lat="48.57863" lon="-3.79658">
        <ele>101</ele>
        <time>2020-06-10T13:48:41Z</time>
      </trkpt>
      <trkpt lat="48.57862" lon="-3.79653">
        <ele>101.1</ele>
        <time>2020-06-10T13:48:42Z</time>
      </trkpt>
      <trkpt lat="48.57861" lon="-3.79651">
        <ele>101.1</ele>
        <time>2020-06-10T13:48:43Z</time>
      </trkpt>
      <trkpt lat="48.57861" lon="-3.79646">
        <ele>101.2</ele>
        <time>2020-06-10T13:48:44Z</time>
      </trkpt>
      <trkpt lat="48.57861" lon="-3.79642">
        <ele>101.3</ele>
        <time>2020-06-10T13:48:45Z</time>
      </trkpt>
      <trkpt lat="48.5786" lon="-3.79638">
        <ele>101.4</ele>
        <time>2020-06-10T13:48:46Z</time>
      </trkpt>
      <trkpt lat="48.57858" lon="-3.79633">
        <ele>101.5</ele>
        <time>2020-06-10T13:48:47Z</time>
      </trkpt>
      <trkpt lat="48.57858" lon="-3.79629">
        <ele>101.7</ele>
        <time>2020-06-10T13:48:48Z</time>
      </trkpt>
      <trkpt lat="48.57858" lon="-3.79623">
        <ele>101.8</ele>
        <time>2020-06-10T13:48:49Z</time>
      </trkpt>
      <trkpt lat="48.57858" lon="-3.79622">
        <ele>101.8</ele>
        <time>2020-06-10T13:48:50Z</time>
      </trkpt>
      <trkpt lat="48.57858" lon="-3.79617">
        <ele>101.9</ele>
        <time>2020-06-10T13:48:51Z</time>
      </trkpt>
      <trkpt lat="48.57857" lon="-3.79612">
        <ele>102</ele>
        <time>2020-06-10T13:48:52Z</time>
      </trkpt>
      <trkpt lat="48.57856" lon="-3.79608">
        <ele>102.1</ele>
        <time>2020-06-10T13:48:53Z</time>
      </trkpt>
      <trkpt lat="48.57857" lon="-3.79604">
        <ele>102.1</ele>
        <time>2020-06-10T13:48:54Z</time>
      </trkpt>
      <trkpt lat="48.57856" lon="-3.79599">
        <ele>102.2</ele>
        <time>2020-06-10T13:48:55Z</time>
      </trkpt>
      <trkpt lat="48.57856" lon="-3.79595">
        <ele>102.3</ele>
        <time>2020-06-10T13:48:56Z</time>
      </trkpt>
      <trkpt lat="48.57855" lon="-3.79589">
        <ele>102.4</ele>
        <time>2020-06-10T13:48:57Z</time>
      </trkpt>
      <trkpt lat="48.57855" lon="-3.79587">
        <ele>102.4</ele>
        <time>2020-06-10T13:48:58Z</time>
      </trkpt>
      <trkpt lat="48.57855" lon="-3.79582">
        <ele>102.5</ele>
        <time>2020-06-10T13:48:59Z</time>
      </trkpt>
      <trkpt lat="48.57854" lon="-3.79577">
        <ele>102.6</ele>
        <time>2020-06-10T13:49:00Z</time>
      </trkpt>
      <trkpt lat="48.57854" lon="-3.79573">
        <ele>102.7</ele>
        <time>2020-06-10T13:49:01Z</time>
      </trkpt>
      <trkpt lat="48.57854" lon="-3.79568">
        <ele>102.7</ele>
        <time>2020-06-10T13:49:02Z</time>
      </trkpt>
      <trkpt lat="48.57853" lon="-3.79563">
        <ele>102.8</ele>
        <time>2020-06-10T13:49:03Z</time>
      </trkpt>
      <trkpt lat="48.57853" lon="-3.79557">
        <ele>102.9</ele>
        <time>2020-06-10T13:49:04Z</time>
      </trkpt>
      <trkpt lat="48.57853" lon="-3.79555">
        <ele>102.9</ele>
        <time>2020-06-10T13:49:05Z</time>
      </trkpt>
      <trkpt lat="48.57852" lon="-3.79549">
        <ele>103</ele>
        <time>2020-06-10T13:49:06Z</time>
      </trkpt>
      <trkpt lat="48.57852" lon="-3.79548">
        <ele>103</ele>
        <time>2020-06-10T13:49:07Z</time>
      </trkpt>
      <trkpt lat="48.57852" lon="-3.79541">
        <ele>103.1</ele>
        <time>2020-06-10T13:49:08Z</time>
      </trkpt>
      <trkpt lat="48.57852" lon="-3.79539">
        <ele>103.1</ele>
        <time>2020-06-10T13:49:09Z</time>
      </trkpt>
      <trkpt lat="48.57852" lon="-3.79534">
        <ele>103.2</ele>
        <time>2020-06-10T13:49:10Z</time>
      </trkpt>
      <trkpt lat="48.57851" lon="-3.79529">
        <ele>103.2</ele>
        <time>2020-06-10T13:49:11Z</time>
      </trkpt>
      <trkpt lat="48.5785" lon="-3.79524">
        <ele>103.2</ele>
        <time>2020-06-10T13:49:12Z</time>
      </trkpt>
      <trkpt lat="48.57849" lon="-3.79519">
        <ele>103.3</ele>
        <time>2020-06-10T13:49:13Z</time>
      </trkpt>
      <trkpt lat="48.57848" lon="-3.79514">
        <ele>103.3</ele>
        <time>2020-06-10T13:49:14Z</time>
      </trkpt>
      <trkpt lat="48.57848" lon="-3.79509">
        <ele>103.4</ele>
        <time>2020-06-10T13:49:15Z</time>
      </trkpt>
      <trkpt lat="48.57847" lon="-3.79504">
        <ele>103.5</ele>
        <time>2020-06-10T13:49:16Z</time>
      </trkpt>
      <trkpt lat="48.57847" lon="-3.79499">
        <ele>103.5</ele>
        <time>2020-06-10T13:49:17Z</time>
      </trkpt>
      <trkpt lat="48.57845" lon="-3.79494">
        <ele>103.6</ele>
        <time>2020-06-10T13:49:18Z</time>
      </trkpt>
      <trkpt lat="48.57844" lon="-3.79488">
        <ele>103.8</ele>
        <time>2020-06-10T13:49:19Z</time>
      </trkpt>
      <trkpt lat="48.57843" lon="-3.79482">
        <ele>103.9</ele>
        <time>2020-06-10T13:49:20Z</time>
      </trkpt>
      <trkpt lat="48.57843" lon="-3.79475">
        <ele>104</ele>
        <time>2020-06-10T13:49:21Z</time>
      </trkpt>
      <trkpt lat="48.57843" lon="-3.79469">
        <ele>104.1</ele>
        <time>2020-06-10T13:49:22Z</time>
      </trkpt>
      <trkpt lat="48.57842" lon="-3.79463">
        <ele>104.2</ele>
        <time>2020-06-10T13:49:23Z</time>
      </trkpt>
      <trkpt lat="48.57842" lon="-3.79457">
        <ele>104.3</ele>
        <time>2020-06-10T13:49:24Z</time>
      </trkpt>
      <trkpt lat="48.57841" lon="-3.79451">
        <ele>104.4</ele>
        <time>2020-06-10T13:49:25Z</time>
      </trkpt>
      <trkpt lat="48.57841" lon="-3.79445">
        <ele>104.5</ele>
        <time>2020-06-10T13:49:26Z</time>
      </trkpt>
      <trkpt lat="48.5784" lon="-3.79439">
        <ele>104.5</ele>
        <time>2020-06-10T13:49:27Z</time>
      </trkpt>
      <trkpt lat="48.57839" lon="-3.79434">
        <ele>104.6</ele>
        <time>2020-06-10T13:49:28Z</time>
      </trkpt>
      <trkpt lat="48.5784" lon="-3.79427">
        <ele>104.7</ele>
        <time>2020-06-10T13:49:29Z</time>
      </trkpt>
      <trkpt lat="48.57839" lon="-3.79423">
        <ele>104.7</ele>
        <time>2020-06-10T13:49:30Z</time>
      </trkpt>
      <trkpt lat="48.57839" lon="-3.79417">
        <ele>104.7</ele>
        <time>2020-06-10T13:49:31Z</time>
      </trkpt>
      <trkpt lat="48.57839" lon="-3.79412">
        <ele>104.7</ele>
        <time>2020-06-10T13:49:32Z</time>
      </trkpt>
      <trkpt lat="48.57838" lon="-3.79407">
        <ele>104.8</ele>
        <time>2020-06-10T13:49:33Z</time>
      </trkpt>
      <trkpt lat="48.57837" lon="-3.79402">
        <ele>104.8</ele>
        <time>2020-06-10T13:49:34Z</time>
      </trkpt>
      <trkpt lat="48.57837" lon="-3.79396">
        <ele>104.9</ele>
        <time>2020-06-10T13:49:35Z</time>
      </trkpt>
      <trkpt lat="48.57836" lon="-3.7939">
        <ele>104.9</ele>
        <time>2020-06-10T13:49:36Z</time>
      </trkpt>
      <trkpt lat="48.57836" lon="-3.79383">
        <ele>104.9</ele>
        <time>2020-06-10T13:49:37Z</time>
      </trkpt>
      <trkpt lat="48.57835" lon="-3.79377">
        <ele>104.9</ele>
        <time>2020-06-10T13:49:38Z</time>
      </trkpt>
      <trkpt lat="48.57834" lon="-3.7937">
        <ele>105</ele>
        <time>2020-06-10T13:49:39Z</time>
      </trkpt>
      <trkpt lat="48.57834" lon="-3.79363">
        <ele>105</ele>
        <time>2020-06-10T13:49:40Z</time>
      </trkpt>
      <trkpt lat="48.57833" lon="-3.79359">
        <ele>105</ele>
        <time>2020-06-10T13:49:41Z</time>
      </trkpt>
      <trkpt lat="48.57833" lon="-3.79353">
        <ele>105</ele>
        <time>2020-06-10T13:49:42Z</time>
      </trkpt>
      <trkpt lat="48.57832" lon="-3.79347">
        <ele>105</ele>
        <time>2020-06-10T13:49:43Z</time>
      </trkpt>
      <trkpt lat="48.57831" lon="-3.79341">
        <ele>105</ele>
        <time>2020-06-10T13:49:44Z</time>
      </trkpt>
      <trkpt lat="48.5783" lon="-3.79335">
        <ele>105</ele>
        <time>2020-06-10T13:49:45Z</time>
      </trkpt>
      <trkpt lat="48.57829" lon="-3.79329">
        <ele>105</ele>
        <time>2020-06-10T13:49:46Z</time>
      </trkpt>
      <trkpt lat="48.57829" lon="-3.79321">
        <ele>105.1</ele>
        <time>2020-06-10T13:49:47Z</time>
      </trkpt>
      <trkpt lat="48.57829" lon="-3.79316">
        <ele>105.1</ele>
        <time>2020-06-10T13:49:48Z</time>
      </trkpt>
      <trkpt lat="48.57828" lon="-3.7931">
        <ele>105.1</ele>
        <time>2020-06-10T13:49:49Z</time>
      </trkpt>
      <trkpt lat="48.57827" lon="-3.79305">
        <ele>105.1</ele>
        <time>2020-06-10T13:49:50Z</time>
      </trkpt>
      <trkpt lat="48.57826" lon="-3.79299">
        <ele>105.1</ele>
        <time>2020-06-10T13:49:51Z</time>
      </trkpt>
      <trkpt lat="48.57825" lon="-3.79294">
        <ele>105.1</ele>
        <time>2020-06-10T13:49:52Z</time>
      </trkpt>
      <trkpt lat="48.57825" lon="-3.79289">
        <ele>105.1</ele>
        <time>2020-06-10T13:49:53Z</time>
      </trkpt>
      <trkpt lat="48.57824" lon="-3.79283">
        <ele>105.1</ele>
        <time>2020-06-10T13:49:54Z</time>
      </trkpt>
      <trkpt lat="48.57825" lon="-3.79277">
        <ele>105</ele>
        <time>2020-06-10T13:49:55Z</time>
      </trkpt>
      <trkpt lat="48.57824" lon="-3.7927">
        <ele>105</ele>
        <time>2020-06-10T13:49:56Z</time>
      </trkpt>
      <trkpt lat="48.57824" lon="-3.79263">
        <ele>104.9</ele>
        <time>2020-06-10T13:49:57Z</time>
      </trkpt>
      <trkpt lat="48.57822" lon="-3.79256">
        <ele>104.8</ele>
        <time>2020-06-10T13:49:58Z</time>
      </trkpt>
      <trkpt lat="48.57822" lon="-3.79249">
        <ele>104.7</ele>
        <time>2020-06-10T13:49:59Z</time>
      </trkpt>
      <trkpt lat="48.57821" lon="-3.79243">
        <ele>104.6</ele>
        <time>2020-06-10T13:50:00Z</time>
      </trkpt>
      <trkpt lat="48.5782" lon="-3.79235">
        <ele>104.5</ele>
        <time>2020-06-10T13:50:01Z</time>
      </trkpt>
      <trkpt lat="48.57819" lon="-3.79227">
        <ele>104.4</ele>
        <time>2020-06-10T13:50:02Z</time>
      </trkpt>
      <trkpt lat="48.57818" lon="-3.79218">
        <ele>104.3</ele>
        <time>2020-06-10T13:50:03Z</time>
      </trkpt>
      <trkpt lat="48.57817" lon="-3.79211">
        <ele>104.2</ele>
        <time>2020-06-10T13:50:04Z</time>
      </trkpt>
      <trkpt lat="48.57816" lon="-3.79204">
        <ele>104.1</ele>
        <time>2020-06-10T13:50:05Z</time>
      </trkpt>
      <trkpt lat="48.57815" lon="-3.79195">
        <ele>104</ele>
        <time>2020-06-10T13:50:06Z</time>
      </trkpt>
      <trkpt lat="48.57815" lon="-3.79188">
        <ele>103.8</ele>
        <time>2020-06-10T13:50:07Z</time>
      </trkpt>
      <trkpt lat="48.57814" lon="-3.7918">
        <ele>103.7</ele>
        <time>2020-06-10T13:50:08Z</time>
      </trkpt>
      <trkpt lat="48.57813" lon="-3.79171">
        <ele>103.6</ele>
        <time>2020-06-10T13:50:09Z</time>
      </trkpt>
      <trkpt lat="48.57813" lon="-3.79162">
        <ele>103.4</ele>
        <time>2020-06-10T13:50:10Z</time>
      </trkpt>
      <trkpt lat="48.57813" lon="-3.79152">
        <ele>103.3</ele>
        <time>2020-06-10T13:50:11Z</time>
      </trkpt>
      <trkpt lat="48.57812" lon="-3.79143">
        <ele>103.2</ele>
        <time>2020-06-10T13:50:12Z</time>
      </trkpt>
      <trkpt lat="48.57811" lon="-3.79134">
        <ele>103.1</ele>
        <time>2020-06-10T13:50:13Z</time>
      </trkpt>
      <trkpt lat="48.57811" lon="-3.79124">
        <ele>102.9</ele>
        <time>2020-06-10T13:50:14Z</time>
      </trkpt>
      <trkpt lat="48.5781" lon="-3.79115">
        <ele>102.8</ele>
        <time>2020-06-10T13:50:15Z</time>
      </trkpt>
      <trkpt lat="48.57809" lon="-3.79106">
        <ele>102.7</ele>
        <time>2020-06-10T13:50:16Z</time>
      </trkpt>
      <trkpt lat="48.57808" lon="-3.79097">
        <ele>102.6</ele>
        <time>2020-06-10T13:50:17Z</time>
      </trkpt>
      <trkpt lat="48.57807" lon="-3.79089">
        <ele>102.5</ele>
        <time>2020-06-10T13:50:18Z</time>
      </trkpt>
      <trkpt lat="48.57805" lon="-3.79081">
        <ele>102.4</ele>
        <time>2020-06-10T13:50:19Z</time>
      </trkpt>
      <trkpt lat="48.57805" lon="-3.79073">
        <ele>102.3</ele>
        <time>2020-06-10T13:50:20Z</time>
      </trkpt>
      <trkpt lat="48.57804" lon="-3.79064">
        <ele>102.2</ele>
        <time>2020-06-10T13:50:21Z</time>
      </trkpt>
      <trkpt lat="48.57803" lon="-3.79055">
        <ele>102.2</ele>
        <time>2020-06-10T13:50:22Z</time>
      </trkpt>
      <trkpt lat="48.57802" lon="-3.79046">
        <ele>102.2</ele>
        <time>2020-06-10T13:50:23Z</time>
      </trkpt>
      <trkpt lat="48.57801" lon="-3.79037">
        <ele>102.1</ele>
        <time>2020-06-10T13:50:24Z</time>
      </trkpt>
      <trkpt lat="48.57801" lon="-3.79028">
        <ele>102.1</ele>
        <time>2020-06-10T13:50:25Z</time>
      </trkpt>
      <trkpt lat="48.57799" lon="-3.79019">
        <ele>102</ele>
        <time>2020-06-10T13:50:26Z</time>
      </trkpt>
      <trkpt lat="48.57798" lon="-3.7901">
        <ele>102.1</ele>
        <time>2020-06-10T13:50:27Z</time>
      </trkpt>
      <trkpt lat="48.57797" lon="-3.79">
        <ele>102.1</ele>
        <time>2020-06-10T13:50:28Z</time>
      </trkpt>
      <trkpt lat="48.57796" lon="-3.7899">
        <ele>102.2</ele>
        <time>2020-06-10T13:50:29Z</time>
      </trkpt>
      <trkpt lat="48.57796" lon="-3.78983">
        <ele>102.2</ele>
        <time>2020-06-10T13:50:30Z</time>
      </trkpt>
      <trkpt lat="48.57795" lon="-3.78974">
        <ele>102.2</ele>
        <time>2020-06-10T13:50:31Z</time>
      </trkpt>
      <trkpt lat="48.57795" lon="-3.78965">
        <ele>102.2</ele>
        <time>2020-06-10T13:50:32Z</time>
      </trkpt>
      <trkpt lat="48.57795" lon="-3.78956">
        <ele>102.2</ele>
        <time>2020-06-10T13:50:33Z</time>
      </trkpt>
      <trkpt lat="48.57794" lon="-3.78946">
        <ele>102.2</ele>
        <time>2020-06-10T13:50:34Z</time>
      </trkpt>
      <trkpt lat="48.57793" lon="-3.78938">
        <ele>102.3</ele>
        <time>2020-06-10T13:50:35Z</time>
      </trkpt>
      <trkpt lat="48.57791" lon="-3.78928">
        <ele>102.4</ele>
        <time>2020-06-10T13:50:36Z</time>
      </trkpt>
      <trkpt lat="48.57791" lon="-3.78917">
        <ele>102.5</ele>
        <time>2020-06-10T13:50:37Z</time>
      </trkpt>
      <trkpt lat="48.5779" lon="-3.78908">
        <ele>102.6</ele>
        <time>2020-06-10T13:50:38Z</time>
      </trkpt>
      <trkpt lat="48.57789" lon="-3.78902">
        <ele>102.7</ele>
        <time>2020-06-10T13:50:39Z</time>
      </trkpt>
      <trkpt lat="48.57789" lon="-3.78893">
        <ele>102.8</ele>
        <time>2020-06-10T13:50:40Z</time>
      </trkpt>
      <trkpt lat="48.57788" lon="-3.78884">
        <ele>103</ele>
        <time>2020-06-10T13:50:41Z</time>
      </trkpt>
      <trkpt lat="48.57787" lon="-3.78875">
        <ele>103.1</ele>
        <time>2020-06-10T13:50:42Z</time>
      </trkpt>
      <trkpt lat="48.57786" lon="-3.78866">
        <ele>103.3</ele>
        <time>2020-06-10T13:50:43Z</time>
      </trkpt>
      <trkpt lat="48.57785" lon="-3.78858">
        <ele>103.5</ele>
        <time>2020-06-10T13:50:44Z</time>
      </trkpt>
      <trkpt lat="48.57784" lon="-3.78849">
        <ele>103.7</ele>
        <time>2020-06-10T13:50:45Z</time>
      </trkpt>
      <trkpt lat="48.57783" lon="-3.7884">
        <ele>103.8</ele>
        <time>2020-06-10T13:50:46Z</time>
      </trkpt>
      <trkpt lat="48.57783" lon="-3.78832">
        <ele>104</ele>
        <time>2020-06-10T13:50:47Z</time>
      </trkpt>
      <trkpt lat="48.57783" lon="-3.78825">
        <ele>104.1</ele>
        <time>2020-06-10T13:50:48Z</time>
      </trkpt>
      <trkpt lat="48.57782" lon="-3.78818">
        <ele>104.2</ele>
        <time>2020-06-10T13:50:49Z</time>
      </trkpt>
      <trkpt lat="48.57781" lon="-3.78811">
        <ele>104.3</ele>
        <time>2020-06-10T13:50:50Z</time>
      </trkpt>
      <trkpt lat="48.5778" lon="-3.78804">
        <ele>104.5</ele>
        <time>2020-06-10T13:50:51Z</time>
      </trkpt>
      <trkpt lat="48.57778" lon="-3.78797">
        <ele>104.6</ele>
        <time>2020-06-10T13:50:52Z</time>
      </trkpt>
      <trkpt lat="48.57778" lon="-3.78789">
        <ele>104.7</ele>
        <time>2020-06-10T13:50:53Z</time>
      </trkpt>
      <trkpt lat="48.57778" lon="-3.7878">
        <ele>104.9</ele>
        <time>2020-06-10T13:50:54Z</time>
      </trkpt>
      <trkpt lat="48.57776" lon="-3.78773">
        <ele>105</ele>
        <time>2020-06-10T13:50:55Z</time>
      </trkpt>
      <trkpt lat="48.57776" lon="-3.78762">
        <ele>105.2</ele>
        <time>2020-06-10T13:50:56Z</time>
      </trkpt>
      <trkpt lat="48.57776" lon="-3.78755">
        <ele>105.3</ele>
        <time>2020-06-10T13:50:57Z</time>
      </trkpt>
      <trkpt lat="48.57775" lon="-3.78745">
        <ele>105.5</ele>
        <time>2020-06-10T13:50:58Z</time>
      </trkpt>
      <trkpt lat="48.57775" lon="-3.78738">
        <ele>105.6</ele>
        <time>2020-06-10T13:50:59Z</time>
      </trkpt>
      <trkpt lat="48.57773" lon="-3.78731">
        <ele>105.7</ele>
        <time>2020-06-10T13:51:00Z</time>
      </trkpt>
      <trkpt lat="48.57772" lon="-3.78724">
        <ele>105.8</ele>
        <time>2020-06-10T13:51:01Z</time>
      </trkpt>
      <trkpt lat="48.57772" lon="-3.78717">
        <ele>105.9</ele>
        <time>2020-06-10T13:51:02Z</time>
      </trkpt>
      <trkpt lat="48.57772" lon="-3.78709">
        <ele>106.1</ele>
        <time>2020-06-10T13:51:03Z</time>
      </trkpt>
      <trkpt lat="48.57771" lon="-3.78701">
        <ele>106.2</ele>
        <time>2020-06-10T13:51:04Z</time>
      </trkpt>
      <trkpt lat="48.57771" lon="-3.78695">
        <ele>106.3</ele>
        <time>2020-06-10T13:51:05Z</time>
      </trkpt>
      <trkpt lat="48.57771" lon="-3.78688">
        <ele>106.4</ele>
        <time>2020-06-10T13:51:06Z</time>
      </trkpt>
      <trkpt lat="48.5777" lon="-3.78681">
        <ele>106.5</ele>
        <time>2020-06-10T13:51:07Z</time>
      </trkpt>
      <trkpt lat="48.5777" lon="-3.78674">
        <ele>106.6</ele>
        <time>2020-06-10T13:51:08Z</time>
      </trkpt>
      <trkpt lat="48.57768" lon="-3.78667">
        <ele>106.7</ele>
        <time>2020-06-10T13:51:09Z</time>
      </trkpt>
      <trkpt lat="48.57768" lon="-3.7866">
        <ele>106.7</ele>
        <time>2020-06-10T13:51:10Z</time>
      </trkpt>
      <trkpt lat="48.57767" lon="-3.78652">
        <ele>106.8</ele>
        <time>2020-06-10T13:51:11Z</time>
      </trkpt>
      <trkpt lat="48.57766" lon="-3.78642">
        <ele>107</ele>
        <time>2020-06-10T13:51:12Z</time>
      </trkpt>
      <trkpt lat="48.57766" lon="-3.78634">
        <ele>107.1</ele>
        <time>2020-06-10T13:51:13Z</time>
      </trkpt>
      <trkpt lat="48.57765" lon="-3.78624">
        <ele>107.3</ele>
        <time>2020-06-10T13:51:14Z</time>
      </trkpt>
      <trkpt lat="48.57764" lon="-3.78614">
        <ele>107.4</ele>
        <time>2020-06-10T13:51:15Z</time>
      </trkpt>
      <trkpt lat="48.57764" lon="-3.78605">
        <ele>107.6</ele>
        <time>2020-06-10T13:51:16Z</time>
      </trkpt>
      <trkpt lat="48.57763" lon="-3.78596">
        <ele>107.6</ele>
        <time>2020-06-10T13:51:17Z</time>
      </trkpt>
      <trkpt lat="48.57762" lon="-3.78588">
        <ele>107.7</ele>
        <time>2020-06-10T13:51:18Z</time>
      </trkpt>
      <trkpt lat="48.57761" lon="-3.78579">
        <ele>107.8</ele>
        <time>2020-06-10T13:51:19Z</time>
      </trkpt>
      <trkpt lat="48.5776" lon="-3.78569">
        <ele>107.9</ele>
        <time>2020-06-10T13:51:20Z</time>
      </trkpt>
      <trkpt lat="48.57759" lon="-3.7856">
        <ele>108</ele>
        <time>2020-06-10T13:51:21Z</time>
      </trkpt>
      <trkpt lat="48.57758" lon="-3.78552">
        <ele>108</ele>
        <time>2020-06-10T13:51:22Z</time>
      </trkpt>
      <trkpt lat="48.57757" lon="-3.78542">
        <ele>108.2</ele>
        <time>2020-06-10T13:51:23Z</time>
      </trkpt>
      <trkpt lat="48.57756" lon="-3.78533">
        <ele>108.3</ele>
        <time>2020-06-10T13:51:24Z</time>
      </trkpt>
      <trkpt lat="48.57755" lon="-3.78525">
        <ele>108.4</ele>
        <time>2020-06-10T13:51:25Z</time>
      </trkpt>
      <trkpt lat="48.57754" lon="-3.78515">
        <ele>108.5</ele>
        <time>2020-06-10T13:51:26Z</time>
      </trkpt>
      <trkpt lat="48.57754" lon="-3.78505">
        <ele>108.6</ele>
        <time>2020-06-10T13:51:27Z</time>
      </trkpt>
      <trkpt lat="48.57753" lon="-3.78497">
        <ele>108.7</ele>
        <time>2020-06-10T13:51:28Z</time>
      </trkpt>
      <trkpt lat="48.57752" lon="-3.78491">
        <ele>108.8</ele>
        <time>2020-06-10T13:51:29Z</time>
      </trkpt>
      <trkpt lat="48.57751" lon="-3.78482">
        <ele>108.9</ele>
        <time>2020-06-10T13:51:30Z</time>
      </trkpt>
      <trkpt lat="48.57749" lon="-3.7847">
        <ele>109</ele>
        <time>2020-06-10T13:51:31Z</time>
      </trkpt>
      <trkpt lat="48.57749" lon="-3.78461">
        <ele>109.1</ele>
        <time>2020-06-10T13:51:32Z</time>
      </trkpt>
      <trkpt lat="48.57747" lon="-3.78453">
        <ele>109.2</ele>
        <time>2020-06-10T13:51:33Z</time>
      </trkpt>
      <trkpt lat="48.57746" lon="-3.78444">
        <ele>109.3</ele>
        <time>2020-06-10T13:51:34Z</time>
      </trkpt>
      <trkpt lat="48.57746" lon="-3.78437">
        <ele>109.4</ele>
        <time>2020-06-10T13:51:35Z</time>
      </trkpt>
      <trkpt lat="48.57745" lon="-3.78428">
        <ele>109.5</ele>
        <time>2020-06-10T13:51:36Z</time>
      </trkpt>
      <trkpt lat="48.57744" lon="-3.7842">
        <ele>109.6</ele>
        <time>2020-06-10T13:51:37Z</time>
      </trkpt>
      <trkpt lat="48.57743" lon="-3.78412">
        <ele>109.7</ele>
        <time>2020-06-10T13:51:38Z</time>
      </trkpt>
      <trkpt lat="48.57742" lon="-3.78403">
        <ele>109.8</ele>
        <time>2020-06-10T13:51:39Z</time>
      </trkpt>
      <trkpt lat="48.57741" lon="-3.78394">
        <ele>109.9</ele>
        <time>2020-06-10T13:51:40Z</time>
      </trkpt>
      <trkpt lat="48.5774" lon="-3.78385">
        <ele>110</ele>
        <time>2020-06-10T13:51:41Z</time>
      </trkpt>
      <trkpt lat="48.57739" lon="-3.78378">
        <ele>110</ele>
        <time>2020-06-10T13:51:42Z</time>
      </trkpt>
      <trkpt lat="48.57738" lon="-3.78368">
        <ele>110.2</ele>
        <time>2020-06-10T13:51:43Z</time>
      </trkpt>
      <trkpt lat="48.57737" lon="-3.78359">
        <ele>110.3</ele>
        <time>2020-06-10T13:51:44Z</time>
      </trkpt>
      <trkpt lat="48.57736" lon="-3.7835">
        <ele>110.4</ele>
        <time>2020-06-10T13:51:45Z</time>
      </trkpt>
      <trkpt lat="48.57735" lon="-3.78342">
        <ele>110.5</ele>
        <time>2020-06-10T13:51:46Z</time>
      </trkpt>
      <trkpt lat="48.57734" lon="-3.78335">
        <ele>110.6</ele>
        <time>2020-06-10T13:51:47Z</time>
      </trkpt>
      <trkpt lat="48.57733" lon="-3.78327">
        <ele>110.7</ele>
        <time>2020-06-10T13:51:48Z</time>
      </trkpt>
      <trkpt lat="48.57733" lon="-3.78319">
        <ele>110.8</ele>
        <time>2020-06-10T13:51:49Z</time>
      </trkpt>
      <trkpt lat="48.57732" lon="-3.7831">
        <ele>111</ele>
        <time>2020-06-10T13:51:50Z</time>
      </trkpt>
      <trkpt lat="48.57731" lon="-3.783">
        <ele>111.1</ele>
        <time>2020-06-10T13:51:51Z</time>
      </trkpt>
      <trkpt lat="48.5773" lon="-3.78293">
        <ele>111.2</ele>
        <time>2020-06-10T13:51:52Z</time>
      </trkpt>
      <trkpt lat="48.5773" lon="-3.78284">
        <ele>111.4</ele>
        <time>2020-06-10T13:51:53Z</time>
      </trkpt>
      <trkpt lat="48.5773" lon="-3.78276">
        <ele>111.5</ele>
        <time>2020-06-10T13:51:54Z</time>
      </trkpt>
      <trkpt lat="48.5773" lon="-3.78269">
        <ele>111.6</ele>
        <time>2020-06-10T13:51:55Z</time>
      </trkpt>
      <trkpt lat="48.5773" lon="-3.7826">
        <ele>111.7</ele>
        <time>2020-06-10T13:51:56Z</time>
      </trkpt>
      <trkpt lat="48.57729" lon="-3.78252">
        <ele>111.8</ele>
        <time>2020-06-10T13:51:57Z</time>
      </trkpt>
      <trkpt lat="48.57728" lon="-3.78243">
        <ele>111.9</ele>
        <time>2020-06-10T13:51:58Z</time>
      </trkpt>
      <trkpt lat="48.57727" lon="-3.78236">
        <ele>112</ele>
        <time>2020-06-10T13:51:59Z</time>
      </trkpt>
      <trkpt lat="48.57726" lon="-3.78228">
        <ele>112</ele>
        <time>2020-06-10T13:52:00Z</time>
      </trkpt>
      <trkpt lat="48.57724" lon="-3.78219">
        <ele>112.1</ele>
        <time>2020-06-10T13:52:01Z</time>
      </trkpt>
      <trkpt lat="48.57724" lon="-3.78212">
        <ele>112.1</ele>
        <time>2020-06-10T13:52:02Z</time>
      </trkpt>
      <trkpt lat="48.57723" lon="-3.78205">
        <ele>112.1</ele>
        <time>2020-06-10T13:52:03Z</time>
      </trkpt>
      <trkpt lat="48.57723" lon="-3.78196">
        <ele>112.1</ele>
        <time>2020-06-10T13:52:04Z</time>
      </trkpt>
      <trkpt lat="48.57722" lon="-3.78188">
        <ele>112.1</ele>
        <time>2020-06-10T13:52:05Z</time>
      </trkpt>
      <trkpt lat="48.57721" lon="-3.7818">
        <ele>112.2</ele>
        <time>2020-06-10T13:52:06Z</time>
      </trkpt>
      <trkpt lat="48.5772" lon="-3.78173">
        <ele>112.3</ele>
        <time>2020-06-10T13:52:07Z</time>
      </trkpt>
      <trkpt lat="48.57719" lon="-3.78165">
        <ele>112.4</ele>
        <time>2020-06-10T13:52:08Z</time>
      </trkpt>
      <trkpt lat="48.57718" lon="-3.78156">
        <ele>112.5</ele>
        <time>2020-06-10T13:52:09Z</time>
      </trkpt>
      <trkpt lat="48.57718" lon="-3.78147">
        <ele>112.6</ele>
        <time>2020-06-10T13:52:10Z</time>
      </trkpt>
      <trkpt lat="48.57717" lon="-3.78139">
        <ele>112.7</ele>
        <time>2020-06-10T13:52:11Z</time>
      </trkpt>
      <trkpt lat="48.57716" lon="-3.78131">
        <ele>112.7</ele>
        <time>2020-06-10T13:52:12Z</time>
      </trkpt>
      <trkpt lat="48.57716" lon="-3.78122">
        <ele>112.8</ele>
        <time>2020-06-10T13:52:13Z</time>
      </trkpt>
      <trkpt lat="48.57715" lon="-3.78113">
        <ele>112.9</ele>
        <time>2020-06-10T13:52:14Z</time>
      </trkpt>
      <trkpt lat="48.57714" lon="-3.78103">
        <ele>112.9</ele>
        <time>2020-06-10T13:52:15Z</time>
      </trkpt>
      <trkpt lat="48.57713" lon="-3.78095">
        <ele>112.9</ele>
        <time>2020-06-10T13:52:16Z</time>
      </trkpt>
      <trkpt lat="48.57712" lon="-3.78086">
        <ele>113</ele>
        <time>2020-06-10T13:52:17Z</time>
      </trkpt>
      <trkpt lat="48.57711" lon="-3.78078">
        <ele>113</ele>
        <time>2020-06-10T13:52:18Z</time>
      </trkpt>
      <trkpt lat="48.57711" lon="-3.78069">
        <ele>113</ele>
        <time>2020-06-10T13:52:19Z</time>
      </trkpt>
      <trkpt lat="48.5771" lon="-3.78061">
        <ele>113.1</ele>
        <time>2020-06-10T13:52:20Z</time>
      </trkpt>
      <trkpt lat="48.57709" lon="-3.78053">
        <ele>113.1</ele>
        <time>2020-06-10T13:52:21Z</time>
      </trkpt>
      <trkpt lat="48.57708" lon="-3.78045">
        <ele>113.1</ele>
        <time>2020-06-10T13:52:22Z</time>
      </trkpt>
      <trkpt lat="48.57708" lon="-3.78038">
        <ele>113.1</ele>
        <time>2020-06-10T13:52:23Z</time>
      </trkpt>
      <trkpt lat="48.57708" lon="-3.78028">
        <ele>113.1</ele>
        <time>2020-06-10T13:52:24Z</time>
      </trkpt>
      <trkpt lat="48.57707" lon="-3.7802">
        <ele>113.1</ele>
        <time>2020-06-10T13:52:25Z</time>
      </trkpt>
      <trkpt lat="48.57707" lon="-3.78013">
        <ele>113.1</ele>
        <time>2020-06-10T13:52:26Z</time>
      </trkpt>
      <trkpt lat="48.57705" lon="-3.78003">
        <ele>113.1</ele>
        <time>2020-06-10T13:52:27Z</time>
      </trkpt>
      <trkpt lat="48.57704" lon="-3.77995">
        <ele>113.1</ele>
        <time>2020-06-10T13:52:28Z</time>
      </trkpt>
      <trkpt lat="48.57703" lon="-3.77985">
        <ele>113.2</ele>
        <time>2020-06-10T13:52:29Z</time>
      </trkpt>
      <trkpt lat="48.57703" lon="-3.77976">
        <ele>113.2</ele>
        <time>2020-06-10T13:52:30Z</time>
      </trkpt>
      <trkpt lat="48.57703" lon="-3.77968">
        <ele>113.2</ele>
        <time>2020-06-10T13:52:31Z</time>
      </trkpt>
      <trkpt lat="48.57702" lon="-3.7796">
        <ele>113.3</ele>
        <time>2020-06-10T13:52:32Z</time>
      </trkpt>
      <trkpt lat="48.57701" lon="-3.77953">
        <ele>113.3</ele>
        <time>2020-06-10T13:52:33Z</time>
      </trkpt>
      <trkpt lat="48.577" lon="-3.77944">
        <ele>113.3</ele>
        <time>2020-06-10T13:52:34Z</time>
      </trkpt>
      <trkpt lat="48.57699" lon="-3.77937">
        <ele>113.3</ele>
        <time>2020-06-10T13:52:35Z</time>
      </trkpt>
      <trkpt lat="48.57698" lon="-3.77929">
        <ele>113.4</ele>
        <time>2020-06-10T13:52:36Z</time>
      </trkpt>
      <trkpt lat="48.57697" lon="-3.7792">
        <ele>113.4</ele>
        <time>2020-06-10T13:52:37Z</time>
      </trkpt>
      <trkpt lat="48.57696" lon="-3.7791">
        <ele>113.4</ele>
        <time>2020-06-10T13:52:38Z</time>
      </trkpt>
      <trkpt lat="48.57695" lon="-3.77899">
        <ele>113.5</ele>
        <time>2020-06-10T13:52:39Z</time>
      </trkpt>
      <trkpt lat="48.57694" lon="-3.77891">
        <ele>113.5</ele>
        <time>2020-06-10T13:52:40Z</time>
      </trkpt>
      <trkpt lat="48.57693" lon="-3.77882">
        <ele>113.5</ele>
        <time>2020-06-10T13:52:41Z</time>
      </trkpt>
      <trkpt lat="48.57693" lon="-3.77874">
        <ele>113.5</ele>
        <time>2020-06-10T13:52:42Z</time>
      </trkpt>
      <trkpt lat="48.57692" lon="-3.77864">
        <ele>113.5</ele>
        <time>2020-06-10T13:52:43Z</time>
      </trkpt>
      <trkpt lat="48.57692" lon="-3.77854">
        <ele>113.6</ele>
        <time>2020-06-10T13:52:44Z</time>
      </trkpt>
      <trkpt lat="48.57691" lon="-3.77843">
        <ele>113.7</ele>
        <time>2020-06-10T13:52:45Z</time>
      </trkpt>
      <trkpt lat="48.5769" lon="-3.77834">
        <ele>113.7</ele>
        <time>2020-06-10T13:52:46Z</time>
      </trkpt>
      <trkpt lat="48.57689" lon="-3.77826">
        <ele>113.8</ele>
        <time>2020-06-10T13:52:47Z</time>
      </trkpt>
      <trkpt lat="48.57688" lon="-3.77817">
        <ele>113.9</ele>
        <time>2020-06-10T13:52:48Z</time>
      </trkpt>
      <trkpt lat="48.57687" lon="-3.77807">
        <ele>113.9</ele>
        <time>2020-06-10T13:52:49Z</time>
      </trkpt>
      <trkpt lat="48.57686" lon="-3.77798">
        <ele>114</ele>
        <time>2020-06-10T13:52:50Z</time>
      </trkpt>
      <trkpt lat="48.57685" lon="-3.77789">
        <ele>114</ele>
        <time>2020-06-10T13:52:51Z</time>
      </trkpt>
      <trkpt lat="48.57684" lon="-3.77782">
        <ele>114.1</ele>
        <time>2020-06-10T13:52:52Z</time>
      </trkpt>
      <trkpt lat="48.57684" lon="-3.77774">
        <ele>114.1</ele>
        <time>2020-06-10T13:52:53Z</time>
      </trkpt>
      <trkpt lat="48.57683" lon="-3.77765">
        <ele>114.1</ele>
        <time>2020-06-10T13:52:54Z</time>
      </trkpt>
      <trkpt lat="48.57682" lon="-3.77757">
        <ele>114.2</ele>
        <time>2020-06-10T13:52:55Z</time>
      </trkpt>
      <trkpt lat="48.57682" lon="-3.77749">
        <ele>114.2</ele>
        <time>2020-06-10T13:52:56Z</time>
      </trkpt>
      <trkpt lat="48.57681" lon="-3.77741">
        <ele>114.3</ele>
        <time>2020-06-10T13:52:57Z</time>
      </trkpt>
      <trkpt lat="48.57679" lon="-3.77732">
        <ele>114.4</ele>
        <time>2020-06-10T13:52:58Z</time>
      </trkpt>
      <trkpt lat="48.57678" lon="-3.77724">
        <ele>114.4</ele>
        <time>2020-06-10T13:52:59Z</time>
      </trkpt>
      <trkpt lat="48.57677" lon="-3.77716">
        <ele>114.5</ele>
        <time>2020-06-10T13:53:00Z</time>
      </trkpt>
      <trkpt lat="48.57676" lon="-3.77708">
        <ele>114.5</ele>
        <time>2020-06-10T13:53:01Z</time>
      </trkpt>
      <trkpt lat="48.57675" lon="-3.77699">
        <ele>114.6</ele>
        <time>2020-06-10T13:53:02Z</time>
      </trkpt>
      <trkpt lat="48.57675" lon="-3.7769">
        <ele>114.7</ele>
        <time>2020-06-10T13:53:03Z</time>
      </trkpt>
      <trkpt lat="48.57675" lon="-3.77682">
        <ele>114.7</ele>
        <time>2020-06-10T13:53:04Z</time>
      </trkpt>
      <trkpt lat="48.57674" lon="-3.77673">
        <ele>114.7</ele>
        <time>2020-06-10T13:53:05Z</time>
      </trkpt>
      <trkpt lat="48.57673" lon="-3.77665">
        <ele>114.8</ele>
        <time>2020-06-10T13:53:06Z</time>
      </trkpt>
      <trkpt lat="48.57672" lon="-3.77656">
        <ele>114.8</ele>
        <time>2020-06-10T13:53:07Z</time>
      </trkpt>
      <trkpt lat="48.5767" lon="-3.77647">
        <ele>114.8</ele>
        <time>2020-06-10T13:53:08Z</time>
      </trkpt>
      <trkpt lat="48.57669" lon="-3.77639">
        <ele>114.8</ele>
        <time>2020-06-10T13:53:09Z</time>
      </trkpt>
      <trkpt lat="48.57668" lon="-3.7763">
        <ele>114.8</ele>
        <time>2020-06-10T13:53:10Z</time>
      </trkpt>
      <trkpt lat="48.57668" lon="-3.77625">
        <ele>114.8</ele>
        <time>2020-06-10T13:53:11Z</time>
      </trkpt>
      <trkpt lat="48.57667" lon="-3.77615">
        <ele>114.8</ele>
        <time>2020-06-10T13:53:12Z</time>
      </trkpt>
      <trkpt lat="48.57666" lon="-3.77607">
        <ele>114.8</ele>
        <time>2020-06-10T13:53:13Z</time>
      </trkpt>
      <trkpt lat="48.57666" lon="-3.77596">
        <ele>114.8</ele>
        <time>2020-06-10T13:53:14Z</time>
      </trkpt>
      <trkpt lat="48.57664" lon="-3.77588">
        <ele>114.8</ele>
        <time>2020-06-10T13:53:15Z</time>
      </trkpt>
      <trkpt lat="48.57663" lon="-3.77577">
        <ele>114.8</ele>
        <time>2020-06-10T13:53:16Z</time>
      </trkpt>
      <trkpt lat="48.57662" lon="-3.77567">
        <ele>114.7</ele>
        <time>2020-06-10T13:53:17Z</time>
      </trkpt>
      <trkpt lat="48.57662" lon="-3.77557">
        <ele>114.7</ele>
        <time>2020-06-10T13:53:18Z</time>
      </trkpt>
      <trkpt lat="48.57661" lon="-3.77549">
        <ele>114.6</ele>
        <time>2020-06-10T13:53:19Z</time>
      </trkpt>
      <trkpt lat="48.5766" lon="-3.7754">
        <ele>114.6</ele>
        <time>2020-06-10T13:53:20Z</time>
      </trkpt>
      <trkpt lat="48.57658" lon="-3.7753">
        <ele>114.5</ele>
        <time>2020-06-10T13:53:21Z</time>
      </trkpt>
      <trkpt lat="48.57657" lon="-3.7752">
        <ele>114.4</ele>
        <time>2020-06-10T13:53:22Z</time>
      </trkpt>
      <trkpt lat="48.57657" lon="-3.77511">
        <ele>114.3</ele>
        <time>2020-06-10T13:53:23Z</time>
      </trkpt>
      <trkpt lat="48.57656" lon="-3.77501">
        <ele>114.2</ele>
        <time>2020-06-10T13:53:24Z</time>
      </trkpt>
      <trkpt lat="48.57655" lon="-3.77492">
        <ele>114.1</ele>
        <time>2020-06-10T13:53:25Z</time>
      </trkpt>
      <trkpt lat="48.57655" lon="-3.77482">
        <ele>114</ele>
        <time>2020-06-10T13:53:26Z</time>
      </trkpt>
      <trkpt lat="48.57654" lon="-3.77472">
        <ele>113.9</ele>
        <time>2020-06-10T13:53:27Z</time>
      </trkpt>
      <trkpt lat="48.57653" lon="-3.77461">
        <ele>113.8</ele>
        <time>2020-06-10T13:53:28Z</time>
      </trkpt>
      <trkpt lat="48.57652" lon="-3.77451">
        <ele>113.7</ele>
        <time>2020-06-10T13:53:29Z</time>
      </trkpt>
      <trkpt lat="48.57651" lon="-3.7744">
        <ele>113.6</ele>
        <time>2020-06-10T13:53:30Z</time>
      </trkpt>
      <trkpt lat="48.5765" lon="-3.7743">
        <ele>113.5</ele>
        <time>2020-06-10T13:53:31Z</time>
      </trkpt>
      <trkpt lat="48.57649" lon="-3.77419">
        <ele>113.4</ele>
        <time>2020-06-10T13:53:32Z</time>
      </trkpt>
      <trkpt lat="48.57649" lon="-3.7741">
        <ele>113.3</ele>
        <time>2020-06-10T13:53:33Z</time>
      </trkpt>
      <trkpt lat="48.57648" lon="-3.774">
        <ele>113.2</ele>
        <time>2020-06-10T13:53:34Z</time>
      </trkpt>
      <trkpt lat="48.57647" lon="-3.77389">
        <ele>113.1</ele>
        <time>2020-06-10T13:53:35Z</time>
      </trkpt>
      <trkpt lat="48.57645" lon="-3.77379">
        <ele>113</ele>
        <time>2020-06-10T13:53:36Z</time>
      </trkpt>
      <trkpt lat="48.57644" lon="-3.77368">
        <ele>112.9</ele>
        <time>2020-06-10T13:53:37Z</time>
      </trkpt>
      <trkpt lat="48.57643" lon="-3.77357">
        <ele>112.8</ele>
        <time>2020-06-10T13:53:38Z</time>
      </trkpt>
      <trkpt lat="48.57642" lon="-3.77346">
        <ele>112.6</ele>
        <time>2020-06-10T13:53:39Z</time>
      </trkpt>
      <trkpt lat="48.57641" lon="-3.77336">
        <ele>112.5</ele>
        <time>2020-06-10T13:53:40Z</time>
      </trkpt>
      <trkpt lat="48.5764" lon="-3.77325">
        <ele>112.3</ele>
        <time>2020-06-10T13:53:41Z</time>
      </trkpt>
      <trkpt lat="48.57639" lon="-3.77314">
        <ele>112.2</ele>
        <time>2020-06-10T13:53:42Z</time>
      </trkpt>
      <trkpt lat="48.57638" lon="-3.77303">
        <ele>112</ele>
        <time>2020-06-10T13:53:43Z</time>
      </trkpt>
      <trkpt lat="48.57637" lon="-3.77292">
        <ele>111.8</ele>
        <time>2020-06-10T13:53:44Z</time>
      </trkpt>
      <trkpt lat="48.57636" lon="-3.77281">
        <ele>111.6</ele>
        <time>2020-06-10T13:53:45Z</time>
      </trkpt>
      <trkpt lat="48.57634" lon="-3.7727">
        <ele>111.5</ele>
        <time>2020-06-10T13:53:46Z</time>
      </trkpt>
      <trkpt lat="48.57633" lon="-3.77259">
        <ele>111.3</ele>
        <time>2020-06-10T13:53:47Z</time>
      </trkpt>
      <trkpt lat="48.57632" lon="-3.77248">
        <ele>111.1</ele>
        <time>2020-06-10T13:53:48Z</time>
      </trkpt>
      <trkpt lat="48.57631" lon="-3.77236">
        <ele>110.8</ele>
        <time>2020-06-10T13:53:49Z</time>
      </trkpt>
      <trkpt lat="48.5763" lon="-3.77225">
        <ele>110.5</ele>
        <time>2020-06-10T13:53:50Z</time>
      </trkpt>
      <trkpt lat="48.57629" lon="-3.77213">
        <ele>110.2</ele>
        <time>2020-06-10T13:53:51Z</time>
      </trkpt>
      <trkpt lat="48.57628" lon="-3.77201">
        <ele>109.9</ele>
        <time>2020-06-10T13:53:52Z</time>
      </trkpt>
      <trkpt lat="48.57627" lon="-3.77189">
        <ele>109.5</ele>
        <time>2020-06-10T13:53:53Z</time>
      </trkpt>
      <trkpt lat="48.57625" lon="-3.77177">
        <ele>109</ele>
        <time>2020-06-10T13:53:54Z</time>
      </trkpt>
      <trkpt lat="48.57624" lon="-3.77164">
        <ele>108.5</ele>
        <time>2020-06-10T13:53:55Z</time>
      </trkpt>
      <trkpt lat="48.57623" lon="-3.77151">
        <ele>108.1</ele>
        <time>2020-06-10T13:53:56Z</time>
      </trkpt>
      <trkpt lat="48.57622" lon="-3.77138">
        <ele>107.7</ele>
        <time>2020-06-10T13:53:57Z</time>
      </trkpt>
      <trkpt lat="48.57621" lon="-3.77125">
        <ele>107.3</ele>
        <time>2020-06-10T13:53:58Z</time>
      </trkpt>
      <trkpt lat="48.57619" lon="-3.77112">
        <ele>107</ele>
        <time>2020-06-10T13:53:59Z</time>
      </trkpt>
      <trkpt lat="48.57618" lon="-3.77099">
        <ele>106.7</ele>
        <time>2020-06-10T13:54:00Z</time>
      </trkpt>
      <trkpt lat="48.57616" lon="-3.77085">
        <ele>106.6</ele>
        <time>2020-06-10T13:54:01Z</time>
      </trkpt>
      <trkpt lat="48.57614" lon="-3.77072">
        <ele>106.5</ele>
        <time>2020-06-10T13:54:02Z</time>
      </trkpt>
      <trkpt lat="48.57613" lon="-3.77058">
        <ele>106.4</ele>
        <time>2020-06-10T13:54:03Z</time>
      </trkpt>
      <trkpt lat="48.57612" lon="-3.77045">
        <ele>106.4</ele>
        <time>2020-06-10T13:54:04Z</time>
      </trkpt>
      <trkpt lat="48.5761" lon="-3.77032">
        <ele>106.5</ele>
        <time>2020-06-10T13:54:05Z</time>
      </trkpt>
      <trkpt lat="48.57609" lon="-3.7702">
        <ele>106.7</ele>
        <time>2020-06-10T13:54:06Z</time>
      </trkpt>
      <trkpt lat="48.57607" lon="-3.77007">
        <ele>106.9</ele>
        <time>2020-06-10T13:54:07Z</time>
      </trkpt>
      <trkpt lat="48.57606" lon="-3.76995">
        <ele>107.2</ele>
        <time>2020-06-10T13:54:08Z</time>
      </trkpt>
      <trkpt lat="48.57606" lon="-3.76984">
        <ele>107.5</ele>
        <time>2020-06-10T13:54:09Z</time>
      </trkpt>
      <trkpt lat="48.57605" lon="-3.76972">
        <ele>107.9</ele>
        <time>2020-06-10T13:54:10Z</time>
      </trkpt>
      <trkpt lat="48.57604" lon="-3.76961">
        <ele>108.3</ele>
        <time>2020-06-10T13:54:11Z</time>
      </trkpt>
      <trkpt lat="48.57603" lon="-3.76951">
        <ele>108.8</ele>
        <time>2020-06-10T13:54:12Z</time>
      </trkpt>
      <trkpt lat="48.57602" lon="-3.76941">
        <ele>109.3</ele>
        <time>2020-06-10T13:54:13Z</time>
      </trkpt>
      <trkpt lat="48.57601" lon="-3.76932">
        <ele>109.7</ele>
        <time>2020-06-10T13:54:14Z</time>
      </trkpt>
      <trkpt lat="48.576" lon="-3.76922">
        <ele>110.2</ele>
        <time>2020-06-10T13:54:15Z</time>
      </trkpt>
      <trkpt lat="48.57599" lon="-3.76913">
        <ele>110.6</ele>
        <time>2020-06-10T13:54:16Z</time>
      </trkpt>
      <trkpt lat="48.57599" lon="-3.76905">
        <ele>110.9</ele>
        <time>2020-06-10T13:54:17Z</time>
      </trkpt>
      <trkpt lat="48.57597" lon="-3.76897">
        <ele>111.2</ele>
        <time>2020-06-10T13:54:18Z</time>
      </trkpt>
      <trkpt lat="48.57596" lon="-3.76889">
        <ele>111.5</ele>
        <time>2020-06-10T13:54:19Z</time>
      </trkpt>
      <trkpt lat="48.57595" lon="-3.76882">
        <ele>111.8</ele>
        <time>2020-06-10T13:54:20Z</time>
      </trkpt>
      <trkpt lat="48.57595" lon="-3.76875">
        <ele>112.1</ele>
        <time>2020-06-10T13:54:21Z</time>
      </trkpt>
      <trkpt lat="48.57594" lon="-3.76868">
        <ele>112.4</ele>
        <time>2020-06-10T13:54:22Z</time>
      </trkpt>
      <trkpt lat="48.57594" lon="-3.76862">
        <ele>112.6</ele>
        <time>2020-06-10T13:54:23Z</time>
      </trkpt>
      <trkpt lat="48.57592" lon="-3.76856">
        <ele>112.9</ele>
        <time>2020-06-10T13:54:24Z</time>
      </trkpt>
      <trkpt lat="48.57592" lon="-3.76849">
        <ele>113.1</ele>
        <time>2020-06-10T13:54:25Z</time>
      </trkpt>
      <trkpt lat="48.57591" lon="-3.76842">
        <ele>113.4</ele>
        <time>2020-06-10T13:54:26Z</time>
      </trkpt>
      <trkpt lat="48.57591" lon="-3.76835">
        <ele>113.6</ele>
        <time>2020-06-10T13:54:27Z</time>
      </trkpt>
      <trkpt lat="48.5759" lon="-3.76828">
        <ele>113.9</ele>
        <time>2020-06-10T13:54:28Z</time>
      </trkpt>
      <trkpt lat="48.57589" lon="-3.76821">
        <ele>114.1</ele>
        <time>2020-06-10T13:54:29Z</time>
      </trkpt>
      <trkpt lat="48.57588" lon="-3.76814">
        <ele>114.4</ele>
        <time>2020-06-10T13:54:30Z</time>
      </trkpt>
      <trkpt lat="48.57588" lon="-3.76807">
        <ele>114.6</ele>
        <time>2020-06-10T13:54:31Z</time>
      </trkpt>
      <trkpt lat="48.57586" lon="-3.76801">
        <ele>114.8</ele>
        <time>2020-06-10T13:54:32Z</time>
      </trkpt>
      <trkpt lat="48.57586" lon="-3.76794">
        <ele>115.1</ele>
        <time>2020-06-10T13:54:33Z</time>
      </trkpt>
      <trkpt lat="48.57585" lon="-3.76787">
        <ele>115.3</ele>
        <time>2020-06-10T13:54:34Z</time>
      </trkpt>
      <trkpt lat="48.57584" lon="-3.7678">
        <ele>115.5</ele>
        <time>2020-06-10T13:54:35Z</time>
      </trkpt>
      <trkpt lat="48.57583" lon="-3.76773">
        <ele>115.7</ele>
        <time>2020-06-10T13:54:36Z</time>
      </trkpt>
      <trkpt lat="48.57582" lon="-3.76766">
        <ele>115.8</ele>
        <time>2020-06-10T13:54:37Z</time>
      </trkpt>
      <trkpt lat="48.57581" lon="-3.76762">
        <ele>115.8</ele>
        <time>2020-06-10T13:54:38Z</time>
      </trkpt>
      <trkpt lat="48.57578" lon="-3.76758">
        <ele>115.9</ele>
        <time>2020-06-10T13:54:39Z</time>
      </trkpt>
      <trkpt lat="48.57577" lon="-3.76755">
        <ele>116.1</ele>
        <time>2020-06-10T13:54:40Z</time>
      </trkpt>
      <trkpt lat="48.57576" lon="-3.76749">
        <ele>116.2</ele>
        <time>2020-06-10T13:54:41Z</time>
      </trkpt>
      <trkpt lat="48.57577" lon="-3.76744">
        <ele>116.4</ele>
        <time>2020-06-10T13:54:42Z</time>
      </trkpt>
      <trkpt lat="48.57576" lon="-3.76738">
        <ele>116.5</ele>
        <time>2020-06-10T13:54:43Z</time>
      </trkpt>
      <trkpt lat="48.57575" lon="-3.76734">
        <ele>116.6</ele>
        <time>2020-06-10T13:54:44Z</time>
      </trkpt>
      <trkpt lat="48.57574" lon="-3.76729">
        <ele>116.8</ele>
        <time>2020-06-10T13:54:45Z</time>
      </trkpt>
      <trkpt lat="48.57573" lon="-3.76723">
        <ele>116.9</ele>
        <time>2020-06-10T13:54:46Z</time>
      </trkpt>
      <trkpt lat="48.57572" lon="-3.76716">
        <ele>117.1</ele>
        <time>2020-06-10T13:54:47Z</time>
      </trkpt>
      <trkpt lat="48.57571" lon="-3.7671">
        <ele>117.2</ele>
        <time>2020-06-10T13:54:48Z</time>
      </trkpt>
      <trkpt lat="48.57571" lon="-3.76704">
        <ele>117.3</ele>
        <time>2020-06-10T13:54:49Z</time>
      </trkpt>
      <trkpt lat="48.57571" lon="-3.767">
        <ele>117.4</ele>
        <time>2020-06-10T13:54:50Z</time>
      </trkpt>
      <trkpt lat="48.5757" lon="-3.76692">
        <ele>117.5</ele>
        <time>2020-06-10T13:54:51Z</time>
      </trkpt>
      <trkpt lat="48.5757" lon="-3.76688">
        <ele>117.6</ele>
        <time>2020-06-10T13:54:52Z</time>
      </trkpt>
      <trkpt lat="48.5757" lon="-3.76681">
        <ele>117.7</ele>
        <time>2020-06-10T13:54:53Z</time>
      </trkpt>
      <trkpt lat="48.5757" lon="-3.76679">
        <ele>117.7</ele>
        <time>2020-06-10T13:54:54Z</time>
      </trkpt>
      <trkpt lat="48.5757" lon="-3.7667">
        <ele>117.8</ele>
        <time>2020-06-10T13:54:55Z</time>
      </trkpt>
      <trkpt lat="48.57569" lon="-3.76663">
        <ele>117.9</ele>
        <time>2020-06-10T13:54:56Z</time>
      </trkpt>
      <trkpt lat="48.57569" lon="-3.76658">
        <ele>118</ele>
        <time>2020-06-10T13:54:57Z</time>
      </trkpt>
      <trkpt lat="48.57569" lon="-3.76652">
        <ele>118</ele>
        <time>2020-06-10T13:54:58Z</time>
      </trkpt>
      <trkpt lat="48.57568" lon="-3.76645">
        <ele>118.1</ele>
        <time>2020-06-10T13:54:59Z</time>
      </trkpt>
      <trkpt lat="48.57567" lon="-3.76636">
        <ele>118.2</ele>
        <time>2020-06-10T13:55:00Z</time>
      </trkpt>
      <trkpt lat="48.57566" lon="-3.76631">
        <ele>118.3</ele>
        <time>2020-06-10T13:55:01Z</time>
      </trkpt>
      <trkpt lat="48.57565" lon="-3.76627">
        <ele>118.3</ele>
        <time>2020-06-10T13:55:02Z</time>
      </trkpt>
      <trkpt lat="48.57565" lon="-3.76623">
        <ele>118.4</ele>
        <time>2020-06-10T13:55:03Z</time>
      </trkpt>
      <trkpt lat="48.57565" lon="-3.76623">
        <ele>118.4</ele>
        <time>2020-06-10T13:55:04Z</time>
      </trkpt>
      <trkpt lat="48.57565" lon="-3.76624">
        <ele>118.4</ele>
        <time>2020-06-10T13:55:05Z</time>
      </trkpt>
      <trkpt lat="48.57566" lon="-3.76626">
        <ele>118.4</ele>
        <time>2020-06-10T13:55:06Z</time>
      </trkpt>
      <trkpt lat="48.57567" lon="-3.76627">
        <ele>118.4</ele>
        <time>2020-06-10T13:55:07Z</time>
      </trkpt>
      <trkpt lat="48.57567" lon="-3.76627">
        <ele>118.4</ele>
        <time>2020-06-10T13:55:08Z</time>
      </trkpt>
      <trkpt lat="48.57567" lon="-3.76626">
        <ele>118.4</ele>
        <time>2020-06-10T13:55:09Z</time>
      </trkpt>
      <trkpt lat="48.57567" lon="-3.76625">
        <ele>118.4</ele>
        <time>2020-06-10T13:55:10Z</time>
      </trkpt>
      <trkpt lat="48.57567" lon="-3.76625">
        <ele>118.5</ele>
        <time>2020-06-10T13:55:11Z</time>
      </trkpt>
      <trkpt lat="48.57567" lon="-3.76624">
        <ele>118.5</ele>
        <time>2020-06-10T13:55:12Z</time>
      </trkpt>
      <trkpt lat="48.57567" lon="-3.76623">
        <ele>118.5</ele>
        <time>2020-06-10T13:55:13Z</time>
      </trkpt>
      <trkpt lat="48.57567" lon="-3.76622">
        <ele>118.5</ele>
        <time>2020-06-10T13:55:14Z</time>
      </trkpt>
      <trkpt lat="48.57567" lon="-3.76622">
        <ele>118.5</ele>
        <time>2020-06-10T13:55:15Z</time>
      </trkpt>
      <trkpt lat="48.57567" lon="-3.76621">
        <ele>118.5</ele>
        <time>2020-06-10T13:55:16Z</time>
      </trkpt>
      <trkpt lat="48.57566" lon="-3.7662">
        <ele>118.5</ele>
        <time>2020-06-10T13:55:17Z</time>
      </trkpt>
      <trkpt lat="48.57566" lon="-3.76619">
        <ele>118.5</ele>
        <time>2020-06-10T13:55:18Z</time>
      </trkpt>
      <trkpt lat="48.57566" lon="-3.76618">
        <ele>118.5</ele>
        <time>2020-06-10T13:55:19Z</time>
      </trkpt>
      <trkpt lat="48.57566" lon="-3.76618">
        <ele>118.5</ele>
        <time>2020-06-10T13:55:20Z</time>
      </trkpt>
      <trkpt lat="48.57566" lon="-3.76617">
        <ele>118.5</ele>
        <time>2020-06-10T13:55:21Z</time>
      </trkpt>
      <trkpt lat="48.57566" lon="-3.76616">
        <ele>118.5</ele>
        <time>2020-06-10T13:55:22Z</time>
      </trkpt>
      <trkpt lat="48.57566" lon="-3.76615">
        <ele>118.6</ele>
        <time>2020-06-10T13:55:23Z</time>
      </trkpt>
      <trkpt lat="48.57566" lon="-3.76614">
        <ele>118.6</ele>
        <time>2020-06-10T13:57:44Z</time>
      </trkpt>
      <trkpt lat="48.57566" lon="-3.76614">
        <ele>118.6</ele>
        <time>2020-06-10T13:57:45Z</time>
      </trkpt>
      <trkpt lat="48.57565" lon="-3.76609">
        <ele>118.6</ele>
        <time>2020-06-10T13:57:46Z</time>
      </trkpt>
      <trkpt lat="48.57565" lon="-3.76607">
        <ele>118.6</ele>
        <time>2020-06-10T13:57:47Z</time>
      </trkpt>
      <trkpt lat="48.57564" lon="-3.76603">
        <ele>118.7</ele>
        <time>2020-06-10T13:57:48Z</time>
      </trkpt>
      <trkpt lat="48.57563" lon="-3.76602">
        <ele>118.7</ele>
        <time>2020-06-10T13:57:49Z</time>
      </trkpt>
      <trkpt lat="48.57563" lon="-3.76596">
        <ele>118.7</ele>
        <time>2020-06-10T13:57:50Z</time>
      </trkpt>
      <trkpt lat="48.57563" lon="-3.76595">
        <ele>118.8</ele>
        <time>2020-06-10T13:57:51Z</time>
      </trkpt>
      <trkpt lat="48.57562" lon="-3.7659">
        <ele>118.8</ele>
        <time>2020-06-10T13:57:52Z</time>
      </trkpt>
      <trkpt lat="48.57562" lon="-3.76589">
        <ele>118.8</ele>
        <time>2020-06-10T13:57:53Z</time>
      </trkpt>
      <trkpt lat="48.57561" lon="-3.76583">
        <ele>118.9</ele>
        <time>2020-06-10T13:57:54Z</time>
      </trkpt>
      <trkpt lat="48.5756" lon="-3.76582">
        <ele>118.9</ele>
        <time>2020-06-10T13:57:55Z</time>
      </trkpt>
      <trkpt lat="48.5756" lon="-3.76578">
        <ele>118.9</ele>
        <time>2020-06-10T13:57:56Z</time>
      </trkpt>
      <trkpt lat="48.57559" lon="-3.76573">
        <ele>118.9</ele>
        <time>2020-06-10T13:57:57Z</time>
      </trkpt>
      <trkpt lat="48.57559" lon="-3.76569">
        <ele>118.9</ele>
        <time>2020-06-10T13:57:58Z</time>
      </trkpt>
      <trkpt lat="48.57558" lon="-3.76564">
        <ele>119</ele>
        <time>2020-06-10T13:57:59Z</time>
      </trkpt>
      <trkpt lat="48.57557" lon="-3.76558">
        <ele>119</ele>
        <time>2020-06-10T13:58:00Z</time>
      </trkpt>
      <trkpt lat="48.57557" lon="-3.76553">
        <ele>119</ele>
        <time>2020-06-10T13:58:01Z</time>
      </trkpt>
      <trkpt lat="48.57557" lon="-3.76548">
        <ele>119</ele>
        <time>2020-06-10T13:58:02Z</time>
      </trkpt>
      <trkpt lat="48.57556" lon="-3.76542">
        <ele>119.1</ele>
        <time>2020-06-10T13:58:03Z</time>
      </trkpt>
      <trkpt lat="48.57556" lon="-3.7654">
        <ele>119.1</ele>
        <time>2020-06-10T13:58:04Z</time>
      </trkpt>
      <trkpt lat="48.57556" lon="-3.76535">
        <ele>119.1</ele>
        <time>2020-06-10T13:58:05Z</time>
      </trkpt>
      <trkpt lat="48.57556" lon="-3.7653">
        <ele>119.1</ele>
        <time>2020-06-10T13:58:06Z</time>
      </trkpt>
      <trkpt lat="48.57556" lon="-3.76526">
        <ele>119.2</ele>
        <time>2020-06-10T13:58:07Z</time>
      </trkpt>
      <trkpt lat="48.57555" lon="-3.7652">
        <ele>119.2</ele>
        <time>2020-06-10T13:58:08Z</time>
      </trkpt>
      <trkpt lat="48.57554" lon="-3.76514">
        <ele>119.2</ele>
        <time>2020-06-10T13:58:09Z</time>
      </trkpt>
      <trkpt lat="48.57555" lon="-3.76509">
        <ele>119.3</ele>
        <time>2020-06-10T13:58:10Z</time>
      </trkpt>
      <trkpt lat="48.57554" lon="-3.76505">
        <ele>119.3</ele>
        <time>2020-06-10T13:58:11Z</time>
      </trkpt>
      <trkpt lat="48.57554" lon="-3.765">
        <ele>119.3</ele>
        <time>2020-06-10T13:58:12Z</time>
      </trkpt>
      <trkpt lat="48.57553" lon="-3.76496">
        <ele>119.3</ele>
        <time>2020-06-10T13:58:13Z</time>
      </trkpt>
      <trkpt lat="48.57553" lon="-3.76491">
        <ele>119.3</ele>
        <time>2020-06-10T13:58:14Z</time>
      </trkpt>
      <trkpt lat="48.57554" lon="-3.76486">
        <ele>119.3</ele>
        <time>2020-06-10T13:58:15Z</time>
      </trkpt>
      <trkpt lat="48.57553" lon="-3.76482">
        <ele>119.4</ele>
        <time>2020-06-10T13:58:16Z</time>
      </trkpt>
      <trkpt lat="48.57553" lon="-3.76477">
        <ele>119.5</ele>
        <time>2020-06-10T13:58:17Z</time>
      </trkpt>
      <trkpt lat="48.57553" lon="-3.76473">
        <ele>119.6</ele>
        <time>2020-06-10T13:58:18Z</time>
      </trkpt>
      <trkpt lat="48.57553" lon="-3.76467">
        <ele>119.8</ele>
        <time>2020-06-10T13:58:19Z</time>
      </trkpt>
      <trkpt lat="48.57552" lon="-3.76466">
        <ele>119.8</ele>
        <time>2020-06-10T13:58:20Z</time>
      </trkpt>
      <trkpt lat="48.57551" lon="-3.76461">
        <ele>119.9</ele>
        <time>2020-06-10T13:58:21Z</time>
      </trkpt>
      <trkpt lat="48.5755" lon="-3.76459">
        <ele>119.9</ele>
        <time>2020-06-10T13:58:22Z</time>
      </trkpt>
      <trkpt lat="48.57549" lon="-3.76454">
        <ele>120</ele>
        <time>2020-06-10T13:58:23Z</time>
      </trkpt>
      <trkpt lat="48.57549" lon="-3.76453">
        <ele>120</ele>
        <time>2020-06-10T13:58:24Z</time>
      </trkpt>
      <trkpt lat="48.57547" lon="-3.76449">
        <ele>120</ele>
        <time>2020-06-10T13:58:25Z</time>
      </trkpt>
      <trkpt lat="48.57547" lon="-3.76447">
        <ele>120.1</ele>
        <time>2020-06-10T13:58:26Z</time>
      </trkpt>
      <trkpt lat="48.57546" lon="-3.76442">
        <ele>120.1</ele>
        <time>2020-06-10T13:58:27Z</time>
      </trkpt>
      <trkpt lat="48.57545" lon="-3.76437">
        <ele>120.2</ele>
        <time>2020-06-10T13:58:28Z</time>
      </trkpt>
      <trkpt lat="48.57546" lon="-3.7643">
        <ele>120.2</ele>
        <time>2020-06-10T13:58:29Z</time>
      </trkpt>
      <trkpt lat="48.57546" lon="-3.76423">
        <ele>120.3</ele>
        <time>2020-06-10T13:58:30Z</time>
      </trkpt>
      <trkpt lat="48.57546" lon="-3.76416">
        <ele>120.3</ele>
        <time>2020-06-10T13:58:31Z</time>
      </trkpt>
      <trkpt lat="48.57545" lon="-3.7641">
        <ele>120.4</ele>
        <time>2020-06-10T13:58:32Z</time>
      </trkpt>
      <trkpt lat="48.57545" lon="-3.76404">
        <ele>120.4</ele>
        <time>2020-06-10T13:58:33Z</time>
      </trkpt>
      <trkpt lat="48.57545" lon="-3.76398">
        <ele>120.5</ele>
        <time>2020-06-10T13:58:34Z</time>
      </trkpt>
      <trkpt lat="48.57545" lon="-3.76392">
        <ele>120.5</ele>
        <time>2020-06-10T13:58:35Z</time>
      </trkpt>
      <trkpt lat="48.57545" lon="-3.76386">
        <ele>120.6</ele>
        <time>2020-06-10T13:58:36Z</time>
      </trkpt>
      <trkpt lat="48.57542" lon="-3.7638">
        <ele>120.7</ele>
        <time>2020-06-10T13:58:37Z</time>
      </trkpt>
      <trkpt lat="48.57542" lon="-3.76374">
        <ele>120.7</ele>
        <time>2020-06-10T13:58:38Z</time>
      </trkpt>
      <trkpt lat="48.57541" lon="-3.76369">
        <ele>120.7</ele>
        <time>2020-06-10T13:58:39Z</time>
      </trkpt>
      <trkpt lat="48.57541" lon="-3.76364">
        <ele>120.8</ele>
        <time>2020-06-10T13:58:40Z</time>
      </trkpt>
      <trkpt lat="48.5754" lon="-3.76359">
        <ele>120.8</ele>
        <time>2020-06-10T13:58:41Z</time>
      </trkpt>
      <trkpt lat="48.5754" lon="-3.76354">
        <ele>120.8</ele>
        <time>2020-06-10T13:58:42Z</time>
      </trkpt>
      <trkpt lat="48.5754" lon="-3.7635">
        <ele>120.8</ele>
        <time>2020-06-10T13:58:43Z</time>
      </trkpt>
      <trkpt lat="48.57538" lon="-3.76344">
        <ele>120.9</ele>
        <time>2020-06-10T13:58:44Z</time>
      </trkpt>
      <trkpt lat="48.57538" lon="-3.7634">
        <ele>120.9</ele>
        <time>2020-06-10T13:58:45Z</time>
      </trkpt>
      <trkpt lat="48.57537" lon="-3.76336">
        <ele>120.9</ele>
        <time>2020-06-10T13:58:46Z</time>
      </trkpt>
      <trkpt lat="48.57537" lon="-3.76331">
        <ele>121</ele>
        <time>2020-06-10T13:58:47Z</time>
      </trkpt>
      <trkpt lat="48.57537" lon="-3.76326">
        <ele>121</ele>
        <time>2020-06-10T13:58:48Z</time>
      </trkpt>
      <trkpt lat="48.57536" lon="-3.76321">
        <ele>121.1</ele>
        <time>2020-06-10T13:58:49Z</time>
      </trkpt>
      <trkpt lat="48.57535" lon="-3.76315">
        <ele>121.1</ele>
        <time>2020-06-10T13:58:50Z</time>
      </trkpt>
      <trkpt lat="48.57535" lon="-3.76309">
        <ele>121.1</ele>
        <time>2020-06-10T13:58:51Z</time>
      </trkpt>
      <trkpt lat="48.57535" lon="-3.76303">
        <ele>121.1</ele>
        <time>2020-06-10T13:58:52Z</time>
      </trkpt>
      <trkpt lat="48.57535" lon="-3.76297">
        <ele>121.2</ele>
        <time>2020-06-10T13:58:53Z</time>
      </trkpt>
      <trkpt lat="48.57535" lon="-3.7629">
        <ele>121.2</ele>
        <time>2020-06-10T13:58:54Z</time>
      </trkpt>
      <trkpt lat="48.57535" lon="-3.76284">
        <ele>121.3</ele>
        <time>2020-06-10T13:58:55Z</time>
      </trkpt>
      <trkpt lat="48.57535" lon="-3.76279">
        <ele>121.3</ele>
        <time>2020-06-10T13:58:56Z</time>
      </trkpt>
      <trkpt lat="48.57535" lon="-3.76273">
        <ele>121.3</ele>
        <time>2020-06-10T13:58:57Z</time>
      </trkpt>
      <trkpt lat="48.57535" lon="-3.76269">
        <ele>121.4</ele>
        <time>2020-06-10T13:58:58Z</time>
      </trkpt>
      <trkpt lat="48.57534" lon="-3.76263">
        <ele>121.4</ele>
        <time>2020-06-10T13:58:59Z</time>
      </trkpt>
      <trkpt lat="48.57532" lon="-3.76258">
        <ele>121.4</ele>
        <time>2020-06-10T13:59:00Z</time>
      </trkpt>
      <trkpt lat="48.57531" lon="-3.76251">
        <ele>121.5</ele>
        <time>2020-06-10T13:59:01Z</time>
      </trkpt>
      <trkpt lat="48.57531" lon="-3.76245">
        <ele>121.5</ele>
        <time>2020-06-10T13:59:02Z</time>
      </trkpt>
      <trkpt lat="48.5753" lon="-3.7624">
        <ele>121.5</ele>
        <time>2020-06-10T13:59:03Z</time>
      </trkpt>
      <trkpt lat="48.57529" lon="-3.76234">
        <ele>121.5</ele>
        <time>2020-06-10T13:59:04Z</time>
      </trkpt>
      <trkpt lat="48.57528" lon="-3.76228">
        <ele>121.5</ele>
        <time>2020-06-10T13:59:05Z</time>
      </trkpt>
      <trkpt lat="48.57528" lon="-3.76225">
        <ele>121.5</ele>
        <time>2020-06-10T13:59:06Z</time>
      </trkpt>
      <trkpt lat="48.57528" lon="-3.7622">
        <ele>121.5</ele>
        <time>2020-06-10T13:59:07Z</time>
      </trkpt>
      <trkpt lat="48.57527" lon="-3.76214">
        <ele>121.5</ele>
        <time>2020-06-10T13:59:08Z</time>
      </trkpt>
      <trkpt lat="48.57526" lon="-3.76208">
        <ele>121.5</ele>
        <time>2020-06-10T13:59:09Z</time>
      </trkpt>
      <trkpt lat="48.57526" lon="-3.76203">
        <ele>121.5</ele>
        <time>2020-06-10T13:59:10Z</time>
      </trkpt>
      <trkpt lat="48.57526" lon="-3.76198">
        <ele>121.6</ele>
        <time>2020-06-10T13:59:11Z</time>
      </trkpt>
      <trkpt lat="48.57526" lon="-3.76192">
        <ele>121.6</ele>
        <time>2020-06-10T13:59:12Z</time>
      </trkpt>
      <trkpt lat="48.57526" lon="-3.76185">
        <ele>121.6</ele>
        <time>2020-06-10T13:59:13Z</time>
      </trkpt>
      <trkpt lat="48.57526" lon="-3.76179">
        <ele>121.7</ele>
        <time>2020-06-10T13:59:14Z</time>
      </trkpt>
      <trkpt lat="48.57525" lon="-3.76174">
        <ele>121.7</ele>
        <time>2020-06-10T13:59:15Z</time>
      </trkpt>
      <trkpt lat="48.57525" lon="-3.76168">
        <ele>121.7</ele>
        <time>2020-06-10T13:59:16Z</time>
      </trkpt>
      <trkpt lat="48.57525" lon="-3.76162">
        <ele>121.8</ele>
        <time>2020-06-10T13:59:17Z</time>
      </trkpt>
      <trkpt lat="48.57524" lon="-3.76156">
        <ele>121.8</ele>
        <time>2020-06-10T13:59:18Z</time>
      </trkpt>
      <trkpt lat="48.57522" lon="-3.7615">
        <ele>121.8</ele>
        <time>2020-06-10T13:59:19Z</time>
      </trkpt>
      <trkpt lat="48.57522" lon="-3.76143">
        <ele>121.8</ele>
        <time>2020-06-10T13:59:20Z</time>
      </trkpt>
      <trkpt lat="48.57522" lon="-3.76137">
        <ele>121.8</ele>
        <time>2020-06-10T13:59:21Z</time>
      </trkpt>
      <trkpt lat="48.57521" lon="-3.7613">
        <ele>121.8</ele>
        <time>2020-06-10T13:59:22Z</time>
      </trkpt>
      <trkpt lat="48.57521" lon="-3.76124">
        <ele>121.8</ele>
        <time>2020-06-10T13:59:23Z</time>
      </trkpt>
      <trkpt lat="48.5752" lon="-3.76116">
        <ele>121.8</ele>
        <time>2020-06-10T13:59:24Z</time>
      </trkpt>
      <trkpt lat="48.57519" lon="-3.76109">
        <ele>121.8</ele>
        <time>2020-06-10T13:59:25Z</time>
      </trkpt>
      <trkpt lat="48.57518" lon="-3.76101">
        <ele>121.8</ele>
        <time>2020-06-10T13:59:26Z</time>
      </trkpt>
      <trkpt lat="48.57518" lon="-3.76095">
        <ele>121.8</ele>
        <time>2020-06-10T13:59:27Z</time>
      </trkpt>
      <trkpt lat="48.57518" lon="-3.76088">
        <ele>121.8</ele>
        <time>2020-06-10T13:59:28Z</time>
      </trkpt>
      <trkpt lat="48.57518" lon="-3.7608">
        <ele>121.8</ele>
        <time>2020-06-10T13:59:29Z</time>
      </trkpt>
      <trkpt lat="48.57518" lon="-3.76072">
        <ele>121.8</ele>
        <time>2020-06-10T13:59:30Z</time>
      </trkpt>
      <trkpt lat="48.57518" lon="-3.76065">
        <ele>121.7</ele>
        <time>2020-06-10T13:59:31Z</time>
      </trkpt>
      <trkpt lat="48.57518" lon="-3.76057">
        <ele>121.7</ele>
        <time>2020-06-10T13:59:32Z</time>
      </trkpt>
      <trkpt lat="48.57517" lon="-3.76049">
        <ele>121.7</ele>
        <time>2020-06-10T13:59:33Z</time>
      </trkpt>
      <trkpt lat="48.57515" lon="-3.76041">
        <ele>121.6</ele>
        <time>2020-06-10T13:59:34Z</time>
      </trkpt>
      <trkpt lat="48.57513" lon="-3.76033">
        <ele>121.6</ele>
        <time>2020-06-10T13:59:35Z</time>
      </trkpt>
      <trkpt lat="48.57512" lon="-3.76025">
        <ele>121.6</ele>
        <time>2020-06-10T13:59:36Z</time>
      </trkpt>
      <trkpt lat="48.57511" lon="-3.76017">
        <ele>121.5</ele>
        <time>2020-06-10T13:59:37Z</time>
      </trkpt>
      <trkpt lat="48.5751" lon="-3.76009">
        <ele>121.5</ele>
        <time>2020-06-10T13:59:38Z</time>
      </trkpt>
      <trkpt lat="48.57509" lon="-3.76">
        <ele>121.5</ele>
        <time>2020-06-10T13:59:39Z</time>
      </trkpt>
      <trkpt lat="48.57509" lon="-3.75992">
        <ele>121.5</ele>
        <time>2020-06-10T13:59:40Z</time>
      </trkpt>
      <trkpt lat="48.57507" lon="-3.75984">
        <ele>121.5</ele>
        <time>2020-06-10T13:59:41Z</time>
      </trkpt>
      <trkpt lat="48.57506" lon="-3.75976">
        <ele>121.5</ele>
        <time>2020-06-10T13:59:42Z</time>
      </trkpt>
      <trkpt lat="48.57505" lon="-3.75969">
        <ele>121.5</ele>
        <time>2020-06-10T13:59:43Z</time>
      </trkpt>
      <trkpt lat="48.57504" lon="-3.7596">
        <ele>121.5</ele>
        <time>2020-06-10T13:59:44Z</time>
      </trkpt>
      <trkpt lat="48.57502" lon="-3.75952">
        <ele>121.5</ele>
        <time>2020-06-10T13:59:45Z</time>
      </trkpt>
      <trkpt lat="48.57501" lon="-3.75944">
        <ele>121.4</ele>
        <time>2020-06-10T13:59:46Z</time>
      </trkpt>
      <trkpt lat="48.575" lon="-3.75935">
        <ele>121.4</ele>
        <time>2020-06-10T13:59:47Z</time>
      </trkpt>
      <trkpt lat="48.575" lon="-3.75928">
        <ele>121.4</ele>
        <time>2020-06-10T13:59:48Z</time>
      </trkpt>
      <trkpt lat="48.57499" lon="-3.75919">
        <ele>121.4</ele>
        <time>2020-06-10T13:59:49Z</time>
      </trkpt>
      <trkpt lat="48.57499" lon="-3.7591">
        <ele>121.4</ele>
        <time>2020-06-10T13:59:50Z</time>
      </trkpt>
      <trkpt lat="48.57498" lon="-3.75902">
        <ele>121.3</ele>
        <time>2020-06-10T13:59:51Z</time>
      </trkpt>
      <trkpt lat="48.57497" lon="-3.75894">
        <ele>121.3</ele>
        <time>2020-06-10T13:59:52Z</time>
      </trkpt>
      <trkpt lat="48.57496" lon="-3.75885">
        <ele>121.3</ele>
        <time>2020-06-10T13:59:53Z</time>
      </trkpt>
      <trkpt lat="48.57495" lon="-3.75876">
        <ele>121.2</ele>
        <time>2020-06-10T13:59:54Z</time>
      </trkpt>
      <trkpt lat="48.57494" lon="-3.75868">
        <ele>121.2</ele>
        <time>2020-06-10T13:59:55Z</time>
      </trkpt>
      <trkpt lat="48.57493" lon="-3.7586">
        <ele>121.2</ele>
        <time>2020-06-10T13:59:56Z</time>
      </trkpt>
      <trkpt lat="48.57491" lon="-3.75852">
        <ele>121.1</ele>
        <time>2020-06-10T13:59:57Z</time>
      </trkpt>
      <trkpt lat="48.5749" lon="-3.75842">
        <ele>121.1</ele>
        <time>2020-06-10T13:59:58Z</time>
      </trkpt>
      <trkpt lat="48.57489" lon="-3.75834">
        <ele>121.1</ele>
        <time>2020-06-10T13:59:59Z</time>
      </trkpt>
      <trkpt lat="48.57489" lon="-3.75825">
        <ele>121.1</ele>
        <time>2020-06-10T14:00:00Z</time>
      </trkpt>
      <trkpt lat="48.57488" lon="-3.75815">
        <ele>121</ele>
        <time>2020-06-10T14:00:01Z</time>
      </trkpt>
      <trkpt lat="48.57488" lon="-3.75804">
        <ele>121</ele>
        <time>2020-06-10T14:00:02Z</time>
      </trkpt>
      <trkpt lat="48.57487" lon="-3.75795">
        <ele>121</ele>
        <time>2020-06-10T14:00:03Z</time>
      </trkpt>
      <trkpt lat="48.57487" lon="-3.75786">
        <ele>121</ele>
        <time>2020-06-10T14:00:04Z</time>
      </trkpt>
      <trkpt lat="48.57486" lon="-3.75777">
        <ele>121</ele>
        <time>2020-06-10T14:00:05Z</time>
      </trkpt>
      <trkpt lat="48.57485" lon="-3.75769">
        <ele>120.9</ele>
        <time>2020-06-10T14:00:06Z</time>
      </trkpt>
      <trkpt lat="48.57483" lon="-3.7576">
        <ele>120.9</ele>
        <time>2020-06-10T14:00:07Z</time>
      </trkpt>
      <trkpt lat="48.57482" lon="-3.75751">
        <ele>120.9</ele>
        <time>2020-06-10T14:00:08Z</time>
      </trkpt>
      <trkpt lat="48.57481" lon="-3.75741">
        <ele>120.8</ele>
        <time>2020-06-10T14:00:09Z</time>
      </trkpt>
      <trkpt lat="48.5748" lon="-3.75731">
        <ele>120.8</ele>
        <time>2020-06-10T14:00:10Z</time>
      </trkpt>
      <trkpt lat="48.57479" lon="-3.75723">
        <ele>120.7</ele>
        <time>2020-06-10T14:00:11Z</time>
      </trkpt>
      <trkpt lat="48.57478" lon="-3.75714">
        <ele>120.7</ele>
        <time>2020-06-10T14:00:12Z</time>
      </trkpt>
      <trkpt lat="48.57478" lon="-3.75707">
        <ele>120.6</ele>
        <time>2020-06-10T14:00:13Z</time>
      </trkpt>
      <trkpt lat="48.57477" lon="-3.75697">
        <ele>120.6</ele>
        <time>2020-06-10T14:00:14Z</time>
      </trkpt>
      <trkpt lat="48.57477" lon="-3.75688">
        <ele>120.5</ele>
        <time>2020-06-10T14:00:15Z</time>
      </trkpt>
      <trkpt lat="48.57476" lon="-3.7568">
        <ele>120.5</ele>
        <time>2020-06-10T14:00:16Z</time>
      </trkpt>
      <trkpt lat="48.57474" lon="-3.75671">
        <ele>120.4</ele>
        <time>2020-06-10T14:00:17Z</time>
      </trkpt>
      <trkpt lat="48.57474" lon="-3.75662">
        <ele>120.3</ele>
        <time>2020-06-10T14:00:18Z</time>
      </trkpt>
      <trkpt lat="48.57473" lon="-3.75652">
        <ele>120.2</ele>
        <time>2020-06-10T14:00:19Z</time>
      </trkpt>
      <trkpt lat="48.57472" lon="-3.75641">
        <ele>120.2</ele>
        <time>2020-06-10T14:00:20Z</time>
      </trkpt>
      <trkpt lat="48.57471" lon="-3.75631">
        <ele>120.1</ele>
        <time>2020-06-10T14:00:21Z</time>
      </trkpt>
      <trkpt lat="48.5747" lon="-3.75621">
        <ele>120</ele>
        <time>2020-06-10T14:00:22Z</time>
      </trkpt>
      <trkpt lat="48.5747" lon="-3.75611">
        <ele>119.9</ele>
        <time>2020-06-10T14:00:23Z</time>
      </trkpt>
      <trkpt lat="48.5747" lon="-3.75602">
        <ele>119.8</ele>
        <time>2020-06-10T14:00:24Z</time>
      </trkpt>
      <trkpt lat="48.57469" lon="-3.75594">
        <ele>119.7</ele>
        <time>2020-06-10T14:00:25Z</time>
      </trkpt>
      <trkpt lat="48.57468" lon="-3.75586">
        <ele>119.6</ele>
        <time>2020-06-10T14:00:26Z</time>
      </trkpt>
      <trkpt lat="48.57466" lon="-3.75576">
        <ele>119.5</ele>
        <time>2020-06-10T14:00:27Z</time>
      </trkpt>
      <trkpt lat="48.57466" lon="-3.75569">
        <ele>119.3</ele>
        <time>2020-06-10T14:00:28Z</time>
      </trkpt>
      <trkpt lat="48.57465" lon="-3.7556">
        <ele>119.2</ele>
        <time>2020-06-10T14:00:29Z</time>
      </trkpt>
      <trkpt lat="48.57464" lon="-3.75549">
        <ele>119.1</ele>
        <time>2020-06-10T14:00:30Z</time>
      </trkpt>
      <trkpt lat="48.57463" lon="-3.75539">
        <ele>118.9</ele>
        <time>2020-06-10T14:00:31Z</time>
      </trkpt>
      <trkpt lat="48.57462" lon="-3.7553">
        <ele>118.8</ele>
        <time>2020-06-10T14:00:32Z</time>
      </trkpt>
      <trkpt lat="48.57461" lon="-3.75519">
        <ele>118.6</ele>
        <time>2020-06-10T14:00:33Z</time>
      </trkpt>
      <trkpt lat="48.57459" lon="-3.75508">
        <ele>118.5</ele>
        <time>2020-06-10T14:00:34Z</time>
      </trkpt>
      <trkpt lat="48.57458" lon="-3.75496">
        <ele>118.3</ele>
        <time>2020-06-10T14:00:35Z</time>
      </trkpt>
      <trkpt lat="48.57456" lon="-3.75484">
        <ele>118.2</ele>
        <time>2020-06-10T14:00:36Z</time>
      </trkpt>
      <trkpt lat="48.57455" lon="-3.75473">
        <ele>118.1</ele>
        <time>2020-06-10T14:00:37Z</time>
      </trkpt>
      <trkpt lat="48.57454" lon="-3.75462">
        <ele>118.1</ele>
        <time>2020-06-10T14:00:38Z</time>
      </trkpt>
      <trkpt lat="48.57453" lon="-3.75452">
        <ele>118.1</ele>
        <time>2020-06-10T14:00:39Z</time>
      </trkpt>
      <trkpt lat="48.57452" lon="-3.75442">
        <ele>118.1</ele>
        <time>2020-06-10T14:00:40Z</time>
      </trkpt>
      <trkpt lat="48.57451" lon="-3.75431">
        <ele>118.1</ele>
        <time>2020-06-10T14:00:41Z</time>
      </trkpt>
      <trkpt lat="48.5745" lon="-3.75422">
        <ele>118.1</ele>
        <time>2020-06-10T14:00:42Z</time>
      </trkpt>
      <trkpt lat="48.57449" lon="-3.75411">
        <ele>118.3</ele>
        <time>2020-06-10T14:00:43Z</time>
      </trkpt>
      <trkpt lat="48.57448" lon="-3.75401">
        <ele>118.4</ele>
        <time>2020-06-10T14:00:44Z</time>
      </trkpt>
      <trkpt lat="48.57448" lon="-3.75392">
        <ele>118.6</ele>
        <time>2020-06-10T14:00:45Z</time>
      </trkpt>
      <trkpt lat="48.57447" lon="-3.75382">
        <ele>118.7</ele>
        <time>2020-06-10T14:00:46Z</time>
      </trkpt>
      <trkpt lat="48.57446" lon="-3.75373">
        <ele>118.9</ele>
        <time>2020-06-10T14:00:47Z</time>
      </trkpt>
      <trkpt lat="48.57444" lon="-3.75364">
        <ele>119</ele>
        <time>2020-06-10T14:00:48Z</time>
      </trkpt>
      <trkpt lat="48.57444" lon="-3.75355">
        <ele>119.2</ele>
        <time>2020-06-10T14:00:49Z</time>
      </trkpt>
      <trkpt lat="48.57443" lon="-3.75346">
        <ele>119.4</ele>
        <time>2020-06-10T14:00:50Z</time>
      </trkpt>
      <trkpt lat="48.57442" lon="-3.75337">
        <ele>119.5</ele>
        <time>2020-06-10T14:00:51Z</time>
      </trkpt>
      <trkpt lat="48.57442" lon="-3.75329">
        <ele>119.7</ele>
        <time>2020-06-10T14:00:52Z</time>
      </trkpt>
      <trkpt lat="48.57441" lon="-3.75321">
        <ele>119.8</ele>
        <time>2020-06-10T14:00:53Z</time>
      </trkpt>
      <trkpt lat="48.5744" lon="-3.75313">
        <ele>120</ele>
        <time>2020-06-10T14:00:54Z</time>
      </trkpt>
      <trkpt lat="48.57439" lon="-3.75304">
        <ele>120.1</ele>
        <time>2020-06-10T14:00:55Z</time>
      </trkpt>
      <trkpt lat="48.57438" lon="-3.75296">
        <ele>120.3</ele>
        <time>2020-06-10T14:00:56Z</time>
      </trkpt>
      <trkpt lat="48.57437" lon="-3.75287">
        <ele>120.4</ele>
        <time>2020-06-10T14:00:57Z</time>
      </trkpt>
      <trkpt lat="48.57436" lon="-3.75279">
        <ele>120.5</ele>
        <time>2020-06-10T14:00:58Z</time>
      </trkpt>
      <trkpt lat="48.57435" lon="-3.7527">
        <ele>120.6</ele>
        <time>2020-06-10T14:00:59Z</time>
      </trkpt>
      <trkpt lat="48.57434" lon="-3.75262">
        <ele>120.7</ele>
        <time>2020-06-10T14:01:00Z</time>
      </trkpt>
      <trkpt lat="48.57433" lon="-3.75254">
        <ele>120.8</ele>
        <time>2020-06-10T14:01:01Z</time>
      </trkpt>
      <trkpt lat="48.57433" lon="-3.75246">
        <ele>120.9</ele>
        <time>2020-06-10T14:01:02Z</time>
      </trkpt>
      <trkpt lat="48.57433" lon="-3.75238">
        <ele>121</ele>
        <time>2020-06-10T14:01:03Z</time>
      </trkpt>
      <trkpt lat="48.57432" lon="-3.7523">
        <ele>121.1</ele>
        <time>2020-06-10T14:01:04Z</time>
      </trkpt>
      <trkpt lat="48.57431" lon="-3.75223">
        <ele>121.2</ele>
        <time>2020-06-10T14:01:05Z</time>
      </trkpt>
      <trkpt lat="48.5743" lon="-3.75215">
        <ele>121.3</ele>
        <time>2020-06-10T14:01:06Z</time>
      </trkpt>
      <trkpt lat="48.5743" lon="-3.75207">
        <ele>121.4</ele>
        <time>2020-06-10T14:01:07Z</time>
      </trkpt>
      <trkpt lat="48.57429" lon="-3.75199">
        <ele>121.4</ele>
        <time>2020-06-10T14:01:08Z</time>
      </trkpt>
      <trkpt lat="48.57428" lon="-3.75191">
        <ele>121.5</ele>
        <time>2020-06-10T14:01:09Z</time>
      </trkpt>
      <trkpt lat="48.57427" lon="-3.75183">
        <ele>121.5</ele>
        <time>2020-06-10T14:01:10Z</time>
      </trkpt>
      <trkpt lat="48.57427" lon="-3.75175">
        <ele>121.5</ele>
        <time>2020-06-10T14:01:11Z</time>
      </trkpt>
      <trkpt lat="48.57426" lon="-3.75167">
        <ele>121.5</ele>
        <time>2020-06-10T14:01:12Z</time>
      </trkpt>
      <trkpt lat="48.57425" lon="-3.75159">
        <ele>121.6</ele>
        <time>2020-06-10T14:01:13Z</time>
      </trkpt>
      <trkpt lat="48.57424" lon="-3.75152">
        <ele>121.6</ele>
        <time>2020-06-10T14:01:14Z</time>
      </trkpt>
      <trkpt lat="48.57423" lon="-3.75142">
        <ele>121.6</ele>
        <time>2020-06-10T14:01:15Z</time>
      </trkpt>
      <trkpt lat="48.57423" lon="-3.75134">
        <ele>121.6</ele>
        <time>2020-06-10T14:01:16Z</time>
      </trkpt>
      <trkpt lat="48.57422" lon="-3.75124">
        <ele>121.6</ele>
        <time>2020-06-10T14:01:17Z</time>
      </trkpt>
      <trkpt lat="48.57421" lon="-3.75115">
        <ele>121.6</ele>
        <time>2020-06-10T14:01:18Z</time>
      </trkpt>
      <trkpt lat="48.5742" lon="-3.75107">
        <ele>121.6</ele>
        <time>2020-06-10T14:01:19Z</time>
      </trkpt>
      <trkpt lat="48.57418" lon="-3.75098">
        <ele>121.6</ele>
        <time>2020-06-10T14:01:20Z</time>
      </trkpt>
      <trkpt lat="48.57417" lon="-3.7509">
        <ele>121.6</ele>
        <time>2020-06-10T14:01:21Z</time>
      </trkpt>
      <trkpt lat="48.57416" lon="-3.75082">
        <ele>121.6</ele>
        <time>2020-06-10T14:01:22Z</time>
      </trkpt>
      <trkpt lat="48.57416" lon="-3.75074">
        <ele>121.5</ele>
        <time>2020-06-10T14:01:23Z</time>
      </trkpt>
      <trkpt lat="48.57415" lon="-3.75067">
        <ele>121.5</ele>
        <time>2020-06-10T14:01:24Z</time>
      </trkpt>
      <trkpt lat="48.57415" lon="-3.75059">
        <ele>121.4</ele>
        <time>2020-06-10T14:01:25Z</time>
      </trkpt>
      <trkpt lat="48.57414" lon="-3.75051">
        <ele>121.3</ele>
        <time>2020-06-10T14:01:26Z</time>
      </trkpt>
      <trkpt lat="48.57413" lon="-3.75042">
        <ele>121.2</ele>
        <time>2020-06-10T14:01:27Z</time>
      </trkpt>
      <trkpt lat="48.57412" lon="-3.75034">
        <ele>121</ele>
        <time>2020-06-10T14:01:28Z</time>
      </trkpt>
      <trkpt lat="48.57411" lon="-3.75025">
        <ele>121</ele>
        <time>2020-06-10T14:01:29Z</time>
      </trkpt>
      <trkpt lat="48.5741" lon="-3.75017">
        <ele>120.9</ele>
        <time>2020-06-10T14:01:30Z</time>
      </trkpt>
      <trkpt lat="48.57409" lon="-3.75008">
        <ele>120.9</ele>
        <time>2020-06-10T14:01:31Z</time>
      </trkpt>
      <trkpt lat="48.57408" lon="-3.74999">
        <ele>120.8</ele>
        <time>2020-06-10T14:01:32Z</time>
      </trkpt>
      <trkpt lat="48.57407" lon="-3.7499">
        <ele>120.7</ele>
        <time>2020-06-10T14:01:33Z</time>
      </trkpt>
      <trkpt lat="48.57406" lon="-3.74981">
        <ele>120.7</ele>
        <time>2020-06-10T14:01:34Z</time>
      </trkpt>
      <trkpt lat="48.57405" lon="-3.7497">
        <ele>120.5</ele>
        <time>2020-06-10T14:01:35Z</time>
      </trkpt>
      <trkpt lat="48.57404" lon="-3.74961">
        <ele>120.4</ele>
        <time>2020-06-10T14:01:36Z</time>
      </trkpt>
      <trkpt lat="48.57403" lon="-3.74952">
        <ele>120.3</ele>
        <time>2020-06-10T14:01:37Z</time>
      </trkpt>
      <trkpt lat="48.57402" lon="-3.74942">
        <ele>120.2</ele>
        <time>2020-06-10T14:01:38Z</time>
      </trkpt>
      <trkpt lat="48.57401" lon="-3.74932">
        <ele>120.1</ele>
        <time>2020-06-10T14:01:39Z</time>
      </trkpt>
      <trkpt lat="48.574" lon="-3.74921">
        <ele>120</ele>
        <time>2020-06-10T14:01:40Z</time>
      </trkpt>
      <trkpt lat="48.57399" lon="-3.7491">
        <ele>119.9</ele>
        <time>2020-06-10T14:01:41Z</time>
      </trkpt>
      <trkpt lat="48.57398" lon="-3.749">
        <ele>119.8</ele>
        <time>2020-06-10T14:01:42Z</time>
      </trkpt>
      <trkpt lat="48.57397" lon="-3.7489">
        <ele>119.7</ele>
        <time>2020-06-10T14:01:43Z</time>
      </trkpt>
      <trkpt lat="48.57396" lon="-3.74879">
        <ele>119.6</ele>
        <time>2020-06-10T14:01:44Z</time>
      </trkpt>
      <trkpt lat="48.57395" lon="-3.74868">
        <ele>119.4</ele>
        <time>2020-06-10T14:01:45Z</time>
      </trkpt>
      <trkpt lat="48.57394" lon="-3.74859">
        <ele>119.3</ele>
        <time>2020-06-10T14:01:46Z</time>
      </trkpt>
      <trkpt lat="48.57393" lon="-3.74848">
        <ele>119.2</ele>
        <time>2020-06-10T14:01:47Z</time>
      </trkpt>
      <trkpt lat="48.57392" lon="-3.74837">
        <ele>119.1</ele>
        <time>2020-06-10T14:01:48Z</time>
      </trkpt>
      <trkpt lat="48.57391" lon="-3.74827">
        <ele>119.1</ele>
        <time>2020-06-10T14:01:49Z</time>
      </trkpt>
      <trkpt lat="48.57391" lon="-3.74817">
        <ele>119</ele>
        <time>2020-06-10T14:01:50Z</time>
      </trkpt>
      <trkpt lat="48.5739" lon="-3.74807">
        <ele>118.9</ele>
        <time>2020-06-10T14:01:51Z</time>
      </trkpt>
      <trkpt lat="48.57389" lon="-3.74796">
        <ele>118.8</ele>
        <time>2020-06-10T14:01:52Z</time>
      </trkpt>
      <trkpt lat="48.57388" lon="-3.74785">
        <ele>118.7</ele>
        <time>2020-06-10T14:01:53Z</time>
      </trkpt>
      <trkpt lat="48.57387" lon="-3.74774">
        <ele>118.6</ele>
        <time>2020-06-10T14:01:54Z</time>
      </trkpt>
      <trkpt lat="48.57386" lon="-3.74763">
        <ele>118.4</ele>
        <time>2020-06-10T14:01:55Z</time>
      </trkpt>
      <trkpt lat="48.57385" lon="-3.74752">
        <ele>118.3</ele>
        <time>2020-06-10T14:01:56Z</time>
      </trkpt>
      <trkpt lat="48.57384" lon="-3.74742">
        <ele>118.1</ele>
        <time>2020-06-10T14:01:57Z</time>
      </trkpt>
      <trkpt lat="48.57383" lon="-3.74731">
        <ele>118</ele>
        <time>2020-06-10T14:01:58Z</time>
      </trkpt>
      <trkpt lat="48.57382" lon="-3.7472">
        <ele>117.8</ele>
        <time>2020-06-10T14:01:59Z</time>
      </trkpt>
      <trkpt lat="48.57381" lon="-3.74709">
        <ele>117.7</ele>
        <time>2020-06-10T14:02:00Z</time>
      </trkpt>
      <trkpt lat="48.5738" lon="-3.74698">
        <ele>117.6</ele>
        <time>2020-06-10T14:02:01Z</time>
      </trkpt>
      <trkpt lat="48.57379" lon="-3.74687">
        <ele>117.4</ele>
        <time>2020-06-10T14:02:02Z</time>
      </trkpt>
      <trkpt lat="48.57377" lon="-3.74676">
        <ele>117.3</ele>
        <time>2020-06-10T14:02:03Z</time>
      </trkpt>
      <trkpt lat="48.57376" lon="-3.74665">
        <ele>117.1</ele>
        <time>2020-06-10T14:02:04Z</time>
      </trkpt>
      <trkpt lat="48.57375" lon="-3.74654">
        <ele>117</ele>
        <time>2020-06-10T14:02:05Z</time>
      </trkpt>
      <trkpt lat="48.57374" lon="-3.74643">
        <ele>116.9</ele>
        <time>2020-06-10T14:02:06Z</time>
      </trkpt>
      <trkpt lat="48.57373" lon="-3.74632">
        <ele>116.7</ele>
        <time>2020-06-10T14:02:07Z</time>
      </trkpt>
      <trkpt lat="48.57372" lon="-3.74621">
        <ele>116.6</ele>
        <time>2020-06-10T14:02:08Z</time>
      </trkpt>
      <trkpt lat="48.57371" lon="-3.7461">
        <ele>116.5</ele>
        <time>2020-06-10T14:02:09Z</time>
      </trkpt>
      <trkpt lat="48.5737" lon="-3.74599">
        <ele>116.3</ele>
        <time>2020-06-10T14:02:10Z</time>
      </trkpt>
      <trkpt lat="48.57369" lon="-3.74588">
        <ele>116.3</ele>
        <time>2020-06-10T14:02:11Z</time>
      </trkpt>
      <trkpt lat="48.57368" lon="-3.74577">
        <ele>116.2</ele>
        <time>2020-06-10T14:02:12Z</time>
      </trkpt>
      <trkpt lat="48.57366" lon="-3.74566">
        <ele>116.2</ele>
        <time>2020-06-10T14:02:13Z</time>
      </trkpt>
      <trkpt lat="48.57365" lon="-3.74554">
        <ele>116.2</ele>
        <time>2020-06-10T14:02:14Z</time>
      </trkpt>
      <trkpt lat="48.57364" lon="-3.74544">
        <ele>116.2</ele>
        <time>2020-06-10T14:02:15Z</time>
      </trkpt>
      <trkpt lat="48.57363" lon="-3.74534">
        <ele>116.2</ele>
        <time>2020-06-10T14:02:16Z</time>
      </trkpt>
      <trkpt lat="48.57362" lon="-3.74524">
        <ele>116.2</ele>
        <time>2020-06-10T14:02:17Z</time>
      </trkpt>
      <trkpt lat="48.57361" lon="-3.74514">
        <ele>116.2</ele>
        <time>2020-06-10T14:02:18Z</time>
      </trkpt>
      <trkpt lat="48.5736" lon="-3.74505">
        <ele>116.2</ele>
        <time>2020-06-10T14:02:19Z</time>
      </trkpt>
      <trkpt lat="48.57359" lon="-3.74496">
        <ele>116.3</ele>
        <time>2020-06-10T14:02:20Z</time>
      </trkpt>
      <trkpt lat="48.57359" lon="-3.74486">
        <ele>116.3</ele>
        <time>2020-06-10T14:02:21Z</time>
      </trkpt>
      <trkpt lat="48.57358" lon="-3.74477">
        <ele>116.4</ele>
        <time>2020-06-10T14:02:22Z</time>
      </trkpt>
      <trkpt lat="48.57357" lon="-3.74468">
        <ele>116.4</ele>
        <time>2020-06-10T14:02:23Z</time>
      </trkpt>
      <trkpt lat="48.57356" lon="-3.74459">
        <ele>116.5</ele>
        <time>2020-06-10T14:02:24Z</time>
      </trkpt>
      <trkpt lat="48.57356" lon="-3.74449">
        <ele>116.6</ele>
        <time>2020-06-10T14:02:25Z</time>
      </trkpt>
      <trkpt lat="48.57355" lon="-3.7444">
        <ele>116.7</ele>
        <time>2020-06-10T14:02:26Z</time>
      </trkpt>
      <trkpt lat="48.57354" lon="-3.74431">
        <ele>116.9</ele>
        <time>2020-06-10T14:02:27Z</time>
      </trkpt>
      <trkpt lat="48.57353" lon="-3.74422">
        <ele>117</ele>
        <time>2020-06-10T14:02:28Z</time>
      </trkpt>
      <trkpt lat="48.57352" lon="-3.74413">
        <ele>117.2</ele>
        <time>2020-06-10T14:02:29Z</time>
      </trkpt>
      <trkpt lat="48.57351" lon="-3.74403">
        <ele>117.3</ele>
        <time>2020-06-10T14:02:30Z</time>
      </trkpt>
      <trkpt lat="48.5735" lon="-3.74394">
        <ele>117.5</ele>
        <time>2020-06-10T14:02:31Z</time>
      </trkpt>
      <trkpt lat="48.57349" lon="-3.74384">
        <ele>117.8</ele>
        <time>2020-06-10T14:02:32Z</time>
      </trkpt>
      <trkpt lat="48.57348" lon="-3.74375">
        <ele>118</ele>
        <time>2020-06-10T14:02:33Z</time>
      </trkpt>
      <trkpt lat="48.57347" lon="-3.74366">
        <ele>118.3</ele>
        <time>2020-06-10T14:02:34Z</time>
      </trkpt>
      <trkpt lat="48.57346" lon="-3.74357">
        <ele>118.5</ele>
        <time>2020-06-10T14:02:35Z</time>
      </trkpt>
      <trkpt lat="48.57345" lon="-3.74347">
        <ele>118.7</ele>
        <time>2020-06-10T14:02:36Z</time>
      </trkpt>
      <trkpt lat="48.57344" lon="-3.74338">
        <ele>118.8</ele>
        <time>2020-06-10T14:02:37Z</time>
      </trkpt>
      <trkpt lat="48.57343" lon="-3.74328">
        <ele>119</ele>
        <time>2020-06-10T14:02:38Z</time>
      </trkpt>
      <trkpt lat="48.57343" lon="-3.74318">
        <ele>119.2</ele>
        <time>2020-06-10T14:02:39Z</time>
      </trkpt>
      <trkpt lat="48.57342" lon="-3.74308">
        <ele>119.4</ele>
        <time>2020-06-10T14:02:40Z</time>
      </trkpt>
      <trkpt lat="48.57341" lon="-3.743">
        <ele>119.5</ele>
        <time>2020-06-10T14:02:41Z</time>
      </trkpt>
      <trkpt lat="48.5734" lon="-3.7429">
        <ele>119.7</ele>
        <time>2020-06-10T14:02:42Z</time>
      </trkpt>
      <trkpt lat="48.57339" lon="-3.74281">
        <ele>119.8</ele>
        <time>2020-06-10T14:02:43Z</time>
      </trkpt>
      <trkpt lat="48.57339" lon="-3.74271">
        <ele>120</ele>
        <time>2020-06-10T14:02:44Z</time>
      </trkpt>
      <trkpt lat="48.57338" lon="-3.74262">
        <ele>120.1</ele>
        <time>2020-06-10T14:02:45Z</time>
      </trkpt>
      <trkpt lat="48.57337" lon="-3.74253">
        <ele>120.3</ele>
        <time>2020-06-10T14:02:46Z</time>
      </trkpt>
      <trkpt lat="48.57336" lon="-3.74244">
        <ele>120.5</ele>
        <time>2020-06-10T14:02:47Z</time>
      </trkpt>
      <trkpt lat="48.57335" lon="-3.74234">
        <ele>120.7</ele>
        <time>2020-06-10T14:02:48Z</time>
      </trkpt>
      <trkpt lat="48.57334" lon="-3.74223">
        <ele>120.9</ele>
        <time>2020-06-10T14:02:49Z</time>
      </trkpt>
      <trkpt lat="48.57333" lon="-3.74214">
        <ele>121.1</ele>
        <time>2020-06-10T14:02:50Z</time>
      </trkpt>
      <trkpt lat="48.57332" lon="-3.74206">
        <ele>121.3</ele>
        <time>2020-06-10T14:02:51Z</time>
      </trkpt>
      <trkpt lat="48.57331" lon="-3.74196">
        <ele>121.5</ele>
        <time>2020-06-10T14:02:52Z</time>
      </trkpt>
      <trkpt lat="48.5733" lon="-3.74188">
        <ele>121.8</ele>
        <time>2020-06-10T14:02:53Z</time>
      </trkpt>
      <trkpt lat="48.57329" lon="-3.74178">
        <ele>122</ele>
        <time>2020-06-10T14:02:54Z</time>
      </trkpt>
      <trkpt lat="48.57328" lon="-3.74168">
        <ele>122.2</ele>
        <time>2020-06-10T14:02:55Z</time>
      </trkpt>
      <trkpt lat="48.57327" lon="-3.74158">
        <ele>122.4</ele>
        <time>2020-06-10T14:02:56Z</time>
      </trkpt>
      <trkpt lat="48.57326" lon="-3.74148">
        <ele>122.6</ele>
        <time>2020-06-10T14:02:57Z</time>
      </trkpt>
      <trkpt lat="48.57325" lon="-3.74139">
        <ele>122.9</ele>
        <time>2020-06-10T14:02:58Z</time>
      </trkpt>
      <trkpt lat="48.57324" lon="-3.7413">
        <ele>123.1</ele>
        <time>2020-06-10T14:02:59Z</time>
      </trkpt>
      <trkpt lat="48.57323" lon="-3.74121">
        <ele>123.3</ele>
        <time>2020-06-10T14:03:00Z</time>
      </trkpt>
      <trkpt lat="48.57322" lon="-3.74112">
        <ele>123.6</ele>
        <time>2020-06-10T14:03:01Z</time>
      </trkpt>
      <trkpt lat="48.57321" lon="-3.74103">
        <ele>123.8</ele>
        <time>2020-06-10T14:03:02Z</time>
      </trkpt>
      <trkpt lat="48.5732" lon="-3.74094">
        <ele>124.1</ele>
        <time>2020-06-10T14:03:03Z</time>
      </trkpt>
      <trkpt lat="48.5732" lon="-3.74085">
        <ele>124.3</ele>
        <time>2020-06-10T14:03:04Z</time>
      </trkpt>
      <trkpt lat="48.57319" lon="-3.74076">
        <ele>124.6</ele>
        <time>2020-06-10T14:03:05Z</time>
      </trkpt>
      <trkpt lat="48.57318" lon="-3.74067">
        <ele>124.8</ele>
        <time>2020-06-10T14:03:06Z</time>
      </trkpt>
      <trkpt lat="48.57317" lon="-3.74059">
        <ele>125</ele>
        <time>2020-06-10T14:03:07Z</time>
      </trkpt>
      <trkpt lat="48.57316" lon="-3.7405">
        <ele>125.2</ele>
        <time>2020-06-10T14:03:08Z</time>
      </trkpt>
      <trkpt lat="48.57315" lon="-3.74041">
        <ele>125.4</ele>
        <time>2020-06-10T14:03:09Z</time>
      </trkpt>
      <trkpt lat="48.57314" lon="-3.74031">
        <ele>125.5</ele>
        <time>2020-06-10T14:03:10Z</time>
      </trkpt>
      <trkpt lat="48.57313" lon="-3.74023">
        <ele>125.6</ele>
        <time>2020-06-10T14:03:11Z</time>
      </trkpt>
      <trkpt lat="48.57312" lon="-3.74014">
        <ele>125.7</ele>
        <time>2020-06-10T14:03:12Z</time>
      </trkpt>
      <trkpt lat="48.57312" lon="-3.74007">
        <ele>125.8</ele>
        <time>2020-06-10T14:03:13Z</time>
      </trkpt>
      <trkpt lat="48.57311" lon="-3.73998">
        <ele>126</ele>
        <time>2020-06-10T14:03:14Z</time>
      </trkpt>
      <trkpt lat="48.5731" lon="-3.7399">
        <ele>126.1</ele>
        <time>2020-06-10T14:03:15Z</time>
      </trkpt>
      <trkpt lat="48.57309" lon="-3.73982">
        <ele>126.1</ele>
        <time>2020-06-10T14:03:16Z</time>
      </trkpt>
      <trkpt lat="48.57309" lon="-3.73974">
        <ele>126.2</ele>
        <time>2020-06-10T14:03:17Z</time>
      </trkpt>
      <trkpt lat="48.57308" lon="-3.73966">
        <ele>126.3</ele>
        <time>2020-06-10T14:03:18Z</time>
      </trkpt>
      <trkpt lat="48.57307" lon="-3.73958">
        <ele>126.3</ele>
        <time>2020-06-10T14:03:19Z</time>
      </trkpt>
      <trkpt lat="48.57306" lon="-3.73949">
        <ele>126.4</ele>
        <time>2020-06-10T14:03:20Z</time>
      </trkpt>
      <trkpt lat="48.57305" lon="-3.73941">
        <ele>126.5</ele>
        <time>2020-06-10T14:03:21Z</time>
      </trkpt>
      <trkpt lat="48.57304" lon="-3.73933">
        <ele>126.6</ele>
        <time>2020-06-10T14:03:22Z</time>
      </trkpt>
      <trkpt lat="48.57303" lon="-3.73926">
        <ele>126.7</ele>
        <time>2020-06-10T14:03:23Z</time>
      </trkpt>
      <trkpt lat="48.57303" lon="-3.73919">
        <ele>126.8</ele>
        <time>2020-06-10T14:03:24Z</time>
      </trkpt>
      <trkpt lat="48.57301" lon="-3.7391">
        <ele>126.8</ele>
        <time>2020-06-10T14:03:25Z</time>
      </trkpt>
      <trkpt lat="48.57301" lon="-3.73901">
        <ele>126.9</ele>
        <time>2020-06-10T14:03:26Z</time>
      </trkpt>
      <trkpt lat="48.573" lon="-3.73894">
        <ele>127</ele>
        <time>2020-06-10T14:03:27Z</time>
      </trkpt>
      <trkpt lat="48.57299" lon="-3.73886">
        <ele>127.1</ele>
        <time>2020-06-10T14:03:28Z</time>
      </trkpt>
      <trkpt lat="48.57299" lon="-3.73878">
        <ele>127.1</ele>
        <time>2020-06-10T14:03:29Z</time>
      </trkpt>
      <trkpt lat="48.57298" lon="-3.7387">
        <ele>127.2</ele>
        <time>2020-06-10T14:03:30Z</time>
      </trkpt>
      <trkpt lat="48.57296" lon="-3.73862">
        <ele>127.3</ele>
        <time>2020-06-10T14:03:31Z</time>
      </trkpt>
      <trkpt lat="48.57295" lon="-3.73854">
        <ele>127.4</ele>
        <time>2020-06-10T14:03:32Z</time>
      </trkpt>
      <trkpt lat="48.57295" lon="-3.73846">
        <ele>127.4</ele>
        <time>2020-06-10T14:03:33Z</time>
      </trkpt>
      <trkpt lat="48.57295" lon="-3.73838">
        <ele>127.5</ele>
        <time>2020-06-10T14:03:34Z</time>
      </trkpt>
      <trkpt lat="48.57294" lon="-3.73832">
        <ele>127.5</ele>
        <time>2020-06-10T14:03:35Z</time>
      </trkpt>
      <trkpt lat="48.57294" lon="-3.73825">
        <ele>127.5</ele>
        <time>2020-06-10T14:03:36Z</time>
      </trkpt>
      <trkpt lat="48.57293" lon="-3.73818">
        <ele>127.6</ele>
        <time>2020-06-10T14:03:37Z</time>
      </trkpt>
      <trkpt lat="48.57292" lon="-3.73811">
        <ele>127.6</ele>
        <time>2020-06-10T14:03:38Z</time>
      </trkpt>
      <trkpt lat="48.57291" lon="-3.73803">
        <ele>127.6</ele>
        <time>2020-06-10T14:03:39Z</time>
      </trkpt>
      <trkpt lat="48.57291" lon="-3.73796">
        <ele>127.6</ele>
        <time>2020-06-10T14:03:40Z</time>
      </trkpt>
      <trkpt lat="48.5729" lon="-3.73787">
        <ele>127.6</ele>
        <time>2020-06-10T14:03:41Z</time>
      </trkpt>
      <trkpt lat="48.57289" lon="-3.73779">
        <ele>127.6</ele>
        <time>2020-06-10T14:03:42Z</time>
      </trkpt>
      <trkpt lat="48.57289" lon="-3.73771">
        <ele>127.6</ele>
        <time>2020-06-10T14:03:43Z</time>
      </trkpt>
      <trkpt lat="48.57288" lon="-3.73763">
        <ele>127.6</ele>
        <time>2020-06-10T14:03:44Z</time>
      </trkpt>
      <trkpt lat="48.57287" lon="-3.73755">
        <ele>127.6</ele>
        <time>2020-06-10T14:03:45Z</time>
      </trkpt>
      <trkpt lat="48.57286" lon="-3.73748">
        <ele>127.6</ele>
        <time>2020-06-10T14:03:46Z</time>
      </trkpt>
      <trkpt lat="48.57286" lon="-3.73741">
        <ele>127.6</ele>
        <time>2020-06-10T14:03:47Z</time>
      </trkpt>
      <trkpt lat="48.57285" lon="-3.73733">
        <ele>127.6</ele>
        <time>2020-06-10T14:03:48Z</time>
      </trkpt>
      <trkpt lat="48.57285" lon="-3.73726">
        <ele>127.6</ele>
        <time>2020-06-10T14:03:49Z</time>
      </trkpt>
      <trkpt lat="48.57284" lon="-3.73718">
        <ele>127.6</ele>
        <time>2020-06-10T14:03:50Z</time>
      </trkpt>
      <trkpt lat="48.57283" lon="-3.73709">
        <ele>127.6</ele>
        <time>2020-06-10T14:03:51Z</time>
      </trkpt>
      <trkpt lat="48.57282" lon="-3.737">
        <ele>127.6</ele>
        <time>2020-06-10T14:03:52Z</time>
      </trkpt>
      <trkpt lat="48.57281" lon="-3.7369">
        <ele>127.7</ele>
        <time>2020-06-10T14:03:53Z</time>
      </trkpt>
      <trkpt lat="48.5728" lon="-3.73681">
        <ele>127.7</ele>
        <time>2020-06-10T14:03:54Z</time>
      </trkpt>
      <trkpt lat="48.5728" lon="-3.73672">
        <ele>127.7</ele>
        <time>2020-06-10T14:03:55Z</time>
      </trkpt>
      <trkpt lat="48.57279" lon="-3.73665">
        <ele>127.8</ele>
        <time>2020-06-10T14:03:56Z</time>
      </trkpt>
      <trkpt lat="48.57278" lon="-3.73657">
        <ele>127.8</ele>
        <time>2020-06-10T14:03:57Z</time>
      </trkpt>
      <trkpt lat="48.57277" lon="-3.73649">
        <ele>127.8</ele>
        <time>2020-06-10T14:03:58Z</time>
      </trkpt>
      <trkpt lat="48.57277" lon="-3.73641">
        <ele>127.9</ele>
        <time>2020-06-10T14:03:59Z</time>
      </trkpt>
      <trkpt lat="48.57276" lon="-3.73634">
        <ele>127.9</ele>
        <time>2020-06-10T14:04:00Z</time>
      </trkpt>
      <trkpt lat="48.57275" lon="-3.73626">
        <ele>128</ele>
        <time>2020-06-10T14:04:01Z</time>
      </trkpt>
      <trkpt lat="48.57274" lon="-3.73617">
        <ele>128.1</ele>
        <time>2020-06-10T14:04:02Z</time>
      </trkpt>
      <trkpt lat="48.57273" lon="-3.73611">
        <ele>128.2</ele>
        <time>2020-06-10T14:04:03Z</time>
      </trkpt>
      <trkpt lat="48.57273" lon="-3.73604">
        <ele>128.2</ele>
        <time>2020-06-10T14:04:04Z</time>
      </trkpt>
      <trkpt lat="48.57272" lon="-3.73596">
        <ele>128.3</ele>
        <time>2020-06-10T14:04:05Z</time>
      </trkpt>
      <trkpt lat="48.57271" lon="-3.73588">
        <ele>128.4</ele>
        <time>2020-06-10T14:04:06Z</time>
      </trkpt>
      <trkpt lat="48.5727" lon="-3.73579">
        <ele>128.5</ele>
        <time>2020-06-10T14:04:07Z</time>
      </trkpt>
      <trkpt lat="48.57269" lon="-3.7357">
        <ele>128.6</ele>
        <time>2020-06-10T14:04:08Z</time>
      </trkpt>
      <trkpt lat="48.57268" lon="-3.73561">
        <ele>128.6</ele>
        <time>2020-06-10T14:04:09Z</time>
      </trkpt>
      <trkpt lat="48.57267" lon="-3.73552">
        <ele>128.7</ele>
        <time>2020-06-10T14:04:10Z</time>
      </trkpt>
      <trkpt lat="48.57266" lon="-3.73544">
        <ele>128.8</ele>
        <time>2020-06-10T14:04:11Z</time>
      </trkpt>
      <trkpt lat="48.57265" lon="-3.73537">
        <ele>128.9</ele>
        <time>2020-06-10T14:04:12Z</time>
      </trkpt>
      <trkpt lat="48.57264" lon="-3.73529">
        <ele>129</ele>
        <time>2020-06-10T14:04:13Z</time>
      </trkpt>
      <trkpt lat="48.57263" lon="-3.73521">
        <ele>129.1</ele>
        <time>2020-06-10T14:04:14Z</time>
      </trkpt>
      <trkpt lat="48.57262" lon="-3.73513">
        <ele>129.3</ele>
        <time>2020-06-10T14:04:15Z</time>
      </trkpt>
      <trkpt lat="48.57261" lon="-3.73505">
        <ele>129.4</ele>
        <time>2020-06-10T14:04:16Z</time>
      </trkpt>
      <trkpt lat="48.5726" lon="-3.73498">
        <ele>129.5</ele>
        <time>2020-06-10T14:04:17Z</time>
      </trkpt>
      <trkpt lat="48.57259" lon="-3.73491">
        <ele>129.7</ele>
        <time>2020-06-10T14:04:18Z</time>
      </trkpt>
      <trkpt lat="48.57258" lon="-3.73485">
        <ele>129.8</ele>
        <time>2020-06-10T14:04:19Z</time>
      </trkpt>
      <trkpt lat="48.57257" lon="-3.73478">
        <ele>129.9</ele>
        <time>2020-06-10T14:04:20Z</time>
      </trkpt>
      <trkpt lat="48.57257" lon="-3.7347">
        <ele>130</ele>
        <time>2020-06-10T14:04:21Z</time>
      </trkpt>
      <trkpt lat="48.57256" lon="-3.73461">
        <ele>130.1</ele>
        <time>2020-06-10T14:04:22Z</time>
      </trkpt>
      <trkpt lat="48.57255" lon="-3.73455">
        <ele>130.2</ele>
        <time>2020-06-10T14:04:23Z</time>
      </trkpt>
      <trkpt lat="48.57255" lon="-3.73447">
        <ele>130.3</ele>
        <time>2020-06-10T14:04:24Z</time>
      </trkpt>
      <trkpt lat="48.57254" lon="-3.7344">
        <ele>130.3</ele>
        <time>2020-06-10T14:04:25Z</time>
      </trkpt>
      <trkpt lat="48.57253" lon="-3.73433">
        <ele>130.3</ele>
        <time>2020-06-10T14:04:26Z</time>
      </trkpt>
      <trkpt lat="48.57253" lon="-3.73426">
        <ele>130.4</ele>
        <time>2020-06-10T14:04:27Z</time>
      </trkpt>
      <trkpt lat="48.57252" lon="-3.73417">
        <ele>130.4</ele>
        <time>2020-06-10T14:04:28Z</time>
      </trkpt>
      <trkpt lat="48.57251" lon="-3.73408">
        <ele>130.3</ele>
        <time>2020-06-10T14:04:29Z</time>
      </trkpt>
      <trkpt lat="48.5725" lon="-3.734">
        <ele>130.4</ele>
        <time>2020-06-10T14:04:30Z</time>
      </trkpt>
      <trkpt lat="48.5725" lon="-3.73392">
        <ele>130.5</ele>
        <time>2020-06-10T14:04:31Z</time>
      </trkpt>
      <trkpt lat="48.57249" lon="-3.73385">
        <ele>130.6</ele>
        <time>2020-06-10T14:04:32Z</time>
      </trkpt>
      <trkpt lat="48.57248" lon="-3.73377">
        <ele>130.7</ele>
        <time>2020-06-10T14:04:33Z</time>
      </trkpt>
      <trkpt lat="48.57247" lon="-3.73369">
        <ele>130.9</ele>
        <time>2020-06-10T14:04:34Z</time>
      </trkpt>
      <trkpt lat="48.57247" lon="-3.73362">
        <ele>130.9</ele>
        <time>2020-06-10T14:04:35Z</time>
      </trkpt>
      <trkpt lat="48.57246" lon="-3.73356">
        <ele>131</ele>
        <time>2020-06-10T14:04:36Z</time>
      </trkpt>
      <trkpt lat="48.57245" lon="-3.73349">
        <ele>131</ele>
        <time>2020-06-10T14:04:37Z</time>
      </trkpt>
      <trkpt lat="48.57244" lon="-3.73342">
        <ele>131</ele>
        <time>2020-06-10T14:04:38Z</time>
      </trkpt>
      <trkpt lat="48.57244" lon="-3.73335">
        <ele>131</ele>
        <time>2020-06-10T14:04:39Z</time>
      </trkpt>
      <trkpt lat="48.57243" lon="-3.73329">
        <ele>131</ele>
        <time>2020-06-10T14:04:40Z</time>
      </trkpt>
      <trkpt lat="48.57243" lon="-3.73323">
        <ele>131</ele>
        <time>2020-06-10T14:04:41Z</time>
      </trkpt>
      <trkpt lat="48.57242" lon="-3.73316">
        <ele>131</ele>
        <time>2020-06-10T14:04:42Z</time>
      </trkpt>
      <trkpt lat="48.57242" lon="-3.73309">
        <ele>131</ele>
        <time>2020-06-10T14:04:43Z</time>
      </trkpt>
      <trkpt lat="48.57241" lon="-3.73301">
        <ele>131</ele>
        <time>2020-06-10T14:04:44Z</time>
      </trkpt>
      <trkpt lat="48.57241" lon="-3.73293">
        <ele>131</ele>
        <time>2020-06-10T14:04:45Z</time>
      </trkpt>
      <trkpt lat="48.5724" lon="-3.73285">
        <ele>130.9</ele>
        <time>2020-06-10T14:04:46Z</time>
      </trkpt>
      <trkpt lat="48.57239" lon="-3.73276">
        <ele>130.8</ele>
        <time>2020-06-10T14:04:47Z</time>
      </trkpt>
      <trkpt lat="48.57238" lon="-3.73269">
        <ele>130.7</ele>
        <time>2020-06-10T14:04:48Z</time>
      </trkpt>
      <trkpt lat="48.57238" lon="-3.73263">
        <ele>130.7</ele>
        <time>2020-06-10T14:04:49Z</time>
      </trkpt>
      <trkpt lat="48.57237" lon="-3.73256">
        <ele>130.6</ele>
        <time>2020-06-10T14:04:50Z</time>
      </trkpt>
      <trkpt lat="48.57236" lon="-3.73248">
        <ele>130.5</ele>
        <time>2020-06-10T14:04:51Z</time>
      </trkpt>
      <trkpt lat="48.57235" lon="-3.73241">
        <ele>130.4</ele>
        <time>2020-06-10T14:04:52Z</time>
      </trkpt>
      <trkpt lat="48.57235" lon="-3.73233">
        <ele>130.2</ele>
        <time>2020-06-10T14:04:53Z</time>
      </trkpt>
      <trkpt lat="48.57234" lon="-3.73225">
        <ele>130.1</ele>
        <time>2020-06-10T14:04:54Z</time>
      </trkpt>
      <trkpt lat="48.57233" lon="-3.73218">
        <ele>130</ele>
        <time>2020-06-10T14:04:55Z</time>
      </trkpt>
      <trkpt lat="48.57233" lon="-3.7321">
        <ele>129.9</ele>
        <time>2020-06-10T14:04:56Z</time>
      </trkpt>
      <trkpt lat="48.57232" lon="-3.73199">
        <ele>129.8</ele>
        <time>2020-06-10T14:04:57Z</time>
      </trkpt>
      <trkpt lat="48.57231" lon="-3.73189">
        <ele>129.7</ele>
        <time>2020-06-10T14:04:58Z</time>
      </trkpt>
      <trkpt lat="48.5723" lon="-3.73179">
        <ele>129.6</ele>
        <time>2020-06-10T14:04:59Z</time>
      </trkpt>
      <trkpt lat="48.57229" lon="-3.73171">
        <ele>129.6</ele>
        <time>2020-06-10T14:05:00Z</time>
      </trkpt>
      <trkpt lat="48.57228" lon="-3.73162">
        <ele>129.5</ele>
        <time>2020-06-10T14:05:01Z</time>
      </trkpt>
      <trkpt lat="48.57227" lon="-3.73153">
        <ele>129.5</ele>
        <time>2020-06-10T14:05:02Z</time>
      </trkpt>
      <trkpt lat="48.57226" lon="-3.73144">
        <ele>129.5</ele>
        <time>2020-06-10T14:05:03Z</time>
      </trkpt>
      <trkpt lat="48.57226" lon="-3.73136">
        <ele>129.5</ele>
        <time>2020-06-10T14:05:04Z</time>
      </trkpt>
      <trkpt lat="48.57225" lon="-3.73128">
        <ele>129.6</ele>
        <time>2020-06-10T14:05:05Z</time>
      </trkpt>
      <trkpt lat="48.57224" lon="-3.73119">
        <ele>129.5</ele>
        <time>2020-06-10T14:05:06Z</time>
      </trkpt>
      <trkpt lat="48.57223" lon="-3.73112">
        <ele>129.5</ele>
        <time>2020-06-10T14:05:07Z</time>
      </trkpt>
      <trkpt lat="48.57222" lon="-3.73103">
        <ele>129.5</ele>
        <time>2020-06-10T14:05:08Z</time>
      </trkpt>
      <trkpt lat="48.57221" lon="-3.73095">
        <ele>129.4</ele>
        <time>2020-06-10T14:05:09Z</time>
      </trkpt>
      <trkpt lat="48.5722" lon="-3.73085">
        <ele>129.4</ele>
        <time>2020-06-10T14:05:10Z</time>
      </trkpt>
      <trkpt lat="48.57219" lon="-3.73075">
        <ele>129.3</ele>
        <time>2020-06-10T14:05:11Z</time>
      </trkpt>
      <trkpt lat="48.57218" lon="-3.73066">
        <ele>129.2</ele>
        <time>2020-06-10T14:05:12Z</time>
      </trkpt>
      <trkpt lat="48.57217" lon="-3.73056">
        <ele>129.1</ele>
        <time>2020-06-10T14:05:13Z</time>
      </trkpt>
      <trkpt lat="48.57216" lon="-3.73046">
        <ele>129</ele>
        <time>2020-06-10T14:05:14Z</time>
      </trkpt>
      <trkpt lat="48.57214" lon="-3.73037">
        <ele>128.9</ele>
        <time>2020-06-10T14:05:15Z</time>
      </trkpt>
      <trkpt lat="48.57213" lon="-3.73027">
        <ele>128.7</ele>
        <time>2020-06-10T14:05:16Z</time>
      </trkpt>
      <trkpt lat="48.57212" lon="-3.73018">
        <ele>128.4</ele>
        <time>2020-06-10T14:05:17Z</time>
      </trkpt>
      <trkpt lat="48.57212" lon="-3.73008">
        <ele>128.4</ele>
        <time>2020-06-10T14:05:18Z</time>
      </trkpt>
      <trkpt lat="48.57211" lon="-3.72998">
        <ele>128.3</ele>
        <time>2020-06-10T14:05:19Z</time>
      </trkpt>
      <trkpt lat="48.5721" lon="-3.72988">
        <ele>128.2</ele>
        <time>2020-06-10T14:05:20Z</time>
      </trkpt>
      <trkpt lat="48.57208" lon="-3.72978">
        <ele>128.1</ele>
        <time>2020-06-10T14:05:21Z</time>
      </trkpt>
      <trkpt lat="48.57207" lon="-3.72969">
        <ele>128</ele>
        <time>2020-06-10T14:05:22Z</time>
      </trkpt>
      <trkpt lat="48.57206" lon="-3.7296">
        <ele>127.9</ele>
        <time>2020-06-10T14:05:23Z</time>
      </trkpt>
      <trkpt lat="48.57205" lon="-3.72949">
        <ele>127.7</ele>
        <time>2020-06-10T14:05:24Z</time>
      </trkpt>
      <trkpt lat="48.57204" lon="-3.72939">
        <ele>127.6</ele>
        <time>2020-06-10T14:05:25Z</time>
      </trkpt>
      <trkpt lat="48.57203" lon="-3.72928">
        <ele>127.4</ele>
        <time>2020-06-10T14:05:26Z</time>
      </trkpt>
      <trkpt lat="48.57202" lon="-3.72918">
        <ele>127.2</ele>
        <time>2020-06-10T14:05:27Z</time>
      </trkpt>
      <trkpt lat="48.57201" lon="-3.72907">
        <ele>127</ele>
        <time>2020-06-10T14:05:28Z</time>
      </trkpt>
      <trkpt lat="48.57201" lon="-3.72896">
        <ele>126.8</ele>
        <time>2020-06-10T14:05:29Z</time>
      </trkpt>
      <trkpt lat="48.572" lon="-3.72885">
        <ele>126.6</ele>
        <time>2020-06-10T14:05:30Z</time>
      </trkpt>
      <trkpt lat="48.57199" lon="-3.72874">
        <ele>126.4</ele>
        <time>2020-06-10T14:05:31Z</time>
      </trkpt>
      <trkpt lat="48.57198" lon="-3.72863">
        <ele>126.2</ele>
        <time>2020-06-10T14:05:32Z</time>
      </trkpt>
      <trkpt lat="48.57196" lon="-3.72851">
        <ele>126</ele>
        <time>2020-06-10T14:05:33Z</time>
      </trkpt>
      <trkpt lat="48.57195" lon="-3.7284">
        <ele>125.8</ele>
        <time>2020-06-10T14:05:34Z</time>
      </trkpt>
      <trkpt lat="48.57194" lon="-3.72829">
        <ele>125.5</ele>
        <time>2020-06-10T14:05:35Z</time>
      </trkpt>
      <trkpt lat="48.57193" lon="-3.72818">
        <ele>125.3</ele>
        <time>2020-06-10T14:05:36Z</time>
      </trkpt>
      <trkpt lat="48.57191" lon="-3.72807">
        <ele>125</ele>
        <time>2020-06-10T14:05:37Z</time>
      </trkpt>
      <trkpt lat="48.5719" lon="-3.72796">
        <ele>124.9</ele>
        <time>2020-06-10T14:05:38Z</time>
      </trkpt>
      <trkpt lat="48.57189" lon="-3.72786">
        <ele>124.7</ele>
        <time>2020-06-10T14:05:39Z</time>
      </trkpt>
      <trkpt lat="48.57188" lon="-3.72775">
        <ele>124.6</ele>
        <time>2020-06-10T14:05:40Z</time>
      </trkpt>
      <trkpt lat="48.57188" lon="-3.72766">
        <ele>124.5</ele>
        <time>2020-06-10T14:05:41Z</time>
      </trkpt>
      <trkpt lat="48.57186" lon="-3.72756">
        <ele>124.4</ele>
        <time>2020-06-10T14:05:42Z</time>
      </trkpt>
      <trkpt lat="48.57186" lon="-3.72746">
        <ele>124.2</ele>
        <time>2020-06-10T14:05:43Z</time>
      </trkpt>
      <trkpt lat="48.57185" lon="-3.72736">
        <ele>124.1</ele>
        <time>2020-06-10T14:05:44Z</time>
      </trkpt>
      <trkpt lat="48.57183" lon="-3.72725">
        <ele>123.9</ele>
        <time>2020-06-10T14:05:45Z</time>
      </trkpt>
      <trkpt lat="48.57182" lon="-3.72715">
        <ele>123.8</ele>
        <time>2020-06-10T14:05:46Z</time>
      </trkpt>
      <trkpt lat="48.57181" lon="-3.72705">
        <ele>123.7</ele>
        <time>2020-06-10T14:05:47Z</time>
      </trkpt>
      <trkpt lat="48.5718" lon="-3.72694">
        <ele>123.6</ele>
        <time>2020-06-10T14:05:48Z</time>
      </trkpt>
      <trkpt lat="48.5718" lon="-3.72685">
        <ele>123.5</ele>
        <time>2020-06-10T14:05:49Z</time>
      </trkpt>
      <trkpt lat="48.57179" lon="-3.72675">
        <ele>123.4</ele>
        <time>2020-06-10T14:05:50Z</time>
      </trkpt>
      <trkpt lat="48.57178" lon="-3.72664">
        <ele>123.3</ele>
        <time>2020-06-10T14:05:51Z</time>
      </trkpt>
      <trkpt lat="48.57177" lon="-3.72653">
        <ele>123.2</ele>
        <time>2020-06-10T14:05:52Z</time>
      </trkpt>
      <trkpt lat="48.57176" lon="-3.72643">
        <ele>123.1</ele>
        <time>2020-06-10T14:05:53Z</time>
      </trkpt>
      <trkpt lat="48.57176" lon="-3.72632">
        <ele>123</ele>
        <time>2020-06-10T14:05:54Z</time>
      </trkpt>
      <trkpt lat="48.57174" lon="-3.72622">
        <ele>122.9</ele>
        <time>2020-06-10T14:05:55Z</time>
      </trkpt>
      <trkpt lat="48.57173" lon="-3.72611">
        <ele>122.8</ele>
        <time>2020-06-10T14:05:56Z</time>
      </trkpt>
      <trkpt lat="48.57172" lon="-3.726">
        <ele>122.7</ele>
        <time>2020-06-10T14:05:57Z</time>
      </trkpt>
      <trkpt lat="48.57171" lon="-3.7259">
        <ele>122.7</ele>
        <time>2020-06-10T14:05:58Z</time>
      </trkpt>
      <trkpt lat="48.5717" lon="-3.72579">
        <ele>122.7</ele>
        <time>2020-06-10T14:05:59Z</time>
      </trkpt>
      <trkpt lat="48.57169" lon="-3.72569">
        <ele>122.7</ele>
        <time>2020-06-10T14:06:00Z</time>
      </trkpt>
      <trkpt lat="48.57169" lon="-3.72559">
        <ele>122.7</ele>
        <time>2020-06-10T14:06:01Z</time>
      </trkpt>
      <trkpt lat="48.57168" lon="-3.7255">
        <ele>122.8</ele>
        <time>2020-06-10T14:06:02Z</time>
      </trkpt>
      <trkpt lat="48.57167" lon="-3.7254">
        <ele>122.9</ele>
        <time>2020-06-10T14:06:03Z</time>
      </trkpt>
      <trkpt lat="48.57166" lon="-3.72531">
        <ele>122.9</ele>
        <time>2020-06-10T14:06:04Z</time>
      </trkpt>
      <trkpt lat="48.57165" lon="-3.72522">
        <ele>123</ele>
        <time>2020-06-10T14:06:05Z</time>
      </trkpt>
      <trkpt lat="48.57164" lon="-3.72512">
        <ele>123.1</ele>
        <time>2020-06-10T14:06:06Z</time>
      </trkpt>
      <trkpt lat="48.57163" lon="-3.72503">
        <ele>123.2</ele>
        <time>2020-06-10T14:06:07Z</time>
      </trkpt>
      <trkpt lat="48.57162" lon="-3.72494">
        <ele>123.2</ele>
        <time>2020-06-10T14:06:08Z</time>
      </trkpt>
      <trkpt lat="48.57161" lon="-3.72485">
        <ele>123.3</ele>
        <time>2020-06-10T14:06:09Z</time>
      </trkpt>
      <trkpt lat="48.5716" lon="-3.72477">
        <ele>123.4</ele>
        <time>2020-06-10T14:06:10Z</time>
      </trkpt>
      <trkpt lat="48.57159" lon="-3.72468">
        <ele>123.5</ele>
        <time>2020-06-10T14:06:11Z</time>
      </trkpt>
      <trkpt lat="48.57158" lon="-3.7246">
        <ele>123.6</ele>
        <time>2020-06-10T14:06:12Z</time>
      </trkpt>
      <trkpt lat="48.57158" lon="-3.72451">
        <ele>123.8</ele>
        <time>2020-06-10T14:06:13Z</time>
      </trkpt>
      <trkpt lat="48.57157" lon="-3.72443">
        <ele>123.9</ele>
        <time>2020-06-10T14:06:14Z</time>
      </trkpt>
      <trkpt lat="48.57156" lon="-3.72434">
        <ele>124.1</ele>
        <time>2020-06-10T14:06:15Z</time>
      </trkpt>
      <trkpt lat="48.57155" lon="-3.72426">
        <ele>124.2</ele>
        <time>2020-06-10T14:06:16Z</time>
      </trkpt>
      <trkpt lat="48.57155" lon="-3.72418">
        <ele>124.4</ele>
        <time>2020-06-10T14:06:17Z</time>
      </trkpt>
      <trkpt lat="48.57154" lon="-3.7241">
        <ele>124.6</ele>
        <time>2020-06-10T14:06:18Z</time>
      </trkpt>
      <trkpt lat="48.57153" lon="-3.72402">
        <ele>124.8</ele>
        <time>2020-06-10T14:06:19Z</time>
      </trkpt>
      <trkpt lat="48.57153" lon="-3.72395">
        <ele>125</ele>
        <time>2020-06-10T14:06:20Z</time>
      </trkpt>
      <trkpt lat="48.57152" lon="-3.72388">
        <ele>125.2</ele>
        <time>2020-06-10T14:06:21Z</time>
      </trkpt>
      <trkpt lat="48.57151" lon="-3.72381">
        <ele>125.4</ele>
        <time>2020-06-10T14:06:22Z</time>
      </trkpt>
      <trkpt lat="48.5715" lon="-3.72375">
        <ele>125.6</ele>
        <time>2020-06-10T14:06:23Z</time>
      </trkpt>
      <trkpt lat="48.5715" lon="-3.72368">
        <ele>125.7</ele>
        <time>2020-06-10T14:06:24Z</time>
      </trkpt>
      <trkpt lat="48.57149" lon="-3.72361">
        <ele>125.9</ele>
        <time>2020-06-10T14:06:25Z</time>
      </trkpt>
      <trkpt lat="48.57148" lon="-3.72353">
        <ele>126.1</ele>
        <time>2020-06-10T14:06:26Z</time>
      </trkpt>
      <trkpt lat="48.57147" lon="-3.72346">
        <ele>126.3</ele>
        <time>2020-06-10T14:06:27Z</time>
      </trkpt>
      <trkpt lat="48.57146" lon="-3.72338">
        <ele>126.5</ele>
        <time>2020-06-10T14:06:28Z</time>
      </trkpt>
      <trkpt lat="48.57145" lon="-3.72331">
        <ele>126.7</ele>
        <time>2020-06-10T14:06:29Z</time>
      </trkpt>
      <trkpt lat="48.57144" lon="-3.72324">
        <ele>126.9</ele>
        <time>2020-06-10T14:06:30Z</time>
      </trkpt>
      <trkpt lat="48.57144" lon="-3.72316">
        <ele>127.2</ele>
        <time>2020-06-10T14:06:31Z</time>
      </trkpt>
      <trkpt lat="48.57143" lon="-3.72309">
        <ele>127.6</ele>
        <time>2020-06-10T14:06:32Z</time>
      </trkpt>
      <trkpt lat="48.57143" lon="-3.72302">
        <ele>127.8</ele>
        <time>2020-06-10T14:06:33Z</time>
      </trkpt>
      <trkpt lat="48.57143" lon="-3.72295">
        <ele>128</ele>
        <time>2020-06-10T14:06:34Z</time>
      </trkpt>
      <trkpt lat="48.57142" lon="-3.72288">
        <ele>128.1</ele>
        <time>2020-06-10T14:06:35Z</time>
      </trkpt>
      <trkpt lat="48.57141" lon="-3.7228">
        <ele>128.3</ele>
        <time>2020-06-10T14:06:36Z</time>
      </trkpt>
      <trkpt lat="48.5714" lon="-3.72273">
        <ele>128.5</ele>
        <time>2020-06-10T14:06:37Z</time>
      </trkpt>
      <trkpt lat="48.57139" lon="-3.72267">
        <ele>128.6</ele>
        <time>2020-06-10T14:06:38Z</time>
      </trkpt>
      <trkpt lat="48.57139" lon="-3.7226">
        <ele>128.8</ele>
        <time>2020-06-10T14:06:39Z</time>
      </trkpt>
      <trkpt lat="48.57138" lon="-3.72251">
        <ele>129</ele>
        <time>2020-06-10T14:06:40Z</time>
      </trkpt>
      <trkpt lat="48.57138" lon="-3.72244">
        <ele>129.2</ele>
        <time>2020-06-10T14:06:41Z</time>
      </trkpt>
      <trkpt lat="48.57137" lon="-3.72234">
        <ele>129.5</ele>
        <time>2020-06-10T14:06:42Z</time>
      </trkpt>
      <trkpt lat="48.57136" lon="-3.7223">
        <ele>129.6</ele>
        <time>2020-06-10T14:06:43Z</time>
      </trkpt>
      <trkpt lat="48.57135" lon="-3.72224">
        <ele>129.7</ele>
        <time>2020-06-10T14:06:44Z</time>
      </trkpt>
      <trkpt lat="48.57135" lon="-3.72216">
        <ele>129.9</ele>
        <time>2020-06-10T14:06:45Z</time>
      </trkpt>
      <trkpt lat="48.57133" lon="-3.72208">
        <ele>130.1</ele>
        <time>2020-06-10T14:06:46Z</time>
      </trkpt>
      <trkpt lat="48.57132" lon="-3.72202">
        <ele>130.2</ele>
        <time>2020-06-10T14:06:47Z</time>
      </trkpt>
      <trkpt lat="48.57131" lon="-3.72196">
        <ele>130.3</ele>
        <time>2020-06-10T14:06:48Z</time>
      </trkpt>
      <trkpt lat="48.5713" lon="-3.7219">
        <ele>130.4</ele>
        <time>2020-06-10T14:06:49Z</time>
      </trkpt>
      <trkpt lat="48.5713" lon="-3.72181">
        <ele>130.5</ele>
        <time>2020-06-10T14:06:50Z</time>
      </trkpt>
      <trkpt lat="48.5713" lon="-3.72175">
        <ele>130.6</ele>
        <time>2020-06-10T14:06:51Z</time>
      </trkpt>
      <trkpt lat="48.57131" lon="-3.72167">
        <ele>130.8</ele>
        <time>2020-06-10T14:06:52Z</time>
      </trkpt>
      <trkpt lat="48.57131" lon="-3.7216">
        <ele>130.9</ele>
        <time>2020-06-10T14:06:53Z</time>
      </trkpt>
      <trkpt lat="48.57131" lon="-3.72153">
        <ele>131</ele>
        <time>2020-06-10T14:06:54Z</time>
      </trkpt>
      <trkpt lat="48.57129" lon="-3.72146">
        <ele>131.1</ele>
        <time>2020-06-10T14:06:55Z</time>
      </trkpt>
      <trkpt lat="48.57129" lon="-3.7214">
        <ele>131.2</ele>
        <time>2020-06-10T14:06:56Z</time>
      </trkpt>
      <trkpt lat="48.57127" lon="-3.72133">
        <ele>131.3</ele>
        <time>2020-06-10T14:06:57Z</time>
      </trkpt>
      <trkpt lat="48.57127" lon="-3.72126">
        <ele>131.4</ele>
        <time>2020-06-10T14:06:58Z</time>
      </trkpt>
      <trkpt lat="48.57126" lon="-3.72119">
        <ele>131.4</ele>
        <time>2020-06-10T14:06:59Z</time>
      </trkpt>
      <trkpt lat="48.57126" lon="-3.72113">
        <ele>131.5</ele>
        <time>2020-06-10T14:07:00Z</time>
      </trkpt>
      <trkpt lat="48.57125" lon="-3.72107">
        <ele>131.6</ele>
        <time>2020-06-10T14:07:01Z</time>
      </trkpt>
      <trkpt lat="48.57124" lon="-3.721">
        <ele>131.7</ele>
        <time>2020-06-10T14:07:02Z</time>
      </trkpt>
      <trkpt lat="48.57124" lon="-3.72093">
        <ele>131.8</ele>
        <time>2020-06-10T14:07:03Z</time>
      </trkpt>
      <trkpt lat="48.57124" lon="-3.72086">
        <ele>131.8</ele>
        <time>2020-06-10T14:07:04Z</time>
      </trkpt>
      <trkpt lat="48.57123" lon="-3.72081">
        <ele>131.9</ele>
        <time>2020-06-10T14:07:05Z</time>
      </trkpt>
      <trkpt lat="48.57123" lon="-3.72076">
        <ele>131.9</ele>
        <time>2020-06-10T14:07:06Z</time>
      </trkpt>
      <trkpt lat="48.57122" lon="-3.72071">
        <ele>131.9</ele>
        <time>2020-06-10T14:07:07Z</time>
      </trkpt>
      <trkpt lat="48.57121" lon="-3.72066">
        <ele>132</ele>
        <time>2020-06-10T14:07:08Z</time>
      </trkpt>
      <trkpt lat="48.57119" lon="-3.72062">
        <ele>132.1</ele>
        <time>2020-06-10T14:07:09Z</time>
      </trkpt>
      <trkpt lat="48.57117" lon="-3.72057">
        <ele>132.1</ele>
        <time>2020-06-10T14:07:10Z</time>
      </trkpt>
      <trkpt lat="48.57113" lon="-3.7205">
        <ele>132.2</ele>
        <time>2020-06-10T14:07:11Z</time>
      </trkpt>
      <trkpt lat="48.57111" lon="-3.72043">
        <ele>132.3</ele>
        <time>2020-06-10T14:07:12Z</time>
      </trkpt>
      <trkpt lat="48.57112" lon="-3.72036">
        <ele>132.4</ele>
        <time>2020-06-10T14:07:13Z</time>
      </trkpt>
      <trkpt lat="48.57113" lon="-3.72028">
        <ele>132.5</ele>
        <time>2020-06-10T14:07:14Z</time>
      </trkpt>
      <trkpt lat="48.57114" lon="-3.7202">
        <ele>132.5</ele>
        <time>2020-06-10T14:07:15Z</time>
      </trkpt>
      <trkpt lat="48.57115" lon="-3.72013">
        <ele>132.5</ele>
        <time>2020-06-10T14:07:16Z</time>
      </trkpt>
      <trkpt lat="48.57115" lon="-3.72006">
        <ele>132.5</ele>
        <time>2020-06-10T14:07:17Z</time>
      </trkpt>
      <trkpt lat="48.57115" lon="-3.71998">
        <ele>132.5</ele>
        <time>2020-06-10T14:07:18Z</time>
      </trkpt>
      <trkpt lat="48.57115" lon="-3.71991">
        <ele>132.5</ele>
        <time>2020-06-10T14:07:19Z</time>
      </trkpt>
      <trkpt lat="48.57114" lon="-3.71984">
        <ele>132.5</ele>
        <time>2020-06-10T14:07:20Z</time>
      </trkpt>
      <trkpt lat="48.57114" lon="-3.71978">
        <ele>132.5</ele>
        <time>2020-06-10T14:07:21Z</time>
      </trkpt>
      <trkpt lat="48.57112" lon="-3.71971">
        <ele>132.6</ele>
        <time>2020-06-10T14:07:22Z</time>
      </trkpt>
      <trkpt lat="48.57111" lon="-3.71964">
        <ele>132.6</ele>
        <time>2020-06-10T14:07:23Z</time>
      </trkpt>
      <trkpt lat="48.5711" lon="-3.71957">
        <ele>132.6</ele>
        <time>2020-06-10T14:07:24Z</time>
      </trkpt>
      <trkpt lat="48.57109" lon="-3.7195">
        <ele>132.7</ele>
        <time>2020-06-10T14:07:25Z</time>
      </trkpt>
      <trkpt lat="48.57109" lon="-3.71944">
        <ele>132.8</ele>
        <time>2020-06-10T14:07:26Z</time>
      </trkpt>
      <trkpt lat="48.57108" lon="-3.71936">
        <ele>132.9</ele>
        <time>2020-06-10T14:07:27Z</time>
      </trkpt>
      <trkpt lat="48.57108" lon="-3.71929">
        <ele>133</ele>
        <time>2020-06-10T14:07:28Z</time>
      </trkpt>
      <trkpt lat="48.57107" lon="-3.71922">
        <ele>133</ele>
        <time>2020-06-10T14:07:29Z</time>
      </trkpt>
      <trkpt lat="48.57107" lon="-3.71916">
        <ele>133.1</ele>
        <time>2020-06-10T14:07:30Z</time>
      </trkpt>
      <trkpt lat="48.57106" lon="-3.71909">
        <ele>133.1</ele>
        <time>2020-06-10T14:07:31Z</time>
      </trkpt>
      <trkpt lat="48.57106" lon="-3.71902">
        <ele>133.2</ele>
        <time>2020-06-10T14:07:32Z</time>
      </trkpt>
      <trkpt lat="48.57105" lon="-3.71895">
        <ele>133.2</ele>
        <time>2020-06-10T14:07:33Z</time>
      </trkpt>
      <trkpt lat="48.57105" lon="-3.71888">
        <ele>133.2</ele>
        <time>2020-06-10T14:07:34Z</time>
      </trkpt>
      <trkpt lat="48.57104" lon="-3.71882">
        <ele>133.2</ele>
        <time>2020-06-10T14:07:35Z</time>
      </trkpt>
      <trkpt lat="48.57103" lon="-3.71875">
        <ele>133.2</ele>
        <time>2020-06-10T14:07:36Z</time>
      </trkpt>
      <trkpt lat="48.57102" lon="-3.71867">
        <ele>133.3</ele>
        <time>2020-06-10T14:07:37Z</time>
      </trkpt>
      <trkpt lat="48.57102" lon="-3.71859">
        <ele>133.3</ele>
        <time>2020-06-10T14:07:38Z</time>
      </trkpt>
      <trkpt lat="48.571" lon="-3.7185">
        <ele>133.3</ele>
        <time>2020-06-10T14:07:39Z</time>
      </trkpt>
      <trkpt lat="48.571" lon="-3.71842">
        <ele>133.4</ele>
        <time>2020-06-10T14:07:40Z</time>
      </trkpt>
      <trkpt lat="48.57098" lon="-3.71833">
        <ele>133.4</ele>
        <time>2020-06-10T14:07:41Z</time>
      </trkpt>
      <trkpt lat="48.57097" lon="-3.71826">
        <ele>133.5</ele>
        <time>2020-06-10T14:07:42Z</time>
      </trkpt>
      <trkpt lat="48.57096" lon="-3.71818">
        <ele>133.5</ele>
        <time>2020-06-10T14:07:43Z</time>
      </trkpt>
      <trkpt lat="48.57095" lon="-3.7181">
        <ele>133.6</ele>
        <time>2020-06-10T14:07:44Z</time>
      </trkpt>
      <trkpt lat="48.57094" lon="-3.71802">
        <ele>133.6</ele>
        <time>2020-06-10T14:07:45Z</time>
      </trkpt>
      <trkpt lat="48.57093" lon="-3.71794">
        <ele>133.7</ele>
        <time>2020-06-10T14:07:46Z</time>
      </trkpt>
      <trkpt lat="48.57092" lon="-3.71786">
        <ele>133.7</ele>
        <time>2020-06-10T14:07:47Z</time>
      </trkpt>
      <trkpt lat="48.57092" lon="-3.71778">
        <ele>133.8</ele>
        <time>2020-06-10T14:07:48Z</time>
      </trkpt>
      <trkpt lat="48.57092" lon="-3.7177">
        <ele>133.8</ele>
        <time>2020-06-10T14:07:49Z</time>
      </trkpt>
      <trkpt lat="48.57091" lon="-3.71762">
        <ele>133.8</ele>
        <time>2020-06-10T14:07:50Z</time>
      </trkpt>
      <trkpt lat="48.57091" lon="-3.71755">
        <ele>133.9</ele>
        <time>2020-06-10T14:07:51Z</time>
      </trkpt>
      <trkpt lat="48.5709" lon="-3.71746">
        <ele>133.9</ele>
        <time>2020-06-10T14:07:52Z</time>
      </trkpt>
      <trkpt lat="48.5709" lon="-3.71739">
        <ele>133.9</ele>
        <time>2020-06-10T14:07:53Z</time>
      </trkpt>
      <trkpt lat="48.57089" lon="-3.71731">
        <ele>134</ele>
        <time>2020-06-10T14:07:54Z</time>
      </trkpt>
      <trkpt lat="48.57088" lon="-3.71724">
        <ele>134</ele>
        <time>2020-06-10T14:07:55Z</time>
      </trkpt>
      <trkpt lat="48.57088" lon="-3.71716">
        <ele>134</ele>
        <time>2020-06-10T14:07:56Z</time>
      </trkpt>
      <trkpt lat="48.57087" lon="-3.71709">
        <ele>134</ele>
        <time>2020-06-10T14:07:57Z</time>
      </trkpt>
      <trkpt lat="48.57086" lon="-3.71703">
        <ele>134.1</ele>
        <time>2020-06-10T14:07:58Z</time>
      </trkpt>
      <trkpt lat="48.57084" lon="-3.71694">
        <ele>134.1</ele>
        <time>2020-06-10T14:07:59Z</time>
      </trkpt>
      <trkpt lat="48.57084" lon="-3.71688">
        <ele>134.2</ele>
        <time>2020-06-10T14:08:00Z</time>
      </trkpt>
      <trkpt lat="48.57082" lon="-3.71678">
        <ele>134.2</ele>
        <time>2020-06-10T14:08:01Z</time>
      </trkpt>
      <trkpt lat="48.57081" lon="-3.7167">
        <ele>134.2</ele>
        <time>2020-06-10T14:08:02Z</time>
      </trkpt>
      <trkpt lat="48.5708" lon="-3.71662">
        <ele>134.3</ele>
        <time>2020-06-10T14:08:03Z</time>
      </trkpt>
      <trkpt lat="48.5708" lon="-3.71655">
        <ele>134.3</ele>
        <time>2020-06-10T14:08:04Z</time>
      </trkpt>
      <trkpt lat="48.57079" lon="-3.71647">
        <ele>134.3</ele>
        <time>2020-06-10T14:08:05Z</time>
      </trkpt>
      <trkpt lat="48.57079" lon="-3.71641">
        <ele>134.3</ele>
        <time>2020-06-10T14:08:06Z</time>
      </trkpt>
      <trkpt lat="48.57078" lon="-3.71633">
        <ele>134.4</ele>
        <time>2020-06-10T14:08:07Z</time>
      </trkpt>
      <trkpt lat="48.57078" lon="-3.71627">
        <ele>134.4</ele>
        <time>2020-06-10T14:08:08Z</time>
      </trkpt>
      <trkpt lat="48.57078" lon="-3.7162">
        <ele>134.5</ele>
        <time>2020-06-10T14:08:09Z</time>
      </trkpt>
      <trkpt lat="48.57078" lon="-3.71614">
        <ele>134.5</ele>
        <time>2020-06-10T14:08:10Z</time>
      </trkpt>
      <trkpt lat="48.57077" lon="-3.71608">
        <ele>134.6</ele>
        <time>2020-06-10T14:08:11Z</time>
      </trkpt>
      <trkpt lat="48.57076" lon="-3.71602">
        <ele>134.6</ele>
        <time>2020-06-10T14:08:12Z</time>
      </trkpt>
      <trkpt lat="48.57076" lon="-3.71595">
        <ele>134.7</ele>
        <time>2020-06-10T14:08:13Z</time>
      </trkpt>
      <trkpt lat="48.57075" lon="-3.71588">
        <ele>134.8</ele>
        <time>2020-06-10T14:08:14Z</time>
      </trkpt>
      <trkpt lat="48.57074" lon="-3.7158">
        <ele>134.9</ele>
        <time>2020-06-10T14:08:15Z</time>
      </trkpt>
      <trkpt lat="48.57072" lon="-3.71571">
        <ele>134.9</ele>
        <time>2020-06-10T14:08:16Z</time>
      </trkpt>
      <trkpt lat="48.57072" lon="-3.71563">
        <ele>135</ele>
        <time>2020-06-10T14:08:17Z</time>
      </trkpt>
      <trkpt lat="48.57071" lon="-3.71555">
        <ele>135</ele>
        <time>2020-06-10T14:08:18Z</time>
      </trkpt>
      <trkpt lat="48.5707" lon="-3.71548">
        <ele>135</ele>
        <time>2020-06-10T14:08:19Z</time>
      </trkpt>
      <trkpt lat="48.57069" lon="-3.71539">
        <ele>135.1</ele>
        <time>2020-06-10T14:08:20Z</time>
      </trkpt>
      <trkpt lat="48.57068" lon="-3.71531">
        <ele>135.1</ele>
        <time>2020-06-10T14:08:21Z</time>
      </trkpt>
      <trkpt lat="48.57067" lon="-3.71522">
        <ele>135.2</ele>
        <time>2020-06-10T14:08:22Z</time>
      </trkpt>
      <trkpt lat="48.57067" lon="-3.71515">
        <ele>135.3</ele>
        <time>2020-06-10T14:08:23Z</time>
      </trkpt>
      <trkpt lat="48.57066" lon="-3.71506">
        <ele>135.4</ele>
        <time>2020-06-10T14:08:24Z</time>
      </trkpt>
      <trkpt lat="48.57065" lon="-3.71498">
        <ele>135.5</ele>
        <time>2020-06-10T14:08:25Z</time>
      </trkpt>
      <trkpt lat="48.57064" lon="-3.7149">
        <ele>135.6</ele>
        <time>2020-06-10T14:08:26Z</time>
      </trkpt>
      <trkpt lat="48.57063" lon="-3.71483">
        <ele>135.6</ele>
        <time>2020-06-10T14:08:27Z</time>
      </trkpt>
      <trkpt lat="48.57063" lon="-3.71477">
        <ele>135.7</ele>
        <time>2020-06-10T14:08:28Z</time>
      </trkpt>
      <trkpt lat="48.57062" lon="-3.71468">
        <ele>135.8</ele>
        <time>2020-06-10T14:08:29Z</time>
      </trkpt>
      <trkpt lat="48.57062" lon="-3.7146">
        <ele>135.8</ele>
        <time>2020-06-10T14:08:30Z</time>
      </trkpt>
      <trkpt lat="48.57061" lon="-3.71451">
        <ele>135.9</ele>
        <time>2020-06-10T14:08:31Z</time>
      </trkpt>
      <trkpt lat="48.5706" lon="-3.71443">
        <ele>136</ele>
        <time>2020-06-10T14:08:32Z</time>
      </trkpt>
      <trkpt lat="48.5706" lon="-3.71434">
        <ele>136</ele>
        <time>2020-06-10T14:08:33Z</time>
      </trkpt>
      <trkpt lat="48.57059" lon="-3.71426">
        <ele>136.1</ele>
        <time>2020-06-10T14:08:34Z</time>
      </trkpt>
      <trkpt lat="48.57058" lon="-3.71418">
        <ele>136.2</ele>
        <time>2020-06-10T14:08:35Z</time>
      </trkpt>
      <trkpt lat="48.57057" lon="-3.71411">
        <ele>136.4</ele>
        <time>2020-06-10T14:08:36Z</time>
      </trkpt>
      <trkpt lat="48.57055" lon="-3.71403">
        <ele>136.6</ele>
        <time>2020-06-10T14:08:37Z</time>
      </trkpt>
      <trkpt lat="48.57053" lon="-3.71395">
        <ele>136.7</ele>
        <time>2020-06-10T14:08:38Z</time>
      </trkpt>
      <trkpt lat="48.57051" lon="-3.71387">
        <ele>136.9</ele>
        <time>2020-06-10T14:08:39Z</time>
      </trkpt>
      <trkpt lat="48.57051" lon="-3.71378">
        <ele>137</ele>
        <time>2020-06-10T14:08:40Z</time>
      </trkpt>
      <trkpt lat="48.5705" lon="-3.71369">
        <ele>137.1</ele>
        <time>2020-06-10T14:08:41Z</time>
      </trkpt>
      <trkpt lat="48.57049" lon="-3.71361">
        <ele>137.2</ele>
        <time>2020-06-10T14:08:42Z</time>
      </trkpt>
      <trkpt lat="48.57048" lon="-3.71354">
        <ele>137.3</ele>
        <time>2020-06-10T14:08:43Z</time>
      </trkpt>
      <trkpt lat="48.57047" lon="-3.71347">
        <ele>137.4</ele>
        <time>2020-06-10T14:08:44Z</time>
      </trkpt>
      <trkpt lat="48.57046" lon="-3.71339">
        <ele>137.5</ele>
        <time>2020-06-10T14:08:45Z</time>
      </trkpt>
      <trkpt lat="48.57045" lon="-3.71332">
        <ele>137.6</ele>
        <time>2020-06-10T14:08:46Z</time>
      </trkpt>
      <trkpt lat="48.57044" lon="-3.71325">
        <ele>137.7</ele>
        <time>2020-06-10T14:08:47Z</time>
      </trkpt>
      <trkpt lat="48.57043" lon="-3.71317">
        <ele>137.8</ele>
        <time>2020-06-10T14:08:48Z</time>
      </trkpt>
      <trkpt lat="48.57042" lon="-3.7131">
        <ele>137.9</ele>
        <time>2020-06-10T14:08:49Z</time>
      </trkpt>
      <trkpt lat="48.57042" lon="-3.71301">
        <ele>138</ele>
        <time>2020-06-10T14:08:50Z</time>
      </trkpt>
      <trkpt lat="48.57041" lon="-3.71294">
        <ele>138.1</ele>
        <time>2020-06-10T14:08:51Z</time>
      </trkpt>
      <trkpt lat="48.5704" lon="-3.71286">
        <ele>138.3</ele>
        <time>2020-06-10T14:08:52Z</time>
      </trkpt>
      <trkpt lat="48.57039" lon="-3.71278">
        <ele>138.4</ele>
        <time>2020-06-10T14:08:53Z</time>
      </trkpt>
      <trkpt lat="48.57039" lon="-3.7127">
        <ele>138.5</ele>
        <time>2020-06-10T14:08:54Z</time>
      </trkpt>
      <trkpt lat="48.57038" lon="-3.71262">
        <ele>138.6</ele>
        <time>2020-06-10T14:08:55Z</time>
      </trkpt>
      <trkpt lat="48.57037" lon="-3.71253">
        <ele>138.8</ele>
        <time>2020-06-10T14:08:56Z</time>
      </trkpt>
      <trkpt lat="48.57036" lon="-3.71245">
        <ele>138.9</ele>
        <time>2020-06-10T14:08:57Z</time>
      </trkpt>
      <trkpt lat="48.57036" lon="-3.71238">
        <ele>139.1</ele>
        <time>2020-06-10T14:08:58Z</time>
      </trkpt>
      <trkpt lat="48.57036" lon="-3.7123">
        <ele>139.2</ele>
        <time>2020-06-10T14:08:59Z</time>
      </trkpt>
      <trkpt lat="48.57035" lon="-3.71223">
        <ele>139.3</ele>
        <time>2020-06-10T14:09:00Z</time>
      </trkpt>
      <trkpt lat="48.57035" lon="-3.71215">
        <ele>139.5</ele>
        <time>2020-06-10T14:09:01Z</time>
      </trkpt>
      <trkpt lat="48.57034" lon="-3.71209">
        <ele>139.6</ele>
        <time>2020-06-10T14:09:02Z</time>
      </trkpt>
      <trkpt lat="48.57034" lon="-3.71203">
        <ele>139.7</ele>
        <time>2020-06-10T14:09:03Z</time>
      </trkpt>
      <trkpt lat="48.57033" lon="-3.71196">
        <ele>139.8</ele>
        <time>2020-06-10T14:09:04Z</time>
      </trkpt>
      <trkpt lat="48.57033" lon="-3.71188">
        <ele>139.9</ele>
        <time>2020-06-10T14:09:05Z</time>
      </trkpt>
      <trkpt lat="48.57032" lon="-3.7118">
        <ele>140</ele>
        <time>2020-06-10T14:09:06Z</time>
      </trkpt>
      <trkpt lat="48.57031" lon="-3.71171">
        <ele>140.2</ele>
        <time>2020-06-10T14:09:07Z</time>
      </trkpt>
      <trkpt lat="48.57029" lon="-3.71162">
        <ele>140.3</ele>
        <time>2020-06-10T14:09:08Z</time>
      </trkpt>
      <trkpt lat="48.57028" lon="-3.71154">
        <ele>140.4</ele>
        <time>2020-06-10T14:09:09Z</time>
      </trkpt>
      <trkpt lat="48.57027" lon="-3.71146">
        <ele>140.6</ele>
        <time>2020-06-10T14:09:10Z</time>
      </trkpt>
      <trkpt lat="48.57026" lon="-3.7114">
        <ele>140.7</ele>
        <time>2020-06-10T14:09:11Z</time>
      </trkpt>
      <trkpt lat="48.57025" lon="-3.71133">
        <ele>140.8</ele>
        <time>2020-06-10T14:09:12Z</time>
      </trkpt>
      <trkpt lat="48.57024" lon="-3.71126">
        <ele>140.9</ele>
        <time>2020-06-10T14:09:13Z</time>
      </trkpt>
      <trkpt lat="48.57023" lon="-3.71116">
        <ele>141.1</ele>
        <time>2020-06-10T14:09:14Z</time>
      </trkpt>
      <trkpt lat="48.57022" lon="-3.71108">
        <ele>141.3</ele>
        <time>2020-06-10T14:09:15Z</time>
      </trkpt>
      <trkpt lat="48.57022" lon="-3.71101">
        <ele>141.4</ele>
        <time>2020-06-10T14:09:16Z</time>
      </trkpt>
      <trkpt lat="48.57021" lon="-3.71093">
        <ele>141.5</ele>
        <time>2020-06-10T14:09:17Z</time>
      </trkpt>
      <trkpt lat="48.5702" lon="-3.71085">
        <ele>141.6</ele>
        <time>2020-06-10T14:09:18Z</time>
      </trkpt>
      <trkpt lat="48.57019" lon="-3.71077">
        <ele>141.8</ele>
        <time>2020-06-10T14:09:19Z</time>
      </trkpt>
      <trkpt lat="48.57019" lon="-3.7107">
        <ele>141.9</ele>
        <time>2020-06-10T14:09:20Z</time>
      </trkpt>
      <trkpt lat="48.57018" lon="-3.71062">
        <ele>142</ele>
        <time>2020-06-10T14:09:21Z</time>
      </trkpt>
      <trkpt lat="48.57017" lon="-3.71054">
        <ele>142.1</ele>
        <time>2020-06-10T14:09:22Z</time>
      </trkpt>
      <trkpt lat="48.57016" lon="-3.71046">
        <ele>142.2</ele>
        <time>2020-06-10T14:09:23Z</time>
      </trkpt>
      <trkpt lat="48.57015" lon="-3.71039">
        <ele>142.3</ele>
        <time>2020-06-10T14:09:24Z</time>
      </trkpt>
      <trkpt lat="48.57015" lon="-3.71031">
        <ele>142.5</ele>
        <time>2020-06-10T14:09:25Z</time>
      </trkpt>
      <trkpt lat="48.57014" lon="-3.71024">
        <ele>142.5</ele>
        <time>2020-06-10T14:09:26Z</time>
      </trkpt>
      <trkpt lat="48.57014" lon="-3.71016">
        <ele>142.6</ele>
        <time>2020-06-10T14:09:27Z</time>
      </trkpt>
      <trkpt lat="48.57013" lon="-3.71008">
        <ele>142.8</ele>
        <time>2020-06-10T14:09:28Z</time>
      </trkpt>
      <trkpt lat="48.57013" lon="-3.71">
        <ele>142.9</ele>
        <time>2020-06-10T14:09:29Z</time>
      </trkpt>
      <trkpt lat="48.57012" lon="-3.70993">
        <ele>143</ele>
        <time>2020-06-10T14:09:30Z</time>
      </trkpt>
      <trkpt lat="48.57012" lon="-3.70985">
        <ele>143.1</ele>
        <time>2020-06-10T14:09:31Z</time>
      </trkpt>
      <trkpt lat="48.57011" lon="-3.70979">
        <ele>143.2</ele>
        <time>2020-06-10T14:09:32Z</time>
      </trkpt>
      <trkpt lat="48.5701" lon="-3.70972">
        <ele>143.3</ele>
        <time>2020-06-10T14:09:33Z</time>
      </trkpt>
      <trkpt lat="48.57008" lon="-3.70963">
        <ele>143.5</ele>
        <time>2020-06-10T14:09:34Z</time>
      </trkpt>
      <trkpt lat="48.57007" lon="-3.70956">
        <ele>143.6</ele>
        <time>2020-06-10T14:09:35Z</time>
      </trkpt>
      <trkpt lat="48.57007" lon="-3.70949">
        <ele>143.8</ele>
        <time>2020-06-10T14:09:36Z</time>
      </trkpt>
      <trkpt lat="48.57005" lon="-3.70942">
        <ele>144</ele>
        <time>2020-06-10T14:09:37Z</time>
      </trkpt>
      <trkpt lat="48.57005" lon="-3.70935">
        <ele>144.1</ele>
        <time>2020-06-10T14:09:38Z</time>
      </trkpt>
      <trkpt lat="48.57004" lon="-3.70928">
        <ele>144.3</ele>
        <time>2020-06-10T14:09:39Z</time>
      </trkpt>
      <trkpt lat="48.57004" lon="-3.70922">
        <ele>144.5</ele>
        <time>2020-06-10T14:09:40Z</time>
      </trkpt>
      <trkpt lat="48.57004" lon="-3.70916">
        <ele>144.6</ele>
        <time>2020-06-10T14:09:41Z</time>
      </trkpt>
      <trkpt lat="48.57003" lon="-3.70909">
        <ele>144.8</ele>
        <time>2020-06-10T14:09:42Z</time>
      </trkpt>
      <trkpt lat="48.57003" lon="-3.70903">
        <ele>144.9</ele>
        <time>2020-06-10T14:09:43Z</time>
      </trkpt>
      <trkpt lat="48.57002" lon="-3.70897">
        <ele>145.1</ele>
        <time>2020-06-10T14:09:44Z</time>
      </trkpt>
      <trkpt lat="48.57001" lon="-3.70892">
        <ele>145.2</ele>
        <time>2020-06-10T14:09:45Z</time>
      </trkpt>
      <trkpt lat="48.57001" lon="-3.70886">
        <ele>145.4</ele>
        <time>2020-06-10T14:09:46Z</time>
      </trkpt>
      <trkpt lat="48.57" lon="-3.70881">
        <ele>145.5</ele>
        <time>2020-06-10T14:09:47Z</time>
      </trkpt>
      <trkpt lat="48.56999" lon="-3.70875">
        <ele>145.7</ele>
        <time>2020-06-10T14:09:48Z</time>
      </trkpt>
      <trkpt lat="48.56999" lon="-3.70868">
        <ele>145.9</ele>
        <time>2020-06-10T14:09:49Z</time>
      </trkpt>
      <trkpt lat="48.56998" lon="-3.70862">
        <ele>146</ele>
        <time>2020-06-10T14:09:50Z</time>
      </trkpt>
      <trkpt lat="48.56998" lon="-3.70857">
        <ele>146.2</ele>
        <time>2020-06-10T14:09:51Z</time>
      </trkpt>
      <trkpt lat="48.56998" lon="-3.70851">
        <ele>146.3</ele>
        <time>2020-06-10T14:09:52Z</time>
      </trkpt>
      <trkpt lat="48.56997" lon="-3.70845">
        <ele>146.5</ele>
        <time>2020-06-10T14:09:53Z</time>
      </trkpt>
      <trkpt lat="48.56996" lon="-3.7084">
        <ele>146.6</ele>
        <time>2020-06-10T14:09:54Z</time>
      </trkpt>
      <trkpt lat="48.56996" lon="-3.70834">
        <ele>146.8</ele>
        <time>2020-06-10T14:09:55Z</time>
      </trkpt>
      <trkpt lat="48.56997" lon="-3.70828">
        <ele>146.9</ele>
        <time>2020-06-10T14:09:56Z</time>
      </trkpt>
      <trkpt lat="48.56997" lon="-3.70823">
        <ele>147.2</ele>
        <time>2020-06-10T14:09:57Z</time>
      </trkpt>
      <trkpt lat="48.56997" lon="-3.70816">
        <ele>147.6</ele>
        <time>2020-06-10T14:09:58Z</time>
      </trkpt>
      <trkpt lat="48.56997" lon="-3.70811">
        <ele>147.9</ele>
        <time>2020-06-10T14:09:59Z</time>
      </trkpt>
      <trkpt lat="48.56996" lon="-3.70805">
        <ele>148.3</ele>
        <time>2020-06-10T14:10:00Z</time>
      </trkpt>
      <trkpt lat="48.56995" lon="-3.70799">
        <ele>148.6</ele>
        <time>2020-06-10T14:10:01Z</time>
      </trkpt>
      <trkpt lat="48.56994" lon="-3.70792">
        <ele>148.7</ele>
        <time>2020-06-10T14:10:02Z</time>
      </trkpt>
      <trkpt lat="48.56994" lon="-3.70786">
        <ele>148.7</ele>
        <time>2020-06-10T14:10:03Z</time>
      </trkpt>
      <trkpt lat="48.56993" lon="-3.70781">
        <ele>148.6</ele>
        <time>2020-06-10T14:10:04Z</time>
      </trkpt>
      <trkpt lat="48.56993" lon="-3.70776">
        <ele>148.8</ele>
        <time>2020-06-10T14:10:05Z</time>
      </trkpt>
      <trkpt lat="48.56993" lon="-3.70771">
        <ele>148.9</ele>
        <time>2020-06-10T14:10:06Z</time>
      </trkpt>
      <trkpt lat="48.56992" lon="-3.70765">
        <ele>149.1</ele>
        <time>2020-06-10T14:10:07Z</time>
      </trkpt>
      <trkpt lat="48.56991" lon="-3.7076">
        <ele>149.3</ele>
        <time>2020-06-10T14:10:08Z</time>
      </trkpt>
      <trkpt lat="48.56991" lon="-3.70753">
        <ele>149.4</ele>
        <time>2020-06-10T14:10:09Z</time>
      </trkpt>
      <trkpt lat="48.5699" lon="-3.70745">
        <ele>149.7</ele>
        <time>2020-06-10T14:10:10Z</time>
      </trkpt>
      <trkpt lat="48.56989" lon="-3.70738">
        <ele>149.8</ele>
        <time>2020-06-10T14:10:11Z</time>
      </trkpt>
      <trkpt lat="48.56989" lon="-3.70731">
        <ele>150</ele>
        <time>2020-06-10T14:10:12Z</time>
      </trkpt>
      <trkpt lat="48.56988" lon="-3.70726">
        <ele>150.2</ele>
        <time>2020-06-10T14:10:13Z</time>
      </trkpt>
      <trkpt lat="48.56988" lon="-3.7072">
        <ele>150.3</ele>
        <time>2020-06-10T14:10:14Z</time>
      </trkpt>
      <trkpt lat="48.56987" lon="-3.70714">
        <ele>150.5</ele>
        <time>2020-06-10T14:10:15Z</time>
      </trkpt>
      <trkpt lat="48.56987" lon="-3.70712">
        <ele>150.5</ele>
        <time>2020-06-10T14:10:16Z</time>
      </trkpt>
      <trkpt lat="48.56986" lon="-3.70706">
        <ele>150.7</ele>
        <time>2020-06-10T14:10:17Z</time>
      </trkpt>
      <trkpt lat="48.56985" lon="-3.707">
        <ele>150.9</ele>
        <time>2020-06-10T14:10:18Z</time>
      </trkpt>
      <trkpt lat="48.56985" lon="-3.70696">
        <ele>151</ele>
        <time>2020-06-10T14:10:19Z</time>
      </trkpt>
      <trkpt lat="48.56984" lon="-3.70687">
        <ele>151.2</ele>
        <time>2020-06-10T14:10:20Z</time>
      </trkpt>
      <trkpt lat="48.56984" lon="-3.70681">
        <ele>151.3</ele>
        <time>2020-06-10T14:10:21Z</time>
      </trkpt>
      <trkpt lat="48.56983" lon="-3.70675">
        <ele>151.5</ele>
        <time>2020-06-10T14:10:22Z</time>
      </trkpt>
      <trkpt lat="48.56983" lon="-3.7067">
        <ele>151.6</ele>
        <time>2020-06-10T14:10:23Z</time>
      </trkpt>
      <trkpt lat="48.56982" lon="-3.70666">
        <ele>151.7</ele>
        <time>2020-06-10T14:10:24Z</time>
      </trkpt>
      <trkpt lat="48.56982" lon="-3.70657">
        <ele>151.9</ele>
        <time>2020-06-10T14:10:25Z</time>
      </trkpt>
      <trkpt lat="48.56982" lon="-3.70652">
        <ele>152</ele>
        <time>2020-06-10T14:10:26Z</time>
      </trkpt>
      <trkpt lat="48.56982" lon="-3.70646">
        <ele>152.1</ele>
        <time>2020-06-10T14:10:27Z</time>
      </trkpt>
      <trkpt lat="48.56981" lon="-3.70638">
        <ele>152.3</ele>
        <time>2020-06-10T14:10:28Z</time>
      </trkpt>
      <trkpt lat="48.5698" lon="-3.70632">
        <ele>152.4</ele>
        <time>2020-06-10T14:10:29Z</time>
      </trkpt>
      <trkpt lat="48.56979" lon="-3.70625">
        <ele>152.6</ele>
        <time>2020-06-10T14:10:30Z</time>
      </trkpt>
      <trkpt lat="48.56978" lon="-3.7062">
        <ele>152.7</ele>
        <time>2020-06-10T14:10:31Z</time>
      </trkpt>
      <trkpt lat="48.56976" lon="-3.70613">
        <ele>152.8</ele>
        <time>2020-06-10T14:10:32Z</time>
      </trkpt>
      <trkpt lat="48.56976" lon="-3.70608">
        <ele>152.9</ele>
        <time>2020-06-10T14:10:33Z</time>
      </trkpt>
      <trkpt lat="48.56975" lon="-3.70603">
        <ele>153</ele>
        <time>2020-06-10T14:10:34Z</time>
      </trkpt>
      <trkpt lat="48.56974" lon="-3.70598">
        <ele>153.1</ele>
        <time>2020-06-10T14:10:35Z</time>
      </trkpt>
      <trkpt lat="48.56974" lon="-3.70591">
        <ele>153.2</ele>
        <time>2020-06-10T14:10:36Z</time>
      </trkpt>
      <trkpt lat="48.56974" lon="-3.70585">
        <ele>153.4</ele>
        <time>2020-06-10T14:10:37Z</time>
      </trkpt>
      <trkpt lat="48.56972" lon="-3.70577">
        <ele>153.5</ele>
        <time>2020-06-10T14:10:38Z</time>
      </trkpt>
      <trkpt lat="48.56972" lon="-3.7057">
        <ele>153.6</ele>
        <time>2020-06-10T14:10:39Z</time>
      </trkpt>
      <trkpt lat="48.56972" lon="-3.70563">
        <ele>153.8</ele>
        <time>2020-06-10T14:10:40Z</time>
      </trkpt>
      <trkpt lat="48.56971" lon="-3.70557">
        <ele>153.9</ele>
        <time>2020-06-10T14:10:41Z</time>
      </trkpt>
      <trkpt lat="48.56971" lon="-3.70552">
        <ele>154</ele>
        <time>2020-06-10T14:10:42Z</time>
      </trkpt>
      <trkpt lat="48.56971" lon="-3.70545">
        <ele>154.1</ele>
        <time>2020-06-10T14:10:43Z</time>
      </trkpt>
      <trkpt lat="48.56971" lon="-3.7054">
        <ele>154.2</ele>
        <time>2020-06-10T14:10:44Z</time>
      </trkpt>
      <trkpt lat="48.5697" lon="-3.70535">
        <ele>154.3</ele>
        <time>2020-06-10T14:10:45Z</time>
      </trkpt>
      <trkpt lat="48.56969" lon="-3.70529">
        <ele>154.5</ele>
        <time>2020-06-10T14:10:46Z</time>
      </trkpt>
      <trkpt lat="48.56968" lon="-3.70524">
        <ele>154.6</ele>
        <time>2020-06-10T14:10:47Z</time>
      </trkpt>
      <trkpt lat="48.56966" lon="-3.70515">
        <ele>154.8</ele>
        <time>2020-06-10T14:10:48Z</time>
      </trkpt>
      <trkpt lat="48.56965" lon="-3.70509">
        <ele>154.9</ele>
        <time>2020-06-10T14:10:49Z</time>
      </trkpt>
      <trkpt lat="48.56964" lon="-3.70503">
        <ele>155.1</ele>
        <time>2020-06-10T14:10:50Z</time>
      </trkpt>
      <trkpt lat="48.56964" lon="-3.70498">
        <ele>155.2</ele>
        <time>2020-06-10T14:10:51Z</time>
      </trkpt>
      <trkpt lat="48.56963" lon="-3.70491">
        <ele>155.3</ele>
        <time>2020-06-10T14:10:52Z</time>
      </trkpt>
      <trkpt lat="48.56964" lon="-3.70486">
        <ele>155.4</ele>
        <time>2020-06-10T14:10:53Z</time>
      </trkpt>
      <trkpt lat="48.56964" lon="-3.70479">
        <ele>155.6</ele>
        <time>2020-06-10T14:10:54Z</time>
      </trkpt>
      <trkpt lat="48.56962" lon="-3.70473">
        <ele>155.8</ele>
        <time>2020-06-10T14:10:55Z</time>
      </trkpt>
      <trkpt lat="48.56962" lon="-3.70466">
        <ele>156</ele>
        <time>2020-06-10T14:10:56Z</time>
      </trkpt>
      <trkpt lat="48.56961" lon="-3.70459">
        <ele>156.1</ele>
        <time>2020-06-10T14:10:57Z</time>
      </trkpt>
      <trkpt lat="48.56961" lon="-3.70453">
        <ele>156.3</ele>
        <time>2020-06-10T14:10:58Z</time>
      </trkpt>
      <trkpt lat="48.56961" lon="-3.70447">
        <ele>156.4</ele>
        <time>2020-06-10T14:10:59Z</time>
      </trkpt>
      <trkpt lat="48.56961" lon="-3.70441">
        <ele>156.7</ele>
        <time>2020-06-10T14:11:00Z</time>
      </trkpt>
      <trkpt lat="48.5696" lon="-3.70434">
        <ele>156.9</ele>
        <time>2020-06-10T14:11:01Z</time>
      </trkpt>
      <trkpt lat="48.5696" lon="-3.70428">
        <ele>157</ele>
        <time>2020-06-10T14:11:02Z</time>
      </trkpt>
      <trkpt lat="48.56959" lon="-3.70424">
        <ele>157.2</ele>
        <time>2020-06-10T14:11:03Z</time>
      </trkpt>
      <trkpt lat="48.56958" lon="-3.70418">
        <ele>157.3</ele>
        <time>2020-06-10T14:11:04Z</time>
      </trkpt>
      <trkpt lat="48.56956" lon="-3.70411">
        <ele>157.5</ele>
        <time>2020-06-10T14:11:05Z</time>
      </trkpt>
      <trkpt lat="48.56955" lon="-3.70404">
        <ele>157.7</ele>
        <time>2020-06-10T14:11:06Z</time>
      </trkpt>
      <trkpt lat="48.56955" lon="-3.70398">
        <ele>157.9</ele>
        <time>2020-06-10T14:11:07Z</time>
      </trkpt>
      <trkpt lat="48.56954" lon="-3.70393">
        <ele>158</ele>
        <time>2020-06-10T14:11:08Z</time>
      </trkpt>
      <trkpt lat="48.56953" lon="-3.70386">
        <ele>158.2</ele>
        <time>2020-06-10T14:11:09Z</time>
      </trkpt>
      <trkpt lat="48.56952" lon="-3.7038">
        <ele>158.4</ele>
        <time>2020-06-10T14:11:10Z</time>
      </trkpt>
      <trkpt lat="48.56952" lon="-3.70374">
        <ele>158.5</ele>
        <time>2020-06-10T14:11:11Z</time>
      </trkpt>
      <trkpt lat="48.56951" lon="-3.70367">
        <ele>158.7</ele>
        <time>2020-06-10T14:11:12Z</time>
      </trkpt>
      <trkpt lat="48.56951" lon="-3.7036">
        <ele>158.8</ele>
        <time>2020-06-10T14:11:13Z</time>
      </trkpt>
      <trkpt lat="48.5695" lon="-3.70353">
        <ele>159</ele>
        <time>2020-06-10T14:11:14Z</time>
      </trkpt>
      <trkpt lat="48.5695" lon="-3.70344">
        <ele>159.2</ele>
        <time>2020-06-10T14:11:15Z</time>
      </trkpt>
      <trkpt lat="48.56949" lon="-3.70335">
        <ele>159.4</ele>
        <time>2020-06-10T14:11:16Z</time>
      </trkpt>
      <trkpt lat="48.56948" lon="-3.70329">
        <ele>159.6</ele>
        <time>2020-06-10T14:11:17Z</time>
      </trkpt>
      <trkpt lat="48.56947" lon="-3.70323">
        <ele>159.7</ele>
        <time>2020-06-10T14:11:18Z</time>
      </trkpt>
      <trkpt lat="48.56947" lon="-3.70318">
        <ele>159.8</ele>
        <time>2020-06-10T14:11:19Z</time>
      </trkpt>
      <trkpt lat="48.56946" lon="-3.70312">
        <ele>159.9</ele>
        <time>2020-06-10T14:11:20Z</time>
      </trkpt>
      <trkpt lat="48.56946" lon="-3.70304">
        <ele>160.1</ele>
        <time>2020-06-10T14:11:21Z</time>
      </trkpt>
      <trkpt lat="48.56946" lon="-3.70298">
        <ele>160.2</ele>
        <time>2020-06-10T14:11:22Z</time>
      </trkpt>
      <trkpt lat="48.56946" lon="-3.70289">
        <ele>160.4</ele>
        <time>2020-06-10T14:11:23Z</time>
      </trkpt>
      <trkpt lat="48.56946" lon="-3.70282">
        <ele>160.6</ele>
        <time>2020-06-10T14:11:24Z</time>
      </trkpt>
      <trkpt lat="48.56945" lon="-3.70276">
        <ele>160.8</ele>
        <time>2020-06-10T14:11:25Z</time>
      </trkpt>
      <trkpt lat="48.56944" lon="-3.70269">
        <ele>160.8</ele>
        <time>2020-06-10T14:11:26Z</time>
      </trkpt>
      <trkpt lat="48.56944" lon="-3.70264">
        <ele>160.8</ele>
        <time>2020-06-10T14:11:27Z</time>
      </trkpt>
      <trkpt lat="48.56943" lon="-3.70257">
        <ele>161</ele>
        <time>2020-06-10T14:11:28Z</time>
      </trkpt>
      <trkpt lat="48.56942" lon="-3.70251">
        <ele>161.1</ele>
        <time>2020-06-10T14:11:29Z</time>
      </trkpt>
      <trkpt lat="48.56941" lon="-3.70244">
        <ele>161.2</ele>
        <time>2020-06-10T14:11:30Z</time>
      </trkpt>
      <trkpt lat="48.56941" lon="-3.70237">
        <ele>161.3</ele>
        <time>2020-06-10T14:11:31Z</time>
      </trkpt>
      <trkpt lat="48.5694" lon="-3.70232">
        <ele>161.4</ele>
        <time>2020-06-10T14:11:32Z</time>
      </trkpt>
      <trkpt lat="48.56939" lon="-3.70226">
        <ele>161.5</ele>
        <time>2020-06-10T14:11:33Z</time>
      </trkpt>
      <trkpt lat="48.56939" lon="-3.70221">
        <ele>161.5</ele>
        <time>2020-06-10T14:11:34Z</time>
      </trkpt>
      <trkpt lat="48.56939" lon="-3.70214">
        <ele>161.6</ele>
        <time>2020-06-10T14:11:35Z</time>
      </trkpt>
      <trkpt lat="48.56939" lon="-3.70207">
        <ele>161.7</ele>
        <time>2020-06-10T14:11:36Z</time>
      </trkpt>
      <trkpt lat="48.56939" lon="-3.70201">
        <ele>161.8</ele>
        <time>2020-06-10T14:11:37Z</time>
      </trkpt>
      <trkpt lat="48.56939" lon="-3.70193">
        <ele>161.9</ele>
        <time>2020-06-10T14:11:38Z</time>
      </trkpt>
      <trkpt lat="48.56938" lon="-3.70187">
        <ele>162</ele>
        <time>2020-06-10T14:11:39Z</time>
      </trkpt>
      <trkpt lat="48.56938" lon="-3.7018">
        <ele>162.1</ele>
        <time>2020-06-10T14:11:40Z</time>
      </trkpt>
      <trkpt lat="48.56936" lon="-3.70172">
        <ele>162.2</ele>
        <time>2020-06-10T14:11:41Z</time>
      </trkpt>
      <trkpt lat="48.56935" lon="-3.70167">
        <ele>162.3</ele>
        <time>2020-06-10T14:11:42Z</time>
      </trkpt>
      <trkpt lat="48.56935" lon="-3.7016">
        <ele>162.3</ele>
        <time>2020-06-10T14:11:43Z</time>
      </trkpt>
      <trkpt lat="48.56936" lon="-3.70153">
        <ele>162.4</ele>
        <time>2020-06-10T14:11:44Z</time>
      </trkpt>
      <trkpt lat="48.56934" lon="-3.70147">
        <ele>162.5</ele>
        <time>2020-06-10T14:11:45Z</time>
      </trkpt>
      <trkpt lat="48.56933" lon="-3.7014">
        <ele>162.5</ele>
        <time>2020-06-10T14:11:46Z</time>
      </trkpt>
      <trkpt lat="48.56933" lon="-3.70133">
        <ele>162.6</ele>
        <time>2020-06-10T14:11:47Z</time>
      </trkpt>
      <trkpt lat="48.56932" lon="-3.70125">
        <ele>162.7</ele>
        <time>2020-06-10T14:11:48Z</time>
      </trkpt>
      <trkpt lat="48.56932" lon="-3.70118">
        <ele>162.8</ele>
        <time>2020-06-10T14:11:49Z</time>
      </trkpt>
      <trkpt lat="48.56932" lon="-3.70111">
        <ele>162.9</ele>
        <time>2020-06-10T14:11:50Z</time>
      </trkpt>
      <trkpt lat="48.56932" lon="-3.70104">
        <ele>163</ele>
        <time>2020-06-10T14:11:51Z</time>
      </trkpt>
      <trkpt lat="48.56931" lon="-3.70097">
        <ele>163</ele>
        <time>2020-06-10T14:11:52Z</time>
      </trkpt>
      <trkpt lat="48.56931" lon="-3.70089">
        <ele>163.1</ele>
        <time>2020-06-10T14:11:53Z</time>
      </trkpt>
      <trkpt lat="48.5693" lon="-3.70083">
        <ele>163.2</ele>
        <time>2020-06-10T14:11:54Z</time>
      </trkpt>
      <trkpt lat="48.56929" lon="-3.70074">
        <ele>163.3</ele>
        <time>2020-06-10T14:11:55Z</time>
      </trkpt>
      <trkpt lat="48.56929" lon="-3.70068">
        <ele>163.4</ele>
        <time>2020-06-10T14:11:56Z</time>
      </trkpt>
      <trkpt lat="48.56927" lon="-3.70062">
        <ele>163.4</ele>
        <time>2020-06-10T14:11:57Z</time>
      </trkpt>
      <trkpt lat="48.56927" lon="-3.70055">
        <ele>163.5</ele>
        <time>2020-06-10T14:11:58Z</time>
      </trkpt>
      <trkpt lat="48.56927" lon="-3.70049">
        <ele>163.6</ele>
        <time>2020-06-10T14:11:59Z</time>
      </trkpt>
      <trkpt lat="48.56926" lon="-3.70042">
        <ele>163.7</ele>
        <time>2020-06-10T14:12:00Z</time>
      </trkpt>
      <trkpt lat="48.56926" lon="-3.70034">
        <ele>163.8</ele>
        <time>2020-06-10T14:12:01Z</time>
      </trkpt>
      <trkpt lat="48.56926" lon="-3.70026">
        <ele>163.9</ele>
        <time>2020-06-10T14:12:02Z</time>
      </trkpt>
      <trkpt lat="48.56926" lon="-3.70019">
        <ele>164</ele>
        <time>2020-06-10T14:12:03Z</time>
      </trkpt>
      <trkpt lat="48.56925" lon="-3.70012">
        <ele>164</ele>
        <time>2020-06-10T14:12:04Z</time>
      </trkpt>
      <trkpt lat="48.56925" lon="-3.70005">
        <ele>164.1</ele>
        <time>2020-06-10T14:12:05Z</time>
      </trkpt>
      <trkpt lat="48.56924" lon="-3.69996">
        <ele>164.3</ele>
        <time>2020-06-10T14:12:06Z</time>
      </trkpt>
      <trkpt lat="48.56923" lon="-3.69989">
        <ele>164.4</ele>
        <time>2020-06-10T14:12:07Z</time>
      </trkpt>
      <trkpt lat="48.56923" lon="-3.69981">
        <ele>164.6</ele>
        <time>2020-06-10T14:12:08Z</time>
      </trkpt>
      <trkpt lat="48.56922" lon="-3.69974">
        <ele>164.7</ele>
        <time>2020-06-10T14:12:09Z</time>
      </trkpt>
      <trkpt lat="48.56921" lon="-3.69967">
        <ele>164.9</ele>
        <time>2020-06-10T14:12:10Z</time>
      </trkpt>
      <trkpt lat="48.5692" lon="-3.6996">
        <ele>165</ele>
        <time>2020-06-10T14:12:11Z</time>
      </trkpt>
      <trkpt lat="48.56919" lon="-3.69953">
        <ele>165.1</ele>
        <time>2020-06-10T14:12:12Z</time>
      </trkpt>
      <trkpt lat="48.56918" lon="-3.69946">
        <ele>165.2</ele>
        <time>2020-06-10T14:12:13Z</time>
      </trkpt>
      <trkpt lat="48.56918" lon="-3.69939">
        <ele>165.4</ele>
        <time>2020-06-10T14:12:14Z</time>
      </trkpt>
      <trkpt lat="48.56918" lon="-3.69931">
        <ele>165.5</ele>
        <time>2020-06-10T14:12:15Z</time>
      </trkpt>
      <trkpt lat="48.56918" lon="-3.69924">
        <ele>165.6</ele>
        <time>2020-06-10T14:12:16Z</time>
      </trkpt>
      <trkpt lat="48.56917" lon="-3.69915">
        <ele>165.7</ele>
        <time>2020-06-10T14:12:17Z</time>
      </trkpt>
      <trkpt lat="48.56917" lon="-3.69908">
        <ele>165.7</ele>
        <time>2020-06-10T14:12:18Z</time>
      </trkpt>
      <trkpt lat="48.56916" lon="-3.69901">
        <ele>165.8</ele>
        <time>2020-06-10T14:12:19Z</time>
      </trkpt>
      <trkpt lat="48.56916" lon="-3.69893">
        <ele>165.9</ele>
        <time>2020-06-10T14:12:20Z</time>
      </trkpt>
      <trkpt lat="48.56915" lon="-3.69886">
        <ele>165.9</ele>
        <time>2020-06-10T14:12:21Z</time>
      </trkpt>
      <trkpt lat="48.56914" lon="-3.6988">
        <ele>166</ele>
        <time>2020-06-10T14:12:22Z</time>
      </trkpt>
      <trkpt lat="48.56914" lon="-3.69873">
        <ele>166.1</ele>
        <time>2020-06-10T14:12:23Z</time>
      </trkpt>
      <trkpt lat="48.56914" lon="-3.69865">
        <ele>166.2</ele>
        <time>2020-06-10T14:12:24Z</time>
      </trkpt>
      <trkpt lat="48.56913" lon="-3.6986">
        <ele>166.2</ele>
        <time>2020-06-10T14:12:25Z</time>
      </trkpt>
      <trkpt lat="48.56912" lon="-3.69853">
        <ele>166.3</ele>
        <time>2020-06-10T14:12:26Z</time>
      </trkpt>
      <trkpt lat="48.56912" lon="-3.69846">
        <ele>166.4</ele>
        <time>2020-06-10T14:12:27Z</time>
      </trkpt>
      <trkpt lat="48.56911" lon="-3.6984">
        <ele>166.4</ele>
        <time>2020-06-10T14:12:28Z</time>
      </trkpt>
      <trkpt lat="48.56912" lon="-3.69833">
        <ele>166.5</ele>
        <time>2020-06-10T14:12:29Z</time>
      </trkpt>
      <trkpt lat="48.56912" lon="-3.69826">
        <ele>166.6</ele>
        <time>2020-06-10T14:12:30Z</time>
      </trkpt>
      <trkpt lat="48.56912" lon="-3.69818">
        <ele>166.7</ele>
        <time>2020-06-10T14:12:31Z</time>
      </trkpt>
      <trkpt lat="48.56912" lon="-3.69811">
        <ele>166.8</ele>
        <time>2020-06-10T14:12:32Z</time>
      </trkpt>
      <trkpt lat="48.56911" lon="-3.69803">
        <ele>166.9</ele>
        <time>2020-06-10T14:12:33Z</time>
      </trkpt>
      <trkpt lat="48.5691" lon="-3.69795">
        <ele>167</ele>
        <time>2020-06-10T14:12:34Z</time>
      </trkpt>
      <trkpt lat="48.56909" lon="-3.69787">
        <ele>167</ele>
        <time>2020-06-10T14:12:35Z</time>
      </trkpt>
      <trkpt lat="48.56908" lon="-3.6978">
        <ele>167.1</ele>
        <time>2020-06-10T14:12:36Z</time>
      </trkpt>
      <trkpt lat="48.56908" lon="-3.69772">
        <ele>167.2</ele>
        <time>2020-06-10T14:12:37Z</time>
      </trkpt>
      <trkpt lat="48.56907" lon="-3.69765">
        <ele>167.3</ele>
        <time>2020-06-10T14:12:38Z</time>
      </trkpt>
      <trkpt lat="48.56907" lon="-3.69757">
        <ele>167.4</ele>
        <time>2020-06-10T14:12:39Z</time>
      </trkpt>
      <trkpt lat="48.56907" lon="-3.69748">
        <ele>167.5</ele>
        <time>2020-06-10T14:12:40Z</time>
      </trkpt>
      <trkpt lat="48.56906" lon="-3.69741">
        <ele>167.6</ele>
        <time>2020-06-10T14:12:41Z</time>
      </trkpt>
      <trkpt lat="48.56906" lon="-3.69733">
        <ele>167.6</ele>
        <time>2020-06-10T14:12:42Z</time>
      </trkpt>
      <trkpt lat="48.56904" lon="-3.69727">
        <ele>167.7</ele>
        <time>2020-06-10T14:12:43Z</time>
      </trkpt>
      <trkpt lat="48.56904" lon="-3.69719">
        <ele>167.8</ele>
        <time>2020-06-10T14:12:44Z</time>
      </trkpt>
      <trkpt lat="48.56903" lon="-3.69712">
        <ele>167.8</ele>
        <time>2020-06-10T14:12:45Z</time>
      </trkpt>
      <trkpt lat="48.56903" lon="-3.69704">
        <ele>167.9</ele>
        <time>2020-06-10T14:12:46Z</time>
      </trkpt>
      <trkpt lat="48.56902" lon="-3.69696">
        <ele>168</ele>
        <time>2020-06-10T14:12:47Z</time>
      </trkpt>
      <trkpt lat="48.56902" lon="-3.69689">
        <ele>168.1</ele>
        <time>2020-06-10T14:12:48Z</time>
      </trkpt>
      <trkpt lat="48.56901" lon="-3.69681">
        <ele>168.1</ele>
        <time>2020-06-10T14:12:49Z</time>
      </trkpt>
      <trkpt lat="48.569" lon="-3.69673">
        <ele>168.2</ele>
        <time>2020-06-10T14:12:50Z</time>
      </trkpt>
      <trkpt lat="48.569" lon="-3.69665">
        <ele>168.3</ele>
        <time>2020-06-10T14:12:51Z</time>
      </trkpt>
      <trkpt lat="48.569" lon="-3.69656">
        <ele>168.4</ele>
        <time>2020-06-10T14:12:52Z</time>
      </trkpt>
      <trkpt lat="48.569" lon="-3.69649">
        <ele>168.4</ele>
        <time>2020-06-10T14:12:53Z</time>
      </trkpt>
      <trkpt lat="48.569" lon="-3.69639">
        <ele>168.5</ele>
        <time>2020-06-10T14:12:54Z</time>
      </trkpt>
      <trkpt lat="48.56899" lon="-3.69632">
        <ele>168.6</ele>
        <time>2020-06-10T14:12:55Z</time>
      </trkpt>
      <trkpt lat="48.56899" lon="-3.69624">
        <ele>168.7</ele>
        <time>2020-06-10T14:12:56Z</time>
      </trkpt>
      <trkpt lat="48.56898" lon="-3.69617">
        <ele>168.7</ele>
        <time>2020-06-10T14:12:57Z</time>
      </trkpt>
      <trkpt lat="48.56898" lon="-3.6961">
        <ele>168.8</ele>
        <time>2020-06-10T14:12:58Z</time>
      </trkpt>
      <trkpt lat="48.56897" lon="-3.69602">
        <ele>168.9</ele>
        <time>2020-06-10T14:12:59Z</time>
      </trkpt>
      <trkpt lat="48.56896" lon="-3.69594">
        <ele>168.9</ele>
        <time>2020-06-10T14:13:00Z</time>
      </trkpt>
      <trkpt lat="48.56895" lon="-3.69586">
        <ele>169</ele>
        <time>2020-06-10T14:13:01Z</time>
      </trkpt>
      <trkpt lat="48.56894" lon="-3.69579">
        <ele>169</ele>
        <time>2020-06-10T14:13:02Z</time>
      </trkpt>
      <trkpt lat="48.56894" lon="-3.69571">
        <ele>169.1</ele>
        <time>2020-06-10T14:13:03Z</time>
      </trkpt>
      <trkpt lat="48.56894" lon="-3.69564">
        <ele>169.1</ele>
        <time>2020-06-10T14:13:04Z</time>
      </trkpt>
      <trkpt lat="48.56893" lon="-3.69557">
        <ele>169.1</ele>
        <time>2020-06-10T14:13:05Z</time>
      </trkpt>
      <trkpt lat="48.56892" lon="-3.6955">
        <ele>169.1</ele>
        <time>2020-06-10T14:13:06Z</time>
      </trkpt>
      <trkpt lat="48.56892" lon="-3.69542">
        <ele>169.1</ele>
        <time>2020-06-10T14:13:07Z</time>
      </trkpt>
      <trkpt lat="48.56891" lon="-3.69534">
        <ele>169.2</ele>
        <time>2020-06-10T14:13:08Z</time>
      </trkpt>
      <trkpt lat="48.5689" lon="-3.69526">
        <ele>169.2</ele>
        <time>2020-06-10T14:13:09Z</time>
      </trkpt>
      <trkpt lat="48.56889" lon="-3.69518">
        <ele>169.3</ele>
        <time>2020-06-10T14:13:10Z</time>
      </trkpt>
      <trkpt lat="48.56887" lon="-3.6951">
        <ele>169.3</ele>
        <time>2020-06-10T14:13:11Z</time>
      </trkpt>
      <trkpt lat="48.56886" lon="-3.69501">
        <ele>169.3</ele>
        <time>2020-06-10T14:13:12Z</time>
      </trkpt>
      <trkpt lat="48.56886" lon="-3.69493">
        <ele>169.4</ele>
        <time>2020-06-10T14:13:13Z</time>
      </trkpt>
      <trkpt lat="48.56886" lon="-3.69484">
        <ele>169.5</ele>
        <time>2020-06-10T14:13:14Z</time>
      </trkpt>
      <trkpt lat="48.56886" lon="-3.69476">
        <ele>169.6</ele>
        <time>2020-06-10T14:13:15Z</time>
      </trkpt>
      <trkpt lat="48.56885" lon="-3.69469">
        <ele>169.6</ele>
        <time>2020-06-10T14:13:16Z</time>
      </trkpt>
      <trkpt lat="48.56884" lon="-3.69462">
        <ele>169.7</ele>
        <time>2020-06-10T14:13:17Z</time>
      </trkpt>
      <trkpt lat="48.56884" lon="-3.69454">
        <ele>169.7</ele>
        <time>2020-06-10T14:13:18Z</time>
      </trkpt>
      <trkpt lat="48.56884" lon="-3.69446">
        <ele>169.8</ele>
        <time>2020-06-10T14:13:19Z</time>
      </trkpt>
      <trkpt lat="48.56884" lon="-3.69438">
        <ele>169.8</ele>
        <time>2020-06-10T14:13:20Z</time>
      </trkpt>
      <trkpt lat="48.56883" lon="-3.6943">
        <ele>169.8</ele>
        <time>2020-06-10T14:13:21Z</time>
      </trkpt>
      <trkpt lat="48.56883" lon="-3.69422">
        <ele>169.9</ele>
        <time>2020-06-10T14:13:22Z</time>
      </trkpt>
      <trkpt lat="48.56882" lon="-3.69414">
        <ele>169.9</ele>
        <time>2020-06-10T14:13:23Z</time>
      </trkpt>
      <trkpt lat="48.56882" lon="-3.69406">
        <ele>169.9</ele>
        <time>2020-06-10T14:13:24Z</time>
      </trkpt>
      <trkpt lat="48.56881" lon="-3.69398">
        <ele>169.9</ele>
        <time>2020-06-10T14:13:25Z</time>
      </trkpt>
      <trkpt lat="48.5688" lon="-3.69392">
        <ele>169.9</ele>
        <time>2020-06-10T14:13:26Z</time>
      </trkpt>
      <trkpt lat="48.5688" lon="-3.69385">
        <ele>170</ele>
        <time>2020-06-10T14:13:27Z</time>
      </trkpt>
      <trkpt lat="48.56879" lon="-3.69378">
        <ele>170</ele>
        <time>2020-06-10T14:13:28Z</time>
      </trkpt>
      <trkpt lat="48.56879" lon="-3.6937">
        <ele>170</ele>
        <time>2020-06-10T14:13:29Z</time>
      </trkpt>
      <trkpt lat="48.56879" lon="-3.69361">
        <ele>170.1</ele>
        <time>2020-06-10T14:13:30Z</time>
      </trkpt>
      <trkpt lat="48.56878" lon="-3.69353">
        <ele>170.1</ele>
        <time>2020-06-10T14:13:31Z</time>
      </trkpt>
      <trkpt lat="48.56878" lon="-3.69346">
        <ele>170.1</ele>
        <time>2020-06-10T14:13:32Z</time>
      </trkpt>
      <trkpt lat="48.56876" lon="-3.69338">
        <ele>170.2</ele>
        <time>2020-06-10T14:13:33Z</time>
      </trkpt>
      <trkpt lat="48.56876" lon="-3.6933">
        <ele>170.2</ele>
        <time>2020-06-10T14:13:34Z</time>
      </trkpt>
      <trkpt lat="48.56875" lon="-3.69321">
        <ele>170.3</ele>
        <time>2020-06-10T14:13:35Z</time>
      </trkpt>
      <trkpt lat="48.56874" lon="-3.69315">
        <ele>170.3</ele>
        <time>2020-06-10T14:13:36Z</time>
      </trkpt>
      <trkpt lat="48.56873" lon="-3.69307">
        <ele>170.4</ele>
        <time>2020-06-10T14:13:37Z</time>
      </trkpt>
      <trkpt lat="48.56873" lon="-3.69298">
        <ele>170.4</ele>
        <time>2020-06-10T14:13:38Z</time>
      </trkpt>
      <trkpt lat="48.56872" lon="-3.69289">
        <ele>170.4</ele>
        <time>2020-06-10T14:13:39Z</time>
      </trkpt>
      <trkpt lat="48.56872" lon="-3.69281">
        <ele>170.5</ele>
        <time>2020-06-10T14:13:40Z</time>
      </trkpt>
      <trkpt lat="48.56872" lon="-3.69271">
        <ele>170.5</ele>
        <time>2020-06-10T14:13:41Z</time>
      </trkpt>
      <trkpt lat="48.56872" lon="-3.69262">
        <ele>170.5</ele>
        <time>2020-06-10T14:13:42Z</time>
      </trkpt>
      <trkpt lat="48.56871" lon="-3.69252">
        <ele>170.5</ele>
        <time>2020-06-10T14:13:43Z</time>
      </trkpt>
      <trkpt lat="48.5687" lon="-3.69244">
        <ele>170.6</ele>
        <time>2020-06-10T14:13:44Z</time>
      </trkpt>
      <trkpt lat="48.56869" lon="-3.69235">
        <ele>170.6</ele>
        <time>2020-06-10T14:13:45Z</time>
      </trkpt>
      <trkpt lat="48.56868" lon="-3.69226">
        <ele>170.6</ele>
        <time>2020-06-10T14:13:46Z</time>
      </trkpt>
      <trkpt lat="48.56868" lon="-3.69218">
        <ele>170.6</ele>
        <time>2020-06-10T14:13:47Z</time>
      </trkpt>
      <trkpt lat="48.56867" lon="-3.6921">
        <ele>170.6</ele>
        <time>2020-06-10T14:13:48Z</time>
      </trkpt>
      <trkpt lat="48.56866" lon="-3.69202">
        <ele>170.7</ele>
        <time>2020-06-10T14:13:49Z</time>
      </trkpt>
      <trkpt lat="48.56866" lon="-3.69192">
        <ele>170.7</ele>
        <time>2020-06-10T14:13:50Z</time>
      </trkpt>
      <trkpt lat="48.56865" lon="-3.69183">
        <ele>170.7</ele>
        <time>2020-06-10T14:13:51Z</time>
      </trkpt>
      <trkpt lat="48.56865" lon="-3.69174">
        <ele>170.7</ele>
        <time>2020-06-10T14:13:52Z</time>
      </trkpt>
      <trkpt lat="48.56864" lon="-3.69166">
        <ele>170.8</ele>
        <time>2020-06-10T14:13:53Z</time>
      </trkpt>
      <trkpt lat="48.56863" lon="-3.69157">
        <ele>170.8</ele>
        <time>2020-06-10T14:13:54Z</time>
      </trkpt>
      <trkpt lat="48.56863" lon="-3.69149">
        <ele>170.8</ele>
        <time>2020-06-10T14:13:55Z</time>
      </trkpt>
      <trkpt lat="48.56863" lon="-3.69141">
        <ele>170.9</ele>
        <time>2020-06-10T14:13:56Z</time>
      </trkpt>
      <trkpt lat="48.56863" lon="-3.69132">
        <ele>170.9</ele>
        <time>2020-06-10T14:13:57Z</time>
      </trkpt>
      <trkpt lat="48.56862" lon="-3.69124">
        <ele>170.9</ele>
        <time>2020-06-10T14:13:58Z</time>
      </trkpt>
      <trkpt lat="48.56861" lon="-3.69116">
        <ele>170.9</ele>
        <time>2020-06-10T14:13:59Z</time>
      </trkpt>
      <trkpt lat="48.56861" lon="-3.69107">
        <ele>170.9</ele>
        <time>2020-06-10T14:14:00Z</time>
      </trkpt>
      <trkpt lat="48.5686" lon="-3.69097">
        <ele>170.9</ele>
        <time>2020-06-10T14:14:01Z</time>
      </trkpt>
      <trkpt lat="48.56859" lon="-3.69088">
        <ele>171</ele>
        <time>2020-06-10T14:14:02Z</time>
      </trkpt>
      <trkpt lat="48.56859" lon="-3.69079">
        <ele>171</ele>
        <time>2020-06-10T14:14:03Z</time>
      </trkpt>
      <trkpt lat="48.56859" lon="-3.6907">
        <ele>171</ele>
        <time>2020-06-10T14:14:04Z</time>
      </trkpt>
      <trkpt lat="48.56859" lon="-3.69061">
        <ele>171.1</ele>
        <time>2020-06-10T14:14:05Z</time>
      </trkpt>
      <trkpt lat="48.56858" lon="-3.69052">
        <ele>171.1</ele>
        <time>2020-06-10T14:14:06Z</time>
      </trkpt>
      <trkpt lat="48.56857" lon="-3.69043">
        <ele>171.1</ele>
        <time>2020-06-10T14:14:07Z</time>
      </trkpt>
      <trkpt lat="48.56857" lon="-3.69034">
        <ele>171.1</ele>
        <time>2020-06-10T14:14:08Z</time>
      </trkpt>
      <trkpt lat="48.56856" lon="-3.69025">
        <ele>171.2</ele>
        <time>2020-06-10T14:14:09Z</time>
      </trkpt>
      <trkpt lat="48.56856" lon="-3.69017">
        <ele>171.2</ele>
        <time>2020-06-10T14:14:10Z</time>
      </trkpt>
      <trkpt lat="48.56855" lon="-3.69009">
        <ele>171.3</ele>
        <time>2020-06-10T14:14:11Z</time>
      </trkpt>
      <trkpt lat="48.56855" lon="-3.69002">
        <ele>171.4</ele>
        <time>2020-06-10T14:14:12Z</time>
      </trkpt>
      <trkpt lat="48.56854" lon="-3.68994">
        <ele>171.4</ele>
        <time>2020-06-10T14:14:13Z</time>
      </trkpt>
      <trkpt lat="48.56853" lon="-3.68987">
        <ele>171.5</ele>
        <time>2020-06-10T14:14:14Z</time>
      </trkpt>
      <trkpt lat="48.56852" lon="-3.68979">
        <ele>171.6</ele>
        <time>2020-06-10T14:14:15Z</time>
      </trkpt>
      <trkpt lat="48.56851" lon="-3.68971">
        <ele>171.7</ele>
        <time>2020-06-10T14:14:16Z</time>
      </trkpt>
      <trkpt lat="48.5685" lon="-3.68963">
        <ele>171.8</ele>
        <time>2020-06-10T14:14:17Z</time>
      </trkpt>
      <trkpt lat="48.56849" lon="-3.68955">
        <ele>171.9</ele>
        <time>2020-06-10T14:14:18Z</time>
      </trkpt>
      <trkpt lat="48.56849" lon="-3.68947">
        <ele>172</ele>
        <time>2020-06-10T14:14:19Z</time>
      </trkpt>
      <trkpt lat="48.56849" lon="-3.6894">
        <ele>172.1</ele>
        <time>2020-06-10T14:14:20Z</time>
      </trkpt>
      <trkpt lat="48.56848" lon="-3.68932">
        <ele>172.1</ele>
        <time>2020-06-10T14:14:21Z</time>
      </trkpt>
      <trkpt lat="48.56848" lon="-3.68926">
        <ele>172.2</ele>
        <time>2020-06-10T14:14:22Z</time>
      </trkpt>
      <trkpt lat="48.56848" lon="-3.6892">
        <ele>172.2</ele>
        <time>2020-06-10T14:14:23Z</time>
      </trkpt>
      <trkpt lat="48.56847" lon="-3.68914">
        <ele>172.3</ele>
        <time>2020-06-10T14:14:24Z</time>
      </trkpt>
      <trkpt lat="48.56846" lon="-3.68907">
        <ele>172.3</ele>
        <time>2020-06-10T14:14:25Z</time>
      </trkpt>
      <trkpt lat="48.56845" lon="-3.689">
        <ele>172.4</ele>
        <time>2020-06-10T14:14:26Z</time>
      </trkpt>
      <trkpt lat="48.56845" lon="-3.68892">
        <ele>172.5</ele>
        <time>2020-06-10T14:14:27Z</time>
      </trkpt>
      <trkpt lat="48.56844" lon="-3.68883">
        <ele>172.6</ele>
        <time>2020-06-10T14:14:28Z</time>
      </trkpt>
      <trkpt lat="48.56843" lon="-3.68875">
        <ele>172.7</ele>
        <time>2020-06-10T14:14:29Z</time>
      </trkpt>
      <trkpt lat="48.56842" lon="-3.68867">
        <ele>172.8</ele>
        <time>2020-06-10T14:14:30Z</time>
      </trkpt>
      <trkpt lat="48.56842" lon="-3.68861">
        <ele>172.8</ele>
        <time>2020-06-10T14:14:31Z</time>
      </trkpt>
      <trkpt lat="48.56841" lon="-3.68855">
        <ele>172.9</ele>
        <time>2020-06-10T14:14:32Z</time>
      </trkpt>
      <trkpt lat="48.56841" lon="-3.6885">
        <ele>172.9</ele>
        <time>2020-06-10T14:14:33Z</time>
      </trkpt>
      <trkpt lat="48.56841" lon="-3.68846">
        <ele>173</ele>
        <time>2020-06-10T14:14:34Z</time>
      </trkpt>
      <trkpt lat="48.5684" lon="-3.68841">
        <ele>173</ele>
        <time>2020-06-10T14:14:35Z</time>
      </trkpt>
      <trkpt lat="48.5684" lon="-3.68835">
        <ele>173</ele>
        <time>2020-06-10T14:14:36Z</time>
      </trkpt>
      <trkpt lat="48.5684" lon="-3.6883">
        <ele>173</ele>
        <time>2020-06-10T14:14:37Z</time>
      </trkpt>
      <trkpt lat="48.5684" lon="-3.68826">
        <ele>173</ele>
        <time>2020-06-10T14:14:38Z</time>
      </trkpt>
      <trkpt lat="48.5684" lon="-3.6882">
        <ele>173</ele>
        <time>2020-06-10T14:14:39Z</time>
      </trkpt>
      <trkpt lat="48.5684" lon="-3.68819">
        <ele>172.9</ele>
        <time>2020-06-10T14:14:40Z</time>
      </trkpt>
      <trkpt lat="48.56841" lon="-3.68817">
        <ele>172.9</ele>
        <time>2020-06-10T14:14:41Z</time>
      </trkpt>
      <trkpt lat="48.5684" lon="-3.68816">
        <ele>172.9</ele>
        <time>2020-06-10T14:14:42Z</time>
      </trkpt>
      <trkpt lat="48.5684" lon="-3.68815">
        <ele>172.9</ele>
        <time>2020-06-10T14:14:43Z</time>
      </trkpt>
      <trkpt lat="48.5684" lon="-3.68813">
        <ele>172.9</ele>
        <time>2020-06-10T14:14:44Z</time>
      </trkpt>
      <trkpt lat="48.5684" lon="-3.68812">
        <ele>172.9</ele>
        <time>2020-06-10T14:14:45Z</time>
      </trkpt>
      <trkpt lat="48.5684" lon="-3.68811">
        <ele>172.9</ele>
        <time>2020-06-10T14:14:46Z</time>
      </trkpt>
      <trkpt lat="48.5684" lon="-3.68809">
        <ele>172.9</ele>
        <time>2020-06-10T14:14:47Z</time>
      </trkpt>
      <trkpt lat="48.5684" lon="-3.68808">
        <ele>172.9</ele>
        <time>2020-06-10T14:14:48Z</time>
      </trkpt>
      <trkpt lat="48.5684" lon="-3.68807">
        <ele>172.9</ele>
        <time>2020-06-10T14:14:49Z</time>
      </trkpt>
      <trkpt lat="48.5684" lon="-3.68805">
        <ele>172.8</ele>
        <time>2020-06-10T14:14:50Z</time>
      </trkpt>
      <trkpt lat="48.56839" lon="-3.68804">
        <ele>172.8</ele>
        <time>2020-06-10T14:14:51Z</time>
      </trkpt>
      <trkpt lat="48.56839" lon="-3.68803">
        <ele>172.8</ele>
        <time>2020-06-10T14:14:52Z</time>
      </trkpt>
      <trkpt lat="48.56839" lon="-3.68801">
        <ele>172.8</ele>
        <time>2020-06-10T14:14:53Z</time>
      </trkpt>
      <trkpt lat="48.56839" lon="-3.688">
        <ele>172.8</ele>
        <time>2020-06-10T14:14:54Z</time>
      </trkpt>
      <trkpt lat="48.56839" lon="-3.68799">
        <ele>172.8</ele>
        <time>2020-06-10T14:18:56Z</time>
      </trkpt>
      <trkpt lat="48.56839" lon="-3.68797">
        <ele>172.8</ele>
        <time>2020-06-10T14:18:57Z</time>
      </trkpt>
      <trkpt lat="48.56839" lon="-3.68792">
        <ele>172.7</ele>
        <time>2020-06-10T14:18:58Z</time>
      </trkpt>
      <trkpt lat="48.56838" lon="-3.68787">
        <ele>172.6</ele>
        <time>2020-06-10T14:18:59Z</time>
      </trkpt>
      <trkpt lat="48.56838" lon="-3.68782">
        <ele>172.5</ele>
        <time>2020-06-10T14:19:00Z</time>
      </trkpt>
      <trkpt lat="48.56837" lon="-3.68777">
        <ele>172.5</ele>
        <time>2020-06-10T14:19:01Z</time>
      </trkpt>
      <trkpt lat="48.56837" lon="-3.68771">
        <ele>172.4</ele>
        <time>2020-06-10T14:19:02Z</time>
      </trkpt>
      <trkpt lat="48.56836" lon="-3.68765">
        <ele>172.3</ele>
        <time>2020-06-10T14:19:03Z</time>
      </trkpt>
      <trkpt lat="48.56836" lon="-3.68758">
        <ele>172.1</ele>
        <time>2020-06-10T14:19:04Z</time>
      </trkpt>
      <trkpt lat="48.56835" lon="-3.68752">
        <ele>172</ele>
        <time>2020-06-10T14:19:05Z</time>
      </trkpt>
      <trkpt lat="48.56835" lon="-3.68746">
        <ele>171.9</ele>
        <time>2020-06-10T14:19:06Z</time>
      </trkpt>
      <trkpt lat="48.56834" lon="-3.68739">
        <ele>171.8</ele>
        <time>2020-06-10T14:19:07Z</time>
      </trkpt>
      <trkpt lat="48.56834" lon="-3.68733">
        <ele>171.7</ele>
        <time>2020-06-10T14:19:08Z</time>
      </trkpt>
      <trkpt lat="48.56834" lon="-3.68727">
        <ele>171.6</ele>
        <time>2020-06-10T14:19:09Z</time>
      </trkpt>
      <trkpt lat="48.56833" lon="-3.68719">
        <ele>171.5</ele>
        <time>2020-06-10T14:19:10Z</time>
      </trkpt>
      <trkpt lat="48.56832" lon="-3.68712">
        <ele>171.4</ele>
        <time>2020-06-10T14:19:11Z</time>
      </trkpt>
      <trkpt lat="48.56831" lon="-3.68705">
        <ele>171.3</ele>
        <time>2020-06-10T14:19:12Z</time>
      </trkpt>
      <trkpt lat="48.56831" lon="-3.68698">
        <ele>171.2</ele>
        <time>2020-06-10T14:19:13Z</time>
      </trkpt>
      <trkpt lat="48.5683" lon="-3.68692">
        <ele>171</ele>
        <time>2020-06-10T14:19:14Z</time>
      </trkpt>
      <trkpt lat="48.5683" lon="-3.68684">
        <ele>170.9</ele>
        <time>2020-06-10T14:19:15Z</time>
      </trkpt>
      <trkpt lat="48.5683" lon="-3.68677">
        <ele>170.8</ele>
        <time>2020-06-10T14:19:16Z</time>
      </trkpt>
      <trkpt lat="48.5683" lon="-3.68669">
        <ele>170.6</ele>
        <time>2020-06-10T14:19:17Z</time>
      </trkpt>
      <trkpt lat="48.56829" lon="-3.6866">
        <ele>170.5</ele>
        <time>2020-06-10T14:19:18Z</time>
      </trkpt>
      <trkpt lat="48.56829" lon="-3.68651">
        <ele>170.2</ele>
        <time>2020-06-10T14:19:19Z</time>
      </trkpt>
      <trkpt lat="48.56828" lon="-3.68643">
        <ele>170</ele>
        <time>2020-06-10T14:19:20Z</time>
      </trkpt>
      <trkpt lat="48.56828" lon="-3.68634">
        <ele>169.9</ele>
        <time>2020-06-10T14:19:21Z</time>
      </trkpt>
      <trkpt lat="48.56828" lon="-3.68625">
        <ele>169.7</ele>
        <time>2020-06-10T14:19:22Z</time>
      </trkpt>
      <trkpt lat="48.56826" lon="-3.68615">
        <ele>169.5</ele>
        <time>2020-06-10T14:19:23Z</time>
      </trkpt>
      <trkpt lat="48.56825" lon="-3.68605">
        <ele>169.3</ele>
        <time>2020-06-10T14:19:24Z</time>
      </trkpt>
      <trkpt lat="48.56824" lon="-3.68594">
        <ele>169.1</ele>
        <time>2020-06-10T14:19:25Z</time>
      </trkpt>
      <trkpt lat="48.56823" lon="-3.68583">
        <ele>168.9</ele>
        <time>2020-06-10T14:19:26Z</time>
      </trkpt>
      <trkpt lat="48.56822" lon="-3.68574">
        <ele>168.8</ele>
        <time>2020-06-10T14:19:27Z</time>
      </trkpt>
      <trkpt lat="48.56821" lon="-3.68564">
        <ele>168.6</ele>
        <time>2020-06-10T14:19:28Z</time>
      </trkpt>
      <trkpt lat="48.56821" lon="-3.68555">
        <ele>168.4</ele>
        <time>2020-06-10T14:19:29Z</time>
      </trkpt>
      <trkpt lat="48.5682" lon="-3.68544">
        <ele>168.3</ele>
        <time>2020-06-10T14:19:30Z</time>
      </trkpt>
      <trkpt lat="48.5682" lon="-3.68533">
        <ele>168.1</ele>
        <time>2020-06-10T14:19:31Z</time>
      </trkpt>
      <trkpt lat="48.56819" lon="-3.68522">
        <ele>168</ele>
        <time>2020-06-10T14:19:32Z</time>
      </trkpt>
      <trkpt lat="48.56819" lon="-3.68512">
        <ele>167.9</ele>
        <time>2020-06-10T14:19:33Z</time>
      </trkpt>
      <trkpt lat="48.56817" lon="-3.68501">
        <ele>167.7</ele>
        <time>2020-06-10T14:19:34Z</time>
      </trkpt>
      <trkpt lat="48.56816" lon="-3.68489">
        <ele>167.6</ele>
        <time>2020-06-10T14:19:35Z</time>
      </trkpt>
      <trkpt lat="48.56815" lon="-3.68478">
        <ele>167.4</ele>
        <time>2020-06-10T14:19:36Z</time>
      </trkpt>
      <trkpt lat="48.56814" lon="-3.68467">
        <ele>167.3</ele>
        <time>2020-06-10T14:19:37Z</time>
      </trkpt>
      <trkpt lat="48.56813" lon="-3.68457">
        <ele>167.2</ele>
        <time>2020-06-10T14:19:38Z</time>
      </trkpt>
      <trkpt lat="48.56813" lon="-3.68447">
        <ele>167.1</ele>
        <time>2020-06-10T14:19:39Z</time>
      </trkpt>
      <trkpt lat="48.56813" lon="-3.68438">
        <ele>167</ele>
        <time>2020-06-10T14:19:40Z</time>
      </trkpt>
      <trkpt lat="48.56812" lon="-3.68429">
        <ele>167</ele>
        <time>2020-06-10T14:19:41Z</time>
      </trkpt>
      <trkpt lat="48.56812" lon="-3.68421">
        <ele>166.9</ele>
        <time>2020-06-10T14:19:42Z</time>
      </trkpt>
      <trkpt lat="48.56811" lon="-3.68411">
        <ele>166.8</ele>
        <time>2020-06-10T14:19:43Z</time>
      </trkpt>
      <trkpt lat="48.5681" lon="-3.68401">
        <ele>166.8</ele>
        <time>2020-06-10T14:19:44Z</time>
      </trkpt>
      <trkpt lat="48.5681" lon="-3.68391">
        <ele>166.7</ele>
        <time>2020-06-10T14:19:45Z</time>
      </trkpt>
      <trkpt lat="48.56809" lon="-3.68381">
        <ele>166.7</ele>
        <time>2020-06-10T14:19:46Z</time>
      </trkpt>
      <trkpt lat="48.56809" lon="-3.68373">
        <ele>166.7</ele>
        <time>2020-06-10T14:19:47Z</time>
      </trkpt>
      <trkpt lat="48.56808" lon="-3.68363">
        <ele>166.6</ele>
        <time>2020-06-10T14:19:48Z</time>
      </trkpt>
      <trkpt lat="48.56808" lon="-3.68354">
        <ele>166.6</ele>
        <time>2020-06-10T14:19:49Z</time>
      </trkpt>
      <trkpt lat="48.56807" lon="-3.68344">
        <ele>166.5</ele>
        <time>2020-06-10T14:19:50Z</time>
      </trkpt>
      <trkpt lat="48.56806" lon="-3.68334">
        <ele>166.4</ele>
        <time>2020-06-10T14:19:51Z</time>
      </trkpt>
      <trkpt lat="48.56805" lon="-3.68325">
        <ele>166.3</ele>
        <time>2020-06-10T14:19:52Z</time>
      </trkpt>
      <trkpt lat="48.56804" lon="-3.68315">
        <ele>166.2</ele>
        <time>2020-06-10T14:19:53Z</time>
      </trkpt>
      <trkpt lat="48.56803" lon="-3.68306">
        <ele>166.2</ele>
        <time>2020-06-10T14:19:54Z</time>
      </trkpt>
      <trkpt lat="48.56802" lon="-3.68297">
        <ele>166.1</ele>
        <time>2020-06-10T14:19:55Z</time>
      </trkpt>
      <trkpt lat="48.56801" lon="-3.68287">
        <ele>166.1</ele>
        <time>2020-06-10T14:19:56Z</time>
      </trkpt>
      <trkpt lat="48.568" lon="-3.68278">
        <ele>166</ele>
        <time>2020-06-10T14:19:57Z</time>
      </trkpt>
      <trkpt lat="48.56799" lon="-3.68268">
        <ele>166</ele>
        <time>2020-06-10T14:19:58Z</time>
      </trkpt>
      <trkpt lat="48.56799" lon="-3.68259">
        <ele>165.9</ele>
        <time>2020-06-10T14:19:59Z</time>
      </trkpt>
      <trkpt lat="48.56798" lon="-3.68249">
        <ele>165.8</ele>
        <time>2020-06-10T14:20:00Z</time>
      </trkpt>
      <trkpt lat="48.56797" lon="-3.6824">
        <ele>165.8</ele>
        <time>2020-06-10T14:20:01Z</time>
      </trkpt>
      <trkpt lat="48.56796" lon="-3.6823">
        <ele>165.7</ele>
        <time>2020-06-10T14:20:02Z</time>
      </trkpt>
      <trkpt lat="48.56795" lon="-3.6822">
        <ele>165.6</ele>
        <time>2020-06-10T14:20:03Z</time>
      </trkpt>
      <trkpt lat="48.56795" lon="-3.6821">
        <ele>165.5</ele>
        <time>2020-06-10T14:20:04Z</time>
      </trkpt>
      <trkpt lat="48.56793" lon="-3.682">
        <ele>165.4</ele>
        <time>2020-06-10T14:20:05Z</time>
      </trkpt>
      <trkpt lat="48.56792" lon="-3.68189">
        <ele>165.4</ele>
        <time>2020-06-10T14:20:06Z</time>
      </trkpt>
      <trkpt lat="48.56791" lon="-3.68179">
        <ele>165.3</ele>
        <time>2020-06-10T14:20:07Z</time>
      </trkpt>
      <trkpt lat="48.56791" lon="-3.68168">
        <ele>165.3</ele>
        <time>2020-06-10T14:20:08Z</time>
      </trkpt>
      <trkpt lat="48.5679" lon="-3.68158">
        <ele>165.2</ele>
        <time>2020-06-10T14:20:09Z</time>
      </trkpt>
      <trkpt lat="48.5679" lon="-3.68147">
        <ele>165.2</ele>
        <time>2020-06-10T14:20:10Z</time>
      </trkpt>
      <trkpt lat="48.56789" lon="-3.68136">
        <ele>165.2</ele>
        <time>2020-06-10T14:20:11Z</time>
      </trkpt>
      <trkpt lat="48.56789" lon="-3.68126">
        <ele>165.1</ele>
        <time>2020-06-10T14:20:12Z</time>
      </trkpt>
      <trkpt lat="48.56788" lon="-3.68116">
        <ele>165.1</ele>
        <time>2020-06-10T14:20:13Z</time>
      </trkpt>
      <trkpt lat="48.56787" lon="-3.68106">
        <ele>165.1</ele>
        <time>2020-06-10T14:20:14Z</time>
      </trkpt>
      <trkpt lat="48.56786" lon="-3.68096">
        <ele>165.1</ele>
        <time>2020-06-10T14:20:15Z</time>
      </trkpt>
      <trkpt lat="48.56785" lon="-3.68086">
        <ele>165.1</ele>
        <time>2020-06-10T14:20:16Z</time>
      </trkpt>
      <trkpt lat="48.56785" lon="-3.68077">
        <ele>165.2</ele>
        <time>2020-06-10T14:20:17Z</time>
      </trkpt>
      <trkpt lat="48.56784" lon="-3.68067">
        <ele>165.1</ele>
        <time>2020-06-10T14:20:18Z</time>
      </trkpt>
      <trkpt lat="48.56783" lon="-3.68057">
        <ele>165.1</ele>
        <time>2020-06-10T14:20:19Z</time>
      </trkpt>
      <trkpt lat="48.56782" lon="-3.68048">
        <ele>165.1</ele>
        <time>2020-06-10T14:20:20Z</time>
      </trkpt>
      <trkpt lat="48.56781" lon="-3.68039">
        <ele>165</ele>
        <time>2020-06-10T14:20:21Z</time>
      </trkpt>
      <trkpt lat="48.56781" lon="-3.6803">
        <ele>164.9</ele>
        <time>2020-06-10T14:20:22Z</time>
      </trkpt>
      <trkpt lat="48.5678" lon="-3.6802">
        <ele>164.9</ele>
        <time>2020-06-10T14:20:23Z</time>
      </trkpt>
      <trkpt lat="48.5678" lon="-3.68011">
        <ele>164.7</ele>
        <time>2020-06-10T14:20:24Z</time>
      </trkpt>
      <trkpt lat="48.5678" lon="-3.68001">
        <ele>164.5</ele>
        <time>2020-06-10T14:20:25Z</time>
      </trkpt>
      <trkpt lat="48.56779" lon="-3.67991">
        <ele>164.4</ele>
        <time>2020-06-10T14:20:26Z</time>
      </trkpt>
      <trkpt lat="48.56778" lon="-3.67981">
        <ele>164.3</ele>
        <time>2020-06-10T14:20:27Z</time>
      </trkpt>
      <trkpt lat="48.56778" lon="-3.67971">
        <ele>164.2</ele>
        <time>2020-06-10T14:20:28Z</time>
      </trkpt>
      <trkpt lat="48.56777" lon="-3.67961">
        <ele>164.1</ele>
        <time>2020-06-10T14:20:29Z</time>
      </trkpt>
      <trkpt lat="48.56776" lon="-3.67951">
        <ele>164</ele>
        <time>2020-06-10T14:20:30Z</time>
      </trkpt>
      <trkpt lat="48.56775" lon="-3.67941">
        <ele>163.8</ele>
        <time>2020-06-10T14:20:31Z</time>
      </trkpt>
      <trkpt lat="48.56775" lon="-3.67931">
        <ele>163.6</ele>
        <time>2020-06-10T14:20:32Z</time>
      </trkpt>
      <trkpt lat="48.56774" lon="-3.6792">
        <ele>163.4</ele>
        <time>2020-06-10T14:20:33Z</time>
      </trkpt>
      <trkpt lat="48.56774" lon="-3.6791">
        <ele>163.1</ele>
        <time>2020-06-10T14:20:34Z</time>
      </trkpt>
      <trkpt lat="48.56773" lon="-3.67899">
        <ele>162.9</ele>
        <time>2020-06-10T14:20:35Z</time>
      </trkpt>
      <trkpt lat="48.56772" lon="-3.67888">
        <ele>162.6</ele>
        <time>2020-06-10T14:20:36Z</time>
      </trkpt>
      <trkpt lat="48.56772" lon="-3.67877">
        <ele>162.3</ele>
        <time>2020-06-10T14:20:37Z</time>
      </trkpt>
      <trkpt lat="48.56771" lon="-3.67866">
        <ele>162</ele>
        <time>2020-06-10T14:20:38Z</time>
      </trkpt>
      <trkpt lat="48.5677" lon="-3.67855">
        <ele>161.7</ele>
        <time>2020-06-10T14:20:39Z</time>
      </trkpt>
      <trkpt lat="48.56769" lon="-3.67844">
        <ele>161.4</ele>
        <time>2020-06-10T14:20:40Z</time>
      </trkpt>
      <trkpt lat="48.56769" lon="-3.67833">
        <ele>161.1</ele>
        <time>2020-06-10T14:20:41Z</time>
      </trkpt>
      <trkpt lat="48.56767" lon="-3.67823">
        <ele>160.8</ele>
        <time>2020-06-10T14:20:42Z</time>
      </trkpt>
      <trkpt lat="48.56766" lon="-3.67813">
        <ele>160.5</ele>
        <time>2020-06-10T14:20:43Z</time>
      </trkpt>
      <trkpt lat="48.56765" lon="-3.67803">
        <ele>160.2</ele>
        <time>2020-06-10T14:20:44Z</time>
      </trkpt>
      <trkpt lat="48.56764" lon="-3.67793">
        <ele>159.9</ele>
        <time>2020-06-10T14:20:45Z</time>
      </trkpt>
      <trkpt lat="48.56763" lon="-3.67784">
        <ele>159.6</ele>
        <time>2020-06-10T14:20:46Z</time>
      </trkpt>
      <trkpt lat="48.56762" lon="-3.67774">
        <ele>159.3</ele>
        <time>2020-06-10T14:20:47Z</time>
      </trkpt>
      <trkpt lat="48.56762" lon="-3.67765">
        <ele>159</ele>
        <time>2020-06-10T14:20:48Z</time>
      </trkpt>
      <trkpt lat="48.56761" lon="-3.67755">
        <ele>158.7</ele>
        <time>2020-06-10T14:20:49Z</time>
      </trkpt>
      <trkpt lat="48.5676" lon="-3.67746">
        <ele>158.3</ele>
        <time>2020-06-10T14:20:50Z</time>
      </trkpt>
      <trkpt lat="48.56759" lon="-3.67736">
        <ele>158</ele>
        <time>2020-06-10T14:20:51Z</time>
      </trkpt>
      <trkpt lat="48.56759" lon="-3.67727">
        <ele>157.7</ele>
        <time>2020-06-10T14:20:52Z</time>
      </trkpt>
      <trkpt lat="48.56758" lon="-3.67716">
        <ele>157.3</ele>
        <time>2020-06-10T14:20:53Z</time>
      </trkpt>
      <trkpt lat="48.56758" lon="-3.67706">
        <ele>156.9</ele>
        <time>2020-06-10T14:20:54Z</time>
      </trkpt>
      <trkpt lat="48.56757" lon="-3.67695">
        <ele>156.5</ele>
        <time>2020-06-10T14:20:55Z</time>
      </trkpt>
      <trkpt lat="48.56757" lon="-3.67683">
        <ele>156.1</ele>
        <time>2020-06-10T14:20:56Z</time>
      </trkpt>
      <trkpt lat="48.56756" lon="-3.67672">
        <ele>155.7</ele>
        <time>2020-06-10T14:20:57Z</time>
      </trkpt>
      <trkpt lat="48.56755" lon="-3.6766">
        <ele>155.3</ele>
        <time>2020-06-10T14:20:58Z</time>
      </trkpt>
      <trkpt lat="48.56755" lon="-3.67648">
        <ele>154.9</ele>
        <time>2020-06-10T14:20:59Z</time>
      </trkpt>
      <trkpt lat="48.56755" lon="-3.67636">
        <ele>154.5</ele>
        <time>2020-06-10T14:21:00Z</time>
      </trkpt>
      <trkpt lat="48.56754" lon="-3.67625">
        <ele>154</ele>
        <time>2020-06-10T14:21:01Z</time>
      </trkpt>
      <trkpt lat="48.56753" lon="-3.67613">
        <ele>153.6</ele>
        <time>2020-06-10T14:21:02Z</time>
      </trkpt>
      <trkpt lat="48.56752" lon="-3.676">
        <ele>153.1</ele>
        <time>2020-06-10T14:21:03Z</time>
      </trkpt>
      <trkpt lat="48.56751" lon="-3.67588">
        <ele>152.7</ele>
        <time>2020-06-10T14:21:04Z</time>
      </trkpt>
      <trkpt lat="48.5675" lon="-3.67575">
        <ele>152.2</ele>
        <time>2020-06-10T14:21:05Z</time>
      </trkpt>
      <trkpt lat="48.5675" lon="-3.67562">
        <ele>151.8</ele>
        <time>2020-06-10T14:21:06Z</time>
      </trkpt>
      <trkpt lat="48.56749" lon="-3.67549">
        <ele>151.3</ele>
        <time>2020-06-10T14:21:07Z</time>
      </trkpt>
      <trkpt lat="48.56748" lon="-3.67536">
        <ele>150.9</ele>
        <time>2020-06-10T14:21:08Z</time>
      </trkpt>
      <trkpt lat="48.56748" lon="-3.67523">
        <ele>150.4</ele>
        <time>2020-06-10T14:21:09Z</time>
      </trkpt>
      <trkpt lat="48.56747" lon="-3.67511">
        <ele>150</ele>
        <time>2020-06-10T14:21:10Z</time>
      </trkpt>
      <trkpt lat="48.56746" lon="-3.67498">
        <ele>149.6</ele>
        <time>2020-06-10T14:21:11Z</time>
      </trkpt>
      <trkpt lat="48.56745" lon="-3.67486">
        <ele>149.3</ele>
        <time>2020-06-10T14:21:12Z</time>
      </trkpt>
      <trkpt lat="48.56744" lon="-3.67474">
        <ele>148.9</ele>
        <time>2020-06-10T14:21:13Z</time>
      </trkpt>
      <trkpt lat="48.56743" lon="-3.67462">
        <ele>148.5</ele>
        <time>2020-06-10T14:21:14Z</time>
      </trkpt>
      <trkpt lat="48.56743" lon="-3.67451">
        <ele>148.1</ele>
        <time>2020-06-10T14:21:15Z</time>
      </trkpt>
      <trkpt lat="48.56742" lon="-3.67439">
        <ele>147.8</ele>
        <time>2020-06-10T14:21:16Z</time>
      </trkpt>
      <trkpt lat="48.56741" lon="-3.67426">
        <ele>147.4</ele>
        <time>2020-06-10T14:21:17Z</time>
      </trkpt>
      <trkpt lat="48.5674" lon="-3.67414">
        <ele>147</ele>
        <time>2020-06-10T14:21:18Z</time>
      </trkpt>
      <trkpt lat="48.56739" lon="-3.67401">
        <ele>146.5</ele>
        <time>2020-06-10T14:21:19Z</time>
      </trkpt>
      <trkpt lat="48.56738" lon="-3.67387">
        <ele>146</ele>
        <time>2020-06-10T14:21:20Z</time>
      </trkpt>
      <trkpt lat="48.56737" lon="-3.67373">
        <ele>145.2</ele>
        <time>2020-06-10T14:21:21Z</time>
      </trkpt>
      <trkpt lat="48.56736" lon="-3.6736">
        <ele>144.6</ele>
        <time>2020-06-10T14:21:22Z</time>
      </trkpt>
      <trkpt lat="48.56734" lon="-3.67345">
        <ele>144</ele>
        <time>2020-06-10T14:21:23Z</time>
      </trkpt>
      <trkpt lat="48.56732" lon="-3.6733">
        <ele>143.5</ele>
        <time>2020-06-10T14:21:24Z</time>
      </trkpt>
      <trkpt lat="48.56731" lon="-3.67315">
        <ele>143.1</ele>
        <time>2020-06-10T14:21:25Z</time>
      </trkpt>
      <trkpt lat="48.56729" lon="-3.67298">
        <ele>142.9</ele>
        <time>2020-06-10T14:21:26Z</time>
      </trkpt>
      <trkpt lat="48.56728" lon="-3.67282">
        <ele>142.8</ele>
        <time>2020-06-10T14:21:27Z</time>
      </trkpt>
      <trkpt lat="48.56727" lon="-3.67265">
        <ele>142.7</ele>
        <time>2020-06-10T14:21:28Z</time>
      </trkpt>
      <trkpt lat="48.56726" lon="-3.67248">
        <ele>142.8</ele>
        <time>2020-06-10T14:21:29Z</time>
      </trkpt>
      <trkpt lat="48.56725" lon="-3.67233">
        <ele>143.3</ele>
        <time>2020-06-10T14:21:30Z</time>
      </trkpt>
      <trkpt lat="48.56725" lon="-3.67217">
        <ele>143.9</ele>
        <time>2020-06-10T14:21:31Z</time>
      </trkpt>
      <trkpt lat="48.56724" lon="-3.67202">
        <ele>144.4</ele>
        <time>2020-06-10T14:21:32Z</time>
      </trkpt>
      <trkpt lat="48.56723" lon="-3.67187">
        <ele>145</ele>
        <time>2020-06-10T14:21:33Z</time>
      </trkpt>
      <trkpt lat="48.56722" lon="-3.67173">
        <ele>145.7</ele>
        <time>2020-06-10T14:21:34Z</time>
      </trkpt>
      <trkpt lat="48.56722" lon="-3.6716">
        <ele>146.3</ele>
        <time>2020-06-10T14:21:35Z</time>
      </trkpt>
      <trkpt lat="48.56721" lon="-3.67147">
        <ele>146.9</ele>
        <time>2020-06-10T14:21:36Z</time>
      </trkpt>
      <trkpt lat="48.56721" lon="-3.67134">
        <ele>147.5</ele>
        <time>2020-06-10T14:21:37Z</time>
      </trkpt>
      <trkpt lat="48.5672" lon="-3.67122">
        <ele>148.1</ele>
        <time>2020-06-10T14:21:38Z</time>
      </trkpt>
      <trkpt lat="48.56719" lon="-3.67111">
        <ele>148.7</ele>
        <time>2020-06-10T14:21:39Z</time>
      </trkpt>
      <trkpt lat="48.56718" lon="-3.671">
        <ele>149.3</ele>
        <time>2020-06-10T14:21:40Z</time>
      </trkpt>
      <trkpt lat="48.56717" lon="-3.67089">
        <ele>149.9</ele>
        <time>2020-06-10T14:21:41Z</time>
      </trkpt>
      <trkpt lat="48.56716" lon="-3.67079">
        <ele>150.5</ele>
        <time>2020-06-10T14:21:42Z</time>
      </trkpt>
      <trkpt lat="48.56715" lon="-3.67068">
        <ele>151.1</ele>
        <time>2020-06-10T14:21:43Z</time>
      </trkpt>
      <trkpt lat="48.56715" lon="-3.67058">
        <ele>151.7</ele>
        <time>2020-06-10T14:21:44Z</time>
      </trkpt>
      <trkpt lat="48.56714" lon="-3.67048">
        <ele>152.3</ele>
        <time>2020-06-10T14:21:45Z</time>
      </trkpt>
      <trkpt lat="48.56713" lon="-3.67039">
        <ele>152.8</ele>
        <time>2020-06-10T14:21:46Z</time>
      </trkpt>
      <trkpt lat="48.56712" lon="-3.67031">
        <ele>153.3</ele>
        <time>2020-06-10T14:21:47Z</time>
      </trkpt>
      <trkpt lat="48.56711" lon="-3.67023">
        <ele>153.7</ele>
        <time>2020-06-10T14:21:48Z</time>
      </trkpt>
      <trkpt lat="48.5671" lon="-3.67015">
        <ele>154.1</ele>
        <time>2020-06-10T14:21:49Z</time>
      </trkpt>
      <trkpt lat="48.56709" lon="-3.67008">
        <ele>154.5</ele>
        <time>2020-06-10T14:21:50Z</time>
      </trkpt>
      <trkpt lat="48.56709" lon="-3.67001">
        <ele>154.9</ele>
        <time>2020-06-10T14:21:51Z</time>
      </trkpt>
      <trkpt lat="48.56708" lon="-3.66994">
        <ele>155.2</ele>
        <time>2020-06-10T14:21:52Z</time>
      </trkpt>
      <trkpt lat="48.56708" lon="-3.66988">
        <ele>155.6</ele>
        <time>2020-06-10T14:21:53Z</time>
      </trkpt>
      <trkpt lat="48.56707" lon="-3.66982">
        <ele>155.9</ele>
        <time>2020-06-10T14:21:54Z</time>
      </trkpt>
      <trkpt lat="48.56706" lon="-3.66976">
        <ele>156.2</ele>
        <time>2020-06-10T14:21:55Z</time>
      </trkpt>
      <trkpt lat="48.56706" lon="-3.6697">
        <ele>156.5</ele>
        <time>2020-06-10T14:21:56Z</time>
      </trkpt>
      <trkpt lat="48.56706" lon="-3.66965">
        <ele>156.8</ele>
        <time>2020-06-10T14:21:57Z</time>
      </trkpt>
      <trkpt lat="48.56705" lon="-3.66959">
        <ele>157.1</ele>
        <time>2020-06-10T14:21:58Z</time>
      </trkpt>
      <trkpt lat="48.56705" lon="-3.66953">
        <ele>157.4</ele>
        <time>2020-06-10T14:21:59Z</time>
      </trkpt>
      <trkpt lat="48.56705" lon="-3.66948">
        <ele>157.6</ele>
        <time>2020-06-10T14:22:00Z</time>
      </trkpt>
      <trkpt lat="48.56705" lon="-3.66943">
        <ele>157.8</ele>
        <time>2020-06-10T14:22:01Z</time>
      </trkpt>
      <trkpt lat="48.56704" lon="-3.66939">
        <ele>158</ele>
        <time>2020-06-10T14:22:02Z</time>
      </trkpt>
      <trkpt lat="48.56704" lon="-3.66934">
        <ele>158.1</ele>
        <time>2020-06-10T14:22:03Z</time>
      </trkpt>
      <trkpt lat="48.56704" lon="-3.66929">
        <ele>158.3</ele>
        <time>2020-06-10T14:22:04Z</time>
      </trkpt>
      <trkpt lat="48.56703" lon="-3.66924">
        <ele>158.4</ele>
        <time>2020-06-10T14:22:05Z</time>
      </trkpt>
      <trkpt lat="48.56703" lon="-3.66918">
        <ele>158.6</ele>
        <time>2020-06-10T14:22:06Z</time>
      </trkpt>
      <trkpt lat="48.56703" lon="-3.66913">
        <ele>158.7</ele>
        <time>2020-06-10T14:22:07Z</time>
      </trkpt>
      <trkpt lat="48.56703" lon="-3.66907">
        <ele>158.8</ele>
        <time>2020-06-10T14:22:08Z</time>
      </trkpt>
      <trkpt lat="48.56703" lon="-3.66902">
        <ele>159</ele>
        <time>2020-06-10T14:22:09Z</time>
      </trkpt>
      <trkpt lat="48.56703" lon="-3.66896">
        <ele>159.1</ele>
        <time>2020-06-10T14:22:10Z</time>
      </trkpt>
      <trkpt lat="48.56703" lon="-3.66894">
        <ele>159.2</ele>
        <time>2020-06-10T14:22:11Z</time>
      </trkpt>
      <trkpt lat="48.56702" lon="-3.66888">
        <ele>159.3</ele>
        <time>2020-06-10T14:22:12Z</time>
      </trkpt>
      <trkpt lat="48.56703" lon="-3.66883">
        <ele>159.4</ele>
        <time>2020-06-10T14:22:13Z</time>
      </trkpt>
      <trkpt lat="48.56703" lon="-3.66881">
        <ele>159.4</ele>
        <time>2020-06-10T14:22:14Z</time>
      </trkpt>
      <trkpt lat="48.56703" lon="-3.66875">
        <ele>159.5</ele>
        <time>2020-06-10T14:22:15Z</time>
      </trkpt>
      <trkpt lat="48.56702" lon="-3.66869">
        <ele>159.6</ele>
        <time>2020-06-10T14:22:16Z</time>
      </trkpt>
      <trkpt lat="48.56702" lon="-3.66867">
        <ele>159.6</ele>
        <time>2020-06-10T14:22:17Z</time>
      </trkpt>
      <trkpt lat="48.56701" lon="-3.66862">
        <ele>159.7</ele>
        <time>2020-06-10T14:22:18Z</time>
      </trkpt>
      <trkpt lat="48.56701" lon="-3.6686">
        <ele>159.7</ele>
        <time>2020-06-10T14:22:19Z</time>
      </trkpt>
      <trkpt lat="48.56701" lon="-3.66855">
        <ele>159.7</ele>
        <time>2020-06-10T14:22:20Z</time>
      </trkpt>
      <trkpt lat="48.567" lon="-3.66851">
        <ele>159.8</ele>
        <time>2020-06-10T14:22:21Z</time>
      </trkpt>
      <trkpt lat="48.56699" lon="-3.66846">
        <ele>159.8</ele>
        <time>2020-06-10T14:22:22Z</time>
      </trkpt>
      <trkpt lat="48.56699" lon="-3.66844">
        <ele>159.8</ele>
        <time>2020-06-10T14:22:23Z</time>
      </trkpt>
      <trkpt lat="48.56699" lon="-3.66839">
        <ele>159.8</ele>
        <time>2020-06-10T14:22:24Z</time>
      </trkpt>
      <trkpt lat="48.56699" lon="-3.66837">
        <ele>159.8</ele>
        <time>2020-06-10T14:22:25Z</time>
      </trkpt>
      <trkpt lat="48.56699" lon="-3.66832">
        <ele>159.9</ele>
        <time>2020-06-10T14:22:26Z</time>
      </trkpt>
      <trkpt lat="48.56699" lon="-3.66828">
        <ele>159.9</ele>
        <time>2020-06-10T14:22:27Z</time>
      </trkpt>
      <trkpt lat="48.56699" lon="-3.66823">
        <ele>159.9</ele>
        <time>2020-06-10T14:22:28Z</time>
      </trkpt>
      <trkpt lat="48.56698" lon="-3.66817">
        <ele>159.9</ele>
        <time>2020-06-10T14:22:29Z</time>
      </trkpt>
      <trkpt lat="48.56698" lon="-3.66812">
        <ele>159.8</ele>
        <time>2020-06-10T14:22:30Z</time>
      </trkpt>
      <trkpt lat="48.56697" lon="-3.66807">
        <ele>159.8</ele>
        <time>2020-06-10T14:22:31Z</time>
      </trkpt>
      <trkpt lat="48.56697" lon="-3.66799">
        <ele>159.7</ele>
        <time>2020-06-10T14:22:32Z</time>
      </trkpt>
      <trkpt lat="48.56697" lon="-3.66793">
        <ele>159.6</ele>
        <time>2020-06-10T14:22:33Z</time>
      </trkpt>
      <trkpt lat="48.56697" lon="-3.66787">
        <ele>159.6</ele>
        <time>2020-06-10T14:22:34Z</time>
      </trkpt>
      <trkpt lat="48.56696" lon="-3.6678">
        <ele>159.5</ele>
        <time>2020-06-10T14:22:35Z</time>
      </trkpt>
      <trkpt lat="48.56695" lon="-3.66774">
        <ele>159.5</ele>
        <time>2020-06-10T14:22:36Z</time>
      </trkpt>
      <trkpt lat="48.56695" lon="-3.66769">
        <ele>159.5</ele>
        <time>2020-06-10T14:22:37Z</time>
      </trkpt>
      <trkpt lat="48.56695" lon="-3.66764">
        <ele>159.4</ele>
        <time>2020-06-10T14:22:38Z</time>
      </trkpt>
      <trkpt lat="48.56695" lon="-3.66758">
        <ele>159.4</ele>
        <time>2020-06-10T14:22:39Z</time>
      </trkpt>
      <trkpt lat="48.56695" lon="-3.66753">
        <ele>159.4</ele>
        <time>2020-06-10T14:22:40Z</time>
      </trkpt>
      <trkpt lat="48.56696" lon="-3.66746">
        <ele>159.3</ele>
        <time>2020-06-10T14:22:41Z</time>
      </trkpt>
      <trkpt lat="48.56695" lon="-3.66739">
        <ele>159.2</ele>
        <time>2020-06-10T14:22:42Z</time>
      </trkpt>
      <trkpt lat="48.56694" lon="-3.66733">
        <ele>159.1</ele>
        <time>2020-06-10T14:22:43Z</time>
      </trkpt>
      <trkpt lat="48.56693" lon="-3.66724">
        <ele>159</ele>
        <time>2020-06-10T14:22:44Z</time>
      </trkpt>
      <trkpt lat="48.56691" lon="-3.66718">
        <ele>158.9</ele>
        <time>2020-06-10T14:22:45Z</time>
      </trkpt>
      <trkpt lat="48.56691" lon="-3.66712">
        <ele>158.8</ele>
        <time>2020-06-10T14:22:46Z</time>
      </trkpt>
      <trkpt lat="48.56691" lon="-3.66707">
        <ele>158.7</ele>
        <time>2020-06-10T14:22:47Z</time>
      </trkpt>
      <trkpt lat="48.56691" lon="-3.66702">
        <ele>158.6</ele>
        <time>2020-06-10T14:22:48Z</time>
      </trkpt>
      <trkpt lat="48.56691" lon="-3.66696">
        <ele>158.5</ele>
        <time>2020-06-10T14:22:49Z</time>
      </trkpt>
      <trkpt lat="48.56691" lon="-3.66691">
        <ele>158.4</ele>
        <time>2020-06-10T14:22:50Z</time>
      </trkpt>
      <trkpt lat="48.56691" lon="-3.66685">
        <ele>158.3</ele>
        <time>2020-06-10T14:22:51Z</time>
      </trkpt>
      <trkpt lat="48.56691" lon="-3.6668">
        <ele>158.2</ele>
        <time>2020-06-10T14:22:52Z</time>
      </trkpt>
      <trkpt lat="48.5669" lon="-3.66673">
        <ele>158</ele>
        <time>2020-06-10T14:22:53Z</time>
      </trkpt>
      <trkpt lat="48.5669" lon="-3.66666">
        <ele>157.9</ele>
        <time>2020-06-10T14:22:54Z</time>
      </trkpt>
      <trkpt lat="48.5669" lon="-3.66657">
        <ele>157.7</ele>
        <time>2020-06-10T14:22:55Z</time>
      </trkpt>
      <trkpt lat="48.56689" lon="-3.66649">
        <ele>157.5</ele>
        <time>2020-06-10T14:22:56Z</time>
      </trkpt>
      <trkpt lat="48.56688" lon="-3.66641">
        <ele>157.3</ele>
        <time>2020-06-10T14:22:57Z</time>
      </trkpt>
      <trkpt lat="48.56688" lon="-3.66633">
        <ele>157</ele>
        <time>2020-06-10T14:22:58Z</time>
      </trkpt>
      <trkpt lat="48.56688" lon="-3.66622">
        <ele>156.7</ele>
        <time>2020-06-10T14:22:59Z</time>
      </trkpt>
      <trkpt lat="48.56687" lon="-3.66613">
        <ele>156.4</ele>
        <time>2020-06-10T14:23:00Z</time>
      </trkpt>
      <trkpt lat="48.56686" lon="-3.66604">
        <ele>156.1</ele>
        <time>2020-06-10T14:23:01Z</time>
      </trkpt>
      <trkpt lat="48.56685" lon="-3.66593">
        <ele>155.8</ele>
        <time>2020-06-10T14:23:02Z</time>
      </trkpt>
      <trkpt lat="48.56684" lon="-3.66584">
        <ele>155.6</ele>
        <time>2020-06-10T14:23:03Z</time>
      </trkpt>
      <trkpt lat="48.56683" lon="-3.66573">
        <ele>155.2</ele>
        <time>2020-06-10T14:23:04Z</time>
      </trkpt>
      <trkpt lat="48.56682" lon="-3.66563">
        <ele>154.9</ele>
        <time>2020-06-10T14:23:05Z</time>
      </trkpt>
      <trkpt lat="48.56681" lon="-3.6655">
        <ele>154.5</ele>
        <time>2020-06-10T14:23:06Z</time>
      </trkpt>
      <trkpt lat="48.5668" lon="-3.66539">
        <ele>154.2</ele>
        <time>2020-06-10T14:23:07Z</time>
      </trkpt>
      <trkpt lat="48.5668" lon="-3.66526">
        <ele>153.8</ele>
        <time>2020-06-10T14:23:08Z</time>
      </trkpt>
      <trkpt lat="48.56679" lon="-3.66514">
        <ele>153.3</ele>
        <time>2020-06-10T14:23:09Z</time>
      </trkpt>
      <trkpt lat="48.56678" lon="-3.66502">
        <ele>152.9</ele>
        <time>2020-06-10T14:23:10Z</time>
      </trkpt>
      <trkpt lat="48.56677" lon="-3.6649">
        <ele>152.6</ele>
        <time>2020-06-10T14:23:11Z</time>
      </trkpt>
      <trkpt lat="48.56677" lon="-3.66477">
        <ele>152.1</ele>
        <time>2020-06-10T14:23:12Z</time>
      </trkpt>
      <trkpt lat="48.56676" lon="-3.66465">
        <ele>151.7</ele>
        <time>2020-06-10T14:23:13Z</time>
      </trkpt>
      <trkpt lat="48.56675" lon="-3.66452">
        <ele>151.3</ele>
        <time>2020-06-10T14:23:14Z</time>
      </trkpt>
      <trkpt lat="48.56674" lon="-3.66439">
        <ele>150.8</ele>
        <time>2020-06-10T14:23:15Z</time>
      </trkpt>
      <trkpt lat="48.56673" lon="-3.66426">
        <ele>150.3</ele>
        <time>2020-06-10T14:23:16Z</time>
      </trkpt>
      <trkpt lat="48.56671" lon="-3.66412">
        <ele>149.8</ele>
        <time>2020-06-10T14:23:17Z</time>
      </trkpt>
      <trkpt lat="48.5667" lon="-3.66398">
        <ele>149.3</ele>
        <time>2020-06-10T14:23:18Z</time>
      </trkpt>
      <trkpt lat="48.56668" lon="-3.66384">
        <ele>148.4</ele>
        <time>2020-06-10T14:23:19Z</time>
      </trkpt>
      <trkpt lat="48.56667" lon="-3.6637">
        <ele>147.4</ele>
        <time>2020-06-10T14:23:20Z</time>
      </trkpt>
      <trkpt lat="48.56665" lon="-3.66355">
        <ele>146.6</ele>
        <time>2020-06-10T14:23:21Z</time>
      </trkpt>
      <trkpt lat="48.56664" lon="-3.66339">
        <ele>145.8</ele>
        <time>2020-06-10T14:23:22Z</time>
      </trkpt>
      <trkpt lat="48.56663" lon="-3.66324">
        <ele>144.8</ele>
        <time>2020-06-10T14:23:23Z</time>
      </trkpt>
      <trkpt lat="48.56662" lon="-3.66307">
        <ele>143.5</ele>
        <time>2020-06-10T14:23:24Z</time>
      </trkpt>
      <trkpt lat="48.5666" lon="-3.6629">
        <ele>141.9</ele>
        <time>2020-06-10T14:23:25Z</time>
      </trkpt>
      <trkpt lat="48.56659" lon="-3.66273">
        <ele>140.1</ele>
        <time>2020-06-10T14:23:26Z</time>
      </trkpt>
      <trkpt lat="48.56657" lon="-3.66256">
        <ele>138.2</ele>
        <time>2020-06-10T14:23:27Z</time>
      </trkpt>
      <trkpt lat="48.56656" lon="-3.66239">
        <ele>136.3</ele>
        <time>2020-06-10T14:23:28Z</time>
      </trkpt>
      <trkpt lat="48.56655" lon="-3.66222">
        <ele>134.4</ele>
        <time>2020-06-10T14:23:29Z</time>
      </trkpt>
      <trkpt lat="48.56653" lon="-3.66205">
        <ele>132.5</ele>
        <time>2020-06-10T14:23:30Z</time>
      </trkpt>
      <trkpt lat="48.56652" lon="-3.66186">
        <ele>130.7</ele>
        <time>2020-06-10T14:23:31Z</time>
      </trkpt>
      <trkpt lat="48.5665" lon="-3.66167">
        <ele>129.1</ele>
        <time>2020-06-10T14:23:32Z</time>
      </trkpt>
      <trkpt lat="48.56649" lon="-3.66148">
        <ele>127.6</ele>
        <time>2020-06-10T14:23:33Z</time>
      </trkpt>
      <trkpt lat="48.56649" lon="-3.66128">
        <ele>126.3</ele>
        <time>2020-06-10T14:23:34Z</time>
      </trkpt>
      <trkpt lat="48.56647" lon="-3.66108">
        <ele>125.3</ele>
        <time>2020-06-10T14:23:35Z</time>
      </trkpt>
      <trkpt lat="48.56646" lon="-3.66088">
        <ele>124.6</ele>
        <time>2020-06-10T14:23:36Z</time>
      </trkpt>
      <trkpt lat="48.56645" lon="-3.66069">
        <ele>124.1</ele>
        <time>2020-06-10T14:23:37Z</time>
      </trkpt>
      <trkpt lat="48.56645" lon="-3.6605">
        <ele>123.8</ele>
        <time>2020-06-10T14:23:38Z</time>
      </trkpt>
      <trkpt lat="48.56644" lon="-3.66032">
        <ele>123.7</ele>
        <time>2020-06-10T14:23:39Z</time>
      </trkpt>
      <trkpt lat="48.56643" lon="-3.66016">
        <ele>123.7</ele>
        <time>2020-06-10T14:23:40Z</time>
      </trkpt>
      <trkpt lat="48.56642" lon="-3.66">
        <ele>123.9</ele>
        <time>2020-06-10T14:23:41Z</time>
      </trkpt>
      <trkpt lat="48.56641" lon="-3.65984">
        <ele>124.2</ele>
        <time>2020-06-10T14:23:42Z</time>
      </trkpt>
      <trkpt lat="48.5664" lon="-3.65969">
        <ele>124.5</ele>
        <time>2020-06-10T14:23:43Z</time>
      </trkpt>
      <trkpt lat="48.56638" lon="-3.65956">
        <ele>124.8</ele>
        <time>2020-06-10T14:23:44Z</time>
      </trkpt>
      <trkpt lat="48.56637" lon="-3.65944">
        <ele>125.1</ele>
        <time>2020-06-10T14:23:45Z</time>
      </trkpt>
      <trkpt lat="48.56636" lon="-3.65932">
        <ele>125.3</ele>
        <time>2020-06-10T14:23:46Z</time>
      </trkpt>
      <trkpt lat="48.56635" lon="-3.6592">
        <ele>125.6</ele>
        <time>2020-06-10T14:23:47Z</time>
      </trkpt>
      <trkpt lat="48.56635" lon="-3.6591">
        <ele>125.9</ele>
        <time>2020-06-10T14:23:48Z</time>
      </trkpt>
      <trkpt lat="48.56634" lon="-3.659">
        <ele>126.2</ele>
        <time>2020-06-10T14:23:49Z</time>
      </trkpt>
      <trkpt lat="48.56633" lon="-3.6589">
        <ele>126.5</ele>
        <time>2020-06-10T14:23:50Z</time>
      </trkpt>
      <trkpt lat="48.56633" lon="-3.65881">
        <ele>126.8</ele>
        <time>2020-06-10T14:23:51Z</time>
      </trkpt>
      <trkpt lat="48.56632" lon="-3.65873">
        <ele>127.1</ele>
        <time>2020-06-10T14:23:52Z</time>
      </trkpt>
      <trkpt lat="48.56631" lon="-3.65864">
        <ele>127.5</ele>
        <time>2020-06-10T14:23:53Z</time>
      </trkpt>
      <trkpt lat="48.5663" lon="-3.65856">
        <ele>127.8</ele>
        <time>2020-06-10T14:23:54Z</time>
      </trkpt>
      <trkpt lat="48.5663" lon="-3.65848">
        <ele>128.1</ele>
        <time>2020-06-10T14:23:55Z</time>
      </trkpt>
      <trkpt lat="48.56629" lon="-3.65841">
        <ele>128.3</ele>
        <time>2020-06-10T14:23:56Z</time>
      </trkpt>
      <trkpt lat="48.56628" lon="-3.65834">
        <ele>128.5</ele>
        <time>2020-06-10T14:23:57Z</time>
      </trkpt>
      <trkpt lat="48.56628" lon="-3.65827">
        <ele>128.7</ele>
        <time>2020-06-10T14:23:58Z</time>
      </trkpt>
      <trkpt lat="48.56628" lon="-3.65821">
        <ele>128.9</ele>
        <time>2020-06-10T14:23:59Z</time>
      </trkpt>
      <trkpt lat="48.56628" lon="-3.65813">
        <ele>129.1</ele>
        <time>2020-06-10T14:24:00Z</time>
      </trkpt>
      <trkpt lat="48.56627" lon="-3.65806">
        <ele>129.3</ele>
        <time>2020-06-10T14:24:01Z</time>
      </trkpt>
      <trkpt lat="48.56627" lon="-3.65798">
        <ele>129.5</ele>
        <time>2020-06-10T14:24:02Z</time>
      </trkpt>
      <trkpt lat="48.56627" lon="-3.6579">
        <ele>129.6</ele>
        <time>2020-06-10T14:24:03Z</time>
      </trkpt>
      <trkpt lat="48.56627" lon="-3.65781">
        <ele>129.8</ele>
        <time>2020-06-10T14:24:04Z</time>
      </trkpt>
      <trkpt lat="48.56626" lon="-3.65772">
        <ele>130</ele>
        <time>2020-06-10T14:24:05Z</time>
      </trkpt>
      <trkpt lat="48.56626" lon="-3.65764">
        <ele>130.2</ele>
        <time>2020-06-10T14:24:06Z</time>
      </trkpt>
      <trkpt lat="48.56625" lon="-3.65755">
        <ele>130.4</ele>
        <time>2020-06-10T14:24:07Z</time>
      </trkpt>
      <trkpt lat="48.56624" lon="-3.65746">
        <ele>130.7</ele>
        <time>2020-06-10T14:24:08Z</time>
      </trkpt>
      <trkpt lat="48.56624" lon="-3.65736">
        <ele>130.9</ele>
        <time>2020-06-10T14:24:09Z</time>
      </trkpt>
      <trkpt lat="48.56623" lon="-3.65727">
        <ele>131.2</ele>
        <time>2020-06-10T14:24:10Z</time>
      </trkpt>
      <trkpt lat="48.56623" lon="-3.65718">
        <ele>131.6</ele>
        <time>2020-06-10T14:24:11Z</time>
      </trkpt>
      <trkpt lat="48.56623" lon="-3.65709">
        <ele>132</ele>
        <time>2020-06-10T14:24:12Z</time>
      </trkpt>
      <trkpt lat="48.56622" lon="-3.657">
        <ele>132.5</ele>
        <time>2020-06-10T14:24:13Z</time>
      </trkpt>
      <trkpt lat="48.56622" lon="-3.65692">
        <ele>132.9</ele>
        <time>2020-06-10T14:24:14Z</time>
      </trkpt>
      <trkpt lat="48.56621" lon="-3.65684">
        <ele>133.3</ele>
        <time>2020-06-10T14:24:15Z</time>
      </trkpt>
      <trkpt lat="48.56621" lon="-3.65677">
        <ele>133.7</ele>
        <time>2020-06-10T14:24:16Z</time>
      </trkpt>
      <trkpt lat="48.5662" lon="-3.6567">
        <ele>134.1</ele>
        <time>2020-06-10T14:24:17Z</time>
      </trkpt>
      <trkpt lat="48.5662" lon="-3.65663">
        <ele>134.4</ele>
        <time>2020-06-10T14:24:18Z</time>
      </trkpt>
      <trkpt lat="48.5662" lon="-3.65657">
        <ele>134.8</ele>
        <time>2020-06-10T14:24:19Z</time>
      </trkpt>
      <trkpt lat="48.56618" lon="-3.65651">
        <ele>135.2</ele>
        <time>2020-06-10T14:24:20Z</time>
      </trkpt>
      <trkpt lat="48.56618" lon="-3.65645">
        <ele>135.5</ele>
        <time>2020-06-10T14:24:21Z</time>
      </trkpt>
      <trkpt lat="48.56616" lon="-3.65639">
        <ele>136</ele>
        <time>2020-06-10T14:24:22Z</time>
      </trkpt>
      <trkpt lat="48.56616" lon="-3.65634">
        <ele>136.3</ele>
        <time>2020-06-10T14:24:23Z</time>
      </trkpt>
      <trkpt lat="48.56616" lon="-3.65629">
        <ele>136.7</ele>
        <time>2020-06-10T14:24:24Z</time>
      </trkpt>
      <trkpt lat="48.56616" lon="-3.65625">
        <ele>137</ele>
        <time>2020-06-10T14:24:25Z</time>
      </trkpt>
      <trkpt lat="48.56616" lon="-3.65621">
        <ele>137.3</ele>
        <time>2020-06-10T14:24:26Z</time>
      </trkpt>
      <trkpt lat="48.56616" lon="-3.65616">
        <ele>137.6</ele>
        <time>2020-06-10T14:24:27Z</time>
      </trkpt>
      <trkpt lat="48.56616" lon="-3.65612">
        <ele>137.9</ele>
        <time>2020-06-10T14:24:28Z</time>
      </trkpt>
      <trkpt lat="48.56616" lon="-3.65608">
        <ele>138.2</ele>
        <time>2020-06-10T14:24:29Z</time>
      </trkpt>
      <trkpt lat="48.56615" lon="-3.65602">
        <ele>138.6</ele>
        <time>2020-06-10T14:24:30Z</time>
      </trkpt>
      <trkpt lat="48.56614" lon="-3.656">
        <ele>138.7</ele>
        <time>2020-06-10T14:24:31Z</time>
      </trkpt>
      <trkpt lat="48.56615" lon="-3.65596">
        <ele>139</ele>
        <time>2020-06-10T14:24:32Z</time>
      </trkpt>
      <trkpt lat="48.56615" lon="-3.65591">
        <ele>139.4</ele>
        <time>2020-06-10T14:24:33Z</time>
      </trkpt>
      <trkpt lat="48.56614" lon="-3.65589">
        <ele>139.6</ele>
        <time>2020-06-10T14:24:34Z</time>
      </trkpt>
      <trkpt lat="48.56612" lon="-3.65585">
        <ele>140</ele>
        <time>2020-06-10T14:24:35Z</time>
      </trkpt>
      <trkpt lat="48.56611" lon="-3.65579">
        <ele>140.4</ele>
        <time>2020-06-10T14:24:36Z</time>
      </trkpt>
      <trkpt lat="48.56611" lon="-3.65577">
        <ele>140.6</ele>
        <time>2020-06-10T14:24:37Z</time>
      </trkpt>
      <trkpt lat="48.5661" lon="-3.65572">
        <ele>141</ele>
        <time>2020-06-10T14:24:38Z</time>
      </trkpt>
      <trkpt lat="48.5661" lon="-3.6557">
        <ele>141.1</ele>
        <time>2020-06-10T14:24:39Z</time>
      </trkpt>
      <trkpt lat="48.5661" lon="-3.65565">
        <ele>141.5</ele>
        <time>2020-06-10T14:24:40Z</time>
      </trkpt>
      <trkpt lat="48.56609" lon="-3.65563">
        <ele>141.7</ele>
        <time>2020-06-10T14:24:41Z</time>
      </trkpt>
      <trkpt lat="48.56609" lon="-3.65558">
        <ele>142</ele>
        <time>2020-06-10T14:24:42Z</time>
      </trkpt>
      <trkpt lat="48.56608" lon="-3.65553">
        <ele>142.4</ele>
        <time>2020-06-10T14:24:43Z</time>
      </trkpt>
      <trkpt lat="48.56608" lon="-3.65549">
        <ele>142.7</ele>
        <time>2020-06-10T14:24:44Z</time>
      </trkpt>
      <trkpt lat="48.56608" lon="-3.65543">
        <ele>143.1</ele>
        <time>2020-06-10T14:24:45Z</time>
      </trkpt>
      <trkpt lat="48.56608" lon="-3.65541">
        <ele>143.3</ele>
        <time>2020-06-10T14:24:46Z</time>
      </trkpt>
      <trkpt lat="48.56607" lon="-3.65537">
        <ele>143.6</ele>
        <time>2020-06-10T14:24:47Z</time>
      </trkpt>
      <trkpt lat="48.56607" lon="-3.65535">
        <ele>143.7</ele>
        <time>2020-06-10T14:24:48Z</time>
      </trkpt>
      <trkpt lat="48.56606" lon="-3.6553">
        <ele>144.1</ele>
        <time>2020-06-10T14:24:49Z</time>
      </trkpt>
      <trkpt lat="48.56606" lon="-3.65528">
        <ele>144.3</ele>
        <time>2020-06-10T14:24:50Z</time>
      </trkpt>
      <trkpt lat="48.56606" lon="-3.65522">
        <ele>144.6</ele>
        <time>2020-06-10T14:24:51Z</time>
      </trkpt>
      <trkpt lat="48.56605" lon="-3.6552">
        <ele>144.8</ele>
        <time>2020-06-10T14:24:52Z</time>
      </trkpt>
      <trkpt lat="48.56604" lon="-3.65516">
        <ele>145.1</ele>
        <time>2020-06-10T14:24:53Z</time>
      </trkpt>
      <trkpt lat="48.56604" lon="-3.65515">
        <ele>145.1</ele>
        <time>2020-06-10T14:24:54Z</time>
      </trkpt>
      <trkpt lat="48.56604" lon="-3.6551">
        <ele>145.4</ele>
        <time>2020-06-10T14:24:55Z</time>
      </trkpt>
      <trkpt lat="48.56604" lon="-3.65509">
        <ele>145.5</ele>
        <time>2020-06-10T14:24:56Z</time>
      </trkpt>
      <trkpt lat="48.56604" lon="-3.65504">
        <ele>145.8</ele>
        <time>2020-06-10T14:24:57Z</time>
      </trkpt>
      <trkpt lat="48.56603" lon="-3.65502">
        <ele>145.9</ele>
        <time>2020-06-10T14:24:58Z</time>
      </trkpt>
      <trkpt lat="48.56603" lon="-3.65497">
        <ele>146.2</ele>
        <time>2020-06-10T14:24:59Z</time>
      </trkpt>
      <trkpt lat="48.56604" lon="-3.65495">
        <ele>146.3</ele>
        <time>2020-06-10T14:25:00Z</time>
      </trkpt>
      <trkpt lat="48.56604" lon="-3.6549">
        <ele>146.5</ele>
        <time>2020-06-10T14:25:01Z</time>
      </trkpt>
      <trkpt lat="48.56604" lon="-3.65489">
        <ele>146.6</ele>
        <time>2020-06-10T14:25:02Z</time>
      </trkpt>
      <trkpt lat="48.56604" lon="-3.65485">
        <ele>146.8</ele>
        <time>2020-06-10T14:25:03Z</time>
      </trkpt>
      <trkpt lat="48.56603" lon="-3.65481">
        <ele>147</ele>
        <time>2020-06-10T14:25:04Z</time>
      </trkpt>
      <trkpt lat="48.56603" lon="-3.65475">
        <ele>147.2</ele>
        <time>2020-06-10T14:25:05Z</time>
      </trkpt>
      <trkpt lat="48.56602" lon="-3.65473">
        <ele>147.3</ele>
        <time>2020-06-10T14:25:06Z</time>
      </trkpt>
      <trkpt lat="48.56601" lon="-3.65467">
        <ele>147.6</ele>
        <time>2020-06-10T14:25:07Z</time>
      </trkpt>
      <trkpt lat="48.56601" lon="-3.65466">
        <ele>147.7</ele>
        <time>2020-06-10T14:25:08Z</time>
      </trkpt>
      <trkpt lat="48.56601" lon="-3.6546">
        <ele>147.9</ele>
        <time>2020-06-10T14:25:09Z</time>
      </trkpt>
      <trkpt lat="48.56601" lon="-3.65458">
        <ele>148</ele>
        <time>2020-06-10T14:25:10Z</time>
      </trkpt>
      <trkpt lat="48.56601" lon="-3.65452">
        <ele>148.3</ele>
        <time>2020-06-10T14:25:11Z</time>
      </trkpt>
      <trkpt lat="48.56601" lon="-3.6545">
        <ele>148.3</ele>
        <time>2020-06-10T14:25:12Z</time>
      </trkpt>
      <trkpt lat="48.566" lon="-3.65444">
        <ele>148.6</ele>
        <time>2020-06-10T14:25:13Z</time>
      </trkpt>
      <trkpt lat="48.566" lon="-3.65442">
        <ele>148.7</ele>
        <time>2020-06-10T14:25:14Z</time>
      </trkpt>
      <trkpt lat="48.566" lon="-3.65438">
        <ele>148.9</ele>
        <time>2020-06-10T14:25:15Z</time>
      </trkpt>
      <trkpt lat="48.566" lon="-3.65433">
        <ele>149.1</ele>
        <time>2020-06-10T14:25:16Z</time>
      </trkpt>
      <trkpt lat="48.56599" lon="-3.65431">
        <ele>149.2</ele>
        <time>2020-06-10T14:25:17Z</time>
      </trkpt>
      <trkpt lat="48.56599" lon="-3.65427">
        <ele>149.4</ele>
        <time>2020-06-10T14:25:18Z</time>
      </trkpt>
      <trkpt lat="48.56598" lon="-3.65426">
        <ele>149.5</ele>
        <time>2020-06-10T14:25:19Z</time>
      </trkpt>
      <trkpt lat="48.56598" lon="-3.6542">
        <ele>149.7</ele>
        <time>2020-06-10T14:25:20Z</time>
      </trkpt>
      <trkpt lat="48.56598" lon="-3.65418">
        <ele>149.8</ele>
        <time>2020-06-10T14:25:21Z</time>
      </trkpt>
      <trkpt lat="48.56598" lon="-3.65413">
        <ele>150</ele>
        <time>2020-06-10T14:25:22Z</time>
      </trkpt>
      <trkpt lat="48.56598" lon="-3.65412">
        <ele>150.1</ele>
        <time>2020-06-10T14:25:23Z</time>
      </trkpt>
      <trkpt lat="48.56597" lon="-3.65407">
        <ele>150.4</ele>
        <time>2020-06-10T14:25:24Z</time>
      </trkpt>
      <trkpt lat="48.56597" lon="-3.65405">
        <ele>150.5</ele>
        <time>2020-06-10T14:25:25Z</time>
      </trkpt>
      <trkpt lat="48.56596" lon="-3.654">
        <ele>150.7</ele>
        <time>2020-06-10T14:25:26Z</time>
      </trkpt>
      <trkpt lat="48.56596" lon="-3.65399">
        <ele>150.8</ele>
        <time>2020-06-10T14:25:27Z</time>
      </trkpt>
      <trkpt lat="48.56596" lon="-3.65394">
        <ele>151.1</ele>
        <time>2020-06-10T14:25:28Z</time>
      </trkpt>
      <trkpt lat="48.56596" lon="-3.65392">
        <ele>151.2</ele>
        <time>2020-06-10T14:25:29Z</time>
      </trkpt>
      <trkpt lat="48.56595" lon="-3.65387">
        <ele>151.7</ele>
        <time>2020-06-10T14:25:30Z</time>
      </trkpt>
      <trkpt lat="48.56595" lon="-3.65386">
        <ele>151.7</ele>
        <time>2020-06-10T14:25:31Z</time>
      </trkpt>
      <trkpt lat="48.56595" lon="-3.65381">
        <ele>151.6</ele>
        <time>2020-06-10T14:25:32Z</time>
      </trkpt>
      <trkpt lat="48.56595" lon="-3.65379">
        <ele>151.6</ele>
        <time>2020-06-10T14:25:33Z</time>
      </trkpt>
      <trkpt lat="48.56594" lon="-3.65374">
        <ele>151.7</ele>
        <time>2020-06-10T14:25:34Z</time>
      </trkpt>
      <trkpt lat="48.56593" lon="-3.65372">
        <ele>151.8</ele>
        <time>2020-06-10T14:25:35Z</time>
      </trkpt>
      <trkpt lat="48.56593" lon="-3.65367">
        <ele>152</ele>
        <time>2020-06-10T14:25:36Z</time>
      </trkpt>
      <trkpt lat="48.56593" lon="-3.65365">
        <ele>152.1</ele>
        <time>2020-06-10T14:25:37Z</time>
      </trkpt>
      <trkpt lat="48.56593" lon="-3.6536">
        <ele>152.3</ele>
        <time>2020-06-10T14:25:38Z</time>
      </trkpt>
      <trkpt lat="48.56593" lon="-3.65358">
        <ele>152.4</ele>
        <time>2020-06-10T14:25:39Z</time>
      </trkpt>
      <trkpt lat="48.56593" lon="-3.65353">
        <ele>152.6</ele>
        <time>2020-06-10T14:25:40Z</time>
      </trkpt>
      <trkpt lat="48.56593" lon="-3.65348">
        <ele>152.8</ele>
        <time>2020-06-10T14:25:41Z</time>
      </trkpt>
      <trkpt lat="48.56593" lon="-3.65346">
        <ele>152.8</ele>
        <time>2020-06-10T14:25:42Z</time>
      </trkpt>
      <trkpt lat="48.56593" lon="-3.65341">
        <ele>153</ele>
        <time>2020-06-10T14:25:43Z</time>
      </trkpt>
      <trkpt lat="48.56593" lon="-3.65339">
        <ele>153.1</ele>
        <time>2020-06-10T14:25:44Z</time>
      </trkpt>
      <trkpt lat="48.56592" lon="-3.65334">
        <ele>153.2</ele>
        <time>2020-06-10T14:25:45Z</time>
      </trkpt>
      <trkpt lat="48.56592" lon="-3.65333">
        <ele>153.3</ele>
        <time>2020-06-10T14:25:46Z</time>
      </trkpt>
      <trkpt lat="48.56591" lon="-3.65327">
        <ele>153.4</ele>
        <time>2020-06-10T14:25:47Z</time>
      </trkpt>
      <trkpt lat="48.56591" lon="-3.65325">
        <ele>153.5</ele>
        <time>2020-06-10T14:25:48Z</time>
      </trkpt>
      <trkpt lat="48.56591" lon="-3.6532">
        <ele>153.6</ele>
        <time>2020-06-10T14:25:49Z</time>
      </trkpt>
      <trkpt lat="48.5659" lon="-3.65318">
        <ele>153.7</ele>
        <time>2020-06-10T14:25:50Z</time>
      </trkpt>
      <trkpt lat="48.5659" lon="-3.65313">
        <ele>153.8</ele>
        <time>2020-06-10T14:25:51Z</time>
      </trkpt>
      <trkpt lat="48.5659" lon="-3.65311">
        <ele>153.9</ele>
        <time>2020-06-10T14:25:52Z</time>
      </trkpt>
      <trkpt lat="48.5659" lon="-3.65307">
        <ele>154</ele>
        <time>2020-06-10T14:25:53Z</time>
      </trkpt>
      <trkpt lat="48.56589" lon="-3.65305">
        <ele>154</ele>
        <time>2020-06-10T14:25:54Z</time>
      </trkpt>
      <trkpt lat="48.56589" lon="-3.65301">
        <ele>154.1</ele>
        <time>2020-06-10T14:25:55Z</time>
      </trkpt>
      <trkpt lat="48.56589" lon="-3.65299">
        <ele>154.2</ele>
        <time>2020-06-10T14:25:56Z</time>
      </trkpt>
      <trkpt lat="48.56589" lon="-3.65294">
        <ele>154.3</ele>
        <time>2020-06-10T14:25:57Z</time>
      </trkpt>
      <trkpt lat="48.56588" lon="-3.65292">
        <ele>154.3</ele>
        <time>2020-06-10T14:25:58Z</time>
      </trkpt>
      <trkpt lat="48.56588" lon="-3.65287">
        <ele>154.4</ele>
        <time>2020-06-10T14:25:59Z</time>
      </trkpt>
      <trkpt lat="48.56588" lon="-3.65286">
        <ele>154.5</ele>
        <time>2020-06-10T14:26:00Z</time>
      </trkpt>
      <trkpt lat="48.56587" lon="-3.6528">
        <ele>154.6</ele>
        <time>2020-06-10T14:26:01Z</time>
      </trkpt>
      <trkpt lat="48.56587" lon="-3.65279">
        <ele>154.7</ele>
        <time>2020-06-10T14:26:02Z</time>
      </trkpt>
      <trkpt lat="48.56587" lon="-3.65273">
        <ele>154.8</ele>
        <time>2020-06-10T14:26:03Z</time>
      </trkpt>
      <trkpt lat="48.56587" lon="-3.65271">
        <ele>154.8</ele>
        <time>2020-06-10T14:26:04Z</time>
      </trkpt>
      <trkpt lat="48.56588" lon="-3.65268">
        <ele>154.9</ele>
        <time>2020-06-10T14:26:05Z</time>
      </trkpt>
      <trkpt lat="48.56588" lon="-3.65266">
        <ele>154.9</ele>
        <time>2020-06-10T14:26:06Z</time>
      </trkpt>
      <trkpt lat="48.5659" lon="-3.65263">
        <ele>155</ele>
        <time>2020-06-10T14:26:07Z</time>
      </trkpt>
      <trkpt lat="48.56591" lon="-3.65262">
        <ele>155</ele>
        <time>2020-06-10T14:26:08Z</time>
      </trkpt>
      <trkpt lat="48.56593" lon="-3.65258">
        <ele>155.1</ele>
        <time>2020-06-10T14:26:09Z</time>
      </trkpt>
      <trkpt lat="48.56593" lon="-3.65257">
        <ele>155.1</ele>
        <time>2020-06-10T14:26:10Z</time>
      </trkpt>
      <trkpt lat="48.56594" lon="-3.65255">
        <ele>155.1</ele>
        <time>2020-06-10T14:26:11Z</time>
      </trkpt>
      <trkpt lat="48.56593" lon="-3.65253">
        <ele>155.2</ele>
        <time>2020-06-10T14:26:12Z</time>
      </trkpt>
      <trkpt lat="48.56592" lon="-3.65251">
        <ele>155.2</ele>
        <time>2020-06-10T14:26:13Z</time>
      </trkpt>
      <trkpt lat="48.56591" lon="-3.65249">
        <ele>155.2</ele>
        <time>2020-06-10T14:26:14Z</time>
      </trkpt>
      <trkpt lat="48.5659" lon="-3.65247">
        <ele>155.2</ele>
        <time>2020-06-10T14:26:15Z</time>
      </trkpt>
      <trkpt lat="48.56589" lon="-3.65245">
        <ele>155.3</ele>
        <time>2020-06-10T14:26:16Z</time>
      </trkpt>
      <trkpt lat="48.56589" lon="-3.65244">
        <ele>155.3</ele>
        <time>2020-06-10T14:26:17Z</time>
      </trkpt>
      <trkpt lat="48.56589" lon="-3.65243">
        <ele>155.3</ele>
        <time>2020-06-10T14:26:18Z</time>
      </trkpt>
      <trkpt lat="48.56588" lon="-3.6524">
        <ele>155.3</ele>
        <time>2020-06-10T14:26:19Z</time>
      </trkpt>
      <trkpt lat="48.56588" lon="-3.65239">
        <ele>155.3</ele>
        <time>2020-06-10T14:26:20Z</time>
      </trkpt>
      <trkpt lat="48.56587" lon="-3.65238">
        <ele>155.3</ele>
        <time>2020-06-10T14:26:21Z</time>
      </trkpt>
      <trkpt lat="48.56587" lon="-3.65237">
        <ele>155.3</ele>
        <time>2020-06-10T14:26:22Z</time>
      </trkpt>
      <trkpt lat="48.56587" lon="-3.65236">
        <ele>155.4</ele>
        <time>2020-06-10T14:26:23Z</time>
      </trkpt>
      <trkpt lat="48.56586" lon="-3.65235">
        <ele>155.4</ele>
        <time>2020-06-10T14:26:24Z</time>
      </trkpt>
      <trkpt lat="48.56586" lon="-3.65234">
        <ele>155.4</ele>
        <time>2020-06-10T14:26:25Z</time>
      </trkpt>
      <trkpt lat="48.56586" lon="-3.65233">
        <ele>155.4</ele>
        <time>2020-06-10T14:26:26Z</time>
      </trkpt>
      <trkpt lat="48.56585" lon="-3.65232">
        <ele>155.4</ele>
        <time>2020-06-10T14:26:27Z</time>
      </trkpt>
      <trkpt lat="48.56585" lon="-3.65231">
        <ele>155.4</ele>
        <time>2020-06-10T14:26:28Z</time>
      </trkpt>
      <trkpt lat="48.56585" lon="-3.6523">
        <ele>155.4</ele>
        <time>2020-06-10T14:26:29Z</time>
      </trkpt>
      <trkpt lat="48.56585" lon="-3.65229">
        <ele>155.4</ele>
        <time>2020-06-10T14:26:51Z</time>
      </trkpt>
      <trkpt lat="48.56584" lon="-3.65229">
        <ele>155.4</ele>
        <time>2020-06-10T14:26:52Z</time>
      </trkpt>
      <trkpt lat="48.56584" lon="-3.65224">
        <ele>155.5</ele>
        <time>2020-06-10T14:26:53Z</time>
      </trkpt>
      <trkpt lat="48.56582" lon="-3.65218">
        <ele>155.5</ele>
        <time>2020-06-10T14:26:54Z</time>
      </trkpt>
      <trkpt lat="48.56581" lon="-3.65216">
        <ele>155.5</ele>
        <time>2020-06-10T14:26:55Z</time>
      </trkpt>
      <trkpt lat="48.56581" lon="-3.65211">
        <ele>155.6</ele>
        <time>2020-06-10T14:26:56Z</time>
      </trkpt>
      <trkpt lat="48.56581" lon="-3.65208">
        <ele>155.6</ele>
        <time>2020-06-10T14:26:57Z</time>
      </trkpt>
      <trkpt lat="48.56581" lon="-3.65203">
        <ele>155.7</ele>
        <time>2020-06-10T14:26:58Z</time>
      </trkpt>
      <trkpt lat="48.56582" lon="-3.65201">
        <ele>155.7</ele>
        <time>2020-06-10T14:26:59Z</time>
      </trkpt>
      <trkpt lat="48.56582" lon="-3.65199">
        <ele>155.7</ele>
        <time>2020-06-10T14:27:00Z</time>
      </trkpt>
      <trkpt lat="48.56582" lon="-3.65197">
        <ele>155.7</ele>
        <time>2020-06-10T14:27:01Z</time>
      </trkpt>
      <trkpt lat="48.56582" lon="-3.65192">
        <ele>155.8</ele>
        <time>2020-06-10T14:27:02Z</time>
      </trkpt>
      <trkpt lat="48.56582" lon="-3.6519">
        <ele>155.8</ele>
        <time>2020-06-10T14:27:03Z</time>
      </trkpt>
      <trkpt lat="48.56581" lon="-3.65185">
        <ele>155.8</ele>
        <time>2020-06-10T14:27:04Z</time>
      </trkpt>
      <trkpt lat="48.5658" lon="-3.65183">
        <ele>155.8</ele>
        <time>2020-06-10T14:27:05Z</time>
      </trkpt>
      <trkpt lat="48.5658" lon="-3.65179">
        <ele>155.8</ele>
        <time>2020-06-10T14:27:06Z</time>
      </trkpt>
      <trkpt lat="48.5658" lon="-3.65177">
        <ele>155.8</ele>
        <time>2020-06-10T14:27:07Z</time>
      </trkpt>
      <trkpt lat="48.56579" lon="-3.65175">
        <ele>155.9</ele>
        <time>2020-06-10T14:27:08Z</time>
      </trkpt>
      <trkpt lat="48.56579" lon="-3.65173">
        <ele>155.9</ele>
        <time>2020-06-10T14:27:09Z</time>
      </trkpt>
      <trkpt lat="48.56579" lon="-3.6517">
        <ele>155.9</ele>
        <time>2020-06-10T14:27:10Z</time>
      </trkpt>
      <trkpt lat="48.56578" lon="-3.65168">
        <ele>155.9</ele>
        <time>2020-06-10T14:27:11Z</time>
      </trkpt>
      <trkpt lat="48.56578" lon="-3.65167">
        <ele>155.9</ele>
        <time>2020-06-10T14:27:12Z</time>
      </trkpt>
      <trkpt lat="48.56578" lon="-3.65166">
        <ele>155.9</ele>
        <time>2020-06-10T14:27:13Z</time>
      </trkpt>
      <trkpt lat="48.56578" lon="-3.65165">
        <ele>155.9</ele>
        <time>2020-06-10T14:27:14Z</time>
      </trkpt>
      <trkpt lat="48.56578" lon="-3.65164">
        <ele>155.9</ele>
        <time>2020-06-10T14:27:15Z</time>
      </trkpt>
      <trkpt lat="48.56578" lon="-3.65163">
        <ele>155.9</ele>
        <time>2020-06-10T14:27:16Z</time>
      </trkpt>
      <trkpt lat="48.56579" lon="-3.65163">
        <ele>155.9</ele>
        <time>2020-06-10T14:27:17Z</time>
      </trkpt>
      <trkpt lat="48.56579" lon="-3.65162">
        <ele>155.9</ele>
        <time>2020-06-10T14:27:18Z</time>
      </trkpt>
      <trkpt lat="48.56579" lon="-3.65161">
        <ele>155.9</ele>
        <time>2020-06-10T14:27:19Z</time>
      </trkpt>
      <trkpt lat="48.56579" lon="-3.6516">
        <ele>155.9</ele>
        <time>2020-06-10T14:27:20Z</time>
      </trkpt>
      <trkpt lat="48.56579" lon="-3.65159">
        <ele>155.9</ele>
        <time>2020-06-10T14:27:21Z</time>
      </trkpt>
      <trkpt lat="48.56579" lon="-3.65159">
        <ele>155.9</ele>
        <time>2020-06-10T14:27:22Z</time>
      </trkpt>
      <trkpt lat="48.56579" lon="-3.65158">
        <ele>155.9</ele>
        <time>2020-06-10T14:27:33Z</time>
      </trkpt>
      <trkpt lat="48.56579" lon="-3.65157">
        <ele>155.9</ele>
        <time>2020-06-10T14:27:34Z</time>
      </trkpt>
      <trkpt lat="48.56579" lon="-3.65156">
        <ele>155.9</ele>
        <time>2020-06-10T14:27:35Z</time>
      </trkpt>
      <trkpt lat="48.56579" lon="-3.65154">
        <ele>155.9</ele>
        <time>2020-06-10T14:27:36Z</time>
      </trkpt>
      <trkpt lat="48.56578" lon="-3.65152">
        <ele>155.9</ele>
        <time>2020-06-10T14:27:37Z</time>
      </trkpt>
      <trkpt lat="48.56578" lon="-3.6515">
        <ele>155.9</ele>
        <time>2020-06-10T14:27:38Z</time>
      </trkpt>
      <trkpt lat="48.56578" lon="-3.65147">
        <ele>155.9</ele>
        <time>2020-06-10T14:27:39Z</time>
      </trkpt>
      <trkpt lat="48.56578" lon="-3.65145">
        <ele>155.9</ele>
        <time>2020-06-10T14:27:40Z</time>
      </trkpt>
      <trkpt lat="48.56577" lon="-3.65143">
        <ele>155.9</ele>
        <time>2020-06-10T14:27:41Z</time>
      </trkpt>
      <trkpt lat="48.56577" lon="-3.65142">
        <ele>155.9</ele>
        <time>2020-06-10T14:27:42Z</time>
      </trkpt>
      <trkpt lat="48.56577" lon="-3.6514">
        <ele>155.9</ele>
        <time>2020-06-10T14:27:43Z</time>
      </trkpt>
      <trkpt lat="48.56576" lon="-3.65138">
        <ele>155.9</ele>
        <time>2020-06-10T14:27:44Z</time>
      </trkpt>
      <trkpt lat="48.56576" lon="-3.65136">
        <ele>155.9</ele>
        <time>2020-06-10T14:27:45Z</time>
      </trkpt>
      <trkpt lat="48.56576" lon="-3.65133">
        <ele>155.9</ele>
        <time>2020-06-10T14:27:46Z</time>
      </trkpt>
      <trkpt lat="48.56575" lon="-3.65132">
        <ele>155.9</ele>
        <time>2020-06-10T14:27:47Z</time>
      </trkpt>
      <trkpt lat="48.56575" lon="-3.65129">
        <ele>155.9</ele>
        <time>2020-06-10T14:27:48Z</time>
      </trkpt>
      <trkpt lat="48.56574" lon="-3.65125">
        <ele>155.9</ele>
        <time>2020-06-10T14:27:49Z</time>
      </trkpt>
      <trkpt lat="48.56573" lon="-3.65123">
        <ele>155.9</ele>
        <time>2020-06-10T14:27:50Z</time>
      </trkpt>
      <trkpt lat="48.56573" lon="-3.65119">
        <ele>155.8</ele>
        <time>2020-06-10T14:27:51Z</time>
      </trkpt>
      <trkpt lat="48.56573" lon="-3.65118">
        <ele>155.8</ele>
        <time>2020-06-10T14:27:52Z</time>
      </trkpt>
      <trkpt lat="48.56572" lon="-3.65117">
        <ele>155.8</ele>
        <time>2020-06-10T14:27:53Z</time>
      </trkpt>
      <trkpt lat="48.56572" lon="-3.65118">
        <ele>155.8</ele>
        <time>2020-06-10T14:27:54Z</time>
      </trkpt>
      <trkpt lat="48.56572" lon="-3.65119">
        <ele>155.8</ele>
        <time>2020-06-10T14:27:55Z</time>
      </trkpt>
      <trkpt lat="48.56571" lon="-3.6512">
        <ele>155.8</ele>
        <time>2020-06-10T14:27:56Z</time>
      </trkpt>
      <trkpt lat="48.56571" lon="-3.6512">
        <ele>155.8</ele>
        <time>2020-06-10T14:27:57Z</time>
      </trkpt>
      <trkpt lat="48.56571" lon="-3.65121">
        <ele>155.8</ele>
        <time>2020-06-10T14:27:58Z</time>
      </trkpt>
      <trkpt lat="48.5657" lon="-3.6512">
        <ele>155.8</ele>
        <time>2020-06-10T14:27:59Z</time>
      </trkpt>
      <trkpt lat="48.5657" lon="-3.65119">
        <ele>155.8</ele>
        <time>2020-06-10T14:28:00Z</time>
      </trkpt>
      <trkpt lat="48.5657" lon="-3.65118">
        <ele>155.8</ele>
        <time>2020-06-10T14:28:01Z</time>
      </trkpt>
      <trkpt lat="48.5657" lon="-3.65117">
        <ele>155.8</ele>
        <time>2020-06-10T14:28:02Z</time>
      </trkpt>
      <trkpt lat="48.5657" lon="-3.65116">
        <ele>155.8</ele>
        <time>2020-06-10T14:28:03Z</time>
      </trkpt>
      <trkpt lat="48.56569" lon="-3.65115">
        <ele>155.8</ele>
        <time>2020-06-10T14:32:11Z</time>
      </trkpt>
      <trkpt lat="48.56569" lon="-3.65114">
        <ele>155.8</ele>
        <time>2020-06-10T14:32:12Z</time>
      </trkpt>
      <trkpt lat="48.56569" lon="-3.65113">
        <ele>155.8</ele>
        <time>2020-06-10T14:32:13Z</time>
      </trkpt>
      <trkpt lat="48.56569" lon="-3.65112">
        <ele>155.8</ele>
        <time>2020-06-10T14:32:14Z</time>
      </trkpt>
      <trkpt lat="48.56569" lon="-3.65111">
        <ele>155.7</ele>
        <time>2020-06-10T14:32:15Z</time>
      </trkpt>
      <trkpt lat="48.56568" lon="-3.6511">
        <ele>155.7</ele>
        <time>2020-06-10T14:32:16Z</time>
      </trkpt>
      <trkpt lat="48.56568" lon="-3.65109">
        <ele>155.7</ele>
        <time>2020-06-10T14:32:17Z</time>
      </trkpt>
      <trkpt lat="48.5657" lon="-3.65105">
        <ele>155.7</ele>
        <time>2020-06-10T14:32:18Z</time>
      </trkpt>
      <trkpt lat="48.5657" lon="-3.65104">
        <ele>155.7</ele>
        <time>2020-06-10T14:32:19Z</time>
      </trkpt>
      <trkpt lat="48.56571" lon="-3.65103">
        <ele>155.7</ele>
        <time>2020-06-10T14:32:20Z</time>
      </trkpt>
      <trkpt lat="48.56571" lon="-3.65103">
        <ele>155.7</ele>
        <time>2020-06-10T14:32:21Z</time>
      </trkpt>
      <trkpt lat="48.56571" lon="-3.65101">
        <ele>155.7</ele>
        <time>2020-06-10T14:32:22Z</time>
      </trkpt>
      <trkpt lat="48.56571" lon="-3.65097">
        <ele>155.7</ele>
        <time>2020-06-10T14:32:23Z</time>
      </trkpt>
      <trkpt lat="48.56571" lon="-3.65095">
        <ele>155.7</ele>
        <time>2020-06-10T14:32:24Z</time>
      </trkpt>
      <trkpt lat="48.56571" lon="-3.6509">
        <ele>155.6</ele>
        <time>2020-06-10T14:32:25Z</time>
      </trkpt>
      <trkpt lat="48.56571" lon="-3.65088">
        <ele>155.6</ele>
        <time>2020-06-10T14:32:26Z</time>
      </trkpt>
      <trkpt lat="48.5657" lon="-3.65083">
        <ele>155.6</ele>
        <time>2020-06-10T14:32:27Z</time>
      </trkpt>
      <trkpt lat="48.56569" lon="-3.65078">
        <ele>155.6</ele>
        <time>2020-06-10T14:32:28Z</time>
      </trkpt>
      <trkpt lat="48.56568" lon="-3.65072">
        <ele>155.5</ele>
        <time>2020-06-10T14:32:29Z</time>
      </trkpt>
      <trkpt lat="48.56567" lon="-3.65067">
        <ele>155.5</ele>
        <time>2020-06-10T14:32:30Z</time>
      </trkpt>
      <trkpt lat="48.56566" lon="-3.65059">
        <ele>155.5</ele>
        <time>2020-06-10T14:32:31Z</time>
      </trkpt>
      <trkpt lat="48.56565" lon="-3.65053">
        <ele>155.4</ele>
        <time>2020-06-10T14:32:32Z</time>
      </trkpt>
      <trkpt lat="48.56564" lon="-3.65046">
        <ele>155.4</ele>
        <time>2020-06-10T14:32:33Z</time>
      </trkpt>
      <trkpt lat="48.56564" lon="-3.65041">
        <ele>155.3</ele>
        <time>2020-06-10T14:32:34Z</time>
      </trkpt>
      <trkpt lat="48.56564" lon="-3.65033">
        <ele>155.3</ele>
        <time>2020-06-10T14:32:35Z</time>
      </trkpt>
      <trkpt lat="48.56565" lon="-3.65026">
        <ele>155.2</ele>
        <time>2020-06-10T14:32:36Z</time>
      </trkpt>
      <trkpt lat="48.56564" lon="-3.6502">
        <ele>155.1</ele>
        <time>2020-06-10T14:32:37Z</time>
      </trkpt>
      <trkpt lat="48.56564" lon="-3.65012">
        <ele>155.1</ele>
        <time>2020-06-10T14:32:38Z</time>
      </trkpt>
      <trkpt lat="48.56564" lon="-3.65005">
        <ele>155</ele>
        <time>2020-06-10T14:32:39Z</time>
      </trkpt>
      <trkpt lat="48.56563" lon="-3.64998">
        <ele>154.9</ele>
        <time>2020-06-10T14:32:40Z</time>
      </trkpt>
      <trkpt lat="48.56563" lon="-3.6499">
        <ele>154.9</ele>
        <time>2020-06-10T14:32:41Z</time>
      </trkpt>
      <trkpt lat="48.56562" lon="-3.64984">
        <ele>154.8</ele>
        <time>2020-06-10T14:32:42Z</time>
      </trkpt>
      <trkpt lat="48.56562" lon="-3.64976">
        <ele>154.7</ele>
        <time>2020-06-10T14:32:43Z</time>
      </trkpt>
      <trkpt lat="48.56561" lon="-3.6497">
        <ele>154.7</ele>
        <time>2020-06-10T14:32:44Z</time>
      </trkpt>
      <trkpt lat="48.56561" lon="-3.64963">
        <ele>154.6</ele>
        <time>2020-06-10T14:32:45Z</time>
      </trkpt>
      <trkpt lat="48.5656" lon="-3.64956">
        <ele>154.6</ele>
        <time>2020-06-10T14:32:46Z</time>
      </trkpt>
      <trkpt lat="48.5656" lon="-3.64949">
        <ele>154.5</ele>
        <time>2020-06-10T14:32:47Z</time>
      </trkpt>
      <trkpt lat="48.5656" lon="-3.64943">
        <ele>154.5</ele>
        <time>2020-06-10T14:32:48Z</time>
      </trkpt>
      <trkpt lat="48.56559" lon="-3.64936">
        <ele>154.4</ele>
        <time>2020-06-10T14:32:49Z</time>
      </trkpt>
      <trkpt lat="48.56559" lon="-3.6493">
        <ele>154.3</ele>
        <time>2020-06-10T14:32:50Z</time>
      </trkpt>
      <trkpt lat="48.56559" lon="-3.64925">
        <ele>154.2</ele>
        <time>2020-06-10T14:32:51Z</time>
      </trkpt>
      <trkpt lat="48.56558" lon="-3.6492">
        <ele>154.2</ele>
        <time>2020-06-10T14:32:52Z</time>
      </trkpt>
      <trkpt lat="48.56558" lon="-3.64915">
        <ele>154.1</ele>
        <time>2020-06-10T14:32:53Z</time>
      </trkpt>
      <trkpt lat="48.56558" lon="-3.6491">
        <ele>154.1</ele>
        <time>2020-06-10T14:32:54Z</time>
      </trkpt>
      <trkpt lat="48.56558" lon="-3.64904">
        <ele>154</ele>
        <time>2020-06-10T14:32:55Z</time>
      </trkpt>
      <trkpt lat="48.56558" lon="-3.649">
        <ele>154</ele>
        <time>2020-06-10T14:32:56Z</time>
      </trkpt>
      <trkpt lat="48.56559" lon="-3.64892">
        <ele>153.8</ele>
        <time>2020-06-10T14:32:57Z</time>
      </trkpt>
      <trkpt lat="48.56558" lon="-3.64886">
        <ele>153.7</ele>
        <time>2020-06-10T14:32:58Z</time>
      </trkpt>
      <trkpt lat="48.56558" lon="-3.64878">
        <ele>153.5</ele>
        <time>2020-06-10T14:32:59Z</time>
      </trkpt>
      <trkpt lat="48.56557" lon="-3.64871">
        <ele>153.2</ele>
        <time>2020-06-10T14:33:00Z</time>
      </trkpt>
      <trkpt lat="48.56558" lon="-3.64864">
        <ele>153</ele>
        <time>2020-06-10T14:33:01Z</time>
      </trkpt>
      <trkpt lat="48.56559" lon="-3.64856">
        <ele>152.7</ele>
        <time>2020-06-10T14:33:02Z</time>
      </trkpt>
      <trkpt lat="48.56559" lon="-3.6485">
        <ele>152.5</ele>
        <time>2020-06-10T14:33:03Z</time>
      </trkpt>
      <trkpt lat="48.5656" lon="-3.64844">
        <ele>152.2</ele>
        <time>2020-06-10T14:33:04Z</time>
      </trkpt>
      <trkpt lat="48.56561" lon="-3.64838">
        <ele>152</ele>
        <time>2020-06-10T14:33:05Z</time>
      </trkpt>
      <trkpt lat="48.56562" lon="-3.64833">
        <ele>151.7</ele>
        <time>2020-06-10T14:33:06Z</time>
      </trkpt>
      <trkpt lat="48.56562" lon="-3.64827">
        <ele>151.5</ele>
        <time>2020-06-10T14:33:07Z</time>
      </trkpt>
      <trkpt lat="48.56563" lon="-3.6482">
        <ele>151.2</ele>
        <time>2020-06-10T14:33:08Z</time>
      </trkpt>
      <trkpt lat="48.56563" lon="-3.64814">
        <ele>150.9</ele>
        <time>2020-06-10T14:33:09Z</time>
      </trkpt>
      <trkpt lat="48.56563" lon="-3.64807">
        <ele>150.5</ele>
        <time>2020-06-10T14:33:10Z</time>
      </trkpt>
      <trkpt lat="48.56564" lon="-3.64799">
        <ele>150.1</ele>
        <time>2020-06-10T14:33:11Z</time>
      </trkpt>
      <trkpt lat="48.56564" lon="-3.6479">
        <ele>149.6</ele>
        <time>2020-06-10T14:33:12Z</time>
      </trkpt>
      <trkpt lat="48.56564" lon="-3.6478">
        <ele>149.1</ele>
        <time>2020-06-10T14:33:13Z</time>
      </trkpt>
      <trkpt lat="48.56564" lon="-3.64769">
        <ele>148.5</ele>
        <time>2020-06-10T14:33:14Z</time>
      </trkpt>
      <trkpt lat="48.56564" lon="-3.64758">
        <ele>147.9</ele>
        <time>2020-06-10T14:33:15Z</time>
      </trkpt>
      <trkpt lat="48.56565" lon="-3.64745">
        <ele>147.3</ele>
        <time>2020-06-10T14:33:16Z</time>
      </trkpt>
      <trkpt lat="48.56565" lon="-3.64731">
        <ele>146.6</ele>
        <time>2020-06-10T14:33:17Z</time>
      </trkpt>
      <trkpt lat="48.56565" lon="-3.64715">
        <ele>145.8</ele>
        <time>2020-06-10T14:33:18Z</time>
      </trkpt>
      <trkpt lat="48.56566" lon="-3.64698">
        <ele>144.8</ele>
        <time>2020-06-10T14:33:19Z</time>
      </trkpt>
      <trkpt lat="48.56567" lon="-3.64681">
        <ele>143.7</ele>
        <time>2020-06-10T14:33:20Z</time>
      </trkpt>
      <trkpt lat="48.56568" lon="-3.64665">
        <ele>142.6</ele>
        <time>2020-06-10T14:33:21Z</time>
      </trkpt>
      <trkpt lat="48.56569" lon="-3.64648">
        <ele>141.5</ele>
        <time>2020-06-10T14:33:22Z</time>
      </trkpt>
      <trkpt lat="48.56569" lon="-3.6463">
        <ele>140.3</ele>
        <time>2020-06-10T14:33:23Z</time>
      </trkpt>
      <trkpt lat="48.56569" lon="-3.64611">
        <ele>139</ele>
        <time>2020-06-10T14:33:24Z</time>
      </trkpt>
      <trkpt lat="48.56569" lon="-3.64593">
        <ele>137.6</ele>
        <time>2020-06-10T14:33:25Z</time>
      </trkpt>
      <trkpt lat="48.5657" lon="-3.64575">
        <ele>136.1</ele>
        <time>2020-06-10T14:33:26Z</time>
      </trkpt>
      <trkpt lat="48.5657" lon="-3.64556">
        <ele>134.5</ele>
        <time>2020-06-10T14:33:27Z</time>
      </trkpt>
      <trkpt lat="48.56571" lon="-3.64537">
        <ele>133</ele>
        <time>2020-06-10T14:33:28Z</time>
      </trkpt>
      <trkpt lat="48.56572" lon="-3.64517">
        <ele>131.4</ele>
        <time>2020-06-10T14:33:29Z</time>
      </trkpt>
      <trkpt lat="48.56573" lon="-3.64496">
        <ele>129.6</ele>
        <time>2020-06-10T14:33:30Z</time>
      </trkpt>
      <trkpt lat="48.56575" lon="-3.64474">
        <ele>127.7</ele>
        <time>2020-06-10T14:33:31Z</time>
      </trkpt>
      <trkpt lat="48.56577" lon="-3.64451">
        <ele>125.9</ele>
        <time>2020-06-10T14:33:32Z</time>
      </trkpt>
      <trkpt lat="48.56578" lon="-3.64428">
        <ele>124.2</ele>
        <time>2020-06-10T14:33:33Z</time>
      </trkpt>
      <trkpt lat="48.56586" lon="-3.64403">
        <ele>122.2</ele>
        <time>2020-06-10T14:33:34Z</time>
      </trkpt>
      <trkpt lat="48.56588" lon="-3.64375">
        <ele>120.2</ele>
        <time>2020-06-10T14:33:35Z</time>
      </trkpt>
      <trkpt lat="48.5659" lon="-3.64347">
        <ele>118.2</ele>
        <time>2020-06-10T14:33:36Z</time>
      </trkpt>
      <trkpt lat="48.56591" lon="-3.6432">
        <ele>116.3</ele>
        <time>2020-06-10T14:33:37Z</time>
      </trkpt>
      <trkpt lat="48.56591" lon="-3.64295">
        <ele>114.5</ele>
        <time>2020-06-10T14:33:38Z</time>
      </trkpt>
      <trkpt lat="48.5659" lon="-3.64273">
        <ele>112.9</ele>
        <time>2020-06-10T14:33:39Z</time>
      </trkpt>
      <trkpt lat="48.56589" lon="-3.64255">
        <ele>111.6</ele>
        <time>2020-06-10T14:33:40Z</time>
      </trkpt>
      <trkpt lat="48.56586" lon="-3.64239">
        <ele>110.2</ele>
        <time>2020-06-10T14:33:41Z</time>
      </trkpt>
      <trkpt lat="48.56583" lon="-3.64222">
        <ele>108.7</ele>
        <time>2020-06-10T14:33:42Z</time>
      </trkpt>
      <trkpt lat="48.56577" lon="-3.64209">
        <ele>107.2</ele>
        <time>2020-06-10T14:33:43Z</time>
      </trkpt>
      <trkpt lat="48.56571" lon="-3.64199">
        <ele>105.9</ele>
        <time>2020-06-10T14:33:44Z</time>
      </trkpt>
      <trkpt lat="48.56561" lon="-3.6419">
        <ele>104.3</ele>
        <time>2020-06-10T14:33:45Z</time>
      </trkpt>
      <trkpt lat="48.56551" lon="-3.6418">
        <ele>102.8</ele>
        <time>2020-06-10T14:33:46Z</time>
      </trkpt>
      <trkpt lat="48.56543" lon="-3.6417">
        <ele>101.2</ele>
        <time>2020-06-10T14:33:47Z</time>
      </trkpt>
      <trkpt lat="48.56533" lon="-3.64162">
        <ele>99.7</ele>
        <time>2020-06-10T14:33:48Z</time>
      </trkpt>
      <trkpt lat="48.56526" lon="-3.64151">
        <ele>98.2</ele>
        <time>2020-06-10T14:33:49Z</time>
      </trkpt>
      <trkpt lat="48.56517" lon="-3.64142">
        <ele>96.8</ele>
        <time>2020-06-10T14:33:50Z</time>
      </trkpt>
      <trkpt lat="48.56514" lon="-3.6413">
        <ele>95.7</ele>
        <time>2020-06-10T14:33:51Z</time>
      </trkpt>
      <trkpt lat="48.5651" lon="-3.64116">
        <ele>94.3</ele>
        <time>2020-06-10T14:33:52Z</time>
      </trkpt>
      <trkpt lat="48.56509" lon="-3.64102">
        <ele>93.1</ele>
        <time>2020-06-10T14:33:53Z</time>
      </trkpt>
      <trkpt lat="48.56509" lon="-3.64089">
        <ele>92</ele>
        <time>2020-06-10T14:33:54Z</time>
      </trkpt>
      <trkpt lat="48.56511" lon="-3.64075">
        <ele>90.9</ele>
        <time>2020-06-10T14:33:55Z</time>
      </trkpt>
      <trkpt lat="48.56514" lon="-3.64063">
        <ele>89.7</ele>
        <time>2020-06-10T14:33:56Z</time>
      </trkpt>
      <trkpt lat="48.56517" lon="-3.6405">
        <ele>88.6</ele>
        <time>2020-06-10T14:33:57Z</time>
      </trkpt>
      <trkpt lat="48.56517" lon="-3.64038">
        <ele>87.5</ele>
        <time>2020-06-10T14:33:58Z</time>
      </trkpt>
      <trkpt lat="48.56519" lon="-3.64024">
        <ele>86.4</ele>
        <time>2020-06-10T14:33:59Z</time>
      </trkpt>
      <trkpt lat="48.5652" lon="-3.64012">
        <ele>85.5</ele>
        <time>2020-06-10T14:34:00Z</time>
      </trkpt>
      <trkpt lat="48.56521" lon="-3.64001">
        <ele>84.8</ele>
        <time>2020-06-10T14:34:01Z</time>
      </trkpt>
      <trkpt lat="48.56525" lon="-3.63992">
        <ele>84.1</ele>
        <time>2020-06-10T14:34:02Z</time>
      </trkpt>
      <trkpt lat="48.56528" lon="-3.63978">
        <ele>83.4</ele>
        <time>2020-06-10T14:34:03Z</time>
      </trkpt>
      <trkpt lat="48.5653" lon="-3.63965">
        <ele>82.8</ele>
        <time>2020-06-10T14:34:04Z</time>
      </trkpt>
      <trkpt lat="48.56531" lon="-3.63951">
        <ele>82.3</ele>
        <time>2020-06-10T14:34:05Z</time>
      </trkpt>
      <trkpt lat="48.56531" lon="-3.6394">
        <ele>81.9</ele>
        <time>2020-06-10T14:34:06Z</time>
      </trkpt>
      <trkpt lat="48.56532" lon="-3.6393">
        <ele>81.6</ele>
        <time>2020-06-10T14:34:07Z</time>
      </trkpt>
      <trkpt lat="48.56535" lon="-3.63921">
        <ele>81.1</ele>
        <time>2020-06-10T14:34:08Z</time>
      </trkpt>
      <trkpt lat="48.56538" lon="-3.63914">
        <ele>80.8</ele>
        <time>2020-06-10T14:34:10Z</time>
      </trkpt>
      <trkpt lat="48.5654" lon="-3.63906">
        <ele>80.6</ele>
        <time>2020-06-10T14:34:11Z</time>
      </trkpt>
      <trkpt lat="48.56541" lon="-3.639">
        <ele>80.4</ele>
        <time>2020-06-10T14:34:12Z</time>
      </trkpt>
      <trkpt lat="48.56541" lon="-3.63894">
        <ele>80.2</ele>
        <time>2020-06-10T14:34:13Z</time>
      </trkpt>
      <trkpt lat="48.5654" lon="-3.63887">
        <ele>80.1</ele>
        <time>2020-06-10T14:34:14Z</time>
      </trkpt>
      <trkpt lat="48.56537" lon="-3.63882">
        <ele>79.9</ele>
        <time>2020-06-10T14:34:15Z</time>
      </trkpt>
      <trkpt lat="48.56536" lon="-3.63877">
        <ele>79.9</ele>
        <time>2020-06-10T14:34:16Z</time>
      </trkpt>
      <trkpt lat="48.56536" lon="-3.63871">
        <ele>79.9</ele>
        <time>2020-06-10T14:34:17Z</time>
      </trkpt>
      <trkpt lat="48.56535" lon="-3.63864">
        <ele>79.9</ele>
        <time>2020-06-10T14:34:18Z</time>
      </trkpt>
      <trkpt lat="48.56535" lon="-3.63856">
        <ele>79.9</ele>
        <time>2020-06-10T14:34:19Z</time>
      </trkpt>
      <trkpt lat="48.56534" lon="-3.6385">
        <ele>80</ele>
        <time>2020-06-10T14:34:20Z</time>
      </trkpt>
      <trkpt lat="48.56533" lon="-3.63844">
        <ele>80</ele>
        <time>2020-06-10T14:34:21Z</time>
      </trkpt>
      <trkpt lat="48.56531" lon="-3.63839">
        <ele>80</ele>
        <time>2020-06-10T14:34:22Z</time>
      </trkpt>
      <trkpt lat="48.56529" lon="-3.63832">
        <ele>80</ele>
        <time>2020-06-10T14:34:23Z</time>
      </trkpt>
      <trkpt lat="48.56527" lon="-3.63829">
        <ele>80.1</ele>
        <time>2020-06-10T14:34:24Z</time>
      </trkpt>
      <trkpt lat="48.56526" lon="-3.63824">
        <ele>80.1</ele>
        <time>2020-06-10T14:34:25Z</time>
      </trkpt>
      <trkpt lat="48.56525" lon="-3.63818">
        <ele>80.1</ele>
        <time>2020-06-10T14:34:26Z</time>
      </trkpt>
      <trkpt lat="48.56522" lon="-3.63814">
        <ele>80.2</ele>
        <time>2020-06-10T14:34:27Z</time>
      </trkpt>
      <trkpt lat="48.5652" lon="-3.63807">
        <ele>80.2</ele>
        <time>2020-06-10T14:34:28Z</time>
      </trkpt>
      <trkpt lat="48.56519" lon="-3.63801">
        <ele>80.2</ele>
        <time>2020-06-10T14:34:29Z</time>
      </trkpt>
      <trkpt lat="48.56517" lon="-3.63797">
        <ele>80.3</ele>
        <time>2020-06-10T14:34:30Z</time>
      </trkpt>
      <trkpt lat="48.56516" lon="-3.63789">
        <ele>80.3</ele>
        <time>2020-06-10T14:34:31Z</time>
      </trkpt>
      <trkpt lat="48.56512" lon="-3.63787">
        <ele>80.3</ele>
        <time>2020-06-10T14:34:32Z</time>
      </trkpt>
      <trkpt lat="48.5651" lon="-3.63784">
        <ele>80.4</ele>
        <time>2020-06-10T14:34:33Z</time>
      </trkpt>
      <trkpt lat="48.56509" lon="-3.63783">
        <ele>80.4</ele>
        <time>2020-06-10T14:34:34Z</time>
      </trkpt>
      <trkpt lat="48.56507" lon="-3.63781">
        <ele>80.4</ele>
        <time>2020-06-10T14:34:35Z</time>
      </trkpt>
      <trkpt lat="48.56506" lon="-3.6378">
        <ele>80.4</ele>
        <time>2020-06-10T14:34:36Z</time>
      </trkpt>
      <trkpt lat="48.56505" lon="-3.63776">
        <ele>80.5</ele>
        <time>2020-06-10T14:34:37Z</time>
      </trkpt>
      <trkpt lat="48.56505" lon="-3.63773">
        <ele>80.5</ele>
        <time>2020-06-10T14:34:38Z</time>
      </trkpt>
      <trkpt lat="48.56504" lon="-3.63768">
        <ele>80.5</ele>
        <time>2020-06-10T14:34:39Z</time>
      </trkpt>
      <trkpt lat="48.56504" lon="-3.63762">
        <ele>80.6</ele>
        <time>2020-06-10T14:34:40Z</time>
      </trkpt>
      <trkpt lat="48.56504" lon="-3.6376">
        <ele>80.6</ele>
        <time>2020-06-10T14:34:41Z</time>
      </trkpt>
      <trkpt lat="48.56503" lon="-3.63756">
        <ele>80.6</ele>
        <time>2020-06-10T14:34:42Z</time>
      </trkpt>
      <trkpt lat="48.56503" lon="-3.6375">
        <ele>80.6</ele>
        <time>2020-06-10T14:34:43Z</time>
      </trkpt>
      <trkpt lat="48.56505" lon="-3.63747">
        <ele>80.6</ele>
        <time>2020-06-10T14:34:44Z</time>
      </trkpt>
      <trkpt lat="48.56501" lon="-3.63748">
        <ele>80.6</ele>
        <time>2020-06-10T14:34:45Z</time>
      </trkpt>
      <trkpt lat="48.565" lon="-3.63748">
        <ele>80.6</ele>
        <time>2020-06-10T14:34:46Z</time>
      </trkpt>
      <trkpt lat="48.56499" lon="-3.63745">
        <ele>80.6</ele>
        <time>2020-06-10T14:34:47Z</time>
      </trkpt>
      <trkpt lat="48.56498" lon="-3.63744">
        <ele>80.6</ele>
        <time>2020-06-10T14:34:48Z</time>
      </trkpt>
      <trkpt lat="48.56497" lon="-3.63741">
        <ele>80.6</ele>
        <time>2020-06-10T14:34:49Z</time>
      </trkpt>
      <trkpt lat="48.56495" lon="-3.63741">
        <ele>80.6</ele>
        <time>2020-06-10T14:34:50Z</time>
      </trkpt>
      <trkpt lat="48.56496" lon="-3.63739">
        <ele>80.6</ele>
        <time>2020-06-10T14:34:51Z</time>
      </trkpt>
      <trkpt lat="48.56495" lon="-3.63737">
        <ele>80.6</ele>
        <time>2020-06-10T14:34:52Z</time>
      </trkpt>
      <trkpt lat="48.56494" lon="-3.63734">
        <ele>80.6</ele>
        <time>2020-06-10T14:34:53Z</time>
      </trkpt>
      <trkpt lat="48.56494" lon="-3.63732">
        <ele>80.6</ele>
        <time>2020-06-10T14:34:54Z</time>
      </trkpt>
      <trkpt lat="48.56494" lon="-3.63735">
        <ele>80.6</ele>
        <time>2020-06-10T14:34:55Z</time>
      </trkpt>
      <trkpt lat="48.56493" lon="-3.63736">
        <ele>80.6</ele>
        <time>2020-06-10T14:34:56Z</time>
      </trkpt>
      <trkpt lat="48.56492" lon="-3.63737">
        <ele>80.6</ele>
        <time>2020-06-10T14:34:57Z</time>
      </trkpt>
      <trkpt lat="48.56493" lon="-3.63741">
        <ele>80.7</ele>
        <time>2020-06-10T14:34:58Z</time>
      </trkpt>
      <trkpt lat="48.56492" lon="-3.63741">
        <ele>80.7</ele>
        <time>2020-06-10T14:34:59Z</time>
      </trkpt>
      <trkpt lat="48.56491" lon="-3.6374">
        <ele>80.7</ele>
        <time>2020-06-10T14:35:00Z</time>
      </trkpt>
      <trkpt lat="48.56491" lon="-3.63737">
        <ele>80.7</ele>
        <time>2020-06-10T14:35:01Z</time>
      </trkpt>
      <trkpt lat="48.5649" lon="-3.63736">
        <ele>80.7</ele>
        <time>2020-06-10T14:35:02Z</time>
      </trkpt>
      <trkpt lat="48.56489" lon="-3.63735">
        <ele>80.7</ele>
        <time>2020-06-10T14:35:03Z</time>
      </trkpt>
      <trkpt lat="48.56487" lon="-3.6373">
        <ele>80.7</ele>
        <time>2020-06-10T14:35:04Z</time>
      </trkpt>
      <trkpt lat="48.56486" lon="-3.63728">
        <ele>80.7</ele>
        <time>2020-06-10T14:35:05Z</time>
      </trkpt>
      <trkpt lat="48.56484" lon="-3.63724">
        <ele>80.8</ele>
        <time>2020-06-10T14:35:06Z</time>
      </trkpt>
      <trkpt lat="48.56483" lon="-3.63724">
        <ele>80.8</ele>
        <time>2020-06-10T14:35:07Z</time>
      </trkpt>
      <trkpt lat="48.56482" lon="-3.6372">
        <ele>80.8</ele>
        <time>2020-06-10T14:35:08Z</time>
      </trkpt>
      <trkpt lat="48.56481" lon="-3.63719">
        <ele>80.8</ele>
        <time>2020-06-10T14:35:09Z</time>
      </trkpt>
      <trkpt lat="48.5648" lon="-3.63718">
        <ele>80.8</ele>
        <time>2020-06-10T14:35:10Z</time>
      </trkpt>
      <trkpt lat="48.56479" lon="-3.63718">
        <ele>80.9</ele>
        <time>2020-06-10T14:35:11Z</time>
      </trkpt>
      <trkpt lat="48.56478" lon="-3.63717">
        <ele>80.9</ele>
        <time>2020-06-10T14:35:12Z</time>
      </trkpt>
      <trkpt lat="48.56477" lon="-3.63717">
        <ele>80.9</ele>
        <time>2020-06-10T14:35:13Z</time>
      </trkpt>
      <trkpt lat="48.56478" lon="-3.63718">
        <ele>80.9</ele>
        <time>2020-06-10T14:35:14Z</time>
      </trkpt>
      <trkpt lat="48.56478" lon="-3.63717">
        <ele>80.9</ele>
        <time>2020-06-10T14:35:15Z</time>
      </trkpt>
      <trkpt lat="48.56478" lon="-3.63716">
        <ele>80.9</ele>
        <time>2020-06-10T14:35:16Z</time>
      </trkpt>
      <trkpt lat="48.56479" lon="-3.63715">
        <ele>80.9</ele>
        <time>2020-06-10T14:35:17Z</time>
      </trkpt>
      <trkpt lat="48.56479" lon="-3.63715">
        <ele>80.9</ele>
        <time>2020-06-10T14:35:18Z</time>
      </trkpt>
      <trkpt lat="48.56477" lon="-3.63715">
        <ele>80.9</ele>
        <time>2020-06-10T14:35:19Z</time>
      </trkpt>
      <trkpt lat="48.56475" lon="-3.63715">
        <ele>81</ele>
        <time>2020-06-10T14:35:20Z</time>
      </trkpt>
      <trkpt lat="48.56476" lon="-3.63715">
        <ele>81</ele>
        <time>2020-06-10T14:35:21Z</time>
      </trkpt>
      <trkpt lat="48.56475" lon="-3.63717">
        <ele>81</ele>
        <time>2020-06-10T14:35:22Z</time>
      </trkpt>
      <trkpt lat="48.56476" lon="-3.6372">
        <ele>81</ele>
        <time>2020-06-10T14:35:23Z</time>
      </trkpt>
      <trkpt lat="48.56475" lon="-3.63718">
        <ele>81</ele>
        <time>2020-06-10T14:36:20Z</time>
      </trkpt>
      <trkpt lat="48.56474" lon="-3.63715">
        <ele>81.1</ele>
        <time>2020-06-10T14:36:21Z</time>
      </trkpt>
      <trkpt lat="48.56472" lon="-3.6371">
        <ele>81.1</ele>
        <time>2020-06-10T14:36:22Z</time>
      </trkpt>
      <trkpt lat="48.56472" lon="-3.63708">
        <ele>81.1</ele>
        <time>2020-06-10T14:36:23Z</time>
      </trkpt>
      <trkpt lat="48.5647" lon="-3.63704">
        <ele>81.2</ele>
        <time>2020-06-10T14:36:24Z</time>
      </trkpt>
      <trkpt lat="48.5647" lon="-3.63699">
        <ele>81.2</ele>
        <time>2020-06-10T14:36:25Z</time>
      </trkpt>
      <trkpt lat="48.5647" lon="-3.63694">
        <ele>81.2</ele>
        <time>2020-06-10T14:36:26Z</time>
      </trkpt>
      <trkpt lat="48.56469" lon="-3.6369">
        <ele>81.3</ele>
        <time>2020-06-10T14:36:27Z</time>
      </trkpt>
      <trkpt lat="48.56468" lon="-3.63686">
        <ele>81.3</ele>
        <time>2020-06-10T14:36:28Z</time>
      </trkpt>
      <trkpt lat="48.56466" lon="-3.63682">
        <ele>81.3</ele>
        <time>2020-06-10T14:36:29Z</time>
      </trkpt>
      <trkpt lat="48.56464" lon="-3.63679">
        <ele>81.4</ele>
        <time>2020-06-10T14:36:30Z</time>
      </trkpt>
      <trkpt lat="48.56462" lon="-3.63675">
        <ele>81.4</ele>
        <time>2020-06-10T14:36:31Z</time>
      </trkpt>
      <trkpt lat="48.56461" lon="-3.63671">
        <ele>81.4</ele>
        <time>2020-06-10T14:36:32Z</time>
      </trkpt>
      <trkpt lat="48.56459" lon="-3.63668">
        <ele>81.4</ele>
        <time>2020-06-10T14:36:33Z</time>
      </trkpt>
      <trkpt lat="48.56457" lon="-3.63663">
        <ele>81.5</ele>
        <time>2020-06-10T14:36:34Z</time>
      </trkpt>
      <trkpt lat="48.56455" lon="-3.63658">
        <ele>81.5</ele>
        <time>2020-06-10T14:36:35Z</time>
      </trkpt>
      <trkpt lat="48.56454" lon="-3.63654">
        <ele>81.5</ele>
        <time>2020-06-10T14:36:36Z</time>
      </trkpt>
      <trkpt lat="48.56452" lon="-3.63649">
        <ele>81.6</ele>
        <time>2020-06-10T14:36:37Z</time>
      </trkpt>
      <trkpt lat="48.56451" lon="-3.63645">
        <ele>81.6</ele>
        <time>2020-06-10T14:36:38Z</time>
      </trkpt>
      <trkpt lat="48.56449" lon="-3.6364">
        <ele>81.6</ele>
        <time>2020-06-10T14:36:39Z</time>
      </trkpt>
      <trkpt lat="48.56447" lon="-3.63636">
        <ele>81.7</ele>
        <time>2020-06-10T14:36:40Z</time>
      </trkpt>
      <trkpt lat="48.56445" lon="-3.63632">
        <ele>81.8</ele>
        <time>2020-06-10T14:36:41Z</time>
      </trkpt>
      <trkpt lat="48.56443" lon="-3.63627">
        <ele>81.8</ele>
        <time>2020-06-10T14:36:42Z</time>
      </trkpt>
      <trkpt lat="48.56441" lon="-3.63623">
        <ele>81.9</ele>
        <time>2020-06-10T14:36:43Z</time>
      </trkpt>
      <trkpt lat="48.56439" lon="-3.63619">
        <ele>82</ele>
        <time>2020-06-10T14:36:44Z</time>
      </trkpt>
      <trkpt lat="48.56437" lon="-3.63614">
        <ele>82.1</ele>
        <time>2020-06-10T14:36:45Z</time>
      </trkpt>
      <trkpt lat="48.56434" lon="-3.6361">
        <ele>82.2</ele>
        <time>2020-06-10T14:36:46Z</time>
      </trkpt>
      <trkpt lat="48.56431" lon="-3.63606">
        <ele>82.4</ele>
        <time>2020-06-10T14:36:47Z</time>
      </trkpt>
      <trkpt lat="48.56429" lon="-3.63601">
        <ele>82.5</ele>
        <time>2020-06-10T14:36:48Z</time>
      </trkpt>
      <trkpt lat="48.56427" lon="-3.63596">
        <ele>82.6</ele>
        <time>2020-06-10T14:36:49Z</time>
      </trkpt>
      <trkpt lat="48.56425" lon="-3.63591">
        <ele>82.7</ele>
        <time>2020-06-10T14:36:50Z</time>
      </trkpt>
      <trkpt lat="48.56423" lon="-3.63586">
        <ele>82.9</ele>
        <time>2020-06-10T14:36:51Z</time>
      </trkpt>
      <trkpt lat="48.56421" lon="-3.63581">
        <ele>83</ele>
        <time>2020-06-10T14:36:52Z</time>
      </trkpt>
      <trkpt lat="48.56419" lon="-3.63576">
        <ele>83.1</ele>
        <time>2020-06-10T14:36:53Z</time>
      </trkpt>
      <trkpt lat="48.56418" lon="-3.63571">
        <ele>83.2</ele>
        <time>2020-06-10T14:36:54Z</time>
      </trkpt>
      <trkpt lat="48.56416" lon="-3.63567">
        <ele>83.4</ele>
        <time>2020-06-10T14:36:55Z</time>
      </trkpt>
      <trkpt lat="48.56413" lon="-3.63562">
        <ele>83.5</ele>
        <time>2020-06-10T14:36:56Z</time>
      </trkpt>
      <trkpt lat="48.56411" lon="-3.63557">
        <ele>83.6</ele>
        <time>2020-06-10T14:36:57Z</time>
      </trkpt>
      <trkpt lat="48.5641" lon="-3.63552">
        <ele>83.8</ele>
        <time>2020-06-10T14:36:58Z</time>
      </trkpt>
      <trkpt lat="48.56408" lon="-3.63547">
        <ele>83.9</ele>
        <time>2020-06-10T14:36:59Z</time>
      </trkpt>
      <trkpt lat="48.56406" lon="-3.63543">
        <ele>84</ele>
        <time>2020-06-10T14:37:00Z</time>
      </trkpt>
      <trkpt lat="48.56404" lon="-3.63538">
        <ele>84.2</ele>
        <time>2020-06-10T14:37:01Z</time>
      </trkpt>
      <trkpt lat="48.56402" lon="-3.63534">
        <ele>84.3</ele>
        <time>2020-06-10T14:37:02Z</time>
      </trkpt>
      <trkpt lat="48.564" lon="-3.6353">
        <ele>84.4</ele>
        <time>2020-06-10T14:37:03Z</time>
      </trkpt>
      <trkpt lat="48.56398" lon="-3.63526">
        <ele>84.4</ele>
        <time>2020-06-10T14:37:04Z</time>
      </trkpt>
      <trkpt lat="48.56396" lon="-3.63522">
        <ele>84.6</ele>
        <time>2020-06-10T14:37:05Z</time>
      </trkpt>
      <trkpt lat="48.56393" lon="-3.63518">
        <ele>84.6</ele>
        <time>2020-06-10T14:37:06Z</time>
      </trkpt>
      <trkpt lat="48.56391" lon="-3.63514">
        <ele>84.7</ele>
        <time>2020-06-10T14:37:07Z</time>
      </trkpt>
      <trkpt lat="48.56389" lon="-3.63509">
        <ele>84.8</ele>
        <time>2020-06-10T14:37:08Z</time>
      </trkpt>
      <trkpt lat="48.56386" lon="-3.63505">
        <ele>85</ele>
        <time>2020-06-10T14:37:09Z</time>
      </trkpt>
      <trkpt lat="48.56384" lon="-3.63501">
        <ele>85.1</ele>
        <time>2020-06-10T14:37:10Z</time>
      </trkpt>
      <trkpt lat="48.56381" lon="-3.63497">
        <ele>85.2</ele>
        <time>2020-06-10T14:37:11Z</time>
      </trkpt>
      <trkpt lat="48.56378" lon="-3.63492">
        <ele>85.3</ele>
        <time>2020-06-10T14:37:12Z</time>
      </trkpt>
      <trkpt lat="48.56376" lon="-3.63487">
        <ele>85.4</ele>
        <time>2020-06-10T14:37:13Z</time>
      </trkpt>
      <trkpt lat="48.56374" lon="-3.63483">
        <ele>85.5</ele>
        <time>2020-06-10T14:37:14Z</time>
      </trkpt>
      <trkpt lat="48.56371" lon="-3.63479">
        <ele>85.7</ele>
        <time>2020-06-10T14:37:15Z</time>
      </trkpt>
      <trkpt lat="48.56369" lon="-3.63476">
        <ele>85.8</ele>
        <time>2020-06-10T14:37:16Z</time>
      </trkpt>
      <trkpt lat="48.56366" lon="-3.63472">
        <ele>85.9</ele>
        <time>2020-06-10T14:37:17Z</time>
      </trkpt>
      <trkpt lat="48.56363" lon="-3.63469">
        <ele>86</ele>
        <time>2020-06-10T14:37:18Z</time>
      </trkpt>
      <trkpt lat="48.5636" lon="-3.63465">
        <ele>86.1</ele>
        <time>2020-06-10T14:37:19Z</time>
      </trkpt>
      <trkpt lat="48.56358" lon="-3.63461">
        <ele>86.2</ele>
        <time>2020-06-10T14:37:20Z</time>
      </trkpt>
      <trkpt lat="48.56355" lon="-3.63456">
        <ele>86.3</ele>
        <time>2020-06-10T14:37:21Z</time>
      </trkpt>
      <trkpt lat="48.56353" lon="-3.63452">
        <ele>86.4</ele>
        <time>2020-06-10T14:37:22Z</time>
      </trkpt>
      <trkpt lat="48.5635" lon="-3.63448">
        <ele>86.5</ele>
        <time>2020-06-10T14:37:23Z</time>
      </trkpt>
      <trkpt lat="48.56348" lon="-3.63444">
        <ele>86.6</ele>
        <time>2020-06-10T14:37:24Z</time>
      </trkpt>
      <trkpt lat="48.56345" lon="-3.63441">
        <ele>86.7</ele>
        <time>2020-06-10T14:37:25Z</time>
      </trkpt>
      <trkpt lat="48.56343" lon="-3.63437">
        <ele>86.8</ele>
        <time>2020-06-10T14:37:26Z</time>
      </trkpt>
      <trkpt lat="48.5634" lon="-3.63433">
        <ele>86.9</ele>
        <time>2020-06-10T14:37:27Z</time>
      </trkpt>
      <trkpt lat="48.56338" lon="-3.6343">
        <ele>87</ele>
        <time>2020-06-10T14:37:28Z</time>
      </trkpt>
      <trkpt lat="48.56335" lon="-3.63426">
        <ele>87.1</ele>
        <time>2020-06-10T14:37:29Z</time>
      </trkpt>
      <trkpt lat="48.56332" lon="-3.63421">
        <ele>87.2</ele>
        <time>2020-06-10T14:37:30Z</time>
      </trkpt>
      <trkpt lat="48.56329" lon="-3.63418">
        <ele>87.3</ele>
        <time>2020-06-10T14:37:31Z</time>
      </trkpt>
      <trkpt lat="48.56326" lon="-3.63414">
        <ele>87.4</ele>
        <time>2020-06-10T14:37:32Z</time>
      </trkpt>
      <trkpt lat="48.56323" lon="-3.6341">
        <ele>87.5</ele>
        <time>2020-06-10T14:37:33Z</time>
      </trkpt>
      <trkpt lat="48.5632" lon="-3.63407">
        <ele>87.6</ele>
        <time>2020-06-10T14:37:34Z</time>
      </trkpt>
      <trkpt lat="48.56317" lon="-3.63404">
        <ele>87.7</ele>
        <time>2020-06-10T14:37:35Z</time>
      </trkpt>
      <trkpt lat="48.56314" lon="-3.63401">
        <ele>87.7</ele>
        <time>2020-06-10T14:37:36Z</time>
      </trkpt>
      <trkpt lat="48.56311" lon="-3.63398">
        <ele>87.8</ele>
        <time>2020-06-10T14:37:37Z</time>
      </trkpt>
      <trkpt lat="48.56308" lon="-3.63395">
        <ele>87.9</ele>
        <time>2020-06-10T14:37:38Z</time>
      </trkpt>
      <trkpt lat="48.56305" lon="-3.63392">
        <ele>88</ele>
        <time>2020-06-10T14:37:39Z</time>
      </trkpt>
      <trkpt lat="48.56302" lon="-3.6339">
        <ele>88.1</ele>
        <time>2020-06-10T14:37:40Z</time>
      </trkpt>
      <trkpt lat="48.56299" lon="-3.63388">
        <ele>88.1</ele>
        <time>2020-06-10T14:37:41Z</time>
      </trkpt>
      <trkpt lat="48.56296" lon="-3.63386">
        <ele>88.2</ele>
        <time>2020-06-10T14:37:42Z</time>
      </trkpt>
      <trkpt lat="48.56292" lon="-3.63384">
        <ele>88.2</ele>
        <time>2020-06-10T14:37:43Z</time>
      </trkpt>
      <trkpt lat="48.5629" lon="-3.63382">
        <ele>88.5</ele>
        <time>2020-06-10T14:37:44Z</time>
      </trkpt>
      <trkpt lat="48.56287" lon="-3.6338">
        <ele>88.6</ele>
        <time>2020-06-10T14:37:45Z</time>
      </trkpt>
      <trkpt lat="48.56284" lon="-3.63378">
        <ele>88.7</ele>
        <time>2020-06-10T14:37:46Z</time>
      </trkpt>
      <trkpt lat="48.56281" lon="-3.63376">
        <ele>88.8</ele>
        <time>2020-06-10T14:37:47Z</time>
      </trkpt>
      <trkpt lat="48.56277" lon="-3.63373">
        <ele>89</ele>
        <time>2020-06-10T14:37:48Z</time>
      </trkpt>
      <trkpt lat="48.56274" lon="-3.63371">
        <ele>89.1</ele>
        <time>2020-06-10T14:37:49Z</time>
      </trkpt>
      <trkpt lat="48.5627" lon="-3.63368">
        <ele>89.2</ele>
        <time>2020-06-10T14:37:50Z</time>
      </trkpt>
      <trkpt lat="48.56267" lon="-3.63366">
        <ele>89.4</ele>
        <time>2020-06-10T14:37:51Z</time>
      </trkpt>
      <trkpt lat="48.56263" lon="-3.63363">
        <ele>89.5</ele>
        <time>2020-06-10T14:37:52Z</time>
      </trkpt>
      <trkpt lat="48.56259" lon="-3.63361">
        <ele>89.7</ele>
        <time>2020-06-10T14:37:53Z</time>
      </trkpt>
      <trkpt lat="48.56256" lon="-3.63359">
        <ele>89.8</ele>
        <time>2020-06-10T14:37:54Z</time>
      </trkpt>
      <trkpt lat="48.56253" lon="-3.63357">
        <ele>89.9</ele>
        <time>2020-06-10T14:37:55Z</time>
      </trkpt>
      <trkpt lat="48.5625" lon="-3.63353">
        <ele>90.1</ele>
        <time>2020-06-10T14:37:56Z</time>
      </trkpt>
      <trkpt lat="48.56246" lon="-3.6335">
        <ele>90.3</ele>
        <time>2020-06-10T14:37:57Z</time>
      </trkpt>
      <trkpt lat="48.56242" lon="-3.63347">
        <ele>90.4</ele>
        <time>2020-06-10T14:37:58Z</time>
      </trkpt>
      <trkpt lat="48.56238" lon="-3.63343">
        <ele>90.6</ele>
        <time>2020-06-10T14:37:59Z</time>
      </trkpt>
      <trkpt lat="48.56234" lon="-3.6334">
        <ele>90.8</ele>
        <time>2020-06-10T14:38:00Z</time>
      </trkpt>
      <trkpt lat="48.5623" lon="-3.63336">
        <ele>90.9</ele>
        <time>2020-06-10T14:38:01Z</time>
      </trkpt>
      <trkpt lat="48.56227" lon="-3.63334">
        <ele>91</ele>
        <time>2020-06-10T14:38:02Z</time>
      </trkpt>
      <trkpt lat="48.56224" lon="-3.6333">
        <ele>91.1</ele>
        <time>2020-06-10T14:38:03Z</time>
      </trkpt>
      <trkpt lat="48.56221" lon="-3.63327">
        <ele>91.3</ele>
        <time>2020-06-10T14:38:04Z</time>
      </trkpt>
      <trkpt lat="48.56217" lon="-3.63323">
        <ele>91.5</ele>
        <time>2020-06-10T14:38:05Z</time>
      </trkpt>
      <trkpt lat="48.56214" lon="-3.6332">
        <ele>91.6</ele>
        <time>2020-06-10T14:38:06Z</time>
      </trkpt>
      <trkpt lat="48.56211" lon="-3.63317">
        <ele>91.7</ele>
        <time>2020-06-10T14:38:07Z</time>
      </trkpt>
      <trkpt lat="48.56209" lon="-3.63314">
        <ele>91.8</ele>
        <time>2020-06-10T14:38:08Z</time>
      </trkpt>
      <trkpt lat="48.56206" lon="-3.6331">
        <ele>92</ele>
        <time>2020-06-10T14:38:09Z</time>
      </trkpt>
      <trkpt lat="48.56205" lon="-3.63309">
        <ele>92</ele>
        <time>2020-06-10T14:38:10Z</time>
      </trkpt>
      <trkpt lat="48.56202" lon="-3.63305">
        <ele>92.2</ele>
        <time>2020-06-10T14:38:11Z</time>
      </trkpt>
      <trkpt lat="48.562" lon="-3.63302">
        <ele>92.3</ele>
        <time>2020-06-10T14:38:12Z</time>
      </trkpt>
      <trkpt lat="48.56197" lon="-3.63299">
        <ele>92.4</ele>
        <time>2020-06-10T14:38:13Z</time>
      </trkpt>
      <trkpt lat="48.56193" lon="-3.63295">
        <ele>92.5</ele>
        <time>2020-06-10T14:38:14Z</time>
      </trkpt>
      <trkpt lat="48.5619" lon="-3.6329">
        <ele>92.6</ele>
        <time>2020-06-10T14:38:15Z</time>
      </trkpt>
      <trkpt lat="48.56187" lon="-3.63287">
        <ele>92.8</ele>
        <time>2020-06-10T14:38:16Z</time>
      </trkpt>
      <trkpt lat="48.56185" lon="-3.63284">
        <ele>92.8</ele>
        <time>2020-06-10T14:38:17Z</time>
      </trkpt>
      <trkpt lat="48.56182" lon="-3.6328">
        <ele>93</ele>
        <time>2020-06-10T14:38:18Z</time>
      </trkpt>
      <trkpt lat="48.56179" lon="-3.63274">
        <ele>93.2</ele>
        <time>2020-06-10T14:38:19Z</time>
      </trkpt>
      <trkpt lat="48.56176" lon="-3.63269">
        <ele>93.3</ele>
        <time>2020-06-10T14:38:20Z</time>
      </trkpt>
      <trkpt lat="48.56173" lon="-3.63266">
        <ele>93.5</ele>
        <time>2020-06-10T14:38:21Z</time>
      </trkpt>
      <trkpt lat="48.56171" lon="-3.63262">
        <ele>93.6</ele>
        <time>2020-06-10T14:38:22Z</time>
      </trkpt>
      <trkpt lat="48.56169" lon="-3.63258">
        <ele>93.7</ele>
        <time>2020-06-10T14:38:23Z</time>
      </trkpt>
      <trkpt lat="48.56166" lon="-3.63253">
        <ele>93.9</ele>
        <time>2020-06-10T14:38:24Z</time>
      </trkpt>
      <trkpt lat="48.56164" lon="-3.6325">
        <ele>94</ele>
        <time>2020-06-10T14:38:25Z</time>
      </trkpt>
      <trkpt lat="48.56162" lon="-3.63245">
        <ele>94.1</ele>
        <time>2020-06-10T14:38:26Z</time>
      </trkpt>
      <trkpt lat="48.5616" lon="-3.63241">
        <ele>94.3</ele>
        <time>2020-06-10T14:38:27Z</time>
      </trkpt>
      <trkpt lat="48.56158" lon="-3.63237">
        <ele>94.4</ele>
        <time>2020-06-10T14:38:28Z</time>
      </trkpt>
      <trkpt lat="48.56156" lon="-3.63232">
        <ele>94.5</ele>
        <time>2020-06-10T14:38:29Z</time>
      </trkpt>
      <trkpt lat="48.56154" lon="-3.63227">
        <ele>94.6</ele>
        <time>2020-06-10T14:38:30Z</time>
      </trkpt>
      <trkpt lat="48.56151" lon="-3.63221">
        <ele>94.8</ele>
        <time>2020-06-10T14:38:31Z</time>
      </trkpt>
      <trkpt lat="48.56149" lon="-3.63217">
        <ele>94.9</ele>
        <time>2020-06-10T14:38:32Z</time>
      </trkpt>
      <trkpt lat="48.56147" lon="-3.63213">
        <ele>95</ele>
        <time>2020-06-10T14:38:33Z</time>
      </trkpt>
      <trkpt lat="48.56145" lon="-3.63208">
        <ele>95.1</ele>
        <time>2020-06-10T14:38:34Z</time>
      </trkpt>
      <trkpt lat="48.56143" lon="-3.63204">
        <ele>95.2</ele>
        <time>2020-06-10T14:38:35Z</time>
      </trkpt>
      <trkpt lat="48.5614" lon="-3.63198">
        <ele>95.3</ele>
        <time>2020-06-10T14:38:36Z</time>
      </trkpt>
      <trkpt lat="48.56138" lon="-3.63195">
        <ele>95.4</ele>
        <time>2020-06-10T14:38:37Z</time>
      </trkpt>
      <trkpt lat="48.56135" lon="-3.63189">
        <ele>95.6</ele>
        <time>2020-06-10T14:38:38Z</time>
      </trkpt>
      <trkpt lat="48.56132" lon="-3.63185">
        <ele>95.7</ele>
        <time>2020-06-10T14:38:39Z</time>
      </trkpt>
      <trkpt lat="48.5613" lon="-3.6318">
        <ele>95.8</ele>
        <time>2020-06-10T14:38:40Z</time>
      </trkpt>
      <trkpt lat="48.56128" lon="-3.63174">
        <ele>96</ele>
        <time>2020-06-10T14:38:41Z</time>
      </trkpt>
      <trkpt lat="48.56126" lon="-3.63169">
        <ele>96.1</ele>
        <time>2020-06-10T14:38:42Z</time>
      </trkpt>
      <trkpt lat="48.56124" lon="-3.63165">
        <ele>96.2</ele>
        <time>2020-06-10T14:38:43Z</time>
      </trkpt>
      <trkpt lat="48.56122" lon="-3.6316">
        <ele>96.3</ele>
        <time>2020-06-10T14:38:44Z</time>
      </trkpt>
      <trkpt lat="48.56119" lon="-3.63153">
        <ele>96.5</ele>
        <time>2020-06-10T14:38:45Z</time>
      </trkpt>
      <trkpt lat="48.56117" lon="-3.63147">
        <ele>96.6</ele>
        <time>2020-06-10T14:38:46Z</time>
      </trkpt>
      <trkpt lat="48.56114" lon="-3.63139">
        <ele>96.8</ele>
        <time>2020-06-10T14:38:47Z</time>
      </trkpt>
      <trkpt lat="48.56111" lon="-3.63133">
        <ele>97</ele>
        <time>2020-06-10T14:38:48Z</time>
      </trkpt>
      <trkpt lat="48.56109" lon="-3.63128">
        <ele>97.1</ele>
        <time>2020-06-10T14:38:49Z</time>
      </trkpt>
      <trkpt lat="48.56107" lon="-3.63125">
        <ele>97.3</ele>
        <time>2020-06-10T14:38:50Z</time>
      </trkpt>
      <trkpt lat="48.56105" lon="-3.63121">
        <ele>97.4</ele>
        <time>2020-06-10T14:38:51Z</time>
      </trkpt>
      <trkpt lat="48.56102" lon="-3.63115">
        <ele>97.6</ele>
        <time>2020-06-10T14:38:52Z</time>
      </trkpt>
      <trkpt lat="48.561" lon="-3.63112">
        <ele>97.7</ele>
        <time>2020-06-10T14:38:53Z</time>
      </trkpt>
      <trkpt lat="48.56099" lon="-3.63107">
        <ele>97.8</ele>
        <time>2020-06-10T14:38:54Z</time>
      </trkpt>
      <trkpt lat="48.56096" lon="-3.63101">
        <ele>98</ele>
        <time>2020-06-10T14:38:55Z</time>
      </trkpt>
      <trkpt lat="48.56096" lon="-3.63099">
        <ele>98.1</ele>
        <time>2020-06-10T14:38:56Z</time>
      </trkpt>
      <trkpt lat="48.56094" lon="-3.63095">
        <ele>98.2</ele>
        <time>2020-06-10T14:38:57Z</time>
      </trkpt>
      <trkpt lat="48.56091" lon="-3.6309">
        <ele>98.4</ele>
        <time>2020-06-10T14:38:58Z</time>
      </trkpt>
      <trkpt lat="48.56088" lon="-3.63085">
        <ele>98.5</ele>
        <time>2020-06-10T14:38:59Z</time>
      </trkpt>
      <trkpt lat="48.56086" lon="-3.63082">
        <ele>98.6</ele>
        <time>2020-06-10T14:39:00Z</time>
      </trkpt>
      <trkpt lat="48.56084" lon="-3.63077">
        <ele>98.8</ele>
        <time>2020-06-10T14:39:01Z</time>
      </trkpt>
      <trkpt lat="48.56081" lon="-3.6307">
        <ele>99</ele>
        <time>2020-06-10T14:39:02Z</time>
      </trkpt>
      <trkpt lat="48.56079" lon="-3.63064">
        <ele>99.2</ele>
        <time>2020-06-10T14:39:03Z</time>
      </trkpt>
      <trkpt lat="48.56076" lon="-3.63057">
        <ele>99.4</ele>
        <time>2020-06-10T14:39:04Z</time>
      </trkpt>
      <trkpt lat="48.56074" lon="-3.63053">
        <ele>99.5</ele>
        <time>2020-06-10T14:39:05Z</time>
      </trkpt>
      <trkpt lat="48.56072" lon="-3.63048">
        <ele>99.7</ele>
        <time>2020-06-10T14:39:06Z</time>
      </trkpt>
      <trkpt lat="48.56071" lon="-3.63042">
        <ele>99.9</ele>
        <time>2020-06-10T14:39:07Z</time>
      </trkpt>
      <trkpt lat="48.56069" lon="-3.63038">
        <ele>100</ele>
        <time>2020-06-10T14:39:08Z</time>
      </trkpt>
      <trkpt lat="48.56067" lon="-3.63031">
        <ele>100.2</ele>
        <time>2020-06-10T14:39:09Z</time>
      </trkpt>
      <trkpt lat="48.56066" lon="-3.63026">
        <ele>100.4</ele>
        <time>2020-06-10T14:39:10Z</time>
      </trkpt>
      <trkpt lat="48.56064" lon="-3.6302">
        <ele>100.6</ele>
        <time>2020-06-10T14:39:11Z</time>
      </trkpt>
      <trkpt lat="48.56063" lon="-3.63014">
        <ele>100.7</ele>
        <time>2020-06-10T14:39:12Z</time>
      </trkpt>
      <trkpt lat="48.56063" lon="-3.63009">
        <ele>100.9</ele>
        <time>2020-06-10T14:39:13Z</time>
      </trkpt>
      <trkpt lat="48.56062" lon="-3.63003">
        <ele>101</ele>
        <time>2020-06-10T14:39:14Z</time>
      </trkpt>
      <trkpt lat="48.5606" lon="-3.62998">
        <ele>101.2</ele>
        <time>2020-06-10T14:39:15Z</time>
      </trkpt>
      <trkpt lat="48.56059" lon="-3.62994">
        <ele>101.3</ele>
        <time>2020-06-10T14:39:16Z</time>
      </trkpt>
      <trkpt lat="48.56058" lon="-3.62989">
        <ele>101.5</ele>
        <time>2020-06-10T14:39:17Z</time>
      </trkpt>
      <trkpt lat="48.56057" lon="-3.62983">
        <ele>101.7</ele>
        <time>2020-06-10T14:39:18Z</time>
      </trkpt>
      <trkpt lat="48.56055" lon="-3.62975">
        <ele>101.9</ele>
        <time>2020-06-10T14:39:19Z</time>
      </trkpt>
      <trkpt lat="48.56054" lon="-3.62967">
        <ele>102.2</ele>
        <time>2020-06-10T14:39:20Z</time>
      </trkpt>
      <trkpt lat="48.56053" lon="-3.62961">
        <ele>102.4</ele>
        <time>2020-06-10T14:39:21Z</time>
      </trkpt>
      <trkpt lat="48.56052" lon="-3.62957">
        <ele>102.5</ele>
        <time>2020-06-10T14:39:22Z</time>
      </trkpt>
      <trkpt lat="48.56052" lon="-3.62952">
        <ele>102.7</ele>
        <time>2020-06-10T14:39:23Z</time>
      </trkpt>
      <trkpt lat="48.56051" lon="-3.62946">
        <ele>102.8</ele>
        <time>2020-06-10T14:39:24Z</time>
      </trkpt>
      <trkpt lat="48.5605" lon="-3.6294">
        <ele>103</ele>
        <time>2020-06-10T14:39:25Z</time>
      </trkpt>
      <trkpt lat="48.56049" lon="-3.62934">
        <ele>103.2</ele>
        <time>2020-06-10T14:39:26Z</time>
      </trkpt>
      <trkpt lat="48.56049" lon="-3.62929">
        <ele>103.3</ele>
        <time>2020-06-10T14:39:27Z</time>
      </trkpt>
      <trkpt lat="48.56048" lon="-3.62923">
        <ele>103.5</ele>
        <time>2020-06-10T14:39:28Z</time>
      </trkpt>
      <trkpt lat="48.56047" lon="-3.62918">
        <ele>103.6</ele>
        <time>2020-06-10T14:39:29Z</time>
      </trkpt>
      <trkpt lat="48.56046" lon="-3.62914">
        <ele>103.8</ele>
        <time>2020-06-10T14:39:30Z</time>
      </trkpt>
      <trkpt lat="48.56045" lon="-3.62908">
        <ele>104</ele>
        <time>2020-06-10T14:39:31Z</time>
      </trkpt>
      <trkpt lat="48.56045" lon="-3.62902">
        <ele>104.2</ele>
        <time>2020-06-10T14:39:32Z</time>
      </trkpt>
      <trkpt lat="48.56045" lon="-3.62898">
        <ele>104.3</ele>
        <time>2020-06-10T14:39:33Z</time>
      </trkpt>
      <trkpt lat="48.56046" lon="-3.6289">
        <ele>104.6</ele>
        <time>2020-06-10T14:39:34Z</time>
      </trkpt>
      <trkpt lat="48.56046" lon="-3.62886">
        <ele>104.7</ele>
        <time>2020-06-10T14:39:35Z</time>
      </trkpt>
      <trkpt lat="48.56047" lon="-3.6288">
        <ele>104.9</ele>
        <time>2020-06-10T14:39:36Z</time>
      </trkpt>
      <trkpt lat="48.56047" lon="-3.62874">
        <ele>105.1</ele>
        <time>2020-06-10T14:39:37Z</time>
      </trkpt>
      <trkpt lat="48.56048" lon="-3.62868">
        <ele>105.3</ele>
        <time>2020-06-10T14:39:38Z</time>
      </trkpt>
      <trkpt lat="48.56048" lon="-3.62864">
        <ele>105.4</ele>
        <time>2020-06-10T14:39:39Z</time>
      </trkpt>
      <trkpt lat="48.56049" lon="-3.62859">
        <ele>105.6</ele>
        <time>2020-06-10T14:39:40Z</time>
      </trkpt>
      <trkpt lat="48.5605" lon="-3.62854">
        <ele>105.7</ele>
        <time>2020-06-10T14:39:41Z</time>
      </trkpt>
      <trkpt lat="48.5605" lon="-3.62847">
        <ele>105.9</ele>
        <time>2020-06-10T14:39:42Z</time>
      </trkpt>
      <trkpt lat="48.5605" lon="-3.6284">
        <ele>106.1</ele>
        <time>2020-06-10T14:39:43Z</time>
      </trkpt>
      <trkpt lat="48.56051" lon="-3.62833">
        <ele>106.4</ele>
        <time>2020-06-10T14:39:44Z</time>
      </trkpt>
      <trkpt lat="48.56052" lon="-3.62827">
        <ele>106.6</ele>
        <time>2020-06-10T14:39:45Z</time>
      </trkpt>
      <trkpt lat="48.56051" lon="-3.62821">
        <ele>106.7</ele>
        <time>2020-06-10T14:39:46Z</time>
      </trkpt>
      <trkpt lat="48.56052" lon="-3.62818">
        <ele>106.8</ele>
        <time>2020-06-10T14:39:47Z</time>
      </trkpt>
      <trkpt lat="48.56053" lon="-3.62811">
        <ele>107</ele>
        <time>2020-06-10T14:39:48Z</time>
      </trkpt>
      <trkpt lat="48.56054" lon="-3.62806">
        <ele>107.2</ele>
        <time>2020-06-10T14:39:49Z</time>
      </trkpt>
      <trkpt lat="48.56054" lon="-3.628">
        <ele>107.3</ele>
        <time>2020-06-10T14:39:50Z</time>
      </trkpt>
      <trkpt lat="48.56055" lon="-3.62795">
        <ele>107.5</ele>
        <time>2020-06-10T14:39:51Z</time>
      </trkpt>
      <trkpt lat="48.56056" lon="-3.62789">
        <ele>107.7</ele>
        <time>2020-06-10T14:39:52Z</time>
      </trkpt>
      <trkpt lat="48.56056" lon="-3.62784">
        <ele>107.9</ele>
        <time>2020-06-10T14:39:53Z</time>
      </trkpt>
      <trkpt lat="48.56057" lon="-3.62781">
        <ele>108</ele>
        <time>2020-06-10T14:39:54Z</time>
      </trkpt>
      <trkpt lat="48.56057" lon="-3.62777">
        <ele>108.1</ele>
        <time>2020-06-10T14:39:55Z</time>
      </trkpt>
      <trkpt lat="48.56059" lon="-3.62772">
        <ele>108.3</ele>
        <time>2020-06-10T14:39:56Z</time>
      </trkpt>
      <trkpt lat="48.5606" lon="-3.62767">
        <ele>108.4</ele>
        <time>2020-06-10T14:39:57Z</time>
      </trkpt>
      <trkpt lat="48.56061" lon="-3.62762">
        <ele>108.6</ele>
        <time>2020-06-10T14:39:58Z</time>
      </trkpt>
      <trkpt lat="48.56064" lon="-3.62756">
        <ele>108.9</ele>
        <time>2020-06-10T14:39:59Z</time>
      </trkpt>
      <trkpt lat="48.56064" lon="-3.62752">
        <ele>109</ele>
        <time>2020-06-10T14:40:00Z</time>
      </trkpt>
      <trkpt lat="48.56066" lon="-3.62746">
        <ele>109.2</ele>
        <time>2020-06-10T14:40:01Z</time>
      </trkpt>
      <trkpt lat="48.56067" lon="-3.62741">
        <ele>109.4</ele>
        <time>2020-06-10T14:40:02Z</time>
      </trkpt>
      <trkpt lat="48.56069" lon="-3.62734">
        <ele>109.6</ele>
        <time>2020-06-10T14:40:03Z</time>
      </trkpt>
      <trkpt lat="48.5607" lon="-3.62728">
        <ele>109.8</ele>
        <time>2020-06-10T14:40:04Z</time>
      </trkpt>
      <trkpt lat="48.56071" lon="-3.62722">
        <ele>110</ele>
        <time>2020-06-10T14:40:05Z</time>
      </trkpt>
      <trkpt lat="48.56072" lon="-3.62716">
        <ele>110.3</ele>
        <time>2020-06-10T14:40:06Z</time>
      </trkpt>
      <trkpt lat="48.56073" lon="-3.6271">
        <ele>110.6</ele>
        <time>2020-06-10T14:40:07Z</time>
      </trkpt>
      <trkpt lat="48.56075" lon="-3.62705">
        <ele>110.8</ele>
        <time>2020-06-10T14:40:08Z</time>
      </trkpt>
      <trkpt lat="48.56077" lon="-3.62701">
        <ele>111</ele>
        <time>2020-06-10T14:40:09Z</time>
      </trkpt>
      <trkpt lat="48.56079" lon="-3.62696">
        <ele>111.3</ele>
        <time>2020-06-10T14:40:10Z</time>
      </trkpt>
      <trkpt lat="48.56081" lon="-3.62692">
        <ele>111.5</ele>
        <time>2020-06-10T14:40:11Z</time>
      </trkpt>
      <trkpt lat="48.56082" lon="-3.62689">
        <ele>111.6</ele>
        <time>2020-06-10T14:40:12Z</time>
      </trkpt>
      <trkpt lat="48.56083" lon="-3.62685">
        <ele>111.7</ele>
        <time>2020-06-10T14:40:13Z</time>
      </trkpt>
      <trkpt lat="48.56085" lon="-3.62681">
        <ele>111.9</ele>
        <time>2020-06-10T14:40:14Z</time>
      </trkpt>
      <trkpt lat="48.56087" lon="-3.62676">
        <ele>112.1</ele>
        <time>2020-06-10T14:40:15Z</time>
      </trkpt>
      <trkpt lat="48.56088" lon="-3.62671">
        <ele>112.2</ele>
        <time>2020-06-10T14:40:16Z</time>
      </trkpt>
      <trkpt lat="48.56091" lon="-3.62666">
        <ele>112.4</ele>
        <time>2020-06-10T14:40:17Z</time>
      </trkpt>
      <trkpt lat="48.56093" lon="-3.6266">
        <ele>112.6</ele>
        <time>2020-06-10T14:40:18Z</time>
      </trkpt>
      <trkpt lat="48.56095" lon="-3.62655">
        <ele>112.9</ele>
        <time>2020-06-10T14:40:19Z</time>
      </trkpt>
      <trkpt lat="48.56098" lon="-3.62649">
        <ele>113.1</ele>
        <time>2020-06-10T14:40:20Z</time>
      </trkpt>
      <trkpt lat="48.56099" lon="-3.62643">
        <ele>113.3</ele>
        <time>2020-06-10T14:40:21Z</time>
      </trkpt>
      <trkpt lat="48.56101" lon="-3.62638">
        <ele>113.5</ele>
        <time>2020-06-10T14:40:22Z</time>
      </trkpt>
      <trkpt lat="48.56102" lon="-3.62636">
        <ele>113.6</ele>
        <time>2020-06-10T14:40:23Z</time>
      </trkpt>
      <trkpt lat="48.56104" lon="-3.62631">
        <ele>113.8</ele>
        <time>2020-06-10T14:40:24Z</time>
      </trkpt>
      <trkpt lat="48.56106" lon="-3.62625">
        <ele>113.9</ele>
        <time>2020-06-10T14:40:25Z</time>
      </trkpt>
      <trkpt lat="48.56108" lon="-3.62621">
        <ele>114.1</ele>
        <time>2020-06-10T14:40:26Z</time>
      </trkpt>
      <trkpt lat="48.5611" lon="-3.62617">
        <ele>114.3</ele>
        <time>2020-06-10T14:40:27Z</time>
      </trkpt>
      <trkpt lat="48.56113" lon="-3.62612">
        <ele>114.5</ele>
        <time>2020-06-10T14:40:28Z</time>
      </trkpt>
      <trkpt lat="48.56114" lon="-3.62608">
        <ele>114.7</ele>
        <time>2020-06-10T14:40:29Z</time>
      </trkpt>
      <trkpt lat="48.56116" lon="-3.62603">
        <ele>114.9</ele>
        <time>2020-06-10T14:40:30Z</time>
      </trkpt>
      <trkpt lat="48.56118" lon="-3.62597">
        <ele>115.1</ele>
        <time>2020-06-10T14:40:31Z</time>
      </trkpt>
      <trkpt lat="48.56121" lon="-3.62592">
        <ele>115.3</ele>
        <time>2020-06-10T14:40:32Z</time>
      </trkpt>
      <trkpt lat="48.56124" lon="-3.62586">
        <ele>115.6</ele>
        <time>2020-06-10T14:40:33Z</time>
      </trkpt>
      <trkpt lat="48.56125" lon="-3.62583">
        <ele>115.7</ele>
        <time>2020-06-10T14:40:34Z</time>
      </trkpt>
      <trkpt lat="48.56128" lon="-3.62579">
        <ele>115.9</ele>
        <time>2020-06-10T14:40:35Z</time>
      </trkpt>
      <trkpt lat="48.5613" lon="-3.62574">
        <ele>116.1</ele>
        <time>2020-06-10T14:40:36Z</time>
      </trkpt>
      <trkpt lat="48.56133" lon="-3.62568">
        <ele>116.3</ele>
        <time>2020-06-10T14:40:37Z</time>
      </trkpt>
      <trkpt lat="48.56135" lon="-3.62563">
        <ele>116.5</ele>
        <time>2020-06-10T14:40:38Z</time>
      </trkpt>
      <trkpt lat="48.56137" lon="-3.62559">
        <ele>116.7</ele>
        <time>2020-06-10T14:40:39Z</time>
      </trkpt>
      <trkpt lat="48.56139" lon="-3.62554">
        <ele>116.9</ele>
        <time>2020-06-10T14:40:40Z</time>
      </trkpt>
      <trkpt lat="48.56142" lon="-3.62549">
        <ele>117.1</ele>
        <time>2020-06-10T14:40:41Z</time>
      </trkpt>
      <trkpt lat="48.56144" lon="-3.62546">
        <ele>117.3</ele>
        <time>2020-06-10T14:40:42Z</time>
      </trkpt>
      <trkpt lat="48.56145" lon="-3.62542">
        <ele>117.4</ele>
        <time>2020-06-10T14:40:43Z</time>
      </trkpt>
      <trkpt lat="48.56147" lon="-3.62538">
        <ele>117.6</ele>
        <time>2020-06-10T14:40:44Z</time>
      </trkpt>
      <trkpt lat="48.56149" lon="-3.62534">
        <ele>117.7</ele>
        <time>2020-06-10T14:40:45Z</time>
      </trkpt>
      <trkpt lat="48.56151" lon="-3.62529">
        <ele>117.9</ele>
        <time>2020-06-10T14:40:46Z</time>
      </trkpt>
      <trkpt lat="48.56153" lon="-3.62525">
        <ele>118</ele>
        <time>2020-06-10T14:40:47Z</time>
      </trkpt>
      <trkpt lat="48.56155" lon="-3.6252">
        <ele>118.2</ele>
        <time>2020-06-10T14:40:48Z</time>
      </trkpt>
      <trkpt lat="48.56158" lon="-3.62514">
        <ele>118.4</ele>
        <time>2020-06-10T14:40:49Z</time>
      </trkpt>
      <trkpt lat="48.5616" lon="-3.62509">
        <ele>118.6</ele>
        <time>2020-06-10T14:40:50Z</time>
      </trkpt>
      <trkpt lat="48.56162" lon="-3.62504">
        <ele>118.8</ele>
        <time>2020-06-10T14:40:51Z</time>
      </trkpt>
      <trkpt lat="48.56165" lon="-3.625">
        <ele>118.9</ele>
        <time>2020-06-10T14:40:52Z</time>
      </trkpt>
      <trkpt lat="48.56167" lon="-3.62495">
        <ele>119.1</ele>
        <time>2020-06-10T14:40:53Z</time>
      </trkpt>
      <trkpt lat="48.56169" lon="-3.62492">
        <ele>119.2</ele>
        <time>2020-06-10T14:40:54Z</time>
      </trkpt>
      <trkpt lat="48.56172" lon="-3.62486">
        <ele>119.5</ele>
        <time>2020-06-10T14:40:55Z</time>
      </trkpt>
      <trkpt lat="48.56173" lon="-3.62482">
        <ele>119.6</ele>
        <time>2020-06-10T14:40:56Z</time>
      </trkpt>
      <trkpt lat="48.56175" lon="-3.62477">
        <ele>119.8</ele>
        <time>2020-06-10T14:40:57Z</time>
      </trkpt>
      <trkpt lat="48.56177" lon="-3.62474">
        <ele>119.9</ele>
        <time>2020-06-10T14:40:58Z</time>
      </trkpt>
      <trkpt lat="48.5618" lon="-3.62469">
        <ele>120.1</ele>
        <time>2020-06-10T14:40:59Z</time>
      </trkpt>
      <trkpt lat="48.56182" lon="-3.62465">
        <ele>120.3</ele>
        <time>2020-06-10T14:41:00Z</time>
      </trkpt>
      <trkpt lat="48.56184" lon="-3.62461">
        <ele>120.4</ele>
        <time>2020-06-10T14:41:01Z</time>
      </trkpt>
      <trkpt lat="48.56185" lon="-3.62457">
        <ele>120.6</ele>
        <time>2020-06-10T14:41:02Z</time>
      </trkpt>
      <trkpt lat="48.56186" lon="-3.62453">
        <ele>120.7</ele>
        <time>2020-06-10T14:41:03Z</time>
      </trkpt>
      <trkpt lat="48.56188" lon="-3.62449">
        <ele>120.9</ele>
        <time>2020-06-10T14:41:04Z</time>
      </trkpt>
      <trkpt lat="48.56189" lon="-3.62444">
        <ele>121</ele>
        <time>2020-06-10T14:41:05Z</time>
      </trkpt>
      <trkpt lat="48.56193" lon="-3.62439">
        <ele>121.2</ele>
        <time>2020-06-10T14:41:06Z</time>
      </trkpt>
      <trkpt lat="48.56195" lon="-3.62436">
        <ele>121.4</ele>
        <time>2020-06-10T14:41:07Z</time>
      </trkpt>
      <trkpt lat="48.56197" lon="-3.62431">
        <ele>121.6</ele>
        <time>2020-06-10T14:41:08Z</time>
      </trkpt>
      <trkpt lat="48.56199" lon="-3.62426">
        <ele>121.7</ele>
        <time>2020-06-10T14:41:09Z</time>
      </trkpt>
      <trkpt lat="48.562" lon="-3.62422">
        <ele>121.9</ele>
        <time>2020-06-10T14:41:10Z</time>
      </trkpt>
      <trkpt lat="48.56202" lon="-3.62418">
        <ele>122</ele>
        <time>2020-06-10T14:41:11Z</time>
      </trkpt>
      <trkpt lat="48.56203" lon="-3.62414">
        <ele>122.2</ele>
        <time>2020-06-10T14:41:12Z</time>
      </trkpt>
      <trkpt lat="48.56204" lon="-3.62409">
        <ele>122.3</ele>
        <time>2020-06-10T14:41:13Z</time>
      </trkpt>
      <trkpt lat="48.56206" lon="-3.62404">
        <ele>122.5</ele>
        <time>2020-06-10T14:41:14Z</time>
      </trkpt>
      <trkpt lat="48.56208" lon="-3.62396">
        <ele>122.8</ele>
        <time>2020-06-10T14:41:15Z</time>
      </trkpt>
      <trkpt lat="48.56211" lon="-3.62391">
        <ele>123</ele>
        <time>2020-06-10T14:41:16Z</time>
      </trkpt>
      <trkpt lat="48.56213" lon="-3.62386">
        <ele>123.3</ele>
        <time>2020-06-10T14:41:17Z</time>
      </trkpt>
      <trkpt lat="48.56216" lon="-3.62382">
        <ele>123.5</ele>
        <time>2020-06-10T14:41:18Z</time>
      </trkpt>
      <trkpt lat="48.56218" lon="-3.62378">
        <ele>123.6</ele>
        <time>2020-06-10T14:41:19Z</time>
      </trkpt>
      <trkpt lat="48.5622" lon="-3.62374">
        <ele>123.8</ele>
        <time>2020-06-10T14:41:20Z</time>
      </trkpt>
      <trkpt lat="48.56222" lon="-3.62368">
        <ele>124</ele>
        <time>2020-06-10T14:41:21Z</time>
      </trkpt>
      <trkpt lat="48.56223" lon="-3.62363">
        <ele>124.2</ele>
        <time>2020-06-10T14:41:22Z</time>
      </trkpt>
      <trkpt lat="48.56224" lon="-3.62359">
        <ele>124.3</ele>
        <time>2020-06-10T14:41:23Z</time>
      </trkpt>
      <trkpt lat="48.56225" lon="-3.62354">
        <ele>124.4</ele>
        <time>2020-06-10T14:41:24Z</time>
      </trkpt>
      <trkpt lat="48.56226" lon="-3.62349">
        <ele>124.6</ele>
        <time>2020-06-10T14:41:25Z</time>
      </trkpt>
      <trkpt lat="48.56226" lon="-3.62342">
        <ele>124.8</ele>
        <time>2020-06-10T14:41:26Z</time>
      </trkpt>
      <trkpt lat="48.56227" lon="-3.62336">
        <ele>125</ele>
        <time>2020-06-10T14:41:27Z</time>
      </trkpt>
      <trkpt lat="48.56227" lon="-3.6233">
        <ele>125.2</ele>
        <time>2020-06-10T14:41:28Z</time>
      </trkpt>
      <trkpt lat="48.56228" lon="-3.62323">
        <ele>125.4</ele>
        <time>2020-06-10T14:41:29Z</time>
      </trkpt>
      <trkpt lat="48.56229" lon="-3.6232">
        <ele>125.5</ele>
        <time>2020-06-10T14:41:30Z</time>
      </trkpt>
      <trkpt lat="48.56229" lon="-3.62315">
        <ele>125.7</ele>
        <time>2020-06-10T14:41:31Z</time>
      </trkpt>
      <trkpt lat="48.5623" lon="-3.62309">
        <ele>125.9</ele>
        <time>2020-06-10T14:41:32Z</time>
      </trkpt>
      <trkpt lat="48.5623" lon="-3.62304">
        <ele>126.1</ele>
        <time>2020-06-10T14:41:33Z</time>
      </trkpt>
      <trkpt lat="48.56231" lon="-3.62298">
        <ele>126.3</ele>
        <time>2020-06-10T14:41:34Z</time>
      </trkpt>
      <trkpt lat="48.56231" lon="-3.62291">
        <ele>126.5</ele>
        <time>2020-06-10T14:41:35Z</time>
      </trkpt>
      <trkpt lat="48.56232" lon="-3.62283">
        <ele>126.8</ele>
        <time>2020-06-10T14:41:36Z</time>
      </trkpt>
      <trkpt lat="48.56232" lon="-3.62278">
        <ele>127</ele>
        <time>2020-06-10T14:41:37Z</time>
      </trkpt>
      <trkpt lat="48.56233" lon="-3.62272">
        <ele>127.3</ele>
        <time>2020-06-10T14:41:38Z</time>
      </trkpt>
      <trkpt lat="48.56233" lon="-3.6227">
        <ele>127.3</ele>
        <time>2020-06-10T14:41:39Z</time>
      </trkpt>
      <trkpt lat="48.56233" lon="-3.62263">
        <ele>127.6</ele>
        <time>2020-06-10T14:41:40Z</time>
      </trkpt>
      <trkpt lat="48.56232" lon="-3.6226">
        <ele>127.7</ele>
        <time>2020-06-10T14:41:41Z</time>
      </trkpt>
      <trkpt lat="48.56232" lon="-3.62253">
        <ele>128</ele>
        <time>2020-06-10T14:41:42Z</time>
      </trkpt>
      <trkpt lat="48.56231" lon="-3.62246">
        <ele>128.2</ele>
        <time>2020-06-10T14:41:43Z</time>
      </trkpt>
      <trkpt lat="48.5623" lon="-3.62241">
        <ele>128.4</ele>
        <time>2020-06-10T14:41:44Z</time>
      </trkpt>
      <trkpt lat="48.56231" lon="-3.62236">
        <ele>128.6</ele>
        <time>2020-06-10T14:41:45Z</time>
      </trkpt>
      <trkpt lat="48.56231" lon="-3.62231">
        <ele>128.8</ele>
        <time>2020-06-10T14:41:46Z</time>
      </trkpt>
      <trkpt lat="48.56231" lon="-3.62224">
        <ele>129</ele>
        <time>2020-06-10T14:41:47Z</time>
      </trkpt>
      <trkpt lat="48.5623" lon="-3.62219">
        <ele>129.3</ele>
        <time>2020-06-10T14:41:48Z</time>
      </trkpt>
      <trkpt lat="48.56229" lon="-3.62214">
        <ele>129.5</ele>
        <time>2020-06-10T14:41:49Z</time>
      </trkpt>
      <trkpt lat="48.56227" lon="-3.62208">
        <ele>129.6</ele>
        <time>2020-06-10T14:41:50Z</time>
      </trkpt>
      <trkpt lat="48.56227" lon="-3.62203">
        <ele>129.8</ele>
        <time>2020-06-10T14:41:51Z</time>
      </trkpt>
      <trkpt lat="48.56226" lon="-3.62197">
        <ele>130</ele>
        <time>2020-06-10T14:41:52Z</time>
      </trkpt>
      <trkpt lat="48.56226" lon="-3.62194">
        <ele>130.1</ele>
        <time>2020-06-10T14:41:53Z</time>
      </trkpt>
      <trkpt lat="48.56227" lon="-3.62189">
        <ele>130.2</ele>
        <time>2020-06-10T14:41:54Z</time>
      </trkpt>
      <trkpt lat="48.56226" lon="-3.62183">
        <ele>130.4</ele>
        <time>2020-06-10T14:41:55Z</time>
      </trkpt>
      <trkpt lat="48.56225" lon="-3.62177">
        <ele>130.6</ele>
        <time>2020-06-10T14:41:56Z</time>
      </trkpt>
      <trkpt lat="48.56226" lon="-3.62171">
        <ele>130.9</ele>
        <time>2020-06-10T14:41:57Z</time>
      </trkpt>
      <trkpt lat="48.56226" lon="-3.62167">
        <ele>131</ele>
        <time>2020-06-10T14:41:58Z</time>
      </trkpt>
      <trkpt lat="48.56226" lon="-3.62163">
        <ele>131.1</ele>
        <time>2020-06-10T14:41:59Z</time>
      </trkpt>
      <trkpt lat="48.56226" lon="-3.62156">
        <ele>131.4</ele>
        <time>2020-06-10T14:42:00Z</time>
      </trkpt>
      <trkpt lat="48.56226" lon="-3.62154">
        <ele>131.5</ele>
        <time>2020-06-10T14:42:01Z</time>
      </trkpt>
      <trkpt lat="48.56225" lon="-3.62147">
        <ele>131.7</ele>
        <time>2020-06-10T14:42:02Z</time>
      </trkpt>
      <trkpt lat="48.56225" lon="-3.62142">
        <ele>131.9</ele>
        <time>2020-06-10T14:42:03Z</time>
      </trkpt>
      <trkpt lat="48.56225" lon="-3.62136">
        <ele>132.1</ele>
        <time>2020-06-10T14:42:04Z</time>
      </trkpt>
      <trkpt lat="48.56224" lon="-3.62129">
        <ele>132.3</ele>
        <time>2020-06-10T14:42:05Z</time>
      </trkpt>
      <trkpt lat="48.56223" lon="-3.62124">
        <ele>132.5</ele>
        <time>2020-06-10T14:42:06Z</time>
      </trkpt>
      <trkpt lat="48.56224" lon="-3.62118">
        <ele>132.7</ele>
        <time>2020-06-10T14:42:07Z</time>
      </trkpt>
      <trkpt lat="48.56223" lon="-3.62113">
        <ele>132.9</ele>
        <time>2020-06-10T14:42:08Z</time>
      </trkpt>
      <trkpt lat="48.56223" lon="-3.62107">
        <ele>133.1</ele>
        <time>2020-06-10T14:42:09Z</time>
      </trkpt>
      <trkpt lat="48.56222" lon="-3.62102">
        <ele>133.3</ele>
        <time>2020-06-10T14:42:10Z</time>
      </trkpt>
      <trkpt lat="48.56222" lon="-3.62096">
        <ele>133.5</ele>
        <time>2020-06-10T14:42:11Z</time>
      </trkpt>
      <trkpt lat="48.56222" lon="-3.6209">
        <ele>133.7</ele>
        <time>2020-06-10T14:42:12Z</time>
      </trkpt>
      <trkpt lat="48.56222" lon="-3.62084">
        <ele>133.9</ele>
        <time>2020-06-10T14:42:13Z</time>
      </trkpt>
      <trkpt lat="48.56222" lon="-3.62078">
        <ele>134.2</ele>
        <time>2020-06-10T14:42:14Z</time>
      </trkpt>
      <trkpt lat="48.56222" lon="-3.62072">
        <ele>134.4</ele>
        <time>2020-06-10T14:42:15Z</time>
      </trkpt>
      <trkpt lat="48.56223" lon="-3.62066">
        <ele>134.6</ele>
        <time>2020-06-10T14:42:16Z</time>
      </trkpt>
      <trkpt lat="48.56223" lon="-3.6206">
        <ele>134.8</ele>
        <time>2020-06-10T14:42:17Z</time>
      </trkpt>
      <trkpt lat="48.56223" lon="-3.62055">
        <ele>135</ele>
        <time>2020-06-10T14:42:18Z</time>
      </trkpt>
      <trkpt lat="48.56223" lon="-3.62049">
        <ele>135.2</ele>
        <time>2020-06-10T14:42:19Z</time>
      </trkpt>
      <trkpt lat="48.56223" lon="-3.62045">
        <ele>135.3</ele>
        <time>2020-06-10T14:42:20Z</time>
      </trkpt>
      <trkpt lat="48.56223" lon="-3.62039">
        <ele>135.5</ele>
        <time>2020-06-10T14:42:21Z</time>
      </trkpt>
      <trkpt lat="48.56224" lon="-3.62033">
        <ele>135.7</ele>
        <time>2020-06-10T14:42:22Z</time>
      </trkpt>
      <trkpt lat="48.56224" lon="-3.62028">
        <ele>135.9</ele>
        <time>2020-06-10T14:42:23Z</time>
      </trkpt>
      <trkpt lat="48.56224" lon="-3.62023">
        <ele>136</ele>
        <time>2020-06-10T14:42:24Z</time>
      </trkpt>
      <trkpt lat="48.56225" lon="-3.62017">
        <ele>136.3</ele>
        <time>2020-06-10T14:42:25Z</time>
      </trkpt>
      <trkpt lat="48.56226" lon="-3.62011">
        <ele>136.5</ele>
        <time>2020-06-10T14:42:26Z</time>
      </trkpt>
      <trkpt lat="48.56226" lon="-3.62005">
        <ele>136.6</ele>
        <time>2020-06-10T14:42:27Z</time>
      </trkpt>
      <trkpt lat="48.56227" lon="-3.62">
        <ele>136.8</ele>
        <time>2020-06-10T14:42:28Z</time>
      </trkpt>
      <trkpt lat="48.56228" lon="-3.61994">
        <ele>137</ele>
        <time>2020-06-10T14:42:29Z</time>
      </trkpt>
      <trkpt lat="48.56228" lon="-3.61989">
        <ele>137.1</ele>
        <time>2020-06-10T14:42:30Z</time>
      </trkpt>
      <trkpt lat="48.5623" lon="-3.61984">
        <ele>137.3</ele>
        <time>2020-06-10T14:42:31Z</time>
      </trkpt>
      <trkpt lat="48.56231" lon="-3.61979">
        <ele>137.4</ele>
        <time>2020-06-10T14:42:32Z</time>
      </trkpt>
      <trkpt lat="48.56231" lon="-3.61974">
        <ele>137.6</ele>
        <time>2020-06-10T14:42:33Z</time>
      </trkpt>
      <trkpt lat="48.56232" lon="-3.61968">
        <ele>137.8</ele>
        <time>2020-06-10T14:42:34Z</time>
      </trkpt>
      <trkpt lat="48.56234" lon="-3.61962">
        <ele>138</ele>
        <time>2020-06-10T14:42:35Z</time>
      </trkpt>
      <trkpt lat="48.56235" lon="-3.61957">
        <ele>138.1</ele>
        <time>2020-06-10T14:42:36Z</time>
      </trkpt>
      <trkpt lat="48.56239" lon="-3.61953">
        <ele>138.4</ele>
        <time>2020-06-10T14:42:37Z</time>
      </trkpt>
      <trkpt lat="48.56241" lon="-3.61948">
        <ele>138.6</ele>
        <time>2020-06-10T14:42:38Z</time>
      </trkpt>
      <trkpt lat="48.56242" lon="-3.61943">
        <ele>138.8</ele>
        <time>2020-06-10T14:42:39Z</time>
      </trkpt>
      <trkpt lat="48.56243" lon="-3.61938">
        <ele>138.9</ele>
        <time>2020-06-10T14:42:40Z</time>
      </trkpt>
      <trkpt lat="48.56245" lon="-3.61932">
        <ele>139.1</ele>
        <time>2020-06-10T14:42:41Z</time>
      </trkpt>
      <trkpt lat="48.56245" lon="-3.61927">
        <ele>139.3</ele>
        <time>2020-06-10T14:42:42Z</time>
      </trkpt>
      <trkpt lat="48.56247" lon="-3.61923">
        <ele>139.5</ele>
        <time>2020-06-10T14:42:43Z</time>
      </trkpt>
      <trkpt lat="48.56249" lon="-3.61918">
        <ele>139.6</ele>
        <time>2020-06-10T14:42:44Z</time>
      </trkpt>
      <trkpt lat="48.5625" lon="-3.61912">
        <ele>139.8</ele>
        <time>2020-06-10T14:42:45Z</time>
      </trkpt>
      <trkpt lat="48.56252" lon="-3.61908">
        <ele>140</ele>
        <time>2020-06-10T14:42:46Z</time>
      </trkpt>
      <trkpt lat="48.56255" lon="-3.61904">
        <ele>140.2</ele>
        <time>2020-06-10T14:42:47Z</time>
      </trkpt>
      <trkpt lat="48.56257" lon="-3.61899">
        <ele>140.4</ele>
        <time>2020-06-10T14:42:48Z</time>
      </trkpt>
      <trkpt lat="48.56258" lon="-3.61894">
        <ele>140.6</ele>
        <time>2020-06-10T14:42:49Z</time>
      </trkpt>
      <trkpt lat="48.5626" lon="-3.6189">
        <ele>140.7</ele>
        <time>2020-06-10T14:42:50Z</time>
      </trkpt>
      <trkpt lat="48.56261" lon="-3.61885">
        <ele>140.9</ele>
        <time>2020-06-10T14:42:51Z</time>
      </trkpt>
      <trkpt lat="48.56263" lon="-3.6188">
        <ele>141.1</ele>
        <time>2020-06-10T14:42:52Z</time>
      </trkpt>
      <trkpt lat="48.56265" lon="-3.61876">
        <ele>141.3</ele>
        <time>2020-06-10T14:42:53Z</time>
      </trkpt>
      <trkpt lat="48.56267" lon="-3.61871">
        <ele>141.4</ele>
        <time>2020-06-10T14:42:54Z</time>
      </trkpt>
      <trkpt lat="48.56268" lon="-3.61867">
        <ele>141.6</ele>
        <time>2020-06-10T14:42:55Z</time>
      </trkpt>
      <trkpt lat="48.56269" lon="-3.61863">
        <ele>141.7</ele>
        <time>2020-06-10T14:42:56Z</time>
      </trkpt>
      <trkpt lat="48.56271" lon="-3.61858">
        <ele>141.9</ele>
        <time>2020-06-10T14:42:57Z</time>
      </trkpt>
      <trkpt lat="48.56275" lon="-3.61853">
        <ele>142.1</ele>
        <time>2020-06-10T14:42:58Z</time>
      </trkpt>
      <trkpt lat="48.56278" lon="-3.61849">
        <ele>142.3</ele>
        <time>2020-06-10T14:42:59Z</time>
      </trkpt>
      <trkpt lat="48.56281" lon="-3.61843">
        <ele>142.6</ele>
        <time>2020-06-10T14:43:00Z</time>
      </trkpt>
      <trkpt lat="48.56284" lon="-3.61837">
        <ele>142.8</ele>
        <time>2020-06-10T14:43:01Z</time>
      </trkpt>
      <trkpt lat="48.56286" lon="-3.61832">
        <ele>143</ele>
        <time>2020-06-10T14:43:02Z</time>
      </trkpt>
      <trkpt lat="48.56287" lon="-3.61828">
        <ele>143.2</ele>
        <time>2020-06-10T14:43:03Z</time>
      </trkpt>
      <trkpt lat="48.5629" lon="-3.61824">
        <ele>143.4</ele>
        <time>2020-06-10T14:43:04Z</time>
      </trkpt>
      <trkpt lat="48.56292" lon="-3.6182">
        <ele>143.5</ele>
        <time>2020-06-10T14:43:05Z</time>
      </trkpt>
      <trkpt lat="48.56296" lon="-3.61815">
        <ele>143.8</ele>
        <time>2020-06-10T14:43:06Z</time>
      </trkpt>
      <trkpt lat="48.56298" lon="-3.6181">
        <ele>144</ele>
        <time>2020-06-10T14:43:07Z</time>
      </trkpt>
      <trkpt lat="48.56301" lon="-3.61805">
        <ele>144.2</ele>
        <time>2020-06-10T14:43:08Z</time>
      </trkpt>
      <trkpt lat="48.56305" lon="-3.61801">
        <ele>144.3</ele>
        <time>2020-06-10T14:43:09Z</time>
      </trkpt>
      <trkpt lat="48.56308" lon="-3.61798">
        <ele>144.5</ele>
        <time>2020-06-10T14:43:10Z</time>
      </trkpt>
      <trkpt lat="48.5631" lon="-3.61795">
        <ele>144.6</ele>
        <time>2020-06-10T14:43:11Z</time>
      </trkpt>
      <trkpt lat="48.56313" lon="-3.61791">
        <ele>144.8</ele>
        <time>2020-06-10T14:43:12Z</time>
      </trkpt>
      <trkpt lat="48.56316" lon="-3.61787">
        <ele>145</ele>
        <time>2020-06-10T14:43:13Z</time>
      </trkpt>
      <trkpt lat="48.56319" lon="-3.61785">
        <ele>145.1</ele>
        <time>2020-06-10T14:43:14Z</time>
      </trkpt>
      <trkpt lat="48.56321" lon="-3.61781">
        <ele>145.3</ele>
        <time>2020-06-10T14:43:15Z</time>
      </trkpt>
      <trkpt lat="48.56324" lon="-3.61778">
        <ele>145.5</ele>
        <time>2020-06-10T14:43:16Z</time>
      </trkpt>
      <trkpt lat="48.56327" lon="-3.61775">
        <ele>145.7</ele>
        <time>2020-06-10T14:43:17Z</time>
      </trkpt>
      <trkpt lat="48.5633" lon="-3.61771">
        <ele>145.9</ele>
        <time>2020-06-10T14:43:18Z</time>
      </trkpt>
      <trkpt lat="48.56334" lon="-3.61766">
        <ele>146.1</ele>
        <time>2020-06-10T14:43:19Z</time>
      </trkpt>
      <trkpt lat="48.56338" lon="-3.61761">
        <ele>146.3</ele>
        <time>2020-06-10T14:43:20Z</time>
      </trkpt>
      <trkpt lat="48.56342" lon="-3.61757">
        <ele>146.6</ele>
        <time>2020-06-10T14:43:21Z</time>
      </trkpt>
      <trkpt lat="48.56344" lon="-3.61753">
        <ele>146.8</ele>
        <time>2020-06-10T14:43:22Z</time>
      </trkpt>
      <trkpt lat="48.56347" lon="-3.6175">
        <ele>146.9</ele>
        <time>2020-06-10T14:43:23Z</time>
      </trkpt>
      <trkpt lat="48.5635" lon="-3.61748">
        <ele>147.1</ele>
        <time>2020-06-10T14:43:24Z</time>
      </trkpt>
      <trkpt lat="48.56352" lon="-3.61745">
        <ele>147.2</ele>
        <time>2020-06-10T14:43:25Z</time>
      </trkpt>
      <trkpt lat="48.56355" lon="-3.61742">
        <ele>147.4</ele>
        <time>2020-06-10T14:43:26Z</time>
      </trkpt>
      <trkpt lat="48.56358" lon="-3.61739">
        <ele>147.5</ele>
        <time>2020-06-10T14:43:27Z</time>
      </trkpt>
      <trkpt lat="48.56362" lon="-3.61736">
        <ele>147.7</ele>
        <time>2020-06-10T14:43:28Z</time>
      </trkpt>
      <trkpt lat="48.56365" lon="-3.61732">
        <ele>147.8</ele>
        <time>2020-06-10T14:43:29Z</time>
      </trkpt>
      <trkpt lat="48.56369" lon="-3.61729">
        <ele>148</ele>
        <time>2020-06-10T14:43:30Z</time>
      </trkpt>
      <trkpt lat="48.56373" lon="-3.61727">
        <ele>148.2</ele>
        <time>2020-06-10T14:43:31Z</time>
      </trkpt>
      <trkpt lat="48.56377" lon="-3.61724">
        <ele>148.4</ele>
        <time>2020-06-10T14:43:32Z</time>
      </trkpt>
      <trkpt lat="48.56381" lon="-3.61721">
        <ele>148.6</ele>
        <time>2020-06-10T14:43:33Z</time>
      </trkpt>
      <trkpt lat="48.56385" lon="-3.61718">
        <ele>148.7</ele>
        <time>2020-06-10T14:43:34Z</time>
      </trkpt>
      <trkpt lat="48.56389" lon="-3.61715">
        <ele>148.9</ele>
        <time>2020-06-10T14:43:35Z</time>
      </trkpt>
      <trkpt lat="48.56393" lon="-3.61711">
        <ele>149.1</ele>
        <time>2020-06-10T14:43:36Z</time>
      </trkpt>
      <trkpt lat="48.56396" lon="-3.61708">
        <ele>149.3</ele>
        <time>2020-06-10T14:43:37Z</time>
      </trkpt>
      <trkpt lat="48.56399" lon="-3.61704">
        <ele>149.4</ele>
        <time>2020-06-10T14:43:38Z</time>
      </trkpt>
      <trkpt lat="48.56402" lon="-3.61701">
        <ele>149.6</ele>
        <time>2020-06-10T14:43:39Z</time>
      </trkpt>
      <trkpt lat="48.56406" lon="-3.61698">
        <ele>149.7</ele>
        <time>2020-06-10T14:43:40Z</time>
      </trkpt>
      <trkpt lat="48.56409" lon="-3.61695">
        <ele>149.9</ele>
        <time>2020-06-10T14:43:41Z</time>
      </trkpt>
      <trkpt lat="48.56413" lon="-3.61693">
        <ele>150</ele>
        <time>2020-06-10T14:43:42Z</time>
      </trkpt>
      <trkpt lat="48.56417" lon="-3.6169">
        <ele>150.2</ele>
        <time>2020-06-10T14:43:43Z</time>
      </trkpt>
      <trkpt lat="48.5642" lon="-3.61687">
        <ele>150.3</ele>
        <time>2020-06-10T14:43:44Z</time>
      </trkpt>
      <trkpt lat="48.56423" lon="-3.61684">
        <ele>150.4</ele>
        <time>2020-06-10T14:43:45Z</time>
      </trkpt>
      <trkpt lat="48.56428" lon="-3.61681">
        <ele>150.6</ele>
        <time>2020-06-10T14:43:46Z</time>
      </trkpt>
      <trkpt lat="48.56432" lon="-3.61677">
        <ele>150.8</ele>
        <time>2020-06-10T14:43:47Z</time>
      </trkpt>
      <trkpt lat="48.56436" lon="-3.61674">
        <ele>151</ele>
        <time>2020-06-10T14:43:48Z</time>
      </trkpt>
      <trkpt lat="48.5644" lon="-3.61671">
        <ele>151.1</ele>
        <time>2020-06-10T14:43:49Z</time>
      </trkpt>
      <trkpt lat="48.56443" lon="-3.61668">
        <ele>151.3</ele>
        <time>2020-06-10T14:43:50Z</time>
      </trkpt>
      <trkpt lat="48.56446" lon="-3.61666">
        <ele>151.4</ele>
        <time>2020-06-10T14:43:51Z</time>
      </trkpt>
      <trkpt lat="48.5645" lon="-3.61662">
        <ele>151.5</ele>
        <time>2020-06-10T14:43:52Z</time>
      </trkpt>
      <trkpt lat="48.56453" lon="-3.6166">
        <ele>151.7</ele>
        <time>2020-06-10T14:43:53Z</time>
      </trkpt>
      <trkpt lat="48.56456" lon="-3.61657">
        <ele>151.8</ele>
        <time>2020-06-10T14:43:54Z</time>
      </trkpt>
      <trkpt lat="48.56458" lon="-3.61655">
        <ele>151.9</ele>
        <time>2020-06-10T14:43:55Z</time>
      </trkpt>
      <trkpt lat="48.56462" lon="-3.61651">
        <ele>152</ele>
        <time>2020-06-10T14:43:56Z</time>
      </trkpt>
      <trkpt lat="48.56465" lon="-3.61647">
        <ele>152.1</ele>
        <time>2020-06-10T14:43:57Z</time>
      </trkpt>
      <trkpt lat="48.56469" lon="-3.61643">
        <ele>152.3</ele>
        <time>2020-06-10T14:43:58Z</time>
      </trkpt>
      <trkpt lat="48.56473" lon="-3.61641">
        <ele>152.4</ele>
        <time>2020-06-10T14:43:59Z</time>
      </trkpt>
      <trkpt lat="48.56477" lon="-3.61638">
        <ele>152.6</ele>
        <time>2020-06-10T14:44:00Z</time>
      </trkpt>
      <trkpt lat="48.56481" lon="-3.61633">
        <ele>152.7</ele>
        <time>2020-06-10T14:44:01Z</time>
      </trkpt>
      <trkpt lat="48.56485" lon="-3.61629">
        <ele>152.9</ele>
        <time>2020-06-10T14:44:02Z</time>
      </trkpt>
      <trkpt lat="48.56489" lon="-3.61624">
        <ele>153.1</ele>
        <time>2020-06-10T14:44:03Z</time>
      </trkpt>
      <trkpt lat="48.56493" lon="-3.6162">
        <ele>153.3</ele>
        <time>2020-06-10T14:44:04Z</time>
      </trkpt>
      <trkpt lat="48.56497" lon="-3.61615">
        <ele>153.6</ele>
        <time>2020-06-10T14:44:05Z</time>
      </trkpt>
      <trkpt lat="48.565" lon="-3.61609">
        <ele>153.8</ele>
        <time>2020-06-10T14:44:06Z</time>
      </trkpt>
      <trkpt lat="48.56503" lon="-3.61604">
        <ele>153.9</ele>
        <time>2020-06-10T14:44:07Z</time>
      </trkpt>
      <trkpt lat="48.56506" lon="-3.61599">
        <ele>154.1</ele>
        <time>2020-06-10T14:44:08Z</time>
      </trkpt>
      <trkpt lat="48.56508" lon="-3.61593">
        <ele>154.3</ele>
        <time>2020-06-10T14:44:09Z</time>
      </trkpt>
      <trkpt lat="48.5651" lon="-3.61588">
        <ele>154.5</ele>
        <time>2020-06-10T14:44:10Z</time>
      </trkpt>
      <trkpt lat="48.56512" lon="-3.61582">
        <ele>154.6</ele>
        <time>2020-06-10T14:44:11Z</time>
      </trkpt>
      <trkpt lat="48.56514" lon="-3.61576">
        <ele>154.8</ele>
        <time>2020-06-10T14:44:12Z</time>
      </trkpt>
      <trkpt lat="48.56516" lon="-3.6157">
        <ele>155</ele>
        <time>2020-06-10T14:44:13Z</time>
      </trkpt>
      <trkpt lat="48.56517" lon="-3.61563">
        <ele>155.2</ele>
        <time>2020-06-10T14:44:14Z</time>
      </trkpt>
      <trkpt lat="48.56518" lon="-3.61556">
        <ele>155.4</ele>
        <time>2020-06-10T14:44:15Z</time>
      </trkpt>
      <trkpt lat="48.5652" lon="-3.61551">
        <ele>155.6</ele>
        <time>2020-06-10T14:44:16Z</time>
      </trkpt>
      <trkpt lat="48.56521" lon="-3.61545">
        <ele>155.8</ele>
        <time>2020-06-10T14:44:17Z</time>
      </trkpt>
      <trkpt lat="48.56523" lon="-3.6154">
        <ele>155.9</ele>
        <time>2020-06-10T14:44:18Z</time>
      </trkpt>
      <trkpt lat="48.56524" lon="-3.61534">
        <ele>156.1</ele>
        <time>2020-06-10T14:44:19Z</time>
      </trkpt>
      <trkpt lat="48.56525" lon="-3.61528">
        <ele>156.3</ele>
        <time>2020-06-10T14:44:20Z</time>
      </trkpt>
      <trkpt lat="48.56525" lon="-3.61522">
        <ele>156.5</ele>
        <time>2020-06-10T14:44:21Z</time>
      </trkpt>
      <trkpt lat="48.56524" lon="-3.61516">
        <ele>156.7</ele>
        <time>2020-06-10T14:44:22Z</time>
      </trkpt>
      <trkpt lat="48.56525" lon="-3.61511">
        <ele>156.8</ele>
        <time>2020-06-10T14:44:23Z</time>
      </trkpt>
      <trkpt lat="48.56525" lon="-3.61505">
        <ele>157</ele>
        <time>2020-06-10T14:44:24Z</time>
      </trkpt>
      <trkpt lat="48.56526" lon="-3.61499">
        <ele>157.2</ele>
        <time>2020-06-10T14:44:25Z</time>
      </trkpt>
      <trkpt lat="48.56526" lon="-3.61493">
        <ele>157.4</ele>
        <time>2020-06-10T14:44:26Z</time>
      </trkpt>
      <trkpt lat="48.56526" lon="-3.61487">
        <ele>157.6</ele>
        <time>2020-06-10T14:44:27Z</time>
      </trkpt>
      <trkpt lat="48.56527" lon="-3.61481">
        <ele>157.8</ele>
        <time>2020-06-10T14:44:28Z</time>
      </trkpt>
      <trkpt lat="48.56527" lon="-3.61476">
        <ele>157.9</ele>
        <time>2020-06-10T14:44:29Z</time>
      </trkpt>
      <trkpt lat="48.56528" lon="-3.6147">
        <ele>158.1</ele>
        <time>2020-06-10T14:44:30Z</time>
      </trkpt>
      <trkpt lat="48.56528" lon="-3.61464">
        <ele>158.3</ele>
        <time>2020-06-10T14:44:31Z</time>
      </trkpt>
      <trkpt lat="48.56529" lon="-3.61458">
        <ele>158.5</ele>
        <time>2020-06-10T14:44:32Z</time>
      </trkpt>
      <trkpt lat="48.5653" lon="-3.61452">
        <ele>158.7</ele>
        <time>2020-06-10T14:44:33Z</time>
      </trkpt>
      <trkpt lat="48.56531" lon="-3.61447">
        <ele>158.8</ele>
        <time>2020-06-10T14:44:34Z</time>
      </trkpt>
      <trkpt lat="48.56531" lon="-3.61441">
        <ele>159</ele>
        <time>2020-06-10T14:44:35Z</time>
      </trkpt>
      <trkpt lat="48.56532" lon="-3.61435">
        <ele>159.2</ele>
        <time>2020-06-10T14:44:36Z</time>
      </trkpt>
      <trkpt lat="48.56532" lon="-3.61429">
        <ele>159.4</ele>
        <time>2020-06-10T14:44:37Z</time>
      </trkpt>
      <trkpt lat="48.56533" lon="-3.61423">
        <ele>159.6</ele>
        <time>2020-06-10T14:44:38Z</time>
      </trkpt>
      <trkpt lat="48.56534" lon="-3.61417">
        <ele>159.7</ele>
        <time>2020-06-10T14:44:39Z</time>
      </trkpt>
      <trkpt lat="48.56534" lon="-3.61411">
        <ele>159.9</ele>
        <time>2020-06-10T14:44:40Z</time>
      </trkpt>
      <trkpt lat="48.56535" lon="-3.61404">
        <ele>160.1</ele>
        <time>2020-06-10T14:44:41Z</time>
      </trkpt>
      <trkpt lat="48.56536" lon="-3.61398">
        <ele>160.3</ele>
        <time>2020-06-10T14:44:42Z</time>
      </trkpt>
      <trkpt lat="48.56537" lon="-3.61392">
        <ele>160.5</ele>
        <time>2020-06-10T14:44:43Z</time>
      </trkpt>
      <trkpt lat="48.56538" lon="-3.61387">
        <ele>160.7</ele>
        <time>2020-06-10T14:44:44Z</time>
      </trkpt>
      <trkpt lat="48.56539" lon="-3.61381">
        <ele>160.8</ele>
        <time>2020-06-10T14:44:45Z</time>
      </trkpt>
      <trkpt lat="48.56539" lon="-3.61375">
        <ele>161</ele>
        <time>2020-06-10T14:44:46Z</time>
      </trkpt>
      <trkpt lat="48.5654" lon="-3.61369">
        <ele>161.2</ele>
        <time>2020-06-10T14:44:47Z</time>
      </trkpt>
      <trkpt lat="48.56541" lon="-3.61364">
        <ele>161.4</ele>
        <time>2020-06-10T14:44:48Z</time>
      </trkpt>
      <trkpt lat="48.56541" lon="-3.61358">
        <ele>161.5</ele>
        <time>2020-06-10T14:44:49Z</time>
      </trkpt>
      <trkpt lat="48.56542" lon="-3.61352">
        <ele>161.7</ele>
        <time>2020-06-10T14:44:50Z</time>
      </trkpt>
      <trkpt lat="48.56541" lon="-3.61345">
        <ele>161.9</ele>
        <time>2020-06-10T14:44:51Z</time>
      </trkpt>
      <trkpt lat="48.56542" lon="-3.61339">
        <ele>162.1</ele>
        <time>2020-06-10T14:44:52Z</time>
      </trkpt>
      <trkpt lat="48.56543" lon="-3.61333">
        <ele>162.3</ele>
        <time>2020-06-10T14:44:53Z</time>
      </trkpt>
      <trkpt lat="48.56543" lon="-3.61327">
        <ele>162.5</ele>
        <time>2020-06-10T14:44:54Z</time>
      </trkpt>
      <trkpt lat="48.56544" lon="-3.61322">
        <ele>162.7</ele>
        <time>2020-06-10T14:44:55Z</time>
      </trkpt>
      <trkpt lat="48.56545" lon="-3.61316">
        <ele>162.8</ele>
        <time>2020-06-10T14:44:56Z</time>
      </trkpt>
      <trkpt lat="48.56545" lon="-3.61312">
        <ele>163</ele>
        <time>2020-06-10T14:44:57Z</time>
      </trkpt>
      <trkpt lat="48.56546" lon="-3.61307">
        <ele>163.1</ele>
        <time>2020-06-10T14:44:58Z</time>
      </trkpt>
      <trkpt lat="48.56547" lon="-3.61302">
        <ele>163.3</ele>
        <time>2020-06-10T14:44:59Z</time>
      </trkpt>
      <trkpt lat="48.56548" lon="-3.61297">
        <ele>163.5</ele>
        <time>2020-06-10T14:45:00Z</time>
      </trkpt>
      <trkpt lat="48.5655" lon="-3.61291">
        <ele>163.7</ele>
        <time>2020-06-10T14:45:01Z</time>
      </trkpt>
      <trkpt lat="48.56551" lon="-3.61285">
        <ele>163.9</ele>
        <time>2020-06-10T14:45:02Z</time>
      </trkpt>
      <trkpt lat="48.56552" lon="-3.61279">
        <ele>164.1</ele>
        <time>2020-06-10T14:45:03Z</time>
      </trkpt>
      <trkpt lat="48.56553" lon="-3.61274">
        <ele>164.3</ele>
        <time>2020-06-10T14:45:04Z</time>
      </trkpt>
      <trkpt lat="48.56555" lon="-3.61268">
        <ele>164.5</ele>
        <time>2020-06-10T14:45:05Z</time>
      </trkpt>
      <trkpt lat="48.56557" lon="-3.61263">
        <ele>164.7</ele>
        <time>2020-06-10T14:45:06Z</time>
      </trkpt>
      <trkpt lat="48.56558" lon="-3.61258">
        <ele>164.9</ele>
        <time>2020-06-10T14:45:07Z</time>
      </trkpt>
      <trkpt lat="48.5656" lon="-3.61253">
        <ele>165.1</ele>
        <time>2020-06-10T14:45:08Z</time>
      </trkpt>
      <trkpt lat="48.56562" lon="-3.61245">
        <ele>165.3</ele>
        <time>2020-06-10T14:45:09Z</time>
      </trkpt>
      <trkpt lat="48.56563" lon="-3.61239">
        <ele>165.6</ele>
        <time>2020-06-10T14:45:10Z</time>
      </trkpt>
      <trkpt lat="48.56565" lon="-3.61235">
        <ele>165.8</ele>
        <time>2020-06-10T14:45:11Z</time>
      </trkpt>
      <trkpt lat="48.56567" lon="-3.61229">
        <ele>166</ele>
        <time>2020-06-10T14:45:12Z</time>
      </trkpt>
      <trkpt lat="48.56569" lon="-3.61224">
        <ele>166.2</ele>
        <time>2020-06-10T14:45:13Z</time>
      </trkpt>
      <trkpt lat="48.56571" lon="-3.61219">
        <ele>166.3</ele>
        <time>2020-06-10T14:45:14Z</time>
      </trkpt>
      <trkpt lat="48.56573" lon="-3.61215">
        <ele>166.5</ele>
        <time>2020-06-10T14:45:15Z</time>
      </trkpt>
      <trkpt lat="48.56575" lon="-3.61208">
        <ele>166.7</ele>
        <time>2020-06-10T14:45:16Z</time>
      </trkpt>
      <trkpt lat="48.56576" lon="-3.61204">
        <ele>166.8</ele>
        <time>2020-06-10T14:45:17Z</time>
      </trkpt>
      <trkpt lat="48.56577" lon="-3.612">
        <ele>167</ele>
        <time>2020-06-10T14:45:18Z</time>
      </trkpt>
      <trkpt lat="48.5658" lon="-3.61195">
        <ele>167.2</ele>
        <time>2020-06-10T14:45:19Z</time>
      </trkpt>
      <trkpt lat="48.56581" lon="-3.6119">
        <ele>167.3</ele>
        <time>2020-06-10T14:45:20Z</time>
      </trkpt>
      <trkpt lat="48.56583" lon="-3.61185">
        <ele>167.4</ele>
        <time>2020-06-10T14:45:21Z</time>
      </trkpt>
      <trkpt lat="48.56585" lon="-3.6118">
        <ele>167.6</ele>
        <time>2020-06-10T14:45:22Z</time>
      </trkpt>
      <trkpt lat="48.56587" lon="-3.61173">
        <ele>167.8</ele>
        <time>2020-06-10T14:45:23Z</time>
      </trkpt>
      <trkpt lat="48.56589" lon="-3.61167">
        <ele>168</ele>
        <time>2020-06-10T14:45:24Z</time>
      </trkpt>
      <trkpt lat="48.56591" lon="-3.61161">
        <ele>168.2</ele>
        <time>2020-06-10T14:45:25Z</time>
      </trkpt>
      <trkpt lat="48.56591" lon="-3.61152">
        <ele>168.4</ele>
        <time>2020-06-10T14:45:26Z</time>
      </trkpt>
      <trkpt lat="48.56593" lon="-3.61145">
        <ele>168.7</ele>
        <time>2020-06-10T14:45:27Z</time>
      </trkpt>
      <trkpt lat="48.56596" lon="-3.61139">
        <ele>168.9</ele>
        <time>2020-06-10T14:45:28Z</time>
      </trkpt>
      <trkpt lat="48.56598" lon="-3.61133">
        <ele>169.1</ele>
        <time>2020-06-10T14:45:29Z</time>
      </trkpt>
      <trkpt lat="48.566" lon="-3.61127">
        <ele>169.2</ele>
        <time>2020-06-10T14:45:30Z</time>
      </trkpt>
      <trkpt lat="48.56602" lon="-3.61121">
        <ele>169.4</ele>
        <time>2020-06-10T14:45:31Z</time>
      </trkpt>
      <trkpt lat="48.56605" lon="-3.61116">
        <ele>169.6</ele>
        <time>2020-06-10T14:45:32Z</time>
      </trkpt>
      <trkpt lat="48.56607" lon="-3.6111">
        <ele>169.8</ele>
        <time>2020-06-10T14:45:33Z</time>
      </trkpt>
      <trkpt lat="48.56611" lon="-3.61103">
        <ele>170</ele>
        <time>2020-06-10T14:45:34Z</time>
      </trkpt>
      <trkpt lat="48.56613" lon="-3.61097">
        <ele>170.2</ele>
        <time>2020-06-10T14:45:35Z</time>
      </trkpt>
      <trkpt lat="48.56615" lon="-3.61091">
        <ele>170.3</ele>
        <time>2020-06-10T14:45:36Z</time>
      </trkpt>
      <trkpt lat="48.56618" lon="-3.61085">
        <ele>170.5</ele>
        <time>2020-06-10T14:45:37Z</time>
      </trkpt>
      <trkpt lat="48.56621" lon="-3.61079">
        <ele>170.7</ele>
        <time>2020-06-10T14:45:38Z</time>
      </trkpt>
      <trkpt lat="48.56623" lon="-3.61074">
        <ele>170.8</ele>
        <time>2020-06-10T14:45:39Z</time>
      </trkpt>
      <trkpt lat="48.56625" lon="-3.61067">
        <ele>171</ele>
        <time>2020-06-10T14:45:40Z</time>
      </trkpt>
      <trkpt lat="48.56628" lon="-3.6106">
        <ele>171.2</ele>
        <time>2020-06-10T14:45:41Z</time>
      </trkpt>
      <trkpt lat="48.5663" lon="-3.61053">
        <ele>171.4</ele>
        <time>2020-06-10T14:45:42Z</time>
      </trkpt>
      <trkpt lat="48.56632" lon="-3.61047">
        <ele>171.5</ele>
        <time>2020-06-10T14:45:43Z</time>
      </trkpt>
      <trkpt lat="48.56635" lon="-3.6104">
        <ele>171.7</ele>
        <time>2020-06-10T14:45:44Z</time>
      </trkpt>
      <trkpt lat="48.56639" lon="-3.61032">
        <ele>171.8</ele>
        <time>2020-06-10T14:45:45Z</time>
      </trkpt>
      <trkpt lat="48.5664" lon="-3.61025">
        <ele>172</ele>
        <time>2020-06-10T14:45:46Z</time>
      </trkpt>
      <trkpt lat="48.56642" lon="-3.61018">
        <ele>172.1</ele>
        <time>2020-06-10T14:45:47Z</time>
      </trkpt>
      <trkpt lat="48.56645" lon="-3.61011">
        <ele>172.2</ele>
        <time>2020-06-10T14:45:48Z</time>
      </trkpt>
      <trkpt lat="48.56647" lon="-3.61005">
        <ele>172.3</ele>
        <time>2020-06-10T14:45:49Z</time>
      </trkpt>
      <trkpt lat="48.56651" lon="-3.60998">
        <ele>172.5</ele>
        <time>2020-06-10T14:45:50Z</time>
      </trkpt>
      <trkpt lat="48.56655" lon="-3.60991">
        <ele>172.6</ele>
        <time>2020-06-10T14:45:51Z</time>
      </trkpt>
      <trkpt lat="48.56657" lon="-3.60986">
        <ele>172.7</ele>
        <time>2020-06-10T14:45:52Z</time>
      </trkpt>
      <trkpt lat="48.56661" lon="-3.60982">
        <ele>172.8</ele>
        <time>2020-06-10T14:45:53Z</time>
      </trkpt>
      <trkpt lat="48.56663" lon="-3.60978">
        <ele>172.8</ele>
        <time>2020-06-10T14:45:54Z</time>
      </trkpt>
      <trkpt lat="48.56664" lon="-3.60976">
        <ele>172.8</ele>
        <time>2020-06-10T14:45:55Z</time>
      </trkpt>
      <trkpt lat="48.56665" lon="-3.60971">
        <ele>172.9</ele>
        <time>2020-06-10T14:45:56Z</time>
      </trkpt>
      <trkpt lat="48.56667" lon="-3.60966">
        <ele>173</ele>
        <time>2020-06-10T14:45:57Z</time>
      </trkpt>
      <trkpt lat="48.56671" lon="-3.6096">
        <ele>173.1</ele>
        <time>2020-06-10T14:45:58Z</time>
      </trkpt>
      <trkpt lat="48.56674" lon="-3.60954">
        <ele>173.1</ele>
        <time>2020-06-10T14:45:59Z</time>
      </trkpt>
      <trkpt lat="48.56675" lon="-3.60947">
        <ele>173.2</ele>
        <time>2020-06-10T14:46:00Z</time>
      </trkpt>
      <trkpt lat="48.56677" lon="-3.60939">
        <ele>173.3</ele>
        <time>2020-06-10T14:46:01Z</time>
      </trkpt>
      <trkpt lat="48.56679" lon="-3.60933">
        <ele>173.4</ele>
        <time>2020-06-10T14:46:02Z</time>
      </trkpt>
      <trkpt lat="48.56681" lon="-3.60927">
        <ele>173.5</ele>
        <time>2020-06-10T14:46:03Z</time>
      </trkpt>
      <trkpt lat="48.56684" lon="-3.60922">
        <ele>173.6</ele>
        <time>2020-06-10T14:46:04Z</time>
      </trkpt>
      <trkpt lat="48.56686" lon="-3.60918">
        <ele>173.7</ele>
        <time>2020-06-10T14:46:05Z</time>
      </trkpt>
      <trkpt lat="48.56687" lon="-3.60914">
        <ele>173.7</ele>
        <time>2020-06-10T14:46:06Z</time>
      </trkpt>
      <trkpt lat="48.5669" lon="-3.6091">
        <ele>173.7</ele>
        <time>2020-06-10T14:46:07Z</time>
      </trkpt>
      <trkpt lat="48.56693" lon="-3.60906">
        <ele>173.8</ele>
        <time>2020-06-10T14:46:08Z</time>
      </trkpt>
      <trkpt lat="48.56695" lon="-3.60902">
        <ele>173.8</ele>
        <time>2020-06-10T14:46:09Z</time>
      </trkpt>
      <trkpt lat="48.56696" lon="-3.60897">
        <ele>173.8</ele>
        <time>2020-06-10T14:46:10Z</time>
      </trkpt>
      <trkpt lat="48.56697" lon="-3.60895">
        <ele>173.8</ele>
        <time>2020-06-10T14:46:11Z</time>
      </trkpt>
      <trkpt lat="48.56698" lon="-3.60891">
        <ele>173.8</ele>
        <time>2020-06-10T14:46:12Z</time>
      </trkpt>
      <trkpt lat="48.567" lon="-3.60886">
        <ele>173.8</ele>
        <time>2020-06-10T14:46:13Z</time>
      </trkpt>
      <trkpt lat="48.56702" lon="-3.60882">
        <ele>173.8</ele>
        <time>2020-06-10T14:46:14Z</time>
      </trkpt>
      <trkpt lat="48.56702" lon="-3.60881">
        <ele>173.8</ele>
        <time>2020-06-10T14:46:15Z</time>
      </trkpt>
      <trkpt lat="48.56703" lon="-3.60878">
        <ele>173.8</ele>
        <time>2020-06-10T14:46:16Z</time>
      </trkpt>
      <trkpt lat="48.56703" lon="-3.60877">
        <ele>173.8</ele>
        <time>2020-06-10T14:46:17Z</time>
      </trkpt>
      <trkpt lat="48.56702" lon="-3.60877">
        <ele>173.8</ele>
        <time>2020-06-10T14:46:18Z</time>
      </trkpt>
      <trkpt lat="48.56701" lon="-3.60876">
        <ele>173.8</ele>
        <time>2020-06-10T14:46:19Z</time>
      </trkpt>
      <trkpt lat="48.56702" lon="-3.60875">
        <ele>173.8</ele>
        <time>2020-06-10T14:46:20Z</time>
      </trkpt>
      <trkpt lat="48.56702" lon="-3.60873">
        <ele>173.8</ele>
        <time>2020-06-10T14:46:21Z</time>
      </trkpt>
      <trkpt lat="48.56702" lon="-3.60872">
        <ele>173.8</ele>
        <time>2020-06-10T14:46:22Z</time>
      </trkpt>
      <trkpt lat="48.56702" lon="-3.60871">
        <ele>173.8</ele>
        <time>2020-06-10T14:46:23Z</time>
      </trkpt>
      <trkpt lat="48.56703" lon="-3.6087">
        <ele>173.8</ele>
        <time>2020-06-10T14:46:24Z</time>
      </trkpt>
      <trkpt lat="48.56703" lon="-3.60869">
        <ele>173.8</ele>
        <time>2020-06-10T14:46:25Z</time>
      </trkpt>
      <trkpt lat="48.56703" lon="-3.60868">
        <ele>173.8</ele>
        <time>2020-06-10T14:46:26Z</time>
      </trkpt>
      <trkpt lat="48.56703" lon="-3.60867">
        <ele>173.8</ele>
        <time>2020-06-10T14:46:27Z</time>
      </trkpt>
      <trkpt lat="48.56703" lon="-3.60866">
        <ele>173.8</ele>
        <time>2020-06-10T14:51:18Z</time>
      </trkpt>
      <trkpt lat="48.56704" lon="-3.60865">
        <ele>173.8</ele>
        <time>2020-06-10T14:51:19Z</time>
      </trkpt>
      <trkpt lat="48.56706" lon="-3.6086">
        <ele>173.8</ele>
        <time>2020-06-10T14:51:20Z</time>
      </trkpt>
      <trkpt lat="48.56707" lon="-3.60856">
        <ele>173.8</ele>
        <time>2020-06-10T14:51:21Z</time>
      </trkpt>
      <trkpt lat="48.5671" lon="-3.60851">
        <ele>173.8</ele>
        <time>2020-06-10T14:51:22Z</time>
      </trkpt>
      <trkpt lat="48.56713" lon="-3.60848">
        <ele>173.8</ele>
        <time>2020-06-10T14:51:23Z</time>
      </trkpt>
      <trkpt lat="48.56714" lon="-3.60844">
        <ele>173.8</ele>
        <time>2020-06-10T14:51:24Z</time>
      </trkpt>
      <trkpt lat="48.56716" lon="-3.6084">
        <ele>173.8</ele>
        <time>2020-06-10T14:51:25Z</time>
      </trkpt>
      <trkpt lat="48.56718" lon="-3.60836">
        <ele>173.8</ele>
        <time>2020-06-10T14:51:26Z</time>
      </trkpt>
      <trkpt lat="48.56719" lon="-3.60834">
        <ele>173.8</ele>
        <time>2020-06-10T14:51:27Z</time>
      </trkpt>
      <trkpt lat="48.56721" lon="-3.60829">
        <ele>173.8</ele>
        <time>2020-06-10T14:51:28Z</time>
      </trkpt>
      <trkpt lat="48.56721" lon="-3.60827">
        <ele>173.8</ele>
        <time>2020-06-10T14:51:29Z</time>
      </trkpt>
      <trkpt lat="48.56723" lon="-3.60822">
        <ele>173.8</ele>
        <time>2020-06-10T14:51:30Z</time>
      </trkpt>
      <trkpt lat="48.56724" lon="-3.6082">
        <ele>173.8</ele>
        <time>2020-06-10T14:51:31Z</time>
      </trkpt>
      <trkpt lat="48.56725" lon="-3.60816">
        <ele>173.7</ele>
        <time>2020-06-10T14:51:32Z</time>
      </trkpt>
      <trkpt lat="48.56726" lon="-3.60811">
        <ele>173.7</ele>
        <time>2020-06-10T14:51:33Z</time>
      </trkpt>
      <trkpt lat="48.56726" lon="-3.6081">
        <ele>173.7</ele>
        <time>2020-06-10T14:51:34Z</time>
      </trkpt>
      <trkpt lat="48.56727" lon="-3.60805">
        <ele>173.7</ele>
        <time>2020-06-10T14:51:35Z</time>
      </trkpt>
      <trkpt lat="48.56727" lon="-3.60803">
        <ele>173.7</ele>
        <time>2020-06-10T14:51:36Z</time>
      </trkpt>
      <trkpt lat="48.56728" lon="-3.60799">
        <ele>173.6</ele>
        <time>2020-06-10T14:51:37Z</time>
      </trkpt>
      <trkpt lat="48.56728" lon="-3.60794">
        <ele>173.6</ele>
        <time>2020-06-10T14:51:38Z</time>
      </trkpt>
      <trkpt lat="48.56729" lon="-3.60791">
        <ele>173.6</ele>
        <time>2020-06-10T14:51:39Z</time>
      </trkpt>
      <trkpt lat="48.56729" lon="-3.60787">
        <ele>173.6</ele>
        <time>2020-06-10T14:51:40Z</time>
      </trkpt>
      <trkpt lat="48.5673" lon="-3.60783">
        <ele>173.6</ele>
        <time>2020-06-10T14:51:41Z</time>
      </trkpt>
      <trkpt lat="48.56731" lon="-3.60778">
        <ele>173.5</ele>
        <time>2020-06-10T14:51:42Z</time>
      </trkpt>
      <trkpt lat="48.56732" lon="-3.60772">
        <ele>173.5</ele>
        <time>2020-06-10T14:51:43Z</time>
      </trkpt>
      <trkpt lat="48.56733" lon="-3.6077">
        <ele>173.5</ele>
        <time>2020-06-10T14:51:44Z</time>
      </trkpt>
      <trkpt lat="48.56733" lon="-3.60765">
        <ele>173.5</ele>
        <time>2020-06-10T14:51:45Z</time>
      </trkpt>
      <trkpt lat="48.56733" lon="-3.60763">
        <ele>173.4</ele>
        <time>2020-06-10T14:51:46Z</time>
      </trkpt>
      <trkpt lat="48.56734" lon="-3.60757">
        <ele>173.4</ele>
        <time>2020-06-10T14:51:47Z</time>
      </trkpt>
      <trkpt lat="48.56734" lon="-3.60755">
        <ele>173.4</ele>
        <time>2020-06-10T14:51:48Z</time>
      </trkpt>
      <trkpt lat="48.56735" lon="-3.6075">
        <ele>173.4</ele>
        <time>2020-06-10T14:51:49Z</time>
      </trkpt>
      <trkpt lat="48.56735" lon="-3.60748">
        <ele>173.4</ele>
        <time>2020-06-10T14:51:50Z</time>
      </trkpt>
      <trkpt lat="48.56736" lon="-3.60743">
        <ele>173.4</ele>
        <time>2020-06-10T14:51:51Z</time>
      </trkpt>
      <trkpt lat="48.56736" lon="-3.60736">
        <ele>173.4</ele>
        <time>2020-06-10T14:51:52Z</time>
      </trkpt>
      <trkpt lat="48.56736" lon="-3.60734">
        <ele>173.4</ele>
        <time>2020-06-10T14:51:53Z</time>
      </trkpt>
      <trkpt lat="48.56736" lon="-3.60729">
        <ele>173.4</ele>
        <time>2020-06-10T14:51:54Z</time>
      </trkpt>
      <trkpt lat="48.56736" lon="-3.60724">
        <ele>173.4</ele>
        <time>2020-06-10T14:51:55Z</time>
      </trkpt>
      <trkpt lat="48.56736" lon="-3.60719">
        <ele>173.4</ele>
        <time>2020-06-10T14:51:56Z</time>
      </trkpt>
      <trkpt lat="48.56737" lon="-3.60714">
        <ele>173.4</ele>
        <time>2020-06-10T14:51:57Z</time>
      </trkpt>
      <trkpt lat="48.56737" lon="-3.60709">
        <ele>173.4</ele>
        <time>2020-06-10T14:51:58Z</time>
      </trkpt>
      <trkpt lat="48.56738" lon="-3.60705">
        <ele>173.4</ele>
        <time>2020-06-10T14:51:59Z</time>
      </trkpt>
      <trkpt lat="48.56738" lon="-3.607">
        <ele>173.4</ele>
        <time>2020-06-10T14:52:00Z</time>
      </trkpt>
      <trkpt lat="48.56738" lon="-3.60696">
        <ele>173.4</ele>
        <time>2020-06-10T14:52:01Z</time>
      </trkpt>
      <trkpt lat="48.56738" lon="-3.60691">
        <ele>173.4</ele>
        <time>2020-06-10T14:52:02Z</time>
      </trkpt>
      <trkpt lat="48.56738" lon="-3.60686">
        <ele>173.4</ele>
        <time>2020-06-10T14:52:03Z</time>
      </trkpt>
      <trkpt lat="48.56738" lon="-3.60682">
        <ele>173.4</ele>
        <time>2020-06-10T14:52:04Z</time>
      </trkpt>
      <trkpt lat="48.56737" lon="-3.60677">
        <ele>173.4</ele>
        <time>2020-06-10T14:52:05Z</time>
      </trkpt>
      <trkpt lat="48.56737" lon="-3.60672">
        <ele>173.4</ele>
        <time>2020-06-10T14:52:06Z</time>
      </trkpt>
      <trkpt lat="48.56736" lon="-3.60668">
        <ele>173.4</ele>
        <time>2020-06-10T14:52:07Z</time>
      </trkpt>
      <trkpt lat="48.56736" lon="-3.60663">
        <ele>173.4</ele>
        <time>2020-06-10T14:52:08Z</time>
      </trkpt>
      <trkpt lat="48.56735" lon="-3.60658">
        <ele>173.4</ele>
        <time>2020-06-10T14:52:09Z</time>
      </trkpt>
      <trkpt lat="48.56735" lon="-3.60653">
        <ele>173.4</ele>
        <time>2020-06-10T14:52:10Z</time>
      </trkpt>
      <trkpt lat="48.56736" lon="-3.60648">
        <ele>173.4</ele>
        <time>2020-06-10T14:52:11Z</time>
      </trkpt>
      <trkpt lat="48.56736" lon="-3.60643">
        <ele>173.4</ele>
        <time>2020-06-10T14:52:12Z</time>
      </trkpt>
      <trkpt lat="48.56736" lon="-3.60638">
        <ele>173.3</ele>
        <time>2020-06-10T14:52:13Z</time>
      </trkpt>
      <trkpt lat="48.56735" lon="-3.60633">
        <ele>173.3</ele>
        <time>2020-06-10T14:52:14Z</time>
      </trkpt>
      <trkpt lat="48.56736" lon="-3.60628">
        <ele>173.3</ele>
        <time>2020-06-10T14:52:15Z</time>
      </trkpt>
      <trkpt lat="48.56736" lon="-3.60623">
        <ele>173.3</ele>
        <time>2020-06-10T14:52:16Z</time>
      </trkpt>
      <trkpt lat="48.56736" lon="-3.60618">
        <ele>173.3</ele>
        <time>2020-06-10T14:52:17Z</time>
      </trkpt>
      <trkpt lat="48.56736" lon="-3.60613">
        <ele>173.2</ele>
        <time>2020-06-10T14:52:18Z</time>
      </trkpt>
      <trkpt lat="48.56736" lon="-3.60608">
        <ele>173.2</ele>
        <time>2020-06-10T14:52:19Z</time>
      </trkpt>
      <trkpt lat="48.56737" lon="-3.60603">
        <ele>173.2</ele>
        <time>2020-06-10T14:52:20Z</time>
      </trkpt>
      <trkpt lat="48.56736" lon="-3.60598">
        <ele>173.2</ele>
        <time>2020-06-10T14:52:21Z</time>
      </trkpt>
      <trkpt lat="48.56735" lon="-3.60593">
        <ele>173.1</ele>
        <time>2020-06-10T14:52:22Z</time>
      </trkpt>
      <trkpt lat="48.56734" lon="-3.60587">
        <ele>173.1</ele>
        <time>2020-06-10T14:52:23Z</time>
      </trkpt>
      <trkpt lat="48.56734" lon="-3.60583">
        <ele>173.1</ele>
        <time>2020-06-10T14:52:24Z</time>
      </trkpt>
      <trkpt lat="48.56735" lon="-3.60577">
        <ele>173</ele>
        <time>2020-06-10T14:52:25Z</time>
      </trkpt>
      <trkpt lat="48.56736" lon="-3.60571">
        <ele>173</ele>
        <time>2020-06-10T14:52:26Z</time>
      </trkpt>
      <trkpt lat="48.56735" lon="-3.60565">
        <ele>172.9</ele>
        <time>2020-06-10T14:52:27Z</time>
      </trkpt>
      <trkpt lat="48.56735" lon="-3.6056">
        <ele>172.9</ele>
        <time>2020-06-10T14:52:28Z</time>
      </trkpt>
      <trkpt lat="48.56734" lon="-3.60555">
        <ele>172.8</ele>
        <time>2020-06-10T14:52:29Z</time>
      </trkpt>
      <trkpt lat="48.56734" lon="-3.60551">
        <ele>172.8</ele>
        <time>2020-06-10T14:52:30Z</time>
      </trkpt>
      <trkpt lat="48.56734" lon="-3.60545">
        <ele>172.7</ele>
        <time>2020-06-10T14:52:31Z</time>
      </trkpt>
      <trkpt lat="48.56734" lon="-3.60543">
        <ele>172.7</ele>
        <time>2020-06-10T14:52:32Z</time>
      </trkpt>
      <trkpt lat="48.56734" lon="-3.60539">
        <ele>172.7</ele>
        <time>2020-06-10T14:52:33Z</time>
      </trkpt>
      <trkpt lat="48.56734" lon="-3.60538">
        <ele>172.6</ele>
        <time>2020-06-10T14:52:34Z</time>
      </trkpt>
      <trkpt lat="48.56734" lon="-3.60536">
        <ele>172.6</ele>
        <time>2020-06-10T14:52:35Z</time>
      </trkpt>
      <trkpt lat="48.56734" lon="-3.60533">
        <ele>172.6</ele>
        <time>2020-06-10T14:52:36Z</time>
      </trkpt>
      <trkpt lat="48.56734" lon="-3.60528">
        <ele>172.5</ele>
        <time>2020-06-10T14:52:37Z</time>
      </trkpt>
      <trkpt lat="48.56734" lon="-3.60526">
        <ele>172.4</ele>
        <time>2020-06-10T14:52:38Z</time>
      </trkpt>
      <trkpt lat="48.56734" lon="-3.60521">
        <ele>172.3</ele>
        <time>2020-06-10T14:52:39Z</time>
      </trkpt>
      <trkpt lat="48.56734" lon="-3.60516">
        <ele>172.1</ele>
        <time>2020-06-10T14:52:40Z</time>
      </trkpt>
      <trkpt lat="48.56735" lon="-3.6051">
        <ele>172</ele>
        <time>2020-06-10T14:52:41Z</time>
      </trkpt>
      <trkpt lat="48.56735" lon="-3.60504">
        <ele>171.8</ele>
        <time>2020-06-10T14:52:42Z</time>
      </trkpt>
      <trkpt lat="48.56735" lon="-3.60497">
        <ele>171.6</ele>
        <time>2020-06-10T14:52:43Z</time>
      </trkpt>
      <trkpt lat="48.56736" lon="-3.6049">
        <ele>171.4</ele>
        <time>2020-06-10T14:52:44Z</time>
      </trkpt>
      <trkpt lat="48.56735" lon="-3.60482">
        <ele>171.2</ele>
        <time>2020-06-10T14:52:45Z</time>
      </trkpt>
      <trkpt lat="48.56736" lon="-3.60474">
        <ele>171</ele>
        <time>2020-06-10T14:52:46Z</time>
      </trkpt>
      <trkpt lat="48.56736" lon="-3.60466">
        <ele>170.8</ele>
        <time>2020-06-10T14:52:47Z</time>
      </trkpt>
      <trkpt lat="48.56736" lon="-3.60458">
        <ele>170.7</ele>
        <time>2020-06-10T14:52:48Z</time>
      </trkpt>
      <trkpt lat="48.56735" lon="-3.60449">
        <ele>170.6</ele>
        <time>2020-06-10T14:52:49Z</time>
      </trkpt>
      <trkpt lat="48.56735" lon="-3.6044">
        <ele>170.4</ele>
        <time>2020-06-10T14:52:50Z</time>
      </trkpt>
      <trkpt lat="48.56735" lon="-3.60431">
        <ele>170.3</ele>
        <time>2020-06-10T14:52:51Z</time>
      </trkpt>
      <trkpt lat="48.56735" lon="-3.60422">
        <ele>170.2</ele>
        <time>2020-06-10T14:52:52Z</time>
      </trkpt>
      <trkpt lat="48.56736" lon="-3.60413">
        <ele>170.2</ele>
        <time>2020-06-10T14:52:53Z</time>
      </trkpt>
      <trkpt lat="48.56736" lon="-3.60404">
        <ele>170.1</ele>
        <time>2020-06-10T14:52:54Z</time>
      </trkpt>
      <trkpt lat="48.56737" lon="-3.60395">
        <ele>170.1</ele>
        <time>2020-06-10T14:52:55Z</time>
      </trkpt>
      <trkpt lat="48.56737" lon="-3.60387">
        <ele>170.1</ele>
        <time>2020-06-10T14:52:56Z</time>
      </trkpt>
      <trkpt lat="48.56738" lon="-3.60378">
        <ele>170.1</ele>
        <time>2020-06-10T14:52:57Z</time>
      </trkpt>
      <trkpt lat="48.56739" lon="-3.60369">
        <ele>170.1</ele>
        <time>2020-06-10T14:52:58Z</time>
      </trkpt>
      <trkpt lat="48.56739" lon="-3.6036">
        <ele>170.1</ele>
        <time>2020-06-10T14:52:59Z</time>
      </trkpt>
      <trkpt lat="48.56739" lon="-3.60352">
        <ele>170.1</ele>
        <time>2020-06-10T14:53:00Z</time>
      </trkpt>
      <trkpt lat="48.56739" lon="-3.60343">
        <ele>170.2</ele>
        <time>2020-06-10T14:53:01Z</time>
      </trkpt>
      <trkpt lat="48.56739" lon="-3.60334">
        <ele>170.2</ele>
        <time>2020-06-10T14:53:02Z</time>
      </trkpt>
      <trkpt lat="48.56739" lon="-3.60326">
        <ele>170.2</ele>
        <time>2020-06-10T14:53:03Z</time>
      </trkpt>
      <trkpt lat="48.56739" lon="-3.60317">
        <ele>170.3</ele>
        <time>2020-06-10T14:53:04Z</time>
      </trkpt>
      <trkpt lat="48.56739" lon="-3.60308">
        <ele>170.3</ele>
        <time>2020-06-10T14:53:05Z</time>
      </trkpt>
      <trkpt lat="48.56739" lon="-3.603">
        <ele>170.4</ele>
        <time>2020-06-10T14:53:06Z</time>
      </trkpt>
      <trkpt lat="48.56739" lon="-3.60291">
        <ele>170.6</ele>
        <time>2020-06-10T14:53:07Z</time>
      </trkpt>
      <trkpt lat="48.56738" lon="-3.60282">
        <ele>170.7</ele>
        <time>2020-06-10T14:53:08Z</time>
      </trkpt>
      <trkpt lat="48.56738" lon="-3.60274">
        <ele>170.8</ele>
        <time>2020-06-10T14:53:09Z</time>
      </trkpt>
      <trkpt lat="48.56738" lon="-3.60266">
        <ele>171</ele>
        <time>2020-06-10T14:53:10Z</time>
      </trkpt>
      <trkpt lat="48.56739" lon="-3.60258">
        <ele>171.1</ele>
        <time>2020-06-10T14:53:11Z</time>
      </trkpt>
      <trkpt lat="48.56739" lon="-3.6025">
        <ele>171.3</ele>
        <time>2020-06-10T14:53:12Z</time>
      </trkpt>
      <trkpt lat="48.56739" lon="-3.60242">
        <ele>171.4</ele>
        <time>2020-06-10T14:53:13Z</time>
      </trkpt>
      <trkpt lat="48.56739" lon="-3.60234">
        <ele>171.6</ele>
        <time>2020-06-10T14:53:14Z</time>
      </trkpt>
      <trkpt lat="48.56739" lon="-3.60226">
        <ele>171.8</ele>
        <time>2020-06-10T14:53:15Z</time>
      </trkpt>
      <trkpt lat="48.56739" lon="-3.60219">
        <ele>172</ele>
        <time>2020-06-10T14:53:16Z</time>
      </trkpt>
      <trkpt lat="48.56738" lon="-3.60212">
        <ele>172.1</ele>
        <time>2020-06-10T14:53:17Z</time>
      </trkpt>
      <trkpt lat="48.56737" lon="-3.60204">
        <ele>172.3</ele>
        <time>2020-06-10T14:53:18Z</time>
      </trkpt>
      <trkpt lat="48.56736" lon="-3.60197">
        <ele>172.5</ele>
        <time>2020-06-10T14:53:19Z</time>
      </trkpt>
      <trkpt lat="48.56736" lon="-3.60189">
        <ele>172.7</ele>
        <time>2020-06-10T14:53:20Z</time>
      </trkpt>
      <trkpt lat="48.56736" lon="-3.60182">
        <ele>172.9</ele>
        <time>2020-06-10T14:53:21Z</time>
      </trkpt>
      <trkpt lat="48.56737" lon="-3.60174">
        <ele>173.1</ele>
        <time>2020-06-10T14:53:22Z</time>
      </trkpt>
      <trkpt lat="48.56737" lon="-3.60167">
        <ele>173.3</ele>
        <time>2020-06-10T14:53:23Z</time>
      </trkpt>
      <trkpt lat="48.56737" lon="-3.60159">
        <ele>173.5</ele>
        <time>2020-06-10T14:53:24Z</time>
      </trkpt>
      <trkpt lat="48.56737" lon="-3.60152">
        <ele>173.7</ele>
        <time>2020-06-10T14:53:25Z</time>
      </trkpt>
      <trkpt lat="48.56737" lon="-3.60144">
        <ele>173.8</ele>
        <time>2020-06-10T14:53:26Z</time>
      </trkpt>
      <trkpt lat="48.56737" lon="-3.60137">
        <ele>174</ele>
        <time>2020-06-10T14:53:27Z</time>
      </trkpt>
      <trkpt lat="48.56736" lon="-3.6013">
        <ele>174.2</ele>
        <time>2020-06-10T14:53:28Z</time>
      </trkpt>
      <trkpt lat="48.56736" lon="-3.60122">
        <ele>174.4</ele>
        <time>2020-06-10T14:53:29Z</time>
      </trkpt>
      <trkpt lat="48.56736" lon="-3.60115">
        <ele>174.6</ele>
        <time>2020-06-10T14:53:30Z</time>
      </trkpt>
      <trkpt lat="48.56736" lon="-3.60108">
        <ele>174.8</ele>
        <time>2020-06-10T14:53:31Z</time>
      </trkpt>
      <trkpt lat="48.56736" lon="-3.601">
        <ele>175</ele>
        <time>2020-06-10T14:53:32Z</time>
      </trkpt>
      <trkpt lat="48.56736" lon="-3.60093">
        <ele>175.2</ele>
        <time>2020-06-10T14:53:33Z</time>
      </trkpt>
      <trkpt lat="48.56735" lon="-3.60085">
        <ele>175.4</ele>
        <time>2020-06-10T14:53:34Z</time>
      </trkpt>
      <trkpt lat="48.56735" lon="-3.60078">
        <ele>175.6</ele>
        <time>2020-06-10T14:53:35Z</time>
      </trkpt>
      <trkpt lat="48.56734" lon="-3.60072">
        <ele>175.7</ele>
        <time>2020-06-10T14:53:36Z</time>
      </trkpt>
      <trkpt lat="48.56733" lon="-3.60065">
        <ele>175.9</ele>
        <time>2020-06-10T14:53:37Z</time>
      </trkpt>
      <trkpt lat="48.56733" lon="-3.60058">
        <ele>176.1</ele>
        <time>2020-06-10T14:53:38Z</time>
      </trkpt>
      <trkpt lat="48.56733" lon="-3.60052">
        <ele>176.2</ele>
        <time>2020-06-10T14:53:39Z</time>
      </trkpt>
      <trkpt lat="48.56733" lon="-3.60045">
        <ele>176.4</ele>
        <time>2020-06-10T14:53:40Z</time>
      </trkpt>
      <trkpt lat="48.56734" lon="-3.60038">
        <ele>176.6</ele>
        <time>2020-06-10T14:53:41Z</time>
      </trkpt>
      <trkpt lat="48.56733" lon="-3.60033">
        <ele>176.7</ele>
        <time>2020-06-10T14:53:42Z</time>
      </trkpt>
      <trkpt lat="48.56734" lon="-3.60025">
        <ele>176.9</ele>
        <time>2020-06-10T14:53:43Z</time>
      </trkpt>
      <trkpt lat="48.56734" lon="-3.60018">
        <ele>177.1</ele>
        <time>2020-06-10T14:53:44Z</time>
      </trkpt>
      <trkpt lat="48.56734" lon="-3.60012">
        <ele>177.2</ele>
        <time>2020-06-10T14:53:45Z</time>
      </trkpt>
      <trkpt lat="48.56733" lon="-3.60007">
        <ele>177.3</ele>
        <time>2020-06-10T14:53:46Z</time>
      </trkpt>
      <trkpt lat="48.56734" lon="-3.60001">
        <ele>177.5</ele>
        <time>2020-06-10T14:53:47Z</time>
      </trkpt>
      <trkpt lat="48.56734" lon="-3.59993">
        <ele>177.6</ele>
        <time>2020-06-10T14:53:48Z</time>
      </trkpt>
      <trkpt lat="48.56734" lon="-3.59986">
        <ele>177.7</ele>
        <time>2020-06-10T14:53:49Z</time>
      </trkpt>
      <trkpt lat="48.56734" lon="-3.59981">
        <ele>177.8</ele>
        <time>2020-06-10T14:53:50Z</time>
      </trkpt>
      <trkpt lat="48.56734" lon="-3.59976">
        <ele>177.9</ele>
        <time>2020-06-10T14:53:51Z</time>
      </trkpt>
      <trkpt lat="48.56734" lon="-3.5997">
        <ele>178</ele>
        <time>2020-06-10T14:53:52Z</time>
      </trkpt>
      <trkpt lat="48.56734" lon="-3.59964">
        <ele>178.1</ele>
        <time>2020-06-10T14:53:53Z</time>
      </trkpt>
      <trkpt lat="48.56735" lon="-3.59957">
        <ele>178.1</ele>
        <time>2020-06-10T14:53:54Z</time>
      </trkpt>
      <trkpt lat="48.56736" lon="-3.59951">
        <ele>178.2</ele>
        <time>2020-06-10T14:53:55Z</time>
      </trkpt>
      <trkpt lat="48.56737" lon="-3.59944">
        <ele>178.2</ele>
        <time>2020-06-10T14:53:56Z</time>
      </trkpt>
      <trkpt lat="48.56738" lon="-3.59937">
        <ele>178.2</ele>
        <time>2020-06-10T14:53:57Z</time>
      </trkpt>
      <trkpt lat="48.56739" lon="-3.59931">
        <ele>178.2</ele>
        <time>2020-06-10T14:53:58Z</time>
      </trkpt>
      <trkpt lat="48.56741" lon="-3.59924">
        <ele>178.2</ele>
        <time>2020-06-10T14:53:59Z</time>
      </trkpt>
      <trkpt lat="48.56742" lon="-3.59916">
        <ele>178.1</ele>
        <time>2020-06-10T14:54:00Z</time>
      </trkpt>
      <trkpt lat="48.56744" lon="-3.5991">
        <ele>178.1</ele>
        <time>2020-06-10T14:54:01Z</time>
      </trkpt>
      <trkpt lat="48.56745" lon="-3.59903">
        <ele>178</ele>
        <time>2020-06-10T14:54:02Z</time>
      </trkpt>
      <trkpt lat="48.56745" lon="-3.59897">
        <ele>178</ele>
        <time>2020-06-10T14:54:03Z</time>
      </trkpt>
      <trkpt lat="48.56746" lon="-3.5989">
        <ele>177.9</ele>
        <time>2020-06-10T14:54:04Z</time>
      </trkpt>
      <trkpt lat="48.56747" lon="-3.59885">
        <ele>177.8</ele>
        <time>2020-06-10T14:54:05Z</time>
      </trkpt>
      <trkpt lat="48.56748" lon="-3.59877">
        <ele>177.6</ele>
        <time>2020-06-10T14:54:06Z</time>
      </trkpt>
      <trkpt lat="48.56749" lon="-3.5987">
        <ele>177.4</ele>
        <time>2020-06-10T14:54:07Z</time>
      </trkpt>
      <trkpt lat="48.5675" lon="-3.59862">
        <ele>177</ele>
        <time>2020-06-10T14:54:08Z</time>
      </trkpt>
      <trkpt lat="48.56751" lon="-3.59852">
        <ele>176.7</ele>
        <time>2020-06-10T14:54:09Z</time>
      </trkpt>
      <trkpt lat="48.56752" lon="-3.59843">
        <ele>176.5</ele>
        <time>2020-06-10T14:54:10Z</time>
      </trkpt>
      <trkpt lat="48.56753" lon="-3.59833">
        <ele>176.2</ele>
        <time>2020-06-10T14:54:11Z</time>
      </trkpt>
      <trkpt lat="48.56754" lon="-3.59823">
        <ele>175.8</ele>
        <time>2020-06-10T14:54:12Z</time>
      </trkpt>
      <trkpt lat="48.56755" lon="-3.59813">
        <ele>175.5</ele>
        <time>2020-06-10T14:54:13Z</time>
      </trkpt>
      <trkpt lat="48.56757" lon="-3.59803">
        <ele>175</ele>
        <time>2020-06-10T14:54:14Z</time>
      </trkpt>
      <trkpt lat="48.56758" lon="-3.59793">
        <ele>174.5</ele>
        <time>2020-06-10T14:54:15Z</time>
      </trkpt>
      <trkpt lat="48.56758" lon="-3.59784">
        <ele>174</ele>
        <time>2020-06-10T14:54:16Z</time>
      </trkpt>
      <trkpt lat="48.5676" lon="-3.59771">
        <ele>173.3</ele>
        <time>2020-06-10T14:54:17Z</time>
      </trkpt>
      <trkpt lat="48.56762" lon="-3.59758">
        <ele>172.4</ele>
        <time>2020-06-10T14:54:18Z</time>
      </trkpt>
      <trkpt lat="48.56764" lon="-3.59744">
        <ele>171.4</ele>
        <time>2020-06-10T14:54:19Z</time>
      </trkpt>
      <trkpt lat="48.56766" lon="-3.59729">
        <ele>170.3</ele>
        <time>2020-06-10T14:54:20Z</time>
      </trkpt>
      <trkpt lat="48.56767" lon="-3.59714">
        <ele>169.1</ele>
        <time>2020-06-10T14:54:21Z</time>
      </trkpt>
      <trkpt lat="48.56769" lon="-3.59698">
        <ele>167.8</ele>
        <time>2020-06-10T14:54:22Z</time>
      </trkpt>
      <trkpt lat="48.56771" lon="-3.59682">
        <ele>166.5</ele>
        <time>2020-06-10T14:54:23Z</time>
      </trkpt>
      <trkpt lat="48.56773" lon="-3.59665">
        <ele>165.2</ele>
        <time>2020-06-10T14:54:24Z</time>
      </trkpt>
      <trkpt lat="48.56775" lon="-3.59648">
        <ele>164.1</ele>
        <time>2020-06-10T14:54:25Z</time>
      </trkpt>
      <trkpt lat="48.56776" lon="-3.59631">
        <ele>163.3</ele>
        <time>2020-06-10T14:54:26Z</time>
      </trkpt>
      <trkpt lat="48.56778" lon="-3.59613">
        <ele>162.6</ele>
        <time>2020-06-10T14:54:27Z</time>
      </trkpt>
      <trkpt lat="48.56779" lon="-3.59595">
        <ele>161.9</ele>
        <time>2020-06-10T14:54:28Z</time>
      </trkpt>
      <trkpt lat="48.56779" lon="-3.59577">
        <ele>161.5</ele>
        <time>2020-06-10T14:54:29Z</time>
      </trkpt>
      <trkpt lat="48.56779" lon="-3.5956">
        <ele>161.2</ele>
        <time>2020-06-10T14:54:30Z</time>
      </trkpt>
      <trkpt lat="48.5678" lon="-3.59544">
        <ele>161.3</ele>
        <time>2020-06-10T14:54:31Z</time>
      </trkpt>
      <trkpt lat="48.5678" lon="-3.59528">
        <ele>161.4</ele>
        <time>2020-06-10T14:54:32Z</time>
      </trkpt>
      <trkpt lat="48.5678" lon="-3.59512">
        <ele>161.7</ele>
        <time>2020-06-10T14:54:33Z</time>
      </trkpt>
      <trkpt lat="48.5678" lon="-3.59497">
        <ele>162.1</ele>
        <time>2020-06-10T14:54:34Z</time>
      </trkpt>
      <trkpt lat="48.56779" lon="-3.59483">
        <ele>162.6</ele>
        <time>2020-06-10T14:54:35Z</time>
      </trkpt>
      <trkpt lat="48.5678" lon="-3.5947">
        <ele>163.2</ele>
        <time>2020-06-10T14:54:36Z</time>
      </trkpt>
      <trkpt lat="48.5678" lon="-3.59458">
        <ele>163.8</ele>
        <time>2020-06-10T14:54:37Z</time>
      </trkpt>
      <trkpt lat="48.56779" lon="-3.59446">
        <ele>164.4</ele>
        <time>2020-06-10T14:54:38Z</time>
      </trkpt>
      <trkpt lat="48.5678" lon="-3.59436">
        <ele>165</ele>
        <time>2020-06-10T14:54:39Z</time>
      </trkpt>
      <trkpt lat="48.5678" lon="-3.59425">
        <ele>165.6</ele>
        <time>2020-06-10T14:54:40Z</time>
      </trkpt>
      <trkpt lat="48.56779" lon="-3.59416">
        <ele>166.1</ele>
        <time>2020-06-10T14:54:41Z</time>
      </trkpt>
      <trkpt lat="48.56779" lon="-3.59407">
        <ele>166.7</ele>
        <time>2020-06-10T14:54:42Z</time>
      </trkpt>
      <trkpt lat="48.56779" lon="-3.59399">
        <ele>167.2</ele>
        <time>2020-06-10T14:54:43Z</time>
      </trkpt>
      <trkpt lat="48.56779" lon="-3.59391">
        <ele>167.7</ele>
        <time>2020-06-10T14:54:44Z</time>
      </trkpt>
      <trkpt lat="48.56778" lon="-3.59383">
        <ele>168.2</ele>
        <time>2020-06-10T14:54:45Z</time>
      </trkpt>
      <trkpt lat="48.56778" lon="-3.59376">
        <ele>168.6</ele>
        <time>2020-06-10T14:54:46Z</time>
      </trkpt>
      <trkpt lat="48.56778" lon="-3.59369">
        <ele>169</ele>
        <time>2020-06-10T14:54:47Z</time>
      </trkpt>
      <trkpt lat="48.56779" lon="-3.59362">
        <ele>169.5</ele>
        <time>2020-06-10T14:54:48Z</time>
      </trkpt>
      <trkpt lat="48.56779" lon="-3.59356">
        <ele>169.8</ele>
        <time>2020-06-10T14:54:49Z</time>
      </trkpt>
      <trkpt lat="48.56778" lon="-3.5935">
        <ele>170.1</ele>
        <time>2020-06-10T14:54:50Z</time>
      </trkpt>
      <trkpt lat="48.56778" lon="-3.59344">
        <ele>170.5</ele>
        <time>2020-06-10T14:54:51Z</time>
      </trkpt>
      <trkpt lat="48.56777" lon="-3.59337">
        <ele>170.8</ele>
        <time>2020-06-10T14:54:52Z</time>
      </trkpt>
      <trkpt lat="48.56776" lon="-3.59331">
        <ele>171.1</ele>
        <time>2020-06-10T14:54:53Z</time>
      </trkpt>
      <trkpt lat="48.56775" lon="-3.59325">
        <ele>171.4</ele>
        <time>2020-06-10T14:54:54Z</time>
      </trkpt>
      <trkpt lat="48.56774" lon="-3.5932">
        <ele>171.7</ele>
        <time>2020-06-10T14:54:55Z</time>
      </trkpt>
      <trkpt lat="48.56773" lon="-3.59314">
        <ele>172</ele>
        <time>2020-06-10T14:54:56Z</time>
      </trkpt>
      <trkpt lat="48.56771" lon="-3.59309">
        <ele>172.2</ele>
        <time>2020-06-10T14:54:57Z</time>
      </trkpt>
      <trkpt lat="48.5677" lon="-3.59304">
        <ele>172.4</ele>
        <time>2020-06-10T14:54:58Z</time>
      </trkpt>
      <trkpt lat="48.56769" lon="-3.59298">
        <ele>172.7</ele>
        <time>2020-06-10T14:54:59Z</time>
      </trkpt>
      <trkpt lat="48.56769" lon="-3.59293">
        <ele>172.9</ele>
        <time>2020-06-10T14:55:00Z</time>
      </trkpt>
      <trkpt lat="48.56768" lon="-3.59288">
        <ele>173.1</ele>
        <time>2020-06-10T14:55:01Z</time>
      </trkpt>
      <trkpt lat="48.56768" lon="-3.59282">
        <ele>173.4</ele>
        <time>2020-06-10T14:55:02Z</time>
      </trkpt>
      <trkpt lat="48.56768" lon="-3.59279">
        <ele>173.5</ele>
        <time>2020-06-10T14:55:03Z</time>
      </trkpt>
      <trkpt lat="48.56768" lon="-3.59275">
        <ele>173.7</ele>
        <time>2020-06-10T14:55:04Z</time>
      </trkpt>
      <trkpt lat="48.56767" lon="-3.5927">
        <ele>173.8</ele>
        <time>2020-06-10T14:55:05Z</time>
      </trkpt>
      <trkpt lat="48.56767" lon="-3.59265">
        <ele>174</ele>
        <time>2020-06-10T14:55:06Z</time>
      </trkpt>
      <trkpt lat="48.56767" lon="-3.59258">
        <ele>174.2</ele>
        <time>2020-06-10T14:55:07Z</time>
      </trkpt>
      <trkpt lat="48.56767" lon="-3.59253">
        <ele>174.4</ele>
        <time>2020-06-10T14:55:08Z</time>
      </trkpt>
      <trkpt lat="48.56767" lon="-3.59247">
        <ele>174.6</ele>
        <time>2020-06-10T14:55:09Z</time>
      </trkpt>
      <trkpt lat="48.56767" lon="-3.5924">
        <ele>174.9</ele>
        <time>2020-06-10T14:55:10Z</time>
      </trkpt>
      <trkpt lat="48.56766" lon="-3.59233">
        <ele>175.1</ele>
        <time>2020-06-10T14:55:11Z</time>
      </trkpt>
      <trkpt lat="48.56766" lon="-3.59226">
        <ele>175.3</ele>
        <time>2020-06-10T14:55:12Z</time>
      </trkpt>
      <trkpt lat="48.56765" lon="-3.59219">
        <ele>175.6</ele>
        <time>2020-06-10T14:55:13Z</time>
      </trkpt>
      <trkpt lat="48.56764" lon="-3.59213">
        <ele>175.7</ele>
        <time>2020-06-10T14:55:14Z</time>
      </trkpt>
      <trkpt lat="48.56765" lon="-3.59207">
        <ele>175.9</ele>
        <time>2020-06-10T14:55:15Z</time>
      </trkpt>
      <trkpt lat="48.56765" lon="-3.59201">
        <ele>176.2</ele>
        <time>2020-06-10T14:55:16Z</time>
      </trkpt>
      <trkpt lat="48.56764" lon="-3.59196">
        <ele>176.3</ele>
        <time>2020-06-10T14:55:17Z</time>
      </trkpt>
      <trkpt lat="48.56764" lon="-3.5919">
        <ele>176.6</ele>
        <time>2020-06-10T14:55:18Z</time>
      </trkpt>
      <trkpt lat="48.56764" lon="-3.59181">
        <ele>176.8</ele>
        <time>2020-06-10T14:55:19Z</time>
      </trkpt>
      <trkpt lat="48.56764" lon="-3.59177">
        <ele>177</ele>
        <time>2020-06-10T14:55:20Z</time>
      </trkpt>
      <trkpt lat="48.56764" lon="-3.5917">
        <ele>177.2</ele>
        <time>2020-06-10T14:55:21Z</time>
      </trkpt>
      <trkpt lat="48.56764" lon="-3.59164">
        <ele>177.4</ele>
        <time>2020-06-10T14:55:22Z</time>
      </trkpt>
      <trkpt lat="48.56764" lon="-3.59157">
        <ele>177.7</ele>
        <time>2020-06-10T14:55:23Z</time>
      </trkpt>
      <trkpt lat="48.56763" lon="-3.5915">
        <ele>178</ele>
        <time>2020-06-10T14:55:24Z</time>
      </trkpt>
      <trkpt lat="48.56764" lon="-3.59146">
        <ele>178.2</ele>
        <time>2020-06-10T14:55:25Z</time>
      </trkpt>
      <trkpt lat="48.56763" lon="-3.5914">
        <ele>178.4</ele>
        <time>2020-06-10T14:55:26Z</time>
      </trkpt>
      <trkpt lat="48.56763" lon="-3.59134">
        <ele>178.7</ele>
        <time>2020-06-10T14:55:27Z</time>
      </trkpt>
      <trkpt lat="48.56763" lon="-3.5913">
        <ele>178.9</ele>
        <time>2020-06-10T14:55:28Z</time>
      </trkpt>
      <trkpt lat="48.56762" lon="-3.59124">
        <ele>179.1</ele>
        <time>2020-06-10T14:55:29Z</time>
      </trkpt>
      <trkpt lat="48.56762" lon="-3.59119">
        <ele>179.4</ele>
        <time>2020-06-10T14:55:30Z</time>
      </trkpt>
      <trkpt lat="48.56762" lon="-3.59114">
        <ele>179.6</ele>
        <time>2020-06-10T14:55:31Z</time>
      </trkpt>
      <trkpt lat="48.56762" lon="-3.59108">
        <ele>179.9</ele>
        <time>2020-06-10T14:55:32Z</time>
      </trkpt>
      <trkpt lat="48.56762" lon="-3.59101">
        <ele>180.3</ele>
        <time>2020-06-10T14:55:33Z</time>
      </trkpt>
      <trkpt lat="48.56762" lon="-3.59095">
        <ele>180.6</ele>
        <time>2020-06-10T14:55:34Z</time>
      </trkpt>
      <trkpt lat="48.56762" lon="-3.59087">
        <ele>181.1</ele>
        <time>2020-06-10T14:55:35Z</time>
      </trkpt>
      <trkpt lat="48.56762" lon="-3.5908">
        <ele>181.4</ele>
        <time>2020-06-10T14:55:36Z</time>
      </trkpt>
      <trkpt lat="48.56762" lon="-3.59075">
        <ele>181.7</ele>
        <time>2020-06-10T14:55:37Z</time>
      </trkpt>
      <trkpt lat="48.56763" lon="-3.59071">
        <ele>181.9</ele>
        <time>2020-06-10T14:55:38Z</time>
      </trkpt>
      <trkpt lat="48.56764" lon="-3.59063">
        <ele>182.3</ele>
        <time>2020-06-10T14:55:39Z</time>
      </trkpt>
      <trkpt lat="48.56764" lon="-3.59058">
        <ele>182.6</ele>
        <time>2020-06-10T14:55:40Z</time>
      </trkpt>
      <trkpt lat="48.56764" lon="-3.59054">
        <ele>182.8</ele>
        <time>2020-06-10T14:55:41Z</time>
      </trkpt>
      <trkpt lat="48.56764" lon="-3.5905">
        <ele>183</ele>
        <time>2020-06-10T14:55:42Z</time>
      </trkpt>
      <trkpt lat="48.56764" lon="-3.59044">
        <ele>183.3</ele>
        <time>2020-06-10T14:55:43Z</time>
      </trkpt>
      <trkpt lat="48.56764" lon="-3.59038">
        <ele>183.6</ele>
        <time>2020-06-10T14:55:44Z</time>
      </trkpt>
      <trkpt lat="48.56764" lon="-3.59031">
        <ele>184</ele>
        <time>2020-06-10T14:55:45Z</time>
      </trkpt>
      <trkpt lat="48.56764" lon="-3.59027">
        <ele>184.3</ele>
        <time>2020-06-10T14:55:46Z</time>
      </trkpt>
      <trkpt lat="48.56765" lon="-3.59022">
        <ele>184.5</ele>
        <time>2020-06-10T14:55:47Z</time>
      </trkpt>
      <trkpt lat="48.56764" lon="-3.59018">
        <ele>184.8</ele>
        <time>2020-06-10T14:55:48Z</time>
      </trkpt>
      <trkpt lat="48.56764" lon="-3.59013">
        <ele>185</ele>
        <time>2020-06-10T14:55:49Z</time>
      </trkpt>
      <trkpt lat="48.56763" lon="-3.59007">
        <ele>185.3</ele>
        <time>2020-06-10T14:55:50Z</time>
      </trkpt>
      <trkpt lat="48.56763" lon="-3.59002">
        <ele>185.6</ele>
        <time>2020-06-10T14:55:51Z</time>
      </trkpt>
      <trkpt lat="48.56763" lon="-3.58996">
        <ele>185.9</ele>
        <time>2020-06-10T14:55:52Z</time>
      </trkpt>
      <trkpt lat="48.56763" lon="-3.58994">
        <ele>186</ele>
        <time>2020-06-10T14:55:53Z</time>
      </trkpt>
      <trkpt lat="48.56762" lon="-3.58988">
        <ele>186.3</ele>
        <time>2020-06-10T14:55:54Z</time>
      </trkpt>
      <trkpt lat="48.56762" lon="-3.58982">
        <ele>186.6</ele>
        <time>2020-06-10T14:55:55Z</time>
      </trkpt>
      <trkpt lat="48.56762" lon="-3.58977">
        <ele>186.9</ele>
        <time>2020-06-10T14:55:56Z</time>
      </trkpt>
      <trkpt lat="48.56762" lon="-3.58971">
        <ele>187.1</ele>
        <time>2020-06-10T14:55:57Z</time>
      </trkpt>
      <trkpt lat="48.56761" lon="-3.58965">
        <ele>187.4</ele>
        <time>2020-06-10T14:55:58Z</time>
      </trkpt>
      <trkpt lat="48.56762" lon="-3.58961">
        <ele>187.6</ele>
        <time>2020-06-10T14:55:59Z</time>
      </trkpt>
      <trkpt lat="48.56762" lon="-3.58956">
        <ele>187.8</ele>
        <time>2020-06-10T14:56:00Z</time>
      </trkpt>
      <trkpt lat="48.56761" lon="-3.58951">
        <ele>188</ele>
        <time>2020-06-10T14:56:01Z</time>
      </trkpt>
      <trkpt lat="48.56761" lon="-3.58946">
        <ele>188.2</ele>
        <time>2020-06-10T14:56:02Z</time>
      </trkpt>
      <trkpt lat="48.5676" lon="-3.5894">
        <ele>188.4</ele>
        <time>2020-06-10T14:56:03Z</time>
      </trkpt>
      <trkpt lat="48.5676" lon="-3.58935">
        <ele>188.6</ele>
        <time>2020-06-10T14:56:04Z</time>
      </trkpt>
      <trkpt lat="48.5676" lon="-3.58929">
        <ele>188.8</ele>
        <time>2020-06-10T14:56:05Z</time>
      </trkpt>
      <trkpt lat="48.5676" lon="-3.58922">
        <ele>189</ele>
        <time>2020-06-10T14:56:06Z</time>
      </trkpt>
      <trkpt lat="48.5676" lon="-3.5892">
        <ele>189.1</ele>
        <time>2020-06-10T14:56:07Z</time>
      </trkpt>
      <trkpt lat="48.5676" lon="-3.58915">
        <ele>189.2</ele>
        <time>2020-06-10T14:56:08Z</time>
      </trkpt>
      <trkpt lat="48.5676" lon="-3.58914">
        <ele>189.3</ele>
        <time>2020-06-10T14:56:09Z</time>
      </trkpt>
      <trkpt lat="48.56759" lon="-3.5891">
        <ele>189.4</ele>
        <time>2020-06-10T14:56:10Z</time>
      </trkpt>
      <trkpt lat="48.56759" lon="-3.58904">
        <ele>189.5</ele>
        <time>2020-06-10T14:56:11Z</time>
      </trkpt>
      <trkpt lat="48.56759" lon="-3.58902">
        <ele>189.5</ele>
        <time>2020-06-10T14:56:12Z</time>
      </trkpt>
      <trkpt lat="48.56759" lon="-3.58898">
        <ele>189.6</ele>
        <time>2020-06-10T14:56:13Z</time>
      </trkpt>
      <trkpt lat="48.56758" lon="-3.58892">
        <ele>189.6</ele>
        <time>2020-06-10T14:56:14Z</time>
      </trkpt>
      <trkpt lat="48.56758" lon="-3.5889">
        <ele>189.6</ele>
        <time>2020-06-10T14:56:15Z</time>
      </trkpt>
      <trkpt lat="48.56758" lon="-3.58883">
        <ele>189.6</ele>
        <time>2020-06-10T14:56:16Z</time>
      </trkpt>
      <trkpt lat="48.56758" lon="-3.5888">
        <ele>189.6</ele>
        <time>2020-06-10T14:56:17Z</time>
      </trkpt>
      <trkpt lat="48.56757" lon="-3.58876">
        <ele>189.6</ele>
        <time>2020-06-10T14:56:18Z</time>
      </trkpt>
      <trkpt lat="48.56756" lon="-3.58871">
        <ele>189.5</ele>
        <time>2020-06-10T14:56:19Z</time>
      </trkpt>
      <trkpt lat="48.56755" lon="-3.58866">
        <ele>189.5</ele>
        <time>2020-06-10T14:56:20Z</time>
      </trkpt>
      <trkpt lat="48.56755" lon="-3.58864">
        <ele>189.5</ele>
        <time>2020-06-10T14:56:21Z</time>
      </trkpt>
      <trkpt lat="48.56754" lon="-3.58859">
        <ele>189.4</ele>
        <time>2020-06-10T14:56:22Z</time>
      </trkpt>
      <trkpt lat="48.56755" lon="-3.58852">
        <ele>189.5</ele>
        <time>2020-06-10T14:56:23Z</time>
      </trkpt>
      <trkpt lat="48.56754" lon="-3.5885">
        <ele>189.6</ele>
        <time>2020-06-10T14:56:24Z</time>
      </trkpt>
      <trkpt lat="48.56754" lon="-3.58844">
        <ele>189.6</ele>
        <time>2020-06-10T14:56:25Z</time>
      </trkpt>
      <trkpt lat="48.56754" lon="-3.58843">
        <ele>189.6</ele>
        <time>2020-06-10T14:56:26Z</time>
      </trkpt>
      <trkpt lat="48.56753" lon="-3.58838">
        <ele>189.6</ele>
        <time>2020-06-10T14:56:27Z</time>
      </trkpt>
      <trkpt lat="48.56752" lon="-3.58831">
        <ele>189.7</ele>
        <time>2020-06-10T14:56:28Z</time>
      </trkpt>
      <trkpt lat="48.56752" lon="-3.58828">
        <ele>189.7</ele>
        <time>2020-06-10T14:56:29Z</time>
      </trkpt>
      <trkpt lat="48.56752" lon="-3.58822">
        <ele>189.6</ele>
        <time>2020-06-10T14:56:30Z</time>
      </trkpt>
      <trkpt lat="48.56751" lon="-3.58818">
        <ele>189.6</ele>
        <time>2020-06-10T14:56:31Z</time>
      </trkpt>
      <trkpt lat="48.5675" lon="-3.58814">
        <ele>189.5</ele>
        <time>2020-06-10T14:56:32Z</time>
      </trkpt>
      <trkpt lat="48.56749" lon="-3.58809">
        <ele>189.5</ele>
        <time>2020-06-10T14:56:33Z</time>
      </trkpt>
      <trkpt lat="48.56749" lon="-3.58804">
        <ele>189.4</ele>
        <time>2020-06-10T14:56:34Z</time>
      </trkpt>
      <trkpt lat="48.56748" lon="-3.588">
        <ele>189.4</ele>
        <time>2020-06-10T14:56:35Z</time>
      </trkpt>
      <trkpt lat="48.56748" lon="-3.58792">
        <ele>189.2</ele>
        <time>2020-06-10T14:56:36Z</time>
      </trkpt>
      <trkpt lat="48.56747" lon="-3.58784">
        <ele>189</ele>
        <time>2020-06-10T14:56:37Z</time>
      </trkpt>
      <trkpt lat="48.56746" lon="-3.58779">
        <ele>188.9</ele>
        <time>2020-06-10T14:56:38Z</time>
      </trkpt>
      <trkpt lat="48.56746" lon="-3.58772">
        <ele>188.7</ele>
        <time>2020-06-10T14:56:39Z</time>
      </trkpt>
      <trkpt lat="48.56746" lon="-3.58764">
        <ele>188.6</ele>
        <time>2020-06-10T14:56:40Z</time>
      </trkpt>
      <trkpt lat="48.56746" lon="-3.58756">
        <ele>188.4</ele>
        <time>2020-06-10T14:56:41Z</time>
      </trkpt>
      <trkpt lat="48.56746" lon="-3.58747">
        <ele>188.1</ele>
        <time>2020-06-10T14:56:42Z</time>
      </trkpt>
      <trkpt lat="48.56746" lon="-3.58739">
        <ele>187.9</ele>
        <time>2020-06-10T14:56:43Z</time>
      </trkpt>
      <trkpt lat="48.56745" lon="-3.5873">
        <ele>187.7</ele>
        <time>2020-06-10T14:56:44Z</time>
      </trkpt>
      <trkpt lat="48.56745" lon="-3.58721">
        <ele>187.4</ele>
        <time>2020-06-10T14:56:45Z</time>
      </trkpt>
      <trkpt lat="48.56744" lon="-3.5871">
        <ele>187</ele>
        <time>2020-06-10T14:56:46Z</time>
      </trkpt>
      <trkpt lat="48.56744" lon="-3.58697">
        <ele>186.5</ele>
        <time>2020-06-10T14:56:47Z</time>
      </trkpt>
      <trkpt lat="48.56744" lon="-3.58685">
        <ele>186</ele>
        <time>2020-06-10T14:56:48Z</time>
      </trkpt>
      <trkpt lat="48.56743" lon="-3.58672">
        <ele>185.5</ele>
        <time>2020-06-10T14:56:49Z</time>
      </trkpt>
      <trkpt lat="48.56742" lon="-3.58659">
        <ele>185</ele>
        <time>2020-06-10T14:56:50Z</time>
      </trkpt>
      <trkpt lat="48.56743" lon="-3.58645">
        <ele>184.4</ele>
        <time>2020-06-10T14:56:51Z</time>
      </trkpt>
      <trkpt lat="48.56742" lon="-3.58631">
        <ele>183.8</ele>
        <time>2020-06-10T14:56:52Z</time>
      </trkpt>
      <trkpt lat="48.56741" lon="-3.58617">
        <ele>183.2</ele>
        <time>2020-06-10T14:56:53Z</time>
      </trkpt>
      <trkpt lat="48.56741" lon="-3.58601">
        <ele>182.6</ele>
        <time>2020-06-10T14:56:54Z</time>
      </trkpt>
      <trkpt lat="48.5674" lon="-3.58585">
        <ele>182.2</ele>
        <time>2020-06-10T14:56:55Z</time>
      </trkpt>
      <trkpt lat="48.56739" lon="-3.58569">
        <ele>181.7</ele>
        <time>2020-06-10T14:56:56Z</time>
      </trkpt>
      <trkpt lat="48.56739" lon="-3.58553">
        <ele>181.3</ele>
        <time>2020-06-10T14:56:57Z</time>
      </trkpt>
      <trkpt lat="48.56738" lon="-3.58537">
        <ele>180.9</ele>
        <time>2020-06-10T14:56:58Z</time>
      </trkpt>
      <trkpt lat="48.56737" lon="-3.5852">
        <ele>180.6</ele>
        <time>2020-06-10T14:56:59Z</time>
      </trkpt>
      <trkpt lat="48.56736" lon="-3.58503">
        <ele>180.3</ele>
        <time>2020-06-10T14:57:00Z</time>
      </trkpt>
      <trkpt lat="48.56735" lon="-3.58486">
        <ele>180</ele>
        <time>2020-06-10T14:57:01Z</time>
      </trkpt>
      <trkpt lat="48.56734" lon="-3.5847">
        <ele>179.6</ele>
        <time>2020-06-10T14:57:02Z</time>
      </trkpt>
      <trkpt lat="48.56733" lon="-3.58452">
        <ele>179.3</ele>
        <time>2020-06-10T14:57:03Z</time>
      </trkpt>
      <trkpt lat="48.56732" lon="-3.58435">
        <ele>179</ele>
        <time>2020-06-10T14:57:04Z</time>
      </trkpt>
      <trkpt lat="48.56732" lon="-3.58418">
        <ele>178.6</ele>
        <time>2020-06-10T14:57:05Z</time>
      </trkpt>
      <trkpt lat="48.56731" lon="-3.58401">
        <ele>178.2</ele>
        <time>2020-06-10T14:57:06Z</time>
      </trkpt>
      <trkpt lat="48.5673" lon="-3.58383">
        <ele>177.7</ele>
        <time>2020-06-10T14:57:07Z</time>
      </trkpt>
      <trkpt lat="48.56729" lon="-3.58366">
        <ele>177.4</ele>
        <time>2020-06-10T14:57:08Z</time>
      </trkpt>
      <trkpt lat="48.56728" lon="-3.58347">
        <ele>177.2</ele>
        <time>2020-06-10T14:57:09Z</time>
      </trkpt>
      <trkpt lat="48.56727" lon="-3.58329">
        <ele>177</ele>
        <time>2020-06-10T14:57:10Z</time>
      </trkpt>
      <trkpt lat="48.56727" lon="-3.58311">
        <ele>176.9</ele>
        <time>2020-06-10T14:57:11Z</time>
      </trkpt>
      <trkpt lat="48.56726" lon="-3.58294">
        <ele>176.9</ele>
        <time>2020-06-10T14:57:12Z</time>
      </trkpt>
      <trkpt lat="48.56725" lon="-3.58276">
        <ele>177</ele>
        <time>2020-06-10T14:57:13Z</time>
      </trkpt>
      <trkpt lat="48.56723" lon="-3.58259">
        <ele>177.4</ele>
        <time>2020-06-10T14:57:14Z</time>
      </trkpt>
      <trkpt lat="48.56723" lon="-3.58242">
        <ele>177.9</ele>
        <time>2020-06-10T14:57:15Z</time>
      </trkpt>
      <trkpt lat="48.56722" lon="-3.58226">
        <ele>178.4</ele>
        <time>2020-06-10T14:57:16Z</time>
      </trkpt>
      <trkpt lat="48.56721" lon="-3.58211">
        <ele>179.1</ele>
        <time>2020-06-10T14:57:17Z</time>
      </trkpt>
      <trkpt lat="48.5672" lon="-3.58196">
        <ele>179.8</ele>
        <time>2020-06-10T14:57:18Z</time>
      </trkpt>
      <trkpt lat="48.56719" lon="-3.58181">
        <ele>180.6</ele>
        <time>2020-06-10T14:57:19Z</time>
      </trkpt>
      <trkpt lat="48.56718" lon="-3.58168">
        <ele>181.4</ele>
        <time>2020-06-10T14:57:20Z</time>
      </trkpt>
      <trkpt lat="48.56717" lon="-3.58155">
        <ele>182.2</ele>
        <time>2020-06-10T14:57:21Z</time>
      </trkpt>
      <trkpt lat="48.56715" lon="-3.58144">
        <ele>183</ele>
        <time>2020-06-10T14:57:22Z</time>
      </trkpt>
      <trkpt lat="48.56715" lon="-3.58133">
        <ele>183.7</ele>
        <time>2020-06-10T14:57:23Z</time>
      </trkpt>
      <trkpt lat="48.56714" lon="-3.58122">
        <ele>184.4</ele>
        <time>2020-06-10T14:57:24Z</time>
      </trkpt>
      <trkpt lat="48.56714" lon="-3.58113">
        <ele>185</ele>
        <time>2020-06-10T14:57:25Z</time>
      </trkpt>
      <trkpt lat="48.56714" lon="-3.58104">
        <ele>185.5</ele>
        <time>2020-06-10T14:57:26Z</time>
      </trkpt>
      <trkpt lat="48.56713" lon="-3.58095">
        <ele>186</ele>
        <time>2020-06-10T14:57:27Z</time>
      </trkpt>
      <trkpt lat="48.56712" lon="-3.58087">
        <ele>186.4</ele>
        <time>2020-06-10T14:57:28Z</time>
      </trkpt>
      <trkpt lat="48.56712" lon="-3.5808">
        <ele>186.8</ele>
        <time>2020-06-10T14:57:29Z</time>
      </trkpt>
      <trkpt lat="48.56712" lon="-3.58072">
        <ele>187.2</ele>
        <time>2020-06-10T14:57:30Z</time>
      </trkpt>
      <trkpt lat="48.56711" lon="-3.58066">
        <ele>187.5</ele>
        <time>2020-06-10T14:57:31Z</time>
      </trkpt>
      <trkpt lat="48.56711" lon="-3.58059">
        <ele>187.8</ele>
        <time>2020-06-10T14:57:32Z</time>
      </trkpt>
      <trkpt lat="48.5671" lon="-3.58053">
        <ele>188.1</ele>
        <time>2020-06-10T14:57:33Z</time>
      </trkpt>
      <trkpt lat="48.5671" lon="-3.58047">
        <ele>188.4</ele>
        <time>2020-06-10T14:57:34Z</time>
      </trkpt>
      <trkpt lat="48.5671" lon="-3.58041">
        <ele>188.6</ele>
        <time>2020-06-10T14:57:35Z</time>
      </trkpt>
      <trkpt lat="48.56709" lon="-3.58035">
        <ele>188.9</ele>
        <time>2020-06-10T14:57:36Z</time>
      </trkpt>
      <trkpt lat="48.56709" lon="-3.5803">
        <ele>189.1</ele>
        <time>2020-06-10T14:57:37Z</time>
      </trkpt>
      <trkpt lat="48.56708" lon="-3.58025">
        <ele>189.3</ele>
        <time>2020-06-10T14:57:38Z</time>
      </trkpt>
      <trkpt lat="48.56707" lon="-3.58019">
        <ele>189.4</ele>
        <time>2020-06-10T14:57:39Z</time>
      </trkpt>
      <trkpt lat="48.56707" lon="-3.58014">
        <ele>189.6</ele>
        <time>2020-06-10T14:57:40Z</time>
      </trkpt>
      <trkpt lat="48.56707" lon="-3.58009">
        <ele>189.7</ele>
        <time>2020-06-10T14:57:41Z</time>
      </trkpt>
      <trkpt lat="48.56706" lon="-3.58004">
        <ele>189.9</ele>
        <time>2020-06-10T14:57:42Z</time>
      </trkpt>
      <trkpt lat="48.56706" lon="-3.57998">
        <ele>190</ele>
        <time>2020-06-10T14:57:43Z</time>
      </trkpt>
      <trkpt lat="48.56706" lon="-3.57993">
        <ele>190.2</ele>
        <time>2020-06-10T14:57:44Z</time>
      </trkpt>
      <trkpt lat="48.56706" lon="-3.57988">
        <ele>190.3</ele>
        <time>2020-06-10T14:57:45Z</time>
      </trkpt>
      <trkpt lat="48.56706" lon="-3.57983">
        <ele>190.4</ele>
        <time>2020-06-10T14:57:46Z</time>
      </trkpt>
      <trkpt lat="48.56706" lon="-3.57978">
        <ele>190.5</ele>
        <time>2020-06-10T14:57:47Z</time>
      </trkpt>
      <trkpt lat="48.56705" lon="-3.57973">
        <ele>190.6</ele>
        <time>2020-06-10T14:57:48Z</time>
      </trkpt>
      <trkpt lat="48.56705" lon="-3.57969">
        <ele>190.7</ele>
        <time>2020-06-10T14:57:49Z</time>
      </trkpt>
      <trkpt lat="48.56705" lon="-3.57964">
        <ele>190.8</ele>
        <time>2020-06-10T14:57:50Z</time>
      </trkpt>
      <trkpt lat="48.56704" lon="-3.57959">
        <ele>190.9</ele>
        <time>2020-06-10T14:57:51Z</time>
      </trkpt>
      <trkpt lat="48.56704" lon="-3.57955">
        <ele>191</ele>
        <time>2020-06-10T14:57:52Z</time>
      </trkpt>
      <trkpt lat="48.56705" lon="-3.5795">
        <ele>191.1</ele>
        <time>2020-06-10T14:57:53Z</time>
      </trkpt>
      <trkpt lat="48.56704" lon="-3.57946">
        <ele>191.2</ele>
        <time>2020-06-10T14:57:54Z</time>
      </trkpt>
      <trkpt lat="48.56704" lon="-3.57942">
        <ele>191.2</ele>
        <time>2020-06-10T14:57:55Z</time>
      </trkpt>
      <trkpt lat="48.56704" lon="-3.57937">
        <ele>191.3</ele>
        <time>2020-06-10T14:57:56Z</time>
      </trkpt>
      <trkpt lat="48.56704" lon="-3.57933">
        <ele>191.4</ele>
        <time>2020-06-10T14:57:57Z</time>
      </trkpt>
      <trkpt lat="48.56704" lon="-3.57929">
        <ele>191.4</ele>
        <time>2020-06-10T14:57:58Z</time>
      </trkpt>
      <trkpt lat="48.56703" lon="-3.57924">
        <ele>191.5</ele>
        <time>2020-06-10T14:57:59Z</time>
      </trkpt>
      <trkpt lat="48.56704" lon="-3.5792">
        <ele>191.6</ele>
        <time>2020-06-10T14:58:00Z</time>
      </trkpt>
      <trkpt lat="48.56703" lon="-3.57914">
        <ele>191.6</ele>
        <time>2020-06-10T14:58:01Z</time>
      </trkpt>
      <trkpt lat="48.56703" lon="-3.57912">
        <ele>191.6</ele>
        <time>2020-06-10T14:58:02Z</time>
      </trkpt>
      <trkpt lat="48.56703" lon="-3.57909">
        <ele>191.7</ele>
        <time>2020-06-10T14:58:03Z</time>
      </trkpt>
      <trkpt lat="48.56704" lon="-3.57907">
        <ele>191.7</ele>
        <time>2020-06-10T14:58:04Z</time>
      </trkpt>
      <trkpt lat="48.56703" lon="-3.57906">
        <ele>191.7</ele>
        <time>2020-06-10T14:58:05Z</time>
      </trkpt>
      <trkpt lat="48.56702" lon="-3.57905">
        <ele>191.7</ele>
        <time>2020-06-10T14:58:06Z</time>
      </trkpt>
      <trkpt lat="48.56702" lon="-3.57905">
        <ele>191.7</ele>
        <time>2020-06-10T14:58:07Z</time>
      </trkpt>
      <trkpt lat="48.56701" lon="-3.57905">
        <ele>191.7</ele>
        <time>2020-06-10T14:58:08Z</time>
      </trkpt>
      <trkpt lat="48.56701" lon="-3.57904">
        <ele>191.7</ele>
        <time>2020-06-10T14:58:09Z</time>
      </trkpt>
      <trkpt lat="48.56701" lon="-3.57904">
        <ele>191.7</ele>
        <time>2020-06-10T14:58:10Z</time>
      </trkpt>
      <trkpt lat="48.567" lon="-3.57903">
        <ele>191.7</ele>
        <time>2020-06-10T14:58:11Z</time>
      </trkpt>
      <trkpt lat="48.567" lon="-3.57903">
        <ele>191.7</ele>
        <time>2020-06-10T14:58:12Z</time>
      </trkpt>
      <trkpt lat="48.567" lon="-3.57902">
        <ele>191.7</ele>
        <time>2020-06-10T14:58:13Z</time>
      </trkpt>
      <trkpt lat="48.56699" lon="-3.57902">
        <ele>191.7</ele>
        <time>2020-06-10T14:58:14Z</time>
      </trkpt>
      <trkpt lat="48.56699" lon="-3.57901">
        <ele>191.7</ele>
        <time>2020-06-10T14:58:15Z</time>
      </trkpt>
      <trkpt lat="48.56698" lon="-3.57901">
        <ele>191.7</ele>
        <time>2020-06-10T14:58:16Z</time>
      </trkpt>
      <trkpt lat="48.56698" lon="-3.579">
        <ele>191.7</ele>
        <time>2020-06-10T14:58:25Z</time>
      </trkpt>
      <trkpt lat="48.56698" lon="-3.579">
        <ele>191.7</ele>
        <time>2020-06-10T14:58:26Z</time>
      </trkpt>
      <trkpt lat="48.56697" lon="-3.579">
        <ele>191.7</ele>
        <time>2020-06-10T14:58:27Z</time>
      </trkpt>
      <trkpt lat="48.56698" lon="-3.57894">
        <ele>191.7</ele>
        <time>2020-06-10T14:58:28Z</time>
      </trkpt>
      <trkpt lat="48.56698" lon="-3.57892">
        <ele>191.7</ele>
        <time>2020-06-10T14:58:29Z</time>
      </trkpt>
      <trkpt lat="48.56698" lon="-3.57886">
        <ele>191.8</ele>
        <time>2020-06-10T14:58:30Z</time>
      </trkpt>
      <trkpt lat="48.56698" lon="-3.57884">
        <ele>191.8</ele>
        <time>2020-06-10T14:58:31Z</time>
      </trkpt>
      <trkpt lat="48.56699" lon="-3.57879">
        <ele>191.8</ele>
        <time>2020-06-10T14:58:32Z</time>
      </trkpt>
      <trkpt lat="48.567" lon="-3.57875">
        <ele>191.8</ele>
        <time>2020-06-10T14:58:33Z</time>
      </trkpt>
      <trkpt lat="48.567" lon="-3.5787">
        <ele>191.8</ele>
        <time>2020-06-10T14:58:34Z</time>
      </trkpt>
      <trkpt lat="48.567" lon="-3.57865">
        <ele>191.8</ele>
        <time>2020-06-10T14:58:35Z</time>
      </trkpt>
      <trkpt lat="48.567" lon="-3.57859">
        <ele>191.8</ele>
        <time>2020-06-10T14:58:36Z</time>
      </trkpt>
      <trkpt lat="48.567" lon="-3.57854">
        <ele>191.8</ele>
        <time>2020-06-10T14:58:37Z</time>
      </trkpt>
      <trkpt lat="48.567" lon="-3.57849">
        <ele>191.8</ele>
        <time>2020-06-10T14:58:38Z</time>
      </trkpt>
      <trkpt lat="48.567" lon="-3.57843">
        <ele>191.8</ele>
        <time>2020-06-10T14:58:39Z</time>
      </trkpt>
      <trkpt lat="48.567" lon="-3.57838">
        <ele>191.8</ele>
        <time>2020-06-10T14:58:40Z</time>
      </trkpt>
      <trkpt lat="48.567" lon="-3.57833">
        <ele>191.8</ele>
        <time>2020-06-10T14:58:41Z</time>
      </trkpt>
      <trkpt lat="48.56699" lon="-3.57828">
        <ele>191.8</ele>
        <time>2020-06-10T14:58:42Z</time>
      </trkpt>
      <trkpt lat="48.56699" lon="-3.57823">
        <ele>191.8</ele>
        <time>2020-06-10T14:58:43Z</time>
      </trkpt>
      <trkpt lat="48.56699" lon="-3.57818">
        <ele>191.8</ele>
        <time>2020-06-10T14:58:44Z</time>
      </trkpt>
      <trkpt lat="48.56698" lon="-3.57813">
        <ele>191.7</ele>
        <time>2020-06-10T14:58:45Z</time>
      </trkpt>
      <trkpt lat="48.56699" lon="-3.57807">
        <ele>191.7</ele>
        <time>2020-06-10T14:58:46Z</time>
      </trkpt>
      <trkpt lat="48.56698" lon="-3.57802">
        <ele>191.7</ele>
        <time>2020-06-10T14:58:47Z</time>
      </trkpt>
      <trkpt lat="48.56698" lon="-3.57796">
        <ele>191.7</ele>
        <time>2020-06-10T14:58:48Z</time>
      </trkpt>
      <trkpt lat="48.56698" lon="-3.57791">
        <ele>191.7</ele>
        <time>2020-06-10T14:58:49Z</time>
      </trkpt>
      <trkpt lat="48.56697" lon="-3.57785">
        <ele>191.6</ele>
        <time>2020-06-10T14:58:50Z</time>
      </trkpt>
      <trkpt lat="48.56696" lon="-3.57779">
        <ele>191.6</ele>
        <time>2020-06-10T14:58:51Z</time>
      </trkpt>
      <trkpt lat="48.56696" lon="-3.57774">
        <ele>191.6</ele>
        <time>2020-06-10T14:58:52Z</time>
      </trkpt>
      <trkpt lat="48.56696" lon="-3.57768">
        <ele>191.6</ele>
        <time>2020-06-10T14:58:53Z</time>
      </trkpt>
      <trkpt lat="48.56695" lon="-3.57761">
        <ele>191.6</ele>
        <time>2020-06-10T14:58:54Z</time>
      </trkpt>
      <trkpt lat="48.56695" lon="-3.57754">
        <ele>191.5</ele>
        <time>2020-06-10T14:58:55Z</time>
      </trkpt>
      <trkpt lat="48.56694" lon="-3.57747">
        <ele>191.5</ele>
        <time>2020-06-10T14:58:56Z</time>
      </trkpt>
      <trkpt lat="48.56694" lon="-3.57739">
        <ele>191.5</ele>
        <time>2020-06-10T14:58:57Z</time>
      </trkpt>
      <trkpt lat="48.56694" lon="-3.57732">
        <ele>191.5</ele>
        <time>2020-06-10T14:58:58Z</time>
      </trkpt>
      <trkpt lat="48.56694" lon="-3.57724">
        <ele>191.6</ele>
        <time>2020-06-10T14:58:59Z</time>
      </trkpt>
      <trkpt lat="48.56693" lon="-3.57716">
        <ele>191.5</ele>
        <time>2020-06-10T14:59:00Z</time>
      </trkpt>
      <trkpt lat="48.56693" lon="-3.57708">
        <ele>191.5</ele>
        <time>2020-06-10T14:59:01Z</time>
      </trkpt>
      <trkpt lat="48.56693" lon="-3.577">
        <ele>191.5</ele>
        <time>2020-06-10T14:59:02Z</time>
      </trkpt>
      <trkpt lat="48.56694" lon="-3.57692">
        <ele>191.5</ele>
        <time>2020-06-10T14:59:03Z</time>
      </trkpt>
      <trkpt lat="48.56695" lon="-3.57685">
        <ele>191.6</ele>
        <time>2020-06-10T14:59:04Z</time>
      </trkpt>
      <trkpt lat="48.56695" lon="-3.57677">
        <ele>191.6</ele>
        <time>2020-06-10T14:59:05Z</time>
      </trkpt>
      <trkpt lat="48.56695" lon="-3.5767">
        <ele>191.7</ele>
        <time>2020-06-10T14:59:06Z</time>
      </trkpt>
      <trkpt lat="48.56694" lon="-3.57662">
        <ele>191.7</ele>
        <time>2020-06-10T14:59:07Z</time>
      </trkpt>
      <trkpt lat="48.56694" lon="-3.57655">
        <ele>191.8</ele>
        <time>2020-06-10T14:59:08Z</time>
      </trkpt>
      <trkpt lat="48.56692" lon="-3.57647">
        <ele>191.9</ele>
        <time>2020-06-10T14:59:09Z</time>
      </trkpt>
      <trkpt lat="48.56691" lon="-3.5764">
        <ele>192</ele>
        <time>2020-06-10T14:59:10Z</time>
      </trkpt>
      <trkpt lat="48.56691" lon="-3.57632">
        <ele>192.1</ele>
        <time>2020-06-10T14:59:11Z</time>
      </trkpt>
      <trkpt lat="48.5669" lon="-3.57624">
        <ele>192.2</ele>
        <time>2020-06-10T14:59:12Z</time>
      </trkpt>
      <trkpt lat="48.5669" lon="-3.57616">
        <ele>192.2</ele>
        <time>2020-06-10T14:59:13Z</time>
      </trkpt>
      <trkpt lat="48.5669" lon="-3.57608">
        <ele>192.3</ele>
        <time>2020-06-10T14:59:14Z</time>
      </trkpt>
      <trkpt lat="48.5669" lon="-3.576">
        <ele>192.4</ele>
        <time>2020-06-10T14:59:15Z</time>
      </trkpt>
      <trkpt lat="48.5669" lon="-3.57592">
        <ele>192.4</ele>
        <time>2020-06-10T14:59:16Z</time>
      </trkpt>
      <trkpt lat="48.5669" lon="-3.57585">
        <ele>192.5</ele>
        <time>2020-06-10T14:59:17Z</time>
      </trkpt>
      <trkpt lat="48.56689" lon="-3.57577">
        <ele>192.6</ele>
        <time>2020-06-10T14:59:18Z</time>
      </trkpt>
      <trkpt lat="48.56688" lon="-3.5757">
        <ele>192.7</ele>
        <time>2020-06-10T14:59:19Z</time>
      </trkpt>
      <trkpt lat="48.56687" lon="-3.57563">
        <ele>192.8</ele>
        <time>2020-06-10T14:59:20Z</time>
      </trkpt>
      <trkpt lat="48.56687" lon="-3.57556">
        <ele>192.9</ele>
        <time>2020-06-10T14:59:21Z</time>
      </trkpt>
      <trkpt lat="48.56686" lon="-3.57549">
        <ele>193</ele>
        <time>2020-06-10T14:59:22Z</time>
      </trkpt>
      <trkpt lat="48.56686" lon="-3.57541">
        <ele>193.1</ele>
        <time>2020-06-10T14:59:23Z</time>
      </trkpt>
      <trkpt lat="48.56685" lon="-3.57533">
        <ele>193.2</ele>
        <time>2020-06-10T14:59:24Z</time>
      </trkpt>
      <trkpt lat="48.56684" lon="-3.57525">
        <ele>193.3</ele>
        <time>2020-06-10T14:59:25Z</time>
      </trkpt>
      <trkpt lat="48.56684" lon="-3.57517">
        <ele>193.4</ele>
        <time>2020-06-10T14:59:26Z</time>
      </trkpt>
      <trkpt lat="48.56684" lon="-3.5751">
        <ele>193.5</ele>
        <time>2020-06-10T14:59:27Z</time>
      </trkpt>
      <trkpt lat="48.56685" lon="-3.57502">
        <ele>193.6</ele>
        <time>2020-06-10T14:59:28Z</time>
      </trkpt>
      <trkpt lat="48.56684" lon="-3.57494">
        <ele>193.7</ele>
        <time>2020-06-10T14:59:29Z</time>
      </trkpt>
      <trkpt lat="48.56684" lon="-3.57487">
        <ele>193.8</ele>
        <time>2020-06-10T14:59:30Z</time>
      </trkpt>
      <trkpt lat="48.56683" lon="-3.5748">
        <ele>194</ele>
        <time>2020-06-10T14:59:31Z</time>
      </trkpt>
      <trkpt lat="48.56683" lon="-3.57473">
        <ele>194.1</ele>
        <time>2020-06-10T14:59:32Z</time>
      </trkpt>
      <trkpt lat="48.56683" lon="-3.57466">
        <ele>194.2</ele>
        <time>2020-06-10T14:59:33Z</time>
      </trkpt>
      <trkpt lat="48.56683" lon="-3.57459">
        <ele>194.3</ele>
        <time>2020-06-10T14:59:34Z</time>
      </trkpt>
      <trkpt lat="48.56683" lon="-3.57452">
        <ele>194.3</ele>
        <time>2020-06-10T14:59:35Z</time>
      </trkpt>
      <trkpt lat="48.56683" lon="-3.57446">
        <ele>194.4</ele>
        <time>2020-06-10T14:59:36Z</time>
      </trkpt>
      <trkpt lat="48.56683" lon="-3.57439">
        <ele>194.4</ele>
        <time>2020-06-10T14:59:37Z</time>
      </trkpt>
      <trkpt lat="48.56683" lon="-3.57432">
        <ele>194.5</ele>
        <time>2020-06-10T14:59:38Z</time>
      </trkpt>
      <trkpt lat="48.56682" lon="-3.57426">
        <ele>194.5</ele>
        <time>2020-06-10T14:59:39Z</time>
      </trkpt>
      <trkpt lat="48.56682" lon="-3.5742">
        <ele>194.5</ele>
        <time>2020-06-10T14:59:40Z</time>
      </trkpt>
      <trkpt lat="48.56681" lon="-3.57414">
        <ele>194.5</ele>
        <time>2020-06-10T14:59:41Z</time>
      </trkpt>
      <trkpt lat="48.5668" lon="-3.57408">
        <ele>194.5</ele>
        <time>2020-06-10T14:59:42Z</time>
      </trkpt>
      <trkpt lat="48.5668" lon="-3.57403">
        <ele>194.5</ele>
        <time>2020-06-10T14:59:43Z</time>
      </trkpt>
      <trkpt lat="48.56679" lon="-3.57397">
        <ele>194.5</ele>
        <time>2020-06-10T14:59:44Z</time>
      </trkpt>
      <trkpt lat="48.56678" lon="-3.57391">
        <ele>194.5</ele>
        <time>2020-06-10T14:59:45Z</time>
      </trkpt>
      <trkpt lat="48.56678" lon="-3.57385">
        <ele>194.5</ele>
        <time>2020-06-10T14:59:46Z</time>
      </trkpt>
      <trkpt lat="48.56677" lon="-3.5738">
        <ele>194.5</ele>
        <time>2020-06-10T14:59:47Z</time>
      </trkpt>
      <trkpt lat="48.56677" lon="-3.57374">
        <ele>194.4</ele>
        <time>2020-06-10T14:59:48Z</time>
      </trkpt>
      <trkpt lat="48.56676" lon="-3.57368">
        <ele>194.4</ele>
        <time>2020-06-10T14:59:49Z</time>
      </trkpt>
      <trkpt lat="48.56675" lon="-3.57362">
        <ele>194.3</ele>
        <time>2020-06-10T14:59:50Z</time>
      </trkpt>
      <trkpt lat="48.56675" lon="-3.57356">
        <ele>194.2</ele>
        <time>2020-06-10T14:59:51Z</time>
      </trkpt>
      <trkpt lat="48.56675" lon="-3.5735">
        <ele>194.1</ele>
        <time>2020-06-10T14:59:52Z</time>
      </trkpt>
      <trkpt lat="48.56674" lon="-3.57344">
        <ele>194</ele>
        <time>2020-06-10T14:59:53Z</time>
      </trkpt>
      <trkpt lat="48.56673" lon="-3.57338">
        <ele>193.9</ele>
        <time>2020-06-10T14:59:54Z</time>
      </trkpt>
      <trkpt lat="48.56673" lon="-3.57332">
        <ele>193.8</ele>
        <time>2020-06-10T14:59:55Z</time>
      </trkpt>
      <trkpt lat="48.56672" lon="-3.57327">
        <ele>193.8</ele>
        <time>2020-06-10T14:59:56Z</time>
      </trkpt>
      <trkpt lat="48.56671" lon="-3.57323">
        <ele>193.7</ele>
        <time>2020-06-10T14:59:57Z</time>
      </trkpt>
      <trkpt lat="48.56671" lon="-3.57319">
        <ele>193.6</ele>
        <time>2020-06-10T14:59:58Z</time>
      </trkpt>
      <trkpt lat="48.56671" lon="-3.57316">
        <ele>193.6</ele>
        <time>2020-06-10T14:59:59Z</time>
      </trkpt>
      <trkpt lat="48.56671" lon="-3.57314">
        <ele>193.5</ele>
        <time>2020-06-10T15:00:00Z</time>
      </trkpt>
      <trkpt lat="48.56671" lon="-3.57314">
        <ele>193.5</ele>
        <time>2020-06-10T15:00:01Z</time>
      </trkpt>
      <trkpt lat="48.56671" lon="-3.57314">
        <ele>193.5</ele>
        <time>2020-06-10T15:00:02Z</time>
      </trkpt>
      <trkpt lat="48.5667" lon="-3.57314">
        <ele>193.5</ele>
        <time>2020-06-10T15:00:03Z</time>
      </trkpt>
      <trkpt lat="48.5667" lon="-3.57314">
        <ele>193.5</ele>
        <time>2020-06-10T15:00:04Z</time>
      </trkpt>
      <trkpt lat="48.5667" lon="-3.57313">
        <ele>193.5</ele>
        <time>2020-06-10T15:00:05Z</time>
      </trkpt>
      <trkpt lat="48.5667" lon="-3.57313">
        <ele>193.5</ele>
        <time>2020-06-10T15:00:06Z</time>
      </trkpt>
      <trkpt lat="48.5667" lon="-3.57313">
        <ele>193.5</ele>
        <time>2020-06-10T15:00:07Z</time>
      </trkpt>
      <trkpt lat="48.5667" lon="-3.57313">
        <ele>193.5</ele>
        <time>2020-06-10T15:00:08Z</time>
      </trkpt>
      <trkpt lat="48.5667" lon="-3.57313">
        <ele>193.5</ele>
        <time>2020-06-10T15:00:09Z</time>
      </trkpt>
      <trkpt lat="48.56669" lon="-3.57313">
        <ele>193.5</ele>
        <time>2020-06-10T15:00:10Z</time>
      </trkpt>
      <trkpt lat="48.56669" lon="-3.57312">
        <ele>193.5</ele>
        <time>2020-06-10T15:00:11Z</time>
      </trkpt>
      <trkpt lat="48.56675" lon="-3.57301">
        <ele>193.2</ele>
        <time>2020-06-10T15:00:47Z</time>
      </trkpt>
      <trkpt lat="48.56674" lon="-3.57296">
        <ele>193.1</ele>
        <time>2020-06-10T15:00:48Z</time>
      </trkpt>
      <trkpt lat="48.56673" lon="-3.57291">
        <ele>193</ele>
        <time>2020-06-10T15:00:49Z</time>
      </trkpt>
      <trkpt lat="48.56673" lon="-3.57285">
        <ele>192.9</ele>
        <time>2020-06-10T15:00:50Z</time>
      </trkpt>
      <trkpt lat="48.56673" lon="-3.57278">
        <ele>192.8</ele>
        <time>2020-06-10T15:00:51Z</time>
      </trkpt>
      <trkpt lat="48.56673" lon="-3.57272">
        <ele>192.6</ele>
        <time>2020-06-10T15:00:52Z</time>
      </trkpt>
      <trkpt lat="48.56673" lon="-3.57265">
        <ele>192.5</ele>
        <time>2020-06-10T15:00:53Z</time>
      </trkpt>
      <trkpt lat="48.56673" lon="-3.57258">
        <ele>192.3</ele>
        <time>2020-06-10T15:00:54Z</time>
      </trkpt>
      <trkpt lat="48.56673" lon="-3.5725">
        <ele>192.1</ele>
        <time>2020-06-10T15:00:55Z</time>
      </trkpt>
      <trkpt lat="48.56673" lon="-3.57242">
        <ele>191.9</ele>
        <time>2020-06-10T15:00:56Z</time>
      </trkpt>
      <trkpt lat="48.56673" lon="-3.57233">
        <ele>191.6</ele>
        <time>2020-06-10T15:00:57Z</time>
      </trkpt>
      <trkpt lat="48.56673" lon="-3.57224">
        <ele>191.3</ele>
        <time>2020-06-10T15:00:58Z</time>
      </trkpt>
      <trkpt lat="48.56673" lon="-3.57214">
        <ele>191</ele>
        <time>2020-06-10T15:00:59Z</time>
      </trkpt>
      <trkpt lat="48.56673" lon="-3.57204">
        <ele>190.6</ele>
        <time>2020-06-10T15:01:00Z</time>
      </trkpt>
      <trkpt lat="48.56674" lon="-3.57194">
        <ele>190.2</ele>
        <time>2020-06-10T15:01:01Z</time>
      </trkpt>
      <trkpt lat="48.56674" lon="-3.57183">
        <ele>189.8</ele>
        <time>2020-06-10T15:01:02Z</time>
      </trkpt>
      <trkpt lat="48.56675" lon="-3.57172">
        <ele>189.4</ele>
        <time>2020-06-10T15:01:03Z</time>
      </trkpt>
      <trkpt lat="48.56676" lon="-3.5716">
        <ele>188.9</ele>
        <time>2020-06-10T15:01:04Z</time>
      </trkpt>
      <trkpt lat="48.56677" lon="-3.57147">
        <ele>188.5</ele>
        <time>2020-06-10T15:01:05Z</time>
      </trkpt>
      <trkpt lat="48.56677" lon="-3.57135">
        <ele>188.1</ele>
        <time>2020-06-10T15:01:06Z</time>
      </trkpt>
      <trkpt lat="48.56678" lon="-3.57121">
        <ele>187.6</ele>
        <time>2020-06-10T15:01:07Z</time>
      </trkpt>
      <trkpt lat="48.56678" lon="-3.57108">
        <ele>187.2</ele>
        <time>2020-06-10T15:01:08Z</time>
      </trkpt>
      <trkpt lat="48.56678" lon="-3.57094">
        <ele>186.7</ele>
        <time>2020-06-10T15:01:09Z</time>
      </trkpt>
      <trkpt lat="48.56678" lon="-3.5708">
        <ele>186.2</ele>
        <time>2020-06-10T15:01:10Z</time>
      </trkpt>
      <trkpt lat="48.56678" lon="-3.57066">
        <ele>185.8</ele>
        <time>2020-06-10T15:01:11Z</time>
      </trkpt>
      <trkpt lat="48.56677" lon="-3.57051">
        <ele>185.3</ele>
        <time>2020-06-10T15:01:12Z</time>
      </trkpt>
      <trkpt lat="48.56676" lon="-3.57037">
        <ele>184.9</ele>
        <time>2020-06-10T15:01:13Z</time>
      </trkpt>
      <trkpt lat="48.56676" lon="-3.57022">
        <ele>184.5</ele>
        <time>2020-06-10T15:01:14Z</time>
      </trkpt>
      <trkpt lat="48.56675" lon="-3.57007">
        <ele>184.1</ele>
        <time>2020-06-10T15:01:15Z</time>
      </trkpt>
      <trkpt lat="48.56674" lon="-3.56992">
        <ele>183.6</ele>
        <time>2020-06-10T15:01:16Z</time>
      </trkpt>
      <trkpt lat="48.56673" lon="-3.56977">
        <ele>183.2</ele>
        <time>2020-06-10T15:01:17Z</time>
      </trkpt>
      <trkpt lat="48.56671" lon="-3.56962">
        <ele>182.6</ele>
        <time>2020-06-10T15:01:18Z</time>
      </trkpt>
      <trkpt lat="48.56667" lon="-3.56948">
        <ele>182.1</ele>
        <time>2020-06-10T15:01:19Z</time>
      </trkpt>
      <trkpt lat="48.56664" lon="-3.56933">
        <ele>181.6</ele>
        <time>2020-06-10T15:01:20Z</time>
      </trkpt>
      <trkpt lat="48.56661" lon="-3.56918">
        <ele>181.1</ele>
        <time>2020-06-10T15:01:21Z</time>
      </trkpt>
      <trkpt lat="48.56658" lon="-3.56903">
        <ele>180.6</ele>
        <time>2020-06-10T15:01:22Z</time>
      </trkpt>
      <trkpt lat="48.56655" lon="-3.56888">
        <ele>180.2</ele>
        <time>2020-06-10T15:01:23Z</time>
      </trkpt>
      <trkpt lat="48.56652" lon="-3.56872">
        <ele>179.7</ele>
        <time>2020-06-10T15:01:24Z</time>
      </trkpt>
      <trkpt lat="48.56648" lon="-3.56857">
        <ele>179.2</ele>
        <time>2020-06-10T15:01:25Z</time>
      </trkpt>
      <trkpt lat="48.56645" lon="-3.56842">
        <ele>178.8</ele>
        <time>2020-06-10T15:01:26Z</time>
      </trkpt>
      <trkpt lat="48.56642" lon="-3.56826">
        <ele>178.4</ele>
        <time>2020-06-10T15:01:27Z</time>
      </trkpt>
      <trkpt lat="48.5664" lon="-3.56811">
        <ele>178.1</ele>
        <time>2020-06-10T15:01:28Z</time>
      </trkpt>
      <trkpt lat="48.56637" lon="-3.56795">
        <ele>177.8</ele>
        <time>2020-06-10T15:01:29Z</time>
      </trkpt>
      <trkpt lat="48.56635" lon="-3.56779">
        <ele>177.6</ele>
        <time>2020-06-10T15:01:30Z</time>
      </trkpt>
      <trkpt lat="48.56634" lon="-3.56764">
        <ele>177.5</ele>
        <time>2020-06-10T15:01:31Z</time>
      </trkpt>
      <trkpt lat="48.56632" lon="-3.56748">
        <ele>177.5</ele>
        <time>2020-06-10T15:01:32Z</time>
      </trkpt>
      <trkpt lat="48.56632" lon="-3.56733">
        <ele>177.4</ele>
        <time>2020-06-10T15:01:33Z</time>
      </trkpt>
      <trkpt lat="48.56631" lon="-3.56719">
        <ele>177.4</ele>
        <time>2020-06-10T15:01:34Z</time>
      </trkpt>
      <trkpt lat="48.56632" lon="-3.56704">
        <ele>177.3</ele>
        <time>2020-06-10T15:01:35Z</time>
      </trkpt>
      <trkpt lat="48.56632" lon="-3.5669">
        <ele>177.3</ele>
        <time>2020-06-10T15:01:36Z</time>
      </trkpt>
      <trkpt lat="48.56634" lon="-3.56677">
        <ele>177.2</ele>
        <time>2020-06-10T15:01:37Z</time>
      </trkpt>
      <trkpt lat="48.56635" lon="-3.56663">
        <ele>177.2</ele>
        <time>2020-06-10T15:01:38Z</time>
      </trkpt>
      <trkpt lat="48.56637" lon="-3.5665">
        <ele>177.2</ele>
        <time>2020-06-10T15:01:39Z</time>
      </trkpt>
      <trkpt lat="48.56638" lon="-3.56637">
        <ele>177.2</ele>
        <time>2020-06-10T15:01:40Z</time>
      </trkpt>
      <trkpt lat="48.56641" lon="-3.56625">
        <ele>177.2</ele>
        <time>2020-06-10T15:01:41Z</time>
      </trkpt>
      <trkpt lat="48.56643" lon="-3.56612">
        <ele>177.3</ele>
        <time>2020-06-10T15:01:42Z</time>
      </trkpt>
      <trkpt lat="48.56645" lon="-3.566">
        <ele>177.4</ele>
        <time>2020-06-10T15:01:43Z</time>
      </trkpt>
      <trkpt lat="48.56648" lon="-3.56589">
        <ele>177.4</ele>
        <time>2020-06-10T15:01:44Z</time>
      </trkpt>
      <trkpt lat="48.56651" lon="-3.56579">
        <ele>177.5</ele>
        <time>2020-06-10T15:01:45Z</time>
      </trkpt>
      <trkpt lat="48.56655" lon="-3.56569">
        <ele>177.6</ele>
        <time>2020-06-10T15:01:46Z</time>
      </trkpt>
      <trkpt lat="48.56658" lon="-3.5656">
        <ele>177.7</ele>
        <time>2020-06-10T15:01:47Z</time>
      </trkpt>
      <trkpt lat="48.56661" lon="-3.56552">
        <ele>177.7</ele>
        <time>2020-06-10T15:01:48Z</time>
      </trkpt>
      <trkpt lat="48.56664" lon="-3.56543">
        <ele>177.7</ele>
        <time>2020-06-10T15:01:49Z</time>
      </trkpt>
      <trkpt lat="48.56667" lon="-3.56534">
        <ele>177.7</ele>
        <time>2020-06-10T15:01:50Z</time>
      </trkpt>
      <trkpt lat="48.56669" lon="-3.56524">
        <ele>177.7</ele>
        <time>2020-06-10T15:01:51Z</time>
      </trkpt>
      <trkpt lat="48.56672" lon="-3.56515">
        <ele>177.8</ele>
        <time>2020-06-10T15:01:52Z</time>
      </trkpt>
      <trkpt lat="48.56674" lon="-3.56506">
        <ele>177.8</ele>
        <time>2020-06-10T15:01:53Z</time>
      </trkpt>
      <trkpt lat="48.56676" lon="-3.56497">
        <ele>177.8</ele>
        <time>2020-06-10T15:01:54Z</time>
      </trkpt>
      <trkpt lat="48.56678" lon="-3.56489">
        <ele>177.9</ele>
        <time>2020-06-10T15:01:55Z</time>
      </trkpt>
      <trkpt lat="48.56679" lon="-3.56479">
        <ele>177.9</ele>
        <time>2020-06-10T15:01:56Z</time>
      </trkpt>
      <trkpt lat="48.56681" lon="-3.5647">
        <ele>177.9</ele>
        <time>2020-06-10T15:01:57Z</time>
      </trkpt>
      <trkpt lat="48.56682" lon="-3.5646">
        <ele>177.9</ele>
        <time>2020-06-10T15:01:58Z</time>
      </trkpt>
      <trkpt lat="48.56684" lon="-3.56451">
        <ele>177.9</ele>
        <time>2020-06-10T15:01:59Z</time>
      </trkpt>
      <trkpt lat="48.56686" lon="-3.56442">
        <ele>177.9</ele>
        <time>2020-06-10T15:02:00Z</time>
      </trkpt>
      <trkpt lat="48.56687" lon="-3.56432">
        <ele>177.9</ele>
        <time>2020-06-10T15:02:01Z</time>
      </trkpt>
      <trkpt lat="48.56689" lon="-3.56423">
        <ele>177.9</ele>
        <time>2020-06-10T15:02:02Z</time>
      </trkpt>
      <trkpt lat="48.5669" lon="-3.56413">
        <ele>177.9</ele>
        <time>2020-06-10T15:02:03Z</time>
      </trkpt>
      <trkpt lat="48.56692" lon="-3.56404">
        <ele>177.9</ele>
        <time>2020-06-10T15:02:04Z</time>
      </trkpt>
      <trkpt lat="48.56693" lon="-3.56395">
        <ele>177.8</ele>
        <time>2020-06-10T15:02:05Z</time>
      </trkpt>
      <trkpt lat="48.56695" lon="-3.56386">
        <ele>177.8</ele>
        <time>2020-06-10T15:02:06Z</time>
      </trkpt>
      <trkpt lat="48.56697" lon="-3.56376">
        <ele>177.8</ele>
        <time>2020-06-10T15:02:07Z</time>
      </trkpt>
      <trkpt lat="48.56698" lon="-3.56367">
        <ele>177.8</ele>
        <time>2020-06-10T15:02:08Z</time>
      </trkpt>
      <trkpt lat="48.56699" lon="-3.56358">
        <ele>177.8</ele>
        <time>2020-06-10T15:02:09Z</time>
      </trkpt>
      <trkpt lat="48.567" lon="-3.56349">
        <ele>177.8</ele>
        <time>2020-06-10T15:02:10Z</time>
      </trkpt>
      <trkpt lat="48.56701" lon="-3.5634">
        <ele>177.8</ele>
        <time>2020-06-10T15:02:11Z</time>
      </trkpt>
      <trkpt lat="48.56702" lon="-3.56331">
        <ele>177.8</ele>
        <time>2020-06-10T15:02:12Z</time>
      </trkpt>
      <trkpt lat="48.56704" lon="-3.56322">
        <ele>177.8</ele>
        <time>2020-06-10T15:02:13Z</time>
      </trkpt>
      <trkpt lat="48.56705" lon="-3.56313">
        <ele>177.8</ele>
        <time>2020-06-10T15:02:14Z</time>
      </trkpt>
      <trkpt lat="48.56706" lon="-3.56304">
        <ele>177.8</ele>
        <time>2020-06-10T15:02:15Z</time>
      </trkpt>
      <trkpt lat="48.56707" lon="-3.56295">
        <ele>177.9</ele>
        <time>2020-06-10T15:02:16Z</time>
      </trkpt>
      <trkpt lat="48.56708" lon="-3.56287">
        <ele>177.9</ele>
        <time>2020-06-10T15:02:17Z</time>
      </trkpt>
      <trkpt lat="48.5671" lon="-3.56278">
        <ele>177.9</ele>
        <time>2020-06-10T15:02:18Z</time>
      </trkpt>
      <trkpt lat="48.5671" lon="-3.56269">
        <ele>177.9</ele>
        <time>2020-06-10T15:02:19Z</time>
      </trkpt>
      <trkpt lat="48.5671" lon="-3.5626">
        <ele>177.9</ele>
        <time>2020-06-10T15:02:20Z</time>
      </trkpt>
      <trkpt lat="48.56711" lon="-3.56252">
        <ele>177.9</ele>
        <time>2020-06-10T15:02:21Z</time>
      </trkpt>
      <trkpt lat="48.56711" lon="-3.56244">
        <ele>177.9</ele>
        <time>2020-06-10T15:02:22Z</time>
      </trkpt>
      <trkpt lat="48.56712" lon="-3.56236">
        <ele>177.9</ele>
        <time>2020-06-10T15:02:23Z</time>
      </trkpt>
      <trkpt lat="48.56713" lon="-3.56228">
        <ele>177.9</ele>
        <time>2020-06-10T15:02:24Z</time>
      </trkpt>
      <trkpt lat="48.56714" lon="-3.5622">
        <ele>178</ele>
        <time>2020-06-10T15:02:25Z</time>
      </trkpt>
      <trkpt lat="48.56715" lon="-3.56212">
        <ele>178</ele>
        <time>2020-06-10T15:02:26Z</time>
      </trkpt>
      <trkpt lat="48.56715" lon="-3.56203">
        <ele>178</ele>
        <time>2020-06-10T15:02:27Z</time>
      </trkpt>
      <trkpt lat="48.56716" lon="-3.56195">
        <ele>178</ele>
        <time>2020-06-10T15:02:28Z</time>
      </trkpt>
      <trkpt lat="48.56717" lon="-3.56186">
        <ele>178</ele>
        <time>2020-06-10T15:02:29Z</time>
      </trkpt>
      <trkpt lat="48.56718" lon="-3.56177">
        <ele>178.1</ele>
        <time>2020-06-10T15:02:30Z</time>
      </trkpt>
      <trkpt lat="48.56719" lon="-3.56169">
        <ele>178.1</ele>
        <time>2020-06-10T15:02:31Z</time>
      </trkpt>
      <trkpt lat="48.5672" lon="-3.5616">
        <ele>178.1</ele>
        <time>2020-06-10T15:02:32Z</time>
      </trkpt>
      <trkpt lat="48.56721" lon="-3.56152">
        <ele>178.1</ele>
        <time>2020-06-10T15:02:33Z</time>
      </trkpt>
      <trkpt lat="48.56722" lon="-3.56143">
        <ele>178.2</ele>
        <time>2020-06-10T15:02:34Z</time>
      </trkpt>
      <trkpt lat="48.56724" lon="-3.56135">
        <ele>178.2</ele>
        <time>2020-06-10T15:02:35Z</time>
      </trkpt>
      <trkpt lat="48.56725" lon="-3.56126">
        <ele>178.3</ele>
        <time>2020-06-10T15:02:36Z</time>
      </trkpt>
      <trkpt lat="48.56726" lon="-3.56118">
        <ele>178.3</ele>
        <time>2020-06-10T15:02:37Z</time>
      </trkpt>
      <trkpt lat="48.56727" lon="-3.56109">
        <ele>178.4</ele>
        <time>2020-06-10T15:02:38Z</time>
      </trkpt>
      <trkpt lat="48.56727" lon="-3.561">
        <ele>178.5</ele>
        <time>2020-06-10T15:02:39Z</time>
      </trkpt>
      <trkpt lat="48.56728" lon="-3.56092">
        <ele>178.5</ele>
        <time>2020-06-10T15:02:40Z</time>
      </trkpt>
      <trkpt lat="48.56729" lon="-3.56083">
        <ele>178.5</ele>
        <time>2020-06-10T15:02:41Z</time>
      </trkpt>
      <trkpt lat="48.56729" lon="-3.56074">
        <ele>178.5</ele>
        <time>2020-06-10T15:02:42Z</time>
      </trkpt>
      <trkpt lat="48.5673" lon="-3.56065">
        <ele>178.4</ele>
        <time>2020-06-10T15:02:43Z</time>
      </trkpt>
      <trkpt lat="48.56731" lon="-3.56056">
        <ele>178.4</ele>
        <time>2020-06-10T15:02:44Z</time>
      </trkpt>
      <trkpt lat="48.56732" lon="-3.56048">
        <ele>178.4</ele>
        <time>2020-06-10T15:02:45Z</time>
      </trkpt>
      <trkpt lat="48.56733" lon="-3.56039">
        <ele>178.4</ele>
        <time>2020-06-10T15:02:46Z</time>
      </trkpt>
      <trkpt lat="48.56733" lon="-3.56031">
        <ele>178.4</ele>
        <time>2020-06-10T15:02:47Z</time>
      </trkpt>
      <trkpt lat="48.56734" lon="-3.56022">
        <ele>178.4</ele>
        <time>2020-06-10T15:02:48Z</time>
      </trkpt>
      <trkpt lat="48.56734" lon="-3.56014">
        <ele>178.4</ele>
        <time>2020-06-10T15:02:49Z</time>
      </trkpt>
      <trkpt lat="48.56734" lon="-3.56005">
        <ele>178.4</ele>
        <time>2020-06-10T15:02:50Z</time>
      </trkpt>
      <trkpt lat="48.56734" lon="-3.55997">
        <ele>178.4</ele>
        <time>2020-06-10T15:02:51Z</time>
      </trkpt>
      <trkpt lat="48.56734" lon="-3.55988">
        <ele>178.4</ele>
        <time>2020-06-10T15:02:52Z</time>
      </trkpt>
      <trkpt lat="48.56734" lon="-3.55979">
        <ele>178.4</ele>
        <time>2020-06-10T15:02:53Z</time>
      </trkpt>
      <trkpt lat="48.56734" lon="-3.5597">
        <ele>178.4</ele>
        <time>2020-06-10T15:02:54Z</time>
      </trkpt>
      <trkpt lat="48.56735" lon="-3.55961">
        <ele>178.3</ele>
        <time>2020-06-10T15:02:55Z</time>
      </trkpt>
      <trkpt lat="48.56735" lon="-3.55951">
        <ele>178.3</ele>
        <time>2020-06-10T15:02:56Z</time>
      </trkpt>
      <trkpt lat="48.56735" lon="-3.55942">
        <ele>178.3</ele>
        <time>2020-06-10T15:02:57Z</time>
      </trkpt>
      <trkpt lat="48.56735" lon="-3.55933">
        <ele>178.2</ele>
        <time>2020-06-10T15:02:58Z</time>
      </trkpt>
      <trkpt lat="48.56735" lon="-3.55924">
        <ele>178.2</ele>
        <time>2020-06-10T15:02:59Z</time>
      </trkpt>
      <trkpt lat="48.56735" lon="-3.55914">
        <ele>178.2</ele>
        <time>2020-06-10T15:03:00Z</time>
      </trkpt>
      <trkpt lat="48.56734" lon="-3.55905">
        <ele>178.1</ele>
        <time>2020-06-10T15:03:01Z</time>
      </trkpt>
      <trkpt lat="48.56734" lon="-3.55896">
        <ele>178.1</ele>
        <time>2020-06-10T15:03:02Z</time>
      </trkpt>
      <trkpt lat="48.56734" lon="-3.55887">
        <ele>178.1</ele>
        <time>2020-06-10T15:03:03Z</time>
      </trkpt>
      <trkpt lat="48.56734" lon="-3.55877">
        <ele>178</ele>
        <time>2020-06-10T15:03:04Z</time>
      </trkpt>
      <trkpt lat="48.56734" lon="-3.55868">
        <ele>178</ele>
        <time>2020-06-10T15:03:05Z</time>
      </trkpt>
      <trkpt lat="48.56733" lon="-3.55859">
        <ele>178</ele>
        <time>2020-06-10T15:03:06Z</time>
      </trkpt>
      <trkpt lat="48.56733" lon="-3.5585">
        <ele>178</ele>
        <time>2020-06-10T15:03:07Z</time>
      </trkpt>
      <trkpt lat="48.56733" lon="-3.5584">
        <ele>178</ele>
        <time>2020-06-10T15:03:08Z</time>
      </trkpt>
      <trkpt lat="48.56733" lon="-3.55831">
        <ele>178</ele>
        <time>2020-06-10T15:03:09Z</time>
      </trkpt>
      <trkpt lat="48.56733" lon="-3.55822">
        <ele>178</ele>
        <time>2020-06-10T15:03:10Z</time>
      </trkpt>
      <trkpt lat="48.56732" lon="-3.55812">
        <ele>178.1</ele>
        <time>2020-06-10T15:03:11Z</time>
      </trkpt>
      <trkpt lat="48.56732" lon="-3.55803">
        <ele>178.1</ele>
        <time>2020-06-10T15:03:12Z</time>
      </trkpt>
      <trkpt lat="48.56732" lon="-3.55794">
        <ele>178.1</ele>
        <time>2020-06-10T15:03:13Z</time>
      </trkpt>
      <trkpt lat="48.56732" lon="-3.55785">
        <ele>178.2</ele>
        <time>2020-06-10T15:03:14Z</time>
      </trkpt>
      <trkpt lat="48.56732" lon="-3.55776">
        <ele>178.2</ele>
        <time>2020-06-10T15:03:15Z</time>
      </trkpt>
      <trkpt lat="48.56732" lon="-3.55767">
        <ele>178.3</ele>
        <time>2020-06-10T15:03:16Z</time>
      </trkpt>
      <trkpt lat="48.56732" lon="-3.55758">
        <ele>178.4</ele>
        <time>2020-06-10T15:03:17Z</time>
      </trkpt>
      <trkpt lat="48.56731" lon="-3.55749">
        <ele>178.5</ele>
        <time>2020-06-10T15:03:18Z</time>
      </trkpt>
      <trkpt lat="48.56731" lon="-3.55741">
        <ele>178.5</ele>
        <time>2020-06-10T15:03:19Z</time>
      </trkpt>
      <trkpt lat="48.5673" lon="-3.55732">
        <ele>178.5</ele>
        <time>2020-06-10T15:03:20Z</time>
      </trkpt>
      <trkpt lat="48.56729" lon="-3.55723">
        <ele>178.5</ele>
        <time>2020-06-10T15:03:21Z</time>
      </trkpt>
      <trkpt lat="48.56727" lon="-3.55715">
        <ele>178.5</ele>
        <time>2020-06-10T15:03:22Z</time>
      </trkpt>
      <trkpt lat="48.56726" lon="-3.55706">
        <ele>178.5</ele>
        <time>2020-06-10T15:03:23Z</time>
      </trkpt>
      <trkpt lat="48.56726" lon="-3.55698">
        <ele>178.6</ele>
        <time>2020-06-10T15:03:24Z</time>
      </trkpt>
      <trkpt lat="48.56726" lon="-3.55689">
        <ele>178.6</ele>
        <time>2020-06-10T15:03:25Z</time>
      </trkpt>
      <trkpt lat="48.56725" lon="-3.55681">
        <ele>178.7</ele>
        <time>2020-06-10T15:03:26Z</time>
      </trkpt>
      <trkpt lat="48.56725" lon="-3.55672">
        <ele>178.7</ele>
        <time>2020-06-10T15:03:27Z</time>
      </trkpt>
      <trkpt lat="48.56724" lon="-3.55664">
        <ele>178.7</ele>
        <time>2020-06-10T15:03:28Z</time>
      </trkpt>
      <trkpt lat="48.56723" lon="-3.55655">
        <ele>178.8</ele>
        <time>2020-06-10T15:03:29Z</time>
      </trkpt>
      <trkpt lat="48.56723" lon="-3.55647">
        <ele>178.8</ele>
        <time>2020-06-10T15:03:30Z</time>
      </trkpt>
      <trkpt lat="48.56722" lon="-3.55639">
        <ele>178.8</ele>
        <time>2020-06-10T15:03:31Z</time>
      </trkpt>
      <trkpt lat="48.56722" lon="-3.5563">
        <ele>178.9</ele>
        <time>2020-06-10T15:03:32Z</time>
      </trkpt>
      <trkpt lat="48.56721" lon="-3.55622">
        <ele>178.9</ele>
        <time>2020-06-10T15:03:33Z</time>
      </trkpt>
      <trkpt lat="48.56721" lon="-3.55613">
        <ele>178.9</ele>
        <time>2020-06-10T15:03:34Z</time>
      </trkpt>
      <trkpt lat="48.56721" lon="-3.55605">
        <ele>178.9</ele>
        <time>2020-06-10T15:03:35Z</time>
      </trkpt>
      <trkpt lat="48.5672" lon="-3.55596">
        <ele>179</ele>
        <time>2020-06-10T15:03:36Z</time>
      </trkpt>
      <trkpt lat="48.56719" lon="-3.55587">
        <ele>179</ele>
        <time>2020-06-10T15:03:37Z</time>
      </trkpt>
      <trkpt lat="48.56718" lon="-3.55578">
        <ele>179.1</ele>
        <time>2020-06-10T15:03:38Z</time>
      </trkpt>
      <trkpt lat="48.56717" lon="-3.5557">
        <ele>179.1</ele>
        <time>2020-06-10T15:03:39Z</time>
      </trkpt>
      <trkpt lat="48.56718" lon="-3.55561">
        <ele>179.2</ele>
        <time>2020-06-10T15:03:40Z</time>
      </trkpt>
      <trkpt lat="48.56718" lon="-3.55552">
        <ele>179.3</ele>
        <time>2020-06-10T15:03:41Z</time>
      </trkpt>
      <trkpt lat="48.56717" lon="-3.55544">
        <ele>179.4</ele>
        <time>2020-06-10T15:03:42Z</time>
      </trkpt>
      <trkpt lat="48.56716" lon="-3.55535">
        <ele>179.5</ele>
        <time>2020-06-10T15:03:43Z</time>
      </trkpt>
      <trkpt lat="48.56714" lon="-3.55526">
        <ele>179.6</ele>
        <time>2020-06-10T15:03:44Z</time>
      </trkpt>
      <trkpt lat="48.56713" lon="-3.55517">
        <ele>179.6</ele>
        <time>2020-06-10T15:03:45Z</time>
      </trkpt>
      <trkpt lat="48.56712" lon="-3.55508">
        <ele>179.7</ele>
        <time>2020-06-10T15:03:46Z</time>
      </trkpt>
      <trkpt lat="48.56712" lon="-3.55499">
        <ele>179.8</ele>
        <time>2020-06-10T15:03:47Z</time>
      </trkpt>
      <trkpt lat="48.56711" lon="-3.55491">
        <ele>179.8</ele>
        <time>2020-06-10T15:03:48Z</time>
      </trkpt>
      <trkpt lat="48.5671" lon="-3.55484">
        <ele>179.9</ele>
        <time>2020-06-10T15:03:49Z</time>
      </trkpt>
      <trkpt lat="48.56709" lon="-3.55475">
        <ele>179.9</ele>
        <time>2020-06-10T15:03:50Z</time>
      </trkpt>
      <trkpt lat="48.56709" lon="-3.55467">
        <ele>180</ele>
        <time>2020-06-10T15:03:51Z</time>
      </trkpt>
      <trkpt lat="48.56709" lon="-3.55459">
        <ele>180.1</ele>
        <time>2020-06-10T15:03:52Z</time>
      </trkpt>
      <trkpt lat="48.56708" lon="-3.55449">
        <ele>180.2</ele>
        <time>2020-06-10T15:03:53Z</time>
      </trkpt>
      <trkpt lat="48.56707" lon="-3.5544">
        <ele>180.2</ele>
        <time>2020-06-10T15:03:54Z</time>
      </trkpt>
      <trkpt lat="48.56706" lon="-3.55431">
        <ele>180.3</ele>
        <time>2020-06-10T15:03:55Z</time>
      </trkpt>
      <trkpt lat="48.56705" lon="-3.55423">
        <ele>180.4</ele>
        <time>2020-06-10T15:03:56Z</time>
      </trkpt>
      <trkpt lat="48.56705" lon="-3.55414">
        <ele>180.5</ele>
        <time>2020-06-10T15:03:57Z</time>
      </trkpt>
      <trkpt lat="48.56704" lon="-3.55406">
        <ele>180.6</ele>
        <time>2020-06-10T15:03:58Z</time>
      </trkpt>
      <trkpt lat="48.56704" lon="-3.55398">
        <ele>180.7</ele>
        <time>2020-06-10T15:03:59Z</time>
      </trkpt>
      <trkpt lat="48.56703" lon="-3.55391">
        <ele>180.8</ele>
        <time>2020-06-10T15:04:00Z</time>
      </trkpt>
      <trkpt lat="48.56703" lon="-3.55382">
        <ele>180.9</ele>
        <time>2020-06-10T15:04:01Z</time>
      </trkpt>
      <trkpt lat="48.56702" lon="-3.55373">
        <ele>181</ele>
        <time>2020-06-10T15:04:02Z</time>
      </trkpt>
      <trkpt lat="48.56701" lon="-3.55366">
        <ele>181.1</ele>
        <time>2020-06-10T15:04:03Z</time>
      </trkpt>
      <trkpt lat="48.56701" lon="-3.55359">
        <ele>181.1</ele>
        <time>2020-06-10T15:04:04Z</time>
      </trkpt>
      <trkpt lat="48.56701" lon="-3.55351">
        <ele>181.2</ele>
        <time>2020-06-10T15:04:05Z</time>
      </trkpt>
      <trkpt lat="48.56701" lon="-3.55343">
        <ele>181.3</ele>
        <time>2020-06-10T15:04:06Z</time>
      </trkpt>
      <trkpt lat="48.567" lon="-3.55336">
        <ele>181.3</ele>
        <time>2020-06-10T15:04:07Z</time>
      </trkpt>
      <trkpt lat="48.56701" lon="-3.55329">
        <ele>181.4</ele>
        <time>2020-06-10T15:04:08Z</time>
      </trkpt>
      <trkpt lat="48.56701" lon="-3.55321">
        <ele>181.4</ele>
        <time>2020-06-10T15:04:09Z</time>
      </trkpt>
      <trkpt lat="48.567" lon="-3.55312">
        <ele>181.5</ele>
        <time>2020-06-10T15:04:10Z</time>
      </trkpt>
      <trkpt lat="48.567" lon="-3.55306">
        <ele>181.6</ele>
        <time>2020-06-10T15:04:11Z</time>
      </trkpt>
      <trkpt lat="48.567" lon="-3.55296">
        <ele>181.7</ele>
        <time>2020-06-10T15:04:12Z</time>
      </trkpt>
      <trkpt lat="48.56699" lon="-3.55288">
        <ele>181.7</ele>
        <time>2020-06-10T15:04:13Z</time>
      </trkpt>
      <trkpt lat="48.56699" lon="-3.55279">
        <ele>181.7</ele>
        <time>2020-06-10T15:04:14Z</time>
      </trkpt>
      <trkpt lat="48.56699" lon="-3.55272">
        <ele>181.8</ele>
        <time>2020-06-10T15:04:15Z</time>
      </trkpt>
      <trkpt lat="48.56699" lon="-3.55262">
        <ele>181.8</ele>
        <time>2020-06-10T15:04:16Z</time>
      </trkpt>
      <trkpt lat="48.56698" lon="-3.55254">
        <ele>181.8</ele>
        <time>2020-06-10T15:04:17Z</time>
      </trkpt>
      <trkpt lat="48.56696" lon="-3.55246">
        <ele>181.9</ele>
        <time>2020-06-10T15:04:18Z</time>
      </trkpt>
      <trkpt lat="48.56695" lon="-3.55237">
        <ele>181.9</ele>
        <time>2020-06-10T15:04:19Z</time>
      </trkpt>
      <trkpt lat="48.56695" lon="-3.55229">
        <ele>181.9</ele>
        <time>2020-06-10T15:04:20Z</time>
      </trkpt>
      <trkpt lat="48.56694" lon="-3.55222">
        <ele>182</ele>
        <time>2020-06-10T15:04:21Z</time>
      </trkpt>
      <trkpt lat="48.56693" lon="-3.55215">
        <ele>182</ele>
        <time>2020-06-10T15:04:22Z</time>
      </trkpt>
      <trkpt lat="48.56692" lon="-3.55204">
        <ele>182.1</ele>
        <time>2020-06-10T15:04:23Z</time>
      </trkpt>
      <trkpt lat="48.56691" lon="-3.55196">
        <ele>182.2</ele>
        <time>2020-06-10T15:04:24Z</time>
      </trkpt>
      <trkpt lat="48.5669" lon="-3.55189">
        <ele>182.3</ele>
        <time>2020-06-10T15:04:25Z</time>
      </trkpt>
      <trkpt lat="48.56689" lon="-3.55183">
        <ele>182.3</ele>
        <time>2020-06-10T15:04:26Z</time>
      </trkpt>
      <trkpt lat="48.56689" lon="-3.55174">
        <ele>182.4</ele>
        <time>2020-06-10T15:04:27Z</time>
      </trkpt>
      <trkpt lat="48.56688" lon="-3.55166">
        <ele>182.5</ele>
        <time>2020-06-10T15:04:28Z</time>
      </trkpt>
      <trkpt lat="48.56687" lon="-3.55159">
        <ele>182.5</ele>
        <time>2020-06-10T15:04:29Z</time>
      </trkpt>
      <trkpt lat="48.56686" lon="-3.5515">
        <ele>182.6</ele>
        <time>2020-06-10T15:04:30Z</time>
      </trkpt>
      <trkpt lat="48.56685" lon="-3.55143">
        <ele>182.7</ele>
        <time>2020-06-10T15:04:31Z</time>
      </trkpt>
      <trkpt lat="48.56683" lon="-3.55134">
        <ele>182.8</ele>
        <time>2020-06-10T15:04:32Z</time>
      </trkpt>
      <trkpt lat="48.56682" lon="-3.55126">
        <ele>182.9</ele>
        <time>2020-06-10T15:04:33Z</time>
      </trkpt>
      <trkpt lat="48.5668" lon="-3.55118">
        <ele>182.9</ele>
        <time>2020-06-10T15:04:34Z</time>
      </trkpt>
      <trkpt lat="48.56679" lon="-3.5511">
        <ele>183</ele>
        <time>2020-06-10T15:04:35Z</time>
      </trkpt>
      <trkpt lat="48.56678" lon="-3.55103">
        <ele>183.1</ele>
        <time>2020-06-10T15:04:36Z</time>
      </trkpt>
      <trkpt lat="48.56676" lon="-3.55097">
        <ele>183.1</ele>
        <time>2020-06-10T15:04:37Z</time>
      </trkpt>
      <trkpt lat="48.56675" lon="-3.5509">
        <ele>183.1</ele>
        <time>2020-06-10T15:04:38Z</time>
      </trkpt>
      <trkpt lat="48.56673" lon="-3.55082">
        <ele>183.2</ele>
        <time>2020-06-10T15:04:39Z</time>
      </trkpt>
      <trkpt lat="48.56673" lon="-3.55074">
        <ele>183.2</ele>
        <time>2020-06-10T15:04:40Z</time>
      </trkpt>
      <trkpt lat="48.56671" lon="-3.55067">
        <ele>183.2</ele>
        <time>2020-06-10T15:04:41Z</time>
      </trkpt>
      <trkpt lat="48.56669" lon="-3.55059">
        <ele>183.3</ele>
        <time>2020-06-10T15:04:42Z</time>
      </trkpt>
      <trkpt lat="48.56667" lon="-3.5505">
        <ele>183.3</ele>
        <time>2020-06-10T15:04:43Z</time>
      </trkpt>
      <trkpt lat="48.56665" lon="-3.55042">
        <ele>183.3</ele>
        <time>2020-06-10T15:04:44Z</time>
      </trkpt>
      <trkpt lat="48.56663" lon="-3.55034">
        <ele>183.4</ele>
        <time>2020-06-10T15:04:45Z</time>
      </trkpt>
      <trkpt lat="48.56662" lon="-3.55026">
        <ele>183.4</ele>
        <time>2020-06-10T15:04:46Z</time>
      </trkpt>
      <trkpt lat="48.5666" lon="-3.55016">
        <ele>183.5</ele>
        <time>2020-06-10T15:04:47Z</time>
      </trkpt>
      <trkpt lat="48.56659" lon="-3.55008">
        <ele>183.5</ele>
        <time>2020-06-10T15:04:48Z</time>
      </trkpt>
      <trkpt lat="48.56657" lon="-3.54999">
        <ele>183.6</ele>
        <time>2020-06-10T15:04:49Z</time>
      </trkpt>
      <trkpt lat="48.56655" lon="-3.54991">
        <ele>183.6</ele>
        <time>2020-06-10T15:04:50Z</time>
      </trkpt>
      <trkpt lat="48.56653" lon="-3.54983">
        <ele>183.7</ele>
        <time>2020-06-10T15:04:51Z</time>
      </trkpt>
      <trkpt lat="48.5665" lon="-3.54975">
        <ele>183.7</ele>
        <time>2020-06-10T15:04:52Z</time>
      </trkpt>
      <trkpt lat="48.56647" lon="-3.54967">
        <ele>183.8</ele>
        <time>2020-06-10T15:04:53Z</time>
      </trkpt>
      <trkpt lat="48.56645" lon="-3.54959">
        <ele>183.8</ele>
        <time>2020-06-10T15:04:54Z</time>
      </trkpt>
      <trkpt lat="48.56643" lon="-3.54951">
        <ele>183.9</ele>
        <time>2020-06-10T15:04:55Z</time>
      </trkpt>
      <trkpt lat="48.56641" lon="-3.54942">
        <ele>183.9</ele>
        <time>2020-06-10T15:04:56Z</time>
      </trkpt>
      <trkpt lat="48.56639" lon="-3.54935">
        <ele>184</ele>
        <time>2020-06-10T15:04:57Z</time>
      </trkpt>
      <trkpt lat="48.56637" lon="-3.54927">
        <ele>184</ele>
        <time>2020-06-10T15:04:58Z</time>
      </trkpt>
      <trkpt lat="48.56635" lon="-3.54919">
        <ele>184.1</ele>
        <time>2020-06-10T15:04:59Z</time>
      </trkpt>
      <trkpt lat="48.56633" lon="-3.5491">
        <ele>184.2</ele>
        <time>2020-06-10T15:05:00Z</time>
      </trkpt>
      <trkpt lat="48.56631" lon="-3.54903">
        <ele>184.3</ele>
        <time>2020-06-10T15:05:01Z</time>
      </trkpt>
      <trkpt lat="48.5663" lon="-3.54897">
        <ele>184.3</ele>
        <time>2020-06-10T15:05:02Z</time>
      </trkpt>
      <trkpt lat="48.56628" lon="-3.54889">
        <ele>184.4</ele>
        <time>2020-06-10T15:05:03Z</time>
      </trkpt>
      <trkpt lat="48.56625" lon="-3.54882">
        <ele>184.5</ele>
        <time>2020-06-10T15:05:04Z</time>
      </trkpt>
      <trkpt lat="48.56623" lon="-3.54874">
        <ele>184.4</ele>
        <time>2020-06-10T15:05:05Z</time>
      </trkpt>
      <trkpt lat="48.56621" lon="-3.54866">
        <ele>184.4</ele>
        <time>2020-06-10T15:05:06Z</time>
      </trkpt>
      <trkpt lat="48.5662" lon="-3.54861">
        <ele>184.3</ele>
        <time>2020-06-10T15:05:07Z</time>
      </trkpt>
      <trkpt lat="48.56618" lon="-3.54854">
        <ele>184.3</ele>
        <time>2020-06-10T15:05:08Z</time>
      </trkpt>
      <trkpt lat="48.56616" lon="-3.54848">
        <ele>184.3</ele>
        <time>2020-06-10T15:05:09Z</time>
      </trkpt>
      <trkpt lat="48.56615" lon="-3.5484">
        <ele>184.3</ele>
        <time>2020-06-10T15:05:10Z</time>
      </trkpt>
      <trkpt lat="48.56613" lon="-3.54834">
        <ele>184.4</ele>
        <time>2020-06-10T15:05:11Z</time>
      </trkpt>
      <trkpt lat="48.5661" lon="-3.54827">
        <ele>184.4</ele>
        <time>2020-06-10T15:05:12Z</time>
      </trkpt>
      <trkpt lat="48.56608" lon="-3.54822">
        <ele>184.5</ele>
        <time>2020-06-10T15:05:13Z</time>
      </trkpt>
      <trkpt lat="48.56606" lon="-3.54815">
        <ele>184.5</ele>
        <time>2020-06-10T15:05:14Z</time>
      </trkpt>
      <trkpt lat="48.56604" lon="-3.5481">
        <ele>184.6</ele>
        <time>2020-06-10T15:05:15Z</time>
      </trkpt>
      <trkpt lat="48.56602" lon="-3.54804">
        <ele>184.6</ele>
        <time>2020-06-10T15:05:16Z</time>
      </trkpt>
      <trkpt lat="48.566" lon="-3.54794">
        <ele>184.7</ele>
        <time>2020-06-10T15:05:17Z</time>
      </trkpt>
      <trkpt lat="48.56598" lon="-3.54785">
        <ele>184.8</ele>
        <time>2020-06-10T15:05:18Z</time>
      </trkpt>
      <trkpt lat="48.56596" lon="-3.54777">
        <ele>184.9</ele>
        <time>2020-06-10T15:05:19Z</time>
      </trkpt>
      <trkpt lat="48.56593" lon="-3.5477">
        <ele>185</ele>
        <time>2020-06-10T15:05:20Z</time>
      </trkpt>
      <trkpt lat="48.56591" lon="-3.54763">
        <ele>185</ele>
        <time>2020-06-10T15:05:21Z</time>
      </trkpt>
      <trkpt lat="48.56588" lon="-3.54755">
        <ele>185.1</ele>
        <time>2020-06-10T15:05:22Z</time>
      </trkpt>
      <trkpt lat="48.56586" lon="-3.54747">
        <ele>185.2</ele>
        <time>2020-06-10T15:05:23Z</time>
      </trkpt>
      <trkpt lat="48.56584" lon="-3.5474">
        <ele>185.2</ele>
        <time>2020-06-10T15:05:24Z</time>
      </trkpt>
      <trkpt lat="48.56581" lon="-3.54732">
        <ele>185.3</ele>
        <time>2020-06-10T15:05:25Z</time>
      </trkpt>
      <trkpt lat="48.56579" lon="-3.54726">
        <ele>185.3</ele>
        <time>2020-06-10T15:05:26Z</time>
      </trkpt>
      <trkpt lat="48.56576" lon="-3.5472">
        <ele>185.4</ele>
        <time>2020-06-10T15:05:27Z</time>
      </trkpt>
      <trkpt lat="48.56573" lon="-3.54712">
        <ele>185.4</ele>
        <time>2020-06-10T15:05:28Z</time>
      </trkpt>
      <trkpt lat="48.56571" lon="-3.54705">
        <ele>185.5</ele>
        <time>2020-06-10T15:05:29Z</time>
      </trkpt>
      <trkpt lat="48.56569" lon="-3.54699">
        <ele>185.5</ele>
        <time>2020-06-10T15:05:30Z</time>
      </trkpt>
      <trkpt lat="48.56566" lon="-3.54691">
        <ele>185.6</ele>
        <time>2020-06-10T15:05:31Z</time>
      </trkpt>
      <trkpt lat="48.56564" lon="-3.54686">
        <ele>185.6</ele>
        <time>2020-06-10T15:05:32Z</time>
      </trkpt>
      <trkpt lat="48.56562" lon="-3.5468">
        <ele>185.7</ele>
        <time>2020-06-10T15:05:33Z</time>
      </trkpt>
      <trkpt lat="48.56559" lon="-3.54673">
        <ele>185.7</ele>
        <time>2020-06-10T15:05:34Z</time>
      </trkpt>
      <trkpt lat="48.56556" lon="-3.54667">
        <ele>185.8</ele>
        <time>2020-06-10T15:05:35Z</time>
      </trkpt>
      <trkpt lat="48.56553" lon="-3.5466">
        <ele>185.8</ele>
        <time>2020-06-10T15:05:36Z</time>
      </trkpt>
      <trkpt lat="48.56551" lon="-3.54652">
        <ele>185.9</ele>
        <time>2020-06-10T15:05:37Z</time>
      </trkpt>
      <trkpt lat="48.56549" lon="-3.54644">
        <ele>186</ele>
        <time>2020-06-10T15:05:38Z</time>
      </trkpt>
      <trkpt lat="48.56547" lon="-3.54638">
        <ele>186</ele>
        <time>2020-06-10T15:05:39Z</time>
      </trkpt>
      <trkpt lat="48.56545" lon="-3.54634">
        <ele>186.1</ele>
        <time>2020-06-10T15:05:40Z</time>
      </trkpt>
      <trkpt lat="48.56542" lon="-3.5463">
        <ele>186.1</ele>
        <time>2020-06-10T15:05:41Z</time>
      </trkpt>
      <trkpt lat="48.56539" lon="-3.54624">
        <ele>186.2</ele>
        <time>2020-06-10T15:05:42Z</time>
      </trkpt>
      <trkpt lat="48.56536" lon="-3.54617">
        <ele>186.3</ele>
        <time>2020-06-10T15:05:43Z</time>
      </trkpt>
      <trkpt lat="48.56533" lon="-3.54609">
        <ele>186.3</ele>
        <time>2020-06-10T15:05:44Z</time>
      </trkpt>
      <trkpt lat="48.5653" lon="-3.54603">
        <ele>186.3</ele>
        <time>2020-06-10T15:05:45Z</time>
      </trkpt>
      <trkpt lat="48.56526" lon="-3.54595">
        <ele>186.2</ele>
        <time>2020-06-10T15:05:46Z</time>
      </trkpt>
      <trkpt lat="48.56523" lon="-3.54586">
        <ele>186.2</ele>
        <time>2020-06-10T15:05:47Z</time>
      </trkpt>
      <trkpt lat="48.5652" lon="-3.54578">
        <ele>186.2</ele>
        <time>2020-06-10T15:05:48Z</time>
      </trkpt>
      <trkpt lat="48.56518" lon="-3.54573">
        <ele>186.2</ele>
        <time>2020-06-10T15:05:49Z</time>
      </trkpt>
      <trkpt lat="48.56515" lon="-3.54567">
        <ele>186.2</ele>
        <time>2020-06-10T15:05:50Z</time>
      </trkpt>
      <trkpt lat="48.56512" lon="-3.54561">
        <ele>186.2</ele>
        <time>2020-06-10T15:05:51Z</time>
      </trkpt>
      <trkpt lat="48.56509" lon="-3.54555">
        <ele>186.3</ele>
        <time>2020-06-10T15:05:52Z</time>
      </trkpt>
      <trkpt lat="48.56506" lon="-3.54547">
        <ele>186.3</ele>
        <time>2020-06-10T15:05:53Z</time>
      </trkpt>
      <trkpt lat="48.56503" lon="-3.54542">
        <ele>186.4</ele>
        <time>2020-06-10T15:05:54Z</time>
      </trkpt>
      <trkpt lat="48.565" lon="-3.54536">
        <ele>186.4</ele>
        <time>2020-06-10T15:05:55Z</time>
      </trkpt>
      <trkpt lat="48.56497" lon="-3.54533">
        <ele>186.5</ele>
        <time>2020-06-10T15:05:56Z</time>
      </trkpt>
      <trkpt lat="48.56494" lon="-3.54527">
        <ele>186.5</ele>
        <time>2020-06-10T15:05:57Z</time>
      </trkpt>
      <trkpt lat="48.56492" lon="-3.54523">
        <ele>186.6</ele>
        <time>2020-06-10T15:05:58Z</time>
      </trkpt>
      <trkpt lat="48.5649" lon="-3.54518">
        <ele>186.6</ele>
        <time>2020-06-10T15:05:59Z</time>
      </trkpt>
      <trkpt lat="48.56488" lon="-3.54513">
        <ele>186.7</ele>
        <time>2020-06-10T15:06:00Z</time>
      </trkpt>
      <trkpt lat="48.56485" lon="-3.54508">
        <ele>186.7</ele>
        <time>2020-06-10T15:06:01Z</time>
      </trkpt>
      <trkpt lat="48.56483" lon="-3.54503">
        <ele>186.8</ele>
        <time>2020-06-10T15:06:02Z</time>
      </trkpt>
      <trkpt lat="48.56481" lon="-3.54498">
        <ele>186.9</ele>
        <time>2020-06-10T15:06:03Z</time>
      </trkpt>
      <trkpt lat="48.56478" lon="-3.54491">
        <ele>187</ele>
        <time>2020-06-10T15:06:04Z</time>
      </trkpt>
      <trkpt lat="48.56475" lon="-3.54485">
        <ele>187.1</ele>
        <time>2020-06-10T15:06:05Z</time>
      </trkpt>
      <trkpt lat="48.56473" lon="-3.54481">
        <ele>187.3</ele>
        <time>2020-06-10T15:06:06Z</time>
      </trkpt>
      <trkpt lat="48.56471" lon="-3.54475">
        <ele>187.4</ele>
        <time>2020-06-10T15:06:07Z</time>
      </trkpt>
      <trkpt lat="48.56468" lon="-3.54469">
        <ele>187.5</ele>
        <time>2020-06-10T15:06:08Z</time>
      </trkpt>
      <trkpt lat="48.56465" lon="-3.54465">
        <ele>187.7</ele>
        <time>2020-06-10T15:06:09Z</time>
      </trkpt>
      <trkpt lat="48.56461" lon="-3.54459">
        <ele>187.9</ele>
        <time>2020-06-10T15:06:10Z</time>
      </trkpt>
      <trkpt lat="48.56458" lon="-3.54454">
        <ele>188</ele>
        <time>2020-06-10T15:06:11Z</time>
      </trkpt>
      <trkpt lat="48.56455" lon="-3.54451">
        <ele>188.2</ele>
        <time>2020-06-10T15:06:12Z</time>
      </trkpt>
      <trkpt lat="48.56453" lon="-3.54446">
        <ele>188.3</ele>
        <time>2020-06-10T15:06:13Z</time>
      </trkpt>
      <trkpt lat="48.56452" lon="-3.54442">
        <ele>188.5</ele>
        <time>2020-06-10T15:06:14Z</time>
      </trkpt>
      <trkpt lat="48.56451" lon="-3.54437">
        <ele>188.6</ele>
        <time>2020-06-10T15:06:15Z</time>
      </trkpt>
      <trkpt lat="48.5645" lon="-3.54432">
        <ele>188.8</ele>
        <time>2020-06-10T15:06:16Z</time>
      </trkpt>
      <trkpt lat="48.5645" lon="-3.54426">
        <ele>188.9</ele>
        <time>2020-06-10T15:06:17Z</time>
      </trkpt>
      <trkpt lat="48.56452" lon="-3.54422">
        <ele>189.1</ele>
        <time>2020-06-10T15:06:18Z</time>
      </trkpt>
      <trkpt lat="48.56455" lon="-3.54419">
        <ele>189.2</ele>
        <time>2020-06-10T15:06:19Z</time>
      </trkpt>
      <trkpt lat="48.56458" lon="-3.54416">
        <ele>189.3</ele>
        <time>2020-06-10T15:06:20Z</time>
      </trkpt>
      <trkpt lat="48.56462" lon="-3.54412">
        <ele>189.3</ele>
        <time>2020-06-10T15:06:21Z</time>
      </trkpt>
      <trkpt lat="48.56466" lon="-3.54409">
        <ele>189.4</ele>
        <time>2020-06-10T15:06:22Z</time>
      </trkpt>
      <trkpt lat="48.56469" lon="-3.54405">
        <ele>189.4</ele>
        <time>2020-06-10T15:06:23Z</time>
      </trkpt>
      <trkpt lat="48.56473" lon="-3.54405">
        <ele>189.4</ele>
        <time>2020-06-10T15:06:24Z</time>
      </trkpt>
      <trkpt lat="48.56477" lon="-3.54401">
        <ele>189.5</ele>
        <time>2020-06-10T15:06:25Z</time>
      </trkpt>
      <trkpt lat="48.56481" lon="-3.54401">
        <ele>189.5</ele>
        <time>2020-06-10T15:06:26Z</time>
      </trkpt>
      <trkpt lat="48.56485" lon="-3.54399">
        <ele>189.6</ele>
        <time>2020-06-10T15:06:27Z</time>
      </trkpt>
      <trkpt lat="48.56488" lon="-3.54397">
        <ele>189.7</ele>
        <time>2020-06-10T15:06:28Z</time>
      </trkpt>
      <trkpt lat="48.56492" lon="-3.54395">
        <ele>189.8</ele>
        <time>2020-06-10T15:06:29Z</time>
      </trkpt>
      <trkpt lat="48.56495" lon="-3.54393">
        <ele>189.9</ele>
        <time>2020-06-10T15:06:30Z</time>
      </trkpt>
      <trkpt lat="48.56498" lon="-3.54391">
        <ele>189.9</ele>
        <time>2020-06-10T15:06:31Z</time>
      </trkpt>
      <trkpt lat="48.565" lon="-3.5439">
        <ele>190</ele>
        <time>2020-06-10T15:06:32Z</time>
      </trkpt>
      <trkpt lat="48.56503" lon="-3.54389">
        <ele>190.1</ele>
        <time>2020-06-10T15:06:33Z</time>
      </trkpt>
      <trkpt lat="48.56506" lon="-3.54387">
        <ele>190.1</ele>
        <time>2020-06-10T15:06:34Z</time>
      </trkpt>
      <trkpt lat="48.56508" lon="-3.54387">
        <ele>190.2</ele>
        <time>2020-06-10T15:06:35Z</time>
      </trkpt>
      <trkpt lat="48.56509" lon="-3.54387">
        <ele>190.2</ele>
        <time>2020-06-10T15:06:36Z</time>
      </trkpt>
      <trkpt lat="48.56509" lon="-3.54386">
        <ele>190.2</ele>
        <time>2020-06-10T15:06:37Z</time>
      </trkpt>
      <trkpt lat="48.56509" lon="-3.54386">
        <ele>190.2</ele>
        <time>2020-06-10T15:06:38Z</time>
      </trkpt>
      <trkpt lat="48.56509" lon="-3.54386">
        <ele>190.2</ele>
        <time>2020-06-10T15:06:39Z</time>
      </trkpt>
      <trkpt lat="48.5651" lon="-3.54385">
        <ele>190.2</ele>
        <time>2020-06-10T15:06:40Z</time>
      </trkpt>
      <trkpt lat="48.5651" lon="-3.54385">
        <ele>190.2</ele>
        <time>2020-06-10T15:06:41Z</time>
      </trkpt>
      <trkpt lat="48.5651" lon="-3.54385">
        <ele>190.2</ele>
        <time>2020-06-10T15:06:42Z</time>
      </trkpt>
      <trkpt lat="48.56511" lon="-3.54385">
        <ele>190.2</ele>
        <time>2020-06-10T15:06:43Z</time>
      </trkpt>
      <trkpt lat="48.56511" lon="-3.54384">
        <ele>190.2</ele>
        <time>2020-06-10T15:06:44Z</time>
      </trkpt>
      <trkpt lat="48.56511" lon="-3.54384">
        <ele>190.2</ele>
        <time>2020-06-10T15:06:45Z</time>
      </trkpt>
      <trkpt lat="48.56512" lon="-3.54384">
        <ele>190.2</ele>
        <time>2020-06-10T15:06:46Z</time>
      </trkpt>
      <trkpt lat="48.56512" lon="-3.54384">
        <ele>190.3</ele>
        <time>2020-06-10T15:06:47Z</time>
      </trkpt>
      <trkpt lat="48.56512" lon="-3.54383">
        <ele>190.3</ele>
        <time>2020-06-10T15:07:14Z</time>
      </trkpt>
      <trkpt lat="48.56512" lon="-3.54383">
        <ele>190.3</ele>
        <time>2020-06-10T15:07:15Z</time>
      </trkpt>
      <trkpt lat="48.56516" lon="-3.54382">
        <ele>190.3</ele>
        <time>2020-06-10T15:07:16Z</time>
      </trkpt>
      <trkpt lat="48.56517" lon="-3.54382">
        <ele>190.3</ele>
        <time>2020-06-10T15:07:17Z</time>
      </trkpt>
      <trkpt lat="48.56521" lon="-3.54378">
        <ele>190.4</ele>
        <time>2020-06-10T15:07:18Z</time>
      </trkpt>
      <trkpt lat="48.56522" lon="-3.54376">
        <ele>190.4</ele>
        <time>2020-06-10T15:07:19Z</time>
      </trkpt>
      <trkpt lat="48.56525" lon="-3.54373">
        <ele>190.5</ele>
        <time>2020-06-10T15:07:20Z</time>
      </trkpt>
      <trkpt lat="48.56528" lon="-3.54371">
        <ele>190.6</ele>
        <time>2020-06-10T15:07:21Z</time>
      </trkpt>
      <trkpt lat="48.56531" lon="-3.54369">
        <ele>190.6</ele>
        <time>2020-06-10T15:07:22Z</time>
      </trkpt>
      <trkpt lat="48.56534" lon="-3.54367">
        <ele>190.7</ele>
        <time>2020-06-10T15:07:23Z</time>
      </trkpt>
      <trkpt lat="48.56537" lon="-3.54365">
        <ele>190.7</ele>
        <time>2020-06-10T15:07:24Z</time>
      </trkpt>
      <trkpt lat="48.5654" lon="-3.54364">
        <ele>190.7</ele>
        <time>2020-06-10T15:07:25Z</time>
      </trkpt>
      <trkpt lat="48.56543" lon="-3.54362">
        <ele>190.8</ele>
        <time>2020-06-10T15:07:26Z</time>
      </trkpt>
      <trkpt lat="48.56547" lon="-3.54361">
        <ele>190.8</ele>
        <time>2020-06-10T15:07:27Z</time>
      </trkpt>
      <trkpt lat="48.56548" lon="-3.54361">
        <ele>190.9</ele>
        <time>2020-06-10T15:07:28Z</time>
      </trkpt>
      <trkpt lat="48.56552" lon="-3.54361">
        <ele>190.9</ele>
        <time>2020-06-10T15:07:29Z</time>
      </trkpt>
      <trkpt lat="48.56556" lon="-3.5436">
        <ele>191</ele>
        <time>2020-06-10T15:07:30Z</time>
      </trkpt>
      <trkpt lat="48.56559" lon="-3.54359">
        <ele>191</ele>
        <time>2020-06-10T15:07:31Z</time>
      </trkpt>
      <trkpt lat="48.56563" lon="-3.54358">
        <ele>191.1</ele>
        <time>2020-06-10T15:07:32Z</time>
      </trkpt>
      <trkpt lat="48.56565" lon="-3.54358">
        <ele>191.1</ele>
        <time>2020-06-10T15:07:33Z</time>
      </trkpt>
      <trkpt lat="48.56568" lon="-3.54356">
        <ele>191.2</ele>
        <time>2020-06-10T15:07:34Z</time>
      </trkpt>
      <trkpt lat="48.56572" lon="-3.54354">
        <ele>191.2</ele>
        <time>2020-06-10T15:07:35Z</time>
      </trkpt>
      <trkpt lat="48.56575" lon="-3.54352">
        <ele>191.2</ele>
        <time>2020-06-10T15:07:36Z</time>
      </trkpt>
      <trkpt lat="48.56578" lon="-3.54351">
        <ele>191.3</ele>
        <time>2020-06-10T15:07:37Z</time>
      </trkpt>
      <trkpt lat="48.56581" lon="-3.54351">
        <ele>191.3</ele>
        <time>2020-06-10T15:07:38Z</time>
      </trkpt>
      <trkpt lat="48.56584" lon="-3.54351">
        <ele>191.3</ele>
        <time>2020-06-10T15:07:39Z</time>
      </trkpt>
      <trkpt lat="48.56587" lon="-3.5435">
        <ele>191.3</ele>
        <time>2020-06-10T15:07:40Z</time>
      </trkpt>
      <trkpt lat="48.5659" lon="-3.54349">
        <ele>191.3</ele>
        <time>2020-06-10T15:07:41Z</time>
      </trkpt>
      <trkpt lat="48.56594" lon="-3.54349">
        <ele>191.4</ele>
        <time>2020-06-10T15:07:42Z</time>
      </trkpt>
      <trkpt lat="48.56597" lon="-3.54347">
        <ele>191.4</ele>
        <time>2020-06-10T15:07:43Z</time>
      </trkpt>
      <trkpt lat="48.566" lon="-3.54347">
        <ele>191.4</ele>
        <time>2020-06-10T15:07:44Z</time>
      </trkpt>
      <trkpt lat="48.56603" lon="-3.54346">
        <ele>191.3</ele>
        <time>2020-06-10T15:07:45Z</time>
      </trkpt>
      <trkpt lat="48.56606" lon="-3.54345">
        <ele>191.3</ele>
        <time>2020-06-10T15:07:46Z</time>
      </trkpt>
      <trkpt lat="48.56609" lon="-3.54344">
        <ele>191.3</ele>
        <time>2020-06-10T15:07:47Z</time>
      </trkpt>
      <trkpt lat="48.56612" lon="-3.54343">
        <ele>191.3</ele>
        <time>2020-06-10T15:07:48Z</time>
      </trkpt>
      <trkpt lat="48.56616" lon="-3.5434">
        <ele>191.3</ele>
        <time>2020-06-10T15:07:49Z</time>
      </trkpt>
      <trkpt lat="48.56617" lon="-3.54339">
        <ele>191.3</ele>
        <time>2020-06-10T15:07:50Z</time>
      </trkpt>
      <trkpt lat="48.5662" lon="-3.54338">
        <ele>191.3</ele>
        <time>2020-06-10T15:07:51Z</time>
      </trkpt>
      <trkpt lat="48.56622" lon="-3.54335">
        <ele>191.3</ele>
        <time>2020-06-10T15:07:52Z</time>
      </trkpt>
      <trkpt lat="48.56626" lon="-3.54332">
        <ele>191.3</ele>
        <time>2020-06-10T15:07:53Z</time>
      </trkpt>
      <trkpt lat="48.56627" lon="-3.5433">
        <ele>191.3</ele>
        <time>2020-06-10T15:07:54Z</time>
      </trkpt>
      <trkpt lat="48.56629" lon="-3.54326">
        <ele>191.3</ele>
        <time>2020-06-10T15:07:55Z</time>
      </trkpt>
      <trkpt lat="48.56629" lon="-3.54324">
        <ele>191.2</ele>
        <time>2020-06-10T15:07:56Z</time>
      </trkpt>
      <trkpt lat="48.5663" lon="-3.54318">
        <ele>191.2</ele>
        <time>2020-06-10T15:07:57Z</time>
      </trkpt>
      <trkpt lat="48.56631" lon="-3.54313">
        <ele>191.2</ele>
        <time>2020-06-10T15:07:58Z</time>
      </trkpt>
      <trkpt lat="48.5663" lon="-3.54307">
        <ele>191.2</ele>
        <time>2020-06-10T15:07:59Z</time>
      </trkpt>
      <trkpt lat="48.5663" lon="-3.54305">
        <ele>191.2</ele>
        <time>2020-06-10T15:08:00Z</time>
      </trkpt>
      <trkpt lat="48.5663" lon="-3.54301">
        <ele>191.3</ele>
        <time>2020-06-10T15:08:01Z</time>
      </trkpt>
      <trkpt lat="48.5663" lon="-3.54295">
        <ele>191.3</ele>
        <time>2020-06-10T15:08:02Z</time>
      </trkpt>
      <trkpt lat="48.56629" lon="-3.5429">
        <ele>191.3</ele>
        <time>2020-06-10T15:08:03Z</time>
      </trkpt>
      <trkpt lat="48.56629" lon="-3.54285">
        <ele>191.3</ele>
        <time>2020-06-10T15:08:04Z</time>
      </trkpt>
      <trkpt lat="48.56628" lon="-3.5428">
        <ele>191.4</ele>
        <time>2020-06-10T15:08:05Z</time>
      </trkpt>
      <trkpt lat="48.56627" lon="-3.54276">
        <ele>191.4</ele>
        <time>2020-06-10T15:08:06Z</time>
      </trkpt>
      <trkpt lat="48.56627" lon="-3.5427">
        <ele>191.5</ele>
        <time>2020-06-10T15:08:07Z</time>
      </trkpt>
      <trkpt lat="48.56626" lon="-3.54265">
        <ele>191.7</ele>
        <time>2020-06-10T15:08:08Z</time>
      </trkpt>
      <trkpt lat="48.56626" lon="-3.5426">
        <ele>191.8</ele>
        <time>2020-06-10T15:08:09Z</time>
      </trkpt>
      <trkpt lat="48.56625" lon="-3.54255">
        <ele>191.9</ele>
        <time>2020-06-10T15:08:10Z</time>
      </trkpt>
      <trkpt lat="48.56626" lon="-3.54251">
        <ele>192</ele>
        <time>2020-06-10T15:08:11Z</time>
      </trkpt>
      <trkpt lat="48.56626" lon="-3.54246">
        <ele>192.1</ele>
        <time>2020-06-10T15:08:12Z</time>
      </trkpt>
      <trkpt lat="48.56626" lon="-3.5424">
        <ele>192.2</ele>
        <time>2020-06-10T15:08:13Z</time>
      </trkpt>
      <trkpt lat="48.56626" lon="-3.54234">
        <ele>192.4</ele>
        <time>2020-06-10T15:08:14Z</time>
      </trkpt>
      <trkpt lat="48.56626" lon="-3.54229">
        <ele>192.5</ele>
        <time>2020-06-10T15:08:15Z</time>
      </trkpt>
      <trkpt lat="48.56626" lon="-3.54224">
        <ele>192.7</ele>
        <time>2020-06-10T15:08:16Z</time>
      </trkpt>
      <trkpt lat="48.56625" lon="-3.5422">
        <ele>192.8</ele>
        <time>2020-06-10T15:08:17Z</time>
      </trkpt>
      <trkpt lat="48.56624" lon="-3.54216">
        <ele>192.9</ele>
        <time>2020-06-10T15:08:18Z</time>
      </trkpt>
      <trkpt lat="48.56624" lon="-3.54211">
        <ele>193.1</ele>
        <time>2020-06-10T15:08:19Z</time>
      </trkpt>
      <trkpt lat="48.56623" lon="-3.54204">
        <ele>193.4</ele>
        <time>2020-06-10T15:08:20Z</time>
      </trkpt>
      <trkpt lat="48.56623" lon="-3.54201">
        <ele>193.5</ele>
        <time>2020-06-10T15:08:21Z</time>
      </trkpt>
      <trkpt lat="48.56623" lon="-3.54197">
        <ele>193.7</ele>
        <time>2020-06-10T15:08:22Z</time>
      </trkpt>
      <trkpt lat="48.56622" lon="-3.54191">
        <ele>193.9</ele>
        <time>2020-06-10T15:08:23Z</time>
      </trkpt>
      <trkpt lat="48.56622" lon="-3.5419">
        <ele>193.9</ele>
        <time>2020-06-10T15:08:24Z</time>
      </trkpt>
      <trkpt lat="48.56621" lon="-3.54185">
        <ele>194.1</ele>
        <time>2020-06-10T15:08:25Z</time>
      </trkpt>
      <trkpt lat="48.56619" lon="-3.54181">
        <ele>194.4</ele>
        <time>2020-06-10T15:08:26Z</time>
      </trkpt>
      <trkpt lat="48.56618" lon="-3.54176">
        <ele>194.5</ele>
        <time>2020-06-10T15:08:27Z</time>
      </trkpt>
      <trkpt lat="48.56618" lon="-3.5417">
        <ele>194.8</ele>
        <time>2020-06-10T15:08:28Z</time>
      </trkpt>
      <trkpt lat="48.56618" lon="-3.54168">
        <ele>194.8</ele>
        <time>2020-06-10T15:08:29Z</time>
      </trkpt>
      <trkpt lat="48.56618" lon="-3.54164">
        <ele>195.2</ele>
        <time>2020-06-10T15:08:30Z</time>
      </trkpt>
      <trkpt lat="48.56618" lon="-3.54163">
        <ele>195.2</ele>
        <time>2020-06-10T15:08:31Z</time>
      </trkpt>
      <trkpt lat="48.56618" lon="-3.54158">
        <ele>195.4</ele>
        <time>2020-06-10T15:08:32Z</time>
      </trkpt>
      <trkpt lat="48.56618" lon="-3.54156">
        <ele>195.5</ele>
        <time>2020-06-10T15:08:33Z</time>
      </trkpt>
      <trkpt lat="48.56618" lon="-3.54151">
        <ele>195.7</ele>
        <time>2020-06-10T15:08:34Z</time>
      </trkpt>
      <trkpt lat="48.56618" lon="-3.54149">
        <ele>195.8</ele>
        <time>2020-06-10T15:08:35Z</time>
      </trkpt>
      <trkpt lat="48.56618" lon="-3.54144">
        <ele>196</ele>
        <time>2020-06-10T15:08:36Z</time>
      </trkpt>
      <trkpt lat="48.56619" lon="-3.54143">
        <ele>196</ele>
        <time>2020-06-10T15:08:37Z</time>
      </trkpt>
      <trkpt lat="48.56618" lon="-3.54137">
        <ele>196.2</ele>
        <time>2020-06-10T15:08:38Z</time>
      </trkpt>
      <trkpt lat="48.56618" lon="-3.54135">
        <ele>196.3</ele>
        <time>2020-06-10T15:08:39Z</time>
      </trkpt>
      <trkpt lat="48.56618" lon="-3.54129">
        <ele>196.6</ele>
        <time>2020-06-10T15:08:40Z</time>
      </trkpt>
      <trkpt lat="48.56619" lon="-3.54127">
        <ele>196.7</ele>
        <time>2020-06-10T15:08:41Z</time>
      </trkpt>
      <trkpt lat="48.56619" lon="-3.54122">
        <ele>196.9</ele>
        <time>2020-06-10T15:08:42Z</time>
      </trkpt>
      <trkpt lat="48.56619" lon="-3.5412">
        <ele>196.9</ele>
        <time>2020-06-10T15:08:43Z</time>
      </trkpt>
      <trkpt lat="48.56619" lon="-3.54116">
        <ele>197.1</ele>
        <time>2020-06-10T15:08:44Z</time>
      </trkpt>
      <trkpt lat="48.56618" lon="-3.54115">
        <ele>197.2</ele>
        <time>2020-06-10T15:08:45Z</time>
      </trkpt>
      <trkpt lat="48.56618" lon="-3.54109">
        <ele>197.4</ele>
        <time>2020-06-10T15:08:46Z</time>
      </trkpt>
      <trkpt lat="48.56617" lon="-3.54107">
        <ele>197.5</ele>
        <time>2020-06-10T15:08:47Z</time>
      </trkpt>
      <trkpt lat="48.56617" lon="-3.54101">
        <ele>197.7</ele>
        <time>2020-06-10T15:08:48Z</time>
      </trkpt>
      <trkpt lat="48.56617" lon="-3.54099">
        <ele>197.8</ele>
        <time>2020-06-10T15:08:49Z</time>
      </trkpt>
      <trkpt lat="48.56616" lon="-3.54093">
        <ele>198.1</ele>
        <time>2020-06-10T15:08:50Z</time>
      </trkpt>
      <trkpt lat="48.56616" lon="-3.54091">
        <ele>198.2</ele>
        <time>2020-06-10T15:08:51Z</time>
      </trkpt>
      <trkpt lat="48.56616" lon="-3.54087">
        <ele>198.3</ele>
        <time>2020-06-10T15:08:52Z</time>
      </trkpt>
      <trkpt lat="48.56615" lon="-3.54083">
        <ele>198.5</ele>
        <time>2020-06-10T15:08:53Z</time>
      </trkpt>
      <trkpt lat="48.56615" lon="-3.54078">
        <ele>198.7</ele>
        <time>2020-06-10T15:08:54Z</time>
      </trkpt>
      <trkpt lat="48.56614" lon="-3.54074">
        <ele>198.9</ele>
        <time>2020-06-10T15:08:55Z</time>
      </trkpt>
      <trkpt lat="48.56614" lon="-3.5407">
        <ele>199</ele>
        <time>2020-06-10T15:08:56Z</time>
      </trkpt>
      <trkpt lat="48.56614" lon="-3.54066">
        <ele>199.2</ele>
        <time>2020-06-10T15:08:57Z</time>
      </trkpt>
      <trkpt lat="48.56613" lon="-3.5406">
        <ele>199.3</ele>
        <time>2020-06-10T15:08:58Z</time>
      </trkpt>
      <trkpt lat="48.56613" lon="-3.54058">
        <ele>199.4</ele>
        <time>2020-06-10T15:08:59Z</time>
      </trkpt>
      <trkpt lat="48.56613" lon="-3.54054">
        <ele>199.6</ele>
        <time>2020-06-10T15:09:00Z</time>
      </trkpt>
      <trkpt lat="48.56613" lon="-3.54048">
        <ele>199.8</ele>
        <time>2020-06-10T15:09:01Z</time>
      </trkpt>
      <trkpt lat="48.56613" lon="-3.54046">
        <ele>199.9</ele>
        <time>2020-06-10T15:09:02Z</time>
      </trkpt>
      <trkpt lat="48.56612" lon="-3.54042">
        <ele>200.2</ele>
        <time>2020-06-10T15:09:03Z</time>
      </trkpt>
      <trkpt lat="48.56612" lon="-3.54037">
        <ele>200.5</ele>
        <time>2020-06-10T15:09:04Z</time>
      </trkpt>
      <trkpt lat="48.56612" lon="-3.54035">
        <ele>200.5</ele>
        <time>2020-06-10T15:09:05Z</time>
      </trkpt>
      <trkpt lat="48.56612" lon="-3.54029">
        <ele>200.9</ele>
        <time>2020-06-10T15:09:06Z</time>
      </trkpt>
      <trkpt lat="48.56611" lon="-3.54027">
        <ele>201</ele>
        <time>2020-06-10T15:09:07Z</time>
      </trkpt>
      <trkpt lat="48.56612" lon="-3.54023">
        <ele>201.2</ele>
        <time>2020-06-10T15:09:08Z</time>
      </trkpt>
      <trkpt lat="48.56612" lon="-3.54018">
        <ele>201.4</ele>
        <time>2020-06-10T15:09:09Z</time>
      </trkpt>
      <trkpt lat="48.56611" lon="-3.54016">
        <ele>201.5</ele>
        <time>2020-06-10T15:09:10Z</time>
      </trkpt>
      <trkpt lat="48.56611" lon="-3.54011">
        <ele>201.7</ele>
        <time>2020-06-10T15:09:11Z</time>
      </trkpt>
      <trkpt lat="48.56611" lon="-3.54009">
        <ele>201.8</ele>
        <time>2020-06-10T15:09:12Z</time>
      </trkpt>
      <trkpt lat="48.5661" lon="-3.54005">
        <ele>202</ele>
        <time>2020-06-10T15:09:13Z</time>
      </trkpt>
      <trkpt lat="48.5661" lon="-3.54001">
        <ele>202.2</ele>
        <time>2020-06-10T15:09:14Z</time>
      </trkpt>
      <trkpt lat="48.56609" lon="-3.53997">
        <ele>202.3</ele>
        <time>2020-06-10T15:09:15Z</time>
      </trkpt>
      <trkpt lat="48.5661" lon="-3.53991">
        <ele>202.5</ele>
        <time>2020-06-10T15:09:16Z</time>
      </trkpt>
      <trkpt lat="48.5661" lon="-3.53989">
        <ele>202.6</ele>
        <time>2020-06-10T15:09:17Z</time>
      </trkpt>
      <trkpt lat="48.56609" lon="-3.53985">
        <ele>202.8</ele>
        <time>2020-06-10T15:09:18Z</time>
      </trkpt>
      <trkpt lat="48.56609" lon="-3.53981">
        <ele>202.9</ele>
        <time>2020-06-10T15:09:19Z</time>
      </trkpt>
      <trkpt lat="48.56609" lon="-3.53977">
        <ele>203.1</ele>
        <time>2020-06-10T15:09:20Z</time>
      </trkpt>
      <trkpt lat="48.56608" lon="-3.53971">
        <ele>203.4</ele>
        <time>2020-06-10T15:09:21Z</time>
      </trkpt>
      <trkpt lat="48.56607" lon="-3.53969">
        <ele>203.4</ele>
        <time>2020-06-10T15:09:22Z</time>
      </trkpt>
      <trkpt lat="48.56607" lon="-3.53963">
        <ele>203.7</ele>
        <time>2020-06-10T15:09:23Z</time>
      </trkpt>
      <trkpt lat="48.56608" lon="-3.53961">
        <ele>203.7</ele>
        <time>2020-06-10T15:09:24Z</time>
      </trkpt>
      <trkpt lat="48.56608" lon="-3.53957">
        <ele>203.9</ele>
        <time>2020-06-10T15:09:25Z</time>
      </trkpt>
      <trkpt lat="48.56607" lon="-3.53953">
        <ele>204.1</ele>
        <time>2020-06-10T15:09:26Z</time>
      </trkpt>
      <trkpt lat="48.56606" lon="-3.53947">
        <ele>204.3</ele>
        <time>2020-06-10T15:09:27Z</time>
      </trkpt>
      <trkpt lat="48.56606" lon="-3.53945">
        <ele>204.4</ele>
        <time>2020-06-10T15:09:28Z</time>
      </trkpt>
      <trkpt lat="48.56605" lon="-3.53939">
        <ele>204.6</ele>
        <time>2020-06-10T15:09:29Z</time>
      </trkpt>
      <trkpt lat="48.56604" lon="-3.53937">
        <ele>204.7</ele>
        <time>2020-06-10T15:09:30Z</time>
      </trkpt>
      <trkpt lat="48.56603" lon="-3.53932">
        <ele>204.9</ele>
        <time>2020-06-10T15:09:31Z</time>
      </trkpt>
      <trkpt lat="48.56602" lon="-3.53927">
        <ele>205.1</ele>
        <time>2020-06-10T15:09:32Z</time>
      </trkpt>
      <trkpt lat="48.56601" lon="-3.53923">
        <ele>205.2</ele>
        <time>2020-06-10T15:09:33Z</time>
      </trkpt>
      <trkpt lat="48.566" lon="-3.53918">
        <ele>205.4</ele>
        <time>2020-06-10T15:09:34Z</time>
      </trkpt>
      <trkpt lat="48.566" lon="-3.53914">
        <ele>205.5</ele>
        <time>2020-06-10T15:09:35Z</time>
      </trkpt>
      <trkpt lat="48.56599" lon="-3.5391">
        <ele>205.6</ele>
        <time>2020-06-10T15:09:36Z</time>
      </trkpt>
      <trkpt lat="48.56598" lon="-3.53905">
        <ele>205.7</ele>
        <time>2020-06-10T15:09:37Z</time>
      </trkpt>
      <trkpt lat="48.56598" lon="-3.53901">
        <ele>205.9</ele>
        <time>2020-06-10T15:09:38Z</time>
      </trkpt>
      <trkpt lat="48.56598" lon="-3.53896">
        <ele>206</ele>
        <time>2020-06-10T15:09:39Z</time>
      </trkpt>
      <trkpt lat="48.56598" lon="-3.53891">
        <ele>206.2</ele>
        <time>2020-06-10T15:09:40Z</time>
      </trkpt>
      <trkpt lat="48.56598" lon="-3.53886">
        <ele>206.3</ele>
        <time>2020-06-10T15:09:41Z</time>
      </trkpt>
      <trkpt lat="48.56598" lon="-3.5388">
        <ele>206.5</ele>
        <time>2020-06-10T15:09:42Z</time>
      </trkpt>
      <trkpt lat="48.56598" lon="-3.53879">
        <ele>206.5</ele>
        <time>2020-06-10T15:09:43Z</time>
      </trkpt>
      <trkpt lat="48.56597" lon="-3.53875">
        <ele>206.6</ele>
        <time>2020-06-10T15:09:44Z</time>
      </trkpt>
      <trkpt lat="48.56596" lon="-3.5387">
        <ele>206.7</ele>
        <time>2020-06-10T15:09:45Z</time>
      </trkpt>
      <trkpt lat="48.56595" lon="-3.53865">
        <ele>206.8</ele>
        <time>2020-06-10T15:09:46Z</time>
      </trkpt>
      <trkpt lat="48.56595" lon="-3.53864">
        <ele>206.9</ele>
        <time>2020-06-10T15:09:47Z</time>
      </trkpt>
      <trkpt lat="48.56595" lon="-3.53859">
        <ele>207</ele>
        <time>2020-06-10T15:09:48Z</time>
      </trkpt>
      <trkpt lat="48.56594" lon="-3.53858">
        <ele>207</ele>
        <time>2020-06-10T15:09:49Z</time>
      </trkpt>
      <trkpt lat="48.56594" lon="-3.53853">
        <ele>207.1</ele>
        <time>2020-06-10T15:09:50Z</time>
      </trkpt>
      <trkpt lat="48.56593" lon="-3.53851">
        <ele>207.1</ele>
        <time>2020-06-10T15:09:51Z</time>
      </trkpt>
      <trkpt lat="48.56593" lon="-3.53848">
        <ele>207.1</ele>
        <time>2020-06-10T15:09:52Z</time>
      </trkpt>
      <trkpt lat="48.56593" lon="-3.53846">
        <ele>207.2</ele>
        <time>2020-06-10T15:09:53Z</time>
      </trkpt>
      <trkpt lat="48.56592" lon="-3.53842">
        <ele>207.2</ele>
        <time>2020-06-10T15:09:54Z</time>
      </trkpt>
      <trkpt lat="48.56592" lon="-3.5384">
        <ele>207.2</ele>
        <time>2020-06-10T15:09:55Z</time>
      </trkpt>
      <trkpt lat="48.56593" lon="-3.53839">
        <ele>207.3</ele>
        <time>2020-06-10T15:09:56Z</time>
      </trkpt>
      <trkpt lat="48.56592" lon="-3.53836">
        <ele>207.3</ele>
        <time>2020-06-10T15:09:57Z</time>
      </trkpt>
      <trkpt lat="48.56592" lon="-3.53832">
        <ele>207.4</ele>
        <time>2020-06-10T15:09:58Z</time>
      </trkpt>
      <trkpt lat="48.56592" lon="-3.5383">
        <ele>207.4</ele>
        <time>2020-06-10T15:09:59Z</time>
      </trkpt>
      <trkpt lat="48.56592" lon="-3.53826">
        <ele>207.4</ele>
        <time>2020-06-10T15:10:00Z</time>
      </trkpt>
      <trkpt lat="48.56591" lon="-3.53824">
        <ele>207.4</ele>
        <time>2020-06-10T15:10:01Z</time>
      </trkpt>
      <trkpt lat="48.5659" lon="-3.5382">
        <ele>207.5</ele>
        <time>2020-06-10T15:10:02Z</time>
      </trkpt>
      <trkpt lat="48.56589" lon="-3.53818">
        <ele>207.5</ele>
        <time>2020-06-10T15:10:03Z</time>
      </trkpt>
      <trkpt lat="48.56589" lon="-3.53814">
        <ele>207.5</ele>
        <time>2020-06-10T15:10:04Z</time>
      </trkpt>
      <trkpt lat="48.56588" lon="-3.53813">
        <ele>207.6</ele>
        <time>2020-06-10T15:10:05Z</time>
      </trkpt>
      <trkpt lat="48.56587" lon="-3.53809">
        <ele>207.6</ele>
        <time>2020-06-10T15:10:06Z</time>
      </trkpt>
      <trkpt lat="48.56588" lon="-3.53806">
        <ele>207.6</ele>
        <time>2020-06-10T15:10:07Z</time>
      </trkpt>
      <trkpt lat="48.56588" lon="-3.53804">
        <ele>207.6</ele>
        <time>2020-06-10T15:10:08Z</time>
      </trkpt>
      <trkpt lat="48.56587" lon="-3.53801">
        <ele>207.6</ele>
        <time>2020-06-10T15:10:09Z</time>
      </trkpt>
      <trkpt lat="48.56587" lon="-3.53799">
        <ele>207.6</ele>
        <time>2020-06-10T15:10:10Z</time>
      </trkpt>
      <trkpt lat="48.56586" lon="-3.53794">
        <ele>207.6</ele>
        <time>2020-06-10T15:10:11Z</time>
      </trkpt>
      <trkpt lat="48.56585" lon="-3.53792">
        <ele>207.6</ele>
        <time>2020-06-10T15:10:12Z</time>
      </trkpt>
      <trkpt lat="48.56585" lon="-3.53787">
        <ele>207.6</ele>
        <time>2020-06-10T15:10:13Z</time>
      </trkpt>
      <trkpt lat="48.56585" lon="-3.53785">
        <ele>207.6</ele>
        <time>2020-06-10T15:10:14Z</time>
      </trkpt>
      <trkpt lat="48.56585" lon="-3.53783">
        <ele>207.6</ele>
        <time>2020-06-10T15:10:15Z</time>
      </trkpt>
      <trkpt lat="48.56584" lon="-3.53781">
        <ele>207.6</ele>
        <time>2020-06-10T15:10:16Z</time>
      </trkpt>
      <trkpt lat="48.56584" lon="-3.5378">
        <ele>207.6</ele>
        <time>2020-06-10T15:10:17Z</time>
      </trkpt>
      <trkpt lat="48.56584" lon="-3.53781">
        <ele>207.6</ele>
        <time>2020-06-10T15:10:18Z</time>
      </trkpt>
      <trkpt lat="48.56584" lon="-3.53782">
        <ele>207.6</ele>
        <time>2020-06-10T15:10:19Z</time>
      </trkpt>
      <trkpt lat="48.56584" lon="-3.53781">
        <ele>207.6</ele>
        <time>2020-06-10T15:10:20Z</time>
      </trkpt>
      <trkpt lat="48.56584" lon="-3.53781">
        <ele>207.6</ele>
        <time>2020-06-10T15:10:21Z</time>
      </trkpt>
      <trkpt lat="48.56584" lon="-3.53782">
        <ele>207.5</ele>
        <time>2020-06-10T15:10:22Z</time>
      </trkpt>
      <trkpt lat="48.56584" lon="-3.53782">
        <ele>207.5</ele>
        <time>2020-06-10T15:10:23Z</time>
      </trkpt>
      <trkpt lat="48.56584" lon="-3.53781">
        <ele>207.5</ele>
        <time>2020-06-10T15:10:24Z</time>
      </trkpt>
      <trkpt lat="48.56584" lon="-3.53781">
        <ele>207.5</ele>
        <time>2020-06-10T15:10:25Z</time>
      </trkpt>
      <trkpt lat="48.56584" lon="-3.53781">
        <ele>207.5</ele>
        <time>2020-06-10T15:10:26Z</time>
      </trkpt>
      <trkpt lat="48.56584" lon="-3.53778">
        <ele>207.5</ele>
        <time>2020-06-10T15:10:27Z</time>
      </trkpt>
      <trkpt lat="48.56583" lon="-3.53771">
        <ele>207.5</ele>
        <time>2020-06-10T15:10:29Z</time>
      </trkpt>
      <trkpt lat="48.56583" lon="-3.53766">
        <ele>207.4</ele>
        <time>2020-06-10T15:10:30Z</time>
      </trkpt>
      <trkpt lat="48.56582" lon="-3.53761">
        <ele>207.3</ele>
        <time>2020-06-10T15:10:31Z</time>
      </trkpt>
      <trkpt lat="48.56581" lon="-3.53755">
        <ele>207.3</ele>
        <time>2020-06-10T15:10:32Z</time>
      </trkpt>
      <trkpt lat="48.56581" lon="-3.53748">
        <ele>207.1</ele>
        <time>2020-06-10T15:10:33Z</time>
      </trkpt>
      <trkpt lat="48.56581" lon="-3.53741">
        <ele>207</ele>
        <time>2020-06-10T15:10:34Z</time>
      </trkpt>
      <trkpt lat="48.5658" lon="-3.53735">
        <ele>206.9</ele>
        <time>2020-06-10T15:10:35Z</time>
      </trkpt>
      <trkpt lat="48.5658" lon="-3.53728">
        <ele>206.7</ele>
        <time>2020-06-10T15:10:36Z</time>
      </trkpt>
      <trkpt lat="48.56579" lon="-3.53722">
        <ele>206.6</ele>
        <time>2020-06-10T15:10:37Z</time>
      </trkpt>
      <trkpt lat="48.5658" lon="-3.53717">
        <ele>206.5</ele>
        <time>2020-06-10T15:10:38Z</time>
      </trkpt>
      <trkpt lat="48.5658" lon="-3.53714">
        <ele>206.4</ele>
        <time>2020-06-10T15:10:39Z</time>
      </trkpt>
      <trkpt lat="48.5658" lon="-3.53713">
        <ele>206.4</ele>
        <time>2020-06-10T15:10:40Z</time>
      </trkpt>
      <trkpt lat="48.5658" lon="-3.53712">
        <ele>206.4</ele>
        <time>2020-06-10T15:10:41Z</time>
      </trkpt>
      <trkpt lat="48.56579" lon="-3.53711">
        <ele>206.3</ele>
        <time>2020-06-10T15:10:42Z</time>
      </trkpt>
      <trkpt lat="48.5658" lon="-3.53711">
        <ele>206.3</ele>
        <time>2020-06-10T15:10:43Z</time>
      </trkpt>
      <trkpt lat="48.56579" lon="-3.53709">
        <ele>206.3</ele>
        <time>2020-06-10T15:10:44Z</time>
      </trkpt>
      <trkpt lat="48.56579" lon="-3.53708">
        <ele>206.2</ele>
        <time>2020-06-10T15:10:45Z</time>
      </trkpt>
      <trkpt lat="48.56578" lon="-3.53709">
        <ele>206.2</ele>
        <time>2020-06-10T15:10:46Z</time>
      </trkpt>
      <trkpt lat="48.56578" lon="-3.53709">
        <ele>206.2</ele>
        <time>2020-06-10T15:10:47Z</time>
      </trkpt>
      <trkpt lat="48.56578" lon="-3.53708">
        <ele>206.2</ele>
        <time>2020-06-10T15:10:48Z</time>
      </trkpt>
      <trkpt lat="48.56578" lon="-3.53707">
        <ele>206.2</ele>
        <time>2020-06-10T15:10:49Z</time>
      </trkpt>
      <trkpt lat="48.56578" lon="-3.53704">
        <ele>206.1</ele>
        <time>2020-06-10T15:10:50Z</time>
      </trkpt>
      <trkpt lat="48.56579" lon="-3.53702">
        <ele>206</ele>
        <time>2020-06-10T15:10:51Z</time>
      </trkpt>
      <trkpt lat="48.56579" lon="-3.537">
        <ele>206</ele>
        <time>2020-06-10T15:10:52Z</time>
      </trkpt>
      <trkpt lat="48.5658" lon="-3.53696">
        <ele>205.9</ele>
        <time>2020-06-10T15:10:53Z</time>
      </trkpt>
      <trkpt lat="48.5658" lon="-3.53695">
        <ele>205.9</ele>
        <time>2020-06-10T15:10:54Z</time>
      </trkpt>
      <trkpt lat="48.5658" lon="-3.5369">
        <ele>205.8</ele>
        <time>2020-06-10T15:10:55Z</time>
      </trkpt>
      <trkpt lat="48.56579" lon="-3.53684">
        <ele>205.7</ele>
        <time>2020-06-10T15:10:56Z</time>
      </trkpt>
      <trkpt lat="48.56579" lon="-3.53677">
        <ele>205.5</ele>
        <time>2020-06-10T15:10:57Z</time>
      </trkpt>
      <trkpt lat="48.5658" lon="-3.5367">
        <ele>205.3</ele>
        <time>2020-06-10T15:10:58Z</time>
      </trkpt>
      <trkpt lat="48.5658" lon="-3.53664">
        <ele>205.2</ele>
        <time>2020-06-10T15:10:59Z</time>
      </trkpt>
      <trkpt lat="48.56579" lon="-3.53659">
        <ele>205.1</ele>
        <time>2020-06-10T15:11:00Z</time>
      </trkpt>
      <trkpt lat="48.56579" lon="-3.53654">
        <ele>204.9</ele>
        <time>2020-06-10T15:11:01Z</time>
      </trkpt>
      <trkpt lat="48.56578" lon="-3.53647">
        <ele>204.8</ele>
        <time>2020-06-10T15:11:02Z</time>
      </trkpt>
      <trkpt lat="48.56576" lon="-3.5364">
        <ele>204.6</ele>
        <time>2020-06-10T15:11:03Z</time>
      </trkpt>
      <trkpt lat="48.56575" lon="-3.53631">
        <ele>204.4</ele>
        <time>2020-06-10T15:11:04Z</time>
      </trkpt>
      <trkpt lat="48.56574" lon="-3.53623">
        <ele>204.1</ele>
        <time>2020-06-10T15:11:05Z</time>
      </trkpt>
      <trkpt lat="48.56572" lon="-3.53614">
        <ele>203.9</ele>
        <time>2020-06-10T15:11:06Z</time>
      </trkpt>
      <trkpt lat="48.56571" lon="-3.53605">
        <ele>203.7</ele>
        <time>2020-06-10T15:11:07Z</time>
      </trkpt>
      <trkpt lat="48.5657" lon="-3.53596">
        <ele>203.4</ele>
        <time>2020-06-10T15:11:08Z</time>
      </trkpt>
      <trkpt lat="48.56569" lon="-3.53588">
        <ele>203.3</ele>
        <time>2020-06-10T15:11:09Z</time>
      </trkpt>
      <trkpt lat="48.56567" lon="-3.5358">
        <ele>203.1</ele>
        <time>2020-06-10T15:11:10Z</time>
      </trkpt>
      <trkpt lat="48.56568" lon="-3.53572">
        <ele>202.9</ele>
        <time>2020-06-10T15:11:11Z</time>
      </trkpt>
      <trkpt lat="48.56567" lon="-3.53561">
        <ele>202.7</ele>
        <time>2020-06-10T15:11:12Z</time>
      </trkpt>
      <trkpt lat="48.56566" lon="-3.53553">
        <ele>202.6</ele>
        <time>2020-06-10T15:11:13Z</time>
      </trkpt>
      <trkpt lat="48.56565" lon="-3.53543">
        <ele>202.5</ele>
        <time>2020-06-10T15:11:14Z</time>
      </trkpt>
      <trkpt lat="48.56564" lon="-3.53533">
        <ele>202.4</ele>
        <time>2020-06-10T15:11:15Z</time>
      </trkpt>
      <trkpt lat="48.56564" lon="-3.53524">
        <ele>202.3</ele>
        <time>2020-06-10T15:11:16Z</time>
      </trkpt>
      <trkpt lat="48.56563" lon="-3.53513">
        <ele>202.1</ele>
        <time>2020-06-10T15:11:17Z</time>
      </trkpt>
      <trkpt lat="48.56562" lon="-3.53502">
        <ele>201.8</ele>
        <time>2020-06-10T15:11:18Z</time>
      </trkpt>
      <trkpt lat="48.56561" lon="-3.5349">
        <ele>201.6</ele>
        <time>2020-06-10T15:11:19Z</time>
      </trkpt>
      <trkpt lat="48.5656" lon="-3.53479">
        <ele>201.4</ele>
        <time>2020-06-10T15:11:20Z</time>
      </trkpt>
      <trkpt lat="48.56558" lon="-3.53469">
        <ele>201.3</ele>
        <time>2020-06-10T15:11:21Z</time>
      </trkpt>
      <trkpt lat="48.56556" lon="-3.5346">
        <ele>201.2</ele>
        <time>2020-06-10T15:11:22Z</time>
      </trkpt>
      <trkpt lat="48.56555" lon="-3.5345">
        <ele>201.2</ele>
        <time>2020-06-10T15:11:23Z</time>
      </trkpt>
      <trkpt lat="48.56553" lon="-3.5344">
        <ele>201.1</ele>
        <time>2020-06-10T15:11:24Z</time>
      </trkpt>
      <trkpt lat="48.56552" lon="-3.53431">
        <ele>201.1</ele>
        <time>2020-06-10T15:11:25Z</time>
      </trkpt>
      <trkpt lat="48.56552" lon="-3.53421">
        <ele>201</ele>
        <time>2020-06-10T15:11:26Z</time>
      </trkpt>
      <trkpt lat="48.56551" lon="-3.53412">
        <ele>201</ele>
        <time>2020-06-10T15:11:27Z</time>
      </trkpt>
      <trkpt lat="48.56551" lon="-3.53403">
        <ele>201</ele>
        <time>2020-06-10T15:11:28Z</time>
      </trkpt>
      <trkpt lat="48.5655" lon="-3.53394">
        <ele>201</ele>
        <time>2020-06-10T15:11:29Z</time>
      </trkpt>
      <trkpt lat="48.56549" lon="-3.53386">
        <ele>201</ele>
        <time>2020-06-10T15:11:30Z</time>
      </trkpt>
      <trkpt lat="48.56547" lon="-3.53377">
        <ele>201</ele>
        <time>2020-06-10T15:11:31Z</time>
      </trkpt>
      <trkpt lat="48.56546" lon="-3.53369">
        <ele>201</ele>
        <time>2020-06-10T15:11:32Z</time>
      </trkpt>
      <trkpt lat="48.56546" lon="-3.53363">
        <ele>201</ele>
        <time>2020-06-10T15:11:33Z</time>
      </trkpt>
      <trkpt lat="48.56545" lon="-3.53355">
        <ele>201</ele>
        <time>2020-06-10T15:11:34Z</time>
      </trkpt>
      <trkpt lat="48.56544" lon="-3.53348">
        <ele>201</ele>
        <time>2020-06-10T15:11:35Z</time>
      </trkpt>
      <trkpt lat="48.56544" lon="-3.53338">
        <ele>201</ele>
        <time>2020-06-10T15:11:36Z</time>
      </trkpt>
      <trkpt lat="48.56543" lon="-3.5333">
        <ele>201</ele>
        <time>2020-06-10T15:11:37Z</time>
      </trkpt>
      <trkpt lat="48.56543" lon="-3.53322">
        <ele>201</ele>
        <time>2020-06-10T15:11:38Z</time>
      </trkpt>
      <trkpt lat="48.56542" lon="-3.53314">
        <ele>201</ele>
        <time>2020-06-10T15:11:39Z</time>
      </trkpt>
      <trkpt lat="48.56541" lon="-3.53307">
        <ele>201</ele>
        <time>2020-06-10T15:11:40Z</time>
      </trkpt>
      <trkpt lat="48.5654" lon="-3.533">
        <ele>201</ele>
        <time>2020-06-10T15:11:41Z</time>
      </trkpt>
      <trkpt lat="48.56539" lon="-3.53292">
        <ele>201.1</ele>
        <time>2020-06-10T15:11:42Z</time>
      </trkpt>
      <trkpt lat="48.56538" lon="-3.53285">
        <ele>201.1</ele>
        <time>2020-06-10T15:11:43Z</time>
      </trkpt>
      <trkpt lat="48.56538" lon="-3.53277">
        <ele>201.2</ele>
        <time>2020-06-10T15:11:44Z</time>
      </trkpt>
      <trkpt lat="48.56537" lon="-3.53269">
        <ele>201.2</ele>
        <time>2020-06-10T15:11:45Z</time>
      </trkpt>
      <trkpt lat="48.56537" lon="-3.53264">
        <ele>201.3</ele>
        <time>2020-06-10T15:11:46Z</time>
      </trkpt>
      <trkpt lat="48.56537" lon="-3.53259">
        <ele>201.3</ele>
        <time>2020-06-10T15:11:47Z</time>
      </trkpt>
      <trkpt lat="48.56536" lon="-3.53253">
        <ele>201.4</ele>
        <time>2020-06-10T15:11:48Z</time>
      </trkpt>
      <trkpt lat="48.56535" lon="-3.53245">
        <ele>201.4</ele>
        <time>2020-06-10T15:11:49Z</time>
      </trkpt>
      <trkpt lat="48.56535" lon="-3.53237">
        <ele>201.5</ele>
        <time>2020-06-10T15:11:50Z</time>
      </trkpt>
      <trkpt lat="48.56534" lon="-3.53229">
        <ele>201.5</ele>
        <time>2020-06-10T15:11:51Z</time>
      </trkpt>
      <trkpt lat="48.56533" lon="-3.53222">
        <ele>201.5</ele>
        <time>2020-06-10T15:11:52Z</time>
      </trkpt>
      <trkpt lat="48.56533" lon="-3.53216">
        <ele>201.5</ele>
        <time>2020-06-10T15:11:53Z</time>
      </trkpt>
      <trkpt lat="48.56532" lon="-3.53208">
        <ele>201.5</ele>
        <time>2020-06-10T15:11:54Z</time>
      </trkpt>
      <trkpt lat="48.56531" lon="-3.53199">
        <ele>201.5</ele>
        <time>2020-06-10T15:11:55Z</time>
      </trkpt>
      <trkpt lat="48.56531" lon="-3.53193">
        <ele>201.4</ele>
        <time>2020-06-10T15:11:56Z</time>
      </trkpt>
      <trkpt lat="48.5653" lon="-3.53187">
        <ele>201.4</ele>
        <time>2020-06-10T15:11:57Z</time>
      </trkpt>
      <trkpt lat="48.56528" lon="-3.53179">
        <ele>201.4</ele>
        <time>2020-06-10T15:11:58Z</time>
      </trkpt>
      <trkpt lat="48.56528" lon="-3.53173">
        <ele>201.3</ele>
        <time>2020-06-10T15:11:59Z</time>
      </trkpt>
      <trkpt lat="48.56527" lon="-3.53165">
        <ele>201.3</ele>
        <time>2020-06-10T15:12:00Z</time>
      </trkpt>
      <trkpt lat="48.56526" lon="-3.53157">
        <ele>201.2</ele>
        <time>2020-06-10T15:12:01Z</time>
      </trkpt>
      <trkpt lat="48.56526" lon="-3.53149">
        <ele>201.2</ele>
        <time>2020-06-10T15:12:02Z</time>
      </trkpt>
      <trkpt lat="48.56525" lon="-3.53141">
        <ele>201.1</ele>
        <time>2020-06-10T15:12:03Z</time>
      </trkpt>
      <trkpt lat="48.56525" lon="-3.53135">
        <ele>201.1</ele>
        <time>2020-06-10T15:12:04Z</time>
      </trkpt>
      <trkpt lat="48.56524" lon="-3.53131">
        <ele>201.1</ele>
        <time>2020-06-10T15:12:05Z</time>
      </trkpt>
      <trkpt lat="48.56523" lon="-3.53124">
        <ele>201</ele>
        <time>2020-06-10T15:12:06Z</time>
      </trkpt>
      <trkpt lat="48.56522" lon="-3.53118">
        <ele>201</ele>
        <time>2020-06-10T15:12:07Z</time>
      </trkpt>
      <trkpt lat="48.5652" lon="-3.53111">
        <ele>200.9</ele>
        <time>2020-06-10T15:12:08Z</time>
      </trkpt>
      <trkpt lat="48.56519" lon="-3.53104">
        <ele>200.9</ele>
        <time>2020-06-10T15:12:09Z</time>
      </trkpt>
      <trkpt lat="48.56519" lon="-3.53097">
        <ele>200.8</ele>
        <time>2020-06-10T15:12:10Z</time>
      </trkpt>
      <trkpt lat="48.56518" lon="-3.5309">
        <ele>200.8</ele>
        <time>2020-06-10T15:12:11Z</time>
      </trkpt>
      <trkpt lat="48.56518" lon="-3.53083">
        <ele>200.7</ele>
        <time>2020-06-10T15:12:12Z</time>
      </trkpt>
      <trkpt lat="48.56517" lon="-3.53077">
        <ele>200.7</ele>
        <time>2020-06-10T15:12:13Z</time>
      </trkpt>
      <trkpt lat="48.56516" lon="-3.5307">
        <ele>200.6</ele>
        <time>2020-06-10T15:12:14Z</time>
      </trkpt>
      <trkpt lat="48.56516" lon="-3.53064">
        <ele>200.6</ele>
        <time>2020-06-10T15:12:15Z</time>
      </trkpt>
      <trkpt lat="48.56515" lon="-3.53057">
        <ele>200.5</ele>
        <time>2020-06-10T15:12:16Z</time>
      </trkpt>
      <trkpt lat="48.56515" lon="-3.5305">
        <ele>200.5</ele>
        <time>2020-06-10T15:12:17Z</time>
      </trkpt>
      <trkpt lat="48.56515" lon="-3.53044">
        <ele>200.4</ele>
        <time>2020-06-10T15:12:18Z</time>
      </trkpt>
      <trkpt lat="48.56514" lon="-3.53037">
        <ele>200.4</ele>
        <time>2020-06-10T15:12:19Z</time>
      </trkpt>
      <trkpt lat="48.56513" lon="-3.53031">
        <ele>200.3</ele>
        <time>2020-06-10T15:12:20Z</time>
      </trkpt>
      <trkpt lat="48.56512" lon="-3.53024">
        <ele>200.3</ele>
        <time>2020-06-10T15:12:21Z</time>
      </trkpt>
      <trkpt lat="48.56512" lon="-3.53018">
        <ele>200.2</ele>
        <time>2020-06-10T15:12:22Z</time>
      </trkpt>
      <trkpt lat="48.56512" lon="-3.53012">
        <ele>200.2</ele>
        <time>2020-06-10T15:12:23Z</time>
      </trkpt>
      <trkpt lat="48.5651" lon="-3.53006">
        <ele>200.1</ele>
        <time>2020-06-10T15:12:24Z</time>
      </trkpt>
      <trkpt lat="48.56508" lon="-3.52999">
        <ele>200.1</ele>
        <time>2020-06-10T15:12:25Z</time>
      </trkpt>
      <trkpt lat="48.56507" lon="-3.52993">
        <ele>200</ele>
        <time>2020-06-10T15:12:26Z</time>
      </trkpt>
      <trkpt lat="48.56506" lon="-3.52987">
        <ele>200</ele>
        <time>2020-06-10T15:12:27Z</time>
      </trkpt>
      <trkpt lat="48.56503" lon="-3.52981">
        <ele>200</ele>
        <time>2020-06-10T15:12:28Z</time>
      </trkpt>
      <trkpt lat="48.56503" lon="-3.52974">
        <ele>199.9</ele>
        <time>2020-06-10T15:12:29Z</time>
      </trkpt>
      <trkpt lat="48.56502" lon="-3.52968">
        <ele>199.9</ele>
        <time>2020-06-10T15:12:30Z</time>
      </trkpt>
      <trkpt lat="48.56502" lon="-3.52961">
        <ele>199.9</ele>
        <time>2020-06-10T15:12:31Z</time>
      </trkpt>
      <trkpt lat="48.56502" lon="-3.52955">
        <ele>199.8</ele>
        <time>2020-06-10T15:12:32Z</time>
      </trkpt>
      <trkpt lat="48.56501" lon="-3.52949">
        <ele>199.8</ele>
        <time>2020-06-10T15:12:33Z</time>
      </trkpt>
      <trkpt lat="48.565" lon="-3.52943">
        <ele>199.8</ele>
        <time>2020-06-10T15:12:34Z</time>
      </trkpt>
      <trkpt lat="48.565" lon="-3.52938">
        <ele>199.8</ele>
        <time>2020-06-10T15:12:35Z</time>
      </trkpt>
      <trkpt lat="48.565" lon="-3.52933">
        <ele>199.8</ele>
        <time>2020-06-10T15:12:36Z</time>
      </trkpt>
      <trkpt lat="48.565" lon="-3.52928">
        <ele>199.7</ele>
        <time>2020-06-10T15:12:37Z</time>
      </trkpt>
      <trkpt lat="48.565" lon="-3.52923">
        <ele>199.7</ele>
        <time>2020-06-10T15:12:38Z</time>
      </trkpt>
      <trkpt lat="48.56499" lon="-3.52919">
        <ele>199.7</ele>
        <time>2020-06-10T15:12:39Z</time>
      </trkpt>
      <trkpt lat="48.56499" lon="-3.52915">
        <ele>199.7</ele>
        <time>2020-06-10T15:12:40Z</time>
      </trkpt>
      <trkpt lat="48.56498" lon="-3.5291">
        <ele>199.6</ele>
        <time>2020-06-10T15:12:41Z</time>
      </trkpt>
      <trkpt lat="48.56497" lon="-3.52906">
        <ele>199.6</ele>
        <time>2020-06-10T15:12:42Z</time>
      </trkpt>
      <trkpt lat="48.56496" lon="-3.52902">
        <ele>199.6</ele>
        <time>2020-06-10T15:12:43Z</time>
      </trkpt>
      <trkpt lat="48.56496" lon="-3.52897">
        <ele>199.5</ele>
        <time>2020-06-10T15:12:44Z</time>
      </trkpt>
      <trkpt lat="48.56495" lon="-3.52892">
        <ele>199.5</ele>
        <time>2020-06-10T15:12:45Z</time>
      </trkpt>
      <trkpt lat="48.56495" lon="-3.52888">
        <ele>199.4</ele>
        <time>2020-06-10T15:12:46Z</time>
      </trkpt>
      <trkpt lat="48.56494" lon="-3.52883">
        <ele>199.3</ele>
        <time>2020-06-10T15:12:47Z</time>
      </trkpt>
      <trkpt lat="48.56494" lon="-3.52879">
        <ele>199.3</ele>
        <time>2020-06-10T15:12:48Z</time>
      </trkpt>
      <trkpt lat="48.56493" lon="-3.52874">
        <ele>199.3</ele>
        <time>2020-06-10T15:12:49Z</time>
      </trkpt>
      <trkpt lat="48.56492" lon="-3.5287">
        <ele>199.3</ele>
        <time>2020-06-10T15:12:50Z</time>
      </trkpt>
      <trkpt lat="48.56491" lon="-3.52866">
        <ele>199.3</ele>
        <time>2020-06-10T15:12:51Z</time>
      </trkpt>
      <trkpt lat="48.56491" lon="-3.52861">
        <ele>199.3</ele>
        <time>2020-06-10T15:12:52Z</time>
      </trkpt>
      <trkpt lat="48.56491" lon="-3.52857">
        <ele>199.3</ele>
        <time>2020-06-10T15:12:53Z</time>
      </trkpt>
      <trkpt lat="48.56492" lon="-3.52852">
        <ele>199.2</ele>
        <time>2020-06-10T15:12:54Z</time>
      </trkpt>
      <trkpt lat="48.56492" lon="-3.52848">
        <ele>199.2</ele>
        <time>2020-06-10T15:12:55Z</time>
      </trkpt>
      <trkpt lat="48.56492" lon="-3.52842">
        <ele>199.2</ele>
        <time>2020-06-10T15:12:56Z</time>
      </trkpt>
      <trkpt lat="48.56491" lon="-3.5284">
        <ele>199.2</ele>
        <time>2020-06-10T15:12:57Z</time>
      </trkpt>
      <trkpt lat="48.5649" lon="-3.52835">
        <ele>199.2</ele>
        <time>2020-06-10T15:12:58Z</time>
      </trkpt>
      <trkpt lat="48.56489" lon="-3.52834">
        <ele>199.2</ele>
        <time>2020-06-10T15:12:59Z</time>
      </trkpt>
      <trkpt lat="48.56488" lon="-3.52828">
        <ele>199.1</ele>
        <time>2020-06-10T15:13:00Z</time>
      </trkpt>
      <trkpt lat="48.56488" lon="-3.52826">
        <ele>199.1</ele>
        <time>2020-06-10T15:13:01Z</time>
      </trkpt>
      <trkpt lat="48.56488" lon="-3.5282">
        <ele>199.1</ele>
        <time>2020-06-10T15:13:02Z</time>
      </trkpt>
      <trkpt lat="48.56488" lon="-3.52818">
        <ele>199.1</ele>
        <time>2020-06-10T15:13:03Z</time>
      </trkpt>
      <trkpt lat="48.56487" lon="-3.52812">
        <ele>199</ele>
        <time>2020-06-10T15:13:04Z</time>
      </trkpt>
      <trkpt lat="48.56487" lon="-3.5281">
        <ele>199</ele>
        <time>2020-06-10T15:13:05Z</time>
      </trkpt>
      <trkpt lat="48.56486" lon="-3.52805">
        <ele>198.9</ele>
        <time>2020-06-10T15:13:06Z</time>
      </trkpt>
      <trkpt lat="48.56486" lon="-3.52803">
        <ele>198.9</ele>
        <time>2020-06-10T15:13:07Z</time>
      </trkpt>
      <trkpt lat="48.56486" lon="-3.52801">
        <ele>198.9</ele>
        <time>2020-06-10T15:13:08Z</time>
      </trkpt>
      <trkpt lat="48.56486" lon="-3.52798">
        <ele>198.8</ele>
        <time>2020-06-10T15:13:09Z</time>
      </trkpt>
      <trkpt lat="48.56484" lon="-3.52795">
        <ele>198.8</ele>
        <time>2020-06-10T15:13:10Z</time>
      </trkpt>
      <trkpt lat="48.56484" lon="-3.52794">
        <ele>198.7</ele>
        <time>2020-06-10T15:13:11Z</time>
      </trkpt>
      <trkpt lat="48.56483" lon="-3.52789">
        <ele>198.7</ele>
        <time>2020-06-10T15:13:12Z</time>
      </trkpt>
      <trkpt lat="48.56484" lon="-3.52788">
        <ele>198.6</ele>
        <time>2020-06-10T15:13:13Z</time>
      </trkpt>
      <trkpt lat="48.56483" lon="-3.52785">
        <ele>198.6</ele>
        <time>2020-06-10T15:13:14Z</time>
      </trkpt>
      <trkpt lat="48.56482" lon="-3.52784">
        <ele>198.5</ele>
        <time>2020-06-10T15:13:15Z</time>
      </trkpt>
      <trkpt lat="48.5648" lon="-3.52782">
        <ele>198.5</ele>
        <time>2020-06-10T15:13:16Z</time>
      </trkpt>
      <trkpt lat="48.5648" lon="-3.52779">
        <ele>198.4</ele>
        <time>2020-06-10T15:13:17Z</time>
      </trkpt>
      <trkpt lat="48.56481" lon="-3.52775">
        <ele>198.4</ele>
        <time>2020-06-10T15:13:18Z</time>
      </trkpt>
      <trkpt lat="48.56481" lon="-3.52773">
        <ele>198.3</ele>
        <time>2020-06-10T15:13:19Z</time>
      </trkpt>
      <trkpt lat="48.56481" lon="-3.52768">
        <ele>198.2</ele>
        <time>2020-06-10T15:13:20Z</time>
      </trkpt>
      <trkpt lat="48.5648" lon="-3.52766">
        <ele>198.2</ele>
        <time>2020-06-10T15:13:21Z</time>
      </trkpt>
      <trkpt lat="48.5648" lon="-3.52761">
        <ele>198.1</ele>
        <time>2020-06-10T15:13:22Z</time>
      </trkpt>
      <trkpt lat="48.5648" lon="-3.5276">
        <ele>198.1</ele>
        <time>2020-06-10T15:13:23Z</time>
      </trkpt>
      <trkpt lat="48.5648" lon="-3.52757">
        <ele>198</ele>
        <time>2020-06-10T15:13:24Z</time>
      </trkpt>
      <trkpt lat="48.5648" lon="-3.52756">
        <ele>198</ele>
        <time>2020-06-10T15:13:25Z</time>
      </trkpt>
      <trkpt lat="48.56479" lon="-3.52756">
        <ele>198</ele>
        <time>2020-06-10T15:13:26Z</time>
      </trkpt>
      <trkpt lat="48.56479" lon="-3.52756">
        <ele>198</ele>
        <time>2020-06-10T15:13:27Z</time>
      </trkpt>
      <trkpt lat="48.56478" lon="-3.52757">
        <ele>197.9</ele>
        <time>2020-06-10T15:13:28Z</time>
      </trkpt>
      <trkpt lat="48.56478" lon="-3.52757">
        <ele>197.9</ele>
        <time>2020-06-10T15:13:29Z</time>
      </trkpt>
      <trkpt lat="48.56477" lon="-3.52758">
        <ele>197.9</ele>
        <time>2020-06-10T15:13:30Z</time>
      </trkpt>
      <trkpt lat="48.56477" lon="-3.52755">
        <ele>197.8</ele>
        <time>2020-06-10T15:13:31Z</time>
      </trkpt>
      <trkpt lat="48.56478" lon="-3.52752">
        <ele>197.8</ele>
        <time>2020-06-10T15:13:32Z</time>
      </trkpt>
      <trkpt lat="48.56478" lon="-3.52749">
        <ele>197.7</ele>
        <time>2020-06-10T15:13:33Z</time>
      </trkpt>
      <trkpt lat="48.56478" lon="-3.52747">
        <ele>197.6</ele>
        <time>2020-06-10T15:13:34Z</time>
      </trkpt>
      <trkpt lat="48.56478" lon="-3.52744">
        <ele>197.6</ele>
        <time>2020-06-10T15:13:35Z</time>
      </trkpt>
      <trkpt lat="48.56478" lon="-3.52741">
        <ele>197.5</ele>
        <time>2020-06-10T15:13:36Z</time>
      </trkpt>
      <trkpt lat="48.56479" lon="-3.52738">
        <ele>197.4</ele>
        <time>2020-06-10T15:15:34Z</time>
      </trkpt>
      <trkpt lat="48.56479" lon="-3.52735">
        <ele>197.4</ele>
        <time>2020-06-10T15:15:35Z</time>
      </trkpt>
      <trkpt lat="48.56479" lon="-3.5273">
        <ele>197.2</ele>
        <time>2020-06-10T15:15:36Z</time>
      </trkpt>
      <trkpt lat="48.56479" lon="-3.52724">
        <ele>197</ele>
        <time>2020-06-10T15:15:37Z</time>
      </trkpt>
      <trkpt lat="48.56478" lon="-3.52717">
        <ele>196.9</ele>
        <time>2020-06-10T15:15:38Z</time>
      </trkpt>
      <trkpt lat="48.56477" lon="-3.5271">
        <ele>196.7</ele>
        <time>2020-06-10T15:15:39Z</time>
      </trkpt>
      <trkpt lat="48.56476" lon="-3.52703">
        <ele>196.4</ele>
        <time>2020-06-10T15:15:40Z</time>
      </trkpt>
      <trkpt lat="48.56475" lon="-3.52696">
        <ele>196.1</ele>
        <time>2020-06-10T15:15:41Z</time>
      </trkpt>
      <trkpt lat="48.56474" lon="-3.52688">
        <ele>195.9</ele>
        <time>2020-06-10T15:15:42Z</time>
      </trkpt>
      <trkpt lat="48.56473" lon="-3.5268">
        <ele>195.5</ele>
        <time>2020-06-10T15:15:43Z</time>
      </trkpt>
      <trkpt lat="48.56472" lon="-3.52671">
        <ele>195.2</ele>
        <time>2020-06-10T15:15:44Z</time>
      </trkpt>
      <trkpt lat="48.56471" lon="-3.52662">
        <ele>194.8</ele>
        <time>2020-06-10T15:15:45Z</time>
      </trkpt>
      <trkpt lat="48.5647" lon="-3.52652">
        <ele>194.3</ele>
        <time>2020-06-10T15:15:46Z</time>
      </trkpt>
      <trkpt lat="48.56469" lon="-3.52642">
        <ele>193.8</ele>
        <time>2020-06-10T15:15:47Z</time>
      </trkpt>
      <trkpt lat="48.56467" lon="-3.52631">
        <ele>193.3</ele>
        <time>2020-06-10T15:15:48Z</time>
      </trkpt>
      <trkpt lat="48.56465" lon="-3.52619">
        <ele>192.8</ele>
        <time>2020-06-10T15:15:49Z</time>
      </trkpt>
      <trkpt lat="48.56464" lon="-3.52607">
        <ele>192.2</ele>
        <time>2020-06-10T15:15:50Z</time>
      </trkpt>
      <trkpt lat="48.56462" lon="-3.52593">
        <ele>191.5</ele>
        <time>2020-06-10T15:15:51Z</time>
      </trkpt>
      <trkpt lat="48.56461" lon="-3.52579">
        <ele>190.8</ele>
        <time>2020-06-10T15:15:52Z</time>
      </trkpt>
      <trkpt lat="48.56459" lon="-3.52563">
        <ele>190.1</ele>
        <time>2020-06-10T15:15:53Z</time>
      </trkpt>
      <trkpt lat="48.56457" lon="-3.52548">
        <ele>189.4</ele>
        <time>2020-06-10T15:15:54Z</time>
      </trkpt>
      <trkpt lat="48.56455" lon="-3.52531">
        <ele>188.7</ele>
        <time>2020-06-10T15:15:55Z</time>
      </trkpt>
      <trkpt lat="48.56453" lon="-3.52512">
        <ele>187.9</ele>
        <time>2020-06-10T15:15:56Z</time>
      </trkpt>
      <trkpt lat="48.56451" lon="-3.52493">
        <ele>187.2</ele>
        <time>2020-06-10T15:15:57Z</time>
      </trkpt>
      <trkpt lat="48.56448" lon="-3.52476">
        <ele>186.5</ele>
        <time>2020-06-10T15:15:58Z</time>
      </trkpt>
      <trkpt lat="48.56446" lon="-3.52457">
        <ele>185.9</ele>
        <time>2020-06-10T15:15:59Z</time>
      </trkpt>
      <trkpt lat="48.56444" lon="-3.52439">
        <ele>185.3</ele>
        <time>2020-06-10T15:16:00Z</time>
      </trkpt>
      <trkpt lat="48.56443" lon="-3.5242">
        <ele>184.7</ele>
        <time>2020-06-10T15:16:01Z</time>
      </trkpt>
      <trkpt lat="48.56441" lon="-3.52402">
        <ele>184.2</ele>
        <time>2020-06-10T15:16:02Z</time>
      </trkpt>
      <trkpt lat="48.56438" lon="-3.52384">
        <ele>183.6</ele>
        <time>2020-06-10T15:16:03Z</time>
      </trkpt>
      <trkpt lat="48.56436" lon="-3.52366">
        <ele>183.1</ele>
        <time>2020-06-10T15:16:04Z</time>
      </trkpt>
      <trkpt lat="48.56434" lon="-3.52347">
        <ele>182.6</ele>
        <time>2020-06-10T15:16:05Z</time>
      </trkpt>
      <trkpt lat="48.56432" lon="-3.52329">
        <ele>182.2</ele>
        <time>2020-06-10T15:16:06Z</time>
      </trkpt>
      <trkpt lat="48.5643" lon="-3.5231">
        <ele>181.7</ele>
        <time>2020-06-10T15:16:07Z</time>
      </trkpt>
      <trkpt lat="48.56428" lon="-3.52292">
        <ele>181.3</ele>
        <time>2020-06-10T15:16:08Z</time>
      </trkpt>
      <trkpt lat="48.56426" lon="-3.52273">
        <ele>181</ele>
        <time>2020-06-10T15:16:09Z</time>
      </trkpt>
      <trkpt lat="48.56424" lon="-3.52255">
        <ele>180.8</ele>
        <time>2020-06-10T15:16:10Z</time>
      </trkpt>
      <trkpt lat="48.56423" lon="-3.52237">
        <ele>180.7</ele>
        <time>2020-06-10T15:16:11Z</time>
      </trkpt>
      <trkpt lat="48.56421" lon="-3.5222">
        <ele>180.6</ele>
        <time>2020-06-10T15:16:12Z</time>
      </trkpt>
      <trkpt lat="48.5642" lon="-3.52203">
        <ele>180.6</ele>
        <time>2020-06-10T15:16:13Z</time>
      </trkpt>
      <trkpt lat="48.56418" lon="-3.52187">
        <ele>180.7</ele>
        <time>2020-06-10T15:16:14Z</time>
      </trkpt>
      <trkpt lat="48.56417" lon="-3.52171">
        <ele>180.7</ele>
        <time>2020-06-10T15:16:15Z</time>
      </trkpt>
      <trkpt lat="48.56416" lon="-3.52156">
        <ele>180.7</ele>
        <time>2020-06-10T15:16:16Z</time>
      </trkpt>
      <trkpt lat="48.56415" lon="-3.5214">
        <ele>180.7</ele>
        <time>2020-06-10T15:16:17Z</time>
      </trkpt>
      <trkpt lat="48.56414" lon="-3.52125">
        <ele>180.7</ele>
        <time>2020-06-10T15:16:18Z</time>
      </trkpt>
      <trkpt lat="48.56413" lon="-3.52111">
        <ele>180.7</ele>
        <time>2020-06-10T15:16:19Z</time>
      </trkpt>
      <trkpt lat="48.56412" lon="-3.52097">
        <ele>180.7</ele>
        <time>2020-06-10T15:16:20Z</time>
      </trkpt>
      <trkpt lat="48.56411" lon="-3.52083">
        <ele>180.7</ele>
        <time>2020-06-10T15:16:21Z</time>
      </trkpt>
      <trkpt lat="48.5641" lon="-3.52069">
        <ele>180.7</ele>
        <time>2020-06-10T15:16:22Z</time>
      </trkpt>
      <trkpt lat="48.56409" lon="-3.52055">
        <ele>180.7</ele>
        <time>2020-06-10T15:16:23Z</time>
      </trkpt>
      <trkpt lat="48.56408" lon="-3.52043">
        <ele>180.7</ele>
        <time>2020-06-10T15:16:24Z</time>
      </trkpt>
      <trkpt lat="48.56406" lon="-3.5203">
        <ele>180.8</ele>
        <time>2020-06-10T15:16:25Z</time>
      </trkpt>
      <trkpt lat="48.56405" lon="-3.52017">
        <ele>180.8</ele>
        <time>2020-06-10T15:16:26Z</time>
      </trkpt>
      <trkpt lat="48.56403" lon="-3.52005">
        <ele>180.8</ele>
        <time>2020-06-10T15:16:27Z</time>
      </trkpt>
      <trkpt lat="48.56402" lon="-3.51993">
        <ele>180.8</ele>
        <time>2020-06-10T15:16:28Z</time>
      </trkpt>
      <trkpt lat="48.564" lon="-3.5198">
        <ele>180.8</ele>
        <time>2020-06-10T15:16:29Z</time>
      </trkpt>
      <trkpt lat="48.56399" lon="-3.51968">
        <ele>180.8</ele>
        <time>2020-06-10T15:16:30Z</time>
      </trkpt>
      <trkpt lat="48.56397" lon="-3.51955">
        <ele>180.8</ele>
        <time>2020-06-10T15:16:31Z</time>
      </trkpt>
      <trkpt lat="48.56396" lon="-3.51943">
        <ele>180.7</ele>
        <time>2020-06-10T15:16:32Z</time>
      </trkpt>
      <trkpt lat="48.56394" lon="-3.5193">
        <ele>180.7</ele>
        <time>2020-06-10T15:16:33Z</time>
      </trkpt>
      <trkpt lat="48.56394" lon="-3.51917">
        <ele>180.7</ele>
        <time>2020-06-10T15:16:34Z</time>
      </trkpt>
      <trkpt lat="48.56393" lon="-3.51905">
        <ele>180.7</ele>
        <time>2020-06-10T15:16:35Z</time>
      </trkpt>
      <trkpt lat="48.56391" lon="-3.51892">
        <ele>180.7</ele>
        <time>2020-06-10T15:16:36Z</time>
      </trkpt>
      <trkpt lat="48.5639" lon="-3.5188">
        <ele>180.7</ele>
        <time>2020-06-10T15:16:37Z</time>
      </trkpt>
      <trkpt lat="48.56388" lon="-3.51868">
        <ele>180.6</ele>
        <time>2020-06-10T15:16:38Z</time>
      </trkpt>
      <trkpt lat="48.56387" lon="-3.51855">
        <ele>180.6</ele>
        <time>2020-06-10T15:16:39Z</time>
      </trkpt>
      <trkpt lat="48.56386" lon="-3.51844">
        <ele>180.6</ele>
        <time>2020-06-10T15:16:40Z</time>
      </trkpt>
      <trkpt lat="48.56384" lon="-3.51831">
        <ele>180.5</ele>
        <time>2020-06-10T15:16:41Z</time>
      </trkpt>
      <trkpt lat="48.56384" lon="-3.51819">
        <ele>180.5</ele>
        <time>2020-06-10T15:16:42Z</time>
      </trkpt>
      <trkpt lat="48.56383" lon="-3.51807">
        <ele>180.5</ele>
        <time>2020-06-10T15:16:43Z</time>
      </trkpt>
      <trkpt lat="48.56382" lon="-3.51794">
        <ele>180.6</ele>
        <time>2020-06-10T15:16:44Z</time>
      </trkpt>
      <trkpt lat="48.56381" lon="-3.51782">
        <ele>180.5</ele>
        <time>2020-06-10T15:16:45Z</time>
      </trkpt>
      <trkpt lat="48.5638" lon="-3.5177">
        <ele>180.4</ele>
        <time>2020-06-10T15:16:46Z</time>
      </trkpt>
      <trkpt lat="48.56378" lon="-3.51759">
        <ele>180.4</ele>
        <time>2020-06-10T15:16:47Z</time>
      </trkpt>
      <trkpt lat="48.56377" lon="-3.51747">
        <ele>180.4</ele>
        <time>2020-06-10T15:16:48Z</time>
      </trkpt>
      <trkpt lat="48.56375" lon="-3.51735">
        <ele>180.4</ele>
        <time>2020-06-10T15:16:49Z</time>
      </trkpt>
      <trkpt lat="48.56374" lon="-3.51723">
        <ele>180.4</ele>
        <time>2020-06-10T15:16:50Z</time>
      </trkpt>
      <trkpt lat="48.56372" lon="-3.51711">
        <ele>180.4</ele>
        <time>2020-06-10T15:16:51Z</time>
      </trkpt>
      <trkpt lat="48.56371" lon="-3.51699">
        <ele>180.5</ele>
        <time>2020-06-10T15:16:52Z</time>
      </trkpt>
      <trkpt lat="48.5637" lon="-3.51688">
        <ele>180.5</ele>
        <time>2020-06-10T15:16:53Z</time>
      </trkpt>
      <trkpt lat="48.56369" lon="-3.51676">
        <ele>180.6</ele>
        <time>2020-06-10T15:16:54Z</time>
      </trkpt>
      <trkpt lat="48.56367" lon="-3.51665">
        <ele>180.8</ele>
        <time>2020-06-10T15:16:55Z</time>
      </trkpt>
      <trkpt lat="48.56366" lon="-3.51654">
        <ele>180.9</ele>
        <time>2020-06-10T15:16:56Z</time>
      </trkpt>
      <trkpt lat="48.56365" lon="-3.51643">
        <ele>181</ele>
        <time>2020-06-10T15:16:57Z</time>
      </trkpt>
      <trkpt lat="48.56364" lon="-3.51632">
        <ele>181.1</ele>
        <time>2020-06-10T15:16:58Z</time>
      </trkpt>
      <trkpt lat="48.56363" lon="-3.51621">
        <ele>181.3</ele>
        <time>2020-06-10T15:16:59Z</time>
      </trkpt>
      <trkpt lat="48.56361" lon="-3.51611">
        <ele>181.4</ele>
        <time>2020-06-10T15:17:00Z</time>
      </trkpt>
      <trkpt lat="48.5636" lon="-3.51601">
        <ele>181.5</ele>
        <time>2020-06-10T15:17:01Z</time>
      </trkpt>
      <trkpt lat="48.56359" lon="-3.51592">
        <ele>181.5</ele>
        <time>2020-06-10T15:17:02Z</time>
      </trkpt>
      <trkpt lat="48.56358" lon="-3.51583">
        <ele>181.6</ele>
        <time>2020-06-10T15:17:03Z</time>
      </trkpt>
      <trkpt lat="48.56357" lon="-3.51573">
        <ele>181.7</ele>
        <time>2020-06-10T15:17:04Z</time>
      </trkpt>
      <trkpt lat="48.56355" lon="-3.51565">
        <ele>181.7</ele>
        <time>2020-06-10T15:17:05Z</time>
      </trkpt>
      <trkpt lat="48.56354" lon="-3.51556">
        <ele>181.8</ele>
        <time>2020-06-10T15:17:06Z</time>
      </trkpt>
      <trkpt lat="48.56353" lon="-3.51548">
        <ele>181.9</ele>
        <time>2020-06-10T15:17:07Z</time>
      </trkpt>
      <trkpt lat="48.56353" lon="-3.5154">
        <ele>181.9</ele>
        <time>2020-06-10T15:17:08Z</time>
      </trkpt>
      <trkpt lat="48.56351" lon="-3.51532">
        <ele>182</ele>
        <time>2020-06-10T15:17:09Z</time>
      </trkpt>
      <trkpt lat="48.5635" lon="-3.51524">
        <ele>182</ele>
        <time>2020-06-10T15:17:10Z</time>
      </trkpt>
      <trkpt lat="48.56349" lon="-3.51515">
        <ele>182.1</ele>
        <time>2020-06-10T15:17:11Z</time>
      </trkpt>
      <trkpt lat="48.56348" lon="-3.51507">
        <ele>182.1</ele>
        <time>2020-06-10T15:17:12Z</time>
      </trkpt>
      <trkpt lat="48.56347" lon="-3.51498">
        <ele>182.1</ele>
        <time>2020-06-10T15:17:13Z</time>
      </trkpt>
      <trkpt lat="48.56346" lon="-3.5149">
        <ele>182.1</ele>
        <time>2020-06-10T15:17:14Z</time>
      </trkpt>
      <trkpt lat="48.56345" lon="-3.51481">
        <ele>182.1</ele>
        <time>2020-06-10T15:17:15Z</time>
      </trkpt>
      <trkpt lat="48.56344" lon="-3.51473">
        <ele>182.1</ele>
        <time>2020-06-10T15:17:16Z</time>
      </trkpt>
      <trkpt lat="48.56343" lon="-3.51464">
        <ele>182</ele>
        <time>2020-06-10T15:17:17Z</time>
      </trkpt>
      <trkpt lat="48.56342" lon="-3.51456">
        <ele>181.9</ele>
        <time>2020-06-10T15:17:18Z</time>
      </trkpt>
      <trkpt lat="48.56342" lon="-3.51448">
        <ele>181.8</ele>
        <time>2020-06-10T15:17:19Z</time>
      </trkpt>
      <trkpt lat="48.56341" lon="-3.51439">
        <ele>181.7</ele>
        <time>2020-06-10T15:17:20Z</time>
      </trkpt>
      <trkpt lat="48.5634" lon="-3.51431">
        <ele>181.6</ele>
        <time>2020-06-10T15:17:21Z</time>
      </trkpt>
      <trkpt lat="48.5634" lon="-3.51422">
        <ele>181.5</ele>
        <time>2020-06-10T15:17:22Z</time>
      </trkpt>
      <trkpt lat="48.56339" lon="-3.51413">
        <ele>181.4</ele>
        <time>2020-06-10T15:17:23Z</time>
      </trkpt>
      <trkpt lat="48.56338" lon="-3.51404">
        <ele>181.2</ele>
        <time>2020-06-10T15:17:24Z</time>
      </trkpt>
      <trkpt lat="48.56338" lon="-3.51395">
        <ele>181.1</ele>
        <time>2020-06-10T15:17:25Z</time>
      </trkpt>
      <trkpt lat="48.56337" lon="-3.51386">
        <ele>181</ele>
        <time>2020-06-10T15:17:26Z</time>
      </trkpt>
      <trkpt lat="48.56336" lon="-3.51377">
        <ele>180.8</ele>
        <time>2020-06-10T15:17:27Z</time>
      </trkpt>
      <trkpt lat="48.56335" lon="-3.51368">
        <ele>180.7</ele>
        <time>2020-06-10T15:17:28Z</time>
      </trkpt>
      <trkpt lat="48.56334" lon="-3.51359">
        <ele>180.5</ele>
        <time>2020-06-10T15:17:29Z</time>
      </trkpt>
      <trkpt lat="48.56333" lon="-3.5135">
        <ele>180.3</ele>
        <time>2020-06-10T15:17:30Z</time>
      </trkpt>
      <trkpt lat="48.56333" lon="-3.5134">
        <ele>180.1</ele>
        <time>2020-06-10T15:17:31Z</time>
      </trkpt>
      <trkpt lat="48.56332" lon="-3.5133">
        <ele>179.9</ele>
        <time>2020-06-10T15:17:32Z</time>
      </trkpt>
      <trkpt lat="48.5633" lon="-3.51319">
        <ele>179.8</ele>
        <time>2020-06-10T15:17:33Z</time>
      </trkpt>
      <trkpt lat="48.5633" lon="-3.51308">
        <ele>179.6</ele>
        <time>2020-06-10T15:17:34Z</time>
      </trkpt>
      <trkpt lat="48.56329" lon="-3.51297">
        <ele>179.4</ele>
        <time>2020-06-10T15:17:35Z</time>
      </trkpt>
      <trkpt lat="48.56328" lon="-3.51286">
        <ele>179.2</ele>
        <time>2020-06-10T15:17:36Z</time>
      </trkpt>
      <trkpt lat="48.56328" lon="-3.51274">
        <ele>179</ele>
        <time>2020-06-10T15:17:37Z</time>
      </trkpt>
      <trkpt lat="48.56327" lon="-3.51263">
        <ele>178.8</ele>
        <time>2020-06-10T15:17:38Z</time>
      </trkpt>
      <trkpt lat="48.56326" lon="-3.51252">
        <ele>178.4</ele>
        <time>2020-06-10T15:17:39Z</time>
      </trkpt>
      <trkpt lat="48.56325" lon="-3.51241">
        <ele>178.1</ele>
        <time>2020-06-10T15:17:40Z</time>
      </trkpt>
      <trkpt lat="48.56324" lon="-3.51229">
        <ele>177.8</ele>
        <time>2020-06-10T15:17:41Z</time>
      </trkpt>
      <trkpt lat="48.56323" lon="-3.51217">
        <ele>177.4</ele>
        <time>2020-06-10T15:17:42Z</time>
      </trkpt>
      <trkpt lat="48.56322" lon="-3.51205">
        <ele>177.1</ele>
        <time>2020-06-10T15:17:43Z</time>
      </trkpt>
      <trkpt lat="48.56321" lon="-3.51192">
        <ele>176.8</ele>
        <time>2020-06-10T15:17:44Z</time>
      </trkpt>
      <trkpt lat="48.5632" lon="-3.5118">
        <ele>176.4</ele>
        <time>2020-06-10T15:17:45Z</time>
      </trkpt>
      <trkpt lat="48.56319" lon="-3.51166">
        <ele>176</ele>
        <time>2020-06-10T15:17:46Z</time>
      </trkpt>
      <trkpt lat="48.56317" lon="-3.51153">
        <ele>175.5</ele>
        <time>2020-06-10T15:17:47Z</time>
      </trkpt>
      <trkpt lat="48.56316" lon="-3.51139">
        <ele>175.1</ele>
        <time>2020-06-10T15:17:48Z</time>
      </trkpt>
      <trkpt lat="48.56315" lon="-3.51125">
        <ele>174.6</ele>
        <time>2020-06-10T15:17:49Z</time>
      </trkpt>
      <trkpt lat="48.56313" lon="-3.51111">
        <ele>174.2</ele>
        <time>2020-06-10T15:17:50Z</time>
      </trkpt>
      <trkpt lat="48.56311" lon="-3.51096">
        <ele>173.7</ele>
        <time>2020-06-10T15:17:51Z</time>
      </trkpt>
      <trkpt lat="48.5631" lon="-3.51081">
        <ele>173.2</ele>
        <time>2020-06-10T15:17:52Z</time>
      </trkpt>
      <trkpt lat="48.56308" lon="-3.51066">
        <ele>172.8</ele>
        <time>2020-06-10T15:17:53Z</time>
      </trkpt>
      <trkpt lat="48.56307" lon="-3.51052">
        <ele>172.4</ele>
        <time>2020-06-10T15:17:54Z</time>
      </trkpt>
      <trkpt lat="48.56307" lon="-3.51037">
        <ele>172</ele>
        <time>2020-06-10T15:17:55Z</time>
      </trkpt>
      <trkpt lat="48.56305" lon="-3.51023">
        <ele>171.7</ele>
        <time>2020-06-10T15:17:56Z</time>
      </trkpt>
      <trkpt lat="48.56304" lon="-3.51008">
        <ele>171.3</ele>
        <time>2020-06-10T15:17:57Z</time>
      </trkpt>
      <trkpt lat="48.56303" lon="-3.50993">
        <ele>171</ele>
        <time>2020-06-10T15:17:58Z</time>
      </trkpt>
      <trkpt lat="48.56301" lon="-3.50979">
        <ele>170.8</ele>
        <time>2020-06-10T15:17:59Z</time>
      </trkpt>
      <trkpt lat="48.56299" lon="-3.50965">
        <ele>170.6</ele>
        <time>2020-06-10T15:18:00Z</time>
      </trkpt>
      <trkpt lat="48.56298" lon="-3.50952">
        <ele>170.4</ele>
        <time>2020-06-10T15:18:01Z</time>
      </trkpt>
      <trkpt lat="48.56296" lon="-3.50939">
        <ele>170.3</ele>
        <time>2020-06-10T15:18:02Z</time>
      </trkpt>
      <trkpt lat="48.56295" lon="-3.50926">
        <ele>170.3</ele>
        <time>2020-06-10T15:18:03Z</time>
      </trkpt>
      <trkpt lat="48.56294" lon="-3.50914">
        <ele>170.3</ele>
        <time>2020-06-10T15:18:04Z</time>
      </trkpt>
      <trkpt lat="48.56293" lon="-3.50902">
        <ele>170.4</ele>
        <time>2020-06-10T15:18:05Z</time>
      </trkpt>
      <trkpt lat="48.56292" lon="-3.5089">
        <ele>170.5</ele>
        <time>2020-06-10T15:18:06Z</time>
      </trkpt>
      <trkpt lat="48.56291" lon="-3.50879">
        <ele>170.6</ele>
        <time>2020-06-10T15:18:07Z</time>
      </trkpt>
      <trkpt lat="48.5629" lon="-3.50869">
        <ele>170.8</ele>
        <time>2020-06-10T15:18:08Z</time>
      </trkpt>
      <trkpt lat="48.56289" lon="-3.50859">
        <ele>171.1</ele>
        <time>2020-06-10T15:18:09Z</time>
      </trkpt>
      <trkpt lat="48.56287" lon="-3.5085">
        <ele>171.3</ele>
        <time>2020-06-10T15:18:10Z</time>
      </trkpt>
      <trkpt lat="48.56286" lon="-3.50841">
        <ele>171.7</ele>
        <time>2020-06-10T15:18:11Z</time>
      </trkpt>
      <trkpt lat="48.56285" lon="-3.50831">
        <ele>172</ele>
        <time>2020-06-10T15:18:12Z</time>
      </trkpt>
      <trkpt lat="48.56283" lon="-3.50821">
        <ele>172</ele>
        <time>2020-06-10T15:18:13Z</time>
      </trkpt>
      <trkpt lat="48.56281" lon="-3.50812">
        <ele>172</ele>
        <time>2020-06-10T15:18:14Z</time>
      </trkpt>
      <trkpt lat="48.56279" lon="-3.50803">
        <ele>172.1</ele>
        <time>2020-06-10T15:18:15Z</time>
      </trkpt>
      <trkpt lat="48.56278" lon="-3.50793">
        <ele>172.1</ele>
        <time>2020-06-10T15:18:16Z</time>
      </trkpt>
      <trkpt lat="48.56276" lon="-3.50784">
        <ele>172.2</ele>
        <time>2020-06-10T15:18:17Z</time>
      </trkpt>
      <trkpt lat="48.56274" lon="-3.50774">
        <ele>172.3</ele>
        <time>2020-06-10T15:18:18Z</time>
      </trkpt>
      <trkpt lat="48.56273" lon="-3.50764">
        <ele>172.5</ele>
        <time>2020-06-10T15:18:19Z</time>
      </trkpt>
      <trkpt lat="48.56272" lon="-3.50755">
        <ele>172.6</ele>
        <time>2020-06-10T15:18:20Z</time>
      </trkpt>
      <trkpt lat="48.56271" lon="-3.50745">
        <ele>172.8</ele>
        <time>2020-06-10T15:18:21Z</time>
      </trkpt>
      <trkpt lat="48.5627" lon="-3.50735">
        <ele>173</ele>
        <time>2020-06-10T15:18:22Z</time>
      </trkpt>
      <trkpt lat="48.56269" lon="-3.50724">
        <ele>173.1</ele>
        <time>2020-06-10T15:18:23Z</time>
      </trkpt>
      <trkpt lat="48.56267" lon="-3.50714">
        <ele>173.3</ele>
        <time>2020-06-10T15:18:24Z</time>
      </trkpt>
      <trkpt lat="48.56266" lon="-3.50704">
        <ele>173.5</ele>
        <time>2020-06-10T15:18:25Z</time>
      </trkpt>
      <trkpt lat="48.56265" lon="-3.50694">
        <ele>173.8</ele>
        <time>2020-06-10T15:18:26Z</time>
      </trkpt>
      <trkpt lat="48.56265" lon="-3.50684">
        <ele>174.1</ele>
        <time>2020-06-10T15:18:27Z</time>
      </trkpt>
      <trkpt lat="48.56264" lon="-3.50675">
        <ele>174.3</ele>
        <time>2020-06-10T15:18:28Z</time>
      </trkpt>
      <trkpt lat="48.56263" lon="-3.50666">
        <ele>174.6</ele>
        <time>2020-06-10T15:18:29Z</time>
      </trkpt>
      <trkpt lat="48.56262" lon="-3.50658">
        <ele>174.8</ele>
        <time>2020-06-10T15:18:30Z</time>
      </trkpt>
      <trkpt lat="48.56262" lon="-3.5065">
        <ele>175.1</ele>
        <time>2020-06-10T15:18:31Z</time>
      </trkpt>
      <trkpt lat="48.56261" lon="-3.50642">
        <ele>175.3</ele>
        <time>2020-06-10T15:18:32Z</time>
      </trkpt>
      <trkpt lat="48.5626" lon="-3.50634">
        <ele>175.6</ele>
        <time>2020-06-10T15:18:33Z</time>
      </trkpt>
      <trkpt lat="48.56259" lon="-3.50627">
        <ele>175.9</ele>
        <time>2020-06-10T15:18:34Z</time>
      </trkpt>
      <trkpt lat="48.56259" lon="-3.50619">
        <ele>176.2</ele>
        <time>2020-06-10T15:18:35Z</time>
      </trkpt>
      <trkpt lat="48.56259" lon="-3.50611">
        <ele>176.5</ele>
        <time>2020-06-10T15:18:36Z</time>
      </trkpt>
      <trkpt lat="48.56259" lon="-3.50602">
        <ele>176.8</ele>
        <time>2020-06-10T15:18:37Z</time>
      </trkpt>
      <trkpt lat="48.56258" lon="-3.50594">
        <ele>177.1</ele>
        <time>2020-06-10T15:18:38Z</time>
      </trkpt>
      <trkpt lat="48.56257" lon="-3.50586">
        <ele>177.5</ele>
        <time>2020-06-10T15:18:39Z</time>
      </trkpt>
      <trkpt lat="48.56256" lon="-3.50577">
        <ele>177.8</ele>
        <time>2020-06-10T15:18:40Z</time>
      </trkpt>
      <trkpt lat="48.56255" lon="-3.50569">
        <ele>178.2</ele>
        <time>2020-06-10T15:18:41Z</time>
      </trkpt>
      <trkpt lat="48.56255" lon="-3.50562">
        <ele>178.5</ele>
        <time>2020-06-10T15:18:42Z</time>
      </trkpt>
      <trkpt lat="48.56254" lon="-3.50554">
        <ele>178.9</ele>
        <time>2020-06-10T15:18:43Z</time>
      </trkpt>
      <trkpt lat="48.56253" lon="-3.50545">
        <ele>179.3</ele>
        <time>2020-06-10T15:18:44Z</time>
      </trkpt>
      <trkpt lat="48.56253" lon="-3.50538">
        <ele>179.6</ele>
        <time>2020-06-10T15:18:45Z</time>
      </trkpt>
      <trkpt lat="48.56252" lon="-3.50529">
        <ele>180</ele>
        <time>2020-06-10T15:18:46Z</time>
      </trkpt>
      <trkpt lat="48.56252" lon="-3.50519">
        <ele>180.5</ele>
        <time>2020-06-10T15:18:47Z</time>
      </trkpt>
      <trkpt lat="48.56252" lon="-3.50512">
        <ele>180.8</ele>
        <time>2020-06-10T15:18:48Z</time>
      </trkpt>
      <trkpt lat="48.5625" lon="-3.50505">
        <ele>181.2</ele>
        <time>2020-06-10T15:18:49Z</time>
      </trkpt>
      <trkpt lat="48.56249" lon="-3.50497">
        <ele>181.6</ele>
        <time>2020-06-10T15:18:50Z</time>
      </trkpt>
      <trkpt lat="48.56248" lon="-3.50489">
        <ele>182</ele>
        <time>2020-06-10T15:18:51Z</time>
      </trkpt>
      <trkpt lat="48.56247" lon="-3.50481">
        <ele>182.4</ele>
        <time>2020-06-10T15:18:52Z</time>
      </trkpt>
      <trkpt lat="48.56246" lon="-3.50474">
        <ele>182.7</ele>
        <time>2020-06-10T15:18:53Z</time>
      </trkpt>
      <trkpt lat="48.56245" lon="-3.50467">
        <ele>183.1</ele>
        <time>2020-06-10T15:18:54Z</time>
      </trkpt>
      <trkpt lat="48.56244" lon="-3.50459">
        <ele>183.5</ele>
        <time>2020-06-10T15:18:55Z</time>
      </trkpt>
      <trkpt lat="48.56243" lon="-3.50452">
        <ele>183.7</ele>
        <time>2020-06-10T15:18:56Z</time>
      </trkpt>
      <trkpt lat="48.56243" lon="-3.50445">
        <ele>184</ele>
        <time>2020-06-10T15:18:57Z</time>
      </trkpt>
      <trkpt lat="48.56242" lon="-3.50439">
        <ele>184.3</ele>
        <time>2020-06-10T15:18:58Z</time>
      </trkpt>
      <trkpt lat="48.56242" lon="-3.50433">
        <ele>184.5</ele>
        <time>2020-06-10T15:18:59Z</time>
      </trkpt>
      <trkpt lat="48.56241" lon="-3.50426">
        <ele>184.8</ele>
        <time>2020-06-10T15:19:00Z</time>
      </trkpt>
      <trkpt lat="48.56241" lon="-3.5042">
        <ele>185.1</ele>
        <time>2020-06-10T15:19:01Z</time>
      </trkpt>
      <trkpt lat="48.5624" lon="-3.50414">
        <ele>185.4</ele>
        <time>2020-06-10T15:19:02Z</time>
      </trkpt>
      <trkpt lat="48.56239" lon="-3.50408">
        <ele>185.6</ele>
        <time>2020-06-10T15:19:03Z</time>
      </trkpt>
      <trkpt lat="48.56238" lon="-3.50401">
        <ele>185.9</ele>
        <time>2020-06-10T15:19:04Z</time>
      </trkpt>
      <trkpt lat="48.56237" lon="-3.50395">
        <ele>186.1</ele>
        <time>2020-06-10T15:19:05Z</time>
      </trkpt>
      <trkpt lat="48.56237" lon="-3.50388">
        <ele>186.4</ele>
        <time>2020-06-10T15:19:06Z</time>
      </trkpt>
      <trkpt lat="48.56236" lon="-3.50382">
        <ele>186.7</ele>
        <time>2020-06-10T15:19:07Z</time>
      </trkpt>
      <trkpt lat="48.56235" lon="-3.50376">
        <ele>186.9</ele>
        <time>2020-06-10T15:19:08Z</time>
      </trkpt>
      <trkpt lat="48.56234" lon="-3.50369">
        <ele>187.1</ele>
        <time>2020-06-10T15:19:09Z</time>
      </trkpt>
      <trkpt lat="48.56233" lon="-3.50363">
        <ele>187.3</ele>
        <time>2020-06-10T15:19:10Z</time>
      </trkpt>
      <trkpt lat="48.56233" lon="-3.50354">
        <ele>187.6</ele>
        <time>2020-06-10T15:19:11Z</time>
      </trkpt>
      <trkpt lat="48.56232" lon="-3.50348">
        <ele>187.7</ele>
        <time>2020-06-10T15:19:12Z</time>
      </trkpt>
      <trkpt lat="48.56231" lon="-3.50343">
        <ele>187.9</ele>
        <time>2020-06-10T15:19:13Z</time>
      </trkpt>
      <trkpt lat="48.5623" lon="-3.50336">
        <ele>188.1</ele>
        <time>2020-06-10T15:19:14Z</time>
      </trkpt>
      <trkpt lat="48.5623" lon="-3.5033">
        <ele>188.2</ele>
        <time>2020-06-10T15:19:15Z</time>
      </trkpt>
      <trkpt lat="48.56229" lon="-3.50323">
        <ele>188.4</ele>
        <time>2020-06-10T15:19:16Z</time>
      </trkpt>
      <trkpt lat="48.56228" lon="-3.50316">
        <ele>188.5</ele>
        <time>2020-06-10T15:19:17Z</time>
      </trkpt>
      <trkpt lat="48.56227" lon="-3.5031">
        <ele>188.7</ele>
        <time>2020-06-10T15:19:18Z</time>
      </trkpt>
      <trkpt lat="48.56226" lon="-3.50305">
        <ele>188.8</ele>
        <time>2020-06-10T15:19:19Z</time>
      </trkpt>
      <trkpt lat="48.56226" lon="-3.503">
        <ele>188.9</ele>
        <time>2020-06-10T15:19:20Z</time>
      </trkpt>
      <trkpt lat="48.56225" lon="-3.50294">
        <ele>189</ele>
        <time>2020-06-10T15:19:21Z</time>
      </trkpt>
      <trkpt lat="48.56224" lon="-3.5029">
        <ele>189.1</ele>
        <time>2020-06-10T15:19:22Z</time>
      </trkpt>
      <trkpt lat="48.56224" lon="-3.50283">
        <ele>189.3</ele>
        <time>2020-06-10T15:19:23Z</time>
      </trkpt>
      <trkpt lat="48.56223" lon="-3.50277">
        <ele>189.4</ele>
        <time>2020-06-10T15:19:24Z</time>
      </trkpt>
      <trkpt lat="48.56222" lon="-3.50271">
        <ele>189.5</ele>
        <time>2020-06-10T15:19:25Z</time>
      </trkpt>
      <trkpt lat="48.56221" lon="-3.50265">
        <ele>189.7</ele>
        <time>2020-06-10T15:19:26Z</time>
      </trkpt>
      <trkpt lat="48.56221" lon="-3.50259">
        <ele>189.8</ele>
        <time>2020-06-10T15:19:27Z</time>
      </trkpt>
      <trkpt lat="48.5622" lon="-3.50252">
        <ele>189.9</ele>
        <time>2020-06-10T15:19:28Z</time>
      </trkpt>
      <trkpt lat="48.56219" lon="-3.50247">
        <ele>190.1</ele>
        <time>2020-06-10T15:19:29Z</time>
      </trkpt>
      <trkpt lat="48.56219" lon="-3.50241">
        <ele>190.2</ele>
        <time>2020-06-10T15:19:30Z</time>
      </trkpt>
      <trkpt lat="48.56218" lon="-3.50234">
        <ele>190.4</ele>
        <time>2020-06-10T15:19:31Z</time>
      </trkpt>
      <trkpt lat="48.56217" lon="-3.50227">
        <ele>190.6</ele>
        <time>2020-06-10T15:19:32Z</time>
      </trkpt>
      <trkpt lat="48.56216" lon="-3.50219">
        <ele>190.7</ele>
        <time>2020-06-10T15:19:33Z</time>
      </trkpt>
      <trkpt lat="48.56216" lon="-3.50212">
        <ele>190.9</ele>
        <time>2020-06-10T15:19:34Z</time>
      </trkpt>
      <trkpt lat="48.56215" lon="-3.50206">
        <ele>191</ele>
        <time>2020-06-10T15:19:35Z</time>
      </trkpt>
      <trkpt lat="48.56214" lon="-3.50199">
        <ele>191.1</ele>
        <time>2020-06-10T15:19:36Z</time>
      </trkpt>
      <trkpt lat="48.56214" lon="-3.50193">
        <ele>191.1</ele>
        <time>2020-06-10T15:19:37Z</time>
      </trkpt>
      <trkpt lat="48.56213" lon="-3.50186">
        <ele>191.2</ele>
        <time>2020-06-10T15:19:38Z</time>
      </trkpt>
      <trkpt lat="48.56213" lon="-3.5018">
        <ele>191.3</ele>
        <time>2020-06-10T15:19:39Z</time>
      </trkpt>
      <trkpt lat="48.56212" lon="-3.50176">
        <ele>191.4</ele>
        <time>2020-06-10T15:19:40Z</time>
      </trkpt>
      <trkpt lat="48.56211" lon="-3.50168">
        <ele>191.5</ele>
        <time>2020-06-10T15:19:41Z</time>
      </trkpt>
      <trkpt lat="48.56211" lon="-3.50161">
        <ele>191.7</ele>
        <time>2020-06-10T15:19:42Z</time>
      </trkpt>
      <trkpt lat="48.5621" lon="-3.50154">
        <ele>191.8</ele>
        <time>2020-06-10T15:19:43Z</time>
      </trkpt>
      <trkpt lat="48.56209" lon="-3.50149">
        <ele>191.9</ele>
        <time>2020-06-10T15:19:44Z</time>
      </trkpt>
      <trkpt lat="48.56208" lon="-3.50142">
        <ele>192.1</ele>
        <time>2020-06-10T15:19:45Z</time>
      </trkpt>
      <trkpt lat="48.56208" lon="-3.50136">
        <ele>192.2</ele>
        <time>2020-06-10T15:19:46Z</time>
      </trkpt>
      <trkpt lat="48.56207" lon="-3.50133">
        <ele>192.2</ele>
        <time>2020-06-10T15:19:47Z</time>
      </trkpt>
      <trkpt lat="48.56207" lon="-3.50126">
        <ele>192.4</ele>
        <time>2020-06-10T15:19:48Z</time>
      </trkpt>
      <trkpt lat="48.56206" lon="-3.50119">
        <ele>192.5</ele>
        <time>2020-06-10T15:19:49Z</time>
      </trkpt>
      <trkpt lat="48.56205" lon="-3.50111">
        <ele>192.7</ele>
        <time>2020-06-10T15:19:50Z</time>
      </trkpt>
      <trkpt lat="48.56204" lon="-3.50104">
        <ele>192.8</ele>
        <time>2020-06-10T15:19:51Z</time>
      </trkpt>
      <trkpt lat="48.56204" lon="-3.50098">
        <ele>192.9</ele>
        <time>2020-06-10T15:19:52Z</time>
      </trkpt>
      <trkpt lat="48.56203" lon="-3.50091">
        <ele>193</ele>
        <time>2020-06-10T15:19:53Z</time>
      </trkpt>
      <trkpt lat="48.56202" lon="-3.50085">
        <ele>193.1</ele>
        <time>2020-06-10T15:19:54Z</time>
      </trkpt>
      <trkpt lat="48.56202" lon="-3.5008">
        <ele>193.2</ele>
        <time>2020-06-10T15:19:55Z</time>
      </trkpt>
      <trkpt lat="48.56202" lon="-3.50076">
        <ele>193.2</ele>
        <time>2020-06-10T15:19:56Z</time>
      </trkpt>
      <trkpt lat="48.56201" lon="-3.5007">
        <ele>193.3</ele>
        <time>2020-06-10T15:19:57Z</time>
      </trkpt>
      <trkpt lat="48.56201" lon="-3.50063">
        <ele>193.4</ele>
        <time>2020-06-10T15:19:58Z</time>
      </trkpt>
      <trkpt lat="48.56201" lon="-3.50057">
        <ele>193.5</ele>
        <time>2020-06-10T15:19:59Z</time>
      </trkpt>
      <trkpt lat="48.562" lon="-3.50051">
        <ele>193.5</ele>
        <time>2020-06-10T15:20:00Z</time>
      </trkpt>
      <trkpt lat="48.562" lon="-3.50046">
        <ele>193.6</ele>
        <time>2020-06-10T15:20:01Z</time>
      </trkpt>
      <trkpt lat="48.56199" lon="-3.50041">
        <ele>193.6</ele>
        <time>2020-06-10T15:20:02Z</time>
      </trkpt>
      <trkpt lat="48.56198" lon="-3.50037">
        <ele>193.6</ele>
        <time>2020-06-10T15:20:03Z</time>
      </trkpt>
      <trkpt lat="48.56198" lon="-3.50032">
        <ele>193.6</ele>
        <time>2020-06-10T15:20:04Z</time>
      </trkpt>
      <trkpt lat="48.56197" lon="-3.50027">
        <ele>193.6</ele>
        <time>2020-06-10T15:20:05Z</time>
      </trkpt>
      <trkpt lat="48.56197" lon="-3.50022">
        <ele>193.6</ele>
        <time>2020-06-10T15:20:06Z</time>
      </trkpt>
      <trkpt lat="48.56196" lon="-3.50017">
        <ele>193.7</ele>
        <time>2020-06-10T15:20:07Z</time>
      </trkpt>
      <trkpt lat="48.56196" lon="-3.50011">
        <ele>193.7</ele>
        <time>2020-06-10T15:20:08Z</time>
      </trkpt>
      <trkpt lat="48.56196" lon="-3.50009">
        <ele>193.7</ele>
        <time>2020-06-10T15:20:09Z</time>
      </trkpt>
      <trkpt lat="48.56195" lon="-3.50005">
        <ele>193.7</ele>
        <time>2020-06-10T15:20:10Z</time>
      </trkpt>
      <trkpt lat="48.56193" lon="-3.49998">
        <ele>193.7</ele>
        <time>2020-06-10T15:20:11Z</time>
      </trkpt>
      <trkpt lat="48.56191" lon="-3.4999">
        <ele>193.8</ele>
        <time>2020-06-10T15:20:12Z</time>
      </trkpt>
      <trkpt lat="48.5619" lon="-3.49984">
        <ele>193.8</ele>
        <time>2020-06-10T15:20:13Z</time>
      </trkpt>
      <trkpt lat="48.56189" lon="-3.49978">
        <ele>193.8</ele>
        <time>2020-06-10T15:20:14Z</time>
      </trkpt>
      <trkpt lat="48.56188" lon="-3.49974">
        <ele>193.8</ele>
        <time>2020-06-10T15:20:15Z</time>
      </trkpt>
      <trkpt lat="48.56188" lon="-3.49969">
        <ele>193.9</ele>
        <time>2020-06-10T15:20:16Z</time>
      </trkpt>
      <trkpt lat="48.56188" lon="-3.49967">
        <ele>193.9</ele>
        <time>2020-06-10T15:20:17Z</time>
      </trkpt>
      <trkpt lat="48.56188" lon="-3.49964">
        <ele>193.9</ele>
        <time>2020-06-10T15:20:18Z</time>
      </trkpt>
      <trkpt lat="48.56189" lon="-3.49963">
        <ele>193.9</ele>
        <time>2020-06-10T15:20:19Z</time>
      </trkpt>
      <trkpt lat="48.56189" lon="-3.49961">
        <ele>193.9</ele>
        <time>2020-06-10T15:20:20Z</time>
      </trkpt>
      <trkpt lat="48.56188" lon="-3.49957">
        <ele>193.9</ele>
        <time>2020-06-10T15:20:21Z</time>
      </trkpt>
      <trkpt lat="48.56188" lon="-3.49953">
        <ele>193.9</ele>
        <time>2020-06-10T15:20:22Z</time>
      </trkpt>
      <trkpt lat="48.56187" lon="-3.49951">
        <ele>193.9</ele>
        <time>2020-06-10T15:20:23Z</time>
      </trkpt>
      <trkpt lat="48.56186" lon="-3.49946">
        <ele>194</ele>
        <time>2020-06-10T15:20:24Z</time>
      </trkpt>
      <trkpt lat="48.56184" lon="-3.49942">
        <ele>194</ele>
        <time>2020-06-10T15:20:25Z</time>
      </trkpt>
      <trkpt lat="48.56184" lon="-3.49939">
        <ele>194</ele>
        <time>2020-06-10T15:20:26Z</time>
      </trkpt>
      <trkpt lat="48.56183" lon="-3.49937">
        <ele>194</ele>
        <time>2020-06-10T15:20:27Z</time>
      </trkpt>
      <trkpt lat="48.56182" lon="-3.49936">
        <ele>194</ele>
        <time>2020-06-10T15:20:28Z</time>
      </trkpt>
      <trkpt lat="48.56182" lon="-3.49936">
        <ele>194</ele>
        <time>2020-06-10T15:20:29Z</time>
      </trkpt>
      <trkpt lat="48.56182" lon="-3.49937">
        <ele>194</ele>
        <time>2020-06-10T15:20:30Z</time>
      </trkpt>
      <trkpt lat="48.56182" lon="-3.49938">
        <ele>194</ele>
        <time>2020-06-10T15:20:31Z</time>
      </trkpt>
      <trkpt lat="48.56182" lon="-3.49938">
        <ele>194</ele>
        <time>2020-06-10T15:20:32Z</time>
      </trkpt>
      <trkpt lat="48.56182" lon="-3.49937">
        <ele>194</ele>
        <time>2020-06-10T15:20:33Z</time>
      </trkpt>
      <trkpt lat="48.56182" lon="-3.49938">
        <ele>194</ele>
        <time>2020-06-10T15:20:34Z</time>
      </trkpt>
      <trkpt lat="48.56181" lon="-3.49938">
        <ele>193.9</ele>
        <time>2020-06-10T15:20:35Z</time>
      </trkpt>
      <trkpt lat="48.56181" lon="-3.49938">
        <ele>193.9</ele>
        <time>2020-06-10T15:20:36Z</time>
      </trkpt>
      <trkpt lat="48.56181" lon="-3.49938">
        <ele>193.9</ele>
        <time>2020-06-10T15:20:37Z</time>
      </trkpt>
      <trkpt lat="48.56181" lon="-3.49938">
        <ele>193.9</ele>
        <time>2020-06-10T15:20:38Z</time>
      </trkpt>
      <trkpt lat="48.56181" lon="-3.49937">
        <ele>193.9</ele>
        <time>2020-06-10T15:20:39Z</time>
      </trkpt>
      <trkpt lat="48.56181" lon="-3.49937">
        <ele>193.9</ele>
        <time>2020-06-10T15:20:40Z</time>
      </trkpt>
      <trkpt lat="48.5618" lon="-3.49937">
        <ele>193.9</ele>
        <time>2020-06-10T15:20:43Z</time>
      </trkpt>
      <trkpt lat="48.5618" lon="-3.49935">
        <ele>193.9</ele>
        <time>2020-06-10T15:20:44Z</time>
      </trkpt>
      <trkpt lat="48.5618" lon="-3.49931">
        <ele>193.9</ele>
        <time>2020-06-10T15:20:45Z</time>
      </trkpt>
      <trkpt lat="48.5618" lon="-3.49926">
        <ele>193.8</ele>
        <time>2020-06-10T15:20:46Z</time>
      </trkpt>
      <trkpt lat="48.5618" lon="-3.49924">
        <ele>193.8</ele>
        <time>2020-06-10T15:20:47Z</time>
      </trkpt>
      <trkpt lat="48.5618" lon="-3.4992">
        <ele>193.7</ele>
        <time>2020-06-10T15:20:48Z</time>
      </trkpt>
      <trkpt lat="48.5618" lon="-3.49916">
        <ele>193.5</ele>
        <time>2020-06-10T15:20:49Z</time>
      </trkpt>
      <trkpt lat="48.56181" lon="-3.49911">
        <ele>193.4</ele>
        <time>2020-06-10T15:20:50Z</time>
      </trkpt>
      <trkpt lat="48.56181" lon="-3.49906">
        <ele>193.3</ele>
        <time>2020-06-10T15:20:51Z</time>
      </trkpt>
      <trkpt lat="48.56181" lon="-3.49901">
        <ele>193.1</ele>
        <time>2020-06-10T15:20:52Z</time>
      </trkpt>
      <trkpt lat="48.56181" lon="-3.49893">
        <ele>192.9</ele>
        <time>2020-06-10T15:20:53Z</time>
      </trkpt>
      <trkpt lat="48.56181" lon="-3.49886">
        <ele>192.6</ele>
        <time>2020-06-10T15:20:54Z</time>
      </trkpt>
      <trkpt lat="48.56179" lon="-3.49875">
        <ele>192.2</ele>
        <time>2020-06-10T15:20:55Z</time>
      </trkpt>
      <trkpt lat="48.56178" lon="-3.49864">
        <ele>191.7</ele>
        <time>2020-06-10T15:20:56Z</time>
      </trkpt>
      <trkpt lat="48.56177" lon="-3.49852">
        <ele>191.2</ele>
        <time>2020-06-10T15:20:57Z</time>
      </trkpt>
      <trkpt lat="48.56175" lon="-3.49839">
        <ele>190.5</ele>
        <time>2020-06-10T15:20:58Z</time>
      </trkpt>
      <trkpt lat="48.56174" lon="-3.49826">
        <ele>189.2</ele>
        <time>2020-06-10T15:20:59Z</time>
      </trkpt>
      <trkpt lat="48.56172" lon="-3.49811">
        <ele>188.5</ele>
        <time>2020-06-10T15:21:00Z</time>
      </trkpt>
      <trkpt lat="48.5617" lon="-3.49796">
        <ele>187.7</ele>
        <time>2020-06-10T15:21:01Z</time>
      </trkpt>
      <trkpt lat="48.56169" lon="-3.4978">
        <ele>186.9</ele>
        <time>2020-06-10T15:21:02Z</time>
      </trkpt>
      <trkpt lat="48.56167" lon="-3.49764">
        <ele>186</ele>
        <time>2020-06-10T15:21:03Z</time>
      </trkpt>
      <trkpt lat="48.56165" lon="-3.49747">
        <ele>185.1</ele>
        <time>2020-06-10T15:21:04Z</time>
      </trkpt>
      <trkpt lat="48.56163" lon="-3.49729">
        <ele>184.2</ele>
        <time>2020-06-10T15:21:05Z</time>
      </trkpt>
      <trkpt lat="48.56161" lon="-3.4971">
        <ele>183.3</ele>
        <time>2020-06-10T15:21:06Z</time>
      </trkpt>
      <trkpt lat="48.5616" lon="-3.4969">
        <ele>182.3</ele>
        <time>2020-06-10T15:21:07Z</time>
      </trkpt>
      <trkpt lat="48.56158" lon="-3.4967">
        <ele>181.2</ele>
        <time>2020-06-10T15:21:08Z</time>
      </trkpt>
      <trkpt lat="48.56157" lon="-3.4965">
        <ele>180</ele>
        <time>2020-06-10T15:21:09Z</time>
      </trkpt>
      <trkpt lat="48.56155" lon="-3.4963">
        <ele>178.7</ele>
        <time>2020-06-10T15:21:10Z</time>
      </trkpt>
      <trkpt lat="48.56153" lon="-3.49609">
        <ele>177.3</ele>
        <time>2020-06-10T15:21:11Z</time>
      </trkpt>
      <trkpt lat="48.56151" lon="-3.49586">
        <ele>175.8</ele>
        <time>2020-06-10T15:21:12Z</time>
      </trkpt>
      <trkpt lat="48.56149" lon="-3.49565">
        <ele>174.4</ele>
        <time>2020-06-10T15:21:13Z</time>
      </trkpt>
      <trkpt lat="48.56147" lon="-3.49543">
        <ele>173</ele>
        <time>2020-06-10T15:21:14Z</time>
      </trkpt>
      <trkpt lat="48.56145" lon="-3.49521">
        <ele>171.7</ele>
        <time>2020-06-10T15:21:15Z</time>
      </trkpt>
      <trkpt lat="48.56143" lon="-3.49498">
        <ele>170.7</ele>
        <time>2020-06-10T15:21:16Z</time>
      </trkpt>
      <trkpt lat="48.56141" lon="-3.49477">
        <ele>169.8</ele>
        <time>2020-06-10T15:21:17Z</time>
      </trkpt>
      <trkpt lat="48.56139" lon="-3.49456">
        <ele>169</ele>
        <time>2020-06-10T15:21:18Z</time>
      </trkpt>
      <trkpt lat="48.56136" lon="-3.49433">
        <ele>168.2</ele>
        <time>2020-06-10T15:21:19Z</time>
      </trkpt>
      <trkpt lat="48.56134" lon="-3.4941">
        <ele>167.5</ele>
        <time>2020-06-10T15:21:20Z</time>
      </trkpt>
      <trkpt lat="48.56132" lon="-3.49388">
        <ele>167</ele>
        <time>2020-06-10T15:21:21Z</time>
      </trkpt>
      <trkpt lat="48.5613" lon="-3.49368">
        <ele>166.8</ele>
        <time>2020-06-10T15:21:22Z</time>
      </trkpt>
      <trkpt lat="48.56128" lon="-3.49347">
        <ele>166.8</ele>
        <time>2020-06-10T15:21:23Z</time>
      </trkpt>
      <trkpt lat="48.56127" lon="-3.49327">
        <ele>166.9</ele>
        <time>2020-06-10T15:21:24Z</time>
      </trkpt>
      <trkpt lat="48.56127" lon="-3.49308">
        <ele>167.2</ele>
        <time>2020-06-10T15:21:25Z</time>
      </trkpt>
      <trkpt lat="48.56126" lon="-3.49291">
        <ele>167.4</ele>
        <time>2020-06-10T15:21:26Z</time>
      </trkpt>
      <trkpt lat="48.56126" lon="-3.49274">
        <ele>167.6</ele>
        <time>2020-06-10T15:21:27Z</time>
      </trkpt>
      <trkpt lat="48.56126" lon="-3.49257">
        <ele>167.9</ele>
        <time>2020-06-10T15:21:28Z</time>
      </trkpt>
      <trkpt lat="48.56126" lon="-3.49242">
        <ele>168</ele>
        <time>2020-06-10T15:21:29Z</time>
      </trkpt>
      <trkpt lat="48.56126" lon="-3.49227">
        <ele>168</ele>
        <time>2020-06-10T15:21:30Z</time>
      </trkpt>
      <trkpt lat="48.56127" lon="-3.49212">
        <ele>168.1</ele>
        <time>2020-06-10T15:21:31Z</time>
      </trkpt>
      <trkpt lat="48.56126" lon="-3.49199">
        <ele>168.3</ele>
        <time>2020-06-10T15:21:32Z</time>
      </trkpt>
      <trkpt lat="48.56127" lon="-3.49185">
        <ele>168.4</ele>
        <time>2020-06-10T15:21:33Z</time>
      </trkpt>
      <trkpt lat="48.56126" lon="-3.49173">
        <ele>168.5</ele>
        <time>2020-06-10T15:21:34Z</time>
      </trkpt>
      <trkpt lat="48.56125" lon="-3.49161">
        <ele>168.7</ele>
        <time>2020-06-10T15:21:35Z</time>
      </trkpt>
      <trkpt lat="48.56125" lon="-3.49149">
        <ele>168.8</ele>
        <time>2020-06-10T15:21:36Z</time>
      </trkpt>
      <trkpt lat="48.56124" lon="-3.49138">
        <ele>168.9</ele>
        <time>2020-06-10T15:21:37Z</time>
      </trkpt>
      <trkpt lat="48.56123" lon="-3.49127">
        <ele>168.9</ele>
        <time>2020-06-10T15:21:38Z</time>
      </trkpt>
      <trkpt lat="48.56122" lon="-3.49116">
        <ele>169</ele>
        <time>2020-06-10T15:21:39Z</time>
      </trkpt>
      <trkpt lat="48.56121" lon="-3.49106">
        <ele>169.1</ele>
        <time>2020-06-10T15:21:40Z</time>
      </trkpt>
      <trkpt lat="48.56119" lon="-3.49097">
        <ele>169.1</ele>
        <time>2020-06-10T15:21:41Z</time>
      </trkpt>
      <trkpt lat="48.56118" lon="-3.49087">
        <ele>169.1</ele>
        <time>2020-06-10T15:21:42Z</time>
      </trkpt>
      <trkpt lat="48.56117" lon="-3.49078">
        <ele>169.2</ele>
        <time>2020-06-10T15:21:43Z</time>
      </trkpt>
      <trkpt lat="48.56116" lon="-3.49069">
        <ele>169.2</ele>
        <time>2020-06-10T15:21:44Z</time>
      </trkpt>
      <trkpt lat="48.56115" lon="-3.4906">
        <ele>169.2</ele>
        <time>2020-06-10T15:21:45Z</time>
      </trkpt>
      <trkpt lat="48.56113" lon="-3.49051">
        <ele>169.1</ele>
        <time>2020-06-10T15:21:46Z</time>
      </trkpt>
      <trkpt lat="48.56112" lon="-3.49043">
        <ele>169</ele>
        <time>2020-06-10T15:21:47Z</time>
      </trkpt>
      <trkpt lat="48.56111" lon="-3.49035">
        <ele>169</ele>
        <time>2020-06-10T15:21:48Z</time>
      </trkpt>
      <trkpt lat="48.5611" lon="-3.49027">
        <ele>169</ele>
        <time>2020-06-10T15:21:49Z</time>
      </trkpt>
      <trkpt lat="48.56109" lon="-3.49019">
        <ele>168.8</ele>
        <time>2020-06-10T15:21:50Z</time>
      </trkpt>
      <trkpt lat="48.56108" lon="-3.4901">
        <ele>168.7</ele>
        <time>2020-06-10T15:21:51Z</time>
      </trkpt>
      <trkpt lat="48.56107" lon="-3.49002">
        <ele>168.6</ele>
        <time>2020-06-10T15:21:52Z</time>
      </trkpt>
      <trkpt lat="48.56107" lon="-3.48993">
        <ele>168.4</ele>
        <time>2020-06-10T15:21:53Z</time>
      </trkpt>
      <trkpt lat="48.56105" lon="-3.48984">
        <ele>168.3</ele>
        <time>2020-06-10T15:21:54Z</time>
      </trkpt>
      <trkpt lat="48.56104" lon="-3.48975">
        <ele>168.2</ele>
        <time>2020-06-10T15:21:55Z</time>
      </trkpt>
      <trkpt lat="48.56103" lon="-3.48964">
        <ele>168.1</ele>
        <time>2020-06-10T15:21:56Z</time>
      </trkpt>
      <trkpt lat="48.56102" lon="-3.48954">
        <ele>168</ele>
        <time>2020-06-10T15:21:57Z</time>
      </trkpt>
      <trkpt lat="48.56101" lon="-3.48943">
        <ele>167.9</ele>
        <time>2020-06-10T15:21:58Z</time>
      </trkpt>
      <trkpt lat="48.56099" lon="-3.48931">
        <ele>167.8</ele>
        <time>2020-06-10T15:21:59Z</time>
      </trkpt>
      <trkpt lat="48.56099" lon="-3.48919">
        <ele>167.6</ele>
        <time>2020-06-10T15:22:00Z</time>
      </trkpt>
      <trkpt lat="48.56099" lon="-3.48907">
        <ele>167.5</ele>
        <time>2020-06-10T15:22:01Z</time>
      </trkpt>
      <trkpt lat="48.56098" lon="-3.48894">
        <ele>167.4</ele>
        <time>2020-06-10T15:22:02Z</time>
      </trkpt>
      <trkpt lat="48.56096" lon="-3.48882">
        <ele>167.3</ele>
        <time>2020-06-10T15:22:03Z</time>
      </trkpt>
      <trkpt lat="48.56095" lon="-3.48869">
        <ele>167.2</ele>
        <time>2020-06-10T15:22:04Z</time>
      </trkpt>
      <trkpt lat="48.56094" lon="-3.48856">
        <ele>167</ele>
        <time>2020-06-10T15:22:05Z</time>
      </trkpt>
      <trkpt lat="48.56093" lon="-3.48842">
        <ele>166.8</ele>
        <time>2020-06-10T15:22:06Z</time>
      </trkpt>
      <trkpt lat="48.56092" lon="-3.48828">
        <ele>166.6</ele>
        <time>2020-06-10T15:22:07Z</time>
      </trkpt>
      <trkpt lat="48.56091" lon="-3.48813">
        <ele>166.5</ele>
        <time>2020-06-10T15:22:08Z</time>
      </trkpt>
      <trkpt lat="48.5609" lon="-3.48799">
        <ele>166.3</ele>
        <time>2020-06-10T15:22:09Z</time>
      </trkpt>
      <trkpt lat="48.56089" lon="-3.48784">
        <ele>166.1</ele>
        <time>2020-06-10T15:22:10Z</time>
      </trkpt>
      <trkpt lat="48.56088" lon="-3.48769">
        <ele>165.9</ele>
        <time>2020-06-10T15:22:11Z</time>
      </trkpt>
      <trkpt lat="48.56087" lon="-3.48755">
        <ele>165.7</ele>
        <time>2020-06-10T15:22:12Z</time>
      </trkpt>
      <trkpt lat="48.56086" lon="-3.48739">
        <ele>165.4</ele>
        <time>2020-06-10T15:22:13Z</time>
      </trkpt>
      <trkpt lat="48.56085" lon="-3.48723">
        <ele>165.1</ele>
        <time>2020-06-10T15:22:14Z</time>
      </trkpt>
      <trkpt lat="48.56084" lon="-3.48708">
        <ele>164.8</ele>
        <time>2020-06-10T15:22:15Z</time>
      </trkpt>
      <trkpt lat="48.56083" lon="-3.48692">
        <ele>164.5</ele>
        <time>2020-06-10T15:22:16Z</time>
      </trkpt>
      <trkpt lat="48.56081" lon="-3.48677">
        <ele>164.2</ele>
        <time>2020-06-10T15:22:17Z</time>
      </trkpt>
      <trkpt lat="48.56079" lon="-3.48661">
        <ele>163.9</ele>
        <time>2020-06-10T15:22:18Z</time>
      </trkpt>
      <trkpt lat="48.56077" lon="-3.48646">
        <ele>163.7</ele>
        <time>2020-06-10T15:22:19Z</time>
      </trkpt>
      <trkpt lat="48.56075" lon="-3.4863">
        <ele>163.5</ele>
        <time>2020-06-10T15:22:20Z</time>
      </trkpt>
      <trkpt lat="48.56074" lon="-3.48615">
        <ele>163.3</ele>
        <time>2020-06-10T15:22:21Z</time>
      </trkpt>
      <trkpt lat="48.56073" lon="-3.486">
        <ele>163</ele>
        <time>2020-06-10T15:22:22Z</time>
      </trkpt>
      <trkpt lat="48.56071" lon="-3.48586">
        <ele>162.8</ele>
        <time>2020-06-10T15:22:23Z</time>
      </trkpt>
      <trkpt lat="48.5607" lon="-3.48571">
        <ele>162.6</ele>
        <time>2020-06-10T15:22:24Z</time>
      </trkpt>
      <trkpt lat="48.56068" lon="-3.48555">
        <ele>162.4</ele>
        <time>2020-06-10T15:22:25Z</time>
      </trkpt>
      <trkpt lat="48.56067" lon="-3.4854">
        <ele>162.1</ele>
        <time>2020-06-10T15:22:26Z</time>
      </trkpt>
      <trkpt lat="48.56065" lon="-3.48525">
        <ele>161.9</ele>
        <time>2020-06-10T15:22:27Z</time>
      </trkpt>
      <trkpt lat="48.56064" lon="-3.4851">
        <ele>161.6</ele>
        <time>2020-06-10T15:22:28Z</time>
      </trkpt>
      <trkpt lat="48.56062" lon="-3.48496">
        <ele>161.4</ele>
        <time>2020-06-10T15:22:29Z</time>
      </trkpt>
      <trkpt lat="48.56061" lon="-3.48481">
        <ele>161.2</ele>
        <time>2020-06-10T15:22:30Z</time>
      </trkpt>
      <trkpt lat="48.56059" lon="-3.48467">
        <ele>160.9</ele>
        <time>2020-06-10T15:22:31Z</time>
      </trkpt>
      <trkpt lat="48.56058" lon="-3.48453">
        <ele>160.7</ele>
        <time>2020-06-10T15:22:32Z</time>
      </trkpt>
      <trkpt lat="48.56056" lon="-3.48439">
        <ele>160.4</ele>
        <time>2020-06-10T15:22:33Z</time>
      </trkpt>
      <trkpt lat="48.56055" lon="-3.48424">
        <ele>160.2</ele>
        <time>2020-06-10T15:22:34Z</time>
      </trkpt>
      <trkpt lat="48.56054" lon="-3.48409">
        <ele>160</ele>
        <time>2020-06-10T15:22:35Z</time>
      </trkpt>
      <trkpt lat="48.56053" lon="-3.48394">
        <ele>159.7</ele>
        <time>2020-06-10T15:22:36Z</time>
      </trkpt>
      <trkpt lat="48.56052" lon="-3.48378">
        <ele>159.4</ele>
        <time>2020-06-10T15:22:37Z</time>
      </trkpt>
      <trkpt lat="48.5605" lon="-3.48363">
        <ele>159.1</ele>
        <time>2020-06-10T15:22:38Z</time>
      </trkpt>
      <trkpt lat="48.56048" lon="-3.48348">
        <ele>158.8</ele>
        <time>2020-06-10T15:22:39Z</time>
      </trkpt>
      <trkpt lat="48.56047" lon="-3.48333">
        <ele>158.5</ele>
        <time>2020-06-10T15:22:40Z</time>
      </trkpt>
      <trkpt lat="48.56046" lon="-3.48318">
        <ele>158.1</ele>
        <time>2020-06-10T15:22:41Z</time>
      </trkpt>
      <trkpt lat="48.56045" lon="-3.48302">
        <ele>157.8</ele>
        <time>2020-06-10T15:22:42Z</time>
      </trkpt>
      <trkpt lat="48.56044" lon="-3.48287">
        <ele>157.4</ele>
        <time>2020-06-10T15:22:43Z</time>
      </trkpt>
      <trkpt lat="48.56042" lon="-3.48272">
        <ele>157</ele>
        <time>2020-06-10T15:22:44Z</time>
      </trkpt>
      <trkpt lat="48.56041" lon="-3.48256">
        <ele>156.5</ele>
        <time>2020-06-10T15:22:45Z</time>
      </trkpt>
      <trkpt lat="48.56039" lon="-3.4824">
        <ele>155.9</ele>
        <time>2020-06-10T15:22:46Z</time>
      </trkpt>
      <trkpt lat="48.56038" lon="-3.48225">
        <ele>155.1</ele>
        <time>2020-06-10T15:22:47Z</time>
      </trkpt>
      <trkpt lat="48.56036" lon="-3.48209">
        <ele>154.3</ele>
        <time>2020-06-10T15:22:48Z</time>
      </trkpt>
      <trkpt lat="48.56035" lon="-3.48193">
        <ele>153.4</ele>
        <time>2020-06-10T15:22:49Z</time>
      </trkpt>
      <trkpt lat="48.56034" lon="-3.48175">
        <ele>152.6</ele>
        <time>2020-06-10T15:22:50Z</time>
      </trkpt>
      <trkpt lat="48.56032" lon="-3.48157">
        <ele>152</ele>
        <time>2020-06-10T15:22:51Z</time>
      </trkpt>
      <trkpt lat="48.5603" lon="-3.4814">
        <ele>151.3</ele>
        <time>2020-06-10T15:22:52Z</time>
      </trkpt>
      <trkpt lat="48.56029" lon="-3.48123">
        <ele>150.7</ele>
        <time>2020-06-10T15:22:53Z</time>
      </trkpt>
      <trkpt lat="48.56027" lon="-3.48106">
        <ele>150.2</ele>
        <time>2020-06-10T15:22:54Z</time>
      </trkpt>
      <trkpt lat="48.56025" lon="-3.48089">
        <ele>149.9</ele>
        <time>2020-06-10T15:22:55Z</time>
      </trkpt>
      <trkpt lat="48.56024" lon="-3.48072">
        <ele>149.8</ele>
        <time>2020-06-10T15:22:56Z</time>
      </trkpt>
      <trkpt lat="48.56022" lon="-3.48056">
        <ele>149.7</ele>
        <time>2020-06-10T15:22:57Z</time>
      </trkpt>
      <trkpt lat="48.56021" lon="-3.4804">
        <ele>149.6</ele>
        <time>2020-06-10T15:22:58Z</time>
      </trkpt>
      <trkpt lat="48.56019" lon="-3.48024">
        <ele>149.5</ele>
        <time>2020-06-10T15:22:59Z</time>
      </trkpt>
      <trkpt lat="48.56017" lon="-3.48009">
        <ele>149.6</ele>
        <time>2020-06-10T15:23:00Z</time>
      </trkpt>
      <trkpt lat="48.56016" lon="-3.47994">
        <ele>149.7</ele>
        <time>2020-06-10T15:23:01Z</time>
      </trkpt>
      <trkpt lat="48.56015" lon="-3.4798">
        <ele>149.9</ele>
        <time>2020-06-10T15:23:02Z</time>
      </trkpt>
      <trkpt lat="48.56014" lon="-3.47967">
        <ele>150.1</ele>
        <time>2020-06-10T15:23:03Z</time>
      </trkpt>
      <trkpt lat="48.56013" lon="-3.47954">
        <ele>150.3</ele>
        <time>2020-06-10T15:23:04Z</time>
      </trkpt>
      <trkpt lat="48.56012" lon="-3.47941">
        <ele>150.6</ele>
        <time>2020-06-10T15:23:05Z</time>
      </trkpt>
      <trkpt lat="48.56011" lon="-3.47928">
        <ele>151</ele>
        <time>2020-06-10T15:23:06Z</time>
      </trkpt>
      <trkpt lat="48.5601" lon="-3.47916">
        <ele>151.5</ele>
        <time>2020-06-10T15:23:07Z</time>
      </trkpt>
      <trkpt lat="48.5601" lon="-3.47905">
        <ele>151.9</ele>
        <time>2020-06-10T15:23:08Z</time>
      </trkpt>
      <trkpt lat="48.56009" lon="-3.47894">
        <ele>152.3</ele>
        <time>2020-06-10T15:23:09Z</time>
      </trkpt>
      <trkpt lat="48.56008" lon="-3.47883">
        <ele>152.8</ele>
        <time>2020-06-10T15:23:10Z</time>
      </trkpt>
      <trkpt lat="48.56008" lon="-3.47873">
        <ele>153.2</ele>
        <time>2020-06-10T15:23:11Z</time>
      </trkpt>
      <trkpt lat="48.56007" lon="-3.47864">
        <ele>153.6</ele>
        <time>2020-06-10T15:23:12Z</time>
      </trkpt>
      <trkpt lat="48.56007" lon="-3.47855">
        <ele>154</ele>
        <time>2020-06-10T15:23:13Z</time>
      </trkpt>
      <trkpt lat="48.56006" lon="-3.47847">
        <ele>154.5</ele>
        <time>2020-06-10T15:23:14Z</time>
      </trkpt>
      <trkpt lat="48.56006" lon="-3.47839">
        <ele>154.9</ele>
        <time>2020-06-10T15:23:15Z</time>
      </trkpt>
      <trkpt lat="48.56005" lon="-3.47831">
        <ele>155.4</ele>
        <time>2020-06-10T15:23:16Z</time>
      </trkpt>
      <trkpt lat="48.56004" lon="-3.47825">
        <ele>155.8</ele>
        <time>2020-06-10T15:23:17Z</time>
      </trkpt>
      <trkpt lat="48.56004" lon="-3.47819">
        <ele>156.2</ele>
        <time>2020-06-10T15:23:18Z</time>
      </trkpt>
      <trkpt lat="48.56003" lon="-3.47814">
        <ele>156.6</ele>
        <time>2020-06-10T15:23:19Z</time>
      </trkpt>
      <trkpt lat="48.56003" lon="-3.47809">
        <ele>156.9</ele>
        <time>2020-06-10T15:23:20Z</time>
      </trkpt>
      <trkpt lat="48.56002" lon="-3.47804">
        <ele>157.2</ele>
        <time>2020-06-10T15:23:21Z</time>
      </trkpt>
      <trkpt lat="48.56002" lon="-3.478">
        <ele>157.5</ele>
        <time>2020-06-10T15:23:22Z</time>
      </trkpt>
      <trkpt lat="48.56001" lon="-3.47796">
        <ele>157.9</ele>
        <time>2020-06-10T15:23:23Z</time>
      </trkpt>
      <trkpt lat="48.56001" lon="-3.47791">
        <ele>158.3</ele>
        <time>2020-06-10T15:23:24Z</time>
      </trkpt>
      <trkpt lat="48.56" lon="-3.47786">
        <ele>158.8</ele>
        <time>2020-06-10T15:23:25Z</time>
      </trkpt>
      <trkpt lat="48.56" lon="-3.47784">
        <ele>158.9</ele>
        <time>2020-06-10T15:23:26Z</time>
      </trkpt>
      <trkpt lat="48.55999" lon="-3.4778">
        <ele>159.2</ele>
        <time>2020-06-10T15:23:27Z</time>
      </trkpt>
      <trkpt lat="48.55998" lon="-3.47774">
        <ele>159.7</ele>
        <time>2020-06-10T15:23:28Z</time>
      </trkpt>
      <trkpt lat="48.55998" lon="-3.47772">
        <ele>159.9</ele>
        <time>2020-06-10T15:23:29Z</time>
      </trkpt>
      <trkpt lat="48.55997" lon="-3.47767">
        <ele>160.3</ele>
        <time>2020-06-10T15:23:30Z</time>
      </trkpt>
      <trkpt lat="48.55997" lon="-3.47765">
        <ele>160.4</ele>
        <time>2020-06-10T15:23:31Z</time>
      </trkpt>
      <trkpt lat="48.55996" lon="-3.4776">
        <ele>160.8</ele>
        <time>2020-06-10T15:23:32Z</time>
      </trkpt>
      <trkpt lat="48.55995" lon="-3.47755">
        <ele>161.2</ele>
        <time>2020-06-10T15:23:33Z</time>
      </trkpt>
      <trkpt lat="48.55994" lon="-3.47748">
        <ele>161.8</ele>
        <time>2020-06-10T15:23:34Z</time>
      </trkpt>
      <trkpt lat="48.55994" lon="-3.47745">
        <ele>162</ele>
        <time>2020-06-10T15:23:35Z</time>
      </trkpt>
      <trkpt lat="48.55993" lon="-3.47741">
        <ele>162.3</ele>
        <time>2020-06-10T15:23:36Z</time>
      </trkpt>
      <trkpt lat="48.55993" lon="-3.47736">
        <ele>162.7</ele>
        <time>2020-06-10T15:23:37Z</time>
      </trkpt>
      <trkpt lat="48.55993" lon="-3.47734">
        <ele>162.8</ele>
        <time>2020-06-10T15:23:38Z</time>
      </trkpt>
      <trkpt lat="48.55992" lon="-3.4773">
        <ele>163.1</ele>
        <time>2020-06-10T15:23:39Z</time>
      </trkpt>
      <trkpt lat="48.55992" lon="-3.47728">
        <ele>163.3</ele>
        <time>2020-06-10T15:23:40Z</time>
      </trkpt>
      <trkpt lat="48.55992" lon="-3.47725">
        <ele>163.5</ele>
        <time>2020-06-10T15:23:41Z</time>
      </trkpt>
      <trkpt lat="48.55991" lon="-3.47723">
        <ele>163.6</ele>
        <time>2020-06-10T15:23:42Z</time>
      </trkpt>
      <trkpt lat="48.55991" lon="-3.47718">
        <ele>164</ele>
        <time>2020-06-10T15:23:43Z</time>
      </trkpt>
      <trkpt lat="48.5599" lon="-3.47716">
        <ele>164.2</ele>
        <time>2020-06-10T15:23:44Z</time>
      </trkpt>
      <trkpt lat="48.5599" lon="-3.47712">
        <ele>164.4</ele>
        <time>2020-06-10T15:23:45Z</time>
      </trkpt>
      <trkpt lat="48.55989" lon="-3.4771">
        <ele>164.5</ele>
        <time>2020-06-10T15:23:46Z</time>
      </trkpt>
      <trkpt lat="48.55989" lon="-3.47709">
        <ele>164.7</ele>
        <time>2020-06-10T15:23:47Z</time>
      </trkpt>
      <trkpt lat="48.55989" lon="-3.47706">
        <ele>164.9</ele>
        <time>2020-06-10T15:23:48Z</time>
      </trkpt>
      <trkpt lat="48.55988" lon="-3.47701">
        <ele>165.2</ele>
        <time>2020-06-10T15:23:49Z</time>
      </trkpt>
      <trkpt lat="48.55988" lon="-3.477">
        <ele>165.3</ele>
        <time>2020-06-10T15:23:50Z</time>
      </trkpt>
      <trkpt lat="48.55987" lon="-3.47693">
        <ele>165.8</ele>
        <time>2020-06-10T15:23:51Z</time>
      </trkpt>
      <trkpt lat="48.55987" lon="-3.47691">
        <ele>166</ele>
        <time>2020-06-10T15:23:52Z</time>
      </trkpt>
      <trkpt lat="48.55986" lon="-3.47685">
        <ele>166.4</ele>
        <time>2020-06-10T15:23:53Z</time>
      </trkpt>
      <trkpt lat="48.55986" lon="-3.47683">
        <ele>166.5</ele>
        <time>2020-06-10T15:23:54Z</time>
      </trkpt>
      <trkpt lat="48.55986" lon="-3.47681">
        <ele>166.6</ele>
        <time>2020-06-10T15:23:55Z</time>
      </trkpt>
      <trkpt lat="48.55985" lon="-3.47679">
        <ele>166.8</ele>
        <time>2020-06-10T15:23:56Z</time>
      </trkpt>
      <trkpt lat="48.55985" lon="-3.47674">
        <ele>167.2</ele>
        <time>2020-06-10T15:23:57Z</time>
      </trkpt>
      <trkpt lat="48.55984" lon="-3.47672">
        <ele>167.3</ele>
        <time>2020-06-10T15:23:58Z</time>
      </trkpt>
      <trkpt lat="48.55983" lon="-3.47666">
        <ele>167.7</ele>
        <time>2020-06-10T15:23:59Z</time>
      </trkpt>
      <trkpt lat="48.55983" lon="-3.47663">
        <ele>167.9</ele>
        <time>2020-06-10T15:24:00Z</time>
      </trkpt>
      <trkpt lat="48.55982" lon="-3.47659">
        <ele>168.2</ele>
        <time>2020-06-10T15:24:01Z</time>
      </trkpt>
      <trkpt lat="48.55981" lon="-3.47653">
        <ele>168.6</ele>
        <time>2020-06-10T15:24:02Z</time>
      </trkpt>
      <trkpt lat="48.55981" lon="-3.47652">
        <ele>168.7</ele>
        <time>2020-06-10T15:24:03Z</time>
      </trkpt>
      <trkpt lat="48.5598" lon="-3.47647">
        <ele>169.1</ele>
        <time>2020-06-10T15:24:04Z</time>
      </trkpt>
      <trkpt lat="48.5598" lon="-3.47646">
        <ele>169.2</ele>
        <time>2020-06-10T15:24:05Z</time>
      </trkpt>
      <trkpt lat="48.55979" lon="-3.47641">
        <ele>169.6</ele>
        <time>2020-06-10T15:24:06Z</time>
      </trkpt>
      <trkpt lat="48.55979" lon="-3.47638">
        <ele>169.7</ele>
        <time>2020-06-10T15:24:07Z</time>
      </trkpt>
      <trkpt lat="48.55978" lon="-3.47633">
        <ele>170.1</ele>
        <time>2020-06-10T15:24:08Z</time>
      </trkpt>
      <trkpt lat="48.55978" lon="-3.47632">
        <ele>170.2</ele>
        <time>2020-06-10T15:24:09Z</time>
      </trkpt>
      <trkpt lat="48.55978" lon="-3.47628">
        <ele>170.5</ele>
        <time>2020-06-10T15:24:10Z</time>
      </trkpt>
      <trkpt lat="48.55978" lon="-3.47626">
        <ele>170.6</ele>
        <time>2020-06-10T15:24:11Z</time>
      </trkpt>
      <trkpt lat="48.55978" lon="-3.47621">
        <ele>171</ele>
        <time>2020-06-10T15:24:12Z</time>
      </trkpt>
      <trkpt lat="48.55977" lon="-3.47619">
        <ele>171.1</ele>
        <time>2020-06-10T15:24:13Z</time>
      </trkpt>
      <trkpt lat="48.55977" lon="-3.47616">
        <ele>171.3</ele>
        <time>2020-06-10T15:24:14Z</time>
      </trkpt>
      <trkpt lat="48.55977" lon="-3.47614">
        <ele>171.4</ele>
        <time>2020-06-10T15:24:15Z</time>
      </trkpt>
      <trkpt lat="48.55977" lon="-3.47613">
        <ele>171.5</ele>
        <time>2020-06-10T15:24:16Z</time>
      </trkpt>
      <trkpt lat="48.55976" lon="-3.4761">
        <ele>171.7</ele>
        <time>2020-06-10T15:24:17Z</time>
      </trkpt>
      <trkpt lat="48.55976" lon="-3.47605">
        <ele>172</ele>
        <time>2020-06-10T15:24:18Z</time>
      </trkpt>
      <trkpt lat="48.55976" lon="-3.47601">
        <ele>172.3</ele>
        <time>2020-06-10T15:24:19Z</time>
      </trkpt>
      <trkpt lat="48.55976" lon="-3.476">
        <ele>172.4</ele>
        <time>2020-06-10T15:24:20Z</time>
      </trkpt>
      <trkpt lat="48.55976" lon="-3.47596">
        <ele>172.7</ele>
        <time>2020-06-10T15:24:21Z</time>
      </trkpt>
      <trkpt lat="48.55975" lon="-3.47594">
        <ele>172.8</ele>
        <time>2020-06-10T15:24:22Z</time>
      </trkpt>
      <trkpt lat="48.55975" lon="-3.47589">
        <ele>173.1</ele>
        <time>2020-06-10T15:24:23Z</time>
      </trkpt>
      <trkpt lat="48.55974" lon="-3.47587">
        <ele>173.2</ele>
        <time>2020-06-10T15:24:24Z</time>
      </trkpt>
      <trkpt lat="48.55974" lon="-3.47582">
        <ele>173.5</ele>
        <time>2020-06-10T15:24:25Z</time>
      </trkpt>
      <trkpt lat="48.55974" lon="-3.47577">
        <ele>173.8</ele>
        <time>2020-06-10T15:24:26Z</time>
      </trkpt>
      <trkpt lat="48.55974" lon="-3.47575">
        <ele>174</ele>
        <time>2020-06-10T15:24:27Z</time>
      </trkpt>
      <trkpt lat="48.55974" lon="-3.47569">
        <ele>174.3</ele>
        <time>2020-06-10T15:24:28Z</time>
      </trkpt>
      <trkpt lat="48.55974" lon="-3.47568">
        <ele>174.4</ele>
        <time>2020-06-10T15:24:29Z</time>
      </trkpt>
      <trkpt lat="48.55974" lon="-3.47562">
        <ele>174.7</ele>
        <time>2020-06-10T15:24:30Z</time>
      </trkpt>
      <trkpt lat="48.55973" lon="-3.47561">
        <ele>174.8</ele>
        <time>2020-06-10T15:24:31Z</time>
      </trkpt>
      <trkpt lat="48.55973" lon="-3.47555">
        <ele>175.1</ele>
        <time>2020-06-10T15:24:32Z</time>
      </trkpt>
      <trkpt lat="48.55972" lon="-3.47553">
        <ele>175.2</ele>
        <time>2020-06-10T15:24:33Z</time>
      </trkpt>
      <trkpt lat="48.55971" lon="-3.47548">
        <ele>175.5</ele>
        <time>2020-06-10T15:24:34Z</time>
      </trkpt>
      <trkpt lat="48.55971" lon="-3.47546">
        <ele>175.5</ele>
        <time>2020-06-10T15:24:35Z</time>
      </trkpt>
      <trkpt lat="48.55971" lon="-3.47541">
        <ele>175.7</ele>
        <time>2020-06-10T15:24:36Z</time>
      </trkpt>
      <trkpt lat="48.5597" lon="-3.47536">
        <ele>175.9</ele>
        <time>2020-06-10T15:24:37Z</time>
      </trkpt>
      <trkpt lat="48.5597" lon="-3.47531">
        <ele>176.1</ele>
        <time>2020-06-10T15:24:38Z</time>
      </trkpt>
      <trkpt lat="48.55969" lon="-3.47527">
        <ele>176.2</ele>
        <time>2020-06-10T15:24:39Z</time>
      </trkpt>
      <trkpt lat="48.55969" lon="-3.47522">
        <ele>176.3</ele>
        <time>2020-06-10T15:24:40Z</time>
      </trkpt>
      <trkpt lat="48.55968" lon="-3.47518">
        <ele>176.5</ele>
        <time>2020-06-10T15:24:41Z</time>
      </trkpt>
      <trkpt lat="48.55968" lon="-3.47517">
        <ele>176.5</ele>
        <time>2020-06-10T15:24:42Z</time>
      </trkpt>
      <trkpt lat="48.55968" lon="-3.47512">
        <ele>176.7</ele>
        <time>2020-06-10T15:24:43Z</time>
      </trkpt>
      <trkpt lat="48.55968" lon="-3.47511">
        <ele>176.7</ele>
        <time>2020-06-10T15:24:44Z</time>
      </trkpt>
      <trkpt lat="48.55967" lon="-3.47507">
        <ele>176.8</ele>
        <time>2020-06-10T15:24:45Z</time>
      </trkpt>
      <trkpt lat="48.55967" lon="-3.47505">
        <ele>176.9</ele>
        <time>2020-06-10T15:24:46Z</time>
      </trkpt>
      <trkpt lat="48.55966" lon="-3.47501">
        <ele>177</ele>
        <time>2020-06-10T15:24:47Z</time>
      </trkpt>
      <trkpt lat="48.55966" lon="-3.475">
        <ele>177.1</ele>
        <time>2020-06-10T15:24:48Z</time>
      </trkpt>
      <trkpt lat="48.55966" lon="-3.47495">
        <ele>177.2</ele>
        <time>2020-06-10T15:24:49Z</time>
      </trkpt>
      <trkpt lat="48.55966" lon="-3.47494">
        <ele>177.2</ele>
        <time>2020-06-10T15:24:50Z</time>
      </trkpt>
      <trkpt lat="48.55965" lon="-3.47493">
        <ele>177.3</ele>
        <time>2020-06-10T15:24:51Z</time>
      </trkpt>
      <trkpt lat="48.55965" lon="-3.4749">
        <ele>177.3</ele>
        <time>2020-06-10T15:24:52Z</time>
      </trkpt>
      <trkpt lat="48.55965" lon="-3.47485">
        <ele>177.5</ele>
        <time>2020-06-10T15:24:53Z</time>
      </trkpt>
      <trkpt lat="48.55965" lon="-3.47483">
        <ele>177.5</ele>
        <time>2020-06-10T15:24:54Z</time>
      </trkpt>
      <trkpt lat="48.55964" lon="-3.47478">
        <ele>177.6</ele>
        <time>2020-06-10T15:24:55Z</time>
      </trkpt>
      <trkpt lat="48.55964" lon="-3.47476">
        <ele>177.6</ele>
        <time>2020-06-10T15:24:56Z</time>
      </trkpt>
      <trkpt lat="48.55964" lon="-3.4747">
        <ele>177.7</ele>
        <time>2020-06-10T15:24:57Z</time>
      </trkpt>
      <trkpt lat="48.55963" lon="-3.47468">
        <ele>177.8</ele>
        <time>2020-06-10T15:24:58Z</time>
      </trkpt>
      <trkpt lat="48.55963" lon="-3.47463">
        <ele>177.9</ele>
        <time>2020-06-10T15:24:59Z</time>
      </trkpt>
      <trkpt lat="48.55963" lon="-3.47461">
        <ele>177.9</ele>
        <time>2020-06-10T15:25:00Z</time>
      </trkpt>
      <trkpt lat="48.55962" lon="-3.47457">
        <ele>178</ele>
        <time>2020-06-10T15:25:01Z</time>
      </trkpt>
      <trkpt lat="48.55962" lon="-3.47453">
        <ele>178.1</ele>
        <time>2020-06-10T15:25:02Z</time>
      </trkpt>
      <trkpt lat="48.55962" lon="-3.47451">
        <ele>178.1</ele>
        <time>2020-06-10T15:25:03Z</time>
      </trkpt>
      <trkpt lat="48.55961" lon="-3.47444">
        <ele>178.2</ele>
        <time>2020-06-10T15:25:04Z</time>
      </trkpt>
      <trkpt lat="48.55961" lon="-3.47439">
        <ele>178.2</ele>
        <time>2020-06-10T15:25:05Z</time>
      </trkpt>
      <trkpt lat="48.5596" lon="-3.47437">
        <ele>178.3</ele>
        <time>2020-06-10T15:25:06Z</time>
      </trkpt>
      <trkpt lat="48.5596" lon="-3.47431">
        <ele>178.3</ele>
        <time>2020-06-10T15:25:07Z</time>
      </trkpt>
      <trkpt lat="48.55959" lon="-3.47429">
        <ele>178.3</ele>
        <time>2020-06-10T15:25:08Z</time>
      </trkpt>
      <trkpt lat="48.55959" lon="-3.47424">
        <ele>178.4</ele>
        <time>2020-06-10T15:25:09Z</time>
      </trkpt>
      <trkpt lat="48.55959" lon="-3.47422">
        <ele>178.4</ele>
        <time>2020-06-10T15:25:10Z</time>
      </trkpt>
      <trkpt lat="48.55958" lon="-3.47417">
        <ele>178.4</ele>
        <time>2020-06-10T15:25:11Z</time>
      </trkpt>
      <trkpt lat="48.55958" lon="-3.47415">
        <ele>178.4</ele>
        <time>2020-06-10T15:25:12Z</time>
      </trkpt>
      <trkpt lat="48.55958" lon="-3.47411">
        <ele>178.5</ele>
        <time>2020-06-10T15:25:13Z</time>
      </trkpt>
      <trkpt lat="48.55958" lon="-3.47407">
        <ele>178.5</ele>
        <time>2020-06-10T15:25:14Z</time>
      </trkpt>
      <trkpt lat="48.55958" lon="-3.47405">
        <ele>178.5</ele>
        <time>2020-06-10T15:25:15Z</time>
      </trkpt>
      <trkpt lat="48.55958" lon="-3.47401">
        <ele>178.5</ele>
        <time>2020-06-10T15:25:16Z</time>
      </trkpt>
      <trkpt lat="48.55958" lon="-3.47396">
        <ele>178.5</ele>
        <time>2020-06-10T15:25:17Z</time>
      </trkpt>
      <trkpt lat="48.55957" lon="-3.47391">
        <ele>178.5</ele>
        <time>2020-06-10T15:25:18Z</time>
      </trkpt>
      <trkpt lat="48.55956" lon="-3.47386">
        <ele>178.5</ele>
        <time>2020-06-10T15:25:19Z</time>
      </trkpt>
      <trkpt lat="48.55957" lon="-3.47386">
        <ele>178.5</ele>
        <time>2020-06-10T15:25:20Z</time>
      </trkpt>
      <trkpt lat="48.55956" lon="-3.47382">
        <ele>178.5</ele>
        <time>2020-06-10T15:25:21Z</time>
      </trkpt>
      <trkpt lat="48.55956" lon="-3.47378">
        <ele>178.5</ele>
        <time>2020-06-10T15:25:22Z</time>
      </trkpt>
      <trkpt lat="48.55955" lon="-3.47373">
        <ele>178.5</ele>
        <time>2020-06-10T15:25:23Z</time>
      </trkpt>
      <trkpt lat="48.55955" lon="-3.47368">
        <ele>178.4</ele>
        <time>2020-06-10T15:25:24Z</time>
      </trkpt>
      <trkpt lat="48.55955" lon="-3.47365">
        <ele>178.4</ele>
        <time>2020-06-10T15:25:25Z</time>
      </trkpt>
      <trkpt lat="48.55954" lon="-3.4736">
        <ele>178.4</ele>
        <time>2020-06-10T15:25:26Z</time>
      </trkpt>
      <trkpt lat="48.55954" lon="-3.47359">
        <ele>178.4</ele>
        <time>2020-06-10T15:25:27Z</time>
      </trkpt>
      <trkpt lat="48.55953" lon="-3.47354">
        <ele>178.3</ele>
        <time>2020-06-10T15:25:28Z</time>
      </trkpt>
      <trkpt lat="48.55953" lon="-3.47352">
        <ele>178.3</ele>
        <time>2020-06-10T15:25:29Z</time>
      </trkpt>
      <trkpt lat="48.55953" lon="-3.47347">
        <ele>178.3</ele>
        <time>2020-06-10T15:25:30Z</time>
      </trkpt>
      <trkpt lat="48.55953" lon="-3.47346">
        <ele>178.3</ele>
        <time>2020-06-10T15:25:31Z</time>
      </trkpt>
      <trkpt lat="48.55952" lon="-3.47341">
        <ele>178.3</ele>
        <time>2020-06-10T15:25:32Z</time>
      </trkpt>
      <trkpt lat="48.55952" lon="-3.47337">
        <ele>178.2</ele>
        <time>2020-06-10T15:25:33Z</time>
      </trkpt>
      <trkpt lat="48.55951" lon="-3.47331">
        <ele>178.2</ele>
        <time>2020-06-10T15:25:34Z</time>
      </trkpt>
      <trkpt lat="48.5595" lon="-3.47326">
        <ele>178.2</ele>
        <time>2020-06-10T15:25:35Z</time>
      </trkpt>
      <trkpt lat="48.5595" lon="-3.47321">
        <ele>178.1</ele>
        <time>2020-06-10T15:25:36Z</time>
      </trkpt>
      <trkpt lat="48.5595" lon="-3.47319">
        <ele>178.1</ele>
        <time>2020-06-10T15:25:37Z</time>
      </trkpt>
      <trkpt lat="48.55949" lon="-3.47312">
        <ele>178.1</ele>
        <time>2020-06-10T15:25:38Z</time>
      </trkpt>
      <trkpt lat="48.55949" lon="-3.4731">
        <ele>178.1</ele>
        <time>2020-06-10T15:25:39Z</time>
      </trkpt>
      <trkpt lat="48.55949" lon="-3.47304">
        <ele>178</ele>
        <time>2020-06-10T15:25:40Z</time>
      </trkpt>
      <trkpt lat="48.55949" lon="-3.47302">
        <ele>178</ele>
        <time>2020-06-10T15:25:41Z</time>
      </trkpt>
      <trkpt lat="48.55948" lon="-3.47297">
        <ele>178</ele>
        <time>2020-06-10T15:25:42Z</time>
      </trkpt>
      <trkpt lat="48.55948" lon="-3.4729">
        <ele>178</ele>
        <time>2020-06-10T15:25:43Z</time>
      </trkpt>
      <trkpt lat="48.55948" lon="-3.47288">
        <ele>177.9</ele>
        <time>2020-06-10T15:25:44Z</time>
      </trkpt>
      <trkpt lat="48.55947" lon="-3.47281">
        <ele>177.9</ele>
        <time>2020-06-10T15:25:45Z</time>
      </trkpt>
      <trkpt lat="48.55947" lon="-3.47274">
        <ele>177.9</ele>
        <time>2020-06-10T15:25:46Z</time>
      </trkpt>
      <trkpt lat="48.55946" lon="-3.47267">
        <ele>177.9</ele>
        <time>2020-06-10T15:25:47Z</time>
      </trkpt>
      <trkpt lat="48.55945" lon="-3.47261">
        <ele>177.9</ele>
        <time>2020-06-10T15:25:48Z</time>
      </trkpt>
      <trkpt lat="48.55945" lon="-3.47253">
        <ele>177.9</ele>
        <time>2020-06-10T15:25:49Z</time>
      </trkpt>
      <trkpt lat="48.55944" lon="-3.47246">
        <ele>177.9</ele>
        <time>2020-06-10T15:25:50Z</time>
      </trkpt>
      <trkpt lat="48.55943" lon="-3.47238">
        <ele>177.9</ele>
        <time>2020-06-10T15:25:51Z</time>
      </trkpt>
      <trkpt lat="48.55943" lon="-3.4723">
        <ele>178</ele>
        <time>2020-06-10T15:25:52Z</time>
      </trkpt>
      <trkpt lat="48.55942" lon="-3.47223">
        <ele>178</ele>
        <time>2020-06-10T15:25:53Z</time>
      </trkpt>
      <trkpt lat="48.55942" lon="-3.47215">
        <ele>178</ele>
        <time>2020-06-10T15:25:54Z</time>
      </trkpt>
      <trkpt lat="48.55942" lon="-3.47207">
        <ele>178.1</ele>
        <time>2020-06-10T15:25:55Z</time>
      </trkpt>
      <trkpt lat="48.55941" lon="-3.47198">
        <ele>178.1</ele>
        <time>2020-06-10T15:25:56Z</time>
      </trkpt>
      <trkpt lat="48.5594" lon="-3.47188">
        <ele>178.1</ele>
        <time>2020-06-10T15:25:57Z</time>
      </trkpt>
      <trkpt lat="48.5594" lon="-3.47178">
        <ele>178.1</ele>
        <time>2020-06-10T15:25:58Z</time>
      </trkpt>
      <trkpt lat="48.55939" lon="-3.47168">
        <ele>178.2</ele>
        <time>2020-06-10T15:25:59Z</time>
      </trkpt>
      <trkpt lat="48.55938" lon="-3.47162">
        <ele>178.2</ele>
        <time>2020-06-10T15:26:00Z</time>
      </trkpt>
      <trkpt lat="48.55937" lon="-3.47153">
        <ele>178.3</ele>
        <time>2020-06-10T15:26:01Z</time>
      </trkpt>
      <trkpt lat="48.55937" lon="-3.47148">
        <ele>178.4</ele>
        <time>2020-06-10T15:26:02Z</time>
      </trkpt>
      <trkpt lat="48.55936" lon="-3.47139">
        <ele>178.6</ele>
        <time>2020-06-10T15:26:03Z</time>
      </trkpt>
      <trkpt lat="48.55935" lon="-3.47132">
        <ele>178.7</ele>
        <time>2020-06-10T15:26:04Z</time>
      </trkpt>
      <trkpt lat="48.55935" lon="-3.47123">
        <ele>178.9</ele>
        <time>2020-06-10T15:26:05Z</time>
      </trkpt>
      <trkpt lat="48.55934" lon="-3.47117">
        <ele>179</ele>
        <time>2020-06-10T15:26:06Z</time>
      </trkpt>
      <trkpt lat="48.55933" lon="-3.4711">
        <ele>179.2</ele>
        <time>2020-06-10T15:26:07Z</time>
      </trkpt>
      <trkpt lat="48.55933" lon="-3.47102">
        <ele>179.4</ele>
        <time>2020-06-10T15:26:08Z</time>
      </trkpt>
      <trkpt lat="48.55932" lon="-3.47097">
        <ele>179.6</ele>
        <time>2020-06-10T15:26:09Z</time>
      </trkpt>
      <trkpt lat="48.55931" lon="-3.4709">
        <ele>179.8</ele>
        <time>2020-06-10T15:26:10Z</time>
      </trkpt>
      <trkpt lat="48.5593" lon="-3.47083">
        <ele>180</ele>
        <time>2020-06-10T15:26:11Z</time>
      </trkpt>
      <trkpt lat="48.5593" lon="-3.47075">
        <ele>180.3</ele>
        <time>2020-06-10T15:26:12Z</time>
      </trkpt>
      <trkpt lat="48.55929" lon="-3.47071">
        <ele>180.4</ele>
        <time>2020-06-10T15:26:13Z</time>
      </trkpt>
      <trkpt lat="48.55929" lon="-3.47065">
        <ele>180.6</ele>
        <time>2020-06-10T15:26:14Z</time>
      </trkpt>
      <trkpt lat="48.55928" lon="-3.47058">
        <ele>180.8</ele>
        <time>2020-06-10T15:26:15Z</time>
      </trkpt>
      <trkpt lat="48.55927" lon="-3.4705">
        <ele>181.1</ele>
        <time>2020-06-10T15:26:16Z</time>
      </trkpt>
      <trkpt lat="48.55927" lon="-3.47043">
        <ele>181.3</ele>
        <time>2020-06-10T15:26:17Z</time>
      </trkpt>
      <trkpt lat="48.55926" lon="-3.47037">
        <ele>181.5</ele>
        <time>2020-06-10T15:26:18Z</time>
      </trkpt>
      <trkpt lat="48.55926" lon="-3.47031">
        <ele>181.7</ele>
        <time>2020-06-10T15:26:19Z</time>
      </trkpt>
      <trkpt lat="48.55925" lon="-3.47024">
        <ele>181.9</ele>
        <time>2020-06-10T15:26:20Z</time>
      </trkpt>
      <trkpt lat="48.55925" lon="-3.4702">
        <ele>182</ele>
        <time>2020-06-10T15:26:21Z</time>
      </trkpt>
      <trkpt lat="48.55924" lon="-3.47015">
        <ele>182.2</ele>
        <time>2020-06-10T15:26:22Z</time>
      </trkpt>
      <trkpt lat="48.55924" lon="-3.47008">
        <ele>182.5</ele>
        <time>2020-06-10T15:26:23Z</time>
      </trkpt>
      <trkpt lat="48.55923" lon="-3.47001">
        <ele>182.8</ele>
        <time>2020-06-10T15:26:24Z</time>
      </trkpt>
      <trkpt lat="48.55923" lon="-3.46995">
        <ele>183</ele>
        <time>2020-06-10T15:26:25Z</time>
      </trkpt>
      <trkpt lat="48.55923" lon="-3.4699">
        <ele>183.3</ele>
        <time>2020-06-10T15:26:26Z</time>
      </trkpt>
      <trkpt lat="48.55922" lon="-3.46982">
        <ele>183.6</ele>
        <time>2020-06-10T15:26:27Z</time>
      </trkpt>
      <trkpt lat="48.55921" lon="-3.46977">
        <ele>183.9</ele>
        <time>2020-06-10T15:26:28Z</time>
      </trkpt>
      <trkpt lat="48.55921" lon="-3.4697">
        <ele>184.2</ele>
        <time>2020-06-10T15:26:29Z</time>
      </trkpt>
      <trkpt lat="48.5592" lon="-3.46963">
        <ele>184.5</ele>
        <time>2020-06-10T15:26:30Z</time>
      </trkpt>
      <trkpt lat="48.5592" lon="-3.46957">
        <ele>184.8</ele>
        <time>2020-06-10T15:26:31Z</time>
      </trkpt>
      <trkpt lat="48.5592" lon="-3.46951">
        <ele>185.1</ele>
        <time>2020-06-10T15:26:32Z</time>
      </trkpt>
      <trkpt lat="48.55919" lon="-3.46947">
        <ele>185.3</ele>
        <time>2020-06-10T15:26:33Z</time>
      </trkpt>
      <trkpt lat="48.55919" lon="-3.46941">
        <ele>185.6</ele>
        <time>2020-06-10T15:26:34Z</time>
      </trkpt>
      <trkpt lat="48.55918" lon="-3.46935">
        <ele>186</ele>
        <time>2020-06-10T15:26:35Z</time>
      </trkpt>
      <trkpt lat="48.55918" lon="-3.46928">
        <ele>186.3</ele>
        <time>2020-06-10T15:26:36Z</time>
      </trkpt>
      <trkpt lat="48.55917" lon="-3.46926">
        <ele>186.5</ele>
        <time>2020-06-10T15:26:37Z</time>
      </trkpt>
      <trkpt lat="48.55917" lon="-3.46921">
        <ele>186.7</ele>
        <time>2020-06-10T15:26:38Z</time>
      </trkpt>
      <trkpt lat="48.55916" lon="-3.46914">
        <ele>187.1</ele>
        <time>2020-06-10T15:26:39Z</time>
      </trkpt>
      <trkpt lat="48.55915" lon="-3.46911">
        <ele>187.3</ele>
        <time>2020-06-10T15:26:40Z</time>
      </trkpt>
      <trkpt lat="48.55914" lon="-3.46907">
        <ele>187.6</ele>
        <time>2020-06-10T15:26:41Z</time>
      </trkpt>
      <trkpt lat="48.55913" lon="-3.46903">
        <ele>187.8</ele>
        <time>2020-06-10T15:26:42Z</time>
      </trkpt>
      <trkpt lat="48.55913" lon="-3.46898">
        <ele>188.1</ele>
        <time>2020-06-10T15:26:43Z</time>
      </trkpt>
      <trkpt lat="48.55912" lon="-3.46893">
        <ele>188.4</ele>
        <time>2020-06-10T15:26:44Z</time>
      </trkpt>
      <trkpt lat="48.55911" lon="-3.46887">
        <ele>188.7</ele>
        <time>2020-06-10T15:26:45Z</time>
      </trkpt>
      <trkpt lat="48.55911" lon="-3.46881">
        <ele>189.1</ele>
        <time>2020-06-10T15:26:46Z</time>
      </trkpt>
      <trkpt lat="48.5591" lon="-3.4688">
        <ele>189.2</ele>
        <time>2020-06-10T15:26:47Z</time>
      </trkpt>
      <trkpt lat="48.5591" lon="-3.46875">
        <ele>189.5</ele>
        <time>2020-06-10T15:26:48Z</time>
      </trkpt>
      <trkpt lat="48.5591" lon="-3.4687">
        <ele>189.7</ele>
        <time>2020-06-10T15:26:49Z</time>
      </trkpt>
      <trkpt lat="48.5591" lon="-3.46864">
        <ele>189.9</ele>
        <time>2020-06-10T15:26:50Z</time>
      </trkpt>
      <trkpt lat="48.55909" lon="-3.4686">
        <ele>190.1</ele>
        <time>2020-06-10T15:26:51Z</time>
      </trkpt>
      <trkpt lat="48.55909" lon="-3.46855">
        <ele>190.3</ele>
        <time>2020-06-10T15:26:52Z</time>
      </trkpt>
      <trkpt lat="48.55908" lon="-3.4685">
        <ele>190.5</ele>
        <time>2020-06-10T15:26:53Z</time>
      </trkpt>
      <trkpt lat="48.55907" lon="-3.46844">
        <ele>190.8</ele>
        <time>2020-06-10T15:26:54Z</time>
      </trkpt>
      <trkpt lat="48.55907" lon="-3.46842">
        <ele>190.8</ele>
        <time>2020-06-10T15:26:55Z</time>
      </trkpt>
      <trkpt lat="48.55906" lon="-3.46837">
        <ele>191.4</ele>
        <time>2020-06-10T15:26:56Z</time>
      </trkpt>
      <trkpt lat="48.55906" lon="-3.46833">
        <ele>191.7</ele>
        <time>2020-06-10T15:26:57Z</time>
      </trkpt>
      <trkpt lat="48.55906" lon="-3.46827">
        <ele>192.1</ele>
        <time>2020-06-10T15:26:58Z</time>
      </trkpt>
      <trkpt lat="48.55906" lon="-3.46825">
        <ele>192.2</ele>
        <time>2020-06-10T15:26:59Z</time>
      </trkpt>
      <trkpt lat="48.55906" lon="-3.4682">
        <ele>192.6</ele>
        <time>2020-06-10T15:27:00Z</time>
      </trkpt>
      <trkpt lat="48.55906" lon="-3.46815">
        <ele>192.9</ele>
        <time>2020-06-10T15:27:01Z</time>
      </trkpt>
      <trkpt lat="48.55906" lon="-3.46814">
        <ele>193</ele>
        <time>2020-06-10T15:27:02Z</time>
      </trkpt>
      <trkpt lat="48.55905" lon="-3.46808">
        <ele>193.4</ele>
        <time>2020-06-10T15:27:03Z</time>
      </trkpt>
      <trkpt lat="48.55905" lon="-3.46807">
        <ele>193.5</ele>
        <time>2020-06-10T15:27:04Z</time>
      </trkpt>
      <trkpt lat="48.55904" lon="-3.46802">
        <ele>193.9</ele>
        <time>2020-06-10T15:27:05Z</time>
      </trkpt>
      <trkpt lat="48.55904" lon="-3.46801">
        <ele>194</ele>
        <time>2020-06-10T15:27:06Z</time>
      </trkpt>
      <trkpt lat="48.55904" lon="-3.46796">
        <ele>194.3</ele>
        <time>2020-06-10T15:27:07Z</time>
      </trkpt>
      <trkpt lat="48.55903" lon="-3.46795">
        <ele>194.4</ele>
        <time>2020-06-10T15:27:08Z</time>
      </trkpt>
      <trkpt lat="48.55903" lon="-3.4679">
        <ele>194.8</ele>
        <time>2020-06-10T15:27:09Z</time>
      </trkpt>
      <trkpt lat="48.55903" lon="-3.46788">
        <ele>195</ele>
        <time>2020-06-10T15:27:10Z</time>
      </trkpt>
      <trkpt lat="48.55902" lon="-3.46786">
        <ele>195.2</ele>
        <time>2020-06-10T15:27:11Z</time>
      </trkpt>
      <trkpt lat="48.55902" lon="-3.46784">
        <ele>195.3</ele>
        <time>2020-06-10T15:27:12Z</time>
      </trkpt>
      <trkpt lat="48.55901" lon="-3.46779">
        <ele>195.7</ele>
        <time>2020-06-10T15:27:13Z</time>
      </trkpt>
      <trkpt lat="48.55901" lon="-3.46777">
        <ele>195.8</ele>
        <time>2020-06-10T15:27:14Z</time>
      </trkpt>
      <trkpt lat="48.559" lon="-3.46773">
        <ele>196.2</ele>
        <time>2020-06-10T15:27:15Z</time>
      </trkpt>
      <trkpt lat="48.559" lon="-3.46771">
        <ele>196.3</ele>
        <time>2020-06-10T15:27:16Z</time>
      </trkpt>
      <trkpt lat="48.559" lon="-3.46765">
        <ele>196.8</ele>
        <time>2020-06-10T15:27:17Z</time>
      </trkpt>
      <trkpt lat="48.55899" lon="-3.46763">
        <ele>196.9</ele>
        <time>2020-06-10T15:27:18Z</time>
      </trkpt>
      <trkpt lat="48.55898" lon="-3.46758">
        <ele>197.4</ele>
        <time>2020-06-10T15:27:19Z</time>
      </trkpt>
      <trkpt lat="48.55898" lon="-3.46757">
        <ele>197.5</ele>
        <time>2020-06-10T15:27:20Z</time>
      </trkpt>
      <trkpt lat="48.55897" lon="-3.46753">
        <ele>197.8</ele>
        <time>2020-06-10T15:27:21Z</time>
      </trkpt>
      <trkpt lat="48.55897" lon="-3.46751">
        <ele>197.9</ele>
        <time>2020-06-10T15:27:22Z</time>
      </trkpt>
      <trkpt lat="48.55897" lon="-3.46749">
        <ele>198.1</ele>
        <time>2020-06-10T15:27:23Z</time>
      </trkpt>
      <trkpt lat="48.55897" lon="-3.46746">
        <ele>198.3</ele>
        <time>2020-06-10T15:27:24Z</time>
      </trkpt>
      <trkpt lat="48.55897" lon="-3.46743">
        <ele>198.6</ele>
        <time>2020-06-10T15:27:25Z</time>
      </trkpt>
      <trkpt lat="48.55897" lon="-3.46742">
        <ele>198.7</ele>
        <time>2020-06-10T15:27:26Z</time>
      </trkpt>
      <trkpt lat="48.55897" lon="-3.4674">
        <ele>198.8</ele>
        <time>2020-06-10T15:27:27Z</time>
      </trkpt>
      <trkpt lat="48.55897" lon="-3.46738">
        <ele>199</ele>
        <time>2020-06-10T15:27:28Z</time>
      </trkpt>
      <trkpt lat="48.55897" lon="-3.46735">
        <ele>199.2</ele>
        <time>2020-06-10T15:27:29Z</time>
      </trkpt>
      <trkpt lat="48.55896" lon="-3.4673">
        <ele>199.6</ele>
        <time>2020-06-10T15:27:30Z</time>
      </trkpt>
      <trkpt lat="48.55896" lon="-3.46729">
        <ele>199.7</ele>
        <time>2020-06-10T15:27:31Z</time>
      </trkpt>
      <trkpt lat="48.55896" lon="-3.46727">
        <ele>199.8</ele>
        <time>2020-06-10T15:27:32Z</time>
      </trkpt>
      <trkpt lat="48.55896" lon="-3.46724">
        <ele>200.1</ele>
        <time>2020-06-10T15:27:33Z</time>
      </trkpt>
      <trkpt lat="48.55895" lon="-3.46719">
        <ele>200.5</ele>
        <time>2020-06-10T15:27:34Z</time>
      </trkpt>
      <trkpt lat="48.55895" lon="-3.46718">
        <ele>200.6</ele>
        <time>2020-06-10T15:27:35Z</time>
      </trkpt>
      <trkpt lat="48.55895" lon="-3.46716">
        <ele>200.8</ele>
        <time>2020-06-10T15:27:36Z</time>
      </trkpt>
      <trkpt lat="48.55895" lon="-3.46713">
        <ele>200.9</ele>
        <time>2020-06-10T15:27:37Z</time>
      </trkpt>
      <trkpt lat="48.55895" lon="-3.46711">
        <ele>201.1</ele>
        <time>2020-06-10T15:27:38Z</time>
      </trkpt>
      <trkpt lat="48.55895" lon="-3.46709">
        <ele>201.3</ele>
        <time>2020-06-10T15:27:39Z</time>
      </trkpt>
      <trkpt lat="48.55895" lon="-3.46705">
        <ele>201.6</ele>
        <time>2020-06-10T15:27:40Z</time>
      </trkpt>
      <trkpt lat="48.55895" lon="-3.46703">
        <ele>201.7</ele>
        <time>2020-06-10T15:27:41Z</time>
      </trkpt>
      <trkpt lat="48.55894" lon="-3.467">
        <ele>202</ele>
        <time>2020-06-10T15:27:42Z</time>
      </trkpt>
      <trkpt lat="48.55894" lon="-3.46699">
        <ele>202.1</ele>
        <time>2020-06-10T15:27:43Z</time>
      </trkpt>
      <trkpt lat="48.55894" lon="-3.46697">
        <ele>202.2</ele>
        <time>2020-06-10T15:27:44Z</time>
      </trkpt>
      <trkpt lat="48.55893" lon="-3.46693">
        <ele>202.6</ele>
        <time>2020-06-10T15:27:45Z</time>
      </trkpt>
      <trkpt lat="48.55893" lon="-3.46691">
        <ele>202.7</ele>
        <time>2020-06-10T15:27:46Z</time>
      </trkpt>
      <trkpt lat="48.55893" lon="-3.46689">
        <ele>202.9</ele>
        <time>2020-06-10T15:27:47Z</time>
      </trkpt>
      <trkpt lat="48.55892" lon="-3.46687">
        <ele>203.1</ele>
        <time>2020-06-10T15:27:48Z</time>
      </trkpt>
      <trkpt lat="48.55892" lon="-3.46684">
        <ele>203.3</ele>
        <time>2020-06-10T15:27:49Z</time>
      </trkpt>
      <trkpt lat="48.55892" lon="-3.46682">
        <ele>203.5</ele>
        <time>2020-06-10T15:27:50Z</time>
      </trkpt>
      <trkpt lat="48.55892" lon="-3.46681">
        <ele>203.6</ele>
        <time>2020-06-10T15:27:51Z</time>
      </trkpt>
      <trkpt lat="48.55892" lon="-3.46676">
        <ele>204</ele>
        <time>2020-06-10T15:27:52Z</time>
      </trkpt>
      <trkpt lat="48.55891" lon="-3.46675">
        <ele>204.1</ele>
        <time>2020-06-10T15:27:53Z</time>
      </trkpt>
      <trkpt lat="48.55891" lon="-3.46672">
        <ele>204.3</ele>
        <time>2020-06-10T15:27:54Z</time>
      </trkpt>
      <trkpt lat="48.55891" lon="-3.46669">
        <ele>204.5</ele>
        <time>2020-06-10T15:27:55Z</time>
      </trkpt>
      <trkpt lat="48.5589" lon="-3.46665">
        <ele>204.8</ele>
        <time>2020-06-10T15:27:56Z</time>
      </trkpt>
      <trkpt lat="48.5589" lon="-3.46664">
        <ele>204.9</ele>
        <time>2020-06-10T15:27:57Z</time>
      </trkpt>
      <trkpt lat="48.5589" lon="-3.46659">
        <ele>205.2</ele>
        <time>2020-06-10T15:27:58Z</time>
      </trkpt>
      <trkpt lat="48.55889" lon="-3.46657">
        <ele>205.3</ele>
        <time>2020-06-10T15:27:59Z</time>
      </trkpt>
      <trkpt lat="48.55889" lon="-3.46653">
        <ele>205.6</ele>
        <time>2020-06-10T15:28:00Z</time>
      </trkpt>
      <trkpt lat="48.55889" lon="-3.46651">
        <ele>205.8</ele>
        <time>2020-06-10T15:28:01Z</time>
      </trkpt>
      <trkpt lat="48.55889" lon="-3.46649">
        <ele>206</ele>
        <time>2020-06-10T15:28:02Z</time>
      </trkpt>
      <trkpt lat="48.55889" lon="-3.46646">
        <ele>206.2</ele>
        <time>2020-06-10T15:28:03Z</time>
      </trkpt>
      <trkpt lat="48.55888" lon="-3.46642">
        <ele>206.4</ele>
        <time>2020-06-10T15:28:04Z</time>
      </trkpt>
      <trkpt lat="48.55888" lon="-3.4664">
        <ele>206.6</ele>
        <time>2020-06-10T15:28:05Z</time>
      </trkpt>
      <trkpt lat="48.55888" lon="-3.46639">
        <ele>206.6</ele>
        <time>2020-06-10T15:28:06Z</time>
      </trkpt>
      <trkpt lat="48.55888" lon="-3.46636">
        <ele>206.8</ele>
        <time>2020-06-10T15:28:07Z</time>
      </trkpt>
      <trkpt lat="48.55887" lon="-3.46631">
        <ele>207.1</ele>
        <time>2020-06-10T15:28:08Z</time>
      </trkpt>
      <trkpt lat="48.55887" lon="-3.4663">
        <ele>207.2</ele>
        <time>2020-06-10T15:28:09Z</time>
      </trkpt>
      <trkpt lat="48.55887" lon="-3.46626">
        <ele>207.5</ele>
        <time>2020-06-10T15:28:10Z</time>
      </trkpt>
      <trkpt lat="48.55887" lon="-3.46624">
        <ele>207.6</ele>
        <time>2020-06-10T15:28:11Z</time>
      </trkpt>
      <trkpt lat="48.55886" lon="-3.46619">
        <ele>208</ele>
        <time>2020-06-10T15:28:12Z</time>
      </trkpt>
      <trkpt lat="48.55886" lon="-3.46618">
        <ele>208.1</ele>
        <time>2020-06-10T15:28:13Z</time>
      </trkpt>
      <trkpt lat="48.55885" lon="-3.46612">
        <ele>208.4</ele>
        <time>2020-06-10T15:28:14Z</time>
      </trkpt>
      <trkpt lat="48.55885" lon="-3.46611">
        <ele>208.6</ele>
        <time>2020-06-10T15:28:15Z</time>
      </trkpt>
      <trkpt lat="48.55884" lon="-3.46606">
        <ele>208.9</ele>
        <time>2020-06-10T15:28:16Z</time>
      </trkpt>
      <trkpt lat="48.55884" lon="-3.46605">
        <ele>208.9</ele>
        <time>2020-06-10T15:28:17Z</time>
      </trkpt>
      <trkpt lat="48.55883" lon="-3.466">
        <ele>209.3</ele>
        <time>2020-06-10T15:28:18Z</time>
      </trkpt>
      <trkpt lat="48.55883" lon="-3.46599">
        <ele>209.4</ele>
        <time>2020-06-10T15:28:19Z</time>
      </trkpt>
      <trkpt lat="48.55883" lon="-3.46594">
        <ele>209.7</ele>
        <time>2020-06-10T15:28:20Z</time>
      </trkpt>
      <trkpt lat="48.55882" lon="-3.46593">
        <ele>209.8</ele>
        <time>2020-06-10T15:28:21Z</time>
      </trkpt>
      <trkpt lat="48.55882" lon="-3.46591">
        <ele>209.9</ele>
        <time>2020-06-10T15:28:22Z</time>
      </trkpt>
      <trkpt lat="48.55882" lon="-3.46588">
        <ele>210.1</ele>
        <time>2020-06-10T15:28:23Z</time>
      </trkpt>
      <trkpt lat="48.55882" lon="-3.46587">
        <ele>210.2</ele>
        <time>2020-06-10T15:28:24Z</time>
      </trkpt>
      <trkpt lat="48.55881" lon="-3.46584">
        <ele>210.4</ele>
        <time>2020-06-10T15:28:25Z</time>
      </trkpt>
      <trkpt lat="48.55881" lon="-3.4658">
        <ele>210.7</ele>
        <time>2020-06-10T15:28:26Z</time>
      </trkpt>
      <trkpt lat="48.55881" lon="-3.46578">
        <ele>210.8</ele>
        <time>2020-06-10T15:28:27Z</time>
      </trkpt>
      <trkpt lat="48.55881" lon="-3.46574">
        <ele>211.1</ele>
        <time>2020-06-10T15:28:28Z</time>
      </trkpt>
      <trkpt lat="48.55881" lon="-3.46572">
        <ele>211.2</ele>
        <time>2020-06-10T15:28:29Z</time>
      </trkpt>
      <trkpt lat="48.5588" lon="-3.46567">
        <ele>211.5</ele>
        <time>2020-06-10T15:28:30Z</time>
      </trkpt>
      <trkpt lat="48.5588" lon="-3.46565">
        <ele>211.6</ele>
        <time>2020-06-10T15:28:31Z</time>
      </trkpt>
      <trkpt lat="48.5588" lon="-3.4656">
        <ele>211.9</ele>
        <time>2020-06-10T15:28:32Z</time>
      </trkpt>
      <trkpt lat="48.5588" lon="-3.46558">
        <ele>212.1</ele>
        <time>2020-06-10T15:28:33Z</time>
      </trkpt>
      <trkpt lat="48.55879" lon="-3.46555">
        <ele>212.2</ele>
        <time>2020-06-10T15:28:34Z</time>
      </trkpt>
      <trkpt lat="48.55879" lon="-3.46553">
        <ele>212.4</ele>
        <time>2020-06-10T15:28:35Z</time>
      </trkpt>
      <trkpt lat="48.55879" lon="-3.46547">
        <ele>212.7</ele>
        <time>2020-06-10T15:28:36Z</time>
      </trkpt>
      <trkpt lat="48.55878" lon="-3.46546">
        <ele>212.8</ele>
        <time>2020-06-10T15:28:37Z</time>
      </trkpt>
      <trkpt lat="48.55877" lon="-3.46544">
        <ele>213</ele>
        <time>2020-06-10T15:28:38Z</time>
      </trkpt>
      <trkpt lat="48.55877" lon="-3.46542">
        <ele>213.1</ele>
        <time>2020-06-10T15:28:39Z</time>
      </trkpt>
      <trkpt lat="48.55876" lon="-3.46537">
        <ele>213.4</ele>
        <time>2020-06-10T15:28:40Z</time>
      </trkpt>
      <trkpt lat="48.55876" lon="-3.46536">
        <ele>213.5</ele>
        <time>2020-06-10T15:28:41Z</time>
      </trkpt>
      <trkpt lat="48.55875" lon="-3.4653">
        <ele>213.9</ele>
        <time>2020-06-10T15:28:42Z</time>
      </trkpt>
      <trkpt lat="48.55875" lon="-3.46528">
        <ele>214</ele>
        <time>2020-06-10T15:28:43Z</time>
      </trkpt>
      <trkpt lat="48.55874" lon="-3.46523">
        <ele>214.3</ele>
        <time>2020-06-10T15:28:44Z</time>
      </trkpt>
      <trkpt lat="48.55874" lon="-3.46521">
        <ele>214.4</ele>
        <time>2020-06-10T15:28:45Z</time>
      </trkpt>
      <trkpt lat="48.55874" lon="-3.46516">
        <ele>214.7</ele>
        <time>2020-06-10T15:28:46Z</time>
      </trkpt>
      <trkpt lat="48.55874" lon="-3.46515">
        <ele>214.8</ele>
        <time>2020-06-10T15:28:47Z</time>
      </trkpt>
      <trkpt lat="48.55874" lon="-3.4651">
        <ele>215.1</ele>
        <time>2020-06-10T15:28:48Z</time>
      </trkpt>
      <trkpt lat="48.55874" lon="-3.46509">
        <ele>215.2</ele>
        <time>2020-06-10T15:28:49Z</time>
      </trkpt>
      <trkpt lat="48.55874" lon="-3.46504">
        <ele>215.5</ele>
        <time>2020-06-10T15:28:50Z</time>
      </trkpt>
      <trkpt lat="48.55874" lon="-3.46502">
        <ele>215.6</ele>
        <time>2020-06-10T15:28:51Z</time>
      </trkpt>
      <trkpt lat="48.55873" lon="-3.46498">
        <ele>215.9</ele>
        <time>2020-06-10T15:28:52Z</time>
      </trkpt>
      <trkpt lat="48.55873" lon="-3.46497">
        <ele>215.9</ele>
        <time>2020-06-10T15:28:53Z</time>
      </trkpt>
      <trkpt lat="48.55873" lon="-3.46492">
        <ele>216.2</ele>
        <time>2020-06-10T15:28:54Z</time>
      </trkpt>
      <trkpt lat="48.55872" lon="-3.46489">
        <ele>216.3</ele>
        <time>2020-06-10T15:28:55Z</time>
      </trkpt>
      <trkpt lat="48.55872" lon="-3.46485">
        <ele>216.6</ele>
        <time>2020-06-10T15:28:56Z</time>
      </trkpt>
      <trkpt lat="48.55871" lon="-3.46483">
        <ele>216.7</ele>
        <time>2020-06-10T15:28:57Z</time>
      </trkpt>
      <trkpt lat="48.55871" lon="-3.46477">
        <ele>217</ele>
        <time>2020-06-10T15:28:58Z</time>
      </trkpt>
      <trkpt lat="48.5587" lon="-3.46475">
        <ele>217.1</ele>
        <time>2020-06-10T15:28:59Z</time>
      </trkpt>
      <trkpt lat="48.5587" lon="-3.46469">
        <ele>217.4</ele>
        <time>2020-06-10T15:29:00Z</time>
      </trkpt>
      <trkpt lat="48.55869" lon="-3.46467">
        <ele>217.6</ele>
        <time>2020-06-10T15:29:01Z</time>
      </trkpt>
      <trkpt lat="48.55869" lon="-3.46461">
        <ele>217.9</ele>
        <time>2020-06-10T15:29:02Z</time>
      </trkpt>
      <trkpt lat="48.55869" lon="-3.46459">
        <ele>217.9</ele>
        <time>2020-06-10T15:29:03Z</time>
      </trkpt>
      <trkpt lat="48.55869" lon="-3.46457">
        <ele>218.1</ele>
        <time>2020-06-10T15:29:04Z</time>
      </trkpt>
      <trkpt lat="48.55868" lon="-3.46454">
        <ele>218.2</ele>
        <time>2020-06-10T15:29:05Z</time>
      </trkpt>
      <trkpt lat="48.55867" lon="-3.46449">
        <ele>218.4</ele>
        <time>2020-06-10T15:29:06Z</time>
      </trkpt>
      <trkpt lat="48.55867" lon="-3.46447">
        <ele>218.5</ele>
        <time>2020-06-10T15:29:07Z</time>
      </trkpt>
      <trkpt lat="48.55866" lon="-3.46442">
        <ele>218.7</ele>
        <time>2020-06-10T15:29:08Z</time>
      </trkpt>
      <trkpt lat="48.55866" lon="-3.4644">
        <ele>218.8</ele>
        <time>2020-06-10T15:29:09Z</time>
      </trkpt>
      <trkpt lat="48.55866" lon="-3.46435">
        <ele>218.9</ele>
        <time>2020-06-10T15:29:10Z</time>
      </trkpt>
      <trkpt lat="48.55866" lon="-3.46433">
        <ele>219</ele>
        <time>2020-06-10T15:29:11Z</time>
      </trkpt>
      <trkpt lat="48.55865" lon="-3.46428">
        <ele>219.2</ele>
        <time>2020-06-10T15:29:12Z</time>
      </trkpt>
      <trkpt lat="48.55865" lon="-3.46426">
        <ele>219.2</ele>
        <time>2020-06-10T15:29:13Z</time>
      </trkpt>
      <trkpt lat="48.55865" lon="-3.46421">
        <ele>219.4</ele>
        <time>2020-06-10T15:29:14Z</time>
      </trkpt>
      <trkpt lat="48.55865" lon="-3.46415">
        <ele>219.5</ele>
        <time>2020-06-10T15:29:15Z</time>
      </trkpt>
      <trkpt lat="48.55865" lon="-3.46413">
        <ele>219.6</ele>
        <time>2020-06-10T15:29:16Z</time>
      </trkpt>
      <trkpt lat="48.55864" lon="-3.46409">
        <ele>219.7</ele>
        <time>2020-06-10T15:29:17Z</time>
      </trkpt>
      <trkpt lat="48.55864" lon="-3.46404">
        <ele>219.8</ele>
        <time>2020-06-10T15:29:18Z</time>
      </trkpt>
      <trkpt lat="48.55864" lon="-3.46404">
        <ele>219.9</ele>
        <time>2020-06-10T15:29:19Z</time>
      </trkpt>
      <trkpt lat="48.55864" lon="-3.46403">
        <ele>219.9</ele>
        <time>2020-06-10T15:29:20Z</time>
      </trkpt>
      <trkpt lat="48.55864" lon="-3.46398">
        <ele>220</ele>
        <time>2020-06-10T15:29:21Z</time>
      </trkpt>
      <trkpt lat="48.55863" lon="-3.46394">
        <ele>220.1</ele>
        <time>2020-06-10T15:29:22Z</time>
      </trkpt>
      <trkpt lat="48.55862" lon="-3.46388">
        <ele>220.2</ele>
        <time>2020-06-10T15:29:23Z</time>
      </trkpt>
      <trkpt lat="48.55861" lon="-3.46387">
        <ele>220.6</ele>
        <time>2020-06-10T15:29:24Z</time>
      </trkpt>
      <trkpt lat="48.55861" lon="-3.46384">
        <ele>220.6</ele>
        <time>2020-06-10T15:29:25Z</time>
      </trkpt>
      <trkpt lat="48.5586" lon="-3.46382">
        <ele>220.5</ele>
        <time>2020-06-10T15:29:26Z</time>
      </trkpt>
      <trkpt lat="48.5586" lon="-3.46381">
        <ele>220.5</ele>
        <time>2020-06-10T15:29:27Z</time>
      </trkpt>
      <trkpt lat="48.55859" lon="-3.46378">
        <ele>220.4</ele>
        <time>2020-06-10T15:29:28Z</time>
      </trkpt>
      <trkpt lat="48.55859" lon="-3.46377">
        <ele>220.4</ele>
        <time>2020-06-10T15:29:29Z</time>
      </trkpt>
      <trkpt lat="48.55859" lon="-3.46375">
        <ele>220.4</ele>
        <time>2020-06-10T15:29:30Z</time>
      </trkpt>
      <trkpt lat="48.55859" lon="-3.46373">
        <ele>220.4</ele>
        <time>2020-06-10T15:29:31Z</time>
      </trkpt>
      <trkpt lat="48.55859" lon="-3.46371">
        <ele>220.3</ele>
        <time>2020-06-10T15:29:32Z</time>
      </trkpt>
      <trkpt lat="48.55858" lon="-3.4637">
        <ele>220.3</ele>
        <time>2020-06-10T15:29:33Z</time>
      </trkpt>
      <trkpt lat="48.55858" lon="-3.46368">
        <ele>220.3</ele>
        <time>2020-06-10T15:29:34Z</time>
      </trkpt>
      <trkpt lat="48.55858" lon="-3.46367">
        <ele>220.2</ele>
        <time>2020-06-10T15:29:35Z</time>
      </trkpt>
      <trkpt lat="48.55858" lon="-3.46367">
        <ele>220.2</ele>
        <time>2020-06-10T15:29:36Z</time>
      </trkpt>
      <trkpt lat="48.55858" lon="-3.46367">
        <ele>220.2</ele>
        <time>2020-06-10T15:29:37Z</time>
      </trkpt>
      <trkpt lat="48.55858" lon="-3.46367">
        <ele>220.2</ele>
        <time>2020-06-10T15:29:38Z</time>
      </trkpt>
      <trkpt lat="48.55858" lon="-3.46368">
        <ele>220.2</ele>
        <time>2020-06-10T15:29:39Z</time>
      </trkpt>
      <trkpt lat="48.55858" lon="-3.46368">
        <ele>220.2</ele>
        <time>2020-06-10T15:29:40Z</time>
      </trkpt>
      <trkpt lat="48.55858" lon="-3.46366">
        <ele>220.1</ele>
        <time>2020-06-10T15:29:41Z</time>
      </trkpt>
      <trkpt lat="48.55858" lon="-3.46366">
        <ele>220.1</ele>
        <time>2020-06-10T15:29:42Z</time>
      </trkpt>
      <trkpt lat="48.55858" lon="-3.46365">
        <ele>220.1</ele>
        <time>2020-06-10T15:29:43Z</time>
      </trkpt>
      <trkpt lat="48.55858" lon="-3.46365">
        <ele>220.1</ele>
        <time>2020-06-10T15:29:44Z</time>
      </trkpt>
      <trkpt lat="48.55857" lon="-3.46366">
        <ele>220.1</ele>
        <time>2020-06-10T15:29:45Z</time>
      </trkpt>
      <trkpt lat="48.55856" lon="-3.46367">
        <ele>220</ele>
        <time>2020-06-10T15:29:46Z</time>
      </trkpt>
      <trkpt lat="48.55857" lon="-3.46359">
        <ele>219.8</ele>
        <time>2020-06-10T15:34:24Z</time>
      </trkpt>
      <trkpt lat="48.55856" lon="-3.46355">
        <ele>219.7</ele>
        <time>2020-06-10T15:34:25Z</time>
      </trkpt>
      <trkpt lat="48.55856" lon="-3.4635">
        <ele>219.5</ele>
        <time>2020-06-10T15:34:26Z</time>
      </trkpt>
      <trkpt lat="48.55856" lon="-3.46345">
        <ele>219.4</ele>
        <time>2020-06-10T15:34:27Z</time>
      </trkpt>
      <trkpt lat="48.55855" lon="-3.46339">
        <ele>219.2</ele>
        <time>2020-06-10T15:34:28Z</time>
      </trkpt>
      <trkpt lat="48.55854" lon="-3.46334">
        <ele>219</ele>
        <time>2020-06-10T15:34:29Z</time>
      </trkpt>
      <trkpt lat="48.55854" lon="-3.46327">
        <ele>218.7</ele>
        <time>2020-06-10T15:34:30Z</time>
      </trkpt>
      <trkpt lat="48.55854" lon="-3.4632">
        <ele>218.4</ele>
        <time>2020-06-10T15:34:31Z</time>
      </trkpt>
      <trkpt lat="48.55853" lon="-3.46312">
        <ele>218</ele>
        <time>2020-06-10T15:34:32Z</time>
      </trkpt>
      <trkpt lat="48.55853" lon="-3.46303">
        <ele>217.6</ele>
        <time>2020-06-10T15:34:33Z</time>
      </trkpt>
      <trkpt lat="48.55852" lon="-3.46294">
        <ele>217.2</ele>
        <time>2020-06-10T15:34:34Z</time>
      </trkpt>
      <trkpt lat="48.5585" lon="-3.46285">
        <ele>216.7</ele>
        <time>2020-06-10T15:34:35Z</time>
      </trkpt>
      <trkpt lat="48.55849" lon="-3.46274">
        <ele>216.2</ele>
        <time>2020-06-10T15:34:36Z</time>
      </trkpt>
      <trkpt lat="48.55848" lon="-3.46263">
        <ele>215.7</ele>
        <time>2020-06-10T15:34:37Z</time>
      </trkpt>
      <trkpt lat="48.55848" lon="-3.46251">
        <ele>215.1</ele>
        <time>2020-06-10T15:34:38Z</time>
      </trkpt>
      <trkpt lat="48.55847" lon="-3.46237">
        <ele>214.4</ele>
        <time>2020-06-10T15:34:39Z</time>
      </trkpt>
      <trkpt lat="48.55846" lon="-3.46223">
        <ele>213.6</ele>
        <time>2020-06-10T15:34:40Z</time>
      </trkpt>
      <trkpt lat="48.55845" lon="-3.46208">
        <ele>212.9</ele>
        <time>2020-06-10T15:34:41Z</time>
      </trkpt>
      <trkpt lat="48.55844" lon="-3.46194">
        <ele>212.1</ele>
        <time>2020-06-10T15:34:42Z</time>
      </trkpt>
      <trkpt lat="48.55842" lon="-3.46178">
        <ele>211.2</ele>
        <time>2020-06-10T15:34:43Z</time>
      </trkpt>
      <trkpt lat="48.55841" lon="-3.46163">
        <ele>210.3</ele>
        <time>2020-06-10T15:34:44Z</time>
      </trkpt>
      <trkpt lat="48.5584" lon="-3.46147">
        <ele>209.3</ele>
        <time>2020-06-10T15:34:45Z</time>
      </trkpt>
      <trkpt lat="48.55839" lon="-3.46131">
        <ele>208.2</ele>
        <time>2020-06-10T15:34:46Z</time>
      </trkpt>
      <trkpt lat="48.55838" lon="-3.46114">
        <ele>207.1</ele>
        <time>2020-06-10T15:34:47Z</time>
      </trkpt>
      <trkpt lat="48.55837" lon="-3.46096">
        <ele>206</ele>
        <time>2020-06-10T15:34:48Z</time>
      </trkpt>
      <trkpt lat="48.55835" lon="-3.46078">
        <ele>204.9</ele>
        <time>2020-06-10T15:34:49Z</time>
      </trkpt>
      <trkpt lat="48.55833" lon="-3.4606">
        <ele>203.7</ele>
        <time>2020-06-10T15:34:50Z</time>
      </trkpt>
      <trkpt lat="48.55831" lon="-3.46042">
        <ele>202.6</ele>
        <time>2020-06-10T15:34:51Z</time>
      </trkpt>
      <trkpt lat="48.5583" lon="-3.46023">
        <ele>201.6</ele>
        <time>2020-06-10T15:34:52Z</time>
      </trkpt>
      <trkpt lat="48.55828" lon="-3.46004">
        <ele>200.5</ele>
        <time>2020-06-10T15:34:53Z</time>
      </trkpt>
      <trkpt lat="48.55826" lon="-3.45985">
        <ele>199.5</ele>
        <time>2020-06-10T15:34:54Z</time>
      </trkpt>
      <trkpt lat="48.55824" lon="-3.45965">
        <ele>198.3</ele>
        <time>2020-06-10T15:34:55Z</time>
      </trkpt>
      <trkpt lat="48.55823" lon="-3.45946">
        <ele>197.2</ele>
        <time>2020-06-10T15:34:56Z</time>
      </trkpt>
      <trkpt lat="48.5582" lon="-3.45927">
        <ele>196.3</ele>
        <time>2020-06-10T15:34:57Z</time>
      </trkpt>
      <trkpt lat="48.55818" lon="-3.45908">
        <ele>195.4</ele>
        <time>2020-06-10T15:34:58Z</time>
      </trkpt>
      <trkpt lat="48.55816" lon="-3.45889">
        <ele>194.6</ele>
        <time>2020-06-10T15:34:59Z</time>
      </trkpt>
      <trkpt lat="48.55814" lon="-3.4587">
        <ele>194</ele>
        <time>2020-06-10T15:35:00Z</time>
      </trkpt>
      <trkpt lat="48.55812" lon="-3.45851">
        <ele>193.4</ele>
        <time>2020-06-10T15:35:01Z</time>
      </trkpt>
      <trkpt lat="48.5581" lon="-3.45832">
        <ele>193.1</ele>
        <time>2020-06-10T15:35:02Z</time>
      </trkpt>
      <trkpt lat="48.55808" lon="-3.45814">
        <ele>192.8</ele>
        <time>2020-06-10T15:35:03Z</time>
      </trkpt>
      <trkpt lat="48.55806" lon="-3.45797">
        <ele>192.6</ele>
        <time>2020-06-10T15:35:04Z</time>
      </trkpt>
      <trkpt lat="48.55805" lon="-3.4578">
        <ele>192.5</ele>
        <time>2020-06-10T15:35:05Z</time>
      </trkpt>
      <trkpt lat="48.55804" lon="-3.45763">
        <ele>191.9</ele>
        <time>2020-06-10T15:35:06Z</time>
      </trkpt>
      <trkpt lat="48.55802" lon="-3.45746">
        <ele>191.5</ele>
        <time>2020-06-10T15:35:07Z</time>
      </trkpt>
      <trkpt lat="48.55801" lon="-3.45729">
        <ele>191.2</ele>
        <time>2020-06-10T15:35:08Z</time>
      </trkpt>
      <trkpt lat="48.55799" lon="-3.45713">
        <ele>191</ele>
        <time>2020-06-10T15:35:09Z</time>
      </trkpt>
      <trkpt lat="48.55798" lon="-3.45697">
        <ele>190.8</ele>
        <time>2020-06-10T15:35:10Z</time>
      </trkpt>
      <trkpt lat="48.55796" lon="-3.4568">
        <ele>190.7</ele>
        <time>2020-06-10T15:35:11Z</time>
      </trkpt>
      <trkpt lat="48.55795" lon="-3.45664">
        <ele>190.6</ele>
        <time>2020-06-10T15:35:12Z</time>
      </trkpt>
      <trkpt lat="48.55794" lon="-3.45649">
        <ele>190.5</ele>
        <time>2020-06-10T15:35:13Z</time>
      </trkpt>
      <trkpt lat="48.55792" lon="-3.45633">
        <ele>190.4</ele>
        <time>2020-06-10T15:35:14Z</time>
      </trkpt>
      <trkpt lat="48.55791" lon="-3.45617">
        <ele>190.4</ele>
        <time>2020-06-10T15:35:15Z</time>
      </trkpt>
      <trkpt lat="48.55789" lon="-3.45601">
        <ele>190.3</ele>
        <time>2020-06-10T15:35:16Z</time>
      </trkpt>
      <trkpt lat="48.55788" lon="-3.45585">
        <ele>190.3</ele>
        <time>2020-06-10T15:35:17Z</time>
      </trkpt>
      <trkpt lat="48.55787" lon="-3.45569">
        <ele>190.2</ele>
        <time>2020-06-10T15:35:18Z</time>
      </trkpt>
      <trkpt lat="48.55785" lon="-3.45554">
        <ele>190.2</ele>
        <time>2020-06-10T15:35:19Z</time>
      </trkpt>
      <trkpt lat="48.55784" lon="-3.45539">
        <ele>190.1</ele>
        <time>2020-06-10T15:35:20Z</time>
      </trkpt>
      <trkpt lat="48.55783" lon="-3.45524">
        <ele>190</ele>
        <time>2020-06-10T15:35:21Z</time>
      </trkpt>
      <trkpt lat="48.55782" lon="-3.45509">
        <ele>190</ele>
        <time>2020-06-10T15:35:22Z</time>
      </trkpt>
      <trkpt lat="48.5578" lon="-3.45494">
        <ele>189.9</ele>
        <time>2020-06-10T15:35:23Z</time>
      </trkpt>
      <trkpt lat="48.55778" lon="-3.45479">
        <ele>190</ele>
        <time>2020-06-10T15:35:24Z</time>
      </trkpt>
      <trkpt lat="48.55777" lon="-3.45464">
        <ele>190</ele>
        <time>2020-06-10T15:35:25Z</time>
      </trkpt>
      <trkpt lat="48.55775" lon="-3.4545">
        <ele>190</ele>
        <time>2020-06-10T15:35:26Z</time>
      </trkpt>
      <trkpt lat="48.55773" lon="-3.45435">
        <ele>190.1</ele>
        <time>2020-06-10T15:35:27Z</time>
      </trkpt>
      <trkpt lat="48.55772" lon="-3.4542">
        <ele>190.2</ele>
        <time>2020-06-10T15:35:28Z</time>
      </trkpt>
      <trkpt lat="48.55771" lon="-3.45406">
        <ele>190.3</ele>
        <time>2020-06-10T15:35:29Z</time>
      </trkpt>
      <trkpt lat="48.55769" lon="-3.45392">
        <ele>190.5</ele>
        <time>2020-06-10T15:35:30Z</time>
      </trkpt>
      <trkpt lat="48.55768" lon="-3.45378">
        <ele>190.7</ele>
        <time>2020-06-10T15:35:31Z</time>
      </trkpt>
      <trkpt lat="48.55767" lon="-3.45364">
        <ele>191</ele>
        <time>2020-06-10T15:35:32Z</time>
      </trkpt>
      <trkpt lat="48.55765" lon="-3.45351">
        <ele>191.3</ele>
        <time>2020-06-10T15:35:33Z</time>
      </trkpt>
      <trkpt lat="48.55764" lon="-3.45338">
        <ele>191.6</ele>
        <time>2020-06-10T15:35:34Z</time>
      </trkpt>
      <trkpt lat="48.55763" lon="-3.45325">
        <ele>192</ele>
        <time>2020-06-10T15:35:35Z</time>
      </trkpt>
      <trkpt lat="48.55763" lon="-3.45313">
        <ele>192.4</ele>
        <time>2020-06-10T15:35:36Z</time>
      </trkpt>
      <trkpt lat="48.55762" lon="-3.45302">
        <ele>192.8</ele>
        <time>2020-06-10T15:35:37Z</time>
      </trkpt>
      <trkpt lat="48.55761" lon="-3.4529">
        <ele>193.1</ele>
        <time>2020-06-10T15:35:38Z</time>
      </trkpt>
      <trkpt lat="48.5576" lon="-3.4528">
        <ele>193.3</ele>
        <time>2020-06-10T15:35:39Z</time>
      </trkpt>
      <trkpt lat="48.55759" lon="-3.4527">
        <ele>193.4</ele>
        <time>2020-06-10T15:35:40Z</time>
      </trkpt>
      <trkpt lat="48.55758" lon="-3.4526">
        <ele>193.6</ele>
        <time>2020-06-10T15:35:41Z</time>
      </trkpt>
      <trkpt lat="48.55757" lon="-3.4525">
        <ele>193.8</ele>
        <time>2020-06-10T15:35:42Z</time>
      </trkpt>
      <trkpt lat="48.55756" lon="-3.4524">
        <ele>194</ele>
        <time>2020-06-10T15:35:43Z</time>
      </trkpt>
      <trkpt lat="48.55755" lon="-3.4523">
        <ele>194.2</ele>
        <time>2020-06-10T15:35:44Z</time>
      </trkpt>
      <trkpt lat="48.55754" lon="-3.45221">
        <ele>194.5</ele>
        <time>2020-06-10T15:35:45Z</time>
      </trkpt>
      <trkpt lat="48.55752" lon="-3.45212">
        <ele>194.7</ele>
        <time>2020-06-10T15:35:46Z</time>
      </trkpt>
      <trkpt lat="48.55751" lon="-3.45203">
        <ele>195</ele>
        <time>2020-06-10T15:35:47Z</time>
      </trkpt>
      <trkpt lat="48.5575" lon="-3.45195">
        <ele>195.3</ele>
        <time>2020-06-10T15:35:48Z</time>
      </trkpt>
      <trkpt lat="48.5575" lon="-3.45186">
        <ele>195.5</ele>
        <time>2020-06-10T15:35:49Z</time>
      </trkpt>
      <trkpt lat="48.55749" lon="-3.45178">
        <ele>195.8</ele>
        <time>2020-06-10T15:35:50Z</time>
      </trkpt>
      <trkpt lat="48.55748" lon="-3.4517">
        <ele>196</ele>
        <time>2020-06-10T15:35:51Z</time>
      </trkpt>
      <trkpt lat="48.55748" lon="-3.45163">
        <ele>196.3</ele>
        <time>2020-06-10T15:35:52Z</time>
      </trkpt>
      <trkpt lat="48.55747" lon="-3.45155">
        <ele>196.5</ele>
        <time>2020-06-10T15:35:53Z</time>
      </trkpt>
      <trkpt lat="48.55747" lon="-3.45147">
        <ele>196.8</ele>
        <time>2020-06-10T15:35:54Z</time>
      </trkpt>
      <trkpt lat="48.55746" lon="-3.45139">
        <ele>197</ele>
        <time>2020-06-10T15:35:55Z</time>
      </trkpt>
      <trkpt lat="48.55746" lon="-3.45131">
        <ele>197.2</ele>
        <time>2020-06-10T15:35:56Z</time>
      </trkpt>
      <trkpt lat="48.55745" lon="-3.45124">
        <ele>197.4</ele>
        <time>2020-06-10T15:35:57Z</time>
      </trkpt>
      <trkpt lat="48.55744" lon="-3.45117">
        <ele>197.6</ele>
        <time>2020-06-10T15:35:58Z</time>
      </trkpt>
      <trkpt lat="48.55743" lon="-3.45109">
        <ele>197.7</ele>
        <time>2020-06-10T15:35:59Z</time>
      </trkpt>
      <trkpt lat="48.55742" lon="-3.45102">
        <ele>197.9</ele>
        <time>2020-06-10T15:36:00Z</time>
      </trkpt>
      <trkpt lat="48.55742" lon="-3.45095">
        <ele>198</ele>
        <time>2020-06-10T15:36:01Z</time>
      </trkpt>
      <trkpt lat="48.55741" lon="-3.45086">
        <ele>198.2</ele>
        <time>2020-06-10T15:36:02Z</time>
      </trkpt>
      <trkpt lat="48.5574" lon="-3.45078">
        <ele>198.3</ele>
        <time>2020-06-10T15:36:03Z</time>
      </trkpt>
      <trkpt lat="48.55739" lon="-3.45071">
        <ele>198.4</ele>
        <time>2020-06-10T15:36:04Z</time>
      </trkpt>
      <trkpt lat="48.55738" lon="-3.45061">
        <ele>198.6</ele>
        <time>2020-06-10T15:36:05Z</time>
      </trkpt>
      <trkpt lat="48.55737" lon="-3.45055">
        <ele>198.7</ele>
        <time>2020-06-10T15:36:06Z</time>
      </trkpt>
      <trkpt lat="48.55736" lon="-3.45046">
        <ele>198.8</ele>
        <time>2020-06-10T15:36:07Z</time>
      </trkpt>
      <trkpt lat="48.55735" lon="-3.45037">
        <ele>199</ele>
        <time>2020-06-10T15:36:08Z</time>
      </trkpt>
      <trkpt lat="48.55734" lon="-3.4503">
        <ele>199.1</ele>
        <time>2020-06-10T15:36:09Z</time>
      </trkpt>
      <trkpt lat="48.55734" lon="-3.45023">
        <ele>199.2</ele>
        <time>2020-06-10T15:36:10Z</time>
      </trkpt>
      <trkpt lat="48.55733" lon="-3.45014">
        <ele>199.4</ele>
        <time>2020-06-10T15:36:11Z</time>
      </trkpt>
      <trkpt lat="48.55733" lon="-3.45007">
        <ele>199.5</ele>
        <time>2020-06-10T15:36:12Z</time>
      </trkpt>
      <trkpt lat="48.55732" lon="-3.44999">
        <ele>199.5</ele>
        <time>2020-06-10T15:36:13Z</time>
      </trkpt>
      <trkpt lat="48.55732" lon="-3.44992">
        <ele>199.6</ele>
        <time>2020-06-10T15:36:14Z</time>
      </trkpt>
      <trkpt lat="48.55731" lon="-3.44984">
        <ele>199.7</ele>
        <time>2020-06-10T15:36:15Z</time>
      </trkpt>
      <trkpt lat="48.5573" lon="-3.44976">
        <ele>199.7</ele>
        <time>2020-06-10T15:36:16Z</time>
      </trkpt>
      <trkpt lat="48.55729" lon="-3.44968">
        <ele>199.7</ele>
        <time>2020-06-10T15:36:17Z</time>
      </trkpt>
      <trkpt lat="48.55728" lon="-3.44961">
        <ele>199.8</ele>
        <time>2020-06-10T15:36:18Z</time>
      </trkpt>
      <trkpt lat="48.55727" lon="-3.44953">
        <ele>199.8</ele>
        <time>2020-06-10T15:36:19Z</time>
      </trkpt>
      <trkpt lat="48.55727" lon="-3.44946">
        <ele>199.8</ele>
        <time>2020-06-10T15:36:20Z</time>
      </trkpt>
      <trkpt lat="48.55726" lon="-3.44939">
        <ele>199.8</ele>
        <time>2020-06-10T15:36:21Z</time>
      </trkpt>
      <trkpt lat="48.55725" lon="-3.44932">
        <ele>199.9</ele>
        <time>2020-06-10T15:36:22Z</time>
      </trkpt>
      <trkpt lat="48.55725" lon="-3.44925">
        <ele>199.9</ele>
        <time>2020-06-10T15:36:23Z</time>
      </trkpt>
      <trkpt lat="48.55724" lon="-3.44917">
        <ele>200</ele>
        <time>2020-06-10T15:36:24Z</time>
      </trkpt>
      <trkpt lat="48.55723" lon="-3.4491">
        <ele>200.1</ele>
        <time>2020-06-10T15:36:25Z</time>
      </trkpt>
      <trkpt lat="48.55723" lon="-3.44902">
        <ele>200.1</ele>
        <time>2020-06-10T15:36:26Z</time>
      </trkpt>
      <trkpt lat="48.55722" lon="-3.44896">
        <ele>200.1</ele>
        <time>2020-06-10T15:36:27Z</time>
      </trkpt>
      <trkpt lat="48.55722" lon="-3.44889">
        <ele>200.2</ele>
        <time>2020-06-10T15:36:28Z</time>
      </trkpt>
      <trkpt lat="48.55721" lon="-3.44882">
        <ele>200.2</ele>
        <time>2020-06-10T15:36:29Z</time>
      </trkpt>
      <trkpt lat="48.5572" lon="-3.44874">
        <ele>200.1</ele>
        <time>2020-06-10T15:36:30Z</time>
      </trkpt>
      <trkpt lat="48.55719" lon="-3.44868">
        <ele>200.1</ele>
        <time>2020-06-10T15:36:31Z</time>
      </trkpt>
      <trkpt lat="48.55718" lon="-3.4486">
        <ele>200.1</ele>
        <time>2020-06-10T15:36:32Z</time>
      </trkpt>
      <trkpt lat="48.55717" lon="-3.44853">
        <ele>200.1</ele>
        <time>2020-06-10T15:36:33Z</time>
      </trkpt>
      <trkpt lat="48.55716" lon="-3.44845">
        <ele>200.1</ele>
        <time>2020-06-10T15:36:34Z</time>
      </trkpt>
      <trkpt lat="48.55715" lon="-3.44835">
        <ele>200.2</ele>
        <time>2020-06-10T15:36:35Z</time>
      </trkpt>
      <trkpt lat="48.55714" lon="-3.44826">
        <ele>200.2</ele>
        <time>2020-06-10T15:36:36Z</time>
      </trkpt>
      <trkpt lat="48.55713" lon="-3.44817">
        <ele>200.3</ele>
        <time>2020-06-10T15:36:37Z</time>
      </trkpt>
      <trkpt lat="48.55712" lon="-3.44808">
        <ele>200.3</ele>
        <time>2020-06-10T15:36:38Z</time>
      </trkpt>
      <trkpt lat="48.55712" lon="-3.448">
        <ele>200.4</ele>
        <time>2020-06-10T15:36:39Z</time>
      </trkpt>
      <trkpt lat="48.55711" lon="-3.44791">
        <ele>200.5</ele>
        <time>2020-06-10T15:36:40Z</time>
      </trkpt>
      <trkpt lat="48.5571" lon="-3.44783">
        <ele>200.6</ele>
        <time>2020-06-10T15:36:41Z</time>
      </trkpt>
      <trkpt lat="48.55709" lon="-3.44773">
        <ele>200.7</ele>
        <time>2020-06-10T15:36:42Z</time>
      </trkpt>
      <trkpt lat="48.55709" lon="-3.44766">
        <ele>200.7</ele>
        <time>2020-06-10T15:36:43Z</time>
      </trkpt>
      <trkpt lat="48.55708" lon="-3.44759">
        <ele>200.8</ele>
        <time>2020-06-10T15:36:44Z</time>
      </trkpt>
      <trkpt lat="48.55708" lon="-3.44752">
        <ele>200.9</ele>
        <time>2020-06-10T15:36:45Z</time>
      </trkpt>
      <trkpt lat="48.55708" lon="-3.44745">
        <ele>201</ele>
        <time>2020-06-10T15:36:46Z</time>
      </trkpt>
      <trkpt lat="48.55708" lon="-3.44736">
        <ele>201.1</ele>
        <time>2020-06-10T15:36:47Z</time>
      </trkpt>
      <trkpt lat="48.55708" lon="-3.4473">
        <ele>201.2</ele>
        <time>2020-06-10T15:36:48Z</time>
      </trkpt>
      <trkpt lat="48.55708" lon="-3.44723">
        <ele>201.3</ele>
        <time>2020-06-10T15:36:49Z</time>
      </trkpt>
      <trkpt lat="48.55707" lon="-3.44716">
        <ele>201.3</ele>
        <time>2020-06-10T15:36:50Z</time>
      </trkpt>
      <trkpt lat="48.55707" lon="-3.44707">
        <ele>201.1</ele>
        <time>2020-06-10T15:36:51Z</time>
      </trkpt>
      <trkpt lat="48.55707" lon="-3.447">
        <ele>201.1</ele>
        <time>2020-06-10T15:36:52Z</time>
      </trkpt>
      <trkpt lat="48.55707" lon="-3.44693">
        <ele>201.1</ele>
        <time>2020-06-10T15:36:53Z</time>
      </trkpt>
      <trkpt lat="48.55707" lon="-3.44686">
        <ele>201.1</ele>
        <time>2020-06-10T15:36:54Z</time>
      </trkpt>
      <trkpt lat="48.55706" lon="-3.4468">
        <ele>201.1</ele>
        <time>2020-06-10T15:36:55Z</time>
      </trkpt>
      <trkpt lat="48.55704" lon="-3.44672">
        <ele>201.1</ele>
        <time>2020-06-10T15:36:56Z</time>
      </trkpt>
      <trkpt lat="48.55701" lon="-3.44664">
        <ele>201.1</ele>
        <time>2020-06-10T15:36:57Z</time>
      </trkpt>
      <trkpt lat="48.55699" lon="-3.44658">
        <ele>201.2</ele>
        <time>2020-06-10T15:36:58Z</time>
      </trkpt>
      <trkpt lat="48.55697" lon="-3.4465">
        <ele>201.2</ele>
        <time>2020-06-10T15:36:59Z</time>
      </trkpt>
      <trkpt lat="48.55695" lon="-3.44643">
        <ele>201.2</ele>
        <time>2020-06-10T15:37:00Z</time>
      </trkpt>
      <trkpt lat="48.55693" lon="-3.44636">
        <ele>201.2</ele>
        <time>2020-06-10T15:37:01Z</time>
      </trkpt>
      <trkpt lat="48.55692" lon="-3.44631">
        <ele>201.3</ele>
        <time>2020-06-10T15:37:02Z</time>
      </trkpt>
      <trkpt lat="48.5569" lon="-3.44624">
        <ele>201.4</ele>
        <time>2020-06-10T15:37:03Z</time>
      </trkpt>
      <trkpt lat="48.55688" lon="-3.44617">
        <ele>201.6</ele>
        <time>2020-06-10T15:37:04Z</time>
      </trkpt>
      <trkpt lat="48.55685" lon="-3.44609">
        <ele>201.8</ele>
        <time>2020-06-10T15:37:05Z</time>
      </trkpt>
      <trkpt lat="48.55682" lon="-3.44601">
        <ele>202</ele>
        <time>2020-06-10T15:37:06Z</time>
      </trkpt>
      <trkpt lat="48.5568" lon="-3.44595">
        <ele>202.2</ele>
        <time>2020-06-10T15:37:07Z</time>
      </trkpt>
      <trkpt lat="48.55677" lon="-3.44587">
        <ele>202.3</ele>
        <time>2020-06-10T15:37:08Z</time>
      </trkpt>
      <trkpt lat="48.55675" lon="-3.44579">
        <ele>202.5</ele>
        <time>2020-06-10T15:37:09Z</time>
      </trkpt>
      <trkpt lat="48.55672" lon="-3.44572">
        <ele>202.7</ele>
        <time>2020-06-10T15:37:10Z</time>
      </trkpt>
      <trkpt lat="48.5567" lon="-3.44564">
        <ele>203</ele>
        <time>2020-06-10T15:37:11Z</time>
      </trkpt>
      <trkpt lat="48.55668" lon="-3.44557">
        <ele>203</ele>
        <time>2020-06-10T15:37:12Z</time>
      </trkpt>
      <trkpt lat="48.55666" lon="-3.44551">
        <ele>202.9</ele>
        <time>2020-06-10T15:37:13Z</time>
      </trkpt>
      <trkpt lat="48.55663" lon="-3.44544">
        <ele>202.9</ele>
        <time>2020-06-10T15:37:14Z</time>
      </trkpt>
      <trkpt lat="48.55661" lon="-3.44539">
        <ele>202.9</ele>
        <time>2020-06-10T15:37:15Z</time>
      </trkpt>
      <trkpt lat="48.55659" lon="-3.44534">
        <ele>202.9</ele>
        <time>2020-06-10T15:37:16Z</time>
      </trkpt>
      <trkpt lat="48.55657" lon="-3.44528">
        <ele>202.9</ele>
        <time>2020-06-10T15:37:17Z</time>
      </trkpt>
      <trkpt lat="48.55655" lon="-3.44524">
        <ele>203</ele>
        <time>2020-06-10T15:37:18Z</time>
      </trkpt>
      <trkpt lat="48.55653" lon="-3.4452">
        <ele>203.1</ele>
        <time>2020-06-10T15:37:19Z</time>
      </trkpt>
      <trkpt lat="48.5565" lon="-3.44516">
        <ele>203.2</ele>
        <time>2020-06-10T15:37:20Z</time>
      </trkpt>
      <trkpt lat="48.55649" lon="-3.44514">
        <ele>203.2</ele>
        <time>2020-06-10T15:37:21Z</time>
      </trkpt>
      <trkpt lat="48.55648" lon="-3.44513">
        <ele>203.3</ele>
        <time>2020-06-10T15:37:22Z</time>
      </trkpt>
      <trkpt lat="48.55648" lon="-3.44511">
        <ele>203.3</ele>
        <time>2020-06-10T15:37:23Z</time>
      </trkpt>
      <trkpt lat="48.55648" lon="-3.4451">
        <ele>203.3</ele>
        <time>2020-06-10T15:37:24Z</time>
      </trkpt>
      <trkpt lat="48.55647" lon="-3.4451">
        <ele>203.3</ele>
        <time>2020-06-10T15:37:25Z</time>
      </trkpt>
      <trkpt lat="48.55648" lon="-3.4451">
        <ele>203.3</ele>
        <time>2020-06-10T15:37:26Z</time>
      </trkpt>
      <trkpt lat="48.55648" lon="-3.44509">
        <ele>203.3</ele>
        <time>2020-06-10T15:37:27Z</time>
      </trkpt>
      <trkpt lat="48.55648" lon="-3.44509">
        <ele>203.3</ele>
        <time>2020-06-10T15:37:28Z</time>
      </trkpt>
      <trkpt lat="48.55648" lon="-3.44509">
        <ele>203.3</ele>
        <time>2020-06-10T15:37:29Z</time>
      </trkpt>
      <trkpt lat="48.55648" lon="-3.44509">
        <ele>203.3</ele>
        <time>2020-06-10T15:37:30Z</time>
      </trkpt>
      <trkpt lat="48.55648" lon="-3.4451">
        <ele>203.4</ele>
        <time>2020-06-10T15:37:31Z</time>
      </trkpt>
      <trkpt lat="48.55648" lon="-3.4451">
        <ele>203.4</ele>
        <time>2020-06-10T15:37:32Z</time>
      </trkpt>
      <trkpt lat="48.55648" lon="-3.4451">
        <ele>203.4</ele>
        <time>2020-06-10T15:37:33Z</time>
      </trkpt>
      <trkpt lat="48.55648" lon="-3.44511">
        <ele>203.4</ele>
        <time>2020-06-10T15:37:34Z</time>
      </trkpt>
      <trkpt lat="48.55648" lon="-3.4451">
        <ele>203.4</ele>
        <time>2020-06-10T15:37:35Z</time>
      </trkpt>
      <trkpt lat="48.55649" lon="-3.44509">
        <ele>203.4</ele>
        <time>2020-06-10T15:37:36Z</time>
      </trkpt>
      <trkpt lat="48.55649" lon="-3.44507">
        <ele>203.4</ele>
        <time>2020-06-10T15:37:37Z</time>
      </trkpt>
      <trkpt lat="48.55649" lon="-3.44506">
        <ele>203.4</ele>
        <time>2020-06-10T15:37:38Z</time>
      </trkpt>
      <trkpt lat="48.55648" lon="-3.44501">
        <ele>203.5</ele>
        <time>2020-06-10T15:37:39Z</time>
      </trkpt>
      <trkpt lat="48.55647" lon="-3.44497">
        <ele>203.5</ele>
        <time>2020-06-10T15:37:40Z</time>
      </trkpt>
      <trkpt lat="48.55646" lon="-3.44496">
        <ele>203.5</ele>
        <time>2020-06-10T15:37:41Z</time>
      </trkpt>
      <trkpt lat="48.55645" lon="-3.44491">
        <ele>203.5</ele>
        <time>2020-06-10T15:37:42Z</time>
      </trkpt>
      <trkpt lat="48.55644" lon="-3.44486">
        <ele>203.5</ele>
        <time>2020-06-10T15:37:43Z</time>
      </trkpt>
      <trkpt lat="48.55643" lon="-3.44481">
        <ele>203.5</ele>
        <time>2020-06-10T15:37:44Z</time>
      </trkpt>
      <trkpt lat="48.55642" lon="-3.44476">
        <ele>203.5</ele>
        <time>2020-06-10T15:37:45Z</time>
      </trkpt>
      <trkpt lat="48.55642" lon="-3.44475">
        <ele>203.5</ele>
        <time>2020-06-10T15:37:46Z</time>
      </trkpt>
      <trkpt lat="48.55641" lon="-3.44469">
        <ele>203.5</ele>
        <time>2020-06-10T15:37:47Z</time>
      </trkpt>
      <trkpt lat="48.5564" lon="-3.44468">
        <ele>203.4</ele>
        <time>2020-06-10T15:37:48Z</time>
      </trkpt>
      <trkpt lat="48.55639" lon="-3.44464">
        <ele>203.4</ele>
        <time>2020-06-10T15:37:49Z</time>
      </trkpt>
      <trkpt lat="48.55639" lon="-3.44458">
        <ele>203.4</ele>
        <time>2020-06-10T15:37:50Z</time>
      </trkpt>
      <trkpt lat="48.55638" lon="-3.44453">
        <ele>203.3</ele>
        <time>2020-06-10T15:37:51Z</time>
      </trkpt>
      <trkpt lat="48.55636" lon="-3.44449">
        <ele>203.3</ele>
        <time>2020-06-10T15:37:52Z</time>
      </trkpt>
      <trkpt lat="48.55634" lon="-3.44444">
        <ele>203.2</ele>
        <time>2020-06-10T15:37:53Z</time>
      </trkpt>
      <trkpt lat="48.55633" lon="-3.44443">
        <ele>203.2</ele>
        <time>2020-06-10T15:37:54Z</time>
      </trkpt>
      <trkpt lat="48.55633" lon="-3.44443">
        <ele>203.2</ele>
        <time>2020-06-10T15:37:55Z</time>
      </trkpt>
      <trkpt lat="48.55633" lon="-3.44442">
        <ele>203.2</ele>
        <time>2020-06-10T15:37:56Z</time>
      </trkpt>
      <trkpt lat="48.55632" lon="-3.44441">
        <ele>203.2</ele>
        <time>2020-06-10T15:37:57Z</time>
      </trkpt>
      <trkpt lat="48.55632" lon="-3.4444">
        <ele>203.1</ele>
        <time>2020-06-10T15:37:58Z</time>
      </trkpt>
      <trkpt lat="48.55631" lon="-3.4444">
        <ele>203.1</ele>
        <time>2020-06-10T15:37:59Z</time>
      </trkpt>
      <trkpt lat="48.55631" lon="-3.4444">
        <ele>203.1</ele>
        <time>2020-06-10T15:38:00Z</time>
      </trkpt>
      <trkpt lat="48.55631" lon="-3.44441">
        <ele>203.1</ele>
        <time>2020-06-10T15:38:01Z</time>
      </trkpt>
      <trkpt lat="48.55631" lon="-3.44442">
        <ele>203.1</ele>
        <time>2020-06-10T15:38:02Z</time>
      </trkpt>
      <trkpt lat="48.55631" lon="-3.44442">
        <ele>203.1</ele>
        <time>2020-06-10T15:38:03Z</time>
      </trkpt>
      <trkpt lat="48.55631" lon="-3.44442">
        <ele>203.1</ele>
        <time>2020-06-10T15:38:04Z</time>
      </trkpt>
      <trkpt lat="48.55631" lon="-3.44443">
        <ele>203.1</ele>
        <time>2020-06-10T15:38:05Z</time>
      </trkpt>
      <trkpt lat="48.55631" lon="-3.44443">
        <ele>203.1</ele>
        <time>2020-06-10T15:38:06Z</time>
      </trkpt>
      <trkpt lat="48.55631" lon="-3.44443">
        <ele>203.1</ele>
        <time>2020-06-10T15:38:07Z</time>
      </trkpt>
      <trkpt lat="48.55631" lon="-3.44443">
        <ele>203.1</ele>
        <time>2020-06-10T15:38:08Z</time>
      </trkpt>
      <trkpt lat="48.55631" lon="-3.44443">
        <ele>203.1</ele>
        <time>2020-06-10T15:38:09Z</time>
      </trkpt>
      <trkpt lat="48.55622" lon="-3.44437">
        <ele>202.9</ele>
        <time>2020-06-10T15:50:59Z</time>
      </trkpt>
      <trkpt lat="48.55621" lon="-3.44437">
        <ele>202.8</ele>
        <time>2020-06-10T15:51:00Z</time>
      </trkpt>
      <trkpt lat="48.5562" lon="-3.44436">
        <ele>202.8</ele>
        <time>2020-06-10T15:51:01Z</time>
      </trkpt>
      <trkpt lat="48.5562" lon="-3.44434">
        <ele>202.8</ele>
        <time>2020-06-10T15:51:02Z</time>
      </trkpt>
      <trkpt lat="48.5562" lon="-3.4443">
        <ele>202.7</ele>
        <time>2020-06-10T15:51:03Z</time>
      </trkpt>
      <trkpt lat="48.55619" lon="-3.44428">
        <ele>202.7</ele>
        <time>2020-06-10T15:51:04Z</time>
      </trkpt>
      <trkpt lat="48.55618" lon="-3.44424">
        <ele>202.6</ele>
        <time>2020-06-10T15:51:05Z</time>
      </trkpt>
      <trkpt lat="48.55616" lon="-3.4442">
        <ele>202.5</ele>
        <time>2020-06-10T15:51:06Z</time>
      </trkpt>
      <trkpt lat="48.55615" lon="-3.44414">
        <ele>202.4</ele>
        <time>2020-06-10T15:51:07Z</time>
      </trkpt>
      <trkpt lat="48.55614" lon="-3.44412">
        <ele>202.3</ele>
        <time>2020-06-10T15:51:08Z</time>
      </trkpt>
      <trkpt lat="48.55613" lon="-3.44408">
        <ele>202.2</ele>
        <time>2020-06-10T15:51:09Z</time>
      </trkpt>
      <trkpt lat="48.55613" lon="-3.44406">
        <ele>202.2</ele>
        <time>2020-06-10T15:51:10Z</time>
      </trkpt>
      <trkpt lat="48.55612" lon="-3.44401">
        <ele>202.1</ele>
        <time>2020-06-10T15:51:11Z</time>
      </trkpt>
      <trkpt lat="48.55612" lon="-3.44398">
        <ele>202</ele>
        <time>2020-06-10T15:51:12Z</time>
      </trkpt>
      <trkpt lat="48.55611" lon="-3.44393">
        <ele>201.9</ele>
        <time>2020-06-10T15:51:13Z</time>
      </trkpt>
      <trkpt lat="48.5561" lon="-3.44389">
        <ele>201.8</ele>
        <time>2020-06-10T15:51:14Z</time>
      </trkpt>
      <trkpt lat="48.55609" lon="-3.44384">
        <ele>201.7</ele>
        <time>2020-06-10T15:51:15Z</time>
      </trkpt>
      <trkpt lat="48.55608" lon="-3.44382">
        <ele>201.7</ele>
        <time>2020-06-10T15:51:16Z</time>
      </trkpt>
      <trkpt lat="48.55607" lon="-3.44377">
        <ele>201.5</ele>
        <time>2020-06-10T15:51:17Z</time>
      </trkpt>
      <trkpt lat="48.55605" lon="-3.44372">
        <ele>201.3</ele>
        <time>2020-06-10T15:51:18Z</time>
      </trkpt>
      <trkpt lat="48.55603" lon="-3.44368">
        <ele>201.2</ele>
        <time>2020-06-10T15:51:19Z</time>
      </trkpt>
      <trkpt lat="48.55602" lon="-3.44362">
        <ele>201</ele>
        <time>2020-06-10T15:51:20Z</time>
      </trkpt>
      <trkpt lat="48.55602" lon="-3.44359">
        <ele>200.9</ele>
        <time>2020-06-10T15:51:21Z</time>
      </trkpt>
      <trkpt lat="48.556" lon="-3.44354">
        <ele>200.7</ele>
        <time>2020-06-10T15:51:22Z</time>
      </trkpt>
      <trkpt lat="48.55599" lon="-3.44353">
        <ele>200.6</ele>
        <time>2020-06-10T15:51:23Z</time>
      </trkpt>
      <trkpt lat="48.55596" lon="-3.44348">
        <ele>200.4</ele>
        <time>2020-06-10T15:51:24Z</time>
      </trkpt>
      <trkpt lat="48.55594" lon="-3.44342">
        <ele>200.2</ele>
        <time>2020-06-10T15:51:25Z</time>
      </trkpt>
      <trkpt lat="48.55591" lon="-3.44337">
        <ele>200</ele>
        <time>2020-06-10T15:51:26Z</time>
      </trkpt>
      <trkpt lat="48.55588" lon="-3.44331">
        <ele>199.7</ele>
        <time>2020-06-10T15:51:27Z</time>
      </trkpt>
      <trkpt lat="48.55587" lon="-3.44323">
        <ele>199.4</ele>
        <time>2020-06-10T15:51:28Z</time>
      </trkpt>
      <trkpt lat="48.55585" lon="-3.44316">
        <ele>199.1</ele>
        <time>2020-06-10T15:51:29Z</time>
      </trkpt>
      <trkpt lat="48.55584" lon="-3.4431">
        <ele>198.9</ele>
        <time>2020-06-10T15:51:30Z</time>
      </trkpt>
      <trkpt lat="48.55583" lon="-3.44303">
        <ele>198.6</ele>
        <time>2020-06-10T15:51:31Z</time>
      </trkpt>
      <trkpt lat="48.5558" lon="-3.44297">
        <ele>198.4</ele>
        <time>2020-06-10T15:51:32Z</time>
      </trkpt>
      <trkpt lat="48.55579" lon="-3.4429">
        <ele>198.1</ele>
        <time>2020-06-10T15:51:33Z</time>
      </trkpt>
      <trkpt lat="48.55577" lon="-3.44284">
        <ele>197.9</ele>
        <time>2020-06-10T15:51:34Z</time>
      </trkpt>
      <trkpt lat="48.55574" lon="-3.44277">
        <ele>197.6</ele>
        <time>2020-06-10T15:51:35Z</time>
      </trkpt>
      <trkpt lat="48.55572" lon="-3.44269">
        <ele>197.4</ele>
        <time>2020-06-10T15:51:36Z</time>
      </trkpt>
      <trkpt lat="48.5557" lon="-3.4426">
        <ele>197.1</ele>
        <time>2020-06-10T15:51:37Z</time>
      </trkpt>
      <trkpt lat="48.55568" lon="-3.44249">
        <ele>196.8</ele>
        <time>2020-06-10T15:51:38Z</time>
      </trkpt>
      <trkpt lat="48.55566" lon="-3.44239">
        <ele>196.5</ele>
        <time>2020-06-10T15:51:39Z</time>
      </trkpt>
      <trkpt lat="48.55564" lon="-3.44229">
        <ele>196.3</ele>
        <time>2020-06-10T15:51:40Z</time>
      </trkpt>
      <trkpt lat="48.55563" lon="-3.44219">
        <ele>196</ele>
        <time>2020-06-10T15:51:41Z</time>
      </trkpt>
      <trkpt lat="48.55562" lon="-3.44211">
        <ele>195.9</ele>
        <time>2020-06-10T15:51:42Z</time>
      </trkpt>
      <trkpt lat="48.55561" lon="-3.44201">
        <ele>195.6</ele>
        <time>2020-06-10T15:51:43Z</time>
      </trkpt>
      <trkpt lat="48.55559" lon="-3.4419">
        <ele>195.4</ele>
        <time>2020-06-10T15:51:44Z</time>
      </trkpt>
      <trkpt lat="48.55558" lon="-3.4418">
        <ele>195.2</ele>
        <time>2020-06-10T15:51:45Z</time>
      </trkpt>
      <trkpt lat="48.55556" lon="-3.44169">
        <ele>194.9</ele>
        <time>2020-06-10T15:51:46Z</time>
      </trkpt>
      <trkpt lat="48.55554" lon="-3.44159">
        <ele>194.7</ele>
        <time>2020-06-10T15:51:47Z</time>
      </trkpt>
      <trkpt lat="48.55552" lon="-3.44148">
        <ele>194.5</ele>
        <time>2020-06-10T15:51:48Z</time>
      </trkpt>
      <trkpt lat="48.5555" lon="-3.44138">
        <ele>194.3</ele>
        <time>2020-06-10T15:51:49Z</time>
      </trkpt>
      <trkpt lat="48.55547" lon="-3.44128">
        <ele>194.2</ele>
        <time>2020-06-10T15:51:50Z</time>
      </trkpt>
      <trkpt lat="48.55545" lon="-3.44119">
        <ele>194</ele>
        <time>2020-06-10T15:51:51Z</time>
      </trkpt>
      <trkpt lat="48.55543" lon="-3.44111">
        <ele>193.9</ele>
        <time>2020-06-10T15:51:52Z</time>
      </trkpt>
      <trkpt lat="48.5554" lon="-3.44103">
        <ele>193.8</ele>
        <time>2020-06-10T15:51:53Z</time>
      </trkpt>
      <trkpt lat="48.55538" lon="-3.44096">
        <ele>193.7</ele>
        <time>2020-06-10T15:51:54Z</time>
      </trkpt>
      <trkpt lat="48.55535" lon="-3.44089">
        <ele>193.6</ele>
        <time>2020-06-10T15:51:55Z</time>
      </trkpt>
      <trkpt lat="48.55531" lon="-3.44083">
        <ele>193.6</ele>
        <time>2020-06-10T15:51:56Z</time>
      </trkpt>
      <trkpt lat="48.55529" lon="-3.44075">
        <ele>193.4</ele>
        <time>2020-06-10T15:51:57Z</time>
      </trkpt>
      <trkpt lat="48.55529" lon="-3.44065">
        <ele>193.4</ele>
        <time>2020-06-10T15:51:58Z</time>
      </trkpt>
      <trkpt lat="48.55529" lon="-3.44057">
        <ele>193.4</ele>
        <time>2020-06-10T15:51:59Z</time>
      </trkpt>
      <trkpt lat="48.5553" lon="-3.44048">
        <ele>193.3</ele>
        <time>2020-06-10T15:52:00Z</time>
      </trkpt>
      <trkpt lat="48.55529" lon="-3.44039">
        <ele>193.3</ele>
        <time>2020-06-10T15:52:01Z</time>
      </trkpt>
      <trkpt lat="48.55528" lon="-3.4403">
        <ele>193.2</ele>
        <time>2020-06-10T15:52:02Z</time>
      </trkpt>
      <trkpt lat="48.55527" lon="-3.44021">
        <ele>193.1</ele>
        <time>2020-06-10T15:52:03Z</time>
      </trkpt>
      <trkpt lat="48.55525" lon="-3.44012">
        <ele>193.1</ele>
        <time>2020-06-10T15:52:04Z</time>
      </trkpt>
      <trkpt lat="48.55524" lon="-3.44003">
        <ele>193</ele>
        <time>2020-06-10T15:52:05Z</time>
      </trkpt>
      <trkpt lat="48.55523" lon="-3.43995">
        <ele>193</ele>
        <time>2020-06-10T15:52:06Z</time>
      </trkpt>
      <trkpt lat="48.55522" lon="-3.43986">
        <ele>192.9</ele>
        <time>2020-06-10T15:52:07Z</time>
      </trkpt>
      <trkpt lat="48.55521" lon="-3.43978">
        <ele>192.9</ele>
        <time>2020-06-10T15:52:08Z</time>
      </trkpt>
      <trkpt lat="48.55519" lon="-3.4397">
        <ele>192.8</ele>
        <time>2020-06-10T15:52:09Z</time>
      </trkpt>
      <trkpt lat="48.55517" lon="-3.43962">
        <ele>192.7</ele>
        <time>2020-06-10T15:52:10Z</time>
      </trkpt>
      <trkpt lat="48.55516" lon="-3.43953">
        <ele>192.6</ele>
        <time>2020-06-10T15:52:11Z</time>
      </trkpt>
      <trkpt lat="48.55513" lon="-3.43945">
        <ele>192.5</ele>
        <time>2020-06-10T15:52:12Z</time>
      </trkpt>
      <trkpt lat="48.55512" lon="-3.43938">
        <ele>192.5</ele>
        <time>2020-06-10T15:52:13Z</time>
      </trkpt>
      <trkpt lat="48.5551" lon="-3.43931">
        <ele>192.4</ele>
        <time>2020-06-10T15:52:14Z</time>
      </trkpt>
      <trkpt lat="48.55508" lon="-3.43924">
        <ele>192.4</ele>
        <time>2020-06-10T15:52:15Z</time>
      </trkpt>
      <trkpt lat="48.55507" lon="-3.43917">
        <ele>192.4</ele>
        <time>2020-06-10T15:52:16Z</time>
      </trkpt>
      <trkpt lat="48.55506" lon="-3.4391">
        <ele>192.4</ele>
        <time>2020-06-10T15:52:17Z</time>
      </trkpt>
      <trkpt lat="48.55505" lon="-3.43902">
        <ele>192.4</ele>
        <time>2020-06-10T15:52:18Z</time>
      </trkpt>
      <trkpt lat="48.55504" lon="-3.43894">
        <ele>192.4</ele>
        <time>2020-06-10T15:52:19Z</time>
      </trkpt>
      <trkpt lat="48.55502" lon="-3.43886">
        <ele>192.4</ele>
        <time>2020-06-10T15:52:20Z</time>
      </trkpt>
      <trkpt lat="48.55501" lon="-3.43878">
        <ele>192.2</ele>
        <time>2020-06-10T15:52:21Z</time>
      </trkpt>
      <trkpt lat="48.55499" lon="-3.4387">
        <ele>192.1</ele>
        <time>2020-06-10T15:52:22Z</time>
      </trkpt>
      <trkpt lat="48.55498" lon="-3.43863">
        <ele>191.9</ele>
        <time>2020-06-10T15:52:23Z</time>
      </trkpt>
      <trkpt lat="48.55496" lon="-3.43855">
        <ele>191.7</ele>
        <time>2020-06-10T15:52:24Z</time>
      </trkpt>
      <trkpt lat="48.55494" lon="-3.43849">
        <ele>191.6</ele>
        <time>2020-06-10T15:52:25Z</time>
      </trkpt>
      <trkpt lat="48.55493" lon="-3.43843">
        <ele>191.4</ele>
        <time>2020-06-10T15:52:26Z</time>
      </trkpt>
      <trkpt lat="48.55491" lon="-3.43839">
        <ele>191.3</ele>
        <time>2020-06-10T15:52:27Z</time>
      </trkpt>
      <trkpt lat="48.55489" lon="-3.43834">
        <ele>191.2</ele>
        <time>2020-06-10T15:52:28Z</time>
      </trkpt>
      <trkpt lat="48.55488" lon="-3.43829">
        <ele>191.1</ele>
        <time>2020-06-10T15:52:29Z</time>
      </trkpt>
      <trkpt lat="48.55487" lon="-3.43824">
        <ele>191</ele>
        <time>2020-06-10T15:52:30Z</time>
      </trkpt>
      <trkpt lat="48.55486" lon="-3.4382">
        <ele>190.9</ele>
        <time>2020-06-10T15:52:31Z</time>
      </trkpt>
      <trkpt lat="48.55487" lon="-3.43817">
        <ele>190.9</ele>
        <time>2020-06-10T15:52:32Z</time>
      </trkpt>
      <trkpt lat="48.55486" lon="-3.43816">
        <ele>190.8</ele>
        <time>2020-06-10T15:52:33Z</time>
      </trkpt>
      <trkpt lat="48.55487" lon="-3.43816">
        <ele>190.8</ele>
        <time>2020-06-10T15:52:34Z</time>
      </trkpt>
      <trkpt lat="48.55486" lon="-3.43815">
        <ele>190.8</ele>
        <time>2020-06-10T15:52:35Z</time>
      </trkpt>
      <trkpt lat="48.55486" lon="-3.43814">
        <ele>190.8</ele>
        <time>2020-06-10T15:52:36Z</time>
      </trkpt>
      <trkpt lat="48.55486" lon="-3.43813">
        <ele>190.8</ele>
        <time>2020-06-10T15:52:37Z</time>
      </trkpt>
      <trkpt lat="48.55485" lon="-3.43813">
        <ele>190.7</ele>
        <time>2020-06-10T15:52:38Z</time>
      </trkpt>
      <trkpt lat="48.55485" lon="-3.43812">
        <ele>190.7</ele>
        <time>2020-06-10T15:52:39Z</time>
      </trkpt>
      <trkpt lat="48.55484" lon="-3.43811">
        <ele>190.7</ele>
        <time>2020-06-10T15:52:40Z</time>
      </trkpt>
      <trkpt lat="48.55484" lon="-3.4381">
        <ele>190.7</ele>
        <time>2020-06-10T15:52:41Z</time>
      </trkpt>
      <trkpt lat="48.55483" lon="-3.43809">
        <ele>190.7</ele>
        <time>2020-06-10T15:52:42Z</time>
      </trkpt>
      <trkpt lat="48.55483" lon="-3.43808">
        <ele>190.6</ele>
        <time>2020-06-10T15:52:43Z</time>
      </trkpt>
      <trkpt lat="48.55482" lon="-3.43807">
        <ele>190.6</ele>
        <time>2020-06-10T15:52:44Z</time>
      </trkpt>
      <trkpt lat="48.55482" lon="-3.43807">
        <ele>190.6</ele>
        <time>2020-06-10T15:53:37Z</time>
      </trkpt>
      <trkpt lat="48.55481" lon="-3.43806">
        <ele>190.6</ele>
        <time>2020-06-10T15:53:38Z</time>
      </trkpt>
      <trkpt lat="48.5548" lon="-3.43802">
        <ele>190.5</ele>
        <time>2020-06-10T15:53:39Z</time>
      </trkpt>
      <trkpt lat="48.55479" lon="-3.43798">
        <ele>190.4</ele>
        <time>2020-06-10T15:53:40Z</time>
      </trkpt>
      <trkpt lat="48.55479" lon="-3.43794">
        <ele>190.3</ele>
        <time>2020-06-10T15:53:41Z</time>
      </trkpt>
      <trkpt lat="48.55478" lon="-3.4379">
        <ele>190.3</ele>
        <time>2020-06-10T15:53:42Z</time>
      </trkpt>
      <trkpt lat="48.55477" lon="-3.43786">
        <ele>190.2</ele>
        <time>2020-06-10T15:53:43Z</time>
      </trkpt>
      <trkpt lat="48.55476" lon="-3.43781">
        <ele>190.1</ele>
        <time>2020-06-10T15:53:44Z</time>
      </trkpt>
      <trkpt lat="48.55476" lon="-3.43776">
        <ele>190</ele>
        <time>2020-06-10T15:53:45Z</time>
      </trkpt>
      <trkpt lat="48.55475" lon="-3.43771">
        <ele>189.9</ele>
        <time>2020-06-10T15:53:46Z</time>
      </trkpt>
      <trkpt lat="48.55475" lon="-3.43765">
        <ele>189.8</ele>
        <time>2020-06-10T15:53:47Z</time>
      </trkpt>
      <trkpt lat="48.55474" lon="-3.43759">
        <ele>189.7</ele>
        <time>2020-06-10T15:53:48Z</time>
      </trkpt>
      <trkpt lat="48.55474" lon="-3.43754">
        <ele>189.6</ele>
        <time>2020-06-10T15:53:49Z</time>
      </trkpt>
      <trkpt lat="48.55473" lon="-3.43748">
        <ele>189.4</ele>
        <time>2020-06-10T15:53:50Z</time>
      </trkpt>
      <trkpt lat="48.55473" lon="-3.43743">
        <ele>189.3</ele>
        <time>2020-06-10T15:53:51Z</time>
      </trkpt>
      <trkpt lat="48.55472" lon="-3.43738">
        <ele>189.2</ele>
        <time>2020-06-10T15:53:52Z</time>
      </trkpt>
      <trkpt lat="48.55472" lon="-3.43732">
        <ele>189.1</ele>
        <time>2020-06-10T15:53:53Z</time>
      </trkpt>
      <trkpt lat="48.55471" lon="-3.43727">
        <ele>189</ele>
        <time>2020-06-10T15:53:54Z</time>
      </trkpt>
      <trkpt lat="48.55471" lon="-3.43721">
        <ele>188.8</ele>
        <time>2020-06-10T15:53:55Z</time>
      </trkpt>
      <trkpt lat="48.5547" lon="-3.43715">
        <ele>188.7</ele>
        <time>2020-06-10T15:53:56Z</time>
      </trkpt>
      <trkpt lat="48.5547" lon="-3.43709">
        <ele>188.5</ele>
        <time>2020-06-10T15:53:57Z</time>
      </trkpt>
      <trkpt lat="48.55469" lon="-3.43703">
        <ele>188.4</ele>
        <time>2020-06-10T15:53:58Z</time>
      </trkpt>
      <trkpt lat="48.55467" lon="-3.43698">
        <ele>188.2</ele>
        <time>2020-06-10T15:53:59Z</time>
      </trkpt>
      <trkpt lat="48.55466" lon="-3.43692">
        <ele>188.1</ele>
        <time>2020-06-10T15:54:00Z</time>
      </trkpt>
      <trkpt lat="48.55464" lon="-3.43686">
        <ele>187.9</ele>
        <time>2020-06-10T15:54:01Z</time>
      </trkpt>
      <trkpt lat="48.55462" lon="-3.43681">
        <ele>187.8</ele>
        <time>2020-06-10T15:54:02Z</time>
      </trkpt>
      <trkpt lat="48.55461" lon="-3.43676">
        <ele>187.7</ele>
        <time>2020-06-10T15:54:03Z</time>
      </trkpt>
      <trkpt lat="48.55461" lon="-3.43671">
        <ele>187.5</ele>
        <time>2020-06-10T15:54:04Z</time>
      </trkpt>
      <trkpt lat="48.55461" lon="-3.43665">
        <ele>187.4</ele>
        <time>2020-06-10T15:54:05Z</time>
      </trkpt>
      <trkpt lat="48.5546" lon="-3.4366">
        <ele>187.3</ele>
        <time>2020-06-10T15:54:06Z</time>
      </trkpt>
      <trkpt lat="48.5546" lon="-3.43655">
        <ele>187.1</ele>
        <time>2020-06-10T15:54:07Z</time>
      </trkpt>
      <trkpt lat="48.5546" lon="-3.4365">
        <ele>187</ele>
        <time>2020-06-10T15:54:08Z</time>
      </trkpt>
      <trkpt lat="48.55461" lon="-3.43646">
        <ele>186.9</ele>
        <time>2020-06-10T15:54:09Z</time>
      </trkpt>
      <trkpt lat="48.5546" lon="-3.43641">
        <ele>186.8</ele>
        <time>2020-06-10T15:54:10Z</time>
      </trkpt>
      <trkpt lat="48.55459" lon="-3.43637">
        <ele>186.6</ele>
        <time>2020-06-10T15:54:11Z</time>
      </trkpt>
      <trkpt lat="48.55458" lon="-3.43631">
        <ele>186.5</ele>
        <time>2020-06-10T15:54:12Z</time>
      </trkpt>
      <trkpt lat="48.55458" lon="-3.43625">
        <ele>186.3</ele>
        <time>2020-06-10T15:54:13Z</time>
      </trkpt>
      <trkpt lat="48.55457" lon="-3.43618">
        <ele>186.1</ele>
        <time>2020-06-10T15:54:14Z</time>
      </trkpt>
      <trkpt lat="48.55456" lon="-3.43611">
        <ele>185.9</ele>
        <time>2020-06-10T15:54:15Z</time>
      </trkpt>
      <trkpt lat="48.55455" lon="-3.43603">
        <ele>185.7</ele>
        <time>2020-06-10T15:54:16Z</time>
      </trkpt>
      <trkpt lat="48.55454" lon="-3.43595">
        <ele>185.5</ele>
        <time>2020-06-10T15:54:17Z</time>
      </trkpt>
      <trkpt lat="48.55452" lon="-3.43587">
        <ele>185.2</ele>
        <time>2020-06-10T15:54:18Z</time>
      </trkpt>
      <trkpt lat="48.5545" lon="-3.43579">
        <ele>185</ele>
        <time>2020-06-10T15:54:19Z</time>
      </trkpt>
      <trkpt lat="48.55448" lon="-3.43571">
        <ele>184.8</ele>
        <time>2020-06-10T15:54:20Z</time>
      </trkpt>
      <trkpt lat="48.55447" lon="-3.43562">
        <ele>184.6</ele>
        <time>2020-06-10T15:54:21Z</time>
      </trkpt>
      <trkpt lat="48.55445" lon="-3.43553">
        <ele>184.4</ele>
        <time>2020-06-10T15:54:22Z</time>
      </trkpt>
      <trkpt lat="48.55444" lon="-3.43544">
        <ele>184.3</ele>
        <time>2020-06-10T15:54:23Z</time>
      </trkpt>
      <trkpt lat="48.55442" lon="-3.43536">
        <ele>184.2</ele>
        <time>2020-06-10T15:54:24Z</time>
      </trkpt>
      <trkpt lat="48.55441" lon="-3.43527">
        <ele>184.1</ele>
        <time>2020-06-10T15:54:25Z</time>
      </trkpt>
      <trkpt lat="48.55438" lon="-3.4352">
        <ele>184</ele>
        <time>2020-06-10T15:54:26Z</time>
      </trkpt>
      <trkpt lat="48.55437" lon="-3.43512">
        <ele>183.9</ele>
        <time>2020-06-10T15:54:27Z</time>
      </trkpt>
      <trkpt lat="48.55436" lon="-3.43504">
        <ele>183.8</ele>
        <time>2020-06-10T15:54:28Z</time>
      </trkpt>
      <trkpt lat="48.55434" lon="-3.43496">
        <ele>183.7</ele>
        <time>2020-06-10T15:54:29Z</time>
      </trkpt>
      <trkpt lat="48.55432" lon="-3.43488">
        <ele>183.6</ele>
        <time>2020-06-10T15:54:30Z</time>
      </trkpt>
      <trkpt lat="48.5543" lon="-3.4348">
        <ele>183.5</ele>
        <time>2020-06-10T15:54:31Z</time>
      </trkpt>
      <trkpt lat="48.55428" lon="-3.43472">
        <ele>183.3</ele>
        <time>2020-06-10T15:54:32Z</time>
      </trkpt>
      <trkpt lat="48.55427" lon="-3.43464">
        <ele>183.2</ele>
        <time>2020-06-10T15:54:33Z</time>
      </trkpt>
      <trkpt lat="48.55425" lon="-3.43456">
        <ele>183.1</ele>
        <time>2020-06-10T15:54:34Z</time>
      </trkpt>
      <trkpt lat="48.55423" lon="-3.43448">
        <ele>183</ele>
        <time>2020-06-10T15:54:35Z</time>
      </trkpt>
      <trkpt lat="48.55422" lon="-3.4344">
        <ele>182.9</ele>
        <time>2020-06-10T15:54:36Z</time>
      </trkpt>
      <trkpt lat="48.55421" lon="-3.43432">
        <ele>182.8</ele>
        <time>2020-06-10T15:54:37Z</time>
      </trkpt>
      <trkpt lat="48.55419" lon="-3.43424">
        <ele>182.7</ele>
        <time>2020-06-10T15:54:38Z</time>
      </trkpt>
      <trkpt lat="48.55417" lon="-3.43415">
        <ele>182.6</ele>
        <time>2020-06-10T15:54:39Z</time>
      </trkpt>
      <trkpt lat="48.55415" lon="-3.43407">
        <ele>182.5</ele>
        <time>2020-06-10T15:54:40Z</time>
      </trkpt>
      <trkpt lat="48.55414" lon="-3.43398">
        <ele>182.4</ele>
        <time>2020-06-10T15:54:41Z</time>
      </trkpt>
      <trkpt lat="48.55413" lon="-3.43389">
        <ele>182.3</ele>
        <time>2020-06-10T15:54:42Z</time>
      </trkpt>
      <trkpt lat="48.55411" lon="-3.4338">
        <ele>182.1</ele>
        <time>2020-06-10T15:54:43Z</time>
      </trkpt>
      <trkpt lat="48.5541" lon="-3.43371">
        <ele>182</ele>
        <time>2020-06-10T15:54:44Z</time>
      </trkpt>
      <trkpt lat="48.55409" lon="-3.43363">
        <ele>181.9</ele>
        <time>2020-06-10T15:54:45Z</time>
      </trkpt>
      <trkpt lat="48.55407" lon="-3.43355">
        <ele>181.7</ele>
        <time>2020-06-10T15:54:46Z</time>
      </trkpt>
      <trkpt lat="48.55405" lon="-3.43348">
        <ele>181.7</ele>
        <time>2020-06-10T15:54:47Z</time>
      </trkpt>
      <trkpt lat="48.55404" lon="-3.4334">
        <ele>181.5</ele>
        <time>2020-06-10T15:54:48Z</time>
      </trkpt>
      <trkpt lat="48.55403" lon="-3.43332">
        <ele>181.4</ele>
        <time>2020-06-10T15:54:49Z</time>
      </trkpt>
      <trkpt lat="48.55402" lon="-3.43324">
        <ele>181.4</ele>
        <time>2020-06-10T15:54:50Z</time>
      </trkpt>
      <trkpt lat="48.554" lon="-3.43316">
        <ele>181.3</ele>
        <time>2020-06-10T15:54:51Z</time>
      </trkpt>
      <trkpt lat="48.55398" lon="-3.43308">
        <ele>181.3</ele>
        <time>2020-06-10T15:54:52Z</time>
      </trkpt>
      <trkpt lat="48.55396" lon="-3.433">
        <ele>181.2</ele>
        <time>2020-06-10T15:54:53Z</time>
      </trkpt>
      <trkpt lat="48.55395" lon="-3.43292">
        <ele>181.1</ele>
        <time>2020-06-10T15:54:54Z</time>
      </trkpt>
      <trkpt lat="48.55393" lon="-3.43284">
        <ele>180.9</ele>
        <time>2020-06-10T15:54:55Z</time>
      </trkpt>
      <trkpt lat="48.55391" lon="-3.43276">
        <ele>180.8</ele>
        <time>2020-06-10T15:54:56Z</time>
      </trkpt>
      <trkpt lat="48.5539" lon="-3.43268">
        <ele>180.6</ele>
        <time>2020-06-10T15:54:57Z</time>
      </trkpt>
      <trkpt lat="48.55389" lon="-3.4326">
        <ele>180.5</ele>
        <time>2020-06-10T15:54:58Z</time>
      </trkpt>
      <trkpt lat="48.55387" lon="-3.43252">
        <ele>180.3</ele>
        <time>2020-06-10T15:54:59Z</time>
      </trkpt>
      <trkpt lat="48.55386" lon="-3.43243">
        <ele>180.1</ele>
        <time>2020-06-10T15:55:00Z</time>
      </trkpt>
      <trkpt lat="48.55384" lon="-3.43235">
        <ele>179.8</ele>
        <time>2020-06-10T15:55:01Z</time>
      </trkpt>
      <trkpt lat="48.55383" lon="-3.43226">
        <ele>179.6</ele>
        <time>2020-06-10T15:55:02Z</time>
      </trkpt>
      <trkpt lat="48.55382" lon="-3.43218">
        <ele>179.3</ele>
        <time>2020-06-10T15:55:03Z</time>
      </trkpt>
      <trkpt lat="48.55381" lon="-3.4321">
        <ele>179.1</ele>
        <time>2020-06-10T15:55:04Z</time>
      </trkpt>
      <trkpt lat="48.55379" lon="-3.43201">
        <ele>178.8</ele>
        <time>2020-06-10T15:55:05Z</time>
      </trkpt>
      <trkpt lat="48.55378" lon="-3.43192">
        <ele>178.5</ele>
        <time>2020-06-10T15:55:06Z</time>
      </trkpt>
      <trkpt lat="48.55376" lon="-3.43182">
        <ele>178.3</ele>
        <time>2020-06-10T15:55:07Z</time>
      </trkpt>
      <trkpt lat="48.55374" lon="-3.43172">
        <ele>177.9</ele>
        <time>2020-06-10T15:55:08Z</time>
      </trkpt>
      <trkpt lat="48.55373" lon="-3.43162">
        <ele>177.5</ele>
        <time>2020-06-10T15:55:09Z</time>
      </trkpt>
      <trkpt lat="48.55371" lon="-3.43151">
        <ele>177.1</ele>
        <time>2020-06-10T15:55:10Z</time>
      </trkpt>
      <trkpt lat="48.55369" lon="-3.43139">
        <ele>176.7</ele>
        <time>2020-06-10T15:55:11Z</time>
      </trkpt>
      <trkpt lat="48.55367" lon="-3.43126">
        <ele>176.2</ele>
        <time>2020-06-10T15:55:12Z</time>
      </trkpt>
      <trkpt lat="48.55364" lon="-3.43113">
        <ele>175.8</ele>
        <time>2020-06-10T15:55:13Z</time>
      </trkpt>
      <trkpt lat="48.55362" lon="-3.43101">
        <ele>175.4</ele>
        <time>2020-06-10T15:55:14Z</time>
      </trkpt>
      <trkpt lat="48.55359" lon="-3.43088">
        <ele>175.1</ele>
        <time>2020-06-10T15:55:15Z</time>
      </trkpt>
      <trkpt lat="48.55357" lon="-3.43075">
        <ele>174.8</ele>
        <time>2020-06-10T15:55:16Z</time>
      </trkpt>
      <trkpt lat="48.55354" lon="-3.43063">
        <ele>174.4</ele>
        <time>2020-06-10T15:55:17Z</time>
      </trkpt>
      <trkpt lat="48.55352" lon="-3.4305">
        <ele>174.1</ele>
        <time>2020-06-10T15:55:18Z</time>
      </trkpt>
      <trkpt lat="48.5535" lon="-3.43037">
        <ele>173.9</ele>
        <time>2020-06-10T15:55:19Z</time>
      </trkpt>
      <trkpt lat="48.55348" lon="-3.43025">
        <ele>173.6</ele>
        <time>2020-06-10T15:55:20Z</time>
      </trkpt>
      <trkpt lat="48.55346" lon="-3.43012">
        <ele>173.4</ele>
        <time>2020-06-10T15:55:21Z</time>
      </trkpt>
      <trkpt lat="48.55344" lon="-3.43001">
        <ele>173.2</ele>
        <time>2020-06-10T15:55:22Z</time>
      </trkpt>
      <trkpt lat="48.55342" lon="-3.42989">
        <ele>173</ele>
        <time>2020-06-10T15:55:23Z</time>
      </trkpt>
      <trkpt lat="48.5534" lon="-3.42977">
        <ele>172.7</ele>
        <time>2020-06-10T15:55:24Z</time>
      </trkpt>
      <trkpt lat="48.55338" lon="-3.42968">
        <ele>172.5</ele>
        <time>2020-06-10T15:55:25Z</time>
      </trkpt>
      <trkpt lat="48.55337" lon="-3.42959">
        <ele>172.4</ele>
        <time>2020-06-10T15:55:26Z</time>
      </trkpt>
      <trkpt lat="48.55335" lon="-3.42951">
        <ele>172.1</ele>
        <time>2020-06-10T15:55:27Z</time>
      </trkpt>
      <trkpt lat="48.55333" lon="-3.42943">
        <ele>172</ele>
        <time>2020-06-10T15:55:28Z</time>
      </trkpt>
      <trkpt lat="48.55332" lon="-3.42935">
        <ele>171.8</ele>
        <time>2020-06-10T15:55:29Z</time>
      </trkpt>
      <trkpt lat="48.5533" lon="-3.42928">
        <ele>171.7</ele>
        <time>2020-06-10T15:55:30Z</time>
      </trkpt>
      <trkpt lat="48.55329" lon="-3.42922">
        <ele>171.5</ele>
        <time>2020-06-10T15:55:31Z</time>
      </trkpt>
      <trkpt lat="48.55327" lon="-3.42916">
        <ele>171.4</ele>
        <time>2020-06-10T15:55:32Z</time>
      </trkpt>
      <trkpt lat="48.55326" lon="-3.42909">
        <ele>171.3</ele>
        <time>2020-06-10T15:55:33Z</time>
      </trkpt>
      <trkpt lat="48.55325" lon="-3.42903">
        <ele>171.1</ele>
        <time>2020-06-10T15:55:34Z</time>
      </trkpt>
      <trkpt lat="48.55324" lon="-3.42897">
        <ele>171</ele>
        <time>2020-06-10T15:55:35Z</time>
      </trkpt>
      <trkpt lat="48.55324" lon="-3.42891">
        <ele>170.9</ele>
        <time>2020-06-10T15:55:36Z</time>
      </trkpt>
      <trkpt lat="48.55323" lon="-3.42886">
        <ele>170.8</ele>
        <time>2020-06-10T15:55:37Z</time>
      </trkpt>
      <trkpt lat="48.55323" lon="-3.42881">
        <ele>170.7</ele>
        <time>2020-06-10T15:55:38Z</time>
      </trkpt>
      <trkpt lat="48.55322" lon="-3.42876">
        <ele>170.6</ele>
        <time>2020-06-10T15:55:39Z</time>
      </trkpt>
      <trkpt lat="48.55321" lon="-3.4287">
        <ele>170.5</ele>
        <time>2020-06-10T15:55:40Z</time>
      </trkpt>
      <trkpt lat="48.55321" lon="-3.42863">
        <ele>170.3</ele>
        <time>2020-06-10T15:55:41Z</time>
      </trkpt>
      <trkpt lat="48.5532" lon="-3.42856">
        <ele>170.2</ele>
        <time>2020-06-10T15:55:42Z</time>
      </trkpt>
      <trkpt lat="48.55319" lon="-3.42848">
        <ele>170</ele>
        <time>2020-06-10T15:55:43Z</time>
      </trkpt>
      <trkpt lat="48.55318" lon="-3.42841">
        <ele>169.9</ele>
        <time>2020-06-10T15:55:44Z</time>
      </trkpt>
      <trkpt lat="48.55317" lon="-3.42834">
        <ele>169.7</ele>
        <time>2020-06-10T15:55:45Z</time>
      </trkpt>
      <trkpt lat="48.55316" lon="-3.42827">
        <ele>169.6</ele>
        <time>2020-06-10T15:55:46Z</time>
      </trkpt>
      <trkpt lat="48.55314" lon="-3.4282">
        <ele>169.5</ele>
        <time>2020-06-10T15:55:47Z</time>
      </trkpt>
      <trkpt lat="48.55312" lon="-3.42813">
        <ele>169.3</ele>
        <time>2020-06-10T15:55:48Z</time>
      </trkpt>
      <trkpt lat="48.55311" lon="-3.42805">
        <ele>169.2</ele>
        <time>2020-06-10T15:55:49Z</time>
      </trkpt>
      <trkpt lat="48.55309" lon="-3.42797">
        <ele>169</ele>
        <time>2020-06-10T15:55:50Z</time>
      </trkpt>
      <trkpt lat="48.55308" lon="-3.42789">
        <ele>168.8</ele>
        <time>2020-06-10T15:55:51Z</time>
      </trkpt>
      <trkpt lat="48.55306" lon="-3.42782">
        <ele>168.7</ele>
        <time>2020-06-10T15:55:52Z</time>
      </trkpt>
      <trkpt lat="48.55304" lon="-3.42774">
        <ele>168.5</ele>
        <time>2020-06-10T15:55:53Z</time>
      </trkpt>
      <trkpt lat="48.55303" lon="-3.42766">
        <ele>168.3</ele>
        <time>2020-06-10T15:55:54Z</time>
      </trkpt>
      <trkpt lat="48.55301" lon="-3.42759">
        <ele>168.2</ele>
        <time>2020-06-10T15:55:55Z</time>
      </trkpt>
      <trkpt lat="48.55299" lon="-3.42751">
        <ele>168</ele>
        <time>2020-06-10T15:55:56Z</time>
      </trkpt>
      <trkpt lat="48.55298" lon="-3.42744">
        <ele>167.9</ele>
        <time>2020-06-10T15:55:57Z</time>
      </trkpt>
      <trkpt lat="48.55297" lon="-3.42737">
        <ele>167.7</ele>
        <time>2020-06-10T15:55:58Z</time>
      </trkpt>
      <trkpt lat="48.55296" lon="-3.4273">
        <ele>167.6</ele>
        <time>2020-06-10T15:55:59Z</time>
      </trkpt>
      <trkpt lat="48.55295" lon="-3.42724">
        <ele>167.5</ele>
        <time>2020-06-10T15:56:00Z</time>
      </trkpt>
      <trkpt lat="48.55294" lon="-3.42718">
        <ele>167.3</ele>
        <time>2020-06-10T15:56:01Z</time>
      </trkpt>
      <trkpt lat="48.55292" lon="-3.42712">
        <ele>167.2</ele>
        <time>2020-06-10T15:56:02Z</time>
      </trkpt>
      <trkpt lat="48.55291" lon="-3.42707">
        <ele>167.1</ele>
        <time>2020-06-10T15:56:03Z</time>
      </trkpt>
      <trkpt lat="48.55291" lon="-3.42702">
        <ele>167</ele>
        <time>2020-06-10T15:56:04Z</time>
      </trkpt>
      <trkpt lat="48.5529" lon="-3.42697">
        <ele>166.9</ele>
        <time>2020-06-10T15:56:05Z</time>
      </trkpt>
      <trkpt lat="48.55289" lon="-3.42692">
        <ele>166.8</ele>
        <time>2020-06-10T15:56:06Z</time>
      </trkpt>
      <trkpt lat="48.55288" lon="-3.42687">
        <ele>166.7</ele>
        <time>2020-06-10T15:56:07Z</time>
      </trkpt>
      <trkpt lat="48.55286" lon="-3.42682">
        <ele>166.6</ele>
        <time>2020-06-10T15:56:08Z</time>
      </trkpt>
      <trkpt lat="48.55285" lon="-3.42677">
        <ele>166.5</ele>
        <time>2020-06-10T15:56:09Z</time>
      </trkpt>
      <trkpt lat="48.55284" lon="-3.42672">
        <ele>166.4</ele>
        <time>2020-06-10T15:56:10Z</time>
      </trkpt>
      <trkpt lat="48.55282" lon="-3.42667">
        <ele>166.3</ele>
        <time>2020-06-10T15:56:11Z</time>
      </trkpt>
      <trkpt lat="48.55281" lon="-3.42662">
        <ele>166.2</ele>
        <time>2020-06-10T15:56:12Z</time>
      </trkpt>
      <trkpt lat="48.55281" lon="-3.42657">
        <ele>166.1</ele>
        <time>2020-06-10T15:56:13Z</time>
      </trkpt>
      <trkpt lat="48.5528" lon="-3.42655">
        <ele>166</ele>
        <time>2020-06-10T15:56:14Z</time>
      </trkpt>
      <trkpt lat="48.55279" lon="-3.42651">
        <ele>165.9</ele>
        <time>2020-06-10T15:56:15Z</time>
      </trkpt>
      <trkpt lat="48.55278" lon="-3.42646">
        <ele>165.8</ele>
        <time>2020-06-10T15:56:16Z</time>
      </trkpt>
      <trkpt lat="48.55276" lon="-3.42642">
        <ele>165.7</ele>
        <time>2020-06-10T15:56:17Z</time>
      </trkpt>
      <trkpt lat="48.55276" lon="-3.42636">
        <ele>165.6</ele>
        <time>2020-06-10T15:56:18Z</time>
      </trkpt>
      <trkpt lat="48.55275" lon="-3.42631">
        <ele>165.5</ele>
        <time>2020-06-10T15:56:19Z</time>
      </trkpt>
      <trkpt lat="48.55274" lon="-3.42625">
        <ele>165.4</ele>
        <time>2020-06-10T15:56:20Z</time>
      </trkpt>
      <trkpt lat="48.55273" lon="-3.4262">
        <ele>165.3</ele>
        <time>2020-06-10T15:56:21Z</time>
      </trkpt>
      <trkpt lat="48.55272" lon="-3.42613">
        <ele>165.2</ele>
        <time>2020-06-10T15:56:22Z</time>
      </trkpt>
      <trkpt lat="48.55271" lon="-3.42607">
        <ele>165</ele>
        <time>2020-06-10T15:56:23Z</time>
      </trkpt>
      <trkpt lat="48.55269" lon="-3.426">
        <ele>164.9</ele>
        <time>2020-06-10T15:56:24Z</time>
      </trkpt>
      <trkpt lat="48.55268" lon="-3.42593">
        <ele>164.7</ele>
        <time>2020-06-10T15:56:25Z</time>
      </trkpt>
      <trkpt lat="48.55268" lon="-3.42585">
        <ele>164.6</ele>
        <time>2020-06-10T15:56:26Z</time>
      </trkpt>
      <trkpt lat="48.55267" lon="-3.42578">
        <ele>164.4</ele>
        <time>2020-06-10T15:56:27Z</time>
      </trkpt>
      <trkpt lat="48.55266" lon="-3.4257">
        <ele>164.3</ele>
        <time>2020-06-10T15:56:28Z</time>
      </trkpt>
      <trkpt lat="48.55265" lon="-3.42562">
        <ele>164.1</ele>
        <time>2020-06-10T15:56:29Z</time>
      </trkpt>
      <trkpt lat="48.55264" lon="-3.42554">
        <ele>164</ele>
        <time>2020-06-10T15:56:30Z</time>
      </trkpt>
      <trkpt lat="48.55263" lon="-3.42546">
        <ele>163.8</ele>
        <time>2020-06-10T15:56:31Z</time>
      </trkpt>
      <trkpt lat="48.55262" lon="-3.42538">
        <ele>163.6</ele>
        <time>2020-06-10T15:56:32Z</time>
      </trkpt>
      <trkpt lat="48.55261" lon="-3.4253">
        <ele>163.5</ele>
        <time>2020-06-10T15:56:33Z</time>
      </trkpt>
      <trkpt lat="48.5526" lon="-3.42521">
        <ele>163.3</ele>
        <time>2020-06-10T15:56:34Z</time>
      </trkpt>
      <trkpt lat="48.55259" lon="-3.42512">
        <ele>163.1</ele>
        <time>2020-06-10T15:56:35Z</time>
      </trkpt>
      <trkpt lat="48.55258" lon="-3.42502">
        <ele>162.9</ele>
        <time>2020-06-10T15:56:36Z</time>
      </trkpt>
      <trkpt lat="48.55256" lon="-3.42493">
        <ele>162.7</ele>
        <time>2020-06-10T15:56:37Z</time>
      </trkpt>
      <trkpt lat="48.55255" lon="-3.42484">
        <ele>162.5</ele>
        <time>2020-06-10T15:56:38Z</time>
      </trkpt>
      <trkpt lat="48.55254" lon="-3.42476">
        <ele>162.4</ele>
        <time>2020-06-10T15:56:39Z</time>
      </trkpt>
      <trkpt lat="48.55252" lon="-3.42468">
        <ele>162.2</ele>
        <time>2020-06-10T15:56:40Z</time>
      </trkpt>
      <trkpt lat="48.55251" lon="-3.42461">
        <ele>162.1</ele>
        <time>2020-06-10T15:56:41Z</time>
      </trkpt>
      <trkpt lat="48.5525" lon="-3.42453">
        <ele>161.9</ele>
        <time>2020-06-10T15:56:42Z</time>
      </trkpt>
      <trkpt lat="48.55249" lon="-3.42446">
        <ele>161.8</ele>
        <time>2020-06-10T15:56:43Z</time>
      </trkpt>
      <trkpt lat="48.55247" lon="-3.42438">
        <ele>161.6</ele>
        <time>2020-06-10T15:56:44Z</time>
      </trkpt>
      <trkpt lat="48.55245" lon="-3.42431">
        <ele>161</ele>
        <time>2020-06-10T15:56:45Z</time>
      </trkpt>
      <trkpt lat="48.55243" lon="-3.42423">
        <ele>160.4</ele>
        <time>2020-06-10T15:56:46Z</time>
      </trkpt>
      <trkpt lat="48.55241" lon="-3.42416">
        <ele>159.8</ele>
        <time>2020-06-10T15:56:47Z</time>
      </trkpt>
      <trkpt lat="48.55239" lon="-3.42407">
        <ele>159.2</ele>
        <time>2020-06-10T15:56:48Z</time>
      </trkpt>
      <trkpt lat="48.55237" lon="-3.42399">
        <ele>158.6</ele>
        <time>2020-06-10T15:56:49Z</time>
      </trkpt>
      <trkpt lat="48.55235" lon="-3.4239">
        <ele>158</ele>
        <time>2020-06-10T15:56:50Z</time>
      </trkpt>
      <trkpt lat="48.55234" lon="-3.42381">
        <ele>157.5</ele>
        <time>2020-06-10T15:56:51Z</time>
      </trkpt>
      <trkpt lat="48.55232" lon="-3.42373">
        <ele>157.1</ele>
        <time>2020-06-10T15:56:52Z</time>
      </trkpt>
      <trkpt lat="48.55231" lon="-3.42365">
        <ele>156.7</ele>
        <time>2020-06-10T15:56:53Z</time>
      </trkpt>
      <trkpt lat="48.5523" lon="-3.42358">
        <ele>156.2</ele>
        <time>2020-06-10T15:56:54Z</time>
      </trkpt>
      <trkpt lat="48.55228" lon="-3.42349">
        <ele>155.8</ele>
        <time>2020-06-10T15:56:55Z</time>
      </trkpt>
      <trkpt lat="48.55227" lon="-3.4234">
        <ele>155.3</ele>
        <time>2020-06-10T15:56:56Z</time>
      </trkpt>
      <trkpt lat="48.55224" lon="-3.42332">
        <ele>154.9</ele>
        <time>2020-06-10T15:56:57Z</time>
      </trkpt>
      <trkpt lat="48.55223" lon="-3.42323">
        <ele>154.6</ele>
        <time>2020-06-10T15:56:58Z</time>
      </trkpt>
      <trkpt lat="48.55221" lon="-3.42314">
        <ele>154.3</ele>
        <time>2020-06-10T15:56:59Z</time>
      </trkpt>
      <trkpt lat="48.55219" lon="-3.42306">
        <ele>154</ele>
        <time>2020-06-10T15:57:00Z</time>
      </trkpt>
      <trkpt lat="48.55217" lon="-3.42298">
        <ele>153.8</ele>
        <time>2020-06-10T15:57:01Z</time>
      </trkpt>
      <trkpt lat="48.55216" lon="-3.4229">
        <ele>153.5</ele>
        <time>2020-06-10T15:57:02Z</time>
      </trkpt>
      <trkpt lat="48.55216" lon="-3.42281">
        <ele>153.2</ele>
        <time>2020-06-10T15:57:03Z</time>
      </trkpt>
      <trkpt lat="48.55216" lon="-3.42272">
        <ele>152.9</ele>
        <time>2020-06-10T15:57:04Z</time>
      </trkpt>
      <trkpt lat="48.55216" lon="-3.42263">
        <ele>152.7</ele>
        <time>2020-06-10T15:57:05Z</time>
      </trkpt>
      <trkpt lat="48.55214" lon="-3.42255">
        <ele>151.5</ele>
        <time>2020-06-10T15:57:06Z</time>
      </trkpt>
      <trkpt lat="48.55214" lon="-3.4225">
        <ele>150.9</ele>
        <time>2020-06-10T15:57:07Z</time>
      </trkpt>
      <trkpt lat="48.55212" lon="-3.42244">
        <ele>150.3</ele>
        <time>2020-06-10T15:57:08Z</time>
      </trkpt>
      <trkpt lat="48.55211" lon="-3.42239">
        <ele>149.7</ele>
        <time>2020-06-10T15:57:09Z</time>
      </trkpt>
      <trkpt lat="48.55209" lon="-3.42233">
        <ele>149.1</ele>
        <time>2020-06-10T15:57:10Z</time>
      </trkpt>
      <trkpt lat="48.55208" lon="-3.42226">
        <ele>148.9</ele>
        <time>2020-06-10T15:57:11Z</time>
      </trkpt>
      <trkpt lat="48.55207" lon="-3.42218">
        <ele>148.7</ele>
        <time>2020-06-10T15:57:12Z</time>
      </trkpt>
      <trkpt lat="48.55204" lon="-3.42211">
        <ele>148.4</ele>
        <time>2020-06-10T15:57:13Z</time>
      </trkpt>
      <trkpt lat="48.55201" lon="-3.42203">
        <ele>148.2</ele>
        <time>2020-06-10T15:57:14Z</time>
      </trkpt>
      <trkpt lat="48.55198" lon="-3.42195">
        <ele>148</ele>
        <time>2020-06-10T15:57:15Z</time>
      </trkpt>
      <trkpt lat="48.55196" lon="-3.42186">
        <ele>147.9</ele>
        <time>2020-06-10T15:57:16Z</time>
      </trkpt>
      <trkpt lat="48.55193" lon="-3.42177">
        <ele>147.7</ele>
        <time>2020-06-10T15:57:17Z</time>
      </trkpt>
      <trkpt lat="48.55191" lon="-3.42167">
        <ele>147.7</ele>
        <time>2020-06-10T15:57:18Z</time>
      </trkpt>
      <trkpt lat="48.55189" lon="-3.42157">
        <ele>147.6</ele>
        <time>2020-06-10T15:57:19Z</time>
      </trkpt>
      <trkpt lat="48.55187" lon="-3.42147">
        <ele>147.6</ele>
        <time>2020-06-10T15:57:20Z</time>
      </trkpt>
      <trkpt lat="48.55184" lon="-3.42138">
        <ele>147.5</ele>
        <time>2020-06-10T15:57:21Z</time>
      </trkpt>
      <trkpt lat="48.55182" lon="-3.42128">
        <ele>147.5</ele>
        <time>2020-06-10T15:57:22Z</time>
      </trkpt>
      <trkpt lat="48.55181" lon="-3.42118">
        <ele>147.6</ele>
        <time>2020-06-10T15:57:23Z</time>
      </trkpt>
      <trkpt lat="48.55179" lon="-3.42108">
        <ele>147.7</ele>
        <time>2020-06-10T15:57:24Z</time>
      </trkpt>
      <trkpt lat="48.55178" lon="-3.42098">
        <ele>147.8</ele>
        <time>2020-06-10T15:57:25Z</time>
      </trkpt>
      <trkpt lat="48.55175" lon="-3.42089">
        <ele>148</ele>
        <time>2020-06-10T15:57:26Z</time>
      </trkpt>
      <trkpt lat="48.55173" lon="-3.42079">
        <ele>148.2</ele>
        <time>2020-06-10T15:57:27Z</time>
      </trkpt>
      <trkpt lat="48.55173" lon="-3.4207">
        <ele>148.5</ele>
        <time>2020-06-10T15:57:28Z</time>
      </trkpt>
      <trkpt lat="48.55172" lon="-3.4206">
        <ele>148.7</ele>
        <time>2020-06-10T15:57:29Z</time>
      </trkpt>
      <trkpt lat="48.5517" lon="-3.4205">
        <ele>149</ele>
        <time>2020-06-10T15:57:30Z</time>
      </trkpt>
      <trkpt lat="48.55168" lon="-3.42041">
        <ele>149.3</ele>
        <time>2020-06-10T15:57:31Z</time>
      </trkpt>
      <trkpt lat="48.55166" lon="-3.42032">
        <ele>149.5</ele>
        <time>2020-06-10T15:57:32Z</time>
      </trkpt>
      <trkpt lat="48.55164" lon="-3.42023">
        <ele>149.7</ele>
        <time>2020-06-10T15:57:33Z</time>
      </trkpt>
      <trkpt lat="48.55163" lon="-3.42014">
        <ele>149.9</ele>
        <time>2020-06-10T15:57:34Z</time>
      </trkpt>
      <trkpt lat="48.55161" lon="-3.42005">
        <ele>150.1</ele>
        <time>2020-06-10T15:57:35Z</time>
      </trkpt>
      <trkpt lat="48.5516" lon="-3.41997">
        <ele>150.3</ele>
        <time>2020-06-10T15:57:36Z</time>
      </trkpt>
      <trkpt lat="48.55158" lon="-3.41988">
        <ele>150.5</ele>
        <time>2020-06-10T15:57:37Z</time>
      </trkpt>
      <trkpt lat="48.55157" lon="-3.41979">
        <ele>150.7</ele>
        <time>2020-06-10T15:57:38Z</time>
      </trkpt>
      <trkpt lat="48.55155" lon="-3.41971">
        <ele>150.8</ele>
        <time>2020-06-10T15:57:39Z</time>
      </trkpt>
      <trkpt lat="48.55154" lon="-3.41963">
        <ele>151</ele>
        <time>2020-06-10T15:57:40Z</time>
      </trkpt>
      <trkpt lat="48.55152" lon="-3.41955">
        <ele>151.2</ele>
        <time>2020-06-10T15:57:41Z</time>
      </trkpt>
      <trkpt lat="48.55151" lon="-3.41946">
        <ele>151.3</ele>
        <time>2020-06-10T15:57:42Z</time>
      </trkpt>
      <trkpt lat="48.55149" lon="-3.41939">
        <ele>151.5</ele>
        <time>2020-06-10T15:57:43Z</time>
      </trkpt>
      <trkpt lat="48.55147" lon="-3.41929">
        <ele>151.8</ele>
        <time>2020-06-10T15:57:44Z</time>
      </trkpt>
      <trkpt lat="48.55145" lon="-3.4192">
        <ele>152</ele>
        <time>2020-06-10T15:57:45Z</time>
      </trkpt>
      <trkpt lat="48.55143" lon="-3.41911">
        <ele>152.2</ele>
        <time>2020-06-10T15:57:46Z</time>
      </trkpt>
      <trkpt lat="48.55141" lon="-3.41903">
        <ele>152.5</ele>
        <time>2020-06-10T15:57:47Z</time>
      </trkpt>
      <trkpt lat="48.5514" lon="-3.41897">
        <ele>152.6</ele>
        <time>2020-06-10T15:57:48Z</time>
      </trkpt>
      <trkpt lat="48.55139" lon="-3.41889">
        <ele>152.8</ele>
        <time>2020-06-10T15:57:49Z</time>
      </trkpt>
      <trkpt lat="48.55137" lon="-3.41882">
        <ele>153.1</ele>
        <time>2020-06-10T15:57:50Z</time>
      </trkpt>
      <trkpt lat="48.55136" lon="-3.41875">
        <ele>153.3</ele>
        <time>2020-06-10T15:57:51Z</time>
      </trkpt>
      <trkpt lat="48.55134" lon="-3.41868">
        <ele>153.4</ele>
        <time>2020-06-10T15:57:52Z</time>
      </trkpt>
      <trkpt lat="48.55132" lon="-3.41858">
        <ele>153.7</ele>
        <time>2020-06-10T15:57:53Z</time>
      </trkpt>
      <trkpt lat="48.55131" lon="-3.41852">
        <ele>153.8</ele>
        <time>2020-06-10T15:57:54Z</time>
      </trkpt>
      <trkpt lat="48.55129" lon="-3.41845">
        <ele>154.1</ele>
        <time>2020-06-10T15:57:55Z</time>
      </trkpt>
      <trkpt lat="48.55127" lon="-3.4184">
        <ele>154.3</ele>
        <time>2020-06-10T15:57:56Z</time>
      </trkpt>
      <trkpt lat="48.55126" lon="-3.41834">
        <ele>154.5</ele>
        <time>2020-06-10T15:57:57Z</time>
      </trkpt>
      <trkpt lat="48.55125" lon="-3.41829">
        <ele>154.7</ele>
        <time>2020-06-10T15:57:58Z</time>
      </trkpt>
      <trkpt lat="48.55124" lon="-3.41824">
        <ele>154.8</ele>
        <time>2020-06-10T15:57:59Z</time>
      </trkpt>
      <trkpt lat="48.55123" lon="-3.41819">
        <ele>154.9</ele>
        <time>2020-06-10T15:58:00Z</time>
      </trkpt>
      <trkpt lat="48.55122" lon="-3.41814">
        <ele>155</ele>
        <time>2020-06-10T15:58:01Z</time>
      </trkpt>
      <trkpt lat="48.55121" lon="-3.41808">
        <ele>155.2</ele>
        <time>2020-06-10T15:58:02Z</time>
      </trkpt>
      <trkpt lat="48.5512" lon="-3.41801">
        <ele>155.4</ele>
        <time>2020-06-10T15:58:03Z</time>
      </trkpt>
      <trkpt lat="48.5512" lon="-3.41794">
        <ele>155.5</ele>
        <time>2020-06-10T15:58:04Z</time>
      </trkpt>
      <trkpt lat="48.5512" lon="-3.41788">
        <ele>155.7</ele>
        <time>2020-06-10T15:58:05Z</time>
      </trkpt>
      <trkpt lat="48.55119" lon="-3.4178">
        <ele>155.9</ele>
        <time>2020-06-10T15:58:06Z</time>
      </trkpt>
      <trkpt lat="48.55118" lon="-3.41776">
        <ele>156</ele>
        <time>2020-06-10T15:58:07Z</time>
      </trkpt>
      <trkpt lat="48.55116" lon="-3.41773">
        <ele>156.1</ele>
        <time>2020-06-10T15:58:08Z</time>
      </trkpt>
      <trkpt lat="48.55115" lon="-3.41766">
        <ele>156.3</ele>
        <time>2020-06-10T15:58:09Z</time>
      </trkpt>
      <trkpt lat="48.55115" lon="-3.4176">
        <ele>156.5</ele>
        <time>2020-06-10T15:58:10Z</time>
      </trkpt>
      <trkpt lat="48.55114" lon="-3.41753">
        <ele>156.7</ele>
        <time>2020-06-10T15:58:11Z</time>
      </trkpt>
      <trkpt lat="48.55112" lon="-3.41748">
        <ele>156.8</ele>
        <time>2020-06-10T15:58:12Z</time>
      </trkpt>
      <trkpt lat="48.55111" lon="-3.41743">
        <ele>156.9</ele>
        <time>2020-06-10T15:58:13Z</time>
      </trkpt>
      <trkpt lat="48.5511" lon="-3.41736">
        <ele>157.1</ele>
        <time>2020-06-10T15:58:14Z</time>
      </trkpt>
      <trkpt lat="48.55109" lon="-3.4173">
        <ele>157.3</ele>
        <time>2020-06-10T15:58:15Z</time>
      </trkpt>
      <trkpt lat="48.55108" lon="-3.41723">
        <ele>157.5</ele>
        <time>2020-06-10T15:58:16Z</time>
      </trkpt>
      <trkpt lat="48.55106" lon="-3.41716">
        <ele>157.6</ele>
        <time>2020-06-10T15:58:17Z</time>
      </trkpt>
      <trkpt lat="48.55106" lon="-3.4171">
        <ele>157.8</ele>
        <time>2020-06-10T15:58:18Z</time>
      </trkpt>
      <trkpt lat="48.55105" lon="-3.41703">
        <ele>158</ele>
        <time>2020-06-10T15:58:19Z</time>
      </trkpt>
      <trkpt lat="48.55104" lon="-3.41698">
        <ele>158.1</ele>
        <time>2020-06-10T15:58:20Z</time>
      </trkpt>
      <trkpt lat="48.55103" lon="-3.41692">
        <ele>158.2</ele>
        <time>2020-06-10T15:58:21Z</time>
      </trkpt>
      <trkpt lat="48.55102" lon="-3.41687">
        <ele>158.3</ele>
        <time>2020-06-10T15:58:22Z</time>
      </trkpt>
      <trkpt lat="48.55101" lon="-3.41681">
        <ele>158.5</ele>
        <time>2020-06-10T15:58:23Z</time>
      </trkpt>
      <trkpt lat="48.551" lon="-3.41675">
        <ele>158.6</ele>
        <time>2020-06-10T15:58:24Z</time>
      </trkpt>
      <trkpt lat="48.55099" lon="-3.4167">
        <ele>158.7</ele>
        <time>2020-06-10T15:58:25Z</time>
      </trkpt>
      <trkpt lat="48.55098" lon="-3.41664">
        <ele>158.8</ele>
        <time>2020-06-10T15:58:26Z</time>
      </trkpt>
      <trkpt lat="48.55097" lon="-3.41658">
        <ele>158.9</ele>
        <time>2020-06-10T15:58:27Z</time>
      </trkpt>
      <trkpt lat="48.55096" lon="-3.41652">
        <ele>158.9</ele>
        <time>2020-06-10T15:58:28Z</time>
      </trkpt>
      <trkpt lat="48.55094" lon="-3.41647">
        <ele>159</ele>
        <time>2020-06-10T15:58:29Z</time>
      </trkpt>
      <trkpt lat="48.55093" lon="-3.41643">
        <ele>159</ele>
        <time>2020-06-10T15:58:30Z</time>
      </trkpt>
      <trkpt lat="48.55092" lon="-3.41637">
        <ele>159</ele>
        <time>2020-06-10T15:58:31Z</time>
      </trkpt>
      <trkpt lat="48.55091" lon="-3.41632">
        <ele>159</ele>
        <time>2020-06-10T15:58:32Z</time>
      </trkpt>
      <trkpt lat="48.5509" lon="-3.41627">
        <ele>159</ele>
        <time>2020-06-10T15:58:33Z</time>
      </trkpt>
      <trkpt lat="48.55089" lon="-3.4162">
        <ele>159</ele>
        <time>2020-06-10T15:58:34Z</time>
      </trkpt>
      <trkpt lat="48.55088" lon="-3.41615">
        <ele>159.1</ele>
        <time>2020-06-10T15:58:35Z</time>
      </trkpt>
      <trkpt lat="48.55087" lon="-3.41609">
        <ele>159.1</ele>
        <time>2020-06-10T15:58:36Z</time>
      </trkpt>
      <trkpt lat="48.55086" lon="-3.41603">
        <ele>159.1</ele>
        <time>2020-06-10T15:58:37Z</time>
      </trkpt>
      <trkpt lat="48.55085" lon="-3.41596">
        <ele>159.1</ele>
        <time>2020-06-10T15:58:38Z</time>
      </trkpt>
      <trkpt lat="48.55084" lon="-3.41593">
        <ele>159.1</ele>
        <time>2020-06-10T15:58:39Z</time>
      </trkpt>
      <trkpt lat="48.55082" lon="-3.41587">
        <ele>159</ele>
        <time>2020-06-10T15:58:40Z</time>
      </trkpt>
      <trkpt lat="48.55081" lon="-3.41581">
        <ele>158.9</ele>
        <time>2020-06-10T15:58:41Z</time>
      </trkpt>
      <trkpt lat="48.5508" lon="-3.41574">
        <ele>158.8</ele>
        <time>2020-06-10T15:58:42Z</time>
      </trkpt>
      <trkpt lat="48.55079" lon="-3.41568">
        <ele>158.6</ele>
        <time>2020-06-10T15:58:43Z</time>
      </trkpt>
      <trkpt lat="48.55077" lon="-3.41563">
        <ele>158.5</ele>
        <time>2020-06-10T15:58:44Z</time>
      </trkpt>
      <trkpt lat="48.55076" lon="-3.41556">
        <ele>158.3</ele>
        <time>2020-06-10T15:58:45Z</time>
      </trkpt>
      <trkpt lat="48.55075" lon="-3.41549">
        <ele>158.2</ele>
        <time>2020-06-10T15:58:46Z</time>
      </trkpt>
      <trkpt lat="48.55073" lon="-3.41542">
        <ele>158.1</ele>
        <time>2020-06-10T15:58:47Z</time>
      </trkpt>
      <trkpt lat="48.55073" lon="-3.41537">
        <ele>158</ele>
        <time>2020-06-10T15:58:48Z</time>
      </trkpt>
      <trkpt lat="48.55071" lon="-3.41532">
        <ele>157.9</ele>
        <time>2020-06-10T15:58:49Z</time>
      </trkpt>
      <trkpt lat="48.5507" lon="-3.41527">
        <ele>157.8</ele>
        <time>2020-06-10T15:58:50Z</time>
      </trkpt>
      <trkpt lat="48.55069" lon="-3.41521">
        <ele>157.6</ele>
        <time>2020-06-10T15:58:51Z</time>
      </trkpt>
      <trkpt lat="48.55068" lon="-3.41513">
        <ele>157.4</ele>
        <time>2020-06-10T15:58:52Z</time>
      </trkpt>
      <trkpt lat="48.55066" lon="-3.41509">
        <ele>157.3</ele>
        <time>2020-06-10T15:58:53Z</time>
      </trkpt>
      <trkpt lat="48.55065" lon="-3.41502">
        <ele>157.1</ele>
        <time>2020-06-10T15:58:54Z</time>
      </trkpt>
      <trkpt lat="48.55065" lon="-3.41494">
        <ele>156.9</ele>
        <time>2020-06-10T15:58:55Z</time>
      </trkpt>
      <trkpt lat="48.55064" lon="-3.41484">
        <ele>156.6</ele>
        <time>2020-06-10T15:58:56Z</time>
      </trkpt>
      <trkpt lat="48.55063" lon="-3.41475">
        <ele>156.3</ele>
        <time>2020-06-10T15:58:57Z</time>
      </trkpt>
      <trkpt lat="48.55061" lon="-3.41466">
        <ele>156</ele>
        <time>2020-06-10T15:58:58Z</time>
      </trkpt>
      <trkpt lat="48.5506" lon="-3.41456">
        <ele>155.7</ele>
        <time>2020-06-10T15:58:59Z</time>
      </trkpt>
      <trkpt lat="48.55059" lon="-3.41449">
        <ele>155.5</ele>
        <time>2020-06-10T15:59:00Z</time>
      </trkpt>
      <trkpt lat="48.55057" lon="-3.41443">
        <ele>155.2</ele>
        <time>2020-06-10T15:59:01Z</time>
      </trkpt>
      <trkpt lat="48.55055" lon="-3.41433">
        <ele>154.8</ele>
        <time>2020-06-10T15:59:02Z</time>
      </trkpt>
      <trkpt lat="48.55054" lon="-3.41423">
        <ele>154.4</ele>
        <time>2020-06-10T15:59:03Z</time>
      </trkpt>
      <trkpt lat="48.55052" lon="-3.41412">
        <ele>154</ele>
        <time>2020-06-10T15:59:04Z</time>
      </trkpt>
      <trkpt lat="48.55051" lon="-3.41402">
        <ele>153.5</ele>
        <time>2020-06-10T15:59:05Z</time>
      </trkpt>
      <trkpt lat="48.55049" lon="-3.41393">
        <ele>153.1</ele>
        <time>2020-06-10T15:59:06Z</time>
      </trkpt>
      <trkpt lat="48.55048" lon="-3.41386">
        <ele>152.8</ele>
        <time>2020-06-10T15:59:07Z</time>
      </trkpt>
      <trkpt lat="48.55047" lon="-3.4138">
        <ele>152.5</ele>
        <time>2020-06-10T15:59:08Z</time>
      </trkpt>
      <trkpt lat="48.55045" lon="-3.41371">
        <ele>152.1</ele>
        <time>2020-06-10T15:59:09Z</time>
      </trkpt>
      <trkpt lat="48.55043" lon="-3.41362">
        <ele>151.7</ele>
        <time>2020-06-10T15:59:10Z</time>
      </trkpt>
      <trkpt lat="48.55041" lon="-3.41351">
        <ele>151.2</ele>
        <time>2020-06-10T15:59:11Z</time>
      </trkpt>
      <trkpt lat="48.55039" lon="-3.41339">
        <ele>150.7</ele>
        <time>2020-06-10T15:59:12Z</time>
      </trkpt>
      <trkpt lat="48.55038" lon="-3.4133">
        <ele>150.3</ele>
        <time>2020-06-10T15:59:13Z</time>
      </trkpt>
      <trkpt lat="48.55036" lon="-3.41318">
        <ele>149.8</ele>
        <time>2020-06-10T15:59:14Z</time>
      </trkpt>
      <trkpt lat="48.55034" lon="-3.41307">
        <ele>149.4</ele>
        <time>2020-06-10T15:59:15Z</time>
      </trkpt>
      <trkpt lat="48.55032" lon="-3.41298">
        <ele>149</ele>
        <time>2020-06-10T15:59:16Z</time>
      </trkpt>
      <trkpt lat="48.5503" lon="-3.41289">
        <ele>148.7</ele>
        <time>2020-06-10T15:59:17Z</time>
      </trkpt>
      <trkpt lat="48.55028" lon="-3.41279">
        <ele>148.3</ele>
        <time>2020-06-10T15:59:18Z</time>
      </trkpt>
      <trkpt lat="48.55026" lon="-3.4127">
        <ele>148</ele>
        <time>2020-06-10T15:59:19Z</time>
      </trkpt>
      <trkpt lat="48.55025" lon="-3.4126">
        <ele>147.6</ele>
        <time>2020-06-10T15:59:20Z</time>
      </trkpt>
      <trkpt lat="48.55022" lon="-3.41251">
        <ele>147.3</ele>
        <time>2020-06-10T15:59:21Z</time>
      </trkpt>
      <trkpt lat="48.55021" lon="-3.41241">
        <ele>146.9</ele>
        <time>2020-06-10T15:59:22Z</time>
      </trkpt>
      <trkpt lat="48.55019" lon="-3.41232">
        <ele>146.7</ele>
        <time>2020-06-10T15:59:23Z</time>
      </trkpt>
      <trkpt lat="48.55018" lon="-3.41222">
        <ele>146.4</ele>
        <time>2020-06-10T15:59:24Z</time>
      </trkpt>
      <trkpt lat="48.55016" lon="-3.41213">
        <ele>146.1</ele>
        <time>2020-06-10T15:59:25Z</time>
      </trkpt>
      <trkpt lat="48.55014" lon="-3.41203">
        <ele>145.8</ele>
        <time>2020-06-10T15:59:26Z</time>
      </trkpt>
      <trkpt lat="48.55013" lon="-3.41194">
        <ele>145.5</ele>
        <time>2020-06-10T15:59:27Z</time>
      </trkpt>
      <trkpt lat="48.55012" lon="-3.41184">
        <ele>145.2</ele>
        <time>2020-06-10T15:59:28Z</time>
      </trkpt>
      <trkpt lat="48.55011" lon="-3.41175">
        <ele>144.9</ele>
        <time>2020-06-10T15:59:29Z</time>
      </trkpt>
      <trkpt lat="48.55011" lon="-3.41166">
        <ele>144.6</ele>
        <time>2020-06-10T15:59:30Z</time>
      </trkpt>
      <trkpt lat="48.5501" lon="-3.41156">
        <ele>144.3</ele>
        <time>2020-06-10T15:59:31Z</time>
      </trkpt>
      <trkpt lat="48.55009" lon="-3.41146">
        <ele>144</ele>
        <time>2020-06-10T15:59:32Z</time>
      </trkpt>
      <trkpt lat="48.55008" lon="-3.41136">
        <ele>143.7</ele>
        <time>2020-06-10T15:59:33Z</time>
      </trkpt>
      <trkpt lat="48.55007" lon="-3.41126">
        <ele>143.3</ele>
        <time>2020-06-10T15:59:34Z</time>
      </trkpt>
      <trkpt lat="48.55007" lon="-3.41116">
        <ele>143</ele>
        <time>2020-06-10T15:59:35Z</time>
      </trkpt>
      <trkpt lat="48.55008" lon="-3.41106">
        <ele>142.7</ele>
        <time>2020-06-10T15:59:36Z</time>
      </trkpt>
      <trkpt lat="48.55009" lon="-3.41095">
        <ele>142.4</ele>
        <time>2020-06-10T15:59:37Z</time>
      </trkpt>
      <trkpt lat="48.5501" lon="-3.41085">
        <ele>142.1</ele>
        <time>2020-06-10T15:59:38Z</time>
      </trkpt>
      <trkpt lat="48.55011" lon="-3.41074">
        <ele>141.8</ele>
        <time>2020-06-10T15:59:39Z</time>
      </trkpt>
      <trkpt lat="48.55012" lon="-3.41063">
        <ele>141.5</ele>
        <time>2020-06-10T15:59:40Z</time>
      </trkpt>
      <trkpt lat="48.55013" lon="-3.41052">
        <ele>141.1</ele>
        <time>2020-06-10T15:59:41Z</time>
      </trkpt>
      <trkpt lat="48.55014" lon="-3.41042">
        <ele>140.8</ele>
        <time>2020-06-10T15:59:42Z</time>
      </trkpt>
      <trkpt lat="48.55016" lon="-3.41031">
        <ele>140.5</ele>
        <time>2020-06-10T15:59:43Z</time>
      </trkpt>
      <trkpt lat="48.55017" lon="-3.4102">
        <ele>140.2</ele>
        <time>2020-06-10T15:59:44Z</time>
      </trkpt>
      <trkpt lat="48.55019" lon="-3.41009">
        <ele>139.9</ele>
        <time>2020-06-10T15:59:45Z</time>
      </trkpt>
      <trkpt lat="48.5502" lon="-3.40998">
        <ele>139.5</ele>
        <time>2020-06-10T15:59:46Z</time>
      </trkpt>
      <trkpt lat="48.55021" lon="-3.40986">
        <ele>139.1</ele>
        <time>2020-06-10T15:59:47Z</time>
      </trkpt>
      <trkpt lat="48.55022" lon="-3.40974">
        <ele>138.8</ele>
        <time>2020-06-10T15:59:48Z</time>
      </trkpt>
      <trkpt lat="48.55024" lon="-3.40962">
        <ele>138.4</ele>
        <time>2020-06-10T15:59:49Z</time>
      </trkpt>
      <trkpt lat="48.55025" lon="-3.4095">
        <ele>138.1</ele>
        <time>2020-06-10T15:59:50Z</time>
      </trkpt>
      <trkpt lat="48.55026" lon="-3.40938">
        <ele>137.8</ele>
        <time>2020-06-10T15:59:51Z</time>
      </trkpt>
      <trkpt lat="48.55027" lon="-3.40925">
        <ele>137.5</ele>
        <time>2020-06-10T15:59:52Z</time>
      </trkpt>
      <trkpt lat="48.55028" lon="-3.40913">
        <ele>137.1</ele>
        <time>2020-06-10T15:59:53Z</time>
      </trkpt>
      <trkpt lat="48.55029" lon="-3.40901">
        <ele>136.8</ele>
        <time>2020-06-10T15:59:54Z</time>
      </trkpt>
      <trkpt lat="48.5503" lon="-3.40888">
        <ele>136.5</ele>
        <time>2020-06-10T15:59:55Z</time>
      </trkpt>
      <trkpt lat="48.5503" lon="-3.40875">
        <ele>136.3</ele>
        <time>2020-06-10T15:59:56Z</time>
      </trkpt>
      <trkpt lat="48.5503" lon="-3.40861">
        <ele>136.1</ele>
        <time>2020-06-10T15:59:57Z</time>
      </trkpt>
      <trkpt lat="48.55029" lon="-3.40848">
        <ele>135.8</ele>
        <time>2020-06-10T15:59:58Z</time>
      </trkpt>
      <trkpt lat="48.55028" lon="-3.40834">
        <ele>135.6</ele>
        <time>2020-06-10T15:59:59Z</time>
      </trkpt>
      <trkpt lat="48.55026" lon="-3.40821">
        <ele>135.4</ele>
        <time>2020-06-10T16:00:00Z</time>
      </trkpt>
      <trkpt lat="48.55025" lon="-3.40808">
        <ele>135.2</ele>
        <time>2020-06-10T16:00:01Z</time>
      </trkpt>
      <trkpt lat="48.55023" lon="-3.40795">
        <ele>134.9</ele>
        <time>2020-06-10T16:00:02Z</time>
      </trkpt>
      <trkpt lat="48.55019" lon="-3.40782">
        <ele>134.7</ele>
        <time>2020-06-10T16:00:03Z</time>
      </trkpt>
      <trkpt lat="48.55016" lon="-3.4077">
        <ele>134.5</ele>
        <time>2020-06-10T16:00:04Z</time>
      </trkpt>
      <trkpt lat="48.55013" lon="-3.40758">
        <ele>134.4</ele>
        <time>2020-06-10T16:00:05Z</time>
      </trkpt>
      <trkpt lat="48.5501" lon="-3.40747">
        <ele>134.2</ele>
        <time>2020-06-10T16:00:06Z</time>
      </trkpt>
      <trkpt lat="48.55006" lon="-3.40736">
        <ele>134.1</ele>
        <time>2020-06-10T16:00:07Z</time>
      </trkpt>
      <trkpt lat="48.55002" lon="-3.40725">
        <ele>133.9</ele>
        <time>2020-06-10T16:00:08Z</time>
      </trkpt>
      <trkpt lat="48.54998" lon="-3.40714">
        <ele>133.6</ele>
        <time>2020-06-10T16:00:09Z</time>
      </trkpt>
      <trkpt lat="48.54993" lon="-3.40703">
        <ele>133.3</ele>
        <time>2020-06-10T16:00:10Z</time>
      </trkpt>
      <trkpt lat="48.54989" lon="-3.40692">
        <ele>133.1</ele>
        <time>2020-06-10T16:00:11Z</time>
      </trkpt>
      <trkpt lat="48.54985" lon="-3.40681">
        <ele>132.6</ele>
        <time>2020-06-10T16:00:12Z</time>
      </trkpt>
      <trkpt lat="48.5498" lon="-3.40671">
        <ele>132.4</ele>
        <time>2020-06-10T16:00:13Z</time>
      </trkpt>
      <trkpt lat="48.54974" lon="-3.40661">
        <ele>132.2</ele>
        <time>2020-06-10T16:00:14Z</time>
      </trkpt>
      <trkpt lat="48.54968" lon="-3.40653">
        <ele>131.9</ele>
        <time>2020-06-10T16:00:15Z</time>
      </trkpt>
      <trkpt lat="48.54961" lon="-3.40646">
        <ele>131.7</ele>
        <time>2020-06-10T16:00:16Z</time>
      </trkpt>
      <trkpt lat="48.54954" lon="-3.40638">
        <ele>131.4</ele>
        <time>2020-06-10T16:00:17Z</time>
      </trkpt>
      <trkpt lat="48.54947" lon="-3.40631">
        <ele>131.1</ele>
        <time>2020-06-10T16:00:18Z</time>
      </trkpt>
      <trkpt lat="48.5494" lon="-3.40623">
        <ele>130.7</ele>
        <time>2020-06-10T16:00:19Z</time>
      </trkpt>
      <trkpt lat="48.54933" lon="-3.40616">
        <ele>130.4</ele>
        <time>2020-06-10T16:00:20Z</time>
      </trkpt>
      <trkpt lat="48.54927" lon="-3.40608">
        <ele>130.1</ele>
        <time>2020-06-10T16:00:21Z</time>
      </trkpt>
      <trkpt lat="48.54921" lon="-3.40602">
        <ele>129.8</ele>
        <time>2020-06-10T16:00:22Z</time>
      </trkpt>
      <trkpt lat="48.54915" lon="-3.40596">
        <ele>129.5</ele>
        <time>2020-06-10T16:00:23Z</time>
      </trkpt>
      <trkpt lat="48.54909" lon="-3.4059">
        <ele>129.4</ele>
        <time>2020-06-10T16:00:24Z</time>
      </trkpt>
      <trkpt lat="48.54904" lon="-3.40585">
        <ele>129.6</ele>
        <time>2020-06-10T16:00:25Z</time>
      </trkpt>
      <trkpt lat="48.54898" lon="-3.4058">
        <ele>129.8</ele>
        <time>2020-06-10T16:00:26Z</time>
      </trkpt>
      <trkpt lat="48.54893" lon="-3.40575">
        <ele>129.8</ele>
        <time>2020-06-10T16:00:27Z</time>
      </trkpt>
      <trkpt lat="48.54888" lon="-3.4057">
        <ele>129.3</ele>
        <time>2020-06-10T16:00:28Z</time>
      </trkpt>
      <trkpt lat="48.54882" lon="-3.40566">
        <ele>128.7</ele>
        <time>2020-06-10T16:00:29Z</time>
      </trkpt>
      <trkpt lat="48.54876" lon="-3.40561">
        <ele>128</ele>
        <time>2020-06-10T16:00:30Z</time>
      </trkpt>
      <trkpt lat="48.54869" lon="-3.40555">
        <ele>127.3</ele>
        <time>2020-06-10T16:00:31Z</time>
      </trkpt>
      <trkpt lat="48.54863" lon="-3.4055">
        <ele>126.5</ele>
        <time>2020-06-10T16:00:32Z</time>
      </trkpt>
      <trkpt lat="48.54856" lon="-3.40544">
        <ele>125.7</ele>
        <time>2020-06-10T16:00:33Z</time>
      </trkpt>
      <trkpt lat="48.54849" lon="-3.40538">
        <ele>124.2</ele>
        <time>2020-06-10T16:00:34Z</time>
      </trkpt>
      <trkpt lat="48.54842" lon="-3.40533">
        <ele>123.7</ele>
        <time>2020-06-10T16:00:35Z</time>
      </trkpt>
      <trkpt lat="48.54836" lon="-3.40528">
        <ele>123.2</ele>
        <time>2020-06-10T16:00:36Z</time>
      </trkpt>
      <trkpt lat="48.5483" lon="-3.40522">
        <ele>122.8</ele>
        <time>2020-06-10T16:00:37Z</time>
      </trkpt>
      <trkpt lat="48.54824" lon="-3.40517">
        <ele>122.3</ele>
        <time>2020-06-10T16:00:38Z</time>
      </trkpt>
      <trkpt lat="48.54818" lon="-3.40512">
        <ele>121.8</ele>
        <time>2020-06-10T16:00:39Z</time>
      </trkpt>
      <trkpt lat="48.54812" lon="-3.40507">
        <ele>121.4</ele>
        <time>2020-06-10T16:00:40Z</time>
      </trkpt>
      <trkpt lat="48.54805" lon="-3.40501">
        <ele>120.9</ele>
        <time>2020-06-10T16:00:41Z</time>
      </trkpt>
      <trkpt lat="48.54799" lon="-3.40495">
        <ele>120.3</ele>
        <time>2020-06-10T16:00:42Z</time>
      </trkpt>
      <trkpt lat="48.54792" lon="-3.40488">
        <ele>119.8</ele>
        <time>2020-06-10T16:00:43Z</time>
      </trkpt>
      <trkpt lat="48.54785" lon="-3.40481">
        <ele>119.2</ele>
        <time>2020-06-10T16:00:44Z</time>
      </trkpt>
      <trkpt lat="48.54778" lon="-3.40473">
        <ele>118.7</ele>
        <time>2020-06-10T16:00:45Z</time>
      </trkpt>
      <trkpt lat="48.5477" lon="-3.40465">
        <ele>118.1</ele>
        <time>2020-06-10T16:00:46Z</time>
      </trkpt>
      <trkpt lat="48.54762" lon="-3.40457">
        <ele>117.6</ele>
        <time>2020-06-10T16:00:47Z</time>
      </trkpt>
      <trkpt lat="48.54755" lon="-3.40449">
        <ele>117</ele>
        <time>2020-06-10T16:00:48Z</time>
      </trkpt>
      <trkpt lat="48.54748" lon="-3.40439">
        <ele>116.5</ele>
        <time>2020-06-10T16:00:49Z</time>
      </trkpt>
      <trkpt lat="48.54741" lon="-3.4043">
        <ele>116</ele>
        <time>2020-06-10T16:00:50Z</time>
      </trkpt>
      <trkpt lat="48.54734" lon="-3.40421">
        <ele>115.5</ele>
        <time>2020-06-10T16:00:51Z</time>
      </trkpt>
      <trkpt lat="48.54727" lon="-3.40411">
        <ele>115</ele>
        <time>2020-06-10T16:00:52Z</time>
      </trkpt>
      <trkpt lat="48.54721" lon="-3.404">
        <ele>114.4</ele>
        <time>2020-06-10T16:00:53Z</time>
      </trkpt>
      <trkpt lat="48.54715" lon="-3.40387">
        <ele>113.9</ele>
        <time>2020-06-10T16:00:54Z</time>
      </trkpt>
      <trkpt lat="48.5471" lon="-3.40374">
        <ele>113.4</ele>
        <time>2020-06-10T16:00:55Z</time>
      </trkpt>
      <trkpt lat="48.54706" lon="-3.4036">
        <ele>113</ele>
        <time>2020-06-10T16:00:56Z</time>
      </trkpt>
      <trkpt lat="48.54702" lon="-3.40347">
        <ele>112.5</ele>
        <time>2020-06-10T16:00:57Z</time>
      </trkpt>
      <trkpt lat="48.54699" lon="-3.40333">
        <ele>112.1</ele>
        <time>2020-06-10T16:00:58Z</time>
      </trkpt>
      <trkpt lat="48.54696" lon="-3.40319">
        <ele>111.6</ele>
        <time>2020-06-10T16:00:59Z</time>
      </trkpt>
      <trkpt lat="48.5469" lon="-3.40307">
        <ele>111.1</ele>
        <time>2020-06-10T16:01:00Z</time>
      </trkpt>
      <trkpt lat="48.54683" lon="-3.40297">
        <ele>110.6</ele>
        <time>2020-06-10T16:01:01Z</time>
      </trkpt>
      <trkpt lat="48.54676" lon="-3.40287">
        <ele>110.1</ele>
        <time>2020-06-10T16:01:02Z</time>
      </trkpt>
      <trkpt lat="48.54668" lon="-3.40278">
        <ele>109.6</ele>
        <time>2020-06-10T16:01:03Z</time>
      </trkpt>
      <trkpt lat="48.5466" lon="-3.40269">
        <ele>109.1</ele>
        <time>2020-06-10T16:01:04Z</time>
      </trkpt>
      <trkpt lat="48.54653" lon="-3.40258">
        <ele>108.6</ele>
        <time>2020-06-10T16:01:05Z</time>
      </trkpt>
      <trkpt lat="48.54649" lon="-3.40246">
        <ele>108.1</ele>
        <time>2020-06-10T16:01:06Z</time>
      </trkpt>
      <trkpt lat="48.54648" lon="-3.40232">
        <ele>107.7</ele>
        <time>2020-06-10T16:01:07Z</time>
      </trkpt>
      <trkpt lat="48.54647" lon="-3.40219">
        <ele>107.2</ele>
        <time>2020-06-10T16:01:08Z</time>
      </trkpt>
      <trkpt lat="48.5465" lon="-3.40206">
        <ele>106.7</ele>
        <time>2020-06-10T16:01:09Z</time>
      </trkpt>
      <trkpt lat="48.54652" lon="-3.40193">
        <ele>106.2</ele>
        <time>2020-06-10T16:01:10Z</time>
      </trkpt>
      <trkpt lat="48.54656" lon="-3.4018">
        <ele>105.7</ele>
        <time>2020-06-10T16:01:11Z</time>
      </trkpt>
      <trkpt lat="48.5466" lon="-3.40167">
        <ele>105.2</ele>
        <time>2020-06-10T16:01:12Z</time>
      </trkpt>
      <trkpt lat="48.54666" lon="-3.40155">
        <ele>104.8</ele>
        <time>2020-06-10T16:01:13Z</time>
      </trkpt>
      <trkpt lat="48.54674" lon="-3.40148">
        <ele>104.3</ele>
        <time>2020-06-10T16:01:14Z</time>
      </trkpt>
      <trkpt lat="48.54683" lon="-3.40139">
        <ele>103.8</ele>
        <time>2020-06-10T16:01:15Z</time>
      </trkpt>
      <trkpt lat="48.5469" lon="-3.40129">
        <ele>103.4</ele>
        <time>2020-06-10T16:01:16Z</time>
      </trkpt>
      <trkpt lat="48.54698" lon="-3.40119">
        <ele>102.9</ele>
        <time>2020-06-10T16:01:17Z</time>
      </trkpt>
      <trkpt lat="48.54703" lon="-3.40107">
        <ele>102.4</ele>
        <time>2020-06-10T16:01:18Z</time>
      </trkpt>
      <trkpt lat="48.54706" lon="-3.40093">
        <ele>101.9</ele>
        <time>2020-06-10T16:01:19Z</time>
      </trkpt>
      <trkpt lat="48.54707" lon="-3.40078">
        <ele>101.4</ele>
        <time>2020-06-10T16:01:20Z</time>
      </trkpt>
      <trkpt lat="48.54707" lon="-3.40064">
        <ele>100.9</ele>
        <time>2020-06-10T16:01:21Z</time>
      </trkpt>
      <trkpt lat="48.54704" lon="-3.4005">
        <ele>100.3</ele>
        <time>2020-06-10T16:01:22Z</time>
      </trkpt>
      <trkpt lat="48.54699" lon="-3.40037">
        <ele>99.9</ele>
        <time>2020-06-10T16:01:23Z</time>
      </trkpt>
      <trkpt lat="48.54694" lon="-3.40024">
        <ele>99.3</ele>
        <time>2020-06-10T16:01:24Z</time>
      </trkpt>
      <trkpt lat="48.54689" lon="-3.40011">
        <ele>99</ele>
        <time>2020-06-10T16:01:25Z</time>
      </trkpt>
      <trkpt lat="48.54683" lon="-3.39999">
        <ele>98.8</ele>
        <time>2020-06-10T16:01:26Z</time>
      </trkpt>
      <trkpt lat="48.54677" lon="-3.39987">
        <ele>98.3</ele>
        <time>2020-06-10T16:01:27Z</time>
      </trkpt>
      <trkpt lat="48.5467" lon="-3.39977">
        <ele>97.7</ele>
        <time>2020-06-10T16:01:28Z</time>
      </trkpt>
      <trkpt lat="48.54663" lon="-3.39968">
        <ele>97.1</ele>
        <time>2020-06-10T16:01:29Z</time>
      </trkpt>
      <trkpt lat="48.54656" lon="-3.3996">
        <ele>96.5</ele>
        <time>2020-06-10T16:01:30Z</time>
      </trkpt>
      <trkpt lat="48.54648" lon="-3.39952">
        <ele>96</ele>
        <time>2020-06-10T16:01:31Z</time>
      </trkpt>
      <trkpt lat="48.5464" lon="-3.39944">
        <ele>95.4</ele>
        <time>2020-06-10T16:01:32Z</time>
      </trkpt>
      <trkpt lat="48.54632" lon="-3.39937">
        <ele>94.8</ele>
        <time>2020-06-10T16:01:33Z</time>
      </trkpt>
      <trkpt lat="48.54624" lon="-3.39931">
        <ele>94.3</ele>
        <time>2020-06-10T16:01:34Z</time>
      </trkpt>
      <trkpt lat="48.54617" lon="-3.39923">
        <ele>93.8</ele>
        <time>2020-06-10T16:01:35Z</time>
      </trkpt>
      <trkpt lat="48.54608" lon="-3.39918">
        <ele>93.3</ele>
        <time>2020-06-10T16:01:36Z</time>
      </trkpt>
      <trkpt lat="48.546" lon="-3.39912">
        <ele>92.8</ele>
        <time>2020-06-10T16:01:37Z</time>
      </trkpt>
      <trkpt lat="48.54592" lon="-3.39905">
        <ele>92.5</ele>
        <time>2020-06-10T16:01:38Z</time>
      </trkpt>
      <trkpt lat="48.54584" lon="-3.39898">
        <ele>92.3</ele>
        <time>2020-06-10T16:01:39Z</time>
      </trkpt>
      <trkpt lat="48.54577" lon="-3.39892">
        <ele>92.2</ele>
        <time>2020-06-10T16:01:40Z</time>
      </trkpt>
      <trkpt lat="48.5457" lon="-3.39886">
        <ele>92</ele>
        <time>2020-06-10T16:01:41Z</time>
      </trkpt>
      <trkpt lat="48.54564" lon="-3.39879">
        <ele>91.8</ele>
        <time>2020-06-10T16:01:42Z</time>
      </trkpt>
      <trkpt lat="48.54558" lon="-3.39872">
        <ele>91.7</ele>
        <time>2020-06-10T16:01:43Z</time>
      </trkpt>
      <trkpt lat="48.54551" lon="-3.39866">
        <ele>91.5</ele>
        <time>2020-06-10T16:01:44Z</time>
      </trkpt>
      <trkpt lat="48.54544" lon="-3.39861">
        <ele>91.5</ele>
        <time>2020-06-10T16:01:45Z</time>
      </trkpt>
      <trkpt lat="48.54538" lon="-3.39855">
        <ele>91.4</ele>
        <time>2020-06-10T16:01:46Z</time>
      </trkpt>
      <trkpt lat="48.54531" lon="-3.39849">
        <ele>91.4</ele>
        <time>2020-06-10T16:01:47Z</time>
      </trkpt>
      <trkpt lat="48.54524" lon="-3.39844">
        <ele>91.4</ele>
        <time>2020-06-10T16:01:48Z</time>
      </trkpt>
      <trkpt lat="48.54518" lon="-3.39839">
        <ele>91.3</ele>
        <time>2020-06-10T16:01:49Z</time>
      </trkpt>
      <trkpt lat="48.54512" lon="-3.39833">
        <ele>91.3</ele>
        <time>2020-06-10T16:01:50Z</time>
      </trkpt>
      <trkpt lat="48.54505" lon="-3.39828">
        <ele>91.2</ele>
        <time>2020-06-10T16:01:51Z</time>
      </trkpt>
      <trkpt lat="48.54499" lon="-3.39823">
        <ele>91.2</ele>
        <time>2020-06-10T16:01:52Z</time>
      </trkpt>
      <trkpt lat="48.54493" lon="-3.39817">
        <ele>91.2</ele>
        <time>2020-06-10T16:01:53Z</time>
      </trkpt>
      <trkpt lat="48.54488" lon="-3.39812">
        <ele>91.1</ele>
        <time>2020-06-10T16:01:54Z</time>
      </trkpt>
      <trkpt lat="48.54482" lon="-3.39807">
        <ele>91.1</ele>
        <time>2020-06-10T16:01:55Z</time>
      </trkpt>
      <trkpt lat="48.54476" lon="-3.39802">
        <ele>91.1</ele>
        <time>2020-06-10T16:01:56Z</time>
      </trkpt>
      <trkpt lat="48.5447" lon="-3.39799">
        <ele>91.1</ele>
        <time>2020-06-10T16:01:57Z</time>
      </trkpt>
      <trkpt lat="48.54464" lon="-3.39794">
        <ele>91.1</ele>
        <time>2020-06-10T16:01:58Z</time>
      </trkpt>
      <trkpt lat="48.54459" lon="-3.3979">
        <ele>91.1</ele>
        <time>2020-06-10T16:01:59Z</time>
      </trkpt>
      <trkpt lat="48.54454" lon="-3.39786">
        <ele>91.2</ele>
        <time>2020-06-10T16:02:00Z</time>
      </trkpt>
      <trkpt lat="48.54448" lon="-3.39782">
        <ele>91.2</ele>
        <time>2020-06-10T16:02:01Z</time>
      </trkpt>
      <trkpt lat="48.54444" lon="-3.39779">
        <ele>91.3</ele>
        <time>2020-06-10T16:02:02Z</time>
      </trkpt>
      <trkpt lat="48.54439" lon="-3.39776">
        <ele>91.4</ele>
        <time>2020-06-10T16:02:03Z</time>
      </trkpt>
      <trkpt lat="48.54435" lon="-3.39774">
        <ele>91.4</ele>
        <time>2020-06-10T16:02:04Z</time>
      </trkpt>
      <trkpt lat="48.54431" lon="-3.39772">
        <ele>91.5</ele>
        <time>2020-06-10T16:02:05Z</time>
      </trkpt>
      <trkpt lat="48.54426" lon="-3.3977">
        <ele>91.6</ele>
        <time>2020-06-10T16:02:06Z</time>
      </trkpt>
      <trkpt lat="48.54422" lon="-3.39769">
        <ele>91.8</ele>
        <time>2020-06-10T16:02:07Z</time>
      </trkpt>
      <trkpt lat="48.54418" lon="-3.39769">
        <ele>91.9</ele>
        <time>2020-06-10T16:02:08Z</time>
      </trkpt>
      <trkpt lat="48.54413" lon="-3.39767">
        <ele>92.1</ele>
        <time>2020-06-10T16:02:09Z</time>
      </trkpt>
      <trkpt lat="48.54408" lon="-3.39766">
        <ele>92.2</ele>
        <time>2020-06-10T16:02:10Z</time>
      </trkpt>
      <trkpt lat="48.54407" lon="-3.3976">
        <ele>92.3</ele>
        <time>2020-06-10T16:02:11Z</time>
      </trkpt>
      <trkpt lat="48.54406" lon="-3.39755">
        <ele>92.5</ele>
        <time>2020-06-10T16:02:12Z</time>
      </trkpt>
      <trkpt lat="48.54406" lon="-3.39749">
        <ele>92.7</ele>
        <time>2020-06-10T16:02:13Z</time>
      </trkpt>
      <trkpt lat="48.54406" lon="-3.39742">
        <ele>92.9</ele>
        <time>2020-06-10T16:02:14Z</time>
      </trkpt>
      <trkpt lat="48.54407" lon="-3.39736">
        <ele>93.1</ele>
        <time>2020-06-10T16:02:15Z</time>
      </trkpt>
      <trkpt lat="48.54408" lon="-3.3973">
        <ele>93.3</ele>
        <time>2020-06-10T16:02:16Z</time>
      </trkpt>
      <trkpt lat="48.54409" lon="-3.39725">
        <ele>93.4</ele>
        <time>2020-06-10T16:02:17Z</time>
      </trkpt>
      <trkpt lat="48.5441" lon="-3.39721">
        <ele>93.4</ele>
        <time>2020-06-10T16:02:18Z</time>
      </trkpt>
      <trkpt lat="48.5441" lon="-3.39716">
        <ele>93.4</ele>
        <time>2020-06-10T16:02:19Z</time>
      </trkpt>
      <trkpt lat="48.54411" lon="-3.39712">
        <ele>93.4</ele>
        <time>2020-06-10T16:02:20Z</time>
      </trkpt>
      <trkpt lat="48.54411" lon="-3.39707">
        <ele>93.4</ele>
        <time>2020-06-10T16:02:21Z</time>
      </trkpt>
      <trkpt lat="48.54412" lon="-3.39701">
        <ele>93.4</ele>
        <time>2020-06-10T16:02:22Z</time>
      </trkpt>
      <trkpt lat="48.54414" lon="-3.39695">
        <ele>93.4</ele>
        <time>2020-06-10T16:02:23Z</time>
      </trkpt>
      <trkpt lat="48.54415" lon="-3.39688">
        <ele>93.4</ele>
        <time>2020-06-10T16:02:24Z</time>
      </trkpt>
      <trkpt lat="48.54415" lon="-3.39681">
        <ele>93.4</ele>
        <time>2020-06-10T16:02:25Z</time>
      </trkpt>
      <trkpt lat="48.54416" lon="-3.39674">
        <ele>93.4</ele>
        <time>2020-06-10T16:02:26Z</time>
      </trkpt>
      <trkpt lat="48.54416" lon="-3.39668">
        <ele>93.4</ele>
        <time>2020-06-10T16:02:27Z</time>
      </trkpt>
      <trkpt lat="48.54416" lon="-3.39663">
        <ele>93.4</ele>
        <time>2020-06-10T16:02:28Z</time>
      </trkpt>
      <trkpt lat="48.54415" lon="-3.39657">
        <ele>93.4</ele>
        <time>2020-06-10T16:02:29Z</time>
      </trkpt>
      <trkpt lat="48.54415" lon="-3.39651">
        <ele>93.4</ele>
        <time>2020-06-10T16:02:30Z</time>
      </trkpt>
      <trkpt lat="48.54416" lon="-3.39645">
        <ele>93.5</ele>
        <time>2020-06-10T16:02:31Z</time>
      </trkpt>
      <trkpt lat="48.54416" lon="-3.3964">
        <ele>93.6</ele>
        <time>2020-06-10T16:02:32Z</time>
      </trkpt>
      <trkpt lat="48.54417" lon="-3.39635">
        <ele>93.7</ele>
        <time>2020-06-10T16:02:33Z</time>
      </trkpt>
      <trkpt lat="48.54418" lon="-3.39631">
        <ele>93.7</ele>
        <time>2020-06-10T16:02:34Z</time>
      </trkpt>
      <trkpt lat="48.54419" lon="-3.39627">
        <ele>93.9</ele>
        <time>2020-06-10T16:02:35Z</time>
      </trkpt>
      <trkpt lat="48.5442" lon="-3.39621">
        <ele>93.9</ele>
        <time>2020-06-10T16:02:36Z</time>
      </trkpt>
      <trkpt lat="48.54421" lon="-3.3962">
        <ele>93.9</ele>
        <time>2020-06-10T16:02:37Z</time>
      </trkpt>
      <trkpt lat="48.54424" lon="-3.39618">
        <ele>93.8</ele>
        <time>2020-06-10T16:02:38Z</time>
      </trkpt>
      <trkpt lat="48.54426" lon="-3.39618">
        <ele>93.8</ele>
        <time>2020-06-10T16:02:39Z</time>
      </trkpt>
      <trkpt lat="48.54429" lon="-3.39617">
        <ele>93.8</ele>
        <time>2020-06-10T16:02:40Z</time>
      </trkpt>
      <trkpt lat="48.54433" lon="-3.39617">
        <ele>93.8</ele>
        <time>2020-06-10T16:02:41Z</time>
      </trkpt>
      <trkpt lat="48.54434" lon="-3.39616">
        <ele>93.8</ele>
        <time>2020-06-10T16:02:42Z</time>
      </trkpt>
      <trkpt lat="48.54437" lon="-3.39616">
        <ele>93.8</ele>
        <time>2020-06-10T16:02:43Z</time>
      </trkpt>
      <trkpt lat="48.5444" lon="-3.39615">
        <ele>93.8</ele>
        <time>2020-06-10T16:02:44Z</time>
      </trkpt>
      <trkpt lat="48.54443" lon="-3.39615">
        <ele>93.8</ele>
        <time>2020-06-10T16:02:45Z</time>
      </trkpt>
      <trkpt lat="48.54445" lon="-3.39614">
        <ele>93.8</ele>
        <time>2020-06-10T16:02:46Z</time>
      </trkpt>
      <trkpt lat="48.54448" lon="-3.39612">
        <ele>93.8</ele>
        <time>2020-06-10T16:02:47Z</time>
      </trkpt>
      <trkpt lat="48.54452" lon="-3.3961">
        <ele>93.9</ele>
        <time>2020-06-10T16:02:48Z</time>
      </trkpt>
      <trkpt lat="48.54455" lon="-3.39607">
        <ele>93.9</ele>
        <time>2020-06-10T16:02:49Z</time>
      </trkpt>
      <trkpt lat="48.54458" lon="-3.39601">
        <ele>94</ele>
        <time>2020-06-10T16:02:50Z</time>
      </trkpt>
      <trkpt lat="48.54461" lon="-3.39599">
        <ele>94</ele>
        <time>2020-06-10T16:02:51Z</time>
      </trkpt>
      <trkpt lat="48.54464" lon="-3.39596">
        <ele>93.9</ele>
        <time>2020-06-10T16:02:52Z</time>
      </trkpt>
      <trkpt lat="48.54465" lon="-3.39592">
        <ele>93.9</ele>
        <time>2020-06-10T16:02:53Z</time>
      </trkpt>
      <trkpt lat="48.54467" lon="-3.39586">
        <ele>93.8</ele>
        <time>2020-06-10T16:02:54Z</time>
      </trkpt>
      <trkpt lat="48.54468" lon="-3.39585">
        <ele>93.8</ele>
        <time>2020-06-10T16:02:55Z</time>
      </trkpt>
      <trkpt lat="48.54472" lon="-3.39582">
        <ele>93.8</ele>
        <time>2020-06-10T16:02:56Z</time>
      </trkpt>
      <trkpt lat="48.54473" lon="-3.39582">
        <ele>93.7</ele>
        <time>2020-06-10T16:02:57Z</time>
      </trkpt>
      <trkpt lat="48.54477" lon="-3.3958">
        <ele>93.7</ele>
        <time>2020-06-10T16:02:58Z</time>
      </trkpt>
      <trkpt lat="48.54481" lon="-3.39582">
        <ele>93.6</ele>
        <time>2020-06-10T16:02:59Z</time>
      </trkpt>
      <trkpt lat="48.54485" lon="-3.39583">
        <ele>93.5</ele>
        <time>2020-06-10T16:03:00Z</time>
      </trkpt>
      <trkpt lat="48.5449" lon="-3.39585">
        <ele>93.5</ele>
        <time>2020-06-10T16:03:01Z</time>
      </trkpt>
      <trkpt lat="48.54494" lon="-3.39585">
        <ele>93.4</ele>
        <time>2020-06-10T16:03:02Z</time>
      </trkpt>
      <trkpt lat="48.54498" lon="-3.39586">
        <ele>93.3</ele>
        <time>2020-06-10T16:03:03Z</time>
      </trkpt>
      <trkpt lat="48.54503" lon="-3.39586">
        <ele>93.3</ele>
        <time>2020-06-10T16:03:04Z</time>
      </trkpt>
      <trkpt lat="48.54507" lon="-3.39585">
        <ele>93.3</ele>
        <time>2020-06-10T16:03:05Z</time>
      </trkpt>
      <trkpt lat="48.54512" lon="-3.39585">
        <ele>93.2</ele>
        <time>2020-06-10T16:03:06Z</time>
      </trkpt>
      <trkpt lat="48.54516" lon="-3.39585">
        <ele>93.2</ele>
        <time>2020-06-10T16:03:07Z</time>
      </trkpt>
      <trkpt lat="48.54519" lon="-3.39581">
        <ele>93.2</ele>
        <time>2020-06-10T16:03:08Z</time>
      </trkpt>
      <trkpt lat="48.54522" lon="-3.39578">
        <ele>93.2</ele>
        <time>2020-06-10T16:03:09Z</time>
      </trkpt>
      <trkpt lat="48.54525" lon="-3.39575">
        <ele>93.2</ele>
        <time>2020-06-10T16:03:10Z</time>
      </trkpt>
      <trkpt lat="48.54529" lon="-3.39574">
        <ele>93</ele>
        <time>2020-06-10T16:03:11Z</time>
      </trkpt>
      <trkpt lat="48.54533" lon="-3.39572">
        <ele>93</ele>
        <time>2020-06-10T16:03:12Z</time>
      </trkpt>
      <trkpt lat="48.54537" lon="-3.39571">
        <ele>93</ele>
        <time>2020-06-10T16:03:13Z</time>
      </trkpt>
      <trkpt lat="48.5454" lon="-3.3957">
        <ele>92.9</ele>
        <time>2020-06-10T16:03:14Z</time>
      </trkpt>
      <trkpt lat="48.54544" lon="-3.39571">
        <ele>92.9</ele>
        <time>2020-06-10T16:03:15Z</time>
      </trkpt>
      <trkpt lat="48.54548" lon="-3.39572">
        <ele>92.8</ele>
        <time>2020-06-10T16:03:16Z</time>
      </trkpt>
      <trkpt lat="48.54551" lon="-3.39571">
        <ele>92.7</ele>
        <time>2020-06-10T16:03:17Z</time>
      </trkpt>
      <trkpt lat="48.54555" lon="-3.3957">
        <ele>92.7</ele>
        <time>2020-06-10T16:03:18Z</time>
      </trkpt>
      <trkpt lat="48.54558" lon="-3.39569">
        <ele>92.6</ele>
        <time>2020-06-10T16:03:19Z</time>
      </trkpt>
      <trkpt lat="48.54562" lon="-3.39568">
        <ele>92.6</ele>
        <time>2020-06-10T16:03:20Z</time>
      </trkpt>
      <trkpt lat="48.54563" lon="-3.39567">
        <ele>92.6</ele>
        <time>2020-06-10T16:03:21Z</time>
      </trkpt>
      <trkpt lat="48.54564" lon="-3.39566">
        <ele>92.6</ele>
        <time>2020-06-10T16:03:22Z</time>
      </trkpt>
      <trkpt lat="48.54564" lon="-3.39566">
        <ele>92.6</ele>
        <time>2020-06-10T16:03:23Z</time>
      </trkpt>
      <trkpt lat="48.54564" lon="-3.39565">
        <ele>92.6</ele>
        <time>2020-06-10T16:03:24Z</time>
      </trkpt>
      <trkpt lat="48.54564" lon="-3.39565">
        <ele>92.6</ele>
        <time>2020-06-10T16:03:25Z</time>
      </trkpt>
      <trkpt lat="48.54564" lon="-3.39564">
        <ele>92.6</ele>
        <time>2020-06-10T16:03:26Z</time>
      </trkpt>
      <trkpt lat="48.54564" lon="-3.39564">
        <ele>92.6</ele>
        <time>2020-06-10T16:03:27Z</time>
      </trkpt>
      <trkpt lat="48.54565" lon="-3.39564">
        <ele>92.6</ele>
        <time>2020-06-10T16:03:28Z</time>
      </trkpt>
      <trkpt lat="48.54565" lon="-3.39565">
        <ele>92.6</ele>
        <time>2020-06-10T16:03:29Z</time>
      </trkpt>
      <trkpt lat="48.54565" lon="-3.39565">
        <ele>92.6</ele>
        <time>2020-06-10T16:03:30Z</time>
      </trkpt>
      <trkpt lat="48.54566" lon="-3.39566">
        <ele>92.6</ele>
        <time>2020-06-10T16:03:31Z</time>
      </trkpt>
      <trkpt lat="48.54566" lon="-3.39567">
        <ele>92.6</ele>
        <time>2020-06-10T16:03:32Z</time>
      </trkpt>
      <trkpt lat="48.54566" lon="-3.39567">
        <ele>92.6</ele>
        <time>2020-06-10T16:03:33Z</time>
      </trkpt>
      <trkpt lat="48.54566" lon="-3.39568">
        <ele>92.6</ele>
        <time>2020-06-10T16:03:34Z</time>
      </trkpt>
      <trkpt lat="48.54563" lon="-3.39568">
        <ele>92.7</ele>
        <time>2020-06-10T16:03:35Z</time>
      </trkpt>
      <trkpt lat="48.5456" lon="-3.39566">
        <ele>92.7</ele>
        <time>2020-06-10T16:03:36Z</time>
      </trkpt>
      <trkpt lat="48.54557" lon="-3.39565">
        <ele>92.7</ele>
        <time>2020-06-10T16:31:34Z</time>
      </trkpt>
      <trkpt lat="48.54553" lon="-3.39564">
        <ele>92.8</ele>
        <time>2020-06-10T16:31:35Z</time>
      </trkpt>
      <trkpt lat="48.54551" lon="-3.39564">
        <ele>92.8</ele>
        <time>2020-06-10T16:31:36Z</time>
      </trkpt>
      <trkpt lat="48.5455" lon="-3.39564">
        <ele>92.8</ele>
        <time>2020-06-10T16:31:37Z</time>
      </trkpt>
      <trkpt lat="48.54549" lon="-3.39564">
        <ele>92.8</ele>
        <time>2020-06-10T16:31:38Z</time>
      </trkpt>
      <trkpt lat="48.54546" lon="-3.39564">
        <ele>92.9</ele>
        <time>2020-06-10T16:31:39Z</time>
      </trkpt>
      <trkpt lat="48.54544" lon="-3.39565">
        <ele>92.9</ele>
        <time>2020-06-10T16:31:40Z</time>
      </trkpt>
      <trkpt lat="48.54542" lon="-3.39567">
        <ele>92.9</ele>
        <time>2020-06-10T16:31:41Z</time>
      </trkpt>
      <trkpt lat="48.54539" lon="-3.39569">
        <ele>92.9</ele>
        <time>2020-06-10T16:31:42Z</time>
      </trkpt>
      <trkpt lat="48.54538" lon="-3.3957">
        <ele>92.9</ele>
        <time>2020-06-10T16:31:43Z</time>
      </trkpt>
      <trkpt lat="48.54535" lon="-3.39571">
        <ele>93</ele>
        <time>2020-06-10T16:31:44Z</time>
      </trkpt>
      <trkpt lat="48.54532" lon="-3.39572">
        <ele>93</ele>
        <time>2020-06-10T16:31:45Z</time>
      </trkpt>
      <trkpt lat="48.54528" lon="-3.39575">
        <ele>93.2</ele>
        <time>2020-06-10T16:31:46Z</time>
      </trkpt>
      <trkpt lat="48.54525" lon="-3.39578">
        <ele>93.2</ele>
        <time>2020-06-10T16:31:47Z</time>
      </trkpt>
      <trkpt lat="48.54522" lon="-3.39579">
        <ele>93.2</ele>
        <time>2020-06-10T16:31:48Z</time>
      </trkpt>
      <trkpt lat="48.54519" lon="-3.3958">
        <ele>93.2</ele>
        <time>2020-06-10T16:31:49Z</time>
      </trkpt>
      <trkpt lat="48.54515" lon="-3.3958">
        <ele>93.2</ele>
        <time>2020-06-10T16:31:50Z</time>
      </trkpt>
      <trkpt lat="48.54512" lon="-3.39581">
        <ele>93.2</ele>
        <time>2020-06-10T16:31:51Z</time>
      </trkpt>
      <trkpt lat="48.54508" lon="-3.39583">
        <ele>93.3</ele>
        <time>2020-06-10T16:31:52Z</time>
      </trkpt>
      <trkpt lat="48.54505" lon="-3.39583">
        <ele>93.3</ele>
        <time>2020-06-10T16:31:53Z</time>
      </trkpt>
      <trkpt lat="48.54501" lon="-3.39584">
        <ele>93.3</ele>
        <time>2020-06-10T16:31:54Z</time>
      </trkpt>
      <trkpt lat="48.54498" lon="-3.39584">
        <ele>93.4</ele>
        <time>2020-06-10T16:31:55Z</time>
      </trkpt>
      <trkpt lat="48.54494" lon="-3.39584">
        <ele>93.4</ele>
        <time>2020-06-10T16:31:56Z</time>
      </trkpt>
      <trkpt lat="48.5449" lon="-3.39582">
        <ele>93.5</ele>
        <time>2020-06-10T16:31:57Z</time>
      </trkpt>
      <trkpt lat="48.54485" lon="-3.39581">
        <ele>93.6</ele>
        <time>2020-06-10T16:31:58Z</time>
      </trkpt>
      <trkpt lat="48.54482" lon="-3.39581">
        <ele>93.6</ele>
        <time>2020-06-10T16:31:59Z</time>
      </trkpt>
      <trkpt lat="48.54477" lon="-3.3958">
        <ele>93.7</ele>
        <time>2020-06-10T16:32:00Z</time>
      </trkpt>
      <trkpt lat="48.54474" lon="-3.39579">
        <ele>93.8</ele>
        <time>2020-06-10T16:32:01Z</time>
      </trkpt>
      <trkpt lat="48.54472" lon="-3.39579">
        <ele>93.8</ele>
        <time>2020-06-10T16:32:02Z</time>
      </trkpt>
      <trkpt lat="48.5447" lon="-3.39579">
        <ele>93.8</ele>
        <time>2020-06-10T16:32:03Z</time>
      </trkpt>
      <trkpt lat="48.54469" lon="-3.39578">
        <ele>93.8</ele>
        <time>2020-06-10T16:32:04Z</time>
      </trkpt>
      <trkpt lat="48.54467" lon="-3.39577">
        <ele>93.8</ele>
        <time>2020-06-10T16:32:05Z</time>
      </trkpt>
      <trkpt lat="48.54466" lon="-3.39577">
        <ele>93.8</ele>
        <time>2020-06-10T16:32:06Z</time>
      </trkpt>
      <trkpt lat="48.54465" lon="-3.39573">
        <ele>93.8</ele>
        <time>2020-06-10T16:32:07Z</time>
      </trkpt>
      <trkpt lat="48.54465" lon="-3.39571">
        <ele>93.8</ele>
        <time>2020-06-10T16:32:08Z</time>
      </trkpt>
      <trkpt lat="48.54465" lon="-3.3957">
        <ele>93.8</ele>
        <time>2020-06-10T16:32:09Z</time>
      </trkpt>
      <trkpt lat="48.54465" lon="-3.39564">
        <ele>93.7</ele>
        <time>2020-06-10T16:32:10Z</time>
      </trkpt>
      <trkpt lat="48.54465" lon="-3.39561">
        <ele>93.7</ele>
        <time>2020-06-10T16:32:11Z</time>
      </trkpt>
      <trkpt lat="48.54466" lon="-3.39554">
        <ele>93.7</ele>
        <time>2020-06-10T16:32:12Z</time>
      </trkpt>
      <trkpt lat="48.54466" lon="-3.39552">
        <ele>93.7</ele>
        <time>2020-06-10T16:32:13Z</time>
      </trkpt>
      <trkpt lat="48.54466" lon="-3.39547">
        <ele>93.7</ele>
        <time>2020-06-10T16:32:14Z</time>
      </trkpt>
      <trkpt lat="48.54467" lon="-3.39541">
        <ele>93.6</ele>
        <time>2020-06-10T16:32:15Z</time>
      </trkpt>
      <trkpt lat="48.54468" lon="-3.39537">
        <ele>93.6</ele>
        <time>2020-06-10T16:32:16Z</time>
      </trkpt>
      <trkpt lat="48.54468" lon="-3.39532">
        <ele>93.6</ele>
        <time>2020-06-10T16:32:17Z</time>
      </trkpt>
      <trkpt lat="48.54469" lon="-3.39527">
        <ele>93.6</ele>
        <time>2020-06-10T16:32:18Z</time>
      </trkpt>
      <trkpt lat="48.54469" lon="-3.39523">
        <ele>93.6</ele>
        <time>2020-06-10T16:32:19Z</time>
      </trkpt>
      <trkpt lat="48.54471" lon="-3.39518">
        <ele>93.6</ele>
        <time>2020-06-10T16:32:20Z</time>
      </trkpt>
      <trkpt lat="48.54472" lon="-3.39513">
        <ele>93.6</ele>
        <time>2020-06-10T16:32:21Z</time>
      </trkpt>
      <trkpt lat="48.54473" lon="-3.39507">
        <ele>93.6</ele>
        <time>2020-06-10T16:32:22Z</time>
      </trkpt>
      <trkpt lat="48.54474" lon="-3.39502">
        <ele>93.6</ele>
        <time>2020-06-10T16:32:23Z</time>
      </trkpt>
      <trkpt lat="48.54475" lon="-3.39497">
        <ele>93.6</ele>
        <time>2020-06-10T16:32:24Z</time>
      </trkpt>
      <trkpt lat="48.54477" lon="-3.39492">
        <ele>93.7</ele>
        <time>2020-06-10T16:32:25Z</time>
      </trkpt>
      <trkpt lat="48.54479" lon="-3.39487">
        <ele>93.7</ele>
        <time>2020-06-10T16:32:26Z</time>
      </trkpt>
      <trkpt lat="48.5448" lon="-3.39482">
        <ele>93.7</ele>
        <time>2020-06-10T16:32:27Z</time>
      </trkpt>
      <trkpt lat="48.54481" lon="-3.39477">
        <ele>93.8</ele>
        <time>2020-06-10T16:32:28Z</time>
      </trkpt>
      <trkpt lat="48.54482" lon="-3.39475">
        <ele>93.8</ele>
        <time>2020-06-10T16:32:29Z</time>
      </trkpt>
      <trkpt lat="48.54484" lon="-3.39471">
        <ele>93.9</ele>
        <time>2020-06-10T16:32:30Z</time>
      </trkpt>
      <trkpt lat="48.54485" lon="-3.39466">
        <ele>94</ele>
        <time>2020-06-10T16:32:31Z</time>
      </trkpt>
      <trkpt lat="48.54486" lon="-3.39462">
        <ele>94</ele>
        <time>2020-06-10T16:32:32Z</time>
      </trkpt>
      <trkpt lat="48.54488" lon="-3.39458">
        <ele>94.1</ele>
        <time>2020-06-10T16:32:33Z</time>
      </trkpt>
      <trkpt lat="48.54491" lon="-3.39451">
        <ele>94.3</ele>
        <time>2020-06-10T16:32:34Z</time>
      </trkpt>
      <trkpt lat="48.54493" lon="-3.39447">
        <ele>94.4</ele>
        <time>2020-06-10T16:32:35Z</time>
      </trkpt>
      <trkpt lat="48.54495" lon="-3.39441">
        <ele>94.5</ele>
        <time>2020-06-10T16:32:36Z</time>
      </trkpt>
      <trkpt lat="48.54496" lon="-3.39435">
        <ele>94.6</ele>
        <time>2020-06-10T16:32:37Z</time>
      </trkpt>
      <trkpt lat="48.54498" lon="-3.3943">
        <ele>94.7</ele>
        <time>2020-06-10T16:32:38Z</time>
      </trkpt>
      <trkpt lat="48.54499" lon="-3.39425">
        <ele>94.8</ele>
        <time>2020-06-10T16:32:39Z</time>
      </trkpt>
      <trkpt lat="48.54499" lon="-3.39423">
        <ele>94.8</ele>
        <time>2020-06-10T16:32:40Z</time>
      </trkpt>
      <trkpt lat="48.54501" lon="-3.39418">
        <ele>95</ele>
        <time>2020-06-10T16:32:41Z</time>
      </trkpt>
      <trkpt lat="48.54502" lon="-3.39417">
        <ele>95</ele>
        <time>2020-06-10T16:32:42Z</time>
      </trkpt>
      <trkpt lat="48.54503" lon="-3.39411">
        <ele>95.2</ele>
        <time>2020-06-10T16:32:43Z</time>
      </trkpt>
      <trkpt lat="48.54504" lon="-3.39409">
        <ele>95.2</ele>
        <time>2020-06-10T16:32:44Z</time>
      </trkpt>
      <trkpt lat="48.54506" lon="-3.39405">
        <ele>95.3</ele>
        <time>2020-06-10T16:32:45Z</time>
      </trkpt>
      <trkpt lat="48.54508" lon="-3.39403">
        <ele>95.3</ele>
        <time>2020-06-10T16:32:46Z</time>
      </trkpt>
      <trkpt lat="48.54508" lon="-3.39398">
        <ele>95.3</ele>
        <time>2020-06-10T16:32:47Z</time>
      </trkpt>
      <trkpt lat="48.5451" lon="-3.39393">
        <ele>95.1</ele>
        <time>2020-06-10T16:32:48Z</time>
      </trkpt>
      <trkpt lat="48.5451" lon="-3.39391">
        <ele>95.1</ele>
        <time>2020-06-10T16:32:49Z</time>
      </trkpt>
      <trkpt lat="48.54511" lon="-3.39387">
        <ele>95.1</ele>
        <time>2020-06-10T16:32:50Z</time>
      </trkpt>
      <trkpt lat="48.54514" lon="-3.39385">
        <ele>95.1</ele>
        <time>2020-06-10T16:32:51Z</time>
      </trkpt>
      <trkpt lat="48.54517" lon="-3.39383">
        <ele>95.4</ele>
        <time>2020-06-10T16:32:52Z</time>
      </trkpt>
      <trkpt lat="48.5452" lon="-3.3938">
        <ele>95.5</ele>
        <time>2020-06-10T16:32:53Z</time>
      </trkpt>
      <trkpt lat="48.54523" lon="-3.39376">
        <ele>95.6</ele>
        <time>2020-06-10T16:32:54Z</time>
      </trkpt>
      <trkpt lat="48.54523" lon="-3.39374">
        <ele>95.7</ele>
        <time>2020-06-10T16:32:55Z</time>
      </trkpt>
      <trkpt lat="48.54524" lon="-3.3937">
        <ele>95.8</ele>
        <time>2020-06-10T16:32:56Z</time>
      </trkpt>
      <trkpt lat="48.54528" lon="-3.39368">
        <ele>96</ele>
        <time>2020-06-10T16:32:57Z</time>
      </trkpt>
      <trkpt lat="48.54529" lon="-3.39366">
        <ele>96.1</ele>
        <time>2020-06-10T16:32:58Z</time>
      </trkpt>
      <trkpt lat="48.54531" lon="-3.39363">
        <ele>96.3</ele>
        <time>2020-06-10T16:32:59Z</time>
      </trkpt>
      <trkpt lat="48.54534" lon="-3.3936">
        <ele>96.5</ele>
        <time>2020-06-10T16:33:00Z</time>
      </trkpt>
      <trkpt lat="48.54535" lon="-3.39356">
        <ele>96.7</ele>
        <time>2020-06-10T16:33:01Z</time>
      </trkpt>
      <trkpt lat="48.54536" lon="-3.39355">
        <ele>96.8</ele>
        <time>2020-06-10T16:33:02Z</time>
      </trkpt>
      <trkpt lat="48.54538" lon="-3.39351">
        <ele>97</ele>
        <time>2020-06-10T16:33:03Z</time>
      </trkpt>
      <trkpt lat="48.54539" lon="-3.39347">
        <ele>97.2</ele>
        <time>2020-06-10T16:33:04Z</time>
      </trkpt>
      <trkpt lat="48.54541" lon="-3.39344">
        <ele>97.5</ele>
        <time>2020-06-10T16:33:05Z</time>
      </trkpt>
      <trkpt lat="48.54544" lon="-3.39341">
        <ele>97.7</ele>
        <time>2020-06-10T16:33:06Z</time>
      </trkpt>
      <trkpt lat="48.54547" lon="-3.39338">
        <ele>98</ele>
        <time>2020-06-10T16:33:07Z</time>
      </trkpt>
      <trkpt lat="48.54548" lon="-3.39336">
        <ele>98.1</ele>
        <time>2020-06-10T16:33:08Z</time>
      </trkpt>
      <trkpt lat="48.5455" lon="-3.39332">
        <ele>98.4</ele>
        <time>2020-06-10T16:33:09Z</time>
      </trkpt>
      <trkpt lat="48.5455" lon="-3.39331">
        <ele>98.5</ele>
        <time>2020-06-10T16:33:10Z</time>
      </trkpt>
      <trkpt lat="48.54552" lon="-3.39327">
        <ele>98.8</ele>
        <time>2020-06-10T16:33:11Z</time>
      </trkpt>
      <trkpt lat="48.54553" lon="-3.39326">
        <ele>98.9</ele>
        <time>2020-06-10T16:33:12Z</time>
      </trkpt>
      <trkpt lat="48.54556" lon="-3.39324">
        <ele>99.2</ele>
        <time>2020-06-10T16:33:13Z</time>
      </trkpt>
      <trkpt lat="48.54558" lon="-3.39323">
        <ele>99.3</ele>
        <time>2020-06-10T16:33:14Z</time>
      </trkpt>
      <trkpt lat="48.5456" lon="-3.3932">
        <ele>99.6</ele>
        <time>2020-06-10T16:33:15Z</time>
      </trkpt>
      <trkpt lat="48.54561" lon="-3.39318">
        <ele>99.7</ele>
        <time>2020-06-10T16:33:16Z</time>
      </trkpt>
      <trkpt lat="48.54563" lon="-3.39315">
        <ele>100.1</ele>
        <time>2020-06-10T16:33:17Z</time>
      </trkpt>
      <trkpt lat="48.54564" lon="-3.39313">
        <ele>100.2</ele>
        <time>2020-06-10T16:33:18Z</time>
      </trkpt>
      <trkpt lat="48.54566" lon="-3.3931">
        <ele>100.5</ele>
        <time>2020-06-10T16:33:19Z</time>
      </trkpt>
      <trkpt lat="48.54568" lon="-3.39308">
        <ele>100.9</ele>
        <time>2020-06-10T16:33:20Z</time>
      </trkpt>
      <trkpt lat="48.54571" lon="-3.39305">
        <ele>101.2</ele>
        <time>2020-06-10T16:33:21Z</time>
      </trkpt>
      <trkpt lat="48.54572" lon="-3.39304">
        <ele>101.4</ele>
        <time>2020-06-10T16:33:22Z</time>
      </trkpt>
      <trkpt lat="48.54575" lon="-3.39301">
        <ele>101.7</ele>
        <time>2020-06-10T16:33:23Z</time>
      </trkpt>
      <trkpt lat="48.54576" lon="-3.393">
        <ele>101.8</ele>
        <time>2020-06-10T16:33:24Z</time>
      </trkpt>
      <trkpt lat="48.54578" lon="-3.39296">
        <ele>102.2</ele>
        <time>2020-06-10T16:33:25Z</time>
      </trkpt>
      <trkpt lat="48.54578" lon="-3.39295">
        <ele>102.3</ele>
        <time>2020-06-10T16:33:26Z</time>
      </trkpt>
      <trkpt lat="48.5458" lon="-3.39291">
        <ele>102.6</ele>
        <time>2020-06-10T16:33:27Z</time>
      </trkpt>
      <trkpt lat="48.5458" lon="-3.3929">
        <ele>102.7</ele>
        <time>2020-06-10T16:33:28Z</time>
      </trkpt>
      <trkpt lat="48.54582" lon="-3.39286">
        <ele>103</ele>
        <time>2020-06-10T16:33:29Z</time>
      </trkpt>
      <trkpt lat="48.54582" lon="-3.39285">
        <ele>103.1</ele>
        <time>2020-06-10T16:33:30Z</time>
      </trkpt>
      <trkpt lat="48.54584" lon="-3.39281">
        <ele>103.4</ele>
        <time>2020-06-10T16:33:31Z</time>
      </trkpt>
      <trkpt lat="48.54585" lon="-3.3928">
        <ele>103.5</ele>
        <time>2020-06-10T16:33:32Z</time>
      </trkpt>
      <trkpt lat="48.54587" lon="-3.39276">
        <ele>103.9</ele>
        <time>2020-06-10T16:33:33Z</time>
      </trkpt>
      <trkpt lat="48.54588" lon="-3.39275">
        <ele>104</ele>
        <time>2020-06-10T16:33:34Z</time>
      </trkpt>
      <trkpt lat="48.54589" lon="-3.39271">
        <ele>104.3</ele>
        <time>2020-06-10T16:33:35Z</time>
      </trkpt>
      <trkpt lat="48.5459" lon="-3.3927">
        <ele>104.4</ele>
        <time>2020-06-10T16:33:36Z</time>
      </trkpt>
      <trkpt lat="48.54592" lon="-3.39265">
        <ele>104.8</ele>
        <time>2020-06-10T16:33:37Z</time>
      </trkpt>
      <trkpt lat="48.54593" lon="-3.39264">
        <ele>105</ele>
        <time>2020-06-10T16:33:38Z</time>
      </trkpt>
      <trkpt lat="48.54595" lon="-3.3926">
        <ele>105.3</ele>
        <time>2020-06-10T16:33:39Z</time>
      </trkpt>
      <trkpt lat="48.54595" lon="-3.39258">
        <ele>105.4</ele>
        <time>2020-06-10T16:33:40Z</time>
      </trkpt>
      <trkpt lat="48.54597" lon="-3.39255">
        <ele>105.7</ele>
        <time>2020-06-10T16:33:41Z</time>
      </trkpt>
      <trkpt lat="48.54598" lon="-3.39254">
        <ele>105.8</ele>
        <time>2020-06-10T16:33:42Z</time>
      </trkpt>
      <trkpt lat="48.54599" lon="-3.39252">
        <ele>106</ele>
        <time>2020-06-10T16:33:43Z</time>
      </trkpt>
      <trkpt lat="48.546" lon="-3.3925">
        <ele>106.1</ele>
        <time>2020-06-10T16:33:44Z</time>
      </trkpt>
      <trkpt lat="48.54602" lon="-3.39247">
        <ele>106.5</ele>
        <time>2020-06-10T16:33:45Z</time>
      </trkpt>
      <trkpt lat="48.54602" lon="-3.39245">
        <ele>106.7</ele>
        <time>2020-06-10T16:33:46Z</time>
      </trkpt>
      <trkpt lat="48.54604" lon="-3.39241">
        <ele>107.2</ele>
        <time>2020-06-10T16:33:47Z</time>
      </trkpt>
      <trkpt lat="48.54605" lon="-3.3924">
        <ele>107.3</ele>
        <time>2020-06-10T16:33:48Z</time>
      </trkpt>
      <trkpt lat="48.54607" lon="-3.39236">
        <ele>107.7</ele>
        <time>2020-06-10T16:33:49Z</time>
      </trkpt>
      <trkpt lat="48.54609" lon="-3.39234">
        <ele>108.1</ele>
        <time>2020-06-10T16:33:50Z</time>
      </trkpt>
      <trkpt lat="48.5461" lon="-3.39233">
        <ele>108.2</ele>
        <time>2020-06-10T16:33:51Z</time>
      </trkpt>
      <trkpt lat="48.54612" lon="-3.3923">
        <ele>108.6</ele>
        <time>2020-06-10T16:33:52Z</time>
      </trkpt>
      <trkpt lat="48.54613" lon="-3.39228">
        <ele>108.7</ele>
        <time>2020-06-10T16:33:53Z</time>
      </trkpt>
      <trkpt lat="48.54614" lon="-3.39224">
        <ele>109.1</ele>
        <time>2020-06-10T16:33:54Z</time>
      </trkpt>
      <trkpt lat="48.54614" lon="-3.39222">
        <ele>109.3</ele>
        <time>2020-06-10T16:33:55Z</time>
      </trkpt>
      <trkpt lat="48.54615" lon="-3.39219">
        <ele>109.5</ele>
        <time>2020-06-10T16:33:56Z</time>
      </trkpt>
      <trkpt lat="48.54616" lon="-3.39218">
        <ele>109.7</ele>
        <time>2020-06-10T16:33:57Z</time>
      </trkpt>
      <trkpt lat="48.54617" lon="-3.39216">
        <ele>109.9</ele>
        <time>2020-06-10T16:33:58Z</time>
      </trkpt>
      <trkpt lat="48.54618" lon="-3.39214">
        <ele>110.1</ele>
        <time>2020-06-10T16:33:59Z</time>
      </trkpt>
      <trkpt lat="48.54619" lon="-3.39212">
        <ele>110.3</ele>
        <time>2020-06-10T16:34:00Z</time>
      </trkpt>
      <trkpt lat="48.5462" lon="-3.39211">
        <ele>110.5</ele>
        <time>2020-06-10T16:34:01Z</time>
      </trkpt>
      <trkpt lat="48.54621" lon="-3.39208">
        <ele>110.7</ele>
        <time>2020-06-10T16:34:02Z</time>
      </trkpt>
      <trkpt lat="48.54623" lon="-3.39205">
        <ele>111.1</ele>
        <time>2020-06-10T16:34:03Z</time>
      </trkpt>
      <trkpt lat="48.54624" lon="-3.39204">
        <ele>111.2</ele>
        <time>2020-06-10T16:34:04Z</time>
      </trkpt>
      <trkpt lat="48.54625" lon="-3.39202">
        <ele>111.4</ele>
        <time>2020-06-10T16:34:05Z</time>
      </trkpt>
      <trkpt lat="48.54626" lon="-3.392">
        <ele>111.6</ele>
        <time>2020-06-10T16:34:06Z</time>
      </trkpt>
      <trkpt lat="48.54628" lon="-3.39197">
        <ele>112</ele>
        <time>2020-06-10T16:34:07Z</time>
      </trkpt>
      <trkpt lat="48.54628" lon="-3.39196">
        <ele>112.1</ele>
        <time>2020-06-10T16:34:08Z</time>
      </trkpt>
      <trkpt lat="48.5463" lon="-3.39194">
        <ele>112.4</ele>
        <time>2020-06-10T16:34:09Z</time>
      </trkpt>
      <trkpt lat="48.54631" lon="-3.39192">
        <ele>112.6</ele>
        <time>2020-06-10T16:34:10Z</time>
      </trkpt>
      <trkpt lat="48.54632" lon="-3.39189">
        <ele>112.9</ele>
        <time>2020-06-10T16:34:11Z</time>
      </trkpt>
      <trkpt lat="48.54632" lon="-3.39188">
        <ele>113</ele>
        <time>2020-06-10T16:34:12Z</time>
      </trkpt>
      <trkpt lat="48.54633" lon="-3.39187">
        <ele>113.1</ele>
        <time>2020-06-10T16:34:13Z</time>
      </trkpt>
      <trkpt lat="48.54634" lon="-3.39185">
        <ele>113.3</ele>
        <time>2020-06-10T16:34:14Z</time>
      </trkpt>
      <trkpt lat="48.54635" lon="-3.39184">
        <ele>113.5</ele>
        <time>2020-06-10T16:34:15Z</time>
      </trkpt>
      <trkpt lat="48.54636" lon="-3.39182">
        <ele>113.8</ele>
        <time>2020-06-10T16:34:16Z</time>
      </trkpt>
      <trkpt lat="48.54637" lon="-3.3918">
        <ele>114</ele>
        <time>2020-06-10T16:34:17Z</time>
      </trkpt>
      <trkpt lat="48.54639" lon="-3.39177">
        <ele>114.3</ele>
        <time>2020-06-10T16:34:18Z</time>
      </trkpt>
      <trkpt lat="48.54639" lon="-3.39175">
        <ele>114.5</ele>
        <time>2020-06-10T16:34:19Z</time>
      </trkpt>
      <trkpt lat="48.5464" lon="-3.39173">
        <ele>114.7</ele>
        <time>2020-06-10T16:34:20Z</time>
      </trkpt>
      <trkpt lat="48.54641" lon="-3.39171">
        <ele>114.9</ele>
        <time>2020-06-10T16:34:21Z</time>
      </trkpt>
      <trkpt lat="48.54642" lon="-3.39169">
        <ele>115.1</ele>
        <time>2020-06-10T16:34:22Z</time>
      </trkpt>
      <trkpt lat="48.54643" lon="-3.39167">
        <ele>115.3</ele>
        <time>2020-06-10T16:34:23Z</time>
      </trkpt>
      <trkpt lat="48.54645" lon="-3.39165">
        <ele>115.6</ele>
        <time>2020-06-10T16:34:24Z</time>
      </trkpt>
      <trkpt lat="48.54646" lon="-3.39164">
        <ele>115.8</ele>
        <time>2020-06-10T16:34:25Z</time>
      </trkpt>
      <trkpt lat="48.54646" lon="-3.39162">
        <ele>115.9</ele>
        <time>2020-06-10T16:34:26Z</time>
      </trkpt>
      <trkpt lat="48.54647" lon="-3.39161">
        <ele>116</ele>
        <time>2020-06-10T16:34:27Z</time>
      </trkpt>
      <trkpt lat="48.54648" lon="-3.3916">
        <ele>116.2</ele>
        <time>2020-06-10T16:34:28Z</time>
      </trkpt>
      <trkpt lat="48.54649" lon="-3.39158">
        <ele>116.5</ele>
        <time>2020-06-10T16:34:29Z</time>
      </trkpt>
      <trkpt lat="48.5465" lon="-3.39157">
        <ele>116.7</ele>
        <time>2020-06-10T16:34:30Z</time>
      </trkpt>
      <trkpt lat="48.54651" lon="-3.39155">
        <ele>116.8</ele>
        <time>2020-06-10T16:34:31Z</time>
      </trkpt>
      <trkpt lat="48.54653" lon="-3.39153">
        <ele>117.2</ele>
        <time>2020-06-10T16:34:32Z</time>
      </trkpt>
      <trkpt lat="48.54654" lon="-3.39152">
        <ele>117.3</ele>
        <time>2020-06-10T16:34:33Z</time>
      </trkpt>
      <trkpt lat="48.54655" lon="-3.3915">
        <ele>117.5</ele>
        <time>2020-06-10T16:34:34Z</time>
      </trkpt>
      <trkpt lat="48.54656" lon="-3.39148">
        <ele>117.7</ele>
        <time>2020-06-10T16:34:35Z</time>
      </trkpt>
      <trkpt lat="48.54658" lon="-3.39144">
        <ele>118.1</ele>
        <time>2020-06-10T16:34:36Z</time>
      </trkpt>
      <trkpt lat="48.54658" lon="-3.39143">
        <ele>118.2</ele>
        <time>2020-06-10T16:34:37Z</time>
      </trkpt>
      <trkpt lat="48.54659" lon="-3.39142">
        <ele>118.3</ele>
        <time>2020-06-10T16:34:38Z</time>
      </trkpt>
      <trkpt lat="48.5466" lon="-3.39141">
        <ele>118.5</ele>
        <time>2020-06-10T16:34:39Z</time>
      </trkpt>
      <trkpt lat="48.54661" lon="-3.3914">
        <ele>118.7</ele>
        <time>2020-06-10T16:34:40Z</time>
      </trkpt>
      <trkpt lat="48.54663" lon="-3.39137">
        <ele>119</ele>
        <time>2020-06-10T16:34:41Z</time>
      </trkpt>
      <trkpt lat="48.54664" lon="-3.39136">
        <ele>119.1</ele>
        <time>2020-06-10T16:34:42Z</time>
      </trkpt>
      <trkpt lat="48.54666" lon="-3.39133">
        <ele>119.4</ele>
        <time>2020-06-10T16:34:43Z</time>
      </trkpt>
      <trkpt lat="48.54667" lon="-3.39132">
        <ele>119.5</ele>
        <time>2020-06-10T16:34:44Z</time>
      </trkpt>
      <trkpt lat="48.54668" lon="-3.39131">
        <ele>119.7</ele>
        <time>2020-06-10T16:34:45Z</time>
      </trkpt>
      <trkpt lat="48.54669" lon="-3.39129">
        <ele>119.9</ele>
        <time>2020-06-10T16:34:46Z</time>
      </trkpt>
      <trkpt lat="48.54671" lon="-3.39128">
        <ele>120.1</ele>
        <time>2020-06-10T16:34:47Z</time>
      </trkpt>
      <trkpt lat="48.54672" lon="-3.39127">
        <ele>120.2</ele>
        <time>2020-06-10T16:34:48Z</time>
      </trkpt>
      <trkpt lat="48.54674" lon="-3.39124">
        <ele>120.5</ele>
        <time>2020-06-10T16:34:49Z</time>
      </trkpt>
      <trkpt lat="48.54675" lon="-3.39123">
        <ele>120.7</ele>
        <time>2020-06-10T16:34:50Z</time>
      </trkpt>
      <trkpt lat="48.54676" lon="-3.39122">
        <ele>120.8</ele>
        <time>2020-06-10T16:34:51Z</time>
      </trkpt>
      <trkpt lat="48.54676" lon="-3.3912">
        <ele>120.9</ele>
        <time>2020-06-10T16:34:52Z</time>
      </trkpt>
      <trkpt lat="48.54676" lon="-3.39119">
        <ele>121</ele>
        <time>2020-06-10T16:34:53Z</time>
      </trkpt>
      <trkpt lat="48.54676" lon="-3.39117">
        <ele>121.1</ele>
        <time>2020-06-10T16:34:54Z</time>
      </trkpt>
      <trkpt lat="48.54678" lon="-3.39116">
        <ele>121.3</ele>
        <time>2020-06-10T16:34:55Z</time>
      </trkpt>
      <trkpt lat="48.54679" lon="-3.39114">
        <ele>121.5</ele>
        <time>2020-06-10T16:34:56Z</time>
      </trkpt>
      <trkpt lat="48.54681" lon="-3.39113">
        <ele>121.7</ele>
        <time>2020-06-10T16:34:57Z</time>
      </trkpt>
      <trkpt lat="48.54683" lon="-3.39108">
        <ele>122</ele>
        <time>2020-06-10T16:34:58Z</time>
      </trkpt>
      <trkpt lat="48.54683" lon="-3.39106">
        <ele>122.2</ele>
        <time>2020-06-10T16:34:59Z</time>
      </trkpt>
      <trkpt lat="48.54685" lon="-3.39103">
        <ele>122.5</ele>
        <time>2020-06-10T16:35:00Z</time>
      </trkpt>
      <trkpt lat="48.54686" lon="-3.39102">
        <ele>122.6</ele>
        <time>2020-06-10T16:35:01Z</time>
      </trkpt>
      <trkpt lat="48.54688" lon="-3.39099">
        <ele>122.8</ele>
        <time>2020-06-10T16:35:02Z</time>
      </trkpt>
      <trkpt lat="48.54688" lon="-3.39098">
        <ele>122.9</ele>
        <time>2020-06-10T16:35:03Z</time>
      </trkpt>
      <trkpt lat="48.5469" lon="-3.39093">
        <ele>123.2</ele>
        <time>2020-06-10T16:35:04Z</time>
      </trkpt>
      <trkpt lat="48.54692" lon="-3.39089">
        <ele>123.5</ele>
        <time>2020-06-10T16:35:05Z</time>
      </trkpt>
      <trkpt lat="48.54692" lon="-3.39088">
        <ele>123.6</ele>
        <time>2020-06-10T16:35:06Z</time>
      </trkpt>
      <trkpt lat="48.54693" lon="-3.39083">
        <ele>123.9</ele>
        <time>2020-06-10T16:35:07Z</time>
      </trkpt>
      <trkpt lat="48.54694" lon="-3.39081">
        <ele>124.1</ele>
        <time>2020-06-10T16:35:08Z</time>
      </trkpt>
      <trkpt lat="48.54696" lon="-3.39076">
        <ele>124.4</ele>
        <time>2020-06-10T16:35:09Z</time>
      </trkpt>
      <trkpt lat="48.54696" lon="-3.39075">
        <ele>124.5</ele>
        <time>2020-06-10T16:35:10Z</time>
      </trkpt>
      <trkpt lat="48.54698" lon="-3.39074">
        <ele>124.7</ele>
        <time>2020-06-10T16:35:11Z</time>
      </trkpt>
      <trkpt lat="48.54698" lon="-3.39071">
        <ele>124.8</ele>
        <time>2020-06-10T16:35:12Z</time>
      </trkpt>
      <trkpt lat="48.547" lon="-3.39067">
        <ele>125.1</ele>
        <time>2020-06-10T16:35:13Z</time>
      </trkpt>
      <trkpt lat="48.547" lon="-3.39067">
        <ele>125.2</ele>
        <time>2020-06-10T16:35:14Z</time>
      </trkpt>
      <trkpt lat="48.54702" lon="-3.39063">
        <ele>125.5</ele>
        <time>2020-06-10T16:35:15Z</time>
      </trkpt>
      <trkpt lat="48.54703" lon="-3.39062">
        <ele>125.6</ele>
        <time>2020-06-10T16:35:16Z</time>
      </trkpt>
      <trkpt lat="48.54705" lon="-3.39058">
        <ele>125.9</ele>
        <time>2020-06-10T16:35:17Z</time>
      </trkpt>
      <trkpt lat="48.54706" lon="-3.39054">
        <ele>126.2</ele>
        <time>2020-06-10T16:35:18Z</time>
      </trkpt>
      <trkpt lat="48.54706" lon="-3.39053">
        <ele>126.3</ele>
        <time>2020-06-10T16:35:19Z</time>
      </trkpt>
      <trkpt lat="48.54708" lon="-3.39049">
        <ele>126.6</ele>
        <time>2020-06-10T16:35:20Z</time>
      </trkpt>
      <trkpt lat="48.54709" lon="-3.39048">
        <ele>126.7</ele>
        <time>2020-06-10T16:35:21Z</time>
      </trkpt>
      <trkpt lat="48.54709" lon="-3.39045">
        <ele>126.9</ele>
        <time>2020-06-10T16:35:22Z</time>
      </trkpt>
      <trkpt lat="48.5471" lon="-3.39043">
        <ele>127.1</ele>
        <time>2020-06-10T16:35:23Z</time>
      </trkpt>
      <trkpt lat="48.54712" lon="-3.3904">
        <ele>127.4</ele>
        <time>2020-06-10T16:35:24Z</time>
      </trkpt>
      <trkpt lat="48.54713" lon="-3.39038">
        <ele>127.5</ele>
        <time>2020-06-10T16:35:25Z</time>
      </trkpt>
      <trkpt lat="48.54715" lon="-3.39033">
        <ele>127.8</ele>
        <time>2020-06-10T16:35:26Z</time>
      </trkpt>
      <trkpt lat="48.54715" lon="-3.39032">
        <ele>127.9</ele>
        <time>2020-06-10T16:35:27Z</time>
      </trkpt>
      <trkpt lat="48.54716" lon="-3.39028">
        <ele>128.1</ele>
        <time>2020-06-10T16:35:28Z</time>
      </trkpt>
      <trkpt lat="48.54717" lon="-3.39026">
        <ele>128.3</ele>
        <time>2020-06-10T16:35:29Z</time>
      </trkpt>
      <trkpt lat="48.54719" lon="-3.39023">
        <ele>128.5</ele>
        <time>2020-06-10T16:35:30Z</time>
      </trkpt>
      <trkpt lat="48.5472" lon="-3.39019">
        <ele>128.8</ele>
        <time>2020-06-10T16:35:31Z</time>
      </trkpt>
      <trkpt lat="48.54721" lon="-3.39015">
        <ele>129</ele>
        <time>2020-06-10T16:35:32Z</time>
      </trkpt>
      <trkpt lat="48.54722" lon="-3.39011">
        <ele>129.3</ele>
        <time>2020-06-10T16:35:33Z</time>
      </trkpt>
      <trkpt lat="48.54722" lon="-3.39009">
        <ele>129.4</ele>
        <time>2020-06-10T16:35:34Z</time>
      </trkpt>
      <trkpt lat="48.54723" lon="-3.39004">
        <ele>129.7</ele>
        <time>2020-06-10T16:35:35Z</time>
      </trkpt>
      <trkpt lat="48.54723" lon="-3.39003">
        <ele>129.8</ele>
        <time>2020-06-10T16:35:36Z</time>
      </trkpt>
      <trkpt lat="48.54723" lon="-3.39">
        <ele>130</ele>
        <time>2020-06-10T16:35:37Z</time>
      </trkpt>
      <trkpt lat="48.54723" lon="-3.38998">
        <ele>130.1</ele>
        <time>2020-06-10T16:35:38Z</time>
      </trkpt>
      <trkpt lat="48.54723" lon="-3.38993">
        <ele>130.4</ele>
        <time>2020-06-10T16:35:39Z</time>
      </trkpt>
      <trkpt lat="48.54723" lon="-3.38992">
        <ele>130.5</ele>
        <time>2020-06-10T16:35:40Z</time>
      </trkpt>
      <trkpt lat="48.54724" lon="-3.38988">
        <ele>130.8</ele>
        <time>2020-06-10T16:35:41Z</time>
      </trkpt>
      <trkpt lat="48.54725" lon="-3.38986">
        <ele>130.9</ele>
        <time>2020-06-10T16:35:42Z</time>
      </trkpt>
      <trkpt lat="48.54725" lon="-3.38982">
        <ele>131.2</ele>
        <time>2020-06-10T16:35:43Z</time>
      </trkpt>
      <trkpt lat="48.54726" lon="-3.3898">
        <ele>131.3</ele>
        <time>2020-06-10T16:35:44Z</time>
      </trkpt>
      <trkpt lat="48.54726" lon="-3.38976">
        <ele>131.6</ele>
        <time>2020-06-10T16:35:45Z</time>
      </trkpt>
      <trkpt lat="48.54726" lon="-3.38974">
        <ele>131.7</ele>
        <time>2020-06-10T16:35:46Z</time>
      </trkpt>
      <trkpt lat="48.54727" lon="-3.38972">
        <ele>131.8</ele>
        <time>2020-06-10T16:35:47Z</time>
      </trkpt>
      <trkpt lat="48.54727" lon="-3.38969">
        <ele>132</ele>
        <time>2020-06-10T16:35:48Z</time>
      </trkpt>
      <trkpt lat="48.54727" lon="-3.38966">
        <ele>132.2</ele>
        <time>2020-06-10T16:35:49Z</time>
      </trkpt>
      <trkpt lat="48.54728" lon="-3.38964">
        <ele>132.4</ele>
        <time>2020-06-10T16:35:50Z</time>
      </trkpt>
      <trkpt lat="48.54728" lon="-3.3896">
        <ele>132.7</ele>
        <time>2020-06-10T16:35:51Z</time>
      </trkpt>
      <trkpt lat="48.54728" lon="-3.38958">
        <ele>132.8</ele>
        <time>2020-06-10T16:35:52Z</time>
      </trkpt>
      <trkpt lat="48.54728" lon="-3.38956">
        <ele>132.9</ele>
        <time>2020-06-10T16:35:53Z</time>
      </trkpt>
      <trkpt lat="48.54728" lon="-3.38954">
        <ele>133</ele>
        <time>2020-06-10T16:35:54Z</time>
      </trkpt>
      <trkpt lat="48.54727" lon="-3.38952">
        <ele>133.2</ele>
        <time>2020-06-10T16:35:55Z</time>
      </trkpt>
      <trkpt lat="48.54728" lon="-3.3895">
        <ele>133.3</ele>
        <time>2020-06-10T16:35:56Z</time>
      </trkpt>
      <trkpt lat="48.54729" lon="-3.38948">
        <ele>133.5</ele>
        <time>2020-06-10T16:35:57Z</time>
      </trkpt>
      <trkpt lat="48.54729" lon="-3.38945">
        <ele>133.7</ele>
        <time>2020-06-10T16:35:58Z</time>
      </trkpt>
      <trkpt lat="48.54729" lon="-3.3894">
        <ele>133.9</ele>
        <time>2020-06-10T16:35:59Z</time>
      </trkpt>
      <trkpt lat="48.54729" lon="-3.38939">
        <ele>134</ele>
        <time>2020-06-10T16:36:00Z</time>
      </trkpt>
      <trkpt lat="48.54729" lon="-3.38934">
        <ele>134.3</ele>
        <time>2020-06-10T16:36:01Z</time>
      </trkpt>
      <trkpt lat="48.54729" lon="-3.38932">
        <ele>134.4</ele>
        <time>2020-06-10T16:36:02Z</time>
      </trkpt>
      <trkpt lat="48.54728" lon="-3.38928">
        <ele>134.7</ele>
        <time>2020-06-10T16:36:03Z</time>
      </trkpt>
      <trkpt lat="48.54728" lon="-3.38924">
        <ele>135</ele>
        <time>2020-06-10T16:36:04Z</time>
      </trkpt>
      <trkpt lat="48.54728" lon="-3.38922">
        <ele>135.1</ele>
        <time>2020-06-10T16:36:05Z</time>
      </trkpt>
      <trkpt lat="48.54728" lon="-3.3892">
        <ele>135.3</ele>
        <time>2020-06-10T16:36:06Z</time>
      </trkpt>
      <trkpt lat="48.54729" lon="-3.38918">
        <ele>135.4</ele>
        <time>2020-06-10T16:36:07Z</time>
      </trkpt>
      <trkpt lat="48.54729" lon="-3.38914">
        <ele>135.7</ele>
        <time>2020-06-10T16:36:08Z</time>
      </trkpt>
      <trkpt lat="48.54729" lon="-3.38912">
        <ele>135.8</ele>
        <time>2020-06-10T16:36:09Z</time>
      </trkpt>
      <trkpt lat="48.54729" lon="-3.38908">
        <ele>136.1</ele>
        <time>2020-06-10T16:36:10Z</time>
      </trkpt>
      <trkpt lat="48.5473" lon="-3.38903">
        <ele>136.4</ele>
        <time>2020-06-10T16:36:11Z</time>
      </trkpt>
      <trkpt lat="48.5473" lon="-3.38902">
        <ele>136.4</ele>
        <time>2020-06-10T16:36:12Z</time>
      </trkpt>
      <trkpt lat="48.5473" lon="-3.389">
        <ele>136.6</ele>
        <time>2020-06-10T16:36:13Z</time>
      </trkpt>
      <trkpt lat="48.5473" lon="-3.38897">
        <ele>136.7</ele>
        <time>2020-06-10T16:36:14Z</time>
      </trkpt>
      <trkpt lat="48.54732" lon="-3.38893">
        <ele>137</ele>
        <time>2020-06-10T16:36:15Z</time>
      </trkpt>
      <trkpt lat="48.54733" lon="-3.38891">
        <ele>137.2</ele>
        <time>2020-06-10T16:36:16Z</time>
      </trkpt>
      <trkpt lat="48.54733" lon="-3.38887">
        <ele>137.4</ele>
        <time>2020-06-10T16:36:17Z</time>
      </trkpt>
      <trkpt lat="48.54733" lon="-3.38885">
        <ele>137.5</ele>
        <time>2020-06-10T16:36:18Z</time>
      </trkpt>
      <trkpt lat="48.54733" lon="-3.38882">
        <ele>137.7</ele>
        <time>2020-06-10T16:36:19Z</time>
      </trkpt>
      <trkpt lat="48.54733" lon="-3.3888">
        <ele>137.9</ele>
        <time>2020-06-10T16:36:20Z</time>
      </trkpt>
      <trkpt lat="48.54734" lon="-3.38875">
        <ele>138.2</ele>
        <time>2020-06-10T16:36:21Z</time>
      </trkpt>
      <trkpt lat="48.54734" lon="-3.38874">
        <ele>138.2</ele>
        <time>2020-06-10T16:36:22Z</time>
      </trkpt>
      <trkpt lat="48.54735" lon="-3.38869">
        <ele>138.5</ele>
        <time>2020-06-10T16:36:23Z</time>
      </trkpt>
      <trkpt lat="48.54735" lon="-3.38868">
        <ele>138.7</ele>
        <time>2020-06-10T16:36:24Z</time>
      </trkpt>
      <trkpt lat="48.54736" lon="-3.38863">
        <ele>139</ele>
        <time>2020-06-10T16:36:25Z</time>
      </trkpt>
      <trkpt lat="48.54735" lon="-3.38861">
        <ele>139.1</ele>
        <time>2020-06-10T16:36:26Z</time>
      </trkpt>
      <trkpt lat="48.54736" lon="-3.38856">
        <ele>139.3</ele>
        <time>2020-06-10T16:36:27Z</time>
      </trkpt>
      <trkpt lat="48.54736" lon="-3.38855">
        <ele>139.4</ele>
        <time>2020-06-10T16:36:28Z</time>
      </trkpt>
      <trkpt lat="48.54737" lon="-3.38851">
        <ele>139.7</ele>
        <time>2020-06-10T16:36:29Z</time>
      </trkpt>
      <trkpt lat="48.54738" lon="-3.38849">
        <ele>139.8</ele>
        <time>2020-06-10T16:36:30Z</time>
      </trkpt>
      <trkpt lat="48.5474" lon="-3.38846">
        <ele>140</ele>
        <time>2020-06-10T16:36:31Z</time>
      </trkpt>
      <trkpt lat="48.5474" lon="-3.38845">
        <ele>140.1</ele>
        <time>2020-06-10T16:36:32Z</time>
      </trkpt>
      <trkpt lat="48.54742" lon="-3.38842">
        <ele>140.3</ele>
        <time>2020-06-10T16:36:33Z</time>
      </trkpt>
      <trkpt lat="48.54743" lon="-3.38836">
        <ele>140.6</ele>
        <time>2020-06-10T16:36:34Z</time>
      </trkpt>
      <trkpt lat="48.54743" lon="-3.38835">
        <ele>140.7</ele>
        <time>2020-06-10T16:36:35Z</time>
      </trkpt>
      <trkpt lat="48.54744" lon="-3.38831">
        <ele>140.9</ele>
        <time>2020-06-10T16:36:36Z</time>
      </trkpt>
      <trkpt lat="48.54744" lon="-3.38829">
        <ele>141</ele>
        <time>2020-06-10T16:36:37Z</time>
      </trkpt>
      <trkpt lat="48.54745" lon="-3.38824">
        <ele>141.3</ele>
        <time>2020-06-10T16:36:38Z</time>
      </trkpt>
      <trkpt lat="48.54745" lon="-3.38822">
        <ele>141.4</ele>
        <time>2020-06-10T16:36:39Z</time>
      </trkpt>
      <trkpt lat="48.54746" lon="-3.38817">
        <ele>141.7</ele>
        <time>2020-06-10T16:36:40Z</time>
      </trkpt>
      <trkpt lat="48.54747" lon="-3.38816">
        <ele>141.8</ele>
        <time>2020-06-10T16:36:41Z</time>
      </trkpt>
      <trkpt lat="48.54748" lon="-3.38811">
        <ele>142</ele>
        <time>2020-06-10T16:36:42Z</time>
      </trkpt>
      <trkpt lat="48.54748" lon="-3.3881">
        <ele>142.1</ele>
        <time>2020-06-10T16:36:43Z</time>
      </trkpt>
      <trkpt lat="48.5475" lon="-3.38805">
        <ele>142.3</ele>
        <time>2020-06-10T16:36:44Z</time>
      </trkpt>
      <trkpt lat="48.5475" lon="-3.38803">
        <ele>142.4</ele>
        <time>2020-06-10T16:36:45Z</time>
      </trkpt>
      <trkpt lat="48.54751" lon="-3.38799">
        <ele>142.6</ele>
        <time>2020-06-10T16:36:46Z</time>
      </trkpt>
      <trkpt lat="48.54752" lon="-3.38797">
        <ele>142.7</ele>
        <time>2020-06-10T16:36:47Z</time>
      </trkpt>
      <trkpt lat="48.54754" lon="-3.38793">
        <ele>142.9</ele>
        <time>2020-06-10T16:36:48Z</time>
      </trkpt>
      <trkpt lat="48.54755" lon="-3.38791">
        <ele>143</ele>
        <time>2020-06-10T16:36:49Z</time>
      </trkpt>
      <trkpt lat="48.54756" lon="-3.38788">
        <ele>143.2</ele>
        <time>2020-06-10T16:36:50Z</time>
      </trkpt>
      <trkpt lat="48.54757" lon="-3.38786">
        <ele>143.2</ele>
        <time>2020-06-10T16:36:51Z</time>
      </trkpt>
      <trkpt lat="48.54758" lon="-3.38783">
        <ele>143.4</ele>
        <time>2020-06-10T16:36:52Z</time>
      </trkpt>
      <trkpt lat="48.54759" lon="-3.38781">
        <ele>143.5</ele>
        <time>2020-06-10T16:36:53Z</time>
      </trkpt>
      <trkpt lat="48.54761" lon="-3.38777">
        <ele>143.7</ele>
        <time>2020-06-10T16:36:54Z</time>
      </trkpt>
      <trkpt lat="48.54761" lon="-3.38775">
        <ele>143.8</ele>
        <time>2020-06-10T16:36:55Z</time>
      </trkpt>
      <trkpt lat="48.54763" lon="-3.38771">
        <ele>144</ele>
        <time>2020-06-10T16:36:56Z</time>
      </trkpt>
      <trkpt lat="48.54763" lon="-3.38769">
        <ele>144.1</ele>
        <time>2020-06-10T16:36:57Z</time>
      </trkpt>
      <trkpt lat="48.54764" lon="-3.38766">
        <ele>144.3</ele>
        <time>2020-06-10T16:36:58Z</time>
      </trkpt>
      <trkpt lat="48.54765" lon="-3.38764">
        <ele>144.4</ele>
        <time>2020-06-10T16:36:59Z</time>
      </trkpt>
      <trkpt lat="48.54767" lon="-3.38759">
        <ele>144.6</ele>
        <time>2020-06-10T16:37:00Z</time>
      </trkpt>
      <trkpt lat="48.54767" lon="-3.38758">
        <ele>144.7</ele>
        <time>2020-06-10T16:37:01Z</time>
      </trkpt>
      <trkpt lat="48.54769" lon="-3.38753">
        <ele>144.9</ele>
        <time>2020-06-10T16:37:02Z</time>
      </trkpt>
      <trkpt lat="48.5477" lon="-3.38752">
        <ele>144.9</ele>
        <time>2020-06-10T16:37:03Z</time>
      </trkpt>
      <trkpt lat="48.54771" lon="-3.38747">
        <ele>145.1</ele>
        <time>2020-06-10T16:37:04Z</time>
      </trkpt>
      <trkpt lat="48.54772" lon="-3.38746">
        <ele>145.1</ele>
        <time>2020-06-10T16:37:05Z</time>
      </trkpt>
      <trkpt lat="48.54774" lon="-3.38742">
        <ele>145.2</ele>
        <time>2020-06-10T16:37:06Z</time>
      </trkpt>
      <trkpt lat="48.54774" lon="-3.38741">
        <ele>145.2</ele>
        <time>2020-06-10T16:37:07Z</time>
      </trkpt>
      <trkpt lat="48.54776" lon="-3.38737">
        <ele>145.4</ele>
        <time>2020-06-10T16:37:08Z</time>
      </trkpt>
      <trkpt lat="48.54777" lon="-3.38736">
        <ele>145.4</ele>
        <time>2020-06-10T16:37:09Z</time>
      </trkpt>
      <trkpt lat="48.54777" lon="-3.38733">
        <ele>145.5</ele>
        <time>2020-06-10T16:37:10Z</time>
      </trkpt>
      <trkpt lat="48.54777" lon="-3.3873">
        <ele>145.6</ele>
        <time>2020-06-10T16:37:11Z</time>
      </trkpt>
      <trkpt lat="48.54778" lon="-3.38726">
        <ele>145.7</ele>
        <time>2020-06-10T16:37:12Z</time>
      </trkpt>
      <trkpt lat="48.54778" lon="-3.38725">
        <ele>145.8</ele>
        <time>2020-06-10T16:37:13Z</time>
      </trkpt>
      <trkpt lat="48.54779" lon="-3.38722">
        <ele>145.8</ele>
        <time>2020-06-10T16:37:14Z</time>
      </trkpt>
      <trkpt lat="48.5478" lon="-3.3872">
        <ele>145.9</ele>
        <time>2020-06-10T16:37:15Z</time>
      </trkpt>
      <trkpt lat="48.5478" lon="-3.38716">
        <ele>146</ele>
        <time>2020-06-10T16:37:16Z</time>
      </trkpt>
      <trkpt lat="48.5478" lon="-3.38715">
        <ele>146</ele>
        <time>2020-06-10T16:37:17Z</time>
      </trkpt>
      <trkpt lat="48.54781" lon="-3.3871">
        <ele>146.1</ele>
        <time>2020-06-10T16:37:18Z</time>
      </trkpt>
      <trkpt lat="48.54782" lon="-3.38709">
        <ele>146.2</ele>
        <time>2020-06-10T16:37:19Z</time>
      </trkpt>
      <trkpt lat="48.54784" lon="-3.38704">
        <ele>146.3</ele>
        <time>2020-06-10T16:37:20Z</time>
      </trkpt>
      <trkpt lat="48.54784" lon="-3.38703">
        <ele>146.3</ele>
        <time>2020-06-10T16:37:21Z</time>
      </trkpt>
      <trkpt lat="48.54785" lon="-3.38701">
        <ele>146.4</ele>
        <time>2020-06-10T16:37:22Z</time>
      </trkpt>
      <trkpt lat="48.54785" lon="-3.38699">
        <ele>146.4</ele>
        <time>2020-06-10T16:37:23Z</time>
      </trkpt>
      <trkpt lat="48.54786" lon="-3.38697">
        <ele>146.4</ele>
        <time>2020-06-10T16:37:24Z</time>
      </trkpt>
      <trkpt lat="48.54786" lon="-3.38696">
        <ele>146.5</ele>
        <time>2020-06-10T16:37:25Z</time>
      </trkpt>
      <trkpt lat="48.54787" lon="-3.38695">
        <ele>146.5</ele>
        <time>2020-06-10T16:37:26Z</time>
      </trkpt>
      <trkpt lat="48.54787" lon="-3.38695">
        <ele>146.5</ele>
        <time>2020-06-10T16:37:27Z</time>
      </trkpt>
      <trkpt lat="48.54787" lon="-3.38695">
        <ele>146.5</ele>
        <time>2020-06-10T16:37:28Z</time>
      </trkpt>
      <trkpt lat="48.54787" lon="-3.38695">
        <ele>146.5</ele>
        <time>2020-06-10T16:37:29Z</time>
      </trkpt>
      <trkpt lat="48.54787" lon="-3.38695">
        <ele>146.5</ele>
        <time>2020-06-10T16:37:30Z</time>
      </trkpt>
      <trkpt lat="48.54787" lon="-3.38695">
        <ele>146.5</ele>
        <time>2020-06-10T16:37:31Z</time>
      </trkpt>
      <trkpt lat="48.54787" lon="-3.38695">
        <ele>146.5</ele>
        <time>2020-06-10T16:37:32Z</time>
      </trkpt>
      <trkpt lat="48.54787" lon="-3.38695">
        <ele>146.5</ele>
        <time>2020-06-10T16:37:33Z</time>
      </trkpt>
      <trkpt lat="48.54787" lon="-3.38695">
        <ele>146.5</ele>
        <time>2020-06-10T16:37:34Z</time>
      </trkpt>
      <trkpt lat="48.54788" lon="-3.38693">
        <ele>146.6</ele>
        <time>2020-06-10T16:37:35Z</time>
      </trkpt>
      <trkpt lat="48.54788" lon="-3.38693">
        <ele>146.6</ele>
        <time>2020-06-10T16:37:36Z</time>
      </trkpt>
      <trkpt lat="48.54786" lon="-3.38691">
        <ele>146.6</ele>
        <time>2020-06-10T16:37:37Z</time>
      </trkpt>
      <trkpt lat="48.54785" lon="-3.3869">
        <ele>146.7</ele>
        <time>2020-06-10T16:37:38Z</time>
      </trkpt>
      <trkpt lat="48.54785" lon="-3.38688">
        <ele>146.7</ele>
        <time>2020-06-10T16:37:39Z</time>
      </trkpt>
      <trkpt lat="48.54784" lon="-3.38687">
        <ele>146.7</ele>
        <time>2020-06-10T16:37:40Z</time>
      </trkpt>
      <trkpt lat="48.54785" lon="-3.38686">
        <ele>146.7</ele>
        <time>2020-06-10T16:37:41Z</time>
      </trkpt>
      <trkpt lat="48.54785" lon="-3.38686">
        <ele>146.7</ele>
        <time>2020-06-10T16:37:42Z</time>
      </trkpt>
      <trkpt lat="48.54785" lon="-3.38685">
        <ele>146.7</ele>
        <time>2020-06-10T16:37:43Z</time>
      </trkpt>
      <trkpt lat="48.54786" lon="-3.38684">
        <ele>146.7</ele>
        <time>2020-06-10T16:37:44Z</time>
      </trkpt>
      <trkpt lat="48.54786" lon="-3.38684">
        <ele>146.7</ele>
        <time>2020-06-10T16:37:45Z</time>
      </trkpt>
      <trkpt lat="48.54786" lon="-3.38683">
        <ele>146.8</ele>
        <time>2020-06-10T16:37:46Z</time>
      </trkpt>
      <trkpt lat="48.54787" lon="-3.38683">
        <ele>146.8</ele>
        <time>2020-06-10T16:37:47Z</time>
      </trkpt>
      <trkpt lat="48.54787" lon="-3.38682">
        <ele>146.8</ele>
        <time>2020-06-10T16:37:48Z</time>
      </trkpt>
      <trkpt lat="48.54787" lon="-3.38682">
        <ele>146.8</ele>
        <time>2020-06-10T16:37:49Z</time>
      </trkpt>
      <trkpt lat="48.54788" lon="-3.38681">
        <ele>146.8</ele>
        <time>2020-06-10T16:37:50Z</time>
      </trkpt>
      <trkpt lat="48.54788" lon="-3.3868">
        <ele>146.8</ele>
        <time>2020-06-10T16:37:51Z</time>
      </trkpt>
      <trkpt lat="48.54788" lon="-3.3868">
        <ele>146.8</ele>
        <time>2020-06-10T16:39:25Z</time>
      </trkpt>
      <trkpt lat="48.54789" lon="-3.38679">
        <ele>146.8</ele>
        <time>2020-06-10T16:39:26Z</time>
      </trkpt>
      <trkpt lat="48.54791" lon="-3.38676">
        <ele>146.9</ele>
        <time>2020-06-10T16:39:27Z</time>
      </trkpt>
      <trkpt lat="48.54795" lon="-3.38672">
        <ele>146.9</ele>
        <time>2020-06-10T16:39:28Z</time>
      </trkpt>
      <trkpt lat="48.54797" lon="-3.38668">
        <ele>146.9</ele>
        <time>2020-06-10T16:39:29Z</time>
      </trkpt>
      <trkpt lat="48.54798" lon="-3.38663">
        <ele>147</ele>
        <time>2020-06-10T16:39:30Z</time>
      </trkpt>
      <trkpt lat="48.548" lon="-3.38658">
        <ele>147</ele>
        <time>2020-06-10T16:39:31Z</time>
      </trkpt>
      <trkpt lat="48.54801" lon="-3.38654">
        <ele>147.1</ele>
        <time>2020-06-10T16:39:32Z</time>
      </trkpt>
      <trkpt lat="48.54803" lon="-3.38649">
        <ele>147.1</ele>
        <time>2020-06-10T16:39:33Z</time>
      </trkpt>
      <trkpt lat="48.54806" lon="-3.38645">
        <ele>147.1</ele>
        <time>2020-06-10T16:39:34Z</time>
      </trkpt>
      <trkpt lat="48.54808" lon="-3.38641">
        <ele>147.2</ele>
        <time>2020-06-10T16:39:35Z</time>
      </trkpt>
      <trkpt lat="48.5481" lon="-3.38636">
        <ele>147.2</ele>
        <time>2020-06-10T16:39:36Z</time>
      </trkpt>
      <trkpt lat="48.54811" lon="-3.38629">
        <ele>147.2</ele>
        <time>2020-06-10T16:39:37Z</time>
      </trkpt>
      <trkpt lat="48.54813" lon="-3.38626">
        <ele>147.3</ele>
        <time>2020-06-10T16:39:38Z</time>
      </trkpt>
      <trkpt lat="48.54814" lon="-3.38621">
        <ele>147.3</ele>
        <time>2020-06-10T16:39:39Z</time>
      </trkpt>
      <trkpt lat="48.54816" lon="-3.38615">
        <ele>147.3</ele>
        <time>2020-06-10T16:39:40Z</time>
      </trkpt>
      <trkpt lat="48.54818" lon="-3.3861">
        <ele>147.4</ele>
        <time>2020-06-10T16:39:41Z</time>
      </trkpt>
      <trkpt lat="48.54819" lon="-3.38605">
        <ele>147.4</ele>
        <time>2020-06-10T16:39:42Z</time>
      </trkpt>
      <trkpt lat="48.5482" lon="-3.386">
        <ele>147.5</ele>
        <time>2020-06-10T16:39:43Z</time>
      </trkpt>
      <trkpt lat="48.54823" lon="-3.38596">
        <ele>147.5</ele>
        <time>2020-06-10T16:39:44Z</time>
      </trkpt>
      <trkpt lat="48.54825" lon="-3.38591">
        <ele>147.5</ele>
        <time>2020-06-10T16:39:45Z</time>
      </trkpt>
      <trkpt lat="48.54828" lon="-3.38587">
        <ele>147.6</ele>
        <time>2020-06-10T16:39:46Z</time>
      </trkpt>
      <trkpt lat="48.5483" lon="-3.38583">
        <ele>147.6</ele>
        <time>2020-06-10T16:39:47Z</time>
      </trkpt>
      <trkpt lat="48.54832" lon="-3.38577">
        <ele>147.6</ele>
        <time>2020-06-10T16:39:48Z</time>
      </trkpt>
      <trkpt lat="48.54834" lon="-3.38572">
        <ele>147.7</ele>
        <time>2020-06-10T16:39:49Z</time>
      </trkpt>
      <trkpt lat="48.54836" lon="-3.38567">
        <ele>147.7</ele>
        <time>2020-06-10T16:39:50Z</time>
      </trkpt>
      <trkpt lat="48.54837" lon="-3.3856">
        <ele>147.8</ele>
        <time>2020-06-10T16:39:51Z</time>
      </trkpt>
      <trkpt lat="48.54839" lon="-3.38554">
        <ele>147.8</ele>
        <time>2020-06-10T16:39:52Z</time>
      </trkpt>
      <trkpt lat="48.5484" lon="-3.38549">
        <ele>147.9</ele>
        <time>2020-06-10T16:39:53Z</time>
      </trkpt>
      <trkpt lat="48.54843" lon="-3.38544">
        <ele>148</ele>
        <time>2020-06-10T16:39:54Z</time>
      </trkpt>
      <trkpt lat="48.54845" lon="-3.3854">
        <ele>148</ele>
        <time>2020-06-10T16:39:55Z</time>
      </trkpt>
      <trkpt lat="48.54847" lon="-3.38536">
        <ele>148.1</ele>
        <time>2020-06-10T16:39:56Z</time>
      </trkpt>
      <trkpt lat="48.54849" lon="-3.38531">
        <ele>148.2</ele>
        <time>2020-06-10T16:39:57Z</time>
      </trkpt>
      <trkpt lat="48.5485" lon="-3.38526">
        <ele>148.3</ele>
        <time>2020-06-10T16:39:58Z</time>
      </trkpt>
      <trkpt lat="48.54852" lon="-3.38521">
        <ele>148.4</ele>
        <time>2020-06-10T16:39:59Z</time>
      </trkpt>
      <trkpt lat="48.54853" lon="-3.38516">
        <ele>148.5</ele>
        <time>2020-06-10T16:40:00Z</time>
      </trkpt>
      <trkpt lat="48.54855" lon="-3.38512">
        <ele>148.6</ele>
        <time>2020-06-10T16:40:01Z</time>
      </trkpt>
      <trkpt lat="48.54857" lon="-3.38507">
        <ele>148.8</ele>
        <time>2020-06-10T16:40:02Z</time>
      </trkpt>
      <trkpt lat="48.54858" lon="-3.38503">
        <ele>148.9</ele>
        <time>2020-06-10T16:40:03Z</time>
      </trkpt>
      <trkpt lat="48.54861" lon="-3.38501">
        <ele>149</ele>
        <time>2020-06-10T16:40:04Z</time>
      </trkpt>
      <trkpt lat="48.54863" lon="-3.38496">
        <ele>149.2</ele>
        <time>2020-06-10T16:40:05Z</time>
      </trkpt>
      <trkpt lat="48.54865" lon="-3.38491">
        <ele>149.3</ele>
        <time>2020-06-10T16:40:06Z</time>
      </trkpt>
      <trkpt lat="48.54865" lon="-3.38486">
        <ele>149.5</ele>
        <time>2020-06-10T16:40:07Z</time>
      </trkpt>
      <trkpt lat="48.54867" lon="-3.38481">
        <ele>149.6</ele>
        <time>2020-06-10T16:40:08Z</time>
      </trkpt>
      <trkpt lat="48.54868" lon="-3.38479">
        <ele>149.7</ele>
        <time>2020-06-10T16:40:09Z</time>
      </trkpt>
      <trkpt lat="48.54869" lon="-3.38475">
        <ele>149.8</ele>
        <time>2020-06-10T16:40:10Z</time>
      </trkpt>
      <trkpt lat="48.54871" lon="-3.38471">
        <ele>149.9</ele>
        <time>2020-06-10T16:40:11Z</time>
      </trkpt>
      <trkpt lat="48.54872" lon="-3.3847">
        <ele>150</ele>
        <time>2020-06-10T16:40:12Z</time>
      </trkpt>
      <trkpt lat="48.54874" lon="-3.38466">
        <ele>150.1</ele>
        <time>2020-06-10T16:40:13Z</time>
      </trkpt>
      <trkpt lat="48.54874" lon="-3.38464">
        <ele>150.1</ele>
        <time>2020-06-10T16:40:14Z</time>
      </trkpt>
      <trkpt lat="48.54876" lon="-3.38459">
        <ele>150.2</ele>
        <time>2020-06-10T16:40:15Z</time>
      </trkpt>
      <trkpt lat="48.54876" lon="-3.38457">
        <ele>150.2</ele>
        <time>2020-06-10T16:40:16Z</time>
      </trkpt>
      <trkpt lat="48.54877" lon="-3.38453">
        <ele>150.3</ele>
        <time>2020-06-10T16:40:17Z</time>
      </trkpt>
      <trkpt lat="48.54878" lon="-3.38451">
        <ele>150.3</ele>
        <time>2020-06-10T16:40:18Z</time>
      </trkpt>
      <trkpt lat="48.5488" lon="-3.38447">
        <ele>150.4</ele>
        <time>2020-06-10T16:40:19Z</time>
      </trkpt>
      <trkpt lat="48.5488" lon="-3.38445">
        <ele>150.4</ele>
        <time>2020-06-10T16:40:20Z</time>
      </trkpt>
      <trkpt lat="48.54882" lon="-3.38441">
        <ele>150.4</ele>
        <time>2020-06-10T16:40:21Z</time>
      </trkpt>
      <trkpt lat="48.54883" lon="-3.38437">
        <ele>150.4</ele>
        <time>2020-06-10T16:40:22Z</time>
      </trkpt>
      <trkpt lat="48.54885" lon="-3.38433">
        <ele>150.4</ele>
        <time>2020-06-10T16:40:23Z</time>
      </trkpt>
      <trkpt lat="48.54886" lon="-3.38428">
        <ele>150.4</ele>
        <time>2020-06-10T16:40:24Z</time>
      </trkpt>
      <trkpt lat="48.54888" lon="-3.38424">
        <ele>150.4</ele>
        <time>2020-06-10T16:40:25Z</time>
      </trkpt>
      <trkpt lat="48.5489" lon="-3.38419">
        <ele>150.4</ele>
        <time>2020-06-10T16:40:26Z</time>
      </trkpt>
      <trkpt lat="48.54892" lon="-3.38416">
        <ele>150.4</ele>
        <time>2020-06-10T16:40:27Z</time>
      </trkpt>
      <trkpt lat="48.54894" lon="-3.38411">
        <ele>150.4</ele>
        <time>2020-06-10T16:40:28Z</time>
      </trkpt>
      <trkpt lat="48.54895" lon="-3.38407">
        <ele>150.3</ele>
        <time>2020-06-10T16:40:29Z</time>
      </trkpt>
      <trkpt lat="48.54897" lon="-3.38403">
        <ele>150.3</ele>
        <time>2020-06-10T16:40:30Z</time>
      </trkpt>
      <trkpt lat="48.54898" lon="-3.38399">
        <ele>150.3</ele>
        <time>2020-06-10T16:40:31Z</time>
      </trkpt>
      <trkpt lat="48.54899" lon="-3.38395">
        <ele>150.3</ele>
        <time>2020-06-10T16:40:32Z</time>
      </trkpt>
      <trkpt lat="48.549" lon="-3.38391">
        <ele>150.2</ele>
        <time>2020-06-10T16:40:33Z</time>
      </trkpt>
      <trkpt lat="48.54901" lon="-3.38388">
        <ele>150.2</ele>
        <time>2020-06-10T16:40:34Z</time>
      </trkpt>
      <trkpt lat="48.54901" lon="-3.38386">
        <ele>150.2</ele>
        <time>2020-06-10T16:40:35Z</time>
      </trkpt>
      <trkpt lat="48.54901" lon="-3.38385">
        <ele>150.1</ele>
        <time>2020-06-10T16:40:36Z</time>
      </trkpt>
      <trkpt lat="48.54901" lon="-3.38384">
        <ele>150.1</ele>
        <time>2020-06-10T16:40:37Z</time>
      </trkpt>
      <trkpt lat="48.54901" lon="-3.38382">
        <ele>150.1</ele>
        <time>2020-06-10T16:40:38Z</time>
      </trkpt>
      <trkpt lat="48.54901" lon="-3.38381">
        <ele>150.1</ele>
        <time>2020-06-10T16:40:39Z</time>
      </trkpt>
      <trkpt lat="48.54901" lon="-3.3838">
        <ele>150.1</ele>
        <time>2020-06-10T16:40:40Z</time>
      </trkpt>
      <trkpt lat="48.54901" lon="-3.38379">
        <ele>150.1</ele>
        <time>2020-06-10T16:40:41Z</time>
      </trkpt>
      <trkpt lat="48.54901" lon="-3.38378">
        <ele>150.1</ele>
        <time>2020-06-10T16:40:42Z</time>
      </trkpt>
      <trkpt lat="48.54901" lon="-3.38377">
        <ele>150.1</ele>
        <time>2020-06-10T16:40:43Z</time>
      </trkpt>
      <trkpt lat="48.54901" lon="-3.38376">
        <ele>150</ele>
        <time>2020-06-10T16:40:44Z</time>
      </trkpt>
      <trkpt lat="48.54901" lon="-3.38375">
        <ele>150</ele>
        <time>2020-06-10T16:40:45Z</time>
      </trkpt>
      <trkpt lat="48.54901" lon="-3.38374">
        <ele>150</ele>
        <time>2020-06-10T16:40:57Z</time>
      </trkpt>
      <trkpt lat="48.54901" lon="-3.38373">
        <ele>150</ele>
        <time>2020-06-10T16:40:58Z</time>
      </trkpt>
      <trkpt lat="48.54902" lon="-3.38367">
        <ele>149.9</ele>
        <time>2020-06-10T16:40:59Z</time>
      </trkpt>
      <trkpt lat="48.54902" lon="-3.38365">
        <ele>149.9</ele>
        <time>2020-06-10T16:41:00Z</time>
      </trkpt>
      <trkpt lat="48.54904" lon="-3.3836">
        <ele>149.8</ele>
        <time>2020-06-10T16:41:01Z</time>
      </trkpt>
      <trkpt lat="48.54904" lon="-3.38358">
        <ele>149.8</ele>
        <time>2020-06-10T16:41:02Z</time>
      </trkpt>
      <trkpt lat="48.54907" lon="-3.38355">
        <ele>149.8</ele>
        <time>2020-06-10T16:41:03Z</time>
      </trkpt>
      <trkpt lat="48.54909" lon="-3.38351">
        <ele>149.8</ele>
        <time>2020-06-10T16:41:04Z</time>
      </trkpt>
      <trkpt lat="48.54911" lon="-3.38348">
        <ele>149.9</ele>
        <time>2020-06-10T16:41:05Z</time>
      </trkpt>
      <trkpt lat="48.54913" lon="-3.38343">
        <ele>149.9</ele>
        <time>2020-06-10T16:41:06Z</time>
      </trkpt>
      <trkpt lat="48.54914" lon="-3.38342">
        <ele>149.9</ele>
        <time>2020-06-10T16:41:07Z</time>
      </trkpt>
      <trkpt lat="48.54916" lon="-3.38338">
        <ele>149.9</ele>
        <time>2020-06-10T16:41:08Z</time>
      </trkpt>
      <trkpt lat="48.54918" lon="-3.38337">
        <ele>149.9</ele>
        <time>2020-06-10T16:41:09Z</time>
      </trkpt>
      <trkpt lat="48.5492" lon="-3.38333">
        <ele>149.9</ele>
        <time>2020-06-10T16:41:10Z</time>
      </trkpt>
      <trkpt lat="48.54923" lon="-3.38328">
        <ele>149.8</ele>
        <time>2020-06-10T16:41:11Z</time>
      </trkpt>
      <trkpt lat="48.54925" lon="-3.38323">
        <ele>149.8</ele>
        <time>2020-06-10T16:41:12Z</time>
      </trkpt>
      <trkpt lat="48.54927" lon="-3.38318">
        <ele>149.8</ele>
        <time>2020-06-10T16:41:13Z</time>
      </trkpt>
      <trkpt lat="48.5493" lon="-3.38314">
        <ele>149.7</ele>
        <time>2020-06-10T16:41:14Z</time>
      </trkpt>
      <trkpt lat="48.54932" lon="-3.38309">
        <ele>149.7</ele>
        <time>2020-06-10T16:41:15Z</time>
      </trkpt>
      <trkpt lat="48.54934" lon="-3.38303">
        <ele>149.6</ele>
        <time>2020-06-10T16:41:16Z</time>
      </trkpt>
      <trkpt lat="48.54936" lon="-3.38298">
        <ele>149.6</ele>
        <time>2020-06-10T16:41:17Z</time>
      </trkpt>
      <trkpt lat="48.54938" lon="-3.38292">
        <ele>149.5</ele>
        <time>2020-06-10T16:41:18Z</time>
      </trkpt>
      <trkpt lat="48.5494" lon="-3.38287">
        <ele>149.5</ele>
        <time>2020-06-10T16:41:19Z</time>
      </trkpt>
      <trkpt lat="48.54942" lon="-3.38282">
        <ele>149.4</ele>
        <time>2020-06-10T16:41:20Z</time>
      </trkpt>
      <trkpt lat="48.54944" lon="-3.38274">
        <ele>149.3</ele>
        <time>2020-06-10T16:41:21Z</time>
      </trkpt>
      <trkpt lat="48.54946" lon="-3.38269">
        <ele>149.3</ele>
        <time>2020-06-10T16:41:22Z</time>
      </trkpt>
      <trkpt lat="48.54946" lon="-3.38264">
        <ele>149.2</ele>
        <time>2020-06-10T16:41:23Z</time>
      </trkpt>
      <trkpt lat="48.54948" lon="-3.38259">
        <ele>149.1</ele>
        <time>2020-06-10T16:41:24Z</time>
      </trkpt>
      <trkpt lat="48.5495" lon="-3.38253">
        <ele>149.1</ele>
        <time>2020-06-10T16:41:25Z</time>
      </trkpt>
      <trkpt lat="48.54952" lon="-3.3825">
        <ele>149</ele>
        <time>2020-06-10T16:41:26Z</time>
      </trkpt>
      <trkpt lat="48.54954" lon="-3.38245">
        <ele>149</ele>
        <time>2020-06-10T16:41:27Z</time>
      </trkpt>
      <trkpt lat="48.54956" lon="-3.3824">
        <ele>149</ele>
        <time>2020-06-10T16:41:28Z</time>
      </trkpt>
      <trkpt lat="48.54957" lon="-3.38234">
        <ele>148.9</ele>
        <time>2020-06-10T16:41:29Z</time>
      </trkpt>
      <trkpt lat="48.5496" lon="-3.38227">
        <ele>148.8</ele>
        <time>2020-06-10T16:41:30Z</time>
      </trkpt>
      <trkpt lat="48.54963" lon="-3.3822">
        <ele>148.7</ele>
        <time>2020-06-10T16:41:31Z</time>
      </trkpt>
      <trkpt lat="48.54966" lon="-3.38215">
        <ele>148.6</ele>
        <time>2020-06-10T16:41:32Z</time>
      </trkpt>
      <trkpt lat="48.5497" lon="-3.38206">
        <ele>148.4</ele>
        <time>2020-06-10T16:41:33Z</time>
      </trkpt>
      <trkpt lat="48.54972" lon="-3.382">
        <ele>148.3</ele>
        <time>2020-06-10T16:41:34Z</time>
      </trkpt>
      <trkpt lat="48.54975" lon="-3.38192">
        <ele>148.2</ele>
        <time>2020-06-10T16:41:35Z</time>
      </trkpt>
      <trkpt lat="48.54978" lon="-3.38185">
        <ele>148</ele>
        <time>2020-06-10T16:41:36Z</time>
      </trkpt>
      <trkpt lat="48.54981" lon="-3.38177">
        <ele>147.9</ele>
        <time>2020-06-10T16:41:37Z</time>
      </trkpt>
      <trkpt lat="48.54984" lon="-3.38169">
        <ele>147.7</ele>
        <time>2020-06-10T16:41:38Z</time>
      </trkpt>
      <trkpt lat="48.54987" lon="-3.38162">
        <ele>147.5</ele>
        <time>2020-06-10T16:41:39Z</time>
      </trkpt>
      <trkpt lat="48.54989" lon="-3.38153">
        <ele>147.3</ele>
        <time>2020-06-10T16:41:40Z</time>
      </trkpt>
      <trkpt lat="48.54992" lon="-3.38145">
        <ele>147.1</ele>
        <time>2020-06-10T16:41:41Z</time>
      </trkpt>
      <trkpt lat="48.54996" lon="-3.38137">
        <ele>146.9</ele>
        <time>2020-06-10T16:41:42Z</time>
      </trkpt>
      <trkpt lat="48.54999" lon="-3.38129">
        <ele>146.6</ele>
        <time>2020-06-10T16:41:43Z</time>
      </trkpt>
      <trkpt lat="48.55003" lon="-3.3812">
        <ele>146.5</ele>
        <time>2020-06-10T16:41:44Z</time>
      </trkpt>
      <trkpt lat="48.55007" lon="-3.38111">
        <ele>146.3</ele>
        <time>2020-06-10T16:41:45Z</time>
      </trkpt>
      <trkpt lat="48.5501" lon="-3.38101">
        <ele>146.1</ele>
        <time>2020-06-10T16:41:46Z</time>
      </trkpt>
      <trkpt lat="48.55014" lon="-3.38092">
        <ele>145.9</ele>
        <time>2020-06-10T16:41:47Z</time>
      </trkpt>
      <trkpt lat="48.55017" lon="-3.38082">
        <ele>145.6</ele>
        <time>2020-06-10T16:41:48Z</time>
      </trkpt>
      <trkpt lat="48.55021" lon="-3.38072">
        <ele>145.5</ele>
        <time>2020-06-10T16:41:49Z</time>
      </trkpt>
      <trkpt lat="48.55025" lon="-3.38063">
        <ele>145.4</ele>
        <time>2020-06-10T16:41:50Z</time>
      </trkpt>
      <trkpt lat="48.55028" lon="-3.38055">
        <ele>145.3</ele>
        <time>2020-06-10T16:41:51Z</time>
      </trkpt>
      <trkpt lat="48.55032" lon="-3.38046">
        <ele>145.2</ele>
        <time>2020-06-10T16:41:52Z</time>
      </trkpt>
      <trkpt lat="48.55035" lon="-3.38037">
        <ele>145.1</ele>
        <time>2020-06-10T16:41:53Z</time>
      </trkpt>
      <trkpt lat="48.55038" lon="-3.38029">
        <ele>145</ele>
        <time>2020-06-10T16:41:54Z</time>
      </trkpt>
      <trkpt lat="48.55041" lon="-3.38021">
        <ele>144.9</ele>
        <time>2020-06-10T16:41:55Z</time>
      </trkpt>
      <trkpt lat="48.55043" lon="-3.38013">
        <ele>144.8</ele>
        <time>2020-06-10T16:41:56Z</time>
      </trkpt>
      <trkpt lat="48.55046" lon="-3.38006">
        <ele>144.8</ele>
        <time>2020-06-10T16:41:57Z</time>
      </trkpt>
      <trkpt lat="48.55048" lon="-3.37999">
        <ele>144.8</ele>
        <time>2020-06-10T16:41:58Z</time>
      </trkpt>
      <trkpt lat="48.55051" lon="-3.37992">
        <ele>144.7</ele>
        <time>2020-06-10T16:41:59Z</time>
      </trkpt>
      <trkpt lat="48.55054" lon="-3.37985">
        <ele>144.7</ele>
        <time>2020-06-10T16:42:00Z</time>
      </trkpt>
      <trkpt lat="48.55056" lon="-3.37977">
        <ele>144.7</ele>
        <time>2020-06-10T16:42:01Z</time>
      </trkpt>
      <trkpt lat="48.55059" lon="-3.37971">
        <ele>144.7</ele>
        <time>2020-06-10T16:42:02Z</time>
      </trkpt>
      <trkpt lat="48.55062" lon="-3.37964">
        <ele>144.7</ele>
        <time>2020-06-10T16:42:03Z</time>
      </trkpt>
      <trkpt lat="48.55065" lon="-3.37958">
        <ele>144.7</ele>
        <time>2020-06-10T16:42:04Z</time>
      </trkpt>
      <trkpt lat="48.55066" lon="-3.3795">
        <ele>144.7</ele>
        <time>2020-06-10T16:42:05Z</time>
      </trkpt>
      <trkpt lat="48.55069" lon="-3.37945">
        <ele>144.7</ele>
        <time>2020-06-10T16:42:06Z</time>
      </trkpt>
      <trkpt lat="48.55072" lon="-3.37939">
        <ele>144.7</ele>
        <time>2020-06-10T16:42:07Z</time>
      </trkpt>
      <trkpt lat="48.55075" lon="-3.37932">
        <ele>144.6</ele>
        <time>2020-06-10T16:42:08Z</time>
      </trkpt>
      <trkpt lat="48.55078" lon="-3.37926">
        <ele>144.6</ele>
        <time>2020-06-10T16:42:09Z</time>
      </trkpt>
      <trkpt lat="48.5508" lon="-3.37918">
        <ele>144.5</ele>
        <time>2020-06-10T16:42:10Z</time>
      </trkpt>
      <trkpt lat="48.55082" lon="-3.37912">
        <ele>144.4</ele>
        <time>2020-06-10T16:42:11Z</time>
      </trkpt>
      <trkpt lat="48.55085" lon="-3.37905">
        <ele>144.3</ele>
        <time>2020-06-10T16:42:12Z</time>
      </trkpt>
      <trkpt lat="48.55087" lon="-3.37897">
        <ele>144.2</ele>
        <time>2020-06-10T16:42:13Z</time>
      </trkpt>
      <trkpt lat="48.5509" lon="-3.3789">
        <ele>144.1</ele>
        <time>2020-06-10T16:42:14Z</time>
      </trkpt>
      <trkpt lat="48.55093" lon="-3.37883">
        <ele>143.9</ele>
        <time>2020-06-10T16:42:15Z</time>
      </trkpt>
      <trkpt lat="48.55097" lon="-3.37876">
        <ele>143.8</ele>
        <time>2020-06-10T16:42:16Z</time>
      </trkpt>
      <trkpt lat="48.551" lon="-3.37869">
        <ele>143.6</ele>
        <time>2020-06-10T16:42:17Z</time>
      </trkpt>
      <trkpt lat="48.55103" lon="-3.37862">
        <ele>143.5</ele>
        <time>2020-06-10T16:42:18Z</time>
      </trkpt>
      <trkpt lat="48.55106" lon="-3.37856">
        <ele>143.4</ele>
        <time>2020-06-10T16:42:19Z</time>
      </trkpt>
      <trkpt lat="48.55109" lon="-3.37849">
        <ele>143.2</ele>
        <time>2020-06-10T16:42:20Z</time>
      </trkpt>
      <trkpt lat="48.55111" lon="-3.37841">
        <ele>143.1</ele>
        <time>2020-06-10T16:42:21Z</time>
      </trkpt>
      <trkpt lat="48.55114" lon="-3.37833">
        <ele>142.9</ele>
        <time>2020-06-10T16:42:22Z</time>
      </trkpt>
      <trkpt lat="48.55117" lon="-3.37826">
        <ele>142.7</ele>
        <time>2020-06-10T16:42:23Z</time>
      </trkpt>
      <trkpt lat="48.55121" lon="-3.37818">
        <ele>142.6</ele>
        <time>2020-06-10T16:42:24Z</time>
      </trkpt>
      <trkpt lat="48.55124" lon="-3.3781">
        <ele>142.4</ele>
        <time>2020-06-10T16:42:25Z</time>
      </trkpt>
      <trkpt lat="48.55127" lon="-3.37801">
        <ele>142.3</ele>
        <time>2020-06-10T16:42:26Z</time>
      </trkpt>
      <trkpt lat="48.5513" lon="-3.37792">
        <ele>142.3</ele>
        <time>2020-06-10T16:42:27Z</time>
      </trkpt>
      <trkpt lat="48.55133" lon="-3.37783">
        <ele>142.3</ele>
        <time>2020-06-10T16:42:28Z</time>
      </trkpt>
      <trkpt lat="48.55135" lon="-3.37775">
        <ele>142.4</ele>
        <time>2020-06-10T16:42:29Z</time>
      </trkpt>
      <trkpt lat="48.55136" lon="-3.37766">
        <ele>142.5</ele>
        <time>2020-06-10T16:42:30Z</time>
      </trkpt>
      <trkpt lat="48.55138" lon="-3.37758">
        <ele>142.6</ele>
        <time>2020-06-10T16:42:31Z</time>
      </trkpt>
      <trkpt lat="48.55139" lon="-3.37749">
        <ele>142.7</ele>
        <time>2020-06-10T16:42:32Z</time>
      </trkpt>
      <trkpt lat="48.5514" lon="-3.37742">
        <ele>142.8</ele>
        <time>2020-06-10T16:42:33Z</time>
      </trkpt>
      <trkpt lat="48.5514" lon="-3.37735">
        <ele>142.9</ele>
        <time>2020-06-10T16:42:34Z</time>
      </trkpt>
      <trkpt lat="48.5514" lon="-3.37728">
        <ele>143</ele>
        <time>2020-06-10T16:42:35Z</time>
      </trkpt>
      <trkpt lat="48.55141" lon="-3.37722">
        <ele>143.1</ele>
        <time>2020-06-10T16:42:36Z</time>
      </trkpt>
      <trkpt lat="48.55141" lon="-3.37716">
        <ele>143.2</ele>
        <time>2020-06-10T16:42:37Z</time>
      </trkpt>
      <trkpt lat="48.55141" lon="-3.3771">
        <ele>143.3</ele>
        <time>2020-06-10T16:42:38Z</time>
      </trkpt>
      <trkpt lat="48.55141" lon="-3.37703">
        <ele>143.5</ele>
        <time>2020-06-10T16:42:39Z</time>
      </trkpt>
      <trkpt lat="48.55142" lon="-3.37696">
        <ele>143.6</ele>
        <time>2020-06-10T16:42:40Z</time>
      </trkpt>
      <trkpt lat="48.55142" lon="-3.37689">
        <ele>143.7</ele>
        <time>2020-06-10T16:42:41Z</time>
      </trkpt>
      <trkpt lat="48.55143" lon="-3.37681">
        <ele>143.8</ele>
        <time>2020-06-10T16:42:42Z</time>
      </trkpt>
      <trkpt lat="48.55144" lon="-3.37675">
        <ele>143.9</ele>
        <time>2020-06-10T16:42:43Z</time>
      </trkpt>
      <trkpt lat="48.55146" lon="-3.37668">
        <ele>143.9</ele>
        <time>2020-06-10T16:42:44Z</time>
      </trkpt>
      <trkpt lat="48.55147" lon="-3.37661">
        <ele>144</ele>
        <time>2020-06-10T16:42:45Z</time>
      </trkpt>
      <trkpt lat="48.55147" lon="-3.37654">
        <ele>144.1</ele>
        <time>2020-06-10T16:42:46Z</time>
      </trkpt>
      <trkpt lat="48.55147" lon="-3.37647">
        <ele>144.2</ele>
        <time>2020-06-10T16:42:47Z</time>
      </trkpt>
      <trkpt lat="48.55147" lon="-3.37639">
        <ele>144.3</ele>
        <time>2020-06-10T16:42:48Z</time>
      </trkpt>
      <trkpt lat="48.55147" lon="-3.37632">
        <ele>144.3</ele>
        <time>2020-06-10T16:42:49Z</time>
      </trkpt>
      <trkpt lat="48.55147" lon="-3.37625">
        <ele>144.4</ele>
        <time>2020-06-10T16:42:50Z</time>
      </trkpt>
      <trkpt lat="48.55147" lon="-3.37618">
        <ele>144.5</ele>
        <time>2020-06-10T16:42:51Z</time>
      </trkpt>
      <trkpt lat="48.55147" lon="-3.37611">
        <ele>144.6</ele>
        <time>2020-06-10T16:42:52Z</time>
      </trkpt>
      <trkpt lat="48.55148" lon="-3.37605">
        <ele>144.7</ele>
        <time>2020-06-10T16:42:53Z</time>
      </trkpt>
      <trkpt lat="48.55149" lon="-3.37598">
        <ele>144.8</ele>
        <time>2020-06-10T16:42:54Z</time>
      </trkpt>
      <trkpt lat="48.55149" lon="-3.37591">
        <ele>144.8</ele>
        <time>2020-06-10T16:42:55Z</time>
      </trkpt>
      <trkpt lat="48.5515" lon="-3.37584">
        <ele>144.9</ele>
        <time>2020-06-10T16:42:56Z</time>
      </trkpt>
      <trkpt lat="48.5515" lon="-3.37577">
        <ele>145.1</ele>
        <time>2020-06-10T16:42:57Z</time>
      </trkpt>
      <trkpt lat="48.55151" lon="-3.3757">
        <ele>145.2</ele>
        <time>2020-06-10T16:42:58Z</time>
      </trkpt>
      <trkpt lat="48.55152" lon="-3.37563">
        <ele>145.3</ele>
        <time>2020-06-10T16:42:59Z</time>
      </trkpt>
      <trkpt lat="48.55153" lon="-3.37557">
        <ele>145.5</ele>
        <time>2020-06-10T16:43:00Z</time>
      </trkpt>
      <trkpt lat="48.55152" lon="-3.3755">
        <ele>145.6</ele>
        <time>2020-06-10T16:43:01Z</time>
      </trkpt>
      <trkpt lat="48.55152" lon="-3.37543">
        <ele>145.7</ele>
        <time>2020-06-10T16:43:02Z</time>
      </trkpt>
      <trkpt lat="48.55153" lon="-3.37537">
        <ele>145.7</ele>
        <time>2020-06-10T16:43:03Z</time>
      </trkpt>
      <trkpt lat="48.55153" lon="-3.3753">
        <ele>145.8</ele>
        <time>2020-06-10T16:43:04Z</time>
      </trkpt>
      <trkpt lat="48.55153" lon="-3.37523">
        <ele>145.9</ele>
        <time>2020-06-10T16:43:05Z</time>
      </trkpt>
      <trkpt lat="48.55153" lon="-3.37516">
        <ele>145.9</ele>
        <time>2020-06-10T16:43:06Z</time>
      </trkpt>
      <trkpt lat="48.55153" lon="-3.37509">
        <ele>146</ele>
        <time>2020-06-10T16:43:07Z</time>
      </trkpt>
      <trkpt lat="48.55153" lon="-3.37502">
        <ele>146</ele>
        <time>2020-06-10T16:43:08Z</time>
      </trkpt>
      <trkpt lat="48.55153" lon="-3.37495">
        <ele>146.1</ele>
        <time>2020-06-10T16:43:09Z</time>
      </trkpt>
      <trkpt lat="48.55153" lon="-3.37489">
        <ele>146.1</ele>
        <time>2020-06-10T16:43:10Z</time>
      </trkpt>
      <trkpt lat="48.55154" lon="-3.37482">
        <ele>146.2</ele>
        <time>2020-06-10T16:43:11Z</time>
      </trkpt>
      <trkpt lat="48.55156" lon="-3.37476">
        <ele>146.3</ele>
        <time>2020-06-10T16:43:12Z</time>
      </trkpt>
      <trkpt lat="48.55156" lon="-3.37469">
        <ele>146.4</ele>
        <time>2020-06-10T16:43:13Z</time>
      </trkpt>
      <trkpt lat="48.55156" lon="-3.37462">
        <ele>146.4</ele>
        <time>2020-06-10T16:43:14Z</time>
      </trkpt>
      <trkpt lat="48.55156" lon="-3.37456">
        <ele>146.5</ele>
        <time>2020-06-10T16:43:15Z</time>
      </trkpt>
      <trkpt lat="48.55157" lon="-3.37449">
        <ele>146.6</ele>
        <time>2020-06-10T16:43:16Z</time>
      </trkpt>
      <trkpt lat="48.55158" lon="-3.37442">
        <ele>146.6</ele>
        <time>2020-06-10T16:43:17Z</time>
      </trkpt>
      <trkpt lat="48.55158" lon="-3.37435">
        <ele>146.7</ele>
        <time>2020-06-10T16:43:18Z</time>
      </trkpt>
      <trkpt lat="48.55159" lon="-3.37428">
        <ele>146.8</ele>
        <time>2020-06-10T16:43:19Z</time>
      </trkpt>
      <trkpt lat="48.5516" lon="-3.37421">
        <ele>146.8</ele>
        <time>2020-06-10T16:43:20Z</time>
      </trkpt>
      <trkpt lat="48.5516" lon="-3.37415">
        <ele>146.9</ele>
        <time>2020-06-10T16:43:21Z</time>
      </trkpt>
      <trkpt lat="48.55162" lon="-3.37409">
        <ele>146.9</ele>
        <time>2020-06-10T16:43:22Z</time>
      </trkpt>
      <trkpt lat="48.55163" lon="-3.37402">
        <ele>147</ele>
        <time>2020-06-10T16:43:23Z</time>
      </trkpt>
      <trkpt lat="48.55163" lon="-3.37396">
        <ele>147.1</ele>
        <time>2020-06-10T16:43:24Z</time>
      </trkpt>
      <trkpt lat="48.55164" lon="-3.3739">
        <ele>147.1</ele>
        <time>2020-06-10T16:43:25Z</time>
      </trkpt>
      <trkpt lat="48.55165" lon="-3.37383">
        <ele>147.2</ele>
        <time>2020-06-10T16:43:26Z</time>
      </trkpt>
      <trkpt lat="48.55166" lon="-3.37377">
        <ele>147.2</ele>
        <time>2020-06-10T16:43:27Z</time>
      </trkpt>
      <trkpt lat="48.55167" lon="-3.3737">
        <ele>147.3</ele>
        <time>2020-06-10T16:43:28Z</time>
      </trkpt>
      <trkpt lat="48.55168" lon="-3.37364">
        <ele>147.4</ele>
        <time>2020-06-10T16:43:29Z</time>
      </trkpt>
      <trkpt lat="48.55168" lon="-3.37357">
        <ele>147.4</ele>
        <time>2020-06-10T16:43:30Z</time>
      </trkpt>
      <trkpt lat="48.5517" lon="-3.37351">
        <ele>147.5</ele>
        <time>2020-06-10T16:43:31Z</time>
      </trkpt>
      <trkpt lat="48.55171" lon="-3.37345">
        <ele>147.6</ele>
        <time>2020-06-10T16:43:32Z</time>
      </trkpt>
      <trkpt lat="48.55173" lon="-3.37339">
        <ele>147.6</ele>
        <time>2020-06-10T16:43:33Z</time>
      </trkpt>
      <trkpt lat="48.55175" lon="-3.37333">
        <ele>147.7</ele>
        <time>2020-06-10T16:43:34Z</time>
      </trkpt>
      <trkpt lat="48.55176" lon="-3.37328">
        <ele>147.7</ele>
        <time>2020-06-10T16:43:35Z</time>
      </trkpt>
      <trkpt lat="48.55179" lon="-3.37323">
        <ele>147.8</ele>
        <time>2020-06-10T16:43:36Z</time>
      </trkpt>
      <trkpt lat="48.55181" lon="-3.37318">
        <ele>147.9</ele>
        <time>2020-06-10T16:43:37Z</time>
      </trkpt>
      <trkpt lat="48.55184" lon="-3.37313">
        <ele>147.9</ele>
        <time>2020-06-10T16:43:38Z</time>
      </trkpt>
      <trkpt lat="48.55186" lon="-3.37308">
        <ele>148</ele>
        <time>2020-06-10T16:43:39Z</time>
      </trkpt>
      <trkpt lat="48.55188" lon="-3.37303">
        <ele>148.1</ele>
        <time>2020-06-10T16:43:40Z</time>
      </trkpt>
      <trkpt lat="48.5519" lon="-3.37298">
        <ele>148.2</ele>
        <time>2020-06-10T16:43:41Z</time>
      </trkpt>
      <trkpt lat="48.55192" lon="-3.37293">
        <ele>148.3</ele>
        <time>2020-06-10T16:43:42Z</time>
      </trkpt>
      <trkpt lat="48.55195" lon="-3.37289">
        <ele>148.3</ele>
        <time>2020-06-10T16:43:43Z</time>
      </trkpt>
      <trkpt lat="48.55198" lon="-3.37285">
        <ele>148.4</ele>
        <time>2020-06-10T16:43:44Z</time>
      </trkpt>
      <trkpt lat="48.552" lon="-3.37279">
        <ele>148.5</ele>
        <time>2020-06-10T16:43:45Z</time>
      </trkpt>
      <trkpt lat="48.55202" lon="-3.37276">
        <ele>148.6</ele>
        <time>2020-06-10T16:43:46Z</time>
      </trkpt>
      <trkpt lat="48.55206" lon="-3.37273">
        <ele>148.7</ele>
        <time>2020-06-10T16:43:47Z</time>
      </trkpt>
      <trkpt lat="48.55209" lon="-3.3727">
        <ele>148.7</ele>
        <time>2020-06-10T16:43:48Z</time>
      </trkpt>
      <trkpt lat="48.55213" lon="-3.37268">
        <ele>148.8</ele>
        <time>2020-06-10T16:43:49Z</time>
      </trkpt>
      <trkpt lat="48.55216" lon="-3.37266">
        <ele>148.8</ele>
        <time>2020-06-10T16:43:50Z</time>
      </trkpt>
      <trkpt lat="48.55219" lon="-3.37262">
        <ele>148.8</ele>
        <time>2020-06-10T16:43:51Z</time>
      </trkpt>
      <trkpt lat="48.55223" lon="-3.37258">
        <ele>148.8</ele>
        <time>2020-06-10T16:43:52Z</time>
      </trkpt>
      <trkpt lat="48.55225" lon="-3.37251">
        <ele>148.9</ele>
        <time>2020-06-10T16:43:53Z</time>
      </trkpt>
      <trkpt lat="48.55228" lon="-3.37247">
        <ele>149</ele>
        <time>2020-06-10T16:43:54Z</time>
      </trkpt>
      <trkpt lat="48.55232" lon="-3.37245">
        <ele>149</ele>
        <time>2020-06-10T16:43:55Z</time>
      </trkpt>
      <trkpt lat="48.55235" lon="-3.37243">
        <ele>149.1</ele>
        <time>2020-06-10T16:43:56Z</time>
      </trkpt>
      <trkpt lat="48.55239" lon="-3.37242">
        <ele>149.1</ele>
        <time>2020-06-10T16:43:57Z</time>
      </trkpt>
      <trkpt lat="48.55242" lon="-3.3724">
        <ele>149.2</ele>
        <time>2020-06-10T16:43:58Z</time>
      </trkpt>
      <trkpt lat="48.55246" lon="-3.37239">
        <ele>149.3</ele>
        <time>2020-06-10T16:43:59Z</time>
      </trkpt>
      <trkpt lat="48.55249" lon="-3.37236">
        <ele>149.3</ele>
        <time>2020-06-10T16:44:00Z</time>
      </trkpt>
      <trkpt lat="48.55253" lon="-3.37234">
        <ele>149.3</ele>
        <time>2020-06-10T16:44:01Z</time>
      </trkpt>
      <trkpt lat="48.55256" lon="-3.37231">
        <ele>149.4</ele>
        <time>2020-06-10T16:44:02Z</time>
      </trkpt>
      <trkpt lat="48.5526" lon="-3.37228">
        <ele>149.4</ele>
        <time>2020-06-10T16:44:03Z</time>
      </trkpt>
      <trkpt lat="48.55263" lon="-3.37225">
        <ele>149.4</ele>
        <time>2020-06-10T16:44:04Z</time>
      </trkpt>
      <trkpt lat="48.55267" lon="-3.37223">
        <ele>149.5</ele>
        <time>2020-06-10T16:44:05Z</time>
      </trkpt>
      <trkpt lat="48.55271" lon="-3.37221">
        <ele>149.5</ele>
        <time>2020-06-10T16:44:06Z</time>
      </trkpt>
      <trkpt lat="48.55274" lon="-3.37218">
        <ele>149.5</ele>
        <time>2020-06-10T16:44:07Z</time>
      </trkpt>
      <trkpt lat="48.55278" lon="-3.37215">
        <ele>149.5</ele>
        <time>2020-06-10T16:44:08Z</time>
      </trkpt>
      <trkpt lat="48.55281" lon="-3.37213">
        <ele>149.5</ele>
        <time>2020-06-10T16:44:09Z</time>
      </trkpt>
      <trkpt lat="48.55285" lon="-3.37211">
        <ele>149.5</ele>
        <time>2020-06-10T16:44:10Z</time>
      </trkpt>
      <trkpt lat="48.55288" lon="-3.37208">
        <ele>149.5</ele>
        <time>2020-06-10T16:44:11Z</time>
      </trkpt>
      <trkpt lat="48.55292" lon="-3.37205">
        <ele>149.4</ele>
        <time>2020-06-10T16:44:12Z</time>
      </trkpt>
      <trkpt lat="48.55296" lon="-3.37202">
        <ele>149.4</ele>
        <time>2020-06-10T16:44:13Z</time>
      </trkpt>
      <trkpt lat="48.55299" lon="-3.372">
        <ele>149.4</ele>
        <time>2020-06-10T16:44:14Z</time>
      </trkpt>
      <trkpt lat="48.55303" lon="-3.37197">
        <ele>149.3</ele>
        <time>2020-06-10T16:44:15Z</time>
      </trkpt>
      <trkpt lat="48.55308" lon="-3.37194">
        <ele>149.3</ele>
        <time>2020-06-10T16:44:16Z</time>
      </trkpt>
      <trkpt lat="48.55312" lon="-3.37191">
        <ele>149.2</ele>
        <time>2020-06-10T16:44:17Z</time>
      </trkpt>
      <trkpt lat="48.55316" lon="-3.37187">
        <ele>149.2</ele>
        <time>2020-06-10T16:44:18Z</time>
      </trkpt>
      <trkpt lat="48.55321" lon="-3.37183">
        <ele>149.1</ele>
        <time>2020-06-10T16:44:19Z</time>
      </trkpt>
      <trkpt lat="48.55325" lon="-3.37179">
        <ele>149</ele>
        <time>2020-06-10T16:44:20Z</time>
      </trkpt>
      <trkpt lat="48.55331" lon="-3.37175">
        <ele>149</ele>
        <time>2020-06-10T16:44:21Z</time>
      </trkpt>
      <trkpt lat="48.55336" lon="-3.37172">
        <ele>148.9</ele>
        <time>2020-06-10T16:44:22Z</time>
      </trkpt>
      <trkpt lat="48.55341" lon="-3.37168">
        <ele>148.9</ele>
        <time>2020-06-10T16:44:23Z</time>
      </trkpt>
      <trkpt lat="48.55347" lon="-3.37162">
        <ele>148.8</ele>
        <time>2020-06-10T16:44:24Z</time>
      </trkpt>
      <trkpt lat="48.55353" lon="-3.37158">
        <ele>148.8</ele>
        <time>2020-06-10T16:44:25Z</time>
      </trkpt>
      <trkpt lat="48.55358" lon="-3.37152">
        <ele>148.8</ele>
        <time>2020-06-10T16:44:26Z</time>
      </trkpt>
      <trkpt lat="48.55364" lon="-3.37146">
        <ele>148.7</ele>
        <time>2020-06-10T16:44:27Z</time>
      </trkpt>
      <trkpt lat="48.55369" lon="-3.3714">
        <ele>148.7</ele>
        <time>2020-06-10T16:44:28Z</time>
      </trkpt>
      <trkpt lat="48.55374" lon="-3.37134">
        <ele>148.7</ele>
        <time>2020-06-10T16:44:29Z</time>
      </trkpt>
      <trkpt lat="48.55378" lon="-3.37128">
        <ele>148.7</ele>
        <time>2020-06-10T16:44:30Z</time>
      </trkpt>
      <trkpt lat="48.55382" lon="-3.37121">
        <ele>148.7</ele>
        <time>2020-06-10T16:44:31Z</time>
      </trkpt>
      <trkpt lat="48.55385" lon="-3.37113">
        <ele>148.8</ele>
        <time>2020-06-10T16:44:32Z</time>
      </trkpt>
      <trkpt lat="48.55389" lon="-3.37107">
        <ele>148.8</ele>
        <time>2020-06-10T16:44:33Z</time>
      </trkpt>
      <trkpt lat="48.55392" lon="-3.37101">
        <ele>148.9</ele>
        <time>2020-06-10T16:44:34Z</time>
      </trkpt>
      <trkpt lat="48.55396" lon="-3.37096">
        <ele>148.9</ele>
        <time>2020-06-10T16:44:35Z</time>
      </trkpt>
      <trkpt lat="48.554" lon="-3.37091">
        <ele>149</ele>
        <time>2020-06-10T16:44:36Z</time>
      </trkpt>
      <trkpt lat="48.55403" lon="-3.37086">
        <ele>149.1</ele>
        <time>2020-06-10T16:44:37Z</time>
      </trkpt>
      <trkpt lat="48.55406" lon="-3.37081">
        <ele>149.1</ele>
        <time>2020-06-10T16:44:38Z</time>
      </trkpt>
      <trkpt lat="48.55409" lon="-3.37075">
        <ele>149.2</ele>
        <time>2020-06-10T16:44:39Z</time>
      </trkpt>
      <trkpt lat="48.55413" lon="-3.37069">
        <ele>149.2</ele>
        <time>2020-06-10T16:44:40Z</time>
      </trkpt>
      <trkpt lat="48.55415" lon="-3.37064">
        <ele>149.2</ele>
        <time>2020-06-10T16:44:41Z</time>
      </trkpt>
      <trkpt lat="48.55418" lon="-3.37058">
        <ele>149.2</ele>
        <time>2020-06-10T16:44:42Z</time>
      </trkpt>
      <trkpt lat="48.5542" lon="-3.37052">
        <ele>149.3</ele>
        <time>2020-06-10T16:44:43Z</time>
      </trkpt>
      <trkpt lat="48.55423" lon="-3.37046">
        <ele>149.4</ele>
        <time>2020-06-10T16:44:44Z</time>
      </trkpt>
      <trkpt lat="48.55426" lon="-3.37041">
        <ele>149.5</ele>
        <time>2020-06-10T16:44:45Z</time>
      </trkpt>
      <trkpt lat="48.55428" lon="-3.37035">
        <ele>149.6</ele>
        <time>2020-06-10T16:44:46Z</time>
      </trkpt>
      <trkpt lat="48.5543" lon="-3.3703">
        <ele>149.7</ele>
        <time>2020-06-10T16:44:47Z</time>
      </trkpt>
      <trkpt lat="48.55432" lon="-3.37024">
        <ele>149.8</ele>
        <time>2020-06-10T16:44:48Z</time>
      </trkpt>
      <trkpt lat="48.55434" lon="-3.37018">
        <ele>149.9</ele>
        <time>2020-06-10T16:44:49Z</time>
      </trkpt>
      <trkpt lat="48.55437" lon="-3.37012">
        <ele>150</ele>
        <time>2020-06-10T16:44:50Z</time>
      </trkpt>
      <trkpt lat="48.55439" lon="-3.37007">
        <ele>150.1</ele>
        <time>2020-06-10T16:44:51Z</time>
      </trkpt>
      <trkpt lat="48.55441" lon="-3.37002">
        <ele>150.2</ele>
        <time>2020-06-10T16:44:52Z</time>
      </trkpt>
      <trkpt lat="48.55444" lon="-3.36997">
        <ele>150.3</ele>
        <time>2020-06-10T16:44:53Z</time>
      </trkpt>
      <trkpt lat="48.55444" lon="-3.3699">
        <ele>150.4</ele>
        <time>2020-06-10T16:44:54Z</time>
      </trkpt>
      <trkpt lat="48.55446" lon="-3.36984">
        <ele>150.4</ele>
        <time>2020-06-10T16:44:55Z</time>
      </trkpt>
      <trkpt lat="48.55448" lon="-3.36978">
        <ele>150.5</ele>
        <time>2020-06-10T16:44:56Z</time>
      </trkpt>
      <trkpt lat="48.5545" lon="-3.36973">
        <ele>150.6</ele>
        <time>2020-06-10T16:44:57Z</time>
      </trkpt>
      <trkpt lat="48.55452" lon="-3.36968">
        <ele>150.7</ele>
        <time>2020-06-10T16:44:58Z</time>
      </trkpt>
      <trkpt lat="48.55455" lon="-3.36964">
        <ele>150.8</ele>
        <time>2020-06-10T16:44:59Z</time>
      </trkpt>
      <trkpt lat="48.55457" lon="-3.36959">
        <ele>150.9</ele>
        <time>2020-06-10T16:45:00Z</time>
      </trkpt>
      <trkpt lat="48.55459" lon="-3.36954">
        <ele>151</ele>
        <time>2020-06-10T16:45:01Z</time>
      </trkpt>
      <trkpt lat="48.55462" lon="-3.36949">
        <ele>151.2</ele>
        <time>2020-06-10T16:45:02Z</time>
      </trkpt>
      <trkpt lat="48.55463" lon="-3.36943">
        <ele>151.3</ele>
        <time>2020-06-10T16:45:03Z</time>
      </trkpt>
      <trkpt lat="48.55465" lon="-3.36938">
        <ele>151.4</ele>
        <time>2020-06-10T16:45:04Z</time>
      </trkpt>
      <trkpt lat="48.55467" lon="-3.36933">
        <ele>151.5</ele>
        <time>2020-06-10T16:45:05Z</time>
      </trkpt>
      <trkpt lat="48.55469" lon="-3.36928">
        <ele>151.6</ele>
        <time>2020-06-10T16:45:06Z</time>
      </trkpt>
      <trkpt lat="48.55471" lon="-3.36923">
        <ele>151.8</ele>
        <time>2020-06-10T16:45:07Z</time>
      </trkpt>
      <trkpt lat="48.55472" lon="-3.36917">
        <ele>152.2</ele>
        <time>2020-06-10T16:45:08Z</time>
      </trkpt>
      <trkpt lat="48.55474" lon="-3.36913">
        <ele>152.4</ele>
        <time>2020-06-10T16:45:09Z</time>
      </trkpt>
      <trkpt lat="48.55477" lon="-3.36909">
        <ele>152.6</ele>
        <time>2020-06-10T16:45:10Z</time>
      </trkpt>
      <trkpt lat="48.55478" lon="-3.36903">
        <ele>152.8</ele>
        <time>2020-06-10T16:45:11Z</time>
      </trkpt>
      <trkpt lat="48.5548" lon="-3.36899">
        <ele>153</ele>
        <time>2020-06-10T16:45:12Z</time>
      </trkpt>
      <trkpt lat="48.55482" lon="-3.36894">
        <ele>153.2</ele>
        <time>2020-06-10T16:45:13Z</time>
      </trkpt>
      <trkpt lat="48.55483" lon="-3.36889">
        <ele>153.4</ele>
        <time>2020-06-10T16:45:14Z</time>
      </trkpt>
      <trkpt lat="48.55484" lon="-3.36885">
        <ele>153.6</ele>
        <time>2020-06-10T16:45:15Z</time>
      </trkpt>
      <trkpt lat="48.55486" lon="-3.36881">
        <ele>153.8</ele>
        <time>2020-06-10T16:45:16Z</time>
      </trkpt>
      <trkpt lat="48.55488" lon="-3.36878">
        <ele>153.9</ele>
        <time>2020-06-10T16:45:17Z</time>
      </trkpt>
      <trkpt lat="48.5549" lon="-3.36874">
        <ele>154.1</ele>
        <time>2020-06-10T16:45:18Z</time>
      </trkpt>
      <trkpt lat="48.55491" lon="-3.3687">
        <ele>154.3</ele>
        <time>2020-06-10T16:45:19Z</time>
      </trkpt>
      <trkpt lat="48.55492" lon="-3.36865">
        <ele>154.5</ele>
        <time>2020-06-10T16:45:20Z</time>
      </trkpt>
      <trkpt lat="48.55493" lon="-3.36861">
        <ele>154.7</ele>
        <time>2020-06-10T16:45:21Z</time>
      </trkpt>
      <trkpt lat="48.55495" lon="-3.36857">
        <ele>154.8</ele>
        <time>2020-06-10T16:45:22Z</time>
      </trkpt>
      <trkpt lat="48.55496" lon="-3.36853">
        <ele>155</ele>
        <time>2020-06-10T16:45:23Z</time>
      </trkpt>
      <trkpt lat="48.55499" lon="-3.3685">
        <ele>155.2</ele>
        <time>2020-06-10T16:45:24Z</time>
      </trkpt>
      <trkpt lat="48.555" lon="-3.36847">
        <ele>155.4</ele>
        <time>2020-06-10T16:45:25Z</time>
      </trkpt>
      <trkpt lat="48.55501" lon="-3.36842">
        <ele>155.5</ele>
        <time>2020-06-10T16:45:26Z</time>
      </trkpt>
      <trkpt lat="48.55503" lon="-3.36838">
        <ele>155.7</ele>
        <time>2020-06-10T16:45:27Z</time>
      </trkpt>
      <trkpt lat="48.55505" lon="-3.36835">
        <ele>155.9</ele>
        <time>2020-06-10T16:45:28Z</time>
      </trkpt>
      <trkpt lat="48.55507" lon="-3.36832">
        <ele>156.1</ele>
        <time>2020-06-10T16:45:29Z</time>
      </trkpt>
      <trkpt lat="48.55509" lon="-3.36828">
        <ele>156.3</ele>
        <time>2020-06-10T16:45:30Z</time>
      </trkpt>
      <trkpt lat="48.5551" lon="-3.36823">
        <ele>156.5</ele>
        <time>2020-06-10T16:45:31Z</time>
      </trkpt>
      <trkpt lat="48.55512" lon="-3.3682">
        <ele>156.6</ele>
        <time>2020-06-10T16:45:32Z</time>
      </trkpt>
      <trkpt lat="48.55514" lon="-3.36816">
        <ele>156.8</ele>
        <time>2020-06-10T16:45:33Z</time>
      </trkpt>
      <trkpt lat="48.55516" lon="-3.36814">
        <ele>157</ele>
        <time>2020-06-10T16:45:34Z</time>
      </trkpt>
      <trkpt lat="48.55518" lon="-3.3681">
        <ele>157.2</ele>
        <time>2020-06-10T16:45:35Z</time>
      </trkpt>
      <trkpt lat="48.55519" lon="-3.36805">
        <ele>157.3</ele>
        <time>2020-06-10T16:45:36Z</time>
      </trkpt>
      <trkpt lat="48.5552" lon="-3.36801">
        <ele>157.5</ele>
        <time>2020-06-10T16:45:37Z</time>
      </trkpt>
      <trkpt lat="48.55522" lon="-3.36797">
        <ele>157.7</ele>
        <time>2020-06-10T16:45:38Z</time>
      </trkpt>
      <trkpt lat="48.55524" lon="-3.36793">
        <ele>157.9</ele>
        <time>2020-06-10T16:45:39Z</time>
      </trkpt>
      <trkpt lat="48.55525" lon="-3.36789">
        <ele>158.1</ele>
        <time>2020-06-10T16:45:40Z</time>
      </trkpt>
      <trkpt lat="48.55527" lon="-3.36785">
        <ele>158.3</ele>
        <time>2020-06-10T16:45:41Z</time>
      </trkpt>
      <trkpt lat="48.55528" lon="-3.3678">
        <ele>158.5</ele>
        <time>2020-06-10T16:45:42Z</time>
      </trkpt>
      <trkpt lat="48.5553" lon="-3.36776">
        <ele>158.7</ele>
        <time>2020-06-10T16:45:43Z</time>
      </trkpt>
      <trkpt lat="48.55532" lon="-3.36773">
        <ele>158.8</ele>
        <time>2020-06-10T16:45:44Z</time>
      </trkpt>
      <trkpt lat="48.55533" lon="-3.36769">
        <ele>159</ele>
        <time>2020-06-10T16:45:45Z</time>
      </trkpt>
      <trkpt lat="48.55534" lon="-3.36764">
        <ele>159.2</ele>
        <time>2020-06-10T16:45:46Z</time>
      </trkpt>
      <trkpt lat="48.55536" lon="-3.36761">
        <ele>159.4</ele>
        <time>2020-06-10T16:45:47Z</time>
      </trkpt>
      <trkpt lat="48.55537" lon="-3.36757">
        <ele>159.6</ele>
        <time>2020-06-10T16:45:48Z</time>
      </trkpt>
      <trkpt lat="48.5554" lon="-3.36753">
        <ele>159.7</ele>
        <time>2020-06-10T16:45:49Z</time>
      </trkpt>
      <trkpt lat="48.55541" lon="-3.36749">
        <ele>159.9</ele>
        <time>2020-06-10T16:45:50Z</time>
      </trkpt>
      <trkpt lat="48.55541" lon="-3.36745">
        <ele>160.1</ele>
        <time>2020-06-10T16:45:51Z</time>
      </trkpt>
      <trkpt lat="48.55543" lon="-3.36741">
        <ele>160.3</ele>
        <time>2020-06-10T16:45:52Z</time>
      </trkpt>
      <trkpt lat="48.55544" lon="-3.36736">
        <ele>160.5</ele>
        <time>2020-06-10T16:45:53Z</time>
      </trkpt>
      <trkpt lat="48.55546" lon="-3.36733">
        <ele>160.6</ele>
        <time>2020-06-10T16:45:54Z</time>
      </trkpt>
      <trkpt lat="48.55548" lon="-3.36728">
        <ele>160.8</ele>
        <time>2020-06-10T16:45:55Z</time>
      </trkpt>
      <trkpt lat="48.5555" lon="-3.36724">
        <ele>161</ele>
        <time>2020-06-10T16:45:56Z</time>
      </trkpt>
      <trkpt lat="48.55551" lon="-3.36718">
        <ele>161.2</ele>
        <time>2020-06-10T16:45:57Z</time>
      </trkpt>
      <trkpt lat="48.55552" lon="-3.36714">
        <ele>161.3</ele>
        <time>2020-06-10T16:45:58Z</time>
      </trkpt>
      <trkpt lat="48.55553" lon="-3.3671">
        <ele>161.5</ele>
        <time>2020-06-10T16:45:59Z</time>
      </trkpt>
      <trkpt lat="48.55555" lon="-3.36705">
        <ele>161.6</ele>
        <time>2020-06-10T16:46:00Z</time>
      </trkpt>
      <trkpt lat="48.55555" lon="-3.36703">
        <ele>161.7</ele>
        <time>2020-06-10T16:46:01Z</time>
      </trkpt>
      <trkpt lat="48.55558" lon="-3.36698">
        <ele>161.9</ele>
        <time>2020-06-10T16:46:02Z</time>
      </trkpt>
      <trkpt lat="48.55559" lon="-3.36697">
        <ele>162</ele>
        <time>2020-06-10T16:46:03Z</time>
      </trkpt>
      <trkpt lat="48.55561" lon="-3.36691">
        <ele>162.2</ele>
        <time>2020-06-10T16:46:04Z</time>
      </trkpt>
      <trkpt lat="48.55562" lon="-3.36688">
        <ele>162.3</ele>
        <time>2020-06-10T16:46:05Z</time>
      </trkpt>
      <trkpt lat="48.55564" lon="-3.36683">
        <ele>162.4</ele>
        <time>2020-06-10T16:46:06Z</time>
      </trkpt>
      <trkpt lat="48.55565" lon="-3.36679">
        <ele>162.6</ele>
        <time>2020-06-10T16:46:07Z</time>
      </trkpt>
      <trkpt lat="48.55567" lon="-3.36675">
        <ele>162.7</ele>
        <time>2020-06-10T16:46:08Z</time>
      </trkpt>
      <trkpt lat="48.55569" lon="-3.36669">
        <ele>162.8</ele>
        <time>2020-06-10T16:46:09Z</time>
      </trkpt>
      <trkpt lat="48.55571" lon="-3.36667">
        <ele>162.9</ele>
        <time>2020-06-10T16:46:10Z</time>
      </trkpt>
      <trkpt lat="48.55573" lon="-3.36662">
        <ele>163</ele>
        <time>2020-06-10T16:46:11Z</time>
      </trkpt>
      <trkpt lat="48.55574" lon="-3.36658">
        <ele>163.1</ele>
        <time>2020-06-10T16:46:12Z</time>
      </trkpt>
      <trkpt lat="48.55577" lon="-3.36654">
        <ele>163.2</ele>
        <time>2020-06-10T16:46:13Z</time>
      </trkpt>
      <trkpt lat="48.55579" lon="-3.36649">
        <ele>163.3</ele>
        <time>2020-06-10T16:46:14Z</time>
      </trkpt>
      <trkpt lat="48.5558" lon="-3.36644">
        <ele>163.3</ele>
        <time>2020-06-10T16:46:15Z</time>
      </trkpt>
      <trkpt lat="48.55582" lon="-3.36639">
        <ele>163.4</ele>
        <time>2020-06-10T16:46:16Z</time>
      </trkpt>
      <trkpt lat="48.55583" lon="-3.36634">
        <ele>163.5</ele>
        <time>2020-06-10T16:46:17Z</time>
      </trkpt>
      <trkpt lat="48.55585" lon="-3.36629">
        <ele>163.5</ele>
        <time>2020-06-10T16:46:18Z</time>
      </trkpt>
      <trkpt lat="48.55587" lon="-3.36626">
        <ele>163.6</ele>
        <time>2020-06-10T16:46:19Z</time>
      </trkpt>
      <trkpt lat="48.55589" lon="-3.36622">
        <ele>163.6</ele>
        <time>2020-06-10T16:46:20Z</time>
      </trkpt>
      <trkpt lat="48.55592" lon="-3.36617">
        <ele>163.7</ele>
        <time>2020-06-10T16:46:21Z</time>
      </trkpt>
      <trkpt lat="48.55593" lon="-3.36612">
        <ele>163.7</ele>
        <time>2020-06-10T16:46:22Z</time>
      </trkpt>
      <trkpt lat="48.55594" lon="-3.36607">
        <ele>163.7</ele>
        <time>2020-06-10T16:46:23Z</time>
      </trkpt>
      <trkpt lat="48.55596" lon="-3.36603">
        <ele>163.8</ele>
        <time>2020-06-10T16:46:24Z</time>
      </trkpt>
      <trkpt lat="48.55597" lon="-3.36598">
        <ele>163.8</ele>
        <time>2020-06-10T16:46:25Z</time>
      </trkpt>
      <trkpt lat="48.55599" lon="-3.36592">
        <ele>163.8</ele>
        <time>2020-06-10T16:46:26Z</time>
      </trkpt>
      <trkpt lat="48.55601" lon="-3.36587">
        <ele>163.9</ele>
        <time>2020-06-10T16:46:27Z</time>
      </trkpt>
      <trkpt lat="48.55603" lon="-3.36582">
        <ele>163.9</ele>
        <time>2020-06-10T16:46:28Z</time>
      </trkpt>
      <trkpt lat="48.55605" lon="-3.36576">
        <ele>164</ele>
        <time>2020-06-10T16:46:29Z</time>
      </trkpt>
      <trkpt lat="48.55607" lon="-3.36572">
        <ele>164</ele>
        <time>2020-06-10T16:46:30Z</time>
      </trkpt>
      <trkpt lat="48.55609" lon="-3.36568">
        <ele>164.1</ele>
        <time>2020-06-10T16:46:31Z</time>
      </trkpt>
      <trkpt lat="48.55612" lon="-3.36562">
        <ele>164.1</ele>
        <time>2020-06-10T16:46:32Z</time>
      </trkpt>
      <trkpt lat="48.55614" lon="-3.36557">
        <ele>164.2</ele>
        <time>2020-06-10T16:46:33Z</time>
      </trkpt>
      <trkpt lat="48.55616" lon="-3.36551">
        <ele>164.2</ele>
        <time>2020-06-10T16:46:34Z</time>
      </trkpt>
      <trkpt lat="48.55618" lon="-3.36547">
        <ele>164.2</ele>
        <time>2020-06-10T16:46:35Z</time>
      </trkpt>
      <trkpt lat="48.5562" lon="-3.36541">
        <ele>164.3</ele>
        <time>2020-06-10T16:46:36Z</time>
      </trkpt>
      <trkpt lat="48.55622" lon="-3.36535">
        <ele>164.3</ele>
        <time>2020-06-10T16:46:37Z</time>
      </trkpt>
      <trkpt lat="48.55625" lon="-3.36528">
        <ele>164.4</ele>
        <time>2020-06-10T16:46:38Z</time>
      </trkpt>
      <trkpt lat="48.55626" lon="-3.36524">
        <ele>164.4</ele>
        <time>2020-06-10T16:46:39Z</time>
      </trkpt>
      <trkpt lat="48.55629" lon="-3.36518">
        <ele>164.5</ele>
        <time>2020-06-10T16:46:40Z</time>
      </trkpt>
      <trkpt lat="48.55632" lon="-3.36512">
        <ele>164.5</ele>
        <time>2020-06-10T16:46:41Z</time>
      </trkpt>
      <trkpt lat="48.55633" lon="-3.36506">
        <ele>164.6</ele>
        <time>2020-06-10T16:46:42Z</time>
      </trkpt>
      <trkpt lat="48.55635" lon="-3.36501">
        <ele>164.6</ele>
        <time>2020-06-10T16:46:43Z</time>
      </trkpt>
      <trkpt lat="48.55637" lon="-3.36495">
        <ele>164.7</ele>
        <time>2020-06-10T16:46:44Z</time>
      </trkpt>
      <trkpt lat="48.55639" lon="-3.36489">
        <ele>164.8</ele>
        <time>2020-06-10T16:46:45Z</time>
      </trkpt>
      <trkpt lat="48.55641" lon="-3.36485">
        <ele>164.9</ele>
        <time>2020-06-10T16:46:46Z</time>
      </trkpt>
      <trkpt lat="48.55643" lon="-3.36481">
        <ele>165</ele>
        <time>2020-06-10T16:46:47Z</time>
      </trkpt>
      <trkpt lat="48.55645" lon="-3.36475">
        <ele>165.1</ele>
        <time>2020-06-10T16:46:48Z</time>
      </trkpt>
      <trkpt lat="48.55648" lon="-3.36468">
        <ele>165.2</ele>
        <time>2020-06-10T16:46:49Z</time>
      </trkpt>
      <trkpt lat="48.5565" lon="-3.3646">
        <ele>165.4</ele>
        <time>2020-06-10T16:46:50Z</time>
      </trkpt>
      <trkpt lat="48.55652" lon="-3.36455">
        <ele>165.5</ele>
        <time>2020-06-10T16:46:51Z</time>
      </trkpt>
      <trkpt lat="48.55654" lon="-3.36451">
        <ele>165.6</ele>
        <time>2020-06-10T16:46:52Z</time>
      </trkpt>
      <trkpt lat="48.55655" lon="-3.36444">
        <ele>165.7</ele>
        <time>2020-06-10T16:46:53Z</time>
      </trkpt>
      <trkpt lat="48.55657" lon="-3.36439">
        <ele>165.8</ele>
        <time>2020-06-10T16:46:54Z</time>
      </trkpt>
      <trkpt lat="48.5566" lon="-3.36433">
        <ele>165.9</ele>
        <time>2020-06-10T16:46:55Z</time>
      </trkpt>
      <trkpt lat="48.55661" lon="-3.36428">
        <ele>165.9</ele>
        <time>2020-06-10T16:46:56Z</time>
      </trkpt>
      <trkpt lat="48.55663" lon="-3.36424">
        <ele>166</ele>
        <time>2020-06-10T16:46:57Z</time>
      </trkpt>
      <trkpt lat="48.55665" lon="-3.3642">
        <ele>166.1</ele>
        <time>2020-06-10T16:46:58Z</time>
      </trkpt>
      <trkpt lat="48.55667" lon="-3.36416">
        <ele>166.3</ele>
        <time>2020-06-10T16:46:59Z</time>
      </trkpt>
      <trkpt lat="48.5567" lon="-3.3641">
        <ele>166.5</ele>
        <time>2020-06-10T16:47:00Z</time>
      </trkpt>
      <trkpt lat="48.55672" lon="-3.36403">
        <ele>166.7</ele>
        <time>2020-06-10T16:47:01Z</time>
      </trkpt>
      <trkpt lat="48.55674" lon="-3.36396">
        <ele>166.9</ele>
        <time>2020-06-10T16:47:02Z</time>
      </trkpt>
      <trkpt lat="48.55676" lon="-3.36392">
        <ele>167</ele>
        <time>2020-06-10T16:47:03Z</time>
      </trkpt>
      <trkpt lat="48.55678" lon="-3.36386">
        <ele>167.2</ele>
        <time>2020-06-10T16:47:04Z</time>
      </trkpt>
      <trkpt lat="48.5568" lon="-3.3638">
        <ele>167.3</ele>
        <time>2020-06-10T16:47:05Z</time>
      </trkpt>
      <trkpt lat="48.55682" lon="-3.36374">
        <ele>167.5</ele>
        <time>2020-06-10T16:47:06Z</time>
      </trkpt>
      <trkpt lat="48.55684" lon="-3.36369">
        <ele>167.6</ele>
        <time>2020-06-10T16:47:07Z</time>
      </trkpt>
      <trkpt lat="48.55686" lon="-3.36362">
        <ele>167.8</ele>
        <time>2020-06-10T16:47:08Z</time>
      </trkpt>
      <trkpt lat="48.55689" lon="-3.36357">
        <ele>168</ele>
        <time>2020-06-10T16:47:09Z</time>
      </trkpt>
      <trkpt lat="48.5569" lon="-3.36355">
        <ele>168</ele>
        <time>2020-06-10T16:47:10Z</time>
      </trkpt>
      <trkpt lat="48.55692" lon="-3.3635">
        <ele>168.2</ele>
        <time>2020-06-10T16:47:11Z</time>
      </trkpt>
      <trkpt lat="48.55693" lon="-3.36345">
        <ele>168.4</ele>
        <time>2020-06-10T16:47:12Z</time>
      </trkpt>
      <trkpt lat="48.55695" lon="-3.36342">
        <ele>168.5</ele>
        <time>2020-06-10T16:47:13Z</time>
      </trkpt>
      <trkpt lat="48.55696" lon="-3.36335">
        <ele>168.7</ele>
        <time>2020-06-10T16:47:14Z</time>
      </trkpt>
      <trkpt lat="48.55699" lon="-3.3633">
        <ele>168.9</ele>
        <time>2020-06-10T16:47:15Z</time>
      </trkpt>
      <trkpt lat="48.55701" lon="-3.36327">
        <ele>169</ele>
        <time>2020-06-10T16:47:16Z</time>
      </trkpt>
      <trkpt lat="48.55703" lon="-3.36323">
        <ele>169.2</ele>
        <time>2020-06-10T16:47:17Z</time>
      </trkpt>
      <trkpt lat="48.55705" lon="-3.36317">
        <ele>169.3</ele>
        <time>2020-06-10T16:47:18Z</time>
      </trkpt>
      <trkpt lat="48.55706" lon="-3.36314">
        <ele>169.5</ele>
        <time>2020-06-10T16:47:19Z</time>
      </trkpt>
      <trkpt lat="48.55708" lon="-3.36308">
        <ele>169.7</ele>
        <time>2020-06-10T16:47:20Z</time>
      </trkpt>
      <trkpt lat="48.5571" lon="-3.36303">
        <ele>169.8</ele>
        <time>2020-06-10T16:47:21Z</time>
      </trkpt>
      <trkpt lat="48.55711" lon="-3.36299">
        <ele>170</ele>
        <time>2020-06-10T16:47:22Z</time>
      </trkpt>
      <trkpt lat="48.55712" lon="-3.36297">
        <ele>170</ele>
        <time>2020-06-10T16:47:23Z</time>
      </trkpt>
      <trkpt lat="48.55714" lon="-3.36294">
        <ele>170.2</ele>
        <time>2020-06-10T16:47:24Z</time>
      </trkpt>
      <trkpt lat="48.55715" lon="-3.36289">
        <ele>170.3</ele>
        <time>2020-06-10T16:47:25Z</time>
      </trkpt>
      <trkpt lat="48.55716" lon="-3.36286">
        <ele>170.4</ele>
        <time>2020-06-10T16:47:26Z</time>
      </trkpt>
      <trkpt lat="48.55717" lon="-3.36281">
        <ele>170.5</ele>
        <time>2020-06-10T16:47:27Z</time>
      </trkpt>
      <trkpt lat="48.55719" lon="-3.36276">
        <ele>170.7</ele>
        <time>2020-06-10T16:47:28Z</time>
      </trkpt>
      <trkpt lat="48.55721" lon="-3.3627">
        <ele>170.8</ele>
        <time>2020-06-10T16:47:29Z</time>
      </trkpt>
      <trkpt lat="48.55723" lon="-3.36266">
        <ele>171</ele>
        <time>2020-06-10T16:47:30Z</time>
      </trkpt>
      <trkpt lat="48.55724" lon="-3.36261">
        <ele>171.1</ele>
        <time>2020-06-10T16:47:31Z</time>
      </trkpt>
      <trkpt lat="48.55726" lon="-3.36258">
        <ele>171.2</ele>
        <time>2020-06-10T16:47:32Z</time>
      </trkpt>
      <trkpt lat="48.55729" lon="-3.36255">
        <ele>171.3</ele>
        <time>2020-06-10T16:47:33Z</time>
      </trkpt>
      <trkpt lat="48.5573" lon="-3.3625">
        <ele>171.5</ele>
        <time>2020-06-10T16:47:34Z</time>
      </trkpt>
      <trkpt lat="48.55732" lon="-3.36244">
        <ele>171.6</ele>
        <time>2020-06-10T16:47:35Z</time>
      </trkpt>
      <trkpt lat="48.55733" lon="-3.36242">
        <ele>171.7</ele>
        <time>2020-06-10T16:47:36Z</time>
      </trkpt>
      <trkpt lat="48.55735" lon="-3.36236">
        <ele>171.8</ele>
        <time>2020-06-10T16:47:37Z</time>
      </trkpt>
      <trkpt lat="48.55735" lon="-3.36234">
        <ele>171.9</ele>
        <time>2020-06-10T16:47:38Z</time>
      </trkpt>
      <trkpt lat="48.55738" lon="-3.36229">
        <ele>172</ele>
        <time>2020-06-10T16:47:39Z</time>
      </trkpt>
      <trkpt lat="48.55739" lon="-3.36227">
        <ele>172</ele>
        <time>2020-06-10T16:47:40Z</time>
      </trkpt>
      <trkpt lat="48.5574" lon="-3.36222">
        <ele>172.1</ele>
        <time>2020-06-10T16:47:41Z</time>
      </trkpt>
      <trkpt lat="48.55742" lon="-3.36217">
        <ele>172.2</ele>
        <time>2020-06-10T16:47:42Z</time>
      </trkpt>
      <trkpt lat="48.55744" lon="-3.36213">
        <ele>172.3</ele>
        <time>2020-06-10T16:47:43Z</time>
      </trkpt>
      <trkpt lat="48.55746" lon="-3.36209">
        <ele>172.4</ele>
        <time>2020-06-10T16:47:44Z</time>
      </trkpt>
      <trkpt lat="48.55748" lon="-3.36205">
        <ele>172.4</ele>
        <time>2020-06-10T16:47:45Z</time>
      </trkpt>
      <trkpt lat="48.5575" lon="-3.36201">
        <ele>172.5</ele>
        <time>2020-06-10T16:47:46Z</time>
      </trkpt>
      <trkpt lat="48.55751" lon="-3.36196">
        <ele>172.5</ele>
        <time>2020-06-10T16:47:47Z</time>
      </trkpt>
      <trkpt lat="48.55752" lon="-3.36193">
        <ele>172.6</ele>
        <time>2020-06-10T16:47:48Z</time>
      </trkpt>
      <trkpt lat="48.55753" lon="-3.36189">
        <ele>172.6</ele>
        <time>2020-06-10T16:47:49Z</time>
      </trkpt>
      <trkpt lat="48.55755" lon="-3.36185">
        <ele>172.7</ele>
        <time>2020-06-10T16:47:50Z</time>
      </trkpt>
      <trkpt lat="48.55756" lon="-3.3618">
        <ele>172.7</ele>
        <time>2020-06-10T16:47:51Z</time>
      </trkpt>
      <trkpt lat="48.55758" lon="-3.36175">
        <ele>172.8</ele>
        <time>2020-06-10T16:47:52Z</time>
      </trkpt>
      <trkpt lat="48.5576" lon="-3.36171">
        <ele>172.8</ele>
        <time>2020-06-10T16:47:53Z</time>
      </trkpt>
      <trkpt lat="48.55761" lon="-3.36167">
        <ele>172.9</ele>
        <time>2020-06-10T16:47:54Z</time>
      </trkpt>
      <trkpt lat="48.55763" lon="-3.36162">
        <ele>172.9</ele>
        <time>2020-06-10T16:47:55Z</time>
      </trkpt>
      <trkpt lat="48.55765" lon="-3.36157">
        <ele>172.9</ele>
        <time>2020-06-10T16:47:56Z</time>
      </trkpt>
      <trkpt lat="48.55766" lon="-3.36153">
        <ele>173</ele>
        <time>2020-06-10T16:47:57Z</time>
      </trkpt>
      <trkpt lat="48.55768" lon="-3.36149">
        <ele>173</ele>
        <time>2020-06-10T16:47:58Z</time>
      </trkpt>
      <trkpt lat="48.55769" lon="-3.36144">
        <ele>173</ele>
        <time>2020-06-10T16:47:59Z</time>
      </trkpt>
      <trkpt lat="48.55771" lon="-3.3614">
        <ele>173.1</ele>
        <time>2020-06-10T16:48:00Z</time>
      </trkpt>
      <trkpt lat="48.55773" lon="-3.36135">
        <ele>173.1</ele>
        <time>2020-06-10T16:48:01Z</time>
      </trkpt>
      <trkpt lat="48.55775" lon="-3.36131">
        <ele>173.1</ele>
        <time>2020-06-10T16:48:02Z</time>
      </trkpt>
      <trkpt lat="48.55777" lon="-3.36126">
        <ele>173.1</ele>
        <time>2020-06-10T16:48:03Z</time>
      </trkpt>
      <trkpt lat="48.55779" lon="-3.36122">
        <ele>173.1</ele>
        <time>2020-06-10T16:48:04Z</time>
      </trkpt>
      <trkpt lat="48.5578" lon="-3.3612">
        <ele>173.1</ele>
        <time>2020-06-10T16:48:05Z</time>
      </trkpt>
      <trkpt lat="48.55782" lon="-3.36114">
        <ele>173.1</ele>
        <time>2020-06-10T16:48:06Z</time>
      </trkpt>
      <trkpt lat="48.55784" lon="-3.36108">
        <ele>173</ele>
        <time>2020-06-10T16:48:07Z</time>
      </trkpt>
      <trkpt lat="48.55785" lon="-3.36103">
        <ele>173</ele>
        <time>2020-06-10T16:48:08Z</time>
      </trkpt>
      <trkpt lat="48.55787" lon="-3.36098">
        <ele>173.1</ele>
        <time>2020-06-10T16:48:09Z</time>
      </trkpt>
      <trkpt lat="48.5579" lon="-3.36092">
        <ele>173.2</ele>
        <time>2020-06-10T16:48:10Z</time>
      </trkpt>
      <trkpt lat="48.55793" lon="-3.36086">
        <ele>173.3</ele>
        <time>2020-06-10T16:48:11Z</time>
      </trkpt>
      <trkpt lat="48.55794" lon="-3.36081">
        <ele>173.4</ele>
        <time>2020-06-10T16:48:12Z</time>
      </trkpt>
      <trkpt lat="48.55796" lon="-3.36077">
        <ele>173.4</ele>
        <time>2020-06-10T16:48:13Z</time>
      </trkpt>
      <trkpt lat="48.55798" lon="-3.36072">
        <ele>173.4</ele>
        <time>2020-06-10T16:48:14Z</time>
      </trkpt>
      <trkpt lat="48.558" lon="-3.36068">
        <ele>173.5</ele>
        <time>2020-06-10T16:48:15Z</time>
      </trkpt>
      <trkpt lat="48.55802" lon="-3.36063">
        <ele>173.5</ele>
        <time>2020-06-10T16:48:16Z</time>
      </trkpt>
      <trkpt lat="48.55803" lon="-3.36057">
        <ele>173.5</ele>
        <time>2020-06-10T16:48:17Z</time>
      </trkpt>
      <trkpt lat="48.55804" lon="-3.36052">
        <ele>173.5</ele>
        <time>2020-06-10T16:48:18Z</time>
      </trkpt>
      <trkpt lat="48.55806" lon="-3.36045">
        <ele>173.5</ele>
        <time>2020-06-10T16:48:19Z</time>
      </trkpt>
      <trkpt lat="48.55808" lon="-3.36038">
        <ele>173.6</ele>
        <time>2020-06-10T16:48:20Z</time>
      </trkpt>
      <trkpt lat="48.5581" lon="-3.36033">
        <ele>173.6</ele>
        <time>2020-06-10T16:48:21Z</time>
      </trkpt>
      <trkpt lat="48.55812" lon="-3.36028">
        <ele>173.6</ele>
        <time>2020-06-10T16:48:22Z</time>
      </trkpt>
      <trkpt lat="48.55815" lon="-3.36023">
        <ele>173.6</ele>
        <time>2020-06-10T16:48:23Z</time>
      </trkpt>
      <trkpt lat="48.55817" lon="-3.36017">
        <ele>173.7</ele>
        <time>2020-06-10T16:48:24Z</time>
      </trkpt>
      <trkpt lat="48.5582" lon="-3.36011">
        <ele>173.7</ele>
        <time>2020-06-10T16:48:25Z</time>
      </trkpt>
      <trkpt lat="48.55823" lon="-3.36007">
        <ele>173.7</ele>
        <time>2020-06-10T16:48:26Z</time>
      </trkpt>
      <trkpt lat="48.55824" lon="-3.36002">
        <ele>173.7</ele>
        <time>2020-06-10T16:48:27Z</time>
      </trkpt>
      <trkpt lat="48.55828" lon="-3.35995">
        <ele>173.7</ele>
        <time>2020-06-10T16:48:28Z</time>
      </trkpt>
      <trkpt lat="48.5583" lon="-3.3599">
        <ele>173.8</ele>
        <time>2020-06-10T16:48:29Z</time>
      </trkpt>
      <trkpt lat="48.55832" lon="-3.35985">
        <ele>173.8</ele>
        <time>2020-06-10T16:48:30Z</time>
      </trkpt>
      <trkpt lat="48.55834" lon="-3.3598">
        <ele>173.7</ele>
        <time>2020-06-10T16:48:31Z</time>
      </trkpt>
      <trkpt lat="48.55835" lon="-3.35975">
        <ele>173.7</ele>
        <time>2020-06-10T16:48:32Z</time>
      </trkpt>
      <trkpt lat="48.55836" lon="-3.35969">
        <ele>173.7</ele>
        <time>2020-06-10T16:48:33Z</time>
      </trkpt>
      <trkpt lat="48.55839" lon="-3.35963">
        <ele>173.6</ele>
        <time>2020-06-10T16:48:34Z</time>
      </trkpt>
      <trkpt lat="48.55842" lon="-3.35958">
        <ele>173.6</ele>
        <time>2020-06-10T16:48:35Z</time>
      </trkpt>
      <trkpt lat="48.55844" lon="-3.35953">
        <ele>173.6</ele>
        <time>2020-06-10T16:48:36Z</time>
      </trkpt>
      <trkpt lat="48.55846" lon="-3.35947">
        <ele>173.5</ele>
        <time>2020-06-10T16:48:37Z</time>
      </trkpt>
      <trkpt lat="48.55848" lon="-3.35941">
        <ele>173.5</ele>
        <time>2020-06-10T16:48:38Z</time>
      </trkpt>
      <trkpt lat="48.5585" lon="-3.35934">
        <ele>173.4</ele>
        <time>2020-06-10T16:48:39Z</time>
      </trkpt>
      <trkpt lat="48.55853" lon="-3.35927">
        <ele>173.4</ele>
        <time>2020-06-10T16:48:40Z</time>
      </trkpt>
      <trkpt lat="48.55855" lon="-3.35922">
        <ele>173.3</ele>
        <time>2020-06-10T16:48:41Z</time>
      </trkpt>
      <trkpt lat="48.55857" lon="-3.35915">
        <ele>173.3</ele>
        <time>2020-06-10T16:48:42Z</time>
      </trkpt>
      <trkpt lat="48.55859" lon="-3.35909">
        <ele>173.2</ele>
        <time>2020-06-10T16:48:43Z</time>
      </trkpt>
      <trkpt lat="48.55862" lon="-3.35902">
        <ele>173.1</ele>
        <time>2020-06-10T16:48:44Z</time>
      </trkpt>
      <trkpt lat="48.55864" lon="-3.35895">
        <ele>173.1</ele>
        <time>2020-06-10T16:48:45Z</time>
      </trkpt>
      <trkpt lat="48.55866" lon="-3.35891">
        <ele>173</ele>
        <time>2020-06-10T16:48:46Z</time>
      </trkpt>
      <trkpt lat="48.55868" lon="-3.35886">
        <ele>173</ele>
        <time>2020-06-10T16:48:47Z</time>
      </trkpt>
      <trkpt lat="48.5587" lon="-3.35881">
        <ele>172.9</ele>
        <time>2020-06-10T16:48:48Z</time>
      </trkpt>
      <trkpt lat="48.55872" lon="-3.35875">
        <ele>172.9</ele>
        <time>2020-06-10T16:48:49Z</time>
      </trkpt>
      <trkpt lat="48.55875" lon="-3.35868">
        <ele>172.8</ele>
        <time>2020-06-10T16:48:50Z</time>
      </trkpt>
      <trkpt lat="48.55877" lon="-3.35864">
        <ele>172.7</ele>
        <time>2020-06-10T16:48:51Z</time>
      </trkpt>
      <trkpt lat="48.5588" lon="-3.35858">
        <ele>172.6</ele>
        <time>2020-06-10T16:48:52Z</time>
      </trkpt>
      <trkpt lat="48.55883" lon="-3.35849">
        <ele>172.5</ele>
        <time>2020-06-10T16:48:53Z</time>
      </trkpt>
      <trkpt lat="48.55885" lon="-3.35841">
        <ele>172.3</ele>
        <time>2020-06-10T16:48:54Z</time>
      </trkpt>
      <trkpt lat="48.55888" lon="-3.35833">
        <ele>172.2</ele>
        <time>2020-06-10T16:48:55Z</time>
      </trkpt>
      <trkpt lat="48.55891" lon="-3.35825">
        <ele>172.1</ele>
        <time>2020-06-10T16:48:56Z</time>
      </trkpt>
      <trkpt lat="48.55894" lon="-3.35818">
        <ele>172</ele>
        <time>2020-06-10T16:48:57Z</time>
      </trkpt>
      <trkpt lat="48.55896" lon="-3.35811">
        <ele>171.9</ele>
        <time>2020-06-10T16:48:58Z</time>
      </trkpt>
      <trkpt lat="48.559" lon="-3.35803">
        <ele>171.8</ele>
        <time>2020-06-10T16:48:59Z</time>
      </trkpt>
      <trkpt lat="48.55903" lon="-3.35796">
        <ele>171.6</ele>
        <time>2020-06-10T16:49:00Z</time>
      </trkpt>
      <trkpt lat="48.55906" lon="-3.35788">
        <ele>171.5</ele>
        <time>2020-06-10T16:49:01Z</time>
      </trkpt>
      <trkpt lat="48.55909" lon="-3.3578">
        <ele>171.3</ele>
        <time>2020-06-10T16:49:02Z</time>
      </trkpt>
      <trkpt lat="48.55912" lon="-3.35773">
        <ele>171.2</ele>
        <time>2020-06-10T16:49:03Z</time>
      </trkpt>
      <trkpt lat="48.55914" lon="-3.35766">
        <ele>171.1</ele>
        <time>2020-06-10T16:49:04Z</time>
      </trkpt>
      <trkpt lat="48.55916" lon="-3.35758">
        <ele>170.9</ele>
        <time>2020-06-10T16:49:05Z</time>
      </trkpt>
      <trkpt lat="48.55919" lon="-3.3575">
        <ele>170.8</ele>
        <time>2020-06-10T16:49:06Z</time>
      </trkpt>
      <trkpt lat="48.55921" lon="-3.35743">
        <ele>170.7</ele>
        <time>2020-06-10T16:49:07Z</time>
      </trkpt>
      <trkpt lat="48.55924" lon="-3.35735">
        <ele>170.7</ele>
        <time>2020-06-10T16:49:08Z</time>
      </trkpt>
      <trkpt lat="48.55927" lon="-3.3573">
        <ele>170.6</ele>
        <time>2020-06-10T16:49:09Z</time>
      </trkpt>
      <trkpt lat="48.5593" lon="-3.35722">
        <ele>170.5</ele>
        <time>2020-06-10T16:49:10Z</time>
      </trkpt>
      <trkpt lat="48.55933" lon="-3.35714">
        <ele>170.3</ele>
        <time>2020-06-10T16:49:11Z</time>
      </trkpt>
      <trkpt lat="48.55935" lon="-3.35707">
        <ele>170.2</ele>
        <time>2020-06-10T16:49:12Z</time>
      </trkpt>
      <trkpt lat="48.55938" lon="-3.35698">
        <ele>170</ele>
        <time>2020-06-10T16:49:13Z</time>
      </trkpt>
      <trkpt lat="48.5594" lon="-3.35689">
        <ele>169.9</ele>
        <time>2020-06-10T16:49:14Z</time>
      </trkpt>
      <trkpt lat="48.55943" lon="-3.35682">
        <ele>169.8</ele>
        <time>2020-06-10T16:49:15Z</time>
      </trkpt>
      <trkpt lat="48.55947" lon="-3.35675">
        <ele>169.6</ele>
        <time>2020-06-10T16:49:16Z</time>
      </trkpt>
      <trkpt lat="48.5595" lon="-3.35666">
        <ele>169.5</ele>
        <time>2020-06-10T16:49:17Z</time>
      </trkpt>
      <trkpt lat="48.55954" lon="-3.35656">
        <ele>169.3</ele>
        <time>2020-06-10T16:49:18Z</time>
      </trkpt>
      <trkpt lat="48.55958" lon="-3.35648">
        <ele>169.2</ele>
        <time>2020-06-10T16:49:19Z</time>
      </trkpt>
      <trkpt lat="48.55961" lon="-3.35639">
        <ele>169.1</ele>
        <time>2020-06-10T16:49:20Z</time>
      </trkpt>
      <trkpt lat="48.55965" lon="-3.3563">
        <ele>169</ele>
        <time>2020-06-10T16:49:21Z</time>
      </trkpt>
      <trkpt lat="48.55968" lon="-3.35622">
        <ele>168.9</ele>
        <time>2020-06-10T16:49:22Z</time>
      </trkpt>
      <trkpt lat="48.5597" lon="-3.35615">
        <ele>168.9</ele>
        <time>2020-06-10T16:49:23Z</time>
      </trkpt>
      <trkpt lat="48.55974" lon="-3.35607">
        <ele>168.9</ele>
        <time>2020-06-10T16:49:24Z</time>
      </trkpt>
      <trkpt lat="48.55976" lon="-3.35598">
        <ele>168.9</ele>
        <time>2020-06-10T16:49:25Z</time>
      </trkpt>
      <trkpt lat="48.55979" lon="-3.35591">
        <ele>168.9</ele>
        <time>2020-06-10T16:49:26Z</time>
      </trkpt>
      <trkpt lat="48.55983" lon="-3.35581">
        <ele>168.9</ele>
        <time>2020-06-10T16:49:27Z</time>
      </trkpt>
      <trkpt lat="48.55986" lon="-3.35573">
        <ele>169</ele>
        <time>2020-06-10T16:49:28Z</time>
      </trkpt>
      <trkpt lat="48.5599" lon="-3.35565">
        <ele>169</ele>
        <time>2020-06-10T16:49:29Z</time>
      </trkpt>
      <trkpt lat="48.55993" lon="-3.35557">
        <ele>169.1</ele>
        <time>2020-06-10T16:49:30Z</time>
      </trkpt>
      <trkpt lat="48.55996" lon="-3.35549">
        <ele>169.2</ele>
        <time>2020-06-10T16:49:31Z</time>
      </trkpt>
      <trkpt lat="48.55999" lon="-3.35542">
        <ele>169.3</ele>
        <time>2020-06-10T16:49:32Z</time>
      </trkpt>
      <trkpt lat="48.56002" lon="-3.35532">
        <ele>169.4</ele>
        <time>2020-06-10T16:49:33Z</time>
      </trkpt>
      <trkpt lat="48.56005" lon="-3.35524">
        <ele>169.4</ele>
        <time>2020-06-10T16:49:34Z</time>
      </trkpt>
      <trkpt lat="48.56008" lon="-3.35518">
        <ele>169.4</ele>
        <time>2020-06-10T16:49:35Z</time>
      </trkpt>
      <trkpt lat="48.5601" lon="-3.35511">
        <ele>169.4</ele>
        <time>2020-06-10T16:49:36Z</time>
      </trkpt>
      <trkpt lat="48.56012" lon="-3.35505">
        <ele>169.4</ele>
        <time>2020-06-10T16:49:37Z</time>
      </trkpt>
      <trkpt lat="48.56014" lon="-3.35496">
        <ele>169.4</ele>
        <time>2020-06-10T16:49:38Z</time>
      </trkpt>
      <trkpt lat="48.56016" lon="-3.3549">
        <ele>169.4</ele>
        <time>2020-06-10T16:49:39Z</time>
      </trkpt>
      <trkpt lat="48.56019" lon="-3.35484">
        <ele>169.4</ele>
        <time>2020-06-10T16:49:40Z</time>
      </trkpt>
      <trkpt lat="48.56023" lon="-3.35477">
        <ele>169.3</ele>
        <time>2020-06-10T16:49:41Z</time>
      </trkpt>
      <trkpt lat="48.56025" lon="-3.3547">
        <ele>169.2</ele>
        <time>2020-06-10T16:49:42Z</time>
      </trkpt>
      <trkpt lat="48.56028" lon="-3.35463">
        <ele>169.2</ele>
        <time>2020-06-10T16:49:43Z</time>
      </trkpt>
      <trkpt lat="48.56031" lon="-3.35456">
        <ele>169.1</ele>
        <time>2020-06-10T16:49:44Z</time>
      </trkpt>
      <trkpt lat="48.56033" lon="-3.3545">
        <ele>169</ele>
        <time>2020-06-10T16:49:45Z</time>
      </trkpt>
      <trkpt lat="48.56035" lon="-3.35444">
        <ele>168.8</ele>
        <time>2020-06-10T16:49:46Z</time>
      </trkpt>
      <trkpt lat="48.56037" lon="-3.35437">
        <ele>168.7</ele>
        <time>2020-06-10T16:49:47Z</time>
      </trkpt>
      <trkpt lat="48.5604" lon="-3.3543">
        <ele>168.5</ele>
        <time>2020-06-10T16:49:48Z</time>
      </trkpt>
      <trkpt lat="48.56042" lon="-3.35422">
        <ele>168.4</ele>
        <time>2020-06-10T16:49:49Z</time>
      </trkpt>
      <trkpt lat="48.56046" lon="-3.35414">
        <ele>168.2</ele>
        <time>2020-06-10T16:49:50Z</time>
      </trkpt>
      <trkpt lat="48.56049" lon="-3.35407">
        <ele>168</ele>
        <time>2020-06-10T16:49:51Z</time>
      </trkpt>
      <trkpt lat="48.56052" lon="-3.35398">
        <ele>167.8</ele>
        <time>2020-06-10T16:49:52Z</time>
      </trkpt>
      <trkpt lat="48.56055" lon="-3.35389">
        <ele>167.5</ele>
        <time>2020-06-10T16:49:53Z</time>
      </trkpt>
      <trkpt lat="48.56058" lon="-3.35382">
        <ele>167.3</ele>
        <time>2020-06-10T16:49:54Z</time>
      </trkpt>
      <trkpt lat="48.56061" lon="-3.35374">
        <ele>167.1</ele>
        <time>2020-06-10T16:49:55Z</time>
      </trkpt>
      <trkpt lat="48.56064" lon="-3.35367">
        <ele>166.9</ele>
        <time>2020-06-10T16:49:56Z</time>
      </trkpt>
      <trkpt lat="48.56067" lon="-3.35359">
        <ele>166.7</ele>
        <time>2020-06-10T16:49:57Z</time>
      </trkpt>
      <trkpt lat="48.56071" lon="-3.35347">
        <ele>166.5</ele>
        <time>2020-06-10T16:49:58Z</time>
      </trkpt>
      <trkpt lat="48.56075" lon="-3.35338">
        <ele>166.3</ele>
        <time>2020-06-10T16:49:59Z</time>
      </trkpt>
      <trkpt lat="48.56078" lon="-3.35329">
        <ele>166.2</ele>
        <time>2020-06-10T16:50:00Z</time>
      </trkpt>
      <trkpt lat="48.56081" lon="-3.35321">
        <ele>166.1</ele>
        <time>2020-06-10T16:50:01Z</time>
      </trkpt>
      <trkpt lat="48.56084" lon="-3.35312">
        <ele>165.9</ele>
        <time>2020-06-10T16:50:02Z</time>
      </trkpt>
      <trkpt lat="48.56087" lon="-3.35304">
        <ele>165.8</ele>
        <time>2020-06-10T16:50:03Z</time>
      </trkpt>
      <trkpt lat="48.5609" lon="-3.35295">
        <ele>165.8</ele>
        <time>2020-06-10T16:50:04Z</time>
      </trkpt>
      <trkpt lat="48.56093" lon="-3.35287">
        <ele>165.7</ele>
        <time>2020-06-10T16:50:05Z</time>
      </trkpt>
      <trkpt lat="48.56096" lon="-3.35279">
        <ele>165.7</ele>
        <time>2020-06-10T16:50:06Z</time>
      </trkpt>
      <trkpt lat="48.56099" lon="-3.3527">
        <ele>165.7</ele>
        <time>2020-06-10T16:50:07Z</time>
      </trkpt>
      <trkpt lat="48.56102" lon="-3.35263">
        <ele>165.7</ele>
        <time>2020-06-10T16:50:08Z</time>
      </trkpt>
      <trkpt lat="48.56104" lon="-3.35256">
        <ele>165.8</ele>
        <time>2020-06-10T16:50:09Z</time>
      </trkpt>
      <trkpt lat="48.56107" lon="-3.35247">
        <ele>165.8</ele>
        <time>2020-06-10T16:50:10Z</time>
      </trkpt>
      <trkpt lat="48.56111" lon="-3.3524">
        <ele>165.9</ele>
        <time>2020-06-10T16:50:11Z</time>
      </trkpt>
      <trkpt lat="48.56114" lon="-3.35232">
        <ele>166</ele>
        <time>2020-06-10T16:50:12Z</time>
      </trkpt>
      <trkpt lat="48.56116" lon="-3.35224">
        <ele>166.1</ele>
        <time>2020-06-10T16:50:13Z</time>
      </trkpt>
      <trkpt lat="48.5612" lon="-3.35216">
        <ele>166.2</ele>
        <time>2020-06-10T16:50:14Z</time>
      </trkpt>
      <trkpt lat="48.56124" lon="-3.3521">
        <ele>166.3</ele>
        <time>2020-06-10T16:50:15Z</time>
      </trkpt>
      <trkpt lat="48.56127" lon="-3.35203">
        <ele>166.3</ele>
        <time>2020-06-10T16:50:16Z</time>
      </trkpt>
      <trkpt lat="48.56129" lon="-3.35196">
        <ele>166.4</ele>
        <time>2020-06-10T16:50:17Z</time>
      </trkpt>
      <trkpt lat="48.56132" lon="-3.3519">
        <ele>166.4</ele>
        <time>2020-06-10T16:50:18Z</time>
      </trkpt>
      <trkpt lat="48.56135" lon="-3.35185">
        <ele>166.5</ele>
        <time>2020-06-10T16:50:19Z</time>
      </trkpt>
      <trkpt lat="48.56136" lon="-3.35178">
        <ele>166.5</ele>
        <time>2020-06-10T16:50:20Z</time>
      </trkpt>
      <trkpt lat="48.56139" lon="-3.3517">
        <ele>166.4</ele>
        <time>2020-06-10T16:50:21Z</time>
      </trkpt>
      <trkpt lat="48.56142" lon="-3.35163">
        <ele>166.4</ele>
        <time>2020-06-10T16:50:22Z</time>
      </trkpt>
      <trkpt lat="48.56143" lon="-3.35155">
        <ele>166.3</ele>
        <time>2020-06-10T16:50:23Z</time>
      </trkpt>
      <trkpt lat="48.56145" lon="-3.35148">
        <ele>166.3</ele>
        <time>2020-06-10T16:50:24Z</time>
      </trkpt>
      <trkpt lat="48.56148" lon="-3.35141">
        <ele>166.3</ele>
        <time>2020-06-10T16:50:25Z</time>
      </trkpt>
      <trkpt lat="48.5615" lon="-3.35134">
        <ele>166.3</ele>
        <time>2020-06-10T16:50:26Z</time>
      </trkpt>
      <trkpt lat="48.56153" lon="-3.35128">
        <ele>166.4</ele>
        <time>2020-06-10T16:50:27Z</time>
      </trkpt>
      <trkpt lat="48.56156" lon="-3.35121">
        <ele>166.4</ele>
        <time>2020-06-10T16:50:28Z</time>
      </trkpt>
      <trkpt lat="48.56159" lon="-3.35114">
        <ele>166.4</ele>
        <time>2020-06-10T16:50:29Z</time>
      </trkpt>
      <trkpt lat="48.56161" lon="-3.35107">
        <ele>166.4</ele>
        <time>2020-06-10T16:50:30Z</time>
      </trkpt>
      <trkpt lat="48.56164" lon="-3.351">
        <ele>166.4</ele>
        <time>2020-06-10T16:50:31Z</time>
      </trkpt>
      <trkpt lat="48.56168" lon="-3.35093">
        <ele>166.4</ele>
        <time>2020-06-10T16:50:32Z</time>
      </trkpt>
      <trkpt lat="48.5617" lon="-3.35086">
        <ele>166.4</ele>
        <time>2020-06-10T16:50:33Z</time>
      </trkpt>
      <trkpt lat="48.56172" lon="-3.3508">
        <ele>166.4</ele>
        <time>2020-06-10T16:50:34Z</time>
      </trkpt>
      <trkpt lat="48.56175" lon="-3.35073">
        <ele>166.3</ele>
        <time>2020-06-10T16:50:35Z</time>
      </trkpt>
      <trkpt lat="48.56177" lon="-3.35066">
        <ele>166.2</ele>
        <time>2020-06-10T16:50:36Z</time>
      </trkpt>
      <trkpt lat="48.56179" lon="-3.35058">
        <ele>166.2</ele>
        <time>2020-06-10T16:50:37Z</time>
      </trkpt>
      <trkpt lat="48.56182" lon="-3.35051">
        <ele>166.1</ele>
        <time>2020-06-10T16:50:38Z</time>
      </trkpt>
      <trkpt lat="48.56185" lon="-3.35044">
        <ele>166</ele>
        <time>2020-06-10T16:50:39Z</time>
      </trkpt>
      <trkpt lat="48.56188" lon="-3.35036">
        <ele>165.9</ele>
        <time>2020-06-10T16:50:40Z</time>
      </trkpt>
      <trkpt lat="48.5619" lon="-3.35028">
        <ele>165.8</ele>
        <time>2020-06-10T16:50:41Z</time>
      </trkpt>
      <trkpt lat="48.56193" lon="-3.3502">
        <ele>165.6</ele>
        <time>2020-06-10T16:50:42Z</time>
      </trkpt>
      <trkpt lat="48.56196" lon="-3.35013">
        <ele>165.5</ele>
        <time>2020-06-10T16:50:43Z</time>
      </trkpt>
      <trkpt lat="48.56199" lon="-3.35005">
        <ele>165.3</ele>
        <time>2020-06-10T16:50:44Z</time>
      </trkpt>
      <trkpt lat="48.56202" lon="-3.34997">
        <ele>165.1</ele>
        <time>2020-06-10T16:50:45Z</time>
      </trkpt>
      <trkpt lat="48.56205" lon="-3.34988">
        <ele>165</ele>
        <time>2020-06-10T16:50:46Z</time>
      </trkpt>
      <trkpt lat="48.56208" lon="-3.3498">
        <ele>164.9</ele>
        <time>2020-06-10T16:50:47Z</time>
      </trkpt>
      <trkpt lat="48.56211" lon="-3.34972">
        <ele>164.8</ele>
        <time>2020-06-10T16:50:48Z</time>
      </trkpt>
      <trkpt lat="48.56215" lon="-3.34964">
        <ele>164.8</ele>
        <time>2020-06-10T16:50:49Z</time>
      </trkpt>
      <trkpt lat="48.56217" lon="-3.34955">
        <ele>164.8</ele>
        <time>2020-06-10T16:50:50Z</time>
      </trkpt>
      <trkpt lat="48.5622" lon="-3.34947">
        <ele>164.8</ele>
        <time>2020-06-10T16:50:51Z</time>
      </trkpt>
      <trkpt lat="48.56223" lon="-3.34939">
        <ele>164.8</ele>
        <time>2020-06-10T16:50:52Z</time>
      </trkpt>
      <trkpt lat="48.56226" lon="-3.34931">
        <ele>164.8</ele>
        <time>2020-06-10T16:50:53Z</time>
      </trkpt>
      <trkpt lat="48.56228" lon="-3.34923">
        <ele>164.8</ele>
        <time>2020-06-10T16:50:54Z</time>
      </trkpt>
      <trkpt lat="48.56231" lon="-3.34916">
        <ele>164.9</ele>
        <time>2020-06-10T16:50:55Z</time>
      </trkpt>
      <trkpt lat="48.56234" lon="-3.34908">
        <ele>165</ele>
        <time>2020-06-10T16:50:56Z</time>
      </trkpt>
      <trkpt lat="48.56237" lon="-3.34901">
        <ele>165.1</ele>
        <time>2020-06-10T16:50:57Z</time>
      </trkpt>
      <trkpt lat="48.5624" lon="-3.34895">
        <ele>165.3</ele>
        <time>2020-06-10T16:50:58Z</time>
      </trkpt>
      <trkpt lat="48.56242" lon="-3.34888">
        <ele>165.4</ele>
        <time>2020-06-10T16:50:59Z</time>
      </trkpt>
      <trkpt lat="48.56245" lon="-3.34882">
        <ele>165.6</ele>
        <time>2020-06-10T16:51:00Z</time>
      </trkpt>
      <trkpt lat="48.56246" lon="-3.34875">
        <ele>165.8</ele>
        <time>2020-06-10T16:51:01Z</time>
      </trkpt>
      <trkpt lat="48.56249" lon="-3.3487">
        <ele>166</ele>
        <time>2020-06-10T16:51:02Z</time>
      </trkpt>
      <trkpt lat="48.56251" lon="-3.34864">
        <ele>166.2</ele>
        <time>2020-06-10T16:51:03Z</time>
      </trkpt>
      <trkpt lat="48.56255" lon="-3.3486">
        <ele>166.3</ele>
        <time>2020-06-10T16:51:04Z</time>
      </trkpt>
      <trkpt lat="48.56257" lon="-3.34855">
        <ele>166.5</ele>
        <time>2020-06-10T16:51:05Z</time>
      </trkpt>
      <trkpt lat="48.56258" lon="-3.34849">
        <ele>166.7</ele>
        <time>2020-06-10T16:51:06Z</time>
      </trkpt>
      <trkpt lat="48.56259" lon="-3.34843">
        <ele>166.9</ele>
        <time>2020-06-10T16:51:07Z</time>
      </trkpt>
      <trkpt lat="48.56261" lon="-3.34838">
        <ele>167.1</ele>
        <time>2020-06-10T16:51:08Z</time>
      </trkpt>
      <trkpt lat="48.56261" lon="-3.34833">
        <ele>167.3</ele>
        <time>2020-06-10T16:51:09Z</time>
      </trkpt>
      <trkpt lat="48.56263" lon="-3.34828">
        <ele>167.5</ele>
        <time>2020-06-10T16:51:10Z</time>
      </trkpt>
      <trkpt lat="48.56265" lon="-3.34824">
        <ele>167.7</ele>
        <time>2020-06-10T16:51:11Z</time>
      </trkpt>
      <trkpt lat="48.56267" lon="-3.3482">
        <ele>167.9</ele>
        <time>2020-06-10T16:51:12Z</time>
      </trkpt>
      <trkpt lat="48.56268" lon="-3.34816">
        <ele>168.1</ele>
        <time>2020-06-10T16:51:13Z</time>
      </trkpt>
      <trkpt lat="48.5627" lon="-3.34812">
        <ele>168.3</ele>
        <time>2020-06-10T16:51:14Z</time>
      </trkpt>
      <trkpt lat="48.56272" lon="-3.34808">
        <ele>168.5</ele>
        <time>2020-06-10T16:51:15Z</time>
      </trkpt>
      <trkpt lat="48.56274" lon="-3.34805">
        <ele>168.7</ele>
        <time>2020-06-10T16:51:16Z</time>
      </trkpt>
      <trkpt lat="48.56275" lon="-3.348">
        <ele>169</ele>
        <time>2020-06-10T16:51:17Z</time>
      </trkpt>
      <trkpt lat="48.56276" lon="-3.34795">
        <ele>169.2</ele>
        <time>2020-06-10T16:51:18Z</time>
      </trkpt>
      <trkpt lat="48.56277" lon="-3.3479">
        <ele>169.5</ele>
        <time>2020-06-10T16:51:19Z</time>
      </trkpt>
      <trkpt lat="48.56279" lon="-3.34785">
        <ele>169.7</ele>
        <time>2020-06-10T16:51:20Z</time>
      </trkpt>
      <trkpt lat="48.5628" lon="-3.34781">
        <ele>169.9</ele>
        <time>2020-06-10T16:51:21Z</time>
      </trkpt>
      <trkpt lat="48.56282" lon="-3.34777">
        <ele>170.2</ele>
        <time>2020-06-10T16:51:22Z</time>
      </trkpt>
      <trkpt lat="48.56284" lon="-3.34773">
        <ele>170.4</ele>
        <time>2020-06-10T16:51:23Z</time>
      </trkpt>
      <trkpt lat="48.56285" lon="-3.34769">
        <ele>170.6</ele>
        <time>2020-06-10T16:51:24Z</time>
      </trkpt>
      <trkpt lat="48.56286" lon="-3.34766">
        <ele>170.8</ele>
        <time>2020-06-10T16:51:25Z</time>
      </trkpt>
      <trkpt lat="48.56287" lon="-3.34761">
        <ele>171</ele>
        <time>2020-06-10T16:51:26Z</time>
      </trkpt>
      <trkpt lat="48.56289" lon="-3.34756">
        <ele>171.2</ele>
        <time>2020-06-10T16:51:27Z</time>
      </trkpt>
      <trkpt lat="48.5629" lon="-3.34753">
        <ele>171.3</ele>
        <time>2020-06-10T16:51:28Z</time>
      </trkpt>
      <trkpt lat="48.56292" lon="-3.34749">
        <ele>171.6</ele>
        <time>2020-06-10T16:51:29Z</time>
      </trkpt>
      <trkpt lat="48.56292" lon="-3.34746">
        <ele>171.7</ele>
        <time>2020-06-10T16:51:30Z</time>
      </trkpt>
      <trkpt lat="48.56294" lon="-3.34741">
        <ele>172</ele>
        <time>2020-06-10T16:51:31Z</time>
      </trkpt>
      <trkpt lat="48.56295" lon="-3.34738">
        <ele>172.1</ele>
        <time>2020-06-10T16:51:32Z</time>
      </trkpt>
      <trkpt lat="48.56296" lon="-3.34734">
        <ele>172.3</ele>
        <time>2020-06-10T16:51:33Z</time>
      </trkpt>
      <trkpt lat="48.56298" lon="-3.34729">
        <ele>172.6</ele>
        <time>2020-06-10T16:51:34Z</time>
      </trkpt>
      <trkpt lat="48.56301" lon="-3.34723">
        <ele>172.8</ele>
        <time>2020-06-10T16:51:35Z</time>
      </trkpt>
      <trkpt lat="48.56302" lon="-3.34719">
        <ele>173.1</ele>
        <time>2020-06-10T16:51:36Z</time>
      </trkpt>
      <trkpt lat="48.56304" lon="-3.34713">
        <ele>173.3</ele>
        <time>2020-06-10T16:51:37Z</time>
      </trkpt>
      <trkpt lat="48.56306" lon="-3.34709">
        <ele>173.5</ele>
        <time>2020-06-10T16:51:38Z</time>
      </trkpt>
      <trkpt lat="48.56307" lon="-3.34705">
        <ele>173.7</ele>
        <time>2020-06-10T16:51:39Z</time>
      </trkpt>
      <trkpt lat="48.56309" lon="-3.347">
        <ele>173.9</ele>
        <time>2020-06-10T16:51:40Z</time>
      </trkpt>
      <trkpt lat="48.56312" lon="-3.34694">
        <ele>174.2</ele>
        <time>2020-06-10T16:51:41Z</time>
      </trkpt>
      <trkpt lat="48.56314" lon="-3.3469">
        <ele>174.3</ele>
        <time>2020-06-10T16:51:42Z</time>
      </trkpt>
      <trkpt lat="48.56316" lon="-3.34686">
        <ele>174.5</ele>
        <time>2020-06-10T16:51:43Z</time>
      </trkpt>
      <trkpt lat="48.56318" lon="-3.34682">
        <ele>174.6</ele>
        <time>2020-06-10T16:51:44Z</time>
      </trkpt>
      <trkpt lat="48.56319" lon="-3.34678">
        <ele>174.8</ele>
        <time>2020-06-10T16:51:45Z</time>
      </trkpt>
      <trkpt lat="48.56321" lon="-3.34674">
        <ele>174.9</ele>
        <time>2020-06-10T16:51:46Z</time>
      </trkpt>
      <trkpt lat="48.56322" lon="-3.34669">
        <ele>175</ele>
        <time>2020-06-10T16:51:47Z</time>
      </trkpt>
      <trkpt lat="48.56324" lon="-3.34665">
        <ele>175.2</ele>
        <time>2020-06-10T16:51:48Z</time>
      </trkpt>
      <trkpt lat="48.56326" lon="-3.3466">
        <ele>175.3</ele>
        <time>2020-06-10T16:51:49Z</time>
      </trkpt>
      <trkpt lat="48.56328" lon="-3.34655">
        <ele>175.5</ele>
        <time>2020-06-10T16:51:50Z</time>
      </trkpt>
      <trkpt lat="48.56329" lon="-3.34653">
        <ele>175.6</ele>
        <time>2020-06-10T16:51:51Z</time>
      </trkpt>
      <trkpt lat="48.5633" lon="-3.34647">
        <ele>175.7</ele>
        <time>2020-06-10T16:51:52Z</time>
      </trkpt>
      <trkpt lat="48.56331" lon="-3.34644">
        <ele>175.8</ele>
        <time>2020-06-10T16:51:53Z</time>
      </trkpt>
      <trkpt lat="48.56332" lon="-3.34642">
        <ele>175.9</ele>
        <time>2020-06-10T16:51:54Z</time>
      </trkpt>
      <trkpt lat="48.56333" lon="-3.34638">
        <ele>176</ele>
        <time>2020-06-10T16:51:55Z</time>
      </trkpt>
      <trkpt lat="48.56336" lon="-3.34633">
        <ele>176.1</ele>
        <time>2020-06-10T16:51:56Z</time>
      </trkpt>
      <trkpt lat="48.56339" lon="-3.34628">
        <ele>176.2</ele>
        <time>2020-06-10T16:51:57Z</time>
      </trkpt>
      <trkpt lat="48.5634" lon="-3.34626">
        <ele>176.2</ele>
        <time>2020-06-10T16:51:58Z</time>
      </trkpt>
      <trkpt lat="48.56341" lon="-3.34619">
        <ele>176.4</ele>
        <time>2020-06-10T16:51:59Z</time>
      </trkpt>
      <trkpt lat="48.56344" lon="-3.34616">
        <ele>176.4</ele>
        <time>2020-06-10T16:52:00Z</time>
      </trkpt>
      <trkpt lat="48.56344" lon="-3.34614">
        <ele>176.5</ele>
        <time>2020-06-10T16:52:01Z</time>
      </trkpt>
      <trkpt lat="48.56346" lon="-3.34609">
        <ele>176.5</ele>
        <time>2020-06-10T16:52:02Z</time>
      </trkpt>
      <trkpt lat="48.56347" lon="-3.34604">
        <ele>176.6</ele>
        <time>2020-06-10T16:52:03Z</time>
      </trkpt>
      <trkpt lat="48.56348" lon="-3.34599">
        <ele>176.7</ele>
        <time>2020-06-10T16:52:04Z</time>
      </trkpt>
      <trkpt lat="48.5635" lon="-3.34595">
        <ele>176.8</ele>
        <time>2020-06-10T16:52:05Z</time>
      </trkpt>
      <trkpt lat="48.56351" lon="-3.3459">
        <ele>177</ele>
        <time>2020-06-10T16:52:06Z</time>
      </trkpt>
      <trkpt lat="48.56354" lon="-3.34586">
        <ele>177.1</ele>
        <time>2020-06-10T16:52:07Z</time>
      </trkpt>
      <trkpt lat="48.56356" lon="-3.34579">
        <ele>177.3</ele>
        <time>2020-06-10T16:52:08Z</time>
      </trkpt>
      <trkpt lat="48.56359" lon="-3.34573">
        <ele>177.4</ele>
        <time>2020-06-10T16:52:09Z</time>
      </trkpt>
      <trkpt lat="48.56361" lon="-3.34566">
        <ele>177.6</ele>
        <time>2020-06-10T16:52:10Z</time>
      </trkpt>
      <trkpt lat="48.56363" lon="-3.34561">
        <ele>177.7</ele>
        <time>2020-06-10T16:52:11Z</time>
      </trkpt>
      <trkpt lat="48.56365" lon="-3.34557">
        <ele>177.8</ele>
        <time>2020-06-10T16:52:12Z</time>
      </trkpt>
      <trkpt lat="48.56367" lon="-3.34551">
        <ele>177.9</ele>
        <time>2020-06-10T16:52:13Z</time>
      </trkpt>
      <trkpt lat="48.56369" lon="-3.34547">
        <ele>178</ele>
        <time>2020-06-10T16:52:14Z</time>
      </trkpt>
      <trkpt lat="48.5637" lon="-3.34541">
        <ele>178.1</ele>
        <time>2020-06-10T16:52:15Z</time>
      </trkpt>
      <trkpt lat="48.56372" lon="-3.34538">
        <ele>178.2</ele>
        <time>2020-06-10T16:52:16Z</time>
      </trkpt>
      <trkpt lat="48.56374" lon="-3.34533">
        <ele>178.3</ele>
        <time>2020-06-10T16:52:17Z</time>
      </trkpt>
      <trkpt lat="48.56376" lon="-3.34529">
        <ele>178.4</ele>
        <time>2020-06-10T16:52:18Z</time>
      </trkpt>
      <trkpt lat="48.56378" lon="-3.34525">
        <ele>178.5</ele>
        <time>2020-06-10T16:52:19Z</time>
      </trkpt>
      <trkpt lat="48.5638" lon="-3.3452">
        <ele>178.6</ele>
        <time>2020-06-10T16:52:20Z</time>
      </trkpt>
      <trkpt lat="48.56382" lon="-3.34516">
        <ele>178.7</ele>
        <time>2020-06-10T16:52:21Z</time>
      </trkpt>
      <trkpt lat="48.56383" lon="-3.34511">
        <ele>178.8</ele>
        <time>2020-06-10T16:52:22Z</time>
      </trkpt>
      <trkpt lat="48.56384" lon="-3.34509">
        <ele>178.9</ele>
        <time>2020-06-10T16:52:23Z</time>
      </trkpt>
      <trkpt lat="48.56386" lon="-3.34505">
        <ele>179</ele>
        <time>2020-06-10T16:52:24Z</time>
      </trkpt>
      <trkpt lat="48.56387" lon="-3.34501">
        <ele>179.1</ele>
        <time>2020-06-10T16:52:25Z</time>
      </trkpt>
      <trkpt lat="48.56389" lon="-3.34496">
        <ele>179.2</ele>
        <time>2020-06-10T16:52:26Z</time>
      </trkpt>
      <trkpt lat="48.5639" lon="-3.34493">
        <ele>179.3</ele>
        <time>2020-06-10T16:52:27Z</time>
      </trkpt>
      <trkpt lat="48.56391" lon="-3.34488">
        <ele>179.4</ele>
        <time>2020-06-10T16:52:28Z</time>
      </trkpt>
      <trkpt lat="48.56392" lon="-3.34482">
        <ele>179.5</ele>
        <time>2020-06-10T16:52:29Z</time>
      </trkpt>
      <trkpt lat="48.56394" lon="-3.34478">
        <ele>179.8</ele>
        <time>2020-06-10T16:52:30Z</time>
      </trkpt>
      <trkpt lat="48.56396" lon="-3.34473">
        <ele>180</ele>
        <time>2020-06-10T16:52:31Z</time>
      </trkpt>
      <trkpt lat="48.56397" lon="-3.3447">
        <ele>180.1</ele>
        <time>2020-06-10T16:52:32Z</time>
      </trkpt>
      <trkpt lat="48.56399" lon="-3.34467">
        <ele>180.3</ele>
        <time>2020-06-10T16:52:33Z</time>
      </trkpt>
      <trkpt lat="48.564" lon="-3.34462">
        <ele>180.5</ele>
        <time>2020-06-10T16:52:34Z</time>
      </trkpt>
      <trkpt lat="48.56402" lon="-3.34457">
        <ele>180.6</ele>
        <time>2020-06-10T16:52:35Z</time>
      </trkpt>
      <trkpt lat="48.56404" lon="-3.34452">
        <ele>180.8</ele>
        <time>2020-06-10T16:52:36Z</time>
      </trkpt>
      <trkpt lat="48.56407" lon="-3.34448">
        <ele>180.9</ele>
        <time>2020-06-10T16:52:37Z</time>
      </trkpt>
      <trkpt lat="48.56408" lon="-3.34444">
        <ele>181.1</ele>
        <time>2020-06-10T16:52:38Z</time>
      </trkpt>
      <trkpt lat="48.5641" lon="-3.34439">
        <ele>181.2</ele>
        <time>2020-06-10T16:52:39Z</time>
      </trkpt>
      <trkpt lat="48.56411" lon="-3.34434">
        <ele>181.3</ele>
        <time>2020-06-10T16:52:40Z</time>
      </trkpt>
      <trkpt lat="48.56413" lon="-3.34431">
        <ele>181.4</ele>
        <time>2020-06-10T16:52:41Z</time>
      </trkpt>
      <trkpt lat="48.56415" lon="-3.34425">
        <ele>181.6</ele>
        <time>2020-06-10T16:52:42Z</time>
      </trkpt>
      <trkpt lat="48.56415" lon="-3.34423">
        <ele>181.6</ele>
        <time>2020-06-10T16:52:43Z</time>
      </trkpt>
      <trkpt lat="48.56416" lon="-3.34418">
        <ele>181.7</ele>
        <time>2020-06-10T16:52:44Z</time>
      </trkpt>
      <trkpt lat="48.56418" lon="-3.34413">
        <ele>181.8</ele>
        <time>2020-06-10T16:52:45Z</time>
      </trkpt>
      <trkpt lat="48.5642" lon="-3.3441">
        <ele>181.9</ele>
        <time>2020-06-10T16:52:46Z</time>
      </trkpt>
      <trkpt lat="48.56422" lon="-3.34405">
        <ele>182</ele>
        <time>2020-06-10T16:52:47Z</time>
      </trkpt>
      <trkpt lat="48.56423" lon="-3.34401">
        <ele>182.1</ele>
        <time>2020-06-10T16:52:48Z</time>
      </trkpt>
      <trkpt lat="48.56425" lon="-3.34395">
        <ele>182.2</ele>
        <time>2020-06-10T16:52:49Z</time>
      </trkpt>
      <trkpt lat="48.56427" lon="-3.3439">
        <ele>182.3</ele>
        <time>2020-06-10T16:52:50Z</time>
      </trkpt>
      <trkpt lat="48.56428" lon="-3.34386">
        <ele>182.3</ele>
        <time>2020-06-10T16:52:51Z</time>
      </trkpt>
      <trkpt lat="48.5643" lon="-3.34381">
        <ele>182.4</ele>
        <time>2020-06-10T16:52:52Z</time>
      </trkpt>
      <trkpt lat="48.56432" lon="-3.34374">
        <ele>182.5</ele>
        <time>2020-06-10T16:52:53Z</time>
      </trkpt>
      <trkpt lat="48.56435" lon="-3.34369">
        <ele>182.6</ele>
        <time>2020-06-10T16:52:54Z</time>
      </trkpt>
      <trkpt lat="48.56437" lon="-3.34363">
        <ele>182.6</ele>
        <time>2020-06-10T16:52:55Z</time>
      </trkpt>
      <trkpt lat="48.56439" lon="-3.34358">
        <ele>182.7</ele>
        <time>2020-06-10T16:52:56Z</time>
      </trkpt>
      <trkpt lat="48.5644" lon="-3.34353">
        <ele>182.7</ele>
        <time>2020-06-10T16:52:57Z</time>
      </trkpt>
      <trkpt lat="48.56442" lon="-3.34348">
        <ele>182.7</ele>
        <time>2020-06-10T16:52:58Z</time>
      </trkpt>
      <trkpt lat="48.56444" lon="-3.34344">
        <ele>182.8</ele>
        <time>2020-06-10T16:52:59Z</time>
      </trkpt>
      <trkpt lat="48.56446" lon="-3.3434">
        <ele>182.8</ele>
        <time>2020-06-10T16:53:00Z</time>
      </trkpt>
      <trkpt lat="48.56448" lon="-3.34334">
        <ele>182.9</ele>
        <time>2020-06-10T16:53:01Z</time>
      </trkpt>
      <trkpt lat="48.5645" lon="-3.34329">
        <ele>182.9</ele>
        <time>2020-06-10T16:53:02Z</time>
      </trkpt>
      <trkpt lat="48.56452" lon="-3.34324">
        <ele>182.9</ele>
        <time>2020-06-10T16:53:03Z</time>
      </trkpt>
      <trkpt lat="48.56454" lon="-3.34319">
        <ele>182.9</ele>
        <time>2020-06-10T16:53:04Z</time>
      </trkpt>
      <trkpt lat="48.56457" lon="-3.34312">
        <ele>182.9</ele>
        <time>2020-06-10T16:53:05Z</time>
      </trkpt>
      <trkpt lat="48.5646" lon="-3.34307">
        <ele>182.8</ele>
        <time>2020-06-10T16:53:06Z</time>
      </trkpt>
      <trkpt lat="48.56462" lon="-3.34301">
        <ele>182.8</ele>
        <time>2020-06-10T16:53:07Z</time>
      </trkpt>
      <trkpt lat="48.56465" lon="-3.34296">
        <ele>182.8</ele>
        <time>2020-06-10T16:53:08Z</time>
      </trkpt>
      <trkpt lat="48.56467" lon="-3.3429">
        <ele>182.8</ele>
        <time>2020-06-10T16:53:09Z</time>
      </trkpt>
      <trkpt lat="48.56469" lon="-3.34285">
        <ele>182.8</ele>
        <time>2020-06-10T16:53:10Z</time>
      </trkpt>
      <trkpt lat="48.5647" lon="-3.34279">
        <ele>182.8</ele>
        <time>2020-06-10T16:53:11Z</time>
      </trkpt>
      <trkpt lat="48.56472" lon="-3.34274">
        <ele>182.8</ele>
        <time>2020-06-10T16:53:12Z</time>
      </trkpt>
      <trkpt lat="48.56474" lon="-3.34267">
        <ele>182.8</ele>
        <time>2020-06-10T16:53:13Z</time>
      </trkpt>
      <trkpt lat="48.56476" lon="-3.34262">
        <ele>182.7</ele>
        <time>2020-06-10T16:53:14Z</time>
      </trkpt>
      <trkpt lat="48.56479" lon="-3.34256">
        <ele>182.7</ele>
        <time>2020-06-10T16:53:15Z</time>
      </trkpt>
      <trkpt lat="48.56482" lon="-3.34252">
        <ele>182.6</ele>
        <time>2020-06-10T16:53:16Z</time>
      </trkpt>
      <trkpt lat="48.56483" lon="-3.34247">
        <ele>182.5</ele>
        <time>2020-06-10T16:53:17Z</time>
      </trkpt>
      <trkpt lat="48.56485" lon="-3.34241">
        <ele>182.4</ele>
        <time>2020-06-10T16:53:18Z</time>
      </trkpt>
      <trkpt lat="48.56488" lon="-3.34236">
        <ele>182.4</ele>
        <time>2020-06-10T16:53:19Z</time>
      </trkpt>
      <trkpt lat="48.5649" lon="-3.3423">
        <ele>182.4</ele>
        <time>2020-06-10T16:53:20Z</time>
      </trkpt>
      <trkpt lat="48.56492" lon="-3.34223">
        <ele>182.4</ele>
        <time>2020-06-10T16:53:21Z</time>
      </trkpt>
      <trkpt lat="48.56493" lon="-3.34217">
        <ele>182.4</ele>
        <time>2020-06-10T16:53:22Z</time>
      </trkpt>
      <trkpt lat="48.56495" lon="-3.34212">
        <ele>182.4</ele>
        <time>2020-06-10T16:53:23Z</time>
      </trkpt>
      <trkpt lat="48.56497" lon="-3.34206">
        <ele>182.4</ele>
        <time>2020-06-10T16:53:24Z</time>
      </trkpt>
      <trkpt lat="48.56498" lon="-3.34201">
        <ele>182.4</ele>
        <time>2020-06-10T16:53:25Z</time>
      </trkpt>
      <trkpt lat="48.565" lon="-3.34196">
        <ele>182.4</ele>
        <time>2020-06-10T16:53:26Z</time>
      </trkpt>
      <trkpt lat="48.56502" lon="-3.34189">
        <ele>182.4</ele>
        <time>2020-06-10T16:53:27Z</time>
      </trkpt>
      <trkpt lat="48.56505" lon="-3.34185">
        <ele>182.4</ele>
        <time>2020-06-10T16:53:28Z</time>
      </trkpt>
      <trkpt lat="48.56507" lon="-3.34179">
        <ele>182.4</ele>
        <time>2020-06-10T16:53:29Z</time>
      </trkpt>
      <trkpt lat="48.5651" lon="-3.34174">
        <ele>182.4</ele>
        <time>2020-06-10T16:53:30Z</time>
      </trkpt>
      <trkpt lat="48.56513" lon="-3.34169">
        <ele>182.4</ele>
        <time>2020-06-10T16:53:31Z</time>
      </trkpt>
      <trkpt lat="48.56515" lon="-3.34163">
        <ele>182.4</ele>
        <time>2020-06-10T16:53:32Z</time>
      </trkpt>
      <trkpt lat="48.56517" lon="-3.34158">
        <ele>182.4</ele>
        <time>2020-06-10T16:53:33Z</time>
      </trkpt>
      <trkpt lat="48.5652" lon="-3.34152">
        <ele>182.4</ele>
        <time>2020-06-10T16:53:34Z</time>
      </trkpt>
      <trkpt lat="48.56522" lon="-3.34145">
        <ele>182.4</ele>
        <time>2020-06-10T16:53:35Z</time>
      </trkpt>
      <trkpt lat="48.56523" lon="-3.3414">
        <ele>182.4</ele>
        <time>2020-06-10T16:53:36Z</time>
      </trkpt>
      <trkpt lat="48.56525" lon="-3.34134">
        <ele>182.5</ele>
        <time>2020-06-10T16:53:37Z</time>
      </trkpt>
      <trkpt lat="48.56527" lon="-3.34127">
        <ele>182.5</ele>
        <time>2020-06-10T16:53:38Z</time>
      </trkpt>
      <trkpt lat="48.56529" lon="-3.34119">
        <ele>182.5</ele>
        <time>2020-06-10T16:53:39Z</time>
      </trkpt>
      <trkpt lat="48.56532" lon="-3.34116">
        <ele>182.6</ele>
        <time>2020-06-10T16:53:40Z</time>
      </trkpt>
      <trkpt lat="48.56533" lon="-3.34109">
        <ele>182.6</ele>
        <time>2020-06-10T16:53:41Z</time>
      </trkpt>
      <trkpt lat="48.56536" lon="-3.34103">
        <ele>182.6</ele>
        <time>2020-06-10T16:53:42Z</time>
      </trkpt>
      <trkpt lat="48.56539" lon="-3.34098">
        <ele>182.6</ele>
        <time>2020-06-10T16:53:43Z</time>
      </trkpt>
      <trkpt lat="48.56541" lon="-3.34092">
        <ele>182.7</ele>
        <time>2020-06-10T16:53:44Z</time>
      </trkpt>
      <trkpt lat="48.56542" lon="-3.34087">
        <ele>182.7</ele>
        <time>2020-06-10T16:53:45Z</time>
      </trkpt>
      <trkpt lat="48.56545" lon="-3.34082">
        <ele>182.7</ele>
        <time>2020-06-10T16:53:46Z</time>
      </trkpt>
      <trkpt lat="48.56545" lon="-3.34079">
        <ele>182.7</ele>
        <time>2020-06-10T16:53:47Z</time>
      </trkpt>
      <trkpt lat="48.56548" lon="-3.34073">
        <ele>182.7</ele>
        <time>2020-06-10T16:53:48Z</time>
      </trkpt>
      <trkpt lat="48.5655" lon="-3.34065">
        <ele>182.7</ele>
        <time>2020-06-10T16:53:49Z</time>
      </trkpt>
      <trkpt lat="48.56552" lon="-3.34058">
        <ele>182.7</ele>
        <time>2020-06-10T16:53:50Z</time>
      </trkpt>
      <trkpt lat="48.56554" lon="-3.34052">
        <ele>182.7</ele>
        <time>2020-06-10T16:53:51Z</time>
      </trkpt>
      <trkpt lat="48.56556" lon="-3.34046">
        <ele>182.7</ele>
        <time>2020-06-10T16:53:52Z</time>
      </trkpt>
      <trkpt lat="48.56558" lon="-3.3404">
        <ele>182.8</ele>
        <time>2020-06-10T16:53:53Z</time>
      </trkpt>
      <trkpt lat="48.56561" lon="-3.34035">
        <ele>182.8</ele>
        <time>2020-06-10T16:53:54Z</time>
      </trkpt>
      <trkpt lat="48.56562" lon="-3.34028">
        <ele>182.9</ele>
        <time>2020-06-10T16:53:55Z</time>
      </trkpt>
      <trkpt lat="48.56565" lon="-3.34023">
        <ele>182.9</ele>
        <time>2020-06-10T16:53:56Z</time>
      </trkpt>
      <trkpt lat="48.56567" lon="-3.34016">
        <ele>183</ele>
        <time>2020-06-10T16:53:57Z</time>
      </trkpt>
      <trkpt lat="48.56569" lon="-3.34011">
        <ele>183</ele>
        <time>2020-06-10T16:53:58Z</time>
      </trkpt>
      <trkpt lat="48.56572" lon="-3.34006">
        <ele>183.1</ele>
        <time>2020-06-10T16:53:59Z</time>
      </trkpt>
      <trkpt lat="48.56575" lon="-3.33998">
        <ele>183.1</ele>
        <time>2020-06-10T16:54:00Z</time>
      </trkpt>
      <trkpt lat="48.56577" lon="-3.33992">
        <ele>183.2</ele>
        <time>2020-06-10T16:54:01Z</time>
      </trkpt>
      <trkpt lat="48.5658" lon="-3.33987">
        <ele>183.3</ele>
        <time>2020-06-10T16:54:02Z</time>
      </trkpt>
      <trkpt lat="48.56583" lon="-3.33982">
        <ele>183.4</ele>
        <time>2020-06-10T16:54:03Z</time>
      </trkpt>
      <trkpt lat="48.56585" lon="-3.33977">
        <ele>183.5</ele>
        <time>2020-06-10T16:54:04Z</time>
      </trkpt>
      <trkpt lat="48.56588" lon="-3.3397">
        <ele>183.6</ele>
        <time>2020-06-10T16:54:05Z</time>
      </trkpt>
      <trkpt lat="48.5659" lon="-3.33964">
        <ele>183.8</ele>
        <time>2020-06-10T16:54:06Z</time>
      </trkpt>
      <trkpt lat="48.56592" lon="-3.33958">
        <ele>183.9</ele>
        <time>2020-06-10T16:54:07Z</time>
      </trkpt>
      <trkpt lat="48.56593" lon="-3.33949">
        <ele>184.1</ele>
        <time>2020-06-10T16:54:08Z</time>
      </trkpt>
      <trkpt lat="48.56596" lon="-3.33945">
        <ele>184.2</ele>
        <time>2020-06-10T16:54:09Z</time>
      </trkpt>
      <trkpt lat="48.56598" lon="-3.3394">
        <ele>184.3</ele>
        <time>2020-06-10T16:54:10Z</time>
      </trkpt>
      <trkpt lat="48.566" lon="-3.33933">
        <ele>184.4</ele>
        <time>2020-06-10T16:54:11Z</time>
      </trkpt>
      <trkpt lat="48.56602" lon="-3.33926">
        <ele>184.5</ele>
        <time>2020-06-10T16:54:12Z</time>
      </trkpt>
      <trkpt lat="48.56603" lon="-3.33917">
        <ele>184.7</ele>
        <time>2020-06-10T16:54:13Z</time>
      </trkpt>
      <trkpt lat="48.56605" lon="-3.33911">
        <ele>184.8</ele>
        <time>2020-06-10T16:54:14Z</time>
      </trkpt>
      <trkpt lat="48.56607" lon="-3.33905">
        <ele>185</ele>
        <time>2020-06-10T16:54:15Z</time>
      </trkpt>
      <trkpt lat="48.56609" lon="-3.33899">
        <ele>185.1</ele>
        <time>2020-06-10T16:54:16Z</time>
      </trkpt>
      <trkpt lat="48.56611" lon="-3.33892">
        <ele>185.2</ele>
        <time>2020-06-10T16:54:17Z</time>
      </trkpt>
      <trkpt lat="48.56611" lon="-3.33887">
        <ele>185.2</ele>
        <time>2020-06-10T16:54:18Z</time>
      </trkpt>
      <trkpt lat="48.56614" lon="-3.3388">
        <ele>185.2</ele>
        <time>2020-06-10T16:54:19Z</time>
      </trkpt>
      <trkpt lat="48.56615" lon="-3.33874">
        <ele>185.3</ele>
        <time>2020-06-10T16:54:20Z</time>
      </trkpt>
      <trkpt lat="48.56615" lon="-3.33869">
        <ele>185.4</ele>
        <time>2020-06-10T16:54:21Z</time>
      </trkpt>
      <trkpt lat="48.56615" lon="-3.33864">
        <ele>185.5</ele>
        <time>2020-06-10T16:54:22Z</time>
      </trkpt>
      <trkpt lat="48.56616" lon="-3.33859">
        <ele>185.7</ele>
        <time>2020-06-10T16:54:23Z</time>
      </trkpt>
      <trkpt lat="48.56617" lon="-3.33854">
        <ele>185.8</ele>
        <time>2020-06-10T16:54:24Z</time>
      </trkpt>
      <trkpt lat="48.56617" lon="-3.33849">
        <ele>186</ele>
        <time>2020-06-10T16:54:25Z</time>
      </trkpt>
      <trkpt lat="48.56617" lon="-3.33844">
        <ele>186.1</ele>
        <time>2020-06-10T16:54:26Z</time>
      </trkpt>
      <trkpt lat="48.56618" lon="-3.33838">
        <ele>186.2</ele>
        <time>2020-06-10T16:54:27Z</time>
      </trkpt>
      <trkpt lat="48.56618" lon="-3.33833">
        <ele>186.4</ele>
        <time>2020-06-10T16:54:28Z</time>
      </trkpt>
      <trkpt lat="48.56618" lon="-3.33828">
        <ele>186.5</ele>
        <time>2020-06-10T16:54:29Z</time>
      </trkpt>
      <trkpt lat="48.56617" lon="-3.33823">
        <ele>186.6</ele>
        <time>2020-06-10T16:54:30Z</time>
      </trkpt>
      <trkpt lat="48.56617" lon="-3.33816">
        <ele>186.8</ele>
        <time>2020-06-10T16:54:31Z</time>
      </trkpt>
      <trkpt lat="48.56617" lon="-3.33812">
        <ele>187</ele>
        <time>2020-06-10T16:54:32Z</time>
      </trkpt>
      <trkpt lat="48.56617" lon="-3.33806">
        <ele>187.1</ele>
        <time>2020-06-10T16:54:33Z</time>
      </trkpt>
      <trkpt lat="48.56617" lon="-3.33801">
        <ele>187.3</ele>
        <time>2020-06-10T16:54:34Z</time>
      </trkpt>
      <trkpt lat="48.56617" lon="-3.33796">
        <ele>187.4</ele>
        <time>2020-06-10T16:54:35Z</time>
      </trkpt>
      <trkpt lat="48.56618" lon="-3.33791">
        <ele>187.6</ele>
        <time>2020-06-10T16:54:36Z</time>
      </trkpt>
      <trkpt lat="48.5662" lon="-3.33787">
        <ele>187.7</ele>
        <time>2020-06-10T16:54:37Z</time>
      </trkpt>
      <trkpt lat="48.56621" lon="-3.33782">
        <ele>187.9</ele>
        <time>2020-06-10T16:54:38Z</time>
      </trkpt>
      <trkpt lat="48.56622" lon="-3.33777">
        <ele>188.1</ele>
        <time>2020-06-10T16:54:39Z</time>
      </trkpt>
      <trkpt lat="48.56623" lon="-3.3377">
        <ele>188.3</ele>
        <time>2020-06-10T16:54:40Z</time>
      </trkpt>
      <trkpt lat="48.56625" lon="-3.33764">
        <ele>188.5</ele>
        <time>2020-06-10T16:54:41Z</time>
      </trkpt>
      <trkpt lat="48.56625" lon="-3.33758">
        <ele>188.7</ele>
        <time>2020-06-10T16:54:42Z</time>
      </trkpt>
      <trkpt lat="48.56626" lon="-3.33753">
        <ele>188.9</ele>
        <time>2020-06-10T16:54:43Z</time>
      </trkpt>
      <trkpt lat="48.56627" lon="-3.33746">
        <ele>189.1</ele>
        <time>2020-06-10T16:54:44Z</time>
      </trkpt>
      <trkpt lat="48.56627" lon="-3.33743">
        <ele>189.3</ele>
        <time>2020-06-10T16:54:45Z</time>
      </trkpt>
      <trkpt lat="48.56627" lon="-3.33737">
        <ele>189.5</ele>
        <time>2020-06-10T16:54:46Z</time>
      </trkpt>
      <trkpt lat="48.56628" lon="-3.33732">
        <ele>189.7</ele>
        <time>2020-06-10T16:54:47Z</time>
      </trkpt>
      <trkpt lat="48.56628" lon="-3.33728">
        <ele>189.8</ele>
        <time>2020-06-10T16:54:48Z</time>
      </trkpt>
      <trkpt lat="48.56627" lon="-3.33723">
        <ele>190</ele>
        <time>2020-06-10T16:54:49Z</time>
      </trkpt>
      <trkpt lat="48.56627" lon="-3.33717">
        <ele>190.3</ele>
        <time>2020-06-10T16:54:50Z</time>
      </trkpt>
      <trkpt lat="48.56627" lon="-3.33715">
        <ele>190.4</ele>
        <time>2020-06-10T16:54:51Z</time>
      </trkpt>
      <trkpt lat="48.56628" lon="-3.3371">
        <ele>190.6</ele>
        <time>2020-06-10T16:54:52Z</time>
      </trkpt>
      <trkpt lat="48.56627" lon="-3.33705">
        <ele>190.8</ele>
        <time>2020-06-10T16:54:53Z</time>
      </trkpt>
      <trkpt lat="48.56627" lon="-3.337">
        <ele>191</ele>
        <time>2020-06-10T16:54:54Z</time>
      </trkpt>
      <trkpt lat="48.56628" lon="-3.33698">
        <ele>191.1</ele>
        <time>2020-06-10T16:54:55Z</time>
      </trkpt>
      <trkpt lat="48.56626" lon="-3.33694">
        <ele>191.3</ele>
        <time>2020-06-10T16:54:56Z</time>
      </trkpt>
      <trkpt lat="48.56627" lon="-3.3369">
        <ele>191.4</ele>
        <time>2020-06-10T16:54:57Z</time>
      </trkpt>
      <trkpt lat="48.56627" lon="-3.33684">
        <ele>191.7</ele>
        <time>2020-06-10T16:54:58Z</time>
      </trkpt>
      <trkpt lat="48.56627" lon="-3.33682">
        <ele>191.7</ele>
        <time>2020-06-10T16:54:59Z</time>
      </trkpt>
      <trkpt lat="48.56628" lon="-3.33677">
        <ele>191.9</ele>
        <time>2020-06-10T16:55:00Z</time>
      </trkpt>
      <trkpt lat="48.56629" lon="-3.33673">
        <ele>192</ele>
        <time>2020-06-10T16:55:01Z</time>
      </trkpt>
      <trkpt lat="48.56628" lon="-3.33669">
        <ele>192.1</ele>
        <time>2020-06-10T16:55:02Z</time>
      </trkpt>
      <trkpt lat="48.56628" lon="-3.33664">
        <ele>192.2</ele>
        <time>2020-06-10T16:55:03Z</time>
      </trkpt>
      <trkpt lat="48.56629" lon="-3.33658">
        <ele>192.3</ele>
        <time>2020-06-10T16:55:04Z</time>
      </trkpt>
      <trkpt lat="48.56627" lon="-3.33652">
        <ele>192.4</ele>
        <time>2020-06-10T16:55:05Z</time>
      </trkpt>
      <trkpt lat="48.56627" lon="-3.3365">
        <ele>192.5</ele>
        <time>2020-06-10T16:55:06Z</time>
      </trkpt>
      <trkpt lat="48.56626" lon="-3.33645">
        <ele>192.8</ele>
        <time>2020-06-10T16:55:07Z</time>
      </trkpt>
      <trkpt lat="48.56625" lon="-3.3364">
        <ele>192.8</ele>
        <time>2020-06-10T16:55:08Z</time>
      </trkpt>
      <trkpt lat="48.56625" lon="-3.33636">
        <ele>192.8</ele>
        <time>2020-06-10T16:55:09Z</time>
      </trkpt>
      <trkpt lat="48.56625" lon="-3.3363">
        <ele>193.1</ele>
        <time>2020-06-10T16:55:10Z</time>
      </trkpt>
      <trkpt lat="48.56626" lon="-3.33624">
        <ele>193.2</ele>
        <time>2020-06-10T16:55:11Z</time>
      </trkpt>
      <trkpt lat="48.56626" lon="-3.33622">
        <ele>193.2</ele>
        <time>2020-06-10T16:55:12Z</time>
      </trkpt>
      <trkpt lat="48.56627" lon="-3.33617">
        <ele>193.2</ele>
        <time>2020-06-10T16:55:13Z</time>
      </trkpt>
      <trkpt lat="48.56627" lon="-3.33613">
        <ele>193.3</ele>
        <time>2020-06-10T16:55:14Z</time>
      </trkpt>
      <trkpt lat="48.56627" lon="-3.33607">
        <ele>193.5</ele>
        <time>2020-06-10T16:55:15Z</time>
      </trkpt>
      <trkpt lat="48.56627" lon="-3.33604">
        <ele>193.5</ele>
        <time>2020-06-10T16:55:16Z</time>
      </trkpt>
      <trkpt lat="48.56628" lon="-3.33599">
        <ele>193.6</ele>
        <time>2020-06-10T16:55:17Z</time>
      </trkpt>
      <trkpt lat="48.56628" lon="-3.33594">
        <ele>193.8</ele>
        <time>2020-06-10T16:55:18Z</time>
      </trkpt>
      <trkpt lat="48.56628" lon="-3.33589">
        <ele>193.9</ele>
        <time>2020-06-10T16:55:19Z</time>
      </trkpt>
      <trkpt lat="48.56629" lon="-3.33583">
        <ele>194</ele>
        <time>2020-06-10T16:55:20Z</time>
      </trkpt>
      <trkpt lat="48.56629" lon="-3.3358">
        <ele>194.1</ele>
        <time>2020-06-10T16:55:21Z</time>
      </trkpt>
      <trkpt lat="48.56629" lon="-3.33575">
        <ele>194.2</ele>
        <time>2020-06-10T16:55:22Z</time>
      </trkpt>
      <trkpt lat="48.5663" lon="-3.3357">
        <ele>194.3</ele>
        <time>2020-06-10T16:55:23Z</time>
      </trkpt>
      <trkpt lat="48.5663" lon="-3.33564">
        <ele>194.5</ele>
        <time>2020-06-10T16:55:24Z</time>
      </trkpt>
      <trkpt lat="48.56631" lon="-3.33559">
        <ele>194.7</ele>
        <time>2020-06-10T16:55:25Z</time>
      </trkpt>
      <trkpt lat="48.56631" lon="-3.33554">
        <ele>194.8</ele>
        <time>2020-06-10T16:55:26Z</time>
      </trkpt>
      <trkpt lat="48.56632" lon="-3.33549">
        <ele>194.9</ele>
        <time>2020-06-10T16:55:27Z</time>
      </trkpt>
      <trkpt lat="48.56633" lon="-3.33544">
        <ele>195.1</ele>
        <time>2020-06-10T16:55:28Z</time>
      </trkpt>
      <trkpt lat="48.56633" lon="-3.33539">
        <ele>195.2</ele>
        <time>2020-06-10T16:55:29Z</time>
      </trkpt>
      <trkpt lat="48.56633" lon="-3.33534">
        <ele>195.3</ele>
        <time>2020-06-10T16:55:30Z</time>
      </trkpt>
      <trkpt lat="48.56632" lon="-3.33529">
        <ele>195.5</ele>
        <time>2020-06-10T16:55:31Z</time>
      </trkpt>
      <trkpt lat="48.56633" lon="-3.33527">
        <ele>195.6</ele>
        <time>2020-06-10T16:55:32Z</time>
      </trkpt>
      <trkpt lat="48.56633" lon="-3.33521">
        <ele>195.8</ele>
        <time>2020-06-10T16:55:33Z</time>
      </trkpt>
      <trkpt lat="48.56633" lon="-3.33519">
        <ele>195.8</ele>
        <time>2020-06-10T16:55:34Z</time>
      </trkpt>
      <trkpt lat="48.56633" lon="-3.33514">
        <ele>196</ele>
        <time>2020-06-10T16:55:35Z</time>
      </trkpt>
      <trkpt lat="48.56633" lon="-3.33511">
        <ele>196.1</ele>
        <time>2020-06-10T16:55:36Z</time>
      </trkpt>
      <trkpt lat="48.56634" lon="-3.33507">
        <ele>196.2</ele>
        <time>2020-06-10T16:55:37Z</time>
      </trkpt>
      <trkpt lat="48.56635" lon="-3.33502">
        <ele>196.4</ele>
        <time>2020-06-10T16:55:38Z</time>
      </trkpt>
      <trkpt lat="48.56635" lon="-3.335">
        <ele>196.5</ele>
        <time>2020-06-10T16:55:39Z</time>
      </trkpt>
      <trkpt lat="48.56635" lon="-3.33495">
        <ele>196.7</ele>
        <time>2020-06-10T16:55:40Z</time>
      </trkpt>
      <trkpt lat="48.56635" lon="-3.33493">
        <ele>196.8</ele>
        <time>2020-06-10T16:55:41Z</time>
      </trkpt>
      <trkpt lat="48.56636" lon="-3.33488">
        <ele>197.3</ele>
        <time>2020-06-10T16:55:42Z</time>
      </trkpt>
      <trkpt lat="48.56636" lon="-3.33483">
        <ele>197.5</ele>
        <time>2020-06-10T16:55:43Z</time>
      </trkpt>
      <trkpt lat="48.56637" lon="-3.33481">
        <ele>197.5</ele>
        <time>2020-06-10T16:55:44Z</time>
      </trkpt>
      <trkpt lat="48.56636" lon="-3.33477">
        <ele>197.7</ele>
        <time>2020-06-10T16:55:45Z</time>
      </trkpt>
      <trkpt lat="48.56637" lon="-3.33473">
        <ele>197.9</ele>
        <time>2020-06-10T16:55:46Z</time>
      </trkpt>
      <trkpt lat="48.56638" lon="-3.33467">
        <ele>198.1</ele>
        <time>2020-06-10T16:55:47Z</time>
      </trkpt>
      <trkpt lat="48.56638" lon="-3.33465">
        <ele>198.2</ele>
        <time>2020-06-10T16:55:48Z</time>
      </trkpt>
      <trkpt lat="48.56638" lon="-3.33461">
        <ele>198.4</ele>
        <time>2020-06-10T16:55:49Z</time>
      </trkpt>
      <trkpt lat="48.56639" lon="-3.33457">
        <ele>198.6</ele>
        <time>2020-06-10T16:55:50Z</time>
      </trkpt>
      <trkpt lat="48.56639" lon="-3.33452">
        <ele>198.8</ele>
        <time>2020-06-10T16:55:51Z</time>
      </trkpt>
      <trkpt lat="48.56639" lon="-3.33448">
        <ele>198.9</ele>
        <time>2020-06-10T16:55:52Z</time>
      </trkpt>
      <trkpt lat="48.5664" lon="-3.33443">
        <ele>199.1</ele>
        <time>2020-06-10T16:55:53Z</time>
      </trkpt>
      <trkpt lat="48.5664" lon="-3.33439">
        <ele>199.3</ele>
        <time>2020-06-10T16:55:54Z</time>
      </trkpt>
      <trkpt lat="48.5664" lon="-3.33433">
        <ele>199.6</ele>
        <time>2020-06-10T16:55:55Z</time>
      </trkpt>
      <trkpt lat="48.5664" lon="-3.3343">
        <ele>199.7</ele>
        <time>2020-06-10T16:55:56Z</time>
      </trkpt>
      <trkpt lat="48.56639" lon="-3.33424">
        <ele>199.9</ele>
        <time>2020-06-10T16:55:57Z</time>
      </trkpt>
      <trkpt lat="48.56639" lon="-3.33418">
        <ele>200.2</ele>
        <time>2020-06-10T16:55:58Z</time>
      </trkpt>
      <trkpt lat="48.5664" lon="-3.33415">
        <ele>200.3</ele>
        <time>2020-06-10T16:55:59Z</time>
      </trkpt>
      <trkpt lat="48.56639" lon="-3.3341">
        <ele>200.6</ele>
        <time>2020-06-10T16:56:00Z</time>
      </trkpt>
      <trkpt lat="48.56639" lon="-3.33408">
        <ele>200.7</ele>
        <time>2020-06-10T16:56:01Z</time>
      </trkpt>
      <trkpt lat="48.56639" lon="-3.33403">
        <ele>200.9</ele>
        <time>2020-06-10T16:56:02Z</time>
      </trkpt>
      <trkpt lat="48.5664" lon="-3.33398">
        <ele>201.1</ele>
        <time>2020-06-10T16:56:03Z</time>
      </trkpt>
      <trkpt lat="48.56639" lon="-3.33394">
        <ele>201.2</ele>
        <time>2020-06-10T16:56:04Z</time>
      </trkpt>
      <trkpt lat="48.5664" lon="-3.3339">
        <ele>201.4</ele>
        <time>2020-06-10T16:56:05Z</time>
      </trkpt>
      <trkpt lat="48.56641" lon="-3.33385">
        <ele>201.6</ele>
        <time>2020-06-10T16:56:06Z</time>
      </trkpt>
      <trkpt lat="48.56642" lon="-3.3338">
        <ele>201.8</ele>
        <time>2020-06-10T16:56:07Z</time>
      </trkpt>
      <trkpt lat="48.56642" lon="-3.33375">
        <ele>202</ele>
        <time>2020-06-10T16:56:08Z</time>
      </trkpt>
      <trkpt lat="48.56644" lon="-3.3337">
        <ele>202.1</ele>
        <time>2020-06-10T16:56:09Z</time>
      </trkpt>
      <trkpt lat="48.56644" lon="-3.33368">
        <ele>202.2</ele>
        <time>2020-06-10T16:56:10Z</time>
      </trkpt>
      <trkpt lat="48.56645" lon="-3.33363">
        <ele>202.4</ele>
        <time>2020-06-10T16:56:11Z</time>
      </trkpt>
      <trkpt lat="48.56644" lon="-3.33359">
        <ele>202.6</ele>
        <time>2020-06-10T16:56:12Z</time>
      </trkpt>
      <trkpt lat="48.56644" lon="-3.33353">
        <ele>202.7</ele>
        <time>2020-06-10T16:56:13Z</time>
      </trkpt>
      <trkpt lat="48.56644" lon="-3.33348">
        <ele>202.9</ele>
        <time>2020-06-10T16:56:14Z</time>
      </trkpt>
      <trkpt lat="48.56645" lon="-3.33343">
        <ele>203.1</ele>
        <time>2020-06-10T16:56:15Z</time>
      </trkpt>
      <trkpt lat="48.56645" lon="-3.33336">
        <ele>203.3</ele>
        <time>2020-06-10T16:56:16Z</time>
      </trkpt>
      <trkpt lat="48.56644" lon="-3.33332">
        <ele>203.4</ele>
        <time>2020-06-10T16:56:17Z</time>
      </trkpt>
      <trkpt lat="48.56645" lon="-3.33328">
        <ele>203.5</ele>
        <time>2020-06-10T16:56:18Z</time>
      </trkpt>
      <trkpt lat="48.56646" lon="-3.33324">
        <ele>203.6</ele>
        <time>2020-06-10T16:56:19Z</time>
      </trkpt>
      <trkpt lat="48.56648" lon="-3.3332">
        <ele>203.7</ele>
        <time>2020-06-10T16:56:20Z</time>
      </trkpt>
      <trkpt lat="48.56649" lon="-3.33315">
        <ele>203.9</ele>
        <time>2020-06-10T16:56:21Z</time>
      </trkpt>
      <trkpt lat="48.56649" lon="-3.33309">
        <ele>204</ele>
        <time>2020-06-10T16:56:22Z</time>
      </trkpt>
      <trkpt lat="48.5665" lon="-3.33305">
        <ele>204.1</ele>
        <time>2020-06-10T16:56:23Z</time>
      </trkpt>
      <trkpt lat="48.5665" lon="-3.33301">
        <ele>204.2</ele>
        <time>2020-06-10T16:56:24Z</time>
      </trkpt>
      <trkpt lat="48.5665" lon="-3.33296">
        <ele>204.2</ele>
        <time>2020-06-10T16:56:25Z</time>
      </trkpt>
      <trkpt lat="48.56651" lon="-3.33292">
        <ele>204.3</ele>
        <time>2020-06-10T16:56:26Z</time>
      </trkpt>
      <trkpt lat="48.56651" lon="-3.33286">
        <ele>204.4</ele>
        <time>2020-06-10T16:56:27Z</time>
      </trkpt>
      <trkpt lat="48.56651" lon="-3.33282">
        <ele>204.5</ele>
        <time>2020-06-10T16:56:28Z</time>
      </trkpt>
      <trkpt lat="48.56651" lon="-3.33277">
        <ele>204.6</ele>
        <time>2020-06-10T16:56:29Z</time>
      </trkpt>
      <trkpt lat="48.56652" lon="-3.33273">
        <ele>204.7</ele>
        <time>2020-06-10T16:56:30Z</time>
      </trkpt>
      <trkpt lat="48.56651" lon="-3.33268">
        <ele>204.8</ele>
        <time>2020-06-10T16:56:31Z</time>
      </trkpt>
      <trkpt lat="48.56651" lon="-3.33262">
        <ele>204.9</ele>
        <time>2020-06-10T16:56:32Z</time>
      </trkpt>
      <trkpt lat="48.56651" lon="-3.3326">
        <ele>204.9</ele>
        <time>2020-06-10T16:56:33Z</time>
      </trkpt>
      <trkpt lat="48.56652" lon="-3.33254">
        <ele>205</ele>
        <time>2020-06-10T16:56:34Z</time>
      </trkpt>
      <trkpt lat="48.56652" lon="-3.33249">
        <ele>205</ele>
        <time>2020-06-10T16:56:35Z</time>
      </trkpt>
      <trkpt lat="48.56653" lon="-3.33243">
        <ele>205.1</ele>
        <time>2020-06-10T16:56:36Z</time>
      </trkpt>
      <trkpt lat="48.56654" lon="-3.33236">
        <ele>205.2</ele>
        <time>2020-06-10T16:56:37Z</time>
      </trkpt>
      <trkpt lat="48.56655" lon="-3.33231">
        <ele>205.2</ele>
        <time>2020-06-10T16:56:38Z</time>
      </trkpt>
      <trkpt lat="48.56655" lon="-3.33226">
        <ele>205.2</ele>
        <time>2020-06-10T16:56:39Z</time>
      </trkpt>
      <trkpt lat="48.56656" lon="-3.33219">
        <ele>205.2</ele>
        <time>2020-06-10T16:56:40Z</time>
      </trkpt>
      <trkpt lat="48.56657" lon="-3.33214">
        <ele>205.2</ele>
        <time>2020-06-10T16:56:41Z</time>
      </trkpt>
      <trkpt lat="48.56657" lon="-3.33207">
        <ele>205.2</ele>
        <time>2020-06-10T16:56:42Z</time>
      </trkpt>
      <trkpt lat="48.56657" lon="-3.332">
        <ele>205.2</ele>
        <time>2020-06-10T16:56:43Z</time>
      </trkpt>
      <trkpt lat="48.56657" lon="-3.33195">
        <ele>205.2</ele>
        <time>2020-06-10T16:56:44Z</time>
      </trkpt>
      <trkpt lat="48.56657" lon="-3.33188">
        <ele>205.2</ele>
        <time>2020-06-10T16:56:45Z</time>
      </trkpt>
      <trkpt lat="48.56657" lon="-3.33182">
        <ele>205.2</ele>
        <time>2020-06-10T16:56:46Z</time>
      </trkpt>
      <trkpt lat="48.56657" lon="-3.33176">
        <ele>205.3</ele>
        <time>2020-06-10T16:56:47Z</time>
      </trkpt>
      <trkpt lat="48.56656" lon="-3.33171">
        <ele>205.3</ele>
        <time>2020-06-10T16:56:48Z</time>
      </trkpt>
      <trkpt lat="48.56655" lon="-3.33165">
        <ele>205.3</ele>
        <time>2020-06-10T16:56:49Z</time>
      </trkpt>
      <trkpt lat="48.56655" lon="-3.33159">
        <ele>205.3</ele>
        <time>2020-06-10T16:56:50Z</time>
      </trkpt>
      <trkpt lat="48.56656" lon="-3.33154">
        <ele>205.3</ele>
        <time>2020-06-10T16:56:51Z</time>
      </trkpt>
      <trkpt lat="48.56656" lon="-3.33147">
        <ele>205.3</ele>
        <time>2020-06-10T16:56:52Z</time>
      </trkpt>
      <trkpt lat="48.56656" lon="-3.3314">
        <ele>205.2</ele>
        <time>2020-06-10T16:56:53Z</time>
      </trkpt>
      <trkpt lat="48.56657" lon="-3.33133">
        <ele>205.2</ele>
        <time>2020-06-10T16:56:54Z</time>
      </trkpt>
      <trkpt lat="48.56657" lon="-3.33127">
        <ele>205.2</ele>
        <time>2020-06-10T16:56:55Z</time>
      </trkpt>
      <trkpt lat="48.56658" lon="-3.33119">
        <ele>205.2</ele>
        <time>2020-06-10T16:56:56Z</time>
      </trkpt>
      <trkpt lat="48.56658" lon="-3.33113">
        <ele>205.1</ele>
        <time>2020-06-10T16:56:57Z</time>
      </trkpt>
      <trkpt lat="48.56659" lon="-3.33106">
        <ele>205.1</ele>
        <time>2020-06-10T16:56:58Z</time>
      </trkpt>
      <trkpt lat="48.5666" lon="-3.33099">
        <ele>205</ele>
        <time>2020-06-10T16:56:59Z</time>
      </trkpt>
      <trkpt lat="48.56661" lon="-3.33093">
        <ele>205</ele>
        <time>2020-06-10T16:57:00Z</time>
      </trkpt>
      <trkpt lat="48.56663" lon="-3.33085">
        <ele>205</ele>
        <time>2020-06-10T16:57:01Z</time>
      </trkpt>
      <trkpt lat="48.56664" lon="-3.33078">
        <ele>204.9</ele>
        <time>2020-06-10T16:57:02Z</time>
      </trkpt>
      <trkpt lat="48.56665" lon="-3.3307">
        <ele>204.9</ele>
        <time>2020-06-10T16:57:03Z</time>
      </trkpt>
      <trkpt lat="48.56664" lon="-3.33065">
        <ele>204.9</ele>
        <time>2020-06-10T16:57:04Z</time>
      </trkpt>
      <trkpt lat="48.56664" lon="-3.33057">
        <ele>204.9</ele>
        <time>2020-06-10T16:57:05Z</time>
      </trkpt>
      <trkpt lat="48.56664" lon="-3.3305">
        <ele>204.9</ele>
        <time>2020-06-10T16:57:06Z</time>
      </trkpt>
      <trkpt lat="48.56665" lon="-3.33043">
        <ele>204.9</ele>
        <time>2020-06-10T16:57:07Z</time>
      </trkpt>
      <trkpt lat="48.56666" lon="-3.33034">
        <ele>204.8</ele>
        <time>2020-06-10T16:57:08Z</time>
      </trkpt>
      <trkpt lat="48.56666" lon="-3.33026">
        <ele>204.8</ele>
        <time>2020-06-10T16:57:09Z</time>
      </trkpt>
      <trkpt lat="48.56666" lon="-3.33019">
        <ele>204.8</ele>
        <time>2020-06-10T16:57:10Z</time>
      </trkpt>
      <trkpt lat="48.56666" lon="-3.33012">
        <ele>204.8</ele>
        <time>2020-06-10T16:57:11Z</time>
      </trkpt>
      <trkpt lat="48.56667" lon="-3.33005">
        <ele>204.8</ele>
        <time>2020-06-10T16:57:12Z</time>
      </trkpt>
      <trkpt lat="48.56667" lon="-3.32998">
        <ele>204.7</ele>
        <time>2020-06-10T16:57:13Z</time>
      </trkpt>
      <trkpt lat="48.56666" lon="-3.3299">
        <ele>204.7</ele>
        <time>2020-06-10T16:57:14Z</time>
      </trkpt>
      <trkpt lat="48.56665" lon="-3.32983">
        <ele>204.7</ele>
        <time>2020-06-10T16:57:15Z</time>
      </trkpt>
      <trkpt lat="48.56666" lon="-3.32975">
        <ele>204.7</ele>
        <time>2020-06-10T16:57:16Z</time>
      </trkpt>
      <trkpt lat="48.56667" lon="-3.32967">
        <ele>204.7</ele>
        <time>2020-06-10T16:57:17Z</time>
      </trkpt>
      <trkpt lat="48.56667" lon="-3.3296">
        <ele>204.6</ele>
        <time>2020-06-10T16:57:18Z</time>
      </trkpt>
      <trkpt lat="48.56667" lon="-3.32952">
        <ele>204.6</ele>
        <time>2020-06-10T16:57:19Z</time>
      </trkpt>
      <trkpt lat="48.56669" lon="-3.32945">
        <ele>204.6</ele>
        <time>2020-06-10T16:57:20Z</time>
      </trkpt>
      <trkpt lat="48.56669" lon="-3.32938">
        <ele>204.5</ele>
        <time>2020-06-10T16:57:21Z</time>
      </trkpt>
      <trkpt lat="48.56669" lon="-3.32931">
        <ele>204.5</ele>
        <time>2020-06-10T16:57:22Z</time>
      </trkpt>
      <trkpt lat="48.5667" lon="-3.32925">
        <ele>204.5</ele>
        <time>2020-06-10T16:57:23Z</time>
      </trkpt>
      <trkpt lat="48.5667" lon="-3.32918">
        <ele>204.5</ele>
        <time>2020-06-10T16:57:24Z</time>
      </trkpt>
      <trkpt lat="48.5667" lon="-3.3291">
        <ele>204.5</ele>
        <time>2020-06-10T16:57:25Z</time>
      </trkpt>
      <trkpt lat="48.56671" lon="-3.32902">
        <ele>204.5</ele>
        <time>2020-06-10T16:57:26Z</time>
      </trkpt>
      <trkpt lat="48.56672" lon="-3.32896">
        <ele>204.5</ele>
        <time>2020-06-10T16:57:27Z</time>
      </trkpt>
      <trkpt lat="48.56672" lon="-3.32889">
        <ele>204.5</ele>
        <time>2020-06-10T16:57:28Z</time>
      </trkpt>
      <trkpt lat="48.56672" lon="-3.3288">
        <ele>204.5</ele>
        <time>2020-06-10T16:57:29Z</time>
      </trkpt>
      <trkpt lat="48.56673" lon="-3.32873">
        <ele>204.5</ele>
        <time>2020-06-10T16:57:30Z</time>
      </trkpt>
      <trkpt lat="48.56673" lon="-3.32868">
        <ele>204.5</ele>
        <time>2020-06-10T16:57:31Z</time>
      </trkpt>
      <trkpt lat="48.56673" lon="-3.3286">
        <ele>204.5</ele>
        <time>2020-06-10T16:57:32Z</time>
      </trkpt>
      <trkpt lat="48.56675" lon="-3.32854">
        <ele>204.5</ele>
        <time>2020-06-10T16:57:33Z</time>
      </trkpt>
      <trkpt lat="48.56676" lon="-3.32847">
        <ele>204.5</ele>
        <time>2020-06-10T16:57:34Z</time>
      </trkpt>
      <trkpt lat="48.56676" lon="-3.32839">
        <ele>204.5</ele>
        <time>2020-06-10T16:57:35Z</time>
      </trkpt>
      <trkpt lat="48.56677" lon="-3.32832">
        <ele>204.5</ele>
        <time>2020-06-10T16:57:36Z</time>
      </trkpt>
      <trkpt lat="48.56678" lon="-3.32825">
        <ele>204.5</ele>
        <time>2020-06-10T16:57:37Z</time>
      </trkpt>
      <trkpt lat="48.56678" lon="-3.32818">
        <ele>204.5</ele>
        <time>2020-06-10T16:57:38Z</time>
      </trkpt>
      <trkpt lat="48.56678" lon="-3.3281">
        <ele>204.5</ele>
        <time>2020-06-10T16:57:39Z</time>
      </trkpt>
      <trkpt lat="48.5668" lon="-3.32804">
        <ele>204.4</ele>
        <time>2020-06-10T16:57:40Z</time>
      </trkpt>
      <trkpt lat="48.56679" lon="-3.32798">
        <ele>204.4</ele>
        <time>2020-06-10T16:57:41Z</time>
      </trkpt>
      <trkpt lat="48.56679" lon="-3.3279">
        <ele>204.4</ele>
        <time>2020-06-10T16:57:42Z</time>
      </trkpt>
      <trkpt lat="48.56678" lon="-3.32782">
        <ele>204.4</ele>
        <time>2020-06-10T16:57:43Z</time>
      </trkpt>
      <trkpt lat="48.56679" lon="-3.32776">
        <ele>204.4</ele>
        <time>2020-06-10T16:57:44Z</time>
      </trkpt>
      <trkpt lat="48.56679" lon="-3.32769">
        <ele>204.4</ele>
        <time>2020-06-10T16:57:45Z</time>
      </trkpt>
      <trkpt lat="48.56679" lon="-3.32762">
        <ele>204.4</ele>
        <time>2020-06-10T16:57:46Z</time>
      </trkpt>
      <trkpt lat="48.56679" lon="-3.32755">
        <ele>204.4</ele>
        <time>2020-06-10T16:57:47Z</time>
      </trkpt>
      <trkpt lat="48.5668" lon="-3.32748">
        <ele>204.3</ele>
        <time>2020-06-10T16:57:48Z</time>
      </trkpt>
      <trkpt lat="48.5668" lon="-3.3274">
        <ele>204.3</ele>
        <time>2020-06-10T16:57:49Z</time>
      </trkpt>
      <trkpt lat="48.5668" lon="-3.32733">
        <ele>204.2</ele>
        <time>2020-06-10T16:57:50Z</time>
      </trkpt>
      <trkpt lat="48.5668" lon="-3.32726">
        <ele>204.2</ele>
        <time>2020-06-10T16:57:51Z</time>
      </trkpt>
      <trkpt lat="48.56681" lon="-3.32719">
        <ele>204.1</ele>
        <time>2020-06-10T16:57:52Z</time>
      </trkpt>
      <trkpt lat="48.56681" lon="-3.32712">
        <ele>204</ele>
        <time>2020-06-10T16:57:53Z</time>
      </trkpt>
      <trkpt lat="48.56683" lon="-3.32705">
        <ele>204</ele>
        <time>2020-06-10T16:57:54Z</time>
      </trkpt>
      <trkpt lat="48.56683" lon="-3.32697">
        <ele>203.9</ele>
        <time>2020-06-10T16:57:55Z</time>
      </trkpt>
      <trkpt lat="48.56684" lon="-3.32691">
        <ele>203.8</ele>
        <time>2020-06-10T16:57:56Z</time>
      </trkpt>
      <trkpt lat="48.56685" lon="-3.32684">
        <ele>203.7</ele>
        <time>2020-06-10T16:57:57Z</time>
      </trkpt>
      <trkpt lat="48.56685" lon="-3.32677">
        <ele>203.6</ele>
        <time>2020-06-10T16:57:58Z</time>
      </trkpt>
      <trkpt lat="48.56687" lon="-3.32669">
        <ele>203.5</ele>
        <time>2020-06-10T16:57:59Z</time>
      </trkpt>
      <trkpt lat="48.56687" lon="-3.32661">
        <ele>203.4</ele>
        <time>2020-06-10T16:58:00Z</time>
      </trkpt>
      <trkpt lat="48.56687" lon="-3.32653">
        <ele>203.2</ele>
        <time>2020-06-10T16:58:01Z</time>
      </trkpt>
      <trkpt lat="48.56687" lon="-3.32645">
        <ele>203</ele>
        <time>2020-06-10T16:58:02Z</time>
      </trkpt>
      <trkpt lat="48.56687" lon="-3.32637">
        <ele>202.9</ele>
        <time>2020-06-10T16:58:03Z</time>
      </trkpt>
      <trkpt lat="48.56687" lon="-3.32628">
        <ele>202.7</ele>
        <time>2020-06-10T16:58:04Z</time>
      </trkpt>
      <trkpt lat="48.56688" lon="-3.32619">
        <ele>202.5</ele>
        <time>2020-06-10T16:58:05Z</time>
      </trkpt>
      <trkpt lat="48.56688" lon="-3.3261">
        <ele>202.3</ele>
        <time>2020-06-10T16:58:06Z</time>
      </trkpt>
      <trkpt lat="48.56688" lon="-3.32601">
        <ele>202.2</ele>
        <time>2020-06-10T16:58:07Z</time>
      </trkpt>
      <trkpt lat="48.56688" lon="-3.32592">
        <ele>202</ele>
        <time>2020-06-10T16:58:08Z</time>
      </trkpt>
      <trkpt lat="48.56688" lon="-3.32582">
        <ele>201.8</ele>
        <time>2020-06-10T16:58:09Z</time>
      </trkpt>
      <trkpt lat="48.56689" lon="-3.32573">
        <ele>201.6</ele>
        <time>2020-06-10T16:58:10Z</time>
      </trkpt>
      <trkpt lat="48.56689" lon="-3.32563">
        <ele>201.5</ele>
        <time>2020-06-10T16:58:11Z</time>
      </trkpt>
      <trkpt lat="48.5669" lon="-3.32554">
        <ele>201.3</ele>
        <time>2020-06-10T16:58:12Z</time>
      </trkpt>
      <trkpt lat="48.5669" lon="-3.32544">
        <ele>201.1</ele>
        <time>2020-06-10T16:58:13Z</time>
      </trkpt>
      <trkpt lat="48.5669" lon="-3.32534">
        <ele>200.9</ele>
        <time>2020-06-10T16:58:14Z</time>
      </trkpt>
      <trkpt lat="48.5669" lon="-3.32523">
        <ele>200.8</ele>
        <time>2020-06-10T16:58:15Z</time>
      </trkpt>
      <trkpt lat="48.5669" lon="-3.32513">
        <ele>200.6</ele>
        <time>2020-06-10T16:58:16Z</time>
      </trkpt>
      <trkpt lat="48.56691" lon="-3.32503">
        <ele>200.4</ele>
        <time>2020-06-10T16:58:17Z</time>
      </trkpt>
      <trkpt lat="48.56691" lon="-3.32492">
        <ele>200.2</ele>
        <time>2020-06-10T16:58:18Z</time>
      </trkpt>
      <trkpt lat="48.56691" lon="-3.32482">
        <ele>200</ele>
        <time>2020-06-10T16:58:19Z</time>
      </trkpt>
      <trkpt lat="48.56692" lon="-3.32471">
        <ele>199.8</ele>
        <time>2020-06-10T16:58:20Z</time>
      </trkpt>
      <trkpt lat="48.56692" lon="-3.32461">
        <ele>199.6</ele>
        <time>2020-06-10T16:58:21Z</time>
      </trkpt>
      <trkpt lat="48.56692" lon="-3.3245">
        <ele>199.4</ele>
        <time>2020-06-10T16:58:22Z</time>
      </trkpt>
      <trkpt lat="48.56693" lon="-3.32439">
        <ele>199.2</ele>
        <time>2020-06-10T16:58:23Z</time>
      </trkpt>
      <trkpt lat="48.56694" lon="-3.32428">
        <ele>199</ele>
        <time>2020-06-10T16:58:24Z</time>
      </trkpt>
      <trkpt lat="48.56694" lon="-3.32417">
        <ele>198.8</ele>
        <time>2020-06-10T16:58:25Z</time>
      </trkpt>
      <trkpt lat="48.56695" lon="-3.32407">
        <ele>198.6</ele>
        <time>2020-06-10T16:58:26Z</time>
      </trkpt>
      <trkpt lat="48.56696" lon="-3.32396">
        <ele>198.6</ele>
        <time>2020-06-10T16:58:27Z</time>
      </trkpt>
      <trkpt lat="48.56696" lon="-3.32385">
        <ele>198.3</ele>
        <time>2020-06-10T16:58:28Z</time>
      </trkpt>
      <trkpt lat="48.56696" lon="-3.32374">
        <ele>198.2</ele>
        <time>2020-06-10T16:58:29Z</time>
      </trkpt>
      <trkpt lat="48.56697" lon="-3.32364">
        <ele>198.2</ele>
        <time>2020-06-10T16:58:30Z</time>
      </trkpt>
      <trkpt lat="48.56697" lon="-3.32353">
        <ele>198.1</ele>
        <time>2020-06-10T16:58:31Z</time>
      </trkpt>
      <trkpt lat="48.56697" lon="-3.32343">
        <ele>198</ele>
        <time>2020-06-10T16:58:32Z</time>
      </trkpt>
      <trkpt lat="48.56697" lon="-3.32333">
        <ele>198</ele>
        <time>2020-06-10T16:58:33Z</time>
      </trkpt>
      <trkpt lat="48.56697" lon="-3.32323">
        <ele>197.9</ele>
        <time>2020-06-10T16:58:34Z</time>
      </trkpt>
      <trkpt lat="48.56698" lon="-3.32313">
        <ele>197.8</ele>
        <time>2020-06-10T16:58:35Z</time>
      </trkpt>
      <trkpt lat="48.56699" lon="-3.32303">
        <ele>197.6</ele>
        <time>2020-06-10T16:58:36Z</time>
      </trkpt>
      <trkpt lat="48.56699" lon="-3.32293">
        <ele>197.6</ele>
        <time>2020-06-10T16:58:37Z</time>
      </trkpt>
      <trkpt lat="48.567" lon="-3.32284">
        <ele>197.5</ele>
        <time>2020-06-10T16:58:38Z</time>
      </trkpt>
      <trkpt lat="48.56701" lon="-3.32274">
        <ele>197.4</ele>
        <time>2020-06-10T16:58:39Z</time>
      </trkpt>
      <trkpt lat="48.56702" lon="-3.32264">
        <ele>197.4</ele>
        <time>2020-06-10T16:58:40Z</time>
      </trkpt>
      <trkpt lat="48.56702" lon="-3.32255">
        <ele>197.3</ele>
        <time>2020-06-10T16:58:41Z</time>
      </trkpt>
      <trkpt lat="48.56703" lon="-3.32245">
        <ele>197.2</ele>
        <time>2020-06-10T16:58:42Z</time>
      </trkpt>
      <trkpt lat="48.56704" lon="-3.32235">
        <ele>197.1</ele>
        <time>2020-06-10T16:58:43Z</time>
      </trkpt>
      <trkpt lat="48.56706" lon="-3.32226">
        <ele>197.1</ele>
        <time>2020-06-10T16:58:44Z</time>
      </trkpt>
      <trkpt lat="48.56707" lon="-3.32216">
        <ele>197</ele>
        <time>2020-06-10T16:58:45Z</time>
      </trkpt>
      <trkpt lat="48.56708" lon="-3.32206">
        <ele>197.1</ele>
        <time>2020-06-10T16:58:46Z</time>
      </trkpt>
      <trkpt lat="48.56708" lon="-3.32196">
        <ele>197.1</ele>
        <time>2020-06-10T16:58:47Z</time>
      </trkpt>
      <trkpt lat="48.56708" lon="-3.32187">
        <ele>197.2</ele>
        <time>2020-06-10T16:58:48Z</time>
      </trkpt>
      <trkpt lat="48.56709" lon="-3.32178">
        <ele>197.2</ele>
        <time>2020-06-10T16:58:49Z</time>
      </trkpt>
      <trkpt lat="48.56709" lon="-3.32168">
        <ele>197.3</ele>
        <time>2020-06-10T16:58:50Z</time>
      </trkpt>
      <trkpt lat="48.56709" lon="-3.3216">
        <ele>197.3</ele>
        <time>2020-06-10T16:58:51Z</time>
      </trkpt>
      <trkpt lat="48.5671" lon="-3.32152">
        <ele>197.4</ele>
        <time>2020-06-10T16:58:52Z</time>
      </trkpt>
      <trkpt lat="48.5671" lon="-3.32143">
        <ele>197.4</ele>
        <time>2020-06-10T16:58:53Z</time>
      </trkpt>
      <trkpt lat="48.5671" lon="-3.32135">
        <ele>197.5</ele>
        <time>2020-06-10T16:58:54Z</time>
      </trkpt>
      <trkpt lat="48.5671" lon="-3.32128">
        <ele>197.5</ele>
        <time>2020-06-10T16:58:55Z</time>
      </trkpt>
      <trkpt lat="48.5671" lon="-3.32119">
        <ele>197.6</ele>
        <time>2020-06-10T16:58:56Z</time>
      </trkpt>
      <trkpt lat="48.56711" lon="-3.32112">
        <ele>197.7</ele>
        <time>2020-06-10T16:58:57Z</time>
      </trkpt>
      <trkpt lat="48.5671" lon="-3.32104">
        <ele>197.7</ele>
        <time>2020-06-10T16:58:58Z</time>
      </trkpt>
      <trkpt lat="48.5671" lon="-3.32096">
        <ele>197.8</ele>
        <time>2020-06-10T16:58:59Z</time>
      </trkpt>
      <trkpt lat="48.56709" lon="-3.32088">
        <ele>197.9</ele>
        <time>2020-06-10T16:59:00Z</time>
      </trkpt>
      <trkpt lat="48.56709" lon="-3.32081">
        <ele>197.9</ele>
        <time>2020-06-10T16:59:01Z</time>
      </trkpt>
      <trkpt lat="48.56708" lon="-3.32073">
        <ele>198</ele>
        <time>2020-06-10T16:59:02Z</time>
      </trkpt>
      <trkpt lat="48.56709" lon="-3.32065">
        <ele>198</ele>
        <time>2020-06-10T16:59:03Z</time>
      </trkpt>
      <trkpt lat="48.5671" lon="-3.32058">
        <ele>198.1</ele>
        <time>2020-06-10T16:59:04Z</time>
      </trkpt>
      <trkpt lat="48.5671" lon="-3.3205">
        <ele>198.2</ele>
        <time>2020-06-10T16:59:05Z</time>
      </trkpt>
      <trkpt lat="48.5671" lon="-3.32041">
        <ele>198.2</ele>
        <time>2020-06-10T16:59:06Z</time>
      </trkpt>
      <trkpt lat="48.56709" lon="-3.32033">
        <ele>198.2</ele>
        <time>2020-06-10T16:59:07Z</time>
      </trkpt>
      <trkpt lat="48.56709" lon="-3.32025">
        <ele>198.3</ele>
        <time>2020-06-10T16:59:08Z</time>
      </trkpt>
      <trkpt lat="48.5671" lon="-3.32018">
        <ele>198.3</ele>
        <time>2020-06-10T16:59:09Z</time>
      </trkpt>
      <trkpt lat="48.5671" lon="-3.3201">
        <ele>198.3</ele>
        <time>2020-06-10T16:59:10Z</time>
      </trkpt>
      <trkpt lat="48.56711" lon="-3.32002">
        <ele>198.3</ele>
        <time>2020-06-10T16:59:11Z</time>
      </trkpt>
      <trkpt lat="48.56711" lon="-3.31994">
        <ele>198.4</ele>
        <time>2020-06-10T16:59:12Z</time>
      </trkpt>
      <trkpt lat="48.56712" lon="-3.31986">
        <ele>198.4</ele>
        <time>2020-06-10T16:59:13Z</time>
      </trkpt>
      <trkpt lat="48.56712" lon="-3.31979">
        <ele>198.4</ele>
        <time>2020-06-10T16:59:14Z</time>
      </trkpt>
      <trkpt lat="48.56712" lon="-3.31971">
        <ele>198.5</ele>
        <time>2020-06-10T16:59:15Z</time>
      </trkpt>
      <trkpt lat="48.56712" lon="-3.31964">
        <ele>198.5</ele>
        <time>2020-06-10T16:59:16Z</time>
      </trkpt>
      <trkpt lat="48.56711" lon="-3.31956">
        <ele>198.6</ele>
        <time>2020-06-10T16:59:17Z</time>
      </trkpt>
      <trkpt lat="48.56712" lon="-3.31948">
        <ele>198.6</ele>
        <time>2020-06-10T16:59:18Z</time>
      </trkpt>
      <trkpt lat="48.56712" lon="-3.31941">
        <ele>198.7</ele>
        <time>2020-06-10T16:59:19Z</time>
      </trkpt>
      <trkpt lat="48.56713" lon="-3.31933">
        <ele>198.7</ele>
        <time>2020-06-10T16:59:20Z</time>
      </trkpt>
      <trkpt lat="48.56714" lon="-3.31925">
        <ele>198.7</ele>
        <time>2020-06-10T16:59:21Z</time>
      </trkpt>
      <trkpt lat="48.56713" lon="-3.31918">
        <ele>198.8</ele>
        <time>2020-06-10T16:59:22Z</time>
      </trkpt>
      <trkpt lat="48.56713" lon="-3.3191">
        <ele>198.8</ele>
        <time>2020-06-10T16:59:23Z</time>
      </trkpt>
      <trkpt lat="48.5671" lon="-3.31903">
        <ele>198.7</ele>
        <time>2020-06-10T16:59:24Z</time>
      </trkpt>
      <trkpt lat="48.56709" lon="-3.31895">
        <ele>198.7</ele>
        <time>2020-06-10T16:59:25Z</time>
      </trkpt>
      <trkpt lat="48.56709" lon="-3.31888">
        <ele>198.7</ele>
        <time>2020-06-10T16:59:26Z</time>
      </trkpt>
      <trkpt lat="48.56708" lon="-3.3188">
        <ele>198.7</ele>
        <time>2020-06-10T16:59:27Z</time>
      </trkpt>
      <trkpt lat="48.56707" lon="-3.31872">
        <ele>198.7</ele>
        <time>2020-06-10T16:59:28Z</time>
      </trkpt>
      <trkpt lat="48.56708" lon="-3.31864">
        <ele>198.6</ele>
        <time>2020-06-10T16:59:29Z</time>
      </trkpt>
      <trkpt lat="48.56708" lon="-3.31856">
        <ele>198.6</ele>
        <time>2020-06-10T16:59:30Z</time>
      </trkpt>
      <trkpt lat="48.56709" lon="-3.31848">
        <ele>198.5</ele>
        <time>2020-06-10T16:59:31Z</time>
      </trkpt>
      <trkpt lat="48.5671" lon="-3.3184">
        <ele>198.5</ele>
        <time>2020-06-10T16:59:32Z</time>
      </trkpt>
      <trkpt lat="48.56714" lon="-3.31833">
        <ele>198.5</ele>
        <time>2020-06-10T16:59:33Z</time>
      </trkpt>
      <trkpt lat="48.56716" lon="-3.31826">
        <ele>198.5</ele>
        <time>2020-06-10T16:59:34Z</time>
      </trkpt>
      <trkpt lat="48.56719" lon="-3.31819">
        <ele>198.4</ele>
        <time>2020-06-10T16:59:35Z</time>
      </trkpt>
      <trkpt lat="48.56722" lon="-3.31812">
        <ele>198.3</ele>
        <time>2020-06-10T16:59:36Z</time>
      </trkpt>
      <trkpt lat="48.56724" lon="-3.31805">
        <ele>198.3</ele>
        <time>2020-06-10T16:59:37Z</time>
      </trkpt>
      <trkpt lat="48.56726" lon="-3.31798">
        <ele>198.2</ele>
        <time>2020-06-10T16:59:38Z</time>
      </trkpt>
      <trkpt lat="48.56729" lon="-3.31791">
        <ele>198.2</ele>
        <time>2020-06-10T16:59:39Z</time>
      </trkpt>
      <trkpt lat="48.56732" lon="-3.31784">
        <ele>198.1</ele>
        <time>2020-06-10T16:59:40Z</time>
      </trkpt>
      <trkpt lat="48.56734" lon="-3.31775">
        <ele>197.9</ele>
        <time>2020-06-10T16:59:41Z</time>
      </trkpt>
      <trkpt lat="48.56736" lon="-3.31767">
        <ele>197.8</ele>
        <time>2020-06-10T16:59:42Z</time>
      </trkpt>
      <trkpt lat="48.56737" lon="-3.31759">
        <ele>197.7</ele>
        <time>2020-06-10T16:59:43Z</time>
      </trkpt>
      <trkpt lat="48.56736" lon="-3.3175">
        <ele>197.5</ele>
        <time>2020-06-10T16:59:44Z</time>
      </trkpt>
      <trkpt lat="48.56735" lon="-3.31742">
        <ele>197.4</ele>
        <time>2020-06-10T16:59:45Z</time>
      </trkpt>
      <trkpt lat="48.56734" lon="-3.31733">
        <ele>197.3</ele>
        <time>2020-06-10T16:59:46Z</time>
      </trkpt>
      <trkpt lat="48.56733" lon="-3.31723">
        <ele>197.1</ele>
        <time>2020-06-10T16:59:47Z</time>
      </trkpt>
      <trkpt lat="48.56732" lon="-3.31714">
        <ele>197</ele>
        <time>2020-06-10T16:59:48Z</time>
      </trkpt>
      <trkpt lat="48.56731" lon="-3.31704">
        <ele>196.9</ele>
        <time>2020-06-10T16:59:49Z</time>
      </trkpt>
      <trkpt lat="48.56731" lon="-3.31695">
        <ele>196.8</ele>
        <time>2020-06-10T16:59:50Z</time>
      </trkpt>
      <trkpt lat="48.56731" lon="-3.31685">
        <ele>196.7</ele>
        <time>2020-06-10T16:59:51Z</time>
      </trkpt>
      <trkpt lat="48.56731" lon="-3.31675">
        <ele>196.6</ele>
        <time>2020-06-10T16:59:52Z</time>
      </trkpt>
      <trkpt lat="48.56731" lon="-3.31665">
        <ele>196.5</ele>
        <time>2020-06-10T16:59:53Z</time>
      </trkpt>
      <trkpt lat="48.5673" lon="-3.31655">
        <ele>196.4</ele>
        <time>2020-06-10T16:59:54Z</time>
      </trkpt>
      <trkpt lat="48.56731" lon="-3.31646">
        <ele>196.3</ele>
        <time>2020-06-10T16:59:55Z</time>
      </trkpt>
      <trkpt lat="48.56731" lon="-3.31637">
        <ele>196.3</ele>
        <time>2020-06-10T16:59:56Z</time>
      </trkpt>
      <trkpt lat="48.56731" lon="-3.31628">
        <ele>196.1</ele>
        <time>2020-06-10T16:59:57Z</time>
      </trkpt>
      <trkpt lat="48.56732" lon="-3.31619">
        <ele>196</ele>
        <time>2020-06-10T16:59:58Z</time>
      </trkpt>
      <trkpt lat="48.56732" lon="-3.3161">
        <ele>195.8</ele>
        <time>2020-06-10T16:59:59Z</time>
      </trkpt>
      <trkpt lat="48.56733" lon="-3.31601">
        <ele>195.7</ele>
        <time>2020-06-10T17:00:00Z</time>
      </trkpt>
      <trkpt lat="48.56733" lon="-3.31593">
        <ele>195.6</ele>
        <time>2020-06-10T17:00:01Z</time>
      </trkpt>
      <trkpt lat="48.56733" lon="-3.31584">
        <ele>195.5</ele>
        <time>2020-06-10T17:00:02Z</time>
      </trkpt>
      <trkpt lat="48.56733" lon="-3.31575">
        <ele>195.4</ele>
        <time>2020-06-10T17:00:03Z</time>
      </trkpt>
      <trkpt lat="48.56733" lon="-3.31566">
        <ele>195.3</ele>
        <time>2020-06-10T17:00:04Z</time>
      </trkpt>
      <trkpt lat="48.56732" lon="-3.31556">
        <ele>195.1</ele>
        <time>2020-06-10T17:00:05Z</time>
      </trkpt>
      <trkpt lat="48.56732" lon="-3.31547">
        <ele>195</ele>
        <time>2020-06-10T17:00:06Z</time>
      </trkpt>
      <trkpt lat="48.56733" lon="-3.31538">
        <ele>194.8</ele>
        <time>2020-06-10T17:00:07Z</time>
      </trkpt>
      <trkpt lat="48.56733" lon="-3.31529">
        <ele>194.7</ele>
        <time>2020-06-10T17:00:08Z</time>
      </trkpt>
      <trkpt lat="48.56733" lon="-3.3152">
        <ele>194.5</ele>
        <time>2020-06-10T17:00:09Z</time>
      </trkpt>
      <trkpt lat="48.56733" lon="-3.3151">
        <ele>194.3</ele>
        <time>2020-06-10T17:00:10Z</time>
      </trkpt>
      <trkpt lat="48.56733" lon="-3.315">
        <ele>194</ele>
        <time>2020-06-10T17:00:11Z</time>
      </trkpt>
      <trkpt lat="48.56733" lon="-3.31491">
        <ele>193.8</ele>
        <time>2020-06-10T17:00:12Z</time>
      </trkpt>
      <trkpt lat="48.56733" lon="-3.31481">
        <ele>193.5</ele>
        <time>2020-06-10T17:00:13Z</time>
      </trkpt>
      <trkpt lat="48.56733" lon="-3.31472">
        <ele>193.2</ele>
        <time>2020-06-10T17:00:14Z</time>
      </trkpt>
      <trkpt lat="48.56733" lon="-3.31462">
        <ele>192.9</ele>
        <time>2020-06-10T17:00:15Z</time>
      </trkpt>
      <trkpt lat="48.56734" lon="-3.31452">
        <ele>192.6</ele>
        <time>2020-06-10T17:00:16Z</time>
      </trkpt>
      <trkpt lat="48.56735" lon="-3.31442">
        <ele>192.2</ele>
        <time>2020-06-10T17:00:17Z</time>
      </trkpt>
      <trkpt lat="48.56736" lon="-3.31431">
        <ele>191.8</ele>
        <time>2020-06-10T17:00:18Z</time>
      </trkpt>
      <trkpt lat="48.56737" lon="-3.3142">
        <ele>191.4</ele>
        <time>2020-06-10T17:00:19Z</time>
      </trkpt>
      <trkpt lat="48.56739" lon="-3.31409">
        <ele>191</ele>
        <time>2020-06-10T17:00:20Z</time>
      </trkpt>
      <trkpt lat="48.56741" lon="-3.31398">
        <ele>190.6</ele>
        <time>2020-06-10T17:00:21Z</time>
      </trkpt>
      <trkpt lat="48.56744" lon="-3.31387">
        <ele>190.2</ele>
        <time>2020-06-10T17:00:22Z</time>
      </trkpt>
      <trkpt lat="48.56747" lon="-3.31377">
        <ele>189.8</ele>
        <time>2020-06-10T17:00:23Z</time>
      </trkpt>
      <trkpt lat="48.56749" lon="-3.31365">
        <ele>189.3</ele>
        <time>2020-06-10T17:00:24Z</time>
      </trkpt>
      <trkpt lat="48.56749" lon="-3.31354">
        <ele>189</ele>
        <time>2020-06-10T17:00:25Z</time>
      </trkpt>
      <trkpt lat="48.56749" lon="-3.31343">
        <ele>188.6</ele>
        <time>2020-06-10T17:00:26Z</time>
      </trkpt>
      <trkpt lat="48.56747" lon="-3.31333">
        <ele>188.3</ele>
        <time>2020-06-10T17:00:27Z</time>
      </trkpt>
      <trkpt lat="48.56744" lon="-3.31323">
        <ele>188.2</ele>
        <time>2020-06-10T17:00:28Z</time>
      </trkpt>
      <trkpt lat="48.56738" lon="-3.31315">
        <ele>188.1</ele>
        <time>2020-06-10T17:00:29Z</time>
      </trkpt>
      <trkpt lat="48.56733" lon="-3.31309">
        <ele>188</ele>
        <time>2020-06-10T17:00:30Z</time>
      </trkpt>
      <trkpt lat="48.56725" lon="-3.31308">
        <ele>187.9</ele>
        <time>2020-06-10T17:00:31Z</time>
      </trkpt>
      <trkpt lat="48.56716" lon="-3.31304">
        <ele>187.7</ele>
        <time>2020-06-10T17:00:32Z</time>
      </trkpt>
      <trkpt lat="48.56713" lon="-3.31302">
        <ele>187.7</ele>
        <time>2020-06-10T17:00:33Z</time>
      </trkpt>
      <trkpt lat="48.56707" lon="-3.31294">
        <ele>187.6</ele>
        <time>2020-06-10T17:00:34Z</time>
      </trkpt>
      <trkpt lat="48.56702" lon="-3.31287">
        <ele>187.6</ele>
        <time>2020-06-10T17:00:35Z</time>
      </trkpt>
      <trkpt lat="48.56698" lon="-3.31279">
        <ele>187.7</ele>
        <time>2020-06-10T17:00:36Z</time>
      </trkpt>
      <trkpt lat="48.56695" lon="-3.3127">
        <ele>187.7</ele>
        <time>2020-06-10T17:00:37Z</time>
      </trkpt>
      <trkpt lat="48.56694" lon="-3.31259">
        <ele>187.7</ele>
        <time>2020-06-10T17:00:38Z</time>
      </trkpt>
      <trkpt lat="48.56694" lon="-3.31249">
        <ele>187.7</ele>
        <time>2020-06-10T17:00:39Z</time>
      </trkpt>
      <trkpt lat="48.56694" lon="-3.31238">
        <ele>187.8</ele>
        <time>2020-06-10T17:00:40Z</time>
      </trkpt>
      <trkpt lat="48.56695" lon="-3.31228">
        <ele>187.9</ele>
        <time>2020-06-10T17:00:41Z</time>
      </trkpt>
      <trkpt lat="48.56696" lon="-3.31218">
        <ele>188</ele>
        <time>2020-06-10T17:00:42Z</time>
      </trkpt>
      <trkpt lat="48.56698" lon="-3.31208">
        <ele>188.1</ele>
        <time>2020-06-10T17:00:43Z</time>
      </trkpt>
      <trkpt lat="48.56699" lon="-3.31199">
        <ele>188.3</ele>
        <time>2020-06-10T17:00:44Z</time>
      </trkpt>
      <trkpt lat="48.56701" lon="-3.3119">
        <ele>188.4</ele>
        <time>2020-06-10T17:00:45Z</time>
      </trkpt>
      <trkpt lat="48.56702" lon="-3.31182">
        <ele>188.5</ele>
        <time>2020-06-10T17:00:46Z</time>
      </trkpt>
      <trkpt lat="48.56703" lon="-3.31173">
        <ele>188.6</ele>
        <time>2020-06-10T17:00:47Z</time>
      </trkpt>
      <trkpt lat="48.56705" lon="-3.31165">
        <ele>188.7</ele>
        <time>2020-06-10T17:00:48Z</time>
      </trkpt>
      <trkpt lat="48.56706" lon="-3.31156">
        <ele>188.8</ele>
        <time>2020-06-10T17:00:49Z</time>
      </trkpt>
      <trkpt lat="48.56707" lon="-3.31148">
        <ele>188.9</ele>
        <time>2020-06-10T17:00:50Z</time>
      </trkpt>
      <trkpt lat="48.56708" lon="-3.3114">
        <ele>188.9</ele>
        <time>2020-06-10T17:00:51Z</time>
      </trkpt>
      <trkpt lat="48.56709" lon="-3.31133">
        <ele>189</ele>
        <time>2020-06-10T17:00:52Z</time>
      </trkpt>
      <trkpt lat="48.56709" lon="-3.31125">
        <ele>189</ele>
        <time>2020-06-10T17:00:53Z</time>
      </trkpt>
      <trkpt lat="48.5671" lon="-3.31118">
        <ele>189</ele>
        <time>2020-06-10T17:00:54Z</time>
      </trkpt>
      <trkpt lat="48.5671" lon="-3.3111">
        <ele>189</ele>
        <time>2020-06-10T17:00:55Z</time>
      </trkpt>
      <trkpt lat="48.56709" lon="-3.31101">
        <ele>189</ele>
        <time>2020-06-10T17:00:56Z</time>
      </trkpt>
      <trkpt lat="48.56709" lon="-3.31092">
        <ele>189</ele>
        <time>2020-06-10T17:00:57Z</time>
      </trkpt>
      <trkpt lat="48.56709" lon="-3.31084">
        <ele>188.9</ele>
        <time>2020-06-10T17:00:58Z</time>
      </trkpt>
      <trkpt lat="48.56709" lon="-3.31076">
        <ele>188.8</ele>
        <time>2020-06-10T17:00:59Z</time>
      </trkpt>
      <trkpt lat="48.56709" lon="-3.31067">
        <ele>188.8</ele>
        <time>2020-06-10T17:01:00Z</time>
      </trkpt>
      <trkpt lat="48.56709" lon="-3.31059">
        <ele>188.7</ele>
        <time>2020-06-10T17:01:01Z</time>
      </trkpt>
      <trkpt lat="48.56709" lon="-3.3105">
        <ele>188.7</ele>
        <time>2020-06-10T17:01:02Z</time>
      </trkpt>
      <trkpt lat="48.56709" lon="-3.31042">
        <ele>188.6</ele>
        <time>2020-06-10T17:01:03Z</time>
      </trkpt>
      <trkpt lat="48.56709" lon="-3.31034">
        <ele>188.6</ele>
        <time>2020-06-10T17:01:04Z</time>
      </trkpt>
      <trkpt lat="48.56709" lon="-3.31026">
        <ele>188.5</ele>
        <time>2020-06-10T17:01:05Z</time>
      </trkpt>
      <trkpt lat="48.56709" lon="-3.31017">
        <ele>188.5</ele>
        <time>2020-06-10T17:01:06Z</time>
      </trkpt>
      <trkpt lat="48.56709" lon="-3.31009">
        <ele>188.4</ele>
        <time>2020-06-10T17:01:07Z</time>
      </trkpt>
      <trkpt lat="48.56709" lon="-3.31001">
        <ele>188.4</ele>
        <time>2020-06-10T17:01:08Z</time>
      </trkpt>
      <trkpt lat="48.56709" lon="-3.30992">
        <ele>188.4</ele>
        <time>2020-06-10T17:01:09Z</time>
      </trkpt>
      <trkpt lat="48.5671" lon="-3.30984">
        <ele>188.3</ele>
        <time>2020-06-10T17:01:10Z</time>
      </trkpt>
      <trkpt lat="48.56711" lon="-3.30975">
        <ele>188.3</ele>
        <time>2020-06-10T17:01:11Z</time>
      </trkpt>
      <trkpt lat="48.56712" lon="-3.30967">
        <ele>188.2</ele>
        <time>2020-06-10T17:01:12Z</time>
      </trkpt>
      <trkpt lat="48.56712" lon="-3.30958">
        <ele>188.2</ele>
        <time>2020-06-10T17:01:13Z</time>
      </trkpt>
      <trkpt lat="48.56712" lon="-3.3095">
        <ele>188.1</ele>
        <time>2020-06-10T17:01:14Z</time>
      </trkpt>
      <trkpt lat="48.56712" lon="-3.30941">
        <ele>188</ele>
        <time>2020-06-10T17:01:15Z</time>
      </trkpt>
      <trkpt lat="48.56712" lon="-3.30932">
        <ele>188</ele>
        <time>2020-06-10T17:01:16Z</time>
      </trkpt>
      <trkpt lat="48.56712" lon="-3.30923">
        <ele>187.9</ele>
        <time>2020-06-10T17:01:17Z</time>
      </trkpt>
      <trkpt lat="48.56713" lon="-3.30914">
        <ele>187.8</ele>
        <time>2020-06-10T17:01:18Z</time>
      </trkpt>
      <trkpt lat="48.56713" lon="-3.30904">
        <ele>187.8</ele>
        <time>2020-06-10T17:01:19Z</time>
      </trkpt>
      <trkpt lat="48.56714" lon="-3.30895">
        <ele>187.7</ele>
        <time>2020-06-10T17:01:20Z</time>
      </trkpt>
      <trkpt lat="48.56715" lon="-3.30886">
        <ele>187.7</ele>
        <time>2020-06-10T17:01:21Z</time>
      </trkpt>
      <trkpt lat="48.56715" lon="-3.30877">
        <ele>187.7</ele>
        <time>2020-06-10T17:01:22Z</time>
      </trkpt>
      <trkpt lat="48.56716" lon="-3.30868">
        <ele>187.7</ele>
        <time>2020-06-10T17:01:23Z</time>
      </trkpt>
      <trkpt lat="48.56716" lon="-3.30859">
        <ele>187.7</ele>
        <time>2020-06-10T17:01:24Z</time>
      </trkpt>
      <trkpt lat="48.56715" lon="-3.30851">
        <ele>187.7</ele>
        <time>2020-06-10T17:01:25Z</time>
      </trkpt>
      <trkpt lat="48.56714" lon="-3.30843">
        <ele>187.6</ele>
        <time>2020-06-10T17:01:26Z</time>
      </trkpt>
      <trkpt lat="48.56713" lon="-3.30834">
        <ele>187.6</ele>
        <time>2020-06-10T17:01:27Z</time>
      </trkpt>
      <trkpt lat="48.56713" lon="-3.30825">
        <ele>187.5</ele>
        <time>2020-06-10T17:01:28Z</time>
      </trkpt>
      <trkpt lat="48.56714" lon="-3.30816">
        <ele>187.5</ele>
        <time>2020-06-10T17:01:29Z</time>
      </trkpt>
      <trkpt lat="48.56715" lon="-3.30807">
        <ele>187.5</ele>
        <time>2020-06-10T17:01:30Z</time>
      </trkpt>
      <trkpt lat="48.56715" lon="-3.30798">
        <ele>187.4</ele>
        <time>2020-06-10T17:01:31Z</time>
      </trkpt>
      <trkpt lat="48.56715" lon="-3.30789">
        <ele>187.4</ele>
        <time>2020-06-10T17:01:32Z</time>
      </trkpt>
      <trkpt lat="48.56715" lon="-3.3078">
        <ele>187.4</ele>
        <time>2020-06-10T17:01:33Z</time>
      </trkpt>
      <trkpt lat="48.56715" lon="-3.3077">
        <ele>187.3</ele>
        <time>2020-06-10T17:01:34Z</time>
      </trkpt>
      <trkpt lat="48.56716" lon="-3.30761">
        <ele>187.3</ele>
        <time>2020-06-10T17:01:35Z</time>
      </trkpt>
      <trkpt lat="48.56716" lon="-3.30751">
        <ele>187.3</ele>
        <time>2020-06-10T17:01:36Z</time>
      </trkpt>
      <trkpt lat="48.56717" lon="-3.30742">
        <ele>187.4</ele>
        <time>2020-06-10T17:01:37Z</time>
      </trkpt>
      <trkpt lat="48.56717" lon="-3.30733">
        <ele>187.4</ele>
        <time>2020-06-10T17:01:38Z</time>
      </trkpt>
      <trkpt lat="48.56718" lon="-3.30724">
        <ele>187.4</ele>
        <time>2020-06-10T17:01:39Z</time>
      </trkpt>
      <trkpt lat="48.56718" lon="-3.30715">
        <ele>187.5</ele>
        <time>2020-06-10T17:01:40Z</time>
      </trkpt>
      <trkpt lat="48.56719" lon="-3.30706">
        <ele>187.5</ele>
        <time>2020-06-10T17:01:41Z</time>
      </trkpt>
      <trkpt lat="48.56719" lon="-3.30697">
        <ele>187.5</ele>
        <time>2020-06-10T17:01:42Z</time>
      </trkpt>
      <trkpt lat="48.56718" lon="-3.30689">
        <ele>187.5</ele>
        <time>2020-06-10T17:01:43Z</time>
      </trkpt>
      <trkpt lat="48.56719" lon="-3.3068">
        <ele>187.5</ele>
        <time>2020-06-10T17:01:44Z</time>
      </trkpt>
      <trkpt lat="48.56719" lon="-3.30672">
        <ele>187.6</ele>
        <time>2020-06-10T17:01:45Z</time>
      </trkpt>
      <trkpt lat="48.56719" lon="-3.30663">
        <ele>187.6</ele>
        <time>2020-06-10T17:01:46Z</time>
      </trkpt>
      <trkpt lat="48.56719" lon="-3.30655">
        <ele>187.7</ele>
        <time>2020-06-10T17:01:47Z</time>
      </trkpt>
      <trkpt lat="48.5672" lon="-3.30646">
        <ele>187.7</ele>
        <time>2020-06-10T17:01:48Z</time>
      </trkpt>
      <trkpt lat="48.5672" lon="-3.30638">
        <ele>187.7</ele>
        <time>2020-06-10T17:01:49Z</time>
      </trkpt>
      <trkpt lat="48.5672" lon="-3.30629">
        <ele>187.7</ele>
        <time>2020-06-10T17:01:50Z</time>
      </trkpt>
      <trkpt lat="48.5672" lon="-3.30621">
        <ele>187.6</ele>
        <time>2020-06-10T17:01:51Z</time>
      </trkpt>
      <trkpt lat="48.56721" lon="-3.30612">
        <ele>187.6</ele>
        <time>2020-06-10T17:01:52Z</time>
      </trkpt>
      <trkpt lat="48.56721" lon="-3.30603">
        <ele>187.7</ele>
        <time>2020-06-10T17:01:53Z</time>
      </trkpt>
      <trkpt lat="48.5672" lon="-3.30595">
        <ele>187.7</ele>
        <time>2020-06-10T17:01:54Z</time>
      </trkpt>
      <trkpt lat="48.5672" lon="-3.30586">
        <ele>187.7</ele>
        <time>2020-06-10T17:01:55Z</time>
      </trkpt>
      <trkpt lat="48.5672" lon="-3.30577">
        <ele>187.7</ele>
        <time>2020-06-10T17:01:56Z</time>
      </trkpt>
      <trkpt lat="48.5672" lon="-3.30568">
        <ele>187.7</ele>
        <time>2020-06-10T17:01:57Z</time>
      </trkpt>
      <trkpt lat="48.5672" lon="-3.3056">
        <ele>187.7</ele>
        <time>2020-06-10T17:01:58Z</time>
      </trkpt>
      <trkpt lat="48.56719" lon="-3.30551">
        <ele>187.7</ele>
        <time>2020-06-10T17:01:59Z</time>
      </trkpt>
      <trkpt lat="48.56719" lon="-3.30542">
        <ele>187.7</ele>
        <time>2020-06-10T17:02:00Z</time>
      </trkpt>
      <trkpt lat="48.56719" lon="-3.30533">
        <ele>187.7</ele>
        <time>2020-06-10T17:02:01Z</time>
      </trkpt>
      <trkpt lat="48.56718" lon="-3.30525">
        <ele>187.6</ele>
        <time>2020-06-10T17:02:02Z</time>
      </trkpt>
      <trkpt lat="48.56719" lon="-3.30516">
        <ele>187.6</ele>
        <time>2020-06-10T17:02:03Z</time>
      </trkpt>
      <trkpt lat="48.56719" lon="-3.30508">
        <ele>187.5</ele>
        <time>2020-06-10T17:02:04Z</time>
      </trkpt>
      <trkpt lat="48.56718" lon="-3.305">
        <ele>187.4</ele>
        <time>2020-06-10T17:02:05Z</time>
      </trkpt>
      <trkpt lat="48.56716" lon="-3.30492">
        <ele>187.4</ele>
        <time>2020-06-10T17:02:06Z</time>
      </trkpt>
      <trkpt lat="48.56715" lon="-3.30484">
        <ele>187.4</ele>
        <time>2020-06-10T17:02:07Z</time>
      </trkpt>
      <trkpt lat="48.56713" lon="-3.30476">
        <ele>187.3</ele>
        <time>2020-06-10T17:02:08Z</time>
      </trkpt>
      <trkpt lat="48.56712" lon="-3.30468">
        <ele>187.3</ele>
        <time>2020-06-10T17:02:09Z</time>
      </trkpt>
      <trkpt lat="48.56711" lon="-3.30459">
        <ele>187.2</ele>
        <time>2020-06-10T17:02:10Z</time>
      </trkpt>
      <trkpt lat="48.5671" lon="-3.30451">
        <ele>187.2</ele>
        <time>2020-06-10T17:02:11Z</time>
      </trkpt>
      <trkpt lat="48.56709" lon="-3.30442">
        <ele>187.2</ele>
        <time>2020-06-10T17:02:12Z</time>
      </trkpt>
      <trkpt lat="48.56709" lon="-3.30434">
        <ele>187.2</ele>
        <time>2020-06-10T17:02:13Z</time>
      </trkpt>
      <trkpt lat="48.56709" lon="-3.30426">
        <ele>187.2</ele>
        <time>2020-06-10T17:02:14Z</time>
      </trkpt>
      <trkpt lat="48.56708" lon="-3.30418">
        <ele>187.2</ele>
        <time>2020-06-10T17:02:15Z</time>
      </trkpt>
      <trkpt lat="48.56708" lon="-3.30409">
        <ele>187.2</ele>
        <time>2020-06-10T17:02:16Z</time>
      </trkpt>
      <trkpt lat="48.56707" lon="-3.30401">
        <ele>187.2</ele>
        <time>2020-06-10T17:02:17Z</time>
      </trkpt>
      <trkpt lat="48.56707" lon="-3.30392">
        <ele>187.3</ele>
        <time>2020-06-10T17:02:18Z</time>
      </trkpt>
      <trkpt lat="48.56707" lon="-3.30384">
        <ele>187.3</ele>
        <time>2020-06-10T17:02:19Z</time>
      </trkpt>
      <trkpt lat="48.56705" lon="-3.30376">
        <ele>187.3</ele>
        <time>2020-06-10T17:02:20Z</time>
      </trkpt>
      <trkpt lat="48.56704" lon="-3.30369">
        <ele>187.4</ele>
        <time>2020-06-10T17:02:21Z</time>
      </trkpt>
      <trkpt lat="48.56704" lon="-3.30361">
        <ele>187.4</ele>
        <time>2020-06-10T17:02:22Z</time>
      </trkpt>
      <trkpt lat="48.56704" lon="-3.30354">
        <ele>187.4</ele>
        <time>2020-06-10T17:02:23Z</time>
      </trkpt>
      <trkpt lat="48.56703" lon="-3.30346">
        <ele>187.4</ele>
        <time>2020-06-10T17:02:24Z</time>
      </trkpt>
      <trkpt lat="48.56703" lon="-3.30337">
        <ele>187.4</ele>
        <time>2020-06-10T17:02:25Z</time>
      </trkpt>
      <trkpt lat="48.56703" lon="-3.30329">
        <ele>187.3</ele>
        <time>2020-06-10T17:02:26Z</time>
      </trkpt>
      <trkpt lat="48.56703" lon="-3.30321">
        <ele>187.3</ele>
        <time>2020-06-10T17:02:27Z</time>
      </trkpt>
      <trkpt lat="48.56702" lon="-3.30312">
        <ele>187.3</ele>
        <time>2020-06-10T17:02:28Z</time>
      </trkpt>
      <trkpt lat="48.56703" lon="-3.30304">
        <ele>187.3</ele>
        <time>2020-06-10T17:02:29Z</time>
      </trkpt>
      <trkpt lat="48.56702" lon="-3.30296">
        <ele>187.3</ele>
        <time>2020-06-10T17:02:30Z</time>
      </trkpt>
      <trkpt lat="48.56702" lon="-3.30288">
        <ele>187.2</ele>
        <time>2020-06-10T17:02:31Z</time>
      </trkpt>
      <trkpt lat="48.56703" lon="-3.3028">
        <ele>187.2</ele>
        <time>2020-06-10T17:02:32Z</time>
      </trkpt>
      <trkpt lat="48.56702" lon="-3.30272">
        <ele>187.2</ele>
        <time>2020-06-10T17:02:33Z</time>
      </trkpt>
      <trkpt lat="48.56702" lon="-3.30265">
        <ele>187.2</ele>
        <time>2020-06-10T17:02:34Z</time>
      </trkpt>
      <trkpt lat="48.56701" lon="-3.30258">
        <ele>187.2</ele>
        <time>2020-06-10T17:02:35Z</time>
      </trkpt>
      <trkpt lat="48.56701" lon="-3.30251">
        <ele>187.1</ele>
        <time>2020-06-10T17:02:36Z</time>
      </trkpt>
      <trkpt lat="48.56701" lon="-3.30243">
        <ele>187.1</ele>
        <time>2020-06-10T17:02:37Z</time>
      </trkpt>
      <trkpt lat="48.567" lon="-3.30236">
        <ele>187.1</ele>
        <time>2020-06-10T17:02:38Z</time>
      </trkpt>
      <trkpt lat="48.56699" lon="-3.30228">
        <ele>187.1</ele>
        <time>2020-06-10T17:02:39Z</time>
      </trkpt>
      <trkpt lat="48.56699" lon="-3.30221">
        <ele>187.1</ele>
        <time>2020-06-10T17:02:40Z</time>
      </trkpt>
      <trkpt lat="48.56698" lon="-3.30215">
        <ele>187.1</ele>
        <time>2020-06-10T17:02:41Z</time>
      </trkpt>
      <trkpt lat="48.56699" lon="-3.30209">
        <ele>187.1</ele>
        <time>2020-06-10T17:02:42Z</time>
      </trkpt>
      <trkpt lat="48.56698" lon="-3.30203">
        <ele>187.1</ele>
        <time>2020-06-10T17:02:43Z</time>
      </trkpt>
      <trkpt lat="48.56698" lon="-3.30197">
        <ele>187.1</ele>
        <time>2020-06-10T17:02:44Z</time>
      </trkpt>
      <trkpt lat="48.56698" lon="-3.30191">
        <ele>187.1</ele>
        <time>2020-06-10T17:02:45Z</time>
      </trkpt>
      <trkpt lat="48.56698" lon="-3.30185">
        <ele>187</ele>
        <time>2020-06-10T17:02:46Z</time>
      </trkpt>
      <trkpt lat="48.56699" lon="-3.30178">
        <ele>187</ele>
        <time>2020-06-10T17:02:47Z</time>
      </trkpt>
      <trkpt lat="48.56699" lon="-3.30171">
        <ele>187</ele>
        <time>2020-06-10T17:02:48Z</time>
      </trkpt>
      <trkpt lat="48.567" lon="-3.30164">
        <ele>187</ele>
        <time>2020-06-10T17:02:49Z</time>
      </trkpt>
      <trkpt lat="48.567" lon="-3.30157">
        <ele>187</ele>
        <time>2020-06-10T17:02:50Z</time>
      </trkpt>
      <trkpt lat="48.567" lon="-3.3015">
        <ele>187</ele>
        <time>2020-06-10T17:02:51Z</time>
      </trkpt>
      <trkpt lat="48.567" lon="-3.30143">
        <ele>186.9</ele>
        <time>2020-06-10T17:02:52Z</time>
      </trkpt>
      <trkpt lat="48.567" lon="-3.30136">
        <ele>186.9</ele>
        <time>2020-06-10T17:02:53Z</time>
      </trkpt>
      <trkpt lat="48.567" lon="-3.30129">
        <ele>186.9</ele>
        <time>2020-06-10T17:02:54Z</time>
      </trkpt>
      <trkpt lat="48.567" lon="-3.30121">
        <ele>186.8</ele>
        <time>2020-06-10T17:02:55Z</time>
      </trkpt>
      <trkpt lat="48.567" lon="-3.30113">
        <ele>186.7</ele>
        <time>2020-06-10T17:02:56Z</time>
      </trkpt>
      <trkpt lat="48.567" lon="-3.30105">
        <ele>186.7</ele>
        <time>2020-06-10T17:02:57Z</time>
      </trkpt>
      <trkpt lat="48.56699" lon="-3.30098">
        <ele>186.6</ele>
        <time>2020-06-10T17:02:58Z</time>
      </trkpt>
      <trkpt lat="48.56699" lon="-3.3009">
        <ele>186.5</ele>
        <time>2020-06-10T17:02:59Z</time>
      </trkpt>
      <trkpt lat="48.56697" lon="-3.30082">
        <ele>186.4</ele>
        <time>2020-06-10T17:03:00Z</time>
      </trkpt>
      <trkpt lat="48.56697" lon="-3.30074">
        <ele>186.3</ele>
        <time>2020-06-10T17:03:01Z</time>
      </trkpt>
      <trkpt lat="48.56697" lon="-3.30067">
        <ele>186.2</ele>
        <time>2020-06-10T17:03:02Z</time>
      </trkpt>
      <trkpt lat="48.56698" lon="-3.30059">
        <ele>186.1</ele>
        <time>2020-06-10T17:03:03Z</time>
      </trkpt>
      <trkpt lat="48.56698" lon="-3.30052">
        <ele>186</ele>
        <time>2020-06-10T17:03:04Z</time>
      </trkpt>
      <trkpt lat="48.56698" lon="-3.30044">
        <ele>185.9</ele>
        <time>2020-06-10T17:03:05Z</time>
      </trkpt>
      <trkpt lat="48.56699" lon="-3.30036">
        <ele>185.8</ele>
        <time>2020-06-10T17:03:06Z</time>
      </trkpt>
      <trkpt lat="48.56698" lon="-3.30029">
        <ele>185.7</ele>
        <time>2020-06-10T17:03:07Z</time>
      </trkpt>
      <trkpt lat="48.56698" lon="-3.30021">
        <ele>185.6</ele>
        <time>2020-06-10T17:03:08Z</time>
      </trkpt>
      <trkpt lat="48.56698" lon="-3.30013">
        <ele>185.5</ele>
        <time>2020-06-10T17:03:09Z</time>
      </trkpt>
      <trkpt lat="48.56699" lon="-3.30005">
        <ele>185.4</ele>
        <time>2020-06-10T17:03:10Z</time>
      </trkpt>
      <trkpt lat="48.567" lon="-3.29997">
        <ele>185.3</ele>
        <time>2020-06-10T17:03:11Z</time>
      </trkpt>
      <trkpt lat="48.567" lon="-3.29989">
        <ele>185.2</ele>
        <time>2020-06-10T17:03:12Z</time>
      </trkpt>
      <trkpt lat="48.567" lon="-3.29981">
        <ele>185</ele>
        <time>2020-06-10T17:03:13Z</time>
      </trkpt>
      <trkpt lat="48.567" lon="-3.29973">
        <ele>184.9</ele>
        <time>2020-06-10T17:03:14Z</time>
      </trkpt>
      <trkpt lat="48.567" lon="-3.29965">
        <ele>184.7</ele>
        <time>2020-06-10T17:03:15Z</time>
      </trkpt>
      <trkpt lat="48.567" lon="-3.29956">
        <ele>184.6</ele>
        <time>2020-06-10T17:03:16Z</time>
      </trkpt>
      <trkpt lat="48.567" lon="-3.29948">
        <ele>184.5</ele>
        <time>2020-06-10T17:03:17Z</time>
      </trkpt>
      <trkpt lat="48.56701" lon="-3.2994">
        <ele>184.3</ele>
        <time>2020-06-10T17:03:18Z</time>
      </trkpt>
      <trkpt lat="48.56701" lon="-3.29931">
        <ele>184.2</ele>
        <time>2020-06-10T17:03:19Z</time>
      </trkpt>
      <trkpt lat="48.56701" lon="-3.29922">
        <ele>184</ele>
        <time>2020-06-10T17:03:20Z</time>
      </trkpt>
      <trkpt lat="48.56701" lon="-3.29912">
        <ele>183.8</ele>
        <time>2020-06-10T17:03:21Z</time>
      </trkpt>
      <trkpt lat="48.56701" lon="-3.29903">
        <ele>183.6</ele>
        <time>2020-06-10T17:03:22Z</time>
      </trkpt>
      <trkpt lat="48.567" lon="-3.29894">
        <ele>183.4</ele>
        <time>2020-06-10T17:03:23Z</time>
      </trkpt>
      <trkpt lat="48.567" lon="-3.29884">
        <ele>183.2</ele>
        <time>2020-06-10T17:03:24Z</time>
      </trkpt>
      <trkpt lat="48.567" lon="-3.29875">
        <ele>183</ele>
        <time>2020-06-10T17:03:25Z</time>
      </trkpt>
      <trkpt lat="48.56701" lon="-3.29865">
        <ele>182.7</ele>
        <time>2020-06-10T17:03:26Z</time>
      </trkpt>
      <trkpt lat="48.56701" lon="-3.29856">
        <ele>182.5</ele>
        <time>2020-06-10T17:03:27Z</time>
      </trkpt>
      <trkpt lat="48.56702" lon="-3.29847">
        <ele>182.3</ele>
        <time>2020-06-10T17:03:28Z</time>
      </trkpt>
      <trkpt lat="48.56702" lon="-3.29837">
        <ele>182</ele>
        <time>2020-06-10T17:03:29Z</time>
      </trkpt>
      <trkpt lat="48.56703" lon="-3.29827">
        <ele>181.8</ele>
        <time>2020-06-10T17:03:30Z</time>
      </trkpt>
      <trkpt lat="48.56703" lon="-3.29817">
        <ele>181.6</ele>
        <time>2020-06-10T17:03:31Z</time>
      </trkpt>
      <trkpt lat="48.56704" lon="-3.29807">
        <ele>181.3</ele>
        <time>2020-06-10T17:03:32Z</time>
      </trkpt>
      <trkpt lat="48.56705" lon="-3.29797">
        <ele>181.1</ele>
        <time>2020-06-10T17:03:33Z</time>
      </trkpt>
      <trkpt lat="48.56705" lon="-3.29787">
        <ele>180.8</ele>
        <time>2020-06-10T17:03:34Z</time>
      </trkpt>
      <trkpt lat="48.56705" lon="-3.29776">
        <ele>180.6</ele>
        <time>2020-06-10T17:03:35Z</time>
      </trkpt>
      <trkpt lat="48.56706" lon="-3.29766">
        <ele>180.3</ele>
        <time>2020-06-10T17:03:36Z</time>
      </trkpt>
      <trkpt lat="48.56706" lon="-3.29755">
        <ele>180.1</ele>
        <time>2020-06-10T17:03:37Z</time>
      </trkpt>
      <trkpt lat="48.56706" lon="-3.29744">
        <ele>179.9</ele>
        <time>2020-06-10T17:03:38Z</time>
      </trkpt>
      <trkpt lat="48.56707" lon="-3.29733">
        <ele>179.6</ele>
        <time>2020-06-10T17:03:39Z</time>
      </trkpt>
      <trkpt lat="48.56709" lon="-3.29722">
        <ele>179.4</ele>
        <time>2020-06-10T17:03:40Z</time>
      </trkpt>
      <trkpt lat="48.5671" lon="-3.29711">
        <ele>179.2</ele>
        <time>2020-06-10T17:03:41Z</time>
      </trkpt>
      <trkpt lat="48.56711" lon="-3.29701">
        <ele>178.9</ele>
        <time>2020-06-10T17:03:42Z</time>
      </trkpt>
      <trkpt lat="48.56713" lon="-3.2969">
        <ele>178.7</ele>
        <time>2020-06-10T17:03:43Z</time>
      </trkpt>
      <trkpt lat="48.56715" lon="-3.29679">
        <ele>178.4</ele>
        <time>2020-06-10T17:03:44Z</time>
      </trkpt>
      <trkpt lat="48.56718" lon="-3.29668">
        <ele>178.2</ele>
        <time>2020-06-10T17:03:45Z</time>
      </trkpt>
      <trkpt lat="48.56721" lon="-3.29658">
        <ele>177.9</ele>
        <time>2020-06-10T17:03:46Z</time>
      </trkpt>
      <trkpt lat="48.56725" lon="-3.29648">
        <ele>177.7</ele>
        <time>2020-06-10T17:03:47Z</time>
      </trkpt>
      <trkpt lat="48.56729" lon="-3.29638">
        <ele>177.4</ele>
        <time>2020-06-10T17:03:48Z</time>
      </trkpt>
      <trkpt lat="48.56733" lon="-3.29628">
        <ele>177.2</ele>
        <time>2020-06-10T17:03:49Z</time>
      </trkpt>
      <trkpt lat="48.56737" lon="-3.29618">
        <ele>176.9</ele>
        <time>2020-06-10T17:03:50Z</time>
      </trkpt>
      <trkpt lat="48.56742" lon="-3.29608">
        <ele>176.7</ele>
        <time>2020-06-10T17:03:51Z</time>
      </trkpt>
      <trkpt lat="48.56746" lon="-3.29598">
        <ele>176.4</ele>
        <time>2020-06-10T17:03:52Z</time>
      </trkpt>
      <trkpt lat="48.5675" lon="-3.29589">
        <ele>176.1</ele>
        <time>2020-06-10T17:03:53Z</time>
      </trkpt>
      <trkpt lat="48.56754" lon="-3.29579">
        <ele>175.9</ele>
        <time>2020-06-10T17:03:54Z</time>
      </trkpt>
      <trkpt lat="48.56759" lon="-3.29569">
        <ele>175.7</ele>
        <time>2020-06-10T17:03:55Z</time>
      </trkpt>
      <trkpt lat="48.56762" lon="-3.29559">
        <ele>175.4</ele>
        <time>2020-06-10T17:03:56Z</time>
      </trkpt>
      <trkpt lat="48.56766" lon="-3.29548">
        <ele>175.1</ele>
        <time>2020-06-10T17:03:57Z</time>
      </trkpt>
      <trkpt lat="48.56769" lon="-3.29537">
        <ele>174.9</ele>
        <time>2020-06-10T17:03:58Z</time>
      </trkpt>
      <trkpt lat="48.56771" lon="-3.29526">
        <ele>174.6</ele>
        <time>2020-06-10T17:03:59Z</time>
      </trkpt>
      <trkpt lat="48.56772" lon="-3.29514">
        <ele>174.3</ele>
        <time>2020-06-10T17:04:00Z</time>
      </trkpt>
      <trkpt lat="48.56774" lon="-3.29503">
        <ele>174.1</ele>
        <time>2020-06-10T17:04:01Z</time>
      </trkpt>
      <trkpt lat="48.56774" lon="-3.29491">
        <ele>173.9</ele>
        <time>2020-06-10T17:04:02Z</time>
      </trkpt>
      <trkpt lat="48.56775" lon="-3.29479">
        <ele>173.6</ele>
        <time>2020-06-10T17:04:03Z</time>
      </trkpt>
      <trkpt lat="48.56776" lon="-3.29466">
        <ele>173.4</ele>
        <time>2020-06-10T17:04:04Z</time>
      </trkpt>
      <trkpt lat="48.56776" lon="-3.29454">
        <ele>173.1</ele>
        <time>2020-06-10T17:04:05Z</time>
      </trkpt>
      <trkpt lat="48.56777" lon="-3.29443">
        <ele>173</ele>
        <time>2020-06-10T17:04:06Z</time>
      </trkpt>
      <trkpt lat="48.56776" lon="-3.29431">
        <ele>172.8</ele>
        <time>2020-06-10T17:04:07Z</time>
      </trkpt>
      <trkpt lat="48.56777" lon="-3.29419">
        <ele>172.7</ele>
        <time>2020-06-10T17:04:08Z</time>
      </trkpt>
      <trkpt lat="48.56777" lon="-3.29407">
        <ele>172.6</ele>
        <time>2020-06-10T17:04:09Z</time>
      </trkpt>
      <trkpt lat="48.56777" lon="-3.29396">
        <ele>172.5</ele>
        <time>2020-06-10T17:04:10Z</time>
      </trkpt>
      <trkpt lat="48.56778" lon="-3.29385">
        <ele>172.5</ele>
        <time>2020-06-10T17:04:11Z</time>
      </trkpt>
      <trkpt lat="48.56778" lon="-3.29374">
        <ele>172.5</ele>
        <time>2020-06-10T17:04:12Z</time>
      </trkpt>
      <trkpt lat="48.56778" lon="-3.29363">
        <ele>172.5</ele>
        <time>2020-06-10T17:04:13Z</time>
      </trkpt>
      <trkpt lat="48.56779" lon="-3.29353">
        <ele>172.5</ele>
        <time>2020-06-10T17:04:14Z</time>
      </trkpt>
      <trkpt lat="48.56779" lon="-3.29343">
        <ele>172.5</ele>
        <time>2020-06-10T17:04:15Z</time>
      </trkpt>
      <trkpt lat="48.56779" lon="-3.29334">
        <ele>172.5</ele>
        <time>2020-06-10T17:04:16Z</time>
      </trkpt>
      <trkpt lat="48.56779" lon="-3.29325">
        <ele>172.6</ele>
        <time>2020-06-10T17:04:17Z</time>
      </trkpt>
      <trkpt lat="48.5678" lon="-3.29315">
        <ele>172.8</ele>
        <time>2020-06-10T17:04:18Z</time>
      </trkpt>
      <trkpt lat="48.5678" lon="-3.29306">
        <ele>172.7</ele>
        <time>2020-06-10T17:04:19Z</time>
      </trkpt>
      <trkpt lat="48.56781" lon="-3.29297">
        <ele>172.6</ele>
        <time>2020-06-10T17:04:20Z</time>
      </trkpt>
      <trkpt lat="48.56781" lon="-3.29289">
        <ele>172.6</ele>
        <time>2020-06-10T17:04:21Z</time>
      </trkpt>
      <trkpt lat="48.56782" lon="-3.2928">
        <ele>172.6</ele>
        <time>2020-06-10T17:04:22Z</time>
      </trkpt>
      <trkpt lat="48.56782" lon="-3.29272">
        <ele>172.6</ele>
        <time>2020-06-10T17:04:23Z</time>
      </trkpt>
      <trkpt lat="48.56783" lon="-3.29264">
        <ele>172.6</ele>
        <time>2020-06-10T17:04:24Z</time>
      </trkpt>
      <trkpt lat="48.56783" lon="-3.29256">
        <ele>172.6</ele>
        <time>2020-06-10T17:04:25Z</time>
      </trkpt>
      <trkpt lat="48.56783" lon="-3.29247">
        <ele>172.7</ele>
        <time>2020-06-10T17:04:26Z</time>
      </trkpt>
      <trkpt lat="48.56783" lon="-3.29239">
        <ele>172.7</ele>
        <time>2020-06-10T17:04:27Z</time>
      </trkpt>
      <trkpt lat="48.56783" lon="-3.29231">
        <ele>172.8</ele>
        <time>2020-06-10T17:04:28Z</time>
      </trkpt>
      <trkpt lat="48.56783" lon="-3.29224">
        <ele>172.8</ele>
        <time>2020-06-10T17:04:29Z</time>
      </trkpt>
      <trkpt lat="48.56784" lon="-3.29216">
        <ele>172.9</ele>
        <time>2020-06-10T17:04:30Z</time>
      </trkpt>
      <trkpt lat="48.56784" lon="-3.29209">
        <ele>172.9</ele>
        <time>2020-06-10T17:04:31Z</time>
      </trkpt>
      <trkpt lat="48.56784" lon="-3.29201">
        <ele>173</ele>
        <time>2020-06-10T17:04:32Z</time>
      </trkpt>
      <trkpt lat="48.56785" lon="-3.29194">
        <ele>173</ele>
        <time>2020-06-10T17:04:33Z</time>
      </trkpt>
      <trkpt lat="48.56785" lon="-3.29187">
        <ele>173</ele>
        <time>2020-06-10T17:04:34Z</time>
      </trkpt>
      <trkpt lat="48.56786" lon="-3.29179">
        <ele>173.1</ele>
        <time>2020-06-10T17:04:35Z</time>
      </trkpt>
      <trkpt lat="48.56786" lon="-3.29172">
        <ele>173.1</ele>
        <time>2020-06-10T17:04:36Z</time>
      </trkpt>
      <trkpt lat="48.56785" lon="-3.29165">
        <ele>173.1</ele>
        <time>2020-06-10T17:04:37Z</time>
      </trkpt>
      <trkpt lat="48.56786" lon="-3.29158">
        <ele>173.2</ele>
        <time>2020-06-10T17:04:38Z</time>
      </trkpt>
      <trkpt lat="48.56786" lon="-3.2915">
        <ele>173.2</ele>
        <time>2020-06-10T17:04:39Z</time>
      </trkpt>
      <trkpt lat="48.56786" lon="-3.29143">
        <ele>173.2</ele>
        <time>2020-06-10T17:04:40Z</time>
      </trkpt>
      <trkpt lat="48.56787" lon="-3.29135">
        <ele>173.2</ele>
        <time>2020-06-10T17:04:41Z</time>
      </trkpt>
      <trkpt lat="48.56788" lon="-3.29128">
        <ele>173.2</ele>
        <time>2020-06-10T17:04:42Z</time>
      </trkpt>
      <trkpt lat="48.56789" lon="-3.2912">
        <ele>173.1</ele>
        <time>2020-06-10T17:04:43Z</time>
      </trkpt>
      <trkpt lat="48.56789" lon="-3.29111">
        <ele>173.1</ele>
        <time>2020-06-10T17:04:44Z</time>
      </trkpt>
      <trkpt lat="48.56788" lon="-3.29104">
        <ele>173</ele>
        <time>2020-06-10T17:04:45Z</time>
      </trkpt>
      <trkpt lat="48.56788" lon="-3.29096">
        <ele>173</ele>
        <time>2020-06-10T17:04:46Z</time>
      </trkpt>
      <trkpt lat="48.56788" lon="-3.29089">
        <ele>172.9</ele>
        <time>2020-06-10T17:04:47Z</time>
      </trkpt>
      <trkpt lat="48.56788" lon="-3.29081">
        <ele>172.8</ele>
        <time>2020-06-10T17:04:48Z</time>
      </trkpt>
      <trkpt lat="48.56787" lon="-3.29073">
        <ele>172.8</ele>
        <time>2020-06-10T17:04:49Z</time>
      </trkpt>
      <trkpt lat="48.56787" lon="-3.29065">
        <ele>172.5</ele>
        <time>2020-06-10T17:04:50Z</time>
      </trkpt>
      <trkpt lat="48.56787" lon="-3.29057">
        <ele>172.5</ele>
        <time>2020-06-10T17:04:51Z</time>
      </trkpt>
      <trkpt lat="48.56787" lon="-3.29048">
        <ele>172.5</ele>
        <time>2020-06-10T17:04:52Z</time>
      </trkpt>
      <trkpt lat="48.56787" lon="-3.2904">
        <ele>172.4</ele>
        <time>2020-06-10T17:04:53Z</time>
      </trkpt>
      <trkpt lat="48.56788" lon="-3.29031">
        <ele>172.4</ele>
        <time>2020-06-10T17:04:54Z</time>
      </trkpt>
      <trkpt lat="48.56788" lon="-3.29023">
        <ele>172.4</ele>
        <time>2020-06-10T17:04:55Z</time>
      </trkpt>
      <trkpt lat="48.56789" lon="-3.29015">
        <ele>172.3</ele>
        <time>2020-06-10T17:04:56Z</time>
      </trkpt>
      <trkpt lat="48.5679" lon="-3.29007">
        <ele>172.1</ele>
        <time>2020-06-10T17:04:57Z</time>
      </trkpt>
      <trkpt lat="48.56791" lon="-3.28998">
        <ele>171.9</ele>
        <time>2020-06-10T17:04:58Z</time>
      </trkpt>
      <trkpt lat="48.56791" lon="-3.28989">
        <ele>171.8</ele>
        <time>2020-06-10T17:04:59Z</time>
      </trkpt>
      <trkpt lat="48.56792" lon="-3.2898">
        <ele>171.6</ele>
        <time>2020-06-10T17:05:00Z</time>
      </trkpt>
      <trkpt lat="48.56792" lon="-3.28971">
        <ele>171.4</ele>
        <time>2020-06-10T17:05:01Z</time>
      </trkpt>
      <trkpt lat="48.56792" lon="-3.28961">
        <ele>171.2</ele>
        <time>2020-06-10T17:05:02Z</time>
      </trkpt>
      <trkpt lat="48.56791" lon="-3.28952">
        <ele>171</ele>
        <time>2020-06-10T17:05:03Z</time>
      </trkpt>
      <trkpt lat="48.56791" lon="-3.28942">
        <ele>170.7</ele>
        <time>2020-06-10T17:05:04Z</time>
      </trkpt>
      <trkpt lat="48.56791" lon="-3.28933">
        <ele>170.5</ele>
        <time>2020-06-10T17:05:05Z</time>
      </trkpt>
      <trkpt lat="48.56792" lon="-3.28922">
        <ele>170.1</ele>
        <time>2020-06-10T17:05:06Z</time>
      </trkpt>
      <trkpt lat="48.56791" lon="-3.28912">
        <ele>169.8</ele>
        <time>2020-06-10T17:05:07Z</time>
      </trkpt>
      <trkpt lat="48.56792" lon="-3.289">
        <ele>169.5</ele>
        <time>2020-06-10T17:05:08Z</time>
      </trkpt>
      <trkpt lat="48.56792" lon="-3.28889">
        <ele>169.1</ele>
        <time>2020-06-10T17:05:09Z</time>
      </trkpt>
      <trkpt lat="48.56792" lon="-3.28877">
        <ele>168.7</ele>
        <time>2020-06-10T17:05:10Z</time>
      </trkpt>
      <trkpt lat="48.56793" lon="-3.28865">
        <ele>168.2</ele>
        <time>2020-06-10T17:05:11Z</time>
      </trkpt>
      <trkpt lat="48.56793" lon="-3.28853">
        <ele>167.8</ele>
        <time>2020-06-10T17:05:12Z</time>
      </trkpt>
      <trkpt lat="48.56794" lon="-3.28841">
        <ele>167.3</ele>
        <time>2020-06-10T17:05:13Z</time>
      </trkpt>
      <trkpt lat="48.56794" lon="-3.28828">
        <ele>166.9</ele>
        <time>2020-06-10T17:05:14Z</time>
      </trkpt>
      <trkpt lat="48.56795" lon="-3.28815">
        <ele>166.4</ele>
        <time>2020-06-10T17:05:15Z</time>
      </trkpt>
      <trkpt lat="48.56795" lon="-3.28802">
        <ele>165.9</ele>
        <time>2020-06-10T17:05:16Z</time>
      </trkpt>
      <trkpt lat="48.56796" lon="-3.28789">
        <ele>165.4</ele>
        <time>2020-06-10T17:05:17Z</time>
      </trkpt>
      <trkpt lat="48.56797" lon="-3.28776">
        <ele>164.9</ele>
        <time>2020-06-10T17:05:18Z</time>
      </trkpt>
      <trkpt lat="48.56797" lon="-3.28762">
        <ele>164.4</ele>
        <time>2020-06-10T17:05:19Z</time>
      </trkpt>
      <trkpt lat="48.56797" lon="-3.28749">
        <ele>163.9</ele>
        <time>2020-06-10T17:05:20Z</time>
      </trkpt>
      <trkpt lat="48.56796" lon="-3.28736">
        <ele>163.4</ele>
        <time>2020-06-10T17:05:21Z</time>
      </trkpt>
      <trkpt lat="48.56798" lon="-3.28722">
        <ele>162.9</ele>
        <time>2020-06-10T17:05:22Z</time>
      </trkpt>
      <trkpt lat="48.56799" lon="-3.28708">
        <ele>162.4</ele>
        <time>2020-06-10T17:05:23Z</time>
      </trkpt>
      <trkpt lat="48.568" lon="-3.28694">
        <ele>161.8</ele>
        <time>2020-06-10T17:05:24Z</time>
      </trkpt>
      <trkpt lat="48.56801" lon="-3.28679">
        <ele>161.1</ele>
        <time>2020-06-10T17:05:25Z</time>
      </trkpt>
      <trkpt lat="48.56802" lon="-3.28664">
        <ele>160.5</ele>
        <time>2020-06-10T17:05:26Z</time>
      </trkpt>
      <trkpt lat="48.56802" lon="-3.28649">
        <ele>159.9</ele>
        <time>2020-06-10T17:05:27Z</time>
      </trkpt>
      <trkpt lat="48.56802" lon="-3.28634">
        <ele>159.4</ele>
        <time>2020-06-10T17:05:28Z</time>
      </trkpt>
      <trkpt lat="48.56802" lon="-3.28619">
        <ele>158.9</ele>
        <time>2020-06-10T17:05:29Z</time>
      </trkpt>
      <trkpt lat="48.56802" lon="-3.28604">
        <ele>158.2</ele>
        <time>2020-06-10T17:05:30Z</time>
      </trkpt>
      <trkpt lat="48.56802" lon="-3.28588">
        <ele>157.5</ele>
        <time>2020-06-10T17:05:31Z</time>
      </trkpt>
      <trkpt lat="48.56803" lon="-3.28572">
        <ele>156.8</ele>
        <time>2020-06-10T17:05:32Z</time>
      </trkpt>
      <trkpt lat="48.56803" lon="-3.28556">
        <ele>156.2</ele>
        <time>2020-06-10T17:05:33Z</time>
      </trkpt>
      <trkpt lat="48.56804" lon="-3.28541">
        <ele>155.6</ele>
        <time>2020-06-10T17:05:34Z</time>
      </trkpt>
      <trkpt lat="48.56804" lon="-3.28525">
        <ele>155.1</ele>
        <time>2020-06-10T17:05:35Z</time>
      </trkpt>
      <trkpt lat="48.56804" lon="-3.28509">
        <ele>154.7</ele>
        <time>2020-06-10T17:05:36Z</time>
      </trkpt>
      <trkpt lat="48.56805" lon="-3.28494">
        <ele>154.3</ele>
        <time>2020-06-10T17:05:37Z</time>
      </trkpt>
      <trkpt lat="48.56804" lon="-3.28478">
        <ele>154</ele>
        <time>2020-06-10T17:05:38Z</time>
      </trkpt>
      <trkpt lat="48.56805" lon="-3.28464">
        <ele>153.7</ele>
        <time>2020-06-10T17:05:39Z</time>
      </trkpt>
      <trkpt lat="48.56805" lon="-3.28449">
        <ele>153.6</ele>
        <time>2020-06-10T17:05:40Z</time>
      </trkpt>
      <trkpt lat="48.56806" lon="-3.28435">
        <ele>153.5</ele>
        <time>2020-06-10T17:05:41Z</time>
      </trkpt>
      <trkpt lat="48.56806" lon="-3.28422">
        <ele>153.4</ele>
        <time>2020-06-10T17:05:42Z</time>
      </trkpt>
      <trkpt lat="48.56806" lon="-3.28409">
        <ele>153.4</ele>
        <time>2020-06-10T17:05:43Z</time>
      </trkpt>
      <trkpt lat="48.56805" lon="-3.28396">
        <ele>153.4</ele>
        <time>2020-06-10T17:05:44Z</time>
      </trkpt>
      <trkpt lat="48.56805" lon="-3.28384">
        <ele>153.3</ele>
        <time>2020-06-10T17:05:45Z</time>
      </trkpt>
      <trkpt lat="48.56806" lon="-3.28373">
        <ele>153.4</ele>
        <time>2020-06-10T17:05:46Z</time>
      </trkpt>
      <trkpt lat="48.56807" lon="-3.28363">
        <ele>153.5</ele>
        <time>2020-06-10T17:05:47Z</time>
      </trkpt>
      <trkpt lat="48.56808" lon="-3.28353">
        <ele>153.7</ele>
        <time>2020-06-10T17:05:48Z</time>
      </trkpt>
      <trkpt lat="48.56807" lon="-3.28344">
        <ele>153.8</ele>
        <time>2020-06-10T17:05:49Z</time>
      </trkpt>
      <trkpt lat="48.56807" lon="-3.28334">
        <ele>154</ele>
        <time>2020-06-10T17:05:50Z</time>
      </trkpt>
      <trkpt lat="48.56807" lon="-3.28326">
        <ele>154.3</ele>
        <time>2020-06-10T17:05:51Z</time>
      </trkpt>
      <trkpt lat="48.56807" lon="-3.28316">
        <ele>154.6</ele>
        <time>2020-06-10T17:05:52Z</time>
      </trkpt>
      <trkpt lat="48.56806" lon="-3.28308">
        <ele>154.9</ele>
        <time>2020-06-10T17:05:53Z</time>
      </trkpt>
      <trkpt lat="48.56807" lon="-3.283">
        <ele>155.3</ele>
        <time>2020-06-10T17:05:54Z</time>
      </trkpt>
      <trkpt lat="48.56808" lon="-3.28293">
        <ele>155.6</ele>
        <time>2020-06-10T17:05:55Z</time>
      </trkpt>
      <trkpt lat="48.56808" lon="-3.28286">
        <ele>155.8</ele>
        <time>2020-06-10T17:05:56Z</time>
      </trkpt>
      <trkpt lat="48.56809" lon="-3.28279">
        <ele>156.1</ele>
        <time>2020-06-10T17:05:57Z</time>
      </trkpt>
      <trkpt lat="48.5681" lon="-3.28273">
        <ele>156.3</ele>
        <time>2020-06-10T17:05:58Z</time>
      </trkpt>
      <trkpt lat="48.5681" lon="-3.28266">
        <ele>156.6</ele>
        <time>2020-06-10T17:05:59Z</time>
      </trkpt>
      <trkpt lat="48.56811" lon="-3.2826">
        <ele>156.8</ele>
        <time>2020-06-10T17:06:00Z</time>
      </trkpt>
      <trkpt lat="48.5681" lon="-3.28254">
        <ele>157</ele>
        <time>2020-06-10T17:06:01Z</time>
      </trkpt>
      <trkpt lat="48.5681" lon="-3.28248">
        <ele>157.2</ele>
        <time>2020-06-10T17:06:02Z</time>
      </trkpt>
      <trkpt lat="48.56809" lon="-3.28242">
        <ele>157.4</ele>
        <time>2020-06-10T17:06:03Z</time>
      </trkpt>
      <trkpt lat="48.56809" lon="-3.28236">
        <ele>157.6</ele>
        <time>2020-06-10T17:06:04Z</time>
      </trkpt>
      <trkpt lat="48.5681" lon="-3.2823">
        <ele>157.9</ele>
        <time>2020-06-10T17:06:05Z</time>
      </trkpt>
      <trkpt lat="48.5681" lon="-3.28224">
        <ele>158.1</ele>
        <time>2020-06-10T17:06:06Z</time>
      </trkpt>
      <trkpt lat="48.5681" lon="-3.28218">
        <ele>158.3</ele>
        <time>2020-06-10T17:06:07Z</time>
      </trkpt>
      <trkpt lat="48.5681" lon="-3.28213">
        <ele>158.5</ele>
        <time>2020-06-10T17:06:08Z</time>
      </trkpt>
      <trkpt lat="48.5681" lon="-3.28207">
        <ele>158.8</ele>
        <time>2020-06-10T17:06:09Z</time>
      </trkpt>
      <trkpt lat="48.5681" lon="-3.28202">
        <ele>159</ele>
        <time>2020-06-10T17:06:10Z</time>
      </trkpt>
      <trkpt lat="48.5681" lon="-3.28196">
        <ele>159.2</ele>
        <time>2020-06-10T17:06:11Z</time>
      </trkpt>
      <trkpt lat="48.56811" lon="-3.28191">
        <ele>159.4</ele>
        <time>2020-06-10T17:06:12Z</time>
      </trkpt>
      <trkpt lat="48.56812" lon="-3.28185">
        <ele>159.7</ele>
        <time>2020-06-10T17:06:13Z</time>
      </trkpt>
      <trkpt lat="48.56812" lon="-3.28179">
        <ele>159.9</ele>
        <time>2020-06-10T17:06:14Z</time>
      </trkpt>
      <trkpt lat="48.56812" lon="-3.28173">
        <ele>160.1</ele>
        <time>2020-06-10T17:06:15Z</time>
      </trkpt>
      <trkpt lat="48.56812" lon="-3.28168">
        <ele>160.3</ele>
        <time>2020-06-10T17:06:16Z</time>
      </trkpt>
      <trkpt lat="48.56812" lon="-3.28162">
        <ele>160.6</ele>
        <time>2020-06-10T17:06:17Z</time>
      </trkpt>
      <trkpt lat="48.56812" lon="-3.28156">
        <ele>160.8</ele>
        <time>2020-06-10T17:06:18Z</time>
      </trkpt>
      <trkpt lat="48.56811" lon="-3.2815">
        <ele>161.1</ele>
        <time>2020-06-10T17:06:19Z</time>
      </trkpt>
      <trkpt lat="48.56811" lon="-3.28144">
        <ele>161.3</ele>
        <time>2020-06-10T17:06:20Z</time>
      </trkpt>
      <trkpt lat="48.56811" lon="-3.28138">
        <ele>161.6</ele>
        <time>2020-06-10T17:06:21Z</time>
      </trkpt>
      <trkpt lat="48.56811" lon="-3.28132">
        <ele>161.8</ele>
        <time>2020-06-10T17:06:22Z</time>
      </trkpt>
      <trkpt lat="48.5681" lon="-3.28127">
        <ele>162</ele>
        <time>2020-06-10T17:06:23Z</time>
      </trkpt>
      <trkpt lat="48.5681" lon="-3.28122">
        <ele>162.3</ele>
        <time>2020-06-10T17:06:24Z</time>
      </trkpt>
      <trkpt lat="48.56811" lon="-3.28116">
        <ele>162.5</ele>
        <time>2020-06-10T17:06:25Z</time>
      </trkpt>
      <trkpt lat="48.56812" lon="-3.28111">
        <ele>162.7</ele>
        <time>2020-06-10T17:06:26Z</time>
      </trkpt>
      <trkpt lat="48.56812" lon="-3.28106">
        <ele>162.9</ele>
        <time>2020-06-10T17:06:27Z</time>
      </trkpt>
      <trkpt lat="48.56813" lon="-3.28101">
        <ele>163.1</ele>
        <time>2020-06-10T17:06:28Z</time>
      </trkpt>
      <trkpt lat="48.56813" lon="-3.28096">
        <ele>163.4</ele>
        <time>2020-06-10T17:06:29Z</time>
      </trkpt>
      <trkpt lat="48.56814" lon="-3.28091">
        <ele>163.6</ele>
        <time>2020-06-10T17:06:30Z</time>
      </trkpt>
      <trkpt lat="48.56814" lon="-3.28087">
        <ele>163.8</ele>
        <time>2020-06-10T17:06:31Z</time>
      </trkpt>
      <trkpt lat="48.56814" lon="-3.28081">
        <ele>164</ele>
        <time>2020-06-10T17:06:32Z</time>
      </trkpt>
      <trkpt lat="48.56814" lon="-3.28075">
        <ele>164.3</ele>
        <time>2020-06-10T17:06:33Z</time>
      </trkpt>
      <trkpt lat="48.56814" lon="-3.28069">
        <ele>164.5</ele>
        <time>2020-06-10T17:06:34Z</time>
      </trkpt>
      <trkpt lat="48.56814" lon="-3.28063">
        <ele>164.8</ele>
        <time>2020-06-10T17:06:35Z</time>
      </trkpt>
      <trkpt lat="48.56815" lon="-3.28059">
        <ele>165</ele>
        <time>2020-06-10T17:06:36Z</time>
      </trkpt>
      <trkpt lat="48.56815" lon="-3.28053">
        <ele>165.3</ele>
        <time>2020-06-10T17:06:37Z</time>
      </trkpt>
      <trkpt lat="48.56815" lon="-3.2805">
        <ele>165.4</ele>
        <time>2020-06-10T17:06:38Z</time>
      </trkpt>
      <trkpt lat="48.56817" lon="-3.28045">
        <ele>165.6</ele>
        <time>2020-06-10T17:06:39Z</time>
      </trkpt>
      <trkpt lat="48.56818" lon="-3.2804">
        <ele>165.8</ele>
        <time>2020-06-10T17:06:40Z</time>
      </trkpt>
      <trkpt lat="48.56819" lon="-3.28034">
        <ele>166.1</ele>
        <time>2020-06-10T17:06:41Z</time>
      </trkpt>
      <trkpt lat="48.56819" lon="-3.28028">
        <ele>166.3</ele>
        <time>2020-06-10T17:06:42Z</time>
      </trkpt>
      <trkpt lat="48.56819" lon="-3.28023">
        <ele>166.6</ele>
        <time>2020-06-10T17:06:43Z</time>
      </trkpt>
      <trkpt lat="48.56819" lon="-3.28018">
        <ele>166.8</ele>
        <time>2020-06-10T17:06:44Z</time>
      </trkpt>
      <trkpt lat="48.5682" lon="-3.28011">
        <ele>167.1</ele>
        <time>2020-06-10T17:06:45Z</time>
      </trkpt>
      <trkpt lat="48.5682" lon="-3.28005">
        <ele>167.3</ele>
        <time>2020-06-10T17:06:46Z</time>
      </trkpt>
      <trkpt lat="48.5682" lon="-3.27998">
        <ele>167.6</ele>
        <time>2020-06-10T17:06:47Z</time>
      </trkpt>
      <trkpt lat="48.5682" lon="-3.27993">
        <ele>167.8</ele>
        <time>2020-06-10T17:06:48Z</time>
      </trkpt>
      <trkpt lat="48.5682" lon="-3.27989">
        <ele>168</ele>
        <time>2020-06-10T17:06:49Z</time>
      </trkpt>
      <trkpt lat="48.56819" lon="-3.27983">
        <ele>168.2</ele>
        <time>2020-06-10T17:06:50Z</time>
      </trkpt>
      <trkpt lat="48.56819" lon="-3.27981">
        <ele>168.3</ele>
        <time>2020-06-10T17:06:51Z</time>
      </trkpt>
      <trkpt lat="48.56819" lon="-3.27975">
        <ele>168.5</ele>
        <time>2020-06-10T17:06:52Z</time>
      </trkpt>
      <trkpt lat="48.56819" lon="-3.27972">
        <ele>168.6</ele>
        <time>2020-06-10T17:06:53Z</time>
      </trkpt>
      <trkpt lat="48.56819" lon="-3.27971">
        <ele>168.7</ele>
        <time>2020-06-10T17:06:54Z</time>
      </trkpt>
      <trkpt lat="48.56818" lon="-3.27966">
        <ele>168.9</ele>
        <time>2020-06-10T17:06:55Z</time>
      </trkpt>
      <trkpt lat="48.56818" lon="-3.27958">
        <ele>169.2</ele>
        <time>2020-06-10T17:06:56Z</time>
      </trkpt>
      <trkpt lat="48.56819" lon="-3.27952">
        <ele>169.4</ele>
        <time>2020-06-10T17:06:57Z</time>
      </trkpt>
      <trkpt lat="48.56819" lon="-3.27947">
        <ele>169.6</ele>
        <time>2020-06-10T17:06:58Z</time>
      </trkpt>
      <trkpt lat="48.56819" lon="-3.27943">
        <ele>169.8</ele>
        <time>2020-06-10T17:06:59Z</time>
      </trkpt>
      <trkpt lat="48.56818" lon="-3.27937">
        <ele>170</ele>
        <time>2020-06-10T17:07:00Z</time>
      </trkpt>
      <trkpt lat="48.56818" lon="-3.2793">
        <ele>170.3</ele>
        <time>2020-06-10T17:07:01Z</time>
      </trkpt>
      <trkpt lat="48.56818" lon="-3.27927">
        <ele>170.4</ele>
        <time>2020-06-10T17:07:02Z</time>
      </trkpt>
      <trkpt lat="48.56819" lon="-3.27922">
        <ele>170.6</ele>
        <time>2020-06-10T17:07:03Z</time>
      </trkpt>
      <trkpt lat="48.5682" lon="-3.27917">
        <ele>170.8</ele>
        <time>2020-06-10T17:07:04Z</time>
      </trkpt>
      <trkpt lat="48.5682" lon="-3.27914">
        <ele>171</ele>
        <time>2020-06-10T17:07:05Z</time>
      </trkpt>
      <trkpt lat="48.56821" lon="-3.2791">
        <ele>171.2</ele>
        <time>2020-06-10T17:07:06Z</time>
      </trkpt>
      <trkpt lat="48.56821" lon="-3.27906">
        <ele>171.3</ele>
        <time>2020-06-10T17:07:07Z</time>
      </trkpt>
      <trkpt lat="48.56821" lon="-3.27899">
        <ele>171.6</ele>
        <time>2020-06-10T17:07:08Z</time>
      </trkpt>
      <trkpt lat="48.5682" lon="-3.27895">
        <ele>171.8</ele>
        <time>2020-06-10T17:07:09Z</time>
      </trkpt>
      <trkpt lat="48.56821" lon="-3.27889">
        <ele>172</ele>
        <time>2020-06-10T17:07:10Z</time>
      </trkpt>
      <trkpt lat="48.56821" lon="-3.27884">
        <ele>172.2</ele>
        <time>2020-06-10T17:07:11Z</time>
      </trkpt>
      <trkpt lat="48.56821" lon="-3.27879">
        <ele>172.4</ele>
        <time>2020-06-10T17:07:12Z</time>
      </trkpt>
      <trkpt lat="48.56821" lon="-3.27873">
        <ele>172.7</ele>
        <time>2020-06-10T17:07:13Z</time>
      </trkpt>
      <trkpt lat="48.56822" lon="-3.27867">
        <ele>172.9</ele>
        <time>2020-06-10T17:07:14Z</time>
      </trkpt>
      <trkpt lat="48.56822" lon="-3.27864">
        <ele>173</ele>
        <time>2020-06-10T17:07:15Z</time>
      </trkpt>
      <trkpt lat="48.56822" lon="-3.27858">
        <ele>173.3</ele>
        <time>2020-06-10T17:07:16Z</time>
      </trkpt>
      <trkpt lat="48.56822" lon="-3.27853">
        <ele>173.5</ele>
        <time>2020-06-10T17:07:17Z</time>
      </trkpt>
      <trkpt lat="48.56822" lon="-3.27848">
        <ele>173.7</ele>
        <time>2020-06-10T17:07:18Z</time>
      </trkpt>
      <trkpt lat="48.56821" lon="-3.27843">
        <ele>173.9</ele>
        <time>2020-06-10T17:07:19Z</time>
      </trkpt>
      <trkpt lat="48.56821" lon="-3.27838">
        <ele>174.1</ele>
        <time>2020-06-10T17:07:20Z</time>
      </trkpt>
      <trkpt lat="48.56821" lon="-3.27832">
        <ele>174.3</ele>
        <time>2020-06-10T17:07:21Z</time>
      </trkpt>
      <trkpt lat="48.56821" lon="-3.27826">
        <ele>174.5</ele>
        <time>2020-06-10T17:07:22Z</time>
      </trkpt>
      <trkpt lat="48.56821" lon="-3.27824">
        <ele>174.6</ele>
        <time>2020-06-10T17:07:23Z</time>
      </trkpt>
      <trkpt lat="48.56821" lon="-3.27818">
        <ele>174.8</ele>
        <time>2020-06-10T17:07:24Z</time>
      </trkpt>
      <trkpt lat="48.56821" lon="-3.27815">
        <ele>174.9</ele>
        <time>2020-06-10T17:07:25Z</time>
      </trkpt>
      <trkpt lat="48.56821" lon="-3.27811">
        <ele>175.1</ele>
        <time>2020-06-10T17:07:26Z</time>
      </trkpt>
      <trkpt lat="48.56822" lon="-3.27807">
        <ele>175.3</ele>
        <time>2020-06-10T17:07:27Z</time>
      </trkpt>
      <trkpt lat="48.56823" lon="-3.27801">
        <ele>175.6</ele>
        <time>2020-06-10T17:07:28Z</time>
      </trkpt>
      <trkpt lat="48.56824" lon="-3.27796">
        <ele>175.7</ele>
        <time>2020-06-10T17:07:29Z</time>
      </trkpt>
      <trkpt lat="48.56824" lon="-3.2779">
        <ele>176</ele>
        <time>2020-06-10T17:07:30Z</time>
      </trkpt>
      <trkpt lat="48.56824" lon="-3.27785">
        <ele>176.2</ele>
        <time>2020-06-10T17:07:31Z</time>
      </trkpt>
      <trkpt lat="48.56825" lon="-3.27781">
        <ele>176.4</ele>
        <time>2020-06-10T17:07:32Z</time>
      </trkpt>
      <trkpt lat="48.56826" lon="-3.27775">
        <ele>176.6</ele>
        <time>2020-06-10T17:07:33Z</time>
      </trkpt>
      <trkpt lat="48.56826" lon="-3.27773">
        <ele>176.7</ele>
        <time>2020-06-10T17:07:34Z</time>
      </trkpt>
      <trkpt lat="48.56827" lon="-3.27768">
        <ele>177</ele>
        <time>2020-06-10T17:07:35Z</time>
      </trkpt>
      <trkpt lat="48.56827" lon="-3.27763">
        <ele>177.2</ele>
        <time>2020-06-10T17:07:36Z</time>
      </trkpt>
      <trkpt lat="48.56828" lon="-3.27758">
        <ele>177.4</ele>
        <time>2020-06-10T17:07:37Z</time>
      </trkpt>
      <trkpt lat="48.56828" lon="-3.27753">
        <ele>177.6</ele>
        <time>2020-06-10T17:07:38Z</time>
      </trkpt>
      <trkpt lat="48.56827" lon="-3.27748">
        <ele>177.8</ele>
        <time>2020-06-10T17:07:39Z</time>
      </trkpt>
      <trkpt lat="48.56826" lon="-3.27743">
        <ele>178</ele>
        <time>2020-06-10T17:07:40Z</time>
      </trkpt>
      <trkpt lat="48.56825" lon="-3.27738">
        <ele>178.2</ele>
        <time>2020-06-10T17:07:41Z</time>
      </trkpt>
      <trkpt lat="48.56825" lon="-3.27736">
        <ele>178.3</ele>
        <time>2020-06-10T17:07:42Z</time>
      </trkpt>
      <trkpt lat="48.56826" lon="-3.27732">
        <ele>178.4</ele>
        <time>2020-06-10T17:07:43Z</time>
      </trkpt>
      <trkpt lat="48.56827" lon="-3.2773">
        <ele>178.5</ele>
        <time>2020-06-10T17:07:44Z</time>
      </trkpt>
      <trkpt lat="48.56828" lon="-3.27726">
        <ele>178.6</ele>
        <time>2020-06-10T17:07:45Z</time>
      </trkpt>
      <trkpt lat="48.56828" lon="-3.27719">
        <ele>178.9</ele>
        <time>2020-06-10T17:07:46Z</time>
      </trkpt>
      <trkpt lat="48.56828" lon="-3.27712">
        <ele>179.1</ele>
        <time>2020-06-10T17:07:47Z</time>
      </trkpt>
      <trkpt lat="48.56828" lon="-3.27707">
        <ele>179.3</ele>
        <time>2020-06-10T17:07:48Z</time>
      </trkpt>
      <trkpt lat="48.56829" lon="-3.27702">
        <ele>179.5</ele>
        <time>2020-06-10T17:07:49Z</time>
      </trkpt>
      <trkpt lat="48.56829" lon="-3.27698">
        <ele>179.6</ele>
        <time>2020-06-10T17:07:50Z</time>
      </trkpt>
      <trkpt lat="48.5683" lon="-3.27693">
        <ele>179.8</ele>
        <time>2020-06-10T17:07:51Z</time>
      </trkpt>
      <trkpt lat="48.5683" lon="-3.27688">
        <ele>179.9</ele>
        <time>2020-06-10T17:07:52Z</time>
      </trkpt>
      <trkpt lat="48.5683" lon="-3.27685">
        <ele>180</ele>
        <time>2020-06-10T17:07:53Z</time>
      </trkpt>
      <trkpt lat="48.5683" lon="-3.27679">
        <ele>180.1</ele>
        <time>2020-06-10T17:07:54Z</time>
      </trkpt>
      <trkpt lat="48.56829" lon="-3.27674">
        <ele>180.3</ele>
        <time>2020-06-10T17:07:55Z</time>
      </trkpt>
      <trkpt lat="48.56829" lon="-3.27672">
        <ele>180.4</ele>
        <time>2020-06-10T17:07:56Z</time>
      </trkpt>
      <trkpt lat="48.5683" lon="-3.27665">
        <ele>180.5</ele>
        <time>2020-06-10T17:07:57Z</time>
      </trkpt>
      <trkpt lat="48.5683" lon="-3.27662">
        <ele>180.6</ele>
        <time>2020-06-10T17:07:58Z</time>
      </trkpt>
      <trkpt lat="48.56831" lon="-3.27658">
        <ele>180.7</ele>
        <time>2020-06-10T17:07:59Z</time>
      </trkpt>
      <trkpt lat="48.56831" lon="-3.27651">
        <ele>180.9</ele>
        <time>2020-06-10T17:08:00Z</time>
      </trkpt>
      <trkpt lat="48.5683" lon="-3.27646">
        <ele>181</ele>
        <time>2020-06-10T17:08:01Z</time>
      </trkpt>
      <trkpt lat="48.56829" lon="-3.27645">
        <ele>181.1</ele>
        <time>2020-06-10T17:08:02Z</time>
      </trkpt>
      <trkpt lat="48.5683" lon="-3.27638">
        <ele>181.2</ele>
        <time>2020-06-10T17:08:03Z</time>
      </trkpt>
      <trkpt lat="48.5683" lon="-3.27633">
        <ele>181.4</ele>
        <time>2020-06-10T17:08:04Z</time>
      </trkpt>
      <trkpt lat="48.56829" lon="-3.27625">
        <ele>181.6</ele>
        <time>2020-06-10T17:08:05Z</time>
      </trkpt>
      <trkpt lat="48.56829" lon="-3.27621">
        <ele>181.7</ele>
        <time>2020-06-10T17:08:06Z</time>
      </trkpt>
      <trkpt lat="48.56829" lon="-3.27617">
        <ele>181.8</ele>
        <time>2020-06-10T17:08:07Z</time>
      </trkpt>
      <trkpt lat="48.56827" lon="-3.27616">
        <ele>181.8</ele>
        <time>2020-06-10T17:08:08Z</time>
      </trkpt>
      <trkpt lat="48.56827" lon="-3.27612">
        <ele>181.9</ele>
        <time>2020-06-10T17:08:09Z</time>
      </trkpt>
      <trkpt lat="48.56827" lon="-3.27606">
        <ele>182</ele>
        <time>2020-06-10T17:08:10Z</time>
      </trkpt>
      <trkpt lat="48.56827" lon="-3.27601">
        <ele>182.1</ele>
        <time>2020-06-10T17:08:11Z</time>
      </trkpt>
      <trkpt lat="48.56827" lon="-3.27596">
        <ele>182.2</ele>
        <time>2020-06-10T17:08:12Z</time>
      </trkpt>
      <trkpt lat="48.56827" lon="-3.2759">
        <ele>182.3</ele>
        <time>2020-06-10T17:08:13Z</time>
      </trkpt>
      <trkpt lat="48.56827" lon="-3.27583">
        <ele>182.4</ele>
        <time>2020-06-10T17:08:14Z</time>
      </trkpt>
      <trkpt lat="48.56827" lon="-3.27578">
        <ele>182.5</ele>
        <time>2020-06-10T17:08:15Z</time>
      </trkpt>
      <trkpt lat="48.56828" lon="-3.27571">
        <ele>182.6</ele>
        <time>2020-06-10T17:08:16Z</time>
      </trkpt>
      <trkpt lat="48.56828" lon="-3.27567">
        <ele>182.6</ele>
        <time>2020-06-10T17:08:17Z</time>
      </trkpt>
      <trkpt lat="48.56828" lon="-3.27562">
        <ele>182.7</ele>
        <time>2020-06-10T17:08:18Z</time>
      </trkpt>
      <trkpt lat="48.56829" lon="-3.27558">
        <ele>182.7</ele>
        <time>2020-06-10T17:08:19Z</time>
      </trkpt>
      <trkpt lat="48.56827" lon="-3.27553">
        <ele>182.8</ele>
        <time>2020-06-10T17:08:20Z</time>
      </trkpt>
      <trkpt lat="48.56827" lon="-3.27548">
        <ele>182.8</ele>
        <time>2020-06-10T17:08:21Z</time>
      </trkpt>
      <trkpt lat="48.56827" lon="-3.2754">
        <ele>182.9</ele>
        <time>2020-06-10T17:08:22Z</time>
      </trkpt>
      <trkpt lat="48.56827" lon="-3.27535">
        <ele>182.9</ele>
        <time>2020-06-10T17:08:23Z</time>
      </trkpt>
      <trkpt lat="48.56826" lon="-3.2753">
        <ele>182.9</ele>
        <time>2020-06-10T17:08:24Z</time>
      </trkpt>
      <trkpt lat="48.56827" lon="-3.27524">
        <ele>183</ele>
        <time>2020-06-10T17:08:25Z</time>
      </trkpt>
      <trkpt lat="48.56828" lon="-3.2752">
        <ele>183</ele>
        <time>2020-06-10T17:08:26Z</time>
      </trkpt>
      <trkpt lat="48.56829" lon="-3.27513">
        <ele>183</ele>
        <time>2020-06-10T17:08:27Z</time>
      </trkpt>
      <trkpt lat="48.56828" lon="-3.27505">
        <ele>183.1</ele>
        <time>2020-06-10T17:08:28Z</time>
      </trkpt>
      <trkpt lat="48.56828" lon="-3.27499">
        <ele>183.1</ele>
        <time>2020-06-10T17:08:29Z</time>
      </trkpt>
      <trkpt lat="48.56829" lon="-3.27493">
        <ele>183.1</ele>
        <time>2020-06-10T17:08:30Z</time>
      </trkpt>
      <trkpt lat="48.56829" lon="-3.27487">
        <ele>183.2</ele>
        <time>2020-06-10T17:08:31Z</time>
      </trkpt>
      <trkpt lat="48.56831" lon="-3.2748">
        <ele>183.2</ele>
        <time>2020-06-10T17:08:32Z</time>
      </trkpt>
      <trkpt lat="48.56831" lon="-3.27474">
        <ele>183.2</ele>
        <time>2020-06-10T17:08:33Z</time>
      </trkpt>
      <trkpt lat="48.56831" lon="-3.27468">
        <ele>183.2</ele>
        <time>2020-06-10T17:08:34Z</time>
      </trkpt>
      <trkpt lat="48.56831" lon="-3.27461">
        <ele>183.3</ele>
        <time>2020-06-10T17:08:35Z</time>
      </trkpt>
      <trkpt lat="48.56831" lon="-3.27455">
        <ele>183.3</ele>
        <time>2020-06-10T17:08:36Z</time>
      </trkpt>
      <trkpt lat="48.56831" lon="-3.27449">
        <ele>183.3</ele>
        <time>2020-06-10T17:08:37Z</time>
      </trkpt>
      <trkpt lat="48.56832" lon="-3.27444">
        <ele>183.3</ele>
        <time>2020-06-10T17:08:38Z</time>
      </trkpt>
      <trkpt lat="48.56832" lon="-3.2744">
        <ele>183.3</ele>
        <time>2020-06-10T17:08:39Z</time>
      </trkpt>
      <trkpt lat="48.56833" lon="-3.27435">
        <ele>183.3</ele>
        <time>2020-06-10T17:08:40Z</time>
      </trkpt>
      <trkpt lat="48.56833" lon="-3.27429">
        <ele>183.3</ele>
        <time>2020-06-10T17:08:41Z</time>
      </trkpt>
      <trkpt lat="48.56834" lon="-3.27422">
        <ele>183.3</ele>
        <time>2020-06-10T17:08:42Z</time>
      </trkpt>
      <trkpt lat="48.56833" lon="-3.27417">
        <ele>183.2</ele>
        <time>2020-06-10T17:08:43Z</time>
      </trkpt>
      <trkpt lat="48.56833" lon="-3.27412">
        <ele>183.2</ele>
        <time>2020-06-10T17:08:44Z</time>
      </trkpt>
      <trkpt lat="48.56833" lon="-3.27408">
        <ele>183.2</ele>
        <time>2020-06-10T17:08:45Z</time>
      </trkpt>
      <trkpt lat="48.56833" lon="-3.27402">
        <ele>183.2</ele>
        <time>2020-06-10T17:08:46Z</time>
      </trkpt>
      <trkpt lat="48.56832" lon="-3.27397">
        <ele>183.2</ele>
        <time>2020-06-10T17:08:47Z</time>
      </trkpt>
      <trkpt lat="48.56832" lon="-3.2739">
        <ele>183.2</ele>
        <time>2020-06-10T17:08:48Z</time>
      </trkpt>
      <trkpt lat="48.56832" lon="-3.27388">
        <ele>183.2</ele>
        <time>2020-06-10T17:08:49Z</time>
      </trkpt>
      <trkpt lat="48.56832" lon="-3.27384">
        <ele>183.1</ele>
        <time>2020-06-10T17:08:50Z</time>
      </trkpt>
      <trkpt lat="48.56831" lon="-3.27379">
        <ele>183.1</ele>
        <time>2020-06-10T17:08:51Z</time>
      </trkpt>
      <trkpt lat="48.56831" lon="-3.27378">
        <ele>183.1</ele>
        <time>2020-06-10T17:08:52Z</time>
      </trkpt>
      <trkpt lat="48.56833" lon="-3.27372">
        <ele>183.1</ele>
        <time>2020-06-10T17:08:53Z</time>
      </trkpt>
      <trkpt lat="48.56833" lon="-3.27367">
        <ele>183</ele>
        <time>2020-06-10T17:08:54Z</time>
      </trkpt>
      <trkpt lat="48.56833" lon="-3.27365">
        <ele>183</ele>
        <time>2020-06-10T17:08:55Z</time>
      </trkpt>
      <trkpt lat="48.56833" lon="-3.2736">
        <ele>183</ele>
        <time>2020-06-10T17:08:56Z</time>
      </trkpt>
      <trkpt lat="48.56833" lon="-3.27358">
        <ele>183</ele>
        <time>2020-06-10T17:08:57Z</time>
      </trkpt>
      <trkpt lat="48.56833" lon="-3.27353">
        <ele>183</ele>
        <time>2020-06-10T17:08:58Z</time>
      </trkpt>
      <trkpt lat="48.56833" lon="-3.27349">
        <ele>183</ele>
        <time>2020-06-10T17:08:59Z</time>
      </trkpt>
      <trkpt lat="48.56833" lon="-3.27345">
        <ele>183</ele>
        <time>2020-06-10T17:09:00Z</time>
      </trkpt>
      <trkpt lat="48.56832" lon="-3.27343">
        <ele>182.9</ele>
        <time>2020-06-10T17:09:01Z</time>
      </trkpt>
      <trkpt lat="48.56832" lon="-3.27343">
        <ele>182.9</ele>
        <time>2020-06-10T17:09:02Z</time>
      </trkpt>
      <trkpt lat="48.56832" lon="-3.27343">
        <ele>182.9</ele>
        <time>2020-06-10T17:09:03Z</time>
      </trkpt>
      <trkpt lat="48.56832" lon="-3.27342">
        <ele>182.9</ele>
        <time>2020-06-10T17:09:04Z</time>
      </trkpt>
      <trkpt lat="48.56832" lon="-3.27342">
        <ele>182.9</ele>
        <time>2020-06-10T17:09:05Z</time>
      </trkpt>
      <trkpt lat="48.56832" lon="-3.27341">
        <ele>182.9</ele>
        <time>2020-06-10T17:09:06Z</time>
      </trkpt>
      <trkpt lat="48.56832" lon="-3.27341">
        <ele>182.9</ele>
        <time>2020-06-10T17:09:07Z</time>
      </trkpt>
      <trkpt lat="48.56832" lon="-3.27341">
        <ele>182.9</ele>
        <time>2020-06-10T17:09:08Z</time>
      </trkpt>
      <trkpt lat="48.56832" lon="-3.2734">
        <ele>182.9</ele>
        <time>2020-06-10T17:09:09Z</time>
      </trkpt>
      <trkpt lat="48.56833" lon="-3.2734">
        <ele>182.9</ele>
        <time>2020-06-10T17:09:10Z</time>
      </trkpt>
      <trkpt lat="48.56833" lon="-3.27339">
        <ele>182.9</ele>
        <time>2020-06-10T17:09:11Z</time>
      </trkpt>
      <trkpt lat="48.56833" lon="-3.27339">
        <ele>182.9</ele>
        <time>2020-06-10T17:09:12Z</time>
      </trkpt>
      <trkpt lat="48.56833" lon="-3.27338">
        <ele>182.9</ele>
        <time>2020-06-10T17:09:13Z</time>
      </trkpt>
      <trkpt lat="48.56833" lon="-3.27338">
        <ele>182.9</ele>
        <time>2020-06-10T17:09:14Z</time>
      </trkpt>
      <trkpt lat="48.56833" lon="-3.27338">
        <ele>182.9</ele>
        <time>2020-06-10T17:09:15Z</time>
      </trkpt>
      <trkpt lat="48.56833" lon="-3.27337">
        <ele>182.9</ele>
        <time>2020-06-10T17:09:16Z</time>
      </trkpt>
      <trkpt lat="48.56833" lon="-3.27337">
        <ele>182.9</ele>
        <time>2020-06-10T17:09:17Z</time>
      </trkpt>
      <trkpt lat="48.56833" lon="-3.27336">
        <ele>182.9</ele>
        <time>2020-06-10T17:09:18Z</time>
      </trkpt>
      <trkpt lat="48.56833" lon="-3.27336">
        <ele>182.9</ele>
        <time>2020-06-10T17:09:19Z</time>
      </trkpt>
      <trkpt lat="48.56833" lon="-3.27335">
        <ele>182.9</ele>
        <time>2020-06-10T17:09:20Z</time>
      </trkpt>
      <trkpt lat="48.56833" lon="-3.27335">
        <ele>182.9</ele>
        <time>2020-06-10T17:09:21Z</time>
      </trkpt>
      <trkpt lat="48.56833" lon="-3.27334">
        <ele>182.9</ele>
        <time>2020-06-10T17:10:08Z</time>
      </trkpt>
      <trkpt lat="48.56833" lon="-3.27334">
        <ele>182.9</ele>
        <time>2020-06-10T17:10:09Z</time>
      </trkpt>
      <trkpt lat="48.56834" lon="-3.2733">
        <ele>182.9</ele>
        <time>2020-06-10T17:10:10Z</time>
      </trkpt>
      <trkpt lat="48.56834" lon="-3.27324">
        <ele>182.8</ele>
        <time>2020-06-10T17:10:11Z</time>
      </trkpt>
      <trkpt lat="48.56835" lon="-3.27318">
        <ele>182.8</ele>
        <time>2020-06-10T17:10:12Z</time>
      </trkpt>
      <trkpt lat="48.56834" lon="-3.27312">
        <ele>182.7</ele>
        <time>2020-06-10T17:10:13Z</time>
      </trkpt>
      <trkpt lat="48.56834" lon="-3.27309">
        <ele>182.7</ele>
        <time>2020-06-10T17:10:14Z</time>
      </trkpt>
      <trkpt lat="48.56835" lon="-3.27304">
        <ele>182.6</ele>
        <time>2020-06-10T17:10:15Z</time>
      </trkpt>
      <trkpt lat="48.56835" lon="-3.27302">
        <ele>182.6</ele>
        <time>2020-06-10T17:10:16Z</time>
      </trkpt>
      <trkpt lat="48.56835" lon="-3.27298">
        <ele>182.6</ele>
        <time>2020-06-10T17:10:17Z</time>
      </trkpt>
      <trkpt lat="48.56836" lon="-3.27293">
        <ele>182.5</ele>
        <time>2020-06-10T17:10:18Z</time>
      </trkpt>
      <trkpt lat="48.56836" lon="-3.27289">
        <ele>182.5</ele>
        <time>2020-06-10T17:10:19Z</time>
      </trkpt>
      <trkpt lat="48.56836" lon="-3.27284">
        <ele>182.4</ele>
        <time>2020-06-10T17:10:20Z</time>
      </trkpt>
      <trkpt lat="48.56836" lon="-3.27278">
        <ele>182.4</ele>
        <time>2020-06-10T17:10:21Z</time>
      </trkpt>
      <trkpt lat="48.56836" lon="-3.27273">
        <ele>182.3</ele>
        <time>2020-06-10T17:10:22Z</time>
      </trkpt>
      <trkpt lat="48.56835" lon="-3.27267">
        <ele>182.2</ele>
        <time>2020-06-10T17:10:23Z</time>
      </trkpt>
      <trkpt lat="48.56836" lon="-3.27265">
        <ele>182.2</ele>
        <time>2020-06-10T17:10:24Z</time>
      </trkpt>
      <trkpt lat="48.56835" lon="-3.27263">
        <ele>182.1</ele>
        <time>2020-06-10T17:10:25Z</time>
      </trkpt>
      <trkpt lat="48.56835" lon="-3.27263">
        <ele>182.1</ele>
        <time>2020-06-10T17:10:26Z</time>
      </trkpt>
      <trkpt lat="48.56835" lon="-3.27264">
        <ele>182.1</ele>
        <time>2020-06-10T17:10:27Z</time>
      </trkpt>
      <trkpt lat="48.56835" lon="-3.27266">
        <ele>182.1</ele>
        <time>2020-06-10T17:10:28Z</time>
      </trkpt>
      <trkpt lat="48.56835" lon="-3.27266">
        <ele>182.1</ele>
        <time>2020-06-10T17:10:29Z</time>
      </trkpt>
      <trkpt lat="48.56834" lon="-3.27265">
        <ele>182.1</ele>
        <time>2020-06-10T17:10:30Z</time>
      </trkpt>
      <trkpt lat="48.56834" lon="-3.27266">
        <ele>182</ele>
        <time>2020-06-10T17:10:31Z</time>
      </trkpt>
      <trkpt lat="48.56834" lon="-3.27266">
        <ele>182</ele>
        <time>2020-06-10T17:10:32Z</time>
      </trkpt>
      <trkpt lat="48.56834" lon="-3.27266">
        <ele>182</ele>
        <time>2020-06-10T17:10:33Z</time>
      </trkpt>
      <trkpt lat="48.56834" lon="-3.27266">
        <ele>182</ele>
        <time>2020-06-10T17:10:34Z</time>
      </trkpt>
      <trkpt lat="48.56834" lon="-3.27266">
        <ele>182</ele>
        <time>2020-06-10T17:10:35Z</time>
      </trkpt>
      <trkpt lat="48.56834" lon="-3.27265">
        <ele>182</ele>
        <time>2020-06-10T17:10:36Z</time>
      </trkpt>
      <trkpt lat="48.56834" lon="-3.27265">
        <ele>182</ele>
        <time>2020-06-10T17:10:37Z</time>
      </trkpt>
      <trkpt lat="48.56834" lon="-3.27266">
        <ele>182</ele>
        <time>2020-06-10T17:10:38Z</time>
      </trkpt>
      <trkpt lat="48.56837" lon="-3.27251">
        <ele>181.8</ele>
        <time>2020-06-10T17:11:56Z</time>
      </trkpt>
      <trkpt lat="48.56836" lon="-3.27247">
        <ele>181.7</ele>
        <time>2020-06-10T17:11:57Z</time>
      </trkpt>
      <trkpt lat="48.56836" lon="-3.27242">
        <ele>181.6</ele>
        <time>2020-06-10T17:11:58Z</time>
      </trkpt>
      <trkpt lat="48.56836" lon="-3.27236">
        <ele>181.5</ele>
        <time>2020-06-10T17:11:59Z</time>
      </trkpt>
      <trkpt lat="48.56836" lon="-3.27229">
        <ele>181.4</ele>
        <time>2020-06-10T17:12:00Z</time>
      </trkpt>
      <trkpt lat="48.56836" lon="-3.27222">
        <ele>181.2</ele>
        <time>2020-06-10T17:12:01Z</time>
      </trkpt>
      <trkpt lat="48.56836" lon="-3.27216">
        <ele>181.1</ele>
        <time>2020-06-10T17:12:02Z</time>
      </trkpt>
      <trkpt lat="48.56837" lon="-3.27209">
        <ele>181</ele>
        <time>2020-06-10T17:12:03Z</time>
      </trkpt>
      <trkpt lat="48.56836" lon="-3.27202">
        <ele>180.9</ele>
        <time>2020-06-10T17:12:04Z</time>
      </trkpt>
      <trkpt lat="48.56837" lon="-3.27194">
        <ele>180.7</ele>
        <time>2020-06-10T17:12:05Z</time>
      </trkpt>
      <trkpt lat="48.56837" lon="-3.27186">
        <ele>180.6</ele>
        <time>2020-06-10T17:12:06Z</time>
      </trkpt>
      <trkpt lat="48.56836" lon="-3.27178">
        <ele>180.4</ele>
        <time>2020-06-10T17:12:07Z</time>
      </trkpt>
      <trkpt lat="48.56836" lon="-3.2717">
        <ele>180.2</ele>
        <time>2020-06-10T17:12:08Z</time>
      </trkpt>
      <trkpt lat="48.56837" lon="-3.27163">
        <ele>180.1</ele>
        <time>2020-06-10T17:12:09Z</time>
      </trkpt>
      <trkpt lat="48.56837" lon="-3.27155">
        <ele>179.9</ele>
        <time>2020-06-10T17:12:10Z</time>
      </trkpt>
      <trkpt lat="48.56837" lon="-3.27145">
        <ele>179.7</ele>
        <time>2020-06-10T17:12:11Z</time>
      </trkpt>
      <trkpt lat="48.56837" lon="-3.27136">
        <ele>179.5</ele>
        <time>2020-06-10T17:12:12Z</time>
      </trkpt>
      <trkpt lat="48.56838" lon="-3.27127">
        <ele>179.4</ele>
        <time>2020-06-10T17:12:13Z</time>
      </trkpt>
      <trkpt lat="48.56838" lon="-3.27117">
        <ele>179.1</ele>
        <time>2020-06-10T17:12:14Z</time>
      </trkpt>
      <trkpt lat="48.56839" lon="-3.27108">
        <ele>178.9</ele>
        <time>2020-06-10T17:12:15Z</time>
      </trkpt>
      <trkpt lat="48.56838" lon="-3.27099">
        <ele>178.7</ele>
        <time>2020-06-10T17:12:16Z</time>
      </trkpt>
      <trkpt lat="48.56839" lon="-3.27091">
        <ele>178.5</ele>
        <time>2020-06-10T17:12:17Z</time>
      </trkpt>
      <trkpt lat="48.56838" lon="-3.27081">
        <ele>178.2</ele>
        <time>2020-06-10T17:12:18Z</time>
      </trkpt>
      <trkpt lat="48.56839" lon="-3.27072">
        <ele>178</ele>
        <time>2020-06-10T17:12:19Z</time>
      </trkpt>
      <trkpt lat="48.56839" lon="-3.27059">
        <ele>177.7</ele>
        <time>2020-06-10T17:12:20Z</time>
      </trkpt>
      <trkpt lat="48.56839" lon="-3.27049">
        <ele>177.3</ele>
        <time>2020-06-10T17:12:21Z</time>
      </trkpt>
      <trkpt lat="48.56839" lon="-3.27039">
        <ele>177</ele>
        <time>2020-06-10T17:12:22Z</time>
      </trkpt>
      <trkpt lat="48.56839" lon="-3.27029">
        <ele>176.7</ele>
        <time>2020-06-10T17:12:23Z</time>
      </trkpt>
      <trkpt lat="48.56839" lon="-3.27019">
        <ele>176.4</ele>
        <time>2020-06-10T17:12:24Z</time>
      </trkpt>
      <trkpt lat="48.56839" lon="-3.27008">
        <ele>176.1</ele>
        <time>2020-06-10T17:12:25Z</time>
      </trkpt>
      <trkpt lat="48.56839" lon="-3.26999">
        <ele>175.8</ele>
        <time>2020-06-10T17:12:26Z</time>
      </trkpt>
      <trkpt lat="48.56838" lon="-3.2699">
        <ele>175.5</ele>
        <time>2020-06-10T17:12:27Z</time>
      </trkpt>
      <trkpt lat="48.56838" lon="-3.2698">
        <ele>175.2</ele>
        <time>2020-06-10T17:12:28Z</time>
      </trkpt>
      <trkpt lat="48.56838" lon="-3.2697">
        <ele>174.9</ele>
        <time>2020-06-10T17:12:29Z</time>
      </trkpt>
      <trkpt lat="48.56838" lon="-3.26959">
        <ele>174.5</ele>
        <time>2020-06-10T17:12:30Z</time>
      </trkpt>
      <trkpt lat="48.56838" lon="-3.26948">
        <ele>174.2</ele>
        <time>2020-06-10T17:12:31Z</time>
      </trkpt>
      <trkpt lat="48.56839" lon="-3.26936">
        <ele>173.8</ele>
        <time>2020-06-10T17:12:32Z</time>
      </trkpt>
      <trkpt lat="48.56839" lon="-3.26924">
        <ele>173.4</ele>
        <time>2020-06-10T17:12:33Z</time>
      </trkpt>
      <trkpt lat="48.56839" lon="-3.26912">
        <ele>173</ele>
        <time>2020-06-10T17:12:34Z</time>
      </trkpt>
      <trkpt lat="48.56839" lon="-3.26899">
        <ele>172.7</ele>
        <time>2020-06-10T17:12:35Z</time>
      </trkpt>
      <trkpt lat="48.56839" lon="-3.26886">
        <ele>172.3</ele>
        <time>2020-06-10T17:12:36Z</time>
      </trkpt>
      <trkpt lat="48.56839" lon="-3.26872">
        <ele>171.9</ele>
        <time>2020-06-10T17:12:37Z</time>
      </trkpt>
      <trkpt lat="48.5684" lon="-3.26859">
        <ele>171.6</ele>
        <time>2020-06-10T17:12:38Z</time>
      </trkpt>
      <trkpt lat="48.5684" lon="-3.26845">
        <ele>171.3</ele>
        <time>2020-06-10T17:12:39Z</time>
      </trkpt>
      <trkpt lat="48.5684" lon="-3.26831">
        <ele>171</ele>
        <time>2020-06-10T17:12:40Z</time>
      </trkpt>
      <trkpt lat="48.56841" lon="-3.26817">
        <ele>170.6</ele>
        <time>2020-06-10T17:12:41Z</time>
      </trkpt>
      <trkpt lat="48.56841" lon="-3.26802">
        <ele>170.3</ele>
        <time>2020-06-10T17:12:42Z</time>
      </trkpt>
      <trkpt lat="48.56841" lon="-3.26788">
        <ele>170</ele>
        <time>2020-06-10T17:12:43Z</time>
      </trkpt>
      <trkpt lat="48.56841" lon="-3.26773">
        <ele>169.6</ele>
        <time>2020-06-10T17:12:44Z</time>
      </trkpt>
      <trkpt lat="48.56841" lon="-3.26758">
        <ele>169.3</ele>
        <time>2020-06-10T17:12:45Z</time>
      </trkpt>
      <trkpt lat="48.56842" lon="-3.26744">
        <ele>168.8</ele>
        <time>2020-06-10T17:12:46Z</time>
      </trkpt>
      <trkpt lat="48.56842" lon="-3.26729">
        <ele>168.4</ele>
        <time>2020-06-10T17:12:47Z</time>
      </trkpt>
      <trkpt lat="48.56842" lon="-3.26714">
        <ele>168</ele>
        <time>2020-06-10T17:12:48Z</time>
      </trkpt>
      <trkpt lat="48.56842" lon="-3.267">
        <ele>167.5</ele>
        <time>2020-06-10T17:12:49Z</time>
      </trkpt>
      <trkpt lat="48.56842" lon="-3.26685">
        <ele>167</ele>
        <time>2020-06-10T17:12:50Z</time>
      </trkpt>
      <trkpt lat="48.56842" lon="-3.26671">
        <ele>166.5</ele>
        <time>2020-06-10T17:12:51Z</time>
      </trkpt>
      <trkpt lat="48.56841" lon="-3.26658">
        <ele>166</ele>
        <time>2020-06-10T17:12:52Z</time>
      </trkpt>
      <trkpt lat="48.56841" lon="-3.26645">
        <ele>165.5</ele>
        <time>2020-06-10T17:12:53Z</time>
      </trkpt>
      <trkpt lat="48.56841" lon="-3.26632">
        <ele>165.1</ele>
        <time>2020-06-10T17:12:54Z</time>
      </trkpt>
      <trkpt lat="48.56841" lon="-3.26618">
        <ele>165</ele>
        <time>2020-06-10T17:12:55Z</time>
      </trkpt>
      <trkpt lat="48.56841" lon="-3.26605">
        <ele>164.7</ele>
        <time>2020-06-10T17:12:56Z</time>
      </trkpt>
      <trkpt lat="48.56841" lon="-3.26591">
        <ele>164.2</ele>
        <time>2020-06-10T17:12:57Z</time>
      </trkpt>
      <trkpt lat="48.56842" lon="-3.26577">
        <ele>163.7</ele>
        <time>2020-06-10T17:12:58Z</time>
      </trkpt>
      <trkpt lat="48.56842" lon="-3.26563">
        <ele>163.1</ele>
        <time>2020-06-10T17:12:59Z</time>
      </trkpt>
      <trkpt lat="48.56842" lon="-3.26549">
        <ele>162.7</ele>
        <time>2020-06-10T17:13:00Z</time>
      </trkpt>
      <trkpt lat="48.56843" lon="-3.26536">
        <ele>162.3</ele>
        <time>2020-06-10T17:13:01Z</time>
      </trkpt>
      <trkpt lat="48.56843" lon="-3.26522">
        <ele>161.9</ele>
        <time>2020-06-10T17:13:02Z</time>
      </trkpt>
      <trkpt lat="48.56843" lon="-3.26508">
        <ele>161.5</ele>
        <time>2020-06-10T17:13:03Z</time>
      </trkpt>
      <trkpt lat="48.56843" lon="-3.26494">
        <ele>161</ele>
        <time>2020-06-10T17:13:04Z</time>
      </trkpt>
      <trkpt lat="48.56842" lon="-3.26481">
        <ele>160.7</ele>
        <time>2020-06-10T17:13:05Z</time>
      </trkpt>
      <trkpt lat="48.56843" lon="-3.26467">
        <ele>160.3</ele>
        <time>2020-06-10T17:13:06Z</time>
      </trkpt>
      <trkpt lat="48.56842" lon="-3.26454">
        <ele>159.8</ele>
        <time>2020-06-10T17:13:07Z</time>
      </trkpt>
      <trkpt lat="48.56841" lon="-3.26441">
        <ele>159.4</ele>
        <time>2020-06-10T17:13:08Z</time>
      </trkpt>
      <trkpt lat="48.56841" lon="-3.26428">
        <ele>159</ele>
        <time>2020-06-10T17:13:09Z</time>
      </trkpt>
      <trkpt lat="48.56841" lon="-3.26415">
        <ele>158.6</ele>
        <time>2020-06-10T17:13:10Z</time>
      </trkpt>
      <trkpt lat="48.5684" lon="-3.26402">
        <ele>158.2</ele>
        <time>2020-06-10T17:13:11Z</time>
      </trkpt>
      <trkpt lat="48.5684" lon="-3.26389">
        <ele>157.8</ele>
        <time>2020-06-10T17:13:12Z</time>
      </trkpt>
      <trkpt lat="48.5684" lon="-3.26377">
        <ele>157.5</ele>
        <time>2020-06-10T17:13:13Z</time>
      </trkpt>
      <trkpt lat="48.56839" lon="-3.26364">
        <ele>157.1</ele>
        <time>2020-06-10T17:13:14Z</time>
      </trkpt>
      <trkpt lat="48.5684" lon="-3.26351">
        <ele>156.6</ele>
        <time>2020-06-10T17:13:15Z</time>
      </trkpt>
      <trkpt lat="48.56839" lon="-3.26338">
        <ele>156.1</ele>
        <time>2020-06-10T17:13:16Z</time>
      </trkpt>
      <trkpt lat="48.5684" lon="-3.26325">
        <ele>155.5</ele>
        <time>2020-06-10T17:13:17Z</time>
      </trkpt>
      <trkpt lat="48.5684" lon="-3.26312">
        <ele>155</ele>
        <time>2020-06-10T17:13:18Z</time>
      </trkpt>
      <trkpt lat="48.5684" lon="-3.26299">
        <ele>154.4</ele>
        <time>2020-06-10T17:13:19Z</time>
      </trkpt>
      <trkpt lat="48.56841" lon="-3.26286">
        <ele>154</ele>
        <time>2020-06-10T17:13:20Z</time>
      </trkpt>
      <trkpt lat="48.56842" lon="-3.26271">
        <ele>153.5</ele>
        <time>2020-06-10T17:13:21Z</time>
      </trkpt>
      <trkpt lat="48.56842" lon="-3.26257">
        <ele>153.1</ele>
        <time>2020-06-10T17:13:22Z</time>
      </trkpt>
      <trkpt lat="48.56842" lon="-3.26242">
        <ele>152.7</ele>
        <time>2020-06-10T17:13:23Z</time>
      </trkpt>
      <trkpt lat="48.56842" lon="-3.26227">
        <ele>152.3</ele>
        <time>2020-06-10T17:13:24Z</time>
      </trkpt>
      <trkpt lat="48.56842" lon="-3.26212">
        <ele>152</ele>
        <time>2020-06-10T17:13:25Z</time>
      </trkpt>
      <trkpt lat="48.56842" lon="-3.26197">
        <ele>151.8</ele>
        <time>2020-06-10T17:13:26Z</time>
      </trkpt>
      <trkpt lat="48.56842" lon="-3.26182">
        <ele>151.6</ele>
        <time>2020-06-10T17:13:27Z</time>
      </trkpt>
      <trkpt lat="48.56842" lon="-3.26167">
        <ele>151.5</ele>
        <time>2020-06-10T17:13:28Z</time>
      </trkpt>
      <trkpt lat="48.56842" lon="-3.26153">
        <ele>151.4</ele>
        <time>2020-06-10T17:13:29Z</time>
      </trkpt>
      <trkpt lat="48.56843" lon="-3.26139">
        <ele>151.3</ele>
        <time>2020-06-10T17:13:30Z</time>
      </trkpt>
      <trkpt lat="48.56841" lon="-3.26125">
        <ele>151.3</ele>
        <time>2020-06-10T17:13:31Z</time>
      </trkpt>
      <trkpt lat="48.56841" lon="-3.26111">
        <ele>151.4</ele>
        <time>2020-06-10T17:13:32Z</time>
      </trkpt>
      <trkpt lat="48.56841" lon="-3.26098">
        <ele>151.6</ele>
        <time>2020-06-10T17:13:33Z</time>
      </trkpt>
      <trkpt lat="48.5684" lon="-3.26085">
        <ele>151.8</ele>
        <time>2020-06-10T17:13:34Z</time>
      </trkpt>
      <trkpt lat="48.5684" lon="-3.26071">
        <ele>152</ele>
        <time>2020-06-10T17:13:35Z</time>
      </trkpt>
      <trkpt lat="48.56839" lon="-3.26058">
        <ele>152.2</ele>
        <time>2020-06-10T17:13:36Z</time>
      </trkpt>
      <trkpt lat="48.5684" lon="-3.26044">
        <ele>152.4</ele>
        <time>2020-06-10T17:13:37Z</time>
      </trkpt>
      <trkpt lat="48.56839" lon="-3.26031">
        <ele>152.7</ele>
        <time>2020-06-10T17:13:38Z</time>
      </trkpt>
      <trkpt lat="48.56839" lon="-3.26019">
        <ele>153.1</ele>
        <time>2020-06-10T17:13:39Z</time>
      </trkpt>
      <trkpt lat="48.56839" lon="-3.26006">
        <ele>153.4</ele>
        <time>2020-06-10T17:13:40Z</time>
      </trkpt>
      <trkpt lat="48.5684" lon="-3.25995">
        <ele>153.8</ele>
        <time>2020-06-10T17:13:41Z</time>
      </trkpt>
      <trkpt lat="48.5684" lon="-3.25984">
        <ele>154.2</ele>
        <time>2020-06-10T17:13:42Z</time>
      </trkpt>
      <trkpt lat="48.5684" lon="-3.25973">
        <ele>154.6</ele>
        <time>2020-06-10T17:13:43Z</time>
      </trkpt>
      <trkpt lat="48.5684" lon="-3.25962">
        <ele>155</ele>
        <time>2020-06-10T17:13:44Z</time>
      </trkpt>
      <trkpt lat="48.56841" lon="-3.25952">
        <ele>155.4</ele>
        <time>2020-06-10T17:13:45Z</time>
      </trkpt>
      <trkpt lat="48.56841" lon="-3.25942">
        <ele>155.8</ele>
        <time>2020-06-10T17:13:46Z</time>
      </trkpt>
      <trkpt lat="48.56841" lon="-3.25933">
        <ele>156.2</ele>
        <time>2020-06-10T17:13:47Z</time>
      </trkpt>
      <trkpt lat="48.56841" lon="-3.25923">
        <ele>156.5</ele>
        <time>2020-06-10T17:13:48Z</time>
      </trkpt>
      <trkpt lat="48.5684" lon="-3.25914">
        <ele>156.9</ele>
        <time>2020-06-10T17:13:49Z</time>
      </trkpt>
      <trkpt lat="48.5684" lon="-3.25906">
        <ele>157.2</ele>
        <time>2020-06-10T17:13:50Z</time>
      </trkpt>
      <trkpt lat="48.5684" lon="-3.25897">
        <ele>157.5</ele>
        <time>2020-06-10T17:13:51Z</time>
      </trkpt>
      <trkpt lat="48.56841" lon="-3.25888">
        <ele>157.8</ele>
        <time>2020-06-10T17:13:52Z</time>
      </trkpt>
      <trkpt lat="48.56841" lon="-3.2588">
        <ele>158.1</ele>
        <time>2020-06-10T17:13:53Z</time>
      </trkpt>
      <trkpt lat="48.5684" lon="-3.25871">
        <ele>158.4</ele>
        <time>2020-06-10T17:13:54Z</time>
      </trkpt>
      <trkpt lat="48.5684" lon="-3.25863">
        <ele>158.7</ele>
        <time>2020-06-10T17:13:55Z</time>
      </trkpt>
      <trkpt lat="48.56841" lon="-3.25855">
        <ele>159</ele>
        <time>2020-06-10T17:13:56Z</time>
      </trkpt>
      <trkpt lat="48.5684" lon="-3.25847">
        <ele>159.2</ele>
        <time>2020-06-10T17:13:57Z</time>
      </trkpt>
      <trkpt lat="48.5684" lon="-3.25839">
        <ele>159.5</ele>
        <time>2020-06-10T17:13:58Z</time>
      </trkpt>
      <trkpt lat="48.5684" lon="-3.25832">
        <ele>159.7</ele>
        <time>2020-06-10T17:13:59Z</time>
      </trkpt>
      <trkpt lat="48.5684" lon="-3.25825">
        <ele>159.9</ele>
        <time>2020-06-10T17:14:00Z</time>
      </trkpt>
      <trkpt lat="48.56839" lon="-3.25816">
        <ele>160.1</ele>
        <time>2020-06-10T17:14:01Z</time>
      </trkpt>
      <trkpt lat="48.56839" lon="-3.25808">
        <ele>160.3</ele>
        <time>2020-06-10T17:14:02Z</time>
      </trkpt>
      <trkpt lat="48.56839" lon="-3.258">
        <ele>160.4</ele>
        <time>2020-06-10T17:14:03Z</time>
      </trkpt>
      <trkpt lat="48.56839" lon="-3.25793">
        <ele>160.5</ele>
        <time>2020-06-10T17:14:04Z</time>
      </trkpt>
      <trkpt lat="48.56838" lon="-3.25786">
        <ele>160.6</ele>
        <time>2020-06-10T17:14:05Z</time>
      </trkpt>
      <trkpt lat="48.56839" lon="-3.2578">
        <ele>160.6</ele>
        <time>2020-06-10T17:14:06Z</time>
      </trkpt>
      <trkpt lat="48.56839" lon="-3.25773">
        <ele>160.7</ele>
        <time>2020-06-10T17:14:07Z</time>
      </trkpt>
      <trkpt lat="48.56839" lon="-3.25767">
        <ele>160.8</ele>
        <time>2020-06-10T17:14:08Z</time>
      </trkpt>
      <trkpt lat="48.56839" lon="-3.25758">
        <ele>160.8</ele>
        <time>2020-06-10T17:14:09Z</time>
      </trkpt>
      <trkpt lat="48.56839" lon="-3.2575">
        <ele>160.9</ele>
        <time>2020-06-10T17:14:10Z</time>
      </trkpt>
      <trkpt lat="48.56839" lon="-3.25744">
        <ele>160.9</ele>
        <time>2020-06-10T17:14:11Z</time>
      </trkpt>
      <trkpt lat="48.56839" lon="-3.25738">
        <ele>161</ele>
        <time>2020-06-10T17:14:12Z</time>
      </trkpt>
      <trkpt lat="48.56839" lon="-3.25733">
        <ele>161</ele>
        <time>2020-06-10T17:14:13Z</time>
      </trkpt>
      <trkpt lat="48.5684" lon="-3.25727">
        <ele>161</ele>
        <time>2020-06-10T17:14:14Z</time>
      </trkpt>
      <trkpt lat="48.5684" lon="-3.25721">
        <ele>161.1</ele>
        <time>2020-06-10T17:14:15Z</time>
      </trkpt>
      <trkpt lat="48.56839" lon="-3.25711">
        <ele>161.1</ele>
        <time>2020-06-10T17:14:16Z</time>
      </trkpt>
      <trkpt lat="48.56839" lon="-3.25706">
        <ele>161.2</ele>
        <time>2020-06-10T17:14:17Z</time>
      </trkpt>
      <trkpt lat="48.56839" lon="-3.25701">
        <ele>161.2</ele>
        <time>2020-06-10T17:14:18Z</time>
      </trkpt>
      <trkpt lat="48.56839" lon="-3.257">
        <ele>161.2</ele>
        <time>2020-06-10T17:14:19Z</time>
      </trkpt>
      <trkpt lat="48.56838" lon="-3.257">
        <ele>161.2</ele>
        <time>2020-06-10T17:14:20Z</time>
      </trkpt>
      <trkpt lat="48.56837" lon="-3.257">
        <ele>161.2</ele>
        <time>2020-06-10T17:14:21Z</time>
      </trkpt>
      <trkpt lat="48.56837" lon="-3.25701">
        <ele>161.2</ele>
        <time>2020-06-10T17:14:22Z</time>
      </trkpt>
      <trkpt lat="48.56837" lon="-3.25701">
        <ele>161.2</ele>
        <time>2020-06-10T17:14:23Z</time>
      </trkpt>
      <trkpt lat="48.56837" lon="-3.25699">
        <ele>161.2</ele>
        <time>2020-06-10T17:14:24Z</time>
      </trkpt>
      <trkpt lat="48.56836" lon="-3.257">
        <ele>161.2</ele>
        <time>2020-06-10T17:14:25Z</time>
      </trkpt>
      <trkpt lat="48.56836" lon="-3.25701">
        <ele>161.2</ele>
        <time>2020-06-10T17:14:26Z</time>
      </trkpt>
      <trkpt lat="48.56836" lon="-3.25702">
        <ele>161.2</ele>
        <time>2020-06-10T17:14:27Z</time>
      </trkpt>
      <trkpt lat="48.56836" lon="-3.25703">
        <ele>161.2</ele>
        <time>2020-06-10T17:14:28Z</time>
      </trkpt>
      <trkpt lat="48.56836" lon="-3.25704">
        <ele>161.3</ele>
        <time>2020-06-10T17:14:29Z</time>
      </trkpt>
      <trkpt lat="48.56837" lon="-3.25704">
        <ele>161.3</ele>
        <time>2020-06-10T17:14:30Z</time>
      </trkpt>
      <trkpt lat="48.56837" lon="-3.25703">
        <ele>161.3</ele>
        <time>2020-06-10T17:14:31Z</time>
      </trkpt>
      <trkpt lat="48.56837" lon="-3.25703">
        <ele>161.3</ele>
        <time>2020-06-10T17:14:32Z</time>
      </trkpt>
      <trkpt lat="48.56837" lon="-3.25703">
        <ele>161.3</ele>
        <time>2020-06-10T17:14:33Z</time>
      </trkpt>
      <trkpt lat="48.56837" lon="-3.25703">
        <ele>161.3</ele>
        <time>2020-06-10T17:14:34Z</time>
      </trkpt>
      <trkpt lat="48.56838" lon="-3.25703">
        <ele>161.3</ele>
        <time>2020-06-10T17:14:35Z</time>
      </trkpt>
      <trkpt lat="48.56838" lon="-3.25703">
        <ele>161.3</ele>
        <time>2020-06-10T17:14:36Z</time>
      </trkpt>
      <trkpt lat="48.56839" lon="-3.257">
        <ele>161.3</ele>
        <time>2020-06-10T17:15:22Z</time>
      </trkpt>
      <trkpt lat="48.5684" lon="-3.25701">
        <ele>161.3</ele>
        <time>2020-06-10T17:15:23Z</time>
      </trkpt>
      <trkpt lat="48.5684" lon="-3.25702">
        <ele>161.3</ele>
        <time>2020-06-10T17:15:24Z</time>
      </trkpt>
      <trkpt lat="48.5684" lon="-3.25702">
        <ele>161.3</ele>
        <time>2020-06-10T17:15:25Z</time>
      </trkpt>
      <trkpt lat="48.5684" lon="-3.25702">
        <ele>161.3</ele>
        <time>2020-06-10T17:15:26Z</time>
      </trkpt>
      <trkpt lat="48.5684" lon="-3.25702">
        <ele>161.3</ele>
        <time>2020-06-10T17:15:27Z</time>
      </trkpt>
      <trkpt lat="48.5684" lon="-3.25702">
        <ele>161.3</ele>
        <time>2020-06-10T17:15:28Z</time>
      </trkpt>
      <trkpt lat="48.5684" lon="-3.25702">
        <ele>161.3</ele>
        <time>2020-06-10T17:15:29Z</time>
      </trkpt>
      <trkpt lat="48.5684" lon="-3.25702">
        <ele>161.3</ele>
        <time>2020-06-10T17:15:30Z</time>
      </trkpt>
      <trkpt lat="48.56839" lon="-3.25701">
        <ele>161.3</ele>
        <time>2020-06-10T17:15:31Z</time>
      </trkpt>
      <trkpt lat="48.56839" lon="-3.25701">
        <ele>161.3</ele>
        <time>2020-06-10T17:15:32Z</time>
      </trkpt>
      <trkpt lat="48.56839" lon="-3.25701">
        <ele>161.3</ele>
        <time>2020-06-10T17:15:33Z</time>
      </trkpt>
      <trkpt lat="48.56846" lon="-3.25704">
        <ele>161.4</ele>
        <time>2020-06-10T17:23:58Z</time>
      </trkpt>
      <trkpt lat="48.56847" lon="-3.25705">
        <ele>161.4</ele>
        <time>2020-06-10T17:23:59Z</time>
      </trkpt>
      <trkpt lat="48.56848" lon="-3.25705">
        <ele>161.4</ele>
        <time>2020-06-10T17:24:00Z</time>
      </trkpt>
      <trkpt lat="48.5685" lon="-3.25706">
        <ele>161.4</ele>
        <time>2020-06-10T17:24:01Z</time>
      </trkpt>
      <trkpt lat="48.56851" lon="-3.25706">
        <ele>161.4</ele>
        <time>2020-06-10T17:24:02Z</time>
      </trkpt>
      <trkpt lat="48.56852" lon="-3.25707">
        <ele>161.4</ele>
        <time>2020-06-10T17:24:03Z</time>
      </trkpt>
      <trkpt lat="48.56855" lon="-3.25708">
        <ele>161.5</ele>
        <time>2020-06-10T17:24:04Z</time>
      </trkpt>
      <trkpt lat="48.56857" lon="-3.25709">
        <ele>161.5</ele>
        <time>2020-06-10T17:24:05Z</time>
      </trkpt>
      <trkpt lat="48.56856" lon="-3.25708">
        <ele>161.5</ele>
        <time>2020-06-10T17:24:06Z</time>
      </trkpt>
      <trkpt lat="48.56855" lon="-3.25706">
        <ele>161.5</ele>
        <time>2020-06-10T17:24:07Z</time>
      </trkpt>
      <trkpt lat="48.56853" lon="-3.25704">
        <ele>161.5</ele>
        <time>2020-06-10T17:24:08Z</time>
      </trkpt>
      <trkpt lat="48.56853" lon="-3.25704">
        <ele>161.5</ele>
        <time>2020-06-10T17:24:09Z</time>
      </trkpt>
      <trkpt lat="48.56853" lon="-3.25703">
        <ele>161.5</ele>
        <time>2020-06-10T17:24:10Z</time>
      </trkpt>
      <trkpt lat="48.56853" lon="-3.25703">
        <ele>161.5</ele>
        <time>2020-06-10T17:24:11Z</time>
      </trkpt>
      <trkpt lat="48.56852" lon="-3.25702">
        <ele>161.5</ele>
        <time>2020-06-10T17:24:12Z</time>
      </trkpt>
      <trkpt lat="48.56852" lon="-3.25702">
        <ele>161.5</ele>
        <time>2020-06-10T17:24:13Z</time>
      </trkpt>
      <trkpt lat="48.56852" lon="-3.25702">
        <ele>161.5</ele>
        <time>2020-06-10T17:24:14Z</time>
      </trkpt>
      <trkpt lat="48.56852" lon="-3.25701">
        <ele>161.5</ele>
        <time>2020-06-10T17:24:15Z</time>
      </trkpt>
      <trkpt lat="48.56852" lon="-3.25701">
        <ele>161.5</ele>
        <time>2020-06-10T17:24:16Z</time>
      </trkpt>
      <trkpt lat="48.56852" lon="-3.25701">
        <ele>161.5</ele>
        <time>2020-06-10T17:24:17Z</time>
      </trkpt>
      <trkpt lat="48.56852" lon="-3.257">
        <ele>161.5</ele>
        <time>2020-06-10T17:24:18Z</time>
      </trkpt>
      <trkpt lat="48.56852" lon="-3.257">
        <ele>161.5</ele>
        <time>2020-06-10T17:24:19Z</time>
      </trkpt>
      <trkpt lat="48.56852" lon="-3.25699">
        <ele>161.5</ele>
        <time>2020-06-10T17:24:20Z</time>
      </trkpt>
      <trkpt lat="48.56852" lon="-3.25699">
        <ele>161.5</ele>
        <time>2020-06-10T17:24:21Z</time>
      </trkpt>
      <trkpt lat="48.56852" lon="-3.25699">
        <ele>161.5</ele>
        <time>2020-06-10T17:24:22Z</time>
      </trkpt>
      <trkpt lat="48.56854" lon="-3.25698">
        <ele>161.6</ele>
        <time>2020-06-10T17:24:23Z</time>
      </trkpt>
      <trkpt lat="48.56854" lon="-3.25698">
        <ele>161.6</ele>
        <time>2020-06-10T17:24:24Z</time>
      </trkpt>
      <trkpt lat="48.56855" lon="-3.25697">
        <ele>161.6</ele>
        <time>2020-06-10T17:24:25Z</time>
      </trkpt>
      <trkpt lat="48.56855" lon="-3.25697">
        <ele>161.6</ele>
        <time>2020-06-10T17:24:26Z</time>
      </trkpt>
      <trkpt lat="48.56856" lon="-3.25697">
        <ele>161.6</ele>
        <time>2020-06-10T17:24:27Z</time>
      </trkpt>
      <trkpt lat="48.56855" lon="-3.25697">
        <ele>161.6</ele>
        <time>2020-06-10T17:24:28Z</time>
      </trkpt>
      <trkpt lat="48.56855" lon="-3.25698">
        <ele>161.6</ele>
        <time>2020-06-10T17:24:29Z</time>
      </trkpt>
      <trkpt lat="48.56855" lon="-3.25697">
        <ele>161.6</ele>
        <time>2020-06-10T17:24:30Z</time>
      </trkpt>
      <trkpt lat="48.56854" lon="-3.25698">
        <ele>161.6</ele>
        <time>2020-06-10T17:24:31Z</time>
      </trkpt>
      <trkpt lat="48.56854" lon="-3.25698">
        <ele>161.6</ele>
        <time>2020-06-10T17:24:32Z</time>
      </trkpt>
      <trkpt lat="48.56853" lon="-3.25698">
        <ele>161.6</ele>
        <time>2020-06-10T17:24:33Z</time>
      </trkpt>
      <trkpt lat="48.56853" lon="-3.25697">
        <ele>161.6</ele>
        <time>2020-06-10T17:24:34Z</time>
      </trkpt>
      <trkpt lat="48.56853" lon="-3.25695">
        <ele>161.6</ele>
        <time>2020-06-10T17:24:36Z</time>
      </trkpt>
      <trkpt lat="48.56853" lon="-3.25695">
        <ele>161.6</ele>
        <time>2020-06-10T17:24:37Z</time>
      </trkpt>
      <trkpt lat="48.56853" lon="-3.25693">
        <ele>161.6</ele>
        <time>2020-06-10T17:24:38Z</time>
      </trkpt>
      <trkpt lat="48.56853" lon="-3.25692">
        <ele>161.6</ele>
        <time>2020-06-10T17:24:39Z</time>
      </trkpt>
      <trkpt lat="48.56853" lon="-3.25693">
        <ele>161.7</ele>
        <time>2020-06-10T17:24:40Z</time>
      </trkpt>
      <trkpt lat="48.56853" lon="-3.25696">
        <ele>161.7</ele>
        <time>2020-06-10T17:24:41Z</time>
      </trkpt>
      <trkpt lat="48.56851" lon="-3.25697">
        <ele>161.7</ele>
        <time>2020-06-10T17:24:42Z</time>
      </trkpt>
      <trkpt lat="48.56851" lon="-3.25697">
        <ele>161.7</ele>
        <time>2020-06-10T17:24:43Z</time>
      </trkpt>
      <trkpt lat="48.56847" lon="-3.25696">
        <ele>161.7</ele>
        <time>2020-06-10T17:24:44Z</time>
      </trkpt>
      <trkpt lat="48.56847" lon="-3.25696">
        <ele>161.7</ele>
        <time>2020-06-10T17:24:45Z</time>
      </trkpt>
      <trkpt lat="48.56847" lon="-3.25696">
        <ele>161.7</ele>
        <time>2020-06-10T17:24:46Z</time>
      </trkpt>
      <trkpt lat="48.56847" lon="-3.25696">
        <ele>161.7</ele>
        <time>2020-06-10T17:24:47Z</time>
      </trkpt>
      <trkpt lat="48.56847" lon="-3.25696">
        <ele>161.7</ele>
        <time>2020-06-10T17:24:48Z</time>
      </trkpt>
      <trkpt lat="48.56847" lon="-3.25696">
        <ele>161.7</ele>
        <time>2020-06-10T17:24:49Z</time>
      </trkpt>
      <trkpt lat="48.56847" lon="-3.25696">
        <ele>161.7</ele>
        <time>2020-06-10T17:24:50Z</time>
      </trkpt>
      <trkpt lat="48.56847" lon="-3.25696">
        <ele>161.7</ele>
        <time>2020-06-10T17:24:51Z</time>
      </trkpt>
      <trkpt lat="48.56847" lon="-3.25696">
        <ele>161.7</ele>
        <time>2020-06-10T17:24:52Z</time>
      </trkpt>
      <trkpt lat="48.56847" lon="-3.25696">
        <ele>161.7</ele>
        <time>2020-06-10T17:24:53Z</time>
      </trkpt>
      <trkpt lat="48.56847" lon="-3.25696">
        <ele>161.7</ele>
        <time>2020-06-10T17:24:54Z</time>
      </trkpt>
      <trkpt lat="48.56848" lon="-3.25696">
        <ele>161.7</ele>
        <time>2020-06-10T17:24:55Z</time>
      </trkpt>
      <trkpt lat="48.56848" lon="-3.25697">
        <ele>161.7</ele>
        <time>2020-06-10T17:24:56Z</time>
      </trkpt>
      <trkpt lat="48.56847" lon="-3.25695">
        <ele>161.7</ele>
        <time>2020-06-10T17:24:57Z</time>
      </trkpt>
      <trkpt lat="48.56846" lon="-3.25694">
        <ele>161.7</ele>
        <time>2020-06-10T17:24:58Z</time>
      </trkpt>
      <trkpt lat="48.56845" lon="-3.25693">
        <ele>161.7</ele>
        <time>2020-06-10T17:24:59Z</time>
      </trkpt>
      <trkpt lat="48.56844" lon="-3.25693">
        <ele>161.7</ele>
        <time>2020-06-10T17:25:00Z</time>
      </trkpt>
      <trkpt lat="48.56844" lon="-3.25692">
        <ele>161.7</ele>
        <time>2020-06-10T17:25:01Z</time>
      </trkpt>
      <trkpt lat="48.56843" lon="-3.25691">
        <ele>161.7</ele>
        <time>2020-06-10T17:25:02Z</time>
      </trkpt>
      <trkpt lat="48.56843" lon="-3.2569">
        <ele>161.8</ele>
        <time>2020-06-10T17:25:03Z</time>
      </trkpt>
      <trkpt lat="48.56842" lon="-3.25689">
        <ele>161.8</ele>
        <time>2020-06-10T17:25:04Z</time>
      </trkpt>
      <trkpt lat="48.56842" lon="-3.25689">
        <ele>161.8</ele>
        <time>2020-06-10T17:25:05Z</time>
      </trkpt>
      <trkpt lat="48.56841" lon="-3.25688">
        <ele>161.8</ele>
        <time>2020-06-10T17:25:06Z</time>
      </trkpt>
      <trkpt lat="48.56841" lon="-3.25687">
        <ele>161.8</ele>
        <time>2020-06-10T17:31:49Z</time>
      </trkpt>
      <trkpt lat="48.56841" lon="-3.25686">
        <ele>161.8</ele>
        <time>2020-06-10T17:31:50Z</time>
      </trkpt>
      <trkpt lat="48.5684" lon="-3.25682">
        <ele>161.8</ele>
        <time>2020-06-10T17:31:51Z</time>
      </trkpt>
      <trkpt lat="48.56839" lon="-3.25674">
        <ele>161.8</ele>
        <time>2020-06-10T17:31:52Z</time>
      </trkpt>
      <trkpt lat="48.56838" lon="-3.25669">
        <ele>161.8</ele>
        <time>2020-06-10T17:31:53Z</time>
      </trkpt>
      <trkpt lat="48.56838" lon="-3.25662">
        <ele>161.7</ele>
        <time>2020-06-10T17:31:54Z</time>
      </trkpt>
      <trkpt lat="48.56838" lon="-3.25656">
        <ele>161.7</ele>
        <time>2020-06-10T17:31:55Z</time>
      </trkpt>
      <trkpt lat="48.56837" lon="-3.25651">
        <ele>161.7</ele>
        <time>2020-06-10T17:31:56Z</time>
      </trkpt>
      <trkpt lat="48.56838" lon="-3.25644">
        <ele>161.6</ele>
        <time>2020-06-10T17:31:57Z</time>
      </trkpt>
      <trkpt lat="48.56838" lon="-3.25636">
        <ele>161.5</ele>
        <time>2020-06-10T17:31:58Z</time>
      </trkpt>
      <trkpt lat="48.56838" lon="-3.25629">
        <ele>161.4</ele>
        <time>2020-06-10T17:31:59Z</time>
      </trkpt>
      <trkpt lat="48.56838" lon="-3.25623">
        <ele>161.3</ele>
        <time>2020-06-10T17:32:00Z</time>
      </trkpt>
      <trkpt lat="48.56838" lon="-3.25617">
        <ele>161.2</ele>
        <time>2020-06-10T17:32:01Z</time>
      </trkpt>
      <trkpt lat="48.56838" lon="-3.25611">
        <ele>161.1</ele>
        <time>2020-06-10T17:32:02Z</time>
      </trkpt>
      <trkpt lat="48.56838" lon="-3.25604">
        <ele>160.9</ele>
        <time>2020-06-10T17:32:03Z</time>
      </trkpt>
      <trkpt lat="48.56839" lon="-3.25598">
        <ele>160.8</ele>
        <time>2020-06-10T17:32:04Z</time>
      </trkpt>
      <trkpt lat="48.56839" lon="-3.25591">
        <ele>160.6</ele>
        <time>2020-06-10T17:32:05Z</time>
      </trkpt>
      <trkpt lat="48.56839" lon="-3.25583">
        <ele>160.5</ele>
        <time>2020-06-10T17:32:06Z</time>
      </trkpt>
      <trkpt lat="48.56839" lon="-3.25575">
        <ele>160.3</ele>
        <time>2020-06-10T17:32:07Z</time>
      </trkpt>
      <trkpt lat="48.56838" lon="-3.25567">
        <ele>160.1</ele>
        <time>2020-06-10T17:32:08Z</time>
      </trkpt>
      <trkpt lat="48.56839" lon="-3.25558">
        <ele>159.9</ele>
        <time>2020-06-10T17:32:09Z</time>
      </trkpt>
      <trkpt lat="48.56838" lon="-3.2555">
        <ele>159.6</ele>
        <time>2020-06-10T17:32:10Z</time>
      </trkpt>
      <trkpt lat="48.56838" lon="-3.25541">
        <ele>159.4</ele>
        <time>2020-06-10T17:32:11Z</time>
      </trkpt>
      <trkpt lat="48.56838" lon="-3.25532">
        <ele>159.1</ele>
        <time>2020-06-10T17:32:12Z</time>
      </trkpt>
      <trkpt lat="48.56838" lon="-3.25522">
        <ele>158.8</ele>
        <time>2020-06-10T17:32:13Z</time>
      </trkpt>
      <trkpt lat="48.56837" lon="-3.25512">
        <ele>158.4</ele>
        <time>2020-06-10T17:32:14Z</time>
      </trkpt>
      <trkpt lat="48.56837" lon="-3.25502">
        <ele>158.1</ele>
        <time>2020-06-10T17:32:15Z</time>
      </trkpt>
      <trkpt lat="48.56837" lon="-3.25492">
        <ele>157.8</ele>
        <time>2020-06-10T17:32:16Z</time>
      </trkpt>
      <trkpt lat="48.56837" lon="-3.25482">
        <ele>157.4</ele>
        <time>2020-06-10T17:32:17Z</time>
      </trkpt>
      <trkpt lat="48.56838" lon="-3.25471">
        <ele>157</ele>
        <time>2020-06-10T17:32:18Z</time>
      </trkpt>
      <trkpt lat="48.56838" lon="-3.25461">
        <ele>156.6</ele>
        <time>2020-06-10T17:32:19Z</time>
      </trkpt>
      <trkpt lat="48.56838" lon="-3.2545">
        <ele>156.2</ele>
        <time>2020-06-10T17:32:20Z</time>
      </trkpt>
      <trkpt lat="48.56838" lon="-3.25438">
        <ele>155.7</ele>
        <time>2020-06-10T17:32:21Z</time>
      </trkpt>
      <trkpt lat="48.56838" lon="-3.25426">
        <ele>155.2</ele>
        <time>2020-06-10T17:32:22Z</time>
      </trkpt>
      <trkpt lat="48.56838" lon="-3.25414">
        <ele>154.6</ele>
        <time>2020-06-10T17:32:23Z</time>
      </trkpt>
      <trkpt lat="48.56837" lon="-3.25401">
        <ele>154</ele>
        <time>2020-06-10T17:32:24Z</time>
      </trkpt>
      <trkpt lat="48.56837" lon="-3.25388">
        <ele>153.4</ele>
        <time>2020-06-10T17:32:25Z</time>
      </trkpt>
      <trkpt lat="48.56837" lon="-3.25374">
        <ele>152.8</ele>
        <time>2020-06-10T17:32:26Z</time>
      </trkpt>
      <trkpt lat="48.56837" lon="-3.2536">
        <ele>152.2</ele>
        <time>2020-06-10T17:32:27Z</time>
      </trkpt>
      <trkpt lat="48.56838" lon="-3.25346">
        <ele>151.7</ele>
        <time>2020-06-10T17:32:28Z</time>
      </trkpt>
      <trkpt lat="48.56838" lon="-3.25331">
        <ele>151.2</ele>
        <time>2020-06-10T17:32:29Z</time>
      </trkpt>
      <trkpt lat="48.56838" lon="-3.25316">
        <ele>150.9</ele>
        <time>2020-06-10T17:32:30Z</time>
      </trkpt>
      <trkpt lat="48.56838" lon="-3.25302">
        <ele>150.5</ele>
        <time>2020-06-10T17:32:31Z</time>
      </trkpt>
      <trkpt lat="48.56838" lon="-3.25287">
        <ele>150.7</ele>
        <time>2020-06-10T17:32:32Z</time>
      </trkpt>
      <trkpt lat="48.56838" lon="-3.25273">
        <ele>151.4</ele>
        <time>2020-06-10T17:32:33Z</time>
      </trkpt>
      <trkpt lat="48.56838" lon="-3.2526">
        <ele>151.8</ele>
        <time>2020-06-10T17:32:34Z</time>
      </trkpt>
      <trkpt lat="48.56838" lon="-3.25247">
        <ele>152</ele>
        <time>2020-06-10T17:32:35Z</time>
      </trkpt>
      <trkpt lat="48.56838" lon="-3.25234">
        <ele>152.2</ele>
        <time>2020-06-10T17:32:36Z</time>
      </trkpt>
      <trkpt lat="48.56838" lon="-3.25223">
        <ele>152.5</ele>
        <time>2020-06-10T17:32:37Z</time>
      </trkpt>
      <trkpt lat="48.56838" lon="-3.25211">
        <ele>152.8</ele>
        <time>2020-06-10T17:32:38Z</time>
      </trkpt>
      <trkpt lat="48.56838" lon="-3.25201">
        <ele>153.1</ele>
        <time>2020-06-10T17:32:39Z</time>
      </trkpt>
      <trkpt lat="48.56837" lon="-3.25191">
        <ele>153.4</ele>
        <time>2020-06-10T17:32:40Z</time>
      </trkpt>
      <trkpt lat="48.56837" lon="-3.25181">
        <ele>153.8</ele>
        <time>2020-06-10T17:32:41Z</time>
      </trkpt>
      <trkpt lat="48.56836" lon="-3.25172">
        <ele>154.1</ele>
        <time>2020-06-10T17:32:42Z</time>
      </trkpt>
      <trkpt lat="48.56836" lon="-3.25163">
        <ele>154.5</ele>
        <time>2020-06-10T17:32:43Z</time>
      </trkpt>
      <trkpt lat="48.56835" lon="-3.25155">
        <ele>154.8</ele>
        <time>2020-06-10T17:32:44Z</time>
      </trkpt>
      <trkpt lat="48.56834" lon="-3.25147">
        <ele>155.1</ele>
        <time>2020-06-10T17:32:45Z</time>
      </trkpt>
      <trkpt lat="48.56834" lon="-3.2514">
        <ele>155.4</ele>
        <time>2020-06-10T17:32:46Z</time>
      </trkpt>
      <trkpt lat="48.56833" lon="-3.25132">
        <ele>155.7</ele>
        <time>2020-06-10T17:32:47Z</time>
      </trkpt>
      <trkpt lat="48.56833" lon="-3.25125">
        <ele>156</ele>
        <time>2020-06-10T17:32:48Z</time>
      </trkpt>
      <trkpt lat="48.56833" lon="-3.25118">
        <ele>156.2</ele>
        <time>2020-06-10T17:32:49Z</time>
      </trkpt>
      <trkpt lat="48.56833" lon="-3.25111">
        <ele>156.5</ele>
        <time>2020-06-10T17:32:50Z</time>
      </trkpt>
      <trkpt lat="48.56832" lon="-3.25104">
        <ele>156.7</ele>
        <time>2020-06-10T17:32:51Z</time>
      </trkpt>
      <trkpt lat="48.56832" lon="-3.25097">
        <ele>156.9</ele>
        <time>2020-06-10T17:32:52Z</time>
      </trkpt>
      <trkpt lat="48.56831" lon="-3.25091">
        <ele>157.1</ele>
        <time>2020-06-10T17:32:53Z</time>
      </trkpt>
      <trkpt lat="48.56831" lon="-3.25084">
        <ele>157.3</ele>
        <time>2020-06-10T17:32:54Z</time>
      </trkpt>
      <trkpt lat="48.56831" lon="-3.25077">
        <ele>157.5</ele>
        <time>2020-06-10T17:32:55Z</time>
      </trkpt>
      <trkpt lat="48.5683" lon="-3.25071">
        <ele>157.7</ele>
        <time>2020-06-10T17:32:56Z</time>
      </trkpt>
      <trkpt lat="48.5683" lon="-3.25064">
        <ele>157.8</ele>
        <time>2020-06-10T17:32:57Z</time>
      </trkpt>
      <trkpt lat="48.56829" lon="-3.25057">
        <ele>158</ele>
        <time>2020-06-10T17:32:58Z</time>
      </trkpt>
      <trkpt lat="48.56828" lon="-3.25051">
        <ele>158.2</ele>
        <time>2020-06-10T17:32:59Z</time>
      </trkpt>
      <trkpt lat="48.56828" lon="-3.25043">
        <ele>158.3</ele>
        <time>2020-06-10T17:33:00Z</time>
      </trkpt>
      <trkpt lat="48.56827" lon="-3.25036">
        <ele>158.5</ele>
        <time>2020-06-10T17:33:01Z</time>
      </trkpt>
      <trkpt lat="48.56827" lon="-3.25029">
        <ele>158.6</ele>
        <time>2020-06-10T17:33:02Z</time>
      </trkpt>
      <trkpt lat="48.56827" lon="-3.25023">
        <ele>158.7</ele>
        <time>2020-06-10T17:33:03Z</time>
      </trkpt>
      <trkpt lat="48.56827" lon="-3.25015">
        <ele>158.9</ele>
        <time>2020-06-10T17:33:04Z</time>
      </trkpt>
      <trkpt lat="48.56826" lon="-3.25008">
        <ele>159</ele>
        <time>2020-06-10T17:33:05Z</time>
      </trkpt>
      <trkpt lat="48.56825" lon="-3.25001">
        <ele>159.1</ele>
        <time>2020-06-10T17:33:06Z</time>
      </trkpt>
      <trkpt lat="48.56825" lon="-3.24996">
        <ele>159.2</ele>
        <time>2020-06-10T17:33:07Z</time>
      </trkpt>
      <trkpt lat="48.56825" lon="-3.24989">
        <ele>159.3</ele>
        <time>2020-06-10T17:33:08Z</time>
      </trkpt>
      <trkpt lat="48.56824" lon="-3.24983">
        <ele>159.5</ele>
        <time>2020-06-10T17:33:09Z</time>
      </trkpt>
      <trkpt lat="48.56824" lon="-3.24977">
        <ele>159.6</ele>
        <time>2020-06-10T17:33:10Z</time>
      </trkpt>
      <trkpt lat="48.56824" lon="-3.24969">
        <ele>159.7</ele>
        <time>2020-06-10T17:33:11Z</time>
      </trkpt>
      <trkpt lat="48.56824" lon="-3.24961">
        <ele>159.8</ele>
        <time>2020-06-10T17:33:12Z</time>
      </trkpt>
      <trkpt lat="48.56823" lon="-3.24954">
        <ele>159.9</ele>
        <time>2020-06-10T17:33:13Z</time>
      </trkpt>
      <trkpt lat="48.56823" lon="-3.24947">
        <ele>160</ele>
        <time>2020-06-10T17:33:14Z</time>
      </trkpt>
      <trkpt lat="48.56823" lon="-3.2494">
        <ele>160.1</ele>
        <time>2020-06-10T17:33:15Z</time>
      </trkpt>
      <trkpt lat="48.56823" lon="-3.24933">
        <ele>160.2</ele>
        <time>2020-06-10T17:33:16Z</time>
      </trkpt>
      <trkpt lat="48.56822" lon="-3.24926">
        <ele>160.2</ele>
        <time>2020-06-10T17:33:17Z</time>
      </trkpt>
      <trkpt lat="48.56822" lon="-3.24918">
        <ele>160.3</ele>
        <time>2020-06-10T17:33:18Z</time>
      </trkpt>
      <trkpt lat="48.56822" lon="-3.24912">
        <ele>160.4</ele>
        <time>2020-06-10T17:33:19Z</time>
      </trkpt>
      <trkpt lat="48.56823" lon="-3.24905">
        <ele>160.4</ele>
        <time>2020-06-10T17:33:20Z</time>
      </trkpt>
      <trkpt lat="48.56822" lon="-3.24899">
        <ele>160.5</ele>
        <time>2020-06-10T17:33:21Z</time>
      </trkpt>
      <trkpt lat="48.56822" lon="-3.24894">
        <ele>160.5</ele>
        <time>2020-06-10T17:33:22Z</time>
      </trkpt>
      <trkpt lat="48.56822" lon="-3.24889">
        <ele>160.5</ele>
        <time>2020-06-10T17:33:23Z</time>
      </trkpt>
      <trkpt lat="48.56822" lon="-3.24882">
        <ele>160.6</ele>
        <time>2020-06-10T17:33:24Z</time>
      </trkpt>
      <trkpt lat="48.56822" lon="-3.24875">
        <ele>160.6</ele>
        <time>2020-06-10T17:33:25Z</time>
      </trkpt>
      <trkpt lat="48.56821" lon="-3.24869">
        <ele>160.6</ele>
        <time>2020-06-10T17:33:26Z</time>
      </trkpt>
      <trkpt lat="48.56821" lon="-3.24863">
        <ele>160.7</ele>
        <time>2020-06-10T17:33:27Z</time>
      </trkpt>
      <trkpt lat="48.56821" lon="-3.24857">
        <ele>160.7</ele>
        <time>2020-06-10T17:33:28Z</time>
      </trkpt>
      <trkpt lat="48.5682" lon="-3.24851">
        <ele>160.7</ele>
        <time>2020-06-10T17:33:29Z</time>
      </trkpt>
      <trkpt lat="48.5682" lon="-3.24843">
        <ele>160.7</ele>
        <time>2020-06-10T17:33:30Z</time>
      </trkpt>
      <trkpt lat="48.5682" lon="-3.24836">
        <ele>160.7</ele>
        <time>2020-06-10T17:33:31Z</time>
      </trkpt>
      <trkpt lat="48.56819" lon="-3.24829">
        <ele>160.7</ele>
        <time>2020-06-10T17:33:32Z</time>
      </trkpt>
      <trkpt lat="48.56819" lon="-3.24822">
        <ele>160.7</ele>
        <time>2020-06-10T17:33:33Z</time>
      </trkpt>
      <trkpt lat="48.56818" lon="-3.24815">
        <ele>160.7</ele>
        <time>2020-06-10T17:33:34Z</time>
      </trkpt>
      <trkpt lat="48.56818" lon="-3.24807">
        <ele>160.8</ele>
        <time>2020-06-10T17:33:35Z</time>
      </trkpt>
      <trkpt lat="48.56818" lon="-3.248">
        <ele>160.8</ele>
        <time>2020-06-10T17:33:36Z</time>
      </trkpt>
      <trkpt lat="48.56818" lon="-3.24793">
        <ele>160.8</ele>
        <time>2020-06-10T17:33:37Z</time>
      </trkpt>
      <trkpt lat="48.56818" lon="-3.24786">
        <ele>160.8</ele>
        <time>2020-06-10T17:33:38Z</time>
      </trkpt>
      <trkpt lat="48.56818" lon="-3.24778">
        <ele>160.9</ele>
        <time>2020-06-10T17:33:39Z</time>
      </trkpt>
      <trkpt lat="48.56817" lon="-3.24769">
        <ele>161</ele>
        <time>2020-06-10T17:33:40Z</time>
      </trkpt>
      <trkpt lat="48.56817" lon="-3.24761">
        <ele>161</ele>
        <time>2020-06-10T17:33:41Z</time>
      </trkpt>
      <trkpt lat="48.56817" lon="-3.24756">
        <ele>161.1</ele>
        <time>2020-06-10T17:33:42Z</time>
      </trkpt>
      <trkpt lat="48.56817" lon="-3.2475">
        <ele>161.2</ele>
        <time>2020-06-10T17:33:43Z</time>
      </trkpt>
      <trkpt lat="48.56816" lon="-3.24743">
        <ele>161.3</ele>
        <time>2020-06-10T17:33:44Z</time>
      </trkpt>
      <trkpt lat="48.56816" lon="-3.24737">
        <ele>161.4</ele>
        <time>2020-06-10T17:33:45Z</time>
      </trkpt>
      <trkpt lat="48.56816" lon="-3.24731">
        <ele>161.5</ele>
        <time>2020-06-10T17:33:46Z</time>
      </trkpt>
      <trkpt lat="48.56815" lon="-3.24724">
        <ele>161.6</ele>
        <time>2020-06-10T17:33:47Z</time>
      </trkpt>
      <trkpt lat="48.56815" lon="-3.24717">
        <ele>161.8</ele>
        <time>2020-06-10T17:33:48Z</time>
      </trkpt>
      <trkpt lat="48.56815" lon="-3.24711">
        <ele>161.9</ele>
        <time>2020-06-10T17:33:49Z</time>
      </trkpt>
      <trkpt lat="48.56814" lon="-3.24704">
        <ele>162</ele>
        <time>2020-06-10T17:33:50Z</time>
      </trkpt>
      <trkpt lat="48.56814" lon="-3.24697">
        <ele>162.1</ele>
        <time>2020-06-10T17:33:51Z</time>
      </trkpt>
      <trkpt lat="48.56813" lon="-3.2469">
        <ele>162.3</ele>
        <time>2020-06-10T17:33:52Z</time>
      </trkpt>
      <trkpt lat="48.56813" lon="-3.24683">
        <ele>162.4</ele>
        <time>2020-06-10T17:33:53Z</time>
      </trkpt>
      <trkpt lat="48.56813" lon="-3.24678">
        <ele>162.5</ele>
        <time>2020-06-10T17:33:54Z</time>
      </trkpt>
      <trkpt lat="48.56812" lon="-3.24671">
        <ele>162.6</ele>
        <time>2020-06-10T17:33:55Z</time>
      </trkpt>
      <trkpt lat="48.56812" lon="-3.24665">
        <ele>162.7</ele>
        <time>2020-06-10T17:33:56Z</time>
      </trkpt>
      <trkpt lat="48.56811" lon="-3.24658">
        <ele>162.9</ele>
        <time>2020-06-10T17:33:57Z</time>
      </trkpt>
      <trkpt lat="48.56811" lon="-3.24651">
        <ele>163</ele>
        <time>2020-06-10T17:33:58Z</time>
      </trkpt>
      <trkpt lat="48.5681" lon="-3.24645">
        <ele>163.2</ele>
        <time>2020-06-10T17:33:59Z</time>
      </trkpt>
      <trkpt lat="48.5681" lon="-3.2464">
        <ele>163.3</ele>
        <time>2020-06-10T17:34:00Z</time>
      </trkpt>
      <trkpt lat="48.5681" lon="-3.24633">
        <ele>163.5</ele>
        <time>2020-06-10T17:34:01Z</time>
      </trkpt>
      <trkpt lat="48.5681" lon="-3.24627">
        <ele>163.7</ele>
        <time>2020-06-10T17:34:02Z</time>
      </trkpt>
      <trkpt lat="48.56809" lon="-3.2462">
        <ele>163.8</ele>
        <time>2020-06-10T17:34:03Z</time>
      </trkpt>
      <trkpt lat="48.56808" lon="-3.24614">
        <ele>164</ele>
        <time>2020-06-10T17:34:04Z</time>
      </trkpt>
      <trkpt lat="48.56808" lon="-3.24607">
        <ele>164.2</ele>
        <time>2020-06-10T17:34:05Z</time>
      </trkpt>
      <trkpt lat="48.56808" lon="-3.24601">
        <ele>164.4</ele>
        <time>2020-06-10T17:34:06Z</time>
      </trkpt>
      <trkpt lat="48.56808" lon="-3.24593">
        <ele>164.6</ele>
        <time>2020-06-10T17:34:07Z</time>
      </trkpt>
      <trkpt lat="48.56808" lon="-3.24587">
        <ele>164.8</ele>
        <time>2020-06-10T17:34:08Z</time>
      </trkpt>
      <trkpt lat="48.56808" lon="-3.24583">
        <ele>164.9</ele>
        <time>2020-06-10T17:34:09Z</time>
      </trkpt>
      <trkpt lat="48.56808" lon="-3.24577">
        <ele>165.1</ele>
        <time>2020-06-10T17:34:10Z</time>
      </trkpt>
      <trkpt lat="48.56808" lon="-3.24571">
        <ele>165.3</ele>
        <time>2020-06-10T17:34:11Z</time>
      </trkpt>
      <trkpt lat="48.56808" lon="-3.24565">
        <ele>165.5</ele>
        <time>2020-06-10T17:34:12Z</time>
      </trkpt>
      <trkpt lat="48.56806" lon="-3.2456">
        <ele>165.7</ele>
        <time>2020-06-10T17:34:13Z</time>
      </trkpt>
      <trkpt lat="48.56806" lon="-3.24556">
        <ele>165.8</ele>
        <time>2020-06-10T17:34:14Z</time>
      </trkpt>
      <trkpt lat="48.56805" lon="-3.24551">
        <ele>166</ele>
        <time>2020-06-10T17:34:15Z</time>
      </trkpt>
      <trkpt lat="48.56805" lon="-3.24546">
        <ele>166.2</ele>
        <time>2020-06-10T17:34:16Z</time>
      </trkpt>
      <trkpt lat="48.56805" lon="-3.2454">
        <ele>166.3</ele>
        <time>2020-06-10T17:34:17Z</time>
      </trkpt>
      <trkpt lat="48.56805" lon="-3.24535">
        <ele>166.5</ele>
        <time>2020-06-10T17:34:18Z</time>
      </trkpt>
      <trkpt lat="48.56804" lon="-3.24529">
        <ele>166.7</ele>
        <time>2020-06-10T17:34:19Z</time>
      </trkpt>
      <trkpt lat="48.56804" lon="-3.24527">
        <ele>166.8</ele>
        <time>2020-06-10T17:34:20Z</time>
      </trkpt>
      <trkpt lat="48.56803" lon="-3.24522">
        <ele>166.9</ele>
        <time>2020-06-10T17:34:21Z</time>
      </trkpt>
      <trkpt lat="48.56803" lon="-3.24518">
        <ele>167.1</ele>
        <time>2020-06-10T17:34:22Z</time>
      </trkpt>
      <trkpt lat="48.56803" lon="-3.24512">
        <ele>167.3</ele>
        <time>2020-06-10T17:34:23Z</time>
      </trkpt>
      <trkpt lat="48.56802" lon="-3.24507">
        <ele>167.4</ele>
        <time>2020-06-10T17:34:24Z</time>
      </trkpt>
      <trkpt lat="48.56801" lon="-3.24503">
        <ele>167.6</ele>
        <time>2020-06-10T17:34:25Z</time>
      </trkpt>
      <trkpt lat="48.56801" lon="-3.24498">
        <ele>167.8</ele>
        <time>2020-06-10T17:34:26Z</time>
      </trkpt>
      <trkpt lat="48.56801" lon="-3.24491">
        <ele>168</ele>
        <time>2020-06-10T17:34:27Z</time>
      </trkpt>
      <trkpt lat="48.56801" lon="-3.24488">
        <ele>168.1</ele>
        <time>2020-06-10T17:34:28Z</time>
      </trkpt>
      <trkpt lat="48.568" lon="-3.24482">
        <ele>168.3</ele>
        <time>2020-06-10T17:34:29Z</time>
      </trkpt>
      <trkpt lat="48.568" lon="-3.24476">
        <ele>168.5</ele>
        <time>2020-06-10T17:34:30Z</time>
      </trkpt>
      <trkpt lat="48.568" lon="-3.24471">
        <ele>168.7</ele>
        <time>2020-06-10T17:34:31Z</time>
      </trkpt>
      <trkpt lat="48.56799" lon="-3.24464">
        <ele>168.9</ele>
        <time>2020-06-10T17:34:32Z</time>
      </trkpt>
      <trkpt lat="48.56799" lon="-3.2446">
        <ele>169.1</ele>
        <time>2020-06-10T17:34:33Z</time>
      </trkpt>
      <trkpt lat="48.568" lon="-3.24455">
        <ele>169.3</ele>
        <time>2020-06-10T17:34:34Z</time>
      </trkpt>
      <trkpt lat="48.568" lon="-3.24451">
        <ele>169.4</ele>
        <time>2020-06-10T17:34:35Z</time>
      </trkpt>
      <trkpt lat="48.568" lon="-3.24448">
        <ele>169.5</ele>
        <time>2020-06-10T17:34:36Z</time>
      </trkpt>
      <trkpt lat="48.568" lon="-3.24443">
        <ele>169.7</ele>
        <time>2020-06-10T17:34:37Z</time>
      </trkpt>
      <trkpt lat="48.568" lon="-3.24439">
        <ele>169.9</ele>
        <time>2020-06-10T17:34:38Z</time>
      </trkpt>
      <trkpt lat="48.568" lon="-3.24433">
        <ele>170.1</ele>
        <time>2020-06-10T17:34:39Z</time>
      </trkpt>
      <trkpt lat="48.568" lon="-3.24428">
        <ele>170.3</ele>
        <time>2020-06-10T17:34:40Z</time>
      </trkpt>
      <trkpt lat="48.568" lon="-3.24422">
        <ele>170.5</ele>
        <time>2020-06-10T17:34:41Z</time>
      </trkpt>
      <trkpt lat="48.568" lon="-3.24416">
        <ele>170.7</ele>
        <time>2020-06-10T17:34:42Z</time>
      </trkpt>
      <trkpt lat="48.56799" lon="-3.24411">
        <ele>170.9</ele>
        <time>2020-06-10T17:34:43Z</time>
      </trkpt>
      <trkpt lat="48.56798" lon="-3.24405">
        <ele>171.1</ele>
        <time>2020-06-10T17:34:44Z</time>
      </trkpt>
      <trkpt lat="48.56798" lon="-3.24398">
        <ele>171.3</ele>
        <time>2020-06-10T17:34:45Z</time>
      </trkpt>
      <trkpt lat="48.56797" lon="-3.24394">
        <ele>171.4</ele>
        <time>2020-06-10T17:34:46Z</time>
      </trkpt>
      <trkpt lat="48.56796" lon="-3.24389">
        <ele>171.5</ele>
        <time>2020-06-10T17:34:47Z</time>
      </trkpt>
      <trkpt lat="48.56795" lon="-3.24384">
        <ele>171.6</ele>
        <time>2020-06-10T17:34:48Z</time>
      </trkpt>
      <trkpt lat="48.56794" lon="-3.24379">
        <ele>171.8</ele>
        <time>2020-06-10T17:34:49Z</time>
      </trkpt>
      <trkpt lat="48.56793" lon="-3.24373">
        <ele>172.1</ele>
        <time>2020-06-10T17:34:50Z</time>
      </trkpt>
      <trkpt lat="48.56792" lon="-3.24367">
        <ele>172.3</ele>
        <time>2020-06-10T17:34:51Z</time>
      </trkpt>
      <trkpt lat="48.56792" lon="-3.24361">
        <ele>172.5</ele>
        <time>2020-06-10T17:34:52Z</time>
      </trkpt>
      <trkpt lat="48.56792" lon="-3.24355">
        <ele>172.7</ele>
        <time>2020-06-10T17:34:53Z</time>
      </trkpt>
      <trkpt lat="48.56793" lon="-3.24349">
        <ele>172.8</ele>
        <time>2020-06-10T17:34:54Z</time>
      </trkpt>
      <trkpt lat="48.56793" lon="-3.24343">
        <ele>172.9</ele>
        <time>2020-06-10T17:34:55Z</time>
      </trkpt>
      <trkpt lat="48.56793" lon="-3.24337">
        <ele>172.9</ele>
        <time>2020-06-10T17:34:56Z</time>
      </trkpt>
      <trkpt lat="48.56792" lon="-3.24331">
        <ele>173</ele>
        <time>2020-06-10T17:34:57Z</time>
      </trkpt>
      <trkpt lat="48.56792" lon="-3.24328">
        <ele>173</ele>
        <time>2020-06-10T17:34:58Z</time>
      </trkpt>
      <trkpt lat="48.56791" lon="-3.24322">
        <ele>173.1</ele>
        <time>2020-06-10T17:34:59Z</time>
      </trkpt>
      <trkpt lat="48.56791" lon="-3.24315">
        <ele>173.2</ele>
        <time>2020-06-10T17:35:00Z</time>
      </trkpt>
      <trkpt lat="48.56789" lon="-3.24309">
        <ele>173.2</ele>
        <time>2020-06-10T17:35:01Z</time>
      </trkpt>
      <trkpt lat="48.56789" lon="-3.24303">
        <ele>173.3</ele>
        <time>2020-06-10T17:35:02Z</time>
      </trkpt>
      <trkpt lat="48.56788" lon="-3.24296">
        <ele>173.3</ele>
        <time>2020-06-10T17:35:03Z</time>
      </trkpt>
      <trkpt lat="48.56788" lon="-3.24291">
        <ele>173.4</ele>
        <time>2020-06-10T17:35:04Z</time>
      </trkpt>
      <trkpt lat="48.56786" lon="-3.24285">
        <ele>173.4</ele>
        <time>2020-06-10T17:35:05Z</time>
      </trkpt>
      <trkpt lat="48.56785" lon="-3.24279">
        <ele>173.4</ele>
        <time>2020-06-10T17:35:06Z</time>
      </trkpt>
      <trkpt lat="48.56784" lon="-3.24272">
        <ele>173.5</ele>
        <time>2020-06-10T17:35:07Z</time>
      </trkpt>
      <trkpt lat="48.56783" lon="-3.24267">
        <ele>173.5</ele>
        <time>2020-06-10T17:35:08Z</time>
      </trkpt>
      <trkpt lat="48.56782" lon="-3.24262">
        <ele>173.5</ele>
        <time>2020-06-10T17:35:09Z</time>
      </trkpt>
      <trkpt lat="48.56781" lon="-3.24255">
        <ele>173.5</ele>
        <time>2020-06-10T17:35:10Z</time>
      </trkpt>
      <trkpt lat="48.5678" lon="-3.24248">
        <ele>173.5</ele>
        <time>2020-06-10T17:35:11Z</time>
      </trkpt>
      <trkpt lat="48.56778" lon="-3.2424">
        <ele>173.6</ele>
        <time>2020-06-10T17:35:12Z</time>
      </trkpt>
      <trkpt lat="48.56777" lon="-3.24233">
        <ele>173.6</ele>
        <time>2020-06-10T17:35:13Z</time>
      </trkpt>
      <trkpt lat="48.56775" lon="-3.24227">
        <ele>173.6</ele>
        <time>2020-06-10T17:35:14Z</time>
      </trkpt>
      <trkpt lat="48.56774" lon="-3.24221">
        <ele>173.6</ele>
        <time>2020-06-10T17:35:15Z</time>
      </trkpt>
      <trkpt lat="48.56772" lon="-3.24216">
        <ele>173.6</ele>
        <time>2020-06-10T17:35:16Z</time>
      </trkpt>
      <trkpt lat="48.56772" lon="-3.24212">
        <ele>173.6</ele>
        <time>2020-06-10T17:35:17Z</time>
      </trkpt>
      <trkpt lat="48.56771" lon="-3.24205">
        <ele>173.7</ele>
        <time>2020-06-10T17:35:18Z</time>
      </trkpt>
      <trkpt lat="48.56769" lon="-3.24198">
        <ele>173.7</ele>
        <time>2020-06-10T17:35:19Z</time>
      </trkpt>
      <trkpt lat="48.56768" lon="-3.24192">
        <ele>173.7</ele>
        <time>2020-06-10T17:35:20Z</time>
      </trkpt>
      <trkpt lat="48.56766" lon="-3.24186">
        <ele>173.7</ele>
        <time>2020-06-10T17:35:21Z</time>
      </trkpt>
      <trkpt lat="48.56764" lon="-3.24179">
        <ele>173.7</ele>
        <time>2020-06-10T17:35:22Z</time>
      </trkpt>
      <trkpt lat="48.56763" lon="-3.24173">
        <ele>173.7</ele>
        <time>2020-06-10T17:35:23Z</time>
      </trkpt>
      <trkpt lat="48.56763" lon="-3.24167">
        <ele>173.7</ele>
        <time>2020-06-10T17:35:24Z</time>
      </trkpt>
      <trkpt lat="48.56763" lon="-3.24164">
        <ele>173.7</ele>
        <time>2020-06-10T17:35:25Z</time>
      </trkpt>
      <trkpt lat="48.56762" lon="-3.24157">
        <ele>173.7</ele>
        <time>2020-06-10T17:35:26Z</time>
      </trkpt>
      <trkpt lat="48.56761" lon="-3.24149">
        <ele>173.7</ele>
        <time>2020-06-10T17:35:27Z</time>
      </trkpt>
      <trkpt lat="48.5676" lon="-3.24142">
        <ele>173.7</ele>
        <time>2020-06-10T17:35:28Z</time>
      </trkpt>
      <trkpt lat="48.5676" lon="-3.24135">
        <ele>173.8</ele>
        <time>2020-06-10T17:35:29Z</time>
      </trkpt>
      <trkpt lat="48.56758" lon="-3.24129">
        <ele>173.8</ele>
        <time>2020-06-10T17:35:30Z</time>
      </trkpt>
      <trkpt lat="48.56757" lon="-3.24125">
        <ele>173.8</ele>
        <time>2020-06-10T17:35:31Z</time>
      </trkpt>
      <trkpt lat="48.56757" lon="-3.24118">
        <ele>173.8</ele>
        <time>2020-06-10T17:35:32Z</time>
      </trkpt>
      <trkpt lat="48.56755" lon="-3.24109">
        <ele>173.8</ele>
        <time>2020-06-10T17:35:33Z</time>
      </trkpt>
      <trkpt lat="48.56754" lon="-3.24101">
        <ele>173.7</ele>
        <time>2020-06-10T17:35:34Z</time>
      </trkpt>
      <trkpt lat="48.56753" lon="-3.24094">
        <ele>173.7</ele>
        <time>2020-06-10T17:35:35Z</time>
      </trkpt>
      <trkpt lat="48.56753" lon="-3.2409">
        <ele>173.7</ele>
        <time>2020-06-10T17:35:36Z</time>
      </trkpt>
      <trkpt lat="48.56753" lon="-3.24084">
        <ele>173.7</ele>
        <time>2020-06-10T17:35:37Z</time>
      </trkpt>
      <trkpt lat="48.56752" lon="-3.24078">
        <ele>173.7</ele>
        <time>2020-06-10T17:35:38Z</time>
      </trkpt>
      <trkpt lat="48.56751" lon="-3.24072">
        <ele>173.7</ele>
        <time>2020-06-10T17:35:39Z</time>
      </trkpt>
      <trkpt lat="48.5675" lon="-3.24065">
        <ele>173.7</ele>
        <time>2020-06-10T17:35:40Z</time>
      </trkpt>
      <trkpt lat="48.56749" lon="-3.24058">
        <ele>173.8</ele>
        <time>2020-06-10T17:35:41Z</time>
      </trkpt>
      <trkpt lat="48.56748" lon="-3.2405">
        <ele>173.8</ele>
        <time>2020-06-10T17:35:42Z</time>
      </trkpt>
      <trkpt lat="48.56746" lon="-3.24042">
        <ele>173.7</ele>
        <time>2020-06-10T17:35:43Z</time>
      </trkpt>
      <trkpt lat="48.56744" lon="-3.24037">
        <ele>173.7</ele>
        <time>2020-06-10T17:35:44Z</time>
      </trkpt>
      <trkpt lat="48.56743" lon="-3.24031">
        <ele>173.7</ele>
        <time>2020-06-10T17:35:45Z</time>
      </trkpt>
      <trkpt lat="48.56742" lon="-3.24024">
        <ele>173.7</ele>
        <time>2020-06-10T17:35:46Z</time>
      </trkpt>
      <trkpt lat="48.56741" lon="-3.24017">
        <ele>173.6</ele>
        <time>2020-06-10T17:35:47Z</time>
      </trkpt>
      <trkpt lat="48.5674" lon="-3.2401">
        <ele>173.6</ele>
        <time>2020-06-10T17:35:48Z</time>
      </trkpt>
      <trkpt lat="48.56738" lon="-3.24">
        <ele>173.6</ele>
        <time>2020-06-10T17:35:49Z</time>
      </trkpt>
      <trkpt lat="48.56738" lon="-3.23993">
        <ele>173.6</ele>
        <time>2020-06-10T17:35:50Z</time>
      </trkpt>
      <trkpt lat="48.56736" lon="-3.23985">
        <ele>173.6</ele>
        <time>2020-06-10T17:35:51Z</time>
      </trkpt>
      <trkpt lat="48.56735" lon="-3.23978">
        <ele>173.6</ele>
        <time>2020-06-10T17:35:52Z</time>
      </trkpt>
      <trkpt lat="48.56734" lon="-3.23972">
        <ele>173.6</ele>
        <time>2020-06-10T17:35:53Z</time>
      </trkpt>
      <trkpt lat="48.56733" lon="-3.23965">
        <ele>173.6</ele>
        <time>2020-06-10T17:35:54Z</time>
      </trkpt>
      <trkpt lat="48.56732" lon="-3.23958">
        <ele>173.6</ele>
        <time>2020-06-10T17:35:55Z</time>
      </trkpt>
      <trkpt lat="48.56731" lon="-3.23951">
        <ele>173.6</ele>
        <time>2020-06-10T17:35:56Z</time>
      </trkpt>
      <trkpt lat="48.5673" lon="-3.23945">
        <ele>173.7</ele>
        <time>2020-06-10T17:35:57Z</time>
      </trkpt>
      <trkpt lat="48.56728" lon="-3.23938">
        <ele>173.7</ele>
        <time>2020-06-10T17:35:58Z</time>
      </trkpt>
      <trkpt lat="48.56727" lon="-3.23932">
        <ele>173.7</ele>
        <time>2020-06-10T17:35:59Z</time>
      </trkpt>
      <trkpt lat="48.56725" lon="-3.23924">
        <ele>173.7</ele>
        <time>2020-06-10T17:36:00Z</time>
      </trkpt>
      <trkpt lat="48.56724" lon="-3.23919">
        <ele>173.7</ele>
        <time>2020-06-10T17:36:01Z</time>
      </trkpt>
      <trkpt lat="48.56723" lon="-3.23915">
        <ele>173.7</ele>
        <time>2020-06-10T17:36:02Z</time>
      </trkpt>
      <trkpt lat="48.56721" lon="-3.23909">
        <ele>173.8</ele>
        <time>2020-06-10T17:36:03Z</time>
      </trkpt>
      <trkpt lat="48.56718" lon="-3.23904">
        <ele>173.8</ele>
        <time>2020-06-10T17:36:04Z</time>
      </trkpt>
      <trkpt lat="48.56715" lon="-3.23897">
        <ele>173.8</ele>
        <time>2020-06-10T17:36:05Z</time>
      </trkpt>
      <trkpt lat="48.56711" lon="-3.2389">
        <ele>173.8</ele>
        <time>2020-06-10T17:36:06Z</time>
      </trkpt>
      <trkpt lat="48.56708" lon="-3.23882">
        <ele>173.9</ele>
        <time>2020-06-10T17:36:07Z</time>
      </trkpt>
      <trkpt lat="48.56705" lon="-3.23876">
        <ele>173.9</ele>
        <time>2020-06-10T17:36:08Z</time>
      </trkpt>
      <trkpt lat="48.56702" lon="-3.23869">
        <ele>174</ele>
        <time>2020-06-10T17:36:09Z</time>
      </trkpt>
      <trkpt lat="48.56699" lon="-3.23864">
        <ele>174.1</ele>
        <time>2020-06-10T17:36:10Z</time>
      </trkpt>
      <trkpt lat="48.56696" lon="-3.23859">
        <ele>174.1</ele>
        <time>2020-06-10T17:36:11Z</time>
      </trkpt>
      <trkpt lat="48.56691" lon="-3.23853">
        <ele>174.3</ele>
        <time>2020-06-10T17:36:12Z</time>
      </trkpt>
      <trkpt lat="48.56687" lon="-3.23846">
        <ele>174.5</ele>
        <time>2020-06-10T17:36:13Z</time>
      </trkpt>
      <trkpt lat="48.56683" lon="-3.23842">
        <ele>174.6</ele>
        <time>2020-06-10T17:36:14Z</time>
      </trkpt>
      <trkpt lat="48.5668" lon="-3.23837">
        <ele>174.6</ele>
        <time>2020-06-10T17:36:15Z</time>
      </trkpt>
      <trkpt lat="48.56677" lon="-3.23833">
        <ele>174.7</ele>
        <time>2020-06-10T17:36:16Z</time>
      </trkpt>
      <trkpt lat="48.56673" lon="-3.23827">
        <ele>174.7</ele>
        <time>2020-06-10T17:36:17Z</time>
      </trkpt>
      <trkpt lat="48.5667" lon="-3.23822">
        <ele>174.8</ele>
        <time>2020-06-10T17:36:18Z</time>
      </trkpt>
      <trkpt lat="48.56667" lon="-3.23819">
        <ele>174.8</ele>
        <time>2020-06-10T17:36:19Z</time>
      </trkpt>
      <trkpt lat="48.56664" lon="-3.23817">
        <ele>174.9</ele>
        <time>2020-06-10T17:36:20Z</time>
      </trkpt>
      <trkpt lat="48.56661" lon="-3.23814">
        <ele>174.9</ele>
        <time>2020-06-10T17:36:21Z</time>
      </trkpt>
      <trkpt lat="48.56657" lon="-3.2381">
        <ele>175</ele>
        <time>2020-06-10T17:36:22Z</time>
      </trkpt>
      <trkpt lat="48.56653" lon="-3.23806">
        <ele>175.1</ele>
        <time>2020-06-10T17:36:23Z</time>
      </trkpt>
      <trkpt lat="48.56649" lon="-3.23801">
        <ele>175.1</ele>
        <time>2020-06-10T17:36:24Z</time>
      </trkpt>
      <trkpt lat="48.56645" lon="-3.23797">
        <ele>175.2</ele>
        <time>2020-06-10T17:36:25Z</time>
      </trkpt>
      <trkpt lat="48.5664" lon="-3.23792">
        <ele>175.3</ele>
        <time>2020-06-10T17:36:26Z</time>
      </trkpt>
      <trkpt lat="48.56636" lon="-3.23787">
        <ele>175.4</ele>
        <time>2020-06-10T17:36:27Z</time>
      </trkpt>
      <trkpt lat="48.56631" lon="-3.23782">
        <ele>175.5</ele>
        <time>2020-06-10T17:36:28Z</time>
      </trkpt>
      <trkpt lat="48.56627" lon="-3.23777">
        <ele>175.6</ele>
        <time>2020-06-10T17:36:29Z</time>
      </trkpt>
      <trkpt lat="48.56623" lon="-3.23772">
        <ele>175.7</ele>
        <time>2020-06-10T17:36:30Z</time>
      </trkpt>
      <trkpt lat="48.56619" lon="-3.23768">
        <ele>175.8</ele>
        <time>2020-06-10T17:36:31Z</time>
      </trkpt>
      <trkpt lat="48.56615" lon="-3.23763">
        <ele>175.9</ele>
        <time>2020-06-10T17:36:32Z</time>
      </trkpt>
      <trkpt lat="48.56611" lon="-3.23758">
        <ele>176</ele>
        <time>2020-06-10T17:36:33Z</time>
      </trkpt>
      <trkpt lat="48.56607" lon="-3.23753">
        <ele>176.2</ele>
        <time>2020-06-10T17:36:34Z</time>
      </trkpt>
      <trkpt lat="48.56603" lon="-3.23749">
        <ele>176.3</ele>
        <time>2020-06-10T17:36:35Z</time>
      </trkpt>
      <trkpt lat="48.56599" lon="-3.23744">
        <ele>176.4</ele>
        <time>2020-06-10T17:36:36Z</time>
      </trkpt>
      <trkpt lat="48.56595" lon="-3.2374">
        <ele>176.5</ele>
        <time>2020-06-10T17:36:37Z</time>
      </trkpt>
      <trkpt lat="48.5659" lon="-3.23736">
        <ele>176.7</ele>
        <time>2020-06-10T17:36:38Z</time>
      </trkpt>
      <trkpt lat="48.56585" lon="-3.23731">
        <ele>176.8</ele>
        <time>2020-06-10T17:36:39Z</time>
      </trkpt>
      <trkpt lat="48.56581" lon="-3.23727">
        <ele>177</ele>
        <time>2020-06-10T17:36:40Z</time>
      </trkpt>
      <trkpt lat="48.56577" lon="-3.23723">
        <ele>177.1</ele>
        <time>2020-06-10T17:36:41Z</time>
      </trkpt>
      <trkpt lat="48.56574" lon="-3.23719">
        <ele>177.2</ele>
        <time>2020-06-10T17:36:42Z</time>
      </trkpt>
      <trkpt lat="48.5657" lon="-3.23716">
        <ele>177.3</ele>
        <time>2020-06-10T17:36:43Z</time>
      </trkpt>
      <trkpt lat="48.56567" lon="-3.23713">
        <ele>177.3</ele>
        <time>2020-06-10T17:36:44Z</time>
      </trkpt>
      <trkpt lat="48.56562" lon="-3.2371">
        <ele>177.4</ele>
        <time>2020-06-10T17:36:45Z</time>
      </trkpt>
      <trkpt lat="48.56558" lon="-3.23706">
        <ele>177.4</ele>
        <time>2020-06-10T17:36:46Z</time>
      </trkpt>
      <trkpt lat="48.56553" lon="-3.23701">
        <ele>177.5</ele>
        <time>2020-06-10T17:36:47Z</time>
      </trkpt>
      <trkpt lat="48.5655" lon="-3.23695">
        <ele>177.6</ele>
        <time>2020-06-10T17:36:48Z</time>
      </trkpt>
      <trkpt lat="48.56547" lon="-3.23691">
        <ele>177.6</ele>
        <time>2020-06-10T17:36:49Z</time>
      </trkpt>
      <trkpt lat="48.56543" lon="-3.23685">
        <ele>177.7</ele>
        <time>2020-06-10T17:36:50Z</time>
      </trkpt>
      <trkpt lat="48.5654" lon="-3.2368">
        <ele>177.8</ele>
        <time>2020-06-10T17:36:51Z</time>
      </trkpt>
      <trkpt lat="48.56537" lon="-3.23675">
        <ele>177.9</ele>
        <time>2020-06-10T17:36:52Z</time>
      </trkpt>
      <trkpt lat="48.56534" lon="-3.23671">
        <ele>177.9</ele>
        <time>2020-06-10T17:36:53Z</time>
      </trkpt>
      <trkpt lat="48.5653" lon="-3.23666">
        <ele>178</ele>
        <time>2020-06-10T17:36:54Z</time>
      </trkpt>
      <trkpt lat="48.56527" lon="-3.23662">
        <ele>178</ele>
        <time>2020-06-10T17:36:55Z</time>
      </trkpt>
      <trkpt lat="48.56524" lon="-3.23658">
        <ele>178</ele>
        <time>2020-06-10T17:36:56Z</time>
      </trkpt>
      <trkpt lat="48.56521" lon="-3.23655">
        <ele>178</ele>
        <time>2020-06-10T17:36:57Z</time>
      </trkpt>
      <trkpt lat="48.56519" lon="-3.2365">
        <ele>178.1</ele>
        <time>2020-06-10T17:36:58Z</time>
      </trkpt>
      <trkpt lat="48.56516" lon="-3.23645">
        <ele>178.1</ele>
        <time>2020-06-10T17:36:59Z</time>
      </trkpt>
      <trkpt lat="48.56513" lon="-3.23639">
        <ele>178.1</ele>
        <time>2020-06-10T17:37:00Z</time>
      </trkpt>
      <trkpt lat="48.5651" lon="-3.23634">
        <ele>178.2</ele>
        <time>2020-06-10T17:37:01Z</time>
      </trkpt>
      <trkpt lat="48.56507" lon="-3.2363">
        <ele>178.2</ele>
        <time>2020-06-10T17:37:02Z</time>
      </trkpt>
      <trkpt lat="48.56504" lon="-3.23624">
        <ele>178.2</ele>
        <time>2020-06-10T17:37:03Z</time>
      </trkpt>
      <trkpt lat="48.56502" lon="-3.23618">
        <ele>178.1</ele>
        <time>2020-06-10T17:37:04Z</time>
      </trkpt>
      <trkpt lat="48.565" lon="-3.23612">
        <ele>178.1</ele>
        <time>2020-06-10T17:37:05Z</time>
      </trkpt>
      <trkpt lat="48.56498" lon="-3.23606">
        <ele>178.1</ele>
        <time>2020-06-10T17:37:06Z</time>
      </trkpt>
      <trkpt lat="48.56496" lon="-3.23602">
        <ele>178.1</ele>
        <time>2020-06-10T17:37:07Z</time>
      </trkpt>
      <trkpt lat="48.56495" lon="-3.23598">
        <ele>178.1</ele>
        <time>2020-06-10T17:37:08Z</time>
      </trkpt>
      <trkpt lat="48.56494" lon="-3.23594">
        <ele>178</ele>
        <time>2020-06-10T17:37:09Z</time>
      </trkpt>
      <trkpt lat="48.56494" lon="-3.23592">
        <ele>178</ele>
        <time>2020-06-10T17:37:10Z</time>
      </trkpt>
      <trkpt lat="48.56492" lon="-3.23584">
        <ele>178</ele>
        <time>2020-06-10T17:37:11Z</time>
      </trkpt>
      <trkpt lat="48.56491" lon="-3.23578">
        <ele>177.9</ele>
        <time>2020-06-10T17:37:12Z</time>
      </trkpt>
      <trkpt lat="48.5649" lon="-3.23572">
        <ele>177.9</ele>
        <time>2020-06-10T17:37:13Z</time>
      </trkpt>
      <trkpt lat="48.56489" lon="-3.23563">
        <ele>177.8</ele>
        <time>2020-06-10T17:37:14Z</time>
      </trkpt>
      <trkpt lat="48.56488" lon="-3.23554">
        <ele>177.7</ele>
        <time>2020-06-10T17:37:15Z</time>
      </trkpt>
      <trkpt lat="48.56488" lon="-3.23546">
        <ele>177.6</ele>
        <time>2020-06-10T17:37:16Z</time>
      </trkpt>
      <trkpt lat="48.56486" lon="-3.23539">
        <ele>177.5</ele>
        <time>2020-06-10T17:37:17Z</time>
      </trkpt>
      <trkpt lat="48.56484" lon="-3.23532">
        <ele>177.4</ele>
        <time>2020-06-10T17:37:18Z</time>
      </trkpt>
      <trkpt lat="48.56482" lon="-3.23525">
        <ele>177.4</ele>
        <time>2020-06-10T17:37:19Z</time>
      </trkpt>
      <trkpt lat="48.5648" lon="-3.23519">
        <ele>177.5</ele>
        <time>2020-06-10T17:37:20Z</time>
      </trkpt>
      <trkpt lat="48.56478" lon="-3.23512">
        <ele>177.6</ele>
        <time>2020-06-10T17:37:21Z</time>
      </trkpt>
      <trkpt lat="48.56475" lon="-3.23504">
        <ele>177.7</ele>
        <time>2020-06-10T17:37:22Z</time>
      </trkpt>
      <trkpt lat="48.56473" lon="-3.23495">
        <ele>177.7</ele>
        <time>2020-06-10T17:37:23Z</time>
      </trkpt>
      <trkpt lat="48.56471" lon="-3.23486">
        <ele>177.6</ele>
        <time>2020-06-10T17:37:24Z</time>
      </trkpt>
      <trkpt lat="48.5647" lon="-3.23476">
        <ele>177.5</ele>
        <time>2020-06-10T17:37:25Z</time>
      </trkpt>
      <trkpt lat="48.56468" lon="-3.23468">
        <ele>177.4</ele>
        <time>2020-06-10T17:37:26Z</time>
      </trkpt>
      <trkpt lat="48.56467" lon="-3.23461">
        <ele>177.3</ele>
        <time>2020-06-10T17:37:27Z</time>
      </trkpt>
      <trkpt lat="48.56465" lon="-3.23455">
        <ele>177.3</ele>
        <time>2020-06-10T17:37:28Z</time>
      </trkpt>
      <trkpt lat="48.56464" lon="-3.2345">
        <ele>177.2</ele>
        <time>2020-06-10T17:37:29Z</time>
      </trkpt>
      <trkpt lat="48.56464" lon="-3.23442">
        <ele>177.2</ele>
        <time>2020-06-10T17:37:30Z</time>
      </trkpt>
      <trkpt lat="48.56462" lon="-3.23434">
        <ele>177.2</ele>
        <time>2020-06-10T17:37:31Z</time>
      </trkpt>
      <trkpt lat="48.56459" lon="-3.23424">
        <ele>177.2</ele>
        <time>2020-06-10T17:37:32Z</time>
      </trkpt>
      <trkpt lat="48.56456" lon="-3.23416">
        <ele>177.2</ele>
        <time>2020-06-10T17:37:33Z</time>
      </trkpt>
      <trkpt lat="48.56454" lon="-3.23409">
        <ele>177.1</ele>
        <time>2020-06-10T17:37:34Z</time>
      </trkpt>
      <trkpt lat="48.56453" lon="-3.23404">
        <ele>177.1</ele>
        <time>2020-06-10T17:37:35Z</time>
      </trkpt>
      <trkpt lat="48.56451" lon="-3.23398">
        <ele>177.1</ele>
        <time>2020-06-10T17:37:36Z</time>
      </trkpt>
      <trkpt lat="48.56449" lon="-3.23391">
        <ele>177.1</ele>
        <time>2020-06-10T17:37:37Z</time>
      </trkpt>
      <trkpt lat="48.56449" lon="-3.23384">
        <ele>177</ele>
        <time>2020-06-10T17:37:38Z</time>
      </trkpt>
      <trkpt lat="48.56446" lon="-3.23375">
        <ele>176.9</ele>
        <time>2020-06-10T17:37:39Z</time>
      </trkpt>
      <trkpt lat="48.56445" lon="-3.23366">
        <ele>176.9</ele>
        <time>2020-06-10T17:37:40Z</time>
      </trkpt>
      <trkpt lat="48.56443" lon="-3.23357">
        <ele>176.8</ele>
        <time>2020-06-10T17:37:41Z</time>
      </trkpt>
      <trkpt lat="48.56441" lon="-3.23348">
        <ele>176.8</ele>
        <time>2020-06-10T17:37:42Z</time>
      </trkpt>
      <trkpt lat="48.56439" lon="-3.2334">
        <ele>176.9</ele>
        <time>2020-06-10T17:37:43Z</time>
      </trkpt>
      <trkpt lat="48.56439" lon="-3.23333">
        <ele>176.9</ele>
        <time>2020-06-10T17:37:44Z</time>
      </trkpt>
      <trkpt lat="48.56438" lon="-3.23326">
        <ele>176.9</ele>
        <time>2020-06-10T17:37:45Z</time>
      </trkpt>
      <trkpt lat="48.56437" lon="-3.23317">
        <ele>176.9</ele>
        <time>2020-06-10T17:37:46Z</time>
      </trkpt>
      <trkpt lat="48.56437" lon="-3.23311">
        <ele>176.9</ele>
        <time>2020-06-10T17:37:47Z</time>
      </trkpt>
      <trkpt lat="48.56436" lon="-3.23305">
        <ele>176.9</ele>
        <time>2020-06-10T17:37:48Z</time>
      </trkpt>
      <trkpt lat="48.56435" lon="-3.23298">
        <ele>176.9</ele>
        <time>2020-06-10T17:37:49Z</time>
      </trkpt>
      <trkpt lat="48.56434" lon="-3.23293">
        <ele>176.9</ele>
        <time>2020-06-10T17:37:50Z</time>
      </trkpt>
      <trkpt lat="48.56434" lon="-3.23287">
        <ele>176.9</ele>
        <time>2020-06-10T17:37:51Z</time>
      </trkpt>
      <trkpt lat="48.56432" lon="-3.23279">
        <ele>176.9</ele>
        <time>2020-06-10T17:37:52Z</time>
      </trkpt>
      <trkpt lat="48.5643" lon="-3.23272">
        <ele>176.9</ele>
        <time>2020-06-10T17:37:53Z</time>
      </trkpt>
      <trkpt lat="48.56427" lon="-3.23267">
        <ele>176.9</ele>
        <time>2020-06-10T17:37:54Z</time>
      </trkpt>
      <trkpt lat="48.56425" lon="-3.23262">
        <ele>176.9</ele>
        <time>2020-06-10T17:37:55Z</time>
      </trkpt>
      <trkpt lat="48.56423" lon="-3.23256">
        <ele>176.9</ele>
        <time>2020-06-10T17:37:56Z</time>
      </trkpt>
      <trkpt lat="48.56422" lon="-3.23249">
        <ele>176.9</ele>
        <time>2020-06-10T17:37:57Z</time>
      </trkpt>
      <trkpt lat="48.5642" lon="-3.23243">
        <ele>176.9</ele>
        <time>2020-06-10T17:37:58Z</time>
      </trkpt>
      <trkpt lat="48.56418" lon="-3.23237">
        <ele>176.9</ele>
        <time>2020-06-10T17:37:59Z</time>
      </trkpt>
      <trkpt lat="48.56416" lon="-3.23231">
        <ele>176.9</ele>
        <time>2020-06-10T17:38:00Z</time>
      </trkpt>
      <trkpt lat="48.56415" lon="-3.23224">
        <ele>176.8</ele>
        <time>2020-06-10T17:38:01Z</time>
      </trkpt>
      <trkpt lat="48.56413" lon="-3.23217">
        <ele>176.8</ele>
        <time>2020-06-10T17:38:02Z</time>
      </trkpt>
      <trkpt lat="48.56411" lon="-3.23212">
        <ele>176.8</ele>
        <time>2020-06-10T17:38:03Z</time>
      </trkpt>
      <trkpt lat="48.5641" lon="-3.23206">
        <ele>176.9</ele>
        <time>2020-06-10T17:38:04Z</time>
      </trkpt>
      <trkpt lat="48.56409" lon="-3.23198">
        <ele>176.9</ele>
        <time>2020-06-10T17:38:05Z</time>
      </trkpt>
      <trkpt lat="48.56407" lon="-3.2319">
        <ele>176.9</ele>
        <time>2020-06-10T17:38:06Z</time>
      </trkpt>
      <trkpt lat="48.56405" lon="-3.23182">
        <ele>176.9</ele>
        <time>2020-06-10T17:38:07Z</time>
      </trkpt>
      <trkpt lat="48.56404" lon="-3.23176">
        <ele>176.9</ele>
        <time>2020-06-10T17:38:08Z</time>
      </trkpt>
      <trkpt lat="48.56402" lon="-3.23171">
        <ele>176.9</ele>
        <time>2020-06-10T17:38:09Z</time>
      </trkpt>
      <trkpt lat="48.56401" lon="-3.23164">
        <ele>176.9</ele>
        <time>2020-06-10T17:38:10Z</time>
      </trkpt>
      <trkpt lat="48.56399" lon="-3.23158">
        <ele>176.9</ele>
        <time>2020-06-10T17:38:11Z</time>
      </trkpt>
      <trkpt lat="48.56397" lon="-3.23151">
        <ele>176.9</ele>
        <time>2020-06-10T17:38:12Z</time>
      </trkpt>
      <trkpt lat="48.56395" lon="-3.23145">
        <ele>176.9</ele>
        <time>2020-06-10T17:38:13Z</time>
      </trkpt>
      <trkpt lat="48.56394" lon="-3.23139">
        <ele>176.9</ele>
        <time>2020-06-10T17:38:14Z</time>
      </trkpt>
      <trkpt lat="48.56392" lon="-3.23132">
        <ele>177</ele>
        <time>2020-06-10T17:38:15Z</time>
      </trkpt>
      <trkpt lat="48.5639" lon="-3.23126">
        <ele>177</ele>
        <time>2020-06-10T17:38:16Z</time>
      </trkpt>
      <trkpt lat="48.56388" lon="-3.23119">
        <ele>177</ele>
        <time>2020-06-10T17:38:17Z</time>
      </trkpt>
      <trkpt lat="48.56385" lon="-3.23111">
        <ele>177</ele>
        <time>2020-06-10T17:38:18Z</time>
      </trkpt>
      <trkpt lat="48.56383" lon="-3.23103">
        <ele>177.1</ele>
        <time>2020-06-10T17:38:19Z</time>
      </trkpt>
      <trkpt lat="48.56382" lon="-3.23096">
        <ele>177.1</ele>
        <time>2020-06-10T17:38:20Z</time>
      </trkpt>
      <trkpt lat="48.56379" lon="-3.23088">
        <ele>177.1</ele>
        <time>2020-06-10T17:38:21Z</time>
      </trkpt>
      <trkpt lat="48.56378" lon="-3.23081">
        <ele>177.1</ele>
        <time>2020-06-10T17:38:22Z</time>
      </trkpt>
      <trkpt lat="48.56376" lon="-3.23074">
        <ele>177.2</ele>
        <time>2020-06-10T17:38:23Z</time>
      </trkpt>
      <trkpt lat="48.56375" lon="-3.23067">
        <ele>177.2</ele>
        <time>2020-06-10T17:38:24Z</time>
      </trkpt>
      <trkpt lat="48.56373" lon="-3.2306">
        <ele>177.2</ele>
        <time>2020-06-10T17:38:25Z</time>
      </trkpt>
      <trkpt lat="48.56372" lon="-3.23054">
        <ele>177.1</ele>
        <time>2020-06-10T17:38:26Z</time>
      </trkpt>
      <trkpt lat="48.56371" lon="-3.23047">
        <ele>177.1</ele>
        <time>2020-06-10T17:38:27Z</time>
      </trkpt>
      <trkpt lat="48.5637" lon="-3.23041">
        <ele>177.1</ele>
        <time>2020-06-10T17:38:28Z</time>
      </trkpt>
      <trkpt lat="48.56368" lon="-3.23035">
        <ele>177</ele>
        <time>2020-06-10T17:38:29Z</time>
      </trkpt>
      <trkpt lat="48.56367" lon="-3.23028">
        <ele>177</ele>
        <time>2020-06-10T17:38:30Z</time>
      </trkpt>
      <trkpt lat="48.56365" lon="-3.23021">
        <ele>176.9</ele>
        <time>2020-06-10T17:38:31Z</time>
      </trkpt>
      <trkpt lat="48.56363" lon="-3.23014">
        <ele>176.9</ele>
        <time>2020-06-10T17:38:32Z</time>
      </trkpt>
      <trkpt lat="48.56362" lon="-3.23006">
        <ele>176.8</ele>
        <time>2020-06-10T17:38:33Z</time>
      </trkpt>
      <trkpt lat="48.5636" lon="-3.23">
        <ele>176.8</ele>
        <time>2020-06-10T17:38:34Z</time>
      </trkpt>
      <trkpt lat="48.56359" lon="-3.22993">
        <ele>176.7</ele>
        <time>2020-06-10T17:38:35Z</time>
      </trkpt>
      <trkpt lat="48.56357" lon="-3.22986">
        <ele>176.7</ele>
        <time>2020-06-10T17:38:36Z</time>
      </trkpt>
      <trkpt lat="48.56356" lon="-3.22979">
        <ele>176.6</ele>
        <time>2020-06-10T17:38:37Z</time>
      </trkpt>
      <trkpt lat="48.56355" lon="-3.22972">
        <ele>176.5</ele>
        <time>2020-06-10T17:38:38Z</time>
      </trkpt>
      <trkpt lat="48.56353" lon="-3.22965">
        <ele>176.5</ele>
        <time>2020-06-10T17:38:39Z</time>
      </trkpt>
      <trkpt lat="48.56352" lon="-3.22959">
        <ele>176.4</ele>
        <time>2020-06-10T17:38:40Z</time>
      </trkpt>
      <trkpt lat="48.56351" lon="-3.22952">
        <ele>176.3</ele>
        <time>2020-06-10T17:38:41Z</time>
      </trkpt>
      <trkpt lat="48.5635" lon="-3.22946">
        <ele>176.2</ele>
        <time>2020-06-10T17:38:42Z</time>
      </trkpt>
      <trkpt lat="48.56349" lon="-3.2294">
        <ele>176.2</ele>
        <time>2020-06-10T17:38:43Z</time>
      </trkpt>
      <trkpt lat="48.56348" lon="-3.22933">
        <ele>176.1</ele>
        <time>2020-06-10T17:38:44Z</time>
      </trkpt>
      <trkpt lat="48.56347" lon="-3.22926">
        <ele>176</ele>
        <time>2020-06-10T17:38:45Z</time>
      </trkpt>
      <trkpt lat="48.56346" lon="-3.2292">
        <ele>175.9</ele>
        <time>2020-06-10T17:38:46Z</time>
      </trkpt>
      <trkpt lat="48.56346" lon="-3.22913">
        <ele>175.8</ele>
        <time>2020-06-10T17:38:47Z</time>
      </trkpt>
      <trkpt lat="48.56345" lon="-3.22906">
        <ele>175.7</ele>
        <time>2020-06-10T17:38:48Z</time>
      </trkpt>
      <trkpt lat="48.56344" lon="-3.22899">
        <ele>175.6</ele>
        <time>2020-06-10T17:38:49Z</time>
      </trkpt>
      <trkpt lat="48.56344" lon="-3.22893">
        <ele>175.5</ele>
        <time>2020-06-10T17:38:50Z</time>
      </trkpt>
      <trkpt lat="48.56344" lon="-3.22885">
        <ele>175.4</ele>
        <time>2020-06-10T17:38:51Z</time>
      </trkpt>
      <trkpt lat="48.56344" lon="-3.22879">
        <ele>175.3</ele>
        <time>2020-06-10T17:38:52Z</time>
      </trkpt>
      <trkpt lat="48.56342" lon="-3.22872">
        <ele>175.2</ele>
        <time>2020-06-10T17:38:53Z</time>
      </trkpt>
      <trkpt lat="48.56342" lon="-3.22866">
        <ele>175.1</ele>
        <time>2020-06-10T17:38:54Z</time>
      </trkpt>
      <trkpt lat="48.56341" lon="-3.22859">
        <ele>174.9</ele>
        <time>2020-06-10T17:38:55Z</time>
      </trkpt>
      <trkpt lat="48.5634" lon="-3.22851">
        <ele>174.8</ele>
        <time>2020-06-10T17:38:56Z</time>
      </trkpt>
      <trkpt lat="48.56339" lon="-3.22844">
        <ele>174.7</ele>
        <time>2020-06-10T17:38:57Z</time>
      </trkpt>
      <trkpt lat="48.56338" lon="-3.22836">
        <ele>174.6</ele>
        <time>2020-06-10T17:38:58Z</time>
      </trkpt>
      <trkpt lat="48.56338" lon="-3.22828">
        <ele>174.4</ele>
        <time>2020-06-10T17:38:59Z</time>
      </trkpt>
      <trkpt lat="48.56338" lon="-3.22819">
        <ele>174.3</ele>
        <time>2020-06-10T17:39:00Z</time>
      </trkpt>
      <trkpt lat="48.56338" lon="-3.22812">
        <ele>174.1</ele>
        <time>2020-06-10T17:39:01Z</time>
      </trkpt>
      <trkpt lat="48.56337" lon="-3.22803">
        <ele>174</ele>
        <time>2020-06-10T17:39:02Z</time>
      </trkpt>
      <trkpt lat="48.56337" lon="-3.22795">
        <ele>173.8</ele>
        <time>2020-06-10T17:39:03Z</time>
      </trkpt>
      <trkpt lat="48.56336" lon="-3.22787">
        <ele>173.6</ele>
        <time>2020-06-10T17:39:04Z</time>
      </trkpt>
      <trkpt lat="48.56337" lon="-3.22779">
        <ele>173.5</ele>
        <time>2020-06-10T17:39:05Z</time>
      </trkpt>
      <trkpt lat="48.56338" lon="-3.22774">
        <ele>173.4</ele>
        <time>2020-06-10T17:39:06Z</time>
      </trkpt>
      <trkpt lat="48.56338" lon="-3.22767">
        <ele>173.2</ele>
        <time>2020-06-10T17:39:07Z</time>
      </trkpt>
      <trkpt lat="48.56338" lon="-3.22757">
        <ele>173</ele>
        <time>2020-06-10T17:39:08Z</time>
      </trkpt>
      <trkpt lat="48.56338" lon="-3.22748">
        <ele>172.8</ele>
        <time>2020-06-10T17:39:09Z</time>
      </trkpt>
      <trkpt lat="48.56339" lon="-3.22739">
        <ele>172.6</ele>
        <time>2020-06-10T17:39:10Z</time>
      </trkpt>
      <trkpt lat="48.56339" lon="-3.22731">
        <ele>172.5</ele>
        <time>2020-06-10T17:39:11Z</time>
      </trkpt>
      <trkpt lat="48.56339" lon="-3.22724">
        <ele>172.3</ele>
        <time>2020-06-10T17:39:12Z</time>
      </trkpt>
      <trkpt lat="48.56338" lon="-3.22717">
        <ele>172.2</ele>
        <time>2020-06-10T17:39:13Z</time>
      </trkpt>
      <trkpt lat="48.56339" lon="-3.22709">
        <ele>172</ele>
        <time>2020-06-10T17:39:14Z</time>
      </trkpt>
      <trkpt lat="48.5634" lon="-3.22699">
        <ele>171.9</ele>
        <time>2020-06-10T17:39:15Z</time>
      </trkpt>
      <trkpt lat="48.5634" lon="-3.2269">
        <ele>171.7</ele>
        <time>2020-06-10T17:39:16Z</time>
      </trkpt>
      <trkpt lat="48.5634" lon="-3.22681">
        <ele>171.6</ele>
        <time>2020-06-10T17:39:17Z</time>
      </trkpt>
      <trkpt lat="48.5634" lon="-3.22672">
        <ele>171.5</ele>
        <time>2020-06-10T17:39:18Z</time>
      </trkpt>
      <trkpt lat="48.56341" lon="-3.22663">
        <ele>171.3</ele>
        <time>2020-06-10T17:39:19Z</time>
      </trkpt>
      <trkpt lat="48.56342" lon="-3.22654">
        <ele>171.1</ele>
        <time>2020-06-10T17:39:20Z</time>
      </trkpt>
      <trkpt lat="48.56343" lon="-3.22644">
        <ele>170.9</ele>
        <time>2020-06-10T17:39:21Z</time>
      </trkpt>
      <trkpt lat="48.56344" lon="-3.22633">
        <ele>170.7</ele>
        <time>2020-06-10T17:39:22Z</time>
      </trkpt>
      <trkpt lat="48.56344" lon="-3.22622">
        <ele>170.5</ele>
        <time>2020-06-10T17:39:23Z</time>
      </trkpt>
      <trkpt lat="48.56345" lon="-3.22612">
        <ele>170.3</ele>
        <time>2020-06-10T17:39:24Z</time>
      </trkpt>
      <trkpt lat="48.56345" lon="-3.22602">
        <ele>170.1</ele>
        <time>2020-06-10T17:39:25Z</time>
      </trkpt>
      <trkpt lat="48.56345" lon="-3.22593">
        <ele>169.9</ele>
        <time>2020-06-10T17:39:26Z</time>
      </trkpt>
      <trkpt lat="48.56345" lon="-3.22585">
        <ele>169.7</ele>
        <time>2020-06-10T17:39:27Z</time>
      </trkpt>
      <trkpt lat="48.56346" lon="-3.22574">
        <ele>169.5</ele>
        <time>2020-06-10T17:39:28Z</time>
      </trkpt>
      <trkpt lat="48.56346" lon="-3.2256">
        <ele>169.1</ele>
        <time>2020-06-10T17:39:29Z</time>
      </trkpt>
      <trkpt lat="48.56346" lon="-3.22549">
        <ele>168.9</ele>
        <time>2020-06-10T17:39:30Z</time>
      </trkpt>
      <trkpt lat="48.56346" lon="-3.22538">
        <ele>168.6</ele>
        <time>2020-06-10T17:39:31Z</time>
      </trkpt>
      <trkpt lat="48.56347" lon="-3.22525">
        <ele>168.2</ele>
        <time>2020-06-10T17:39:32Z</time>
      </trkpt>
      <trkpt lat="48.56347" lon="-3.22514">
        <ele>167.9</ele>
        <time>2020-06-10T17:39:33Z</time>
      </trkpt>
      <trkpt lat="48.56348" lon="-3.22503">
        <ele>167.6</ele>
        <time>2020-06-10T17:39:34Z</time>
      </trkpt>
      <trkpt lat="48.56349" lon="-3.22491">
        <ele>167.3</ele>
        <time>2020-06-10T17:39:35Z</time>
      </trkpt>
      <trkpt lat="48.56349" lon="-3.22478">
        <ele>166.8</ele>
        <time>2020-06-10T17:39:36Z</time>
      </trkpt>
      <trkpt lat="48.56349" lon="-3.22466">
        <ele>166.4</ele>
        <time>2020-06-10T17:39:37Z</time>
      </trkpt>
      <trkpt lat="48.5635" lon="-3.22454">
        <ele>165.9</ele>
        <time>2020-06-10T17:39:38Z</time>
      </trkpt>
      <trkpt lat="48.5635" lon="-3.22442">
        <ele>165.5</ele>
        <time>2020-06-10T17:39:39Z</time>
      </trkpt>
      <trkpt lat="48.56351" lon="-3.2243">
        <ele>165</ele>
        <time>2020-06-10T17:39:40Z</time>
      </trkpt>
      <trkpt lat="48.56351" lon="-3.22417">
        <ele>164.5</ele>
        <time>2020-06-10T17:39:41Z</time>
      </trkpt>
      <trkpt lat="48.56352" lon="-3.22405">
        <ele>164.1</ele>
        <time>2020-06-10T17:39:42Z</time>
      </trkpt>
      <trkpt lat="48.56353" lon="-3.22392">
        <ele>163.7</ele>
        <time>2020-06-10T17:39:43Z</time>
      </trkpt>
      <trkpt lat="48.56353" lon="-3.22379">
        <ele>163.3</ele>
        <time>2020-06-10T17:39:44Z</time>
      </trkpt>
      <trkpt lat="48.56354" lon="-3.22365">
        <ele>162.9</ele>
        <time>2020-06-10T17:39:45Z</time>
      </trkpt>
      <trkpt lat="48.56354" lon="-3.22352">
        <ele>162.5</ele>
        <time>2020-06-10T17:39:46Z</time>
      </trkpt>
      <trkpt lat="48.56355" lon="-3.22339">
        <ele>162</ele>
        <time>2020-06-10T17:39:47Z</time>
      </trkpt>
      <trkpt lat="48.56356" lon="-3.22325">
        <ele>161.6</ele>
        <time>2020-06-10T17:39:48Z</time>
      </trkpt>
      <trkpt lat="48.56357" lon="-3.22312">
        <ele>161.1</ele>
        <time>2020-06-10T17:39:49Z</time>
      </trkpt>
      <trkpt lat="48.56357" lon="-3.22298">
        <ele>160.7</ele>
        <time>2020-06-10T17:39:50Z</time>
      </trkpt>
      <trkpt lat="48.56357" lon="-3.22284">
        <ele>160.4</ele>
        <time>2020-06-10T17:39:51Z</time>
      </trkpt>
      <trkpt lat="48.56358" lon="-3.22271">
        <ele>159.8</ele>
        <time>2020-06-10T17:39:52Z</time>
      </trkpt>
      <trkpt lat="48.56358" lon="-3.22258">
        <ele>159.6</ele>
        <time>2020-06-10T17:39:53Z</time>
      </trkpt>
      <trkpt lat="48.56358" lon="-3.22244">
        <ele>159.3</ele>
        <time>2020-06-10T17:39:54Z</time>
      </trkpt>
      <trkpt lat="48.56358" lon="-3.22231">
        <ele>159</ele>
        <time>2020-06-10T17:39:55Z</time>
      </trkpt>
      <trkpt lat="48.56358" lon="-3.22217">
        <ele>158.6</ele>
        <time>2020-06-10T17:39:56Z</time>
      </trkpt>
      <trkpt lat="48.56359" lon="-3.22204">
        <ele>158.3</ele>
        <time>2020-06-10T17:39:57Z</time>
      </trkpt>
      <trkpt lat="48.56358" lon="-3.22191">
        <ele>157.9</ele>
        <time>2020-06-10T17:39:58Z</time>
      </trkpt>
      <trkpt lat="48.56358" lon="-3.22179">
        <ele>157.6</ele>
        <time>2020-06-10T17:39:59Z</time>
      </trkpt>
      <trkpt lat="48.56357" lon="-3.22166">
        <ele>157.3</ele>
        <time>2020-06-10T17:40:00Z</time>
      </trkpt>
      <trkpt lat="48.56356" lon="-3.22152">
        <ele>156.9</ele>
        <time>2020-06-10T17:40:01Z</time>
      </trkpt>
      <trkpt lat="48.56355" lon="-3.22138">
        <ele>156.6</ele>
        <time>2020-06-10T17:40:02Z</time>
      </trkpt>
      <trkpt lat="48.56354" lon="-3.22125">
        <ele>156.3</ele>
        <time>2020-06-10T17:40:03Z</time>
      </trkpt>
      <trkpt lat="48.56353" lon="-3.22111">
        <ele>156.1</ele>
        <time>2020-06-10T17:40:04Z</time>
      </trkpt>
      <trkpt lat="48.56352" lon="-3.22097">
        <ele>155.8</ele>
        <time>2020-06-10T17:40:05Z</time>
      </trkpt>
      <trkpt lat="48.56349" lon="-3.22083">
        <ele>155.6</ele>
        <time>2020-06-10T17:40:06Z</time>
      </trkpt>
      <trkpt lat="48.56347" lon="-3.2207">
        <ele>155.3</ele>
        <time>2020-06-10T17:40:07Z</time>
      </trkpt>
      <trkpt lat="48.56346" lon="-3.22056">
        <ele>155.1</ele>
        <time>2020-06-10T17:40:08Z</time>
      </trkpt>
      <trkpt lat="48.56344" lon="-3.22043">
        <ele>155</ele>
        <time>2020-06-10T17:40:09Z</time>
      </trkpt>
      <trkpt lat="48.56343" lon="-3.22029">
        <ele>154.8</ele>
        <time>2020-06-10T17:40:10Z</time>
      </trkpt>
      <trkpt lat="48.56341" lon="-3.22015">
        <ele>154.7</ele>
        <time>2020-06-10T17:40:11Z</time>
      </trkpt>
      <trkpt lat="48.5634" lon="-3.22002">
        <ele>154.6</ele>
        <time>2020-06-10T17:40:12Z</time>
      </trkpt>
      <trkpt lat="48.56337" lon="-3.21989">
        <ele>154.5</ele>
        <time>2020-06-10T17:40:13Z</time>
      </trkpt>
      <trkpt lat="48.56336" lon="-3.21975">
        <ele>154.5</ele>
        <time>2020-06-10T17:40:14Z</time>
      </trkpt>
      <trkpt lat="48.56333" lon="-3.21962">
        <ele>154.4</ele>
        <time>2020-06-10T17:40:15Z</time>
      </trkpt>
      <trkpt lat="48.56331" lon="-3.21949">
        <ele>154.3</ele>
        <time>2020-06-10T17:40:16Z</time>
      </trkpt>
      <trkpt lat="48.5633" lon="-3.21936">
        <ele>154.3</ele>
        <time>2020-06-10T17:40:17Z</time>
      </trkpt>
      <trkpt lat="48.56329" lon="-3.21923">
        <ele>154.2</ele>
        <time>2020-06-10T17:40:18Z</time>
      </trkpt>
      <trkpt lat="48.56327" lon="-3.21911">
        <ele>154.1</ele>
        <time>2020-06-10T17:40:19Z</time>
      </trkpt>
      <trkpt lat="48.56326" lon="-3.21898">
        <ele>154.1</ele>
        <time>2020-06-10T17:40:20Z</time>
      </trkpt>
      <trkpt lat="48.56324" lon="-3.21885">
        <ele>154</ele>
        <time>2020-06-10T17:40:21Z</time>
      </trkpt>
      <trkpt lat="48.56322" lon="-3.21872">
        <ele>154</ele>
        <time>2020-06-10T17:40:22Z</time>
      </trkpt>
      <trkpt lat="48.5632" lon="-3.2186">
        <ele>154</ele>
        <time>2020-06-10T17:40:23Z</time>
      </trkpt>
      <trkpt lat="48.56319" lon="-3.21847">
        <ele>154</ele>
        <time>2020-06-10T17:40:24Z</time>
      </trkpt>
      <trkpt lat="48.56317" lon="-3.21834">
        <ele>154</ele>
        <time>2020-06-10T17:40:25Z</time>
      </trkpt>
      <trkpt lat="48.56315" lon="-3.21822">
        <ele>154</ele>
        <time>2020-06-10T17:40:26Z</time>
      </trkpt>
      <trkpt lat="48.56314" lon="-3.21809">
        <ele>154</ele>
        <time>2020-06-10T17:40:27Z</time>
      </trkpt>
      <trkpt lat="48.56313" lon="-3.21797">
        <ele>154</ele>
        <time>2020-06-10T17:40:28Z</time>
      </trkpt>
      <trkpt lat="48.56311" lon="-3.21785">
        <ele>154</ele>
        <time>2020-06-10T17:40:29Z</time>
      </trkpt>
      <trkpt lat="48.56309" lon="-3.21773">
        <ele>154</ele>
        <time>2020-06-10T17:40:30Z</time>
      </trkpt>
      <trkpt lat="48.56307" lon="-3.2176">
        <ele>154.1</ele>
        <time>2020-06-10T17:40:31Z</time>
      </trkpt>
      <trkpt lat="48.56306" lon="-3.21748">
        <ele>154.2</ele>
        <time>2020-06-10T17:40:32Z</time>
      </trkpt>
      <trkpt lat="48.56305" lon="-3.21737">
        <ele>154.2</ele>
        <time>2020-06-10T17:40:33Z</time>
      </trkpt>
      <trkpt lat="48.56303" lon="-3.21725">
        <ele>154.2</ele>
        <time>2020-06-10T17:40:34Z</time>
      </trkpt>
      <trkpt lat="48.56302" lon="-3.21714">
        <ele>154.2</ele>
        <time>2020-06-10T17:40:35Z</time>
      </trkpt>
      <trkpt lat="48.56301" lon="-3.21703">
        <ele>154.2</ele>
        <time>2020-06-10T17:40:36Z</time>
      </trkpt>
      <trkpt lat="48.563" lon="-3.21692">
        <ele>154.2</ele>
        <time>2020-06-10T17:40:37Z</time>
      </trkpt>
      <trkpt lat="48.563" lon="-3.21681">
        <ele>154.2</ele>
        <time>2020-06-10T17:40:38Z</time>
      </trkpt>
      <trkpt lat="48.56299" lon="-3.21671">
        <ele>154.2</ele>
        <time>2020-06-10T17:40:39Z</time>
      </trkpt>
      <trkpt lat="48.56298" lon="-3.21662">
        <ele>154.2</ele>
        <time>2020-06-10T17:40:40Z</time>
      </trkpt>
      <trkpt lat="48.56298" lon="-3.21653">
        <ele>154.2</ele>
        <time>2020-06-10T17:40:41Z</time>
      </trkpt>
      <trkpt lat="48.56298" lon="-3.21645">
        <ele>154.2</ele>
        <time>2020-06-10T17:40:42Z</time>
      </trkpt>
      <trkpt lat="48.56297" lon="-3.21636">
        <ele>154.2</ele>
        <time>2020-06-10T17:40:43Z</time>
      </trkpt>
      <trkpt lat="48.56298" lon="-3.21628">
        <ele>154.2</ele>
        <time>2020-06-10T17:40:44Z</time>
      </trkpt>
      <trkpt lat="48.56299" lon="-3.21619">
        <ele>154.2</ele>
        <time>2020-06-10T17:40:45Z</time>
      </trkpt>
      <trkpt lat="48.563" lon="-3.21611">
        <ele>154.2</ele>
        <time>2020-06-10T17:40:46Z</time>
      </trkpt>
      <trkpt lat="48.56301" lon="-3.21603">
        <ele>154.2</ele>
        <time>2020-06-10T17:40:47Z</time>
      </trkpt>
      <trkpt lat="48.56303" lon="-3.21595">
        <ele>154.2</ele>
        <time>2020-06-10T17:40:48Z</time>
      </trkpt>
      <trkpt lat="48.56304" lon="-3.21586">
        <ele>154.2</ele>
        <time>2020-06-10T17:40:49Z</time>
      </trkpt>
      <trkpt lat="48.56304" lon="-3.21577">
        <ele>154.2</ele>
        <time>2020-06-10T17:40:50Z</time>
      </trkpt>
      <trkpt lat="48.56305" lon="-3.21569">
        <ele>154.1</ele>
        <time>2020-06-10T17:40:51Z</time>
      </trkpt>
      <trkpt lat="48.56303" lon="-3.2156">
        <ele>154.1</ele>
        <time>2020-06-10T17:40:52Z</time>
      </trkpt>
      <trkpt lat="48.56303" lon="-3.21551">
        <ele>154.1</ele>
        <time>2020-06-10T17:40:53Z</time>
      </trkpt>
      <trkpt lat="48.56304" lon="-3.21542">
        <ele>154</ele>
        <time>2020-06-10T17:40:54Z</time>
      </trkpt>
      <trkpt lat="48.56305" lon="-3.21534">
        <ele>153.9</ele>
        <time>2020-06-10T17:40:55Z</time>
      </trkpt>
      <trkpt lat="48.56306" lon="-3.21526">
        <ele>153.9</ele>
        <time>2020-06-10T17:40:56Z</time>
      </trkpt>
      <trkpt lat="48.56307" lon="-3.21518">
        <ele>153.8</ele>
        <time>2020-06-10T17:40:57Z</time>
      </trkpt>
      <trkpt lat="48.56308" lon="-3.2151">
        <ele>153.7</ele>
        <time>2020-06-10T17:40:58Z</time>
      </trkpt>
      <trkpt lat="48.56309" lon="-3.21502">
        <ele>153.6</ele>
        <time>2020-06-10T17:40:59Z</time>
      </trkpt>
      <trkpt lat="48.5631" lon="-3.21493">
        <ele>153.5</ele>
        <time>2020-06-10T17:41:00Z</time>
      </trkpt>
      <trkpt lat="48.56312" lon="-3.21485">
        <ele>153.4</ele>
        <time>2020-06-10T17:41:01Z</time>
      </trkpt>
      <trkpt lat="48.56313" lon="-3.21476">
        <ele>153.3</ele>
        <time>2020-06-10T17:41:02Z</time>
      </trkpt>
      <trkpt lat="48.56314" lon="-3.21467">
        <ele>153.2</ele>
        <time>2020-06-10T17:41:03Z</time>
      </trkpt>
      <trkpt lat="48.56315" lon="-3.21458">
        <ele>153</ele>
        <time>2020-06-10T17:41:04Z</time>
      </trkpt>
      <trkpt lat="48.56316" lon="-3.2145">
        <ele>152.9</ele>
        <time>2020-06-10T17:41:05Z</time>
      </trkpt>
      <trkpt lat="48.56317" lon="-3.21441">
        <ele>152.8</ele>
        <time>2020-06-10T17:41:06Z</time>
      </trkpt>
      <trkpt lat="48.56319" lon="-3.21433">
        <ele>152.7</ele>
        <time>2020-06-10T17:41:07Z</time>
      </trkpt>
      <trkpt lat="48.56321" lon="-3.21425">
        <ele>152.5</ele>
        <time>2020-06-10T17:41:08Z</time>
      </trkpt>
      <trkpt lat="48.56323" lon="-3.21417">
        <ele>152.4</ele>
        <time>2020-06-10T17:41:09Z</time>
      </trkpt>
      <trkpt lat="48.56325" lon="-3.21409">
        <ele>152.3</ele>
        <time>2020-06-10T17:41:10Z</time>
      </trkpt>
      <trkpt lat="48.56327" lon="-3.21401">
        <ele>152.1</ele>
        <time>2020-06-10T17:41:11Z</time>
      </trkpt>
      <trkpt lat="48.5633" lon="-3.21393">
        <ele>151.9</ele>
        <time>2020-06-10T17:41:12Z</time>
      </trkpt>
      <trkpt lat="48.56333" lon="-3.21385">
        <ele>151.8</ele>
        <time>2020-06-10T17:41:13Z</time>
      </trkpt>
      <trkpt lat="48.56335" lon="-3.21378">
        <ele>151.7</ele>
        <time>2020-06-10T17:41:14Z</time>
      </trkpt>
      <trkpt lat="48.56338" lon="-3.2137">
        <ele>151.6</ele>
        <time>2020-06-10T17:41:15Z</time>
      </trkpt>
      <trkpt lat="48.56341" lon="-3.21362">
        <ele>151.5</ele>
        <time>2020-06-10T17:41:16Z</time>
      </trkpt>
      <trkpt lat="48.56343" lon="-3.21353">
        <ele>151.4</ele>
        <time>2020-06-10T17:41:17Z</time>
      </trkpt>
      <trkpt lat="48.56346" lon="-3.21345">
        <ele>151.3</ele>
        <time>2020-06-10T17:41:18Z</time>
      </trkpt>
      <trkpt lat="48.56349" lon="-3.21337">
        <ele>151.2</ele>
        <time>2020-06-10T17:41:19Z</time>
      </trkpt>
      <trkpt lat="48.56352" lon="-3.2133">
        <ele>151.1</ele>
        <time>2020-06-10T17:41:20Z</time>
      </trkpt>
      <trkpt lat="48.56355" lon="-3.21322">
        <ele>151</ele>
        <time>2020-06-10T17:41:21Z</time>
      </trkpt>
      <trkpt lat="48.56358" lon="-3.21314">
        <ele>150.9</ele>
        <time>2020-06-10T17:41:22Z</time>
      </trkpt>
      <trkpt lat="48.56361" lon="-3.21307">
        <ele>150.8</ele>
        <time>2020-06-10T17:41:23Z</time>
      </trkpt>
      <trkpt lat="48.56364" lon="-3.213">
        <ele>150.7</ele>
        <time>2020-06-10T17:41:24Z</time>
      </trkpt>
      <trkpt lat="48.56368" lon="-3.21292">
        <ele>150.5</ele>
        <time>2020-06-10T17:41:25Z</time>
      </trkpt>
      <trkpt lat="48.56371" lon="-3.21284">
        <ele>150.4</ele>
        <time>2020-06-10T17:41:26Z</time>
      </trkpt>
      <trkpt lat="48.56374" lon="-3.21277">
        <ele>150.3</ele>
        <time>2020-06-10T17:41:27Z</time>
      </trkpt>
      <trkpt lat="48.56377" lon="-3.21269">
        <ele>150.1</ele>
        <time>2020-06-10T17:41:28Z</time>
      </trkpt>
      <trkpt lat="48.56381" lon="-3.21261">
        <ele>150</ele>
        <time>2020-06-10T17:41:29Z</time>
      </trkpt>
      <trkpt lat="48.56384" lon="-3.21253">
        <ele>149.9</ele>
        <time>2020-06-10T17:41:30Z</time>
      </trkpt>
      <trkpt lat="48.56387" lon="-3.21244">
        <ele>149.7</ele>
        <time>2020-06-10T17:41:31Z</time>
      </trkpt>
      <trkpt lat="48.5639" lon="-3.21237">
        <ele>149.6</ele>
        <time>2020-06-10T17:41:32Z</time>
      </trkpt>
      <trkpt lat="48.56393" lon="-3.21229">
        <ele>149.5</ele>
        <time>2020-06-10T17:41:33Z</time>
      </trkpt>
      <trkpt lat="48.56396" lon="-3.2122">
        <ele>149.3</ele>
        <time>2020-06-10T17:41:34Z</time>
      </trkpt>
      <trkpt lat="48.56399" lon="-3.21213">
        <ele>149.1</ele>
        <time>2020-06-10T17:41:35Z</time>
      </trkpt>
      <trkpt lat="48.56402" lon="-3.21206">
        <ele>149</ele>
        <time>2020-06-10T17:41:36Z</time>
      </trkpt>
      <trkpt lat="48.56405" lon="-3.21199">
        <ele>148.8</ele>
        <time>2020-06-10T17:41:37Z</time>
      </trkpt>
      <trkpt lat="48.56408" lon="-3.21192">
        <ele>148.6</ele>
        <time>2020-06-10T17:41:38Z</time>
      </trkpt>
      <trkpt lat="48.5641" lon="-3.21184">
        <ele>148.5</ele>
        <time>2020-06-10T17:41:39Z</time>
      </trkpt>
      <trkpt lat="48.56413" lon="-3.21177">
        <ele>148.3</ele>
        <time>2020-06-10T17:41:40Z</time>
      </trkpt>
      <trkpt lat="48.56417" lon="-3.2117">
        <ele>148.2</ele>
        <time>2020-06-10T17:41:41Z</time>
      </trkpt>
      <trkpt lat="48.56419" lon="-3.21161">
        <ele>148</ele>
        <time>2020-06-10T17:41:42Z</time>
      </trkpt>
      <trkpt lat="48.56422" lon="-3.21153">
        <ele>147.4</ele>
        <time>2020-06-10T17:41:43Z</time>
      </trkpt>
      <trkpt lat="48.56426" lon="-3.21145">
        <ele>147.1</ele>
        <time>2020-06-10T17:41:44Z</time>
      </trkpt>
      <trkpt lat="48.56428" lon="-3.21136">
        <ele>146.6</ele>
        <time>2020-06-10T17:41:45Z</time>
      </trkpt>
      <trkpt lat="48.56431" lon="-3.21127">
        <ele>146.2</ele>
        <time>2020-06-10T17:41:46Z</time>
      </trkpt>
      <trkpt lat="48.56434" lon="-3.21118">
        <ele>145.8</ele>
        <time>2020-06-10T17:41:47Z</time>
      </trkpt>
      <trkpt lat="48.56438" lon="-3.21108">
        <ele>145.2</ele>
        <time>2020-06-10T17:41:48Z</time>
      </trkpt>
      <trkpt lat="48.56441" lon="-3.21098">
        <ele>144.7</ele>
        <time>2020-06-10T17:41:49Z</time>
      </trkpt>
      <trkpt lat="48.56446" lon="-3.21087">
        <ele>144.1</ele>
        <time>2020-06-10T17:41:50Z</time>
      </trkpt>
      <trkpt lat="48.5645" lon="-3.21077">
        <ele>143.5</ele>
        <time>2020-06-10T17:41:51Z</time>
      </trkpt>
      <trkpt lat="48.56454" lon="-3.21067">
        <ele>142.9</ele>
        <time>2020-06-10T17:41:52Z</time>
      </trkpt>
      <trkpt lat="48.56459" lon="-3.21058">
        <ele>142.3</ele>
        <time>2020-06-10T17:41:53Z</time>
      </trkpt>
      <trkpt lat="48.56464" lon="-3.21048">
        <ele>141.7</ele>
        <time>2020-06-10T17:41:54Z</time>
      </trkpt>
      <trkpt lat="48.56469" lon="-3.21039">
        <ele>141.2</ele>
        <time>2020-06-10T17:41:55Z</time>
      </trkpt>
      <trkpt lat="48.56476" lon="-3.21031">
        <ele>140.7</ele>
        <time>2020-06-10T17:41:56Z</time>
      </trkpt>
      <trkpt lat="48.56483" lon="-3.21024">
        <ele>140.1</ele>
        <time>2020-06-10T17:41:57Z</time>
      </trkpt>
      <trkpt lat="48.56491" lon="-3.21016">
        <ele>139.7</ele>
        <time>2020-06-10T17:41:58Z</time>
      </trkpt>
      <trkpt lat="48.56499" lon="-3.21007">
        <ele>139.4</ele>
        <time>2020-06-10T17:41:59Z</time>
      </trkpt>
      <trkpt lat="48.56507" lon="-3.21">
        <ele>139.1</ele>
        <time>2020-06-10T17:42:00Z</time>
      </trkpt>
      <trkpt lat="48.56515" lon="-3.20992">
        <ele>138.8</ele>
        <time>2020-06-10T17:42:01Z</time>
      </trkpt>
      <trkpt lat="48.56523" lon="-3.20985">
        <ele>138.6</ele>
        <time>2020-06-10T17:42:02Z</time>
      </trkpt>
      <trkpt lat="48.56531" lon="-3.20977">
        <ele>138.5</ele>
        <time>2020-06-10T17:42:03Z</time>
      </trkpt>
      <trkpt lat="48.56538" lon="-3.20969">
        <ele>138.4</ele>
        <time>2020-06-10T17:42:04Z</time>
      </trkpt>
      <trkpt lat="48.56546" lon="-3.20961">
        <ele>138.3</ele>
        <time>2020-06-10T17:42:05Z</time>
      </trkpt>
      <trkpt lat="48.56554" lon="-3.20954">
        <ele>138</ele>
        <time>2020-06-10T17:42:06Z</time>
      </trkpt>
      <trkpt lat="48.56561" lon="-3.20946">
        <ele>137.2</ele>
        <time>2020-06-10T17:42:07Z</time>
      </trkpt>
      <trkpt lat="48.56569" lon="-3.20937">
        <ele>136.9</ele>
        <time>2020-06-10T17:42:08Z</time>
      </trkpt>
      <trkpt lat="48.56575" lon="-3.20927">
        <ele>136.7</ele>
        <time>2020-06-10T17:42:09Z</time>
      </trkpt>
      <trkpt lat="48.56579" lon="-3.20916">
        <ele>136.6</ele>
        <time>2020-06-10T17:42:10Z</time>
      </trkpt>
      <trkpt lat="48.56583" lon="-3.20903">
        <ele>136.4</ele>
        <time>2020-06-10T17:42:11Z</time>
      </trkpt>
      <trkpt lat="48.56585" lon="-3.20891">
        <ele>136.2</ele>
        <time>2020-06-10T17:42:12Z</time>
      </trkpt>
      <trkpt lat="48.56587" lon="-3.20879">
        <ele>136</ele>
        <time>2020-06-10T17:42:13Z</time>
      </trkpt>
      <trkpt lat="48.56588" lon="-3.20867">
        <ele>135.7</ele>
        <time>2020-06-10T17:42:14Z</time>
      </trkpt>
      <trkpt lat="48.56588" lon="-3.20854">
        <ele>135.4</ele>
        <time>2020-06-10T17:42:15Z</time>
      </trkpt>
      <trkpt lat="48.56589" lon="-3.20842">
        <ele>135.1</ele>
        <time>2020-06-10T17:42:16Z</time>
      </trkpt>
      <trkpt lat="48.56589" lon="-3.20829">
        <ele>134.7</ele>
        <time>2020-06-10T17:42:17Z</time>
      </trkpt>
      <trkpt lat="48.56589" lon="-3.20817">
        <ele>134.3</ele>
        <time>2020-06-10T17:42:18Z</time>
      </trkpt>
      <trkpt lat="48.56588" lon="-3.20805">
        <ele>133.9</ele>
        <time>2020-06-10T17:42:19Z</time>
      </trkpt>
      <trkpt lat="48.56587" lon="-3.20792">
        <ele>133.5</ele>
        <time>2020-06-10T17:42:20Z</time>
      </trkpt>
      <trkpt lat="48.56586" lon="-3.2078">
        <ele>133.1</ele>
        <time>2020-06-10T17:42:21Z</time>
      </trkpt>
      <trkpt lat="48.56585" lon="-3.20767">
        <ele>132.7</ele>
        <time>2020-06-10T17:42:22Z</time>
      </trkpt>
      <trkpt lat="48.56584" lon="-3.20755">
        <ele>132.2</ele>
        <time>2020-06-10T17:42:23Z</time>
      </trkpt>
      <trkpt lat="48.56582" lon="-3.20742">
        <ele>131.8</ele>
        <time>2020-06-10T17:42:24Z</time>
      </trkpt>
      <trkpt lat="48.5658" lon="-3.2073">
        <ele>131.3</ele>
        <time>2020-06-10T17:42:25Z</time>
      </trkpt>
      <trkpt lat="48.56578" lon="-3.20719">
        <ele>130.7</ele>
        <time>2020-06-10T17:42:26Z</time>
      </trkpt>
      <trkpt lat="48.56575" lon="-3.20707">
        <ele>130.2</ele>
        <time>2020-06-10T17:42:27Z</time>
      </trkpt>
      <trkpt lat="48.56572" lon="-3.20695">
        <ele>129.9</ele>
        <time>2020-06-10T17:42:28Z</time>
      </trkpt>
      <trkpt lat="48.56569" lon="-3.20684">
        <ele>129.6</ele>
        <time>2020-06-10T17:42:29Z</time>
      </trkpt>
      <trkpt lat="48.56566" lon="-3.20673">
        <ele>129.4</ele>
        <time>2020-06-10T17:42:30Z</time>
      </trkpt>
      <trkpt lat="48.56565" lon="-3.20662">
        <ele>129.2</ele>
        <time>2020-06-10T17:42:31Z</time>
      </trkpt>
      <trkpt lat="48.56563" lon="-3.20653">
        <ele>128.9</ele>
        <time>2020-06-10T17:42:32Z</time>
      </trkpt>
      <trkpt lat="48.56562" lon="-3.20643">
        <ele>128.8</ele>
        <time>2020-06-10T17:42:33Z</time>
      </trkpt>
      <trkpt lat="48.56561" lon="-3.20634">
        <ele>128.7</ele>
        <time>2020-06-10T17:42:34Z</time>
      </trkpt>
      <trkpt lat="48.5656" lon="-3.20628">
        <ele>128.6</ele>
        <time>2020-06-10T17:42:35Z</time>
      </trkpt>
      <trkpt lat="48.5656" lon="-3.20623">
        <ele>128.6</ele>
        <time>2020-06-10T17:42:36Z</time>
      </trkpt>
      <trkpt lat="48.56559" lon="-3.20617">
        <ele>128.6</ele>
        <time>2020-06-10T17:42:37Z</time>
      </trkpt>
      <trkpt lat="48.56559" lon="-3.20615">
        <ele>128.6</ele>
        <time>2020-06-10T17:42:38Z</time>
      </trkpt>
      <trkpt lat="48.56557" lon="-3.20611">
        <ele>128.6</ele>
        <time>2020-06-10T17:42:39Z</time>
      </trkpt>
      <trkpt lat="48.56556" lon="-3.20607">
        <ele>128.5</ele>
        <time>2020-06-10T17:42:40Z</time>
      </trkpt>
      <trkpt lat="48.56554" lon="-3.20603">
        <ele>128.5</ele>
        <time>2020-06-10T17:42:41Z</time>
      </trkpt>
      <trkpt lat="48.56551" lon="-3.206">
        <ele>128.5</ele>
        <time>2020-06-10T17:42:42Z</time>
      </trkpt>
      <trkpt lat="48.56549" lon="-3.20597">
        <ele>128.5</ele>
        <time>2020-06-10T17:42:43Z</time>
      </trkpt>
      <trkpt lat="48.56546" lon="-3.20594">
        <ele>128.5</ele>
        <time>2020-06-10T17:42:44Z</time>
      </trkpt>
      <trkpt lat="48.56544" lon="-3.20589">
        <ele>128.4</ele>
        <time>2020-06-10T17:42:45Z</time>
      </trkpt>
      <trkpt lat="48.56541" lon="-3.20585">
        <ele>128.4</ele>
        <time>2020-06-10T17:42:46Z</time>
      </trkpt>
      <trkpt lat="48.56538" lon="-3.2058">
        <ele>128.4</ele>
        <time>2020-06-10T17:42:47Z</time>
      </trkpt>
      <trkpt lat="48.56536" lon="-3.20574">
        <ele>128.4</ele>
        <time>2020-06-10T17:42:48Z</time>
      </trkpt>
      <trkpt lat="48.56534" lon="-3.20568">
        <ele>128.3</ele>
        <time>2020-06-10T17:42:49Z</time>
      </trkpt>
      <trkpt lat="48.56533" lon="-3.20561">
        <ele>128.3</ele>
        <time>2020-06-10T17:42:50Z</time>
      </trkpt>
      <trkpt lat="48.56532" lon="-3.20554">
        <ele>128.3</ele>
        <time>2020-06-10T17:42:51Z</time>
      </trkpt>
      <trkpt lat="48.56533" lon="-3.20546">
        <ele>128.3</ele>
        <time>2020-06-10T17:42:52Z</time>
      </trkpt>
      <trkpt lat="48.56534" lon="-3.20539">
        <ele>128.2</ele>
        <time>2020-06-10T17:42:53Z</time>
      </trkpt>
      <trkpt lat="48.56535" lon="-3.20532">
        <ele>128.2</ele>
        <time>2020-06-10T17:42:54Z</time>
      </trkpt>
      <trkpt lat="48.56537" lon="-3.20525">
        <ele>128.2</ele>
        <time>2020-06-10T17:42:55Z</time>
      </trkpt>
      <trkpt lat="48.56539" lon="-3.20518">
        <ele>128.2</ele>
        <time>2020-06-10T17:42:56Z</time>
      </trkpt>
      <trkpt lat="48.56541" lon="-3.20513">
        <ele>128.2</ele>
        <time>2020-06-10T17:42:57Z</time>
      </trkpt>
      <trkpt lat="48.56545" lon="-3.20509">
        <ele>128.2</ele>
        <time>2020-06-10T17:42:58Z</time>
      </trkpt>
      <trkpt lat="48.5655" lon="-3.20506">
        <ele>128.2</ele>
        <time>2020-06-10T17:42:59Z</time>
      </trkpt>
      <trkpt lat="48.56554" lon="-3.20503">
        <ele>128.2</ele>
        <time>2020-06-10T17:43:00Z</time>
      </trkpt>
      <trkpt lat="48.56558" lon="-3.205">
        <ele>128.3</ele>
        <time>2020-06-10T17:43:01Z</time>
      </trkpt>
      <trkpt lat="48.56562" lon="-3.20498">
        <ele>128.3</ele>
        <time>2020-06-10T17:43:02Z</time>
      </trkpt>
      <trkpt lat="48.56566" lon="-3.20497">
        <ele>128.4</ele>
        <time>2020-06-10T17:43:03Z</time>
      </trkpt>
      <trkpt lat="48.56571" lon="-3.20497">
        <ele>128.4</ele>
        <time>2020-06-10T17:43:04Z</time>
      </trkpt>
      <trkpt lat="48.56576" lon="-3.20497">
        <ele>128.4</ele>
        <time>2020-06-10T17:43:05Z</time>
      </trkpt>
      <trkpt lat="48.5658" lon="-3.20496">
        <ele>128.4</ele>
        <time>2020-06-10T17:43:06Z</time>
      </trkpt>
      <trkpt lat="48.56585" lon="-3.20496">
        <ele>128.3</ele>
        <time>2020-06-10T17:43:07Z</time>
      </trkpt>
      <trkpt lat="48.56589" lon="-3.20496">
        <ele>128.1</ele>
        <time>2020-06-10T17:43:08Z</time>
      </trkpt>
      <trkpt lat="48.56594" lon="-3.20494">
        <ele>128</ele>
        <time>2020-06-10T17:43:09Z</time>
      </trkpt>
      <trkpt lat="48.56598" lon="-3.20492">
        <ele>127.8</ele>
        <time>2020-06-10T17:43:10Z</time>
      </trkpt>
      <trkpt lat="48.56603" lon="-3.20488">
        <ele>127.7</ele>
        <time>2020-06-10T17:43:11Z</time>
      </trkpt>
      <trkpt lat="48.56607" lon="-3.2048">
        <ele>127.5</ele>
        <time>2020-06-10T17:43:12Z</time>
      </trkpt>
      <trkpt lat="48.56611" lon="-3.20473">
        <ele>127.4</ele>
        <time>2020-06-10T17:43:13Z</time>
      </trkpt>
      <trkpt lat="48.56615" lon="-3.20465">
        <ele>127.2</ele>
        <time>2020-06-10T17:43:14Z</time>
      </trkpt>
      <trkpt lat="48.56618" lon="-3.20458">
        <ele>127.1</ele>
        <time>2020-06-10T17:43:15Z</time>
      </trkpt>
      <trkpt lat="48.56621" lon="-3.20449">
        <ele>127</ele>
        <time>2020-06-10T17:43:16Z</time>
      </trkpt>
      <trkpt lat="48.56624" lon="-3.2044">
        <ele>126.9</ele>
        <time>2020-06-10T17:43:17Z</time>
      </trkpt>
      <trkpt lat="48.56627" lon="-3.20431">
        <ele>126.7</ele>
        <time>2020-06-10T17:43:18Z</time>
      </trkpt>
      <trkpt lat="48.56628" lon="-3.20421">
        <ele>126.6</ele>
        <time>2020-06-10T17:43:19Z</time>
      </trkpt>
      <trkpt lat="48.56631" lon="-3.20411">
        <ele>126.4</ele>
        <time>2020-06-10T17:43:20Z</time>
      </trkpt>
      <trkpt lat="48.56634" lon="-3.20401">
        <ele>126.2</ele>
        <time>2020-06-10T17:43:21Z</time>
      </trkpt>
      <trkpt lat="48.56636" lon="-3.20391">
        <ele>126.1</ele>
        <time>2020-06-10T17:43:22Z</time>
      </trkpt>
      <trkpt lat="48.56638" lon="-3.20381">
        <ele>125.9</ele>
        <time>2020-06-10T17:43:23Z</time>
      </trkpt>
      <trkpt lat="48.56639" lon="-3.20371">
        <ele>125.8</ele>
        <time>2020-06-10T17:43:24Z</time>
      </trkpt>
      <trkpt lat="48.5664" lon="-3.2036">
        <ele>125.7</ele>
        <time>2020-06-10T17:43:25Z</time>
      </trkpt>
      <trkpt lat="48.56641" lon="-3.20351">
        <ele>125.6</ele>
        <time>2020-06-10T17:43:26Z</time>
      </trkpt>
      <trkpt lat="48.56643" lon="-3.20341">
        <ele>125.5</ele>
        <time>2020-06-10T17:43:27Z</time>
      </trkpt>
      <trkpt lat="48.56645" lon="-3.20331">
        <ele>125.3</ele>
        <time>2020-06-10T17:43:28Z</time>
      </trkpt>
      <trkpt lat="48.56646" lon="-3.20321">
        <ele>125.2</ele>
        <time>2020-06-10T17:43:29Z</time>
      </trkpt>
      <trkpt lat="48.56645" lon="-3.2031">
        <ele>125</ele>
        <time>2020-06-10T17:43:30Z</time>
      </trkpt>
      <trkpt lat="48.56645" lon="-3.203">
        <ele>124.9</ele>
        <time>2020-06-10T17:43:31Z</time>
      </trkpt>
      <trkpt lat="48.56644" lon="-3.20289">
        <ele>124.7</ele>
        <time>2020-06-10T17:43:32Z</time>
      </trkpt>
      <trkpt lat="48.56642" lon="-3.20279">
        <ele>124.5</ele>
        <time>2020-06-10T17:43:33Z</time>
      </trkpt>
      <trkpt lat="48.5664" lon="-3.20269">
        <ele>124.3</ele>
        <time>2020-06-10T17:43:34Z</time>
      </trkpt>
      <trkpt lat="48.56638" lon="-3.20259">
        <ele>124.2</ele>
        <time>2020-06-10T17:43:35Z</time>
      </trkpt>
      <trkpt lat="48.56636" lon="-3.20249">
        <ele>124.1</ele>
        <time>2020-06-10T17:43:36Z</time>
      </trkpt>
      <trkpt lat="48.56634" lon="-3.2024">
        <ele>124</ele>
        <time>2020-06-10T17:43:37Z</time>
      </trkpt>
      <trkpt lat="48.56631" lon="-3.20232">
        <ele>124</ele>
        <time>2020-06-10T17:43:38Z</time>
      </trkpt>
      <trkpt lat="48.56629" lon="-3.20223">
        <ele>123.9</ele>
        <time>2020-06-10T17:43:39Z</time>
      </trkpt>
      <trkpt lat="48.56626" lon="-3.20214">
        <ele>123.8</ele>
        <time>2020-06-10T17:43:40Z</time>
      </trkpt>
      <trkpt lat="48.56624" lon="-3.20206">
        <ele>123.6</ele>
        <time>2020-06-10T17:43:41Z</time>
      </trkpt>
      <trkpt lat="48.56621" lon="-3.20197">
        <ele>123.5</ele>
        <time>2020-06-10T17:43:42Z</time>
      </trkpt>
      <trkpt lat="48.56619" lon="-3.20188">
        <ele>123.4</ele>
        <time>2020-06-10T17:43:43Z</time>
      </trkpt>
      <trkpt lat="48.56617" lon="-3.20179">
        <ele>123.2</ele>
        <time>2020-06-10T17:43:44Z</time>
      </trkpt>
      <trkpt lat="48.56614" lon="-3.20171">
        <ele>123.1</ele>
        <time>2020-06-10T17:43:45Z</time>
      </trkpt>
      <trkpt lat="48.56611" lon="-3.20162">
        <ele>123.1</ele>
        <time>2020-06-10T17:43:46Z</time>
      </trkpt>
      <trkpt lat="48.56609" lon="-3.20152">
        <ele>123</ele>
        <time>2020-06-10T17:43:47Z</time>
      </trkpt>
      <trkpt lat="48.56606" lon="-3.20143">
        <ele>122.9</ele>
        <time>2020-06-10T17:43:48Z</time>
      </trkpt>
      <trkpt lat="48.56604" lon="-3.20133">
        <ele>122.8</ele>
        <time>2020-06-10T17:43:49Z</time>
      </trkpt>
      <trkpt lat="48.56601" lon="-3.20124">
        <ele>122.7</ele>
        <time>2020-06-10T17:43:50Z</time>
      </trkpt>
      <trkpt lat="48.56599" lon="-3.20115">
        <ele>122.6</ele>
        <time>2020-06-10T17:43:51Z</time>
      </trkpt>
      <trkpt lat="48.56596" lon="-3.20106">
        <ele>122.6</ele>
        <time>2020-06-10T17:43:52Z</time>
      </trkpt>
      <trkpt lat="48.56593" lon="-3.20097">
        <ele>122.6</ele>
        <time>2020-06-10T17:43:53Z</time>
      </trkpt>
      <trkpt lat="48.5659" lon="-3.20088">
        <ele>122.6</ele>
        <time>2020-06-10T17:43:54Z</time>
      </trkpt>
      <trkpt lat="48.56587" lon="-3.20079">
        <ele>122.6</ele>
        <time>2020-06-10T17:43:55Z</time>
      </trkpt>
      <trkpt lat="48.56585" lon="-3.2007">
        <ele>122.6</ele>
        <time>2020-06-10T17:43:56Z</time>
      </trkpt>
      <trkpt lat="48.56582" lon="-3.20061">
        <ele>122.6</ele>
        <time>2020-06-10T17:43:57Z</time>
      </trkpt>
      <trkpt lat="48.5658" lon="-3.20052">
        <ele>122.6</ele>
        <time>2020-06-10T17:43:58Z</time>
      </trkpt>
      <trkpt lat="48.56579" lon="-3.20043">
        <ele>122.6</ele>
        <time>2020-06-10T17:43:59Z</time>
      </trkpt>
      <trkpt lat="48.56576" lon="-3.20034">
        <ele>122.5</ele>
        <time>2020-06-10T17:44:00Z</time>
      </trkpt>
      <trkpt lat="48.56574" lon="-3.20025">
        <ele>122.5</ele>
        <time>2020-06-10T17:44:01Z</time>
      </trkpt>
      <trkpt lat="48.56571" lon="-3.20017">
        <ele>122.1</ele>
        <time>2020-06-10T17:44:02Z</time>
      </trkpt>
      <trkpt lat="48.56569" lon="-3.20008">
        <ele>122.1</ele>
        <time>2020-06-10T17:44:03Z</time>
      </trkpt>
      <trkpt lat="48.56567" lon="-3.2">
        <ele>122</ele>
        <time>2020-06-10T17:44:04Z</time>
      </trkpt>
      <trkpt lat="48.56564" lon="-3.19992">
        <ele>122</ele>
        <time>2020-06-10T17:44:05Z</time>
      </trkpt>
      <trkpt lat="48.56562" lon="-3.19983">
        <ele>122</ele>
        <time>2020-06-10T17:44:06Z</time>
      </trkpt>
      <trkpt lat="48.5656" lon="-3.19975">
        <ele>121.9</ele>
        <time>2020-06-10T17:44:07Z</time>
      </trkpt>
      <trkpt lat="48.56558" lon="-3.19967">
        <ele>121.9</ele>
        <time>2020-06-10T17:44:08Z</time>
      </trkpt>
      <trkpt lat="48.56556" lon="-3.19959">
        <ele>122</ele>
        <time>2020-06-10T17:44:09Z</time>
      </trkpt>
      <trkpt lat="48.56554" lon="-3.1995">
        <ele>122</ele>
        <time>2020-06-10T17:44:10Z</time>
      </trkpt>
      <trkpt lat="48.56553" lon="-3.19941">
        <ele>122</ele>
        <time>2020-06-10T17:44:11Z</time>
      </trkpt>
      <trkpt lat="48.56552" lon="-3.19933">
        <ele>122</ele>
        <time>2020-06-10T17:44:12Z</time>
      </trkpt>
      <trkpt lat="48.56552" lon="-3.19924">
        <ele>122</ele>
        <time>2020-06-10T17:44:13Z</time>
      </trkpt>
      <trkpt lat="48.56552" lon="-3.19915">
        <ele>122.1</ele>
        <time>2020-06-10T17:44:14Z</time>
      </trkpt>
      <trkpt lat="48.56551" lon="-3.19906">
        <ele>122.1</ele>
        <time>2020-06-10T17:44:15Z</time>
      </trkpt>
      <trkpt lat="48.56552" lon="-3.19897">
        <ele>122.1</ele>
        <time>2020-06-10T17:44:16Z</time>
      </trkpt>
      <trkpt lat="48.56553" lon="-3.19889">
        <ele>122.1</ele>
        <time>2020-06-10T17:44:17Z</time>
      </trkpt>
      <trkpt lat="48.56553" lon="-3.1988">
        <ele>122.2</ele>
        <time>2020-06-10T17:44:18Z</time>
      </trkpt>
      <trkpt lat="48.56553" lon="-3.19871">
        <ele>122.2</ele>
        <time>2020-06-10T17:44:19Z</time>
      </trkpt>
      <trkpt lat="48.56553" lon="-3.19863">
        <ele>122.3</ele>
        <time>2020-06-10T17:44:20Z</time>
      </trkpt>
      <trkpt lat="48.56553" lon="-3.19855">
        <ele>122.3</ele>
        <time>2020-06-10T17:44:21Z</time>
      </trkpt>
      <trkpt lat="48.56553" lon="-3.19846">
        <ele>122.4</ele>
        <time>2020-06-10T17:44:22Z</time>
      </trkpt>
      <trkpt lat="48.56554" lon="-3.19838">
        <ele>122.5</ele>
        <time>2020-06-10T17:44:23Z</time>
      </trkpt>
      <trkpt lat="48.56555" lon="-3.19831">
        <ele>122.5</ele>
        <time>2020-06-10T17:44:24Z</time>
      </trkpt>
      <trkpt lat="48.56555" lon="-3.19823">
        <ele>122.5</ele>
        <time>2020-06-10T17:44:25Z</time>
      </trkpt>
      <trkpt lat="48.56555" lon="-3.19816">
        <ele>122.6</ele>
        <time>2020-06-10T17:44:26Z</time>
      </trkpt>
      <trkpt lat="48.56555" lon="-3.19809">
        <ele>122.6</ele>
        <time>2020-06-10T17:44:27Z</time>
      </trkpt>
      <trkpt lat="48.56556" lon="-3.19802">
        <ele>122.6</ele>
        <time>2020-06-10T17:44:28Z</time>
      </trkpt>
      <trkpt lat="48.56556" lon="-3.19796">
        <ele>122.7</ele>
        <time>2020-06-10T17:44:29Z</time>
      </trkpt>
      <trkpt lat="48.56556" lon="-3.1979">
        <ele>122.7</ele>
        <time>2020-06-10T17:44:30Z</time>
      </trkpt>
      <trkpt lat="48.56555" lon="-3.19784">
        <ele>122.8</ele>
        <time>2020-06-10T17:44:31Z</time>
      </trkpt>
      <trkpt lat="48.56556" lon="-3.19778">
        <ele>122.8</ele>
        <time>2020-06-10T17:44:32Z</time>
      </trkpt>
      <trkpt lat="48.56555" lon="-3.19773">
        <ele>122.9</ele>
        <time>2020-06-10T17:44:33Z</time>
      </trkpt>
      <trkpt lat="48.56555" lon="-3.19767">
        <ele>122.9</ele>
        <time>2020-06-10T17:44:34Z</time>
      </trkpt>
      <trkpt lat="48.56555" lon="-3.19761">
        <ele>122.9</ele>
        <time>2020-06-10T17:44:35Z</time>
      </trkpt>
      <trkpt lat="48.56555" lon="-3.19754">
        <ele>122.9</ele>
        <time>2020-06-10T17:44:36Z</time>
      </trkpt>
      <trkpt lat="48.56555" lon="-3.19747">
        <ele>122.9</ele>
        <time>2020-06-10T17:44:37Z</time>
      </trkpt>
      <trkpt lat="48.56555" lon="-3.19739">
        <ele>122.9</ele>
        <time>2020-06-10T17:44:38Z</time>
      </trkpt>
      <trkpt lat="48.56555" lon="-3.19731">
        <ele>122.9</ele>
        <time>2020-06-10T17:44:39Z</time>
      </trkpt>
      <trkpt lat="48.56555" lon="-3.19722">
        <ele>123</ele>
        <time>2020-06-10T17:44:40Z</time>
      </trkpt>
      <trkpt lat="48.56555" lon="-3.19713">
        <ele>123</ele>
        <time>2020-06-10T17:44:41Z</time>
      </trkpt>
      <trkpt lat="48.56555" lon="-3.19704">
        <ele>123.1</ele>
        <time>2020-06-10T17:44:42Z</time>
      </trkpt>
      <trkpt lat="48.56555" lon="-3.19694">
        <ele>123.1</ele>
        <time>2020-06-10T17:44:43Z</time>
      </trkpt>
      <trkpt lat="48.56555" lon="-3.19685">
        <ele>123.2</ele>
        <time>2020-06-10T17:44:44Z</time>
      </trkpt>
      <trkpt lat="48.56555" lon="-3.19676">
        <ele>123.3</ele>
        <time>2020-06-10T17:44:45Z</time>
      </trkpt>
      <trkpt lat="48.56555" lon="-3.19666">
        <ele>123.4</ele>
        <time>2020-06-10T17:44:46Z</time>
      </trkpt>
      <trkpt lat="48.56556" lon="-3.19657">
        <ele>123.5</ele>
        <time>2020-06-10T17:44:47Z</time>
      </trkpt>
      <trkpt lat="48.56557" lon="-3.19647">
        <ele>123.6</ele>
        <time>2020-06-10T17:44:48Z</time>
      </trkpt>
      <trkpt lat="48.56558" lon="-3.19638">
        <ele>123.7</ele>
        <time>2020-06-10T17:44:49Z</time>
      </trkpt>
      <trkpt lat="48.56558" lon="-3.19629">
        <ele>123.8</ele>
        <time>2020-06-10T17:44:50Z</time>
      </trkpt>
      <trkpt lat="48.56559" lon="-3.1962">
        <ele>123.9</ele>
        <time>2020-06-10T17:44:51Z</time>
      </trkpt>
      <trkpt lat="48.5656" lon="-3.19611">
        <ele>124.1</ele>
        <time>2020-06-10T17:44:52Z</time>
      </trkpt>
      <trkpt lat="48.56559" lon="-3.19601">
        <ele>124.3</ele>
        <time>2020-06-10T17:44:53Z</time>
      </trkpt>
      <trkpt lat="48.56559" lon="-3.19592">
        <ele>124.4</ele>
        <time>2020-06-10T17:44:54Z</time>
      </trkpt>
      <trkpt lat="48.5656" lon="-3.19584">
        <ele>124.5</ele>
        <time>2020-06-10T17:44:55Z</time>
      </trkpt>
      <trkpt lat="48.5656" lon="-3.19575">
        <ele>124.7</ele>
        <time>2020-06-10T17:44:56Z</time>
      </trkpt>
      <trkpt lat="48.56561" lon="-3.19566">
        <ele>124.8</ele>
        <time>2020-06-10T17:44:57Z</time>
      </trkpt>
      <trkpt lat="48.56563" lon="-3.19557">
        <ele>125</ele>
        <time>2020-06-10T17:44:58Z</time>
      </trkpt>
      <trkpt lat="48.56564" lon="-3.19547">
        <ele>125.1</ele>
        <time>2020-06-10T17:44:59Z</time>
      </trkpt>
      <trkpt lat="48.56565" lon="-3.19538">
        <ele>125.3</ele>
        <time>2020-06-10T17:45:00Z</time>
      </trkpt>
      <trkpt lat="48.56566" lon="-3.19531">
        <ele>125.4</ele>
        <time>2020-06-10T17:45:01Z</time>
      </trkpt>
      <trkpt lat="48.56567" lon="-3.19522">
        <ele>125.5</ele>
        <time>2020-06-10T17:45:02Z</time>
      </trkpt>
      <trkpt lat="48.56567" lon="-3.19514">
        <ele>125.6</ele>
        <time>2020-06-10T17:45:03Z</time>
      </trkpt>
      <trkpt lat="48.56568" lon="-3.19506">
        <ele>125.7</ele>
        <time>2020-06-10T17:45:04Z</time>
      </trkpt>
      <trkpt lat="48.56568" lon="-3.19497">
        <ele>125.8</ele>
        <time>2020-06-10T17:45:05Z</time>
      </trkpt>
      <trkpt lat="48.56569" lon="-3.1949">
        <ele>126</ele>
        <time>2020-06-10T17:45:06Z</time>
      </trkpt>
      <trkpt lat="48.5657" lon="-3.19484">
        <ele>126.1</ele>
        <time>2020-06-10T17:45:07Z</time>
      </trkpt>
      <trkpt lat="48.56571" lon="-3.19477">
        <ele>126.2</ele>
        <time>2020-06-10T17:45:08Z</time>
      </trkpt>
      <trkpt lat="48.56571" lon="-3.1947">
        <ele>126.3</ele>
        <time>2020-06-10T17:45:09Z</time>
      </trkpt>
      <trkpt lat="48.56572" lon="-3.19464">
        <ele>126.5</ele>
        <time>2020-06-10T17:45:10Z</time>
      </trkpt>
      <trkpt lat="48.56572" lon="-3.19456">
        <ele>126.6</ele>
        <time>2020-06-10T17:45:11Z</time>
      </trkpt>
      <trkpt lat="48.56573" lon="-3.19449">
        <ele>126.7</ele>
        <time>2020-06-10T17:45:12Z</time>
      </trkpt>
      <trkpt lat="48.56574" lon="-3.19441">
        <ele>126.9</ele>
        <time>2020-06-10T17:45:13Z</time>
      </trkpt>
      <trkpt lat="48.56575" lon="-3.19434">
        <ele>127</ele>
        <time>2020-06-10T17:45:14Z</time>
      </trkpt>
      <trkpt lat="48.56575" lon="-3.19427">
        <ele>127.2</ele>
        <time>2020-06-10T17:45:15Z</time>
      </trkpt>
      <trkpt lat="48.56576" lon="-3.19421">
        <ele>127.3</ele>
        <time>2020-06-10T17:45:16Z</time>
      </trkpt>
      <trkpt lat="48.56576" lon="-3.19415">
        <ele>127.4</ele>
        <time>2020-06-10T17:45:17Z</time>
      </trkpt>
      <trkpt lat="48.56577" lon="-3.19409">
        <ele>127.5</ele>
        <time>2020-06-10T17:45:18Z</time>
      </trkpt>
      <trkpt lat="48.56577" lon="-3.19403">
        <ele>127.7</ele>
        <time>2020-06-10T17:45:19Z</time>
      </trkpt>
      <trkpt lat="48.56577" lon="-3.19397">
        <ele>127.8</ele>
        <time>2020-06-10T17:45:20Z</time>
      </trkpt>
      <trkpt lat="48.56577" lon="-3.1939">
        <ele>127.9</ele>
        <time>2020-06-10T17:45:21Z</time>
      </trkpt>
      <trkpt lat="48.56578" lon="-3.19382">
        <ele>128</ele>
        <time>2020-06-10T17:45:22Z</time>
      </trkpt>
      <trkpt lat="48.56578" lon="-3.19375">
        <ele>128.1</ele>
        <time>2020-06-10T17:45:23Z</time>
      </trkpt>
      <trkpt lat="48.56578" lon="-3.19367">
        <ele>128.3</ele>
        <time>2020-06-10T17:45:24Z</time>
      </trkpt>
      <trkpt lat="48.56579" lon="-3.19361">
        <ele>128.4</ele>
        <time>2020-06-10T17:45:25Z</time>
      </trkpt>
      <trkpt lat="48.56579" lon="-3.19355">
        <ele>128.5</ele>
        <time>2020-06-10T17:45:26Z</time>
      </trkpt>
      <trkpt lat="48.5658" lon="-3.19348">
        <ele>128.6</ele>
        <time>2020-06-10T17:45:27Z</time>
      </trkpt>
      <trkpt lat="48.56581" lon="-3.19341">
        <ele>128.7</ele>
        <time>2020-06-10T17:45:28Z</time>
      </trkpt>
      <trkpt lat="48.56582" lon="-3.19334">
        <ele>128.8</ele>
        <time>2020-06-10T17:45:29Z</time>
      </trkpt>
      <trkpt lat="48.56582" lon="-3.19328">
        <ele>128.8</ele>
        <time>2020-06-10T17:45:30Z</time>
      </trkpt>
      <trkpt lat="48.56583" lon="-3.19323">
        <ele>128.9</ele>
        <time>2020-06-10T17:45:31Z</time>
      </trkpt>
      <trkpt lat="48.56584" lon="-3.19314">
        <ele>129</ele>
        <time>2020-06-10T17:45:32Z</time>
      </trkpt>
      <trkpt lat="48.56584" lon="-3.19308">
        <ele>129.1</ele>
        <time>2020-06-10T17:45:33Z</time>
      </trkpt>
      <trkpt lat="48.56585" lon="-3.19302">
        <ele>129.1</ele>
        <time>2020-06-10T17:45:34Z</time>
      </trkpt>
      <trkpt lat="48.56585" lon="-3.19296">
        <ele>129.2</ele>
        <time>2020-06-10T17:45:35Z</time>
      </trkpt>
      <trkpt lat="48.56585" lon="-3.1929">
        <ele>129.2</ele>
        <time>2020-06-10T17:45:36Z</time>
      </trkpt>
      <trkpt lat="48.56586" lon="-3.19283">
        <ele>129.3</ele>
        <time>2020-06-10T17:45:37Z</time>
      </trkpt>
      <trkpt lat="48.56586" lon="-3.19276">
        <ele>129.4</ele>
        <time>2020-06-10T17:45:38Z</time>
      </trkpt>
      <trkpt lat="48.56587" lon="-3.19269">
        <ele>129.4</ele>
        <time>2020-06-10T17:45:39Z</time>
      </trkpt>
      <trkpt lat="48.56587" lon="-3.19262">
        <ele>129.4</ele>
        <time>2020-06-10T17:45:40Z</time>
      </trkpt>
      <trkpt lat="48.56588" lon="-3.19256">
        <ele>129.4</ele>
        <time>2020-06-10T17:45:41Z</time>
      </trkpt>
      <trkpt lat="48.56588" lon="-3.1925">
        <ele>129.4</ele>
        <time>2020-06-10T17:45:42Z</time>
      </trkpt>
      <trkpt lat="48.56589" lon="-3.19242">
        <ele>129.4</ele>
        <time>2020-06-10T17:45:43Z</time>
      </trkpt>
      <trkpt lat="48.56589" lon="-3.19234">
        <ele>129.4</ele>
        <time>2020-06-10T17:45:44Z</time>
      </trkpt>
      <trkpt lat="48.5659" lon="-3.19227">
        <ele>129.4</ele>
        <time>2020-06-10T17:45:45Z</time>
      </trkpt>
      <trkpt lat="48.5659" lon="-3.1922">
        <ele>129.4</ele>
        <time>2020-06-10T17:45:46Z</time>
      </trkpt>
      <trkpt lat="48.56592" lon="-3.19214">
        <ele>129.4</ele>
        <time>2020-06-10T17:45:47Z</time>
      </trkpt>
      <trkpt lat="48.56592" lon="-3.19206">
        <ele>129.3</ele>
        <time>2020-06-10T17:45:48Z</time>
      </trkpt>
      <trkpt lat="48.56593" lon="-3.19197">
        <ele>129.3</ele>
        <time>2020-06-10T17:45:49Z</time>
      </trkpt>
      <trkpt lat="48.56593" lon="-3.19191">
        <ele>129.3</ele>
        <time>2020-06-10T17:45:50Z</time>
      </trkpt>
      <trkpt lat="48.56594" lon="-3.19185">
        <ele>129.3</ele>
        <time>2020-06-10T17:45:51Z</time>
      </trkpt>
      <trkpt lat="48.56594" lon="-3.19178">
        <ele>129.3</ele>
        <time>2020-06-10T17:45:52Z</time>
      </trkpt>
      <trkpt lat="48.56595" lon="-3.19172">
        <ele>129.3</ele>
        <time>2020-06-10T17:45:53Z</time>
      </trkpt>
      <trkpt lat="48.56595" lon="-3.19165">
        <ele>129.2</ele>
        <time>2020-06-10T17:45:54Z</time>
      </trkpt>
      <trkpt lat="48.56595" lon="-3.19156">
        <ele>129.2</ele>
        <time>2020-06-10T17:45:55Z</time>
      </trkpt>
      <trkpt lat="48.56595" lon="-3.19148">
        <ele>129.1</ele>
        <time>2020-06-10T17:45:56Z</time>
      </trkpt>
      <trkpt lat="48.56596" lon="-3.19143">
        <ele>129.1</ele>
        <time>2020-06-10T17:45:57Z</time>
      </trkpt>
      <trkpt lat="48.56597" lon="-3.19135">
        <ele>129</ele>
        <time>2020-06-10T17:45:58Z</time>
      </trkpt>
      <trkpt lat="48.56598" lon="-3.19128">
        <ele>128.9</ele>
        <time>2020-06-10T17:45:59Z</time>
      </trkpt>
      <trkpt lat="48.56598" lon="-3.1912">
        <ele>128.8</ele>
        <time>2020-06-10T17:46:00Z</time>
      </trkpt>
      <trkpt lat="48.56598" lon="-3.19111">
        <ele>128.7</ele>
        <time>2020-06-10T17:46:01Z</time>
      </trkpt>
      <trkpt lat="48.56599" lon="-3.19104">
        <ele>128.5</ele>
        <time>2020-06-10T17:46:02Z</time>
      </trkpt>
      <trkpt lat="48.566" lon="-3.19096">
        <ele>128.4</ele>
        <time>2020-06-10T17:46:03Z</time>
      </trkpt>
      <trkpt lat="48.566" lon="-3.19087">
        <ele>128.2</ele>
        <time>2020-06-10T17:46:04Z</time>
      </trkpt>
      <trkpt lat="48.56601" lon="-3.19079">
        <ele>128</ele>
        <time>2020-06-10T17:46:05Z</time>
      </trkpt>
      <trkpt lat="48.56601" lon="-3.19071">
        <ele>127.9</ele>
        <time>2020-06-10T17:46:06Z</time>
      </trkpt>
      <trkpt lat="48.56602" lon="-3.19061">
        <ele>127.7</ele>
        <time>2020-06-10T17:46:07Z</time>
      </trkpt>
      <trkpt lat="48.56603" lon="-3.19051">
        <ele>127.5</ele>
        <time>2020-06-10T17:46:08Z</time>
      </trkpt>
      <trkpt lat="48.56605" lon="-3.1904">
        <ele>127.2</ele>
        <time>2020-06-10T17:46:09Z</time>
      </trkpt>
      <trkpt lat="48.56606" lon="-3.19031">
        <ele>127.1</ele>
        <time>2020-06-10T17:46:10Z</time>
      </trkpt>
      <trkpt lat="48.56608" lon="-3.19022">
        <ele>126.9</ele>
        <time>2020-06-10T17:46:11Z</time>
      </trkpt>
      <trkpt lat="48.56609" lon="-3.19012">
        <ele>126.8</ele>
        <time>2020-06-10T17:46:12Z</time>
      </trkpt>
      <trkpt lat="48.5661" lon="-3.19003">
        <ele>126.7</ele>
        <time>2020-06-10T17:46:13Z</time>
      </trkpt>
      <trkpt lat="48.56611" lon="-3.18994">
        <ele>126.6</ele>
        <time>2020-06-10T17:46:14Z</time>
      </trkpt>
      <trkpt lat="48.56612" lon="-3.18985">
        <ele>126.5</ele>
        <time>2020-06-10T17:46:15Z</time>
      </trkpt>
      <trkpt lat="48.56613" lon="-3.18975">
        <ele>126.5</ele>
        <time>2020-06-10T17:46:16Z</time>
      </trkpt>
      <trkpt lat="48.56613" lon="-3.18966">
        <ele>126.5</ele>
        <time>2020-06-10T17:46:17Z</time>
      </trkpt>
      <trkpt lat="48.56614" lon="-3.18957">
        <ele>126.5</ele>
        <time>2020-06-10T17:46:18Z</time>
      </trkpt>
      <trkpt lat="48.56614" lon="-3.18949">
        <ele>126.5</ele>
        <time>2020-06-10T17:46:19Z</time>
      </trkpt>
      <trkpt lat="48.56616" lon="-3.1894">
        <ele>126.5</ele>
        <time>2020-06-10T17:46:20Z</time>
      </trkpt>
      <trkpt lat="48.56617" lon="-3.18931">
        <ele>126.5</ele>
        <time>2020-06-10T17:46:21Z</time>
      </trkpt>
      <trkpt lat="48.56617" lon="-3.18923">
        <ele>126.5</ele>
        <time>2020-06-10T17:46:22Z</time>
      </trkpt>
      <trkpt lat="48.56618" lon="-3.18914">
        <ele>126.5</ele>
        <time>2020-06-10T17:46:23Z</time>
      </trkpt>
      <trkpt lat="48.56619" lon="-3.18906">
        <ele>126.6</ele>
        <time>2020-06-10T17:46:24Z</time>
      </trkpt>
      <trkpt lat="48.5662" lon="-3.18898">
        <ele>126.6</ele>
        <time>2020-06-10T17:46:25Z</time>
      </trkpt>
      <trkpt lat="48.56621" lon="-3.1889">
        <ele>126.6</ele>
        <time>2020-06-10T17:46:26Z</time>
      </trkpt>
      <trkpt lat="48.56621" lon="-3.18882">
        <ele>126.7</ele>
        <time>2020-06-10T17:46:27Z</time>
      </trkpt>
      <trkpt lat="48.56622" lon="-3.18873">
        <ele>126.7</ele>
        <time>2020-06-10T17:46:28Z</time>
      </trkpt>
      <trkpt lat="48.56623" lon="-3.18865">
        <ele>126.7</ele>
        <time>2020-06-10T17:46:29Z</time>
      </trkpt>
      <trkpt lat="48.56625" lon="-3.18855">
        <ele>126.7</ele>
        <time>2020-06-10T17:46:30Z</time>
      </trkpt>
      <trkpt lat="48.56625" lon="-3.18846">
        <ele>126.7</ele>
        <time>2020-06-10T17:46:31Z</time>
      </trkpt>
      <trkpt lat="48.56626" lon="-3.18836">
        <ele>126.6</ele>
        <time>2020-06-10T17:46:32Z</time>
      </trkpt>
      <trkpt lat="48.56626" lon="-3.18826">
        <ele>126.6</ele>
        <time>2020-06-10T17:46:33Z</time>
      </trkpt>
      <trkpt lat="48.56627" lon="-3.18816">
        <ele>126.5</ele>
        <time>2020-06-10T17:46:34Z</time>
      </trkpt>
      <trkpt lat="48.56628" lon="-3.18807">
        <ele>126.4</ele>
        <time>2020-06-10T17:46:35Z</time>
      </trkpt>
      <trkpt lat="48.56629" lon="-3.18797">
        <ele>126.3</ele>
        <time>2020-06-10T17:46:36Z</time>
      </trkpt>
      <trkpt lat="48.5663" lon="-3.18787">
        <ele>126.3</ele>
        <time>2020-06-10T17:46:37Z</time>
      </trkpt>
      <trkpt lat="48.5663" lon="-3.18778">
        <ele>126.3</ele>
        <time>2020-06-10T17:46:38Z</time>
      </trkpt>
      <trkpt lat="48.56631" lon="-3.18768">
        <ele>126.3</ele>
        <time>2020-06-10T17:46:39Z</time>
      </trkpt>
      <trkpt lat="48.56632" lon="-3.18759">
        <ele>126.2</ele>
        <time>2020-06-10T17:46:40Z</time>
      </trkpt>
      <trkpt lat="48.56633" lon="-3.1875">
        <ele>126.2</ele>
        <time>2020-06-10T17:46:41Z</time>
      </trkpt>
      <trkpt lat="48.56634" lon="-3.18741">
        <ele>126.1</ele>
        <time>2020-06-10T17:46:42Z</time>
      </trkpt>
      <trkpt lat="48.56634" lon="-3.18731">
        <ele>126.1</ele>
        <time>2020-06-10T17:46:43Z</time>
      </trkpt>
      <trkpt lat="48.56635" lon="-3.18722">
        <ele>126</ele>
        <time>2020-06-10T17:46:44Z</time>
      </trkpt>
      <trkpt lat="48.56636" lon="-3.18712">
        <ele>126</ele>
        <time>2020-06-10T17:46:45Z</time>
      </trkpt>
      <trkpt lat="48.56637" lon="-3.18703">
        <ele>125.9</ele>
        <time>2020-06-10T17:46:46Z</time>
      </trkpt>
      <trkpt lat="48.56638" lon="-3.18694">
        <ele>125.9</ele>
        <time>2020-06-10T17:46:47Z</time>
      </trkpt>
      <trkpt lat="48.56639" lon="-3.18685">
        <ele>125.8</ele>
        <time>2020-06-10T17:46:48Z</time>
      </trkpt>
      <trkpt lat="48.5664" lon="-3.18676">
        <ele>125.7</ele>
        <time>2020-06-10T17:46:49Z</time>
      </trkpt>
      <trkpt lat="48.56641" lon="-3.18667">
        <ele>125.6</ele>
        <time>2020-06-10T17:46:50Z</time>
      </trkpt>
      <trkpt lat="48.56641" lon="-3.18658">
        <ele>125.5</ele>
        <time>2020-06-10T17:46:51Z</time>
      </trkpt>
      <trkpt lat="48.56641" lon="-3.18649">
        <ele>125.4</ele>
        <time>2020-06-10T17:46:52Z</time>
      </trkpt>
      <trkpt lat="48.56641" lon="-3.1864">
        <ele>125.3</ele>
        <time>2020-06-10T17:46:53Z</time>
      </trkpt>
      <trkpt lat="48.56642" lon="-3.18632">
        <ele>125.2</ele>
        <time>2020-06-10T17:46:54Z</time>
      </trkpt>
      <trkpt lat="48.56643" lon="-3.18624">
        <ele>125.1</ele>
        <time>2020-06-10T17:46:55Z</time>
      </trkpt>
      <trkpt lat="48.56644" lon="-3.18616">
        <ele>124.9</ele>
        <time>2020-06-10T17:46:56Z</time>
      </trkpt>
      <trkpt lat="48.56645" lon="-3.18607">
        <ele>124.8</ele>
        <time>2020-06-10T17:46:57Z</time>
      </trkpt>
      <trkpt lat="48.56646" lon="-3.18599">
        <ele>124.6</ele>
        <time>2020-06-10T17:46:58Z</time>
      </trkpt>
      <trkpt lat="48.56646" lon="-3.1859">
        <ele>124.4</ele>
        <time>2020-06-10T17:46:59Z</time>
      </trkpt>
      <trkpt lat="48.56646" lon="-3.18581">
        <ele>124.2</ele>
        <time>2020-06-10T17:47:00Z</time>
      </trkpt>
      <trkpt lat="48.5665" lon="-3.18572">
        <ele>124</ele>
        <time>2020-06-10T17:47:01Z</time>
      </trkpt>
      <trkpt lat="48.56651" lon="-3.18563">
        <ele>123.7</ele>
        <time>2020-06-10T17:47:02Z</time>
      </trkpt>
      <trkpt lat="48.56652" lon="-3.18552">
        <ele>123.4</ele>
        <time>2020-06-10T17:47:03Z</time>
      </trkpt>
      <trkpt lat="48.56654" lon="-3.18542">
        <ele>123.1</ele>
        <time>2020-06-10T17:47:04Z</time>
      </trkpt>
      <trkpt lat="48.56655" lon="-3.18532">
        <ele>122.8</ele>
        <time>2020-06-10T17:47:05Z</time>
      </trkpt>
      <trkpt lat="48.56656" lon="-3.18521">
        <ele>122.4</ele>
        <time>2020-06-10T17:47:06Z</time>
      </trkpt>
      <trkpt lat="48.56657" lon="-3.1851">
        <ele>122</ele>
        <time>2020-06-10T17:47:07Z</time>
      </trkpt>
      <trkpt lat="48.56658" lon="-3.18499">
        <ele>121.7</ele>
        <time>2020-06-10T17:47:08Z</time>
      </trkpt>
      <trkpt lat="48.56658" lon="-3.18487">
        <ele>121.2</ele>
        <time>2020-06-10T17:47:09Z</time>
      </trkpt>
      <trkpt lat="48.5666" lon="-3.18475">
        <ele>120.9</ele>
        <time>2020-06-10T17:47:10Z</time>
      </trkpt>
      <trkpt lat="48.56661" lon="-3.18463">
        <ele>120.5</ele>
        <time>2020-06-10T17:47:11Z</time>
      </trkpt>
      <trkpt lat="48.56662" lon="-3.18451">
        <ele>120.1</ele>
        <time>2020-06-10T17:47:12Z</time>
      </trkpt>
      <trkpt lat="48.56663" lon="-3.18439">
        <ele>119.8</ele>
        <time>2020-06-10T17:47:13Z</time>
      </trkpt>
      <trkpt lat="48.56664" lon="-3.18427">
        <ele>119.4</ele>
        <time>2020-06-10T17:47:14Z</time>
      </trkpt>
      <trkpt lat="48.56664" lon="-3.18415">
        <ele>118.9</ele>
        <time>2020-06-10T17:47:15Z</time>
      </trkpt>
      <trkpt lat="48.56665" lon="-3.18403">
        <ele>118.5</ele>
        <time>2020-06-10T17:47:16Z</time>
      </trkpt>
      <trkpt lat="48.56665" lon="-3.18391">
        <ele>118</ele>
        <time>2020-06-10T17:47:17Z</time>
      </trkpt>
      <trkpt lat="48.56666" lon="-3.18378">
        <ele>117.7</ele>
        <time>2020-06-10T17:47:18Z</time>
      </trkpt>
      <trkpt lat="48.56667" lon="-3.18365">
        <ele>117.3</ele>
        <time>2020-06-10T17:47:19Z</time>
      </trkpt>
      <trkpt lat="48.56667" lon="-3.18352">
        <ele>116.8</ele>
        <time>2020-06-10T17:47:20Z</time>
      </trkpt>
      <trkpt lat="48.56667" lon="-3.18339">
        <ele>116.2</ele>
        <time>2020-06-10T17:47:21Z</time>
      </trkpt>
      <trkpt lat="48.56667" lon="-3.18326">
        <ele>115.6</ele>
        <time>2020-06-10T17:47:22Z</time>
      </trkpt>
      <trkpt lat="48.56667" lon="-3.18312">
        <ele>115.2</ele>
        <time>2020-06-10T17:47:23Z</time>
      </trkpt>
      <trkpt lat="48.56667" lon="-3.18299">
        <ele>114.8</ele>
        <time>2020-06-10T17:47:24Z</time>
      </trkpt>
      <trkpt lat="48.56668" lon="-3.18285">
        <ele>114.5</ele>
        <time>2020-06-10T17:47:25Z</time>
      </trkpt>
      <trkpt lat="48.56668" lon="-3.18272">
        <ele>114.3</ele>
        <time>2020-06-10T17:47:26Z</time>
      </trkpt>
      <trkpt lat="48.56669" lon="-3.18259">
        <ele>114.1</ele>
        <time>2020-06-10T17:47:27Z</time>
      </trkpt>
      <trkpt lat="48.5667" lon="-3.18246">
        <ele>114</ele>
        <time>2020-06-10T17:47:28Z</time>
      </trkpt>
      <trkpt lat="48.56672" lon="-3.18234">
        <ele>113.9</ele>
        <time>2020-06-10T17:47:29Z</time>
      </trkpt>
      <trkpt lat="48.56674" lon="-3.18223">
        <ele>113.8</ele>
        <time>2020-06-10T17:47:30Z</time>
      </trkpt>
      <trkpt lat="48.56676" lon="-3.18212">
        <ele>113.6</ele>
        <time>2020-06-10T17:47:31Z</time>
      </trkpt>
      <trkpt lat="48.56678" lon="-3.18202">
        <ele>113.7</ele>
        <time>2020-06-10T17:47:32Z</time>
      </trkpt>
      <trkpt lat="48.56681" lon="-3.18192">
        <ele>113.7</ele>
        <time>2020-06-10T17:47:33Z</time>
      </trkpt>
      <trkpt lat="48.56683" lon="-3.18182">
        <ele>113.7</ele>
        <time>2020-06-10T17:47:34Z</time>
      </trkpt>
      <trkpt lat="48.56686" lon="-3.18172">
        <ele>113.7</ele>
        <time>2020-06-10T17:47:35Z</time>
      </trkpt>
      <trkpt lat="48.56689" lon="-3.18162">
        <ele>113.7</ele>
        <time>2020-06-10T17:47:36Z</time>
      </trkpt>
      <trkpt lat="48.56691" lon="-3.18153">
        <ele>113.6</ele>
        <time>2020-06-10T17:47:37Z</time>
      </trkpt>
      <trkpt lat="48.56694" lon="-3.18144">
        <ele>113.6</ele>
        <time>2020-06-10T17:47:38Z</time>
      </trkpt>
      <trkpt lat="48.56696" lon="-3.18135">
        <ele>113.6</ele>
        <time>2020-06-10T17:47:39Z</time>
      </trkpt>
      <trkpt lat="48.56699" lon="-3.18127">
        <ele>113.6</ele>
        <time>2020-06-10T17:47:40Z</time>
      </trkpt>
      <trkpt lat="48.56701" lon="-3.18118">
        <ele>113.5</ele>
        <time>2020-06-10T17:47:41Z</time>
      </trkpt>
      <trkpt lat="48.56703" lon="-3.1811">
        <ele>113.5</ele>
        <time>2020-06-10T17:47:42Z</time>
      </trkpt>
      <trkpt lat="48.56705" lon="-3.18102">
        <ele>113.5</ele>
        <time>2020-06-10T17:47:43Z</time>
      </trkpt>
      <trkpt lat="48.56707" lon="-3.18094">
        <ele>113.5</ele>
        <time>2020-06-10T17:47:44Z</time>
      </trkpt>
      <trkpt lat="48.56709" lon="-3.18086">
        <ele>113.4</ele>
        <time>2020-06-10T17:47:45Z</time>
      </trkpt>
      <trkpt lat="48.56711" lon="-3.18078">
        <ele>113.3</ele>
        <time>2020-06-10T17:47:46Z</time>
      </trkpt>
      <trkpt lat="48.56712" lon="-3.1807">
        <ele>113.3</ele>
        <time>2020-06-10T17:47:47Z</time>
      </trkpt>
      <trkpt lat="48.56714" lon="-3.18062">
        <ele>113.2</ele>
        <time>2020-06-10T17:47:48Z</time>
      </trkpt>
      <trkpt lat="48.56715" lon="-3.18053">
        <ele>113</ele>
        <time>2020-06-10T17:47:49Z</time>
      </trkpt>
      <trkpt lat="48.56714" lon="-3.18044">
        <ele>112.9</ele>
        <time>2020-06-10T17:47:50Z</time>
      </trkpt>
      <trkpt lat="48.56714" lon="-3.18035">
        <ele>112.7</ele>
        <time>2020-06-10T17:47:51Z</time>
      </trkpt>
      <trkpt lat="48.56713" lon="-3.18025">
        <ele>112.4</ele>
        <time>2020-06-10T17:47:52Z</time>
      </trkpt>
      <trkpt lat="48.5671" lon="-3.18015">
        <ele>112.2</ele>
        <time>2020-06-10T17:47:53Z</time>
      </trkpt>
      <trkpt lat="48.56708" lon="-3.18005">
        <ele>111.9</ele>
        <time>2020-06-10T17:47:54Z</time>
      </trkpt>
      <trkpt lat="48.56706" lon="-3.17996">
        <ele>111.6</ele>
        <time>2020-06-10T17:47:55Z</time>
      </trkpt>
      <trkpt lat="48.56703" lon="-3.17986">
        <ele>111.3</ele>
        <time>2020-06-10T17:47:56Z</time>
      </trkpt>
      <trkpt lat="48.56699" lon="-3.17976">
        <ele>110.9</ele>
        <time>2020-06-10T17:47:57Z</time>
      </trkpt>
      <trkpt lat="48.56695" lon="-3.17966">
        <ele>110.6</ele>
        <time>2020-06-10T17:47:58Z</time>
      </trkpt>
      <trkpt lat="48.56692" lon="-3.17956">
        <ele>110.3</ele>
        <time>2020-06-10T17:47:59Z</time>
      </trkpt>
      <trkpt lat="48.56688" lon="-3.17946">
        <ele>110</ele>
        <time>2020-06-10T17:48:00Z</time>
      </trkpt>
      <trkpt lat="48.56685" lon="-3.17935">
        <ele>109.7</ele>
        <time>2020-06-10T17:48:01Z</time>
      </trkpt>
      <trkpt lat="48.56681" lon="-3.17925">
        <ele>109.3</ele>
        <time>2020-06-10T17:48:02Z</time>
      </trkpt>
      <trkpt lat="48.56677" lon="-3.17915">
        <ele>109</ele>
        <time>2020-06-10T17:48:03Z</time>
      </trkpt>
      <trkpt lat="48.56673" lon="-3.17904">
        <ele>108.7</ele>
        <time>2020-06-10T17:48:04Z</time>
      </trkpt>
      <trkpt lat="48.56669" lon="-3.17895">
        <ele>108.4</ele>
        <time>2020-06-10T17:48:05Z</time>
      </trkpt>
      <trkpt lat="48.56665" lon="-3.17885">
        <ele>108.1</ele>
        <time>2020-06-10T17:48:06Z</time>
      </trkpt>
      <trkpt lat="48.56661" lon="-3.17875">
        <ele>107.8</ele>
        <time>2020-06-10T17:48:07Z</time>
      </trkpt>
      <trkpt lat="48.56658" lon="-3.17865">
        <ele>107.5</ele>
        <time>2020-06-10T17:48:08Z</time>
      </trkpt>
      <trkpt lat="48.56654" lon="-3.17856">
        <ele>107.2</ele>
        <time>2020-06-10T17:48:09Z</time>
      </trkpt>
      <trkpt lat="48.56651" lon="-3.17846">
        <ele>107</ele>
        <time>2020-06-10T17:48:10Z</time>
      </trkpt>
      <trkpt lat="48.56648" lon="-3.17837">
        <ele>106.8</ele>
        <time>2020-06-10T17:48:11Z</time>
      </trkpt>
      <trkpt lat="48.56644" lon="-3.17828">
        <ele>106.6</ele>
        <time>2020-06-10T17:48:12Z</time>
      </trkpt>
      <trkpt lat="48.56642" lon="-3.17818">
        <ele>106.4</ele>
        <time>2020-06-10T17:48:13Z</time>
      </trkpt>
      <trkpt lat="48.5664" lon="-3.17808">
        <ele>106.2</ele>
        <time>2020-06-10T17:48:14Z</time>
      </trkpt>
      <trkpt lat="48.56638" lon="-3.17798">
        <ele>106</ele>
        <time>2020-06-10T17:48:15Z</time>
      </trkpt>
      <trkpt lat="48.56636" lon="-3.17788">
        <ele>105.8</ele>
        <time>2020-06-10T17:48:16Z</time>
      </trkpt>
      <trkpt lat="48.56635" lon="-3.17778">
        <ele>105.5</ele>
        <time>2020-06-10T17:48:17Z</time>
      </trkpt>
      <trkpt lat="48.56633" lon="-3.17767">
        <ele>105.3</ele>
        <time>2020-06-10T17:48:18Z</time>
      </trkpt>
      <trkpt lat="48.56632" lon="-3.17756">
        <ele>105</ele>
        <time>2020-06-10T17:48:19Z</time>
      </trkpt>
      <trkpt lat="48.56631" lon="-3.17745">
        <ele>104.7</ele>
        <time>2020-06-10T17:48:20Z</time>
      </trkpt>
      <trkpt lat="48.5663" lon="-3.17733">
        <ele>104.4</ele>
        <time>2020-06-10T17:48:21Z</time>
      </trkpt>
      <trkpt lat="48.56629" lon="-3.17722">
        <ele>104.1</ele>
        <time>2020-06-10T17:48:22Z</time>
      </trkpt>
      <trkpt lat="48.56628" lon="-3.17711">
        <ele>103.8</ele>
        <time>2020-06-10T17:48:23Z</time>
      </trkpt>
      <trkpt lat="48.56627" lon="-3.17699">
        <ele>103.5</ele>
        <time>2020-06-10T17:48:24Z</time>
      </trkpt>
      <trkpt lat="48.56626" lon="-3.17688">
        <ele>103.2</ele>
        <time>2020-06-10T17:48:25Z</time>
      </trkpt>
      <trkpt lat="48.56624" lon="-3.17676">
        <ele>102.8</ele>
        <time>2020-06-10T17:48:26Z</time>
      </trkpt>
      <trkpt lat="48.56622" lon="-3.17664">
        <ele>102.4</ele>
        <time>2020-06-10T17:48:27Z</time>
      </trkpt>
      <trkpt lat="48.5662" lon="-3.17652">
        <ele>102</ele>
        <time>2020-06-10T17:48:28Z</time>
      </trkpt>
      <trkpt lat="48.56618" lon="-3.1764">
        <ele>101.6</ele>
        <time>2020-06-10T17:48:29Z</time>
      </trkpt>
      <trkpt lat="48.56616" lon="-3.17627">
        <ele>101.1</ele>
        <time>2020-06-10T17:48:30Z</time>
      </trkpt>
      <trkpt lat="48.56613" lon="-3.17614">
        <ele>100.6</ele>
        <time>2020-06-10T17:48:31Z</time>
      </trkpt>
      <trkpt lat="48.56611" lon="-3.17601">
        <ele>100.2</ele>
        <time>2020-06-10T17:48:32Z</time>
      </trkpt>
      <trkpt lat="48.56609" lon="-3.17588">
        <ele>99.7</ele>
        <time>2020-06-10T17:48:33Z</time>
      </trkpt>
      <trkpt lat="48.56606" lon="-3.17574">
        <ele>99.2</ele>
        <time>2020-06-10T17:48:34Z</time>
      </trkpt>
      <trkpt lat="48.56603" lon="-3.17561">
        <ele>98.7</ele>
        <time>2020-06-10T17:48:35Z</time>
      </trkpt>
      <trkpt lat="48.566" lon="-3.17547">
        <ele>98.3</ele>
        <time>2020-06-10T17:48:36Z</time>
      </trkpt>
      <trkpt lat="48.56596" lon="-3.17534">
        <ele>97.9</ele>
        <time>2020-06-10T17:48:37Z</time>
      </trkpt>
      <trkpt lat="48.56594" lon="-3.1752">
        <ele>97.4</ele>
        <time>2020-06-10T17:48:38Z</time>
      </trkpt>
      <trkpt lat="48.56591" lon="-3.17506">
        <ele>97</ele>
        <time>2020-06-10T17:48:39Z</time>
      </trkpt>
      <trkpt lat="48.56588" lon="-3.17493">
        <ele>96.5</ele>
        <time>2020-06-10T17:48:40Z</time>
      </trkpt>
      <trkpt lat="48.56586" lon="-3.17479">
        <ele>96</ele>
        <time>2020-06-10T17:48:41Z</time>
      </trkpt>
      <trkpt lat="48.56584" lon="-3.17465">
        <ele>95.6</ele>
        <time>2020-06-10T17:48:42Z</time>
      </trkpt>
      <trkpt lat="48.56581" lon="-3.17451">
        <ele>95.2</ele>
        <time>2020-06-10T17:48:43Z</time>
      </trkpt>
      <trkpt lat="48.5658" lon="-3.17436">
        <ele>94.8</ele>
        <time>2020-06-10T17:48:44Z</time>
      </trkpt>
      <trkpt lat="48.56579" lon="-3.17422">
        <ele>94.4</ele>
        <time>2020-06-10T17:48:45Z</time>
      </trkpt>
      <trkpt lat="48.56578" lon="-3.17408">
        <ele>94</ele>
        <time>2020-06-10T17:48:46Z</time>
      </trkpt>
      <trkpt lat="48.56577" lon="-3.17395">
        <ele>93.6</ele>
        <time>2020-06-10T17:48:47Z</time>
      </trkpt>
      <trkpt lat="48.56576" lon="-3.17381">
        <ele>93.4</ele>
        <time>2020-06-10T17:48:48Z</time>
      </trkpt>
      <trkpt lat="48.56575" lon="-3.17368">
        <ele>93.1</ele>
        <time>2020-06-10T17:48:49Z</time>
      </trkpt>
      <trkpt lat="48.56575" lon="-3.17354">
        <ele>92.9</ele>
        <time>2020-06-10T17:48:50Z</time>
      </trkpt>
      <trkpt lat="48.56574" lon="-3.17341">
        <ele>92.6</ele>
        <time>2020-06-10T17:48:51Z</time>
      </trkpt>
      <trkpt lat="48.56573" lon="-3.17327">
        <ele>92.3</ele>
        <time>2020-06-10T17:48:52Z</time>
      </trkpt>
      <trkpt lat="48.56572" lon="-3.17313">
        <ele>91.9</ele>
        <time>2020-06-10T17:48:53Z</time>
      </trkpt>
      <trkpt lat="48.5657" lon="-3.173">
        <ele>91.5</ele>
        <time>2020-06-10T17:48:54Z</time>
      </trkpt>
      <trkpt lat="48.56567" lon="-3.17286">
        <ele>91.1</ele>
        <time>2020-06-10T17:48:55Z</time>
      </trkpt>
      <trkpt lat="48.56564" lon="-3.17274">
        <ele>90.8</ele>
        <time>2020-06-10T17:48:56Z</time>
      </trkpt>
      <trkpt lat="48.5656" lon="-3.17261">
        <ele>90.4</ele>
        <time>2020-06-10T17:48:57Z</time>
      </trkpt>
      <trkpt lat="48.56557" lon="-3.17248">
        <ele>90</ele>
        <time>2020-06-10T17:48:58Z</time>
      </trkpt>
      <trkpt lat="48.56553" lon="-3.17235">
        <ele>89.7</ele>
        <time>2020-06-10T17:48:59Z</time>
      </trkpt>
      <trkpt lat="48.5655" lon="-3.17222">
        <ele>89.3</ele>
        <time>2020-06-10T17:49:00Z</time>
      </trkpt>
      <trkpt lat="48.56546" lon="-3.1721">
        <ele>89</ele>
        <time>2020-06-10T17:49:01Z</time>
      </trkpt>
      <trkpt lat="48.56542" lon="-3.17197">
        <ele>88.6</ele>
        <time>2020-06-10T17:49:02Z</time>
      </trkpt>
      <trkpt lat="48.56539" lon="-3.17184">
        <ele>88.2</ele>
        <time>2020-06-10T17:49:03Z</time>
      </trkpt>
      <trkpt lat="48.56535" lon="-3.17171">
        <ele>87.8</ele>
        <time>2020-06-10T17:49:04Z</time>
      </trkpt>
      <trkpt lat="48.56532" lon="-3.17159">
        <ele>87.5</ele>
        <time>2020-06-10T17:49:05Z</time>
      </trkpt>
      <trkpt lat="48.56528" lon="-3.17146">
        <ele>87.1</ele>
        <time>2020-06-10T17:49:06Z</time>
      </trkpt>
      <trkpt lat="48.56524" lon="-3.17133">
        <ele>86.6</ele>
        <time>2020-06-10T17:49:07Z</time>
      </trkpt>
      <trkpt lat="48.5652" lon="-3.17121">
        <ele>86.2</ele>
        <time>2020-06-10T17:49:08Z</time>
      </trkpt>
      <trkpt lat="48.56516" lon="-3.17108">
        <ele>85.7</ele>
        <time>2020-06-10T17:49:09Z</time>
      </trkpt>
      <trkpt lat="48.56511" lon="-3.17095">
        <ele>85.2</ele>
        <time>2020-06-10T17:49:10Z</time>
      </trkpt>
      <trkpt lat="48.56507" lon="-3.17082">
        <ele>84.7</ele>
        <time>2020-06-10T17:49:11Z</time>
      </trkpt>
      <trkpt lat="48.56502" lon="-3.17069">
        <ele>84.3</ele>
        <time>2020-06-10T17:49:12Z</time>
      </trkpt>
      <trkpt lat="48.56498" lon="-3.17056">
        <ele>83.9</ele>
        <time>2020-06-10T17:49:13Z</time>
      </trkpt>
      <trkpt lat="48.56493" lon="-3.17043">
        <ele>83.7</ele>
        <time>2020-06-10T17:49:14Z</time>
      </trkpt>
      <trkpt lat="48.56488" lon="-3.1703">
        <ele>83.4</ele>
        <time>2020-06-10T17:49:15Z</time>
      </trkpt>
      <trkpt lat="48.56483" lon="-3.17017">
        <ele>83.1</ele>
        <time>2020-06-10T17:49:16Z</time>
      </trkpt>
      <trkpt lat="48.56478" lon="-3.17004">
        <ele>82.8</ele>
        <time>2020-06-10T17:49:17Z</time>
      </trkpt>
      <trkpt lat="48.56474" lon="-3.16993">
        <ele>82.5</ele>
        <time>2020-06-10T17:49:18Z</time>
      </trkpt>
      <trkpt lat="48.56469" lon="-3.1698">
        <ele>82.3</ele>
        <time>2020-06-10T17:49:19Z</time>
      </trkpt>
      <trkpt lat="48.56464" lon="-3.16969">
        <ele>82.1</ele>
        <time>2020-06-10T17:49:20Z</time>
      </trkpt>
      <trkpt lat="48.5646" lon="-3.16957">
        <ele>81.8</ele>
        <time>2020-06-10T17:49:21Z</time>
      </trkpt>
      <trkpt lat="48.56456" lon="-3.16947">
        <ele>81.6</ele>
        <time>2020-06-10T17:49:22Z</time>
      </trkpt>
      <trkpt lat="48.56451" lon="-3.16936">
        <ele>81.4</ele>
        <time>2020-06-10T17:49:23Z</time>
      </trkpt>
      <trkpt lat="48.56446" lon="-3.16926">
        <ele>81.2</ele>
        <time>2020-06-10T17:49:24Z</time>
      </trkpt>
      <trkpt lat="48.56442" lon="-3.16916">
        <ele>81</ele>
        <time>2020-06-10T17:49:25Z</time>
      </trkpt>
      <trkpt lat="48.56438" lon="-3.16906">
        <ele>80.8</ele>
        <time>2020-06-10T17:49:26Z</time>
      </trkpt>
      <trkpt lat="48.56434" lon="-3.16896">
        <ele>80.6</ele>
        <time>2020-06-10T17:49:27Z</time>
      </trkpt>
      <trkpt lat="48.56429" lon="-3.16886">
        <ele>80.4</ele>
        <time>2020-06-10T17:49:28Z</time>
      </trkpt>
      <trkpt lat="48.56426" lon="-3.16876">
        <ele>80.2</ele>
        <time>2020-06-10T17:49:29Z</time>
      </trkpt>
      <trkpt lat="48.56421" lon="-3.16866">
        <ele>80</ele>
        <time>2020-06-10T17:49:30Z</time>
      </trkpt>
      <trkpt lat="48.56417" lon="-3.16856">
        <ele>79.8</ele>
        <time>2020-06-10T17:49:31Z</time>
      </trkpt>
      <trkpt lat="48.56413" lon="-3.16846">
        <ele>79.5</ele>
        <time>2020-06-10T17:49:32Z</time>
      </trkpt>
      <trkpt lat="48.56409" lon="-3.16836">
        <ele>79.1</ele>
        <time>2020-06-10T17:49:33Z</time>
      </trkpt>
      <trkpt lat="48.56405" lon="-3.16826">
        <ele>78.8</ele>
        <time>2020-06-10T17:49:34Z</time>
      </trkpt>
      <trkpt lat="48.56401" lon="-3.16816">
        <ele>78.4</ele>
        <time>2020-06-10T17:49:35Z</time>
      </trkpt>
      <trkpt lat="48.56397" lon="-3.16806">
        <ele>78.1</ele>
        <time>2020-06-10T17:49:36Z</time>
      </trkpt>
      <trkpt lat="48.56393" lon="-3.16796">
        <ele>77.9</ele>
        <time>2020-06-10T17:49:37Z</time>
      </trkpt>
      <trkpt lat="48.56388" lon="-3.16786">
        <ele>77.6</ele>
        <time>2020-06-10T17:49:38Z</time>
      </trkpt>
      <trkpt lat="48.56384" lon="-3.16775">
        <ele>77.3</ele>
        <time>2020-06-10T17:49:39Z</time>
      </trkpt>
      <trkpt lat="48.5638" lon="-3.16765">
        <ele>76.9</ele>
        <time>2020-06-10T17:49:40Z</time>
      </trkpt>
      <trkpt lat="48.56375" lon="-3.16755">
        <ele>76.7</ele>
        <time>2020-06-10T17:49:41Z</time>
      </trkpt>
      <trkpt lat="48.56371" lon="-3.16744">
        <ele>76.5</ele>
        <time>2020-06-10T17:49:42Z</time>
      </trkpt>
      <trkpt lat="48.56367" lon="-3.16734">
        <ele>76.3</ele>
        <time>2020-06-10T17:49:43Z</time>
      </trkpt>
      <trkpt lat="48.56362" lon="-3.16723">
        <ele>76.1</ele>
        <time>2020-06-10T17:49:44Z</time>
      </trkpt>
      <trkpt lat="48.56358" lon="-3.16713">
        <ele>76</ele>
        <time>2020-06-10T17:49:45Z</time>
      </trkpt>
      <trkpt lat="48.56354" lon="-3.16705">
        <ele>75.9</ele>
        <time>2020-06-10T17:49:46Z</time>
      </trkpt>
      <trkpt lat="48.56351" lon="-3.16697">
        <ele>75.8</ele>
        <time>2020-06-10T17:49:47Z</time>
      </trkpt>
      <trkpt lat="48.56347" lon="-3.1669">
        <ele>75.7</ele>
        <time>2020-06-10T17:49:48Z</time>
      </trkpt>
      <trkpt lat="48.56343" lon="-3.16683">
        <ele>75.5</ele>
        <time>2020-06-10T17:49:49Z</time>
      </trkpt>
      <trkpt lat="48.56339" lon="-3.16676">
        <ele>75.3</ele>
        <time>2020-06-10T17:49:50Z</time>
      </trkpt>
      <trkpt lat="48.56336" lon="-3.16668">
        <ele>75.1</ele>
        <time>2020-06-10T17:49:51Z</time>
      </trkpt>
      <trkpt lat="48.56333" lon="-3.1666">
        <ele>74.9</ele>
        <time>2020-06-10T17:49:52Z</time>
      </trkpt>
      <trkpt lat="48.5633" lon="-3.16651">
        <ele>74.7</ele>
        <time>2020-06-10T17:49:53Z</time>
      </trkpt>
      <trkpt lat="48.56326" lon="-3.16642">
        <ele>74.4</ele>
        <time>2020-06-10T17:49:54Z</time>
      </trkpt>
      <trkpt lat="48.56323" lon="-3.16634">
        <ele>74.1</ele>
        <time>2020-06-10T17:49:55Z</time>
      </trkpt>
      <trkpt lat="48.56318" lon="-3.16626">
        <ele>73.8</ele>
        <time>2020-06-10T17:49:56Z</time>
      </trkpt>
      <trkpt lat="48.56315" lon="-3.16617">
        <ele>73.5</ele>
        <time>2020-06-10T17:49:57Z</time>
      </trkpt>
      <trkpt lat="48.56312" lon="-3.16607">
        <ele>73.2</ele>
        <time>2020-06-10T17:49:58Z</time>
      </trkpt>
      <trkpt lat="48.56309" lon="-3.16598">
        <ele>72.9</ele>
        <time>2020-06-10T17:49:59Z</time>
      </trkpt>
      <trkpt lat="48.56306" lon="-3.1659">
        <ele>72.6</ele>
        <time>2020-06-10T17:50:00Z</time>
      </trkpt>
      <trkpt lat="48.56303" lon="-3.16582">
        <ele>72.4</ele>
        <time>2020-06-10T17:50:01Z</time>
      </trkpt>
      <trkpt lat="48.563" lon="-3.16573">
        <ele>72.1</ele>
        <time>2020-06-10T17:50:02Z</time>
      </trkpt>
      <trkpt lat="48.56297" lon="-3.16565">
        <ele>72</ele>
        <time>2020-06-10T17:50:03Z</time>
      </trkpt>
      <trkpt lat="48.56292" lon="-3.16559">
        <ele>71.9</ele>
        <time>2020-06-10T17:50:04Z</time>
      </trkpt>
      <trkpt lat="48.56288" lon="-3.16552">
        <ele>71.9</ele>
        <time>2020-06-10T17:50:05Z</time>
      </trkpt>
      <trkpt lat="48.56285" lon="-3.16545">
        <ele>71.9</ele>
        <time>2020-06-10T17:50:06Z</time>
      </trkpt>
      <trkpt lat="48.56281" lon="-3.16539">
        <ele>71.7</ele>
        <time>2020-06-10T17:50:07Z</time>
      </trkpt>
      <trkpt lat="48.56277" lon="-3.16533">
        <ele>71.7</ele>
        <time>2020-06-10T17:50:08Z</time>
      </trkpt>
      <trkpt lat="48.56274" lon="-3.16527">
        <ele>71.7</ele>
        <time>2020-06-10T17:50:09Z</time>
      </trkpt>
      <trkpt lat="48.56271" lon="-3.1652">
        <ele>71.4</ele>
        <time>2020-06-10T17:50:10Z</time>
      </trkpt>
      <trkpt lat="48.56268" lon="-3.16514">
        <ele>70.9</ele>
        <time>2020-06-10T17:50:11Z</time>
      </trkpt>
      <trkpt lat="48.56268" lon="-3.16508">
        <ele>70.8</ele>
        <time>2020-06-10T17:50:12Z</time>
      </trkpt>
      <trkpt lat="48.5627" lon="-3.16502">
        <ele>70.7</ele>
        <time>2020-06-10T17:50:13Z</time>
      </trkpt>
      <trkpt lat="48.56275" lon="-3.16499">
        <ele>70.6</ele>
        <time>2020-06-10T17:50:14Z</time>
      </trkpt>
      <trkpt lat="48.56279" lon="-3.16495">
        <ele>70.5</ele>
        <time>2020-06-10T17:50:15Z</time>
      </trkpt>
      <trkpt lat="48.56282" lon="-3.16489">
        <ele>70.4</ele>
        <time>2020-06-10T17:50:16Z</time>
      </trkpt>
      <trkpt lat="48.56285" lon="-3.16483">
        <ele>70.3</ele>
        <time>2020-06-10T17:50:17Z</time>
      </trkpt>
      <trkpt lat="48.56286" lon="-3.16474">
        <ele>70.2</ele>
        <time>2020-06-10T17:50:18Z</time>
      </trkpt>
      <trkpt lat="48.56287" lon="-3.16464">
        <ele>70.2</ele>
        <time>2020-06-10T17:50:19Z</time>
      </trkpt>
      <trkpt lat="48.56288" lon="-3.16454">
        <ele>70.1</ele>
        <time>2020-06-10T17:50:20Z</time>
      </trkpt>
      <trkpt lat="48.56288" lon="-3.16444">
        <ele>70.1</ele>
        <time>2020-06-10T17:50:21Z</time>
      </trkpt>
      <trkpt lat="48.56288" lon="-3.16434">
        <ele>70</ele>
        <time>2020-06-10T17:50:22Z</time>
      </trkpt>
      <trkpt lat="48.56289" lon="-3.16424">
        <ele>70</ele>
        <time>2020-06-10T17:50:23Z</time>
      </trkpt>
      <trkpt lat="48.56288" lon="-3.16413">
        <ele>69.9</ele>
        <time>2020-06-10T17:50:24Z</time>
      </trkpt>
      <trkpt lat="48.5629" lon="-3.16403">
        <ele>70.2</ele>
        <time>2020-06-10T17:50:25Z</time>
      </trkpt>
      <trkpt lat="48.56291" lon="-3.16393">
        <ele>70.4</ele>
        <time>2020-06-10T17:50:26Z</time>
      </trkpt>
      <trkpt lat="48.56292" lon="-3.16383">
        <ele>70.5</ele>
        <time>2020-06-10T17:50:27Z</time>
      </trkpt>
      <trkpt lat="48.56293" lon="-3.16373">
        <ele>70.7</ele>
        <time>2020-06-10T17:50:28Z</time>
      </trkpt>
      <trkpt lat="48.56293" lon="-3.16364">
        <ele>70.8</ele>
        <time>2020-06-10T17:50:29Z</time>
      </trkpt>
      <trkpt lat="48.56294" lon="-3.16355">
        <ele>70.9</ele>
        <time>2020-06-10T17:50:30Z</time>
      </trkpt>
      <trkpt lat="48.56295" lon="-3.16347">
        <ele>71.1</ele>
        <time>2020-06-10T17:50:31Z</time>
      </trkpt>
      <trkpt lat="48.56294" lon="-3.16338">
        <ele>71.2</ele>
        <time>2020-06-10T17:50:32Z</time>
      </trkpt>
      <trkpt lat="48.56294" lon="-3.1633">
        <ele>71.4</ele>
        <time>2020-06-10T17:50:33Z</time>
      </trkpt>
      <trkpt lat="48.56296" lon="-3.16322">
        <ele>71.5</ele>
        <time>2020-06-10T17:50:34Z</time>
      </trkpt>
      <trkpt lat="48.56297" lon="-3.16314">
        <ele>71.7</ele>
        <time>2020-06-10T17:50:35Z</time>
      </trkpt>
      <trkpt lat="48.56297" lon="-3.16307">
        <ele>71.8</ele>
        <time>2020-06-10T17:50:36Z</time>
      </trkpt>
      <trkpt lat="48.56298" lon="-3.16299">
        <ele>71.8</ele>
        <time>2020-06-10T17:50:37Z</time>
      </trkpt>
      <trkpt lat="48.56298" lon="-3.16293">
        <ele>71.9</ele>
        <time>2020-06-10T17:50:38Z</time>
      </trkpt>
      <trkpt lat="48.56298" lon="-3.16286">
        <ele>72</ele>
        <time>2020-06-10T17:50:39Z</time>
      </trkpt>
      <trkpt lat="48.56297" lon="-3.1628">
        <ele>72.1</ele>
        <time>2020-06-10T17:50:40Z</time>
      </trkpt>
      <trkpt lat="48.56297" lon="-3.16273">
        <ele>72.2</ele>
        <time>2020-06-10T17:50:41Z</time>
      </trkpt>
      <trkpt lat="48.56296" lon="-3.16267">
        <ele>72.2</ele>
        <time>2020-06-10T17:50:42Z</time>
      </trkpt>
      <trkpt lat="48.56298" lon="-3.16261">
        <ele>72.3</ele>
        <time>2020-06-10T17:50:43Z</time>
      </trkpt>
      <trkpt lat="48.56299" lon="-3.16254">
        <ele>72.4</ele>
        <time>2020-06-10T17:50:44Z</time>
      </trkpt>
      <trkpt lat="48.56299" lon="-3.16247">
        <ele>72.4</ele>
        <time>2020-06-10T17:50:45Z</time>
      </trkpt>
      <trkpt lat="48.563" lon="-3.1624">
        <ele>72.5</ele>
        <time>2020-06-10T17:50:46Z</time>
      </trkpt>
      <trkpt lat="48.563" lon="-3.16233">
        <ele>72.5</ele>
        <time>2020-06-10T17:50:47Z</time>
      </trkpt>
      <trkpt lat="48.56299" lon="-3.16226">
        <ele>72.6</ele>
        <time>2020-06-10T17:50:48Z</time>
      </trkpt>
      <trkpt lat="48.56299" lon="-3.1622">
        <ele>72.6</ele>
        <time>2020-06-10T17:50:49Z</time>
      </trkpt>
      <trkpt lat="48.56299" lon="-3.16213">
        <ele>72.7</ele>
        <time>2020-06-10T17:50:50Z</time>
      </trkpt>
      <trkpt lat="48.563" lon="-3.16207">
        <ele>72.7</ele>
        <time>2020-06-10T17:50:51Z</time>
      </trkpt>
      <trkpt lat="48.563" lon="-3.162">
        <ele>72.8</ele>
        <time>2020-06-10T17:50:52Z</time>
      </trkpt>
      <trkpt lat="48.56302" lon="-3.16194">
        <ele>72.8</ele>
        <time>2020-06-10T17:50:53Z</time>
      </trkpt>
      <trkpt lat="48.56302" lon="-3.16188">
        <ele>72.8</ele>
        <time>2020-06-10T17:50:54Z</time>
      </trkpt>
      <trkpt lat="48.56302" lon="-3.16181">
        <ele>72.8</ele>
        <time>2020-06-10T17:50:55Z</time>
      </trkpt>
      <trkpt lat="48.56302" lon="-3.16175">
        <ele>72.8</ele>
        <time>2020-06-10T17:50:56Z</time>
      </trkpt>
      <trkpt lat="48.56303" lon="-3.16169">
        <ele>72.8</ele>
        <time>2020-06-10T17:50:57Z</time>
      </trkpt>
      <trkpt lat="48.56303" lon="-3.16162">
        <ele>72.8</ele>
        <time>2020-06-10T17:50:58Z</time>
      </trkpt>
      <trkpt lat="48.56304" lon="-3.16155">
        <ele>72.8</ele>
        <time>2020-06-10T17:50:59Z</time>
      </trkpt>
      <trkpt lat="48.56305" lon="-3.16149">
        <ele>72.7</ele>
        <time>2020-06-10T17:51:00Z</time>
      </trkpt>
      <trkpt lat="48.56306" lon="-3.16142">
        <ele>72.7</ele>
        <time>2020-06-10T17:51:01Z</time>
      </trkpt>
      <trkpt lat="48.56306" lon="-3.16135">
        <ele>72.7</ele>
        <time>2020-06-10T17:51:02Z</time>
      </trkpt>
      <trkpt lat="48.56306" lon="-3.16128">
        <ele>72.6</ele>
        <time>2020-06-10T17:51:03Z</time>
      </trkpt>
      <trkpt lat="48.56307" lon="-3.16122">
        <ele>72.6</ele>
        <time>2020-06-10T17:51:04Z</time>
      </trkpt>
      <trkpt lat="48.56307" lon="-3.16115">
        <ele>72.6</ele>
        <time>2020-06-10T17:51:05Z</time>
      </trkpt>
      <trkpt lat="48.56307" lon="-3.16109">
        <ele>72.5</ele>
        <time>2020-06-10T17:51:06Z</time>
      </trkpt>
      <trkpt lat="48.56308" lon="-3.16105">
        <ele>72.5</ele>
        <time>2020-06-10T17:51:07Z</time>
      </trkpt>
      <trkpt lat="48.5631" lon="-3.161">
        <ele>72.5</ele>
        <time>2020-06-10T17:51:08Z</time>
      </trkpt>
      <trkpt lat="48.56311" lon="-3.16099">
        <ele>72.4</ele>
        <time>2020-06-10T17:51:09Z</time>
      </trkpt>
      <trkpt lat="48.56313" lon="-3.16096">
        <ele>72.4</ele>
        <time>2020-06-10T17:51:10Z</time>
      </trkpt>
      <trkpt lat="48.56314" lon="-3.16095">
        <ele>72.4</ele>
        <time>2020-06-10T17:51:11Z</time>
      </trkpt>
      <trkpt lat="48.56314" lon="-3.1609">
        <ele>72.3</ele>
        <time>2020-06-10T17:51:12Z</time>
      </trkpt>
      <trkpt lat="48.56315" lon="-3.16088">
        <ele>72.3</ele>
        <time>2020-06-10T17:51:13Z</time>
      </trkpt>
      <trkpt lat="48.56316" lon="-3.16084">
        <ele>72.2</ele>
        <time>2020-06-10T17:51:14Z</time>
      </trkpt>
      <trkpt lat="48.56316" lon="-3.1608">
        <ele>72.2</ele>
        <time>2020-06-10T17:51:15Z</time>
      </trkpt>
      <trkpt lat="48.56317" lon="-3.16076">
        <ele>72.1</ele>
        <time>2020-06-10T17:51:16Z</time>
      </trkpt>
      <trkpt lat="48.56317" lon="-3.16071">
        <ele>72</ele>
        <time>2020-06-10T17:51:17Z</time>
      </trkpt>
      <trkpt lat="48.56317" lon="-3.16066">
        <ele>71.8</ele>
        <time>2020-06-10T17:51:18Z</time>
      </trkpt>
      <trkpt lat="48.56317" lon="-3.1606">
        <ele>71.7</ele>
        <time>2020-06-10T17:51:19Z</time>
      </trkpt>
      <trkpt lat="48.56319" lon="-3.16054">
        <ele>71.4</ele>
        <time>2020-06-10T17:51:20Z</time>
      </trkpt>
      <trkpt lat="48.5632" lon="-3.16048">
        <ele>71.2</ele>
        <time>2020-06-10T17:51:21Z</time>
      </trkpt>
      <trkpt lat="48.56321" lon="-3.16041">
        <ele>71</ele>
        <time>2020-06-10T17:51:22Z</time>
      </trkpt>
      <trkpt lat="48.56321" lon="-3.16035">
        <ele>70.7</ele>
        <time>2020-06-10T17:51:23Z</time>
      </trkpt>
      <trkpt lat="48.56322" lon="-3.16029">
        <ele>70.5</ele>
        <time>2020-06-10T17:51:24Z</time>
      </trkpt>
      <trkpt lat="48.56323" lon="-3.16023">
        <ele>70.2</ele>
        <time>2020-06-10T17:51:25Z</time>
      </trkpt>
      <trkpt lat="48.56324" lon="-3.16017">
        <ele>69.9</ele>
        <time>2020-06-10T17:51:26Z</time>
      </trkpt>
      <trkpt lat="48.56325" lon="-3.1601">
        <ele>69.5</ele>
        <time>2020-06-10T17:51:27Z</time>
      </trkpt>
      <trkpt lat="48.56327" lon="-3.16003">
        <ele>69.2</ele>
        <time>2020-06-10T17:51:28Z</time>
      </trkpt>
      <trkpt lat="48.56328" lon="-3.15996">
        <ele>68.9</ele>
        <time>2020-06-10T17:51:29Z</time>
      </trkpt>
      <trkpt lat="48.56331" lon="-3.15989">
        <ele>68.5</ele>
        <time>2020-06-10T17:51:30Z</time>
      </trkpt>
      <trkpt lat="48.56334" lon="-3.15983">
        <ele>68.2</ele>
        <time>2020-06-10T17:51:31Z</time>
      </trkpt>
      <trkpt lat="48.56336" lon="-3.15977">
        <ele>68</ele>
        <time>2020-06-10T17:51:32Z</time>
      </trkpt>
      <trkpt lat="48.56337" lon="-3.15973">
        <ele>67.5</ele>
        <time>2020-06-10T17:51:33Z</time>
      </trkpt>
      <trkpt lat="48.5634" lon="-3.15972">
        <ele>67.5</ele>
        <time>2020-06-10T17:51:34Z</time>
      </trkpt>
      <trkpt lat="48.56344" lon="-3.15971">
        <ele>67.4</ele>
        <time>2020-06-10T17:51:35Z</time>
      </trkpt>
      <trkpt lat="48.5635" lon="-3.15973">
        <ele>67.3</ele>
        <time>2020-06-10T17:51:36Z</time>
      </trkpt>
      <trkpt lat="48.56357" lon="-3.15975">
        <ele>67.2</ele>
        <time>2020-06-10T17:51:37Z</time>
      </trkpt>
      <trkpt lat="48.56363" lon="-3.15977">
        <ele>67</ele>
        <time>2020-06-10T17:51:38Z</time>
      </trkpt>
      <trkpt lat="48.5637" lon="-3.1598">
        <ele>67</ele>
        <time>2020-06-10T17:51:39Z</time>
      </trkpt>
      <trkpt lat="48.56376" lon="-3.15983">
        <ele>66.7</ele>
        <time>2020-06-10T17:51:40Z</time>
      </trkpt>
      <trkpt lat="48.56383" lon="-3.15986">
        <ele>66.5</ele>
        <time>2020-06-10T17:51:41Z</time>
      </trkpt>
      <trkpt lat="48.5639" lon="-3.1599">
        <ele>66.4</ele>
        <time>2020-06-10T17:51:42Z</time>
      </trkpt>
      <trkpt lat="48.56396" lon="-3.15993">
        <ele>66.3</ele>
        <time>2020-06-10T17:51:43Z</time>
      </trkpt>
      <trkpt lat="48.56403" lon="-3.15996">
        <ele>66.2</ele>
        <time>2020-06-10T17:51:44Z</time>
      </trkpt>
      <trkpt lat="48.56409" lon="-3.15999">
        <ele>66.1</ele>
        <time>2020-06-10T17:51:45Z</time>
      </trkpt>
      <trkpt lat="48.56415" lon="-3.16">
        <ele>66</ele>
        <time>2020-06-10T17:51:46Z</time>
      </trkpt>
      <trkpt lat="48.5642" lon="-3.16002">
        <ele>66</ele>
        <time>2020-06-10T17:51:47Z</time>
      </trkpt>
      <trkpt lat="48.56425" lon="-3.16006">
        <ele>65.9</ele>
        <time>2020-06-10T17:51:48Z</time>
      </trkpt>
      <trkpt lat="48.56429" lon="-3.16009">
        <ele>65.9</ele>
        <time>2020-06-10T17:51:49Z</time>
      </trkpt>
      <trkpt lat="48.56434" lon="-3.1601">
        <ele>65.9</ele>
        <time>2020-06-10T17:51:50Z</time>
      </trkpt>
      <trkpt lat="48.56439" lon="-3.1601">
        <ele>65.9</ele>
        <time>2020-06-10T17:51:51Z</time>
      </trkpt>
      <trkpt lat="48.56444" lon="-3.16009">
        <ele>65.9</ele>
        <time>2020-06-10T17:51:52Z</time>
      </trkpt>
      <trkpt lat="48.56449" lon="-3.16008">
        <ele>65.9</ele>
        <time>2020-06-10T17:51:53Z</time>
      </trkpt>
      <trkpt lat="48.56453" lon="-3.16009">
        <ele>65.9</ele>
        <time>2020-06-10T17:51:54Z</time>
      </trkpt>
      <trkpt lat="48.56458" lon="-3.16008">
        <ele>65.9</ele>
        <time>2020-06-10T17:51:55Z</time>
      </trkpt>
      <trkpt lat="48.56462" lon="-3.16008">
        <ele>65.9</ele>
        <time>2020-06-10T17:51:56Z</time>
      </trkpt>
      <trkpt lat="48.56467" lon="-3.16008">
        <ele>65.9</ele>
        <time>2020-06-10T17:51:57Z</time>
      </trkpt>
      <trkpt lat="48.56471" lon="-3.1601">
        <ele>65.9</ele>
        <time>2020-06-10T17:51:58Z</time>
      </trkpt>
      <trkpt lat="48.56475" lon="-3.1601">
        <ele>65.9</ele>
        <time>2020-06-10T17:51:59Z</time>
      </trkpt>
      <trkpt lat="48.5648" lon="-3.1601">
        <ele>65.9</ele>
        <time>2020-06-10T17:52:00Z</time>
      </trkpt>
      <trkpt lat="48.56484" lon="-3.1601">
        <ele>65.9</ele>
        <time>2020-06-10T17:52:01Z</time>
      </trkpt>
      <trkpt lat="48.56489" lon="-3.16006">
        <ele>65.9</ele>
        <time>2020-06-10T17:52:02Z</time>
      </trkpt>
      <trkpt lat="48.56493" lon="-3.16006">
        <ele>65.8</ele>
        <time>2020-06-10T17:52:03Z</time>
      </trkpt>
      <trkpt lat="48.56497" lon="-3.16005">
        <ele>65.8</ele>
        <time>2020-06-10T17:52:04Z</time>
      </trkpt>
      <trkpt lat="48.56501" lon="-3.16005">
        <ele>65.7</ele>
        <time>2020-06-10T17:52:05Z</time>
      </trkpt>
      <trkpt lat="48.56505" lon="-3.16007">
        <ele>65.7</ele>
        <time>2020-06-10T17:52:06Z</time>
      </trkpt>
      <trkpt lat="48.5651" lon="-3.16009">
        <ele>65.6</ele>
        <time>2020-06-10T17:52:07Z</time>
      </trkpt>
      <trkpt lat="48.56514" lon="-3.16011">
        <ele>65.5</ele>
        <time>2020-06-10T17:52:08Z</time>
      </trkpt>
      <trkpt lat="48.56517" lon="-3.16013">
        <ele>65.5</ele>
        <time>2020-06-10T17:52:09Z</time>
      </trkpt>
      <trkpt lat="48.56521" lon="-3.16014">
        <ele>65.4</ele>
        <time>2020-06-10T17:52:10Z</time>
      </trkpt>
      <trkpt lat="48.56525" lon="-3.16016">
        <ele>65.4</ele>
        <time>2020-06-10T17:52:11Z</time>
      </trkpt>
      <trkpt lat="48.56529" lon="-3.16018">
        <ele>65.3</ele>
        <time>2020-06-10T17:52:12Z</time>
      </trkpt>
      <trkpt lat="48.56532" lon="-3.16018">
        <ele>65.3</ele>
        <time>2020-06-10T17:52:13Z</time>
      </trkpt>
      <trkpt lat="48.56536" lon="-3.16017">
        <ele>65.2</ele>
        <time>2020-06-10T17:52:14Z</time>
      </trkpt>
      <trkpt lat="48.5654" lon="-3.16015">
        <ele>65.2</ele>
        <time>2020-06-10T17:52:15Z</time>
      </trkpt>
      <trkpt lat="48.56544" lon="-3.16012">
        <ele>65.2</ele>
        <time>2020-06-10T17:52:16Z</time>
      </trkpt>
      <trkpt lat="48.56548" lon="-3.16009">
        <ele>65.3</ele>
        <time>2020-06-10T17:52:17Z</time>
      </trkpt>
      <trkpt lat="48.56553" lon="-3.16008">
        <ele>65.3</ele>
        <time>2020-06-10T17:52:18Z</time>
      </trkpt>
      <trkpt lat="48.56558" lon="-3.16005">
        <ele>65.4</ele>
        <time>2020-06-10T17:52:19Z</time>
      </trkpt>
      <trkpt lat="48.56563" lon="-3.16002">
        <ele>65.4</ele>
        <time>2020-06-10T17:52:20Z</time>
      </trkpt>
      <trkpt lat="48.56568" lon="-3.16001">
        <ele>65.4</ele>
        <time>2020-06-10T17:52:21Z</time>
      </trkpt>
      <trkpt lat="48.56573" lon="-3.15999">
        <ele>65.4</ele>
        <time>2020-06-10T17:52:22Z</time>
      </trkpt>
      <trkpt lat="48.56578" lon="-3.15997">
        <ele>65.4</ele>
        <time>2020-06-10T17:52:23Z</time>
      </trkpt>
      <trkpt lat="48.56583" lon="-3.15994">
        <ele>65.4</ele>
        <time>2020-06-10T17:52:24Z</time>
      </trkpt>
      <trkpt lat="48.56588" lon="-3.15993">
        <ele>65.4</ele>
        <time>2020-06-10T17:52:25Z</time>
      </trkpt>
      <trkpt lat="48.56592" lon="-3.15992">
        <ele>65.4</ele>
        <time>2020-06-10T17:52:26Z</time>
      </trkpt>
      <trkpt lat="48.56596" lon="-3.15991">
        <ele>65.5</ele>
        <time>2020-06-10T17:52:27Z</time>
      </trkpt>
      <trkpt lat="48.56599" lon="-3.15992">
        <ele>65.5</ele>
        <time>2020-06-10T17:52:28Z</time>
      </trkpt>
      <trkpt lat="48.56602" lon="-3.15994">
        <ele>65.5</ele>
        <time>2020-06-10T17:52:29Z</time>
      </trkpt>
      <trkpt lat="48.56605" lon="-3.15993">
        <ele>65.5</ele>
        <time>2020-06-10T17:52:30Z</time>
      </trkpt>
      <trkpt lat="48.56608" lon="-3.15992">
        <ele>65.5</ele>
        <time>2020-06-10T17:52:31Z</time>
      </trkpt>
      <trkpt lat="48.56609" lon="-3.15992">
        <ele>65.5</ele>
        <time>2020-06-10T17:52:32Z</time>
      </trkpt>
      <trkpt lat="48.56612" lon="-3.1599">
        <ele>65.5</ele>
        <time>2020-06-10T17:52:33Z</time>
      </trkpt>
      <trkpt lat="48.56613" lon="-3.1599">
        <ele>65.5</ele>
        <time>2020-06-10T17:52:34Z</time>
      </trkpt>
      <trkpt lat="48.56615" lon="-3.15991">
        <ele>65.5</ele>
        <time>2020-06-10T17:52:35Z</time>
      </trkpt>
      <trkpt lat="48.56616" lon="-3.15992">
        <ele>65.5</ele>
        <time>2020-06-10T17:52:36Z</time>
      </trkpt>
      <trkpt lat="48.56616" lon="-3.15993">
        <ele>65.5</ele>
        <time>2020-06-10T17:52:37Z</time>
      </trkpt>
      <trkpt lat="48.56619" lon="-3.15997">
        <ele>65.6</ele>
        <time>2020-06-10T17:52:38Z</time>
      </trkpt>
      <trkpt lat="48.56619" lon="-3.15999">
        <ele>65.6</ele>
        <time>2020-06-10T17:52:39Z</time>
      </trkpt>
      <trkpt lat="48.56622" lon="-3.16003">
        <ele>65.6</ele>
        <time>2020-06-10T17:52:40Z</time>
      </trkpt>
      <trkpt lat="48.56626" lon="-3.16005">
        <ele>65.6</ele>
        <time>2020-06-10T17:52:41Z</time>
      </trkpt>
      <trkpt lat="48.56629" lon="-3.16007">
        <ele>65.5</ele>
        <time>2020-06-10T17:52:42Z</time>
      </trkpt>
      <trkpt lat="48.56632" lon="-3.16011">
        <ele>65.4</ele>
        <time>2020-06-10T17:52:43Z</time>
      </trkpt>
      <trkpt lat="48.56635" lon="-3.16015">
        <ele>65.3</ele>
        <time>2020-06-10T17:52:44Z</time>
      </trkpt>
      <trkpt lat="48.56639" lon="-3.16017">
        <ele>65.2</ele>
        <time>2020-06-10T17:52:45Z</time>
      </trkpt>
      <trkpt lat="48.56643" lon="-3.16019">
        <ele>65.1</ele>
        <time>2020-06-10T17:52:46Z</time>
      </trkpt>
      <trkpt lat="48.56648" lon="-3.16022">
        <ele>65</ele>
        <time>2020-06-10T17:52:47Z</time>
      </trkpt>
      <trkpt lat="48.56653" lon="-3.16022">
        <ele>64.8</ele>
        <time>2020-06-10T17:52:48Z</time>
      </trkpt>
      <trkpt lat="48.56657" lon="-3.16023">
        <ele>64.7</ele>
        <time>2020-06-10T17:52:49Z</time>
      </trkpt>
      <trkpt lat="48.56661" lon="-3.16026">
        <ele>64.6</ele>
        <time>2020-06-10T17:52:50Z</time>
      </trkpt>
      <trkpt lat="48.56666" lon="-3.16028">
        <ele>64.6</ele>
        <time>2020-06-10T17:52:51Z</time>
      </trkpt>
      <trkpt lat="48.5667" lon="-3.16031">
        <ele>64.6</ele>
        <time>2020-06-10T17:52:52Z</time>
      </trkpt>
      <trkpt lat="48.56674" lon="-3.16033">
        <ele>64.6</ele>
        <time>2020-06-10T17:52:53Z</time>
      </trkpt>
      <trkpt lat="48.56678" lon="-3.16033">
        <ele>64.6</ele>
        <time>2020-06-10T17:52:54Z</time>
      </trkpt>
      <trkpt lat="48.56681" lon="-3.16033">
        <ele>64.6</ele>
        <time>2020-06-10T17:52:55Z</time>
      </trkpt>
      <trkpt lat="48.56685" lon="-3.16033">
        <ele>64.6</ele>
        <time>2020-06-10T17:52:56Z</time>
      </trkpt>
      <trkpt lat="48.56689" lon="-3.16034">
        <ele>64.6</ele>
        <time>2020-06-10T17:52:57Z</time>
      </trkpt>
      <trkpt lat="48.56692" lon="-3.16034">
        <ele>64.6</ele>
        <time>2020-06-10T17:52:58Z</time>
      </trkpt>
      <trkpt lat="48.56696" lon="-3.16034">
        <ele>64.6</ele>
        <time>2020-06-10T17:52:59Z</time>
      </trkpt>
      <trkpt lat="48.56699" lon="-3.16034">
        <ele>64.5</ele>
        <time>2020-06-10T17:53:00Z</time>
      </trkpt>
      <trkpt lat="48.56702" lon="-3.16035">
        <ele>64.5</ele>
        <time>2020-06-10T17:53:01Z</time>
      </trkpt>
      <trkpt lat="48.56705" lon="-3.16036">
        <ele>64.5</ele>
        <time>2020-06-10T17:53:02Z</time>
      </trkpt>
      <trkpt lat="48.56709" lon="-3.16036">
        <ele>64.5</ele>
        <time>2020-06-10T17:53:03Z</time>
      </trkpt>
      <trkpt lat="48.5671" lon="-3.16036">
        <ele>64.5</ele>
        <time>2020-06-10T17:53:04Z</time>
      </trkpt>
      <trkpt lat="48.56712" lon="-3.16036">
        <ele>64.5</ele>
        <time>2020-06-10T17:53:05Z</time>
      </trkpt>
      <trkpt lat="48.56716" lon="-3.16036">
        <ele>64.5</ele>
        <time>2020-06-10T17:53:06Z</time>
      </trkpt>
      <trkpt lat="48.56718" lon="-3.16036">
        <ele>64.5</ele>
        <time>2020-06-10T17:53:07Z</time>
      </trkpt>
      <trkpt lat="48.56721" lon="-3.16037">
        <ele>64.5</ele>
        <time>2020-06-10T17:53:08Z</time>
      </trkpt>
      <trkpt lat="48.56724" lon="-3.16037">
        <ele>64.4</ele>
        <time>2020-06-10T17:53:09Z</time>
      </trkpt>
      <trkpt lat="48.56727" lon="-3.16034">
        <ele>64.4</ele>
        <time>2020-06-10T17:53:10Z</time>
      </trkpt>
      <trkpt lat="48.56731" lon="-3.16034">
        <ele>64.4</ele>
        <time>2020-06-10T17:53:11Z</time>
      </trkpt>
      <trkpt lat="48.56735" lon="-3.16034">
        <ele>64.4</ele>
        <time>2020-06-10T17:53:12Z</time>
      </trkpt>
      <trkpt lat="48.56739" lon="-3.16035">
        <ele>64.4</ele>
        <time>2020-06-10T17:53:13Z</time>
      </trkpt>
      <trkpt lat="48.56742" lon="-3.16036">
        <ele>64.4</ele>
        <time>2020-06-10T17:53:14Z</time>
      </trkpt>
      <trkpt lat="48.56746" lon="-3.16036">
        <ele>64.4</ele>
        <time>2020-06-10T17:53:15Z</time>
      </trkpt>
      <trkpt lat="48.5675" lon="-3.16036">
        <ele>64.4</ele>
        <time>2020-06-10T17:53:16Z</time>
      </trkpt>
      <trkpt lat="48.56754" lon="-3.16037">
        <ele>64.4</ele>
        <time>2020-06-10T17:53:17Z</time>
      </trkpt>
      <trkpt lat="48.56757" lon="-3.16039">
        <ele>64.4</ele>
        <time>2020-06-10T17:53:18Z</time>
      </trkpt>
      <trkpt lat="48.56761" lon="-3.16039">
        <ele>64.4</ele>
        <time>2020-06-10T17:53:19Z</time>
      </trkpt>
      <trkpt lat="48.56765" lon="-3.16041">
        <ele>64.3</ele>
        <time>2020-06-10T17:53:20Z</time>
      </trkpt>
      <trkpt lat="48.56769" lon="-3.16042">
        <ele>64.3</ele>
        <time>2020-06-10T17:53:21Z</time>
      </trkpt>
      <trkpt lat="48.56773" lon="-3.16043">
        <ele>64.3</ele>
        <time>2020-06-10T17:53:22Z</time>
      </trkpt>
      <trkpt lat="48.56777" lon="-3.16043">
        <ele>64.3</ele>
        <time>2020-06-10T17:53:23Z</time>
      </trkpt>
      <trkpt lat="48.56781" lon="-3.16042">
        <ele>64.3</ele>
        <time>2020-06-10T17:53:24Z</time>
      </trkpt>
      <trkpt lat="48.56784" lon="-3.16042">
        <ele>64.3</ele>
        <time>2020-06-10T17:53:25Z</time>
      </trkpt>
      <trkpt lat="48.56788" lon="-3.16042">
        <ele>64.3</ele>
        <time>2020-06-10T17:53:26Z</time>
      </trkpt>
      <trkpt lat="48.56793" lon="-3.16048">
        <ele>64.3</ele>
        <time>2020-06-10T17:53:27Z</time>
      </trkpt>
      <trkpt lat="48.56797" lon="-3.16047">
        <ele>64.3</ele>
        <time>2020-06-10T17:53:28Z</time>
      </trkpt>
      <trkpt lat="48.56802" lon="-3.16047">
        <ele>64.3</ele>
        <time>2020-06-10T17:53:29Z</time>
      </trkpt>
      <trkpt lat="48.56808" lon="-3.16048">
        <ele>64.3</ele>
        <time>2020-06-10T17:53:30Z</time>
      </trkpt>
      <trkpt lat="48.56812" lon="-3.16046">
        <ele>64.4</ele>
        <time>2020-06-10T17:53:31Z</time>
      </trkpt>
      <trkpt lat="48.56817" lon="-3.16046">
        <ele>64.4</ele>
        <time>2020-06-10T17:53:32Z</time>
      </trkpt>
      <trkpt lat="48.56822" lon="-3.16048">
        <ele>64.4</ele>
        <time>2020-06-10T17:53:33Z</time>
      </trkpt>
      <trkpt lat="48.56826" lon="-3.16049">
        <ele>64.4</ele>
        <time>2020-06-10T17:53:34Z</time>
      </trkpt>
      <trkpt lat="48.5683" lon="-3.1605">
        <ele>64.4</ele>
        <time>2020-06-10T17:53:35Z</time>
      </trkpt>
      <trkpt lat="48.56834" lon="-3.16051">
        <ele>64.4</ele>
        <time>2020-06-10T17:53:36Z</time>
      </trkpt>
      <trkpt lat="48.56837" lon="-3.16053">
        <ele>64.4</ele>
        <time>2020-06-10T17:53:37Z</time>
      </trkpt>
      <trkpt lat="48.56841" lon="-3.16055">
        <ele>64.4</ele>
        <time>2020-06-10T17:53:38Z</time>
      </trkpt>
      <trkpt lat="48.56845" lon="-3.16056">
        <ele>64.4</ele>
        <time>2020-06-10T17:53:39Z</time>
      </trkpt>
      <trkpt lat="48.56848" lon="-3.16057">
        <ele>64.4</ele>
        <time>2020-06-10T17:53:40Z</time>
      </trkpt>
      <trkpt lat="48.56852" lon="-3.16057">
        <ele>64.3</ele>
        <time>2020-06-10T17:53:41Z</time>
      </trkpt>
      <trkpt lat="48.56856" lon="-3.16056">
        <ele>64.3</ele>
        <time>2020-06-10T17:53:42Z</time>
      </trkpt>
      <trkpt lat="48.56859" lon="-3.16056">
        <ele>64.3</ele>
        <time>2020-06-10T17:53:43Z</time>
      </trkpt>
      <trkpt lat="48.56864" lon="-3.16057">
        <ele>64.3</ele>
        <time>2020-06-10T17:53:44Z</time>
      </trkpt>
      <trkpt lat="48.5687" lon="-3.16058">
        <ele>64.3</ele>
        <time>2020-06-10T17:53:45Z</time>
      </trkpt>
      <trkpt lat="48.56874" lon="-3.16058">
        <ele>64.2</ele>
        <time>2020-06-10T17:53:46Z</time>
      </trkpt>
      <trkpt lat="48.5688" lon="-3.16058">
        <ele>64.2</ele>
        <time>2020-06-10T17:53:47Z</time>
      </trkpt>
      <trkpt lat="48.56887" lon="-3.16058">
        <ele>64.2</ele>
        <time>2020-06-10T17:53:48Z</time>
      </trkpt>
      <trkpt lat="48.56894" lon="-3.16059">
        <ele>64.1</ele>
        <time>2020-06-10T17:53:49Z</time>
      </trkpt>
      <trkpt lat="48.56901" lon="-3.16062">
        <ele>64</ele>
        <time>2020-06-10T17:53:50Z</time>
      </trkpt>
      <trkpt lat="48.56907" lon="-3.16063">
        <ele>63.9</ele>
        <time>2020-06-10T17:53:51Z</time>
      </trkpt>
      <trkpt lat="48.56913" lon="-3.16066">
        <ele>63.9</ele>
        <time>2020-06-10T17:53:52Z</time>
      </trkpt>
      <trkpt lat="48.56919" lon="-3.16067">
        <ele>63.9</ele>
        <time>2020-06-10T17:53:53Z</time>
      </trkpt>
      <trkpt lat="48.56925" lon="-3.16068">
        <ele>63.9</ele>
        <time>2020-06-10T17:53:54Z</time>
      </trkpt>
      <trkpt lat="48.5693" lon="-3.16069">
        <ele>64</ele>
        <time>2020-06-10T17:53:55Z</time>
      </trkpt>
      <trkpt lat="48.56936" lon="-3.1607">
        <ele>64</ele>
        <time>2020-06-10T17:53:56Z</time>
      </trkpt>
      <trkpt lat="48.5694" lon="-3.16072">
        <ele>64</ele>
        <time>2020-06-10T17:53:57Z</time>
      </trkpt>
      <trkpt lat="48.56947" lon="-3.16077">
        <ele>64.1</ele>
        <time>2020-06-10T17:53:58Z</time>
      </trkpt>
      <trkpt lat="48.56952" lon="-3.16082">
        <ele>64.1</ele>
        <time>2020-06-10T17:53:59Z</time>
      </trkpt>
      <trkpt lat="48.56958" lon="-3.16086">
        <ele>64.2</ele>
        <time>2020-06-10T17:54:00Z</time>
      </trkpt>
      <trkpt lat="48.56963" lon="-3.16087">
        <ele>64.2</ele>
        <time>2020-06-10T17:54:01Z</time>
      </trkpt>
      <trkpt lat="48.5697" lon="-3.16087">
        <ele>64.2</ele>
        <time>2020-06-10T17:54:02Z</time>
      </trkpt>
      <trkpt lat="48.56974" lon="-3.16088">
        <ele>64.3</ele>
        <time>2020-06-10T17:54:03Z</time>
      </trkpt>
      <trkpt lat="48.56979" lon="-3.16092">
        <ele>64.3</ele>
        <time>2020-06-10T17:54:04Z</time>
      </trkpt>
      <trkpt lat="48.56984" lon="-3.16097">
        <ele>64.4</ele>
        <time>2020-06-10T17:54:05Z</time>
      </trkpt>
      <trkpt lat="48.56988" lon="-3.16102">
        <ele>64.4</ele>
        <time>2020-06-10T17:54:06Z</time>
      </trkpt>
      <trkpt lat="48.56992" lon="-3.16107">
        <ele>64.5</ele>
        <time>2020-06-10T17:54:07Z</time>
      </trkpt>
      <trkpt lat="48.56995" lon="-3.16112">
        <ele>64.5</ele>
        <time>2020-06-10T17:54:08Z</time>
      </trkpt>
      <trkpt lat="48.56998" lon="-3.16116">
        <ele>64.4</ele>
        <time>2020-06-10T17:54:09Z</time>
      </trkpt>
      <trkpt lat="48.57003" lon="-3.16121">
        <ele>64.4</ele>
        <time>2020-06-10T17:54:10Z</time>
      </trkpt>
      <trkpt lat="48.57008" lon="-3.16126">
        <ele>64.4</ele>
        <time>2020-06-10T17:54:11Z</time>
      </trkpt>
      <trkpt lat="48.57012" lon="-3.16131">
        <ele>64.3</ele>
        <time>2020-06-10T17:54:12Z</time>
      </trkpt>
      <trkpt lat="48.57015" lon="-3.16134">
        <ele>64.2</ele>
        <time>2020-06-10T17:54:13Z</time>
      </trkpt>
      <trkpt lat="48.57018" lon="-3.16137">
        <ele>64.2</ele>
        <time>2020-06-10T17:54:14Z</time>
      </trkpt>
      <trkpt lat="48.57022" lon="-3.16138">
        <ele>64.2</ele>
        <time>2020-06-10T17:54:15Z</time>
      </trkpt>
      <trkpt lat="48.57025" lon="-3.16138">
        <ele>64.1</ele>
        <time>2020-06-10T17:54:16Z</time>
      </trkpt>
      <trkpt lat="48.57028" lon="-3.16141">
        <ele>64</ele>
        <time>2020-06-10T17:54:17Z</time>
      </trkpt>
      <trkpt lat="48.57029" lon="-3.16145">
        <ele>64</ele>
        <time>2020-06-10T17:54:18Z</time>
      </trkpt>
      <trkpt lat="48.57029" lon="-3.16147">
        <ele>64</ele>
        <time>2020-06-10T17:54:19Z</time>
      </trkpt>
      <trkpt lat="48.57028" lon="-3.16152">
        <ele>64</ele>
        <time>2020-06-10T17:54:20Z</time>
      </trkpt>
      <trkpt lat="48.57028" lon="-3.16154">
        <ele>63.9</ele>
        <time>2020-06-10T17:54:21Z</time>
      </trkpt>
      <trkpt lat="48.57028" lon="-3.16158">
        <ele>63.9</ele>
        <time>2020-06-10T17:54:22Z</time>
      </trkpt>
      <trkpt lat="48.57028" lon="-3.1616">
        <ele>63.9</ele>
        <time>2020-06-10T17:54:23Z</time>
      </trkpt>
      <trkpt lat="48.57027" lon="-3.16163">
        <ele>63.9</ele>
        <time>2020-06-10T17:54:24Z</time>
      </trkpt>
      <trkpt lat="48.57027" lon="-3.16164">
        <ele>63.9</ele>
        <time>2020-06-10T17:54:25Z</time>
      </trkpt>
      <trkpt lat="48.57027" lon="-3.16166">
        <ele>63.9</ele>
        <time>2020-06-10T17:54:26Z</time>
      </trkpt>
      <trkpt lat="48.57027" lon="-3.16168">
        <ele>63.9</ele>
        <time>2020-06-10T17:54:27Z</time>
      </trkpt>
      <trkpt lat="48.57028" lon="-3.16169">
        <ele>63.9</ele>
        <time>2020-06-10T17:54:28Z</time>
      </trkpt>
      <trkpt lat="48.57028" lon="-3.16169">
        <ele>63.9</ele>
        <time>2020-06-10T17:54:29Z</time>
      </trkpt>
      <trkpt lat="48.57028" lon="-3.16169">
        <ele>63.9</ele>
        <time>2020-06-10T17:54:30Z</time>
      </trkpt>
      <trkpt lat="48.57029" lon="-3.16168">
        <ele>63.9</ele>
        <time>2020-06-10T17:54:31Z</time>
      </trkpt>
      <trkpt lat="48.57029" lon="-3.16166">
        <ele>63.9</ele>
        <time>2020-06-10T17:54:32Z</time>
      </trkpt>
      <trkpt lat="48.57029" lon="-3.16165">
        <ele>63.9</ele>
        <time>2020-06-10T17:54:33Z</time>
      </trkpt>
      <trkpt lat="48.57029" lon="-3.16164">
        <ele>63.9</ele>
        <time>2020-06-10T17:54:34Z</time>
      </trkpt>
      <trkpt lat="48.57029" lon="-3.16163">
        <ele>63.9</ele>
        <time>2020-06-10T17:54:35Z</time>
      </trkpt>
      <trkpt lat="48.57029" lon="-3.16162">
        <ele>63.9</ele>
        <time>2020-06-10T17:54:36Z</time>
      </trkpt>
      <trkpt lat="48.57029" lon="-3.16161">
        <ele>63.9</ele>
        <time>2020-06-10T17:54:37Z</time>
      </trkpt>
      <trkpt lat="48.5703" lon="-3.1616">
        <ele>63.9</ele>
        <time>2020-06-10T17:54:38Z</time>
      </trkpt>
      <trkpt lat="48.5703" lon="-3.16159">
        <ele>63.9</ele>
        <time>2020-06-10T17:54:39Z</time>
      </trkpt>
      <trkpt lat="48.5703" lon="-3.16158">
        <ele>63.9</ele>
        <time>2020-06-10T17:55:04Z</time>
      </trkpt>
      <trkpt lat="48.5703" lon="-3.16157">
        <ele>63.9</ele>
        <time>2020-06-10T17:55:05Z</time>
      </trkpt>
      <trkpt lat="48.5703" lon="-3.16156">
        <ele>63.9</ele>
        <time>2020-06-10T17:55:06Z</time>
      </trkpt>
      <trkpt lat="48.57031" lon="-3.16151">
        <ele>63.9</ele>
        <time>2020-06-10T17:55:07Z</time>
      </trkpt>
      <trkpt lat="48.57032" lon="-3.16149">
        <ele>63.9</ele>
        <time>2020-06-10T17:55:08Z</time>
      </trkpt>
      <trkpt lat="48.57033" lon="-3.16144">
        <ele>63.9</ele>
        <time>2020-06-10T17:55:09Z</time>
      </trkpt>
      <trkpt lat="48.57034" lon="-3.16142">
        <ele>63.9</ele>
        <time>2020-06-10T17:55:10Z</time>
      </trkpt>
      <trkpt lat="48.57035" lon="-3.16137">
        <ele>63.9</ele>
        <time>2020-06-10T17:55:11Z</time>
      </trkpt>
      <trkpt lat="48.57036" lon="-3.16135">
        <ele>63.9</ele>
        <time>2020-06-10T17:55:12Z</time>
      </trkpt>
      <trkpt lat="48.57039" lon="-3.16131">
        <ele>63.8</ele>
        <time>2020-06-10T17:55:13Z</time>
      </trkpt>
      <trkpt lat="48.5704" lon="-3.1613">
        <ele>63.8</ele>
        <time>2020-06-10T17:55:14Z</time>
      </trkpt>
      <trkpt lat="48.57043" lon="-3.1613">
        <ele>63.7</ele>
        <time>2020-06-10T17:55:15Z</time>
      </trkpt>
      <trkpt lat="48.57046" lon="-3.16133">
        <ele>63.6</ele>
        <time>2020-06-10T17:55:16Z</time>
      </trkpt>
      <trkpt lat="48.57049" lon="-3.16135">
        <ele>63.5</ele>
        <time>2020-06-10T17:55:17Z</time>
      </trkpt>
      <trkpt lat="48.57053" lon="-3.16137">
        <ele>63.4</ele>
        <time>2020-06-10T17:55:18Z</time>
      </trkpt>
      <trkpt lat="48.57058" lon="-3.16137">
        <ele>63.4</ele>
        <time>2020-06-10T17:55:19Z</time>
      </trkpt>
      <trkpt lat="48.57061" lon="-3.16137">
        <ele>63.3</ele>
        <time>2020-06-10T17:55:20Z</time>
      </trkpt>
      <trkpt lat="48.57065" lon="-3.16137">
        <ele>63.2</ele>
        <time>2020-06-10T17:55:21Z</time>
      </trkpt>
      <trkpt lat="48.57069" lon="-3.16137">
        <ele>63.2</ele>
        <time>2020-06-10T17:55:22Z</time>
      </trkpt>
      <trkpt lat="48.57073" lon="-3.16138">
        <ele>63.1</ele>
        <time>2020-06-10T17:55:23Z</time>
      </trkpt>
      <trkpt lat="48.57077" lon="-3.16139">
        <ele>63.1</ele>
        <time>2020-06-10T17:55:24Z</time>
      </trkpt>
      <trkpt lat="48.5708" lon="-3.16141">
        <ele>63</ele>
        <time>2020-06-10T17:55:25Z</time>
      </trkpt>
      <trkpt lat="48.57085" lon="-3.1614">
        <ele>63</ele>
        <time>2020-06-10T17:55:26Z</time>
      </trkpt>
      <trkpt lat="48.57088" lon="-3.16142">
        <ele>62.9</ele>
        <time>2020-06-10T17:55:27Z</time>
      </trkpt>
      <trkpt lat="48.57092" lon="-3.16143">
        <ele>62.9</ele>
        <time>2020-06-10T17:55:28Z</time>
      </trkpt>
      <trkpt lat="48.57096" lon="-3.16145">
        <ele>62.9</ele>
        <time>2020-06-10T17:55:29Z</time>
      </trkpt>
      <trkpt lat="48.57099" lon="-3.16147">
        <ele>62.9</ele>
        <time>2020-06-10T17:55:30Z</time>
      </trkpt>
      <trkpt lat="48.57104" lon="-3.16145">
        <ele>62.9</ele>
        <time>2020-06-10T17:55:31Z</time>
      </trkpt>
      <trkpt lat="48.57108" lon="-3.16147">
        <ele>62.9</ele>
        <time>2020-06-10T17:55:32Z</time>
      </trkpt>
      <trkpt lat="48.57111" lon="-3.16148">
        <ele>63</ele>
        <time>2020-06-10T17:55:33Z</time>
      </trkpt>
      <trkpt lat="48.57115" lon="-3.16149">
        <ele>63</ele>
        <time>2020-06-10T17:55:34Z</time>
      </trkpt>
      <trkpt lat="48.57118" lon="-3.16149">
        <ele>63</ele>
        <time>2020-06-10T17:55:35Z</time>
      </trkpt>
      <trkpt lat="48.57122" lon="-3.1615">
        <ele>63</ele>
        <time>2020-06-10T17:55:36Z</time>
      </trkpt>
      <trkpt lat="48.57125" lon="-3.16153">
        <ele>63</ele>
        <time>2020-06-10T17:55:37Z</time>
      </trkpt>
      <trkpt lat="48.57128" lon="-3.16157">
        <ele>63</ele>
        <time>2020-06-10T17:55:38Z</time>
      </trkpt>
      <trkpt lat="48.57131" lon="-3.16161">
        <ele>63</ele>
        <time>2020-06-10T17:55:39Z</time>
      </trkpt>
      <trkpt lat="48.57134" lon="-3.16164">
        <ele>63.1</ele>
        <time>2020-06-10T17:55:40Z</time>
      </trkpt>
      <trkpt lat="48.57136" lon="-3.16167">
        <ele>63.1</ele>
        <time>2020-06-10T17:55:41Z</time>
      </trkpt>
      <trkpt lat="48.57139" lon="-3.1617">
        <ele>63.1</ele>
        <time>2020-06-10T17:55:42Z</time>
      </trkpt>
      <trkpt lat="48.57142" lon="-3.16172">
        <ele>63.2</ele>
        <time>2020-06-10T17:55:43Z</time>
      </trkpt>
      <trkpt lat="48.57145" lon="-3.16173">
        <ele>63.2</ele>
        <time>2020-06-10T17:55:44Z</time>
      </trkpt>
      <trkpt lat="48.57148" lon="-3.16174">
        <ele>63.2</ele>
        <time>2020-06-10T17:55:45Z</time>
      </trkpt>
      <trkpt lat="48.57151" lon="-3.16175">
        <ele>63.3</ele>
        <time>2020-06-10T17:55:46Z</time>
      </trkpt>
      <trkpt lat="48.57152" lon="-3.16177">
        <ele>63.3</ele>
        <time>2020-06-10T17:55:47Z</time>
      </trkpt>
      <trkpt lat="48.57155" lon="-3.16175">
        <ele>63.3</ele>
        <time>2020-06-10T17:55:48Z</time>
      </trkpt>
      <trkpt lat="48.57156" lon="-3.16174">
        <ele>63.3</ele>
        <time>2020-06-10T17:55:49Z</time>
      </trkpt>
      <trkpt lat="48.57158" lon="-3.16172">
        <ele>63.4</ele>
        <time>2020-06-10T17:55:50Z</time>
      </trkpt>
      <trkpt lat="48.5716" lon="-3.16173">
        <ele>63.4</ele>
        <time>2020-06-10T17:55:51Z</time>
      </trkpt>
      <trkpt lat="48.57162" lon="-3.16175">
        <ele>63.4</ele>
        <time>2020-06-10T17:55:52Z</time>
      </trkpt>
      <trkpt lat="48.57163" lon="-3.16175">
        <ele>63.4</ele>
        <time>2020-06-10T17:55:53Z</time>
      </trkpt>
      <trkpt lat="48.57165" lon="-3.16179">
        <ele>63.4</ele>
        <time>2020-06-10T17:55:54Z</time>
      </trkpt>
      <trkpt lat="48.57166" lon="-3.1618">
        <ele>63.4</ele>
        <time>2020-06-10T17:55:55Z</time>
      </trkpt>
      <trkpt lat="48.57167" lon="-3.16184">
        <ele>63.4</ele>
        <time>2020-06-10T17:55:56Z</time>
      </trkpt>
      <trkpt lat="48.57167" lon="-3.16186">
        <ele>63.4</ele>
        <time>2020-06-10T17:55:57Z</time>
      </trkpt>
      <trkpt lat="48.57169" lon="-3.1619">
        <ele>63.5</ele>
        <time>2020-06-10T17:55:58Z</time>
      </trkpt>
      <trkpt lat="48.57169" lon="-3.16192">
        <ele>63.5</ele>
        <time>2020-06-10T17:55:59Z</time>
      </trkpt>
      <trkpt lat="48.5717" lon="-3.16196">
        <ele>63.6</ele>
        <time>2020-06-10T17:56:00Z</time>
      </trkpt>
      <trkpt lat="48.57171" lon="-3.16197">
        <ele>63.6</ele>
        <time>2020-06-10T17:56:01Z</time>
      </trkpt>
      <trkpt lat="48.57173" lon="-3.16201">
        <ele>63.6</ele>
        <time>2020-06-10T17:56:02Z</time>
      </trkpt>
      <trkpt lat="48.57175" lon="-3.16202">
        <ele>63.6</ele>
        <time>2020-06-10T17:56:03Z</time>
      </trkpt>
      <trkpt lat="48.57176" lon="-3.16206">
        <ele>63.7</ele>
        <time>2020-06-10T17:56:04Z</time>
      </trkpt>
      <trkpt lat="48.57177" lon="-3.16208">
        <ele>63.7</ele>
        <time>2020-06-10T17:56:05Z</time>
      </trkpt>
      <trkpt lat="48.57179" lon="-3.16212">
        <ele>63.7</ele>
        <time>2020-06-10T17:56:06Z</time>
      </trkpt>
      <trkpt lat="48.5718" lon="-3.16213">
        <ele>63.7</ele>
        <time>2020-06-10T17:56:07Z</time>
      </trkpt>
      <trkpt lat="48.57179" lon="-3.16218">
        <ele>63.7</ele>
        <time>2020-06-10T17:56:08Z</time>
      </trkpt>
      <trkpt lat="48.57179" lon="-3.16219">
        <ele>63.8</ele>
        <time>2020-06-10T17:56:09Z</time>
      </trkpt>
      <trkpt lat="48.5718" lon="-3.16223">
        <ele>63.8</ele>
        <time>2020-06-10T17:56:10Z</time>
      </trkpt>
      <trkpt lat="48.5718" lon="-3.16225">
        <ele>63.8</ele>
        <time>2020-06-10T17:56:11Z</time>
      </trkpt>
      <trkpt lat="48.57181" lon="-3.16229">
        <ele>63.9</ele>
        <time>2020-06-10T17:56:12Z</time>
      </trkpt>
      <trkpt lat="48.57182" lon="-3.16231">
        <ele>63.9</ele>
        <time>2020-06-10T17:56:13Z</time>
      </trkpt>
      <trkpt lat="48.57182" lon="-3.16233">
        <ele>63.9</ele>
        <time>2020-06-10T17:56:14Z</time>
      </trkpt>
      <trkpt lat="48.57183" lon="-3.16236">
        <ele>64</ele>
        <time>2020-06-10T17:56:15Z</time>
      </trkpt>
      <trkpt lat="48.57183" lon="-3.16238">
        <ele>64</ele>
        <time>2020-06-10T17:56:16Z</time>
      </trkpt>
      <trkpt lat="48.57184" lon="-3.1624">
        <ele>64</ele>
        <time>2020-06-10T17:56:17Z</time>
      </trkpt>
      <trkpt lat="48.57185" lon="-3.16242">
        <ele>64</ele>
        <time>2020-06-10T17:56:18Z</time>
      </trkpt>
      <trkpt lat="48.57185" lon="-3.16245">
        <ele>64.1</ele>
        <time>2020-06-10T17:56:19Z</time>
      </trkpt>
      <trkpt lat="48.57185" lon="-3.1625">
        <ele>64.2</ele>
        <time>2020-06-10T17:56:20Z</time>
      </trkpt>
      <trkpt lat="48.57185" lon="-3.16252">
        <ele>64.2</ele>
        <time>2020-06-10T17:56:21Z</time>
      </trkpt>
      <trkpt lat="48.57186" lon="-3.16257">
        <ele>64.3</ele>
        <time>2020-06-10T17:56:22Z</time>
      </trkpt>
      <trkpt lat="48.57187" lon="-3.16258">
        <ele>64.3</ele>
        <time>2020-06-10T17:56:23Z</time>
      </trkpt>
      <trkpt lat="48.57189" lon="-3.1626">
        <ele>64.4</ele>
        <time>2020-06-10T17:56:24Z</time>
      </trkpt>
      <trkpt lat="48.57189" lon="-3.16262">
        <ele>64.4</ele>
        <time>2020-06-10T17:56:25Z</time>
      </trkpt>
      <trkpt lat="48.57188" lon="-3.16266">
        <ele>64.5</ele>
        <time>2020-06-10T17:56:26Z</time>
      </trkpt>
      <trkpt lat="48.57187" lon="-3.16267">
        <ele>64.5</ele>
        <time>2020-06-10T17:56:27Z</time>
      </trkpt>
      <trkpt lat="48.57188" lon="-3.16269">
        <ele>64.5</ele>
        <time>2020-06-10T17:56:28Z</time>
      </trkpt>
      <trkpt lat="48.57188" lon="-3.1627">
        <ele>64.5</ele>
        <time>2020-06-10T17:56:29Z</time>
      </trkpt>
      <trkpt lat="48.57189" lon="-3.1627">
        <ele>64.6</ele>
        <time>2020-06-10T17:56:30Z</time>
      </trkpt>
      <trkpt lat="48.5719" lon="-3.1627">
        <ele>64.6</ele>
        <time>2020-06-10T17:56:31Z</time>
      </trkpt>
      <trkpt lat="48.57191" lon="-3.16269">
        <ele>64.6</ele>
        <time>2020-06-10T17:56:32Z</time>
      </trkpt>
      <trkpt lat="48.57192" lon="-3.1627">
        <ele>64.6</ele>
        <time>2020-06-10T17:56:33Z</time>
      </trkpt>
      <trkpt lat="48.57192" lon="-3.1627">
        <ele>64.7</ele>
        <time>2020-06-10T17:56:34Z</time>
      </trkpt>
      <trkpt lat="48.57193" lon="-3.16271">
        <ele>64.7</ele>
        <time>2020-06-10T17:56:35Z</time>
      </trkpt>
      <trkpt lat="48.57194" lon="-3.16271">
        <ele>64.7</ele>
        <time>2020-06-10T17:56:36Z</time>
      </trkpt>
      <trkpt lat="48.57194" lon="-3.16271">
        <ele>64.7</ele>
        <time>2020-06-10T17:56:37Z</time>
      </trkpt>
      <trkpt lat="48.57195" lon="-3.16271">
        <ele>64.7</ele>
        <time>2020-06-10T17:56:38Z</time>
      </trkpt>
      <trkpt lat="48.57195" lon="-3.16272">
        <ele>64.7</ele>
        <time>2020-06-10T17:56:39Z</time>
      </trkpt>
      <trkpt lat="48.57195" lon="-3.16272">
        <ele>64.7</ele>
        <time>2020-06-10T17:56:40Z</time>
      </trkpt>
      <trkpt lat="48.57195" lon="-3.16273">
        <ele>64.7</ele>
        <time>2020-06-10T17:56:41Z</time>
      </trkpt>
      <trkpt lat="48.57195" lon="-3.16273">
        <ele>64.7</ele>
        <time>2020-06-10T17:56:42Z</time>
      </trkpt>
      <trkpt lat="48.57195" lon="-3.16273">
        <ele>64.7</ele>
        <time>2020-06-10T17:56:43Z</time>
      </trkpt>
      <trkpt lat="48.57196" lon="-3.16274">
        <ele>64.8</ele>
        <time>2020-06-10T17:56:44Z</time>
      </trkpt>
      <trkpt lat="48.57196" lon="-3.16275">
        <ele>64.8</ele>
        <time>2020-06-10T17:56:45Z</time>
      </trkpt>
      <trkpt lat="48.57196" lon="-3.16275">
        <ele>64.8</ele>
        <time>2020-06-10T17:56:46Z</time>
      </trkpt>
      <trkpt lat="48.57195" lon="-3.16277">
        <ele>64.8</ele>
        <time>2020-06-10T17:56:47Z</time>
      </trkpt>
      <trkpt lat="48.57196" lon="-3.16277">
        <ele>64.8</ele>
        <time>2020-06-10T17:56:48Z</time>
      </trkpt>
      <trkpt lat="48.57197" lon="-3.16276">
        <ele>64.8</ele>
        <time>2020-06-10T17:56:49Z</time>
      </trkpt>
      <trkpt lat="48.57198" lon="-3.16275">
        <ele>64.9</ele>
        <time>2020-06-10T17:56:50Z</time>
      </trkpt>
      <trkpt lat="48.57199" lon="-3.16274">
        <ele>64.9</ele>
        <time>2020-06-10T17:56:51Z</time>
      </trkpt>
      <trkpt lat="48.57199" lon="-3.16275">
        <ele>64.9</ele>
        <time>2020-06-10T17:56:52Z</time>
      </trkpt>
      <trkpt lat="48.57199" lon="-3.16275">
        <ele>64.9</ele>
        <time>2020-06-10T17:56:53Z</time>
      </trkpt>
      <trkpt lat="48.572" lon="-3.16275">
        <ele>64.9</ele>
        <time>2020-06-10T17:56:54Z</time>
      </trkpt>
      <trkpt lat="48.57201" lon="-3.16275">
        <ele>64.9</ele>
        <time>2020-06-10T17:56:55Z</time>
      </trkpt>
      <trkpt lat="48.57201" lon="-3.16275">
        <ele>64.9</ele>
        <time>2020-06-10T17:56:56Z</time>
      </trkpt>
      <trkpt lat="48.57202" lon="-3.16275">
        <ele>65</ele>
        <time>2020-06-10T17:56:57Z</time>
      </trkpt>
      <trkpt lat="48.57203" lon="-3.16274">
        <ele>65</ele>
        <time>2020-06-10T17:56:58Z</time>
      </trkpt>
      <trkpt lat="48.57203" lon="-3.16274">
        <ele>65</ele>
        <time>2020-06-10T17:56:59Z</time>
      </trkpt>
      <trkpt lat="48.57203" lon="-3.16274">
        <ele>65</ele>
        <time>2020-06-10T17:57:00Z</time>
      </trkpt>
      <trkpt lat="48.57203" lon="-3.16274">
        <ele>65</ele>
        <time>2020-06-10T17:57:01Z</time>
      </trkpt>
      <trkpt lat="48.57203" lon="-3.16275">
        <ele>65</ele>
        <time>2020-06-10T17:57:02Z</time>
      </trkpt>
      <trkpt lat="48.57203" lon="-3.16276">
        <ele>65</ele>
        <time>2020-06-10T17:57:03Z</time>
      </trkpt>
      <trkpt lat="48.57203" lon="-3.16277">
        <ele>65</ele>
        <time>2020-06-10T17:57:04Z</time>
      </trkpt>
      <trkpt lat="48.57203" lon="-3.16279">
        <ele>65.1</ele>
        <time>2020-06-10T17:57:05Z</time>
      </trkpt>
      <trkpt lat="48.57203" lon="-3.16279">
        <ele>65.1</ele>
        <time>2020-06-10T17:57:06Z</time>
      </trkpt>
      <trkpt lat="48.57203" lon="-3.16281">
        <ele>65.1</ele>
        <time>2020-06-10T17:57:07Z</time>
      </trkpt>
      <trkpt lat="48.57203" lon="-3.16282">
        <ele>65.1</ele>
        <time>2020-06-10T17:57:08Z</time>
      </trkpt>
      <trkpt lat="48.57203" lon="-3.16282">
        <ele>65.1</ele>
        <time>2020-06-10T17:57:09Z</time>
      </trkpt>
      <trkpt lat="48.57204" lon="-3.1628">
        <ele>65.1</ele>
        <time>2020-06-10T17:57:10Z</time>
      </trkpt>
      <trkpt lat="48.57204" lon="-3.1628">
        <ele>65.2</ele>
        <time>2020-06-10T17:57:11Z</time>
      </trkpt>
      <trkpt lat="48.57203" lon="-3.1628">
        <ele>65.2</ele>
        <time>2020-06-10T17:57:12Z</time>
      </trkpt>
      <trkpt lat="48.57203" lon="-3.16281">
        <ele>65.2</ele>
        <time>2020-06-10T17:57:13Z</time>
      </trkpt>
      <trkpt lat="48.57203" lon="-3.16281">
        <ele>65.2</ele>
        <time>2020-06-10T17:57:14Z</time>
      </trkpt>
      <trkpt lat="48.57202" lon="-3.16283">
        <ele>65.2</ele>
        <time>2020-06-10T17:57:15Z</time>
      </trkpt>
      <trkpt lat="48.57201" lon="-3.16284">
        <ele>65.2</ele>
        <time>2020-06-10T17:57:16Z</time>
      </trkpt>
      <trkpt lat="48.572" lon="-3.16285">
        <ele>65.3</ele>
        <time>2020-06-10T17:57:17Z</time>
      </trkpt>
      <trkpt lat="48.572" lon="-3.16285">
        <ele>65.3</ele>
        <time>2020-06-10T17:57:18Z</time>
      </trkpt>
    </trkseg>
  </trk>
  <trk>
    <name><![CDATA[T14]]></name>
    <trkseg>
      <trkpt lat="49.63941" lon="-1.63658">
        <ele>16.5</ele>
        <time>2020-06-15T06:58:46Z</time>
      </trkpt>
      <trkpt lat="49.63941" lon="-1.63657">
        <ele>16.5</ele>
        <time>2020-06-15T06:58:47Z</time>
      </trkpt>
      <trkpt lat="49.63941" lon="-1.63657">
        <ele>16.5</ele>
        <time>2020-06-15T06:58:48Z</time>
      </trkpt>
      <trkpt lat="49.63941" lon="-1.63656">
        <ele>16.5</ele>
        <time>2020-06-15T06:58:49Z</time>
      </trkpt>
      <trkpt lat="49.63941" lon="-1.63656">
        <ele>16.5</ele>
        <time>2020-06-15T06:58:50Z</time>
      </trkpt>
      <trkpt lat="49.63941" lon="-1.63655">
        <ele>16.4</ele>
        <time>2020-06-15T06:58:51Z</time>
      </trkpt>
      <trkpt lat="49.63941" lon="-1.63655">
        <ele>16.4</ele>
        <time>2020-06-15T06:58:52Z</time>
      </trkpt>
      <trkpt lat="49.6394" lon="-1.63654">
        <ele>16.4</ele>
        <time>2020-06-15T06:58:53Z</time>
      </trkpt>
      <trkpt lat="49.6394" lon="-1.63654">
        <ele>16.4</ele>
        <time>2020-06-15T06:58:54Z</time>
      </trkpt>
      <trkpt lat="49.6394" lon="-1.63653">
        <ele>16.4</ele>
        <time>2020-06-15T06:58:55Z</time>
      </trkpt>
      <trkpt lat="49.6394" lon="-1.63653">
        <ele>16.4</ele>
        <time>2020-06-15T06:58:56Z</time>
      </trkpt>
      <trkpt lat="49.6394" lon="-1.63652">
        <ele>16.4</ele>
        <time>2020-06-15T06:58:57Z</time>
      </trkpt>
      <trkpt lat="49.6394" lon="-1.63652">
        <ele>16.4</ele>
        <time>2020-06-15T06:58:58Z</time>
      </trkpt>
      <trkpt lat="49.6394" lon="-1.63651">
        <ele>16.3</ele>
        <time>2020-06-15T06:58:59Z</time>
      </trkpt>
      <trkpt lat="49.6394" lon="-1.63651">
        <ele>16.3</ele>
        <time>2020-06-15T06:59:00Z</time>
      </trkpt>
      <trkpt lat="49.6394" lon="-1.6365">
        <ele>16.3</ele>
        <time>2020-06-15T06:59:01Z</time>
      </trkpt>
      <trkpt lat="49.6394" lon="-1.63649">
        <ele>16.3</ele>
        <time>2020-06-15T06:59:02Z</time>
      </trkpt>
      <trkpt lat="49.6394" lon="-1.63649">
        <ele>16.3</ele>
        <time>2020-06-15T06:59:03Z</time>
      </trkpt>
      <trkpt lat="49.6394" lon="-1.63648">
        <ele>16.3</ele>
        <time>2020-06-15T06:59:04Z</time>
      </trkpt>
      <trkpt lat="49.6394" lon="-1.63648">
        <ele>16.3</ele>
        <time>2020-06-15T06:59:10Z</time>
      </trkpt>
      <trkpt lat="49.63939" lon="-1.63647">
        <ele>16.3</ele>
        <time>2020-06-15T06:59:11Z</time>
      </trkpt>
      <trkpt lat="49.63939" lon="-1.63647">
        <ele>16.2</ele>
        <time>2020-06-15T06:59:12Z</time>
      </trkpt>
      <trkpt lat="49.63939" lon="-1.63646">
        <ele>16.2</ele>
        <time>2020-06-15T06:59:13Z</time>
      </trkpt>
      <trkpt lat="49.63939" lon="-1.63646">
        <ele>16.2</ele>
        <time>2020-06-15T06:59:14Z</time>
      </trkpt>
      <trkpt lat="49.63939" lon="-1.63645">
        <ele>16.2</ele>
        <time>2020-06-15T06:59:15Z</time>
      </trkpt>
      <trkpt lat="49.63939" lon="-1.63645">
        <ele>16.2</ele>
        <time>2020-06-15T06:59:16Z</time>
      </trkpt>
      <trkpt lat="49.63939" lon="-1.63644">
        <ele>16.2</ele>
        <time>2020-06-15T06:59:17Z</time>
      </trkpt>
      <trkpt lat="49.63939" lon="-1.6364">
        <ele>16.1</ele>
        <time>2020-06-15T06:59:18Z</time>
      </trkpt>
      <trkpt lat="49.63939" lon="-1.63639">
        <ele>16</ele>
        <time>2020-06-15T06:59:19Z</time>
      </trkpt>
      <trkpt lat="49.63939" lon="-1.63634">
        <ele>15.9</ele>
        <time>2020-06-15T06:59:20Z</time>
      </trkpt>
      <trkpt lat="49.63938" lon="-1.63633">
        <ele>15.9</ele>
        <time>2020-06-15T06:59:21Z</time>
      </trkpt>
      <trkpt lat="49.63938" lon="-1.63626">
        <ele>15.7</ele>
        <time>2020-06-15T06:59:22Z</time>
      </trkpt>
      <trkpt lat="49.63938" lon="-1.63624">
        <ele>15.7</ele>
        <time>2020-06-15T06:59:23Z</time>
      </trkpt>
      <trkpt lat="49.63937" lon="-1.63619">
        <ele>15.5</ele>
        <time>2020-06-15T06:59:24Z</time>
      </trkpt>
      <trkpt lat="49.63937" lon="-1.63614">
        <ele>15.4</ele>
        <time>2020-06-15T06:59:25Z</time>
      </trkpt>
      <trkpt lat="49.63936" lon="-1.6361">
        <ele>15.3</ele>
        <time>2020-06-15T06:59:26Z</time>
      </trkpt>
      <trkpt lat="49.63936" lon="-1.63605">
        <ele>15.1</ele>
        <time>2020-06-15T06:59:27Z</time>
      </trkpt>
      <trkpt lat="49.63935" lon="-1.63599">
        <ele>15</ele>
        <time>2020-06-15T06:59:28Z</time>
      </trkpt>
      <trkpt lat="49.63935" lon="-1.63592">
        <ele>14.8</ele>
        <time>2020-06-15T06:59:29Z</time>
      </trkpt>
      <trkpt lat="49.63934" lon="-1.63586">
        <ele>14.6</ele>
        <time>2020-06-15T06:59:30Z</time>
      </trkpt>
      <trkpt lat="49.63933" lon="-1.6358">
        <ele>14.5</ele>
        <time>2020-06-15T06:59:31Z</time>
      </trkpt>
      <trkpt lat="49.63932" lon="-1.63576">
        <ele>14.4</ele>
        <time>2020-06-15T06:59:32Z</time>
      </trkpt>
      <trkpt lat="49.63931" lon="-1.63572">
        <ele>14.3</ele>
        <time>2020-06-15T06:59:33Z</time>
      </trkpt>
      <trkpt lat="49.63931" lon="-1.63567">
        <ele>14.1</ele>
        <time>2020-06-15T06:59:34Z</time>
      </trkpt>
      <trkpt lat="49.63931" lon="-1.63565">
        <ele>14.1</ele>
        <time>2020-06-15T06:59:35Z</time>
      </trkpt>
      <trkpt lat="49.63932" lon="-1.6356">
        <ele>14.1</ele>
        <time>2020-06-15T06:59:36Z</time>
      </trkpt>
      <trkpt lat="49.63933" lon="-1.63555">
        <ele>14</ele>
        <time>2020-06-15T06:59:37Z</time>
      </trkpt>
      <trkpt lat="49.63935" lon="-1.63549">
        <ele>14</ele>
        <time>2020-06-15T06:59:38Z</time>
      </trkpt>
      <trkpt lat="49.63935" lon="-1.63544">
        <ele>13.9</ele>
        <time>2020-06-15T06:59:39Z</time>
      </trkpt>
      <trkpt lat="49.63936" lon="-1.6354">
        <ele>13.8</ele>
        <time>2020-06-15T06:59:40Z</time>
      </trkpt>
      <trkpt lat="49.63937" lon="-1.63535">
        <ele>13.8</ele>
        <time>2020-06-15T06:59:41Z</time>
      </trkpt>
      <trkpt lat="49.63938" lon="-1.63529">
        <ele>13.7</ele>
        <time>2020-06-15T06:59:42Z</time>
      </trkpt>
      <trkpt lat="49.63939" lon="-1.63527">
        <ele>13.7</ele>
        <time>2020-06-15T06:59:43Z</time>
      </trkpt>
      <trkpt lat="49.6394" lon="-1.63523">
        <ele>13.6</ele>
        <time>2020-06-15T06:59:44Z</time>
      </trkpt>
      <trkpt lat="49.63942" lon="-1.63518">
        <ele>13.6</ele>
        <time>2020-06-15T06:59:45Z</time>
      </trkpt>
      <trkpt lat="49.63943" lon="-1.63512">
        <ele>13.6</ele>
        <time>2020-06-15T06:59:46Z</time>
      </trkpt>
      <trkpt lat="49.63945" lon="-1.63507">
        <ele>13.5</ele>
        <time>2020-06-15T06:59:47Z</time>
      </trkpt>
      <trkpt lat="49.63946" lon="-1.63502">
        <ele>13.5</ele>
        <time>2020-06-15T06:59:48Z</time>
      </trkpt>
      <trkpt lat="49.63948" lon="-1.63497">
        <ele>13.4</ele>
        <time>2020-06-15T06:59:49Z</time>
      </trkpt>
      <trkpt lat="49.63949" lon="-1.63493">
        <ele>13.4</ele>
        <time>2020-06-15T06:59:50Z</time>
      </trkpt>
      <trkpt lat="49.6395" lon="-1.63491">
        <ele>13.3</ele>
        <time>2020-06-15T06:59:51Z</time>
      </trkpt>
      <trkpt lat="49.63951" lon="-1.63486">
        <ele>13.3</ele>
        <time>2020-06-15T06:59:52Z</time>
      </trkpt>
      <trkpt lat="49.63953" lon="-1.63482">
        <ele>13.2</ele>
        <time>2020-06-15T06:59:53Z</time>
      </trkpt>
      <trkpt lat="49.63954" lon="-1.63477">
        <ele>13.1</ele>
        <time>2020-06-15T06:59:54Z</time>
      </trkpt>
      <trkpt lat="49.63956" lon="-1.63473">
        <ele>13.1</ele>
        <time>2020-06-15T06:59:55Z</time>
      </trkpt>
      <trkpt lat="49.63958" lon="-1.63468">
        <ele>13</ele>
        <time>2020-06-15T06:59:56Z</time>
      </trkpt>
      <trkpt lat="49.63961" lon="-1.63461">
        <ele>12.9</ele>
        <time>2020-06-15T06:59:57Z</time>
      </trkpt>
      <trkpt lat="49.63964" lon="-1.63455">
        <ele>12.8</ele>
        <time>2020-06-15T06:59:58Z</time>
      </trkpt>
      <trkpt lat="49.63967" lon="-1.63449">
        <ele>12.7</ele>
        <time>2020-06-15T06:59:59Z</time>
      </trkpt>
      <trkpt lat="49.6397" lon="-1.63443">
        <ele>12.6</ele>
        <time>2020-06-15T07:00:00Z</time>
      </trkpt>
      <trkpt lat="49.63972" lon="-1.63438">
        <ele>12.5</ele>
        <time>2020-06-15T07:00:01Z</time>
      </trkpt>
      <trkpt lat="49.63974" lon="-1.63432">
        <ele>12.5</ele>
        <time>2020-06-15T07:00:02Z</time>
      </trkpt>
      <trkpt lat="49.63976" lon="-1.63427">
        <ele>12.4</ele>
        <time>2020-06-15T07:00:03Z</time>
      </trkpt>
      <trkpt lat="49.63979" lon="-1.63423">
        <ele>12.4</ele>
        <time>2020-06-15T07:00:04Z</time>
      </trkpt>
      <trkpt lat="49.63981" lon="-1.63418">
        <ele>12.3</ele>
        <time>2020-06-15T07:00:05Z</time>
      </trkpt>
      <trkpt lat="49.63984" lon="-1.63414">
        <ele>12.3</ele>
        <time>2020-06-15T07:00:06Z</time>
      </trkpt>
      <trkpt lat="49.63986" lon="-1.6341">
        <ele>12.2</ele>
        <time>2020-06-15T07:00:07Z</time>
      </trkpt>
      <trkpt lat="49.63988" lon="-1.63405">
        <ele>12.2</ele>
        <time>2020-06-15T07:00:08Z</time>
      </trkpt>
      <trkpt lat="49.63989" lon="-1.634">
        <ele>12.2</ele>
        <time>2020-06-15T07:00:09Z</time>
      </trkpt>
      <trkpt lat="49.63989" lon="-1.63399">
        <ele>12.2</ele>
        <time>2020-06-15T07:00:10Z</time>
      </trkpt>
      <trkpt lat="49.63988" lon="-1.63394">
        <ele>12.1</ele>
        <time>2020-06-15T07:00:11Z</time>
      </trkpt>
      <trkpt lat="49.63987" lon="-1.63389">
        <ele>12</ele>
        <time>2020-06-15T07:00:12Z</time>
      </trkpt>
      <trkpt lat="49.63985" lon="-1.63383">
        <ele>12</ele>
        <time>2020-06-15T07:00:13Z</time>
      </trkpt>
      <trkpt lat="49.63984" lon="-1.63376">
        <ele>12</ele>
        <time>2020-06-15T07:00:14Z</time>
      </trkpt>
      <trkpt lat="49.63981" lon="-1.63369">
        <ele>11.9</ele>
        <time>2020-06-15T07:00:15Z</time>
      </trkpt>
      <trkpt lat="49.63978" lon="-1.63361">
        <ele>11.9</ele>
        <time>2020-06-15T07:00:16Z</time>
      </trkpt>
      <trkpt lat="49.63974" lon="-1.63355">
        <ele>11.9</ele>
        <time>2020-06-15T07:00:17Z</time>
      </trkpt>
      <trkpt lat="49.6397" lon="-1.63349">
        <ele>11.9</ele>
        <time>2020-06-15T07:00:18Z</time>
      </trkpt>
      <trkpt lat="49.63967" lon="-1.63343">
        <ele>11.9</ele>
        <time>2020-06-15T07:00:19Z</time>
      </trkpt>
      <trkpt lat="49.63965" lon="-1.63336">
        <ele>11.9</ele>
        <time>2020-06-15T07:00:20Z</time>
      </trkpt>
      <trkpt lat="49.63962" lon="-1.63329">
        <ele>11.9</ele>
        <time>2020-06-15T07:00:21Z</time>
      </trkpt>
      <trkpt lat="49.63959" lon="-1.63322">
        <ele>11.9</ele>
        <time>2020-06-15T07:00:22Z</time>
      </trkpt>
      <trkpt lat="49.63956" lon="-1.63315">
        <ele>11.9</ele>
        <time>2020-06-15T07:00:23Z</time>
      </trkpt>
      <trkpt lat="49.63953" lon="-1.63308">
        <ele>11.9</ele>
        <time>2020-06-15T07:00:24Z</time>
      </trkpt>
      <trkpt lat="49.63951" lon="-1.633">
        <ele>11.9</ele>
        <time>2020-06-15T07:00:25Z</time>
      </trkpt>
      <trkpt lat="49.63948" lon="-1.63293">
        <ele>11.9</ele>
        <time>2020-06-15T07:00:26Z</time>
      </trkpt>
      <trkpt lat="49.63945" lon="-1.63287">
        <ele>11.9</ele>
        <time>2020-06-15T07:00:27Z</time>
      </trkpt>
      <trkpt lat="49.63943" lon="-1.63281">
        <ele>11.9</ele>
        <time>2020-06-15T07:00:28Z</time>
      </trkpt>
      <trkpt lat="49.63941" lon="-1.63275">
        <ele>12</ele>
        <time>2020-06-15T07:00:29Z</time>
      </trkpt>
      <trkpt lat="49.63939" lon="-1.6327">
        <ele>12</ele>
        <time>2020-06-15T07:00:30Z</time>
      </trkpt>
      <trkpt lat="49.63937" lon="-1.63265">
        <ele>12</ele>
        <time>2020-06-15T07:00:31Z</time>
      </trkpt>
      <trkpt lat="49.63934" lon="-1.6326">
        <ele>12</ele>
        <time>2020-06-15T07:00:32Z</time>
      </trkpt>
      <trkpt lat="49.63932" lon="-1.63253">
        <ele>12</ele>
        <time>2020-06-15T07:00:33Z</time>
      </trkpt>
      <trkpt lat="49.6393" lon="-1.63247">
        <ele>12.1</ele>
        <time>2020-06-15T07:00:34Z</time>
      </trkpt>
      <trkpt lat="49.63928" lon="-1.6324">
        <ele>12.1</ele>
        <time>2020-06-15T07:00:35Z</time>
      </trkpt>
      <trkpt lat="49.63923" lon="-1.63234">
        <ele>12.1</ele>
        <time>2020-06-15T07:00:36Z</time>
      </trkpt>
      <trkpt lat="49.63921" lon="-1.63227">
        <ele>12.1</ele>
        <time>2020-06-15T07:00:37Z</time>
      </trkpt>
      <trkpt lat="49.63919" lon="-1.63221">
        <ele>12.1</ele>
        <time>2020-06-15T07:00:38Z</time>
      </trkpt>
      <trkpt lat="49.63917" lon="-1.63214">
        <ele>12.2</ele>
        <time>2020-06-15T07:00:39Z</time>
      </trkpt>
      <trkpt lat="49.63914" lon="-1.63207">
        <ele>12.2</ele>
        <time>2020-06-15T07:00:40Z</time>
      </trkpt>
      <trkpt lat="49.6391" lon="-1.632">
        <ele>12.2</ele>
        <time>2020-06-15T07:00:41Z</time>
      </trkpt>
      <trkpt lat="49.63908" lon="-1.63193">
        <ele>12.2</ele>
        <time>2020-06-15T07:00:42Z</time>
      </trkpt>
      <trkpt lat="49.63905" lon="-1.63186">
        <ele>12.2</ele>
        <time>2020-06-15T07:00:43Z</time>
      </trkpt>
      <trkpt lat="49.63903" lon="-1.63179">
        <ele>12.2</ele>
        <time>2020-06-15T07:00:44Z</time>
      </trkpt>
      <trkpt lat="49.639" lon="-1.63173">
        <ele>12.1</ele>
        <time>2020-06-15T07:00:45Z</time>
      </trkpt>
      <trkpt lat="49.63898" lon="-1.63167">
        <ele>12.1</ele>
        <time>2020-06-15T07:00:46Z</time>
      </trkpt>
      <trkpt lat="49.63897" lon="-1.63161">
        <ele>12.1</ele>
        <time>2020-06-15T07:00:47Z</time>
      </trkpt>
      <trkpt lat="49.63895" lon="-1.63156">
        <ele>12.1</ele>
        <time>2020-06-15T07:00:48Z</time>
      </trkpt>
      <trkpt lat="49.63894" lon="-1.63151">
        <ele>12.1</ele>
        <time>2020-06-15T07:00:49Z</time>
      </trkpt>
      <trkpt lat="49.63892" lon="-1.63147">
        <ele>12</ele>
        <time>2020-06-15T07:00:50Z</time>
      </trkpt>
      <trkpt lat="49.6389" lon="-1.63143">
        <ele>12</ele>
        <time>2020-06-15T07:00:51Z</time>
      </trkpt>
      <trkpt lat="49.63888" lon="-1.63138">
        <ele>12</ele>
        <time>2020-06-15T07:00:52Z</time>
      </trkpt>
      <trkpt lat="49.63886" lon="-1.63134">
        <ele>12.2</ele>
        <time>2020-06-15T07:00:53Z</time>
      </trkpt>
      <trkpt lat="49.63884" lon="-1.63131">
        <ele>12.3</ele>
        <time>2020-06-15T07:00:54Z</time>
      </trkpt>
      <trkpt lat="49.63881" lon="-1.63127">
        <ele>12.3</ele>
        <time>2020-06-15T07:00:55Z</time>
      </trkpt>
      <trkpt lat="49.63878" lon="-1.63126">
        <ele>12.3</ele>
        <time>2020-06-15T07:00:56Z</time>
      </trkpt>
      <trkpt lat="49.63874" lon="-1.63125">
        <ele>12.4</ele>
        <time>2020-06-15T07:00:57Z</time>
      </trkpt>
      <trkpt lat="49.63873" lon="-1.63124">
        <ele>12.4</ele>
        <time>2020-06-15T07:00:58Z</time>
      </trkpt>
      <trkpt lat="49.6387" lon="-1.63124">
        <ele>12.4</ele>
        <time>2020-06-15T07:00:59Z</time>
      </trkpt>
      <trkpt lat="49.63866" lon="-1.63124">
        <ele>12.5</ele>
        <time>2020-06-15T07:01:00Z</time>
      </trkpt>
      <trkpt lat="49.63862" lon="-1.63126">
        <ele>12.5</ele>
        <time>2020-06-15T07:01:01Z</time>
      </trkpt>
      <trkpt lat="49.63858" lon="-1.63127">
        <ele>12.6</ele>
        <time>2020-06-15T07:01:02Z</time>
      </trkpt>
      <trkpt lat="49.63854" lon="-1.63128">
        <ele>12.6</ele>
        <time>2020-06-15T07:01:03Z</time>
      </trkpt>
      <trkpt lat="49.6385" lon="-1.63128">
        <ele>12.7</ele>
        <time>2020-06-15T07:01:04Z</time>
      </trkpt>
      <trkpt lat="49.63847" lon="-1.63128">
        <ele>12.7</ele>
        <time>2020-06-15T07:01:05Z</time>
      </trkpt>
      <trkpt lat="49.63842" lon="-1.63127">
        <ele>12.8</ele>
        <time>2020-06-15T07:01:06Z</time>
      </trkpt>
      <trkpt lat="49.63838" lon="-1.63127">
        <ele>12.8</ele>
        <time>2020-06-15T07:01:07Z</time>
      </trkpt>
      <trkpt lat="49.63833" lon="-1.63127">
        <ele>12.9</ele>
        <time>2020-06-15T07:01:08Z</time>
      </trkpt>
      <trkpt lat="49.63827" lon="-1.63127">
        <ele>13</ele>
        <time>2020-06-15T07:01:09Z</time>
      </trkpt>
      <trkpt lat="49.63822" lon="-1.63127">
        <ele>13.2</ele>
        <time>2020-06-15T07:01:10Z</time>
      </trkpt>
      <trkpt lat="49.63817" lon="-1.63127">
        <ele>13.3</ele>
        <time>2020-06-15T07:01:11Z</time>
      </trkpt>
      <trkpt lat="49.63812" lon="-1.63127">
        <ele>13.4</ele>
        <time>2020-06-15T07:01:12Z</time>
      </trkpt>
      <trkpt lat="49.63808" lon="-1.63126">
        <ele>13.4</ele>
        <time>2020-06-15T07:01:13Z</time>
      </trkpt>
      <trkpt lat="49.63803" lon="-1.63126">
        <ele>13.5</ele>
        <time>2020-06-15T07:01:14Z</time>
      </trkpt>
      <trkpt lat="49.63798" lon="-1.63127">
        <ele>13.6</ele>
        <time>2020-06-15T07:01:15Z</time>
      </trkpt>
      <trkpt lat="49.63794" lon="-1.63128">
        <ele>13.7</ele>
        <time>2020-06-15T07:01:16Z</time>
      </trkpt>
      <trkpt lat="49.63789" lon="-1.63129">
        <ele>13.7</ele>
        <time>2020-06-15T07:01:17Z</time>
      </trkpt>
      <trkpt lat="49.63785" lon="-1.63129">
        <ele>13.8</ele>
        <time>2020-06-15T07:01:18Z</time>
      </trkpt>
      <trkpt lat="49.6378" lon="-1.63129">
        <ele>13.8</ele>
        <time>2020-06-15T07:01:19Z</time>
      </trkpt>
      <trkpt lat="49.63775" lon="-1.6313">
        <ele>13.9</ele>
        <time>2020-06-15T07:01:20Z</time>
      </trkpt>
      <trkpt lat="49.63771" lon="-1.63131">
        <ele>14</ele>
        <time>2020-06-15T07:01:21Z</time>
      </trkpt>
      <trkpt lat="49.63767" lon="-1.6313">
        <ele>14.1</ele>
        <time>2020-06-15T07:01:22Z</time>
      </trkpt>
      <trkpt lat="49.63763" lon="-1.6313">
        <ele>14.2</ele>
        <time>2020-06-15T07:01:23Z</time>
      </trkpt>
      <trkpt lat="49.63757" lon="-1.6313">
        <ele>14.3</ele>
        <time>2020-06-15T07:01:24Z</time>
      </trkpt>
      <trkpt lat="49.63752" lon="-1.63129">
        <ele>14.5</ele>
        <time>2020-06-15T07:01:25Z</time>
      </trkpt>
      <trkpt lat="49.63747" lon="-1.63128">
        <ele>14.6</ele>
        <time>2020-06-15T07:01:26Z</time>
      </trkpt>
      <trkpt lat="49.63743" lon="-1.63129">
        <ele>14.7</ele>
        <time>2020-06-15T07:01:27Z</time>
      </trkpt>
      <trkpt lat="49.63738" lon="-1.6313">
        <ele>14.8</ele>
        <time>2020-06-15T07:01:28Z</time>
      </trkpt>
      <trkpt lat="49.63734" lon="-1.6313">
        <ele>15</ele>
        <time>2020-06-15T07:01:29Z</time>
      </trkpt>
      <trkpt lat="49.63729" lon="-1.6313">
        <ele>15.1</ele>
        <time>2020-06-15T07:01:30Z</time>
      </trkpt>
      <trkpt lat="49.63724" lon="-1.63129">
        <ele>15.3</ele>
        <time>2020-06-15T07:01:31Z</time>
      </trkpt>
      <trkpt lat="49.6372" lon="-1.63128">
        <ele>15.4</ele>
        <time>2020-06-15T07:01:32Z</time>
      </trkpt>
      <trkpt lat="49.63716" lon="-1.63128">
        <ele>15.5</ele>
        <time>2020-06-15T07:01:33Z</time>
      </trkpt>
      <trkpt lat="49.63711" lon="-1.63129">
        <ele>15.7</ele>
        <time>2020-06-15T07:01:34Z</time>
      </trkpt>
      <trkpt lat="49.63707" lon="-1.63127">
        <ele>15.9</ele>
        <time>2020-06-15T07:01:35Z</time>
      </trkpt>
      <trkpt lat="49.63702" lon="-1.63128">
        <ele>16</ele>
        <time>2020-06-15T07:01:36Z</time>
      </trkpt>
      <trkpt lat="49.63696" lon="-1.63127">
        <ele>16.2</ele>
        <time>2020-06-15T07:01:37Z</time>
      </trkpt>
      <trkpt lat="49.63691" lon="-1.63129">
        <ele>16.4</ele>
        <time>2020-06-15T07:01:38Z</time>
      </trkpt>
      <trkpt lat="49.63687" lon="-1.63128">
        <ele>16.5</ele>
        <time>2020-06-15T07:01:39Z</time>
      </trkpt>
      <trkpt lat="49.63683" lon="-1.63128">
        <ele>16.7</ele>
        <time>2020-06-15T07:01:40Z</time>
      </trkpt>
      <trkpt lat="49.63679" lon="-1.63128">
        <ele>16.8</ele>
        <time>2020-06-15T07:01:41Z</time>
      </trkpt>
      <trkpt lat="49.63674" lon="-1.63127">
        <ele>16.9</ele>
        <time>2020-06-15T07:01:42Z</time>
      </trkpt>
      <trkpt lat="49.63669" lon="-1.63127">
        <ele>17.1</ele>
        <time>2020-06-15T07:01:43Z</time>
      </trkpt>
      <trkpt lat="49.63664" lon="-1.63128">
        <ele>17.3</ele>
        <time>2020-06-15T07:01:44Z</time>
      </trkpt>
      <trkpt lat="49.6366" lon="-1.63126">
        <ele>17.4</ele>
        <time>2020-06-15T07:01:45Z</time>
      </trkpt>
      <trkpt lat="49.63657" lon="-1.63128">
        <ele>17.6</ele>
        <time>2020-06-15T07:01:46Z</time>
      </trkpt>
      <trkpt lat="49.63654" lon="-1.63128">
        <ele>17.7</ele>
        <time>2020-06-15T07:01:47Z</time>
      </trkpt>
      <trkpt lat="49.63649" lon="-1.63126">
        <ele>17.8</ele>
        <time>2020-06-15T07:01:48Z</time>
      </trkpt>
      <trkpt lat="49.63646" lon="-1.63126">
        <ele>17.9</ele>
        <time>2020-06-15T07:01:49Z</time>
      </trkpt>
      <trkpt lat="49.63642" lon="-1.63127">
        <ele>18</ele>
        <time>2020-06-15T07:01:50Z</time>
      </trkpt>
      <trkpt lat="49.63638" lon="-1.63128">
        <ele>18.1</ele>
        <time>2020-06-15T07:01:51Z</time>
      </trkpt>
      <trkpt lat="49.63634" lon="-1.63129">
        <ele>18.2</ele>
        <time>2020-06-15T07:01:52Z</time>
      </trkpt>
      <trkpt lat="49.6363" lon="-1.63129">
        <ele>18.4</ele>
        <time>2020-06-15T07:01:53Z</time>
      </trkpt>
      <trkpt lat="49.63626" lon="-1.63129">
        <ele>18.5</ele>
        <time>2020-06-15T07:01:54Z</time>
      </trkpt>
      <trkpt lat="49.63622" lon="-1.6313">
        <ele>18.6</ele>
        <time>2020-06-15T07:01:55Z</time>
      </trkpt>
      <trkpt lat="49.63619" lon="-1.63129">
        <ele>18.7</ele>
        <time>2020-06-15T07:01:56Z</time>
      </trkpt>
      <trkpt lat="49.63615" lon="-1.63129">
        <ele>18.8</ele>
        <time>2020-06-15T07:01:57Z</time>
      </trkpt>
      <trkpt lat="49.63611" lon="-1.63129">
        <ele>18.9</ele>
        <time>2020-06-15T07:01:58Z</time>
      </trkpt>
      <trkpt lat="49.63606" lon="-1.63129">
        <ele>19</ele>
        <time>2020-06-15T07:01:59Z</time>
      </trkpt>
      <trkpt lat="49.63602" lon="-1.63128">
        <ele>19.1</ele>
        <time>2020-06-15T07:02:00Z</time>
      </trkpt>
      <trkpt lat="49.63599" lon="-1.63124">
        <ele>19.3</ele>
        <time>2020-06-15T07:02:01Z</time>
      </trkpt>
      <trkpt lat="49.63595" lon="-1.63124">
        <ele>19.4</ele>
        <time>2020-06-15T07:02:02Z</time>
      </trkpt>
      <trkpt lat="49.63594" lon="-1.63124">
        <ele>19.5</ele>
        <time>2020-06-15T07:02:03Z</time>
      </trkpt>
      <trkpt lat="49.63591" lon="-1.63125">
        <ele>19.5</ele>
        <time>2020-06-15T07:02:04Z</time>
      </trkpt>
      <trkpt lat="49.63591" lon="-1.63126">
        <ele>19.6</ele>
        <time>2020-06-15T07:02:05Z</time>
      </trkpt>
      <trkpt lat="49.63588" lon="-1.63125">
        <ele>19.6</ele>
        <time>2020-06-15T07:02:06Z</time>
      </trkpt>
      <trkpt lat="49.63587" lon="-1.63125">
        <ele>19.7</ele>
        <time>2020-06-15T07:02:07Z</time>
      </trkpt>
      <trkpt lat="49.63586" lon="-1.63125">
        <ele>19.7</ele>
        <time>2020-06-15T07:02:08Z</time>
      </trkpt>
      <trkpt lat="49.63584" lon="-1.63122">
        <ele>19.8</ele>
        <time>2020-06-15T07:02:09Z</time>
      </trkpt>
      <trkpt lat="49.63583" lon="-1.63121">
        <ele>19.8</ele>
        <time>2020-06-15T07:02:10Z</time>
      </trkpt>
      <trkpt lat="49.6358" lon="-1.63122">
        <ele>19.8</ele>
        <time>2020-06-15T07:02:11Z</time>
      </trkpt>
      <trkpt lat="49.63577" lon="-1.63123">
        <ele>19.9</ele>
        <time>2020-06-15T07:02:12Z</time>
      </trkpt>
      <trkpt lat="49.63576" lon="-1.63122">
        <ele>19.9</ele>
        <time>2020-06-15T07:02:13Z</time>
      </trkpt>
      <trkpt lat="49.63574" lon="-1.63123">
        <ele>19.9</ele>
        <time>2020-06-15T07:02:14Z</time>
      </trkpt>
      <trkpt lat="49.63572" lon="-1.63123">
        <ele>19.9</ele>
        <time>2020-06-15T07:02:15Z</time>
      </trkpt>
      <trkpt lat="49.63568" lon="-1.63121">
        <ele>20</ele>
        <time>2020-06-15T07:02:16Z</time>
      </trkpt>
      <trkpt lat="49.63564" lon="-1.6312">
        <ele>20</ele>
        <time>2020-06-15T07:02:17Z</time>
      </trkpt>
      <trkpt lat="49.63561" lon="-1.63115">
        <ele>19.9</ele>
        <time>2020-06-15T07:02:18Z</time>
      </trkpt>
      <trkpt lat="49.63559" lon="-1.63109">
        <ele>19.9</ele>
        <time>2020-06-15T07:02:19Z</time>
      </trkpt>
      <trkpt lat="49.63558" lon="-1.63102">
        <ele>19.8</ele>
        <time>2020-06-15T07:02:20Z</time>
      </trkpt>
      <trkpt lat="49.63557" lon="-1.63097">
        <ele>19.8</ele>
        <time>2020-06-15T07:02:21Z</time>
      </trkpt>
      <trkpt lat="49.63557" lon="-1.63092">
        <ele>19.7</ele>
        <time>2020-06-15T07:02:22Z</time>
      </trkpt>
      <trkpt lat="49.63557" lon="-1.6309">
        <ele>19.6</ele>
        <time>2020-06-15T07:02:23Z</time>
      </trkpt>
      <trkpt lat="49.63555" lon="-1.63085">
        <ele>19.5</ele>
        <time>2020-06-15T07:02:24Z</time>
      </trkpt>
      <trkpt lat="49.63555" lon="-1.63083">
        <ele>19.5</ele>
        <time>2020-06-15T07:02:25Z</time>
      </trkpt>
      <trkpt lat="49.63555" lon="-1.63079">
        <ele>19.4</ele>
        <time>2020-06-15T07:02:26Z</time>
      </trkpt>
      <trkpt lat="49.63554" lon="-1.63073">
        <ele>19.3</ele>
        <time>2020-06-15T07:02:27Z</time>
      </trkpt>
      <trkpt lat="49.63553" lon="-1.63066">
        <ele>19.2</ele>
        <time>2020-06-15T07:02:28Z</time>
      </trkpt>
      <trkpt lat="49.63551" lon="-1.63059">
        <ele>19.2</ele>
        <time>2020-06-15T07:02:29Z</time>
      </trkpt>
      <trkpt lat="49.63549" lon="-1.63053">
        <ele>19.2</ele>
        <time>2020-06-15T07:02:30Z</time>
      </trkpt>
      <trkpt lat="49.63548" lon="-1.63046">
        <ele>19.2</ele>
        <time>2020-06-15T07:02:31Z</time>
      </trkpt>
      <trkpt lat="49.63546" lon="-1.63038">
        <ele>18.9</ele>
        <time>2020-06-15T07:02:32Z</time>
      </trkpt>
      <trkpt lat="49.63544" lon="-1.6303">
        <ele>18.6</ele>
        <time>2020-06-15T07:02:33Z</time>
      </trkpt>
      <trkpt lat="49.63542" lon="-1.63022">
        <ele>18.2</ele>
        <time>2020-06-15T07:02:34Z</time>
      </trkpt>
      <trkpt lat="49.63541" lon="-1.63012">
        <ele>17.8</ele>
        <time>2020-06-15T07:02:35Z</time>
      </trkpt>
      <trkpt lat="49.63538" lon="-1.63002">
        <ele>17.4</ele>
        <time>2020-06-15T07:02:36Z</time>
      </trkpt>
      <trkpt lat="49.63536" lon="-1.62993">
        <ele>17.1</ele>
        <time>2020-06-15T07:02:37Z</time>
      </trkpt>
      <trkpt lat="49.63533" lon="-1.62982">
        <ele>16.7</ele>
        <time>2020-06-15T07:02:38Z</time>
      </trkpt>
      <trkpt lat="49.63531" lon="-1.62973">
        <ele>16.4</ele>
        <time>2020-06-15T07:02:39Z</time>
      </trkpt>
      <trkpt lat="49.63528" lon="-1.62964">
        <ele>16.1</ele>
        <time>2020-06-15T07:02:40Z</time>
      </trkpt>
      <trkpt lat="49.63525" lon="-1.62955">
        <ele>15.9</ele>
        <time>2020-06-15T07:02:41Z</time>
      </trkpt>
      <trkpt lat="49.63522" lon="-1.62944">
        <ele>15.6</ele>
        <time>2020-06-15T07:02:42Z</time>
      </trkpt>
      <trkpt lat="49.6352" lon="-1.62934">
        <ele>15.3</ele>
        <time>2020-06-15T07:02:43Z</time>
      </trkpt>
      <trkpt lat="49.63518" lon="-1.62925">
        <ele>15</ele>
        <time>2020-06-15T07:02:44Z</time>
      </trkpt>
      <trkpt lat="49.63516" lon="-1.62915">
        <ele>14.7</ele>
        <time>2020-06-15T07:02:45Z</time>
      </trkpt>
      <trkpt lat="49.63514" lon="-1.62903">
        <ele>14.4</ele>
        <time>2020-06-15T07:02:46Z</time>
      </trkpt>
      <trkpt lat="49.63512" lon="-1.62892">
        <ele>14.1</ele>
        <time>2020-06-15T07:02:47Z</time>
      </trkpt>
      <trkpt lat="49.6351" lon="-1.62881">
        <ele>13.7</ele>
        <time>2020-06-15T07:02:48Z</time>
      </trkpt>
      <trkpt lat="49.63508" lon="-1.62871">
        <ele>13.4</ele>
        <time>2020-06-15T07:02:49Z</time>
      </trkpt>
      <trkpt lat="49.63506" lon="-1.6286">
        <ele>13.1</ele>
        <time>2020-06-15T07:02:50Z</time>
      </trkpt>
      <trkpt lat="49.63504" lon="-1.6285">
        <ele>12.8</ele>
        <time>2020-06-15T07:02:51Z</time>
      </trkpt>
      <trkpt lat="49.63502" lon="-1.62839">
        <ele>12.5</ele>
        <time>2020-06-15T07:02:52Z</time>
      </trkpt>
      <trkpt lat="49.635" lon="-1.62829">
        <ele>12.1</ele>
        <time>2020-06-15T07:02:53Z</time>
      </trkpt>
      <trkpt lat="49.63498" lon="-1.62818">
        <ele>11.8</ele>
        <time>2020-06-15T07:02:54Z</time>
      </trkpt>
      <trkpt lat="49.63496" lon="-1.62808">
        <ele>11.5</ele>
        <time>2020-06-15T07:02:55Z</time>
      </trkpt>
      <trkpt lat="49.63493" lon="-1.62798">
        <ele>11.2</ele>
        <time>2020-06-15T07:02:56Z</time>
      </trkpt>
      <trkpt lat="49.63491" lon="-1.62788">
        <ele>10.9</ele>
        <time>2020-06-15T07:02:57Z</time>
      </trkpt>
      <trkpt lat="49.63489" lon="-1.62778">
        <ele>10.7</ele>
        <time>2020-06-15T07:02:58Z</time>
      </trkpt>
      <trkpt lat="49.63486" lon="-1.62769">
        <ele>10.4</ele>
        <time>2020-06-15T07:02:59Z</time>
      </trkpt>
      <trkpt lat="49.63485" lon="-1.62759">
        <ele>10.2</ele>
        <time>2020-06-15T07:03:00Z</time>
      </trkpt>
      <trkpt lat="49.63483" lon="-1.62749">
        <ele>10</ele>
        <time>2020-06-15T07:03:01Z</time>
      </trkpt>
      <trkpt lat="49.63482" lon="-1.6274">
        <ele>9.9</ele>
        <time>2020-06-15T07:03:02Z</time>
      </trkpt>
      <trkpt lat="49.6348" lon="-1.6273">
        <ele>9.7</ele>
        <time>2020-06-15T07:03:03Z</time>
      </trkpt>
      <trkpt lat="49.63478" lon="-1.6272">
        <ele>9.6</ele>
        <time>2020-06-15T07:03:04Z</time>
      </trkpt>
      <trkpt lat="49.63476" lon="-1.62709">
        <ele>9.4</ele>
        <time>2020-06-15T07:03:05Z</time>
      </trkpt>
      <trkpt lat="49.63473" lon="-1.62699">
        <ele>9.2</ele>
        <time>2020-06-15T07:03:06Z</time>
      </trkpt>
      <trkpt lat="49.6347" lon="-1.62689">
        <ele>9.1</ele>
        <time>2020-06-15T07:03:07Z</time>
      </trkpt>
      <trkpt lat="49.63468" lon="-1.62678">
        <ele>9</ele>
        <time>2020-06-15T07:03:08Z</time>
      </trkpt>
      <trkpt lat="49.63466" lon="-1.62668">
        <ele>8.9</ele>
        <time>2020-06-15T07:03:09Z</time>
      </trkpt>
      <trkpt lat="49.63464" lon="-1.62658">
        <ele>8.8</ele>
        <time>2020-06-15T07:03:10Z</time>
      </trkpt>
      <trkpt lat="49.63461" lon="-1.62648">
        <ele>8.7</ele>
        <time>2020-06-15T07:03:11Z</time>
      </trkpt>
      <trkpt lat="49.63459" lon="-1.62639">
        <ele>8.6</ele>
        <time>2020-06-15T07:03:12Z</time>
      </trkpt>
      <trkpt lat="49.63456" lon="-1.62629">
        <ele>8.5</ele>
        <time>2020-06-15T07:03:13Z</time>
      </trkpt>
      <trkpt lat="49.63454" lon="-1.6262">
        <ele>8.3</ele>
        <time>2020-06-15T07:03:14Z</time>
      </trkpt>
      <trkpt lat="49.63452" lon="-1.6261">
        <ele>8.3</ele>
        <time>2020-06-15T07:03:15Z</time>
      </trkpt>
      <trkpt lat="49.63449" lon="-1.62601">
        <ele>8.2</ele>
        <time>2020-06-15T07:03:16Z</time>
      </trkpt>
      <trkpt lat="49.63447" lon="-1.62591">
        <ele>8.2</ele>
        <time>2020-06-15T07:03:17Z</time>
      </trkpt>
      <trkpt lat="49.63445" lon="-1.62582">
        <ele>8.3</ele>
        <time>2020-06-15T07:03:18Z</time>
      </trkpt>
      <trkpt lat="49.63443" lon="-1.62573">
        <ele>8.5</ele>
        <time>2020-06-15T07:03:19Z</time>
      </trkpt>
      <trkpt lat="49.63441" lon="-1.62564">
        <ele>8.6</ele>
        <time>2020-06-15T07:03:20Z</time>
      </trkpt>
      <trkpt lat="49.63439" lon="-1.62554">
        <ele>8.7</ele>
        <time>2020-06-15T07:03:21Z</time>
      </trkpt>
      <trkpt lat="49.63437" lon="-1.62544">
        <ele>8.7</ele>
        <time>2020-06-15T07:03:22Z</time>
      </trkpt>
      <trkpt lat="49.63435" lon="-1.62535">
        <ele>8.7</ele>
        <time>2020-06-15T07:03:23Z</time>
      </trkpt>
      <trkpt lat="49.63433" lon="-1.62525">
        <ele>8.7</ele>
        <time>2020-06-15T07:03:24Z</time>
      </trkpt>
      <trkpt lat="49.63431" lon="-1.62516">
        <ele>8.6</ele>
        <time>2020-06-15T07:03:25Z</time>
      </trkpt>
      <trkpt lat="49.63428" lon="-1.62506">
        <ele>8.3</ele>
        <time>2020-06-15T07:03:26Z</time>
      </trkpt>
      <trkpt lat="49.63426" lon="-1.62497">
        <ele>8</ele>
        <time>2020-06-15T07:03:27Z</time>
      </trkpt>
      <trkpt lat="49.63424" lon="-1.62488">
        <ele>7.7</ele>
        <time>2020-06-15T07:03:28Z</time>
      </trkpt>
      <trkpt lat="49.63422" lon="-1.62479">
        <ele>7.4</ele>
        <time>2020-06-15T07:03:29Z</time>
      </trkpt>
      <trkpt lat="49.6342" lon="-1.6247">
        <ele>7.1</ele>
        <time>2020-06-15T07:03:30Z</time>
      </trkpt>
      <trkpt lat="49.63418" lon="-1.6246">
        <ele>6.9</ele>
        <time>2020-06-15T07:03:31Z</time>
      </trkpt>
      <trkpt lat="49.63416" lon="-1.62451">
        <ele>6.8</ele>
        <time>2020-06-15T07:03:32Z</time>
      </trkpt>
      <trkpt lat="49.63414" lon="-1.62442">
        <ele>6.7</ele>
        <time>2020-06-15T07:03:33Z</time>
      </trkpt>
      <trkpt lat="49.63412" lon="-1.62432">
        <ele>6.6</ele>
        <time>2020-06-15T07:03:34Z</time>
      </trkpt>
      <trkpt lat="49.6341" lon="-1.62423">
        <ele>6.5</ele>
        <time>2020-06-15T07:03:35Z</time>
      </trkpt>
      <trkpt lat="49.63408" lon="-1.62414">
        <ele>6.4</ele>
        <time>2020-06-15T07:03:36Z</time>
      </trkpt>
      <trkpt lat="49.63406" lon="-1.62405">
        <ele>6.3</ele>
        <time>2020-06-15T07:03:37Z</time>
      </trkpt>
      <trkpt lat="49.63404" lon="-1.62396">
        <ele>6.2</ele>
        <time>2020-06-15T07:03:38Z</time>
      </trkpt>
      <trkpt lat="49.63402" lon="-1.62388">
        <ele>6.2</ele>
        <time>2020-06-15T07:03:39Z</time>
      </trkpt>
      <trkpt lat="49.634" lon="-1.6238">
        <ele>6.1</ele>
        <time>2020-06-15T07:03:40Z</time>
      </trkpt>
      <trkpt lat="49.63399" lon="-1.62373">
        <ele>6.1</ele>
        <time>2020-06-15T07:03:41Z</time>
      </trkpt>
      <trkpt lat="49.63397" lon="-1.62366">
        <ele>6</ele>
        <time>2020-06-15T07:03:42Z</time>
      </trkpt>
      <trkpt lat="49.63396" lon="-1.6236">
        <ele>6</ele>
        <time>2020-06-15T07:03:43Z</time>
      </trkpt>
      <trkpt lat="49.63395" lon="-1.62357">
        <ele>6</ele>
        <time>2020-06-15T07:03:44Z</time>
      </trkpt>
      <trkpt lat="49.63395" lon="-1.62356">
        <ele>6</ele>
        <time>2020-06-15T07:03:45Z</time>
      </trkpt>
      <trkpt lat="49.63395" lon="-1.62357">
        <ele>6</ele>
        <time>2020-06-15T07:03:46Z</time>
      </trkpt>
      <trkpt lat="49.63395" lon="-1.62357">
        <ele>6</ele>
        <time>2020-06-15T07:03:47Z</time>
      </trkpt>
      <trkpt lat="49.63394" lon="-1.62357">
        <ele>6</ele>
        <time>2020-06-15T07:03:48Z</time>
      </trkpt>
      <trkpt lat="49.63393" lon="-1.62358">
        <ele>6</ele>
        <time>2020-06-15T07:03:49Z</time>
      </trkpt>
      <trkpt lat="49.63393" lon="-1.62358">
        <ele>6</ele>
        <time>2020-06-15T07:03:50Z</time>
      </trkpt>
      <trkpt lat="49.63393" lon="-1.62358">
        <ele>6</ele>
        <time>2020-06-15T07:03:51Z</time>
      </trkpt>
      <trkpt lat="49.63392" lon="-1.62358">
        <ele>6</ele>
        <time>2020-06-15T07:03:52Z</time>
      </trkpt>
      <trkpt lat="49.63391" lon="-1.62356">
        <ele>5.9</ele>
        <time>2020-06-15T07:03:53Z</time>
      </trkpt>
      <trkpt lat="49.63391" lon="-1.62353">
        <ele>5.9</ele>
        <time>2020-06-15T07:03:54Z</time>
      </trkpt>
      <trkpt lat="49.63391" lon="-1.6235">
        <ele>5.9</ele>
        <time>2020-06-15T07:03:55Z</time>
      </trkpt>
      <trkpt lat="49.6339" lon="-1.62347">
        <ele>5.9</ele>
        <time>2020-06-15T07:05:03Z</time>
      </trkpt>
      <trkpt lat="49.6339" lon="-1.62344">
        <ele>5.9</ele>
        <time>2020-06-15T07:05:04Z</time>
      </trkpt>
      <trkpt lat="49.6339" lon="-1.6234">
        <ele>5.9</ele>
        <time>2020-06-15T07:05:05Z</time>
      </trkpt>
      <trkpt lat="49.63389" lon="-1.62334">
        <ele>5.8</ele>
        <time>2020-06-15T07:05:06Z</time>
      </trkpt>
      <trkpt lat="49.63389" lon="-1.62327">
        <ele>5.8</ele>
        <time>2020-06-15T07:05:07Z</time>
      </trkpt>
      <trkpt lat="49.63389" lon="-1.62321">
        <ele>5.7</ele>
        <time>2020-06-15T07:05:08Z</time>
      </trkpt>
      <trkpt lat="49.63388" lon="-1.62314">
        <ele>5.6</ele>
        <time>2020-06-15T07:05:09Z</time>
      </trkpt>
      <trkpt lat="49.63387" lon="-1.62307">
        <ele>5.6</ele>
        <time>2020-06-15T07:05:10Z</time>
      </trkpt>
      <trkpt lat="49.63386" lon="-1.62299">
        <ele>5.5</ele>
        <time>2020-06-15T07:05:11Z</time>
      </trkpt>
      <trkpt lat="49.63385" lon="-1.62291">
        <ele>5.4</ele>
        <time>2020-06-15T07:05:12Z</time>
      </trkpt>
      <trkpt lat="49.63385" lon="-1.62284">
        <ele>5.4</ele>
        <time>2020-06-15T07:05:13Z</time>
      </trkpt>
      <trkpt lat="49.63384" lon="-1.62276">
        <ele>5.3</ele>
        <time>2020-06-15T07:05:14Z</time>
      </trkpt>
      <trkpt lat="49.63384" lon="-1.62268">
        <ele>5.3</ele>
        <time>2020-06-15T07:05:15Z</time>
      </trkpt>
      <trkpt lat="49.63384" lon="-1.62261">
        <ele>5.3</ele>
        <time>2020-06-15T07:05:16Z</time>
      </trkpt>
      <trkpt lat="49.63384" lon="-1.62253">
        <ele>5.4</ele>
        <time>2020-06-15T07:05:17Z</time>
      </trkpt>
      <trkpt lat="49.63385" lon="-1.62244">
        <ele>5.4</ele>
        <time>2020-06-15T07:05:18Z</time>
      </trkpt>
      <trkpt lat="49.63385" lon="-1.62236">
        <ele>5.4</ele>
        <time>2020-06-15T07:05:19Z</time>
      </trkpt>
      <trkpt lat="49.63384" lon="-1.62229">
        <ele>5.4</ele>
        <time>2020-06-15T07:05:20Z</time>
      </trkpt>
      <trkpt lat="49.63382" lon="-1.62222">
        <ele>5.4</ele>
        <time>2020-06-15T07:05:21Z</time>
      </trkpt>
      <trkpt lat="49.63381" lon="-1.62214">
        <ele>5.3</ele>
        <time>2020-06-15T07:05:22Z</time>
      </trkpt>
      <trkpt lat="49.6338" lon="-1.62205">
        <ele>5.2</ele>
        <time>2020-06-15T07:05:23Z</time>
      </trkpt>
      <trkpt lat="49.63378" lon="-1.62196">
        <ele>5</ele>
        <time>2020-06-15T07:05:24Z</time>
      </trkpt>
      <trkpt lat="49.63377" lon="-1.62188">
        <ele>4.8</ele>
        <time>2020-06-15T07:05:25Z</time>
      </trkpt>
      <trkpt lat="49.63375" lon="-1.62179">
        <ele>4.7</ele>
        <time>2020-06-15T07:05:26Z</time>
      </trkpt>
      <trkpt lat="49.63374" lon="-1.62171">
        <ele>4.5</ele>
        <time>2020-06-15T07:05:27Z</time>
      </trkpt>
      <trkpt lat="49.63373" lon="-1.62163">
        <ele>4.5</ele>
        <time>2020-06-15T07:05:28Z</time>
      </trkpt>
      <trkpt lat="49.63372" lon="-1.62154">
        <ele>4.4</ele>
        <time>2020-06-15T07:05:29Z</time>
      </trkpt>
      <trkpt lat="49.63371" lon="-1.62145">
        <ele>4.4</ele>
        <time>2020-06-15T07:05:30Z</time>
      </trkpt>
      <trkpt lat="49.6337" lon="-1.62136">
        <ele>4.4</ele>
        <time>2020-06-15T07:05:31Z</time>
      </trkpt>
      <trkpt lat="49.63369" lon="-1.62127">
        <ele>4.4</ele>
        <time>2020-06-15T07:05:32Z</time>
      </trkpt>
      <trkpt lat="49.63368" lon="-1.62118">
        <ele>4.3</ele>
        <time>2020-06-15T07:05:33Z</time>
      </trkpt>
      <trkpt lat="49.63367" lon="-1.62109">
        <ele>4.4</ele>
        <time>2020-06-15T07:05:34Z</time>
      </trkpt>
      <trkpt lat="49.63366" lon="-1.621">
        <ele>4.4</ele>
        <time>2020-06-15T07:05:35Z</time>
      </trkpt>
      <trkpt lat="49.63365" lon="-1.62093">
        <ele>4.4</ele>
        <time>2020-06-15T07:05:36Z</time>
      </trkpt>
      <trkpt lat="49.63365" lon="-1.62085">
        <ele>4.4</ele>
        <time>2020-06-15T07:05:37Z</time>
      </trkpt>
      <trkpt lat="49.63364" lon="-1.62077">
        <ele>4.4</ele>
        <time>2020-06-15T07:05:38Z</time>
      </trkpt>
      <trkpt lat="49.63362" lon="-1.62067">
        <ele>4.4</ele>
        <time>2020-06-15T07:05:39Z</time>
      </trkpt>
      <trkpt lat="49.63362" lon="-1.62058">
        <ele>4.4</ele>
        <time>2020-06-15T07:05:40Z</time>
      </trkpt>
      <trkpt lat="49.63361" lon="-1.62049">
        <ele>4.4</ele>
        <time>2020-06-15T07:05:41Z</time>
      </trkpt>
      <trkpt lat="49.6336" lon="-1.62039">
        <ele>4.4</ele>
        <time>2020-06-15T07:05:42Z</time>
      </trkpt>
      <trkpt lat="49.6336" lon="-1.62031">
        <ele>4.4</ele>
        <time>2020-06-15T07:05:43Z</time>
      </trkpt>
      <trkpt lat="49.6336" lon="-1.62023">
        <ele>4.4</ele>
        <time>2020-06-15T07:05:44Z</time>
      </trkpt>
      <trkpt lat="49.6336" lon="-1.62015">
        <ele>4.4</ele>
        <time>2020-06-15T07:05:45Z</time>
      </trkpt>
      <trkpt lat="49.63359" lon="-1.62006">
        <ele>4.5</ele>
        <time>2020-06-15T07:05:46Z</time>
      </trkpt>
      <trkpt lat="49.63359" lon="-1.61997">
        <ele>4.5</ele>
        <time>2020-06-15T07:05:47Z</time>
      </trkpt>
      <trkpt lat="49.63359" lon="-1.61989">
        <ele>4.5</ele>
        <time>2020-06-15T07:05:48Z</time>
      </trkpt>
      <trkpt lat="49.63358" lon="-1.61979">
        <ele>4.5</ele>
        <time>2020-06-15T07:05:49Z</time>
      </trkpt>
      <trkpt lat="49.63358" lon="-1.61971">
        <ele>4.5</ele>
        <time>2020-06-15T07:05:50Z</time>
      </trkpt>
      <trkpt lat="49.63356" lon="-1.61963">
        <ele>4.6</ele>
        <time>2020-06-15T07:05:51Z</time>
      </trkpt>
      <trkpt lat="49.63355" lon="-1.61955">
        <ele>4.6</ele>
        <time>2020-06-15T07:05:52Z</time>
      </trkpt>
      <trkpt lat="49.63355" lon="-1.61947">
        <ele>4.6</ele>
        <time>2020-06-15T07:05:53Z</time>
      </trkpt>
      <trkpt lat="49.63354" lon="-1.61939">
        <ele>4.6</ele>
        <time>2020-06-15T07:05:54Z</time>
      </trkpt>
      <trkpt lat="49.63354" lon="-1.6193">
        <ele>4.6</ele>
        <time>2020-06-15T07:05:55Z</time>
      </trkpt>
      <trkpt lat="49.63354" lon="-1.61923">
        <ele>4.6</ele>
        <time>2020-06-15T07:05:56Z</time>
      </trkpt>
      <trkpt lat="49.63353" lon="-1.61914">
        <ele>4.6</ele>
        <time>2020-06-15T07:05:57Z</time>
      </trkpt>
      <trkpt lat="49.63353" lon="-1.61904">
        <ele>4.6</ele>
        <time>2020-06-15T07:05:58Z</time>
      </trkpt>
      <trkpt lat="49.63352" lon="-1.61895">
        <ele>4.6</ele>
        <time>2020-06-15T07:05:59Z</time>
      </trkpt>
      <trkpt lat="49.63351" lon="-1.61885">
        <ele>4.5</ele>
        <time>2020-06-15T07:06:00Z</time>
      </trkpt>
      <trkpt lat="49.6335" lon="-1.61877">
        <ele>4.5</ele>
        <time>2020-06-15T07:06:01Z</time>
      </trkpt>
      <trkpt lat="49.63349" lon="-1.61866">
        <ele>4.5</ele>
        <time>2020-06-15T07:06:02Z</time>
      </trkpt>
      <trkpt lat="49.63348" lon="-1.61855">
        <ele>4.5</ele>
        <time>2020-06-15T07:06:03Z</time>
      </trkpt>
      <trkpt lat="49.63348" lon="-1.61847">
        <ele>4.4</ele>
        <time>2020-06-15T07:06:04Z</time>
      </trkpt>
      <trkpt lat="49.63347" lon="-1.61838">
        <ele>4.5</ele>
        <time>2020-06-15T07:06:05Z</time>
      </trkpt>
      <trkpt lat="49.63347" lon="-1.61832">
        <ele>4.5</ele>
        <time>2020-06-15T07:06:06Z</time>
      </trkpt>
      <trkpt lat="49.63347" lon="-1.61824">
        <ele>4.5</ele>
        <time>2020-06-15T07:06:07Z</time>
      </trkpt>
      <trkpt lat="49.63346" lon="-1.61816">
        <ele>4.5</ele>
        <time>2020-06-15T07:06:08Z</time>
      </trkpt>
      <trkpt lat="49.63346" lon="-1.61807">
        <ele>4.5</ele>
        <time>2020-06-15T07:06:09Z</time>
      </trkpt>
      <trkpt lat="49.63346" lon="-1.618">
        <ele>4.5</ele>
        <time>2020-06-15T07:06:10Z</time>
      </trkpt>
      <trkpt lat="49.63346" lon="-1.61793">
        <ele>4.6</ele>
        <time>2020-06-15T07:06:11Z</time>
      </trkpt>
      <trkpt lat="49.63345" lon="-1.61786">
        <ele>4.5</ele>
        <time>2020-06-15T07:06:12Z</time>
      </trkpt>
      <trkpt lat="49.63345" lon="-1.61777">
        <ele>4.5</ele>
        <time>2020-06-15T07:06:13Z</time>
      </trkpt>
      <trkpt lat="49.63344" lon="-1.6177">
        <ele>4.5</ele>
        <time>2020-06-15T07:06:14Z</time>
      </trkpt>
      <trkpt lat="49.63344" lon="-1.61763">
        <ele>4.5</ele>
        <time>2020-06-15T07:06:15Z</time>
      </trkpt>
      <trkpt lat="49.63344" lon="-1.61758">
        <ele>4.5</ele>
        <time>2020-06-15T07:06:16Z</time>
      </trkpt>
      <trkpt lat="49.63344" lon="-1.61753">
        <ele>4.4</ele>
        <time>2020-06-15T07:06:17Z</time>
      </trkpt>
      <trkpt lat="49.63342" lon="-1.61749">
        <ele>4.4</ele>
        <time>2020-06-15T07:06:18Z</time>
      </trkpt>
      <trkpt lat="49.63342" lon="-1.61747">
        <ele>4.4</ele>
        <time>2020-06-15T07:06:19Z</time>
      </trkpt>
      <trkpt lat="49.6334" lon="-1.61744">
        <ele>4.3</ele>
        <time>2020-06-15T07:06:20Z</time>
      </trkpt>
      <trkpt lat="49.63336" lon="-1.61743">
        <ele>4.3</ele>
        <time>2020-06-15T07:06:21Z</time>
      </trkpt>
      <trkpt lat="49.63331" lon="-1.61743">
        <ele>4.3</ele>
        <time>2020-06-15T07:06:22Z</time>
      </trkpt>
      <trkpt lat="49.63326" lon="-1.61746">
        <ele>4.3</ele>
        <time>2020-06-15T07:06:23Z</time>
      </trkpt>
      <trkpt lat="49.6332" lon="-1.61747">
        <ele>4.2</ele>
        <time>2020-06-15T07:06:24Z</time>
      </trkpt>
      <trkpt lat="49.63314" lon="-1.61748">
        <ele>4.2</ele>
        <time>2020-06-15T07:06:25Z</time>
      </trkpt>
      <trkpt lat="49.63307" lon="-1.6175">
        <ele>4.2</ele>
        <time>2020-06-15T07:06:26Z</time>
      </trkpt>
      <trkpt lat="49.633" lon="-1.61752">
        <ele>4.1</ele>
        <time>2020-06-15T07:06:27Z</time>
      </trkpt>
      <trkpt lat="49.63296" lon="-1.61752">
        <ele>4.1</ele>
        <time>2020-06-15T07:06:28Z</time>
      </trkpt>
      <trkpt lat="49.63291" lon="-1.61753">
        <ele>4.1</ele>
        <time>2020-06-15T07:06:29Z</time>
      </trkpt>
      <trkpt lat="49.63285" lon="-1.61754">
        <ele>4</ele>
        <time>2020-06-15T07:06:30Z</time>
      </trkpt>
      <trkpt lat="49.6328" lon="-1.61756">
        <ele>4</ele>
        <time>2020-06-15T07:06:31Z</time>
      </trkpt>
      <trkpt lat="49.63275" lon="-1.61757">
        <ele>4</ele>
        <time>2020-06-15T07:06:32Z</time>
      </trkpt>
      <trkpt lat="49.63269" lon="-1.6176">
        <ele>4</ele>
        <time>2020-06-15T07:06:33Z</time>
      </trkpt>
      <trkpt lat="49.63263" lon="-1.61761">
        <ele>4</ele>
        <time>2020-06-15T07:06:34Z</time>
      </trkpt>
      <trkpt lat="49.63256" lon="-1.61762">
        <ele>4</ele>
        <time>2020-06-15T07:06:35Z</time>
      </trkpt>
      <trkpt lat="49.6325" lon="-1.61762">
        <ele>3.9</ele>
        <time>2020-06-15T07:06:36Z</time>
      </trkpt>
      <trkpt lat="49.63244" lon="-1.61762">
        <ele>3.9</ele>
        <time>2020-06-15T07:06:37Z</time>
      </trkpt>
      <trkpt lat="49.63237" lon="-1.61763">
        <ele>3.9</ele>
        <time>2020-06-15T07:06:38Z</time>
      </trkpt>
      <trkpt lat="49.63231" lon="-1.61763">
        <ele>3.9</ele>
        <time>2020-06-15T07:06:39Z</time>
      </trkpt>
      <trkpt lat="49.63225" lon="-1.61764">
        <ele>4</ele>
        <time>2020-06-15T07:06:40Z</time>
      </trkpt>
      <trkpt lat="49.63218" lon="-1.61763">
        <ele>4</ele>
        <time>2020-06-15T07:06:41Z</time>
      </trkpt>
      <trkpt lat="49.63213" lon="-1.61763">
        <ele>4.1</ele>
        <time>2020-06-15T07:06:42Z</time>
      </trkpt>
      <trkpt lat="49.63208" lon="-1.61764">
        <ele>4.1</ele>
        <time>2020-06-15T07:06:43Z</time>
      </trkpt>
      <trkpt lat="49.63202" lon="-1.61764">
        <ele>4.1</ele>
        <time>2020-06-15T07:06:44Z</time>
      </trkpt>
      <trkpt lat="49.63198" lon="-1.61766">
        <ele>4.2</ele>
        <time>2020-06-15T07:06:45Z</time>
      </trkpt>
      <trkpt lat="49.63192" lon="-1.61767">
        <ele>4.2</ele>
        <time>2020-06-15T07:06:46Z</time>
      </trkpt>
      <trkpt lat="49.63184" lon="-1.61769">
        <ele>4.3</ele>
        <time>2020-06-15T07:06:47Z</time>
      </trkpt>
      <trkpt lat="49.63178" lon="-1.6177">
        <ele>4.4</ele>
        <time>2020-06-15T07:06:48Z</time>
      </trkpt>
      <trkpt lat="49.63172" lon="-1.61772">
        <ele>4.4</ele>
        <time>2020-06-15T07:06:49Z</time>
      </trkpt>
      <trkpt lat="49.63165" lon="-1.61772">
        <ele>4.4</ele>
        <time>2020-06-15T07:06:50Z</time>
      </trkpt>
      <trkpt lat="49.63158" lon="-1.61773">
        <ele>4.4</ele>
        <time>2020-06-15T07:06:51Z</time>
      </trkpt>
      <trkpt lat="49.63152" lon="-1.61774">
        <ele>4.4</ele>
        <time>2020-06-15T07:06:52Z</time>
      </trkpt>
      <trkpt lat="49.63147" lon="-1.61774">
        <ele>4.3</ele>
        <time>2020-06-15T07:06:53Z</time>
      </trkpt>
      <trkpt lat="49.63141" lon="-1.61775">
        <ele>4.3</ele>
        <time>2020-06-15T07:06:54Z</time>
      </trkpt>
      <trkpt lat="49.63135" lon="-1.61776">
        <ele>4.2</ele>
        <time>2020-06-15T07:06:55Z</time>
      </trkpt>
      <trkpt lat="49.63129" lon="-1.61777">
        <ele>4.2</ele>
        <time>2020-06-15T07:06:56Z</time>
      </trkpt>
      <trkpt lat="49.63124" lon="-1.61778">
        <ele>4.2</ele>
        <time>2020-06-15T07:06:57Z</time>
      </trkpt>
      <trkpt lat="49.63117" lon="-1.61778">
        <ele>4.1</ele>
        <time>2020-06-15T07:06:58Z</time>
      </trkpt>
      <trkpt lat="49.63111" lon="-1.61778">
        <ele>4.1</ele>
        <time>2020-06-15T07:06:59Z</time>
      </trkpt>
      <trkpt lat="49.63104" lon="-1.61779">
        <ele>4.1</ele>
        <time>2020-06-15T07:07:00Z</time>
      </trkpt>
      <trkpt lat="49.63099" lon="-1.6178">
        <ele>4.1</ele>
        <time>2020-06-15T07:07:01Z</time>
      </trkpt>
      <trkpt lat="49.63093" lon="-1.61781">
        <ele>4</ele>
        <time>2020-06-15T07:07:02Z</time>
      </trkpt>
      <trkpt lat="49.63086" lon="-1.61782">
        <ele>4</ele>
        <time>2020-06-15T07:07:03Z</time>
      </trkpt>
      <trkpt lat="49.63079" lon="-1.61781">
        <ele>3.9</ele>
        <time>2020-06-15T07:07:04Z</time>
      </trkpt>
      <trkpt lat="49.63071" lon="-1.61783">
        <ele>3.9</ele>
        <time>2020-06-15T07:07:05Z</time>
      </trkpt>
      <trkpt lat="49.63064" lon="-1.61784">
        <ele>3.9</ele>
        <time>2020-06-15T07:07:06Z</time>
      </trkpt>
      <trkpt lat="49.63058" lon="-1.61786">
        <ele>3.9</ele>
        <time>2020-06-15T07:07:07Z</time>
      </trkpt>
      <trkpt lat="49.63054" lon="-1.61789">
        <ele>3.9</ele>
        <time>2020-06-15T07:07:08Z</time>
      </trkpt>
      <trkpt lat="49.63048" lon="-1.61791">
        <ele>3.8</ele>
        <time>2020-06-15T07:07:09Z</time>
      </trkpt>
      <trkpt lat="49.63043" lon="-1.61792">
        <ele>3.8</ele>
        <time>2020-06-15T07:07:10Z</time>
      </trkpt>
      <trkpt lat="49.63039" lon="-1.61794">
        <ele>3.8</ele>
        <time>2020-06-15T07:07:11Z</time>
      </trkpt>
      <trkpt lat="49.63037" lon="-1.61795">
        <ele>3.8</ele>
        <time>2020-06-15T07:07:12Z</time>
      </trkpt>
      <trkpt lat="49.63032" lon="-1.61795">
        <ele>3.8</ele>
        <time>2020-06-15T07:07:13Z</time>
      </trkpt>
      <trkpt lat="49.63029" lon="-1.61795">
        <ele>3.8</ele>
        <time>2020-06-15T07:07:14Z</time>
      </trkpt>
      <trkpt lat="49.63027" lon="-1.61795">
        <ele>3.8</ele>
        <time>2020-06-15T07:07:15Z</time>
      </trkpt>
      <trkpt lat="49.63023" lon="-1.61795">
        <ele>3.8</ele>
        <time>2020-06-15T07:07:16Z</time>
      </trkpt>
      <trkpt lat="49.63018" lon="-1.61796">
        <ele>3.8</ele>
        <time>2020-06-15T07:07:17Z</time>
      </trkpt>
      <trkpt lat="49.63014" lon="-1.61797">
        <ele>3.8</ele>
        <time>2020-06-15T07:07:18Z</time>
      </trkpt>
      <trkpt lat="49.63008" lon="-1.61798">
        <ele>3.8</ele>
        <time>2020-06-15T07:07:19Z</time>
      </trkpt>
      <trkpt lat="49.63004" lon="-1.61797">
        <ele>3.8</ele>
        <time>2020-06-15T07:07:20Z</time>
      </trkpt>
      <trkpt lat="49.62998" lon="-1.61799">
        <ele>3.7</ele>
        <time>2020-06-15T07:07:21Z</time>
      </trkpt>
      <trkpt lat="49.62991" lon="-1.61799">
        <ele>3.7</ele>
        <time>2020-06-15T07:07:22Z</time>
      </trkpt>
      <trkpt lat="49.62985" lon="-1.618">
        <ele>3.7</ele>
        <time>2020-06-15T07:07:23Z</time>
      </trkpt>
      <trkpt lat="49.6298" lon="-1.61801">
        <ele>3.7</ele>
        <time>2020-06-15T07:07:24Z</time>
      </trkpt>
      <trkpt lat="49.62973" lon="-1.61803">
        <ele>3.7</ele>
        <time>2020-06-15T07:07:25Z</time>
      </trkpt>
      <trkpt lat="49.62967" lon="-1.61805">
        <ele>3.7</ele>
        <time>2020-06-15T07:07:26Z</time>
      </trkpt>
      <trkpt lat="49.6296" lon="-1.61807">
        <ele>3.7</ele>
        <time>2020-06-15T07:07:27Z</time>
      </trkpt>
      <trkpt lat="49.62953" lon="-1.61809">
        <ele>3.7</ele>
        <time>2020-06-15T07:07:28Z</time>
      </trkpt>
      <trkpt lat="49.62946" lon="-1.61811">
        <ele>3.7</ele>
        <time>2020-06-15T07:07:29Z</time>
      </trkpt>
      <trkpt lat="49.62939" lon="-1.61813">
        <ele>3.7</ele>
        <time>2020-06-15T07:07:30Z</time>
      </trkpt>
      <trkpt lat="49.62932" lon="-1.61814">
        <ele>3.6</ele>
        <time>2020-06-15T07:07:31Z</time>
      </trkpt>
      <trkpt lat="49.62926" lon="-1.61815">
        <ele>3.6</ele>
        <time>2020-06-15T07:07:32Z</time>
      </trkpt>
      <trkpt lat="49.62925" lon="-1.61816">
        <ele>3.6</ele>
        <time>2020-06-15T07:07:33Z</time>
      </trkpt>
      <trkpt lat="49.62924" lon="-1.61816">
        <ele>3.6</ele>
        <time>2020-06-15T07:07:34Z</time>
      </trkpt>
      <trkpt lat="49.62922" lon="-1.61818">
        <ele>3.6</ele>
        <time>2020-06-15T07:07:35Z</time>
      </trkpt>
      <trkpt lat="49.62922" lon="-1.61818">
        <ele>3.6</ele>
        <time>2020-06-15T07:07:36Z</time>
      </trkpt>
      <trkpt lat="49.62921" lon="-1.61819">
        <ele>3.6</ele>
        <time>2020-06-15T07:07:37Z</time>
      </trkpt>
      <trkpt lat="49.62921" lon="-1.61819">
        <ele>3.6</ele>
        <time>2020-06-15T07:07:38Z</time>
      </trkpt>
      <trkpt lat="49.6292" lon="-1.6182">
        <ele>3.6</ele>
        <time>2020-06-15T07:07:39Z</time>
      </trkpt>
      <trkpt lat="49.62919" lon="-1.61821">
        <ele>3.6</ele>
        <time>2020-06-15T07:07:40Z</time>
      </trkpt>
      <trkpt lat="49.62919" lon="-1.61821">
        <ele>3.6</ele>
        <time>2020-06-15T07:07:41Z</time>
      </trkpt>
      <trkpt lat="49.62918" lon="-1.61822">
        <ele>3.6</ele>
        <time>2020-06-15T07:07:42Z</time>
      </trkpt>
      <trkpt lat="49.62918" lon="-1.61823">
        <ele>3.6</ele>
        <time>2020-06-15T07:07:43Z</time>
      </trkpt>
      <trkpt lat="49.62917" lon="-1.61823">
        <ele>3.6</ele>
        <time>2020-06-15T07:07:44Z</time>
      </trkpt>
      <trkpt lat="49.62917" lon="-1.61824">
        <ele>3.6</ele>
        <time>2020-06-15T07:07:45Z</time>
      </trkpt>
      <trkpt lat="49.62916" lon="-1.61824">
        <ele>3.6</ele>
        <time>2020-06-15T07:07:46Z</time>
      </trkpt>
      <trkpt lat="49.62916" lon="-1.61825">
        <ele>3.6</ele>
        <time>2020-06-15T07:07:47Z</time>
      </trkpt>
      <trkpt lat="49.62915" lon="-1.61826">
        <ele>3.6</ele>
        <time>2020-06-15T07:08:04Z</time>
      </trkpt>
      <trkpt lat="49.62915" lon="-1.61826">
        <ele>3.6</ele>
        <time>2020-06-15T07:08:05Z</time>
      </trkpt>
      <trkpt lat="49.62912" lon="-1.61827">
        <ele>3.6</ele>
        <time>2020-06-15T07:08:06Z</time>
      </trkpt>
      <trkpt lat="49.62909" lon="-1.61828">
        <ele>3.6</ele>
        <time>2020-06-15T07:08:07Z</time>
      </trkpt>
      <trkpt lat="49.62906" lon="-1.61828">
        <ele>3.6</ele>
        <time>2020-06-15T07:08:08Z</time>
      </trkpt>
      <trkpt lat="49.62903" lon="-1.61828">
        <ele>3.6</ele>
        <time>2020-06-15T07:08:09Z</time>
      </trkpt>
      <trkpt lat="49.62899" lon="-1.61829">
        <ele>3.6</ele>
        <time>2020-06-15T07:08:10Z</time>
      </trkpt>
      <trkpt lat="49.62895" lon="-1.6183">
        <ele>3.7</ele>
        <time>2020-06-15T07:08:11Z</time>
      </trkpt>
      <trkpt lat="49.6289" lon="-1.6183">
        <ele>3.7</ele>
        <time>2020-06-15T07:08:12Z</time>
      </trkpt>
      <trkpt lat="49.62887" lon="-1.61831">
        <ele>3.8</ele>
        <time>2020-06-15T07:08:13Z</time>
      </trkpt>
      <trkpt lat="49.62883" lon="-1.61832">
        <ele>3.8</ele>
        <time>2020-06-15T07:08:14Z</time>
      </trkpt>
      <trkpt lat="49.62879" lon="-1.61832">
        <ele>3.8</ele>
        <time>2020-06-15T07:08:15Z</time>
      </trkpt>
      <trkpt lat="49.62875" lon="-1.61833">
        <ele>3.8</ele>
        <time>2020-06-15T07:08:16Z</time>
      </trkpt>
      <trkpt lat="49.6287" lon="-1.61833">
        <ele>3.9</ele>
        <time>2020-06-15T07:08:17Z</time>
      </trkpt>
      <trkpt lat="49.62866" lon="-1.61834">
        <ele>4</ele>
        <time>2020-06-15T07:08:18Z</time>
      </trkpt>
      <trkpt lat="49.62862" lon="-1.61834">
        <ele>4</ele>
        <time>2020-06-15T07:08:19Z</time>
      </trkpt>
      <trkpt lat="49.62858" lon="-1.61834">
        <ele>4.1</ele>
        <time>2020-06-15T07:08:20Z</time>
      </trkpt>
      <trkpt lat="49.62854" lon="-1.61835">
        <ele>4.2</ele>
        <time>2020-06-15T07:08:21Z</time>
      </trkpt>
      <trkpt lat="49.62853" lon="-1.61835">
        <ele>4.3</ele>
        <time>2020-06-15T07:08:22Z</time>
      </trkpt>
      <trkpt lat="49.6285" lon="-1.61834">
        <ele>4.3</ele>
        <time>2020-06-15T07:08:23Z</time>
      </trkpt>
      <trkpt lat="49.62846" lon="-1.61833">
        <ele>4.4</ele>
        <time>2020-06-15T07:08:24Z</time>
      </trkpt>
      <trkpt lat="49.62844" lon="-1.61833">
        <ele>4.5</ele>
        <time>2020-06-15T07:08:25Z</time>
      </trkpt>
      <trkpt lat="49.62839" lon="-1.61832">
        <ele>4.7</ele>
        <time>2020-06-15T07:08:26Z</time>
      </trkpt>
      <trkpt lat="49.62834" lon="-1.61831">
        <ele>4.9</ele>
        <time>2020-06-15T07:08:27Z</time>
      </trkpt>
      <trkpt lat="49.62829" lon="-1.6183">
        <ele>5.1</ele>
        <time>2020-06-15T07:08:28Z</time>
      </trkpt>
      <trkpt lat="49.62827" lon="-1.6183">
        <ele>5.2</ele>
        <time>2020-06-15T07:08:29Z</time>
      </trkpt>
      <trkpt lat="49.62822" lon="-1.6183">
        <ele>5.4</ele>
        <time>2020-06-15T07:08:30Z</time>
      </trkpt>
      <trkpt lat="49.62818" lon="-1.61828">
        <ele>5.5</ele>
        <time>2020-06-15T07:08:31Z</time>
      </trkpt>
      <trkpt lat="49.62815" lon="-1.61826">
        <ele>5.7</ele>
        <time>2020-06-15T07:08:32Z</time>
      </trkpt>
      <trkpt lat="49.62812" lon="-1.61824">
        <ele>5.8</ele>
        <time>2020-06-15T07:08:33Z</time>
      </trkpt>
      <trkpt lat="49.62807" lon="-1.61822">
        <ele>5.9</ele>
        <time>2020-06-15T07:08:34Z</time>
      </trkpt>
      <trkpt lat="49.62802" lon="-1.6182">
        <ele>6.1</ele>
        <time>2020-06-15T07:08:35Z</time>
      </trkpt>
      <trkpt lat="49.62798" lon="-1.61819">
        <ele>6.2</ele>
        <time>2020-06-15T07:08:36Z</time>
      </trkpt>
      <trkpt lat="49.62794" lon="-1.61818">
        <ele>6.3</ele>
        <time>2020-06-15T07:08:37Z</time>
      </trkpt>
      <trkpt lat="49.62793" lon="-1.61818">
        <ele>6.4</ele>
        <time>2020-06-15T07:08:38Z</time>
      </trkpt>
      <trkpt lat="49.6279" lon="-1.61816">
        <ele>6.5</ele>
        <time>2020-06-15T07:08:39Z</time>
      </trkpt>
      <trkpt lat="49.62789" lon="-1.61816">
        <ele>6.5</ele>
        <time>2020-06-15T07:08:40Z</time>
      </trkpt>
      <trkpt lat="49.62787" lon="-1.61811">
        <ele>6.6</ele>
        <time>2020-06-15T07:08:41Z</time>
      </trkpt>
      <trkpt lat="49.62784" lon="-1.61807">
        <ele>6.6</ele>
        <time>2020-06-15T07:08:42Z</time>
      </trkpt>
      <trkpt lat="49.62783" lon="-1.61805">
        <ele>6.6</ele>
        <time>2020-06-15T07:08:43Z</time>
      </trkpt>
      <trkpt lat="49.6278" lon="-1.61802">
        <ele>6.7</ele>
        <time>2020-06-15T07:08:44Z</time>
      </trkpt>
      <trkpt lat="49.62779" lon="-1.61801">
        <ele>6.7</ele>
        <time>2020-06-15T07:08:45Z</time>
      </trkpt>
      <trkpt lat="49.62776" lon="-1.61798">
        <ele>6.8</ele>
        <time>2020-06-15T07:08:46Z</time>
      </trkpt>
      <trkpt lat="49.62773" lon="-1.61795">
        <ele>6.8</ele>
        <time>2020-06-15T07:08:47Z</time>
      </trkpt>
      <trkpt lat="49.6277" lon="-1.61791">
        <ele>6.9</ele>
        <time>2020-06-15T07:08:48Z</time>
      </trkpt>
      <trkpt lat="49.62767" lon="-1.61789">
        <ele>7</ele>
        <time>2020-06-15T07:08:49Z</time>
      </trkpt>
      <trkpt lat="49.62765" lon="-1.61786">
        <ele>7</ele>
        <time>2020-06-15T07:08:50Z</time>
      </trkpt>
      <trkpt lat="49.62762" lon="-1.61783">
        <ele>7.1</ele>
        <time>2020-06-15T07:08:51Z</time>
      </trkpt>
      <trkpt lat="49.62761" lon="-1.61781">
        <ele>7.1</ele>
        <time>2020-06-15T07:08:52Z</time>
      </trkpt>
      <trkpt lat="49.62759" lon="-1.61778">
        <ele>7.2</ele>
        <time>2020-06-15T07:08:53Z</time>
      </trkpt>
      <trkpt lat="49.62754" lon="-1.61774">
        <ele>7.3</ele>
        <time>2020-06-15T07:08:54Z</time>
      </trkpt>
      <trkpt lat="49.62749" lon="-1.61772">
        <ele>7.4</ele>
        <time>2020-06-15T07:08:55Z</time>
      </trkpt>
      <trkpt lat="49.62744" lon="-1.61769">
        <ele>7.6</ele>
        <time>2020-06-15T07:08:56Z</time>
      </trkpt>
      <trkpt lat="49.6274" lon="-1.61767">
        <ele>7.7</ele>
        <time>2020-06-15T07:08:57Z</time>
      </trkpt>
      <trkpt lat="49.62736" lon="-1.61767">
        <ele>7.8</ele>
        <time>2020-06-15T07:08:58Z</time>
      </trkpt>
      <trkpt lat="49.62733" lon="-1.61768">
        <ele>8</ele>
        <time>2020-06-15T07:08:59Z</time>
      </trkpt>
      <trkpt lat="49.62732" lon="-1.61768">
        <ele>8</ele>
        <time>2020-06-15T07:09:00Z</time>
      </trkpt>
      <trkpt lat="49.62729" lon="-1.61767">
        <ele>8</ele>
        <time>2020-06-15T07:09:01Z</time>
      </trkpt>
      <trkpt lat="49.62725" lon="-1.61768">
        <ele>8.1</ele>
        <time>2020-06-15T07:09:02Z</time>
      </trkpt>
      <trkpt lat="49.62725" lon="-1.61769">
        <ele>8.1</ele>
        <time>2020-06-15T07:09:03Z</time>
      </trkpt>
      <trkpt lat="49.62723" lon="-1.61769">
        <ele>8.2</ele>
        <time>2020-06-15T07:09:04Z</time>
      </trkpt>
      <trkpt lat="49.62722" lon="-1.61768">
        <ele>8.2</ele>
        <time>2020-06-15T07:09:05Z</time>
      </trkpt>
      <trkpt lat="49.62721" lon="-1.61768">
        <ele>8.2</ele>
        <time>2020-06-15T07:09:06Z</time>
      </trkpt>
      <trkpt lat="49.6272" lon="-1.61768">
        <ele>8.2</ele>
        <time>2020-06-15T07:09:07Z</time>
      </trkpt>
      <trkpt lat="49.6272" lon="-1.61768">
        <ele>8.2</ele>
        <time>2020-06-15T07:09:08Z</time>
      </trkpt>
      <trkpt lat="49.62719" lon="-1.61768">
        <ele>8.2</ele>
        <time>2020-06-15T07:09:09Z</time>
      </trkpt>
      <trkpt lat="49.62719" lon="-1.61768">
        <ele>8.2</ele>
        <time>2020-06-15T07:09:10Z</time>
      </trkpt>
      <trkpt lat="49.62718" lon="-1.61768">
        <ele>8.3</ele>
        <time>2020-06-15T07:09:11Z</time>
      </trkpt>
      <trkpt lat="49.62719" lon="-1.61768">
        <ele>8.3</ele>
        <time>2020-06-15T07:09:12Z</time>
      </trkpt>
      <trkpt lat="49.6272" lon="-1.61768">
        <ele>8.3</ele>
        <time>2020-06-15T07:09:13Z</time>
      </trkpt>
      <trkpt lat="49.62721" lon="-1.61768">
        <ele>8.3</ele>
        <time>2020-06-15T07:09:14Z</time>
      </trkpt>
      <trkpt lat="49.62723" lon="-1.61768">
        <ele>8.3</ele>
        <time>2020-06-15T07:09:15Z</time>
      </trkpt>
      <trkpt lat="49.62724" lon="-1.61769">
        <ele>8.4</ele>
        <time>2020-06-15T07:09:16Z</time>
      </trkpt>
      <trkpt lat="49.62725" lon="-1.61769">
        <ele>8.3</ele>
        <time>2020-06-15T07:11:28Z</time>
      </trkpt>
      <trkpt lat="49.62726" lon="-1.61769">
        <ele>8.3</ele>
        <time>2020-06-15T07:11:29Z</time>
      </trkpt>
      <trkpt lat="49.62729" lon="-1.61769">
        <ele>8.1</ele>
        <time>2020-06-15T07:11:30Z</time>
      </trkpt>
      <trkpt lat="49.6273" lon="-1.61769">
        <ele>8.1</ele>
        <time>2020-06-15T07:11:31Z</time>
      </trkpt>
      <trkpt lat="49.62731" lon="-1.61769">
        <ele>8</ele>
        <time>2020-06-15T07:11:32Z</time>
      </trkpt>
      <trkpt lat="49.62732" lon="-1.61768">
        <ele>8</ele>
        <time>2020-06-15T07:11:33Z</time>
      </trkpt>
      <trkpt lat="49.62733" lon="-1.61767">
        <ele>7.9</ele>
        <time>2020-06-15T07:11:34Z</time>
      </trkpt>
      <trkpt lat="49.62734" lon="-1.61767">
        <ele>7.8</ele>
        <time>2020-06-15T07:11:35Z</time>
      </trkpt>
      <trkpt lat="49.62735" lon="-1.61767">
        <ele>7.7</ele>
        <time>2020-06-15T07:11:36Z</time>
      </trkpt>
      <trkpt lat="49.62736" lon="-1.61767">
        <ele>7.7</ele>
        <time>2020-06-15T07:11:37Z</time>
      </trkpt>
      <trkpt lat="49.62737" lon="-1.61765">
        <ele>7.7</ele>
        <time>2020-06-15T07:11:38Z</time>
      </trkpt>
      <trkpt lat="49.62737" lon="-1.61765">
        <ele>7.7</ele>
        <time>2020-06-15T07:11:39Z</time>
      </trkpt>
      <trkpt lat="49.62738" lon="-1.61765">
        <ele>7.7</ele>
        <time>2020-06-15T07:11:40Z</time>
      </trkpt>
      <trkpt lat="49.62739" lon="-1.61765">
        <ele>7.6</ele>
        <time>2020-06-15T07:11:41Z</time>
      </trkpt>
      <trkpt lat="49.6274" lon="-1.61766">
        <ele>7.6</ele>
        <time>2020-06-15T07:11:42Z</time>
      </trkpt>
      <trkpt lat="49.62742" lon="-1.61767">
        <ele>7.6</ele>
        <time>2020-06-15T07:11:43Z</time>
      </trkpt>
      <trkpt lat="49.62746" lon="-1.61769">
        <ele>7.5</ele>
        <time>2020-06-15T07:11:44Z</time>
      </trkpt>
      <trkpt lat="49.62748" lon="-1.61771">
        <ele>7.4</ele>
        <time>2020-06-15T07:11:45Z</time>
      </trkpt>
      <trkpt lat="49.62752" lon="-1.61772">
        <ele>7.3</ele>
        <time>2020-06-15T07:11:46Z</time>
      </trkpt>
      <trkpt lat="49.62756" lon="-1.61774">
        <ele>7.3</ele>
        <time>2020-06-15T07:11:47Z</time>
      </trkpt>
      <trkpt lat="49.62759" lon="-1.61775">
        <ele>7.2</ele>
        <time>2020-06-15T07:11:48Z</time>
      </trkpt>
      <trkpt lat="49.62762" lon="-1.61777">
        <ele>7.1</ele>
        <time>2020-06-15T07:11:49Z</time>
      </trkpt>
      <trkpt lat="49.62765" lon="-1.61779">
        <ele>7</ele>
        <time>2020-06-15T07:11:50Z</time>
      </trkpt>
      <trkpt lat="49.62768" lon="-1.61781">
        <ele>7</ele>
        <time>2020-06-15T07:11:51Z</time>
      </trkpt>
      <trkpt lat="49.62772" lon="-1.61783">
        <ele>6.9</ele>
        <time>2020-06-15T07:11:52Z</time>
      </trkpt>
      <trkpt lat="49.62775" lon="-1.61784">
        <ele>6.8</ele>
        <time>2020-06-15T07:11:53Z</time>
      </trkpt>
      <trkpt lat="49.6278" lon="-1.61785">
        <ele>6.8</ele>
        <time>2020-06-15T07:11:54Z</time>
      </trkpt>
      <trkpt lat="49.62783" lon="-1.61787">
        <ele>6.7</ele>
        <time>2020-06-15T07:11:55Z</time>
      </trkpt>
      <trkpt lat="49.62787" lon="-1.61788">
        <ele>6.5</ele>
        <time>2020-06-15T07:11:56Z</time>
      </trkpt>
      <trkpt lat="49.62791" lon="-1.6179">
        <ele>6.3</ele>
        <time>2020-06-15T07:11:57Z</time>
      </trkpt>
      <trkpt lat="49.62796" lon="-1.61791">
        <ele>6.1</ele>
        <time>2020-06-15T07:11:58Z</time>
      </trkpt>
      <trkpt lat="49.628" lon="-1.61793">
        <ele>6</ele>
        <time>2020-06-15T07:11:59Z</time>
      </trkpt>
      <trkpt lat="49.62804" lon="-1.61795">
        <ele>5.8</ele>
        <time>2020-06-15T07:12:00Z</time>
      </trkpt>
      <trkpt lat="49.62809" lon="-1.61798">
        <ele>5.6</ele>
        <time>2020-06-15T07:12:01Z</time>
      </trkpt>
      <trkpt lat="49.62813" lon="-1.61801">
        <ele>5.4</ele>
        <time>2020-06-15T07:12:02Z</time>
      </trkpt>
      <trkpt lat="49.62818" lon="-1.61804">
        <ele>5.2</ele>
        <time>2020-06-15T07:12:03Z</time>
      </trkpt>
      <trkpt lat="49.62824" lon="-1.61806">
        <ele>5</ele>
        <time>2020-06-15T07:12:04Z</time>
      </trkpt>
      <trkpt lat="49.62831" lon="-1.61808">
        <ele>4.8</ele>
        <time>2020-06-15T07:12:05Z</time>
      </trkpt>
      <trkpt lat="49.62837" lon="-1.6181">
        <ele>4.6</ele>
        <time>2020-06-15T07:12:06Z</time>
      </trkpt>
      <trkpt lat="49.62844" lon="-1.61812">
        <ele>4.4</ele>
        <time>2020-06-15T07:12:07Z</time>
      </trkpt>
      <trkpt lat="49.62851" lon="-1.61813">
        <ele>4.3</ele>
        <time>2020-06-15T07:12:08Z</time>
      </trkpt>
      <trkpt lat="49.62857" lon="-1.61814">
        <ele>4.1</ele>
        <time>2020-06-15T07:12:09Z</time>
      </trkpt>
      <trkpt lat="49.62864" lon="-1.61814">
        <ele>3.9</ele>
        <time>2020-06-15T07:12:10Z</time>
      </trkpt>
      <trkpt lat="49.62871" lon="-1.61814">
        <ele>3.8</ele>
        <time>2020-06-15T07:12:11Z</time>
      </trkpt>
      <trkpt lat="49.62878" lon="-1.61813">
        <ele>3.8</ele>
        <time>2020-06-15T07:12:12Z</time>
      </trkpt>
      <trkpt lat="49.62887" lon="-1.6181">
        <ele>3.7</ele>
        <time>2020-06-15T07:12:13Z</time>
      </trkpt>
      <trkpt lat="49.62893" lon="-1.61809">
        <ele>3.7</ele>
        <time>2020-06-15T07:12:14Z</time>
      </trkpt>
      <trkpt lat="49.629" lon="-1.61808">
        <ele>3.6</ele>
        <time>2020-06-15T07:12:15Z</time>
      </trkpt>
      <trkpt lat="49.62906" lon="-1.61807">
        <ele>3.6</ele>
        <time>2020-06-15T07:12:16Z</time>
      </trkpt>
      <trkpt lat="49.62912" lon="-1.61806">
        <ele>3.6</ele>
        <time>2020-06-15T07:12:17Z</time>
      </trkpt>
      <trkpt lat="49.6292" lon="-1.61805">
        <ele>3.6</ele>
        <time>2020-06-15T07:12:18Z</time>
      </trkpt>
      <trkpt lat="49.62927" lon="-1.61804">
        <ele>3.6</ele>
        <time>2020-06-15T07:12:19Z</time>
      </trkpt>
      <trkpt lat="49.62933" lon="-1.61803">
        <ele>3.6</ele>
        <time>2020-06-15T07:12:20Z</time>
      </trkpt>
      <trkpt lat="49.62939" lon="-1.61803">
        <ele>3.7</ele>
        <time>2020-06-15T07:12:21Z</time>
      </trkpt>
      <trkpt lat="49.62944" lon="-1.61802">
        <ele>3.7</ele>
        <time>2020-06-15T07:12:22Z</time>
      </trkpt>
      <trkpt lat="49.6295" lon="-1.61801">
        <ele>3.7</ele>
        <time>2020-06-15T07:12:23Z</time>
      </trkpt>
      <trkpt lat="49.62956" lon="-1.61799">
        <ele>3.7</ele>
        <time>2020-06-15T07:12:24Z</time>
      </trkpt>
      <trkpt lat="49.62963" lon="-1.61798">
        <ele>3.7</ele>
        <time>2020-06-15T07:12:25Z</time>
      </trkpt>
      <trkpt lat="49.62969" lon="-1.61796">
        <ele>3.7</ele>
        <time>2020-06-15T07:12:26Z</time>
      </trkpt>
      <trkpt lat="49.62976" lon="-1.61796">
        <ele>3.7</ele>
        <time>2020-06-15T07:12:27Z</time>
      </trkpt>
      <trkpt lat="49.62982" lon="-1.61795">
        <ele>3.7</ele>
        <time>2020-06-15T07:12:28Z</time>
      </trkpt>
      <trkpt lat="49.62989" lon="-1.61794">
        <ele>3.7</ele>
        <time>2020-06-15T07:12:29Z</time>
      </trkpt>
      <trkpt lat="49.62996" lon="-1.61793">
        <ele>3.7</ele>
        <time>2020-06-15T07:12:30Z</time>
      </trkpt>
      <trkpt lat="49.63003" lon="-1.61793">
        <ele>3.8</ele>
        <time>2020-06-15T07:12:31Z</time>
      </trkpt>
      <trkpt lat="49.63011" lon="-1.61791">
        <ele>3.8</ele>
        <time>2020-06-15T07:12:32Z</time>
      </trkpt>
      <trkpt lat="49.63017" lon="-1.6179">
        <ele>3.8</ele>
        <time>2020-06-15T07:12:33Z</time>
      </trkpt>
      <trkpt lat="49.63023" lon="-1.61788">
        <ele>3.8</ele>
        <time>2020-06-15T07:12:34Z</time>
      </trkpt>
      <trkpt lat="49.6303" lon="-1.61787">
        <ele>3.8</ele>
        <time>2020-06-15T07:12:35Z</time>
      </trkpt>
      <trkpt lat="49.63036" lon="-1.61785">
        <ele>3.8</ele>
        <time>2020-06-15T07:12:36Z</time>
      </trkpt>
      <trkpt lat="49.63042" lon="-1.61785">
        <ele>3.8</ele>
        <time>2020-06-15T07:12:37Z</time>
      </trkpt>
      <trkpt lat="49.63047" lon="-1.61784">
        <ele>3.8</ele>
        <time>2020-06-15T07:12:38Z</time>
      </trkpt>
      <trkpt lat="49.63052" lon="-1.61783">
        <ele>3.9</ele>
        <time>2020-06-15T07:12:39Z</time>
      </trkpt>
      <trkpt lat="49.63056" lon="-1.61781">
        <ele>3.9</ele>
        <time>2020-06-15T07:12:40Z</time>
      </trkpt>
      <trkpt lat="49.63063" lon="-1.61781">
        <ele>3.9</ele>
        <time>2020-06-15T07:12:41Z</time>
      </trkpt>
      <trkpt lat="49.63068" lon="-1.6178">
        <ele>3.9</ele>
        <time>2020-06-15T07:12:42Z</time>
      </trkpt>
      <trkpt lat="49.63073" lon="-1.61779">
        <ele>3.9</ele>
        <time>2020-06-15T07:12:43Z</time>
      </trkpt>
      <trkpt lat="49.63078" lon="-1.61777">
        <ele>3.9</ele>
        <time>2020-06-15T07:12:44Z</time>
      </trkpt>
      <trkpt lat="49.63084" lon="-1.61775">
        <ele>4</ele>
        <time>2020-06-15T07:12:45Z</time>
      </trkpt>
      <trkpt lat="49.6309" lon="-1.61774">
        <ele>4</ele>
        <time>2020-06-15T07:12:46Z</time>
      </trkpt>
      <trkpt lat="49.63095" lon="-1.61775">
        <ele>4.1</ele>
        <time>2020-06-15T07:12:47Z</time>
      </trkpt>
      <trkpt lat="49.63101" lon="-1.61775">
        <ele>4.1</ele>
        <time>2020-06-15T07:12:48Z</time>
      </trkpt>
      <trkpt lat="49.63105" lon="-1.61774">
        <ele>4.1</ele>
        <time>2020-06-15T07:12:49Z</time>
      </trkpt>
      <trkpt lat="49.6311" lon="-1.61772">
        <ele>4.1</ele>
        <time>2020-06-15T07:12:50Z</time>
      </trkpt>
      <trkpt lat="49.63115" lon="-1.61772">
        <ele>4.1</ele>
        <time>2020-06-15T07:12:51Z</time>
      </trkpt>
      <trkpt lat="49.63119" lon="-1.61771">
        <ele>4.1</ele>
        <time>2020-06-15T07:12:52Z</time>
      </trkpt>
      <trkpt lat="49.63124" lon="-1.61771">
        <ele>4.2</ele>
        <time>2020-06-15T07:12:53Z</time>
      </trkpt>
      <trkpt lat="49.63128" lon="-1.61771">
        <ele>4.2</ele>
        <time>2020-06-15T07:12:54Z</time>
      </trkpt>
      <trkpt lat="49.63132" lon="-1.61769">
        <ele>4.2</ele>
        <time>2020-06-15T07:12:55Z</time>
      </trkpt>
      <trkpt lat="49.63136" lon="-1.61768">
        <ele>4.2</ele>
        <time>2020-06-15T07:12:56Z</time>
      </trkpt>
      <trkpt lat="49.6314" lon="-1.61768">
        <ele>4.3</ele>
        <time>2020-06-15T07:12:57Z</time>
      </trkpt>
      <trkpt lat="49.63144" lon="-1.61767">
        <ele>4.3</ele>
        <time>2020-06-15T07:12:58Z</time>
      </trkpt>
      <trkpt lat="49.63148" lon="-1.61766">
        <ele>4.3</ele>
        <time>2020-06-15T07:12:59Z</time>
      </trkpt>
      <trkpt lat="49.63151" lon="-1.61766">
        <ele>4.3</ele>
        <time>2020-06-15T07:13:00Z</time>
      </trkpt>
      <trkpt lat="49.63155" lon="-1.61765">
        <ele>4.4</ele>
        <time>2020-06-15T07:13:01Z</time>
      </trkpt>
      <trkpt lat="49.63158" lon="-1.61764">
        <ele>4.4</ele>
        <time>2020-06-15T07:13:02Z</time>
      </trkpt>
      <trkpt lat="49.6316" lon="-1.61762">
        <ele>4.5</ele>
        <time>2020-06-15T07:13:03Z</time>
      </trkpt>
      <trkpt lat="49.63163" lon="-1.6176">
        <ele>4.6</ele>
        <time>2020-06-15T07:13:04Z</time>
      </trkpt>
      <trkpt lat="49.63165" lon="-1.61754">
        <ele>4.8</ele>
        <time>2020-06-15T07:13:05Z</time>
      </trkpt>
      <trkpt lat="49.63166" lon="-1.61745">
        <ele>4.9</ele>
        <time>2020-06-15T07:13:06Z</time>
      </trkpt>
      <trkpt lat="49.63166" lon="-1.61739">
        <ele>5</ele>
        <time>2020-06-15T07:13:07Z</time>
      </trkpt>
      <trkpt lat="49.63166" lon="-1.61732">
        <ele>5</ele>
        <time>2020-06-15T07:13:08Z</time>
      </trkpt>
      <trkpt lat="49.63166" lon="-1.61727">
        <ele>5.1</ele>
        <time>2020-06-15T07:13:09Z</time>
      </trkpt>
      <trkpt lat="49.63166" lon="-1.61721">
        <ele>5.2</ele>
        <time>2020-06-15T07:13:10Z</time>
      </trkpt>
      <trkpt lat="49.63165" lon="-1.61715">
        <ele>5.2</ele>
        <time>2020-06-15T07:13:11Z</time>
      </trkpt>
      <trkpt lat="49.63165" lon="-1.61707">
        <ele>5.3</ele>
        <time>2020-06-15T07:13:12Z</time>
      </trkpt>
      <trkpt lat="49.63164" lon="-1.61702">
        <ele>5.4</ele>
        <time>2020-06-15T07:13:13Z</time>
      </trkpt>
      <trkpt lat="49.63163" lon="-1.61695">
        <ele>5.5</ele>
        <time>2020-06-15T07:13:14Z</time>
      </trkpt>
      <trkpt lat="49.63162" lon="-1.61688">
        <ele>5.6</ele>
        <time>2020-06-15T07:13:15Z</time>
      </trkpt>
      <trkpt lat="49.63161" lon="-1.61682">
        <ele>5.7</ele>
        <time>2020-06-15T07:13:16Z</time>
      </trkpt>
      <trkpt lat="49.63161" lon="-1.61676">
        <ele>6</ele>
        <time>2020-06-15T07:13:17Z</time>
      </trkpt>
      <trkpt lat="49.63161" lon="-1.61669">
        <ele>6.2</ele>
        <time>2020-06-15T07:13:18Z</time>
      </trkpt>
      <trkpt lat="49.63161" lon="-1.61664">
        <ele>6.4</ele>
        <time>2020-06-15T07:13:19Z</time>
      </trkpt>
      <trkpt lat="49.63162" lon="-1.61657">
        <ele>6.8</ele>
        <time>2020-06-15T07:13:20Z</time>
      </trkpt>
      <trkpt lat="49.63161" lon="-1.61651">
        <ele>6.9</ele>
        <time>2020-06-15T07:13:21Z</time>
      </trkpt>
      <trkpt lat="49.63161" lon="-1.61646">
        <ele>6.9</ele>
        <time>2020-06-15T07:13:22Z</time>
      </trkpt>
      <trkpt lat="49.6316" lon="-1.6164">
        <ele>7.1</ele>
        <time>2020-06-15T07:13:23Z</time>
      </trkpt>
      <trkpt lat="49.6316" lon="-1.61638">
        <ele>7.2</ele>
        <time>2020-06-15T07:13:24Z</time>
      </trkpt>
      <trkpt lat="49.6316" lon="-1.61634">
        <ele>7.4</ele>
        <time>2020-06-15T07:13:25Z</time>
      </trkpt>
      <trkpt lat="49.63161" lon="-1.6163">
        <ele>7.6</ele>
        <time>2020-06-15T07:13:26Z</time>
      </trkpt>
      <trkpt lat="49.63161" lon="-1.61624">
        <ele>7.9</ele>
        <time>2020-06-15T07:13:27Z</time>
      </trkpt>
      <trkpt lat="49.63161" lon="-1.61621">
        <ele>8</ele>
        <time>2020-06-15T07:13:28Z</time>
      </trkpt>
      <trkpt lat="49.63161" lon="-1.61616">
        <ele>8.3</ele>
        <time>2020-06-15T07:13:29Z</time>
      </trkpt>
      <trkpt lat="49.63161" lon="-1.6161">
        <ele>8.6</ele>
        <time>2020-06-15T07:13:30Z</time>
      </trkpt>
      <trkpt lat="49.6316" lon="-1.61604">
        <ele>8.9</ele>
        <time>2020-06-15T07:13:31Z</time>
      </trkpt>
      <trkpt lat="49.63159" lon="-1.61601">
        <ele>9</ele>
        <time>2020-06-15T07:13:32Z</time>
      </trkpt>
      <trkpt lat="49.63158" lon="-1.61595">
        <ele>9.3</ele>
        <time>2020-06-15T07:13:33Z</time>
      </trkpt>
      <trkpt lat="49.63157" lon="-1.61591">
        <ele>9.5</ele>
        <time>2020-06-15T07:13:34Z</time>
      </trkpt>
      <trkpt lat="49.63156" lon="-1.61586">
        <ele>9.8</ele>
        <time>2020-06-15T07:13:35Z</time>
      </trkpt>
      <trkpt lat="49.63156" lon="-1.61579">
        <ele>10.2</ele>
        <time>2020-06-15T07:13:36Z</time>
      </trkpt>
      <trkpt lat="49.63156" lon="-1.61576">
        <ele>10.3</ele>
        <time>2020-06-15T07:13:37Z</time>
      </trkpt>
      <trkpt lat="49.63155" lon="-1.61572">
        <ele>10.5</ele>
        <time>2020-06-15T07:13:38Z</time>
      </trkpt>
      <trkpt lat="49.63155" lon="-1.6157">
        <ele>10.5</ele>
        <time>2020-06-15T07:13:39Z</time>
      </trkpt>
      <trkpt lat="49.63154" lon="-1.61567">
        <ele>10.7</ele>
        <time>2020-06-15T07:13:40Z</time>
      </trkpt>
      <trkpt lat="49.63154" lon="-1.61562">
        <ele>11</ele>
        <time>2020-06-15T07:13:41Z</time>
      </trkpt>
      <trkpt lat="49.63154" lon="-1.61557">
        <ele>11</ele>
        <time>2020-06-15T07:13:42Z</time>
      </trkpt>
      <trkpt lat="49.63156" lon="-1.61553">
        <ele>11.1</ele>
        <time>2020-06-15T07:13:43Z</time>
      </trkpt>
      <trkpt lat="49.63158" lon="-1.61549">
        <ele>11.2</ele>
        <time>2020-06-15T07:13:44Z</time>
      </trkpt>
      <trkpt lat="49.63161" lon="-1.61545">
        <ele>11.2</ele>
        <time>2020-06-15T07:13:45Z</time>
      </trkpt>
      <trkpt lat="49.63165" lon="-1.61541">
        <ele>11.3</ele>
        <time>2020-06-15T07:13:46Z</time>
      </trkpt>
      <trkpt lat="49.63166" lon="-1.61537">
        <ele>11.4</ele>
        <time>2020-06-15T07:13:47Z</time>
      </trkpt>
      <trkpt lat="49.63168" lon="-1.61534">
        <ele>11.4</ele>
        <time>2020-06-15T07:13:48Z</time>
      </trkpt>
      <trkpt lat="49.63169" lon="-1.61529">
        <ele>11.5</ele>
        <time>2020-06-15T07:13:49Z</time>
      </trkpt>
      <trkpt lat="49.6317" lon="-1.61528">
        <ele>11.5</ele>
        <time>2020-06-15T07:13:50Z</time>
      </trkpt>
      <trkpt lat="49.63172" lon="-1.61524">
        <ele>11.5</ele>
        <time>2020-06-15T07:13:51Z</time>
      </trkpt>
      <trkpt lat="49.63174" lon="-1.6152">
        <ele>11.5</ele>
        <time>2020-06-15T07:13:52Z</time>
      </trkpt>
      <trkpt lat="49.63175" lon="-1.61515">
        <ele>11.6</ele>
        <time>2020-06-15T07:13:53Z</time>
      </trkpt>
      <trkpt lat="49.63176" lon="-1.6151">
        <ele>11.6</ele>
        <time>2020-06-15T07:13:54Z</time>
      </trkpt>
      <trkpt lat="49.63178" lon="-1.61505">
        <ele>11.6</ele>
        <time>2020-06-15T07:13:55Z</time>
      </trkpt>
      <trkpt lat="49.63179" lon="-1.61498">
        <ele>11.6</ele>
        <time>2020-06-15T07:13:56Z</time>
      </trkpt>
      <trkpt lat="49.6318" lon="-1.61492">
        <ele>11.6</ele>
        <time>2020-06-15T07:13:57Z</time>
      </trkpt>
      <trkpt lat="49.63182" lon="-1.61487">
        <ele>11.7</ele>
        <time>2020-06-15T07:13:58Z</time>
      </trkpt>
      <trkpt lat="49.63184" lon="-1.61483">
        <ele>11.7</ele>
        <time>2020-06-15T07:13:59Z</time>
      </trkpt>
      <trkpt lat="49.63186" lon="-1.6148">
        <ele>11.7</ele>
        <time>2020-06-15T07:14:00Z</time>
      </trkpt>
      <trkpt lat="49.63187" lon="-1.61476">
        <ele>11.7</ele>
        <time>2020-06-15T07:14:01Z</time>
      </trkpt>
      <trkpt lat="49.63188" lon="-1.61472">
        <ele>11.8</ele>
        <time>2020-06-15T07:14:02Z</time>
      </trkpt>
      <trkpt lat="49.63189" lon="-1.61468">
        <ele>11.8</ele>
        <time>2020-06-15T07:14:03Z</time>
      </trkpt>
      <trkpt lat="49.63191" lon="-1.61461">
        <ele>11.8</ele>
        <time>2020-06-15T07:14:04Z</time>
      </trkpt>
      <trkpt lat="49.63192" lon="-1.61458">
        <ele>11.8</ele>
        <time>2020-06-15T07:14:05Z</time>
      </trkpt>
      <trkpt lat="49.63193" lon="-1.61453">
        <ele>11.8</ele>
        <time>2020-06-15T07:14:06Z</time>
      </trkpt>
      <trkpt lat="49.63194" lon="-1.61447">
        <ele>11.8</ele>
        <time>2020-06-15T07:14:07Z</time>
      </trkpt>
      <trkpt lat="49.63195" lon="-1.61441">
        <ele>11.8</ele>
        <time>2020-06-15T07:14:08Z</time>
      </trkpt>
      <trkpt lat="49.63195" lon="-1.61434">
        <ele>11.8</ele>
        <time>2020-06-15T07:14:09Z</time>
      </trkpt>
      <trkpt lat="49.63198" lon="-1.61428">
        <ele>11.8</ele>
        <time>2020-06-15T07:14:10Z</time>
      </trkpt>
      <trkpt lat="49.632" lon="-1.61422">
        <ele>11.8</ele>
        <time>2020-06-15T07:14:11Z</time>
      </trkpt>
      <trkpt lat="49.63202" lon="-1.61415">
        <ele>11.8</ele>
        <time>2020-06-15T07:14:12Z</time>
      </trkpt>
      <trkpt lat="49.63204" lon="-1.61408">
        <ele>11.8</ele>
        <time>2020-06-15T07:14:13Z</time>
      </trkpt>
      <trkpt lat="49.63206" lon="-1.61402">
        <ele>11.8</ele>
        <time>2020-06-15T07:14:14Z</time>
      </trkpt>
      <trkpt lat="49.63208" lon="-1.61398">
        <ele>11.8</ele>
        <time>2020-06-15T07:14:15Z</time>
      </trkpt>
      <trkpt lat="49.63209" lon="-1.61398">
        <ele>11.8</ele>
        <time>2020-06-15T07:14:16Z</time>
      </trkpt>
      <trkpt lat="49.6321" lon="-1.61397">
        <ele>11.8</ele>
        <time>2020-06-15T07:14:17Z</time>
      </trkpt>
      <trkpt lat="49.6321" lon="-1.61395">
        <ele>11.8</ele>
        <time>2020-06-15T07:14:18Z</time>
      </trkpt>
      <trkpt lat="49.6321" lon="-1.61395">
        <ele>11.8</ele>
        <time>2020-06-15T07:14:19Z</time>
      </trkpt>
      <trkpt lat="49.63211" lon="-1.61395">
        <ele>11.8</ele>
        <time>2020-06-15T07:14:20Z</time>
      </trkpt>
      <trkpt lat="49.63211" lon="-1.61395">
        <ele>11.8</ele>
        <time>2020-06-15T07:14:21Z</time>
      </trkpt>
      <trkpt lat="49.63212" lon="-1.61394">
        <ele>11.8</ele>
        <time>2020-06-15T07:14:22Z</time>
      </trkpt>
      <trkpt lat="49.63212" lon="-1.61394">
        <ele>11.8</ele>
        <time>2020-06-15T07:14:23Z</time>
      </trkpt>
      <trkpt lat="49.63213" lon="-1.61395">
        <ele>11.8</ele>
        <time>2020-06-15T07:14:24Z</time>
      </trkpt>
      <trkpt lat="49.63213" lon="-1.61395">
        <ele>11.8</ele>
        <time>2020-06-15T07:14:25Z</time>
      </trkpt>
      <trkpt lat="49.63213" lon="-1.61395">
        <ele>11.8</ele>
        <time>2020-06-15T07:14:26Z</time>
      </trkpt>
      <trkpt lat="49.63213" lon="-1.61393">
        <ele>11.8</ele>
        <time>2020-06-15T07:14:27Z</time>
      </trkpt>
      <trkpt lat="49.63214" lon="-1.61386">
        <ele>11.8</ele>
        <time>2020-06-15T07:14:29Z</time>
      </trkpt>
      <trkpt lat="49.63214" lon="-1.61381">
        <ele>11.8</ele>
        <time>2020-06-15T07:14:30Z</time>
      </trkpt>
      <trkpt lat="49.63215" lon="-1.61378">
        <ele>11.8</ele>
        <time>2020-06-15T07:14:31Z</time>
      </trkpt>
      <trkpt lat="49.63216" lon="-1.61373">
        <ele>11.8</ele>
        <time>2020-06-15T07:14:32Z</time>
      </trkpt>
      <trkpt lat="49.63218" lon="-1.61369">
        <ele>11.8</ele>
        <time>2020-06-15T07:14:33Z</time>
      </trkpt>
      <trkpt lat="49.6322" lon="-1.61363">
        <ele>11.8</ele>
        <time>2020-06-15T07:14:34Z</time>
      </trkpt>
      <trkpt lat="49.63221" lon="-1.61356">
        <ele>11.7</ele>
        <time>2020-06-15T07:14:35Z</time>
      </trkpt>
      <trkpt lat="49.63221" lon="-1.61351">
        <ele>11.7</ele>
        <time>2020-06-15T07:14:36Z</time>
      </trkpt>
      <trkpt lat="49.63221" lon="-1.61345">
        <ele>11.7</ele>
        <time>2020-06-15T07:14:37Z</time>
      </trkpt>
      <trkpt lat="49.63224" lon="-1.61335">
        <ele>11.8</ele>
        <time>2020-06-15T07:14:38Z</time>
      </trkpt>
      <trkpt lat="49.63226" lon="-1.61326">
        <ele>11.8</ele>
        <time>2020-06-15T07:14:39Z</time>
      </trkpt>
      <trkpt lat="49.63227" lon="-1.61318">
        <ele>11.8</ele>
        <time>2020-06-15T07:14:40Z</time>
      </trkpt>
      <trkpt lat="49.63227" lon="-1.6131">
        <ele>11.8</ele>
        <time>2020-06-15T07:14:41Z</time>
      </trkpt>
      <trkpt lat="49.63229" lon="-1.61303">
        <ele>11.8</ele>
        <time>2020-06-15T07:14:42Z</time>
      </trkpt>
      <trkpt lat="49.6323" lon="-1.61296">
        <ele>11.8</ele>
        <time>2020-06-15T07:14:43Z</time>
      </trkpt>
      <trkpt lat="49.6323" lon="-1.61288">
        <ele>11.8</ele>
        <time>2020-06-15T07:14:44Z</time>
      </trkpt>
      <trkpt lat="49.63232" lon="-1.6128">
        <ele>11.8</ele>
        <time>2020-06-15T07:14:45Z</time>
      </trkpt>
      <trkpt lat="49.63233" lon="-1.61274">
        <ele>11.9</ele>
        <time>2020-06-15T07:14:46Z</time>
      </trkpt>
      <trkpt lat="49.63233" lon="-1.61267">
        <ele>11.9</ele>
        <time>2020-06-15T07:14:47Z</time>
      </trkpt>
      <trkpt lat="49.63234" lon="-1.6126">
        <ele>11.9</ele>
        <time>2020-06-15T07:14:48Z</time>
      </trkpt>
      <trkpt lat="49.63235" lon="-1.61251">
        <ele>12</ele>
        <time>2020-06-15T07:14:49Z</time>
      </trkpt>
      <trkpt lat="49.63236" lon="-1.61243">
        <ele>12</ele>
        <time>2020-06-15T07:14:50Z</time>
      </trkpt>
      <trkpt lat="49.63238" lon="-1.61237">
        <ele>12.1</ele>
        <time>2020-06-15T07:14:51Z</time>
      </trkpt>
      <trkpt lat="49.6324" lon="-1.61231">
        <ele>12.1</ele>
        <time>2020-06-15T07:14:52Z</time>
      </trkpt>
      <trkpt lat="49.63241" lon="-1.61226">
        <ele>12.2</ele>
        <time>2020-06-15T07:14:53Z</time>
      </trkpt>
      <trkpt lat="49.63242" lon="-1.61223">
        <ele>12.2</ele>
        <time>2020-06-15T07:14:54Z</time>
      </trkpt>
      <trkpt lat="49.63244" lon="-1.61219">
        <ele>12.2</ele>
        <time>2020-06-15T07:14:55Z</time>
      </trkpt>
      <trkpt lat="49.63244" lon="-1.61214">
        <ele>12.2</ele>
        <time>2020-06-15T07:14:56Z</time>
      </trkpt>
      <trkpt lat="49.63245" lon="-1.6121">
        <ele>12.3</ele>
        <time>2020-06-15T07:14:57Z</time>
      </trkpt>
      <trkpt lat="49.63244" lon="-1.61205">
        <ele>12.3</ele>
        <time>2020-06-15T07:14:58Z</time>
      </trkpt>
      <trkpt lat="49.63245" lon="-1.612">
        <ele>12.3</ele>
        <time>2020-06-15T07:14:59Z</time>
      </trkpt>
      <trkpt lat="49.63245" lon="-1.61194">
        <ele>12.3</ele>
        <time>2020-06-15T07:15:00Z</time>
      </trkpt>
      <trkpt lat="49.63246" lon="-1.61188">
        <ele>12.3</ele>
        <time>2020-06-15T07:15:01Z</time>
      </trkpt>
      <trkpt lat="49.63247" lon="-1.61178">
        <ele>12.2</ele>
        <time>2020-06-15T07:15:02Z</time>
      </trkpt>
      <trkpt lat="49.63248" lon="-1.61169">
        <ele>12.1</ele>
        <time>2020-06-15T07:15:03Z</time>
      </trkpt>
      <trkpt lat="49.63249" lon="-1.61159">
        <ele>12</ele>
        <time>2020-06-15T07:15:04Z</time>
      </trkpt>
      <trkpt lat="49.63251" lon="-1.6115">
        <ele>11.9</ele>
        <time>2020-06-15T07:15:05Z</time>
      </trkpt>
      <trkpt lat="49.63253" lon="-1.61141">
        <ele>11.8</ele>
        <time>2020-06-15T07:15:06Z</time>
      </trkpt>
      <trkpt lat="49.63255" lon="-1.61131">
        <ele>11.6</ele>
        <time>2020-06-15T07:15:07Z</time>
      </trkpt>
      <trkpt lat="49.63257" lon="-1.61121">
        <ele>11.5</ele>
        <time>2020-06-15T07:15:08Z</time>
      </trkpt>
      <trkpt lat="49.63259" lon="-1.61112">
        <ele>11.5</ele>
        <time>2020-06-15T07:15:09Z</time>
      </trkpt>
      <trkpt lat="49.63261" lon="-1.61102">
        <ele>11.3</ele>
        <time>2020-06-15T07:15:10Z</time>
      </trkpt>
      <trkpt lat="49.63262" lon="-1.61094">
        <ele>11.2</ele>
        <time>2020-06-15T07:15:11Z</time>
      </trkpt>
      <trkpt lat="49.63264" lon="-1.61083">
        <ele>11.1</ele>
        <time>2020-06-15T07:15:12Z</time>
      </trkpt>
      <trkpt lat="49.63261" lon="-1.61075">
        <ele>11</ele>
        <time>2020-06-15T07:15:13Z</time>
      </trkpt>
      <trkpt lat="49.6326" lon="-1.61068">
        <ele>11</ele>
        <time>2020-06-15T07:15:14Z</time>
      </trkpt>
      <trkpt lat="49.63261" lon="-1.6106">
        <ele>11</ele>
        <time>2020-06-15T07:15:15Z</time>
      </trkpt>
      <trkpt lat="49.63262" lon="-1.61052">
        <ele>10.9</ele>
        <time>2020-06-15T07:15:16Z</time>
      </trkpt>
      <trkpt lat="49.63264" lon="-1.61046">
        <ele>10.9</ele>
        <time>2020-06-15T07:15:17Z</time>
      </trkpt>
      <trkpt lat="49.63266" lon="-1.61036">
        <ele>10.8</ele>
        <time>2020-06-15T07:15:18Z</time>
      </trkpt>
      <trkpt lat="49.63268" lon="-1.61027">
        <ele>10.8</ele>
        <time>2020-06-15T07:15:19Z</time>
      </trkpt>
      <trkpt lat="49.6327" lon="-1.61015">
        <ele>10.7</ele>
        <time>2020-06-15T07:15:20Z</time>
      </trkpt>
      <trkpt lat="49.63272" lon="-1.61003">
        <ele>10.6</ele>
        <time>2020-06-15T07:15:21Z</time>
      </trkpt>
      <trkpt lat="49.63275" lon="-1.60992">
        <ele>10.4</ele>
        <time>2020-06-15T07:15:22Z</time>
      </trkpt>
      <trkpt lat="49.63278" lon="-1.60982">
        <ele>10.3</ele>
        <time>2020-06-15T07:15:23Z</time>
      </trkpt>
      <trkpt lat="49.63281" lon="-1.6097">
        <ele>10.2</ele>
        <time>2020-06-15T07:15:24Z</time>
      </trkpt>
      <trkpt lat="49.63282" lon="-1.60958">
        <ele>10.1</ele>
        <time>2020-06-15T07:15:25Z</time>
      </trkpt>
      <trkpt lat="49.63284" lon="-1.60947">
        <ele>10</ele>
        <time>2020-06-15T07:15:26Z</time>
      </trkpt>
      <trkpt lat="49.63285" lon="-1.60938">
        <ele>9.9</ele>
        <time>2020-06-15T07:15:27Z</time>
      </trkpt>
      <trkpt lat="49.63287" lon="-1.60929">
        <ele>9.8</ele>
        <time>2020-06-15T07:15:28Z</time>
      </trkpt>
      <trkpt lat="49.6329" lon="-1.6092">
        <ele>9.8</ele>
        <time>2020-06-15T07:15:29Z</time>
      </trkpt>
      <trkpt lat="49.63294" lon="-1.6091">
        <ele>9.7</ele>
        <time>2020-06-15T07:15:30Z</time>
      </trkpt>
      <trkpt lat="49.63297" lon="-1.609">
        <ele>9.6</ele>
        <time>2020-06-15T07:15:31Z</time>
      </trkpt>
      <trkpt lat="49.63299" lon="-1.60892">
        <ele>9.6</ele>
        <time>2020-06-15T07:15:32Z</time>
      </trkpt>
      <trkpt lat="49.63301" lon="-1.60883">
        <ele>9.5</ele>
        <time>2020-06-15T07:15:33Z</time>
      </trkpt>
      <trkpt lat="49.63303" lon="-1.60874">
        <ele>9.3</ele>
        <time>2020-06-15T07:15:34Z</time>
      </trkpt>
      <trkpt lat="49.63304" lon="-1.60865">
        <ele>9.1</ele>
        <time>2020-06-15T07:15:35Z</time>
      </trkpt>
      <trkpt lat="49.63306" lon="-1.60856">
        <ele>9.1</ele>
        <time>2020-06-15T07:15:36Z</time>
      </trkpt>
      <trkpt lat="49.63308" lon="-1.60845">
        <ele>9.1</ele>
        <time>2020-06-15T07:15:37Z</time>
      </trkpt>
      <trkpt lat="49.6331" lon="-1.60835">
        <ele>9</ele>
        <time>2020-06-15T07:15:38Z</time>
      </trkpt>
      <trkpt lat="49.63312" lon="-1.60826">
        <ele>9</ele>
        <time>2020-06-15T07:15:39Z</time>
      </trkpt>
      <trkpt lat="49.63313" lon="-1.60816">
        <ele>8.9</ele>
        <time>2020-06-15T07:15:40Z</time>
      </trkpt>
      <trkpt lat="49.63316" lon="-1.60808">
        <ele>8.8</ele>
        <time>2020-06-15T07:15:41Z</time>
      </trkpt>
      <trkpt lat="49.63319" lon="-1.60799">
        <ele>8.8</ele>
        <time>2020-06-15T07:15:42Z</time>
      </trkpt>
      <trkpt lat="49.63321" lon="-1.60791">
        <ele>8.7</ele>
        <time>2020-06-15T07:15:43Z</time>
      </trkpt>
      <trkpt lat="49.63322" lon="-1.60785">
        <ele>8.7</ele>
        <time>2020-06-15T07:15:44Z</time>
      </trkpt>
      <trkpt lat="49.63324" lon="-1.60776">
        <ele>8.7</ele>
        <time>2020-06-15T07:15:45Z</time>
      </trkpt>
      <trkpt lat="49.63325" lon="-1.60768">
        <ele>8.7</ele>
        <time>2020-06-15T07:15:46Z</time>
      </trkpt>
      <trkpt lat="49.63327" lon="-1.60761">
        <ele>8.7</ele>
        <time>2020-06-15T07:15:47Z</time>
      </trkpt>
      <trkpt lat="49.63327" lon="-1.60754">
        <ele>8.7</ele>
        <time>2020-06-15T07:15:48Z</time>
      </trkpt>
      <trkpt lat="49.63329" lon="-1.60748">
        <ele>8.7</ele>
        <time>2020-06-15T07:15:49Z</time>
      </trkpt>
      <trkpt lat="49.63331" lon="-1.60741">
        <ele>8.8</ele>
        <time>2020-06-15T07:15:50Z</time>
      </trkpt>
      <trkpt lat="49.63333" lon="-1.60735">
        <ele>8.8</ele>
        <time>2020-06-15T07:15:51Z</time>
      </trkpt>
      <trkpt lat="49.63334" lon="-1.60727">
        <ele>8.8</ele>
        <time>2020-06-15T07:15:52Z</time>
      </trkpt>
      <trkpt lat="49.63335" lon="-1.60718">
        <ele>8.8</ele>
        <time>2020-06-15T07:15:53Z</time>
      </trkpt>
      <trkpt lat="49.63335" lon="-1.60708">
        <ele>8.8</ele>
        <time>2020-06-15T07:15:54Z</time>
      </trkpt>
      <trkpt lat="49.63335" lon="-1.60699">
        <ele>8.7</ele>
        <time>2020-06-15T07:15:55Z</time>
      </trkpt>
      <trkpt lat="49.63336" lon="-1.60693">
        <ele>8.7</ele>
        <time>2020-06-15T07:15:56Z</time>
      </trkpt>
      <trkpt lat="49.63337" lon="-1.60686">
        <ele>8.6</ele>
        <time>2020-06-15T07:15:57Z</time>
      </trkpt>
      <trkpt lat="49.63337" lon="-1.60681">
        <ele>8.5</ele>
        <time>2020-06-15T07:15:58Z</time>
      </trkpt>
      <trkpt lat="49.63339" lon="-1.60674">
        <ele>8.4</ele>
        <time>2020-06-15T07:15:59Z</time>
      </trkpt>
      <trkpt lat="49.63341" lon="-1.60668">
        <ele>8.3</ele>
        <time>2020-06-15T07:16:00Z</time>
      </trkpt>
      <trkpt lat="49.63342" lon="-1.60662">
        <ele>8.2</ele>
        <time>2020-06-15T07:16:01Z</time>
      </trkpt>
      <trkpt lat="49.63344" lon="-1.60655">
        <ele>8.1</ele>
        <time>2020-06-15T07:16:02Z</time>
      </trkpt>
      <trkpt lat="49.63347" lon="-1.60648">
        <ele>8</ele>
        <time>2020-06-15T07:16:03Z</time>
      </trkpt>
      <trkpt lat="49.63349" lon="-1.60642">
        <ele>7.9</ele>
        <time>2020-06-15T07:16:04Z</time>
      </trkpt>
      <trkpt lat="49.63351" lon="-1.60636">
        <ele>7.9</ele>
        <time>2020-06-15T07:16:05Z</time>
      </trkpt>
      <trkpt lat="49.63354" lon="-1.6063">
        <ele>7.9</ele>
        <time>2020-06-15T07:16:06Z</time>
      </trkpt>
      <trkpt lat="49.63357" lon="-1.60622">
        <ele>7.8</ele>
        <time>2020-06-15T07:16:07Z</time>
      </trkpt>
      <trkpt lat="49.63361" lon="-1.60615">
        <ele>7.8</ele>
        <time>2020-06-15T07:16:08Z</time>
      </trkpt>
      <trkpt lat="49.63364" lon="-1.60603">
        <ele>7.7</ele>
        <time>2020-06-15T07:16:09Z</time>
      </trkpt>
      <trkpt lat="49.63366" lon="-1.60594">
        <ele>7.7</ele>
        <time>2020-06-15T07:16:10Z</time>
      </trkpt>
      <trkpt lat="49.63365" lon="-1.60579">
        <ele>7.7</ele>
        <time>2020-06-15T07:16:11Z</time>
      </trkpt>
      <trkpt lat="49.63363" lon="-1.60569">
        <ele>7.7</ele>
        <time>2020-06-15T07:16:12Z</time>
      </trkpt>
      <trkpt lat="49.63362" lon="-1.6056">
        <ele>7.6</ele>
        <time>2020-06-15T07:16:13Z</time>
      </trkpt>
      <trkpt lat="49.63362" lon="-1.60551">
        <ele>7.6</ele>
        <time>2020-06-15T07:16:14Z</time>
      </trkpt>
      <trkpt lat="49.63363" lon="-1.60542">
        <ele>7.5</ele>
        <time>2020-06-15T07:16:15Z</time>
      </trkpt>
      <trkpt lat="49.63364" lon="-1.60535">
        <ele>7.5</ele>
        <time>2020-06-15T07:16:16Z</time>
      </trkpt>
      <trkpt lat="49.63365" lon="-1.60528">
        <ele>7.4</ele>
        <time>2020-06-15T07:16:17Z</time>
      </trkpt>
      <trkpt lat="49.63366" lon="-1.6052">
        <ele>7.4</ele>
        <time>2020-06-15T07:16:18Z</time>
      </trkpt>
      <trkpt lat="49.63367" lon="-1.60514">
        <ele>7.4</ele>
        <time>2020-06-15T07:16:19Z</time>
      </trkpt>
      <trkpt lat="49.63368" lon="-1.60505">
        <ele>7.4</ele>
        <time>2020-06-15T07:16:20Z</time>
      </trkpt>
      <trkpt lat="49.6337" lon="-1.60498">
        <ele>7.4</ele>
        <time>2020-06-15T07:16:21Z</time>
      </trkpt>
      <trkpt lat="49.63371" lon="-1.60492">
        <ele>7.4</ele>
        <time>2020-06-15T07:16:22Z</time>
      </trkpt>
      <trkpt lat="49.63372" lon="-1.60485">
        <ele>7.4</ele>
        <time>2020-06-15T07:16:23Z</time>
      </trkpt>
      <trkpt lat="49.63372" lon="-1.6048">
        <ele>7.4</ele>
        <time>2020-06-15T07:16:24Z</time>
      </trkpt>
      <trkpt lat="49.63373" lon="-1.60473">
        <ele>7.4</ele>
        <time>2020-06-15T07:16:25Z</time>
      </trkpt>
      <trkpt lat="49.63375" lon="-1.60466">
        <ele>7.3</ele>
        <time>2020-06-15T07:16:26Z</time>
      </trkpt>
      <trkpt lat="49.63376" lon="-1.6046">
        <ele>7.3</ele>
        <time>2020-06-15T07:16:27Z</time>
      </trkpt>
      <trkpt lat="49.63377" lon="-1.60455">
        <ele>7.3</ele>
        <time>2020-06-15T07:16:28Z</time>
      </trkpt>
      <trkpt lat="49.63378" lon="-1.60448">
        <ele>7.2</ele>
        <time>2020-06-15T07:16:29Z</time>
      </trkpt>
      <trkpt lat="49.63379" lon="-1.60441">
        <ele>7.2</ele>
        <time>2020-06-15T07:16:30Z</time>
      </trkpt>
      <trkpt lat="49.63381" lon="-1.60432">
        <ele>7.1</ele>
        <time>2020-06-15T07:16:31Z</time>
      </trkpt>
      <trkpt lat="49.63382" lon="-1.60422">
        <ele>7</ele>
        <time>2020-06-15T07:16:32Z</time>
      </trkpt>
      <trkpt lat="49.63383" lon="-1.60414">
        <ele>6.9</ele>
        <time>2020-06-15T07:16:33Z</time>
      </trkpt>
      <trkpt lat="49.63385" lon="-1.60407">
        <ele>6.9</ele>
        <time>2020-06-15T07:16:34Z</time>
      </trkpt>
      <trkpt lat="49.63387" lon="-1.604">
        <ele>6.8</ele>
        <time>2020-06-15T07:16:35Z</time>
      </trkpt>
      <trkpt lat="49.63388" lon="-1.60393">
        <ele>6.8</ele>
        <time>2020-06-15T07:16:36Z</time>
      </trkpt>
      <trkpt lat="49.63389" lon="-1.60386">
        <ele>6.8</ele>
        <time>2020-06-15T07:16:37Z</time>
      </trkpt>
      <trkpt lat="49.6339" lon="-1.60377">
        <ele>6.7</ele>
        <time>2020-06-15T07:16:38Z</time>
      </trkpt>
      <trkpt lat="49.63392" lon="-1.60368">
        <ele>6.7</ele>
        <time>2020-06-15T07:16:39Z</time>
      </trkpt>
      <trkpt lat="49.63394" lon="-1.6036">
        <ele>6.7</ele>
        <time>2020-06-15T07:16:40Z</time>
      </trkpt>
      <trkpt lat="49.63394" lon="-1.60351">
        <ele>6.6</ele>
        <time>2020-06-15T07:16:41Z</time>
      </trkpt>
      <trkpt lat="49.63395" lon="-1.60343">
        <ele>6.6</ele>
        <time>2020-06-15T07:16:42Z</time>
      </trkpt>
      <trkpt lat="49.63397" lon="-1.60335">
        <ele>6.6</ele>
        <time>2020-06-15T07:16:43Z</time>
      </trkpt>
      <trkpt lat="49.63399" lon="-1.60326">
        <ele>6.5</ele>
        <time>2020-06-15T07:16:44Z</time>
      </trkpt>
      <trkpt lat="49.634" lon="-1.60319">
        <ele>6.5</ele>
        <time>2020-06-15T07:16:45Z</time>
      </trkpt>
      <trkpt lat="49.63401" lon="-1.60311">
        <ele>6.5</ele>
        <time>2020-06-15T07:16:46Z</time>
      </trkpt>
      <trkpt lat="49.634" lon="-1.60305">
        <ele>6.5</ele>
        <time>2020-06-15T07:16:47Z</time>
      </trkpt>
      <trkpt lat="49.634" lon="-1.60298">
        <ele>6.4</ele>
        <time>2020-06-15T07:16:48Z</time>
      </trkpt>
      <trkpt lat="49.63401" lon="-1.60292">
        <ele>6.4</ele>
        <time>2020-06-15T07:16:49Z</time>
      </trkpt>
      <trkpt lat="49.63403" lon="-1.60287">
        <ele>6.5</ele>
        <time>2020-06-15T07:16:50Z</time>
      </trkpt>
      <trkpt lat="49.63405" lon="-1.60279">
        <ele>6.5</ele>
        <time>2020-06-15T07:16:51Z</time>
      </trkpt>
      <trkpt lat="49.63408" lon="-1.60274">
        <ele>6.5</ele>
        <time>2020-06-15T07:16:52Z</time>
      </trkpt>
      <trkpt lat="49.6341" lon="-1.60267">
        <ele>6.5</ele>
        <time>2020-06-15T07:16:53Z</time>
      </trkpt>
      <trkpt lat="49.63413" lon="-1.60262">
        <ele>6.5</ele>
        <time>2020-06-15T07:16:54Z</time>
      </trkpt>
      <trkpt lat="49.63415" lon="-1.6026">
        <ele>6.5</ele>
        <time>2020-06-15T07:16:55Z</time>
      </trkpt>
      <trkpt lat="49.63418" lon="-1.60255">
        <ele>6.5</ele>
        <time>2020-06-15T07:16:56Z</time>
      </trkpt>
      <trkpt lat="49.63422" lon="-1.6025">
        <ele>6.5</ele>
        <time>2020-06-15T07:16:57Z</time>
      </trkpt>
      <trkpt lat="49.63425" lon="-1.60243">
        <ele>6.5</ele>
        <time>2020-06-15T07:16:58Z</time>
      </trkpt>
      <trkpt lat="49.63426" lon="-1.60241">
        <ele>6.5</ele>
        <time>2020-06-15T07:16:59Z</time>
      </trkpt>
      <trkpt lat="49.63426" lon="-1.60242">
        <ele>6.5</ele>
        <time>2020-06-15T07:17:00Z</time>
      </trkpt>
      <trkpt lat="49.63426" lon="-1.60241">
        <ele>6.5</ele>
        <time>2020-06-15T07:17:01Z</time>
      </trkpt>
      <trkpt lat="49.63426" lon="-1.60241">
        <ele>6.5</ele>
        <time>2020-06-15T07:17:02Z</time>
      </trkpt>
      <trkpt lat="49.63426" lon="-1.60241">
        <ele>6.5</ele>
        <time>2020-06-15T07:17:03Z</time>
      </trkpt>
      <trkpt lat="49.63427" lon="-1.60239">
        <ele>6.5</ele>
        <time>2020-06-15T07:17:04Z</time>
      </trkpt>
      <trkpt lat="49.63428" lon="-1.60238">
        <ele>6.5</ele>
        <time>2020-06-15T07:17:05Z</time>
      </trkpt>
      <trkpt lat="49.63429" lon="-1.60237">
        <ele>6.5</ele>
        <time>2020-06-15T07:17:06Z</time>
      </trkpt>
      <trkpt lat="49.6343" lon="-1.60236">
        <ele>6.5</ele>
        <time>2020-06-15T07:17:07Z</time>
      </trkpt>
      <trkpt lat="49.63431" lon="-1.60235">
        <ele>6.4</ele>
        <time>2020-06-15T07:17:08Z</time>
      </trkpt>
      <trkpt lat="49.63432" lon="-1.60234">
        <ele>6.4</ele>
        <time>2020-06-15T07:17:09Z</time>
      </trkpt>
      <trkpt lat="49.63433" lon="-1.6023">
        <ele>6.4</ele>
        <time>2020-06-15T07:17:10Z</time>
      </trkpt>
      <trkpt lat="49.63435" lon="-1.60224">
        <ele>6.4</ele>
        <time>2020-06-15T07:17:11Z</time>
      </trkpt>
      <trkpt lat="49.63437" lon="-1.60219">
        <ele>6.3</ele>
        <time>2020-06-15T07:17:12Z</time>
      </trkpt>
      <trkpt lat="49.63439" lon="-1.60214">
        <ele>6.3</ele>
        <time>2020-06-15T07:17:13Z</time>
      </trkpt>
      <trkpt lat="49.63441" lon="-1.6021">
        <ele>6.2</ele>
        <time>2020-06-15T07:17:14Z</time>
      </trkpt>
      <trkpt lat="49.63443" lon="-1.60206">
        <ele>6.2</ele>
        <time>2020-06-15T07:17:15Z</time>
      </trkpt>
      <trkpt lat="49.63445" lon="-1.60201">
        <ele>6.1</ele>
        <time>2020-06-15T07:17:16Z</time>
      </trkpt>
      <trkpt lat="49.63447" lon="-1.60195">
        <ele>6.1</ele>
        <time>2020-06-15T07:17:17Z</time>
      </trkpt>
      <trkpt lat="49.63451" lon="-1.6019">
        <ele>6</ele>
        <time>2020-06-15T07:17:18Z</time>
      </trkpt>
      <trkpt lat="49.63453" lon="-1.60184">
        <ele>6</ele>
        <time>2020-06-15T07:17:19Z</time>
      </trkpt>
      <trkpt lat="49.63456" lon="-1.60178">
        <ele>5.9</ele>
        <time>2020-06-15T07:17:20Z</time>
      </trkpt>
      <trkpt lat="49.63458" lon="-1.60173">
        <ele>5.9</ele>
        <time>2020-06-15T07:17:21Z</time>
      </trkpt>
      <trkpt lat="49.63461" lon="-1.60166">
        <ele>5.8</ele>
        <time>2020-06-15T07:17:22Z</time>
      </trkpt>
      <trkpt lat="49.63464" lon="-1.6016">
        <ele>5.8</ele>
        <time>2020-06-15T07:17:23Z</time>
      </trkpt>
      <trkpt lat="49.63467" lon="-1.60155">
        <ele>5.7</ele>
        <time>2020-06-15T07:17:24Z</time>
      </trkpt>
      <trkpt lat="49.63471" lon="-1.60148">
        <ele>5.7</ele>
        <time>2020-06-15T07:17:25Z</time>
      </trkpt>
      <trkpt lat="49.63475" lon="-1.60141">
        <ele>5.7</ele>
        <time>2020-06-15T07:17:26Z</time>
      </trkpt>
      <trkpt lat="49.63479" lon="-1.60133">
        <ele>5.7</ele>
        <time>2020-06-15T07:17:27Z</time>
      </trkpt>
      <trkpt lat="49.63482" lon="-1.60127">
        <ele>5.6</ele>
        <time>2020-06-15T07:17:28Z</time>
      </trkpt>
      <trkpt lat="49.63486" lon="-1.60121">
        <ele>5.6</ele>
        <time>2020-06-15T07:17:29Z</time>
      </trkpt>
      <trkpt lat="49.63489" lon="-1.60114">
        <ele>5.6</ele>
        <time>2020-06-15T07:17:30Z</time>
      </trkpt>
      <trkpt lat="49.63492" lon="-1.60108">
        <ele>5.5</ele>
        <time>2020-06-15T07:17:31Z</time>
      </trkpt>
      <trkpt lat="49.63495" lon="-1.60103">
        <ele>5.5</ele>
        <time>2020-06-15T07:17:32Z</time>
      </trkpt>
      <trkpt lat="49.63498" lon="-1.60098">
        <ele>5.5</ele>
        <time>2020-06-15T07:17:33Z</time>
      </trkpt>
      <trkpt lat="49.63499" lon="-1.60093">
        <ele>5.5</ele>
        <time>2020-06-15T07:17:34Z</time>
      </trkpt>
      <trkpt lat="49.63501" lon="-1.60089">
        <ele>5.5</ele>
        <time>2020-06-15T07:17:35Z</time>
      </trkpt>
      <trkpt lat="49.63503" lon="-1.60085">
        <ele>5.4</ele>
        <time>2020-06-15T07:17:36Z</time>
      </trkpt>
      <trkpt lat="49.63505" lon="-1.6008">
        <ele>5.3</ele>
        <time>2020-06-15T07:17:37Z</time>
      </trkpt>
      <trkpt lat="49.63506" lon="-1.60075">
        <ele>5.3</ele>
        <time>2020-06-15T07:17:38Z</time>
      </trkpt>
      <trkpt lat="49.63509" lon="-1.6007">
        <ele>5.2</ele>
        <time>2020-06-15T07:17:39Z</time>
      </trkpt>
      <trkpt lat="49.63511" lon="-1.60064">
        <ele>5.1</ele>
        <time>2020-06-15T07:17:40Z</time>
      </trkpt>
      <trkpt lat="49.63515" lon="-1.60057">
        <ele>5</ele>
        <time>2020-06-15T07:17:41Z</time>
      </trkpt>
      <trkpt lat="49.63519" lon="-1.60051">
        <ele>4.9</ele>
        <time>2020-06-15T07:17:42Z</time>
      </trkpt>
      <trkpt lat="49.63521" lon="-1.60045">
        <ele>4.8</ele>
        <time>2020-06-15T07:17:43Z</time>
      </trkpt>
      <trkpt lat="49.63525" lon="-1.60038">
        <ele>4.7</ele>
        <time>2020-06-15T07:17:44Z</time>
      </trkpt>
      <trkpt lat="49.63528" lon="-1.60031">
        <ele>4.6</ele>
        <time>2020-06-15T07:17:45Z</time>
      </trkpt>
      <trkpt lat="49.63531" lon="-1.60024">
        <ele>4.6</ele>
        <time>2020-06-15T07:17:46Z</time>
      </trkpt>
      <trkpt lat="49.63534" lon="-1.60018">
        <ele>4.5</ele>
        <time>2020-06-15T07:17:47Z</time>
      </trkpt>
      <trkpt lat="49.63537" lon="-1.60011">
        <ele>4.5</ele>
        <time>2020-06-15T07:17:48Z</time>
      </trkpt>
      <trkpt lat="49.63539" lon="-1.60005">
        <ele>4.5</ele>
        <time>2020-06-15T07:17:49Z</time>
      </trkpt>
      <trkpt lat="49.63541" lon="-1.59999">
        <ele>4.4</ele>
        <time>2020-06-15T07:17:50Z</time>
      </trkpt>
      <trkpt lat="49.63543" lon="-1.59991">
        <ele>4.4</ele>
        <time>2020-06-15T07:17:51Z</time>
      </trkpt>
      <trkpt lat="49.63546" lon="-1.59983">
        <ele>4.3</ele>
        <time>2020-06-15T07:17:52Z</time>
      </trkpt>
      <trkpt lat="49.63548" lon="-1.59976">
        <ele>4.3</ele>
        <time>2020-06-15T07:17:53Z</time>
      </trkpt>
      <trkpt lat="49.63551" lon="-1.59968">
        <ele>4.2</ele>
        <time>2020-06-15T07:17:54Z</time>
      </trkpt>
      <trkpt lat="49.63553" lon="-1.59961">
        <ele>4.2</ele>
        <time>2020-06-15T07:17:55Z</time>
      </trkpt>
      <trkpt lat="49.63556" lon="-1.59953">
        <ele>4.2</ele>
        <time>2020-06-15T07:17:56Z</time>
      </trkpt>
      <trkpt lat="49.63557" lon="-1.59947">
        <ele>4.2</ele>
        <time>2020-06-15T07:17:57Z</time>
      </trkpt>
      <trkpt lat="49.63559" lon="-1.59941">
        <ele>4.2</ele>
        <time>2020-06-15T07:17:58Z</time>
      </trkpt>
      <trkpt lat="49.6356" lon="-1.59934">
        <ele>4.2</ele>
        <time>2020-06-15T07:17:59Z</time>
      </trkpt>
      <trkpt lat="49.63561" lon="-1.59928">
        <ele>4.2</ele>
        <time>2020-06-15T07:18:00Z</time>
      </trkpt>
      <trkpt lat="49.63563" lon="-1.59922">
        <ele>4.3</ele>
        <time>2020-06-15T07:18:01Z</time>
      </trkpt>
      <trkpt lat="49.63564" lon="-1.59915">
        <ele>4.3</ele>
        <time>2020-06-15T07:18:02Z</time>
      </trkpt>
      <trkpt lat="49.63567" lon="-1.59908">
        <ele>4.3</ele>
        <time>2020-06-15T07:18:03Z</time>
      </trkpt>
      <trkpt lat="49.63568" lon="-1.59901">
        <ele>4.3</ele>
        <time>2020-06-15T07:18:04Z</time>
      </trkpt>
      <trkpt lat="49.6357" lon="-1.59894">
        <ele>4.3</ele>
        <time>2020-06-15T07:18:05Z</time>
      </trkpt>
      <trkpt lat="49.63573" lon="-1.59887">
        <ele>4.3</ele>
        <time>2020-06-15T07:18:06Z</time>
      </trkpt>
      <trkpt lat="49.63575" lon="-1.5988">
        <ele>4.3</ele>
        <time>2020-06-15T07:18:07Z</time>
      </trkpt>
      <trkpt lat="49.63577" lon="-1.5987">
        <ele>4.2</ele>
        <time>2020-06-15T07:18:08Z</time>
      </trkpt>
      <trkpt lat="49.63579" lon="-1.59862">
        <ele>4.2</ele>
        <time>2020-06-15T07:18:09Z</time>
      </trkpt>
      <trkpt lat="49.63581" lon="-1.59854">
        <ele>4.2</ele>
        <time>2020-06-15T07:18:10Z</time>
      </trkpt>
      <trkpt lat="49.63583" lon="-1.59846">
        <ele>4.2</ele>
        <time>2020-06-15T07:18:11Z</time>
      </trkpt>
      <trkpt lat="49.63585" lon="-1.59838">
        <ele>4.2</ele>
        <time>2020-06-15T07:18:12Z</time>
      </trkpt>
      <trkpt lat="49.63587" lon="-1.59831">
        <ele>4.2</ele>
        <time>2020-06-15T07:18:13Z</time>
      </trkpt>
      <trkpt lat="49.63588" lon="-1.59825">
        <ele>4.2</ele>
        <time>2020-06-15T07:18:14Z</time>
      </trkpt>
      <trkpt lat="49.63592" lon="-1.59816">
        <ele>4.2</ele>
        <time>2020-06-15T07:18:15Z</time>
      </trkpt>
      <trkpt lat="49.63594" lon="-1.5981">
        <ele>4.2</ele>
        <time>2020-06-15T07:18:16Z</time>
      </trkpt>
      <trkpt lat="49.63596" lon="-1.59801">
        <ele>4.2</ele>
        <time>2020-06-15T07:18:17Z</time>
      </trkpt>
      <trkpt lat="49.63598" lon="-1.59793">
        <ele>4.2</ele>
        <time>2020-06-15T07:18:18Z</time>
      </trkpt>
      <trkpt lat="49.636" lon="-1.59786">
        <ele>4.2</ele>
        <time>2020-06-15T07:18:19Z</time>
      </trkpt>
      <trkpt lat="49.63602" lon="-1.59779">
        <ele>4.3</ele>
        <time>2020-06-15T07:18:20Z</time>
      </trkpt>
      <trkpt lat="49.63604" lon="-1.59769">
        <ele>4.3</ele>
        <time>2020-06-15T07:18:21Z</time>
      </trkpt>
      <trkpt lat="49.63607" lon="-1.59762">
        <ele>4.3</ele>
        <time>2020-06-15T07:18:22Z</time>
      </trkpt>
      <trkpt lat="49.63609" lon="-1.59754">
        <ele>4.3</ele>
        <time>2020-06-15T07:18:23Z</time>
      </trkpt>
      <trkpt lat="49.63612" lon="-1.59747">
        <ele>4.3</ele>
        <time>2020-06-15T07:18:24Z</time>
      </trkpt>
      <trkpt lat="49.63614" lon="-1.5974">
        <ele>4.3</ele>
        <time>2020-06-15T07:18:25Z</time>
      </trkpt>
      <trkpt lat="49.63617" lon="-1.59731">
        <ele>4.3</ele>
        <time>2020-06-15T07:18:26Z</time>
      </trkpt>
      <trkpt lat="49.63619" lon="-1.59725">
        <ele>4.3</ele>
        <time>2020-06-15T07:18:27Z</time>
      </trkpt>
      <trkpt lat="49.63622" lon="-1.59718">
        <ele>4.3</ele>
        <time>2020-06-15T07:18:28Z</time>
      </trkpt>
      <trkpt lat="49.63625" lon="-1.59712">
        <ele>4.3</ele>
        <time>2020-06-15T07:18:29Z</time>
      </trkpt>
      <trkpt lat="49.63627" lon="-1.59707">
        <ele>4.3</ele>
        <time>2020-06-15T07:18:30Z</time>
      </trkpt>
      <trkpt lat="49.6363" lon="-1.59702">
        <ele>4.3</ele>
        <time>2020-06-15T07:18:31Z</time>
      </trkpt>
      <trkpt lat="49.63632" lon="-1.59696">
        <ele>4.3</ele>
        <time>2020-06-15T07:18:32Z</time>
      </trkpt>
      <trkpt lat="49.63635" lon="-1.5969">
        <ele>4.3</ele>
        <time>2020-06-15T07:18:33Z</time>
      </trkpt>
      <trkpt lat="49.63638" lon="-1.59684">
        <ele>4.3</ele>
        <time>2020-06-15T07:18:34Z</time>
      </trkpt>
      <trkpt lat="49.6364" lon="-1.59678">
        <ele>4.3</ele>
        <time>2020-06-15T07:18:35Z</time>
      </trkpt>
      <trkpt lat="49.63642" lon="-1.59673">
        <ele>4.4</ele>
        <time>2020-06-15T07:18:36Z</time>
      </trkpt>
      <trkpt lat="49.63643" lon="-1.59666">
        <ele>4.4</ele>
        <time>2020-06-15T07:18:37Z</time>
      </trkpt>
      <trkpt lat="49.63645" lon="-1.5966">
        <ele>4.4</ele>
        <time>2020-06-15T07:18:38Z</time>
      </trkpt>
      <trkpt lat="49.63645" lon="-1.59653">
        <ele>4.4</ele>
        <time>2020-06-15T07:18:39Z</time>
      </trkpt>
      <trkpt lat="49.63644" lon="-1.59646">
        <ele>4.4</ele>
        <time>2020-06-15T07:18:40Z</time>
      </trkpt>
      <trkpt lat="49.63643" lon="-1.59637">
        <ele>4.5</ele>
        <time>2020-06-15T07:18:41Z</time>
      </trkpt>
      <trkpt lat="49.63643" lon="-1.59631">
        <ele>4.5</ele>
        <time>2020-06-15T07:18:42Z</time>
      </trkpt>
      <trkpt lat="49.63643" lon="-1.59624">
        <ele>4.6</ele>
        <time>2020-06-15T07:18:43Z</time>
      </trkpt>
      <trkpt lat="49.63643" lon="-1.59619">
        <ele>5</ele>
        <time>2020-06-15T07:18:44Z</time>
      </trkpt>
      <trkpt lat="49.63642" lon="-1.59611">
        <ele>5</ele>
        <time>2020-06-15T07:18:45Z</time>
      </trkpt>
      <trkpt lat="49.63641" lon="-1.59606">
        <ele>4.9</ele>
        <time>2020-06-15T07:18:46Z</time>
      </trkpt>
      <trkpt lat="49.63641" lon="-1.596">
        <ele>4.9</ele>
        <time>2020-06-15T07:18:47Z</time>
      </trkpt>
      <trkpt lat="49.63641" lon="-1.59598">
        <ele>4.9</ele>
        <time>2020-06-15T07:18:48Z</time>
      </trkpt>
      <trkpt lat="49.63641" lon="-1.59593">
        <ele>4.9</ele>
        <time>2020-06-15T07:18:49Z</time>
      </trkpt>
      <trkpt lat="49.6364" lon="-1.5959">
        <ele>4.9</ele>
        <time>2020-06-15T07:18:50Z</time>
      </trkpt>
      <trkpt lat="49.6364" lon="-1.59589">
        <ele>4.9</ele>
        <time>2020-06-15T07:18:51Z</time>
      </trkpt>
      <trkpt lat="49.63641" lon="-1.59589">
        <ele>4.9</ele>
        <time>2020-06-15T07:18:52Z</time>
      </trkpt>
      <trkpt lat="49.63642" lon="-1.59589">
        <ele>4.9</ele>
        <time>2020-06-15T07:18:53Z</time>
      </trkpt>
      <trkpt lat="49.63643" lon="-1.59589">
        <ele>4.9</ele>
        <time>2020-06-15T07:18:54Z</time>
      </trkpt>
      <trkpt lat="49.63643" lon="-1.5959">
        <ele>4.9</ele>
        <time>2020-06-15T07:18:55Z</time>
      </trkpt>
      <trkpt lat="49.63644" lon="-1.5959">
        <ele>4.9</ele>
        <time>2020-06-15T07:18:56Z</time>
      </trkpt>
      <trkpt lat="49.63647" lon="-1.59589">
        <ele>4.9</ele>
        <time>2020-06-15T07:18:57Z</time>
      </trkpt>
      <trkpt lat="49.63648" lon="-1.59589">
        <ele>4.9</ele>
        <time>2020-06-15T07:18:58Z</time>
      </trkpt>
      <trkpt lat="49.6365" lon="-1.59589">
        <ele>4.8</ele>
        <time>2020-06-15T07:18:59Z</time>
      </trkpt>
      <trkpt lat="49.63652" lon="-1.59588">
        <ele>4.8</ele>
        <time>2020-06-15T07:19:00Z</time>
      </trkpt>
      <trkpt lat="49.63653" lon="-1.59588">
        <ele>4.8</ele>
        <time>2020-06-15T07:19:01Z</time>
      </trkpt>
      <trkpt lat="49.63654" lon="-1.59588">
        <ele>4.8</ele>
        <time>2020-06-15T07:19:02Z</time>
      </trkpt>
      <trkpt lat="49.63655" lon="-1.59589">
        <ele>4.8</ele>
        <time>2020-06-15T07:19:03Z</time>
      </trkpt>
      <trkpt lat="49.63655" lon="-1.59589">
        <ele>4.8</ele>
        <time>2020-06-15T07:19:04Z</time>
      </trkpt>
      <trkpt lat="49.63656" lon="-1.59589">
        <ele>4.8</ele>
        <time>2020-06-15T07:19:05Z</time>
      </trkpt>
      <trkpt lat="49.63658" lon="-1.59592">
        <ele>4.9</ele>
        <time>2020-06-15T07:19:06Z</time>
      </trkpt>
      <trkpt lat="49.63662" lon="-1.59595">
        <ele>5</ele>
        <time>2020-06-15T07:19:07Z</time>
      </trkpt>
      <trkpt lat="49.63665" lon="-1.59597">
        <ele>4.9</ele>
        <time>2020-06-15T07:19:08Z</time>
      </trkpt>
      <trkpt lat="49.63669" lon="-1.59597">
        <ele>4.9</ele>
        <time>2020-06-15T07:19:09Z</time>
      </trkpt>
      <trkpt lat="49.63673" lon="-1.59594">
        <ele>4.9</ele>
        <time>2020-06-15T07:19:10Z</time>
      </trkpt>
      <trkpt lat="49.63677" lon="-1.59589">
        <ele>4.9</ele>
        <time>2020-06-15T07:19:11Z</time>
      </trkpt>
      <trkpt lat="49.63681" lon="-1.59583">
        <ele>4.9</ele>
        <time>2020-06-15T07:19:12Z</time>
      </trkpt>
      <trkpt lat="49.63685" lon="-1.59579">
        <ele>4.8</ele>
        <time>2020-06-15T07:19:13Z</time>
      </trkpt>
      <trkpt lat="49.63689" lon="-1.59576">
        <ele>4.8</ele>
        <time>2020-06-15T07:19:14Z</time>
      </trkpt>
      <trkpt lat="49.63693" lon="-1.59571">
        <ele>4.8</ele>
        <time>2020-06-15T07:19:15Z</time>
      </trkpt>
      <trkpt lat="49.63697" lon="-1.59566">
        <ele>4.7</ele>
        <time>2020-06-15T07:19:16Z</time>
      </trkpt>
      <trkpt lat="49.63701" lon="-1.59562">
        <ele>4.7</ele>
        <time>2020-06-15T07:19:17Z</time>
      </trkpt>
      <trkpt lat="49.63705" lon="-1.59557">
        <ele>4.7</ele>
        <time>2020-06-15T07:19:18Z</time>
      </trkpt>
      <trkpt lat="49.63709" lon="-1.59553">
        <ele>4.7</ele>
        <time>2020-06-15T07:19:19Z</time>
      </trkpt>
      <trkpt lat="49.63713" lon="-1.59549">
        <ele>4.7</ele>
        <time>2020-06-15T07:19:20Z</time>
      </trkpt>
      <trkpt lat="49.63717" lon="-1.59545">
        <ele>4.7</ele>
        <time>2020-06-15T07:19:21Z</time>
      </trkpt>
      <trkpt lat="49.63721" lon="-1.59542">
        <ele>4.6</ele>
        <time>2020-06-15T07:19:22Z</time>
      </trkpt>
      <trkpt lat="49.63725" lon="-1.59538">
        <ele>4.6</ele>
        <time>2020-06-15T07:19:23Z</time>
      </trkpt>
      <trkpt lat="49.6373" lon="-1.59534">
        <ele>4.6</ele>
        <time>2020-06-15T07:19:24Z</time>
      </trkpt>
      <trkpt lat="49.63734" lon="-1.59531">
        <ele>4.6</ele>
        <time>2020-06-15T07:19:25Z</time>
      </trkpt>
      <trkpt lat="49.63738" lon="-1.59527">
        <ele>4.6</ele>
        <time>2020-06-15T07:19:26Z</time>
      </trkpt>
      <trkpt lat="49.63743" lon="-1.59524">
        <ele>4.6</ele>
        <time>2020-06-15T07:19:27Z</time>
      </trkpt>
      <trkpt lat="49.63748" lon="-1.5952">
        <ele>4.6</ele>
        <time>2020-06-15T07:19:28Z</time>
      </trkpt>
      <trkpt lat="49.63752" lon="-1.59516">
        <ele>4.6</ele>
        <time>2020-06-15T07:19:29Z</time>
      </trkpt>
      <trkpt lat="49.63757" lon="-1.59514">
        <ele>4.6</ele>
        <time>2020-06-15T07:19:30Z</time>
      </trkpt>
      <trkpt lat="49.63762" lon="-1.5951">
        <ele>4.6</ele>
        <time>2020-06-15T07:19:31Z</time>
      </trkpt>
      <trkpt lat="49.63766" lon="-1.59507">
        <ele>4.6</ele>
        <time>2020-06-15T07:19:32Z</time>
      </trkpt>
      <trkpt lat="49.63771" lon="-1.59504">
        <ele>4.6</ele>
        <time>2020-06-15T07:19:33Z</time>
      </trkpt>
      <trkpt lat="49.63775" lon="-1.59501">
        <ele>4.6</ele>
        <time>2020-06-15T07:19:34Z</time>
      </trkpt>
      <trkpt lat="49.6378" lon="-1.59497">
        <ele>4.6</ele>
        <time>2020-06-15T07:19:35Z</time>
      </trkpt>
      <trkpt lat="49.63785" lon="-1.59495">
        <ele>4.5</ele>
        <time>2020-06-15T07:19:36Z</time>
      </trkpt>
      <trkpt lat="49.6379" lon="-1.59492">
        <ele>4.5</ele>
        <time>2020-06-15T07:19:37Z</time>
      </trkpt>
      <trkpt lat="49.63795" lon="-1.59489">
        <ele>4.4</ele>
        <time>2020-06-15T07:19:38Z</time>
      </trkpt>
      <trkpt lat="49.638" lon="-1.59486">
        <ele>4.4</ele>
        <time>2020-06-15T07:19:39Z</time>
      </trkpt>
      <trkpt lat="49.63806" lon="-1.59481">
        <ele>4.3</ele>
        <time>2020-06-15T07:19:40Z</time>
      </trkpt>
      <trkpt lat="49.6381" lon="-1.59478">
        <ele>4.3</ele>
        <time>2020-06-15T07:19:41Z</time>
      </trkpt>
      <trkpt lat="49.63816" lon="-1.59475">
        <ele>4.3</ele>
        <time>2020-06-15T07:19:42Z</time>
      </trkpt>
      <trkpt lat="49.63822" lon="-1.59472">
        <ele>4.2</ele>
        <time>2020-06-15T07:19:43Z</time>
      </trkpt>
      <trkpt lat="49.63827" lon="-1.59468">
        <ele>4.2</ele>
        <time>2020-06-15T07:19:44Z</time>
      </trkpt>
      <trkpt lat="49.63832" lon="-1.59464">
        <ele>4.2</ele>
        <time>2020-06-15T07:19:45Z</time>
      </trkpt>
      <trkpt lat="49.63838" lon="-1.5946">
        <ele>4.1</ele>
        <time>2020-06-15T07:19:46Z</time>
      </trkpt>
      <trkpt lat="49.63843" lon="-1.59458">
        <ele>4.1</ele>
        <time>2020-06-15T07:19:47Z</time>
      </trkpt>
      <trkpt lat="49.63848" lon="-1.59455">
        <ele>4.1</ele>
        <time>2020-06-15T07:19:48Z</time>
      </trkpt>
      <trkpt lat="49.63853" lon="-1.59452">
        <ele>4.1</ele>
        <time>2020-06-15T07:19:49Z</time>
      </trkpt>
      <trkpt lat="49.63858" lon="-1.59448">
        <ele>4.1</ele>
        <time>2020-06-15T07:19:50Z</time>
      </trkpt>
      <trkpt lat="49.63864" lon="-1.59444">
        <ele>4.1</ele>
        <time>2020-06-15T07:19:51Z</time>
      </trkpt>
      <trkpt lat="49.63869" lon="-1.59441">
        <ele>4.2</ele>
        <time>2020-06-15T07:19:52Z</time>
      </trkpt>
      <trkpt lat="49.63873" lon="-1.59438">
        <ele>4.2</ele>
        <time>2020-06-15T07:19:53Z</time>
      </trkpt>
      <trkpt lat="49.63878" lon="-1.59434">
        <ele>4.3</ele>
        <time>2020-06-15T07:19:54Z</time>
      </trkpt>
      <trkpt lat="49.63883" lon="-1.59431">
        <ele>4.3</ele>
        <time>2020-06-15T07:19:55Z</time>
      </trkpt>
      <trkpt lat="49.63889" lon="-1.59427">
        <ele>4.4</ele>
        <time>2020-06-15T07:19:56Z</time>
      </trkpt>
      <trkpt lat="49.63894" lon="-1.59424">
        <ele>4.4</ele>
        <time>2020-06-15T07:19:57Z</time>
      </trkpt>
      <trkpt lat="49.63899" lon="-1.5942">
        <ele>4.4</ele>
        <time>2020-06-15T07:19:58Z</time>
      </trkpt>
      <trkpt lat="49.63905" lon="-1.59415">
        <ele>4.4</ele>
        <time>2020-06-15T07:19:59Z</time>
      </trkpt>
      <trkpt lat="49.63911" lon="-1.59411">
        <ele>4.4</ele>
        <time>2020-06-15T07:20:00Z</time>
      </trkpt>
      <trkpt lat="49.63917" lon="-1.59409">
        <ele>4.4</ele>
        <time>2020-06-15T07:20:01Z</time>
      </trkpt>
      <trkpt lat="49.63923" lon="-1.59405">
        <ele>4.4</ele>
        <time>2020-06-15T07:20:02Z</time>
      </trkpt>
      <trkpt lat="49.63929" lon="-1.59401">
        <ele>4.4</ele>
        <time>2020-06-15T07:20:03Z</time>
      </trkpt>
      <trkpt lat="49.63934" lon="-1.59398">
        <ele>4.4</ele>
        <time>2020-06-15T07:20:04Z</time>
      </trkpt>
      <trkpt lat="49.63939" lon="-1.59396">
        <ele>4.4</ele>
        <time>2020-06-15T07:20:05Z</time>
      </trkpt>
      <trkpt lat="49.63944" lon="-1.59393">
        <ele>4.5</ele>
        <time>2020-06-15T07:20:06Z</time>
      </trkpt>
      <trkpt lat="49.63948" lon="-1.59391">
        <ele>4.5</ele>
        <time>2020-06-15T07:20:07Z</time>
      </trkpt>
      <trkpt lat="49.63952" lon="-1.59389">
        <ele>4.5</ele>
        <time>2020-06-15T07:20:08Z</time>
      </trkpt>
      <trkpt lat="49.63956" lon="-1.59387">
        <ele>4.5</ele>
        <time>2020-06-15T07:20:09Z</time>
      </trkpt>
      <trkpt lat="49.6396" lon="-1.59386">
        <ele>4.5</ele>
        <time>2020-06-15T07:20:10Z</time>
      </trkpt>
      <trkpt lat="49.63964" lon="-1.59384">
        <ele>4.5</ele>
        <time>2020-06-15T07:20:11Z</time>
      </trkpt>
      <trkpt lat="49.63969" lon="-1.59382">
        <ele>4.5</ele>
        <time>2020-06-15T07:20:12Z</time>
      </trkpt>
      <trkpt lat="49.63973" lon="-1.59379">
        <ele>4.5</ele>
        <time>2020-06-15T07:20:13Z</time>
      </trkpt>
      <trkpt lat="49.6398" lon="-1.59376">
        <ele>4.6</ele>
        <time>2020-06-15T07:20:14Z</time>
      </trkpt>
      <trkpt lat="49.63985" lon="-1.59374">
        <ele>4.6</ele>
        <time>2020-06-15T07:20:15Z</time>
      </trkpt>
      <trkpt lat="49.6399" lon="-1.59372">
        <ele>4.6</ele>
        <time>2020-06-15T07:20:16Z</time>
      </trkpt>
      <trkpt lat="49.63996" lon="-1.5937">
        <ele>4.7</ele>
        <time>2020-06-15T07:20:17Z</time>
      </trkpt>
      <trkpt lat="49.64001" lon="-1.59369">
        <ele>4.7</ele>
        <time>2020-06-15T07:20:18Z</time>
      </trkpt>
      <trkpt lat="49.64006" lon="-1.59367">
        <ele>4.8</ele>
        <time>2020-06-15T07:20:19Z</time>
      </trkpt>
      <trkpt lat="49.6401" lon="-1.59364">
        <ele>4.9</ele>
        <time>2020-06-15T07:20:20Z</time>
      </trkpt>
      <trkpt lat="49.64015" lon="-1.59363">
        <ele>4.9</ele>
        <time>2020-06-15T07:20:21Z</time>
      </trkpt>
      <trkpt lat="49.64019" lon="-1.59361">
        <ele>5</ele>
        <time>2020-06-15T07:20:22Z</time>
      </trkpt>
      <trkpt lat="49.64024" lon="-1.5936">
        <ele>5</ele>
        <time>2020-06-15T07:20:23Z</time>
      </trkpt>
      <trkpt lat="49.64029" lon="-1.59358">
        <ele>5</ele>
        <time>2020-06-15T07:20:24Z</time>
      </trkpt>
      <trkpt lat="49.64033" lon="-1.59356">
        <ele>5</ele>
        <time>2020-06-15T07:20:25Z</time>
      </trkpt>
      <trkpt lat="49.64039" lon="-1.59354">
        <ele>5</ele>
        <time>2020-06-15T07:20:26Z</time>
      </trkpt>
      <trkpt lat="49.64044" lon="-1.59351">
        <ele>5</ele>
        <time>2020-06-15T07:20:27Z</time>
      </trkpt>
      <trkpt lat="49.6405" lon="-1.59349">
        <ele>5</ele>
        <time>2020-06-15T07:20:28Z</time>
      </trkpt>
      <trkpt lat="49.64056" lon="-1.59348">
        <ele>5</ele>
        <time>2020-06-15T07:20:29Z</time>
      </trkpt>
      <trkpt lat="49.64061" lon="-1.59347">
        <ele>5</ele>
        <time>2020-06-15T07:20:30Z</time>
      </trkpt>
      <trkpt lat="49.64065" lon="-1.59346">
        <ele>5</ele>
        <time>2020-06-15T07:20:31Z</time>
      </trkpt>
      <trkpt lat="49.64071" lon="-1.59345">
        <ele>5</ele>
        <time>2020-06-15T07:20:32Z</time>
      </trkpt>
      <trkpt lat="49.64076" lon="-1.59344">
        <ele>5.1</ele>
        <time>2020-06-15T07:20:33Z</time>
      </trkpt>
      <trkpt lat="49.6408" lon="-1.59342">
        <ele>5.1</ele>
        <time>2020-06-15T07:20:34Z</time>
      </trkpt>
      <trkpt lat="49.64085" lon="-1.59342">
        <ele>5.1</ele>
        <time>2020-06-15T07:20:35Z</time>
      </trkpt>
      <trkpt lat="49.64089" lon="-1.5934">
        <ele>5.1</ele>
        <time>2020-06-15T07:20:36Z</time>
      </trkpt>
      <trkpt lat="49.64095" lon="-1.5934">
        <ele>5.1</ele>
        <time>2020-06-15T07:20:37Z</time>
      </trkpt>
      <trkpt lat="49.641" lon="-1.5934">
        <ele>5.1</ele>
        <time>2020-06-15T07:20:38Z</time>
      </trkpt>
      <trkpt lat="49.64105" lon="-1.59339">
        <ele>5.1</ele>
        <time>2020-06-15T07:20:39Z</time>
      </trkpt>
      <trkpt lat="49.6411" lon="-1.5934">
        <ele>5.1</ele>
        <time>2020-06-15T07:20:40Z</time>
      </trkpt>
      <trkpt lat="49.64115" lon="-1.5934">
        <ele>5.1</ele>
        <time>2020-06-15T07:20:41Z</time>
      </trkpt>
      <trkpt lat="49.64119" lon="-1.5934">
        <ele>5.1</ele>
        <time>2020-06-15T07:20:42Z</time>
      </trkpt>
      <trkpt lat="49.64123" lon="-1.5934">
        <ele>5</ele>
        <time>2020-06-15T07:20:43Z</time>
      </trkpt>
      <trkpt lat="49.64127" lon="-1.59339">
        <ele>5</ele>
        <time>2020-06-15T07:20:44Z</time>
      </trkpt>
      <trkpt lat="49.6413" lon="-1.59337">
        <ele>5</ele>
        <time>2020-06-15T07:20:45Z</time>
      </trkpt>
      <trkpt lat="49.64132" lon="-1.59336">
        <ele>5</ele>
        <time>2020-06-15T07:20:46Z</time>
      </trkpt>
      <trkpt lat="49.64132" lon="-1.59334">
        <ele>5</ele>
        <time>2020-06-15T07:20:47Z</time>
      </trkpt>
      <trkpt lat="49.64133" lon="-1.59326">
        <ele>5.1</ele>
        <time>2020-06-15T07:20:48Z</time>
      </trkpt>
      <trkpt lat="49.64132" lon="-1.59322">
        <ele>5.1</ele>
        <time>2020-06-15T07:20:49Z</time>
      </trkpt>
      <trkpt lat="49.64133" lon="-1.59314">
        <ele>5</ele>
        <time>2020-06-15T07:20:50Z</time>
      </trkpt>
      <trkpt lat="49.64134" lon="-1.59308">
        <ele>5</ele>
        <time>2020-06-15T07:20:51Z</time>
      </trkpt>
      <trkpt lat="49.64135" lon="-1.59302">
        <ele>5</ele>
        <time>2020-06-15T07:20:52Z</time>
      </trkpt>
      <trkpt lat="49.64136" lon="-1.59297">
        <ele>5</ele>
        <time>2020-06-15T07:20:53Z</time>
      </trkpt>
      <trkpt lat="49.64138" lon="-1.59289">
        <ele>4.9</ele>
        <time>2020-06-15T07:20:54Z</time>
      </trkpt>
      <trkpt lat="49.64139" lon="-1.59281">
        <ele>4.9</ele>
        <time>2020-06-15T07:20:55Z</time>
      </trkpt>
      <trkpt lat="49.64139" lon="-1.59274">
        <ele>4.9</ele>
        <time>2020-06-15T07:20:56Z</time>
      </trkpt>
      <trkpt lat="49.6414" lon="-1.59266">
        <ele>4.8</ele>
        <time>2020-06-15T07:20:57Z</time>
      </trkpt>
      <trkpt lat="49.64141" lon="-1.59259">
        <ele>4.8</ele>
        <time>2020-06-15T07:20:58Z</time>
      </trkpt>
      <trkpt lat="49.64142" lon="-1.59252">
        <ele>4.8</ele>
        <time>2020-06-15T07:20:59Z</time>
      </trkpt>
      <trkpt lat="49.64144" lon="-1.59246">
        <ele>4.8</ele>
        <time>2020-06-15T07:21:00Z</time>
      </trkpt>
      <trkpt lat="49.64145" lon="-1.59237">
        <ele>4.8</ele>
        <time>2020-06-15T07:21:01Z</time>
      </trkpt>
      <trkpt lat="49.64147" lon="-1.59228">
        <ele>4.7</ele>
        <time>2020-06-15T07:21:02Z</time>
      </trkpt>
      <trkpt lat="49.64149" lon="-1.59221">
        <ele>4.7</ele>
        <time>2020-06-15T07:21:03Z</time>
      </trkpt>
      <trkpt lat="49.64151" lon="-1.59213">
        <ele>4.7</ele>
        <time>2020-06-15T07:21:04Z</time>
      </trkpt>
      <trkpt lat="49.64152" lon="-1.59206">
        <ele>4.7</ele>
        <time>2020-06-15T07:21:05Z</time>
      </trkpt>
      <trkpt lat="49.64153" lon="-1.59199">
        <ele>4.7</ele>
        <time>2020-06-15T07:21:06Z</time>
      </trkpt>
      <trkpt lat="49.64154" lon="-1.59193">
        <ele>4.7</ele>
        <time>2020-06-15T07:21:07Z</time>
      </trkpt>
      <trkpt lat="49.64156" lon="-1.59185">
        <ele>4.7</ele>
        <time>2020-06-15T07:21:08Z</time>
      </trkpt>
      <trkpt lat="49.64159" lon="-1.59177">
        <ele>4.7</ele>
        <time>2020-06-15T07:21:09Z</time>
      </trkpt>
      <trkpt lat="49.64161" lon="-1.59168">
        <ele>4.7</ele>
        <time>2020-06-15T07:21:10Z</time>
      </trkpt>
      <trkpt lat="49.64163" lon="-1.59161">
        <ele>4.7</ele>
        <time>2020-06-15T07:21:11Z</time>
      </trkpt>
      <trkpt lat="49.64165" lon="-1.59153">
        <ele>4.7</ele>
        <time>2020-06-15T07:21:12Z</time>
      </trkpt>
      <trkpt lat="49.64165" lon="-1.59145">
        <ele>4.7</ele>
        <time>2020-06-15T07:21:13Z</time>
      </trkpt>
      <trkpt lat="49.64166" lon="-1.59139">
        <ele>4.7</ele>
        <time>2020-06-15T07:21:14Z</time>
      </trkpt>
      <trkpt lat="49.64167" lon="-1.59132">
        <ele>4.7</ele>
        <time>2020-06-15T07:21:15Z</time>
      </trkpt>
      <trkpt lat="49.64167" lon="-1.59125">
        <ele>4.7</ele>
        <time>2020-06-15T07:21:16Z</time>
      </trkpt>
      <trkpt lat="49.64168" lon="-1.59118">
        <ele>4.7</ele>
        <time>2020-06-15T07:21:17Z</time>
      </trkpt>
      <trkpt lat="49.64169" lon="-1.59112">
        <ele>4.7</ele>
        <time>2020-06-15T07:21:18Z</time>
      </trkpt>
      <trkpt lat="49.6417" lon="-1.59103">
        <ele>4.7</ele>
        <time>2020-06-15T07:21:19Z</time>
      </trkpt>
      <trkpt lat="49.64171" lon="-1.59092">
        <ele>4.8</ele>
        <time>2020-06-15T07:21:20Z</time>
      </trkpt>
      <trkpt lat="49.64172" lon="-1.59083">
        <ele>4.8</ele>
        <time>2020-06-15T07:21:21Z</time>
      </trkpt>
      <trkpt lat="49.64173" lon="-1.59075">
        <ele>4.8</ele>
        <time>2020-06-15T07:21:22Z</time>
      </trkpt>
      <trkpt lat="49.64175" lon="-1.59068">
        <ele>4.8</ele>
        <time>2020-06-15T07:21:23Z</time>
      </trkpt>
      <trkpt lat="49.64176" lon="-1.59062">
        <ele>4.8</ele>
        <time>2020-06-15T07:21:24Z</time>
      </trkpt>
      <trkpt lat="49.64178" lon="-1.59053">
        <ele>4.8</ele>
        <time>2020-06-15T07:21:25Z</time>
      </trkpt>
      <trkpt lat="49.6418" lon="-1.59046">
        <ele>4.8</ele>
        <time>2020-06-15T07:21:26Z</time>
      </trkpt>
      <trkpt lat="49.6418" lon="-1.59041">
        <ele>4.8</ele>
        <time>2020-06-15T07:21:27Z</time>
      </trkpt>
      <trkpt lat="49.64181" lon="-1.59032">
        <ele>4.8</ele>
        <time>2020-06-15T07:21:28Z</time>
      </trkpt>
      <trkpt lat="49.64182" lon="-1.59025">
        <ele>4.8</ele>
        <time>2020-06-15T07:21:29Z</time>
      </trkpt>
      <trkpt lat="49.64183" lon="-1.59017">
        <ele>4.8</ele>
        <time>2020-06-15T07:21:30Z</time>
      </trkpt>
      <trkpt lat="49.64184" lon="-1.59007">
        <ele>4.8</ele>
        <time>2020-06-15T07:21:31Z</time>
      </trkpt>
      <trkpt lat="49.64186" lon="-1.58998">
        <ele>4.8</ele>
        <time>2020-06-15T07:21:32Z</time>
      </trkpt>
      <trkpt lat="49.64187" lon="-1.5899">
        <ele>4.9</ele>
        <time>2020-06-15T07:21:33Z</time>
      </trkpt>
      <trkpt lat="49.64189" lon="-1.58982">
        <ele>4.9</ele>
        <time>2020-06-15T07:21:34Z</time>
      </trkpt>
      <trkpt lat="49.6419" lon="-1.58973">
        <ele>4.9</ele>
        <time>2020-06-15T07:21:35Z</time>
      </trkpt>
      <trkpt lat="49.64191" lon="-1.58962">
        <ele>4.9</ele>
        <time>2020-06-15T07:21:36Z</time>
      </trkpt>
      <trkpt lat="49.64192" lon="-1.58958">
        <ele>4.9</ele>
        <time>2020-06-15T07:21:37Z</time>
      </trkpt>
      <trkpt lat="49.64192" lon="-1.5895">
        <ele>4.9</ele>
        <time>2020-06-15T07:21:38Z</time>
      </trkpt>
      <trkpt lat="49.64193" lon="-1.58942">
        <ele>5</ele>
        <time>2020-06-15T07:21:39Z</time>
      </trkpt>
      <trkpt lat="49.64194" lon="-1.58933">
        <ele>5</ele>
        <time>2020-06-15T07:21:40Z</time>
      </trkpt>
      <trkpt lat="49.64196" lon="-1.58925">
        <ele>5</ele>
        <time>2020-06-15T07:21:41Z</time>
      </trkpt>
      <trkpt lat="49.64197" lon="-1.58918">
        <ele>5.1</ele>
        <time>2020-06-15T07:21:42Z</time>
      </trkpt>
      <trkpt lat="49.64198" lon="-1.58912">
        <ele>5.1</ele>
        <time>2020-06-15T07:21:43Z</time>
      </trkpt>
      <trkpt lat="49.642" lon="-1.58905">
        <ele>5.1</ele>
        <time>2020-06-15T07:21:44Z</time>
      </trkpt>
      <trkpt lat="49.64201" lon="-1.58898">
        <ele>5.1</ele>
        <time>2020-06-15T07:21:45Z</time>
      </trkpt>
      <trkpt lat="49.64202" lon="-1.58891">
        <ele>5.2</ele>
        <time>2020-06-15T07:21:46Z</time>
      </trkpt>
      <trkpt lat="49.64203" lon="-1.58884">
        <ele>5.2</ele>
        <time>2020-06-15T07:21:47Z</time>
      </trkpt>
      <trkpt lat="49.64203" lon="-1.58878">
        <ele>5.2</ele>
        <time>2020-06-15T07:21:48Z</time>
      </trkpt>
      <trkpt lat="49.64204" lon="-1.58873">
        <ele>5.2</ele>
        <time>2020-06-15T07:21:49Z</time>
      </trkpt>
      <trkpt lat="49.64205" lon="-1.58869">
        <ele>5.3</ele>
        <time>2020-06-15T07:21:50Z</time>
      </trkpt>
      <trkpt lat="49.64206" lon="-1.58866">
        <ele>5.3</ele>
        <time>2020-06-15T07:21:51Z</time>
      </trkpt>
      <trkpt lat="49.64205" lon="-1.58864">
        <ele>5.3</ele>
        <time>2020-06-15T07:21:52Z</time>
      </trkpt>
      <trkpt lat="49.64204" lon="-1.58863">
        <ele>5.3</ele>
        <time>2020-06-15T07:21:53Z</time>
      </trkpt>
      <trkpt lat="49.64205" lon="-1.58862">
        <ele>5.3</ele>
        <time>2020-06-15T07:21:54Z</time>
      </trkpt>
      <trkpt lat="49.64205" lon="-1.58861">
        <ele>5.3</ele>
        <time>2020-06-15T07:21:55Z</time>
      </trkpt>
      <trkpt lat="49.64205" lon="-1.58861">
        <ele>5.3</ele>
        <time>2020-06-15T07:21:56Z</time>
      </trkpt>
      <trkpt lat="49.64205" lon="-1.5886">
        <ele>5.3</ele>
        <time>2020-06-15T07:21:57Z</time>
      </trkpt>
      <trkpt lat="49.64205" lon="-1.5886">
        <ele>5.3</ele>
        <time>2020-06-15T07:21:58Z</time>
      </trkpt>
      <trkpt lat="49.64206" lon="-1.58859">
        <ele>5.3</ele>
        <time>2020-06-15T07:21:59Z</time>
      </trkpt>
      <trkpt lat="49.64206" lon="-1.58858">
        <ele>5.3</ele>
        <time>2020-06-15T07:22:00Z</time>
      </trkpt>
      <trkpt lat="49.64206" lon="-1.58858">
        <ele>5.4</ele>
        <time>2020-06-15T07:22:01Z</time>
      </trkpt>
      <trkpt lat="49.64206" lon="-1.58853">
        <ele>5.4</ele>
        <time>2020-06-15T07:22:02Z</time>
      </trkpt>
      <trkpt lat="49.64207" lon="-1.58851">
        <ele>5.4</ele>
        <time>2020-06-15T07:22:03Z</time>
      </trkpt>
      <trkpt lat="49.64209" lon="-1.58847">
        <ele>5.4</ele>
        <time>2020-06-15T07:22:04Z</time>
      </trkpt>
      <trkpt lat="49.6421" lon="-1.58845">
        <ele>5.4</ele>
        <time>2020-06-15T07:22:05Z</time>
      </trkpt>
      <trkpt lat="49.64212" lon="-1.58841">
        <ele>5.4</ele>
        <time>2020-06-15T07:22:06Z</time>
      </trkpt>
      <trkpt lat="49.64215" lon="-1.58834">
        <ele>5.5</ele>
        <time>2020-06-15T07:22:07Z</time>
      </trkpt>
      <trkpt lat="49.64217" lon="-1.58831">
        <ele>5.5</ele>
        <time>2020-06-15T07:22:08Z</time>
      </trkpt>
      <trkpt lat="49.6422" lon="-1.58828">
        <ele>5.5</ele>
        <time>2020-06-15T07:22:09Z</time>
      </trkpt>
      <trkpt lat="49.64222" lon="-1.58825">
        <ele>5.4</ele>
        <time>2020-06-15T07:22:10Z</time>
      </trkpt>
      <trkpt lat="49.64225" lon="-1.58823">
        <ele>5.4</ele>
        <time>2020-06-15T07:22:11Z</time>
      </trkpt>
      <trkpt lat="49.6423" lon="-1.58823">
        <ele>5.4</ele>
        <time>2020-06-15T07:22:12Z</time>
      </trkpt>
      <trkpt lat="49.64235" lon="-1.58824">
        <ele>5.3</ele>
        <time>2020-06-15T07:22:13Z</time>
      </trkpt>
      <trkpt lat="49.64241" lon="-1.58826">
        <ele>5.3</ele>
        <time>2020-06-15T07:22:14Z</time>
      </trkpt>
      <trkpt lat="49.64246" lon="-1.58829">
        <ele>5.3</ele>
        <time>2020-06-15T07:22:15Z</time>
      </trkpt>
      <trkpt lat="49.6425" lon="-1.58832">
        <ele>5.3</ele>
        <time>2020-06-15T07:22:16Z</time>
      </trkpt>
      <trkpt lat="49.64255" lon="-1.58835">
        <ele>5.3</ele>
        <time>2020-06-15T07:22:17Z</time>
      </trkpt>
      <trkpt lat="49.6426" lon="-1.58838">
        <ele>5.3</ele>
        <time>2020-06-15T07:22:18Z</time>
      </trkpt>
      <trkpt lat="49.64265" lon="-1.58841">
        <ele>5.3</ele>
        <time>2020-06-15T07:22:19Z</time>
      </trkpt>
      <trkpt lat="49.6427" lon="-1.58844">
        <ele>5.2</ele>
        <time>2020-06-15T07:22:20Z</time>
      </trkpt>
      <trkpt lat="49.64276" lon="-1.58847">
        <ele>5.1</ele>
        <time>2020-06-15T07:22:21Z</time>
      </trkpt>
      <trkpt lat="49.64281" lon="-1.5885">
        <ele>5</ele>
        <time>2020-06-15T07:22:22Z</time>
      </trkpt>
      <trkpt lat="49.64287" lon="-1.58854">
        <ele>5</ele>
        <time>2020-06-15T07:22:23Z</time>
      </trkpt>
      <trkpt lat="49.64292" lon="-1.58857">
        <ele>4.9</ele>
        <time>2020-06-15T07:22:24Z</time>
      </trkpt>
      <trkpt lat="49.64297" lon="-1.5886">
        <ele>4.8</ele>
        <time>2020-06-15T07:22:25Z</time>
      </trkpt>
      <trkpt lat="49.64303" lon="-1.58862">
        <ele>4.8</ele>
        <time>2020-06-15T07:22:26Z</time>
      </trkpt>
      <trkpt lat="49.64308" lon="-1.58865">
        <ele>4.7</ele>
        <time>2020-06-15T07:22:27Z</time>
      </trkpt>
      <trkpt lat="49.64311" lon="-1.58867">
        <ele>4.7</ele>
        <time>2020-06-15T07:22:28Z</time>
      </trkpt>
      <trkpt lat="49.64316" lon="-1.58869">
        <ele>4.6</ele>
        <time>2020-06-15T07:22:29Z</time>
      </trkpt>
      <trkpt lat="49.64321" lon="-1.58873">
        <ele>4.6</ele>
        <time>2020-06-15T07:22:30Z</time>
      </trkpt>
      <trkpt lat="49.64327" lon="-1.58875">
        <ele>4.6</ele>
        <time>2020-06-15T07:22:31Z</time>
      </trkpt>
      <trkpt lat="49.64332" lon="-1.58878">
        <ele>4.5</ele>
        <time>2020-06-15T07:22:32Z</time>
      </trkpt>
      <trkpt lat="49.64337" lon="-1.58881">
        <ele>4.5</ele>
        <time>2020-06-15T07:22:33Z</time>
      </trkpt>
      <trkpt lat="49.64342" lon="-1.58884">
        <ele>4.5</ele>
        <time>2020-06-15T07:22:34Z</time>
      </trkpt>
      <trkpt lat="49.64347" lon="-1.58887">
        <ele>4.4</ele>
        <time>2020-06-15T07:22:35Z</time>
      </trkpt>
      <trkpt lat="49.6435" lon="-1.58889">
        <ele>4.4</ele>
        <time>2020-06-15T07:22:36Z</time>
      </trkpt>
      <trkpt lat="49.64356" lon="-1.58893">
        <ele>4.3</ele>
        <time>2020-06-15T07:22:37Z</time>
      </trkpt>
      <trkpt lat="49.64361" lon="-1.58897">
        <ele>4.3</ele>
        <time>2020-06-15T07:22:38Z</time>
      </trkpt>
      <trkpt lat="49.64366" lon="-1.589">
        <ele>4.3</ele>
        <time>2020-06-15T07:22:39Z</time>
      </trkpt>
      <trkpt lat="49.64371" lon="-1.58902">
        <ele>4.2</ele>
        <time>2020-06-15T07:22:40Z</time>
      </trkpt>
      <trkpt lat="49.64376" lon="-1.58905">
        <ele>4.2</ele>
        <time>2020-06-15T07:22:41Z</time>
      </trkpt>
      <trkpt lat="49.64382" lon="-1.58908">
        <ele>4.2</ele>
        <time>2020-06-15T07:22:42Z</time>
      </trkpt>
      <trkpt lat="49.64387" lon="-1.58911">
        <ele>4.2</ele>
        <time>2020-06-15T07:22:43Z</time>
      </trkpt>
      <trkpt lat="49.64392" lon="-1.58914">
        <ele>4.2</ele>
        <time>2020-06-15T07:22:44Z</time>
      </trkpt>
      <trkpt lat="49.64396" lon="-1.58917">
        <ele>4.3</ele>
        <time>2020-06-15T07:22:45Z</time>
      </trkpt>
      <trkpt lat="49.64401" lon="-1.5892">
        <ele>4.3</ele>
        <time>2020-06-15T07:22:46Z</time>
      </trkpt>
      <trkpt lat="49.64407" lon="-1.58923">
        <ele>4.3</ele>
        <time>2020-06-15T07:22:47Z</time>
      </trkpt>
      <trkpt lat="49.64412" lon="-1.58926">
        <ele>4.4</ele>
        <time>2020-06-15T07:22:48Z</time>
      </trkpt>
      <trkpt lat="49.64417" lon="-1.5893">
        <ele>4.4</ele>
        <time>2020-06-15T07:22:49Z</time>
      </trkpt>
      <trkpt lat="49.64423" lon="-1.58933">
        <ele>4.4</ele>
        <time>2020-06-15T07:22:50Z</time>
      </trkpt>
      <trkpt lat="49.64428" lon="-1.58937">
        <ele>4.4</ele>
        <time>2020-06-15T07:22:51Z</time>
      </trkpt>
      <trkpt lat="49.64433" lon="-1.5894">
        <ele>4.3</ele>
        <time>2020-06-15T07:22:52Z</time>
      </trkpt>
      <trkpt lat="49.64438" lon="-1.58944">
        <ele>4.3</ele>
        <time>2020-06-15T07:22:53Z</time>
      </trkpt>
      <trkpt lat="49.64442" lon="-1.58947">
        <ele>4.3</ele>
        <time>2020-06-15T07:22:54Z</time>
      </trkpt>
      <trkpt lat="49.64447" lon="-1.58951">
        <ele>4.2</ele>
        <time>2020-06-15T07:22:55Z</time>
      </trkpt>
      <trkpt lat="49.64452" lon="-1.58954">
        <ele>4.2</ele>
        <time>2020-06-15T07:22:56Z</time>
      </trkpt>
      <trkpt lat="49.64458" lon="-1.58957">
        <ele>4.2</ele>
        <time>2020-06-15T07:22:57Z</time>
      </trkpt>
      <trkpt lat="49.64464" lon="-1.5896">
        <ele>4.1</ele>
        <time>2020-06-15T07:22:58Z</time>
      </trkpt>
      <trkpt lat="49.6447" lon="-1.58964">
        <ele>4.1</ele>
        <time>2020-06-15T07:22:59Z</time>
      </trkpt>
      <trkpt lat="49.64476" lon="-1.58967">
        <ele>4</ele>
        <time>2020-06-15T07:23:00Z</time>
      </trkpt>
      <trkpt lat="49.64481" lon="-1.5897">
        <ele>4</ele>
        <time>2020-06-15T07:23:01Z</time>
      </trkpt>
      <trkpt lat="49.64487" lon="-1.58974">
        <ele>4</ele>
        <time>2020-06-15T07:23:02Z</time>
      </trkpt>
      <trkpt lat="49.64491" lon="-1.58976">
        <ele>4</ele>
        <time>2020-06-15T07:23:03Z</time>
      </trkpt>
      <trkpt lat="49.64497" lon="-1.58978">
        <ele>4</ele>
        <time>2020-06-15T07:23:04Z</time>
      </trkpt>
      <trkpt lat="49.64502" lon="-1.5898">
        <ele>4</ele>
        <time>2020-06-15T07:23:05Z</time>
      </trkpt>
      <trkpt lat="49.64508" lon="-1.58983">
        <ele>4</ele>
        <time>2020-06-15T07:23:06Z</time>
      </trkpt>
      <trkpt lat="49.64514" lon="-1.58986">
        <ele>4.1</ele>
        <time>2020-06-15T07:23:07Z</time>
      </trkpt>
      <trkpt lat="49.64518" lon="-1.58989">
        <ele>4.1</ele>
        <time>2020-06-15T07:23:08Z</time>
      </trkpt>
      <trkpt lat="49.64524" lon="-1.58991">
        <ele>4.1</ele>
        <time>2020-06-15T07:23:09Z</time>
      </trkpt>
      <trkpt lat="49.6453" lon="-1.58994">
        <ele>4.1</ele>
        <time>2020-06-15T07:23:10Z</time>
      </trkpt>
      <trkpt lat="49.64535" lon="-1.58997">
        <ele>4.2</ele>
        <time>2020-06-15T07:23:11Z</time>
      </trkpt>
      <trkpt lat="49.64539" lon="-1.59001">
        <ele>4.2</ele>
        <time>2020-06-15T07:23:12Z</time>
      </trkpt>
      <trkpt lat="49.64544" lon="-1.59004">
        <ele>4.2</ele>
        <time>2020-06-15T07:23:13Z</time>
      </trkpt>
      <trkpt lat="49.6455" lon="-1.59008">
        <ele>4.2</ele>
        <time>2020-06-15T07:23:14Z</time>
      </trkpt>
      <trkpt lat="49.64555" lon="-1.59011">
        <ele>4.3</ele>
        <time>2020-06-15T07:23:15Z</time>
      </trkpt>
      <trkpt lat="49.64559" lon="-1.59014">
        <ele>4.3</ele>
        <time>2020-06-15T07:23:16Z</time>
      </trkpt>
      <trkpt lat="49.64564" lon="-1.59016">
        <ele>4.3</ele>
        <time>2020-06-15T07:23:17Z</time>
      </trkpt>
      <trkpt lat="49.6457" lon="-1.59019">
        <ele>4.4</ele>
        <time>2020-06-15T07:23:18Z</time>
      </trkpt>
      <trkpt lat="49.64574" lon="-1.59022">
        <ele>4.4</ele>
        <time>2020-06-15T07:23:19Z</time>
      </trkpt>
      <trkpt lat="49.6458" lon="-1.59023">
        <ele>4.5</ele>
        <time>2020-06-15T07:23:20Z</time>
      </trkpt>
      <trkpt lat="49.64585" lon="-1.59026">
        <ele>4.5</ele>
        <time>2020-06-15T07:23:21Z</time>
      </trkpt>
      <trkpt lat="49.6459" lon="-1.59029">
        <ele>4.5</ele>
        <time>2020-06-15T07:23:22Z</time>
      </trkpt>
      <trkpt lat="49.64594" lon="-1.59032">
        <ele>4.6</ele>
        <time>2020-06-15T07:23:23Z</time>
      </trkpt>
      <trkpt lat="49.64598" lon="-1.59035">
        <ele>4.6</ele>
        <time>2020-06-15T07:23:24Z</time>
      </trkpt>
      <trkpt lat="49.64603" lon="-1.59038">
        <ele>4.7</ele>
        <time>2020-06-15T07:23:25Z</time>
      </trkpt>
      <trkpt lat="49.64607" lon="-1.59042">
        <ele>4.7</ele>
        <time>2020-06-15T07:23:26Z</time>
      </trkpt>
      <trkpt lat="49.64611" lon="-1.59044">
        <ele>4.8</ele>
        <time>2020-06-15T07:23:27Z</time>
      </trkpt>
      <trkpt lat="49.64616" lon="-1.59046">
        <ele>4.8</ele>
        <time>2020-06-15T07:23:28Z</time>
      </trkpt>
      <trkpt lat="49.6462" lon="-1.59047">
        <ele>4.9</ele>
        <time>2020-06-15T07:23:29Z</time>
      </trkpt>
      <trkpt lat="49.64625" lon="-1.5905">
        <ele>4.9</ele>
        <time>2020-06-15T07:23:30Z</time>
      </trkpt>
      <trkpt lat="49.64631" lon="-1.59053">
        <ele>5</ele>
        <time>2020-06-15T07:23:31Z</time>
      </trkpt>
      <trkpt lat="49.64636" lon="-1.59056">
        <ele>5</ele>
        <time>2020-06-15T07:23:32Z</time>
      </trkpt>
      <trkpt lat="49.6464" lon="-1.59058">
        <ele>5</ele>
        <time>2020-06-15T07:23:33Z</time>
      </trkpt>
      <trkpt lat="49.64646" lon="-1.59058">
        <ele>5.1</ele>
        <time>2020-06-15T07:23:34Z</time>
      </trkpt>
      <trkpt lat="49.64652" lon="-1.59054">
        <ele>5</ele>
        <time>2020-06-15T07:23:35Z</time>
      </trkpt>
      <trkpt lat="49.64655" lon="-1.59044">
        <ele>5</ele>
        <time>2020-06-15T07:23:36Z</time>
      </trkpt>
      <trkpt lat="49.64659" lon="-1.59035">
        <ele>4.9</ele>
        <time>2020-06-15T07:23:37Z</time>
      </trkpt>
      <trkpt lat="49.64661" lon="-1.59027">
        <ele>4.9</ele>
        <time>2020-06-15T07:23:38Z</time>
      </trkpt>
      <trkpt lat="49.64664" lon="-1.5902">
        <ele>4.8</ele>
        <time>2020-06-15T07:23:39Z</time>
      </trkpt>
      <trkpt lat="49.64668" lon="-1.59012">
        <ele>4.8</ele>
        <time>2020-06-15T07:23:40Z</time>
      </trkpt>
      <trkpt lat="49.64671" lon="-1.59004">
        <ele>4.8</ele>
        <time>2020-06-15T07:23:41Z</time>
      </trkpt>
      <trkpt lat="49.64674" lon="-1.58996">
        <ele>4.8</ele>
        <time>2020-06-15T07:23:42Z</time>
      </trkpt>
      <trkpt lat="49.64676" lon="-1.58987">
        <ele>4.8</ele>
        <time>2020-06-15T07:23:43Z</time>
      </trkpt>
      <trkpt lat="49.64679" lon="-1.58978">
        <ele>4.8</ele>
        <time>2020-06-15T07:23:44Z</time>
      </trkpt>
      <trkpt lat="49.64682" lon="-1.5897">
        <ele>4.8</ele>
        <time>2020-06-15T07:23:45Z</time>
      </trkpt>
      <trkpt lat="49.64685" lon="-1.58962">
        <ele>4.8</ele>
        <time>2020-06-15T07:23:46Z</time>
      </trkpt>
      <trkpt lat="49.64687" lon="-1.58955">
        <ele>4.9</ele>
        <time>2020-06-15T07:23:47Z</time>
      </trkpt>
      <trkpt lat="49.6469" lon="-1.58948">
        <ele>4.9</ele>
        <time>2020-06-15T07:23:48Z</time>
      </trkpt>
      <trkpt lat="49.64693" lon="-1.5894">
        <ele>4.9</ele>
        <time>2020-06-15T07:23:49Z</time>
      </trkpt>
      <trkpt lat="49.64696" lon="-1.58933">
        <ele>4.9</ele>
        <time>2020-06-15T07:23:50Z</time>
      </trkpt>
      <trkpt lat="49.64699" lon="-1.58925">
        <ele>4.9</ele>
        <time>2020-06-15T07:23:51Z</time>
      </trkpt>
      <trkpt lat="49.64701" lon="-1.58918">
        <ele>4.9</ele>
        <time>2020-06-15T07:23:52Z</time>
      </trkpt>
      <trkpt lat="49.64704" lon="-1.58911">
        <ele>4.9</ele>
        <time>2020-06-15T07:23:53Z</time>
      </trkpt>
      <trkpt lat="49.64707" lon="-1.58905">
        <ele>4.9</ele>
        <time>2020-06-15T07:23:54Z</time>
      </trkpt>
      <trkpt lat="49.6471" lon="-1.58899">
        <ele>4.8</ele>
        <time>2020-06-15T07:23:55Z</time>
      </trkpt>
      <trkpt lat="49.64713" lon="-1.58892">
        <ele>4.8</ele>
        <time>2020-06-15T07:23:56Z</time>
      </trkpt>
      <trkpt lat="49.64716" lon="-1.58884">
        <ele>4.7</ele>
        <time>2020-06-15T07:23:57Z</time>
      </trkpt>
      <trkpt lat="49.64718" lon="-1.58878">
        <ele>4.7</ele>
        <time>2020-06-15T07:23:58Z</time>
      </trkpt>
      <trkpt lat="49.64721" lon="-1.58872">
        <ele>4.6</ele>
        <time>2020-06-15T07:23:59Z</time>
      </trkpt>
      <trkpt lat="49.64724" lon="-1.58865">
        <ele>4.6</ele>
        <time>2020-06-15T07:24:00Z</time>
      </trkpt>
      <trkpt lat="49.64727" lon="-1.58858">
        <ele>4.6</ele>
        <time>2020-06-15T07:24:01Z</time>
      </trkpt>
      <trkpt lat="49.6473" lon="-1.58852">
        <ele>4.5</ele>
        <time>2020-06-15T07:24:02Z</time>
      </trkpt>
      <trkpt lat="49.64733" lon="-1.58845">
        <ele>4.5</ele>
        <time>2020-06-15T07:24:03Z</time>
      </trkpt>
      <trkpt lat="49.64736" lon="-1.58837">
        <ele>4.5</ele>
        <time>2020-06-15T07:24:04Z</time>
      </trkpt>
      <trkpt lat="49.64739" lon="-1.5883">
        <ele>4.5</ele>
        <time>2020-06-15T07:24:05Z</time>
      </trkpt>
      <trkpt lat="49.64742" lon="-1.58824">
        <ele>4.5</ele>
        <time>2020-06-15T07:24:06Z</time>
      </trkpt>
      <trkpt lat="49.64745" lon="-1.58817">
        <ele>4.5</ele>
        <time>2020-06-15T07:24:07Z</time>
      </trkpt>
      <trkpt lat="49.64749" lon="-1.5881">
        <ele>4.5</ele>
        <time>2020-06-15T07:24:08Z</time>
      </trkpt>
      <trkpt lat="49.64753" lon="-1.58803">
        <ele>4.5</ele>
        <time>2020-06-15T07:24:09Z</time>
      </trkpt>
      <trkpt lat="49.64757" lon="-1.58796">
        <ele>4.4</ele>
        <time>2020-06-15T07:24:10Z</time>
      </trkpt>
      <trkpt lat="49.6476" lon="-1.58789">
        <ele>4.4</ele>
        <time>2020-06-15T07:24:11Z</time>
      </trkpt>
      <trkpt lat="49.64763" lon="-1.58783">
        <ele>4.4</ele>
        <time>2020-06-15T07:24:12Z</time>
      </trkpt>
      <trkpt lat="49.64766" lon="-1.58775">
        <ele>4.3</ele>
        <time>2020-06-15T07:24:13Z</time>
      </trkpt>
      <trkpt lat="49.64768" lon="-1.58768">
        <ele>4.3</ele>
        <time>2020-06-15T07:24:14Z</time>
      </trkpt>
      <trkpt lat="49.64771" lon="-1.58761">
        <ele>4.2</ele>
        <time>2020-06-15T07:24:15Z</time>
      </trkpt>
      <trkpt lat="49.64773" lon="-1.58755">
        <ele>4.2</ele>
        <time>2020-06-15T07:24:16Z</time>
      </trkpt>
      <trkpt lat="49.64775" lon="-1.58748">
        <ele>4.2</ele>
        <time>2020-06-15T07:24:17Z</time>
      </trkpt>
      <trkpt lat="49.64778" lon="-1.5874">
        <ele>4.2</ele>
        <time>2020-06-15T07:24:18Z</time>
      </trkpt>
      <trkpt lat="49.64781" lon="-1.58732">
        <ele>4.1</ele>
        <time>2020-06-15T07:24:19Z</time>
      </trkpt>
      <trkpt lat="49.64784" lon="-1.58724">
        <ele>4.1</ele>
        <time>2020-06-15T07:24:20Z</time>
      </trkpt>
      <trkpt lat="49.64787" lon="-1.58716">
        <ele>4.1</ele>
        <time>2020-06-15T07:24:21Z</time>
      </trkpt>
      <trkpt lat="49.6479" lon="-1.5871">
        <ele>4</ele>
        <time>2020-06-15T07:24:22Z</time>
      </trkpt>
      <trkpt lat="49.64793" lon="-1.58702">
        <ele>4</ele>
        <time>2020-06-15T07:24:23Z</time>
      </trkpt>
      <trkpt lat="49.64796" lon="-1.58693">
        <ele>4</ele>
        <time>2020-06-15T07:24:24Z</time>
      </trkpt>
      <trkpt lat="49.64798" lon="-1.58686">
        <ele>3.9</ele>
        <time>2020-06-15T07:24:25Z</time>
      </trkpt>
      <trkpt lat="49.64801" lon="-1.58678">
        <ele>3.9</ele>
        <time>2020-06-15T07:24:26Z</time>
      </trkpt>
      <trkpt lat="49.64804" lon="-1.58672">
        <ele>3.9</ele>
        <time>2020-06-15T07:24:27Z</time>
      </trkpt>
      <trkpt lat="49.64807" lon="-1.58665">
        <ele>3.9</ele>
        <time>2020-06-15T07:24:28Z</time>
      </trkpt>
      <trkpt lat="49.64808" lon="-1.5866">
        <ele>3.8</ele>
        <time>2020-06-15T07:24:29Z</time>
      </trkpt>
      <trkpt lat="49.64811" lon="-1.58655">
        <ele>3.8</ele>
        <time>2020-06-15T07:24:30Z</time>
      </trkpt>
      <trkpt lat="49.64813" lon="-1.58649">
        <ele>3.8</ele>
        <time>2020-06-15T07:24:31Z</time>
      </trkpt>
      <trkpt lat="49.64815" lon="-1.58643">
        <ele>3.8</ele>
        <time>2020-06-15T07:24:32Z</time>
      </trkpt>
      <trkpt lat="49.64818" lon="-1.58638">
        <ele>3.8</ele>
        <time>2020-06-15T07:24:33Z</time>
      </trkpt>
      <trkpt lat="49.64819" lon="-1.58634">
        <ele>3.7</ele>
        <time>2020-06-15T07:24:34Z</time>
      </trkpt>
      <trkpt lat="49.64822" lon="-1.58628">
        <ele>3.7</ele>
        <time>2020-06-15T07:24:35Z</time>
      </trkpt>
      <trkpt lat="49.64824" lon="-1.58623">
        <ele>3.7</ele>
        <time>2020-06-15T07:24:36Z</time>
      </trkpt>
      <trkpt lat="49.64825" lon="-1.58621">
        <ele>3.7</ele>
        <time>2020-06-15T07:24:37Z</time>
      </trkpt>
      <trkpt lat="49.64828" lon="-1.58618">
        <ele>3.7</ele>
        <time>2020-06-15T07:24:38Z</time>
      </trkpt>
      <trkpt lat="49.64832" lon="-1.58619">
        <ele>3.6</ele>
        <time>2020-06-15T07:24:39Z</time>
      </trkpt>
      <trkpt lat="49.64833" lon="-1.5862">
        <ele>3.6</ele>
        <time>2020-06-15T07:24:40Z</time>
      </trkpt>
      <trkpt lat="49.64839" lon="-1.58623">
        <ele>3.6</ele>
        <time>2020-06-15T07:24:41Z</time>
      </trkpt>
      <trkpt lat="49.64845" lon="-1.58626">
        <ele>3.6</ele>
        <time>2020-06-15T07:24:42Z</time>
      </trkpt>
      <trkpt lat="49.64849" lon="-1.5863">
        <ele>3.6</ele>
        <time>2020-06-15T07:24:43Z</time>
      </trkpt>
      <trkpt lat="49.64855" lon="-1.58633">
        <ele>3.6</ele>
        <time>2020-06-15T07:24:44Z</time>
      </trkpt>
      <trkpt lat="49.64859" lon="-1.58635">
        <ele>3.6</ele>
        <time>2020-06-15T07:24:45Z</time>
      </trkpt>
      <trkpt lat="49.64862" lon="-1.58638">
        <ele>3.5</ele>
        <time>2020-06-15T07:24:46Z</time>
      </trkpt>
      <trkpt lat="49.64867" lon="-1.58642">
        <ele>3.5</ele>
        <time>2020-06-15T07:24:47Z</time>
      </trkpt>
      <trkpt lat="49.64871" lon="-1.58645">
        <ele>3.5</ele>
        <time>2020-06-15T07:24:48Z</time>
      </trkpt>
      <trkpt lat="49.64873" lon="-1.58647">
        <ele>3.5</ele>
        <time>2020-06-15T07:24:49Z</time>
      </trkpt>
      <trkpt lat="49.64877" lon="-1.5865">
        <ele>3.5</ele>
        <time>2020-06-15T07:24:50Z</time>
      </trkpt>
      <trkpt lat="49.6488" lon="-1.58652">
        <ele>3.5</ele>
        <time>2020-06-15T07:24:51Z</time>
      </trkpt>
      <trkpt lat="49.64883" lon="-1.58655">
        <ele>3.5</ele>
        <time>2020-06-15T07:24:52Z</time>
      </trkpt>
      <trkpt lat="49.64887" lon="-1.58657">
        <ele>3.5</ele>
        <time>2020-06-15T07:24:53Z</time>
      </trkpt>
      <trkpt lat="49.64891" lon="-1.58659">
        <ele>3.5</ele>
        <time>2020-06-15T07:24:54Z</time>
      </trkpt>
      <trkpt lat="49.64892" lon="-1.5866">
        <ele>3.5</ele>
        <time>2020-06-15T07:24:55Z</time>
      </trkpt>
      <trkpt lat="49.64893" lon="-1.5866">
        <ele>3.5</ele>
        <time>2020-06-15T07:24:56Z</time>
      </trkpt>
      <trkpt lat="49.64894" lon="-1.58661">
        <ele>3.5</ele>
        <time>2020-06-15T07:24:57Z</time>
      </trkpt>
      <trkpt lat="49.64895" lon="-1.58662">
        <ele>3.5</ele>
        <time>2020-06-15T07:24:58Z</time>
      </trkpt>
      <trkpt lat="49.64895" lon="-1.58664">
        <ele>3.5</ele>
        <time>2020-06-15T07:24:59Z</time>
      </trkpt>
      <trkpt lat="49.64895" lon="-1.58664">
        <ele>3.5</ele>
        <time>2020-06-15T07:25:00Z</time>
      </trkpt>
      <trkpt lat="49.64895" lon="-1.58662">
        <ele>3.5</ele>
        <time>2020-06-15T07:25:01Z</time>
      </trkpt>
      <trkpt lat="49.64895" lon="-1.58663">
        <ele>3.5</ele>
        <time>2020-06-15T07:25:02Z</time>
      </trkpt>
      <trkpt lat="49.64895" lon="-1.58664">
        <ele>3.5</ele>
        <time>2020-06-15T07:25:03Z</time>
      </trkpt>
      <trkpt lat="49.64895" lon="-1.58664">
        <ele>3.5</ele>
        <time>2020-06-15T07:25:04Z</time>
      </trkpt>
      <trkpt lat="49.64895" lon="-1.58666">
        <ele>3.5</ele>
        <time>2020-06-15T07:25:05Z</time>
      </trkpt>
      <trkpt lat="49.64895" lon="-1.58665">
        <ele>3.5</ele>
        <time>2020-06-15T07:25:06Z</time>
      </trkpt>
      <trkpt lat="49.64894" lon="-1.58664">
        <ele>3.5</ele>
        <time>2020-06-15T07:25:07Z</time>
      </trkpt>
      <trkpt lat="49.64894" lon="-1.58664">
        <ele>3.5</ele>
        <time>2020-06-15T07:25:08Z</time>
      </trkpt>
      <trkpt lat="49.64894" lon="-1.58664">
        <ele>3.5</ele>
        <time>2020-06-15T07:25:09Z</time>
      </trkpt>
      <trkpt lat="49.64894" lon="-1.58664">
        <ele>3.5</ele>
        <time>2020-06-15T07:25:10Z</time>
      </trkpt>
      <trkpt lat="49.64904" lon="-1.58667">
        <ele>3.4</ele>
        <time>2020-06-15T07:27:31Z</time>
      </trkpt>
      <trkpt lat="49.64907" lon="-1.58668">
        <ele>3.4</ele>
        <time>2020-06-15T07:27:32Z</time>
      </trkpt>
      <trkpt lat="49.6491" lon="-1.5867">
        <ele>3.4</ele>
        <time>2020-06-15T07:27:33Z</time>
      </trkpt>
      <trkpt lat="49.64913" lon="-1.58671">
        <ele>3.4</ele>
        <time>2020-06-15T07:27:34Z</time>
      </trkpt>
      <trkpt lat="49.64915" lon="-1.58671">
        <ele>3.4</ele>
        <time>2020-06-15T07:27:35Z</time>
      </trkpt>
      <trkpt lat="49.64917" lon="-1.58668">
        <ele>3.4</ele>
        <time>2020-06-15T07:27:36Z</time>
      </trkpt>
      <trkpt lat="49.64918" lon="-1.58662">
        <ele>3.4</ele>
        <time>2020-06-15T07:27:37Z</time>
      </trkpt>
      <trkpt lat="49.6492" lon="-1.58655">
        <ele>3.4</ele>
        <time>2020-06-15T07:27:38Z</time>
      </trkpt>
      <trkpt lat="49.64921" lon="-1.58649">
        <ele>3.4</ele>
        <time>2020-06-15T07:27:39Z</time>
      </trkpt>
      <trkpt lat="49.64923" lon="-1.58645">
        <ele>3.4</ele>
        <time>2020-06-15T07:27:40Z</time>
      </trkpt>
      <trkpt lat="49.64924" lon="-1.58639">
        <ele>3.4</ele>
        <time>2020-06-15T07:27:41Z</time>
      </trkpt>
      <trkpt lat="49.64925" lon="-1.58637">
        <ele>3.4</ele>
        <time>2020-06-15T07:27:42Z</time>
      </trkpt>
      <trkpt lat="49.64927" lon="-1.5863">
        <ele>3.4</ele>
        <time>2020-06-15T07:27:43Z</time>
      </trkpt>
      <trkpt lat="49.64929" lon="-1.58625">
        <ele>3.4</ele>
        <time>2020-06-15T07:27:44Z</time>
      </trkpt>
      <trkpt lat="49.6493" lon="-1.58621">
        <ele>3.4</ele>
        <time>2020-06-15T07:27:45Z</time>
      </trkpt>
      <trkpt lat="49.64931" lon="-1.58616">
        <ele>3.4</ele>
        <time>2020-06-15T07:27:46Z</time>
      </trkpt>
      <trkpt lat="49.64932" lon="-1.5861">
        <ele>3.4</ele>
        <time>2020-06-15T07:27:47Z</time>
      </trkpt>
      <trkpt lat="49.64934" lon="-1.58605">
        <ele>3.4</ele>
        <time>2020-06-15T07:27:48Z</time>
      </trkpt>
      <trkpt lat="49.64934" lon="-1.58602">
        <ele>3.4</ele>
        <time>2020-06-15T07:27:49Z</time>
      </trkpt>
      <trkpt lat="49.64936" lon="-1.58597">
        <ele>3.4</ele>
        <time>2020-06-15T07:27:50Z</time>
      </trkpt>
      <trkpt lat="49.64938" lon="-1.58592">
        <ele>3.4</ele>
        <time>2020-06-15T07:27:51Z</time>
      </trkpt>
      <trkpt lat="49.64939" lon="-1.58586">
        <ele>3.4</ele>
        <time>2020-06-15T07:27:52Z</time>
      </trkpt>
      <trkpt lat="49.64941" lon="-1.5858">
        <ele>3.3</ele>
        <time>2020-06-15T07:27:53Z</time>
      </trkpt>
      <trkpt lat="49.64942" lon="-1.58573">
        <ele>3.3</ele>
        <time>2020-06-15T07:27:54Z</time>
      </trkpt>
      <trkpt lat="49.64944" lon="-1.58568">
        <ele>3.3</ele>
        <time>2020-06-15T07:27:55Z</time>
      </trkpt>
      <trkpt lat="49.64945" lon="-1.58563">
        <ele>3.3</ele>
        <time>2020-06-15T07:27:56Z</time>
      </trkpt>
      <trkpt lat="49.64947" lon="-1.58557">
        <ele>3.3</ele>
        <time>2020-06-15T07:27:57Z</time>
      </trkpt>
      <trkpt lat="49.64948" lon="-1.58551">
        <ele>3.3</ele>
        <time>2020-06-15T07:27:58Z</time>
      </trkpt>
      <trkpt lat="49.64948" lon="-1.58549">
        <ele>3.3</ele>
        <time>2020-06-15T07:27:59Z</time>
      </trkpt>
      <trkpt lat="49.6495" lon="-1.58545">
        <ele>3.3</ele>
        <time>2020-06-15T07:28:00Z</time>
      </trkpt>
      <trkpt lat="49.6495" lon="-1.58543">
        <ele>3.3</ele>
        <time>2020-06-15T07:28:01Z</time>
      </trkpt>
      <trkpt lat="49.64951" lon="-1.58542">
        <ele>3.3</ele>
        <time>2020-06-15T07:28:02Z</time>
      </trkpt>
      <trkpt lat="49.64951" lon="-1.5854">
        <ele>3.3</ele>
        <time>2020-06-15T07:28:03Z</time>
      </trkpt>
      <trkpt lat="49.64952" lon="-1.58539">
        <ele>3.3</ele>
        <time>2020-06-15T07:28:04Z</time>
      </trkpt>
      <trkpt lat="49.64956" lon="-1.58542">
        <ele>3.3</ele>
        <time>2020-06-15T07:28:05Z</time>
      </trkpt>
      <trkpt lat="49.64958" lon="-1.58544">
        <ele>3.3</ele>
        <time>2020-06-15T07:28:06Z</time>
      </trkpt>
      <trkpt lat="49.64962" lon="-1.58546">
        <ele>3.3</ele>
        <time>2020-06-15T07:28:07Z</time>
      </trkpt>
      <trkpt lat="49.64966" lon="-1.58549">
        <ele>3.4</ele>
        <time>2020-06-15T07:28:08Z</time>
      </trkpt>
      <trkpt lat="49.64971" lon="-1.58552">
        <ele>3.4</ele>
        <time>2020-06-15T07:28:09Z</time>
      </trkpt>
      <trkpt lat="49.64974" lon="-1.58555">
        <ele>3.4</ele>
        <time>2020-06-15T07:28:10Z</time>
      </trkpt>
      <trkpt lat="49.64978" lon="-1.58558">
        <ele>3.4</ele>
        <time>2020-06-15T07:28:11Z</time>
      </trkpt>
      <trkpt lat="49.64983" lon="-1.58561">
        <ele>3.5</ele>
        <time>2020-06-15T07:28:12Z</time>
      </trkpt>
      <trkpt lat="49.64988" lon="-1.58564">
        <ele>3.6</ele>
        <time>2020-06-15T07:28:13Z</time>
      </trkpt>
      <trkpt lat="49.64992" lon="-1.58567">
        <ele>3.6</ele>
        <time>2020-06-15T07:28:14Z</time>
      </trkpt>
      <trkpt lat="49.64996" lon="-1.5857">
        <ele>3.7</ele>
        <time>2020-06-15T07:28:15Z</time>
      </trkpt>
      <trkpt lat="49.65" lon="-1.58573">
        <ele>3.7</ele>
        <time>2020-06-15T07:28:16Z</time>
      </trkpt>
      <trkpt lat="49.65004" lon="-1.58577">
        <ele>3.8</ele>
        <time>2020-06-15T07:28:17Z</time>
      </trkpt>
      <trkpt lat="49.65007" lon="-1.58579">
        <ele>3.9</ele>
        <time>2020-06-15T07:28:18Z</time>
      </trkpt>
      <trkpt lat="49.65012" lon="-1.58581">
        <ele>3.9</ele>
        <time>2020-06-15T07:28:19Z</time>
      </trkpt>
      <trkpt lat="49.65017" lon="-1.5858">
        <ele>3.8</ele>
        <time>2020-06-15T07:28:20Z</time>
      </trkpt>
      <trkpt lat="49.65021" lon="-1.58573">
        <ele>3.8</ele>
        <time>2020-06-15T07:28:21Z</time>
      </trkpt>
      <trkpt lat="49.65026" lon="-1.58567">
        <ele>3.8</ele>
        <time>2020-06-15T07:28:22Z</time>
      </trkpt>
      <trkpt lat="49.65029" lon="-1.58562">
        <ele>3.8</ele>
        <time>2020-06-15T07:28:23Z</time>
      </trkpt>
      <trkpt lat="49.65032" lon="-1.58556">
        <ele>3.8</ele>
        <time>2020-06-15T07:28:24Z</time>
      </trkpt>
      <trkpt lat="49.65035" lon="-1.5855">
        <ele>3.8</ele>
        <time>2020-06-15T07:28:25Z</time>
      </trkpt>
      <trkpt lat="49.65039" lon="-1.58543">
        <ele>3.8</ele>
        <time>2020-06-15T07:28:26Z</time>
      </trkpt>
      <trkpt lat="49.65042" lon="-1.58537">
        <ele>3.8</ele>
        <time>2020-06-15T07:28:27Z</time>
      </trkpt>
      <trkpt lat="49.65046" lon="-1.58531">
        <ele>3.8</ele>
        <time>2020-06-15T07:28:28Z</time>
      </trkpt>
      <trkpt lat="49.6505" lon="-1.58525">
        <ele>3.8</ele>
        <time>2020-06-15T07:28:29Z</time>
      </trkpt>
      <trkpt lat="49.65053" lon="-1.58518">
        <ele>3.8</ele>
        <time>2020-06-15T07:28:30Z</time>
      </trkpt>
      <trkpt lat="49.65056" lon="-1.58511">
        <ele>3.8</ele>
        <time>2020-06-15T07:28:31Z</time>
      </trkpt>
      <trkpt lat="49.65059" lon="-1.58504">
        <ele>3.7</ele>
        <time>2020-06-15T07:28:32Z</time>
      </trkpt>
      <trkpt lat="49.65063" lon="-1.58498">
        <ele>3.7</ele>
        <time>2020-06-15T07:28:33Z</time>
      </trkpt>
      <trkpt lat="49.65066" lon="-1.58492">
        <ele>3.7</ele>
        <time>2020-06-15T07:28:34Z</time>
      </trkpt>
      <trkpt lat="49.65069" lon="-1.58486">
        <ele>3.6</ele>
        <time>2020-06-15T07:28:35Z</time>
      </trkpt>
      <trkpt lat="49.65073" lon="-1.5848">
        <ele>3.6</ele>
        <time>2020-06-15T07:28:36Z</time>
      </trkpt>
      <trkpt lat="49.65076" lon="-1.58473">
        <ele>3.6</ele>
        <time>2020-06-15T07:28:37Z</time>
      </trkpt>
      <trkpt lat="49.65079" lon="-1.58466">
        <ele>3.5</ele>
        <time>2020-06-15T07:28:38Z</time>
      </trkpt>
      <trkpt lat="49.65083" lon="-1.58459">
        <ele>3.5</ele>
        <time>2020-06-15T07:28:39Z</time>
      </trkpt>
      <trkpt lat="49.65087" lon="-1.58451">
        <ele>3.5</ele>
        <time>2020-06-15T07:28:40Z</time>
      </trkpt>
      <trkpt lat="49.6509" lon="-1.58444">
        <ele>3.5</ele>
        <time>2020-06-15T07:28:41Z</time>
      </trkpt>
      <trkpt lat="49.65093" lon="-1.58437">
        <ele>3.5</ele>
        <time>2020-06-15T07:28:42Z</time>
      </trkpt>
      <trkpt lat="49.65095" lon="-1.58431">
        <ele>3.4</ele>
        <time>2020-06-15T07:28:43Z</time>
      </trkpt>
      <trkpt lat="49.65098" lon="-1.58425">
        <ele>3.4</ele>
        <time>2020-06-15T07:28:44Z</time>
      </trkpt>
      <trkpt lat="49.65101" lon="-1.58419">
        <ele>3.4</ele>
        <time>2020-06-15T07:28:45Z</time>
      </trkpt>
      <trkpt lat="49.65105" lon="-1.58412">
        <ele>3.3</ele>
        <time>2020-06-15T07:28:46Z</time>
      </trkpt>
      <trkpt lat="49.65108" lon="-1.58406">
        <ele>3.3</ele>
        <time>2020-06-15T07:28:47Z</time>
      </trkpt>
      <trkpt lat="49.65111" lon="-1.58402">
        <ele>3.3</ele>
        <time>2020-06-15T07:28:48Z</time>
      </trkpt>
      <trkpt lat="49.65113" lon="-1.58399">
        <ele>3.3</ele>
        <time>2020-06-15T07:28:49Z</time>
      </trkpt>
      <trkpt lat="49.65116" lon="-1.58399">
        <ele>3.2</ele>
        <time>2020-06-15T07:28:50Z</time>
      </trkpt>
      <trkpt lat="49.65117" lon="-1.584">
        <ele>3.2</ele>
        <time>2020-06-15T07:28:51Z</time>
      </trkpt>
      <trkpt lat="49.65119" lon="-1.58402">
        <ele>3.2</ele>
        <time>2020-06-15T07:28:52Z</time>
      </trkpt>
      <trkpt lat="49.6512" lon="-1.58403">
        <ele>3.2</ele>
        <time>2020-06-15T07:28:53Z</time>
      </trkpt>
      <trkpt lat="49.65123" lon="-1.58406">
        <ele>3.2</ele>
        <time>2020-06-15T07:28:54Z</time>
      </trkpt>
      <trkpt lat="49.65124" lon="-1.58407">
        <ele>3.2</ele>
        <time>2020-06-15T07:28:55Z</time>
      </trkpt>
      <trkpt lat="49.65126" lon="-1.58409">
        <ele>3.2</ele>
        <time>2020-06-15T07:28:56Z</time>
      </trkpt>
      <trkpt lat="49.65129" lon="-1.58412">
        <ele>3.2</ele>
        <time>2020-06-15T07:28:57Z</time>
      </trkpt>
      <trkpt lat="49.65133" lon="-1.58415">
        <ele>3.2</ele>
        <time>2020-06-15T07:28:58Z</time>
      </trkpt>
      <trkpt lat="49.65137" lon="-1.58417">
        <ele>3.2</ele>
        <time>2020-06-15T07:28:59Z</time>
      </trkpt>
      <trkpt lat="49.6514" lon="-1.58419">
        <ele>3.2</ele>
        <time>2020-06-15T07:29:00Z</time>
      </trkpt>
      <trkpt lat="49.65143" lon="-1.58422">
        <ele>3.2</ele>
        <time>2020-06-15T07:29:01Z</time>
      </trkpt>
      <trkpt lat="49.65146" lon="-1.58426">
        <ele>3.2</ele>
        <time>2020-06-15T07:29:02Z</time>
      </trkpt>
      <trkpt lat="49.65149" lon="-1.5843">
        <ele>3.2</ele>
        <time>2020-06-15T07:29:03Z</time>
      </trkpt>
      <trkpt lat="49.65152" lon="-1.58433">
        <ele>3.2</ele>
        <time>2020-06-15T07:29:04Z</time>
      </trkpt>
      <trkpt lat="49.65155" lon="-1.58435">
        <ele>3.2</ele>
        <time>2020-06-15T07:29:05Z</time>
      </trkpt>
      <trkpt lat="49.65158" lon="-1.58436">
        <ele>3.2</ele>
        <time>2020-06-15T07:29:06Z</time>
      </trkpt>
      <trkpt lat="49.65162" lon="-1.58436">
        <ele>3.2</ele>
        <time>2020-06-15T07:29:07Z</time>
      </trkpt>
      <trkpt lat="49.65165" lon="-1.58436">
        <ele>3.3</ele>
        <time>2020-06-15T07:29:08Z</time>
      </trkpt>
      <trkpt lat="49.65168" lon="-1.58435">
        <ele>3.3</ele>
        <time>2020-06-15T07:29:09Z</time>
      </trkpt>
      <trkpt lat="49.65171" lon="-1.58433">
        <ele>3.3</ele>
        <time>2020-06-15T07:29:10Z</time>
      </trkpt>
      <trkpt lat="49.65172" lon="-1.58433">
        <ele>3.3</ele>
        <time>2020-06-15T07:29:11Z</time>
      </trkpt>
      <trkpt lat="49.65173" lon="-1.58433">
        <ele>3.3</ele>
        <time>2020-06-15T07:29:12Z</time>
      </trkpt>
      <trkpt lat="49.65175" lon="-1.58433">
        <ele>3.3</ele>
        <time>2020-06-15T07:29:13Z</time>
      </trkpt>
      <trkpt lat="49.65177" lon="-1.58432">
        <ele>3.3</ele>
        <time>2020-06-15T07:29:14Z</time>
      </trkpt>
      <trkpt lat="49.65178" lon="-1.58432">
        <ele>3.3</ele>
        <time>2020-06-15T07:29:15Z</time>
      </trkpt>
      <trkpt lat="49.65179" lon="-1.58433">
        <ele>3.3</ele>
        <time>2020-06-15T07:29:16Z</time>
      </trkpt>
      <trkpt lat="49.6518" lon="-1.58433">
        <ele>3.3</ele>
        <time>2020-06-15T07:29:17Z</time>
      </trkpt>
      <trkpt lat="49.6518" lon="-1.58434">
        <ele>3.3</ele>
        <time>2020-06-15T07:29:18Z</time>
      </trkpt>
      <trkpt lat="49.6518" lon="-1.58434">
        <ele>3.3</ele>
        <time>2020-06-15T07:29:19Z</time>
      </trkpt>
      <trkpt lat="49.65181" lon="-1.58434">
        <ele>3.3</ele>
        <time>2020-06-15T07:29:20Z</time>
      </trkpt>
      <trkpt lat="49.65181" lon="-1.58435">
        <ele>3.3</ele>
        <time>2020-06-15T07:29:21Z</time>
      </trkpt>
      <trkpt lat="49.65181" lon="-1.58435">
        <ele>3.3</ele>
        <time>2020-06-15T07:29:22Z</time>
      </trkpt>
      <trkpt lat="49.65181" lon="-1.58436">
        <ele>3.4</ele>
        <time>2020-06-15T07:29:23Z</time>
      </trkpt>
      <trkpt lat="49.65182" lon="-1.58436">
        <ele>3.4</ele>
        <time>2020-06-15T07:29:24Z</time>
      </trkpt>
      <trkpt lat="49.65182" lon="-1.58437">
        <ele>3.4</ele>
        <time>2020-06-15T07:29:25Z</time>
      </trkpt>
      <trkpt lat="49.65182" lon="-1.58437">
        <ele>3.4</ele>
        <time>2020-06-15T07:29:26Z</time>
      </trkpt>
      <trkpt lat="49.65183" lon="-1.58438">
        <ele>3.4</ele>
        <time>2020-06-15T07:30:21Z</time>
      </trkpt>
      <trkpt lat="49.65183" lon="-1.58438">
        <ele>3.4</ele>
        <time>2020-06-15T07:30:22Z</time>
      </trkpt>
      <trkpt lat="49.65187" lon="-1.5844">
        <ele>3.4</ele>
        <time>2020-06-15T07:30:23Z</time>
      </trkpt>
      <trkpt lat="49.65188" lon="-1.5844">
        <ele>3.4</ele>
        <time>2020-06-15T07:30:24Z</time>
      </trkpt>
      <trkpt lat="49.65191" lon="-1.58441">
        <ele>3.4</ele>
        <time>2020-06-15T07:30:25Z</time>
      </trkpt>
      <trkpt lat="49.65192" lon="-1.58442">
        <ele>3.4</ele>
        <time>2020-06-15T07:30:26Z</time>
      </trkpt>
      <trkpt lat="49.65193" lon="-1.58442">
        <ele>3.4</ele>
        <time>2020-06-15T07:30:27Z</time>
      </trkpt>
      <trkpt lat="49.65195" lon="-1.58443">
        <ele>3.4</ele>
        <time>2020-06-15T07:30:28Z</time>
      </trkpt>
      <trkpt lat="49.65197" lon="-1.58443">
        <ele>3.4</ele>
        <time>2020-06-15T07:30:29Z</time>
      </trkpt>
      <trkpt lat="49.65198" lon="-1.58443">
        <ele>3.4</ele>
        <time>2020-06-15T07:30:30Z</time>
      </trkpt>
      <trkpt lat="49.65199" lon="-1.58443">
        <ele>3.4</ele>
        <time>2020-06-15T07:30:31Z</time>
      </trkpt>
      <trkpt lat="49.652" lon="-1.58444">
        <ele>3.4</ele>
        <time>2020-06-15T07:30:32Z</time>
      </trkpt>
      <trkpt lat="49.65201" lon="-1.58445">
        <ele>3.4</ele>
        <time>2020-06-15T07:30:33Z</time>
      </trkpt>
      <trkpt lat="49.65202" lon="-1.58446">
        <ele>3.4</ele>
        <time>2020-06-15T07:30:34Z</time>
      </trkpt>
      <trkpt lat="49.65204" lon="-1.58448">
        <ele>3.4</ele>
        <time>2020-06-15T07:30:35Z</time>
      </trkpt>
      <trkpt lat="49.65205" lon="-1.58449">
        <ele>3.4</ele>
        <time>2020-06-15T07:30:36Z</time>
      </trkpt>
      <trkpt lat="49.65207" lon="-1.58449">
        <ele>3.4</ele>
        <time>2020-06-15T07:30:37Z</time>
      </trkpt>
      <trkpt lat="49.65209" lon="-1.58448">
        <ele>3.4</ele>
        <time>2020-06-15T07:30:38Z</time>
      </trkpt>
      <trkpt lat="49.65209" lon="-1.58448">
        <ele>3.4</ele>
        <time>2020-06-15T07:30:39Z</time>
      </trkpt>
      <trkpt lat="49.6521" lon="-1.58449">
        <ele>3.4</ele>
        <time>2020-06-15T07:30:40Z</time>
      </trkpt>
      <trkpt lat="49.65212" lon="-1.5845">
        <ele>3.4</ele>
        <time>2020-06-15T07:30:41Z</time>
      </trkpt>
      <trkpt lat="49.65214" lon="-1.58453">
        <ele>3.4</ele>
        <time>2020-06-15T07:30:42Z</time>
      </trkpt>
      <trkpt lat="49.65215" lon="-1.58455">
        <ele>3.4</ele>
        <time>2020-06-15T07:30:43Z</time>
      </trkpt>
      <trkpt lat="49.65217" lon="-1.58459">
        <ele>3.4</ele>
        <time>2020-06-15T07:30:44Z</time>
      </trkpt>
      <trkpt lat="49.65218" lon="-1.58461">
        <ele>3.4</ele>
        <time>2020-06-15T07:30:45Z</time>
      </trkpt>
      <trkpt lat="49.65222" lon="-1.58466">
        <ele>3.4</ele>
        <time>2020-06-15T07:30:46Z</time>
      </trkpt>
      <trkpt lat="49.65227" lon="-1.58469">
        <ele>3.4</ele>
        <time>2020-06-15T07:30:47Z</time>
      </trkpt>
      <trkpt lat="49.65231" lon="-1.58472">
        <ele>3.4</ele>
        <time>2020-06-15T07:30:48Z</time>
      </trkpt>
      <trkpt lat="49.65235" lon="-1.58474">
        <ele>3.4</ele>
        <time>2020-06-15T07:30:49Z</time>
      </trkpt>
      <trkpt lat="49.65238" lon="-1.58477">
        <ele>3.4</ele>
        <time>2020-06-15T07:30:50Z</time>
      </trkpt>
      <trkpt lat="49.65242" lon="-1.58479">
        <ele>3.4</ele>
        <time>2020-06-15T07:30:51Z</time>
      </trkpt>
      <trkpt lat="49.65244" lon="-1.58481">
        <ele>3.4</ele>
        <time>2020-06-15T07:30:52Z</time>
      </trkpt>
      <trkpt lat="49.65247" lon="-1.58483">
        <ele>3.4</ele>
        <time>2020-06-15T07:30:53Z</time>
      </trkpt>
      <trkpt lat="49.6525" lon="-1.58486">
        <ele>3.4</ele>
        <time>2020-06-15T07:30:54Z</time>
      </trkpt>
      <trkpt lat="49.65253" lon="-1.58489">
        <ele>3.5</ele>
        <time>2020-06-15T07:30:55Z</time>
      </trkpt>
      <trkpt lat="49.65256" lon="-1.5849">
        <ele>3.5</ele>
        <time>2020-06-15T07:30:56Z</time>
      </trkpt>
      <trkpt lat="49.65259" lon="-1.58491">
        <ele>3.5</ele>
        <time>2020-06-15T07:30:57Z</time>
      </trkpt>
      <trkpt lat="49.65262" lon="-1.58492">
        <ele>3.5</ele>
        <time>2020-06-15T07:30:58Z</time>
      </trkpt>
      <trkpt lat="49.65265" lon="-1.58494">
        <ele>3.5</ele>
        <time>2020-06-15T07:30:59Z</time>
      </trkpt>
      <trkpt lat="49.65267" lon="-1.58497">
        <ele>3.5</ele>
        <time>2020-06-15T07:31:00Z</time>
      </trkpt>
      <trkpt lat="49.65269" lon="-1.58501">
        <ele>3.5</ele>
        <time>2020-06-15T07:31:01Z</time>
      </trkpt>
      <trkpt lat="49.65271" lon="-1.58504">
        <ele>3.5</ele>
        <time>2020-06-15T07:31:02Z</time>
      </trkpt>
      <trkpt lat="49.65273" lon="-1.58508">
        <ele>3.5</ele>
        <time>2020-06-15T07:31:03Z</time>
      </trkpt>
      <trkpt lat="49.65276" lon="-1.58511">
        <ele>3.5</ele>
        <time>2020-06-15T07:31:04Z</time>
      </trkpt>
      <trkpt lat="49.65279" lon="-1.58514">
        <ele>3.5</ele>
        <time>2020-06-15T07:31:05Z</time>
      </trkpt>
      <trkpt lat="49.6528" lon="-1.58516">
        <ele>3.5</ele>
        <time>2020-06-15T07:31:06Z</time>
      </trkpt>
      <trkpt lat="49.65282" lon="-1.58519">
        <ele>3.5</ele>
        <time>2020-06-15T07:31:07Z</time>
      </trkpt>
      <trkpt lat="49.65285" lon="-1.58521">
        <ele>3.6</ele>
        <time>2020-06-15T07:31:08Z</time>
      </trkpt>
      <trkpt lat="49.65288" lon="-1.58522">
        <ele>3.6</ele>
        <time>2020-06-15T07:31:09Z</time>
      </trkpt>
      <trkpt lat="49.65291" lon="-1.58525">
        <ele>3.6</ele>
        <time>2020-06-15T07:31:10Z</time>
      </trkpt>
      <trkpt lat="49.65294" lon="-1.58528">
        <ele>3.7</ele>
        <time>2020-06-15T07:31:11Z</time>
      </trkpt>
      <trkpt lat="49.65298" lon="-1.58532">
        <ele>3.7</ele>
        <time>2020-06-15T07:31:12Z</time>
      </trkpt>
      <trkpt lat="49.653" lon="-1.58536">
        <ele>3.8</ele>
        <time>2020-06-15T07:31:13Z</time>
      </trkpt>
      <trkpt lat="49.65302" lon="-1.58539">
        <ele>3.8</ele>
        <time>2020-06-15T07:31:14Z</time>
      </trkpt>
      <trkpt lat="49.65305" lon="-1.58542">
        <ele>3.8</ele>
        <time>2020-06-15T07:31:15Z</time>
      </trkpt>
      <trkpt lat="49.65307" lon="-1.58545">
        <ele>3.8</ele>
        <time>2020-06-15T07:31:16Z</time>
      </trkpt>
      <trkpt lat="49.65308" lon="-1.58549">
        <ele>3.8</ele>
        <time>2020-06-15T07:31:17Z</time>
      </trkpt>
      <trkpt lat="49.6531" lon="-1.58552">
        <ele>3.8</ele>
        <time>2020-06-15T07:31:18Z</time>
      </trkpt>
      <trkpt lat="49.65313" lon="-1.58555">
        <ele>3.8</ele>
        <time>2020-06-15T07:31:19Z</time>
      </trkpt>
      <trkpt lat="49.65313" lon="-1.58556">
        <ele>3.8</ele>
        <time>2020-06-15T07:31:20Z</time>
      </trkpt>
      <trkpt lat="49.65316" lon="-1.58559">
        <ele>3.8</ele>
        <time>2020-06-15T07:31:21Z</time>
      </trkpt>
      <trkpt lat="49.65319" lon="-1.5856">
        <ele>3.8</ele>
        <time>2020-06-15T07:31:22Z</time>
      </trkpt>
      <trkpt lat="49.6532" lon="-1.58561">
        <ele>3.8</ele>
        <time>2020-06-15T07:31:23Z</time>
      </trkpt>
      <trkpt lat="49.65321" lon="-1.58561">
        <ele>3.8</ele>
        <time>2020-06-15T07:31:24Z</time>
      </trkpt>
      <trkpt lat="49.65322" lon="-1.58562">
        <ele>3.9</ele>
        <time>2020-06-15T07:31:25Z</time>
      </trkpt>
      <trkpt lat="49.65323" lon="-1.58563">
        <ele>3.9</ele>
        <time>2020-06-15T07:31:26Z</time>
      </trkpt>
      <trkpt lat="49.65322" lon="-1.58563">
        <ele>3.9</ele>
        <time>2020-06-15T07:31:27Z</time>
      </trkpt>
      <trkpt lat="49.65322" lon="-1.58563">
        <ele>3.9</ele>
        <time>2020-06-15T07:31:28Z</time>
      </trkpt>
      <trkpt lat="49.65321" lon="-1.58562">
        <ele>3.9</ele>
        <time>2020-06-15T07:31:29Z</time>
      </trkpt>
      <trkpt lat="49.65321" lon="-1.58562">
        <ele>3.9</ele>
        <time>2020-06-15T07:31:30Z</time>
      </trkpt>
      <trkpt lat="49.65321" lon="-1.58561">
        <ele>3.9</ele>
        <time>2020-06-15T07:31:31Z</time>
      </trkpt>
      <trkpt lat="49.6532" lon="-1.58561">
        <ele>3.9</ele>
        <time>2020-06-15T07:31:32Z</time>
      </trkpt>
      <trkpt lat="49.6532" lon="-1.58561">
        <ele>3.9</ele>
        <time>2020-06-15T07:31:33Z</time>
      </trkpt>
      <trkpt lat="49.65319" lon="-1.5856">
        <ele>3.9</ele>
        <time>2020-06-15T07:31:34Z</time>
      </trkpt>
      <trkpt lat="49.65319" lon="-1.5856">
        <ele>3.9</ele>
        <time>2020-06-15T07:31:35Z</time>
      </trkpt>
      <trkpt lat="49.65318" lon="-1.5856">
        <ele>3.9</ele>
        <time>2020-06-15T07:31:36Z</time>
      </trkpt>
      <trkpt lat="49.65318" lon="-1.58559">
        <ele>3.9</ele>
        <time>2020-06-15T07:31:37Z</time>
      </trkpt>
      <trkpt lat="49.65317" lon="-1.58559">
        <ele>3.9</ele>
        <time>2020-06-15T07:38:03Z</time>
      </trkpt>
      <trkpt lat="49.65317" lon="-1.58559">
        <ele>3.9</ele>
        <time>2020-06-15T07:38:04Z</time>
      </trkpt>
      <trkpt lat="49.65316" lon="-1.58558">
        <ele>3.9</ele>
        <time>2020-06-15T07:38:05Z</time>
      </trkpt>
      <trkpt lat="49.65313" lon="-1.58556">
        <ele>3.9</ele>
        <time>2020-06-15T07:38:06Z</time>
      </trkpt>
      <trkpt lat="49.65312" lon="-1.58555">
        <ele>3.9</ele>
        <time>2020-06-15T07:38:07Z</time>
      </trkpt>
      <trkpt lat="49.6531" lon="-1.58551">
        <ele>3.8</ele>
        <time>2020-06-15T07:38:08Z</time>
      </trkpt>
      <trkpt lat="49.65309" lon="-1.5855">
        <ele>3.8</ele>
        <time>2020-06-15T07:38:09Z</time>
      </trkpt>
      <trkpt lat="49.65306" lon="-1.58548">
        <ele>3.8</ele>
        <time>2020-06-15T07:38:10Z</time>
      </trkpt>
      <trkpt lat="49.65304" lon="-1.58546">
        <ele>3.8</ele>
        <time>2020-06-15T07:38:11Z</time>
      </trkpt>
      <trkpt lat="49.65302" lon="-1.58543">
        <ele>3.8</ele>
        <time>2020-06-15T07:38:12Z</time>
      </trkpt>
      <trkpt lat="49.653" lon="-1.5854">
        <ele>3.8</ele>
        <time>2020-06-15T07:38:13Z</time>
      </trkpt>
      <trkpt lat="49.65296" lon="-1.58537">
        <ele>3.8</ele>
        <time>2020-06-15T07:38:14Z</time>
      </trkpt>
      <trkpt lat="49.65295" lon="-1.58536">
        <ele>3.8</ele>
        <time>2020-06-15T07:38:15Z</time>
      </trkpt>
      <trkpt lat="49.65292" lon="-1.58533">
        <ele>3.8</ele>
        <time>2020-06-15T07:38:16Z</time>
      </trkpt>
      <trkpt lat="49.65291" lon="-1.58532">
        <ele>3.8</ele>
        <time>2020-06-15T07:38:17Z</time>
      </trkpt>
      <trkpt lat="49.65288" lon="-1.58529">
        <ele>3.7</ele>
        <time>2020-06-15T07:38:18Z</time>
      </trkpt>
      <trkpt lat="49.65286" lon="-1.58525">
        <ele>3.7</ele>
        <time>2020-06-15T07:38:19Z</time>
      </trkpt>
      <trkpt lat="49.65283" lon="-1.58522">
        <ele>3.7</ele>
        <time>2020-06-15T07:38:20Z</time>
      </trkpt>
      <trkpt lat="49.6528" lon="-1.5852">
        <ele>3.6</ele>
        <time>2020-06-15T07:38:21Z</time>
      </trkpt>
      <trkpt lat="49.65277" lon="-1.58517">
        <ele>3.6</ele>
        <time>2020-06-15T07:38:22Z</time>
      </trkpt>
      <trkpt lat="49.65275" lon="-1.58514">
        <ele>3.5</ele>
        <time>2020-06-15T07:38:23Z</time>
      </trkpt>
      <trkpt lat="49.65272" lon="-1.58512">
        <ele>3.5</ele>
        <time>2020-06-15T07:38:24Z</time>
      </trkpt>
      <trkpt lat="49.65269" lon="-1.58509">
        <ele>3.5</ele>
        <time>2020-06-15T07:38:25Z</time>
      </trkpt>
      <trkpt lat="49.65267" lon="-1.58506">
        <ele>3.5</ele>
        <time>2020-06-15T07:38:26Z</time>
      </trkpt>
      <trkpt lat="49.65264" lon="-1.58504">
        <ele>3.5</ele>
        <time>2020-06-15T07:38:27Z</time>
      </trkpt>
      <trkpt lat="49.65262" lon="-1.58501">
        <ele>3.5</ele>
        <time>2020-06-15T07:38:28Z</time>
      </trkpt>
      <trkpt lat="49.65259" lon="-1.58498">
        <ele>3.5</ele>
        <time>2020-06-15T07:38:29Z</time>
      </trkpt>
      <trkpt lat="49.65257" lon="-1.58495">
        <ele>3.5</ele>
        <time>2020-06-15T07:38:30Z</time>
      </trkpt>
      <trkpt lat="49.65254" lon="-1.58492">
        <ele>3.5</ele>
        <time>2020-06-15T07:38:31Z</time>
      </trkpt>
      <trkpt lat="49.65252" lon="-1.58489">
        <ele>3.5</ele>
        <time>2020-06-15T07:38:32Z</time>
      </trkpt>
      <trkpt lat="49.65249" lon="-1.58486">
        <ele>3.5</ele>
        <time>2020-06-15T07:38:33Z</time>
      </trkpt>
      <trkpt lat="49.65246" lon="-1.58483">
        <ele>3.4</ele>
        <time>2020-06-15T07:38:34Z</time>
      </trkpt>
      <trkpt lat="49.65244" lon="-1.5848">
        <ele>3.4</ele>
        <time>2020-06-15T07:38:35Z</time>
      </trkpt>
      <trkpt lat="49.65241" lon="-1.58477">
        <ele>3.4</ele>
        <time>2020-06-15T07:38:36Z</time>
      </trkpt>
      <trkpt lat="49.65239" lon="-1.58473">
        <ele>3.4</ele>
        <time>2020-06-15T07:38:37Z</time>
      </trkpt>
      <trkpt lat="49.65237" lon="-1.5847">
        <ele>3.4</ele>
        <time>2020-06-15T07:38:38Z</time>
      </trkpt>
      <trkpt lat="49.65234" lon="-1.58468">
        <ele>3.4</ele>
        <time>2020-06-15T07:38:39Z</time>
      </trkpt>
      <trkpt lat="49.65233" lon="-1.58464">
        <ele>3.4</ele>
        <time>2020-06-15T07:38:40Z</time>
      </trkpt>
      <trkpt lat="49.65231" lon="-1.58459">
        <ele>3.4</ele>
        <time>2020-06-15T07:38:41Z</time>
      </trkpt>
      <trkpt lat="49.65232" lon="-1.58455">
        <ele>3.4</ele>
        <time>2020-06-15T07:38:42Z</time>
      </trkpt>
      <trkpt lat="49.65232" lon="-1.5845">
        <ele>3.4</ele>
        <time>2020-06-15T07:38:43Z</time>
      </trkpt>
      <trkpt lat="49.65233" lon="-1.58445">
        <ele>3.4</ele>
        <time>2020-06-15T07:38:44Z</time>
      </trkpt>
      <trkpt lat="49.65235" lon="-1.58441">
        <ele>3.4</ele>
        <time>2020-06-15T07:38:45Z</time>
      </trkpt>
      <trkpt lat="49.65238" lon="-1.58439">
        <ele>3.4</ele>
        <time>2020-06-15T07:38:46Z</time>
      </trkpt>
      <trkpt lat="49.6524" lon="-1.58436">
        <ele>3.4</ele>
        <time>2020-06-15T07:38:47Z</time>
      </trkpt>
      <trkpt lat="49.65243" lon="-1.58433">
        <ele>3.4</ele>
        <time>2020-06-15T07:38:48Z</time>
      </trkpt>
      <trkpt lat="49.65245" lon="-1.5843">
        <ele>3.4</ele>
        <time>2020-06-15T07:38:49Z</time>
      </trkpt>
      <trkpt lat="49.65247" lon="-1.58427">
        <ele>3.4</ele>
        <time>2020-06-15T07:38:50Z</time>
      </trkpt>
      <trkpt lat="49.6525" lon="-1.58424">
        <ele>3.4</ele>
        <time>2020-06-15T07:38:51Z</time>
      </trkpt>
      <trkpt lat="49.65253" lon="-1.58421">
        <ele>3.4</ele>
        <time>2020-06-15T07:38:52Z</time>
      </trkpt>
      <trkpt lat="49.65254" lon="-1.58416">
        <ele>3.3</ele>
        <time>2020-06-15T07:38:53Z</time>
      </trkpt>
      <trkpt lat="49.65255" lon="-1.58412">
        <ele>3.3</ele>
        <time>2020-06-15T07:38:54Z</time>
      </trkpt>
      <trkpt lat="49.65257" lon="-1.58407">
        <ele>3.3</ele>
        <time>2020-06-15T07:38:55Z</time>
      </trkpt>
      <trkpt lat="49.65259" lon="-1.58401">
        <ele>3.3</ele>
        <time>2020-06-15T07:38:56Z</time>
      </trkpt>
      <trkpt lat="49.6526" lon="-1.58396">
        <ele>3.4</ele>
        <time>2020-06-15T07:38:57Z</time>
      </trkpt>
      <trkpt lat="49.65261" lon="-1.5839">
        <ele>3.4</ele>
        <time>2020-06-15T07:38:58Z</time>
      </trkpt>
      <trkpt lat="49.65263" lon="-1.58384">
        <ele>3.4</ele>
        <time>2020-06-15T07:38:59Z</time>
      </trkpt>
      <trkpt lat="49.65265" lon="-1.58379">
        <ele>3.4</ele>
        <time>2020-06-15T07:39:00Z</time>
      </trkpt>
      <trkpt lat="49.65266" lon="-1.58373">
        <ele>3.4</ele>
        <time>2020-06-15T07:39:01Z</time>
      </trkpt>
      <trkpt lat="49.65268" lon="-1.58368">
        <ele>3.5</ele>
        <time>2020-06-15T07:39:02Z</time>
      </trkpt>
      <trkpt lat="49.6527" lon="-1.58363">
        <ele>3.5</ele>
        <time>2020-06-15T07:39:03Z</time>
      </trkpt>
      <trkpt lat="49.65271" lon="-1.58357">
        <ele>3.5</ele>
        <time>2020-06-15T07:39:04Z</time>
      </trkpt>
      <trkpt lat="49.65273" lon="-1.58352">
        <ele>3.5</ele>
        <time>2020-06-15T07:39:05Z</time>
      </trkpt>
      <trkpt lat="49.65275" lon="-1.58347">
        <ele>3.5</ele>
        <time>2020-06-15T07:39:06Z</time>
      </trkpt>
      <trkpt lat="49.65276" lon="-1.58342">
        <ele>3.6</ele>
        <time>2020-06-15T07:39:07Z</time>
      </trkpt>
      <trkpt lat="49.65279" lon="-1.58337">
        <ele>3.6</ele>
        <time>2020-06-15T07:39:08Z</time>
      </trkpt>
      <trkpt lat="49.6528" lon="-1.58332">
        <ele>3.6</ele>
        <time>2020-06-15T07:39:09Z</time>
      </trkpt>
      <trkpt lat="49.65282" lon="-1.58328">
        <ele>3.6</ele>
        <time>2020-06-15T07:39:10Z</time>
      </trkpt>
      <trkpt lat="49.65284" lon="-1.58322">
        <ele>3.6</ele>
        <time>2020-06-15T07:39:11Z</time>
      </trkpt>
      <trkpt lat="49.65285" lon="-1.58317">
        <ele>3.6</ele>
        <time>2020-06-15T07:39:12Z</time>
      </trkpt>
      <trkpt lat="49.65286" lon="-1.58311">
        <ele>3.7</ele>
        <time>2020-06-15T07:39:13Z</time>
      </trkpt>
      <trkpt lat="49.65288" lon="-1.58306">
        <ele>3.7</ele>
        <time>2020-06-15T07:39:14Z</time>
      </trkpt>
      <trkpt lat="49.6529" lon="-1.58301">
        <ele>3.7</ele>
        <time>2020-06-15T07:39:15Z</time>
      </trkpt>
      <trkpt lat="49.65292" lon="-1.58296">
        <ele>3.7</ele>
        <time>2020-06-15T07:39:16Z</time>
      </trkpt>
      <trkpt lat="49.65295" lon="-1.58291">
        <ele>3.7</ele>
        <time>2020-06-15T07:39:17Z</time>
      </trkpt>
      <trkpt lat="49.65297" lon="-1.58286">
        <ele>3.7</ele>
        <time>2020-06-15T07:39:18Z</time>
      </trkpt>
      <trkpt lat="49.65299" lon="-1.58281">
        <ele>3.8</ele>
        <time>2020-06-15T07:39:19Z</time>
      </trkpt>
      <trkpt lat="49.653" lon="-1.58276">
        <ele>3.8</ele>
        <time>2020-06-15T07:39:20Z</time>
      </trkpt>
      <trkpt lat="49.65302" lon="-1.58271">
        <ele>3.8</ele>
        <time>2020-06-15T07:39:21Z</time>
      </trkpt>
      <trkpt lat="49.65304" lon="-1.58266">
        <ele>3.8</ele>
        <time>2020-06-15T07:39:22Z</time>
      </trkpt>
      <trkpt lat="49.65305" lon="-1.5826">
        <ele>3.8</ele>
        <time>2020-06-15T07:39:23Z</time>
      </trkpt>
      <trkpt lat="49.65307" lon="-1.58255">
        <ele>3.8</ele>
        <time>2020-06-15T07:39:24Z</time>
      </trkpt>
      <trkpt lat="49.65308" lon="-1.5825">
        <ele>3.8</ele>
        <time>2020-06-15T07:39:25Z</time>
      </trkpt>
      <trkpt lat="49.6531" lon="-1.58244">
        <ele>3.8</ele>
        <time>2020-06-15T07:39:26Z</time>
      </trkpt>
      <trkpt lat="49.65312" lon="-1.58238">
        <ele>3.8</ele>
        <time>2020-06-15T07:39:27Z</time>
      </trkpt>
      <trkpt lat="49.65314" lon="-1.58233">
        <ele>3.8</ele>
        <time>2020-06-15T07:39:28Z</time>
      </trkpt>
      <trkpt lat="49.65316" lon="-1.58227">
        <ele>3.8</ele>
        <time>2020-06-15T07:39:29Z</time>
      </trkpt>
      <trkpt lat="49.65317" lon="-1.58221">
        <ele>3.8</ele>
        <time>2020-06-15T07:39:30Z</time>
      </trkpt>
      <trkpt lat="49.65319" lon="-1.58214">
        <ele>3.8</ele>
        <time>2020-06-15T07:39:31Z</time>
      </trkpt>
      <trkpt lat="49.65321" lon="-1.58208">
        <ele>3.8</ele>
        <time>2020-06-15T07:39:32Z</time>
      </trkpt>
      <trkpt lat="49.65323" lon="-1.58201">
        <ele>3.8</ele>
        <time>2020-06-15T07:39:33Z</time>
      </trkpt>
      <trkpt lat="49.65324" lon="-1.58195">
        <ele>3.8</ele>
        <time>2020-06-15T07:39:34Z</time>
      </trkpt>
      <trkpt lat="49.65326" lon="-1.58188">
        <ele>3.8</ele>
        <time>2020-06-15T07:39:35Z</time>
      </trkpt>
      <trkpt lat="49.65328" lon="-1.58182">
        <ele>3.8</ele>
        <time>2020-06-15T07:39:36Z</time>
      </trkpt>
      <trkpt lat="49.65329" lon="-1.58175">
        <ele>3.8</ele>
        <time>2020-06-15T07:39:37Z</time>
      </trkpt>
      <trkpt lat="49.65331" lon="-1.58169">
        <ele>3.8</ele>
        <time>2020-06-15T07:39:38Z</time>
      </trkpt>
      <trkpt lat="49.65333" lon="-1.58162">
        <ele>3.8</ele>
        <time>2020-06-15T07:39:39Z</time>
      </trkpt>
      <trkpt lat="49.65335" lon="-1.58156">
        <ele>3.8</ele>
        <time>2020-06-15T07:39:40Z</time>
      </trkpt>
      <trkpt lat="49.65337" lon="-1.58149">
        <ele>3.8</ele>
        <time>2020-06-15T07:39:41Z</time>
      </trkpt>
      <trkpt lat="49.65339" lon="-1.58142">
        <ele>3.8</ele>
        <time>2020-06-15T07:39:42Z</time>
      </trkpt>
      <trkpt lat="49.6534" lon="-1.58135">
        <ele>3.8</ele>
        <time>2020-06-15T07:39:43Z</time>
      </trkpt>
      <trkpt lat="49.65341" lon="-1.58128">
        <ele>3.8</ele>
        <time>2020-06-15T07:39:44Z</time>
      </trkpt>
      <trkpt lat="49.65342" lon="-1.58121">
        <ele>3.8</ele>
        <time>2020-06-15T07:39:45Z</time>
      </trkpt>
      <trkpt lat="49.65343" lon="-1.58114">
        <ele>3.8</ele>
        <time>2020-06-15T07:39:46Z</time>
      </trkpt>
      <trkpt lat="49.65344" lon="-1.58107">
        <ele>3.8</ele>
        <time>2020-06-15T07:39:47Z</time>
      </trkpt>
      <trkpt lat="49.65345" lon="-1.581">
        <ele>3.8</ele>
        <time>2020-06-15T07:39:48Z</time>
      </trkpt>
      <trkpt lat="49.65345" lon="-1.58093">
        <ele>3.8</ele>
        <time>2020-06-15T07:39:49Z</time>
      </trkpt>
      <trkpt lat="49.65346" lon="-1.58086">
        <ele>3.8</ele>
        <time>2020-06-15T07:39:50Z</time>
      </trkpt>
      <trkpt lat="49.65347" lon="-1.5808">
        <ele>3.8</ele>
        <time>2020-06-15T07:39:51Z</time>
      </trkpt>
      <trkpt lat="49.65348" lon="-1.58074">
        <ele>3.8</ele>
        <time>2020-06-15T07:39:52Z</time>
      </trkpt>
      <trkpt lat="49.65349" lon="-1.58067">
        <ele>3.8</ele>
        <time>2020-06-15T07:39:53Z</time>
      </trkpt>
      <trkpt lat="49.6535" lon="-1.58061">
        <ele>3.8</ele>
        <time>2020-06-15T07:39:54Z</time>
      </trkpt>
      <trkpt lat="49.65352" lon="-1.58054">
        <ele>3.8</ele>
        <time>2020-06-15T07:39:55Z</time>
      </trkpt>
      <trkpt lat="49.65353" lon="-1.58047">
        <ele>3.8</ele>
        <time>2020-06-15T07:39:56Z</time>
      </trkpt>
      <trkpt lat="49.65354" lon="-1.5804">
        <ele>3.8</ele>
        <time>2020-06-15T07:39:57Z</time>
      </trkpt>
      <trkpt lat="49.65356" lon="-1.58033">
        <ele>3.8</ele>
        <time>2020-06-15T07:39:58Z</time>
      </trkpt>
      <trkpt lat="49.65358" lon="-1.58027">
        <ele>3.8</ele>
        <time>2020-06-15T07:39:59Z</time>
      </trkpt>
      <trkpt lat="49.65359" lon="-1.5802">
        <ele>3.8</ele>
        <time>2020-06-15T07:40:00Z</time>
      </trkpt>
      <trkpt lat="49.6536" lon="-1.58014">
        <ele>3.8</ele>
        <time>2020-06-15T07:40:01Z</time>
      </trkpt>
      <trkpt lat="49.65362" lon="-1.58007">
        <ele>3.8</ele>
        <time>2020-06-15T07:40:02Z</time>
      </trkpt>
      <trkpt lat="49.65364" lon="-1.58001">
        <ele>3.8</ele>
        <time>2020-06-15T07:40:03Z</time>
      </trkpt>
      <trkpt lat="49.65366" lon="-1.57995">
        <ele>3.8</ele>
        <time>2020-06-15T07:40:04Z</time>
      </trkpt>
      <trkpt lat="49.65367" lon="-1.57989">
        <ele>3.8</ele>
        <time>2020-06-15T07:40:05Z</time>
      </trkpt>
      <trkpt lat="49.65369" lon="-1.57983">
        <ele>3.8</ele>
        <time>2020-06-15T07:40:06Z</time>
      </trkpt>
      <trkpt lat="49.65371" lon="-1.57977">
        <ele>3.8</ele>
        <time>2020-06-15T07:40:07Z</time>
      </trkpt>
      <trkpt lat="49.65374" lon="-1.57971">
        <ele>3.8</ele>
        <time>2020-06-15T07:40:08Z</time>
      </trkpt>
      <trkpt lat="49.65376" lon="-1.57966">
        <ele>3.8</ele>
        <time>2020-06-15T07:40:09Z</time>
      </trkpt>
      <trkpt lat="49.65378" lon="-1.57959">
        <ele>3.8</ele>
        <time>2020-06-15T07:40:10Z</time>
      </trkpt>
      <trkpt lat="49.65381" lon="-1.57954">
        <ele>3.8</ele>
        <time>2020-06-15T07:40:11Z</time>
      </trkpt>
      <trkpt lat="49.65383" lon="-1.57948">
        <ele>3.7</ele>
        <time>2020-06-15T07:40:12Z</time>
      </trkpt>
      <trkpt lat="49.65386" lon="-1.57943">
        <ele>3.7</ele>
        <time>2020-06-15T07:40:13Z</time>
      </trkpt>
      <trkpt lat="49.65389" lon="-1.57938">
        <ele>3.8</ele>
        <time>2020-06-15T07:40:14Z</time>
      </trkpt>
      <trkpt lat="49.65392" lon="-1.57933">
        <ele>3.8</ele>
        <time>2020-06-15T07:40:15Z</time>
      </trkpt>
      <trkpt lat="49.65395" lon="-1.57928">
        <ele>3.8</ele>
        <time>2020-06-15T07:40:16Z</time>
      </trkpt>
      <trkpt lat="49.65398" lon="-1.57923">
        <ele>3.8</ele>
        <time>2020-06-15T07:40:17Z</time>
      </trkpt>
      <trkpt lat="49.654" lon="-1.57918">
        <ele>3.8</ele>
        <time>2020-06-15T07:40:18Z</time>
      </trkpt>
      <trkpt lat="49.65404" lon="-1.57913">
        <ele>3.8</ele>
        <time>2020-06-15T07:40:19Z</time>
      </trkpt>
      <trkpt lat="49.65408" lon="-1.57909">
        <ele>3.9</ele>
        <time>2020-06-15T07:40:20Z</time>
      </trkpt>
      <trkpt lat="49.6541" lon="-1.57904">
        <ele>3.9</ele>
        <time>2020-06-15T07:40:21Z</time>
      </trkpt>
      <trkpt lat="49.65412" lon="-1.57898">
        <ele>3.9</ele>
        <time>2020-06-15T07:40:22Z</time>
      </trkpt>
      <trkpt lat="49.65414" lon="-1.57893">
        <ele>3.8</ele>
        <time>2020-06-15T07:40:23Z</time>
      </trkpt>
      <trkpt lat="49.65416" lon="-1.57887">
        <ele>3.8</ele>
        <time>2020-06-15T07:40:24Z</time>
      </trkpt>
      <trkpt lat="49.65418" lon="-1.57881">
        <ele>3.8</ele>
        <time>2020-06-15T07:40:25Z</time>
      </trkpt>
      <trkpt lat="49.65419" lon="-1.57875">
        <ele>3.8</ele>
        <time>2020-06-15T07:40:26Z</time>
      </trkpt>
      <trkpt lat="49.65421" lon="-1.5787">
        <ele>3.8</ele>
        <time>2020-06-15T07:40:27Z</time>
      </trkpt>
      <trkpt lat="49.65422" lon="-1.57863">
        <ele>3.8</ele>
        <time>2020-06-15T07:40:28Z</time>
      </trkpt>
      <trkpt lat="49.65424" lon="-1.57857">
        <ele>3.8</ele>
        <time>2020-06-15T07:40:29Z</time>
      </trkpt>
      <trkpt lat="49.65425" lon="-1.57851">
        <ele>3.8</ele>
        <time>2020-06-15T07:40:30Z</time>
      </trkpt>
      <trkpt lat="49.65427" lon="-1.57845">
        <ele>3.8</ele>
        <time>2020-06-15T07:40:31Z</time>
      </trkpt>
      <trkpt lat="49.65427" lon="-1.57839">
        <ele>3.8</ele>
        <time>2020-06-15T07:40:32Z</time>
      </trkpt>
      <trkpt lat="49.65428" lon="-1.57832">
        <ele>3.8</ele>
        <time>2020-06-15T07:40:33Z</time>
      </trkpt>
      <trkpt lat="49.65429" lon="-1.57825">
        <ele>3.8</ele>
        <time>2020-06-15T07:40:34Z</time>
      </trkpt>
      <trkpt lat="49.65429" lon="-1.57818">
        <ele>3.8</ele>
        <time>2020-06-15T07:40:35Z</time>
      </trkpt>
      <trkpt lat="49.6543" lon="-1.57811">
        <ele>3.8</ele>
        <time>2020-06-15T07:40:36Z</time>
      </trkpt>
      <trkpt lat="49.6543" lon="-1.57803">
        <ele>3.8</ele>
        <time>2020-06-15T07:40:37Z</time>
      </trkpt>
      <trkpt lat="49.6543" lon="-1.57795">
        <ele>3.8</ele>
        <time>2020-06-15T07:40:38Z</time>
      </trkpt>
      <trkpt lat="49.65429" lon="-1.57787">
        <ele>3.8</ele>
        <time>2020-06-15T07:40:39Z</time>
      </trkpt>
      <trkpt lat="49.65429" lon="-1.57779">
        <ele>3.8</ele>
        <time>2020-06-15T07:40:40Z</time>
      </trkpt>
      <trkpt lat="49.65429" lon="-1.57771">
        <ele>3.8</ele>
        <time>2020-06-15T07:40:41Z</time>
      </trkpt>
      <trkpt lat="49.65429" lon="-1.57763">
        <ele>3.8</ele>
        <time>2020-06-15T07:40:42Z</time>
      </trkpt>
      <trkpt lat="49.65429" lon="-1.57755">
        <ele>3.8</ele>
        <time>2020-06-15T07:40:43Z</time>
      </trkpt>
      <trkpt lat="49.65429" lon="-1.57747">
        <ele>3.7</ele>
        <time>2020-06-15T07:40:44Z</time>
      </trkpt>
      <trkpt lat="49.6543" lon="-1.57739">
        <ele>3.7</ele>
        <time>2020-06-15T07:40:45Z</time>
      </trkpt>
      <trkpt lat="49.65432" lon="-1.57732">
        <ele>3.7</ele>
        <time>2020-06-15T07:40:46Z</time>
      </trkpt>
      <trkpt lat="49.65433" lon="-1.57724">
        <ele>3.7</ele>
        <time>2020-06-15T07:40:47Z</time>
      </trkpt>
      <trkpt lat="49.65434" lon="-1.57717">
        <ele>3.7</ele>
        <time>2020-06-15T07:40:48Z</time>
      </trkpt>
      <trkpt lat="49.65436" lon="-1.5771">
        <ele>3.7</ele>
        <time>2020-06-15T07:40:49Z</time>
      </trkpt>
      <trkpt lat="49.65438" lon="-1.57703">
        <ele>3.6</ele>
        <time>2020-06-15T07:40:50Z</time>
      </trkpt>
      <trkpt lat="49.6544" lon="-1.57696">
        <ele>3.6</ele>
        <time>2020-06-15T07:40:51Z</time>
      </trkpt>
      <trkpt lat="49.65442" lon="-1.57689">
        <ele>3.6</ele>
        <time>2020-06-15T07:40:52Z</time>
      </trkpt>
      <trkpt lat="49.65444" lon="-1.57682">
        <ele>3.5</ele>
        <time>2020-06-15T07:40:53Z</time>
      </trkpt>
      <trkpt lat="49.65447" lon="-1.57675">
        <ele>3.5</ele>
        <time>2020-06-15T07:40:54Z</time>
      </trkpt>
      <trkpt lat="49.65448" lon="-1.57667">
        <ele>3.5</ele>
        <time>2020-06-15T07:40:55Z</time>
      </trkpt>
      <trkpt lat="49.65451" lon="-1.5766">
        <ele>3.6</ele>
        <time>2020-06-15T07:40:56Z</time>
      </trkpt>
      <trkpt lat="49.65453" lon="-1.57653">
        <ele>3.6</ele>
        <time>2020-06-15T07:40:57Z</time>
      </trkpt>
      <trkpt lat="49.65455" lon="-1.57646">
        <ele>3.6</ele>
        <time>2020-06-15T07:40:58Z</time>
      </trkpt>
      <trkpt lat="49.65457" lon="-1.57638">
        <ele>3.6</ele>
        <time>2020-06-15T07:40:59Z</time>
      </trkpt>
      <trkpt lat="49.65459" lon="-1.5763">
        <ele>3.6</ele>
        <time>2020-06-15T07:41:00Z</time>
      </trkpt>
      <trkpt lat="49.65461" lon="-1.57622">
        <ele>3.7</ele>
        <time>2020-06-15T07:41:01Z</time>
      </trkpt>
      <trkpt lat="49.65464" lon="-1.57614">
        <ele>3.7</ele>
        <time>2020-06-15T07:41:02Z</time>
      </trkpt>
      <trkpt lat="49.65466" lon="-1.57606">
        <ele>3.7</ele>
        <time>2020-06-15T07:41:03Z</time>
      </trkpt>
      <trkpt lat="49.65469" lon="-1.57598">
        <ele>3.7</ele>
        <time>2020-06-15T07:41:04Z</time>
      </trkpt>
      <trkpt lat="49.65471" lon="-1.5759">
        <ele>3.7</ele>
        <time>2020-06-15T07:41:05Z</time>
      </trkpt>
      <trkpt lat="49.65474" lon="-1.57582">
        <ele>3.7</ele>
        <time>2020-06-15T07:41:06Z</time>
      </trkpt>
      <trkpt lat="49.65476" lon="-1.57574">
        <ele>3.8</ele>
        <time>2020-06-15T07:41:07Z</time>
      </trkpt>
      <trkpt lat="49.65479" lon="-1.57566">
        <ele>3.8</ele>
        <time>2020-06-15T07:41:08Z</time>
      </trkpt>
      <trkpt lat="49.6548" lon="-1.57557">
        <ele>3.8</ele>
        <time>2020-06-15T07:41:09Z</time>
      </trkpt>
      <trkpt lat="49.65481" lon="-1.57549">
        <ele>3.9</ele>
        <time>2020-06-15T07:41:10Z</time>
      </trkpt>
      <trkpt lat="49.65484" lon="-1.57542">
        <ele>3.9</ele>
        <time>2020-06-15T07:41:11Z</time>
      </trkpt>
      <trkpt lat="49.65486" lon="-1.57534">
        <ele>3.9</ele>
        <time>2020-06-15T07:41:12Z</time>
      </trkpt>
      <trkpt lat="49.65488" lon="-1.57527">
        <ele>3.9</ele>
        <time>2020-06-15T07:41:13Z</time>
      </trkpt>
      <trkpt lat="49.6549" lon="-1.5752">
        <ele>3.9</ele>
        <time>2020-06-15T07:41:14Z</time>
      </trkpt>
      <trkpt lat="49.65492" lon="-1.57513">
        <ele>3.9</ele>
        <time>2020-06-15T07:41:15Z</time>
      </trkpt>
      <trkpt lat="49.65494" lon="-1.57506">
        <ele>3.9</ele>
        <time>2020-06-15T07:41:16Z</time>
      </trkpt>
      <trkpt lat="49.65496" lon="-1.57499">
        <ele>3.9</ele>
        <time>2020-06-15T07:41:17Z</time>
      </trkpt>
      <trkpt lat="49.65498" lon="-1.57492">
        <ele>3.9</ele>
        <time>2020-06-15T07:41:18Z</time>
      </trkpt>
      <trkpt lat="49.65499" lon="-1.57485">
        <ele>3.8</ele>
        <time>2020-06-15T07:41:19Z</time>
      </trkpt>
      <trkpt lat="49.65502" lon="-1.57478">
        <ele>3.8</ele>
        <time>2020-06-15T07:41:20Z</time>
      </trkpt>
      <trkpt lat="49.65504" lon="-1.5747">
        <ele>3.8</ele>
        <time>2020-06-15T07:41:21Z</time>
      </trkpt>
      <trkpt lat="49.65506" lon="-1.57463">
        <ele>3.8</ele>
        <time>2020-06-15T07:41:22Z</time>
      </trkpt>
      <trkpt lat="49.65508" lon="-1.57455">
        <ele>3.8</ele>
        <time>2020-06-15T07:41:23Z</time>
      </trkpt>
      <trkpt lat="49.6551" lon="-1.57447">
        <ele>3.8</ele>
        <time>2020-06-15T07:41:24Z</time>
      </trkpt>
      <trkpt lat="49.65512" lon="-1.5744">
        <ele>3.8</ele>
        <time>2020-06-15T07:41:25Z</time>
      </trkpt>
      <trkpt lat="49.65514" lon="-1.57433">
        <ele>3.8</ele>
        <time>2020-06-15T07:41:26Z</time>
      </trkpt>
      <trkpt lat="49.65515" lon="-1.57426">
        <ele>3.8</ele>
        <time>2020-06-15T07:41:27Z</time>
      </trkpt>
      <trkpt lat="49.65517" lon="-1.57419">
        <ele>3.8</ele>
        <time>2020-06-15T07:41:28Z</time>
      </trkpt>
      <trkpt lat="49.65519" lon="-1.57412">
        <ele>3.8</ele>
        <time>2020-06-15T07:41:29Z</time>
      </trkpt>
      <trkpt lat="49.65521" lon="-1.57405">
        <ele>3.8</ele>
        <time>2020-06-15T07:41:30Z</time>
      </trkpt>
      <trkpt lat="49.65523" lon="-1.57398">
        <ele>3.8</ele>
        <time>2020-06-15T07:41:31Z</time>
      </trkpt>
      <trkpt lat="49.65524" lon="-1.57391">
        <ele>3.8</ele>
        <time>2020-06-15T07:41:32Z</time>
      </trkpt>
      <trkpt lat="49.65526" lon="-1.57385">
        <ele>3.8</ele>
        <time>2020-06-15T07:41:33Z</time>
      </trkpt>
      <trkpt lat="49.65527" lon="-1.5738">
        <ele>3.9</ele>
        <time>2020-06-15T07:41:34Z</time>
      </trkpt>
      <trkpt lat="49.65527" lon="-1.57374">
        <ele>3.9</ele>
        <time>2020-06-15T07:41:35Z</time>
      </trkpt>
      <trkpt lat="49.65527" lon="-1.5737">
        <ele>3.9</ele>
        <time>2020-06-15T07:41:36Z</time>
      </trkpt>
      <trkpt lat="49.65526" lon="-1.57369">
        <ele>3.9</ele>
        <time>2020-06-15T07:41:37Z</time>
      </trkpt>
      <trkpt lat="49.65525" lon="-1.57368">
        <ele>3.9</ele>
        <time>2020-06-15T07:41:38Z</time>
      </trkpt>
      <trkpt lat="49.65524" lon="-1.57367">
        <ele>3.9</ele>
        <time>2020-06-15T07:41:39Z</time>
      </trkpt>
      <trkpt lat="49.65523" lon="-1.57367">
        <ele>3.9</ele>
        <time>2020-06-15T07:41:40Z</time>
      </trkpt>
      <trkpt lat="49.65522" lon="-1.57367">
        <ele>4</ele>
        <time>2020-06-15T07:41:41Z</time>
      </trkpt>
      <trkpt lat="49.65521" lon="-1.57368">
        <ele>4</ele>
        <time>2020-06-15T07:41:42Z</time>
      </trkpt>
      <trkpt lat="49.65521" lon="-1.57369">
        <ele>4</ele>
        <time>2020-06-15T07:41:43Z</time>
      </trkpt>
      <trkpt lat="49.65521" lon="-1.5737">
        <ele>4</ele>
        <time>2020-06-15T07:41:44Z</time>
      </trkpt>
      <trkpt lat="49.65522" lon="-1.57369">
        <ele>4</ele>
        <time>2020-06-15T07:41:45Z</time>
      </trkpt>
      <trkpt lat="49.65522" lon="-1.57369">
        <ele>4</ele>
        <time>2020-06-15T07:41:46Z</time>
      </trkpt>
      <trkpt lat="49.65522" lon="-1.57369">
        <ele>4</ele>
        <time>2020-06-15T07:41:47Z</time>
      </trkpt>
      <trkpt lat="49.65522" lon="-1.57369">
        <ele>4</ele>
        <time>2020-06-15T07:41:48Z</time>
      </trkpt>
      <trkpt lat="49.65522" lon="-1.57369">
        <ele>4</ele>
        <time>2020-06-15T07:41:49Z</time>
      </trkpt>
      <trkpt lat="49.65522" lon="-1.57369">
        <ele>4</ele>
        <time>2020-06-15T07:41:50Z</time>
      </trkpt>
      <trkpt lat="49.65522" lon="-1.57369">
        <ele>4</ele>
        <time>2020-06-15T07:41:51Z</time>
      </trkpt>
      <trkpt lat="49.65522" lon="-1.57368">
        <ele>4</ele>
        <time>2020-06-15T07:41:52Z</time>
      </trkpt>
      <trkpt lat="49.65517" lon="-1.57366">
        <ele>4</ele>
        <time>2020-06-15T07:43:03Z</time>
      </trkpt>
      <trkpt lat="49.65516" lon="-1.57365">
        <ele>4</ele>
        <time>2020-06-15T07:43:04Z</time>
      </trkpt>
      <trkpt lat="49.65514" lon="-1.57365">
        <ele>4</ele>
        <time>2020-06-15T07:43:05Z</time>
      </trkpt>
      <trkpt lat="49.65511" lon="-1.57365">
        <ele>4</ele>
        <time>2020-06-15T07:43:06Z</time>
      </trkpt>
      <trkpt lat="49.6551" lon="-1.57364">
        <ele>4</ele>
        <time>2020-06-15T07:43:07Z</time>
      </trkpt>
      <trkpt lat="49.65507" lon="-1.57363">
        <ele>4.1</ele>
        <time>2020-06-15T07:43:08Z</time>
      </trkpt>
      <trkpt lat="49.65506" lon="-1.57362">
        <ele>4.1</ele>
        <time>2020-06-15T07:43:09Z</time>
      </trkpt>
      <trkpt lat="49.65503" lon="-1.5736">
        <ele>4.1</ele>
        <time>2020-06-15T07:43:10Z</time>
      </trkpt>
      <trkpt lat="49.65502" lon="-1.5736">
        <ele>4.1</ele>
        <time>2020-06-15T07:43:11Z</time>
      </trkpt>
      <trkpt lat="49.65498" lon="-1.57357">
        <ele>4.1</ele>
        <time>2020-06-15T07:43:12Z</time>
      </trkpt>
      <trkpt lat="49.65497" lon="-1.57357">
        <ele>4.1</ele>
        <time>2020-06-15T07:43:13Z</time>
      </trkpt>
      <trkpt lat="49.65493" lon="-1.57356">
        <ele>4.1</ele>
        <time>2020-06-15T07:43:14Z</time>
      </trkpt>
      <trkpt lat="49.65489" lon="-1.57354">
        <ele>4.1</ele>
        <time>2020-06-15T07:43:15Z</time>
      </trkpt>
      <trkpt lat="49.65488" lon="-1.57353">
        <ele>4.2</ele>
        <time>2020-06-15T07:43:16Z</time>
      </trkpt>
      <trkpt lat="49.65485" lon="-1.57351">
        <ele>4.2</ele>
        <time>2020-06-15T07:43:17Z</time>
      </trkpt>
      <trkpt lat="49.65484" lon="-1.5735">
        <ele>4.2</ele>
        <time>2020-06-15T07:43:18Z</time>
      </trkpt>
      <trkpt lat="49.65482" lon="-1.57348">
        <ele>4.2</ele>
        <time>2020-06-15T07:43:19Z</time>
      </trkpt>
      <trkpt lat="49.65478" lon="-1.57345">
        <ele>4.2</ele>
        <time>2020-06-15T07:43:20Z</time>
      </trkpt>
      <trkpt lat="49.65477" lon="-1.57344">
        <ele>4.2</ele>
        <time>2020-06-15T07:43:21Z</time>
      </trkpt>
      <trkpt lat="49.65475" lon="-1.5734">
        <ele>4.2</ele>
        <time>2020-06-15T07:43:22Z</time>
      </trkpt>
      <trkpt lat="49.65473" lon="-1.57335">
        <ele>4.3</ele>
        <time>2020-06-15T07:43:23Z</time>
      </trkpt>
      <trkpt lat="49.65471" lon="-1.5733">
        <ele>4.3</ele>
        <time>2020-06-15T07:43:24Z</time>
      </trkpt>
      <trkpt lat="49.6547" lon="-1.57324">
        <ele>4.3</ele>
        <time>2020-06-15T07:43:25Z</time>
      </trkpt>
      <trkpt lat="49.65469" lon="-1.57318">
        <ele>4.3</ele>
        <time>2020-06-15T07:43:26Z</time>
      </trkpt>
      <trkpt lat="49.65469" lon="-1.57312">
        <ele>4.3</ele>
        <time>2020-06-15T07:43:27Z</time>
      </trkpt>
      <trkpt lat="49.6547" lon="-1.57306">
        <ele>4.4</ele>
        <time>2020-06-15T07:43:28Z</time>
      </trkpt>
      <trkpt lat="49.65472" lon="-1.573">
        <ele>4.4</ele>
        <time>2020-06-15T07:43:29Z</time>
      </trkpt>
      <trkpt lat="49.65473" lon="-1.57293">
        <ele>4.4</ele>
        <time>2020-06-15T07:43:30Z</time>
      </trkpt>
      <trkpt lat="49.65474" lon="-1.57286">
        <ele>4.4</ele>
        <time>2020-06-15T07:43:31Z</time>
      </trkpt>
      <trkpt lat="49.65475" lon="-1.57279">
        <ele>4.4</ele>
        <time>2020-06-15T07:43:32Z</time>
      </trkpt>
      <trkpt lat="49.65476" lon="-1.57273">
        <ele>4.5</ele>
        <time>2020-06-15T07:43:33Z</time>
      </trkpt>
      <trkpt lat="49.65477" lon="-1.57265">
        <ele>4.5</ele>
        <time>2020-06-15T07:43:34Z</time>
      </trkpt>
      <trkpt lat="49.65477" lon="-1.57258">
        <ele>4.5</ele>
        <time>2020-06-15T07:43:35Z</time>
      </trkpt>
      <trkpt lat="49.65479" lon="-1.5725">
        <ele>4.5</ele>
        <time>2020-06-15T07:43:36Z</time>
      </trkpt>
      <trkpt lat="49.6548" lon="-1.57242">
        <ele>4.6</ele>
        <time>2020-06-15T07:43:37Z</time>
      </trkpt>
      <trkpt lat="49.65481" lon="-1.57235">
        <ele>4.6</ele>
        <time>2020-06-15T07:43:38Z</time>
      </trkpt>
      <trkpt lat="49.65482" lon="-1.57228">
        <ele>4.6</ele>
        <time>2020-06-15T07:43:39Z</time>
      </trkpt>
      <trkpt lat="49.65483" lon="-1.5722">
        <ele>4.6</ele>
        <time>2020-06-15T07:43:40Z</time>
      </trkpt>
      <trkpt lat="49.65484" lon="-1.57213">
        <ele>4.7</ele>
        <time>2020-06-15T07:43:41Z</time>
      </trkpt>
      <trkpt lat="49.65485" lon="-1.57207">
        <ele>4.7</ele>
        <time>2020-06-15T07:43:42Z</time>
      </trkpt>
      <trkpt lat="49.65486" lon="-1.572">
        <ele>4.7</ele>
        <time>2020-06-15T07:43:43Z</time>
      </trkpt>
      <trkpt lat="49.65488" lon="-1.57193">
        <ele>4.7</ele>
        <time>2020-06-15T07:43:44Z</time>
      </trkpt>
      <trkpt lat="49.65489" lon="-1.57185">
        <ele>4.8</ele>
        <time>2020-06-15T07:43:45Z</time>
      </trkpt>
      <trkpt lat="49.65492" lon="-1.57177">
        <ele>4.8</ele>
        <time>2020-06-15T07:43:46Z</time>
      </trkpt>
      <trkpt lat="49.65496" lon="-1.5717">
        <ele>4.8</ele>
        <time>2020-06-15T07:43:47Z</time>
      </trkpt>
      <trkpt lat="49.655" lon="-1.57164">
        <ele>4.8</ele>
        <time>2020-06-15T07:43:48Z</time>
      </trkpt>
      <trkpt lat="49.65504" lon="-1.57157">
        <ele>4.7</ele>
        <time>2020-06-15T07:43:49Z</time>
      </trkpt>
      <trkpt lat="49.65504" lon="-1.5715">
        <ele>4.8</ele>
        <time>2020-06-15T07:43:50Z</time>
      </trkpt>
      <trkpt lat="49.65504" lon="-1.57143">
        <ele>4.8</ele>
        <time>2020-06-15T07:43:51Z</time>
      </trkpt>
      <trkpt lat="49.65504" lon="-1.57137">
        <ele>4.8</ele>
        <time>2020-06-15T07:43:52Z</time>
      </trkpt>
      <trkpt lat="49.65504" lon="-1.57132">
        <ele>4.8</ele>
        <time>2020-06-15T07:43:53Z</time>
      </trkpt>
      <trkpt lat="49.65504" lon="-1.57126">
        <ele>4.8</ele>
        <time>2020-06-15T07:43:54Z</time>
      </trkpt>
      <trkpt lat="49.65502" lon="-1.57122">
        <ele>4.8</ele>
        <time>2020-06-15T07:43:55Z</time>
      </trkpt>
      <trkpt lat="49.65501" lon="-1.57118">
        <ele>4.8</ele>
        <time>2020-06-15T07:43:56Z</time>
      </trkpt>
      <trkpt lat="49.65501" lon="-1.57113">
        <ele>4.8</ele>
        <time>2020-06-15T07:43:57Z</time>
      </trkpt>
      <trkpt lat="49.65501" lon="-1.57112">
        <ele>4.8</ele>
        <time>2020-06-15T07:43:58Z</time>
      </trkpt>
      <trkpt lat="49.65501" lon="-1.5711">
        <ele>4.8</ele>
        <time>2020-06-15T07:43:59Z</time>
      </trkpt>
      <trkpt lat="49.655" lon="-1.57108">
        <ele>4.8</ele>
        <time>2020-06-15T07:44:00Z</time>
      </trkpt>
      <trkpt lat="49.655" lon="-1.57107">
        <ele>4.8</ele>
        <time>2020-06-15T07:44:01Z</time>
      </trkpt>
      <trkpt lat="49.65499" lon="-1.57106">
        <ele>4.8</ele>
        <time>2020-06-15T07:44:02Z</time>
      </trkpt>
      <trkpt lat="49.655" lon="-1.57107">
        <ele>4.8</ele>
        <time>2020-06-15T07:44:03Z</time>
      </trkpt>
      <trkpt lat="49.65501" lon="-1.57107">
        <ele>4.8</ele>
        <time>2020-06-15T07:44:04Z</time>
      </trkpt>
      <trkpt lat="49.65501" lon="-1.57106">
        <ele>4.8</ele>
        <time>2020-06-15T07:44:05Z</time>
      </trkpt>
      <trkpt lat="49.65502" lon="-1.57106">
        <ele>4.8</ele>
        <time>2020-06-15T07:44:06Z</time>
      </trkpt>
      <trkpt lat="49.65502" lon="-1.57105">
        <ele>4.8</ele>
        <time>2020-06-15T07:44:07Z</time>
      </trkpt>
      <trkpt lat="49.65503" lon="-1.57105">
        <ele>4.8</ele>
        <time>2020-06-15T07:44:08Z</time>
      </trkpt>
      <trkpt lat="49.65503" lon="-1.57105">
        <ele>4.8</ele>
        <time>2020-06-15T07:44:09Z</time>
      </trkpt>
      <trkpt lat="49.65504" lon="-1.57105">
        <ele>4.8</ele>
        <time>2020-06-15T07:44:10Z</time>
      </trkpt>
      <trkpt lat="49.65501" lon="-1.57107">
        <ele>4.8</ele>
        <time>2020-06-15T07:44:11Z</time>
      </trkpt>
      <trkpt lat="49.65501" lon="-1.57107">
        <ele>4.8</ele>
        <time>2020-06-15T07:44:12Z</time>
      </trkpt>
      <trkpt lat="49.65502" lon="-1.57107">
        <ele>4.8</ele>
        <time>2020-06-15T07:44:13Z</time>
      </trkpt>
      <trkpt lat="49.65502" lon="-1.57107">
        <ele>4.8</ele>
        <time>2020-06-15T07:44:14Z</time>
      </trkpt>
      <trkpt lat="49.65502" lon="-1.57107">
        <ele>4.8</ele>
        <time>2020-06-15T07:44:15Z</time>
      </trkpt>
      <trkpt lat="49.65502" lon="-1.57107">
        <ele>4.8</ele>
        <time>2020-06-15T07:44:16Z</time>
      </trkpt>
      <trkpt lat="49.65502" lon="-1.57106">
        <ele>4.8</ele>
        <time>2020-06-15T07:44:17Z</time>
      </trkpt>
      <trkpt lat="49.65502" lon="-1.57106">
        <ele>4.8</ele>
        <time>2020-06-15T07:44:18Z</time>
      </trkpt>
      <trkpt lat="49.65503" lon="-1.57113">
        <ele>4.8</ele>
        <time>2020-06-15T07:45:27Z</time>
      </trkpt>
      <trkpt lat="49.65502" lon="-1.57115">
        <ele>4.8</ele>
        <time>2020-06-15T07:45:28Z</time>
      </trkpt>
      <trkpt lat="49.65501" lon="-1.57115">
        <ele>4.8</ele>
        <time>2020-06-15T07:45:29Z</time>
      </trkpt>
      <trkpt lat="49.655" lon="-1.57114">
        <ele>4.8</ele>
        <time>2020-06-15T07:45:30Z</time>
      </trkpt>
      <trkpt lat="49.65499" lon="-1.57113">
        <ele>4.8</ele>
        <time>2020-06-15T07:45:31Z</time>
      </trkpt>
      <trkpt lat="49.65499" lon="-1.57112">
        <ele>4.8</ele>
        <time>2020-06-15T07:45:32Z</time>
      </trkpt>
      <trkpt lat="49.65499" lon="-1.57111">
        <ele>4.8</ele>
        <time>2020-06-15T07:45:33Z</time>
      </trkpt>
      <trkpt lat="49.65499" lon="-1.5711">
        <ele>4.8</ele>
        <time>2020-06-15T07:45:34Z</time>
      </trkpt>
      <trkpt lat="49.65498" lon="-1.57109">
        <ele>4.8</ele>
        <time>2020-06-15T07:45:35Z</time>
      </trkpt>
      <trkpt lat="49.65498" lon="-1.57108">
        <ele>4.8</ele>
        <time>2020-06-15T07:45:36Z</time>
      </trkpt>
      <trkpt lat="49.65498" lon="-1.57107">
        <ele>4.8</ele>
        <time>2020-06-15T07:45:37Z</time>
      </trkpt>
      <trkpt lat="49.65498" lon="-1.57107">
        <ele>4.8</ele>
        <time>2020-06-15T07:45:38Z</time>
      </trkpt>
      <trkpt lat="49.65498" lon="-1.57106">
        <ele>4.8</ele>
        <time>2020-06-15T07:45:39Z</time>
      </trkpt>
      <trkpt lat="49.65498" lon="-1.57106">
        <ele>4.8</ele>
        <time>2020-06-15T07:45:40Z</time>
      </trkpt>
      <trkpt lat="49.65498" lon="-1.57106">
        <ele>4.8</ele>
        <time>2020-06-15T07:45:41Z</time>
      </trkpt>
      <trkpt lat="49.65498" lon="-1.57106">
        <ele>4.8</ele>
        <time>2020-06-15T07:45:42Z</time>
      </trkpt>
      <trkpt lat="49.65498" lon="-1.57106">
        <ele>4.8</ele>
        <time>2020-06-15T07:45:43Z</time>
      </trkpt>
      <trkpt lat="49.65498" lon="-1.57106">
        <ele>4.8</ele>
        <time>2020-06-15T07:45:44Z</time>
      </trkpt>
      <trkpt lat="49.65498" lon="-1.57106">
        <ele>4.8</ele>
        <time>2020-06-15T07:45:45Z</time>
      </trkpt>
      <trkpt lat="49.65498" lon="-1.57105">
        <ele>4.8</ele>
        <time>2020-06-15T07:45:46Z</time>
      </trkpt>
      <trkpt lat="49.65593" lon="-1.57126">
        <ele>3</ele>
        <time>2020-06-15T08:10:14Z</time>
      </trkpt>
      <trkpt lat="49.65588" lon="-1.57119">
        <ele>3.2</ele>
        <time>2020-06-15T08:10:15Z</time>
      </trkpt>
      <trkpt lat="49.65587" lon="-1.57118">
        <ele>3.2</ele>
        <time>2020-06-15T08:10:16Z</time>
      </trkpt>
      <trkpt lat="49.65585" lon="-1.57116">
        <ele>3.3</ele>
        <time>2020-06-15T08:10:17Z</time>
      </trkpt>
      <trkpt lat="49.65582" lon="-1.57113">
        <ele>3.4</ele>
        <time>2020-06-15T08:10:18Z</time>
      </trkpt>
      <trkpt lat="49.65581" lon="-1.57113">
        <ele>3.4</ele>
        <time>2020-06-15T08:10:19Z</time>
      </trkpt>
      <trkpt lat="49.6558" lon="-1.57112">
        <ele>3.4</ele>
        <time>2020-06-15T08:10:20Z</time>
      </trkpt>
      <trkpt lat="49.65577" lon="-1.5711">
        <ele>3.6</ele>
        <time>2020-06-15T08:10:21Z</time>
      </trkpt>
      <trkpt lat="49.65573" lon="-1.57106">
        <ele>3.6</ele>
        <time>2020-06-15T08:10:22Z</time>
      </trkpt>
      <trkpt lat="49.65572" lon="-1.57102">
        <ele>3.6</ele>
        <time>2020-06-15T08:10:23Z</time>
      </trkpt>
      <trkpt lat="49.65571" lon="-1.571">
        <ele>3.6</ele>
        <time>2020-06-15T08:10:24Z</time>
      </trkpt>
      <trkpt lat="49.65571" lon="-1.57101">
        <ele>3.7</ele>
        <time>2020-06-15T08:10:25Z</time>
      </trkpt>
      <trkpt lat="49.65571" lon="-1.57101">
        <ele>3.7</ele>
        <time>2020-06-15T08:10:26Z</time>
      </trkpt>
      <trkpt lat="49.6557" lon="-1.571">
        <ele>3.7</ele>
        <time>2020-06-15T08:10:27Z</time>
      </trkpt>
      <trkpt lat="49.6557" lon="-1.57099">
        <ele>3.7</ele>
        <time>2020-06-15T08:10:28Z</time>
      </trkpt>
      <trkpt lat="49.65569" lon="-1.57099">
        <ele>3.7</ele>
        <time>2020-06-15T08:10:29Z</time>
      </trkpt>
      <trkpt lat="49.6557" lon="-1.571">
        <ele>3.7</ele>
        <time>2020-06-15T08:10:30Z</time>
      </trkpt>
      <trkpt lat="49.65569" lon="-1.571">
        <ele>3.7</ele>
        <time>2020-06-15T08:10:31Z</time>
      </trkpt>
      <trkpt lat="49.65569" lon="-1.57099">
        <ele>3.7</ele>
        <time>2020-06-15T08:10:32Z</time>
      </trkpt>
      <trkpt lat="49.65568" lon="-1.57098">
        <ele>3.7</ele>
        <time>2020-06-15T08:10:33Z</time>
      </trkpt>
      <trkpt lat="49.65567" lon="-1.57096">
        <ele>3.8</ele>
        <time>2020-06-15T08:10:34Z</time>
      </trkpt>
      <trkpt lat="49.65566" lon="-1.57096">
        <ele>3.8</ele>
        <time>2020-06-15T08:10:35Z</time>
      </trkpt>
      <trkpt lat="49.65565" lon="-1.57097">
        <ele>3.8</ele>
        <time>2020-06-15T08:10:36Z</time>
      </trkpt>
      <trkpt lat="49.65564" lon="-1.57098">
        <ele>3.8</ele>
        <time>2020-06-15T08:10:37Z</time>
      </trkpt>
      <trkpt lat="49.65563" lon="-1.57098">
        <ele>3.8</ele>
        <time>2020-06-15T08:10:38Z</time>
      </trkpt>
      <trkpt lat="49.65563" lon="-1.57098">
        <ele>3.9</ele>
        <time>2020-06-15T08:10:39Z</time>
      </trkpt>
      <trkpt lat="49.65562" lon="-1.57098">
        <ele>3.9</ele>
        <time>2020-06-15T08:10:40Z</time>
      </trkpt>
      <trkpt lat="49.65561" lon="-1.57094">
        <ele>3.9</ele>
        <time>2020-06-15T08:10:41Z</time>
      </trkpt>
      <trkpt lat="49.65561" lon="-1.57095">
        <ele>3.9</ele>
        <time>2020-06-15T08:10:42Z</time>
      </trkpt>
      <trkpt lat="49.65559" lon="-1.57092">
        <ele>4</ele>
        <time>2020-06-15T08:10:43Z</time>
      </trkpt>
      <trkpt lat="49.65558" lon="-1.57092">
        <ele>4</ele>
        <time>2020-06-15T08:10:44Z</time>
      </trkpt>
      <trkpt lat="49.65555" lon="-1.57089">
        <ele>4</ele>
        <time>2020-06-15T08:10:45Z</time>
      </trkpt>
      <trkpt lat="49.65554" lon="-1.57089">
        <ele>4.1</ele>
        <time>2020-06-15T08:10:46Z</time>
      </trkpt>
      <trkpt lat="49.65554" lon="-1.57089">
        <ele>4.1</ele>
        <time>2020-06-15T08:10:47Z</time>
      </trkpt>
      <trkpt lat="49.65553" lon="-1.57087">
        <ele>4.1</ele>
        <time>2020-06-15T08:10:48Z</time>
      </trkpt>
      <trkpt lat="49.65552" lon="-1.57085">
        <ele>4.2</ele>
        <time>2020-06-15T08:10:49Z</time>
      </trkpt>
      <trkpt lat="49.65551" lon="-1.57084">
        <ele>4.2</ele>
        <time>2020-06-15T08:10:50Z</time>
      </trkpt>
      <trkpt lat="49.65535" lon="-1.57071">
        <ele>4.5</ele>
        <time>2020-06-15T08:10:57Z</time>
      </trkpt>
      <trkpt lat="49.6553" lon="-1.57064">
        <ele>4.6</ele>
        <time>2020-06-15T08:10:58Z</time>
      </trkpt>
      <trkpt lat="49.6553" lon="-1.57065">
        <ele>4.6</ele>
        <time>2020-06-15T08:10:59Z</time>
      </trkpt>
      <trkpt lat="49.6553" lon="-1.57064">
        <ele>4.6</ele>
        <time>2020-06-15T08:11:00Z</time>
      </trkpt>
      <trkpt lat="49.65529" lon="-1.57063">
        <ele>4.7</ele>
        <time>2020-06-15T08:11:01Z</time>
      </trkpt>
      <trkpt lat="49.65527" lon="-1.57062">
        <ele>4.7</ele>
        <time>2020-06-15T08:11:02Z</time>
      </trkpt>
      <trkpt lat="49.65525" lon="-1.57061">
        <ele>4.8</ele>
        <time>2020-06-15T08:11:03Z</time>
      </trkpt>
      <trkpt lat="49.65524" lon="-1.57062">
        <ele>4.7</ele>
        <time>2020-06-15T08:11:04Z</time>
      </trkpt>
      <trkpt lat="49.65523" lon="-1.57062">
        <ele>4.7</ele>
        <time>2020-06-15T08:11:05Z</time>
      </trkpt>
      <trkpt lat="49.65522" lon="-1.57062">
        <ele>4.7</ele>
        <time>2020-06-15T08:11:06Z</time>
      </trkpt>
      <trkpt lat="49.6552" lon="-1.57062">
        <ele>4.8</ele>
        <time>2020-06-15T08:11:07Z</time>
      </trkpt>
      <trkpt lat="49.65519" lon="-1.57062">
        <ele>4.8</ele>
        <time>2020-06-15T08:11:08Z</time>
      </trkpt>
      <trkpt lat="49.65519" lon="-1.57061">
        <ele>4.8</ele>
        <time>2020-06-15T08:11:09Z</time>
      </trkpt>
      <trkpt lat="49.65517" lon="-1.57061">
        <ele>4.8</ele>
        <time>2020-06-15T08:11:10Z</time>
      </trkpt>
      <trkpt lat="49.65518" lon="-1.57061">
        <ele>4.8</ele>
        <time>2020-06-15T08:11:11Z</time>
      </trkpt>
      <trkpt lat="49.65518" lon="-1.57061">
        <ele>4.8</ele>
        <time>2020-06-15T08:11:12Z</time>
      </trkpt>
      <trkpt lat="49.65517" lon="-1.57061">
        <ele>4.8</ele>
        <time>2020-06-15T08:11:13Z</time>
      </trkpt>
      <trkpt lat="49.65516" lon="-1.57061">
        <ele>4.8</ele>
        <time>2020-06-15T08:11:14Z</time>
      </trkpt>
      <trkpt lat="49.65517" lon="-1.57061">
        <ele>4.8</ele>
        <time>2020-06-15T08:11:15Z</time>
      </trkpt>
      <trkpt lat="49.65517" lon="-1.57061">
        <ele>4.8</ele>
        <time>2020-06-15T08:11:16Z</time>
      </trkpt>
      <trkpt lat="49.65516" lon="-1.57061">
        <ele>4.8</ele>
        <time>2020-06-15T08:11:17Z</time>
      </trkpt>
      <trkpt lat="49.65515" lon="-1.57061">
        <ele>4.9</ele>
        <time>2020-06-15T08:11:18Z</time>
      </trkpt>
      <trkpt lat="49.65517" lon="-1.5707">
        <ele>4.8</ele>
        <time>2020-06-15T08:11:25Z</time>
      </trkpt>
      <trkpt lat="49.65516" lon="-1.57072">
        <ele>4.7</ele>
        <time>2020-06-15T08:11:26Z</time>
      </trkpt>
      <trkpt lat="49.65515" lon="-1.57071">
        <ele>4.7</ele>
        <time>2020-06-15T08:11:27Z</time>
      </trkpt>
      <trkpt lat="49.65514" lon="-1.57072">
        <ele>4.7</ele>
        <time>2020-06-15T08:11:28Z</time>
      </trkpt>
      <trkpt lat="49.65513" lon="-1.57074">
        <ele>4.7</ele>
        <time>2020-06-15T08:11:29Z</time>
      </trkpt>
      <trkpt lat="49.65512" lon="-1.5708">
        <ele>4.7</ele>
        <time>2020-06-15T08:11:30Z</time>
      </trkpt>
      <trkpt lat="49.65511" lon="-1.57082">
        <ele>4.7</ele>
        <time>2020-06-15T08:11:31Z</time>
      </trkpt>
      <trkpt lat="49.6551" lon="-1.57088">
        <ele>4.7</ele>
        <time>2020-06-15T08:11:32Z</time>
      </trkpt>
      <trkpt lat="49.6551" lon="-1.5709">
        <ele>4.7</ele>
        <time>2020-06-15T08:11:33Z</time>
      </trkpt>
      <trkpt lat="49.65509" lon="-1.57094">
        <ele>4.7</ele>
        <time>2020-06-15T08:11:34Z</time>
      </trkpt>
      <trkpt lat="49.65508" lon="-1.57101">
        <ele>4.7</ele>
        <time>2020-06-15T08:11:35Z</time>
      </trkpt>
      <trkpt lat="49.65507" lon="-1.57108">
        <ele>4.7</ele>
        <time>2020-06-15T08:11:36Z</time>
      </trkpt>
      <trkpt lat="49.65505" lon="-1.57113">
        <ele>4.7</ele>
        <time>2020-06-15T08:11:37Z</time>
      </trkpt>
      <trkpt lat="49.65504" lon="-1.57118">
        <ele>4.7</ele>
        <time>2020-06-15T08:11:38Z</time>
      </trkpt>
      <trkpt lat="49.65502" lon="-1.57123">
        <ele>4.7</ele>
        <time>2020-06-15T08:11:39Z</time>
      </trkpt>
      <trkpt lat="49.65501" lon="-1.57129">
        <ele>4.8</ele>
        <time>2020-06-15T08:11:40Z</time>
      </trkpt>
      <trkpt lat="49.65499" lon="-1.57135">
        <ele>4.8</ele>
        <time>2020-06-15T08:11:41Z</time>
      </trkpt>
      <trkpt lat="49.65497" lon="-1.5714">
        <ele>4.8</ele>
        <time>2020-06-15T08:11:42Z</time>
      </trkpt>
      <trkpt lat="49.65496" lon="-1.57145">
        <ele>4.8</ele>
        <time>2020-06-15T08:11:43Z</time>
      </trkpt>
      <trkpt lat="49.65495" lon="-1.5715">
        <ele>4.8</ele>
        <time>2020-06-15T08:11:44Z</time>
      </trkpt>
      <trkpt lat="49.65494" lon="-1.57159">
        <ele>4.8</ele>
        <time>2020-06-15T08:11:45Z</time>
      </trkpt>
      <trkpt lat="49.65493" lon="-1.57167">
        <ele>4.8</ele>
        <time>2020-06-15T08:11:46Z</time>
      </trkpt>
      <trkpt lat="49.65492" lon="-1.57171">
        <ele>4.8</ele>
        <time>2020-06-15T08:11:47Z</time>
      </trkpt>
      <trkpt lat="49.65492" lon="-1.57178">
        <ele>4.8</ele>
        <time>2020-06-15T08:11:48Z</time>
      </trkpt>
      <trkpt lat="49.65491" lon="-1.57186">
        <ele>4.8</ele>
        <time>2020-06-15T08:11:49Z</time>
      </trkpt>
      <trkpt lat="49.6549" lon="-1.57191">
        <ele>4.7</ele>
        <time>2020-06-15T08:11:50Z</time>
      </trkpt>
      <trkpt lat="49.65489" lon="-1.57197">
        <ele>4.7</ele>
        <time>2020-06-15T08:11:51Z</time>
      </trkpt>
      <trkpt lat="49.65488" lon="-1.57205">
        <ele>4.7</ele>
        <time>2020-06-15T08:11:52Z</time>
      </trkpt>
      <trkpt lat="49.65488" lon="-1.57211">
        <ele>4.7</ele>
        <time>2020-06-15T08:11:53Z</time>
      </trkpt>
      <trkpt lat="49.65487" lon="-1.57223">
        <ele>4.6</ele>
        <time>2020-06-15T08:11:54Z</time>
      </trkpt>
      <trkpt lat="49.65486" lon="-1.57234">
        <ele>4.6</ele>
        <time>2020-06-15T08:11:55Z</time>
      </trkpt>
      <trkpt lat="49.65484" lon="-1.57243">
        <ele>4.6</ele>
        <time>2020-06-15T08:11:56Z</time>
      </trkpt>
      <trkpt lat="49.65483" lon="-1.57252">
        <ele>4.5</ele>
        <time>2020-06-15T08:11:57Z</time>
      </trkpt>
      <trkpt lat="49.65481" lon="-1.57259">
        <ele>4.5</ele>
        <time>2020-06-15T08:11:58Z</time>
      </trkpt>
      <trkpt lat="49.6548" lon="-1.57267">
        <ele>4.5</ele>
        <time>2020-06-15T08:11:59Z</time>
      </trkpt>
      <trkpt lat="49.65478" lon="-1.57274">
        <ele>4.5</ele>
        <time>2020-06-15T08:12:00Z</time>
      </trkpt>
      <trkpt lat="49.65477" lon="-1.5728">
        <ele>4.4</ele>
        <time>2020-06-15T08:12:01Z</time>
      </trkpt>
      <trkpt lat="49.65476" lon="-1.57287">
        <ele>4.4</ele>
        <time>2020-06-15T08:12:02Z</time>
      </trkpt>
      <trkpt lat="49.65475" lon="-1.57295">
        <ele>4.4</ele>
        <time>2020-06-15T08:12:03Z</time>
      </trkpt>
      <trkpt lat="49.65474" lon="-1.57302">
        <ele>4.4</ele>
        <time>2020-06-15T08:12:04Z</time>
      </trkpt>
      <trkpt lat="49.65472" lon="-1.57309">
        <ele>4.3</ele>
        <time>2020-06-15T08:12:05Z</time>
      </trkpt>
      <trkpt lat="49.65472" lon="-1.57314">
        <ele>4.3</ele>
        <time>2020-06-15T08:12:06Z</time>
      </trkpt>
      <trkpt lat="49.65472" lon="-1.57319">
        <ele>4.3</ele>
        <time>2020-06-15T08:12:07Z</time>
      </trkpt>
      <trkpt lat="49.65472" lon="-1.57324">
        <ele>4.3</ele>
        <time>2020-06-15T08:12:08Z</time>
      </trkpt>
      <trkpt lat="49.65472" lon="-1.57329">
        <ele>4.3</ele>
        <time>2020-06-15T08:12:09Z</time>
      </trkpt>
      <trkpt lat="49.65473" lon="-1.57334">
        <ele>4.2</ele>
        <time>2020-06-15T08:12:10Z</time>
      </trkpt>
      <trkpt lat="49.65474" lon="-1.57339">
        <ele>4.2</ele>
        <time>2020-06-15T08:12:11Z</time>
      </trkpt>
      <trkpt lat="49.65475" lon="-1.57343">
        <ele>4.2</ele>
        <time>2020-06-15T08:12:12Z</time>
      </trkpt>
      <trkpt lat="49.65477" lon="-1.57346">
        <ele>4.2</ele>
        <time>2020-06-15T08:12:13Z</time>
      </trkpt>
      <trkpt lat="49.65479" lon="-1.57349">
        <ele>4.2</ele>
        <time>2020-06-15T08:12:14Z</time>
      </trkpt>
      <trkpt lat="49.65482" lon="-1.5735">
        <ele>4.2</ele>
        <time>2020-06-15T08:12:15Z</time>
      </trkpt>
      <trkpt lat="49.65485" lon="-1.57352">
        <ele>4.2</ele>
        <time>2020-06-15T08:12:16Z</time>
      </trkpt>
      <trkpt lat="49.65488" lon="-1.57353">
        <ele>4.1</ele>
        <time>2020-06-15T08:12:17Z</time>
      </trkpt>
      <trkpt lat="49.65491" lon="-1.57355">
        <ele>4.1</ele>
        <time>2020-06-15T08:12:18Z</time>
      </trkpt>
      <trkpt lat="49.65493" lon="-1.57356">
        <ele>4.1</ele>
        <time>2020-06-15T08:12:19Z</time>
      </trkpt>
      <trkpt lat="49.65496" lon="-1.57358">
        <ele>4.1</ele>
        <time>2020-06-15T08:12:20Z</time>
      </trkpt>
      <trkpt lat="49.65499" lon="-1.57359">
        <ele>4.1</ele>
        <time>2020-06-15T08:12:21Z</time>
      </trkpt>
      <trkpt lat="49.65501" lon="-1.57361">
        <ele>4.1</ele>
        <time>2020-06-15T08:12:22Z</time>
      </trkpt>
      <trkpt lat="49.65504" lon="-1.57363">
        <ele>4</ele>
        <time>2020-06-15T08:12:23Z</time>
      </trkpt>
      <trkpt lat="49.65506" lon="-1.57364">
        <ele>4</ele>
        <time>2020-06-15T08:12:24Z</time>
      </trkpt>
      <trkpt lat="49.65509" lon="-1.57366">
        <ele>4</ele>
        <time>2020-06-15T08:12:25Z</time>
      </trkpt>
      <trkpt lat="49.65512" lon="-1.57368">
        <ele>4</ele>
        <time>2020-06-15T08:12:26Z</time>
      </trkpt>
      <trkpt lat="49.65514" lon="-1.5737">
        <ele>4</ele>
        <time>2020-06-15T08:12:27Z</time>
      </trkpt>
      <trkpt lat="49.65517" lon="-1.57371">
        <ele>4</ele>
        <time>2020-06-15T08:12:28Z</time>
      </trkpt>
      <trkpt lat="49.6552" lon="-1.57371">
        <ele>4</ele>
        <time>2020-06-15T08:12:29Z</time>
      </trkpt>
      <trkpt lat="49.65523" lon="-1.5737">
        <ele>3.9</ele>
        <time>2020-06-15T08:12:30Z</time>
      </trkpt>
      <trkpt lat="49.65527" lon="-1.57368">
        <ele>3.9</ele>
        <time>2020-06-15T08:12:31Z</time>
      </trkpt>
      <trkpt lat="49.65529" lon="-1.57367">
        <ele>3.9</ele>
        <time>2020-06-15T08:12:32Z</time>
      </trkpt>
      <trkpt lat="49.65531" lon="-1.57364">
        <ele>3.9</ele>
        <time>2020-06-15T08:12:33Z</time>
      </trkpt>
      <trkpt lat="49.65534" lon="-1.5736">
        <ele>3.9</ele>
        <time>2020-06-15T08:12:34Z</time>
      </trkpt>
      <trkpt lat="49.65537" lon="-1.57355">
        <ele>3.9</ele>
        <time>2020-06-15T08:12:35Z</time>
      </trkpt>
      <trkpt lat="49.65539" lon="-1.5735">
        <ele>3.9</ele>
        <time>2020-06-15T08:12:36Z</time>
      </trkpt>
      <trkpt lat="49.65541" lon="-1.57345">
        <ele>3.9</ele>
        <time>2020-06-15T08:12:37Z</time>
      </trkpt>
      <trkpt lat="49.65542" lon="-1.57338">
        <ele>3.8</ele>
        <time>2020-06-15T08:12:38Z</time>
      </trkpt>
      <trkpt lat="49.65544" lon="-1.57332">
        <ele>3.8</ele>
        <time>2020-06-15T08:12:39Z</time>
      </trkpt>
      <trkpt lat="49.65546" lon="-1.57326">
        <ele>3.8</ele>
        <time>2020-06-15T08:12:40Z</time>
      </trkpt>
      <trkpt lat="49.65547" lon="-1.57319">
        <ele>3.8</ele>
        <time>2020-06-15T08:12:41Z</time>
      </trkpt>
      <trkpt lat="49.65549" lon="-1.57312">
        <ele>3.8</ele>
        <time>2020-06-15T08:12:42Z</time>
      </trkpt>
      <trkpt lat="49.6555" lon="-1.57305">
        <ele>3.8</ele>
        <time>2020-06-15T08:12:43Z</time>
      </trkpt>
      <trkpt lat="49.65552" lon="-1.57298">
        <ele>3.8</ele>
        <time>2020-06-15T08:12:44Z</time>
      </trkpt>
      <trkpt lat="49.65554" lon="-1.57292">
        <ele>3.9</ele>
        <time>2020-06-15T08:12:45Z</time>
      </trkpt>
      <trkpt lat="49.65556" lon="-1.57285">
        <ele>3.9</ele>
        <time>2020-06-15T08:12:46Z</time>
      </trkpt>
      <trkpt lat="49.65558" lon="-1.57279">
        <ele>3.9</ele>
        <time>2020-06-15T08:12:47Z</time>
      </trkpt>
      <trkpt lat="49.6556" lon="-1.57272">
        <ele>3.9</ele>
        <time>2020-06-15T08:12:48Z</time>
      </trkpt>
      <trkpt lat="49.65563" lon="-1.57266">
        <ele>3.9</ele>
        <time>2020-06-15T08:12:49Z</time>
      </trkpt>
      <trkpt lat="49.65565" lon="-1.5726">
        <ele>3.9</ele>
        <time>2020-06-15T08:12:50Z</time>
      </trkpt>
      <trkpt lat="49.65567" lon="-1.57253">
        <ele>3.9</ele>
        <time>2020-06-15T08:12:51Z</time>
      </trkpt>
      <trkpt lat="49.65568" lon="-1.57246">
        <ele>3.9</ele>
        <time>2020-06-15T08:12:52Z</time>
      </trkpt>
      <trkpt lat="49.6557" lon="-1.57241">
        <ele>3.9</ele>
        <time>2020-06-15T08:12:53Z</time>
      </trkpt>
      <trkpt lat="49.65573" lon="-1.57235">
        <ele>3.8</ele>
        <time>2020-06-15T08:12:54Z</time>
      </trkpt>
      <trkpt lat="49.65575" lon="-1.57229">
        <ele>3.8</ele>
        <time>2020-06-15T08:12:55Z</time>
      </trkpt>
      <trkpt lat="49.65577" lon="-1.57223">
        <ele>3.8</ele>
        <time>2020-06-15T08:12:56Z</time>
      </trkpt>
      <trkpt lat="49.6558" lon="-1.57217">
        <ele>3.8</ele>
        <time>2020-06-15T08:12:57Z</time>
      </trkpt>
      <trkpt lat="49.65582" lon="-1.5721">
        <ele>3.9</ele>
        <time>2020-06-15T08:12:58Z</time>
      </trkpt>
      <trkpt lat="49.65584" lon="-1.57204">
        <ele>3.9</ele>
        <time>2020-06-15T08:12:59Z</time>
      </trkpt>
      <trkpt lat="49.65586" lon="-1.57197">
        <ele>3.9</ele>
        <time>2020-06-15T08:13:00Z</time>
      </trkpt>
      <trkpt lat="49.65587" lon="-1.57189">
        <ele>4</ele>
        <time>2020-06-15T08:13:01Z</time>
      </trkpt>
      <trkpt lat="49.65588" lon="-1.57183">
        <ele>4</ele>
        <time>2020-06-15T08:13:02Z</time>
      </trkpt>
      <trkpt lat="49.6559" lon="-1.57176">
        <ele>4</ele>
        <time>2020-06-15T08:13:03Z</time>
      </trkpt>
      <trkpt lat="49.65592" lon="-1.57169">
        <ele>4.1</ele>
        <time>2020-06-15T08:13:04Z</time>
      </trkpt>
      <trkpt lat="49.65593" lon="-1.57161">
        <ele>4.1</ele>
        <time>2020-06-15T08:13:05Z</time>
      </trkpt>
      <trkpt lat="49.65595" lon="-1.57155">
        <ele>4.2</ele>
        <time>2020-06-15T08:13:06Z</time>
      </trkpt>
      <trkpt lat="49.65596" lon="-1.57147">
        <ele>4.2</ele>
        <time>2020-06-15T08:13:07Z</time>
      </trkpt>
      <trkpt lat="49.65597" lon="-1.5714">
        <ele>4.2</ele>
        <time>2020-06-15T08:13:08Z</time>
      </trkpt>
      <trkpt lat="49.65599" lon="-1.57133">
        <ele>4.3</ele>
        <time>2020-06-15T08:13:09Z</time>
      </trkpt>
      <trkpt lat="49.656" lon="-1.57126">
        <ele>4.3</ele>
        <time>2020-06-15T08:13:10Z</time>
      </trkpt>
      <trkpt lat="49.65602" lon="-1.57119">
        <ele>4.3</ele>
        <time>2020-06-15T08:13:11Z</time>
      </trkpt>
      <trkpt lat="49.65604" lon="-1.57112">
        <ele>4.3</ele>
        <time>2020-06-15T08:13:12Z</time>
      </trkpt>
      <trkpt lat="49.65605" lon="-1.57105">
        <ele>4.3</ele>
        <time>2020-06-15T08:13:13Z</time>
      </trkpt>
      <trkpt lat="49.65607" lon="-1.57099">
        <ele>4.3</ele>
        <time>2020-06-15T08:13:14Z</time>
      </trkpt>
      <trkpt lat="49.65609" lon="-1.57092">
        <ele>4.3</ele>
        <time>2020-06-15T08:13:15Z</time>
      </trkpt>
      <trkpt lat="49.65611" lon="-1.57085">
        <ele>4.2</ele>
        <time>2020-06-15T08:13:16Z</time>
      </trkpt>
      <trkpt lat="49.65612" lon="-1.57078">
        <ele>4.2</ele>
        <time>2020-06-15T08:13:17Z</time>
      </trkpt>
      <trkpt lat="49.65613" lon="-1.5707">
        <ele>4.1</ele>
        <time>2020-06-15T08:13:18Z</time>
      </trkpt>
      <trkpt lat="49.65616" lon="-1.57063">
        <ele>4</ele>
        <time>2020-06-15T08:13:19Z</time>
      </trkpt>
      <trkpt lat="49.65617" lon="-1.57056">
        <ele>4</ele>
        <time>2020-06-15T08:13:20Z</time>
      </trkpt>
      <trkpt lat="49.65619" lon="-1.57049">
        <ele>3.9</ele>
        <time>2020-06-15T08:13:21Z</time>
      </trkpt>
      <trkpt lat="49.65621" lon="-1.57042">
        <ele>3.8</ele>
        <time>2020-06-15T08:13:22Z</time>
      </trkpt>
      <trkpt lat="49.65623" lon="-1.57034">
        <ele>3.8</ele>
        <time>2020-06-15T08:13:23Z</time>
      </trkpt>
      <trkpt lat="49.65625" lon="-1.57027">
        <ele>3.7</ele>
        <time>2020-06-15T08:13:24Z</time>
      </trkpt>
      <trkpt lat="49.65627" lon="-1.5702">
        <ele>3.6</ele>
        <time>2020-06-15T08:13:25Z</time>
      </trkpt>
      <trkpt lat="49.65629" lon="-1.57013">
        <ele>3.6</ele>
        <time>2020-06-15T08:13:26Z</time>
      </trkpt>
      <trkpt lat="49.65631" lon="-1.57006">
        <ele>3.5</ele>
        <time>2020-06-15T08:13:27Z</time>
      </trkpt>
      <trkpt lat="49.65633" lon="-1.56999">
        <ele>3.5</ele>
        <time>2020-06-15T08:13:28Z</time>
      </trkpt>
      <trkpt lat="49.65635" lon="-1.56992">
        <ele>3.4</ele>
        <time>2020-06-15T08:13:29Z</time>
      </trkpt>
      <trkpt lat="49.65638" lon="-1.56986">
        <ele>3.3</ele>
        <time>2020-06-15T08:13:30Z</time>
      </trkpt>
      <trkpt lat="49.6564" lon="-1.56979">
        <ele>3.3</ele>
        <time>2020-06-15T08:13:31Z</time>
      </trkpt>
      <trkpt lat="49.65641" lon="-1.56972">
        <ele>3.4</ele>
        <time>2020-06-15T08:13:32Z</time>
      </trkpt>
      <trkpt lat="49.65641" lon="-1.56965">
        <ele>4</ele>
        <time>2020-06-15T08:13:33Z</time>
      </trkpt>
      <trkpt lat="49.65639" lon="-1.56959">
        <ele>4.1</ele>
        <time>2020-06-15T08:13:34Z</time>
      </trkpt>
      <trkpt lat="49.65639" lon="-1.56951">
        <ele>4.1</ele>
        <time>2020-06-15T08:13:35Z</time>
      </trkpt>
      <trkpt lat="49.65638" lon="-1.56944">
        <ele>4.2</ele>
        <time>2020-06-15T08:13:36Z</time>
      </trkpt>
      <trkpt lat="49.65639" lon="-1.56937">
        <ele>4.2</ele>
        <time>2020-06-15T08:13:37Z</time>
      </trkpt>
      <trkpt lat="49.65639" lon="-1.56931">
        <ele>4.3</ele>
        <time>2020-06-15T08:13:38Z</time>
      </trkpt>
      <trkpt lat="49.65639" lon="-1.56924">
        <ele>4.3</ele>
        <time>2020-06-15T08:13:39Z</time>
      </trkpt>
      <trkpt lat="49.6564" lon="-1.56918">
        <ele>4.3</ele>
        <time>2020-06-15T08:13:40Z</time>
      </trkpt>
      <trkpt lat="49.6564" lon="-1.56912">
        <ele>4.4</ele>
        <time>2020-06-15T08:13:41Z</time>
      </trkpt>
      <trkpt lat="49.6564" lon="-1.56905">
        <ele>4.4</ele>
        <time>2020-06-15T08:13:42Z</time>
      </trkpt>
      <trkpt lat="49.65641" lon="-1.56898">
        <ele>4.4</ele>
        <time>2020-06-15T08:13:43Z</time>
      </trkpt>
      <trkpt lat="49.65642" lon="-1.56891">
        <ele>4.5</ele>
        <time>2020-06-15T08:13:44Z</time>
      </trkpt>
      <trkpt lat="49.65642" lon="-1.56884">
        <ele>4.5</ele>
        <time>2020-06-15T08:13:45Z</time>
      </trkpt>
      <trkpt lat="49.65642" lon="-1.56877">
        <ele>4.5</ele>
        <time>2020-06-15T08:13:46Z</time>
      </trkpt>
      <trkpt lat="49.65643" lon="-1.56871">
        <ele>4.5</ele>
        <time>2020-06-15T08:13:47Z</time>
      </trkpt>
      <trkpt lat="49.65644" lon="-1.56864">
        <ele>4.5</ele>
        <time>2020-06-15T08:13:48Z</time>
      </trkpt>
      <trkpt lat="49.65644" lon="-1.56857">
        <ele>4.6</ele>
        <time>2020-06-15T08:13:49Z</time>
      </trkpt>
      <trkpt lat="49.65644" lon="-1.5685">
        <ele>4.6</ele>
        <time>2020-06-15T08:13:50Z</time>
      </trkpt>
      <trkpt lat="49.65645" lon="-1.56844">
        <ele>4.6</ele>
        <time>2020-06-15T08:13:51Z</time>
      </trkpt>
      <trkpt lat="49.65646" lon="-1.56838">
        <ele>4.6</ele>
        <time>2020-06-15T08:13:52Z</time>
      </trkpt>
      <trkpt lat="49.65647" lon="-1.56832">
        <ele>4.5</ele>
        <time>2020-06-15T08:13:53Z</time>
      </trkpt>
      <trkpt lat="49.65647" lon="-1.56826">
        <ele>4.5</ele>
        <time>2020-06-15T08:13:54Z</time>
      </trkpt>
      <trkpt lat="49.65647" lon="-1.5682">
        <ele>4.5</ele>
        <time>2020-06-15T08:13:55Z</time>
      </trkpt>
      <trkpt lat="49.65648" lon="-1.56813">
        <ele>4.5</ele>
        <time>2020-06-15T08:13:56Z</time>
      </trkpt>
      <trkpt lat="49.65649" lon="-1.56807">
        <ele>4.4</ele>
        <time>2020-06-15T08:13:57Z</time>
      </trkpt>
      <trkpt lat="49.6565" lon="-1.56801">
        <ele>4.4</ele>
        <time>2020-06-15T08:13:58Z</time>
      </trkpt>
      <trkpt lat="49.65651" lon="-1.56796">
        <ele>4.4</ele>
        <time>2020-06-15T08:13:59Z</time>
      </trkpt>
      <trkpt lat="49.65652" lon="-1.5679">
        <ele>4.4</ele>
        <time>2020-06-15T08:14:00Z</time>
      </trkpt>
      <trkpt lat="49.65652" lon="-1.56785">
        <ele>4.4</ele>
        <time>2020-06-15T08:14:01Z</time>
      </trkpt>
      <trkpt lat="49.65652" lon="-1.5678">
        <ele>4.4</ele>
        <time>2020-06-15T08:14:02Z</time>
      </trkpt>
      <trkpt lat="49.65652" lon="-1.56775">
        <ele>4.4</ele>
        <time>2020-06-15T08:14:03Z</time>
      </trkpt>
      <trkpt lat="49.65653" lon="-1.56771">
        <ele>4.4</ele>
        <time>2020-06-15T08:14:04Z</time>
      </trkpt>
      <trkpt lat="49.65654" lon="-1.56766">
        <ele>4.4</ele>
        <time>2020-06-15T08:14:05Z</time>
      </trkpt>
      <trkpt lat="49.65654" lon="-1.56765">
        <ele>4.4</ele>
        <time>2020-06-15T08:14:06Z</time>
      </trkpt>
      <trkpt lat="49.65656" lon="-1.56765">
        <ele>4.4</ele>
        <time>2020-06-15T08:14:07Z</time>
      </trkpt>
      <trkpt lat="49.65657" lon="-1.56765">
        <ele>4.4</ele>
        <time>2020-06-15T08:14:08Z</time>
      </trkpt>
      <trkpt lat="49.65656" lon="-1.56765">
        <ele>4.4</ele>
        <time>2020-06-15T08:14:09Z</time>
      </trkpt>
      <trkpt lat="49.65656" lon="-1.56765">
        <ele>4.4</ele>
        <time>2020-06-15T08:14:10Z</time>
      </trkpt>
      <trkpt lat="49.65656" lon="-1.56765">
        <ele>4.4</ele>
        <time>2020-06-15T08:14:11Z</time>
      </trkpt>
      <trkpt lat="49.65657" lon="-1.56765">
        <ele>4.4</ele>
        <time>2020-06-15T08:14:12Z</time>
      </trkpt>
      <trkpt lat="49.65657" lon="-1.56764">
        <ele>4.4</ele>
        <time>2020-06-15T08:14:13Z</time>
      </trkpt>
      <trkpt lat="49.65657" lon="-1.56762">
        <ele>4.4</ele>
        <time>2020-06-15T08:14:14Z</time>
      </trkpt>
      <trkpt lat="49.65657" lon="-1.5676">
        <ele>4.4</ele>
        <time>2020-06-15T08:14:15Z</time>
      </trkpt>
      <trkpt lat="49.65657" lon="-1.56759">
        <ele>4.4</ele>
        <time>2020-06-15T08:14:16Z</time>
      </trkpt>
      <trkpt lat="49.65657" lon="-1.56757">
        <ele>4.4</ele>
        <time>2020-06-15T08:14:17Z</time>
      </trkpt>
      <trkpt lat="49.65657" lon="-1.56755">
        <ele>4.4</ele>
        <time>2020-06-15T08:14:18Z</time>
      </trkpt>
      <trkpt lat="49.65657" lon="-1.56753">
        <ele>4.4</ele>
        <time>2020-06-15T08:14:56Z</time>
      </trkpt>
      <trkpt lat="49.65657" lon="-1.56752">
        <ele>4.4</ele>
        <time>2020-06-15T08:14:57Z</time>
      </trkpt>
      <trkpt lat="49.65658" lon="-1.56747">
        <ele>4.4</ele>
        <time>2020-06-15T08:14:58Z</time>
      </trkpt>
      <trkpt lat="49.65659" lon="-1.56742">
        <ele>4.4</ele>
        <time>2020-06-15T08:14:59Z</time>
      </trkpt>
      <trkpt lat="49.65659" lon="-1.56737">
        <ele>4.4</ele>
        <time>2020-06-15T08:15:00Z</time>
      </trkpt>
      <trkpt lat="49.65658" lon="-1.56731">
        <ele>4.4</ele>
        <time>2020-06-15T08:15:01Z</time>
      </trkpt>
      <trkpt lat="49.65657" lon="-1.56726">
        <ele>4.4</ele>
        <time>2020-06-15T08:15:02Z</time>
      </trkpt>
      <trkpt lat="49.65656" lon="-1.56722">
        <ele>4.5</ele>
        <time>2020-06-15T08:15:03Z</time>
      </trkpt>
      <trkpt lat="49.65656" lon="-1.56718">
        <ele>4.4</ele>
        <time>2020-06-15T08:15:04Z</time>
      </trkpt>
      <trkpt lat="49.65656" lon="-1.56712">
        <ele>4.4</ele>
        <time>2020-06-15T08:15:05Z</time>
      </trkpt>
      <trkpt lat="49.65656" lon="-1.5671">
        <ele>4.4</ele>
        <time>2020-06-15T08:15:06Z</time>
      </trkpt>
      <trkpt lat="49.65656" lon="-1.56705">
        <ele>4.4</ele>
        <time>2020-06-15T08:15:07Z</time>
      </trkpt>
      <trkpt lat="49.65656" lon="-1.56704">
        <ele>4.4</ele>
        <time>2020-06-15T08:15:08Z</time>
      </trkpt>
      <trkpt lat="49.65655" lon="-1.56701">
        <ele>4.4</ele>
        <time>2020-06-15T08:15:09Z</time>
      </trkpt>
      <trkpt lat="49.65655" lon="-1.567">
        <ele>4.4</ele>
        <time>2020-06-15T08:15:10Z</time>
      </trkpt>
      <trkpt lat="49.65655" lon="-1.567">
        <ele>4.4</ele>
        <time>2020-06-15T08:15:11Z</time>
      </trkpt>
      <trkpt lat="49.65655" lon="-1.567">
        <ele>4.4</ele>
        <time>2020-06-15T08:15:12Z</time>
      </trkpt>
      <trkpt lat="49.65655" lon="-1.567">
        <ele>4.4</ele>
        <time>2020-06-15T08:15:13Z</time>
      </trkpt>
      <trkpt lat="49.65655" lon="-1.567">
        <ele>4.4</ele>
        <time>2020-06-15T08:15:14Z</time>
      </trkpt>
      <trkpt lat="49.65655" lon="-1.56699">
        <ele>4.4</ele>
        <time>2020-06-15T08:15:15Z</time>
      </trkpt>
      <trkpt lat="49.65655" lon="-1.56699">
        <ele>4.4</ele>
        <time>2020-06-15T08:15:16Z</time>
      </trkpt>
      <trkpt lat="49.65655" lon="-1.56699">
        <ele>4.4</ele>
        <time>2020-06-15T08:15:17Z</time>
      </trkpt>
      <trkpt lat="49.65655" lon="-1.56699">
        <ele>4.4</ele>
        <time>2020-06-15T08:15:18Z</time>
      </trkpt>
      <trkpt lat="49.65654" lon="-1.56699">
        <ele>4.4</ele>
        <time>2020-06-15T08:15:19Z</time>
      </trkpt>
      <trkpt lat="49.65653" lon="-1.56699">
        <ele>4.4</ele>
        <time>2020-06-15T08:15:20Z</time>
      </trkpt>
      <trkpt lat="49.65653" lon="-1.56699">
        <ele>4.4</ele>
        <time>2020-06-15T08:15:21Z</time>
      </trkpt>
      <trkpt lat="49.65653" lon="-1.56699">
        <ele>4.4</ele>
        <time>2020-06-15T08:15:22Z</time>
      </trkpt>
      <trkpt lat="49.65654" lon="-1.56699">
        <ele>4.4</ele>
        <time>2020-06-15T08:15:23Z</time>
      </trkpt>
      <trkpt lat="49.65653" lon="-1.56699">
        <ele>4.4</ele>
        <time>2020-06-15T08:15:24Z</time>
      </trkpt>
      <trkpt lat="49.65652" lon="-1.56699">
        <ele>4.4</ele>
        <time>2020-06-15T08:15:25Z</time>
      </trkpt>
      <trkpt lat="49.65652" lon="-1.56699">
        <ele>4.4</ele>
        <time>2020-06-15T08:15:26Z</time>
      </trkpt>
      <trkpt lat="49.65652" lon="-1.56699">
        <ele>4.4</ele>
        <time>2020-06-15T08:15:27Z</time>
      </trkpt>
      <trkpt lat="49.65652" lon="-1.56699">
        <ele>4.4</ele>
        <time>2020-06-15T08:15:28Z</time>
      </trkpt>
      <trkpt lat="49.65651" lon="-1.56693">
        <ele>4.3</ele>
        <time>2020-06-15T08:15:49Z</time>
      </trkpt>
      <trkpt lat="49.65651" lon="-1.5669">
        <ele>4.3</ele>
        <time>2020-06-15T08:15:50Z</time>
      </trkpt>
      <trkpt lat="49.65652" lon="-1.56684">
        <ele>4.3</ele>
        <time>2020-06-15T08:15:51Z</time>
      </trkpt>
      <trkpt lat="49.65652" lon="-1.56683">
        <ele>4.3</ele>
        <time>2020-06-15T08:15:52Z</time>
      </trkpt>
      <trkpt lat="49.65652" lon="-1.56678">
        <ele>4.3</ele>
        <time>2020-06-15T08:15:53Z</time>
      </trkpt>
      <trkpt lat="49.65652" lon="-1.56676">
        <ele>4.3</ele>
        <time>2020-06-15T08:15:54Z</time>
      </trkpt>
      <trkpt lat="49.65651" lon="-1.56671">
        <ele>4.2</ele>
        <time>2020-06-15T08:15:55Z</time>
      </trkpt>
      <trkpt lat="49.65651" lon="-1.56669">
        <ele>4.2</ele>
        <time>2020-06-15T08:15:56Z</time>
      </trkpt>
      <trkpt lat="49.65651" lon="-1.56664">
        <ele>4.2</ele>
        <time>2020-06-15T08:15:57Z</time>
      </trkpt>
      <trkpt lat="49.6565" lon="-1.56663">
        <ele>4.2</ele>
        <time>2020-06-15T08:15:58Z</time>
      </trkpt>
      <trkpt lat="49.6565" lon="-1.56658">
        <ele>4.2</ele>
        <time>2020-06-15T08:15:59Z</time>
      </trkpt>
      <trkpt lat="49.6565" lon="-1.56656">
        <ele>4.2</ele>
        <time>2020-06-15T08:16:00Z</time>
      </trkpt>
      <trkpt lat="49.65649" lon="-1.56651">
        <ele>4.1</ele>
        <time>2020-06-15T08:16:01Z</time>
      </trkpt>
      <trkpt lat="49.65649" lon="-1.56646">
        <ele>4.1</ele>
        <time>2020-06-15T08:16:02Z</time>
      </trkpt>
      <trkpt lat="49.65649" lon="-1.5664">
        <ele>4.1</ele>
        <time>2020-06-15T08:16:03Z</time>
      </trkpt>
      <trkpt lat="49.65648" lon="-1.56634">
        <ele>4</ele>
        <time>2020-06-15T08:16:04Z</time>
      </trkpt>
      <trkpt lat="49.65648" lon="-1.56628">
        <ele>4</ele>
        <time>2020-06-15T08:16:05Z</time>
      </trkpt>
      <trkpt lat="49.65647" lon="-1.56621">
        <ele>4</ele>
        <time>2020-06-15T08:16:06Z</time>
      </trkpt>
      <trkpt lat="49.65646" lon="-1.56614">
        <ele>4</ele>
        <time>2020-06-15T08:16:07Z</time>
      </trkpt>
      <trkpt lat="49.65646" lon="-1.56608">
        <ele>4</ele>
        <time>2020-06-15T08:16:08Z</time>
      </trkpt>
      <trkpt lat="49.65645" lon="-1.56603">
        <ele>3.9</ele>
        <time>2020-06-15T08:16:09Z</time>
      </trkpt>
      <trkpt lat="49.65644" lon="-1.56598">
        <ele>3.9</ele>
        <time>2020-06-15T08:16:10Z</time>
      </trkpt>
      <trkpt lat="49.65643" lon="-1.56593">
        <ele>3.9</ele>
        <time>2020-06-15T08:16:11Z</time>
      </trkpt>
      <trkpt lat="49.65641" lon="-1.56588">
        <ele>3.9</ele>
        <time>2020-06-15T08:16:12Z</time>
      </trkpt>
      <trkpt lat="49.6564" lon="-1.56583">
        <ele>3.9</ele>
        <time>2020-06-15T08:16:13Z</time>
      </trkpt>
      <trkpt lat="49.65639" lon="-1.56578">
        <ele>3.9</ele>
        <time>2020-06-15T08:16:14Z</time>
      </trkpt>
      <trkpt lat="49.65638" lon="-1.56572">
        <ele>3.9</ele>
        <time>2020-06-15T08:16:15Z</time>
      </trkpt>
      <trkpt lat="49.65637" lon="-1.56567">
        <ele>3.9</ele>
        <time>2020-06-15T08:16:16Z</time>
      </trkpt>
      <trkpt lat="49.65636" lon="-1.56561">
        <ele>3.9</ele>
        <time>2020-06-15T08:16:17Z</time>
      </trkpt>
      <trkpt lat="49.65635" lon="-1.56555">
        <ele>3.9</ele>
        <time>2020-06-15T08:16:18Z</time>
      </trkpt>
      <trkpt lat="49.65634" lon="-1.5655">
        <ele>3.9</ele>
        <time>2020-06-15T08:16:19Z</time>
      </trkpt>
      <trkpt lat="49.65633" lon="-1.56544">
        <ele>3.9</ele>
        <time>2020-06-15T08:16:20Z</time>
      </trkpt>
      <trkpt lat="49.65632" lon="-1.56539">
        <ele>3.9</ele>
        <time>2020-06-15T08:16:21Z</time>
      </trkpt>
      <trkpt lat="49.65631" lon="-1.56534">
        <ele>3.8</ele>
        <time>2020-06-15T08:16:22Z</time>
      </trkpt>
      <trkpt lat="49.65631" lon="-1.56528">
        <ele>3.8</ele>
        <time>2020-06-15T08:16:23Z</time>
      </trkpt>
      <trkpt lat="49.6563" lon="-1.56522">
        <ele>3.8</ele>
        <time>2020-06-15T08:16:24Z</time>
      </trkpt>
      <trkpt lat="49.65629" lon="-1.56517">
        <ele>3.8</ele>
        <time>2020-06-15T08:16:25Z</time>
      </trkpt>
      <trkpt lat="49.65627" lon="-1.56511">
        <ele>3.8</ele>
        <time>2020-06-15T08:16:26Z</time>
      </trkpt>
      <trkpt lat="49.65625" lon="-1.56506">
        <ele>3.7</ele>
        <time>2020-06-15T08:16:27Z</time>
      </trkpt>
      <trkpt lat="49.65623" lon="-1.56501">
        <ele>3.7</ele>
        <time>2020-06-15T08:16:28Z</time>
      </trkpt>
      <trkpt lat="49.65621" lon="-1.56495">
        <ele>3.7</ele>
        <time>2020-06-15T08:16:29Z</time>
      </trkpt>
      <trkpt lat="49.6562" lon="-1.56489">
        <ele>3.7</ele>
        <time>2020-06-15T08:16:30Z</time>
      </trkpt>
      <trkpt lat="49.65619" lon="-1.56483">
        <ele>3.7</ele>
        <time>2020-06-15T08:16:31Z</time>
      </trkpt>
      <trkpt lat="49.65617" lon="-1.56478">
        <ele>3.7</ele>
        <time>2020-06-15T08:16:32Z</time>
      </trkpt>
      <trkpt lat="49.65615" lon="-1.56473">
        <ele>3.7</ele>
        <time>2020-06-15T08:16:33Z</time>
      </trkpt>
      <trkpt lat="49.65613" lon="-1.56467">
        <ele>3.7</ele>
        <time>2020-06-15T08:16:34Z</time>
      </trkpt>
      <trkpt lat="49.65612" lon="-1.56462">
        <ele>3.7</ele>
        <time>2020-06-15T08:16:35Z</time>
      </trkpt>
      <trkpt lat="49.6561" lon="-1.56456">
        <ele>3.7</ele>
        <time>2020-06-15T08:16:36Z</time>
      </trkpt>
      <trkpt lat="49.65608" lon="-1.5645">
        <ele>3.7</ele>
        <time>2020-06-15T08:16:37Z</time>
      </trkpt>
      <trkpt lat="49.65607" lon="-1.56444">
        <ele>3.7</ele>
        <time>2020-06-15T08:16:38Z</time>
      </trkpt>
      <trkpt lat="49.65606" lon="-1.56438">
        <ele>3.7</ele>
        <time>2020-06-15T08:16:39Z</time>
      </trkpt>
      <trkpt lat="49.65604" lon="-1.56432">
        <ele>3.7</ele>
        <time>2020-06-15T08:16:40Z</time>
      </trkpt>
      <trkpt lat="49.65602" lon="-1.56426">
        <ele>3.7</ele>
        <time>2020-06-15T08:16:41Z</time>
      </trkpt>
      <trkpt lat="49.656" lon="-1.5642">
        <ele>3.7</ele>
        <time>2020-06-15T08:16:42Z</time>
      </trkpt>
      <trkpt lat="49.65598" lon="-1.56414">
        <ele>3.7</ele>
        <time>2020-06-15T08:16:43Z</time>
      </trkpt>
      <trkpt lat="49.65597" lon="-1.56408">
        <ele>3.7</ele>
        <time>2020-06-15T08:16:44Z</time>
      </trkpt>
      <trkpt lat="49.65595" lon="-1.56402">
        <ele>3.7</ele>
        <time>2020-06-15T08:16:45Z</time>
      </trkpt>
      <trkpt lat="49.65594" lon="-1.56396">
        <ele>3.6</ele>
        <time>2020-06-15T08:16:46Z</time>
      </trkpt>
      <trkpt lat="49.65593" lon="-1.56389">
        <ele>3.6</ele>
        <time>2020-06-15T08:16:47Z</time>
      </trkpt>
      <trkpt lat="49.65591" lon="-1.56383">
        <ele>3.6</ele>
        <time>2020-06-15T08:16:48Z</time>
      </trkpt>
      <trkpt lat="49.65589" lon="-1.56377">
        <ele>3.5</ele>
        <time>2020-06-15T08:16:49Z</time>
      </trkpt>
      <trkpt lat="49.65588" lon="-1.56371">
        <ele>3.5</ele>
        <time>2020-06-15T08:16:50Z</time>
      </trkpt>
      <trkpt lat="49.65586" lon="-1.56365">
        <ele>3.5</ele>
        <time>2020-06-15T08:16:51Z</time>
      </trkpt>
      <trkpt lat="49.65584" lon="-1.5636">
        <ele>3.5</ele>
        <time>2020-06-15T08:16:52Z</time>
      </trkpt>
      <trkpt lat="49.65583" lon="-1.56354">
        <ele>3.4</ele>
        <time>2020-06-15T08:16:53Z</time>
      </trkpt>
      <trkpt lat="49.65581" lon="-1.56348">
        <ele>3.4</ele>
        <time>2020-06-15T08:16:54Z</time>
      </trkpt>
      <trkpt lat="49.6558" lon="-1.56343">
        <ele>3.4</ele>
        <time>2020-06-15T08:16:55Z</time>
      </trkpt>
      <trkpt lat="49.65578" lon="-1.56338">
        <ele>3.4</ele>
        <time>2020-06-15T08:16:56Z</time>
      </trkpt>
      <trkpt lat="49.65578" lon="-1.56333">
        <ele>3.4</ele>
        <time>2020-06-15T08:16:57Z</time>
      </trkpt>
      <trkpt lat="49.65578" lon="-1.56328">
        <ele>3.4</ele>
        <time>2020-06-15T08:16:58Z</time>
      </trkpt>
      <trkpt lat="49.65577" lon="-1.56323">
        <ele>3.3</ele>
        <time>2020-06-15T08:16:59Z</time>
      </trkpt>
      <trkpt lat="49.65576" lon="-1.56319">
        <ele>3.3</ele>
        <time>2020-06-15T08:17:00Z</time>
      </trkpt>
      <trkpt lat="49.65574" lon="-1.56314">
        <ele>3.3</ele>
        <time>2020-06-15T08:17:01Z</time>
      </trkpt>
      <trkpt lat="49.65573" lon="-1.5631">
        <ele>3.3</ele>
        <time>2020-06-15T08:17:02Z</time>
      </trkpt>
      <trkpt lat="49.65571" lon="-1.56306">
        <ele>3.3</ele>
        <time>2020-06-15T08:17:03Z</time>
      </trkpt>
      <trkpt lat="49.65569" lon="-1.56302">
        <ele>3.2</ele>
        <time>2020-06-15T08:17:04Z</time>
      </trkpt>
      <trkpt lat="49.65568" lon="-1.56298">
        <ele>3.2</ele>
        <time>2020-06-15T08:17:05Z</time>
      </trkpt>
      <trkpt lat="49.65567" lon="-1.56294">
        <ele>3.2</ele>
        <time>2020-06-15T08:17:06Z</time>
      </trkpt>
      <trkpt lat="49.65565" lon="-1.5629">
        <ele>3.2</ele>
        <time>2020-06-15T08:17:07Z</time>
      </trkpt>
      <trkpt lat="49.65564" lon="-1.56286">
        <ele>3.2</ele>
        <time>2020-06-15T08:17:08Z</time>
      </trkpt>
      <trkpt lat="49.65563" lon="-1.56282">
        <ele>3.2</ele>
        <time>2020-06-15T08:17:09Z</time>
      </trkpt>
      <trkpt lat="49.65562" lon="-1.56278">
        <ele>3.2</ele>
        <time>2020-06-15T08:17:10Z</time>
      </trkpt>
      <trkpt lat="49.65561" lon="-1.56273">
        <ele>3.2</ele>
        <time>2020-06-15T08:17:11Z</time>
      </trkpt>
      <trkpt lat="49.65559" lon="-1.56269">
        <ele>3.1</ele>
        <time>2020-06-15T08:17:12Z</time>
      </trkpt>
      <trkpt lat="49.65558" lon="-1.56264">
        <ele>3.1</ele>
        <time>2020-06-15T08:17:13Z</time>
      </trkpt>
      <trkpt lat="49.65556" lon="-1.56258">
        <ele>3.1</ele>
        <time>2020-06-15T08:17:14Z</time>
      </trkpt>
      <trkpt lat="49.65556" lon="-1.56252">
        <ele>3.1</ele>
        <time>2020-06-15T08:17:15Z</time>
      </trkpt>
      <trkpt lat="49.65556" lon="-1.56246">
        <ele>3.1</ele>
        <time>2020-06-15T08:17:16Z</time>
      </trkpt>
      <trkpt lat="49.65555" lon="-1.5624">
        <ele>3.1</ele>
        <time>2020-06-15T08:17:17Z</time>
      </trkpt>
      <trkpt lat="49.65553" lon="-1.56234">
        <ele>3</ele>
        <time>2020-06-15T08:17:18Z</time>
      </trkpt>
      <trkpt lat="49.65551" lon="-1.56229">
        <ele>3</ele>
        <time>2020-06-15T08:17:19Z</time>
      </trkpt>
      <trkpt lat="49.65549" lon="-1.56224">
        <ele>3</ele>
        <time>2020-06-15T08:17:20Z</time>
      </trkpt>
      <trkpt lat="49.65548" lon="-1.56218">
        <ele>3</ele>
        <time>2020-06-15T08:17:21Z</time>
      </trkpt>
      <trkpt lat="49.65546" lon="-1.56212">
        <ele>3</ele>
        <time>2020-06-15T08:17:22Z</time>
      </trkpt>
      <trkpt lat="49.65545" lon="-1.56206">
        <ele>3</ele>
        <time>2020-06-15T08:17:23Z</time>
      </trkpt>
      <trkpt lat="49.65543" lon="-1.56201">
        <ele>3</ele>
        <time>2020-06-15T08:17:24Z</time>
      </trkpt>
      <trkpt lat="49.65541" lon="-1.56195">
        <ele>3.1</ele>
        <time>2020-06-15T08:17:25Z</time>
      </trkpt>
      <trkpt lat="49.6554" lon="-1.56189">
        <ele>3.1</ele>
        <time>2020-06-15T08:17:26Z</time>
      </trkpt>
      <trkpt lat="49.65538" lon="-1.56183">
        <ele>3.1</ele>
        <time>2020-06-15T08:17:27Z</time>
      </trkpt>
      <trkpt lat="49.65537" lon="-1.56177">
        <ele>3.1</ele>
        <time>2020-06-15T08:17:28Z</time>
      </trkpt>
      <trkpt lat="49.65536" lon="-1.56171">
        <ele>3.1</ele>
        <time>2020-06-15T08:17:29Z</time>
      </trkpt>
      <trkpt lat="49.65533" lon="-1.56165">
        <ele>3.1</ele>
        <time>2020-06-15T08:17:30Z</time>
      </trkpt>
      <trkpt lat="49.65532" lon="-1.56159">
        <ele>3.1</ele>
        <time>2020-06-15T08:17:31Z</time>
      </trkpt>
      <trkpt lat="49.6553" lon="-1.56152">
        <ele>3.1</ele>
        <time>2020-06-15T08:17:32Z</time>
      </trkpt>
      <trkpt lat="49.65529" lon="-1.56146">
        <ele>3.1</ele>
        <time>2020-06-15T08:17:33Z</time>
      </trkpt>
      <trkpt lat="49.65527" lon="-1.5614">
        <ele>3.1</ele>
        <time>2020-06-15T08:17:34Z</time>
      </trkpt>
      <trkpt lat="49.65525" lon="-1.56134">
        <ele>3.1</ele>
        <time>2020-06-15T08:17:35Z</time>
      </trkpt>
      <trkpt lat="49.65523" lon="-1.56128">
        <ele>3</ele>
        <time>2020-06-15T08:17:36Z</time>
      </trkpt>
      <trkpt lat="49.65521" lon="-1.56122">
        <ele>3</ele>
        <time>2020-06-15T08:17:37Z</time>
      </trkpt>
      <trkpt lat="49.6552" lon="-1.56115">
        <ele>3</ele>
        <time>2020-06-15T08:17:38Z</time>
      </trkpt>
      <trkpt lat="49.65518" lon="-1.56109">
        <ele>3</ele>
        <time>2020-06-15T08:17:39Z</time>
      </trkpt>
      <trkpt lat="49.65517" lon="-1.56103">
        <ele>3</ele>
        <time>2020-06-15T08:17:40Z</time>
      </trkpt>
      <trkpt lat="49.65515" lon="-1.56097">
        <ele>3</ele>
        <time>2020-06-15T08:17:41Z</time>
      </trkpt>
      <trkpt lat="49.65513" lon="-1.56091">
        <ele>3</ele>
        <time>2020-06-15T08:17:42Z</time>
      </trkpt>
      <trkpt lat="49.65511" lon="-1.56085">
        <ele>3</ele>
        <time>2020-06-15T08:17:43Z</time>
      </trkpt>
      <trkpt lat="49.6551" lon="-1.56079">
        <ele>3</ele>
        <time>2020-06-15T08:17:44Z</time>
      </trkpt>
      <trkpt lat="49.65509" lon="-1.56073">
        <ele>3</ele>
        <time>2020-06-15T08:17:45Z</time>
      </trkpt>
      <trkpt lat="49.65507" lon="-1.56067">
        <ele>3</ele>
        <time>2020-06-15T08:17:46Z</time>
      </trkpt>
      <trkpt lat="49.65505" lon="-1.56061">
        <ele>2.9</ele>
        <time>2020-06-15T08:17:47Z</time>
      </trkpt>
      <trkpt lat="49.65504" lon="-1.56054">
        <ele>2.9</ele>
        <time>2020-06-15T08:17:48Z</time>
      </trkpt>
      <trkpt lat="49.65503" lon="-1.56047">
        <ele>2.9</ele>
        <time>2020-06-15T08:17:49Z</time>
      </trkpt>
      <trkpt lat="49.65501" lon="-1.56041">
        <ele>2.9</ele>
        <time>2020-06-15T08:17:50Z</time>
      </trkpt>
      <trkpt lat="49.655" lon="-1.56035">
        <ele>2.9</ele>
        <time>2020-06-15T08:17:51Z</time>
      </trkpt>
      <trkpt lat="49.65499" lon="-1.56028">
        <ele>2.9</ele>
        <time>2020-06-15T08:17:52Z</time>
      </trkpt>
      <trkpt lat="49.65497" lon="-1.56022">
        <ele>2.9</ele>
        <time>2020-06-15T08:17:53Z</time>
      </trkpt>
      <trkpt lat="49.65495" lon="-1.56016">
        <ele>2.9</ele>
        <time>2020-06-15T08:17:54Z</time>
      </trkpt>
      <trkpt lat="49.65494" lon="-1.5601">
        <ele>2.9</ele>
        <time>2020-06-15T08:17:55Z</time>
      </trkpt>
      <trkpt lat="49.65491" lon="-1.56004">
        <ele>2.9</ele>
        <time>2020-06-15T08:17:56Z</time>
      </trkpt>
      <trkpt lat="49.65489" lon="-1.55998">
        <ele>2.9</ele>
        <time>2020-06-15T08:17:57Z</time>
      </trkpt>
      <trkpt lat="49.65487" lon="-1.55993">
        <ele>2.9</ele>
        <time>2020-06-15T08:17:58Z</time>
      </trkpt>
      <trkpt lat="49.65485" lon="-1.55987">
        <ele>3</ele>
        <time>2020-06-15T08:17:59Z</time>
      </trkpt>
      <trkpt lat="49.65484" lon="-1.55981">
        <ele>3</ele>
        <time>2020-06-15T08:18:00Z</time>
      </trkpt>
      <trkpt lat="49.65482" lon="-1.55976">
        <ele>3</ele>
        <time>2020-06-15T08:18:01Z</time>
      </trkpt>
      <trkpt lat="49.6548" lon="-1.5597">
        <ele>3</ele>
        <time>2020-06-15T08:18:02Z</time>
      </trkpt>
      <trkpt lat="49.65479" lon="-1.55967">
        <ele>3</ele>
        <time>2020-06-15T08:18:03Z</time>
      </trkpt>
      <trkpt lat="49.65477" lon="-1.55966">
        <ele>3</ele>
        <time>2020-06-15T08:18:04Z</time>
      </trkpt>
      <trkpt lat="49.65476" lon="-1.55968">
        <ele>3</ele>
        <time>2020-06-15T08:18:05Z</time>
      </trkpt>
      <trkpt lat="49.65473" lon="-1.5597">
        <ele>3</ele>
        <time>2020-06-15T08:18:06Z</time>
      </trkpt>
      <trkpt lat="49.65473" lon="-1.5597">
        <ele>3</ele>
        <time>2020-06-15T08:18:07Z</time>
      </trkpt>
      <trkpt lat="49.65471" lon="-1.5597">
        <ele>3</ele>
        <time>2020-06-15T08:18:08Z</time>
      </trkpt>
      <trkpt lat="49.65469" lon="-1.55969">
        <ele>3</ele>
        <time>2020-06-15T08:18:09Z</time>
      </trkpt>
      <trkpt lat="49.65468" lon="-1.55968">
        <ele>3</ele>
        <time>2020-06-15T08:18:10Z</time>
      </trkpt>
      <trkpt lat="49.65466" lon="-1.55966">
        <ele>3</ele>
        <time>2020-06-15T08:18:11Z</time>
      </trkpt>
      <trkpt lat="49.65465" lon="-1.55965">
        <ele>3</ele>
        <time>2020-06-15T08:18:12Z</time>
      </trkpt>
      <trkpt lat="49.65463" lon="-1.55964">
        <ele>3</ele>
        <time>2020-06-15T08:18:13Z</time>
      </trkpt>
      <trkpt lat="49.65462" lon="-1.55963">
        <ele>3</ele>
        <time>2020-06-15T08:18:14Z</time>
      </trkpt>
      <trkpt lat="49.6546" lon="-1.55962">
        <ele>3</ele>
        <time>2020-06-15T08:18:15Z</time>
      </trkpt>
      <trkpt lat="49.65458" lon="-1.55959">
        <ele>3</ele>
        <time>2020-06-15T08:18:16Z</time>
      </trkpt>
      <trkpt lat="49.65457" lon="-1.55958">
        <ele>3</ele>
        <time>2020-06-15T08:18:17Z</time>
      </trkpt>
      <trkpt lat="49.65456" lon="-1.55954">
        <ele>2.9</ele>
        <time>2020-06-15T08:18:18Z</time>
      </trkpt>
      <trkpt lat="49.65455" lon="-1.55953">
        <ele>2.9</ele>
        <time>2020-06-15T08:18:19Z</time>
      </trkpt>
      <trkpt lat="49.65453" lon="-1.55951">
        <ele>2.9</ele>
        <time>2020-06-15T08:18:20Z</time>
      </trkpt>
      <trkpt lat="49.65452" lon="-1.5595">
        <ele>2.9</ele>
        <time>2020-06-15T08:18:21Z</time>
      </trkpt>
      <trkpt lat="49.65449" lon="-1.55947">
        <ele>2.9</ele>
        <time>2020-06-15T08:18:22Z</time>
      </trkpt>
      <trkpt lat="49.65448" lon="-1.55947">
        <ele>2.9</ele>
        <time>2020-06-15T08:18:23Z</time>
      </trkpt>
      <trkpt lat="49.65446" lon="-1.55944">
        <ele>2.9</ele>
        <time>2020-06-15T08:18:24Z</time>
      </trkpt>
      <trkpt lat="49.65445" lon="-1.55943">
        <ele>2.8</ele>
        <time>2020-06-15T08:18:25Z</time>
      </trkpt>
      <trkpt lat="49.65442" lon="-1.55941">
        <ele>2.8</ele>
        <time>2020-06-15T08:18:26Z</time>
      </trkpt>
      <trkpt lat="49.65441" lon="-1.5594">
        <ele>2.8</ele>
        <time>2020-06-15T08:18:27Z</time>
      </trkpt>
      <trkpt lat="49.65438" lon="-1.55939">
        <ele>2.8</ele>
        <time>2020-06-15T08:18:28Z</time>
      </trkpt>
      <trkpt lat="49.65437" lon="-1.55939">
        <ele>2.8</ele>
        <time>2020-06-15T08:18:29Z</time>
      </trkpt>
      <trkpt lat="49.65434" lon="-1.55941">
        <ele>2.8</ele>
        <time>2020-06-15T08:18:30Z</time>
      </trkpt>
      <trkpt lat="49.6543" lon="-1.55942">
        <ele>2.8</ele>
        <time>2020-06-15T08:18:31Z</time>
      </trkpt>
      <trkpt lat="49.65429" lon="-1.55943">
        <ele>2.8</ele>
        <time>2020-06-15T08:18:32Z</time>
      </trkpt>
      <trkpt lat="49.65426" lon="-1.55944">
        <ele>2.9</ele>
        <time>2020-06-15T08:18:33Z</time>
      </trkpt>
      <trkpt lat="49.65424" lon="-1.55946">
        <ele>2.9</ele>
        <time>2020-06-15T08:18:34Z</time>
      </trkpt>
      <trkpt lat="49.65421" lon="-1.55948">
        <ele>3</ele>
        <time>2020-06-15T08:18:35Z</time>
      </trkpt>
      <trkpt lat="49.65418" lon="-1.5595">
        <ele>3</ele>
        <time>2020-06-15T08:18:36Z</time>
      </trkpt>
      <trkpt lat="49.65415" lon="-1.5595">
        <ele>3.1</ele>
        <time>2020-06-15T08:18:37Z</time>
      </trkpt>
      <trkpt lat="49.65411" lon="-1.55949">
        <ele>3.1</ele>
        <time>2020-06-15T08:18:38Z</time>
      </trkpt>
      <trkpt lat="49.65408" lon="-1.5595">
        <ele>3.1</ele>
        <time>2020-06-15T08:18:39Z</time>
      </trkpt>
      <trkpt lat="49.65404" lon="-1.55951">
        <ele>3.2</ele>
        <time>2020-06-15T08:18:40Z</time>
      </trkpt>
      <trkpt lat="49.654" lon="-1.55951">
        <ele>3.3</ele>
        <time>2020-06-15T08:18:41Z</time>
      </trkpt>
      <trkpt lat="49.65396" lon="-1.55952">
        <ele>3.4</ele>
        <time>2020-06-15T08:18:42Z</time>
      </trkpt>
      <trkpt lat="49.65392" lon="-1.55952">
        <ele>3.5</ele>
        <time>2020-06-15T08:18:43Z</time>
      </trkpt>
      <trkpt lat="49.65388" lon="-1.55952">
        <ele>3.6</ele>
        <time>2020-06-15T08:18:44Z</time>
      </trkpt>
      <trkpt lat="49.65384" lon="-1.55951">
        <ele>3.8</ele>
        <time>2020-06-15T08:18:45Z</time>
      </trkpt>
      <trkpt lat="49.65379" lon="-1.55951">
        <ele>3.9</ele>
        <time>2020-06-15T08:18:46Z</time>
      </trkpt>
      <trkpt lat="49.65375" lon="-1.55951">
        <ele>4.1</ele>
        <time>2020-06-15T08:18:47Z</time>
      </trkpt>
      <trkpt lat="49.65371" lon="-1.55952">
        <ele>4.2</ele>
        <time>2020-06-15T08:18:48Z</time>
      </trkpt>
      <trkpt lat="49.65366" lon="-1.55952">
        <ele>4.3</ele>
        <time>2020-06-15T08:18:49Z</time>
      </trkpt>
      <trkpt lat="49.65362" lon="-1.55952">
        <ele>4.4</ele>
        <time>2020-06-15T08:18:50Z</time>
      </trkpt>
      <trkpt lat="49.65357" lon="-1.55951">
        <ele>4.5</ele>
        <time>2020-06-15T08:18:51Z</time>
      </trkpt>
      <trkpt lat="49.65353" lon="-1.5595">
        <ele>4.6</ele>
        <time>2020-06-15T08:18:52Z</time>
      </trkpt>
      <trkpt lat="49.65349" lon="-1.55951">
        <ele>4.7</ele>
        <time>2020-06-15T08:18:53Z</time>
      </trkpt>
      <trkpt lat="49.65344" lon="-1.5595">
        <ele>4.8</ele>
        <time>2020-06-15T08:18:54Z</time>
      </trkpt>
      <trkpt lat="49.6534" lon="-1.5595">
        <ele>4.9</ele>
        <time>2020-06-15T08:18:55Z</time>
      </trkpt>
      <trkpt lat="49.65336" lon="-1.55949">
        <ele>5</ele>
        <time>2020-06-15T08:18:56Z</time>
      </trkpt>
      <trkpt lat="49.65331" lon="-1.55949">
        <ele>5.1</ele>
        <time>2020-06-15T08:18:57Z</time>
      </trkpt>
      <trkpt lat="49.65327" lon="-1.55948">
        <ele>5.2</ele>
        <time>2020-06-15T08:18:58Z</time>
      </trkpt>
      <trkpt lat="49.65323" lon="-1.55948">
        <ele>5.3</ele>
        <time>2020-06-15T08:18:59Z</time>
      </trkpt>
      <trkpt lat="49.65319" lon="-1.55948">
        <ele>5.3</ele>
        <time>2020-06-15T08:19:00Z</time>
      </trkpt>
      <trkpt lat="49.65315" lon="-1.55947">
        <ele>5.4</ele>
        <time>2020-06-15T08:19:01Z</time>
      </trkpt>
      <trkpt lat="49.65311" lon="-1.55947">
        <ele>5.4</ele>
        <time>2020-06-15T08:19:02Z</time>
      </trkpt>
      <trkpt lat="49.65307" lon="-1.55946">
        <ele>5.4</ele>
        <time>2020-06-15T08:19:03Z</time>
      </trkpt>
      <trkpt lat="49.65302" lon="-1.55945">
        <ele>5.5</ele>
        <time>2020-06-15T08:19:04Z</time>
      </trkpt>
      <trkpt lat="49.65298" lon="-1.55945">
        <ele>5.6</ele>
        <time>2020-06-15T08:19:05Z</time>
      </trkpt>
      <trkpt lat="49.65294" lon="-1.55945">
        <ele>5.6</ele>
        <time>2020-06-15T08:19:06Z</time>
      </trkpt>
      <trkpt lat="49.6529" lon="-1.55945">
        <ele>5.7</ele>
        <time>2020-06-15T08:19:07Z</time>
      </trkpt>
      <trkpt lat="49.65285" lon="-1.55943">
        <ele>5.7</ele>
        <time>2020-06-15T08:19:08Z</time>
      </trkpt>
      <trkpt lat="49.65281" lon="-1.55941">
        <ele>5.8</ele>
        <time>2020-06-15T08:19:09Z</time>
      </trkpt>
      <trkpt lat="49.65277" lon="-1.55939">
        <ele>5.9</ele>
        <time>2020-06-15T08:19:10Z</time>
      </trkpt>
      <trkpt lat="49.65273" lon="-1.55937">
        <ele>6.1</ele>
        <time>2020-06-15T08:19:11Z</time>
      </trkpt>
      <trkpt lat="49.65269" lon="-1.55936">
        <ele>6.2</ele>
        <time>2020-06-15T08:19:12Z</time>
      </trkpt>
      <trkpt lat="49.65265" lon="-1.55935">
        <ele>6.3</ele>
        <time>2020-06-15T08:19:13Z</time>
      </trkpt>
      <trkpt lat="49.65261" lon="-1.55934">
        <ele>6.4</ele>
        <time>2020-06-15T08:19:14Z</time>
      </trkpt>
      <trkpt lat="49.65257" lon="-1.55933">
        <ele>6.5</ele>
        <time>2020-06-15T08:19:15Z</time>
      </trkpt>
      <trkpt lat="49.65252" lon="-1.55932">
        <ele>6.6</ele>
        <time>2020-06-15T08:19:16Z</time>
      </trkpt>
      <trkpt lat="49.65248" lon="-1.55932">
        <ele>7</ele>
        <time>2020-06-15T08:19:17Z</time>
      </trkpt>
      <trkpt lat="49.65244" lon="-1.55932">
        <ele>7.2</ele>
        <time>2020-06-15T08:19:18Z</time>
      </trkpt>
      <trkpt lat="49.65239" lon="-1.55932">
        <ele>7.3</ele>
        <time>2020-06-15T08:19:19Z</time>
      </trkpt>
      <trkpt lat="49.65235" lon="-1.55931">
        <ele>7.5</ele>
        <time>2020-06-15T08:19:20Z</time>
      </trkpt>
      <trkpt lat="49.65232" lon="-1.55931">
        <ele>7.6</ele>
        <time>2020-06-15T08:19:21Z</time>
      </trkpt>
      <trkpt lat="49.65228" lon="-1.55929">
        <ele>7.8</ele>
        <time>2020-06-15T08:19:22Z</time>
      </trkpt>
      <trkpt lat="49.65224" lon="-1.55927">
        <ele>7.9</ele>
        <time>2020-06-15T08:19:23Z</time>
      </trkpt>
      <trkpt lat="49.65221" lon="-1.55926">
        <ele>8</ele>
        <time>2020-06-15T08:19:24Z</time>
      </trkpt>
      <trkpt lat="49.65217" lon="-1.55924">
        <ele>8.1</ele>
        <time>2020-06-15T08:19:25Z</time>
      </trkpt>
      <trkpt lat="49.65214" lon="-1.55921">
        <ele>8.3</ele>
        <time>2020-06-15T08:19:26Z</time>
      </trkpt>
      <trkpt lat="49.65211" lon="-1.55918">
        <ele>8.4</ele>
        <time>2020-06-15T08:19:27Z</time>
      </trkpt>
      <trkpt lat="49.65207" lon="-1.55915">
        <ele>8.6</ele>
        <time>2020-06-15T08:19:28Z</time>
      </trkpt>
      <trkpt lat="49.65204" lon="-1.55913">
        <ele>8.7</ele>
        <time>2020-06-15T08:19:29Z</time>
      </trkpt>
      <trkpt lat="49.652" lon="-1.55911">
        <ele>8.9</ele>
        <time>2020-06-15T08:19:30Z</time>
      </trkpt>
      <trkpt lat="49.65196" lon="-1.5591">
        <ele>9</ele>
        <time>2020-06-15T08:19:31Z</time>
      </trkpt>
      <trkpt lat="49.65193" lon="-1.55909">
        <ele>9.1</ele>
        <time>2020-06-15T08:19:32Z</time>
      </trkpt>
      <trkpt lat="49.6519" lon="-1.55906">
        <ele>9.3</ele>
        <time>2020-06-15T08:19:33Z</time>
      </trkpt>
      <trkpt lat="49.65187" lon="-1.55904">
        <ele>9.4</ele>
        <time>2020-06-15T08:19:34Z</time>
      </trkpt>
      <trkpt lat="49.65185" lon="-1.55902">
        <ele>9.5</ele>
        <time>2020-06-15T08:19:35Z</time>
      </trkpt>
      <trkpt lat="49.65183" lon="-1.55899">
        <ele>9.7</ele>
        <time>2020-06-15T08:19:36Z</time>
      </trkpt>
      <trkpt lat="49.65181" lon="-1.55896">
        <ele>9.8</ele>
        <time>2020-06-15T08:19:37Z</time>
      </trkpt>
      <trkpt lat="49.65177" lon="-1.55893">
        <ele>10</ele>
        <time>2020-06-15T08:19:38Z</time>
      </trkpt>
      <trkpt lat="49.65177" lon="-1.55891">
        <ele>10</ele>
        <time>2020-06-15T08:19:39Z</time>
      </trkpt>
      <trkpt lat="49.65174" lon="-1.55888">
        <ele>10.2</ele>
        <time>2020-06-15T08:19:40Z</time>
      </trkpt>
      <trkpt lat="49.65173" lon="-1.55887">
        <ele>10.3</ele>
        <time>2020-06-15T08:19:41Z</time>
      </trkpt>
      <trkpt lat="49.65169" lon="-1.55885">
        <ele>10.4</ele>
        <time>2020-06-15T08:19:42Z</time>
      </trkpt>
      <trkpt lat="49.65168" lon="-1.55884">
        <ele>10.5</ele>
        <time>2020-06-15T08:19:43Z</time>
      </trkpt>
      <trkpt lat="49.65167" lon="-1.55883">
        <ele>10.6</ele>
        <time>2020-06-15T08:19:44Z</time>
      </trkpt>
      <trkpt lat="49.65167" lon="-1.5588">
        <ele>10.6</ele>
        <time>2020-06-15T08:19:45Z</time>
      </trkpt>
      <trkpt lat="49.65167" lon="-1.55873">
        <ele>10.8</ele>
        <time>2020-06-15T08:19:46Z</time>
      </trkpt>
      <trkpt lat="49.65167" lon="-1.55871">
        <ele>10.9</ele>
        <time>2020-06-15T08:19:47Z</time>
      </trkpt>
      <trkpt lat="49.65167" lon="-1.55865">
        <ele>11.1</ele>
        <time>2020-06-15T08:19:48Z</time>
      </trkpt>
      <trkpt lat="49.65168" lon="-1.55859">
        <ele>11.1</ele>
        <time>2020-06-15T08:19:49Z</time>
      </trkpt>
      <trkpt lat="49.65169" lon="-1.55854">
        <ele>11.1</ele>
        <time>2020-06-15T08:19:50Z</time>
      </trkpt>
      <trkpt lat="49.65171" lon="-1.55847">
        <ele>11.1</ele>
        <time>2020-06-15T08:19:51Z</time>
      </trkpt>
      <trkpt lat="49.65171" lon="-1.55841">
        <ele>11.1</ele>
        <time>2020-06-15T08:19:52Z</time>
      </trkpt>
      <trkpt lat="49.65172" lon="-1.55834">
        <ele>11.1</ele>
        <time>2020-06-15T08:19:53Z</time>
      </trkpt>
      <trkpt lat="49.65174" lon="-1.55828">
        <ele>11.2</ele>
        <time>2020-06-15T08:19:54Z</time>
      </trkpt>
      <trkpt lat="49.65175" lon="-1.55822">
        <ele>11.2</ele>
        <time>2020-06-15T08:19:55Z</time>
      </trkpt>
      <trkpt lat="49.65175" lon="-1.55815">
        <ele>11.3</ele>
        <time>2020-06-15T08:19:56Z</time>
      </trkpt>
      <trkpt lat="49.65176" lon="-1.55809">
        <ele>11.3</ele>
        <time>2020-06-15T08:19:57Z</time>
      </trkpt>
      <trkpt lat="49.65177" lon="-1.55802">
        <ele>11.2</ele>
        <time>2020-06-15T08:19:58Z</time>
      </trkpt>
      <trkpt lat="49.65178" lon="-1.55795">
        <ele>11.2</ele>
        <time>2020-06-15T08:19:59Z</time>
      </trkpt>
      <trkpt lat="49.65179" lon="-1.55788">
        <ele>11.2</ele>
        <time>2020-06-15T08:20:00Z</time>
      </trkpt>
      <trkpt lat="49.65181" lon="-1.55781">
        <ele>11.2</ele>
        <time>2020-06-15T08:20:01Z</time>
      </trkpt>
      <trkpt lat="49.65181" lon="-1.55773">
        <ele>11.2</ele>
        <time>2020-06-15T08:20:02Z</time>
      </trkpt>
      <trkpt lat="49.65182" lon="-1.55765">
        <ele>11.2</ele>
        <time>2020-06-15T08:20:03Z</time>
      </trkpt>
      <trkpt lat="49.65183" lon="-1.55758">
        <ele>11.2</ele>
        <time>2020-06-15T08:20:04Z</time>
      </trkpt>
      <trkpt lat="49.65185" lon="-1.55751">
        <ele>11.2</ele>
        <time>2020-06-15T08:20:05Z</time>
      </trkpt>
      <trkpt lat="49.65186" lon="-1.55744">
        <ele>11.2</ele>
        <time>2020-06-15T08:20:06Z</time>
      </trkpt>
      <trkpt lat="49.65188" lon="-1.55737">
        <ele>11.2</ele>
        <time>2020-06-15T08:20:07Z</time>
      </trkpt>
      <trkpt lat="49.65188" lon="-1.55729">
        <ele>11.3</ele>
        <time>2020-06-15T08:20:08Z</time>
      </trkpt>
      <trkpt lat="49.65188" lon="-1.55723">
        <ele>11.3</ele>
        <time>2020-06-15T08:20:09Z</time>
      </trkpt>
      <trkpt lat="49.65189" lon="-1.55716">
        <ele>11.3</ele>
        <time>2020-06-15T08:20:10Z</time>
      </trkpt>
      <trkpt lat="49.65189" lon="-1.55709">
        <ele>11.4</ele>
        <time>2020-06-15T08:20:11Z</time>
      </trkpt>
      <trkpt lat="49.65189" lon="-1.55702">
        <ele>11.4</ele>
        <time>2020-06-15T08:20:12Z</time>
      </trkpt>
      <trkpt lat="49.65189" lon="-1.55695">
        <ele>11.5</ele>
        <time>2020-06-15T08:20:13Z</time>
      </trkpt>
      <trkpt lat="49.6519" lon="-1.55687">
        <ele>11.5</ele>
        <time>2020-06-15T08:20:14Z</time>
      </trkpt>
      <trkpt lat="49.65189" lon="-1.5568">
        <ele>11.6</ele>
        <time>2020-06-15T08:20:15Z</time>
      </trkpt>
      <trkpt lat="49.65189" lon="-1.55672">
        <ele>11.7</ele>
        <time>2020-06-15T08:20:16Z</time>
      </trkpt>
      <trkpt lat="49.65189" lon="-1.55664">
        <ele>11.7</ele>
        <time>2020-06-15T08:20:17Z</time>
      </trkpt>
      <trkpt lat="49.65188" lon="-1.55657">
        <ele>11.8</ele>
        <time>2020-06-15T08:20:18Z</time>
      </trkpt>
      <trkpt lat="49.65188" lon="-1.55649">
        <ele>11.7</ele>
        <time>2020-06-15T08:20:19Z</time>
      </trkpt>
      <trkpt lat="49.65188" lon="-1.55641">
        <ele>11.7</ele>
        <time>2020-06-15T08:20:20Z</time>
      </trkpt>
      <trkpt lat="49.65189" lon="-1.55633">
        <ele>11.7</ele>
        <time>2020-06-15T08:20:21Z</time>
      </trkpt>
      <trkpt lat="49.65189" lon="-1.55625">
        <ele>11.7</ele>
        <time>2020-06-15T08:20:22Z</time>
      </trkpt>
      <trkpt lat="49.65189" lon="-1.55618">
        <ele>11.8</ele>
        <time>2020-06-15T08:20:23Z</time>
      </trkpt>
      <trkpt lat="49.65189" lon="-1.5561">
        <ele>11.8</ele>
        <time>2020-06-15T08:20:24Z</time>
      </trkpt>
      <trkpt lat="49.65189" lon="-1.55603">
        <ele>11.8</ele>
        <time>2020-06-15T08:20:25Z</time>
      </trkpt>
      <trkpt lat="49.65189" lon="-1.55596">
        <ele>11.9</ele>
        <time>2020-06-15T08:20:26Z</time>
      </trkpt>
      <trkpt lat="49.65189" lon="-1.55587">
        <ele>11.9</ele>
        <time>2020-06-15T08:20:27Z</time>
      </trkpt>
      <trkpt lat="49.65189" lon="-1.55579">
        <ele>12</ele>
        <time>2020-06-15T08:20:28Z</time>
      </trkpt>
      <trkpt lat="49.65189" lon="-1.55572">
        <ele>12.1</ele>
        <time>2020-06-15T08:20:29Z</time>
      </trkpt>
      <trkpt lat="49.65189" lon="-1.55566">
        <ele>12.1</ele>
        <time>2020-06-15T08:20:30Z</time>
      </trkpt>
      <trkpt lat="49.65189" lon="-1.55559">
        <ele>12.1</ele>
        <time>2020-06-15T08:20:31Z</time>
      </trkpt>
      <trkpt lat="49.6519" lon="-1.55553">
        <ele>12.1</ele>
        <time>2020-06-15T08:20:32Z</time>
      </trkpt>
      <trkpt lat="49.6519" lon="-1.55544">
        <ele>12.2</ele>
        <time>2020-06-15T08:20:33Z</time>
      </trkpt>
      <trkpt lat="49.65191" lon="-1.55535">
        <ele>12.1</ele>
        <time>2020-06-15T08:20:34Z</time>
      </trkpt>
      <trkpt lat="49.65193" lon="-1.55528">
        <ele>12.1</ele>
        <time>2020-06-15T08:20:35Z</time>
      </trkpt>
      <trkpt lat="49.65193" lon="-1.55519">
        <ele>12.1</ele>
        <time>2020-06-15T08:20:36Z</time>
      </trkpt>
      <trkpt lat="49.65195" lon="-1.55512">
        <ele>12.1</ele>
        <time>2020-06-15T08:20:37Z</time>
      </trkpt>
      <trkpt lat="49.65197" lon="-1.55505">
        <ele>12.1</ele>
        <time>2020-06-15T08:20:38Z</time>
      </trkpt>
      <trkpt lat="49.65201" lon="-1.55497">
        <ele>12.1</ele>
        <time>2020-06-15T08:20:39Z</time>
      </trkpt>
      <trkpt lat="49.65205" lon="-1.5549">
        <ele>12</ele>
        <time>2020-06-15T08:20:40Z</time>
      </trkpt>
      <trkpt lat="49.65209" lon="-1.55484">
        <ele>12</ele>
        <time>2020-06-15T08:20:41Z</time>
      </trkpt>
      <trkpt lat="49.65214" lon="-1.55476">
        <ele>11.9</ele>
        <time>2020-06-15T08:20:42Z</time>
      </trkpt>
      <trkpt lat="49.65218" lon="-1.55468">
        <ele>11.9</ele>
        <time>2020-06-15T08:20:43Z</time>
      </trkpt>
      <trkpt lat="49.6522" lon="-1.55462">
        <ele>11.9</ele>
        <time>2020-06-15T08:20:44Z</time>
      </trkpt>
      <trkpt lat="49.65223" lon="-1.55456">
        <ele>11.9</ele>
        <time>2020-06-15T08:20:45Z</time>
      </trkpt>
      <trkpt lat="49.65225" lon="-1.5545">
        <ele>11.9</ele>
        <time>2020-06-15T08:20:46Z</time>
      </trkpt>
      <trkpt lat="49.65229" lon="-1.55444">
        <ele>11.8</ele>
        <time>2020-06-15T08:20:47Z</time>
      </trkpt>
      <trkpt lat="49.65232" lon="-1.55436">
        <ele>11.8</ele>
        <time>2020-06-15T08:20:48Z</time>
      </trkpt>
      <trkpt lat="49.65234" lon="-1.5543">
        <ele>11.8</ele>
        <time>2020-06-15T08:20:49Z</time>
      </trkpt>
      <trkpt lat="49.65237" lon="-1.55424">
        <ele>11.7</ele>
        <time>2020-06-15T08:20:50Z</time>
      </trkpt>
      <trkpt lat="49.6524" lon="-1.55419">
        <ele>11.7</ele>
        <time>2020-06-15T08:20:51Z</time>
      </trkpt>
      <trkpt lat="49.65243" lon="-1.55411">
        <ele>11.6</ele>
        <time>2020-06-15T08:20:52Z</time>
      </trkpt>
      <trkpt lat="49.65246" lon="-1.55405">
        <ele>11.5</ele>
        <time>2020-06-15T08:20:53Z</time>
      </trkpt>
      <trkpt lat="49.6525" lon="-1.55399">
        <ele>11.5</ele>
        <time>2020-06-15T08:20:54Z</time>
      </trkpt>
      <trkpt lat="49.65253" lon="-1.55393">
        <ele>11.4</ele>
        <time>2020-06-15T08:20:55Z</time>
      </trkpt>
      <trkpt lat="49.65256" lon="-1.55387">
        <ele>11.4</ele>
        <time>2020-06-15T08:20:56Z</time>
      </trkpt>
      <trkpt lat="49.65259" lon="-1.55381">
        <ele>11.4</ele>
        <time>2020-06-15T08:20:57Z</time>
      </trkpt>
      <trkpt lat="49.65261" lon="-1.55374">
        <ele>11.3</ele>
        <time>2020-06-15T08:20:58Z</time>
      </trkpt>
      <trkpt lat="49.65265" lon="-1.55366">
        <ele>11.3</ele>
        <time>2020-06-15T08:20:59Z</time>
      </trkpt>
      <trkpt lat="49.65267" lon="-1.5536">
        <ele>11.3</ele>
        <time>2020-06-15T08:21:00Z</time>
      </trkpt>
      <trkpt lat="49.6527" lon="-1.55353">
        <ele>11.3</ele>
        <time>2020-06-15T08:21:01Z</time>
      </trkpt>
      <trkpt lat="49.65273" lon="-1.55347">
        <ele>11.3</ele>
        <time>2020-06-15T08:21:02Z</time>
      </trkpt>
      <trkpt lat="49.65276" lon="-1.55343">
        <ele>11.3</ele>
        <time>2020-06-15T08:21:03Z</time>
      </trkpt>
      <trkpt lat="49.65278" lon="-1.55339">
        <ele>11.3</ele>
        <time>2020-06-15T08:21:04Z</time>
      </trkpt>
      <trkpt lat="49.6528" lon="-1.55335">
        <ele>11.2</ele>
        <time>2020-06-15T08:21:05Z</time>
      </trkpt>
      <trkpt lat="49.65281" lon="-1.5533">
        <ele>11.2</ele>
        <time>2020-06-15T08:21:06Z</time>
      </trkpt>
      <trkpt lat="49.65283" lon="-1.55325">
        <ele>11.1</ele>
        <time>2020-06-15T08:21:07Z</time>
      </trkpt>
      <trkpt lat="49.65286" lon="-1.5532">
        <ele>11</ele>
        <time>2020-06-15T08:21:08Z</time>
      </trkpt>
      <trkpt lat="49.65286" lon="-1.55318">
        <ele>11</ele>
        <time>2020-06-15T08:21:09Z</time>
      </trkpt>
      <trkpt lat="49.65287" lon="-1.55313">
        <ele>10.9</ele>
        <time>2020-06-15T08:21:10Z</time>
      </trkpt>
      <trkpt lat="49.65289" lon="-1.55306">
        <ele>10.8</ele>
        <time>2020-06-15T08:21:11Z</time>
      </trkpt>
      <trkpt lat="49.65291" lon="-1.553">
        <ele>10.7</ele>
        <time>2020-06-15T08:21:12Z</time>
      </trkpt>
      <trkpt lat="49.65292" lon="-1.55294">
        <ele>10.6</ele>
        <time>2020-06-15T08:21:13Z</time>
      </trkpt>
      <trkpt lat="49.65293" lon="-1.55285">
        <ele>10.4</ele>
        <time>2020-06-15T08:21:14Z</time>
      </trkpt>
      <trkpt lat="49.65295" lon="-1.55276">
        <ele>10.3</ele>
        <time>2020-06-15T08:21:15Z</time>
      </trkpt>
      <trkpt lat="49.65296" lon="-1.55268">
        <ele>10.2</ele>
        <time>2020-06-15T08:21:16Z</time>
      </trkpt>
      <trkpt lat="49.65295" lon="-1.55261">
        <ele>10.1</ele>
        <time>2020-06-15T08:21:17Z</time>
      </trkpt>
      <trkpt lat="49.65295" lon="-1.55253">
        <ele>10.1</ele>
        <time>2020-06-15T08:21:18Z</time>
      </trkpt>
      <trkpt lat="49.65294" lon="-1.55244">
        <ele>10</ele>
        <time>2020-06-15T08:21:19Z</time>
      </trkpt>
      <trkpt lat="49.65295" lon="-1.55236">
        <ele>10</ele>
        <time>2020-06-15T08:21:20Z</time>
      </trkpt>
      <trkpt lat="49.65295" lon="-1.55227">
        <ele>10</ele>
        <time>2020-06-15T08:21:21Z</time>
      </trkpt>
      <trkpt lat="49.65295" lon="-1.55219">
        <ele>9.9</ele>
        <time>2020-06-15T08:21:22Z</time>
      </trkpt>
      <trkpt lat="49.65296" lon="-1.5521">
        <ele>9.9</ele>
        <time>2020-06-15T08:21:23Z</time>
      </trkpt>
      <trkpt lat="49.65297" lon="-1.55201">
        <ele>9.8</ele>
        <time>2020-06-15T08:21:24Z</time>
      </trkpt>
      <trkpt lat="49.65297" lon="-1.55193">
        <ele>9.7</ele>
        <time>2020-06-15T08:21:25Z</time>
      </trkpt>
      <trkpt lat="49.65299" lon="-1.55184">
        <ele>9.6</ele>
        <time>2020-06-15T08:21:26Z</time>
      </trkpt>
      <trkpt lat="49.653" lon="-1.55176">
        <ele>9.4</ele>
        <time>2020-06-15T08:21:27Z</time>
      </trkpt>
      <trkpt lat="49.65301" lon="-1.55167">
        <ele>9.3</ele>
        <time>2020-06-15T08:21:28Z</time>
      </trkpt>
      <trkpt lat="49.65303" lon="-1.55158">
        <ele>9.2</ele>
        <time>2020-06-15T08:21:29Z</time>
      </trkpt>
      <trkpt lat="49.65303" lon="-1.55149">
        <ele>9.1</ele>
        <time>2020-06-15T08:21:30Z</time>
      </trkpt>
      <trkpt lat="49.65304" lon="-1.55142">
        <ele>9</ele>
        <time>2020-06-15T08:21:31Z</time>
      </trkpt>
      <trkpt lat="49.65305" lon="-1.55133">
        <ele>8.9</ele>
        <time>2020-06-15T08:21:32Z</time>
      </trkpt>
      <trkpt lat="49.65305" lon="-1.55124">
        <ele>8.8</ele>
        <time>2020-06-15T08:21:33Z</time>
      </trkpt>
      <trkpt lat="49.65306" lon="-1.55116">
        <ele>8.7</ele>
        <time>2020-06-15T08:21:34Z</time>
      </trkpt>
      <trkpt lat="49.65306" lon="-1.55107">
        <ele>8.6</ele>
        <time>2020-06-15T08:21:35Z</time>
      </trkpt>
      <trkpt lat="49.65306" lon="-1.55099">
        <ele>8.5</ele>
        <time>2020-06-15T08:21:36Z</time>
      </trkpt>
      <trkpt lat="49.65307" lon="-1.55091">
        <ele>8.5</ele>
        <time>2020-06-15T08:21:37Z</time>
      </trkpt>
      <trkpt lat="49.65307" lon="-1.55083">
        <ele>8.4</ele>
        <time>2020-06-15T08:21:38Z</time>
      </trkpt>
      <trkpt lat="49.65308" lon="-1.55076">
        <ele>8.3</ele>
        <time>2020-06-15T08:21:39Z</time>
      </trkpt>
      <trkpt lat="49.65309" lon="-1.55068">
        <ele>8.2</ele>
        <time>2020-06-15T08:21:40Z</time>
      </trkpt>
      <trkpt lat="49.6531" lon="-1.55058">
        <ele>8.1</ele>
        <time>2020-06-15T08:21:41Z</time>
      </trkpt>
      <trkpt lat="49.65311" lon="-1.5505">
        <ele>8</ele>
        <time>2020-06-15T08:21:42Z</time>
      </trkpt>
      <trkpt lat="49.65312" lon="-1.55041">
        <ele>7.9</ele>
        <time>2020-06-15T08:21:43Z</time>
      </trkpt>
      <trkpt lat="49.65312" lon="-1.55033">
        <ele>7.7</ele>
        <time>2020-06-15T08:21:44Z</time>
      </trkpt>
      <trkpt lat="49.65313" lon="-1.55025">
        <ele>7.6</ele>
        <time>2020-06-15T08:21:45Z</time>
      </trkpt>
      <trkpt lat="49.65313" lon="-1.55016">
        <ele>7.5</ele>
        <time>2020-06-15T08:21:46Z</time>
      </trkpt>
      <trkpt lat="49.65313" lon="-1.55007">
        <ele>7.4</ele>
        <time>2020-06-15T08:21:47Z</time>
      </trkpt>
      <trkpt lat="49.65313" lon="-1.54996">
        <ele>7.2</ele>
        <time>2020-06-15T08:21:48Z</time>
      </trkpt>
      <trkpt lat="49.65313" lon="-1.54987">
        <ele>7.1</ele>
        <time>2020-06-15T08:21:49Z</time>
      </trkpt>
      <trkpt lat="49.65314" lon="-1.54977">
        <ele>7</ele>
        <time>2020-06-15T08:21:50Z</time>
      </trkpt>
      <trkpt lat="49.65314" lon="-1.54967">
        <ele>6.9</ele>
        <time>2020-06-15T08:21:51Z</time>
      </trkpt>
      <trkpt lat="49.65315" lon="-1.54957">
        <ele>6.8</ele>
        <time>2020-06-15T08:21:52Z</time>
      </trkpt>
      <trkpt lat="49.65316" lon="-1.5495">
        <ele>6.6</ele>
        <time>2020-06-15T08:21:53Z</time>
      </trkpt>
      <trkpt lat="49.65317" lon="-1.54939">
        <ele>6.5</ele>
        <time>2020-06-15T08:21:54Z</time>
      </trkpt>
      <trkpt lat="49.65318" lon="-1.54929">
        <ele>6.3</ele>
        <time>2020-06-15T08:21:55Z</time>
      </trkpt>
      <trkpt lat="49.65319" lon="-1.5492">
        <ele>6.3</ele>
        <time>2020-06-15T08:21:56Z</time>
      </trkpt>
      <trkpt lat="49.65319" lon="-1.54909">
        <ele>6.2</ele>
        <time>2020-06-15T08:21:57Z</time>
      </trkpt>
      <trkpt lat="49.6532" lon="-1.549">
        <ele>6.1</ele>
        <time>2020-06-15T08:21:58Z</time>
      </trkpt>
      <trkpt lat="49.6532" lon="-1.5489">
        <ele>6</ele>
        <time>2020-06-15T08:21:59Z</time>
      </trkpt>
      <trkpt lat="49.65321" lon="-1.5488">
        <ele>6</ele>
        <time>2020-06-15T08:22:00Z</time>
      </trkpt>
      <trkpt lat="49.65321" lon="-1.5487">
        <ele>5.9</ele>
        <time>2020-06-15T08:22:01Z</time>
      </trkpt>
      <trkpt lat="49.65322" lon="-1.5486">
        <ele>5.9</ele>
        <time>2020-06-15T08:22:02Z</time>
      </trkpt>
      <trkpt lat="49.65323" lon="-1.5485">
        <ele>5.8</ele>
        <time>2020-06-15T08:22:03Z</time>
      </trkpt>
      <trkpt lat="49.65324" lon="-1.5484">
        <ele>5.7</ele>
        <time>2020-06-15T08:22:04Z</time>
      </trkpt>
      <trkpt lat="49.65325" lon="-1.54832">
        <ele>5.7</ele>
        <time>2020-06-15T08:22:05Z</time>
      </trkpt>
      <trkpt lat="49.65325" lon="-1.54821">
        <ele>5.6</ele>
        <time>2020-06-15T08:22:06Z</time>
      </trkpt>
      <trkpt lat="49.65325" lon="-1.54811">
        <ele>5.6</ele>
        <time>2020-06-15T08:22:07Z</time>
      </trkpt>
      <trkpt lat="49.65324" lon="-1.54801">
        <ele>5.6</ele>
        <time>2020-06-15T08:22:08Z</time>
      </trkpt>
      <trkpt lat="49.65324" lon="-1.54791">
        <ele>5.6</ele>
        <time>2020-06-15T08:22:09Z</time>
      </trkpt>
      <trkpt lat="49.65324" lon="-1.54781">
        <ele>5.5</ele>
        <time>2020-06-15T08:22:10Z</time>
      </trkpt>
      <trkpt lat="49.65324" lon="-1.54773">
        <ele>5.5</ele>
        <time>2020-06-15T08:22:11Z</time>
      </trkpt>
      <trkpt lat="49.65324" lon="-1.54763">
        <ele>5.5</ele>
        <time>2020-06-15T08:22:12Z</time>
      </trkpt>
      <trkpt lat="49.65324" lon="-1.54755">
        <ele>5.4</ele>
        <time>2020-06-15T08:22:13Z</time>
      </trkpt>
      <trkpt lat="49.65324" lon="-1.54746">
        <ele>5.4</ele>
        <time>2020-06-15T08:22:14Z</time>
      </trkpt>
      <trkpt lat="49.65325" lon="-1.54736">
        <ele>5.3</ele>
        <time>2020-06-15T08:22:15Z</time>
      </trkpt>
      <trkpt lat="49.65326" lon="-1.54728">
        <ele>5.3</ele>
        <time>2020-06-15T08:22:16Z</time>
      </trkpt>
      <trkpt lat="49.65326" lon="-1.5472">
        <ele>5.3</ele>
        <time>2020-06-15T08:22:17Z</time>
      </trkpt>
      <trkpt lat="49.65327" lon="-1.54711">
        <ele>5.3</ele>
        <time>2020-06-15T08:22:18Z</time>
      </trkpt>
      <trkpt lat="49.65327" lon="-1.54703">
        <ele>5.2</ele>
        <time>2020-06-15T08:22:19Z</time>
      </trkpt>
      <trkpt lat="49.65328" lon="-1.54694">
        <ele>5.2</ele>
        <time>2020-06-15T08:22:20Z</time>
      </trkpt>
      <trkpt lat="49.65329" lon="-1.54685">
        <ele>5.2</ele>
        <time>2020-06-15T08:22:21Z</time>
      </trkpt>
      <trkpt lat="49.6533" lon="-1.54676">
        <ele>5.2</ele>
        <time>2020-06-15T08:22:22Z</time>
      </trkpt>
      <trkpt lat="49.6533" lon="-1.54668">
        <ele>5.2</ele>
        <time>2020-06-15T08:22:23Z</time>
      </trkpt>
      <trkpt lat="49.65331" lon="-1.54659">
        <ele>5.2</ele>
        <time>2020-06-15T08:22:24Z</time>
      </trkpt>
      <trkpt lat="49.65332" lon="-1.54651">
        <ele>5.2</ele>
        <time>2020-06-15T08:22:25Z</time>
      </trkpt>
      <trkpt lat="49.65334" lon="-1.5464">
        <ele>5.2</ele>
        <time>2020-06-15T08:22:26Z</time>
      </trkpt>
      <trkpt lat="49.65335" lon="-1.54632">
        <ele>5.2</ele>
        <time>2020-06-15T08:22:27Z</time>
      </trkpt>
      <trkpt lat="49.65337" lon="-1.54624">
        <ele>5.2</ele>
        <time>2020-06-15T08:22:28Z</time>
      </trkpt>
      <trkpt lat="49.65338" lon="-1.54615">
        <ele>5.2</ele>
        <time>2020-06-15T08:22:29Z</time>
      </trkpt>
      <trkpt lat="49.65339" lon="-1.54607">
        <ele>5.3</ele>
        <time>2020-06-15T08:22:30Z</time>
      </trkpt>
      <trkpt lat="49.65339" lon="-1.54598">
        <ele>5.3</ele>
        <time>2020-06-15T08:22:31Z</time>
      </trkpt>
      <trkpt lat="49.6534" lon="-1.54589">
        <ele>5.4</ele>
        <time>2020-06-15T08:22:32Z</time>
      </trkpt>
      <trkpt lat="49.6534" lon="-1.54579">
        <ele>5.4</ele>
        <time>2020-06-15T08:22:33Z</time>
      </trkpt>
      <trkpt lat="49.6534" lon="-1.54569">
        <ele>5.5</ele>
        <time>2020-06-15T08:22:34Z</time>
      </trkpt>
      <trkpt lat="49.65341" lon="-1.5456">
        <ele>5.6</ele>
        <time>2020-06-15T08:22:35Z</time>
      </trkpt>
      <trkpt lat="49.65341" lon="-1.54552">
        <ele>5.7</ele>
        <time>2020-06-15T08:22:36Z</time>
      </trkpt>
      <trkpt lat="49.65342" lon="-1.54545">
        <ele>5.8</ele>
        <time>2020-06-15T08:22:37Z</time>
      </trkpt>
      <trkpt lat="49.65342" lon="-1.54539">
        <ele>5.9</ele>
        <time>2020-06-15T08:22:38Z</time>
      </trkpt>
      <trkpt lat="49.65343" lon="-1.54534">
        <ele>5.8</ele>
        <time>2020-06-15T08:22:39Z</time>
      </trkpt>
      <trkpt lat="49.65345" lon="-1.54531">
        <ele>5.7</ele>
        <time>2020-06-15T08:22:40Z</time>
      </trkpt>
      <trkpt lat="49.65347" lon="-1.5453">
        <ele>5.6</ele>
        <time>2020-06-15T08:22:41Z</time>
      </trkpt>
      <trkpt lat="49.6535" lon="-1.54534">
        <ele>5.4</ele>
        <time>2020-06-15T08:22:42Z</time>
      </trkpt>
      <trkpt lat="49.65355" lon="-1.54535">
        <ele>5.2</ele>
        <time>2020-06-15T08:22:43Z</time>
      </trkpt>
      <trkpt lat="49.6536" lon="-1.54535">
        <ele>5</ele>
        <time>2020-06-15T08:22:44Z</time>
      </trkpt>
      <trkpt lat="49.65365" lon="-1.54535">
        <ele>4.8</ele>
        <time>2020-06-15T08:22:45Z</time>
      </trkpt>
      <trkpt lat="49.65371" lon="-1.54535">
        <ele>4.6</ele>
        <time>2020-06-15T08:22:46Z</time>
      </trkpt>
      <trkpt lat="49.65377" lon="-1.54536">
        <ele>4.4</ele>
        <time>2020-06-15T08:22:47Z</time>
      </trkpt>
      <trkpt lat="49.65386" lon="-1.54537">
        <ele>4.1</ele>
        <time>2020-06-15T08:22:48Z</time>
      </trkpt>
      <trkpt lat="49.65392" lon="-1.54538">
        <ele>3.8</ele>
        <time>2020-06-15T08:22:49Z</time>
      </trkpt>
      <trkpt lat="49.65398" lon="-1.54539">
        <ele>3.6</ele>
        <time>2020-06-15T08:22:50Z</time>
      </trkpt>
      <trkpt lat="49.65404" lon="-1.5454">
        <ele>3.5</ele>
        <time>2020-06-15T08:22:51Z</time>
      </trkpt>
      <trkpt lat="49.65409" lon="-1.54541">
        <ele>3.3</ele>
        <time>2020-06-15T08:22:52Z</time>
      </trkpt>
      <trkpt lat="49.65413" lon="-1.54541">
        <ele>3.2</ele>
        <time>2020-06-15T08:22:53Z</time>
      </trkpt>
      <trkpt lat="49.65417" lon="-1.54542">
        <ele>3.1</ele>
        <time>2020-06-15T08:22:54Z</time>
      </trkpt>
      <trkpt lat="49.6542" lon="-1.54544">
        <ele>3</ele>
        <time>2020-06-15T08:22:55Z</time>
      </trkpt>
      <trkpt lat="49.65421" lon="-1.54544">
        <ele>3</ele>
        <time>2020-06-15T08:22:56Z</time>
      </trkpt>
      <trkpt lat="49.65424" lon="-1.54547">
        <ele>2.9</ele>
        <time>2020-06-15T08:22:57Z</time>
      </trkpt>
      <trkpt lat="49.65424" lon="-1.54555">
        <ele>2.7</ele>
        <time>2020-06-15T08:22:58Z</time>
      </trkpt>
      <trkpt lat="49.65424" lon="-1.5456">
        <ele>2.7</ele>
        <time>2020-06-15T08:22:59Z</time>
      </trkpt>
      <trkpt lat="49.65423" lon="-1.54565">
        <ele>2.6</ele>
        <time>2020-06-15T08:23:00Z</time>
      </trkpt>
      <trkpt lat="49.65423" lon="-1.54566">
        <ele>2.6</ele>
        <time>2020-06-15T08:23:01Z</time>
      </trkpt>
      <trkpt lat="49.65422" lon="-1.5457">
        <ele>2.5</ele>
        <time>2020-06-15T08:23:02Z</time>
      </trkpt>
      <trkpt lat="49.65424" lon="-1.54567">
        <ele>2.4</ele>
        <time>2020-06-15T08:23:03Z</time>
      </trkpt>
      <trkpt lat="49.65428" lon="-1.54564">
        <ele>2.4</ele>
        <time>2020-06-15T08:23:04Z</time>
      </trkpt>
      <trkpt lat="49.6543" lon="-1.5456">
        <ele>2.4</ele>
        <time>2020-06-15T08:23:05Z</time>
      </trkpt>
      <trkpt lat="49.65433" lon="-1.54557">
        <ele>2.4</ele>
        <time>2020-06-15T08:23:06Z</time>
      </trkpt>
      <trkpt lat="49.65434" lon="-1.54555">
        <ele>2.4</ele>
        <time>2020-06-15T08:23:07Z</time>
      </trkpt>
      <trkpt lat="49.65437" lon="-1.54553">
        <ele>2.4</ele>
        <time>2020-06-15T08:23:08Z</time>
      </trkpt>
      <trkpt lat="49.65439" lon="-1.54549">
        <ele>2.4</ele>
        <time>2020-06-15T08:23:09Z</time>
      </trkpt>
      <trkpt lat="49.65442" lon="-1.54545">
        <ele>2.4</ele>
        <time>2020-06-15T08:23:10Z</time>
      </trkpt>
      <trkpt lat="49.65445" lon="-1.54542">
        <ele>2.4</ele>
        <time>2020-06-15T08:23:11Z</time>
      </trkpt>
      <trkpt lat="49.65448" lon="-1.5454">
        <ele>2.4</ele>
        <time>2020-06-15T08:23:12Z</time>
      </trkpt>
      <trkpt lat="49.65451" lon="-1.54538">
        <ele>2.4</ele>
        <time>2020-06-15T08:23:13Z</time>
      </trkpt>
      <trkpt lat="49.65453" lon="-1.54535">
        <ele>2.5</ele>
        <time>2020-06-15T08:23:14Z</time>
      </trkpt>
      <trkpt lat="49.65456" lon="-1.54532">
        <ele>2.5</ele>
        <time>2020-06-15T08:23:15Z</time>
      </trkpt>
      <trkpt lat="49.65459" lon="-1.54529">
        <ele>2.5</ele>
        <time>2020-06-15T08:23:16Z</time>
      </trkpt>
      <trkpt lat="49.65461" lon="-1.54525">
        <ele>2.6</ele>
        <time>2020-06-15T08:23:17Z</time>
      </trkpt>
      <trkpt lat="49.65461" lon="-1.54523">
        <ele>2.6</ele>
        <time>2020-06-15T08:23:18Z</time>
      </trkpt>
      <trkpt lat="49.65462" lon="-1.5452">
        <ele>2.6</ele>
        <time>2020-06-15T08:23:19Z</time>
      </trkpt>
      <trkpt lat="49.65463" lon="-1.54518">
        <ele>2.6</ele>
        <time>2020-06-15T08:23:20Z</time>
      </trkpt>
      <trkpt lat="49.65466" lon="-1.54514">
        <ele>2.6</ele>
        <time>2020-06-15T08:23:21Z</time>
      </trkpt>
      <trkpt lat="49.65467" lon="-1.54513">
        <ele>2.6</ele>
        <time>2020-06-15T08:23:22Z</time>
      </trkpt>
      <trkpt lat="49.65469" lon="-1.54511">
        <ele>2.6</ele>
        <time>2020-06-15T08:23:23Z</time>
      </trkpt>
      <trkpt lat="49.65471" lon="-1.54509">
        <ele>2.6</ele>
        <time>2020-06-15T08:23:24Z</time>
      </trkpt>
      <trkpt lat="49.65471" lon="-1.54507">
        <ele>2.6</ele>
        <time>2020-06-15T08:23:25Z</time>
      </trkpt>
      <trkpt lat="49.65471" lon="-1.54502">
        <ele>2.6</ele>
        <time>2020-06-15T08:23:26Z</time>
      </trkpt>
      <trkpt lat="49.65471" lon="-1.545">
        <ele>2.6</ele>
        <time>2020-06-15T08:23:27Z</time>
      </trkpt>
      <trkpt lat="49.65469" lon="-1.54497">
        <ele>2.6</ele>
        <time>2020-06-15T08:23:28Z</time>
      </trkpt>
      <trkpt lat="49.65466" lon="-1.54494">
        <ele>2.6</ele>
        <time>2020-06-15T08:23:29Z</time>
      </trkpt>
      <trkpt lat="49.65463" lon="-1.54492">
        <ele>2.6</ele>
        <time>2020-06-15T08:23:30Z</time>
      </trkpt>
      <trkpt lat="49.65459" lon="-1.54489">
        <ele>2.6</ele>
        <time>2020-06-15T08:23:31Z</time>
      </trkpt>
      <trkpt lat="49.65455" lon="-1.54486">
        <ele>2.6</ele>
        <time>2020-06-15T08:23:32Z</time>
      </trkpt>
      <trkpt lat="49.6545" lon="-1.54484">
        <ele>2.6</ele>
        <time>2020-06-15T08:23:33Z</time>
      </trkpt>
      <trkpt lat="49.65447" lon="-1.54481">
        <ele>2.6</ele>
        <time>2020-06-15T08:23:34Z</time>
      </trkpt>
      <trkpt lat="49.65443" lon="-1.54477">
        <ele>2.6</ele>
        <time>2020-06-15T08:23:35Z</time>
      </trkpt>
      <trkpt lat="49.65439" lon="-1.54473">
        <ele>2.6</ele>
        <time>2020-06-15T08:23:36Z</time>
      </trkpt>
      <trkpt lat="49.65435" lon="-1.5447">
        <ele>2.6</ele>
        <time>2020-06-15T08:23:37Z</time>
      </trkpt>
      <trkpt lat="49.65432" lon="-1.54466">
        <ele>2.6</ele>
        <time>2020-06-15T08:23:38Z</time>
      </trkpt>
      <trkpt lat="49.65429" lon="-1.54462">
        <ele>2.6</ele>
        <time>2020-06-15T08:23:39Z</time>
      </trkpt>
      <trkpt lat="49.65426" lon="-1.54458">
        <ele>2.7</ele>
        <time>2020-06-15T08:23:40Z</time>
      </trkpt>
      <trkpt lat="49.65423" lon="-1.54453">
        <ele>2.7</ele>
        <time>2020-06-15T08:23:41Z</time>
      </trkpt>
      <trkpt lat="49.6542" lon="-1.54446">
        <ele>2.7</ele>
        <time>2020-06-15T08:23:42Z</time>
      </trkpt>
      <trkpt lat="49.65418" lon="-1.54441">
        <ele>2.7</ele>
        <time>2020-06-15T08:23:43Z</time>
      </trkpt>
      <trkpt lat="49.65416" lon="-1.54435">
        <ele>2.8</ele>
        <time>2020-06-15T08:23:44Z</time>
      </trkpt>
      <trkpt lat="49.65414" lon="-1.5443">
        <ele>2.8</ele>
        <time>2020-06-15T08:23:45Z</time>
      </trkpt>
      <trkpt lat="49.65412" lon="-1.54426">
        <ele>2.8</ele>
        <time>2020-06-15T08:23:46Z</time>
      </trkpt>
      <trkpt lat="49.65409" lon="-1.54422">
        <ele>2.9</ele>
        <time>2020-06-15T08:23:47Z</time>
      </trkpt>
      <trkpt lat="49.65407" lon="-1.54419">
        <ele>2.9</ele>
        <time>2020-06-15T08:23:48Z</time>
      </trkpt>
      <trkpt lat="49.65404" lon="-1.54417">
        <ele>2.9</ele>
        <time>2020-06-15T08:23:49Z</time>
      </trkpt>
      <trkpt lat="49.65401" lon="-1.54415">
        <ele>2.9</ele>
        <time>2020-06-15T08:23:50Z</time>
      </trkpt>
      <trkpt lat="49.65399" lon="-1.54411">
        <ele>3</ele>
        <time>2020-06-15T08:23:51Z</time>
      </trkpt>
      <trkpt lat="49.65396" lon="-1.54408">
        <ele>3</ele>
        <time>2020-06-15T08:23:52Z</time>
      </trkpt>
      <trkpt lat="49.65393" lon="-1.54405">
        <ele>3.2</ele>
        <time>2020-06-15T08:23:53Z</time>
      </trkpt>
      <trkpt lat="49.6539" lon="-1.54403">
        <ele>3.4</ele>
        <time>2020-06-15T08:23:54Z</time>
      </trkpt>
      <trkpt lat="49.65387" lon="-1.54401">
        <ele>3.5</ele>
        <time>2020-06-15T08:23:55Z</time>
      </trkpt>
      <trkpt lat="49.65383" lon="-1.544">
        <ele>3.7</ele>
        <time>2020-06-15T08:23:56Z</time>
      </trkpt>
      <trkpt lat="49.6538" lon="-1.54398">
        <ele>3.8</ele>
        <time>2020-06-15T08:23:57Z</time>
      </trkpt>
      <trkpt lat="49.65376" lon="-1.54396">
        <ele>4</ele>
        <time>2020-06-15T08:23:58Z</time>
      </trkpt>
      <trkpt lat="49.65373" lon="-1.54394">
        <ele>4.1</ele>
        <time>2020-06-15T08:23:59Z</time>
      </trkpt>
      <trkpt lat="49.65369" lon="-1.54392">
        <ele>4.3</ele>
        <time>2020-06-15T08:24:00Z</time>
      </trkpt>
      <trkpt lat="49.65367" lon="-1.5439">
        <ele>4.4</ele>
        <time>2020-06-15T08:24:01Z</time>
      </trkpt>
      <trkpt lat="49.65363" lon="-1.54388">
        <ele>4.6</ele>
        <time>2020-06-15T08:24:02Z</time>
      </trkpt>
      <trkpt lat="49.6536" lon="-1.54386">
        <ele>4.7</ele>
        <time>2020-06-15T08:24:03Z</time>
      </trkpt>
      <trkpt lat="49.65357" lon="-1.54384">
        <ele>4.8</ele>
        <time>2020-06-15T08:24:04Z</time>
      </trkpt>
      <trkpt lat="49.65356" lon="-1.5438">
        <ele>5</ele>
        <time>2020-06-15T08:24:05Z</time>
      </trkpt>
      <trkpt lat="49.65354" lon="-1.54376">
        <ele>5</ele>
        <time>2020-06-15T08:24:06Z</time>
      </trkpt>
      <trkpt lat="49.65354" lon="-1.54374">
        <ele>5</ele>
        <time>2020-06-15T08:24:07Z</time>
      </trkpt>
      <trkpt lat="49.65354" lon="-1.54372">
        <ele>5</ele>
        <time>2020-06-15T08:24:08Z</time>
      </trkpt>
      <trkpt lat="49.65354" lon="-1.54368">
        <ele>5</ele>
        <time>2020-06-15T08:24:09Z</time>
      </trkpt>
      <trkpt lat="49.65354" lon="-1.54362">
        <ele>5.1</ele>
        <time>2020-06-15T08:24:10Z</time>
      </trkpt>
      <trkpt lat="49.65354" lon="-1.54356">
        <ele>5.1</ele>
        <time>2020-06-15T08:24:11Z</time>
      </trkpt>
      <trkpt lat="49.65354" lon="-1.5435">
        <ele>5.1</ele>
        <time>2020-06-15T08:24:12Z</time>
      </trkpt>
      <trkpt lat="49.65355" lon="-1.54344">
        <ele>5.2</ele>
        <time>2020-06-15T08:24:13Z</time>
      </trkpt>
      <trkpt lat="49.65355" lon="-1.54336">
        <ele>5.2</ele>
        <time>2020-06-15T08:24:14Z</time>
      </trkpt>
      <trkpt lat="49.65356" lon="-1.5433">
        <ele>5.3</ele>
        <time>2020-06-15T08:24:15Z</time>
      </trkpt>
      <trkpt lat="49.65357" lon="-1.54323">
        <ele>5.4</ele>
        <time>2020-06-15T08:24:16Z</time>
      </trkpt>
      <trkpt lat="49.65358" lon="-1.54317">
        <ele>5.4</ele>
        <time>2020-06-15T08:24:17Z</time>
      </trkpt>
      <trkpt lat="49.65358" lon="-1.5431">
        <ele>5.5</ele>
        <time>2020-06-15T08:24:18Z</time>
      </trkpt>
      <trkpt lat="49.65358" lon="-1.54303">
        <ele>5.5</ele>
        <time>2020-06-15T08:24:19Z</time>
      </trkpt>
      <trkpt lat="49.65359" lon="-1.54296">
        <ele>5.5</ele>
        <time>2020-06-15T08:24:20Z</time>
      </trkpt>
      <trkpt lat="49.65358" lon="-1.54289">
        <ele>5.6</ele>
        <time>2020-06-15T08:24:21Z</time>
      </trkpt>
      <trkpt lat="49.65359" lon="-1.54282">
        <ele>5.6</ele>
        <time>2020-06-15T08:24:22Z</time>
      </trkpt>
      <trkpt lat="49.65359" lon="-1.54275">
        <ele>5.7</ele>
        <time>2020-06-15T08:24:23Z</time>
      </trkpt>
      <trkpt lat="49.65359" lon="-1.54268">
        <ele>5.7</ele>
        <time>2020-06-15T08:24:24Z</time>
      </trkpt>
      <trkpt lat="49.65359" lon="-1.54261">
        <ele>5.8</ele>
        <time>2020-06-15T08:24:25Z</time>
      </trkpt>
      <trkpt lat="49.65359" lon="-1.54255">
        <ele>5.8</ele>
        <time>2020-06-15T08:24:26Z</time>
      </trkpt>
      <trkpt lat="49.6536" lon="-1.54248">
        <ele>6.1</ele>
        <time>2020-06-15T08:24:27Z</time>
      </trkpt>
      <trkpt lat="49.6536" lon="-1.54243">
        <ele>6.2</ele>
        <time>2020-06-15T08:24:28Z</time>
      </trkpt>
      <trkpt lat="49.6536" lon="-1.54237">
        <ele>6.4</ele>
        <time>2020-06-15T08:24:29Z</time>
      </trkpt>
      <trkpt lat="49.6536" lon="-1.54231">
        <ele>6.5</ele>
        <time>2020-06-15T08:24:30Z</time>
      </trkpt>
      <trkpt lat="49.6536" lon="-1.54223">
        <ele>6.7</ele>
        <time>2020-06-15T08:24:31Z</time>
      </trkpt>
      <trkpt lat="49.65361" lon="-1.54217">
        <ele>6.8</ele>
        <time>2020-06-15T08:24:32Z</time>
      </trkpt>
      <trkpt lat="49.65361" lon="-1.54209">
        <ele>7</ele>
        <time>2020-06-15T08:24:33Z</time>
      </trkpt>
      <trkpt lat="49.65362" lon="-1.54202">
        <ele>7.2</ele>
        <time>2020-06-15T08:24:34Z</time>
      </trkpt>
      <trkpt lat="49.65362" lon="-1.54196">
        <ele>7.3</ele>
        <time>2020-06-15T08:24:35Z</time>
      </trkpt>
      <trkpt lat="49.65363" lon="-1.54189">
        <ele>7.5</ele>
        <time>2020-06-15T08:24:36Z</time>
      </trkpt>
      <trkpt lat="49.65363" lon="-1.54182">
        <ele>7.6</ele>
        <time>2020-06-15T08:24:37Z</time>
      </trkpt>
      <trkpt lat="49.65363" lon="-1.54176">
        <ele>7.7</ele>
        <time>2020-06-15T08:24:38Z</time>
      </trkpt>
      <trkpt lat="49.65364" lon="-1.5417">
        <ele>7.7</ele>
        <time>2020-06-15T08:24:39Z</time>
      </trkpt>
      <trkpt lat="49.65364" lon="-1.54163">
        <ele>7.7</ele>
        <time>2020-06-15T08:24:40Z</time>
      </trkpt>
      <trkpt lat="49.65364" lon="-1.54155">
        <ele>8</ele>
        <time>2020-06-15T08:24:41Z</time>
      </trkpt>
      <trkpt lat="49.65363" lon="-1.54148">
        <ele>8.3</ele>
        <time>2020-06-15T08:24:42Z</time>
      </trkpt>
      <trkpt lat="49.65362" lon="-1.5414">
        <ele>8.5</ele>
        <time>2020-06-15T08:24:43Z</time>
      </trkpt>
      <trkpt lat="49.65362" lon="-1.54132">
        <ele>8.8</ele>
        <time>2020-06-15T08:24:44Z</time>
      </trkpt>
      <trkpt lat="49.65361" lon="-1.54124">
        <ele>9.1</ele>
        <time>2020-06-15T08:24:45Z</time>
      </trkpt>
      <trkpt lat="49.6536" lon="-1.54115">
        <ele>9.4</ele>
        <time>2020-06-15T08:24:46Z</time>
      </trkpt>
      <trkpt lat="49.6536" lon="-1.54107">
        <ele>9.8</ele>
        <time>2020-06-15T08:24:47Z</time>
      </trkpt>
      <trkpt lat="49.65359" lon="-1.541">
        <ele>10.1</ele>
        <time>2020-06-15T08:24:48Z</time>
      </trkpt>
      <trkpt lat="49.65358" lon="-1.54093">
        <ele>10.4</ele>
        <time>2020-06-15T08:24:49Z</time>
      </trkpt>
      <trkpt lat="49.65357" lon="-1.54086">
        <ele>10.8</ele>
        <time>2020-06-15T08:24:50Z</time>
      </trkpt>
      <trkpt lat="49.65356" lon="-1.54079">
        <ele>11.1</ele>
        <time>2020-06-15T08:24:51Z</time>
      </trkpt>
      <trkpt lat="49.65356" lon="-1.54071">
        <ele>11.5</ele>
        <time>2020-06-15T08:24:52Z</time>
      </trkpt>
      <trkpt lat="49.65356" lon="-1.54066">
        <ele>11.8</ele>
        <time>2020-06-15T08:24:53Z</time>
      </trkpt>
      <trkpt lat="49.65355" lon="-1.54059">
        <ele>12.1</ele>
        <time>2020-06-15T08:24:54Z</time>
      </trkpt>
      <trkpt lat="49.65354" lon="-1.54053">
        <ele>12.4</ele>
        <time>2020-06-15T08:24:55Z</time>
      </trkpt>
      <trkpt lat="49.65354" lon="-1.54046">
        <ele>12.7</ele>
        <time>2020-06-15T08:24:56Z</time>
      </trkpt>
      <trkpt lat="49.65353" lon="-1.54039">
        <ele>12.9</ele>
        <time>2020-06-15T08:24:57Z</time>
      </trkpt>
      <trkpt lat="49.65353" lon="-1.54033">
        <ele>13.2</ele>
        <time>2020-06-15T08:24:58Z</time>
      </trkpt>
      <trkpt lat="49.65353" lon="-1.54028">
        <ele>13.5</ele>
        <time>2020-06-15T08:24:59Z</time>
      </trkpt>
      <trkpt lat="49.65352" lon="-1.54022">
        <ele>13.7</ele>
        <time>2020-06-15T08:25:00Z</time>
      </trkpt>
      <trkpt lat="49.65352" lon="-1.54017">
        <ele>14</ele>
        <time>2020-06-15T08:25:01Z</time>
      </trkpt>
      <trkpt lat="49.65352" lon="-1.5401">
        <ele>14.3</ele>
        <time>2020-06-15T08:25:02Z</time>
      </trkpt>
      <trkpt lat="49.65351" lon="-1.54004">
        <ele>14.6</ele>
        <time>2020-06-15T08:25:03Z</time>
      </trkpt>
      <trkpt lat="49.6535" lon="-1.53999">
        <ele>14.9</ele>
        <time>2020-06-15T08:25:04Z</time>
      </trkpt>
      <trkpt lat="49.6535" lon="-1.53992">
        <ele>15.2</ele>
        <time>2020-06-15T08:25:05Z</time>
      </trkpt>
      <trkpt lat="49.65349" lon="-1.53985">
        <ele>15.6</ele>
        <time>2020-06-15T08:25:06Z</time>
      </trkpt>
      <trkpt lat="49.65349" lon="-1.53979">
        <ele>15.9</ele>
        <time>2020-06-15T08:25:07Z</time>
      </trkpt>
      <trkpt lat="49.65349" lon="-1.53972">
        <ele>16.2</ele>
        <time>2020-06-15T08:25:08Z</time>
      </trkpt>
      <trkpt lat="49.65349" lon="-1.53966">
        <ele>16.4</ele>
        <time>2020-06-15T08:25:09Z</time>
      </trkpt>
      <trkpt lat="49.65349" lon="-1.5396">
        <ele>16.7</ele>
        <time>2020-06-15T08:25:10Z</time>
      </trkpt>
      <trkpt lat="49.65349" lon="-1.53954">
        <ele>16.9</ele>
        <time>2020-06-15T08:25:11Z</time>
      </trkpt>
      <trkpt lat="49.65349" lon="-1.53949">
        <ele>17.1</ele>
        <time>2020-06-15T08:25:12Z</time>
      </trkpt>
      <trkpt lat="49.65349" lon="-1.53944">
        <ele>17.3</ele>
        <time>2020-06-15T08:25:13Z</time>
      </trkpt>
      <trkpt lat="49.65349" lon="-1.53942">
        <ele>17.3</ele>
        <time>2020-06-15T08:25:14Z</time>
      </trkpt>
      <trkpt lat="49.6535" lon="-1.53937">
        <ele>17.5</ele>
        <time>2020-06-15T08:25:15Z</time>
      </trkpt>
      <trkpt lat="49.6535" lon="-1.53936">
        <ele>17.6</ele>
        <time>2020-06-15T08:25:16Z</time>
      </trkpt>
      <trkpt lat="49.65352" lon="-1.53935">
        <ele>17.7</ele>
        <time>2020-06-15T08:25:17Z</time>
      </trkpt>
      <trkpt lat="49.65353" lon="-1.53934">
        <ele>17.8</ele>
        <time>2020-06-15T08:25:18Z</time>
      </trkpt>
      <trkpt lat="49.65354" lon="-1.53932">
        <ele>17.4</ele>
        <time>2020-06-15T08:25:19Z</time>
      </trkpt>
      <trkpt lat="49.65357" lon="-1.53927">
        <ele>17.3</ele>
        <time>2020-06-15T08:25:20Z</time>
      </trkpt>
      <trkpt lat="49.65358" lon="-1.53924">
        <ele>17.2</ele>
        <time>2020-06-15T08:25:21Z</time>
      </trkpt>
      <trkpt lat="49.65361" lon="-1.53918">
        <ele>17</ele>
        <time>2020-06-15T08:25:22Z</time>
      </trkpt>
      <trkpt lat="49.65364" lon="-1.5391">
        <ele>16.8</ele>
        <time>2020-06-15T08:25:23Z</time>
      </trkpt>
      <trkpt lat="49.65367" lon="-1.53902">
        <ele>16.7</ele>
        <time>2020-06-15T08:25:24Z</time>
      </trkpt>
      <trkpt lat="49.65371" lon="-1.53894">
        <ele>16.6</ele>
        <time>2020-06-15T08:25:25Z</time>
      </trkpt>
      <trkpt lat="49.65375" lon="-1.53886">
        <ele>16.5</ele>
        <time>2020-06-15T08:25:26Z</time>
      </trkpt>
      <trkpt lat="49.65378" lon="-1.53878">
        <ele>16.3</ele>
        <time>2020-06-15T08:25:27Z</time>
      </trkpt>
      <trkpt lat="49.65382" lon="-1.53871">
        <ele>16.2</ele>
        <time>2020-06-15T08:25:28Z</time>
      </trkpt>
      <trkpt lat="49.65385" lon="-1.53864">
        <ele>16</ele>
        <time>2020-06-15T08:25:29Z</time>
      </trkpt>
      <trkpt lat="49.65389" lon="-1.53857">
        <ele>15.9</ele>
        <time>2020-06-15T08:25:30Z</time>
      </trkpt>
      <trkpt lat="49.65393" lon="-1.53851">
        <ele>15.8</ele>
        <time>2020-06-15T08:25:31Z</time>
      </trkpt>
      <trkpt lat="49.65396" lon="-1.53845">
        <ele>15.7</ele>
        <time>2020-06-15T08:25:32Z</time>
      </trkpt>
      <trkpt lat="49.65399" lon="-1.53838">
        <ele>15.6</ele>
        <time>2020-06-15T08:25:33Z</time>
      </trkpt>
      <trkpt lat="49.65401" lon="-1.53832">
        <ele>15.5</ele>
        <time>2020-06-15T08:25:34Z</time>
      </trkpt>
      <trkpt lat="49.65404" lon="-1.53824">
        <ele>15.4</ele>
        <time>2020-06-15T08:25:35Z</time>
      </trkpt>
      <trkpt lat="49.65406" lon="-1.53817">
        <ele>15.3</ele>
        <time>2020-06-15T08:25:36Z</time>
      </trkpt>
      <trkpt lat="49.65409" lon="-1.5381">
        <ele>15.2</ele>
        <time>2020-06-15T08:25:37Z</time>
      </trkpt>
      <trkpt lat="49.65412" lon="-1.53803">
        <ele>15.1</ele>
        <time>2020-06-15T08:25:38Z</time>
      </trkpt>
      <trkpt lat="49.65415" lon="-1.53796">
        <ele>15.1</ele>
        <time>2020-06-15T08:25:39Z</time>
      </trkpt>
      <trkpt lat="49.65418" lon="-1.53789">
        <ele>15</ele>
        <time>2020-06-15T08:25:40Z</time>
      </trkpt>
      <trkpt lat="49.6542" lon="-1.53782">
        <ele>14.9</ele>
        <time>2020-06-15T08:25:41Z</time>
      </trkpt>
      <trkpt lat="49.65423" lon="-1.53777">
        <ele>14.8</ele>
        <time>2020-06-15T08:25:42Z</time>
      </trkpt>
      <trkpt lat="49.65425" lon="-1.53769">
        <ele>14.7</ele>
        <time>2020-06-15T08:25:43Z</time>
      </trkpt>
      <trkpt lat="49.65426" lon="-1.53762">
        <ele>14.6</ele>
        <time>2020-06-15T08:25:44Z</time>
      </trkpt>
      <trkpt lat="49.65428" lon="-1.53755">
        <ele>14.5</ele>
        <time>2020-06-15T08:25:45Z</time>
      </trkpt>
      <trkpt lat="49.6543" lon="-1.53747">
        <ele>14.4</ele>
        <time>2020-06-15T08:25:46Z</time>
      </trkpt>
      <trkpt lat="49.65431" lon="-1.5374">
        <ele>14.3</ele>
        <time>2020-06-15T08:25:47Z</time>
      </trkpt>
      <trkpt lat="49.65432" lon="-1.53732">
        <ele>14.3</ele>
        <time>2020-06-15T08:25:48Z</time>
      </trkpt>
      <trkpt lat="49.65434" lon="-1.53725">
        <ele>14.2</ele>
        <time>2020-06-15T08:25:49Z</time>
      </trkpt>
      <trkpt lat="49.65436" lon="-1.53719">
        <ele>14.1</ele>
        <time>2020-06-15T08:25:50Z</time>
      </trkpt>
      <trkpt lat="49.65437" lon="-1.53711">
        <ele>14.1</ele>
        <time>2020-06-15T08:25:51Z</time>
      </trkpt>
      <trkpt lat="49.65438" lon="-1.53706">
        <ele>14</ele>
        <time>2020-06-15T08:25:52Z</time>
      </trkpt>
      <trkpt lat="49.6544" lon="-1.53699">
        <ele>13.9</ele>
        <time>2020-06-15T08:25:53Z</time>
      </trkpt>
      <trkpt lat="49.65441" lon="-1.53692">
        <ele>13.9</ele>
        <time>2020-06-15T08:25:54Z</time>
      </trkpt>
      <trkpt lat="49.65441" lon="-1.53685">
        <ele>13.8</ele>
        <time>2020-06-15T08:25:55Z</time>
      </trkpt>
      <trkpt lat="49.65441" lon="-1.53677">
        <ele>13.7</ele>
        <time>2020-06-15T08:25:56Z</time>
      </trkpt>
      <trkpt lat="49.65441" lon="-1.53668">
        <ele>13.6</ele>
        <time>2020-06-15T08:25:57Z</time>
      </trkpt>
      <trkpt lat="49.65442" lon="-1.5366">
        <ele>13.5</ele>
        <time>2020-06-15T08:25:58Z</time>
      </trkpt>
      <trkpt lat="49.65442" lon="-1.53653">
        <ele>13.4</ele>
        <time>2020-06-15T08:25:59Z</time>
      </trkpt>
      <trkpt lat="49.65442" lon="-1.53645">
        <ele>13.3</ele>
        <time>2020-06-15T08:26:00Z</time>
      </trkpt>
      <trkpt lat="49.65442" lon="-1.53638">
        <ele>13.2</ele>
        <time>2020-06-15T08:26:01Z</time>
      </trkpt>
      <trkpt lat="49.65442" lon="-1.5363">
        <ele>13.1</ele>
        <time>2020-06-15T08:26:02Z</time>
      </trkpt>
      <trkpt lat="49.65442" lon="-1.53622">
        <ele>13.1</ele>
        <time>2020-06-15T08:26:03Z</time>
      </trkpt>
      <trkpt lat="49.65442" lon="-1.53615">
        <ele>13.1</ele>
        <time>2020-06-15T08:26:04Z</time>
      </trkpt>
      <trkpt lat="49.65441" lon="-1.53608">
        <ele>13</ele>
        <time>2020-06-15T08:26:05Z</time>
      </trkpt>
      <trkpt lat="49.65441" lon="-1.53602">
        <ele>13</ele>
        <time>2020-06-15T08:26:06Z</time>
      </trkpt>
      <trkpt lat="49.65441" lon="-1.53595">
        <ele>13</ele>
        <time>2020-06-15T08:26:07Z</time>
      </trkpt>
      <trkpt lat="49.65441" lon="-1.53588">
        <ele>12.9</ele>
        <time>2020-06-15T08:26:08Z</time>
      </trkpt>
      <trkpt lat="49.65443" lon="-1.53581">
        <ele>12.9</ele>
        <time>2020-06-15T08:26:09Z</time>
      </trkpt>
      <trkpt lat="49.65443" lon="-1.53573">
        <ele>12.8</ele>
        <time>2020-06-15T08:26:10Z</time>
      </trkpt>
      <trkpt lat="49.65443" lon="-1.53565">
        <ele>12.7</ele>
        <time>2020-06-15T08:26:11Z</time>
      </trkpt>
      <trkpt lat="49.65443" lon="-1.53557">
        <ele>12.6</ele>
        <time>2020-06-15T08:26:12Z</time>
      </trkpt>
      <trkpt lat="49.65442" lon="-1.5355">
        <ele>12.6</ele>
        <time>2020-06-15T08:26:13Z</time>
      </trkpt>
      <trkpt lat="49.65442" lon="-1.53543">
        <ele>12.5</ele>
        <time>2020-06-15T08:26:14Z</time>
      </trkpt>
      <trkpt lat="49.65442" lon="-1.53536">
        <ele>12.4</ele>
        <time>2020-06-15T08:26:15Z</time>
      </trkpt>
      <trkpt lat="49.65441" lon="-1.53529">
        <ele>12.3</ele>
        <time>2020-06-15T08:26:16Z</time>
      </trkpt>
      <trkpt lat="49.65441" lon="-1.53521">
        <ele>12.3</ele>
        <time>2020-06-15T08:26:17Z</time>
      </trkpt>
      <trkpt lat="49.65441" lon="-1.53514">
        <ele>12.2</ele>
        <time>2020-06-15T08:26:18Z</time>
      </trkpt>
      <trkpt lat="49.65441" lon="-1.53506">
        <ele>12.1</ele>
        <time>2020-06-15T08:26:19Z</time>
      </trkpt>
      <trkpt lat="49.65442" lon="-1.53499">
        <ele>11.9</ele>
        <time>2020-06-15T08:26:20Z</time>
      </trkpt>
      <trkpt lat="49.65442" lon="-1.53491">
        <ele>12.1</ele>
        <time>2020-06-15T08:26:21Z</time>
      </trkpt>
      <trkpt lat="49.65442" lon="-1.53484">
        <ele>12.3</ele>
        <time>2020-06-15T08:26:22Z</time>
      </trkpt>
      <trkpt lat="49.65442" lon="-1.53477">
        <ele>12.4</ele>
        <time>2020-06-15T08:26:23Z</time>
      </trkpt>
      <trkpt lat="49.65442" lon="-1.5347">
        <ele>12.4</ele>
        <time>2020-06-15T08:26:24Z</time>
      </trkpt>
      <trkpt lat="49.65441" lon="-1.53463">
        <ele>12.3</ele>
        <time>2020-06-15T08:26:25Z</time>
      </trkpt>
      <trkpt lat="49.6544" lon="-1.53456">
        <ele>12.3</ele>
        <time>2020-06-15T08:26:26Z</time>
      </trkpt>
      <trkpt lat="49.6544" lon="-1.53449">
        <ele>12.2</ele>
        <time>2020-06-15T08:26:27Z</time>
      </trkpt>
      <trkpt lat="49.6544" lon="-1.53441">
        <ele>12.1</ele>
        <time>2020-06-15T08:26:28Z</time>
      </trkpt>
      <trkpt lat="49.65441" lon="-1.53434">
        <ele>12</ele>
        <time>2020-06-15T08:26:29Z</time>
      </trkpt>
      <trkpt lat="49.6544" lon="-1.53426">
        <ele>11.9</ele>
        <time>2020-06-15T08:26:30Z</time>
      </trkpt>
      <trkpt lat="49.6544" lon="-1.53419">
        <ele>11.8</ele>
        <time>2020-06-15T08:26:31Z</time>
      </trkpt>
      <trkpt lat="49.65438" lon="-1.53411">
        <ele>11.7</ele>
        <time>2020-06-15T08:26:32Z</time>
      </trkpt>
      <trkpt lat="49.65438" lon="-1.53404">
        <ele>11.6</ele>
        <time>2020-06-15T08:26:33Z</time>
      </trkpt>
      <trkpt lat="49.65437" lon="-1.53396">
        <ele>11.5</ele>
        <time>2020-06-15T08:26:34Z</time>
      </trkpt>
      <trkpt lat="49.65437" lon="-1.53388">
        <ele>11.4</ele>
        <time>2020-06-15T08:26:35Z</time>
      </trkpt>
      <trkpt lat="49.65436" lon="-1.5338">
        <ele>11.3</ele>
        <time>2020-06-15T08:26:36Z</time>
      </trkpt>
      <trkpt lat="49.65437" lon="-1.53372">
        <ele>11.2</ele>
        <time>2020-06-15T08:26:37Z</time>
      </trkpt>
      <trkpt lat="49.65438" lon="-1.53364">
        <ele>11.1</ele>
        <time>2020-06-15T08:26:38Z</time>
      </trkpt>
      <trkpt lat="49.65437" lon="-1.53356">
        <ele>11</ele>
        <time>2020-06-15T08:26:39Z</time>
      </trkpt>
      <trkpt lat="49.65437" lon="-1.53348">
        <ele>11</ele>
        <time>2020-06-15T08:26:40Z</time>
      </trkpt>
      <trkpt lat="49.65437" lon="-1.53341">
        <ele>10.9</ele>
        <time>2020-06-15T08:26:41Z</time>
      </trkpt>
      <trkpt lat="49.65437" lon="-1.53333">
        <ele>10.9</ele>
        <time>2020-06-15T08:26:42Z</time>
      </trkpt>
      <trkpt lat="49.65438" lon="-1.53326">
        <ele>10.8</ele>
        <time>2020-06-15T08:26:43Z</time>
      </trkpt>
      <trkpt lat="49.65437" lon="-1.53319">
        <ele>10.8</ele>
        <time>2020-06-15T08:26:44Z</time>
      </trkpt>
      <trkpt lat="49.65437" lon="-1.53312">
        <ele>10.7</ele>
        <time>2020-06-15T08:26:45Z</time>
      </trkpt>
      <trkpt lat="49.65437" lon="-1.53305">
        <ele>10.6</ele>
        <time>2020-06-15T08:26:46Z</time>
      </trkpt>
      <trkpt lat="49.65437" lon="-1.53298">
        <ele>10.5</ele>
        <time>2020-06-15T08:26:47Z</time>
      </trkpt>
      <trkpt lat="49.65436" lon="-1.53291">
        <ele>10.5</ele>
        <time>2020-06-15T08:26:48Z</time>
      </trkpt>
      <trkpt lat="49.65436" lon="-1.53283">
        <ele>10.4</ele>
        <time>2020-06-15T08:26:49Z</time>
      </trkpt>
      <trkpt lat="49.65435" lon="-1.53276">
        <ele>10.3</ele>
        <time>2020-06-15T08:26:50Z</time>
      </trkpt>
      <trkpt lat="49.65436" lon="-1.53269">
        <ele>10.3</ele>
        <time>2020-06-15T08:26:51Z</time>
      </trkpt>
      <trkpt lat="49.65437" lon="-1.53261">
        <ele>10.2</ele>
        <time>2020-06-15T08:26:52Z</time>
      </trkpt>
      <trkpt lat="49.65436" lon="-1.53253">
        <ele>10.2</ele>
        <time>2020-06-15T08:26:53Z</time>
      </trkpt>
      <trkpt lat="49.65436" lon="-1.53246">
        <ele>10.2</ele>
        <time>2020-06-15T08:26:54Z</time>
      </trkpt>
      <trkpt lat="49.65437" lon="-1.53238">
        <ele>10.2</ele>
        <time>2020-06-15T08:26:55Z</time>
      </trkpt>
      <trkpt lat="49.65436" lon="-1.53231">
        <ele>10.1</ele>
        <time>2020-06-15T08:26:56Z</time>
      </trkpt>
      <trkpt lat="49.65435" lon="-1.53224">
        <ele>10.1</ele>
        <time>2020-06-15T08:26:57Z</time>
      </trkpt>
      <trkpt lat="49.65436" lon="-1.53218">
        <ele>10.1</ele>
        <time>2020-06-15T08:26:58Z</time>
      </trkpt>
      <trkpt lat="49.65436" lon="-1.53211">
        <ele>10.1</ele>
        <time>2020-06-15T08:26:59Z</time>
      </trkpt>
      <trkpt lat="49.65436" lon="-1.53204">
        <ele>10.1</ele>
        <time>2020-06-15T08:27:00Z</time>
      </trkpt>
      <trkpt lat="49.65436" lon="-1.53197">
        <ele>10</ele>
        <time>2020-06-15T08:27:01Z</time>
      </trkpt>
      <trkpt lat="49.65435" lon="-1.5319">
        <ele>10</ele>
        <time>2020-06-15T08:27:02Z</time>
      </trkpt>
      <trkpt lat="49.65435" lon="-1.53182">
        <ele>10</ele>
        <time>2020-06-15T08:27:03Z</time>
      </trkpt>
      <trkpt lat="49.65435" lon="-1.53175">
        <ele>9.9</ele>
        <time>2020-06-15T08:27:04Z</time>
      </trkpt>
      <trkpt lat="49.65436" lon="-1.53168">
        <ele>9.8</ele>
        <time>2020-06-15T08:27:05Z</time>
      </trkpt>
      <trkpt lat="49.65436" lon="-1.5316">
        <ele>9.7</ele>
        <time>2020-06-15T08:27:06Z</time>
      </trkpt>
      <trkpt lat="49.65435" lon="-1.53153">
        <ele>9.6</ele>
        <time>2020-06-15T08:27:07Z</time>
      </trkpt>
      <trkpt lat="49.65435" lon="-1.53146">
        <ele>9.6</ele>
        <time>2020-06-15T08:27:08Z</time>
      </trkpt>
      <trkpt lat="49.65436" lon="-1.53139">
        <ele>9.6</ele>
        <time>2020-06-15T08:27:09Z</time>
      </trkpt>
      <trkpt lat="49.65436" lon="-1.53132">
        <ele>9.6</ele>
        <time>2020-06-15T08:27:10Z</time>
      </trkpt>
      <trkpt lat="49.65437" lon="-1.53125">
        <ele>9.6</ele>
        <time>2020-06-15T08:27:11Z</time>
      </trkpt>
      <trkpt lat="49.65437" lon="-1.53119">
        <ele>9.6</ele>
        <time>2020-06-15T08:27:12Z</time>
      </trkpt>
      <trkpt lat="49.65439" lon="-1.53112">
        <ele>9.6</ele>
        <time>2020-06-15T08:27:13Z</time>
      </trkpt>
      <trkpt lat="49.6544" lon="-1.53106">
        <ele>9.6</ele>
        <time>2020-06-15T08:27:14Z</time>
      </trkpt>
      <trkpt lat="49.6544" lon="-1.53101">
        <ele>9.6</ele>
        <time>2020-06-15T08:27:15Z</time>
      </trkpt>
      <trkpt lat="49.65439" lon="-1.53097">
        <ele>9.6</ele>
        <time>2020-06-15T08:27:16Z</time>
      </trkpt>
      <trkpt lat="49.65439" lon="-1.53096">
        <ele>9.6</ele>
        <time>2020-06-15T08:27:17Z</time>
      </trkpt>
      <trkpt lat="49.6544" lon="-1.53095">
        <ele>9.6</ele>
        <time>2020-06-15T08:27:18Z</time>
      </trkpt>
      <trkpt lat="49.65441" lon="-1.53094">
        <ele>9.5</ele>
        <time>2020-06-15T08:27:19Z</time>
      </trkpt>
      <trkpt lat="49.65441" lon="-1.53093">
        <ele>9.5</ele>
        <time>2020-06-15T08:27:20Z</time>
      </trkpt>
      <trkpt lat="49.65442" lon="-1.53093">
        <ele>9.4</ele>
        <time>2020-06-15T08:27:21Z</time>
      </trkpt>
      <trkpt lat="49.65443" lon="-1.53093">
        <ele>9.4</ele>
        <time>2020-06-15T08:27:22Z</time>
      </trkpt>
      <trkpt lat="49.65445" lon="-1.53093">
        <ele>9.3</ele>
        <time>2020-06-15T08:27:23Z</time>
      </trkpt>
      <trkpt lat="49.65449" lon="-1.53093">
        <ele>9</ele>
        <time>2020-06-15T08:27:24Z</time>
      </trkpt>
      <trkpt lat="49.65454" lon="-1.53092">
        <ele>8.7</ele>
        <time>2020-06-15T08:27:25Z</time>
      </trkpt>
      <trkpt lat="49.65459" lon="-1.53092">
        <ele>8.4</ele>
        <time>2020-06-15T08:27:26Z</time>
      </trkpt>
      <trkpt lat="49.65463" lon="-1.53091">
        <ele>8.1</ele>
        <time>2020-06-15T08:27:27Z</time>
      </trkpt>
      <trkpt lat="49.65468" lon="-1.53091">
        <ele>7.9</ele>
        <time>2020-06-15T08:27:28Z</time>
      </trkpt>
      <trkpt lat="49.65473" lon="-1.53091">
        <ele>7.6</ele>
        <time>2020-06-15T08:27:29Z</time>
      </trkpt>
      <trkpt lat="49.65478" lon="-1.53091">
        <ele>7.3</ele>
        <time>2020-06-15T08:27:30Z</time>
      </trkpt>
      <trkpt lat="49.65483" lon="-1.53091">
        <ele>7.1</ele>
        <time>2020-06-15T08:27:31Z</time>
      </trkpt>
      <trkpt lat="49.65488" lon="-1.5309">
        <ele>6.9</ele>
        <time>2020-06-15T08:27:32Z</time>
      </trkpt>
      <trkpt lat="49.65493" lon="-1.5309">
        <ele>6.7</ele>
        <time>2020-06-15T08:27:33Z</time>
      </trkpt>
      <trkpt lat="49.65498" lon="-1.53089">
        <ele>6.5</ele>
        <time>2020-06-15T08:27:34Z</time>
      </trkpt>
      <trkpt lat="49.65502" lon="-1.53088">
        <ele>6.1</ele>
        <time>2020-06-15T08:27:35Z</time>
      </trkpt>
      <trkpt lat="49.65507" lon="-1.53087">
        <ele>6</ele>
        <time>2020-06-15T08:27:36Z</time>
      </trkpt>
      <trkpt lat="49.65511" lon="-1.53087">
        <ele>6</ele>
        <time>2020-06-15T08:27:37Z</time>
      </trkpt>
      <trkpt lat="49.65515" lon="-1.53085">
        <ele>5.9</ele>
        <time>2020-06-15T08:27:38Z</time>
      </trkpt>
      <trkpt lat="49.65518" lon="-1.53082">
        <ele>5.9</ele>
        <time>2020-06-15T08:27:39Z</time>
      </trkpt>
      <trkpt lat="49.65522" lon="-1.5308">
        <ele>5.8</ele>
        <time>2020-06-15T08:27:40Z</time>
      </trkpt>
      <trkpt lat="49.65524" lon="-1.53074">
        <ele>5.8</ele>
        <time>2020-06-15T08:27:41Z</time>
      </trkpt>
      <trkpt lat="49.65527" lon="-1.53069">
        <ele>5.8</ele>
        <time>2020-06-15T08:27:42Z</time>
      </trkpt>
      <trkpt lat="49.65529" lon="-1.53064">
        <ele>5.8</ele>
        <time>2020-06-15T08:27:43Z</time>
      </trkpt>
      <trkpt lat="49.65532" lon="-1.53059">
        <ele>5.8</ele>
        <time>2020-06-15T08:27:44Z</time>
      </trkpt>
      <trkpt lat="49.65534" lon="-1.53054">
        <ele>5.8</ele>
        <time>2020-06-15T08:27:45Z</time>
      </trkpt>
      <trkpt lat="49.65537" lon="-1.53049">
        <ele>5.7</ele>
        <time>2020-06-15T08:27:46Z</time>
      </trkpt>
      <trkpt lat="49.65539" lon="-1.53043">
        <ele>5.7</ele>
        <time>2020-06-15T08:27:47Z</time>
      </trkpt>
      <trkpt lat="49.65542" lon="-1.53038">
        <ele>5.7</ele>
        <time>2020-06-15T08:27:48Z</time>
      </trkpt>
      <trkpt lat="49.65544" lon="-1.53032">
        <ele>5.7</ele>
        <time>2020-06-15T08:27:49Z</time>
      </trkpt>
      <trkpt lat="49.65547" lon="-1.53027">
        <ele>5.7</ele>
        <time>2020-06-15T08:27:50Z</time>
      </trkpt>
      <trkpt lat="49.65549" lon="-1.53022">
        <ele>5.6</ele>
        <time>2020-06-15T08:27:51Z</time>
      </trkpt>
      <trkpt lat="49.65552" lon="-1.53017">
        <ele>5.6</ele>
        <time>2020-06-15T08:27:52Z</time>
      </trkpt>
      <trkpt lat="49.65555" lon="-1.53012">
        <ele>5.6</ele>
        <time>2020-06-15T08:27:53Z</time>
      </trkpt>
      <trkpt lat="49.65557" lon="-1.53007">
        <ele>5.6</ele>
        <time>2020-06-15T08:27:54Z</time>
      </trkpt>
      <trkpt lat="49.6556" lon="-1.53002">
        <ele>5.6</ele>
        <time>2020-06-15T08:27:55Z</time>
      </trkpt>
      <trkpt lat="49.65562" lon="-1.52996">
        <ele>5.6</ele>
        <time>2020-06-15T08:27:56Z</time>
      </trkpt>
      <trkpt lat="49.65563" lon="-1.5299">
        <ele>5.6</ele>
        <time>2020-06-15T08:27:57Z</time>
      </trkpt>
      <trkpt lat="49.65564" lon="-1.52983">
        <ele>5.6</ele>
        <time>2020-06-15T08:27:58Z</time>
      </trkpt>
      <trkpt lat="49.65566" lon="-1.52977">
        <ele>5.7</ele>
        <time>2020-06-15T08:27:59Z</time>
      </trkpt>
      <trkpt lat="49.65568" lon="-1.5297">
        <ele>5.7</ele>
        <time>2020-06-15T08:28:00Z</time>
      </trkpt>
      <trkpt lat="49.6557" lon="-1.52965">
        <ele>5.7</ele>
        <time>2020-06-15T08:28:01Z</time>
      </trkpt>
      <trkpt lat="49.65572" lon="-1.52959">
        <ele>5.7</ele>
        <time>2020-06-15T08:28:02Z</time>
      </trkpt>
      <trkpt lat="49.65574" lon="-1.52953">
        <ele>5.8</ele>
        <time>2020-06-15T08:28:03Z</time>
      </trkpt>
      <trkpt lat="49.65576" lon="-1.52947">
        <ele>5.8</ele>
        <time>2020-06-15T08:28:04Z</time>
      </trkpt>
      <trkpt lat="49.65578" lon="-1.52941">
        <ele>5.8</ele>
        <time>2020-06-15T08:28:05Z</time>
      </trkpt>
      <trkpt lat="49.65581" lon="-1.52935">
        <ele>5.8</ele>
        <time>2020-06-15T08:28:06Z</time>
      </trkpt>
      <trkpt lat="49.65582" lon="-1.52928">
        <ele>5.8</ele>
        <time>2020-06-15T08:28:07Z</time>
      </trkpt>
      <trkpt lat="49.65584" lon="-1.52921">
        <ele>5.8</ele>
        <time>2020-06-15T08:28:08Z</time>
      </trkpt>
      <trkpt lat="49.65586" lon="-1.52915">
        <ele>5.9</ele>
        <time>2020-06-15T08:28:09Z</time>
      </trkpt>
      <trkpt lat="49.65588" lon="-1.52909">
        <ele>5.9</ele>
        <time>2020-06-15T08:28:10Z</time>
      </trkpt>
      <trkpt lat="49.6559" lon="-1.52902">
        <ele>5.9</ele>
        <time>2020-06-15T08:28:11Z</time>
      </trkpt>
      <trkpt lat="49.65593" lon="-1.52896">
        <ele>5.9</ele>
        <time>2020-06-15T08:28:12Z</time>
      </trkpt>
      <trkpt lat="49.65595" lon="-1.5289">
        <ele>5.9</ele>
        <time>2020-06-15T08:28:13Z</time>
      </trkpt>
      <trkpt lat="49.65597" lon="-1.52883">
        <ele>5.9</ele>
        <time>2020-06-15T08:28:14Z</time>
      </trkpt>
      <trkpt lat="49.65599" lon="-1.52877">
        <ele>6</ele>
        <time>2020-06-15T08:28:15Z</time>
      </trkpt>
      <trkpt lat="49.65601" lon="-1.5287">
        <ele>6</ele>
        <time>2020-06-15T08:28:16Z</time>
      </trkpt>
      <trkpt lat="49.65603" lon="-1.52864">
        <ele>6.1</ele>
        <time>2020-06-15T08:28:17Z</time>
      </trkpt>
      <trkpt lat="49.65605" lon="-1.52857">
        <ele>6.1</ele>
        <time>2020-06-15T08:28:18Z</time>
      </trkpt>
      <trkpt lat="49.65608" lon="-1.5285">
        <ele>6.1</ele>
        <time>2020-06-15T08:28:19Z</time>
      </trkpt>
      <trkpt lat="49.6561" lon="-1.52843">
        <ele>6.1</ele>
        <time>2020-06-15T08:28:20Z</time>
      </trkpt>
      <trkpt lat="49.65612" lon="-1.52836">
        <ele>6.2</ele>
        <time>2020-06-15T08:28:21Z</time>
      </trkpt>
      <trkpt lat="49.65612" lon="-1.52829">
        <ele>6.2</ele>
        <time>2020-06-15T08:28:22Z</time>
      </trkpt>
      <trkpt lat="49.65612" lon="-1.52821">
        <ele>6.3</ele>
        <time>2020-06-15T08:28:23Z</time>
      </trkpt>
      <trkpt lat="49.65614" lon="-1.52815">
        <ele>6.5</ele>
        <time>2020-06-15T08:28:24Z</time>
      </trkpt>
      <trkpt lat="49.65615" lon="-1.52808">
        <ele>6.6</ele>
        <time>2020-06-15T08:28:25Z</time>
      </trkpt>
      <trkpt lat="49.65615" lon="-1.52801">
        <ele>6.7</ele>
        <time>2020-06-15T08:28:26Z</time>
      </trkpt>
      <trkpt lat="49.65616" lon="-1.52794">
        <ele>6.8</ele>
        <time>2020-06-15T08:28:27Z</time>
      </trkpt>
      <trkpt lat="49.65617" lon="-1.52787">
        <ele>6.9</ele>
        <time>2020-06-15T08:28:28Z</time>
      </trkpt>
      <trkpt lat="49.6562" lon="-1.52781">
        <ele>7</ele>
        <time>2020-06-15T08:28:29Z</time>
      </trkpt>
      <trkpt lat="49.6562" lon="-1.52774">
        <ele>7.1</ele>
        <time>2020-06-15T08:28:30Z</time>
      </trkpt>
      <trkpt lat="49.65621" lon="-1.52768">
        <ele>7.2</ele>
        <time>2020-06-15T08:28:31Z</time>
      </trkpt>
      <trkpt lat="49.65622" lon="-1.52761">
        <ele>7.3</ele>
        <time>2020-06-15T08:28:32Z</time>
      </trkpt>
      <trkpt lat="49.65622" lon="-1.52755">
        <ele>7.5</ele>
        <time>2020-06-15T08:28:33Z</time>
      </trkpt>
      <trkpt lat="49.65622" lon="-1.52748">
        <ele>7.6</ele>
        <time>2020-06-15T08:28:34Z</time>
      </trkpt>
      <trkpt lat="49.65623" lon="-1.52742">
        <ele>7.8</ele>
        <time>2020-06-15T08:28:35Z</time>
      </trkpt>
      <trkpt lat="49.65624" lon="-1.52736">
        <ele>7.9</ele>
        <time>2020-06-15T08:28:36Z</time>
      </trkpt>
      <trkpt lat="49.65624" lon="-1.52729">
        <ele>8.1</ele>
        <time>2020-06-15T08:28:37Z</time>
      </trkpt>
      <trkpt lat="49.65625" lon="-1.52723">
        <ele>8.2</ele>
        <time>2020-06-15T08:28:38Z</time>
      </trkpt>
      <trkpt lat="49.65626" lon="-1.52717">
        <ele>8.4</ele>
        <time>2020-06-15T08:28:39Z</time>
      </trkpt>
      <trkpt lat="49.65626" lon="-1.52711">
        <ele>8.5</ele>
        <time>2020-06-15T08:28:40Z</time>
      </trkpt>
      <trkpt lat="49.65626" lon="-1.52705">
        <ele>8.7</ele>
        <time>2020-06-15T08:28:41Z</time>
      </trkpt>
      <trkpt lat="49.65628" lon="-1.52699">
        <ele>8.8</ele>
        <time>2020-06-15T08:28:42Z</time>
      </trkpt>
      <trkpt lat="49.65629" lon="-1.52694">
        <ele>9</ele>
        <time>2020-06-15T08:28:43Z</time>
      </trkpt>
      <trkpt lat="49.6563" lon="-1.52688">
        <ele>9.1</ele>
        <time>2020-06-15T08:28:44Z</time>
      </trkpt>
      <trkpt lat="49.6563" lon="-1.52682">
        <ele>9.3</ele>
        <time>2020-06-15T08:28:45Z</time>
      </trkpt>
      <trkpt lat="49.65631" lon="-1.52676">
        <ele>9.5</ele>
        <time>2020-06-15T08:28:46Z</time>
      </trkpt>
      <trkpt lat="49.6563" lon="-1.5267">
        <ele>9.6</ele>
        <time>2020-06-15T08:28:47Z</time>
      </trkpt>
      <trkpt lat="49.6563" lon="-1.52663">
        <ele>9.8</ele>
        <time>2020-06-15T08:28:48Z</time>
      </trkpt>
      <trkpt lat="49.6563" lon="-1.52654">
        <ele>10</ele>
        <time>2020-06-15T08:28:49Z</time>
      </trkpt>
      <trkpt lat="49.6563" lon="-1.52649">
        <ele>10.2</ele>
        <time>2020-06-15T08:28:50Z</time>
      </trkpt>
      <trkpt lat="49.65631" lon="-1.52642">
        <ele>10.3</ele>
        <time>2020-06-15T08:28:51Z</time>
      </trkpt>
      <trkpt lat="49.65632" lon="-1.52639">
        <ele>10.4</ele>
        <time>2020-06-15T08:28:52Z</time>
      </trkpt>
      <trkpt lat="49.65633" lon="-1.52634">
        <ele>10.5</ele>
        <time>2020-06-15T08:28:53Z</time>
      </trkpt>
      <trkpt lat="49.65633" lon="-1.52627">
        <ele>10.7</ele>
        <time>2020-06-15T08:28:54Z</time>
      </trkpt>
      <trkpt lat="49.65634" lon="-1.5262">
        <ele>10.9</ele>
        <time>2020-06-15T08:28:55Z</time>
      </trkpt>
      <trkpt lat="49.65634" lon="-1.52612">
        <ele>11</ele>
        <time>2020-06-15T08:28:56Z</time>
      </trkpt>
      <trkpt lat="49.65635" lon="-1.52606">
        <ele>11.1</ele>
        <time>2020-06-15T08:28:57Z</time>
      </trkpt>
      <trkpt lat="49.65635" lon="-1.52601">
        <ele>11.2</ele>
        <time>2020-06-15T08:28:58Z</time>
      </trkpt>
      <trkpt lat="49.65634" lon="-1.52596">
        <ele>11.2</ele>
        <time>2020-06-15T08:28:59Z</time>
      </trkpt>
      <trkpt lat="49.65633" lon="-1.52591">
        <ele>11.3</ele>
        <time>2020-06-15T08:29:00Z</time>
      </trkpt>
      <trkpt lat="49.65633" lon="-1.52587">
        <ele>11.3</ele>
        <time>2020-06-15T08:29:01Z</time>
      </trkpt>
      <trkpt lat="49.65633" lon="-1.52585">
        <ele>11.2</ele>
        <time>2020-06-15T08:29:02Z</time>
      </trkpt>
      <trkpt lat="49.65634" lon="-1.52581">
        <ele>11.2</ele>
        <time>2020-06-15T08:29:03Z</time>
      </trkpt>
      <trkpt lat="49.65634" lon="-1.5258">
        <ele>11.2</ele>
        <time>2020-06-15T08:29:04Z</time>
      </trkpt>
      <trkpt lat="49.65635" lon="-1.5258">
        <ele>11.2</ele>
        <time>2020-06-15T08:29:05Z</time>
      </trkpt>
      <trkpt lat="49.65636" lon="-1.5258">
        <ele>11.2</ele>
        <time>2020-06-15T08:29:06Z</time>
      </trkpt>
      <trkpt lat="49.65637" lon="-1.52579">
        <ele>11.2</ele>
        <time>2020-06-15T08:29:07Z</time>
      </trkpt>
      <trkpt lat="49.65637" lon="-1.5258">
        <ele>11.2</ele>
        <time>2020-06-15T08:29:08Z</time>
      </trkpt>
      <trkpt lat="49.65637" lon="-1.5258">
        <ele>11.2</ele>
        <time>2020-06-15T08:29:09Z</time>
      </trkpt>
      <trkpt lat="49.65637" lon="-1.52579">
        <ele>11.2</ele>
        <time>2020-06-15T08:29:10Z</time>
      </trkpt>
      <trkpt lat="49.65637" lon="-1.5258">
        <ele>11.2</ele>
        <time>2020-06-15T08:29:11Z</time>
      </trkpt>
      <trkpt lat="49.65636" lon="-1.5258">
        <ele>11.2</ele>
        <time>2020-06-15T08:29:12Z</time>
      </trkpt>
      <trkpt lat="49.65636" lon="-1.52579">
        <ele>11.2</ele>
        <time>2020-06-15T08:29:13Z</time>
      </trkpt>
      <trkpt lat="49.65636" lon="-1.5258">
        <ele>11.1</ele>
        <time>2020-06-15T08:29:14Z</time>
      </trkpt>
      <trkpt lat="49.65636" lon="-1.52581">
        <ele>11.1</ele>
        <time>2020-06-15T08:29:15Z</time>
      </trkpt>
      <trkpt lat="49.65636" lon="-1.52581">
        <ele>11.1</ele>
        <time>2020-06-15T08:29:16Z</time>
      </trkpt>
      <trkpt lat="49.65635" lon="-1.52581">
        <ele>11.1</ele>
        <time>2020-06-15T08:29:17Z</time>
      </trkpt>
      <trkpt lat="49.65642" lon="-1.52586">
        <ele>11.1</ele>
        <time>2020-06-15T08:29:24Z</time>
      </trkpt>
      <trkpt lat="49.65645" lon="-1.52588">
        <ele>11</ele>
        <time>2020-06-15T08:29:25Z</time>
      </trkpt>
      <trkpt lat="49.65648" lon="-1.5259">
        <ele>11</ele>
        <time>2020-06-15T08:29:26Z</time>
      </trkpt>
      <trkpt lat="49.65653" lon="-1.52592">
        <ele>11</ele>
        <time>2020-06-15T08:29:27Z</time>
      </trkpt>
      <trkpt lat="49.65654" lon="-1.52593">
        <ele>10.9</ele>
        <time>2020-06-15T08:29:28Z</time>
      </trkpt>
      <trkpt lat="49.65659" lon="-1.52594">
        <ele>10.9</ele>
        <time>2020-06-15T08:29:29Z</time>
      </trkpt>
      <trkpt lat="49.65663" lon="-1.52596">
        <ele>10.8</ele>
        <time>2020-06-15T08:29:30Z</time>
      </trkpt>
      <trkpt lat="49.65666" lon="-1.52599">
        <ele>10.8</ele>
        <time>2020-06-15T08:29:31Z</time>
      </trkpt>
      <trkpt lat="49.6567" lon="-1.526">
        <ele>10.7</ele>
        <time>2020-06-15T08:29:32Z</time>
      </trkpt>
      <trkpt lat="49.65673" lon="-1.52602">
        <ele>10.6</ele>
        <time>2020-06-15T08:29:33Z</time>
      </trkpt>
      <trkpt lat="49.65676" lon="-1.52604">
        <ele>10.6</ele>
        <time>2020-06-15T08:29:34Z</time>
      </trkpt>
      <trkpt lat="49.65679" lon="-1.52605">
        <ele>10.5</ele>
        <time>2020-06-15T08:29:35Z</time>
      </trkpt>
      <trkpt lat="49.65682" lon="-1.52607">
        <ele>10.4</ele>
        <time>2020-06-15T08:29:36Z</time>
      </trkpt>
      <trkpt lat="49.65683" lon="-1.52608">
        <ele>10.4</ele>
        <time>2020-06-15T08:29:37Z</time>
      </trkpt>
      <trkpt lat="49.65686" lon="-1.52611">
        <ele>10.3</ele>
        <time>2020-06-15T08:29:38Z</time>
      </trkpt>
      <trkpt lat="49.65689" lon="-1.52614">
        <ele>10.2</ele>
        <time>2020-06-15T08:29:39Z</time>
      </trkpt>
      <trkpt lat="49.65692" lon="-1.52617">
        <ele>10.2</ele>
        <time>2020-06-15T08:29:40Z</time>
      </trkpt>
      <trkpt lat="49.65695" lon="-1.52619">
        <ele>10.2</ele>
        <time>2020-06-15T08:29:41Z</time>
      </trkpt>
      <trkpt lat="49.65699" lon="-1.52618">
        <ele>10.1</ele>
        <time>2020-06-15T08:29:42Z</time>
      </trkpt>
      <trkpt lat="49.65701" lon="-1.52617">
        <ele>10.1</ele>
        <time>2020-06-15T08:29:43Z</time>
      </trkpt>
      <trkpt lat="49.65704" lon="-1.52615">
        <ele>9.9</ele>
        <time>2020-06-15T08:29:44Z</time>
      </trkpt>
      <trkpt lat="49.65707" lon="-1.52612">
        <ele>9.7</ele>
        <time>2020-06-15T08:29:45Z</time>
      </trkpt>
      <trkpt lat="49.6571" lon="-1.5261">
        <ele>9.6</ele>
        <time>2020-06-15T08:29:46Z</time>
      </trkpt>
      <trkpt lat="49.65711" lon="-1.52609">
        <ele>9.5</ele>
        <time>2020-06-15T08:29:47Z</time>
      </trkpt>
      <trkpt lat="49.65713" lon="-1.52606">
        <ele>9.3</ele>
        <time>2020-06-15T08:29:48Z</time>
      </trkpt>
      <trkpt lat="49.65714" lon="-1.52605">
        <ele>9.2</ele>
        <time>2020-06-15T08:29:49Z</time>
      </trkpt>
      <trkpt lat="49.65714" lon="-1.52601">
        <ele>9.1</ele>
        <time>2020-06-15T08:29:50Z</time>
      </trkpt>
      <trkpt lat="49.65716" lon="-1.52596">
        <ele>8.9</ele>
        <time>2020-06-15T08:29:51Z</time>
      </trkpt>
      <trkpt lat="49.65716" lon="-1.52591">
        <ele>8.6</ele>
        <time>2020-06-15T08:29:52Z</time>
      </trkpt>
      <trkpt lat="49.65717" lon="-1.52585">
        <ele>8.4</ele>
        <time>2020-06-15T08:29:53Z</time>
      </trkpt>
      <trkpt lat="49.65717" lon="-1.5258">
        <ele>8.2</ele>
        <time>2020-06-15T08:29:54Z</time>
      </trkpt>
      <trkpt lat="49.65718" lon="-1.52575">
        <ele>8</ele>
        <time>2020-06-15T08:29:55Z</time>
      </trkpt>
      <trkpt lat="49.65719" lon="-1.52569">
        <ele>7.9</ele>
        <time>2020-06-15T08:29:56Z</time>
      </trkpt>
      <trkpt lat="49.6572" lon="-1.52564">
        <ele>7.7</ele>
        <time>2020-06-15T08:29:57Z</time>
      </trkpt>
      <trkpt lat="49.65722" lon="-1.5256">
        <ele>7.6</ele>
        <time>2020-06-15T08:29:58Z</time>
      </trkpt>
      <trkpt lat="49.65725" lon="-1.52558">
        <ele>7.5</ele>
        <time>2020-06-15T08:29:59Z</time>
      </trkpt>
      <trkpt lat="49.65726" lon="-1.52559">
        <ele>7.4</ele>
        <time>2020-06-15T08:30:00Z</time>
      </trkpt>
      <trkpt lat="49.65729" lon="-1.5256">
        <ele>7.4</ele>
        <time>2020-06-15T08:30:01Z</time>
      </trkpt>
      <trkpt lat="49.6573" lon="-1.52561">
        <ele>7.3</ele>
        <time>2020-06-15T08:30:02Z</time>
      </trkpt>
      <trkpt lat="49.65734" lon="-1.52563">
        <ele>7.3</ele>
        <time>2020-06-15T08:30:03Z</time>
      </trkpt>
      <trkpt lat="49.65735" lon="-1.52564">
        <ele>7.2</ele>
        <time>2020-06-15T08:30:04Z</time>
      </trkpt>
      <trkpt lat="49.65738" lon="-1.52567">
        <ele>7.2</ele>
        <time>2020-06-15T08:30:05Z</time>
      </trkpt>
      <trkpt lat="49.65739" lon="-1.52568">
        <ele>7.2</ele>
        <time>2020-06-15T08:30:06Z</time>
      </trkpt>
      <trkpt lat="49.65742" lon="-1.5257">
        <ele>7.2</ele>
        <time>2020-06-15T08:30:07Z</time>
      </trkpt>
      <trkpt lat="49.65744" lon="-1.52571">
        <ele>7.1</ele>
        <time>2020-06-15T08:30:08Z</time>
      </trkpt>
      <trkpt lat="49.65746" lon="-1.52574">
        <ele>7.1</ele>
        <time>2020-06-15T08:30:09Z</time>
      </trkpt>
      <trkpt lat="49.6575" lon="-1.52576">
        <ele>7.1</ele>
        <time>2020-06-15T08:30:10Z</time>
      </trkpt>
      <trkpt lat="49.65751" lon="-1.52577">
        <ele>7.1</ele>
        <time>2020-06-15T08:30:11Z</time>
      </trkpt>
      <trkpt lat="49.65754" lon="-1.52579">
        <ele>7.1</ele>
        <time>2020-06-15T08:30:12Z</time>
      </trkpt>
      <trkpt lat="49.65757" lon="-1.5258">
        <ele>7</ele>
        <time>2020-06-15T08:30:13Z</time>
      </trkpt>
      <trkpt lat="49.6576" lon="-1.52581">
        <ele>7</ele>
        <time>2020-06-15T08:30:14Z</time>
      </trkpt>
      <trkpt lat="49.65762" lon="-1.52585">
        <ele>7</ele>
        <time>2020-06-15T08:30:15Z</time>
      </trkpt>
      <trkpt lat="49.65767" lon="-1.52586">
        <ele>7</ele>
        <time>2020-06-15T08:30:16Z</time>
      </trkpt>
      <trkpt lat="49.65769" lon="-1.52587">
        <ele>6.9</ele>
        <time>2020-06-15T08:30:17Z</time>
      </trkpt>
      <trkpt lat="49.65772" lon="-1.52588">
        <ele>6.9</ele>
        <time>2020-06-15T08:30:18Z</time>
      </trkpt>
      <trkpt lat="49.65776" lon="-1.52588">
        <ele>6.9</ele>
        <time>2020-06-15T08:30:19Z</time>
      </trkpt>
      <trkpt lat="49.65779" lon="-1.52589">
        <ele>7</ele>
        <time>2020-06-15T08:30:20Z</time>
      </trkpt>
      <trkpt lat="49.65782" lon="-1.52591">
        <ele>7</ele>
        <time>2020-06-15T08:30:21Z</time>
      </trkpt>
      <trkpt lat="49.65783" lon="-1.52595">
        <ele>7</ele>
        <time>2020-06-15T08:30:22Z</time>
      </trkpt>
      <trkpt lat="49.65783" lon="-1.52596">
        <ele>7</ele>
        <time>2020-06-15T08:30:23Z</time>
      </trkpt>
      <trkpt lat="49.65781" lon="-1.52595">
        <ele>7</ele>
        <time>2020-06-15T08:30:24Z</time>
      </trkpt>
      <trkpt lat="49.6578" lon="-1.52594">
        <ele>7</ele>
        <time>2020-06-15T08:30:25Z</time>
      </trkpt>
      <trkpt lat="49.65779" lon="-1.52593">
        <ele>7</ele>
        <time>2020-06-15T08:30:26Z</time>
      </trkpt>
      <trkpt lat="49.65776" lon="-1.5259">
        <ele>7</ele>
        <time>2020-06-15T08:30:27Z</time>
      </trkpt>
      <trkpt lat="49.65775" lon="-1.52589">
        <ele>7</ele>
        <time>2020-06-15T08:30:28Z</time>
      </trkpt>
      <trkpt lat="49.65772" lon="-1.52588">
        <ele>7.1</ele>
        <time>2020-06-15T08:30:29Z</time>
      </trkpt>
      <trkpt lat="49.65769" lon="-1.52586">
        <ele>7.1</ele>
        <time>2020-06-15T08:30:30Z</time>
      </trkpt>
      <trkpt lat="49.65766" lon="-1.52584">
        <ele>7.1</ele>
        <time>2020-06-15T08:30:31Z</time>
      </trkpt>
      <trkpt lat="49.65763" lon="-1.52583">
        <ele>7.1</ele>
        <time>2020-06-15T08:30:32Z</time>
      </trkpt>
      <trkpt lat="49.6576" lon="-1.52581">
        <ele>7.2</ele>
        <time>2020-06-15T08:30:33Z</time>
      </trkpt>
      <trkpt lat="49.65757" lon="-1.5258">
        <ele>7.2</ele>
        <time>2020-06-15T08:30:34Z</time>
      </trkpt>
      <trkpt lat="49.65754" lon="-1.52578">
        <ele>7.2</ele>
        <time>2020-06-15T08:30:35Z</time>
      </trkpt>
      <trkpt lat="49.65751" lon="-1.52575">
        <ele>7.2</ele>
        <time>2020-06-15T08:30:36Z</time>
      </trkpt>
      <trkpt lat="49.65748" lon="-1.52573">
        <ele>7.3</ele>
        <time>2020-06-15T08:30:37Z</time>
      </trkpt>
      <trkpt lat="49.65744" lon="-1.52571">
        <ele>7.3</ele>
        <time>2020-06-15T08:30:38Z</time>
      </trkpt>
      <trkpt lat="49.65741" lon="-1.52569">
        <ele>7.4</ele>
        <time>2020-06-15T08:30:39Z</time>
      </trkpt>
      <trkpt lat="49.65737" lon="-1.52568">
        <ele>7.5</ele>
        <time>2020-06-15T08:30:40Z</time>
      </trkpt>
      <trkpt lat="49.65733" lon="-1.52566">
        <ele>7.6</ele>
        <time>2020-06-15T08:30:41Z</time>
      </trkpt>
      <trkpt lat="49.6573" lon="-1.52565">
        <ele>7.7</ele>
        <time>2020-06-15T08:30:42Z</time>
      </trkpt>
      <trkpt lat="49.65727" lon="-1.52563">
        <ele>7.8</ele>
        <time>2020-06-15T08:30:43Z</time>
      </trkpt>
      <trkpt lat="49.65724" lon="-1.52563">
        <ele>7.9</ele>
        <time>2020-06-15T08:30:44Z</time>
      </trkpt>
      <trkpt lat="49.65721" lon="-1.52561">
        <ele>8</ele>
        <time>2020-06-15T08:30:45Z</time>
      </trkpt>
      <trkpt lat="49.65718" lon="-1.52563">
        <ele>8.2</ele>
        <time>2020-06-15T08:30:46Z</time>
      </trkpt>
      <trkpt lat="49.65715" lon="-1.52566">
        <ele>8.3</ele>
        <time>2020-06-15T08:30:47Z</time>
      </trkpt>
      <trkpt lat="49.65714" lon="-1.52568">
        <ele>8.4</ele>
        <time>2020-06-15T08:30:48Z</time>
      </trkpt>
      <trkpt lat="49.65713" lon="-1.52572">
        <ele>8.6</ele>
        <time>2020-06-15T08:30:49Z</time>
      </trkpt>
      <trkpt lat="49.65711" lon="-1.52578">
        <ele>8.8</ele>
        <time>2020-06-15T08:30:50Z</time>
      </trkpt>
      <trkpt lat="49.65711" lon="-1.52583">
        <ele>9</ele>
        <time>2020-06-15T08:30:51Z</time>
      </trkpt>
      <trkpt lat="49.6571" lon="-1.5259">
        <ele>9.2</ele>
        <time>2020-06-15T08:30:52Z</time>
      </trkpt>
      <trkpt lat="49.65709" lon="-1.52595">
        <ele>9.4</ele>
        <time>2020-06-15T08:30:53Z</time>
      </trkpt>
      <trkpt lat="49.65708" lon="-1.526">
        <ele>9.5</ele>
        <time>2020-06-15T08:30:54Z</time>
      </trkpt>
      <trkpt lat="49.65707" lon="-1.52605">
        <ele>9.7</ele>
        <time>2020-06-15T08:30:55Z</time>
      </trkpt>
      <trkpt lat="49.65705" lon="-1.52608">
        <ele>9.8</ele>
        <time>2020-06-15T08:30:56Z</time>
      </trkpt>
      <trkpt lat="49.65704" lon="-1.52613">
        <ele>9.9</ele>
        <time>2020-06-15T08:30:57Z</time>
      </trkpt>
      <trkpt lat="49.657" lon="-1.52613">
        <ele>10.1</ele>
        <time>2020-06-15T08:30:58Z</time>
      </trkpt>
      <trkpt lat="49.65699" lon="-1.52613">
        <ele>10.1</ele>
        <time>2020-06-15T08:30:59Z</time>
      </trkpt>
      <trkpt lat="49.65696" lon="-1.52613">
        <ele>10.2</ele>
        <time>2020-06-15T08:31:00Z</time>
      </trkpt>
      <trkpt lat="49.65692" lon="-1.52613">
        <ele>10.2</ele>
        <time>2020-06-15T08:31:01Z</time>
      </trkpt>
      <trkpt lat="49.6569" lon="-1.52613">
        <ele>10.2</ele>
        <time>2020-06-15T08:31:02Z</time>
      </trkpt>
      <trkpt lat="49.65687" lon="-1.52611">
        <ele>10.3</ele>
        <time>2020-06-15T08:31:03Z</time>
      </trkpt>
      <trkpt lat="49.65686" lon="-1.52609">
        <ele>10.3</ele>
        <time>2020-06-15T08:31:04Z</time>
      </trkpt>
      <trkpt lat="49.65684" lon="-1.52606">
        <ele>10.4</ele>
        <time>2020-06-15T08:31:05Z</time>
      </trkpt>
      <trkpt lat="49.65682" lon="-1.52603">
        <ele>10.5</ele>
        <time>2020-06-15T08:31:06Z</time>
      </trkpt>
      <trkpt lat="49.65679" lon="-1.52601">
        <ele>10.6</ele>
        <time>2020-06-15T08:31:07Z</time>
      </trkpt>
      <trkpt lat="49.65676" lon="-1.52598">
        <ele>10.6</ele>
        <time>2020-06-15T08:31:08Z</time>
      </trkpt>
      <trkpt lat="49.65673" lon="-1.52598">
        <ele>10.7</ele>
        <time>2020-06-15T08:31:09Z</time>
      </trkpt>
      <trkpt lat="49.6567" lon="-1.52596">
        <ele>10.7</ele>
        <time>2020-06-15T08:31:10Z</time>
      </trkpt>
      <trkpt lat="49.65666" lon="-1.52594">
        <ele>10.8</ele>
        <time>2020-06-15T08:31:11Z</time>
      </trkpt>
      <trkpt lat="49.65663" lon="-1.52591">
        <ele>10.9</ele>
        <time>2020-06-15T08:31:12Z</time>
      </trkpt>
      <trkpt lat="49.6566" lon="-1.52589">
        <ele>10.9</ele>
        <time>2020-06-15T08:31:13Z</time>
      </trkpt>
      <trkpt lat="49.65656" lon="-1.52587">
        <ele>11</ele>
        <time>2020-06-15T08:31:14Z</time>
      </trkpt>
      <trkpt lat="49.65651" lon="-1.52585">
        <ele>11</ele>
        <time>2020-06-15T08:31:15Z</time>
      </trkpt>
      <trkpt lat="49.65647" lon="-1.52584">
        <ele>11.1</ele>
        <time>2020-06-15T08:31:16Z</time>
      </trkpt>
      <trkpt lat="49.65643" lon="-1.52584">
        <ele>11.1</ele>
        <time>2020-06-15T08:31:17Z</time>
      </trkpt>
      <trkpt lat="49.6564" lon="-1.52584">
        <ele>11.1</ele>
        <time>2020-06-15T08:31:18Z</time>
      </trkpt>
      <trkpt lat="49.65639" lon="-1.52585">
        <ele>11.1</ele>
        <time>2020-06-15T08:31:19Z</time>
      </trkpt>
      <trkpt lat="49.65636" lon="-1.52583">
        <ele>11.2</ele>
        <time>2020-06-15T08:31:20Z</time>
      </trkpt>
      <trkpt lat="49.65635" lon="-1.52583">
        <ele>11.2</ele>
        <time>2020-06-15T08:31:21Z</time>
      </trkpt>
      <trkpt lat="49.65631" lon="-1.52582">
        <ele>11.2</ele>
        <time>2020-06-15T08:31:22Z</time>
      </trkpt>
      <trkpt lat="49.6563" lon="-1.52581">
        <ele>11.2</ele>
        <time>2020-06-15T08:31:23Z</time>
      </trkpt>
      <trkpt lat="49.65627" lon="-1.52578">
        <ele>11.1</ele>
        <time>2020-06-15T08:31:24Z</time>
      </trkpt>
      <trkpt lat="49.65627" lon="-1.52576">
        <ele>11.1</ele>
        <time>2020-06-15T08:31:25Z</time>
      </trkpt>
      <trkpt lat="49.65626" lon="-1.52571">
        <ele>11</ele>
        <time>2020-06-15T08:31:26Z</time>
      </trkpt>
      <trkpt lat="49.65626" lon="-1.52566">
        <ele>11</ele>
        <time>2020-06-15T08:31:27Z</time>
      </trkpt>
      <trkpt lat="49.65627" lon="-1.52559">
        <ele>10.8</ele>
        <time>2020-06-15T08:31:28Z</time>
      </trkpt>
      <trkpt lat="49.65628" lon="-1.52553">
        <ele>10.7</ele>
        <time>2020-06-15T08:31:29Z</time>
      </trkpt>
      <trkpt lat="49.65629" lon="-1.52545">
        <ele>10.6</ele>
        <time>2020-06-15T08:31:30Z</time>
      </trkpt>
      <trkpt lat="49.6563" lon="-1.52537">
        <ele>10.5</ele>
        <time>2020-06-15T08:31:31Z</time>
      </trkpt>
      <trkpt lat="49.65631" lon="-1.52528">
        <ele>10.4</ele>
        <time>2020-06-15T08:31:32Z</time>
      </trkpt>
      <trkpt lat="49.65631" lon="-1.5252">
        <ele>10.2</ele>
        <time>2020-06-15T08:31:33Z</time>
      </trkpt>
      <trkpt lat="49.65632" lon="-1.52511">
        <ele>10.1</ele>
        <time>2020-06-15T08:31:34Z</time>
      </trkpt>
      <trkpt lat="49.65632" lon="-1.52503">
        <ele>10</ele>
        <time>2020-06-15T08:31:35Z</time>
      </trkpt>
      <trkpt lat="49.65633" lon="-1.52495">
        <ele>9.9</ele>
        <time>2020-06-15T08:31:36Z</time>
      </trkpt>
      <trkpt lat="49.65634" lon="-1.52486">
        <ele>9.8</ele>
        <time>2020-06-15T08:31:37Z</time>
      </trkpt>
      <trkpt lat="49.65635" lon="-1.52476">
        <ele>9.7</ele>
        <time>2020-06-15T08:31:38Z</time>
      </trkpt>
      <trkpt lat="49.65634" lon="-1.52467">
        <ele>9.7</ele>
        <time>2020-06-15T08:31:39Z</time>
      </trkpt>
      <trkpt lat="49.65634" lon="-1.52458">
        <ele>9.6</ele>
        <time>2020-06-15T08:31:40Z</time>
      </trkpt>
      <trkpt lat="49.65633" lon="-1.5245">
        <ele>9.6</ele>
        <time>2020-06-15T08:31:41Z</time>
      </trkpt>
      <trkpt lat="49.65632" lon="-1.52441">
        <ele>9.6</ele>
        <time>2020-06-15T08:31:42Z</time>
      </trkpt>
      <trkpt lat="49.65633" lon="-1.52432">
        <ele>9.6</ele>
        <time>2020-06-15T08:31:43Z</time>
      </trkpt>
      <trkpt lat="49.65633" lon="-1.52422">
        <ele>9.7</ele>
        <time>2020-06-15T08:31:44Z</time>
      </trkpt>
      <trkpt lat="49.65632" lon="-1.52413">
        <ele>9.7</ele>
        <time>2020-06-15T08:31:45Z</time>
      </trkpt>
      <trkpt lat="49.65632" lon="-1.52405">
        <ele>9.7</ele>
        <time>2020-06-15T08:31:46Z</time>
      </trkpt>
      <trkpt lat="49.65632" lon="-1.52396">
        <ele>9.8</ele>
        <time>2020-06-15T08:31:47Z</time>
      </trkpt>
      <trkpt lat="49.65632" lon="-1.52388">
        <ele>9.9</ele>
        <time>2020-06-15T08:31:48Z</time>
      </trkpt>
      <trkpt lat="49.65631" lon="-1.5238">
        <ele>9.9</ele>
        <time>2020-06-15T08:31:49Z</time>
      </trkpt>
      <trkpt lat="49.6563" lon="-1.52373">
        <ele>10</ele>
        <time>2020-06-15T08:31:50Z</time>
      </trkpt>
      <trkpt lat="49.65629" lon="-1.52367">
        <ele>10.2</ele>
        <time>2020-06-15T08:31:51Z</time>
      </trkpt>
      <trkpt lat="49.65629" lon="-1.5236">
        <ele>10.3</ele>
        <time>2020-06-15T08:31:52Z</time>
      </trkpt>
      <trkpt lat="49.65628" lon="-1.52355">
        <ele>10.4</ele>
        <time>2020-06-15T08:31:53Z</time>
      </trkpt>
      <trkpt lat="49.65628" lon="-1.52348">
        <ele>10.5</ele>
        <time>2020-06-15T08:31:54Z</time>
      </trkpt>
      <trkpt lat="49.65627" lon="-1.52342">
        <ele>10.6</ele>
        <time>2020-06-15T08:31:55Z</time>
      </trkpt>
      <trkpt lat="49.65626" lon="-1.52337">
        <ele>10.7</ele>
        <time>2020-06-15T08:31:56Z</time>
      </trkpt>
      <trkpt lat="49.65625" lon="-1.52332">
        <ele>10.7</ele>
        <time>2020-06-15T08:31:57Z</time>
      </trkpt>
      <trkpt lat="49.65623" lon="-1.52328">
        <ele>10.8</ele>
        <time>2020-06-15T08:31:58Z</time>
      </trkpt>
      <trkpt lat="49.65621" lon="-1.52323">
        <ele>10.8</ele>
        <time>2020-06-15T08:31:59Z</time>
      </trkpt>
      <trkpt lat="49.65621" lon="-1.52321">
        <ele>10.8</ele>
        <time>2020-06-15T08:32:00Z</time>
      </trkpt>
      <trkpt lat="49.65621" lon="-1.52315">
        <ele>10.8</ele>
        <time>2020-06-15T08:32:01Z</time>
      </trkpt>
      <trkpt lat="49.65622" lon="-1.5231">
        <ele>10.8</ele>
        <time>2020-06-15T08:32:02Z</time>
      </trkpt>
      <trkpt lat="49.65623" lon="-1.52304">
        <ele>10.7</ele>
        <time>2020-06-15T08:32:03Z</time>
      </trkpt>
      <trkpt lat="49.65626" lon="-1.52299">
        <ele>10.7</ele>
        <time>2020-06-15T08:32:04Z</time>
      </trkpt>
      <trkpt lat="49.65628" lon="-1.52293">
        <ele>10.6</ele>
        <time>2020-06-15T08:32:05Z</time>
      </trkpt>
      <trkpt lat="49.6563" lon="-1.52287">
        <ele>10.5</ele>
        <time>2020-06-15T08:32:06Z</time>
      </trkpt>
      <trkpt lat="49.65631" lon="-1.5228">
        <ele>10.3</ele>
        <time>2020-06-15T08:32:07Z</time>
      </trkpt>
      <trkpt lat="49.65633" lon="-1.52273">
        <ele>10.2</ele>
        <time>2020-06-15T08:32:08Z</time>
      </trkpt>
      <trkpt lat="49.65634" lon="-1.52265">
        <ele>10.1</ele>
        <time>2020-06-15T08:32:09Z</time>
      </trkpt>
      <trkpt lat="49.65636" lon="-1.52256">
        <ele>9.9</ele>
        <time>2020-06-15T08:32:10Z</time>
      </trkpt>
      <trkpt lat="49.65638" lon="-1.52248">
        <ele>9.8</ele>
        <time>2020-06-15T08:32:11Z</time>
      </trkpt>
      <trkpt lat="49.6564" lon="-1.5224">
        <ele>9.7</ele>
        <time>2020-06-15T08:32:12Z</time>
      </trkpt>
      <trkpt lat="49.65642" lon="-1.52233">
        <ele>9.6</ele>
        <time>2020-06-15T08:32:13Z</time>
      </trkpt>
      <trkpt lat="49.65644" lon="-1.52224">
        <ele>9.4</ele>
        <time>2020-06-15T08:32:14Z</time>
      </trkpt>
      <trkpt lat="49.65646" lon="-1.52215">
        <ele>9.3</ele>
        <time>2020-06-15T08:32:15Z</time>
      </trkpt>
      <trkpt lat="49.65648" lon="-1.52206">
        <ele>9.2</ele>
        <time>2020-06-15T08:32:16Z</time>
      </trkpt>
      <trkpt lat="49.6565" lon="-1.52198">
        <ele>9.1</ele>
        <time>2020-06-15T08:32:17Z</time>
      </trkpt>
      <trkpt lat="49.65653" lon="-1.5219">
        <ele>9.1</ele>
        <time>2020-06-15T08:32:18Z</time>
      </trkpt>
      <trkpt lat="49.65655" lon="-1.52182">
        <ele>9</ele>
        <time>2020-06-15T08:32:19Z</time>
      </trkpt>
      <trkpt lat="49.65658" lon="-1.52174">
        <ele>9</ele>
        <time>2020-06-15T08:32:20Z</time>
      </trkpt>
      <trkpt lat="49.6566" lon="-1.52165">
        <ele>8.9</ele>
        <time>2020-06-15T08:32:21Z</time>
      </trkpt>
      <trkpt lat="49.65662" lon="-1.52157">
        <ele>8.8</ele>
        <time>2020-06-15T08:32:22Z</time>
      </trkpt>
      <trkpt lat="49.65664" lon="-1.52148">
        <ele>8.8</ele>
        <time>2020-06-15T08:32:23Z</time>
      </trkpt>
      <trkpt lat="49.65666" lon="-1.52139">
        <ele>8.7</ele>
        <time>2020-06-15T08:32:24Z</time>
      </trkpt>
      <trkpt lat="49.65668" lon="-1.5213">
        <ele>8.6</ele>
        <time>2020-06-15T08:32:25Z</time>
      </trkpt>
      <trkpt lat="49.6567" lon="-1.52121">
        <ele>8.6</ele>
        <time>2020-06-15T08:32:26Z</time>
      </trkpt>
      <trkpt lat="49.65673" lon="-1.52112">
        <ele>8.5</ele>
        <time>2020-06-15T08:32:27Z</time>
      </trkpt>
      <trkpt lat="49.65675" lon="-1.52102">
        <ele>8.5</ele>
        <time>2020-06-15T08:32:28Z</time>
      </trkpt>
      <trkpt lat="49.65676" lon="-1.52094">
        <ele>8.5</ele>
        <time>2020-06-15T08:32:29Z</time>
      </trkpt>
      <trkpt lat="49.65678" lon="-1.52086">
        <ele>8.5</ele>
        <time>2020-06-15T08:32:30Z</time>
      </trkpt>
      <trkpt lat="49.6568" lon="-1.52079">
        <ele>8.6</ele>
        <time>2020-06-15T08:32:31Z</time>
      </trkpt>
      <trkpt lat="49.65684" lon="-1.5207">
        <ele>8.6</ele>
        <time>2020-06-15T08:32:32Z</time>
      </trkpt>
      <trkpt lat="49.65686" lon="-1.52063">
        <ele>8.7</ele>
        <time>2020-06-15T08:32:33Z</time>
      </trkpt>
      <trkpt lat="49.65686" lon="-1.52056">
        <ele>8.7</ele>
        <time>2020-06-15T08:32:34Z</time>
      </trkpt>
      <trkpt lat="49.65688" lon="-1.52048">
        <ele>8.8</ele>
        <time>2020-06-15T08:32:35Z</time>
      </trkpt>
      <trkpt lat="49.65691" lon="-1.5204">
        <ele>8.9</ele>
        <time>2020-06-15T08:32:36Z</time>
      </trkpt>
      <trkpt lat="49.65693" lon="-1.52033">
        <ele>9</ele>
        <time>2020-06-15T08:32:37Z</time>
      </trkpt>
      <trkpt lat="49.65696" lon="-1.52025">
        <ele>9</ele>
        <time>2020-06-15T08:32:38Z</time>
      </trkpt>
      <trkpt lat="49.65698" lon="-1.52017">
        <ele>9.1</ele>
        <time>2020-06-15T08:32:39Z</time>
      </trkpt>
      <trkpt lat="49.657" lon="-1.52009">
        <ele>9.1</ele>
        <time>2020-06-15T08:32:40Z</time>
      </trkpt>
      <trkpt lat="49.65702" lon="-1.52002">
        <ele>9.2</ele>
        <time>2020-06-15T08:32:41Z</time>
      </trkpt>
      <trkpt lat="49.65704" lon="-1.51995">
        <ele>9.3</ele>
        <time>2020-06-15T08:32:42Z</time>
      </trkpt>
      <trkpt lat="49.65706" lon="-1.51987">
        <ele>9.2</ele>
        <time>2020-06-15T08:32:43Z</time>
      </trkpt>
      <trkpt lat="49.65708" lon="-1.51979">
        <ele>9.2</ele>
        <time>2020-06-15T08:32:44Z</time>
      </trkpt>
      <trkpt lat="49.65711" lon="-1.51971">
        <ele>9.2</ele>
        <time>2020-06-15T08:32:45Z</time>
      </trkpt>
      <trkpt lat="49.65713" lon="-1.51965">
        <ele>9.2</ele>
        <time>2020-06-15T08:32:46Z</time>
      </trkpt>
      <trkpt lat="49.65716" lon="-1.51957">
        <ele>9.2</ele>
        <time>2020-06-15T08:32:47Z</time>
      </trkpt>
      <trkpt lat="49.65719" lon="-1.5195">
        <ele>9.1</ele>
        <time>2020-06-15T08:32:48Z</time>
      </trkpt>
      <trkpt lat="49.65722" lon="-1.51942">
        <ele>9.1</ele>
        <time>2020-06-15T08:32:49Z</time>
      </trkpt>
      <trkpt lat="49.65725" lon="-1.51935">
        <ele>9</ele>
        <time>2020-06-15T08:32:50Z</time>
      </trkpt>
      <trkpt lat="49.65729" lon="-1.51927">
        <ele>9</ele>
        <time>2020-06-15T08:32:51Z</time>
      </trkpt>
      <trkpt lat="49.65731" lon="-1.5192">
        <ele>9</ele>
        <time>2020-06-15T08:32:52Z</time>
      </trkpt>
      <trkpt lat="49.65733" lon="-1.51912">
        <ele>8.9</ele>
        <time>2020-06-15T08:32:53Z</time>
      </trkpt>
      <trkpt lat="49.65735" lon="-1.51904">
        <ele>8.9</ele>
        <time>2020-06-15T08:32:54Z</time>
      </trkpt>
      <trkpt lat="49.65738" lon="-1.51897">
        <ele>8.9</ele>
        <time>2020-06-15T08:32:55Z</time>
      </trkpt>
      <trkpt lat="49.6574" lon="-1.51889">
        <ele>8.9</ele>
        <time>2020-06-15T08:32:56Z</time>
      </trkpt>
      <trkpt lat="49.65742" lon="-1.51881">
        <ele>8.9</ele>
        <time>2020-06-15T08:32:57Z</time>
      </trkpt>
      <trkpt lat="49.65744" lon="-1.51873">
        <ele>8.9</ele>
        <time>2020-06-15T08:32:58Z</time>
      </trkpt>
      <trkpt lat="49.65746" lon="-1.51865">
        <ele>8.9</ele>
        <time>2020-06-15T08:32:59Z</time>
      </trkpt>
      <trkpt lat="49.65749" lon="-1.51858">
        <ele>8.9</ele>
        <time>2020-06-15T08:33:00Z</time>
      </trkpt>
      <trkpt lat="49.65751" lon="-1.51851">
        <ele>8.9</ele>
        <time>2020-06-15T08:33:01Z</time>
      </trkpt>
      <trkpt lat="49.65753" lon="-1.51845">
        <ele>8.9</ele>
        <time>2020-06-15T08:33:02Z</time>
      </trkpt>
      <trkpt lat="49.65755" lon="-1.51837">
        <ele>8.9</ele>
        <time>2020-06-15T08:33:03Z</time>
      </trkpt>
      <trkpt lat="49.65757" lon="-1.51829">
        <ele>8.9</ele>
        <time>2020-06-15T08:33:04Z</time>
      </trkpt>
      <trkpt lat="49.65759" lon="-1.51822">
        <ele>8.9</ele>
        <time>2020-06-15T08:33:05Z</time>
      </trkpt>
      <trkpt lat="49.65761" lon="-1.51817">
        <ele>8.9</ele>
        <time>2020-06-15T08:33:06Z</time>
      </trkpt>
      <trkpt lat="49.65763" lon="-1.5181">
        <ele>8.9</ele>
        <time>2020-06-15T08:33:07Z</time>
      </trkpt>
      <trkpt lat="49.65766" lon="-1.51803">
        <ele>8.9</ele>
        <time>2020-06-15T08:33:08Z</time>
      </trkpt>
      <trkpt lat="49.65768" lon="-1.51795">
        <ele>9</ele>
        <time>2020-06-15T08:33:09Z</time>
      </trkpt>
      <trkpt lat="49.65772" lon="-1.51786">
        <ele>9</ele>
        <time>2020-06-15T08:33:10Z</time>
      </trkpt>
      <trkpt lat="49.65775" lon="-1.51779">
        <ele>9</ele>
        <time>2020-06-15T08:33:11Z</time>
      </trkpt>
      <trkpt lat="49.65778" lon="-1.5177">
        <ele>9.1</ele>
        <time>2020-06-15T08:33:12Z</time>
      </trkpt>
      <trkpt lat="49.6578" lon="-1.51764">
        <ele>9.1</ele>
        <time>2020-06-15T08:33:13Z</time>
      </trkpt>
      <trkpt lat="49.65783" lon="-1.51757">
        <ele>9.1</ele>
        <time>2020-06-15T08:33:14Z</time>
      </trkpt>
      <trkpt lat="49.65785" lon="-1.51749">
        <ele>9.1</ele>
        <time>2020-06-15T08:33:15Z</time>
      </trkpt>
      <trkpt lat="49.65788" lon="-1.51741">
        <ele>9.1</ele>
        <time>2020-06-15T08:33:16Z</time>
      </trkpt>
      <trkpt lat="49.6579" lon="-1.51734">
        <ele>9.1</ele>
        <time>2020-06-15T08:33:17Z</time>
      </trkpt>
      <trkpt lat="49.65794" lon="-1.51727">
        <ele>9.1</ele>
        <time>2020-06-15T08:33:18Z</time>
      </trkpt>
      <trkpt lat="49.65797" lon="-1.51721">
        <ele>9.1</ele>
        <time>2020-06-15T08:33:19Z</time>
      </trkpt>
      <trkpt lat="49.658" lon="-1.51714">
        <ele>9.1</ele>
        <time>2020-06-15T08:33:20Z</time>
      </trkpt>
      <trkpt lat="49.65802" lon="-1.51707">
        <ele>9.1</ele>
        <time>2020-06-15T08:33:21Z</time>
      </trkpt>
      <trkpt lat="49.65804" lon="-1.51701">
        <ele>9.1</ele>
        <time>2020-06-15T08:33:22Z</time>
      </trkpt>
      <trkpt lat="49.65807" lon="-1.51692">
        <ele>9.1</ele>
        <time>2020-06-15T08:33:23Z</time>
      </trkpt>
      <trkpt lat="49.65809" lon="-1.51684">
        <ele>9.1</ele>
        <time>2020-06-15T08:33:24Z</time>
      </trkpt>
      <trkpt lat="49.65811" lon="-1.51676">
        <ele>9</ele>
        <time>2020-06-15T08:33:25Z</time>
      </trkpt>
      <trkpt lat="49.65814" lon="-1.51669">
        <ele>9</ele>
        <time>2020-06-15T08:33:26Z</time>
      </trkpt>
      <trkpt lat="49.65817" lon="-1.51661">
        <ele>9</ele>
        <time>2020-06-15T08:33:27Z</time>
      </trkpt>
      <trkpt lat="49.65818" lon="-1.51654">
        <ele>9</ele>
        <time>2020-06-15T08:33:28Z</time>
      </trkpt>
      <trkpt lat="49.65821" lon="-1.51647">
        <ele>9</ele>
        <time>2020-06-15T08:33:29Z</time>
      </trkpt>
      <trkpt lat="49.65823" lon="-1.51639">
        <ele>9</ele>
        <time>2020-06-15T08:33:30Z</time>
      </trkpt>
      <trkpt lat="49.65825" lon="-1.51632">
        <ele>8.9</ele>
        <time>2020-06-15T08:33:31Z</time>
      </trkpt>
      <trkpt lat="49.65828" lon="-1.51624">
        <ele>8.9</ele>
        <time>2020-06-15T08:33:32Z</time>
      </trkpt>
      <trkpt lat="49.65831" lon="-1.51616">
        <ele>8.9</ele>
        <time>2020-06-15T08:33:33Z</time>
      </trkpt>
      <trkpt lat="49.65833" lon="-1.51608">
        <ele>8.8</ele>
        <time>2020-06-15T08:33:34Z</time>
      </trkpt>
      <trkpt lat="49.65836" lon="-1.51599">
        <ele>8.8</ele>
        <time>2020-06-15T08:33:35Z</time>
      </trkpt>
      <trkpt lat="49.65839" lon="-1.51591">
        <ele>8.8</ele>
        <time>2020-06-15T08:33:36Z</time>
      </trkpt>
      <trkpt lat="49.65842" lon="-1.51583">
        <ele>8.8</ele>
        <time>2020-06-15T08:33:37Z</time>
      </trkpt>
      <trkpt lat="49.65844" lon="-1.51576">
        <ele>8.7</ele>
        <time>2020-06-15T08:33:38Z</time>
      </trkpt>
      <trkpt lat="49.65849" lon="-1.51566">
        <ele>8.7</ele>
        <time>2020-06-15T08:33:39Z</time>
      </trkpt>
      <trkpt lat="49.65852" lon="-1.51557">
        <ele>8.7</ele>
        <time>2020-06-15T08:33:40Z</time>
      </trkpt>
      <trkpt lat="49.65854" lon="-1.51549">
        <ele>8.7</ele>
        <time>2020-06-15T08:33:41Z</time>
      </trkpt>
      <trkpt lat="49.65857" lon="-1.51541">
        <ele>8.6</ele>
        <time>2020-06-15T08:33:42Z</time>
      </trkpt>
      <trkpt lat="49.6586" lon="-1.51533">
        <ele>8.6</ele>
        <time>2020-06-15T08:33:43Z</time>
      </trkpt>
      <trkpt lat="49.65863" lon="-1.51524">
        <ele>8.6</ele>
        <time>2020-06-15T08:33:44Z</time>
      </trkpt>
      <trkpt lat="49.65866" lon="-1.51515">
        <ele>8.6</ele>
        <time>2020-06-15T08:33:45Z</time>
      </trkpt>
      <trkpt lat="49.65869" lon="-1.51506">
        <ele>8.6</ele>
        <time>2020-06-15T08:33:46Z</time>
      </trkpt>
      <trkpt lat="49.65872" lon="-1.51497">
        <ele>8.5</ele>
        <time>2020-06-15T08:33:47Z</time>
      </trkpt>
      <trkpt lat="49.65874" lon="-1.51489">
        <ele>8.5</ele>
        <time>2020-06-15T08:33:48Z</time>
      </trkpt>
      <trkpt lat="49.65877" lon="-1.51481">
        <ele>8.5</ele>
        <time>2020-06-15T08:33:49Z</time>
      </trkpt>
      <trkpt lat="49.65879" lon="-1.51471">
        <ele>8.5</ele>
        <time>2020-06-15T08:33:50Z</time>
      </trkpt>
      <trkpt lat="49.65883" lon="-1.51463">
        <ele>8.5</ele>
        <time>2020-06-15T08:33:51Z</time>
      </trkpt>
      <trkpt lat="49.65885" lon="-1.51454">
        <ele>8.5</ele>
        <time>2020-06-15T08:33:52Z</time>
      </trkpt>
      <trkpt lat="49.65888" lon="-1.51445">
        <ele>8.4</ele>
        <time>2020-06-15T08:33:53Z</time>
      </trkpt>
      <trkpt lat="49.65891" lon="-1.51436">
        <ele>8.4</ele>
        <time>2020-06-15T08:33:54Z</time>
      </trkpt>
      <trkpt lat="49.65893" lon="-1.51428">
        <ele>8.3</ele>
        <time>2020-06-15T08:33:55Z</time>
      </trkpt>
      <trkpt lat="49.65896" lon="-1.51419">
        <ele>8.3</ele>
        <time>2020-06-15T08:33:56Z</time>
      </trkpt>
      <trkpt lat="49.65899" lon="-1.5141">
        <ele>8.3</ele>
        <time>2020-06-15T08:33:57Z</time>
      </trkpt>
      <trkpt lat="49.65902" lon="-1.51401">
        <ele>8.3</ele>
        <time>2020-06-15T08:33:58Z</time>
      </trkpt>
      <trkpt lat="49.65905" lon="-1.51392">
        <ele>8.3</ele>
        <time>2020-06-15T08:33:59Z</time>
      </trkpt>
      <trkpt lat="49.65908" lon="-1.51383">
        <ele>8.2</ele>
        <time>2020-06-15T08:34:00Z</time>
      </trkpt>
      <trkpt lat="49.65911" lon="-1.51374">
        <ele>8.2</ele>
        <time>2020-06-15T08:34:01Z</time>
      </trkpt>
      <trkpt lat="49.65913" lon="-1.51365">
        <ele>8.2</ele>
        <time>2020-06-15T08:34:02Z</time>
      </trkpt>
      <trkpt lat="49.65916" lon="-1.51356">
        <ele>8.2</ele>
        <time>2020-06-15T08:34:03Z</time>
      </trkpt>
      <trkpt lat="49.6592" lon="-1.51347">
        <ele>8.2</ele>
        <time>2020-06-15T08:34:04Z</time>
      </trkpt>
      <trkpt lat="49.65924" lon="-1.51338">
        <ele>8.1</ele>
        <time>2020-06-15T08:34:05Z</time>
      </trkpt>
      <trkpt lat="49.65926" lon="-1.5133">
        <ele>8.1</ele>
        <time>2020-06-15T08:34:06Z</time>
      </trkpt>
      <trkpt lat="49.65929" lon="-1.51321">
        <ele>8.1</ele>
        <time>2020-06-15T08:34:07Z</time>
      </trkpt>
      <trkpt lat="49.65932" lon="-1.51313">
        <ele>8.1</ele>
        <time>2020-06-15T08:34:08Z</time>
      </trkpt>
      <trkpt lat="49.65934" lon="-1.51304">
        <ele>8.1</ele>
        <time>2020-06-15T08:34:09Z</time>
      </trkpt>
      <trkpt lat="49.65937" lon="-1.51295">
        <ele>8.1</ele>
        <time>2020-06-15T08:34:10Z</time>
      </trkpt>
      <trkpt lat="49.6594" lon="-1.51286">
        <ele>8.1</ele>
        <time>2020-06-15T08:34:11Z</time>
      </trkpt>
      <trkpt lat="49.65943" lon="-1.51276">
        <ele>8</ele>
        <time>2020-06-15T08:34:12Z</time>
      </trkpt>
      <trkpt lat="49.65945" lon="-1.51268">
        <ele>7.9</ele>
        <time>2020-06-15T08:34:13Z</time>
      </trkpt>
      <trkpt lat="49.65948" lon="-1.51258">
        <ele>7.8</ele>
        <time>2020-06-15T08:34:14Z</time>
      </trkpt>
      <trkpt lat="49.65951" lon="-1.51249">
        <ele>7.8</ele>
        <time>2020-06-15T08:34:15Z</time>
      </trkpt>
      <trkpt lat="49.65954" lon="-1.51239">
        <ele>7.8</ele>
        <time>2020-06-15T08:34:16Z</time>
      </trkpt>
      <trkpt lat="49.65957" lon="-1.5123">
        <ele>7.8</ele>
        <time>2020-06-15T08:34:17Z</time>
      </trkpt>
      <trkpt lat="49.65961" lon="-1.51222">
        <ele>7.8</ele>
        <time>2020-06-15T08:34:18Z</time>
      </trkpt>
      <trkpt lat="49.65964" lon="-1.51212">
        <ele>7.8</ele>
        <time>2020-06-15T08:34:19Z</time>
      </trkpt>
      <trkpt lat="49.65967" lon="-1.51203">
        <ele>7.8</ele>
        <time>2020-06-15T08:34:20Z</time>
      </trkpt>
      <trkpt lat="49.6597" lon="-1.51193">
        <ele>7.8</ele>
        <time>2020-06-15T08:34:21Z</time>
      </trkpt>
      <trkpt lat="49.65973" lon="-1.51184">
        <ele>7.8</ele>
        <time>2020-06-15T08:34:22Z</time>
      </trkpt>
      <trkpt lat="49.65975" lon="-1.51175">
        <ele>7.8</ele>
        <time>2020-06-15T08:34:23Z</time>
      </trkpt>
      <trkpt lat="49.65978" lon="-1.51166">
        <ele>7.8</ele>
        <time>2020-06-15T08:34:24Z</time>
      </trkpt>
      <trkpt lat="49.65982" lon="-1.51157">
        <ele>7.7</ele>
        <time>2020-06-15T08:34:25Z</time>
      </trkpt>
      <trkpt lat="49.65985" lon="-1.51147">
        <ele>7.6</ele>
        <time>2020-06-15T08:34:26Z</time>
      </trkpt>
      <trkpt lat="49.65987" lon="-1.51138">
        <ele>7.6</ele>
        <time>2020-06-15T08:34:27Z</time>
      </trkpt>
      <trkpt lat="49.6599" lon="-1.51128">
        <ele>7.6</ele>
        <time>2020-06-15T08:34:28Z</time>
      </trkpt>
      <trkpt lat="49.65994" lon="-1.51119">
        <ele>7.6</ele>
        <time>2020-06-15T08:34:29Z</time>
      </trkpt>
      <trkpt lat="49.65997" lon="-1.5111">
        <ele>7.6</ele>
        <time>2020-06-15T08:34:30Z</time>
      </trkpt>
      <trkpt lat="49.66" lon="-1.51101">
        <ele>7.6</ele>
        <time>2020-06-15T08:34:31Z</time>
      </trkpt>
      <trkpt lat="49.66003" lon="-1.51092">
        <ele>7.6</ele>
        <time>2020-06-15T08:34:32Z</time>
      </trkpt>
      <trkpt lat="49.66006" lon="-1.51083">
        <ele>7.6</ele>
        <time>2020-06-15T08:34:33Z</time>
      </trkpt>
      <trkpt lat="49.66009" lon="-1.51073">
        <ele>7.7</ele>
        <time>2020-06-15T08:34:34Z</time>
      </trkpt>
      <trkpt lat="49.66012" lon="-1.51063">
        <ele>7.7</ele>
        <time>2020-06-15T08:34:35Z</time>
      </trkpt>
      <trkpt lat="49.66015" lon="-1.51054">
        <ele>7.7</ele>
        <time>2020-06-15T08:34:36Z</time>
      </trkpt>
      <trkpt lat="49.66018" lon="-1.51045">
        <ele>7.7</ele>
        <time>2020-06-15T08:34:37Z</time>
      </trkpt>
      <trkpt lat="49.66021" lon="-1.51036">
        <ele>7.8</ele>
        <time>2020-06-15T08:34:38Z</time>
      </trkpt>
      <trkpt lat="49.66024" lon="-1.51027">
        <ele>7.8</ele>
        <time>2020-06-15T08:34:39Z</time>
      </trkpt>
      <trkpt lat="49.66027" lon="-1.51018">
        <ele>7.8</ele>
        <time>2020-06-15T08:34:40Z</time>
      </trkpt>
      <trkpt lat="49.6603" lon="-1.51009">
        <ele>7.9</ele>
        <time>2020-06-15T08:34:41Z</time>
      </trkpt>
      <trkpt lat="49.66033" lon="-1.51">
        <ele>7.9</ele>
        <time>2020-06-15T08:34:42Z</time>
      </trkpt>
      <trkpt lat="49.66036" lon="-1.50991">
        <ele>7.9</ele>
        <time>2020-06-15T08:34:43Z</time>
      </trkpt>
      <trkpt lat="49.66039" lon="-1.50983">
        <ele>7.9</ele>
        <time>2020-06-15T08:34:44Z</time>
      </trkpt>
      <trkpt lat="49.66043" lon="-1.50974">
        <ele>7.8</ele>
        <time>2020-06-15T08:34:45Z</time>
      </trkpt>
      <trkpt lat="49.66045" lon="-1.50965">
        <ele>7.8</ele>
        <time>2020-06-15T08:34:46Z</time>
      </trkpt>
      <trkpt lat="49.66048" lon="-1.50956">
        <ele>7.8</ele>
        <time>2020-06-15T08:34:47Z</time>
      </trkpt>
      <trkpt lat="49.66051" lon="-1.50947">
        <ele>7.8</ele>
        <time>2020-06-15T08:34:48Z</time>
      </trkpt>
      <trkpt lat="49.66054" lon="-1.50938">
        <ele>7.9</ele>
        <time>2020-06-15T08:34:49Z</time>
      </trkpt>
      <trkpt lat="49.66057" lon="-1.50929">
        <ele>7.9</ele>
        <time>2020-06-15T08:34:50Z</time>
      </trkpt>
      <trkpt lat="49.6606" lon="-1.50921">
        <ele>7.9</ele>
        <time>2020-06-15T08:34:51Z</time>
      </trkpt>
      <trkpt lat="49.66064" lon="-1.50912">
        <ele>8</ele>
        <time>2020-06-15T08:34:52Z</time>
      </trkpt>
      <trkpt lat="49.66067" lon="-1.50903">
        <ele>8</ele>
        <time>2020-06-15T08:34:53Z</time>
      </trkpt>
      <trkpt lat="49.6607" lon="-1.50893">
        <ele>8.1</ele>
        <time>2020-06-15T08:34:54Z</time>
      </trkpt>
      <trkpt lat="49.66073" lon="-1.50884">
        <ele>8.2</ele>
        <time>2020-06-15T08:34:55Z</time>
      </trkpt>
      <trkpt lat="49.66076" lon="-1.50874">
        <ele>8.2</ele>
        <time>2020-06-15T08:34:56Z</time>
      </trkpt>
      <trkpt lat="49.66079" lon="-1.50865">
        <ele>8.3</ele>
        <time>2020-06-15T08:34:57Z</time>
      </trkpt>
      <trkpt lat="49.66081" lon="-1.50855">
        <ele>8.4</ele>
        <time>2020-06-15T08:34:58Z</time>
      </trkpt>
      <trkpt lat="49.66084" lon="-1.50846">
        <ele>8.4</ele>
        <time>2020-06-15T08:34:59Z</time>
      </trkpt>
      <trkpt lat="49.66087" lon="-1.50836">
        <ele>8.5</ele>
        <time>2020-06-15T08:35:00Z</time>
      </trkpt>
      <trkpt lat="49.6609" lon="-1.50827">
        <ele>8.7</ele>
        <time>2020-06-15T08:35:01Z</time>
      </trkpt>
      <trkpt lat="49.66092" lon="-1.50818">
        <ele>8.8</ele>
        <time>2020-06-15T08:35:02Z</time>
      </trkpt>
      <trkpt lat="49.66095" lon="-1.50808">
        <ele>8.9</ele>
        <time>2020-06-15T08:35:03Z</time>
      </trkpt>
      <trkpt lat="49.66098" lon="-1.508">
        <ele>9</ele>
        <time>2020-06-15T08:35:04Z</time>
      </trkpt>
      <trkpt lat="49.661" lon="-1.5079">
        <ele>9.1</ele>
        <time>2020-06-15T08:35:05Z</time>
      </trkpt>
      <trkpt lat="49.66102" lon="-1.50781">
        <ele>9.2</ele>
        <time>2020-06-15T08:35:06Z</time>
      </trkpt>
      <trkpt lat="49.66105" lon="-1.50772">
        <ele>9.3</ele>
        <time>2020-06-15T08:35:07Z</time>
      </trkpt>
      <trkpt lat="49.66107" lon="-1.50763">
        <ele>9.3</ele>
        <time>2020-06-15T08:35:08Z</time>
      </trkpt>
      <trkpt lat="49.66109" lon="-1.50754">
        <ele>9.3</ele>
        <time>2020-06-15T08:35:09Z</time>
      </trkpt>
      <trkpt lat="49.66112" lon="-1.50746">
        <ele>9.3</ele>
        <time>2020-06-15T08:35:10Z</time>
      </trkpt>
      <trkpt lat="49.66114" lon="-1.50738">
        <ele>9.4</ele>
        <time>2020-06-15T08:35:11Z</time>
      </trkpt>
      <trkpt lat="49.66117" lon="-1.5073">
        <ele>9.4</ele>
        <time>2020-06-15T08:35:12Z</time>
      </trkpt>
      <trkpt lat="49.6612" lon="-1.50722">
        <ele>9.5</ele>
        <time>2020-06-15T08:35:13Z</time>
      </trkpt>
      <trkpt lat="49.66122" lon="-1.50714">
        <ele>9.6</ele>
        <time>2020-06-15T08:35:14Z</time>
      </trkpt>
      <trkpt lat="49.66125" lon="-1.50707">
        <ele>9.7</ele>
        <time>2020-06-15T08:35:15Z</time>
      </trkpt>
      <trkpt lat="49.66128" lon="-1.50699">
        <ele>9.8</ele>
        <time>2020-06-15T08:35:16Z</time>
      </trkpt>
      <trkpt lat="49.66131" lon="-1.50692">
        <ele>9.9</ele>
        <time>2020-06-15T08:35:17Z</time>
      </trkpt>
      <trkpt lat="49.66134" lon="-1.50685">
        <ele>10</ele>
        <time>2020-06-15T08:35:18Z</time>
      </trkpt>
      <trkpt lat="49.66137" lon="-1.50678">
        <ele>10.1</ele>
        <time>2020-06-15T08:35:19Z</time>
      </trkpt>
      <trkpt lat="49.6614" lon="-1.50671">
        <ele>10.3</ele>
        <time>2020-06-15T08:35:20Z</time>
      </trkpt>
      <trkpt lat="49.66143" lon="-1.50664">
        <ele>10.4</ele>
        <time>2020-06-15T08:35:21Z</time>
      </trkpt>
      <trkpt lat="49.66147" lon="-1.5066">
        <ele>10.5</ele>
        <time>2020-06-15T08:35:22Z</time>
      </trkpt>
      <trkpt lat="49.6615" lon="-1.50652">
        <ele>10.6</ele>
        <time>2020-06-15T08:35:23Z</time>
      </trkpt>
      <trkpt lat="49.66154" lon="-1.50645">
        <ele>10.8</ele>
        <time>2020-06-15T08:35:24Z</time>
      </trkpt>
      <trkpt lat="49.66158" lon="-1.50638">
        <ele>10.9</ele>
        <time>2020-06-15T08:35:25Z</time>
      </trkpt>
      <trkpt lat="49.66162" lon="-1.50632">
        <ele>11</ele>
        <time>2020-06-15T08:35:26Z</time>
      </trkpt>
      <trkpt lat="49.66166" lon="-1.50625">
        <ele>11.2</ele>
        <time>2020-06-15T08:35:27Z</time>
      </trkpt>
      <trkpt lat="49.6617" lon="-1.50618">
        <ele>11.3</ele>
        <time>2020-06-15T08:35:28Z</time>
      </trkpt>
      <trkpt lat="49.66174" lon="-1.50611">
        <ele>11.5</ele>
        <time>2020-06-15T08:35:29Z</time>
      </trkpt>
      <trkpt lat="49.66177" lon="-1.50605">
        <ele>11.6</ele>
        <time>2020-06-15T08:35:30Z</time>
      </trkpt>
      <trkpt lat="49.66181" lon="-1.50598">
        <ele>11.7</ele>
        <time>2020-06-15T08:35:31Z</time>
      </trkpt>
      <trkpt lat="49.66184" lon="-1.50592">
        <ele>11.8</ele>
        <time>2020-06-15T08:35:32Z</time>
      </trkpt>
      <trkpt lat="49.66186" lon="-1.50588">
        <ele>11.9</ele>
        <time>2020-06-15T08:35:33Z</time>
      </trkpt>
      <trkpt lat="49.66191" lon="-1.50582">
        <ele>12</ele>
        <time>2020-06-15T08:35:34Z</time>
      </trkpt>
      <trkpt lat="49.66194" lon="-1.50576">
        <ele>12</ele>
        <time>2020-06-15T08:35:35Z</time>
      </trkpt>
      <trkpt lat="49.66197" lon="-1.5057">
        <ele>12.2</ele>
        <time>2020-06-15T08:35:36Z</time>
      </trkpt>
      <trkpt lat="49.662" lon="-1.50562">
        <ele>12.3</ele>
        <time>2020-06-15T08:35:37Z</time>
      </trkpt>
      <trkpt lat="49.66203" lon="-1.50555">
        <ele>12.4</ele>
        <time>2020-06-15T08:35:38Z</time>
      </trkpt>
      <trkpt lat="49.66206" lon="-1.50548">
        <ele>12.4</ele>
        <time>2020-06-15T08:35:39Z</time>
      </trkpt>
      <trkpt lat="49.66209" lon="-1.5054">
        <ele>12.5</ele>
        <time>2020-06-15T08:35:40Z</time>
      </trkpt>
      <trkpt lat="49.66212" lon="-1.50533">
        <ele>12.5</ele>
        <time>2020-06-15T08:35:41Z</time>
      </trkpt>
      <trkpt lat="49.66215" lon="-1.50527">
        <ele>12.6</ele>
        <time>2020-06-15T08:35:42Z</time>
      </trkpt>
      <trkpt lat="49.66219" lon="-1.50521">
        <ele>12.6</ele>
        <time>2020-06-15T08:35:43Z</time>
      </trkpt>
      <trkpt lat="49.66223" lon="-1.50514">
        <ele>12.7</ele>
        <time>2020-06-15T08:35:44Z</time>
      </trkpt>
      <trkpt lat="49.66227" lon="-1.50506">
        <ele>12.8</ele>
        <time>2020-06-15T08:35:45Z</time>
      </trkpt>
      <trkpt lat="49.6623" lon="-1.505">
        <ele>12.9</ele>
        <time>2020-06-15T08:35:46Z</time>
      </trkpt>
      <trkpt lat="49.66233" lon="-1.50495">
        <ele>12.9</ele>
        <time>2020-06-15T08:35:47Z</time>
      </trkpt>
      <trkpt lat="49.66237" lon="-1.50488">
        <ele>13</ele>
        <time>2020-06-15T08:35:48Z</time>
      </trkpt>
      <trkpt lat="49.66241" lon="-1.50482">
        <ele>13.1</ele>
        <time>2020-06-15T08:35:49Z</time>
      </trkpt>
      <trkpt lat="49.66244" lon="-1.50475">
        <ele>13.2</ele>
        <time>2020-06-15T08:35:50Z</time>
      </trkpt>
      <trkpt lat="49.66247" lon="-1.50469">
        <ele>13.3</ele>
        <time>2020-06-15T08:35:51Z</time>
      </trkpt>
      <trkpt lat="49.66249" lon="-1.50462">
        <ele>13.4</ele>
        <time>2020-06-15T08:35:52Z</time>
      </trkpt>
      <trkpt lat="49.66252" lon="-1.50455">
        <ele>13.5</ele>
        <time>2020-06-15T08:35:53Z</time>
      </trkpt>
      <trkpt lat="49.66256" lon="-1.50449">
        <ele>13.6</ele>
        <time>2020-06-15T08:35:54Z</time>
      </trkpt>
      <trkpt lat="49.66259" lon="-1.50442">
        <ele>13.7</ele>
        <time>2020-06-15T08:35:55Z</time>
      </trkpt>
      <trkpt lat="49.66262" lon="-1.50435">
        <ele>13.7</ele>
        <time>2020-06-15T08:35:56Z</time>
      </trkpt>
      <trkpt lat="49.66265" lon="-1.50428">
        <ele>13.8</ele>
        <time>2020-06-15T08:35:57Z</time>
      </trkpt>
      <trkpt lat="49.66269" lon="-1.50421">
        <ele>13.9</ele>
        <time>2020-06-15T08:35:58Z</time>
      </trkpt>
      <trkpt lat="49.66272" lon="-1.50414">
        <ele>14</ele>
        <time>2020-06-15T08:35:59Z</time>
      </trkpt>
      <trkpt lat="49.66276" lon="-1.50407">
        <ele>14</ele>
        <time>2020-06-15T08:36:00Z</time>
      </trkpt>
      <trkpt lat="49.6628" lon="-1.504">
        <ele>14.1</ele>
        <time>2020-06-15T08:36:01Z</time>
      </trkpt>
      <trkpt lat="49.66283" lon="-1.50392">
        <ele>14.2</ele>
        <time>2020-06-15T08:36:02Z</time>
      </trkpt>
      <trkpt lat="49.66286" lon="-1.50385">
        <ele>14.2</ele>
        <time>2020-06-15T08:36:03Z</time>
      </trkpt>
      <trkpt lat="49.66289" lon="-1.50378">
        <ele>14.3</ele>
        <time>2020-06-15T08:36:04Z</time>
      </trkpt>
      <trkpt lat="49.66292" lon="-1.50371">
        <ele>14.3</ele>
        <time>2020-06-15T08:36:05Z</time>
      </trkpt>
      <trkpt lat="49.66295" lon="-1.50364">
        <ele>14.4</ele>
        <time>2020-06-15T08:36:06Z</time>
      </trkpt>
      <trkpt lat="49.66299" lon="-1.50358">
        <ele>14.4</ele>
        <time>2020-06-15T08:36:07Z</time>
      </trkpt>
      <trkpt lat="49.66303" lon="-1.50351">
        <ele>14.4</ele>
        <time>2020-06-15T08:36:08Z</time>
      </trkpt>
      <trkpt lat="49.66306" lon="-1.50345">
        <ele>14.5</ele>
        <time>2020-06-15T08:36:09Z</time>
      </trkpt>
      <trkpt lat="49.66309" lon="-1.50338">
        <ele>14.5</ele>
        <time>2020-06-15T08:36:10Z</time>
      </trkpt>
      <trkpt lat="49.66313" lon="-1.50332">
        <ele>14.6</ele>
        <time>2020-06-15T08:36:11Z</time>
      </trkpt>
      <trkpt lat="49.66317" lon="-1.50324">
        <ele>14.7</ele>
        <time>2020-06-15T08:36:12Z</time>
      </trkpt>
      <trkpt lat="49.6632" lon="-1.50317">
        <ele>14.7</ele>
        <time>2020-06-15T08:36:13Z</time>
      </trkpt>
      <trkpt lat="49.66324" lon="-1.5031">
        <ele>14.7</ele>
        <time>2020-06-15T08:36:14Z</time>
      </trkpt>
      <trkpt lat="49.66327" lon="-1.50303">
        <ele>14.8</ele>
        <time>2020-06-15T08:36:15Z</time>
      </trkpt>
      <trkpt lat="49.66331" lon="-1.50296">
        <ele>14.8</ele>
        <time>2020-06-15T08:36:16Z</time>
      </trkpt>
      <trkpt lat="49.66334" lon="-1.5029">
        <ele>14.9</ele>
        <time>2020-06-15T08:36:17Z</time>
      </trkpt>
      <trkpt lat="49.66337" lon="-1.50283">
        <ele>14.9</ele>
        <time>2020-06-15T08:36:18Z</time>
      </trkpt>
      <trkpt lat="49.66341" lon="-1.50277">
        <ele>15</ele>
        <time>2020-06-15T08:36:19Z</time>
      </trkpt>
      <trkpt lat="49.66345" lon="-1.50271">
        <ele>15.1</ele>
        <time>2020-06-15T08:36:20Z</time>
      </trkpt>
      <trkpt lat="49.66349" lon="-1.50264">
        <ele>15.2</ele>
        <time>2020-06-15T08:36:21Z</time>
      </trkpt>
      <trkpt lat="49.66353" lon="-1.50258">
        <ele>15.3</ele>
        <time>2020-06-15T08:36:22Z</time>
      </trkpt>
      <trkpt lat="49.66356" lon="-1.50251">
        <ele>15.4</ele>
        <time>2020-06-15T08:36:23Z</time>
      </trkpt>
      <trkpt lat="49.66359" lon="-1.50243">
        <ele>15.5</ele>
        <time>2020-06-15T08:36:24Z</time>
      </trkpt>
      <trkpt lat="49.66362" lon="-1.50237">
        <ele>15.5</ele>
        <time>2020-06-15T08:36:25Z</time>
      </trkpt>
      <trkpt lat="49.66366" lon="-1.5023">
        <ele>15.6</ele>
        <time>2020-06-15T08:36:26Z</time>
      </trkpt>
      <trkpt lat="49.66368" lon="-1.50223">
        <ele>15.6</ele>
        <time>2020-06-15T08:36:27Z</time>
      </trkpt>
      <trkpt lat="49.66371" lon="-1.50216">
        <ele>15.7</ele>
        <time>2020-06-15T08:36:28Z</time>
      </trkpt>
      <trkpt lat="49.66375" lon="-1.50209">
        <ele>15.7</ele>
        <time>2020-06-15T08:36:29Z</time>
      </trkpt>
      <trkpt lat="49.66378" lon="-1.50201">
        <ele>15.8</ele>
        <time>2020-06-15T08:36:30Z</time>
      </trkpt>
      <trkpt lat="49.66381" lon="-1.50195">
        <ele>15.8</ele>
        <time>2020-06-15T08:36:31Z</time>
      </trkpt>
      <trkpt lat="49.66384" lon="-1.50188">
        <ele>15.9</ele>
        <time>2020-06-15T08:36:32Z</time>
      </trkpt>
      <trkpt lat="49.66387" lon="-1.50181">
        <ele>16</ele>
        <time>2020-06-15T08:36:33Z</time>
      </trkpt>
      <trkpt lat="49.66391" lon="-1.50174">
        <ele>16</ele>
        <time>2020-06-15T08:36:34Z</time>
      </trkpt>
      <trkpt lat="49.66394" lon="-1.50167">
        <ele>16.1</ele>
        <time>2020-06-15T08:36:35Z</time>
      </trkpt>
      <trkpt lat="49.66398" lon="-1.50158">
        <ele>16.1</ele>
        <time>2020-06-15T08:36:36Z</time>
      </trkpt>
      <trkpt lat="49.66401" lon="-1.50152">
        <ele>16.1</ele>
        <time>2020-06-15T08:36:37Z</time>
      </trkpt>
      <trkpt lat="49.66405" lon="-1.50145">
        <ele>16.1</ele>
        <time>2020-06-15T08:36:38Z</time>
      </trkpt>
      <trkpt lat="49.66408" lon="-1.50138">
        <ele>16.1</ele>
        <time>2020-06-15T08:36:39Z</time>
      </trkpt>
      <trkpt lat="49.66411" lon="-1.50132">
        <ele>16.2</ele>
        <time>2020-06-15T08:36:40Z</time>
      </trkpt>
      <trkpt lat="49.66414" lon="-1.50125">
        <ele>16.2</ele>
        <time>2020-06-15T08:36:41Z</time>
      </trkpt>
      <trkpt lat="49.66417" lon="-1.50117">
        <ele>16.3</ele>
        <time>2020-06-15T08:36:42Z</time>
      </trkpt>
      <trkpt lat="49.66421" lon="-1.50111">
        <ele>16.4</ele>
        <time>2020-06-15T08:36:43Z</time>
      </trkpt>
      <trkpt lat="49.66425" lon="-1.50105">
        <ele>16.5</ele>
        <time>2020-06-15T08:36:44Z</time>
      </trkpt>
      <trkpt lat="49.66428" lon="-1.50098">
        <ele>16.6</ele>
        <time>2020-06-15T08:36:45Z</time>
      </trkpt>
      <trkpt lat="49.66431" lon="-1.50092">
        <ele>16.7</ele>
        <time>2020-06-15T08:36:46Z</time>
      </trkpt>
      <trkpt lat="49.66434" lon="-1.50086">
        <ele>16.8</ele>
        <time>2020-06-15T08:36:47Z</time>
      </trkpt>
      <trkpt lat="49.66437" lon="-1.50078">
        <ele>16.9</ele>
        <time>2020-06-15T08:36:48Z</time>
      </trkpt>
      <trkpt lat="49.66439" lon="-1.5007">
        <ele>17</ele>
        <time>2020-06-15T08:36:49Z</time>
      </trkpt>
      <trkpt lat="49.66442" lon="-1.50063">
        <ele>17.1</ele>
        <time>2020-06-15T08:36:50Z</time>
      </trkpt>
      <trkpt lat="49.66446" lon="-1.50057">
        <ele>17.2</ele>
        <time>2020-06-15T08:36:51Z</time>
      </trkpt>
      <trkpt lat="49.66449" lon="-1.5005">
        <ele>17.3</ele>
        <time>2020-06-15T08:36:52Z</time>
      </trkpt>
      <trkpt lat="49.66453" lon="-1.50045">
        <ele>17.4</ele>
        <time>2020-06-15T08:36:53Z</time>
      </trkpt>
      <trkpt lat="49.66456" lon="-1.5004">
        <ele>17.4</ele>
        <time>2020-06-15T08:36:54Z</time>
      </trkpt>
      <trkpt lat="49.66459" lon="-1.50035">
        <ele>17.5</ele>
        <time>2020-06-15T08:36:55Z</time>
      </trkpt>
      <trkpt lat="49.66461" lon="-1.50029">
        <ele>17.6</ele>
        <time>2020-06-15T08:36:56Z</time>
      </trkpt>
      <trkpt lat="49.66463" lon="-1.50023">
        <ele>17.6</ele>
        <time>2020-06-15T08:36:57Z</time>
      </trkpt>
      <trkpt lat="49.66465" lon="-1.50018">
        <ele>17.7</ele>
        <time>2020-06-15T08:36:58Z</time>
      </trkpt>
      <trkpt lat="49.66468" lon="-1.50014">
        <ele>17.8</ele>
        <time>2020-06-15T08:36:59Z</time>
      </trkpt>
      <trkpt lat="49.66471" lon="-1.5001">
        <ele>17.9</ele>
        <time>2020-06-15T08:37:00Z</time>
      </trkpt>
      <trkpt lat="49.66473" lon="-1.50006">
        <ele>17.9</ele>
        <time>2020-06-15T08:37:01Z</time>
      </trkpt>
      <trkpt lat="49.66474" lon="-1.50002">
        <ele>18</ele>
        <time>2020-06-15T08:37:02Z</time>
      </trkpt>
      <trkpt lat="49.66476" lon="-1.49997">
        <ele>18.1</ele>
        <time>2020-06-15T08:37:03Z</time>
      </trkpt>
      <trkpt lat="49.66477" lon="-1.49996">
        <ele>18.1</ele>
        <time>2020-06-15T08:37:04Z</time>
      </trkpt>
      <trkpt lat="49.66478" lon="-1.49994">
        <ele>18.1</ele>
        <time>2020-06-15T08:37:05Z</time>
      </trkpt>
      <trkpt lat="49.66478" lon="-1.49992">
        <ele>18.1</ele>
        <time>2020-06-15T08:37:06Z</time>
      </trkpt>
      <trkpt lat="49.66478" lon="-1.49989">
        <ele>18.2</ele>
        <time>2020-06-15T08:37:07Z</time>
      </trkpt>
      <trkpt lat="49.66478" lon="-1.49989">
        <ele>18.2</ele>
        <time>2020-06-15T08:37:08Z</time>
      </trkpt>
      <trkpt lat="49.66478" lon="-1.49988">
        <ele>18.2</ele>
        <time>2020-06-15T08:37:09Z</time>
      </trkpt>
      <trkpt lat="49.66478" lon="-1.49988">
        <ele>18.2</ele>
        <time>2020-06-15T08:37:10Z</time>
      </trkpt>
      <trkpt lat="49.66478" lon="-1.49987">
        <ele>18.2</ele>
        <time>2020-06-15T08:37:11Z</time>
      </trkpt>
      <trkpt lat="49.66478" lon="-1.49986">
        <ele>18.2</ele>
        <time>2020-06-15T08:37:12Z</time>
      </trkpt>
      <trkpt lat="49.66478" lon="-1.49986">
        <ele>18.2</ele>
        <time>2020-06-15T08:37:13Z</time>
      </trkpt>
      <trkpt lat="49.66478" lon="-1.49985">
        <ele>18.2</ele>
        <time>2020-06-15T08:37:14Z</time>
      </trkpt>
      <trkpt lat="49.66478" lon="-1.49984">
        <ele>18.2</ele>
        <time>2020-06-15T08:37:15Z</time>
      </trkpt>
      <trkpt lat="49.66478" lon="-1.49984">
        <ele>18.3</ele>
        <time>2020-06-15T08:37:16Z</time>
      </trkpt>
      <trkpt lat="49.66478" lon="-1.49983">
        <ele>18.3</ele>
        <time>2020-06-15T08:37:17Z</time>
      </trkpt>
      <trkpt lat="49.66478" lon="-1.49982">
        <ele>18.3</ele>
        <time>2020-06-15T08:37:18Z</time>
      </trkpt>
      <trkpt lat="49.66478" lon="-1.49982">
        <ele>18.3</ele>
        <time>2020-06-15T08:37:19Z</time>
      </trkpt>
      <trkpt lat="49.66478" lon="-1.49981">
        <ele>18.3</ele>
        <time>2020-06-15T08:38:53Z</time>
      </trkpt>
      <trkpt lat="49.66478" lon="-1.4998">
        <ele>18.3</ele>
        <time>2020-06-15T08:38:54Z</time>
      </trkpt>
      <trkpt lat="49.66479" lon="-1.49975">
        <ele>18.4</ele>
        <time>2020-06-15T08:38:55Z</time>
      </trkpt>
      <trkpt lat="49.6648" lon="-1.4997">
        <ele>18.5</ele>
        <time>2020-06-15T08:38:56Z</time>
      </trkpt>
      <trkpt lat="49.66481" lon="-1.49965">
        <ele>18.5</ele>
        <time>2020-06-15T08:38:57Z</time>
      </trkpt>
      <trkpt lat="49.66482" lon="-1.49961">
        <ele>18.6</ele>
        <time>2020-06-15T08:38:58Z</time>
      </trkpt>
      <trkpt lat="49.66482" lon="-1.49956">
        <ele>18.6</ele>
        <time>2020-06-15T08:38:59Z</time>
      </trkpt>
      <trkpt lat="49.66482" lon="-1.49952">
        <ele>18.7</ele>
        <time>2020-06-15T08:39:00Z</time>
      </trkpt>
      <trkpt lat="49.66483" lon="-1.49947">
        <ele>18.7</ele>
        <time>2020-06-15T08:39:01Z</time>
      </trkpt>
      <trkpt lat="49.66484" lon="-1.49943">
        <ele>18.8</ele>
        <time>2020-06-15T08:39:02Z</time>
      </trkpt>
      <trkpt lat="49.66484" lon="-1.49938">
        <ele>18.8</ele>
        <time>2020-06-15T08:39:03Z</time>
      </trkpt>
      <trkpt lat="49.66485" lon="-1.49933">
        <ele>18.9</ele>
        <time>2020-06-15T08:39:04Z</time>
      </trkpt>
      <trkpt lat="49.66486" lon="-1.49929">
        <ele>18.9</ele>
        <time>2020-06-15T08:39:05Z</time>
      </trkpt>
      <trkpt lat="49.66487" lon="-1.49924">
        <ele>19</ele>
        <time>2020-06-15T08:39:06Z</time>
      </trkpt>
      <trkpt lat="49.66488" lon="-1.49919">
        <ele>19</ele>
        <time>2020-06-15T08:39:07Z</time>
      </trkpt>
      <trkpt lat="49.66489" lon="-1.49914">
        <ele>19.1</ele>
        <time>2020-06-15T08:39:08Z</time>
      </trkpt>
      <trkpt lat="49.66489" lon="-1.49909">
        <ele>19.1</ele>
        <time>2020-06-15T08:39:09Z</time>
      </trkpt>
      <trkpt lat="49.66489" lon="-1.49905">
        <ele>19.2</ele>
        <time>2020-06-15T08:39:10Z</time>
      </trkpt>
      <trkpt lat="49.6649" lon="-1.49898">
        <ele>19.2</ele>
        <time>2020-06-15T08:39:11Z</time>
      </trkpt>
      <trkpt lat="49.6649" lon="-1.49892">
        <ele>19.3</ele>
        <time>2020-06-15T08:39:12Z</time>
      </trkpt>
      <trkpt lat="49.66491" lon="-1.49887">
        <ele>19.4</ele>
        <time>2020-06-15T08:39:13Z</time>
      </trkpt>
      <trkpt lat="49.66491" lon="-1.49881">
        <ele>19.4</ele>
        <time>2020-06-15T08:39:14Z</time>
      </trkpt>
      <trkpt lat="49.66492" lon="-1.49876">
        <ele>19.5</ele>
        <time>2020-06-15T08:39:15Z</time>
      </trkpt>
      <trkpt lat="49.66492" lon="-1.49871">
        <ele>19.6</ele>
        <time>2020-06-15T08:39:16Z</time>
      </trkpt>
      <trkpt lat="49.66494" lon="-1.49865">
        <ele>19.6</ele>
        <time>2020-06-15T08:39:17Z</time>
      </trkpt>
      <trkpt lat="49.66495" lon="-1.4986">
        <ele>19.7</ele>
        <time>2020-06-15T08:39:18Z</time>
      </trkpt>
      <trkpt lat="49.66496" lon="-1.49855">
        <ele>19.8</ele>
        <time>2020-06-15T08:39:19Z</time>
      </trkpt>
      <trkpt lat="49.66498" lon="-1.49849">
        <ele>19.9</ele>
        <time>2020-06-15T08:39:20Z</time>
      </trkpt>
      <trkpt lat="49.66499" lon="-1.49844">
        <ele>19.9</ele>
        <time>2020-06-15T08:39:21Z</time>
      </trkpt>
      <trkpt lat="49.66499" lon="-1.49837">
        <ele>20</ele>
        <time>2020-06-15T08:39:22Z</time>
      </trkpt>
      <trkpt lat="49.66499" lon="-1.49834">
        <ele>20</ele>
        <time>2020-06-15T08:39:23Z</time>
      </trkpt>
      <trkpt lat="49.665" lon="-1.49829">
        <ele>20.1</ele>
        <time>2020-06-15T08:39:24Z</time>
      </trkpt>
      <trkpt lat="49.66501" lon="-1.49825">
        <ele>20.1</ele>
        <time>2020-06-15T08:39:25Z</time>
      </trkpt>
      <trkpt lat="49.66502" lon="-1.4982">
        <ele>20.2</ele>
        <time>2020-06-15T08:39:26Z</time>
      </trkpt>
      <trkpt lat="49.66502" lon="-1.49815">
        <ele>20.2</ele>
        <time>2020-06-15T08:39:27Z</time>
      </trkpt>
      <trkpt lat="49.66504" lon="-1.4981">
        <ele>20.3</ele>
        <time>2020-06-15T08:39:28Z</time>
      </trkpt>
      <trkpt lat="49.66505" lon="-1.49804">
        <ele>20.4</ele>
        <time>2020-06-15T08:39:29Z</time>
      </trkpt>
      <trkpt lat="49.66507" lon="-1.498">
        <ele>20.4</ele>
        <time>2020-06-15T08:39:30Z</time>
      </trkpt>
      <trkpt lat="49.66509" lon="-1.49795">
        <ele>20.5</ele>
        <time>2020-06-15T08:39:31Z</time>
      </trkpt>
      <trkpt lat="49.66509" lon="-1.4979">
        <ele>20.5</ele>
        <time>2020-06-15T08:39:32Z</time>
      </trkpt>
      <trkpt lat="49.6651" lon="-1.49784">
        <ele>20.6</ele>
        <time>2020-06-15T08:39:33Z</time>
      </trkpt>
      <trkpt lat="49.66512" lon="-1.49778">
        <ele>20.7</ele>
        <time>2020-06-15T08:39:34Z</time>
      </trkpt>
      <trkpt lat="49.66514" lon="-1.49772">
        <ele>20.7</ele>
        <time>2020-06-15T08:39:35Z</time>
      </trkpt>
      <trkpt lat="49.66515" lon="-1.49766">
        <ele>20.8</ele>
        <time>2020-06-15T08:39:36Z</time>
      </trkpt>
      <trkpt lat="49.66518" lon="-1.49761">
        <ele>20.8</ele>
        <time>2020-06-15T08:39:37Z</time>
      </trkpt>
      <trkpt lat="49.6652" lon="-1.49755">
        <ele>20.9</ele>
        <time>2020-06-15T08:39:38Z</time>
      </trkpt>
      <trkpt lat="49.66522" lon="-1.4975">
        <ele>20.9</ele>
        <time>2020-06-15T08:39:39Z</time>
      </trkpt>
      <trkpt lat="49.66525" lon="-1.49744">
        <ele>20.9</ele>
        <time>2020-06-15T08:39:40Z</time>
      </trkpt>
      <trkpt lat="49.66527" lon="-1.49739">
        <ele>21</ele>
        <time>2020-06-15T08:39:41Z</time>
      </trkpt>
      <trkpt lat="49.6653" lon="-1.49734">
        <ele>21</ele>
        <time>2020-06-15T08:39:42Z</time>
      </trkpt>
      <trkpt lat="49.66532" lon="-1.49729">
        <ele>21</ele>
        <time>2020-06-15T08:39:43Z</time>
      </trkpt>
      <trkpt lat="49.66534" lon="-1.49723">
        <ele>21</ele>
        <time>2020-06-15T08:39:44Z</time>
      </trkpt>
      <trkpt lat="49.66536" lon="-1.49717">
        <ele>21</ele>
        <time>2020-06-15T08:39:45Z</time>
      </trkpt>
      <trkpt lat="49.66539" lon="-1.49712">
        <ele>21</ele>
        <time>2020-06-15T08:39:46Z</time>
      </trkpt>
      <trkpt lat="49.66543" lon="-1.49708">
        <ele>21</ele>
        <time>2020-06-15T08:39:47Z</time>
      </trkpt>
      <trkpt lat="49.66546" lon="-1.49704">
        <ele>21</ele>
        <time>2020-06-15T08:39:48Z</time>
      </trkpt>
      <trkpt lat="49.66548" lon="-1.49699">
        <ele>21</ele>
        <time>2020-06-15T08:39:49Z</time>
      </trkpt>
      <trkpt lat="49.6655" lon="-1.49693">
        <ele>21</ele>
        <time>2020-06-15T08:39:50Z</time>
      </trkpt>
      <trkpt lat="49.66553" lon="-1.49687">
        <ele>21</ele>
        <time>2020-06-15T08:39:51Z</time>
      </trkpt>
      <trkpt lat="49.66556" lon="-1.49682">
        <ele>20.9</ele>
        <time>2020-06-15T08:39:52Z</time>
      </trkpt>
      <trkpt lat="49.6656" lon="-1.49677">
        <ele>20.9</ele>
        <time>2020-06-15T08:39:53Z</time>
      </trkpt>
      <trkpt lat="49.66562" lon="-1.49672">
        <ele>20.9</ele>
        <time>2020-06-15T08:39:54Z</time>
      </trkpt>
      <trkpt lat="49.66565" lon="-1.49666">
        <ele>20.9</ele>
        <time>2020-06-15T08:39:55Z</time>
      </trkpt>
      <trkpt lat="49.66569" lon="-1.4966">
        <ele>20.8</ele>
        <time>2020-06-15T08:39:56Z</time>
      </trkpt>
      <trkpt lat="49.66572" lon="-1.49655">
        <ele>20.8</ele>
        <time>2020-06-15T08:39:57Z</time>
      </trkpt>
      <trkpt lat="49.66576" lon="-1.4965">
        <ele>20.8</ele>
        <time>2020-06-15T08:39:58Z</time>
      </trkpt>
      <trkpt lat="49.66579" lon="-1.49645">
        <ele>20.8</ele>
        <time>2020-06-15T08:39:59Z</time>
      </trkpt>
      <trkpt lat="49.66582" lon="-1.49641">
        <ele>20.8</ele>
        <time>2020-06-15T08:40:00Z</time>
      </trkpt>
      <trkpt lat="49.66585" lon="-1.49637">
        <ele>20.6</ele>
        <time>2020-06-15T08:40:01Z</time>
      </trkpt>
      <trkpt lat="49.66588" lon="-1.49632">
        <ele>20.5</ele>
        <time>2020-06-15T08:40:02Z</time>
      </trkpt>
      <trkpt lat="49.66591" lon="-1.49627">
        <ele>20.4</ele>
        <time>2020-06-15T08:40:03Z</time>
      </trkpt>
      <trkpt lat="49.66595" lon="-1.49623">
        <ele>20.3</ele>
        <time>2020-06-15T08:40:04Z</time>
      </trkpt>
      <trkpt lat="49.66598" lon="-1.49618">
        <ele>20.3</ele>
        <time>2020-06-15T08:40:05Z</time>
      </trkpt>
      <trkpt lat="49.66603" lon="-1.49615">
        <ele>20.2</ele>
        <time>2020-06-15T08:40:06Z</time>
      </trkpt>
      <trkpt lat="49.66607" lon="-1.49609">
        <ele>20.1</ele>
        <time>2020-06-15T08:40:07Z</time>
      </trkpt>
      <trkpt lat="49.66612" lon="-1.49604">
        <ele>20.1</ele>
        <time>2020-06-15T08:40:08Z</time>
      </trkpt>
      <trkpt lat="49.66617" lon="-1.49599">
        <ele>20</ele>
        <time>2020-06-15T08:40:09Z</time>
      </trkpt>
      <trkpt lat="49.66621" lon="-1.49594">
        <ele>20</ele>
        <time>2020-06-15T08:40:10Z</time>
      </trkpt>
      <trkpt lat="49.66626" lon="-1.4959">
        <ele>20</ele>
        <time>2020-06-15T08:40:11Z</time>
      </trkpt>
      <trkpt lat="49.66631" lon="-1.49587">
        <ele>19.9</ele>
        <time>2020-06-15T08:40:12Z</time>
      </trkpt>
      <trkpt lat="49.66634" lon="-1.49584">
        <ele>19.9</ele>
        <time>2020-06-15T08:40:13Z</time>
      </trkpt>
      <trkpt lat="49.66639" lon="-1.4958">
        <ele>19.8</ele>
        <time>2020-06-15T08:40:14Z</time>
      </trkpt>
      <trkpt lat="49.66643" lon="-1.49577">
        <ele>19.8</ele>
        <time>2020-06-15T08:40:15Z</time>
      </trkpt>
      <trkpt lat="49.66648" lon="-1.49574">
        <ele>19.7</ele>
        <time>2020-06-15T08:40:16Z</time>
      </trkpt>
      <trkpt lat="49.66651" lon="-1.49571">
        <ele>19.6</ele>
        <time>2020-06-15T08:40:17Z</time>
      </trkpt>
      <trkpt lat="49.66656" lon="-1.49566">
        <ele>19.5</ele>
        <time>2020-06-15T08:40:18Z</time>
      </trkpt>
      <trkpt lat="49.66661" lon="-1.49562">
        <ele>19.4</ele>
        <time>2020-06-15T08:40:19Z</time>
      </trkpt>
      <trkpt lat="49.66666" lon="-1.49559">
        <ele>19.4</ele>
        <time>2020-06-15T08:40:20Z</time>
      </trkpt>
      <trkpt lat="49.66671" lon="-1.49556">
        <ele>19.3</ele>
        <time>2020-06-15T08:40:21Z</time>
      </trkpt>
      <trkpt lat="49.66677" lon="-1.49555">
        <ele>19.2</ele>
        <time>2020-06-15T08:40:22Z</time>
      </trkpt>
      <trkpt lat="49.66682" lon="-1.49553">
        <ele>19.2</ele>
        <time>2020-06-15T08:40:23Z</time>
      </trkpt>
      <trkpt lat="49.66687" lon="-1.4955">
        <ele>19.1</ele>
        <time>2020-06-15T08:40:24Z</time>
      </trkpt>
      <trkpt lat="49.66692" lon="-1.49548">
        <ele>19</ele>
        <time>2020-06-15T08:40:25Z</time>
      </trkpt>
      <trkpt lat="49.66697" lon="-1.49546">
        <ele>19</ele>
        <time>2020-06-15T08:40:26Z</time>
      </trkpt>
      <trkpt lat="49.66703" lon="-1.49544">
        <ele>19</ele>
        <time>2020-06-15T08:40:27Z</time>
      </trkpt>
      <trkpt lat="49.66709" lon="-1.49542">
        <ele>19</ele>
        <time>2020-06-15T08:40:28Z</time>
      </trkpt>
      <trkpt lat="49.66714" lon="-1.49541">
        <ele>19</ele>
        <time>2020-06-15T08:40:29Z</time>
      </trkpt>
      <trkpt lat="49.6672" lon="-1.49539">
        <ele>19</ele>
        <time>2020-06-15T08:40:30Z</time>
      </trkpt>
      <trkpt lat="49.66725" lon="-1.49537">
        <ele>19</ele>
        <time>2020-06-15T08:40:31Z</time>
      </trkpt>
      <trkpt lat="49.6673" lon="-1.49536">
        <ele>19</ele>
        <time>2020-06-15T08:40:32Z</time>
      </trkpt>
      <trkpt lat="49.66735" lon="-1.49535">
        <ele>18.9</ele>
        <time>2020-06-15T08:40:33Z</time>
      </trkpt>
      <trkpt lat="49.66739" lon="-1.49533">
        <ele>18.9</ele>
        <time>2020-06-15T08:40:34Z</time>
      </trkpt>
      <trkpt lat="49.66743" lon="-1.49531">
        <ele>18.9</ele>
        <time>2020-06-15T08:40:35Z</time>
      </trkpt>
      <trkpt lat="49.66747" lon="-1.49528">
        <ele>18.9</ele>
        <time>2020-06-15T08:40:36Z</time>
      </trkpt>
      <trkpt lat="49.6675" lon="-1.49527">
        <ele>18.9</ele>
        <time>2020-06-15T08:40:37Z</time>
      </trkpt>
      <trkpt lat="49.66755" lon="-1.49525">
        <ele>18.9</ele>
        <time>2020-06-15T08:40:38Z</time>
      </trkpt>
      <trkpt lat="49.66759" lon="-1.49523">
        <ele>18.9</ele>
        <time>2020-06-15T08:40:39Z</time>
      </trkpt>
      <trkpt lat="49.66764" lon="-1.49521">
        <ele>18.9</ele>
        <time>2020-06-15T08:40:40Z</time>
      </trkpt>
      <trkpt lat="49.66768" lon="-1.49519">
        <ele>18.9</ele>
        <time>2020-06-15T08:40:41Z</time>
      </trkpt>
      <trkpt lat="49.66773" lon="-1.49517">
        <ele>18.9</ele>
        <time>2020-06-15T08:40:42Z</time>
      </trkpt>
      <trkpt lat="49.66778" lon="-1.49514">
        <ele>18.9</ele>
        <time>2020-06-15T08:40:43Z</time>
      </trkpt>
      <trkpt lat="49.66782" lon="-1.4951">
        <ele>18.9</ele>
        <time>2020-06-15T08:40:44Z</time>
      </trkpt>
      <trkpt lat="49.66787" lon="-1.49505">
        <ele>18.9</ele>
        <time>2020-06-15T08:40:45Z</time>
      </trkpt>
      <trkpt lat="49.66791" lon="-1.49501">
        <ele>19</ele>
        <time>2020-06-15T08:40:46Z</time>
      </trkpt>
      <trkpt lat="49.66796" lon="-1.49496">
        <ele>19</ele>
        <time>2020-06-15T08:40:47Z</time>
      </trkpt>
      <trkpt lat="49.668" lon="-1.49491">
        <ele>19</ele>
        <time>2020-06-15T08:40:48Z</time>
      </trkpt>
      <trkpt lat="49.66805" lon="-1.49484">
        <ele>19</ele>
        <time>2020-06-15T08:40:49Z</time>
      </trkpt>
      <trkpt lat="49.6681" lon="-1.49479">
        <ele>19</ele>
        <time>2020-06-15T08:40:50Z</time>
      </trkpt>
      <trkpt lat="49.66813" lon="-1.49474">
        <ele>18.9</ele>
        <time>2020-06-15T08:40:51Z</time>
      </trkpt>
      <trkpt lat="49.66816" lon="-1.49467">
        <ele>18.9</ele>
        <time>2020-06-15T08:40:52Z</time>
      </trkpt>
      <trkpt lat="49.66819" lon="-1.49461">
        <ele>18.9</ele>
        <time>2020-06-15T08:40:53Z</time>
      </trkpt>
      <trkpt lat="49.66822" lon="-1.49454">
        <ele>18.9</ele>
        <time>2020-06-15T08:40:54Z</time>
      </trkpt>
      <trkpt lat="49.66825" lon="-1.49447">
        <ele>18.9</ele>
        <time>2020-06-15T08:40:55Z</time>
      </trkpt>
      <trkpt lat="49.66829" lon="-1.49441">
        <ele>18.9</ele>
        <time>2020-06-15T08:40:56Z</time>
      </trkpt>
      <trkpt lat="49.66833" lon="-1.49434">
        <ele>18.9</ele>
        <time>2020-06-15T08:40:57Z</time>
      </trkpt>
      <trkpt lat="49.66835" lon="-1.49428">
        <ele>19</ele>
        <time>2020-06-15T08:40:58Z</time>
      </trkpt>
      <trkpt lat="49.66838" lon="-1.49421">
        <ele>19</ele>
        <time>2020-06-15T08:40:59Z</time>
      </trkpt>
      <trkpt lat="49.6684" lon="-1.49416">
        <ele>19</ele>
        <time>2020-06-15T08:41:00Z</time>
      </trkpt>
      <trkpt lat="49.66843" lon="-1.49411">
        <ele>19</ele>
        <time>2020-06-15T08:41:01Z</time>
      </trkpt>
      <trkpt lat="49.66846" lon="-1.49404">
        <ele>19</ele>
        <time>2020-06-15T08:41:02Z</time>
      </trkpt>
      <trkpt lat="49.66851" lon="-1.49397">
        <ele>18.9</ele>
        <time>2020-06-15T08:41:03Z</time>
      </trkpt>
      <trkpt lat="49.66854" lon="-1.49392">
        <ele>18.9</ele>
        <time>2020-06-15T08:41:04Z</time>
      </trkpt>
      <trkpt lat="49.66857" lon="-1.49385">
        <ele>18.9</ele>
        <time>2020-06-15T08:41:05Z</time>
      </trkpt>
      <trkpt lat="49.66859" lon="-1.49377">
        <ele>18.8</ele>
        <time>2020-06-15T08:41:06Z</time>
      </trkpt>
      <trkpt lat="49.66862" lon="-1.4937">
        <ele>18.8</ele>
        <time>2020-06-15T08:41:07Z</time>
      </trkpt>
      <trkpt lat="49.66864" lon="-1.49363">
        <ele>18.8</ele>
        <time>2020-06-15T08:41:08Z</time>
      </trkpt>
      <trkpt lat="49.66867" lon="-1.49356">
        <ele>18.8</ele>
        <time>2020-06-15T08:41:09Z</time>
      </trkpt>
      <trkpt lat="49.6687" lon="-1.4935">
        <ele>18.8</ele>
        <time>2020-06-15T08:41:10Z</time>
      </trkpt>
      <trkpt lat="49.66871" lon="-1.49344">
        <ele>18.9</ele>
        <time>2020-06-15T08:41:11Z</time>
      </trkpt>
      <trkpt lat="49.66873" lon="-1.49338">
        <ele>18.9</ele>
        <time>2020-06-15T08:41:12Z</time>
      </trkpt>
      <trkpt lat="49.66874" lon="-1.49332">
        <ele>18.9</ele>
        <time>2020-06-15T08:41:13Z</time>
      </trkpt>
      <trkpt lat="49.66876" lon="-1.49325">
        <ele>19</ele>
        <time>2020-06-15T08:41:14Z</time>
      </trkpt>
      <trkpt lat="49.66879" lon="-1.49318">
        <ele>19</ele>
        <time>2020-06-15T08:41:15Z</time>
      </trkpt>
      <trkpt lat="49.66883" lon="-1.4931">
        <ele>19.1</ele>
        <time>2020-06-15T08:41:16Z</time>
      </trkpt>
      <trkpt lat="49.66886" lon="-1.49302">
        <ele>19.1</ele>
        <time>2020-06-15T08:41:17Z</time>
      </trkpt>
      <trkpt lat="49.66888" lon="-1.49296">
        <ele>19.2</ele>
        <time>2020-06-15T08:41:18Z</time>
      </trkpt>
      <trkpt lat="49.6689" lon="-1.49289">
        <ele>19.2</ele>
        <time>2020-06-15T08:41:19Z</time>
      </trkpt>
      <trkpt lat="49.66893" lon="-1.49281">
        <ele>19.3</ele>
        <time>2020-06-15T08:41:20Z</time>
      </trkpt>
      <trkpt lat="49.66895" lon="-1.49274">
        <ele>19.3</ele>
        <time>2020-06-15T08:41:21Z</time>
      </trkpt>
      <trkpt lat="49.66896" lon="-1.49267">
        <ele>19.3</ele>
        <time>2020-06-15T08:41:22Z</time>
      </trkpt>
      <trkpt lat="49.66898" lon="-1.49259">
        <ele>19.3</ele>
        <time>2020-06-15T08:41:23Z</time>
      </trkpt>
      <trkpt lat="49.66899" lon="-1.49251">
        <ele>19.3</ele>
        <time>2020-06-15T08:41:24Z</time>
      </trkpt>
      <trkpt lat="49.669" lon="-1.49243">
        <ele>19.3</ele>
        <time>2020-06-15T08:41:25Z</time>
      </trkpt>
      <trkpt lat="49.669" lon="-1.49235">
        <ele>19.4</ele>
        <time>2020-06-15T08:41:26Z</time>
      </trkpt>
      <trkpt lat="49.669" lon="-1.49227">
        <ele>19.4</ele>
        <time>2020-06-15T08:41:27Z</time>
      </trkpt>
      <trkpt lat="49.669" lon="-1.4922">
        <ele>19.4</ele>
        <time>2020-06-15T08:41:28Z</time>
      </trkpt>
      <trkpt lat="49.66899" lon="-1.49212">
        <ele>19.4</ele>
        <time>2020-06-15T08:41:29Z</time>
      </trkpt>
      <trkpt lat="49.669" lon="-1.49203">
        <ele>19.4</ele>
        <time>2020-06-15T08:41:30Z</time>
      </trkpt>
      <trkpt lat="49.669" lon="-1.49197">
        <ele>19.4</ele>
        <time>2020-06-15T08:41:31Z</time>
      </trkpt>
      <trkpt lat="49.669" lon="-1.4919">
        <ele>19.4</ele>
        <time>2020-06-15T08:41:32Z</time>
      </trkpt>
      <trkpt lat="49.66899" lon="-1.49182">
        <ele>19.4</ele>
        <time>2020-06-15T08:41:33Z</time>
      </trkpt>
      <trkpt lat="49.66899" lon="-1.49174">
        <ele>19.4</ele>
        <time>2020-06-15T08:41:34Z</time>
      </trkpt>
      <trkpt lat="49.66898" lon="-1.49166">
        <ele>19.3</ele>
        <time>2020-06-15T08:41:35Z</time>
      </trkpt>
      <trkpt lat="49.66897" lon="-1.49158">
        <ele>19.3</ele>
        <time>2020-06-15T08:41:36Z</time>
      </trkpt>
      <trkpt lat="49.66897" lon="-1.4915">
        <ele>19.2</ele>
        <time>2020-06-15T08:41:37Z</time>
      </trkpt>
      <trkpt lat="49.66896" lon="-1.49142">
        <ele>19.2</ele>
        <time>2020-06-15T08:41:38Z</time>
      </trkpt>
      <trkpt lat="49.66896" lon="-1.49135">
        <ele>19.1</ele>
        <time>2020-06-15T08:41:39Z</time>
      </trkpt>
      <trkpt lat="49.66895" lon="-1.49128">
        <ele>19.1</ele>
        <time>2020-06-15T08:41:40Z</time>
      </trkpt>
      <trkpt lat="49.66894" lon="-1.49121">
        <ele>19</ele>
        <time>2020-06-15T08:41:41Z</time>
      </trkpt>
      <trkpt lat="49.66894" lon="-1.49114">
        <ele>19</ele>
        <time>2020-06-15T08:41:42Z</time>
      </trkpt>
      <trkpt lat="49.66892" lon="-1.49105">
        <ele>18.9</ele>
        <time>2020-06-15T08:41:43Z</time>
      </trkpt>
      <trkpt lat="49.66891" lon="-1.49097">
        <ele>18.9</ele>
        <time>2020-06-15T08:41:44Z</time>
      </trkpt>
      <trkpt lat="49.6689" lon="-1.49089">
        <ele>18.8</ele>
        <time>2020-06-15T08:41:45Z</time>
      </trkpt>
      <trkpt lat="49.66888" lon="-1.49082">
        <ele>18.8</ele>
        <time>2020-06-15T08:41:46Z</time>
      </trkpt>
      <trkpt lat="49.66886" lon="-1.49074">
        <ele>18.8</ele>
        <time>2020-06-15T08:41:47Z</time>
      </trkpt>
      <trkpt lat="49.66883" lon="-1.49065">
        <ele>18.8</ele>
        <time>2020-06-15T08:41:48Z</time>
      </trkpt>
      <trkpt lat="49.6688" lon="-1.49058">
        <ele>18.8</ele>
        <time>2020-06-15T08:41:49Z</time>
      </trkpt>
      <trkpt lat="49.66877" lon="-1.4905">
        <ele>18.8</ele>
        <time>2020-06-15T08:41:50Z</time>
      </trkpt>
      <trkpt lat="49.66873" lon="-1.49043">
        <ele>18.8</ele>
        <time>2020-06-15T08:41:51Z</time>
      </trkpt>
      <trkpt lat="49.66869" lon="-1.49037">
        <ele>18.9</ele>
        <time>2020-06-15T08:41:52Z</time>
      </trkpt>
      <trkpt lat="49.66865" lon="-1.4903">
        <ele>18.9</ele>
        <time>2020-06-15T08:41:53Z</time>
      </trkpt>
      <trkpt lat="49.6686" lon="-1.49023">
        <ele>18.9</ele>
        <time>2020-06-15T08:41:54Z</time>
      </trkpt>
      <trkpt lat="49.66855" lon="-1.49016">
        <ele>18.8</ele>
        <time>2020-06-15T08:41:55Z</time>
      </trkpt>
      <trkpt lat="49.66851" lon="-1.4901">
        <ele>18.8</ele>
        <time>2020-06-15T08:41:56Z</time>
      </trkpt>
      <trkpt lat="49.66847" lon="-1.49003">
        <ele>18.8</ele>
        <time>2020-06-15T08:41:57Z</time>
      </trkpt>
      <trkpt lat="49.66843" lon="-1.48997">
        <ele>18.8</ele>
        <time>2020-06-15T08:41:58Z</time>
      </trkpt>
      <trkpt lat="49.66839" lon="-1.48991">
        <ele>18.8</ele>
        <time>2020-06-15T08:41:59Z</time>
      </trkpt>
      <trkpt lat="49.66836" lon="-1.48984">
        <ele>18.8</ele>
        <time>2020-06-15T08:42:00Z</time>
      </trkpt>
      <trkpt lat="49.66832" lon="-1.48978">
        <ele>18.8</ele>
        <time>2020-06-15T08:42:01Z</time>
      </trkpt>
      <trkpt lat="49.66827" lon="-1.48971">
        <ele>18.8</ele>
        <time>2020-06-15T08:42:02Z</time>
      </trkpt>
      <trkpt lat="49.66822" lon="-1.48965">
        <ele>18.8</ele>
        <time>2020-06-15T08:42:03Z</time>
      </trkpt>
      <trkpt lat="49.66819" lon="-1.48958">
        <ele>18.8</ele>
        <time>2020-06-15T08:42:04Z</time>
      </trkpt>
      <trkpt lat="49.66814" lon="-1.48951">
        <ele>18.8</ele>
        <time>2020-06-15T08:42:05Z</time>
      </trkpt>
      <trkpt lat="49.66811" lon="-1.48944">
        <ele>18.8</ele>
        <time>2020-06-15T08:42:06Z</time>
      </trkpt>
      <trkpt lat="49.66807" lon="-1.48937">
        <ele>18.9</ele>
        <time>2020-06-15T08:42:07Z</time>
      </trkpt>
      <trkpt lat="49.66803" lon="-1.48931">
        <ele>18.9</ele>
        <time>2020-06-15T08:42:08Z</time>
      </trkpt>
      <trkpt lat="49.668" lon="-1.48925">
        <ele>18.9</ele>
        <time>2020-06-15T08:42:09Z</time>
      </trkpt>
      <trkpt lat="49.66795" lon="-1.48918">
        <ele>19</ele>
        <time>2020-06-15T08:42:10Z</time>
      </trkpt>
      <trkpt lat="49.66792" lon="-1.48914">
        <ele>19</ele>
        <time>2020-06-15T08:42:11Z</time>
      </trkpt>
      <trkpt lat="49.66788" lon="-1.48908">
        <ele>19</ele>
        <time>2020-06-15T08:42:12Z</time>
      </trkpt>
      <trkpt lat="49.66785" lon="-1.48899">
        <ele>19.1</ele>
        <time>2020-06-15T08:42:13Z</time>
      </trkpt>
      <trkpt lat="49.66783" lon="-1.48892">
        <ele>19.1</ele>
        <time>2020-06-15T08:42:14Z</time>
      </trkpt>
      <trkpt lat="49.6678" lon="-1.48886">
        <ele>19.2</ele>
        <time>2020-06-15T08:42:15Z</time>
      </trkpt>
      <trkpt lat="49.66778" lon="-1.48879">
        <ele>19.3</ele>
        <time>2020-06-15T08:42:16Z</time>
      </trkpt>
      <trkpt lat="49.66775" lon="-1.48873">
        <ele>19.4</ele>
        <time>2020-06-15T08:42:17Z</time>
      </trkpt>
      <trkpt lat="49.66773" lon="-1.48867">
        <ele>19.5</ele>
        <time>2020-06-15T08:42:18Z</time>
      </trkpt>
      <trkpt lat="49.66771" lon="-1.48863">
        <ele>19.6</ele>
        <time>2020-06-15T08:42:19Z</time>
      </trkpt>
      <trkpt lat="49.6677" lon="-1.48858">
        <ele>19.5</ele>
        <time>2020-06-15T08:42:20Z</time>
      </trkpt>
      <trkpt lat="49.66769" lon="-1.48854">
        <ele>19.5</ele>
        <time>2020-06-15T08:42:21Z</time>
      </trkpt>
      <trkpt lat="49.66768" lon="-1.48849">
        <ele>19.5</ele>
        <time>2020-06-15T08:42:22Z</time>
      </trkpt>
      <trkpt lat="49.66768" lon="-1.48842">
        <ele>19.4</ele>
        <time>2020-06-15T08:42:23Z</time>
      </trkpt>
      <trkpt lat="49.66766" lon="-1.48835">
        <ele>19.4</ele>
        <time>2020-06-15T08:42:24Z</time>
      </trkpt>
      <trkpt lat="49.66765" lon="-1.48831">
        <ele>19.4</ele>
        <time>2020-06-15T08:42:25Z</time>
      </trkpt>
      <trkpt lat="49.66762" lon="-1.48826">
        <ele>19.3</ele>
        <time>2020-06-15T08:42:26Z</time>
      </trkpt>
      <trkpt lat="49.6676" lon="-1.48821">
        <ele>19.3</ele>
        <time>2020-06-15T08:42:27Z</time>
      </trkpt>
      <trkpt lat="49.6676" lon="-1.48817">
        <ele>19.3</ele>
        <time>2020-06-15T08:42:28Z</time>
      </trkpt>
      <trkpt lat="49.6676" lon="-1.4881">
        <ele>19.4</ele>
        <time>2020-06-15T08:42:29Z</time>
      </trkpt>
      <trkpt lat="49.66759" lon="-1.48803">
        <ele>19.5</ele>
        <time>2020-06-15T08:42:30Z</time>
      </trkpt>
      <trkpt lat="49.66759" lon="-1.48795">
        <ele>19.6</ele>
        <time>2020-06-15T08:42:31Z</time>
      </trkpt>
      <trkpt lat="49.66758" lon="-1.48789">
        <ele>19.7</ele>
        <time>2020-06-15T08:42:32Z</time>
      </trkpt>
      <trkpt lat="49.66757" lon="-1.48781">
        <ele>19.7</ele>
        <time>2020-06-15T08:42:33Z</time>
      </trkpt>
      <trkpt lat="49.66757" lon="-1.48775">
        <ele>19.8</ele>
        <time>2020-06-15T08:42:34Z</time>
      </trkpt>
      <trkpt lat="49.66756" lon="-1.48767">
        <ele>19.8</ele>
        <time>2020-06-15T08:42:35Z</time>
      </trkpt>
      <trkpt lat="49.66756" lon="-1.48761">
        <ele>19.8</ele>
        <time>2020-06-15T08:42:36Z</time>
      </trkpt>
      <trkpt lat="49.66756" lon="-1.48754">
        <ele>19.8</ele>
        <time>2020-06-15T08:42:37Z</time>
      </trkpt>
      <trkpt lat="49.66755" lon="-1.48747">
        <ele>19.8</ele>
        <time>2020-06-15T08:42:38Z</time>
      </trkpt>
      <trkpt lat="49.66755" lon="-1.48741">
        <ele>19.8</ele>
        <time>2020-06-15T08:42:39Z</time>
      </trkpt>
      <trkpt lat="49.66755" lon="-1.48735">
        <ele>19.8</ele>
        <time>2020-06-15T08:42:40Z</time>
      </trkpt>
      <trkpt lat="49.66755" lon="-1.48728">
        <ele>19.8</ele>
        <time>2020-06-15T08:42:41Z</time>
      </trkpt>
      <trkpt lat="49.66757" lon="-1.48719">
        <ele>19.7</ele>
        <time>2020-06-15T08:42:42Z</time>
      </trkpt>
      <trkpt lat="49.66759" lon="-1.4871">
        <ele>19.7</ele>
        <time>2020-06-15T08:42:43Z</time>
      </trkpt>
      <trkpt lat="49.6676" lon="-1.48701">
        <ele>19.6</ele>
        <time>2020-06-15T08:42:44Z</time>
      </trkpt>
      <trkpt lat="49.66761" lon="-1.48694">
        <ele>19.5</ele>
        <time>2020-06-15T08:42:45Z</time>
      </trkpt>
      <trkpt lat="49.66761" lon="-1.48685">
        <ele>19.5</ele>
        <time>2020-06-15T08:42:46Z</time>
      </trkpt>
      <trkpt lat="49.66761" lon="-1.48677">
        <ele>19.4</ele>
        <time>2020-06-15T08:42:47Z</time>
      </trkpt>
      <trkpt lat="49.6676" lon="-1.48668">
        <ele>19.3</ele>
        <time>2020-06-15T08:42:48Z</time>
      </trkpt>
      <trkpt lat="49.66761" lon="-1.48661">
        <ele>19.3</ele>
        <time>2020-06-15T08:42:49Z</time>
      </trkpt>
      <trkpt lat="49.66762" lon="-1.48654">
        <ele>19.2</ele>
        <time>2020-06-15T08:42:50Z</time>
      </trkpt>
      <trkpt lat="49.66765" lon="-1.48646">
        <ele>19.2</ele>
        <time>2020-06-15T08:42:51Z</time>
      </trkpt>
      <trkpt lat="49.66767" lon="-1.48638">
        <ele>19.1</ele>
        <time>2020-06-15T08:42:52Z</time>
      </trkpt>
      <trkpt lat="49.66769" lon="-1.4863">
        <ele>19</ele>
        <time>2020-06-15T08:42:53Z</time>
      </trkpt>
      <trkpt lat="49.66772" lon="-1.48621">
        <ele>19</ele>
        <time>2020-06-15T08:42:54Z</time>
      </trkpt>
      <trkpt lat="49.66775" lon="-1.48613">
        <ele>18.9</ele>
        <time>2020-06-15T08:42:55Z</time>
      </trkpt>
      <trkpt lat="49.66777" lon="-1.48606">
        <ele>18.8</ele>
        <time>2020-06-15T08:42:56Z</time>
      </trkpt>
      <trkpt lat="49.66781" lon="-1.48598">
        <ele>18.7</ele>
        <time>2020-06-15T08:42:57Z</time>
      </trkpt>
      <trkpt lat="49.66785" lon="-1.4859">
        <ele>18.6</ele>
        <time>2020-06-15T08:42:58Z</time>
      </trkpt>
      <trkpt lat="49.66788" lon="-1.48582">
        <ele>18.5</ele>
        <time>2020-06-15T08:42:59Z</time>
      </trkpt>
      <trkpt lat="49.66792" lon="-1.48575">
        <ele>18.4</ele>
        <time>2020-06-15T08:43:00Z</time>
      </trkpt>
      <trkpt lat="49.66796" lon="-1.48568">
        <ele>18.3</ele>
        <time>2020-06-15T08:43:01Z</time>
      </trkpt>
      <trkpt lat="49.66801" lon="-1.48562">
        <ele>18.2</ele>
        <time>2020-06-15T08:43:02Z</time>
      </trkpt>
      <trkpt lat="49.66806" lon="-1.48556">
        <ele>18</ele>
        <time>2020-06-15T08:43:03Z</time>
      </trkpt>
      <trkpt lat="49.66811" lon="-1.48551">
        <ele>17.8</ele>
        <time>2020-06-15T08:43:04Z</time>
      </trkpt>
      <trkpt lat="49.66816" lon="-1.48544">
        <ele>17.7</ele>
        <time>2020-06-15T08:43:05Z</time>
      </trkpt>
      <trkpt lat="49.66819" lon="-1.48537">
        <ele>17.6</ele>
        <time>2020-06-15T08:43:06Z</time>
      </trkpt>
      <trkpt lat="49.66823" lon="-1.4853">
        <ele>17.5</ele>
        <time>2020-06-15T08:43:07Z</time>
      </trkpt>
      <trkpt lat="49.66827" lon="-1.48524">
        <ele>17.5</ele>
        <time>2020-06-15T08:43:08Z</time>
      </trkpt>
      <trkpt lat="49.66832" lon="-1.48519">
        <ele>17.5</ele>
        <time>2020-06-15T08:43:09Z</time>
      </trkpt>
      <trkpt lat="49.66837" lon="-1.48513">
        <ele>17.4</ele>
        <time>2020-06-15T08:43:10Z</time>
      </trkpt>
      <trkpt lat="49.66842" lon="-1.48509">
        <ele>17.4</ele>
        <time>2020-06-15T08:43:11Z</time>
      </trkpt>
      <trkpt lat="49.66848" lon="-1.48504">
        <ele>17.3</ele>
        <time>2020-06-15T08:43:12Z</time>
      </trkpt>
      <trkpt lat="49.66853" lon="-1.485">
        <ele>17.3</ele>
        <time>2020-06-15T08:43:13Z</time>
      </trkpt>
      <trkpt lat="49.66859" lon="-1.48496">
        <ele>17.3</ele>
        <time>2020-06-15T08:43:14Z</time>
      </trkpt>
      <trkpt lat="49.66865" lon="-1.48491">
        <ele>17.3</ele>
        <time>2020-06-15T08:43:15Z</time>
      </trkpt>
      <trkpt lat="49.66871" lon="-1.48488">
        <ele>17.4</ele>
        <time>2020-06-15T08:43:16Z</time>
      </trkpt>
      <trkpt lat="49.66877" lon="-1.48485">
        <ele>17.4</ele>
        <time>2020-06-15T08:43:17Z</time>
      </trkpt>
      <trkpt lat="49.66883" lon="-1.48481">
        <ele>17.4</ele>
        <time>2020-06-15T08:43:18Z</time>
      </trkpt>
      <trkpt lat="49.66889" lon="-1.48479">
        <ele>17.5</ele>
        <time>2020-06-15T08:43:19Z</time>
      </trkpt>
      <trkpt lat="49.66895" lon="-1.48477">
        <ele>17.5</ele>
        <time>2020-06-15T08:43:20Z</time>
      </trkpt>
      <trkpt lat="49.66901" lon="-1.48475">
        <ele>17.6</ele>
        <time>2020-06-15T08:43:21Z</time>
      </trkpt>
      <trkpt lat="49.66907" lon="-1.48473">
        <ele>17.6</ele>
        <time>2020-06-15T08:43:22Z</time>
      </trkpt>
      <trkpt lat="49.66912" lon="-1.48472">
        <ele>17.7</ele>
        <time>2020-06-15T08:43:23Z</time>
      </trkpt>
      <trkpt lat="49.66918" lon="-1.48473">
        <ele>17.7</ele>
        <time>2020-06-15T08:43:24Z</time>
      </trkpt>
      <trkpt lat="49.66924" lon="-1.48472">
        <ele>17.8</ele>
        <time>2020-06-15T08:43:25Z</time>
      </trkpt>
      <trkpt lat="49.6693" lon="-1.48471">
        <ele>17.8</ele>
        <time>2020-06-15T08:43:26Z</time>
      </trkpt>
      <trkpt lat="49.66936" lon="-1.4847">
        <ele>17.9</ele>
        <time>2020-06-15T08:43:27Z</time>
      </trkpt>
      <trkpt lat="49.66941" lon="-1.48471">
        <ele>18</ele>
        <time>2020-06-15T08:43:28Z</time>
      </trkpt>
      <trkpt lat="49.66947" lon="-1.48472">
        <ele>18</ele>
        <time>2020-06-15T08:43:29Z</time>
      </trkpt>
      <trkpt lat="49.66952" lon="-1.48472">
        <ele>18.1</ele>
        <time>2020-06-15T08:43:30Z</time>
      </trkpt>
      <trkpt lat="49.66957" lon="-1.48473">
        <ele>18.1</ele>
        <time>2020-06-15T08:43:31Z</time>
      </trkpt>
      <trkpt lat="49.66963" lon="-1.48474">
        <ele>18.2</ele>
        <time>2020-06-15T08:43:32Z</time>
      </trkpt>
      <trkpt lat="49.66968" lon="-1.48475">
        <ele>18.3</ele>
        <time>2020-06-15T08:43:33Z</time>
      </trkpt>
      <trkpt lat="49.66974" lon="-1.48476">
        <ele>18.4</ele>
        <time>2020-06-15T08:43:34Z</time>
      </trkpt>
      <trkpt lat="49.66979" lon="-1.48477">
        <ele>18.5</ele>
        <time>2020-06-15T08:43:35Z</time>
      </trkpt>
      <trkpt lat="49.66983" lon="-1.48479">
        <ele>18.6</ele>
        <time>2020-06-15T08:43:36Z</time>
      </trkpt>
      <trkpt lat="49.66989" lon="-1.48482">
        <ele>18.6</ele>
        <time>2020-06-15T08:43:37Z</time>
      </trkpt>
      <trkpt lat="49.66993" lon="-1.48483">
        <ele>18.5</ele>
        <time>2020-06-15T08:43:38Z</time>
      </trkpt>
      <trkpt lat="49.66999" lon="-1.48486">
        <ele>18.5</ele>
        <time>2020-06-15T08:43:39Z</time>
      </trkpt>
      <trkpt lat="49.67004" lon="-1.48488">
        <ele>18.7</ele>
        <time>2020-06-15T08:43:40Z</time>
      </trkpt>
      <trkpt lat="49.67008" lon="-1.48491">
        <ele>18.9</ele>
        <time>2020-06-15T08:43:41Z</time>
      </trkpt>
      <trkpt lat="49.67014" lon="-1.48492">
        <ele>19.1</ele>
        <time>2020-06-15T08:43:42Z</time>
      </trkpt>
      <trkpt lat="49.67019" lon="-1.48495">
        <ele>19.2</ele>
        <time>2020-06-15T08:43:43Z</time>
      </trkpt>
      <trkpt lat="49.67024" lon="-1.48497">
        <ele>19.3</ele>
        <time>2020-06-15T08:43:44Z</time>
      </trkpt>
      <trkpt lat="49.67029" lon="-1.48498">
        <ele>19.4</ele>
        <time>2020-06-15T08:43:45Z</time>
      </trkpt>
      <trkpt lat="49.67034" lon="-1.485">
        <ele>19.5</ele>
        <time>2020-06-15T08:43:46Z</time>
      </trkpt>
      <trkpt lat="49.67039" lon="-1.485">
        <ele>19.6</ele>
        <time>2020-06-15T08:43:47Z</time>
      </trkpt>
      <trkpt lat="49.67045" lon="-1.48502">
        <ele>19.7</ele>
        <time>2020-06-15T08:43:48Z</time>
      </trkpt>
      <trkpt lat="49.67051" lon="-1.48503">
        <ele>19.8</ele>
        <time>2020-06-15T08:43:49Z</time>
      </trkpt>
      <trkpt lat="49.67056" lon="-1.48504">
        <ele>19.9</ele>
        <time>2020-06-15T08:43:50Z</time>
      </trkpt>
      <trkpt lat="49.67061" lon="-1.48505">
        <ele>19.9</ele>
        <time>2020-06-15T08:43:51Z</time>
      </trkpt>
      <trkpt lat="49.67067" lon="-1.48506">
        <ele>20</ele>
        <time>2020-06-15T08:43:52Z</time>
      </trkpt>
      <trkpt lat="49.67073" lon="-1.48508">
        <ele>20.1</ele>
        <time>2020-06-15T08:43:53Z</time>
      </trkpt>
      <trkpt lat="49.67078" lon="-1.4851">
        <ele>20.2</ele>
        <time>2020-06-15T08:43:54Z</time>
      </trkpt>
      <trkpt lat="49.67084" lon="-1.48511">
        <ele>20.3</ele>
        <time>2020-06-15T08:43:55Z</time>
      </trkpt>
      <trkpt lat="49.67089" lon="-1.48511">
        <ele>20.4</ele>
        <time>2020-06-15T08:43:56Z</time>
      </trkpt>
      <trkpt lat="49.67095" lon="-1.48511">
        <ele>20.5</ele>
        <time>2020-06-15T08:43:57Z</time>
      </trkpt>
      <trkpt lat="49.671" lon="-1.4851">
        <ele>20.5</ele>
        <time>2020-06-15T08:43:58Z</time>
      </trkpt>
      <trkpt lat="49.67105" lon="-1.48509">
        <ele>20.6</ele>
        <time>2020-06-15T08:43:59Z</time>
      </trkpt>
      <trkpt lat="49.67111" lon="-1.48509">
        <ele>20.7</ele>
        <time>2020-06-15T08:44:00Z</time>
      </trkpt>
      <trkpt lat="49.67116" lon="-1.48511">
        <ele>20.8</ele>
        <time>2020-06-15T08:44:01Z</time>
      </trkpt>
      <trkpt lat="49.67122" lon="-1.4851">
        <ele>20.9</ele>
        <time>2020-06-15T08:44:02Z</time>
      </trkpt>
      <trkpt lat="49.67126" lon="-1.4851">
        <ele>21</ele>
        <time>2020-06-15T08:44:03Z</time>
      </trkpt>
      <trkpt lat="49.67131" lon="-1.4851">
        <ele>21.1</ele>
        <time>2020-06-15T08:44:04Z</time>
      </trkpt>
      <trkpt lat="49.67136" lon="-1.48509">
        <ele>21.1</ele>
        <time>2020-06-15T08:44:05Z</time>
      </trkpt>
      <trkpt lat="49.67141" lon="-1.48509">
        <ele>21.2</ele>
        <time>2020-06-15T08:44:06Z</time>
      </trkpt>
      <trkpt lat="49.67146" lon="-1.4851">
        <ele>21.3</ele>
        <time>2020-06-15T08:44:07Z</time>
      </trkpt>
      <trkpt lat="49.67151" lon="-1.4851">
        <ele>21.3</ele>
        <time>2020-06-15T08:44:08Z</time>
      </trkpt>
      <trkpt lat="49.67156" lon="-1.48511">
        <ele>21.4</ele>
        <time>2020-06-15T08:44:09Z</time>
      </trkpt>
      <trkpt lat="49.67162" lon="-1.48511">
        <ele>21.5</ele>
        <time>2020-06-15T08:44:10Z</time>
      </trkpt>
      <trkpt lat="49.67168" lon="-1.48512">
        <ele>21.5</ele>
        <time>2020-06-15T08:44:11Z</time>
      </trkpt>
      <trkpt lat="49.67173" lon="-1.48513">
        <ele>21.6</ele>
        <time>2020-06-15T08:44:12Z</time>
      </trkpt>
      <trkpt lat="49.67179" lon="-1.48513">
        <ele>21.7</ele>
        <time>2020-06-15T08:44:13Z</time>
      </trkpt>
      <trkpt lat="49.67186" lon="-1.48511">
        <ele>21.7</ele>
        <time>2020-06-15T08:44:14Z</time>
      </trkpt>
      <trkpt lat="49.67192" lon="-1.4851">
        <ele>21.8</ele>
        <time>2020-06-15T08:44:15Z</time>
      </trkpt>
      <trkpt lat="49.67197" lon="-1.4851">
        <ele>22</ele>
        <time>2020-06-15T08:44:16Z</time>
      </trkpt>
      <trkpt lat="49.67202" lon="-1.48509">
        <ele>22.1</ele>
        <time>2020-06-15T08:44:17Z</time>
      </trkpt>
      <trkpt lat="49.67207" lon="-1.4851">
        <ele>22.2</ele>
        <time>2020-06-15T08:44:18Z</time>
      </trkpt>
      <trkpt lat="49.67212" lon="-1.48511">
        <ele>22.3</ele>
        <time>2020-06-15T08:44:19Z</time>
      </trkpt>
      <trkpt lat="49.67217" lon="-1.48511">
        <ele>22.5</ele>
        <time>2020-06-15T08:44:20Z</time>
      </trkpt>
      <trkpt lat="49.67223" lon="-1.48511">
        <ele>22.6</ele>
        <time>2020-06-15T08:44:21Z</time>
      </trkpt>
      <trkpt lat="49.67229" lon="-1.4851">
        <ele>22.7</ele>
        <time>2020-06-15T08:44:22Z</time>
      </trkpt>
      <trkpt lat="49.67234" lon="-1.48512">
        <ele>22.9</ele>
        <time>2020-06-15T08:44:23Z</time>
      </trkpt>
      <trkpt lat="49.67239" lon="-1.48511">
        <ele>23</ele>
        <time>2020-06-15T08:44:24Z</time>
      </trkpt>
      <trkpt lat="49.67244" lon="-1.48513">
        <ele>23.1</ele>
        <time>2020-06-15T08:44:25Z</time>
      </trkpt>
      <trkpt lat="49.67249" lon="-1.48513">
        <ele>23.2</ele>
        <time>2020-06-15T08:44:26Z</time>
      </trkpt>
      <trkpt lat="49.67253" lon="-1.48513">
        <ele>23.3</ele>
        <time>2020-06-15T08:44:27Z</time>
      </trkpt>
      <trkpt lat="49.67258" lon="-1.48513">
        <ele>23.3</ele>
        <time>2020-06-15T08:44:28Z</time>
      </trkpt>
      <trkpt lat="49.67263" lon="-1.48512">
        <ele>23.4</ele>
        <time>2020-06-15T08:44:29Z</time>
      </trkpt>
      <trkpt lat="49.67269" lon="-1.48512">
        <ele>23.5</ele>
        <time>2020-06-15T08:44:30Z</time>
      </trkpt>
      <trkpt lat="49.67274" lon="-1.4851">
        <ele>23.5</ele>
        <time>2020-06-15T08:44:31Z</time>
      </trkpt>
      <trkpt lat="49.6728" lon="-1.4851">
        <ele>23.6</ele>
        <time>2020-06-15T08:44:32Z</time>
      </trkpt>
      <trkpt lat="49.67286" lon="-1.4851">
        <ele>23.6</ele>
        <time>2020-06-15T08:44:33Z</time>
      </trkpt>
      <trkpt lat="49.67293" lon="-1.48509">
        <ele>23.6</ele>
        <time>2020-06-15T08:44:34Z</time>
      </trkpt>
      <trkpt lat="49.67299" lon="-1.4851">
        <ele>23.7</ele>
        <time>2020-06-15T08:44:35Z</time>
      </trkpt>
      <trkpt lat="49.67304" lon="-1.48511">
        <ele>23.7</ele>
        <time>2020-06-15T08:44:36Z</time>
      </trkpt>
      <trkpt lat="49.67309" lon="-1.48512">
        <ele>23.7</ele>
        <time>2020-06-15T08:44:37Z</time>
      </trkpt>
      <trkpt lat="49.67315" lon="-1.48512">
        <ele>23.8</ele>
        <time>2020-06-15T08:44:38Z</time>
      </trkpt>
      <trkpt lat="49.67321" lon="-1.48512">
        <ele>23.8</ele>
        <time>2020-06-15T08:44:39Z</time>
      </trkpt>
      <trkpt lat="49.67327" lon="-1.48513">
        <ele>23.8</ele>
        <time>2020-06-15T08:44:40Z</time>
      </trkpt>
      <trkpt lat="49.67333" lon="-1.48513">
        <ele>23.8</ele>
        <time>2020-06-15T08:44:41Z</time>
      </trkpt>
      <trkpt lat="49.67339" lon="-1.48513">
        <ele>23.9</ele>
        <time>2020-06-15T08:44:42Z</time>
      </trkpt>
      <trkpt lat="49.67345" lon="-1.48513">
        <ele>23.9</ele>
        <time>2020-06-15T08:44:43Z</time>
      </trkpt>
      <trkpt lat="49.67351" lon="-1.48513">
        <ele>23.9</ele>
        <time>2020-06-15T08:44:44Z</time>
      </trkpt>
      <trkpt lat="49.67356" lon="-1.48513">
        <ele>23.9</ele>
        <time>2020-06-15T08:44:45Z</time>
      </trkpt>
      <trkpt lat="49.67362" lon="-1.48512">
        <ele>23.9</ele>
        <time>2020-06-15T08:44:46Z</time>
      </trkpt>
      <trkpt lat="49.67368" lon="-1.48509">
        <ele>23.9</ele>
        <time>2020-06-15T08:44:47Z</time>
      </trkpt>
      <trkpt lat="49.67373" lon="-1.48506">
        <ele>23.9</ele>
        <time>2020-06-15T08:44:48Z</time>
      </trkpt>
      <trkpt lat="49.6738" lon="-1.48503">
        <ele>23.9</ele>
        <time>2020-06-15T08:44:49Z</time>
      </trkpt>
      <trkpt lat="49.67386" lon="-1.48501">
        <ele>23.8</ele>
        <time>2020-06-15T08:44:50Z</time>
      </trkpt>
      <trkpt lat="49.67392" lon="-1.48498">
        <ele>23.8</ele>
        <time>2020-06-15T08:44:51Z</time>
      </trkpt>
      <trkpt lat="49.67399" lon="-1.48495">
        <ele>23.8</ele>
        <time>2020-06-15T08:44:52Z</time>
      </trkpt>
      <trkpt lat="49.67405" lon="-1.48492">
        <ele>23.8</ele>
        <time>2020-06-15T08:44:53Z</time>
      </trkpt>
      <trkpt lat="49.67411" lon="-1.48488">
        <ele>23.8</ele>
        <time>2020-06-15T08:44:54Z</time>
      </trkpt>
      <trkpt lat="49.67415" lon="-1.48486">
        <ele>23.8</ele>
        <time>2020-06-15T08:44:55Z</time>
      </trkpt>
      <trkpt lat="49.6742" lon="-1.48483">
        <ele>23.8</ele>
        <time>2020-06-15T08:44:56Z</time>
      </trkpt>
      <trkpt lat="49.67425" lon="-1.48478">
        <ele>23.9</ele>
        <time>2020-06-15T08:44:57Z</time>
      </trkpt>
      <trkpt lat="49.6743" lon="-1.48475">
        <ele>23.9</ele>
        <time>2020-06-15T08:44:58Z</time>
      </trkpt>
      <trkpt lat="49.67435" lon="-1.48471">
        <ele>23.9</ele>
        <time>2020-06-15T08:44:59Z</time>
      </trkpt>
      <trkpt lat="49.67441" lon="-1.48468">
        <ele>24</ele>
        <time>2020-06-15T08:45:00Z</time>
      </trkpt>
      <trkpt lat="49.67447" lon="-1.48464">
        <ele>24.1</ele>
        <time>2020-06-15T08:45:01Z</time>
      </trkpt>
      <trkpt lat="49.67453" lon="-1.4846">
        <ele>24.2</ele>
        <time>2020-06-15T08:45:02Z</time>
      </trkpt>
      <trkpt lat="49.67458" lon="-1.48457">
        <ele>24.3</ele>
        <time>2020-06-15T08:45:03Z</time>
      </trkpt>
      <trkpt lat="49.67464" lon="-1.48455">
        <ele>24.5</ele>
        <time>2020-06-15T08:45:04Z</time>
      </trkpt>
      <trkpt lat="49.67468" lon="-1.48453">
        <ele>24.5</ele>
        <time>2020-06-15T08:45:05Z</time>
      </trkpt>
      <trkpt lat="49.67473" lon="-1.48451">
        <ele>24.6</ele>
        <time>2020-06-15T08:45:06Z</time>
      </trkpt>
      <trkpt lat="49.67476" lon="-1.4845">
        <ele>24.7</ele>
        <time>2020-06-15T08:45:07Z</time>
      </trkpt>
      <trkpt lat="49.67482" lon="-1.48449">
        <ele>24.8</ele>
        <time>2020-06-15T08:45:08Z</time>
      </trkpt>
      <trkpt lat="49.67488" lon="-1.48446">
        <ele>24.9</ele>
        <time>2020-06-15T08:45:09Z</time>
      </trkpt>
      <trkpt lat="49.67493" lon="-1.48445">
        <ele>25</ele>
        <time>2020-06-15T08:45:10Z</time>
      </trkpt>
      <trkpt lat="49.67497" lon="-1.48444">
        <ele>25.1</ele>
        <time>2020-06-15T08:45:11Z</time>
      </trkpt>
      <trkpt lat="49.67502" lon="-1.48442">
        <ele>25.2</ele>
        <time>2020-06-15T08:45:12Z</time>
      </trkpt>
      <trkpt lat="49.67507" lon="-1.4844">
        <ele>25.2</ele>
        <time>2020-06-15T08:45:13Z</time>
      </trkpt>
      <trkpt lat="49.67512" lon="-1.48438">
        <ele>25.3</ele>
        <time>2020-06-15T08:45:14Z</time>
      </trkpt>
      <trkpt lat="49.67518" lon="-1.48437">
        <ele>25.4</ele>
        <time>2020-06-15T08:45:15Z</time>
      </trkpt>
      <trkpt lat="49.67524" lon="-1.48436">
        <ele>25.5</ele>
        <time>2020-06-15T08:45:16Z</time>
      </trkpt>
      <trkpt lat="49.67529" lon="-1.48435">
        <ele>25.6</ele>
        <time>2020-06-15T08:45:17Z</time>
      </trkpt>
      <trkpt lat="49.67535" lon="-1.48434">
        <ele>25.7</ele>
        <time>2020-06-15T08:45:18Z</time>
      </trkpt>
      <trkpt lat="49.67539" lon="-1.48432">
        <ele>25.7</ele>
        <time>2020-06-15T08:45:19Z</time>
      </trkpt>
      <trkpt lat="49.67542" lon="-1.48432">
        <ele>25.8</ele>
        <time>2020-06-15T08:45:20Z</time>
      </trkpt>
      <trkpt lat="49.67547" lon="-1.48432">
        <ele>25.9</ele>
        <time>2020-06-15T08:45:21Z</time>
      </trkpt>
      <trkpt lat="49.67552" lon="-1.4843">
        <ele>26.1</ele>
        <time>2020-06-15T08:45:22Z</time>
      </trkpt>
      <trkpt lat="49.67557" lon="-1.48429">
        <ele>26.2</ele>
        <time>2020-06-15T08:45:23Z</time>
      </trkpt>
      <trkpt lat="49.67561" lon="-1.48427">
        <ele>26.3</ele>
        <time>2020-06-15T08:45:24Z</time>
      </trkpt>
      <trkpt lat="49.67565" lon="-1.48426">
        <ele>26.5</ele>
        <time>2020-06-15T08:45:25Z</time>
      </trkpt>
      <trkpt lat="49.67571" lon="-1.48424">
        <ele>26.6</ele>
        <time>2020-06-15T08:45:26Z</time>
      </trkpt>
      <trkpt lat="49.67577" lon="-1.48422">
        <ele>26.8</ele>
        <time>2020-06-15T08:45:27Z</time>
      </trkpt>
      <trkpt lat="49.67582" lon="-1.4842">
        <ele>27</ele>
        <time>2020-06-15T08:45:28Z</time>
      </trkpt>
      <trkpt lat="49.67586" lon="-1.48417">
        <ele>27.1</ele>
        <time>2020-06-15T08:45:29Z</time>
      </trkpt>
      <trkpt lat="49.67591" lon="-1.48415">
        <ele>27.3</ele>
        <time>2020-06-15T08:45:30Z</time>
      </trkpt>
      <trkpt lat="49.67596" lon="-1.48414">
        <ele>27.4</ele>
        <time>2020-06-15T08:45:31Z</time>
      </trkpt>
      <trkpt lat="49.67601" lon="-1.48412">
        <ele>27.6</ele>
        <time>2020-06-15T08:45:32Z</time>
      </trkpt>
      <trkpt lat="49.67606" lon="-1.4841">
        <ele>27.8</ele>
        <time>2020-06-15T08:45:33Z</time>
      </trkpt>
      <trkpt lat="49.6761" lon="-1.48408">
        <ele>27.9</ele>
        <time>2020-06-15T08:45:34Z</time>
      </trkpt>
      <trkpt lat="49.67615" lon="-1.48404">
        <ele>28.1</ele>
        <time>2020-06-15T08:45:35Z</time>
      </trkpt>
      <trkpt lat="49.67619" lon="-1.48402">
        <ele>28.3</ele>
        <time>2020-06-15T08:45:36Z</time>
      </trkpt>
      <trkpt lat="49.67622" lon="-1.484">
        <ele>28.4</ele>
        <time>2020-06-15T08:45:37Z</time>
      </trkpt>
      <trkpt lat="49.67627" lon="-1.48398">
        <ele>28.5</ele>
        <time>2020-06-15T08:45:38Z</time>
      </trkpt>
      <trkpt lat="49.67632" lon="-1.48395">
        <ele>28.7</ele>
        <time>2020-06-15T08:45:39Z</time>
      </trkpt>
      <trkpt lat="49.67636" lon="-1.48392">
        <ele>28.8</ele>
        <time>2020-06-15T08:45:40Z</time>
      </trkpt>
      <trkpt lat="49.6764" lon="-1.48389">
        <ele>28.9</ele>
        <time>2020-06-15T08:45:41Z</time>
      </trkpt>
      <trkpt lat="49.67645" lon="-1.48385">
        <ele>29.1</ele>
        <time>2020-06-15T08:45:42Z</time>
      </trkpt>
      <trkpt lat="49.6765" lon="-1.4838">
        <ele>29.3</ele>
        <time>2020-06-15T08:45:43Z</time>
      </trkpt>
      <trkpt lat="49.67655" lon="-1.48374">
        <ele>29.5</ele>
        <time>2020-06-15T08:45:44Z</time>
      </trkpt>
      <trkpt lat="49.6766" lon="-1.48368">
        <ele>29.7</ele>
        <time>2020-06-15T08:45:45Z</time>
      </trkpt>
      <trkpt lat="49.67666" lon="-1.48363">
        <ele>29.9</ele>
        <time>2020-06-15T08:45:46Z</time>
      </trkpt>
      <trkpt lat="49.67671" lon="-1.48358">
        <ele>30</ele>
        <time>2020-06-15T08:45:47Z</time>
      </trkpt>
      <trkpt lat="49.67674" lon="-1.48354">
        <ele>30.1</ele>
        <time>2020-06-15T08:45:48Z</time>
      </trkpt>
      <trkpt lat="49.67679" lon="-1.4835">
        <ele>30.3</ele>
        <time>2020-06-15T08:45:49Z</time>
      </trkpt>
      <trkpt lat="49.67682" lon="-1.48345">
        <ele>30.4</ele>
        <time>2020-06-15T08:45:50Z</time>
      </trkpt>
      <trkpt lat="49.67685" lon="-1.48341">
        <ele>30.5</ele>
        <time>2020-06-15T08:45:51Z</time>
      </trkpt>
      <trkpt lat="49.67688" lon="-1.48337">
        <ele>30.7</ele>
        <time>2020-06-15T08:45:52Z</time>
      </trkpt>
      <trkpt lat="49.67692" lon="-1.48332">
        <ele>30.8</ele>
        <time>2020-06-15T08:45:53Z</time>
      </trkpt>
      <trkpt lat="49.67694" lon="-1.48327">
        <ele>30.9</ele>
        <time>2020-06-15T08:45:54Z</time>
      </trkpt>
      <trkpt lat="49.67697" lon="-1.48323">
        <ele>31</ele>
        <time>2020-06-15T08:45:55Z</time>
      </trkpt>
      <trkpt lat="49.677" lon="-1.48318">
        <ele>31.1</ele>
        <time>2020-06-15T08:45:56Z</time>
      </trkpt>
      <trkpt lat="49.67703" lon="-1.48313">
        <ele>31.2</ele>
        <time>2020-06-15T08:45:57Z</time>
      </trkpt>
      <trkpt lat="49.67706" lon="-1.48308">
        <ele>31.3</ele>
        <time>2020-06-15T08:45:58Z</time>
      </trkpt>
      <trkpt lat="49.67709" lon="-1.48303">
        <ele>31.4</ele>
        <time>2020-06-15T08:45:59Z</time>
      </trkpt>
      <trkpt lat="49.67712" lon="-1.48297">
        <ele>31.6</ele>
        <time>2020-06-15T08:46:00Z</time>
      </trkpt>
      <trkpt lat="49.67715" lon="-1.48291">
        <ele>31.7</ele>
        <time>2020-06-15T08:46:01Z</time>
      </trkpt>
      <trkpt lat="49.67717" lon="-1.48288">
        <ele>31.8</ele>
        <time>2020-06-15T08:46:02Z</time>
      </trkpt>
      <trkpt lat="49.6772" lon="-1.48283">
        <ele>32</ele>
        <time>2020-06-15T08:46:03Z</time>
      </trkpt>
      <trkpt lat="49.67723" lon="-1.48276">
        <ele>32.1</ele>
        <time>2020-06-15T08:46:04Z</time>
      </trkpt>
      <trkpt lat="49.67726" lon="-1.48269">
        <ele>32.3</ele>
        <time>2020-06-15T08:46:05Z</time>
      </trkpt>
      <trkpt lat="49.67729" lon="-1.48266">
        <ele>32.4</ele>
        <time>2020-06-15T08:46:06Z</time>
      </trkpt>
      <trkpt lat="49.67732" lon="-1.48259">
        <ele>32.5</ele>
        <time>2020-06-15T08:46:07Z</time>
      </trkpt>
      <trkpt lat="49.67735" lon="-1.48253">
        <ele>32.6</ele>
        <time>2020-06-15T08:46:08Z</time>
      </trkpt>
      <trkpt lat="49.67738" lon="-1.48247">
        <ele>32.8</ele>
        <time>2020-06-15T08:46:09Z</time>
      </trkpt>
      <trkpt lat="49.67741" lon="-1.4824">
        <ele>32.9</ele>
        <time>2020-06-15T08:46:10Z</time>
      </trkpt>
      <trkpt lat="49.67743" lon="-1.48234">
        <ele>33</ele>
        <time>2020-06-15T08:46:11Z</time>
      </trkpt>
      <trkpt lat="49.67745" lon="-1.48227">
        <ele>33</ele>
        <time>2020-06-15T08:46:12Z</time>
      </trkpt>
      <trkpt lat="49.67747" lon="-1.4822">
        <ele>33.1</ele>
        <time>2020-06-15T08:46:13Z</time>
      </trkpt>
      <trkpt lat="49.67748" lon="-1.48213">
        <ele>33.2</ele>
        <time>2020-06-15T08:46:14Z</time>
      </trkpt>
      <trkpt lat="49.67751" lon="-1.48208">
        <ele>33.2</ele>
        <time>2020-06-15T08:46:15Z</time>
      </trkpt>
      <trkpt lat="49.67753" lon="-1.48199">
        <ele>33.3</ele>
        <time>2020-06-15T08:46:16Z</time>
      </trkpt>
      <trkpt lat="49.67755" lon="-1.48195">
        <ele>33.3</ele>
        <time>2020-06-15T08:46:17Z</time>
      </trkpt>
      <trkpt lat="49.67757" lon="-1.48188">
        <ele>33.3</ele>
        <time>2020-06-15T08:46:18Z</time>
      </trkpt>
      <trkpt lat="49.6776" lon="-1.48182">
        <ele>33.3</ele>
        <time>2020-06-15T08:46:19Z</time>
      </trkpt>
      <trkpt lat="49.67762" lon="-1.48176">
        <ele>33.4</ele>
        <time>2020-06-15T08:46:20Z</time>
      </trkpt>
      <trkpt lat="49.67764" lon="-1.48169">
        <ele>33.4</ele>
        <time>2020-06-15T08:46:21Z</time>
      </trkpt>
      <trkpt lat="49.67766" lon="-1.48162">
        <ele>33.5</ele>
        <time>2020-06-15T08:46:22Z</time>
      </trkpt>
      <trkpt lat="49.67769" lon="-1.48154">
        <ele>33.6</ele>
        <time>2020-06-15T08:46:23Z</time>
      </trkpt>
      <trkpt lat="49.67769" lon="-1.48148">
        <ele>33.7</ele>
        <time>2020-06-15T08:46:24Z</time>
      </trkpt>
      <trkpt lat="49.67771" lon="-1.48138">
        <ele>33.8</ele>
        <time>2020-06-15T08:46:25Z</time>
      </trkpt>
      <trkpt lat="49.67773" lon="-1.4813">
        <ele>33.8</ele>
        <time>2020-06-15T08:46:26Z</time>
      </trkpt>
      <trkpt lat="49.67774" lon="-1.48122">
        <ele>33.9</ele>
        <time>2020-06-15T08:46:27Z</time>
      </trkpt>
      <trkpt lat="49.67775" lon="-1.48114">
        <ele>34</ele>
        <time>2020-06-15T08:46:28Z</time>
      </trkpt>
      <trkpt lat="49.67776" lon="-1.48106">
        <ele>34</ele>
        <time>2020-06-15T08:46:29Z</time>
      </trkpt>
      <trkpt lat="49.67777" lon="-1.48097">
        <ele>34.1</ele>
        <time>2020-06-15T08:46:30Z</time>
      </trkpt>
      <trkpt lat="49.67777" lon="-1.48089">
        <ele>34.1</ele>
        <time>2020-06-15T08:46:31Z</time>
      </trkpt>
      <trkpt lat="49.67779" lon="-1.4808">
        <ele>34.2</ele>
        <time>2020-06-15T08:46:32Z</time>
      </trkpt>
      <trkpt lat="49.67779" lon="-1.48071">
        <ele>34.2</ele>
        <time>2020-06-15T08:46:33Z</time>
      </trkpt>
      <trkpt lat="49.6778" lon="-1.48065">
        <ele>34.2</ele>
        <time>2020-06-15T08:46:34Z</time>
      </trkpt>
      <trkpt lat="49.67781" lon="-1.48056">
        <ele>34.2</ele>
        <time>2020-06-15T08:46:35Z</time>
      </trkpt>
      <trkpt lat="49.67781" lon="-1.48047">
        <ele>34.2</ele>
        <time>2020-06-15T08:46:36Z</time>
      </trkpt>
      <trkpt lat="49.67782" lon="-1.48041">
        <ele>34.2</ele>
        <time>2020-06-15T08:46:37Z</time>
      </trkpt>
      <trkpt lat="49.67782" lon="-1.48033">
        <ele>34.2</ele>
        <time>2020-06-15T08:46:38Z</time>
      </trkpt>
      <trkpt lat="49.67783" lon="-1.48024">
        <ele>34.2</ele>
        <time>2020-06-15T08:46:39Z</time>
      </trkpt>
      <trkpt lat="49.67783" lon="-1.48016">
        <ele>34.2</ele>
        <time>2020-06-15T08:46:40Z</time>
      </trkpt>
      <trkpt lat="49.67783" lon="-1.48006">
        <ele>34.1</ele>
        <time>2020-06-15T08:46:41Z</time>
      </trkpt>
      <trkpt lat="49.67782" lon="-1.47998">
        <ele>34.1</ele>
        <time>2020-06-15T08:46:42Z</time>
      </trkpt>
      <trkpt lat="49.6778" lon="-1.4799">
        <ele>34.1</ele>
        <time>2020-06-15T08:46:43Z</time>
      </trkpt>
      <trkpt lat="49.67779" lon="-1.47981">
        <ele>34</ele>
        <time>2020-06-15T08:46:44Z</time>
      </trkpt>
      <trkpt lat="49.67777" lon="-1.47972">
        <ele>33.9</ele>
        <time>2020-06-15T08:46:45Z</time>
      </trkpt>
      <trkpt lat="49.67776" lon="-1.47962">
        <ele>33.8</ele>
        <time>2020-06-15T08:46:46Z</time>
      </trkpt>
      <trkpt lat="49.67775" lon="-1.47955">
        <ele>33.7</ele>
        <time>2020-06-15T08:46:47Z</time>
      </trkpt>
      <trkpt lat="49.67774" lon="-1.47947">
        <ele>33.7</ele>
        <time>2020-06-15T08:46:48Z</time>
      </trkpt>
      <trkpt lat="49.67774" lon="-1.47939">
        <ele>33.7</ele>
        <time>2020-06-15T08:46:49Z</time>
      </trkpt>
      <trkpt lat="49.67773" lon="-1.47929">
        <ele>33.6</ele>
        <time>2020-06-15T08:46:50Z</time>
      </trkpt>
      <trkpt lat="49.67773" lon="-1.4792">
        <ele>33.5</ele>
        <time>2020-06-15T08:46:51Z</time>
      </trkpt>
      <trkpt lat="49.67773" lon="-1.4791">
        <ele>33.3</ele>
        <time>2020-06-15T08:46:52Z</time>
      </trkpt>
      <trkpt lat="49.67772" lon="-1.47902">
        <ele>33.2</ele>
        <time>2020-06-15T08:46:53Z</time>
      </trkpt>
      <trkpt lat="49.67771" lon="-1.47892">
        <ele>33.1</ele>
        <time>2020-06-15T08:46:54Z</time>
      </trkpt>
      <trkpt lat="49.67771" lon="-1.47883">
        <ele>33.1</ele>
        <time>2020-06-15T08:46:55Z</time>
      </trkpt>
      <trkpt lat="49.6777" lon="-1.47874">
        <ele>33.1</ele>
        <time>2020-06-15T08:46:56Z</time>
      </trkpt>
      <trkpt lat="49.67769" lon="-1.47864">
        <ele>33</ele>
        <time>2020-06-15T08:46:57Z</time>
      </trkpt>
      <trkpt lat="49.67768" lon="-1.47856">
        <ele>33.1</ele>
        <time>2020-06-15T08:46:58Z</time>
      </trkpt>
      <trkpt lat="49.67767" lon="-1.47846">
        <ele>33.1</ele>
        <time>2020-06-15T08:46:59Z</time>
      </trkpt>
      <trkpt lat="49.67766" lon="-1.47836">
        <ele>33.2</ele>
        <time>2020-06-15T08:47:00Z</time>
      </trkpt>
      <trkpt lat="49.67764" lon="-1.47828">
        <ele>33.2</ele>
        <time>2020-06-15T08:47:01Z</time>
      </trkpt>
      <trkpt lat="49.67763" lon="-1.47818">
        <ele>33.3</ele>
        <time>2020-06-15T08:47:02Z</time>
      </trkpt>
      <trkpt lat="49.67762" lon="-1.47809">
        <ele>33.4</ele>
        <time>2020-06-15T08:47:03Z</time>
      </trkpt>
      <trkpt lat="49.6776" lon="-1.47799">
        <ele>33.4</ele>
        <time>2020-06-15T08:47:04Z</time>
      </trkpt>
      <trkpt lat="49.67759" lon="-1.4779">
        <ele>33.5</ele>
        <time>2020-06-15T08:47:05Z</time>
      </trkpt>
      <trkpt lat="49.67758" lon="-1.47782">
        <ele>33.6</ele>
        <time>2020-06-15T08:47:06Z</time>
      </trkpt>
      <trkpt lat="49.67756" lon="-1.47774">
        <ele>33.7</ele>
        <time>2020-06-15T08:47:07Z</time>
      </trkpt>
      <trkpt lat="49.67754" lon="-1.47764">
        <ele>33.8</ele>
        <time>2020-06-15T08:47:08Z</time>
      </trkpt>
      <trkpt lat="49.67754" lon="-1.47755">
        <ele>34</ele>
        <time>2020-06-15T08:47:09Z</time>
      </trkpt>
      <trkpt lat="49.67753" lon="-1.47747">
        <ele>34.2</ele>
        <time>2020-06-15T08:47:10Z</time>
      </trkpt>
      <trkpt lat="49.67752" lon="-1.47737">
        <ele>34.4</ele>
        <time>2020-06-15T08:47:11Z</time>
      </trkpt>
      <trkpt lat="49.67752" lon="-1.4773">
        <ele>34.5</ele>
        <time>2020-06-15T08:47:12Z</time>
      </trkpt>
      <trkpt lat="49.67752" lon="-1.47722">
        <ele>34.7</ele>
        <time>2020-06-15T08:47:13Z</time>
      </trkpt>
      <trkpt lat="49.67751" lon="-1.47715">
        <ele>34.8</ele>
        <time>2020-06-15T08:47:14Z</time>
      </trkpt>
      <trkpt lat="49.67751" lon="-1.47709">
        <ele>34.9</ele>
        <time>2020-06-15T08:47:15Z</time>
      </trkpt>
      <trkpt lat="49.67751" lon="-1.47701">
        <ele>35.1</ele>
        <time>2020-06-15T08:47:16Z</time>
      </trkpt>
      <trkpt lat="49.67751" lon="-1.47695">
        <ele>35.2</ele>
        <time>2020-06-15T08:47:17Z</time>
      </trkpt>
      <trkpt lat="49.67751" lon="-1.47689">
        <ele>35.3</ele>
        <time>2020-06-15T08:47:18Z</time>
      </trkpt>
      <trkpt lat="49.6775" lon="-1.47683">
        <ele>35.4</ele>
        <time>2020-06-15T08:47:19Z</time>
      </trkpt>
      <trkpt lat="49.6775" lon="-1.47676">
        <ele>35.5</ele>
        <time>2020-06-15T08:47:20Z</time>
      </trkpt>
      <trkpt lat="49.6775" lon="-1.47667">
        <ele>35.6</ele>
        <time>2020-06-15T08:47:21Z</time>
      </trkpt>
      <trkpt lat="49.67749" lon="-1.4766">
        <ele>35.8</ele>
        <time>2020-06-15T08:47:22Z</time>
      </trkpt>
      <trkpt lat="49.67749" lon="-1.47651">
        <ele>35.9</ele>
        <time>2020-06-15T08:47:23Z</time>
      </trkpt>
      <trkpt lat="49.67749" lon="-1.47643">
        <ele>36</ele>
        <time>2020-06-15T08:47:24Z</time>
      </trkpt>
      <trkpt lat="49.67749" lon="-1.47635">
        <ele>36.1</ele>
        <time>2020-06-15T08:47:25Z</time>
      </trkpt>
      <trkpt lat="49.67749" lon="-1.47627">
        <ele>36.2</ele>
        <time>2020-06-15T08:47:26Z</time>
      </trkpt>
      <trkpt lat="49.6775" lon="-1.4762">
        <ele>36.3</ele>
        <time>2020-06-15T08:47:27Z</time>
      </trkpt>
      <trkpt lat="49.6775" lon="-1.47612">
        <ele>36.3</ele>
        <time>2020-06-15T08:47:28Z</time>
      </trkpt>
      <trkpt lat="49.6775" lon="-1.47605">
        <ele>36.4</ele>
        <time>2020-06-15T08:47:29Z</time>
      </trkpt>
      <trkpt lat="49.67751" lon="-1.47598">
        <ele>36.5</ele>
        <time>2020-06-15T08:47:30Z</time>
      </trkpt>
      <trkpt lat="49.67751" lon="-1.47592">
        <ele>36.5</ele>
        <time>2020-06-15T08:47:31Z</time>
      </trkpt>
      <trkpt lat="49.67753" lon="-1.47586">
        <ele>36.6</ele>
        <time>2020-06-15T08:47:32Z</time>
      </trkpt>
      <trkpt lat="49.67755" lon="-1.47576">
        <ele>36.7</ele>
        <time>2020-06-15T08:47:33Z</time>
      </trkpt>
      <trkpt lat="49.67756" lon="-1.47569">
        <ele>36.7</ele>
        <time>2020-06-15T08:47:34Z</time>
      </trkpt>
      <trkpt lat="49.67757" lon="-1.47563">
        <ele>36.8</ele>
        <time>2020-06-15T08:47:35Z</time>
      </trkpt>
      <trkpt lat="49.67758" lon="-1.47555">
        <ele>36.9</ele>
        <time>2020-06-15T08:47:36Z</time>
      </trkpt>
      <trkpt lat="49.6776" lon="-1.47548">
        <ele>36.9</ele>
        <time>2020-06-15T08:47:37Z</time>
      </trkpt>
      <trkpt lat="49.67762" lon="-1.47541">
        <ele>37</ele>
        <time>2020-06-15T08:47:38Z</time>
      </trkpt>
      <trkpt lat="49.67762" lon="-1.47533">
        <ele>37</ele>
        <time>2020-06-15T08:47:39Z</time>
      </trkpt>
      <trkpt lat="49.67763" lon="-1.47526">
        <ele>37.1</ele>
        <time>2020-06-15T08:47:40Z</time>
      </trkpt>
      <trkpt lat="49.67765" lon="-1.47519">
        <ele>37.2</ele>
        <time>2020-06-15T08:47:41Z</time>
      </trkpt>
      <trkpt lat="49.67766" lon="-1.47513">
        <ele>37.2</ele>
        <time>2020-06-15T08:47:42Z</time>
      </trkpt>
      <trkpt lat="49.67768" lon="-1.47506">
        <ele>37.3</ele>
        <time>2020-06-15T08:47:43Z</time>
      </trkpt>
      <trkpt lat="49.6777" lon="-1.47497">
        <ele>37.4</ele>
        <time>2020-06-15T08:47:44Z</time>
      </trkpt>
      <trkpt lat="49.67772" lon="-1.4749">
        <ele>37.4</ele>
        <time>2020-06-15T08:47:45Z</time>
      </trkpt>
      <trkpt lat="49.67774" lon="-1.47483">
        <ele>37.5</ele>
        <time>2020-06-15T08:47:46Z</time>
      </trkpt>
      <trkpt lat="49.67776" lon="-1.47477">
        <ele>37.5</ele>
        <time>2020-06-15T08:47:47Z</time>
      </trkpt>
      <trkpt lat="49.67778" lon="-1.47471">
        <ele>37.6</ele>
        <time>2020-06-15T08:47:48Z</time>
      </trkpt>
      <trkpt lat="49.6778" lon="-1.47463">
        <ele>37.7</ele>
        <time>2020-06-15T08:47:49Z</time>
      </trkpt>
      <trkpt lat="49.67782" lon="-1.47456">
        <ele>37.8</ele>
        <time>2020-06-15T08:47:50Z</time>
      </trkpt>
      <trkpt lat="49.67784" lon="-1.47449">
        <ele>37.8</ele>
        <time>2020-06-15T08:47:51Z</time>
      </trkpt>
      <trkpt lat="49.67786" lon="-1.47443">
        <ele>37.9</ele>
        <time>2020-06-15T08:47:52Z</time>
      </trkpt>
      <trkpt lat="49.67788" lon="-1.47437">
        <ele>37.9</ele>
        <time>2020-06-15T08:47:53Z</time>
      </trkpt>
      <trkpt lat="49.67789" lon="-1.47432">
        <ele>37.9</ele>
        <time>2020-06-15T08:47:54Z</time>
      </trkpt>
      <trkpt lat="49.67791" lon="-1.47425">
        <ele>37.9</ele>
        <time>2020-06-15T08:47:55Z</time>
      </trkpt>
      <trkpt lat="49.67794" lon="-1.47418">
        <ele>37.9</ele>
        <time>2020-06-15T08:47:56Z</time>
      </trkpt>
      <trkpt lat="49.67795" lon="-1.4741">
        <ele>37.9</ele>
        <time>2020-06-15T08:47:57Z</time>
      </trkpt>
      <trkpt lat="49.67797" lon="-1.47402">
        <ele>38</ele>
        <time>2020-06-15T08:47:58Z</time>
      </trkpt>
      <trkpt lat="49.67798" lon="-1.47395">
        <ele>38</ele>
        <time>2020-06-15T08:47:59Z</time>
      </trkpt>
      <trkpt lat="49.67799" lon="-1.47388">
        <ele>38.1</ele>
        <time>2020-06-15T08:48:00Z</time>
      </trkpt>
      <trkpt lat="49.67801" lon="-1.47379">
        <ele>38.1</ele>
        <time>2020-06-15T08:48:01Z</time>
      </trkpt>
      <trkpt lat="49.67803" lon="-1.47372">
        <ele>38.2</ele>
        <time>2020-06-15T08:48:02Z</time>
      </trkpt>
      <trkpt lat="49.67804" lon="-1.47364">
        <ele>38.2</ele>
        <time>2020-06-15T08:48:03Z</time>
      </trkpt>
      <trkpt lat="49.67805" lon="-1.47355">
        <ele>38.2</ele>
        <time>2020-06-15T08:48:04Z</time>
      </trkpt>
      <trkpt lat="49.67807" lon="-1.47347">
        <ele>38.2</ele>
        <time>2020-06-15T08:48:05Z</time>
      </trkpt>
      <trkpt lat="49.67809" lon="-1.4734">
        <ele>38.2</ele>
        <time>2020-06-15T08:48:06Z</time>
      </trkpt>
      <trkpt lat="49.6781" lon="-1.47332">
        <ele>38.3</ele>
        <time>2020-06-15T08:48:07Z</time>
      </trkpt>
      <trkpt lat="49.67812" lon="-1.47324">
        <ele>38.4</ele>
        <time>2020-06-15T08:48:08Z</time>
      </trkpt>
      <trkpt lat="49.67813" lon="-1.47316">
        <ele>38.4</ele>
        <time>2020-06-15T08:48:09Z</time>
      </trkpt>
      <trkpt lat="49.67815" lon="-1.4731">
        <ele>38.5</ele>
        <time>2020-06-15T08:48:10Z</time>
      </trkpt>
      <trkpt lat="49.67817" lon="-1.47302">
        <ele>38.6</ele>
        <time>2020-06-15T08:48:11Z</time>
      </trkpt>
      <trkpt lat="49.67819" lon="-1.47292">
        <ele>38.7</ele>
        <time>2020-06-15T08:48:12Z</time>
      </trkpt>
      <trkpt lat="49.67821" lon="-1.47282">
        <ele>38.8</ele>
        <time>2020-06-15T08:48:13Z</time>
      </trkpt>
      <trkpt lat="49.67822" lon="-1.47273">
        <ele>38.8</ele>
        <time>2020-06-15T08:48:14Z</time>
      </trkpt>
      <trkpt lat="49.67824" lon="-1.47264">
        <ele>38.9</ele>
        <time>2020-06-15T08:48:15Z</time>
      </trkpt>
      <trkpt lat="49.67826" lon="-1.47257">
        <ele>38.9</ele>
        <time>2020-06-15T08:48:16Z</time>
      </trkpt>
      <trkpt lat="49.67828" lon="-1.4725">
        <ele>39</ele>
        <time>2020-06-15T08:48:17Z</time>
      </trkpt>
      <trkpt lat="49.6783" lon="-1.47243">
        <ele>39</ele>
        <time>2020-06-15T08:48:18Z</time>
      </trkpt>
      <trkpt lat="49.67833" lon="-1.47236">
        <ele>39.1</ele>
        <time>2020-06-15T08:48:19Z</time>
      </trkpt>
      <trkpt lat="49.67834" lon="-1.47229">
        <ele>39.1</ele>
        <time>2020-06-15T08:48:20Z</time>
      </trkpt>
      <trkpt lat="49.67835" lon="-1.47221">
        <ele>39.2</ele>
        <time>2020-06-15T08:48:21Z</time>
      </trkpt>
      <trkpt lat="49.67836" lon="-1.47214">
        <ele>39.2</ele>
        <time>2020-06-15T08:48:22Z</time>
      </trkpt>
      <trkpt lat="49.67838" lon="-1.47208">
        <ele>39.3</ele>
        <time>2020-06-15T08:48:23Z</time>
      </trkpt>
      <trkpt lat="49.6784" lon="-1.47202">
        <ele>39.3</ele>
        <time>2020-06-15T08:48:24Z</time>
      </trkpt>
      <trkpt lat="49.67841" lon="-1.47194">
        <ele>39.3</ele>
        <time>2020-06-15T08:48:25Z</time>
      </trkpt>
      <trkpt lat="49.67843" lon="-1.47187">
        <ele>39.4</ele>
        <time>2020-06-15T08:48:26Z</time>
      </trkpt>
      <trkpt lat="49.67844" lon="-1.4718">
        <ele>39.4</ele>
        <time>2020-06-15T08:48:27Z</time>
      </trkpt>
      <trkpt lat="49.67847" lon="-1.47172">
        <ele>39.5</ele>
        <time>2020-06-15T08:48:28Z</time>
      </trkpt>
      <trkpt lat="49.67849" lon="-1.47165">
        <ele>39.5</ele>
        <time>2020-06-15T08:48:29Z</time>
      </trkpt>
      <trkpt lat="49.67851" lon="-1.47158">
        <ele>39.6</ele>
        <time>2020-06-15T08:48:30Z</time>
      </trkpt>
      <trkpt lat="49.67853" lon="-1.47151">
        <ele>39.6</ele>
        <time>2020-06-15T08:48:31Z</time>
      </trkpt>
      <trkpt lat="49.67854" lon="-1.47144">
        <ele>39.7</ele>
        <time>2020-06-15T08:48:32Z</time>
      </trkpt>
      <trkpt lat="49.67854" lon="-1.47137">
        <ele>39.8</ele>
        <time>2020-06-15T08:48:33Z</time>
      </trkpt>
      <trkpt lat="49.67856" lon="-1.4713">
        <ele>39.8</ele>
        <time>2020-06-15T08:48:34Z</time>
      </trkpt>
      <trkpt lat="49.67858" lon="-1.47123">
        <ele>39.8</ele>
        <time>2020-06-15T08:48:35Z</time>
      </trkpt>
      <trkpt lat="49.6786" lon="-1.47116">
        <ele>39.9</ele>
        <time>2020-06-15T08:48:36Z</time>
      </trkpt>
      <trkpt lat="49.67861" lon="-1.47109">
        <ele>39.9</ele>
        <time>2020-06-15T08:48:37Z</time>
      </trkpt>
      <trkpt lat="49.67863" lon="-1.47102">
        <ele>40</ele>
        <time>2020-06-15T08:48:38Z</time>
      </trkpt>
      <trkpt lat="49.67865" lon="-1.47094">
        <ele>40</ele>
        <time>2020-06-15T08:48:39Z</time>
      </trkpt>
      <trkpt lat="49.67866" lon="-1.47086">
        <ele>40.1</ele>
        <time>2020-06-15T08:48:40Z</time>
      </trkpt>
      <trkpt lat="49.67868" lon="-1.47078">
        <ele>40.2</ele>
        <time>2020-06-15T08:48:41Z</time>
      </trkpt>
      <trkpt lat="49.6787" lon="-1.4707">
        <ele>40.2</ele>
        <time>2020-06-15T08:48:42Z</time>
      </trkpt>
      <trkpt lat="49.67872" lon="-1.47062">
        <ele>40.3</ele>
        <time>2020-06-15T08:48:43Z</time>
      </trkpt>
      <trkpt lat="49.67873" lon="-1.47054">
        <ele>40.4</ele>
        <time>2020-06-15T08:48:44Z</time>
      </trkpt>
      <trkpt lat="49.67875" lon="-1.47047">
        <ele>40.5</ele>
        <time>2020-06-15T08:48:45Z</time>
      </trkpt>
      <trkpt lat="49.67876" lon="-1.4704">
        <ele>40.6</ele>
        <time>2020-06-15T08:48:46Z</time>
      </trkpt>
      <trkpt lat="49.67879" lon="-1.47032">
        <ele>40.6</ele>
        <time>2020-06-15T08:48:47Z</time>
      </trkpt>
      <trkpt lat="49.67881" lon="-1.47025">
        <ele>40.7</ele>
        <time>2020-06-15T08:48:48Z</time>
      </trkpt>
      <trkpt lat="49.67883" lon="-1.47018">
        <ele>40.8</ele>
        <time>2020-06-15T08:48:49Z</time>
      </trkpt>
      <trkpt lat="49.67884" lon="-1.47011">
        <ele>40.9</ele>
        <time>2020-06-15T08:48:50Z</time>
      </trkpt>
      <trkpt lat="49.67886" lon="-1.47004">
        <ele>41</ele>
        <time>2020-06-15T08:48:51Z</time>
      </trkpt>
      <trkpt lat="49.67889" lon="-1.46997">
        <ele>41.1</ele>
        <time>2020-06-15T08:48:52Z</time>
      </trkpt>
      <trkpt lat="49.67891" lon="-1.46989">
        <ele>41.2</ele>
        <time>2020-06-15T08:48:53Z</time>
      </trkpt>
      <trkpt lat="49.67893" lon="-1.46981">
        <ele>41.4</ele>
        <time>2020-06-15T08:48:54Z</time>
      </trkpt>
      <trkpt lat="49.67895" lon="-1.46973">
        <ele>41.5</ele>
        <time>2020-06-15T08:48:55Z</time>
      </trkpt>
      <trkpt lat="49.67898" lon="-1.46965">
        <ele>41.6</ele>
        <time>2020-06-15T08:48:56Z</time>
      </trkpt>
      <trkpt lat="49.679" lon="-1.46957">
        <ele>41.8</ele>
        <time>2020-06-15T08:48:57Z</time>
      </trkpt>
      <trkpt lat="49.67901" lon="-1.4695">
        <ele>42</ele>
        <time>2020-06-15T08:48:58Z</time>
      </trkpt>
      <trkpt lat="49.67903" lon="-1.46943">
        <ele>42.1</ele>
        <time>2020-06-15T08:48:59Z</time>
      </trkpt>
      <trkpt lat="49.67904" lon="-1.46936">
        <ele>42.3</ele>
        <time>2020-06-15T08:49:00Z</time>
      </trkpt>
      <trkpt lat="49.67904" lon="-1.46929">
        <ele>42.5</ele>
        <time>2020-06-15T08:49:01Z</time>
      </trkpt>
      <trkpt lat="49.67908" lon="-1.46922">
        <ele>42.7</ele>
        <time>2020-06-15T08:49:02Z</time>
      </trkpt>
      <trkpt lat="49.6791" lon="-1.46915">
        <ele>42.9</ele>
        <time>2020-06-15T08:49:03Z</time>
      </trkpt>
      <trkpt lat="49.67912" lon="-1.46909">
        <ele>43.1</ele>
        <time>2020-06-15T08:49:04Z</time>
      </trkpt>
      <trkpt lat="49.67914" lon="-1.46903">
        <ele>43.3</ele>
        <time>2020-06-15T08:49:05Z</time>
      </trkpt>
      <trkpt lat="49.67915" lon="-1.46897">
        <ele>43.4</ele>
        <time>2020-06-15T08:49:06Z</time>
      </trkpt>
      <trkpt lat="49.67916" lon="-1.46891">
        <ele>43.6</ele>
        <time>2020-06-15T08:49:07Z</time>
      </trkpt>
      <trkpt lat="49.67919" lon="-1.46886">
        <ele>43.7</ele>
        <time>2020-06-15T08:49:08Z</time>
      </trkpt>
      <trkpt lat="49.67922" lon="-1.46881">
        <ele>43.9</ele>
        <time>2020-06-15T08:49:09Z</time>
      </trkpt>
      <trkpt lat="49.67925" lon="-1.46875">
        <ele>44.1</ele>
        <time>2020-06-15T08:49:10Z</time>
      </trkpt>
      <trkpt lat="49.67928" lon="-1.4687">
        <ele>44.2</ele>
        <time>2020-06-15T08:49:11Z</time>
      </trkpt>
      <trkpt lat="49.67931" lon="-1.46865">
        <ele>44.4</ele>
        <time>2020-06-15T08:49:12Z</time>
      </trkpt>
      <trkpt lat="49.67934" lon="-1.4686">
        <ele>44.5</ele>
        <time>2020-06-15T08:49:13Z</time>
      </trkpt>
      <trkpt lat="49.67937" lon="-1.46855">
        <ele>44.7</ele>
        <time>2020-06-15T08:49:14Z</time>
      </trkpt>
      <trkpt lat="49.6794" lon="-1.46851">
        <ele>44.8</ele>
        <time>2020-06-15T08:49:15Z</time>
      </trkpt>
      <trkpt lat="49.67944" lon="-1.46845">
        <ele>45</ele>
        <time>2020-06-15T08:49:16Z</time>
      </trkpt>
      <trkpt lat="49.67947" lon="-1.4684">
        <ele>45.2</ele>
        <time>2020-06-15T08:49:17Z</time>
      </trkpt>
      <trkpt lat="49.6795" lon="-1.46833">
        <ele>45.4</ele>
        <time>2020-06-15T08:49:18Z</time>
      </trkpt>
      <trkpt lat="49.67953" lon="-1.46827">
        <ele>45.5</ele>
        <time>2020-06-15T08:49:19Z</time>
      </trkpt>
      <trkpt lat="49.67956" lon="-1.46821">
        <ele>45.7</ele>
        <time>2020-06-15T08:49:20Z</time>
      </trkpt>
      <trkpt lat="49.67958" lon="-1.46815">
        <ele>45.9</ele>
        <time>2020-06-15T08:49:21Z</time>
      </trkpt>
      <trkpt lat="49.67961" lon="-1.4681">
        <ele>46.1</ele>
        <time>2020-06-15T08:49:22Z</time>
      </trkpt>
      <trkpt lat="49.67965" lon="-1.46804">
        <ele>46.2</ele>
        <time>2020-06-15T08:49:23Z</time>
      </trkpt>
      <trkpt lat="49.67967" lon="-1.46798">
        <ele>46.3</ele>
        <time>2020-06-15T08:49:24Z</time>
      </trkpt>
      <trkpt lat="49.6797" lon="-1.46793">
        <ele>46.5</ele>
        <time>2020-06-15T08:49:25Z</time>
      </trkpt>
      <trkpt lat="49.67973" lon="-1.46786">
        <ele>46.6</ele>
        <time>2020-06-15T08:49:26Z</time>
      </trkpt>
      <trkpt lat="49.67976" lon="-1.4678">
        <ele>46.7</ele>
        <time>2020-06-15T08:49:27Z</time>
      </trkpt>
      <trkpt lat="49.67979" lon="-1.46775">
        <ele>46.9</ele>
        <time>2020-06-15T08:49:28Z</time>
      </trkpt>
      <trkpt lat="49.67982" lon="-1.46769">
        <ele>47</ele>
        <time>2020-06-15T08:49:29Z</time>
      </trkpt>
      <trkpt lat="49.67985" lon="-1.46764">
        <ele>47.1</ele>
        <time>2020-06-15T08:49:30Z</time>
      </trkpt>
      <trkpt lat="49.67988" lon="-1.46757">
        <ele>47.2</ele>
        <time>2020-06-15T08:49:31Z</time>
      </trkpt>
      <trkpt lat="49.67991" lon="-1.46751">
        <ele>47.3</ele>
        <time>2020-06-15T08:49:32Z</time>
      </trkpt>
      <trkpt lat="49.67994" lon="-1.46743">
        <ele>47.4</ele>
        <time>2020-06-15T08:49:33Z</time>
      </trkpt>
      <trkpt lat="49.67997" lon="-1.46736">
        <ele>47.5</ele>
        <time>2020-06-15T08:49:34Z</time>
      </trkpt>
      <trkpt lat="49.68" lon="-1.46729">
        <ele>47.6</ele>
        <time>2020-06-15T08:49:35Z</time>
      </trkpt>
      <trkpt lat="49.68003" lon="-1.46722">
        <ele>47.6</ele>
        <time>2020-06-15T08:49:36Z</time>
      </trkpt>
      <trkpt lat="49.68005" lon="-1.46715">
        <ele>47.7</ele>
        <time>2020-06-15T08:49:37Z</time>
      </trkpt>
      <trkpt lat="49.68008" lon="-1.46708">
        <ele>47.8</ele>
        <time>2020-06-15T08:49:38Z</time>
      </trkpt>
      <trkpt lat="49.6801" lon="-1.46701">
        <ele>47.9</ele>
        <time>2020-06-15T08:49:39Z</time>
      </trkpt>
      <trkpt lat="49.68012" lon="-1.46694">
        <ele>47.9</ele>
        <time>2020-06-15T08:49:40Z</time>
      </trkpt>
      <trkpt lat="49.68013" lon="-1.46687">
        <ele>48</ele>
        <time>2020-06-15T08:49:41Z</time>
      </trkpt>
      <trkpt lat="49.68015" lon="-1.4668">
        <ele>48.1</ele>
        <time>2020-06-15T08:49:42Z</time>
      </trkpt>
      <trkpt lat="49.68017" lon="-1.46673">
        <ele>48.1</ele>
        <time>2020-06-15T08:49:43Z</time>
      </trkpt>
      <trkpt lat="49.68019" lon="-1.46666">
        <ele>48.2</ele>
        <time>2020-06-15T08:49:44Z</time>
      </trkpt>
      <trkpt lat="49.68021" lon="-1.46659">
        <ele>48.2</ele>
        <time>2020-06-15T08:49:45Z</time>
      </trkpt>
      <trkpt lat="49.68022" lon="-1.46651">
        <ele>48.2</ele>
        <time>2020-06-15T08:49:46Z</time>
      </trkpt>
      <trkpt lat="49.68023" lon="-1.46643">
        <ele>48.3</ele>
        <time>2020-06-15T08:49:47Z</time>
      </trkpt>
      <trkpt lat="49.68025" lon="-1.46635">
        <ele>48.4</ele>
        <time>2020-06-15T08:49:48Z</time>
      </trkpt>
      <trkpt lat="49.68026" lon="-1.46627">
        <ele>48.5</ele>
        <time>2020-06-15T08:49:49Z</time>
      </trkpt>
      <trkpt lat="49.68029" lon="-1.46619">
        <ele>48.5</ele>
        <time>2020-06-15T08:49:50Z</time>
      </trkpt>
      <trkpt lat="49.68029" lon="-1.4661">
        <ele>48.5</ele>
        <time>2020-06-15T08:49:51Z</time>
      </trkpt>
      <trkpt lat="49.68031" lon="-1.46602">
        <ele>48.5</ele>
        <time>2020-06-15T08:49:52Z</time>
      </trkpt>
      <trkpt lat="49.68031" lon="-1.46593">
        <ele>48.5</ele>
        <time>2020-06-15T08:49:53Z</time>
      </trkpt>
      <trkpt lat="49.68031" lon="-1.46584">
        <ele>48.5</ele>
        <time>2020-06-15T08:49:54Z</time>
      </trkpt>
      <trkpt lat="49.68031" lon="-1.46576">
        <ele>48.5</ele>
        <time>2020-06-15T08:49:55Z</time>
      </trkpt>
      <trkpt lat="49.68031" lon="-1.46566">
        <ele>48.4</ele>
        <time>2020-06-15T08:49:56Z</time>
      </trkpt>
      <trkpt lat="49.68031" lon="-1.46558">
        <ele>48.4</ele>
        <time>2020-06-15T08:49:57Z</time>
      </trkpt>
      <trkpt lat="49.68033" lon="-1.46549">
        <ele>48.4</ele>
        <time>2020-06-15T08:49:58Z</time>
      </trkpt>
      <trkpt lat="49.68034" lon="-1.4654">
        <ele>48.5</ele>
        <time>2020-06-15T08:49:59Z</time>
      </trkpt>
      <trkpt lat="49.68036" lon="-1.46531">
        <ele>48.5</ele>
        <time>2020-06-15T08:50:00Z</time>
      </trkpt>
      <trkpt lat="49.68036" lon="-1.46523">
        <ele>48.5</ele>
        <time>2020-06-15T08:50:01Z</time>
      </trkpt>
      <trkpt lat="49.68037" lon="-1.46514">
        <ele>48.5</ele>
        <time>2020-06-15T08:50:02Z</time>
      </trkpt>
      <trkpt lat="49.68038" lon="-1.46506">
        <ele>48.5</ele>
        <time>2020-06-15T08:50:03Z</time>
      </trkpt>
      <trkpt lat="49.68038" lon="-1.46498">
        <ele>48.6</ele>
        <time>2020-06-15T08:50:04Z</time>
      </trkpt>
      <trkpt lat="49.68038" lon="-1.46489">
        <ele>48.6</ele>
        <time>2020-06-15T08:50:05Z</time>
      </trkpt>
      <trkpt lat="49.6804" lon="-1.46481">
        <ele>48.6</ele>
        <time>2020-06-15T08:50:06Z</time>
      </trkpt>
      <trkpt lat="49.68041" lon="-1.46472">
        <ele>48.6</ele>
        <time>2020-06-15T08:50:07Z</time>
      </trkpt>
      <trkpt lat="49.68042" lon="-1.46464">
        <ele>48.7</ele>
        <time>2020-06-15T08:50:08Z</time>
      </trkpt>
      <trkpt lat="49.68044" lon="-1.46456">
        <ele>48.7</ele>
        <time>2020-06-15T08:50:09Z</time>
      </trkpt>
      <trkpt lat="49.68045" lon="-1.46448">
        <ele>48.8</ele>
        <time>2020-06-15T08:50:10Z</time>
      </trkpt>
      <trkpt lat="49.68046" lon="-1.4644">
        <ele>49</ele>
        <time>2020-06-15T08:50:11Z</time>
      </trkpt>
      <trkpt lat="49.68046" lon="-1.4643">
        <ele>49.1</ele>
        <time>2020-06-15T08:50:12Z</time>
      </trkpt>
      <trkpt lat="49.68047" lon="-1.46421">
        <ele>49.3</ele>
        <time>2020-06-15T08:50:13Z</time>
      </trkpt>
      <trkpt lat="49.68048" lon="-1.46411">
        <ele>49.5</ele>
        <time>2020-06-15T08:50:14Z</time>
      </trkpt>
      <trkpt lat="49.68049" lon="-1.46402">
        <ele>49.6</ele>
        <time>2020-06-15T08:50:15Z</time>
      </trkpt>
      <trkpt lat="49.6805" lon="-1.46393">
        <ele>49.7</ele>
        <time>2020-06-15T08:50:16Z</time>
      </trkpt>
      <trkpt lat="49.6805" lon="-1.46386">
        <ele>49.8</ele>
        <time>2020-06-15T08:50:17Z</time>
      </trkpt>
      <trkpt lat="49.68051" lon="-1.46378">
        <ele>50</ele>
        <time>2020-06-15T08:50:18Z</time>
      </trkpt>
      <trkpt lat="49.68052" lon="-1.4637">
        <ele>50.1</ele>
        <time>2020-06-15T08:50:19Z</time>
      </trkpt>
      <trkpt lat="49.68054" lon="-1.46363">
        <ele>50.3</ele>
        <time>2020-06-15T08:50:20Z</time>
      </trkpt>
      <trkpt lat="49.68054" lon="-1.46355">
        <ele>50.5</ele>
        <time>2020-06-15T08:50:21Z</time>
      </trkpt>
      <trkpt lat="49.68055" lon="-1.46347">
        <ele>50.7</ele>
        <time>2020-06-15T08:50:22Z</time>
      </trkpt>
      <trkpt lat="49.68056" lon="-1.46338">
        <ele>50.8</ele>
        <time>2020-06-15T08:50:23Z</time>
      </trkpt>
      <trkpt lat="49.68057" lon="-1.4633">
        <ele>51</ele>
        <time>2020-06-15T08:50:24Z</time>
      </trkpt>
      <trkpt lat="49.68058" lon="-1.46323">
        <ele>51.1</ele>
        <time>2020-06-15T08:50:25Z</time>
      </trkpt>
      <trkpt lat="49.68058" lon="-1.46316">
        <ele>51.2</ele>
        <time>2020-06-15T08:50:26Z</time>
      </trkpt>
      <trkpt lat="49.68059" lon="-1.46308">
        <ele>51.3</ele>
        <time>2020-06-15T08:50:27Z</time>
      </trkpt>
      <trkpt lat="49.6806" lon="-1.463">
        <ele>51.3</ele>
        <time>2020-06-15T08:50:28Z</time>
      </trkpt>
      <trkpt lat="49.68061" lon="-1.46293">
        <ele>51.4</ele>
        <time>2020-06-15T08:50:29Z</time>
      </trkpt>
      <trkpt lat="49.68061" lon="-1.46285">
        <ele>51.5</ele>
        <time>2020-06-15T08:50:30Z</time>
      </trkpt>
      <trkpt lat="49.68061" lon="-1.46278">
        <ele>51.5</ele>
        <time>2020-06-15T08:50:31Z</time>
      </trkpt>
      <trkpt lat="49.68062" lon="-1.4627">
        <ele>51.5</ele>
        <time>2020-06-15T08:50:32Z</time>
      </trkpt>
      <trkpt lat="49.68064" lon="-1.46262">
        <ele>51.5</ele>
        <time>2020-06-15T08:50:33Z</time>
      </trkpt>
      <trkpt lat="49.68065" lon="-1.46253">
        <ele>51.5</ele>
        <time>2020-06-15T08:50:34Z</time>
      </trkpt>
      <trkpt lat="49.68066" lon="-1.46245">
        <ele>51.6</ele>
        <time>2020-06-15T08:50:35Z</time>
      </trkpt>
      <trkpt lat="49.68065" lon="-1.46237">
        <ele>51.6</ele>
        <time>2020-06-15T08:50:36Z</time>
      </trkpt>
      <trkpt lat="49.68065" lon="-1.46228">
        <ele>51.6</ele>
        <time>2020-06-15T08:50:37Z</time>
      </trkpt>
      <trkpt lat="49.68065" lon="-1.46219">
        <ele>51.6</ele>
        <time>2020-06-15T08:50:38Z</time>
      </trkpt>
      <trkpt lat="49.68065" lon="-1.46209">
        <ele>51.5</ele>
        <time>2020-06-15T08:50:39Z</time>
      </trkpt>
      <trkpt lat="49.68066" lon="-1.46201">
        <ele>51.5</ele>
        <time>2020-06-15T08:50:40Z</time>
      </trkpt>
      <trkpt lat="49.68067" lon="-1.46193">
        <ele>51.5</ele>
        <time>2020-06-15T08:50:41Z</time>
      </trkpt>
      <trkpt lat="49.68069" lon="-1.46184">
        <ele>51.5</ele>
        <time>2020-06-15T08:50:42Z</time>
      </trkpt>
      <trkpt lat="49.68069" lon="-1.46175">
        <ele>51.4</ele>
        <time>2020-06-15T08:50:43Z</time>
      </trkpt>
      <trkpt lat="49.6807" lon="-1.46165">
        <ele>51.4</ele>
        <time>2020-06-15T08:50:44Z</time>
      </trkpt>
      <trkpt lat="49.6807" lon="-1.46156">
        <ele>51.3</ele>
        <time>2020-06-15T08:50:45Z</time>
      </trkpt>
      <trkpt lat="49.68071" lon="-1.46149">
        <ele>51.2</ele>
        <time>2020-06-15T08:50:46Z</time>
      </trkpt>
      <trkpt lat="49.68071" lon="-1.4614">
        <ele>51.1</ele>
        <time>2020-06-15T08:50:47Z</time>
      </trkpt>
      <trkpt lat="49.68072" lon="-1.46132">
        <ele>51</ele>
        <time>2020-06-15T08:50:48Z</time>
      </trkpt>
      <trkpt lat="49.68073" lon="-1.46123">
        <ele>50.9</ele>
        <time>2020-06-15T08:50:49Z</time>
      </trkpt>
      <trkpt lat="49.68074" lon="-1.46114">
        <ele>50.8</ele>
        <time>2020-06-15T08:50:50Z</time>
      </trkpt>
      <trkpt lat="49.68074" lon="-1.46105">
        <ele>50.6</ele>
        <time>2020-06-15T08:50:51Z</time>
      </trkpt>
      <trkpt lat="49.68075" lon="-1.46096">
        <ele>50.5</ele>
        <time>2020-06-15T08:50:52Z</time>
      </trkpt>
      <trkpt lat="49.68075" lon="-1.46087">
        <ele>50.4</ele>
        <time>2020-06-15T08:50:53Z</time>
      </trkpt>
      <trkpt lat="49.68075" lon="-1.46078">
        <ele>50.3</ele>
        <time>2020-06-15T08:50:54Z</time>
      </trkpt>
      <trkpt lat="49.68076" lon="-1.46069">
        <ele>50.2</ele>
        <time>2020-06-15T08:50:55Z</time>
      </trkpt>
      <trkpt lat="49.68076" lon="-1.4606">
        <ele>50.1</ele>
        <time>2020-06-15T08:50:56Z</time>
      </trkpt>
      <trkpt lat="49.68077" lon="-1.46049">
        <ele>50</ele>
        <time>2020-06-15T08:50:57Z</time>
      </trkpt>
      <trkpt lat="49.68078" lon="-1.46038">
        <ele>49.8</ele>
        <time>2020-06-15T08:50:58Z</time>
      </trkpt>
      <trkpt lat="49.68079" lon="-1.46027">
        <ele>49.6</ele>
        <time>2020-06-15T08:50:59Z</time>
      </trkpt>
      <trkpt lat="49.68079" lon="-1.46016">
        <ele>49.5</ele>
        <time>2020-06-15T08:51:00Z</time>
      </trkpt>
      <trkpt lat="49.6808" lon="-1.46005">
        <ele>49.3</ele>
        <time>2020-06-15T08:51:01Z</time>
      </trkpt>
      <trkpt lat="49.68081" lon="-1.45994">
        <ele>49.1</ele>
        <time>2020-06-15T08:51:02Z</time>
      </trkpt>
      <trkpt lat="49.68083" lon="-1.45985">
        <ele>49</ele>
        <time>2020-06-15T08:51:03Z</time>
      </trkpt>
      <trkpt lat="49.68084" lon="-1.45974">
        <ele>48.9</ele>
        <time>2020-06-15T08:51:04Z</time>
      </trkpt>
      <trkpt lat="49.68085" lon="-1.45964">
        <ele>48.8</ele>
        <time>2020-06-15T08:51:05Z</time>
      </trkpt>
      <trkpt lat="49.68086" lon="-1.45952">
        <ele>48.8</ele>
        <time>2020-06-15T08:51:06Z</time>
      </trkpt>
      <trkpt lat="49.68087" lon="-1.45942">
        <ele>48.7</ele>
        <time>2020-06-15T08:51:07Z</time>
      </trkpt>
      <trkpt lat="49.68088" lon="-1.45931">
        <ele>48.7</ele>
        <time>2020-06-15T08:51:08Z</time>
      </trkpt>
      <trkpt lat="49.68088" lon="-1.45922">
        <ele>48.7</ele>
        <time>2020-06-15T08:51:09Z</time>
      </trkpt>
      <trkpt lat="49.68089" lon="-1.45912">
        <ele>48.7</ele>
        <time>2020-06-15T08:51:10Z</time>
      </trkpt>
      <trkpt lat="49.6809" lon="-1.45901">
        <ele>48.8</ele>
        <time>2020-06-15T08:51:11Z</time>
      </trkpt>
      <trkpt lat="49.6809" lon="-1.45892">
        <ele>48.8</ele>
        <time>2020-06-15T08:51:12Z</time>
      </trkpt>
      <trkpt lat="49.6809" lon="-1.45882">
        <ele>48.9</ele>
        <time>2020-06-15T08:51:13Z</time>
      </trkpt>
      <trkpt lat="49.6809" lon="-1.45872">
        <ele>48.9</ele>
        <time>2020-06-15T08:51:14Z</time>
      </trkpt>
      <trkpt lat="49.68091" lon="-1.45863">
        <ele>49</ele>
        <time>2020-06-15T08:51:15Z</time>
      </trkpt>
      <trkpt lat="49.68092" lon="-1.45853">
        <ele>49</ele>
        <time>2020-06-15T08:51:16Z</time>
      </trkpt>
      <trkpt lat="49.68093" lon="-1.45844">
        <ele>49.1</ele>
        <time>2020-06-15T08:51:17Z</time>
      </trkpt>
      <trkpt lat="49.68094" lon="-1.45834">
        <ele>49.1</ele>
        <time>2020-06-15T08:51:18Z</time>
      </trkpt>
      <trkpt lat="49.68095" lon="-1.45825">
        <ele>49.2</ele>
        <time>2020-06-15T08:51:19Z</time>
      </trkpt>
      <trkpt lat="49.68096" lon="-1.45816">
        <ele>49.2</ele>
        <time>2020-06-15T08:51:20Z</time>
      </trkpt>
      <trkpt lat="49.68097" lon="-1.45807">
        <ele>49.2</ele>
        <time>2020-06-15T08:51:21Z</time>
      </trkpt>
      <trkpt lat="49.68098" lon="-1.45798">
        <ele>49.2</ele>
        <time>2020-06-15T08:51:22Z</time>
      </trkpt>
      <trkpt lat="49.68099" lon="-1.45789">
        <ele>49.2</ele>
        <time>2020-06-15T08:51:23Z</time>
      </trkpt>
      <trkpt lat="49.681" lon="-1.45781">
        <ele>49.2</ele>
        <time>2020-06-15T08:51:24Z</time>
      </trkpt>
      <trkpt lat="49.68101" lon="-1.45772">
        <ele>49.2</ele>
        <time>2020-06-15T08:51:25Z</time>
      </trkpt>
      <trkpt lat="49.68102" lon="-1.45764">
        <ele>49.2</ele>
        <time>2020-06-15T08:51:26Z</time>
      </trkpt>
      <trkpt lat="49.68103" lon="-1.45756">
        <ele>49.2</ele>
        <time>2020-06-15T08:51:27Z</time>
      </trkpt>
      <trkpt lat="49.68104" lon="-1.45747">
        <ele>49.2</ele>
        <time>2020-06-15T08:51:28Z</time>
      </trkpt>
      <trkpt lat="49.68104" lon="-1.45738">
        <ele>49.2</ele>
        <time>2020-06-15T08:51:29Z</time>
      </trkpt>
      <trkpt lat="49.68105" lon="-1.4573">
        <ele>49.2</ele>
        <time>2020-06-15T08:51:30Z</time>
      </trkpt>
      <trkpt lat="49.68105" lon="-1.45721">
        <ele>49.2</ele>
        <time>2020-06-15T08:51:31Z</time>
      </trkpt>
      <trkpt lat="49.68106" lon="-1.45713">
        <ele>49.2</ele>
        <time>2020-06-15T08:51:32Z</time>
      </trkpt>
      <trkpt lat="49.68107" lon="-1.45705">
        <ele>49.2</ele>
        <time>2020-06-15T08:51:33Z</time>
      </trkpt>
      <trkpt lat="49.68107" lon="-1.45696">
        <ele>49.2</ele>
        <time>2020-06-15T08:51:34Z</time>
      </trkpt>
      <trkpt lat="49.68108" lon="-1.45688">
        <ele>49.2</ele>
        <time>2020-06-15T08:51:35Z</time>
      </trkpt>
      <trkpt lat="49.6811" lon="-1.4568">
        <ele>49.1</ele>
        <time>2020-06-15T08:51:36Z</time>
      </trkpt>
      <trkpt lat="49.68112" lon="-1.45672">
        <ele>49.1</ele>
        <time>2020-06-15T08:51:37Z</time>
      </trkpt>
      <trkpt lat="49.68114" lon="-1.45665">
        <ele>49.1</ele>
        <time>2020-06-15T08:51:38Z</time>
      </trkpt>
      <trkpt lat="49.68115" lon="-1.45656">
        <ele>49.1</ele>
        <time>2020-06-15T08:51:39Z</time>
      </trkpt>
      <trkpt lat="49.68116" lon="-1.45648">
        <ele>49.1</ele>
        <time>2020-06-15T08:51:40Z</time>
      </trkpt>
      <trkpt lat="49.68119" lon="-1.4564">
        <ele>49</ele>
        <time>2020-06-15T08:51:41Z</time>
      </trkpt>
      <trkpt lat="49.68121" lon="-1.45632">
        <ele>48.9</ele>
        <time>2020-06-15T08:51:42Z</time>
      </trkpt>
      <trkpt lat="49.68124" lon="-1.45625">
        <ele>48.8</ele>
        <time>2020-06-15T08:51:43Z</time>
      </trkpt>
      <trkpt lat="49.68128" lon="-1.45618">
        <ele>48.7</ele>
        <time>2020-06-15T08:51:44Z</time>
      </trkpt>
      <trkpt lat="49.68131" lon="-1.45611">
        <ele>48.5</ele>
        <time>2020-06-15T08:51:45Z</time>
      </trkpt>
      <trkpt lat="49.68135" lon="-1.45603">
        <ele>48.4</ele>
        <time>2020-06-15T08:51:46Z</time>
      </trkpt>
      <trkpt lat="49.6814" lon="-1.45596">
        <ele>48.2</ele>
        <time>2020-06-15T08:51:47Z</time>
      </trkpt>
      <trkpt lat="49.68144" lon="-1.45589">
        <ele>48.1</ele>
        <time>2020-06-15T08:51:48Z</time>
      </trkpt>
      <trkpt lat="49.68149" lon="-1.45582">
        <ele>47.9</ele>
        <time>2020-06-15T08:51:49Z</time>
      </trkpt>
      <trkpt lat="49.68153" lon="-1.45574">
        <ele>47.8</ele>
        <time>2020-06-15T08:51:50Z</time>
      </trkpt>
      <trkpt lat="49.68158" lon="-1.45567">
        <ele>47.6</ele>
        <time>2020-06-15T08:51:51Z</time>
      </trkpt>
      <trkpt lat="49.68163" lon="-1.4556">
        <ele>47.4</ele>
        <time>2020-06-15T08:51:52Z</time>
      </trkpt>
      <trkpt lat="49.68168" lon="-1.45553">
        <ele>47.2</ele>
        <time>2020-06-15T08:51:53Z</time>
      </trkpt>
      <trkpt lat="49.68172" lon="-1.45547">
        <ele>47</ele>
        <time>2020-06-15T08:51:54Z</time>
      </trkpt>
      <trkpt lat="49.68178" lon="-1.45541">
        <ele>46.8</ele>
        <time>2020-06-15T08:51:55Z</time>
      </trkpt>
      <trkpt lat="49.68183" lon="-1.45535">
        <ele>46.5</ele>
        <time>2020-06-15T08:51:56Z</time>
      </trkpt>
      <trkpt lat="49.68189" lon="-1.4553">
        <ele>46.2</ele>
        <time>2020-06-15T08:51:57Z</time>
      </trkpt>
      <trkpt lat="49.68196" lon="-1.45524">
        <ele>46</ele>
        <time>2020-06-15T08:51:58Z</time>
      </trkpt>
      <trkpt lat="49.68202" lon="-1.45519">
        <ele>45.7</ele>
        <time>2020-06-15T08:51:59Z</time>
      </trkpt>
      <trkpt lat="49.68208" lon="-1.45514">
        <ele>45.5</ele>
        <time>2020-06-15T08:52:00Z</time>
      </trkpt>
      <trkpt lat="49.68215" lon="-1.45508">
        <ele>45.3</ele>
        <time>2020-06-15T08:52:01Z</time>
      </trkpt>
      <trkpt lat="49.68221" lon="-1.45503">
        <ele>45</ele>
        <time>2020-06-15T08:52:02Z</time>
      </trkpt>
      <trkpt lat="49.68227" lon="-1.45498">
        <ele>44.8</ele>
        <time>2020-06-15T08:52:03Z</time>
      </trkpt>
      <trkpt lat="49.68234" lon="-1.45492">
        <ele>44.6</ele>
        <time>2020-06-15T08:52:04Z</time>
      </trkpt>
      <trkpt lat="49.6824" lon="-1.45486">
        <ele>44.4</ele>
        <time>2020-06-15T08:52:05Z</time>
      </trkpt>
      <trkpt lat="49.68246" lon="-1.45481">
        <ele>44.2</ele>
        <time>2020-06-15T08:52:06Z</time>
      </trkpt>
      <trkpt lat="49.68252" lon="-1.45475">
        <ele>44</ele>
        <time>2020-06-15T08:52:07Z</time>
      </trkpt>
      <trkpt lat="49.68258" lon="-1.45469">
        <ele>43.9</ele>
        <time>2020-06-15T08:52:08Z</time>
      </trkpt>
      <trkpt lat="49.68264" lon="-1.45464">
        <ele>43.8</ele>
        <time>2020-06-15T08:52:09Z</time>
      </trkpt>
      <trkpt lat="49.6827" lon="-1.45459">
        <ele>43.7</ele>
        <time>2020-06-15T08:52:10Z</time>
      </trkpt>
      <trkpt lat="49.68277" lon="-1.45456">
        <ele>43.4</ele>
        <time>2020-06-15T08:52:11Z</time>
      </trkpt>
      <trkpt lat="49.68283" lon="-1.45452">
        <ele>43.3</ele>
        <time>2020-06-15T08:52:12Z</time>
      </trkpt>
      <trkpt lat="49.6829" lon="-1.4545">
        <ele>43.2</ele>
        <time>2020-06-15T08:52:13Z</time>
      </trkpt>
      <trkpt lat="49.68296" lon="-1.45448">
        <ele>43.1</ele>
        <time>2020-06-15T08:52:14Z</time>
      </trkpt>
      <trkpt lat="49.68303" lon="-1.45446">
        <ele>43.1</ele>
        <time>2020-06-15T08:52:15Z</time>
      </trkpt>
      <trkpt lat="49.68309" lon="-1.45444">
        <ele>43</ele>
        <time>2020-06-15T08:52:16Z</time>
      </trkpt>
      <trkpt lat="49.68316" lon="-1.45442">
        <ele>43</ele>
        <time>2020-06-15T08:52:17Z</time>
      </trkpt>
      <trkpt lat="49.68323" lon="-1.4544">
        <ele>42.9</ele>
        <time>2020-06-15T08:52:18Z</time>
      </trkpt>
      <trkpt lat="49.6833" lon="-1.45437">
        <ele>42.9</ele>
        <time>2020-06-15T08:52:19Z</time>
      </trkpt>
      <trkpt lat="49.68337" lon="-1.45435">
        <ele>42.9</ele>
        <time>2020-06-15T08:52:20Z</time>
      </trkpt>
      <trkpt lat="49.68344" lon="-1.45433">
        <ele>42.8</ele>
        <time>2020-06-15T08:52:21Z</time>
      </trkpt>
      <trkpt lat="49.6835" lon="-1.45429">
        <ele>42.8</ele>
        <time>2020-06-15T08:52:22Z</time>
      </trkpt>
      <trkpt lat="49.68357" lon="-1.45426">
        <ele>42.7</ele>
        <time>2020-06-15T08:52:23Z</time>
      </trkpt>
      <trkpt lat="49.68363" lon="-1.45422">
        <ele>42.7</ele>
        <time>2020-06-15T08:52:24Z</time>
      </trkpt>
      <trkpt lat="49.68369" lon="-1.45419">
        <ele>42.6</ele>
        <time>2020-06-15T08:52:25Z</time>
      </trkpt>
      <trkpt lat="49.68375" lon="-1.45413">
        <ele>42.5</ele>
        <time>2020-06-15T08:52:26Z</time>
      </trkpt>
      <trkpt lat="49.68382" lon="-1.45407">
        <ele>42.5</ele>
        <time>2020-06-15T08:52:27Z</time>
      </trkpt>
      <trkpt lat="49.68387" lon="-1.454">
        <ele>42.4</ele>
        <time>2020-06-15T08:52:28Z</time>
      </trkpt>
      <trkpt lat="49.68393" lon="-1.45393">
        <ele>42.3</ele>
        <time>2020-06-15T08:52:29Z</time>
      </trkpt>
      <trkpt lat="49.68398" lon="-1.45385">
        <ele>42.3</ele>
        <time>2020-06-15T08:52:30Z</time>
      </trkpt>
      <trkpt lat="49.68403" lon="-1.45377">
        <ele>42.2</ele>
        <time>2020-06-15T08:52:31Z</time>
      </trkpt>
      <trkpt lat="49.68408" lon="-1.45369">
        <ele>42.2</ele>
        <time>2020-06-15T08:52:32Z</time>
      </trkpt>
      <trkpt lat="49.68412" lon="-1.45361">
        <ele>42.1</ele>
        <time>2020-06-15T08:52:33Z</time>
      </trkpt>
      <trkpt lat="49.68417" lon="-1.45352">
        <ele>42.1</ele>
        <time>2020-06-15T08:52:34Z</time>
      </trkpt>
      <trkpt lat="49.6842" lon="-1.45343">
        <ele>42.1</ele>
        <time>2020-06-15T08:52:35Z</time>
      </trkpt>
      <trkpt lat="49.68423" lon="-1.45334">
        <ele>42.1</ele>
        <time>2020-06-15T08:52:36Z</time>
      </trkpt>
      <trkpt lat="49.68426" lon="-1.45325">
        <ele>42.1</ele>
        <time>2020-06-15T08:52:37Z</time>
      </trkpt>
      <trkpt lat="49.68429" lon="-1.45316">
        <ele>42.1</ele>
        <time>2020-06-15T08:52:38Z</time>
      </trkpt>
      <trkpt lat="49.68431" lon="-1.45308">
        <ele>42</ele>
        <time>2020-06-15T08:52:39Z</time>
      </trkpt>
      <trkpt lat="49.68434" lon="-1.45299">
        <ele>42</ele>
        <time>2020-06-15T08:52:40Z</time>
      </trkpt>
      <trkpt lat="49.68436" lon="-1.45291">
        <ele>41.9</ele>
        <time>2020-06-15T08:52:41Z</time>
      </trkpt>
      <trkpt lat="49.68437" lon="-1.45282">
        <ele>41.7</ele>
        <time>2020-06-15T08:52:42Z</time>
      </trkpt>
      <trkpt lat="49.68439" lon="-1.45274">
        <ele>41.6</ele>
        <time>2020-06-15T08:52:43Z</time>
      </trkpt>
      <trkpt lat="49.6844" lon="-1.45266">
        <ele>41.4</ele>
        <time>2020-06-15T08:52:44Z</time>
      </trkpt>
      <trkpt lat="49.68442" lon="-1.45257">
        <ele>41.2</ele>
        <time>2020-06-15T08:52:45Z</time>
      </trkpt>
      <trkpt lat="49.68443" lon="-1.45248">
        <ele>40.9</ele>
        <time>2020-06-15T08:52:46Z</time>
      </trkpt>
      <trkpt lat="49.68444" lon="-1.45238">
        <ele>40.5</ele>
        <time>2020-06-15T08:52:47Z</time>
      </trkpt>
      <trkpt lat="49.68443" lon="-1.45227">
        <ele>40.1</ele>
        <time>2020-06-15T08:52:48Z</time>
      </trkpt>
      <trkpt lat="49.68444" lon="-1.45217">
        <ele>39.6</ele>
        <time>2020-06-15T08:52:49Z</time>
      </trkpt>
      <trkpt lat="49.68444" lon="-1.45205">
        <ele>39.1</ele>
        <time>2020-06-15T08:52:50Z</time>
      </trkpt>
      <trkpt lat="49.68445" lon="-1.45194">
        <ele>38.4</ele>
        <time>2020-06-15T08:52:51Z</time>
      </trkpt>
      <trkpt lat="49.68446" lon="-1.45184">
        <ele>37.7</ele>
        <time>2020-06-15T08:52:52Z</time>
      </trkpt>
      <trkpt lat="49.68447" lon="-1.45173">
        <ele>36.9</ele>
        <time>2020-06-15T08:52:53Z</time>
      </trkpt>
      <trkpt lat="49.68448" lon="-1.45161">
        <ele>36.1</ele>
        <time>2020-06-15T08:52:54Z</time>
      </trkpt>
      <trkpt lat="49.68449" lon="-1.45149">
        <ele>35.2</ele>
        <time>2020-06-15T08:52:55Z</time>
      </trkpt>
      <trkpt lat="49.68448" lon="-1.45136">
        <ele>34.1</ele>
        <time>2020-06-15T08:52:56Z</time>
      </trkpt>
      <trkpt lat="49.68447" lon="-1.45121">
        <ele>33</ele>
        <time>2020-06-15T08:52:57Z</time>
      </trkpt>
      <trkpt lat="49.68447" lon="-1.45107">
        <ele>31.9</ele>
        <time>2020-06-15T08:52:58Z</time>
      </trkpt>
      <trkpt lat="49.68446" lon="-1.45091">
        <ele>30.7</ele>
        <time>2020-06-15T08:52:59Z</time>
      </trkpt>
      <trkpt lat="49.68446" lon="-1.45075">
        <ele>29.5</ele>
        <time>2020-06-15T08:53:00Z</time>
      </trkpt>
      <trkpt lat="49.68446" lon="-1.45059">
        <ele>28.4</ele>
        <time>2020-06-15T08:53:01Z</time>
      </trkpt>
      <trkpt lat="49.68446" lon="-1.45042">
        <ele>27.3</ele>
        <time>2020-06-15T08:53:02Z</time>
      </trkpt>
      <trkpt lat="49.68445" lon="-1.45026">
        <ele>26.2</ele>
        <time>2020-06-15T08:53:03Z</time>
      </trkpt>
      <trkpt lat="49.68444" lon="-1.4501">
        <ele>25</ele>
        <time>2020-06-15T08:53:04Z</time>
      </trkpt>
      <trkpt lat="49.6844" lon="-1.44995">
        <ele>23.9</ele>
        <time>2020-06-15T08:53:05Z</time>
      </trkpt>
      <trkpt lat="49.68434" lon="-1.44982">
        <ele>22.8</ele>
        <time>2020-06-15T08:53:06Z</time>
      </trkpt>
      <trkpt lat="49.68426" lon="-1.4497">
        <ele>21.8</ele>
        <time>2020-06-15T08:53:07Z</time>
      </trkpt>
      <trkpt lat="49.68418" lon="-1.4496">
        <ele>20.8</ele>
        <time>2020-06-15T08:53:08Z</time>
      </trkpt>
      <trkpt lat="49.68409" lon="-1.44952">
        <ele>19.9</ele>
        <time>2020-06-15T08:53:09Z</time>
      </trkpt>
      <trkpt lat="49.68399" lon="-1.44943">
        <ele>19</ele>
        <time>2020-06-15T08:53:10Z</time>
      </trkpt>
      <trkpt lat="49.68389" lon="-1.44936">
        <ele>18</ele>
        <time>2020-06-15T08:53:11Z</time>
      </trkpt>
      <trkpt lat="49.68379" lon="-1.44929">
        <ele>17</ele>
        <time>2020-06-15T08:53:12Z</time>
      </trkpt>
      <trkpt lat="49.6837" lon="-1.44922">
        <ele>16</ele>
        <time>2020-06-15T08:53:13Z</time>
      </trkpt>
      <trkpt lat="49.68361" lon="-1.44912">
        <ele>14.9</ele>
        <time>2020-06-15T08:53:14Z</time>
      </trkpt>
      <trkpt lat="49.68352" lon="-1.44902">
        <ele>13.7</ele>
        <time>2020-06-15T08:53:15Z</time>
      </trkpt>
      <trkpt lat="49.68344" lon="-1.44889">
        <ele>12.3</ele>
        <time>2020-06-15T08:53:16Z</time>
      </trkpt>
      <trkpt lat="49.68337" lon="-1.44875">
        <ele>11</ele>
        <time>2020-06-15T08:53:17Z</time>
      </trkpt>
      <trkpt lat="49.68328" lon="-1.44862">
        <ele>9.8</ele>
        <time>2020-06-15T08:53:18Z</time>
      </trkpt>
      <trkpt lat="49.68321" lon="-1.44849">
        <ele>8.8</ele>
        <time>2020-06-15T08:53:19Z</time>
      </trkpt>
      <trkpt lat="49.68313" lon="-1.44835">
        <ele>7.8</ele>
        <time>2020-06-15T08:53:20Z</time>
      </trkpt>
      <trkpt lat="49.68308" lon="-1.4482">
        <ele>7.1</ele>
        <time>2020-06-15T08:53:21Z</time>
      </trkpt>
      <trkpt lat="49.683" lon="-1.44807">
        <ele>6.4</ele>
        <time>2020-06-15T08:53:22Z</time>
      </trkpt>
      <trkpt lat="49.68294" lon="-1.44793">
        <ele>5.9</ele>
        <time>2020-06-15T08:53:23Z</time>
      </trkpt>
      <trkpt lat="49.68288" lon="-1.44779">
        <ele>5.4</ele>
        <time>2020-06-15T08:53:24Z</time>
      </trkpt>
      <trkpt lat="49.68282" lon="-1.44765">
        <ele>5</ele>
        <time>2020-06-15T08:53:25Z</time>
      </trkpt>
      <trkpt lat="49.68279" lon="-1.4475">
        <ele>4.8</ele>
        <time>2020-06-15T08:53:26Z</time>
      </trkpt>
      <trkpt lat="49.68277" lon="-1.44736">
        <ele>4.8</ele>
        <time>2020-06-15T08:53:27Z</time>
      </trkpt>
      <trkpt lat="49.68275" lon="-1.44723">
        <ele>4.9</ele>
        <time>2020-06-15T08:53:28Z</time>
      </trkpt>
      <trkpt lat="49.68275" lon="-1.4471">
        <ele>5.1</ele>
        <time>2020-06-15T08:53:29Z</time>
      </trkpt>
      <trkpt lat="49.68276" lon="-1.44698">
        <ele>5.3</ele>
        <time>2020-06-15T08:53:30Z</time>
      </trkpt>
      <trkpt lat="49.68278" lon="-1.44687">
        <ele>5.4</ele>
        <time>2020-06-15T08:53:31Z</time>
      </trkpt>
      <trkpt lat="49.68281" lon="-1.44678">
        <ele>5.6</ele>
        <time>2020-06-15T08:53:32Z</time>
      </trkpt>
      <trkpt lat="49.68284" lon="-1.44669">
        <ele>5.7</ele>
        <time>2020-06-15T08:53:33Z</time>
      </trkpt>
      <trkpt lat="49.68289" lon="-1.44661">
        <ele>5.9</ele>
        <time>2020-06-15T08:53:34Z</time>
      </trkpt>
      <trkpt lat="49.68292" lon="-1.44653">
        <ele>6.1</ele>
        <time>2020-06-15T08:53:35Z</time>
      </trkpt>
      <trkpt lat="49.68296" lon="-1.44645">
        <ele>6.4</ele>
        <time>2020-06-15T08:53:36Z</time>
      </trkpt>
      <trkpt lat="49.683" lon="-1.44638">
        <ele>6.7</ele>
        <time>2020-06-15T08:53:37Z</time>
      </trkpt>
      <trkpt lat="49.68303" lon="-1.44631">
        <ele>7.1</ele>
        <time>2020-06-15T08:53:38Z</time>
      </trkpt>
      <trkpt lat="49.68307" lon="-1.44624">
        <ele>7.5</ele>
        <time>2020-06-15T08:53:39Z</time>
      </trkpt>
      <trkpt lat="49.68311" lon="-1.44618">
        <ele>7.9</ele>
        <time>2020-06-15T08:53:40Z</time>
      </trkpt>
      <trkpt lat="49.68315" lon="-1.44612">
        <ele>8.3</ele>
        <time>2020-06-15T08:53:41Z</time>
      </trkpt>
      <trkpt lat="49.68318" lon="-1.44606">
        <ele>8.7</ele>
        <time>2020-06-15T08:53:42Z</time>
      </trkpt>
      <trkpt lat="49.68321" lon="-1.446">
        <ele>9.1</ele>
        <time>2020-06-15T08:53:43Z</time>
      </trkpt>
      <trkpt lat="49.68324" lon="-1.44595">
        <ele>9.5</ele>
        <time>2020-06-15T08:53:44Z</time>
      </trkpt>
      <trkpt lat="49.68327" lon="-1.4459">
        <ele>9.9</ele>
        <time>2020-06-15T08:53:45Z</time>
      </trkpt>
      <trkpt lat="49.68329" lon="-1.44585">
        <ele>10.3</ele>
        <time>2020-06-15T08:53:46Z</time>
      </trkpt>
      <trkpt lat="49.68332" lon="-1.4458">
        <ele>10.6</ele>
        <time>2020-06-15T08:53:47Z</time>
      </trkpt>
      <trkpt lat="49.68334" lon="-1.44575">
        <ele>11</ele>
        <time>2020-06-15T08:53:48Z</time>
      </trkpt>
      <trkpt lat="49.68336" lon="-1.4457">
        <ele>11.4</ele>
        <time>2020-06-15T08:53:49Z</time>
      </trkpt>
      <trkpt lat="49.68339" lon="-1.44565">
        <ele>11.8</ele>
        <time>2020-06-15T08:53:50Z</time>
      </trkpt>
      <trkpt lat="49.68341" lon="-1.44561">
        <ele>12.1</ele>
        <time>2020-06-15T08:53:51Z</time>
      </trkpt>
      <trkpt lat="49.68344" lon="-1.44557">
        <ele>12.5</ele>
        <time>2020-06-15T08:53:52Z</time>
      </trkpt>
      <trkpt lat="49.68346" lon="-1.44552">
        <ele>12.8</ele>
        <time>2020-06-15T08:53:53Z</time>
      </trkpt>
      <trkpt lat="49.68348" lon="-1.44548">
        <ele>13.2</ele>
        <time>2020-06-15T08:53:54Z</time>
      </trkpt>
      <trkpt lat="49.6835" lon="-1.44544">
        <ele>13.5</ele>
        <time>2020-06-15T08:53:55Z</time>
      </trkpt>
      <trkpt lat="49.68353" lon="-1.44541">
        <ele>13.8</ele>
        <time>2020-06-15T08:53:56Z</time>
      </trkpt>
      <trkpt lat="49.68354" lon="-1.44536">
        <ele>14.1</ele>
        <time>2020-06-15T08:53:57Z</time>
      </trkpt>
      <trkpt lat="49.68357" lon="-1.44531">
        <ele>14.5</ele>
        <time>2020-06-15T08:53:58Z</time>
      </trkpt>
      <trkpt lat="49.68359" lon="-1.44527">
        <ele>14.8</ele>
        <time>2020-06-15T08:53:59Z</time>
      </trkpt>
      <trkpt lat="49.68362" lon="-1.44524">
        <ele>15.1</ele>
        <time>2020-06-15T08:54:00Z</time>
      </trkpt>
      <trkpt lat="49.68363" lon="-1.44523">
        <ele>15.2</ele>
        <time>2020-06-15T08:54:01Z</time>
      </trkpt>
      <trkpt lat="49.68366" lon="-1.44518">
        <ele>15.5</ele>
        <time>2020-06-15T08:54:02Z</time>
      </trkpt>
      <trkpt lat="49.68367" lon="-1.44516">
        <ele>15.7</ele>
        <time>2020-06-15T08:54:03Z</time>
      </trkpt>
      <trkpt lat="49.6837" lon="-1.44511">
        <ele>16.1</ele>
        <time>2020-06-15T08:54:04Z</time>
      </trkpt>
      <trkpt lat="49.68371" lon="-1.44508">
        <ele>16.3</ele>
        <time>2020-06-15T08:54:05Z</time>
      </trkpt>
      <trkpt lat="49.68375" lon="-1.44503">
        <ele>16.6</ele>
        <time>2020-06-15T08:54:06Z</time>
      </trkpt>
      <trkpt lat="49.68377" lon="-1.44499">
        <ele>16.9</ele>
        <time>2020-06-15T08:54:07Z</time>
      </trkpt>
      <trkpt lat="49.6838" lon="-1.44495">
        <ele>17.3</ele>
        <time>2020-06-15T08:54:08Z</time>
      </trkpt>
      <trkpt lat="49.68382" lon="-1.44491">
        <ele>17.6</ele>
        <time>2020-06-15T08:54:09Z</time>
      </trkpt>
      <trkpt lat="49.68385" lon="-1.44488">
        <ele>17.8</ele>
        <time>2020-06-15T08:54:10Z</time>
      </trkpt>
      <trkpt lat="49.68387" lon="-1.44484">
        <ele>18.1</ele>
        <time>2020-06-15T08:54:11Z</time>
      </trkpt>
      <trkpt lat="49.6839" lon="-1.44481">
        <ele>18.4</ele>
        <time>2020-06-15T08:54:12Z</time>
      </trkpt>
      <trkpt lat="49.68392" lon="-1.44478">
        <ele>18.6</ele>
        <time>2020-06-15T08:54:13Z</time>
      </trkpt>
      <trkpt lat="49.68395" lon="-1.44473">
        <ele>18.9</ele>
        <time>2020-06-15T08:54:14Z</time>
      </trkpt>
      <trkpt lat="49.68398" lon="-1.44469">
        <ele>19.2</ele>
        <time>2020-06-15T08:54:15Z</time>
      </trkpt>
      <trkpt lat="49.68401" lon="-1.44465">
        <ele>19.5</ele>
        <time>2020-06-15T08:54:16Z</time>
      </trkpt>
      <trkpt lat="49.68403" lon="-1.44461">
        <ele>19.7</ele>
        <time>2020-06-15T08:54:17Z</time>
      </trkpt>
      <trkpt lat="49.68406" lon="-1.44457">
        <ele>19.9</ele>
        <time>2020-06-15T08:54:18Z</time>
      </trkpt>
      <trkpt lat="49.6841" lon="-1.44452">
        <ele>20.3</ele>
        <time>2020-06-15T08:54:19Z</time>
      </trkpt>
      <trkpt lat="49.68413" lon="-1.44451">
        <ele>20.4</ele>
        <time>2020-06-15T08:54:20Z</time>
      </trkpt>
      <trkpt lat="49.68415" lon="-1.44451">
        <ele>20.5</ele>
        <time>2020-06-15T08:54:21Z</time>
      </trkpt>
      <trkpt lat="49.68418" lon="-1.44446">
        <ele>20.8</ele>
        <time>2020-06-15T08:54:22Z</time>
      </trkpt>
      <trkpt lat="49.6842" lon="-1.44443">
        <ele>21</ele>
        <time>2020-06-15T08:54:23Z</time>
      </trkpt>
      <trkpt lat="49.68423" lon="-1.4444">
        <ele>21.2</ele>
        <time>2020-06-15T08:54:24Z</time>
      </trkpt>
      <trkpt lat="49.68425" lon="-1.44437">
        <ele>21.4</ele>
        <time>2020-06-15T08:54:25Z</time>
      </trkpt>
      <trkpt lat="49.68426" lon="-1.44436">
        <ele>21.5</ele>
        <time>2020-06-15T08:54:26Z</time>
      </trkpt>
      <trkpt lat="49.6843" lon="-1.44432">
        <ele>21.8</ele>
        <time>2020-06-15T08:54:27Z</time>
      </trkpt>
      <trkpt lat="49.68432" lon="-1.44428">
        <ele>22</ele>
        <time>2020-06-15T08:54:28Z</time>
      </trkpt>
      <trkpt lat="49.68436" lon="-1.44426">
        <ele>22.3</ele>
        <time>2020-06-15T08:54:29Z</time>
      </trkpt>
      <trkpt lat="49.68439" lon="-1.44422">
        <ele>22.5</ele>
        <time>2020-06-15T08:54:30Z</time>
      </trkpt>
      <trkpt lat="49.68442" lon="-1.44419">
        <ele>22.8</ele>
        <time>2020-06-15T08:54:31Z</time>
      </trkpt>
      <trkpt lat="49.68445" lon="-1.44416">
        <ele>23.1</ele>
        <time>2020-06-15T08:54:32Z</time>
      </trkpt>
      <trkpt lat="49.68448" lon="-1.44413">
        <ele>23.3</ele>
        <time>2020-06-15T08:54:33Z</time>
      </trkpt>
      <trkpt lat="49.68451" lon="-1.44409">
        <ele>23.6</ele>
        <time>2020-06-15T08:54:34Z</time>
      </trkpt>
      <trkpt lat="49.68454" lon="-1.44406">
        <ele>23.8</ele>
        <time>2020-06-15T08:54:35Z</time>
      </trkpt>
      <trkpt lat="49.68456" lon="-1.44402">
        <ele>24</ele>
        <time>2020-06-15T08:54:36Z</time>
      </trkpt>
      <trkpt lat="49.68459" lon="-1.44398">
        <ele>24.3</ele>
        <time>2020-06-15T08:54:37Z</time>
      </trkpt>
      <trkpt lat="49.68462" lon="-1.44395">
        <ele>24.5</ele>
        <time>2020-06-15T08:54:38Z</time>
      </trkpt>
      <trkpt lat="49.68463" lon="-1.44394">
        <ele>24.6</ele>
        <time>2020-06-15T08:54:39Z</time>
      </trkpt>
      <trkpt lat="49.68466" lon="-1.4439">
        <ele>24.8</ele>
        <time>2020-06-15T08:54:40Z</time>
      </trkpt>
      <trkpt lat="49.68468" lon="-1.44388">
        <ele>25</ele>
        <time>2020-06-15T08:54:41Z</time>
      </trkpt>
      <trkpt lat="49.68471" lon="-1.44385">
        <ele>25.2</ele>
        <time>2020-06-15T08:54:42Z</time>
      </trkpt>
      <trkpt lat="49.68473" lon="-1.44382">
        <ele>25.4</ele>
        <time>2020-06-15T08:54:43Z</time>
      </trkpt>
      <trkpt lat="49.68477" lon="-1.44379">
        <ele>25.7</ele>
        <time>2020-06-15T08:54:44Z</time>
      </trkpt>
      <trkpt lat="49.68478" lon="-1.44378">
        <ele>25.7</ele>
        <time>2020-06-15T08:54:45Z</time>
      </trkpt>
      <trkpt lat="49.68481" lon="-1.44376">
        <ele>25.9</ele>
        <time>2020-06-15T08:54:46Z</time>
      </trkpt>
      <trkpt lat="49.68482" lon="-1.44375">
        <ele>26</ele>
        <time>2020-06-15T08:54:47Z</time>
      </trkpt>
      <trkpt lat="49.68485" lon="-1.44371">
        <ele>26.2</ele>
        <time>2020-06-15T08:54:48Z</time>
      </trkpt>
      <trkpt lat="49.68488" lon="-1.44367">
        <ele>26.4</ele>
        <time>2020-06-15T08:54:49Z</time>
      </trkpt>
      <trkpt lat="49.68491" lon="-1.44365">
        <ele>26.5</ele>
        <time>2020-06-15T08:54:50Z</time>
      </trkpt>
      <trkpt lat="49.68493" lon="-1.44363">
        <ele>26.6</ele>
        <time>2020-06-15T08:54:51Z</time>
      </trkpt>
      <trkpt lat="49.68495" lon="-1.44361">
        <ele>26.7</ele>
        <time>2020-06-15T08:54:52Z</time>
      </trkpt>
      <trkpt lat="49.68498" lon="-1.44359">
        <ele>26.8</ele>
        <time>2020-06-15T08:54:53Z</time>
      </trkpt>
      <trkpt lat="49.685" lon="-1.44355">
        <ele>27</ele>
        <time>2020-06-15T08:54:54Z</time>
      </trkpt>
      <trkpt lat="49.685" lon="-1.44355">
        <ele>27</ele>
        <time>2020-06-15T08:54:55Z</time>
      </trkpt>
      <trkpt lat="49.68502" lon="-1.44352">
        <ele>27.1</ele>
        <time>2020-06-15T08:54:56Z</time>
      </trkpt>
      <trkpt lat="49.68503" lon="-1.44351">
        <ele>27.1</ele>
        <time>2020-06-15T08:54:57Z</time>
      </trkpt>
      <trkpt lat="49.68503" lon="-1.44351">
        <ele>27.1</ele>
        <time>2020-06-15T08:54:58Z</time>
      </trkpt>
      <trkpt lat="49.68503" lon="-1.44351">
        <ele>27.2</ele>
        <time>2020-06-15T08:54:59Z</time>
      </trkpt>
      <trkpt lat="49.68502" lon="-1.44351">
        <ele>27.2</ele>
        <time>2020-06-15T08:55:00Z</time>
      </trkpt>
      <trkpt lat="49.68502" lon="-1.44351">
        <ele>27.2</ele>
        <time>2020-06-15T08:55:01Z</time>
      </trkpt>
      <trkpt lat="49.68503" lon="-1.44351">
        <ele>27.2</ele>
        <time>2020-06-15T08:55:02Z</time>
      </trkpt>
      <trkpt lat="49.68503" lon="-1.44351">
        <ele>27.2</ele>
        <time>2020-06-15T08:55:03Z</time>
      </trkpt>
      <trkpt lat="49.68503" lon="-1.44351">
        <ele>27.2</ele>
        <time>2020-06-15T08:55:04Z</time>
      </trkpt>
      <trkpt lat="49.68503" lon="-1.44352">
        <ele>27.2</ele>
        <time>2020-06-15T08:55:05Z</time>
      </trkpt>
      <trkpt lat="49.68503" lon="-1.44352">
        <ele>27.3</ele>
        <time>2020-06-15T08:55:06Z</time>
      </trkpt>
      <trkpt lat="49.68502" lon="-1.44352">
        <ele>27.3</ele>
        <time>2020-06-15T08:55:07Z</time>
      </trkpt>
      <trkpt lat="49.68502" lon="-1.44352">
        <ele>27.3</ele>
        <time>2020-06-15T08:55:08Z</time>
      </trkpt>
      <trkpt lat="49.68501" lon="-1.44352">
        <ele>27.3</ele>
        <time>2020-06-15T08:55:09Z</time>
      </trkpt>
      <trkpt lat="49.68504" lon="-1.44349">
        <ele>27.4</ele>
        <time>2020-06-15T08:55:38Z</time>
      </trkpt>
      <trkpt lat="49.68505" lon="-1.44349">
        <ele>27.5</ele>
        <time>2020-06-15T08:55:39Z</time>
      </trkpt>
      <trkpt lat="49.68508" lon="-1.44348">
        <ele>27.6</ele>
        <time>2020-06-15T08:55:40Z</time>
      </trkpt>
      <trkpt lat="49.68509" lon="-1.44347">
        <ele>27.6</ele>
        <time>2020-06-15T08:55:41Z</time>
      </trkpt>
      <trkpt lat="49.68512" lon="-1.44348">
        <ele>27.7</ele>
        <time>2020-06-15T08:55:42Z</time>
      </trkpt>
      <trkpt lat="49.68513" lon="-1.44348">
        <ele>27.7</ele>
        <time>2020-06-15T08:55:43Z</time>
      </trkpt>
      <trkpt lat="49.68516" lon="-1.44347">
        <ele>27.8</ele>
        <time>2020-06-15T08:55:44Z</time>
      </trkpt>
      <trkpt lat="49.68517" lon="-1.44347">
        <ele>27.8</ele>
        <time>2020-06-15T08:55:45Z</time>
      </trkpt>
      <trkpt lat="49.6852" lon="-1.44347">
        <ele>27.9</ele>
        <time>2020-06-15T08:55:46Z</time>
      </trkpt>
      <trkpt lat="49.68521" lon="-1.44346">
        <ele>27.9</ele>
        <time>2020-06-15T08:55:47Z</time>
      </trkpt>
      <trkpt lat="49.68523" lon="-1.44344">
        <ele>28</ele>
        <time>2020-06-15T08:55:48Z</time>
      </trkpt>
      <trkpt lat="49.68527" lon="-1.44344">
        <ele>28.1</ele>
        <time>2020-06-15T08:55:49Z</time>
      </trkpt>
      <trkpt lat="49.6853" lon="-1.44342">
        <ele>28.2</ele>
        <time>2020-06-15T08:55:50Z</time>
      </trkpt>
      <trkpt lat="49.68533" lon="-1.4434">
        <ele>28.3</ele>
        <time>2020-06-15T08:55:51Z</time>
      </trkpt>
      <trkpt lat="49.68537" lon="-1.4434">
        <ele>28.4</ele>
        <time>2020-06-15T08:55:52Z</time>
      </trkpt>
      <trkpt lat="49.68541" lon="-1.44339">
        <ele>28.5</ele>
        <time>2020-06-15T08:55:53Z</time>
      </trkpt>
      <trkpt lat="49.68545" lon="-1.44339">
        <ele>28.5</ele>
        <time>2020-06-15T08:55:54Z</time>
      </trkpt>
      <trkpt lat="49.68548" lon="-1.44338">
        <ele>28.6</ele>
        <time>2020-06-15T08:55:55Z</time>
      </trkpt>
      <trkpt lat="49.68551" lon="-1.44336">
        <ele>28.7</ele>
        <time>2020-06-15T08:55:56Z</time>
      </trkpt>
      <trkpt lat="49.68555" lon="-1.44335">
        <ele>28.8</ele>
        <time>2020-06-15T08:55:57Z</time>
      </trkpt>
      <trkpt lat="49.68558" lon="-1.44335">
        <ele>28.8</ele>
        <time>2020-06-15T08:55:58Z</time>
      </trkpt>
      <trkpt lat="49.68561" lon="-1.44334">
        <ele>28.9</ele>
        <time>2020-06-15T08:55:59Z</time>
      </trkpt>
      <trkpt lat="49.68564" lon="-1.44334">
        <ele>28.9</ele>
        <time>2020-06-15T08:56:00Z</time>
      </trkpt>
      <trkpt lat="49.68567" lon="-1.44335">
        <ele>28.9</ele>
        <time>2020-06-15T08:56:01Z</time>
      </trkpt>
      <trkpt lat="49.6857" lon="-1.44335">
        <ele>29</ele>
        <time>2020-06-15T08:56:02Z</time>
      </trkpt>
      <trkpt lat="49.68574" lon="-1.44332">
        <ele>29</ele>
        <time>2020-06-15T08:56:03Z</time>
      </trkpt>
      <trkpt lat="49.68577" lon="-1.44331">
        <ele>29</ele>
        <time>2020-06-15T08:56:04Z</time>
      </trkpt>
      <trkpt lat="49.68581" lon="-1.4433">
        <ele>29</ele>
        <time>2020-06-15T08:56:05Z</time>
      </trkpt>
      <trkpt lat="49.68584" lon="-1.4433">
        <ele>29</ele>
        <time>2020-06-15T08:56:06Z</time>
      </trkpt>
      <trkpt lat="49.68587" lon="-1.4433">
        <ele>29</ele>
        <time>2020-06-15T08:56:07Z</time>
      </trkpt>
      <trkpt lat="49.68591" lon="-1.44331">
        <ele>29</ele>
        <time>2020-06-15T08:56:08Z</time>
      </trkpt>
      <trkpt lat="49.68594" lon="-1.44331">
        <ele>29</ele>
        <time>2020-06-15T08:56:09Z</time>
      </trkpt>
      <trkpt lat="49.68599" lon="-1.44331">
        <ele>29</ele>
        <time>2020-06-15T08:56:10Z</time>
      </trkpt>
      <trkpt lat="49.68602" lon="-1.44331">
        <ele>29</ele>
        <time>2020-06-15T08:56:11Z</time>
      </trkpt>
      <trkpt lat="49.68606" lon="-1.44331">
        <ele>29</ele>
        <time>2020-06-15T08:56:12Z</time>
      </trkpt>
      <trkpt lat="49.68611" lon="-1.44332">
        <ele>28.9</ele>
        <time>2020-06-15T08:56:13Z</time>
      </trkpt>
      <trkpt lat="49.68616" lon="-1.44332">
        <ele>28.8</ele>
        <time>2020-06-15T08:56:14Z</time>
      </trkpt>
      <trkpt lat="49.6862" lon="-1.44332">
        <ele>28.8</ele>
        <time>2020-06-15T08:56:15Z</time>
      </trkpt>
      <trkpt lat="49.68624" lon="-1.44333">
        <ele>28.7</ele>
        <time>2020-06-15T08:56:16Z</time>
      </trkpt>
      <trkpt lat="49.68629" lon="-1.44334">
        <ele>28.6</ele>
        <time>2020-06-15T08:56:17Z</time>
      </trkpt>
      <trkpt lat="49.68633" lon="-1.44334">
        <ele>28.5</ele>
        <time>2020-06-15T08:56:18Z</time>
      </trkpt>
      <trkpt lat="49.68636" lon="-1.44335">
        <ele>28.4</ele>
        <time>2020-06-15T08:56:19Z</time>
      </trkpt>
      <trkpt lat="49.68642" lon="-1.44336">
        <ele>28.3</ele>
        <time>2020-06-15T08:56:20Z</time>
      </trkpt>
      <trkpt lat="49.68646" lon="-1.44338">
        <ele>28.1</ele>
        <time>2020-06-15T08:56:21Z</time>
      </trkpt>
      <trkpt lat="49.6865" lon="-1.44341">
        <ele>28</ele>
        <time>2020-06-15T08:56:22Z</time>
      </trkpt>
      <trkpt lat="49.68655" lon="-1.44344">
        <ele>27.8</ele>
        <time>2020-06-15T08:56:23Z</time>
      </trkpt>
      <trkpt lat="49.68661" lon="-1.44347">
        <ele>27.5</ele>
        <time>2020-06-15T08:56:24Z</time>
      </trkpt>
      <trkpt lat="49.68666" lon="-1.44349">
        <ele>27.3</ele>
        <time>2020-06-15T08:56:25Z</time>
      </trkpt>
      <trkpt lat="49.68672" lon="-1.44352">
        <ele>27</ele>
        <time>2020-06-15T08:56:26Z</time>
      </trkpt>
      <trkpt lat="49.68678" lon="-1.44355">
        <ele>26.7</ele>
        <time>2020-06-15T08:56:27Z</time>
      </trkpt>
      <trkpt lat="49.68684" lon="-1.44359">
        <ele>26.4</ele>
        <time>2020-06-15T08:56:28Z</time>
      </trkpt>
      <trkpt lat="49.68691" lon="-1.44361">
        <ele>26</ele>
        <time>2020-06-15T08:56:29Z</time>
      </trkpt>
      <trkpt lat="49.68694" lon="-1.44365">
        <ele>25.8</ele>
        <time>2020-06-15T08:56:30Z</time>
      </trkpt>
      <trkpt lat="49.68702" lon="-1.44369">
        <ele>25.4</ele>
        <time>2020-06-15T08:56:31Z</time>
      </trkpt>
      <trkpt lat="49.68708" lon="-1.44374">
        <ele>25.1</ele>
        <time>2020-06-15T08:56:32Z</time>
      </trkpt>
      <trkpt lat="49.68715" lon="-1.44381">
        <ele>24.7</ele>
        <time>2020-06-15T08:56:33Z</time>
      </trkpt>
      <trkpt lat="49.68722" lon="-1.44386">
        <ele>24.4</ele>
        <time>2020-06-15T08:56:34Z</time>
      </trkpt>
      <trkpt lat="49.68728" lon="-1.44391">
        <ele>24.1</ele>
        <time>2020-06-15T08:56:35Z</time>
      </trkpt>
      <trkpt lat="49.68735" lon="-1.44396">
        <ele>23.8</ele>
        <time>2020-06-15T08:56:36Z</time>
      </trkpt>
      <trkpt lat="49.68742" lon="-1.44401">
        <ele>23.5</ele>
        <time>2020-06-15T08:56:37Z</time>
      </trkpt>
      <trkpt lat="49.6875" lon="-1.44406">
        <ele>22.8</ele>
        <time>2020-06-15T08:56:38Z</time>
      </trkpt>
      <trkpt lat="49.68757" lon="-1.4441">
        <ele>22.5</ele>
        <time>2020-06-15T08:56:39Z</time>
      </trkpt>
      <trkpt lat="49.68764" lon="-1.44415">
        <ele>22.3</ele>
        <time>2020-06-15T08:56:40Z</time>
      </trkpt>
      <trkpt lat="49.68771" lon="-1.44419">
        <ele>22.1</ele>
        <time>2020-06-15T08:56:41Z</time>
      </trkpt>
      <trkpt lat="49.68779" lon="-1.44423">
        <ele>21.9</ele>
        <time>2020-06-15T08:56:42Z</time>
      </trkpt>
      <trkpt lat="49.68787" lon="-1.44426">
        <ele>21.7</ele>
        <time>2020-06-15T08:56:43Z</time>
      </trkpt>
      <trkpt lat="49.68795" lon="-1.4443">
        <ele>21.6</ele>
        <time>2020-06-15T08:56:44Z</time>
      </trkpt>
      <trkpt lat="49.68803" lon="-1.44433">
        <ele>21.5</ele>
        <time>2020-06-15T08:56:45Z</time>
      </trkpt>
      <trkpt lat="49.68811" lon="-1.44436">
        <ele>21.4</ele>
        <time>2020-06-15T08:56:46Z</time>
      </trkpt>
      <trkpt lat="49.68819" lon="-1.44438">
        <ele>21.3</ele>
        <time>2020-06-15T08:56:47Z</time>
      </trkpt>
      <trkpt lat="49.68826" lon="-1.44438">
        <ele>21.2</ele>
        <time>2020-06-15T08:56:48Z</time>
      </trkpt>
      <trkpt lat="49.68834" lon="-1.44438">
        <ele>21.2</ele>
        <time>2020-06-15T08:56:49Z</time>
      </trkpt>
      <trkpt lat="49.68842" lon="-1.44437">
        <ele>21.2</ele>
        <time>2020-06-15T08:56:50Z</time>
      </trkpt>
      <trkpt lat="49.68849" lon="-1.44436">
        <ele>21.2</ele>
        <time>2020-06-15T08:56:51Z</time>
      </trkpt>
      <trkpt lat="49.68857" lon="-1.44435">
        <ele>21.2</ele>
        <time>2020-06-15T08:56:52Z</time>
      </trkpt>
      <trkpt lat="49.68864" lon="-1.44433">
        <ele>21.2</ele>
        <time>2020-06-15T08:56:53Z</time>
      </trkpt>
      <trkpt lat="49.68871" lon="-1.44431">
        <ele>21.2</ele>
        <time>2020-06-15T08:56:54Z</time>
      </trkpt>
      <trkpt lat="49.68878" lon="-1.44429">
        <ele>21.2</ele>
        <time>2020-06-15T08:56:55Z</time>
      </trkpt>
      <trkpt lat="49.68885" lon="-1.44427">
        <ele>21.2</ele>
        <time>2020-06-15T08:56:56Z</time>
      </trkpt>
      <trkpt lat="49.68892" lon="-1.44424">
        <ele>21.2</ele>
        <time>2020-06-15T08:56:57Z</time>
      </trkpt>
      <trkpt lat="49.68898" lon="-1.44422">
        <ele>21.2</ele>
        <time>2020-06-15T08:56:58Z</time>
      </trkpt>
      <trkpt lat="49.68904" lon="-1.44419">
        <ele>21.3</ele>
        <time>2020-06-15T08:56:59Z</time>
      </trkpt>
      <trkpt lat="49.68911" lon="-1.44415">
        <ele>21.3</ele>
        <time>2020-06-15T08:57:00Z</time>
      </trkpt>
      <trkpt lat="49.68917" lon="-1.44411">
        <ele>21.3</ele>
        <time>2020-06-15T08:57:01Z</time>
      </trkpt>
      <trkpt lat="49.68923" lon="-1.44407">
        <ele>21.3</ele>
        <time>2020-06-15T08:57:02Z</time>
      </trkpt>
      <trkpt lat="49.6893" lon="-1.44402">
        <ele>21.3</ele>
        <time>2020-06-15T08:57:03Z</time>
      </trkpt>
      <trkpt lat="49.68936" lon="-1.44398">
        <ele>21.2</ele>
        <time>2020-06-15T08:57:04Z</time>
      </trkpt>
      <trkpt lat="49.68943" lon="-1.44393">
        <ele>21.1</ele>
        <time>2020-06-15T08:57:05Z</time>
      </trkpt>
      <trkpt lat="49.68949" lon="-1.44387">
        <ele>21</ele>
        <time>2020-06-15T08:57:06Z</time>
      </trkpt>
      <trkpt lat="49.68956" lon="-1.44381">
        <ele>21</ele>
        <time>2020-06-15T08:57:07Z</time>
      </trkpt>
      <trkpt lat="49.68962" lon="-1.44375">
        <ele>20.9</ele>
        <time>2020-06-15T08:57:08Z</time>
      </trkpt>
      <trkpt lat="49.68968" lon="-1.44369">
        <ele>20.9</ele>
        <time>2020-06-15T08:57:09Z</time>
      </trkpt>
      <trkpt lat="49.68974" lon="-1.44363">
        <ele>20.8</ele>
        <time>2020-06-15T08:57:10Z</time>
      </trkpt>
      <trkpt lat="49.6898" lon="-1.44357">
        <ele>20.8</ele>
        <time>2020-06-15T08:57:11Z</time>
      </trkpt>
      <trkpt lat="49.68985" lon="-1.44351">
        <ele>20.8</ele>
        <time>2020-06-15T08:57:12Z</time>
      </trkpt>
      <trkpt lat="49.6899" lon="-1.44344">
        <ele>20.8</ele>
        <time>2020-06-15T08:57:13Z</time>
      </trkpt>
      <trkpt lat="49.68995" lon="-1.44337">
        <ele>20.8</ele>
        <time>2020-06-15T08:57:14Z</time>
      </trkpt>
      <trkpt lat="49.68999" lon="-1.44329">
        <ele>20.8</ele>
        <time>2020-06-15T08:57:15Z</time>
      </trkpt>
      <trkpt lat="49.69004" lon="-1.44322">
        <ele>20.8</ele>
        <time>2020-06-15T08:57:16Z</time>
      </trkpt>
      <trkpt lat="49.69008" lon="-1.44315">
        <ele>20.8</ele>
        <time>2020-06-15T08:57:17Z</time>
      </trkpt>
      <trkpt lat="49.69012" lon="-1.44307">
        <ele>20.8</ele>
        <time>2020-06-15T08:57:18Z</time>
      </trkpt>
      <trkpt lat="49.69016" lon="-1.443">
        <ele>20.8</ele>
        <time>2020-06-15T08:57:19Z</time>
      </trkpt>
      <trkpt lat="49.6902" lon="-1.44292">
        <ele>20.8</ele>
        <time>2020-06-15T08:57:20Z</time>
      </trkpt>
      <trkpt lat="49.69024" lon="-1.44284">
        <ele>20.8</ele>
        <time>2020-06-15T08:57:21Z</time>
      </trkpt>
      <trkpt lat="49.69027" lon="-1.44276">
        <ele>20.8</ele>
        <time>2020-06-15T08:57:22Z</time>
      </trkpt>
      <trkpt lat="49.6903" lon="-1.44268">
        <ele>20.7</ele>
        <time>2020-06-15T08:57:23Z</time>
      </trkpt>
      <trkpt lat="49.69033" lon="-1.4426">
        <ele>20.7</ele>
        <time>2020-06-15T08:57:24Z</time>
      </trkpt>
      <trkpt lat="49.69036" lon="-1.44252">
        <ele>20.8</ele>
        <time>2020-06-15T08:57:25Z</time>
      </trkpt>
      <trkpt lat="49.69039" lon="-1.44243">
        <ele>20.8</ele>
        <time>2020-06-15T08:57:26Z</time>
      </trkpt>
      <trkpt lat="49.69041" lon="-1.44234">
        <ele>20.9</ele>
        <time>2020-06-15T08:57:27Z</time>
      </trkpt>
      <trkpt lat="49.69043" lon="-1.44225">
        <ele>20.9</ele>
        <time>2020-06-15T08:57:28Z</time>
      </trkpt>
      <trkpt lat="49.69045" lon="-1.44217">
        <ele>20.8</ele>
        <time>2020-06-15T08:57:29Z</time>
      </trkpt>
      <trkpt lat="49.69047" lon="-1.44208">
        <ele>20.6</ele>
        <time>2020-06-15T08:57:30Z</time>
      </trkpt>
      <trkpt lat="49.69049" lon="-1.44198">
        <ele>20.5</ele>
        <time>2020-06-15T08:57:31Z</time>
      </trkpt>
      <trkpt lat="49.69051" lon="-1.44189">
        <ele>20.4</ele>
        <time>2020-06-15T08:57:32Z</time>
      </trkpt>
      <trkpt lat="49.69052" lon="-1.4418">
        <ele>20.2</ele>
        <time>2020-06-15T08:57:33Z</time>
      </trkpt>
      <trkpt lat="49.69054" lon="-1.44171">
        <ele>20.1</ele>
        <time>2020-06-15T08:57:34Z</time>
      </trkpt>
      <trkpt lat="49.69057" lon="-1.44163">
        <ele>19.9</ele>
        <time>2020-06-15T08:57:35Z</time>
      </trkpt>
      <trkpt lat="49.69059" lon="-1.44154">
        <ele>19.7</ele>
        <time>2020-06-15T08:57:36Z</time>
      </trkpt>
      <trkpt lat="49.69061" lon="-1.44144">
        <ele>19.5</ele>
        <time>2020-06-15T08:57:37Z</time>
      </trkpt>
      <trkpt lat="49.69063" lon="-1.44134">
        <ele>19.3</ele>
        <time>2020-06-15T08:57:38Z</time>
      </trkpt>
      <trkpt lat="49.69066" lon="-1.44124">
        <ele>19.1</ele>
        <time>2020-06-15T08:57:39Z</time>
      </trkpt>
      <trkpt lat="49.69067" lon="-1.44114">
        <ele>18.9</ele>
        <time>2020-06-15T08:57:40Z</time>
      </trkpt>
      <trkpt lat="49.69069" lon="-1.44104">
        <ele>18.7</ele>
        <time>2020-06-15T08:57:41Z</time>
      </trkpt>
      <trkpt lat="49.69072" lon="-1.44094">
        <ele>18.4</ele>
        <time>2020-06-15T08:57:42Z</time>
      </trkpt>
      <trkpt lat="49.69074" lon="-1.44084">
        <ele>18.2</ele>
        <time>2020-06-15T08:57:43Z</time>
      </trkpt>
      <trkpt lat="49.69076" lon="-1.44074">
        <ele>18</ele>
        <time>2020-06-15T08:57:44Z</time>
      </trkpt>
      <trkpt lat="49.69078" lon="-1.44063">
        <ele>17.8</ele>
        <time>2020-06-15T08:57:45Z</time>
      </trkpt>
      <trkpt lat="49.6908" lon="-1.44053">
        <ele>17.6</ele>
        <time>2020-06-15T08:57:46Z</time>
      </trkpt>
      <trkpt lat="49.69082" lon="-1.44042">
        <ele>17.4</ele>
        <time>2020-06-15T08:57:47Z</time>
      </trkpt>
      <trkpt lat="49.69084" lon="-1.44031">
        <ele>17.1</ele>
        <time>2020-06-15T08:57:48Z</time>
      </trkpt>
      <trkpt lat="49.69086" lon="-1.4402">
        <ele>16.9</ele>
        <time>2020-06-15T08:57:49Z</time>
      </trkpt>
      <trkpt lat="49.69089" lon="-1.44009">
        <ele>16.6</ele>
        <time>2020-06-15T08:57:50Z</time>
      </trkpt>
      <trkpt lat="49.69091" lon="-1.43998">
        <ele>16.4</ele>
        <time>2020-06-15T08:57:51Z</time>
      </trkpt>
      <trkpt lat="49.69094" lon="-1.43987">
        <ele>16.2</ele>
        <time>2020-06-15T08:57:52Z</time>
      </trkpt>
      <trkpt lat="49.69097" lon="-1.43976">
        <ele>16.1</ele>
        <time>2020-06-15T08:57:53Z</time>
      </trkpt>
      <trkpt lat="49.691" lon="-1.43964">
        <ele>15.9</ele>
        <time>2020-06-15T08:57:54Z</time>
      </trkpt>
      <trkpt lat="49.69102" lon="-1.43953">
        <ele>15.7</ele>
        <time>2020-06-15T08:57:55Z</time>
      </trkpt>
      <trkpt lat="49.69105" lon="-1.43942">
        <ele>15.6</ele>
        <time>2020-06-15T08:57:56Z</time>
      </trkpt>
      <trkpt lat="49.69108" lon="-1.4393">
        <ele>15.4</ele>
        <time>2020-06-15T08:57:57Z</time>
      </trkpt>
      <trkpt lat="49.69111" lon="-1.43919">
        <ele>15.3</ele>
        <time>2020-06-15T08:57:58Z</time>
      </trkpt>
      <trkpt lat="49.69113" lon="-1.43907">
        <ele>15.3</ele>
        <time>2020-06-15T08:57:59Z</time>
      </trkpt>
      <trkpt lat="49.69114" lon="-1.43895">
        <ele>15.3</ele>
        <time>2020-06-15T08:58:00Z</time>
      </trkpt>
      <trkpt lat="49.69117" lon="-1.43884">
        <ele>15.4</ele>
        <time>2020-06-15T08:58:01Z</time>
      </trkpt>
      <trkpt lat="49.6912" lon="-1.43873">
        <ele>15.5</ele>
        <time>2020-06-15T08:58:02Z</time>
      </trkpt>
      <trkpt lat="49.69123" lon="-1.43862">
        <ele>15.6</ele>
        <time>2020-06-15T08:58:03Z</time>
      </trkpt>
      <trkpt lat="49.69126" lon="-1.43852">
        <ele>15.7</ele>
        <time>2020-06-15T08:58:04Z</time>
      </trkpt>
      <trkpt lat="49.69128" lon="-1.43842">
        <ele>15.7</ele>
        <time>2020-06-15T08:58:05Z</time>
      </trkpt>
      <trkpt lat="49.69131" lon="-1.43832">
        <ele>15.8</ele>
        <time>2020-06-15T08:58:06Z</time>
      </trkpt>
      <trkpt lat="49.69133" lon="-1.43822">
        <ele>15.9</ele>
        <time>2020-06-15T08:58:07Z</time>
      </trkpt>
      <trkpt lat="49.69135" lon="-1.43812">
        <ele>16</ele>
        <time>2020-06-15T08:58:08Z</time>
      </trkpt>
      <trkpt lat="49.69137" lon="-1.43801">
        <ele>16.1</ele>
        <time>2020-06-15T08:58:09Z</time>
      </trkpt>
      <trkpt lat="49.6914" lon="-1.43792">
        <ele>16.2</ele>
        <time>2020-06-15T08:58:10Z</time>
      </trkpt>
      <trkpt lat="49.69142" lon="-1.43782">
        <ele>16.3</ele>
        <time>2020-06-15T08:58:11Z</time>
      </trkpt>
      <trkpt lat="49.69144" lon="-1.43773">
        <ele>16.4</ele>
        <time>2020-06-15T08:58:12Z</time>
      </trkpt>
      <trkpt lat="49.69146" lon="-1.43763">
        <ele>16.6</ele>
        <time>2020-06-15T08:58:13Z</time>
      </trkpt>
      <trkpt lat="49.69148" lon="-1.43754">
        <ele>16.7</ele>
        <time>2020-06-15T08:58:14Z</time>
      </trkpt>
      <trkpt lat="49.69149" lon="-1.43744">
        <ele>16.9</ele>
        <time>2020-06-15T08:58:15Z</time>
      </trkpt>
      <trkpt lat="49.6915" lon="-1.43735">
        <ele>17</ele>
        <time>2020-06-15T08:58:16Z</time>
      </trkpt>
      <trkpt lat="49.69152" lon="-1.43726">
        <ele>17.2</ele>
        <time>2020-06-15T08:58:17Z</time>
      </trkpt>
      <trkpt lat="49.69154" lon="-1.43717">
        <ele>17.5</ele>
        <time>2020-06-15T08:58:18Z</time>
      </trkpt>
      <trkpt lat="49.69156" lon="-1.43708">
        <ele>17.7</ele>
        <time>2020-06-15T08:58:19Z</time>
      </trkpt>
      <trkpt lat="49.69158" lon="-1.43699">
        <ele>17.9</ele>
        <time>2020-06-15T08:58:20Z</time>
      </trkpt>
      <trkpt lat="49.6916" lon="-1.4369">
        <ele>18.2</ele>
        <time>2020-06-15T08:58:21Z</time>
      </trkpt>
      <trkpt lat="49.69162" lon="-1.43681">
        <ele>18.4</ele>
        <time>2020-06-15T08:58:22Z</time>
      </trkpt>
      <trkpt lat="49.69164" lon="-1.43673">
        <ele>18.6</ele>
        <time>2020-06-15T08:58:23Z</time>
      </trkpt>
      <trkpt lat="49.69165" lon="-1.43664">
        <ele>18.8</ele>
        <time>2020-06-15T08:58:24Z</time>
      </trkpt>
      <trkpt lat="49.69167" lon="-1.43655">
        <ele>19</ele>
        <time>2020-06-15T08:58:25Z</time>
      </trkpt>
      <trkpt lat="49.69169" lon="-1.43646">
        <ele>19.3</ele>
        <time>2020-06-15T08:58:26Z</time>
      </trkpt>
      <trkpt lat="49.69171" lon="-1.43638">
        <ele>19.5</ele>
        <time>2020-06-15T08:58:27Z</time>
      </trkpt>
      <trkpt lat="49.69174" lon="-1.43631">
        <ele>19.7</ele>
        <time>2020-06-15T08:58:28Z</time>
      </trkpt>
      <trkpt lat="49.69176" lon="-1.43623">
        <ele>19.9</ele>
        <time>2020-06-15T08:58:29Z</time>
      </trkpt>
      <trkpt lat="49.69177" lon="-1.43616">
        <ele>20</ele>
        <time>2020-06-15T08:58:30Z</time>
      </trkpt>
      <trkpt lat="49.69178" lon="-1.43609">
        <ele>20.1</ele>
        <time>2020-06-15T08:58:31Z</time>
      </trkpt>
      <trkpt lat="49.6918" lon="-1.43602">
        <ele>20.3</ele>
        <time>2020-06-15T08:58:32Z</time>
      </trkpt>
      <trkpt lat="49.69181" lon="-1.43597">
        <ele>20.4</ele>
        <time>2020-06-15T08:58:33Z</time>
      </trkpt>
      <trkpt lat="49.69182" lon="-1.43592">
        <ele>20.4</ele>
        <time>2020-06-15T08:58:34Z</time>
      </trkpt>
      <trkpt lat="49.69184" lon="-1.43584">
        <ele>20.6</ele>
        <time>2020-06-15T08:58:35Z</time>
      </trkpt>
      <trkpt lat="49.69185" lon="-1.43576">
        <ele>20.7</ele>
        <time>2020-06-15T08:58:36Z</time>
      </trkpt>
      <trkpt lat="49.69187" lon="-1.43568">
        <ele>20.9</ele>
        <time>2020-06-15T08:58:37Z</time>
      </trkpt>
      <trkpt lat="49.69188" lon="-1.43561">
        <ele>21</ele>
        <time>2020-06-15T08:58:38Z</time>
      </trkpt>
      <trkpt lat="49.6919" lon="-1.43553">
        <ele>21.1</ele>
        <time>2020-06-15T08:58:39Z</time>
      </trkpt>
      <trkpt lat="49.69192" lon="-1.43545">
        <ele>21.2</ele>
        <time>2020-06-15T08:58:40Z</time>
      </trkpt>
      <trkpt lat="49.69194" lon="-1.43537">
        <ele>21.3</ele>
        <time>2020-06-15T08:58:41Z</time>
      </trkpt>
      <trkpt lat="49.69195" lon="-1.4353">
        <ele>21.3</ele>
        <time>2020-06-15T08:58:42Z</time>
      </trkpt>
      <trkpt lat="49.69198" lon="-1.43522">
        <ele>21.3</ele>
        <time>2020-06-15T08:58:43Z</time>
      </trkpt>
      <trkpt lat="49.69199" lon="-1.43513">
        <ele>21.2</ele>
        <time>2020-06-15T08:58:44Z</time>
      </trkpt>
      <trkpt lat="49.69202" lon="-1.43503">
        <ele>21.2</ele>
        <time>2020-06-15T08:58:45Z</time>
      </trkpt>
      <trkpt lat="49.69204" lon="-1.43495">
        <ele>21.1</ele>
        <time>2020-06-15T08:58:46Z</time>
      </trkpt>
      <trkpt lat="49.69206" lon="-1.43486">
        <ele>21</ele>
        <time>2020-06-15T08:58:47Z</time>
      </trkpt>
      <trkpt lat="49.69207" lon="-1.43479">
        <ele>20.9</ele>
        <time>2020-06-15T08:58:48Z</time>
      </trkpt>
      <trkpt lat="49.6921" lon="-1.43469">
        <ele>20.8</ele>
        <time>2020-06-15T08:58:49Z</time>
      </trkpt>
      <trkpt lat="49.69211" lon="-1.4346">
        <ele>20.7</ele>
        <time>2020-06-15T08:58:50Z</time>
      </trkpt>
      <trkpt lat="49.69213" lon="-1.4345">
        <ele>20.5</ele>
        <time>2020-06-15T08:58:51Z</time>
      </trkpt>
      <trkpt lat="49.69214" lon="-1.43442">
        <ele>20.4</ele>
        <time>2020-06-15T08:58:52Z</time>
      </trkpt>
      <trkpt lat="49.69215" lon="-1.43434">
        <ele>20.3</ele>
        <time>2020-06-15T08:58:53Z</time>
      </trkpt>
      <trkpt lat="49.69217" lon="-1.43428">
        <ele>20.2</ele>
        <time>2020-06-15T08:58:54Z</time>
      </trkpt>
      <trkpt lat="49.69219" lon="-1.43418">
        <ele>20</ele>
        <time>2020-06-15T08:58:55Z</time>
      </trkpt>
      <trkpt lat="49.69222" lon="-1.43408">
        <ele>19.8</ele>
        <time>2020-06-15T08:58:56Z</time>
      </trkpt>
      <trkpt lat="49.69225" lon="-1.43398">
        <ele>19.6</ele>
        <time>2020-06-15T08:58:57Z</time>
      </trkpt>
      <trkpt lat="49.69227" lon="-1.43389">
        <ele>19.4</ele>
        <time>2020-06-15T08:58:58Z</time>
      </trkpt>
      <trkpt lat="49.69227" lon="-1.4338">
        <ele>19.2</ele>
        <time>2020-06-15T08:58:59Z</time>
      </trkpt>
      <trkpt lat="49.69231" lon="-1.43369">
        <ele>19</ele>
        <time>2020-06-15T08:59:00Z</time>
      </trkpt>
      <trkpt lat="49.69233" lon="-1.4336">
        <ele>18.8</ele>
        <time>2020-06-15T08:59:01Z</time>
      </trkpt>
      <trkpt lat="49.69235" lon="-1.4335">
        <ele>18.7</ele>
        <time>2020-06-15T08:59:02Z</time>
      </trkpt>
      <trkpt lat="49.69238" lon="-1.43339">
        <ele>18.5</ele>
        <time>2020-06-15T08:59:03Z</time>
      </trkpt>
      <trkpt lat="49.6924" lon="-1.43329">
        <ele>18.3</ele>
        <time>2020-06-15T08:59:04Z</time>
      </trkpt>
      <trkpt lat="49.69242" lon="-1.43319">
        <ele>18.1</ele>
        <time>2020-06-15T08:59:05Z</time>
      </trkpt>
      <trkpt lat="49.69244" lon="-1.43309">
        <ele>17.9</ele>
        <time>2020-06-15T08:59:06Z</time>
      </trkpt>
      <trkpt lat="49.69246" lon="-1.43299">
        <ele>17.7</ele>
        <time>2020-06-15T08:59:07Z</time>
      </trkpt>
      <trkpt lat="49.69249" lon="-1.43289">
        <ele>17.4</ele>
        <time>2020-06-15T08:59:08Z</time>
      </trkpt>
      <trkpt lat="49.69251" lon="-1.43279">
        <ele>17.2</ele>
        <time>2020-06-15T08:59:09Z</time>
      </trkpt>
      <trkpt lat="49.69253" lon="-1.43269">
        <ele>17</ele>
        <time>2020-06-15T08:59:10Z</time>
      </trkpt>
      <trkpt lat="49.69255" lon="-1.43259">
        <ele>16.7</ele>
        <time>2020-06-15T08:59:11Z</time>
      </trkpt>
      <trkpt lat="49.69257" lon="-1.43249">
        <ele>16.5</ele>
        <time>2020-06-15T08:59:12Z</time>
      </trkpt>
      <trkpt lat="49.69259" lon="-1.43238">
        <ele>16.2</ele>
        <time>2020-06-15T08:59:13Z</time>
      </trkpt>
      <trkpt lat="49.69261" lon="-1.43228">
        <ele>15.9</ele>
        <time>2020-06-15T08:59:14Z</time>
      </trkpt>
      <trkpt lat="49.69263" lon="-1.43218">
        <ele>15.6</ele>
        <time>2020-06-15T08:59:15Z</time>
      </trkpt>
      <trkpt lat="49.69266" lon="-1.43208">
        <ele>15.4</ele>
        <time>2020-06-15T08:59:16Z</time>
      </trkpt>
      <trkpt lat="49.69268" lon="-1.43198">
        <ele>15.2</ele>
        <time>2020-06-15T08:59:17Z</time>
      </trkpt>
      <trkpt lat="49.69271" lon="-1.43187">
        <ele>15</ele>
        <time>2020-06-15T08:59:18Z</time>
      </trkpt>
      <trkpt lat="49.69273" lon="-1.43177">
        <ele>14.7</ele>
        <time>2020-06-15T08:59:19Z</time>
      </trkpt>
      <trkpt lat="49.69275" lon="-1.43165">
        <ele>14.5</ele>
        <time>2020-06-15T08:59:20Z</time>
      </trkpt>
      <trkpt lat="49.69278" lon="-1.43154">
        <ele>14.3</ele>
        <time>2020-06-15T08:59:21Z</time>
      </trkpt>
      <trkpt lat="49.6928" lon="-1.43143">
        <ele>14.2</ele>
        <time>2020-06-15T08:59:22Z</time>
      </trkpt>
      <trkpt lat="49.69283" lon="-1.43132">
        <ele>14.1</ele>
        <time>2020-06-15T08:59:23Z</time>
      </trkpt>
      <trkpt lat="49.69285" lon="-1.43121">
        <ele>14</ele>
        <time>2020-06-15T08:59:24Z</time>
      </trkpt>
      <trkpt lat="49.69288" lon="-1.4311">
        <ele>13.8</ele>
        <time>2020-06-15T08:59:25Z</time>
      </trkpt>
      <trkpt lat="49.69291" lon="-1.43099">
        <ele>13.6</ele>
        <time>2020-06-15T08:59:26Z</time>
      </trkpt>
      <trkpt lat="49.69293" lon="-1.43087">
        <ele>13.4</ele>
        <time>2020-06-15T08:59:27Z</time>
      </trkpt>
      <trkpt lat="49.69296" lon="-1.43076">
        <ele>13.2</ele>
        <time>2020-06-15T08:59:28Z</time>
      </trkpt>
      <trkpt lat="49.69298" lon="-1.43065">
        <ele>13</ele>
        <time>2020-06-15T08:59:29Z</time>
      </trkpt>
      <trkpt lat="49.69301" lon="-1.43054">
        <ele>12.9</ele>
        <time>2020-06-15T08:59:30Z</time>
      </trkpt>
      <trkpt lat="49.69302" lon="-1.43043">
        <ele>12.7</ele>
        <time>2020-06-15T08:59:31Z</time>
      </trkpt>
      <trkpt lat="49.69304" lon="-1.43032">
        <ele>12.6</ele>
        <time>2020-06-15T08:59:32Z</time>
      </trkpt>
      <trkpt lat="49.69307" lon="-1.43021">
        <ele>12.5</ele>
        <time>2020-06-15T08:59:33Z</time>
      </trkpt>
      <trkpt lat="49.69309" lon="-1.4301">
        <ele>12.3</ele>
        <time>2020-06-15T08:59:34Z</time>
      </trkpt>
      <trkpt lat="49.69312" lon="-1.43">
        <ele>12.2</ele>
        <time>2020-06-15T08:59:35Z</time>
      </trkpt>
      <trkpt lat="49.69314" lon="-1.42989">
        <ele>12</ele>
        <time>2020-06-15T08:59:36Z</time>
      </trkpt>
      <trkpt lat="49.69316" lon="-1.42979">
        <ele>11.9</ele>
        <time>2020-06-15T08:59:37Z</time>
      </trkpt>
      <trkpt lat="49.69319" lon="-1.42969">
        <ele>11.8</ele>
        <time>2020-06-15T08:59:38Z</time>
      </trkpt>
      <trkpt lat="49.69321" lon="-1.42959">
        <ele>11.7</ele>
        <time>2020-06-15T08:59:39Z</time>
      </trkpt>
      <trkpt lat="49.69323" lon="-1.42949">
        <ele>11.6</ele>
        <time>2020-06-15T08:59:40Z</time>
      </trkpt>
      <trkpt lat="49.69325" lon="-1.42939">
        <ele>11.6</ele>
        <time>2020-06-15T08:59:41Z</time>
      </trkpt>
      <trkpt lat="49.69328" lon="-1.42929">
        <ele>11.5</ele>
        <time>2020-06-15T08:59:42Z</time>
      </trkpt>
      <trkpt lat="49.6933" lon="-1.42919">
        <ele>11.4</ele>
        <time>2020-06-15T08:59:43Z</time>
      </trkpt>
      <trkpt lat="49.69332" lon="-1.42909">
        <ele>11.3</ele>
        <time>2020-06-15T08:59:44Z</time>
      </trkpt>
      <trkpt lat="49.69334" lon="-1.42899">
        <ele>11.2</ele>
        <time>2020-06-15T08:59:45Z</time>
      </trkpt>
      <trkpt lat="49.69335" lon="-1.42889">
        <ele>11.1</ele>
        <time>2020-06-15T08:59:46Z</time>
      </trkpt>
      <trkpt lat="49.69336" lon="-1.42878">
        <ele>11</ele>
        <time>2020-06-15T08:59:47Z</time>
      </trkpt>
      <trkpt lat="49.69337" lon="-1.42867">
        <ele>10.9</ele>
        <time>2020-06-15T08:59:48Z</time>
      </trkpt>
      <trkpt lat="49.69337" lon="-1.42857">
        <ele>10.8</ele>
        <time>2020-06-15T08:59:49Z</time>
      </trkpt>
      <trkpt lat="49.69338" lon="-1.42847">
        <ele>10.7</ele>
        <time>2020-06-15T08:59:50Z</time>
      </trkpt>
      <trkpt lat="49.69339" lon="-1.42836">
        <ele>10.6</ele>
        <time>2020-06-15T08:59:51Z</time>
      </trkpt>
      <trkpt lat="49.69339" lon="-1.42826">
        <ele>10.5</ele>
        <time>2020-06-15T08:59:52Z</time>
      </trkpt>
      <trkpt lat="49.69339" lon="-1.42816">
        <ele>10.5</ele>
        <time>2020-06-15T08:59:53Z</time>
      </trkpt>
      <trkpt lat="49.69339" lon="-1.42806">
        <ele>10.4</ele>
        <time>2020-06-15T08:59:54Z</time>
      </trkpt>
      <trkpt lat="49.69338" lon="-1.42796">
        <ele>10.3</ele>
        <time>2020-06-15T08:59:55Z</time>
      </trkpt>
      <trkpt lat="49.69338" lon="-1.42785">
        <ele>10.2</ele>
        <time>2020-06-15T08:59:56Z</time>
      </trkpt>
      <trkpt lat="49.69338" lon="-1.42775">
        <ele>10.1</ele>
        <time>2020-06-15T08:59:57Z</time>
      </trkpt>
      <trkpt lat="49.69338" lon="-1.42764">
        <ele>10.1</ele>
        <time>2020-06-15T08:59:58Z</time>
      </trkpt>
      <trkpt lat="49.69337" lon="-1.42754">
        <ele>10.1</ele>
        <time>2020-06-15T08:59:59Z</time>
      </trkpt>
      <trkpt lat="49.69336" lon="-1.42744">
        <ele>10.1</ele>
        <time>2020-06-15T09:00:00Z</time>
      </trkpt>
      <trkpt lat="49.69334" lon="-1.42734">
        <ele>10</ele>
        <time>2020-06-15T09:00:01Z</time>
      </trkpt>
      <trkpt lat="49.69333" lon="-1.42724">
        <ele>10.1</ele>
        <time>2020-06-15T09:00:02Z</time>
      </trkpt>
      <trkpt lat="49.69332" lon="-1.42714">
        <ele>10.1</ele>
        <time>2020-06-15T09:00:03Z</time>
      </trkpt>
      <trkpt lat="49.69331" lon="-1.42704">
        <ele>10.2</ele>
        <time>2020-06-15T09:00:04Z</time>
      </trkpt>
      <trkpt lat="49.69329" lon="-1.42695">
        <ele>10.2</ele>
        <time>2020-06-15T09:00:05Z</time>
      </trkpt>
      <trkpt lat="49.69328" lon="-1.42685">
        <ele>10.3</ele>
        <time>2020-06-15T09:00:06Z</time>
      </trkpt>
      <trkpt lat="49.69326" lon="-1.42676">
        <ele>10.4</ele>
        <time>2020-06-15T09:00:07Z</time>
      </trkpt>
      <trkpt lat="49.69325" lon="-1.42667">
        <ele>10.5</ele>
        <time>2020-06-15T09:00:08Z</time>
      </trkpt>
      <trkpt lat="49.69323" lon="-1.42658">
        <ele>10.7</ele>
        <time>2020-06-15T09:00:09Z</time>
      </trkpt>
      <trkpt lat="49.69321" lon="-1.42648">
        <ele>10.9</ele>
        <time>2020-06-15T09:00:10Z</time>
      </trkpt>
      <trkpt lat="49.69319" lon="-1.42639">
        <ele>11.1</ele>
        <time>2020-06-15T09:00:11Z</time>
      </trkpt>
      <trkpt lat="49.69317" lon="-1.4263">
        <ele>11.2</ele>
        <time>2020-06-15T09:00:12Z</time>
      </trkpt>
      <trkpt lat="49.69315" lon="-1.42621">
        <ele>11.2</ele>
        <time>2020-06-15T09:00:13Z</time>
      </trkpt>
      <trkpt lat="49.69313" lon="-1.42612">
        <ele>11.3</ele>
        <time>2020-06-15T09:00:14Z</time>
      </trkpt>
      <trkpt lat="49.6931" lon="-1.42603">
        <ele>11.4</ele>
        <time>2020-06-15T09:00:15Z</time>
      </trkpt>
      <trkpt lat="49.69309" lon="-1.42594">
        <ele>11.5</ele>
        <time>2020-06-15T09:00:16Z</time>
      </trkpt>
      <trkpt lat="49.69307" lon="-1.42585">
        <ele>11.6</ele>
        <time>2020-06-15T09:00:17Z</time>
      </trkpt>
      <trkpt lat="49.69306" lon="-1.42576">
        <ele>11.7</ele>
        <time>2020-06-15T09:00:18Z</time>
      </trkpt>
      <trkpt lat="49.69304" lon="-1.42568">
        <ele>11.8</ele>
        <time>2020-06-15T09:00:19Z</time>
      </trkpt>
      <trkpt lat="49.69303" lon="-1.4256">
        <ele>11.9</ele>
        <time>2020-06-15T09:00:20Z</time>
      </trkpt>
      <trkpt lat="49.69302" lon="-1.42551">
        <ele>12</ele>
        <time>2020-06-15T09:00:21Z</time>
      </trkpt>
      <trkpt lat="49.69302" lon="-1.42543">
        <ele>12.1</ele>
        <time>2020-06-15T09:00:22Z</time>
      </trkpt>
      <trkpt lat="49.69301" lon="-1.42534">
        <ele>12.2</ele>
        <time>2020-06-15T09:00:23Z</time>
      </trkpt>
      <trkpt lat="49.69301" lon="-1.42526">
        <ele>12.3</ele>
        <time>2020-06-15T09:00:24Z</time>
      </trkpt>
      <trkpt lat="49.693" lon="-1.42518">
        <ele>12.3</ele>
        <time>2020-06-15T09:00:25Z</time>
      </trkpt>
      <trkpt lat="49.693" lon="-1.4251">
        <ele>12.4</ele>
        <time>2020-06-15T09:00:26Z</time>
      </trkpt>
      <trkpt lat="49.693" lon="-1.425">
        <ele>12.5</ele>
        <time>2020-06-15T09:00:27Z</time>
      </trkpt>
      <trkpt lat="49.69299" lon="-1.42492">
        <ele>12.6</ele>
        <time>2020-06-15T09:00:28Z</time>
      </trkpt>
      <trkpt lat="49.69299" lon="-1.42484">
        <ele>12.6</ele>
        <time>2020-06-15T09:00:29Z</time>
      </trkpt>
      <trkpt lat="49.693" lon="-1.42474">
        <ele>12.7</ele>
        <time>2020-06-15T09:00:30Z</time>
      </trkpt>
      <trkpt lat="49.693" lon="-1.42464">
        <ele>12.8</ele>
        <time>2020-06-15T09:00:31Z</time>
      </trkpt>
      <trkpt lat="49.69301" lon="-1.42456">
        <ele>12.9</ele>
        <time>2020-06-15T09:00:32Z</time>
      </trkpt>
      <trkpt lat="49.69301" lon="-1.42447">
        <ele>13</ele>
        <time>2020-06-15T09:00:33Z</time>
      </trkpt>
      <trkpt lat="49.69302" lon="-1.42438">
        <ele>13.1</ele>
        <time>2020-06-15T09:00:34Z</time>
      </trkpt>
      <trkpt lat="49.69302" lon="-1.42429">
        <ele>13.2</ele>
        <time>2020-06-15T09:00:35Z</time>
      </trkpt>
      <trkpt lat="49.69302" lon="-1.4242">
        <ele>13.3</ele>
        <time>2020-06-15T09:00:36Z</time>
      </trkpt>
      <trkpt lat="49.69303" lon="-1.42411">
        <ele>13.4</ele>
        <time>2020-06-15T09:00:37Z</time>
      </trkpt>
      <trkpt lat="49.69305" lon="-1.42404">
        <ele>13.4</ele>
        <time>2020-06-15T09:00:38Z</time>
      </trkpt>
      <trkpt lat="49.69306" lon="-1.42395">
        <ele>13.5</ele>
        <time>2020-06-15T09:00:39Z</time>
      </trkpt>
      <trkpt lat="49.69308" lon="-1.42387">
        <ele>13.6</ele>
        <time>2020-06-15T09:00:40Z</time>
      </trkpt>
      <trkpt lat="49.69309" lon="-1.42378">
        <ele>13.7</ele>
        <time>2020-06-15T09:00:41Z</time>
      </trkpt>
      <trkpt lat="49.69311" lon="-1.4237">
        <ele>13.7</ele>
        <time>2020-06-15T09:00:42Z</time>
      </trkpt>
      <trkpt lat="49.69312" lon="-1.42359">
        <ele>13.8</ele>
        <time>2020-06-15T09:00:43Z</time>
      </trkpt>
      <trkpt lat="49.69314" lon="-1.42351">
        <ele>13.9</ele>
        <time>2020-06-15T09:00:44Z</time>
      </trkpt>
      <trkpt lat="49.69316" lon="-1.42342">
        <ele>14</ele>
        <time>2020-06-15T09:00:45Z</time>
      </trkpt>
      <trkpt lat="49.69318" lon="-1.42335">
        <ele>14.1</ele>
        <time>2020-06-15T09:00:46Z</time>
      </trkpt>
      <trkpt lat="49.6932" lon="-1.42326">
        <ele>14.2</ele>
        <time>2020-06-15T09:00:47Z</time>
      </trkpt>
      <trkpt lat="49.69322" lon="-1.42317">
        <ele>14.3</ele>
        <time>2020-06-15T09:00:48Z</time>
      </trkpt>
      <trkpt lat="49.69323" lon="-1.4231">
        <ele>14.3</ele>
        <time>2020-06-15T09:00:49Z</time>
      </trkpt>
      <trkpt lat="49.69325" lon="-1.42302">
        <ele>14.4</ele>
        <time>2020-06-15T09:00:50Z</time>
      </trkpt>
      <trkpt lat="49.69326" lon="-1.42294">
        <ele>14.5</ele>
        <time>2020-06-15T09:00:51Z</time>
      </trkpt>
      <trkpt lat="49.69328" lon="-1.42287">
        <ele>14.6</ele>
        <time>2020-06-15T09:00:52Z</time>
      </trkpt>
      <trkpt lat="49.69329" lon="-1.42278">
        <ele>14.7</ele>
        <time>2020-06-15T09:00:53Z</time>
      </trkpt>
      <trkpt lat="49.69331" lon="-1.42271">
        <ele>14.8</ele>
        <time>2020-06-15T09:00:54Z</time>
      </trkpt>
      <trkpt lat="49.69333" lon="-1.42263">
        <ele>14.8</ele>
        <time>2020-06-15T09:00:55Z</time>
      </trkpt>
      <trkpt lat="49.69335" lon="-1.42255">
        <ele>14.9</ele>
        <time>2020-06-15T09:00:56Z</time>
      </trkpt>
      <trkpt lat="49.69337" lon="-1.42246">
        <ele>14.9</ele>
        <time>2020-06-15T09:00:57Z</time>
      </trkpt>
      <trkpt lat="49.69338" lon="-1.42239">
        <ele>15</ele>
        <time>2020-06-15T09:00:58Z</time>
      </trkpt>
      <trkpt lat="49.6934" lon="-1.42231">
        <ele>15</ele>
        <time>2020-06-15T09:00:59Z</time>
      </trkpt>
      <trkpt lat="49.69341" lon="-1.42222">
        <ele>15</ele>
        <time>2020-06-15T09:01:00Z</time>
      </trkpt>
      <trkpt lat="49.69342" lon="-1.42214">
        <ele>15</ele>
        <time>2020-06-15T09:01:01Z</time>
      </trkpt>
      <trkpt lat="49.69343" lon="-1.42206">
        <ele>15</ele>
        <time>2020-06-15T09:01:02Z</time>
      </trkpt>
      <trkpt lat="49.69345" lon="-1.42199">
        <ele>14.9</ele>
        <time>2020-06-15T09:01:03Z</time>
      </trkpt>
      <trkpt lat="49.69347" lon="-1.42191">
        <ele>14.9</ele>
        <time>2020-06-15T09:01:04Z</time>
      </trkpt>
      <trkpt lat="49.69349" lon="-1.42182">
        <ele>14.8</ele>
        <time>2020-06-15T09:01:05Z</time>
      </trkpt>
      <trkpt lat="49.69351" lon="-1.42173">
        <ele>14.7</ele>
        <time>2020-06-15T09:01:06Z</time>
      </trkpt>
      <trkpt lat="49.69354" lon="-1.42164">
        <ele>14.6</ele>
        <time>2020-06-15T09:01:07Z</time>
      </trkpt>
      <trkpt lat="49.69355" lon="-1.42157">
        <ele>14.5</ele>
        <time>2020-06-15T09:01:08Z</time>
      </trkpt>
      <trkpt lat="49.69357" lon="-1.42149">
        <ele>14.4</ele>
        <time>2020-06-15T09:01:09Z</time>
      </trkpt>
      <trkpt lat="49.69359" lon="-1.4214">
        <ele>14.2</ele>
        <time>2020-06-15T09:01:10Z</time>
      </trkpt>
      <trkpt lat="49.69362" lon="-1.4213">
        <ele>14.1</ele>
        <time>2020-06-15T09:01:11Z</time>
      </trkpt>
      <trkpt lat="49.69364" lon="-1.42121">
        <ele>14</ele>
        <time>2020-06-15T09:01:12Z</time>
      </trkpt>
      <trkpt lat="49.69365" lon="-1.42111">
        <ele>13.8</ele>
        <time>2020-06-15T09:01:13Z</time>
      </trkpt>
      <trkpt lat="49.69367" lon="-1.42102">
        <ele>13.7</ele>
        <time>2020-06-15T09:01:14Z</time>
      </trkpt>
      <trkpt lat="49.69369" lon="-1.42092">
        <ele>13.5</ele>
        <time>2020-06-15T09:01:15Z</time>
      </trkpt>
      <trkpt lat="49.6937" lon="-1.42083">
        <ele>13.4</ele>
        <time>2020-06-15T09:01:16Z</time>
      </trkpt>
      <trkpt lat="49.69372" lon="-1.42073">
        <ele>13.2</ele>
        <time>2020-06-15T09:01:17Z</time>
      </trkpt>
      <trkpt lat="49.69374" lon="-1.42063">
        <ele>13</ele>
        <time>2020-06-15T09:01:18Z</time>
      </trkpt>
      <trkpt lat="49.69374" lon="-1.42053">
        <ele>12.8</ele>
        <time>2020-06-15T09:01:19Z</time>
      </trkpt>
      <trkpt lat="49.69374" lon="-1.42043">
        <ele>12.6</ele>
        <time>2020-06-15T09:01:20Z</time>
      </trkpt>
      <trkpt lat="49.69375" lon="-1.42031">
        <ele>12.5</ele>
        <time>2020-06-15T09:01:21Z</time>
      </trkpt>
      <trkpt lat="49.69375" lon="-1.4202">
        <ele>12.3</ele>
        <time>2020-06-15T09:01:22Z</time>
      </trkpt>
      <trkpt lat="49.69376" lon="-1.4201">
        <ele>12.2</ele>
        <time>2020-06-15T09:01:23Z</time>
      </trkpt>
      <trkpt lat="49.69376" lon="-1.41999">
        <ele>12</ele>
        <time>2020-06-15T09:01:24Z</time>
      </trkpt>
      <trkpt lat="49.69377" lon="-1.41989">
        <ele>11.9</ele>
        <time>2020-06-15T09:01:25Z</time>
      </trkpt>
      <trkpt lat="49.69377" lon="-1.41977">
        <ele>11.7</ele>
        <time>2020-06-15T09:01:26Z</time>
      </trkpt>
      <trkpt lat="49.69377" lon="-1.41967">
        <ele>11.6</ele>
        <time>2020-06-15T09:01:27Z</time>
      </trkpt>
      <trkpt lat="49.69377" lon="-1.41956">
        <ele>11.5</ele>
        <time>2020-06-15T09:01:28Z</time>
      </trkpt>
      <trkpt lat="49.69377" lon="-1.41945">
        <ele>11.5</ele>
        <time>2020-06-15T09:01:29Z</time>
      </trkpt>
      <trkpt lat="49.69377" lon="-1.41933">
        <ele>11.5</ele>
        <time>2020-06-15T09:01:30Z</time>
      </trkpt>
      <trkpt lat="49.69376" lon="-1.41922">
        <ele>11.5</ele>
        <time>2020-06-15T09:01:31Z</time>
      </trkpt>
      <trkpt lat="49.69376" lon="-1.41912">
        <ele>11.5</ele>
        <time>2020-06-15T09:01:32Z</time>
      </trkpt>
      <trkpt lat="49.69375" lon="-1.41902">
        <ele>11.5</ele>
        <time>2020-06-15T09:01:33Z</time>
      </trkpt>
      <trkpt lat="49.69374" lon="-1.41893">
        <ele>11.6</ele>
        <time>2020-06-15T09:01:34Z</time>
      </trkpt>
      <trkpt lat="49.69375" lon="-1.41883">
        <ele>11.6</ele>
        <time>2020-06-15T09:01:35Z</time>
      </trkpt>
      <trkpt lat="49.69375" lon="-1.41874">
        <ele>11.7</ele>
        <time>2020-06-15T09:01:36Z</time>
      </trkpt>
      <trkpt lat="49.69375" lon="-1.41865">
        <ele>11.7</ele>
        <time>2020-06-15T09:01:37Z</time>
      </trkpt>
      <trkpt lat="49.69375" lon="-1.41856">
        <ele>11.8</ele>
        <time>2020-06-15T09:01:38Z</time>
      </trkpt>
      <trkpt lat="49.69375" lon="-1.41847">
        <ele>11.9</ele>
        <time>2020-06-15T09:01:39Z</time>
      </trkpt>
      <trkpt lat="49.69375" lon="-1.41838">
        <ele>12</ele>
        <time>2020-06-15T09:01:40Z</time>
      </trkpt>
      <trkpt lat="49.69375" lon="-1.41829">
        <ele>12.1</ele>
        <time>2020-06-15T09:01:41Z</time>
      </trkpt>
      <trkpt lat="49.69375" lon="-1.41819">
        <ele>12.2</ele>
        <time>2020-06-15T09:01:42Z</time>
      </trkpt>
      <trkpt lat="49.69376" lon="-1.4181">
        <ele>12.4</ele>
        <time>2020-06-15T09:01:43Z</time>
      </trkpt>
      <trkpt lat="49.69375" lon="-1.41801">
        <ele>12.6</ele>
        <time>2020-06-15T09:01:44Z</time>
      </trkpt>
      <trkpt lat="49.69375" lon="-1.41791">
        <ele>12.8</ele>
        <time>2020-06-15T09:01:45Z</time>
      </trkpt>
      <trkpt lat="49.69376" lon="-1.41782">
        <ele>13</ele>
        <time>2020-06-15T09:01:46Z</time>
      </trkpt>
      <trkpt lat="49.69375" lon="-1.41773">
        <ele>13.2</ele>
        <time>2020-06-15T09:01:47Z</time>
      </trkpt>
      <trkpt lat="49.69375" lon="-1.41764">
        <ele>13.5</ele>
        <time>2020-06-15T09:01:48Z</time>
      </trkpt>
      <trkpt lat="49.69374" lon="-1.41755">
        <ele>13.7</ele>
        <time>2020-06-15T09:01:49Z</time>
      </trkpt>
      <trkpt lat="49.69374" lon="-1.41747">
        <ele>13.9</ele>
        <time>2020-06-15T09:01:50Z</time>
      </trkpt>
      <trkpt lat="49.69374" lon="-1.41739">
        <ele>14.1</ele>
        <time>2020-06-15T09:01:51Z</time>
      </trkpt>
      <trkpt lat="49.69375" lon="-1.41731">
        <ele>14.3</ele>
        <time>2020-06-15T09:01:52Z</time>
      </trkpt>
      <trkpt lat="49.69374" lon="-1.41723">
        <ele>14.5</ele>
        <time>2020-06-15T09:01:53Z</time>
      </trkpt>
      <trkpt lat="49.69374" lon="-1.41715">
        <ele>14.7</ele>
        <time>2020-06-15T09:01:54Z</time>
      </trkpt>
      <trkpt lat="49.69374" lon="-1.41707">
        <ele>14.8</ele>
        <time>2020-06-15T09:01:55Z</time>
      </trkpt>
      <trkpt lat="49.69374" lon="-1.417">
        <ele>15</ele>
        <time>2020-06-15T09:01:56Z</time>
      </trkpt>
      <trkpt lat="49.69373" lon="-1.41693">
        <ele>15.2</ele>
        <time>2020-06-15T09:01:57Z</time>
      </trkpt>
      <trkpt lat="49.69373" lon="-1.41686">
        <ele>15.4</ele>
        <time>2020-06-15T09:01:58Z</time>
      </trkpt>
      <trkpt lat="49.69373" lon="-1.4168">
        <ele>15.6</ele>
        <time>2020-06-15T09:01:59Z</time>
      </trkpt>
      <trkpt lat="49.69372" lon="-1.41674">
        <ele>15.7</ele>
        <time>2020-06-15T09:02:00Z</time>
      </trkpt>
      <trkpt lat="49.69372" lon="-1.41668">
        <ele>15.9</ele>
        <time>2020-06-15T09:02:01Z</time>
      </trkpt>
      <trkpt lat="49.69373" lon="-1.41663">
        <ele>16.1</ele>
        <time>2020-06-15T09:02:02Z</time>
      </trkpt>
      <trkpt lat="49.69373" lon="-1.41656">
        <ele>16.2</ele>
        <time>2020-06-15T09:02:03Z</time>
      </trkpt>
      <trkpt lat="49.69373" lon="-1.4165">
        <ele>16.4</ele>
        <time>2020-06-15T09:02:04Z</time>
      </trkpt>
      <trkpt lat="49.69374" lon="-1.41642">
        <ele>16.6</ele>
        <time>2020-06-15T09:02:05Z</time>
      </trkpt>
      <trkpt lat="49.69374" lon="-1.41635">
        <ele>16.7</ele>
        <time>2020-06-15T09:02:06Z</time>
      </trkpt>
      <trkpt lat="49.69374" lon="-1.41629">
        <ele>16.9</ele>
        <time>2020-06-15T09:02:07Z</time>
      </trkpt>
      <trkpt lat="49.69375" lon="-1.41622">
        <ele>17</ele>
        <time>2020-06-15T09:02:08Z</time>
      </trkpt>
      <trkpt lat="49.69375" lon="-1.41615">
        <ele>17.2</ele>
        <time>2020-06-15T09:02:09Z</time>
      </trkpt>
      <trkpt lat="49.69375" lon="-1.41608">
        <ele>17.4</ele>
        <time>2020-06-15T09:02:10Z</time>
      </trkpt>
      <trkpt lat="49.69376" lon="-1.41602">
        <ele>17.5</ele>
        <time>2020-06-15T09:02:11Z</time>
      </trkpt>
      <trkpt lat="49.69377" lon="-1.41597">
        <ele>17.6</ele>
        <time>2020-06-15T09:02:12Z</time>
      </trkpt>
      <trkpt lat="49.69377" lon="-1.41591">
        <ele>17.8</ele>
        <time>2020-06-15T09:02:13Z</time>
      </trkpt>
      <trkpt lat="49.69378" lon="-1.41586">
        <ele>17.9</ele>
        <time>2020-06-15T09:02:14Z</time>
      </trkpt>
      <trkpt lat="49.69378" lon="-1.4158">
        <ele>18.1</ele>
        <time>2020-06-15T09:02:15Z</time>
      </trkpt>
      <trkpt lat="49.69377" lon="-1.41573">
        <ele>18.2</ele>
        <time>2020-06-15T09:02:16Z</time>
      </trkpt>
      <trkpt lat="49.69377" lon="-1.41567">
        <ele>18.3</ele>
        <time>2020-06-15T09:02:17Z</time>
      </trkpt>
      <trkpt lat="49.69377" lon="-1.4156">
        <ele>18.4</ele>
        <time>2020-06-15T09:02:18Z</time>
      </trkpt>
      <trkpt lat="49.69377" lon="-1.41554">
        <ele>18.5</ele>
        <time>2020-06-15T09:02:19Z</time>
      </trkpt>
      <trkpt lat="49.69377" lon="-1.41547">
        <ele>18.6</ele>
        <time>2020-06-15T09:02:20Z</time>
      </trkpt>
      <trkpt lat="49.69377" lon="-1.41541">
        <ele>18.7</ele>
        <time>2020-06-15T09:02:21Z</time>
      </trkpt>
      <trkpt lat="49.69377" lon="-1.41533">
        <ele>18.9</ele>
        <time>2020-06-15T09:02:22Z</time>
      </trkpt>
      <trkpt lat="49.69377" lon="-1.41526">
        <ele>19</ele>
        <time>2020-06-15T09:02:23Z</time>
      </trkpt>
      <trkpt lat="49.69378" lon="-1.41519">
        <ele>19.1</ele>
        <time>2020-06-15T09:02:24Z</time>
      </trkpt>
      <trkpt lat="49.69378" lon="-1.41512">
        <ele>19.2</ele>
        <time>2020-06-15T09:02:25Z</time>
      </trkpt>
      <trkpt lat="49.69378" lon="-1.41505">
        <ele>19.3</ele>
        <time>2020-06-15T09:02:26Z</time>
      </trkpt>
      <trkpt lat="49.69377" lon="-1.41498">
        <ele>19.4</ele>
        <time>2020-06-15T09:02:27Z</time>
      </trkpt>
      <trkpt lat="49.69377" lon="-1.41491">
        <ele>19.5</ele>
        <time>2020-06-15T09:02:28Z</time>
      </trkpt>
      <trkpt lat="49.69377" lon="-1.41483">
        <ele>19.5</ele>
        <time>2020-06-15T09:02:29Z</time>
      </trkpt>
      <trkpt lat="49.69377" lon="-1.41476">
        <ele>19.6</ele>
        <time>2020-06-15T09:02:30Z</time>
      </trkpt>
      <trkpt lat="49.69377" lon="-1.41468">
        <ele>19.7</ele>
        <time>2020-06-15T09:02:31Z</time>
      </trkpt>
      <trkpt lat="49.69377" lon="-1.41461">
        <ele>19.8</ele>
        <time>2020-06-15T09:02:32Z</time>
      </trkpt>
      <trkpt lat="49.69378" lon="-1.41453">
        <ele>19.9</ele>
        <time>2020-06-15T09:02:33Z</time>
      </trkpt>
      <trkpt lat="49.69378" lon="-1.41447">
        <ele>20</ele>
        <time>2020-06-15T09:02:34Z</time>
      </trkpt>
      <trkpt lat="49.69378" lon="-1.4144">
        <ele>20.1</ele>
        <time>2020-06-15T09:02:35Z</time>
      </trkpt>
      <trkpt lat="49.69378" lon="-1.41433">
        <ele>20.2</ele>
        <time>2020-06-15T09:02:36Z</time>
      </trkpt>
      <trkpt lat="49.69377" lon="-1.41425">
        <ele>20.3</ele>
        <time>2020-06-15T09:02:37Z</time>
      </trkpt>
      <trkpt lat="49.69378" lon="-1.41419">
        <ele>20.4</ele>
        <time>2020-06-15T09:02:38Z</time>
      </trkpt>
      <trkpt lat="49.69377" lon="-1.41412">
        <ele>20.5</ele>
        <time>2020-06-15T09:02:39Z</time>
      </trkpt>
      <trkpt lat="49.69378" lon="-1.41404">
        <ele>20.6</ele>
        <time>2020-06-15T09:02:40Z</time>
      </trkpt>
      <trkpt lat="49.69378" lon="-1.41396">
        <ele>20.7</ele>
        <time>2020-06-15T09:02:41Z</time>
      </trkpt>
      <trkpt lat="49.69377" lon="-1.41389">
        <ele>20.8</ele>
        <time>2020-06-15T09:02:42Z</time>
      </trkpt>
      <trkpt lat="49.69377" lon="-1.4138">
        <ele>21</ele>
        <time>2020-06-15T09:02:43Z</time>
      </trkpt>
      <trkpt lat="49.69377" lon="-1.41372">
        <ele>21.1</ele>
        <time>2020-06-15T09:02:44Z</time>
      </trkpt>
      <trkpt lat="49.69377" lon="-1.41365">
        <ele>21.2</ele>
        <time>2020-06-15T09:02:45Z</time>
      </trkpt>
      <trkpt lat="49.69377" lon="-1.41357">
        <ele>21.4</ele>
        <time>2020-06-15T09:02:46Z</time>
      </trkpt>
      <trkpt lat="49.69377" lon="-1.41349">
        <ele>21.5</ele>
        <time>2020-06-15T09:02:47Z</time>
      </trkpt>
      <trkpt lat="49.69377" lon="-1.41341">
        <ele>21.7</ele>
        <time>2020-06-15T09:02:48Z</time>
      </trkpt>
      <trkpt lat="49.69377" lon="-1.41335">
        <ele>21.8</ele>
        <time>2020-06-15T09:02:49Z</time>
      </trkpt>
      <trkpt lat="49.69377" lon="-1.41327">
        <ele>21.9</ele>
        <time>2020-06-15T09:02:50Z</time>
      </trkpt>
      <trkpt lat="49.69377" lon="-1.41319">
        <ele>22.1</ele>
        <time>2020-06-15T09:02:51Z</time>
      </trkpt>
      <trkpt lat="49.69377" lon="-1.41312">
        <ele>22.2</ele>
        <time>2020-06-15T09:02:52Z</time>
      </trkpt>
      <trkpt lat="49.69377" lon="-1.41303">
        <ele>22.4</ele>
        <time>2020-06-15T09:02:53Z</time>
      </trkpt>
      <trkpt lat="49.69376" lon="-1.41298">
        <ele>22.5</ele>
        <time>2020-06-15T09:02:54Z</time>
      </trkpt>
      <trkpt lat="49.69376" lon="-1.41292">
        <ele>22.6</ele>
        <time>2020-06-15T09:02:55Z</time>
      </trkpt>
      <trkpt lat="49.69376" lon="-1.41284">
        <ele>22.8</ele>
        <time>2020-06-15T09:02:56Z</time>
      </trkpt>
      <trkpt lat="49.69376" lon="-1.41278">
        <ele>23</ele>
        <time>2020-06-15T09:02:57Z</time>
      </trkpt>
      <trkpt lat="49.69376" lon="-1.41269">
        <ele>23.1</ele>
        <time>2020-06-15T09:02:58Z</time>
      </trkpt>
      <trkpt lat="49.69376" lon="-1.4126">
        <ele>23.3</ele>
        <time>2020-06-15T09:02:59Z</time>
      </trkpt>
      <trkpt lat="49.69375" lon="-1.41252">
        <ele>23.4</ele>
        <time>2020-06-15T09:03:00Z</time>
      </trkpt>
      <trkpt lat="49.69375" lon="-1.41245">
        <ele>23.6</ele>
        <time>2020-06-15T09:03:01Z</time>
      </trkpt>
      <trkpt lat="49.69374" lon="-1.41239">
        <ele>23.7</ele>
        <time>2020-06-15T09:03:02Z</time>
      </trkpt>
      <trkpt lat="49.69373" lon="-1.41233">
        <ele>23.8</ele>
        <time>2020-06-15T09:03:03Z</time>
      </trkpt>
      <trkpt lat="49.69372" lon="-1.41225">
        <ele>23.9</ele>
        <time>2020-06-15T09:03:04Z</time>
      </trkpt>
      <trkpt lat="49.6937" lon="-1.41217">
        <ele>24</ele>
        <time>2020-06-15T09:03:05Z</time>
      </trkpt>
      <trkpt lat="49.69369" lon="-1.41209">
        <ele>24.1</ele>
        <time>2020-06-15T09:03:06Z</time>
      </trkpt>
      <trkpt lat="49.69367" lon="-1.41201">
        <ele>24.2</ele>
        <time>2020-06-15T09:03:07Z</time>
      </trkpt>
      <trkpt lat="49.69366" lon="-1.41195">
        <ele>24.3</ele>
        <time>2020-06-15T09:03:08Z</time>
      </trkpt>
      <trkpt lat="49.69363" lon="-1.41188">
        <ele>24.4</ele>
        <time>2020-06-15T09:03:09Z</time>
      </trkpt>
      <trkpt lat="49.69362" lon="-1.41181">
        <ele>24.5</ele>
        <time>2020-06-15T09:03:10Z</time>
      </trkpt>
      <trkpt lat="49.6936" lon="-1.41172">
        <ele>24.5</ele>
        <time>2020-06-15T09:03:11Z</time>
      </trkpt>
      <trkpt lat="49.69358" lon="-1.41165">
        <ele>24.6</ele>
        <time>2020-06-15T09:03:12Z</time>
      </trkpt>
      <trkpt lat="49.69355" lon="-1.41156">
        <ele>24.6</ele>
        <time>2020-06-15T09:03:13Z</time>
      </trkpt>
      <trkpt lat="49.69353" lon="-1.4115">
        <ele>24.6</ele>
        <time>2020-06-15T09:03:14Z</time>
      </trkpt>
      <trkpt lat="49.69351" lon="-1.41143">
        <ele>24.8</ele>
        <time>2020-06-15T09:03:15Z</time>
      </trkpt>
      <trkpt lat="49.69348" lon="-1.41137">
        <ele>24.9</ele>
        <time>2020-06-15T09:03:16Z</time>
      </trkpt>
      <trkpt lat="49.69346" lon="-1.4113">
        <ele>25</ele>
        <time>2020-06-15T09:03:17Z</time>
      </trkpt>
      <trkpt lat="49.69343" lon="-1.41122">
        <ele>25.1</ele>
        <time>2020-06-15T09:03:18Z</time>
      </trkpt>
      <trkpt lat="49.69341" lon="-1.41117">
        <ele>25.1</ele>
        <time>2020-06-15T09:03:19Z</time>
      </trkpt>
      <trkpt lat="49.69339" lon="-1.4111">
        <ele>25.2</ele>
        <time>2020-06-15T09:03:20Z</time>
      </trkpt>
      <trkpt lat="49.69337" lon="-1.41102">
        <ele>25.3</ele>
        <time>2020-06-15T09:03:21Z</time>
      </trkpt>
      <trkpt lat="49.69335" lon="-1.41095">
        <ele>25.3</ele>
        <time>2020-06-15T09:03:22Z</time>
      </trkpt>
      <trkpt lat="49.69332" lon="-1.41087">
        <ele>25.3</ele>
        <time>2020-06-15T09:03:23Z</time>
      </trkpt>
      <trkpt lat="49.69331" lon="-1.41081">
        <ele>25.3</ele>
        <time>2020-06-15T09:03:24Z</time>
      </trkpt>
      <trkpt lat="49.6933" lon="-1.41074">
        <ele>25.3</ele>
        <time>2020-06-15T09:03:25Z</time>
      </trkpt>
      <trkpt lat="49.69327" lon="-1.41065">
        <ele>25.2</ele>
        <time>2020-06-15T09:03:26Z</time>
      </trkpt>
      <trkpt lat="49.69326" lon="-1.41058">
        <ele>25.2</ele>
        <time>2020-06-15T09:03:27Z</time>
      </trkpt>
      <trkpt lat="49.69325" lon="-1.4105">
        <ele>25.2</ele>
        <time>2020-06-15T09:03:28Z</time>
      </trkpt>
      <trkpt lat="49.69325" lon="-1.41042">
        <ele>25.2</ele>
        <time>2020-06-15T09:03:29Z</time>
      </trkpt>
      <trkpt lat="49.69323" lon="-1.41033">
        <ele>25.1</ele>
        <time>2020-06-15T09:03:30Z</time>
      </trkpt>
      <trkpt lat="49.69322" lon="-1.41025">
        <ele>25.1</ele>
        <time>2020-06-15T09:03:31Z</time>
      </trkpt>
      <trkpt lat="49.6932" lon="-1.41016">
        <ele>25.1</ele>
        <time>2020-06-15T09:03:32Z</time>
      </trkpt>
      <trkpt lat="49.6932" lon="-1.41005">
        <ele>25</ele>
        <time>2020-06-15T09:03:33Z</time>
      </trkpt>
      <trkpt lat="49.6932" lon="-1.40996">
        <ele>25</ele>
        <time>2020-06-15T09:03:34Z</time>
      </trkpt>
      <trkpt lat="49.6932" lon="-1.40987">
        <ele>25</ele>
        <time>2020-06-15T09:03:35Z</time>
      </trkpt>
      <trkpt lat="49.6932" lon="-1.40979">
        <ele>25</ele>
        <time>2020-06-15T09:03:36Z</time>
      </trkpt>
      <trkpt lat="49.6932" lon="-1.40971">
        <ele>25</ele>
        <time>2020-06-15T09:03:37Z</time>
      </trkpt>
      <trkpt lat="49.6932" lon="-1.40963">
        <ele>25</ele>
        <time>2020-06-15T09:03:38Z</time>
      </trkpt>
      <trkpt lat="49.6932" lon="-1.40955">
        <ele>24.9</ele>
        <time>2020-06-15T09:03:39Z</time>
      </trkpt>
      <trkpt lat="49.6932" lon="-1.40947">
        <ele>24.9</ele>
        <time>2020-06-15T09:03:40Z</time>
      </trkpt>
      <trkpt lat="49.6932" lon="-1.40939">
        <ele>24.9</ele>
        <time>2020-06-15T09:03:41Z</time>
      </trkpt>
      <trkpt lat="49.6932" lon="-1.40932">
        <ele>24.8</ele>
        <time>2020-06-15T09:03:42Z</time>
      </trkpt>
      <trkpt lat="49.69321" lon="-1.40924">
        <ele>24.7</ele>
        <time>2020-06-15T09:03:43Z</time>
      </trkpt>
      <trkpt lat="49.69322" lon="-1.40915">
        <ele>24.7</ele>
        <time>2020-06-15T09:03:44Z</time>
      </trkpt>
      <trkpt lat="49.69324" lon="-1.40906">
        <ele>24.6</ele>
        <time>2020-06-15T09:03:45Z</time>
      </trkpt>
      <trkpt lat="49.69325" lon="-1.40897">
        <ele>24.5</ele>
        <time>2020-06-15T09:03:46Z</time>
      </trkpt>
      <trkpt lat="49.69326" lon="-1.40888">
        <ele>24.4</ele>
        <time>2020-06-15T09:03:47Z</time>
      </trkpt>
      <trkpt lat="49.69328" lon="-1.40879">
        <ele>24.3</ele>
        <time>2020-06-15T09:03:48Z</time>
      </trkpt>
      <trkpt lat="49.69329" lon="-1.40869">
        <ele>24.3</ele>
        <time>2020-06-15T09:03:49Z</time>
      </trkpt>
      <trkpt lat="49.69331" lon="-1.40861">
        <ele>24.2</ele>
        <time>2020-06-15T09:03:50Z</time>
      </trkpt>
      <trkpt lat="49.69332" lon="-1.40852">
        <ele>24.2</ele>
        <time>2020-06-15T09:03:51Z</time>
      </trkpt>
      <trkpt lat="49.69334" lon="-1.40843">
        <ele>24.2</ele>
        <time>2020-06-15T09:03:52Z</time>
      </trkpt>
      <trkpt lat="49.69335" lon="-1.40833">
        <ele>24.1</ele>
        <time>2020-06-15T09:03:53Z</time>
      </trkpt>
      <trkpt lat="49.69337" lon="-1.40826">
        <ele>24</ele>
        <time>2020-06-15T09:03:54Z</time>
      </trkpt>
      <trkpt lat="49.69339" lon="-1.40818">
        <ele>24</ele>
        <time>2020-06-15T09:03:55Z</time>
      </trkpt>
      <trkpt lat="49.69341" lon="-1.40812">
        <ele>23.9</ele>
        <time>2020-06-15T09:03:56Z</time>
      </trkpt>
      <trkpt lat="49.69343" lon="-1.40804">
        <ele>23.8</ele>
        <time>2020-06-15T09:03:57Z</time>
      </trkpt>
      <trkpt lat="49.69346" lon="-1.40798">
        <ele>23.8</ele>
        <time>2020-06-15T09:03:58Z</time>
      </trkpt>
      <trkpt lat="49.69348" lon="-1.4079">
        <ele>23.7</ele>
        <time>2020-06-15T09:03:59Z</time>
      </trkpt>
      <trkpt lat="49.69351" lon="-1.40783">
        <ele>23.6</ele>
        <time>2020-06-15T09:04:00Z</time>
      </trkpt>
      <trkpt lat="49.69353" lon="-1.40777">
        <ele>23.5</ele>
        <time>2020-06-15T09:04:01Z</time>
      </trkpt>
      <trkpt lat="49.69356" lon="-1.40767">
        <ele>23.3</ele>
        <time>2020-06-15T09:04:02Z</time>
      </trkpt>
      <trkpt lat="49.69359" lon="-1.40759">
        <ele>23.2</ele>
        <time>2020-06-15T09:04:03Z</time>
      </trkpt>
      <trkpt lat="49.69362" lon="-1.40748">
        <ele>22.9</ele>
        <time>2020-06-15T09:04:04Z</time>
      </trkpt>
      <trkpt lat="49.69366" lon="-1.40738">
        <ele>22.7</ele>
        <time>2020-06-15T09:04:05Z</time>
      </trkpt>
      <trkpt lat="49.69369" lon="-1.40728">
        <ele>22.4</ele>
        <time>2020-06-15T09:04:06Z</time>
      </trkpt>
      <trkpt lat="49.69374" lon="-1.40718">
        <ele>22.2</ele>
        <time>2020-06-15T09:04:07Z</time>
      </trkpt>
      <trkpt lat="49.69377" lon="-1.40709">
        <ele>21.9</ele>
        <time>2020-06-15T09:04:08Z</time>
      </trkpt>
      <trkpt lat="49.69379" lon="-1.407">
        <ele>21.7</ele>
        <time>2020-06-15T09:04:09Z</time>
      </trkpt>
      <trkpt lat="49.69382" lon="-1.40692">
        <ele>21.5</ele>
        <time>2020-06-15T09:04:10Z</time>
      </trkpt>
      <trkpt lat="49.69385" lon="-1.40684">
        <ele>21.3</ele>
        <time>2020-06-15T09:04:11Z</time>
      </trkpt>
      <trkpt lat="49.69387" lon="-1.40675">
        <ele>21</ele>
        <time>2020-06-15T09:04:12Z</time>
      </trkpt>
      <trkpt lat="49.6939" lon="-1.40666">
        <ele>20.9</ele>
        <time>2020-06-15T09:04:13Z</time>
      </trkpt>
      <trkpt lat="49.69393" lon="-1.40655">
        <ele>20.6</ele>
        <time>2020-06-15T09:04:14Z</time>
      </trkpt>
      <trkpt lat="49.69395" lon="-1.40644">
        <ele>20.4</ele>
        <time>2020-06-15T09:04:15Z</time>
      </trkpt>
      <trkpt lat="49.69398" lon="-1.40632">
        <ele>20</ele>
        <time>2020-06-15T09:04:16Z</time>
      </trkpt>
      <trkpt lat="49.69399" lon="-1.4062">
        <ele>19.7</ele>
        <time>2020-06-15T09:04:17Z</time>
      </trkpt>
      <trkpt lat="49.69401" lon="-1.40608">
        <ele>19.3</ele>
        <time>2020-06-15T09:04:18Z</time>
      </trkpt>
      <trkpt lat="49.69402" lon="-1.40596">
        <ele>19</ele>
        <time>2020-06-15T09:04:19Z</time>
      </trkpt>
      <trkpt lat="49.69404" lon="-1.40584">
        <ele>18.7</ele>
        <time>2020-06-15T09:04:20Z</time>
      </trkpt>
      <trkpt lat="49.69405" lon="-1.40572">
        <ele>18.4</ele>
        <time>2020-06-15T09:04:21Z</time>
      </trkpt>
      <trkpt lat="49.69406" lon="-1.4056">
        <ele>18.1</ele>
        <time>2020-06-15T09:04:22Z</time>
      </trkpt>
      <trkpt lat="49.69408" lon="-1.40548">
        <ele>17.8</ele>
        <time>2020-06-15T09:04:23Z</time>
      </trkpt>
      <trkpt lat="49.69409" lon="-1.40535">
        <ele>17.5</ele>
        <time>2020-06-15T09:04:24Z</time>
      </trkpt>
      <trkpt lat="49.69409" lon="-1.40523">
        <ele>17.3</ele>
        <time>2020-06-15T09:04:25Z</time>
      </trkpt>
      <trkpt lat="49.69409" lon="-1.40511">
        <ele>17.1</ele>
        <time>2020-06-15T09:04:26Z</time>
      </trkpt>
      <trkpt lat="49.69409" lon="-1.405">
        <ele>16.9</ele>
        <time>2020-06-15T09:04:27Z</time>
      </trkpt>
      <trkpt lat="49.69409" lon="-1.40489">
        <ele>16.8</ele>
        <time>2020-06-15T09:04:28Z</time>
      </trkpt>
      <trkpt lat="49.69408" lon="-1.40478">
        <ele>16.6</ele>
        <time>2020-06-15T09:04:29Z</time>
      </trkpt>
      <trkpt lat="49.69407" lon="-1.40467">
        <ele>16.5</ele>
        <time>2020-06-15T09:04:30Z</time>
      </trkpt>
      <trkpt lat="49.69406" lon="-1.40457">
        <ele>16.3</ele>
        <time>2020-06-15T09:04:31Z</time>
      </trkpt>
      <trkpt lat="49.69405" lon="-1.40447">
        <ele>16.3</ele>
        <time>2020-06-15T09:04:32Z</time>
      </trkpt>
      <trkpt lat="49.69404" lon="-1.40436">
        <ele>16.2</ele>
        <time>2020-06-15T09:04:33Z</time>
      </trkpt>
      <trkpt lat="49.69402" lon="-1.40426">
        <ele>16.1</ele>
        <time>2020-06-15T09:04:34Z</time>
      </trkpt>
      <trkpt lat="49.694" lon="-1.40415">
        <ele>16.1</ele>
        <time>2020-06-15T09:04:35Z</time>
      </trkpt>
      <trkpt lat="49.69398" lon="-1.40404">
        <ele>16.1</ele>
        <time>2020-06-15T09:04:36Z</time>
      </trkpt>
      <trkpt lat="49.69396" lon="-1.40394">
        <ele>16.1</ele>
        <time>2020-06-15T09:04:37Z</time>
      </trkpt>
      <trkpt lat="49.69394" lon="-1.40384">
        <ele>16</ele>
        <time>2020-06-15T09:04:38Z</time>
      </trkpt>
      <trkpt lat="49.69392" lon="-1.40373">
        <ele>16</ele>
        <time>2020-06-15T09:04:39Z</time>
      </trkpt>
      <trkpt lat="49.6939" lon="-1.40363">
        <ele>16</ele>
        <time>2020-06-15T09:04:40Z</time>
      </trkpt>
      <trkpt lat="49.69388" lon="-1.40353">
        <ele>15.9</ele>
        <time>2020-06-15T09:04:41Z</time>
      </trkpt>
      <trkpt lat="49.69387" lon="-1.40342">
        <ele>15.8</ele>
        <time>2020-06-15T09:04:42Z</time>
      </trkpt>
      <trkpt lat="49.69384" lon="-1.40332">
        <ele>15.7</ele>
        <time>2020-06-15T09:04:43Z</time>
      </trkpt>
      <trkpt lat="49.69382" lon="-1.40321">
        <ele>15.6</ele>
        <time>2020-06-15T09:04:44Z</time>
      </trkpt>
      <trkpt lat="49.6938" lon="-1.40311">
        <ele>15.5</ele>
        <time>2020-06-15T09:04:45Z</time>
      </trkpt>
      <trkpt lat="49.69378" lon="-1.403">
        <ele>15.4</ele>
        <time>2020-06-15T09:04:46Z</time>
      </trkpt>
      <trkpt lat="49.69375" lon="-1.40289">
        <ele>15.3</ele>
        <time>2020-06-15T09:04:47Z</time>
      </trkpt>
      <trkpt lat="49.69373" lon="-1.40278">
        <ele>15.2</ele>
        <time>2020-06-15T09:04:48Z</time>
      </trkpt>
      <trkpt lat="49.69371" lon="-1.40268">
        <ele>15.2</ele>
        <time>2020-06-15T09:04:49Z</time>
      </trkpt>
      <trkpt lat="49.69369" lon="-1.40257">
        <ele>15.1</ele>
        <time>2020-06-15T09:04:50Z</time>
      </trkpt>
      <trkpt lat="49.69367" lon="-1.40247">
        <ele>15.1</ele>
        <time>2020-06-15T09:04:51Z</time>
      </trkpt>
      <trkpt lat="49.69366" lon="-1.40236">
        <ele>15</ele>
        <time>2020-06-15T09:04:52Z</time>
      </trkpt>
      <trkpt lat="49.69364" lon="-1.40225">
        <ele>14.9</ele>
        <time>2020-06-15T09:04:53Z</time>
      </trkpt>
      <trkpt lat="49.69364" lon="-1.40215">
        <ele>14.9</ele>
        <time>2020-06-15T09:04:54Z</time>
      </trkpt>
      <trkpt lat="49.69363" lon="-1.40203">
        <ele>14.8</ele>
        <time>2020-06-15T09:04:55Z</time>
      </trkpt>
      <trkpt lat="49.69363" lon="-1.40192">
        <ele>14.8</ele>
        <time>2020-06-15T09:04:56Z</time>
      </trkpt>
      <trkpt lat="49.69363" lon="-1.40181">
        <ele>14.7</ele>
        <time>2020-06-15T09:04:57Z</time>
      </trkpt>
      <trkpt lat="49.69364" lon="-1.4017">
        <ele>14.7</ele>
        <time>2020-06-15T09:04:58Z</time>
      </trkpt>
      <trkpt lat="49.69366" lon="-1.40159">
        <ele>14.6</ele>
        <time>2020-06-15T09:04:59Z</time>
      </trkpt>
      <trkpt lat="49.69368" lon="-1.40148">
        <ele>14.6</ele>
        <time>2020-06-15T09:05:00Z</time>
      </trkpt>
      <trkpt lat="49.6937" lon="-1.40138">
        <ele>14.5</ele>
        <time>2020-06-15T09:05:01Z</time>
      </trkpt>
      <trkpt lat="49.69373" lon="-1.40128">
        <ele>14.5</ele>
        <time>2020-06-15T09:05:02Z</time>
      </trkpt>
      <trkpt lat="49.69376" lon="-1.40118">
        <ele>14.5</ele>
        <time>2020-06-15T09:05:03Z</time>
      </trkpt>
      <trkpt lat="49.69379" lon="-1.40107">
        <ele>14.5</ele>
        <time>2020-06-15T09:05:04Z</time>
      </trkpt>
      <trkpt lat="49.69382" lon="-1.40098">
        <ele>14.5</ele>
        <time>2020-06-15T09:05:05Z</time>
      </trkpt>
      <trkpt lat="49.69385" lon="-1.40088">
        <ele>14.5</ele>
        <time>2020-06-15T09:05:06Z</time>
      </trkpt>
      <trkpt lat="49.69389" lon="-1.40078">
        <ele>14.5</ele>
        <time>2020-06-15T09:05:07Z</time>
      </trkpt>
      <trkpt lat="49.69392" lon="-1.40069">
        <ele>14.5</ele>
        <time>2020-06-15T09:05:08Z</time>
      </trkpt>
      <trkpt lat="49.69397" lon="-1.40061">
        <ele>14.5</ele>
        <time>2020-06-15T09:05:09Z</time>
      </trkpt>
      <trkpt lat="49.694" lon="-1.40052">
        <ele>14.6</ele>
        <time>2020-06-15T09:05:10Z</time>
      </trkpt>
      <trkpt lat="49.69404" lon="-1.40042">
        <ele>14.7</ele>
        <time>2020-06-15T09:05:11Z</time>
      </trkpt>
      <trkpt lat="49.69407" lon="-1.40033">
        <ele>14.7</ele>
        <time>2020-06-15T09:05:12Z</time>
      </trkpt>
      <trkpt lat="49.69411" lon="-1.40024">
        <ele>14.9</ele>
        <time>2020-06-15T09:05:13Z</time>
      </trkpt>
      <trkpt lat="49.69415" lon="-1.40016">
        <ele>15</ele>
        <time>2020-06-15T09:05:14Z</time>
      </trkpt>
      <trkpt lat="49.69419" lon="-1.40008">
        <ele>15.1</ele>
        <time>2020-06-15T09:05:15Z</time>
      </trkpt>
      <trkpt lat="49.69422" lon="-1.39999">
        <ele>15.2</ele>
        <time>2020-06-15T09:05:16Z</time>
      </trkpt>
      <trkpt lat="49.69426" lon="-1.39991">
        <ele>15.4</ele>
        <time>2020-06-15T09:05:17Z</time>
      </trkpt>
      <trkpt lat="49.6943" lon="-1.39983">
        <ele>15.5</ele>
        <time>2020-06-15T09:05:18Z</time>
      </trkpt>
      <trkpt lat="49.69433" lon="-1.39974">
        <ele>15.6</ele>
        <time>2020-06-15T09:05:19Z</time>
      </trkpt>
      <trkpt lat="49.69436" lon="-1.39966">
        <ele>15.6</ele>
        <time>2020-06-15T09:05:20Z</time>
      </trkpt>
      <trkpt lat="49.6944" lon="-1.39958">
        <ele>15.6</ele>
        <time>2020-06-15T09:05:21Z</time>
      </trkpt>
      <trkpt lat="49.69444" lon="-1.3995">
        <ele>15.5</ele>
        <time>2020-06-15T09:05:22Z</time>
      </trkpt>
      <trkpt lat="49.69448" lon="-1.39942">
        <ele>15.5</ele>
        <time>2020-06-15T09:05:23Z</time>
      </trkpt>
      <trkpt lat="49.69452" lon="-1.39934">
        <ele>15.4</ele>
        <time>2020-06-15T09:05:24Z</time>
      </trkpt>
      <trkpt lat="49.69455" lon="-1.39925">
        <ele>15.3</ele>
        <time>2020-06-15T09:05:25Z</time>
      </trkpt>
      <trkpt lat="49.69459" lon="-1.39917">
        <ele>15.2</ele>
        <time>2020-06-15T09:05:26Z</time>
      </trkpt>
      <trkpt lat="49.69463" lon="-1.39909">
        <ele>15</ele>
        <time>2020-06-15T09:05:27Z</time>
      </trkpt>
      <trkpt lat="49.69466" lon="-1.399">
        <ele>14.9</ele>
        <time>2020-06-15T09:05:28Z</time>
      </trkpt>
      <trkpt lat="49.6947" lon="-1.39892">
        <ele>14.6</ele>
        <time>2020-06-15T09:05:29Z</time>
      </trkpt>
      <trkpt lat="49.69474" lon="-1.39883">
        <ele>14.4</ele>
        <time>2020-06-15T09:05:30Z</time>
      </trkpt>
      <trkpt lat="49.69477" lon="-1.39874">
        <ele>14.1</ele>
        <time>2020-06-15T09:05:31Z</time>
      </trkpt>
      <trkpt lat="49.69481" lon="-1.39864">
        <ele>13.7</ele>
        <time>2020-06-15T09:05:32Z</time>
      </trkpt>
      <trkpt lat="49.69485" lon="-1.39854">
        <ele>13.4</ele>
        <time>2020-06-15T09:05:33Z</time>
      </trkpt>
      <trkpt lat="49.6949" lon="-1.39844">
        <ele>13</ele>
        <time>2020-06-15T09:05:34Z</time>
      </trkpt>
      <trkpt lat="49.69494" lon="-1.39834">
        <ele>12.5</ele>
        <time>2020-06-15T09:05:35Z</time>
      </trkpt>
      <trkpt lat="49.69498" lon="-1.39823">
        <ele>12</ele>
        <time>2020-06-15T09:05:36Z</time>
      </trkpt>
      <trkpt lat="49.69502" lon="-1.3981">
        <ele>11.4</ele>
        <time>2020-06-15T09:05:37Z</time>
      </trkpt>
      <trkpt lat="49.69505" lon="-1.39798">
        <ele>10.8</ele>
        <time>2020-06-15T09:05:38Z</time>
      </trkpt>
      <trkpt lat="49.69508" lon="-1.39785">
        <ele>10.1</ele>
        <time>2020-06-15T09:05:39Z</time>
      </trkpt>
      <trkpt lat="49.69509" lon="-1.39771">
        <ele>9.5</ele>
        <time>2020-06-15T09:05:40Z</time>
      </trkpt>
      <trkpt lat="49.6951" lon="-1.39756">
        <ele>8.8</ele>
        <time>2020-06-15T09:05:41Z</time>
      </trkpt>
      <trkpt lat="49.69509" lon="-1.39741">
        <ele>8.1</ele>
        <time>2020-06-15T09:05:42Z</time>
      </trkpt>
      <trkpt lat="49.69508" lon="-1.39726">
        <ele>7.4</ele>
        <time>2020-06-15T09:05:43Z</time>
      </trkpt>
      <trkpt lat="49.69505" lon="-1.39711">
        <ele>6.6</ele>
        <time>2020-06-15T09:05:44Z</time>
      </trkpt>
      <trkpt lat="49.69502" lon="-1.39697">
        <ele>5.9</ele>
        <time>2020-06-15T09:05:45Z</time>
      </trkpt>
      <trkpt lat="49.69497" lon="-1.39683">
        <ele>5.1</ele>
        <time>2020-06-15T09:05:46Z</time>
      </trkpt>
      <trkpt lat="49.69493" lon="-1.39669">
        <ele>4.3</ele>
        <time>2020-06-15T09:05:47Z</time>
      </trkpt>
      <trkpt lat="49.69489" lon="-1.39655">
        <ele>3.7</ele>
        <time>2020-06-15T09:05:48Z</time>
      </trkpt>
      <trkpt lat="49.69484" lon="-1.39642">
        <ele>3.2</ele>
        <time>2020-06-15T09:05:49Z</time>
      </trkpt>
      <trkpt lat="49.69479" lon="-1.39629">
        <ele>2.8</ele>
        <time>2020-06-15T09:05:50Z</time>
      </trkpt>
      <trkpt lat="49.69475" lon="-1.39616">
        <ele>2.6</ele>
        <time>2020-06-15T09:05:51Z</time>
      </trkpt>
      <trkpt lat="49.6947" lon="-1.39603">
        <ele>2.5</ele>
        <time>2020-06-15T09:05:52Z</time>
      </trkpt>
      <trkpt lat="49.69466" lon="-1.3959">
        <ele>2.4</ele>
        <time>2020-06-15T09:05:53Z</time>
      </trkpt>
      <trkpt lat="49.69462" lon="-1.39577">
        <ele>2.2</ele>
        <time>2020-06-15T09:05:54Z</time>
      </trkpt>
      <trkpt lat="49.69459" lon="-1.39564">
        <ele>2.1</ele>
        <time>2020-06-15T09:05:55Z</time>
      </trkpt>
      <trkpt lat="49.69456" lon="-1.39551">
        <ele>2.1</ele>
        <time>2020-06-15T09:05:56Z</time>
      </trkpt>
      <trkpt lat="49.69454" lon="-1.39539">
        <ele>2.2</ele>
        <time>2020-06-15T09:05:57Z</time>
      </trkpt>
      <trkpt lat="49.69452" lon="-1.39527">
        <ele>2.3</ele>
        <time>2020-06-15T09:05:58Z</time>
      </trkpt>
      <trkpt lat="49.69452" lon="-1.39515">
        <ele>2.6</ele>
        <time>2020-06-15T09:05:59Z</time>
      </trkpt>
      <trkpt lat="49.69451" lon="-1.39504">
        <ele>2.8</ele>
        <time>2020-06-15T09:06:00Z</time>
      </trkpt>
      <trkpt lat="49.69451" lon="-1.39493">
        <ele>3</ele>
        <time>2020-06-15T09:06:01Z</time>
      </trkpt>
      <trkpt lat="49.69452" lon="-1.39482">
        <ele>3.3</ele>
        <time>2020-06-15T09:06:02Z</time>
      </trkpt>
      <trkpt lat="49.69452" lon="-1.39471">
        <ele>3.6</ele>
        <time>2020-06-15T09:06:03Z</time>
      </trkpt>
      <trkpt lat="49.69453" lon="-1.3946">
        <ele>4</ele>
        <time>2020-06-15T09:06:04Z</time>
      </trkpt>
      <trkpt lat="49.69454" lon="-1.3945">
        <ele>4.3</ele>
        <time>2020-06-15T09:06:05Z</time>
      </trkpt>
      <trkpt lat="49.69454" lon="-1.3944">
        <ele>4.6</ele>
        <time>2020-06-15T09:06:06Z</time>
      </trkpt>
      <trkpt lat="49.69456" lon="-1.3943">
        <ele>5</ele>
        <time>2020-06-15T09:06:07Z</time>
      </trkpt>
      <trkpt lat="49.69457" lon="-1.39421">
        <ele>5.4</ele>
        <time>2020-06-15T09:06:08Z</time>
      </trkpt>
      <trkpt lat="49.69459" lon="-1.39412">
        <ele>5.7</ele>
        <time>2020-06-15T09:06:09Z</time>
      </trkpt>
      <trkpt lat="49.6946" lon="-1.39403">
        <ele>6.1</ele>
        <time>2020-06-15T09:06:10Z</time>
      </trkpt>
      <trkpt lat="49.69461" lon="-1.39394">
        <ele>6.4</ele>
        <time>2020-06-15T09:06:11Z</time>
      </trkpt>
      <trkpt lat="49.69462" lon="-1.39386">
        <ele>6.8</ele>
        <time>2020-06-15T09:06:12Z</time>
      </trkpt>
      <trkpt lat="49.69463" lon="-1.39378">
        <ele>7.1</ele>
        <time>2020-06-15T09:06:13Z</time>
      </trkpt>
      <trkpt lat="49.69464" lon="-1.3937">
        <ele>7.4</ele>
        <time>2020-06-15T09:06:14Z</time>
      </trkpt>
      <trkpt lat="49.69465" lon="-1.39363">
        <ele>7.8</ele>
        <time>2020-06-15T09:06:15Z</time>
      </trkpt>
      <trkpt lat="49.69466" lon="-1.39355">
        <ele>8.1</ele>
        <time>2020-06-15T09:06:16Z</time>
      </trkpt>
      <trkpt lat="49.69467" lon="-1.39347">
        <ele>8.4</ele>
        <time>2020-06-15T09:06:17Z</time>
      </trkpt>
      <trkpt lat="49.69469" lon="-1.3934">
        <ele>8.7</ele>
        <time>2020-06-15T09:06:18Z</time>
      </trkpt>
      <trkpt lat="49.6947" lon="-1.39332">
        <ele>9</ele>
        <time>2020-06-15T09:06:19Z</time>
      </trkpt>
      <trkpt lat="49.69471" lon="-1.39324">
        <ele>9.6</ele>
        <time>2020-06-15T09:06:20Z</time>
      </trkpt>
      <trkpt lat="49.69472" lon="-1.39319">
        <ele>9.8</ele>
        <time>2020-06-15T09:06:21Z</time>
      </trkpt>
      <trkpt lat="49.69473" lon="-1.39313">
        <ele>10</ele>
        <time>2020-06-15T09:06:22Z</time>
      </trkpt>
      <trkpt lat="49.69475" lon="-1.39307">
        <ele>10.2</ele>
        <time>2020-06-15T09:06:23Z</time>
      </trkpt>
      <trkpt lat="49.69477" lon="-1.39303">
        <ele>10.4</ele>
        <time>2020-06-15T09:06:24Z</time>
      </trkpt>
      <trkpt lat="49.69478" lon="-1.39298">
        <ele>10.6</ele>
        <time>2020-06-15T09:06:25Z</time>
      </trkpt>
      <trkpt lat="49.6948" lon="-1.39293">
        <ele>10.8</ele>
        <time>2020-06-15T09:06:26Z</time>
      </trkpt>
      <trkpt lat="49.69481" lon="-1.39286">
        <ele>10.9</ele>
        <time>2020-06-15T09:06:27Z</time>
      </trkpt>
      <trkpt lat="49.69484" lon="-1.3928">
        <ele>11.1</ele>
        <time>2020-06-15T09:06:28Z</time>
      </trkpt>
      <trkpt lat="49.69488" lon="-1.39274">
        <ele>11.3</ele>
        <time>2020-06-15T09:06:29Z</time>
      </trkpt>
      <trkpt lat="49.6949" lon="-1.39269">
        <ele>11.4</ele>
        <time>2020-06-15T09:06:30Z</time>
      </trkpt>
      <trkpt lat="49.69492" lon="-1.39263">
        <ele>11.5</ele>
        <time>2020-06-15T09:06:31Z</time>
      </trkpt>
      <trkpt lat="49.69494" lon="-1.39256">
        <ele>11.6</ele>
        <time>2020-06-15T09:06:32Z</time>
      </trkpt>
      <trkpt lat="49.69496" lon="-1.39249">
        <ele>11.7</ele>
        <time>2020-06-15T09:06:33Z</time>
      </trkpt>
      <trkpt lat="49.69498" lon="-1.39242">
        <ele>11.8</ele>
        <time>2020-06-15T09:06:34Z</time>
      </trkpt>
      <trkpt lat="49.69501" lon="-1.39236">
        <ele>11.8</ele>
        <time>2020-06-15T09:06:35Z</time>
      </trkpt>
      <trkpt lat="49.69505" lon="-1.39229">
        <ele>11.8</ele>
        <time>2020-06-15T09:06:36Z</time>
      </trkpt>
      <trkpt lat="49.69508" lon="-1.39223">
        <ele>11.7</ele>
        <time>2020-06-15T09:06:37Z</time>
      </trkpt>
      <trkpt lat="49.69512" lon="-1.39216">
        <ele>11.7</ele>
        <time>2020-06-15T09:06:38Z</time>
      </trkpt>
      <trkpt lat="49.69516" lon="-1.39209">
        <ele>11.6</ele>
        <time>2020-06-15T09:06:39Z</time>
      </trkpt>
      <trkpt lat="49.6952" lon="-1.39201">
        <ele>11.6</ele>
        <time>2020-06-15T09:06:40Z</time>
      </trkpt>
      <trkpt lat="49.69525" lon="-1.39193">
        <ele>11.5</ele>
        <time>2020-06-15T09:06:41Z</time>
      </trkpt>
      <trkpt lat="49.69529" lon="-1.39185">
        <ele>11.4</ele>
        <time>2020-06-15T09:06:42Z</time>
      </trkpt>
      <trkpt lat="49.69534" lon="-1.39176">
        <ele>11.3</ele>
        <time>2020-06-15T09:06:43Z</time>
      </trkpt>
      <trkpt lat="49.69539" lon="-1.39167">
        <ele>11.1</ele>
        <time>2020-06-15T09:06:44Z</time>
      </trkpt>
      <trkpt lat="49.69543" lon="-1.3916">
        <ele>11.1</ele>
        <time>2020-06-15T09:06:45Z</time>
      </trkpt>
      <trkpt lat="49.69548" lon="-1.39153">
        <ele>11</ele>
        <time>2020-06-15T09:06:46Z</time>
      </trkpt>
      <trkpt lat="49.69552" lon="-1.39145">
        <ele>10.9</ele>
        <time>2020-06-15T09:06:47Z</time>
      </trkpt>
      <trkpt lat="49.69556" lon="-1.39138">
        <ele>10.8</ele>
        <time>2020-06-15T09:06:48Z</time>
      </trkpt>
      <trkpt lat="49.6956" lon="-1.39131">
        <ele>10.7</ele>
        <time>2020-06-15T09:06:49Z</time>
      </trkpt>
      <trkpt lat="49.69564" lon="-1.39123">
        <ele>10.6</ele>
        <time>2020-06-15T09:06:50Z</time>
      </trkpt>
      <trkpt lat="49.69568" lon="-1.39116">
        <ele>10.5</ele>
        <time>2020-06-15T09:06:51Z</time>
      </trkpt>
      <trkpt lat="49.69572" lon="-1.39107">
        <ele>10.3</ele>
        <time>2020-06-15T09:06:52Z</time>
      </trkpt>
      <trkpt lat="49.69576" lon="-1.391">
        <ele>10.2</ele>
        <time>2020-06-15T09:06:53Z</time>
      </trkpt>
      <trkpt lat="49.6958" lon="-1.39093">
        <ele>10.1</ele>
        <time>2020-06-15T09:06:54Z</time>
      </trkpt>
      <trkpt lat="49.69584" lon="-1.39085">
        <ele>10</ele>
        <time>2020-06-15T09:06:55Z</time>
      </trkpt>
      <trkpt lat="49.69588" lon="-1.39078">
        <ele>9.9</ele>
        <time>2020-06-15T09:06:56Z</time>
      </trkpt>
      <trkpt lat="49.69592" lon="-1.39071">
        <ele>9.8</ele>
        <time>2020-06-15T09:06:57Z</time>
      </trkpt>
      <trkpt lat="49.69596" lon="-1.39064">
        <ele>9.7</ele>
        <time>2020-06-15T09:06:58Z</time>
      </trkpt>
      <trkpt lat="49.696" lon="-1.39057">
        <ele>9.7</ele>
        <time>2020-06-15T09:06:59Z</time>
      </trkpt>
      <trkpt lat="49.69604" lon="-1.39049">
        <ele>9.6</ele>
        <time>2020-06-15T09:07:00Z</time>
      </trkpt>
      <trkpt lat="49.69608" lon="-1.39042">
        <ele>9.5</ele>
        <time>2020-06-15T09:07:01Z</time>
      </trkpt>
      <trkpt lat="49.69612" lon="-1.39034">
        <ele>9.4</ele>
        <time>2020-06-15T09:07:02Z</time>
      </trkpt>
      <trkpt lat="49.69616" lon="-1.39026">
        <ele>9.3</ele>
        <time>2020-06-15T09:07:03Z</time>
      </trkpt>
      <trkpt lat="49.6962" lon="-1.39019">
        <ele>9.2</ele>
        <time>2020-06-15T09:07:04Z</time>
      </trkpt>
      <trkpt lat="49.69624" lon="-1.39011">
        <ele>9</ele>
        <time>2020-06-15T09:07:05Z</time>
      </trkpt>
      <trkpt lat="49.69628" lon="-1.39004">
        <ele>8.8</ele>
        <time>2020-06-15T09:07:06Z</time>
      </trkpt>
      <trkpt lat="49.69631" lon="-1.38996">
        <ele>8.5</ele>
        <time>2020-06-15T09:07:07Z</time>
      </trkpt>
      <trkpt lat="49.69635" lon="-1.38989">
        <ele>8.2</ele>
        <time>2020-06-15T09:07:08Z</time>
      </trkpt>
      <trkpt lat="49.69639" lon="-1.38981">
        <ele>7.9</ele>
        <time>2020-06-15T09:07:09Z</time>
      </trkpt>
      <trkpt lat="49.69642" lon="-1.38973">
        <ele>7.5</ele>
        <time>2020-06-15T09:07:10Z</time>
      </trkpt>
      <trkpt lat="49.69646" lon="-1.38964">
        <ele>7.1</ele>
        <time>2020-06-15T09:07:11Z</time>
      </trkpt>
      <trkpt lat="49.6965" lon="-1.38955">
        <ele>6.5</ele>
        <time>2020-06-15T09:07:12Z</time>
      </trkpt>
      <trkpt lat="49.69655" lon="-1.38945">
        <ele>6</ele>
        <time>2020-06-15T09:07:13Z</time>
      </trkpt>
      <trkpt lat="49.69659" lon="-1.38935">
        <ele>5.5</ele>
        <time>2020-06-15T09:07:14Z</time>
      </trkpt>
      <trkpt lat="49.69664" lon="-1.38925">
        <ele>5</ele>
        <time>2020-06-15T09:07:15Z</time>
      </trkpt>
      <trkpt lat="49.69669" lon="-1.38914">
        <ele>4.6</ele>
        <time>2020-06-15T09:07:16Z</time>
      </trkpt>
      <trkpt lat="49.69674" lon="-1.38904">
        <ele>4.3</ele>
        <time>2020-06-15T09:07:17Z</time>
      </trkpt>
      <trkpt lat="49.69679" lon="-1.38893">
        <ele>4</ele>
        <time>2020-06-15T09:07:18Z</time>
      </trkpt>
      <trkpt lat="49.69684" lon="-1.38883">
        <ele>3.7</ele>
        <time>2020-06-15T09:07:19Z</time>
      </trkpt>
      <trkpt lat="49.69688" lon="-1.38872">
        <ele>3.4</ele>
        <time>2020-06-15T09:07:20Z</time>
      </trkpt>
      <trkpt lat="49.69692" lon="-1.3886">
        <ele>3.2</ele>
        <time>2020-06-15T09:07:21Z</time>
      </trkpt>
      <trkpt lat="49.69697" lon="-1.38849">
        <ele>3</ele>
        <time>2020-06-15T09:07:22Z</time>
      </trkpt>
      <trkpt lat="49.69701" lon="-1.38838">
        <ele>2.9</ele>
        <time>2020-06-15T09:07:23Z</time>
      </trkpt>
      <trkpt lat="49.69705" lon="-1.38827">
        <ele>2.9</ele>
        <time>2020-06-15T09:07:24Z</time>
      </trkpt>
      <trkpt lat="49.69709" lon="-1.38816">
        <ele>3</ele>
        <time>2020-06-15T09:07:25Z</time>
      </trkpt>
      <trkpt lat="49.69712" lon="-1.38804">
        <ele>3.2</ele>
        <time>2020-06-15T09:07:26Z</time>
      </trkpt>
      <trkpt lat="49.69715" lon="-1.38793">
        <ele>3.4</ele>
        <time>2020-06-15T09:07:27Z</time>
      </trkpt>
      <trkpt lat="49.69718" lon="-1.38783">
        <ele>3.7</ele>
        <time>2020-06-15T09:07:28Z</time>
      </trkpt>
      <trkpt lat="49.6972" lon="-1.38773">
        <ele>4</ele>
        <time>2020-06-15T09:07:29Z</time>
      </trkpt>
      <trkpt lat="49.69722" lon="-1.38763">
        <ele>4.4</ele>
        <time>2020-06-15T09:07:30Z</time>
      </trkpt>
      <trkpt lat="49.69724" lon="-1.38754">
        <ele>4.7</ele>
        <time>2020-06-15T09:07:31Z</time>
      </trkpt>
      <trkpt lat="49.69727" lon="-1.38745">
        <ele>5</ele>
        <time>2020-06-15T09:07:32Z</time>
      </trkpt>
      <trkpt lat="49.69728" lon="-1.38736">
        <ele>5.4</ele>
        <time>2020-06-15T09:07:33Z</time>
      </trkpt>
      <trkpt lat="49.69729" lon="-1.38726">
        <ele>5.7</ele>
        <time>2020-06-15T09:07:34Z</time>
      </trkpt>
      <trkpt lat="49.69729" lon="-1.38716">
        <ele>6</ele>
        <time>2020-06-15T09:07:35Z</time>
      </trkpt>
      <trkpt lat="49.69729" lon="-1.38707">
        <ele>6.3</ele>
        <time>2020-06-15T09:07:36Z</time>
      </trkpt>
      <trkpt lat="49.6973" lon="-1.38698">
        <ele>6.6</ele>
        <time>2020-06-15T09:07:37Z</time>
      </trkpt>
      <trkpt lat="49.6973" lon="-1.38689">
        <ele>6.8</ele>
        <time>2020-06-15T09:07:38Z</time>
      </trkpt>
      <trkpt lat="49.69731" lon="-1.3868">
        <ele>7.1</ele>
        <time>2020-06-15T09:07:39Z</time>
      </trkpt>
      <trkpt lat="49.69731" lon="-1.38671">
        <ele>7.4</ele>
        <time>2020-06-15T09:07:40Z</time>
      </trkpt>
      <trkpt lat="49.6973" lon="-1.38662">
        <ele>7.8</ele>
        <time>2020-06-15T09:07:41Z</time>
      </trkpt>
      <trkpt lat="49.6973" lon="-1.38654">
        <ele>8.1</ele>
        <time>2020-06-15T09:07:42Z</time>
      </trkpt>
      <trkpt lat="49.6973" lon="-1.38645">
        <ele>8.4</ele>
        <time>2020-06-15T09:07:43Z</time>
      </trkpt>
      <trkpt lat="49.6973" lon="-1.38638">
        <ele>8.6</ele>
        <time>2020-06-15T09:07:44Z</time>
      </trkpt>
      <trkpt lat="49.69731" lon="-1.3863">
        <ele>8.9</ele>
        <time>2020-06-15T09:07:45Z</time>
      </trkpt>
      <trkpt lat="49.6973" lon="-1.38622">
        <ele>9.1</ele>
        <time>2020-06-15T09:07:46Z</time>
      </trkpt>
      <trkpt lat="49.6973" lon="-1.38614">
        <ele>9.4</ele>
        <time>2020-06-15T09:07:47Z</time>
      </trkpt>
      <trkpt lat="49.69731" lon="-1.38607">
        <ele>9.6</ele>
        <time>2020-06-15T09:07:48Z</time>
      </trkpt>
      <trkpt lat="49.69731" lon="-1.38599">
        <ele>9.9</ele>
        <time>2020-06-15T09:07:49Z</time>
      </trkpt>
      <trkpt lat="49.6973" lon="-1.38592">
        <ele>10.1</ele>
        <time>2020-06-15T09:07:50Z</time>
      </trkpt>
      <trkpt lat="49.6973" lon="-1.38585">
        <ele>10.3</ele>
        <time>2020-06-15T09:07:51Z</time>
      </trkpt>
      <trkpt lat="49.6973" lon="-1.38578">
        <ele>10.6</ele>
        <time>2020-06-15T09:07:52Z</time>
      </trkpt>
      <trkpt lat="49.69729" lon="-1.3857">
        <ele>10.8</ele>
        <time>2020-06-15T09:07:53Z</time>
      </trkpt>
      <trkpt lat="49.69729" lon="-1.38563">
        <ele>11.1</ele>
        <time>2020-06-15T09:07:54Z</time>
      </trkpt>
      <trkpt lat="49.69728" lon="-1.38555">
        <ele>11.3</ele>
        <time>2020-06-15T09:07:55Z</time>
      </trkpt>
      <trkpt lat="49.69728" lon="-1.38547">
        <ele>11.5</ele>
        <time>2020-06-15T09:07:56Z</time>
      </trkpt>
      <trkpt lat="49.69727" lon="-1.3854">
        <ele>11.7</ele>
        <time>2020-06-15T09:07:57Z</time>
      </trkpt>
      <trkpt lat="49.69725" lon="-1.38532">
        <ele>11.9</ele>
        <time>2020-06-15T09:07:58Z</time>
      </trkpt>
      <trkpt lat="49.69724" lon="-1.38525">
        <ele>12</ele>
        <time>2020-06-15T09:07:59Z</time>
      </trkpt>
      <trkpt lat="49.69723" lon="-1.38517">
        <ele>12.2</ele>
        <time>2020-06-15T09:08:00Z</time>
      </trkpt>
      <trkpt lat="49.69722" lon="-1.3851">
        <ele>12.3</ele>
        <time>2020-06-15T09:08:01Z</time>
      </trkpt>
      <trkpt lat="49.6972" lon="-1.38502">
        <ele>12.4</ele>
        <time>2020-06-15T09:08:02Z</time>
      </trkpt>
      <trkpt lat="49.69719" lon="-1.38494">
        <ele>12.6</ele>
        <time>2020-06-15T09:08:03Z</time>
      </trkpt>
      <trkpt lat="49.69717" lon="-1.38486">
        <ele>12.7</ele>
        <time>2020-06-15T09:08:04Z</time>
      </trkpt>
      <trkpt lat="49.69716" lon="-1.38478">
        <ele>12.7</ele>
        <time>2020-06-15T09:08:05Z</time>
      </trkpt>
      <trkpt lat="49.69714" lon="-1.38471">
        <ele>12.8</ele>
        <time>2020-06-15T09:08:06Z</time>
      </trkpt>
      <trkpt lat="49.69712" lon="-1.38462">
        <ele>12.9</ele>
        <time>2020-06-15T09:08:07Z</time>
      </trkpt>
      <trkpt lat="49.69711" lon="-1.38454">
        <ele>13</ele>
        <time>2020-06-15T09:08:08Z</time>
      </trkpt>
      <trkpt lat="49.6971" lon="-1.38446">
        <ele>13.1</ele>
        <time>2020-06-15T09:08:09Z</time>
      </trkpt>
      <trkpt lat="49.69708" lon="-1.38439">
        <ele>13.2</ele>
        <time>2020-06-15T09:08:10Z</time>
      </trkpt>
      <trkpt lat="49.69707" lon="-1.38431">
        <ele>13.3</ele>
        <time>2020-06-15T09:08:11Z</time>
      </trkpt>
      <trkpt lat="49.69705" lon="-1.38424">
        <ele>13.3</ele>
        <time>2020-06-15T09:08:12Z</time>
      </trkpt>
      <trkpt lat="49.69703" lon="-1.38416">
        <ele>13.4</ele>
        <time>2020-06-15T09:08:13Z</time>
      </trkpt>
      <trkpt lat="49.69701" lon="-1.38408">
        <ele>13.5</ele>
        <time>2020-06-15T09:08:14Z</time>
      </trkpt>
      <trkpt lat="49.69699" lon="-1.384">
        <ele>13.5</ele>
        <time>2020-06-15T09:08:15Z</time>
      </trkpt>
      <trkpt lat="49.69697" lon="-1.38393">
        <ele>13.5</ele>
        <time>2020-06-15T09:08:16Z</time>
      </trkpt>
      <trkpt lat="49.69695" lon="-1.38385">
        <ele>13.6</ele>
        <time>2020-06-15T09:08:17Z</time>
      </trkpt>
      <trkpt lat="49.69694" lon="-1.38378">
        <ele>13.6</ele>
        <time>2020-06-15T09:08:18Z</time>
      </trkpt>
      <trkpt lat="49.69692" lon="-1.38368">
        <ele>13.7</ele>
        <time>2020-06-15T09:08:19Z</time>
      </trkpt>
      <trkpt lat="49.6969" lon="-1.38361">
        <ele>13.8</ele>
        <time>2020-06-15T09:08:20Z</time>
      </trkpt>
      <trkpt lat="49.69688" lon="-1.38354">
        <ele>13.8</ele>
        <time>2020-06-15T09:08:21Z</time>
      </trkpt>
      <trkpt lat="49.69686" lon="-1.38346">
        <ele>13.9</ele>
        <time>2020-06-15T09:08:22Z</time>
      </trkpt>
      <trkpt lat="49.69684" lon="-1.38339">
        <ele>14</ele>
        <time>2020-06-15T09:08:23Z</time>
      </trkpt>
      <trkpt lat="49.69682" lon="-1.38329">
        <ele>14.1</ele>
        <time>2020-06-15T09:08:24Z</time>
      </trkpt>
      <trkpt lat="49.69679" lon="-1.38323">
        <ele>14.1</ele>
        <time>2020-06-15T09:08:25Z</time>
      </trkpt>
      <trkpt lat="49.69676" lon="-1.38316">
        <ele>14.2</ele>
        <time>2020-06-15T09:08:26Z</time>
      </trkpt>
      <trkpt lat="49.69674" lon="-1.38308">
        <ele>14.2</ele>
        <time>2020-06-15T09:08:27Z</time>
      </trkpt>
      <trkpt lat="49.69671" lon="-1.38301">
        <ele>14.3</ele>
        <time>2020-06-15T09:08:28Z</time>
      </trkpt>
      <trkpt lat="49.69669" lon="-1.38294">
        <ele>14.3</ele>
        <time>2020-06-15T09:08:29Z</time>
      </trkpt>
      <trkpt lat="49.69666" lon="-1.38287">
        <ele>14.4</ele>
        <time>2020-06-15T09:08:30Z</time>
      </trkpt>
      <trkpt lat="49.69663" lon="-1.38279">
        <ele>14.5</ele>
        <time>2020-06-15T09:08:31Z</time>
      </trkpt>
      <trkpt lat="49.6966" lon="-1.38272">
        <ele>14.6</ele>
        <time>2020-06-15T09:08:32Z</time>
      </trkpt>
      <trkpt lat="49.69657" lon="-1.38267">
        <ele>14.7</ele>
        <time>2020-06-15T09:08:33Z</time>
      </trkpt>
      <trkpt lat="49.69654" lon="-1.38262">
        <ele>14.7</ele>
        <time>2020-06-15T09:08:34Z</time>
      </trkpt>
      <trkpt lat="49.6965" lon="-1.38257">
        <ele>14.8</ele>
        <time>2020-06-15T09:08:35Z</time>
      </trkpt>
      <trkpt lat="49.69646" lon="-1.38251">
        <ele>14.9</ele>
        <time>2020-06-15T09:08:36Z</time>
      </trkpt>
      <trkpt lat="49.69643" lon="-1.38246">
        <ele>14.9</ele>
        <time>2020-06-15T09:08:37Z</time>
      </trkpt>
      <trkpt lat="49.69639" lon="-1.38241">
        <ele>14.9</ele>
        <time>2020-06-15T09:08:38Z</time>
      </trkpt>
      <trkpt lat="49.69636" lon="-1.38237">
        <ele>15</ele>
        <time>2020-06-15T09:08:39Z</time>
      </trkpt>
      <trkpt lat="49.69632" lon="-1.38232">
        <ele>15</ele>
        <time>2020-06-15T09:08:40Z</time>
      </trkpt>
      <trkpt lat="49.69628" lon="-1.38228">
        <ele>15</ele>
        <time>2020-06-15T09:08:41Z</time>
      </trkpt>
      <trkpt lat="49.69624" lon="-1.38224">
        <ele>15.1</ele>
        <time>2020-06-15T09:08:42Z</time>
      </trkpt>
      <trkpt lat="49.6962" lon="-1.3822">
        <ele>15.1</ele>
        <time>2020-06-15T09:08:43Z</time>
      </trkpt>
      <trkpt lat="49.69616" lon="-1.38215">
        <ele>15.1</ele>
        <time>2020-06-15T09:08:44Z</time>
      </trkpt>
      <trkpt lat="49.69611" lon="-1.38211">
        <ele>15.1</ele>
        <time>2020-06-15T09:08:45Z</time>
      </trkpt>
      <trkpt lat="49.69606" lon="-1.38206">
        <ele>15.1</ele>
        <time>2020-06-15T09:08:46Z</time>
      </trkpt>
      <trkpt lat="49.696" lon="-1.38201">
        <ele>15</ele>
        <time>2020-06-15T09:08:47Z</time>
      </trkpt>
      <trkpt lat="49.69596" lon="-1.38196">
        <ele>15</ele>
        <time>2020-06-15T09:08:48Z</time>
      </trkpt>
      <trkpt lat="49.69591" lon="-1.38191">
        <ele>14.9</ele>
        <time>2020-06-15T09:08:49Z</time>
      </trkpt>
      <trkpt lat="49.69586" lon="-1.38186">
        <ele>14.9</ele>
        <time>2020-06-15T09:08:50Z</time>
      </trkpt>
      <trkpt lat="49.69581" lon="-1.38181">
        <ele>14.8</ele>
        <time>2020-06-15T09:08:51Z</time>
      </trkpt>
      <trkpt lat="49.69575" lon="-1.38176">
        <ele>14.8</ele>
        <time>2020-06-15T09:08:52Z</time>
      </trkpt>
      <trkpt lat="49.6957" lon="-1.38171">
        <ele>14.7</ele>
        <time>2020-06-15T09:08:53Z</time>
      </trkpt>
      <trkpt lat="49.69564" lon="-1.38166">
        <ele>14.6</ele>
        <time>2020-06-15T09:08:54Z</time>
      </trkpt>
      <trkpt lat="49.69558" lon="-1.38161">
        <ele>14.6</ele>
        <time>2020-06-15T09:08:55Z</time>
      </trkpt>
      <trkpt lat="49.69552" lon="-1.38156">
        <ele>14.5</ele>
        <time>2020-06-15T09:08:56Z</time>
      </trkpt>
      <trkpt lat="49.69547" lon="-1.38151">
        <ele>14.5</ele>
        <time>2020-06-15T09:08:57Z</time>
      </trkpt>
      <trkpt lat="49.69542" lon="-1.38145">
        <ele>14.4</ele>
        <time>2020-06-15T09:08:58Z</time>
      </trkpt>
      <trkpt lat="49.69536" lon="-1.38139">
        <ele>14.4</ele>
        <time>2020-06-15T09:08:59Z</time>
      </trkpt>
      <trkpt lat="49.6953" lon="-1.38134">
        <ele>14.4</ele>
        <time>2020-06-15T09:09:00Z</time>
      </trkpt>
      <trkpt lat="49.69524" lon="-1.38129">
        <ele>14.5</ele>
        <time>2020-06-15T09:09:01Z</time>
      </trkpt>
      <trkpt lat="49.69519" lon="-1.38124">
        <ele>14.5</ele>
        <time>2020-06-15T09:09:02Z</time>
      </trkpt>
      <trkpt lat="49.69513" lon="-1.38119">
        <ele>14.6</ele>
        <time>2020-06-15T09:09:03Z</time>
      </trkpt>
      <trkpt lat="49.69509" lon="-1.38114">
        <ele>14.7</ele>
        <time>2020-06-15T09:09:04Z</time>
      </trkpt>
      <trkpt lat="49.69504" lon="-1.38108">
        <ele>14.7</ele>
        <time>2020-06-15T09:09:05Z</time>
      </trkpt>
      <trkpt lat="49.69499" lon="-1.38103">
        <ele>14.8</ele>
        <time>2020-06-15T09:09:06Z</time>
      </trkpt>
      <trkpt lat="49.69495" lon="-1.38098">
        <ele>14.9</ele>
        <time>2020-06-15T09:09:07Z</time>
      </trkpt>
      <trkpt lat="49.6949" lon="-1.38093">
        <ele>15</ele>
        <time>2020-06-15T09:09:08Z</time>
      </trkpt>
      <trkpt lat="49.69485" lon="-1.38086">
        <ele>15.1</ele>
        <time>2020-06-15T09:09:09Z</time>
      </trkpt>
      <trkpt lat="49.69482" lon="-1.38079">
        <ele>15.3</ele>
        <time>2020-06-15T09:09:10Z</time>
      </trkpt>
      <trkpt lat="49.69478" lon="-1.38075">
        <ele>15.4</ele>
        <time>2020-06-15T09:09:11Z</time>
      </trkpt>
      <trkpt lat="49.69474" lon="-1.38069">
        <ele>15.5</ele>
        <time>2020-06-15T09:09:12Z</time>
      </trkpt>
      <trkpt lat="49.6947" lon="-1.38065">
        <ele>15.6</ele>
        <time>2020-06-15T09:09:13Z</time>
      </trkpt>
      <trkpt lat="49.69465" lon="-1.38057">
        <ele>15.7</ele>
        <time>2020-06-15T09:09:14Z</time>
      </trkpt>
      <trkpt lat="49.69461" lon="-1.38051">
        <ele>15.8</ele>
        <time>2020-06-15T09:09:15Z</time>
      </trkpt>
      <trkpt lat="49.69458" lon="-1.38045">
        <ele>16</ele>
        <time>2020-06-15T09:09:16Z</time>
      </trkpt>
      <trkpt lat="49.69455" lon="-1.38039">
        <ele>16.1</ele>
        <time>2020-06-15T09:09:17Z</time>
      </trkpt>
      <trkpt lat="49.69452" lon="-1.38032">
        <ele>16.2</ele>
        <time>2020-06-15T09:09:18Z</time>
      </trkpt>
      <trkpt lat="49.69449" lon="-1.38027">
        <ele>16.3</ele>
        <time>2020-06-15T09:09:19Z</time>
      </trkpt>
      <trkpt lat="49.69446" lon="-1.38021">
        <ele>16.4</ele>
        <time>2020-06-15T09:09:20Z</time>
      </trkpt>
      <trkpt lat="49.69443" lon="-1.38014">
        <ele>16.6</ele>
        <time>2020-06-15T09:09:21Z</time>
      </trkpt>
      <trkpt lat="49.6944" lon="-1.38005">
        <ele>16.7</ele>
        <time>2020-06-15T09:09:22Z</time>
      </trkpt>
      <trkpt lat="49.69436" lon="-1.37997">
        <ele>16.9</ele>
        <time>2020-06-15T09:09:23Z</time>
      </trkpt>
      <trkpt lat="49.69432" lon="-1.3799">
        <ele>17</ele>
        <time>2020-06-15T09:09:24Z</time>
      </trkpt>
      <trkpt lat="49.69429" lon="-1.37984">
        <ele>17.1</ele>
        <time>2020-06-15T09:09:25Z</time>
      </trkpt>
      <trkpt lat="49.69427" lon="-1.37977">
        <ele>17.3</ele>
        <time>2020-06-15T09:09:26Z</time>
      </trkpt>
      <trkpt lat="49.69424" lon="-1.37971">
        <ele>17.4</ele>
        <time>2020-06-15T09:09:27Z</time>
      </trkpt>
      <trkpt lat="49.69422" lon="-1.37963">
        <ele>17.5</ele>
        <time>2020-06-15T09:09:28Z</time>
      </trkpt>
      <trkpt lat="49.69419" lon="-1.37955">
        <ele>17.5</ele>
        <time>2020-06-15T09:09:29Z</time>
      </trkpt>
      <trkpt lat="49.69417" lon="-1.37948">
        <ele>17.6</ele>
        <time>2020-06-15T09:09:30Z</time>
      </trkpt>
      <trkpt lat="49.69415" lon="-1.37941">
        <ele>17.6</ele>
        <time>2020-06-15T09:09:31Z</time>
      </trkpt>
      <trkpt lat="49.69412" lon="-1.37934">
        <ele>17.7</ele>
        <time>2020-06-15T09:09:32Z</time>
      </trkpt>
      <trkpt lat="49.6941" lon="-1.37928">
        <ele>17.7</ele>
        <time>2020-06-15T09:09:33Z</time>
      </trkpt>
      <trkpt lat="49.69408" lon="-1.3792">
        <ele>17.7</ele>
        <time>2020-06-15T09:09:34Z</time>
      </trkpt>
      <trkpt lat="49.69406" lon="-1.37913">
        <ele>17.8</ele>
        <time>2020-06-15T09:09:35Z</time>
      </trkpt>
      <trkpt lat="49.69404" lon="-1.37905">
        <ele>17.8</ele>
        <time>2020-06-15T09:09:36Z</time>
      </trkpt>
      <trkpt lat="49.69402" lon="-1.37897">
        <ele>17.8</ele>
        <time>2020-06-15T09:09:37Z</time>
      </trkpt>
      <trkpt lat="49.694" lon="-1.3789">
        <ele>17.8</ele>
        <time>2020-06-15T09:09:38Z</time>
      </trkpt>
      <trkpt lat="49.69397" lon="-1.37884">
        <ele>17.8</ele>
        <time>2020-06-15T09:09:39Z</time>
      </trkpt>
      <trkpt lat="49.69395" lon="-1.37876">
        <ele>17.8</ele>
        <time>2020-06-15T09:09:40Z</time>
      </trkpt>
      <trkpt lat="49.69392" lon="-1.37868">
        <ele>17.8</ele>
        <time>2020-06-15T09:09:41Z</time>
      </trkpt>
      <trkpt lat="49.69389" lon="-1.37861">
        <ele>17.7</ele>
        <time>2020-06-15T09:09:42Z</time>
      </trkpt>
      <trkpt lat="49.69387" lon="-1.37853">
        <ele>17.7</ele>
        <time>2020-06-15T09:09:43Z</time>
      </trkpt>
      <trkpt lat="49.69384" lon="-1.37845">
        <ele>17.7</ele>
        <time>2020-06-15T09:09:44Z</time>
      </trkpt>
      <trkpt lat="49.69382" lon="-1.37836">
        <ele>17.7</ele>
        <time>2020-06-15T09:09:45Z</time>
      </trkpt>
      <trkpt lat="49.69379" lon="-1.37828">
        <ele>17.7</ele>
        <time>2020-06-15T09:09:46Z</time>
      </trkpt>
      <trkpt lat="49.69376" lon="-1.37819">
        <ele>17.7</ele>
        <time>2020-06-15T09:09:47Z</time>
      </trkpt>
      <trkpt lat="49.69373" lon="-1.37811">
        <ele>17.6</ele>
        <time>2020-06-15T09:09:48Z</time>
      </trkpt>
      <trkpt lat="49.6937" lon="-1.37803">
        <ele>17.6</ele>
        <time>2020-06-15T09:09:49Z</time>
      </trkpt>
      <trkpt lat="49.69367" lon="-1.37795">
        <ele>17.6</ele>
        <time>2020-06-15T09:09:50Z</time>
      </trkpt>
      <trkpt lat="49.69365" lon="-1.37786">
        <ele>17.6</ele>
        <time>2020-06-15T09:09:51Z</time>
      </trkpt>
      <trkpt lat="49.69362" lon="-1.37778">
        <ele>17.6</ele>
        <time>2020-06-15T09:09:52Z</time>
      </trkpt>
      <trkpt lat="49.6936" lon="-1.37768">
        <ele>17.6</ele>
        <time>2020-06-15T09:09:53Z</time>
      </trkpt>
      <trkpt lat="49.69357" lon="-1.37758">
        <ele>17.6</ele>
        <time>2020-06-15T09:09:54Z</time>
      </trkpt>
      <trkpt lat="49.69354" lon="-1.37748">
        <ele>17.5</ele>
        <time>2020-06-15T09:09:55Z</time>
      </trkpt>
      <trkpt lat="49.69352" lon="-1.37738">
        <ele>17.5</ele>
        <time>2020-06-15T09:09:56Z</time>
      </trkpt>
      <trkpt lat="49.69351" lon="-1.37729">
        <ele>17.5</ele>
        <time>2020-06-15T09:09:57Z</time>
      </trkpt>
      <trkpt lat="49.69349" lon="-1.37719">
        <ele>17.5</ele>
        <time>2020-06-15T09:09:58Z</time>
      </trkpt>
      <trkpt lat="49.69348" lon="-1.37709">
        <ele>17.5</ele>
        <time>2020-06-15T09:09:59Z</time>
      </trkpt>
      <trkpt lat="49.69347" lon="-1.37698">
        <ele>17.5</ele>
        <time>2020-06-15T09:10:00Z</time>
      </trkpt>
      <trkpt lat="49.69347" lon="-1.37689">
        <ele>17.5</ele>
        <time>2020-06-15T09:10:01Z</time>
      </trkpt>
      <trkpt lat="49.69347" lon="-1.3768">
        <ele>17.4</ele>
        <time>2020-06-15T09:10:02Z</time>
      </trkpt>
      <trkpt lat="49.69347" lon="-1.3767">
        <ele>17.4</ele>
        <time>2020-06-15T09:10:03Z</time>
      </trkpt>
      <trkpt lat="49.69348" lon="-1.37661">
        <ele>17.4</ele>
        <time>2020-06-15T09:10:04Z</time>
      </trkpt>
      <trkpt lat="49.69348" lon="-1.37651">
        <ele>17.4</ele>
        <time>2020-06-15T09:10:05Z</time>
      </trkpt>
      <trkpt lat="49.69348" lon="-1.37642">
        <ele>17.4</ele>
        <time>2020-06-15T09:10:06Z</time>
      </trkpt>
      <trkpt lat="49.69349" lon="-1.37633">
        <ele>17.4</ele>
        <time>2020-06-15T09:10:07Z</time>
      </trkpt>
      <trkpt lat="49.69349" lon="-1.37624">
        <ele>17.3</ele>
        <time>2020-06-15T09:10:08Z</time>
      </trkpt>
      <trkpt lat="49.6935" lon="-1.37615">
        <ele>17.3</ele>
        <time>2020-06-15T09:10:09Z</time>
      </trkpt>
      <trkpt lat="49.69351" lon="-1.37605">
        <ele>17.2</ele>
        <time>2020-06-15T09:10:10Z</time>
      </trkpt>
      <trkpt lat="49.69351" lon="-1.37595">
        <ele>17.2</ele>
        <time>2020-06-15T09:10:11Z</time>
      </trkpt>
      <trkpt lat="49.69352" lon="-1.37586">
        <ele>17.1</ele>
        <time>2020-06-15T09:10:12Z</time>
      </trkpt>
      <trkpt lat="49.69353" lon="-1.37576">
        <ele>17</ele>
        <time>2020-06-15T09:10:13Z</time>
      </trkpt>
      <trkpt lat="49.69353" lon="-1.37566">
        <ele>16.8</ele>
        <time>2020-06-15T09:10:14Z</time>
      </trkpt>
      <trkpt lat="49.69353" lon="-1.37556">
        <ele>16.6</ele>
        <time>2020-06-15T09:10:15Z</time>
      </trkpt>
      <trkpt lat="49.69353" lon="-1.37545">
        <ele>16.5</ele>
        <time>2020-06-15T09:10:16Z</time>
      </trkpt>
      <trkpt lat="49.69353" lon="-1.37535">
        <ele>16.3</ele>
        <time>2020-06-15T09:10:17Z</time>
      </trkpt>
      <trkpt lat="49.69353" lon="-1.37526">
        <ele>16.1</ele>
        <time>2020-06-15T09:10:18Z</time>
      </trkpt>
      <trkpt lat="49.69353" lon="-1.37515">
        <ele>15.9</ele>
        <time>2020-06-15T09:10:19Z</time>
      </trkpt>
      <trkpt lat="49.69353" lon="-1.37505">
        <ele>15.8</ele>
        <time>2020-06-15T09:10:20Z</time>
      </trkpt>
      <trkpt lat="49.69353" lon="-1.37495">
        <ele>15.6</ele>
        <time>2020-06-15T09:10:21Z</time>
      </trkpt>
      <trkpt lat="49.69352" lon="-1.37484">
        <ele>15.4</ele>
        <time>2020-06-15T09:10:22Z</time>
      </trkpt>
      <trkpt lat="49.69352" lon="-1.37473">
        <ele>15.1</ele>
        <time>2020-06-15T09:10:23Z</time>
      </trkpt>
      <trkpt lat="49.69352" lon="-1.37463">
        <ele>14.9</ele>
        <time>2020-06-15T09:10:24Z</time>
      </trkpt>
      <trkpt lat="49.69352" lon="-1.37452">
        <ele>14.6</ele>
        <time>2020-06-15T09:10:25Z</time>
      </trkpt>
      <trkpt lat="49.69351" lon="-1.37441">
        <ele>14.4</ele>
        <time>2020-06-15T09:10:26Z</time>
      </trkpt>
      <trkpt lat="49.69351" lon="-1.3743">
        <ele>14</ele>
        <time>2020-06-15T09:10:27Z</time>
      </trkpt>
      <trkpt lat="49.69351" lon="-1.37419">
        <ele>13.7</ele>
        <time>2020-06-15T09:10:28Z</time>
      </trkpt>
      <trkpt lat="49.69351" lon="-1.37407">
        <ele>13.4</ele>
        <time>2020-06-15T09:10:29Z</time>
      </trkpt>
      <trkpt lat="49.69351" lon="-1.37396">
        <ele>13.2</ele>
        <time>2020-06-15T09:10:30Z</time>
      </trkpt>
      <trkpt lat="49.69351" lon="-1.37384">
        <ele>12.9</ele>
        <time>2020-06-15T09:10:31Z</time>
      </trkpt>
      <trkpt lat="49.69351" lon="-1.37372">
        <ele>12.6</ele>
        <time>2020-06-15T09:10:32Z</time>
      </trkpt>
      <trkpt lat="49.69352" lon="-1.3736">
        <ele>12.3</ele>
        <time>2020-06-15T09:10:33Z</time>
      </trkpt>
      <trkpt lat="49.69352" lon="-1.37349">
        <ele>12</ele>
        <time>2020-06-15T09:10:34Z</time>
      </trkpt>
      <trkpt lat="49.69353" lon="-1.37337">
        <ele>11.7</ele>
        <time>2020-06-15T09:10:35Z</time>
      </trkpt>
      <trkpt lat="49.69353" lon="-1.37325">
        <ele>11.5</ele>
        <time>2020-06-15T09:10:36Z</time>
      </trkpt>
      <trkpt lat="49.69354" lon="-1.37313">
        <ele>11.2</ele>
        <time>2020-06-15T09:10:37Z</time>
      </trkpt>
      <trkpt lat="49.69355" lon="-1.37301">
        <ele>10.9</ele>
        <time>2020-06-15T09:10:38Z</time>
      </trkpt>
      <trkpt lat="49.69355" lon="-1.37289">
        <ele>10.6</ele>
        <time>2020-06-15T09:10:39Z</time>
      </trkpt>
      <trkpt lat="49.69355" lon="-1.37277">
        <ele>10.2</ele>
        <time>2020-06-15T09:10:40Z</time>
      </trkpt>
      <trkpt lat="49.69355" lon="-1.37265">
        <ele>9.9</ele>
        <time>2020-06-15T09:10:41Z</time>
      </trkpt>
      <trkpt lat="49.69355" lon="-1.37253">
        <ele>9.5</ele>
        <time>2020-06-15T09:10:42Z</time>
      </trkpt>
      <trkpt lat="49.69355" lon="-1.37241">
        <ele>9.2</ele>
        <time>2020-06-15T09:10:43Z</time>
      </trkpt>
      <trkpt lat="49.69356" lon="-1.37228">
        <ele>9</ele>
        <time>2020-06-15T09:10:44Z</time>
      </trkpt>
      <trkpt lat="49.69357" lon="-1.37216">
        <ele>8.7</ele>
        <time>2020-06-15T09:10:45Z</time>
      </trkpt>
      <trkpt lat="49.69357" lon="-1.37204">
        <ele>8.5</ele>
        <time>2020-06-15T09:10:46Z</time>
      </trkpt>
      <trkpt lat="49.69358" lon="-1.37191">
        <ele>8.4</ele>
        <time>2020-06-15T09:10:47Z</time>
      </trkpt>
      <trkpt lat="49.69357" lon="-1.37179">
        <ele>8.1</ele>
        <time>2020-06-15T09:10:48Z</time>
      </trkpt>
      <trkpt lat="49.69358" lon="-1.37166">
        <ele>7.8</ele>
        <time>2020-06-15T09:10:49Z</time>
      </trkpt>
      <trkpt lat="49.69357" lon="-1.37154">
        <ele>7.6</ele>
        <time>2020-06-15T09:10:50Z</time>
      </trkpt>
      <trkpt lat="49.69357" lon="-1.37142">
        <ele>7.4</ele>
        <time>2020-06-15T09:10:51Z</time>
      </trkpt>
      <trkpt lat="49.69356" lon="-1.3713">
        <ele>7.3</ele>
        <time>2020-06-15T09:10:52Z</time>
      </trkpt>
      <trkpt lat="49.69356" lon="-1.37118">
        <ele>7.1</ele>
        <time>2020-06-15T09:10:53Z</time>
      </trkpt>
      <trkpt lat="49.69355" lon="-1.37106">
        <ele>7</ele>
        <time>2020-06-15T09:10:54Z</time>
      </trkpt>
      <trkpt lat="49.69355" lon="-1.37094">
        <ele>6.8</ele>
        <time>2020-06-15T09:10:55Z</time>
      </trkpt>
      <trkpt lat="49.69354" lon="-1.37083">
        <ele>6.7</ele>
        <time>2020-06-15T09:10:56Z</time>
      </trkpt>
      <trkpt lat="49.69354" lon="-1.37071">
        <ele>6.7</ele>
        <time>2020-06-15T09:10:57Z</time>
      </trkpt>
      <trkpt lat="49.69352" lon="-1.3706">
        <ele>6.6</ele>
        <time>2020-06-15T09:10:58Z</time>
      </trkpt>
      <trkpt lat="49.69352" lon="-1.37048">
        <ele>6.6</ele>
        <time>2020-06-15T09:10:59Z</time>
      </trkpt>
      <trkpt lat="49.6935" lon="-1.37038">
        <ele>6.7</ele>
        <time>2020-06-15T09:11:00Z</time>
      </trkpt>
      <trkpt lat="49.69349" lon="-1.37027">
        <ele>6.8</ele>
        <time>2020-06-15T09:11:01Z</time>
      </trkpt>
      <trkpt lat="49.69347" lon="-1.37017">
        <ele>7</ele>
        <time>2020-06-15T09:11:02Z</time>
      </trkpt>
      <trkpt lat="49.69345" lon="-1.37007">
        <ele>7.1</ele>
        <time>2020-06-15T09:11:03Z</time>
      </trkpt>
      <trkpt lat="49.69342" lon="-1.36997">
        <ele>7.3</ele>
        <time>2020-06-15T09:11:04Z</time>
      </trkpt>
      <trkpt lat="49.6934" lon="-1.36988">
        <ele>7.5</ele>
        <time>2020-06-15T09:11:05Z</time>
      </trkpt>
      <trkpt lat="49.69338" lon="-1.3698">
        <ele>7.8</ele>
        <time>2020-06-15T09:11:06Z</time>
      </trkpt>
      <trkpt lat="49.69336" lon="-1.36971">
        <ele>8</ele>
        <time>2020-06-15T09:11:07Z</time>
      </trkpt>
      <trkpt lat="49.69333" lon="-1.36962">
        <ele>8.3</ele>
        <time>2020-06-15T09:11:08Z</time>
      </trkpt>
      <trkpt lat="49.6933" lon="-1.36955">
        <ele>8.7</ele>
        <time>2020-06-15T09:11:09Z</time>
      </trkpt>
      <trkpt lat="49.69328" lon="-1.36946">
        <ele>9</ele>
        <time>2020-06-15T09:11:10Z</time>
      </trkpt>
      <trkpt lat="49.69325" lon="-1.36939">
        <ele>9.4</ele>
        <time>2020-06-15T09:11:11Z</time>
      </trkpt>
      <trkpt lat="49.69322" lon="-1.36931">
        <ele>9.7</ele>
        <time>2020-06-15T09:11:12Z</time>
      </trkpt>
      <trkpt lat="49.6932" lon="-1.36924">
        <ele>10.1</ele>
        <time>2020-06-15T09:11:13Z</time>
      </trkpt>
      <trkpt lat="49.69318" lon="-1.36916">
        <ele>10.5</ele>
        <time>2020-06-15T09:11:14Z</time>
      </trkpt>
      <trkpt lat="49.69316" lon="-1.36909">
        <ele>10.9</ele>
        <time>2020-06-15T09:11:15Z</time>
      </trkpt>
      <trkpt lat="49.69314" lon="-1.36903">
        <ele>11.2</ele>
        <time>2020-06-15T09:11:16Z</time>
      </trkpt>
      <trkpt lat="49.69312" lon="-1.36896">
        <ele>11.6</ele>
        <time>2020-06-15T09:11:17Z</time>
      </trkpt>
      <trkpt lat="49.69311" lon="-1.3689">
        <ele>11.9</ele>
        <time>2020-06-15T09:11:18Z</time>
      </trkpt>
      <trkpt lat="49.69309" lon="-1.36884">
        <ele>12.3</ele>
        <time>2020-06-15T09:11:19Z</time>
      </trkpt>
      <trkpt lat="49.69308" lon="-1.36878">
        <ele>12.6</ele>
        <time>2020-06-15T09:11:20Z</time>
      </trkpt>
      <trkpt lat="49.69306" lon="-1.36872">
        <ele>12.9</ele>
        <time>2020-06-15T09:11:21Z</time>
      </trkpt>
      <trkpt lat="49.69304" lon="-1.36867">
        <ele>13.3</ele>
        <time>2020-06-15T09:11:22Z</time>
      </trkpt>
      <trkpt lat="49.69303" lon="-1.36862">
        <ele>13.6</ele>
        <time>2020-06-15T09:11:23Z</time>
      </trkpt>
      <trkpt lat="49.69301" lon="-1.36857">
        <ele>13.9</ele>
        <time>2020-06-15T09:11:24Z</time>
      </trkpt>
      <trkpt lat="49.693" lon="-1.36851">
        <ele>14.2</ele>
        <time>2020-06-15T09:11:25Z</time>
      </trkpt>
      <trkpt lat="49.69298" lon="-1.36846">
        <ele>14.5</ele>
        <time>2020-06-15T09:11:26Z</time>
      </trkpt>
      <trkpt lat="49.69297" lon="-1.3684">
        <ele>14.8</ele>
        <time>2020-06-15T09:11:27Z</time>
      </trkpt>
      <trkpt lat="49.69296" lon="-1.36834">
        <ele>15.1</ele>
        <time>2020-06-15T09:11:28Z</time>
      </trkpt>
      <trkpt lat="49.69295" lon="-1.36829">
        <ele>15.3</ele>
        <time>2020-06-15T09:11:29Z</time>
      </trkpt>
      <trkpt lat="49.69294" lon="-1.36824">
        <ele>15.6</ele>
        <time>2020-06-15T09:11:30Z</time>
      </trkpt>
      <trkpt lat="49.69293" lon="-1.3682">
        <ele>15.8</ele>
        <time>2020-06-15T09:11:31Z</time>
      </trkpt>
      <trkpt lat="49.69293" lon="-1.36813">
        <ele>16.1</ele>
        <time>2020-06-15T09:11:32Z</time>
      </trkpt>
      <trkpt lat="49.69292" lon="-1.36811">
        <ele>16.2</ele>
        <time>2020-06-15T09:11:33Z</time>
      </trkpt>
      <trkpt lat="49.69291" lon="-1.36806">
        <ele>16.4</ele>
        <time>2020-06-15T09:11:34Z</time>
      </trkpt>
      <trkpt lat="49.6929" lon="-1.36801">
        <ele>16.6</ele>
        <time>2020-06-15T09:11:35Z</time>
      </trkpt>
      <trkpt lat="49.6929" lon="-1.36795">
        <ele>16.9</ele>
        <time>2020-06-15T09:11:36Z</time>
      </trkpt>
      <trkpt lat="49.6929" lon="-1.3679">
        <ele>17.1</ele>
        <time>2020-06-15T09:11:37Z</time>
      </trkpt>
      <trkpt lat="49.69289" lon="-1.36785">
        <ele>17.3</ele>
        <time>2020-06-15T09:11:38Z</time>
      </trkpt>
      <trkpt lat="49.69288" lon="-1.3678">
        <ele>17.6</ele>
        <time>2020-06-15T09:11:39Z</time>
      </trkpt>
      <trkpt lat="49.69287" lon="-1.36774">
        <ele>17.9</ele>
        <time>2020-06-15T09:11:40Z</time>
      </trkpt>
      <trkpt lat="49.69286" lon="-1.36772">
        <ele>18</ele>
        <time>2020-06-15T09:11:41Z</time>
      </trkpt>
      <trkpt lat="49.69286" lon="-1.36767">
        <ele>18.3</ele>
        <time>2020-06-15T09:11:42Z</time>
      </trkpt>
      <trkpt lat="49.69285" lon="-1.3676">
        <ele>18.6</ele>
        <time>2020-06-15T09:11:43Z</time>
      </trkpt>
      <trkpt lat="49.69285" lon="-1.36755">
        <ele>18.8</ele>
        <time>2020-06-15T09:11:44Z</time>
      </trkpt>
      <trkpt lat="49.69285" lon="-1.3675">
        <ele>19.1</ele>
        <time>2020-06-15T09:11:45Z</time>
      </trkpt>
      <trkpt lat="49.69285" lon="-1.36748">
        <ele>19.1</ele>
        <time>2020-06-15T09:11:46Z</time>
      </trkpt>
      <trkpt lat="49.69283" lon="-1.36741">
        <ele>19.4</ele>
        <time>2020-06-15T09:11:47Z</time>
      </trkpt>
      <trkpt lat="49.69283" lon="-1.36739">
        <ele>19.5</ele>
        <time>2020-06-15T09:11:48Z</time>
      </trkpt>
      <trkpt lat="49.69283" lon="-1.36734">
        <ele>19.7</ele>
        <time>2020-06-15T09:11:49Z</time>
      </trkpt>
      <trkpt lat="49.69282" lon="-1.36729">
        <ele>19.9</ele>
        <time>2020-06-15T09:11:50Z</time>
      </trkpt>
      <trkpt lat="49.69282" lon="-1.36724">
        <ele>20</ele>
        <time>2020-06-15T09:11:51Z</time>
      </trkpt>
      <trkpt lat="49.6928" lon="-1.36719">
        <ele>20.1</ele>
        <time>2020-06-15T09:11:52Z</time>
      </trkpt>
      <trkpt lat="49.69279" lon="-1.36714">
        <ele>20.3</ele>
        <time>2020-06-15T09:11:53Z</time>
      </trkpt>
      <trkpt lat="49.69278" lon="-1.36709">
        <ele>20.4</ele>
        <time>2020-06-15T09:11:54Z</time>
      </trkpt>
      <trkpt lat="49.69278" lon="-1.36704">
        <ele>20.5</ele>
        <time>2020-06-15T09:11:55Z</time>
      </trkpt>
      <trkpt lat="49.69277" lon="-1.36698">
        <ele>20.7</ele>
        <time>2020-06-15T09:11:56Z</time>
      </trkpt>
      <trkpt lat="49.69276" lon="-1.36691">
        <ele>20.9</ele>
        <time>2020-06-15T09:11:57Z</time>
      </trkpt>
      <trkpt lat="49.69274" lon="-1.36685">
        <ele>21</ele>
        <time>2020-06-15T09:11:58Z</time>
      </trkpt>
      <trkpt lat="49.69273" lon="-1.36679">
        <ele>21.2</ele>
        <time>2020-06-15T09:11:59Z</time>
      </trkpt>
      <trkpt lat="49.69272" lon="-1.36672">
        <ele>21.3</ele>
        <time>2020-06-15T09:12:00Z</time>
      </trkpt>
      <trkpt lat="49.6927" lon="-1.36666">
        <ele>21.4</ele>
        <time>2020-06-15T09:12:01Z</time>
      </trkpt>
      <trkpt lat="49.69269" lon="-1.36658">
        <ele>21.6</ele>
        <time>2020-06-15T09:12:02Z</time>
      </trkpt>
      <trkpt lat="49.69268" lon="-1.36651">
        <ele>21.7</ele>
        <time>2020-06-15T09:12:03Z</time>
      </trkpt>
      <trkpt lat="49.69266" lon="-1.36644">
        <ele>21.8</ele>
        <time>2020-06-15T09:12:04Z</time>
      </trkpt>
      <trkpt lat="49.69265" lon="-1.36636">
        <ele>22</ele>
        <time>2020-06-15T09:12:05Z</time>
      </trkpt>
      <trkpt lat="49.69264" lon="-1.36627">
        <ele>22.1</ele>
        <time>2020-06-15T09:12:06Z</time>
      </trkpt>
      <trkpt lat="49.69262" lon="-1.36619">
        <ele>22.2</ele>
        <time>2020-06-15T09:12:07Z</time>
      </trkpt>
      <trkpt lat="49.69261" lon="-1.36611">
        <ele>22.4</ele>
        <time>2020-06-15T09:12:08Z</time>
      </trkpt>
      <trkpt lat="49.6926" lon="-1.36602">
        <ele>22.5</ele>
        <time>2020-06-15T09:12:09Z</time>
      </trkpt>
      <trkpt lat="49.69259" lon="-1.36595">
        <ele>22.7</ele>
        <time>2020-06-15T09:12:10Z</time>
      </trkpt>
      <trkpt lat="49.69257" lon="-1.36587">
        <ele>22.8</ele>
        <time>2020-06-15T09:12:11Z</time>
      </trkpt>
      <trkpt lat="49.69255" lon="-1.36579">
        <ele>23</ele>
        <time>2020-06-15T09:12:12Z</time>
      </trkpt>
      <trkpt lat="49.69254" lon="-1.36572">
        <ele>23.1</ele>
        <time>2020-06-15T09:12:13Z</time>
      </trkpt>
      <trkpt lat="49.69253" lon="-1.36564">
        <ele>23.2</ele>
        <time>2020-06-15T09:12:14Z</time>
      </trkpt>
      <trkpt lat="49.69251" lon="-1.36556">
        <ele>23.3</ele>
        <time>2020-06-15T09:12:15Z</time>
      </trkpt>
      <trkpt lat="49.69249" lon="-1.36548">
        <ele>23.5</ele>
        <time>2020-06-15T09:12:16Z</time>
      </trkpt>
      <trkpt lat="49.69248" lon="-1.3654">
        <ele>23.6</ele>
        <time>2020-06-15T09:12:17Z</time>
      </trkpt>
      <trkpt lat="49.69246" lon="-1.36533">
        <ele>23.7</ele>
        <time>2020-06-15T09:12:18Z</time>
      </trkpt>
      <trkpt lat="49.69245" lon="-1.36525">
        <ele>23.8</ele>
        <time>2020-06-15T09:12:19Z</time>
      </trkpt>
      <trkpt lat="49.69244" lon="-1.36517">
        <ele>24</ele>
        <time>2020-06-15T09:12:20Z</time>
      </trkpt>
      <trkpt lat="49.69243" lon="-1.36509">
        <ele>24.1</ele>
        <time>2020-06-15T09:12:21Z</time>
      </trkpt>
      <trkpt lat="49.69242" lon="-1.36501">
        <ele>24.2</ele>
        <time>2020-06-15T09:12:22Z</time>
      </trkpt>
      <trkpt lat="49.69241" lon="-1.36494">
        <ele>24.3</ele>
        <time>2020-06-15T09:12:23Z</time>
      </trkpt>
      <trkpt lat="49.69239" lon="-1.36486">
        <ele>24.3</ele>
        <time>2020-06-15T09:12:24Z</time>
      </trkpt>
      <trkpt lat="49.69238" lon="-1.36479">
        <ele>24.3</ele>
        <time>2020-06-15T09:12:25Z</time>
      </trkpt>
      <trkpt lat="49.69236" lon="-1.36471">
        <ele>24.3</ele>
        <time>2020-06-15T09:12:26Z</time>
      </trkpt>
      <trkpt lat="49.69234" lon="-1.36462">
        <ele>24.4</ele>
        <time>2020-06-15T09:12:27Z</time>
      </trkpt>
      <trkpt lat="49.69232" lon="-1.36455">
        <ele>24.4</ele>
        <time>2020-06-15T09:12:28Z</time>
      </trkpt>
      <trkpt lat="49.6923" lon="-1.36447">
        <ele>24.5</ele>
        <time>2020-06-15T09:12:29Z</time>
      </trkpt>
      <trkpt lat="49.69228" lon="-1.36439">
        <ele>24.5</ele>
        <time>2020-06-15T09:12:30Z</time>
      </trkpt>
      <trkpt lat="49.69227" lon="-1.3643">
        <ele>24.5</ele>
        <time>2020-06-15T09:12:31Z</time>
      </trkpt>
      <trkpt lat="49.69224" lon="-1.36421">
        <ele>24.6</ele>
        <time>2020-06-15T09:12:32Z</time>
      </trkpt>
      <trkpt lat="49.69222" lon="-1.36413">
        <ele>24.6</ele>
        <time>2020-06-15T09:12:33Z</time>
      </trkpt>
      <trkpt lat="49.6922" lon="-1.36406">
        <ele>24.6</ele>
        <time>2020-06-15T09:12:34Z</time>
      </trkpt>
      <trkpt lat="49.69217" lon="-1.36398">
        <ele>24.7</ele>
        <time>2020-06-15T09:12:35Z</time>
      </trkpt>
      <trkpt lat="49.69214" lon="-1.3639">
        <ele>24.8</ele>
        <time>2020-06-15T09:12:36Z</time>
      </trkpt>
      <trkpt lat="49.69212" lon="-1.36382">
        <ele>24.8</ele>
        <time>2020-06-15T09:12:37Z</time>
      </trkpt>
      <trkpt lat="49.69209" lon="-1.36373">
        <ele>24.9</ele>
        <time>2020-06-15T09:12:38Z</time>
      </trkpt>
      <trkpt lat="49.69207" lon="-1.36365">
        <ele>24.9</ele>
        <time>2020-06-15T09:12:39Z</time>
      </trkpt>
      <trkpt lat="49.69205" lon="-1.36357">
        <ele>24.9</ele>
        <time>2020-06-15T09:12:40Z</time>
      </trkpt>
      <trkpt lat="49.69203" lon="-1.36349">
        <ele>25</ele>
        <time>2020-06-15T09:12:41Z</time>
      </trkpt>
      <trkpt lat="49.692" lon="-1.36341">
        <ele>25</ele>
        <time>2020-06-15T09:12:42Z</time>
      </trkpt>
      <trkpt lat="49.69198" lon="-1.36334">
        <ele>25</ele>
        <time>2020-06-15T09:12:43Z</time>
      </trkpt>
      <trkpt lat="49.69195" lon="-1.36327">
        <ele>25</ele>
        <time>2020-06-15T09:12:44Z</time>
      </trkpt>
      <trkpt lat="49.69192" lon="-1.3632">
        <ele>25</ele>
        <time>2020-06-15T09:12:45Z</time>
      </trkpt>
      <trkpt lat="49.69189" lon="-1.36311">
        <ele>25</ele>
        <time>2020-06-15T09:12:46Z</time>
      </trkpt>
      <trkpt lat="49.69186" lon="-1.36302">
        <ele>25</ele>
        <time>2020-06-15T09:12:47Z</time>
      </trkpt>
      <trkpt lat="49.69183" lon="-1.36293">
        <ele>24.9</ele>
        <time>2020-06-15T09:12:48Z</time>
      </trkpt>
      <trkpt lat="49.69179" lon="-1.36283">
        <ele>24.9</ele>
        <time>2020-06-15T09:12:49Z</time>
      </trkpt>
      <trkpt lat="49.69176" lon="-1.36276">
        <ele>25</ele>
        <time>2020-06-15T09:12:50Z</time>
      </trkpt>
      <trkpt lat="49.69173" lon="-1.36268">
        <ele>25</ele>
        <time>2020-06-15T09:12:51Z</time>
      </trkpt>
      <trkpt lat="49.69169" lon="-1.3626">
        <ele>25</ele>
        <time>2020-06-15T09:12:52Z</time>
      </trkpt>
      <trkpt lat="49.69166" lon="-1.36253">
        <ele>25.1</ele>
        <time>2020-06-15T09:12:53Z</time>
      </trkpt>
      <trkpt lat="49.69163" lon="-1.36244">
        <ele>25.2</ele>
        <time>2020-06-15T09:12:54Z</time>
      </trkpt>
      <trkpt lat="49.69161" lon="-1.36236">
        <ele>25.2</ele>
        <time>2020-06-15T09:12:55Z</time>
      </trkpt>
      <trkpt lat="49.69158" lon="-1.36228">
        <ele>25.3</ele>
        <time>2020-06-15T09:12:56Z</time>
      </trkpt>
      <trkpt lat="49.69156" lon="-1.36221">
        <ele>25.3</ele>
        <time>2020-06-15T09:12:57Z</time>
      </trkpt>
      <trkpt lat="49.69153" lon="-1.36213">
        <ele>25.3</ele>
        <time>2020-06-15T09:12:58Z</time>
      </trkpt>
      <trkpt lat="49.6915" lon="-1.36206">
        <ele>25.4</ele>
        <time>2020-06-15T09:12:59Z</time>
      </trkpt>
      <trkpt lat="49.69148" lon="-1.36199">
        <ele>25.4</ele>
        <time>2020-06-15T09:13:00Z</time>
      </trkpt>
      <trkpt lat="49.69146" lon="-1.36192">
        <ele>25.4</ele>
        <time>2020-06-15T09:13:01Z</time>
      </trkpt>
      <trkpt lat="49.69143" lon="-1.36184">
        <ele>25.5</ele>
        <time>2020-06-15T09:13:02Z</time>
      </trkpt>
      <trkpt lat="49.6914" lon="-1.36178">
        <ele>25.5</ele>
        <time>2020-06-15T09:13:03Z</time>
      </trkpt>
      <trkpt lat="49.69138" lon="-1.36172">
        <ele>25.6</ele>
        <time>2020-06-15T09:13:04Z</time>
      </trkpt>
      <trkpt lat="49.69135" lon="-1.36165">
        <ele>25.6</ele>
        <time>2020-06-15T09:13:05Z</time>
      </trkpt>
      <trkpt lat="49.69132" lon="-1.36157">
        <ele>25.7</ele>
        <time>2020-06-15T09:13:06Z</time>
      </trkpt>
      <trkpt lat="49.6913" lon="-1.3615">
        <ele>25.7</ele>
        <time>2020-06-15T09:13:07Z</time>
      </trkpt>
      <trkpt lat="49.69127" lon="-1.36144">
        <ele>25.8</ele>
        <time>2020-06-15T09:13:08Z</time>
      </trkpt>
      <trkpt lat="49.69125" lon="-1.36137">
        <ele>25.8</ele>
        <time>2020-06-15T09:13:09Z</time>
      </trkpt>
      <trkpt lat="49.69121" lon="-1.36128">
        <ele>25.9</ele>
        <time>2020-06-15T09:13:10Z</time>
      </trkpt>
      <trkpt lat="49.69118" lon="-1.3612">
        <ele>25.9</ele>
        <time>2020-06-15T09:13:11Z</time>
      </trkpt>
      <trkpt lat="49.69116" lon="-1.36113">
        <ele>26</ele>
        <time>2020-06-15T09:13:12Z</time>
      </trkpt>
      <trkpt lat="49.69113" lon="-1.36104">
        <ele>26.1</ele>
        <time>2020-06-15T09:13:13Z</time>
      </trkpt>
      <trkpt lat="49.69111" lon="-1.36097">
        <ele>26.2</ele>
        <time>2020-06-15T09:13:14Z</time>
      </trkpt>
      <trkpt lat="49.69108" lon="-1.3609">
        <ele>26.3</ele>
        <time>2020-06-15T09:13:15Z</time>
      </trkpt>
      <trkpt lat="49.69106" lon="-1.36083">
        <ele>26.4</ele>
        <time>2020-06-15T09:13:16Z</time>
      </trkpt>
      <trkpt lat="49.69104" lon="-1.36077">
        <ele>26.4</ele>
        <time>2020-06-15T09:13:17Z</time>
      </trkpt>
      <trkpt lat="49.69101" lon="-1.36069">
        <ele>26.5</ele>
        <time>2020-06-15T09:13:18Z</time>
      </trkpt>
      <trkpt lat="49.69099" lon="-1.36064">
        <ele>26.5</ele>
        <time>2020-06-15T09:13:19Z</time>
      </trkpt>
      <trkpt lat="49.69097" lon="-1.36057">
        <ele>26.5</ele>
        <time>2020-06-15T09:13:20Z</time>
      </trkpt>
      <trkpt lat="49.69095" lon="-1.3605">
        <ele>26.5</ele>
        <time>2020-06-15T09:13:21Z</time>
      </trkpt>
      <trkpt lat="49.69093" lon="-1.36041">
        <ele>26.6</ele>
        <time>2020-06-15T09:13:22Z</time>
      </trkpt>
      <trkpt lat="49.69091" lon="-1.36033">
        <ele>26.6</ele>
        <time>2020-06-15T09:13:23Z</time>
      </trkpt>
      <trkpt lat="49.69089" lon="-1.36025">
        <ele>26.6</ele>
        <time>2020-06-15T09:13:24Z</time>
      </trkpt>
      <trkpt lat="49.69087" lon="-1.36018">
        <ele>26.6</ele>
        <time>2020-06-15T09:13:25Z</time>
      </trkpt>
      <trkpt lat="49.69084" lon="-1.36008">
        <ele>26.6</ele>
        <time>2020-06-15T09:13:26Z</time>
      </trkpt>
      <trkpt lat="49.69082" lon="-1.35999">
        <ele>26.5</ele>
        <time>2020-06-15T09:13:27Z</time>
      </trkpt>
      <trkpt lat="49.6908" lon="-1.3599">
        <ele>26.5</ele>
        <time>2020-06-15T09:13:28Z</time>
      </trkpt>
      <trkpt lat="49.69078" lon="-1.35983">
        <ele>26.4</ele>
        <time>2020-06-15T09:13:29Z</time>
      </trkpt>
      <trkpt lat="49.69077" lon="-1.35975">
        <ele>26.4</ele>
        <time>2020-06-15T09:13:30Z</time>
      </trkpt>
      <trkpt lat="49.69075" lon="-1.35967">
        <ele>26.3</ele>
        <time>2020-06-15T09:13:31Z</time>
      </trkpt>
      <trkpt lat="49.69073" lon="-1.35958">
        <ele>26.3</ele>
        <time>2020-06-15T09:13:32Z</time>
      </trkpt>
      <trkpt lat="49.69071" lon="-1.35949">
        <ele>26.2</ele>
        <time>2020-06-15T09:13:33Z</time>
      </trkpt>
      <trkpt lat="49.69069" lon="-1.35939">
        <ele>26.1</ele>
        <time>2020-06-15T09:13:34Z</time>
      </trkpt>
      <trkpt lat="49.69068" lon="-1.3593">
        <ele>26.1</ele>
        <time>2020-06-15T09:13:35Z</time>
      </trkpt>
      <trkpt lat="49.69067" lon="-1.35921">
        <ele>26</ele>
        <time>2020-06-15T09:13:36Z</time>
      </trkpt>
      <trkpt lat="49.69066" lon="-1.35911">
        <ele>25.8</ele>
        <time>2020-06-15T09:13:37Z</time>
      </trkpt>
      <trkpt lat="49.69066" lon="-1.35901">
        <ele>25.8</ele>
        <time>2020-06-15T09:13:38Z</time>
      </trkpt>
      <trkpt lat="49.69065" lon="-1.3589">
        <ele>25.8</ele>
        <time>2020-06-15T09:13:39Z</time>
      </trkpt>
      <trkpt lat="49.69065" lon="-1.3588">
        <ele>25.8</ele>
        <time>2020-06-15T09:13:40Z</time>
      </trkpt>
      <trkpt lat="49.69065" lon="-1.35869">
        <ele>25.8</ele>
        <time>2020-06-15T09:13:41Z</time>
      </trkpt>
      <trkpt lat="49.69065" lon="-1.35859">
        <ele>25.8</ele>
        <time>2020-06-15T09:13:42Z</time>
      </trkpt>
      <trkpt lat="49.69066" lon="-1.35848">
        <ele>25.8</ele>
        <time>2020-06-15T09:13:43Z</time>
      </trkpt>
      <trkpt lat="49.69067" lon="-1.35839">
        <ele>25.9</ele>
        <time>2020-06-15T09:13:44Z</time>
      </trkpt>
      <trkpt lat="49.69068" lon="-1.35831">
        <ele>25.9</ele>
        <time>2020-06-15T09:13:45Z</time>
      </trkpt>
      <trkpt lat="49.69068" lon="-1.35821">
        <ele>26</ele>
        <time>2020-06-15T09:13:46Z</time>
      </trkpt>
      <trkpt lat="49.69068" lon="-1.35814">
        <ele>26</ele>
        <time>2020-06-15T09:13:47Z</time>
      </trkpt>
      <trkpt lat="49.6907" lon="-1.35805">
        <ele>26.1</ele>
        <time>2020-06-15T09:13:48Z</time>
      </trkpt>
      <trkpt lat="49.69071" lon="-1.35797">
        <ele>26.1</ele>
        <time>2020-06-15T09:13:49Z</time>
      </trkpt>
      <trkpt lat="49.69072" lon="-1.3579">
        <ele>26.1</ele>
        <time>2020-06-15T09:13:50Z</time>
      </trkpt>
      <trkpt lat="49.69073" lon="-1.35784">
        <ele>26.1</ele>
        <time>2020-06-15T09:13:51Z</time>
      </trkpt>
      <trkpt lat="49.69075" lon="-1.35775">
        <ele>26.1</ele>
        <time>2020-06-15T09:13:52Z</time>
      </trkpt>
      <trkpt lat="49.69078" lon="-1.35767">
        <ele>26.2</ele>
        <time>2020-06-15T09:13:53Z</time>
      </trkpt>
      <trkpt lat="49.6908" lon="-1.35757">
        <ele>26.2</ele>
        <time>2020-06-15T09:13:54Z</time>
      </trkpt>
      <trkpt lat="49.69082" lon="-1.35749">
        <ele>26.2</ele>
        <time>2020-06-15T09:13:55Z</time>
      </trkpt>
      <trkpt lat="49.69084" lon="-1.35741">
        <ele>26.3</ele>
        <time>2020-06-15T09:13:56Z</time>
      </trkpt>
      <trkpt lat="49.69086" lon="-1.35732">
        <ele>26.3</ele>
        <time>2020-06-15T09:13:57Z</time>
      </trkpt>
      <trkpt lat="49.69088" lon="-1.35725">
        <ele>26.4</ele>
        <time>2020-06-15T09:13:58Z</time>
      </trkpt>
      <trkpt lat="49.69091" lon="-1.35712">
        <ele>26.4</ele>
        <time>2020-06-15T09:13:59Z</time>
      </trkpt>
      <trkpt lat="49.69094" lon="-1.357">
        <ele>26.4</ele>
        <time>2020-06-15T09:14:00Z</time>
      </trkpt>
      <trkpt lat="49.69095" lon="-1.35692">
        <ele>26.5</ele>
        <time>2020-06-15T09:14:01Z</time>
      </trkpt>
      <trkpt lat="49.69096" lon="-1.35683">
        <ele>26.5</ele>
        <time>2020-06-15T09:14:02Z</time>
      </trkpt>
      <trkpt lat="49.69096" lon="-1.35673">
        <ele>26.5</ele>
        <time>2020-06-15T09:14:03Z</time>
      </trkpt>
      <trkpt lat="49.69097" lon="-1.35663">
        <ele>26.5</ele>
        <time>2020-06-15T09:14:04Z</time>
      </trkpt>
      <trkpt lat="49.69097" lon="-1.35652">
        <ele>26.4</ele>
        <time>2020-06-15T09:14:05Z</time>
      </trkpt>
      <trkpt lat="49.69098" lon="-1.35642">
        <ele>26.4</ele>
        <time>2020-06-15T09:14:06Z</time>
      </trkpt>
      <trkpt lat="49.69098" lon="-1.35632">
        <ele>26.3</ele>
        <time>2020-06-15T09:14:07Z</time>
      </trkpt>
      <trkpt lat="49.69099" lon="-1.35622">
        <ele>26.3</ele>
        <time>2020-06-15T09:14:08Z</time>
      </trkpt>
      <trkpt lat="49.69099" lon="-1.35612">
        <ele>26.2</ele>
        <time>2020-06-15T09:14:09Z</time>
      </trkpt>
      <trkpt lat="49.69099" lon="-1.35602">
        <ele>26.1</ele>
        <time>2020-06-15T09:14:10Z</time>
      </trkpt>
      <trkpt lat="49.69099" lon="-1.35591">
        <ele>26.1</ele>
        <time>2020-06-15T09:14:11Z</time>
      </trkpt>
      <trkpt lat="49.69099" lon="-1.3558">
        <ele>26</ele>
        <time>2020-06-15T09:14:12Z</time>
      </trkpt>
      <trkpt lat="49.69099" lon="-1.35571">
        <ele>25.9</ele>
        <time>2020-06-15T09:14:13Z</time>
      </trkpt>
      <trkpt lat="49.69099" lon="-1.3556">
        <ele>25.9</ele>
        <time>2020-06-15T09:14:14Z</time>
      </trkpt>
      <trkpt lat="49.69099" lon="-1.3555">
        <ele>25.8</ele>
        <time>2020-06-15T09:14:15Z</time>
      </trkpt>
      <trkpt lat="49.691" lon="-1.3554">
        <ele>25.7</ele>
        <time>2020-06-15T09:14:16Z</time>
      </trkpt>
      <trkpt lat="49.69101" lon="-1.3553">
        <ele>25.7</ele>
        <time>2020-06-15T09:14:17Z</time>
      </trkpt>
      <trkpt lat="49.691" lon="-1.3552">
        <ele>25.6</ele>
        <time>2020-06-15T09:14:18Z</time>
      </trkpt>
      <trkpt lat="49.69101" lon="-1.3551">
        <ele>25.5</ele>
        <time>2020-06-15T09:14:19Z</time>
      </trkpt>
      <trkpt lat="49.691" lon="-1.355">
        <ele>25.4</ele>
        <time>2020-06-15T09:14:20Z</time>
      </trkpt>
      <trkpt lat="49.691" lon="-1.3549">
        <ele>25.3</ele>
        <time>2020-06-15T09:14:21Z</time>
      </trkpt>
      <trkpt lat="49.691" lon="-1.35481">
        <ele>25.2</ele>
        <time>2020-06-15T09:14:22Z</time>
      </trkpt>
      <trkpt lat="49.691" lon="-1.35471">
        <ele>25.1</ele>
        <time>2020-06-15T09:14:23Z</time>
      </trkpt>
      <trkpt lat="49.691" lon="-1.35461">
        <ele>25</ele>
        <time>2020-06-15T09:14:24Z</time>
      </trkpt>
      <trkpt lat="49.691" lon="-1.35451">
        <ele>25</ele>
        <time>2020-06-15T09:14:25Z</time>
      </trkpt>
      <trkpt lat="49.691" lon="-1.3544">
        <ele>24.9</ele>
        <time>2020-06-15T09:14:26Z</time>
      </trkpt>
      <trkpt lat="49.691" lon="-1.35429">
        <ele>24.8</ele>
        <time>2020-06-15T09:14:27Z</time>
      </trkpt>
      <trkpt lat="49.69099" lon="-1.35418">
        <ele>24.8</ele>
        <time>2020-06-15T09:14:28Z</time>
      </trkpt>
      <trkpt lat="49.691" lon="-1.35408">
        <ele>24.7</ele>
        <time>2020-06-15T09:14:29Z</time>
      </trkpt>
      <trkpt lat="49.691" lon="-1.35397">
        <ele>24.6</ele>
        <time>2020-06-15T09:14:30Z</time>
      </trkpt>
      <trkpt lat="49.691" lon="-1.35387">
        <ele>24.5</ele>
        <time>2020-06-15T09:14:31Z</time>
      </trkpt>
      <trkpt lat="49.691" lon="-1.35377">
        <ele>24.5</ele>
        <time>2020-06-15T09:14:32Z</time>
      </trkpt>
      <trkpt lat="49.691" lon="-1.35366">
        <ele>24.4</ele>
        <time>2020-06-15T09:14:33Z</time>
      </trkpt>
      <trkpt lat="49.691" lon="-1.35356">
        <ele>24.3</ele>
        <time>2020-06-15T09:14:34Z</time>
      </trkpt>
      <trkpt lat="49.691" lon="-1.35345">
        <ele>24.3</ele>
        <time>2020-06-15T09:14:35Z</time>
      </trkpt>
      <trkpt lat="49.691" lon="-1.35335">
        <ele>24.2</ele>
        <time>2020-06-15T09:14:36Z</time>
      </trkpt>
      <trkpt lat="49.69101" lon="-1.35324">
        <ele>24</ele>
        <time>2020-06-15T09:14:37Z</time>
      </trkpt>
      <trkpt lat="49.69101" lon="-1.35313">
        <ele>23.9</ele>
        <time>2020-06-15T09:14:38Z</time>
      </trkpt>
      <trkpt lat="49.69102" lon="-1.35302">
        <ele>23.8</ele>
        <time>2020-06-15T09:14:39Z</time>
      </trkpt>
      <trkpt lat="49.69103" lon="-1.35291">
        <ele>23.8</ele>
        <time>2020-06-15T09:14:40Z</time>
      </trkpt>
      <trkpt lat="49.69103" lon="-1.3528">
        <ele>23.7</ele>
        <time>2020-06-15T09:14:41Z</time>
      </trkpt>
      <trkpt lat="49.69104" lon="-1.35269">
        <ele>23.7</ele>
        <time>2020-06-15T09:14:42Z</time>
      </trkpt>
      <trkpt lat="49.69105" lon="-1.35257">
        <ele>23.6</ele>
        <time>2020-06-15T09:14:43Z</time>
      </trkpt>
      <trkpt lat="49.69106" lon="-1.35246">
        <ele>23.5</ele>
        <time>2020-06-15T09:14:44Z</time>
      </trkpt>
      <trkpt lat="49.69107" lon="-1.35235">
        <ele>23.5</ele>
        <time>2020-06-15T09:14:45Z</time>
      </trkpt>
      <trkpt lat="49.69108" lon="-1.35224">
        <ele>23.4</ele>
        <time>2020-06-15T09:14:46Z</time>
      </trkpt>
      <trkpt lat="49.69108" lon="-1.35213">
        <ele>23.3</ele>
        <time>2020-06-15T09:14:47Z</time>
      </trkpt>
      <trkpt lat="49.69109" lon="-1.35202">
        <ele>23.3</ele>
        <time>2020-06-15T09:14:48Z</time>
      </trkpt>
      <trkpt lat="49.6911" lon="-1.35191">
        <ele>23.3</ele>
        <time>2020-06-15T09:14:49Z</time>
      </trkpt>
      <trkpt lat="49.69111" lon="-1.3518">
        <ele>23.2</ele>
        <time>2020-06-15T09:14:50Z</time>
      </trkpt>
      <trkpt lat="49.69113" lon="-1.35169">
        <ele>23.2</ele>
        <time>2020-06-15T09:14:51Z</time>
      </trkpt>
      <trkpt lat="49.69114" lon="-1.35158">
        <ele>23.2</ele>
        <time>2020-06-15T09:14:52Z</time>
      </trkpt>
      <trkpt lat="49.69115" lon="-1.35146">
        <ele>23.2</ele>
        <time>2020-06-15T09:14:53Z</time>
      </trkpt>
      <trkpt lat="49.69117" lon="-1.35135">
        <ele>23.2</ele>
        <time>2020-06-15T09:14:54Z</time>
      </trkpt>
      <trkpt lat="49.69118" lon="-1.35124">
        <ele>23.2</ele>
        <time>2020-06-15T09:14:55Z</time>
      </trkpt>
      <trkpt lat="49.6912" lon="-1.35113">
        <ele>23.2</ele>
        <time>2020-06-15T09:14:56Z</time>
      </trkpt>
      <trkpt lat="49.69121" lon="-1.35102">
        <ele>23.1</ele>
        <time>2020-06-15T09:14:57Z</time>
      </trkpt>
      <trkpt lat="49.69123" lon="-1.35091">
        <ele>23.1</ele>
        <time>2020-06-15T09:14:58Z</time>
      </trkpt>
      <trkpt lat="49.69124" lon="-1.3508">
        <ele>23.1</ele>
        <time>2020-06-15T09:14:59Z</time>
      </trkpt>
      <trkpt lat="49.69126" lon="-1.35069">
        <ele>23.1</ele>
        <time>2020-06-15T09:15:00Z</time>
      </trkpt>
      <trkpt lat="49.69127" lon="-1.35059">
        <ele>23</ele>
        <time>2020-06-15T09:15:01Z</time>
      </trkpt>
      <trkpt lat="49.69128" lon="-1.35048">
        <ele>23</ele>
        <time>2020-06-15T09:15:02Z</time>
      </trkpt>
      <trkpt lat="49.69129" lon="-1.35038">
        <ele>23</ele>
        <time>2020-06-15T09:15:03Z</time>
      </trkpt>
      <trkpt lat="49.69131" lon="-1.35028">
        <ele>22.9</ele>
        <time>2020-06-15T09:15:04Z</time>
      </trkpt>
      <trkpt lat="49.69133" lon="-1.35018">
        <ele>22.9</ele>
        <time>2020-06-15T09:15:05Z</time>
      </trkpt>
      <trkpt lat="49.69134" lon="-1.35008">
        <ele>22.8</ele>
        <time>2020-06-15T09:15:06Z</time>
      </trkpt>
      <trkpt lat="49.69135" lon="-1.34998">
        <ele>22.7</ele>
        <time>2020-06-15T09:15:07Z</time>
      </trkpt>
      <trkpt lat="49.69136" lon="-1.34988">
        <ele>22.7</ele>
        <time>2020-06-15T09:15:08Z</time>
      </trkpt>
      <trkpt lat="49.69138" lon="-1.34978">
        <ele>22.6</ele>
        <time>2020-06-15T09:15:09Z</time>
      </trkpt>
      <trkpt lat="49.69139" lon="-1.34968">
        <ele>22.6</ele>
        <time>2020-06-15T09:15:10Z</time>
      </trkpt>
      <trkpt lat="49.6914" lon="-1.34957">
        <ele>22.5</ele>
        <time>2020-06-15T09:15:11Z</time>
      </trkpt>
      <trkpt lat="49.69141" lon="-1.34947">
        <ele>22.4</ele>
        <time>2020-06-15T09:15:12Z</time>
      </trkpt>
      <trkpt lat="49.69143" lon="-1.34936">
        <ele>22.4</ele>
        <time>2020-06-15T09:15:13Z</time>
      </trkpt>
      <trkpt lat="49.69143" lon="-1.34926">
        <ele>22.3</ele>
        <time>2020-06-15T09:15:14Z</time>
      </trkpt>
      <trkpt lat="49.69143" lon="-1.34915">
        <ele>22.2</ele>
        <time>2020-06-15T09:15:15Z</time>
      </trkpt>
      <trkpt lat="49.69143" lon="-1.34904">
        <ele>22.2</ele>
        <time>2020-06-15T09:15:16Z</time>
      </trkpt>
      <trkpt lat="49.69143" lon="-1.34893">
        <ele>22.1</ele>
        <time>2020-06-15T09:15:17Z</time>
      </trkpt>
      <trkpt lat="49.69143" lon="-1.34882">
        <ele>22</ele>
        <time>2020-06-15T09:15:18Z</time>
      </trkpt>
      <trkpt lat="49.69142" lon="-1.34872">
        <ele>22</ele>
        <time>2020-06-15T09:15:19Z</time>
      </trkpt>
      <trkpt lat="49.69142" lon="-1.34861">
        <ele>21.9</ele>
        <time>2020-06-15T09:15:20Z</time>
      </trkpt>
      <trkpt lat="49.69141" lon="-1.3485">
        <ele>21.9</ele>
        <time>2020-06-15T09:15:21Z</time>
      </trkpt>
      <trkpt lat="49.6914" lon="-1.3484">
        <ele>21.9</ele>
        <time>2020-06-15T09:15:22Z</time>
      </trkpt>
      <trkpt lat="49.69138" lon="-1.34829">
        <ele>21.9</ele>
        <time>2020-06-15T09:15:23Z</time>
      </trkpt>
      <trkpt lat="49.69138" lon="-1.34819">
        <ele>21.9</ele>
        <time>2020-06-15T09:15:24Z</time>
      </trkpt>
      <trkpt lat="49.69137" lon="-1.34809">
        <ele>21.9</ele>
        <time>2020-06-15T09:15:25Z</time>
      </trkpt>
      <trkpt lat="49.69136" lon="-1.34798">
        <ele>21.9</ele>
        <time>2020-06-15T09:15:26Z</time>
      </trkpt>
      <trkpt lat="49.69135" lon="-1.34788">
        <ele>22</ele>
        <time>2020-06-15T09:15:27Z</time>
      </trkpt>
      <trkpt lat="49.69134" lon="-1.34778">
        <ele>22</ele>
        <time>2020-06-15T09:15:28Z</time>
      </trkpt>
      <trkpt lat="49.69133" lon="-1.34768">
        <ele>22.1</ele>
        <time>2020-06-15T09:15:29Z</time>
      </trkpt>
      <trkpt lat="49.69133" lon="-1.34759">
        <ele>22.1</ele>
        <time>2020-06-15T09:15:30Z</time>
      </trkpt>
      <trkpt lat="49.69132" lon="-1.34749">
        <ele>22.2</ele>
        <time>2020-06-15T09:15:31Z</time>
      </trkpt>
      <trkpt lat="49.69132" lon="-1.34739">
        <ele>22.2</ele>
        <time>2020-06-15T09:15:32Z</time>
      </trkpt>
      <trkpt lat="49.69131" lon="-1.34729">
        <ele>22.2</ele>
        <time>2020-06-15T09:15:33Z</time>
      </trkpt>
      <trkpt lat="49.6913" lon="-1.3472">
        <ele>22.2</ele>
        <time>2020-06-15T09:15:34Z</time>
      </trkpt>
      <trkpt lat="49.69129" lon="-1.3471">
        <ele>22.2</ele>
        <time>2020-06-15T09:15:35Z</time>
      </trkpt>
      <trkpt lat="49.69129" lon="-1.347">
        <ele>22.3</ele>
        <time>2020-06-15T09:15:36Z</time>
      </trkpt>
      <trkpt lat="49.69129" lon="-1.34691">
        <ele>22.3</ele>
        <time>2020-06-15T09:15:37Z</time>
      </trkpt>
      <trkpt lat="49.69128" lon="-1.34681">
        <ele>22.3</ele>
        <time>2020-06-15T09:15:38Z</time>
      </trkpt>
      <trkpt lat="49.69128" lon="-1.34671">
        <ele>22.3</ele>
        <time>2020-06-15T09:15:39Z</time>
      </trkpt>
      <trkpt lat="49.69127" lon="-1.34662">
        <ele>22.3</ele>
        <time>2020-06-15T09:15:40Z</time>
      </trkpt>
      <trkpt lat="49.69127" lon="-1.34653">
        <ele>22.4</ele>
        <time>2020-06-15T09:15:41Z</time>
      </trkpt>
      <trkpt lat="49.69127" lon="-1.34643">
        <ele>22.4</ele>
        <time>2020-06-15T09:15:42Z</time>
      </trkpt>
      <trkpt lat="49.69126" lon="-1.34634">
        <ele>22.5</ele>
        <time>2020-06-15T09:15:43Z</time>
      </trkpt>
      <trkpt lat="49.69126" lon="-1.34625">
        <ele>22.6</ele>
        <time>2020-06-15T09:15:44Z</time>
      </trkpt>
      <trkpt lat="49.69126" lon="-1.34616">
        <ele>22.7</ele>
        <time>2020-06-15T09:15:45Z</time>
      </trkpt>
      <trkpt lat="49.69127" lon="-1.34608">
        <ele>22.7</ele>
        <time>2020-06-15T09:15:46Z</time>
      </trkpt>
      <trkpt lat="49.69127" lon="-1.34599">
        <ele>22.8</ele>
        <time>2020-06-15T09:15:47Z</time>
      </trkpt>
      <trkpt lat="49.69127" lon="-1.3459">
        <ele>22.8</ele>
        <time>2020-06-15T09:15:48Z</time>
      </trkpt>
      <trkpt lat="49.69127" lon="-1.34581">
        <ele>22.8</ele>
        <time>2020-06-15T09:15:49Z</time>
      </trkpt>
      <trkpt lat="49.69128" lon="-1.34572">
        <ele>22.8</ele>
        <time>2020-06-15T09:15:50Z</time>
      </trkpt>
      <trkpt lat="49.69129" lon="-1.34563">
        <ele>22.8</ele>
        <time>2020-06-15T09:15:51Z</time>
      </trkpt>
      <trkpt lat="49.6913" lon="-1.34555">
        <ele>22.8</ele>
        <time>2020-06-15T09:15:52Z</time>
      </trkpt>
      <trkpt lat="49.6913" lon="-1.34547">
        <ele>22.8</ele>
        <time>2020-06-15T09:15:53Z</time>
      </trkpt>
      <trkpt lat="49.69132" lon="-1.34537">
        <ele>22.9</ele>
        <time>2020-06-15T09:15:54Z</time>
      </trkpt>
      <trkpt lat="49.69133" lon="-1.34527">
        <ele>22.9</ele>
        <time>2020-06-15T09:15:55Z</time>
      </trkpt>
      <trkpt lat="49.69134" lon="-1.34519">
        <ele>22.9</ele>
        <time>2020-06-15T09:15:56Z</time>
      </trkpt>
      <trkpt lat="49.69135" lon="-1.34511">
        <ele>22.9</ele>
        <time>2020-06-15T09:15:57Z</time>
      </trkpt>
      <trkpt lat="49.69137" lon="-1.34502">
        <ele>22.8</ele>
        <time>2020-06-15T09:15:58Z</time>
      </trkpt>
      <trkpt lat="49.6914" lon="-1.34493">
        <ele>22.8</ele>
        <time>2020-06-15T09:15:59Z</time>
      </trkpt>
      <trkpt lat="49.69143" lon="-1.34485">
        <ele>22.8</ele>
        <time>2020-06-15T09:16:00Z</time>
      </trkpt>
      <trkpt lat="49.69145" lon="-1.34478">
        <ele>22.7</ele>
        <time>2020-06-15T09:16:01Z</time>
      </trkpt>
      <trkpt lat="49.69147" lon="-1.34469">
        <ele>22.7</ele>
        <time>2020-06-15T09:16:02Z</time>
      </trkpt>
      <trkpt lat="49.6915" lon="-1.34458">
        <ele>22.7</ele>
        <time>2020-06-15T09:16:03Z</time>
      </trkpt>
      <trkpt lat="49.69152" lon="-1.34448">
        <ele>22.7</ele>
        <time>2020-06-15T09:16:04Z</time>
      </trkpt>
      <trkpt lat="49.69155" lon="-1.34438">
        <ele>22.7</ele>
        <time>2020-06-15T09:16:05Z</time>
      </trkpt>
      <trkpt lat="49.69157" lon="-1.34427">
        <ele>22.6</ele>
        <time>2020-06-15T09:16:06Z</time>
      </trkpt>
      <trkpt lat="49.6916" lon="-1.34419">
        <ele>22.6</ele>
        <time>2020-06-15T09:16:07Z</time>
      </trkpt>
      <trkpt lat="49.69163" lon="-1.34411">
        <ele>22.5</ele>
        <time>2020-06-15T09:16:08Z</time>
      </trkpt>
      <trkpt lat="49.69166" lon="-1.34403">
        <ele>22.5</ele>
        <time>2020-06-15T09:16:09Z</time>
      </trkpt>
      <trkpt lat="49.69168" lon="-1.34395">
        <ele>22.5</ele>
        <time>2020-06-15T09:16:10Z</time>
      </trkpt>
      <trkpt lat="49.6917" lon="-1.34385">
        <ele>22.5</ele>
        <time>2020-06-15T09:16:11Z</time>
      </trkpt>
      <trkpt lat="49.69172" lon="-1.34375">
        <ele>22.5</ele>
        <time>2020-06-15T09:16:12Z</time>
      </trkpt>
      <trkpt lat="49.69174" lon="-1.34365">
        <ele>22.5</ele>
        <time>2020-06-15T09:16:13Z</time>
      </trkpt>
      <trkpt lat="49.69175" lon="-1.34355">
        <ele>22.4</ele>
        <time>2020-06-15T09:16:14Z</time>
      </trkpt>
      <trkpt lat="49.69176" lon="-1.34345">
        <ele>22.4</ele>
        <time>2020-06-15T09:16:15Z</time>
      </trkpt>
      <trkpt lat="49.69176" lon="-1.34336">
        <ele>22.4</ele>
        <time>2020-06-15T09:16:16Z</time>
      </trkpt>
      <trkpt lat="49.69176" lon="-1.34328">
        <ele>22.4</ele>
        <time>2020-06-15T09:16:17Z</time>
      </trkpt>
      <trkpt lat="49.69177" lon="-1.34318">
        <ele>22.4</ele>
        <time>2020-06-15T09:16:18Z</time>
      </trkpt>
      <trkpt lat="49.69177" lon="-1.34311">
        <ele>22.4</ele>
        <time>2020-06-15T09:16:19Z</time>
      </trkpt>
      <trkpt lat="49.69178" lon="-1.34302">
        <ele>22.4</ele>
        <time>2020-06-15T09:16:20Z</time>
      </trkpt>
      <trkpt lat="49.69178" lon="-1.34292">
        <ele>22.4</ele>
        <time>2020-06-15T09:16:21Z</time>
      </trkpt>
      <trkpt lat="49.69179" lon="-1.34284">
        <ele>22.3</ele>
        <time>2020-06-15T09:16:22Z</time>
      </trkpt>
      <trkpt lat="49.69179" lon="-1.34273">
        <ele>22.4</ele>
        <time>2020-06-15T09:16:23Z</time>
      </trkpt>
      <trkpt lat="49.69179" lon="-1.34264">
        <ele>22.4</ele>
        <time>2020-06-15T09:16:24Z</time>
      </trkpt>
      <trkpt lat="49.69179" lon="-1.34255">
        <ele>22.4</ele>
        <time>2020-06-15T09:16:25Z</time>
      </trkpt>
      <trkpt lat="49.69178" lon="-1.34245">
        <ele>22.4</ele>
        <time>2020-06-15T09:16:26Z</time>
      </trkpt>
      <trkpt lat="49.69178" lon="-1.34234">
        <ele>22.3</ele>
        <time>2020-06-15T09:16:27Z</time>
      </trkpt>
      <trkpt lat="49.69178" lon="-1.34225">
        <ele>22.3</ele>
        <time>2020-06-15T09:16:28Z</time>
      </trkpt>
      <trkpt lat="49.69178" lon="-1.34215">
        <ele>22.2</ele>
        <time>2020-06-15T09:16:29Z</time>
      </trkpt>
      <trkpt lat="49.69177" lon="-1.34206">
        <ele>22.2</ele>
        <time>2020-06-15T09:16:30Z</time>
      </trkpt>
      <trkpt lat="49.69175" lon="-1.34197">
        <ele>22.1</ele>
        <time>2020-06-15T09:16:31Z</time>
      </trkpt>
      <trkpt lat="49.69173" lon="-1.34187">
        <ele>22.1</ele>
        <time>2020-06-15T09:16:32Z</time>
      </trkpt>
      <trkpt lat="49.69172" lon="-1.34177">
        <ele>22</ele>
        <time>2020-06-15T09:16:33Z</time>
      </trkpt>
      <trkpt lat="49.6917" lon="-1.34167">
        <ele>22</ele>
        <time>2020-06-15T09:16:34Z</time>
      </trkpt>
      <trkpt lat="49.69169" lon="-1.34158">
        <ele>21.9</ele>
        <time>2020-06-15T09:16:35Z</time>
      </trkpt>
      <trkpt lat="49.69167" lon="-1.34149">
        <ele>21.9</ele>
        <time>2020-06-15T09:16:36Z</time>
      </trkpt>
      <trkpt lat="49.69164" lon="-1.3414">
        <ele>21.8</ele>
        <time>2020-06-15T09:16:37Z</time>
      </trkpt>
      <trkpt lat="49.69162" lon="-1.34131">
        <ele>21.8</ele>
        <time>2020-06-15T09:16:38Z</time>
      </trkpt>
      <trkpt lat="49.6916" lon="-1.34124">
        <ele>21.7</ele>
        <time>2020-06-15T09:16:39Z</time>
      </trkpt>
      <trkpt lat="49.69158" lon="-1.34115">
        <ele>21.6</ele>
        <time>2020-06-15T09:16:40Z</time>
      </trkpt>
      <trkpt lat="49.69155" lon="-1.34106">
        <ele>21.6</ele>
        <time>2020-06-15T09:16:41Z</time>
      </trkpt>
      <trkpt lat="49.69153" lon="-1.34097">
        <ele>21.5</ele>
        <time>2020-06-15T09:16:42Z</time>
      </trkpt>
      <trkpt lat="49.6915" lon="-1.34088">
        <ele>21.4</ele>
        <time>2020-06-15T09:16:43Z</time>
      </trkpt>
      <trkpt lat="49.69147" lon="-1.34079">
        <ele>21.4</ele>
        <time>2020-06-15T09:16:44Z</time>
      </trkpt>
      <trkpt lat="49.69145" lon="-1.34069">
        <ele>21.3</ele>
        <time>2020-06-15T09:16:45Z</time>
      </trkpt>
      <trkpt lat="49.69142" lon="-1.34061">
        <ele>21.2</ele>
        <time>2020-06-15T09:16:46Z</time>
      </trkpt>
      <trkpt lat="49.69139" lon="-1.34052">
        <ele>21.2</ele>
        <time>2020-06-15T09:16:47Z</time>
      </trkpt>
      <trkpt lat="49.69138" lon="-1.34043">
        <ele>21.1</ele>
        <time>2020-06-15T09:16:48Z</time>
      </trkpt>
      <trkpt lat="49.69136" lon="-1.34034">
        <ele>21.1</ele>
        <time>2020-06-15T09:16:49Z</time>
      </trkpt>
      <trkpt lat="49.69135" lon="-1.34026">
        <ele>21</ele>
        <time>2020-06-15T09:16:50Z</time>
      </trkpt>
      <trkpt lat="49.69133" lon="-1.34018">
        <ele>21</ele>
        <time>2020-06-15T09:16:51Z</time>
      </trkpt>
      <trkpt lat="49.69133" lon="-1.34009">
        <ele>21</ele>
        <time>2020-06-15T09:16:52Z</time>
      </trkpt>
      <trkpt lat="49.69132" lon="-1.34">
        <ele>21</ele>
        <time>2020-06-15T09:16:53Z</time>
      </trkpt>
      <trkpt lat="49.69132" lon="-1.3399">
        <ele>20.9</ele>
        <time>2020-06-15T09:16:54Z</time>
      </trkpt>
      <trkpt lat="49.69132" lon="-1.33981">
        <ele>20.9</ele>
        <time>2020-06-15T09:16:55Z</time>
      </trkpt>
      <trkpt lat="49.69132" lon="-1.33972">
        <ele>20.9</ele>
        <time>2020-06-15T09:16:56Z</time>
      </trkpt>
      <trkpt lat="49.69132" lon="-1.33963">
        <ele>20.9</ele>
        <time>2020-06-15T09:16:57Z</time>
      </trkpt>
      <trkpt lat="49.69131" lon="-1.33955">
        <ele>20.9</ele>
        <time>2020-06-15T09:16:58Z</time>
      </trkpt>
      <trkpt lat="49.69132" lon="-1.33947">
        <ele>20.8</ele>
        <time>2020-06-15T09:16:59Z</time>
      </trkpt>
      <trkpt lat="49.69132" lon="-1.3394">
        <ele>20.6</ele>
        <time>2020-06-15T09:17:00Z</time>
      </trkpt>
      <trkpt lat="49.69132" lon="-1.33932">
        <ele>20.4</ele>
        <time>2020-06-15T09:17:01Z</time>
      </trkpt>
      <trkpt lat="49.69133" lon="-1.33923">
        <ele>20.2</ele>
        <time>2020-06-15T09:17:02Z</time>
      </trkpt>
      <trkpt lat="49.69133" lon="-1.33913">
        <ele>20</ele>
        <time>2020-06-15T09:17:03Z</time>
      </trkpt>
      <trkpt lat="49.69132" lon="-1.33905">
        <ele>19.8</ele>
        <time>2020-06-15T09:17:04Z</time>
      </trkpt>
      <trkpt lat="49.69134" lon="-1.33895">
        <ele>19.5</ele>
        <time>2020-06-15T09:17:05Z</time>
      </trkpt>
      <trkpt lat="49.69134" lon="-1.33886">
        <ele>19.2</ele>
        <time>2020-06-15T09:17:06Z</time>
      </trkpt>
      <trkpt lat="49.69133" lon="-1.33878">
        <ele>18.9</ele>
        <time>2020-06-15T09:17:07Z</time>
      </trkpt>
      <trkpt lat="49.69132" lon="-1.3387">
        <ele>18.6</ele>
        <time>2020-06-15T09:17:08Z</time>
      </trkpt>
      <trkpt lat="49.69132" lon="-1.3386">
        <ele>18.2</ele>
        <time>2020-06-15T09:17:09Z</time>
      </trkpt>
      <trkpt lat="49.69132" lon="-1.3385">
        <ele>17.8</ele>
        <time>2020-06-15T09:17:10Z</time>
      </trkpt>
      <trkpt lat="49.6913" lon="-1.33841">
        <ele>17.4</ele>
        <time>2020-06-15T09:17:11Z</time>
      </trkpt>
      <trkpt lat="49.69129" lon="-1.33831">
        <ele>17</ele>
        <time>2020-06-15T09:17:12Z</time>
      </trkpt>
      <trkpt lat="49.69128" lon="-1.33821">
        <ele>16.6</ele>
        <time>2020-06-15T09:17:13Z</time>
      </trkpt>
      <trkpt lat="49.69125" lon="-1.33811">
        <ele>16.2</ele>
        <time>2020-06-15T09:17:14Z</time>
      </trkpt>
      <trkpt lat="49.69122" lon="-1.338">
        <ele>15.9</ele>
        <time>2020-06-15T09:17:15Z</time>
      </trkpt>
      <trkpt lat="49.69117" lon="-1.3379">
        <ele>15.6</ele>
        <time>2020-06-15T09:17:16Z</time>
      </trkpt>
      <trkpt lat="49.69112" lon="-1.33781">
        <ele>15.3</ele>
        <time>2020-06-15T09:17:17Z</time>
      </trkpt>
      <trkpt lat="49.69107" lon="-1.33772">
        <ele>15.1</ele>
        <time>2020-06-15T09:17:18Z</time>
      </trkpt>
      <trkpt lat="49.69102" lon="-1.33762">
        <ele>15</ele>
        <time>2020-06-15T09:17:19Z</time>
      </trkpt>
      <trkpt lat="49.69097" lon="-1.33753">
        <ele>15.1</ele>
        <time>2020-06-15T09:17:20Z</time>
      </trkpt>
      <trkpt lat="49.69092" lon="-1.33745">
        <ele>15.1</ele>
        <time>2020-06-15T09:17:21Z</time>
      </trkpt>
      <trkpt lat="49.69089" lon="-1.33737">
        <ele>15.2</ele>
        <time>2020-06-15T09:17:22Z</time>
      </trkpt>
      <trkpt lat="49.69085" lon="-1.33729">
        <ele>15.3</ele>
        <time>2020-06-15T09:17:23Z</time>
      </trkpt>
      <trkpt lat="49.69081" lon="-1.33722">
        <ele>15.4</ele>
        <time>2020-06-15T09:17:24Z</time>
      </trkpt>
      <trkpt lat="49.69077" lon="-1.33716">
        <ele>15.6</ele>
        <time>2020-06-15T09:17:25Z</time>
      </trkpt>
      <trkpt lat="49.69074" lon="-1.3371">
        <ele>15.7</ele>
        <time>2020-06-15T09:17:26Z</time>
      </trkpt>
      <trkpt lat="49.69071" lon="-1.33704">
        <ele>15.8</ele>
        <time>2020-06-15T09:17:27Z</time>
      </trkpt>
      <trkpt lat="49.69068" lon="-1.33697">
        <ele>15.9</ele>
        <time>2020-06-15T09:17:28Z</time>
      </trkpt>
      <trkpt lat="49.69066" lon="-1.33691">
        <ele>16</ele>
        <time>2020-06-15T09:17:29Z</time>
      </trkpt>
      <trkpt lat="49.69064" lon="-1.33686">
        <ele>16.1</ele>
        <time>2020-06-15T09:17:30Z</time>
      </trkpt>
      <trkpt lat="49.69062" lon="-1.33681">
        <ele>16.2</ele>
        <time>2020-06-15T09:17:31Z</time>
      </trkpt>
      <trkpt lat="49.6906" lon="-1.33677">
        <ele>16.2</ele>
        <time>2020-06-15T09:17:32Z</time>
      </trkpt>
      <trkpt lat="49.69059" lon="-1.33675">
        <ele>16.2</ele>
        <time>2020-06-15T09:17:33Z</time>
      </trkpt>
      <trkpt lat="49.69058" lon="-1.33673">
        <ele>16.3</ele>
        <time>2020-06-15T09:17:34Z</time>
      </trkpt>
      <trkpt lat="49.69057" lon="-1.33671">
        <ele>16.3</ele>
        <time>2020-06-15T09:17:35Z</time>
      </trkpt>
      <trkpt lat="49.69056" lon="-1.3367">
        <ele>16.3</ele>
        <time>2020-06-15T09:17:36Z</time>
      </trkpt>
      <trkpt lat="49.69055" lon="-1.33668">
        <ele>16.3</ele>
        <time>2020-06-15T09:17:37Z</time>
      </trkpt>
      <trkpt lat="49.69055" lon="-1.33668">
        <ele>16.3</ele>
        <time>2020-06-15T09:17:38Z</time>
      </trkpt>
      <trkpt lat="49.69056" lon="-1.33669">
        <ele>16.3</ele>
        <time>2020-06-15T09:17:39Z</time>
      </trkpt>
      <trkpt lat="49.69056" lon="-1.3367">
        <ele>16.3</ele>
        <time>2020-06-15T09:17:40Z</time>
      </trkpt>
      <trkpt lat="49.69056" lon="-1.33669">
        <ele>16.3</ele>
        <time>2020-06-15T09:17:41Z</time>
      </trkpt>
      <trkpt lat="49.69057" lon="-1.3367">
        <ele>16.3</ele>
        <time>2020-06-15T09:17:42Z</time>
      </trkpt>
      <trkpt lat="49.69056" lon="-1.33668">
        <ele>16.3</ele>
        <time>2020-06-15T09:17:43Z</time>
      </trkpt>
      <trkpt lat="49.69055" lon="-1.33668">
        <ele>16.3</ele>
        <time>2020-06-15T09:17:44Z</time>
      </trkpt>
      <trkpt lat="49.69055" lon="-1.33668">
        <ele>16.3</ele>
        <time>2020-06-15T09:17:45Z</time>
      </trkpt>
      <trkpt lat="49.69056" lon="-1.33668">
        <ele>16.3</ele>
        <time>2020-06-15T09:17:46Z</time>
      </trkpt>
      <trkpt lat="49.69056" lon="-1.33668">
        <ele>16.3</ele>
        <time>2020-06-15T09:17:47Z</time>
      </trkpt>
      <trkpt lat="49.69056" lon="-1.33669">
        <ele>16.3</ele>
        <time>2020-06-15T09:17:48Z</time>
      </trkpt>
      <trkpt lat="49.69057" lon="-1.33662">
        <ele>16.3</ele>
        <time>2020-06-15T09:21:51Z</time>
      </trkpt>
      <trkpt lat="49.69057" lon="-1.3366">
        <ele>16.3</ele>
        <time>2020-06-15T09:21:52Z</time>
      </trkpt>
      <trkpt lat="49.69056" lon="-1.33658">
        <ele>16.3</ele>
        <time>2020-06-15T09:21:53Z</time>
      </trkpt>
      <trkpt lat="49.69056" lon="-1.33656">
        <ele>16.3</ele>
        <time>2020-06-15T09:21:54Z</time>
      </trkpt>
      <trkpt lat="49.69056" lon="-1.33654">
        <ele>16.3</ele>
        <time>2020-06-15T09:21:55Z</time>
      </trkpt>
      <trkpt lat="49.69055" lon="-1.33651">
        <ele>16.3</ele>
        <time>2020-06-15T09:21:56Z</time>
      </trkpt>
      <trkpt lat="49.69054" lon="-1.33651">
        <ele>16.3</ele>
        <time>2020-06-15T09:21:57Z</time>
      </trkpt>
      <trkpt lat="49.69054" lon="-1.3365">
        <ele>16.3</ele>
        <time>2020-06-15T09:21:58Z</time>
      </trkpt>
      <trkpt lat="49.69053" lon="-1.33648">
        <ele>16.3</ele>
        <time>2020-06-15T09:21:59Z</time>
      </trkpt>
      <trkpt lat="49.69053" lon="-1.33645">
        <ele>16.3</ele>
        <time>2020-06-15T09:22:00Z</time>
      </trkpt>
      <trkpt lat="49.69052" lon="-1.33644">
        <ele>16.3</ele>
        <time>2020-06-15T09:22:01Z</time>
      </trkpt>
      <trkpt lat="49.69052" lon="-1.33642">
        <ele>16.3</ele>
        <time>2020-06-15T09:22:02Z</time>
      </trkpt>
      <trkpt lat="49.69051" lon="-1.3364">
        <ele>16.3</ele>
        <time>2020-06-15T09:22:03Z</time>
      </trkpt>
      <trkpt lat="49.6905" lon="-1.33638">
        <ele>16.3</ele>
        <time>2020-06-15T09:22:04Z</time>
      </trkpt>
      <trkpt lat="49.69049" lon="-1.33636">
        <ele>16.3</ele>
        <time>2020-06-15T09:22:05Z</time>
      </trkpt>
      <trkpt lat="49.69049" lon="-1.33634">
        <ele>16.3</ele>
        <time>2020-06-15T09:22:06Z</time>
      </trkpt>
      <trkpt lat="49.69048" lon="-1.33632">
        <ele>16.2</ele>
        <time>2020-06-15T09:22:07Z</time>
      </trkpt>
      <trkpt lat="49.69049" lon="-1.33629">
        <ele>16.2</ele>
        <time>2020-06-15T09:22:08Z</time>
      </trkpt>
      <trkpt lat="49.69048" lon="-1.33628">
        <ele>16.2</ele>
        <time>2020-06-15T09:22:09Z</time>
      </trkpt>
      <trkpt lat="49.69048" lon="-1.33627">
        <ele>16.2</ele>
        <time>2020-06-15T09:22:10Z</time>
      </trkpt>
      <trkpt lat="49.69047" lon="-1.33624">
        <ele>16.2</ele>
        <time>2020-06-15T09:22:11Z</time>
      </trkpt>
      <trkpt lat="49.69047" lon="-1.33621">
        <ele>16.2</ele>
        <time>2020-06-15T09:22:12Z</time>
      </trkpt>
      <trkpt lat="49.69046" lon="-1.3362">
        <ele>16.2</ele>
        <time>2020-06-15T09:22:13Z</time>
      </trkpt>
      <trkpt lat="49.69046" lon="-1.33618">
        <ele>16.2</ele>
        <time>2020-06-15T09:22:14Z</time>
      </trkpt>
      <trkpt lat="49.69046" lon="-1.33616">
        <ele>16.1</ele>
        <time>2020-06-15T09:22:15Z</time>
      </trkpt>
      <trkpt lat="49.69046" lon="-1.33615">
        <ele>16.1</ele>
        <time>2020-06-15T09:22:16Z</time>
      </trkpt>
      <trkpt lat="49.69046" lon="-1.33613">
        <ele>16.1</ele>
        <time>2020-06-15T09:22:17Z</time>
      </trkpt>
      <trkpt lat="49.69045" lon="-1.33611">
        <ele>16.1</ele>
        <time>2020-06-15T09:22:18Z</time>
      </trkpt>
      <trkpt lat="49.69044" lon="-1.33609">
        <ele>16.1</ele>
        <time>2020-06-15T09:22:19Z</time>
      </trkpt>
      <trkpt lat="49.69044" lon="-1.33608">
        <ele>16.1</ele>
        <time>2020-06-15T09:22:20Z</time>
      </trkpt>
      <trkpt lat="49.69043" lon="-1.33605">
        <ele>16.1</ele>
        <time>2020-06-15T09:22:21Z</time>
      </trkpt>
      <trkpt lat="49.69043" lon="-1.33603">
        <ele>16</ele>
        <time>2020-06-15T09:22:22Z</time>
      </trkpt>
      <trkpt lat="49.69041" lon="-1.33598">
        <ele>16</ele>
        <time>2020-06-15T09:22:23Z</time>
      </trkpt>
      <trkpt lat="49.69041" lon="-1.33597">
        <ele>16</ele>
        <time>2020-06-15T09:22:24Z</time>
      </trkpt>
      <trkpt lat="49.6904" lon="-1.33592">
        <ele>15.9</ele>
        <time>2020-06-15T09:22:25Z</time>
      </trkpt>
      <trkpt lat="49.69039" lon="-1.33587">
        <ele>15.9</ele>
        <time>2020-06-15T09:22:26Z</time>
      </trkpt>
      <trkpt lat="49.69038" lon="-1.33581">
        <ele>15.8</ele>
        <time>2020-06-15T09:22:27Z</time>
      </trkpt>
      <trkpt lat="49.69037" lon="-1.33575">
        <ele>15.8</ele>
        <time>2020-06-15T09:22:28Z</time>
      </trkpt>
      <trkpt lat="49.69036" lon="-1.33568">
        <ele>15.7</ele>
        <time>2020-06-15T09:22:29Z</time>
      </trkpt>
      <trkpt lat="49.69035" lon="-1.33563">
        <ele>15.6</ele>
        <time>2020-06-15T09:22:30Z</time>
      </trkpt>
      <trkpt lat="49.69033" lon="-1.33557">
        <ele>15.5</ele>
        <time>2020-06-15T09:22:31Z</time>
      </trkpt>
      <trkpt lat="49.69032" lon="-1.33552">
        <ele>15.4</ele>
        <time>2020-06-15T09:22:32Z</time>
      </trkpt>
      <trkpt lat="49.6903" lon="-1.33546">
        <ele>15.4</ele>
        <time>2020-06-15T09:22:33Z</time>
      </trkpt>
      <trkpt lat="49.69028" lon="-1.33541">
        <ele>15.3</ele>
        <time>2020-06-15T09:22:34Z</time>
      </trkpt>
      <trkpt lat="49.69026" lon="-1.33536">
        <ele>15.3</ele>
        <time>2020-06-15T09:22:35Z</time>
      </trkpt>
      <trkpt lat="49.69025" lon="-1.33532">
        <ele>15.2</ele>
        <time>2020-06-15T09:22:36Z</time>
      </trkpt>
      <trkpt lat="49.69023" lon="-1.33527">
        <ele>15.2</ele>
        <time>2020-06-15T09:22:37Z</time>
      </trkpt>
      <trkpt lat="49.69022" lon="-1.33521">
        <ele>15.1</ele>
        <time>2020-06-15T09:22:38Z</time>
      </trkpt>
      <trkpt lat="49.6902" lon="-1.33516">
        <ele>15</ele>
        <time>2020-06-15T09:22:39Z</time>
      </trkpt>
      <trkpt lat="49.69018" lon="-1.33511">
        <ele>15</ele>
        <time>2020-06-15T09:22:40Z</time>
      </trkpt>
      <trkpt lat="49.69017" lon="-1.33506">
        <ele>14.9</ele>
        <time>2020-06-15T09:22:41Z</time>
      </trkpt>
      <trkpt lat="49.69015" lon="-1.33501">
        <ele>14.8</ele>
        <time>2020-06-15T09:22:42Z</time>
      </trkpt>
      <trkpt lat="49.69014" lon="-1.33497">
        <ele>14.8</ele>
        <time>2020-06-15T09:22:43Z</time>
      </trkpt>
      <trkpt lat="49.69012" lon="-1.33491">
        <ele>14.7</ele>
        <time>2020-06-15T09:22:44Z</time>
      </trkpt>
      <trkpt lat="49.69009" lon="-1.33488">
        <ele>14.6</ele>
        <time>2020-06-15T09:22:45Z</time>
      </trkpt>
      <trkpt lat="49.69007" lon="-1.33484">
        <ele>14.5</ele>
        <time>2020-06-15T09:22:46Z</time>
      </trkpt>
      <trkpt lat="49.69005" lon="-1.3348">
        <ele>14.4</ele>
        <time>2020-06-15T09:22:47Z</time>
      </trkpt>
      <trkpt lat="49.69002" lon="-1.33474">
        <ele>14.3</ele>
        <time>2020-06-15T09:22:48Z</time>
      </trkpt>
      <trkpt lat="49.68999" lon="-1.33468">
        <ele>14.2</ele>
        <time>2020-06-15T09:22:49Z</time>
      </trkpt>
      <trkpt lat="49.68997" lon="-1.33463">
        <ele>14.1</ele>
        <time>2020-06-15T09:22:50Z</time>
      </trkpt>
      <trkpt lat="49.68994" lon="-1.33457">
        <ele>14</ele>
        <time>2020-06-15T09:22:51Z</time>
      </trkpt>
      <trkpt lat="49.68992" lon="-1.33452">
        <ele>13.9</ele>
        <time>2020-06-15T09:22:52Z</time>
      </trkpt>
      <trkpt lat="49.6899" lon="-1.33445">
        <ele>13.8</ele>
        <time>2020-06-15T09:22:53Z</time>
      </trkpt>
      <trkpt lat="49.68987" lon="-1.33439">
        <ele>13.6</ele>
        <time>2020-06-15T09:22:54Z</time>
      </trkpt>
      <trkpt lat="49.68985" lon="-1.33432">
        <ele>13.5</ele>
        <time>2020-06-15T09:22:55Z</time>
      </trkpt>
      <trkpt lat="49.68981" lon="-1.33426">
        <ele>13.3</ele>
        <time>2020-06-15T09:22:56Z</time>
      </trkpt>
      <trkpt lat="49.68979" lon="-1.33419">
        <ele>13.2</ele>
        <time>2020-06-15T09:22:57Z</time>
      </trkpt>
      <trkpt lat="49.68976" lon="-1.33412">
        <ele>13.1</ele>
        <time>2020-06-15T09:22:58Z</time>
      </trkpt>
      <trkpt lat="49.68973" lon="-1.33406">
        <ele>12.9</ele>
        <time>2020-06-15T09:22:59Z</time>
      </trkpt>
      <trkpt lat="49.68971" lon="-1.33398">
        <ele>12.8</ele>
        <time>2020-06-15T09:23:00Z</time>
      </trkpt>
      <trkpt lat="49.68968" lon="-1.33389">
        <ele>12.6</ele>
        <time>2020-06-15T09:23:01Z</time>
      </trkpt>
      <trkpt lat="49.68966" lon="-1.33381">
        <ele>12.5</ele>
        <time>2020-06-15T09:23:02Z</time>
      </trkpt>
      <trkpt lat="49.68964" lon="-1.33372">
        <ele>12.4</ele>
        <time>2020-06-15T09:23:03Z</time>
      </trkpt>
      <trkpt lat="49.68962" lon="-1.33364">
        <ele>12.3</ele>
        <time>2020-06-15T09:23:04Z</time>
      </trkpt>
      <trkpt lat="49.6896" lon="-1.33356">
        <ele>12.2</ele>
        <time>2020-06-15T09:23:05Z</time>
      </trkpt>
      <trkpt lat="49.68957" lon="-1.33349">
        <ele>12.1</ele>
        <time>2020-06-15T09:23:06Z</time>
      </trkpt>
      <trkpt lat="49.68955" lon="-1.3334">
        <ele>12</ele>
        <time>2020-06-15T09:23:07Z</time>
      </trkpt>
      <trkpt lat="49.68952" lon="-1.33331">
        <ele>11.9</ele>
        <time>2020-06-15T09:23:08Z</time>
      </trkpt>
      <trkpt lat="49.68949" lon="-1.33324">
        <ele>11.9</ele>
        <time>2020-06-15T09:23:09Z</time>
      </trkpt>
      <trkpt lat="49.68947" lon="-1.33316">
        <ele>11.8</ele>
        <time>2020-06-15T09:23:10Z</time>
      </trkpt>
      <trkpt lat="49.68944" lon="-1.33305">
        <ele>11.7</ele>
        <time>2020-06-15T09:23:11Z</time>
      </trkpt>
      <trkpt lat="49.68941" lon="-1.33296">
        <ele>11.6</ele>
        <time>2020-06-15T09:23:12Z</time>
      </trkpt>
      <trkpt lat="49.68938" lon="-1.33286">
        <ele>11.5</ele>
        <time>2020-06-15T09:23:13Z</time>
      </trkpt>
      <trkpt lat="49.68935" lon="-1.33278">
        <ele>11.4</ele>
        <time>2020-06-15T09:23:14Z</time>
      </trkpt>
      <trkpt lat="49.68933" lon="-1.33269">
        <ele>11.3</ele>
        <time>2020-06-15T09:23:15Z</time>
      </trkpt>
      <trkpt lat="49.68929" lon="-1.33261">
        <ele>11.3</ele>
        <time>2020-06-15T09:23:16Z</time>
      </trkpt>
      <trkpt lat="49.68927" lon="-1.33252">
        <ele>11.2</ele>
        <time>2020-06-15T09:23:17Z</time>
      </trkpt>
      <trkpt lat="49.68925" lon="-1.33243">
        <ele>11.1</ele>
        <time>2020-06-15T09:23:18Z</time>
      </trkpt>
      <trkpt lat="49.68922" lon="-1.33234">
        <ele>11.1</ele>
        <time>2020-06-15T09:23:19Z</time>
      </trkpt>
      <trkpt lat="49.6892" lon="-1.33225">
        <ele>11</ele>
        <time>2020-06-15T09:23:20Z</time>
      </trkpt>
      <trkpt lat="49.68916" lon="-1.33217">
        <ele>10.9</ele>
        <time>2020-06-15T09:23:21Z</time>
      </trkpt>
      <trkpt lat="49.68914" lon="-1.33208">
        <ele>10.9</ele>
        <time>2020-06-15T09:23:22Z</time>
      </trkpt>
      <trkpt lat="49.68911" lon="-1.332">
        <ele>10.8</ele>
        <time>2020-06-15T09:23:23Z</time>
      </trkpt>
      <trkpt lat="49.68909" lon="-1.3319">
        <ele>10.7</ele>
        <time>2020-06-15T09:23:24Z</time>
      </trkpt>
      <trkpt lat="49.68908" lon="-1.3318">
        <ele>10.7</ele>
        <time>2020-06-15T09:23:25Z</time>
      </trkpt>
      <trkpt lat="49.68906" lon="-1.33172">
        <ele>10.6</ele>
        <time>2020-06-15T09:23:26Z</time>
      </trkpt>
      <trkpt lat="49.68904" lon="-1.33164">
        <ele>10.6</ele>
        <time>2020-06-15T09:23:27Z</time>
      </trkpt>
      <trkpt lat="49.68902" lon="-1.33154">
        <ele>10.5</ele>
        <time>2020-06-15T09:23:28Z</time>
      </trkpt>
      <trkpt lat="49.68901" lon="-1.33144">
        <ele>10.4</ele>
        <time>2020-06-15T09:23:29Z</time>
      </trkpt>
      <trkpt lat="49.68899" lon="-1.33136">
        <ele>10.4</ele>
        <time>2020-06-15T09:23:30Z</time>
      </trkpt>
      <trkpt lat="49.68898" lon="-1.33126">
        <ele>10.3</ele>
        <time>2020-06-15T09:23:31Z</time>
      </trkpt>
      <trkpt lat="49.68897" lon="-1.33116">
        <ele>10.3</ele>
        <time>2020-06-15T09:23:32Z</time>
      </trkpt>
      <trkpt lat="49.68895" lon="-1.33106">
        <ele>10.2</ele>
        <time>2020-06-15T09:23:33Z</time>
      </trkpt>
      <trkpt lat="49.68893" lon="-1.33096">
        <ele>10.1</ele>
        <time>2020-06-15T09:23:34Z</time>
      </trkpt>
      <trkpt lat="49.68892" lon="-1.33087">
        <ele>10.1</ele>
        <time>2020-06-15T09:23:35Z</time>
      </trkpt>
      <trkpt lat="49.68891" lon="-1.3308">
        <ele>10.1</ele>
        <time>2020-06-15T09:23:36Z</time>
      </trkpt>
      <trkpt lat="49.68889" lon="-1.33073">
        <ele>10</ele>
        <time>2020-06-15T09:23:37Z</time>
      </trkpt>
      <trkpt lat="49.68888" lon="-1.33063">
        <ele>10</ele>
        <time>2020-06-15T09:23:38Z</time>
      </trkpt>
      <trkpt lat="49.68886" lon="-1.33052">
        <ele>9.9</ele>
        <time>2020-06-15T09:23:39Z</time>
      </trkpt>
      <trkpt lat="49.68884" lon="-1.33043">
        <ele>9.9</ele>
        <time>2020-06-15T09:23:40Z</time>
      </trkpt>
      <trkpt lat="49.68883" lon="-1.33034">
        <ele>9.8</ele>
        <time>2020-06-15T09:23:41Z</time>
      </trkpt>
      <trkpt lat="49.68882" lon="-1.33024">
        <ele>9.8</ele>
        <time>2020-06-15T09:23:42Z</time>
      </trkpt>
      <trkpt lat="49.6888" lon="-1.33012">
        <ele>9.7</ele>
        <time>2020-06-15T09:23:43Z</time>
      </trkpt>
      <trkpt lat="49.68878" lon="-1.33003">
        <ele>9.6</ele>
        <time>2020-06-15T09:23:44Z</time>
      </trkpt>
      <trkpt lat="49.68878" lon="-1.32991">
        <ele>9.5</ele>
        <time>2020-06-15T09:23:45Z</time>
      </trkpt>
      <trkpt lat="49.68876" lon="-1.32981">
        <ele>9.4</ele>
        <time>2020-06-15T09:23:46Z</time>
      </trkpt>
      <trkpt lat="49.68874" lon="-1.32971">
        <ele>9.4</ele>
        <time>2020-06-15T09:23:47Z</time>
      </trkpt>
      <trkpt lat="49.68873" lon="-1.32963">
        <ele>9.3</ele>
        <time>2020-06-15T09:23:48Z</time>
      </trkpt>
      <trkpt lat="49.68872" lon="-1.32952">
        <ele>9.2</ele>
        <time>2020-06-15T09:23:49Z</time>
      </trkpt>
      <trkpt lat="49.68871" lon="-1.32942">
        <ele>9.1</ele>
        <time>2020-06-15T09:23:50Z</time>
      </trkpt>
      <trkpt lat="49.68869" lon="-1.32933">
        <ele>9</ele>
        <time>2020-06-15T09:23:51Z</time>
      </trkpt>
      <trkpt lat="49.68867" lon="-1.32924">
        <ele>8.9</ele>
        <time>2020-06-15T09:23:52Z</time>
      </trkpt>
      <trkpt lat="49.68866" lon="-1.32914">
        <ele>8.9</ele>
        <time>2020-06-15T09:23:53Z</time>
      </trkpt>
      <trkpt lat="49.68864" lon="-1.32905">
        <ele>8.8</ele>
        <time>2020-06-15T09:23:54Z</time>
      </trkpt>
      <trkpt lat="49.68863" lon="-1.32895">
        <ele>8.7</ele>
        <time>2020-06-15T09:23:55Z</time>
      </trkpt>
      <trkpt lat="49.68861" lon="-1.32884">
        <ele>8.6</ele>
        <time>2020-06-15T09:23:56Z</time>
      </trkpt>
      <trkpt lat="49.6886" lon="-1.32875">
        <ele>8.6</ele>
        <time>2020-06-15T09:23:57Z</time>
      </trkpt>
      <trkpt lat="49.68858" lon="-1.32866">
        <ele>8.5</ele>
        <time>2020-06-15T09:23:58Z</time>
      </trkpt>
      <trkpt lat="49.68857" lon="-1.3286">
        <ele>8.4</ele>
        <time>2020-06-15T09:23:59Z</time>
      </trkpt>
      <trkpt lat="49.68856" lon="-1.3285">
        <ele>8.4</ele>
        <time>2020-06-15T09:24:00Z</time>
      </trkpt>
      <trkpt lat="49.68854" lon="-1.32841">
        <ele>8.3</ele>
        <time>2020-06-15T09:24:01Z</time>
      </trkpt>
      <trkpt lat="49.68852" lon="-1.32833">
        <ele>8.2</ele>
        <time>2020-06-15T09:24:02Z</time>
      </trkpt>
      <trkpt lat="49.68851" lon="-1.32823">
        <ele>8.1</ele>
        <time>2020-06-15T09:24:03Z</time>
      </trkpt>
      <trkpt lat="49.68849" lon="-1.32813">
        <ele>8.1</ele>
        <time>2020-06-15T09:24:04Z</time>
      </trkpt>
      <trkpt lat="49.68848" lon="-1.32806">
        <ele>8</ele>
        <time>2020-06-15T09:24:05Z</time>
      </trkpt>
      <trkpt lat="49.68846" lon="-1.32795">
        <ele>8</ele>
        <time>2020-06-15T09:24:06Z</time>
      </trkpt>
      <trkpt lat="49.68844" lon="-1.32786">
        <ele>7.9</ele>
        <time>2020-06-15T09:24:07Z</time>
      </trkpt>
      <trkpt lat="49.68843" lon="-1.32776">
        <ele>7.9</ele>
        <time>2020-06-15T09:24:08Z</time>
      </trkpt>
      <trkpt lat="49.68842" lon="-1.32765">
        <ele>7.9</ele>
        <time>2020-06-15T09:24:09Z</time>
      </trkpt>
      <trkpt lat="49.6884" lon="-1.32756">
        <ele>7.9</ele>
        <time>2020-06-15T09:24:10Z</time>
      </trkpt>
      <trkpt lat="49.68839" lon="-1.32747">
        <ele>7.9</ele>
        <time>2020-06-15T09:24:11Z</time>
      </trkpt>
      <trkpt lat="49.68838" lon="-1.3274">
        <ele>7.9</ele>
        <time>2020-06-15T09:24:12Z</time>
      </trkpt>
      <trkpt lat="49.68836" lon="-1.3273">
        <ele>7.9</ele>
        <time>2020-06-15T09:24:13Z</time>
      </trkpt>
      <trkpt lat="49.68835" lon="-1.32721">
        <ele>8</ele>
        <time>2020-06-15T09:24:14Z</time>
      </trkpt>
      <trkpt lat="49.68834" lon="-1.3271">
        <ele>8.1</ele>
        <time>2020-06-15T09:24:15Z</time>
      </trkpt>
      <trkpt lat="49.68832" lon="-1.32702">
        <ele>8.1</ele>
        <time>2020-06-15T09:24:16Z</time>
      </trkpt>
      <trkpt lat="49.68831" lon="-1.32694">
        <ele>8.2</ele>
        <time>2020-06-15T09:24:17Z</time>
      </trkpt>
      <trkpt lat="49.6883" lon="-1.32685">
        <ele>8.4</ele>
        <time>2020-06-15T09:24:18Z</time>
      </trkpt>
      <trkpt lat="49.68828" lon="-1.32678">
        <ele>8.5</ele>
        <time>2020-06-15T09:24:19Z</time>
      </trkpt>
      <trkpt lat="49.68826" lon="-1.32671">
        <ele>8.6</ele>
        <time>2020-06-15T09:24:20Z</time>
      </trkpt>
      <trkpt lat="49.68824" lon="-1.32664">
        <ele>8.7</ele>
        <time>2020-06-15T09:24:21Z</time>
      </trkpt>
      <trkpt lat="49.68822" lon="-1.32656">
        <ele>8.9</ele>
        <time>2020-06-15T09:24:22Z</time>
      </trkpt>
      <trkpt lat="49.6882" lon="-1.3265">
        <ele>9</ele>
        <time>2020-06-15T09:24:23Z</time>
      </trkpt>
      <trkpt lat="49.68818" lon="-1.32642">
        <ele>9.1</ele>
        <time>2020-06-15T09:24:24Z</time>
      </trkpt>
      <trkpt lat="49.68816" lon="-1.32634">
        <ele>9.3</ele>
        <time>2020-06-15T09:24:25Z</time>
      </trkpt>
      <trkpt lat="49.68814" lon="-1.32626">
        <ele>9.4</ele>
        <time>2020-06-15T09:24:26Z</time>
      </trkpt>
      <trkpt lat="49.68812" lon="-1.32618">
        <ele>9.6</ele>
        <time>2020-06-15T09:24:27Z</time>
      </trkpt>
      <trkpt lat="49.68809" lon="-1.3261">
        <ele>9.7</ele>
        <time>2020-06-15T09:24:28Z</time>
      </trkpt>
      <trkpt lat="49.68807" lon="-1.32603">
        <ele>9.9</ele>
        <time>2020-06-15T09:24:29Z</time>
      </trkpt>
      <trkpt lat="49.68805" lon="-1.32596">
        <ele>10.1</ele>
        <time>2020-06-15T09:24:30Z</time>
      </trkpt>
      <trkpt lat="49.68804" lon="-1.32592">
        <ele>10.2</ele>
        <time>2020-06-15T09:24:31Z</time>
      </trkpt>
      <trkpt lat="49.68802" lon="-1.32586">
        <ele>10.4</ele>
        <time>2020-06-15T09:24:32Z</time>
      </trkpt>
      <trkpt lat="49.688" lon="-1.32581">
        <ele>10.6</ele>
        <time>2020-06-15T09:24:33Z</time>
      </trkpt>
      <trkpt lat="49.68798" lon="-1.32576">
        <ele>10.8</ele>
        <time>2020-06-15T09:24:34Z</time>
      </trkpt>
      <trkpt lat="49.68795" lon="-1.32571">
        <ele>10.9</ele>
        <time>2020-06-15T09:24:35Z</time>
      </trkpt>
      <trkpt lat="49.68792" lon="-1.32566">
        <ele>11</ele>
        <time>2020-06-15T09:24:36Z</time>
      </trkpt>
      <trkpt lat="49.6879" lon="-1.32561">
        <ele>11.1</ele>
        <time>2020-06-15T09:24:37Z</time>
      </trkpt>
      <trkpt lat="49.68787" lon="-1.32558">
        <ele>11.2</ele>
        <time>2020-06-15T09:24:38Z</time>
      </trkpt>
      <trkpt lat="49.68785" lon="-1.32555">
        <ele>11.3</ele>
        <time>2020-06-15T09:24:39Z</time>
      </trkpt>
      <trkpt lat="49.68783" lon="-1.32551">
        <ele>11.3</ele>
        <time>2020-06-15T09:24:40Z</time>
      </trkpt>
      <trkpt lat="49.68781" lon="-1.32547">
        <ele>11.4</ele>
        <time>2020-06-15T09:24:41Z</time>
      </trkpt>
      <trkpt lat="49.68779" lon="-1.32543">
        <ele>11.5</ele>
        <time>2020-06-15T09:24:42Z</time>
      </trkpt>
      <trkpt lat="49.68776" lon="-1.32537">
        <ele>11.5</ele>
        <time>2020-06-15T09:24:43Z</time>
      </trkpt>
      <trkpt lat="49.68774" lon="-1.32533">
        <ele>11.6</ele>
        <time>2020-06-15T09:24:44Z</time>
      </trkpt>
      <trkpt lat="49.68771" lon="-1.32528">
        <ele>11.6</ele>
        <time>2020-06-15T09:24:45Z</time>
      </trkpt>
      <trkpt lat="49.68768" lon="-1.32523">
        <ele>11.7</ele>
        <time>2020-06-15T09:24:46Z</time>
      </trkpt>
      <trkpt lat="49.68765" lon="-1.32517">
        <ele>11.8</ele>
        <time>2020-06-15T09:24:47Z</time>
      </trkpt>
      <trkpt lat="49.68762" lon="-1.32512">
        <ele>11.8</ele>
        <time>2020-06-15T09:24:48Z</time>
      </trkpt>
      <trkpt lat="49.68759" lon="-1.32507">
        <ele>11.9</ele>
        <time>2020-06-15T09:24:49Z</time>
      </trkpt>
      <trkpt lat="49.68756" lon="-1.32501">
        <ele>11.9</ele>
        <time>2020-06-15T09:24:50Z</time>
      </trkpt>
      <trkpt lat="49.68753" lon="-1.32495">
        <ele>11.9</ele>
        <time>2020-06-15T09:24:51Z</time>
      </trkpt>
      <trkpt lat="49.6875" lon="-1.32489">
        <ele>12</ele>
        <time>2020-06-15T09:24:52Z</time>
      </trkpt>
      <trkpt lat="49.68747" lon="-1.32486">
        <ele>12</ele>
        <time>2020-06-15T09:24:53Z</time>
      </trkpt>
      <trkpt lat="49.68743" lon="-1.32481">
        <ele>12.1</ele>
        <time>2020-06-15T09:24:54Z</time>
      </trkpt>
      <trkpt lat="49.6874" lon="-1.32475">
        <ele>12.2</ele>
        <time>2020-06-15T09:24:55Z</time>
      </trkpt>
      <trkpt lat="49.68736" lon="-1.32469">
        <ele>12.2</ele>
        <time>2020-06-15T09:24:56Z</time>
      </trkpt>
      <trkpt lat="49.68733" lon="-1.32463">
        <ele>12.3</ele>
        <time>2020-06-15T09:24:57Z</time>
      </trkpt>
      <trkpt lat="49.6873" lon="-1.32457">
        <ele>12.4</ele>
        <time>2020-06-15T09:24:58Z</time>
      </trkpt>
      <trkpt lat="49.68726" lon="-1.32452">
        <ele>12.4</ele>
        <time>2020-06-15T09:24:59Z</time>
      </trkpt>
      <trkpt lat="49.68723" lon="-1.32447">
        <ele>12.5</ele>
        <time>2020-06-15T09:25:00Z</time>
      </trkpt>
      <trkpt lat="49.6872" lon="-1.32441">
        <ele>12.5</ele>
        <time>2020-06-15T09:25:01Z</time>
      </trkpt>
      <trkpt lat="49.68717" lon="-1.32436">
        <ele>12.6</ele>
        <time>2020-06-15T09:25:02Z</time>
      </trkpt>
      <trkpt lat="49.68713" lon="-1.32429">
        <ele>12.6</ele>
        <time>2020-06-15T09:25:03Z</time>
      </trkpt>
      <trkpt lat="49.6871" lon="-1.32422">
        <ele>12.7</ele>
        <time>2020-06-15T09:25:04Z</time>
      </trkpt>
      <trkpt lat="49.68707" lon="-1.32417">
        <ele>12.8</ele>
        <time>2020-06-15T09:25:05Z</time>
      </trkpt>
      <trkpt lat="49.68703" lon="-1.32411">
        <ele>12.8</ele>
        <time>2020-06-15T09:25:06Z</time>
      </trkpt>
      <trkpt lat="49.687" lon="-1.32404">
        <ele>12.9</ele>
        <time>2020-06-15T09:25:07Z</time>
      </trkpt>
      <trkpt lat="49.68696" lon="-1.32397">
        <ele>13</ele>
        <time>2020-06-15T09:25:08Z</time>
      </trkpt>
      <trkpt lat="49.68693" lon="-1.32391">
        <ele>13</ele>
        <time>2020-06-15T09:25:09Z</time>
      </trkpt>
      <trkpt lat="49.6869" lon="-1.32384">
        <ele>13</ele>
        <time>2020-06-15T09:25:10Z</time>
      </trkpt>
      <trkpt lat="49.68687" lon="-1.32377">
        <ele>13</ele>
        <time>2020-06-15T09:25:11Z</time>
      </trkpt>
      <trkpt lat="49.68684" lon="-1.32371">
        <ele>13.1</ele>
        <time>2020-06-15T09:25:12Z</time>
      </trkpt>
      <trkpt lat="49.6868" lon="-1.32365">
        <ele>13.1</ele>
        <time>2020-06-15T09:25:13Z</time>
      </trkpt>
      <trkpt lat="49.68677" lon="-1.32358">
        <ele>13.1</ele>
        <time>2020-06-15T09:25:14Z</time>
      </trkpt>
      <trkpt lat="49.68674" lon="-1.32351">
        <ele>13.1</ele>
        <time>2020-06-15T09:25:15Z</time>
      </trkpt>
      <trkpt lat="49.68672" lon="-1.32345">
        <ele>13.2</ele>
        <time>2020-06-15T09:25:16Z</time>
      </trkpt>
      <trkpt lat="49.6867" lon="-1.32338">
        <ele>13.2</ele>
        <time>2020-06-15T09:25:17Z</time>
      </trkpt>
      <trkpt lat="49.68668" lon="-1.3233">
        <ele>13.3</ele>
        <time>2020-06-15T09:25:18Z</time>
      </trkpt>
      <trkpt lat="49.68665" lon="-1.32323">
        <ele>13.3</ele>
        <time>2020-06-15T09:25:19Z</time>
      </trkpt>
      <trkpt lat="49.68663" lon="-1.32314">
        <ele>13.4</ele>
        <time>2020-06-15T09:25:20Z</time>
      </trkpt>
      <trkpt lat="49.6866" lon="-1.32307">
        <ele>13.4</ele>
        <time>2020-06-15T09:25:21Z</time>
      </trkpt>
      <trkpt lat="49.68658" lon="-1.32299">
        <ele>13.4</ele>
        <time>2020-06-15T09:25:22Z</time>
      </trkpt>
      <trkpt lat="49.68656" lon="-1.32291">
        <ele>13.3</ele>
        <time>2020-06-15T09:25:23Z</time>
      </trkpt>
      <trkpt lat="49.68654" lon="-1.32283">
        <ele>13.3</ele>
        <time>2020-06-15T09:25:24Z</time>
      </trkpt>
      <trkpt lat="49.68652" lon="-1.32275">
        <ele>13.3</ele>
        <time>2020-06-15T09:25:25Z</time>
      </trkpt>
      <trkpt lat="49.68651" lon="-1.32266">
        <ele>13.2</ele>
        <time>2020-06-15T09:25:26Z</time>
      </trkpt>
      <trkpt lat="49.6865" lon="-1.32258">
        <ele>13.2</ele>
        <time>2020-06-15T09:25:27Z</time>
      </trkpt>
      <trkpt lat="49.68649" lon="-1.32249">
        <ele>13.1</ele>
        <time>2020-06-15T09:25:28Z</time>
      </trkpt>
      <trkpt lat="49.68647" lon="-1.3224">
        <ele>13.1</ele>
        <time>2020-06-15T09:25:29Z</time>
      </trkpt>
      <trkpt lat="49.68646" lon="-1.32232">
        <ele>13.1</ele>
        <time>2020-06-15T09:25:30Z</time>
      </trkpt>
      <trkpt lat="49.68644" lon="-1.32223">
        <ele>13</ele>
        <time>2020-06-15T09:25:31Z</time>
      </trkpt>
      <trkpt lat="49.68642" lon="-1.32215">
        <ele>12.9</ele>
        <time>2020-06-15T09:25:32Z</time>
      </trkpt>
      <trkpt lat="49.68641" lon="-1.32206">
        <ele>12.8</ele>
        <time>2020-06-15T09:25:33Z</time>
      </trkpt>
      <trkpt lat="49.68638" lon="-1.32198">
        <ele>12.7</ele>
        <time>2020-06-15T09:25:34Z</time>
      </trkpt>
      <trkpt lat="49.68636" lon="-1.3219">
        <ele>12.5</ele>
        <time>2020-06-15T09:25:35Z</time>
      </trkpt>
      <trkpt lat="49.68634" lon="-1.32181">
        <ele>12.4</ele>
        <time>2020-06-15T09:25:36Z</time>
      </trkpt>
      <trkpt lat="49.68632" lon="-1.32173">
        <ele>12.2</ele>
        <time>2020-06-15T09:25:37Z</time>
      </trkpt>
      <trkpt lat="49.6863" lon="-1.32165">
        <ele>12</ele>
        <time>2020-06-15T09:25:38Z</time>
      </trkpt>
      <trkpt lat="49.68628" lon="-1.32157">
        <ele>11.9</ele>
        <time>2020-06-15T09:25:39Z</time>
      </trkpt>
      <trkpt lat="49.68626" lon="-1.32147">
        <ele>11.7</ele>
        <time>2020-06-15T09:25:40Z</time>
      </trkpt>
      <trkpt lat="49.68624" lon="-1.3214">
        <ele>11.6</ele>
        <time>2020-06-15T09:25:41Z</time>
      </trkpt>
      <trkpt lat="49.68622" lon="-1.3213">
        <ele>11.5</ele>
        <time>2020-06-15T09:25:42Z</time>
      </trkpt>
      <trkpt lat="49.6862" lon="-1.32124">
        <ele>11.3</ele>
        <time>2020-06-15T09:25:43Z</time>
      </trkpt>
      <trkpt lat="49.68619" lon="-1.32115">
        <ele>11.2</ele>
        <time>2020-06-15T09:25:44Z</time>
      </trkpt>
      <trkpt lat="49.68617" lon="-1.32108">
        <ele>11</ele>
        <time>2020-06-15T09:25:45Z</time>
      </trkpt>
      <trkpt lat="49.68615" lon="-1.32099">
        <ele>10.9</ele>
        <time>2020-06-15T09:25:46Z</time>
      </trkpt>
      <trkpt lat="49.68613" lon="-1.32093">
        <ele>10.7</ele>
        <time>2020-06-15T09:25:47Z</time>
      </trkpt>
      <trkpt lat="49.68611" lon="-1.32084">
        <ele>10.6</ele>
        <time>2020-06-15T09:25:48Z</time>
      </trkpt>
      <trkpt lat="49.68608" lon="-1.32077">
        <ele>10.4</ele>
        <time>2020-06-15T09:25:49Z</time>
      </trkpt>
      <trkpt lat="49.68606" lon="-1.32068">
        <ele>10.3</ele>
        <time>2020-06-15T09:25:50Z</time>
      </trkpt>
      <trkpt lat="49.68604" lon="-1.32059">
        <ele>10.2</ele>
        <time>2020-06-15T09:25:51Z</time>
      </trkpt>
      <trkpt lat="49.68602" lon="-1.32048">
        <ele>10</ele>
        <time>2020-06-15T09:25:52Z</time>
      </trkpt>
      <trkpt lat="49.68599" lon="-1.32039">
        <ele>9.8</ele>
        <time>2020-06-15T09:25:53Z</time>
      </trkpt>
      <trkpt lat="49.68597" lon="-1.32029">
        <ele>9.6</ele>
        <time>2020-06-15T09:25:54Z</time>
      </trkpt>
      <trkpt lat="49.68595" lon="-1.3202">
        <ele>9.5</ele>
        <time>2020-06-15T09:25:55Z</time>
      </trkpt>
      <trkpt lat="49.68593" lon="-1.3201">
        <ele>9.3</ele>
        <time>2020-06-15T09:25:56Z</time>
      </trkpt>
      <trkpt lat="49.68591" lon="-1.31999">
        <ele>9.1</ele>
        <time>2020-06-15T09:25:57Z</time>
      </trkpt>
      <trkpt lat="49.68589" lon="-1.31991">
        <ele>9</ele>
        <time>2020-06-15T09:25:58Z</time>
      </trkpt>
      <trkpt lat="49.68587" lon="-1.31982">
        <ele>8.9</ele>
        <time>2020-06-15T09:25:59Z</time>
      </trkpt>
      <trkpt lat="49.68586" lon="-1.31971">
        <ele>8.7</ele>
        <time>2020-06-15T09:26:00Z</time>
      </trkpt>
      <trkpt lat="49.68585" lon="-1.31961">
        <ele>8.6</ele>
        <time>2020-06-15T09:26:01Z</time>
      </trkpt>
      <trkpt lat="49.68583" lon="-1.31948">
        <ele>8.4</ele>
        <time>2020-06-15T09:26:02Z</time>
      </trkpt>
      <trkpt lat="49.68583" lon="-1.31937">
        <ele>8.3</ele>
        <time>2020-06-15T09:26:03Z</time>
      </trkpt>
      <trkpt lat="49.68582" lon="-1.31926">
        <ele>8</ele>
        <time>2020-06-15T09:26:04Z</time>
      </trkpt>
      <trkpt lat="49.68581" lon="-1.31918">
        <ele>7.9</ele>
        <time>2020-06-15T09:26:05Z</time>
      </trkpt>
      <trkpt lat="49.68581" lon="-1.31908">
        <ele>7.7</ele>
        <time>2020-06-15T09:26:06Z</time>
      </trkpt>
      <trkpt lat="49.68581" lon="-1.31899">
        <ele>7.5</ele>
        <time>2020-06-15T09:26:07Z</time>
      </trkpt>
      <trkpt lat="49.68581" lon="-1.31889">
        <ele>7.3</ele>
        <time>2020-06-15T09:26:08Z</time>
      </trkpt>
      <trkpt lat="49.68582" lon="-1.3188">
        <ele>7.1</ele>
        <time>2020-06-15T09:26:09Z</time>
      </trkpt>
      <trkpt lat="49.68583" lon="-1.31868">
        <ele>6.9</ele>
        <time>2020-06-15T09:26:10Z</time>
      </trkpt>
      <trkpt lat="49.68583" lon="-1.31858">
        <ele>6.6</ele>
        <time>2020-06-15T09:26:11Z</time>
      </trkpt>
      <trkpt lat="49.68584" lon="-1.31847">
        <ele>6.3</ele>
        <time>2020-06-15T09:26:12Z</time>
      </trkpt>
      <trkpt lat="49.68584" lon="-1.31837">
        <ele>6.1</ele>
        <time>2020-06-15T09:26:13Z</time>
      </trkpt>
      <trkpt lat="49.68584" lon="-1.31826">
        <ele>5.9</ele>
        <time>2020-06-15T09:26:14Z</time>
      </trkpt>
      <trkpt lat="49.68585" lon="-1.31816">
        <ele>5.7</ele>
        <time>2020-06-15T09:26:15Z</time>
      </trkpt>
      <trkpt lat="49.68586" lon="-1.31805">
        <ele>5.5</ele>
        <time>2020-06-15T09:26:16Z</time>
      </trkpt>
      <trkpt lat="49.68587" lon="-1.31794">
        <ele>5.3</ele>
        <time>2020-06-15T09:26:17Z</time>
      </trkpt>
      <trkpt lat="49.68588" lon="-1.31783">
        <ele>5.2</ele>
        <time>2020-06-15T09:26:18Z</time>
      </trkpt>
      <trkpt lat="49.68589" lon="-1.31774">
        <ele>5</ele>
        <time>2020-06-15T09:26:19Z</time>
      </trkpt>
      <trkpt lat="49.6859" lon="-1.31762">
        <ele>4.8</ele>
        <time>2020-06-15T09:26:20Z</time>
      </trkpt>
      <trkpt lat="49.6859" lon="-1.31751">
        <ele>4.6</ele>
        <time>2020-06-15T09:26:21Z</time>
      </trkpt>
      <trkpt lat="49.68591" lon="-1.31742">
        <ele>4.5</ele>
        <time>2020-06-15T09:26:22Z</time>
      </trkpt>
      <trkpt lat="49.68592" lon="-1.31731">
        <ele>4.4</ele>
        <time>2020-06-15T09:26:23Z</time>
      </trkpt>
      <trkpt lat="49.68593" lon="-1.31719">
        <ele>4.3</ele>
        <time>2020-06-15T09:26:24Z</time>
      </trkpt>
      <trkpt lat="49.68595" lon="-1.31707">
        <ele>4.3</ele>
        <time>2020-06-15T09:26:25Z</time>
      </trkpt>
      <trkpt lat="49.68595" lon="-1.31695">
        <ele>4.3</ele>
        <time>2020-06-15T09:26:26Z</time>
      </trkpt>
      <trkpt lat="49.68595" lon="-1.31685">
        <ele>4.3</ele>
        <time>2020-06-15T09:26:27Z</time>
      </trkpt>
      <trkpt lat="49.68594" lon="-1.31676">
        <ele>4.3</ele>
        <time>2020-06-15T09:26:28Z</time>
      </trkpt>
      <trkpt lat="49.68593" lon="-1.31665">
        <ele>4.3</ele>
        <time>2020-06-15T09:26:29Z</time>
      </trkpt>
      <trkpt lat="49.68591" lon="-1.31654">
        <ele>4.3</ele>
        <time>2020-06-15T09:26:30Z</time>
      </trkpt>
      <trkpt lat="49.6859" lon="-1.31645">
        <ele>4.3</ele>
        <time>2020-06-15T09:26:31Z</time>
      </trkpt>
      <trkpt lat="49.68588" lon="-1.31635">
        <ele>4.3</ele>
        <time>2020-06-15T09:26:32Z</time>
      </trkpt>
      <trkpt lat="49.68587" lon="-1.31627">
        <ele>4.3</ele>
        <time>2020-06-15T09:26:33Z</time>
      </trkpt>
      <trkpt lat="49.68586" lon="-1.31619">
        <ele>4.3</ele>
        <time>2020-06-15T09:26:34Z</time>
      </trkpt>
      <trkpt lat="49.68584" lon="-1.31612">
        <ele>4.3</ele>
        <time>2020-06-15T09:26:35Z</time>
      </trkpt>
      <trkpt lat="49.68583" lon="-1.31605">
        <ele>4.4</ele>
        <time>2020-06-15T09:26:36Z</time>
      </trkpt>
      <trkpt lat="49.6858" lon="-1.31598">
        <ele>4.4</ele>
        <time>2020-06-15T09:26:37Z</time>
      </trkpt>
      <trkpt lat="49.68576" lon="-1.31591">
        <ele>4.4</ele>
        <time>2020-06-15T09:26:38Z</time>
      </trkpt>
      <trkpt lat="49.68572" lon="-1.31584">
        <ele>4.4</ele>
        <time>2020-06-15T09:26:39Z</time>
      </trkpt>
      <trkpt lat="49.68568" lon="-1.31577">
        <ele>4.5</ele>
        <time>2020-06-15T09:26:40Z</time>
      </trkpt>
      <trkpt lat="49.68564" lon="-1.31571">
        <ele>4.5</ele>
        <time>2020-06-15T09:26:41Z</time>
      </trkpt>
      <trkpt lat="49.68561" lon="-1.31564">
        <ele>4.5</ele>
        <time>2020-06-15T09:26:42Z</time>
      </trkpt>
      <trkpt lat="49.68558" lon="-1.31558">
        <ele>4.5</ele>
        <time>2020-06-15T09:26:43Z</time>
      </trkpt>
      <trkpt lat="49.68554" lon="-1.31552">
        <ele>4.5</ele>
        <time>2020-06-15T09:26:44Z</time>
      </trkpt>
      <trkpt lat="49.6855" lon="-1.31543">
        <ele>4.5</ele>
        <time>2020-06-15T09:26:45Z</time>
      </trkpt>
      <trkpt lat="49.68547" lon="-1.31537">
        <ele>4.5</ele>
        <time>2020-06-15T09:26:46Z</time>
      </trkpt>
      <trkpt lat="49.68543" lon="-1.31529">
        <ele>4.6</ele>
        <time>2020-06-15T09:26:47Z</time>
      </trkpt>
      <trkpt lat="49.68541" lon="-1.31522">
        <ele>4.6</ele>
        <time>2020-06-15T09:26:48Z</time>
      </trkpt>
      <trkpt lat="49.68538" lon="-1.31515">
        <ele>4.7</ele>
        <time>2020-06-15T09:26:49Z</time>
      </trkpt>
      <trkpt lat="49.68534" lon="-1.3151">
        <ele>4.7</ele>
        <time>2020-06-15T09:26:50Z</time>
      </trkpt>
      <trkpt lat="49.6853" lon="-1.31503">
        <ele>4.8</ele>
        <time>2020-06-15T09:26:51Z</time>
      </trkpt>
      <trkpt lat="49.68527" lon="-1.31496">
        <ele>4.9</ele>
        <time>2020-06-15T09:26:52Z</time>
      </trkpt>
      <trkpt lat="49.68524" lon="-1.3149">
        <ele>4.9</ele>
        <time>2020-06-15T09:26:53Z</time>
      </trkpt>
      <trkpt lat="49.6852" lon="-1.31484">
        <ele>5</ele>
        <time>2020-06-15T09:26:54Z</time>
      </trkpt>
      <trkpt lat="49.68517" lon="-1.31477">
        <ele>5</ele>
        <time>2020-06-15T09:26:55Z</time>
      </trkpt>
      <trkpt lat="49.68513" lon="-1.31471">
        <ele>5.1</ele>
        <time>2020-06-15T09:26:56Z</time>
      </trkpt>
      <trkpt lat="49.6851" lon="-1.31464">
        <ele>5.1</ele>
        <time>2020-06-15T09:26:57Z</time>
      </trkpt>
      <trkpt lat="49.68507" lon="-1.31458">
        <ele>5.1</ele>
        <time>2020-06-15T09:26:58Z</time>
      </trkpt>
      <trkpt lat="49.68504" lon="-1.3145">
        <ele>5.1</ele>
        <time>2020-06-15T09:26:59Z</time>
      </trkpt>
      <trkpt lat="49.68501" lon="-1.31443">
        <ele>5.2</ele>
        <time>2020-06-15T09:27:00Z</time>
      </trkpt>
      <trkpt lat="49.68498" lon="-1.31437">
        <ele>5.2</ele>
        <time>2020-06-15T09:27:01Z</time>
      </trkpt>
      <trkpt lat="49.68495" lon="-1.31431">
        <ele>5.2</ele>
        <time>2020-06-15T09:27:02Z</time>
      </trkpt>
      <trkpt lat="49.68492" lon="-1.31425">
        <ele>5.2</ele>
        <time>2020-06-15T09:27:03Z</time>
      </trkpt>
      <trkpt lat="49.68489" lon="-1.31419">
        <ele>5.2</ele>
        <time>2020-06-15T09:27:04Z</time>
      </trkpt>
      <trkpt lat="49.68486" lon="-1.31413">
        <ele>5.3</ele>
        <time>2020-06-15T09:27:05Z</time>
      </trkpt>
      <trkpt lat="49.68482" lon="-1.31406">
        <ele>5.3</ele>
        <time>2020-06-15T09:27:06Z</time>
      </trkpt>
      <trkpt lat="49.68479" lon="-1.31401">
        <ele>5.3</ele>
        <time>2020-06-15T09:27:07Z</time>
      </trkpt>
      <trkpt lat="49.68475" lon="-1.31394">
        <ele>5.4</ele>
        <time>2020-06-15T09:27:08Z</time>
      </trkpt>
      <trkpt lat="49.68472" lon="-1.31387">
        <ele>5.4</ele>
        <time>2020-06-15T09:27:09Z</time>
      </trkpt>
      <trkpt lat="49.68469" lon="-1.31381">
        <ele>5.4</ele>
        <time>2020-06-15T09:27:10Z</time>
      </trkpt>
      <trkpt lat="49.68466" lon="-1.31376">
        <ele>5.4</ele>
        <time>2020-06-15T09:27:11Z</time>
      </trkpt>
      <trkpt lat="49.68464" lon="-1.3137">
        <ele>5.4</ele>
        <time>2020-06-15T09:27:12Z</time>
      </trkpt>
      <trkpt lat="49.68461" lon="-1.31365">
        <ele>5.3</ele>
        <time>2020-06-15T09:27:13Z</time>
      </trkpt>
      <trkpt lat="49.68458" lon="-1.31358">
        <ele>5.3</ele>
        <time>2020-06-15T09:27:14Z</time>
      </trkpt>
      <trkpt lat="49.68455" lon="-1.31352">
        <ele>5.3</ele>
        <time>2020-06-15T09:27:15Z</time>
      </trkpt>
      <trkpt lat="49.68452" lon="-1.31346">
        <ele>5.2</ele>
        <time>2020-06-15T09:27:16Z</time>
      </trkpt>
      <trkpt lat="49.68449" lon="-1.3134">
        <ele>5.2</ele>
        <time>2020-06-15T09:27:17Z</time>
      </trkpt>
      <trkpt lat="49.68446" lon="-1.31334">
        <ele>5.2</ele>
        <time>2020-06-15T09:27:18Z</time>
      </trkpt>
      <trkpt lat="49.68443" lon="-1.31328">
        <ele>5.1</ele>
        <time>2020-06-15T09:27:19Z</time>
      </trkpt>
      <trkpt lat="49.68439" lon="-1.31322">
        <ele>5.1</ele>
        <time>2020-06-15T09:27:20Z</time>
      </trkpt>
      <trkpt lat="49.68436" lon="-1.31317">
        <ele>5</ele>
        <time>2020-06-15T09:27:21Z</time>
      </trkpt>
      <trkpt lat="49.68433" lon="-1.31311">
        <ele>4.9</ele>
        <time>2020-06-15T09:27:22Z</time>
      </trkpt>
      <trkpt lat="49.68431" lon="-1.31305">
        <ele>4.8</ele>
        <time>2020-06-15T09:27:23Z</time>
      </trkpt>
      <trkpt lat="49.68427" lon="-1.31299">
        <ele>4.7</ele>
        <time>2020-06-15T09:27:24Z</time>
      </trkpt>
      <trkpt lat="49.68424" lon="-1.31292">
        <ele>4.6</ele>
        <time>2020-06-15T09:27:25Z</time>
      </trkpt>
      <trkpt lat="49.68421" lon="-1.31285">
        <ele>4.5</ele>
        <time>2020-06-15T09:27:26Z</time>
      </trkpt>
      <trkpt lat="49.68417" lon="-1.31276">
        <ele>4.5</ele>
        <time>2020-06-15T09:27:27Z</time>
      </trkpt>
      <trkpt lat="49.68415" lon="-1.31268">
        <ele>4.5</ele>
        <time>2020-06-15T09:27:28Z</time>
      </trkpt>
      <trkpt lat="49.68411" lon="-1.31261">
        <ele>4.5</ele>
        <time>2020-06-15T09:27:29Z</time>
      </trkpt>
      <trkpt lat="49.68408" lon="-1.31252">
        <ele>4.5</ele>
        <time>2020-06-15T09:27:30Z</time>
      </trkpt>
      <trkpt lat="49.68405" lon="-1.31245">
        <ele>4.6</ele>
        <time>2020-06-15T09:27:31Z</time>
      </trkpt>
      <trkpt lat="49.68402" lon="-1.31237">
        <ele>4.8</ele>
        <time>2020-06-15T09:27:32Z</time>
      </trkpt>
      <trkpt lat="49.68398" lon="-1.31229">
        <ele>5</ele>
        <time>2020-06-15T09:27:33Z</time>
      </trkpt>
      <trkpt lat="49.68395" lon="-1.3122">
        <ele>5.3</ele>
        <time>2020-06-15T09:27:34Z</time>
      </trkpt>
      <trkpt lat="49.68392" lon="-1.31213">
        <ele>5.6</ele>
        <time>2020-06-15T09:27:35Z</time>
      </trkpt>
      <trkpt lat="49.68389" lon="-1.31204">
        <ele>6</ele>
        <time>2020-06-15T09:27:36Z</time>
      </trkpt>
      <trkpt lat="49.68386" lon="-1.31197">
        <ele>6.3</ele>
        <time>2020-06-15T09:27:37Z</time>
      </trkpt>
      <trkpt lat="49.68383" lon="-1.3119">
        <ele>6.7</ele>
        <time>2020-06-15T09:27:38Z</time>
      </trkpt>
      <trkpt lat="49.6838" lon="-1.31184">
        <ele>7.1</ele>
        <time>2020-06-15T09:27:39Z</time>
      </trkpt>
      <trkpt lat="49.68377" lon="-1.31176">
        <ele>7.5</ele>
        <time>2020-06-15T09:27:40Z</time>
      </trkpt>
      <trkpt lat="49.68375" lon="-1.31171">
        <ele>7.8</ele>
        <time>2020-06-15T09:27:41Z</time>
      </trkpt>
      <trkpt lat="49.68372" lon="-1.31167">
        <ele>8.1</ele>
        <time>2020-06-15T09:27:42Z</time>
      </trkpt>
      <trkpt lat="49.68371" lon="-1.31161">
        <ele>8.4</ele>
        <time>2020-06-15T09:27:43Z</time>
      </trkpt>
      <trkpt lat="49.68369" lon="-1.31156">
        <ele>8.7</ele>
        <time>2020-06-15T09:27:44Z</time>
      </trkpt>
      <trkpt lat="49.68367" lon="-1.31151">
        <ele>9.1</ele>
        <time>2020-06-15T09:27:45Z</time>
      </trkpt>
      <trkpt lat="49.68367" lon="-1.31149">
        <ele>9.2</ele>
        <time>2020-06-15T09:27:46Z</time>
      </trkpt>
      <trkpt lat="49.68365" lon="-1.31146">
        <ele>9.4</ele>
        <time>2020-06-15T09:27:47Z</time>
      </trkpt>
      <trkpt lat="49.68363" lon="-1.3114">
        <ele>9.8</ele>
        <time>2020-06-15T09:27:48Z</time>
      </trkpt>
      <trkpt lat="49.68363" lon="-1.31138">
        <ele>9.9</ele>
        <time>2020-06-15T09:27:49Z</time>
      </trkpt>
      <trkpt lat="49.68361" lon="-1.31134">
        <ele>10.2</ele>
        <time>2020-06-15T09:27:50Z</time>
      </trkpt>
      <trkpt lat="49.6836" lon="-1.31133">
        <ele>10.3</ele>
        <time>2020-06-15T09:27:51Z</time>
      </trkpt>
      <trkpt lat="49.68359" lon="-1.31128">
        <ele>10.5</ele>
        <time>2020-06-15T09:27:52Z</time>
      </trkpt>
      <trkpt lat="49.68358" lon="-1.31126">
        <ele>10.6</ele>
        <time>2020-06-15T09:27:53Z</time>
      </trkpt>
      <trkpt lat="49.68358" lon="-1.31119">
        <ele>11</ele>
        <time>2020-06-15T09:27:54Z</time>
      </trkpt>
      <trkpt lat="49.68357" lon="-1.31115">
        <ele>11.2</ele>
        <time>2020-06-15T09:27:55Z</time>
      </trkpt>
      <trkpt lat="49.68355" lon="-1.3111">
        <ele>11.5</ele>
        <time>2020-06-15T09:27:56Z</time>
      </trkpt>
      <trkpt lat="49.68354" lon="-1.31106">
        <ele>11.7</ele>
        <time>2020-06-15T09:27:57Z</time>
      </trkpt>
      <trkpt lat="49.68353" lon="-1.31098">
        <ele>12.3</ele>
        <time>2020-06-15T09:27:58Z</time>
      </trkpt>
      <trkpt lat="49.68352" lon="-1.31093">
        <ele>12.3</ele>
        <time>2020-06-15T09:27:59Z</time>
      </trkpt>
      <trkpt lat="49.68351" lon="-1.31088">
        <ele>12.3</ele>
        <time>2020-06-15T09:28:00Z</time>
      </trkpt>
      <trkpt lat="49.6835" lon="-1.31083">
        <ele>12.5</ele>
        <time>2020-06-15T09:28:01Z</time>
      </trkpt>
      <trkpt lat="49.68348" lon="-1.31077">
        <ele>12.8</ele>
        <time>2020-06-15T09:28:02Z</time>
      </trkpt>
      <trkpt lat="49.68347" lon="-1.31072">
        <ele>13.1</ele>
        <time>2020-06-15T09:28:03Z</time>
      </trkpt>
      <trkpt lat="49.68346" lon="-1.31066">
        <ele>13.4</ele>
        <time>2020-06-15T09:28:04Z</time>
      </trkpt>
      <trkpt lat="49.68345" lon="-1.31062">
        <ele>13.6</ele>
        <time>2020-06-15T09:28:05Z</time>
      </trkpt>
      <trkpt lat="49.68344" lon="-1.31058">
        <ele>13.8</ele>
        <time>2020-06-15T09:28:06Z</time>
      </trkpt>
      <trkpt lat="49.68343" lon="-1.31054">
        <ele>14.1</ele>
        <time>2020-06-15T09:28:07Z</time>
      </trkpt>
      <trkpt lat="49.68342" lon="-1.31049">
        <ele>14.4</ele>
        <time>2020-06-15T09:28:08Z</time>
      </trkpt>
      <trkpt lat="49.68341" lon="-1.31043">
        <ele>14.6</ele>
        <time>2020-06-15T09:28:09Z</time>
      </trkpt>
      <trkpt lat="49.68341" lon="-1.31037">
        <ele>14.9</ele>
        <time>2020-06-15T09:28:10Z</time>
      </trkpt>
      <trkpt lat="49.68341" lon="-1.31032">
        <ele>15.2</ele>
        <time>2020-06-15T09:28:11Z</time>
      </trkpt>
      <trkpt lat="49.68341" lon="-1.31026">
        <ele>15.5</ele>
        <time>2020-06-15T09:28:12Z</time>
      </trkpt>
      <trkpt lat="49.68341" lon="-1.31021">
        <ele>15.8</ele>
        <time>2020-06-15T09:28:13Z</time>
      </trkpt>
      <trkpt lat="49.68341" lon="-1.31015">
        <ele>16.1</ele>
        <time>2020-06-15T09:28:14Z</time>
      </trkpt>
      <trkpt lat="49.6834" lon="-1.31009">
        <ele>16.4</ele>
        <time>2020-06-15T09:28:15Z</time>
      </trkpt>
      <trkpt lat="49.6834" lon="-1.31004">
        <ele>16.6</ele>
        <time>2020-06-15T09:28:16Z</time>
      </trkpt>
      <trkpt lat="49.6834" lon="-1.30999">
        <ele>16.9</ele>
        <time>2020-06-15T09:28:17Z</time>
      </trkpt>
      <trkpt lat="49.6834" lon="-1.30993">
        <ele>17.1</ele>
        <time>2020-06-15T09:28:18Z</time>
      </trkpt>
      <trkpt lat="49.68341" lon="-1.30988">
        <ele>17.3</ele>
        <time>2020-06-15T09:28:19Z</time>
      </trkpt>
      <trkpt lat="49.68342" lon="-1.30981">
        <ele>17.6</ele>
        <time>2020-06-15T09:28:20Z</time>
      </trkpt>
      <trkpt lat="49.68342" lon="-1.30978">
        <ele>17.7</ele>
        <time>2020-06-15T09:28:21Z</time>
      </trkpt>
      <trkpt lat="49.68343" lon="-1.30972">
        <ele>17.9</ele>
        <time>2020-06-15T09:28:22Z</time>
      </trkpt>
      <trkpt lat="49.68343" lon="-1.30966">
        <ele>18.1</ele>
        <time>2020-06-15T09:28:23Z</time>
      </trkpt>
      <trkpt lat="49.68343" lon="-1.30961">
        <ele>18.3</ele>
        <time>2020-06-15T09:28:24Z</time>
      </trkpt>
      <trkpt lat="49.68343" lon="-1.30955">
        <ele>18.4</ele>
        <time>2020-06-15T09:28:25Z</time>
      </trkpt>
      <trkpt lat="49.68343" lon="-1.3095">
        <ele>18.6</ele>
        <time>2020-06-15T09:28:26Z</time>
      </trkpt>
      <trkpt lat="49.68343" lon="-1.30945">
        <ele>18.7</ele>
        <time>2020-06-15T09:28:27Z</time>
      </trkpt>
      <trkpt lat="49.68343" lon="-1.3094">
        <ele>18.8</ele>
        <time>2020-06-15T09:28:28Z</time>
      </trkpt>
      <trkpt lat="49.68344" lon="-1.30935">
        <ele>19</ele>
        <time>2020-06-15T09:28:29Z</time>
      </trkpt>
      <trkpt lat="49.68344" lon="-1.30929">
        <ele>19.1</ele>
        <time>2020-06-15T09:28:30Z</time>
      </trkpt>
      <trkpt lat="49.68345" lon="-1.30923">
        <ele>19.2</ele>
        <time>2020-06-15T09:28:31Z</time>
      </trkpt>
      <trkpt lat="49.68345" lon="-1.30917">
        <ele>19.3</ele>
        <time>2020-06-15T09:28:32Z</time>
      </trkpt>
      <trkpt lat="49.68346" lon="-1.30911">
        <ele>19.4</ele>
        <time>2020-06-15T09:28:33Z</time>
      </trkpt>
      <trkpt lat="49.68346" lon="-1.30905">
        <ele>19.5</ele>
        <time>2020-06-15T09:28:34Z</time>
      </trkpt>
      <trkpt lat="49.68347" lon="-1.30897">
        <ele>19.6</ele>
        <time>2020-06-15T09:28:35Z</time>
      </trkpt>
      <trkpt lat="49.68348" lon="-1.3089">
        <ele>19.7</ele>
        <time>2020-06-15T09:28:36Z</time>
      </trkpt>
      <trkpt lat="49.68348" lon="-1.30883">
        <ele>19.8</ele>
        <time>2020-06-15T09:28:37Z</time>
      </trkpt>
      <trkpt lat="49.68349" lon="-1.30877">
        <ele>19.8</ele>
        <time>2020-06-15T09:28:38Z</time>
      </trkpt>
      <trkpt lat="49.68349" lon="-1.3087">
        <ele>19.9</ele>
        <time>2020-06-15T09:28:39Z</time>
      </trkpt>
      <trkpt lat="49.68349" lon="-1.30864">
        <ele>20</ele>
        <time>2020-06-15T09:28:40Z</time>
      </trkpt>
      <trkpt lat="49.68349" lon="-1.30857">
        <ele>20</ele>
        <time>2020-06-15T09:28:41Z</time>
      </trkpt>
      <trkpt lat="49.68349" lon="-1.30851">
        <ele>20.1</ele>
        <time>2020-06-15T09:28:42Z</time>
      </trkpt>
      <trkpt lat="49.6835" lon="-1.30843">
        <ele>20.1</ele>
        <time>2020-06-15T09:28:43Z</time>
      </trkpt>
      <trkpt lat="49.68351" lon="-1.30836">
        <ele>20.2</ele>
        <time>2020-06-15T09:28:44Z</time>
      </trkpt>
      <trkpt lat="49.68351" lon="-1.30829">
        <ele>20.2</ele>
        <time>2020-06-15T09:28:45Z</time>
      </trkpt>
      <trkpt lat="49.68352" lon="-1.30823">
        <ele>20.3</ele>
        <time>2020-06-15T09:28:46Z</time>
      </trkpt>
      <trkpt lat="49.68352" lon="-1.30816">
        <ele>20.3</ele>
        <time>2020-06-15T09:28:47Z</time>
      </trkpt>
      <trkpt lat="49.68353" lon="-1.30808">
        <ele>20.4</ele>
        <time>2020-06-15T09:28:48Z</time>
      </trkpt>
      <trkpt lat="49.68353" lon="-1.30801">
        <ele>20.4</ele>
        <time>2020-06-15T09:28:49Z</time>
      </trkpt>
      <trkpt lat="49.68354" lon="-1.30794">
        <ele>20.5</ele>
        <time>2020-06-15T09:28:50Z</time>
      </trkpt>
      <trkpt lat="49.68354" lon="-1.30787">
        <ele>20.5</ele>
        <time>2020-06-15T09:28:51Z</time>
      </trkpt>
      <trkpt lat="49.68354" lon="-1.3078">
        <ele>20.6</ele>
        <time>2020-06-15T09:28:52Z</time>
      </trkpt>
      <trkpt lat="49.68355" lon="-1.30773">
        <ele>20.6</ele>
        <time>2020-06-15T09:28:53Z</time>
      </trkpt>
      <trkpt lat="49.68356" lon="-1.30768">
        <ele>20.7</ele>
        <time>2020-06-15T09:28:54Z</time>
      </trkpt>
      <trkpt lat="49.68357" lon="-1.30761">
        <ele>20.7</ele>
        <time>2020-06-15T09:28:55Z</time>
      </trkpt>
      <trkpt lat="49.68358" lon="-1.30753">
        <ele>20.8</ele>
        <time>2020-06-15T09:28:56Z</time>
      </trkpt>
      <trkpt lat="49.68358" lon="-1.30746">
        <ele>20.8</ele>
        <time>2020-06-15T09:28:57Z</time>
      </trkpt>
      <trkpt lat="49.68359" lon="-1.30739">
        <ele>20.8</ele>
        <time>2020-06-15T09:28:58Z</time>
      </trkpt>
      <trkpt lat="49.6836" lon="-1.30733">
        <ele>20.8</ele>
        <time>2020-06-15T09:28:59Z</time>
      </trkpt>
      <trkpt lat="49.68361" lon="-1.30726">
        <ele>20.7</ele>
        <time>2020-06-15T09:29:00Z</time>
      </trkpt>
      <trkpt lat="49.68362" lon="-1.30719">
        <ele>20.6</ele>
        <time>2020-06-15T09:29:01Z</time>
      </trkpt>
      <trkpt lat="49.68363" lon="-1.30713">
        <ele>20.5</ele>
        <time>2020-06-15T09:29:02Z</time>
      </trkpt>
      <trkpt lat="49.68364" lon="-1.30706">
        <ele>20.5</ele>
        <time>2020-06-15T09:29:03Z</time>
      </trkpt>
      <trkpt lat="49.68366" lon="-1.307">
        <ele>20.4</ele>
        <time>2020-06-15T09:29:04Z</time>
      </trkpt>
      <trkpt lat="49.68367" lon="-1.30694">
        <ele>20.3</ele>
        <time>2020-06-15T09:29:05Z</time>
      </trkpt>
      <trkpt lat="49.68368" lon="-1.30688">
        <ele>20.2</ele>
        <time>2020-06-15T09:29:06Z</time>
      </trkpt>
      <trkpt lat="49.68369" lon="-1.30681">
        <ele>20.1</ele>
        <time>2020-06-15T09:29:07Z</time>
      </trkpt>
      <trkpt lat="49.6837" lon="-1.30675">
        <ele>20</ele>
        <time>2020-06-15T09:29:08Z</time>
      </trkpt>
      <trkpt lat="49.68371" lon="-1.30669">
        <ele>19.9</ele>
        <time>2020-06-15T09:29:09Z</time>
      </trkpt>
      <trkpt lat="49.68372" lon="-1.30663">
        <ele>19.8</ele>
        <time>2020-06-15T09:29:10Z</time>
      </trkpt>
      <trkpt lat="49.68374" lon="-1.30657">
        <ele>19.6</ele>
        <time>2020-06-15T09:29:11Z</time>
      </trkpt>
      <trkpt lat="49.68376" lon="-1.3065">
        <ele>19.5</ele>
        <time>2020-06-15T09:29:12Z</time>
      </trkpt>
      <trkpt lat="49.68379" lon="-1.30643">
        <ele>19.2</ele>
        <time>2020-06-15T09:29:13Z</time>
      </trkpt>
      <trkpt lat="49.68382" lon="-1.30636">
        <ele>19</ele>
        <time>2020-06-15T09:29:14Z</time>
      </trkpt>
      <trkpt lat="49.68384" lon="-1.30629">
        <ele>18.7</ele>
        <time>2020-06-15T09:29:15Z</time>
      </trkpt>
      <trkpt lat="49.68387" lon="-1.30622">
        <ele>18.5</ele>
        <time>2020-06-15T09:29:16Z</time>
      </trkpt>
      <trkpt lat="49.6839" lon="-1.30614">
        <ele>18.2</ele>
        <time>2020-06-15T09:29:17Z</time>
      </trkpt>
      <trkpt lat="49.68393" lon="-1.30606">
        <ele>17.8</ele>
        <time>2020-06-15T09:29:18Z</time>
      </trkpt>
      <trkpt lat="49.68396" lon="-1.30597">
        <ele>17.5</ele>
        <time>2020-06-15T09:29:19Z</time>
      </trkpt>
      <trkpt lat="49.68399" lon="-1.30589">
        <ele>17.1</ele>
        <time>2020-06-15T09:29:20Z</time>
      </trkpt>
      <trkpt lat="49.68402" lon="-1.3058">
        <ele>16.7</ele>
        <time>2020-06-15T09:29:21Z</time>
      </trkpt>
      <trkpt lat="49.68405" lon="-1.30572">
        <ele>16.3</ele>
        <time>2020-06-15T09:29:22Z</time>
      </trkpt>
      <trkpt lat="49.68408" lon="-1.30562">
        <ele>15.9</ele>
        <time>2020-06-15T09:29:23Z</time>
      </trkpt>
      <trkpt lat="49.68411" lon="-1.30551">
        <ele>15.4</ele>
        <time>2020-06-15T09:29:24Z</time>
      </trkpt>
      <trkpt lat="49.68414" lon="-1.30541">
        <ele>14.9</ele>
        <time>2020-06-15T09:29:25Z</time>
      </trkpt>
      <trkpt lat="49.68417" lon="-1.30531">
        <ele>14.4</ele>
        <time>2020-06-15T09:29:26Z</time>
      </trkpt>
      <trkpt lat="49.68419" lon="-1.30517">
        <ele>13.8</ele>
        <time>2020-06-15T09:29:27Z</time>
      </trkpt>
      <trkpt lat="49.68422" lon="-1.30504">
        <ele>13.2</ele>
        <time>2020-06-15T09:29:28Z</time>
      </trkpt>
      <trkpt lat="49.68424" lon="-1.30489">
        <ele>12.5</ele>
        <time>2020-06-15T09:29:29Z</time>
      </trkpt>
      <trkpt lat="49.68426" lon="-1.30475">
        <ele>11.8</ele>
        <time>2020-06-15T09:29:30Z</time>
      </trkpt>
      <trkpt lat="49.68427" lon="-1.30461">
        <ele>11.1</ele>
        <time>2020-06-15T09:29:31Z</time>
      </trkpt>
      <trkpt lat="49.68429" lon="-1.30448">
        <ele>10.5</ele>
        <time>2020-06-15T09:29:32Z</time>
      </trkpt>
      <trkpt lat="49.68431" lon="-1.30434">
        <ele>10.1</ele>
        <time>2020-06-15T09:29:33Z</time>
      </trkpt>
      <trkpt lat="49.68432" lon="-1.30421">
        <ele>9.7</ele>
        <time>2020-06-15T09:29:34Z</time>
      </trkpt>
      <trkpt lat="49.68433" lon="-1.30407">
        <ele>9.4</ele>
        <time>2020-06-15T09:29:35Z</time>
      </trkpt>
      <trkpt lat="49.68434" lon="-1.30394">
        <ele>9.1</ele>
        <time>2020-06-15T09:29:36Z</time>
      </trkpt>
      <trkpt lat="49.68434" lon="-1.30382">
        <ele>8.9</ele>
        <time>2020-06-15T09:29:37Z</time>
      </trkpt>
      <trkpt lat="49.68435" lon="-1.30369">
        <ele>8.7</ele>
        <time>2020-06-15T09:29:38Z</time>
      </trkpt>
      <trkpt lat="49.68435" lon="-1.30357">
        <ele>8.5</ele>
        <time>2020-06-15T09:29:39Z</time>
      </trkpt>
      <trkpt lat="49.68435" lon="-1.30346">
        <ele>8.5</ele>
        <time>2020-06-15T09:29:40Z</time>
      </trkpt>
      <trkpt lat="49.68435" lon="-1.30335">
        <ele>8.4</ele>
        <time>2020-06-15T09:29:41Z</time>
      </trkpt>
      <trkpt lat="49.68435" lon="-1.30324">
        <ele>8.4</ele>
        <time>2020-06-15T09:29:42Z</time>
      </trkpt>
      <trkpt lat="49.68436" lon="-1.30313">
        <ele>8.4</ele>
        <time>2020-06-15T09:29:43Z</time>
      </trkpt>
      <trkpt lat="49.68436" lon="-1.30303">
        <ele>8.4</ele>
        <time>2020-06-15T09:29:44Z</time>
      </trkpt>
      <trkpt lat="49.68436" lon="-1.30293">
        <ele>8.4</ele>
        <time>2020-06-15T09:29:45Z</time>
      </trkpt>
      <trkpt lat="49.68435" lon="-1.30283">
        <ele>8.5</ele>
        <time>2020-06-15T09:29:46Z</time>
      </trkpt>
      <trkpt lat="49.68435" lon="-1.30273">
        <ele>8.5</ele>
        <time>2020-06-15T09:29:47Z</time>
      </trkpt>
      <trkpt lat="49.68435" lon="-1.30263">
        <ele>8.6</ele>
        <time>2020-06-15T09:29:48Z</time>
      </trkpt>
      <trkpt lat="49.68435" lon="-1.30252">
        <ele>8.7</ele>
        <time>2020-06-15T09:29:49Z</time>
      </trkpt>
      <trkpt lat="49.68435" lon="-1.30243">
        <ele>8.7</ele>
        <time>2020-06-15T09:29:50Z</time>
      </trkpt>
      <trkpt lat="49.68434" lon="-1.30233">
        <ele>8.8</ele>
        <time>2020-06-15T09:29:51Z</time>
      </trkpt>
      <trkpt lat="49.68434" lon="-1.30224">
        <ele>8.8</ele>
        <time>2020-06-15T09:29:52Z</time>
      </trkpt>
      <trkpt lat="49.68434" lon="-1.30216">
        <ele>8.9</ele>
        <time>2020-06-15T09:29:53Z</time>
      </trkpt>
      <trkpt lat="49.68434" lon="-1.30207">
        <ele>8.9</ele>
        <time>2020-06-15T09:29:54Z</time>
      </trkpt>
      <trkpt lat="49.68434" lon="-1.30199">
        <ele>8.9</ele>
        <time>2020-06-15T09:29:55Z</time>
      </trkpt>
      <trkpt lat="49.68434" lon="-1.30191">
        <ele>9</ele>
        <time>2020-06-15T09:29:56Z</time>
      </trkpt>
      <trkpt lat="49.68434" lon="-1.30183">
        <ele>9</ele>
        <time>2020-06-15T09:29:57Z</time>
      </trkpt>
      <trkpt lat="49.68434" lon="-1.30175">
        <ele>9.1</ele>
        <time>2020-06-15T09:29:58Z</time>
      </trkpt>
      <trkpt lat="49.68433" lon="-1.30167">
        <ele>9.1</ele>
        <time>2020-06-15T09:29:59Z</time>
      </trkpt>
      <trkpt lat="49.68433" lon="-1.30161">
        <ele>9.2</ele>
        <time>2020-06-15T09:30:00Z</time>
      </trkpt>
      <trkpt lat="49.68433" lon="-1.30153">
        <ele>9.2</ele>
        <time>2020-06-15T09:30:01Z</time>
      </trkpt>
      <trkpt lat="49.68433" lon="-1.30145">
        <ele>9.3</ele>
        <time>2020-06-15T09:30:02Z</time>
      </trkpt>
      <trkpt lat="49.68433" lon="-1.30137">
        <ele>9.4</ele>
        <time>2020-06-15T09:30:03Z</time>
      </trkpt>
      <trkpt lat="49.68433" lon="-1.30128">
        <ele>9.4</ele>
        <time>2020-06-15T09:30:04Z</time>
      </trkpt>
      <trkpt lat="49.68433" lon="-1.3012">
        <ele>9.5</ele>
        <time>2020-06-15T09:30:05Z</time>
      </trkpt>
      <trkpt lat="49.68433" lon="-1.30112">
        <ele>9.5</ele>
        <time>2020-06-15T09:30:06Z</time>
      </trkpt>
      <trkpt lat="49.68433" lon="-1.30105">
        <ele>9.5</ele>
        <time>2020-06-15T09:30:07Z</time>
      </trkpt>
      <trkpt lat="49.68433" lon="-1.30097">
        <ele>9.6</ele>
        <time>2020-06-15T09:30:08Z</time>
      </trkpt>
      <trkpt lat="49.68432" lon="-1.30088">
        <ele>9.6</ele>
        <time>2020-06-15T09:30:09Z</time>
      </trkpt>
      <trkpt lat="49.68432" lon="-1.3008">
        <ele>9.7</ele>
        <time>2020-06-15T09:30:10Z</time>
      </trkpt>
      <trkpt lat="49.68432" lon="-1.30073">
        <ele>9.7</ele>
        <time>2020-06-15T09:30:11Z</time>
      </trkpt>
      <trkpt lat="49.68433" lon="-1.30064">
        <ele>9.7</ele>
        <time>2020-06-15T09:30:12Z</time>
      </trkpt>
      <trkpt lat="49.68433" lon="-1.30056">
        <ele>9.8</ele>
        <time>2020-06-15T09:30:13Z</time>
      </trkpt>
      <trkpt lat="49.68433" lon="-1.30047">
        <ele>9.8</ele>
        <time>2020-06-15T09:30:14Z</time>
      </trkpt>
      <trkpt lat="49.68433" lon="-1.30039">
        <ele>9.8</ele>
        <time>2020-06-15T09:30:15Z</time>
      </trkpt>
      <trkpt lat="49.68433" lon="-1.3003">
        <ele>9.7</ele>
        <time>2020-06-15T09:30:16Z</time>
      </trkpt>
      <trkpt lat="49.68433" lon="-1.30021">
        <ele>9.7</ele>
        <time>2020-06-15T09:30:17Z</time>
      </trkpt>
      <trkpt lat="49.68433" lon="-1.30012">
        <ele>9.7</ele>
        <time>2020-06-15T09:30:18Z</time>
      </trkpt>
      <trkpt lat="49.68434" lon="-1.30004">
        <ele>9.7</ele>
        <time>2020-06-15T09:30:19Z</time>
      </trkpt>
      <trkpt lat="49.68434" lon="-1.29994">
        <ele>9.7</ele>
        <time>2020-06-15T09:30:20Z</time>
      </trkpt>
      <trkpt lat="49.68435" lon="-1.29986">
        <ele>9.7</ele>
        <time>2020-06-15T09:30:21Z</time>
      </trkpt>
      <trkpt lat="49.68435" lon="-1.29977">
        <ele>9.6</ele>
        <time>2020-06-15T09:30:22Z</time>
      </trkpt>
      <trkpt lat="49.68435" lon="-1.29969">
        <ele>9.6</ele>
        <time>2020-06-15T09:30:23Z</time>
      </trkpt>
      <trkpt lat="49.68435" lon="-1.29961">
        <ele>9.6</ele>
        <time>2020-06-15T09:30:24Z</time>
      </trkpt>
      <trkpt lat="49.68437" lon="-1.29951">
        <ele>9.5</ele>
        <time>2020-06-15T09:30:25Z</time>
      </trkpt>
      <trkpt lat="49.68437" lon="-1.29942">
        <ele>9.4</ele>
        <time>2020-06-15T09:30:26Z</time>
      </trkpt>
      <trkpt lat="49.68437" lon="-1.29934">
        <ele>9.4</ele>
        <time>2020-06-15T09:30:27Z</time>
      </trkpt>
      <trkpt lat="49.68438" lon="-1.29924">
        <ele>9.3</ele>
        <time>2020-06-15T09:30:28Z</time>
      </trkpt>
      <trkpt lat="49.68439" lon="-1.29914">
        <ele>9.3</ele>
        <time>2020-06-15T09:30:29Z</time>
      </trkpt>
      <trkpt lat="49.68439" lon="-1.29906">
        <ele>9.3</ele>
        <time>2020-06-15T09:30:30Z</time>
      </trkpt>
      <trkpt lat="49.68439" lon="-1.29897">
        <ele>9.2</ele>
        <time>2020-06-15T09:30:31Z</time>
      </trkpt>
      <trkpt lat="49.68439" lon="-1.29889">
        <ele>9.2</ele>
        <time>2020-06-15T09:30:32Z</time>
      </trkpt>
      <trkpt lat="49.6844" lon="-1.2988">
        <ele>9.2</ele>
        <time>2020-06-15T09:30:33Z</time>
      </trkpt>
      <trkpt lat="49.6844" lon="-1.29871">
        <ele>9.1</ele>
        <time>2020-06-15T09:30:34Z</time>
      </trkpt>
      <trkpt lat="49.68441" lon="-1.29862">
        <ele>9</ele>
        <time>2020-06-15T09:30:35Z</time>
      </trkpt>
      <trkpt lat="49.68441" lon="-1.29853">
        <ele>8.9</ele>
        <time>2020-06-15T09:30:36Z</time>
      </trkpt>
      <trkpt lat="49.68441" lon="-1.29843">
        <ele>8.9</ele>
        <time>2020-06-15T09:30:37Z</time>
      </trkpt>
      <trkpt lat="49.68442" lon="-1.29834">
        <ele>8.8</ele>
        <time>2020-06-15T09:30:38Z</time>
      </trkpt>
      <trkpt lat="49.68442" lon="-1.29825">
        <ele>8.8</ele>
        <time>2020-06-15T09:30:39Z</time>
      </trkpt>
      <trkpt lat="49.68443" lon="-1.29816">
        <ele>8.8</ele>
        <time>2020-06-15T09:30:40Z</time>
      </trkpt>
      <trkpt lat="49.68444" lon="-1.29807">
        <ele>8.7</ele>
        <time>2020-06-15T09:30:41Z</time>
      </trkpt>
      <trkpt lat="49.68444" lon="-1.29799">
        <ele>8.7</ele>
        <time>2020-06-15T09:30:42Z</time>
      </trkpt>
      <trkpt lat="49.68445" lon="-1.29789">
        <ele>8.7</ele>
        <time>2020-06-15T09:30:43Z</time>
      </trkpt>
      <trkpt lat="49.68445" lon="-1.29779">
        <ele>8.7</ele>
        <time>2020-06-15T09:30:44Z</time>
      </trkpt>
      <trkpt lat="49.68445" lon="-1.29771">
        <ele>8.6</ele>
        <time>2020-06-15T09:30:45Z</time>
      </trkpt>
      <trkpt lat="49.68445" lon="-1.29762">
        <ele>8.6</ele>
        <time>2020-06-15T09:30:46Z</time>
      </trkpt>
      <trkpt lat="49.68445" lon="-1.29753">
        <ele>8.6</ele>
        <time>2020-06-15T09:30:47Z</time>
      </trkpt>
      <trkpt lat="49.68446" lon="-1.29744">
        <ele>8.6</ele>
        <time>2020-06-15T09:30:48Z</time>
      </trkpt>
      <trkpt lat="49.68446" lon="-1.29735">
        <ele>8.5</ele>
        <time>2020-06-15T09:30:49Z</time>
      </trkpt>
      <trkpt lat="49.68447" lon="-1.29726">
        <ele>8.6</ele>
        <time>2020-06-15T09:30:50Z</time>
      </trkpt>
      <trkpt lat="49.68447" lon="-1.29717">
        <ele>8.6</ele>
        <time>2020-06-15T09:30:51Z</time>
      </trkpt>
      <trkpt lat="49.68448" lon="-1.29707">
        <ele>8.6</ele>
        <time>2020-06-15T09:30:52Z</time>
      </trkpt>
      <trkpt lat="49.68448" lon="-1.29698">
        <ele>8.7</ele>
        <time>2020-06-15T09:30:53Z</time>
      </trkpt>
      <trkpt lat="49.68448" lon="-1.29689">
        <ele>8.8</ele>
        <time>2020-06-15T09:30:54Z</time>
      </trkpt>
      <trkpt lat="49.6845" lon="-1.29678">
        <ele>8.8</ele>
        <time>2020-06-15T09:30:55Z</time>
      </trkpt>
      <trkpt lat="49.6845" lon="-1.29668">
        <ele>8.9</ele>
        <time>2020-06-15T09:30:56Z</time>
      </trkpt>
      <trkpt lat="49.68451" lon="-1.29658">
        <ele>8.9</ele>
        <time>2020-06-15T09:30:57Z</time>
      </trkpt>
      <trkpt lat="49.68451" lon="-1.29649">
        <ele>9</ele>
        <time>2020-06-15T09:30:58Z</time>
      </trkpt>
      <trkpt lat="49.68451" lon="-1.2964">
        <ele>9</ele>
        <time>2020-06-15T09:30:59Z</time>
      </trkpt>
      <trkpt lat="49.68451" lon="-1.29631">
        <ele>9.1</ele>
        <time>2020-06-15T09:31:00Z</time>
      </trkpt>
      <trkpt lat="49.6845" lon="-1.2962">
        <ele>9.2</ele>
        <time>2020-06-15T09:31:01Z</time>
      </trkpt>
      <trkpt lat="49.6845" lon="-1.29609">
        <ele>9.3</ele>
        <time>2020-06-15T09:31:02Z</time>
      </trkpt>
      <trkpt lat="49.6845" lon="-1.29598">
        <ele>9.3</ele>
        <time>2020-06-15T09:31:03Z</time>
      </trkpt>
      <trkpt lat="49.6845" lon="-1.29588">
        <ele>9.4</ele>
        <time>2020-06-15T09:31:04Z</time>
      </trkpt>
      <trkpt lat="49.6845" lon="-1.29579">
        <ele>9.4</ele>
        <time>2020-06-15T09:31:05Z</time>
      </trkpt>
      <trkpt lat="49.68449" lon="-1.29571">
        <ele>9.5</ele>
        <time>2020-06-15T09:31:06Z</time>
      </trkpt>
      <trkpt lat="49.68448" lon="-1.29562">
        <ele>9.6</ele>
        <time>2020-06-15T09:31:07Z</time>
      </trkpt>
      <trkpt lat="49.68448" lon="-1.29553">
        <ele>9.7</ele>
        <time>2020-06-15T09:31:08Z</time>
      </trkpt>
      <trkpt lat="49.68447" lon="-1.29546">
        <ele>9.8</ele>
        <time>2020-06-15T09:31:09Z</time>
      </trkpt>
      <trkpt lat="49.68447" lon="-1.29537">
        <ele>9.9</ele>
        <time>2020-06-15T09:31:10Z</time>
      </trkpt>
      <trkpt lat="49.68447" lon="-1.29528">
        <ele>10.1</ele>
        <time>2020-06-15T09:31:11Z</time>
      </trkpt>
      <trkpt lat="49.68447" lon="-1.29519">
        <ele>10.2</ele>
        <time>2020-06-15T09:31:12Z</time>
      </trkpt>
      <trkpt lat="49.68446" lon="-1.2951">
        <ele>10.5</ele>
        <time>2020-06-15T09:31:13Z</time>
      </trkpt>
      <trkpt lat="49.68446" lon="-1.29501">
        <ele>10.6</ele>
        <time>2020-06-15T09:31:14Z</time>
      </trkpt>
      <trkpt lat="49.68445" lon="-1.29494">
        <ele>10.8</ele>
        <time>2020-06-15T09:31:15Z</time>
      </trkpt>
      <trkpt lat="49.68445" lon="-1.29486">
        <ele>11</ele>
        <time>2020-06-15T09:31:16Z</time>
      </trkpt>
      <trkpt lat="49.68446" lon="-1.29479">
        <ele>11.2</ele>
        <time>2020-06-15T09:31:17Z</time>
      </trkpt>
      <trkpt lat="49.68446" lon="-1.2947">
        <ele>11.4</ele>
        <time>2020-06-15T09:31:18Z</time>
      </trkpt>
      <trkpt lat="49.68447" lon="-1.29462">
        <ele>11.7</ele>
        <time>2020-06-15T09:31:19Z</time>
      </trkpt>
      <trkpt lat="49.68448" lon="-1.29455">
        <ele>12</ele>
        <time>2020-06-15T09:31:20Z</time>
      </trkpt>
      <trkpt lat="49.68448" lon="-1.29448">
        <ele>12.3</ele>
        <time>2020-06-15T09:31:21Z</time>
      </trkpt>
      <trkpt lat="49.68449" lon="-1.29442">
        <ele>12.4</ele>
        <time>2020-06-15T09:31:22Z</time>
      </trkpt>
      <trkpt lat="49.6845" lon="-1.29435">
        <ele>12.6</ele>
        <time>2020-06-15T09:31:23Z</time>
      </trkpt>
      <trkpt lat="49.68451" lon="-1.29428">
        <ele>12.8</ele>
        <time>2020-06-15T09:31:24Z</time>
      </trkpt>
      <trkpt lat="49.68452" lon="-1.29421">
        <ele>13</ele>
        <time>2020-06-15T09:31:25Z</time>
      </trkpt>
      <trkpt lat="49.68453" lon="-1.29415">
        <ele>13.1</ele>
        <time>2020-06-15T09:31:26Z</time>
      </trkpt>
      <trkpt lat="49.68453" lon="-1.29409">
        <ele>13.3</ele>
        <time>2020-06-15T09:31:27Z</time>
      </trkpt>
      <trkpt lat="49.68455" lon="-1.29402">
        <ele>13.5</ele>
        <time>2020-06-15T09:31:28Z</time>
      </trkpt>
      <trkpt lat="49.68456" lon="-1.29396">
        <ele>13.7</ele>
        <time>2020-06-15T09:31:29Z</time>
      </trkpt>
      <trkpt lat="49.68457" lon="-1.29391">
        <ele>13.9</ele>
        <time>2020-06-15T09:31:30Z</time>
      </trkpt>
      <trkpt lat="49.68458" lon="-1.29385">
        <ele>14</ele>
        <time>2020-06-15T09:31:31Z</time>
      </trkpt>
      <trkpt lat="49.6846" lon="-1.29381">
        <ele>14.2</ele>
        <time>2020-06-15T09:31:32Z</time>
      </trkpt>
      <trkpt lat="49.68461" lon="-1.29375">
        <ele>14.4</ele>
        <time>2020-06-15T09:31:33Z</time>
      </trkpt>
      <trkpt lat="49.68463" lon="-1.29371">
        <ele>14.6</ele>
        <time>2020-06-15T09:31:34Z</time>
      </trkpt>
      <trkpt lat="49.68464" lon="-1.29367">
        <ele>14.5</ele>
        <time>2020-06-15T09:31:35Z</time>
      </trkpt>
      <trkpt lat="49.68465" lon="-1.29362">
        <ele>14.5</ele>
        <time>2020-06-15T09:31:36Z</time>
      </trkpt>
      <trkpt lat="49.68466" lon="-1.29359">
        <ele>14.5</ele>
        <time>2020-06-15T09:31:37Z</time>
      </trkpt>
      <trkpt lat="49.68468" lon="-1.29354">
        <ele>14.5</ele>
        <time>2020-06-15T09:31:38Z</time>
      </trkpt>
      <trkpt lat="49.68469" lon="-1.29353">
        <ele>14.5</ele>
        <time>2020-06-15T09:31:39Z</time>
      </trkpt>
      <trkpt lat="49.68473" lon="-1.29351">
        <ele>14.4</ele>
        <time>2020-06-15T09:31:40Z</time>
      </trkpt>
      <trkpt lat="49.68474" lon="-1.2935">
        <ele>14.4</ele>
        <time>2020-06-15T09:31:41Z</time>
      </trkpt>
      <trkpt lat="49.68478" lon="-1.29351">
        <ele>14.3</ele>
        <time>2020-06-15T09:31:42Z</time>
      </trkpt>
      <trkpt lat="49.68479" lon="-1.29352">
        <ele>14.3</ele>
        <time>2020-06-15T09:31:43Z</time>
      </trkpt>
      <trkpt lat="49.68483" lon="-1.29353">
        <ele>14.2</ele>
        <time>2020-06-15T09:31:44Z</time>
      </trkpt>
      <trkpt lat="49.68487" lon="-1.29353">
        <ele>14</ele>
        <time>2020-06-15T09:31:45Z</time>
      </trkpt>
      <trkpt lat="49.68492" lon="-1.29352">
        <ele>13.9</ele>
        <time>2020-06-15T09:31:46Z</time>
      </trkpt>
      <trkpt lat="49.68497" lon="-1.2935">
        <ele>13.8</ele>
        <time>2020-06-15T09:31:47Z</time>
      </trkpt>
      <trkpt lat="49.68501" lon="-1.29346">
        <ele>13.6</ele>
        <time>2020-06-15T09:31:48Z</time>
      </trkpt>
      <trkpt lat="49.68506" lon="-1.29342">
        <ele>13.5</ele>
        <time>2020-06-15T09:31:49Z</time>
      </trkpt>
      <trkpt lat="49.6851" lon="-1.29339">
        <ele>13.3</ele>
        <time>2020-06-15T09:31:50Z</time>
      </trkpt>
      <trkpt lat="49.68513" lon="-1.29335">
        <ele>13.2</ele>
        <time>2020-06-15T09:31:51Z</time>
      </trkpt>
      <trkpt lat="49.68517" lon="-1.29332">
        <ele>13.1</ele>
        <time>2020-06-15T09:31:52Z</time>
      </trkpt>
      <trkpt lat="49.68522" lon="-1.29329">
        <ele>12.9</ele>
        <time>2020-06-15T09:31:53Z</time>
      </trkpt>
      <trkpt lat="49.68528" lon="-1.29325">
        <ele>12.7</ele>
        <time>2020-06-15T09:31:54Z</time>
      </trkpt>
      <trkpt lat="49.68533" lon="-1.29321">
        <ele>12.6</ele>
        <time>2020-06-15T09:31:55Z</time>
      </trkpt>
      <trkpt lat="49.68538" lon="-1.29317">
        <ele>12.4</ele>
        <time>2020-06-15T09:31:56Z</time>
      </trkpt>
      <trkpt lat="49.68543" lon="-1.29312">
        <ele>12.3</ele>
        <time>2020-06-15T09:31:57Z</time>
      </trkpt>
      <trkpt lat="49.68547" lon="-1.29306">
        <ele>12.2</ele>
        <time>2020-06-15T09:31:58Z</time>
      </trkpt>
      <trkpt lat="49.68551" lon="-1.293">
        <ele>12</ele>
        <time>2020-06-15T09:31:59Z</time>
      </trkpt>
      <trkpt lat="49.68556" lon="-1.29294">
        <ele>11.9</ele>
        <time>2020-06-15T09:32:00Z</time>
      </trkpt>
      <trkpt lat="49.6856" lon="-1.29288">
        <ele>11.7</ele>
        <time>2020-06-15T09:32:01Z</time>
      </trkpt>
      <trkpt lat="49.68565" lon="-1.29283">
        <ele>11.6</ele>
        <time>2020-06-15T09:32:02Z</time>
      </trkpt>
      <trkpt lat="49.68571" lon="-1.29279">
        <ele>11.4</ele>
        <time>2020-06-15T09:32:03Z</time>
      </trkpt>
      <trkpt lat="49.68577" lon="-1.29271">
        <ele>11.2</ele>
        <time>2020-06-15T09:32:04Z</time>
      </trkpt>
      <trkpt lat="49.68583" lon="-1.29265">
        <ele>11</ele>
        <time>2020-06-15T09:32:05Z</time>
      </trkpt>
      <trkpt lat="49.68588" lon="-1.29257">
        <ele>10.9</ele>
        <time>2020-06-15T09:32:06Z</time>
      </trkpt>
      <trkpt lat="49.68593" lon="-1.29251">
        <ele>10.8</ele>
        <time>2020-06-15T09:32:07Z</time>
      </trkpt>
      <trkpt lat="49.68598" lon="-1.29243">
        <ele>10.8</ele>
        <time>2020-06-15T09:32:08Z</time>
      </trkpt>
      <trkpt lat="49.68603" lon="-1.29235">
        <ele>10.7</ele>
        <time>2020-06-15T09:32:09Z</time>
      </trkpt>
      <trkpt lat="49.68609" lon="-1.29227">
        <ele>10.8</ele>
        <time>2020-06-15T09:32:10Z</time>
      </trkpt>
      <trkpt lat="49.68615" lon="-1.29221">
        <ele>10.8</ele>
        <time>2020-06-15T09:32:11Z</time>
      </trkpt>
      <trkpt lat="49.6862" lon="-1.29214">
        <ele>10.9</ele>
        <time>2020-06-15T09:32:12Z</time>
      </trkpt>
      <trkpt lat="49.68625" lon="-1.29207">
        <ele>11</ele>
        <time>2020-06-15T09:32:13Z</time>
      </trkpt>
      <trkpt lat="49.68631" lon="-1.292">
        <ele>11.1</ele>
        <time>2020-06-15T09:32:14Z</time>
      </trkpt>
      <trkpt lat="49.68637" lon="-1.29195">
        <ele>11.2</ele>
        <time>2020-06-15T09:32:15Z</time>
      </trkpt>
      <trkpt lat="49.68643" lon="-1.29189">
        <ele>11.3</ele>
        <time>2020-06-15T09:32:16Z</time>
      </trkpt>
      <trkpt lat="49.6865" lon="-1.29184">
        <ele>11.4</ele>
        <time>2020-06-15T09:32:17Z</time>
      </trkpt>
      <trkpt lat="49.68656" lon="-1.29178">
        <ele>11.4</ele>
        <time>2020-06-15T09:32:18Z</time>
      </trkpt>
      <trkpt lat="49.68661" lon="-1.29172">
        <ele>11.5</ele>
        <time>2020-06-15T09:32:19Z</time>
      </trkpt>
      <trkpt lat="49.68665" lon="-1.29165">
        <ele>11.6</ele>
        <time>2020-06-15T09:32:20Z</time>
      </trkpt>
      <trkpt lat="49.6867" lon="-1.29161">
        <ele>11.6</ele>
        <time>2020-06-15T09:32:21Z</time>
      </trkpt>
      <trkpt lat="49.68675" lon="-1.29156">
        <ele>11.7</ele>
        <time>2020-06-15T09:32:22Z</time>
      </trkpt>
      <trkpt lat="49.6868" lon="-1.29149">
        <ele>11.8</ele>
        <time>2020-06-15T09:32:23Z</time>
      </trkpt>
      <trkpt lat="49.68684" lon="-1.29144">
        <ele>11.9</ele>
        <time>2020-06-15T09:32:24Z</time>
      </trkpt>
      <trkpt lat="49.68688" lon="-1.29137">
        <ele>12.1</ele>
        <time>2020-06-15T09:32:25Z</time>
      </trkpt>
      <trkpt lat="49.68693" lon="-1.29132">
        <ele>12.3</ele>
        <time>2020-06-15T09:32:26Z</time>
      </trkpt>
      <trkpt lat="49.68697" lon="-1.29125">
        <ele>12.4</ele>
        <time>2020-06-15T09:32:27Z</time>
      </trkpt>
      <trkpt lat="49.687" lon="-1.29119">
        <ele>12.6</ele>
        <time>2020-06-15T09:32:28Z</time>
      </trkpt>
      <trkpt lat="49.68704" lon="-1.29113">
        <ele>12.8</ele>
        <time>2020-06-15T09:32:29Z</time>
      </trkpt>
      <trkpt lat="49.68708" lon="-1.29106">
        <ele>12.9</ele>
        <time>2020-06-15T09:32:30Z</time>
      </trkpt>
      <trkpt lat="49.68714" lon="-1.29099">
        <ele>13.1</ele>
        <time>2020-06-15T09:32:31Z</time>
      </trkpt>
      <trkpt lat="49.68717" lon="-1.29094">
        <ele>13.3</ele>
        <time>2020-06-15T09:32:32Z</time>
      </trkpt>
      <trkpt lat="49.68722" lon="-1.29087">
        <ele>13.4</ele>
        <time>2020-06-15T09:32:33Z</time>
      </trkpt>
      <trkpt lat="49.68726" lon="-1.29081">
        <ele>13.6</ele>
        <time>2020-06-15T09:32:34Z</time>
      </trkpt>
      <trkpt lat="49.68729" lon="-1.29076">
        <ele>13.7</ele>
        <time>2020-06-15T09:32:35Z</time>
      </trkpt>
      <trkpt lat="49.68733" lon="-1.29071">
        <ele>13.8</ele>
        <time>2020-06-15T09:32:36Z</time>
      </trkpt>
      <trkpt lat="49.68737" lon="-1.29065">
        <ele>13.8</ele>
        <time>2020-06-15T09:32:37Z</time>
      </trkpt>
      <trkpt lat="49.68741" lon="-1.2906">
        <ele>13.9</ele>
        <time>2020-06-15T09:32:38Z</time>
      </trkpt>
      <trkpt lat="49.68744" lon="-1.29055">
        <ele>14</ele>
        <time>2020-06-15T09:32:39Z</time>
      </trkpt>
      <trkpt lat="49.68748" lon="-1.29049">
        <ele>14.1</ele>
        <time>2020-06-15T09:32:40Z</time>
      </trkpt>
      <trkpt lat="49.68751" lon="-1.29045">
        <ele>14.1</ele>
        <time>2020-06-15T09:32:41Z</time>
      </trkpt>
      <trkpt lat="49.68753" lon="-1.29039">
        <ele>14.2</ele>
        <time>2020-06-15T09:32:42Z</time>
      </trkpt>
      <trkpt lat="49.68756" lon="-1.29035">
        <ele>14.2</ele>
        <time>2020-06-15T09:32:43Z</time>
      </trkpt>
      <trkpt lat="49.6876" lon="-1.2903">
        <ele>14.3</ele>
        <time>2020-06-15T09:32:44Z</time>
      </trkpt>
      <trkpt lat="49.68762" lon="-1.29025">
        <ele>14.3</ele>
        <time>2020-06-15T09:32:45Z</time>
      </trkpt>
      <trkpt lat="49.68766" lon="-1.29019">
        <ele>14.4</ele>
        <time>2020-06-15T09:32:46Z</time>
      </trkpt>
      <trkpt lat="49.6877" lon="-1.29014">
        <ele>14.4</ele>
        <time>2020-06-15T09:32:47Z</time>
      </trkpt>
      <trkpt lat="49.68774" lon="-1.29008">
        <ele>14.3</ele>
        <time>2020-06-15T09:32:48Z</time>
      </trkpt>
      <trkpt lat="49.68777" lon="-1.29004">
        <ele>14.3</ele>
        <time>2020-06-15T09:32:49Z</time>
      </trkpt>
      <trkpt lat="49.68782" lon="-1.28999">
        <ele>14.3</ele>
        <time>2020-06-15T09:32:50Z</time>
      </trkpt>
      <trkpt lat="49.68785" lon="-1.28994">
        <ele>14.2</ele>
        <time>2020-06-15T09:32:51Z</time>
      </trkpt>
      <trkpt lat="49.68788" lon="-1.2899">
        <ele>14.2</ele>
        <time>2020-06-15T09:32:52Z</time>
      </trkpt>
      <trkpt lat="49.68794" lon="-1.28984">
        <ele>14.1</ele>
        <time>2020-06-15T09:32:53Z</time>
      </trkpt>
      <trkpt lat="49.68798" lon="-1.2898">
        <ele>14.1</ele>
        <time>2020-06-15T09:32:54Z</time>
      </trkpt>
      <trkpt lat="49.68801" lon="-1.28976">
        <ele>14</ele>
        <time>2020-06-15T09:32:55Z</time>
      </trkpt>
      <trkpt lat="49.68805" lon="-1.28971">
        <ele>14</ele>
        <time>2020-06-15T09:32:56Z</time>
      </trkpt>
      <trkpt lat="49.68808" lon="-1.28968">
        <ele>13.9</ele>
        <time>2020-06-15T09:32:57Z</time>
      </trkpt>
      <trkpt lat="49.68812" lon="-1.28963">
        <ele>13.9</ele>
        <time>2020-06-15T09:32:58Z</time>
      </trkpt>
      <trkpt lat="49.68814" lon="-1.28958">
        <ele>13.8</ele>
        <time>2020-06-15T09:32:59Z</time>
      </trkpt>
      <trkpt lat="49.68817" lon="-1.28955">
        <ele>13.7</ele>
        <time>2020-06-15T09:33:00Z</time>
      </trkpt>
      <trkpt lat="49.68821" lon="-1.28949">
        <ele>13.7</ele>
        <time>2020-06-15T09:33:01Z</time>
      </trkpt>
      <trkpt lat="49.68825" lon="-1.28943">
        <ele>13.6</ele>
        <time>2020-06-15T09:33:02Z</time>
      </trkpt>
      <trkpt lat="49.68829" lon="-1.2894">
        <ele>13.5</ele>
        <time>2020-06-15T09:33:03Z</time>
      </trkpt>
      <trkpt lat="49.68833" lon="-1.28936">
        <ele>13.4</ele>
        <time>2020-06-15T09:33:04Z</time>
      </trkpt>
      <trkpt lat="49.68836" lon="-1.28932">
        <ele>13.3</ele>
        <time>2020-06-15T09:33:05Z</time>
      </trkpt>
      <trkpt lat="49.68841" lon="-1.28927">
        <ele>13.2</ele>
        <time>2020-06-15T09:33:06Z</time>
      </trkpt>
      <trkpt lat="49.68844" lon="-1.28924">
        <ele>13.1</ele>
        <time>2020-06-15T09:33:07Z</time>
      </trkpt>
      <trkpt lat="49.68848" lon="-1.2892">
        <ele>13.1</ele>
        <time>2020-06-15T09:33:08Z</time>
      </trkpt>
      <trkpt lat="49.68853" lon="-1.28916">
        <ele>12.9</ele>
        <time>2020-06-15T09:33:09Z</time>
      </trkpt>
      <trkpt lat="49.68857" lon="-1.28911">
        <ele>12.7</ele>
        <time>2020-06-15T09:33:10Z</time>
      </trkpt>
      <trkpt lat="49.68861" lon="-1.28905">
        <ele>12.6</ele>
        <time>2020-06-15T09:33:11Z</time>
      </trkpt>
      <trkpt lat="49.68866" lon="-1.28898">
        <ele>12.2</ele>
        <time>2020-06-15T09:33:12Z</time>
      </trkpt>
      <trkpt lat="49.68869" lon="-1.28891">
        <ele>12</ele>
        <time>2020-06-15T09:33:13Z</time>
      </trkpt>
      <trkpt lat="49.68871" lon="-1.28884">
        <ele>11.7</ele>
        <time>2020-06-15T09:33:14Z</time>
      </trkpt>
      <trkpt lat="49.68875" lon="-1.28878">
        <ele>11.4</ele>
        <time>2020-06-15T09:33:15Z</time>
      </trkpt>
      <trkpt lat="49.68879" lon="-1.28873">
        <ele>11.2</ele>
        <time>2020-06-15T09:33:16Z</time>
      </trkpt>
      <trkpt lat="49.68884" lon="-1.28869">
        <ele>10.9</ele>
        <time>2020-06-15T09:33:17Z</time>
      </trkpt>
      <trkpt lat="49.68889" lon="-1.28864">
        <ele>10.8</ele>
        <time>2020-06-15T09:33:18Z</time>
      </trkpt>
      <trkpt lat="49.68894" lon="-1.28859">
        <ele>10.8</ele>
        <time>2020-06-15T09:33:19Z</time>
      </trkpt>
      <trkpt lat="49.68899" lon="-1.28852">
        <ele>10.6</ele>
        <time>2020-06-15T09:33:20Z</time>
      </trkpt>
      <trkpt lat="49.68905" lon="-1.28846">
        <ele>10.5</ele>
        <time>2020-06-15T09:33:21Z</time>
      </trkpt>
      <trkpt lat="49.68911" lon="-1.28841">
        <ele>10.3</ele>
        <time>2020-06-15T09:33:22Z</time>
      </trkpt>
      <trkpt lat="49.68916" lon="-1.28835">
        <ele>10.2</ele>
        <time>2020-06-15T09:33:23Z</time>
      </trkpt>
      <trkpt lat="49.68922" lon="-1.28829">
        <ele>10.1</ele>
        <time>2020-06-15T09:33:24Z</time>
      </trkpt>
      <trkpt lat="49.68928" lon="-1.28823">
        <ele>10</ele>
        <time>2020-06-15T09:33:25Z</time>
      </trkpt>
      <trkpt lat="49.68934" lon="-1.28818">
        <ele>10</ele>
        <time>2020-06-15T09:33:26Z</time>
      </trkpt>
      <trkpt lat="49.6894" lon="-1.28813">
        <ele>9.9</ele>
        <time>2020-06-15T09:33:27Z</time>
      </trkpt>
      <trkpt lat="49.68945" lon="-1.28808">
        <ele>9.9</ele>
        <time>2020-06-15T09:33:28Z</time>
      </trkpt>
      <trkpt lat="49.6895" lon="-1.28802">
        <ele>9.9</ele>
        <time>2020-06-15T09:33:29Z</time>
      </trkpt>
      <trkpt lat="49.68954" lon="-1.28798">
        <ele>9.8</ele>
        <time>2020-06-15T09:33:30Z</time>
      </trkpt>
      <trkpt lat="49.68959" lon="-1.28795">
        <ele>9.8</ele>
        <time>2020-06-15T09:33:31Z</time>
      </trkpt>
      <trkpt lat="49.68962" lon="-1.28791">
        <ele>9.8</ele>
        <time>2020-06-15T09:33:32Z</time>
      </trkpt>
      <trkpt lat="49.68966" lon="-1.28787">
        <ele>9.8</ele>
        <time>2020-06-15T09:33:33Z</time>
      </trkpt>
      <trkpt lat="49.68972" lon="-1.28783">
        <ele>9.9</ele>
        <time>2020-06-15T09:33:34Z</time>
      </trkpt>
      <trkpt lat="49.68976" lon="-1.2878">
        <ele>9.9</ele>
        <time>2020-06-15T09:33:35Z</time>
      </trkpt>
      <trkpt lat="49.68979" lon="-1.28778">
        <ele>9.9</ele>
        <time>2020-06-15T09:33:36Z</time>
      </trkpt>
      <trkpt lat="49.68983" lon="-1.28777">
        <ele>9.9</ele>
        <time>2020-06-15T09:33:37Z</time>
      </trkpt>
      <trkpt lat="49.68989" lon="-1.28778">
        <ele>9.8</ele>
        <time>2020-06-15T09:33:38Z</time>
      </trkpt>
      <trkpt lat="49.68992" lon="-1.28785">
        <ele>9.7</ele>
        <time>2020-06-15T09:33:39Z</time>
      </trkpt>
      <trkpt lat="49.68996" lon="-1.2879">
        <ele>9.6</ele>
        <time>2020-06-15T09:33:40Z</time>
      </trkpt>
      <trkpt lat="49.68999" lon="-1.28797">
        <ele>9.5</ele>
        <time>2020-06-15T09:33:41Z</time>
      </trkpt>
      <trkpt lat="49.69002" lon="-1.28803">
        <ele>9.3</ele>
        <time>2020-06-15T09:33:42Z</time>
      </trkpt>
      <trkpt lat="49.69005" lon="-1.28807">
        <ele>9.1</ele>
        <time>2020-06-15T09:33:43Z</time>
      </trkpt>
      <trkpt lat="49.69007" lon="-1.28813">
        <ele>8.8</ele>
        <time>2020-06-15T09:33:44Z</time>
      </trkpt>
      <trkpt lat="49.6901" lon="-1.28818">
        <ele>8.6</ele>
        <time>2020-06-15T09:33:45Z</time>
      </trkpt>
      <trkpt lat="49.69012" lon="-1.28823">
        <ele>8.4</ele>
        <time>2020-06-15T09:33:46Z</time>
      </trkpt>
      <trkpt lat="49.69017" lon="-1.2883">
        <ele>8</ele>
        <time>2020-06-15T09:33:47Z</time>
      </trkpt>
      <trkpt lat="49.69021" lon="-1.28834">
        <ele>7.7</ele>
        <time>2020-06-15T09:33:48Z</time>
      </trkpt>
      <trkpt lat="49.69025" lon="-1.2884">
        <ele>7.3</ele>
        <time>2020-06-15T09:33:49Z</time>
      </trkpt>
      <trkpt lat="49.69028" lon="-1.28843">
        <ele>7.1</ele>
        <time>2020-06-15T09:33:50Z</time>
      </trkpt>
      <trkpt lat="49.69033" lon="-1.28846">
        <ele>6.8</ele>
        <time>2020-06-15T09:33:51Z</time>
      </trkpt>
      <trkpt lat="49.69038" lon="-1.2885">
        <ele>6.5</ele>
        <time>2020-06-15T09:33:52Z</time>
      </trkpt>
      <trkpt lat="49.69043" lon="-1.28854">
        <ele>6.2</ele>
        <time>2020-06-15T09:33:53Z</time>
      </trkpt>
      <trkpt lat="49.69049" lon="-1.28859">
        <ele>5.7</ele>
        <time>2020-06-15T09:33:54Z</time>
      </trkpt>
      <trkpt lat="49.69057" lon="-1.28867">
        <ele>5</ele>
        <time>2020-06-15T09:33:55Z</time>
      </trkpt>
      <trkpt lat="49.69063" lon="-1.28874">
        <ele>4.4</ele>
        <time>2020-06-15T09:33:56Z</time>
      </trkpt>
      <trkpt lat="49.69069" lon="-1.2888">
        <ele>4</ele>
        <time>2020-06-15T09:33:57Z</time>
      </trkpt>
      <trkpt lat="49.69075" lon="-1.28885">
        <ele>3.5</ele>
        <time>2020-06-15T09:33:58Z</time>
      </trkpt>
      <trkpt lat="49.69081" lon="-1.2889">
        <ele>3.2</ele>
        <time>2020-06-15T09:33:59Z</time>
      </trkpt>
      <trkpt lat="49.69088" lon="-1.28895">
        <ele>3</ele>
        <time>2020-06-15T09:34:00Z</time>
      </trkpt>
      <trkpt lat="49.69094" lon="-1.28901">
        <ele>2.8</ele>
        <time>2020-06-15T09:34:01Z</time>
      </trkpt>
      <trkpt lat="49.69101" lon="-1.28907">
        <ele>2.7</ele>
        <time>2020-06-15T09:34:02Z</time>
      </trkpt>
      <trkpt lat="49.69107" lon="-1.28912">
        <ele>2.5</ele>
        <time>2020-06-15T09:34:03Z</time>
      </trkpt>
      <trkpt lat="49.69112" lon="-1.28917">
        <ele>2.5</ele>
        <time>2020-06-15T09:34:04Z</time>
      </trkpt>
      <trkpt lat="49.69116" lon="-1.28922">
        <ele>2.4</ele>
        <time>2020-06-15T09:34:05Z</time>
      </trkpt>
      <trkpt lat="49.6912" lon="-1.28927">
        <ele>2.4</ele>
        <time>2020-06-15T09:34:06Z</time>
      </trkpt>
      <trkpt lat="49.69124" lon="-1.28933">
        <ele>2.4</ele>
        <time>2020-06-15T09:34:07Z</time>
      </trkpt>
      <trkpt lat="49.69127" lon="-1.28938">
        <ele>2.5</ele>
        <time>2020-06-15T09:34:08Z</time>
      </trkpt>
      <trkpt lat="49.69129" lon="-1.28941">
        <ele>2.5</ele>
        <time>2020-06-15T09:34:09Z</time>
      </trkpt>
      <trkpt lat="49.69132" lon="-1.28941">
        <ele>2.5</ele>
        <time>2020-06-15T09:34:10Z</time>
      </trkpt>
      <trkpt lat="49.69134" lon="-1.28939">
        <ele>2.6</ele>
        <time>2020-06-15T09:34:11Z</time>
      </trkpt>
      <trkpt lat="49.69135" lon="-1.28933">
        <ele>2.6</ele>
        <time>2020-06-15T09:34:12Z</time>
      </trkpt>
      <trkpt lat="49.69135" lon="-1.28931">
        <ele>2.6</ele>
        <time>2020-06-15T09:34:13Z</time>
      </trkpt>
      <trkpt lat="49.69135" lon="-1.28926">
        <ele>2.7</ele>
        <time>2020-06-15T09:34:14Z</time>
      </trkpt>
      <trkpt lat="49.69135" lon="-1.28924">
        <ele>2.7</ele>
        <time>2020-06-15T09:34:15Z</time>
      </trkpt>
      <trkpt lat="49.69137" lon="-1.28919">
        <ele>2.8</ele>
        <time>2020-06-15T09:34:16Z</time>
      </trkpt>
      <trkpt lat="49.69138" lon="-1.28918">
        <ele>2.8</ele>
        <time>2020-06-15T09:34:17Z</time>
      </trkpt>
      <trkpt lat="49.6914" lon="-1.28913">
        <ele>2.9</ele>
        <time>2020-06-15T09:34:18Z</time>
      </trkpt>
      <trkpt lat="49.69142" lon="-1.2891">
        <ele>2.9</ele>
        <time>2020-06-15T09:34:19Z</time>
      </trkpt>
      <trkpt lat="49.69145" lon="-1.28906">
        <ele>3</ele>
        <time>2020-06-15T09:34:20Z</time>
      </trkpt>
      <trkpt lat="49.69147" lon="-1.28901">
        <ele>3.1</ele>
        <time>2020-06-15T09:34:21Z</time>
      </trkpt>
      <trkpt lat="49.6915" lon="-1.28896">
        <ele>3.2</ele>
        <time>2020-06-15T09:34:22Z</time>
      </trkpt>
      <trkpt lat="49.69153" lon="-1.28892">
        <ele>3.3</ele>
        <time>2020-06-15T09:34:23Z</time>
      </trkpt>
      <trkpt lat="49.69155" lon="-1.28886">
        <ele>3.4</ele>
        <time>2020-06-15T09:34:24Z</time>
      </trkpt>
      <trkpt lat="49.69157" lon="-1.28881">
        <ele>3.5</ele>
        <time>2020-06-15T09:34:25Z</time>
      </trkpt>
      <trkpt lat="49.69159" lon="-1.28875">
        <ele>3.7</ele>
        <time>2020-06-15T09:34:26Z</time>
      </trkpt>
      <trkpt lat="49.69161" lon="-1.2887">
        <ele>3.8</ele>
        <time>2020-06-15T09:34:27Z</time>
      </trkpt>
      <trkpt lat="49.69163" lon="-1.28866">
        <ele>4</ele>
        <time>2020-06-15T09:34:28Z</time>
      </trkpt>
      <trkpt lat="49.69165" lon="-1.28862">
        <ele>4.1</ele>
        <time>2020-06-15T09:34:29Z</time>
      </trkpt>
      <trkpt lat="49.69167" lon="-1.28856">
        <ele>4.3</ele>
        <time>2020-06-15T09:34:30Z</time>
      </trkpt>
      <trkpt lat="49.69169" lon="-1.28852">
        <ele>4.5</ele>
        <time>2020-06-15T09:34:31Z</time>
      </trkpt>
      <trkpt lat="49.69172" lon="-1.28847">
        <ele>4.7</ele>
        <time>2020-06-15T09:34:32Z</time>
      </trkpt>
      <trkpt lat="49.69173" lon="-1.28843">
        <ele>4.8</ele>
        <time>2020-06-15T09:34:33Z</time>
      </trkpt>
      <trkpt lat="49.69175" lon="-1.28838">
        <ele>5</ele>
        <time>2020-06-15T09:34:34Z</time>
      </trkpt>
      <trkpt lat="49.69177" lon="-1.28832">
        <ele>5.1</ele>
        <time>2020-06-15T09:34:35Z</time>
      </trkpt>
      <trkpt lat="49.6918" lon="-1.28826">
        <ele>5.3</ele>
        <time>2020-06-15T09:34:36Z</time>
      </trkpt>
      <trkpt lat="49.69182" lon="-1.2882">
        <ele>5.4</ele>
        <time>2020-06-15T09:34:37Z</time>
      </trkpt>
      <trkpt lat="49.69184" lon="-1.28814">
        <ele>5.5</ele>
        <time>2020-06-15T09:34:38Z</time>
      </trkpt>
      <trkpt lat="49.69187" lon="-1.2881">
        <ele>5.6</ele>
        <time>2020-06-15T09:34:39Z</time>
      </trkpt>
      <trkpt lat="49.69189" lon="-1.28805">
        <ele>5.7</ele>
        <time>2020-06-15T09:34:40Z</time>
      </trkpt>
      <trkpt lat="49.69192" lon="-1.288">
        <ele>5.8</ele>
        <time>2020-06-15T09:34:41Z</time>
      </trkpt>
      <trkpt lat="49.69195" lon="-1.28796">
        <ele>5.8</ele>
        <time>2020-06-15T09:34:42Z</time>
      </trkpt>
      <trkpt lat="49.69198" lon="-1.28791">
        <ele>5.9</ele>
        <time>2020-06-15T09:34:43Z</time>
      </trkpt>
      <trkpt lat="49.69201" lon="-1.28786">
        <ele>5.9</ele>
        <time>2020-06-15T09:34:44Z</time>
      </trkpt>
      <trkpt lat="49.69205" lon="-1.28781">
        <ele>6</ele>
        <time>2020-06-15T09:34:45Z</time>
      </trkpt>
      <trkpt lat="49.69207" lon="-1.28777">
        <ele>6</ele>
        <time>2020-06-15T09:34:46Z</time>
      </trkpt>
      <trkpt lat="49.6921" lon="-1.28772">
        <ele>6.1</ele>
        <time>2020-06-15T09:34:47Z</time>
      </trkpt>
      <trkpt lat="49.69214" lon="-1.28767">
        <ele>6.2</ele>
        <time>2020-06-15T09:34:48Z</time>
      </trkpt>
      <trkpt lat="49.69217" lon="-1.28761">
        <ele>6.3</ele>
        <time>2020-06-15T09:34:49Z</time>
      </trkpt>
      <trkpt lat="49.6922" lon="-1.28755">
        <ele>6.4</ele>
        <time>2020-06-15T09:34:50Z</time>
      </trkpt>
      <trkpt lat="49.69223" lon="-1.28751">
        <ele>6.4</ele>
        <time>2020-06-15T09:34:51Z</time>
      </trkpt>
      <trkpt lat="49.69226" lon="-1.28746">
        <ele>6.5</ele>
        <time>2020-06-15T09:34:52Z</time>
      </trkpt>
      <trkpt lat="49.6923" lon="-1.28741">
        <ele>6.6</ele>
        <time>2020-06-15T09:34:53Z</time>
      </trkpt>
      <trkpt lat="49.69232" lon="-1.28738">
        <ele>6.7</ele>
        <time>2020-06-15T09:34:54Z</time>
      </trkpt>
      <trkpt lat="49.69235" lon="-1.28732">
        <ele>6.7</ele>
        <time>2020-06-15T09:34:55Z</time>
      </trkpt>
      <trkpt lat="49.69238" lon="-1.28728">
        <ele>6.8</ele>
        <time>2020-06-15T09:34:56Z</time>
      </trkpt>
      <trkpt lat="49.69241" lon="-1.28722">
        <ele>6.9</ele>
        <time>2020-06-15T09:34:57Z</time>
      </trkpt>
      <trkpt lat="49.69244" lon="-1.28715">
        <ele>7</ele>
        <time>2020-06-15T09:34:58Z</time>
      </trkpt>
      <trkpt lat="49.69247" lon="-1.28707">
        <ele>7.1</ele>
        <time>2020-06-15T09:34:59Z</time>
      </trkpt>
      <trkpt lat="49.69249" lon="-1.28698">
        <ele>7.3</ele>
        <time>2020-06-15T09:35:00Z</time>
      </trkpt>
      <trkpt lat="49.69251" lon="-1.28691">
        <ele>7.4</ele>
        <time>2020-06-15T09:35:01Z</time>
      </trkpt>
      <trkpt lat="49.69253" lon="-1.28684">
        <ele>7.6</ele>
        <time>2020-06-15T09:35:02Z</time>
      </trkpt>
      <trkpt lat="49.69255" lon="-1.28677">
        <ele>7.7</ele>
        <time>2020-06-15T09:35:03Z</time>
      </trkpt>
      <trkpt lat="49.69256" lon="-1.28672">
        <ele>7.8</ele>
        <time>2020-06-15T09:35:04Z</time>
      </trkpt>
      <trkpt lat="49.69259" lon="-1.28668">
        <ele>7.9</ele>
        <time>2020-06-15T09:35:05Z</time>
      </trkpt>
      <trkpt lat="49.69261" lon="-1.28663">
        <ele>8</ele>
        <time>2020-06-15T09:35:06Z</time>
      </trkpt>
      <trkpt lat="49.69264" lon="-1.2866">
        <ele>8</ele>
        <time>2020-06-15T09:35:07Z</time>
      </trkpt>
      <trkpt lat="49.69267" lon="-1.28657">
        <ele>8</ele>
        <time>2020-06-15T09:35:08Z</time>
      </trkpt>
      <trkpt lat="49.6927" lon="-1.28654">
        <ele>8</ele>
        <time>2020-06-15T09:35:09Z</time>
      </trkpt>
      <trkpt lat="49.69274" lon="-1.28652">
        <ele>7.9</ele>
        <time>2020-06-15T09:35:10Z</time>
      </trkpt>
      <trkpt lat="49.69278" lon="-1.2865">
        <ele>7.8</ele>
        <time>2020-06-15T09:35:11Z</time>
      </trkpt>
      <trkpt lat="49.69282" lon="-1.28646">
        <ele>7.7</ele>
        <time>2020-06-15T09:35:12Z</time>
      </trkpt>
      <trkpt lat="49.69286" lon="-1.28643">
        <ele>7.6</ele>
        <time>2020-06-15T09:35:13Z</time>
      </trkpt>
      <trkpt lat="49.69291" lon="-1.28639">
        <ele>7.4</ele>
        <time>2020-06-15T09:35:14Z</time>
      </trkpt>
      <trkpt lat="49.69295" lon="-1.28635">
        <ele>7.2</ele>
        <time>2020-06-15T09:35:15Z</time>
      </trkpt>
      <trkpt lat="49.69298" lon="-1.28631">
        <ele>7.1</ele>
        <time>2020-06-15T09:35:16Z</time>
      </trkpt>
      <trkpt lat="49.69302" lon="-1.28626">
        <ele>6.9</ele>
        <time>2020-06-15T09:35:17Z</time>
      </trkpt>
      <trkpt lat="49.69305" lon="-1.2862">
        <ele>6.8</ele>
        <time>2020-06-15T09:35:18Z</time>
      </trkpt>
      <trkpt lat="49.69309" lon="-1.28614">
        <ele>6.6</ele>
        <time>2020-06-15T09:35:19Z</time>
      </trkpt>
      <trkpt lat="49.69312" lon="-1.28609">
        <ele>6.4</ele>
        <time>2020-06-15T09:35:20Z</time>
      </trkpt>
      <trkpt lat="49.69316" lon="-1.28603">
        <ele>6.3</ele>
        <time>2020-06-15T09:35:21Z</time>
      </trkpt>
      <trkpt lat="49.69319" lon="-1.28595">
        <ele>6.1</ele>
        <time>2020-06-15T09:35:22Z</time>
      </trkpt>
      <trkpt lat="49.69322" lon="-1.28589">
        <ele>5.9</ele>
        <time>2020-06-15T09:35:23Z</time>
      </trkpt>
      <trkpt lat="49.69325" lon="-1.2858">
        <ele>5.7</ele>
        <time>2020-06-15T09:35:24Z</time>
      </trkpt>
      <trkpt lat="49.69328" lon="-1.28571">
        <ele>5.4</ele>
        <time>2020-06-15T09:35:25Z</time>
      </trkpt>
      <trkpt lat="49.6933" lon="-1.28563">
        <ele>5.3</ele>
        <time>2020-06-15T09:35:26Z</time>
      </trkpt>
      <trkpt lat="49.69332" lon="-1.28553">
        <ele>5.1</ele>
        <time>2020-06-15T09:35:27Z</time>
      </trkpt>
      <trkpt lat="49.69334" lon="-1.28544">
        <ele>4.9</ele>
        <time>2020-06-15T09:35:28Z</time>
      </trkpt>
      <trkpt lat="49.69334" lon="-1.28533">
        <ele>4.8</ele>
        <time>2020-06-15T09:35:29Z</time>
      </trkpt>
      <trkpt lat="49.69334" lon="-1.28523">
        <ele>4.7</ele>
        <time>2020-06-15T09:35:30Z</time>
      </trkpt>
      <trkpt lat="49.69334" lon="-1.28512">
        <ele>4.6</ele>
        <time>2020-06-15T09:35:31Z</time>
      </trkpt>
      <trkpt lat="49.69334" lon="-1.28503">
        <ele>4.5</ele>
        <time>2020-06-15T09:35:32Z</time>
      </trkpt>
      <trkpt lat="49.69334" lon="-1.28493">
        <ele>4.4</ele>
        <time>2020-06-15T09:35:33Z</time>
      </trkpt>
      <trkpt lat="49.69334" lon="-1.28482">
        <ele>4.3</ele>
        <time>2020-06-15T09:35:34Z</time>
      </trkpt>
      <trkpt lat="49.69333" lon="-1.28473">
        <ele>4.2</ele>
        <time>2020-06-15T09:35:35Z</time>
      </trkpt>
      <trkpt lat="49.69334" lon="-1.28463">
        <ele>4.2</ele>
        <time>2020-06-15T09:35:36Z</time>
      </trkpt>
      <trkpt lat="49.69334" lon="-1.28453">
        <ele>4.1</ele>
        <time>2020-06-15T09:35:37Z</time>
      </trkpt>
      <trkpt lat="49.69334" lon="-1.28443">
        <ele>4.1</ele>
        <time>2020-06-15T09:35:38Z</time>
      </trkpt>
      <trkpt lat="49.69335" lon="-1.28435">
        <ele>4.1</ele>
        <time>2020-06-15T09:35:39Z</time>
      </trkpt>
      <trkpt lat="49.69336" lon="-1.28426">
        <ele>4.1</ele>
        <time>2020-06-15T09:35:40Z</time>
      </trkpt>
      <trkpt lat="49.69337" lon="-1.28418">
        <ele>4</ele>
        <time>2020-06-15T09:35:41Z</time>
      </trkpt>
      <trkpt lat="49.69338" lon="-1.28411">
        <ele>4</ele>
        <time>2020-06-15T09:35:42Z</time>
      </trkpt>
      <trkpt lat="49.69339" lon="-1.28404">
        <ele>4</ele>
        <time>2020-06-15T09:35:43Z</time>
      </trkpt>
      <trkpt lat="49.6934" lon="-1.28395">
        <ele>4</ele>
        <time>2020-06-15T09:35:44Z</time>
      </trkpt>
      <trkpt lat="49.69342" lon="-1.28387">
        <ele>4</ele>
        <time>2020-06-15T09:35:45Z</time>
      </trkpt>
      <trkpt lat="49.69343" lon="-1.28378">
        <ele>4</ele>
        <time>2020-06-15T09:35:46Z</time>
      </trkpt>
      <trkpt lat="49.69345" lon="-1.28372">
        <ele>4</ele>
        <time>2020-06-15T09:35:47Z</time>
      </trkpt>
      <trkpt lat="49.69347" lon="-1.28364">
        <ele>4</ele>
        <time>2020-06-15T09:35:48Z</time>
      </trkpt>
      <trkpt lat="49.6935" lon="-1.28355">
        <ele>4</ele>
        <time>2020-06-15T09:35:49Z</time>
      </trkpt>
      <trkpt lat="49.69352" lon="-1.28349">
        <ele>3.9</ele>
        <time>2020-06-15T09:35:50Z</time>
      </trkpt>
      <trkpt lat="49.69354" lon="-1.28341">
        <ele>3.9</ele>
        <time>2020-06-15T09:35:51Z</time>
      </trkpt>
      <trkpt lat="49.69356" lon="-1.28333">
        <ele>3.8</ele>
        <time>2020-06-15T09:35:52Z</time>
      </trkpt>
      <trkpt lat="49.69359" lon="-1.28325">
        <ele>3.8</ele>
        <time>2020-06-15T09:35:53Z</time>
      </trkpt>
      <trkpt lat="49.69361" lon="-1.28318">
        <ele>3.7</ele>
        <time>2020-06-15T09:35:54Z</time>
      </trkpt>
      <trkpt lat="49.69364" lon="-1.28311">
        <ele>3.7</ele>
        <time>2020-06-15T09:35:55Z</time>
      </trkpt>
      <trkpt lat="49.69367" lon="-1.28301">
        <ele>3.7</ele>
        <time>2020-06-15T09:35:56Z</time>
      </trkpt>
      <trkpt lat="49.6937" lon="-1.28293">
        <ele>3.6</ele>
        <time>2020-06-15T09:35:57Z</time>
      </trkpt>
      <trkpt lat="49.69373" lon="-1.28284">
        <ele>3.6</ele>
        <time>2020-06-15T09:35:58Z</time>
      </trkpt>
      <trkpt lat="49.69376" lon="-1.28276">
        <ele>3.5</ele>
        <time>2020-06-15T09:35:59Z</time>
      </trkpt>
      <trkpt lat="49.69379" lon="-1.28267">
        <ele>3.5</ele>
        <time>2020-06-15T09:36:00Z</time>
      </trkpt>
      <trkpt lat="49.69382" lon="-1.28259">
        <ele>3.5</ele>
        <time>2020-06-15T09:36:01Z</time>
      </trkpt>
      <trkpt lat="49.69384" lon="-1.2825">
        <ele>3.5</ele>
        <time>2020-06-15T09:36:02Z</time>
      </trkpt>
      <trkpt lat="49.69387" lon="-1.28241">
        <ele>3.5</ele>
        <time>2020-06-15T09:36:03Z</time>
      </trkpt>
      <trkpt lat="49.69389" lon="-1.28233">
        <ele>3.5</ele>
        <time>2020-06-15T09:36:04Z</time>
      </trkpt>
      <trkpt lat="49.69391" lon="-1.28225">
        <ele>3.5</ele>
        <time>2020-06-15T09:36:05Z</time>
      </trkpt>
      <trkpt lat="49.69394" lon="-1.28216">
        <ele>3.5</ele>
        <time>2020-06-15T09:36:06Z</time>
      </trkpt>
      <trkpt lat="49.69396" lon="-1.28208">
        <ele>3.5</ele>
        <time>2020-06-15T09:36:07Z</time>
      </trkpt>
      <trkpt lat="49.69398" lon="-1.28199">
        <ele>3.6</ele>
        <time>2020-06-15T09:36:08Z</time>
      </trkpt>
      <trkpt lat="49.694" lon="-1.28191">
        <ele>3.6</ele>
        <time>2020-06-15T09:36:09Z</time>
      </trkpt>
      <trkpt lat="49.69402" lon="-1.28184">
        <ele>3.6</ele>
        <time>2020-06-15T09:36:10Z</time>
      </trkpt>
      <trkpt lat="49.69404" lon="-1.28176">
        <ele>3.5</ele>
        <time>2020-06-15T09:36:11Z</time>
      </trkpt>
      <trkpt lat="49.69406" lon="-1.28168">
        <ele>3.5</ele>
        <time>2020-06-15T09:36:12Z</time>
      </trkpt>
      <trkpt lat="49.69408" lon="-1.28159">
        <ele>3.5</ele>
        <time>2020-06-15T09:36:13Z</time>
      </trkpt>
      <trkpt lat="49.6941" lon="-1.28152">
        <ele>3.4</ele>
        <time>2020-06-15T09:36:14Z</time>
      </trkpt>
      <trkpt lat="49.69412" lon="-1.28142">
        <ele>3.4</ele>
        <time>2020-06-15T09:36:15Z</time>
      </trkpt>
      <trkpt lat="49.69414" lon="-1.28134">
        <ele>3.3</ele>
        <time>2020-06-15T09:36:16Z</time>
      </trkpt>
      <trkpt lat="49.69415" lon="-1.28126">
        <ele>3.3</ele>
        <time>2020-06-15T09:36:17Z</time>
      </trkpt>
      <trkpt lat="49.69415" lon="-1.28119">
        <ele>3.2</ele>
        <time>2020-06-15T09:36:18Z</time>
      </trkpt>
      <trkpt lat="49.69414" lon="-1.28112">
        <ele>3.2</ele>
        <time>2020-06-15T09:36:19Z</time>
      </trkpt>
      <trkpt lat="49.69413" lon="-1.28103">
        <ele>3.1</ele>
        <time>2020-06-15T09:36:20Z</time>
      </trkpt>
      <trkpt lat="49.69413" lon="-1.28094">
        <ele>3.1</ele>
        <time>2020-06-15T09:36:21Z</time>
      </trkpt>
      <trkpt lat="49.69411" lon="-1.28086">
        <ele>3.1</ele>
        <time>2020-06-15T09:36:22Z</time>
      </trkpt>
      <trkpt lat="49.6941" lon="-1.28076">
        <ele>3.1</ele>
        <time>2020-06-15T09:36:23Z</time>
      </trkpt>
      <trkpt lat="49.6941" lon="-1.28067">
        <ele>3.1</ele>
        <time>2020-06-15T09:36:24Z</time>
      </trkpt>
      <trkpt lat="49.6941" lon="-1.28058">
        <ele>3</ele>
        <time>2020-06-15T09:36:25Z</time>
      </trkpt>
      <trkpt lat="49.6941" lon="-1.28049">
        <ele>3</ele>
        <time>2020-06-15T09:36:26Z</time>
      </trkpt>
      <trkpt lat="49.6941" lon="-1.28039">
        <ele>3</ele>
        <time>2020-06-15T09:36:27Z</time>
      </trkpt>
      <trkpt lat="49.6941" lon="-1.28032">
        <ele>2.9</ele>
        <time>2020-06-15T09:36:28Z</time>
      </trkpt>
      <trkpt lat="49.6941" lon="-1.28024">
        <ele>2.9</ele>
        <time>2020-06-15T09:36:29Z</time>
      </trkpt>
      <trkpt lat="49.6941" lon="-1.28017">
        <ele>2.9</ele>
        <time>2020-06-15T09:36:30Z</time>
      </trkpt>
      <trkpt lat="49.6941" lon="-1.28009">
        <ele>2.8</ele>
        <time>2020-06-15T09:36:31Z</time>
      </trkpt>
      <trkpt lat="49.6941" lon="-1.27999">
        <ele>2.8</ele>
        <time>2020-06-15T09:36:32Z</time>
      </trkpt>
      <trkpt lat="49.6941" lon="-1.2799">
        <ele>2.8</ele>
        <time>2020-06-15T09:36:33Z</time>
      </trkpt>
      <trkpt lat="49.6941" lon="-1.27982">
        <ele>2.8</ele>
        <time>2020-06-15T09:36:34Z</time>
      </trkpt>
      <trkpt lat="49.69411" lon="-1.27974">
        <ele>2.7</ele>
        <time>2020-06-15T09:36:35Z</time>
      </trkpt>
      <trkpt lat="49.69411" lon="-1.27965">
        <ele>2.6</ele>
        <time>2020-06-15T09:36:36Z</time>
      </trkpt>
      <trkpt lat="49.69411" lon="-1.27957">
        <ele>2.5</ele>
        <time>2020-06-15T09:36:37Z</time>
      </trkpt>
      <trkpt lat="49.69412" lon="-1.27949">
        <ele>2.5</ele>
        <time>2020-06-15T09:36:38Z</time>
      </trkpt>
      <trkpt lat="49.69412" lon="-1.27942">
        <ele>2.4</ele>
        <time>2020-06-15T09:36:39Z</time>
      </trkpt>
      <trkpt lat="49.6941" lon="-1.27937">
        <ele>2.3</ele>
        <time>2020-06-15T09:36:40Z</time>
      </trkpt>
      <trkpt lat="49.69407" lon="-1.27933">
        <ele>2.2</ele>
        <time>2020-06-15T09:36:41Z</time>
      </trkpt>
      <trkpt lat="49.69403" lon="-1.27932">
        <ele>2.1</ele>
        <time>2020-06-15T09:36:42Z</time>
      </trkpt>
      <trkpt lat="49.69397" lon="-1.27932">
        <ele>2</ele>
        <time>2020-06-15T09:36:43Z</time>
      </trkpt>
      <trkpt lat="49.69391" lon="-1.27931">
        <ele>2</ele>
        <time>2020-06-15T09:36:44Z</time>
      </trkpt>
      <trkpt lat="49.69385" lon="-1.27929">
        <ele>2</ele>
        <time>2020-06-15T09:36:45Z</time>
      </trkpt>
      <trkpt lat="49.69379" lon="-1.27927">
        <ele>2</ele>
        <time>2020-06-15T09:36:46Z</time>
      </trkpt>
      <trkpt lat="49.69373" lon="-1.27927">
        <ele>2</ele>
        <time>2020-06-15T09:36:47Z</time>
      </trkpt>
      <trkpt lat="49.69368" lon="-1.27927">
        <ele>2</ele>
        <time>2020-06-15T09:36:48Z</time>
      </trkpt>
      <trkpt lat="49.69363" lon="-1.27927">
        <ele>2</ele>
        <time>2020-06-15T09:36:49Z</time>
      </trkpt>
      <trkpt lat="49.69358" lon="-1.27926">
        <ele>2</ele>
        <time>2020-06-15T09:36:50Z</time>
      </trkpt>
      <trkpt lat="49.69353" lon="-1.27924">
        <ele>2.1</ele>
        <time>2020-06-15T09:36:51Z</time>
      </trkpt>
      <trkpt lat="49.69348" lon="-1.27923">
        <ele>2.1</ele>
        <time>2020-06-15T09:36:52Z</time>
      </trkpt>
      <trkpt lat="49.69344" lon="-1.27924">
        <ele>2.2</ele>
        <time>2020-06-15T09:36:53Z</time>
      </trkpt>
      <trkpt lat="49.69338" lon="-1.27926">
        <ele>2.3</ele>
        <time>2020-06-15T09:36:54Z</time>
      </trkpt>
      <trkpt lat="49.69333" lon="-1.27928">
        <ele>2.4</ele>
        <time>2020-06-15T09:36:55Z</time>
      </trkpt>
      <trkpt lat="49.69329" lon="-1.2793">
        <ele>2.4</ele>
        <time>2020-06-15T09:36:56Z</time>
      </trkpt>
      <trkpt lat="49.69324" lon="-1.27932">
        <ele>2.5</ele>
        <time>2020-06-15T09:36:57Z</time>
      </trkpt>
      <trkpt lat="49.6932" lon="-1.27932">
        <ele>2.6</ele>
        <time>2020-06-15T09:36:58Z</time>
      </trkpt>
      <trkpt lat="49.69316" lon="-1.27933">
        <ele>2.6</ele>
        <time>2020-06-15T09:36:59Z</time>
      </trkpt>
      <trkpt lat="49.69312" lon="-1.27934">
        <ele>2.6</ele>
        <time>2020-06-15T09:37:00Z</time>
      </trkpt>
      <trkpt lat="49.69308" lon="-1.27936">
        <ele>2.6</ele>
        <time>2020-06-15T09:37:01Z</time>
      </trkpt>
      <trkpt lat="49.69304" lon="-1.27936">
        <ele>2.6</ele>
        <time>2020-06-15T09:37:02Z</time>
      </trkpt>
      <trkpt lat="49.693" lon="-1.27937">
        <ele>2.6</ele>
        <time>2020-06-15T09:37:03Z</time>
      </trkpt>
      <trkpt lat="49.69296" lon="-1.27936">
        <ele>2.5</ele>
        <time>2020-06-15T09:37:04Z</time>
      </trkpt>
      <trkpt lat="49.69291" lon="-1.27937">
        <ele>2.3</ele>
        <time>2020-06-15T09:37:05Z</time>
      </trkpt>
      <trkpt lat="49.69285" lon="-1.27936">
        <ele>2.1</ele>
        <time>2020-06-15T09:37:06Z</time>
      </trkpt>
      <trkpt lat="49.69279" lon="-1.27937">
        <ele>1.8</ele>
        <time>2020-06-15T09:37:07Z</time>
      </trkpt>
      <trkpt lat="49.69273" lon="-1.27938">
        <ele>1.2</ele>
        <time>2020-06-15T09:37:08Z</time>
      </trkpt>
      <trkpt lat="49.69268" lon="-1.27937">
        <ele>1.2</ele>
        <time>2020-06-15T09:37:09Z</time>
      </trkpt>
      <trkpt lat="49.69262" lon="-1.27937">
        <ele>1.2</ele>
        <time>2020-06-15T09:37:10Z</time>
      </trkpt>
      <trkpt lat="49.69258" lon="-1.27937">
        <ele>1.2</ele>
        <time>2020-06-15T09:37:11Z</time>
      </trkpt>
      <trkpt lat="49.69254" lon="-1.27935">
        <ele>1.3</ele>
        <time>2020-06-15T09:37:12Z</time>
      </trkpt>
      <trkpt lat="49.6925" lon="-1.27929">
        <ele>1.3</ele>
        <time>2020-06-15T09:37:13Z</time>
      </trkpt>
      <trkpt lat="49.69247" lon="-1.27924">
        <ele>1.3</ele>
        <time>2020-06-15T09:37:14Z</time>
      </trkpt>
      <trkpt lat="49.69244" lon="-1.27917">
        <ele>1.3</ele>
        <time>2020-06-15T09:37:15Z</time>
      </trkpt>
      <trkpt lat="49.69242" lon="-1.2791">
        <ele>1.4</ele>
        <time>2020-06-15T09:37:16Z</time>
      </trkpt>
      <trkpt lat="49.6924" lon="-1.27903">
        <ele>1.4</ele>
        <time>2020-06-15T09:37:17Z</time>
      </trkpt>
      <trkpt lat="49.69238" lon="-1.27895">
        <ele>1.5</ele>
        <time>2020-06-15T09:37:18Z</time>
      </trkpt>
      <trkpt lat="49.69236" lon="-1.27889">
        <ele>1.5</ele>
        <time>2020-06-15T09:37:19Z</time>
      </trkpt>
      <trkpt lat="49.69234" lon="-1.27882">
        <ele>1.5</ele>
        <time>2020-06-15T09:37:20Z</time>
      </trkpt>
      <trkpt lat="49.69233" lon="-1.27875">
        <ele>1.6</ele>
        <time>2020-06-15T09:37:21Z</time>
      </trkpt>
      <trkpt lat="49.69231" lon="-1.27868">
        <ele>1.6</ele>
        <time>2020-06-15T09:37:22Z</time>
      </trkpt>
      <trkpt lat="49.6923" lon="-1.27861">
        <ele>1.7</ele>
        <time>2020-06-15T09:37:23Z</time>
      </trkpt>
      <trkpt lat="49.6923" lon="-1.27854">
        <ele>1.7</ele>
        <time>2020-06-15T09:37:24Z</time>
      </trkpt>
      <trkpt lat="49.69228" lon="-1.27847">
        <ele>1.8</ele>
        <time>2020-06-15T09:37:25Z</time>
      </trkpt>
      <trkpt lat="49.69226" lon="-1.27841">
        <ele>1.8</ele>
        <time>2020-06-15T09:37:26Z</time>
      </trkpt>
      <trkpt lat="49.69224" lon="-1.27835">
        <ele>1.9</ele>
        <time>2020-06-15T09:37:27Z</time>
      </trkpt>
      <trkpt lat="49.69223" lon="-1.27829">
        <ele>2</ele>
        <time>2020-06-15T09:37:28Z</time>
      </trkpt>
      <trkpt lat="49.69221" lon="-1.27823">
        <ele>2</ele>
        <time>2020-06-15T09:37:29Z</time>
      </trkpt>
      <trkpt lat="49.6922" lon="-1.27815">
        <ele>2.1</ele>
        <time>2020-06-15T09:37:30Z</time>
      </trkpt>
      <trkpt lat="49.69218" lon="-1.27809">
        <ele>2.2</ele>
        <time>2020-06-15T09:37:31Z</time>
      </trkpt>
      <trkpt lat="49.69217" lon="-1.27802">
        <ele>2.3</ele>
        <time>2020-06-15T09:37:32Z</time>
      </trkpt>
      <trkpt lat="49.69215" lon="-1.27795">
        <ele>2.4</ele>
        <time>2020-06-15T09:37:33Z</time>
      </trkpt>
      <trkpt lat="49.69214" lon="-1.27788">
        <ele>2.5</ele>
        <time>2020-06-15T09:37:34Z</time>
      </trkpt>
      <trkpt lat="49.69212" lon="-1.27782">
        <ele>2.6</ele>
        <time>2020-06-15T09:37:35Z</time>
      </trkpt>
      <trkpt lat="49.69211" lon="-1.27776">
        <ele>2.7</ele>
        <time>2020-06-15T09:37:36Z</time>
      </trkpt>
      <trkpt lat="49.6921" lon="-1.2777">
        <ele>2.8</ele>
        <time>2020-06-15T09:37:37Z</time>
      </trkpt>
      <trkpt lat="49.6921" lon="-1.27766">
        <ele>2.9</ele>
        <time>2020-06-15T09:37:38Z</time>
      </trkpt>
      <trkpt lat="49.69209" lon="-1.27762">
        <ele>3</ele>
        <time>2020-06-15T09:37:39Z</time>
      </trkpt>
      <trkpt lat="49.69208" lon="-1.27757">
        <ele>3.1</ele>
        <time>2020-06-15T09:37:40Z</time>
      </trkpt>
      <trkpt lat="49.69208" lon="-1.27754">
        <ele>3</ele>
        <time>2020-06-15T09:37:41Z</time>
      </trkpt>
      <trkpt lat="49.69209" lon="-1.27752">
        <ele>3</ele>
        <time>2020-06-15T09:37:42Z</time>
      </trkpt>
      <trkpt lat="49.69212" lon="-1.27748">
        <ele>2.9</ele>
        <time>2020-06-15T09:37:43Z</time>
      </trkpt>
      <trkpt lat="49.69213" lon="-1.27748">
        <ele>2.9</ele>
        <time>2020-06-15T09:37:44Z</time>
      </trkpt>
      <trkpt lat="49.69218" lon="-1.27746">
        <ele>2.8</ele>
        <time>2020-06-15T09:37:45Z</time>
      </trkpt>
      <trkpt lat="49.69222" lon="-1.27743">
        <ele>2.6</ele>
        <time>2020-06-15T09:37:46Z</time>
      </trkpt>
      <trkpt lat="49.69227" lon="-1.27741">
        <ele>2.5</ele>
        <time>2020-06-15T09:37:47Z</time>
      </trkpt>
      <trkpt lat="49.69232" lon="-1.2774">
        <ele>2.4</ele>
        <time>2020-06-15T09:37:48Z</time>
      </trkpt>
      <trkpt lat="49.69236" lon="-1.27738">
        <ele>2.3</ele>
        <time>2020-06-15T09:37:49Z</time>
      </trkpt>
      <trkpt lat="49.6924" lon="-1.27736">
        <ele>2.2</ele>
        <time>2020-06-15T09:37:50Z</time>
      </trkpt>
      <trkpt lat="49.69245" lon="-1.27735">
        <ele>2.2</ele>
        <time>2020-06-15T09:37:51Z</time>
      </trkpt>
      <trkpt lat="49.69249" lon="-1.27736">
        <ele>2.1</ele>
        <time>2020-06-15T09:37:52Z</time>
      </trkpt>
      <trkpt lat="49.69254" lon="-1.27736">
        <ele>2</ele>
        <time>2020-06-15T09:37:53Z</time>
      </trkpt>
      <trkpt lat="49.69259" lon="-1.27738">
        <ele>1.9</ele>
        <time>2020-06-15T09:37:54Z</time>
      </trkpt>
      <trkpt lat="49.69264" lon="-1.27739">
        <ele>1.9</ele>
        <time>2020-06-15T09:37:55Z</time>
      </trkpt>
      <trkpt lat="49.6927" lon="-1.27739">
        <ele>1.8</ele>
        <time>2020-06-15T09:37:56Z</time>
      </trkpt>
      <trkpt lat="49.69275" lon="-1.27739">
        <ele>1.8</ele>
        <time>2020-06-15T09:37:57Z</time>
      </trkpt>
      <trkpt lat="49.6928" lon="-1.27737">
        <ele>1.8</ele>
        <time>2020-06-15T09:37:58Z</time>
      </trkpt>
      <trkpt lat="49.69285" lon="-1.27735">
        <ele>1.8</ele>
        <time>2020-06-15T09:37:59Z</time>
      </trkpt>
      <trkpt lat="49.6929" lon="-1.27734">
        <ele>1.8</ele>
        <time>2020-06-15T09:38:00Z</time>
      </trkpt>
      <trkpt lat="49.69295" lon="-1.27732">
        <ele>1.8</ele>
        <time>2020-06-15T09:38:01Z</time>
      </trkpt>
      <trkpt lat="49.693" lon="-1.2773">
        <ele>1.8</ele>
        <time>2020-06-15T09:38:02Z</time>
      </trkpt>
      <trkpt lat="49.69305" lon="-1.27727">
        <ele>1.8</ele>
        <time>2020-06-15T09:38:03Z</time>
      </trkpt>
      <trkpt lat="49.6931" lon="-1.27724">
        <ele>1.8</ele>
        <time>2020-06-15T09:38:04Z</time>
      </trkpt>
      <trkpt lat="49.69314" lon="-1.27721">
        <ele>1.8</ele>
        <time>2020-06-15T09:38:05Z</time>
      </trkpt>
      <trkpt lat="49.69319" lon="-1.27718">
        <ele>1.8</ele>
        <time>2020-06-15T09:38:06Z</time>
      </trkpt>
      <trkpt lat="49.69324" lon="-1.27714">
        <ele>1.8</ele>
        <time>2020-06-15T09:38:07Z</time>
      </trkpt>
      <trkpt lat="49.69328" lon="-1.2771">
        <ele>1.8</ele>
        <time>2020-06-15T09:38:08Z</time>
      </trkpt>
      <trkpt lat="49.69333" lon="-1.27705">
        <ele>1.8</ele>
        <time>2020-06-15T09:38:09Z</time>
      </trkpt>
      <trkpt lat="49.69338" lon="-1.277">
        <ele>1.8</ele>
        <time>2020-06-15T09:38:10Z</time>
      </trkpt>
      <trkpt lat="49.69342" lon="-1.27696">
        <ele>1.9</ele>
        <time>2020-06-15T09:38:11Z</time>
      </trkpt>
      <trkpt lat="49.69347" lon="-1.27691">
        <ele>1.9</ele>
        <time>2020-06-15T09:38:12Z</time>
      </trkpt>
      <trkpt lat="49.69352" lon="-1.27687">
        <ele>1.8</ele>
        <time>2020-06-15T09:38:13Z</time>
      </trkpt>
      <trkpt lat="49.69357" lon="-1.27681">
        <ele>1.8</ele>
        <time>2020-06-15T09:38:14Z</time>
      </trkpt>
      <trkpt lat="49.69362" lon="-1.27678">
        <ele>1.8</ele>
        <time>2020-06-15T09:38:15Z</time>
      </trkpt>
      <trkpt lat="49.69366" lon="-1.27673">
        <ele>1.8</ele>
        <time>2020-06-15T09:38:16Z</time>
      </trkpt>
      <trkpt lat="49.69371" lon="-1.27669">
        <ele>1.7</ele>
        <time>2020-06-15T09:38:17Z</time>
      </trkpt>
      <trkpt lat="49.69375" lon="-1.27663">
        <ele>1.7</ele>
        <time>2020-06-15T09:38:18Z</time>
      </trkpt>
      <trkpt lat="49.6938" lon="-1.27658">
        <ele>1.7</ele>
        <time>2020-06-15T09:38:19Z</time>
      </trkpt>
      <trkpt lat="49.69385" lon="-1.27652">
        <ele>1.6</ele>
        <time>2020-06-15T09:38:20Z</time>
      </trkpt>
      <trkpt lat="49.6939" lon="-1.27646">
        <ele>1.5</ele>
        <time>2020-06-15T09:38:21Z</time>
      </trkpt>
      <trkpt lat="49.69394" lon="-1.27641">
        <ele>1.5</ele>
        <time>2020-06-15T09:38:22Z</time>
      </trkpt>
      <trkpt lat="49.69399" lon="-1.27636">
        <ele>1.4</ele>
        <time>2020-06-15T09:38:23Z</time>
      </trkpt>
      <trkpt lat="49.69403" lon="-1.27629">
        <ele>1.4</ele>
        <time>2020-06-15T09:38:24Z</time>
      </trkpt>
      <trkpt lat="49.69407" lon="-1.27622">
        <ele>1.3</ele>
        <time>2020-06-15T09:38:25Z</time>
      </trkpt>
      <trkpt lat="49.69411" lon="-1.27614">
        <ele>1.3</ele>
        <time>2020-06-15T09:38:26Z</time>
      </trkpt>
      <trkpt lat="49.69413" lon="-1.27605">
        <ele>1.3</ele>
        <time>2020-06-15T09:38:27Z</time>
      </trkpt>
      <trkpt lat="49.69414" lon="-1.27595">
        <ele>1.2</ele>
        <time>2020-06-15T09:38:28Z</time>
      </trkpt>
      <trkpt lat="49.69414" lon="-1.27585">
        <ele>1.2</ele>
        <time>2020-06-15T09:38:29Z</time>
      </trkpt>
      <trkpt lat="49.69413" lon="-1.27576">
        <ele>1.2</ele>
        <time>2020-06-15T09:38:30Z</time>
      </trkpt>
      <trkpt lat="49.69412" lon="-1.27567">
        <ele>1.2</ele>
        <time>2020-06-15T09:38:31Z</time>
      </trkpt>
      <trkpt lat="49.6941" lon="-1.27559">
        <ele>1.2</ele>
        <time>2020-06-15T09:38:32Z</time>
      </trkpt>
      <trkpt lat="49.69407" lon="-1.27553">
        <ele>1.2</ele>
        <time>2020-06-15T09:38:33Z</time>
      </trkpt>
      <trkpt lat="49.69405" lon="-1.27545">
        <ele>1.2</ele>
        <time>2020-06-15T09:38:34Z</time>
      </trkpt>
      <trkpt lat="49.69402" lon="-1.27538">
        <ele>1.2</ele>
        <time>2020-06-15T09:38:35Z</time>
      </trkpt>
      <trkpt lat="49.69399" lon="-1.2753">
        <ele>1.2</ele>
        <time>2020-06-15T09:38:36Z</time>
      </trkpt>
      <trkpt lat="49.69396" lon="-1.27522">
        <ele>1.2</ele>
        <time>2020-06-15T09:38:37Z</time>
      </trkpt>
      <trkpt lat="49.69394" lon="-1.27515">
        <ele>1.2</ele>
        <time>2020-06-15T09:38:38Z</time>
      </trkpt>
      <trkpt lat="49.69391" lon="-1.27508">
        <ele>1.3</ele>
        <time>2020-06-15T09:38:39Z</time>
      </trkpt>
      <trkpt lat="49.69389" lon="-1.27501">
        <ele>1.3</ele>
        <time>2020-06-15T09:38:40Z</time>
      </trkpt>
      <trkpt lat="49.69386" lon="-1.27494">
        <ele>1.3</ele>
        <time>2020-06-15T09:38:41Z</time>
      </trkpt>
      <trkpt lat="49.69384" lon="-1.27486">
        <ele>1.2</ele>
        <time>2020-06-15T09:38:42Z</time>
      </trkpt>
      <trkpt lat="49.69381" lon="-1.27479">
        <ele>1.2</ele>
        <time>2020-06-15T09:38:43Z</time>
      </trkpt>
      <trkpt lat="49.69379" lon="-1.27472">
        <ele>1.2</ele>
        <time>2020-06-15T09:38:44Z</time>
      </trkpt>
      <trkpt lat="49.69377" lon="-1.27465">
        <ele>1.2</ele>
        <time>2020-06-15T09:38:45Z</time>
      </trkpt>
      <trkpt lat="49.69375" lon="-1.27458">
        <ele>1.1</ele>
        <time>2020-06-15T09:38:46Z</time>
      </trkpt>
      <trkpt lat="49.69373" lon="-1.27451">
        <ele>1.1</ele>
        <time>2020-06-15T09:38:47Z</time>
      </trkpt>
      <trkpt lat="49.69371" lon="-1.27445">
        <ele>1.1</ele>
        <time>2020-06-15T09:38:48Z</time>
      </trkpt>
      <trkpt lat="49.6937" lon="-1.27438">
        <ele>1.1</ele>
        <time>2020-06-15T09:38:49Z</time>
      </trkpt>
      <trkpt lat="49.69368" lon="-1.27429">
        <ele>1.1</ele>
        <time>2020-06-15T09:38:50Z</time>
      </trkpt>
      <trkpt lat="49.69367" lon="-1.27421">
        <ele>1.1</ele>
        <time>2020-06-15T09:38:51Z</time>
      </trkpt>
      <trkpt lat="49.69366" lon="-1.27413">
        <ele>1.1</ele>
        <time>2020-06-15T09:38:52Z</time>
      </trkpt>
      <trkpt lat="49.69365" lon="-1.27405">
        <ele>1.2</ele>
        <time>2020-06-15T09:38:53Z</time>
      </trkpt>
      <trkpt lat="49.69364" lon="-1.27398">
        <ele>1.2</ele>
        <time>2020-06-15T09:38:54Z</time>
      </trkpt>
      <trkpt lat="49.69364" lon="-1.2739">
        <ele>1.2</ele>
        <time>2020-06-15T09:38:55Z</time>
      </trkpt>
      <trkpt lat="49.69364" lon="-1.27381">
        <ele>1.3</ele>
        <time>2020-06-15T09:38:56Z</time>
      </trkpt>
      <trkpt lat="49.69364" lon="-1.27373">
        <ele>1.3</ele>
        <time>2020-06-15T09:38:57Z</time>
      </trkpt>
      <trkpt lat="49.69364" lon="-1.27364">
        <ele>1.4</ele>
        <time>2020-06-15T09:38:58Z</time>
      </trkpt>
      <trkpt lat="49.69364" lon="-1.27356">
        <ele>1.4</ele>
        <time>2020-06-15T09:38:59Z</time>
      </trkpt>
      <trkpt lat="49.69364" lon="-1.27348">
        <ele>1.5</ele>
        <time>2020-06-15T09:39:00Z</time>
      </trkpt>
      <trkpt lat="49.69363" lon="-1.2734">
        <ele>1.5</ele>
        <time>2020-06-15T09:39:01Z</time>
      </trkpt>
      <trkpt lat="49.69363" lon="-1.27334">
        <ele>1.6</ele>
        <time>2020-06-15T09:39:02Z</time>
      </trkpt>
      <trkpt lat="49.69364" lon="-1.27325">
        <ele>1.6</ele>
        <time>2020-06-15T09:39:03Z</time>
      </trkpt>
      <trkpt lat="49.69364" lon="-1.27318">
        <ele>1.6</ele>
        <time>2020-06-15T09:39:04Z</time>
      </trkpt>
      <trkpt lat="49.69365" lon="-1.27311">
        <ele>1.7</ele>
        <time>2020-06-15T09:39:05Z</time>
      </trkpt>
      <trkpt lat="49.69366" lon="-1.27304">
        <ele>1.7</ele>
        <time>2020-06-15T09:39:06Z</time>
      </trkpt>
      <trkpt lat="49.69366" lon="-1.27296">
        <ele>1.7</ele>
        <time>2020-06-15T09:39:07Z</time>
      </trkpt>
      <trkpt lat="49.69367" lon="-1.27289">
        <ele>1.8</ele>
        <time>2020-06-15T09:39:08Z</time>
      </trkpt>
      <trkpt lat="49.69368" lon="-1.27281">
        <ele>1.8</ele>
        <time>2020-06-15T09:39:09Z</time>
      </trkpt>
      <trkpt lat="49.6937" lon="-1.27274">
        <ele>1.8</ele>
        <time>2020-06-15T09:39:10Z</time>
      </trkpt>
      <trkpt lat="49.69372" lon="-1.27266">
        <ele>1.9</ele>
        <time>2020-06-15T09:39:11Z</time>
      </trkpt>
      <trkpt lat="49.69374" lon="-1.27258">
        <ele>1.9</ele>
        <time>2020-06-15T09:39:12Z</time>
      </trkpt>
      <trkpt lat="49.69377" lon="-1.27252">
        <ele>1.9</ele>
        <time>2020-06-15T09:39:13Z</time>
      </trkpt>
      <trkpt lat="49.6938" lon="-1.27245">
        <ele>1.9</ele>
        <time>2020-06-15T09:39:14Z</time>
      </trkpt>
      <trkpt lat="49.69383" lon="-1.2724">
        <ele>1.9</ele>
        <time>2020-06-15T09:39:15Z</time>
      </trkpt>
      <trkpt lat="49.69387" lon="-1.27233">
        <ele>1.9</ele>
        <time>2020-06-15T09:39:16Z</time>
      </trkpt>
      <trkpt lat="49.69391" lon="-1.27228">
        <ele>1.9</ele>
        <time>2020-06-15T09:39:17Z</time>
      </trkpt>
      <trkpt lat="49.69396" lon="-1.27223">
        <ele>2</ele>
        <time>2020-06-15T09:39:18Z</time>
      </trkpt>
      <trkpt lat="49.69402" lon="-1.27218">
        <ele>2</ele>
        <time>2020-06-15T09:39:19Z</time>
      </trkpt>
      <trkpt lat="49.69407" lon="-1.27214">
        <ele>2</ele>
        <time>2020-06-15T09:39:20Z</time>
      </trkpt>
      <trkpt lat="49.69411" lon="-1.2721">
        <ele>2</ele>
        <time>2020-06-15T09:39:21Z</time>
      </trkpt>
      <trkpt lat="49.69416" lon="-1.27206">
        <ele>2</ele>
        <time>2020-06-15T09:39:22Z</time>
      </trkpt>
      <trkpt lat="49.6942" lon="-1.27201">
        <ele>2</ele>
        <time>2020-06-15T09:39:23Z</time>
      </trkpt>
      <trkpt lat="49.69425" lon="-1.27196">
        <ele>2.1</ele>
        <time>2020-06-15T09:39:24Z</time>
      </trkpt>
      <trkpt lat="49.69429" lon="-1.27192">
        <ele>2.1</ele>
        <time>2020-06-15T09:39:25Z</time>
      </trkpt>
      <trkpt lat="49.69434" lon="-1.27187">
        <ele>2.2</ele>
        <time>2020-06-15T09:39:26Z</time>
      </trkpt>
      <trkpt lat="49.69439" lon="-1.27183">
        <ele>2.3</ele>
        <time>2020-06-15T09:39:27Z</time>
      </trkpt>
      <trkpt lat="49.69444" lon="-1.27178">
        <ele>2.3</ele>
        <time>2020-06-15T09:39:28Z</time>
      </trkpt>
      <trkpt lat="49.69449" lon="-1.27175">
        <ele>2.4</ele>
        <time>2020-06-15T09:39:29Z</time>
      </trkpt>
      <trkpt lat="49.69453" lon="-1.27171">
        <ele>2.4</ele>
        <time>2020-06-15T09:39:30Z</time>
      </trkpt>
      <trkpt lat="49.69458" lon="-1.27166">
        <ele>2.4</ele>
        <time>2020-06-15T09:39:31Z</time>
      </trkpt>
      <trkpt lat="49.69462" lon="-1.27161">
        <ele>2.4</ele>
        <time>2020-06-15T09:39:32Z</time>
      </trkpt>
      <trkpt lat="49.69465" lon="-1.27155">
        <ele>2.4</ele>
        <time>2020-06-15T09:39:33Z</time>
      </trkpt>
      <trkpt lat="49.69468" lon="-1.27148">
        <ele>2.4</ele>
        <time>2020-06-15T09:39:34Z</time>
      </trkpt>
      <trkpt lat="49.6947" lon="-1.2714">
        <ele>2.4</ele>
        <time>2020-06-15T09:39:35Z</time>
      </trkpt>
      <trkpt lat="49.69472" lon="-1.27134">
        <ele>2.4</ele>
        <time>2020-06-15T09:39:36Z</time>
      </trkpt>
      <trkpt lat="49.69474" lon="-1.27127">
        <ele>2.5</ele>
        <time>2020-06-15T09:39:37Z</time>
      </trkpt>
      <trkpt lat="49.69476" lon="-1.2712">
        <ele>2.6</ele>
        <time>2020-06-15T09:39:38Z</time>
      </trkpt>
      <trkpt lat="49.69479" lon="-1.27114">
        <ele>2.6</ele>
        <time>2020-06-15T09:39:39Z</time>
      </trkpt>
      <trkpt lat="49.69481" lon="-1.27108">
        <ele>2.6</ele>
        <time>2020-06-15T09:39:40Z</time>
      </trkpt>
      <trkpt lat="49.69485" lon="-1.27104">
        <ele>2.6</ele>
        <time>2020-06-15T09:39:41Z</time>
      </trkpt>
      <trkpt lat="49.69489" lon="-1.27099">
        <ele>2.6</ele>
        <time>2020-06-15T09:39:42Z</time>
      </trkpt>
      <trkpt lat="49.69493" lon="-1.27094">
        <ele>2.5</ele>
        <time>2020-06-15T09:39:43Z</time>
      </trkpt>
      <trkpt lat="49.69497" lon="-1.27088">
        <ele>2.4</ele>
        <time>2020-06-15T09:39:44Z</time>
      </trkpt>
      <trkpt lat="49.69501" lon="-1.27081">
        <ele>2.3</ele>
        <time>2020-06-15T09:39:45Z</time>
      </trkpt>
      <trkpt lat="49.69504" lon="-1.27073">
        <ele>2.2</ele>
        <time>2020-06-15T09:39:46Z</time>
      </trkpt>
      <trkpt lat="49.69506" lon="-1.27063">
        <ele>2.2</ele>
        <time>2020-06-15T09:39:47Z</time>
      </trkpt>
      <trkpt lat="49.69507" lon="-1.27052">
        <ele>2.1</ele>
        <time>2020-06-15T09:39:48Z</time>
      </trkpt>
      <trkpt lat="49.69507" lon="-1.27043">
        <ele>2.1</ele>
        <time>2020-06-15T09:39:49Z</time>
      </trkpt>
      <trkpt lat="49.69507" lon="-1.27034">
        <ele>2</ele>
        <time>2020-06-15T09:39:50Z</time>
      </trkpt>
      <trkpt lat="49.69507" lon="-1.27026">
        <ele>2</ele>
        <time>2020-06-15T09:39:51Z</time>
      </trkpt>
      <trkpt lat="49.69507" lon="-1.27019">
        <ele>2</ele>
        <time>2020-06-15T09:39:52Z</time>
      </trkpt>
      <trkpt lat="49.69507" lon="-1.2701">
        <ele>2.1</ele>
        <time>2020-06-15T09:39:53Z</time>
      </trkpt>
      <trkpt lat="49.69506" lon="-1.27002">
        <ele>2.1</ele>
        <time>2020-06-15T09:39:54Z</time>
      </trkpt>
      <trkpt lat="49.69507" lon="-1.26995">
        <ele>2.1</ele>
        <time>2020-06-15T09:39:55Z</time>
      </trkpt>
      <trkpt lat="49.69506" lon="-1.26988">
        <ele>2.1</ele>
        <time>2020-06-15T09:39:56Z</time>
      </trkpt>
      <trkpt lat="49.69506" lon="-1.26981">
        <ele>2.1</ele>
        <time>2020-06-15T09:39:57Z</time>
      </trkpt>
      <trkpt lat="49.69507" lon="-1.26974">
        <ele>2.2</ele>
        <time>2020-06-15T09:39:58Z</time>
      </trkpt>
      <trkpt lat="49.69507" lon="-1.26965">
        <ele>2.2</ele>
        <time>2020-06-15T09:39:59Z</time>
      </trkpt>
      <trkpt lat="49.69507" lon="-1.26956">
        <ele>2.2</ele>
        <time>2020-06-15T09:40:00Z</time>
      </trkpt>
      <trkpt lat="49.69507" lon="-1.26947">
        <ele>2.2</ele>
        <time>2020-06-15T09:40:01Z</time>
      </trkpt>
      <trkpt lat="49.69507" lon="-1.26939">
        <ele>2.3</ele>
        <time>2020-06-15T09:40:02Z</time>
      </trkpt>
      <trkpt lat="49.69508" lon="-1.26932">
        <ele>2.3</ele>
        <time>2020-06-15T09:40:03Z</time>
      </trkpt>
      <trkpt lat="49.69508" lon="-1.26924">
        <ele>2.3</ele>
        <time>2020-06-15T09:40:04Z</time>
      </trkpt>
      <trkpt lat="49.69508" lon="-1.26917">
        <ele>2.3</ele>
        <time>2020-06-15T09:40:05Z</time>
      </trkpt>
      <trkpt lat="49.69508" lon="-1.2691">
        <ele>2.3</ele>
        <time>2020-06-15T09:40:06Z</time>
      </trkpt>
      <trkpt lat="49.69508" lon="-1.26902">
        <ele>2.3</ele>
        <time>2020-06-15T09:40:07Z</time>
      </trkpt>
      <trkpt lat="49.69507" lon="-1.26895">
        <ele>2.3</ele>
        <time>2020-06-15T09:40:08Z</time>
      </trkpt>
      <trkpt lat="49.69507" lon="-1.26888">
        <ele>2.3</ele>
        <time>2020-06-15T09:40:09Z</time>
      </trkpt>
      <trkpt lat="49.69507" lon="-1.2688">
        <ele>2.3</ele>
        <time>2020-06-15T09:40:10Z</time>
      </trkpt>
      <trkpt lat="49.69507" lon="-1.26874">
        <ele>2.3</ele>
        <time>2020-06-15T09:40:11Z</time>
      </trkpt>
      <trkpt lat="49.69507" lon="-1.26866">
        <ele>2.3</ele>
        <time>2020-06-15T09:40:12Z</time>
      </trkpt>
      <trkpt lat="49.69507" lon="-1.26859">
        <ele>2.3</ele>
        <time>2020-06-15T09:40:13Z</time>
      </trkpt>
      <trkpt lat="49.69507" lon="-1.26851">
        <ele>2.4</ele>
        <time>2020-06-15T09:40:14Z</time>
      </trkpt>
      <trkpt lat="49.69508" lon="-1.26843">
        <ele>2.4</ele>
        <time>2020-06-15T09:40:15Z</time>
      </trkpt>
      <trkpt lat="49.69508" lon="-1.26835">
        <ele>2.4</ele>
        <time>2020-06-15T09:40:16Z</time>
      </trkpt>
      <trkpt lat="49.69508" lon="-1.26828">
        <ele>2.4</ele>
        <time>2020-06-15T09:40:17Z</time>
      </trkpt>
      <trkpt lat="49.69508" lon="-1.26821">
        <ele>2.4</ele>
        <time>2020-06-15T09:40:18Z</time>
      </trkpt>
      <trkpt lat="49.69507" lon="-1.26813">
        <ele>2.4</ele>
        <time>2020-06-15T09:40:19Z</time>
      </trkpt>
      <trkpt lat="49.69505" lon="-1.26805">
        <ele>2.4</ele>
        <time>2020-06-15T09:40:20Z</time>
      </trkpt>
      <trkpt lat="49.69504" lon="-1.26798">
        <ele>2.5</ele>
        <time>2020-06-15T09:40:21Z</time>
      </trkpt>
      <trkpt lat="49.69502" lon="-1.26791">
        <ele>2.5</ele>
        <time>2020-06-15T09:40:22Z</time>
      </trkpt>
      <trkpt lat="49.69501" lon="-1.26784">
        <ele>2.5</ele>
        <time>2020-06-15T09:40:23Z</time>
      </trkpt>
      <trkpt lat="49.69499" lon="-1.26778">
        <ele>2.5</ele>
        <time>2020-06-15T09:40:24Z</time>
      </trkpt>
      <trkpt lat="49.69496" lon="-1.26774">
        <ele>2.5</ele>
        <time>2020-06-15T09:40:25Z</time>
      </trkpt>
      <trkpt lat="49.69492" lon="-1.26769">
        <ele>2.5</ele>
        <time>2020-06-15T09:40:26Z</time>
      </trkpt>
      <trkpt lat="49.69488" lon="-1.26765">
        <ele>2.6</ele>
        <time>2020-06-15T09:40:27Z</time>
      </trkpt>
      <trkpt lat="49.69483" lon="-1.26762">
        <ele>2.6</ele>
        <time>2020-06-15T09:40:28Z</time>
      </trkpt>
      <trkpt lat="49.69478" lon="-1.26759">
        <ele>2.6</ele>
        <time>2020-06-15T09:40:29Z</time>
      </trkpt>
      <trkpt lat="49.69474" lon="-1.26755">
        <ele>2.6</ele>
        <time>2020-06-15T09:40:30Z</time>
      </trkpt>
      <trkpt lat="49.69468" lon="-1.26751">
        <ele>2.6</ele>
        <time>2020-06-15T09:40:31Z</time>
      </trkpt>
      <trkpt lat="49.69464" lon="-1.26746">
        <ele>2.6</ele>
        <time>2020-06-15T09:40:32Z</time>
      </trkpt>
      <trkpt lat="49.6946" lon="-1.26742">
        <ele>2.6</ele>
        <time>2020-06-15T09:40:33Z</time>
      </trkpt>
      <trkpt lat="49.69457" lon="-1.26738">
        <ele>2.5</ele>
        <time>2020-06-15T09:40:34Z</time>
      </trkpt>
      <trkpt lat="49.69455" lon="-1.26734">
        <ele>2.5</ele>
        <time>2020-06-15T09:40:35Z</time>
      </trkpt>
      <trkpt lat="49.69451" lon="-1.26731">
        <ele>2.5</ele>
        <time>2020-06-15T09:40:36Z</time>
      </trkpt>
      <trkpt lat="49.69448" lon="-1.26729">
        <ele>2.5</ele>
        <time>2020-06-15T09:40:37Z</time>
      </trkpt>
      <trkpt lat="49.69445" lon="-1.26727">
        <ele>2.4</ele>
        <time>2020-06-15T09:40:38Z</time>
      </trkpt>
      <trkpt lat="49.69443" lon="-1.26722">
        <ele>2.4</ele>
        <time>2020-06-15T09:40:39Z</time>
      </trkpt>
      <trkpt lat="49.69443" lon="-1.26717">
        <ele>2.4</ele>
        <time>2020-06-15T09:40:40Z</time>
      </trkpt>
      <trkpt lat="49.69443" lon="-1.26716">
        <ele>2.4</ele>
        <time>2020-06-15T09:40:41Z</time>
      </trkpt>
      <trkpt lat="49.69447" lon="-1.26713">
        <ele>2.2</ele>
        <time>2020-06-15T09:40:42Z</time>
      </trkpt>
      <trkpt lat="49.69448" lon="-1.26712">
        <ele>2.2</ele>
        <time>2020-06-15T09:40:43Z</time>
      </trkpt>
      <trkpt lat="49.6945" lon="-1.26711">
        <ele>2.2</ele>
        <time>2020-06-15T09:40:44Z</time>
      </trkpt>
      <trkpt lat="49.69453" lon="-1.26709">
        <ele>2.2</ele>
        <time>2020-06-15T09:40:45Z</time>
      </trkpt>
      <trkpt lat="49.69456" lon="-1.26707">
        <ele>2.2</ele>
        <time>2020-06-15T09:40:46Z</time>
      </trkpt>
      <trkpt lat="49.69459" lon="-1.26704">
        <ele>2.1</ele>
        <time>2020-06-15T09:40:47Z</time>
      </trkpt>
      <trkpt lat="49.69462" lon="-1.26702">
        <ele>2.1</ele>
        <time>2020-06-15T09:40:48Z</time>
      </trkpt>
      <trkpt lat="49.69465" lon="-1.267">
        <ele>2.1</ele>
        <time>2020-06-15T09:40:49Z</time>
      </trkpt>
      <trkpt lat="49.69469" lon="-1.26698">
        <ele>2</ele>
        <time>2020-06-15T09:40:50Z</time>
      </trkpt>
      <trkpt lat="49.69472" lon="-1.26697">
        <ele>2</ele>
        <time>2020-06-15T09:40:51Z</time>
      </trkpt>
      <trkpt lat="49.69475" lon="-1.26695">
        <ele>1.9</ele>
        <time>2020-06-15T09:40:52Z</time>
      </trkpt>
      <trkpt lat="49.69479" lon="-1.26694">
        <ele>1.9</ele>
        <time>2020-06-15T09:40:53Z</time>
      </trkpt>
      <trkpt lat="49.69482" lon="-1.26691">
        <ele>1.9</ele>
        <time>2020-06-15T09:40:54Z</time>
      </trkpt>
      <trkpt lat="49.69486" lon="-1.26688">
        <ele>1.8</ele>
        <time>2020-06-15T09:40:55Z</time>
      </trkpt>
      <trkpt lat="49.6949" lon="-1.26687">
        <ele>1.8</ele>
        <time>2020-06-15T09:40:56Z</time>
      </trkpt>
      <trkpt lat="49.69493" lon="-1.26683">
        <ele>1.7</ele>
        <time>2020-06-15T09:40:57Z</time>
      </trkpt>
      <trkpt lat="49.69497" lon="-1.26681">
        <ele>1.7</ele>
        <time>2020-06-15T09:40:58Z</time>
      </trkpt>
      <trkpt lat="49.69502" lon="-1.26679">
        <ele>1.7</ele>
        <time>2020-06-15T09:40:59Z</time>
      </trkpt>
      <trkpt lat="49.69506" lon="-1.26678">
        <ele>1.6</ele>
        <time>2020-06-15T09:41:00Z</time>
      </trkpt>
      <trkpt lat="49.6951" lon="-1.26676">
        <ele>1.6</ele>
        <time>2020-06-15T09:41:01Z</time>
      </trkpt>
      <trkpt lat="49.69514" lon="-1.26675">
        <ele>1.6</ele>
        <time>2020-06-15T09:41:02Z</time>
      </trkpt>
      <trkpt lat="49.69519" lon="-1.26672">
        <ele>1.5</ele>
        <time>2020-06-15T09:41:03Z</time>
      </trkpt>
      <trkpt lat="49.69523" lon="-1.26669">
        <ele>1.5</ele>
        <time>2020-06-15T09:41:04Z</time>
      </trkpt>
      <trkpt lat="49.69527" lon="-1.26665">
        <ele>1.5</ele>
        <time>2020-06-15T09:41:05Z</time>
      </trkpt>
      <trkpt lat="49.69531" lon="-1.26661">
        <ele>1.4</ele>
        <time>2020-06-15T09:41:06Z</time>
      </trkpt>
      <trkpt lat="49.69535" lon="-1.26659">
        <ele>1.4</ele>
        <time>2020-06-15T09:41:07Z</time>
      </trkpt>
      <trkpt lat="49.69539" lon="-1.26657">
        <ele>1.4</ele>
        <time>2020-06-15T09:41:08Z</time>
      </trkpt>
      <trkpt lat="49.69541" lon="-1.26653">
        <ele>1.4</ele>
        <time>2020-06-15T09:41:09Z</time>
      </trkpt>
      <trkpt lat="49.69545" lon="-1.2665">
        <ele>1.4</ele>
        <time>2020-06-15T09:41:10Z</time>
      </trkpt>
      <trkpt lat="49.69549" lon="-1.26648">
        <ele>1.3</ele>
        <time>2020-06-15T09:41:11Z</time>
      </trkpt>
      <trkpt lat="49.69552" lon="-1.26647">
        <ele>1.3</ele>
        <time>2020-06-15T09:41:12Z</time>
      </trkpt>
      <trkpt lat="49.69556" lon="-1.26645">
        <ele>1.3</ele>
        <time>2020-06-15T09:41:13Z</time>
      </trkpt>
      <trkpt lat="49.6956" lon="-1.26643">
        <ele>1.2</ele>
        <time>2020-06-15T09:41:14Z</time>
      </trkpt>
      <trkpt lat="49.69562" lon="-1.26641">
        <ele>1.2</ele>
        <time>2020-06-15T09:41:15Z</time>
      </trkpt>
      <trkpt lat="49.69566" lon="-1.26639">
        <ele>1.1</ele>
        <time>2020-06-15T09:41:16Z</time>
      </trkpt>
      <trkpt lat="49.69567" lon="-1.26638">
        <ele>1.1</ele>
        <time>2020-06-15T09:41:17Z</time>
      </trkpt>
      <trkpt lat="49.6957" lon="-1.26636">
        <ele>1</ele>
        <time>2020-06-15T09:41:18Z</time>
      </trkpt>
      <trkpt lat="49.69573" lon="-1.26632">
        <ele>1</ele>
        <time>2020-06-15T09:41:19Z</time>
      </trkpt>
      <trkpt lat="49.69575" lon="-1.26631">
        <ele>0.9</ele>
        <time>2020-06-15T09:41:20Z</time>
      </trkpt>
      <trkpt lat="49.69577" lon="-1.26628">
        <ele>0.9</ele>
        <time>2020-06-15T09:41:21Z</time>
      </trkpt>
      <trkpt lat="49.6958" lon="-1.26624">
        <ele>0.9</ele>
        <time>2020-06-15T09:41:22Z</time>
      </trkpt>
      <trkpt lat="49.69583" lon="-1.26622">
        <ele>0.8</ele>
        <time>2020-06-15T09:41:23Z</time>
      </trkpt>
      <trkpt lat="49.69586" lon="-1.2662">
        <ele>0.8</ele>
        <time>2020-06-15T09:41:24Z</time>
      </trkpt>
      <trkpt lat="49.69589" lon="-1.26618">
        <ele>0.7</ele>
        <time>2020-06-15T09:41:25Z</time>
      </trkpt>
      <trkpt lat="49.69592" lon="-1.26617">
        <ele>0.7</ele>
        <time>2020-06-15T09:41:26Z</time>
      </trkpt>
      <trkpt lat="49.69595" lon="-1.26615">
        <ele>0.7</ele>
        <time>2020-06-15T09:41:27Z</time>
      </trkpt>
      <trkpt lat="49.69598" lon="-1.26614">
        <ele>0.7</ele>
        <time>2020-06-15T09:41:28Z</time>
      </trkpt>
      <trkpt lat="49.69601" lon="-1.26612">
        <ele>0.7</ele>
        <time>2020-06-15T09:41:29Z</time>
      </trkpt>
      <trkpt lat="49.69603" lon="-1.26609">
        <ele>0.6</ele>
        <time>2020-06-15T09:41:30Z</time>
      </trkpt>
      <trkpt lat="49.69606" lon="-1.26604">
        <ele>0.6</ele>
        <time>2020-06-15T09:41:31Z</time>
      </trkpt>
      <trkpt lat="49.69608" lon="-1.26599">
        <ele>0.6</ele>
        <time>2020-06-15T09:41:32Z</time>
      </trkpt>
      <trkpt lat="49.69609" lon="-1.26595">
        <ele>0.6</ele>
        <time>2020-06-15T09:41:33Z</time>
      </trkpt>
      <trkpt lat="49.69611" lon="-1.26591">
        <ele>0.6</ele>
        <time>2020-06-15T09:41:34Z</time>
      </trkpt>
      <trkpt lat="49.69613" lon="-1.26587">
        <ele>0.6</ele>
        <time>2020-06-15T09:41:35Z</time>
      </trkpt>
      <trkpt lat="49.69615" lon="-1.26582">
        <ele>0.5</ele>
        <time>2020-06-15T09:41:36Z</time>
      </trkpt>
      <trkpt lat="49.69615" lon="-1.2658">
        <ele>0.5</ele>
        <time>2020-06-15T09:41:37Z</time>
      </trkpt>
      <trkpt lat="49.69618" lon="-1.26575">
        <ele>0.4</ele>
        <time>2020-06-15T09:41:38Z</time>
      </trkpt>
      <trkpt lat="49.69618" lon="-1.26573">
        <ele>0.4</ele>
        <time>2020-06-15T09:41:39Z</time>
      </trkpt>
      <trkpt lat="49.6962" lon="-1.2657">
        <ele>0.3</ele>
        <time>2020-06-15T09:41:40Z</time>
      </trkpt>
      <trkpt lat="49.69621" lon="-1.26569">
        <ele>0.3</ele>
        <time>2020-06-15T09:41:41Z</time>
      </trkpt>
      <trkpt lat="49.69623" lon="-1.26568">
        <ele>0.3</ele>
        <time>2020-06-15T09:41:42Z</time>
      </trkpt>
      <trkpt lat="49.69624" lon="-1.26568">
        <ele>0.3</ele>
        <time>2020-06-15T09:41:43Z</time>
      </trkpt>
      <trkpt lat="49.69627" lon="-1.26566">
        <ele>0.2</ele>
        <time>2020-06-15T09:41:44Z</time>
      </trkpt>
      <trkpt lat="49.69628" lon="-1.26565">
        <ele>0.2</ele>
        <time>2020-06-15T09:41:45Z</time>
      </trkpt>
      <trkpt lat="49.69631" lon="-1.26563">
        <ele>0.2</ele>
        <time>2020-06-15T09:41:46Z</time>
      </trkpt>
      <trkpt lat="49.69634" lon="-1.2656">
        <ele>0.2</ele>
        <time>2020-06-15T09:41:47Z</time>
      </trkpt>
      <trkpt lat="49.69635" lon="-1.2656">
        <ele>0.2</ele>
        <time>2020-06-15T09:41:48Z</time>
      </trkpt>
      <trkpt lat="49.69638" lon="-1.26559">
        <ele>0.2</ele>
        <time>2020-06-15T09:41:49Z</time>
      </trkpt>
      <trkpt lat="49.69639" lon="-1.26558">
        <ele>0.2</ele>
        <time>2020-06-15T09:41:50Z</time>
      </trkpt>
      <trkpt lat="49.69642" lon="-1.26557">
        <ele>0.2</ele>
        <time>2020-06-15T09:41:51Z</time>
      </trkpt>
      <trkpt lat="49.69643" lon="-1.26556">
        <ele>0.2</ele>
        <time>2020-06-15T09:41:52Z</time>
      </trkpt>
      <trkpt lat="49.69645" lon="-1.26557">
        <ele>0.2</ele>
        <time>2020-06-15T09:41:53Z</time>
      </trkpt>
      <trkpt lat="49.69647" lon="-1.26557">
        <ele>0.2</ele>
        <time>2020-06-15T09:41:54Z</time>
      </trkpt>
      <trkpt lat="49.6965" lon="-1.26557">
        <ele>0.2</ele>
        <time>2020-06-15T09:41:55Z</time>
      </trkpt>
      <trkpt lat="49.69651" lon="-1.26557">
        <ele>0.2</ele>
        <time>2020-06-15T09:41:56Z</time>
      </trkpt>
      <trkpt lat="49.69652" lon="-1.26556">
        <ele>0.2</ele>
        <time>2020-06-15T09:41:57Z</time>
      </trkpt>
      <trkpt lat="49.69653" lon="-1.26556">
        <ele>0.2</ele>
        <time>2020-06-15T09:41:58Z</time>
      </trkpt>
      <trkpt lat="49.69653" lon="-1.26556">
        <ele>0.2</ele>
        <time>2020-06-15T09:41:59Z</time>
      </trkpt>
      <trkpt lat="49.69655" lon="-1.26558">
        <ele>0.2</ele>
        <time>2020-06-15T09:42:00Z</time>
      </trkpt>
      <trkpt lat="49.69656" lon="-1.26558">
        <ele>0.2</ele>
        <time>2020-06-15T09:42:01Z</time>
      </trkpt>
      <trkpt lat="49.69659" lon="-1.26561">
        <ele>0.2</ele>
        <time>2020-06-15T09:42:02Z</time>
      </trkpt>
      <trkpt lat="49.6966" lon="-1.26561">
        <ele>0.2</ele>
        <time>2020-06-15T09:42:03Z</time>
      </trkpt>
      <trkpt lat="49.69664" lon="-1.26562">
        <ele>0.2</ele>
        <time>2020-06-15T09:42:04Z</time>
      </trkpt>
      <trkpt lat="49.69665" lon="-1.26563">
        <ele>0.2</ele>
        <time>2020-06-15T09:42:05Z</time>
      </trkpt>
      <trkpt lat="49.69667" lon="-1.26565">
        <ele>0.2</ele>
        <time>2020-06-15T09:42:06Z</time>
      </trkpt>
      <trkpt lat="49.69668" lon="-1.26566">
        <ele>0.2</ele>
        <time>2020-06-15T09:42:07Z</time>
      </trkpt>
      <trkpt lat="49.69669" lon="-1.26567">
        <ele>0.2</ele>
        <time>2020-06-15T09:42:08Z</time>
      </trkpt>
      <trkpt lat="49.69671" lon="-1.2657">
        <ele>0.2</ele>
        <time>2020-06-15T09:42:09Z</time>
      </trkpt>
      <trkpt lat="49.69672" lon="-1.2657">
        <ele>0.2</ele>
        <time>2020-06-15T09:42:10Z</time>
      </trkpt>
      <trkpt lat="49.69673" lon="-1.26572">
        <ele>0.2</ele>
        <time>2020-06-15T09:42:11Z</time>
      </trkpt>
      <trkpt lat="49.69674" lon="-1.26574">
        <ele>0.2</ele>
        <time>2020-06-15T09:42:12Z</time>
      </trkpt>
      <trkpt lat="49.69677" lon="-1.26576">
        <ele>0.2</ele>
        <time>2020-06-15T09:42:13Z</time>
      </trkpt>
      <trkpt lat="49.69677" lon="-1.26577">
        <ele>0.2</ele>
        <time>2020-06-15T09:42:14Z</time>
      </trkpt>
      <trkpt lat="49.69678" lon="-1.26579">
        <ele>0.2</ele>
        <time>2020-06-15T09:42:15Z</time>
      </trkpt>
      <trkpt lat="49.69679" lon="-1.26581">
        <ele>0.2</ele>
        <time>2020-06-15T09:42:16Z</time>
      </trkpt>
      <trkpt lat="49.69679" lon="-1.26582">
        <ele>0.2</ele>
        <time>2020-06-15T09:42:17Z</time>
      </trkpt>
      <trkpt lat="49.69677" lon="-1.26583">
        <ele>0.2</ele>
        <time>2020-06-15T09:42:18Z</time>
      </trkpt>
      <trkpt lat="49.69675" lon="-1.26582">
        <ele>0.2</ele>
        <time>2020-06-15T09:42:19Z</time>
      </trkpt>
      <trkpt lat="49.69674" lon="-1.26585">
        <ele>0.2</ele>
        <time>2020-06-15T09:42:20Z</time>
      </trkpt>
      <trkpt lat="49.69673" lon="-1.26587">
        <ele>0.2</ele>
        <time>2020-06-15T09:42:21Z</time>
      </trkpt>
      <trkpt lat="49.69673" lon="-1.26588">
        <ele>0.2</ele>
        <time>2020-06-15T09:42:22Z</time>
      </trkpt>
      <trkpt lat="49.69672" lon="-1.26591">
        <ele>0.2</ele>
        <time>2020-06-15T09:42:23Z</time>
      </trkpt>
      <trkpt lat="49.69671" lon="-1.26592">
        <ele>0.2</ele>
        <time>2020-06-15T09:42:24Z</time>
      </trkpt>
      <trkpt lat="49.6967" lon="-1.26593">
        <ele>0.2</ele>
        <time>2020-06-15T09:42:25Z</time>
      </trkpt>
      <trkpt lat="49.69669" lon="-1.26596">
        <ele>0.2</ele>
        <time>2020-06-15T09:42:26Z</time>
      </trkpt>
      <trkpt lat="49.69668" lon="-1.266">
        <ele>0.2</ele>
        <time>2020-06-15T09:42:27Z</time>
      </trkpt>
      <trkpt lat="49.69667" lon="-1.26602">
        <ele>0.2</ele>
        <time>2020-06-15T09:42:28Z</time>
      </trkpt>
      <trkpt lat="49.69667" lon="-1.26604">
        <ele>0.2</ele>
        <time>2020-06-15T09:42:29Z</time>
      </trkpt>
      <trkpt lat="49.69667" lon="-1.26604">
        <ele>0.2</ele>
        <time>2020-06-15T09:42:30Z</time>
      </trkpt>
      <trkpt lat="49.69666" lon="-1.26606">
        <ele>0.2</ele>
        <time>2020-06-15T09:42:31Z</time>
      </trkpt>
      <trkpt lat="49.69665" lon="-1.26606">
        <ele>0.2</ele>
        <time>2020-06-15T09:42:32Z</time>
      </trkpt>
      <trkpt lat="49.69666" lon="-1.26607">
        <ele>0.2</ele>
        <time>2020-06-15T09:42:33Z</time>
      </trkpt>
      <trkpt lat="49.69667" lon="-1.26606">
        <ele>0.2</ele>
        <time>2020-06-15T09:42:34Z</time>
      </trkpt>
      <trkpt lat="49.69667" lon="-1.26603">
        <ele>0.2</ele>
        <time>2020-06-15T09:42:35Z</time>
      </trkpt>
      <trkpt lat="49.69668" lon="-1.26603">
        <ele>0.2</ele>
        <time>2020-06-15T09:42:36Z</time>
      </trkpt>
      <trkpt lat="49.69668" lon="-1.26603">
        <ele>0.2</ele>
        <time>2020-06-15T09:42:37Z</time>
      </trkpt>
      <trkpt lat="49.69668" lon="-1.26603">
        <ele>0.2</ele>
        <time>2020-06-15T09:42:38Z</time>
      </trkpt>
      <trkpt lat="49.69668" lon="-1.26603">
        <ele>0.2</ele>
        <time>2020-06-15T09:42:39Z</time>
      </trkpt>
      <trkpt lat="49.69669" lon="-1.26604">
        <ele>0.2</ele>
        <time>2020-06-15T09:42:40Z</time>
      </trkpt>
      <trkpt lat="49.69669" lon="-1.26604">
        <ele>0.2</ele>
        <time>2020-06-15T09:42:41Z</time>
      </trkpt>
      <trkpt lat="49.69669" lon="-1.26605">
        <ele>0.2</ele>
        <time>2020-06-15T09:42:42Z</time>
      </trkpt>
      <trkpt lat="49.69668" lon="-1.26615">
        <ele>0.2</ele>
        <time>2020-06-15T09:43:49Z</time>
      </trkpt>
      <trkpt lat="49.69667" lon="-1.26617">
        <ele>0.2</ele>
        <time>2020-06-15T09:43:50Z</time>
      </trkpt>
      <trkpt lat="49.69667" lon="-1.26619">
        <ele>0.2</ele>
        <time>2020-06-15T09:43:51Z</time>
      </trkpt>
      <trkpt lat="49.69666" lon="-1.26621">
        <ele>0.2</ele>
        <time>2020-06-15T09:43:52Z</time>
      </trkpt>
      <trkpt lat="49.69665" lon="-1.26621">
        <ele>0.2</ele>
        <time>2020-06-15T09:43:53Z</time>
      </trkpt>
      <trkpt lat="49.69665" lon="-1.26623">
        <ele>0.2</ele>
        <time>2020-06-15T09:43:54Z</time>
      </trkpt>
      <trkpt lat="49.69664" lon="-1.26624">
        <ele>0.2</ele>
        <time>2020-06-15T09:43:55Z</time>
      </trkpt>
      <trkpt lat="49.69664" lon="-1.26624">
        <ele>0.2</ele>
        <time>2020-06-15T09:43:56Z</time>
      </trkpt>
      <trkpt lat="49.69664" lon="-1.26625">
        <ele>0.2</ele>
        <time>2020-06-15T09:43:57Z</time>
      </trkpt>
      <trkpt lat="49.69664" lon="-1.26626">
        <ele>0.2</ele>
        <time>2020-06-15T09:43:58Z</time>
      </trkpt>
      <trkpt lat="49.69664" lon="-1.26627">
        <ele>0.2</ele>
        <time>2020-06-15T09:43:59Z</time>
      </trkpt>
      <trkpt lat="49.69665" lon="-1.26628">
        <ele>0.2</ele>
        <time>2020-06-15T09:44:00Z</time>
      </trkpt>
      <trkpt lat="49.69665" lon="-1.2663">
        <ele>0.2</ele>
        <time>2020-06-15T09:44:01Z</time>
      </trkpt>
      <trkpt lat="49.69665" lon="-1.26633">
        <ele>0.2</ele>
        <time>2020-06-15T09:44:02Z</time>
      </trkpt>
      <trkpt lat="49.69665" lon="-1.26634">
        <ele>0.2</ele>
        <time>2020-06-15T09:44:03Z</time>
      </trkpt>
      <trkpt lat="49.69665" lon="-1.26635">
        <ele>0.2</ele>
        <time>2020-06-15T09:44:04Z</time>
      </trkpt>
      <trkpt lat="49.69664" lon="-1.26635">
        <ele>0.2</ele>
        <time>2020-06-15T09:44:05Z</time>
      </trkpt>
      <trkpt lat="49.69664" lon="-1.26635">
        <ele>0.2</ele>
        <time>2020-06-15T09:44:06Z</time>
      </trkpt>
      <trkpt lat="49.69664" lon="-1.26635">
        <ele>0.2</ele>
        <time>2020-06-15T09:44:07Z</time>
      </trkpt>
      <trkpt lat="49.69664" lon="-1.26635">
        <ele>0.2</ele>
        <time>2020-06-15T09:44:08Z</time>
      </trkpt>
      <trkpt lat="49.69664" lon="-1.26635">
        <ele>0.2</ele>
        <time>2020-06-15T09:44:09Z</time>
      </trkpt>
      <trkpt lat="49.69664" lon="-1.26635">
        <ele>0.2</ele>
        <time>2020-06-15T09:44:10Z</time>
      </trkpt>
      <trkpt lat="49.69664" lon="-1.26635">
        <ele>0.2</ele>
        <time>2020-06-15T09:44:11Z</time>
      </trkpt>
      <trkpt lat="49.69664" lon="-1.26635">
        <ele>0.2</ele>
        <time>2020-06-15T09:44:12Z</time>
      </trkpt>
      <trkpt lat="49.69664" lon="-1.26635">
        <ele>0.2</ele>
        <time>2020-06-15T09:44:13Z</time>
      </trkpt>
      <trkpt lat="49.69664" lon="-1.26635">
        <ele>0.2</ele>
        <time>2020-06-15T09:44:14Z</time>
      </trkpt>
      <trkpt lat="49.69669" lon="-1.26624">
        <ele>0.2</ele>
        <time>2020-06-15T09:50:04Z</time>
      </trkpt>
      <trkpt lat="49.6967" lon="-1.26623">
        <ele>0.2</ele>
        <time>2020-06-15T09:50:05Z</time>
      </trkpt>
      <trkpt lat="49.69671" lon="-1.26621">
        <ele>0.2</ele>
        <time>2020-06-15T09:50:06Z</time>
      </trkpt>
      <trkpt lat="49.69672" lon="-1.2662">
        <ele>0.2</ele>
        <time>2020-06-15T09:50:07Z</time>
      </trkpt>
      <trkpt lat="49.69673" lon="-1.2662">
        <ele>0.2</ele>
        <time>2020-06-15T09:50:08Z</time>
      </trkpt>
      <trkpt lat="49.69674" lon="-1.2662">
        <ele>0.2</ele>
        <time>2020-06-15T09:50:09Z</time>
      </trkpt>
      <trkpt lat="49.69675" lon="-1.26621">
        <ele>0.2</ele>
        <time>2020-06-15T09:50:10Z</time>
      </trkpt>
      <trkpt lat="49.69675" lon="-1.2662">
        <ele>0.2</ele>
        <time>2020-06-15T09:50:11Z</time>
      </trkpt>
      <trkpt lat="49.69676" lon="-1.2662">
        <ele>0.2</ele>
        <time>2020-06-15T09:50:12Z</time>
      </trkpt>
      <trkpt lat="49.69677" lon="-1.26621">
        <ele>0.2</ele>
        <time>2020-06-15T09:50:13Z</time>
      </trkpt>
      <trkpt lat="49.69678" lon="-1.2662">
        <ele>0.2</ele>
        <time>2020-06-15T09:50:14Z</time>
      </trkpt>
      <trkpt lat="49.69679" lon="-1.2662">
        <ele>0.2</ele>
        <time>2020-06-15T09:50:15Z</time>
      </trkpt>
      <trkpt lat="49.69679" lon="-1.2662">
        <ele>0.2</ele>
        <time>2020-06-15T09:50:16Z</time>
      </trkpt>
      <trkpt lat="49.6968" lon="-1.2662">
        <ele>0.2</ele>
        <time>2020-06-15T09:50:17Z</time>
      </trkpt>
      <trkpt lat="49.69681" lon="-1.2662">
        <ele>0.2</ele>
        <time>2020-06-15T09:50:18Z</time>
      </trkpt>
      <trkpt lat="49.69682" lon="-1.26621">
        <ele>0.2</ele>
        <time>2020-06-15T09:50:19Z</time>
      </trkpt>
      <trkpt lat="49.69682" lon="-1.2662">
        <ele>0.2</ele>
        <time>2020-06-15T09:50:20Z</time>
      </trkpt>
      <trkpt lat="49.69683" lon="-1.2662">
        <ele>0.2</ele>
        <time>2020-06-15T09:50:21Z</time>
      </trkpt>
      <trkpt lat="49.69683" lon="-1.2662">
        <ele>0.2</ele>
        <time>2020-06-15T09:50:22Z</time>
      </trkpt>
      <trkpt lat="49.69683" lon="-1.2662">
        <ele>0.2</ele>
        <time>2020-06-15T09:50:23Z</time>
      </trkpt>
      <trkpt lat="49.69683" lon="-1.2662">
        <ele>0.2</ele>
        <time>2020-06-15T09:50:24Z</time>
      </trkpt>
      <trkpt lat="49.69683" lon="-1.2662">
        <ele>0.2</ele>
        <time>2020-06-15T09:50:25Z</time>
      </trkpt>
      <trkpt lat="49.69683" lon="-1.2662">
        <ele>0.2</ele>
        <time>2020-06-15T09:50:26Z</time>
      </trkpt>
      <trkpt lat="49.69684" lon="-1.26618">
        <ele>0.2</ele>
        <time>2020-06-15T09:50:27Z</time>
      </trkpt>
      <trkpt lat="49.69685" lon="-1.26618">
        <ele>0.2</ele>
        <time>2020-06-15T09:50:28Z</time>
      </trkpt>
      <trkpt lat="49.69686" lon="-1.26618">
        <ele>0.2</ele>
        <time>2020-06-15T09:50:29Z</time>
      </trkpt>
      <trkpt lat="49.69688" lon="-1.26618">
        <ele>0.2</ele>
        <time>2020-06-15T09:50:30Z</time>
      </trkpt>
      <trkpt lat="49.69689" lon="-1.26617">
        <ele>0.2</ele>
        <time>2020-06-15T09:50:31Z</time>
      </trkpt>
      <trkpt lat="49.6969" lon="-1.26616">
        <ele>0.2</ele>
        <time>2020-06-15T09:50:32Z</time>
      </trkpt>
      <trkpt lat="49.69691" lon="-1.26616">
        <ele>0.2</ele>
        <time>2020-06-15T09:50:33Z</time>
      </trkpt>
      <trkpt lat="49.69692" lon="-1.26616">
        <ele>0.2</ele>
        <time>2020-06-15T09:50:34Z</time>
      </trkpt>
      <trkpt lat="49.69693" lon="-1.26616">
        <ele>0.2</ele>
        <time>2020-06-15T09:50:35Z</time>
      </trkpt>
      <trkpt lat="49.69694" lon="-1.26615">
        <ele>0.2</ele>
        <time>2020-06-15T09:50:36Z</time>
      </trkpt>
      <trkpt lat="49.69695" lon="-1.26615">
        <ele>0.2</ele>
        <time>2020-06-15T09:50:37Z</time>
      </trkpt>
      <trkpt lat="49.69696" lon="-1.26615">
        <ele>0.2</ele>
        <time>2020-06-15T09:50:38Z</time>
      </trkpt>
      <trkpt lat="49.69697" lon="-1.26616">
        <ele>0.2</ele>
        <time>2020-06-15T09:50:39Z</time>
      </trkpt>
      <trkpt lat="49.69698" lon="-1.26616">
        <ele>0.2</ele>
        <time>2020-06-15T09:50:40Z</time>
      </trkpt>
      <trkpt lat="49.69699" lon="-1.26617">
        <ele>0.2</ele>
        <time>2020-06-15T09:50:41Z</time>
      </trkpt>
      <trkpt lat="49.69701" lon="-1.26617">
        <ele>0.2</ele>
        <time>2020-06-15T09:50:42Z</time>
      </trkpt>
      <trkpt lat="49.69701" lon="-1.26617">
        <ele>0.2</ele>
        <time>2020-06-15T09:50:43Z</time>
      </trkpt>
      <trkpt lat="49.69701" lon="-1.26617">
        <ele>0.2</ele>
        <time>2020-06-15T09:50:44Z</time>
      </trkpt>
      <trkpt lat="49.69701" lon="-1.26617">
        <ele>0.2</ele>
        <time>2020-06-15T09:50:45Z</time>
      </trkpt>
      <trkpt lat="49.69701" lon="-1.26617">
        <ele>0.2</ele>
        <time>2020-06-15T09:50:46Z</time>
      </trkpt>
      <trkpt lat="49.69701" lon="-1.26617">
        <ele>0.2</ele>
        <time>2020-06-15T09:50:47Z</time>
      </trkpt>
      <trkpt lat="49.69701" lon="-1.26617">
        <ele>0.2</ele>
        <time>2020-06-15T09:50:48Z</time>
      </trkpt>
      <trkpt lat="49.69701" lon="-1.26617">
        <ele>0.2</ele>
        <time>2020-06-15T09:50:49Z</time>
      </trkpt>
      <trkpt lat="49.69701" lon="-1.26617">
        <ele>0.2</ele>
        <time>2020-06-15T09:50:50Z</time>
      </trkpt>
      <trkpt lat="49.69701" lon="-1.26617">
        <ele>0.2</ele>
        <time>2020-06-15T09:50:51Z</time>
      </trkpt>
      <trkpt lat="49.69705" lon="-1.26617">
        <ele>0.2</ele>
        <time>2020-06-15T09:50:58Z</time>
      </trkpt>
      <trkpt lat="49.69706" lon="-1.26617">
        <ele>0.2</ele>
        <time>2020-06-15T09:50:59Z</time>
      </trkpt>
      <trkpt lat="49.69707" lon="-1.26617">
        <ele>0.2</ele>
        <time>2020-06-15T09:51:00Z</time>
      </trkpt>
      <trkpt lat="49.69708" lon="-1.26616">
        <ele>0.2</ele>
        <time>2020-06-15T09:51:01Z</time>
      </trkpt>
      <trkpt lat="49.69709" lon="-1.26616">
        <ele>0.2</ele>
        <time>2020-06-15T09:51:02Z</time>
      </trkpt>
      <trkpt lat="49.6971" lon="-1.26615">
        <ele>0.2</ele>
        <time>2020-06-15T09:51:03Z</time>
      </trkpt>
      <trkpt lat="49.69711" lon="-1.26616">
        <ele>0.2</ele>
        <time>2020-06-15T09:51:04Z</time>
      </trkpt>
      <trkpt lat="49.69713" lon="-1.26617">
        <ele>0.2</ele>
        <time>2020-06-15T09:51:05Z</time>
      </trkpt>
      <trkpt lat="49.69714" lon="-1.26617">
        <ele>0.2</ele>
        <time>2020-06-15T09:51:06Z</time>
      </trkpt>
      <trkpt lat="49.69715" lon="-1.26617">
        <ele>0.2</ele>
        <time>2020-06-15T09:51:07Z</time>
      </trkpt>
      <trkpt lat="49.69716" lon="-1.26618">
        <ele>0.2</ele>
        <time>2020-06-15T09:51:08Z</time>
      </trkpt>
      <trkpt lat="49.69717" lon="-1.26618">
        <ele>0.2</ele>
        <time>2020-06-15T09:51:09Z</time>
      </trkpt>
      <trkpt lat="49.69718" lon="-1.26617">
        <ele>0.2</ele>
        <time>2020-06-15T09:51:10Z</time>
      </trkpt>
      <trkpt lat="49.69718" lon="-1.26617">
        <ele>0.2</ele>
        <time>2020-06-15T09:51:11Z</time>
      </trkpt>
      <trkpt lat="49.69719" lon="-1.26617">
        <ele>0.2</ele>
        <time>2020-06-15T09:51:12Z</time>
      </trkpt>
      <trkpt lat="49.69719" lon="-1.26616">
        <ele>0.2</ele>
        <time>2020-06-15T09:51:13Z</time>
      </trkpt>
      <trkpt lat="49.69719" lon="-1.26615">
        <ele>0.2</ele>
        <time>2020-06-15T09:51:14Z</time>
      </trkpt>
      <trkpt lat="49.69719" lon="-1.26615">
        <ele>0.2</ele>
        <time>2020-06-15T09:51:15Z</time>
      </trkpt>
      <trkpt lat="49.69719" lon="-1.26614">
        <ele>0.2</ele>
        <time>2020-06-15T09:51:16Z</time>
      </trkpt>
      <trkpt lat="49.6972" lon="-1.26613">
        <ele>0.2</ele>
        <time>2020-06-15T09:51:17Z</time>
      </trkpt>
      <trkpt lat="49.6972" lon="-1.26612">
        <ele>0.2</ele>
        <time>2020-06-15T09:51:18Z</time>
      </trkpt>
      <trkpt lat="49.69721" lon="-1.26611">
        <ele>0.2</ele>
        <time>2020-06-15T09:51:19Z</time>
      </trkpt>
      <trkpt lat="49.69722" lon="-1.26611">
        <ele>0.2</ele>
        <time>2020-06-15T09:51:20Z</time>
      </trkpt>
      <trkpt lat="49.69722" lon="-1.26611">
        <ele>0.2</ele>
        <time>2020-06-15T09:51:21Z</time>
      </trkpt>
      <trkpt lat="49.69723" lon="-1.2661">
        <ele>0.2</ele>
        <time>2020-06-15T09:51:22Z</time>
      </trkpt>
      <trkpt lat="49.69724" lon="-1.26609">
        <ele>0.2</ele>
        <time>2020-06-15T09:51:23Z</time>
      </trkpt>
      <trkpt lat="49.69725" lon="-1.26608">
        <ele>0.2</ele>
        <time>2020-06-15T09:51:24Z</time>
      </trkpt>
      <trkpt lat="49.69726" lon="-1.26607">
        <ele>0.2</ele>
        <time>2020-06-15T09:51:25Z</time>
      </trkpt>
      <trkpt lat="49.69727" lon="-1.26607">
        <ele>0.2</ele>
        <time>2020-06-15T09:51:26Z</time>
      </trkpt>
      <trkpt lat="49.69727" lon="-1.26606">
        <ele>0.2</ele>
        <time>2020-06-15T09:51:27Z</time>
      </trkpt>
      <trkpt lat="49.69727" lon="-1.26606">
        <ele>0.2</ele>
        <time>2020-06-15T09:51:28Z</time>
      </trkpt>
      <trkpt lat="49.69728" lon="-1.26606">
        <ele>0.2</ele>
        <time>2020-06-15T09:51:29Z</time>
      </trkpt>
      <trkpt lat="49.69728" lon="-1.26606">
        <ele>0.2</ele>
        <time>2020-06-15T09:51:30Z</time>
      </trkpt>
      <trkpt lat="49.69729" lon="-1.26607">
        <ele>0.2</ele>
        <time>2020-06-15T09:51:31Z</time>
      </trkpt>
      <trkpt lat="49.69729" lon="-1.26606">
        <ele>0.2</ele>
        <time>2020-06-15T09:51:32Z</time>
      </trkpt>
      <trkpt lat="49.6973" lon="-1.26607">
        <ele>0.2</ele>
        <time>2020-06-15T09:51:33Z</time>
      </trkpt>
      <trkpt lat="49.6973" lon="-1.26608">
        <ele>0.2</ele>
        <time>2020-06-15T09:51:34Z</time>
      </trkpt>
      <trkpt lat="49.69731" lon="-1.26609">
        <ele>0.2</ele>
        <time>2020-06-15T09:51:35Z</time>
      </trkpt>
      <trkpt lat="49.69731" lon="-1.2661">
        <ele>0.2</ele>
        <time>2020-06-15T09:51:36Z</time>
      </trkpt>
      <trkpt lat="49.69731" lon="-1.26611">
        <ele>0.2</ele>
        <time>2020-06-15T09:51:37Z</time>
      </trkpt>
      <trkpt lat="49.69732" lon="-1.26611">
        <ele>0.2</ele>
        <time>2020-06-15T09:51:38Z</time>
      </trkpt>
      <trkpt lat="49.69732" lon="-1.26612">
        <ele>0.2</ele>
        <time>2020-06-15T09:51:39Z</time>
      </trkpt>
      <trkpt lat="49.69733" lon="-1.26613">
        <ele>0.2</ele>
        <time>2020-06-15T09:51:40Z</time>
      </trkpt>
      <trkpt lat="49.69733" lon="-1.26615">
        <ele>0.2</ele>
        <time>2020-06-15T09:51:41Z</time>
      </trkpt>
      <trkpt lat="49.69732" lon="-1.26616">
        <ele>0.2</ele>
        <time>2020-06-15T09:51:42Z</time>
      </trkpt>
      <trkpt lat="49.69733" lon="-1.26618">
        <ele>0.2</ele>
        <time>2020-06-15T09:51:43Z</time>
      </trkpt>
      <trkpt lat="49.69733" lon="-1.2662">
        <ele>0.2</ele>
        <time>2020-06-15T09:51:44Z</time>
      </trkpt>
      <trkpt lat="49.69733" lon="-1.26621">
        <ele>0.2</ele>
        <time>2020-06-15T09:51:45Z</time>
      </trkpt>
      <trkpt lat="49.69734" lon="-1.26622">
        <ele>0.2</ele>
        <time>2020-06-15T09:51:46Z</time>
      </trkpt>
      <trkpt lat="49.69734" lon="-1.26623">
        <ele>0.2</ele>
        <time>2020-06-15T09:51:47Z</time>
      </trkpt>
      <trkpt lat="49.69734" lon="-1.26625">
        <ele>0.2</ele>
        <time>2020-06-15T09:51:48Z</time>
      </trkpt>
      <trkpt lat="49.69735" lon="-1.26625">
        <ele>0.2</ele>
        <time>2020-06-15T09:51:49Z</time>
      </trkpt>
      <trkpt lat="49.69735" lon="-1.26626">
        <ele>0.2</ele>
        <time>2020-06-15T09:51:50Z</time>
      </trkpt>
      <trkpt lat="49.69735" lon="-1.26627">
        <ele>0.2</ele>
        <time>2020-06-15T09:51:51Z</time>
      </trkpt>
      <trkpt lat="49.69735" lon="-1.26627">
        <ele>0.2</ele>
        <time>2020-06-15T09:51:52Z</time>
      </trkpt>
      <trkpt lat="49.69735" lon="-1.26628">
        <ele>0.2</ele>
        <time>2020-06-15T09:51:53Z</time>
      </trkpt>
      <trkpt lat="49.69735" lon="-1.26629">
        <ele>0.2</ele>
        <time>2020-06-15T09:51:54Z</time>
      </trkpt>
      <trkpt lat="49.69735" lon="-1.2663">
        <ele>0.2</ele>
        <time>2020-06-15T09:51:55Z</time>
      </trkpt>
      <trkpt lat="49.69735" lon="-1.2663">
        <ele>0.2</ele>
        <time>2020-06-15T09:51:56Z</time>
      </trkpt>
      <trkpt lat="49.69735" lon="-1.2663">
        <ele>0.2</ele>
        <time>2020-06-15T09:51:57Z</time>
      </trkpt>
      <trkpt lat="49.69735" lon="-1.2663">
        <ele>0.2</ele>
        <time>2020-06-15T09:51:58Z</time>
      </trkpt>
      <trkpt lat="49.69735" lon="-1.2663">
        <ele>0.2</ele>
        <time>2020-06-15T09:51:59Z</time>
      </trkpt>
      <trkpt lat="49.69735" lon="-1.26631">
        <ele>0.2</ele>
        <time>2020-06-15T09:52:00Z</time>
      </trkpt>
      <trkpt lat="49.69735" lon="-1.26631">
        <ele>0.2</ele>
        <time>2020-06-15T09:52:01Z</time>
      </trkpt>
      <trkpt lat="49.69735" lon="-1.26631">
        <ele>0.2</ele>
        <time>2020-06-15T09:52:02Z</time>
      </trkpt>
      <trkpt lat="49.69735" lon="-1.26631">
        <ele>0.2</ele>
        <time>2020-06-15T09:52:03Z</time>
      </trkpt>
      <trkpt lat="49.69735" lon="-1.26631">
        <ele>0.2</ele>
        <time>2020-06-15T09:52:04Z</time>
      </trkpt>
      <trkpt lat="49.69736" lon="-1.26631">
        <ele>0.2</ele>
        <time>2020-06-15T09:52:05Z</time>
      </trkpt>
      <trkpt lat="49.6974" lon="-1.26649">
        <ele>0.2</ele>
        <time>2020-06-15T09:53:10Z</time>
      </trkpt>
      <trkpt lat="49.6974" lon="-1.2665">
        <ele>0.2</ele>
        <time>2020-06-15T09:53:11Z</time>
      </trkpt>
      <trkpt lat="49.69741" lon="-1.26652">
        <ele>0.2</ele>
        <time>2020-06-15T09:53:12Z</time>
      </trkpt>
      <trkpt lat="49.6974" lon="-1.26654">
        <ele>0.2</ele>
        <time>2020-06-15T09:53:13Z</time>
      </trkpt>
      <trkpt lat="49.6974" lon="-1.26655">
        <ele>0.2</ele>
        <time>2020-06-15T09:53:14Z</time>
      </trkpt>
      <trkpt lat="49.6974" lon="-1.26655">
        <ele>0.2</ele>
        <time>2020-06-15T09:53:15Z</time>
      </trkpt>
      <trkpt lat="49.69739" lon="-1.26656">
        <ele>0.2</ele>
        <time>2020-06-15T09:53:16Z</time>
      </trkpt>
      <trkpt lat="49.69739" lon="-1.26657">
        <ele>0.2</ele>
        <time>2020-06-15T09:53:17Z</time>
      </trkpt>
      <trkpt lat="49.69739" lon="-1.26658">
        <ele>0.2</ele>
        <time>2020-06-15T09:53:18Z</time>
      </trkpt>
      <trkpt lat="49.69738" lon="-1.26659">
        <ele>0.2</ele>
        <time>2020-06-15T09:53:19Z</time>
      </trkpt>
      <trkpt lat="49.69738" lon="-1.26659">
        <ele>0.2</ele>
        <time>2020-06-15T09:53:20Z</time>
      </trkpt>
      <trkpt lat="49.69738" lon="-1.2666">
        <ele>0.2</ele>
        <time>2020-06-15T09:53:21Z</time>
      </trkpt>
      <trkpt lat="49.69738" lon="-1.26661">
        <ele>0.2</ele>
        <time>2020-06-15T09:53:22Z</time>
      </trkpt>
      <trkpt lat="49.69737" lon="-1.26662">
        <ele>0.2</ele>
        <time>2020-06-15T09:53:23Z</time>
      </trkpt>
      <trkpt lat="49.69737" lon="-1.26662">
        <ele>0.2</ele>
        <time>2020-06-15T09:53:24Z</time>
      </trkpt>
      <trkpt lat="49.69737" lon="-1.26663">
        <ele>0.2</ele>
        <time>2020-06-15T09:53:25Z</time>
      </trkpt>
      <trkpt lat="49.69736" lon="-1.26664">
        <ele>0.2</ele>
        <time>2020-06-15T09:53:26Z</time>
      </trkpt>
      <trkpt lat="49.69736" lon="-1.26665">
        <ele>0.2</ele>
        <time>2020-06-15T09:57:21Z</time>
      </trkpt>
      <trkpt lat="49.69736" lon="-1.26666">
        <ele>0.2</ele>
        <time>2020-06-15T09:57:22Z</time>
      </trkpt>
      <trkpt lat="49.69736" lon="-1.26666">
        <ele>0.2</ele>
        <time>2020-06-15T09:57:23Z</time>
      </trkpt>
      <trkpt lat="49.69735" lon="-1.26667">
        <ele>0.2</ele>
        <time>2020-06-15T09:57:24Z</time>
      </trkpt>
      <trkpt lat="49.69735" lon="-1.26668">
        <ele>0.2</ele>
        <time>2020-06-15T09:57:25Z</time>
      </trkpt>
      <trkpt lat="49.69735" lon="-1.26669">
        <ele>0.2</ele>
        <time>2020-06-15T09:57:26Z</time>
      </trkpt>
      <trkpt lat="49.69735" lon="-1.26669">
        <ele>0.2</ele>
        <time>2020-06-15T09:57:27Z</time>
      </trkpt>
      <trkpt lat="49.69735" lon="-1.26669">
        <ele>0.2</ele>
        <time>2020-06-15T09:57:28Z</time>
      </trkpt>
      <trkpt lat="49.69735" lon="-1.26669">
        <ele>0.2</ele>
        <time>2020-06-15T09:57:29Z</time>
      </trkpt>
      <trkpt lat="49.69735" lon="-1.26668">
        <ele>0.2</ele>
        <time>2020-06-15T09:57:30Z</time>
      </trkpt>
      <trkpt lat="49.69735" lon="-1.26669">
        <ele>0.2</ele>
        <time>2020-06-15T09:57:31Z</time>
      </trkpt>
      <trkpt lat="49.69735" lon="-1.26669">
        <ele>0.2</ele>
        <time>2020-06-15T09:57:32Z</time>
      </trkpt>
      <trkpt lat="49.69735" lon="-1.26669">
        <ele>0.2</ele>
        <time>2020-06-15T09:57:33Z</time>
      </trkpt>
      <trkpt lat="49.69735" lon="-1.26669">
        <ele>0.2</ele>
        <time>2020-06-15T09:57:34Z</time>
      </trkpt>
      <trkpt lat="49.69735" lon="-1.26669">
        <ele>0.2</ele>
        <time>2020-06-15T09:57:35Z</time>
      </trkpt>
      <trkpt lat="49.69735" lon="-1.26669">
        <ele>0.2</ele>
        <time>2020-06-15T09:57:36Z</time>
      </trkpt>
      <trkpt lat="49.69728" lon="-1.26665">
        <ele>0.2</ele>
        <time>2020-06-15T09:57:47Z</time>
      </trkpt>
      <trkpt lat="49.69728" lon="-1.26664">
        <ele>0.2</ele>
        <time>2020-06-15T09:57:48Z</time>
      </trkpt>
      <trkpt lat="49.69727" lon="-1.26665">
        <ele>0.2</ele>
        <time>2020-06-15T09:57:49Z</time>
      </trkpt>
      <trkpt lat="49.69726" lon="-1.26665">
        <ele>0.2</ele>
        <time>2020-06-15T09:57:50Z</time>
      </trkpt>
      <trkpt lat="49.69726" lon="-1.26666">
        <ele>0.2</ele>
        <time>2020-06-15T09:57:51Z</time>
      </trkpt>
      <trkpt lat="49.69725" lon="-1.26666">
        <ele>0.2</ele>
        <time>2020-06-15T09:57:52Z</time>
      </trkpt>
      <trkpt lat="49.69725" lon="-1.26666">
        <ele>0.2</ele>
        <time>2020-06-15T09:57:53Z</time>
      </trkpt>
      <trkpt lat="49.69725" lon="-1.26664">
        <ele>0.2</ele>
        <time>2020-06-15T09:57:54Z</time>
      </trkpt>
      <trkpt lat="49.69723" lon="-1.26663">
        <ele>0.2</ele>
        <time>2020-06-15T09:57:55Z</time>
      </trkpt>
      <trkpt lat="49.69722" lon="-1.26662">
        <ele>0.2</ele>
        <time>2020-06-15T09:57:56Z</time>
      </trkpt>
      <trkpt lat="49.69721" lon="-1.26661">
        <ele>0.2</ele>
        <time>2020-06-15T09:57:57Z</time>
      </trkpt>
      <trkpt lat="49.69721" lon="-1.2666">
        <ele>0.2</ele>
        <time>2020-06-15T09:57:58Z</time>
      </trkpt>
      <trkpt lat="49.6972" lon="-1.26659">
        <ele>0.2</ele>
        <time>2020-06-15T09:57:59Z</time>
      </trkpt>
      <trkpt lat="49.69719" lon="-1.26659">
        <ele>0.2</ele>
        <time>2020-06-15T09:58:00Z</time>
      </trkpt>
      <trkpt lat="49.69718" lon="-1.26658">
        <ele>0.2</ele>
        <time>2020-06-15T09:58:01Z</time>
      </trkpt>
      <trkpt lat="49.69718" lon="-1.26657">
        <ele>0.2</ele>
        <time>2020-06-15T09:58:02Z</time>
      </trkpt>
      <trkpt lat="49.69717" lon="-1.26656">
        <ele>0.2</ele>
        <time>2020-06-15T09:58:03Z</time>
      </trkpt>
      <trkpt lat="49.69715" lon="-1.26655">
        <ele>0.2</ele>
        <time>2020-06-15T09:58:04Z</time>
      </trkpt>
      <trkpt lat="49.69714" lon="-1.26655">
        <ele>0.2</ele>
        <time>2020-06-15T09:58:05Z</time>
      </trkpt>
      <trkpt lat="49.69713" lon="-1.26655">
        <ele>0.2</ele>
        <time>2020-06-15T09:58:06Z</time>
      </trkpt>
      <trkpt lat="49.69713" lon="-1.26654">
        <ele>0.2</ele>
        <time>2020-06-15T09:58:07Z</time>
      </trkpt>
      <trkpt lat="49.69713" lon="-1.26653">
        <ele>0.2</ele>
        <time>2020-06-15T09:58:08Z</time>
      </trkpt>
      <trkpt lat="49.69713" lon="-1.26651">
        <ele>0.2</ele>
        <time>2020-06-15T09:58:09Z</time>
      </trkpt>
      <trkpt lat="49.69712" lon="-1.2665">
        <ele>0.2</ele>
        <time>2020-06-15T09:58:10Z</time>
      </trkpt>
      <trkpt lat="49.69712" lon="-1.26649">
        <ele>0.2</ele>
        <time>2020-06-15T09:58:11Z</time>
      </trkpt>
      <trkpt lat="49.69711" lon="-1.26648">
        <ele>0.2</ele>
        <time>2020-06-15T09:58:12Z</time>
      </trkpt>
      <trkpt lat="49.6971" lon="-1.26647">
        <ele>0.2</ele>
        <time>2020-06-15T09:58:13Z</time>
      </trkpt>
      <trkpt lat="49.6971" lon="-1.26646">
        <ele>0.2</ele>
        <time>2020-06-15T09:58:14Z</time>
      </trkpt>
      <trkpt lat="49.69709" lon="-1.26645">
        <ele>0.2</ele>
        <time>2020-06-15T09:58:15Z</time>
      </trkpt>
      <trkpt lat="49.69707" lon="-1.26644">
        <ele>0.2</ele>
        <time>2020-06-15T09:58:16Z</time>
      </trkpt>
      <trkpt lat="49.69706" lon="-1.26644">
        <ele>0.2</ele>
        <time>2020-06-15T09:58:17Z</time>
      </trkpt>
      <trkpt lat="49.69706" lon="-1.26643">
        <ele>0.2</ele>
        <time>2020-06-15T09:58:18Z</time>
      </trkpt>
      <trkpt lat="49.69705" lon="-1.26643">
        <ele>0.2</ele>
        <time>2020-06-15T09:58:19Z</time>
      </trkpt>
      <trkpt lat="49.69705" lon="-1.26643">
        <ele>0.2</ele>
        <time>2020-06-15T09:58:20Z</time>
      </trkpt>
      <trkpt lat="49.69704" lon="-1.26643">
        <ele>0.2</ele>
        <time>2020-06-15T09:58:21Z</time>
      </trkpt>
      <trkpt lat="49.69704" lon="-1.26643">
        <ele>0.2</ele>
        <time>2020-06-15T09:58:22Z</time>
      </trkpt>
      <trkpt lat="49.69703" lon="-1.26641">
        <ele>0.2</ele>
        <time>2020-06-15T09:58:23Z</time>
      </trkpt>
      <trkpt lat="49.69702" lon="-1.2664">
        <ele>0.2</ele>
        <time>2020-06-15T09:58:24Z</time>
      </trkpt>
      <trkpt lat="49.69701" lon="-1.26639">
        <ele>0.2</ele>
        <time>2020-06-15T09:58:25Z</time>
      </trkpt>
      <trkpt lat="49.697" lon="-1.26638">
        <ele>0.2</ele>
        <time>2020-06-15T09:58:26Z</time>
      </trkpt>
      <trkpt lat="49.697" lon="-1.26637">
        <ele>0.2</ele>
        <time>2020-06-15T09:58:27Z</time>
      </trkpt>
      <trkpt lat="49.69699" lon="-1.26637">
        <ele>0.2</ele>
        <time>2020-06-15T09:58:28Z</time>
      </trkpt>
      <trkpt lat="49.697" lon="-1.26637">
        <ele>0.2</ele>
        <time>2020-06-15T09:58:29Z</time>
      </trkpt>
      <trkpt lat="49.69699" lon="-1.26637">
        <ele>0.2</ele>
        <time>2020-06-15T09:58:30Z</time>
      </trkpt>
      <trkpt lat="49.69699" lon="-1.26636">
        <ele>0.2</ele>
        <time>2020-06-15T09:58:31Z</time>
      </trkpt>
      <trkpt lat="49.69699" lon="-1.26636">
        <ele>0.2</ele>
        <time>2020-06-15T09:58:32Z</time>
      </trkpt>
      <trkpt lat="49.69699" lon="-1.26636">
        <ele>0.2</ele>
        <time>2020-06-15T09:58:33Z</time>
      </trkpt>
      <trkpt lat="49.69699" lon="-1.26636">
        <ele>0.2</ele>
        <time>2020-06-15T09:58:34Z</time>
      </trkpt>
      <trkpt lat="49.69699" lon="-1.26636">
        <ele>0.2</ele>
        <time>2020-06-15T09:58:35Z</time>
      </trkpt>
      <trkpt lat="49.69698" lon="-1.26635">
        <ele>0.2</ele>
        <time>2020-06-15T09:58:36Z</time>
      </trkpt>
      <trkpt lat="49.69698" lon="-1.26635">
        <ele>0.2</ele>
        <time>2020-06-15T09:58:37Z</time>
      </trkpt>
      <trkpt lat="49.69692" lon="-1.26628">
        <ele>0.2</ele>
        <time>2020-06-15T09:58:45Z</time>
      </trkpt>
      <trkpt lat="49.69691" lon="-1.26626">
        <ele>0.2</ele>
        <time>2020-06-15T09:58:46Z</time>
      </trkpt>
      <trkpt lat="49.69689" lon="-1.26626">
        <ele>0.2</ele>
        <time>2020-06-15T09:58:47Z</time>
      </trkpt>
      <trkpt lat="49.69688" lon="-1.26625">
        <ele>0.2</ele>
        <time>2020-06-15T09:58:48Z</time>
      </trkpt>
      <trkpt lat="49.69687" lon="-1.26624">
        <ele>0.2</ele>
        <time>2020-06-15T09:58:49Z</time>
      </trkpt>
      <trkpt lat="49.69686" lon="-1.26624">
        <ele>0.2</ele>
        <time>2020-06-15T09:58:50Z</time>
      </trkpt>
      <trkpt lat="49.69684" lon="-1.26625">
        <ele>0.2</ele>
        <time>2020-06-15T09:58:51Z</time>
      </trkpt>
      <trkpt lat="49.69682" lon="-1.26626">
        <ele>0.2</ele>
        <time>2020-06-15T09:58:52Z</time>
      </trkpt>
      <trkpt lat="49.69681" lon="-1.26626">
        <ele>0.2</ele>
        <time>2020-06-15T09:58:53Z</time>
      </trkpt>
      <trkpt lat="49.6968" lon="-1.26626">
        <ele>0.2</ele>
        <time>2020-06-15T09:58:54Z</time>
      </trkpt>
      <trkpt lat="49.69679" lon="-1.26626">
        <ele>0.2</ele>
        <time>2020-06-15T09:58:55Z</time>
      </trkpt>
      <trkpt lat="49.69678" lon="-1.26627">
        <ele>0.2</ele>
        <time>2020-06-15T09:58:56Z</time>
      </trkpt>
      <trkpt lat="49.69677" lon="-1.26627">
        <ele>0.2</ele>
        <time>2020-06-15T09:58:57Z</time>
      </trkpt>
      <trkpt lat="49.69677" lon="-1.26628">
        <ele>0.2</ele>
        <time>2020-06-15T09:58:58Z</time>
      </trkpt>
      <trkpt lat="49.69676" lon="-1.26629">
        <ele>0.2</ele>
        <time>2020-06-15T09:58:59Z</time>
      </trkpt>
      <trkpt lat="49.69676" lon="-1.26629">
        <ele>0.2</ele>
        <time>2020-06-15T09:59:00Z</time>
      </trkpt>
      <trkpt lat="49.69675" lon="-1.26628">
        <ele>0.2</ele>
        <time>2020-06-15T09:59:01Z</time>
      </trkpt>
      <trkpt lat="49.69674" lon="-1.26629">
        <ele>0.2</ele>
        <time>2020-06-15T09:59:02Z</time>
      </trkpt>
      <trkpt lat="49.69674" lon="-1.26628">
        <ele>0.2</ele>
        <time>2020-06-15T09:59:03Z</time>
      </trkpt>
      <trkpt lat="49.69674" lon="-1.26628">
        <ele>0.2</ele>
        <time>2020-06-15T09:59:04Z</time>
      </trkpt>
      <trkpt lat="49.69674" lon="-1.26627">
        <ele>0.2</ele>
        <time>2020-06-15T09:59:05Z</time>
      </trkpt>
      <trkpt lat="49.69674" lon="-1.26627">
        <ele>0.2</ele>
        <time>2020-06-15T09:59:06Z</time>
      </trkpt>
      <trkpt lat="49.69674" lon="-1.26627">
        <ele>0.2</ele>
        <time>2020-06-15T09:59:07Z</time>
      </trkpt>
      <trkpt lat="49.69674" lon="-1.26626">
        <ele>0.2</ele>
        <time>2020-06-15T09:59:08Z</time>
      </trkpt>
      <trkpt lat="49.69673" lon="-1.26626">
        <ele>0.2</ele>
        <time>2020-06-15T09:59:09Z</time>
      </trkpt>
      <trkpt lat="49.69672" lon="-1.26625">
        <ele>0.2</ele>
        <time>2020-06-15T09:59:10Z</time>
      </trkpt>
      <trkpt lat="49.69671" lon="-1.26623">
        <ele>0.2</ele>
        <time>2020-06-15T09:59:11Z</time>
      </trkpt>
      <trkpt lat="49.69671" lon="-1.26622">
        <ele>0.2</ele>
        <time>2020-06-15T09:59:12Z</time>
      </trkpt>
      <trkpt lat="49.69671" lon="-1.26621">
        <ele>0.2</ele>
        <time>2020-06-15T09:59:13Z</time>
      </trkpt>
      <trkpt lat="49.69671" lon="-1.2662">
        <ele>0.2</ele>
        <time>2020-06-15T09:59:14Z</time>
      </trkpt>
      <trkpt lat="49.69671" lon="-1.26619">
        <ele>0.2</ele>
        <time>2020-06-15T09:59:15Z</time>
      </trkpt>
      <trkpt lat="49.69671" lon="-1.26618">
        <ele>0.2</ele>
        <time>2020-06-15T09:59:16Z</time>
      </trkpt>
      <trkpt lat="49.69671" lon="-1.26618">
        <ele>0.2</ele>
        <time>2020-06-15T09:59:17Z</time>
      </trkpt>
      <trkpt lat="49.69671" lon="-1.26618">
        <ele>0.2</ele>
        <time>2020-06-15T09:59:18Z</time>
      </trkpt>
      <trkpt lat="49.6967" lon="-1.26617">
        <ele>0.2</ele>
        <time>2020-06-15T09:59:19Z</time>
      </trkpt>
      <trkpt lat="49.6967" lon="-1.26616">
        <ele>0.2</ele>
        <time>2020-06-15T09:59:20Z</time>
      </trkpt>
      <trkpt lat="49.6967" lon="-1.26615">
        <ele>0.2</ele>
        <time>2020-06-15T09:59:21Z</time>
      </trkpt>
      <trkpt lat="49.6967" lon="-1.26615">
        <ele>0.2</ele>
        <time>2020-06-15T09:59:22Z</time>
      </trkpt>
      <trkpt lat="49.69669" lon="-1.26615">
        <ele>0.2</ele>
        <time>2020-06-15T09:59:23Z</time>
      </trkpt>
      <trkpt lat="49.69669" lon="-1.26613">
        <ele>0.2</ele>
        <time>2020-06-15T09:59:24Z</time>
      </trkpt>
      <trkpt lat="49.6967" lon="-1.26611">
        <ele>0.2</ele>
        <time>2020-06-15T09:59:25Z</time>
      </trkpt>
      <trkpt lat="49.6967" lon="-1.26611">
        <ele>0.2</ele>
        <time>2020-06-15T09:59:26Z</time>
      </trkpt>
      <trkpt lat="49.6967" lon="-1.2661">
        <ele>0.2</ele>
        <time>2020-06-15T09:59:27Z</time>
      </trkpt>
      <trkpt lat="49.6967" lon="-1.2661">
        <ele>0.2</ele>
        <time>2020-06-15T09:59:28Z</time>
      </trkpt>
      <trkpt lat="49.6967" lon="-1.26609">
        <ele>0.2</ele>
        <time>2020-06-15T09:59:29Z</time>
      </trkpt>
      <trkpt lat="49.6967" lon="-1.26609">
        <ele>0.2</ele>
        <time>2020-06-15T09:59:30Z</time>
      </trkpt>
      <trkpt lat="49.6967" lon="-1.26609">
        <ele>0.2</ele>
        <time>2020-06-15T09:59:31Z</time>
      </trkpt>
      <trkpt lat="49.6967" lon="-1.26609">
        <ele>0.2</ele>
        <time>2020-06-15T09:59:32Z</time>
      </trkpt>
      <trkpt lat="49.69669" lon="-1.26609">
        <ele>0.2</ele>
        <time>2020-06-15T09:59:33Z</time>
      </trkpt>
      <trkpt lat="49.69669" lon="-1.26609">
        <ele>0.2</ele>
        <time>2020-06-15T09:59:34Z</time>
      </trkpt>
      <trkpt lat="49.69669" lon="-1.26609">
        <ele>0.2</ele>
        <time>2020-06-15T09:59:35Z</time>
      </trkpt>
      <trkpt lat="49.69669" lon="-1.26608">
        <ele>0.2</ele>
        <time>2020-06-15T09:59:36Z</time>
      </trkpt>
      <trkpt lat="49.69669" lon="-1.26608">
        <ele>0.2</ele>
        <time>2020-06-15T09:59:37Z</time>
      </trkpt>
      <trkpt lat="49.69668" lon="-1.26608">
        <ele>0.2</ele>
        <time>2020-06-15T09:59:38Z</time>
      </trkpt>
      <trkpt lat="49.69664" lon="-1.26608">
        <ele>0.2</ele>
        <time>2020-06-15T09:59:44Z</time>
      </trkpt>
      <trkpt lat="49.69663" lon="-1.26608">
        <ele>0.2</ele>
        <time>2020-06-15T09:59:45Z</time>
      </trkpt>
      <trkpt lat="49.69663" lon="-1.26608">
        <ele>0.2</ele>
        <time>2020-06-15T09:59:46Z</time>
      </trkpt>
      <trkpt lat="49.69661" lon="-1.26609">
        <ele>0.2</ele>
        <time>2020-06-15T09:59:47Z</time>
      </trkpt>
      <trkpt lat="49.69661" lon="-1.26609">
        <ele>0.2</ele>
        <time>2020-06-15T09:59:48Z</time>
      </trkpt>
      <trkpt lat="49.6966" lon="-1.26609">
        <ele>0.2</ele>
        <time>2020-06-15T09:59:49Z</time>
      </trkpt>
      <trkpt lat="49.69659" lon="-1.26609">
        <ele>0.2</ele>
        <time>2020-06-15T09:59:50Z</time>
      </trkpt>
      <trkpt lat="49.69657" lon="-1.26609">
        <ele>0.2</ele>
        <time>2020-06-15T09:59:51Z</time>
      </trkpt>
      <trkpt lat="49.69656" lon="-1.2661">
        <ele>0.2</ele>
        <time>2020-06-15T09:59:52Z</time>
      </trkpt>
      <trkpt lat="49.69654" lon="-1.26611">
        <ele>0.2</ele>
        <time>2020-06-15T09:59:53Z</time>
      </trkpt>
      <trkpt lat="49.69653" lon="-1.26611">
        <ele>0.2</ele>
        <time>2020-06-15T09:59:54Z</time>
      </trkpt>
      <trkpt lat="49.69652" lon="-1.26612">
        <ele>0.2</ele>
        <time>2020-06-15T09:59:55Z</time>
      </trkpt>
      <trkpt lat="49.69651" lon="-1.26612">
        <ele>0.2</ele>
        <time>2020-06-15T09:59:56Z</time>
      </trkpt>
      <trkpt lat="49.69649" lon="-1.26612">
        <ele>0.2</ele>
        <time>2020-06-15T09:59:57Z</time>
      </trkpt>
      <trkpt lat="49.69648" lon="-1.26613">
        <ele>0.2</ele>
        <time>2020-06-15T09:59:58Z</time>
      </trkpt>
      <trkpt lat="49.69646" lon="-1.26614">
        <ele>0.2</ele>
        <time>2020-06-15T09:59:59Z</time>
      </trkpt>
      <trkpt lat="49.69645" lon="-1.26614">
        <ele>0.2</ele>
        <time>2020-06-15T10:00:00Z</time>
      </trkpt>
      <trkpt lat="49.69643" lon="-1.26614">
        <ele>0.2</ele>
        <time>2020-06-15T10:00:01Z</time>
      </trkpt>
      <trkpt lat="49.69642" lon="-1.26614">
        <ele>0.2</ele>
        <time>2020-06-15T10:00:02Z</time>
      </trkpt>
      <trkpt lat="49.6964" lon="-1.26613">
        <ele>0.2</ele>
        <time>2020-06-15T10:00:03Z</time>
      </trkpt>
      <trkpt lat="49.69637" lon="-1.26611">
        <ele>0.2</ele>
        <time>2020-06-15T10:00:04Z</time>
      </trkpt>
      <trkpt lat="49.69636" lon="-1.26611">
        <ele>0.3</ele>
        <time>2020-06-15T10:00:05Z</time>
      </trkpt>
      <trkpt lat="49.69633" lon="-1.26609">
        <ele>0.3</ele>
        <time>2020-06-15T10:00:06Z</time>
      </trkpt>
      <trkpt lat="49.69631" lon="-1.26609">
        <ele>0.4</ele>
        <time>2020-06-15T10:00:07Z</time>
      </trkpt>
      <trkpt lat="49.69629" lon="-1.26606">
        <ele>0.4</ele>
        <time>2020-06-15T10:00:08Z</time>
      </trkpt>
      <trkpt lat="49.69628" lon="-1.26606">
        <ele>0.4</ele>
        <time>2020-06-15T10:00:09Z</time>
      </trkpt>
      <trkpt lat="49.69625" lon="-1.26605">
        <ele>0.5</ele>
        <time>2020-06-15T10:00:10Z</time>
      </trkpt>
      <trkpt lat="49.69624" lon="-1.26604">
        <ele>0.5</ele>
        <time>2020-06-15T10:00:11Z</time>
      </trkpt>
      <trkpt lat="49.69622" lon="-1.26604">
        <ele>0.5</ele>
        <time>2020-06-15T10:00:12Z</time>
      </trkpt>
      <trkpt lat="49.69621" lon="-1.26604">
        <ele>0.5</ele>
        <time>2020-06-15T10:00:13Z</time>
      </trkpt>
      <trkpt lat="49.69618" lon="-1.26605">
        <ele>0.6</ele>
        <time>2020-06-15T10:00:14Z</time>
      </trkpt>
      <trkpt lat="49.69617" lon="-1.26606">
        <ele>0.6</ele>
        <time>2020-06-15T10:00:15Z</time>
      </trkpt>
      <trkpt lat="49.69614" lon="-1.26606">
        <ele>0.6</ele>
        <time>2020-06-15T10:00:16Z</time>
      </trkpt>
      <trkpt lat="49.69613" lon="-1.26607">
        <ele>0.6</ele>
        <time>2020-06-15T10:00:17Z</time>
      </trkpt>
      <trkpt lat="49.69609" lon="-1.26607">
        <ele>0.6</ele>
        <time>2020-06-15T10:00:18Z</time>
      </trkpt>
      <trkpt lat="49.69608" lon="-1.26608">
        <ele>0.6</ele>
        <time>2020-06-15T10:00:19Z</time>
      </trkpt>
      <trkpt lat="49.69605" lon="-1.26609">
        <ele>0.6</ele>
        <time>2020-06-15T10:00:20Z</time>
      </trkpt>
      <trkpt lat="49.69604" lon="-1.26609">
        <ele>0.6</ele>
        <time>2020-06-15T10:00:21Z</time>
      </trkpt>
      <trkpt lat="49.69603" lon="-1.26609">
        <ele>0.6</ele>
        <time>2020-06-15T10:00:22Z</time>
      </trkpt>
      <trkpt lat="49.69601" lon="-1.26609">
        <ele>0.7</ele>
        <time>2020-06-15T10:00:23Z</time>
      </trkpt>
      <trkpt lat="49.69598" lon="-1.2661">
        <ele>0.7</ele>
        <time>2020-06-15T10:00:24Z</time>
      </trkpt>
      <trkpt lat="49.69597" lon="-1.2661">
        <ele>0.7</ele>
        <time>2020-06-15T10:00:25Z</time>
      </trkpt>
      <trkpt lat="49.69594" lon="-1.26611">
        <ele>0.7</ele>
        <time>2020-06-15T10:00:26Z</time>
      </trkpt>
      <trkpt lat="49.69592" lon="-1.26612">
        <ele>0.7</ele>
        <time>2020-06-15T10:00:27Z</time>
      </trkpt>
      <trkpt lat="49.6959" lon="-1.26614">
        <ele>0.7</ele>
        <time>2020-06-15T10:00:28Z</time>
      </trkpt>
      <trkpt lat="49.69587" lon="-1.26616">
        <ele>0.8</ele>
        <time>2020-06-15T10:00:29Z</time>
      </trkpt>
      <trkpt lat="49.69586" lon="-1.26617">
        <ele>0.8</ele>
        <time>2020-06-15T10:00:30Z</time>
      </trkpt>
      <trkpt lat="49.69583" lon="-1.26619">
        <ele>0.8</ele>
        <time>2020-06-15T10:00:31Z</time>
      </trkpt>
      <trkpt lat="49.69582" lon="-1.2662">
        <ele>0.8</ele>
        <time>2020-06-15T10:00:32Z</time>
      </trkpt>
      <trkpt lat="49.69579" lon="-1.26621">
        <ele>0.9</ele>
        <time>2020-06-15T10:00:33Z</time>
      </trkpt>
      <trkpt lat="49.69576" lon="-1.26623">
        <ele>0.9</ele>
        <time>2020-06-15T10:00:34Z</time>
      </trkpt>
      <trkpt lat="49.69573" lon="-1.26626">
        <ele>0.9</ele>
        <time>2020-06-15T10:00:35Z</time>
      </trkpt>
      <trkpt lat="49.69572" lon="-1.26627">
        <ele>1</ele>
        <time>2020-06-15T10:00:36Z</time>
      </trkpt>
      <trkpt lat="49.69569" lon="-1.26629">
        <ele>1</ele>
        <time>2020-06-15T10:00:37Z</time>
      </trkpt>
      <trkpt lat="49.69568" lon="-1.2663">
        <ele>1.1</ele>
        <time>2020-06-15T10:00:38Z</time>
      </trkpt>
      <trkpt lat="49.69564" lon="-1.26632">
        <ele>1.1</ele>
        <time>2020-06-15T10:00:39Z</time>
      </trkpt>
      <trkpt lat="49.69563" lon="-1.26633">
        <ele>1.1</ele>
        <time>2020-06-15T10:00:40Z</time>
      </trkpt>
      <trkpt lat="49.6956" lon="-1.26635">
        <ele>1.2</ele>
        <time>2020-06-15T10:00:41Z</time>
      </trkpt>
      <trkpt lat="49.69557" lon="-1.26637">
        <ele>1.2</ele>
        <time>2020-06-15T10:00:42Z</time>
      </trkpt>
      <trkpt lat="49.69554" lon="-1.26639">
        <ele>1.3</ele>
        <time>2020-06-15T10:00:43Z</time>
      </trkpt>
      <trkpt lat="49.69552" lon="-1.26643">
        <ele>1.3</ele>
        <time>2020-06-15T10:00:44Z</time>
      </trkpt>
      <trkpt lat="49.69549" lon="-1.26646">
        <ele>1.3</ele>
        <time>2020-06-15T10:00:45Z</time>
      </trkpt>
      <trkpt lat="49.69546" lon="-1.26648">
        <ele>1.3</ele>
        <time>2020-06-15T10:00:46Z</time>
      </trkpt>
      <trkpt lat="49.69543" lon="-1.2665">
        <ele>1.4</ele>
        <time>2020-06-15T10:00:47Z</time>
      </trkpt>
      <trkpt lat="49.6954" lon="-1.26651">
        <ele>1.4</ele>
        <time>2020-06-15T10:00:48Z</time>
      </trkpt>
      <trkpt lat="49.69538" lon="-1.26654">
        <ele>1.4</ele>
        <time>2020-06-15T10:00:49Z</time>
      </trkpt>
      <trkpt lat="49.69535" lon="-1.26656">
        <ele>1.4</ele>
        <time>2020-06-15T10:00:50Z</time>
      </trkpt>
      <trkpt lat="49.69532" lon="-1.26658">
        <ele>1.4</ele>
        <time>2020-06-15T10:00:51Z</time>
      </trkpt>
      <trkpt lat="49.69529" lon="-1.2666">
        <ele>1.5</ele>
        <time>2020-06-15T10:00:52Z</time>
      </trkpt>
      <trkpt lat="49.69527" lon="-1.26663">
        <ele>1.5</ele>
        <time>2020-06-15T10:00:53Z</time>
      </trkpt>
      <trkpt lat="49.69524" lon="-1.26665">
        <ele>1.5</ele>
        <time>2020-06-15T10:00:54Z</time>
      </trkpt>
      <trkpt lat="49.6952" lon="-1.26667">
        <ele>1.5</ele>
        <time>2020-06-15T10:00:55Z</time>
      </trkpt>
      <trkpt lat="49.69517" lon="-1.26668">
        <ele>1.5</ele>
        <time>2020-06-15T10:00:56Z</time>
      </trkpt>
      <trkpt lat="49.69514" lon="-1.2667">
        <ele>1.6</ele>
        <time>2020-06-15T10:00:57Z</time>
      </trkpt>
      <trkpt lat="49.69511" lon="-1.26671">
        <ele>1.6</ele>
        <time>2020-06-15T10:00:58Z</time>
      </trkpt>
      <trkpt lat="49.69508" lon="-1.26673">
        <ele>1.6</ele>
        <time>2020-06-15T10:00:59Z</time>
      </trkpt>
      <trkpt lat="49.69506" lon="-1.26674">
        <ele>1.6</ele>
        <time>2020-06-15T10:01:00Z</time>
      </trkpt>
      <trkpt lat="49.69502" lon="-1.26676">
        <ele>1.7</ele>
        <time>2020-06-15T10:01:01Z</time>
      </trkpt>
      <trkpt lat="49.695" lon="-1.26678">
        <ele>1.7</ele>
        <time>2020-06-15T10:01:02Z</time>
      </trkpt>
      <trkpt lat="49.69497" lon="-1.2668">
        <ele>1.7</ele>
        <time>2020-06-15T10:01:03Z</time>
      </trkpt>
      <trkpt lat="49.69493" lon="-1.26681">
        <ele>1.7</ele>
        <time>2020-06-15T10:01:04Z</time>
      </trkpt>
      <trkpt lat="49.69491" lon="-1.26685">
        <ele>1.8</ele>
        <time>2020-06-15T10:01:05Z</time>
      </trkpt>
      <trkpt lat="49.69488" lon="-1.26687">
        <ele>1.8</ele>
        <time>2020-06-15T10:01:06Z</time>
      </trkpt>
      <trkpt lat="49.69484" lon="-1.26689">
        <ele>1.8</ele>
        <time>2020-06-15T10:01:07Z</time>
      </trkpt>
      <trkpt lat="49.69481" lon="-1.26691">
        <ele>1.9</ele>
        <time>2020-06-15T10:01:08Z</time>
      </trkpt>
      <trkpt lat="49.69477" lon="-1.26693">
        <ele>1.9</ele>
        <time>2020-06-15T10:01:09Z</time>
      </trkpt>
      <trkpt lat="49.69473" lon="-1.26695">
        <ele>1.9</ele>
        <time>2020-06-15T10:01:10Z</time>
      </trkpt>
      <trkpt lat="49.6947" lon="-1.26696">
        <ele>2</ele>
        <time>2020-06-15T10:01:11Z</time>
      </trkpt>
      <trkpt lat="49.69467" lon="-1.26697">
        <ele>2</ele>
        <time>2020-06-15T10:01:12Z</time>
      </trkpt>
      <trkpt lat="49.69465" lon="-1.26699">
        <ele>2.1</ele>
        <time>2020-06-15T10:01:13Z</time>
      </trkpt>
      <trkpt lat="49.69461" lon="-1.26701">
        <ele>2.1</ele>
        <time>2020-06-15T10:01:14Z</time>
      </trkpt>
      <trkpt lat="49.69459" lon="-1.26702">
        <ele>2.1</ele>
        <time>2020-06-15T10:01:15Z</time>
      </trkpt>
      <trkpt lat="49.69457" lon="-1.26704">
        <ele>2.2</ele>
        <time>2020-06-15T10:01:16Z</time>
      </trkpt>
      <trkpt lat="49.69453" lon="-1.26706">
        <ele>2.2</ele>
        <time>2020-06-15T10:01:17Z</time>
      </trkpt>
      <trkpt lat="49.69452" lon="-1.26706">
        <ele>2.2</ele>
        <time>2020-06-15T10:01:18Z</time>
      </trkpt>
      <trkpt lat="49.69449" lon="-1.26709">
        <ele>2.2</ele>
        <time>2020-06-15T10:01:19Z</time>
      </trkpt>
      <trkpt lat="49.69448" lon="-1.2671">
        <ele>2.2</ele>
        <time>2020-06-15T10:01:20Z</time>
      </trkpt>
      <trkpt lat="49.69445" lon="-1.26712">
        <ele>2.2</ele>
        <time>2020-06-15T10:01:21Z</time>
      </trkpt>
      <trkpt lat="49.69444" lon="-1.26713">
        <ele>2.2</ele>
        <time>2020-06-15T10:01:22Z</time>
      </trkpt>
      <trkpt lat="49.69441" lon="-1.26715">
        <ele>2.3</ele>
        <time>2020-06-15T10:01:23Z</time>
      </trkpt>
      <trkpt lat="49.6944" lon="-1.26715">
        <ele>2.3</ele>
        <time>2020-06-15T10:01:24Z</time>
      </trkpt>
      <trkpt lat="49.69437" lon="-1.26717">
        <ele>2.3</ele>
        <time>2020-06-15T10:01:25Z</time>
      </trkpt>
      <trkpt lat="49.69436" lon="-1.26718">
        <ele>2.3</ele>
        <time>2020-06-15T10:01:26Z</time>
      </trkpt>
      <trkpt lat="49.69432" lon="-1.26718">
        <ele>2.3</ele>
        <time>2020-06-15T10:01:27Z</time>
      </trkpt>
      <trkpt lat="49.69431" lon="-1.26717">
        <ele>2.3</ele>
        <time>2020-06-15T10:01:28Z</time>
      </trkpt>
      <trkpt lat="49.6943" lon="-1.26718">
        <ele>2.3</ele>
        <time>2020-06-15T10:01:29Z</time>
      </trkpt>
      <trkpt lat="49.69429" lon="-1.26718">
        <ele>2.3</ele>
        <time>2020-06-15T10:01:30Z</time>
      </trkpt>
      <trkpt lat="49.6943" lon="-1.26717">
        <ele>2.2</ele>
        <time>2020-06-15T10:01:31Z</time>
      </trkpt>
      <trkpt lat="49.6943" lon="-1.26717">
        <ele>2.2</ele>
        <time>2020-06-15T10:01:32Z</time>
      </trkpt>
      <trkpt lat="49.69429" lon="-1.26717">
        <ele>2.2</ele>
        <time>2020-06-15T10:01:33Z</time>
      </trkpt>
      <trkpt lat="49.69429" lon="-1.26717">
        <ele>2.2</ele>
        <time>2020-06-15T10:01:34Z</time>
      </trkpt>
      <trkpt lat="49.69428" lon="-1.26718">
        <ele>2.2</ele>
        <time>2020-06-15T10:01:35Z</time>
      </trkpt>
      <trkpt lat="49.69428" lon="-1.26717">
        <ele>2.2</ele>
        <time>2020-06-15T10:01:36Z</time>
      </trkpt>
      <trkpt lat="49.69427" lon="-1.26717">
        <ele>2.2</ele>
        <time>2020-06-15T10:01:37Z</time>
      </trkpt>
      <trkpt lat="49.69426" lon="-1.26717">
        <ele>2.2</ele>
        <time>2020-06-15T10:01:38Z</time>
      </trkpt>
      <trkpt lat="49.69424" lon="-1.26717">
        <ele>2.2</ele>
        <time>2020-06-15T10:01:39Z</time>
      </trkpt>
      <trkpt lat="49.69423" lon="-1.26717">
        <ele>2.2</ele>
        <time>2020-06-15T10:01:40Z</time>
      </trkpt>
      <trkpt lat="49.69422" lon="-1.26717">
        <ele>2.2</ele>
        <time>2020-06-15T10:01:53Z</time>
      </trkpt>
      <trkpt lat="49.6942" lon="-1.26717">
        <ele>2.2</ele>
        <time>2020-06-15T10:01:54Z</time>
      </trkpt>
      <trkpt lat="49.69418" lon="-1.26714">
        <ele>2.2</ele>
        <time>2020-06-15T10:01:55Z</time>
      </trkpt>
      <trkpt lat="49.69416" lon="-1.26711">
        <ele>2.2</ele>
        <time>2020-06-15T10:01:56Z</time>
      </trkpt>
      <trkpt lat="49.69414" lon="-1.26708">
        <ele>2.2</ele>
        <time>2020-06-15T10:01:57Z</time>
      </trkpt>
      <trkpt lat="49.69411" lon="-1.26704">
        <ele>2.1</ele>
        <time>2020-06-15T10:01:58Z</time>
      </trkpt>
      <trkpt lat="49.6941" lon="-1.26701">
        <ele>2.1</ele>
        <time>2020-06-15T10:01:59Z</time>
      </trkpt>
      <trkpt lat="49.69407" lon="-1.26697">
        <ele>2.1</ele>
        <time>2020-06-15T10:02:00Z</time>
      </trkpt>
      <trkpt lat="49.69403" lon="-1.26694">
        <ele>2.1</ele>
        <time>2020-06-15T10:02:01Z</time>
      </trkpt>
      <trkpt lat="49.69399" lon="-1.26692">
        <ele>2</ele>
        <time>2020-06-15T10:02:02Z</time>
      </trkpt>
      <trkpt lat="49.69396" lon="-1.26691">
        <ele>2</ele>
        <time>2020-06-15T10:02:03Z</time>
      </trkpt>
      <trkpt lat="49.69392" lon="-1.2669">
        <ele>2</ele>
        <time>2020-06-15T10:02:04Z</time>
      </trkpt>
      <trkpt lat="49.69389" lon="-1.2669">
        <ele>1.9</ele>
        <time>2020-06-15T10:02:05Z</time>
      </trkpt>
      <trkpt lat="49.69386" lon="-1.2669">
        <ele>1.9</ele>
        <time>2020-06-15T10:02:06Z</time>
      </trkpt>
      <trkpt lat="49.69381" lon="-1.2669">
        <ele>1.9</ele>
        <time>2020-06-15T10:02:07Z</time>
      </trkpt>
      <trkpt lat="49.69378" lon="-1.2669">
        <ele>1.8</ele>
        <time>2020-06-15T10:02:08Z</time>
      </trkpt>
      <trkpt lat="49.69374" lon="-1.2669">
        <ele>1.8</ele>
        <time>2020-06-15T10:02:09Z</time>
      </trkpt>
      <trkpt lat="49.6937" lon="-1.26691">
        <ele>1.8</ele>
        <time>2020-06-15T10:02:10Z</time>
      </trkpt>
      <trkpt lat="49.69366" lon="-1.26691">
        <ele>1.8</ele>
        <time>2020-06-15T10:02:11Z</time>
      </trkpt>
      <trkpt lat="49.69362" lon="-1.26691">
        <ele>1.7</ele>
        <time>2020-06-15T10:02:12Z</time>
      </trkpt>
      <trkpt lat="49.69358" lon="-1.26692">
        <ele>1.7</ele>
        <time>2020-06-15T10:02:13Z</time>
      </trkpt>
      <trkpt lat="49.69355" lon="-1.26693">
        <ele>1.7</ele>
        <time>2020-06-15T10:02:14Z</time>
      </trkpt>
      <trkpt lat="49.69352" lon="-1.26695">
        <ele>1.7</ele>
        <time>2020-06-15T10:02:15Z</time>
      </trkpt>
      <trkpt lat="49.69351" lon="-1.26696">
        <ele>1.8</ele>
        <time>2020-06-15T10:02:16Z</time>
      </trkpt>
      <trkpt lat="49.6935" lon="-1.26697">
        <ele>1.8</ele>
        <time>2020-06-15T10:02:17Z</time>
      </trkpt>
      <trkpt lat="49.6935" lon="-1.26697">
        <ele>1.8</ele>
        <time>2020-06-15T10:02:18Z</time>
      </trkpt>
      <trkpt lat="49.6935" lon="-1.26696">
        <ele>1.8</ele>
        <time>2020-06-15T10:02:19Z</time>
      </trkpt>
      <trkpt lat="49.6935" lon="-1.26696">
        <ele>1.8</ele>
        <time>2020-06-15T10:02:20Z</time>
      </trkpt>
      <trkpt lat="49.6935" lon="-1.26696">
        <ele>1.8</ele>
        <time>2020-06-15T10:02:21Z</time>
      </trkpt>
      <trkpt lat="49.6935" lon="-1.26696">
        <ele>1.8</ele>
        <time>2020-06-15T10:02:22Z</time>
      </trkpt>
      <trkpt lat="49.6935" lon="-1.26695">
        <ele>1.8</ele>
        <time>2020-06-15T10:02:23Z</time>
      </trkpt>
      <trkpt lat="49.69349" lon="-1.26695">
        <ele>1.8</ele>
        <time>2020-06-15T10:02:24Z</time>
      </trkpt>
      <trkpt lat="49.69349" lon="-1.26695">
        <ele>1.8</ele>
        <time>2020-06-15T10:02:25Z</time>
      </trkpt>
      <trkpt lat="49.69349" lon="-1.26695">
        <ele>1.8</ele>
        <time>2020-06-15T10:02:26Z</time>
      </trkpt>
      <trkpt lat="49.69349" lon="-1.26694">
        <ele>1.8</ele>
        <time>2020-06-15T10:02:27Z</time>
      </trkpt>
      <trkpt lat="49.69349" lon="-1.26694">
        <ele>1.8</ele>
        <time>2020-06-15T10:02:28Z</time>
      </trkpt>
      <trkpt lat="49.69349" lon="-1.26694">
        <ele>1.8</ele>
        <time>2020-06-15T10:02:29Z</time>
      </trkpt>
      <trkpt lat="49.69348" lon="-1.26694">
        <ele>1.8</ele>
        <time>2020-06-15T10:02:49Z</time>
      </trkpt>
      <trkpt lat="49.69348" lon="-1.26694">
        <ele>1.8</ele>
        <time>2020-06-15T10:02:50Z</time>
      </trkpt>
      <trkpt lat="49.69348" lon="-1.26693">
        <ele>1.8</ele>
        <time>2020-06-15T10:02:51Z</time>
      </trkpt>
      <trkpt lat="49.69348" lon="-1.26693">
        <ele>1.8</ele>
        <time>2020-06-15T10:02:52Z</time>
      </trkpt>
      <trkpt lat="49.69348" lon="-1.26693">
        <ele>1.8</ele>
        <time>2020-06-15T10:02:53Z</time>
      </trkpt>
      <trkpt lat="49.69348" lon="-1.26693">
        <ele>1.8</ele>
        <time>2020-06-15T10:02:54Z</time>
      </trkpt>
      <trkpt lat="49.69347" lon="-1.26692">
        <ele>1.8</ele>
        <time>2020-06-15T10:02:55Z</time>
      </trkpt>
      <trkpt lat="49.69347" lon="-1.26692">
        <ele>1.8</ele>
        <time>2020-06-15T10:02:56Z</time>
      </trkpt>
      <trkpt lat="49.69347" lon="-1.26692">
        <ele>1.8</ele>
        <time>2020-06-15T10:02:57Z</time>
      </trkpt>
      <trkpt lat="49.69347" lon="-1.26692">
        <ele>1.8</ele>
        <time>2020-06-15T10:02:58Z</time>
      </trkpt>
      <trkpt lat="49.69347" lon="-1.26692">
        <ele>1.8</ele>
        <time>2020-06-15T10:02:59Z</time>
      </trkpt>
      <trkpt lat="49.69347" lon="-1.26691">
        <ele>1.8</ele>
        <time>2020-06-15T10:03:00Z</time>
      </trkpt>
      <trkpt lat="49.69345" lon="-1.26689">
        <ele>1.8</ele>
        <time>2020-06-15T10:03:01Z</time>
      </trkpt>
      <trkpt lat="49.69345" lon="-1.26688">
        <ele>1.8</ele>
        <time>2020-06-15T10:03:02Z</time>
      </trkpt>
      <trkpt lat="49.69344" lon="-1.26686">
        <ele>1.8</ele>
        <time>2020-06-15T10:03:03Z</time>
      </trkpt>
      <trkpt lat="49.69344" lon="-1.26685">
        <ele>1.8</ele>
        <time>2020-06-15T10:03:04Z</time>
      </trkpt>
      <trkpt lat="49.69344" lon="-1.26683">
        <ele>1.8</ele>
        <time>2020-06-15T10:03:05Z</time>
      </trkpt>
      <trkpt lat="49.69344" lon="-1.26681">
        <ele>1.8</ele>
        <time>2020-06-15T10:03:06Z</time>
      </trkpt>
      <trkpt lat="49.69343" lon="-1.26679">
        <ele>1.8</ele>
        <time>2020-06-15T10:03:07Z</time>
      </trkpt>
      <trkpt lat="49.69344" lon="-1.26677">
        <ele>1.8</ele>
        <time>2020-06-15T10:03:08Z</time>
      </trkpt>
      <trkpt lat="49.69344" lon="-1.26675">
        <ele>1.8</ele>
        <time>2020-06-15T10:03:09Z</time>
      </trkpt>
      <trkpt lat="49.69344" lon="-1.26673">
        <ele>1.8</ele>
        <time>2020-06-15T10:03:10Z</time>
      </trkpt>
      <trkpt lat="49.69344" lon="-1.26671">
        <ele>1.8</ele>
        <time>2020-06-15T10:03:11Z</time>
      </trkpt>
      <trkpt lat="49.69344" lon="-1.26669">
        <ele>1.8</ele>
        <time>2020-06-15T10:03:12Z</time>
      </trkpt>
      <trkpt lat="49.69345" lon="-1.26667">
        <ele>1.8</ele>
        <time>2020-06-15T10:03:13Z</time>
      </trkpt>
      <trkpt lat="49.69344" lon="-1.26666">
        <ele>1.8</ele>
        <time>2020-06-15T10:03:14Z</time>
      </trkpt>
      <trkpt lat="49.69344" lon="-1.26664">
        <ele>1.8</ele>
        <time>2020-06-15T10:03:15Z</time>
      </trkpt>
      <trkpt lat="49.69344" lon="-1.26663">
        <ele>1.8</ele>
        <time>2020-06-15T10:03:16Z</time>
      </trkpt>
      <trkpt lat="49.69344" lon="-1.26662">
        <ele>1.8</ele>
        <time>2020-06-15T10:03:17Z</time>
      </trkpt>
      <trkpt lat="49.69344" lon="-1.26662">
        <ele>1.8</ele>
        <time>2020-06-15T10:03:18Z</time>
      </trkpt>
      <trkpt lat="49.69344" lon="-1.26662">
        <ele>1.8</ele>
        <time>2020-06-15T10:03:19Z</time>
      </trkpt>
      <trkpt lat="49.69344" lon="-1.26662">
        <ele>1.8</ele>
        <time>2020-06-15T10:03:20Z</time>
      </trkpt>
      <trkpt lat="49.69344" lon="-1.26662">
        <ele>1.8</ele>
        <time>2020-06-15T10:03:21Z</time>
      </trkpt>
      <trkpt lat="49.69344" lon="-1.26662">
        <ele>1.8</ele>
        <time>2020-06-15T10:03:22Z</time>
      </trkpt>
      <trkpt lat="49.69344" lon="-1.26662">
        <ele>1.8</ele>
        <time>2020-06-15T10:03:23Z</time>
      </trkpt>
      <trkpt lat="49.69344" lon="-1.26662">
        <ele>1.8</ele>
        <time>2020-06-15T10:03:24Z</time>
      </trkpt>
      <trkpt lat="49.69344" lon="-1.26662">
        <ele>1.8</ele>
        <time>2020-06-15T10:03:25Z</time>
      </trkpt>
      <trkpt lat="49.69344" lon="-1.26661">
        <ele>1.8</ele>
        <time>2020-06-15T10:03:26Z</time>
      </trkpt>
      <trkpt lat="49.69352" lon="-1.26663">
        <ele>1.8</ele>
        <time>2020-06-15T10:04:26Z</time>
      </trkpt>
      <trkpt lat="49.69353" lon="-1.26665">
        <ele>1.8</ele>
        <time>2020-06-15T10:04:27Z</time>
      </trkpt>
      <trkpt lat="49.69353" lon="-1.26668">
        <ele>1.8</ele>
        <time>2020-06-15T10:04:28Z</time>
      </trkpt>
      <trkpt lat="49.69353" lon="-1.2667">
        <ele>1.8</ele>
        <time>2020-06-15T10:04:29Z</time>
      </trkpt>
      <trkpt lat="49.69353" lon="-1.26673">
        <ele>1.8</ele>
        <time>2020-06-15T10:04:30Z</time>
      </trkpt>
      <trkpt lat="49.69352" lon="-1.26675">
        <ele>1.8</ele>
        <time>2020-06-15T10:04:31Z</time>
      </trkpt>
      <trkpt lat="49.69352" lon="-1.26677">
        <ele>1.7</ele>
        <time>2020-06-15T10:04:32Z</time>
      </trkpt>
      <trkpt lat="49.69351" lon="-1.2668">
        <ele>1.7</ele>
        <time>2020-06-15T10:04:33Z</time>
      </trkpt>
      <trkpt lat="49.69351" lon="-1.26683">
        <ele>1.7</ele>
        <time>2020-06-15T10:04:34Z</time>
      </trkpt>
      <trkpt lat="49.69351" lon="-1.26684">
        <ele>1.7</ele>
        <time>2020-06-15T10:04:35Z</time>
      </trkpt>
      <trkpt lat="49.69352" lon="-1.26687">
        <ele>1.7</ele>
        <time>2020-06-15T10:04:36Z</time>
      </trkpt>
      <trkpt lat="49.69352" lon="-1.26689">
        <ele>1.7</ele>
        <time>2020-06-15T10:04:37Z</time>
      </trkpt>
      <trkpt lat="49.69352" lon="-1.2669">
        <ele>1.7</ele>
        <time>2020-06-15T10:04:38Z</time>
      </trkpt>
      <trkpt lat="49.69352" lon="-1.26693">
        <ele>1.7</ele>
        <time>2020-06-15T10:04:39Z</time>
      </trkpt>
      <trkpt lat="49.69352" lon="-1.26695">
        <ele>1.7</ele>
        <time>2020-06-15T10:04:40Z</time>
      </trkpt>
      <trkpt lat="49.69352" lon="-1.26696">
        <ele>1.7</ele>
        <time>2020-06-15T10:04:41Z</time>
      </trkpt>
      <trkpt lat="49.69351" lon="-1.26697">
        <ele>1.7</ele>
        <time>2020-06-15T10:04:42Z</time>
      </trkpt>
      <trkpt lat="49.69351" lon="-1.26697">
        <ele>1.7</ele>
        <time>2020-06-15T10:04:43Z</time>
      </trkpt>
      <trkpt lat="49.69351" lon="-1.26697">
        <ele>1.7</ele>
        <time>2020-06-15T10:04:44Z</time>
      </trkpt>
      <trkpt lat="49.69351" lon="-1.26697">
        <ele>1.7</ele>
        <time>2020-06-15T10:04:45Z</time>
      </trkpt>
      <trkpt lat="49.69351" lon="-1.26697">
        <ele>1.7</ele>
        <time>2020-06-15T10:04:46Z</time>
      </trkpt>
      <trkpt lat="49.69351" lon="-1.26697">
        <ele>1.7</ele>
        <time>2020-06-15T10:04:47Z</time>
      </trkpt>
      <trkpt lat="49.6935" lon="-1.26698">
        <ele>1.7</ele>
        <time>2020-06-15T10:04:48Z</time>
      </trkpt>
      <trkpt lat="49.6935" lon="-1.26698">
        <ele>1.7</ele>
        <time>2020-06-15T10:04:49Z</time>
      </trkpt>
      <trkpt lat="49.6935" lon="-1.26697">
        <ele>1.7</ele>
        <time>2020-06-15T10:04:50Z</time>
      </trkpt>
      <trkpt lat="49.6935" lon="-1.26697">
        <ele>1.7</ele>
        <time>2020-06-15T10:04:51Z</time>
      </trkpt>
      <trkpt lat="49.6935" lon="-1.26697">
        <ele>1.7</ele>
        <time>2020-06-15T10:04:52Z</time>
      </trkpt>
      <trkpt lat="49.6935" lon="-1.26698">
        <ele>1.7</ele>
        <time>2020-06-15T10:04:53Z</time>
      </trkpt>
      <trkpt lat="49.6935" lon="-1.26698">
        <ele>1.7</ele>
        <time>2020-06-15T10:04:54Z</time>
      </trkpt>
      <trkpt lat="49.6935" lon="-1.26698">
        <ele>1.7</ele>
        <time>2020-06-15T10:04:55Z</time>
      </trkpt>
      <trkpt lat="49.6935" lon="-1.26698">
        <ele>1.7</ele>
        <time>2020-06-15T10:04:56Z</time>
      </trkpt>
      <trkpt lat="49.6935" lon="-1.26698">
        <ele>1.7</ele>
        <time>2020-06-15T10:04:57Z</time>
      </trkpt>
      <trkpt lat="49.6935" lon="-1.26698">
        <ele>1.7</ele>
        <time>2020-06-15T10:04:58Z</time>
      </trkpt>
      <trkpt lat="49.6935" lon="-1.26698">
        <ele>1.7</ele>
        <time>2020-06-15T10:04:59Z</time>
      </trkpt>
      <trkpt lat="49.69349" lon="-1.26689">
        <ele>1.8</ele>
        <time>2020-06-15T10:06:04Z</time>
      </trkpt>
      <trkpt lat="49.69349" lon="-1.26687">
        <ele>1.8</ele>
        <time>2020-06-15T10:06:05Z</time>
      </trkpt>
      <trkpt lat="49.6935" lon="-1.26684">
        <ele>1.8</ele>
        <time>2020-06-15T10:06:06Z</time>
      </trkpt>
      <trkpt lat="49.6935" lon="-1.26684">
        <ele>1.8</ele>
        <time>2020-06-15T10:06:07Z</time>
      </trkpt>
      <trkpt lat="49.69351" lon="-1.26683">
        <ele>1.8</ele>
        <time>2020-06-15T10:06:08Z</time>
      </trkpt>
      <trkpt lat="49.69351" lon="-1.26685">
        <ele>1.8</ele>
        <time>2020-06-15T10:06:09Z</time>
      </trkpt>
      <trkpt lat="49.69351" lon="-1.26684">
        <ele>1.8</ele>
        <time>2020-06-15T10:06:10Z</time>
      </trkpt>
      <trkpt lat="49.69352" lon="-1.26686">
        <ele>1.8</ele>
        <time>2020-06-15T10:06:11Z</time>
      </trkpt>
      <trkpt lat="49.69353" lon="-1.26687">
        <ele>1.8</ele>
        <time>2020-06-15T10:06:12Z</time>
      </trkpt>
      <trkpt lat="49.69355" lon="-1.26687">
        <ele>1.8</ele>
        <time>2020-06-15T10:06:13Z</time>
      </trkpt>
      <trkpt lat="49.69356" lon="-1.26687">
        <ele>1.8</ele>
        <time>2020-06-15T10:06:14Z</time>
      </trkpt>
      <trkpt lat="49.69357" lon="-1.26687">
        <ele>1.8</ele>
        <time>2020-06-15T10:06:15Z</time>
      </trkpt>
      <trkpt lat="49.6936" lon="-1.26687">
        <ele>1.9</ele>
        <time>2020-06-15T10:06:16Z</time>
      </trkpt>
      <trkpt lat="49.69361" lon="-1.26687">
        <ele>1.9</ele>
        <time>2020-06-15T10:06:17Z</time>
      </trkpt>
      <trkpt lat="49.69363" lon="-1.26686">
        <ele>1.9</ele>
        <time>2020-06-15T10:06:18Z</time>
      </trkpt>
      <trkpt lat="49.69364" lon="-1.26686">
        <ele>1.9</ele>
        <time>2020-06-15T10:06:19Z</time>
      </trkpt>
      <trkpt lat="49.69365" lon="-1.26685">
        <ele>1.9</ele>
        <time>2020-06-15T10:06:20Z</time>
      </trkpt>
      <trkpt lat="49.69368" lon="-1.26684">
        <ele>1.9</ele>
        <time>2020-06-15T10:06:21Z</time>
      </trkpt>
      <trkpt lat="49.6937" lon="-1.26684">
        <ele>1.9</ele>
        <time>2020-06-15T10:06:22Z</time>
      </trkpt>
      <trkpt lat="49.69373" lon="-1.26682">
        <ele>1.9</ele>
        <time>2020-06-15T10:06:23Z</time>
      </trkpt>
      <trkpt lat="49.69375" lon="-1.26682">
        <ele>2</ele>
        <time>2020-06-15T10:06:24Z</time>
      </trkpt>
      <trkpt lat="49.69378" lon="-1.26683">
        <ele>2</ele>
        <time>2020-06-15T10:06:25Z</time>
      </trkpt>
      <trkpt lat="49.69381" lon="-1.26683">
        <ele>2</ele>
        <time>2020-06-15T10:06:26Z</time>
      </trkpt>
      <trkpt lat="49.69384" lon="-1.26683">
        <ele>2</ele>
        <time>2020-06-15T10:06:27Z</time>
      </trkpt>
      <trkpt lat="49.69388" lon="-1.26683">
        <ele>2</ele>
        <time>2020-06-15T10:06:28Z</time>
      </trkpt>
      <trkpt lat="49.69389" lon="-1.26683">
        <ele>2.1</ele>
        <time>2020-06-15T10:06:29Z</time>
      </trkpt>
      <trkpt lat="49.69392" lon="-1.26684">
        <ele>2.1</ele>
        <time>2020-06-15T10:06:30Z</time>
      </trkpt>
      <trkpt lat="49.69397" lon="-1.26686">
        <ele>2.1</ele>
        <time>2020-06-15T10:06:31Z</time>
      </trkpt>
      <trkpt lat="49.694" lon="-1.26689">
        <ele>2.1</ele>
        <time>2020-06-15T10:06:32Z</time>
      </trkpt>
      <trkpt lat="49.69404" lon="-1.26692">
        <ele>2.2</ele>
        <time>2020-06-15T10:06:33Z</time>
      </trkpt>
      <trkpt lat="49.69406" lon="-1.26695">
        <ele>2.2</ele>
        <time>2020-06-15T10:06:34Z</time>
      </trkpt>
      <trkpt lat="49.69409" lon="-1.26699">
        <ele>2.2</ele>
        <time>2020-06-15T10:06:35Z</time>
      </trkpt>
      <trkpt lat="49.69412" lon="-1.26702">
        <ele>2.2</ele>
        <time>2020-06-15T10:06:36Z</time>
      </trkpt>
      <trkpt lat="49.69414" lon="-1.26706">
        <ele>2.2</ele>
        <time>2020-06-15T10:06:37Z</time>
      </trkpt>
      <trkpt lat="49.69416" lon="-1.26709">
        <ele>2.2</ele>
        <time>2020-06-15T10:06:38Z</time>
      </trkpt>
      <trkpt lat="49.69419" lon="-1.26713">
        <ele>2.2</ele>
        <time>2020-06-15T10:06:39Z</time>
      </trkpt>
      <trkpt lat="49.69419" lon="-1.26714">
        <ele>2.2</ele>
        <time>2020-06-15T10:06:40Z</time>
      </trkpt>
      <trkpt lat="49.69422" lon="-1.26716">
        <ele>2.2</ele>
        <time>2020-06-15T10:06:41Z</time>
      </trkpt>
      <trkpt lat="49.69422" lon="-1.26717">
        <ele>2.2</ele>
        <time>2020-06-15T10:06:42Z</time>
      </trkpt>
      <trkpt lat="49.69426" lon="-1.26719">
        <ele>2.3</ele>
        <time>2020-06-15T10:06:43Z</time>
      </trkpt>
      <trkpt lat="49.69427" lon="-1.2672">
        <ele>2.3</ele>
        <time>2020-06-15T10:06:44Z</time>
      </trkpt>
      <trkpt lat="49.69429" lon="-1.26721">
        <ele>2.3</ele>
        <time>2020-06-15T10:06:45Z</time>
      </trkpt>
      <trkpt lat="49.69433" lon="-1.26722">
        <ele>2.3</ele>
        <time>2020-06-15T10:06:46Z</time>
      </trkpt>
      <trkpt lat="49.69435" lon="-1.26723">
        <ele>2.3</ele>
        <time>2020-06-15T10:06:47Z</time>
      </trkpt>
      <trkpt lat="49.69438" lon="-1.26725">
        <ele>2.3</ele>
        <time>2020-06-15T10:06:48Z</time>
      </trkpt>
      <trkpt lat="49.69442" lon="-1.26727">
        <ele>2.4</ele>
        <time>2020-06-15T10:06:49Z</time>
      </trkpt>
      <trkpt lat="49.69444" lon="-1.26729">
        <ele>2.5</ele>
        <time>2020-06-15T10:06:50Z</time>
      </trkpt>
      <trkpt lat="49.69448" lon="-1.26732">
        <ele>2.5</ele>
        <time>2020-06-15T10:06:51Z</time>
      </trkpt>
      <trkpt lat="49.69449" lon="-1.26733">
        <ele>2.5</ele>
        <time>2020-06-15T10:06:52Z</time>
      </trkpt>
      <trkpt lat="49.69453" lon="-1.26736">
        <ele>2.5</ele>
        <time>2020-06-15T10:06:53Z</time>
      </trkpt>
      <trkpt lat="49.69454" lon="-1.26737">
        <ele>2.5</ele>
        <time>2020-06-15T10:06:54Z</time>
      </trkpt>
      <trkpt lat="49.69457" lon="-1.2674">
        <ele>2.5</ele>
        <time>2020-06-15T10:06:55Z</time>
      </trkpt>
      <trkpt lat="49.69458" lon="-1.26741">
        <ele>2.5</ele>
        <time>2020-06-15T10:06:56Z</time>
      </trkpt>
      <trkpt lat="49.69461" lon="-1.26743">
        <ele>2.6</ele>
        <time>2020-06-15T10:06:57Z</time>
      </trkpt>
      <trkpt lat="49.69462" lon="-1.26743">
        <ele>2.6</ele>
        <time>2020-06-15T10:06:58Z</time>
      </trkpt>
      <trkpt lat="49.69464" lon="-1.26747">
        <ele>2.6</ele>
        <time>2020-06-15T10:06:59Z</time>
      </trkpt>
      <trkpt lat="49.69465" lon="-1.26749">
        <ele>2.6</ele>
        <time>2020-06-15T10:07:00Z</time>
      </trkpt>
      <trkpt lat="49.69466" lon="-1.26752">
        <ele>2.6</ele>
        <time>2020-06-15T10:07:01Z</time>
      </trkpt>
      <trkpt lat="49.69468" lon="-1.26757">
        <ele>2.6</ele>
        <time>2020-06-15T10:07:02Z</time>
      </trkpt>
      <trkpt lat="49.69468" lon="-1.26763">
        <ele>2.7</ele>
        <time>2020-06-15T10:07:03Z</time>
      </trkpt>
      <trkpt lat="49.69468" lon="-1.26766">
        <ele>2.6</ele>
        <time>2020-06-15T10:07:04Z</time>
      </trkpt>
      <trkpt lat="49.69468" lon="-1.26771">
        <ele>2.6</ele>
        <time>2020-06-15T10:07:05Z</time>
      </trkpt>
      <trkpt lat="49.69468" lon="-1.26778">
        <ele>2.5</ele>
        <time>2020-06-15T10:07:06Z</time>
      </trkpt>
      <trkpt lat="49.69469" lon="-1.26783">
        <ele>2.5</ele>
        <time>2020-06-15T10:07:07Z</time>
      </trkpt>
      <trkpt lat="49.69469" lon="-1.26789">
        <ele>2.4</ele>
        <time>2020-06-15T10:07:08Z</time>
      </trkpt>
      <trkpt lat="49.69471" lon="-1.26794">
        <ele>2.4</ele>
        <time>2020-06-15T10:07:09Z</time>
      </trkpt>
      <trkpt lat="49.69473" lon="-1.26799">
        <ele>2.4</ele>
        <time>2020-06-15T10:07:10Z</time>
      </trkpt>
      <trkpt lat="49.69475" lon="-1.26803">
        <ele>2.4</ele>
        <time>2020-06-15T10:07:11Z</time>
      </trkpt>
      <trkpt lat="49.69477" lon="-1.26808">
        <ele>2.4</ele>
        <time>2020-06-15T10:07:12Z</time>
      </trkpt>
      <trkpt lat="49.69479" lon="-1.26812">
        <ele>2.4</ele>
        <time>2020-06-15T10:07:13Z</time>
      </trkpt>
      <trkpt lat="49.69481" lon="-1.26817">
        <ele>2.4</ele>
        <time>2020-06-15T10:07:14Z</time>
      </trkpt>
      <trkpt lat="49.69483" lon="-1.26822">
        <ele>2.4</ele>
        <time>2020-06-15T10:07:15Z</time>
      </trkpt>
      <trkpt lat="49.69485" lon="-1.26827">
        <ele>2.4</ele>
        <time>2020-06-15T10:07:16Z</time>
      </trkpt>
      <trkpt lat="49.69487" lon="-1.26833">
        <ele>2.4</ele>
        <time>2020-06-15T10:07:17Z</time>
      </trkpt>
      <trkpt lat="49.6949" lon="-1.26839">
        <ele>2.4</ele>
        <time>2020-06-15T10:07:18Z</time>
      </trkpt>
      <trkpt lat="49.69492" lon="-1.26845">
        <ele>2.4</ele>
        <time>2020-06-15T10:07:19Z</time>
      </trkpt>
      <trkpt lat="49.69494" lon="-1.26851">
        <ele>2.3</ele>
        <time>2020-06-15T10:07:20Z</time>
      </trkpt>
      <trkpt lat="49.69496" lon="-1.26856">
        <ele>2.3</ele>
        <time>2020-06-15T10:07:21Z</time>
      </trkpt>
      <trkpt lat="49.69498" lon="-1.26862">
        <ele>2.2</ele>
        <time>2020-06-15T10:07:22Z</time>
      </trkpt>
      <trkpt lat="49.69499" lon="-1.26868">
        <ele>2.2</ele>
        <time>2020-06-15T10:07:23Z</time>
      </trkpt>
      <trkpt lat="49.69501" lon="-1.26874">
        <ele>2.2</ele>
        <time>2020-06-15T10:07:24Z</time>
      </trkpt>
      <trkpt lat="49.69503" lon="-1.2688">
        <ele>2.2</ele>
        <time>2020-06-15T10:07:25Z</time>
      </trkpt>
      <trkpt lat="49.69504" lon="-1.26885">
        <ele>2.2</ele>
        <time>2020-06-15T10:07:26Z</time>
      </trkpt>
      <trkpt lat="49.69505" lon="-1.26892">
        <ele>2.3</ele>
        <time>2020-06-15T10:07:27Z</time>
      </trkpt>
      <trkpt lat="49.69507" lon="-1.26898">
        <ele>2.3</ele>
        <time>2020-06-15T10:07:28Z</time>
      </trkpt>
      <trkpt lat="49.69507" lon="-1.26905">
        <ele>2.3</ele>
        <time>2020-06-15T10:07:29Z</time>
      </trkpt>
      <trkpt lat="49.69508" lon="-1.26911">
        <ele>2.3</ele>
        <time>2020-06-15T10:07:30Z</time>
      </trkpt>
      <trkpt lat="49.69508" lon="-1.26917">
        <ele>2.3</ele>
        <time>2020-06-15T10:07:31Z</time>
      </trkpt>
      <trkpt lat="49.69507" lon="-1.26924">
        <ele>2.3</ele>
        <time>2020-06-15T10:07:32Z</time>
      </trkpt>
      <trkpt lat="49.69506" lon="-1.26932">
        <ele>2.3</ele>
        <time>2020-06-15T10:07:33Z</time>
      </trkpt>
      <trkpt lat="49.69506" lon="-1.26939">
        <ele>2.3</ele>
        <time>2020-06-15T10:07:34Z</time>
      </trkpt>
      <trkpt lat="49.69506" lon="-1.26946">
        <ele>2.2</ele>
        <time>2020-06-15T10:07:35Z</time>
      </trkpt>
      <trkpt lat="49.69506" lon="-1.26952">
        <ele>2.2</ele>
        <time>2020-06-15T10:07:36Z</time>
      </trkpt>
      <trkpt lat="49.69506" lon="-1.26959">
        <ele>2.2</ele>
        <time>2020-06-15T10:07:37Z</time>
      </trkpt>
      <trkpt lat="49.69505" lon="-1.26967">
        <ele>2.2</ele>
        <time>2020-06-15T10:07:38Z</time>
      </trkpt>
      <trkpt lat="49.69505" lon="-1.26975">
        <ele>2.1</ele>
        <time>2020-06-15T10:07:39Z</time>
      </trkpt>
      <trkpt lat="49.69505" lon="-1.26984">
        <ele>2.1</ele>
        <time>2020-06-15T10:07:40Z</time>
      </trkpt>
      <trkpt lat="49.69505" lon="-1.26992">
        <ele>2.1</ele>
        <time>2020-06-15T10:07:41Z</time>
      </trkpt>
      <trkpt lat="49.69505" lon="-1.27">
        <ele>2.1</ele>
        <time>2020-06-15T10:07:42Z</time>
      </trkpt>
      <trkpt lat="49.69504" lon="-1.27008">
        <ele>2.1</ele>
        <time>2020-06-15T10:07:43Z</time>
      </trkpt>
      <trkpt lat="49.69504" lon="-1.27017">
        <ele>2</ele>
        <time>2020-06-15T10:07:44Z</time>
      </trkpt>
      <trkpt lat="49.69505" lon="-1.27026">
        <ele>2</ele>
        <time>2020-06-15T10:07:45Z</time>
      </trkpt>
      <trkpt lat="49.69506" lon="-1.27035">
        <ele>2.1</ele>
        <time>2020-06-15T10:07:46Z</time>
      </trkpt>
      <trkpt lat="49.69506" lon="-1.27044">
        <ele>2.1</ele>
        <time>2020-06-15T10:07:47Z</time>
      </trkpt>
      <trkpt lat="49.69507" lon="-1.27053">
        <ele>2.1</ele>
        <time>2020-06-15T10:07:48Z</time>
      </trkpt>
      <trkpt lat="49.69506" lon="-1.27061">
        <ele>2.2</ele>
        <time>2020-06-15T10:07:49Z</time>
      </trkpt>
      <trkpt lat="49.69505" lon="-1.27069">
        <ele>2.2</ele>
        <time>2020-06-15T10:07:50Z</time>
      </trkpt>
      <trkpt lat="49.69504" lon="-1.27077">
        <ele>2.3</ele>
        <time>2020-06-15T10:07:51Z</time>
      </trkpt>
      <trkpt lat="49.69502" lon="-1.27084">
        <ele>2.4</ele>
        <time>2020-06-15T10:07:52Z</time>
      </trkpt>
      <trkpt lat="49.69499" lon="-1.27092">
        <ele>2.5</ele>
        <time>2020-06-15T10:07:53Z</time>
      </trkpt>
      <trkpt lat="49.69496" lon="-1.27098">
        <ele>2.5</ele>
        <time>2020-06-15T10:07:54Z</time>
      </trkpt>
      <trkpt lat="49.69492" lon="-1.27104">
        <ele>2.6</ele>
        <time>2020-06-15T10:07:55Z</time>
      </trkpt>
      <trkpt lat="49.69488" lon="-1.2711">
        <ele>2.6</ele>
        <time>2020-06-15T10:07:56Z</time>
      </trkpt>
      <trkpt lat="49.69484" lon="-1.27115">
        <ele>2.6</ele>
        <time>2020-06-15T10:07:57Z</time>
      </trkpt>
      <trkpt lat="49.69481" lon="-1.27121">
        <ele>2.6</ele>
        <time>2020-06-15T10:07:58Z</time>
      </trkpt>
      <trkpt lat="49.69478" lon="-1.27128">
        <ele>2.5</ele>
        <time>2020-06-15T10:07:59Z</time>
      </trkpt>
      <trkpt lat="49.69475" lon="-1.27134">
        <ele>2.4</ele>
        <time>2020-06-15T10:08:00Z</time>
      </trkpt>
      <trkpt lat="49.69472" lon="-1.2714">
        <ele>2.4</ele>
        <time>2020-06-15T10:08:01Z</time>
      </trkpt>
      <trkpt lat="49.69469" lon="-1.27146">
        <ele>2.4</ele>
        <time>2020-06-15T10:08:02Z</time>
      </trkpt>
      <trkpt lat="49.69467" lon="-1.27153">
        <ele>2.4</ele>
        <time>2020-06-15T10:08:03Z</time>
      </trkpt>
      <trkpt lat="49.69464" lon="-1.27159">
        <ele>2.4</ele>
        <time>2020-06-15T10:08:04Z</time>
      </trkpt>
      <trkpt lat="49.69461" lon="-1.27165">
        <ele>2.4</ele>
        <time>2020-06-15T10:08:05Z</time>
      </trkpt>
      <trkpt lat="49.69457" lon="-1.27171">
        <ele>2.4</ele>
        <time>2020-06-15T10:08:06Z</time>
      </trkpt>
      <trkpt lat="49.69453" lon="-1.27177">
        <ele>2.4</ele>
        <time>2020-06-15T10:08:07Z</time>
      </trkpt>
      <trkpt lat="49.6945" lon="-1.27183">
        <ele>2.3</ele>
        <time>2020-06-15T10:08:08Z</time>
      </trkpt>
      <trkpt lat="49.69445" lon="-1.27187">
        <ele>2.3</ele>
        <time>2020-06-15T10:08:09Z</time>
      </trkpt>
      <trkpt lat="49.69441" lon="-1.27192">
        <ele>2.2</ele>
        <time>2020-06-15T10:08:10Z</time>
      </trkpt>
      <trkpt lat="49.69436" lon="-1.27196">
        <ele>2.2</ele>
        <time>2020-06-15T10:08:11Z</time>
      </trkpt>
      <trkpt lat="49.69432" lon="-1.27202">
        <ele>2.1</ele>
        <time>2020-06-15T10:08:12Z</time>
      </trkpt>
      <trkpt lat="49.69427" lon="-1.27206">
        <ele>2</ele>
        <time>2020-06-15T10:08:13Z</time>
      </trkpt>
      <trkpt lat="49.69422" lon="-1.27209">
        <ele>2</ele>
        <time>2020-06-15T10:08:14Z</time>
      </trkpt>
      <trkpt lat="49.69417" lon="-1.27214">
        <ele>2</ele>
        <time>2020-06-15T10:08:15Z</time>
      </trkpt>
      <trkpt lat="49.69412" lon="-1.27218">
        <ele>2</ele>
        <time>2020-06-15T10:08:16Z</time>
      </trkpt>
      <trkpt lat="49.69406" lon="-1.27222">
        <ele>2</ele>
        <time>2020-06-15T10:08:17Z</time>
      </trkpt>
      <trkpt lat="49.69402" lon="-1.27226">
        <ele>2</ele>
        <time>2020-06-15T10:08:18Z</time>
      </trkpt>
      <trkpt lat="49.69397" lon="-1.27229">
        <ele>2</ele>
        <time>2020-06-15T10:08:19Z</time>
      </trkpt>
      <trkpt lat="49.69392" lon="-1.27235">
        <ele>1.9</ele>
        <time>2020-06-15T10:08:20Z</time>
      </trkpt>
      <trkpt lat="49.69388" lon="-1.2724">
        <ele>1.9</ele>
        <time>2020-06-15T10:08:21Z</time>
      </trkpt>
      <trkpt lat="49.69384" lon="-1.27245">
        <ele>1.9</ele>
        <time>2020-06-15T10:08:22Z</time>
      </trkpt>
      <trkpt lat="49.69381" lon="-1.27252">
        <ele>1.9</ele>
        <time>2020-06-15T10:08:23Z</time>
      </trkpt>
      <trkpt lat="49.69378" lon="-1.2726">
        <ele>1.9</ele>
        <time>2020-06-15T10:08:24Z</time>
      </trkpt>
      <trkpt lat="49.69376" lon="-1.27267">
        <ele>1.9</ele>
        <time>2020-06-15T10:08:25Z</time>
      </trkpt>
      <trkpt lat="49.69373" lon="-1.27275">
        <ele>1.9</ele>
        <time>2020-06-15T10:08:26Z</time>
      </trkpt>
      <trkpt lat="49.6937" lon="-1.27281">
        <ele>1.8</ele>
        <time>2020-06-15T10:08:27Z</time>
      </trkpt>
      <trkpt lat="49.69368" lon="-1.27288">
        <ele>1.8</ele>
        <time>2020-06-15T10:08:28Z</time>
      </trkpt>
      <trkpt lat="49.69367" lon="-1.27296">
        <ele>1.8</ele>
        <time>2020-06-15T10:08:29Z</time>
      </trkpt>
      <trkpt lat="49.69365" lon="-1.27305">
        <ele>1.7</ele>
        <time>2020-06-15T10:08:30Z</time>
      </trkpt>
      <trkpt lat="49.69364" lon="-1.27314">
        <ele>1.7</ele>
        <time>2020-06-15T10:08:31Z</time>
      </trkpt>
      <trkpt lat="49.69364" lon="-1.27323">
        <ele>1.6</ele>
        <time>2020-06-15T10:08:32Z</time>
      </trkpt>
      <trkpt lat="49.69364" lon="-1.27333">
        <ele>1.6</ele>
        <time>2020-06-15T10:08:33Z</time>
      </trkpt>
      <trkpt lat="49.69364" lon="-1.27342">
        <ele>1.5</ele>
        <time>2020-06-15T10:08:34Z</time>
      </trkpt>
      <trkpt lat="49.69364" lon="-1.2735">
        <ele>1.5</ele>
        <time>2020-06-15T10:08:35Z</time>
      </trkpt>
      <trkpt lat="49.69364" lon="-1.27359">
        <ele>1.4</ele>
        <time>2020-06-15T10:08:36Z</time>
      </trkpt>
      <trkpt lat="49.69364" lon="-1.27368">
        <ele>1.4</ele>
        <time>2020-06-15T10:08:37Z</time>
      </trkpt>
      <trkpt lat="49.69364" lon="-1.27378">
        <ele>1.3</ele>
        <time>2020-06-15T10:08:38Z</time>
      </trkpt>
      <trkpt lat="49.69365" lon="-1.27388">
        <ele>1.3</ele>
        <time>2020-06-15T10:08:39Z</time>
      </trkpt>
      <trkpt lat="49.69366" lon="-1.27398">
        <ele>1.2</ele>
        <time>2020-06-15T10:08:40Z</time>
      </trkpt>
      <trkpt lat="49.69367" lon="-1.27408">
        <ele>1.2</ele>
        <time>2020-06-15T10:08:41Z</time>
      </trkpt>
      <trkpt lat="49.69368" lon="-1.27417">
        <ele>1.1</ele>
        <time>2020-06-15T10:08:42Z</time>
      </trkpt>
      <trkpt lat="49.69369" lon="-1.27425">
        <ele>1.1</ele>
        <time>2020-06-15T10:08:43Z</time>
      </trkpt>
      <trkpt lat="49.6937" lon="-1.27434">
        <ele>1.1</ele>
        <time>2020-06-15T10:08:44Z</time>
      </trkpt>
      <trkpt lat="49.69372" lon="-1.27443">
        <ele>1.1</ele>
        <time>2020-06-15T10:08:45Z</time>
      </trkpt>
      <trkpt lat="49.69373" lon="-1.27451">
        <ele>1.1</ele>
        <time>2020-06-15T10:08:46Z</time>
      </trkpt>
      <trkpt lat="49.69374" lon="-1.27459">
        <ele>1.1</ele>
        <time>2020-06-15T10:08:47Z</time>
      </trkpt>
      <trkpt lat="49.69376" lon="-1.27468">
        <ele>1.2</ele>
        <time>2020-06-15T10:08:48Z</time>
      </trkpt>
      <trkpt lat="49.69379" lon="-1.27476">
        <ele>1.2</ele>
        <time>2020-06-15T10:08:49Z</time>
      </trkpt>
      <trkpt lat="49.69382" lon="-1.27484">
        <ele>1.2</ele>
        <time>2020-06-15T10:08:50Z</time>
      </trkpt>
      <trkpt lat="49.69385" lon="-1.27492">
        <ele>1.3</ele>
        <time>2020-06-15T10:08:51Z</time>
      </trkpt>
      <trkpt lat="49.69387" lon="-1.27499">
        <ele>1.3</ele>
        <time>2020-06-15T10:08:52Z</time>
      </trkpt>
      <trkpt lat="49.69389" lon="-1.27506">
        <ele>1.3</ele>
        <time>2020-06-15T10:08:53Z</time>
      </trkpt>
      <trkpt lat="49.69392" lon="-1.27514">
        <ele>1.2</ele>
        <time>2020-06-15T10:08:54Z</time>
      </trkpt>
      <trkpt lat="49.69394" lon="-1.27523">
        <ele>1.2</ele>
        <time>2020-06-15T10:08:55Z</time>
      </trkpt>
      <trkpt lat="49.69397" lon="-1.2753">
        <ele>1.2</ele>
        <time>2020-06-15T10:08:56Z</time>
      </trkpt>
      <trkpt lat="49.69399" lon="-1.27538">
        <ele>1.2</ele>
        <time>2020-06-15T10:08:57Z</time>
      </trkpt>
      <trkpt lat="49.69402" lon="-1.27546">
        <ele>1.2</ele>
        <time>2020-06-15T10:08:58Z</time>
      </trkpt>
      <trkpt lat="49.69404" lon="-1.27554">
        <ele>1.2</ele>
        <time>2020-06-15T10:08:59Z</time>
      </trkpt>
      <trkpt lat="49.69407" lon="-1.27563">
        <ele>1.2</ele>
        <time>2020-06-15T10:09:00Z</time>
      </trkpt>
      <trkpt lat="49.6941" lon="-1.27572">
        <ele>1.2</ele>
        <time>2020-06-15T10:09:01Z</time>
      </trkpt>
      <trkpt lat="49.69412" lon="-1.27581">
        <ele>1.2</ele>
        <time>2020-06-15T10:09:02Z</time>
      </trkpt>
      <trkpt lat="49.69413" lon="-1.27592">
        <ele>1.2</ele>
        <time>2020-06-15T10:09:03Z</time>
      </trkpt>
      <trkpt lat="49.69412" lon="-1.27601">
        <ele>1.3</ele>
        <time>2020-06-15T10:09:04Z</time>
      </trkpt>
      <trkpt lat="49.69411" lon="-1.27609">
        <ele>1.3</ele>
        <time>2020-06-15T10:09:05Z</time>
      </trkpt>
      <trkpt lat="49.69408" lon="-1.27619">
        <ele>1.3</ele>
        <time>2020-06-15T10:09:06Z</time>
      </trkpt>
      <trkpt lat="49.69406" lon="-1.27628">
        <ele>1.4</ele>
        <time>2020-06-15T10:09:07Z</time>
      </trkpt>
      <trkpt lat="49.69403" lon="-1.27636">
        <ele>1.4</ele>
        <time>2020-06-15T10:09:08Z</time>
      </trkpt>
      <trkpt lat="49.694" lon="-1.27643">
        <ele>1.4</ele>
        <time>2020-06-15T10:09:09Z</time>
      </trkpt>
      <trkpt lat="49.69395" lon="-1.27649">
        <ele>1.5</ele>
        <time>2020-06-15T10:09:10Z</time>
      </trkpt>
      <trkpt lat="49.69389" lon="-1.27656">
        <ele>1.6</ele>
        <time>2020-06-15T10:09:11Z</time>
      </trkpt>
      <trkpt lat="49.69384" lon="-1.27661">
        <ele>1.6</ele>
        <time>2020-06-15T10:09:12Z</time>
      </trkpt>
      <trkpt lat="49.69378" lon="-1.27666">
        <ele>1.7</ele>
        <time>2020-06-15T10:09:13Z</time>
      </trkpt>
      <trkpt lat="49.69372" lon="-1.27672">
        <ele>1.7</ele>
        <time>2020-06-15T10:09:14Z</time>
      </trkpt>
      <trkpt lat="49.69367" lon="-1.27677">
        <ele>1.8</ele>
        <time>2020-06-15T10:09:15Z</time>
      </trkpt>
      <trkpt lat="49.69363" lon="-1.27682">
        <ele>1.8</ele>
        <time>2020-06-15T10:09:16Z</time>
      </trkpt>
      <trkpt lat="49.69359" lon="-1.27686">
        <ele>1.8</ele>
        <time>2020-06-15T10:09:17Z</time>
      </trkpt>
      <trkpt lat="49.69355" lon="-1.2769">
        <ele>1.8</ele>
        <time>2020-06-15T10:09:18Z</time>
      </trkpt>
      <trkpt lat="49.69349" lon="-1.27696">
        <ele>1.9</ele>
        <time>2020-06-15T10:09:19Z</time>
      </trkpt>
      <trkpt lat="49.69345" lon="-1.277">
        <ele>1.9</ele>
        <time>2020-06-15T10:09:20Z</time>
      </trkpt>
      <trkpt lat="49.6934" lon="-1.27704">
        <ele>1.8</ele>
        <time>2020-06-15T10:09:21Z</time>
      </trkpt>
      <trkpt lat="49.69335" lon="-1.27709">
        <ele>1.8</ele>
        <time>2020-06-15T10:09:22Z</time>
      </trkpt>
      <trkpt lat="49.6933" lon="-1.27713">
        <ele>1.8</ele>
        <time>2020-06-15T10:09:23Z</time>
      </trkpt>
      <trkpt lat="49.69326" lon="-1.27717">
        <ele>1.8</ele>
        <time>2020-06-15T10:09:24Z</time>
      </trkpt>
      <trkpt lat="49.69321" lon="-1.27721">
        <ele>1.8</ele>
        <time>2020-06-15T10:09:25Z</time>
      </trkpt>
      <trkpt lat="49.69316" lon="-1.27724">
        <ele>1.8</ele>
        <time>2020-06-15T10:09:26Z</time>
      </trkpt>
      <trkpt lat="49.69312" lon="-1.27728">
        <ele>1.8</ele>
        <time>2020-06-15T10:09:27Z</time>
      </trkpt>
      <trkpt lat="49.69307" lon="-1.27731">
        <ele>1.8</ele>
        <time>2020-06-15T10:09:28Z</time>
      </trkpt>
      <trkpt lat="49.69302" lon="-1.27734">
        <ele>1.8</ele>
        <time>2020-06-15T10:09:29Z</time>
      </trkpt>
      <trkpt lat="49.69297" lon="-1.27736">
        <ele>1.8</ele>
        <time>2020-06-15T10:09:30Z</time>
      </trkpt>
      <trkpt lat="49.69291" lon="-1.27737">
        <ele>1.8</ele>
        <time>2020-06-15T10:09:31Z</time>
      </trkpt>
      <trkpt lat="49.69285" lon="-1.27738">
        <ele>1.8</ele>
        <time>2020-06-15T10:09:32Z</time>
      </trkpt>
      <trkpt lat="49.69279" lon="-1.2774">
        <ele>1.8</ele>
        <time>2020-06-15T10:09:33Z</time>
      </trkpt>
      <trkpt lat="49.69273" lon="-1.27741">
        <ele>1.8</ele>
        <time>2020-06-15T10:09:34Z</time>
      </trkpt>
      <trkpt lat="49.69267" lon="-1.27743">
        <ele>1.9</ele>
        <time>2020-06-15T10:09:35Z</time>
      </trkpt>
      <trkpt lat="49.69262" lon="-1.27743">
        <ele>1.9</ele>
        <time>2020-06-15T10:09:36Z</time>
      </trkpt>
      <trkpt lat="49.69257" lon="-1.27742">
        <ele>2</ele>
        <time>2020-06-15T10:09:37Z</time>
      </trkpt>
      <trkpt lat="49.69251" lon="-1.27741">
        <ele>2.1</ele>
        <time>2020-06-15T10:09:38Z</time>
      </trkpt>
      <trkpt lat="49.69247" lon="-1.27742">
        <ele>2.1</ele>
        <time>2020-06-15T10:09:39Z</time>
      </trkpt>
      <trkpt lat="49.69242" lon="-1.27742">
        <ele>2.2</ele>
        <time>2020-06-15T10:09:40Z</time>
      </trkpt>
      <trkpt lat="49.69237" lon="-1.27743">
        <ele>2.3</ele>
        <time>2020-06-15T10:09:41Z</time>
      </trkpt>
      <trkpt lat="49.69232" lon="-1.27744">
        <ele>2.4</ele>
        <time>2020-06-15T10:09:42Z</time>
      </trkpt>
      <trkpt lat="49.69227" lon="-1.27747">
        <ele>2.6</ele>
        <time>2020-06-15T10:09:43Z</time>
      </trkpt>
      <trkpt lat="49.69222" lon="-1.27749">
        <ele>2.7</ele>
        <time>2020-06-15T10:09:44Z</time>
      </trkpt>
      <trkpt lat="49.69218" lon="-1.2775">
        <ele>2.8</ele>
        <time>2020-06-15T10:09:45Z</time>
      </trkpt>
      <trkpt lat="49.69214" lon="-1.27752">
        <ele>2.9</ele>
        <time>2020-06-15T10:09:46Z</time>
      </trkpt>
      <trkpt lat="49.6921" lon="-1.27754">
        <ele>3</ele>
        <time>2020-06-15T10:09:47Z</time>
      </trkpt>
      <trkpt lat="49.69205" lon="-1.27757">
        <ele>3.1</ele>
        <time>2020-06-15T10:09:48Z</time>
      </trkpt>
      <trkpt lat="49.69201" lon="-1.2776">
        <ele>3.2</ele>
        <time>2020-06-15T10:09:49Z</time>
      </trkpt>
      <trkpt lat="49.69197" lon="-1.27763">
        <ele>3.3</ele>
        <time>2020-06-15T10:09:50Z</time>
      </trkpt>
      <trkpt lat="49.69193" lon="-1.27765">
        <ele>3.5</ele>
        <time>2020-06-15T10:09:51Z</time>
      </trkpt>
      <trkpt lat="49.69188" lon="-1.27767">
        <ele>3.6</ele>
        <time>2020-06-15T10:09:52Z</time>
      </trkpt>
      <trkpt lat="49.69184" lon="-1.27771">
        <ele>3.7</ele>
        <time>2020-06-15T10:09:53Z</time>
      </trkpt>
      <trkpt lat="49.6918" lon="-1.27772">
        <ele>3.8</ele>
        <time>2020-06-15T10:09:54Z</time>
      </trkpt>
      <trkpt lat="49.69176" lon="-1.27774">
        <ele>3.9</ele>
        <time>2020-06-15T10:09:55Z</time>
      </trkpt>
      <trkpt lat="49.69172" lon="-1.27775">
        <ele>4</ele>
        <time>2020-06-15T10:09:56Z</time>
      </trkpt>
      <trkpt lat="49.69168" lon="-1.27775">
        <ele>4.1</ele>
        <time>2020-06-15T10:09:57Z</time>
      </trkpt>
      <trkpt lat="49.69163" lon="-1.27777">
        <ele>4.2</ele>
        <time>2020-06-15T10:09:58Z</time>
      </trkpt>
      <trkpt lat="49.69159" lon="-1.27777">
        <ele>4.3</ele>
        <time>2020-06-15T10:09:59Z</time>
      </trkpt>
      <trkpt lat="49.69155" lon="-1.27777">
        <ele>4.4</ele>
        <time>2020-06-15T10:10:00Z</time>
      </trkpt>
      <trkpt lat="49.69151" lon="-1.27778">
        <ele>4.5</ele>
        <time>2020-06-15T10:10:01Z</time>
      </trkpt>
      <trkpt lat="49.69146" lon="-1.27777">
        <ele>4.6</ele>
        <time>2020-06-15T10:10:02Z</time>
      </trkpt>
      <trkpt lat="49.69141" lon="-1.27777">
        <ele>4.7</ele>
        <time>2020-06-15T10:10:03Z</time>
      </trkpt>
      <trkpt lat="49.69137" lon="-1.27776">
        <ele>4.8</ele>
        <time>2020-06-15T10:10:04Z</time>
      </trkpt>
      <trkpt lat="49.69132" lon="-1.27776">
        <ele>4.8</ele>
        <time>2020-06-15T10:10:05Z</time>
      </trkpt>
      <trkpt lat="49.69128" lon="-1.27776">
        <ele>4.9</ele>
        <time>2020-06-15T10:10:06Z</time>
      </trkpt>
      <trkpt lat="49.69124" lon="-1.27774">
        <ele>4.9</ele>
        <time>2020-06-15T10:10:07Z</time>
      </trkpt>
      <trkpt lat="49.6912" lon="-1.27776">
        <ele>4.9</ele>
        <time>2020-06-15T10:10:08Z</time>
      </trkpt>
      <trkpt lat="49.69116" lon="-1.27776">
        <ele>5</ele>
        <time>2020-06-15T10:10:09Z</time>
      </trkpt>
      <trkpt lat="49.69112" lon="-1.27776">
        <ele>5</ele>
        <time>2020-06-15T10:10:10Z</time>
      </trkpt>
      <trkpt lat="49.69107" lon="-1.27775">
        <ele>5</ele>
        <time>2020-06-15T10:10:11Z</time>
      </trkpt>
      <trkpt lat="49.69102" lon="-1.27775">
        <ele>5.1</ele>
        <time>2020-06-15T10:10:12Z</time>
      </trkpt>
      <trkpt lat="49.69098" lon="-1.27777">
        <ele>5.1</ele>
        <time>2020-06-15T10:10:13Z</time>
      </trkpt>
      <trkpt lat="49.69093" lon="-1.27777">
        <ele>5.1</ele>
        <time>2020-06-15T10:10:14Z</time>
      </trkpt>
      <trkpt lat="49.69089" lon="-1.27779">
        <ele>5.1</ele>
        <time>2020-06-15T10:10:15Z</time>
      </trkpt>
      <trkpt lat="49.69085" lon="-1.27782">
        <ele>5.1</ele>
        <time>2020-06-15T10:10:16Z</time>
      </trkpt>
      <trkpt lat="49.6908" lon="-1.27785">
        <ele>5.1</ele>
        <time>2020-06-15T10:10:17Z</time>
      </trkpt>
      <trkpt lat="49.69075" lon="-1.27787">
        <ele>5.1</ele>
        <time>2020-06-15T10:10:18Z</time>
      </trkpt>
      <trkpt lat="49.69069" lon="-1.27791">
        <ele>5.1</ele>
        <time>2020-06-15T10:10:19Z</time>
      </trkpt>
      <trkpt lat="49.69064" lon="-1.27793">
        <ele>5</ele>
        <time>2020-06-15T10:10:20Z</time>
      </trkpt>
      <trkpt lat="49.69059" lon="-1.27796">
        <ele>4.9</ele>
        <time>2020-06-15T10:10:21Z</time>
      </trkpt>
      <trkpt lat="49.69054" lon="-1.27799">
        <ele>4.9</ele>
        <time>2020-06-15T10:10:22Z</time>
      </trkpt>
      <trkpt lat="49.6905" lon="-1.27801">
        <ele>4.9</ele>
        <time>2020-06-15T10:10:23Z</time>
      </trkpt>
      <trkpt lat="49.69045" lon="-1.27804">
        <ele>4.9</ele>
        <time>2020-06-15T10:10:24Z</time>
      </trkpt>
      <trkpt lat="49.6904" lon="-1.27808">
        <ele>4.9</ele>
        <time>2020-06-15T10:10:25Z</time>
      </trkpt>
      <trkpt lat="49.69036" lon="-1.27812">
        <ele>4.9</ele>
        <time>2020-06-15T10:10:26Z</time>
      </trkpt>
      <trkpt lat="49.69031" lon="-1.27815">
        <ele>4.9</ele>
        <time>2020-06-15T10:10:27Z</time>
      </trkpt>
      <trkpt lat="49.69026" lon="-1.2782">
        <ele>4.9</ele>
        <time>2020-06-15T10:10:28Z</time>
      </trkpt>
      <trkpt lat="49.69022" lon="-1.27823">
        <ele>5</ele>
        <time>2020-06-15T10:10:29Z</time>
      </trkpt>
      <trkpt lat="49.69017" lon="-1.27826">
        <ele>5</ele>
        <time>2020-06-15T10:10:30Z</time>
      </trkpt>
      <trkpt lat="49.69012" lon="-1.2783">
        <ele>5</ele>
        <time>2020-06-15T10:10:31Z</time>
      </trkpt>
      <trkpt lat="49.69007" lon="-1.27833">
        <ele>5</ele>
        <time>2020-06-15T10:10:32Z</time>
      </trkpt>
      <trkpt lat="49.69003" lon="-1.27836">
        <ele>4.9</ele>
        <time>2020-06-15T10:10:33Z</time>
      </trkpt>
      <trkpt lat="49.68998" lon="-1.27839">
        <ele>4.9</ele>
        <time>2020-06-15T10:10:34Z</time>
      </trkpt>
      <trkpt lat="49.68994" lon="-1.27842">
        <ele>4.9</ele>
        <time>2020-06-15T10:10:35Z</time>
      </trkpt>
      <trkpt lat="49.68989" lon="-1.27845">
        <ele>4.9</ele>
        <time>2020-06-15T10:10:36Z</time>
      </trkpt>
      <trkpt lat="49.68985" lon="-1.27849">
        <ele>4.9</ele>
        <time>2020-06-15T10:10:37Z</time>
      </trkpt>
      <trkpt lat="49.68981" lon="-1.27853">
        <ele>4.9</ele>
        <time>2020-06-15T10:10:38Z</time>
      </trkpt>
      <trkpt lat="49.68977" lon="-1.27856">
        <ele>4.9</ele>
        <time>2020-06-15T10:10:39Z</time>
      </trkpt>
      <trkpt lat="49.68972" lon="-1.2786">
        <ele>4.9</ele>
        <time>2020-06-15T10:10:40Z</time>
      </trkpt>
      <trkpt lat="49.68968" lon="-1.27864">
        <ele>4.9</ele>
        <time>2020-06-15T10:10:41Z</time>
      </trkpt>
      <trkpt lat="49.68964" lon="-1.27868">
        <ele>4.9</ele>
        <time>2020-06-15T10:10:42Z</time>
      </trkpt>
      <trkpt lat="49.6896" lon="-1.27873">
        <ele>4.9</ele>
        <time>2020-06-15T10:10:43Z</time>
      </trkpt>
      <trkpt lat="49.68957" lon="-1.27879">
        <ele>4.9</ele>
        <time>2020-06-15T10:10:44Z</time>
      </trkpt>
      <trkpt lat="49.68953" lon="-1.27885">
        <ele>4.8</ele>
        <time>2020-06-15T10:10:45Z</time>
      </trkpt>
      <trkpt lat="49.68949" lon="-1.27893">
        <ele>4.8</ele>
        <time>2020-06-15T10:10:46Z</time>
      </trkpt>
      <trkpt lat="49.68945" lon="-1.279">
        <ele>4.7</ele>
        <time>2020-06-15T10:10:47Z</time>
      </trkpt>
      <trkpt lat="49.68942" lon="-1.27907">
        <ele>4.6</ele>
        <time>2020-06-15T10:10:48Z</time>
      </trkpt>
      <trkpt lat="49.68939" lon="-1.27915">
        <ele>4.6</ele>
        <time>2020-06-15T10:10:49Z</time>
      </trkpt>
      <trkpt lat="49.68937" lon="-1.27923">
        <ele>4.5</ele>
        <time>2020-06-15T10:10:50Z</time>
      </trkpt>
      <trkpt lat="49.68935" lon="-1.2793">
        <ele>4.5</ele>
        <time>2020-06-15T10:10:51Z</time>
      </trkpt>
      <trkpt lat="49.68931" lon="-1.27937">
        <ele>4.5</ele>
        <time>2020-06-15T10:10:52Z</time>
      </trkpt>
      <trkpt lat="49.68929" lon="-1.27943">
        <ele>4.5</ele>
        <time>2020-06-15T10:10:53Z</time>
      </trkpt>
      <trkpt lat="49.68927" lon="-1.2795">
        <ele>4.4</ele>
        <time>2020-06-15T10:10:54Z</time>
      </trkpt>
      <trkpt lat="49.68925" lon="-1.27957">
        <ele>4.4</ele>
        <time>2020-06-15T10:10:55Z</time>
      </trkpt>
      <trkpt lat="49.68922" lon="-1.27964">
        <ele>4.4</ele>
        <time>2020-06-15T10:10:56Z</time>
      </trkpt>
      <trkpt lat="49.6892" lon="-1.27973">
        <ele>4.4</ele>
        <time>2020-06-15T10:10:57Z</time>
      </trkpt>
      <trkpt lat="49.68917" lon="-1.2798">
        <ele>4.4</ele>
        <time>2020-06-15T10:10:58Z</time>
      </trkpt>
      <trkpt lat="49.68914" lon="-1.27987">
        <ele>4.4</ele>
        <time>2020-06-15T10:10:59Z</time>
      </trkpt>
      <trkpt lat="49.68912" lon="-1.27995">
        <ele>4.5</ele>
        <time>2020-06-15T10:11:00Z</time>
      </trkpt>
      <trkpt lat="49.68909" lon="-1.28002">
        <ele>4.5</ele>
        <time>2020-06-15T10:11:01Z</time>
      </trkpt>
      <trkpt lat="49.68906" lon="-1.2801">
        <ele>4.6</ele>
        <time>2020-06-15T10:11:02Z</time>
      </trkpt>
      <trkpt lat="49.68904" lon="-1.28017">
        <ele>4.6</ele>
        <time>2020-06-15T10:11:03Z</time>
      </trkpt>
      <trkpt lat="49.68901" lon="-1.28025">
        <ele>4.7</ele>
        <time>2020-06-15T10:11:04Z</time>
      </trkpt>
      <trkpt lat="49.68899" lon="-1.28032">
        <ele>4.8</ele>
        <time>2020-06-15T10:11:05Z</time>
      </trkpt>
      <trkpt lat="49.68896" lon="-1.28039">
        <ele>4.9</ele>
        <time>2020-06-15T10:11:06Z</time>
      </trkpt>
      <trkpt lat="49.68893" lon="-1.28045">
        <ele>5</ele>
        <time>2020-06-15T10:11:07Z</time>
      </trkpt>
      <trkpt lat="49.68889" lon="-1.28053">
        <ele>5.1</ele>
        <time>2020-06-15T10:11:08Z</time>
      </trkpt>
      <trkpt lat="49.68886" lon="-1.28059">
        <ele>5.2</ele>
        <time>2020-06-15T10:11:09Z</time>
      </trkpt>
      <trkpt lat="49.68883" lon="-1.28067">
        <ele>5.4</ele>
        <time>2020-06-15T10:11:10Z</time>
      </trkpt>
      <trkpt lat="49.68881" lon="-1.28074">
        <ele>5.5</ele>
        <time>2020-06-15T10:11:11Z</time>
      </trkpt>
      <trkpt lat="49.68879" lon="-1.28081">
        <ele>5.6</ele>
        <time>2020-06-15T10:11:12Z</time>
      </trkpt>
      <trkpt lat="49.68877" lon="-1.28087">
        <ele>5.8</ele>
        <time>2020-06-15T10:11:13Z</time>
      </trkpt>
      <trkpt lat="49.68875" lon="-1.28094">
        <ele>6</ele>
        <time>2020-06-15T10:11:14Z</time>
      </trkpt>
      <trkpt lat="49.68873" lon="-1.281">
        <ele>6.1</ele>
        <time>2020-06-15T10:11:15Z</time>
      </trkpt>
      <trkpt lat="49.6887" lon="-1.28106">
        <ele>6.3</ele>
        <time>2020-06-15T10:11:16Z</time>
      </trkpt>
      <trkpt lat="49.68868" lon="-1.28113">
        <ele>6.4</ele>
        <time>2020-06-15T10:11:17Z</time>
      </trkpt>
      <trkpt lat="49.68867" lon="-1.28121">
        <ele>6.6</ele>
        <time>2020-06-15T10:11:18Z</time>
      </trkpt>
      <trkpt lat="49.68866" lon="-1.28129">
        <ele>6.8</ele>
        <time>2020-06-15T10:11:19Z</time>
      </trkpt>
      <trkpt lat="49.68866" lon="-1.28136">
        <ele>7</ele>
        <time>2020-06-15T10:11:20Z</time>
      </trkpt>
      <trkpt lat="49.68865" lon="-1.28143">
        <ele>7.1</ele>
        <time>2020-06-15T10:11:21Z</time>
      </trkpt>
      <trkpt lat="49.68864" lon="-1.2815">
        <ele>7.3</ele>
        <time>2020-06-15T10:11:22Z</time>
      </trkpt>
      <trkpt lat="49.68864" lon="-1.28156">
        <ele>7.5</ele>
        <time>2020-06-15T10:11:23Z</time>
      </trkpt>
      <trkpt lat="49.68863" lon="-1.28163">
        <ele>7.6</ele>
        <time>2020-06-15T10:11:24Z</time>
      </trkpt>
      <trkpt lat="49.68863" lon="-1.28169">
        <ele>7.8</ele>
        <time>2020-06-15T10:11:25Z</time>
      </trkpt>
      <trkpt lat="49.68862" lon="-1.28175">
        <ele>7.9</ele>
        <time>2020-06-15T10:11:26Z</time>
      </trkpt>
      <trkpt lat="49.68862" lon="-1.28181">
        <ele>8</ele>
        <time>2020-06-15T10:11:27Z</time>
      </trkpt>
      <trkpt lat="49.68861" lon="-1.28186">
        <ele>8.1</ele>
        <time>2020-06-15T10:11:28Z</time>
      </trkpt>
      <trkpt lat="49.68861" lon="-1.28191">
        <ele>8.2</ele>
        <time>2020-06-15T10:11:29Z</time>
      </trkpt>
      <trkpt lat="49.68861" lon="-1.28196">
        <ele>8.3</ele>
        <time>2020-06-15T10:11:30Z</time>
      </trkpt>
      <trkpt lat="49.6886" lon="-1.28201">
        <ele>8.4</ele>
        <time>2020-06-15T10:11:31Z</time>
      </trkpt>
      <trkpt lat="49.6886" lon="-1.28203">
        <ele>8.4</ele>
        <time>2020-06-15T10:11:32Z</time>
      </trkpt>
      <trkpt lat="49.68857" lon="-1.28207">
        <ele>8.5</ele>
        <time>2020-06-15T10:11:33Z</time>
      </trkpt>
      <trkpt lat="49.68855" lon="-1.28208">
        <ele>8.6</ele>
        <time>2020-06-15T10:11:34Z</time>
      </trkpt>
      <trkpt lat="49.68851" lon="-1.28211">
        <ele>8.4</ele>
        <time>2020-06-15T10:11:35Z</time>
      </trkpt>
      <trkpt lat="49.68846" lon="-1.28213">
        <ele>8.3</ele>
        <time>2020-06-15T10:11:36Z</time>
      </trkpt>
      <trkpt lat="49.68841" lon="-1.28215">
        <ele>8.1</ele>
        <time>2020-06-15T10:11:37Z</time>
      </trkpt>
      <trkpt lat="49.68836" lon="-1.28216">
        <ele>8</ele>
        <time>2020-06-15T10:11:38Z</time>
      </trkpt>
      <trkpt lat="49.6883" lon="-1.28216">
        <ele>7.9</ele>
        <time>2020-06-15T10:11:39Z</time>
      </trkpt>
      <trkpt lat="49.68825" lon="-1.28217">
        <ele>7.8</ele>
        <time>2020-06-15T10:11:40Z</time>
      </trkpt>
      <trkpt lat="49.68819" lon="-1.28216">
        <ele>7.7</ele>
        <time>2020-06-15T10:11:41Z</time>
      </trkpt>
      <trkpt lat="49.68814" lon="-1.28215">
        <ele>7.7</ele>
        <time>2020-06-15T10:11:42Z</time>
      </trkpt>
      <trkpt lat="49.68809" lon="-1.28215">
        <ele>7.6</ele>
        <time>2020-06-15T10:11:43Z</time>
      </trkpt>
      <trkpt lat="49.68805" lon="-1.28217">
        <ele>7.6</ele>
        <time>2020-06-15T10:11:44Z</time>
      </trkpt>
      <trkpt lat="49.688" lon="-1.28217">
        <ele>7.6</ele>
        <time>2020-06-15T10:11:45Z</time>
      </trkpt>
      <trkpt lat="49.68795" lon="-1.28218">
        <ele>7.6</ele>
        <time>2020-06-15T10:11:46Z</time>
      </trkpt>
      <trkpt lat="49.6879" lon="-1.2822">
        <ele>7.6</ele>
        <time>2020-06-15T10:11:47Z</time>
      </trkpt>
      <trkpt lat="49.68785" lon="-1.28222">
        <ele>7.6</ele>
        <time>2020-06-15T10:11:48Z</time>
      </trkpt>
      <trkpt lat="49.6878" lon="-1.28224">
        <ele>7.6</ele>
        <time>2020-06-15T10:11:49Z</time>
      </trkpt>
      <trkpt lat="49.68775" lon="-1.28226">
        <ele>7.7</ele>
        <time>2020-06-15T10:11:50Z</time>
      </trkpt>
      <trkpt lat="49.6877" lon="-1.28228">
        <ele>7.8</ele>
        <time>2020-06-15T10:11:51Z</time>
      </trkpt>
      <trkpt lat="49.68765" lon="-1.2823">
        <ele>8</ele>
        <time>2020-06-15T10:11:52Z</time>
      </trkpt>
      <trkpt lat="49.6876" lon="-1.28232">
        <ele>8.2</ele>
        <time>2020-06-15T10:11:53Z</time>
      </trkpt>
      <trkpt lat="49.68756" lon="-1.28233">
        <ele>8.4</ele>
        <time>2020-06-15T10:11:54Z</time>
      </trkpt>
      <trkpt lat="49.68751" lon="-1.28235">
        <ele>8.7</ele>
        <time>2020-06-15T10:11:55Z</time>
      </trkpt>
      <trkpt lat="49.68746" lon="-1.28236">
        <ele>8.9</ele>
        <time>2020-06-15T10:11:56Z</time>
      </trkpt>
      <trkpt lat="49.68743" lon="-1.28238">
        <ele>9.1</ele>
        <time>2020-06-15T10:11:57Z</time>
      </trkpt>
      <trkpt lat="49.68738" lon="-1.2824">
        <ele>9.4</ele>
        <time>2020-06-15T10:11:58Z</time>
      </trkpt>
      <trkpt lat="49.68734" lon="-1.2824">
        <ele>9.6</ele>
        <time>2020-06-15T10:11:59Z</time>
      </trkpt>
      <trkpt lat="49.6873" lon="-1.28241">
        <ele>9.9</ele>
        <time>2020-06-15T10:12:00Z</time>
      </trkpt>
      <trkpt lat="49.68726" lon="-1.28241">
        <ele>10.1</ele>
        <time>2020-06-15T10:12:01Z</time>
      </trkpt>
      <trkpt lat="49.68722" lon="-1.28243">
        <ele>10.3</ele>
        <time>2020-06-15T10:12:02Z</time>
      </trkpt>
      <trkpt lat="49.68718" lon="-1.28244">
        <ele>10.5</ele>
        <time>2020-06-15T10:12:03Z</time>
      </trkpt>
      <trkpt lat="49.68714" lon="-1.28245">
        <ele>10.7</ele>
        <time>2020-06-15T10:12:04Z</time>
      </trkpt>
      <trkpt lat="49.6871" lon="-1.28246">
        <ele>10.9</ele>
        <time>2020-06-15T10:12:05Z</time>
      </trkpt>
      <trkpt lat="49.68705" lon="-1.28248">
        <ele>11.1</ele>
        <time>2020-06-15T10:12:06Z</time>
      </trkpt>
      <trkpt lat="49.68701" lon="-1.28248">
        <ele>11.3</ele>
        <time>2020-06-15T10:12:07Z</time>
      </trkpt>
      <trkpt lat="49.68696" lon="-1.28247">
        <ele>11.4</ele>
        <time>2020-06-15T10:12:08Z</time>
      </trkpt>
      <trkpt lat="49.68691" lon="-1.28245">
        <ele>11.6</ele>
        <time>2020-06-15T10:12:09Z</time>
      </trkpt>
      <trkpt lat="49.68687" lon="-1.28244">
        <ele>11.6</ele>
        <time>2020-06-15T10:12:10Z</time>
      </trkpt>
      <trkpt lat="49.68683" lon="-1.28243">
        <ele>11.7</ele>
        <time>2020-06-15T10:12:11Z</time>
      </trkpt>
      <trkpt lat="49.68679" lon="-1.28244">
        <ele>11.8</ele>
        <time>2020-06-15T10:12:12Z</time>
      </trkpt>
      <trkpt lat="49.68676" lon="-1.28244">
        <ele>11.9</ele>
        <time>2020-06-15T10:12:13Z</time>
      </trkpt>
      <trkpt lat="49.68671" lon="-1.28246">
        <ele>11.9</ele>
        <time>2020-06-15T10:12:14Z</time>
      </trkpt>
      <trkpt lat="49.68668" lon="-1.28249">
        <ele>12</ele>
        <time>2020-06-15T10:12:15Z</time>
      </trkpt>
      <trkpt lat="49.68665" lon="-1.28254">
        <ele>12</ele>
        <time>2020-06-15T10:12:16Z</time>
      </trkpt>
      <trkpt lat="49.68664" lon="-1.28261">
        <ele>12.1</ele>
        <time>2020-06-15T10:12:17Z</time>
      </trkpt>
      <trkpt lat="49.68665" lon="-1.28267">
        <ele>12.1</ele>
        <time>2020-06-15T10:12:18Z</time>
      </trkpt>
      <trkpt lat="49.68665" lon="-1.28274">
        <ele>12.2</ele>
        <time>2020-06-15T10:12:19Z</time>
      </trkpt>
      <trkpt lat="49.68666" lon="-1.28281">
        <ele>12.2</ele>
        <time>2020-06-15T10:12:20Z</time>
      </trkpt>
      <trkpt lat="49.68665" lon="-1.28288">
        <ele>12.2</ele>
        <time>2020-06-15T10:12:21Z</time>
      </trkpt>
      <trkpt lat="49.68664" lon="-1.28293">
        <ele>12.3</ele>
        <time>2020-06-15T10:12:22Z</time>
      </trkpt>
      <trkpt lat="49.6866" lon="-1.28298">
        <ele>12.3</ele>
        <time>2020-06-15T10:12:23Z</time>
      </trkpt>
      <trkpt lat="49.68657" lon="-1.28301">
        <ele>12.4</ele>
        <time>2020-06-15T10:12:24Z</time>
      </trkpt>
      <trkpt lat="49.68653" lon="-1.28303">
        <ele>12.4</ele>
        <time>2020-06-15T10:12:25Z</time>
      </trkpt>
      <trkpt lat="49.6865" lon="-1.28305">
        <ele>12.4</ele>
        <time>2020-06-15T10:12:26Z</time>
      </trkpt>
      <trkpt lat="49.68645" lon="-1.28308">
        <ele>12.3</ele>
        <time>2020-06-15T10:12:27Z</time>
      </trkpt>
      <trkpt lat="49.68641" lon="-1.28309">
        <ele>12.3</ele>
        <time>2020-06-15T10:12:28Z</time>
      </trkpt>
      <trkpt lat="49.68638" lon="-1.2831">
        <ele>12.2</ele>
        <time>2020-06-15T10:12:29Z</time>
      </trkpt>
      <trkpt lat="49.68633" lon="-1.28313">
        <ele>12.2</ele>
        <time>2020-06-15T10:12:30Z</time>
      </trkpt>
      <trkpt lat="49.68628" lon="-1.28314">
        <ele>12.1</ele>
        <time>2020-06-15T10:12:31Z</time>
      </trkpt>
      <trkpt lat="49.68622" lon="-1.28313">
        <ele>11.9</ele>
        <time>2020-06-15T10:12:32Z</time>
      </trkpt>
      <trkpt lat="49.68618" lon="-1.28315">
        <ele>11.9</ele>
        <time>2020-06-15T10:12:33Z</time>
      </trkpt>
      <trkpt lat="49.68614" lon="-1.28317">
        <ele>11.8</ele>
        <time>2020-06-15T10:12:34Z</time>
      </trkpt>
      <trkpt lat="49.68609" lon="-1.28318">
        <ele>11.7</ele>
        <time>2020-06-15T10:12:35Z</time>
      </trkpt>
      <trkpt lat="49.68604" lon="-1.28317">
        <ele>11.6</ele>
        <time>2020-06-15T10:12:36Z</time>
      </trkpt>
      <trkpt lat="49.686" lon="-1.28316">
        <ele>11.5</ele>
        <time>2020-06-15T10:12:37Z</time>
      </trkpt>
      <trkpt lat="49.68595" lon="-1.28313">
        <ele>11.4</ele>
        <time>2020-06-15T10:12:38Z</time>
      </trkpt>
      <trkpt lat="49.68592" lon="-1.28312">
        <ele>11.2</ele>
        <time>2020-06-15T10:12:39Z</time>
      </trkpt>
      <trkpt lat="49.68591" lon="-1.2831">
        <ele>11.1</ele>
        <time>2020-06-15T10:12:40Z</time>
      </trkpt>
      <trkpt lat="49.6859" lon="-1.28311">
        <ele>11.1</ele>
        <time>2020-06-15T10:12:41Z</time>
      </trkpt>
      <trkpt lat="49.68589" lon="-1.28314">
        <ele>11</ele>
        <time>2020-06-15T10:12:42Z</time>
      </trkpt>
      <trkpt lat="49.68589" lon="-1.28317">
        <ele>10.9</ele>
        <time>2020-06-15T10:12:43Z</time>
      </trkpt>
      <trkpt lat="49.68588" lon="-1.28319">
        <ele>10.9</ele>
        <time>2020-06-15T10:12:44Z</time>
      </trkpt>
      <trkpt lat="49.68588" lon="-1.28322">
        <ele>10.8</ele>
        <time>2020-06-15T10:12:45Z</time>
      </trkpt>
      <trkpt lat="49.68587" lon="-1.28327">
        <ele>10.7</ele>
        <time>2020-06-15T10:12:46Z</time>
      </trkpt>
      <trkpt lat="49.68587" lon="-1.28329">
        <ele>10.6</ele>
        <time>2020-06-15T10:12:47Z</time>
      </trkpt>
      <trkpt lat="49.68585" lon="-1.28333">
        <ele>10.5</ele>
        <time>2020-06-15T10:12:48Z</time>
      </trkpt>
      <trkpt lat="49.68583" lon="-1.28336">
        <ele>10.4</ele>
        <time>2020-06-15T10:12:49Z</time>
      </trkpt>
      <trkpt lat="49.68581" lon="-1.2834">
        <ele>10.2</ele>
        <time>2020-06-15T10:12:50Z</time>
      </trkpt>
      <trkpt lat="49.68577" lon="-1.28344">
        <ele>10</ele>
        <time>2020-06-15T10:12:51Z</time>
      </trkpt>
      <trkpt lat="49.68572" lon="-1.28348">
        <ele>9.8</ele>
        <time>2020-06-15T10:12:52Z</time>
      </trkpt>
      <trkpt lat="49.68568" lon="-1.28352">
        <ele>9.7</ele>
        <time>2020-06-15T10:12:53Z</time>
      </trkpt>
      <trkpt lat="49.68564" lon="-1.28356">
        <ele>9.6</ele>
        <time>2020-06-15T10:12:54Z</time>
      </trkpt>
      <trkpt lat="49.6856" lon="-1.28362">
        <ele>9.4</ele>
        <time>2020-06-15T10:12:55Z</time>
      </trkpt>
      <trkpt lat="49.68556" lon="-1.28366">
        <ele>9.4</ele>
        <time>2020-06-15T10:12:56Z</time>
      </trkpt>
      <trkpt lat="49.68551" lon="-1.2837">
        <ele>9.3</ele>
        <time>2020-06-15T10:12:57Z</time>
      </trkpt>
      <trkpt lat="49.68546" lon="-1.28374">
        <ele>9.3</ele>
        <time>2020-06-15T10:12:58Z</time>
      </trkpt>
      <trkpt lat="49.68541" lon="-1.28376">
        <ele>9.4</ele>
        <time>2020-06-15T10:12:59Z</time>
      </trkpt>
      <trkpt lat="49.68537" lon="-1.28379">
        <ele>9.4</ele>
        <time>2020-06-15T10:13:00Z</time>
      </trkpt>
      <trkpt lat="49.68533" lon="-1.28381">
        <ele>9.4</ele>
        <time>2020-06-15T10:13:01Z</time>
      </trkpt>
      <trkpt lat="49.68531" lon="-1.28385">
        <ele>9.4</ele>
        <time>2020-06-15T10:13:02Z</time>
      </trkpt>
      <trkpt lat="49.6853" lon="-1.28386">
        <ele>9.4</ele>
        <time>2020-06-15T10:13:03Z</time>
      </trkpt>
      <trkpt lat="49.68528" lon="-1.28386">
        <ele>9.4</ele>
        <time>2020-06-15T10:13:04Z</time>
      </trkpt>
      <trkpt lat="49.68527" lon="-1.28387">
        <ele>9.4</ele>
        <time>2020-06-15T10:13:05Z</time>
      </trkpt>
      <trkpt lat="49.68525" lon="-1.28385">
        <ele>9.4</ele>
        <time>2020-06-15T10:13:06Z</time>
      </trkpt>
      <trkpt lat="49.68524" lon="-1.28383">
        <ele>9.4</ele>
        <time>2020-06-15T10:13:07Z</time>
      </trkpt>
      <trkpt lat="49.68524" lon="-1.28382">
        <ele>9.4</ele>
        <time>2020-06-15T10:13:08Z</time>
      </trkpt>
      <trkpt lat="49.68522" lon="-1.28377">
        <ele>9.3</ele>
        <time>2020-06-15T10:13:09Z</time>
      </trkpt>
      <trkpt lat="49.68522" lon="-1.28372">
        <ele>9.3</ele>
        <time>2020-06-15T10:13:10Z</time>
      </trkpt>
      <trkpt lat="49.68521" lon="-1.28366">
        <ele>9.3</ele>
        <time>2020-06-15T10:13:11Z</time>
      </trkpt>
      <trkpt lat="49.6852" lon="-1.28359">
        <ele>9.2</ele>
        <time>2020-06-15T10:13:12Z</time>
      </trkpt>
      <trkpt lat="49.68519" lon="-1.28352">
        <ele>9.1</ele>
        <time>2020-06-15T10:13:13Z</time>
      </trkpt>
      <trkpt lat="49.68517" lon="-1.28344">
        <ele>9</ele>
        <time>2020-06-15T10:13:14Z</time>
      </trkpt>
      <trkpt lat="49.68516" lon="-1.28337">
        <ele>8.9</ele>
        <time>2020-06-15T10:13:15Z</time>
      </trkpt>
      <trkpt lat="49.68514" lon="-1.2833">
        <ele>8.8</ele>
        <time>2020-06-15T10:13:16Z</time>
      </trkpt>
      <trkpt lat="49.68512" lon="-1.28323">
        <ele>8.7</ele>
        <time>2020-06-15T10:13:17Z</time>
      </trkpt>
      <trkpt lat="49.68511" lon="-1.28316">
        <ele>8.5</ele>
        <time>2020-06-15T10:13:18Z</time>
      </trkpt>
      <trkpt lat="49.68508" lon="-1.28309">
        <ele>8.4</ele>
        <time>2020-06-15T10:13:19Z</time>
      </trkpt>
      <trkpt lat="49.68506" lon="-1.28302">
        <ele>8.2</ele>
        <time>2020-06-15T10:13:20Z</time>
      </trkpt>
      <trkpt lat="49.68504" lon="-1.28294">
        <ele>8</ele>
        <time>2020-06-15T10:13:21Z</time>
      </trkpt>
      <trkpt lat="49.68502" lon="-1.28286">
        <ele>7.8</ele>
        <time>2020-06-15T10:13:22Z</time>
      </trkpt>
      <trkpt lat="49.68499" lon="-1.28278">
        <ele>7.5</ele>
        <time>2020-06-15T10:13:23Z</time>
      </trkpt>
      <trkpt lat="49.68496" lon="-1.2827">
        <ele>7.3</ele>
        <time>2020-06-15T10:13:24Z</time>
      </trkpt>
      <trkpt lat="49.68494" lon="-1.28261">
        <ele>7.1</ele>
        <time>2020-06-15T10:13:25Z</time>
      </trkpt>
      <trkpt lat="49.68491" lon="-1.28252">
        <ele>6.9</ele>
        <time>2020-06-15T10:13:26Z</time>
      </trkpt>
      <trkpt lat="49.68488" lon="-1.28243">
        <ele>6.7</ele>
        <time>2020-06-15T10:13:27Z</time>
      </trkpt>
      <trkpt lat="49.68485" lon="-1.28234">
        <ele>6.5</ele>
        <time>2020-06-15T10:13:28Z</time>
      </trkpt>
      <trkpt lat="49.68482" lon="-1.28225">
        <ele>6.3</ele>
        <time>2020-06-15T10:13:29Z</time>
      </trkpt>
      <trkpt lat="49.68478" lon="-1.28216">
        <ele>6.1</ele>
        <time>2020-06-15T10:13:30Z</time>
      </trkpt>
      <trkpt lat="49.68475" lon="-1.28206">
        <ele>6</ele>
        <time>2020-06-15T10:13:31Z</time>
      </trkpt>
      <trkpt lat="49.68471" lon="-1.28196">
        <ele>5.9</ele>
        <time>2020-06-15T10:13:32Z</time>
      </trkpt>
      <trkpt lat="49.68468" lon="-1.28187">
        <ele>5.8</ele>
        <time>2020-06-15T10:13:33Z</time>
      </trkpt>
      <trkpt lat="49.68465" lon="-1.28179">
        <ele>5.7</ele>
        <time>2020-06-15T10:13:34Z</time>
      </trkpt>
      <trkpt lat="49.68462" lon="-1.28171">
        <ele>5.7</ele>
        <time>2020-06-15T10:13:35Z</time>
      </trkpt>
      <trkpt lat="49.68459" lon="-1.28162">
        <ele>5.6</ele>
        <time>2020-06-15T10:13:36Z</time>
      </trkpt>
      <trkpt lat="49.68456" lon="-1.28154">
        <ele>5.6</ele>
        <time>2020-06-15T10:13:37Z</time>
      </trkpt>
      <trkpt lat="49.68453" lon="-1.28147">
        <ele>5.6</ele>
        <time>2020-06-15T10:13:38Z</time>
      </trkpt>
      <trkpt lat="49.6845" lon="-1.2814">
        <ele>5.6</ele>
        <time>2020-06-15T10:13:39Z</time>
      </trkpt>
      <trkpt lat="49.68447" lon="-1.28131">
        <ele>5.6</ele>
        <time>2020-06-15T10:13:40Z</time>
      </trkpt>
      <trkpt lat="49.68444" lon="-1.28123">
        <ele>5.6</ele>
        <time>2020-06-15T10:13:41Z</time>
      </trkpt>
      <trkpt lat="49.68441" lon="-1.28116">
        <ele>5.6</ele>
        <time>2020-06-15T10:13:42Z</time>
      </trkpt>
      <trkpt lat="49.68438" lon="-1.28106">
        <ele>5.7</ele>
        <time>2020-06-15T10:13:43Z</time>
      </trkpt>
      <trkpt lat="49.68434" lon="-1.28099">
        <ele>5.7</ele>
        <time>2020-06-15T10:13:44Z</time>
      </trkpt>
      <trkpt lat="49.68431" lon="-1.2809">
        <ele>5.8</ele>
        <time>2020-06-15T10:13:45Z</time>
      </trkpt>
      <trkpt lat="49.68428" lon="-1.28083">
        <ele>5.9</ele>
        <time>2020-06-15T10:13:46Z</time>
      </trkpt>
      <trkpt lat="49.68425" lon="-1.28077">
        <ele>6</ele>
        <time>2020-06-15T10:13:47Z</time>
      </trkpt>
      <trkpt lat="49.68421" lon="-1.28069">
        <ele>6.2</ele>
        <time>2020-06-15T10:13:48Z</time>
      </trkpt>
      <trkpt lat="49.68418" lon="-1.28061">
        <ele>6.3</ele>
        <time>2020-06-15T10:13:49Z</time>
      </trkpt>
      <trkpt lat="49.68414" lon="-1.28054">
        <ele>6.4</ele>
        <time>2020-06-15T10:13:50Z</time>
      </trkpt>
      <trkpt lat="49.68411" lon="-1.28049">
        <ele>6.5</ele>
        <time>2020-06-15T10:13:51Z</time>
      </trkpt>
      <trkpt lat="49.68408" lon="-1.28041">
        <ele>6.6</ele>
        <time>2020-06-15T10:13:52Z</time>
      </trkpt>
      <trkpt lat="49.68404" lon="-1.28035">
        <ele>6.7</ele>
        <time>2020-06-15T10:13:53Z</time>
      </trkpt>
      <trkpt lat="49.684" lon="-1.2803">
        <ele>6.8</ele>
        <time>2020-06-15T10:13:54Z</time>
      </trkpt>
      <trkpt lat="49.68396" lon="-1.28025">
        <ele>6.9</ele>
        <time>2020-06-15T10:13:55Z</time>
      </trkpt>
      <trkpt lat="49.68393" lon="-1.28019">
        <ele>7</ele>
        <time>2020-06-15T10:13:56Z</time>
      </trkpt>
      <trkpt lat="49.6839" lon="-1.28014">
        <ele>7</ele>
        <time>2020-06-15T10:13:57Z</time>
      </trkpt>
      <trkpt lat="49.68387" lon="-1.2801">
        <ele>7</ele>
        <time>2020-06-15T10:13:58Z</time>
      </trkpt>
      <trkpt lat="49.68385" lon="-1.28003">
        <ele>7.1</ele>
        <time>2020-06-15T10:13:59Z</time>
      </trkpt>
      <trkpt lat="49.68382" lon="-1.27998">
        <ele>7.1</ele>
        <time>2020-06-15T10:14:00Z</time>
      </trkpt>
      <trkpt lat="49.68379" lon="-1.27993">
        <ele>7.1</ele>
        <time>2020-06-15T10:14:01Z</time>
      </trkpt>
      <trkpt lat="49.68377" lon="-1.27988">
        <ele>7.1</ele>
        <time>2020-06-15T10:14:02Z</time>
      </trkpt>
      <trkpt lat="49.68374" lon="-1.27982">
        <ele>7.1</ele>
        <time>2020-06-15T10:14:03Z</time>
      </trkpt>
      <trkpt lat="49.68371" lon="-1.27976">
        <ele>7.1</ele>
        <time>2020-06-15T10:14:04Z</time>
      </trkpt>
      <trkpt lat="49.68368" lon="-1.27971">
        <ele>7.1</ele>
        <time>2020-06-15T10:14:05Z</time>
      </trkpt>
      <trkpt lat="49.68365" lon="-1.27964">
        <ele>7.1</ele>
        <time>2020-06-15T10:14:06Z</time>
      </trkpt>
      <trkpt lat="49.68363" lon="-1.2796">
        <ele>7</ele>
        <time>2020-06-15T10:14:07Z</time>
      </trkpt>
      <trkpt lat="49.6836" lon="-1.27955">
        <ele>6.9</ele>
        <time>2020-06-15T10:14:08Z</time>
      </trkpt>
      <trkpt lat="49.68356" lon="-1.27949">
        <ele>6.8</ele>
        <time>2020-06-15T10:14:09Z</time>
      </trkpt>
      <trkpt lat="49.68353" lon="-1.27943">
        <ele>6.7</ele>
        <time>2020-06-15T10:14:10Z</time>
      </trkpt>
      <trkpt lat="49.6835" lon="-1.27936">
        <ele>6.5</ele>
        <time>2020-06-15T10:14:11Z</time>
      </trkpt>
      <trkpt lat="49.68346" lon="-1.27928">
        <ele>6.3</ele>
        <time>2020-06-15T10:14:12Z</time>
      </trkpt>
      <trkpt lat="49.68342" lon="-1.27921">
        <ele>6.1</ele>
        <time>2020-06-15T10:14:13Z</time>
      </trkpt>
      <trkpt lat="49.68338" lon="-1.27915">
        <ele>6</ele>
        <time>2020-06-15T10:14:14Z</time>
      </trkpt>
      <trkpt lat="49.68334" lon="-1.2791">
        <ele>5.8</ele>
        <time>2020-06-15T10:14:15Z</time>
      </trkpt>
      <trkpt lat="49.6833" lon="-1.27902">
        <ele>5.7</ele>
        <time>2020-06-15T10:14:16Z</time>
      </trkpt>
      <trkpt lat="49.68326" lon="-1.27894">
        <ele>5.5</ele>
        <time>2020-06-15T10:14:17Z</time>
      </trkpt>
      <trkpt lat="49.68322" lon="-1.27887">
        <ele>5.4</ele>
        <time>2020-06-15T10:14:18Z</time>
      </trkpt>
      <trkpt lat="49.68318" lon="-1.27879">
        <ele>5.3</ele>
        <time>2020-06-15T10:14:19Z</time>
      </trkpt>
      <trkpt lat="49.68313" lon="-1.2787">
        <ele>5.2</ele>
        <time>2020-06-15T10:14:20Z</time>
      </trkpt>
      <trkpt lat="49.68309" lon="-1.27862">
        <ele>5.1</ele>
        <time>2020-06-15T10:14:21Z</time>
      </trkpt>
      <trkpt lat="49.68305" lon="-1.27854">
        <ele>5</ele>
        <time>2020-06-15T10:14:22Z</time>
      </trkpt>
      <trkpt lat="49.68301" lon="-1.27846">
        <ele>4.9</ele>
        <time>2020-06-15T10:14:23Z</time>
      </trkpt>
      <trkpt lat="49.68296" lon="-1.27838">
        <ele>4.8</ele>
        <time>2020-06-15T10:14:24Z</time>
      </trkpt>
      <trkpt lat="49.68292" lon="-1.2783">
        <ele>4.7</ele>
        <time>2020-06-15T10:14:25Z</time>
      </trkpt>
      <trkpt lat="49.68287" lon="-1.27822">
        <ele>4.6</ele>
        <time>2020-06-15T10:14:26Z</time>
      </trkpt>
      <trkpt lat="49.68283" lon="-1.27814">
        <ele>4.5</ele>
        <time>2020-06-15T10:14:27Z</time>
      </trkpt>
      <trkpt lat="49.68279" lon="-1.27806">
        <ele>4.5</ele>
        <time>2020-06-15T10:14:28Z</time>
      </trkpt>
      <trkpt lat="49.68274" lon="-1.27798">
        <ele>4.4</ele>
        <time>2020-06-15T10:14:29Z</time>
      </trkpt>
      <trkpt lat="49.6827" lon="-1.2779">
        <ele>4.4</ele>
        <time>2020-06-15T10:14:30Z</time>
      </trkpt>
      <trkpt lat="49.68266" lon="-1.27782">
        <ele>4.4</ele>
        <time>2020-06-15T10:14:31Z</time>
      </trkpt>
      <trkpt lat="49.68262" lon="-1.27774">
        <ele>4.3</ele>
        <time>2020-06-15T10:14:32Z</time>
      </trkpt>
      <trkpt lat="49.68257" lon="-1.27766">
        <ele>4.3</ele>
        <time>2020-06-15T10:14:33Z</time>
      </trkpt>
      <trkpt lat="49.68253" lon="-1.27759">
        <ele>4.3</ele>
        <time>2020-06-15T10:14:34Z</time>
      </trkpt>
      <trkpt lat="49.68249" lon="-1.27751">
        <ele>4.2</ele>
        <time>2020-06-15T10:14:35Z</time>
      </trkpt>
      <trkpt lat="49.68244" lon="-1.27744">
        <ele>4.2</ele>
        <time>2020-06-15T10:14:36Z</time>
      </trkpt>
      <trkpt lat="49.6824" lon="-1.27737">
        <ele>4.1</ele>
        <time>2020-06-15T10:14:37Z</time>
      </trkpt>
      <trkpt lat="49.68235" lon="-1.2773">
        <ele>4.1</ele>
        <time>2020-06-15T10:14:38Z</time>
      </trkpt>
      <trkpt lat="49.68231" lon="-1.27723">
        <ele>4.1</ele>
        <time>2020-06-15T10:14:39Z</time>
      </trkpt>
      <trkpt lat="49.68226" lon="-1.27716">
        <ele>4.1</ele>
        <time>2020-06-15T10:14:40Z</time>
      </trkpt>
      <trkpt lat="49.68221" lon="-1.27709">
        <ele>4.1</ele>
        <time>2020-06-15T10:14:41Z</time>
      </trkpt>
      <trkpt lat="49.68216" lon="-1.27702">
        <ele>4.1</ele>
        <time>2020-06-15T10:14:42Z</time>
      </trkpt>
      <trkpt lat="49.68211" lon="-1.27696">
        <ele>4.1</ele>
        <time>2020-06-15T10:14:43Z</time>
      </trkpt>
      <trkpt lat="49.68207" lon="-1.27689">
        <ele>4.1</ele>
        <time>2020-06-15T10:14:44Z</time>
      </trkpt>
      <trkpt lat="49.68202" lon="-1.27682">
        <ele>4.1</ele>
        <time>2020-06-15T10:14:45Z</time>
      </trkpt>
      <trkpt lat="49.68197" lon="-1.27675">
        <ele>4.1</ele>
        <time>2020-06-15T10:14:46Z</time>
      </trkpt>
      <trkpt lat="49.68193" lon="-1.27669">
        <ele>4.1</ele>
        <time>2020-06-15T10:14:47Z</time>
      </trkpt>
      <trkpt lat="49.68188" lon="-1.27662">
        <ele>4.1</ele>
        <time>2020-06-15T10:14:48Z</time>
      </trkpt>
      <trkpt lat="49.68183" lon="-1.27655">
        <ele>4.2</ele>
        <time>2020-06-15T10:14:49Z</time>
      </trkpt>
      <trkpt lat="49.68179" lon="-1.27649">
        <ele>4.2</ele>
        <time>2020-06-15T10:14:50Z</time>
      </trkpt>
      <trkpt lat="49.68175" lon="-1.27642">
        <ele>4.2</ele>
        <time>2020-06-15T10:14:51Z</time>
      </trkpt>
      <trkpt lat="49.6817" lon="-1.27636">
        <ele>4.2</ele>
        <time>2020-06-15T10:14:52Z</time>
      </trkpt>
      <trkpt lat="49.68165" lon="-1.27629">
        <ele>4.3</ele>
        <time>2020-06-15T10:14:53Z</time>
      </trkpt>
      <trkpt lat="49.68161" lon="-1.27621">
        <ele>4.3</ele>
        <time>2020-06-15T10:14:54Z</time>
      </trkpt>
      <trkpt lat="49.68156" lon="-1.27615">
        <ele>4.3</ele>
        <time>2020-06-15T10:14:55Z</time>
      </trkpt>
      <trkpt lat="49.68152" lon="-1.27609">
        <ele>4.3</ele>
        <time>2020-06-15T10:14:56Z</time>
      </trkpt>
      <trkpt lat="49.68148" lon="-1.27603">
        <ele>4.3</ele>
        <time>2020-06-15T10:14:57Z</time>
      </trkpt>
      <trkpt lat="49.68143" lon="-1.27598">
        <ele>4.3</ele>
        <time>2020-06-15T10:14:58Z</time>
      </trkpt>
      <trkpt lat="49.68138" lon="-1.27591">
        <ele>4.3</ele>
        <time>2020-06-15T10:14:59Z</time>
      </trkpt>
      <trkpt lat="49.68134" lon="-1.27586">
        <ele>4.3</ele>
        <time>2020-06-15T10:15:00Z</time>
      </trkpt>
      <trkpt lat="49.6813" lon="-1.27581">
        <ele>4.3</ele>
        <time>2020-06-15T10:15:01Z</time>
      </trkpt>
      <trkpt lat="49.68125" lon="-1.27575">
        <ele>4.3</ele>
        <time>2020-06-15T10:15:02Z</time>
      </trkpt>
      <trkpt lat="49.68121" lon="-1.27568">
        <ele>4.2</ele>
        <time>2020-06-15T10:15:03Z</time>
      </trkpt>
      <trkpt lat="49.68117" lon="-1.27563">
        <ele>4.2</ele>
        <time>2020-06-15T10:15:04Z</time>
      </trkpt>
      <trkpt lat="49.68112" lon="-1.27558">
        <ele>4.1</ele>
        <time>2020-06-15T10:15:05Z</time>
      </trkpt>
      <trkpt lat="49.68108" lon="-1.27553">
        <ele>4.1</ele>
        <time>2020-06-15T10:15:06Z</time>
      </trkpt>
      <trkpt lat="49.68103" lon="-1.27545">
        <ele>4</ele>
        <time>2020-06-15T10:15:07Z</time>
      </trkpt>
      <trkpt lat="49.68099" lon="-1.27539">
        <ele>4</ele>
        <time>2020-06-15T10:15:08Z</time>
      </trkpt>
      <trkpt lat="49.68094" lon="-1.27531">
        <ele>3.9</ele>
        <time>2020-06-15T10:15:09Z</time>
      </trkpt>
      <trkpt lat="49.68089" lon="-1.27525">
        <ele>3.8</ele>
        <time>2020-06-15T10:15:10Z</time>
      </trkpt>
      <trkpt lat="49.68085" lon="-1.27518">
        <ele>3.7</ele>
        <time>2020-06-15T10:15:11Z</time>
      </trkpt>
      <trkpt lat="49.6808" lon="-1.27511">
        <ele>3.6</ele>
        <time>2020-06-15T10:15:12Z</time>
      </trkpt>
      <trkpt lat="49.68076" lon="-1.27505">
        <ele>3.5</ele>
        <time>2020-06-15T10:15:13Z</time>
      </trkpt>
      <trkpt lat="49.68071" lon="-1.27498">
        <ele>3.4</ele>
        <time>2020-06-15T10:15:14Z</time>
      </trkpt>
      <trkpt lat="49.68067" lon="-1.27492">
        <ele>3.3</ele>
        <time>2020-06-15T10:15:15Z</time>
      </trkpt>
      <trkpt lat="49.68063" lon="-1.27488">
        <ele>3.2</ele>
        <time>2020-06-15T10:15:16Z</time>
      </trkpt>
      <trkpt lat="49.68058" lon="-1.27482">
        <ele>3.1</ele>
        <time>2020-06-15T10:15:17Z</time>
      </trkpt>
      <trkpt lat="49.68053" lon="-1.27476">
        <ele>3</ele>
        <time>2020-06-15T10:15:18Z</time>
      </trkpt>
      <trkpt lat="49.68048" lon="-1.27471">
        <ele>3</ele>
        <time>2020-06-15T10:15:19Z</time>
      </trkpt>
      <trkpt lat="49.68044" lon="-1.27465">
        <ele>3</ele>
        <time>2020-06-15T10:15:20Z</time>
      </trkpt>
      <trkpt lat="49.68039" lon="-1.27459">
        <ele>3</ele>
        <time>2020-06-15T10:15:21Z</time>
      </trkpt>
      <trkpt lat="49.68034" lon="-1.27453">
        <ele>2.9</ele>
        <time>2020-06-15T10:15:22Z</time>
      </trkpt>
      <trkpt lat="49.68029" lon="-1.27448">
        <ele>2.8</ele>
        <time>2020-06-15T10:15:23Z</time>
      </trkpt>
      <trkpt lat="49.68024" lon="-1.27443">
        <ele>2.8</ele>
        <time>2020-06-15T10:15:24Z</time>
      </trkpt>
      <trkpt lat="49.68019" lon="-1.27438">
        <ele>2.7</ele>
        <time>2020-06-15T10:15:25Z</time>
      </trkpt>
      <trkpt lat="49.68013" lon="-1.27432">
        <ele>2.6</ele>
        <time>2020-06-15T10:15:26Z</time>
      </trkpt>
      <trkpt lat="49.68008" lon="-1.27424">
        <ele>2.5</ele>
        <time>2020-06-15T10:15:27Z</time>
      </trkpt>
      <trkpt lat="49.68003" lon="-1.27416">
        <ele>2.4</ele>
        <time>2020-06-15T10:15:28Z</time>
      </trkpt>
      <trkpt lat="49.67999" lon="-1.27409">
        <ele>2.3</ele>
        <time>2020-06-15T10:15:29Z</time>
      </trkpt>
      <trkpt lat="49.67993" lon="-1.27402">
        <ele>2.2</ele>
        <time>2020-06-15T10:15:30Z</time>
      </trkpt>
      <trkpt lat="49.67987" lon="-1.27396">
        <ele>2.1</ele>
        <time>2020-06-15T10:15:31Z</time>
      </trkpt>
      <trkpt lat="49.67982" lon="-1.27389">
        <ele>2</ele>
        <time>2020-06-15T10:15:32Z</time>
      </trkpt>
      <trkpt lat="49.67977" lon="-1.27382">
        <ele>1.9</ele>
        <time>2020-06-15T10:15:33Z</time>
      </trkpt>
      <trkpt lat="49.67972" lon="-1.27376">
        <ele>1.9</ele>
        <time>2020-06-15T10:15:34Z</time>
      </trkpt>
      <trkpt lat="49.67967" lon="-1.27371">
        <ele>1.8</ele>
        <time>2020-06-15T10:15:35Z</time>
      </trkpt>
      <trkpt lat="49.67962" lon="-1.27365">
        <ele>1.7</ele>
        <time>2020-06-15T10:15:36Z</time>
      </trkpt>
      <trkpt lat="49.67956" lon="-1.27359">
        <ele>1.7</ele>
        <time>2020-06-15T10:15:37Z</time>
      </trkpt>
      <trkpt lat="49.67951" lon="-1.27354">
        <ele>1.6</ele>
        <time>2020-06-15T10:15:38Z</time>
      </trkpt>
      <trkpt lat="49.67945" lon="-1.27348">
        <ele>1.7</ele>
        <time>2020-06-15T10:15:39Z</time>
      </trkpt>
      <trkpt lat="49.67939" lon="-1.27342">
        <ele>1.7</ele>
        <time>2020-06-15T10:15:40Z</time>
      </trkpt>
      <trkpt lat="49.67933" lon="-1.27337">
        <ele>1.7</ele>
        <time>2020-06-15T10:15:41Z</time>
      </trkpt>
      <trkpt lat="49.67929" lon="-1.27333">
        <ele>1.7</ele>
        <time>2020-06-15T10:15:42Z</time>
      </trkpt>
      <trkpt lat="49.67924" lon="-1.27329">
        <ele>1.8</ele>
        <time>2020-06-15T10:15:43Z</time>
      </trkpt>
      <trkpt lat="49.67919" lon="-1.27325">
        <ele>1.8</ele>
        <time>2020-06-15T10:15:44Z</time>
      </trkpt>
      <trkpt lat="49.67914" lon="-1.27319">
        <ele>1.9</ele>
        <time>2020-06-15T10:15:45Z</time>
      </trkpt>
      <trkpt lat="49.6791" lon="-1.27315">
        <ele>1.9</ele>
        <time>2020-06-15T10:15:46Z</time>
      </trkpt>
      <trkpt lat="49.67905" lon="-1.27311">
        <ele>2</ele>
        <time>2020-06-15T10:15:47Z</time>
      </trkpt>
      <trkpt lat="49.67901" lon="-1.27305">
        <ele>2</ele>
        <time>2020-06-15T10:15:48Z</time>
      </trkpt>
      <trkpt lat="49.67896" lon="-1.27301">
        <ele>2</ele>
        <time>2020-06-15T10:15:49Z</time>
      </trkpt>
      <trkpt lat="49.67891" lon="-1.27296">
        <ele>2</ele>
        <time>2020-06-15T10:15:50Z</time>
      </trkpt>
      <trkpt lat="49.67886" lon="-1.27294">
        <ele>2.1</ele>
        <time>2020-06-15T10:15:51Z</time>
      </trkpt>
      <trkpt lat="49.67882" lon="-1.2729">
        <ele>2.1</ele>
        <time>2020-06-15T10:15:52Z</time>
      </trkpt>
      <trkpt lat="49.67879" lon="-1.2729">
        <ele>2.1</ele>
        <time>2020-06-15T10:15:53Z</time>
      </trkpt>
      <trkpt lat="49.67874" lon="-1.27285">
        <ele>2.2</ele>
        <time>2020-06-15T10:15:54Z</time>
      </trkpt>
      <trkpt lat="49.6787" lon="-1.27281">
        <ele>2.2</ele>
        <time>2020-06-15T10:15:55Z</time>
      </trkpt>
      <trkpt lat="49.67865" lon="-1.27277">
        <ele>2.2</ele>
        <time>2020-06-15T10:15:56Z</time>
      </trkpt>
      <trkpt lat="49.67862" lon="-1.27275">
        <ele>2.3</ele>
        <time>2020-06-15T10:15:57Z</time>
      </trkpt>
      <trkpt lat="49.67858" lon="-1.27272">
        <ele>2.3</ele>
        <time>2020-06-15T10:15:58Z</time>
      </trkpt>
      <trkpt lat="49.67853" lon="-1.27269">
        <ele>2.3</ele>
        <time>2020-06-15T10:15:59Z</time>
      </trkpt>
      <trkpt lat="49.67848" lon="-1.27265">
        <ele>2.4</ele>
        <time>2020-06-15T10:16:00Z</time>
      </trkpt>
      <trkpt lat="49.67843" lon="-1.27262">
        <ele>2.4</ele>
        <time>2020-06-15T10:16:01Z</time>
      </trkpt>
      <trkpt lat="49.67838" lon="-1.27258">
        <ele>2.4</ele>
        <time>2020-06-15T10:16:02Z</time>
      </trkpt>
      <trkpt lat="49.67832" lon="-1.27254">
        <ele>2.5</ele>
        <time>2020-06-15T10:16:03Z</time>
      </trkpt>
      <trkpt lat="49.67827" lon="-1.2725">
        <ele>2.6</ele>
        <time>2020-06-15T10:16:04Z</time>
      </trkpt>
      <trkpt lat="49.67821" lon="-1.27246">
        <ele>2.6</ele>
        <time>2020-06-15T10:16:05Z</time>
      </trkpt>
      <trkpt lat="49.67816" lon="-1.27242">
        <ele>2.7</ele>
        <time>2020-06-15T10:16:06Z</time>
      </trkpt>
      <trkpt lat="49.6781" lon="-1.27237">
        <ele>2.8</ele>
        <time>2020-06-15T10:16:07Z</time>
      </trkpt>
      <trkpt lat="49.67805" lon="-1.27234">
        <ele>2.9</ele>
        <time>2020-06-15T10:16:08Z</time>
      </trkpt>
      <trkpt lat="49.678" lon="-1.27231">
        <ele>2.9</ele>
        <time>2020-06-15T10:16:09Z</time>
      </trkpt>
      <trkpt lat="49.67795" lon="-1.27229">
        <ele>3</ele>
        <time>2020-06-15T10:16:10Z</time>
      </trkpt>
      <trkpt lat="49.6779" lon="-1.27227">
        <ele>3</ele>
        <time>2020-06-15T10:16:11Z</time>
      </trkpt>
      <trkpt lat="49.67784" lon="-1.27226">
        <ele>3.1</ele>
        <time>2020-06-15T10:16:12Z</time>
      </trkpt>
      <trkpt lat="49.6778" lon="-1.27224">
        <ele>3.1</ele>
        <time>2020-06-15T10:16:13Z</time>
      </trkpt>
      <trkpt lat="49.67775" lon="-1.27224">
        <ele>3.1</ele>
        <time>2020-06-15T10:16:14Z</time>
      </trkpt>
      <trkpt lat="49.67769" lon="-1.27223">
        <ele>3.1</ele>
        <time>2020-06-15T10:16:15Z</time>
      </trkpt>
      <trkpt lat="49.67764" lon="-1.27223">
        <ele>3.2</ele>
        <time>2020-06-15T10:16:16Z</time>
      </trkpt>
      <trkpt lat="49.67759" lon="-1.27223">
        <ele>3.2</ele>
        <time>2020-06-15T10:16:17Z</time>
      </trkpt>
      <trkpt lat="49.67754" lon="-1.27221">
        <ele>3.2</ele>
        <time>2020-06-15T10:16:18Z</time>
      </trkpt>
      <trkpt lat="49.67749" lon="-1.27222">
        <ele>3.3</ele>
        <time>2020-06-15T10:16:19Z</time>
      </trkpt>
      <trkpt lat="49.67744" lon="-1.27222">
        <ele>3.3</ele>
        <time>2020-06-15T10:16:20Z</time>
      </trkpt>
      <trkpt lat="49.67739" lon="-1.27222">
        <ele>3.4</ele>
        <time>2020-06-15T10:16:21Z</time>
      </trkpt>
      <trkpt lat="49.67734" lon="-1.27222">
        <ele>3.4</ele>
        <time>2020-06-15T10:16:22Z</time>
      </trkpt>
      <trkpt lat="49.67728" lon="-1.27221">
        <ele>3.5</ele>
        <time>2020-06-15T10:16:23Z</time>
      </trkpt>
      <trkpt lat="49.67723" lon="-1.27221">
        <ele>3.5</ele>
        <time>2020-06-15T10:16:24Z</time>
      </trkpt>
      <trkpt lat="49.67718" lon="-1.27221">
        <ele>3.6</ele>
        <time>2020-06-15T10:16:25Z</time>
      </trkpt>
      <trkpt lat="49.67713" lon="-1.27221">
        <ele>3.6</ele>
        <time>2020-06-15T10:16:26Z</time>
      </trkpt>
      <trkpt lat="49.67708" lon="-1.27221">
        <ele>3.7</ele>
        <time>2020-06-15T10:16:27Z</time>
      </trkpt>
      <trkpt lat="49.67703" lon="-1.27221">
        <ele>3.8</ele>
        <time>2020-06-15T10:16:28Z</time>
      </trkpt>
      <trkpt lat="49.67698" lon="-1.27221">
        <ele>3.9</ele>
        <time>2020-06-15T10:16:29Z</time>
      </trkpt>
      <trkpt lat="49.67693" lon="-1.27223">
        <ele>4</ele>
        <time>2020-06-15T10:16:30Z</time>
      </trkpt>
      <trkpt lat="49.67687" lon="-1.27223">
        <ele>4</ele>
        <time>2020-06-15T10:16:31Z</time>
      </trkpt>
      <trkpt lat="49.67682" lon="-1.27224">
        <ele>4.1</ele>
        <time>2020-06-15T10:16:32Z</time>
      </trkpt>
      <trkpt lat="49.67677" lon="-1.27224">
        <ele>4.2</ele>
        <time>2020-06-15T10:16:33Z</time>
      </trkpt>
      <trkpt lat="49.67672" lon="-1.27224">
        <ele>4.3</ele>
        <time>2020-06-15T10:16:34Z</time>
      </trkpt>
      <trkpt lat="49.67667" lon="-1.27223">
        <ele>4.4</ele>
        <time>2020-06-15T10:16:35Z</time>
      </trkpt>
      <trkpt lat="49.67662" lon="-1.27223">
        <ele>4.5</ele>
        <time>2020-06-15T10:16:36Z</time>
      </trkpt>
      <trkpt lat="49.67657" lon="-1.27223">
        <ele>4.5</ele>
        <time>2020-06-15T10:16:37Z</time>
      </trkpt>
      <trkpt lat="49.67651" lon="-1.27224">
        <ele>4.6</ele>
        <time>2020-06-15T10:16:38Z</time>
      </trkpt>
      <trkpt lat="49.67647" lon="-1.27223">
        <ele>4.6</ele>
        <time>2020-06-15T10:16:39Z</time>
      </trkpt>
      <trkpt lat="49.67642" lon="-1.27223">
        <ele>4.7</ele>
        <time>2020-06-15T10:16:40Z</time>
      </trkpt>
      <trkpt lat="49.67638" lon="-1.27222">
        <ele>4.9</ele>
        <time>2020-06-15T10:16:41Z</time>
      </trkpt>
      <trkpt lat="49.67633" lon="-1.27221">
        <ele>4.9</ele>
        <time>2020-06-15T10:16:42Z</time>
      </trkpt>
      <trkpt lat="49.67627" lon="-1.27221">
        <ele>5</ele>
        <time>2020-06-15T10:16:43Z</time>
      </trkpt>
      <trkpt lat="49.67622" lon="-1.27221">
        <ele>5.1</ele>
        <time>2020-06-15T10:16:44Z</time>
      </trkpt>
      <trkpt lat="49.67617" lon="-1.27218">
        <ele>5.2</ele>
        <time>2020-06-15T10:16:45Z</time>
      </trkpt>
      <trkpt lat="49.67611" lon="-1.27217">
        <ele>5.3</ele>
        <time>2020-06-15T10:16:46Z</time>
      </trkpt>
      <trkpt lat="49.67607" lon="-1.27217">
        <ele>5.4</ele>
        <time>2020-06-15T10:16:47Z</time>
      </trkpt>
      <trkpt lat="49.67601" lon="-1.27214">
        <ele>5.5</ele>
        <time>2020-06-15T10:16:48Z</time>
      </trkpt>
      <trkpt lat="49.67597" lon="-1.27211">
        <ele>5.6</ele>
        <time>2020-06-15T10:16:49Z</time>
      </trkpt>
      <trkpt lat="49.67592" lon="-1.27209">
        <ele>5.7</ele>
        <time>2020-06-15T10:16:50Z</time>
      </trkpt>
      <trkpt lat="49.67587" lon="-1.27207">
        <ele>5.8</ele>
        <time>2020-06-15T10:16:51Z</time>
      </trkpt>
      <trkpt lat="49.67583" lon="-1.27205">
        <ele>5.9</ele>
        <time>2020-06-15T10:16:52Z</time>
      </trkpt>
      <trkpt lat="49.67577" lon="-1.27201">
        <ele>6.1</ele>
        <time>2020-06-15T10:16:53Z</time>
      </trkpt>
      <trkpt lat="49.67572" lon="-1.27198">
        <ele>6.2</ele>
        <time>2020-06-15T10:16:54Z</time>
      </trkpt>
      <trkpt lat="49.67568" lon="-1.27193">
        <ele>6.4</ele>
        <time>2020-06-15T10:16:55Z</time>
      </trkpt>
      <trkpt lat="49.67564" lon="-1.2719">
        <ele>6.5</ele>
        <time>2020-06-15T10:16:56Z</time>
      </trkpt>
      <trkpt lat="49.6756" lon="-1.27187">
        <ele>6.6</ele>
        <time>2020-06-15T10:16:57Z</time>
      </trkpt>
      <trkpt lat="49.67556" lon="-1.27184">
        <ele>6.7</ele>
        <time>2020-06-15T10:16:58Z</time>
      </trkpt>
      <trkpt lat="49.67552" lon="-1.27181">
        <ele>6.8</ele>
        <time>2020-06-15T10:16:59Z</time>
      </trkpt>
      <trkpt lat="49.67548" lon="-1.27179">
        <ele>6.9</ele>
        <time>2020-06-15T10:17:00Z</time>
      </trkpt>
      <trkpt lat="49.67544" lon="-1.27175">
        <ele>7</ele>
        <time>2020-06-15T10:17:01Z</time>
      </trkpt>
      <trkpt lat="49.67539" lon="-1.27171">
        <ele>7.1</ele>
        <time>2020-06-15T10:17:02Z</time>
      </trkpt>
      <trkpt lat="49.67535" lon="-1.27167">
        <ele>7.2</ele>
        <time>2020-06-15T10:17:03Z</time>
      </trkpt>
      <trkpt lat="49.6753" lon="-1.27164">
        <ele>7.3</ele>
        <time>2020-06-15T10:17:04Z</time>
      </trkpt>
      <trkpt lat="49.67526" lon="-1.27161">
        <ele>7.4</ele>
        <time>2020-06-15T10:17:05Z</time>
      </trkpt>
      <trkpt lat="49.67522" lon="-1.27158">
        <ele>7.5</ele>
        <time>2020-06-15T10:17:06Z</time>
      </trkpt>
      <trkpt lat="49.67518" lon="-1.27156">
        <ele>7.6</ele>
        <time>2020-06-15T10:17:07Z</time>
      </trkpt>
      <trkpt lat="49.67513" lon="-1.27153">
        <ele>7.6</ele>
        <time>2020-06-15T10:17:08Z</time>
      </trkpt>
      <trkpt lat="49.67509" lon="-1.27152">
        <ele>7.7</ele>
        <time>2020-06-15T10:17:09Z</time>
      </trkpt>
      <trkpt lat="49.67505" lon="-1.27149">
        <ele>7.8</ele>
        <time>2020-06-15T10:17:10Z</time>
      </trkpt>
      <trkpt lat="49.67501" lon="-1.27146">
        <ele>7.8</ele>
        <time>2020-06-15T10:17:11Z</time>
      </trkpt>
      <trkpt lat="49.67497" lon="-1.27143">
        <ele>7.9</ele>
        <time>2020-06-15T10:17:12Z</time>
      </trkpt>
      <trkpt lat="49.67493" lon="-1.2714">
        <ele>7.9</ele>
        <time>2020-06-15T10:17:13Z</time>
      </trkpt>
      <trkpt lat="49.67489" lon="-1.27137">
        <ele>8</ele>
        <time>2020-06-15T10:17:14Z</time>
      </trkpt>
      <trkpt lat="49.67484" lon="-1.27134">
        <ele>8.1</ele>
        <time>2020-06-15T10:17:15Z</time>
      </trkpt>
      <trkpt lat="49.67479" lon="-1.27131">
        <ele>8.1</ele>
        <time>2020-06-15T10:17:16Z</time>
      </trkpt>
      <trkpt lat="49.67474" lon="-1.27129">
        <ele>8.2</ele>
        <time>2020-06-15T10:17:17Z</time>
      </trkpt>
      <trkpt lat="49.6747" lon="-1.27126">
        <ele>8.2</ele>
        <time>2020-06-15T10:17:18Z</time>
      </trkpt>
      <trkpt lat="49.67466" lon="-1.27124">
        <ele>8.3</ele>
        <time>2020-06-15T10:17:19Z</time>
      </trkpt>
      <trkpt lat="49.67461" lon="-1.27122">
        <ele>8.3</ele>
        <time>2020-06-15T10:17:20Z</time>
      </trkpt>
      <trkpt lat="49.67456" lon="-1.2712">
        <ele>8.3</ele>
        <time>2020-06-15T10:17:21Z</time>
      </trkpt>
      <trkpt lat="49.67451" lon="-1.27119">
        <ele>8.3</ele>
        <time>2020-06-15T10:17:22Z</time>
      </trkpt>
      <trkpt lat="49.67446" lon="-1.27117">
        <ele>8.3</ele>
        <time>2020-06-15T10:17:23Z</time>
      </trkpt>
      <trkpt lat="49.67441" lon="-1.27113">
        <ele>8.2</ele>
        <time>2020-06-15T10:17:24Z</time>
      </trkpt>
      <trkpt lat="49.67436" lon="-1.2711">
        <ele>8.2</ele>
        <time>2020-06-15T10:17:25Z</time>
      </trkpt>
      <trkpt lat="49.67431" lon="-1.27107">
        <ele>8.1</ele>
        <time>2020-06-15T10:17:26Z</time>
      </trkpt>
      <trkpt lat="49.67426" lon="-1.27103">
        <ele>8.1</ele>
        <time>2020-06-15T10:17:27Z</time>
      </trkpt>
      <trkpt lat="49.6742" lon="-1.27101">
        <ele>8</ele>
        <time>2020-06-15T10:17:28Z</time>
      </trkpt>
      <trkpt lat="49.67415" lon="-1.27099">
        <ele>8</ele>
        <time>2020-06-15T10:17:29Z</time>
      </trkpt>
      <trkpt lat="49.67409" lon="-1.27098">
        <ele>8</ele>
        <time>2020-06-15T10:17:30Z</time>
      </trkpt>
      <trkpt lat="49.67403" lon="-1.27096">
        <ele>7.9</ele>
        <time>2020-06-15T10:17:31Z</time>
      </trkpt>
      <trkpt lat="49.67397" lon="-1.27095">
        <ele>7.9</ele>
        <time>2020-06-15T10:17:32Z</time>
      </trkpt>
      <trkpt lat="49.67391" lon="-1.27094">
        <ele>7.9</ele>
        <time>2020-06-15T10:17:33Z</time>
      </trkpt>
      <trkpt lat="49.67385" lon="-1.27093">
        <ele>7.9</ele>
        <time>2020-06-15T10:17:34Z</time>
      </trkpt>
      <trkpt lat="49.67379" lon="-1.27091">
        <ele>7.9</ele>
        <time>2020-06-15T10:17:35Z</time>
      </trkpt>
      <trkpt lat="49.67374" lon="-1.27089">
        <ele>7.9</ele>
        <time>2020-06-15T10:17:36Z</time>
      </trkpt>
      <trkpt lat="49.67369" lon="-1.27087">
        <ele>8</ele>
        <time>2020-06-15T10:17:37Z</time>
      </trkpt>
      <trkpt lat="49.67364" lon="-1.27086">
        <ele>8</ele>
        <time>2020-06-15T10:17:38Z</time>
      </trkpt>
      <trkpt lat="49.67358" lon="-1.27085">
        <ele>8</ele>
        <time>2020-06-15T10:17:39Z</time>
      </trkpt>
      <trkpt lat="49.67353" lon="-1.27084">
        <ele>7.9</ele>
        <time>2020-06-15T10:17:40Z</time>
      </trkpt>
      <trkpt lat="49.67348" lon="-1.27083">
        <ele>7.9</ele>
        <time>2020-06-15T10:17:41Z</time>
      </trkpt>
      <trkpt lat="49.67343" lon="-1.27083">
        <ele>7.8</ele>
        <time>2020-06-15T10:17:42Z</time>
      </trkpt>
      <trkpt lat="49.67338" lon="-1.27082">
        <ele>7.6</ele>
        <time>2020-06-15T10:17:43Z</time>
      </trkpt>
      <trkpt lat="49.67333" lon="-1.27081">
        <ele>7.5</ele>
        <time>2020-06-15T10:17:44Z</time>
      </trkpt>
      <trkpt lat="49.67328" lon="-1.27079">
        <ele>7.2</ele>
        <time>2020-06-15T10:17:45Z</time>
      </trkpt>
      <trkpt lat="49.67323" lon="-1.27076">
        <ele>7</ele>
        <time>2020-06-15T10:17:46Z</time>
      </trkpt>
      <trkpt lat="49.67317" lon="-1.27073">
        <ele>6.7</ele>
        <time>2020-06-15T10:17:47Z</time>
      </trkpt>
      <trkpt lat="49.67312" lon="-1.27068">
        <ele>6.4</ele>
        <time>2020-06-15T10:17:48Z</time>
      </trkpt>
      <trkpt lat="49.67307" lon="-1.27063">
        <ele>6.1</ele>
        <time>2020-06-15T10:17:49Z</time>
      </trkpt>
      <trkpt lat="49.67302" lon="-1.27057">
        <ele>5.8</ele>
        <time>2020-06-15T10:17:50Z</time>
      </trkpt>
      <trkpt lat="49.67297" lon="-1.27049">
        <ele>5.5</ele>
        <time>2020-06-15T10:17:51Z</time>
      </trkpt>
      <trkpt lat="49.67292" lon="-1.2704">
        <ele>5.1</ele>
        <time>2020-06-15T10:17:52Z</time>
      </trkpt>
      <trkpt lat="49.67287" lon="-1.2703">
        <ele>4.8</ele>
        <time>2020-06-15T10:17:53Z</time>
      </trkpt>
      <trkpt lat="49.67282" lon="-1.27021">
        <ele>4.5</ele>
        <time>2020-06-15T10:17:54Z</time>
      </trkpt>
      <trkpt lat="49.67277" lon="-1.2701">
        <ele>4.2</ele>
        <time>2020-06-15T10:17:55Z</time>
      </trkpt>
      <trkpt lat="49.67272" lon="-1.26999">
        <ele>4</ele>
        <time>2020-06-15T10:17:56Z</time>
      </trkpt>
      <trkpt lat="49.67268" lon="-1.26991">
        <ele>3.8</ele>
        <time>2020-06-15T10:17:57Z</time>
      </trkpt>
      <trkpt lat="49.67263" lon="-1.26981">
        <ele>3.6</ele>
        <time>2020-06-15T10:17:58Z</time>
      </trkpt>
      <trkpt lat="49.67258" lon="-1.26971">
        <ele>3.5</ele>
        <time>2020-06-15T10:17:59Z</time>
      </trkpt>
      <trkpt lat="49.67254" lon="-1.26962">
        <ele>3.4</ele>
        <time>2020-06-15T10:18:00Z</time>
      </trkpt>
      <trkpt lat="49.6725" lon="-1.26952">
        <ele>3.4</ele>
        <time>2020-06-15T10:18:01Z</time>
      </trkpt>
      <trkpt lat="49.67246" lon="-1.26942">
        <ele>3.5</ele>
        <time>2020-06-15T10:18:02Z</time>
      </trkpt>
      <trkpt lat="49.67242" lon="-1.26934">
        <ele>3.6</ele>
        <time>2020-06-15T10:18:03Z</time>
      </trkpt>
      <trkpt lat="49.67238" lon="-1.26925">
        <ele>3.6</ele>
        <time>2020-06-15T10:18:04Z</time>
      </trkpt>
      <trkpt lat="49.67233" lon="-1.26916">
        <ele>3.7</ele>
        <time>2020-06-15T10:18:05Z</time>
      </trkpt>
      <trkpt lat="49.67229" lon="-1.26906">
        <ele>3.6</ele>
        <time>2020-06-15T10:18:06Z</time>
      </trkpt>
      <trkpt lat="49.67225" lon="-1.26897">
        <ele>3.5</ele>
        <time>2020-06-15T10:18:07Z</time>
      </trkpt>
      <trkpt lat="49.6722" lon="-1.26888">
        <ele>3.5</ele>
        <time>2020-06-15T10:18:08Z</time>
      </trkpt>
      <trkpt lat="49.67216" lon="-1.26881">
        <ele>3.5</ele>
        <time>2020-06-15T10:18:09Z</time>
      </trkpt>
      <trkpt lat="49.67211" lon="-1.26874">
        <ele>3.6</ele>
        <time>2020-06-15T10:18:10Z</time>
      </trkpt>
      <trkpt lat="49.67206" lon="-1.26867">
        <ele>3.6</ele>
        <time>2020-06-15T10:18:11Z</time>
      </trkpt>
      <trkpt lat="49.67201" lon="-1.26861">
        <ele>3.7</ele>
        <time>2020-06-15T10:18:12Z</time>
      </trkpt>
      <trkpt lat="49.67196" lon="-1.26856">
        <ele>3.7</ele>
        <time>2020-06-15T10:18:13Z</time>
      </trkpt>
      <trkpt lat="49.6719" lon="-1.26851">
        <ele>3.7</ele>
        <time>2020-06-15T10:18:14Z</time>
      </trkpt>
      <trkpt lat="49.67185" lon="-1.26846">
        <ele>3.8</ele>
        <time>2020-06-15T10:18:15Z</time>
      </trkpt>
      <trkpt lat="49.6718" lon="-1.26841">
        <ele>3.8</ele>
        <time>2020-06-15T10:18:16Z</time>
      </trkpt>
      <trkpt lat="49.67174" lon="-1.26837">
        <ele>3.9</ele>
        <time>2020-06-15T10:18:17Z</time>
      </trkpt>
      <trkpt lat="49.67169" lon="-1.26832">
        <ele>3.9</ele>
        <time>2020-06-15T10:18:18Z</time>
      </trkpt>
      <trkpt lat="49.67164" lon="-1.26828">
        <ele>4</ele>
        <time>2020-06-15T10:18:19Z</time>
      </trkpt>
      <trkpt lat="49.67159" lon="-1.26824">
        <ele>4</ele>
        <time>2020-06-15T10:18:20Z</time>
      </trkpt>
      <trkpt lat="49.67154" lon="-1.26818">
        <ele>4</ele>
        <time>2020-06-15T10:18:21Z</time>
      </trkpt>
      <trkpt lat="49.67149" lon="-1.26813">
        <ele>4.1</ele>
        <time>2020-06-15T10:18:22Z</time>
      </trkpt>
      <trkpt lat="49.67144" lon="-1.26807">
        <ele>4</ele>
        <time>2020-06-15T10:18:23Z</time>
      </trkpt>
      <trkpt lat="49.67139" lon="-1.26803">
        <ele>4</ele>
        <time>2020-06-15T10:18:24Z</time>
      </trkpt>
      <trkpt lat="49.67135" lon="-1.26797">
        <ele>4</ele>
        <time>2020-06-15T10:18:25Z</time>
      </trkpt>
      <trkpt lat="49.6713" lon="-1.26792">
        <ele>4</ele>
        <time>2020-06-15T10:18:26Z</time>
      </trkpt>
      <trkpt lat="49.67125" lon="-1.26789">
        <ele>4</ele>
        <time>2020-06-15T10:18:27Z</time>
      </trkpt>
      <trkpt lat="49.6712" lon="-1.26785">
        <ele>4</ele>
        <time>2020-06-15T10:18:28Z</time>
      </trkpt>
      <trkpt lat="49.67115" lon="-1.26781">
        <ele>4</ele>
        <time>2020-06-15T10:18:29Z</time>
      </trkpt>
      <trkpt lat="49.6711" lon="-1.26777">
        <ele>4</ele>
        <time>2020-06-15T10:18:30Z</time>
      </trkpt>
      <trkpt lat="49.67106" lon="-1.26771">
        <ele>4</ele>
        <time>2020-06-15T10:18:31Z</time>
      </trkpt>
      <trkpt lat="49.67102" lon="-1.26766">
        <ele>3.9</ele>
        <time>2020-06-15T10:18:32Z</time>
      </trkpt>
      <trkpt lat="49.67097" lon="-1.26761">
        <ele>3.9</ele>
        <time>2020-06-15T10:18:33Z</time>
      </trkpt>
      <trkpt lat="49.67092" lon="-1.26757">
        <ele>3.9</ele>
        <time>2020-06-15T10:18:34Z</time>
      </trkpt>
      <trkpt lat="49.67088" lon="-1.26752">
        <ele>3.8</ele>
        <time>2020-06-15T10:18:35Z</time>
      </trkpt>
      <trkpt lat="49.67084" lon="-1.26748">
        <ele>3.8</ele>
        <time>2020-06-15T10:18:36Z</time>
      </trkpt>
      <trkpt lat="49.6708" lon="-1.26743">
        <ele>3.7</ele>
        <time>2020-06-15T10:18:37Z</time>
      </trkpt>
      <trkpt lat="49.67076" lon="-1.26738">
        <ele>3.7</ele>
        <time>2020-06-15T10:18:38Z</time>
      </trkpt>
      <trkpt lat="49.67072" lon="-1.26731">
        <ele>3.7</ele>
        <time>2020-06-15T10:18:39Z</time>
      </trkpt>
      <trkpt lat="49.67069" lon="-1.26724">
        <ele>3.7</ele>
        <time>2020-06-15T10:18:40Z</time>
      </trkpt>
      <trkpt lat="49.67066" lon="-1.26718">
        <ele>3.6</ele>
        <time>2020-06-15T10:18:41Z</time>
      </trkpt>
      <trkpt lat="49.67063" lon="-1.26711">
        <ele>3.7</ele>
        <time>2020-06-15T10:18:42Z</time>
      </trkpt>
      <trkpt lat="49.6706" lon="-1.26705">
        <ele>3.8</ele>
        <time>2020-06-15T10:18:43Z</time>
      </trkpt>
      <trkpt lat="49.67057" lon="-1.26702">
        <ele>3.8</ele>
        <time>2020-06-15T10:18:44Z</time>
      </trkpt>
      <trkpt lat="49.67055" lon="-1.26699">
        <ele>3.8</ele>
        <time>2020-06-15T10:18:45Z</time>
      </trkpt>
      <trkpt lat="49.67055" lon="-1.26697">
        <ele>3.8</ele>
        <time>2020-06-15T10:18:46Z</time>
      </trkpt>
      <trkpt lat="49.67052" lon="-1.26694">
        <ele>3.9</ele>
        <time>2020-06-15T10:18:47Z</time>
      </trkpt>
      <trkpt lat="49.67051" lon="-1.26694">
        <ele>3.9</ele>
        <time>2020-06-15T10:18:48Z</time>
      </trkpt>
      <trkpt lat="49.6705" lon="-1.26693">
        <ele>4</ele>
        <time>2020-06-15T10:18:49Z</time>
      </trkpt>
      <trkpt lat="49.67048" lon="-1.26692">
        <ele>3.9</ele>
        <time>2020-06-15T10:18:50Z</time>
      </trkpt>
      <trkpt lat="49.67045" lon="-1.26689">
        <ele>3.9</ele>
        <time>2020-06-15T10:18:51Z</time>
      </trkpt>
      <trkpt lat="49.67044" lon="-1.26689">
        <ele>3.8</ele>
        <time>2020-06-15T10:18:52Z</time>
      </trkpt>
      <trkpt lat="49.67042" lon="-1.26684">
        <ele>3.8</ele>
        <time>2020-06-15T10:18:53Z</time>
      </trkpt>
      <trkpt lat="49.67041" lon="-1.26683">
        <ele>3.8</ele>
        <time>2020-06-15T10:18:54Z</time>
      </trkpt>
      <trkpt lat="49.67039" lon="-1.26678">
        <ele>3.7</ele>
        <time>2020-06-15T10:18:55Z</time>
      </trkpt>
      <trkpt lat="49.67036" lon="-1.26672">
        <ele>3.7</ele>
        <time>2020-06-15T10:18:56Z</time>
      </trkpt>
      <trkpt lat="49.67033" lon="-1.26667">
        <ele>3.6</ele>
        <time>2020-06-15T10:18:57Z</time>
      </trkpt>
      <trkpt lat="49.6703" lon="-1.26662">
        <ele>3.6</ele>
        <time>2020-06-15T10:18:58Z</time>
      </trkpt>
      <trkpt lat="49.67027" lon="-1.26656">
        <ele>3.5</ele>
        <time>2020-06-15T10:18:59Z</time>
      </trkpt>
      <trkpt lat="49.67024" lon="-1.26651">
        <ele>3.5</ele>
        <time>2020-06-15T10:19:00Z</time>
      </trkpt>
      <trkpt lat="49.67021" lon="-1.26646">
        <ele>3.5</ele>
        <time>2020-06-15T10:19:01Z</time>
      </trkpt>
      <trkpt lat="49.67018" lon="-1.26641">
        <ele>3.5</ele>
        <time>2020-06-15T10:19:02Z</time>
      </trkpt>
      <trkpt lat="49.67015" lon="-1.26636">
        <ele>3.5</ele>
        <time>2020-06-15T10:19:03Z</time>
      </trkpt>
      <trkpt lat="49.67013" lon="-1.26631">
        <ele>3.5</ele>
        <time>2020-06-15T10:19:04Z</time>
      </trkpt>
      <trkpt lat="49.67009" lon="-1.26626">
        <ele>3.5</ele>
        <time>2020-06-15T10:19:05Z</time>
      </trkpt>
      <trkpt lat="49.67007" lon="-1.2662">
        <ele>3.5</ele>
        <time>2020-06-15T10:19:06Z</time>
      </trkpt>
      <trkpt lat="49.67004" lon="-1.26616">
        <ele>3.6</ele>
        <time>2020-06-15T10:19:07Z</time>
      </trkpt>
      <trkpt lat="49.67001" lon="-1.2661">
        <ele>3.7</ele>
        <time>2020-06-15T10:19:08Z</time>
      </trkpt>
      <trkpt lat="49.66997" lon="-1.26604">
        <ele>3.7</ele>
        <time>2020-06-15T10:19:09Z</time>
      </trkpt>
      <trkpt lat="49.66995" lon="-1.26598">
        <ele>3.9</ele>
        <time>2020-06-15T10:19:10Z</time>
      </trkpt>
      <trkpt lat="49.66992" lon="-1.26593">
        <ele>4</ele>
        <time>2020-06-15T10:19:11Z</time>
      </trkpt>
      <trkpt lat="49.66989" lon="-1.26588">
        <ele>4.1</ele>
        <time>2020-06-15T10:19:12Z</time>
      </trkpt>
      <trkpt lat="49.66987" lon="-1.26584">
        <ele>4.2</ele>
        <time>2020-06-15T10:19:13Z</time>
      </trkpt>
      <trkpt lat="49.66985" lon="-1.2658">
        <ele>4.3</ele>
        <time>2020-06-15T10:19:14Z</time>
      </trkpt>
      <trkpt lat="49.66982" lon="-1.26575">
        <ele>4.4</ele>
        <time>2020-06-15T10:19:15Z</time>
      </trkpt>
      <trkpt lat="49.6698" lon="-1.26571">
        <ele>4.5</ele>
        <time>2020-06-15T10:19:16Z</time>
      </trkpt>
      <trkpt lat="49.66977" lon="-1.26568">
        <ele>4.6</ele>
        <time>2020-06-15T10:19:17Z</time>
      </trkpt>
      <trkpt lat="49.66975" lon="-1.26565">
        <ele>4.6</ele>
        <time>2020-06-15T10:19:18Z</time>
      </trkpt>
      <trkpt lat="49.66974" lon="-1.26563">
        <ele>4.6</ele>
        <time>2020-06-15T10:19:19Z</time>
      </trkpt>
      <trkpt lat="49.66973" lon="-1.26562">
        <ele>4.7</ele>
        <time>2020-06-15T10:19:20Z</time>
      </trkpt>
      <trkpt lat="49.66972" lon="-1.26559">
        <ele>4.7</ele>
        <time>2020-06-15T10:19:21Z</time>
      </trkpt>
      <trkpt lat="49.66972" lon="-1.26557">
        <ele>4.7</ele>
        <time>2020-06-15T10:19:22Z</time>
      </trkpt>
      <trkpt lat="49.66971" lon="-1.26556">
        <ele>4.7</ele>
        <time>2020-06-15T10:19:23Z</time>
      </trkpt>
      <trkpt lat="49.66971" lon="-1.26552">
        <ele>4.7</ele>
        <time>2020-06-15T10:19:24Z</time>
      </trkpt>
      <trkpt lat="49.66971" lon="-1.2655">
        <ele>4.6</ele>
        <time>2020-06-15T10:19:25Z</time>
      </trkpt>
      <trkpt lat="49.66973" lon="-1.26546">
        <ele>4.6</ele>
        <time>2020-06-15T10:19:26Z</time>
      </trkpt>
      <trkpt lat="49.66977" lon="-1.26544">
        <ele>4.6</ele>
        <time>2020-06-15T10:19:27Z</time>
      </trkpt>
      <trkpt lat="49.6698" lon="-1.2654">
        <ele>4.5</ele>
        <time>2020-06-15T10:19:28Z</time>
      </trkpt>
      <trkpt lat="49.66983" lon="-1.26535">
        <ele>4.5</ele>
        <time>2020-06-15T10:19:29Z</time>
      </trkpt>
      <trkpt lat="49.66986" lon="-1.2653">
        <ele>4.4</ele>
        <time>2020-06-15T10:19:30Z</time>
      </trkpt>
      <trkpt lat="49.66988" lon="-1.26525">
        <ele>4.4</ele>
        <time>2020-06-15T10:19:31Z</time>
      </trkpt>
      <trkpt lat="49.6699" lon="-1.2652">
        <ele>4.4</ele>
        <time>2020-06-15T10:19:32Z</time>
      </trkpt>
      <trkpt lat="49.66993" lon="-1.26515">
        <ele>4.3</ele>
        <time>2020-06-15T10:19:33Z</time>
      </trkpt>
      <trkpt lat="49.66996" lon="-1.2651">
        <ele>4.3</ele>
        <time>2020-06-15T10:19:34Z</time>
      </trkpt>
      <trkpt lat="49.66998" lon="-1.26504">
        <ele>4.3</ele>
        <time>2020-06-15T10:19:35Z</time>
      </trkpt>
      <trkpt lat="49.67001" lon="-1.26498">
        <ele>4.2</ele>
        <time>2020-06-15T10:19:36Z</time>
      </trkpt>
      <trkpt lat="49.67005" lon="-1.26491">
        <ele>4.2</ele>
        <time>2020-06-15T10:19:37Z</time>
      </trkpt>
      <trkpt lat="49.67007" lon="-1.26485">
        <ele>4.2</ele>
        <time>2020-06-15T10:19:38Z</time>
      </trkpt>
      <trkpt lat="49.6701" lon="-1.26479">
        <ele>4.2</ele>
        <time>2020-06-15T10:19:39Z</time>
      </trkpt>
      <trkpt lat="49.67013" lon="-1.26472">
        <ele>4.2</ele>
        <time>2020-06-15T10:19:40Z</time>
      </trkpt>
      <trkpt lat="49.67014" lon="-1.26465">
        <ele>4.2</ele>
        <time>2020-06-15T10:19:41Z</time>
      </trkpt>
      <trkpt lat="49.67017" lon="-1.26458">
        <ele>4.2</ele>
        <time>2020-06-15T10:19:42Z</time>
      </trkpt>
      <trkpt lat="49.6702" lon="-1.26452">
        <ele>4.2</ele>
        <time>2020-06-15T10:19:43Z</time>
      </trkpt>
      <trkpt lat="49.67023" lon="-1.26448">
        <ele>4.2</ele>
        <time>2020-06-15T10:19:44Z</time>
      </trkpt>
      <trkpt lat="49.67026" lon="-1.26443">
        <ele>4.2</ele>
        <time>2020-06-15T10:19:45Z</time>
      </trkpt>
      <trkpt lat="49.67029" lon="-1.26436">
        <ele>4.2</ele>
        <time>2020-06-15T10:19:46Z</time>
      </trkpt>
      <trkpt lat="49.67031" lon="-1.2643">
        <ele>4.2</ele>
        <time>2020-06-15T10:19:47Z</time>
      </trkpt>
      <trkpt lat="49.67034" lon="-1.26424">
        <ele>4</ele>
        <time>2020-06-15T10:19:48Z</time>
      </trkpt>
      <trkpt lat="49.67036" lon="-1.26418">
        <ele>3.9</ele>
        <time>2020-06-15T10:19:49Z</time>
      </trkpt>
      <trkpt lat="49.67038" lon="-1.26413">
        <ele>3.7</ele>
        <time>2020-06-15T10:19:50Z</time>
      </trkpt>
      <trkpt lat="49.6704" lon="-1.26408">
        <ele>3.6</ele>
        <time>2020-06-15T10:19:51Z</time>
      </trkpt>
      <trkpt lat="49.67042" lon="-1.26402">
        <ele>3.4</ele>
        <time>2020-06-15T10:19:52Z</time>
      </trkpt>
      <trkpt lat="49.67045" lon="-1.26395">
        <ele>3.2</ele>
        <time>2020-06-15T10:19:53Z</time>
      </trkpt>
      <trkpt lat="49.67048" lon="-1.26388">
        <ele>3</ele>
        <time>2020-06-15T10:19:54Z</time>
      </trkpt>
      <trkpt lat="49.67051" lon="-1.26381">
        <ele>2.9</ele>
        <time>2020-06-15T10:19:55Z</time>
      </trkpt>
      <trkpt lat="49.67055" lon="-1.26373">
        <ele>2.8</ele>
        <time>2020-06-15T10:19:56Z</time>
      </trkpt>
      <trkpt lat="49.67057" lon="-1.26368">
        <ele>2.8</ele>
        <time>2020-06-15T10:19:57Z</time>
      </trkpt>
      <trkpt lat="49.67057" lon="-1.26361">
        <ele>2.7</ele>
        <time>2020-06-15T10:19:58Z</time>
      </trkpt>
      <trkpt lat="49.67055" lon="-1.26356">
        <ele>2.7</ele>
        <time>2020-06-15T10:19:59Z</time>
      </trkpt>
      <trkpt lat="49.67052" lon="-1.26351">
        <ele>2.6</ele>
        <time>2020-06-15T10:20:00Z</time>
      </trkpt>
      <trkpt lat="49.67048" lon="-1.2635">
        <ele>2.5</ele>
        <time>2020-06-15T10:20:01Z</time>
      </trkpt>
      <trkpt lat="49.67043" lon="-1.2635">
        <ele>2.5</ele>
        <time>2020-06-15T10:20:02Z</time>
      </trkpt>
      <trkpt lat="49.67037" lon="-1.26349">
        <ele>2.4</ele>
        <time>2020-06-15T10:20:03Z</time>
      </trkpt>
      <trkpt lat="49.67032" lon="-1.26348">
        <ele>2.3</ele>
        <time>2020-06-15T10:20:04Z</time>
      </trkpt>
      <trkpt lat="49.67028" lon="-1.26348">
        <ele>2.3</ele>
        <time>2020-06-15T10:20:05Z</time>
      </trkpt>
      <trkpt lat="49.67023" lon="-1.26346">
        <ele>2.2</ele>
        <time>2020-06-15T10:20:06Z</time>
      </trkpt>
      <trkpt lat="49.67018" lon="-1.26346">
        <ele>2.2</ele>
        <time>2020-06-15T10:20:07Z</time>
      </trkpt>
      <trkpt lat="49.67014" lon="-1.26346">
        <ele>2.1</ele>
        <time>2020-06-15T10:20:08Z</time>
      </trkpt>
      <trkpt lat="49.67009" lon="-1.26347">
        <ele>2.1</ele>
        <time>2020-06-15T10:20:09Z</time>
      </trkpt>
      <trkpt lat="49.67005" lon="-1.26346">
        <ele>2</ele>
        <time>2020-06-15T10:20:10Z</time>
      </trkpt>
      <trkpt lat="49.67" lon="-1.26346">
        <ele>2</ele>
        <time>2020-06-15T10:20:11Z</time>
      </trkpt>
      <trkpt lat="49.66996" lon="-1.26345">
        <ele>1.9</ele>
        <time>2020-06-15T10:20:12Z</time>
      </trkpt>
      <trkpt lat="49.66991" lon="-1.26346">
        <ele>1.9</ele>
        <time>2020-06-15T10:20:13Z</time>
      </trkpt>
      <trkpt lat="49.66987" lon="-1.26346">
        <ele>1.9</ele>
        <time>2020-06-15T10:20:14Z</time>
      </trkpt>
      <trkpt lat="49.66982" lon="-1.26347">
        <ele>1.9</ele>
        <time>2020-06-15T10:20:15Z</time>
      </trkpt>
      <trkpt lat="49.66978" lon="-1.26345">
        <ele>1.9</ele>
        <time>2020-06-15T10:20:16Z</time>
      </trkpt>
      <trkpt lat="49.66974" lon="-1.26344">
        <ele>1.9</ele>
        <time>2020-06-15T10:20:17Z</time>
      </trkpt>
      <trkpt lat="49.66969" lon="-1.26344">
        <ele>1.9</ele>
        <time>2020-06-15T10:20:18Z</time>
      </trkpt>
      <trkpt lat="49.66965" lon="-1.26344">
        <ele>1.9</ele>
        <time>2020-06-15T10:20:19Z</time>
      </trkpt>
      <trkpt lat="49.6696" lon="-1.26344">
        <ele>1.9</ele>
        <time>2020-06-15T10:20:20Z</time>
      </trkpt>
      <trkpt lat="49.66955" lon="-1.26345">
        <ele>1.8</ele>
        <time>2020-06-15T10:20:21Z</time>
      </trkpt>
      <trkpt lat="49.6695" lon="-1.26346">
        <ele>1.8</ele>
        <time>2020-06-15T10:20:22Z</time>
      </trkpt>
      <trkpt lat="49.66946" lon="-1.26345">
        <ele>1.8</ele>
        <time>2020-06-15T10:20:23Z</time>
      </trkpt>
      <trkpt lat="49.66941" lon="-1.26345">
        <ele>1.8</ele>
        <time>2020-06-15T10:20:24Z</time>
      </trkpt>
      <trkpt lat="49.66936" lon="-1.26344">
        <ele>1.8</ele>
        <time>2020-06-15T10:20:25Z</time>
      </trkpt>
      <trkpt lat="49.66931" lon="-1.26343">
        <ele>1.7</ele>
        <time>2020-06-15T10:20:26Z</time>
      </trkpt>
      <trkpt lat="49.66927" lon="-1.26342">
        <ele>1.7</ele>
        <time>2020-06-15T10:20:27Z</time>
      </trkpt>
      <trkpt lat="49.66922" lon="-1.26342">
        <ele>1.7</ele>
        <time>2020-06-15T10:20:28Z</time>
      </trkpt>
      <trkpt lat="49.66917" lon="-1.26343">
        <ele>1.7</ele>
        <time>2020-06-15T10:20:29Z</time>
      </trkpt>
      <trkpt lat="49.66912" lon="-1.26342">
        <ele>1.6</ele>
        <time>2020-06-15T10:20:30Z</time>
      </trkpt>
      <trkpt lat="49.66907" lon="-1.26342">
        <ele>1.6</ele>
        <time>2020-06-15T10:20:31Z</time>
      </trkpt>
      <trkpt lat="49.66902" lon="-1.26343">
        <ele>1.6</ele>
        <time>2020-06-15T10:20:32Z</time>
      </trkpt>
      <trkpt lat="49.66897" lon="-1.26345">
        <ele>1.6</ele>
        <time>2020-06-15T10:20:33Z</time>
      </trkpt>
      <trkpt lat="49.66893" lon="-1.26347">
        <ele>1.5</ele>
        <time>2020-06-15T10:20:34Z</time>
      </trkpt>
      <trkpt lat="49.66889" lon="-1.26348">
        <ele>1.5</ele>
        <time>2020-06-15T10:20:35Z</time>
      </trkpt>
      <trkpt lat="49.66885" lon="-1.2635">
        <ele>1.5</ele>
        <time>2020-06-15T10:20:36Z</time>
      </trkpt>
      <trkpt lat="49.66881" lon="-1.26354">
        <ele>1.4</ele>
        <time>2020-06-15T10:20:37Z</time>
      </trkpt>
      <trkpt lat="49.66878" lon="-1.26357">
        <ele>1.4</ele>
        <time>2020-06-15T10:20:38Z</time>
      </trkpt>
      <trkpt lat="49.66874" lon="-1.26361">
        <ele>1.4</ele>
        <time>2020-06-15T10:20:39Z</time>
      </trkpt>
      <trkpt lat="49.66871" lon="-1.26362">
        <ele>1.5</ele>
        <time>2020-06-15T10:20:40Z</time>
      </trkpt>
      <trkpt lat="49.66867" lon="-1.26364">
        <ele>1.5</ele>
        <time>2020-06-15T10:20:41Z</time>
      </trkpt>
      <trkpt lat="49.66863" lon="-1.26366">
        <ele>1.5</ele>
        <time>2020-06-15T10:20:42Z</time>
      </trkpt>
      <trkpt lat="49.6686" lon="-1.26368">
        <ele>1.5</ele>
        <time>2020-06-15T10:20:43Z</time>
      </trkpt>
      <trkpt lat="49.66857" lon="-1.2637">
        <ele>1.6</ele>
        <time>2020-06-15T10:20:44Z</time>
      </trkpt>
      <trkpt lat="49.66853" lon="-1.26373">
        <ele>1.6</ele>
        <time>2020-06-15T10:20:45Z</time>
      </trkpt>
      <trkpt lat="49.66849" lon="-1.26375">
        <ele>1.6</ele>
        <time>2020-06-15T10:20:46Z</time>
      </trkpt>
      <trkpt lat="49.66846" lon="-1.26378">
        <ele>1.6</ele>
        <time>2020-06-15T10:20:47Z</time>
      </trkpt>
      <trkpt lat="49.66843" lon="-1.26381">
        <ele>1.6</ele>
        <time>2020-06-15T10:20:48Z</time>
      </trkpt>
      <trkpt lat="49.66839" lon="-1.26383">
        <ele>1.7</ele>
        <time>2020-06-15T10:20:49Z</time>
      </trkpt>
      <trkpt lat="49.66834" lon="-1.26385">
        <ele>1.7</ele>
        <time>2020-06-15T10:20:50Z</time>
      </trkpt>
      <trkpt lat="49.66829" lon="-1.26386">
        <ele>1.7</ele>
        <time>2020-06-15T10:20:51Z</time>
      </trkpt>
      <trkpt lat="49.66825" lon="-1.26385">
        <ele>1.7</ele>
        <time>2020-06-15T10:20:52Z</time>
      </trkpt>
      <trkpt lat="49.66822" lon="-1.26381">
        <ele>1.7</ele>
        <time>2020-06-15T10:20:53Z</time>
      </trkpt>
      <trkpt lat="49.66819" lon="-1.26376">
        <ele>1.6</ele>
        <time>2020-06-15T10:20:54Z</time>
      </trkpt>
      <trkpt lat="49.66816" lon="-1.26369">
        <ele>1.5</ele>
        <time>2020-06-15T10:20:55Z</time>
      </trkpt>
      <trkpt lat="49.66814" lon="-1.26359">
        <ele>1.4</ele>
        <time>2020-06-15T10:20:56Z</time>
      </trkpt>
      <trkpt lat="49.66812" lon="-1.26349">
        <ele>1.3</ele>
        <time>2020-06-15T10:20:57Z</time>
      </trkpt>
      <trkpt lat="49.66809" lon="-1.26339">
        <ele>1.2</ele>
        <time>2020-06-15T10:20:58Z</time>
      </trkpt>
      <trkpt lat="49.66807" lon="-1.2633">
        <ele>1.2</ele>
        <time>2020-06-15T10:20:59Z</time>
      </trkpt>
      <trkpt lat="49.66804" lon="-1.2632">
        <ele>1.2</ele>
        <time>2020-06-15T10:21:00Z</time>
      </trkpt>
      <trkpt lat="49.66803" lon="-1.26309">
        <ele>1.1</ele>
        <time>2020-06-15T10:21:01Z</time>
      </trkpt>
      <trkpt lat="49.66801" lon="-1.26299">
        <ele>1.1</ele>
        <time>2020-06-15T10:21:02Z</time>
      </trkpt>
      <trkpt lat="49.66799" lon="-1.26289">
        <ele>1.2</ele>
        <time>2020-06-15T10:21:03Z</time>
      </trkpt>
      <trkpt lat="49.66797" lon="-1.26281">
        <ele>1.2</ele>
        <time>2020-06-15T10:21:04Z</time>
      </trkpt>
      <trkpt lat="49.66795" lon="-1.26274">
        <ele>1.2</ele>
        <time>2020-06-15T10:21:05Z</time>
      </trkpt>
      <trkpt lat="49.66793" lon="-1.26266">
        <ele>1.3</ele>
        <time>2020-06-15T10:21:06Z</time>
      </trkpt>
      <trkpt lat="49.66792" lon="-1.26257">
        <ele>1.3</ele>
        <time>2020-06-15T10:21:07Z</time>
      </trkpt>
      <trkpt lat="49.66789" lon="-1.26251">
        <ele>1.4</ele>
        <time>2020-06-15T10:21:08Z</time>
      </trkpt>
      <trkpt lat="49.66788" lon="-1.26244">
        <ele>1.4</ele>
        <time>2020-06-15T10:21:09Z</time>
      </trkpt>
      <trkpt lat="49.66787" lon="-1.26236">
        <ele>1.4</ele>
        <time>2020-06-15T10:21:10Z</time>
      </trkpt>
      <trkpt lat="49.66785" lon="-1.26228">
        <ele>1.4</ele>
        <time>2020-06-15T10:21:11Z</time>
      </trkpt>
      <trkpt lat="49.66784" lon="-1.2622">
        <ele>1.5</ele>
        <time>2020-06-15T10:21:12Z</time>
      </trkpt>
      <trkpt lat="49.66783" lon="-1.26212">
        <ele>1.5</ele>
        <time>2020-06-15T10:21:13Z</time>
      </trkpt>
      <trkpt lat="49.66783" lon="-1.26204">
        <ele>1.5</ele>
        <time>2020-06-15T10:21:14Z</time>
      </trkpt>
      <trkpt lat="49.66783" lon="-1.26195">
        <ele>1.6</ele>
        <time>2020-06-15T10:21:15Z</time>
      </trkpt>
      <trkpt lat="49.66783" lon="-1.26186">
        <ele>1.6</ele>
        <time>2020-06-15T10:21:16Z</time>
      </trkpt>
      <trkpt lat="49.66782" lon="-1.26178">
        <ele>1.7</ele>
        <time>2020-06-15T10:21:17Z</time>
      </trkpt>
      <trkpt lat="49.66782" lon="-1.26171">
        <ele>1.7</ele>
        <time>2020-06-15T10:21:18Z</time>
      </trkpt>
      <trkpt lat="49.66782" lon="-1.26163">
        <ele>1.7</ele>
        <time>2020-06-15T10:21:19Z</time>
      </trkpt>
      <trkpt lat="49.66782" lon="-1.26155">
        <ele>1.8</ele>
        <time>2020-06-15T10:21:20Z</time>
      </trkpt>
      <trkpt lat="49.66782" lon="-1.26145">
        <ele>1.8</ele>
        <time>2020-06-15T10:21:21Z</time>
      </trkpt>
      <trkpt lat="49.66782" lon="-1.26136">
        <ele>1.9</ele>
        <time>2020-06-15T10:21:22Z</time>
      </trkpt>
      <trkpt lat="49.66782" lon="-1.26127">
        <ele>2</ele>
        <time>2020-06-15T10:21:23Z</time>
      </trkpt>
      <trkpt lat="49.66782" lon="-1.26119">
        <ele>2.1</ele>
        <time>2020-06-15T10:21:24Z</time>
      </trkpt>
      <trkpt lat="49.66782" lon="-1.26111">
        <ele>2.2</ele>
        <time>2020-06-15T10:21:25Z</time>
      </trkpt>
      <trkpt lat="49.66783" lon="-1.26103">
        <ele>2.2</ele>
        <time>2020-06-15T10:21:26Z</time>
      </trkpt>
      <trkpt lat="49.66783" lon="-1.26095">
        <ele>2.3</ele>
        <time>2020-06-15T10:21:27Z</time>
      </trkpt>
      <trkpt lat="49.66783" lon="-1.26088">
        <ele>2.4</ele>
        <time>2020-06-15T10:21:28Z</time>
      </trkpt>
      <trkpt lat="49.66783" lon="-1.2608">
        <ele>2.4</ele>
        <time>2020-06-15T10:21:29Z</time>
      </trkpt>
      <trkpt lat="49.66781" lon="-1.26072">
        <ele>2.4</ele>
        <time>2020-06-15T10:21:30Z</time>
      </trkpt>
      <trkpt lat="49.6678" lon="-1.26063">
        <ele>2.5</ele>
        <time>2020-06-15T10:21:31Z</time>
      </trkpt>
      <trkpt lat="49.66777" lon="-1.26056">
        <ele>2.5</ele>
        <time>2020-06-15T10:21:32Z</time>
      </trkpt>
      <trkpt lat="49.66771" lon="-1.26053">
        <ele>2.5</ele>
        <time>2020-06-15T10:21:33Z</time>
      </trkpt>
      <trkpt lat="49.66766" lon="-1.26051">
        <ele>2.5</ele>
        <time>2020-06-15T10:21:34Z</time>
      </trkpt>
      <trkpt lat="49.6676" lon="-1.2605">
        <ele>2.5</ele>
        <time>2020-06-15T10:21:35Z</time>
      </trkpt>
      <trkpt lat="49.66755" lon="-1.26049">
        <ele>2.5</ele>
        <time>2020-06-15T10:21:36Z</time>
      </trkpt>
      <trkpt lat="49.6675" lon="-1.26049">
        <ele>2.5</ele>
        <time>2020-06-15T10:21:37Z</time>
      </trkpt>
      <trkpt lat="49.66744" lon="-1.26048">
        <ele>2.5</ele>
        <time>2020-06-15T10:21:38Z</time>
      </trkpt>
      <trkpt lat="49.66739" lon="-1.26048">
        <ele>2.6</ele>
        <time>2020-06-15T10:21:39Z</time>
      </trkpt>
      <trkpt lat="49.66733" lon="-1.26047">
        <ele>2.6</ele>
        <time>2020-06-15T10:21:40Z</time>
      </trkpt>
      <trkpt lat="49.66728" lon="-1.26046">
        <ele>2.6</ele>
        <time>2020-06-15T10:21:41Z</time>
      </trkpt>
      <trkpt lat="49.66724" lon="-1.26046">
        <ele>2.7</ele>
        <time>2020-06-15T10:21:42Z</time>
      </trkpt>
      <trkpt lat="49.66719" lon="-1.26044">
        <ele>2.7</ele>
        <time>2020-06-15T10:21:43Z</time>
      </trkpt>
      <trkpt lat="49.66716" lon="-1.26038">
        <ele>2.7</ele>
        <time>2020-06-15T10:21:44Z</time>
      </trkpt>
      <trkpt lat="49.66715" lon="-1.26031">
        <ele>2.7</ele>
        <time>2020-06-15T10:21:45Z</time>
      </trkpt>
      <trkpt lat="49.66713" lon="-1.26022">
        <ele>2.7</ele>
        <time>2020-06-15T10:21:46Z</time>
      </trkpt>
      <trkpt lat="49.66711" lon="-1.26013">
        <ele>2.8</ele>
        <time>2020-06-15T10:21:47Z</time>
      </trkpt>
      <trkpt lat="49.66709" lon="-1.26005">
        <ele>2.8</ele>
        <time>2020-06-15T10:21:48Z</time>
      </trkpt>
      <trkpt lat="49.66706" lon="-1.25997">
        <ele>2.9</ele>
        <time>2020-06-15T10:21:49Z</time>
      </trkpt>
      <trkpt lat="49.66703" lon="-1.25991">
        <ele>3</ele>
        <time>2020-06-15T10:21:50Z</time>
      </trkpt>
      <trkpt lat="49.66699" lon="-1.25985">
        <ele>3.1</ele>
        <time>2020-06-15T10:21:51Z</time>
      </trkpt>
      <trkpt lat="49.66696" lon="-1.25979">
        <ele>3.1</ele>
        <time>2020-06-15T10:21:52Z</time>
      </trkpt>
      <trkpt lat="49.66692" lon="-1.25973">
        <ele>3.2</ele>
        <time>2020-06-15T10:21:53Z</time>
      </trkpt>
      <trkpt lat="49.66688" lon="-1.25967">
        <ele>3.2</ele>
        <time>2020-06-15T10:21:54Z</time>
      </trkpt>
      <trkpt lat="49.66685" lon="-1.25961">
        <ele>3.3</ele>
        <time>2020-06-15T10:21:55Z</time>
      </trkpt>
      <trkpt lat="49.6668" lon="-1.25956">
        <ele>3.3</ele>
        <time>2020-06-15T10:21:56Z</time>
      </trkpt>
      <trkpt lat="49.66676" lon="-1.2595">
        <ele>3.3</ele>
        <time>2020-06-15T10:21:57Z</time>
      </trkpt>
      <trkpt lat="49.66672" lon="-1.25945">
        <ele>3.4</ele>
        <time>2020-06-15T10:21:58Z</time>
      </trkpt>
      <trkpt lat="49.66668" lon="-1.25941">
        <ele>3.5</ele>
        <time>2020-06-15T10:21:59Z</time>
      </trkpt>
      <trkpt lat="49.66663" lon="-1.25937">
        <ele>3.5</ele>
        <time>2020-06-15T10:22:00Z</time>
      </trkpt>
      <trkpt lat="49.66659" lon="-1.25931">
        <ele>3.5</ele>
        <time>2020-06-15T10:22:01Z</time>
      </trkpt>
      <trkpt lat="49.66655" lon="-1.25926">
        <ele>3.6</ele>
        <time>2020-06-15T10:22:02Z</time>
      </trkpt>
      <trkpt lat="49.66651" lon="-1.25921">
        <ele>3.6</ele>
        <time>2020-06-15T10:22:03Z</time>
      </trkpt>
      <trkpt lat="49.66647" lon="-1.25917">
        <ele>3.7</ele>
        <time>2020-06-15T10:22:04Z</time>
      </trkpt>
      <trkpt lat="49.66643" lon="-1.25914">
        <ele>3.7</ele>
        <time>2020-06-15T10:22:05Z</time>
      </trkpt>
      <trkpt lat="49.6664" lon="-1.25909">
        <ele>3.7</ele>
        <time>2020-06-15T10:22:06Z</time>
      </trkpt>
      <trkpt lat="49.66635" lon="-1.25906">
        <ele>3.8</ele>
        <time>2020-06-15T10:22:07Z</time>
      </trkpt>
      <trkpt lat="49.66631" lon="-1.25902">
        <ele>3.8</ele>
        <time>2020-06-15T10:22:08Z</time>
      </trkpt>
      <trkpt lat="49.66627" lon="-1.25897">
        <ele>3.9</ele>
        <time>2020-06-15T10:22:09Z</time>
      </trkpt>
      <trkpt lat="49.66623" lon="-1.25893">
        <ele>3.9</ele>
        <time>2020-06-15T10:22:10Z</time>
      </trkpt>
      <trkpt lat="49.66619" lon="-1.25886">
        <ele>3.9</ele>
        <time>2020-06-15T10:22:11Z</time>
      </trkpt>
      <trkpt lat="49.66614" lon="-1.25881">
        <ele>4</ele>
        <time>2020-06-15T10:22:12Z</time>
      </trkpt>
      <trkpt lat="49.66609" lon="-1.25877">
        <ele>4</ele>
        <time>2020-06-15T10:22:13Z</time>
      </trkpt>
      <trkpt lat="49.66605" lon="-1.25872">
        <ele>4</ele>
        <time>2020-06-15T10:22:14Z</time>
      </trkpt>
      <trkpt lat="49.66599" lon="-1.25868">
        <ele>4.1</ele>
        <time>2020-06-15T10:22:15Z</time>
      </trkpt>
      <trkpt lat="49.66595" lon="-1.25864">
        <ele>4.1</ele>
        <time>2020-06-15T10:22:16Z</time>
      </trkpt>
      <trkpt lat="49.6659" lon="-1.25861">
        <ele>4.2</ele>
        <time>2020-06-15T10:22:17Z</time>
      </trkpt>
      <trkpt lat="49.66585" lon="-1.25858">
        <ele>4.2</ele>
        <time>2020-06-15T10:22:18Z</time>
      </trkpt>
      <trkpt lat="49.6658" lon="-1.25856">
        <ele>4.3</ele>
        <time>2020-06-15T10:22:19Z</time>
      </trkpt>
      <trkpt lat="49.66575" lon="-1.25853">
        <ele>4.3</ele>
        <time>2020-06-15T10:22:20Z</time>
      </trkpt>
      <trkpt lat="49.66569" lon="-1.25851">
        <ele>4.4</ele>
        <time>2020-06-15T10:22:21Z</time>
      </trkpt>
      <trkpt lat="49.66564" lon="-1.25848">
        <ele>4.4</ele>
        <time>2020-06-15T10:22:22Z</time>
      </trkpt>
      <trkpt lat="49.66559" lon="-1.25843">
        <ele>4.5</ele>
        <time>2020-06-15T10:22:23Z</time>
      </trkpt>
      <trkpt lat="49.66554" lon="-1.2584">
        <ele>4.6</ele>
        <time>2020-06-15T10:22:24Z</time>
      </trkpt>
      <trkpt lat="49.66549" lon="-1.25836">
        <ele>4.8</ele>
        <time>2020-06-15T10:22:25Z</time>
      </trkpt>
      <trkpt lat="49.66545" lon="-1.25835">
        <ele>4.8</ele>
        <time>2020-06-15T10:22:26Z</time>
      </trkpt>
      <trkpt lat="49.6654" lon="-1.25833">
        <ele>4.9</ele>
        <time>2020-06-15T10:22:27Z</time>
      </trkpt>
      <trkpt lat="49.66535" lon="-1.25831">
        <ele>4.8</ele>
        <time>2020-06-15T10:22:28Z</time>
      </trkpt>
      <trkpt lat="49.66529" lon="-1.25829">
        <ele>4.8</ele>
        <time>2020-06-15T10:22:29Z</time>
      </trkpt>
      <trkpt lat="49.66523" lon="-1.25827">
        <ele>4.8</ele>
        <time>2020-06-15T10:22:30Z</time>
      </trkpt>
      <trkpt lat="49.66517" lon="-1.25824">
        <ele>4.8</ele>
        <time>2020-06-15T10:22:31Z</time>
      </trkpt>
      <trkpt lat="49.66511" lon="-1.25822">
        <ele>4.8</ele>
        <time>2020-06-15T10:22:32Z</time>
      </trkpt>
      <trkpt lat="49.66506" lon="-1.25818">
        <ele>4.9</ele>
        <time>2020-06-15T10:22:33Z</time>
      </trkpt>
      <trkpt lat="49.665" lon="-1.25815">
        <ele>4.9</ele>
        <time>2020-06-15T10:22:34Z</time>
      </trkpt>
      <trkpt lat="49.66495" lon="-1.25812">
        <ele>4.9</ele>
        <time>2020-06-15T10:22:35Z</time>
      </trkpt>
      <trkpt lat="49.66489" lon="-1.25808">
        <ele>5</ele>
        <time>2020-06-15T10:22:36Z</time>
      </trkpt>
      <trkpt lat="49.66483" lon="-1.25806">
        <ele>5</ele>
        <time>2020-06-15T10:22:37Z</time>
      </trkpt>
      <trkpt lat="49.66478" lon="-1.25803">
        <ele>5.1</ele>
        <time>2020-06-15T10:22:38Z</time>
      </trkpt>
      <trkpt lat="49.66473" lon="-1.25799">
        <ele>5.1</ele>
        <time>2020-06-15T10:22:39Z</time>
      </trkpt>
      <trkpt lat="49.66468" lon="-1.25796">
        <ele>5.2</ele>
        <time>2020-06-15T10:22:40Z</time>
      </trkpt>
      <trkpt lat="49.66462" lon="-1.25792">
        <ele>5.2</ele>
        <time>2020-06-15T10:22:41Z</time>
      </trkpt>
      <trkpt lat="49.66457" lon="-1.25789">
        <ele>5.2</ele>
        <time>2020-06-15T10:22:42Z</time>
      </trkpt>
      <trkpt lat="49.66451" lon="-1.25785">
        <ele>5.3</ele>
        <time>2020-06-15T10:22:43Z</time>
      </trkpt>
      <trkpt lat="49.66446" lon="-1.25781">
        <ele>5.3</ele>
        <time>2020-06-15T10:22:44Z</time>
      </trkpt>
      <trkpt lat="49.66441" lon="-1.25777">
        <ele>5.4</ele>
        <time>2020-06-15T10:22:45Z</time>
      </trkpt>
      <trkpt lat="49.66435" lon="-1.25773">
        <ele>5.4</ele>
        <time>2020-06-15T10:22:46Z</time>
      </trkpt>
      <trkpt lat="49.6643" lon="-1.25768">
        <ele>5.4</ele>
        <time>2020-06-15T10:22:47Z</time>
      </trkpt>
      <trkpt lat="49.66425" lon="-1.25764">
        <ele>5.5</ele>
        <time>2020-06-15T10:22:48Z</time>
      </trkpt>
      <trkpt lat="49.66419" lon="-1.25759">
        <ele>5.5</ele>
        <time>2020-06-15T10:22:49Z</time>
      </trkpt>
      <trkpt lat="49.66414" lon="-1.25755">
        <ele>5.5</ele>
        <time>2020-06-15T10:22:50Z</time>
      </trkpt>
      <trkpt lat="49.66409" lon="-1.25752">
        <ele>5.5</ele>
        <time>2020-06-15T10:22:51Z</time>
      </trkpt>
      <trkpt lat="49.66404" lon="-1.25747">
        <ele>5.5</ele>
        <time>2020-06-15T10:22:52Z</time>
      </trkpt>
      <trkpt lat="49.66399" lon="-1.25744">
        <ele>5.6</ele>
        <time>2020-06-15T10:22:53Z</time>
      </trkpt>
      <trkpt lat="49.66393" lon="-1.25741">
        <ele>5.6</ele>
        <time>2020-06-15T10:22:54Z</time>
      </trkpt>
      <trkpt lat="49.66388" lon="-1.25735">
        <ele>5.6</ele>
        <time>2020-06-15T10:22:55Z</time>
      </trkpt>
      <trkpt lat="49.66383" lon="-1.25731">
        <ele>5.7</ele>
        <time>2020-06-15T10:22:56Z</time>
      </trkpt>
      <trkpt lat="49.66378" lon="-1.25726">
        <ele>5.7</ele>
        <time>2020-06-15T10:22:57Z</time>
      </trkpt>
      <trkpt lat="49.66372" lon="-1.25722">
        <ele>5.8</ele>
        <time>2020-06-15T10:22:58Z</time>
      </trkpt>
      <trkpt lat="49.66367" lon="-1.25716">
        <ele>5.8</ele>
        <time>2020-06-15T10:22:59Z</time>
      </trkpt>
      <trkpt lat="49.66362" lon="-1.25712">
        <ele>5.8</ele>
        <time>2020-06-15T10:23:00Z</time>
      </trkpt>
      <trkpt lat="49.66357" lon="-1.25707">
        <ele>5.8</ele>
        <time>2020-06-15T10:23:01Z</time>
      </trkpt>
      <trkpt lat="49.66351" lon="-1.25702">
        <ele>5.8</ele>
        <time>2020-06-15T10:23:02Z</time>
      </trkpt>
      <trkpt lat="49.66346" lon="-1.257">
        <ele>5.8</ele>
        <time>2020-06-15T10:23:03Z</time>
      </trkpt>
      <trkpt lat="49.66341" lon="-1.25697">
        <ele>5.8</ele>
        <time>2020-06-15T10:23:04Z</time>
      </trkpt>
      <trkpt lat="49.66335" lon="-1.25691">
        <ele>5.8</ele>
        <time>2020-06-15T10:23:05Z</time>
      </trkpt>
      <trkpt lat="49.66331" lon="-1.25688">
        <ele>5.8</ele>
        <time>2020-06-15T10:23:06Z</time>
      </trkpt>
      <trkpt lat="49.66325" lon="-1.25684">
        <ele>5.8</ele>
        <time>2020-06-15T10:23:07Z</time>
      </trkpt>
      <trkpt lat="49.66319" lon="-1.25682">
        <ele>5.8</ele>
        <time>2020-06-15T10:23:08Z</time>
      </trkpt>
      <trkpt lat="49.66313" lon="-1.25679">
        <ele>5.8</ele>
        <time>2020-06-15T10:23:09Z</time>
      </trkpt>
      <trkpt lat="49.66308" lon="-1.25678">
        <ele>5.7</ele>
        <time>2020-06-15T10:23:10Z</time>
      </trkpt>
      <trkpt lat="49.66302" lon="-1.25674">
        <ele>5.7</ele>
        <time>2020-06-15T10:23:11Z</time>
      </trkpt>
      <trkpt lat="49.66298" lon="-1.25672">
        <ele>5.7</ele>
        <time>2020-06-15T10:23:12Z</time>
      </trkpt>
      <trkpt lat="49.66292" lon="-1.25669">
        <ele>5.6</ele>
        <time>2020-06-15T10:23:13Z</time>
      </trkpt>
      <trkpt lat="49.66286" lon="-1.25664">
        <ele>5.5</ele>
        <time>2020-06-15T10:23:14Z</time>
      </trkpt>
      <trkpt lat="49.66281" lon="-1.25661">
        <ele>5.5</ele>
        <time>2020-06-15T10:23:15Z</time>
      </trkpt>
      <trkpt lat="49.66274" lon="-1.25657">
        <ele>5.4</ele>
        <time>2020-06-15T10:23:16Z</time>
      </trkpt>
      <trkpt lat="49.66268" lon="-1.25653">
        <ele>5.4</ele>
        <time>2020-06-15T10:23:17Z</time>
      </trkpt>
      <trkpt lat="49.66262" lon="-1.2565">
        <ele>5.3</ele>
        <time>2020-06-15T10:23:18Z</time>
      </trkpt>
      <trkpt lat="49.66257" lon="-1.25647">
        <ele>5.3</ele>
        <time>2020-06-15T10:23:19Z</time>
      </trkpt>
      <trkpt lat="49.66251" lon="-1.25644">
        <ele>5.2</ele>
        <time>2020-06-15T10:23:20Z</time>
      </trkpt>
      <trkpt lat="49.66246" lon="-1.25642">
        <ele>5.1</ele>
        <time>2020-06-15T10:23:21Z</time>
      </trkpt>
      <trkpt lat="49.6624" lon="-1.25638">
        <ele>5</ele>
        <time>2020-06-15T10:23:22Z</time>
      </trkpt>
      <trkpt lat="49.66233" lon="-1.25633">
        <ele>4.9</ele>
        <time>2020-06-15T10:23:23Z</time>
      </trkpt>
      <trkpt lat="49.66227" lon="-1.25629">
        <ele>4.8</ele>
        <time>2020-06-15T10:23:24Z</time>
      </trkpt>
      <trkpt lat="49.6622" lon="-1.25625">
        <ele>4.6</ele>
        <time>2020-06-15T10:23:25Z</time>
      </trkpt>
      <trkpt lat="49.66213" lon="-1.2562">
        <ele>4.5</ele>
        <time>2020-06-15T10:23:26Z</time>
      </trkpt>
      <trkpt lat="49.66206" lon="-1.25616">
        <ele>4.3</ele>
        <time>2020-06-15T10:23:27Z</time>
      </trkpt>
      <trkpt lat="49.66199" lon="-1.25612">
        <ele>4.1</ele>
        <time>2020-06-15T10:23:28Z</time>
      </trkpt>
      <trkpt lat="49.66192" lon="-1.25609">
        <ele>4</ele>
        <time>2020-06-15T10:23:29Z</time>
      </trkpt>
      <trkpt lat="49.66185" lon="-1.25606">
        <ele>3.9</ele>
        <time>2020-06-15T10:23:30Z</time>
      </trkpt>
      <trkpt lat="49.66178" lon="-1.25603">
        <ele>3.7</ele>
        <time>2020-06-15T10:23:31Z</time>
      </trkpt>
      <trkpt lat="49.66172" lon="-1.256">
        <ele>3.7</ele>
        <time>2020-06-15T10:23:32Z</time>
      </trkpt>
      <trkpt lat="49.66165" lon="-1.25597">
        <ele>3.6</ele>
        <time>2020-06-15T10:23:33Z</time>
      </trkpt>
      <trkpt lat="49.66157" lon="-1.25594">
        <ele>3.7</ele>
        <time>2020-06-15T10:23:34Z</time>
      </trkpt>
      <trkpt lat="49.6615" lon="-1.25591">
        <ele>3.7</ele>
        <time>2020-06-15T10:23:35Z</time>
      </trkpt>
      <trkpt lat="49.66143" lon="-1.25588">
        <ele>3.6</ele>
        <time>2020-06-15T10:23:36Z</time>
      </trkpt>
      <trkpt lat="49.66136" lon="-1.25586">
        <ele>3.6</ele>
        <time>2020-06-15T10:23:37Z</time>
      </trkpt>
      <trkpt lat="49.6613" lon="-1.25583">
        <ele>3.6</ele>
        <time>2020-06-15T10:23:38Z</time>
      </trkpt>
      <trkpt lat="49.66123" lon="-1.25581">
        <ele>3.7</ele>
        <time>2020-06-15T10:23:39Z</time>
      </trkpt>
      <trkpt lat="49.66117" lon="-1.25578">
        <ele>3.7</ele>
        <time>2020-06-15T10:23:40Z</time>
      </trkpt>
      <trkpt lat="49.6611" lon="-1.25576">
        <ele>3.8</ele>
        <time>2020-06-15T10:23:41Z</time>
      </trkpt>
      <trkpt lat="49.66104" lon="-1.25573">
        <ele>3.8</ele>
        <time>2020-06-15T10:23:42Z</time>
      </trkpt>
      <trkpt lat="49.66097" lon="-1.25571">
        <ele>3.9</ele>
        <time>2020-06-15T10:23:43Z</time>
      </trkpt>
      <trkpt lat="49.66091" lon="-1.25568">
        <ele>3.9</ele>
        <time>2020-06-15T10:23:44Z</time>
      </trkpt>
      <trkpt lat="49.66085" lon="-1.25564">
        <ele>4</ele>
        <time>2020-06-15T10:23:45Z</time>
      </trkpt>
      <trkpt lat="49.66079" lon="-1.25561">
        <ele>4</ele>
        <time>2020-06-15T10:23:46Z</time>
      </trkpt>
      <trkpt lat="49.66074" lon="-1.25559">
        <ele>4.1</ele>
        <time>2020-06-15T10:23:47Z</time>
      </trkpt>
      <trkpt lat="49.66068" lon="-1.25554">
        <ele>4.1</ele>
        <time>2020-06-15T10:23:48Z</time>
      </trkpt>
      <trkpt lat="49.66062" lon="-1.25552">
        <ele>4.2</ele>
        <time>2020-06-15T10:23:49Z</time>
      </trkpt>
      <trkpt lat="49.66056" lon="-1.25546">
        <ele>4.2</ele>
        <time>2020-06-15T10:23:50Z</time>
      </trkpt>
      <trkpt lat="49.66049" lon="-1.25542">
        <ele>4.3</ele>
        <time>2020-06-15T10:23:51Z</time>
      </trkpt>
      <trkpt lat="49.66043" lon="-1.25538">
        <ele>4.3</ele>
        <time>2020-06-15T10:23:52Z</time>
      </trkpt>
      <trkpt lat="49.66038" lon="-1.25533">
        <ele>4.3</ele>
        <time>2020-06-15T10:23:53Z</time>
      </trkpt>
      <trkpt lat="49.66032" lon="-1.2553">
        <ele>4.3</ele>
        <time>2020-06-15T10:23:54Z</time>
      </trkpt>
      <trkpt lat="49.66026" lon="-1.25526">
        <ele>4.4</ele>
        <time>2020-06-15T10:23:55Z</time>
      </trkpt>
      <trkpt lat="49.6602" lon="-1.25522">
        <ele>4.4</ele>
        <time>2020-06-15T10:23:56Z</time>
      </trkpt>
      <trkpt lat="49.66014" lon="-1.25518">
        <ele>4.5</ele>
        <time>2020-06-15T10:23:57Z</time>
      </trkpt>
      <trkpt lat="49.66009" lon="-1.25513">
        <ele>4.6</ele>
        <time>2020-06-15T10:23:58Z</time>
      </trkpt>
      <trkpt lat="49.66003" lon="-1.25508">
        <ele>4.7</ele>
        <time>2020-06-15T10:23:59Z</time>
      </trkpt>
      <trkpt lat="49.65998" lon="-1.25504">
        <ele>4.8</ele>
        <time>2020-06-15T10:24:00Z</time>
      </trkpt>
      <trkpt lat="49.65992" lon="-1.255">
        <ele>4.8</ele>
        <time>2020-06-15T10:24:01Z</time>
      </trkpt>
      <trkpt lat="49.65986" lon="-1.25496">
        <ele>4.8</ele>
        <time>2020-06-15T10:24:02Z</time>
      </trkpt>
      <trkpt lat="49.6598" lon="-1.25491">
        <ele>4.9</ele>
        <time>2020-06-15T10:24:03Z</time>
      </trkpt>
      <trkpt lat="49.65974" lon="-1.25486">
        <ele>4.9</ele>
        <time>2020-06-15T10:24:04Z</time>
      </trkpt>
      <trkpt lat="49.65969" lon="-1.25481">
        <ele>4.9</ele>
        <time>2020-06-15T10:24:05Z</time>
      </trkpt>
      <trkpt lat="49.65963" lon="-1.25476">
        <ele>5</ele>
        <time>2020-06-15T10:24:06Z</time>
      </trkpt>
      <trkpt lat="49.65958" lon="-1.25471">
        <ele>5.1</ele>
        <time>2020-06-15T10:24:07Z</time>
      </trkpt>
      <trkpt lat="49.65953" lon="-1.25465">
        <ele>5.1</ele>
        <time>2020-06-15T10:24:08Z</time>
      </trkpt>
      <trkpt lat="49.65948" lon="-1.25458">
        <ele>5.1</ele>
        <time>2020-06-15T10:24:09Z</time>
      </trkpt>
      <trkpt lat="49.65942" lon="-1.25452">
        <ele>5.2</ele>
        <time>2020-06-15T10:24:10Z</time>
      </trkpt>
      <trkpt lat="49.65937" lon="-1.25445">
        <ele>5.3</ele>
        <time>2020-06-15T10:24:11Z</time>
      </trkpt>
      <trkpt lat="49.65932" lon="-1.25439">
        <ele>5.4</ele>
        <time>2020-06-15T10:24:12Z</time>
      </trkpt>
      <trkpt lat="49.65927" lon="-1.25432">
        <ele>5.5</ele>
        <time>2020-06-15T10:24:13Z</time>
      </trkpt>
      <trkpt lat="49.65923" lon="-1.25424">
        <ele>5.6</ele>
        <time>2020-06-15T10:24:14Z</time>
      </trkpt>
      <trkpt lat="49.65918" lon="-1.25418">
        <ele>5.6</ele>
        <time>2020-06-15T10:24:15Z</time>
      </trkpt>
      <trkpt lat="49.65914" lon="-1.25411">
        <ele>5.6</ele>
        <time>2020-06-15T10:24:16Z</time>
      </trkpt>
      <trkpt lat="49.6591" lon="-1.25403">
        <ele>5.7</ele>
        <time>2020-06-15T10:24:17Z</time>
      </trkpt>
      <trkpt lat="49.65905" lon="-1.25395">
        <ele>5.7</ele>
        <time>2020-06-15T10:24:18Z</time>
      </trkpt>
      <trkpt lat="49.65901" lon="-1.25387">
        <ele>5.7</ele>
        <time>2020-06-15T10:24:19Z</time>
      </trkpt>
      <trkpt lat="49.65898" lon="-1.2538">
        <ele>5.8</ele>
        <time>2020-06-15T10:24:20Z</time>
      </trkpt>
      <trkpt lat="49.65895" lon="-1.25371">
        <ele>5.8</ele>
        <time>2020-06-15T10:24:21Z</time>
      </trkpt>
      <trkpt lat="49.65891" lon="-1.25363">
        <ele>5.8</ele>
        <time>2020-06-15T10:24:22Z</time>
      </trkpt>
      <trkpt lat="49.65888" lon="-1.25355">
        <ele>5.8</ele>
        <time>2020-06-15T10:24:23Z</time>
      </trkpt>
      <trkpt lat="49.65885" lon="-1.25345">
        <ele>5.9</ele>
        <time>2020-06-15T10:24:24Z</time>
      </trkpt>
      <trkpt lat="49.65882" lon="-1.25335">
        <ele>5.9</ele>
        <time>2020-06-15T10:24:25Z</time>
      </trkpt>
      <trkpt lat="49.6588" lon="-1.25326">
        <ele>5.9</ele>
        <time>2020-06-15T10:24:26Z</time>
      </trkpt>
      <trkpt lat="49.65877" lon="-1.25317">
        <ele>5.9</ele>
        <time>2020-06-15T10:24:27Z</time>
      </trkpt>
      <trkpt lat="49.65875" lon="-1.25307">
        <ele>5.9</ele>
        <time>2020-06-15T10:24:28Z</time>
      </trkpt>
      <trkpt lat="49.65873" lon="-1.25298">
        <ele>5.9</ele>
        <time>2020-06-15T10:24:29Z</time>
      </trkpt>
      <trkpt lat="49.6587" lon="-1.25289">
        <ele>5.8</ele>
        <time>2020-06-15T10:24:30Z</time>
      </trkpt>
      <trkpt lat="49.65868" lon="-1.2528">
        <ele>5.8</ele>
        <time>2020-06-15T10:24:31Z</time>
      </trkpt>
      <trkpt lat="49.65866" lon="-1.2527">
        <ele>5.7</ele>
        <time>2020-06-15T10:24:32Z</time>
      </trkpt>
      <trkpt lat="49.65863" lon="-1.25261">
        <ele>5.7</ele>
        <time>2020-06-15T10:24:33Z</time>
      </trkpt>
      <trkpt lat="49.6586" lon="-1.2525">
        <ele>5.6</ele>
        <time>2020-06-15T10:24:34Z</time>
      </trkpt>
      <trkpt lat="49.65858" lon="-1.2524">
        <ele>5.6</ele>
        <time>2020-06-15T10:24:35Z</time>
      </trkpt>
      <trkpt lat="49.65855" lon="-1.2523">
        <ele>5.5</ele>
        <time>2020-06-15T10:24:36Z</time>
      </trkpt>
      <trkpt lat="49.65853" lon="-1.2522">
        <ele>5.5</ele>
        <time>2020-06-15T10:24:37Z</time>
      </trkpt>
      <trkpt lat="49.65851" lon="-1.25211">
        <ele>5.5</ele>
        <time>2020-06-15T10:24:38Z</time>
      </trkpt>
      <trkpt lat="49.65849" lon="-1.25201">
        <ele>5.5</ele>
        <time>2020-06-15T10:24:39Z</time>
      </trkpt>
      <trkpt lat="49.65846" lon="-1.25191">
        <ele>5.4</ele>
        <time>2020-06-15T10:24:40Z</time>
      </trkpt>
      <trkpt lat="49.65844" lon="-1.25181">
        <ele>5.3</ele>
        <time>2020-06-15T10:24:41Z</time>
      </trkpt>
      <trkpt lat="49.65841" lon="-1.25172">
        <ele>5.2</ele>
        <time>2020-06-15T10:24:42Z</time>
      </trkpt>
      <trkpt lat="49.65838" lon="-1.25162">
        <ele>5.1</ele>
        <time>2020-06-15T10:24:43Z</time>
      </trkpt>
      <trkpt lat="49.65836" lon="-1.25153">
        <ele>5</ele>
        <time>2020-06-15T10:24:44Z</time>
      </trkpt>
      <trkpt lat="49.65833" lon="-1.25142">
        <ele>4.9</ele>
        <time>2020-06-15T10:24:45Z</time>
      </trkpt>
      <trkpt lat="49.65831" lon="-1.25133">
        <ele>4.8</ele>
        <time>2020-06-15T10:24:46Z</time>
      </trkpt>
      <trkpt lat="49.65829" lon="-1.25123">
        <ele>4.7</ele>
        <time>2020-06-15T10:24:47Z</time>
      </trkpt>
      <trkpt lat="49.65826" lon="-1.25114">
        <ele>4.6</ele>
        <time>2020-06-15T10:24:48Z</time>
      </trkpt>
      <trkpt lat="49.65824" lon="-1.25104">
        <ele>4.5</ele>
        <time>2020-06-15T10:24:49Z</time>
      </trkpt>
      <trkpt lat="49.65822" lon="-1.25094">
        <ele>4.4</ele>
        <time>2020-06-15T10:24:50Z</time>
      </trkpt>
      <trkpt lat="49.6582" lon="-1.25085">
        <ele>4.3</ele>
        <time>2020-06-15T10:24:51Z</time>
      </trkpt>
      <trkpt lat="49.65817" lon="-1.25077">
        <ele>4.2</ele>
        <time>2020-06-15T10:24:52Z</time>
      </trkpt>
      <trkpt lat="49.65814" lon="-1.25068">
        <ele>4.1</ele>
        <time>2020-06-15T10:24:53Z</time>
      </trkpt>
      <trkpt lat="49.65812" lon="-1.25058">
        <ele>4.1</ele>
        <time>2020-06-15T10:24:54Z</time>
      </trkpt>
      <trkpt lat="49.65808" lon="-1.25049">
        <ele>4</ele>
        <time>2020-06-15T10:24:55Z</time>
      </trkpt>
      <trkpt lat="49.65804" lon="-1.2504">
        <ele>4</ele>
        <time>2020-06-15T10:24:56Z</time>
      </trkpt>
      <trkpt lat="49.65799" lon="-1.25032">
        <ele>4</ele>
        <time>2020-06-15T10:24:57Z</time>
      </trkpt>
      <trkpt lat="49.65795" lon="-1.25024">
        <ele>3.9</ele>
        <time>2020-06-15T10:24:58Z</time>
      </trkpt>
      <trkpt lat="49.65791" lon="-1.25015">
        <ele>3.9</ele>
        <time>2020-06-15T10:24:59Z</time>
      </trkpt>
      <trkpt lat="49.65786" lon="-1.25007">
        <ele>4</ele>
        <time>2020-06-15T10:25:00Z</time>
      </trkpt>
      <trkpt lat="49.65782" lon="-1.25">
        <ele>4</ele>
        <time>2020-06-15T10:25:01Z</time>
      </trkpt>
      <trkpt lat="49.65777" lon="-1.24992">
        <ele>4</ele>
        <time>2020-06-15T10:25:02Z</time>
      </trkpt>
      <trkpt lat="49.65771" lon="-1.24984">
        <ele>4.1</ele>
        <time>2020-06-15T10:25:03Z</time>
      </trkpt>
      <trkpt lat="49.65766" lon="-1.24977">
        <ele>4.2</ele>
        <time>2020-06-15T10:25:04Z</time>
      </trkpt>
      <trkpt lat="49.65761" lon="-1.2497">
        <ele>4.3</ele>
        <time>2020-06-15T10:25:05Z</time>
      </trkpt>
      <trkpt lat="49.65756" lon="-1.24964">
        <ele>4.5</ele>
        <time>2020-06-15T10:25:06Z</time>
      </trkpt>
      <trkpt lat="49.6575" lon="-1.24958">
        <ele>4.7</ele>
        <time>2020-06-15T10:25:07Z</time>
      </trkpt>
      <trkpt lat="49.65744" lon="-1.24952">
        <ele>4.9</ele>
        <time>2020-06-15T10:25:08Z</time>
      </trkpt>
      <trkpt lat="49.65739" lon="-1.24946">
        <ele>5.1</ele>
        <time>2020-06-15T10:25:09Z</time>
      </trkpt>
      <trkpt lat="49.65734" lon="-1.24942">
        <ele>5.2</ele>
        <time>2020-06-15T10:25:10Z</time>
      </trkpt>
      <trkpt lat="49.65729" lon="-1.24937">
        <ele>5.2</ele>
        <time>2020-06-15T10:25:11Z</time>
      </trkpt>
      <trkpt lat="49.65724" lon="-1.24933">
        <ele>5.3</ele>
        <time>2020-06-15T10:25:12Z</time>
      </trkpt>
      <trkpt lat="49.65719" lon="-1.24929">
        <ele>5.4</ele>
        <time>2020-06-15T10:25:13Z</time>
      </trkpt>
      <trkpt lat="49.65714" lon="-1.24925">
        <ele>5.5</ele>
        <time>2020-06-15T10:25:14Z</time>
      </trkpt>
      <trkpt lat="49.65709" lon="-1.24921">
        <ele>5.6</ele>
        <time>2020-06-15T10:25:15Z</time>
      </trkpt>
      <trkpt lat="49.65703" lon="-1.24918">
        <ele>5.7</ele>
        <time>2020-06-15T10:25:16Z</time>
      </trkpt>
      <trkpt lat="49.65698" lon="-1.24916">
        <ele>5.8</ele>
        <time>2020-06-15T10:25:17Z</time>
      </trkpt>
      <trkpt lat="49.65693" lon="-1.24912">
        <ele>5.9</ele>
        <time>2020-06-15T10:25:18Z</time>
      </trkpt>
      <trkpt lat="49.65687" lon="-1.2491">
        <ele>5.9</ele>
        <time>2020-06-15T10:25:19Z</time>
      </trkpt>
      <trkpt lat="49.65681" lon="-1.24907">
        <ele>6</ele>
        <time>2020-06-15T10:25:20Z</time>
      </trkpt>
      <trkpt lat="49.65676" lon="-1.24905">
        <ele>6.1</ele>
        <time>2020-06-15T10:25:21Z</time>
      </trkpt>
      <trkpt lat="49.6567" lon="-1.24903">
        <ele>6.2</ele>
        <time>2020-06-15T10:25:22Z</time>
      </trkpt>
      <trkpt lat="49.65664" lon="-1.24903">
        <ele>6.2</ele>
        <time>2020-06-15T10:25:23Z</time>
      </trkpt>
      <trkpt lat="49.65658" lon="-1.24902">
        <ele>6.3</ele>
        <time>2020-06-15T10:25:24Z</time>
      </trkpt>
      <trkpt lat="49.65653" lon="-1.249">
        <ele>6.2</ele>
        <time>2020-06-15T10:25:25Z</time>
      </trkpt>
      <trkpt lat="49.65647" lon="-1.24898">
        <ele>6.2</ele>
        <time>2020-06-15T10:25:26Z</time>
      </trkpt>
      <trkpt lat="49.6564" lon="-1.24899">
        <ele>6.2</ele>
        <time>2020-06-15T10:25:27Z</time>
      </trkpt>
      <trkpt lat="49.65634" lon="-1.24898">
        <ele>6.1</ele>
        <time>2020-06-15T10:25:28Z</time>
      </trkpt>
      <trkpt lat="49.65627" lon="-1.24896">
        <ele>6</ele>
        <time>2020-06-15T10:25:29Z</time>
      </trkpt>
      <trkpt lat="49.65621" lon="-1.24894">
        <ele>5.9</ele>
        <time>2020-06-15T10:25:30Z</time>
      </trkpt>
      <trkpt lat="49.65615" lon="-1.24893">
        <ele>5.9</ele>
        <time>2020-06-15T10:25:31Z</time>
      </trkpt>
      <trkpt lat="49.65609" lon="-1.24891">
        <ele>5.9</ele>
        <time>2020-06-15T10:25:32Z</time>
      </trkpt>
      <trkpt lat="49.65602" lon="-1.24889">
        <ele>6</ele>
        <time>2020-06-15T10:25:33Z</time>
      </trkpt>
      <trkpt lat="49.65595" lon="-1.24886">
        <ele>6</ele>
        <time>2020-06-15T10:25:34Z</time>
      </trkpt>
      <trkpt lat="49.65589" lon="-1.24882">
        <ele>6</ele>
        <time>2020-06-15T10:25:35Z</time>
      </trkpt>
      <trkpt lat="49.65582" lon="-1.24879">
        <ele>5.8</ele>
        <time>2020-06-15T10:25:36Z</time>
      </trkpt>
      <trkpt lat="49.65575" lon="-1.24875">
        <ele>5.7</ele>
        <time>2020-06-15T10:25:37Z</time>
      </trkpt>
      <trkpt lat="49.65569" lon="-1.24873">
        <ele>5.5</ele>
        <time>2020-06-15T10:25:38Z</time>
      </trkpt>
      <trkpt lat="49.65563" lon="-1.2487">
        <ele>5.4</ele>
        <time>2020-06-15T10:25:39Z</time>
      </trkpt>
      <trkpt lat="49.65556" lon="-1.24866">
        <ele>5.2</ele>
        <time>2020-06-15T10:25:40Z</time>
      </trkpt>
      <trkpt lat="49.65549" lon="-1.24862">
        <ele>5.1</ele>
        <time>2020-06-15T10:25:41Z</time>
      </trkpt>
      <trkpt lat="49.65542" lon="-1.24858">
        <ele>5</ele>
        <time>2020-06-15T10:25:42Z</time>
      </trkpt>
      <trkpt lat="49.65535" lon="-1.24853">
        <ele>5</ele>
        <time>2020-06-15T10:25:43Z</time>
      </trkpt>
      <trkpt lat="49.65529" lon="-1.2485">
        <ele>5</ele>
        <time>2020-06-15T10:25:44Z</time>
      </trkpt>
      <trkpt lat="49.65522" lon="-1.24846">
        <ele>5</ele>
        <time>2020-06-15T10:25:45Z</time>
      </trkpt>
      <trkpt lat="49.65515" lon="-1.24842">
        <ele>5</ele>
        <time>2020-06-15T10:25:46Z</time>
      </trkpt>
      <trkpt lat="49.65508" lon="-1.24838">
        <ele>5</ele>
        <time>2020-06-15T10:25:47Z</time>
      </trkpt>
      <trkpt lat="49.65501" lon="-1.24835">
        <ele>5</ele>
        <time>2020-06-15T10:25:48Z</time>
      </trkpt>
      <trkpt lat="49.65495" lon="-1.24831">
        <ele>5</ele>
        <time>2020-06-15T10:25:49Z</time>
      </trkpt>
      <trkpt lat="49.65488" lon="-1.24828">
        <ele>5</ele>
        <time>2020-06-15T10:25:50Z</time>
      </trkpt>
      <trkpt lat="49.65481" lon="-1.24825">
        <ele>4.9</ele>
        <time>2020-06-15T10:25:51Z</time>
      </trkpt>
      <trkpt lat="49.65474" lon="-1.24823">
        <ele>4.9</ele>
        <time>2020-06-15T10:25:52Z</time>
      </trkpt>
      <trkpt lat="49.65467" lon="-1.24821">
        <ele>4.9</ele>
        <time>2020-06-15T10:25:53Z</time>
      </trkpt>
      <trkpt lat="49.65461" lon="-1.24819">
        <ele>4.9</ele>
        <time>2020-06-15T10:25:54Z</time>
      </trkpt>
      <trkpt lat="49.65454" lon="-1.24819">
        <ele>5</ele>
        <time>2020-06-15T10:25:55Z</time>
      </trkpt>
      <trkpt lat="49.65447" lon="-1.24816">
        <ele>5.1</ele>
        <time>2020-06-15T10:25:56Z</time>
      </trkpt>
      <trkpt lat="49.65441" lon="-1.24813">
        <ele>5.1</ele>
        <time>2020-06-15T10:25:57Z</time>
      </trkpt>
      <trkpt lat="49.65434" lon="-1.24811">
        <ele>5.2</ele>
        <time>2020-06-15T10:25:58Z</time>
      </trkpt>
      <trkpt lat="49.65428" lon="-1.24808">
        <ele>5.3</ele>
        <time>2020-06-15T10:25:59Z</time>
      </trkpt>
      <trkpt lat="49.65421" lon="-1.24806">
        <ele>5.4</ele>
        <time>2020-06-15T10:26:00Z</time>
      </trkpt>
      <trkpt lat="49.65416" lon="-1.24802">
        <ele>5.5</ele>
        <time>2020-06-15T10:26:01Z</time>
      </trkpt>
      <trkpt lat="49.6541" lon="-1.24798">
        <ele>5.6</ele>
        <time>2020-06-15T10:26:02Z</time>
      </trkpt>
      <trkpt lat="49.65404" lon="-1.24795">
        <ele>5.7</ele>
        <time>2020-06-15T10:26:03Z</time>
      </trkpt>
      <trkpt lat="49.65399" lon="-1.2479">
        <ele>5.8</ele>
        <time>2020-06-15T10:26:04Z</time>
      </trkpt>
      <trkpt lat="49.65393" lon="-1.24786">
        <ele>5.9</ele>
        <time>2020-06-15T10:26:05Z</time>
      </trkpt>
      <trkpt lat="49.65387" lon="-1.24782">
        <ele>5.9</ele>
        <time>2020-06-15T10:26:06Z</time>
      </trkpt>
      <trkpt lat="49.65381" lon="-1.24779">
        <ele>6</ele>
        <time>2020-06-15T10:26:07Z</time>
      </trkpt>
      <trkpt lat="49.65376" lon="-1.24774">
        <ele>6</ele>
        <time>2020-06-15T10:26:08Z</time>
      </trkpt>
      <trkpt lat="49.6537" lon="-1.24771">
        <ele>6</ele>
        <time>2020-06-15T10:26:09Z</time>
      </trkpt>
      <trkpt lat="49.65364" lon="-1.24767">
        <ele>6</ele>
        <time>2020-06-15T10:26:10Z</time>
      </trkpt>
      <trkpt lat="49.65358" lon="-1.24764">
        <ele>5.9</ele>
        <time>2020-06-15T10:26:11Z</time>
      </trkpt>
      <trkpt lat="49.65352" lon="-1.24761">
        <ele>5.9</ele>
        <time>2020-06-15T10:26:12Z</time>
      </trkpt>
      <trkpt lat="49.65346" lon="-1.24758">
        <ele>5.9</ele>
        <time>2020-06-15T10:26:13Z</time>
      </trkpt>
      <trkpt lat="49.6534" lon="-1.24754">
        <ele>5.8</ele>
        <time>2020-06-15T10:26:14Z</time>
      </trkpt>
      <trkpt lat="49.65334" lon="-1.2475">
        <ele>5.8</ele>
        <time>2020-06-15T10:26:15Z</time>
      </trkpt>
      <trkpt lat="49.65328" lon="-1.24746">
        <ele>5.7</ele>
        <time>2020-06-15T10:26:16Z</time>
      </trkpt>
      <trkpt lat="49.65322" lon="-1.24742">
        <ele>5.7</ele>
        <time>2020-06-15T10:26:17Z</time>
      </trkpt>
      <trkpt lat="49.65316" lon="-1.24738">
        <ele>5.6</ele>
        <time>2020-06-15T10:26:18Z</time>
      </trkpt>
      <trkpt lat="49.6531" lon="-1.24733">
        <ele>5.5</ele>
        <time>2020-06-15T10:26:19Z</time>
      </trkpt>
      <trkpt lat="49.65303" lon="-1.24728">
        <ele>5.4</ele>
        <time>2020-06-15T10:26:20Z</time>
      </trkpt>
      <trkpt lat="49.65297" lon="-1.24723">
        <ele>5.3</ele>
        <time>2020-06-15T10:26:21Z</time>
      </trkpt>
      <trkpt lat="49.6529" lon="-1.24718">
        <ele>5.2</ele>
        <time>2020-06-15T10:26:22Z</time>
      </trkpt>
      <trkpt lat="49.65283" lon="-1.24713">
        <ele>5.1</ele>
        <time>2020-06-15T10:26:23Z</time>
      </trkpt>
      <trkpt lat="49.65276" lon="-1.24708">
        <ele>5</ele>
        <time>2020-06-15T10:26:24Z</time>
      </trkpt>
      <trkpt lat="49.65269" lon="-1.24702">
        <ele>4.9</ele>
        <time>2020-06-15T10:26:25Z</time>
      </trkpt>
      <trkpt lat="49.65262" lon="-1.24697">
        <ele>4.8</ele>
        <time>2020-06-15T10:26:26Z</time>
      </trkpt>
      <trkpt lat="49.65255" lon="-1.24692">
        <ele>4.8</ele>
        <time>2020-06-15T10:26:27Z</time>
      </trkpt>
      <trkpt lat="49.65248" lon="-1.24687">
        <ele>4.7</ele>
        <time>2020-06-15T10:26:28Z</time>
      </trkpt>
      <trkpt lat="49.65241" lon="-1.24683">
        <ele>4.8</ele>
        <time>2020-06-15T10:26:29Z</time>
      </trkpt>
      <trkpt lat="49.65234" lon="-1.24678">
        <ele>4.8</ele>
        <time>2020-06-15T10:26:30Z</time>
      </trkpt>
      <trkpt lat="49.65227" lon="-1.24673">
        <ele>4.8</ele>
        <time>2020-06-15T10:26:31Z</time>
      </trkpt>
      <trkpt lat="49.6522" lon="-1.24669">
        <ele>4.8</ele>
        <time>2020-06-15T10:26:32Z</time>
      </trkpt>
      <trkpt lat="49.65212" lon="-1.24665">
        <ele>4.9</ele>
        <time>2020-06-15T10:26:33Z</time>
      </trkpt>
      <trkpt lat="49.65205" lon="-1.24661">
        <ele>4.9</ele>
        <time>2020-06-15T10:26:34Z</time>
      </trkpt>
      <trkpt lat="49.65199" lon="-1.24657">
        <ele>4.9</ele>
        <time>2020-06-15T10:26:35Z</time>
      </trkpt>
      <trkpt lat="49.65192" lon="-1.24652">
        <ele>5</ele>
        <time>2020-06-15T10:26:36Z</time>
      </trkpt>
      <trkpt lat="49.65186" lon="-1.24646">
        <ele>5</ele>
        <time>2020-06-15T10:26:37Z</time>
      </trkpt>
      <trkpt lat="49.6518" lon="-1.24641">
        <ele>5</ele>
        <time>2020-06-15T10:26:38Z</time>
      </trkpt>
      <trkpt lat="49.65174" lon="-1.24635">
        <ele>5</ele>
        <time>2020-06-15T10:26:39Z</time>
      </trkpt>
      <trkpt lat="49.65168" lon="-1.2463">
        <ele>5</ele>
        <time>2020-06-15T10:26:40Z</time>
      </trkpt>
      <trkpt lat="49.65162" lon="-1.24625">
        <ele>5</ele>
        <time>2020-06-15T10:26:41Z</time>
      </trkpt>
      <trkpt lat="49.65156" lon="-1.24619">
        <ele>4.9</ele>
        <time>2020-06-15T10:26:42Z</time>
      </trkpt>
      <trkpt lat="49.6515" lon="-1.24614">
        <ele>4.9</ele>
        <time>2020-06-15T10:26:43Z</time>
      </trkpt>
      <trkpt lat="49.65144" lon="-1.24608">
        <ele>4.9</ele>
        <time>2020-06-15T10:26:44Z</time>
      </trkpt>
      <trkpt lat="49.65139" lon="-1.24602">
        <ele>4.9</ele>
        <time>2020-06-15T10:26:45Z</time>
      </trkpt>
      <trkpt lat="49.65133" lon="-1.24598">
        <ele>4.8</ele>
        <time>2020-06-15T10:26:46Z</time>
      </trkpt>
      <trkpt lat="49.65127" lon="-1.24592">
        <ele>4.8</ele>
        <time>2020-06-15T10:26:47Z</time>
      </trkpt>
      <trkpt lat="49.65121" lon="-1.24585">
        <ele>4.7</ele>
        <time>2020-06-15T10:26:48Z</time>
      </trkpt>
      <trkpt lat="49.65115" lon="-1.2458">
        <ele>4.7</ele>
        <time>2020-06-15T10:26:49Z</time>
      </trkpt>
      <trkpt lat="49.65109" lon="-1.24574">
        <ele>4.6</ele>
        <time>2020-06-15T10:26:50Z</time>
      </trkpt>
      <trkpt lat="49.65103" lon="-1.24568">
        <ele>4.6</ele>
        <time>2020-06-15T10:26:51Z</time>
      </trkpt>
      <trkpt lat="49.65097" lon="-1.2456">
        <ele>4.5</ele>
        <time>2020-06-15T10:26:52Z</time>
      </trkpt>
      <trkpt lat="49.65091" lon="-1.24554">
        <ele>4.5</ele>
        <time>2020-06-15T10:26:53Z</time>
      </trkpt>
      <trkpt lat="49.65085" lon="-1.24548">
        <ele>4.5</ele>
        <time>2020-06-15T10:26:54Z</time>
      </trkpt>
      <trkpt lat="49.65079" lon="-1.24542">
        <ele>4.5</ele>
        <time>2020-06-15T10:26:55Z</time>
      </trkpt>
      <trkpt lat="49.65072" lon="-1.24536">
        <ele>4.5</ele>
        <time>2020-06-15T10:26:56Z</time>
      </trkpt>
      <trkpt lat="49.65065" lon="-1.24533">
        <ele>4.5</ele>
        <time>2020-06-15T10:26:57Z</time>
      </trkpt>
      <trkpt lat="49.65059" lon="-1.24528">
        <ele>4.5</ele>
        <time>2020-06-15T10:26:58Z</time>
      </trkpt>
      <trkpt lat="49.65053" lon="-1.24525">
        <ele>4.5</ele>
        <time>2020-06-15T10:26:59Z</time>
      </trkpt>
      <trkpt lat="49.65047" lon="-1.2452">
        <ele>4.6</ele>
        <time>2020-06-15T10:27:00Z</time>
      </trkpt>
      <trkpt lat="49.6504" lon="-1.24517">
        <ele>4.7</ele>
        <time>2020-06-15T10:27:01Z</time>
      </trkpt>
      <trkpt lat="49.65034" lon="-1.24514">
        <ele>4.8</ele>
        <time>2020-06-15T10:27:02Z</time>
      </trkpt>
      <trkpt lat="49.65029" lon="-1.24508">
        <ele>4.9</ele>
        <time>2020-06-15T10:27:03Z</time>
      </trkpt>
      <trkpt lat="49.65022" lon="-1.24507">
        <ele>5</ele>
        <time>2020-06-15T10:27:04Z</time>
      </trkpt>
      <trkpt lat="49.65016" lon="-1.24504">
        <ele>5.1</ele>
        <time>2020-06-15T10:27:05Z</time>
      </trkpt>
      <trkpt lat="49.6501" lon="-1.245">
        <ele>5.3</ele>
        <time>2020-06-15T10:27:06Z</time>
      </trkpt>
      <trkpt lat="49.65004" lon="-1.24497">
        <ele>5.5</ele>
        <time>2020-06-15T10:27:07Z</time>
      </trkpt>
      <trkpt lat="49.64999" lon="-1.24493">
        <ele>5.7</ele>
        <time>2020-06-15T10:27:08Z</time>
      </trkpt>
      <trkpt lat="49.64994" lon="-1.24489">
        <ele>5.9</ele>
        <time>2020-06-15T10:27:09Z</time>
      </trkpt>
      <trkpt lat="49.64987" lon="-1.24483">
        <ele>6.1</ele>
        <time>2020-06-15T10:27:10Z</time>
      </trkpt>
      <trkpt lat="49.64981" lon="-1.2448">
        <ele>6.3</ele>
        <time>2020-06-15T10:27:11Z</time>
      </trkpt>
      <trkpt lat="49.64975" lon="-1.24475">
        <ele>6.5</ele>
        <time>2020-06-15T10:27:12Z</time>
      </trkpt>
      <trkpt lat="49.64969" lon="-1.24471">
        <ele>6.7</ele>
        <time>2020-06-15T10:27:13Z</time>
      </trkpt>
      <trkpt lat="49.64964" lon="-1.24465">
        <ele>6.8</ele>
        <time>2020-06-15T10:27:14Z</time>
      </trkpt>
      <trkpt lat="49.64958" lon="-1.2446">
        <ele>7</ele>
        <time>2020-06-15T10:27:15Z</time>
      </trkpt>
      <trkpt lat="49.64953" lon="-1.24456">
        <ele>7.1</ele>
        <time>2020-06-15T10:27:16Z</time>
      </trkpt>
      <trkpt lat="49.64947" lon="-1.24453">
        <ele>7.2</ele>
        <time>2020-06-15T10:27:17Z</time>
      </trkpt>
      <trkpt lat="49.64942" lon="-1.24447">
        <ele>7.2</ele>
        <time>2020-06-15T10:27:18Z</time>
      </trkpt>
      <trkpt lat="49.64937" lon="-1.24445">
        <ele>7.3</ele>
        <time>2020-06-15T10:27:19Z</time>
      </trkpt>
      <trkpt lat="49.64932" lon="-1.24442">
        <ele>7.2</ele>
        <time>2020-06-15T10:27:20Z</time>
      </trkpt>
      <trkpt lat="49.64926" lon="-1.24439">
        <ele>7.1</ele>
        <time>2020-06-15T10:27:21Z</time>
      </trkpt>
      <trkpt lat="49.64923" lon="-1.24437">
        <ele>7</ele>
        <time>2020-06-15T10:27:22Z</time>
      </trkpt>
      <trkpt lat="49.64919" lon="-1.24432">
        <ele>6.9</ele>
        <time>2020-06-15T10:27:23Z</time>
      </trkpt>
      <trkpt lat="49.64914" lon="-1.24425">
        <ele>6.7</ele>
        <time>2020-06-15T10:27:24Z</time>
      </trkpt>
      <trkpt lat="49.64911" lon="-1.24417">
        <ele>6.4</ele>
        <time>2020-06-15T10:27:25Z</time>
      </trkpt>
      <trkpt lat="49.64907" lon="-1.24409">
        <ele>6.1</ele>
        <time>2020-06-15T10:27:26Z</time>
      </trkpt>
      <trkpt lat="49.64904" lon="-1.24402">
        <ele>5.8</ele>
        <time>2020-06-15T10:27:27Z</time>
      </trkpt>
      <trkpt lat="49.64901" lon="-1.24396">
        <ele>5.5</ele>
        <time>2020-06-15T10:27:28Z</time>
      </trkpt>
      <trkpt lat="49.64896" lon="-1.24389">
        <ele>5.2</ele>
        <time>2020-06-15T10:27:29Z</time>
      </trkpt>
      <trkpt lat="49.6489" lon="-1.24383">
        <ele>4.7</ele>
        <time>2020-06-15T10:27:30Z</time>
      </trkpt>
      <trkpt lat="49.64885" lon="-1.24379">
        <ele>4.4</ele>
        <time>2020-06-15T10:27:31Z</time>
      </trkpt>
      <trkpt lat="49.64879" lon="-1.24378">
        <ele>4</ele>
        <time>2020-06-15T10:27:32Z</time>
      </trkpt>
      <trkpt lat="49.64872" lon="-1.2438">
        <ele>3.6</ele>
        <time>2020-06-15T10:27:33Z</time>
      </trkpt>
      <trkpt lat="49.64865" lon="-1.24383">
        <ele>3.2</ele>
        <time>2020-06-15T10:27:34Z</time>
      </trkpt>
      <trkpt lat="49.64858" lon="-1.24385">
        <ele>2.8</ele>
        <time>2020-06-15T10:27:35Z</time>
      </trkpt>
      <trkpt lat="49.6485" lon="-1.24387">
        <ele>2.5</ele>
        <time>2020-06-15T10:27:36Z</time>
      </trkpt>
      <trkpt lat="49.64842" lon="-1.24388">
        <ele>2.2</ele>
        <time>2020-06-15T10:27:37Z</time>
      </trkpt>
      <trkpt lat="49.64835" lon="-1.24389">
        <ele>1.9</ele>
        <time>2020-06-15T10:27:38Z</time>
      </trkpt>
      <trkpt lat="49.64827" lon="-1.24389">
        <ele>1.6</ele>
        <time>2020-06-15T10:27:39Z</time>
      </trkpt>
      <trkpt lat="49.6482" lon="-1.24387">
        <ele>1.6</ele>
        <time>2020-06-15T10:27:40Z</time>
      </trkpt>
      <trkpt lat="49.64812" lon="-1.24383">
        <ele>1.6</ele>
        <time>2020-06-15T10:27:41Z</time>
      </trkpt>
      <trkpt lat="49.64806" lon="-1.24378">
        <ele>1.6</ele>
        <time>2020-06-15T10:27:42Z</time>
      </trkpt>
      <trkpt lat="49.64799" lon="-1.24374">
        <ele>1.6</ele>
        <time>2020-06-15T10:27:43Z</time>
      </trkpt>
      <trkpt lat="49.64792" lon="-1.2437">
        <ele>1.6</ele>
        <time>2020-06-15T10:27:44Z</time>
      </trkpt>
      <trkpt lat="49.64786" lon="-1.24366">
        <ele>1.6</ele>
        <time>2020-06-15T10:27:45Z</time>
      </trkpt>
      <trkpt lat="49.64779" lon="-1.24364">
        <ele>1.6</ele>
        <time>2020-06-15T10:27:46Z</time>
      </trkpt>
      <trkpt lat="49.64774" lon="-1.24363">
        <ele>1.6</ele>
        <time>2020-06-15T10:27:47Z</time>
      </trkpt>
      <trkpt lat="49.6477" lon="-1.24364">
        <ele>1.6</ele>
        <time>2020-06-15T10:27:48Z</time>
      </trkpt>
      <trkpt lat="49.64767" lon="-1.24365">
        <ele>1.6</ele>
        <time>2020-06-15T10:27:49Z</time>
      </trkpt>
      <trkpt lat="49.64764" lon="-1.24363">
        <ele>1.6</ele>
        <time>2020-06-15T10:27:50Z</time>
      </trkpt>
      <trkpt lat="49.64763" lon="-1.24362">
        <ele>1.6</ele>
        <time>2020-06-15T10:27:51Z</time>
      </trkpt>
      <trkpt lat="49.64761" lon="-1.24356">
        <ele>1.7</ele>
        <time>2020-06-15T10:27:52Z</time>
      </trkpt>
      <trkpt lat="49.64761" lon="-1.24355">
        <ele>1.7</ele>
        <time>2020-06-15T10:27:53Z</time>
      </trkpt>
      <trkpt lat="49.64758" lon="-1.2435">
        <ele>1.7</ele>
        <time>2020-06-15T10:27:54Z</time>
      </trkpt>
      <trkpt lat="49.64758" lon="-1.24348">
        <ele>1.7</ele>
        <time>2020-06-15T10:27:55Z</time>
      </trkpt>
      <trkpt lat="49.64758" lon="-1.24343">
        <ele>1.7</ele>
        <time>2020-06-15T10:27:56Z</time>
      </trkpt>
      <trkpt lat="49.64755" lon="-1.24341">
        <ele>1.7</ele>
        <time>2020-06-15T10:27:57Z</time>
      </trkpt>
      <trkpt lat="49.64753" lon="-1.24337">
        <ele>1.7</ele>
        <time>2020-06-15T10:27:58Z</time>
      </trkpt>
      <trkpt lat="49.64751" lon="-1.24335">
        <ele>1.7</ele>
        <time>2020-06-15T10:27:59Z</time>
      </trkpt>
      <trkpt lat="49.64747" lon="-1.24333">
        <ele>1.7</ele>
        <time>2020-06-15T10:28:00Z</time>
      </trkpt>
      <trkpt lat="49.64744" lon="-1.24331">
        <ele>1.7</ele>
        <time>2020-06-15T10:28:01Z</time>
      </trkpt>
      <trkpt lat="49.64741" lon="-1.24329">
        <ele>1.8</ele>
        <time>2020-06-15T10:28:02Z</time>
      </trkpt>
      <trkpt lat="49.64738" lon="-1.24326">
        <ele>1.8</ele>
        <time>2020-06-15T10:28:03Z</time>
      </trkpt>
      <trkpt lat="49.64736" lon="-1.24322">
        <ele>1.8</ele>
        <time>2020-06-15T10:28:04Z</time>
      </trkpt>
      <trkpt lat="49.64734" lon="-1.24319">
        <ele>1.8</ele>
        <time>2020-06-15T10:28:05Z</time>
      </trkpt>
      <trkpt lat="49.64731" lon="-1.24316">
        <ele>1.9</ele>
        <time>2020-06-15T10:28:06Z</time>
      </trkpt>
      <trkpt lat="49.64728" lon="-1.24314">
        <ele>1.9</ele>
        <time>2020-06-15T10:28:07Z</time>
      </trkpt>
      <trkpt lat="49.64726" lon="-1.2431">
        <ele>1.9</ele>
        <time>2020-06-15T10:28:08Z</time>
      </trkpt>
      <trkpt lat="49.64723" lon="-1.24307">
        <ele>2</ele>
        <time>2020-06-15T10:28:09Z</time>
      </trkpt>
      <trkpt lat="49.64719" lon="-1.24305">
        <ele>2</ele>
        <time>2020-06-15T10:28:10Z</time>
      </trkpt>
      <trkpt lat="49.64716" lon="-1.24302">
        <ele>2</ele>
        <time>2020-06-15T10:28:11Z</time>
      </trkpt>
      <trkpt lat="49.64712" lon="-1.24299">
        <ele>2.1</ele>
        <time>2020-06-15T10:28:12Z</time>
      </trkpt>
      <trkpt lat="49.64709" lon="-1.24296">
        <ele>2.1</ele>
        <time>2020-06-15T10:28:13Z</time>
      </trkpt>
      <trkpt lat="49.64705" lon="-1.24293">
        <ele>2.1</ele>
        <time>2020-06-15T10:28:14Z</time>
      </trkpt>
      <trkpt lat="49.64702" lon="-1.2429">
        <ele>2.1</ele>
        <time>2020-06-15T10:28:15Z</time>
      </trkpt>
      <trkpt lat="49.64698" lon="-1.24287">
        <ele>2.2</ele>
        <time>2020-06-15T10:28:16Z</time>
      </trkpt>
      <trkpt lat="49.64695" lon="-1.24283">
        <ele>2.2</ele>
        <time>2020-06-15T10:28:17Z</time>
      </trkpt>
      <trkpt lat="49.64691" lon="-1.24278">
        <ele>2.2</ele>
        <time>2020-06-15T10:28:18Z</time>
      </trkpt>
      <trkpt lat="49.64687" lon="-1.24273">
        <ele>2.3</ele>
        <time>2020-06-15T10:28:19Z</time>
      </trkpt>
      <trkpt lat="49.64684" lon="-1.24268">
        <ele>2.3</ele>
        <time>2020-06-15T10:28:20Z</time>
      </trkpt>
      <trkpt lat="49.64681" lon="-1.24265">
        <ele>2.3</ele>
        <time>2020-06-15T10:28:21Z</time>
      </trkpt>
      <trkpt lat="49.64679" lon="-1.24263">
        <ele>2.3</ele>
        <time>2020-06-15T10:28:22Z</time>
      </trkpt>
      <trkpt lat="49.64675" lon="-1.24259">
        <ele>2.4</ele>
        <time>2020-06-15T10:28:23Z</time>
      </trkpt>
      <trkpt lat="49.64672" lon="-1.24253">
        <ele>2.4</ele>
        <time>2020-06-15T10:28:24Z</time>
      </trkpt>
      <trkpt lat="49.64669" lon="-1.24249">
        <ele>2.4</ele>
        <time>2020-06-15T10:28:25Z</time>
      </trkpt>
      <trkpt lat="49.64666" lon="-1.24245">
        <ele>2.4</ele>
        <time>2020-06-15T10:28:26Z</time>
      </trkpt>
      <trkpt lat="49.64662" lon="-1.2424">
        <ele>2.4</ele>
        <time>2020-06-15T10:28:27Z</time>
      </trkpt>
      <trkpt lat="49.64659" lon="-1.24236">
        <ele>2.4</ele>
        <time>2020-06-15T10:28:28Z</time>
      </trkpt>
      <trkpt lat="49.64655" lon="-1.24231">
        <ele>2.4</ele>
        <time>2020-06-15T10:28:29Z</time>
      </trkpt>
      <trkpt lat="49.64652" lon="-1.24227">
        <ele>2.4</ele>
        <time>2020-06-15T10:28:30Z</time>
      </trkpt>
      <trkpt lat="49.64648" lon="-1.24222">
        <ele>2.3</ele>
        <time>2020-06-15T10:28:31Z</time>
      </trkpt>
      <trkpt lat="49.64644" lon="-1.24219">
        <ele>2.3</ele>
        <time>2020-06-15T10:28:32Z</time>
      </trkpt>
      <trkpt lat="49.64642" lon="-1.24216">
        <ele>2.3</ele>
        <time>2020-06-15T10:28:33Z</time>
      </trkpt>
      <trkpt lat="49.64638" lon="-1.24211">
        <ele>2.3</ele>
        <time>2020-06-15T10:28:34Z</time>
      </trkpt>
      <trkpt lat="49.64635" lon="-1.24207">
        <ele>2.2</ele>
        <time>2020-06-15T10:28:35Z</time>
      </trkpt>
      <trkpt lat="49.64631" lon="-1.24203">
        <ele>2.2</ele>
        <time>2020-06-15T10:28:36Z</time>
      </trkpt>
      <trkpt lat="49.64627" lon="-1.242">
        <ele>2.2</ele>
        <time>2020-06-15T10:28:37Z</time>
      </trkpt>
      <trkpt lat="49.64623" lon="-1.24196">
        <ele>2.3</ele>
        <time>2020-06-15T10:28:38Z</time>
      </trkpt>
      <trkpt lat="49.64618" lon="-1.24193">
        <ele>2.3</ele>
        <time>2020-06-15T10:28:39Z</time>
      </trkpt>
      <trkpt lat="49.64615" lon="-1.24192">
        <ele>2.3</ele>
        <time>2020-06-15T10:28:40Z</time>
      </trkpt>
      <trkpt lat="49.64612" lon="-1.24193">
        <ele>2.3</ele>
        <time>2020-06-15T10:28:41Z</time>
      </trkpt>
      <trkpt lat="49.64608" lon="-1.24194">
        <ele>2.3</ele>
        <time>2020-06-15T10:28:42Z</time>
      </trkpt>
      <trkpt lat="49.64603" lon="-1.24197">
        <ele>2.3</ele>
        <time>2020-06-15T10:28:43Z</time>
      </trkpt>
      <trkpt lat="49.64599" lon="-1.24198">
        <ele>2.3</ele>
        <time>2020-06-15T10:28:44Z</time>
      </trkpt>
      <trkpt lat="49.64596" lon="-1.24197">
        <ele>2.2</ele>
        <time>2020-06-15T10:28:45Z</time>
      </trkpt>
      <trkpt lat="49.64592" lon="-1.24196">
        <ele>2.2</ele>
        <time>2020-06-15T10:28:46Z</time>
      </trkpt>
      <trkpt lat="49.64589" lon="-1.24197">
        <ele>2.2</ele>
        <time>2020-06-15T10:28:47Z</time>
      </trkpt>
      <trkpt lat="49.64586" lon="-1.24199">
        <ele>2.2</ele>
        <time>2020-06-15T10:28:48Z</time>
      </trkpt>
      <trkpt lat="49.64583" lon="-1.242">
        <ele>2.2</ele>
        <time>2020-06-15T10:28:49Z</time>
      </trkpt>
      <trkpt lat="49.64579" lon="-1.24201">
        <ele>2.2</ele>
        <time>2020-06-15T10:28:50Z</time>
      </trkpt>
      <trkpt lat="49.64576" lon="-1.24201">
        <ele>2.1</ele>
        <time>2020-06-15T10:28:51Z</time>
      </trkpt>
      <trkpt lat="49.64573" lon="-1.24202">
        <ele>2.1</ele>
        <time>2020-06-15T10:28:52Z</time>
      </trkpt>
      <trkpt lat="49.64569" lon="-1.24202">
        <ele>2.1</ele>
        <time>2020-06-15T10:28:53Z</time>
      </trkpt>
      <trkpt lat="49.64566" lon="-1.24201">
        <ele>2.1</ele>
        <time>2020-06-15T10:28:54Z</time>
      </trkpt>
      <trkpt lat="49.64563" lon="-1.24201">
        <ele>2</ele>
        <time>2020-06-15T10:28:55Z</time>
      </trkpt>
      <trkpt lat="49.6456" lon="-1.24202">
        <ele>2</ele>
        <time>2020-06-15T10:28:56Z</time>
      </trkpt>
      <trkpt lat="49.64557" lon="-1.24203">
        <ele>2</ele>
        <time>2020-06-15T10:28:57Z</time>
      </trkpt>
      <trkpt lat="49.64554" lon="-1.24204">
        <ele>1.9</ele>
        <time>2020-06-15T10:28:58Z</time>
      </trkpt>
      <trkpt lat="49.6455" lon="-1.24204">
        <ele>1.9</ele>
        <time>2020-06-15T10:28:59Z</time>
      </trkpt>
      <trkpt lat="49.64547" lon="-1.24204">
        <ele>1.9</ele>
        <time>2020-06-15T10:29:00Z</time>
      </trkpt>
      <trkpt lat="49.64543" lon="-1.24203">
        <ele>1.9</ele>
        <time>2020-06-15T10:29:01Z</time>
      </trkpt>
      <trkpt lat="49.64539" lon="-1.24201">
        <ele>1.9</ele>
        <time>2020-06-15T10:29:02Z</time>
      </trkpt>
      <trkpt lat="49.64536" lon="-1.24201">
        <ele>1.9</ele>
        <time>2020-06-15T10:29:03Z</time>
      </trkpt>
      <trkpt lat="49.64532" lon="-1.24202">
        <ele>1.9</ele>
        <time>2020-06-15T10:29:04Z</time>
      </trkpt>
      <trkpt lat="49.64528" lon="-1.24202">
        <ele>1.9</ele>
        <time>2020-06-15T10:29:05Z</time>
      </trkpt>
      <trkpt lat="49.64524" lon="-1.24201">
        <ele>1.9</ele>
        <time>2020-06-15T10:29:06Z</time>
      </trkpt>
      <trkpt lat="49.64521" lon="-1.242">
        <ele>1.9</ele>
        <time>2020-06-15T10:29:07Z</time>
      </trkpt>
      <trkpt lat="49.64518" lon="-1.242">
        <ele>1.9</ele>
        <time>2020-06-15T10:29:08Z</time>
      </trkpt>
      <trkpt lat="49.64514" lon="-1.24199">
        <ele>1.9</ele>
        <time>2020-06-15T10:29:09Z</time>
      </trkpt>
      <trkpt lat="49.6451" lon="-1.24199">
        <ele>1.9</ele>
        <time>2020-06-15T10:29:10Z</time>
      </trkpt>
      <trkpt lat="49.64506" lon="-1.24197">
        <ele>1.9</ele>
        <time>2020-06-15T10:29:11Z</time>
      </trkpt>
      <trkpt lat="49.64503" lon="-1.24196">
        <ele>1.9</ele>
        <time>2020-06-15T10:29:12Z</time>
      </trkpt>
      <trkpt lat="49.64499" lon="-1.24196">
        <ele>1.9</ele>
        <time>2020-06-15T10:29:13Z</time>
      </trkpt>
      <trkpt lat="49.64495" lon="-1.24192">
        <ele>1.8</ele>
        <time>2020-06-15T10:29:14Z</time>
      </trkpt>
      <trkpt lat="49.64494" lon="-1.2419">
        <ele>1.8</ele>
        <time>2020-06-15T10:29:15Z</time>
      </trkpt>
      <trkpt lat="49.64491" lon="-1.24187">
        <ele>1.8</ele>
        <time>2020-06-15T10:29:16Z</time>
      </trkpt>
      <trkpt lat="49.64488" lon="-1.24184">
        <ele>1.8</ele>
        <time>2020-06-15T10:29:17Z</time>
      </trkpt>
      <trkpt lat="49.64485" lon="-1.24182">
        <ele>1.8</ele>
        <time>2020-06-15T10:29:18Z</time>
      </trkpt>
      <trkpt lat="49.64482" lon="-1.24181">
        <ele>1.8</ele>
        <time>2020-06-15T10:29:19Z</time>
      </trkpt>
      <trkpt lat="49.64478" lon="-1.24178">
        <ele>1.8</ele>
        <time>2020-06-15T10:29:20Z</time>
      </trkpt>
      <trkpt lat="49.64475" lon="-1.24177">
        <ele>1.8</ele>
        <time>2020-06-15T10:29:21Z</time>
      </trkpt>
      <trkpt lat="49.64471" lon="-1.24174">
        <ele>1.8</ele>
        <time>2020-06-15T10:29:22Z</time>
      </trkpt>
      <trkpt lat="49.64467" lon="-1.24173">
        <ele>1.7</ele>
        <time>2020-06-15T10:29:23Z</time>
      </trkpt>
      <trkpt lat="49.64464" lon="-1.24172">
        <ele>1.7</ele>
        <time>2020-06-15T10:29:24Z</time>
      </trkpt>
      <trkpt lat="49.6446" lon="-1.24171">
        <ele>1.7</ele>
        <time>2020-06-15T10:29:25Z</time>
      </trkpt>
      <trkpt lat="49.64457" lon="-1.24171">
        <ele>1.7</ele>
        <time>2020-06-15T10:29:26Z</time>
      </trkpt>
      <trkpt lat="49.64454" lon="-1.24171">
        <ele>1.7</ele>
        <time>2020-06-15T10:29:27Z</time>
      </trkpt>
      <trkpt lat="49.6445" lon="-1.2417">
        <ele>1.7</ele>
        <time>2020-06-15T10:29:28Z</time>
      </trkpt>
      <trkpt lat="49.64446" lon="-1.24171">
        <ele>1.7</ele>
        <time>2020-06-15T10:29:29Z</time>
      </trkpt>
      <trkpt lat="49.64443" lon="-1.24172">
        <ele>1.7</ele>
        <time>2020-06-15T10:29:30Z</time>
      </trkpt>
      <trkpt lat="49.6444" lon="-1.24173">
        <ele>1.8</ele>
        <time>2020-06-15T10:29:31Z</time>
      </trkpt>
      <trkpt lat="49.64435" lon="-1.24172">
        <ele>1.8</ele>
        <time>2020-06-15T10:29:32Z</time>
      </trkpt>
      <trkpt lat="49.64432" lon="-1.24174">
        <ele>1.8</ele>
        <time>2020-06-15T10:29:33Z</time>
      </trkpt>
      <trkpt lat="49.64429" lon="-1.24174">
        <ele>1.8</ele>
        <time>2020-06-15T10:29:34Z</time>
      </trkpt>
      <trkpt lat="49.64426" lon="-1.24175">
        <ele>1.8</ele>
        <time>2020-06-15T10:29:35Z</time>
      </trkpt>
      <trkpt lat="49.64422" lon="-1.24175">
        <ele>1.7</ele>
        <time>2020-06-15T10:29:36Z</time>
      </trkpt>
      <trkpt lat="49.6442" lon="-1.24174">
        <ele>1.7</ele>
        <time>2020-06-15T10:29:37Z</time>
      </trkpt>
      <trkpt lat="49.64416" lon="-1.24174">
        <ele>1.7</ele>
        <time>2020-06-15T10:29:38Z</time>
      </trkpt>
      <trkpt lat="49.64413" lon="-1.24171">
        <ele>1.8</ele>
        <time>2020-06-15T10:29:39Z</time>
      </trkpt>
      <trkpt lat="49.6441" lon="-1.24172">
        <ele>1.8</ele>
        <time>2020-06-15T10:29:40Z</time>
      </trkpt>
      <trkpt lat="49.64406" lon="-1.24172">
        <ele>1.8</ele>
        <time>2020-06-15T10:29:41Z</time>
      </trkpt>
      <trkpt lat="49.64401" lon="-1.24174">
        <ele>1.8</ele>
        <time>2020-06-15T10:29:42Z</time>
      </trkpt>
      <trkpt lat="49.64398" lon="-1.24175">
        <ele>1.9</ele>
        <time>2020-06-15T10:29:43Z</time>
      </trkpt>
      <trkpt lat="49.64394" lon="-1.24176">
        <ele>1.9</ele>
        <time>2020-06-15T10:29:44Z</time>
      </trkpt>
      <trkpt lat="49.6439" lon="-1.24177">
        <ele>1.9</ele>
        <time>2020-06-15T10:29:45Z</time>
      </trkpt>
      <trkpt lat="49.64387" lon="-1.24178">
        <ele>1.9</ele>
        <time>2020-06-15T10:29:46Z</time>
      </trkpt>
      <trkpt lat="49.64383" lon="-1.24179">
        <ele>1.9</ele>
        <time>2020-06-15T10:29:47Z</time>
      </trkpt>
      <trkpt lat="49.64379" lon="-1.24179">
        <ele>1.8</ele>
        <time>2020-06-15T10:29:48Z</time>
      </trkpt>
      <trkpt lat="49.64375" lon="-1.24181">
        <ele>1.8</ele>
        <time>2020-06-15T10:29:49Z</time>
      </trkpt>
      <trkpt lat="49.64371" lon="-1.24182">
        <ele>1.8</ele>
        <time>2020-06-15T10:29:50Z</time>
      </trkpt>
      <trkpt lat="49.64367" lon="-1.24183">
        <ele>1.9</ele>
        <time>2020-06-15T10:29:51Z</time>
      </trkpt>
      <trkpt lat="49.64363" lon="-1.24185">
        <ele>1.9</ele>
        <time>2020-06-15T10:29:52Z</time>
      </trkpt>
      <trkpt lat="49.64359" lon="-1.24187">
        <ele>1.9</ele>
        <time>2020-06-15T10:29:53Z</time>
      </trkpt>
      <trkpt lat="49.64355" lon="-1.24188">
        <ele>1.8</ele>
        <time>2020-06-15T10:29:54Z</time>
      </trkpt>
      <trkpt lat="49.64351" lon="-1.2419">
        <ele>1.8</ele>
        <time>2020-06-15T10:29:55Z</time>
      </trkpt>
      <trkpt lat="49.64347" lon="-1.24191">
        <ele>1.8</ele>
        <time>2020-06-15T10:29:56Z</time>
      </trkpt>
      <trkpt lat="49.64343" lon="-1.24193">
        <ele>1.8</ele>
        <time>2020-06-15T10:29:57Z</time>
      </trkpt>
      <trkpt lat="49.64338" lon="-1.24193">
        <ele>1.8</ele>
        <time>2020-06-15T10:29:58Z</time>
      </trkpt>
      <trkpt lat="49.64334" lon="-1.24194">
        <ele>1.9</ele>
        <time>2020-06-15T10:29:59Z</time>
      </trkpt>
      <trkpt lat="49.6433" lon="-1.24194">
        <ele>1.9</ele>
        <time>2020-06-15T10:30:00Z</time>
      </trkpt>
      <trkpt lat="49.64326" lon="-1.24194">
        <ele>1.9</ele>
        <time>2020-06-15T10:30:01Z</time>
      </trkpt>
      <trkpt lat="49.64321" lon="-1.24196">
        <ele>1.9</ele>
        <time>2020-06-15T10:30:02Z</time>
      </trkpt>
      <trkpt lat="49.64317" lon="-1.24198">
        <ele>2</ele>
        <time>2020-06-15T10:30:03Z</time>
      </trkpt>
      <trkpt lat="49.64313" lon="-1.24198">
        <ele>2</ele>
        <time>2020-06-15T10:30:04Z</time>
      </trkpt>
      <trkpt lat="49.64309" lon="-1.24199">
        <ele>2</ele>
        <time>2020-06-15T10:30:05Z</time>
      </trkpt>
      <trkpt lat="49.64305" lon="-1.242">
        <ele>2.1</ele>
        <time>2020-06-15T10:30:06Z</time>
      </trkpt>
      <trkpt lat="49.643" lon="-1.242">
        <ele>2.1</ele>
        <time>2020-06-15T10:30:07Z</time>
      </trkpt>
      <trkpt lat="49.64296" lon="-1.24202">
        <ele>2.2</ele>
        <time>2020-06-15T10:30:08Z</time>
      </trkpt>
      <trkpt lat="49.64292" lon="-1.24203">
        <ele>2.3</ele>
        <time>2020-06-15T10:30:09Z</time>
      </trkpt>
      <trkpt lat="49.64288" lon="-1.24206">
        <ele>2.3</ele>
        <time>2020-06-15T10:30:10Z</time>
      </trkpt>
      <trkpt lat="49.64284" lon="-1.24208">
        <ele>2.4</ele>
        <time>2020-06-15T10:30:11Z</time>
      </trkpt>
      <trkpt lat="49.6428" lon="-1.24208">
        <ele>2.4</ele>
        <time>2020-06-15T10:30:12Z</time>
      </trkpt>
      <trkpt lat="49.64276" lon="-1.24208">
        <ele>2.5</ele>
        <time>2020-06-15T10:30:13Z</time>
      </trkpt>
      <trkpt lat="49.64272" lon="-1.24209">
        <ele>2.5</ele>
        <time>2020-06-15T10:30:14Z</time>
      </trkpt>
      <trkpt lat="49.64268" lon="-1.24211">
        <ele>2.6</ele>
        <time>2020-06-15T10:30:15Z</time>
      </trkpt>
      <trkpt lat="49.64264" lon="-1.24212">
        <ele>2.6</ele>
        <time>2020-06-15T10:30:16Z</time>
      </trkpt>
      <trkpt lat="49.6426" lon="-1.24212">
        <ele>2.7</ele>
        <time>2020-06-15T10:30:17Z</time>
      </trkpt>
      <trkpt lat="49.64256" lon="-1.24212">
        <ele>2.7</ele>
        <time>2020-06-15T10:30:18Z</time>
      </trkpt>
      <trkpt lat="49.64253" lon="-1.24212">
        <ele>2.8</ele>
        <time>2020-06-15T10:30:19Z</time>
      </trkpt>
      <trkpt lat="49.64249" lon="-1.24213">
        <ele>2.8</ele>
        <time>2020-06-15T10:30:20Z</time>
      </trkpt>
      <trkpt lat="49.64245" lon="-1.24215">
        <ele>2.9</ele>
        <time>2020-06-15T10:30:21Z</time>
      </trkpt>
      <trkpt lat="49.6424" lon="-1.24215">
        <ele>3</ele>
        <time>2020-06-15T10:30:22Z</time>
      </trkpt>
      <trkpt lat="49.64235" lon="-1.24215">
        <ele>3.1</ele>
        <time>2020-06-15T10:30:23Z</time>
      </trkpt>
      <trkpt lat="49.64231" lon="-1.24218">
        <ele>3.2</ele>
        <time>2020-06-15T10:30:24Z</time>
      </trkpt>
      <trkpt lat="49.64227" lon="-1.24218">
        <ele>3.2</ele>
        <time>2020-06-15T10:30:25Z</time>
      </trkpt>
      <trkpt lat="49.64223" lon="-1.24219">
        <ele>3.3</ele>
        <time>2020-06-15T10:30:26Z</time>
      </trkpt>
      <trkpt lat="49.64218" lon="-1.2422">
        <ele>3.5</ele>
        <time>2020-06-15T10:30:27Z</time>
      </trkpt>
      <trkpt lat="49.64214" lon="-1.24221">
        <ele>3.6</ele>
        <time>2020-06-15T10:30:28Z</time>
      </trkpt>
      <trkpt lat="49.64211" lon="-1.24222">
        <ele>3.6</ele>
        <time>2020-06-15T10:30:29Z</time>
      </trkpt>
      <trkpt lat="49.64207" lon="-1.24223">
        <ele>3.7</ele>
        <time>2020-06-15T10:30:30Z</time>
      </trkpt>
      <trkpt lat="49.64204" lon="-1.24224">
        <ele>3.8</ele>
        <time>2020-06-15T10:30:31Z</time>
      </trkpt>
      <trkpt lat="49.642" lon="-1.24226">
        <ele>3.8</ele>
        <time>2020-06-15T10:30:32Z</time>
      </trkpt>
      <trkpt lat="49.64197" lon="-1.24226">
        <ele>3.8</ele>
        <time>2020-06-15T10:30:33Z</time>
      </trkpt>
      <trkpt lat="49.64194" lon="-1.24226">
        <ele>3.9</ele>
        <time>2020-06-15T10:30:34Z</time>
      </trkpt>
      <trkpt lat="49.64193" lon="-1.24226">
        <ele>3.9</ele>
        <time>2020-06-15T10:30:35Z</time>
      </trkpt>
      <trkpt lat="49.6419" lon="-1.24228">
        <ele>3.9</ele>
        <time>2020-06-15T10:30:36Z</time>
      </trkpt>
      <trkpt lat="49.64188" lon="-1.24228">
        <ele>3.9</ele>
        <time>2020-06-15T10:30:37Z</time>
      </trkpt>
      <trkpt lat="49.64186" lon="-1.24229">
        <ele>3.9</ele>
        <time>2020-06-15T10:30:38Z</time>
      </trkpt>
      <trkpt lat="49.64183" lon="-1.24231">
        <ele>4</ele>
        <time>2020-06-15T10:30:39Z</time>
      </trkpt>
      <trkpt lat="49.64179" lon="-1.24233">
        <ele>4</ele>
        <time>2020-06-15T10:30:40Z</time>
      </trkpt>
      <trkpt lat="49.64177" lon="-1.24234">
        <ele>4</ele>
        <time>2020-06-15T10:30:41Z</time>
      </trkpt>
      <trkpt lat="49.64174" lon="-1.24236">
        <ele>4</ele>
        <time>2020-06-15T10:30:42Z</time>
      </trkpt>
      <trkpt lat="49.64171" lon="-1.24238">
        <ele>4</ele>
        <time>2020-06-15T10:30:43Z</time>
      </trkpt>
      <trkpt lat="49.64167" lon="-1.2424">
        <ele>4</ele>
        <time>2020-06-15T10:30:44Z</time>
      </trkpt>
      <trkpt lat="49.64164" lon="-1.24242">
        <ele>4</ele>
        <time>2020-06-15T10:30:45Z</time>
      </trkpt>
      <trkpt lat="49.6416" lon="-1.24243">
        <ele>4</ele>
        <time>2020-06-15T10:30:46Z</time>
      </trkpt>
      <trkpt lat="49.64157" lon="-1.24245">
        <ele>4</ele>
        <time>2020-06-15T10:30:47Z</time>
      </trkpt>
      <trkpt lat="49.64153" lon="-1.24247">
        <ele>4</ele>
        <time>2020-06-15T10:30:48Z</time>
      </trkpt>
      <trkpt lat="49.64149" lon="-1.24248">
        <ele>4</ele>
        <time>2020-06-15T10:30:49Z</time>
      </trkpt>
      <trkpt lat="49.64146" lon="-1.2425">
        <ele>3.9</ele>
        <time>2020-06-15T10:30:50Z</time>
      </trkpt>
      <trkpt lat="49.64142" lon="-1.24251">
        <ele>3.9</ele>
        <time>2020-06-15T10:30:51Z</time>
      </trkpt>
      <trkpt lat="49.64138" lon="-1.24253">
        <ele>3.9</ele>
        <time>2020-06-15T10:30:52Z</time>
      </trkpt>
      <trkpt lat="49.64134" lon="-1.24255">
        <ele>3.9</ele>
        <time>2020-06-15T10:30:53Z</time>
      </trkpt>
      <trkpt lat="49.6413" lon="-1.24256">
        <ele>4</ele>
        <time>2020-06-15T10:30:54Z</time>
      </trkpt>
      <trkpt lat="49.64126" lon="-1.24257">
        <ele>4</ele>
        <time>2020-06-15T10:30:55Z</time>
      </trkpt>
      <trkpt lat="49.64122" lon="-1.24258">
        <ele>4</ele>
        <time>2020-06-15T10:30:56Z</time>
      </trkpt>
      <trkpt lat="49.64119" lon="-1.24258">
        <ele>4</ele>
        <time>2020-06-15T10:30:57Z</time>
      </trkpt>
      <trkpt lat="49.64115" lon="-1.24258">
        <ele>4</ele>
        <time>2020-06-15T10:30:58Z</time>
      </trkpt>
      <trkpt lat="49.64111" lon="-1.24258">
        <ele>4</ele>
        <time>2020-06-15T10:30:59Z</time>
      </trkpt>
      <trkpt lat="49.64107" lon="-1.24258">
        <ele>4</ele>
        <time>2020-06-15T10:31:00Z</time>
      </trkpt>
      <trkpt lat="49.64104" lon="-1.24257">
        <ele>4</ele>
        <time>2020-06-15T10:31:01Z</time>
      </trkpt>
      <trkpt lat="49.641" lon="-1.24255">
        <ele>4</ele>
        <time>2020-06-15T10:31:02Z</time>
      </trkpt>
      <trkpt lat="49.64097" lon="-1.24253">
        <ele>4</ele>
        <time>2020-06-15T10:31:03Z</time>
      </trkpt>
      <trkpt lat="49.64093" lon="-1.24251">
        <ele>4</ele>
        <time>2020-06-15T10:31:04Z</time>
      </trkpt>
      <trkpt lat="49.6409" lon="-1.24249">
        <ele>4.1</ele>
        <time>2020-06-15T10:31:05Z</time>
      </trkpt>
      <trkpt lat="49.64086" lon="-1.24247">
        <ele>4.1</ele>
        <time>2020-06-15T10:31:06Z</time>
      </trkpt>
      <trkpt lat="49.64083" lon="-1.24245">
        <ele>4.1</ele>
        <time>2020-06-15T10:31:07Z</time>
      </trkpt>
      <trkpt lat="49.64079" lon="-1.24244">
        <ele>4.1</ele>
        <time>2020-06-15T10:31:08Z</time>
      </trkpt>
      <trkpt lat="49.64075" lon="-1.24242">
        <ele>4</ele>
        <time>2020-06-15T10:31:09Z</time>
      </trkpt>
      <trkpt lat="49.64072" lon="-1.24242">
        <ele>4</ele>
        <time>2020-06-15T10:31:10Z</time>
      </trkpt>
      <trkpt lat="49.64066" lon="-1.2424">
        <ele>4</ele>
        <time>2020-06-15T10:31:11Z</time>
      </trkpt>
      <trkpt lat="49.64062" lon="-1.24238">
        <ele>4</ele>
        <time>2020-06-15T10:31:12Z</time>
      </trkpt>
      <trkpt lat="49.64057" lon="-1.24235">
        <ele>4</ele>
        <time>2020-06-15T10:31:13Z</time>
      </trkpt>
      <trkpt lat="49.64052" lon="-1.24233">
        <ele>4</ele>
        <time>2020-06-15T10:31:14Z</time>
      </trkpt>
      <trkpt lat="49.64047" lon="-1.24232">
        <ele>4</ele>
        <time>2020-06-15T10:31:15Z</time>
      </trkpt>
      <trkpt lat="49.64042" lon="-1.2423">
        <ele>4</ele>
        <time>2020-06-15T10:31:16Z</time>
      </trkpt>
      <trkpt lat="49.64037" lon="-1.24228">
        <ele>4</ele>
        <time>2020-06-15T10:31:17Z</time>
      </trkpt>
      <trkpt lat="49.64032" lon="-1.24226">
        <ele>4</ele>
        <time>2020-06-15T10:31:18Z</time>
      </trkpt>
      <trkpt lat="49.64027" lon="-1.24225">
        <ele>4.1</ele>
        <time>2020-06-15T10:31:19Z</time>
      </trkpt>
      <trkpt lat="49.64022" lon="-1.24223">
        <ele>4.1</ele>
        <time>2020-06-15T10:31:20Z</time>
      </trkpt>
      <trkpt lat="49.64017" lon="-1.24222">
        <ele>4.1</ele>
        <time>2020-06-15T10:31:21Z</time>
      </trkpt>
      <trkpt lat="49.64013" lon="-1.24221">
        <ele>4.2</ele>
        <time>2020-06-15T10:31:22Z</time>
      </trkpt>
      <trkpt lat="49.64007" lon="-1.2422">
        <ele>4.3</ele>
        <time>2020-06-15T10:31:23Z</time>
      </trkpt>
      <trkpt lat="49.64001" lon="-1.24219">
        <ele>4.3</ele>
        <time>2020-06-15T10:31:24Z</time>
      </trkpt>
      <trkpt lat="49.63996" lon="-1.24218">
        <ele>4.4</ele>
        <time>2020-06-15T10:31:25Z</time>
      </trkpt>
      <trkpt lat="49.63992" lon="-1.24217">
        <ele>4.4</ele>
        <time>2020-06-15T10:31:26Z</time>
      </trkpt>
      <trkpt lat="49.63988" lon="-1.24215">
        <ele>4.5</ele>
        <time>2020-06-15T10:31:27Z</time>
      </trkpt>
      <trkpt lat="49.63983" lon="-1.24215">
        <ele>4.5</ele>
        <time>2020-06-15T10:31:28Z</time>
      </trkpt>
      <trkpt lat="49.6398" lon="-1.24214">
        <ele>4.6</ele>
        <time>2020-06-15T10:31:29Z</time>
      </trkpt>
      <trkpt lat="49.63975" lon="-1.24212">
        <ele>4.6</ele>
        <time>2020-06-15T10:31:30Z</time>
      </trkpt>
      <trkpt lat="49.6397" lon="-1.24209">
        <ele>4.7</ele>
        <time>2020-06-15T10:31:31Z</time>
      </trkpt>
      <trkpt lat="49.63965" lon="-1.24207">
        <ele>4.8</ele>
        <time>2020-06-15T10:31:32Z</time>
      </trkpt>
      <trkpt lat="49.6396" lon="-1.24207">
        <ele>4.8</ele>
        <time>2020-06-15T10:31:33Z</time>
      </trkpt>
      <trkpt lat="49.63955" lon="-1.24205">
        <ele>4.9</ele>
        <time>2020-06-15T10:31:34Z</time>
      </trkpt>
      <trkpt lat="49.63949" lon="-1.24204">
        <ele>4.9</ele>
        <time>2020-06-15T10:31:35Z</time>
      </trkpt>
      <trkpt lat="49.63945" lon="-1.24202">
        <ele>4.9</ele>
        <time>2020-06-15T10:31:36Z</time>
      </trkpt>
      <trkpt lat="49.63939" lon="-1.24202">
        <ele>5</ele>
        <time>2020-06-15T10:31:37Z</time>
      </trkpt>
      <trkpt lat="49.63935" lon="-1.242">
        <ele>5</ele>
        <time>2020-06-15T10:31:38Z</time>
      </trkpt>
      <trkpt lat="49.6393" lon="-1.24199">
        <ele>5</ele>
        <time>2020-06-15T10:31:39Z</time>
      </trkpt>
      <trkpt lat="49.63925" lon="-1.24199">
        <ele>5.1</ele>
        <time>2020-06-15T10:31:40Z</time>
      </trkpt>
      <trkpt lat="49.63921" lon="-1.24198">
        <ele>5.2</ele>
        <time>2020-06-15T10:31:41Z</time>
      </trkpt>
      <trkpt lat="49.63917" lon="-1.24196">
        <ele>5.2</ele>
        <time>2020-06-15T10:31:42Z</time>
      </trkpt>
      <trkpt lat="49.63912" lon="-1.24196">
        <ele>5.3</ele>
        <time>2020-06-15T10:31:43Z</time>
      </trkpt>
      <trkpt lat="49.63907" lon="-1.24194">
        <ele>5.4</ele>
        <time>2020-06-15T10:31:44Z</time>
      </trkpt>
      <trkpt lat="49.63901" lon="-1.24192">
        <ele>5.4</ele>
        <time>2020-06-15T10:31:45Z</time>
      </trkpt>
      <trkpt lat="49.63896" lon="-1.24191">
        <ele>5.4</ele>
        <time>2020-06-15T10:31:46Z</time>
      </trkpt>
      <trkpt lat="49.6389" lon="-1.2419">
        <ele>5.4</ele>
        <time>2020-06-15T10:31:47Z</time>
      </trkpt>
      <trkpt lat="49.63885" lon="-1.24189">
        <ele>5.5</ele>
        <time>2020-06-15T10:31:48Z</time>
      </trkpt>
      <trkpt lat="49.6388" lon="-1.24187">
        <ele>5.5</ele>
        <time>2020-06-15T10:31:49Z</time>
      </trkpt>
      <trkpt lat="49.63875" lon="-1.24186">
        <ele>5.6</ele>
        <time>2020-06-15T10:31:50Z</time>
      </trkpt>
      <trkpt lat="49.63869" lon="-1.24185">
        <ele>5.6</ele>
        <time>2020-06-15T10:31:51Z</time>
      </trkpt>
      <trkpt lat="49.63863" lon="-1.24183">
        <ele>5.7</ele>
        <time>2020-06-15T10:31:52Z</time>
      </trkpt>
      <trkpt lat="49.63858" lon="-1.24181">
        <ele>5.8</ele>
        <time>2020-06-15T10:31:53Z</time>
      </trkpt>
      <trkpt lat="49.63853" lon="-1.2418">
        <ele>5.9</ele>
        <time>2020-06-15T10:31:54Z</time>
      </trkpt>
      <trkpt lat="49.63847" lon="-1.24179">
        <ele>5.9</ele>
        <time>2020-06-15T10:31:55Z</time>
      </trkpt>
      <trkpt lat="49.63842" lon="-1.24177">
        <ele>6</ele>
        <time>2020-06-15T10:31:56Z</time>
      </trkpt>
      <trkpt lat="49.63837" lon="-1.24176">
        <ele>6</ele>
        <time>2020-06-15T10:31:57Z</time>
      </trkpt>
      <trkpt lat="49.63832" lon="-1.24176">
        <ele>6.1</ele>
        <time>2020-06-15T10:31:58Z</time>
      </trkpt>
      <trkpt lat="49.63827" lon="-1.24175">
        <ele>6.2</ele>
        <time>2020-06-15T10:31:59Z</time>
      </trkpt>
      <trkpt lat="49.63822" lon="-1.24175">
        <ele>6.2</ele>
        <time>2020-06-15T10:32:00Z</time>
      </trkpt>
      <trkpt lat="49.63816" lon="-1.24175">
        <ele>6.3</ele>
        <time>2020-06-15T10:32:01Z</time>
      </trkpt>
      <trkpt lat="49.63812" lon="-1.24173">
        <ele>6.4</ele>
        <time>2020-06-15T10:32:02Z</time>
      </trkpt>
      <trkpt lat="49.63806" lon="-1.24173">
        <ele>6.5</ele>
        <time>2020-06-15T10:32:03Z</time>
      </trkpt>
      <trkpt lat="49.63801" lon="-1.24172">
        <ele>6.6</ele>
        <time>2020-06-15T10:32:04Z</time>
      </trkpt>
      <trkpt lat="49.63796" lon="-1.24171">
        <ele>6.7</ele>
        <time>2020-06-15T10:32:05Z</time>
      </trkpt>
      <trkpt lat="49.63791" lon="-1.2417">
        <ele>6.8</ele>
        <time>2020-06-15T10:32:06Z</time>
      </trkpt>
      <trkpt lat="49.63786" lon="-1.24169">
        <ele>6.8</ele>
        <time>2020-06-15T10:32:07Z</time>
      </trkpt>
      <trkpt lat="49.6378" lon="-1.24169">
        <ele>6.9</ele>
        <time>2020-06-15T10:32:08Z</time>
      </trkpt>
      <trkpt lat="49.63774" lon="-1.24169">
        <ele>7</ele>
        <time>2020-06-15T10:32:09Z</time>
      </trkpt>
      <trkpt lat="49.63769" lon="-1.24168">
        <ele>7.1</ele>
        <time>2020-06-15T10:32:10Z</time>
      </trkpt>
      <trkpt lat="49.63764" lon="-1.24168">
        <ele>7.2</ele>
        <time>2020-06-15T10:32:11Z</time>
      </trkpt>
      <trkpt lat="49.63759" lon="-1.24166">
        <ele>7.3</ele>
        <time>2020-06-15T10:32:12Z</time>
      </trkpt>
      <trkpt lat="49.63754" lon="-1.24165">
        <ele>7.4</ele>
        <time>2020-06-15T10:32:13Z</time>
      </trkpt>
      <trkpt lat="49.63749" lon="-1.24163">
        <ele>7.5</ele>
        <time>2020-06-15T10:32:14Z</time>
      </trkpt>
      <trkpt lat="49.63745" lon="-1.24162">
        <ele>7.6</ele>
        <time>2020-06-15T10:32:15Z</time>
      </trkpt>
      <trkpt lat="49.63739" lon="-1.24161">
        <ele>7.8</ele>
        <time>2020-06-15T10:32:16Z</time>
      </trkpt>
      <trkpt lat="49.63735" lon="-1.24158">
        <ele>8</ele>
        <time>2020-06-15T10:32:17Z</time>
      </trkpt>
      <trkpt lat="49.6373" lon="-1.24156">
        <ele>8.1</ele>
        <time>2020-06-15T10:32:18Z</time>
      </trkpt>
      <trkpt lat="49.63725" lon="-1.24154">
        <ele>8.2</ele>
        <time>2020-06-15T10:32:19Z</time>
      </trkpt>
      <trkpt lat="49.63721" lon="-1.24152">
        <ele>8.4</ele>
        <time>2020-06-15T10:32:20Z</time>
      </trkpt>
      <trkpt lat="49.63717" lon="-1.24149">
        <ele>8.5</ele>
        <time>2020-06-15T10:32:21Z</time>
      </trkpt>
      <trkpt lat="49.63712" lon="-1.24148">
        <ele>8.6</ele>
        <time>2020-06-15T10:32:22Z</time>
      </trkpt>
      <trkpt lat="49.63709" lon="-1.24145">
        <ele>8.7</ele>
        <time>2020-06-15T10:32:23Z</time>
      </trkpt>
      <trkpt lat="49.63705" lon="-1.24143">
        <ele>8.8</ele>
        <time>2020-06-15T10:32:24Z</time>
      </trkpt>
      <trkpt lat="49.63701" lon="-1.24143">
        <ele>8.9</ele>
        <time>2020-06-15T10:32:25Z</time>
      </trkpt>
      <trkpt lat="49.63698" lon="-1.24142">
        <ele>9</ele>
        <time>2020-06-15T10:32:26Z</time>
      </trkpt>
      <trkpt lat="49.63695" lon="-1.24141">
        <ele>9</ele>
        <time>2020-06-15T10:32:27Z</time>
      </trkpt>
      <trkpt lat="49.63692" lon="-1.2414">
        <ele>9</ele>
        <time>2020-06-15T10:32:28Z</time>
      </trkpt>
      <trkpt lat="49.63689" lon="-1.24139">
        <ele>9</ele>
        <time>2020-06-15T10:32:29Z</time>
      </trkpt>
      <trkpt lat="49.63686" lon="-1.24137">
        <ele>9</ele>
        <time>2020-06-15T10:32:30Z</time>
      </trkpt>
      <trkpt lat="49.63684" lon="-1.24132">
        <ele>8.9</ele>
        <time>2020-06-15T10:32:31Z</time>
      </trkpt>
      <trkpt lat="49.63684" lon="-1.2413">
        <ele>8.9</ele>
        <time>2020-06-15T10:32:32Z</time>
      </trkpt>
      <trkpt lat="49.63685" lon="-1.24124">
        <ele>8.8</ele>
        <time>2020-06-15T10:32:33Z</time>
      </trkpt>
      <trkpt lat="49.63685" lon="-1.24121">
        <ele>8.8</ele>
        <time>2020-06-15T10:32:34Z</time>
      </trkpt>
      <trkpt lat="49.63686" lon="-1.24116">
        <ele>8.8</ele>
        <time>2020-06-15T10:32:35Z</time>
      </trkpt>
      <trkpt lat="49.63688" lon="-1.24109">
        <ele>8.7</ele>
        <time>2020-06-15T10:32:36Z</time>
      </trkpt>
      <trkpt lat="49.63689" lon="-1.24103">
        <ele>8.7</ele>
        <time>2020-06-15T10:32:37Z</time>
      </trkpt>
      <trkpt lat="49.63691" lon="-1.24097">
        <ele>8.7</ele>
        <time>2020-06-15T10:32:38Z</time>
      </trkpt>
      <trkpt lat="49.63692" lon="-1.2409">
        <ele>8.6</ele>
        <time>2020-06-15T10:32:39Z</time>
      </trkpt>
      <trkpt lat="49.63694" lon="-1.24084">
        <ele>8.5</ele>
        <time>2020-06-15T10:32:40Z</time>
      </trkpt>
      <trkpt lat="49.63696" lon="-1.24078">
        <ele>8.4</ele>
        <time>2020-06-15T10:32:41Z</time>
      </trkpt>
      <trkpt lat="49.63698" lon="-1.24073">
        <ele>8.3</ele>
        <time>2020-06-15T10:32:42Z</time>
      </trkpt>
      <trkpt lat="49.637" lon="-1.24066">
        <ele>8.2</ele>
        <time>2020-06-15T10:32:43Z</time>
      </trkpt>
      <trkpt lat="49.63702" lon="-1.24059">
        <ele>8.1</ele>
        <time>2020-06-15T10:32:44Z</time>
      </trkpt>
      <trkpt lat="49.63705" lon="-1.24053">
        <ele>8</ele>
        <time>2020-06-15T10:32:45Z</time>
      </trkpt>
      <trkpt lat="49.63708" lon="-1.24045">
        <ele>7.9</ele>
        <time>2020-06-15T10:32:46Z</time>
      </trkpt>
      <trkpt lat="49.6371" lon="-1.24039">
        <ele>7.9</ele>
        <time>2020-06-15T10:32:47Z</time>
      </trkpt>
      <trkpt lat="49.63712" lon="-1.24033">
        <ele>7.9</ele>
        <time>2020-06-15T10:32:48Z</time>
      </trkpt>
      <trkpt lat="49.63714" lon="-1.24027">
        <ele>7.9</ele>
        <time>2020-06-15T10:32:49Z</time>
      </trkpt>
      <trkpt lat="49.63715" lon="-1.2402">
        <ele>7.8</ele>
        <time>2020-06-15T10:32:50Z</time>
      </trkpt>
      <trkpt lat="49.63717" lon="-1.24013">
        <ele>7.8</ele>
        <time>2020-06-15T10:32:51Z</time>
      </trkpt>
      <trkpt lat="49.63719" lon="-1.24006">
        <ele>7.8</ele>
        <time>2020-06-15T10:32:52Z</time>
      </trkpt>
      <trkpt lat="49.63721" lon="-1.24">
        <ele>7.8</ele>
        <time>2020-06-15T10:32:53Z</time>
      </trkpt>
      <trkpt lat="49.63723" lon="-1.23992">
        <ele>7.8</ele>
        <time>2020-06-15T10:32:54Z</time>
      </trkpt>
      <trkpt lat="49.63724" lon="-1.23985">
        <ele>7.8</ele>
        <time>2020-06-15T10:32:55Z</time>
      </trkpt>
      <trkpt lat="49.63726" lon="-1.23978">
        <ele>7.8</ele>
        <time>2020-06-15T10:32:56Z</time>
      </trkpt>
      <trkpt lat="49.63728" lon="-1.23971">
        <ele>7.8</ele>
        <time>2020-06-15T10:32:57Z</time>
      </trkpt>
      <trkpt lat="49.6373" lon="-1.23964">
        <ele>7.7</ele>
        <time>2020-06-15T10:32:58Z</time>
      </trkpt>
      <trkpt lat="49.63732" lon="-1.23957">
        <ele>7.7</ele>
        <time>2020-06-15T10:32:59Z</time>
      </trkpt>
      <trkpt lat="49.63733" lon="-1.23951">
        <ele>7.7</ele>
        <time>2020-06-15T10:33:00Z</time>
      </trkpt>
      <trkpt lat="49.63735" lon="-1.23944">
        <ele>7.6</ele>
        <time>2020-06-15T10:33:01Z</time>
      </trkpt>
      <trkpt lat="49.63737" lon="-1.23937">
        <ele>7.6</ele>
        <time>2020-06-15T10:33:02Z</time>
      </trkpt>
      <trkpt lat="49.63739" lon="-1.23929">
        <ele>7.6</ele>
        <time>2020-06-15T10:33:03Z</time>
      </trkpt>
      <trkpt lat="49.63741" lon="-1.23922">
        <ele>7.6</ele>
        <time>2020-06-15T10:33:04Z</time>
      </trkpt>
      <trkpt lat="49.63743" lon="-1.23915">
        <ele>7.6</ele>
        <time>2020-06-15T10:33:05Z</time>
      </trkpt>
      <trkpt lat="49.63744" lon="-1.23909">
        <ele>7.6</ele>
        <time>2020-06-15T10:33:06Z</time>
      </trkpt>
      <trkpt lat="49.63746" lon="-1.23902">
        <ele>7.7</ele>
        <time>2020-06-15T10:33:07Z</time>
      </trkpt>
      <trkpt lat="49.63748" lon="-1.23895">
        <ele>7.7</ele>
        <time>2020-06-15T10:33:08Z</time>
      </trkpt>
      <trkpt lat="49.6375" lon="-1.23889">
        <ele>7.7</ele>
        <time>2020-06-15T10:33:09Z</time>
      </trkpt>
      <trkpt lat="49.63751" lon="-1.23882">
        <ele>7.7</ele>
        <time>2020-06-15T10:33:10Z</time>
      </trkpt>
      <trkpt lat="49.63753" lon="-1.23875">
        <ele>7.7</ele>
        <time>2020-06-15T10:33:11Z</time>
      </trkpt>
      <trkpt lat="49.63754" lon="-1.23868">
        <ele>7.7</ele>
        <time>2020-06-15T10:33:12Z</time>
      </trkpt>
      <trkpt lat="49.63757" lon="-1.23862">
        <ele>7.7</ele>
        <time>2020-06-15T10:33:13Z</time>
      </trkpt>
      <trkpt lat="49.63759" lon="-1.23855">
        <ele>7.6</ele>
        <time>2020-06-15T10:33:14Z</time>
      </trkpt>
      <trkpt lat="49.63762" lon="-1.23849">
        <ele>7.6</ele>
        <time>2020-06-15T10:33:15Z</time>
      </trkpt>
      <trkpt lat="49.63763" lon="-1.23843">
        <ele>7.6</ele>
        <time>2020-06-15T10:33:16Z</time>
      </trkpt>
      <trkpt lat="49.63766" lon="-1.23837">
        <ele>7.6</ele>
        <time>2020-06-15T10:33:17Z</time>
      </trkpt>
      <trkpt lat="49.63767" lon="-1.23831">
        <ele>7.5</ele>
        <time>2020-06-15T10:33:18Z</time>
      </trkpt>
      <trkpt lat="49.63769" lon="-1.23824">
        <ele>7.5</ele>
        <time>2020-06-15T10:33:19Z</time>
      </trkpt>
      <trkpt lat="49.6377" lon="-1.23818">
        <ele>7.4</ele>
        <time>2020-06-15T10:33:20Z</time>
      </trkpt>
      <trkpt lat="49.63771" lon="-1.23812">
        <ele>7.3</ele>
        <time>2020-06-15T10:33:21Z</time>
      </trkpt>
      <trkpt lat="49.63773" lon="-1.23804">
        <ele>7.2</ele>
        <time>2020-06-15T10:33:22Z</time>
      </trkpt>
      <trkpt lat="49.63775" lon="-1.23798">
        <ele>7.1</ele>
        <time>2020-06-15T10:33:23Z</time>
      </trkpt>
      <trkpt lat="49.63777" lon="-1.23792">
        <ele>7</ele>
        <time>2020-06-15T10:33:24Z</time>
      </trkpt>
      <trkpt lat="49.6378" lon="-1.23785">
        <ele>6.9</ele>
        <time>2020-06-15T10:33:25Z</time>
      </trkpt>
      <trkpt lat="49.63782" lon="-1.23778">
        <ele>6.7</ele>
        <time>2020-06-15T10:33:26Z</time>
      </trkpt>
      <trkpt lat="49.63784" lon="-1.23772">
        <ele>6.6</ele>
        <time>2020-06-15T10:33:27Z</time>
      </trkpt>
      <trkpt lat="49.63786" lon="-1.23766">
        <ele>6.4</ele>
        <time>2020-06-15T10:33:28Z</time>
      </trkpt>
      <trkpt lat="49.63788" lon="-1.2376">
        <ele>6.2</ele>
        <time>2020-06-15T10:33:29Z</time>
      </trkpt>
      <trkpt lat="49.63789" lon="-1.23753">
        <ele>6.1</ele>
        <time>2020-06-15T10:33:30Z</time>
      </trkpt>
      <trkpt lat="49.63791" lon="-1.23745">
        <ele>5.9</ele>
        <time>2020-06-15T10:33:31Z</time>
      </trkpt>
      <trkpt lat="49.63793" lon="-1.23738">
        <ele>5.7</ele>
        <time>2020-06-15T10:33:32Z</time>
      </trkpt>
      <trkpt lat="49.63795" lon="-1.2373">
        <ele>5.5</ele>
        <time>2020-06-15T10:33:33Z</time>
      </trkpt>
      <trkpt lat="49.63797" lon="-1.23723">
        <ele>5.4</ele>
        <time>2020-06-15T10:33:34Z</time>
      </trkpt>
      <trkpt lat="49.63798" lon="-1.23715">
        <ele>5.2</ele>
        <time>2020-06-15T10:33:35Z</time>
      </trkpt>
      <trkpt lat="49.638" lon="-1.23706">
        <ele>5</ele>
        <time>2020-06-15T10:33:36Z</time>
      </trkpt>
      <trkpt lat="49.63801" lon="-1.237">
        <ele>4.8</ele>
        <time>2020-06-15T10:33:37Z</time>
      </trkpt>
      <trkpt lat="49.63803" lon="-1.23693">
        <ele>4.7</ele>
        <time>2020-06-15T10:33:38Z</time>
      </trkpt>
      <trkpt lat="49.63804" lon="-1.23688">
        <ele>4.6</ele>
        <time>2020-06-15T10:33:39Z</time>
      </trkpt>
      <trkpt lat="49.63805" lon="-1.23683">
        <ele>4.5</ele>
        <time>2020-06-15T10:33:40Z</time>
      </trkpt>
      <trkpt lat="49.63806" lon="-1.23678">
        <ele>4.4</ele>
        <time>2020-06-15T10:33:41Z</time>
      </trkpt>
      <trkpt lat="49.63806" lon="-1.23673">
        <ele>4.5</ele>
        <time>2020-06-15T10:33:42Z</time>
      </trkpt>
      <trkpt lat="49.63806" lon="-1.23668">
        <ele>4.5</ele>
        <time>2020-06-15T10:33:43Z</time>
      </trkpt>
      <trkpt lat="49.63806" lon="-1.23667">
        <ele>4.5</ele>
        <time>2020-06-15T10:33:44Z</time>
      </trkpt>
      <trkpt lat="49.63803" lon="-1.23662">
        <ele>4.5</ele>
        <time>2020-06-15T10:33:45Z</time>
      </trkpt>
      <trkpt lat="49.63802" lon="-1.23661">
        <ele>4.5</ele>
        <time>2020-06-15T10:33:46Z</time>
      </trkpt>
      <trkpt lat="49.63799" lon="-1.23658">
        <ele>4.5</ele>
        <time>2020-06-15T10:33:47Z</time>
      </trkpt>
      <trkpt lat="49.63798" lon="-1.23657">
        <ele>4.5</ele>
        <time>2020-06-15T10:33:48Z</time>
      </trkpt>
      <trkpt lat="49.63795" lon="-1.23653">
        <ele>4.5</ele>
        <time>2020-06-15T10:33:49Z</time>
      </trkpt>
      <trkpt lat="49.63793" lon="-1.23652">
        <ele>4.4</ele>
        <time>2020-06-15T10:33:50Z</time>
      </trkpt>
      <trkpt lat="49.63791" lon="-1.23649">
        <ele>4.4</ele>
        <time>2020-06-15T10:33:51Z</time>
      </trkpt>
      <trkpt lat="49.63788" lon="-1.23647">
        <ele>4.4</ele>
        <time>2020-06-15T10:33:52Z</time>
      </trkpt>
      <trkpt lat="49.63785" lon="-1.23646">
        <ele>4.3</ele>
        <time>2020-06-15T10:33:53Z</time>
      </trkpt>
      <trkpt lat="49.63782" lon="-1.23645">
        <ele>4.3</ele>
        <time>2020-06-15T10:33:54Z</time>
      </trkpt>
      <trkpt lat="49.63778" lon="-1.23644">
        <ele>4.2</ele>
        <time>2020-06-15T10:33:55Z</time>
      </trkpt>
      <trkpt lat="49.63774" lon="-1.23643">
        <ele>4.2</ele>
        <time>2020-06-15T10:33:56Z</time>
      </trkpt>
      <trkpt lat="49.63772" lon="-1.23643">
        <ele>4.2</ele>
        <time>2020-06-15T10:33:57Z</time>
      </trkpt>
      <trkpt lat="49.63769" lon="-1.23643">
        <ele>4.1</ele>
        <time>2020-06-15T10:33:58Z</time>
      </trkpt>
      <trkpt lat="49.63765" lon="-1.23643">
        <ele>4.1</ele>
        <time>2020-06-15T10:33:59Z</time>
      </trkpt>
      <trkpt lat="49.63762" lon="-1.23645">
        <ele>4</ele>
        <time>2020-06-15T10:34:00Z</time>
      </trkpt>
      <trkpt lat="49.63759" lon="-1.23646">
        <ele>4</ele>
        <time>2020-06-15T10:34:01Z</time>
      </trkpt>
      <trkpt lat="49.63755" lon="-1.23646">
        <ele>3.9</ele>
        <time>2020-06-15T10:34:02Z</time>
      </trkpt>
      <trkpt lat="49.63752" lon="-1.23646">
        <ele>3.8</ele>
        <time>2020-06-15T10:34:03Z</time>
      </trkpt>
      <trkpt lat="49.63749" lon="-1.23647">
        <ele>3.8</ele>
        <time>2020-06-15T10:34:04Z</time>
      </trkpt>
      <trkpt lat="49.63746" lon="-1.23648">
        <ele>3.7</ele>
        <time>2020-06-15T10:34:05Z</time>
      </trkpt>
      <trkpt lat="49.63743" lon="-1.2365">
        <ele>3.7</ele>
        <time>2020-06-15T10:34:06Z</time>
      </trkpt>
      <trkpt lat="49.63739" lon="-1.2365">
        <ele>3.6</ele>
        <time>2020-06-15T10:34:07Z</time>
      </trkpt>
      <trkpt lat="49.63736" lon="-1.2365">
        <ele>3.6</ele>
        <time>2020-06-15T10:34:08Z</time>
      </trkpt>
      <trkpt lat="49.63732" lon="-1.23649">
        <ele>3.5</ele>
        <time>2020-06-15T10:34:09Z</time>
      </trkpt>
      <trkpt lat="49.63729" lon="-1.2365">
        <ele>3.4</ele>
        <time>2020-06-15T10:34:10Z</time>
      </trkpt>
      <trkpt lat="49.63725" lon="-1.23649">
        <ele>3.3</ele>
        <time>2020-06-15T10:34:11Z</time>
      </trkpt>
      <trkpt lat="49.63722" lon="-1.23649">
        <ele>3.3</ele>
        <time>2020-06-15T10:34:12Z</time>
      </trkpt>
      <trkpt lat="49.63717" lon="-1.2365">
        <ele>3.2</ele>
        <time>2020-06-15T10:34:13Z</time>
      </trkpt>
      <trkpt lat="49.63713" lon="-1.2365">
        <ele>3.1</ele>
        <time>2020-06-15T10:34:14Z</time>
      </trkpt>
      <trkpt lat="49.63709" lon="-1.23648">
        <ele>3</ele>
        <time>2020-06-15T10:34:15Z</time>
      </trkpt>
      <trkpt lat="49.63703" lon="-1.23648">
        <ele>3</ele>
        <time>2020-06-15T10:34:16Z</time>
      </trkpt>
      <trkpt lat="49.63699" lon="-1.23646">
        <ele>2.9</ele>
        <time>2020-06-15T10:34:17Z</time>
      </trkpt>
      <trkpt lat="49.63693" lon="-1.23645">
        <ele>2.9</ele>
        <time>2020-06-15T10:34:18Z</time>
      </trkpt>
      <trkpt lat="49.63688" lon="-1.23645">
        <ele>2.8</ele>
        <time>2020-06-15T10:34:19Z</time>
      </trkpt>
      <trkpt lat="49.63683" lon="-1.23645">
        <ele>2.8</ele>
        <time>2020-06-15T10:34:20Z</time>
      </trkpt>
      <trkpt lat="49.63678" lon="-1.23643">
        <ele>2.8</ele>
        <time>2020-06-15T10:34:21Z</time>
      </trkpt>
      <trkpt lat="49.63673" lon="-1.23642">
        <ele>2.8</ele>
        <time>2020-06-15T10:34:22Z</time>
      </trkpt>
      <trkpt lat="49.63669" lon="-1.2364">
        <ele>2.9</ele>
        <time>2020-06-15T10:34:23Z</time>
      </trkpt>
      <trkpt lat="49.63664" lon="-1.23637">
        <ele>2.9</ele>
        <time>2020-06-15T10:34:24Z</time>
      </trkpt>
      <trkpt lat="49.6366" lon="-1.23634">
        <ele>3</ele>
        <time>2020-06-15T10:34:25Z</time>
      </trkpt>
      <trkpt lat="49.63654" lon="-1.23633">
        <ele>3.1</ele>
        <time>2020-06-15T10:34:26Z</time>
      </trkpt>
      <trkpt lat="49.63649" lon="-1.23632">
        <ele>3.2</ele>
        <time>2020-06-15T10:34:27Z</time>
      </trkpt>
      <trkpt lat="49.63644" lon="-1.2363">
        <ele>3.2</ele>
        <time>2020-06-15T10:34:28Z</time>
      </trkpt>
      <trkpt lat="49.63639" lon="-1.23628">
        <ele>3.3</ele>
        <time>2020-06-15T10:34:29Z</time>
      </trkpt>
      <trkpt lat="49.63634" lon="-1.23626">
        <ele>3.3</ele>
        <time>2020-06-15T10:34:30Z</time>
      </trkpt>
      <trkpt lat="49.6363" lon="-1.23623">
        <ele>3.4</ele>
        <time>2020-06-15T10:34:31Z</time>
      </trkpt>
      <trkpt lat="49.63626" lon="-1.23622">
        <ele>3.4</ele>
        <time>2020-06-15T10:34:32Z</time>
      </trkpt>
      <trkpt lat="49.63622" lon="-1.2362">
        <ele>3.5</ele>
        <time>2020-06-15T10:34:33Z</time>
      </trkpt>
      <trkpt lat="49.63619" lon="-1.23619">
        <ele>3.5</ele>
        <time>2020-06-15T10:34:34Z</time>
      </trkpt>
      <trkpt lat="49.63616" lon="-1.23617">
        <ele>3.5</ele>
        <time>2020-06-15T10:34:35Z</time>
      </trkpt>
      <trkpt lat="49.63613" lon="-1.23616">
        <ele>3.5</ele>
        <time>2020-06-15T10:34:36Z</time>
      </trkpt>
      <trkpt lat="49.63612" lon="-1.23615">
        <ele>3.5</ele>
        <time>2020-06-15T10:34:37Z</time>
      </trkpt>
      <trkpt lat="49.63609" lon="-1.23614">
        <ele>3.6</ele>
        <time>2020-06-15T10:34:38Z</time>
      </trkpt>
      <trkpt lat="49.63606" lon="-1.23612">
        <ele>3.6</ele>
        <time>2020-06-15T10:34:39Z</time>
      </trkpt>
      <trkpt lat="49.63604" lon="-1.23611">
        <ele>3.6</ele>
        <time>2020-06-15T10:34:40Z</time>
      </trkpt>
      <trkpt lat="49.63602" lon="-1.2361">
        <ele>3.6</ele>
        <time>2020-06-15T10:34:41Z</time>
      </trkpt>
      <trkpt lat="49.63598" lon="-1.23609">
        <ele>3.7</ele>
        <time>2020-06-15T10:34:42Z</time>
      </trkpt>
      <trkpt lat="49.63596" lon="-1.23609">
        <ele>3.7</ele>
        <time>2020-06-15T10:34:43Z</time>
      </trkpt>
      <trkpt lat="49.63593" lon="-1.23608">
        <ele>3.7</ele>
        <time>2020-06-15T10:34:44Z</time>
      </trkpt>
      <trkpt lat="49.6359" lon="-1.23606">
        <ele>3.6</ele>
        <time>2020-06-15T10:34:45Z</time>
      </trkpt>
      <trkpt lat="49.63586" lon="-1.23604">
        <ele>3.5</ele>
        <time>2020-06-15T10:34:46Z</time>
      </trkpt>
      <trkpt lat="49.63583" lon="-1.23602">
        <ele>3.4</ele>
        <time>2020-06-15T10:34:47Z</time>
      </trkpt>
      <trkpt lat="49.6358" lon="-1.23602">
        <ele>3.4</ele>
        <time>2020-06-15T10:34:48Z</time>
      </trkpt>
      <trkpt lat="49.63577" lon="-1.23601">
        <ele>3.4</ele>
        <time>2020-06-15T10:34:49Z</time>
      </trkpt>
      <trkpt lat="49.63573" lon="-1.236">
        <ele>3.4</ele>
        <time>2020-06-15T10:34:50Z</time>
      </trkpt>
      <trkpt lat="49.63572" lon="-1.23599">
        <ele>3.4</ele>
        <time>2020-06-15T10:34:51Z</time>
      </trkpt>
      <trkpt lat="49.63569" lon="-1.23598">
        <ele>3.4</ele>
        <time>2020-06-15T10:34:52Z</time>
      </trkpt>
      <trkpt lat="49.63567" lon="-1.23596">
        <ele>3.4</ele>
        <time>2020-06-15T10:34:53Z</time>
      </trkpt>
      <trkpt lat="49.63564" lon="-1.23595">
        <ele>3.4</ele>
        <time>2020-06-15T10:34:54Z</time>
      </trkpt>
      <trkpt lat="49.63562" lon="-1.23595">
        <ele>3.4</ele>
        <time>2020-06-15T10:34:55Z</time>
      </trkpt>
      <trkpt lat="49.6356" lon="-1.23595">
        <ele>3.4</ele>
        <time>2020-06-15T10:34:56Z</time>
      </trkpt>
      <trkpt lat="49.63559" lon="-1.23595">
        <ele>3.4</ele>
        <time>2020-06-15T10:34:57Z</time>
      </trkpt>
      <trkpt lat="49.63557" lon="-1.23594">
        <ele>3.4</ele>
        <time>2020-06-15T10:34:58Z</time>
      </trkpt>
      <trkpt lat="49.63553" lon="-1.23594">
        <ele>3.4</ele>
        <time>2020-06-15T10:34:59Z</time>
      </trkpt>
      <trkpt lat="49.63552" lon="-1.23594">
        <ele>3.4</ele>
        <time>2020-06-15T10:35:00Z</time>
      </trkpt>
      <trkpt lat="49.63549" lon="-1.23593">
        <ele>3.4</ele>
        <time>2020-06-15T10:35:01Z</time>
      </trkpt>
      <trkpt lat="49.63546" lon="-1.23593">
        <ele>3.4</ele>
        <time>2020-06-15T10:35:02Z</time>
      </trkpt>
      <trkpt lat="49.63543" lon="-1.23593">
        <ele>3.4</ele>
        <time>2020-06-15T10:35:03Z</time>
      </trkpt>
      <trkpt lat="49.6354" lon="-1.23593">
        <ele>3.4</ele>
        <time>2020-06-15T10:35:04Z</time>
      </trkpt>
      <trkpt lat="49.63537" lon="-1.23594">
        <ele>3.4</ele>
        <time>2020-06-15T10:35:05Z</time>
      </trkpt>
      <trkpt lat="49.63533" lon="-1.23595">
        <ele>3.4</ele>
        <time>2020-06-15T10:35:06Z</time>
      </trkpt>
      <trkpt lat="49.6353" lon="-1.23596">
        <ele>3.4</ele>
        <time>2020-06-15T10:35:07Z</time>
      </trkpt>
      <trkpt lat="49.63525" lon="-1.23597">
        <ele>3.4</ele>
        <time>2020-06-15T10:35:08Z</time>
      </trkpt>
      <trkpt lat="49.63521" lon="-1.23597">
        <ele>3.4</ele>
        <time>2020-06-15T10:35:09Z</time>
      </trkpt>
      <trkpt lat="49.63518" lon="-1.23598">
        <ele>3.4</ele>
        <time>2020-06-15T10:35:10Z</time>
      </trkpt>
      <trkpt lat="49.63514" lon="-1.23598">
        <ele>3.4</ele>
        <time>2020-06-15T10:35:11Z</time>
      </trkpt>
      <trkpt lat="49.63511" lon="-1.23599">
        <ele>3.4</ele>
        <time>2020-06-15T10:35:12Z</time>
      </trkpt>
      <trkpt lat="49.63507" lon="-1.236">
        <ele>3.4</ele>
        <time>2020-06-15T10:35:13Z</time>
      </trkpt>
      <trkpt lat="49.63504" lon="-1.23601">
        <ele>3.4</ele>
        <time>2020-06-15T10:35:14Z</time>
      </trkpt>
      <trkpt lat="49.63501" lon="-1.23602">
        <ele>3.5</ele>
        <time>2020-06-15T10:35:15Z</time>
      </trkpt>
      <trkpt lat="49.63498" lon="-1.23604">
        <ele>3.5</ele>
        <time>2020-06-15T10:35:16Z</time>
      </trkpt>
      <trkpt lat="49.63494" lon="-1.23604">
        <ele>3.6</ele>
        <time>2020-06-15T10:35:17Z</time>
      </trkpt>
      <trkpt lat="49.63489" lon="-1.23606">
        <ele>3.6</ele>
        <time>2020-06-15T10:35:18Z</time>
      </trkpt>
      <trkpt lat="49.63485" lon="-1.23607">
        <ele>3.7</ele>
        <time>2020-06-15T10:35:19Z</time>
      </trkpt>
      <trkpt lat="49.6348" lon="-1.23607">
        <ele>3.8</ele>
        <time>2020-06-15T10:35:20Z</time>
      </trkpt>
      <trkpt lat="49.63475" lon="-1.23608">
        <ele>3.9</ele>
        <time>2020-06-15T10:35:21Z</time>
      </trkpt>
      <trkpt lat="49.6347" lon="-1.23608">
        <ele>3.9</ele>
        <time>2020-06-15T10:35:22Z</time>
      </trkpt>
      <trkpt lat="49.63465" lon="-1.23608">
        <ele>4</ele>
        <time>2020-06-15T10:35:23Z</time>
      </trkpt>
      <trkpt lat="49.63461" lon="-1.23607">
        <ele>4</ele>
        <time>2020-06-15T10:35:24Z</time>
      </trkpt>
      <trkpt lat="49.63458" lon="-1.23607">
        <ele>4</ele>
        <time>2020-06-15T10:35:25Z</time>
      </trkpt>
      <trkpt lat="49.63454" lon="-1.23606">
        <ele>4</ele>
        <time>2020-06-15T10:35:26Z</time>
      </trkpt>
      <trkpt lat="49.63451" lon="-1.23605">
        <ele>3.9</ele>
        <time>2020-06-15T10:35:27Z</time>
      </trkpt>
      <trkpt lat="49.63447" lon="-1.23604">
        <ele>3.9</ele>
        <time>2020-06-15T10:35:28Z</time>
      </trkpt>
      <trkpt lat="49.63444" lon="-1.23603">
        <ele>3.8</ele>
        <time>2020-06-15T10:35:29Z</time>
      </trkpt>
      <trkpt lat="49.6344" lon="-1.23602">
        <ele>3.8</ele>
        <time>2020-06-15T10:35:30Z</time>
      </trkpt>
      <trkpt lat="49.63436" lon="-1.23601">
        <ele>3.7</ele>
        <time>2020-06-15T10:35:31Z</time>
      </trkpt>
      <trkpt lat="49.63432" lon="-1.236">
        <ele>3.7</ele>
        <time>2020-06-15T10:35:32Z</time>
      </trkpt>
      <trkpt lat="49.63429" lon="-1.23598">
        <ele>3.7</ele>
        <time>2020-06-15T10:35:33Z</time>
      </trkpt>
      <trkpt lat="49.63426" lon="-1.23597">
        <ele>3.7</ele>
        <time>2020-06-15T10:35:34Z</time>
      </trkpt>
      <trkpt lat="49.63423" lon="-1.23597">
        <ele>3.7</ele>
        <time>2020-06-15T10:35:35Z</time>
      </trkpt>
      <trkpt lat="49.6342" lon="-1.23597">
        <ele>3.7</ele>
        <time>2020-06-15T10:35:36Z</time>
      </trkpt>
      <trkpt lat="49.63417" lon="-1.23596">
        <ele>3.7</ele>
        <time>2020-06-15T10:35:37Z</time>
      </trkpt>
      <trkpt lat="49.63414" lon="-1.23595">
        <ele>3.6</ele>
        <time>2020-06-15T10:35:38Z</time>
      </trkpt>
      <trkpt lat="49.63411" lon="-1.23593">
        <ele>3.6</ele>
        <time>2020-06-15T10:35:39Z</time>
      </trkpt>
      <trkpt lat="49.63407" lon="-1.23595">
        <ele>3.6</ele>
        <time>2020-06-15T10:35:40Z</time>
      </trkpt>
      <trkpt lat="49.63403" lon="-1.23597">
        <ele>3.6</ele>
        <time>2020-06-15T10:35:41Z</time>
      </trkpt>
      <trkpt lat="49.63402" lon="-1.23599">
        <ele>3.6</ele>
        <time>2020-06-15T10:35:42Z</time>
      </trkpt>
      <trkpt lat="49.634" lon="-1.23602">
        <ele>3.6</ele>
        <time>2020-06-15T10:35:43Z</time>
      </trkpt>
      <trkpt lat="49.63398" lon="-1.23604">
        <ele>3.6</ele>
        <time>2020-06-15T10:35:44Z</time>
      </trkpt>
      <trkpt lat="49.63395" lon="-1.23607">
        <ele>3.6</ele>
        <time>2020-06-15T10:35:45Z</time>
      </trkpt>
      <trkpt lat="49.63393" lon="-1.23611">
        <ele>3.6</ele>
        <time>2020-06-15T10:35:46Z</time>
      </trkpt>
      <trkpt lat="49.6339" lon="-1.23616">
        <ele>3.6</ele>
        <time>2020-06-15T10:35:47Z</time>
      </trkpt>
      <trkpt lat="49.63388" lon="-1.23622">
        <ele>3.6</ele>
        <time>2020-06-15T10:35:48Z</time>
      </trkpt>
      <trkpt lat="49.63386" lon="-1.23627">
        <ele>3.6</ele>
        <time>2020-06-15T10:35:49Z</time>
      </trkpt>
      <trkpt lat="49.63384" lon="-1.23632">
        <ele>3.7</ele>
        <time>2020-06-15T10:35:50Z</time>
      </trkpt>
      <trkpt lat="49.63382" lon="-1.23637">
        <ele>3.7</ele>
        <time>2020-06-15T10:35:51Z</time>
      </trkpt>
      <trkpt lat="49.6338" lon="-1.23643">
        <ele>3.8</ele>
        <time>2020-06-15T10:35:52Z</time>
      </trkpt>
      <trkpt lat="49.63378" lon="-1.2365">
        <ele>3.9</ele>
        <time>2020-06-15T10:35:53Z</time>
      </trkpt>
      <trkpt lat="49.63376" lon="-1.23655">
        <ele>3.9</ele>
        <time>2020-06-15T10:35:54Z</time>
      </trkpt>
      <trkpt lat="49.63373" lon="-1.23658">
        <ele>4</ele>
        <time>2020-06-15T10:35:55Z</time>
      </trkpt>
      <trkpt lat="49.63372" lon="-1.23663">
        <ele>4</ele>
        <time>2020-06-15T10:35:56Z</time>
      </trkpt>
      <trkpt lat="49.6337" lon="-1.23667">
        <ele>4.1</ele>
        <time>2020-06-15T10:35:57Z</time>
      </trkpt>
      <trkpt lat="49.63368" lon="-1.23671">
        <ele>4.1</ele>
        <time>2020-06-15T10:35:58Z</time>
      </trkpt>
      <trkpt lat="49.63366" lon="-1.23676">
        <ele>4.2</ele>
        <time>2020-06-15T10:35:59Z</time>
      </trkpt>
      <trkpt lat="49.63364" lon="-1.23681">
        <ele>4.3</ele>
        <time>2020-06-15T10:36:00Z</time>
      </trkpt>
      <trkpt lat="49.63362" lon="-1.23686">
        <ele>4.3</ele>
        <time>2020-06-15T10:36:01Z</time>
      </trkpt>
      <trkpt lat="49.6336" lon="-1.2369">
        <ele>4.4</ele>
        <time>2020-06-15T10:36:02Z</time>
      </trkpt>
      <trkpt lat="49.63357" lon="-1.23694">
        <ele>4.5</ele>
        <time>2020-06-15T10:36:03Z</time>
      </trkpt>
      <trkpt lat="49.63355" lon="-1.23698">
        <ele>4.5</ele>
        <time>2020-06-15T10:36:04Z</time>
      </trkpt>
      <trkpt lat="49.63353" lon="-1.23701">
        <ele>4.6</ele>
        <time>2020-06-15T10:36:05Z</time>
      </trkpt>
      <trkpt lat="49.63351" lon="-1.23706">
        <ele>4.7</ele>
        <time>2020-06-15T10:36:06Z</time>
      </trkpt>
      <trkpt lat="49.63349" lon="-1.2371">
        <ele>4.8</ele>
        <time>2020-06-15T10:36:07Z</time>
      </trkpt>
      <trkpt lat="49.63348" lon="-1.23715">
        <ele>4.9</ele>
        <time>2020-06-15T10:36:08Z</time>
      </trkpt>
      <trkpt lat="49.63346" lon="-1.2372">
        <ele>4.9</ele>
        <time>2020-06-15T10:36:09Z</time>
      </trkpt>
      <trkpt lat="49.63344" lon="-1.23724">
        <ele>5</ele>
        <time>2020-06-15T10:36:10Z</time>
      </trkpt>
      <trkpt lat="49.63341" lon="-1.23728">
        <ele>5.1</ele>
        <time>2020-06-15T10:36:11Z</time>
      </trkpt>
      <trkpt lat="49.6334" lon="-1.2373">
        <ele>5.1</ele>
        <time>2020-06-15T10:36:12Z</time>
      </trkpt>
      <trkpt lat="49.63338" lon="-1.23734">
        <ele>5.2</ele>
        <time>2020-06-15T10:36:13Z</time>
      </trkpt>
      <trkpt lat="49.63336" lon="-1.23739">
        <ele>5.2</ele>
        <time>2020-06-15T10:36:14Z</time>
      </trkpt>
      <trkpt lat="49.63334" lon="-1.23743">
        <ele>5.3</ele>
        <time>2020-06-15T10:36:15Z</time>
      </trkpt>
      <trkpt lat="49.63332" lon="-1.23749">
        <ele>5.3</ele>
        <time>2020-06-15T10:36:16Z</time>
      </trkpt>
      <trkpt lat="49.6333" lon="-1.23753">
        <ele>5.3</ele>
        <time>2020-06-15T10:36:17Z</time>
      </trkpt>
      <trkpt lat="49.63329" lon="-1.23758">
        <ele>5.3</ele>
        <time>2020-06-15T10:36:18Z</time>
      </trkpt>
      <trkpt lat="49.63326" lon="-1.23764">
        <ele>5.4</ele>
        <time>2020-06-15T10:36:19Z</time>
      </trkpt>
      <trkpt lat="49.63325" lon="-1.23769">
        <ele>5.4</ele>
        <time>2020-06-15T10:36:20Z</time>
      </trkpt>
      <trkpt lat="49.63323" lon="-1.23775">
        <ele>5.4</ele>
        <time>2020-06-15T10:36:21Z</time>
      </trkpt>
      <trkpt lat="49.63321" lon="-1.2378">
        <ele>5.5</ele>
        <time>2020-06-15T10:36:22Z</time>
      </trkpt>
      <trkpt lat="49.6332" lon="-1.23785">
        <ele>5.6</ele>
        <time>2020-06-15T10:36:23Z</time>
      </trkpt>
      <trkpt lat="49.63318" lon="-1.2379">
        <ele>5.7</ele>
        <time>2020-06-15T10:36:24Z</time>
      </trkpt>
      <trkpt lat="49.63317" lon="-1.23795">
        <ele>5.8</ele>
        <time>2020-06-15T10:36:25Z</time>
      </trkpt>
      <trkpt lat="49.63315" lon="-1.23802">
        <ele>5.9</ele>
        <time>2020-06-15T10:36:26Z</time>
      </trkpt>
      <trkpt lat="49.63314" lon="-1.23807">
        <ele>6</ele>
        <time>2020-06-15T10:36:27Z</time>
      </trkpt>
      <trkpt lat="49.63313" lon="-1.23812">
        <ele>6.1</ele>
        <time>2020-06-15T10:36:28Z</time>
      </trkpt>
      <trkpt lat="49.63313" lon="-1.23819">
        <ele>6.2</ele>
        <time>2020-06-15T10:36:29Z</time>
      </trkpt>
      <trkpt lat="49.63312" lon="-1.23825">
        <ele>6.4</ele>
        <time>2020-06-15T10:36:30Z</time>
      </trkpt>
      <trkpt lat="49.63313" lon="-1.23831">
        <ele>6.5</ele>
        <time>2020-06-15T10:36:31Z</time>
      </trkpt>
      <trkpt lat="49.63312" lon="-1.23836">
        <ele>6.6</ele>
        <time>2020-06-15T10:36:32Z</time>
      </trkpt>
      <trkpt lat="49.63311" lon="-1.23841">
        <ele>6.7</ele>
        <time>2020-06-15T10:36:33Z</time>
      </trkpt>
      <trkpt lat="49.63311" lon="-1.23846">
        <ele>6.8</ele>
        <time>2020-06-15T10:36:34Z</time>
      </trkpt>
      <trkpt lat="49.6331" lon="-1.23851">
        <ele>6.9</ele>
        <time>2020-06-15T10:36:35Z</time>
      </trkpt>
      <trkpt lat="49.6331" lon="-1.23855">
        <ele>7</ele>
        <time>2020-06-15T10:36:36Z</time>
      </trkpt>
      <trkpt lat="49.63309" lon="-1.23861">
        <ele>7.1</ele>
        <time>2020-06-15T10:36:37Z</time>
      </trkpt>
      <trkpt lat="49.63309" lon="-1.23863">
        <ele>7.1</ele>
        <time>2020-06-15T10:36:38Z</time>
      </trkpt>
      <trkpt lat="49.63309" lon="-1.23868">
        <ele>7.2</ele>
        <time>2020-06-15T10:36:39Z</time>
      </trkpt>
      <trkpt lat="49.63309" lon="-1.23873">
        <ele>7.3</ele>
        <time>2020-06-15T10:36:40Z</time>
      </trkpt>
      <trkpt lat="49.63309" lon="-1.23878">
        <ele>7.4</ele>
        <time>2020-06-15T10:36:41Z</time>
      </trkpt>
      <trkpt lat="49.63309" lon="-1.23884">
        <ele>7.4</ele>
        <time>2020-06-15T10:36:42Z</time>
      </trkpt>
      <trkpt lat="49.6331" lon="-1.23889">
        <ele>7.5</ele>
        <time>2020-06-15T10:36:43Z</time>
      </trkpt>
      <trkpt lat="49.6331" lon="-1.23893">
        <ele>7.6</ele>
        <time>2020-06-15T10:36:44Z</time>
      </trkpt>
      <trkpt lat="49.6331" lon="-1.23898">
        <ele>7.6</ele>
        <time>2020-06-15T10:36:45Z</time>
      </trkpt>
      <trkpt lat="49.63309" lon="-1.23902">
        <ele>7.6</ele>
        <time>2020-06-15T10:36:46Z</time>
      </trkpt>
      <trkpt lat="49.63309" lon="-1.23906">
        <ele>7.7</ele>
        <time>2020-06-15T10:36:47Z</time>
      </trkpt>
      <trkpt lat="49.63308" lon="-1.23912">
        <ele>7.7</ele>
        <time>2020-06-15T10:36:48Z</time>
      </trkpt>
      <trkpt lat="49.63307" lon="-1.23914">
        <ele>7.7</ele>
        <time>2020-06-15T10:36:49Z</time>
      </trkpt>
      <trkpt lat="49.63306" lon="-1.23919">
        <ele>7.8</ele>
        <time>2020-06-15T10:36:50Z</time>
      </trkpt>
      <trkpt lat="49.63305" lon="-1.23924">
        <ele>7.8</ele>
        <time>2020-06-15T10:36:51Z</time>
      </trkpt>
      <trkpt lat="49.63303" lon="-1.23929">
        <ele>7.9</ele>
        <time>2020-06-15T10:36:52Z</time>
      </trkpt>
      <trkpt lat="49.63301" lon="-1.23933">
        <ele>7.9</ele>
        <time>2020-06-15T10:36:53Z</time>
      </trkpt>
      <trkpt lat="49.633" lon="-1.23938">
        <ele>7.9</ele>
        <time>2020-06-15T10:36:54Z</time>
      </trkpt>
      <trkpt lat="49.63297" lon="-1.23943">
        <ele>8</ele>
        <time>2020-06-15T10:36:55Z</time>
      </trkpt>
      <trkpt lat="49.63297" lon="-1.23946">
        <ele>8</ele>
        <time>2020-06-15T10:36:56Z</time>
      </trkpt>
      <trkpt lat="49.63296" lon="-1.23951">
        <ele>8.1</ele>
        <time>2020-06-15T10:36:57Z</time>
      </trkpt>
      <trkpt lat="49.63295" lon="-1.23957">
        <ele>8.2</ele>
        <time>2020-06-15T10:36:58Z</time>
      </trkpt>
      <trkpt lat="49.63294" lon="-1.23962">
        <ele>8.3</ele>
        <time>2020-06-15T10:36:59Z</time>
      </trkpt>
      <trkpt lat="49.63293" lon="-1.23967">
        <ele>8.4</ele>
        <time>2020-06-15T10:37:00Z</time>
      </trkpt>
      <trkpt lat="49.63291" lon="-1.23972">
        <ele>8.4</ele>
        <time>2020-06-15T10:37:01Z</time>
      </trkpt>
      <trkpt lat="49.6329" lon="-1.23977">
        <ele>8.5</ele>
        <time>2020-06-15T10:37:02Z</time>
      </trkpt>
      <trkpt lat="49.63288" lon="-1.23982">
        <ele>8.6</ele>
        <time>2020-06-15T10:37:03Z</time>
      </trkpt>
      <trkpt lat="49.63287" lon="-1.23986">
        <ele>8.7</ele>
        <time>2020-06-15T10:37:04Z</time>
      </trkpt>
      <trkpt lat="49.63286" lon="-1.23991">
        <ele>8.8</ele>
        <time>2020-06-15T10:37:05Z</time>
      </trkpt>
      <trkpt lat="49.63285" lon="-1.23997">
        <ele>8.9</ele>
        <time>2020-06-15T10:37:06Z</time>
      </trkpt>
      <trkpt lat="49.63283" lon="-1.24">
        <ele>8.9</ele>
        <time>2020-06-15T10:37:07Z</time>
      </trkpt>
      <trkpt lat="49.63282" lon="-1.24005">
        <ele>9</ele>
        <time>2020-06-15T10:37:08Z</time>
      </trkpt>
      <trkpt lat="49.63281" lon="-1.24009">
        <ele>9.1</ele>
        <time>2020-06-15T10:37:09Z</time>
      </trkpt>
      <trkpt lat="49.6328" lon="-1.24014">
        <ele>9.2</ele>
        <time>2020-06-15T10:37:10Z</time>
      </trkpt>
      <trkpt lat="49.63279" lon="-1.24019">
        <ele>9.3</ele>
        <time>2020-06-15T10:37:11Z</time>
      </trkpt>
      <trkpt lat="49.63278" lon="-1.24024">
        <ele>9.3</ele>
        <time>2020-06-15T10:37:12Z</time>
      </trkpt>
      <trkpt lat="49.63276" lon="-1.2403">
        <ele>9.4</ele>
        <time>2020-06-15T10:37:13Z</time>
      </trkpt>
      <trkpt lat="49.63275" lon="-1.24035">
        <ele>9.5</ele>
        <time>2020-06-15T10:37:14Z</time>
      </trkpt>
      <trkpt lat="49.63275" lon="-1.24041">
        <ele>9.5</ele>
        <time>2020-06-15T10:37:15Z</time>
      </trkpt>
      <trkpt lat="49.63274" lon="-1.24046">
        <ele>9.6</ele>
        <time>2020-06-15T10:37:16Z</time>
      </trkpt>
      <trkpt lat="49.63273" lon="-1.24051">
        <ele>9.7</ele>
        <time>2020-06-15T10:37:17Z</time>
      </trkpt>
      <trkpt lat="49.63273" lon="-1.24056">
        <ele>9.7</ele>
        <time>2020-06-15T10:37:18Z</time>
      </trkpt>
      <trkpt lat="49.63272" lon="-1.24061">
        <ele>9.8</ele>
        <time>2020-06-15T10:37:19Z</time>
      </trkpt>
      <trkpt lat="49.63271" lon="-1.24067">
        <ele>9.9</ele>
        <time>2020-06-15T10:37:20Z</time>
      </trkpt>
      <trkpt lat="49.6327" lon="-1.24072">
        <ele>9.9</ele>
        <time>2020-06-15T10:37:21Z</time>
      </trkpt>
      <trkpt lat="49.63271" lon="-1.24078">
        <ele>10</ele>
        <time>2020-06-15T10:37:22Z</time>
      </trkpt>
      <trkpt lat="49.6327" lon="-1.24083">
        <ele>10</ele>
        <time>2020-06-15T10:37:23Z</time>
      </trkpt>
      <trkpt lat="49.6327" lon="-1.24088">
        <ele>10</ele>
        <time>2020-06-15T10:37:24Z</time>
      </trkpt>
      <trkpt lat="49.63269" lon="-1.24093">
        <ele>10</ele>
        <time>2020-06-15T10:37:25Z</time>
      </trkpt>
      <trkpt lat="49.63268" lon="-1.24098">
        <ele>10</ele>
        <time>2020-06-15T10:37:26Z</time>
      </trkpt>
      <trkpt lat="49.63267" lon="-1.24102">
        <ele>9.9</ele>
        <time>2020-06-15T10:37:27Z</time>
      </trkpt>
      <trkpt lat="49.63266" lon="-1.24107">
        <ele>9.9</ele>
        <time>2020-06-15T10:37:28Z</time>
      </trkpt>
      <trkpt lat="49.63264" lon="-1.24112">
        <ele>9.9</ele>
        <time>2020-06-15T10:37:29Z</time>
      </trkpt>
      <trkpt lat="49.63264" lon="-1.24117">
        <ele>9.9</ele>
        <time>2020-06-15T10:37:30Z</time>
      </trkpt>
      <trkpt lat="49.63264" lon="-1.24119">
        <ele>9.9</ele>
        <time>2020-06-15T10:37:31Z</time>
      </trkpt>
      <trkpt lat="49.63264" lon="-1.24124">
        <ele>9.9</ele>
        <time>2020-06-15T10:37:32Z</time>
      </trkpt>
      <trkpt lat="49.63264" lon="-1.24126">
        <ele>9.9</ele>
        <time>2020-06-15T10:37:33Z</time>
      </trkpt>
      <trkpt lat="49.63264" lon="-1.24131">
        <ele>9.9</ele>
        <time>2020-06-15T10:37:34Z</time>
      </trkpt>
      <trkpt lat="49.63265" lon="-1.24137">
        <ele>9.9</ele>
        <time>2020-06-15T10:37:35Z</time>
      </trkpt>
      <trkpt lat="49.63265" lon="-1.24144">
        <ele>9.8</ele>
        <time>2020-06-15T10:37:36Z</time>
      </trkpt>
      <trkpt lat="49.63265" lon="-1.24152">
        <ele>9.8</ele>
        <time>2020-06-15T10:37:37Z</time>
      </trkpt>
      <trkpt lat="49.63266" lon="-1.24158">
        <ele>9.7</ele>
        <time>2020-06-15T10:37:38Z</time>
      </trkpt>
      <trkpt lat="49.63265" lon="-1.24165">
        <ele>9.6</ele>
        <time>2020-06-15T10:37:39Z</time>
      </trkpt>
      <trkpt lat="49.63265" lon="-1.24172">
        <ele>9.5</ele>
        <time>2020-06-15T10:37:40Z</time>
      </trkpt>
      <trkpt lat="49.63266" lon="-1.2418">
        <ele>9.4</ele>
        <time>2020-06-15T10:37:41Z</time>
      </trkpt>
      <trkpt lat="49.63266" lon="-1.24187">
        <ele>9.3</ele>
        <time>2020-06-15T10:37:42Z</time>
      </trkpt>
      <trkpt lat="49.63266" lon="-1.24194">
        <ele>9.3</ele>
        <time>2020-06-15T10:37:43Z</time>
      </trkpt>
      <trkpt lat="49.63265" lon="-1.24201">
        <ele>9.2</ele>
        <time>2020-06-15T10:37:44Z</time>
      </trkpt>
      <trkpt lat="49.63265" lon="-1.24208">
        <ele>9.2</ele>
        <time>2020-06-15T10:37:45Z</time>
      </trkpt>
      <trkpt lat="49.63263" lon="-1.24214">
        <ele>9.2</ele>
        <time>2020-06-15T10:37:46Z</time>
      </trkpt>
      <trkpt lat="49.63262" lon="-1.24221">
        <ele>9.2</ele>
        <time>2020-06-15T10:37:47Z</time>
      </trkpt>
      <trkpt lat="49.63262" lon="-1.24227">
        <ele>9.2</ele>
        <time>2020-06-15T10:37:48Z</time>
      </trkpt>
      <trkpt lat="49.63261" lon="-1.24234">
        <ele>9.2</ele>
        <time>2020-06-15T10:37:49Z</time>
      </trkpt>
      <trkpt lat="49.63261" lon="-1.2424">
        <ele>9.2</ele>
        <time>2020-06-15T10:37:50Z</time>
      </trkpt>
      <trkpt lat="49.6326" lon="-1.24245">
        <ele>9.2</ele>
        <time>2020-06-15T10:37:51Z</time>
      </trkpt>
      <trkpt lat="49.6326" lon="-1.24252">
        <ele>9.2</ele>
        <time>2020-06-15T10:37:52Z</time>
      </trkpt>
      <trkpt lat="49.63259" lon="-1.24257">
        <ele>9.2</ele>
        <time>2020-06-15T10:37:53Z</time>
      </trkpt>
      <trkpt lat="49.63257" lon="-1.24263">
        <ele>9.3</ele>
        <time>2020-06-15T10:37:54Z</time>
      </trkpt>
      <trkpt lat="49.63256" lon="-1.24268">
        <ele>9.3</ele>
        <time>2020-06-15T10:37:55Z</time>
      </trkpt>
      <trkpt lat="49.63256" lon="-1.24274">
        <ele>9.4</ele>
        <time>2020-06-15T10:37:56Z</time>
      </trkpt>
      <trkpt lat="49.63254" lon="-1.24278">
        <ele>9.4</ele>
        <time>2020-06-15T10:37:57Z</time>
      </trkpt>
      <trkpt lat="49.63254" lon="-1.24283">
        <ele>9.4</ele>
        <time>2020-06-15T10:37:58Z</time>
      </trkpt>
      <trkpt lat="49.63253" lon="-1.24288">
        <ele>9.5</ele>
        <time>2020-06-15T10:37:59Z</time>
      </trkpt>
      <trkpt lat="49.63253" lon="-1.24293">
        <ele>9.6</ele>
        <time>2020-06-15T10:38:00Z</time>
      </trkpt>
      <trkpt lat="49.63252" lon="-1.24299">
        <ele>9.5</ele>
        <time>2020-06-15T10:38:01Z</time>
      </trkpt>
      <trkpt lat="49.63252" lon="-1.243">
        <ele>9.4</ele>
        <time>2020-06-15T10:38:02Z</time>
      </trkpt>
      <trkpt lat="49.63251" lon="-1.24303">
        <ele>9.4</ele>
        <time>2020-06-15T10:38:03Z</time>
      </trkpt>
      <trkpt lat="49.6325" lon="-1.24305">
        <ele>9.3</ele>
        <time>2020-06-15T10:38:04Z</time>
      </trkpt>
      <trkpt lat="49.63247" lon="-1.24306">
        <ele>9.2</ele>
        <time>2020-06-15T10:38:05Z</time>
      </trkpt>
      <trkpt lat="49.63246" lon="-1.24306">
        <ele>9.2</ele>
        <time>2020-06-15T10:38:06Z</time>
      </trkpt>
      <trkpt lat="49.63243" lon="-1.24307">
        <ele>9.1</ele>
        <time>2020-06-15T10:38:07Z</time>
      </trkpt>
      <trkpt lat="49.6324" lon="-1.24307">
        <ele>9</ele>
        <time>2020-06-15T10:38:08Z</time>
      </trkpt>
      <trkpt lat="49.63235" lon="-1.24309">
        <ele>8.8</ele>
        <time>2020-06-15T10:38:09Z</time>
      </trkpt>
      <trkpt lat="49.63232" lon="-1.2431">
        <ele>8.6</ele>
        <time>2020-06-15T10:38:10Z</time>
      </trkpt>
      <trkpt lat="49.63228" lon="-1.24311">
        <ele>8.5</ele>
        <time>2020-06-15T10:38:11Z</time>
      </trkpt>
      <trkpt lat="49.63224" lon="-1.24313">
        <ele>8.3</ele>
        <time>2020-06-15T10:38:12Z</time>
      </trkpt>
      <trkpt lat="49.63219" lon="-1.24317">
        <ele>8.1</ele>
        <time>2020-06-15T10:38:13Z</time>
      </trkpt>
      <trkpt lat="49.63214" lon="-1.24319">
        <ele>7.9</ele>
        <time>2020-06-15T10:38:14Z</time>
      </trkpt>
      <trkpt lat="49.63208" lon="-1.24323">
        <ele>7.6</ele>
        <time>2020-06-15T10:38:15Z</time>
      </trkpt>
      <trkpt lat="49.63201" lon="-1.24327">
        <ele>7.4</ele>
        <time>2020-06-15T10:38:16Z</time>
      </trkpt>
      <trkpt lat="49.63194" lon="-1.2433">
        <ele>7.1</ele>
        <time>2020-06-15T10:38:17Z</time>
      </trkpt>
      <trkpt lat="49.63188" lon="-1.24333">
        <ele>6.9</ele>
        <time>2020-06-15T10:38:18Z</time>
      </trkpt>
      <trkpt lat="49.63181" lon="-1.24335">
        <ele>6.8</ele>
        <time>2020-06-15T10:38:19Z</time>
      </trkpt>
      <trkpt lat="49.63175" lon="-1.24338">
        <ele>6.7</ele>
        <time>2020-06-15T10:38:20Z</time>
      </trkpt>
      <trkpt lat="49.63169" lon="-1.24341">
        <ele>6.7</ele>
        <time>2020-06-15T10:38:21Z</time>
      </trkpt>
      <trkpt lat="49.63163" lon="-1.24343">
        <ele>6.6</ele>
        <time>2020-06-15T10:38:22Z</time>
      </trkpt>
      <trkpt lat="49.63156" lon="-1.24345">
        <ele>6.8</ele>
        <time>2020-06-15T10:38:23Z</time>
      </trkpt>
      <trkpt lat="49.6315" lon="-1.24347">
        <ele>6.9</ele>
        <time>2020-06-15T10:38:24Z</time>
      </trkpt>
      <trkpt lat="49.63144" lon="-1.2435">
        <ele>7</ele>
        <time>2020-06-15T10:38:25Z</time>
      </trkpt>
      <trkpt lat="49.63139" lon="-1.24353">
        <ele>7.1</ele>
        <time>2020-06-15T10:38:26Z</time>
      </trkpt>
      <trkpt lat="49.63134" lon="-1.24357">
        <ele>7.2</ele>
        <time>2020-06-15T10:38:27Z</time>
      </trkpt>
      <trkpt lat="49.63129" lon="-1.24361">
        <ele>7.4</ele>
        <time>2020-06-15T10:38:28Z</time>
      </trkpt>
      <trkpt lat="49.63127" lon="-1.24369">
        <ele>7.5</ele>
        <time>2020-06-15T10:38:29Z</time>
      </trkpt>
      <trkpt lat="49.63125" lon="-1.24377">
        <ele>7.7</ele>
        <time>2020-06-15T10:38:30Z</time>
      </trkpt>
      <trkpt lat="49.63123" lon="-1.24383">
        <ele>7.9</ele>
        <time>2020-06-15T10:38:31Z</time>
      </trkpt>
      <trkpt lat="49.6312" lon="-1.24388">
        <ele>8.1</ele>
        <time>2020-06-15T10:38:32Z</time>
      </trkpt>
      <trkpt lat="49.63117" lon="-1.24392">
        <ele>8.2</ele>
        <time>2020-06-15T10:38:33Z</time>
      </trkpt>
      <trkpt lat="49.63112" lon="-1.24394">
        <ele>8.3</ele>
        <time>2020-06-15T10:38:34Z</time>
      </trkpt>
      <trkpt lat="49.63109" lon="-1.24396">
        <ele>8.3</ele>
        <time>2020-06-15T10:38:35Z</time>
      </trkpt>
      <trkpt lat="49.63105" lon="-1.24397">
        <ele>8.4</ele>
        <time>2020-06-15T10:38:36Z</time>
      </trkpt>
      <trkpt lat="49.63102" lon="-1.24397">
        <ele>8.4</ele>
        <time>2020-06-15T10:38:37Z</time>
      </trkpt>
      <trkpt lat="49.63098" lon="-1.24396">
        <ele>8.4</ele>
        <time>2020-06-15T10:38:38Z</time>
      </trkpt>
      <trkpt lat="49.63095" lon="-1.24396">
        <ele>8.4</ele>
        <time>2020-06-15T10:38:39Z</time>
      </trkpt>
      <trkpt lat="49.63091" lon="-1.24394">
        <ele>8.4</ele>
        <time>2020-06-15T10:38:40Z</time>
      </trkpt>
      <trkpt lat="49.63087" lon="-1.24394">
        <ele>8.4</ele>
        <time>2020-06-15T10:38:41Z</time>
      </trkpt>
      <trkpt lat="49.63084" lon="-1.24393">
        <ele>8.3</ele>
        <time>2020-06-15T10:38:42Z</time>
      </trkpt>
      <trkpt lat="49.63079" lon="-1.24391">
        <ele>8.1</ele>
        <time>2020-06-15T10:38:43Z</time>
      </trkpt>
      <trkpt lat="49.63074" lon="-1.24389">
        <ele>7.9</ele>
        <time>2020-06-15T10:38:44Z</time>
      </trkpt>
      <trkpt lat="49.63068" lon="-1.24387">
        <ele>7.6</ele>
        <time>2020-06-15T10:38:45Z</time>
      </trkpt>
      <trkpt lat="49.63063" lon="-1.24385">
        <ele>7.4</ele>
        <time>2020-06-15T10:38:46Z</time>
      </trkpt>
      <trkpt lat="49.63058" lon="-1.24382">
        <ele>7.1</ele>
        <time>2020-06-15T10:38:47Z</time>
      </trkpt>
      <trkpt lat="49.63052" lon="-1.24378">
        <ele>6.9</ele>
        <time>2020-06-15T10:38:48Z</time>
      </trkpt>
      <trkpt lat="49.63045" lon="-1.24374">
        <ele>6.6</ele>
        <time>2020-06-15T10:38:49Z</time>
      </trkpt>
      <trkpt lat="49.63037" lon="-1.24372">
        <ele>6.5</ele>
        <time>2020-06-15T10:38:50Z</time>
      </trkpt>
      <trkpt lat="49.6303" lon="-1.2437">
        <ele>6.3</ele>
        <time>2020-06-15T10:38:51Z</time>
      </trkpt>
      <trkpt lat="49.63021" lon="-1.24368">
        <ele>6.1</ele>
        <time>2020-06-15T10:38:52Z</time>
      </trkpt>
      <trkpt lat="49.63013" lon="-1.24367">
        <ele>6</ele>
        <time>2020-06-15T10:38:53Z</time>
      </trkpt>
      <trkpt lat="49.63006" lon="-1.24366">
        <ele>5.9</ele>
        <time>2020-06-15T10:38:54Z</time>
      </trkpt>
      <trkpt lat="49.62999" lon="-1.24364">
        <ele>5.8</ele>
        <time>2020-06-15T10:38:55Z</time>
      </trkpt>
      <trkpt lat="49.62992" lon="-1.24362">
        <ele>5.8</ele>
        <time>2020-06-15T10:38:56Z</time>
      </trkpt>
      <trkpt lat="49.62985" lon="-1.24361">
        <ele>5.7</ele>
        <time>2020-06-15T10:38:57Z</time>
      </trkpt>
      <trkpt lat="49.62979" lon="-1.2436">
        <ele>5.7</ele>
        <time>2020-06-15T10:38:58Z</time>
      </trkpt>
      <trkpt lat="49.62972" lon="-1.24358">
        <ele>5.6</ele>
        <time>2020-06-15T10:38:59Z</time>
      </trkpt>
      <trkpt lat="49.62966" lon="-1.24357">
        <ele>5.6</ele>
        <time>2020-06-15T10:39:00Z</time>
      </trkpt>
      <trkpt lat="49.6296" lon="-1.24355">
        <ele>5.5</ele>
        <time>2020-06-15T10:39:01Z</time>
      </trkpt>
      <trkpt lat="49.62954" lon="-1.24352">
        <ele>5.5</ele>
        <time>2020-06-15T10:39:02Z</time>
      </trkpt>
      <trkpt lat="49.6295" lon="-1.24348">
        <ele>5.5</ele>
        <time>2020-06-15T10:39:03Z</time>
      </trkpt>
      <trkpt lat="49.62945" lon="-1.24347">
        <ele>5.5</ele>
        <time>2020-06-15T10:39:04Z</time>
      </trkpt>
      <trkpt lat="49.62939" lon="-1.24346">
        <ele>5.5</ele>
        <time>2020-06-15T10:39:05Z</time>
      </trkpt>
      <trkpt lat="49.62934" lon="-1.24345">
        <ele>5.5</ele>
        <time>2020-06-15T10:39:06Z</time>
      </trkpt>
      <trkpt lat="49.62929" lon="-1.24344">
        <ele>5.6</ele>
        <time>2020-06-15T10:39:07Z</time>
      </trkpt>
      <trkpt lat="49.62924" lon="-1.24343">
        <ele>5.6</ele>
        <time>2020-06-15T10:39:08Z</time>
      </trkpt>
      <trkpt lat="49.62919" lon="-1.24341">
        <ele>5.7</ele>
        <time>2020-06-15T10:39:09Z</time>
      </trkpt>
      <trkpt lat="49.62914" lon="-1.24341">
        <ele>5.7</ele>
        <time>2020-06-15T10:39:10Z</time>
      </trkpt>
      <trkpt lat="49.62909" lon="-1.24341">
        <ele>5.8</ele>
        <time>2020-06-15T10:39:11Z</time>
      </trkpt>
      <trkpt lat="49.62904" lon="-1.2434">
        <ele>5.8</ele>
        <time>2020-06-15T10:39:12Z</time>
      </trkpt>
      <trkpt lat="49.62899" lon="-1.24338">
        <ele>5.8</ele>
        <time>2020-06-15T10:39:13Z</time>
      </trkpt>
      <trkpt lat="49.62894" lon="-1.24337">
        <ele>5.8</ele>
        <time>2020-06-15T10:39:14Z</time>
      </trkpt>
      <trkpt lat="49.62889" lon="-1.24338">
        <ele>5.8</ele>
        <time>2020-06-15T10:39:15Z</time>
      </trkpt>
      <trkpt lat="49.62884" lon="-1.24341">
        <ele>5.9</ele>
        <time>2020-06-15T10:39:16Z</time>
      </trkpt>
      <trkpt lat="49.6288" lon="-1.24345">
        <ele>5.9</ele>
        <time>2020-06-15T10:39:17Z</time>
      </trkpt>
      <trkpt lat="49.62875" lon="-1.24351">
        <ele>6</ele>
        <time>2020-06-15T10:39:18Z</time>
      </trkpt>
      <trkpt lat="49.6287" lon="-1.24357">
        <ele>6.2</ele>
        <time>2020-06-15T10:39:19Z</time>
      </trkpt>
      <trkpt lat="49.62866" lon="-1.24361">
        <ele>6.3</ele>
        <time>2020-06-15T10:39:20Z</time>
      </trkpt>
      <trkpt lat="49.62862" lon="-1.24366">
        <ele>6.4</ele>
        <time>2020-06-15T10:39:21Z</time>
      </trkpt>
      <trkpt lat="49.62857" lon="-1.24368">
        <ele>6.6</ele>
        <time>2020-06-15T10:39:22Z</time>
      </trkpt>
      <trkpt lat="49.62852" lon="-1.2437">
        <ele>6.7</ele>
        <time>2020-06-15T10:39:23Z</time>
      </trkpt>
      <trkpt lat="49.62847" lon="-1.24372">
        <ele>6.9</ele>
        <time>2020-06-15T10:39:24Z</time>
      </trkpt>
      <trkpt lat="49.62843" lon="-1.24373">
        <ele>7</ele>
        <time>2020-06-15T10:39:25Z</time>
      </trkpt>
      <trkpt lat="49.62839" lon="-1.24374">
        <ele>7.1</ele>
        <time>2020-06-15T10:39:26Z</time>
      </trkpt>
      <trkpt lat="49.62834" lon="-1.24374">
        <ele>7.3</ele>
        <time>2020-06-15T10:39:27Z</time>
      </trkpt>
      <trkpt lat="49.62829" lon="-1.24375">
        <ele>7.4</ele>
        <time>2020-06-15T10:39:28Z</time>
      </trkpt>
      <trkpt lat="49.62825" lon="-1.24376">
        <ele>7.5</ele>
        <time>2020-06-15T10:39:29Z</time>
      </trkpt>
      <trkpt lat="49.6282" lon="-1.24377">
        <ele>7.6</ele>
        <time>2020-06-15T10:39:30Z</time>
      </trkpt>
      <trkpt lat="49.62816" lon="-1.24376">
        <ele>7.7</ele>
        <time>2020-06-15T10:39:31Z</time>
      </trkpt>
      <trkpt lat="49.62814" lon="-1.24376">
        <ele>7.7</ele>
        <time>2020-06-15T10:39:32Z</time>
      </trkpt>
      <trkpt lat="49.6281" lon="-1.24376">
        <ele>7.8</ele>
        <time>2020-06-15T10:39:33Z</time>
      </trkpt>
      <trkpt lat="49.62806" lon="-1.24376">
        <ele>7.8</ele>
        <time>2020-06-15T10:39:34Z</time>
      </trkpt>
      <trkpt lat="49.62802" lon="-1.24377">
        <ele>7.8</ele>
        <time>2020-06-15T10:39:35Z</time>
      </trkpt>
      <trkpt lat="49.62798" lon="-1.24377">
        <ele>7.8</ele>
        <time>2020-06-15T10:39:36Z</time>
      </trkpt>
      <trkpt lat="49.62793" lon="-1.24376">
        <ele>7.6</ele>
        <time>2020-06-15T10:39:37Z</time>
      </trkpt>
      <trkpt lat="49.62789" lon="-1.24375">
        <ele>7.6</ele>
        <time>2020-06-15T10:39:38Z</time>
      </trkpt>
      <trkpt lat="49.62784" lon="-1.24372">
        <ele>7.5</ele>
        <time>2020-06-15T10:39:39Z</time>
      </trkpt>
      <trkpt lat="49.62779" lon="-1.2437">
        <ele>7.4</ele>
        <time>2020-06-15T10:39:40Z</time>
      </trkpt>
      <trkpt lat="49.62773" lon="-1.24368">
        <ele>7.4</ele>
        <time>2020-06-15T10:39:41Z</time>
      </trkpt>
      <trkpt lat="49.62767" lon="-1.24366">
        <ele>7.3</ele>
        <time>2020-06-15T10:39:42Z</time>
      </trkpt>
      <trkpt lat="49.62762" lon="-1.24364">
        <ele>7.3</ele>
        <time>2020-06-15T10:39:43Z</time>
      </trkpt>
      <trkpt lat="49.62756" lon="-1.24361">
        <ele>7.3</ele>
        <time>2020-06-15T10:39:44Z</time>
      </trkpt>
      <trkpt lat="49.62751" lon="-1.24358">
        <ele>7.3</ele>
        <time>2020-06-15T10:39:45Z</time>
      </trkpt>
      <trkpt lat="49.62746" lon="-1.24356">
        <ele>7.3</ele>
        <time>2020-06-15T10:39:46Z</time>
      </trkpt>
      <trkpt lat="49.62742" lon="-1.24353">
        <ele>7.3</ele>
        <time>2020-06-15T10:39:47Z</time>
      </trkpt>
      <trkpt lat="49.62737" lon="-1.24351">
        <ele>7.4</ele>
        <time>2020-06-15T10:39:48Z</time>
      </trkpt>
      <trkpt lat="49.62732" lon="-1.2435">
        <ele>7.4</ele>
        <time>2020-06-15T10:39:49Z</time>
      </trkpt>
      <trkpt lat="49.62726" lon="-1.24349">
        <ele>7.5</ele>
        <time>2020-06-15T10:39:50Z</time>
      </trkpt>
      <trkpt lat="49.62721" lon="-1.24347">
        <ele>7.6</ele>
        <time>2020-06-15T10:39:51Z</time>
      </trkpt>
      <trkpt lat="49.62717" lon="-1.24346">
        <ele>7.7</ele>
        <time>2020-06-15T10:39:52Z</time>
      </trkpt>
      <trkpt lat="49.62711" lon="-1.24345">
        <ele>7.8</ele>
        <time>2020-06-15T10:39:53Z</time>
      </trkpt>
      <trkpt lat="49.62705" lon="-1.24344">
        <ele>7.8</ele>
        <time>2020-06-15T10:39:54Z</time>
      </trkpt>
      <trkpt lat="49.627" lon="-1.24342">
        <ele>7.8</ele>
        <time>2020-06-15T10:39:55Z</time>
      </trkpt>
      <trkpt lat="49.62696" lon="-1.2434">
        <ele>7.8</ele>
        <time>2020-06-15T10:39:56Z</time>
      </trkpt>
      <trkpt lat="49.62691" lon="-1.24337">
        <ele>7.8</ele>
        <time>2020-06-15T10:39:57Z</time>
      </trkpt>
      <trkpt lat="49.62686" lon="-1.24336">
        <ele>7.8</ele>
        <time>2020-06-15T10:39:58Z</time>
      </trkpt>
      <trkpt lat="49.62682" lon="-1.24332">
        <ele>7.8</ele>
        <time>2020-06-15T10:39:59Z</time>
      </trkpt>
      <trkpt lat="49.62677" lon="-1.2433">
        <ele>7.8</ele>
        <time>2020-06-15T10:40:00Z</time>
      </trkpt>
      <trkpt lat="49.62672" lon="-1.24328">
        <ele>7.8</ele>
        <time>2020-06-15T10:40:01Z</time>
      </trkpt>
      <trkpt lat="49.62667" lon="-1.24326">
        <ele>7.8</ele>
        <time>2020-06-15T10:40:02Z</time>
      </trkpt>
      <trkpt lat="49.62662" lon="-1.24322">
        <ele>7.8</ele>
        <time>2020-06-15T10:40:03Z</time>
      </trkpt>
      <trkpt lat="49.62656" lon="-1.2432">
        <ele>7.8</ele>
        <time>2020-06-15T10:40:04Z</time>
      </trkpt>
      <trkpt lat="49.62651" lon="-1.24317">
        <ele>7.8</ele>
        <time>2020-06-15T10:40:05Z</time>
      </trkpt>
      <trkpt lat="49.62646" lon="-1.24315">
        <ele>7.8</ele>
        <time>2020-06-15T10:40:06Z</time>
      </trkpt>
      <trkpt lat="49.62641" lon="-1.24312">
        <ele>7.8</ele>
        <time>2020-06-15T10:40:07Z</time>
      </trkpt>
      <trkpt lat="49.62637" lon="-1.24311">
        <ele>7.8</ele>
        <time>2020-06-15T10:40:08Z</time>
      </trkpt>
      <trkpt lat="49.62632" lon="-1.24308">
        <ele>7.7</ele>
        <time>2020-06-15T10:40:09Z</time>
      </trkpt>
      <trkpt lat="49.62628" lon="-1.24306">
        <ele>7.7</ele>
        <time>2020-06-15T10:40:10Z</time>
      </trkpt>
      <trkpt lat="49.62625" lon="-1.24304">
        <ele>7.6</ele>
        <time>2020-06-15T10:40:11Z</time>
      </trkpt>
      <trkpt lat="49.62621" lon="-1.243">
        <ele>7.5</ele>
        <time>2020-06-15T10:40:12Z</time>
      </trkpt>
      <trkpt lat="49.62618" lon="-1.24298">
        <ele>7.5</ele>
        <time>2020-06-15T10:40:13Z</time>
      </trkpt>
      <trkpt lat="49.62614" lon="-1.24297">
        <ele>7.4</ele>
        <time>2020-06-15T10:40:14Z</time>
      </trkpt>
      <trkpt lat="49.6261" lon="-1.24295">
        <ele>7.3</ele>
        <time>2020-06-15T10:40:15Z</time>
      </trkpt>
      <trkpt lat="49.62607" lon="-1.24292">
        <ele>7.2</ele>
        <time>2020-06-15T10:40:16Z</time>
      </trkpt>
      <trkpt lat="49.62603" lon="-1.2429">
        <ele>7.1</ele>
        <time>2020-06-15T10:40:17Z</time>
      </trkpt>
      <trkpt lat="49.62599" lon="-1.24287">
        <ele>7</ele>
        <time>2020-06-15T10:40:18Z</time>
      </trkpt>
      <trkpt lat="49.62596" lon="-1.24284">
        <ele>6.9</ele>
        <time>2020-06-15T10:40:19Z</time>
      </trkpt>
      <trkpt lat="49.62592" lon="-1.24282">
        <ele>6.8</ele>
        <time>2020-06-15T10:40:20Z</time>
      </trkpt>
      <trkpt lat="49.62587" lon="-1.2428">
        <ele>6.7</ele>
        <time>2020-06-15T10:40:21Z</time>
      </trkpt>
      <trkpt lat="49.62581" lon="-1.24279">
        <ele>6.7</ele>
        <time>2020-06-15T10:40:22Z</time>
      </trkpt>
      <trkpt lat="49.62575" lon="-1.24279">
        <ele>6.6</ele>
        <time>2020-06-15T10:40:23Z</time>
      </trkpt>
      <trkpt lat="49.62569" lon="-1.24281">
        <ele>6.6</ele>
        <time>2020-06-15T10:40:24Z</time>
      </trkpt>
      <trkpt lat="49.62564" lon="-1.24284">
        <ele>6.6</ele>
        <time>2020-06-15T10:40:25Z</time>
      </trkpt>
      <trkpt lat="49.6256" lon="-1.24287">
        <ele>6.5</ele>
        <time>2020-06-15T10:40:26Z</time>
      </trkpt>
      <trkpt lat="49.62556" lon="-1.2429">
        <ele>6.5</ele>
        <time>2020-06-15T10:40:27Z</time>
      </trkpt>
      <trkpt lat="49.62551" lon="-1.24291">
        <ele>6.4</ele>
        <time>2020-06-15T10:40:28Z</time>
      </trkpt>
      <trkpt lat="49.62547" lon="-1.24294">
        <ele>6.4</ele>
        <time>2020-06-15T10:40:29Z</time>
      </trkpt>
      <trkpt lat="49.62543" lon="-1.24296">
        <ele>6.3</ele>
        <time>2020-06-15T10:40:30Z</time>
      </trkpt>
      <trkpt lat="49.62539" lon="-1.24297">
        <ele>6.3</ele>
        <time>2020-06-15T10:40:31Z</time>
      </trkpt>
      <trkpt lat="49.62535" lon="-1.24299">
        <ele>6.2</ele>
        <time>2020-06-15T10:40:32Z</time>
      </trkpt>
      <trkpt lat="49.62531" lon="-1.24298">
        <ele>6.2</ele>
        <time>2020-06-15T10:40:33Z</time>
      </trkpt>
      <trkpt lat="49.62527" lon="-1.24297">
        <ele>6.1</ele>
        <time>2020-06-15T10:40:34Z</time>
      </trkpt>
      <trkpt lat="49.62524" lon="-1.24296">
        <ele>6.1</ele>
        <time>2020-06-15T10:40:35Z</time>
      </trkpt>
      <trkpt lat="49.62521" lon="-1.24296">
        <ele>6</ele>
        <time>2020-06-15T10:40:36Z</time>
      </trkpt>
      <trkpt lat="49.6252" lon="-1.24296">
        <ele>6</ele>
        <time>2020-06-15T10:40:37Z</time>
      </trkpt>
      <trkpt lat="49.6252" lon="-1.24295">
        <ele>6</ele>
        <time>2020-06-15T10:40:38Z</time>
      </trkpt>
      <trkpt lat="49.62519" lon="-1.24295">
        <ele>6</ele>
        <time>2020-06-15T10:40:39Z</time>
      </trkpt>
      <trkpt lat="49.62519" lon="-1.24294">
        <ele>5.9</ele>
        <time>2020-06-15T10:40:40Z</time>
      </trkpt>
      <trkpt lat="49.6252" lon="-1.24294">
        <ele>5.9</ele>
        <time>2020-06-15T10:40:41Z</time>
      </trkpt>
      <trkpt lat="49.6252" lon="-1.24294">
        <ele>5.9</ele>
        <time>2020-06-15T10:40:42Z</time>
      </trkpt>
      <trkpt lat="49.6252" lon="-1.24294">
        <ele>5.9</ele>
        <time>2020-06-15T10:40:43Z</time>
      </trkpt>
      <trkpt lat="49.62518" lon="-1.24295">
        <ele>5.9</ele>
        <time>2020-06-15T10:40:44Z</time>
      </trkpt>
      <trkpt lat="49.62517" lon="-1.24296">
        <ele>5.9</ele>
        <time>2020-06-15T10:40:45Z</time>
      </trkpt>
      <trkpt lat="49.62516" lon="-1.24299">
        <ele>5.8</ele>
        <time>2020-06-15T10:40:46Z</time>
      </trkpt>
      <trkpt lat="49.62515" lon="-1.24301">
        <ele>5.7</ele>
        <time>2020-06-15T10:40:47Z</time>
      </trkpt>
      <trkpt lat="49.62515" lon="-1.24303">
        <ele>5.6</ele>
        <time>2020-06-15T10:40:48Z</time>
      </trkpt>
      <trkpt lat="49.62513" lon="-1.24308">
        <ele>5.4</ele>
        <time>2020-06-15T10:40:49Z</time>
      </trkpt>
      <trkpt lat="49.62511" lon="-1.24313">
        <ele>5.1</ele>
        <time>2020-06-15T10:40:50Z</time>
      </trkpt>
      <trkpt lat="49.62508" lon="-1.24319">
        <ele>4.9</ele>
        <time>2020-06-15T10:40:51Z</time>
      </trkpt>
      <trkpt lat="49.62506" lon="-1.24326">
        <ele>4.6</ele>
        <time>2020-06-15T10:40:52Z</time>
      </trkpt>
      <trkpt lat="49.62503" lon="-1.24331">
        <ele>4.4</ele>
        <time>2020-06-15T10:40:53Z</time>
      </trkpt>
      <trkpt lat="49.625" lon="-1.24337">
        <ele>4.2</ele>
        <time>2020-06-15T10:40:54Z</time>
      </trkpt>
      <trkpt lat="49.62496" lon="-1.24343">
        <ele>4</ele>
        <time>2020-06-15T10:40:55Z</time>
      </trkpt>
      <trkpt lat="49.62491" lon="-1.24348">
        <ele>3.9</ele>
        <time>2020-06-15T10:40:56Z</time>
      </trkpt>
      <trkpt lat="49.62488" lon="-1.24355">
        <ele>3.7</ele>
        <time>2020-06-15T10:40:57Z</time>
      </trkpt>
      <trkpt lat="49.62486" lon="-1.24361">
        <ele>3.7</ele>
        <time>2020-06-15T10:40:58Z</time>
      </trkpt>
      <trkpt lat="49.62483" lon="-1.24367">
        <ele>3.6</ele>
        <time>2020-06-15T10:40:59Z</time>
      </trkpt>
      <trkpt lat="49.62482" lon="-1.24372">
        <ele>3.5</ele>
        <time>2020-06-15T10:41:00Z</time>
      </trkpt>
      <trkpt lat="49.6248" lon="-1.24377">
        <ele>3.5</ele>
        <time>2020-06-15T10:41:01Z</time>
      </trkpt>
      <trkpt lat="49.62478" lon="-1.24382">
        <ele>3.5</ele>
        <time>2020-06-15T10:41:02Z</time>
      </trkpt>
      <trkpt lat="49.62475" lon="-1.24385">
        <ele>3.4</ele>
        <time>2020-06-15T10:41:03Z</time>
      </trkpt>
      <trkpt lat="49.62472" lon="-1.24387">
        <ele>3.5</ele>
        <time>2020-06-15T10:41:04Z</time>
      </trkpt>
      <trkpt lat="49.62468" lon="-1.24388">
        <ele>3.5</ele>
        <time>2020-06-15T10:41:05Z</time>
      </trkpt>
      <trkpt lat="49.62464" lon="-1.24391">
        <ele>3.5</ele>
        <time>2020-06-15T10:41:06Z</time>
      </trkpt>
      <trkpt lat="49.6246" lon="-1.24393">
        <ele>3.5</ele>
        <time>2020-06-15T10:41:07Z</time>
      </trkpt>
      <trkpt lat="49.62457" lon="-1.24395">
        <ele>3.5</ele>
        <time>2020-06-15T10:41:08Z</time>
      </trkpt>
      <trkpt lat="49.62452" lon="-1.24398">
        <ele>3.6</ele>
        <time>2020-06-15T10:41:09Z</time>
      </trkpt>
      <trkpt lat="49.62447" lon="-1.24401">
        <ele>3.6</ele>
        <time>2020-06-15T10:41:10Z</time>
      </trkpt>
      <trkpt lat="49.62442" lon="-1.24405">
        <ele>3.7</ele>
        <time>2020-06-15T10:41:11Z</time>
      </trkpt>
      <trkpt lat="49.62437" lon="-1.24409">
        <ele>3.8</ele>
        <time>2020-06-15T10:41:12Z</time>
      </trkpt>
      <trkpt lat="49.62433" lon="-1.24412">
        <ele>3.9</ele>
        <time>2020-06-15T10:41:13Z</time>
      </trkpt>
      <trkpt lat="49.62429" lon="-1.24415">
        <ele>4.1</ele>
        <time>2020-06-15T10:41:14Z</time>
      </trkpt>
      <trkpt lat="49.62424" lon="-1.24419">
        <ele>4.2</ele>
        <time>2020-06-15T10:41:15Z</time>
      </trkpt>
      <trkpt lat="49.62419" lon="-1.24421">
        <ele>4.4</ele>
        <time>2020-06-15T10:41:16Z</time>
      </trkpt>
      <trkpt lat="49.62415" lon="-1.24423">
        <ele>4.6</ele>
        <time>2020-06-15T10:41:17Z</time>
      </trkpt>
      <trkpt lat="49.62411" lon="-1.24425">
        <ele>4.7</ele>
        <time>2020-06-15T10:41:18Z</time>
      </trkpt>
      <trkpt lat="49.62407" lon="-1.24427">
        <ele>4.8</ele>
        <time>2020-06-15T10:41:19Z</time>
      </trkpt>
      <trkpt lat="49.62405" lon="-1.24428">
        <ele>4.9</ele>
        <time>2020-06-15T10:41:20Z</time>
      </trkpt>
      <trkpt lat="49.62402" lon="-1.24431">
        <ele>5.1</ele>
        <time>2020-06-15T10:41:21Z</time>
      </trkpt>
      <trkpt lat="49.624" lon="-1.24432">
        <ele>5.2</ele>
        <time>2020-06-15T10:41:22Z</time>
      </trkpt>
      <trkpt lat="49.62398" lon="-1.24433">
        <ele>5.3</ele>
        <time>2020-06-15T10:41:23Z</time>
      </trkpt>
      <trkpt lat="49.62395" lon="-1.24436">
        <ele>5.5</ele>
        <time>2020-06-15T10:41:24Z</time>
      </trkpt>
      <trkpt lat="49.62393" lon="-1.24437">
        <ele>5.5</ele>
        <time>2020-06-15T10:41:25Z</time>
      </trkpt>
      <trkpt lat="49.62391" lon="-1.24439">
        <ele>5.7</ele>
        <time>2020-06-15T10:41:26Z</time>
      </trkpt>
      <trkpt lat="49.62388" lon="-1.24441">
        <ele>5.8</ele>
        <time>2020-06-15T10:41:27Z</time>
      </trkpt>
      <trkpt lat="49.62385" lon="-1.24443">
        <ele>6</ele>
        <time>2020-06-15T10:41:28Z</time>
      </trkpt>
      <trkpt lat="49.62381" lon="-1.24445">
        <ele>6.2</ele>
        <time>2020-06-15T10:41:29Z</time>
      </trkpt>
      <trkpt lat="49.62377" lon="-1.24446">
        <ele>6.4</ele>
        <time>2020-06-15T10:41:30Z</time>
      </trkpt>
      <trkpt lat="49.62374" lon="-1.24447">
        <ele>6.6</ele>
        <time>2020-06-15T10:41:31Z</time>
      </trkpt>
      <trkpt lat="49.62369" lon="-1.24446">
        <ele>6.9</ele>
        <time>2020-06-15T10:41:32Z</time>
      </trkpt>
      <trkpt lat="49.62364" lon="-1.24445">
        <ele>7.2</ele>
        <time>2020-06-15T10:41:33Z</time>
      </trkpt>
      <trkpt lat="49.62361" lon="-1.24444">
        <ele>7.4</ele>
        <time>2020-06-15T10:41:34Z</time>
      </trkpt>
      <trkpt lat="49.62357" lon="-1.24443">
        <ele>7.5</ele>
        <time>2020-06-15T10:41:35Z</time>
      </trkpt>
      <trkpt lat="49.62354" lon="-1.24442">
        <ele>7.5</ele>
        <time>2020-06-15T10:41:36Z</time>
      </trkpt>
      <trkpt lat="49.62351" lon="-1.24441">
        <ele>7.5</ele>
        <time>2020-06-15T10:41:37Z</time>
      </trkpt>
      <trkpt lat="49.62347" lon="-1.24441">
        <ele>7.7</ele>
        <time>2020-06-15T10:41:38Z</time>
      </trkpt>
      <trkpt lat="49.62343" lon="-1.24441">
        <ele>7.8</ele>
        <time>2020-06-15T10:41:39Z</time>
      </trkpt>
      <trkpt lat="49.6234" lon="-1.24443">
        <ele>7.8</ele>
        <time>2020-06-15T10:41:40Z</time>
      </trkpt>
      <trkpt lat="49.62336" lon="-1.24445">
        <ele>7.8</ele>
        <time>2020-06-15T10:41:41Z</time>
      </trkpt>
      <trkpt lat="49.62333" lon="-1.24447">
        <ele>7.9</ele>
        <time>2020-06-15T10:41:42Z</time>
      </trkpt>
      <trkpt lat="49.6233" lon="-1.24451">
        <ele>7.9</ele>
        <time>2020-06-15T10:41:43Z</time>
      </trkpt>
      <trkpt lat="49.62329" lon="-1.24453">
        <ele>7.9</ele>
        <time>2020-06-15T10:41:44Z</time>
      </trkpt>
      <trkpt lat="49.62326" lon="-1.24454">
        <ele>7.9</ele>
        <time>2020-06-15T10:41:45Z</time>
      </trkpt>
      <trkpt lat="49.62323" lon="-1.24458">
        <ele>7.8</ele>
        <time>2020-06-15T10:41:46Z</time>
      </trkpt>
      <trkpt lat="49.62321" lon="-1.24461">
        <ele>7.8</ele>
        <time>2020-06-15T10:41:47Z</time>
      </trkpt>
      <trkpt lat="49.62319" lon="-1.24463">
        <ele>7.8</ele>
        <time>2020-06-15T10:41:48Z</time>
      </trkpt>
      <trkpt lat="49.62317" lon="-1.24466">
        <ele>7.8</ele>
        <time>2020-06-15T10:41:49Z</time>
      </trkpt>
      <trkpt lat="49.62313" lon="-1.2447">
        <ele>7.8</ele>
        <time>2020-06-15T10:41:50Z</time>
      </trkpt>
      <trkpt lat="49.62312" lon="-1.24471">
        <ele>7.8</ele>
        <time>2020-06-15T10:41:51Z</time>
      </trkpt>
      <trkpt lat="49.62309" lon="-1.24473">
        <ele>7.3</ele>
        <time>2020-06-15T10:41:52Z</time>
      </trkpt>
      <trkpt lat="49.62305" lon="-1.24472">
        <ele>7.1</ele>
        <time>2020-06-15T10:41:53Z</time>
      </trkpt>
      <trkpt lat="49.62302" lon="-1.2447">
        <ele>6.9</ele>
        <time>2020-06-15T10:41:54Z</time>
      </trkpt>
      <trkpt lat="49.62298" lon="-1.24468">
        <ele>6.7</ele>
        <time>2020-06-15T10:41:55Z</time>
      </trkpt>
      <trkpt lat="49.62293" lon="-1.24464">
        <ele>6.4</ele>
        <time>2020-06-15T10:41:56Z</time>
      </trkpt>
      <trkpt lat="49.62287" lon="-1.2446">
        <ele>6.2</ele>
        <time>2020-06-15T10:41:57Z</time>
      </trkpt>
      <trkpt lat="49.62282" lon="-1.24454">
        <ele>5.9</ele>
        <time>2020-06-15T10:41:58Z</time>
      </trkpt>
      <trkpt lat="49.62277" lon="-1.2445">
        <ele>5.7</ele>
        <time>2020-06-15T10:41:59Z</time>
      </trkpt>
      <trkpt lat="49.62273" lon="-1.24445">
        <ele>5.5</ele>
        <time>2020-06-15T10:42:00Z</time>
      </trkpt>
      <trkpt lat="49.62268" lon="-1.24441">
        <ele>5.3</ele>
        <time>2020-06-15T10:42:01Z</time>
      </trkpt>
      <trkpt lat="49.62264" lon="-1.24438">
        <ele>5.2</ele>
        <time>2020-06-15T10:42:02Z</time>
      </trkpt>
      <trkpt lat="49.62259" lon="-1.24434">
        <ele>5.2</ele>
        <time>2020-06-15T10:42:03Z</time>
      </trkpt>
      <trkpt lat="49.62254" lon="-1.2443">
        <ele>5.1</ele>
        <time>2020-06-15T10:42:04Z</time>
      </trkpt>
      <trkpt lat="49.62249" lon="-1.24428">
        <ele>5.1</ele>
        <time>2020-06-15T10:42:05Z</time>
      </trkpt>
      <trkpt lat="49.62242" lon="-1.24427">
        <ele>5</ele>
        <time>2020-06-15T10:42:06Z</time>
      </trkpt>
      <trkpt lat="49.62235" lon="-1.24429">
        <ele>5</ele>
        <time>2020-06-15T10:42:07Z</time>
      </trkpt>
      <trkpt lat="49.62228" lon="-1.24434">
        <ele>4.9</ele>
        <time>2020-06-15T10:42:08Z</time>
      </trkpt>
      <trkpt lat="49.62222" lon="-1.24439">
        <ele>4.9</ele>
        <time>2020-06-15T10:42:09Z</time>
      </trkpt>
      <trkpt lat="49.62217" lon="-1.24445">
        <ele>4.8</ele>
        <time>2020-06-15T10:42:10Z</time>
      </trkpt>
      <trkpt lat="49.62212" lon="-1.24451">
        <ele>4.8</ele>
        <time>2020-06-15T10:42:11Z</time>
      </trkpt>
      <trkpt lat="49.62208" lon="-1.24457">
        <ele>4.8</ele>
        <time>2020-06-15T10:42:12Z</time>
      </trkpt>
      <trkpt lat="49.62203" lon="-1.24463">
        <ele>4.7</ele>
        <time>2020-06-15T10:42:13Z</time>
      </trkpt>
      <trkpt lat="49.62198" lon="-1.2447">
        <ele>4.7</ele>
        <time>2020-06-15T10:42:14Z</time>
      </trkpt>
      <trkpt lat="49.62194" lon="-1.24478">
        <ele>4.7</ele>
        <time>2020-06-15T10:42:15Z</time>
      </trkpt>
      <trkpt lat="49.6219" lon="-1.24485">
        <ele>4.7</ele>
        <time>2020-06-15T10:42:16Z</time>
      </trkpt>
      <trkpt lat="49.62186" lon="-1.24492">
        <ele>4.8</ele>
        <time>2020-06-15T10:42:17Z</time>
      </trkpt>
      <trkpt lat="49.62183" lon="-1.24499">
        <ele>4.8</ele>
        <time>2020-06-15T10:42:18Z</time>
      </trkpt>
      <trkpt lat="49.62178" lon="-1.24505">
        <ele>4.8</ele>
        <time>2020-06-15T10:42:19Z</time>
      </trkpt>
      <trkpt lat="49.62175" lon="-1.2451">
        <ele>4.9</ele>
        <time>2020-06-15T10:42:20Z</time>
      </trkpt>
      <trkpt lat="49.62171" lon="-1.24515">
        <ele>4.9</ele>
        <time>2020-06-15T10:42:21Z</time>
      </trkpt>
      <trkpt lat="49.62168" lon="-1.2452">
        <ele>5</ele>
        <time>2020-06-15T10:42:22Z</time>
      </trkpt>
      <trkpt lat="49.62164" lon="-1.24524">
        <ele>5</ele>
        <time>2020-06-15T10:42:23Z</time>
      </trkpt>
      <trkpt lat="49.62159" lon="-1.24528">
        <ele>5.1</ele>
        <time>2020-06-15T10:42:24Z</time>
      </trkpt>
      <trkpt lat="49.62155" lon="-1.24531">
        <ele>5.2</ele>
        <time>2020-06-15T10:42:25Z</time>
      </trkpt>
      <trkpt lat="49.62151" lon="-1.24534">
        <ele>5.2</ele>
        <time>2020-06-15T10:42:26Z</time>
      </trkpt>
      <trkpt lat="49.62146" lon="-1.24537">
        <ele>5.2</ele>
        <time>2020-06-15T10:42:27Z</time>
      </trkpt>
      <trkpt lat="49.62141" lon="-1.24539">
        <ele>5.3</ele>
        <time>2020-06-15T10:42:28Z</time>
      </trkpt>
      <trkpt lat="49.62135" lon="-1.24541">
        <ele>5.3</ele>
        <time>2020-06-15T10:42:29Z</time>
      </trkpt>
      <trkpt lat="49.62131" lon="-1.24544">
        <ele>5.3</ele>
        <time>2020-06-15T10:42:30Z</time>
      </trkpt>
      <trkpt lat="49.62126" lon="-1.24547">
        <ele>5.3</ele>
        <time>2020-06-15T10:42:31Z</time>
      </trkpt>
      <trkpt lat="49.62121" lon="-1.2455">
        <ele>5.4</ele>
        <time>2020-06-15T10:42:32Z</time>
      </trkpt>
      <trkpt lat="49.62117" lon="-1.24553">
        <ele>5.4</ele>
        <time>2020-06-15T10:42:33Z</time>
      </trkpt>
      <trkpt lat="49.62112" lon="-1.24556">
        <ele>5.4</ele>
        <time>2020-06-15T10:42:34Z</time>
      </trkpt>
      <trkpt lat="49.62107" lon="-1.24559">
        <ele>5.4</ele>
        <time>2020-06-15T10:42:35Z</time>
      </trkpt>
      <trkpt lat="49.62102" lon="-1.24562">
        <ele>5.4</ele>
        <time>2020-06-15T10:42:36Z</time>
      </trkpt>
      <trkpt lat="49.62098" lon="-1.24565">
        <ele>5.5</ele>
        <time>2020-06-15T10:42:37Z</time>
      </trkpt>
      <trkpt lat="49.62093" lon="-1.24567">
        <ele>5.5</ele>
        <time>2020-06-15T10:42:38Z</time>
      </trkpt>
      <trkpt lat="49.62088" lon="-1.24571">
        <ele>5.5</ele>
        <time>2020-06-15T10:42:39Z</time>
      </trkpt>
      <trkpt lat="49.62084" lon="-1.24573">
        <ele>5.5</ele>
        <time>2020-06-15T10:42:40Z</time>
      </trkpt>
      <trkpt lat="49.62078" lon="-1.24576">
        <ele>5.5</ele>
        <time>2020-06-15T10:42:41Z</time>
      </trkpt>
      <trkpt lat="49.62073" lon="-1.24579">
        <ele>5.5</ele>
        <time>2020-06-15T10:42:42Z</time>
      </trkpt>
      <trkpt lat="49.62068" lon="-1.24582">
        <ele>5.5</ele>
        <time>2020-06-15T10:42:43Z</time>
      </trkpt>
      <trkpt lat="49.62063" lon="-1.24584">
        <ele>5.5</ele>
        <time>2020-06-15T10:42:44Z</time>
      </trkpt>
      <trkpt lat="49.62058" lon="-1.24586">
        <ele>5.5</ele>
        <time>2020-06-15T10:42:45Z</time>
      </trkpt>
      <trkpt lat="49.62053" lon="-1.2459">
        <ele>5.5</ele>
        <time>2020-06-15T10:42:46Z</time>
      </trkpt>
      <trkpt lat="49.6205" lon="-1.24593">
        <ele>5.5</ele>
        <time>2020-06-15T10:42:47Z</time>
      </trkpt>
      <trkpt lat="49.62046" lon="-1.24597">
        <ele>5.5</ele>
        <time>2020-06-15T10:42:48Z</time>
      </trkpt>
      <trkpt lat="49.62042" lon="-1.24601">
        <ele>5.5</ele>
        <time>2020-06-15T10:42:49Z</time>
      </trkpt>
      <trkpt lat="49.62039" lon="-1.24605">
        <ele>5.5</ele>
        <time>2020-06-15T10:42:50Z</time>
      </trkpt>
      <trkpt lat="49.62034" lon="-1.24609">
        <ele>5.4</ele>
        <time>2020-06-15T10:42:51Z</time>
      </trkpt>
      <trkpt lat="49.6203" lon="-1.24614">
        <ele>5.3</ele>
        <time>2020-06-15T10:42:52Z</time>
      </trkpt>
      <trkpt lat="49.62026" lon="-1.24619">
        <ele>5.3</ele>
        <time>2020-06-15T10:42:53Z</time>
      </trkpt>
      <trkpt lat="49.62022" lon="-1.24624">
        <ele>5.2</ele>
        <time>2020-06-15T10:42:54Z</time>
      </trkpt>
      <trkpt lat="49.62018" lon="-1.24628">
        <ele>5.2</ele>
        <time>2020-06-15T10:42:55Z</time>
      </trkpt>
      <trkpt lat="49.62014" lon="-1.24633">
        <ele>5.1</ele>
        <time>2020-06-15T10:42:56Z</time>
      </trkpt>
      <trkpt lat="49.6201" lon="-1.24639">
        <ele>5.1</ele>
        <time>2020-06-15T10:42:57Z</time>
      </trkpt>
      <trkpt lat="49.62006" lon="-1.24644">
        <ele>5.1</ele>
        <time>2020-06-15T10:42:58Z</time>
      </trkpt>
      <trkpt lat="49.62002" lon="-1.24649">
        <ele>5</ele>
        <time>2020-06-15T10:42:59Z</time>
      </trkpt>
      <trkpt lat="49.61998" lon="-1.24653">
        <ele>5</ele>
        <time>2020-06-15T10:43:00Z</time>
      </trkpt>
      <trkpt lat="49.61995" lon="-1.24658">
        <ele>5</ele>
        <time>2020-06-15T10:43:01Z</time>
      </trkpt>
      <trkpt lat="49.6199" lon="-1.24663">
        <ele>5</ele>
        <time>2020-06-15T10:43:02Z</time>
      </trkpt>
      <trkpt lat="49.61986" lon="-1.24668">
        <ele>4.9</ele>
        <time>2020-06-15T10:43:03Z</time>
      </trkpt>
      <trkpt lat="49.61982" lon="-1.24673">
        <ele>4.9</ele>
        <time>2020-06-15T10:43:04Z</time>
      </trkpt>
      <trkpt lat="49.61977" lon="-1.24678">
        <ele>4.8</ele>
        <time>2020-06-15T10:43:05Z</time>
      </trkpt>
      <trkpt lat="49.61973" lon="-1.24683">
        <ele>4.8</ele>
        <time>2020-06-15T10:43:06Z</time>
      </trkpt>
      <trkpt lat="49.61968" lon="-1.24689">
        <ele>4.7</ele>
        <time>2020-06-15T10:43:07Z</time>
      </trkpt>
      <trkpt lat="49.61964" lon="-1.24693">
        <ele>4.7</ele>
        <time>2020-06-15T10:43:08Z</time>
      </trkpt>
      <trkpt lat="49.61959" lon="-1.24697">
        <ele>4.7</ele>
        <time>2020-06-15T10:43:09Z</time>
      </trkpt>
      <trkpt lat="49.61954" lon="-1.24702">
        <ele>4.7</ele>
        <time>2020-06-15T10:43:10Z</time>
      </trkpt>
      <trkpt lat="49.61949" lon="-1.24706">
        <ele>4.7</ele>
        <time>2020-06-15T10:43:11Z</time>
      </trkpt>
      <trkpt lat="49.61944" lon="-1.24711">
        <ele>4.7</ele>
        <time>2020-06-15T10:43:12Z</time>
      </trkpt>
      <trkpt lat="49.61939" lon="-1.24715">
        <ele>4.7</ele>
        <time>2020-06-15T10:43:13Z</time>
      </trkpt>
      <trkpt lat="49.61934" lon="-1.24719">
        <ele>4.7</ele>
        <time>2020-06-15T10:43:14Z</time>
      </trkpt>
      <trkpt lat="49.61929" lon="-1.24722">
        <ele>4.8</ele>
        <time>2020-06-15T10:43:15Z</time>
      </trkpt>
      <trkpt lat="49.61923" lon="-1.24726">
        <ele>4.8</ele>
        <time>2020-06-15T10:43:16Z</time>
      </trkpt>
      <trkpt lat="49.61917" lon="-1.24728">
        <ele>4.9</ele>
        <time>2020-06-15T10:43:17Z</time>
      </trkpt>
      <trkpt lat="49.61912" lon="-1.2473">
        <ele>4.9</ele>
        <time>2020-06-15T10:43:18Z</time>
      </trkpt>
      <trkpt lat="49.61906" lon="-1.24732">
        <ele>4.9</ele>
        <time>2020-06-15T10:43:19Z</time>
      </trkpt>
      <trkpt lat="49.61901" lon="-1.24735">
        <ele>4.9</ele>
        <time>2020-06-15T10:43:20Z</time>
      </trkpt>
      <trkpt lat="49.61895" lon="-1.24735">
        <ele>4.9</ele>
        <time>2020-06-15T10:43:21Z</time>
      </trkpt>
      <trkpt lat="49.61889" lon="-1.24736">
        <ele>4.9</ele>
        <time>2020-06-15T10:43:22Z</time>
      </trkpt>
      <trkpt lat="49.61883" lon="-1.24735">
        <ele>5</ele>
        <time>2020-06-15T10:43:23Z</time>
      </trkpt>
      <trkpt lat="49.61878" lon="-1.24735">
        <ele>5</ele>
        <time>2020-06-15T10:43:24Z</time>
      </trkpt>
      <trkpt lat="49.61872" lon="-1.24735">
        <ele>5</ele>
        <time>2020-06-15T10:43:25Z</time>
      </trkpt>
      <trkpt lat="49.61867" lon="-1.24734">
        <ele>5</ele>
        <time>2020-06-15T10:43:26Z</time>
      </trkpt>
      <trkpt lat="49.61861" lon="-1.24736">
        <ele>5.1</ele>
        <time>2020-06-15T10:43:27Z</time>
      </trkpt>
      <trkpt lat="49.61855" lon="-1.24736">
        <ele>5.1</ele>
        <time>2020-06-15T10:43:28Z</time>
      </trkpt>
      <trkpt lat="49.6185" lon="-1.24736">
        <ele>5.1</ele>
        <time>2020-06-15T10:43:29Z</time>
      </trkpt>
      <trkpt lat="49.61844" lon="-1.24735">
        <ele>5.1</ele>
        <time>2020-06-15T10:43:30Z</time>
      </trkpt>
      <trkpt lat="49.61838" lon="-1.24733">
        <ele>5.1</ele>
        <time>2020-06-15T10:43:31Z</time>
      </trkpt>
      <trkpt lat="49.61832" lon="-1.24733">
        <ele>5</ele>
        <time>2020-06-15T10:43:32Z</time>
      </trkpt>
      <trkpt lat="49.61826" lon="-1.24733">
        <ele>5</ele>
        <time>2020-06-15T10:43:33Z</time>
      </trkpt>
      <trkpt lat="49.6182" lon="-1.24732">
        <ele>5</ele>
        <time>2020-06-15T10:43:34Z</time>
      </trkpt>
      <trkpt lat="49.61814" lon="-1.24732">
        <ele>5</ele>
        <time>2020-06-15T10:43:35Z</time>
      </trkpt>
      <trkpt lat="49.61809" lon="-1.24731">
        <ele>5</ele>
        <time>2020-06-15T10:43:36Z</time>
      </trkpt>
      <trkpt lat="49.61803" lon="-1.2473">
        <ele>5</ele>
        <time>2020-06-15T10:43:37Z</time>
      </trkpt>
      <trkpt lat="49.61798" lon="-1.24729">
        <ele>5</ele>
        <time>2020-06-15T10:43:38Z</time>
      </trkpt>
      <trkpt lat="49.61794" lon="-1.24728">
        <ele>5</ele>
        <time>2020-06-15T10:43:39Z</time>
      </trkpt>
      <trkpt lat="49.61788" lon="-1.24726">
        <ele>5</ele>
        <time>2020-06-15T10:43:40Z</time>
      </trkpt>
      <trkpt lat="49.61782" lon="-1.24726">
        <ele>5</ele>
        <time>2020-06-15T10:43:41Z</time>
      </trkpt>
      <trkpt lat="49.61777" lon="-1.24725">
        <ele>4.9</ele>
        <time>2020-06-15T10:43:42Z</time>
      </trkpt>
      <trkpt lat="49.61771" lon="-1.24724">
        <ele>4.9</ele>
        <time>2020-06-15T10:43:43Z</time>
      </trkpt>
      <trkpt lat="49.61765" lon="-1.24723">
        <ele>4.9</ele>
        <time>2020-06-15T10:43:44Z</time>
      </trkpt>
      <trkpt lat="49.6176" lon="-1.24721">
        <ele>4.9</ele>
        <time>2020-06-15T10:43:45Z</time>
      </trkpt>
      <trkpt lat="49.61754" lon="-1.2472">
        <ele>4.8</ele>
        <time>2020-06-15T10:43:46Z</time>
      </trkpt>
      <trkpt lat="49.61748" lon="-1.2472">
        <ele>4.8</ele>
        <time>2020-06-15T10:43:47Z</time>
      </trkpt>
      <trkpt lat="49.61742" lon="-1.24718">
        <ele>4.9</ele>
        <time>2020-06-15T10:43:48Z</time>
      </trkpt>
      <trkpt lat="49.61735" lon="-1.24719">
        <ele>4.9</ele>
        <time>2020-06-15T10:43:49Z</time>
      </trkpt>
      <trkpt lat="49.61729" lon="-1.24717">
        <ele>4.9</ele>
        <time>2020-06-15T10:43:50Z</time>
      </trkpt>
      <trkpt lat="49.61723" lon="-1.24716">
        <ele>4.8</ele>
        <time>2020-06-15T10:43:51Z</time>
      </trkpt>
      <trkpt lat="49.61716" lon="-1.24714">
        <ele>4.8</ele>
        <time>2020-06-15T10:43:52Z</time>
      </trkpt>
      <trkpt lat="49.6171" lon="-1.24713">
        <ele>4.7</ele>
        <time>2020-06-15T10:43:53Z</time>
      </trkpt>
      <trkpt lat="49.61703" lon="-1.24712">
        <ele>4.7</ele>
        <time>2020-06-15T10:43:54Z</time>
      </trkpt>
      <trkpt lat="49.61697" lon="-1.24711">
        <ele>4.6</ele>
        <time>2020-06-15T10:43:55Z</time>
      </trkpt>
      <trkpt lat="49.61692" lon="-1.2471">
        <ele>4.5</ele>
        <time>2020-06-15T10:43:56Z</time>
      </trkpt>
      <trkpt lat="49.61686" lon="-1.24708">
        <ele>4.5</ele>
        <time>2020-06-15T10:43:57Z</time>
      </trkpt>
      <trkpt lat="49.6168" lon="-1.24707">
        <ele>4.4</ele>
        <time>2020-06-15T10:43:58Z</time>
      </trkpt>
      <trkpt lat="49.61673" lon="-1.24706">
        <ele>4.3</ele>
        <time>2020-06-15T10:43:59Z</time>
      </trkpt>
      <trkpt lat="49.61666" lon="-1.24705">
        <ele>4.2</ele>
        <time>2020-06-15T10:44:00Z</time>
      </trkpt>
      <trkpt lat="49.6166" lon="-1.24705">
        <ele>4.2</ele>
        <time>2020-06-15T10:44:01Z</time>
      </trkpt>
      <trkpt lat="49.61654" lon="-1.24703">
        <ele>4.2</ele>
        <time>2020-06-15T10:44:02Z</time>
      </trkpt>
      <trkpt lat="49.61648" lon="-1.24702">
        <ele>4.1</ele>
        <time>2020-06-15T10:44:03Z</time>
      </trkpt>
      <trkpt lat="49.61642" lon="-1.24701">
        <ele>4.1</ele>
        <time>2020-06-15T10:44:04Z</time>
      </trkpt>
      <trkpt lat="49.61635" lon="-1.247">
        <ele>4.2</ele>
        <time>2020-06-15T10:44:05Z</time>
      </trkpt>
      <trkpt lat="49.61629" lon="-1.247">
        <ele>4.2</ele>
        <time>2020-06-15T10:44:06Z</time>
      </trkpt>
      <trkpt lat="49.61624" lon="-1.24701">
        <ele>4.2</ele>
        <time>2020-06-15T10:44:07Z</time>
      </trkpt>
      <trkpt lat="49.61618" lon="-1.24703">
        <ele>4.2</ele>
        <time>2020-06-15T10:44:08Z</time>
      </trkpt>
      <trkpt lat="49.6161" lon="-1.24706">
        <ele>4.2</ele>
        <time>2020-06-15T10:44:09Z</time>
      </trkpt>
      <trkpt lat="49.61603" lon="-1.24708">
        <ele>4.2</ele>
        <time>2020-06-15T10:44:10Z</time>
      </trkpt>
      <trkpt lat="49.61597" lon="-1.24711">
        <ele>4.2</ele>
        <time>2020-06-15T10:44:11Z</time>
      </trkpt>
      <trkpt lat="49.61591" lon="-1.24713">
        <ele>4.2</ele>
        <time>2020-06-15T10:44:12Z</time>
      </trkpt>
      <trkpt lat="49.61585" lon="-1.24716">
        <ele>4.2</ele>
        <time>2020-06-15T10:44:13Z</time>
      </trkpt>
      <trkpt lat="49.61579" lon="-1.24718">
        <ele>4.2</ele>
        <time>2020-06-15T10:44:14Z</time>
      </trkpt>
      <trkpt lat="49.61573" lon="-1.24721">
        <ele>4.2</ele>
        <time>2020-06-15T10:44:15Z</time>
      </trkpt>
      <trkpt lat="49.61568" lon="-1.24723">
        <ele>4.2</ele>
        <time>2020-06-15T10:44:16Z</time>
      </trkpt>
      <trkpt lat="49.61562" lon="-1.24726">
        <ele>4.2</ele>
        <time>2020-06-15T10:44:17Z</time>
      </trkpt>
      <trkpt lat="49.61556" lon="-1.24729">
        <ele>4.2</ele>
        <time>2020-06-15T10:44:18Z</time>
      </trkpt>
      <trkpt lat="49.61551" lon="-1.24733">
        <ele>4.2</ele>
        <time>2020-06-15T10:44:19Z</time>
      </trkpt>
      <trkpt lat="49.61545" lon="-1.24736">
        <ele>4.2</ele>
        <time>2020-06-15T10:44:20Z</time>
      </trkpt>
      <trkpt lat="49.61539" lon="-1.24738">
        <ele>4.2</ele>
        <time>2020-06-15T10:44:21Z</time>
      </trkpt>
      <trkpt lat="49.61534" lon="-1.24741">
        <ele>4.2</ele>
        <time>2020-06-15T10:44:22Z</time>
      </trkpt>
      <trkpt lat="49.61528" lon="-1.24744">
        <ele>4.3</ele>
        <time>2020-06-15T10:44:23Z</time>
      </trkpt>
      <trkpt lat="49.61523" lon="-1.24747">
        <ele>4.3</ele>
        <time>2020-06-15T10:44:24Z</time>
      </trkpt>
      <trkpt lat="49.61518" lon="-1.2475">
        <ele>4.3</ele>
        <time>2020-06-15T10:44:25Z</time>
      </trkpt>
      <trkpt lat="49.61513" lon="-1.24753">
        <ele>4.3</ele>
        <time>2020-06-15T10:44:26Z</time>
      </trkpt>
      <trkpt lat="49.61508" lon="-1.24756">
        <ele>4.2</ele>
        <time>2020-06-15T10:44:27Z</time>
      </trkpt>
      <trkpt lat="49.61503" lon="-1.24759">
        <ele>4.2</ele>
        <time>2020-06-15T10:44:28Z</time>
      </trkpt>
      <trkpt lat="49.61498" lon="-1.24762">
        <ele>4.1</ele>
        <time>2020-06-15T10:44:29Z</time>
      </trkpt>
      <trkpt lat="49.61493" lon="-1.24764">
        <ele>4.1</ele>
        <time>2020-06-15T10:44:30Z</time>
      </trkpt>
      <trkpt lat="49.61487" lon="-1.24767">
        <ele>4</ele>
        <time>2020-06-15T10:44:31Z</time>
      </trkpt>
      <trkpt lat="49.61482" lon="-1.24769">
        <ele>3.9</ele>
        <time>2020-06-15T10:44:32Z</time>
      </trkpt>
      <trkpt lat="49.61478" lon="-1.24772">
        <ele>3.9</ele>
        <time>2020-06-15T10:44:33Z</time>
      </trkpt>
      <trkpt lat="49.61473" lon="-1.24774">
        <ele>3.8</ele>
        <time>2020-06-15T10:44:34Z</time>
      </trkpt>
      <trkpt lat="49.6147" lon="-1.24775">
        <ele>3.7</ele>
        <time>2020-06-15T10:44:35Z</time>
      </trkpt>
      <trkpt lat="49.61465" lon="-1.24777">
        <ele>3.7</ele>
        <time>2020-06-15T10:44:36Z</time>
      </trkpt>
      <trkpt lat="49.6146" lon="-1.24778">
        <ele>3.6</ele>
        <time>2020-06-15T10:44:37Z</time>
      </trkpt>
      <trkpt lat="49.61454" lon="-1.2478">
        <ele>3.5</ele>
        <time>2020-06-15T10:44:38Z</time>
      </trkpt>
      <trkpt lat="49.61448" lon="-1.24782">
        <ele>3.3</ele>
        <time>2020-06-15T10:44:39Z</time>
      </trkpt>
      <trkpt lat="49.61441" lon="-1.24784">
        <ele>3.2</ele>
        <time>2020-06-15T10:44:40Z</time>
      </trkpt>
      <trkpt lat="49.61437" lon="-1.24787">
        <ele>3.1</ele>
        <time>2020-06-15T10:44:41Z</time>
      </trkpt>
      <trkpt lat="49.61432" lon="-1.24789">
        <ele>3</ele>
        <time>2020-06-15T10:44:42Z</time>
      </trkpt>
      <trkpt lat="49.61427" lon="-1.24793">
        <ele>3</ele>
        <time>2020-06-15T10:44:43Z</time>
      </trkpt>
      <trkpt lat="49.61423" lon="-1.24797">
        <ele>3</ele>
        <time>2020-06-15T10:44:44Z</time>
      </trkpt>
      <trkpt lat="49.61417" lon="-1.24801">
        <ele>2.9</ele>
        <time>2020-06-15T10:44:45Z</time>
      </trkpt>
      <trkpt lat="49.61413" lon="-1.24805">
        <ele>2.9</ele>
        <time>2020-06-15T10:44:46Z</time>
      </trkpt>
      <trkpt lat="49.61409" lon="-1.24808">
        <ele>2.9</ele>
        <time>2020-06-15T10:44:47Z</time>
      </trkpt>
      <trkpt lat="49.61404" lon="-1.24811">
        <ele>2.7</ele>
        <time>2020-06-15T10:44:48Z</time>
      </trkpt>
      <trkpt lat="49.61398" lon="-1.24814">
        <ele>2.6</ele>
        <time>2020-06-15T10:44:49Z</time>
      </trkpt>
      <trkpt lat="49.61391" lon="-1.24816">
        <ele>2.4</ele>
        <time>2020-06-15T10:44:50Z</time>
      </trkpt>
      <trkpt lat="49.61385" lon="-1.24818">
        <ele>2.3</ele>
        <time>2020-06-15T10:44:51Z</time>
      </trkpt>
      <trkpt lat="49.6138" lon="-1.24821">
        <ele>2.2</ele>
        <time>2020-06-15T10:44:52Z</time>
      </trkpt>
      <trkpt lat="49.61374" lon="-1.24824">
        <ele>2.1</ele>
        <time>2020-06-15T10:44:53Z</time>
      </trkpt>
      <trkpt lat="49.61368" lon="-1.24827">
        <ele>2</ele>
        <time>2020-06-15T10:44:54Z</time>
      </trkpt>
      <trkpt lat="49.61362" lon="-1.24828">
        <ele>2</ele>
        <time>2020-06-15T10:44:55Z</time>
      </trkpt>
      <trkpt lat="49.61356" lon="-1.24829">
        <ele>1.9</ele>
        <time>2020-06-15T10:44:56Z</time>
      </trkpt>
      <trkpt lat="49.6135" lon="-1.24832">
        <ele>1.9</ele>
        <time>2020-06-15T10:44:57Z</time>
      </trkpt>
      <trkpt lat="49.61344" lon="-1.24834">
        <ele>1.8</ele>
        <time>2020-06-15T10:44:58Z</time>
      </trkpt>
      <trkpt lat="49.61338" lon="-1.24836">
        <ele>1.8</ele>
        <time>2020-06-15T10:44:59Z</time>
      </trkpt>
      <trkpt lat="49.6133" lon="-1.2484">
        <ele>1.7</ele>
        <time>2020-06-15T10:45:00Z</time>
      </trkpt>
      <trkpt lat="49.61323" lon="-1.24844">
        <ele>1.7</ele>
        <time>2020-06-15T10:45:01Z</time>
      </trkpt>
      <trkpt lat="49.61317" lon="-1.24848">
        <ele>1.6</ele>
        <time>2020-06-15T10:45:02Z</time>
      </trkpt>
      <trkpt lat="49.61311" lon="-1.24851">
        <ele>1.6</ele>
        <time>2020-06-15T10:45:03Z</time>
      </trkpt>
      <trkpt lat="49.61306" lon="-1.24855">
        <ele>1.6</ele>
        <time>2020-06-15T10:45:04Z</time>
      </trkpt>
      <trkpt lat="49.613" lon="-1.24859">
        <ele>1.5</ele>
        <time>2020-06-15T10:45:05Z</time>
      </trkpt>
      <trkpt lat="49.61295" lon="-1.24863">
        <ele>1.5</ele>
        <time>2020-06-15T10:45:06Z</time>
      </trkpt>
      <trkpt lat="49.61288" lon="-1.24868">
        <ele>1.5</ele>
        <time>2020-06-15T10:45:07Z</time>
      </trkpt>
      <trkpt lat="49.61282" lon="-1.24872">
        <ele>1.5</ele>
        <time>2020-06-15T10:45:08Z</time>
      </trkpt>
      <trkpt lat="49.61278" lon="-1.24876">
        <ele>1.5</ele>
        <time>2020-06-15T10:45:09Z</time>
      </trkpt>
      <trkpt lat="49.61273" lon="-1.24881">
        <ele>1.5</ele>
        <time>2020-06-15T10:45:10Z</time>
      </trkpt>
      <trkpt lat="49.61268" lon="-1.24888">
        <ele>1.5</ele>
        <time>2020-06-15T10:45:11Z</time>
      </trkpt>
      <trkpt lat="49.61266" lon="-1.24897">
        <ele>1.5</ele>
        <time>2020-06-15T10:45:12Z</time>
      </trkpt>
      <trkpt lat="49.61265" lon="-1.24908">
        <ele>1.5</ele>
        <time>2020-06-15T10:45:13Z</time>
      </trkpt>
      <trkpt lat="49.61265" lon="-1.24919">
        <ele>1.5</ele>
        <time>2020-06-15T10:45:14Z</time>
      </trkpt>
      <trkpt lat="49.61265" lon="-1.24929">
        <ele>1.5</ele>
        <time>2020-06-15T10:45:15Z</time>
      </trkpt>
      <trkpt lat="49.61266" lon="-1.24939">
        <ele>1.5</ele>
        <time>2020-06-15T10:45:16Z</time>
      </trkpt>
      <trkpt lat="49.61267" lon="-1.24948">
        <ele>1.5</ele>
        <time>2020-06-15T10:45:17Z</time>
      </trkpt>
      <trkpt lat="49.61268" lon="-1.24956">
        <ele>1.5</ele>
        <time>2020-06-15T10:45:18Z</time>
      </trkpt>
      <trkpt lat="49.61268" lon="-1.24966">
        <ele>1.5</ele>
        <time>2020-06-15T10:45:19Z</time>
      </trkpt>
      <trkpt lat="49.61268" lon="-1.24974">
        <ele>1.5</ele>
        <time>2020-06-15T10:45:20Z</time>
      </trkpt>
      <trkpt lat="49.61269" lon="-1.24981">
        <ele>1.5</ele>
        <time>2020-06-15T10:45:21Z</time>
      </trkpt>
      <trkpt lat="49.61268" lon="-1.24989">
        <ele>1.5</ele>
        <time>2020-06-15T10:45:22Z</time>
      </trkpt>
      <trkpt lat="49.61268" lon="-1.24996">
        <ele>1.5</ele>
        <time>2020-06-15T10:45:23Z</time>
      </trkpt>
      <trkpt lat="49.61267" lon="-1.25003">
        <ele>1.5</ele>
        <time>2020-06-15T10:45:24Z</time>
      </trkpt>
      <trkpt lat="49.61266" lon="-1.25011">
        <ele>1.5</ele>
        <time>2020-06-15T10:45:25Z</time>
      </trkpt>
      <trkpt lat="49.61265" lon="-1.25019">
        <ele>1.6</ele>
        <time>2020-06-15T10:45:26Z</time>
      </trkpt>
      <trkpt lat="49.61264" lon="-1.25027">
        <ele>1.6</ele>
        <time>2020-06-15T10:45:27Z</time>
      </trkpt>
      <trkpt lat="49.61262" lon="-1.25036">
        <ele>1.6</ele>
        <time>2020-06-15T10:45:28Z</time>
      </trkpt>
      <trkpt lat="49.61261" lon="-1.25046">
        <ele>1.6</ele>
        <time>2020-06-15T10:45:29Z</time>
      </trkpt>
      <trkpt lat="49.61261" lon="-1.25054">
        <ele>1.6</ele>
        <time>2020-06-15T10:45:30Z</time>
      </trkpt>
      <trkpt lat="49.61261" lon="-1.25062">
        <ele>1.6</ele>
        <time>2020-06-15T10:45:31Z</time>
      </trkpt>
      <trkpt lat="49.61261" lon="-1.25071">
        <ele>1.6</ele>
        <time>2020-06-15T10:45:32Z</time>
      </trkpt>
      <trkpt lat="49.61261" lon="-1.25079">
        <ele>1.6</ele>
        <time>2020-06-15T10:45:33Z</time>
      </trkpt>
      <trkpt lat="49.6126" lon="-1.25087">
        <ele>1.6</ele>
        <time>2020-06-15T10:45:34Z</time>
      </trkpt>
      <trkpt lat="49.6126" lon="-1.25095">
        <ele>1.7</ele>
        <time>2020-06-15T10:45:35Z</time>
      </trkpt>
      <trkpt lat="49.61259" lon="-1.25103">
        <ele>1.7</ele>
        <time>2020-06-15T10:45:36Z</time>
      </trkpt>
      <trkpt lat="49.61258" lon="-1.25111">
        <ele>1.7</ele>
        <time>2020-06-15T10:45:37Z</time>
      </trkpt>
      <trkpt lat="49.61257" lon="-1.25119">
        <ele>1.7</ele>
        <time>2020-06-15T10:45:38Z</time>
      </trkpt>
      <trkpt lat="49.61257" lon="-1.25127">
        <ele>1.7</ele>
        <time>2020-06-15T10:45:39Z</time>
      </trkpt>
      <trkpt lat="49.61257" lon="-1.25135">
        <ele>1.7</ele>
        <time>2020-06-15T10:45:40Z</time>
      </trkpt>
      <trkpt lat="49.61257" lon="-1.25144">
        <ele>1.7</ele>
        <time>2020-06-15T10:45:41Z</time>
      </trkpt>
      <trkpt lat="49.61257" lon="-1.25154">
        <ele>1.7</ele>
        <time>2020-06-15T10:45:42Z</time>
      </trkpt>
      <trkpt lat="49.61257" lon="-1.25162">
        <ele>1.7</ele>
        <time>2020-06-15T10:45:43Z</time>
      </trkpt>
      <trkpt lat="49.61257" lon="-1.25171">
        <ele>1.7</ele>
        <time>2020-06-15T10:45:44Z</time>
      </trkpt>
      <trkpt lat="49.61257" lon="-1.25181">
        <ele>1.7</ele>
        <time>2020-06-15T10:45:45Z</time>
      </trkpt>
      <trkpt lat="49.61256" lon="-1.25191">
        <ele>1.7</ele>
        <time>2020-06-15T10:45:46Z</time>
      </trkpt>
      <trkpt lat="49.61257" lon="-1.252">
        <ele>1.7</ele>
        <time>2020-06-15T10:45:47Z</time>
      </trkpt>
      <trkpt lat="49.61256" lon="-1.25209">
        <ele>1.7</ele>
        <time>2020-06-15T10:45:48Z</time>
      </trkpt>
      <trkpt lat="49.61256" lon="-1.25218">
        <ele>1.7</ele>
        <time>2020-06-15T10:45:49Z</time>
      </trkpt>
      <trkpt lat="49.61256" lon="-1.25227">
        <ele>1.7</ele>
        <time>2020-06-15T10:45:50Z</time>
      </trkpt>
      <trkpt lat="49.61257" lon="-1.25236">
        <ele>1.7</ele>
        <time>2020-06-15T10:45:51Z</time>
      </trkpt>
      <trkpt lat="49.61257" lon="-1.25246">
        <ele>1.8</ele>
        <time>2020-06-15T10:45:52Z</time>
      </trkpt>
      <trkpt lat="49.61257" lon="-1.25255">
        <ele>1.8</ele>
        <time>2020-06-15T10:45:53Z</time>
      </trkpt>
      <trkpt lat="49.61257" lon="-1.25264">
        <ele>1.7</ele>
        <time>2020-06-15T10:45:54Z</time>
      </trkpt>
      <trkpt lat="49.61257" lon="-1.25273">
        <ele>1.7</ele>
        <time>2020-06-15T10:45:55Z</time>
      </trkpt>
      <trkpt lat="49.61258" lon="-1.25281">
        <ele>1.7</ele>
        <time>2020-06-15T10:45:56Z</time>
      </trkpt>
      <trkpt lat="49.61259" lon="-1.2529">
        <ele>1.7</ele>
        <time>2020-06-15T10:45:57Z</time>
      </trkpt>
      <trkpt lat="49.6126" lon="-1.25297">
        <ele>1.7</ele>
        <time>2020-06-15T10:45:58Z</time>
      </trkpt>
      <trkpt lat="49.61261" lon="-1.25305">
        <ele>1.7</ele>
        <time>2020-06-15T10:45:59Z</time>
      </trkpt>
      <trkpt lat="49.61262" lon="-1.25313">
        <ele>1.7</ele>
        <time>2020-06-15T10:46:00Z</time>
      </trkpt>
      <trkpt lat="49.61262" lon="-1.25321">
        <ele>1.7</ele>
        <time>2020-06-15T10:46:01Z</time>
      </trkpt>
      <trkpt lat="49.61263" lon="-1.25329">
        <ele>1.7</ele>
        <time>2020-06-15T10:46:02Z</time>
      </trkpt>
      <trkpt lat="49.61264" lon="-1.25337">
        <ele>1.7</ele>
        <time>2020-06-15T10:46:03Z</time>
      </trkpt>
      <trkpt lat="49.61265" lon="-1.25346">
        <ele>1.7</ele>
        <time>2020-06-15T10:46:04Z</time>
      </trkpt>
      <trkpt lat="49.61266" lon="-1.25355">
        <ele>1.7</ele>
        <time>2020-06-15T10:46:05Z</time>
      </trkpt>
      <trkpt lat="49.61266" lon="-1.25364">
        <ele>1.7</ele>
        <time>2020-06-15T10:46:06Z</time>
      </trkpt>
      <trkpt lat="49.61267" lon="-1.25374">
        <ele>1.7</ele>
        <time>2020-06-15T10:46:07Z</time>
      </trkpt>
      <trkpt lat="49.61268" lon="-1.25383">
        <ele>1.7</ele>
        <time>2020-06-15T10:46:08Z</time>
      </trkpt>
      <trkpt lat="49.61269" lon="-1.25391">
        <ele>1.7</ele>
        <time>2020-06-15T10:46:09Z</time>
      </trkpt>
      <trkpt lat="49.6127" lon="-1.25399">
        <ele>1.7</ele>
        <time>2020-06-15T10:46:10Z</time>
      </trkpt>
      <trkpt lat="49.61272" lon="-1.25408">
        <ele>1.7</ele>
        <time>2020-06-15T10:46:11Z</time>
      </trkpt>
      <trkpt lat="49.61275" lon="-1.25414">
        <ele>1.8</ele>
        <time>2020-06-15T10:46:12Z</time>
      </trkpt>
      <trkpt lat="49.61276" lon="-1.25422">
        <ele>1.8</ele>
        <time>2020-06-15T10:46:13Z</time>
      </trkpt>
      <trkpt lat="49.61277" lon="-1.2543">
        <ele>1.8</ele>
        <time>2020-06-15T10:46:14Z</time>
      </trkpt>
      <trkpt lat="49.61279" lon="-1.25437">
        <ele>1.8</ele>
        <time>2020-06-15T10:46:15Z</time>
      </trkpt>
      <trkpt lat="49.6128" lon="-1.25444">
        <ele>1.8</ele>
        <time>2020-06-15T10:46:16Z</time>
      </trkpt>
      <trkpt lat="49.61282" lon="-1.25453">
        <ele>1.7</ele>
        <time>2020-06-15T10:46:17Z</time>
      </trkpt>
      <trkpt lat="49.61285" lon="-1.25462">
        <ele>1.7</ele>
        <time>2020-06-15T10:46:18Z</time>
      </trkpt>
      <trkpt lat="49.61287" lon="-1.25471">
        <ele>1.7</ele>
        <time>2020-06-15T10:46:19Z</time>
      </trkpt>
      <trkpt lat="49.61289" lon="-1.2548">
        <ele>1.6</ele>
        <time>2020-06-15T10:46:20Z</time>
      </trkpt>
      <trkpt lat="49.61293" lon="-1.25488">
        <ele>1.6</ele>
        <time>2020-06-15T10:46:21Z</time>
      </trkpt>
      <trkpt lat="49.61294" lon="-1.25496">
        <ele>1.6</ele>
        <time>2020-06-15T10:46:22Z</time>
      </trkpt>
      <trkpt lat="49.61297" lon="-1.25504">
        <ele>1.6</ele>
        <time>2020-06-15T10:46:23Z</time>
      </trkpt>
      <trkpt lat="49.61299" lon="-1.25512">
        <ele>1.6</ele>
        <time>2020-06-15T10:46:24Z</time>
      </trkpt>
      <trkpt lat="49.61301" lon="-1.2552">
        <ele>1.6</ele>
        <time>2020-06-15T10:46:25Z</time>
      </trkpt>
      <trkpt lat="49.61302" lon="-1.25529">
        <ele>1.6</ele>
        <time>2020-06-15T10:46:26Z</time>
      </trkpt>
      <trkpt lat="49.61304" lon="-1.25537">
        <ele>1.6</ele>
        <time>2020-06-15T10:46:27Z</time>
      </trkpt>
      <trkpt lat="49.61305" lon="-1.25544">
        <ele>1.7</ele>
        <time>2020-06-15T10:46:28Z</time>
      </trkpt>
      <trkpt lat="49.61307" lon="-1.25552">
        <ele>1.7</ele>
        <time>2020-06-15T10:46:29Z</time>
      </trkpt>
      <trkpt lat="49.61308" lon="-1.25559">
        <ele>1.7</ele>
        <time>2020-06-15T10:46:30Z</time>
      </trkpt>
      <trkpt lat="49.6131" lon="-1.25566">
        <ele>1.8</ele>
        <time>2020-06-15T10:46:31Z</time>
      </trkpt>
      <trkpt lat="49.6131" lon="-1.25573">
        <ele>1.8</ele>
        <time>2020-06-15T10:46:32Z</time>
      </trkpt>
      <trkpt lat="49.61312" lon="-1.25578">
        <ele>1.8</ele>
        <time>2020-06-15T10:46:33Z</time>
      </trkpt>
      <trkpt lat="49.61312" lon="-1.25582">
        <ele>1.8</ele>
        <time>2020-06-15T10:46:34Z</time>
      </trkpt>
      <trkpt lat="49.61313" lon="-1.25586">
        <ele>1.8</ele>
        <time>2020-06-15T10:46:35Z</time>
      </trkpt>
      <trkpt lat="49.61312" lon="-1.25591">
        <ele>1.9</ele>
        <time>2020-06-15T10:46:36Z</time>
      </trkpt>
      <trkpt lat="49.61312" lon="-1.25593">
        <ele>1.9</ele>
        <time>2020-06-15T10:46:37Z</time>
      </trkpt>
      <trkpt lat="49.61309" lon="-1.25596">
        <ele>1.9</ele>
        <time>2020-06-15T10:46:38Z</time>
      </trkpt>
      <trkpt lat="49.61305" lon="-1.25595">
        <ele>1.9</ele>
        <time>2020-06-15T10:46:39Z</time>
      </trkpt>
      <trkpt lat="49.61302" lon="-1.25594">
        <ele>1.9</ele>
        <time>2020-06-15T10:46:40Z</time>
      </trkpt>
      <trkpt lat="49.61298" lon="-1.25595">
        <ele>1.9</ele>
        <time>2020-06-15T10:46:41Z</time>
      </trkpt>
      <trkpt lat="49.61293" lon="-1.25597">
        <ele>2</ele>
        <time>2020-06-15T10:46:42Z</time>
      </trkpt>
      <trkpt lat="49.61288" lon="-1.25599">
        <ele>2</ele>
        <time>2020-06-15T10:46:43Z</time>
      </trkpt>
      <trkpt lat="49.61283" lon="-1.25601">
        <ele>2.1</ele>
        <time>2020-06-15T10:46:44Z</time>
      </trkpt>
      <trkpt lat="49.61279" lon="-1.25601">
        <ele>2.1</ele>
        <time>2020-06-15T10:46:45Z</time>
      </trkpt>
      <trkpt lat="49.61274" lon="-1.25603">
        <ele>2.1</ele>
        <time>2020-06-15T10:46:46Z</time>
      </trkpt>
      <trkpt lat="49.6127" lon="-1.25604">
        <ele>2.2</ele>
        <time>2020-06-15T10:46:47Z</time>
      </trkpt>
      <trkpt lat="49.61265" lon="-1.25605">
        <ele>2.2</ele>
        <time>2020-06-15T10:46:48Z</time>
      </trkpt>
      <trkpt lat="49.61261" lon="-1.25605">
        <ele>2.2</ele>
        <time>2020-06-15T10:46:49Z</time>
      </trkpt>
      <trkpt lat="49.61256" lon="-1.25606">
        <ele>2.3</ele>
        <time>2020-06-15T10:46:50Z</time>
      </trkpt>
      <trkpt lat="49.61251" lon="-1.25607">
        <ele>2.3</ele>
        <time>2020-06-15T10:46:51Z</time>
      </trkpt>
      <trkpt lat="49.61247" lon="-1.25607">
        <ele>2.4</ele>
        <time>2020-06-15T10:46:52Z</time>
      </trkpt>
      <trkpt lat="49.61242" lon="-1.25607">
        <ele>2.5</ele>
        <time>2020-06-15T10:46:53Z</time>
      </trkpt>
      <trkpt lat="49.61238" lon="-1.25608">
        <ele>2.5</ele>
        <time>2020-06-15T10:46:54Z</time>
      </trkpt>
      <trkpt lat="49.61234" lon="-1.25609">
        <ele>2.6</ele>
        <time>2020-06-15T10:46:55Z</time>
      </trkpt>
      <trkpt lat="49.61229" lon="-1.2561">
        <ele>2.6</ele>
        <time>2020-06-15T10:46:56Z</time>
      </trkpt>
      <trkpt lat="49.61224" lon="-1.25612">
        <ele>2.6</ele>
        <time>2020-06-15T10:46:57Z</time>
      </trkpt>
      <trkpt lat="49.61219" lon="-1.25613">
        <ele>2.6</ele>
        <time>2020-06-15T10:46:58Z</time>
      </trkpt>
      <trkpt lat="49.61215" lon="-1.25615">
        <ele>2.5</ele>
        <time>2020-06-15T10:46:59Z</time>
      </trkpt>
      <trkpt lat="49.61209" lon="-1.25617">
        <ele>2.5</ele>
        <time>2020-06-15T10:47:00Z</time>
      </trkpt>
      <trkpt lat="49.61205" lon="-1.25619">
        <ele>2.5</ele>
        <time>2020-06-15T10:47:01Z</time>
      </trkpt>
      <trkpt lat="49.612" lon="-1.25621">
        <ele>2.5</ele>
        <time>2020-06-15T10:47:02Z</time>
      </trkpt>
      <trkpt lat="49.61195" lon="-1.25623">
        <ele>2.4</ele>
        <time>2020-06-15T10:47:03Z</time>
      </trkpt>
      <trkpt lat="49.61191" lon="-1.25624">
        <ele>2.4</ele>
        <time>2020-06-15T10:47:04Z</time>
      </trkpt>
      <trkpt lat="49.61186" lon="-1.25625">
        <ele>2.3</ele>
        <time>2020-06-15T10:47:05Z</time>
      </trkpt>
      <trkpt lat="49.61181" lon="-1.25628">
        <ele>2.3</ele>
        <time>2020-06-15T10:47:06Z</time>
      </trkpt>
      <trkpt lat="49.61177" lon="-1.2563">
        <ele>2.2</ele>
        <time>2020-06-15T10:47:07Z</time>
      </trkpt>
      <trkpt lat="49.61172" lon="-1.25631">
        <ele>2.2</ele>
        <time>2020-06-15T10:47:08Z</time>
      </trkpt>
      <trkpt lat="49.61166" lon="-1.25633">
        <ele>2.1</ele>
        <time>2020-06-15T10:47:09Z</time>
      </trkpt>
      <trkpt lat="49.6116" lon="-1.25635">
        <ele>2.1</ele>
        <time>2020-06-15T10:47:10Z</time>
      </trkpt>
      <trkpt lat="49.61155" lon="-1.25637">
        <ele>2</ele>
        <time>2020-06-15T10:47:11Z</time>
      </trkpt>
      <trkpt lat="49.6115" lon="-1.25638">
        <ele>2</ele>
        <time>2020-06-15T10:47:12Z</time>
      </trkpt>
      <trkpt lat="49.61143" lon="-1.2564">
        <ele>1.9</ele>
        <time>2020-06-15T10:47:13Z</time>
      </trkpt>
      <trkpt lat="49.61137" lon="-1.25644">
        <ele>1.9</ele>
        <time>2020-06-15T10:47:14Z</time>
      </trkpt>
      <trkpt lat="49.6113" lon="-1.25647">
        <ele>1.8</ele>
        <time>2020-06-15T10:47:15Z</time>
      </trkpt>
      <trkpt lat="49.61123" lon="-1.25649">
        <ele>1.8</ele>
        <time>2020-06-15T10:47:16Z</time>
      </trkpt>
      <trkpt lat="49.61117" lon="-1.25651">
        <ele>1.8</ele>
        <time>2020-06-15T10:47:17Z</time>
      </trkpt>
      <trkpt lat="49.61111" lon="-1.25653">
        <ele>1.7</ele>
        <time>2020-06-15T10:47:18Z</time>
      </trkpt>
      <trkpt lat="49.61105" lon="-1.25654">
        <ele>1.7</ele>
        <time>2020-06-15T10:47:19Z</time>
      </trkpt>
      <trkpt lat="49.61098" lon="-1.25657">
        <ele>1.7</ele>
        <time>2020-06-15T10:47:20Z</time>
      </trkpt>
      <trkpt lat="49.61092" lon="-1.25659">
        <ele>1.6</ele>
        <time>2020-06-15T10:47:21Z</time>
      </trkpt>
      <trkpt lat="49.61086" lon="-1.25661">
        <ele>1.6</ele>
        <time>2020-06-15T10:47:22Z</time>
      </trkpt>
      <trkpt lat="49.61079" lon="-1.25663">
        <ele>1.6</ele>
        <time>2020-06-15T10:47:23Z</time>
      </trkpt>
      <trkpt lat="49.61073" lon="-1.25665">
        <ele>1.6</ele>
        <time>2020-06-15T10:47:24Z</time>
      </trkpt>
      <trkpt lat="49.61066" lon="-1.25667">
        <ele>1.7</ele>
        <time>2020-06-15T10:47:25Z</time>
      </trkpt>
      <trkpt lat="49.61059" lon="-1.25669">
        <ele>1.7</ele>
        <time>2020-06-15T10:47:26Z</time>
      </trkpt>
      <trkpt lat="49.61053" lon="-1.25672">
        <ele>1.7</ele>
        <time>2020-06-15T10:47:27Z</time>
      </trkpt>
      <trkpt lat="49.61047" lon="-1.25674">
        <ele>1.7</ele>
        <time>2020-06-15T10:47:28Z</time>
      </trkpt>
      <trkpt lat="49.6104" lon="-1.25677">
        <ele>1.7</ele>
        <time>2020-06-15T10:47:29Z</time>
      </trkpt>
      <trkpt lat="49.61034" lon="-1.25679">
        <ele>1.7</ele>
        <time>2020-06-15T10:47:30Z</time>
      </trkpt>
      <trkpt lat="49.61028" lon="-1.25682">
        <ele>1.7</ele>
        <time>2020-06-15T10:47:31Z</time>
      </trkpt>
      <trkpt lat="49.61021" lon="-1.25684">
        <ele>1.8</ele>
        <time>2020-06-15T10:47:32Z</time>
      </trkpt>
      <trkpt lat="49.61016" lon="-1.25687">
        <ele>1.8</ele>
        <time>2020-06-15T10:47:33Z</time>
      </trkpt>
      <trkpt lat="49.6101" lon="-1.2569">
        <ele>1.8</ele>
        <time>2020-06-15T10:47:34Z</time>
      </trkpt>
      <trkpt lat="49.61004" lon="-1.25693">
        <ele>1.9</ele>
        <time>2020-06-15T10:47:35Z</time>
      </trkpt>
      <trkpt lat="49.60998" lon="-1.25695">
        <ele>1.9</ele>
        <time>2020-06-15T10:47:36Z</time>
      </trkpt>
      <trkpt lat="49.60992" lon="-1.25697">
        <ele>2</ele>
        <time>2020-06-15T10:47:37Z</time>
      </trkpt>
      <trkpt lat="49.60986" lon="-1.257">
        <ele>2</ele>
        <time>2020-06-15T10:47:38Z</time>
      </trkpt>
      <trkpt lat="49.6098" lon="-1.25702">
        <ele>2.1</ele>
        <time>2020-06-15T10:47:39Z</time>
      </trkpt>
      <trkpt lat="49.60975" lon="-1.25704">
        <ele>2.1</ele>
        <time>2020-06-15T10:47:40Z</time>
      </trkpt>
      <trkpt lat="49.60969" lon="-1.25707">
        <ele>2.1</ele>
        <time>2020-06-15T10:47:41Z</time>
      </trkpt>
      <trkpt lat="49.60961" lon="-1.2571">
        <ele>2.2</ele>
        <time>2020-06-15T10:47:42Z</time>
      </trkpt>
      <trkpt lat="49.60955" lon="-1.25712">
        <ele>2.2</ele>
        <time>2020-06-15T10:47:43Z</time>
      </trkpt>
      <trkpt lat="49.60949" lon="-1.25714">
        <ele>2.2</ele>
        <time>2020-06-15T10:47:44Z</time>
      </trkpt>
      <trkpt lat="49.60943" lon="-1.25716">
        <ele>2.3</ele>
        <time>2020-06-15T10:47:45Z</time>
      </trkpt>
      <trkpt lat="49.60936" lon="-1.25718">
        <ele>2.3</ele>
        <time>2020-06-15T10:47:46Z</time>
      </trkpt>
      <trkpt lat="49.6093" lon="-1.25721">
        <ele>2.4</ele>
        <time>2020-06-15T10:47:47Z</time>
      </trkpt>
      <trkpt lat="49.60924" lon="-1.25723">
        <ele>2.4</ele>
        <time>2020-06-15T10:47:48Z</time>
      </trkpt>
      <trkpt lat="49.60918" lon="-1.25725">
        <ele>2.4</ele>
        <time>2020-06-15T10:47:49Z</time>
      </trkpt>
      <trkpt lat="49.60912" lon="-1.25728">
        <ele>2.5</ele>
        <time>2020-06-15T10:47:50Z</time>
      </trkpt>
      <trkpt lat="49.60906" lon="-1.2573">
        <ele>2.6</ele>
        <time>2020-06-15T10:47:51Z</time>
      </trkpt>
      <trkpt lat="49.60899" lon="-1.25732">
        <ele>2.8</ele>
        <time>2020-06-15T10:47:52Z</time>
      </trkpt>
      <trkpt lat="49.60893" lon="-1.25734">
        <ele>2.8</ele>
        <time>2020-06-15T10:47:53Z</time>
      </trkpt>
      <trkpt lat="49.60887" lon="-1.25737">
        <ele>2.8</ele>
        <time>2020-06-15T10:47:54Z</time>
      </trkpt>
      <trkpt lat="49.60882" lon="-1.25739">
        <ele>2.8</ele>
        <time>2020-06-15T10:47:55Z</time>
      </trkpt>
      <trkpt lat="49.60876" lon="-1.25742">
        <ele>2.8</ele>
        <time>2020-06-15T10:47:56Z</time>
      </trkpt>
      <trkpt lat="49.6087" lon="-1.25744">
        <ele>2.8</ele>
        <time>2020-06-15T10:47:57Z</time>
      </trkpt>
      <trkpt lat="49.60864" lon="-1.25747">
        <ele>2.8</ele>
        <time>2020-06-15T10:47:58Z</time>
      </trkpt>
      <trkpt lat="49.60858" lon="-1.2575">
        <ele>2.8</ele>
        <time>2020-06-15T10:47:59Z</time>
      </trkpt>
      <trkpt lat="49.60853" lon="-1.25752">
        <ele>2.8</ele>
        <time>2020-06-15T10:48:00Z</time>
      </trkpt>
      <trkpt lat="49.60847" lon="-1.25755">
        <ele>2.8</ele>
        <time>2020-06-15T10:48:01Z</time>
      </trkpt>
      <trkpt lat="49.60841" lon="-1.25757">
        <ele>2.8</ele>
        <time>2020-06-15T10:48:02Z</time>
      </trkpt>
      <trkpt lat="49.60835" lon="-1.2576">
        <ele>2.8</ele>
        <time>2020-06-15T10:48:03Z</time>
      </trkpt>
      <trkpt lat="49.60829" lon="-1.25763">
        <ele>2.9</ele>
        <time>2020-06-15T10:48:04Z</time>
      </trkpt>
      <trkpt lat="49.60822" lon="-1.25765">
        <ele>2.9</ele>
        <time>2020-06-15T10:48:05Z</time>
      </trkpt>
      <trkpt lat="49.60816" lon="-1.25768">
        <ele>2.9</ele>
        <time>2020-06-15T10:48:06Z</time>
      </trkpt>
      <trkpt lat="49.60811" lon="-1.2577">
        <ele>2.9</ele>
        <time>2020-06-15T10:48:07Z</time>
      </trkpt>
      <trkpt lat="49.60804" lon="-1.25773">
        <ele>2.9</ele>
        <time>2020-06-15T10:48:08Z</time>
      </trkpt>
      <trkpt lat="49.60798" lon="-1.25776">
        <ele>2.9</ele>
        <time>2020-06-15T10:48:09Z</time>
      </trkpt>
      <trkpt lat="49.60792" lon="-1.25777">
        <ele>2.8</ele>
        <time>2020-06-15T10:48:10Z</time>
      </trkpt>
      <trkpt lat="49.60785" lon="-1.2578">
        <ele>2.8</ele>
        <time>2020-06-15T10:48:11Z</time>
      </trkpt>
      <trkpt lat="49.60779" lon="-1.25783">
        <ele>2.7</ele>
        <time>2020-06-15T10:48:12Z</time>
      </trkpt>
      <trkpt lat="49.60772" lon="-1.25785">
        <ele>2.7</ele>
        <time>2020-06-15T10:48:13Z</time>
      </trkpt>
      <trkpt lat="49.60765" lon="-1.25788">
        <ele>2.6</ele>
        <time>2020-06-15T10:48:14Z</time>
      </trkpt>
      <trkpt lat="49.60759" lon="-1.2579">
        <ele>2.6</ele>
        <time>2020-06-15T10:48:15Z</time>
      </trkpt>
      <trkpt lat="49.60752" lon="-1.25793">
        <ele>2.5</ele>
        <time>2020-06-15T10:48:16Z</time>
      </trkpt>
      <trkpt lat="49.60746" lon="-1.25796">
        <ele>2.4</ele>
        <time>2020-06-15T10:48:17Z</time>
      </trkpt>
      <trkpt lat="49.60739" lon="-1.25798">
        <ele>2.4</ele>
        <time>2020-06-15T10:48:18Z</time>
      </trkpt>
      <trkpt lat="49.60733" lon="-1.25801">
        <ele>2.3</ele>
        <time>2020-06-15T10:48:19Z</time>
      </trkpt>
      <trkpt lat="49.60725" lon="-1.25803">
        <ele>2.3</ele>
        <time>2020-06-15T10:48:20Z</time>
      </trkpt>
      <trkpt lat="49.60719" lon="-1.25806">
        <ele>2.2</ele>
        <time>2020-06-15T10:48:21Z</time>
      </trkpt>
      <trkpt lat="49.60712" lon="-1.25808">
        <ele>2.1</ele>
        <time>2020-06-15T10:48:22Z</time>
      </trkpt>
      <trkpt lat="49.60706" lon="-1.2581">
        <ele>2.1</ele>
        <time>2020-06-15T10:48:23Z</time>
      </trkpt>
      <trkpt lat="49.60699" lon="-1.25813">
        <ele>2</ele>
        <time>2020-06-15T10:48:24Z</time>
      </trkpt>
      <trkpt lat="49.60692" lon="-1.25816">
        <ele>1.9</ele>
        <time>2020-06-15T10:48:25Z</time>
      </trkpt>
      <trkpt lat="49.60685" lon="-1.25819">
        <ele>1.9</ele>
        <time>2020-06-15T10:48:26Z</time>
      </trkpt>
      <trkpt lat="49.60678" lon="-1.25822">
        <ele>1.8</ele>
        <time>2020-06-15T10:48:27Z</time>
      </trkpt>
      <trkpt lat="49.60671" lon="-1.25824">
        <ele>1.8</ele>
        <time>2020-06-15T10:48:28Z</time>
      </trkpt>
      <trkpt lat="49.60664" lon="-1.25827">
        <ele>1.7</ele>
        <time>2020-06-15T10:48:29Z</time>
      </trkpt>
      <trkpt lat="49.60658" lon="-1.2583">
        <ele>1.6</ele>
        <time>2020-06-15T10:48:30Z</time>
      </trkpt>
      <trkpt lat="49.60651" lon="-1.25832">
        <ele>1.6</ele>
        <time>2020-06-15T10:48:31Z</time>
      </trkpt>
      <trkpt lat="49.60643" lon="-1.25834">
        <ele>1.5</ele>
        <time>2020-06-15T10:48:32Z</time>
      </trkpt>
      <trkpt lat="49.60637" lon="-1.25836">
        <ele>1.4</ele>
        <time>2020-06-15T10:48:33Z</time>
      </trkpt>
      <trkpt lat="49.60629" lon="-1.25838">
        <ele>1.3</ele>
        <time>2020-06-15T10:48:34Z</time>
      </trkpt>
      <trkpt lat="49.60623" lon="-1.25841">
        <ele>1.2</ele>
        <time>2020-06-15T10:48:35Z</time>
      </trkpt>
      <trkpt lat="49.60616" lon="-1.25843">
        <ele>1.2</ele>
        <time>2020-06-15T10:48:36Z</time>
      </trkpt>
      <trkpt lat="49.6061" lon="-1.25845">
        <ele>1.2</ele>
        <time>2020-06-15T10:48:37Z</time>
      </trkpt>
      <trkpt lat="49.60604" lon="-1.25847">
        <ele>1.1</ele>
        <time>2020-06-15T10:48:38Z</time>
      </trkpt>
      <trkpt lat="49.60597" lon="-1.25849">
        <ele>1.1</ele>
        <time>2020-06-15T10:48:39Z</time>
      </trkpt>
      <trkpt lat="49.6059" lon="-1.25852">
        <ele>1.1</ele>
        <time>2020-06-15T10:48:40Z</time>
      </trkpt>
      <trkpt lat="49.60583" lon="-1.25856">
        <ele>1.1</ele>
        <time>2020-06-15T10:48:41Z</time>
      </trkpt>
      <trkpt lat="49.60576" lon="-1.25858">
        <ele>1.1</ele>
        <time>2020-06-15T10:48:42Z</time>
      </trkpt>
      <trkpt lat="49.6057" lon="-1.2586">
        <ele>1.1</ele>
        <time>2020-06-15T10:48:43Z</time>
      </trkpt>
      <trkpt lat="49.60563" lon="-1.25863">
        <ele>1.1</ele>
        <time>2020-06-15T10:48:44Z</time>
      </trkpt>
      <trkpt lat="49.60557" lon="-1.25865">
        <ele>1.1</ele>
        <time>2020-06-15T10:48:45Z</time>
      </trkpt>
      <trkpt lat="49.6055" lon="-1.25868">
        <ele>1.1</ele>
        <time>2020-06-15T10:48:46Z</time>
      </trkpt>
      <trkpt lat="49.60543" lon="-1.2587">
        <ele>1.1</ele>
        <time>2020-06-15T10:48:47Z</time>
      </trkpt>
      <trkpt lat="49.60536" lon="-1.25873">
        <ele>1.1</ele>
        <time>2020-06-15T10:48:48Z</time>
      </trkpt>
      <trkpt lat="49.6053" lon="-1.25876">
        <ele>1.1</ele>
        <time>2020-06-15T10:48:49Z</time>
      </trkpt>
      <trkpt lat="49.60523" lon="-1.25878">
        <ele>1.1</ele>
        <time>2020-06-15T10:48:50Z</time>
      </trkpt>
      <trkpt lat="49.60516" lon="-1.25881">
        <ele>1</ele>
        <time>2020-06-15T10:48:51Z</time>
      </trkpt>
      <trkpt lat="49.60509" lon="-1.25885">
        <ele>1</ele>
        <time>2020-06-15T10:48:52Z</time>
      </trkpt>
      <trkpt lat="49.60503" lon="-1.25888">
        <ele>1</ele>
        <time>2020-06-15T10:48:53Z</time>
      </trkpt>
      <trkpt lat="49.60496" lon="-1.25891">
        <ele>1</ele>
        <time>2020-06-15T10:48:54Z</time>
      </trkpt>
      <trkpt lat="49.6049" lon="-1.25894">
        <ele>1</ele>
        <time>2020-06-15T10:48:55Z</time>
      </trkpt>
      <trkpt lat="49.60483" lon="-1.25897">
        <ele>1.1</ele>
        <time>2020-06-15T10:48:56Z</time>
      </trkpt>
      <trkpt lat="49.60476" lon="-1.25899">
        <ele>1.1</ele>
        <time>2020-06-15T10:48:57Z</time>
      </trkpt>
      <trkpt lat="49.60469" lon="-1.25902">
        <ele>1.1</ele>
        <time>2020-06-15T10:48:58Z</time>
      </trkpt>
      <trkpt lat="49.60463" lon="-1.25905">
        <ele>1.1</ele>
        <time>2020-06-15T10:48:59Z</time>
      </trkpt>
      <trkpt lat="49.60457" lon="-1.25908">
        <ele>1.1</ele>
        <time>2020-06-15T10:49:00Z</time>
      </trkpt>
      <trkpt lat="49.6045" lon="-1.2591">
        <ele>1.1</ele>
        <time>2020-06-15T10:49:01Z</time>
      </trkpt>
      <trkpt lat="49.60443" lon="-1.25913">
        <ele>1.1</ele>
        <time>2020-06-15T10:49:02Z</time>
      </trkpt>
      <trkpt lat="49.60436" lon="-1.25918">
        <ele>1.1</ele>
        <time>2020-06-15T10:49:03Z</time>
      </trkpt>
      <trkpt lat="49.60429" lon="-1.25922">
        <ele>1.1</ele>
        <time>2020-06-15T10:49:04Z</time>
      </trkpt>
      <trkpt lat="49.60423" lon="-1.25926">
        <ele>1.1</ele>
        <time>2020-06-15T10:49:05Z</time>
      </trkpt>
      <trkpt lat="49.60416" lon="-1.25929">
        <ele>1.1</ele>
        <time>2020-06-15T10:49:06Z</time>
      </trkpt>
      <trkpt lat="49.60409" lon="-1.25933">
        <ele>1.1</ele>
        <time>2020-06-15T10:49:07Z</time>
      </trkpt>
      <trkpt lat="49.60403" lon="-1.25937">
        <ele>1.1</ele>
        <time>2020-06-15T10:49:08Z</time>
      </trkpt>
      <trkpt lat="49.60396" lon="-1.25942">
        <ele>1.2</ele>
        <time>2020-06-15T10:49:09Z</time>
      </trkpt>
      <trkpt lat="49.6039" lon="-1.25946">
        <ele>1.2</ele>
        <time>2020-06-15T10:49:10Z</time>
      </trkpt>
      <trkpt lat="49.60383" lon="-1.25951">
        <ele>1.2</ele>
        <time>2020-06-15T10:49:11Z</time>
      </trkpt>
      <trkpt lat="49.60376" lon="-1.25956">
        <ele>1.2</ele>
        <time>2020-06-15T10:49:12Z</time>
      </trkpt>
      <trkpt lat="49.6037" lon="-1.2596">
        <ele>1.3</ele>
        <time>2020-06-15T10:49:13Z</time>
      </trkpt>
      <trkpt lat="49.60363" lon="-1.25964">
        <ele>1.3</ele>
        <time>2020-06-15T10:49:14Z</time>
      </trkpt>
      <trkpt lat="49.60356" lon="-1.25968">
        <ele>1.3</ele>
        <time>2020-06-15T10:49:15Z</time>
      </trkpt>
      <trkpt lat="49.6035" lon="-1.25972">
        <ele>1.3</ele>
        <time>2020-06-15T10:49:16Z</time>
      </trkpt>
      <trkpt lat="49.60344" lon="-1.25976">
        <ele>1.3</ele>
        <time>2020-06-15T10:49:17Z</time>
      </trkpt>
      <trkpt lat="49.60337" lon="-1.25981">
        <ele>1.3</ele>
        <time>2020-06-15T10:49:18Z</time>
      </trkpt>
      <trkpt lat="49.60331" lon="-1.25985">
        <ele>1.3</ele>
        <time>2020-06-15T10:49:19Z</time>
      </trkpt>
      <trkpt lat="49.60324" lon="-1.25989">
        <ele>1.3</ele>
        <time>2020-06-15T10:49:20Z</time>
      </trkpt>
      <trkpt lat="49.60318" lon="-1.25993">
        <ele>1.3</ele>
        <time>2020-06-15T10:49:21Z</time>
      </trkpt>
      <trkpt lat="49.60311" lon="-1.25997">
        <ele>1.3</ele>
        <time>2020-06-15T10:49:22Z</time>
      </trkpt>
      <trkpt lat="49.60305" lon="-1.26002">
        <ele>1.3</ele>
        <time>2020-06-15T10:49:23Z</time>
      </trkpt>
      <trkpt lat="49.60298" lon="-1.26006">
        <ele>1.3</ele>
        <time>2020-06-15T10:49:24Z</time>
      </trkpt>
      <trkpt lat="49.60291" lon="-1.2601">
        <ele>1.3</ele>
        <time>2020-06-15T10:49:25Z</time>
      </trkpt>
      <trkpt lat="49.60285" lon="-1.26015">
        <ele>1.3</ele>
        <time>2020-06-15T10:49:26Z</time>
      </trkpt>
      <trkpt lat="49.60278" lon="-1.2602">
        <ele>1.3</ele>
        <time>2020-06-15T10:49:27Z</time>
      </trkpt>
      <trkpt lat="49.60272" lon="-1.26025">
        <ele>1.4</ele>
        <time>2020-06-15T10:49:28Z</time>
      </trkpt>
      <trkpt lat="49.60266" lon="-1.26029">
        <ele>1.4</ele>
        <time>2020-06-15T10:49:29Z</time>
      </trkpt>
      <trkpt lat="49.6026" lon="-1.26034">
        <ele>1.4</ele>
        <time>2020-06-15T10:49:30Z</time>
      </trkpt>
      <trkpt lat="49.60254" lon="-1.26039">
        <ele>1.4</ele>
        <time>2020-06-15T10:49:31Z</time>
      </trkpt>
      <trkpt lat="49.60247" lon="-1.26043">
        <ele>1.4</ele>
        <time>2020-06-15T10:49:32Z</time>
      </trkpt>
      <trkpt lat="49.60241" lon="-1.26047">
        <ele>1.4</ele>
        <time>2020-06-15T10:49:33Z</time>
      </trkpt>
      <trkpt lat="49.60234" lon="-1.26051">
        <ele>1.4</ele>
        <time>2020-06-15T10:49:34Z</time>
      </trkpt>
      <trkpt lat="49.60226" lon="-1.26056">
        <ele>1.4</ele>
        <time>2020-06-15T10:49:35Z</time>
      </trkpt>
      <trkpt lat="49.60219" lon="-1.26061">
        <ele>1.4</ele>
        <time>2020-06-15T10:49:36Z</time>
      </trkpt>
      <trkpt lat="49.60212" lon="-1.26065">
        <ele>1.3</ele>
        <time>2020-06-15T10:49:37Z</time>
      </trkpt>
      <trkpt lat="49.60205" lon="-1.26069">
        <ele>1.3</ele>
        <time>2020-06-15T10:49:38Z</time>
      </trkpt>
      <trkpt lat="49.60198" lon="-1.26073">
        <ele>1.3</ele>
        <time>2020-06-15T10:49:39Z</time>
      </trkpt>
      <trkpt lat="49.60191" lon="-1.26078">
        <ele>1.3</ele>
        <time>2020-06-15T10:49:40Z</time>
      </trkpt>
      <trkpt lat="49.60184" lon="-1.26082">
        <ele>1.3</ele>
        <time>2020-06-15T10:49:41Z</time>
      </trkpt>
      <trkpt lat="49.60177" lon="-1.26086">
        <ele>1.3</ele>
        <time>2020-06-15T10:49:42Z</time>
      </trkpt>
      <trkpt lat="49.6017" lon="-1.26091">
        <ele>1.3</ele>
        <time>2020-06-15T10:49:43Z</time>
      </trkpt>
      <trkpt lat="49.60163" lon="-1.26096">
        <ele>1.2</ele>
        <time>2020-06-15T10:49:44Z</time>
      </trkpt>
      <trkpt lat="49.60156" lon="-1.261">
        <ele>1.2</ele>
        <time>2020-06-15T10:49:45Z</time>
      </trkpt>
      <trkpt lat="49.60149" lon="-1.26106">
        <ele>1.2</ele>
        <time>2020-06-15T10:49:46Z</time>
      </trkpt>
      <trkpt lat="49.60143" lon="-1.26111">
        <ele>1.1</ele>
        <time>2020-06-15T10:49:47Z</time>
      </trkpt>
      <trkpt lat="49.60136" lon="-1.26115">
        <ele>1.1</ele>
        <time>2020-06-15T10:49:48Z</time>
      </trkpt>
      <trkpt lat="49.6013" lon="-1.2612">
        <ele>1.1</ele>
        <time>2020-06-15T10:49:49Z</time>
      </trkpt>
      <trkpt lat="49.60123" lon="-1.26124">
        <ele>1.1</ele>
        <time>2020-06-15T10:49:50Z</time>
      </trkpt>
      <trkpt lat="49.60118" lon="-1.26128">
        <ele>1.1</ele>
        <time>2020-06-15T10:49:51Z</time>
      </trkpt>
      <trkpt lat="49.60112" lon="-1.26132">
        <ele>1.1</ele>
        <time>2020-06-15T10:49:52Z</time>
      </trkpt>
      <trkpt lat="49.60106" lon="-1.26137">
        <ele>1.1</ele>
        <time>2020-06-15T10:49:53Z</time>
      </trkpt>
      <trkpt lat="49.60099" lon="-1.26142">
        <ele>1.1</ele>
        <time>2020-06-15T10:49:54Z</time>
      </trkpt>
      <trkpt lat="49.60092" lon="-1.26147">
        <ele>1.1</ele>
        <time>2020-06-15T10:49:55Z</time>
      </trkpt>
      <trkpt lat="49.60085" lon="-1.26152">
        <ele>1.1</ele>
        <time>2020-06-15T10:49:56Z</time>
      </trkpt>
      <trkpt lat="49.60078" lon="-1.26157">
        <ele>1.1</ele>
        <time>2020-06-15T10:49:57Z</time>
      </trkpt>
      <trkpt lat="49.60072" lon="-1.26162">
        <ele>1.1</ele>
        <time>2020-06-15T10:49:58Z</time>
      </trkpt>
      <trkpt lat="49.60065" lon="-1.26167">
        <ele>1.1</ele>
        <time>2020-06-15T10:49:59Z</time>
      </trkpt>
      <trkpt lat="49.60059" lon="-1.26173">
        <ele>1.1</ele>
        <time>2020-06-15T10:50:00Z</time>
      </trkpt>
      <trkpt lat="49.60052" lon="-1.26179">
        <ele>1.1</ele>
        <time>2020-06-15T10:50:01Z</time>
      </trkpt>
      <trkpt lat="49.60046" lon="-1.26185">
        <ele>1.1</ele>
        <time>2020-06-15T10:50:02Z</time>
      </trkpt>
      <trkpt lat="49.60039" lon="-1.26192">
        <ele>1.1</ele>
        <time>2020-06-15T10:50:03Z</time>
      </trkpt>
      <trkpt lat="49.60032" lon="-1.26197">
        <ele>1.1</ele>
        <time>2020-06-15T10:50:04Z</time>
      </trkpt>
      <trkpt lat="49.60025" lon="-1.26202">
        <ele>1.1</ele>
        <time>2020-06-15T10:50:05Z</time>
      </trkpt>
      <trkpt lat="49.60019" lon="-1.26207">
        <ele>1.1</ele>
        <time>2020-06-15T10:50:06Z</time>
      </trkpt>
      <trkpt lat="49.60012" lon="-1.26212">
        <ele>1.1</ele>
        <time>2020-06-15T10:50:07Z</time>
      </trkpt>
      <trkpt lat="49.60006" lon="-1.26218">
        <ele>1.1</ele>
        <time>2020-06-15T10:50:08Z</time>
      </trkpt>
      <trkpt lat="49.6" lon="-1.26224">
        <ele>1.1</ele>
        <time>2020-06-15T10:50:09Z</time>
      </trkpt>
      <trkpt lat="49.59994" lon="-1.26229">
        <ele>1.1</ele>
        <time>2020-06-15T10:50:10Z</time>
      </trkpt>
      <trkpt lat="49.59987" lon="-1.26235">
        <ele>1.1</ele>
        <time>2020-06-15T10:50:11Z</time>
      </trkpt>
      <trkpt lat="49.59981" lon="-1.26241">
        <ele>1.1</ele>
        <time>2020-06-15T10:50:12Z</time>
      </trkpt>
      <trkpt lat="49.59975" lon="-1.26247">
        <ele>1</ele>
        <time>2020-06-15T10:50:13Z</time>
      </trkpt>
      <trkpt lat="49.59968" lon="-1.26251">
        <ele>1</ele>
        <time>2020-06-15T10:50:14Z</time>
      </trkpt>
      <trkpt lat="49.59962" lon="-1.26258">
        <ele>1</ele>
        <time>2020-06-15T10:50:15Z</time>
      </trkpt>
      <trkpt lat="49.59955" lon="-1.26264">
        <ele>1</ele>
        <time>2020-06-15T10:50:16Z</time>
      </trkpt>
      <trkpt lat="49.59948" lon="-1.2627">
        <ele>1.1</ele>
        <time>2020-06-15T10:50:17Z</time>
      </trkpt>
      <trkpt lat="49.59941" lon="-1.26275">
        <ele>1.1</ele>
        <time>2020-06-15T10:50:18Z</time>
      </trkpt>
      <trkpt lat="49.59935" lon="-1.2628">
        <ele>1.1</ele>
        <time>2020-06-15T10:50:19Z</time>
      </trkpt>
      <trkpt lat="49.59929" lon="-1.26284">
        <ele>1.1</ele>
        <time>2020-06-15T10:50:20Z</time>
      </trkpt>
      <trkpt lat="49.59922" lon="-1.26289">
        <ele>1.1</ele>
        <time>2020-06-15T10:50:21Z</time>
      </trkpt>
      <trkpt lat="49.59915" lon="-1.26294">
        <ele>1</ele>
        <time>2020-06-15T10:50:22Z</time>
      </trkpt>
      <trkpt lat="49.59908" lon="-1.26299">
        <ele>1</ele>
        <time>2020-06-15T10:50:23Z</time>
      </trkpt>
      <trkpt lat="49.59901" lon="-1.26304">
        <ele>1</ele>
        <time>2020-06-15T10:50:24Z</time>
      </trkpt>
      <trkpt lat="49.59894" lon="-1.26309">
        <ele>1</ele>
        <time>2020-06-15T10:50:25Z</time>
      </trkpt>
      <trkpt lat="49.59887" lon="-1.26313">
        <ele>1.1</ele>
        <time>2020-06-15T10:50:26Z</time>
      </trkpt>
      <trkpt lat="49.5988" lon="-1.26317">
        <ele>1.1</ele>
        <time>2020-06-15T10:50:27Z</time>
      </trkpt>
      <trkpt lat="49.59873" lon="-1.26321">
        <ele>1</ele>
        <time>2020-06-15T10:50:28Z</time>
      </trkpt>
      <trkpt lat="49.59866" lon="-1.26325">
        <ele>0.9</ele>
        <time>2020-06-15T10:50:29Z</time>
      </trkpt>
      <trkpt lat="49.5986" lon="-1.26328">
        <ele>0.9</ele>
        <time>2020-06-15T10:50:30Z</time>
      </trkpt>
      <trkpt lat="49.59854" lon="-1.26332">
        <ele>0.9</ele>
        <time>2020-06-15T10:50:31Z</time>
      </trkpt>
      <trkpt lat="49.59848" lon="-1.26336">
        <ele>0.8</ele>
        <time>2020-06-15T10:50:32Z</time>
      </trkpt>
      <trkpt lat="49.59842" lon="-1.2634">
        <ele>0.9</ele>
        <time>2020-06-15T10:50:33Z</time>
      </trkpt>
      <trkpt lat="49.59836" lon="-1.26343">
        <ele>0.9</ele>
        <time>2020-06-15T10:50:34Z</time>
      </trkpt>
      <trkpt lat="49.59831" lon="-1.26347">
        <ele>0.9</ele>
        <time>2020-06-15T10:50:35Z</time>
      </trkpt>
      <trkpt lat="49.59825" lon="-1.26351">
        <ele>0.9</ele>
        <time>2020-06-15T10:50:36Z</time>
      </trkpt>
      <trkpt lat="49.5982" lon="-1.26354">
        <ele>0.9</ele>
        <time>2020-06-15T10:50:37Z</time>
      </trkpt>
      <trkpt lat="49.59816" lon="-1.26357">
        <ele>0.9</ele>
        <time>2020-06-15T10:50:38Z</time>
      </trkpt>
      <trkpt lat="49.5981" lon="-1.2636">
        <ele>0.9</ele>
        <time>2020-06-15T10:50:39Z</time>
      </trkpt>
      <trkpt lat="49.59805" lon="-1.26363">
        <ele>0.9</ele>
        <time>2020-06-15T10:50:40Z</time>
      </trkpt>
      <trkpt lat="49.598" lon="-1.26365">
        <ele>0.9</ele>
        <time>2020-06-15T10:50:41Z</time>
      </trkpt>
      <trkpt lat="49.59794" lon="-1.26368">
        <ele>0.9</ele>
        <time>2020-06-15T10:50:42Z</time>
      </trkpt>
      <trkpt lat="49.59788" lon="-1.26371">
        <ele>0.9</ele>
        <time>2020-06-15T10:50:43Z</time>
      </trkpt>
      <trkpt lat="49.59782" lon="-1.26374">
        <ele>0.9</ele>
        <time>2020-06-15T10:50:44Z</time>
      </trkpt>
      <trkpt lat="49.59776" lon="-1.26378">
        <ele>0.9</ele>
        <time>2020-06-15T10:50:45Z</time>
      </trkpt>
      <trkpt lat="49.59771" lon="-1.26382">
        <ele>0.9</ele>
        <time>2020-06-15T10:50:46Z</time>
      </trkpt>
      <trkpt lat="49.59765" lon="-1.26386">
        <ele>0.9</ele>
        <time>2020-06-15T10:50:47Z</time>
      </trkpt>
      <trkpt lat="49.5976" lon="-1.2639">
        <ele>0.9</ele>
        <time>2020-06-15T10:50:48Z</time>
      </trkpt>
      <trkpt lat="49.59754" lon="-1.26394">
        <ele>0.9</ele>
        <time>2020-06-15T10:50:49Z</time>
      </trkpt>
      <trkpt lat="49.59749" lon="-1.26397">
        <ele>0.9</ele>
        <time>2020-06-15T10:50:50Z</time>
      </trkpt>
      <trkpt lat="49.59743" lon="-1.264">
        <ele>1</ele>
        <time>2020-06-15T10:50:51Z</time>
      </trkpt>
      <trkpt lat="49.59738" lon="-1.26404">
        <ele>1</ele>
        <time>2020-06-15T10:50:52Z</time>
      </trkpt>
      <trkpt lat="49.59733" lon="-1.26407">
        <ele>0.9</ele>
        <time>2020-06-15T10:50:53Z</time>
      </trkpt>
      <trkpt lat="49.59727" lon="-1.26411">
        <ele>0.9</ele>
        <time>2020-06-15T10:50:54Z</time>
      </trkpt>
      <trkpt lat="49.59723" lon="-1.26414">
        <ele>0.9</ele>
        <time>2020-06-15T10:50:55Z</time>
      </trkpt>
      <trkpt lat="49.59718" lon="-1.26417">
        <ele>0.9</ele>
        <time>2020-06-15T10:50:56Z</time>
      </trkpt>
      <trkpt lat="49.59713" lon="-1.26421">
        <ele>0.9</ele>
        <time>2020-06-15T10:50:57Z</time>
      </trkpt>
      <trkpt lat="49.59708" lon="-1.26424">
        <ele>0.8</ele>
        <time>2020-06-15T10:50:58Z</time>
      </trkpt>
      <trkpt lat="49.59703" lon="-1.26428">
        <ele>0.8</ele>
        <time>2020-06-15T10:50:59Z</time>
      </trkpt>
      <trkpt lat="49.59698" lon="-1.26431">
        <ele>0.8</ele>
        <time>2020-06-15T10:51:00Z</time>
      </trkpt>
      <trkpt lat="49.59694" lon="-1.26434">
        <ele>0.8</ele>
        <time>2020-06-15T10:51:01Z</time>
      </trkpt>
      <trkpt lat="49.5969" lon="-1.26436">
        <ele>0.8</ele>
        <time>2020-06-15T10:51:02Z</time>
      </trkpt>
      <trkpt lat="49.59687" lon="-1.26439">
        <ele>0.8</ele>
        <time>2020-06-15T10:51:03Z</time>
      </trkpt>
      <trkpt lat="49.59684" lon="-1.26441">
        <ele>0.8</ele>
        <time>2020-06-15T10:51:04Z</time>
      </trkpt>
      <trkpt lat="49.59682" lon="-1.26442">
        <ele>0.8</ele>
        <time>2020-06-15T10:51:05Z</time>
      </trkpt>
      <trkpt lat="49.5968" lon="-1.26441">
        <ele>0.8</ele>
        <time>2020-06-15T10:51:06Z</time>
      </trkpt>
      <trkpt lat="49.5968" lon="-1.26441">
        <ele>0.8</ele>
        <time>2020-06-15T10:51:07Z</time>
      </trkpt>
      <trkpt lat="49.5968" lon="-1.2644">
        <ele>0.8</ele>
        <time>2020-06-15T10:51:08Z</time>
      </trkpt>
      <trkpt lat="49.5968" lon="-1.2644">
        <ele>0.8</ele>
        <time>2020-06-15T10:51:09Z</time>
      </trkpt>
      <trkpt lat="49.59681" lon="-1.2644">
        <ele>0.8</ele>
        <time>2020-06-15T10:51:10Z</time>
      </trkpt>
      <trkpt lat="49.59681" lon="-1.2644">
        <ele>0.8</ele>
        <time>2020-06-15T10:51:11Z</time>
      </trkpt>
      <trkpt lat="49.59681" lon="-1.2644">
        <ele>0.8</ele>
        <time>2020-06-15T10:51:12Z</time>
      </trkpt>
      <trkpt lat="49.59681" lon="-1.26439">
        <ele>0.8</ele>
        <time>2020-06-15T10:51:13Z</time>
      </trkpt>
      <trkpt lat="49.59681" lon="-1.2644">
        <ele>0.8</ele>
        <time>2020-06-15T10:51:14Z</time>
      </trkpt>
      <trkpt lat="49.59681" lon="-1.26441">
        <ele>0.8</ele>
        <time>2020-06-15T10:51:15Z</time>
      </trkpt>
      <trkpt lat="49.59681" lon="-1.26441">
        <ele>0.8</ele>
        <time>2020-06-15T10:51:16Z</time>
      </trkpt>
      <trkpt lat="49.59681" lon="-1.26442">
        <ele>0.8</ele>
        <time>2020-06-15T10:51:17Z</time>
      </trkpt>
      <trkpt lat="49.59682" lon="-1.26443">
        <ele>0.8</ele>
        <time>2020-06-15T10:51:18Z</time>
      </trkpt>
      <trkpt lat="49.59682" lon="-1.26442">
        <ele>0.8</ele>
        <time>2020-06-15T10:51:19Z</time>
      </trkpt>
      <trkpt lat="49.59682" lon="-1.26441">
        <ele>0.8</ele>
        <time>2020-06-15T10:51:20Z</time>
      </trkpt>
      <trkpt lat="49.59682" lon="-1.26441">
        <ele>0.8</ele>
        <time>2020-06-15T10:51:21Z</time>
      </trkpt>
      <trkpt lat="49.59682" lon="-1.2644">
        <ele>0.8</ele>
        <time>2020-06-15T10:51:22Z</time>
      </trkpt>
      <trkpt lat="49.59682" lon="-1.26439">
        <ele>0.8</ele>
        <time>2020-06-15T10:51:23Z</time>
      </trkpt>
      <trkpt lat="49.59681" lon="-1.26439">
        <ele>0.8</ele>
        <time>2020-06-15T10:51:24Z</time>
      </trkpt>
      <trkpt lat="49.59681" lon="-1.26437">
        <ele>0.8</ele>
        <time>2020-06-15T10:51:25Z</time>
      </trkpt>
      <trkpt lat="49.5968" lon="-1.26436">
        <ele>0.8</ele>
        <time>2020-06-15T10:51:26Z</time>
      </trkpt>
      <trkpt lat="49.5968" lon="-1.26436">
        <ele>0.8</ele>
        <time>2020-06-15T10:51:27Z</time>
      </trkpt>
      <trkpt lat="49.5968" lon="-1.26437">
        <ele>0.8</ele>
        <time>2020-06-15T10:51:28Z</time>
      </trkpt>
      <trkpt lat="49.59679" lon="-1.26437">
        <ele>0.8</ele>
        <time>2020-06-15T10:51:29Z</time>
      </trkpt>
      <trkpt lat="49.59679" lon="-1.26437">
        <ele>0.8</ele>
        <time>2020-06-15T10:51:30Z</time>
      </trkpt>
      <trkpt lat="49.59679" lon="-1.26437">
        <ele>0.8</ele>
        <time>2020-06-15T10:51:31Z</time>
      </trkpt>
      <trkpt lat="49.59679" lon="-1.26437">
        <ele>0.8</ele>
        <time>2020-06-15T10:51:32Z</time>
      </trkpt>
      <trkpt lat="49.5968" lon="-1.26437">
        <ele>0.8</ele>
        <time>2020-06-15T10:51:33Z</time>
      </trkpt>
      <trkpt lat="49.5968" lon="-1.26437">
        <ele>0.8</ele>
        <time>2020-06-15T10:51:34Z</time>
      </trkpt>
      <trkpt lat="49.5968" lon="-1.26437">
        <ele>0.8</ele>
        <time>2020-06-15T10:51:35Z</time>
      </trkpt>
      <trkpt lat="49.5968" lon="-1.26437">
        <ele>0.8</ele>
        <time>2020-06-15T10:51:36Z</time>
      </trkpt>
      <trkpt lat="49.5968" lon="-1.26437">
        <ele>0.8</ele>
        <time>2020-06-15T10:51:37Z</time>
      </trkpt>
      <trkpt lat="49.5968" lon="-1.26437">
        <ele>0.8</ele>
        <time>2020-06-15T10:51:38Z</time>
      </trkpt>
      <trkpt lat="49.5968" lon="-1.26437">
        <ele>0.8</ele>
        <time>2020-06-15T10:51:39Z</time>
      </trkpt>
      <trkpt lat="49.59683" lon="-1.26435">
        <ele>0.8</ele>
        <time>2020-06-15T10:54:03Z</time>
      </trkpt>
      <trkpt lat="49.59683" lon="-1.26433">
        <ele>0.8</ele>
        <time>2020-06-15T10:54:04Z</time>
      </trkpt>
      <trkpt lat="49.59683" lon="-1.26432">
        <ele>0.8</ele>
        <time>2020-06-15T10:54:05Z</time>
      </trkpt>
      <trkpt lat="49.59683" lon="-1.26431">
        <ele>0.8</ele>
        <time>2020-06-15T10:54:06Z</time>
      </trkpt>
      <trkpt lat="49.59684" lon="-1.26431">
        <ele>0.8</ele>
        <time>2020-06-15T10:54:07Z</time>
      </trkpt>
      <trkpt lat="49.59684" lon="-1.26431">
        <ele>0.8</ele>
        <time>2020-06-15T10:54:08Z</time>
      </trkpt>
      <trkpt lat="49.59684" lon="-1.26431">
        <ele>0.8</ele>
        <time>2020-06-15T10:54:09Z</time>
      </trkpt>
      <trkpt lat="49.59684" lon="-1.2643">
        <ele>0.8</ele>
        <time>2020-06-15T10:54:10Z</time>
      </trkpt>
      <trkpt lat="49.59684" lon="-1.26429">
        <ele>0.8</ele>
        <time>2020-06-15T10:54:11Z</time>
      </trkpt>
      <trkpt lat="49.59684" lon="-1.26429">
        <ele>0.8</ele>
        <time>2020-06-15T10:54:12Z</time>
      </trkpt>
      <trkpt lat="49.59685" lon="-1.26429">
        <ele>0.8</ele>
        <time>2020-06-15T10:54:13Z</time>
      </trkpt>
      <trkpt lat="49.59685" lon="-1.26429">
        <ele>0.8</ele>
        <time>2020-06-15T10:54:14Z</time>
      </trkpt>
      <trkpt lat="49.59685" lon="-1.26429">
        <ele>0.8</ele>
        <time>2020-06-15T10:54:15Z</time>
      </trkpt>
      <trkpt lat="49.59685" lon="-1.26431">
        <ele>0.8</ele>
        <time>2020-06-15T10:54:16Z</time>
      </trkpt>
      <trkpt lat="49.59683" lon="-1.26433">
        <ele>0.8</ele>
        <time>2020-06-15T10:54:17Z</time>
      </trkpt>
      <trkpt lat="49.59681" lon="-1.26435">
        <ele>0.8</ele>
        <time>2020-06-15T10:54:18Z</time>
      </trkpt>
      <trkpt lat="49.5968" lon="-1.26437">
        <ele>0.8</ele>
        <time>2020-06-15T10:54:19Z</time>
      </trkpt>
      <trkpt lat="49.59678" lon="-1.26438">
        <ele>0.8</ele>
        <time>2020-06-15T10:54:20Z</time>
      </trkpt>
      <trkpt lat="49.59676" lon="-1.2644">
        <ele>0.8</ele>
        <time>2020-06-15T10:54:21Z</time>
      </trkpt>
      <trkpt lat="49.59675" lon="-1.26442">
        <ele>0.8</ele>
        <time>2020-06-15T10:55:01Z</time>
      </trkpt>
      <trkpt lat="49.59673" lon="-1.26444">
        <ele>0.8</ele>
        <time>2020-06-15T10:55:02Z</time>
      </trkpt>
      <trkpt lat="49.5967" lon="-1.26448">
        <ele>0.8</ele>
        <time>2020-06-15T10:55:03Z</time>
      </trkpt>
      <trkpt lat="49.59666" lon="-1.26451">
        <ele>0.8</ele>
        <time>2020-06-15T10:55:04Z</time>
      </trkpt>
      <trkpt lat="49.59662" lon="-1.26454">
        <ele>0.8</ele>
        <time>2020-06-15T10:55:05Z</time>
      </trkpt>
      <trkpt lat="49.59658" lon="-1.26457">
        <ele>0.9</ele>
        <time>2020-06-15T10:55:06Z</time>
      </trkpt>
      <trkpt lat="49.59654" lon="-1.26459">
        <ele>0.9</ele>
        <time>2020-06-15T10:55:07Z</time>
      </trkpt>
      <trkpt lat="49.59649" lon="-1.26463">
        <ele>0.9</ele>
        <time>2020-06-15T10:55:08Z</time>
      </trkpt>
      <trkpt lat="49.59644" lon="-1.26467">
        <ele>0.9</ele>
        <time>2020-06-15T10:55:09Z</time>
      </trkpt>
      <trkpt lat="49.59639" lon="-1.26471">
        <ele>0.8</ele>
        <time>2020-06-15T10:55:10Z</time>
      </trkpt>
      <trkpt lat="49.59634" lon="-1.26475">
        <ele>0.8</ele>
        <time>2020-06-15T10:55:11Z</time>
      </trkpt>
      <trkpt lat="49.59628" lon="-1.26479">
        <ele>0.8</ele>
        <time>2020-06-15T10:55:12Z</time>
      </trkpt>
      <trkpt lat="49.59623" lon="-1.26483">
        <ele>0.8</ele>
        <time>2020-06-15T10:55:13Z</time>
      </trkpt>
      <trkpt lat="49.59619" lon="-1.26487">
        <ele>0.9</ele>
        <time>2020-06-15T10:55:14Z</time>
      </trkpt>
      <trkpt lat="49.59613" lon="-1.26491">
        <ele>0.9</ele>
        <time>2020-06-15T10:55:15Z</time>
      </trkpt>
      <trkpt lat="49.59607" lon="-1.26495">
        <ele>0.9</ele>
        <time>2020-06-15T10:55:16Z</time>
      </trkpt>
      <trkpt lat="49.59602" lon="-1.26498">
        <ele>0.9</ele>
        <time>2020-06-15T10:55:17Z</time>
      </trkpt>
      <trkpt lat="49.59597" lon="-1.26502">
        <ele>0.9</ele>
        <time>2020-06-15T10:55:18Z</time>
      </trkpt>
      <trkpt lat="49.59592" lon="-1.26505">
        <ele>0.9</ele>
        <time>2020-06-15T10:55:19Z</time>
      </trkpt>
      <trkpt lat="49.59586" lon="-1.26508">
        <ele>0.9</ele>
        <time>2020-06-15T10:55:20Z</time>
      </trkpt>
      <trkpt lat="49.59581" lon="-1.26513">
        <ele>0.8</ele>
        <time>2020-06-15T10:55:21Z</time>
      </trkpt>
      <trkpt lat="49.59574" lon="-1.26517">
        <ele>0.8</ele>
        <time>2020-06-15T10:55:22Z</time>
      </trkpt>
      <trkpt lat="49.59568" lon="-1.2652">
        <ele>0.8</ele>
        <time>2020-06-15T10:55:23Z</time>
      </trkpt>
      <trkpt lat="49.59563" lon="-1.26523">
        <ele>0.8</ele>
        <time>2020-06-15T10:55:24Z</time>
      </trkpt>
      <trkpt lat="49.59557" lon="-1.26526">
        <ele>0.8</ele>
        <time>2020-06-15T10:55:25Z</time>
      </trkpt>
      <trkpt lat="49.5955" lon="-1.2653">
        <ele>0.7</ele>
        <time>2020-06-15T10:55:26Z</time>
      </trkpt>
      <trkpt lat="49.59544" lon="-1.26533">
        <ele>0.7</ele>
        <time>2020-06-15T10:55:27Z</time>
      </trkpt>
      <trkpt lat="49.59537" lon="-1.26537">
        <ele>0.7</ele>
        <time>2020-06-15T10:55:28Z</time>
      </trkpt>
      <trkpt lat="49.59531" lon="-1.26541">
        <ele>0.7</ele>
        <time>2020-06-15T10:55:29Z</time>
      </trkpt>
      <trkpt lat="49.59525" lon="-1.26545">
        <ele>0.7</ele>
        <time>2020-06-15T10:55:30Z</time>
      </trkpt>
      <trkpt lat="49.59518" lon="-1.26549">
        <ele>0.7</ele>
        <time>2020-06-15T10:55:31Z</time>
      </trkpt>
      <trkpt lat="49.5951" lon="-1.26553">
        <ele>0.7</ele>
        <time>2020-06-15T10:55:32Z</time>
      </trkpt>
      <trkpt lat="49.59504" lon="-1.26557">
        <ele>0.7</ele>
        <time>2020-06-15T10:55:33Z</time>
      </trkpt>
      <trkpt lat="49.59498" lon="-1.26561">
        <ele>0.7</ele>
        <time>2020-06-15T10:55:34Z</time>
      </trkpt>
      <trkpt lat="49.59491" lon="-1.26565">
        <ele>0.7</ele>
        <time>2020-06-15T10:55:35Z</time>
      </trkpt>
      <trkpt lat="49.59485" lon="-1.26569">
        <ele>0.7</ele>
        <time>2020-06-15T10:55:36Z</time>
      </trkpt>
      <trkpt lat="49.59478" lon="-1.26573">
        <ele>0.6</ele>
        <time>2020-06-15T10:55:37Z</time>
      </trkpt>
      <trkpt lat="49.59471" lon="-1.26577">
        <ele>0.6</ele>
        <time>2020-06-15T10:55:38Z</time>
      </trkpt>
      <trkpt lat="49.59464" lon="-1.2658">
        <ele>0.6</ele>
        <time>2020-06-15T10:55:39Z</time>
      </trkpt>
      <trkpt lat="49.59457" lon="-1.26584">
        <ele>0.6</ele>
        <time>2020-06-15T10:55:40Z</time>
      </trkpt>
      <trkpt lat="49.5945" lon="-1.26588">
        <ele>0.6</ele>
        <time>2020-06-15T10:55:41Z</time>
      </trkpt>
      <trkpt lat="49.59443" lon="-1.26592">
        <ele>0.6</ele>
        <time>2020-06-15T10:55:42Z</time>
      </trkpt>
      <trkpt lat="49.59436" lon="-1.26596">
        <ele>0.6</ele>
        <time>2020-06-15T10:55:43Z</time>
      </trkpt>
      <trkpt lat="49.59429" lon="-1.266">
        <ele>0.6</ele>
        <time>2020-06-15T10:55:44Z</time>
      </trkpt>
      <trkpt lat="49.59422" lon="-1.26604">
        <ele>0.6</ele>
        <time>2020-06-15T10:55:45Z</time>
      </trkpt>
      <trkpt lat="49.59415" lon="-1.26608">
        <ele>0.6</ele>
        <time>2020-06-15T10:55:46Z</time>
      </trkpt>
      <trkpt lat="49.59409" lon="-1.26612">
        <ele>0.6</ele>
        <time>2020-06-15T10:55:47Z</time>
      </trkpt>
      <trkpt lat="49.59402" lon="-1.26616">
        <ele>0.6</ele>
        <time>2020-06-15T10:55:48Z</time>
      </trkpt>
      <trkpt lat="49.59396" lon="-1.26619">
        <ele>0.7</ele>
        <time>2020-06-15T10:55:49Z</time>
      </trkpt>
      <trkpt lat="49.59389" lon="-1.26623">
        <ele>0.7</ele>
        <time>2020-06-15T10:55:50Z</time>
      </trkpt>
      <trkpt lat="49.59383" lon="-1.26626">
        <ele>0.7</ele>
        <time>2020-06-15T10:55:51Z</time>
      </trkpt>
      <trkpt lat="49.59376" lon="-1.26629">
        <ele>0.8</ele>
        <time>2020-06-15T10:55:52Z</time>
      </trkpt>
      <trkpt lat="49.59369" lon="-1.26633">
        <ele>0.8</ele>
        <time>2020-06-15T10:55:53Z</time>
      </trkpt>
      <trkpt lat="49.59363" lon="-1.26636">
        <ele>0.9</ele>
        <time>2020-06-15T10:55:54Z</time>
      </trkpt>
      <trkpt lat="49.59356" lon="-1.2664">
        <ele>1</ele>
        <time>2020-06-15T10:55:55Z</time>
      </trkpt>
      <trkpt lat="49.5935" lon="-1.26644">
        <ele>1.1</ele>
        <time>2020-06-15T10:55:56Z</time>
      </trkpt>
      <trkpt lat="49.59343" lon="-1.26648">
        <ele>1.2</ele>
        <time>2020-06-15T10:55:57Z</time>
      </trkpt>
      <trkpt lat="49.59336" lon="-1.26652">
        <ele>1.3</ele>
        <time>2020-06-15T10:55:58Z</time>
      </trkpt>
      <trkpt lat="49.5933" lon="-1.26656">
        <ele>1.3</ele>
        <time>2020-06-15T10:55:59Z</time>
      </trkpt>
      <trkpt lat="49.59323" lon="-1.2666">
        <ele>1.3</ele>
        <time>2020-06-15T10:56:00Z</time>
      </trkpt>
      <trkpt lat="49.59317" lon="-1.26665">
        <ele>1.2</ele>
        <time>2020-06-15T10:56:01Z</time>
      </trkpt>
      <trkpt lat="49.5931" lon="-1.26669">
        <ele>1.2</ele>
        <time>2020-06-15T10:56:02Z</time>
      </trkpt>
      <trkpt lat="49.59303" lon="-1.26673">
        <ele>1.2</ele>
        <time>2020-06-15T10:56:03Z</time>
      </trkpt>
      <trkpt lat="49.59297" lon="-1.26677">
        <ele>1.2</ele>
        <time>2020-06-15T10:56:04Z</time>
      </trkpt>
      <trkpt lat="49.5929" lon="-1.26679">
        <ele>1.3</ele>
        <time>2020-06-15T10:56:05Z</time>
      </trkpt>
      <trkpt lat="49.59283" lon="-1.26682">
        <ele>1.4</ele>
        <time>2020-06-15T10:56:06Z</time>
      </trkpt>
      <trkpt lat="49.59277" lon="-1.26685">
        <ele>1.4</ele>
        <time>2020-06-15T10:56:07Z</time>
      </trkpt>
      <trkpt lat="49.59271" lon="-1.26687">
        <ele>1.5</ele>
        <time>2020-06-15T10:56:08Z</time>
      </trkpt>
      <trkpt lat="49.59265" lon="-1.26689">
        <ele>1.5</ele>
        <time>2020-06-15T10:56:09Z</time>
      </trkpt>
      <trkpt lat="49.59259" lon="-1.26689">
        <ele>1.5</ele>
        <time>2020-06-15T10:56:10Z</time>
      </trkpt>
      <trkpt lat="49.59254" lon="-1.26689">
        <ele>1.6</ele>
        <time>2020-06-15T10:56:11Z</time>
      </trkpt>
      <trkpt lat="49.59248" lon="-1.26688">
        <ele>1.6</ele>
        <time>2020-06-15T10:56:12Z</time>
      </trkpt>
      <trkpt lat="49.59242" lon="-1.26687">
        <ele>1.6</ele>
        <time>2020-06-15T10:56:13Z</time>
      </trkpt>
      <trkpt lat="49.59236" lon="-1.26686">
        <ele>1.6</ele>
        <time>2020-06-15T10:56:14Z</time>
      </trkpt>
      <trkpt lat="49.5923" lon="-1.26686">
        <ele>1.7</ele>
        <time>2020-06-15T10:56:15Z</time>
      </trkpt>
      <trkpt lat="49.59225" lon="-1.26685">
        <ele>1.7</ele>
        <time>2020-06-15T10:56:16Z</time>
      </trkpt>
      <trkpt lat="49.59221" lon="-1.26685">
        <ele>1.6</ele>
        <time>2020-06-15T10:56:17Z</time>
      </trkpt>
      <trkpt lat="49.59216" lon="-1.26685">
        <ele>1.6</ele>
        <time>2020-06-15T10:56:18Z</time>
      </trkpt>
      <trkpt lat="49.59211" lon="-1.26685">
        <ele>1.6</ele>
        <time>2020-06-15T10:56:19Z</time>
      </trkpt>
      <trkpt lat="49.59204" lon="-1.26685">
        <ele>1.6</ele>
        <time>2020-06-15T10:56:20Z</time>
      </trkpt>
      <trkpt lat="49.59198" lon="-1.26685">
        <ele>1.7</ele>
        <time>2020-06-15T10:56:21Z</time>
      </trkpt>
      <trkpt lat="49.59192" lon="-1.26683">
        <ele>1.7</ele>
        <time>2020-06-15T10:56:22Z</time>
      </trkpt>
      <trkpt lat="49.59186" lon="-1.26681">
        <ele>1.7</ele>
        <time>2020-06-15T10:56:23Z</time>
      </trkpt>
      <trkpt lat="49.5918" lon="-1.2668">
        <ele>1.7</ele>
        <time>2020-06-15T10:56:24Z</time>
      </trkpt>
      <trkpt lat="49.59173" lon="-1.26679">
        <ele>1.7</ele>
        <time>2020-06-15T10:56:25Z</time>
      </trkpt>
      <trkpt lat="49.59167" lon="-1.26677">
        <ele>1.6</ele>
        <time>2020-06-15T10:56:26Z</time>
      </trkpt>
      <trkpt lat="49.5916" lon="-1.26674">
        <ele>1.6</ele>
        <time>2020-06-15T10:56:27Z</time>
      </trkpt>
      <trkpt lat="49.59155" lon="-1.26673">
        <ele>1.5</ele>
        <time>2020-06-15T10:56:28Z</time>
      </trkpt>
      <trkpt lat="49.59149" lon="-1.26671">
        <ele>1.5</ele>
        <time>2020-06-15T10:56:29Z</time>
      </trkpt>
      <trkpt lat="49.59143" lon="-1.2667">
        <ele>1.5</ele>
        <time>2020-06-15T10:56:30Z</time>
      </trkpt>
      <trkpt lat="49.59137" lon="-1.26669">
        <ele>1.4</ele>
        <time>2020-06-15T10:56:31Z</time>
      </trkpt>
      <trkpt lat="49.59131" lon="-1.26668">
        <ele>1.4</ele>
        <time>2020-06-15T10:56:32Z</time>
      </trkpt>
      <trkpt lat="49.59125" lon="-1.26666">
        <ele>1.5</ele>
        <time>2020-06-15T10:56:33Z</time>
      </trkpt>
      <trkpt lat="49.59119" lon="-1.26666">
        <ele>1.5</ele>
        <time>2020-06-15T10:56:34Z</time>
      </trkpt>
      <trkpt lat="49.59113" lon="-1.26664">
        <ele>1.6</ele>
        <time>2020-06-15T10:56:35Z</time>
      </trkpt>
      <trkpt lat="49.59106" lon="-1.26663">
        <ele>1.7</ele>
        <time>2020-06-15T10:56:36Z</time>
      </trkpt>
      <trkpt lat="49.59101" lon="-1.26662">
        <ele>1.7</ele>
        <time>2020-06-15T10:56:37Z</time>
      </trkpt>
      <trkpt lat="49.59094" lon="-1.26662">
        <ele>1.7</ele>
        <time>2020-06-15T10:56:38Z</time>
      </trkpt>
      <trkpt lat="49.59087" lon="-1.26662">
        <ele>1.8</ele>
        <time>2020-06-15T10:56:39Z</time>
      </trkpt>
      <trkpt lat="49.59082" lon="-1.26661">
        <ele>1.8</ele>
        <time>2020-06-15T10:56:40Z</time>
      </trkpt>
      <trkpt lat="49.59076" lon="-1.2666">
        <ele>1.8</ele>
        <time>2020-06-15T10:56:41Z</time>
      </trkpt>
      <trkpt lat="49.59069" lon="-1.26659">
        <ele>1.8</ele>
        <time>2020-06-15T10:56:42Z</time>
      </trkpt>
      <trkpt lat="49.59063" lon="-1.26658">
        <ele>1.8</ele>
        <time>2020-06-15T10:56:43Z</time>
      </trkpt>
      <trkpt lat="49.59058" lon="-1.26658">
        <ele>1.9</ele>
        <time>2020-06-15T10:56:44Z</time>
      </trkpt>
      <trkpt lat="49.59052" lon="-1.26657">
        <ele>1.9</ele>
        <time>2020-06-15T10:56:45Z</time>
      </trkpt>
      <trkpt lat="49.59046" lon="-1.26657">
        <ele>1.9</ele>
        <time>2020-06-15T10:56:46Z</time>
      </trkpt>
      <trkpt lat="49.5904" lon="-1.26658">
        <ele>1.9</ele>
        <time>2020-06-15T10:56:47Z</time>
      </trkpt>
      <trkpt lat="49.59035" lon="-1.26656">
        <ele>1.9</ele>
        <time>2020-06-15T10:56:48Z</time>
      </trkpt>
      <trkpt lat="49.59031" lon="-1.26654">
        <ele>1.9</ele>
        <time>2020-06-15T10:56:49Z</time>
      </trkpt>
      <trkpt lat="49.59025" lon="-1.26654">
        <ele>1.9</ele>
        <time>2020-06-15T10:56:50Z</time>
      </trkpt>
      <trkpt lat="49.5902" lon="-1.26654">
        <ele>1.9</ele>
        <time>2020-06-15T10:56:51Z</time>
      </trkpt>
      <trkpt lat="49.59013" lon="-1.26655">
        <ele>1.9</ele>
        <time>2020-06-15T10:56:52Z</time>
      </trkpt>
      <trkpt lat="49.59009" lon="-1.26653">
        <ele>1.9</ele>
        <time>2020-06-15T10:56:53Z</time>
      </trkpt>
      <trkpt lat="49.59003" lon="-1.26653">
        <ele>2</ele>
        <time>2020-06-15T10:56:54Z</time>
      </trkpt>
      <trkpt lat="49.58998" lon="-1.26652">
        <ele>2</ele>
        <time>2020-06-15T10:56:55Z</time>
      </trkpt>
      <trkpt lat="49.58993" lon="-1.2665">
        <ele>2</ele>
        <time>2020-06-15T10:56:56Z</time>
      </trkpt>
      <trkpt lat="49.58987" lon="-1.26646">
        <ele>2.1</ele>
        <time>2020-06-15T10:56:57Z</time>
      </trkpt>
      <trkpt lat="49.58982" lon="-1.26643">
        <ele>2.1</ele>
        <time>2020-06-15T10:56:58Z</time>
      </trkpt>
      <trkpt lat="49.58979" lon="-1.26637">
        <ele>2.2</ele>
        <time>2020-06-15T10:56:59Z</time>
      </trkpt>
      <trkpt lat="49.58974" lon="-1.26633">
        <ele>2.2</ele>
        <time>2020-06-15T10:57:00Z</time>
      </trkpt>
      <trkpt lat="49.5897" lon="-1.26627">
        <ele>2.3</ele>
        <time>2020-06-15T10:57:01Z</time>
      </trkpt>
      <trkpt lat="49.58965" lon="-1.26623">
        <ele>2.3</ele>
        <time>2020-06-15T10:57:02Z</time>
      </trkpt>
      <trkpt lat="49.58961" lon="-1.26619">
        <ele>2.4</ele>
        <time>2020-06-15T10:57:03Z</time>
      </trkpt>
      <trkpt lat="49.58958" lon="-1.26614">
        <ele>2.4</ele>
        <time>2020-06-15T10:57:04Z</time>
      </trkpt>
      <trkpt lat="49.58956" lon="-1.2661">
        <ele>2.3</ele>
        <time>2020-06-15T10:57:05Z</time>
      </trkpt>
      <trkpt lat="49.58952" lon="-1.26606">
        <ele>2.3</ele>
        <time>2020-06-15T10:57:06Z</time>
      </trkpt>
      <trkpt lat="49.5895" lon="-1.26605">
        <ele>2.3</ele>
        <time>2020-06-15T10:57:07Z</time>
      </trkpt>
      <trkpt lat="49.58946" lon="-1.26603">
        <ele>2.3</ele>
        <time>2020-06-15T10:57:08Z</time>
      </trkpt>
      <trkpt lat="49.58942" lon="-1.26603">
        <ele>2.2</ele>
        <time>2020-06-15T10:57:09Z</time>
      </trkpt>
      <trkpt lat="49.5894" lon="-1.26604">
        <ele>2.2</ele>
        <time>2020-06-15T10:57:10Z</time>
      </trkpt>
      <trkpt lat="49.58937" lon="-1.26607">
        <ele>2.2</ele>
        <time>2020-06-15T10:57:11Z</time>
      </trkpt>
      <trkpt lat="49.58936" lon="-1.26607">
        <ele>2.2</ele>
        <time>2020-06-15T10:57:12Z</time>
      </trkpt>
      <trkpt lat="49.58933" lon="-1.26608">
        <ele>2.1</ele>
        <time>2020-06-15T10:57:13Z</time>
      </trkpt>
      <trkpt lat="49.58931" lon="-1.26608">
        <ele>2.1</ele>
        <time>2020-06-15T10:57:14Z</time>
      </trkpt>
      <trkpt lat="49.58929" lon="-1.26607">
        <ele>2.1</ele>
        <time>2020-06-15T10:57:15Z</time>
      </trkpt>
      <trkpt lat="49.58928" lon="-1.26607">
        <ele>2.1</ele>
        <time>2020-06-15T10:57:16Z</time>
      </trkpt>
      <trkpt lat="49.58926" lon="-1.26607">
        <ele>2.1</ele>
        <time>2020-06-15T10:57:17Z</time>
      </trkpt>
      <trkpt lat="49.58925" lon="-1.26607">
        <ele>2.1</ele>
        <time>2020-06-15T10:57:18Z</time>
      </trkpt>
      <trkpt lat="49.58921" lon="-1.26608">
        <ele>2</ele>
        <time>2020-06-15T10:57:19Z</time>
      </trkpt>
      <trkpt lat="49.58918" lon="-1.26607">
        <ele>2</ele>
        <time>2020-06-15T10:57:20Z</time>
      </trkpt>
      <trkpt lat="49.58917" lon="-1.26607">
        <ele>2</ele>
        <time>2020-06-15T10:57:21Z</time>
      </trkpt>
      <trkpt lat="49.58916" lon="-1.26606">
        <ele>2</ele>
        <time>2020-06-15T10:57:22Z</time>
      </trkpt>
      <trkpt lat="49.58916" lon="-1.26606">
        <ele>2</ele>
        <time>2020-06-15T10:57:23Z</time>
      </trkpt>
      <trkpt lat="49.58916" lon="-1.26606">
        <ele>2</ele>
        <time>2020-06-15T10:57:24Z</time>
      </trkpt>
      <trkpt lat="49.58915" lon="-1.26606">
        <ele>2</ele>
        <time>2020-06-15T10:57:25Z</time>
      </trkpt>
      <trkpt lat="49.58915" lon="-1.26606">
        <ele>2</ele>
        <time>2020-06-15T10:57:26Z</time>
      </trkpt>
      <trkpt lat="49.58915" lon="-1.26606">
        <ele>2</ele>
        <time>2020-06-15T10:57:27Z</time>
      </trkpt>
      <trkpt lat="49.58914" lon="-1.26606">
        <ele>2</ele>
        <time>2020-06-15T10:57:28Z</time>
      </trkpt>
      <trkpt lat="49.58914" lon="-1.26606">
        <ele>2</ele>
        <time>2020-06-15T10:57:29Z</time>
      </trkpt>
      <trkpt lat="49.58914" lon="-1.26606">
        <ele>2</ele>
        <time>2020-06-15T10:57:30Z</time>
      </trkpt>
      <trkpt lat="49.58914" lon="-1.26606">
        <ele>2</ele>
        <time>2020-06-15T10:57:31Z</time>
      </trkpt>
      <trkpt lat="49.58913" lon="-1.26606">
        <ele>2</ele>
        <time>2020-06-15T10:57:32Z</time>
      </trkpt>
      <trkpt lat="49.58913" lon="-1.26606">
        <ele>2</ele>
        <time>2020-06-15T10:57:33Z</time>
      </trkpt>
      <trkpt lat="49.58913" lon="-1.26605">
        <ele>2</ele>
        <time>2020-06-15T10:57:34Z</time>
      </trkpt>
      <trkpt lat="49.58912" lon="-1.26605">
        <ele>2</ele>
        <time>2020-06-15T10:57:35Z</time>
      </trkpt>
      <trkpt lat="49.58912" lon="-1.26605">
        <ele>2</ele>
        <time>2020-06-15T10:57:36Z</time>
      </trkpt>
      <trkpt lat="49.58912" lon="-1.26605">
        <ele>2</ele>
        <time>2020-06-15T10:57:37Z</time>
      </trkpt>
      <trkpt lat="49.58912" lon="-1.26605">
        <ele>2</ele>
        <time>2020-06-15T10:57:38Z</time>
      </trkpt>
      <trkpt lat="49.58911" lon="-1.26605">
        <ele>2</ele>
        <time>2020-06-15T10:57:39Z</time>
      </trkpt>
      <trkpt lat="49.58911" lon="-1.26605">
        <ele>2</ele>
        <time>2020-06-15T10:57:40Z</time>
      </trkpt>
      <trkpt lat="49.58911" lon="-1.26605">
        <ele>2</ele>
        <time>2020-06-15T10:57:41Z</time>
      </trkpt>
      <trkpt lat="49.58911" lon="-1.26605">
        <ele>2</ele>
        <time>2020-06-15T10:57:42Z</time>
      </trkpt>
      <trkpt lat="49.5891" lon="-1.26605">
        <ele>2</ele>
        <time>2020-06-15T10:58:21Z</time>
      </trkpt>
      <trkpt lat="49.5891" lon="-1.26605">
        <ele>2</ele>
        <time>2020-06-15T10:58:22Z</time>
      </trkpt>
      <trkpt lat="49.58906" lon="-1.26604">
        <ele>2</ele>
        <time>2020-06-15T10:58:23Z</time>
      </trkpt>
      <trkpt lat="49.58905" lon="-1.26605">
        <ele>2</ele>
        <time>2020-06-15T10:58:24Z</time>
      </trkpt>
      <trkpt lat="49.58902" lon="-1.26604">
        <ele>2</ele>
        <time>2020-06-15T10:58:25Z</time>
      </trkpt>
      <trkpt lat="49.58901" lon="-1.26603">
        <ele>2</ele>
        <time>2020-06-15T10:58:26Z</time>
      </trkpt>
      <trkpt lat="49.58898" lon="-1.26602">
        <ele>2</ele>
        <time>2020-06-15T10:58:27Z</time>
      </trkpt>
      <trkpt lat="49.58897" lon="-1.26602">
        <ele>2</ele>
        <time>2020-06-15T10:58:28Z</time>
      </trkpt>
      <trkpt lat="49.58893" lon="-1.26602">
        <ele>2</ele>
        <time>2020-06-15T10:58:29Z</time>
      </trkpt>
      <trkpt lat="49.58891" lon="-1.26602">
        <ele>2</ele>
        <time>2020-06-15T10:58:30Z</time>
      </trkpt>
      <trkpt lat="49.58888" lon="-1.26602">
        <ele>2</ele>
        <time>2020-06-15T10:58:31Z</time>
      </trkpt>
      <trkpt lat="49.58885" lon="-1.266">
        <ele>1.9</ele>
        <time>2020-06-15T10:58:32Z</time>
      </trkpt>
      <trkpt lat="49.58883" lon="-1.266">
        <ele>1.9</ele>
        <time>2020-06-15T10:58:33Z</time>
      </trkpt>
      <trkpt lat="49.5888" lon="-1.266">
        <ele>1.9</ele>
        <time>2020-06-15T10:58:34Z</time>
      </trkpt>
      <trkpt lat="49.58878" lon="-1.26599">
        <ele>1.9</ele>
        <time>2020-06-15T10:58:35Z</time>
      </trkpt>
      <trkpt lat="49.58875" lon="-1.26599">
        <ele>1.9</ele>
        <time>2020-06-15T10:58:36Z</time>
      </trkpt>
      <trkpt lat="49.58873" lon="-1.26599">
        <ele>1.9</ele>
        <time>2020-06-15T10:58:37Z</time>
      </trkpt>
      <trkpt lat="49.5887" lon="-1.26598">
        <ele>1.9</ele>
        <time>2020-06-15T10:58:38Z</time>
      </trkpt>
      <trkpt lat="49.58869" lon="-1.26598">
        <ele>2</ele>
        <time>2020-06-15T10:58:39Z</time>
      </trkpt>
      <trkpt lat="49.58866" lon="-1.26597">
        <ele>2</ele>
        <time>2020-06-15T10:58:40Z</time>
      </trkpt>
      <trkpt lat="49.58865" lon="-1.26597">
        <ele>2</ele>
        <time>2020-06-15T10:58:41Z</time>
      </trkpt>
      <trkpt lat="49.58862" lon="-1.26596">
        <ele>2.1</ele>
        <time>2020-06-15T10:58:42Z</time>
      </trkpt>
      <trkpt lat="49.58861" lon="-1.26595">
        <ele>2.1</ele>
        <time>2020-06-15T10:58:43Z</time>
      </trkpt>
      <trkpt lat="49.58858" lon="-1.26596">
        <ele>2.1</ele>
        <time>2020-06-15T10:58:44Z</time>
      </trkpt>
      <trkpt lat="49.58857" lon="-1.26596">
        <ele>2.2</ele>
        <time>2020-06-15T10:58:45Z</time>
      </trkpt>
      <trkpt lat="49.58854" lon="-1.26595">
        <ele>2.2</ele>
        <time>2020-06-15T10:58:46Z</time>
      </trkpt>
      <trkpt lat="49.58853" lon="-1.26595">
        <ele>2.2</ele>
        <time>2020-06-15T10:58:47Z</time>
      </trkpt>
      <trkpt lat="49.5885" lon="-1.26593">
        <ele>2.2</ele>
        <time>2020-06-15T10:58:48Z</time>
      </trkpt>
      <trkpt lat="49.5885" lon="-1.26592">
        <ele>2.2</ele>
        <time>2020-06-15T10:58:49Z</time>
      </trkpt>
      <trkpt lat="49.58847" lon="-1.26591">
        <ele>2.3</ele>
        <time>2020-06-15T10:58:50Z</time>
      </trkpt>
      <trkpt lat="49.58845" lon="-1.26591">
        <ele>2.3</ele>
        <time>2020-06-15T10:58:51Z</time>
      </trkpt>
      <trkpt lat="49.58842" lon="-1.26593">
        <ele>2.3</ele>
        <time>2020-06-15T10:58:52Z</time>
      </trkpt>
      <trkpt lat="49.58842" lon="-1.26593">
        <ele>2.3</ele>
        <time>2020-06-15T10:58:53Z</time>
      </trkpt>
      <trkpt lat="49.58841" lon="-1.26597">
        <ele>2.3</ele>
        <time>2020-06-15T10:58:54Z</time>
      </trkpt>
      <trkpt lat="49.5884" lon="-1.26598">
        <ele>2.3</ele>
        <time>2020-06-15T10:58:55Z</time>
      </trkpt>
      <trkpt lat="49.5884" lon="-1.266">
        <ele>2.3</ele>
        <time>2020-06-15T10:58:56Z</time>
      </trkpt>
      <trkpt lat="49.58839" lon="-1.26604">
        <ele>2.3</ele>
        <time>2020-06-15T10:58:57Z</time>
      </trkpt>
      <trkpt lat="49.58838" lon="-1.26605">
        <ele>2.3</ele>
        <time>2020-06-15T10:58:58Z</time>
      </trkpt>
      <trkpt lat="49.58837" lon="-1.2661">
        <ele>2.3</ele>
        <time>2020-06-15T10:58:59Z</time>
      </trkpt>
      <trkpt lat="49.58836" lon="-1.26612">
        <ele>2.3</ele>
        <time>2020-06-15T10:59:00Z</time>
      </trkpt>
      <trkpt lat="49.58836" lon="-1.26617">
        <ele>2.4</ele>
        <time>2020-06-15T10:59:01Z</time>
      </trkpt>
      <trkpt lat="49.58836" lon="-1.26618">
        <ele>2.4</ele>
        <time>2020-06-15T10:59:02Z</time>
      </trkpt>
      <trkpt lat="49.58836" lon="-1.26621">
        <ele>2.4</ele>
        <time>2020-06-15T10:59:03Z</time>
      </trkpt>
      <trkpt lat="49.58836" lon="-1.26624">
        <ele>2.4</ele>
        <time>2020-06-15T10:59:04Z</time>
      </trkpt>
      <trkpt lat="49.58835" lon="-1.26626">
        <ele>2.4</ele>
        <time>2020-06-15T10:59:05Z</time>
      </trkpt>
      <trkpt lat="49.58836" lon="-1.26629">
        <ele>2.4</ele>
        <time>2020-06-15T10:59:06Z</time>
      </trkpt>
      <trkpt lat="49.58835" lon="-1.26632">
        <ele>2.4</ele>
        <time>2020-06-15T10:59:07Z</time>
      </trkpt>
      <trkpt lat="49.58835" lon="-1.26633">
        <ele>2.4</ele>
        <time>2020-06-15T10:59:08Z</time>
      </trkpt>
      <trkpt lat="49.58835" lon="-1.26634">
        <ele>2.4</ele>
        <time>2020-06-15T10:59:09Z</time>
      </trkpt>
      <trkpt lat="49.58835" lon="-1.26634">
        <ele>2.4</ele>
        <time>2020-06-15T10:59:10Z</time>
      </trkpt>
      <trkpt lat="49.58835" lon="-1.26634">
        <ele>2.4</ele>
        <time>2020-06-15T10:59:11Z</time>
      </trkpt>
      <trkpt lat="49.58835" lon="-1.26634">
        <ele>2.4</ele>
        <time>2020-06-15T10:59:12Z</time>
      </trkpt>
      <trkpt lat="49.58835" lon="-1.26634">
        <ele>2.4</ele>
        <time>2020-06-15T10:59:13Z</time>
      </trkpt>
      <trkpt lat="49.58835" lon="-1.26634">
        <ele>2.4</ele>
        <time>2020-06-15T10:59:14Z</time>
      </trkpt>
      <trkpt lat="49.58835" lon="-1.26634">
        <ele>2.4</ele>
        <time>2020-06-15T10:59:15Z</time>
      </trkpt>
      <trkpt lat="49.58835" lon="-1.26633">
        <ele>2.4</ele>
        <time>2020-06-15T10:59:16Z</time>
      </trkpt>
      <trkpt lat="49.58835" lon="-1.26632">
        <ele>2.4</ele>
        <time>2020-06-15T10:59:17Z</time>
      </trkpt>
      <trkpt lat="49.58836" lon="-1.2663">
        <ele>2.4</ele>
        <time>2020-06-15T10:59:18Z</time>
      </trkpt>
      <trkpt lat="49.58835" lon="-1.26627">
        <ele>2.4</ele>
        <time>2020-06-15T10:59:19Z</time>
      </trkpt>
      <trkpt lat="49.58836" lon="-1.26625">
        <ele>2.4</ele>
        <time>2020-06-15T10:59:20Z</time>
      </trkpt>
      <trkpt lat="49.58837" lon="-1.26624">
        <ele>2.4</ele>
        <time>2020-06-15T10:59:21Z</time>
      </trkpt>
      <trkpt lat="49.58837" lon="-1.26625">
        <ele>2.4</ele>
        <time>2020-06-15T10:59:22Z</time>
      </trkpt>
      <trkpt lat="49.58837" lon="-1.26624">
        <ele>2.4</ele>
        <time>2020-06-15T10:59:23Z</time>
      </trkpt>
      <trkpt lat="49.58837" lon="-1.26625">
        <ele>2.4</ele>
        <time>2020-06-15T10:59:24Z</time>
      </trkpt>
      <trkpt lat="49.58838" lon="-1.26625">
        <ele>2.4</ele>
        <time>2020-06-15T10:59:25Z</time>
      </trkpt>
      <trkpt lat="49.58838" lon="-1.26625">
        <ele>2.4</ele>
        <time>2020-06-15T10:59:26Z</time>
      </trkpt>
      <trkpt lat="49.58838" lon="-1.26624">
        <ele>2.5</ele>
        <time>2020-06-15T10:59:27Z</time>
      </trkpt>
      <trkpt lat="49.58839" lon="-1.26623">
        <ele>2.5</ele>
        <time>2020-06-15T10:59:28Z</time>
      </trkpt>
      <trkpt lat="49.58839" lon="-1.26623">
        <ele>2.5</ele>
        <time>2020-06-15T10:59:29Z</time>
      </trkpt>
      <trkpt lat="49.58839" lon="-1.26623">
        <ele>2.5</ele>
        <time>2020-06-15T10:59:30Z</time>
      </trkpt>
      <trkpt lat="49.58839" lon="-1.26623">
        <ele>2.5</ele>
        <time>2020-06-15T10:59:31Z</time>
      </trkpt>
      <trkpt lat="49.58839" lon="-1.26622">
        <ele>2.5</ele>
        <time>2020-06-15T10:59:32Z</time>
      </trkpt>
      <trkpt lat="49.58839" lon="-1.26621">
        <ele>2.5</ele>
        <time>2020-06-15T10:59:33Z</time>
      </trkpt>
      <trkpt lat="49.58839" lon="-1.26621">
        <ele>2.5</ele>
        <time>2020-06-15T10:59:34Z</time>
      </trkpt>
      <trkpt lat="49.58839" lon="-1.2662">
        <ele>2.5</ele>
        <time>2020-06-15T10:59:35Z</time>
      </trkpt>
      <trkpt lat="49.58839" lon="-1.2662">
        <ele>2.5</ele>
        <time>2020-06-15T10:59:36Z</time>
      </trkpt>
      <trkpt lat="49.58839" lon="-1.2662">
        <ele>2.5</ele>
        <time>2020-06-15T10:59:37Z</time>
      </trkpt>
      <trkpt lat="49.58839" lon="-1.2662">
        <ele>2.5</ele>
        <time>2020-06-15T10:59:38Z</time>
      </trkpt>
      <trkpt lat="49.58838" lon="-1.2664">
        <ele>2.8</ele>
        <time>2020-06-15T11:00:30Z</time>
      </trkpt>
      <trkpt lat="49.58838" lon="-1.26638">
        <ele>2.8</ele>
        <time>2020-06-15T11:00:31Z</time>
      </trkpt>
      <trkpt lat="49.58839" lon="-1.26638">
        <ele>2.8</ele>
        <time>2020-06-15T11:00:32Z</time>
      </trkpt>
      <trkpt lat="49.58839" lon="-1.26636">
        <ele>2.8</ele>
        <time>2020-06-15T11:00:33Z</time>
      </trkpt>
      <trkpt lat="49.58839" lon="-1.26635">
        <ele>2.7</ele>
        <time>2020-06-15T11:00:34Z</time>
      </trkpt>
      <trkpt lat="49.5884" lon="-1.26634">
        <ele>2.7</ele>
        <time>2020-06-15T11:00:35Z</time>
      </trkpt>
      <trkpt lat="49.5884" lon="-1.26634">
        <ele>2.7</ele>
        <time>2020-06-15T11:00:36Z</time>
      </trkpt>
      <trkpt lat="49.5884" lon="-1.26633">
        <ele>2.7</ele>
        <time>2020-06-15T11:00:37Z</time>
      </trkpt>
      <trkpt lat="49.5884" lon="-1.26632">
        <ele>2.6</ele>
        <time>2020-06-15T11:00:38Z</time>
      </trkpt>
      <trkpt lat="49.58841" lon="-1.26629">
        <ele>2.6</ele>
        <time>2020-06-15T11:00:39Z</time>
      </trkpt>
      <trkpt lat="49.58841" lon="-1.26628">
        <ele>2.6</ele>
        <time>2020-06-15T11:00:40Z</time>
      </trkpt>
      <trkpt lat="49.58842" lon="-1.26627">
        <ele>2.5</ele>
        <time>2020-06-15T11:00:41Z</time>
      </trkpt>
      <trkpt lat="49.58842" lon="-1.26625">
        <ele>2.2</ele>
        <time>2020-06-15T11:00:42Z</time>
      </trkpt>
      <trkpt lat="49.58842" lon="-1.26623">
        <ele>2.2</ele>
        <time>2020-06-15T11:00:43Z</time>
      </trkpt>
      <trkpt lat="49.58841" lon="-1.26622">
        <ele>2.2</ele>
        <time>2020-06-15T11:00:44Z</time>
      </trkpt>
      <trkpt lat="49.5884" lon="-1.26621">
        <ele>2.2</ele>
        <time>2020-06-15T11:00:45Z</time>
      </trkpt>
      <trkpt lat="49.5884" lon="-1.26621">
        <ele>2.2</ele>
        <time>2020-06-15T11:00:46Z</time>
      </trkpt>
      <trkpt lat="49.58839" lon="-1.26622">
        <ele>2.2</ele>
        <time>2020-06-15T11:00:47Z</time>
      </trkpt>
      <trkpt lat="49.58839" lon="-1.26621">
        <ele>2.3</ele>
        <time>2020-06-15T11:00:48Z</time>
      </trkpt>
      <trkpt lat="49.58839" lon="-1.26621">
        <ele>2.3</ele>
        <time>2020-06-15T11:00:49Z</time>
      </trkpt>
      <trkpt lat="49.58839" lon="-1.2662">
        <ele>2.3</ele>
        <time>2020-06-15T11:00:50Z</time>
      </trkpt>
      <trkpt lat="49.58838" lon="-1.26619">
        <ele>2.3</ele>
        <time>2020-06-15T11:00:51Z</time>
      </trkpt>
      <trkpt lat="49.58838" lon="-1.26616">
        <ele>2.3</ele>
        <time>2020-06-15T11:00:52Z</time>
      </trkpt>
      <trkpt lat="49.58838" lon="-1.26614">
        <ele>2.3</ele>
        <time>2020-06-15T11:00:53Z</time>
      </trkpt>
      <trkpt lat="49.58838" lon="-1.26612">
        <ele>2.3</ele>
        <time>2020-06-15T11:00:54Z</time>
      </trkpt>
      <trkpt lat="49.58836" lon="-1.26607">
        <ele>2.3</ele>
        <time>2020-06-15T11:00:55Z</time>
      </trkpt>
      <trkpt lat="49.58836" lon="-1.26605">
        <ele>2.3</ele>
        <time>2020-06-15T11:00:56Z</time>
      </trkpt>
      <trkpt lat="49.58834" lon="-1.26601">
        <ele>2.3</ele>
        <time>2020-06-15T11:00:57Z</time>
      </trkpt>
      <trkpt lat="49.58833" lon="-1.266">
        <ele>2.3</ele>
        <time>2020-06-15T11:00:58Z</time>
      </trkpt>
      <trkpt lat="49.58832" lon="-1.26599">
        <ele>2.3</ele>
        <time>2020-06-15T11:00:59Z</time>
      </trkpt>
      <trkpt lat="49.58831" lon="-1.26597">
        <ele>2.3</ele>
        <time>2020-06-15T11:01:00Z</time>
      </trkpt>
      <trkpt lat="49.58829" lon="-1.26593">
        <ele>2.3</ele>
        <time>2020-06-15T11:01:01Z</time>
      </trkpt>
      <trkpt lat="49.58828" lon="-1.26592">
        <ele>2.3</ele>
        <time>2020-06-15T11:01:02Z</time>
      </trkpt>
      <trkpt lat="49.58825" lon="-1.26589">
        <ele>2.4</ele>
        <time>2020-06-15T11:01:03Z</time>
      </trkpt>
      <trkpt lat="49.58824" lon="-1.26588">
        <ele>2.4</ele>
        <time>2020-06-15T11:01:04Z</time>
      </trkpt>
      <trkpt lat="49.58821" lon="-1.26586">
        <ele>2.4</ele>
        <time>2020-06-15T11:01:05Z</time>
      </trkpt>
      <trkpt lat="49.5882" lon="-1.26585">
        <ele>2.4</ele>
        <time>2020-06-15T11:01:06Z</time>
      </trkpt>
      <trkpt lat="49.58817" lon="-1.26583">
        <ele>2.4</ele>
        <time>2020-06-15T11:01:07Z</time>
      </trkpt>
      <trkpt lat="49.58816" lon="-1.26582">
        <ele>2.4</ele>
        <time>2020-06-15T11:01:08Z</time>
      </trkpt>
      <trkpt lat="49.58812" lon="-1.26579">
        <ele>2.4</ele>
        <time>2020-06-15T11:01:09Z</time>
      </trkpt>
      <trkpt lat="49.58811" lon="-1.26578">
        <ele>2.4</ele>
        <time>2020-06-15T11:01:10Z</time>
      </trkpt>
      <trkpt lat="49.58809" lon="-1.26576">
        <ele>2.4</ele>
        <time>2020-06-15T11:01:11Z</time>
      </trkpt>
      <trkpt lat="49.58805" lon="-1.26574">
        <ele>2.4</ele>
        <time>2020-06-15T11:01:12Z</time>
      </trkpt>
      <trkpt lat="49.58804" lon="-1.26573">
        <ele>2.5</ele>
        <time>2020-06-15T11:01:13Z</time>
      </trkpt>
      <trkpt lat="49.58802" lon="-1.26571">
        <ele>2.5</ele>
        <time>2020-06-15T11:01:14Z</time>
      </trkpt>
      <trkpt lat="49.58798" lon="-1.2657">
        <ele>2.5</ele>
        <time>2020-06-15T11:01:15Z</time>
      </trkpt>
      <trkpt lat="49.58797" lon="-1.26569">
        <ele>2.5</ele>
        <time>2020-06-15T11:01:16Z</time>
      </trkpt>
      <trkpt lat="49.58794" lon="-1.26567">
        <ele>2.5</ele>
        <time>2020-06-15T11:01:17Z</time>
      </trkpt>
      <trkpt lat="49.58793" lon="-1.26567">
        <ele>2.5</ele>
        <time>2020-06-15T11:01:18Z</time>
      </trkpt>
      <trkpt lat="49.5879" lon="-1.26565">
        <ele>2.5</ele>
        <time>2020-06-15T11:01:19Z</time>
      </trkpt>
      <trkpt lat="49.58789" lon="-1.26564">
        <ele>2.5</ele>
        <time>2020-06-15T11:01:20Z</time>
      </trkpt>
      <trkpt lat="49.58788" lon="-1.26563">
        <ele>2.5</ele>
        <time>2020-06-15T11:01:21Z</time>
      </trkpt>
      <trkpt lat="49.58787" lon="-1.26561">
        <ele>2.5</ele>
        <time>2020-06-15T11:01:22Z</time>
      </trkpt>
      <trkpt lat="49.58786" lon="-1.2656">
        <ele>2.5</ele>
        <time>2020-06-15T11:01:23Z</time>
      </trkpt>
      <trkpt lat="49.58785" lon="-1.26559">
        <ele>2.5</ele>
        <time>2020-06-15T11:01:24Z</time>
      </trkpt>
      <trkpt lat="49.58785" lon="-1.26558">
        <ele>2.5</ele>
        <time>2020-06-15T11:01:25Z</time>
      </trkpt>
      <trkpt lat="49.58785" lon="-1.26558">
        <ele>2.5</ele>
        <time>2020-06-15T11:01:26Z</time>
      </trkpt>
      <trkpt lat="49.58785" lon="-1.26558">
        <ele>2.5</ele>
        <time>2020-06-15T11:01:27Z</time>
      </trkpt>
      <trkpt lat="49.58785" lon="-1.26558">
        <ele>2.5</ele>
        <time>2020-06-15T11:01:28Z</time>
      </trkpt>
      <trkpt lat="49.58785" lon="-1.26558">
        <ele>2.5</ele>
        <time>2020-06-15T11:01:29Z</time>
      </trkpt>
      <trkpt lat="49.58785" lon="-1.26558">
        <ele>2.5</ele>
        <time>2020-06-15T11:01:30Z</time>
      </trkpt>
      <trkpt lat="49.58784" lon="-1.26558">
        <ele>2.5</ele>
        <time>2020-06-15T11:01:31Z</time>
      </trkpt>
      <trkpt lat="49.58783" lon="-1.26557">
        <ele>2.5</ele>
        <time>2020-06-15T11:01:32Z</time>
      </trkpt>
      <trkpt lat="49.58782" lon="-1.26556">
        <ele>2.5</ele>
        <time>2020-06-15T11:01:33Z</time>
      </trkpt>
      <trkpt lat="49.58781" lon="-1.26555">
        <ele>2.5</ele>
        <time>2020-06-15T11:01:34Z</time>
      </trkpt>
      <trkpt lat="49.58781" lon="-1.26554">
        <ele>2.5</ele>
        <time>2020-06-15T11:01:35Z</time>
      </trkpt>
      <trkpt lat="49.58779" lon="-1.26553">
        <ele>2.5</ele>
        <time>2020-06-15T11:01:36Z</time>
      </trkpt>
      <trkpt lat="49.58778" lon="-1.26553">
        <ele>2.5</ele>
        <time>2020-06-15T11:01:37Z</time>
      </trkpt>
      <trkpt lat="49.58775" lon="-1.26553">
        <ele>2.5</ele>
        <time>2020-06-15T11:01:38Z</time>
      </trkpt>
      <trkpt lat="49.58774" lon="-1.26552">
        <ele>2.6</ele>
        <time>2020-06-15T11:01:39Z</time>
      </trkpt>
      <trkpt lat="49.58771" lon="-1.26551">
        <ele>2.6</ele>
        <time>2020-06-15T11:01:40Z</time>
      </trkpt>
      <trkpt lat="49.58768" lon="-1.26549">
        <ele>2.6</ele>
        <time>2020-06-15T11:01:41Z</time>
      </trkpt>
      <trkpt lat="49.58767" lon="-1.26549">
        <ele>2.6</ele>
        <time>2020-06-15T11:01:42Z</time>
      </trkpt>
      <trkpt lat="49.58764" lon="-1.26547">
        <ele>2.6</ele>
        <time>2020-06-15T11:01:43Z</time>
      </trkpt>
      <trkpt lat="49.58763" lon="-1.26546">
        <ele>2.6</ele>
        <time>2020-06-15T11:01:44Z</time>
      </trkpt>
      <trkpt lat="49.5876" lon="-1.26544">
        <ele>2.6</ele>
        <time>2020-06-15T11:01:45Z</time>
      </trkpt>
      <trkpt lat="49.58759" lon="-1.26543">
        <ele>2.6</ele>
        <time>2020-06-15T11:01:46Z</time>
      </trkpt>
      <trkpt lat="49.58757" lon="-1.2654">
        <ele>2.6</ele>
        <time>2020-06-15T11:01:47Z</time>
      </trkpt>
      <trkpt lat="49.58756" lon="-1.26538">
        <ele>2.6</ele>
        <time>2020-06-15T11:01:48Z</time>
      </trkpt>
      <trkpt lat="49.58752" lon="-1.26536">
        <ele>2.7</ele>
        <time>2020-06-15T11:01:49Z</time>
      </trkpt>
      <trkpt lat="49.58751" lon="-1.26535">
        <ele>2.7</ele>
        <time>2020-06-15T11:01:50Z</time>
      </trkpt>
      <trkpt lat="49.58749" lon="-1.26532">
        <ele>2.7</ele>
        <time>2020-06-15T11:01:51Z</time>
      </trkpt>
      <trkpt lat="49.58746" lon="-1.2653">
        <ele>2.7</ele>
        <time>2020-06-15T11:01:52Z</time>
      </trkpt>
      <trkpt lat="49.58744" lon="-1.26529">
        <ele>2.7</ele>
        <time>2020-06-15T11:01:53Z</time>
      </trkpt>
      <trkpt lat="49.58741" lon="-1.26526">
        <ele>2.7</ele>
        <time>2020-06-15T11:01:54Z</time>
      </trkpt>
      <trkpt lat="49.5874" lon="-1.26524">
        <ele>2.7</ele>
        <time>2020-06-15T11:01:55Z</time>
      </trkpt>
      <trkpt lat="49.58738" lon="-1.26523">
        <ele>2.7</ele>
        <time>2020-06-15T11:01:56Z</time>
      </trkpt>
      <trkpt lat="49.58737" lon="-1.26522">
        <ele>2.7</ele>
        <time>2020-06-15T11:01:57Z</time>
      </trkpt>
      <trkpt lat="49.58734" lon="-1.2652">
        <ele>2.7</ele>
        <time>2020-06-15T11:01:58Z</time>
      </trkpt>
      <trkpt lat="49.58734" lon="-1.26519">
        <ele>2.7</ele>
        <time>2020-06-15T11:01:59Z</time>
      </trkpt>
      <trkpt lat="49.5873" lon="-1.26518">
        <ele>2.7</ele>
        <time>2020-06-15T11:02:00Z</time>
      </trkpt>
      <trkpt lat="49.58729" lon="-1.26517">
        <ele>2.7</ele>
        <time>2020-06-15T11:02:01Z</time>
      </trkpt>
      <trkpt lat="49.58726" lon="-1.26515">
        <ele>2.7</ele>
        <time>2020-06-15T11:02:02Z</time>
      </trkpt>
      <trkpt lat="49.58723" lon="-1.26513">
        <ele>2.7</ele>
        <time>2020-06-15T11:02:03Z</time>
      </trkpt>
      <trkpt lat="49.58721" lon="-1.26512">
        <ele>2.7</ele>
        <time>2020-06-15T11:02:04Z</time>
      </trkpt>
      <trkpt lat="49.58718" lon="-1.2651">
        <ele>2.8</ele>
        <time>2020-06-15T11:02:05Z</time>
      </trkpt>
      <trkpt lat="49.58715" lon="-1.26509">
        <ele>2.8</ele>
        <time>2020-06-15T11:02:06Z</time>
      </trkpt>
      <trkpt lat="49.58712" lon="-1.26507">
        <ele>2.8</ele>
        <time>2020-06-15T11:02:07Z</time>
      </trkpt>
      <trkpt lat="49.58711" lon="-1.26506">
        <ele>2.8</ele>
        <time>2020-06-15T11:02:08Z</time>
      </trkpt>
      <trkpt lat="49.58708" lon="-1.26504">
        <ele>2.8</ele>
        <time>2020-06-15T11:02:09Z</time>
      </trkpt>
      <trkpt lat="49.58705" lon="-1.26502">
        <ele>2.8</ele>
        <time>2020-06-15T11:02:10Z</time>
      </trkpt>
      <trkpt lat="49.58703" lon="-1.265">
        <ele>2.8</ele>
        <time>2020-06-15T11:02:11Z</time>
      </trkpt>
      <trkpt lat="49.58699" lon="-1.26498">
        <ele>2.8</ele>
        <time>2020-06-15T11:02:12Z</time>
      </trkpt>
      <trkpt lat="49.58698" lon="-1.26498">
        <ele>2.8</ele>
        <time>2020-06-15T11:02:13Z</time>
      </trkpt>
      <trkpt lat="49.58695" lon="-1.26496">
        <ele>2.8</ele>
        <time>2020-06-15T11:02:14Z</time>
      </trkpt>
      <trkpt lat="49.58693" lon="-1.26493">
        <ele>2.8</ele>
        <time>2020-06-15T11:02:15Z</time>
      </trkpt>
      <trkpt lat="49.58691" lon="-1.2649">
        <ele>2.8</ele>
        <time>2020-06-15T11:02:16Z</time>
      </trkpt>
      <trkpt lat="49.58688" lon="-1.26488">
        <ele>2.8</ele>
        <time>2020-06-15T11:02:17Z</time>
      </trkpt>
      <trkpt lat="49.58687" lon="-1.26488">
        <ele>2.8</ele>
        <time>2020-06-15T11:02:18Z</time>
      </trkpt>
      <trkpt lat="49.58684" lon="-1.26485">
        <ele>2.8</ele>
        <time>2020-06-15T11:02:19Z</time>
      </trkpt>
      <trkpt lat="49.58683" lon="-1.26484">
        <ele>2.8</ele>
        <time>2020-06-15T11:02:20Z</time>
      </trkpt>
      <trkpt lat="49.5868" lon="-1.26481">
        <ele>2.8</ele>
        <time>2020-06-15T11:02:21Z</time>
      </trkpt>
      <trkpt lat="49.58679" lon="-1.2648">
        <ele>2.8</ele>
        <time>2020-06-15T11:02:22Z</time>
      </trkpt>
      <trkpt lat="49.58675" lon="-1.26478">
        <ele>2.8</ele>
        <time>2020-06-15T11:02:23Z</time>
      </trkpt>
      <trkpt lat="49.58674" lon="-1.26477">
        <ele>2.7</ele>
        <time>2020-06-15T11:02:24Z</time>
      </trkpt>
      <trkpt lat="49.58671" lon="-1.26475">
        <ele>2.7</ele>
        <time>2020-06-15T11:02:25Z</time>
      </trkpt>
      <trkpt lat="49.58668" lon="-1.26473">
        <ele>2.7</ele>
        <time>2020-06-15T11:02:26Z</time>
      </trkpt>
      <trkpt lat="49.58666" lon="-1.26471">
        <ele>2.7</ele>
        <time>2020-06-15T11:02:27Z</time>
      </trkpt>
      <trkpt lat="49.58663" lon="-1.26469">
        <ele>2.7</ele>
        <time>2020-06-15T11:02:28Z</time>
      </trkpt>
      <trkpt lat="49.5866" lon="-1.26466">
        <ele>2.7</ele>
        <time>2020-06-15T11:02:29Z</time>
      </trkpt>
      <trkpt lat="49.58659" lon="-1.26464">
        <ele>2.7</ele>
        <time>2020-06-15T11:02:30Z</time>
      </trkpt>
      <trkpt lat="49.58656" lon="-1.26464">
        <ele>2.7</ele>
        <time>2020-06-15T11:02:31Z</time>
      </trkpt>
      <trkpt lat="49.58655" lon="-1.26462">
        <ele>2.7</ele>
        <time>2020-06-15T11:02:32Z</time>
      </trkpt>
      <trkpt lat="49.58653" lon="-1.26461">
        <ele>2.7</ele>
        <time>2020-06-15T11:02:33Z</time>
      </trkpt>
      <trkpt lat="49.58651" lon="-1.26459">
        <ele>2.7</ele>
        <time>2020-06-15T11:02:34Z</time>
      </trkpt>
      <trkpt lat="49.5865" lon="-1.26459">
        <ele>2.7</ele>
        <time>2020-06-15T11:02:35Z</time>
      </trkpt>
      <trkpt lat="49.58647" lon="-1.26455">
        <ele>2.7</ele>
        <time>2020-06-15T11:02:36Z</time>
      </trkpt>
      <trkpt lat="49.58646" lon="-1.26454">
        <ele>2.7</ele>
        <time>2020-06-15T11:02:37Z</time>
      </trkpt>
      <trkpt lat="49.58643" lon="-1.26451">
        <ele>2.7</ele>
        <time>2020-06-15T11:02:38Z</time>
      </trkpt>
      <trkpt lat="49.58642" lon="-1.2645">
        <ele>2.7</ele>
        <time>2020-06-15T11:02:39Z</time>
      </trkpt>
      <trkpt lat="49.58639" lon="-1.2645">
        <ele>2.7</ele>
        <time>2020-06-15T11:02:40Z</time>
      </trkpt>
      <trkpt lat="49.58638" lon="-1.2645">
        <ele>2.7</ele>
        <time>2020-06-15T11:02:41Z</time>
      </trkpt>
      <trkpt lat="49.58636" lon="-1.26448">
        <ele>2.8</ele>
        <time>2020-06-15T11:02:42Z</time>
      </trkpt>
      <trkpt lat="49.58635" lon="-1.26448">
        <ele>2.8</ele>
        <time>2020-06-15T11:02:43Z</time>
      </trkpt>
      <trkpt lat="49.58632" lon="-1.26447">
        <ele>2.8</ele>
        <time>2020-06-15T11:02:44Z</time>
      </trkpt>
      <trkpt lat="49.5863" lon="-1.26448">
        <ele>2.8</ele>
        <time>2020-06-15T11:02:45Z</time>
      </trkpt>
      <trkpt lat="49.58627" lon="-1.26449">
        <ele>2.9</ele>
        <time>2020-06-15T11:02:46Z</time>
      </trkpt>
      <trkpt lat="49.58626" lon="-1.2645">
        <ele>2.9</ele>
        <time>2020-06-15T11:02:47Z</time>
      </trkpt>
      <trkpt lat="49.58622" lon="-1.26452">
        <ele>2.9</ele>
        <time>2020-06-15T11:02:48Z</time>
      </trkpt>
      <trkpt lat="49.58621" lon="-1.26453">
        <ele>3</ele>
        <time>2020-06-15T11:02:49Z</time>
      </trkpt>
      <trkpt lat="49.58619" lon="-1.26454">
        <ele>3</ele>
        <time>2020-06-15T11:02:50Z</time>
      </trkpt>
      <trkpt lat="49.58615" lon="-1.26459">
        <ele>3</ele>
        <time>2020-06-15T11:02:51Z</time>
      </trkpt>
      <trkpt lat="49.58613" lon="-1.2646">
        <ele>3</ele>
        <time>2020-06-15T11:02:52Z</time>
      </trkpt>
      <trkpt lat="49.58613" lon="-1.26466">
        <ele>3</ele>
        <time>2020-06-15T11:02:53Z</time>
      </trkpt>
      <trkpt lat="49.58613" lon="-1.26468">
        <ele>3</ele>
        <time>2020-06-15T11:02:54Z</time>
      </trkpt>
      <trkpt lat="49.58614" lon="-1.26473">
        <ele>3</ele>
        <time>2020-06-15T11:02:55Z</time>
      </trkpt>
      <trkpt lat="49.58614" lon="-1.26475">
        <ele>3</ele>
        <time>2020-06-15T11:02:56Z</time>
      </trkpt>
      <trkpt lat="49.58615" lon="-1.26478">
        <ele>3</ele>
        <time>2020-06-15T11:02:57Z</time>
      </trkpt>
      <trkpt lat="49.58618" lon="-1.26482">
        <ele>3</ele>
        <time>2020-06-15T11:02:58Z</time>
      </trkpt>
      <trkpt lat="49.5862" lon="-1.26485">
        <ele>3</ele>
        <time>2020-06-15T11:02:59Z</time>
      </trkpt>
      <trkpt lat="49.58623" lon="-1.26489">
        <ele>3</ele>
        <time>2020-06-15T11:03:00Z</time>
      </trkpt>
      <trkpt lat="49.58626" lon="-1.26493">
        <ele>3</ele>
        <time>2020-06-15T11:03:01Z</time>
      </trkpt>
      <trkpt lat="49.58628" lon="-1.26496">
        <ele>3</ele>
        <time>2020-06-15T11:03:02Z</time>
      </trkpt>
      <trkpt lat="49.5863" lon="-1.265">
        <ele>3</ele>
        <time>2020-06-15T11:03:03Z</time>
      </trkpt>
      <trkpt lat="49.58632" lon="-1.26504">
        <ele>3</ele>
        <time>2020-06-15T11:03:04Z</time>
      </trkpt>
      <trkpt lat="49.58634" lon="-1.26508">
        <ele>3</ele>
        <time>2020-06-15T11:03:05Z</time>
      </trkpt>
      <trkpt lat="49.58636" lon="-1.26511">
        <ele>3</ele>
        <time>2020-06-15T11:03:06Z</time>
      </trkpt>
      <trkpt lat="49.58638" lon="-1.26514">
        <ele>3</ele>
        <time>2020-06-15T11:03:07Z</time>
      </trkpt>
      <trkpt lat="49.5864" lon="-1.26519">
        <ele>3</ele>
        <time>2020-06-15T11:03:08Z</time>
      </trkpt>
      <trkpt lat="49.58641" lon="-1.26521">
        <ele>3</ele>
        <time>2020-06-15T11:03:09Z</time>
      </trkpt>
      <trkpt lat="49.58644" lon="-1.26523">
        <ele>3</ele>
        <time>2020-06-15T11:03:10Z</time>
      </trkpt>
      <trkpt lat="49.58646" lon="-1.26526">
        <ele>3</ele>
        <time>2020-06-15T11:03:11Z</time>
      </trkpt>
      <trkpt lat="49.58647" lon="-1.26531">
        <ele>3</ele>
        <time>2020-06-15T11:03:12Z</time>
      </trkpt>
      <trkpt lat="49.58648" lon="-1.26535">
        <ele>3</ele>
        <time>2020-06-15T11:03:13Z</time>
      </trkpt>
      <trkpt lat="49.58649" lon="-1.2654">
        <ele>3</ele>
        <time>2020-06-15T11:03:14Z</time>
      </trkpt>
      <trkpt lat="49.58651" lon="-1.26544">
        <ele>3</ele>
        <time>2020-06-15T11:03:15Z</time>
      </trkpt>
      <trkpt lat="49.58651" lon="-1.26545">
        <ele>3</ele>
        <time>2020-06-15T11:03:16Z</time>
      </trkpt>
      <trkpt lat="49.58652" lon="-1.26547">
        <ele>3</ele>
        <time>2020-06-15T11:03:17Z</time>
      </trkpt>
      <trkpt lat="49.58653" lon="-1.26549">
        <ele>3</ele>
        <time>2020-06-15T11:03:18Z</time>
      </trkpt>
      <trkpt lat="49.58652" lon="-1.26552">
        <ele>3</ele>
        <time>2020-06-15T11:03:19Z</time>
      </trkpt>
      <trkpt lat="49.58652" lon="-1.26553">
        <ele>3</ele>
        <time>2020-06-15T11:03:20Z</time>
      </trkpt>
      <trkpt lat="49.58652" lon="-1.26554">
        <ele>3</ele>
        <time>2020-06-15T11:03:21Z</time>
      </trkpt>
      <trkpt lat="49.58652" lon="-1.26556">
        <ele>3</ele>
        <time>2020-06-15T11:03:22Z</time>
      </trkpt>
      <trkpt lat="49.58651" lon="-1.26559">
        <ele>2.9</ele>
        <time>2020-06-15T11:03:23Z</time>
      </trkpt>
      <trkpt lat="49.58651" lon="-1.26561">
        <ele>2.9</ele>
        <time>2020-06-15T11:03:24Z</time>
      </trkpt>
      <trkpt lat="49.5865" lon="-1.26564">
        <ele>2.9</ele>
        <time>2020-06-15T11:03:25Z</time>
      </trkpt>
      <trkpt lat="49.58649" lon="-1.26569">
        <ele>2.9</ele>
        <time>2020-06-15T11:03:26Z</time>
      </trkpt>
      <trkpt lat="49.58649" lon="-1.26571">
        <ele>2.9</ele>
        <time>2020-06-15T11:03:27Z</time>
      </trkpt>
      <trkpt lat="49.5865" lon="-1.26576">
        <ele>2.9</ele>
        <time>2020-06-15T11:03:28Z</time>
      </trkpt>
      <trkpt lat="49.58651" lon="-1.2658">
        <ele>2.9</ele>
        <time>2020-06-15T11:03:29Z</time>
      </trkpt>
      <trkpt lat="49.58652" lon="-1.26584">
        <ele>2.9</ele>
        <time>2020-06-15T11:03:30Z</time>
      </trkpt>
      <trkpt lat="49.58653" lon="-1.2659">
        <ele>2.9</ele>
        <time>2020-06-15T11:03:31Z</time>
      </trkpt>
      <trkpt lat="49.58653" lon="-1.26593">
        <ele>2.9</ele>
        <time>2020-06-15T11:03:32Z</time>
      </trkpt>
      <trkpt lat="49.58653" lon="-1.26597">
        <ele>2.8</ele>
        <time>2020-06-15T11:03:33Z</time>
      </trkpt>
      <trkpt lat="49.58653" lon="-1.26602">
        <ele>2.8</ele>
        <time>2020-06-15T11:03:34Z</time>
      </trkpt>
      <trkpt lat="49.58653" lon="-1.26606">
        <ele>2.8</ele>
        <time>2020-06-15T11:03:35Z</time>
      </trkpt>
      <trkpt lat="49.58654" lon="-1.26611">
        <ele>2.8</ele>
        <time>2020-06-15T11:03:36Z</time>
      </trkpt>
      <trkpt lat="49.58654" lon="-1.26614">
        <ele>2.8</ele>
        <time>2020-06-15T11:03:37Z</time>
      </trkpt>
      <trkpt lat="49.58655" lon="-1.26618">
        <ele>2.8</ele>
        <time>2020-06-15T11:03:38Z</time>
      </trkpt>
      <trkpt lat="49.58656" lon="-1.26624">
        <ele>2.8</ele>
        <time>2020-06-15T11:03:39Z</time>
      </trkpt>
      <trkpt lat="49.58656" lon="-1.26625">
        <ele>2.8</ele>
        <time>2020-06-15T11:03:40Z</time>
      </trkpt>
      <trkpt lat="49.58657" lon="-1.26631">
        <ele>2.8</ele>
        <time>2020-06-15T11:03:41Z</time>
      </trkpt>
      <trkpt lat="49.58658" lon="-1.26633">
        <ele>2.8</ele>
        <time>2020-06-15T11:03:42Z</time>
      </trkpt>
      <trkpt lat="49.58657" lon="-1.26639">
        <ele>2.7</ele>
        <time>2020-06-15T11:03:43Z</time>
      </trkpt>
      <trkpt lat="49.58658" lon="-1.26641">
        <ele>2.7</ele>
        <time>2020-06-15T11:03:44Z</time>
      </trkpt>
      <trkpt lat="49.58659" lon="-1.26646">
        <ele>2.7</ele>
        <time>2020-06-15T11:03:45Z</time>
      </trkpt>
      <trkpt lat="49.5866" lon="-1.26648">
        <ele>2.7</ele>
        <time>2020-06-15T11:03:46Z</time>
      </trkpt>
      <trkpt lat="49.58661" lon="-1.26649">
        <ele>2.7</ele>
        <time>2020-06-15T11:03:47Z</time>
      </trkpt>
      <trkpt lat="49.58662" lon="-1.26651">
        <ele>2.7</ele>
        <time>2020-06-15T11:03:48Z</time>
      </trkpt>
      <trkpt lat="49.58662" lon="-1.26655">
        <ele>2.7</ele>
        <time>2020-06-15T11:03:49Z</time>
      </trkpt>
      <trkpt lat="49.58662" lon="-1.26657">
        <ele>2.7</ele>
        <time>2020-06-15T11:03:50Z</time>
      </trkpt>
      <trkpt lat="49.58663" lon="-1.26663">
        <ele>2.7</ele>
        <time>2020-06-15T11:03:51Z</time>
      </trkpt>
      <trkpt lat="49.58663" lon="-1.26665">
        <ele>2.7</ele>
        <time>2020-06-15T11:03:52Z</time>
      </trkpt>
      <trkpt lat="49.58665" lon="-1.2667">
        <ele>2.7</ele>
        <time>2020-06-15T11:03:53Z</time>
      </trkpt>
      <trkpt lat="49.58666" lon="-1.26676">
        <ele>2.7</ele>
        <time>2020-06-15T11:03:54Z</time>
      </trkpt>
      <trkpt lat="49.58667" lon="-1.26677">
        <ele>2.7</ele>
        <time>2020-06-15T11:03:55Z</time>
      </trkpt>
      <trkpt lat="49.58668" lon="-1.26682">
        <ele>2.7</ele>
        <time>2020-06-15T11:03:56Z</time>
      </trkpt>
      <trkpt lat="49.58669" lon="-1.26687">
        <ele>2.8</ele>
        <time>2020-06-15T11:03:57Z</time>
      </trkpt>
      <trkpt lat="49.5867" lon="-1.26692">
        <ele>2.8</ele>
        <time>2020-06-15T11:03:58Z</time>
      </trkpt>
      <trkpt lat="49.58671" lon="-1.26698">
        <ele>2.8</ele>
        <time>2020-06-15T11:03:59Z</time>
      </trkpt>
      <trkpt lat="49.58671" lon="-1.267">
        <ele>2.9</ele>
        <time>2020-06-15T11:04:00Z</time>
      </trkpt>
      <trkpt lat="49.5867" lon="-1.26705">
        <ele>2.9</ele>
        <time>2020-06-15T11:04:01Z</time>
      </trkpt>
      <trkpt lat="49.5867" lon="-1.26707">
        <ele>2.9</ele>
        <time>2020-06-15T11:04:02Z</time>
      </trkpt>
      <trkpt lat="49.5867" lon="-1.26711">
        <ele>2.9</ele>
        <time>2020-06-15T11:04:03Z</time>
      </trkpt>
      <trkpt lat="49.58671" lon="-1.26716">
        <ele>3</ele>
        <time>2020-06-15T11:04:04Z</time>
      </trkpt>
      <trkpt lat="49.58671" lon="-1.26718">
        <ele>3</ele>
        <time>2020-06-15T11:04:05Z</time>
      </trkpt>
      <trkpt lat="49.58671" lon="-1.26722">
        <ele>3</ele>
        <time>2020-06-15T11:04:06Z</time>
      </trkpt>
      <trkpt lat="49.58671" lon="-1.26724">
        <ele>3</ele>
        <time>2020-06-15T11:04:07Z</time>
      </trkpt>
      <trkpt lat="49.58671" lon="-1.26728">
        <ele>3.1</ele>
        <time>2020-06-15T11:04:08Z</time>
      </trkpt>
      <trkpt lat="49.5867" lon="-1.26733">
        <ele>3.1</ele>
        <time>2020-06-15T11:04:09Z</time>
      </trkpt>
      <trkpt lat="49.58671" lon="-1.26738">
        <ele>3.2</ele>
        <time>2020-06-15T11:04:10Z</time>
      </trkpt>
      <trkpt lat="49.58674" lon="-1.26741">
        <ele>3.2</ele>
        <time>2020-06-15T11:04:11Z</time>
      </trkpt>
      <trkpt lat="49.58677" lon="-1.26742">
        <ele>3.2</ele>
        <time>2020-06-15T11:04:12Z</time>
      </trkpt>
      <trkpt lat="49.58681" lon="-1.2674">
        <ele>3.2</ele>
        <time>2020-06-15T11:04:13Z</time>
      </trkpt>
      <trkpt lat="49.58682" lon="-1.26739">
        <ele>3.2</ele>
        <time>2020-06-15T11:04:14Z</time>
      </trkpt>
      <trkpt lat="49.58685" lon="-1.26739">
        <ele>3.3</ele>
        <time>2020-06-15T11:04:15Z</time>
      </trkpt>
      <trkpt lat="49.58689" lon="-1.26738">
        <ele>3.4</ele>
        <time>2020-06-15T11:04:16Z</time>
      </trkpt>
      <trkpt lat="49.58691" lon="-1.26737">
        <ele>3.5</ele>
        <time>2020-06-15T11:04:17Z</time>
      </trkpt>
      <trkpt lat="49.58694" lon="-1.26735">
        <ele>3.6</ele>
        <time>2020-06-15T11:04:18Z</time>
      </trkpt>
      <trkpt lat="49.58697" lon="-1.26731">
        <ele>3.7</ele>
        <time>2020-06-15T11:04:19Z</time>
      </trkpt>
      <trkpt lat="49.58699" lon="-1.26726">
        <ele>3.7</ele>
        <time>2020-06-15T11:04:20Z</time>
      </trkpt>
      <trkpt lat="49.58701" lon="-1.26721">
        <ele>3.7</ele>
        <time>2020-06-15T11:04:21Z</time>
      </trkpt>
      <trkpt lat="49.58704" lon="-1.26717">
        <ele>3.7</ele>
        <time>2020-06-15T11:04:22Z</time>
      </trkpt>
      <trkpt lat="49.58706" lon="-1.26713">
        <ele>3.7</ele>
        <time>2020-06-15T11:04:23Z</time>
      </trkpt>
      <trkpt lat="49.58708" lon="-1.2671">
        <ele>3.7</ele>
        <time>2020-06-15T11:04:24Z</time>
      </trkpt>
      <trkpt lat="49.5871" lon="-1.26706">
        <ele>3.7</ele>
        <time>2020-06-15T11:04:25Z</time>
      </trkpt>
      <trkpt lat="49.58711" lon="-1.26705">
        <ele>3.7</ele>
        <time>2020-06-15T11:04:26Z</time>
      </trkpt>
      <trkpt lat="49.58713" lon="-1.26701">
        <ele>3.7</ele>
        <time>2020-06-15T11:04:27Z</time>
      </trkpt>
      <trkpt lat="49.58715" lon="-1.26697">
        <ele>3.7</ele>
        <time>2020-06-15T11:04:28Z</time>
      </trkpt>
      <trkpt lat="49.58718" lon="-1.26693">
        <ele>3.6</ele>
        <time>2020-06-15T11:04:29Z</time>
      </trkpt>
      <trkpt lat="49.58721" lon="-1.26689">
        <ele>3.6</ele>
        <time>2020-06-15T11:04:30Z</time>
      </trkpt>
      <trkpt lat="49.58722" lon="-1.26684">
        <ele>3.5</ele>
        <time>2020-06-15T11:04:31Z</time>
      </trkpt>
      <trkpt lat="49.58725" lon="-1.26679">
        <ele>3.5</ele>
        <time>2020-06-15T11:04:32Z</time>
      </trkpt>
      <trkpt lat="49.58726" lon="-1.26678">
        <ele>3.5</ele>
        <time>2020-06-15T11:04:33Z</time>
      </trkpt>
      <trkpt lat="49.58728" lon="-1.26674">
        <ele>3.5</ele>
        <time>2020-06-15T11:04:34Z</time>
      </trkpt>
      <trkpt lat="49.5873" lon="-1.2667">
        <ele>3.5</ele>
        <time>2020-06-15T11:04:35Z</time>
      </trkpt>
      <trkpt lat="49.58731" lon="-1.26669">
        <ele>3.5</ele>
        <time>2020-06-15T11:04:36Z</time>
      </trkpt>
      <trkpt lat="49.58734" lon="-1.26665">
        <ele>3.5</ele>
        <time>2020-06-15T11:04:37Z</time>
      </trkpt>
      <trkpt lat="49.58735" lon="-1.26664">
        <ele>3.5</ele>
        <time>2020-06-15T11:04:38Z</time>
      </trkpt>
      <trkpt lat="49.58738" lon="-1.26661">
        <ele>3.5</ele>
        <time>2020-06-15T11:04:39Z</time>
      </trkpt>
      <trkpt lat="49.58741" lon="-1.26657">
        <ele>3.5</ele>
        <time>2020-06-15T11:04:40Z</time>
      </trkpt>
      <trkpt lat="49.58745" lon="-1.26653">
        <ele>3.5</ele>
        <time>2020-06-15T11:04:41Z</time>
      </trkpt>
      <trkpt lat="49.58747" lon="-1.2665">
        <ele>3.5</ele>
        <time>2020-06-15T11:04:42Z</time>
      </trkpt>
      <trkpt lat="49.5875" lon="-1.26646">
        <ele>3.5</ele>
        <time>2020-06-15T11:04:43Z</time>
      </trkpt>
      <trkpt lat="49.58753" lon="-1.2664">
        <ele>3.5</ele>
        <time>2020-06-15T11:04:44Z</time>
      </trkpt>
      <trkpt lat="49.58755" lon="-1.26637">
        <ele>3.5</ele>
        <time>2020-06-15T11:04:45Z</time>
      </trkpt>
      <trkpt lat="49.58758" lon="-1.26633">
        <ele>3.5</ele>
        <time>2020-06-15T11:04:46Z</time>
      </trkpt>
      <trkpt lat="49.58759" lon="-1.26631">
        <ele>3.5</ele>
        <time>2020-06-15T11:04:47Z</time>
      </trkpt>
      <trkpt lat="49.5876" lon="-1.26628">
        <ele>3.4</ele>
        <time>2020-06-15T11:04:48Z</time>
      </trkpt>
      <trkpt lat="49.58761" lon="-1.26628">
        <ele>3.4</ele>
        <time>2020-06-15T11:04:49Z</time>
      </trkpt>
      <trkpt lat="49.58763" lon="-1.26626">
        <ele>3.4</ele>
        <time>2020-06-15T11:04:50Z</time>
      </trkpt>
      <trkpt lat="49.58764" lon="-1.26627">
        <ele>3.3</ele>
        <time>2020-06-15T11:04:51Z</time>
      </trkpt>
      <trkpt lat="49.58765" lon="-1.26627">
        <ele>3.3</ele>
        <time>2020-06-15T11:04:52Z</time>
      </trkpt>
      <trkpt lat="49.58767" lon="-1.26629">
        <ele>3.2</ele>
        <time>2020-06-15T11:04:53Z</time>
      </trkpt>
      <trkpt lat="49.58768" lon="-1.2663">
        <ele>3.3</ele>
        <time>2020-06-15T11:04:54Z</time>
      </trkpt>
      <trkpt lat="49.58769" lon="-1.26631">
        <ele>3.3</ele>
        <time>2020-06-15T11:04:55Z</time>
      </trkpt>
      <trkpt lat="49.5877" lon="-1.26632">
        <ele>3.3</ele>
        <time>2020-06-15T11:04:56Z</time>
      </trkpt>
      <trkpt lat="49.5877" lon="-1.2663">
        <ele>3.3</ele>
        <time>2020-06-15T11:04:57Z</time>
      </trkpt>
      <trkpt lat="49.58769" lon="-1.26631">
        <ele>3.3</ele>
        <time>2020-06-15T11:04:58Z</time>
      </trkpt>
      <trkpt lat="49.58769" lon="-1.2663">
        <ele>3.3</ele>
        <time>2020-06-15T11:04:59Z</time>
      </trkpt>
      <trkpt lat="49.58769" lon="-1.26631">
        <ele>3.3</ele>
        <time>2020-06-15T11:05:00Z</time>
      </trkpt>
      <trkpt lat="49.58768" lon="-1.2663">
        <ele>3.3</ele>
        <time>2020-06-15T11:05:01Z</time>
      </trkpt>
      <trkpt lat="49.58768" lon="-1.2663">
        <ele>3.3</ele>
        <time>2020-06-15T11:05:02Z</time>
      </trkpt>
      <trkpt lat="49.58769" lon="-1.26633">
        <ele>3.3</ele>
        <time>2020-06-15T11:05:03Z</time>
      </trkpt>
      <trkpt lat="49.58771" lon="-1.26634">
        <ele>3.3</ele>
        <time>2020-06-15T11:05:04Z</time>
      </trkpt>
      <trkpt lat="49.58772" lon="-1.26635">
        <ele>3.3</ele>
        <time>2020-06-15T11:05:05Z</time>
      </trkpt>
      <trkpt lat="49.58773" lon="-1.26638">
        <ele>3.3</ele>
        <time>2020-06-15T11:05:06Z</time>
      </trkpt>
      <trkpt lat="49.58775" lon="-1.26644">
        <ele>3.3</ele>
        <time>2020-06-15T11:05:07Z</time>
      </trkpt>
      <trkpt lat="49.58777" lon="-1.26646">
        <ele>3.3</ele>
        <time>2020-06-15T11:05:08Z</time>
      </trkpt>
      <trkpt lat="49.58779" lon="-1.2665">
        <ele>3.3</ele>
        <time>2020-06-15T11:05:09Z</time>
      </trkpt>
      <trkpt lat="49.58781" lon="-1.26655">
        <ele>3.3</ele>
        <time>2020-06-15T11:05:10Z</time>
      </trkpt>
      <trkpt lat="49.58782" lon="-1.26659">
        <ele>3.3</ele>
        <time>2020-06-15T11:05:11Z</time>
      </trkpt>
      <trkpt lat="49.58784" lon="-1.26664">
        <ele>3.3</ele>
        <time>2020-06-15T11:05:12Z</time>
      </trkpt>
      <trkpt lat="49.58785" lon="-1.26669">
        <ele>3.3</ele>
        <time>2020-06-15T11:05:13Z</time>
      </trkpt>
      <trkpt lat="49.58787" lon="-1.26675">
        <ele>3.3</ele>
        <time>2020-06-15T11:05:14Z</time>
      </trkpt>
      <trkpt lat="49.58789" lon="-1.2668">
        <ele>3.3</ele>
        <time>2020-06-15T11:05:15Z</time>
      </trkpt>
      <trkpt lat="49.58791" lon="-1.26684">
        <ele>3.3</ele>
        <time>2020-06-15T11:05:16Z</time>
      </trkpt>
      <trkpt lat="49.58794" lon="-1.26689">
        <ele>3.3</ele>
        <time>2020-06-15T11:05:17Z</time>
      </trkpt>
      <trkpt lat="49.58796" lon="-1.26694">
        <ele>3.3</ele>
        <time>2020-06-15T11:05:18Z</time>
      </trkpt>
      <trkpt lat="49.58798" lon="-1.26698">
        <ele>3.4</ele>
        <time>2020-06-15T11:05:19Z</time>
      </trkpt>
      <trkpt lat="49.58799" lon="-1.26703">
        <ele>3.4</ele>
        <time>2020-06-15T11:05:20Z</time>
      </trkpt>
      <trkpt lat="49.58801" lon="-1.26709">
        <ele>3.4</ele>
        <time>2020-06-15T11:05:21Z</time>
      </trkpt>
      <trkpt lat="49.58803" lon="-1.26713">
        <ele>3.4</ele>
        <time>2020-06-15T11:05:22Z</time>
      </trkpt>
      <trkpt lat="49.58805" lon="-1.26716">
        <ele>3.4</ele>
        <time>2020-06-15T11:05:23Z</time>
      </trkpt>
      <trkpt lat="49.58807" lon="-1.2672">
        <ele>3.4</ele>
        <time>2020-06-15T11:05:24Z</time>
      </trkpt>
      <trkpt lat="49.58807" lon="-1.26726">
        <ele>3.4</ele>
        <time>2020-06-15T11:05:25Z</time>
      </trkpt>
      <trkpt lat="49.58807" lon="-1.26729">
        <ele>3.4</ele>
        <time>2020-06-15T11:05:26Z</time>
      </trkpt>
      <trkpt lat="49.58808" lon="-1.26733">
        <ele>3.4</ele>
        <time>2020-06-15T11:05:27Z</time>
      </trkpt>
      <trkpt lat="49.58809" lon="-1.26739">
        <ele>3.4</ele>
        <time>2020-06-15T11:05:28Z</time>
      </trkpt>
      <trkpt lat="49.5881" lon="-1.26741">
        <ele>3.4</ele>
        <time>2020-06-15T11:05:29Z</time>
      </trkpt>
      <trkpt lat="49.58812" lon="-1.26744">
        <ele>3.4</ele>
        <time>2020-06-15T11:05:30Z</time>
      </trkpt>
      <trkpt lat="49.58812" lon="-1.26745">
        <ele>3.4</ele>
        <time>2020-06-15T11:05:31Z</time>
      </trkpt>
      <trkpt lat="49.58816" lon="-1.26742">
        <ele>3.3</ele>
        <time>2020-06-15T11:05:32Z</time>
      </trkpt>
      <trkpt lat="49.58818" lon="-1.26741">
        <ele>3.3</ele>
        <time>2020-06-15T11:05:33Z</time>
      </trkpt>
      <trkpt lat="49.58822" lon="-1.26739">
        <ele>3.2</ele>
        <time>2020-06-15T11:05:34Z</time>
      </trkpt>
      <trkpt lat="49.58825" lon="-1.26736">
        <ele>3.2</ele>
        <time>2020-06-15T11:05:35Z</time>
      </trkpt>
      <trkpt lat="49.5883" lon="-1.26735">
        <ele>3.1</ele>
        <time>2020-06-15T11:05:36Z</time>
      </trkpt>
      <trkpt lat="49.58834" lon="-1.26734">
        <ele>3</ele>
        <time>2020-06-15T11:05:37Z</time>
      </trkpt>
      <trkpt lat="49.58838" lon="-1.26731">
        <ele>3</ele>
        <time>2020-06-15T11:05:38Z</time>
      </trkpt>
      <trkpt lat="49.58842" lon="-1.26729">
        <ele>2.9</ele>
        <time>2020-06-15T11:05:39Z</time>
      </trkpt>
      <trkpt lat="49.58845" lon="-1.26726">
        <ele>2.8</ele>
        <time>2020-06-15T11:05:40Z</time>
      </trkpt>
      <trkpt lat="49.58847" lon="-1.26722">
        <ele>2.8</ele>
        <time>2020-06-15T11:05:41Z</time>
      </trkpt>
      <trkpt lat="49.58851" lon="-1.2672">
        <ele>2.8</ele>
        <time>2020-06-15T11:05:42Z</time>
      </trkpt>
      <trkpt lat="49.58855" lon="-1.26715">
        <ele>2.7</ele>
        <time>2020-06-15T11:05:43Z</time>
      </trkpt>
      <trkpt lat="49.58858" lon="-1.26714">
        <ele>2.7</ele>
        <time>2020-06-15T11:05:44Z</time>
      </trkpt>
      <trkpt lat="49.58862" lon="-1.26712">
        <ele>2.7</ele>
        <time>2020-06-15T11:05:45Z</time>
      </trkpt>
      <trkpt lat="49.58866" lon="-1.2671">
        <ele>2.7</ele>
        <time>2020-06-15T11:05:46Z</time>
      </trkpt>
      <trkpt lat="49.5887" lon="-1.26708">
        <ele>2.7</ele>
        <time>2020-06-15T11:05:47Z</time>
      </trkpt>
      <trkpt lat="49.58873" lon="-1.26704">
        <ele>2.7</ele>
        <time>2020-06-15T11:05:48Z</time>
      </trkpt>
      <trkpt lat="49.58876" lon="-1.26702">
        <ele>2.7</ele>
        <time>2020-06-15T11:05:49Z</time>
      </trkpt>
      <trkpt lat="49.5888" lon="-1.26701">
        <ele>2.7</ele>
        <time>2020-06-15T11:05:50Z</time>
      </trkpt>
      <trkpt lat="49.58883" lon="-1.267">
        <ele>2.7</ele>
        <time>2020-06-15T11:05:51Z</time>
      </trkpt>
      <trkpt lat="49.58887" lon="-1.26698">
        <ele>2.7</ele>
        <time>2020-06-15T11:05:52Z</time>
      </trkpt>
      <trkpt lat="49.58892" lon="-1.26695">
        <ele>2.7</ele>
        <time>2020-06-15T11:05:53Z</time>
      </trkpt>
      <trkpt lat="49.58896" lon="-1.26692">
        <ele>2.7</ele>
        <time>2020-06-15T11:05:54Z</time>
      </trkpt>
      <trkpt lat="49.58899" lon="-1.26689">
        <ele>2.7</ele>
        <time>2020-06-15T11:05:55Z</time>
      </trkpt>
      <trkpt lat="49.58902" lon="-1.26687">
        <ele>2.7</ele>
        <time>2020-06-15T11:05:56Z</time>
      </trkpt>
      <trkpt lat="49.58905" lon="-1.26685">
        <ele>2.7</ele>
        <time>2020-06-15T11:05:57Z</time>
      </trkpt>
      <trkpt lat="49.58908" lon="-1.26684">
        <ele>2.7</ele>
        <time>2020-06-15T11:05:58Z</time>
      </trkpt>
      <trkpt lat="49.58911" lon="-1.26681">
        <ele>2.6</ele>
        <time>2020-06-15T11:05:59Z</time>
      </trkpt>
      <trkpt lat="49.58913" lon="-1.26676">
        <ele>2.6</ele>
        <time>2020-06-15T11:06:00Z</time>
      </trkpt>
      <trkpt lat="49.58915" lon="-1.2667">
        <ele>2.1</ele>
        <time>2020-06-15T11:06:01Z</time>
      </trkpt>
      <trkpt lat="49.58916" lon="-1.26664">
        <ele>1.7</ele>
        <time>2020-06-15T11:06:02Z</time>
      </trkpt>
      <trkpt lat="49.58917" lon="-1.26659">
        <ele>1.3</ele>
        <time>2020-06-15T11:06:03Z</time>
      </trkpt>
      <trkpt lat="49.58917" lon="-1.26654">
        <ele>0.9</ele>
        <time>2020-06-15T11:06:04Z</time>
      </trkpt>
      <trkpt lat="49.58918" lon="-1.26649">
        <ele>0.4</ele>
        <time>2020-06-15T11:06:05Z</time>
      </trkpt>
      <trkpt lat="49.58918" lon="-1.26644">
        <ele>2.4</ele>
        <time>2020-06-15T11:06:06Z</time>
      </trkpt>
      <trkpt lat="49.58918" lon="-1.26639">
        <ele>-0.4</ele>
        <time>2020-06-15T11:06:07Z</time>
      </trkpt>
      <trkpt lat="49.58916" lon="-1.26637">
        <ele>-0.4</ele>
        <time>2020-06-15T11:06:08Z</time>
      </trkpt>
      <trkpt lat="49.58912" lon="-1.26637">
        <ele>-0.3</ele>
        <time>2020-06-15T11:06:09Z</time>
      </trkpt>
      <trkpt lat="49.58908" lon="-1.26638">
        <ele>-0.3</ele>
        <time>2020-06-15T11:06:10Z</time>
      </trkpt>
      <trkpt lat="49.58904" lon="-1.26638">
        <ele>-0.3</ele>
        <time>2020-06-15T11:06:11Z</time>
      </trkpt>
      <trkpt lat="49.58899" lon="-1.2664">
        <ele>-0.3</ele>
        <time>2020-06-15T11:06:12Z</time>
      </trkpt>
      <trkpt lat="49.58895" lon="-1.26641">
        <ele>-0.2</ele>
        <time>2020-06-15T11:06:13Z</time>
      </trkpt>
      <trkpt lat="49.58891" lon="-1.26641">
        <ele>-0.1</ele>
        <time>2020-06-15T11:06:14Z</time>
      </trkpt>
      <trkpt lat="49.58886" lon="-1.26641">
        <ele>-0.1</ele>
        <time>2020-06-15T11:06:15Z</time>
      </trkpt>
      <trkpt lat="49.58882" lon="-1.26641">
        <ele>2.2</ele>
        <time>2020-06-15T11:06:16Z</time>
      </trkpt>
      <trkpt lat="49.58878" lon="-1.26641">
        <ele>0.1</ele>
        <time>2020-06-15T11:06:17Z</time>
      </trkpt>
      <trkpt lat="49.58874" lon="-1.2664">
        <ele>0.1</ele>
        <time>2020-06-15T11:06:18Z</time>
      </trkpt>
      <trkpt lat="49.5887" lon="-1.26638">
        <ele>0.2</ele>
        <time>2020-06-15T11:06:19Z</time>
      </trkpt>
      <trkpt lat="49.58866" lon="-1.26638">
        <ele>0.2</ele>
        <time>2020-06-15T11:06:20Z</time>
      </trkpt>
      <trkpt lat="49.58862" lon="-1.26638">
        <ele>2.1</ele>
        <time>2020-06-15T11:06:21Z</time>
      </trkpt>
      <trkpt lat="49.58859" lon="-1.26638">
        <ele>2.1</ele>
        <time>2020-06-15T11:06:22Z</time>
      </trkpt>
      <trkpt lat="49.58855" lon="-1.26639">
        <ele>2.1</ele>
        <time>2020-06-15T11:06:23Z</time>
      </trkpt>
      <trkpt lat="49.58852" lon="-1.26639">
        <ele>2.1</ele>
        <time>2020-06-15T11:06:24Z</time>
      </trkpt>
      <trkpt lat="49.58848" lon="-1.26639">
        <ele>2.2</ele>
        <time>2020-06-15T11:06:25Z</time>
      </trkpt>
      <trkpt lat="49.58845" lon="-1.26638">
        <ele>2.2</ele>
        <time>2020-06-15T11:06:26Z</time>
      </trkpt>
      <trkpt lat="49.58842" lon="-1.26638">
        <ele>2.2</ele>
        <time>2020-06-15T11:06:27Z</time>
      </trkpt>
      <trkpt lat="49.58838" lon="-1.26638">
        <ele>2.8</ele>
        <time>2020-06-15T11:06:28Z</time>
      </trkpt>
      <trkpt lat="49.58835" lon="-1.26639">
        <ele>2.8</ele>
        <time>2020-06-15T11:06:29Z</time>
      </trkpt>
      <trkpt lat="49.58832" lon="-1.2664">
        <ele>2.9</ele>
        <time>2020-06-15T11:06:30Z</time>
      </trkpt>
      <trkpt lat="49.58828" lon="-1.26641">
        <ele>2.9</ele>
        <time>2020-06-15T11:06:31Z</time>
      </trkpt>
      <trkpt lat="49.58825" lon="-1.26639">
        <ele>2.9</ele>
        <time>2020-06-15T11:06:32Z</time>
      </trkpt>
      <trkpt lat="49.58821" lon="-1.26637">
        <ele>2.9</ele>
        <time>2020-06-15T11:06:33Z</time>
      </trkpt>
      <trkpt lat="49.58817" lon="-1.26633">
        <ele>2.9</ele>
        <time>2020-06-15T11:06:34Z</time>
      </trkpt>
      <trkpt lat="49.58812" lon="-1.26631">
        <ele>2.9</ele>
        <time>2020-06-15T11:06:35Z</time>
      </trkpt>
      <trkpt lat="49.58808" lon="-1.2663">
        <ele>2.9</ele>
        <time>2020-06-15T11:06:36Z</time>
      </trkpt>
      <trkpt lat="49.58803" lon="-1.26629">
        <ele>2.9</ele>
        <time>2020-06-15T11:06:37Z</time>
      </trkpt>
      <trkpt lat="49.588" lon="-1.26627">
        <ele>2.9</ele>
        <time>2020-06-15T11:06:38Z</time>
      </trkpt>
      <trkpt lat="49.58796" lon="-1.26626">
        <ele>2.9</ele>
        <time>2020-06-15T11:06:39Z</time>
      </trkpt>
      <trkpt lat="49.58792" lon="-1.26624">
        <ele>2.9</ele>
        <time>2020-06-15T11:06:40Z</time>
      </trkpt>
      <trkpt lat="49.58789" lon="-1.26623">
        <ele>2.9</ele>
        <time>2020-06-15T11:06:41Z</time>
      </trkpt>
      <trkpt lat="49.58785" lon="-1.26622">
        <ele>3</ele>
        <time>2020-06-15T11:06:42Z</time>
      </trkpt>
      <trkpt lat="49.58782" lon="-1.26622">
        <ele>3</ele>
        <time>2020-06-15T11:06:43Z</time>
      </trkpt>
      <trkpt lat="49.58778" lon="-1.2662">
        <ele>3</ele>
        <time>2020-06-15T11:06:44Z</time>
      </trkpt>
      <trkpt lat="49.58775" lon="-1.26619">
        <ele>3.1</ele>
        <time>2020-06-15T11:06:45Z</time>
      </trkpt>
      <trkpt lat="49.58772" lon="-1.26615">
        <ele>3.1</ele>
        <time>2020-06-15T11:06:46Z</time>
      </trkpt>
      <trkpt lat="49.58767" lon="-1.26614">
        <ele>3.1</ele>
        <time>2020-06-15T11:06:47Z</time>
      </trkpt>
      <trkpt lat="49.58763" lon="-1.26613">
        <ele>3.1</ele>
        <time>2020-06-15T11:06:48Z</time>
      </trkpt>
      <trkpt lat="49.5876" lon="-1.26612">
        <ele>3.2</ele>
        <time>2020-06-15T11:06:49Z</time>
      </trkpt>
      <trkpt lat="49.58757" lon="-1.2661">
        <ele>3.2</ele>
        <time>2020-06-15T11:06:50Z</time>
      </trkpt>
      <trkpt lat="49.58753" lon="-1.26606">
        <ele>3.2</ele>
        <time>2020-06-15T11:06:51Z</time>
      </trkpt>
      <trkpt lat="49.5875" lon="-1.26604">
        <ele>3.2</ele>
        <time>2020-06-15T11:06:52Z</time>
      </trkpt>
      <trkpt lat="49.58747" lon="-1.26601">
        <ele>3.2</ele>
        <time>2020-06-15T11:06:53Z</time>
      </trkpt>
      <trkpt lat="49.58746" lon="-1.26601">
        <ele>3.2</ele>
        <time>2020-06-15T11:06:54Z</time>
      </trkpt>
      <trkpt lat="49.58744" lon="-1.26598">
        <ele>3.2</ele>
        <time>2020-06-15T11:06:55Z</time>
      </trkpt>
      <trkpt lat="49.58743" lon="-1.26597">
        <ele>3.2</ele>
        <time>2020-06-15T11:06:56Z</time>
      </trkpt>
      <trkpt lat="49.5874" lon="-1.26593">
        <ele>3.2</ele>
        <time>2020-06-15T11:06:57Z</time>
      </trkpt>
      <trkpt lat="49.58739" lon="-1.26593">
        <ele>3.2</ele>
        <time>2020-06-15T11:06:58Z</time>
      </trkpt>
      <trkpt lat="49.58738" lon="-1.26589">
        <ele>3.1</ele>
        <time>2020-06-15T11:06:59Z</time>
      </trkpt>
      <trkpt lat="49.58737" lon="-1.26588">
        <ele>3.1</ele>
        <time>2020-06-15T11:07:00Z</time>
      </trkpt>
      <trkpt lat="49.58734" lon="-1.26585">
        <ele>3.1</ele>
        <time>2020-06-15T11:07:01Z</time>
      </trkpt>
      <trkpt lat="49.58733" lon="-1.26584">
        <ele>3.1</ele>
        <time>2020-06-15T11:07:02Z</time>
      </trkpt>
      <trkpt lat="49.58729" lon="-1.26582">
        <ele>3.1</ele>
        <time>2020-06-15T11:07:03Z</time>
      </trkpt>
      <trkpt lat="49.58728" lon="-1.26581">
        <ele>3.1</ele>
        <time>2020-06-15T11:07:04Z</time>
      </trkpt>
      <trkpt lat="49.58724" lon="-1.26578">
        <ele>3.1</ele>
        <time>2020-06-15T11:07:05Z</time>
      </trkpt>
      <trkpt lat="49.58722" lon="-1.26577">
        <ele>3.1</ele>
        <time>2020-06-15T11:07:06Z</time>
      </trkpt>
      <trkpt lat="49.58719" lon="-1.26577">
        <ele>3.1</ele>
        <time>2020-06-15T11:07:07Z</time>
      </trkpt>
      <trkpt lat="49.58718" lon="-1.26576">
        <ele>3.1</ele>
        <time>2020-06-15T11:07:08Z</time>
      </trkpt>
      <trkpt lat="49.58714" lon="-1.26573">
        <ele>3.1</ele>
        <time>2020-06-15T11:07:09Z</time>
      </trkpt>
      <trkpt lat="49.58713" lon="-1.26572">
        <ele>3.1</ele>
        <time>2020-06-15T11:07:10Z</time>
      </trkpt>
      <trkpt lat="49.5871" lon="-1.26569">
        <ele>3.1</ele>
        <time>2020-06-15T11:07:11Z</time>
      </trkpt>
      <trkpt lat="49.58708" lon="-1.26566">
        <ele>3.1</ele>
        <time>2020-06-15T11:07:12Z</time>
      </trkpt>
      <trkpt lat="49.58706" lon="-1.26564">
        <ele>3.1</ele>
        <time>2020-06-15T11:07:13Z</time>
      </trkpt>
      <trkpt lat="49.58705" lon="-1.26563">
        <ele>3.1</ele>
        <time>2020-06-15T11:07:14Z</time>
      </trkpt>
      <trkpt lat="49.58704" lon="-1.26561">
        <ele>3.2</ele>
        <time>2020-06-15T11:07:15Z</time>
      </trkpt>
      <trkpt lat="49.58703" lon="-1.26559">
        <ele>3.2</ele>
        <time>2020-06-15T11:07:16Z</time>
      </trkpt>
      <trkpt lat="49.58701" lon="-1.26554">
        <ele>3.2</ele>
        <time>2020-06-15T11:07:17Z</time>
      </trkpt>
      <trkpt lat="49.58701" lon="-1.26552">
        <ele>3.2</ele>
        <time>2020-06-15T11:07:18Z</time>
      </trkpt>
      <trkpt lat="49.58699" lon="-1.26549">
        <ele>3.3</ele>
        <time>2020-06-15T11:07:19Z</time>
      </trkpt>
      <trkpt lat="49.58699" lon="-1.26547">
        <ele>3.3</ele>
        <time>2020-06-15T11:07:20Z</time>
      </trkpt>
      <trkpt lat="49.58696" lon="-1.26545">
        <ele>3.3</ele>
        <time>2020-06-15T11:07:21Z</time>
      </trkpt>
      <trkpt lat="49.58695" lon="-1.26544">
        <ele>3.3</ele>
        <time>2020-06-15T11:07:22Z</time>
      </trkpt>
      <trkpt lat="49.58693" lon="-1.26543">
        <ele>3.4</ele>
        <time>2020-06-15T11:07:23Z</time>
      </trkpt>
      <trkpt lat="49.58692" lon="-1.26543">
        <ele>3.4</ele>
        <time>2020-06-15T11:07:24Z</time>
      </trkpt>
      <trkpt lat="49.58687" lon="-1.26547">
        <ele>3.4</ele>
        <time>2020-06-15T11:07:25Z</time>
      </trkpt>
      <trkpt lat="49.58683" lon="-1.26547">
        <ele>3.5</ele>
        <time>2020-06-15T11:07:26Z</time>
      </trkpt>
      <trkpt lat="49.5868" lon="-1.26547">
        <ele>3.5</ele>
        <time>2020-06-15T11:07:27Z</time>
      </trkpt>
      <trkpt lat="49.58676" lon="-1.26549">
        <ele>3.5</ele>
        <time>2020-06-15T11:07:28Z</time>
      </trkpt>
      <trkpt lat="49.58674" lon="-1.26551">
        <ele>3.5</ele>
        <time>2020-06-15T11:07:29Z</time>
      </trkpt>
      <trkpt lat="49.58671" lon="-1.26553">
        <ele>3.6</ele>
        <time>2020-06-15T11:07:30Z</time>
      </trkpt>
      <trkpt lat="49.58666" lon="-1.26553">
        <ele>3.6</ele>
        <time>2020-06-15T11:07:31Z</time>
      </trkpt>
      <trkpt lat="49.58665" lon="-1.26554">
        <ele>3.6</ele>
        <time>2020-06-15T11:07:32Z</time>
      </trkpt>
      <trkpt lat="49.58662" lon="-1.26553">
        <ele>3.6</ele>
        <time>2020-06-15T11:07:33Z</time>
      </trkpt>
      <trkpt lat="49.58659" lon="-1.26551">
        <ele>3.5</ele>
        <time>2020-06-15T11:07:34Z</time>
      </trkpt>
      <trkpt lat="49.58658" lon="-1.2655">
        <ele>3.4</ele>
        <time>2020-06-15T11:07:35Z</time>
      </trkpt>
      <trkpt lat="49.58655" lon="-1.26547">
        <ele>3.3</ele>
        <time>2020-06-15T11:07:36Z</time>
      </trkpt>
      <trkpt lat="49.58653" lon="-1.26547">
        <ele>3.3</ele>
        <time>2020-06-15T11:07:37Z</time>
      </trkpt>
      <trkpt lat="49.58651" lon="-1.26543">
        <ele>3.2</ele>
        <time>2020-06-15T11:07:38Z</time>
      </trkpt>
      <trkpt lat="49.58649" lon="-1.26543">
        <ele>3.1</ele>
        <time>2020-06-15T11:07:39Z</time>
      </trkpt>
      <trkpt lat="49.58647" lon="-1.26539">
        <ele>3</ele>
        <time>2020-06-15T11:07:40Z</time>
      </trkpt>
      <trkpt lat="49.58646" lon="-1.26537">
        <ele>3</ele>
        <time>2020-06-15T11:07:41Z</time>
      </trkpt>
      <trkpt lat="49.58643" lon="-1.26532">
        <ele>3</ele>
        <time>2020-06-15T11:07:42Z</time>
      </trkpt>
      <trkpt lat="49.58643" lon="-1.2653">
        <ele>3</ele>
        <time>2020-06-15T11:07:43Z</time>
      </trkpt>
      <trkpt lat="49.5864" lon="-1.26528">
        <ele>3</ele>
        <time>2020-06-15T11:07:44Z</time>
      </trkpt>
      <trkpt lat="49.58637" lon="-1.26524">
        <ele>3</ele>
        <time>2020-06-15T11:07:45Z</time>
      </trkpt>
      <trkpt lat="49.58637" lon="-1.26523">
        <ele>3</ele>
        <time>2020-06-15T11:07:46Z</time>
      </trkpt>
      <trkpt lat="49.58635" lon="-1.26521">
        <ele>3</ele>
        <time>2020-06-15T11:07:47Z</time>
      </trkpt>
      <trkpt lat="49.58634" lon="-1.2652">
        <ele>3</ele>
        <time>2020-06-15T11:07:48Z</time>
      </trkpt>
      <trkpt lat="49.58634" lon="-1.26519">
        <ele>3</ele>
        <time>2020-06-15T11:07:49Z</time>
      </trkpt>
      <trkpt lat="49.58633" lon="-1.26518">
        <ele>3</ele>
        <time>2020-06-15T11:07:50Z</time>
      </trkpt>
      <trkpt lat="49.58632" lon="-1.26517">
        <ele>3</ele>
        <time>2020-06-15T11:07:51Z</time>
      </trkpt>
      <trkpt lat="49.58631" lon="-1.26515">
        <ele>3</ele>
        <time>2020-06-15T11:07:52Z</time>
      </trkpt>
      <trkpt lat="49.5863" lon="-1.26513">
        <ele>3</ele>
        <time>2020-06-15T11:07:53Z</time>
      </trkpt>
      <trkpt lat="49.58629" lon="-1.26511">
        <ele>3</ele>
        <time>2020-06-15T11:07:54Z</time>
      </trkpt>
      <trkpt lat="49.58627" lon="-1.26509">
        <ele>3</ele>
        <time>2020-06-15T11:07:55Z</time>
      </trkpt>
      <trkpt lat="49.58625" lon="-1.26507">
        <ele>3</ele>
        <time>2020-06-15T11:07:56Z</time>
      </trkpt>
      <trkpt lat="49.58624" lon="-1.26506">
        <ele>3</ele>
        <time>2020-06-15T11:07:57Z</time>
      </trkpt>
      <trkpt lat="49.58621" lon="-1.26502">
        <ele>3</ele>
        <time>2020-06-15T11:07:58Z</time>
      </trkpt>
      <trkpt lat="49.58621" lon="-1.26501">
        <ele>3</ele>
        <time>2020-06-15T11:07:59Z</time>
      </trkpt>
      <trkpt lat="49.5862" lon="-1.26495">
        <ele>3</ele>
        <time>2020-06-15T11:08:00Z</time>
      </trkpt>
      <trkpt lat="49.5862" lon="-1.26491">
        <ele>3</ele>
        <time>2020-06-15T11:08:01Z</time>
      </trkpt>
      <trkpt lat="49.58618" lon="-1.26485">
        <ele>3</ele>
        <time>2020-06-15T11:08:02Z</time>
      </trkpt>
      <trkpt lat="49.58617" lon="-1.26485">
        <ele>3</ele>
        <time>2020-06-15T11:08:03Z</time>
      </trkpt>
      <trkpt lat="49.58618" lon="-1.26486">
        <ele>3</ele>
        <time>2020-06-15T11:08:04Z</time>
      </trkpt>
      <trkpt lat="49.58618" lon="-1.26487">
        <ele>3</ele>
        <time>2020-06-15T11:08:05Z</time>
      </trkpt>
      <trkpt lat="49.58619" lon="-1.26489">
        <ele>3</ele>
        <time>2020-06-15T11:08:06Z</time>
      </trkpt>
      <trkpt lat="49.5862" lon="-1.2649">
        <ele>3</ele>
        <time>2020-06-15T11:08:07Z</time>
      </trkpt>
      <trkpt lat="49.58621" lon="-1.26494">
        <ele>3</ele>
        <time>2020-06-15T11:08:08Z</time>
      </trkpt>
      <trkpt lat="49.58623" lon="-1.26498">
        <ele>3</ele>
        <time>2020-06-15T11:08:09Z</time>
      </trkpt>
      <trkpt lat="49.58626" lon="-1.26503">
        <ele>3</ele>
        <time>2020-06-15T11:08:10Z</time>
      </trkpt>
      <trkpt lat="49.58629" lon="-1.26507">
        <ele>3</ele>
        <time>2020-06-15T11:08:11Z</time>
      </trkpt>
      <trkpt lat="49.58631" lon="-1.26511">
        <ele>3</ele>
        <time>2020-06-15T11:08:12Z</time>
      </trkpt>
      <trkpt lat="49.58634" lon="-1.26516">
        <ele>3</ele>
        <time>2020-06-15T11:08:13Z</time>
      </trkpt>
      <trkpt lat="49.58635" lon="-1.26518">
        <ele>3</ele>
        <time>2020-06-15T11:08:14Z</time>
      </trkpt>
      <trkpt lat="49.58637" lon="-1.26522">
        <ele>3</ele>
        <time>2020-06-15T11:08:15Z</time>
      </trkpt>
      <trkpt lat="49.58638" lon="-1.26524">
        <ele>3</ele>
        <time>2020-06-15T11:08:16Z</time>
      </trkpt>
      <trkpt lat="49.58641" lon="-1.26528">
        <ele>3</ele>
        <time>2020-06-15T11:08:17Z</time>
      </trkpt>
      <trkpt lat="49.58642" lon="-1.2653">
        <ele>3</ele>
        <time>2020-06-15T11:08:18Z</time>
      </trkpt>
      <trkpt lat="49.58643" lon="-1.26534">
        <ele>3</ele>
        <time>2020-06-15T11:08:19Z</time>
      </trkpt>
      <trkpt lat="49.58645" lon="-1.26537">
        <ele>3</ele>
        <time>2020-06-15T11:08:20Z</time>
      </trkpt>
      <trkpt lat="49.58646" lon="-1.2654">
        <ele>3</ele>
        <time>2020-06-15T11:08:21Z</time>
      </trkpt>
      <trkpt lat="49.58646" lon="-1.26542">
        <ele>3</ele>
        <time>2020-06-15T11:08:22Z</time>
      </trkpt>
      <trkpt lat="49.58643" lon="-1.26544">
        <ele>3</ele>
        <time>2020-06-15T11:08:23Z</time>
      </trkpt>
      <trkpt lat="49.5864" lon="-1.26547">
        <ele>3</ele>
        <time>2020-06-15T11:08:24Z</time>
      </trkpt>
      <trkpt lat="49.58637" lon="-1.26549">
        <ele>3</ele>
        <time>2020-06-15T11:08:25Z</time>
      </trkpt>
      <trkpt lat="49.58633" lon="-1.26549">
        <ele>3</ele>
        <time>2020-06-15T11:08:26Z</time>
      </trkpt>
      <trkpt lat="49.58629" lon="-1.26551">
        <ele>2.9</ele>
        <time>2020-06-15T11:08:27Z</time>
      </trkpt>
      <trkpt lat="49.58625" lon="-1.26553">
        <ele>2.9</ele>
        <time>2020-06-15T11:08:28Z</time>
      </trkpt>
      <trkpt lat="49.5862" lon="-1.26552">
        <ele>2.9</ele>
        <time>2020-06-15T11:08:29Z</time>
      </trkpt>
      <trkpt lat="49.58616" lon="-1.26553">
        <ele>2.9</ele>
        <time>2020-06-15T11:08:30Z</time>
      </trkpt>
      <trkpt lat="49.58612" lon="-1.26555">
        <ele>2.8</ele>
        <time>2020-06-15T11:08:31Z</time>
      </trkpt>
      <trkpt lat="49.58608" lon="-1.26557">
        <ele>2.8</ele>
        <time>2020-06-15T11:08:32Z</time>
      </trkpt>
      <trkpt lat="49.58603" lon="-1.26559">
        <ele>2.8</ele>
        <time>2020-06-15T11:08:33Z</time>
      </trkpt>
      <trkpt lat="49.586" lon="-1.26562">
        <ele>2.8</ele>
        <time>2020-06-15T11:08:34Z</time>
      </trkpt>
      <trkpt lat="49.58596" lon="-1.26563">
        <ele>2.7</ele>
        <time>2020-06-15T11:08:35Z</time>
      </trkpt>
      <trkpt lat="49.58594" lon="-1.26566">
        <ele>2.7</ele>
        <time>2020-06-15T11:08:36Z</time>
      </trkpt>
      <trkpt lat="49.5859" lon="-1.26567">
        <ele>2.7</ele>
        <time>2020-06-15T11:08:37Z</time>
      </trkpt>
      <trkpt lat="49.58587" lon="-1.26569">
        <ele>2.7</ele>
        <time>2020-06-15T11:08:38Z</time>
      </trkpt>
      <trkpt lat="49.58583" lon="-1.2657">
        <ele>2.7</ele>
        <time>2020-06-15T11:08:39Z</time>
      </trkpt>
      <trkpt lat="49.5858" lon="-1.26572">
        <ele>2.7</ele>
        <time>2020-06-15T11:08:40Z</time>
      </trkpt>
      <trkpt lat="49.58577" lon="-1.26574">
        <ele>2.7</ele>
        <time>2020-06-15T11:08:41Z</time>
      </trkpt>
      <trkpt lat="49.58573" lon="-1.26575">
        <ele>2.6</ele>
        <time>2020-06-15T11:08:42Z</time>
      </trkpt>
      <trkpt lat="49.58569" lon="-1.26575">
        <ele>2.5</ele>
        <time>2020-06-15T11:08:43Z</time>
      </trkpt>
      <trkpt lat="49.58566" lon="-1.26576">
        <ele>2.4</ele>
        <time>2020-06-15T11:08:44Z</time>
      </trkpt>
      <trkpt lat="49.58563" lon="-1.26577">
        <ele>2.3</ele>
        <time>2020-06-15T11:08:45Z</time>
      </trkpt>
      <trkpt lat="49.58559" lon="-1.26579">
        <ele>2.2</ele>
        <time>2020-06-15T11:08:46Z</time>
      </trkpt>
      <trkpt lat="49.58556" lon="-1.26581">
        <ele>2.1</ele>
        <time>2020-06-15T11:08:47Z</time>
      </trkpt>
      <trkpt lat="49.58553" lon="-1.26582">
        <ele>2.1</ele>
        <time>2020-06-15T11:08:48Z</time>
      </trkpt>
      <trkpt lat="49.5855" lon="-1.26584">
        <ele>2</ele>
        <time>2020-06-15T11:08:49Z</time>
      </trkpt>
      <trkpt lat="49.58549" lon="-1.26585">
        <ele>2</ele>
        <time>2020-06-15T11:08:50Z</time>
      </trkpt>
      <trkpt lat="49.58548" lon="-1.26586">
        <ele>2</ele>
        <time>2020-06-15T11:08:51Z</time>
      </trkpt>
      <trkpt lat="49.58547" lon="-1.26588">
        <ele>2</ele>
        <time>2020-06-15T11:08:52Z</time>
      </trkpt>
      <trkpt lat="49.58542" lon="-1.26589">
        <ele>1.9</ele>
        <time>2020-06-15T11:08:53Z</time>
      </trkpt>
      <trkpt lat="49.5854" lon="-1.2659">
        <ele>1.9</ele>
        <time>2020-06-15T11:08:54Z</time>
      </trkpt>
      <trkpt lat="49.58537" lon="-1.26591">
        <ele>1.9</ele>
        <time>2020-06-15T11:08:55Z</time>
      </trkpt>
      <trkpt lat="49.58533" lon="-1.26594">
        <ele>1.8</ele>
        <time>2020-06-15T11:08:56Z</time>
      </trkpt>
      <trkpt lat="49.58529" lon="-1.26597">
        <ele>1.8</ele>
        <time>2020-06-15T11:08:57Z</time>
      </trkpt>
      <trkpt lat="49.58525" lon="-1.266">
        <ele>1.8</ele>
        <time>2020-06-15T11:08:58Z</time>
      </trkpt>
      <trkpt lat="49.58521" lon="-1.26603">
        <ele>1.8</ele>
        <time>2020-06-15T11:08:59Z</time>
      </trkpt>
      <trkpt lat="49.58517" lon="-1.26605">
        <ele>1.8</ele>
        <time>2020-06-15T11:09:00Z</time>
      </trkpt>
      <trkpt lat="49.58514" lon="-1.26606">
        <ele>1.7</ele>
        <time>2020-06-15T11:09:01Z</time>
      </trkpt>
      <trkpt lat="49.5851" lon="-1.26608">
        <ele>1.7</ele>
        <time>2020-06-15T11:09:02Z</time>
      </trkpt>
      <trkpt lat="49.58506" lon="-1.2661">
        <ele>1.8</ele>
        <time>2020-06-15T11:09:03Z</time>
      </trkpt>
      <trkpt lat="49.58503" lon="-1.26611">
        <ele>1.8</ele>
        <time>2020-06-15T11:09:04Z</time>
      </trkpt>
      <trkpt lat="49.585" lon="-1.26614">
        <ele>2</ele>
        <time>2020-06-15T11:09:05Z</time>
      </trkpt>
      <trkpt lat="49.58498" lon="-1.26619">
        <ele>1.9</ele>
        <time>2020-06-15T11:09:06Z</time>
      </trkpt>
      <trkpt lat="49.58497" lon="-1.26623">
        <ele>1.9</ele>
        <time>2020-06-15T11:09:07Z</time>
      </trkpt>
      <trkpt lat="49.58496" lon="-1.26629">
        <ele>1.9</ele>
        <time>2020-06-15T11:09:08Z</time>
      </trkpt>
      <trkpt lat="49.58498" lon="-1.26635">
        <ele>1.8</ele>
        <time>2020-06-15T11:09:09Z</time>
      </trkpt>
      <trkpt lat="49.58497" lon="-1.26642">
        <ele>1.8</ele>
        <time>2020-06-15T11:09:10Z</time>
      </trkpt>
      <trkpt lat="49.58497" lon="-1.26647">
        <ele>1.8</ele>
        <time>2020-06-15T11:09:11Z</time>
      </trkpt>
      <trkpt lat="49.58497" lon="-1.26653">
        <ele>1.7</ele>
        <time>2020-06-15T11:09:12Z</time>
      </trkpt>
      <trkpt lat="49.58498" lon="-1.2666">
        <ele>1.7</ele>
        <time>2020-06-15T11:09:13Z</time>
      </trkpt>
      <trkpt lat="49.585" lon="-1.26667">
        <ele>1.7</ele>
        <time>2020-06-15T11:09:14Z</time>
      </trkpt>
      <trkpt lat="49.58501" lon="-1.26673">
        <ele>1.7</ele>
        <time>2020-06-15T11:09:15Z</time>
      </trkpt>
      <trkpt lat="49.58503" lon="-1.2668">
        <ele>1.7</ele>
        <time>2020-06-15T11:09:16Z</time>
      </trkpt>
      <trkpt lat="49.58505" lon="-1.26687">
        <ele>1.7</ele>
        <time>2020-06-15T11:09:17Z</time>
      </trkpt>
      <trkpt lat="49.58507" lon="-1.26695">
        <ele>1.7</ele>
        <time>2020-06-15T11:09:18Z</time>
      </trkpt>
      <trkpt lat="49.58508" lon="-1.26702">
        <ele>1.6</ele>
        <time>2020-06-15T11:09:19Z</time>
      </trkpt>
      <trkpt lat="49.5851" lon="-1.26711">
        <ele>1.6</ele>
        <time>2020-06-15T11:09:20Z</time>
      </trkpt>
      <trkpt lat="49.58511" lon="-1.26719">
        <ele>1.6</ele>
        <time>2020-06-15T11:09:21Z</time>
      </trkpt>
      <trkpt lat="49.58514" lon="-1.26728">
        <ele>1.6</ele>
        <time>2020-06-15T11:09:22Z</time>
      </trkpt>
      <trkpt lat="49.58516" lon="-1.26735">
        <ele>1.6</ele>
        <time>2020-06-15T11:09:23Z</time>
      </trkpt>
      <trkpt lat="49.58517" lon="-1.26743">
        <ele>1.5</ele>
        <time>2020-06-15T11:09:24Z</time>
      </trkpt>
      <trkpt lat="49.58518" lon="-1.2675">
        <ele>1.5</ele>
        <time>2020-06-15T11:09:25Z</time>
      </trkpt>
      <trkpt lat="49.58519" lon="-1.26757">
        <ele>1.5</ele>
        <time>2020-06-15T11:09:26Z</time>
      </trkpt>
      <trkpt lat="49.58522" lon="-1.26765">
        <ele>1.5</ele>
        <time>2020-06-15T11:09:27Z</time>
      </trkpt>
      <trkpt lat="49.58523" lon="-1.26772">
        <ele>1.5</ele>
        <time>2020-06-15T11:09:28Z</time>
      </trkpt>
      <trkpt lat="49.58523" lon="-1.2678">
        <ele>1.5</ele>
        <time>2020-06-15T11:09:29Z</time>
      </trkpt>
      <trkpt lat="49.58523" lon="-1.26788">
        <ele>1.5</ele>
        <time>2020-06-15T11:09:30Z</time>
      </trkpt>
      <trkpt lat="49.58525" lon="-1.26796">
        <ele>1.5</ele>
        <time>2020-06-15T11:09:31Z</time>
      </trkpt>
      <trkpt lat="49.58526" lon="-1.26803">
        <ele>1.5</ele>
        <time>2020-06-15T11:09:32Z</time>
      </trkpt>
      <trkpt lat="49.58527" lon="-1.2681">
        <ele>1.6</ele>
        <time>2020-06-15T11:09:33Z</time>
      </trkpt>
      <trkpt lat="49.58529" lon="-1.26818">
        <ele>1.6</ele>
        <time>2020-06-15T11:09:34Z</time>
      </trkpt>
      <trkpt lat="49.58531" lon="-1.26826">
        <ele>1.7</ele>
        <time>2020-06-15T11:09:35Z</time>
      </trkpt>
      <trkpt lat="49.58533" lon="-1.26833">
        <ele>1.8</ele>
        <time>2020-06-15T11:09:36Z</time>
      </trkpt>
      <trkpt lat="49.58534" lon="-1.26841">
        <ele>1.8</ele>
        <time>2020-06-15T11:09:37Z</time>
      </trkpt>
      <trkpt lat="49.58534" lon="-1.26848">
        <ele>1.8</ele>
        <time>2020-06-15T11:09:38Z</time>
      </trkpt>
      <trkpt lat="49.58536" lon="-1.26855">
        <ele>1.9</ele>
        <time>2020-06-15T11:09:39Z</time>
      </trkpt>
      <trkpt lat="49.58536" lon="-1.26861">
        <ele>1.9</ele>
        <time>2020-06-15T11:09:40Z</time>
      </trkpt>
      <trkpt lat="49.58537" lon="-1.26866">
        <ele>1.9</ele>
        <time>2020-06-15T11:09:41Z</time>
      </trkpt>
      <trkpt lat="49.58538" lon="-1.26872">
        <ele>1.9</ele>
        <time>2020-06-15T11:09:42Z</time>
      </trkpt>
      <trkpt lat="49.5854" lon="-1.2688">
        <ele>1.9</ele>
        <time>2020-06-15T11:09:43Z</time>
      </trkpt>
      <trkpt lat="49.58541" lon="-1.26889">
        <ele>1.9</ele>
        <time>2020-06-15T11:09:44Z</time>
      </trkpt>
      <trkpt lat="49.58543" lon="-1.26898">
        <ele>1.9</ele>
        <time>2020-06-15T11:09:45Z</time>
      </trkpt>
      <trkpt lat="49.58545" lon="-1.26907">
        <ele>1.9</ele>
        <time>2020-06-15T11:09:46Z</time>
      </trkpt>
      <trkpt lat="49.58547" lon="-1.26917">
        <ele>1.9</ele>
        <time>2020-06-15T11:09:47Z</time>
      </trkpt>
      <trkpt lat="49.58549" lon="-1.26926">
        <ele>1.9</ele>
        <time>2020-06-15T11:09:48Z</time>
      </trkpt>
      <trkpt lat="49.5855" lon="-1.26934">
        <ele>1.9</ele>
        <time>2020-06-15T11:09:49Z</time>
      </trkpt>
      <trkpt lat="49.58552" lon="-1.26942">
        <ele>1.9</ele>
        <time>2020-06-15T11:09:50Z</time>
      </trkpt>
      <trkpt lat="49.58552" lon="-1.26949">
        <ele>1.9</ele>
        <time>2020-06-15T11:09:51Z</time>
      </trkpt>
      <trkpt lat="49.58553" lon="-1.26956">
        <ele>1.9</ele>
        <time>2020-06-15T11:09:52Z</time>
      </trkpt>
      <trkpt lat="49.58554" lon="-1.26963">
        <ele>1.8</ele>
        <time>2020-06-15T11:09:53Z</time>
      </trkpt>
      <trkpt lat="49.58556" lon="-1.26971">
        <ele>1.8</ele>
        <time>2020-06-15T11:09:54Z</time>
      </trkpt>
      <trkpt lat="49.58557" lon="-1.26978">
        <ele>1.8</ele>
        <time>2020-06-15T11:09:55Z</time>
      </trkpt>
      <trkpt lat="49.58558" lon="-1.26985">
        <ele>1.8</ele>
        <time>2020-06-15T11:09:56Z</time>
      </trkpt>
      <trkpt lat="49.58559" lon="-1.26991">
        <ele>1.8</ele>
        <time>2020-06-15T11:09:57Z</time>
      </trkpt>
      <trkpt lat="49.5856" lon="-1.26997">
        <ele>1.8</ele>
        <time>2020-06-15T11:09:58Z</time>
      </trkpt>
      <trkpt lat="49.58562" lon="-1.27003">
        <ele>1.8</ele>
        <time>2020-06-15T11:09:59Z</time>
      </trkpt>
      <trkpt lat="49.58563" lon="-1.2701">
        <ele>1.8</ele>
        <time>2020-06-15T11:10:00Z</time>
      </trkpt>
      <trkpt lat="49.58564" lon="-1.27017">
        <ele>1.8</ele>
        <time>2020-06-15T11:10:01Z</time>
      </trkpt>
      <trkpt lat="49.58566" lon="-1.27022">
        <ele>1.8</ele>
        <time>2020-06-15T11:10:02Z</time>
      </trkpt>
      <trkpt lat="49.58568" lon="-1.27026">
        <ele>1.8</ele>
        <time>2020-06-15T11:10:03Z</time>
      </trkpt>
      <trkpt lat="49.58571" lon="-1.27029">
        <ele>1.8</ele>
        <time>2020-06-15T11:10:04Z</time>
      </trkpt>
      <trkpt lat="49.58574" lon="-1.27029">
        <ele>1.8</ele>
        <time>2020-06-15T11:10:05Z</time>
      </trkpt>
      <trkpt lat="49.58577" lon="-1.27028">
        <ele>1.9</ele>
        <time>2020-06-15T11:10:06Z</time>
      </trkpt>
      <trkpt lat="49.58581" lon="-1.27027">
        <ele>1.9</ele>
        <time>2020-06-15T11:10:07Z</time>
      </trkpt>
      <trkpt lat="49.58585" lon="-1.27027">
        <ele>2</ele>
        <time>2020-06-15T11:10:08Z</time>
      </trkpt>
      <trkpt lat="49.58588" lon="-1.2703">
        <ele>2.1</ele>
        <time>2020-06-15T11:10:09Z</time>
      </trkpt>
      <trkpt lat="49.58592" lon="-1.27033">
        <ele>2.2</ele>
        <time>2020-06-15T11:10:10Z</time>
      </trkpt>
      <trkpt lat="49.58595" lon="-1.27033">
        <ele>2.2</ele>
        <time>2020-06-15T11:10:11Z</time>
      </trkpt>
      <trkpt lat="49.58599" lon="-1.27033">
        <ele>2.3</ele>
        <time>2020-06-15T11:10:12Z</time>
      </trkpt>
      <trkpt lat="49.58603" lon="-1.27031">
        <ele>2.4</ele>
        <time>2020-06-15T11:10:13Z</time>
      </trkpt>
      <trkpt lat="49.58606" lon="-1.27029">
        <ele>2.5</ele>
        <time>2020-06-15T11:10:14Z</time>
      </trkpt>
      <trkpt lat="49.58611" lon="-1.27026">
        <ele>2.6</ele>
        <time>2020-06-15T11:10:15Z</time>
      </trkpt>
      <trkpt lat="49.58615" lon="-1.27025">
        <ele>2.7</ele>
        <time>2020-06-15T11:10:16Z</time>
      </trkpt>
      <trkpt lat="49.5862" lon="-1.27025">
        <ele>2.8</ele>
        <time>2020-06-15T11:10:17Z</time>
      </trkpt>
      <trkpt lat="49.58624" lon="-1.27025">
        <ele>2.9</ele>
        <time>2020-06-15T11:10:18Z</time>
      </trkpt>
      <trkpt lat="49.58627" lon="-1.27023">
        <ele>2.9</ele>
        <time>2020-06-15T11:10:19Z</time>
      </trkpt>
      <trkpt lat="49.5863" lon="-1.27022">
        <ele>3</ele>
        <time>2020-06-15T11:10:20Z</time>
      </trkpt>
      <trkpt lat="49.58634" lon="-1.27021">
        <ele>3</ele>
        <time>2020-06-15T11:10:21Z</time>
      </trkpt>
      <trkpt lat="49.58638" lon="-1.27019">
        <ele>3.1</ele>
        <time>2020-06-15T11:10:22Z</time>
      </trkpt>
      <trkpt lat="49.58642" lon="-1.27017">
        <ele>3.2</ele>
        <time>2020-06-15T11:10:23Z</time>
      </trkpt>
      <trkpt lat="49.58645" lon="-1.27016">
        <ele>3.2</ele>
        <time>2020-06-15T11:10:24Z</time>
      </trkpt>
      <trkpt lat="49.58648" lon="-1.27014">
        <ele>3.3</ele>
        <time>2020-06-15T11:10:25Z</time>
      </trkpt>
      <trkpt lat="49.58651" lon="-1.27012">
        <ele>3.4</ele>
        <time>2020-06-15T11:10:26Z</time>
      </trkpt>
      <trkpt lat="49.58655" lon="-1.27011">
        <ele>3.5</ele>
        <time>2020-06-15T11:10:27Z</time>
      </trkpt>
      <trkpt lat="49.58658" lon="-1.27009">
        <ele>3.5</ele>
        <time>2020-06-15T11:10:28Z</time>
      </trkpt>
      <trkpt lat="49.58661" lon="-1.27007">
        <ele>3.8</ele>
        <time>2020-06-15T11:10:29Z</time>
      </trkpt>
      <trkpt lat="49.58662" lon="-1.27006">
        <ele>3.8</ele>
        <time>2020-06-15T11:10:30Z</time>
      </trkpt>
      <trkpt lat="49.58664" lon="-1.27003">
        <ele>3.8</ele>
        <time>2020-06-15T11:10:31Z</time>
      </trkpt>
      <trkpt lat="49.58664" lon="-1.26998">
        <ele>3.8</ele>
        <time>2020-06-15T11:10:32Z</time>
      </trkpt>
      <trkpt lat="49.58664" lon="-1.26994">
        <ele>3.7</ele>
        <time>2020-06-15T11:10:33Z</time>
      </trkpt>
      <trkpt lat="49.58663" lon="-1.26987">
        <ele>3.7</ele>
        <time>2020-06-15T11:10:34Z</time>
      </trkpt>
      <trkpt lat="49.58661" lon="-1.26979">
        <ele>3.7</ele>
        <time>2020-06-15T11:10:35Z</time>
      </trkpt>
      <trkpt lat="49.5866" lon="-1.26972">
        <ele>3.7</ele>
        <time>2020-06-15T11:10:36Z</time>
      </trkpt>
      <trkpt lat="49.58659" lon="-1.26965">
        <ele>3.6</ele>
        <time>2020-06-15T11:10:37Z</time>
      </trkpt>
      <trkpt lat="49.58659" lon="-1.26958">
        <ele>3.6</ele>
        <time>2020-06-15T11:10:38Z</time>
      </trkpt>
      <trkpt lat="49.58659" lon="-1.26951">
        <ele>3.6</ele>
        <time>2020-06-15T11:10:39Z</time>
      </trkpt>
      <trkpt lat="49.58659" lon="-1.26945">
        <ele>3.6</ele>
        <time>2020-06-15T11:10:40Z</time>
      </trkpt>
      <trkpt lat="49.58658" lon="-1.26939">
        <ele>3.6</ele>
        <time>2020-06-15T11:10:41Z</time>
      </trkpt>
      <trkpt lat="49.58658" lon="-1.26932">
        <ele>3.6</ele>
        <time>2020-06-15T11:10:42Z</time>
      </trkpt>
      <trkpt lat="49.58658" lon="-1.26925">
        <ele>3.6</ele>
        <time>2020-06-15T11:10:43Z</time>
      </trkpt>
      <trkpt lat="49.58658" lon="-1.26919">
        <ele>3.6</ele>
        <time>2020-06-15T11:10:44Z</time>
      </trkpt>
      <trkpt lat="49.58659" lon="-1.26913">
        <ele>3.5</ele>
        <time>2020-06-15T11:10:45Z</time>
      </trkpt>
      <trkpt lat="49.58659" lon="-1.26906">
        <ele>3.5</ele>
        <time>2020-06-15T11:10:46Z</time>
      </trkpt>
      <trkpt lat="49.5866" lon="-1.26899">
        <ele>3.5</ele>
        <time>2020-06-15T11:10:47Z</time>
      </trkpt>
      <trkpt lat="49.5866" lon="-1.26893">
        <ele>3.5</ele>
        <time>2020-06-15T11:10:48Z</time>
      </trkpt>
      <trkpt lat="49.5866" lon="-1.26886">
        <ele>3.5</ele>
        <time>2020-06-15T11:10:49Z</time>
      </trkpt>
      <trkpt lat="49.58659" lon="-1.26878">
        <ele>3.5</ele>
        <time>2020-06-15T11:10:50Z</time>
      </trkpt>
      <trkpt lat="49.58657" lon="-1.26872">
        <ele>3.5</ele>
        <time>2020-06-15T11:10:51Z</time>
      </trkpt>
      <trkpt lat="49.58653" lon="-1.26866">
        <ele>3.6</ele>
        <time>2020-06-15T11:10:52Z</time>
      </trkpt>
      <trkpt lat="49.58651" lon="-1.2686">
        <ele>3.6</ele>
        <time>2020-06-15T11:10:53Z</time>
      </trkpt>
      <trkpt lat="49.5865" lon="-1.26855">
        <ele>3.5</ele>
        <time>2020-06-15T11:10:54Z</time>
      </trkpt>
      <trkpt lat="49.5865" lon="-1.26851">
        <ele>3.5</ele>
        <time>2020-06-15T11:10:55Z</time>
      </trkpt>
      <trkpt lat="49.5865" lon="-1.2685">
        <ele>3.5</ele>
        <time>2020-06-15T11:10:56Z</time>
      </trkpt>
      <trkpt lat="49.58651" lon="-1.2685">
        <ele>3.5</ele>
        <time>2020-06-15T11:10:57Z</time>
      </trkpt>
      <trkpt lat="49.58651" lon="-1.26851">
        <ele>3.5</ele>
        <time>2020-06-15T11:10:58Z</time>
      </trkpt>
      <trkpt lat="49.58651" lon="-1.26853">
        <ele>3.4</ele>
        <time>2020-06-15T11:10:59Z</time>
      </trkpt>
      <trkpt lat="49.58651" lon="-1.26853">
        <ele>3.4</ele>
        <time>2020-06-15T11:11:00Z</time>
      </trkpt>
      <trkpt lat="49.58652" lon="-1.26855">
        <ele>3.4</ele>
        <time>2020-06-15T11:11:01Z</time>
      </trkpt>
      <trkpt lat="49.58653" lon="-1.26856">
        <ele>3.4</ele>
        <time>2020-06-15T11:11:02Z</time>
      </trkpt>
      <trkpt lat="49.58655" lon="-1.26856">
        <ele>3.4</ele>
        <time>2020-06-15T11:11:03Z</time>
      </trkpt>
      <trkpt lat="49.58659" lon="-1.26856">
        <ele>3.3</ele>
        <time>2020-06-15T11:11:04Z</time>
      </trkpt>
      <trkpt lat="49.5866" lon="-1.26855">
        <ele>3.3</ele>
        <time>2020-06-15T11:11:05Z</time>
      </trkpt>
      <trkpt lat="49.58664" lon="-1.26854">
        <ele>3.2</ele>
        <time>2020-06-15T11:11:06Z</time>
      </trkpt>
      <trkpt lat="49.58665" lon="-1.26853">
        <ele>3.2</ele>
        <time>2020-06-15T11:11:07Z</time>
      </trkpt>
      <trkpt lat="49.58668" lon="-1.26851">
        <ele>3.2</ele>
        <time>2020-06-15T11:11:08Z</time>
      </trkpt>
      <trkpt lat="49.58671" lon="-1.2685">
        <ele>3.1</ele>
        <time>2020-06-15T11:11:09Z</time>
      </trkpt>
      <trkpt lat="49.58675" lon="-1.26851">
        <ele>3.1</ele>
        <time>2020-06-15T11:11:10Z</time>
      </trkpt>
      <trkpt lat="49.58676" lon="-1.26852">
        <ele>3</ele>
        <time>2020-06-15T11:11:11Z</time>
      </trkpt>
      <trkpt lat="49.5868" lon="-1.26852">
        <ele>3</ele>
        <time>2020-06-15T11:11:12Z</time>
      </trkpt>
      <trkpt lat="49.58681" lon="-1.26851">
        <ele>3</ele>
        <time>2020-06-15T11:11:13Z</time>
      </trkpt>
      <trkpt lat="49.58685" lon="-1.26848">
        <ele>2.8</ele>
        <time>2020-06-15T11:11:14Z</time>
      </trkpt>
      <trkpt lat="49.58686" lon="-1.26847">
        <ele>2.8</ele>
        <time>2020-06-15T11:11:15Z</time>
      </trkpt>
      <trkpt lat="49.5869" lon="-1.26844">
        <ele>2.8</ele>
        <time>2020-06-15T11:11:16Z</time>
      </trkpt>
      <trkpt lat="49.58693" lon="-1.26842">
        <ele>2.8</ele>
        <time>2020-06-15T11:11:17Z</time>
      </trkpt>
      <trkpt lat="49.58696" lon="-1.26839">
        <ele>2.8</ele>
        <time>2020-06-15T11:11:18Z</time>
      </trkpt>
      <trkpt lat="49.587" lon="-1.26836">
        <ele>2.9</ele>
        <time>2020-06-15T11:11:19Z</time>
      </trkpt>
      <trkpt lat="49.58704" lon="-1.26834">
        <ele>2.9</ele>
        <time>2020-06-15T11:11:20Z</time>
      </trkpt>
      <trkpt lat="49.58707" lon="-1.26832">
        <ele>3</ele>
        <time>2020-06-15T11:11:21Z</time>
      </trkpt>
      <trkpt lat="49.58712" lon="-1.2683">
        <ele>3.1</ele>
        <time>2020-06-15T11:11:22Z</time>
      </trkpt>
      <trkpt lat="49.58716" lon="-1.26827">
        <ele>3.2</ele>
        <time>2020-06-15T11:11:23Z</time>
      </trkpt>
      <trkpt lat="49.5872" lon="-1.26825">
        <ele>3.2</ele>
        <time>2020-06-15T11:11:24Z</time>
      </trkpt>
      <trkpt lat="49.58724" lon="-1.26823">
        <ele>3.3</ele>
        <time>2020-06-15T11:11:25Z</time>
      </trkpt>
      <trkpt lat="49.58727" lon="-1.26821">
        <ele>3.2</ele>
        <time>2020-06-15T11:11:26Z</time>
      </trkpt>
      <trkpt lat="49.5873" lon="-1.26819">
        <ele>3.2</ele>
        <time>2020-06-15T11:11:27Z</time>
      </trkpt>
      <trkpt lat="49.58731" lon="-1.26818">
        <ele>3.1</ele>
        <time>2020-06-15T11:11:28Z</time>
      </trkpt>
      <trkpt lat="49.58733" lon="-1.26816">
        <ele>3.1</ele>
        <time>2020-06-15T11:11:29Z</time>
      </trkpt>
      <trkpt lat="49.58736" lon="-1.26813">
        <ele>3</ele>
        <time>2020-06-15T11:11:30Z</time>
      </trkpt>
      <trkpt lat="49.58737" lon="-1.26812">
        <ele>3</ele>
        <time>2020-06-15T11:11:31Z</time>
      </trkpt>
      <trkpt lat="49.5874" lon="-1.26809">
        <ele>3</ele>
        <time>2020-06-15T11:11:32Z</time>
      </trkpt>
      <trkpt lat="49.58741" lon="-1.26808">
        <ele>3</ele>
        <time>2020-06-15T11:11:33Z</time>
      </trkpt>
      <trkpt lat="49.58743" lon="-1.26806">
        <ele>2.9</ele>
        <time>2020-06-15T11:11:34Z</time>
      </trkpt>
      <trkpt lat="49.58744" lon="-1.26805">
        <ele>2.9</ele>
        <time>2020-06-15T11:11:35Z</time>
      </trkpt>
      <trkpt lat="49.58745" lon="-1.26804">
        <ele>2.9</ele>
        <time>2020-06-15T11:11:36Z</time>
      </trkpt>
      <trkpt lat="49.58748" lon="-1.26805">
        <ele>2.9</ele>
        <time>2020-06-15T11:11:37Z</time>
      </trkpt>
      <trkpt lat="49.5875" lon="-1.26805">
        <ele>3</ele>
        <time>2020-06-15T11:11:38Z</time>
      </trkpt>
      <trkpt lat="49.58751" lon="-1.26804">
        <ele>3</ele>
        <time>2020-06-15T11:11:39Z</time>
      </trkpt>
      <trkpt lat="49.58752" lon="-1.26804">
        <ele>3</ele>
        <time>2020-06-15T11:11:40Z</time>
      </trkpt>
      <trkpt lat="49.58754" lon="-1.26803">
        <ele>3</ele>
        <time>2020-06-15T11:11:41Z</time>
      </trkpt>
      <trkpt lat="49.58755" lon="-1.26803">
        <ele>3</ele>
        <time>2020-06-15T11:11:42Z</time>
      </trkpt>
      <trkpt lat="49.58755" lon="-1.26803">
        <ele>3</ele>
        <time>2020-06-15T11:11:43Z</time>
      </trkpt>
      <trkpt lat="49.58755" lon="-1.26803">
        <ele>3</ele>
        <time>2020-06-15T11:11:44Z</time>
      </trkpt>
      <trkpt lat="49.58754" lon="-1.26803">
        <ele>3</ele>
        <time>2020-06-15T11:11:45Z</time>
      </trkpt>
      <trkpt lat="49.58754" lon="-1.26802">
        <ele>3</ele>
        <time>2020-06-15T11:11:46Z</time>
      </trkpt>
      <trkpt lat="49.58755" lon="-1.26802">
        <ele>3</ele>
        <time>2020-06-15T11:11:47Z</time>
      </trkpt>
      <trkpt lat="49.58756" lon="-1.26801">
        <ele>3</ele>
        <time>2020-06-15T11:11:48Z</time>
      </trkpt>
      <trkpt lat="49.58756" lon="-1.26801">
        <ele>3</ele>
        <time>2020-06-15T11:11:49Z</time>
      </trkpt>
      <trkpt lat="49.58756" lon="-1.26801">
        <ele>3</ele>
        <time>2020-06-15T11:11:50Z</time>
      </trkpt>
      <trkpt lat="49.58757" lon="-1.268">
        <ele>3</ele>
        <time>2020-06-15T11:11:51Z</time>
      </trkpt>
      <trkpt lat="49.58757" lon="-1.268">
        <ele>3</ele>
        <time>2020-06-15T11:11:52Z</time>
      </trkpt>
      <trkpt lat="49.58772" lon="-1.26783">
        <ele>3.2</ele>
        <time>2020-06-15T11:20:15Z</time>
      </trkpt>
      <trkpt lat="49.58772" lon="-1.26781">
        <ele>3.2</ele>
        <time>2020-06-15T11:20:16Z</time>
      </trkpt>
      <trkpt lat="49.58772" lon="-1.26782">
        <ele>3.2</ele>
        <time>2020-06-15T11:20:17Z</time>
      </trkpt>
      <trkpt lat="49.58775" lon="-1.26786">
        <ele>3.2</ele>
        <time>2020-06-15T11:20:18Z</time>
      </trkpt>
      <trkpt lat="49.58775" lon="-1.26785">
        <ele>3.2</ele>
        <time>2020-06-15T11:20:19Z</time>
      </trkpt>
      <trkpt lat="49.58776" lon="-1.26784">
        <ele>3.2</ele>
        <time>2020-06-15T11:20:20Z</time>
      </trkpt>
      <trkpt lat="49.58776" lon="-1.26783">
        <ele>3.2</ele>
        <time>2020-06-15T11:20:21Z</time>
      </trkpt>
      <trkpt lat="49.58776" lon="-1.26783">
        <ele>3.2</ele>
        <time>2020-06-15T11:20:22Z</time>
      </trkpt>
      <trkpt lat="49.58776" lon="-1.26784">
        <ele>3.2</ele>
        <time>2020-06-15T11:20:23Z</time>
      </trkpt>
      <trkpt lat="49.58774" lon="-1.26785">
        <ele>3.2</ele>
        <time>2020-06-15T11:20:24Z</time>
      </trkpt>
      <trkpt lat="49.58773" lon="-1.26785">
        <ele>3.2</ele>
        <time>2020-06-15T11:20:25Z</time>
      </trkpt>
      <trkpt lat="49.58771" lon="-1.26784">
        <ele>3.2</ele>
        <time>2020-06-15T11:20:26Z</time>
      </trkpt>
      <trkpt lat="49.58771" lon="-1.26782">
        <ele>3.2</ele>
        <time>2020-06-15T11:20:27Z</time>
      </trkpt>
      <trkpt lat="49.58771" lon="-1.2678">
        <ele>3.2</ele>
        <time>2020-06-15T11:20:28Z</time>
      </trkpt>
      <trkpt lat="49.58772" lon="-1.26779">
        <ele>3.2</ele>
        <time>2020-06-15T11:20:29Z</time>
      </trkpt>
      <trkpt lat="49.58772" lon="-1.26778">
        <ele>3.2</ele>
        <time>2020-06-15T11:20:30Z</time>
      </trkpt>
      <trkpt lat="49.58772" lon="-1.26776">
        <ele>3.2</ele>
        <time>2020-06-15T11:20:31Z</time>
      </trkpt>
      <trkpt lat="49.58773" lon="-1.26775">
        <ele>3.2</ele>
        <time>2020-06-15T11:20:32Z</time>
      </trkpt>
      <trkpt lat="49.58773" lon="-1.26773">
        <ele>3.2</ele>
        <time>2020-06-15T11:20:33Z</time>
      </trkpt>
      <trkpt lat="49.58727" lon="-1.26723">
        <ele>3.5</ele>
        <time>2020-06-15T11:21:50Z</time>
      </trkpt>
      <trkpt lat="49.58729" lon="-1.2672">
        <ele>3.5</ele>
        <time>2020-06-15T11:21:51Z</time>
      </trkpt>
      <trkpt lat="49.58728" lon="-1.26723">
        <ele>3.5</ele>
        <time>2020-06-15T11:21:52Z</time>
      </trkpt>
      <trkpt lat="49.58728" lon="-1.26722">
        <ele>3.6</ele>
        <time>2020-06-15T11:21:53Z</time>
      </trkpt>
      <trkpt lat="49.58729" lon="-1.26719">
        <ele>3.5</ele>
        <time>2020-06-15T11:21:54Z</time>
      </trkpt>
      <trkpt lat="49.5873" lon="-1.26718">
        <ele>3.5</ele>
        <time>2020-06-15T11:21:55Z</time>
      </trkpt>
      <trkpt lat="49.58732" lon="-1.26718">
        <ele>3.5</ele>
        <time>2020-06-15T11:21:56Z</time>
      </trkpt>
      <trkpt lat="49.58731" lon="-1.26719">
        <ele>3.5</ele>
        <time>2020-06-15T11:21:57Z</time>
      </trkpt>
      <trkpt lat="49.58732" lon="-1.2672">
        <ele>3.5</ele>
        <time>2020-06-15T11:21:58Z</time>
      </trkpt>
      <trkpt lat="49.58733" lon="-1.2672">
        <ele>3.6</ele>
        <time>2020-06-15T11:21:59Z</time>
      </trkpt>
      <trkpt lat="49.58732" lon="-1.26721">
        <ele>3.6</ele>
        <time>2020-06-15T11:22:00Z</time>
      </trkpt>
      <trkpt lat="49.58734" lon="-1.26722">
        <ele>3.6</ele>
        <time>2020-06-15T11:22:01Z</time>
      </trkpt>
      <trkpt lat="49.58734" lon="-1.26722">
        <ele>3.6</ele>
        <time>2020-06-15T11:22:02Z</time>
      </trkpt>
      <trkpt lat="49.58733" lon="-1.26721">
        <ele>3.6</ele>
        <time>2020-06-15T11:22:03Z</time>
      </trkpt>
      <trkpt lat="49.58733" lon="-1.2672">
        <ele>3.6</ele>
        <time>2020-06-15T11:22:04Z</time>
      </trkpt>
      <trkpt lat="49.58735" lon="-1.26722">
        <ele>3.6</ele>
        <time>2020-06-15T11:22:05Z</time>
      </trkpt>
      <trkpt lat="49.58736" lon="-1.26724">
        <ele>3.6</ele>
        <time>2020-06-15T11:22:06Z</time>
      </trkpt>
      <trkpt lat="49.58736" lon="-1.26724">
        <ele>3.6</ele>
        <time>2020-06-15T11:22:07Z</time>
      </trkpt>
      <trkpt lat="49.58735" lon="-1.26724">
        <ele>3.6</ele>
        <time>2020-06-15T11:22:08Z</time>
      </trkpt>
      <trkpt lat="49.58732" lon="-1.26726">
        <ele>3.6</ele>
        <time>2020-06-15T11:22:09Z</time>
      </trkpt>
      <trkpt lat="49.58731" lon="-1.26727">
        <ele>3.6</ele>
        <time>2020-06-15T11:22:10Z</time>
      </trkpt>
      <trkpt lat="49.58729" lon="-1.26727">
        <ele>3.6</ele>
        <time>2020-06-15T11:22:11Z</time>
      </trkpt>
      <trkpt lat="49.58728" lon="-1.26728">
        <ele>3.6</ele>
        <time>2020-06-15T11:22:12Z</time>
      </trkpt>
      <trkpt lat="49.58728" lon="-1.26728">
        <ele>3.6</ele>
        <time>2020-06-15T11:22:13Z</time>
      </trkpt>
      <trkpt lat="49.58727" lon="-1.26729">
        <ele>3.6</ele>
        <time>2020-06-15T11:22:14Z</time>
      </trkpt>
      <trkpt lat="49.58726" lon="-1.26729">
        <ele>3.6</ele>
        <time>2020-06-15T11:22:15Z</time>
      </trkpt>
      <trkpt lat="49.58725" lon="-1.26729">
        <ele>3.6</ele>
        <time>2020-06-15T11:22:16Z</time>
      </trkpt>
      <trkpt lat="49.58724" lon="-1.2673">
        <ele>3.6</ele>
        <time>2020-06-15T11:22:17Z</time>
      </trkpt>
      <trkpt lat="49.58722" lon="-1.26732">
        <ele>3.6</ele>
        <time>2020-06-15T11:22:18Z</time>
      </trkpt>
      <trkpt lat="49.5872" lon="-1.26733">
        <ele>3.6</ele>
        <time>2020-06-15T11:22:19Z</time>
      </trkpt>
      <trkpt lat="49.58719" lon="-1.26734">
        <ele>3.6</ele>
        <time>2020-06-15T11:22:20Z</time>
      </trkpt>
      <trkpt lat="49.58718" lon="-1.26736">
        <ele>3.6</ele>
        <time>2020-06-15T11:22:21Z</time>
      </trkpt>
      <trkpt lat="49.58716" lon="-1.26737">
        <ele>3.6</ele>
        <time>2020-06-15T11:22:22Z</time>
      </trkpt>
      <trkpt lat="49.58715" lon="-1.26738">
        <ele>3.6</ele>
        <time>2020-06-15T11:22:23Z</time>
      </trkpt>
      <trkpt lat="49.58713" lon="-1.26738">
        <ele>3.6</ele>
        <time>2020-06-15T11:22:24Z</time>
      </trkpt>
      <trkpt lat="49.58713" lon="-1.26738">
        <ele>3.6</ele>
        <time>2020-06-15T11:22:25Z</time>
      </trkpt>
      <trkpt lat="49.58713" lon="-1.26739">
        <ele>3.6</ele>
        <time>2020-06-15T11:22:26Z</time>
      </trkpt>
      <trkpt lat="49.58714" lon="-1.26738">
        <ele>3.6</ele>
        <time>2020-06-15T11:22:27Z</time>
      </trkpt>
      <trkpt lat="49.58714" lon="-1.26738">
        <ele>3.6</ele>
        <time>2020-06-15T11:22:28Z</time>
      </trkpt>
      <trkpt lat="49.58716" lon="-1.26734">
        <ele>3.6</ele>
        <time>2020-06-15T11:22:29Z</time>
      </trkpt>
      <trkpt lat="49.58717" lon="-1.26735">
        <ele>3.6</ele>
        <time>2020-06-15T11:22:30Z</time>
      </trkpt>
      <trkpt lat="49.58717" lon="-1.26737">
        <ele>3.6</ele>
        <time>2020-06-15T11:22:31Z</time>
      </trkpt>
      <trkpt lat="49.58717" lon="-1.26738">
        <ele>3.6</ele>
        <time>2020-06-15T11:22:32Z</time>
      </trkpt>
      <trkpt lat="49.58717" lon="-1.2674">
        <ele>3.6</ele>
        <time>2020-06-15T11:22:33Z</time>
      </trkpt>
      <trkpt lat="49.58717" lon="-1.26741">
        <ele>3.6</ele>
        <time>2020-06-15T11:22:34Z</time>
      </trkpt>
      <trkpt lat="49.58718" lon="-1.26742">
        <ele>3.7</ele>
        <time>2020-06-15T11:22:35Z</time>
      </trkpt>
      <trkpt lat="49.58722" lon="-1.26746">
        <ele>3.7</ele>
        <time>2020-06-15T11:22:36Z</time>
      </trkpt>
      <trkpt lat="49.58729" lon="-1.26744">
        <ele>3.7</ele>
        <time>2020-06-15T11:22:37Z</time>
      </trkpt>
      <trkpt lat="49.58733" lon="-1.26743">
        <ele>3.7</ele>
        <time>2020-06-15T11:22:38Z</time>
      </trkpt>
      <trkpt lat="49.58739" lon="-1.26745">
        <ele>3.7</ele>
        <time>2020-06-15T11:22:39Z</time>
      </trkpt>
      <trkpt lat="49.58743" lon="-1.26746">
        <ele>3.7</ele>
        <time>2020-06-15T11:22:40Z</time>
      </trkpt>
      <trkpt lat="49.58745" lon="-1.26747">
        <ele>3.7</ele>
        <time>2020-06-15T11:22:41Z</time>
      </trkpt>
      <trkpt lat="49.58745" lon="-1.26747">
        <ele>3.7</ele>
        <time>2020-06-15T11:22:42Z</time>
      </trkpt>
      <trkpt lat="49.58747" lon="-1.26746">
        <ele>3.7</ele>
        <time>2020-06-15T11:22:43Z</time>
      </trkpt>
      <trkpt lat="49.58749" lon="-1.26747">
        <ele>3.7</ele>
        <time>2020-06-15T11:22:44Z</time>
      </trkpt>
      <trkpt lat="49.58752" lon="-1.26749">
        <ele>3.6</ele>
        <time>2020-06-15T11:22:45Z</time>
      </trkpt>
      <trkpt lat="49.58753" lon="-1.26749">
        <ele>3.6</ele>
        <time>2020-06-15T11:22:46Z</time>
      </trkpt>
      <trkpt lat="49.58754" lon="-1.2675">
        <ele>3.6</ele>
        <time>2020-06-15T11:22:47Z</time>
      </trkpt>
      <trkpt lat="49.58755" lon="-1.26751">
        <ele>3.6</ele>
        <time>2020-06-15T11:22:48Z</time>
      </trkpt>
      <trkpt lat="49.58755" lon="-1.26752">
        <ele>3.6</ele>
        <time>2020-06-15T11:22:49Z</time>
      </trkpt>
      <trkpt lat="49.58755" lon="-1.26753">
        <ele>3.6</ele>
        <time>2020-06-15T11:22:50Z</time>
      </trkpt>
      <trkpt lat="49.58755" lon="-1.26753">
        <ele>3.6</ele>
        <time>2020-06-15T11:22:51Z</time>
      </trkpt>
      <trkpt lat="49.58756" lon="-1.26754">
        <ele>3.6</ele>
        <time>2020-06-15T11:22:52Z</time>
      </trkpt>
      <trkpt lat="49.58758" lon="-1.26753">
        <ele>3.6</ele>
        <time>2020-06-15T11:22:53Z</time>
      </trkpt>
      <trkpt lat="49.58759" lon="-1.26752">
        <ele>3.6</ele>
        <time>2020-06-15T11:22:54Z</time>
      </trkpt>
      <trkpt lat="49.5876" lon="-1.26751">
        <ele>3.6</ele>
        <time>2020-06-15T11:22:55Z</time>
      </trkpt>
      <trkpt lat="49.58761" lon="-1.2675">
        <ele>3.6</ele>
        <time>2020-06-15T11:22:56Z</time>
      </trkpt>
      <trkpt lat="49.58761" lon="-1.2675">
        <ele>3.6</ele>
        <time>2020-06-15T11:22:57Z</time>
      </trkpt>
      <trkpt lat="49.58762" lon="-1.26749">
        <ele>3.6</ele>
        <time>2020-06-15T11:22:58Z</time>
      </trkpt>
      <trkpt lat="49.58762" lon="-1.26749">
        <ele>3.6</ele>
        <time>2020-06-15T11:22:59Z</time>
      </trkpt>
      <trkpt lat="49.58762" lon="-1.26749">
        <ele>3.6</ele>
        <time>2020-06-15T11:23:00Z</time>
      </trkpt>
      <trkpt lat="49.58762" lon="-1.26748">
        <ele>3.6</ele>
        <time>2020-06-15T11:23:01Z</time>
      </trkpt>
      <trkpt lat="49.58763" lon="-1.26748">
        <ele>3.6</ele>
        <time>2020-06-15T11:23:02Z</time>
      </trkpt>
      <trkpt lat="49.58764" lon="-1.26747">
        <ele>3.6</ele>
        <time>2020-06-15T11:23:03Z</time>
      </trkpt>
      <trkpt lat="49.58765" lon="-1.26747">
        <ele>3.6</ele>
        <time>2020-06-15T11:23:04Z</time>
      </trkpt>
      <trkpt lat="49.58769" lon="-1.26747">
        <ele>3.6</ele>
        <time>2020-06-15T11:23:05Z</time>
      </trkpt>
      <trkpt lat="49.5877" lon="-1.26746">
        <ele>3.6</ele>
        <time>2020-06-15T11:23:06Z</time>
      </trkpt>
      <trkpt lat="49.58774" lon="-1.26744">
        <ele>3.5</ele>
        <time>2020-06-15T11:23:07Z</time>
      </trkpt>
      <trkpt lat="49.58778" lon="-1.26743">
        <ele>3.5</ele>
        <time>2020-06-15T11:23:08Z</time>
      </trkpt>
      <trkpt lat="49.58782" lon="-1.26741">
        <ele>3.4</ele>
        <time>2020-06-15T11:23:09Z</time>
      </trkpt>
      <trkpt lat="49.58786" lon="-1.2674">
        <ele>3.4</ele>
        <time>2020-06-15T11:23:10Z</time>
      </trkpt>
      <trkpt lat="49.58789" lon="-1.26739">
        <ele>3.4</ele>
        <time>2020-06-15T11:23:11Z</time>
      </trkpt>
      <trkpt lat="49.58792" lon="-1.26738">
        <ele>3.4</ele>
        <time>2020-06-15T11:23:12Z</time>
      </trkpt>
      <trkpt lat="49.58794" lon="-1.26738">
        <ele>3.4</ele>
        <time>2020-06-15T11:23:13Z</time>
      </trkpt>
      <trkpt lat="49.58796" lon="-1.26738">
        <ele>3.4</ele>
        <time>2020-06-15T11:23:14Z</time>
      </trkpt>
      <trkpt lat="49.58798" lon="-1.26738">
        <ele>3.3</ele>
        <time>2020-06-15T11:23:15Z</time>
      </trkpt>
      <trkpt lat="49.58798" lon="-1.26737">
        <ele>3.3</ele>
        <time>2020-06-15T11:23:16Z</time>
      </trkpt>
      <trkpt lat="49.58799" lon="-1.26736">
        <ele>3.3</ele>
        <time>2020-06-15T11:23:17Z</time>
      </trkpt>
      <trkpt lat="49.588" lon="-1.26734">
        <ele>3.3</ele>
        <time>2020-06-15T11:23:18Z</time>
      </trkpt>
      <trkpt lat="49.58801" lon="-1.26733">
        <ele>3.4</ele>
        <time>2020-06-15T11:23:19Z</time>
      </trkpt>
      <trkpt lat="49.58804" lon="-1.26732">
        <ele>3.4</ele>
        <time>2020-06-15T11:23:20Z</time>
      </trkpt>
      <trkpt lat="49.58806" lon="-1.26732">
        <ele>3.3</ele>
        <time>2020-06-15T11:23:21Z</time>
      </trkpt>
      <trkpt lat="49.5881" lon="-1.2673">
        <ele>3.3</ele>
        <time>2020-06-15T11:23:22Z</time>
      </trkpt>
      <trkpt lat="49.58812" lon="-1.26727">
        <ele>3.2</ele>
        <time>2020-06-15T11:23:23Z</time>
      </trkpt>
      <trkpt lat="49.58816" lon="-1.26725">
        <ele>3.2</ele>
        <time>2020-06-15T11:23:24Z</time>
      </trkpt>
      <trkpt lat="49.58819" lon="-1.26723">
        <ele>3.1</ele>
        <time>2020-06-15T11:23:25Z</time>
      </trkpt>
      <trkpt lat="49.58822" lon="-1.26721">
        <ele>3.1</ele>
        <time>2020-06-15T11:23:26Z</time>
      </trkpt>
      <trkpt lat="49.58826" lon="-1.26718">
        <ele>3</ele>
        <time>2020-06-15T11:23:27Z</time>
      </trkpt>
      <trkpt lat="49.5883" lon="-1.26714">
        <ele>3</ele>
        <time>2020-06-15T11:23:28Z</time>
      </trkpt>
      <trkpt lat="49.58833" lon="-1.2671">
        <ele>2.9</ele>
        <time>2020-06-15T11:23:29Z</time>
      </trkpt>
      <trkpt lat="49.58836" lon="-1.26706">
        <ele>2.9</ele>
        <time>2020-06-15T11:23:30Z</time>
      </trkpt>
      <trkpt lat="49.5884" lon="-1.26703">
        <ele>2.8</ele>
        <time>2020-06-15T11:23:31Z</time>
      </trkpt>
      <trkpt lat="49.58844" lon="-1.26699">
        <ele>2.8</ele>
        <time>2020-06-15T11:23:32Z</time>
      </trkpt>
      <trkpt lat="49.58848" lon="-1.26696">
        <ele>2.7</ele>
        <time>2020-06-15T11:23:33Z</time>
      </trkpt>
      <trkpt lat="49.58851" lon="-1.26694">
        <ele>2.7</ele>
        <time>2020-06-15T11:23:34Z</time>
      </trkpt>
      <trkpt lat="49.58855" lon="-1.26691">
        <ele>2.7</ele>
        <time>2020-06-15T11:23:35Z</time>
      </trkpt>
      <trkpt lat="49.58859" lon="-1.26689">
        <ele>2.7</ele>
        <time>2020-06-15T11:23:36Z</time>
      </trkpt>
      <trkpt lat="49.58864" lon="-1.26685">
        <ele>2.7</ele>
        <time>2020-06-15T11:23:37Z</time>
      </trkpt>
      <trkpt lat="49.58869" lon="-1.26683">
        <ele>2.7</ele>
        <time>2020-06-15T11:23:38Z</time>
      </trkpt>
      <trkpt lat="49.58873" lon="-1.26681">
        <ele>2.7</ele>
        <time>2020-06-15T11:23:39Z</time>
      </trkpt>
      <trkpt lat="49.58877" lon="-1.26678">
        <ele>2.7</ele>
        <time>2020-06-15T11:23:40Z</time>
      </trkpt>
      <trkpt lat="49.58881" lon="-1.26676">
        <ele>2.7</ele>
        <time>2020-06-15T11:23:41Z</time>
      </trkpt>
      <trkpt lat="49.58885" lon="-1.26674">
        <ele>2.7</ele>
        <time>2020-06-15T11:23:42Z</time>
      </trkpt>
      <trkpt lat="49.5889" lon="-1.26672">
        <ele>2.7</ele>
        <time>2020-06-15T11:23:43Z</time>
      </trkpt>
      <trkpt lat="49.58895" lon="-1.2667">
        <ele>2.7</ele>
        <time>2020-06-15T11:23:44Z</time>
      </trkpt>
      <trkpt lat="49.589" lon="-1.26666">
        <ele>2.7</ele>
        <time>2020-06-15T11:23:45Z</time>
      </trkpt>
      <trkpt lat="49.58905" lon="-1.26664">
        <ele>2.7</ele>
        <time>2020-06-15T11:23:46Z</time>
      </trkpt>
      <trkpt lat="49.58908" lon="-1.26662">
        <ele>2.6</ele>
        <time>2020-06-15T11:23:47Z</time>
      </trkpt>
      <trkpt lat="49.58912" lon="-1.26661">
        <ele>2.6</ele>
        <time>2020-06-15T11:23:48Z</time>
      </trkpt>
      <trkpt lat="49.58917" lon="-1.26661">
        <ele>2.6</ele>
        <time>2020-06-15T11:23:49Z</time>
      </trkpt>
      <trkpt lat="49.58921" lon="-1.26661">
        <ele>2.7</ele>
        <time>2020-06-15T11:23:50Z</time>
      </trkpt>
      <trkpt lat="49.58926" lon="-1.26661">
        <ele>2.7</ele>
        <time>2020-06-15T11:23:51Z</time>
      </trkpt>
      <trkpt lat="49.58932" lon="-1.26661">
        <ele>2.8</ele>
        <time>2020-06-15T11:23:52Z</time>
      </trkpt>
      <trkpt lat="49.58937" lon="-1.26661">
        <ele>2.9</ele>
        <time>2020-06-15T11:23:53Z</time>
      </trkpt>
      <trkpt lat="49.58942" lon="-1.2666">
        <ele>3</ele>
        <time>2020-06-15T11:23:54Z</time>
      </trkpt>
      <trkpt lat="49.58946" lon="-1.2666">
        <ele>3.1</ele>
        <time>2020-06-15T11:23:55Z</time>
      </trkpt>
      <trkpt lat="49.58951" lon="-1.26661">
        <ele>3.2</ele>
        <time>2020-06-15T11:23:56Z</time>
      </trkpt>
      <trkpt lat="49.58956" lon="-1.26661">
        <ele>3.3</ele>
        <time>2020-06-15T11:23:57Z</time>
      </trkpt>
      <trkpt lat="49.58961" lon="-1.2666">
        <ele>3.3</ele>
        <time>2020-06-15T11:23:58Z</time>
      </trkpt>
      <trkpt lat="49.58965" lon="-1.26658">
        <ele>3.4</ele>
        <time>2020-06-15T11:23:59Z</time>
      </trkpt>
      <trkpt lat="49.58969" lon="-1.26656">
        <ele>3.4</ele>
        <time>2020-06-15T11:24:00Z</time>
      </trkpt>
      <trkpt lat="49.5897" lon="-1.26651">
        <ele>3.4</ele>
        <time>2020-06-15T11:24:01Z</time>
      </trkpt>
      <trkpt lat="49.5897" lon="-1.26649">
        <ele>3.4</ele>
        <time>2020-06-15T11:24:02Z</time>
      </trkpt>
      <trkpt lat="49.58968" lon="-1.26644">
        <ele>3.4</ele>
        <time>2020-06-15T11:24:03Z</time>
      </trkpt>
      <trkpt lat="49.58967" lon="-1.26642">
        <ele>3.3</ele>
        <time>2020-06-15T11:24:04Z</time>
      </trkpt>
      <trkpt lat="49.58965" lon="-1.26637">
        <ele>3.1</ele>
        <time>2020-06-15T11:24:05Z</time>
      </trkpt>
      <trkpt lat="49.58964" lon="-1.26631">
        <ele>3</ele>
        <time>2020-06-15T11:24:06Z</time>
      </trkpt>
      <trkpt lat="49.58963" lon="-1.26626">
        <ele>2.8</ele>
        <time>2020-06-15T11:24:07Z</time>
      </trkpt>
      <trkpt lat="49.58962" lon="-1.26621">
        <ele>2.7</ele>
        <time>2020-06-15T11:24:08Z</time>
      </trkpt>
      <trkpt lat="49.58962" lon="-1.26615">
        <ele>2.5</ele>
        <time>2020-06-15T11:24:09Z</time>
      </trkpt>
      <trkpt lat="49.58962" lon="-1.26613">
        <ele>2.4</ele>
        <time>2020-06-15T11:24:10Z</time>
      </trkpt>
      <trkpt lat="49.58963" lon="-1.26609">
        <ele>2.3</ele>
        <time>2020-06-15T11:24:11Z</time>
      </trkpt>
      <trkpt lat="49.58965" lon="-1.26604">
        <ele>2.3</ele>
        <time>2020-06-15T11:24:12Z</time>
      </trkpt>
      <trkpt lat="49.58966" lon="-1.26599">
        <ele>2.3</ele>
        <time>2020-06-15T11:24:13Z</time>
      </trkpt>
      <trkpt lat="49.58968" lon="-1.26594">
        <ele>2.3</ele>
        <time>2020-06-15T11:24:14Z</time>
      </trkpt>
      <trkpt lat="49.5897" lon="-1.26591">
        <ele>2.3</ele>
        <time>2020-06-15T11:24:15Z</time>
      </trkpt>
      <trkpt lat="49.58972" lon="-1.26588">
        <ele>2.3</ele>
        <time>2020-06-15T11:24:16Z</time>
      </trkpt>
      <trkpt lat="49.58975" lon="-1.26585">
        <ele>2.3</ele>
        <time>2020-06-15T11:24:17Z</time>
      </trkpt>
      <trkpt lat="49.58979" lon="-1.26584">
        <ele>2.3</ele>
        <time>2020-06-15T11:24:18Z</time>
      </trkpt>
      <trkpt lat="49.58983" lon="-1.26585">
        <ele>2.3</ele>
        <time>2020-06-15T11:24:19Z</time>
      </trkpt>
      <trkpt lat="49.58987" lon="-1.26587">
        <ele>2.3</ele>
        <time>2020-06-15T11:24:20Z</time>
      </trkpt>
      <trkpt lat="49.58991" lon="-1.26589">
        <ele>2.3</ele>
        <time>2020-06-15T11:24:21Z</time>
      </trkpt>
      <trkpt lat="49.58995" lon="-1.26592">
        <ele>2.3</ele>
        <time>2020-06-15T11:24:22Z</time>
      </trkpt>
      <trkpt lat="49.58999" lon="-1.26596">
        <ele>2.3</ele>
        <time>2020-06-15T11:24:23Z</time>
      </trkpt>
      <trkpt lat="49.59003" lon="-1.26599">
        <ele>2.3</ele>
        <time>2020-06-15T11:24:24Z</time>
      </trkpt>
      <trkpt lat="49.59006" lon="-1.26601">
        <ele>2.3</ele>
        <time>2020-06-15T11:24:25Z</time>
      </trkpt>
      <trkpt lat="49.5901" lon="-1.26602">
        <ele>2.3</ele>
        <time>2020-06-15T11:24:26Z</time>
      </trkpt>
      <trkpt lat="49.59014" lon="-1.26603">
        <ele>2.3</ele>
        <time>2020-06-15T11:24:27Z</time>
      </trkpt>
      <trkpt lat="49.59018" lon="-1.26602">
        <ele>2.4</ele>
        <time>2020-06-15T11:24:28Z</time>
      </trkpt>
      <trkpt lat="49.59021" lon="-1.26601">
        <ele>2.4</ele>
        <time>2020-06-15T11:24:29Z</time>
      </trkpt>
      <trkpt lat="49.59024" lon="-1.26599">
        <ele>2.3</ele>
        <time>2020-06-15T11:24:30Z</time>
      </trkpt>
      <trkpt lat="49.59027" lon="-1.26596">
        <ele>2.3</ele>
        <time>2020-06-15T11:24:31Z</time>
      </trkpt>
      <trkpt lat="49.59029" lon="-1.26594">
        <ele>2.3</ele>
        <time>2020-06-15T11:24:32Z</time>
      </trkpt>
      <trkpt lat="49.59032" lon="-1.26592">
        <ele>2.3</ele>
        <time>2020-06-15T11:24:33Z</time>
      </trkpt>
      <trkpt lat="49.59035" lon="-1.2659">
        <ele>2.3</ele>
        <time>2020-06-15T11:24:34Z</time>
      </trkpt>
      <trkpt lat="49.59038" lon="-1.26588">
        <ele>2.3</ele>
        <time>2020-06-15T11:24:35Z</time>
      </trkpt>
      <trkpt lat="49.5904" lon="-1.26585">
        <ele>2.3</ele>
        <time>2020-06-15T11:24:36Z</time>
      </trkpt>
      <trkpt lat="49.59041" lon="-1.2658">
        <ele>2.2</ele>
        <time>2020-06-15T11:24:37Z</time>
      </trkpt>
      <trkpt lat="49.59042" lon="-1.26575">
        <ele>2.2</ele>
        <time>2020-06-15T11:24:38Z</time>
      </trkpt>
      <trkpt lat="49.59043" lon="-1.26569">
        <ele>2.2</ele>
        <time>2020-06-15T11:24:39Z</time>
      </trkpt>
      <trkpt lat="49.59044" lon="-1.26563">
        <ele>2.1</ele>
        <time>2020-06-15T11:24:40Z</time>
      </trkpt>
      <trkpt lat="49.59044" lon="-1.26555">
        <ele>2.1</ele>
        <time>2020-06-15T11:24:41Z</time>
      </trkpt>
      <trkpt lat="49.59044" lon="-1.26548">
        <ele>2</ele>
        <time>2020-06-15T11:24:42Z</time>
      </trkpt>
      <trkpt lat="49.59043" lon="-1.26541">
        <ele>2</ele>
        <time>2020-06-15T11:24:43Z</time>
      </trkpt>
      <trkpt lat="49.59043" lon="-1.26534">
        <ele>1.9</ele>
        <time>2020-06-15T11:24:44Z</time>
      </trkpt>
      <trkpt lat="49.59043" lon="-1.26527">
        <ele>1.9</ele>
        <time>2020-06-15T11:24:45Z</time>
      </trkpt>
      <trkpt lat="49.59044" lon="-1.26518">
        <ele>1.9</ele>
        <time>2020-06-15T11:24:46Z</time>
      </trkpt>
      <trkpt lat="49.59043" lon="-1.26511">
        <ele>1.9</ele>
        <time>2020-06-15T11:24:47Z</time>
      </trkpt>
      <trkpt lat="49.59043" lon="-1.26503">
        <ele>1.9</ele>
        <time>2020-06-15T11:24:48Z</time>
      </trkpt>
      <trkpt lat="49.59042" lon="-1.26496">
        <ele>1.9</ele>
        <time>2020-06-15T11:24:49Z</time>
      </trkpt>
      <trkpt lat="49.5904" lon="-1.26491">
        <ele>1.9</ele>
        <time>2020-06-15T11:24:50Z</time>
      </trkpt>
      <trkpt lat="49.59038" lon="-1.26485">
        <ele>1.9</ele>
        <time>2020-06-15T11:24:51Z</time>
      </trkpt>
      <trkpt lat="49.59037" lon="-1.26478">
        <ele>1.9</ele>
        <time>2020-06-15T11:24:52Z</time>
      </trkpt>
      <trkpt lat="49.59036" lon="-1.26469">
        <ele>1.9</ele>
        <time>2020-06-15T11:24:53Z</time>
      </trkpt>
      <trkpt lat="49.59034" lon="-1.2646">
        <ele>1.9</ele>
        <time>2020-06-15T11:24:54Z</time>
      </trkpt>
      <trkpt lat="49.59032" lon="-1.26452">
        <ele>1.9</ele>
        <time>2020-06-15T11:24:55Z</time>
      </trkpt>
      <trkpt lat="49.59031" lon="-1.26443">
        <ele>1.8</ele>
        <time>2020-06-15T11:24:56Z</time>
      </trkpt>
      <trkpt lat="49.59029" lon="-1.26434">
        <ele>1.8</ele>
        <time>2020-06-15T11:24:57Z</time>
      </trkpt>
      <trkpt lat="49.59028" lon="-1.26427">
        <ele>1.8</ele>
        <time>2020-06-15T11:24:58Z</time>
      </trkpt>
      <trkpt lat="49.59026" lon="-1.26419">
        <ele>1.7</ele>
        <time>2020-06-15T11:24:59Z</time>
      </trkpt>
      <trkpt lat="49.59023" lon="-1.26409">
        <ele>1.7</ele>
        <time>2020-06-15T11:25:00Z</time>
      </trkpt>
      <trkpt lat="49.59022" lon="-1.26402">
        <ele>1.6</ele>
        <time>2020-06-15T11:25:01Z</time>
      </trkpt>
      <trkpt lat="49.5902" lon="-1.26394">
        <ele>1.6</ele>
        <time>2020-06-15T11:25:02Z</time>
      </trkpt>
      <trkpt lat="49.59018" lon="-1.26387">
        <ele>1.5</ele>
        <time>2020-06-15T11:25:03Z</time>
      </trkpt>
      <trkpt lat="49.59017" lon="-1.26379">
        <ele>1.5</ele>
        <time>2020-06-15T11:25:04Z</time>
      </trkpt>
      <trkpt lat="49.59015" lon="-1.26372">
        <ele>1.4</ele>
        <time>2020-06-15T11:25:05Z</time>
      </trkpt>
      <trkpt lat="49.59013" lon="-1.26364">
        <ele>1.4</ele>
        <time>2020-06-15T11:25:06Z</time>
      </trkpt>
      <trkpt lat="49.59012" lon="-1.26357">
        <ele>1.4</ele>
        <time>2020-06-15T11:25:07Z</time>
      </trkpt>
      <trkpt lat="49.5901" lon="-1.2635">
        <ele>1.3</ele>
        <time>2020-06-15T11:25:08Z</time>
      </trkpt>
      <trkpt lat="49.59009" lon="-1.26343">
        <ele>1.3</ele>
        <time>2020-06-15T11:25:09Z</time>
      </trkpt>
      <trkpt lat="49.59007" lon="-1.26336">
        <ele>1.3</ele>
        <time>2020-06-15T11:25:10Z</time>
      </trkpt>
      <trkpt lat="49.59005" lon="-1.2633">
        <ele>1.2</ele>
        <time>2020-06-15T11:25:11Z</time>
      </trkpt>
      <trkpt lat="49.59002" lon="-1.26323">
        <ele>1.2</ele>
        <time>2020-06-15T11:25:12Z</time>
      </trkpt>
      <trkpt lat="49.58999" lon="-1.26317">
        <ele>1.2</ele>
        <time>2020-06-15T11:25:13Z</time>
      </trkpt>
      <trkpt lat="49.58996" lon="-1.26312">
        <ele>1.2</ele>
        <time>2020-06-15T11:25:14Z</time>
      </trkpt>
      <trkpt lat="49.58992" lon="-1.26307">
        <ele>1.1</ele>
        <time>2020-06-15T11:25:15Z</time>
      </trkpt>
      <trkpt lat="49.58989" lon="-1.26302">
        <ele>1.1</ele>
        <time>2020-06-15T11:25:16Z</time>
      </trkpt>
      <trkpt lat="49.58985" lon="-1.26299">
        <ele>1.1</ele>
        <time>2020-06-15T11:25:17Z</time>
      </trkpt>
      <trkpt lat="49.58981" lon="-1.26296">
        <ele>1.1</ele>
        <time>2020-06-15T11:25:18Z</time>
      </trkpt>
      <trkpt lat="49.58976" lon="-1.26293">
        <ele>1.1</ele>
        <time>2020-06-15T11:25:19Z</time>
      </trkpt>
      <trkpt lat="49.58972" lon="-1.26292">
        <ele>1</ele>
        <time>2020-06-15T11:25:20Z</time>
      </trkpt>
      <trkpt lat="49.58967" lon="-1.26289">
        <ele>1</ele>
        <time>2020-06-15T11:25:21Z</time>
      </trkpt>
      <trkpt lat="49.58962" lon="-1.26286">
        <ele>0.9</ele>
        <time>2020-06-15T11:25:22Z</time>
      </trkpt>
      <trkpt lat="49.58957" lon="-1.26283">
        <ele>0.9</ele>
        <time>2020-06-15T11:25:23Z</time>
      </trkpt>
      <trkpt lat="49.58952" lon="-1.26279">
        <ele>0.9</ele>
        <time>2020-06-15T11:25:24Z</time>
      </trkpt>
      <trkpt lat="49.58948" lon="-1.26277">
        <ele>0.8</ele>
        <time>2020-06-15T11:25:25Z</time>
      </trkpt>
      <trkpt lat="49.58943" lon="-1.26275">
        <ele>0.8</ele>
        <time>2020-06-15T11:25:26Z</time>
      </trkpt>
      <trkpt lat="49.58938" lon="-1.26272">
        <ele>0.8</ele>
        <time>2020-06-15T11:25:27Z</time>
      </trkpt>
      <trkpt lat="49.58934" lon="-1.2627">
        <ele>0.7</ele>
        <time>2020-06-15T11:25:28Z</time>
      </trkpt>
      <trkpt lat="49.5893" lon="-1.26267">
        <ele>0.7</ele>
        <time>2020-06-15T11:25:29Z</time>
      </trkpt>
      <trkpt lat="49.58926" lon="-1.26264">
        <ele>0.7</ele>
        <time>2020-06-15T11:25:30Z</time>
      </trkpt>
      <trkpt lat="49.58922" lon="-1.26261">
        <ele>0.7</ele>
        <time>2020-06-15T11:25:31Z</time>
      </trkpt>
      <trkpt lat="49.58918" lon="-1.26258">
        <ele>0.6</ele>
        <time>2020-06-15T11:25:32Z</time>
      </trkpt>
      <trkpt lat="49.58914" lon="-1.26256">
        <ele>0.6</ele>
        <time>2020-06-15T11:25:33Z</time>
      </trkpt>
      <trkpt lat="49.5891" lon="-1.26254">
        <ele>0.6</ele>
        <time>2020-06-15T11:25:34Z</time>
      </trkpt>
      <trkpt lat="49.58906" lon="-1.26252">
        <ele>0.6</ele>
        <time>2020-06-15T11:25:35Z</time>
      </trkpt>
      <trkpt lat="49.58902" lon="-1.2625">
        <ele>0.5</ele>
        <time>2020-06-15T11:25:36Z</time>
      </trkpt>
      <trkpt lat="49.58898" lon="-1.26251">
        <ele>0.5</ele>
        <time>2020-06-15T11:25:37Z</time>
      </trkpt>
      <trkpt lat="49.58894" lon="-1.26251">
        <ele>0.5</ele>
        <time>2020-06-15T11:25:38Z</time>
      </trkpt>
      <trkpt lat="49.5889" lon="-1.26251">
        <ele>0.5</ele>
        <time>2020-06-15T11:25:39Z</time>
      </trkpt>
      <trkpt lat="49.58885" lon="-1.26251">
        <ele>0.4</ele>
        <time>2020-06-15T11:25:40Z</time>
      </trkpt>
      <trkpt lat="49.5888" lon="-1.2625">
        <ele>0.4</ele>
        <time>2020-06-15T11:25:41Z</time>
      </trkpt>
      <trkpt lat="49.58875" lon="-1.26247">
        <ele>0.3</ele>
        <time>2020-06-15T11:25:42Z</time>
      </trkpt>
      <trkpt lat="49.5887" lon="-1.26243">
        <ele>0.2</ele>
        <time>2020-06-15T11:25:43Z</time>
      </trkpt>
      <trkpt lat="49.58866" lon="-1.26238">
        <ele>0.2</ele>
        <time>2020-06-15T11:25:44Z</time>
      </trkpt>
      <trkpt lat="49.58862" lon="-1.26232">
        <ele>0.1</ele>
        <time>2020-06-15T11:25:45Z</time>
      </trkpt>
      <trkpt lat="49.58858" lon="-1.26226">
        <ele>0.1</ele>
        <time>2020-06-15T11:25:46Z</time>
      </trkpt>
      <trkpt lat="49.58855" lon="-1.26221">
        <ele>5</ele>
        <time>2020-06-15T11:25:47Z</time>
      </trkpt>
      <trkpt lat="49.58853" lon="-1.26217">
        <ele>-0.1</ele>
        <time>2020-06-15T11:25:48Z</time>
      </trkpt>
      <trkpt lat="49.5885" lon="-1.26212">
        <ele>-0.1</ele>
        <time>2020-06-15T11:25:49Z</time>
      </trkpt>
      <trkpt lat="49.58846" lon="-1.26209">
        <ele>-0.1</ele>
        <time>2020-06-15T11:25:50Z</time>
      </trkpt>
      <trkpt lat="49.58843" lon="-1.26207">
        <ele>-0.1</ele>
        <time>2020-06-15T11:25:51Z</time>
      </trkpt>
      <trkpt lat="49.5884" lon="-1.26207">
        <ele>-0.1</ele>
        <time>2020-06-15T11:25:52Z</time>
      </trkpt>
      <trkpt lat="49.58837" lon="-1.26207">
        <ele>-0.1</ele>
        <time>2020-06-15T11:25:53Z</time>
      </trkpt>
      <trkpt lat="49.58832" lon="-1.26208">
        <ele>-0.1</ele>
        <time>2020-06-15T11:25:54Z</time>
      </trkpt>
      <trkpt lat="49.58828" lon="-1.2621">
        <ele>4.9</ele>
        <time>2020-06-15T11:25:55Z</time>
      </trkpt>
      <trkpt lat="49.58824" lon="-1.26213">
        <ele>4.9</ele>
        <time>2020-06-15T11:25:56Z</time>
      </trkpt>
      <trkpt lat="49.5882" lon="-1.26216">
        <ele>4.9</ele>
        <time>2020-06-15T11:25:57Z</time>
      </trkpt>
      <trkpt lat="49.58816" lon="-1.2622">
        <ele>5</ele>
        <time>2020-06-15T11:25:58Z</time>
      </trkpt>
      <trkpt lat="49.58812" lon="-1.26225">
        <ele>4.9</ele>
        <time>2020-06-15T11:25:59Z</time>
      </trkpt>
      <trkpt lat="49.58809" lon="-1.26229">
        <ele>4.9</ele>
        <time>2020-06-15T11:26:00Z</time>
      </trkpt>
      <trkpt lat="49.58806" lon="-1.26235">
        <ele>5</ele>
        <time>2020-06-15T11:26:01Z</time>
      </trkpt>
      <trkpt lat="49.58802" lon="-1.2624">
        <ele>-0.1</ele>
        <time>2020-06-15T11:26:02Z</time>
      </trkpt>
      <trkpt lat="49.588" lon="-1.26246">
        <ele>-0.1</ele>
        <time>2020-06-15T11:26:03Z</time>
      </trkpt>
      <trkpt lat="49.58799" lon="-1.26253">
        <ele>-0.1</ele>
        <time>2020-06-15T11:26:04Z</time>
      </trkpt>
      <trkpt lat="49.58795" lon="-1.2626">
        <ele>-0.1</ele>
        <time>2020-06-15T11:26:05Z</time>
      </trkpt>
      <trkpt lat="49.58792" lon="-1.26266">
        <ele>-0.1</ele>
        <time>2020-06-15T11:26:06Z</time>
      </trkpt>
      <trkpt lat="49.58788" lon="-1.26271">
        <ele>-0.1</ele>
        <time>2020-06-15T11:26:07Z</time>
      </trkpt>
      <trkpt lat="49.58785" lon="-1.26275">
        <ele>-0.1</ele>
        <time>2020-06-15T11:26:08Z</time>
      </trkpt>
      <trkpt lat="49.5878" lon="-1.26276">
        <ele>4.7</ele>
        <time>2020-06-15T11:26:09Z</time>
      </trkpt>
      <trkpt lat="49.58775" lon="-1.26275">
        <ele>5</ele>
        <time>2020-06-15T11:26:10Z</time>
      </trkpt>
      <trkpt lat="49.58769" lon="-1.26275">
        <ele>5</ele>
        <time>2020-06-15T11:26:11Z</time>
      </trkpt>
      <trkpt lat="49.58764" lon="-1.26273">
        <ele>5</ele>
        <time>2020-06-15T11:26:12Z</time>
      </trkpt>
      <trkpt lat="49.58759" lon="-1.26271">
        <ele>5</ele>
        <time>2020-06-15T11:26:13Z</time>
      </trkpt>
      <trkpt lat="49.58755" lon="-1.26267">
        <ele>0.1</ele>
        <time>2020-06-15T11:26:14Z</time>
      </trkpt>
      <trkpt lat="49.58752" lon="-1.26263">
        <ele>0.1</ele>
        <time>2020-06-15T11:26:15Z</time>
      </trkpt>
      <trkpt lat="49.58748" lon="-1.26258">
        <ele>0.1</ele>
        <time>2020-06-15T11:26:16Z</time>
      </trkpt>
      <trkpt lat="49.58745" lon="-1.26254">
        <ele>0.1</ele>
        <time>2020-06-15T11:26:17Z</time>
      </trkpt>
      <trkpt lat="49.58743" lon="-1.26249">
        <ele>4.3</ele>
        <time>2020-06-15T11:26:18Z</time>
      </trkpt>
      <trkpt lat="49.5874" lon="-1.26245">
        <ele>4.1</ele>
        <time>2020-06-15T11:26:19Z</time>
      </trkpt>
      <trkpt lat="49.58737" lon="-1.2624">
        <ele>4.1</ele>
        <time>2020-06-15T11:26:20Z</time>
      </trkpt>
      <trkpt lat="49.58734" lon="-1.26236">
        <ele>4.1</ele>
        <time>2020-06-15T11:26:21Z</time>
      </trkpt>
      <trkpt lat="49.58732" lon="-1.2623">
        <ele>-0.1</ele>
        <time>2020-06-15T11:26:22Z</time>
      </trkpt>
      <trkpt lat="49.58729" lon="-1.26225">
        <ele>-0.1</ele>
        <time>2020-06-15T11:26:23Z</time>
      </trkpt>
      <trkpt lat="49.58726" lon="-1.26221">
        <ele>-0.1</ele>
        <time>2020-06-15T11:26:24Z</time>
      </trkpt>
      <trkpt lat="49.58723" lon="-1.26217">
        <ele>-0.1</ele>
        <time>2020-06-15T11:26:25Z</time>
      </trkpt>
      <trkpt lat="49.5872" lon="-1.26214">
        <ele>-0.1</ele>
        <time>2020-06-15T11:26:26Z</time>
      </trkpt>
      <trkpt lat="49.58718" lon="-1.2621">
        <ele>4.7</ele>
        <time>2020-06-15T11:26:27Z</time>
      </trkpt>
      <trkpt lat="49.58715" lon="-1.26207">
        <ele>4.6</ele>
        <time>2020-06-15T11:26:28Z</time>
      </trkpt>
      <trkpt lat="49.58712" lon="-1.26203">
        <ele>4.7</ele>
        <time>2020-06-15T11:26:29Z</time>
      </trkpt>
      <trkpt lat="49.58711" lon="-1.26201">
        <ele>4.7</ele>
        <time>2020-06-15T11:26:30Z</time>
      </trkpt>
      <trkpt lat="49.58708" lon="-1.26198">
        <ele>4.8</ele>
        <time>2020-06-15T11:26:31Z</time>
      </trkpt>
      <trkpt lat="49.58708" lon="-1.26197">
        <ele>4.9</ele>
        <time>2020-06-15T11:26:32Z</time>
      </trkpt>
      <trkpt lat="49.58707" lon="-1.26195">
        <ele>5</ele>
        <time>2020-06-15T11:26:33Z</time>
      </trkpt>
      <trkpt lat="49.58708" lon="-1.26195">
        <ele>5</ele>
        <time>2020-06-15T11:26:34Z</time>
      </trkpt>
      <trkpt lat="49.58708" lon="-1.26195">
        <ele>5</ele>
        <time>2020-06-15T11:26:35Z</time>
      </trkpt>
      <trkpt lat="49.58708" lon="-1.26195">
        <ele>5</ele>
        <time>2020-06-15T11:26:36Z</time>
      </trkpt>
      <trkpt lat="49.58707" lon="-1.26194">
        <ele>5</ele>
        <time>2020-06-15T11:26:37Z</time>
      </trkpt>
      <trkpt lat="49.58707" lon="-1.26193">
        <ele>5</ele>
        <time>2020-06-15T11:26:38Z</time>
      </trkpt>
      <trkpt lat="49.58706" lon="-1.26193">
        <ele>5</ele>
        <time>2020-06-15T11:26:39Z</time>
      </trkpt>
      <trkpt lat="49.58706" lon="-1.26193">
        <ele>5</ele>
        <time>2020-06-15T11:26:40Z</time>
      </trkpt>
      <trkpt lat="49.58705" lon="-1.26193">
        <ele>5</ele>
        <time>2020-06-15T11:26:41Z</time>
      </trkpt>
      <trkpt lat="49.58705" lon="-1.26193">
        <ele>5</ele>
        <time>2020-06-15T11:26:42Z</time>
      </trkpt>
      <trkpt lat="49.58705" lon="-1.26194">
        <ele>5</ele>
        <time>2020-06-15T11:26:43Z</time>
      </trkpt>
      <trkpt lat="49.58705" lon="-1.26193">
        <ele>5</ele>
        <time>2020-06-15T11:26:44Z</time>
      </trkpt>
      <trkpt lat="49.58704" lon="-1.26193">
        <ele>5</ele>
        <time>2020-06-15T11:26:45Z</time>
      </trkpt>
      <trkpt lat="49.58704" lon="-1.26194">
        <ele>5</ele>
        <time>2020-06-15T11:26:46Z</time>
      </trkpt>
      <trkpt lat="49.58703" lon="-1.26194">
        <ele>5</ele>
        <time>2020-06-15T11:26:47Z</time>
      </trkpt>
      <trkpt lat="49.58703" lon="-1.26194">
        <ele>5</ele>
        <time>2020-06-15T11:26:48Z</time>
      </trkpt>
      <trkpt lat="49.58703" lon="-1.26193">
        <ele>5</ele>
        <time>2020-06-15T11:26:49Z</time>
      </trkpt>
      <trkpt lat="49.58703" lon="-1.26193">
        <ele>5</ele>
        <time>2020-06-15T11:26:50Z</time>
      </trkpt>
      <trkpt lat="49.58702" lon="-1.26196">
        <ele>4.9</ele>
        <time>2020-06-15T11:26:51Z</time>
      </trkpt>
      <trkpt lat="49.58702" lon="-1.26196">
        <ele>4.9</ele>
        <time>2020-06-15T11:26:52Z</time>
      </trkpt>
      <trkpt lat="49.58702" lon="-1.26197">
        <ele>4.8</ele>
        <time>2020-06-15T11:26:53Z</time>
      </trkpt>
      <trkpt lat="49.58702" lon="-1.26199">
        <ele>4.6</ele>
        <time>2020-06-15T11:26:54Z</time>
      </trkpt>
      <trkpt lat="49.58701" lon="-1.262">
        <ele>4.5</ele>
        <time>2020-06-15T11:26:55Z</time>
      </trkpt>
      <trkpt lat="49.58701" lon="-1.26201">
        <ele>4.5</ele>
        <time>2020-06-15T11:26:56Z</time>
      </trkpt>
      <trkpt lat="49.58701" lon="-1.262">
        <ele>4.5</ele>
        <time>2020-06-15T11:26:57Z</time>
      </trkpt>
      <trkpt lat="49.587" lon="-1.26199">
        <ele>4.6</ele>
        <time>2020-06-15T11:26:58Z</time>
      </trkpt>
      <trkpt lat="49.587" lon="-1.26198">
        <ele>4.7</ele>
        <time>2020-06-15T11:26:59Z</time>
      </trkpt>
      <trkpt lat="49.587" lon="-1.26198">
        <ele>4.7</ele>
        <time>2020-06-15T11:27:00Z</time>
      </trkpt>
      <trkpt lat="49.58699" lon="-1.26198">
        <ele>4.7</ele>
        <time>2020-06-15T11:27:01Z</time>
      </trkpt>
      <trkpt lat="49.58698" lon="-1.26197">
        <ele>4.8</ele>
        <time>2020-06-15T11:27:02Z</time>
      </trkpt>
      <trkpt lat="49.58699" lon="-1.26196">
        <ele>4.9</ele>
        <time>2020-06-15T11:27:03Z</time>
      </trkpt>
      <trkpt lat="49.58698" lon="-1.26196">
        <ele>4.9</ele>
        <time>2020-06-15T11:27:04Z</time>
      </trkpt>
      <trkpt lat="49.58699" lon="-1.26196">
        <ele>4.9</ele>
        <time>2020-06-15T11:27:05Z</time>
      </trkpt>
      <trkpt lat="49.58698" lon="-1.26196">
        <ele>4.9</ele>
        <time>2020-06-15T11:27:06Z</time>
      </trkpt>
      <trkpt lat="49.58699" lon="-1.26196">
        <ele>4.9</ele>
        <time>2020-06-15T11:27:07Z</time>
      </trkpt>
      <trkpt lat="49.58699" lon="-1.26196">
        <ele>4.9</ele>
        <time>2020-06-15T11:27:08Z</time>
      </trkpt>
      <trkpt lat="49.587" lon="-1.26197">
        <ele>4.8</ele>
        <time>2020-06-15T11:27:09Z</time>
      </trkpt>
      <trkpt lat="49.58702" lon="-1.26199">
        <ele>4.6</ele>
        <time>2020-06-15T11:27:10Z</time>
      </trkpt>
      <trkpt lat="49.5871" lon="-1.26199">
        <ele>4.8</ele>
        <time>2020-06-15T11:28:13Z</time>
      </trkpt>
      <trkpt lat="49.58709" lon="-1.26199">
        <ele>4.8</ele>
        <time>2020-06-15T11:28:14Z</time>
      </trkpt>
      <trkpt lat="49.58709" lon="-1.26198">
        <ele>4.8</ele>
        <time>2020-06-15T11:28:15Z</time>
      </trkpt>
      <trkpt lat="49.58708" lon="-1.26198">
        <ele>4.8</ele>
        <time>2020-06-15T11:28:16Z</time>
      </trkpt>
      <trkpt lat="49.58709" lon="-1.26198">
        <ele>4.8</ele>
        <time>2020-06-15T11:28:17Z</time>
      </trkpt>
      <trkpt lat="49.58708" lon="-1.26197">
        <ele>4.9</ele>
        <time>2020-06-15T11:28:18Z</time>
      </trkpt>
      <trkpt lat="49.58707" lon="-1.26197">
        <ele>4.8</ele>
        <time>2020-06-15T11:28:19Z</time>
      </trkpt>
      <trkpt lat="49.58706" lon="-1.26198">
        <ele>4.8</ele>
        <time>2020-06-15T11:28:20Z</time>
      </trkpt>
      <trkpt lat="49.58705" lon="-1.26198">
        <ele>4.8</ele>
        <time>2020-06-15T11:28:21Z</time>
      </trkpt>
      <trkpt lat="49.58704" lon="-1.26197">
        <ele>4.8</ele>
        <time>2020-06-15T11:28:22Z</time>
      </trkpt>
      <trkpt lat="49.58703" lon="-1.26196">
        <ele>4.9</ele>
        <time>2020-06-15T11:28:23Z</time>
      </trkpt>
      <trkpt lat="49.58701" lon="-1.26195">
        <ele>5</ele>
        <time>2020-06-15T11:28:24Z</time>
      </trkpt>
      <trkpt lat="49.587" lon="-1.26192">
        <ele>5</ele>
        <time>2020-06-15T11:28:25Z</time>
      </trkpt>
      <trkpt lat="49.58699" lon="-1.2619">
        <ele>5</ele>
        <time>2020-06-15T11:28:26Z</time>
      </trkpt>
      <trkpt lat="49.58699" lon="-1.26188">
        <ele>5</ele>
        <time>2020-06-15T11:28:27Z</time>
      </trkpt>
      <trkpt lat="49.58699" lon="-1.26185">
        <ele>4.9</ele>
        <time>2020-06-15T11:28:28Z</time>
      </trkpt>
      <trkpt lat="49.58699" lon="-1.26182">
        <ele>4.9</ele>
        <time>2020-06-15T11:28:29Z</time>
      </trkpt>
      <trkpt lat="49.58699" lon="-1.2618">
        <ele>4.9</ele>
        <time>2020-06-15T11:28:30Z</time>
      </trkpt>
      <trkpt lat="49.58697" lon="-1.26179">
        <ele>4.9</ele>
        <time>2020-06-15T11:28:31Z</time>
      </trkpt>
      <trkpt lat="49.58696" lon="-1.26178">
        <ele>5</ele>
        <time>2020-06-15T11:28:32Z</time>
      </trkpt>
      <trkpt lat="49.58694" lon="-1.26177">
        <ele>5</ele>
        <time>2020-06-15T11:28:33Z</time>
      </trkpt>
      <trkpt lat="49.58694" lon="-1.26174">
        <ele>5</ele>
        <time>2020-06-15T11:28:34Z</time>
      </trkpt>
      <trkpt lat="49.58692" lon="-1.2617">
        <ele>4.8</ele>
        <time>2020-06-15T11:28:35Z</time>
      </trkpt>
      <trkpt lat="49.58692" lon="-1.26168">
        <ele>4.7</ele>
        <time>2020-06-15T11:28:36Z</time>
      </trkpt>
      <trkpt lat="49.58689" lon="-1.26164">
        <ele>4.4</ele>
        <time>2020-06-15T11:28:37Z</time>
      </trkpt>
      <trkpt lat="49.58688" lon="-1.26163">
        <ele>4.3</ele>
        <time>2020-06-15T11:28:38Z</time>
      </trkpt>
      <trkpt lat="49.58685" lon="-1.26158">
        <ele>4</ele>
        <time>2020-06-15T11:28:39Z</time>
      </trkpt>
      <trkpt lat="49.58683" lon="-1.26156">
        <ele>3.9</ele>
        <time>2020-06-15T11:28:40Z</time>
      </trkpt>
      <trkpt lat="49.5868" lon="-1.26154">
        <ele>3.7</ele>
        <time>2020-06-15T11:28:41Z</time>
      </trkpt>
      <trkpt lat="49.58678" lon="-1.26151">
        <ele>3.7</ele>
        <time>2020-06-15T11:28:42Z</time>
      </trkpt>
      <trkpt lat="49.58675" lon="-1.26149">
        <ele>3.6</ele>
        <time>2020-06-15T11:28:43Z</time>
      </trkpt>
      <trkpt lat="49.58672" lon="-1.26145">
        <ele>3.7</ele>
        <time>2020-06-15T11:28:44Z</time>
      </trkpt>
      <trkpt lat="49.58671" lon="-1.26144">
        <ele>3.7</ele>
        <time>2020-06-15T11:28:45Z</time>
      </trkpt>
      <trkpt lat="49.58669" lon="-1.26139">
        <ele>4</ele>
        <time>2020-06-15T11:28:46Z</time>
      </trkpt>
      <trkpt lat="49.58668" lon="-1.26138">
        <ele>3.9</ele>
        <time>2020-06-15T11:28:47Z</time>
      </trkpt>
      <trkpt lat="49.58667" lon="-1.26134">
        <ele>3.6</ele>
        <time>2020-06-15T11:28:48Z</time>
      </trkpt>
      <trkpt lat="49.58666" lon="-1.26129">
        <ele>1</ele>
        <time>2020-06-15T11:28:49Z</time>
      </trkpt>
      <trkpt lat="49.58666" lon="-1.26128">
        <ele>1</ele>
        <time>2020-06-15T11:28:50Z</time>
      </trkpt>
      <trkpt lat="49.58664" lon="-1.26123">
        <ele>1</ele>
        <time>2020-06-15T11:28:51Z</time>
      </trkpt>
      <trkpt lat="49.58663" lon="-1.26121">
        <ele>1</ele>
        <time>2020-06-15T11:28:52Z</time>
      </trkpt>
      <trkpt lat="49.58662" lon="-1.26116">
        <ele>1</ele>
        <time>2020-06-15T11:28:53Z</time>
      </trkpt>
      <trkpt lat="49.58661" lon="-1.26114">
        <ele>1</ele>
        <time>2020-06-15T11:28:54Z</time>
      </trkpt>
      <trkpt lat="49.5866" lon="-1.2611">
        <ele>1</ele>
        <time>2020-06-15T11:28:55Z</time>
      </trkpt>
      <trkpt lat="49.58659" lon="-1.26105">
        <ele>0.1</ele>
        <time>2020-06-15T11:28:56Z</time>
      </trkpt>
      <trkpt lat="49.58659" lon="-1.26104">
        <ele>0.1</ele>
        <time>2020-06-15T11:28:57Z</time>
      </trkpt>
      <trkpt lat="49.58658" lon="-1.26102">
        <ele>0.1</ele>
        <time>2020-06-15T11:28:58Z</time>
      </trkpt>
      <trkpt lat="49.58657" lon="-1.261">
        <ele>0.1</ele>
        <time>2020-06-15T11:28:59Z</time>
      </trkpt>
      <trkpt lat="49.58656" lon="-1.26097">
        <ele>0.1</ele>
        <time>2020-06-15T11:29:00Z</time>
      </trkpt>
      <trkpt lat="49.58656" lon="-1.26096">
        <ele>0.1</ele>
        <time>2020-06-15T11:29:01Z</time>
      </trkpt>
      <trkpt lat="49.58656" lon="-1.26094">
        <ele>0.1</ele>
        <time>2020-06-15T11:29:02Z</time>
      </trkpt>
      <trkpt lat="49.58655" lon="-1.26093">
        <ele>0.1</ele>
        <time>2020-06-15T11:29:03Z</time>
      </trkpt>
      <trkpt lat="49.58655" lon="-1.26093">
        <ele>0.1</ele>
        <time>2020-06-15T11:29:04Z</time>
      </trkpt>
      <trkpt lat="49.58655" lon="-1.26093">
        <ele>0.1</ele>
        <time>2020-06-15T11:29:05Z</time>
      </trkpt>
      <trkpt lat="49.58655" lon="-1.26092">
        <ele>0.1</ele>
        <time>2020-06-15T11:29:06Z</time>
      </trkpt>
      <trkpt lat="49.58655" lon="-1.26092">
        <ele>0.1</ele>
        <time>2020-06-15T11:29:07Z</time>
      </trkpt>
      <trkpt lat="49.58655" lon="-1.26093">
        <ele>0.1</ele>
        <time>2020-06-15T11:29:08Z</time>
      </trkpt>
      <trkpt lat="49.58655" lon="-1.26092">
        <ele>0.1</ele>
        <time>2020-06-15T11:29:09Z</time>
      </trkpt>
      <trkpt lat="49.58654" lon="-1.26091">
        <ele>0.1</ele>
        <time>2020-06-15T11:29:10Z</time>
      </trkpt>
      <trkpt lat="49.58654" lon="-1.26091">
        <ele>0.1</ele>
        <time>2020-06-15T11:29:11Z</time>
      </trkpt>
      <trkpt lat="49.58654" lon="-1.2609">
        <ele>0.1</ele>
        <time>2020-06-15T11:29:12Z</time>
      </trkpt>
      <trkpt lat="49.58654" lon="-1.26091">
        <ele>0.1</ele>
        <time>2020-06-15T11:29:13Z</time>
      </trkpt>
      <trkpt lat="49.58654" lon="-1.26091">
        <ele>0.1</ele>
        <time>2020-06-15T11:29:14Z</time>
      </trkpt>
      <trkpt lat="49.58662" lon="-1.26087">
        <ele>0.1</ele>
        <time>2020-06-15T11:30:10Z</time>
      </trkpt>
      <trkpt lat="49.58663" lon="-1.26085">
        <ele>0.1</ele>
        <time>2020-06-15T11:30:11Z</time>
      </trkpt>
      <trkpt lat="49.58664" lon="-1.26084">
        <ele>0.1</ele>
        <time>2020-06-15T11:30:12Z</time>
      </trkpt>
      <trkpt lat="49.58664" lon="-1.26082">
        <ele>0.1</ele>
        <time>2020-06-15T11:30:13Z</time>
      </trkpt>
      <trkpt lat="49.58665" lon="-1.2608">
        <ele>0.1</ele>
        <time>2020-06-15T11:30:14Z</time>
      </trkpt>
      <trkpt lat="49.58665" lon="-1.26077">
        <ele>0.1</ele>
        <time>2020-06-15T11:30:15Z</time>
      </trkpt>
      <trkpt lat="49.58666" lon="-1.26075">
        <ele>0.1</ele>
        <time>2020-06-15T11:30:16Z</time>
      </trkpt>
      <trkpt lat="49.58666" lon="-1.26073">
        <ele>0.1</ele>
        <time>2020-06-15T11:30:17Z</time>
      </trkpt>
      <trkpt lat="49.58666" lon="-1.26071">
        <ele>0.1</ele>
        <time>2020-06-15T11:30:18Z</time>
      </trkpt>
      <trkpt lat="49.58666" lon="-1.2607">
        <ele>0.1</ele>
        <time>2020-06-15T11:30:19Z</time>
      </trkpt>
      <trkpt lat="49.58666" lon="-1.26068">
        <ele>0.1</ele>
        <time>2020-06-15T11:30:20Z</time>
      </trkpt>
      <trkpt lat="49.58666" lon="-1.26066">
        <ele>0.1</ele>
        <time>2020-06-15T11:30:21Z</time>
      </trkpt>
      <trkpt lat="49.58666" lon="-1.26065">
        <ele>0.1</ele>
        <time>2020-06-15T11:30:22Z</time>
      </trkpt>
      <trkpt lat="49.58666" lon="-1.26064">
        <ele>0.1</ele>
        <time>2020-06-15T11:30:23Z</time>
      </trkpt>
      <trkpt lat="49.58666" lon="-1.26063">
        <ele>0.1</ele>
        <time>2020-06-15T11:30:24Z</time>
      </trkpt>
      <trkpt lat="49.58666" lon="-1.26063">
        <ele>0.1</ele>
        <time>2020-06-15T11:30:25Z</time>
      </trkpt>
      <trkpt lat="49.58666" lon="-1.26061">
        <ele>0.1</ele>
        <time>2020-06-15T11:30:26Z</time>
      </trkpt>
      <trkpt lat="49.58666" lon="-1.2606">
        <ele>0.1</ele>
        <time>2020-06-15T11:30:27Z</time>
      </trkpt>
      <trkpt lat="49.58666" lon="-1.2606">
        <ele>0.1</ele>
        <time>2020-06-15T11:30:28Z</time>
      </trkpt>
      <trkpt lat="49.58666" lon="-1.26059">
        <ele>0.1</ele>
        <time>2020-06-15T11:30:29Z</time>
      </trkpt>
      <trkpt lat="49.58666" lon="-1.26059">
        <ele>0.1</ele>
        <time>2020-06-15T11:30:30Z</time>
      </trkpt>
      <trkpt lat="49.58666" lon="-1.26059">
        <ele>0.1</ele>
        <time>2020-06-15T11:30:31Z</time>
      </trkpt>
      <trkpt lat="49.58666" lon="-1.26059">
        <ele>0.1</ele>
        <time>2020-06-15T11:30:32Z</time>
      </trkpt>
      <trkpt lat="49.58666" lon="-1.26059">
        <ele>0.1</ele>
        <time>2020-06-15T11:30:33Z</time>
      </trkpt>
      <trkpt lat="49.58666" lon="-1.26059">
        <ele>0.1</ele>
        <time>2020-06-15T11:30:34Z</time>
      </trkpt>
      <trkpt lat="49.58666" lon="-1.26059">
        <ele>0.1</ele>
        <time>2020-06-15T11:30:35Z</time>
      </trkpt>
      <trkpt lat="49.5867" lon="-1.26059">
        <ele>0.1</ele>
        <time>2020-06-15T11:31:48Z</time>
      </trkpt>
      <trkpt lat="49.58671" lon="-1.26061">
        <ele>0.1</ele>
        <time>2020-06-15T11:31:49Z</time>
      </trkpt>
      <trkpt lat="49.58672" lon="-1.26062">
        <ele>0.1</ele>
        <time>2020-06-15T11:31:50Z</time>
      </trkpt>
      <trkpt lat="49.58673" lon="-1.26064">
        <ele>0.1</ele>
        <time>2020-06-15T11:31:51Z</time>
      </trkpt>
      <trkpt lat="49.58675" lon="-1.26066">
        <ele>0.1</ele>
        <time>2020-06-15T11:31:52Z</time>
      </trkpt>
      <trkpt lat="49.58676" lon="-1.26067">
        <ele>0.1</ele>
        <time>2020-06-15T11:31:53Z</time>
      </trkpt>
      <trkpt lat="49.58677" lon="-1.26068">
        <ele>0.1</ele>
        <time>2020-06-15T11:31:54Z</time>
      </trkpt>
      <trkpt lat="49.58677" lon="-1.26068">
        <ele>0.1</ele>
        <time>2020-06-15T11:31:55Z</time>
      </trkpt>
      <trkpt lat="49.58678" lon="-1.26069">
        <ele>0.1</ele>
        <time>2020-06-15T11:31:56Z</time>
      </trkpt>
      <trkpt lat="49.58678" lon="-1.2607">
        <ele>0.2</ele>
        <time>2020-06-15T11:31:57Z</time>
      </trkpt>
      <trkpt lat="49.58678" lon="-1.26071">
        <ele>0.2</ele>
        <time>2020-06-15T11:31:58Z</time>
      </trkpt>
      <trkpt lat="49.58679" lon="-1.26071">
        <ele>0.2</ele>
        <time>2020-06-15T11:31:59Z</time>
      </trkpt>
      <trkpt lat="49.58679" lon="-1.2607">
        <ele>0.2</ele>
        <time>2020-06-15T11:32:00Z</time>
      </trkpt>
      <trkpt lat="49.58678" lon="-1.2607">
        <ele>0.2</ele>
        <time>2020-06-15T11:32:01Z</time>
      </trkpt>
      <trkpt lat="49.58678" lon="-1.26071">
        <ele>0.2</ele>
        <time>2020-06-15T11:32:02Z</time>
      </trkpt>
      <trkpt lat="49.58678" lon="-1.26071">
        <ele>0.2</ele>
        <time>2020-06-15T11:32:03Z</time>
      </trkpt>
      <trkpt lat="49.58678" lon="-1.26071">
        <ele>0.2</ele>
        <time>2020-06-15T11:32:04Z</time>
      </trkpt>
      <trkpt lat="49.58677" lon="-1.26071">
        <ele>0.2</ele>
        <time>2020-06-15T11:32:05Z</time>
      </trkpt>
      <trkpt lat="49.58677" lon="-1.26071">
        <ele>0.2</ele>
        <time>2020-06-15T11:32:06Z</time>
      </trkpt>
      <trkpt lat="49.58677" lon="-1.26071">
        <ele>0.2</ele>
        <time>2020-06-15T11:32:07Z</time>
      </trkpt>
      <trkpt lat="49.58677" lon="-1.26071">
        <ele>0.2</ele>
        <time>2020-06-15T11:32:08Z</time>
      </trkpt>
      <trkpt lat="49.58677" lon="-1.26071">
        <ele>0.2</ele>
        <time>2020-06-15T11:32:09Z</time>
      </trkpt>
      <trkpt lat="49.58677" lon="-1.26071">
        <ele>0.2</ele>
        <time>2020-06-15T11:32:10Z</time>
      </trkpt>
      <trkpt lat="49.58676" lon="-1.26071">
        <ele>0.2</ele>
        <time>2020-06-15T11:32:11Z</time>
      </trkpt>
      <trkpt lat="49.58676" lon="-1.26071">
        <ele>0.2</ele>
        <time>2020-06-15T11:32:12Z</time>
      </trkpt>
      <trkpt lat="49.58675" lon="-1.26071">
        <ele>0.2</ele>
        <time>2020-06-15T11:32:13Z</time>
      </trkpt>
      <trkpt lat="49.58675" lon="-1.2607">
        <ele>0.2</ele>
        <time>2020-06-15T11:32:14Z</time>
      </trkpt>
      <trkpt lat="49.58674" lon="-1.2607">
        <ele>0.2</ele>
        <time>2020-06-15T11:32:15Z</time>
      </trkpt>
      <trkpt lat="49.58675" lon="-1.26069">
        <ele>0.2</ele>
        <time>2020-06-15T11:32:16Z</time>
      </trkpt>
      <trkpt lat="49.58675" lon="-1.26069">
        <ele>0.2</ele>
        <time>2020-06-15T11:32:17Z</time>
      </trkpt>
      <trkpt lat="49.58675" lon="-1.26068">
        <ele>0.2</ele>
        <time>2020-06-15T11:32:18Z</time>
      </trkpt>
      <trkpt lat="49.58675" lon="-1.26068">
        <ele>0.2</ele>
        <time>2020-06-15T11:32:19Z</time>
      </trkpt>
      <trkpt lat="49.58675" lon="-1.26068">
        <ele>0.2</ele>
        <time>2020-06-15T11:32:20Z</time>
      </trkpt>
      <trkpt lat="49.58676" lon="-1.26067">
        <ele>0.2</ele>
        <time>2020-06-15T11:32:21Z</time>
      </trkpt>
      <trkpt lat="49.58676" lon="-1.26067">
        <ele>0.2</ele>
        <time>2020-06-15T11:32:22Z</time>
      </trkpt>
      <trkpt lat="49.58676" lon="-1.26067">
        <ele>0.2</ele>
        <time>2020-06-15T11:32:23Z</time>
      </trkpt>
      <trkpt lat="49.58676" lon="-1.26067">
        <ele>0.2</ele>
        <time>2020-06-15T11:32:24Z</time>
      </trkpt>
      <trkpt lat="49.58675" lon="-1.26067">
        <ele>0.2</ele>
        <time>2020-06-15T11:32:25Z</time>
      </trkpt>
      <trkpt lat="49.58675" lon="-1.26067">
        <ele>0.2</ele>
        <time>2020-06-15T11:32:26Z</time>
      </trkpt>
      <trkpt lat="49.58675" lon="-1.26066">
        <ele>0.2</ele>
        <time>2020-06-15T11:32:27Z</time>
      </trkpt>
      <trkpt lat="49.58675" lon="-1.26066">
        <ele>0.2</ele>
        <time>2020-06-15T11:32:28Z</time>
      </trkpt>
      <trkpt lat="49.58676" lon="-1.26066">
        <ele>0.2</ele>
        <time>2020-06-15T11:32:29Z</time>
      </trkpt>
      <trkpt lat="49.5868" lon="-1.2607">
        <ele>0.2</ele>
        <time>2020-06-15T11:33:12Z</time>
      </trkpt>
      <trkpt lat="49.58681" lon="-1.2607">
        <ele>0.2</ele>
        <time>2020-06-15T11:33:13Z</time>
      </trkpt>
      <trkpt lat="49.58681" lon="-1.26069">
        <ele>0.2</ele>
        <time>2020-06-15T11:33:14Z</time>
      </trkpt>
      <trkpt lat="49.58681" lon="-1.26069">
        <ele>0.2</ele>
        <time>2020-06-15T11:33:15Z</time>
      </trkpt>
      <trkpt lat="49.58681" lon="-1.2607">
        <ele>0.2</ele>
        <time>2020-06-15T11:33:16Z</time>
      </trkpt>
      <trkpt lat="49.58681" lon="-1.2607">
        <ele>0.2</ele>
        <time>2020-06-15T11:33:17Z</time>
      </trkpt>
      <trkpt lat="49.58681" lon="-1.2607">
        <ele>0.2</ele>
        <time>2020-06-15T11:33:18Z</time>
      </trkpt>
      <trkpt lat="49.58682" lon="-1.2607">
        <ele>0.2</ele>
        <time>2020-06-15T11:33:19Z</time>
      </trkpt>
      <trkpt lat="49.58682" lon="-1.2607">
        <ele>0.2</ele>
        <time>2020-06-15T11:33:20Z</time>
      </trkpt>
      <trkpt lat="49.58682" lon="-1.26071">
        <ele>0.2</ele>
        <time>2020-06-15T11:33:21Z</time>
      </trkpt>
      <trkpt lat="49.58681" lon="-1.26071">
        <ele>0.2</ele>
        <time>2020-06-15T11:33:22Z</time>
      </trkpt>
      <trkpt lat="49.58681" lon="-1.26071">
        <ele>0.2</ele>
        <time>2020-06-15T11:33:23Z</time>
      </trkpt>
      <trkpt lat="49.58681" lon="-1.26071">
        <ele>0.2</ele>
        <time>2020-06-15T11:33:24Z</time>
      </trkpt>
      <trkpt lat="49.5868" lon="-1.26071">
        <ele>0.2</ele>
        <time>2020-06-15T11:33:25Z</time>
      </trkpt>
      <trkpt lat="49.58679" lon="-1.26072">
        <ele>0.2</ele>
        <time>2020-06-15T11:33:26Z</time>
      </trkpt>
      <trkpt lat="49.58679" lon="-1.26072">
        <ele>0.2</ele>
        <time>2020-06-15T11:33:27Z</time>
      </trkpt>
      <trkpt lat="49.58679" lon="-1.26072">
        <ele>0.2</ele>
        <time>2020-06-15T11:33:28Z</time>
      </trkpt>
      <trkpt lat="49.58678" lon="-1.26071">
        <ele>0.2</ele>
        <time>2020-06-15T11:33:29Z</time>
      </trkpt>
      <trkpt lat="49.58677" lon="-1.26071">
        <ele>0.2</ele>
        <time>2020-06-15T11:33:30Z</time>
      </trkpt>
      <trkpt lat="49.58678" lon="-1.26067">
        <ele>0.2</ele>
        <time>2020-06-15T11:35:30Z</time>
      </trkpt>
      <trkpt lat="49.58679" lon="-1.26066">
        <ele>0.3</ele>
        <time>2020-06-15T11:35:31Z</time>
      </trkpt>
      <trkpt lat="49.58679" lon="-1.26065">
        <ele>0.3</ele>
        <time>2020-06-15T11:35:32Z</time>
      </trkpt>
      <trkpt lat="49.58679" lon="-1.26065">
        <ele>0.3</ele>
        <time>2020-06-15T11:35:33Z</time>
      </trkpt>
      <trkpt lat="49.58678" lon="-1.26065">
        <ele>0.3</ele>
        <time>2020-06-15T11:35:34Z</time>
      </trkpt>
      <trkpt lat="49.58678" lon="-1.26064">
        <ele>0.3</ele>
        <time>2020-06-15T11:35:35Z</time>
      </trkpt>
      <trkpt lat="49.58677" lon="-1.26063">
        <ele>0.3</ele>
        <time>2020-06-15T11:35:36Z</time>
      </trkpt>
      <trkpt lat="49.58677" lon="-1.26064">
        <ele>0.3</ele>
        <time>2020-06-15T11:35:37Z</time>
      </trkpt>
      <trkpt lat="49.58677" lon="-1.26064">
        <ele>0.3</ele>
        <time>2020-06-15T11:35:38Z</time>
      </trkpt>
      <trkpt lat="49.58677" lon="-1.26064">
        <ele>0.3</ele>
        <time>2020-06-15T11:35:39Z</time>
      </trkpt>
      <trkpt lat="49.58677" lon="-1.26065">
        <ele>0.3</ele>
        <time>2020-06-15T11:35:40Z</time>
      </trkpt>
      <trkpt lat="49.58677" lon="-1.26066">
        <ele>0.3</ele>
        <time>2020-06-15T11:35:41Z</time>
      </trkpt>
      <trkpt lat="49.58678" lon="-1.26067">
        <ele>0.3</ele>
        <time>2020-06-15T11:35:42Z</time>
      </trkpt>
      <trkpt lat="49.58678" lon="-1.26068">
        <ele>0.3</ele>
        <time>2020-06-15T11:35:43Z</time>
      </trkpt>
      <trkpt lat="49.58678" lon="-1.26068">
        <ele>0.3</ele>
        <time>2020-06-15T11:35:44Z</time>
      </trkpt>
      <trkpt lat="49.58678" lon="-1.26068">
        <ele>0.3</ele>
        <time>2020-06-15T11:35:45Z</time>
      </trkpt>
      <trkpt lat="49.58678" lon="-1.26069">
        <ele>0.3</ele>
        <time>2020-06-15T11:35:46Z</time>
      </trkpt>
      <trkpt lat="49.58678" lon="-1.26069">
        <ele>0.3</ele>
        <time>2020-06-15T11:35:47Z</time>
      </trkpt>
      <trkpt lat="49.58678" lon="-1.26068">
        <ele>0.3</ele>
        <time>2020-06-15T11:35:48Z</time>
      </trkpt>
      <trkpt lat="49.58678" lon="-1.26068">
        <ele>0.3</ele>
        <time>2020-06-15T11:35:49Z</time>
      </trkpt>
      <trkpt lat="49.58678" lon="-1.26068">
        <ele>0.3</ele>
        <time>2020-06-15T11:35:50Z</time>
      </trkpt>
      <trkpt lat="49.58678" lon="-1.26068">
        <ele>0.3</ele>
        <time>2020-06-15T11:35:51Z</time>
      </trkpt>
      <trkpt lat="49.58678" lon="-1.26067">
        <ele>0.3</ele>
        <time>2020-06-15T11:35:52Z</time>
      </trkpt>
      <trkpt lat="49.58678" lon="-1.26066">
        <ele>0.3</ele>
        <time>2020-06-15T11:35:53Z</time>
      </trkpt>
      <trkpt lat="49.58676" lon="-1.2608">
        <ele>0.3</ele>
        <time>2020-06-15T11:42:10Z</time>
      </trkpt>
      <trkpt lat="49.58676" lon="-1.2608">
        <ele>0.3</ele>
        <time>2020-06-15T11:42:11Z</time>
      </trkpt>
      <trkpt lat="49.58676" lon="-1.26079">
        <ele>0.3</ele>
        <time>2020-06-15T11:42:12Z</time>
      </trkpt>
      <trkpt lat="49.58676" lon="-1.26079">
        <ele>0.3</ele>
        <time>2020-06-15T11:42:13Z</time>
      </trkpt>
      <trkpt lat="49.58675" lon="-1.26078">
        <ele>0.3</ele>
        <time>2020-06-15T11:42:14Z</time>
      </trkpt>
      <trkpt lat="49.58674" lon="-1.26078">
        <ele>0.3</ele>
        <time>2020-06-15T11:42:15Z</time>
      </trkpt>
      <trkpt lat="49.58672" lon="-1.26079">
        <ele>0.3</ele>
        <time>2020-06-15T11:42:16Z</time>
      </trkpt>
      <trkpt lat="49.58672" lon="-1.26079">
        <ele>0.3</ele>
        <time>2020-06-15T11:42:17Z</time>
      </trkpt>
      <trkpt lat="49.58671" lon="-1.2608">
        <ele>0.3</ele>
        <time>2020-06-15T11:42:18Z</time>
      </trkpt>
      <trkpt lat="49.58671" lon="-1.2608">
        <ele>0.3</ele>
        <time>2020-06-15T11:42:19Z</time>
      </trkpt>
      <trkpt lat="49.5867" lon="-1.26081">
        <ele>0.3</ele>
        <time>2020-06-15T11:42:20Z</time>
      </trkpt>
      <trkpt lat="49.58669" lon="-1.26082">
        <ele>0.3</ele>
        <time>2020-06-15T11:42:21Z</time>
      </trkpt>
      <trkpt lat="49.58667" lon="-1.26083">
        <ele>0.3</ele>
        <time>2020-06-15T11:42:22Z</time>
      </trkpt>
      <trkpt lat="49.58667" lon="-1.26084">
        <ele>0.3</ele>
        <time>2020-06-15T11:42:23Z</time>
      </trkpt>
      <trkpt lat="49.58667" lon="-1.26084">
        <ele>0.3</ele>
        <time>2020-06-15T11:42:24Z</time>
      </trkpt>
      <trkpt lat="49.58667" lon="-1.26084">
        <ele>0.3</ele>
        <time>2020-06-15T11:42:25Z</time>
      </trkpt>
      <trkpt lat="49.58667" lon="-1.26084">
        <ele>0.3</ele>
        <time>2020-06-15T11:42:26Z</time>
      </trkpt>
      <trkpt lat="49.58666" lon="-1.26083">
        <ele>0.3</ele>
        <time>2020-06-15T11:42:27Z</time>
      </trkpt>
      <trkpt lat="49.58666" lon="-1.26084">
        <ele>0.3</ele>
        <time>2020-06-15T11:42:28Z</time>
      </trkpt>
      <trkpt lat="49.58667" lon="-1.26083">
        <ele>0.3</ele>
        <time>2020-06-15T11:42:29Z</time>
      </trkpt>
      <trkpt lat="49.58666" lon="-1.26084">
        <ele>0.3</ele>
        <time>2020-06-15T11:42:30Z</time>
      </trkpt>
      <trkpt lat="49.58667" lon="-1.26084">
        <ele>0.3</ele>
        <time>2020-06-15T11:42:31Z</time>
      </trkpt>
      <trkpt lat="49.58666" lon="-1.26084">
        <ele>0.3</ele>
        <time>2020-06-15T11:42:32Z</time>
      </trkpt>
      <trkpt lat="49.58666" lon="-1.26084">
        <ele>0.3</ele>
        <time>2020-06-15T11:42:33Z</time>
      </trkpt>
      <trkpt lat="49.58666" lon="-1.26084">
        <ele>0.3</ele>
        <time>2020-06-15T11:42:34Z</time>
      </trkpt>
      <trkpt lat="49.58666" lon="-1.26084">
        <ele>0.3</ele>
        <time>2020-06-15T11:42:35Z</time>
      </trkpt>
      <trkpt lat="49.58666" lon="-1.26085">
        <ele>0.3</ele>
        <time>2020-06-15T11:42:36Z</time>
      </trkpt>
      <trkpt lat="49.58666" lon="-1.26085">
        <ele>0.3</ele>
        <time>2020-06-15T11:42:37Z</time>
      </trkpt>
      <trkpt lat="49.58666" lon="-1.26085">
        <ele>0.3</ele>
        <time>2020-06-15T11:42:38Z</time>
      </trkpt>
      <trkpt lat="49.58666" lon="-1.26086">
        <ele>0.3</ele>
        <time>2020-06-15T11:42:39Z</time>
      </trkpt>
      <trkpt lat="49.58666" lon="-1.26086">
        <ele>0.4</ele>
        <time>2020-06-15T11:42:40Z</time>
      </trkpt>
      <trkpt lat="49.58667" lon="-1.26086">
        <ele>0.4</ele>
        <time>2020-06-15T11:42:41Z</time>
      </trkpt>
      <trkpt lat="49.58667" lon="-1.26086">
        <ele>0.4</ele>
        <time>2020-06-15T11:42:42Z</time>
      </trkpt>
      <trkpt lat="49.58667" lon="-1.26086">
        <ele>0.4</ele>
        <time>2020-06-15T11:42:43Z</time>
      </trkpt>
      <trkpt lat="49.58667" lon="-1.26086">
        <ele>0.4</ele>
        <time>2020-06-15T11:42:44Z</time>
      </trkpt>
      <trkpt lat="49.58674" lon="-1.26065">
        <ele>0.4</ele>
        <time>2020-06-15T11:47:24Z</time>
      </trkpt>
      <trkpt lat="49.58674" lon="-1.26063">
        <ele>0.4</ele>
        <time>2020-06-15T11:47:25Z</time>
      </trkpt>
      <trkpt lat="49.58673" lon="-1.26062">
        <ele>0.4</ele>
        <time>2020-06-15T11:47:26Z</time>
      </trkpt>
      <trkpt lat="49.58673" lon="-1.26062">
        <ele>0.4</ele>
        <time>2020-06-15T11:47:27Z</time>
      </trkpt>
      <trkpt lat="49.58674" lon="-1.26062">
        <ele>0.4</ele>
        <time>2020-06-15T11:47:28Z</time>
      </trkpt>
      <trkpt lat="49.58674" lon="-1.26062">
        <ele>0.4</ele>
        <time>2020-06-15T11:47:29Z</time>
      </trkpt>
      <trkpt lat="49.58674" lon="-1.26062">
        <ele>0.4</ele>
        <time>2020-06-15T11:47:30Z</time>
      </trkpt>
      <trkpt lat="49.58674" lon="-1.26062">
        <ele>0.4</ele>
        <time>2020-06-15T11:47:31Z</time>
      </trkpt>
      <trkpt lat="49.58673" lon="-1.26062">
        <ele>0.4</ele>
        <time>2020-06-15T11:47:32Z</time>
      </trkpt>
      <trkpt lat="49.58673" lon="-1.26061">
        <ele>0.4</ele>
        <time>2020-06-15T11:47:33Z</time>
      </trkpt>
      <trkpt lat="49.58673" lon="-1.26061">
        <ele>0.4</ele>
        <time>2020-06-15T11:47:34Z</time>
      </trkpt>
      <trkpt lat="49.58673" lon="-1.2606">
        <ele>0.4</ele>
        <time>2020-06-15T11:47:35Z</time>
      </trkpt>
      <trkpt lat="49.58673" lon="-1.26055">
        <ele>0.4</ele>
        <time>2020-06-15T11:47:41Z</time>
      </trkpt>
      <trkpt lat="49.58674" lon="-1.26054">
        <ele>0.4</ele>
        <time>2020-06-15T11:47:42Z</time>
      </trkpt>
      <trkpt lat="49.58674" lon="-1.26053">
        <ele>0.4</ele>
        <time>2020-06-15T11:47:43Z</time>
      </trkpt>
      <trkpt lat="49.58674" lon="-1.26052">
        <ele>0.4</ele>
        <time>2020-06-15T11:47:44Z</time>
      </trkpt>
      <trkpt lat="49.58674" lon="-1.26051">
        <ele>0.4</ele>
        <time>2020-06-15T11:47:45Z</time>
      </trkpt>
      <trkpt lat="49.58674" lon="-1.2605">
        <ele>0.4</ele>
        <time>2020-06-15T11:47:46Z</time>
      </trkpt>
      <trkpt lat="49.58674" lon="-1.2605">
        <ele>0.4</ele>
        <time>2020-06-15T11:47:47Z</time>
      </trkpt>
      <trkpt lat="49.58674" lon="-1.2605">
        <ele>0.4</ele>
        <time>2020-06-15T11:47:48Z</time>
      </trkpt>
      <trkpt lat="49.58676" lon="-1.26051">
        <ele>0.4</ele>
        <time>2020-06-15T11:47:49Z</time>
      </trkpt>
      <trkpt lat="49.58676" lon="-1.26051">
        <ele>0.4</ele>
        <time>2020-06-15T11:47:50Z</time>
      </trkpt>
      <trkpt lat="49.58676" lon="-1.26051">
        <ele>0.4</ele>
        <time>2020-06-15T11:47:51Z</time>
      </trkpt>
      <trkpt lat="49.58676" lon="-1.2605">
        <ele>0.4</ele>
        <time>2020-06-15T11:47:52Z</time>
      </trkpt>
      <trkpt lat="49.58676" lon="-1.26051">
        <ele>0.4</ele>
        <time>2020-06-15T11:47:53Z</time>
      </trkpt>
      <trkpt lat="49.58675" lon="-1.2605">
        <ele>0.4</ele>
        <time>2020-06-15T11:47:54Z</time>
      </trkpt>
      <trkpt lat="49.58675" lon="-1.2605">
        <ele>0.4</ele>
        <time>2020-06-15T11:47:55Z</time>
      </trkpt>
      <trkpt lat="49.58675" lon="-1.26051">
        <ele>0.4</ele>
        <time>2020-06-15T11:47:56Z</time>
      </trkpt>
      <trkpt lat="49.58675" lon="-1.2605">
        <ele>0.4</ele>
        <time>2020-06-15T11:47:57Z</time>
      </trkpt>
      <trkpt lat="49.58675" lon="-1.26051">
        <ele>0.4</ele>
        <time>2020-06-15T11:47:58Z</time>
      </trkpt>
      <trkpt lat="49.58675" lon="-1.26051">
        <ele>0.4</ele>
        <time>2020-06-15T11:47:59Z</time>
      </trkpt>
      <trkpt lat="49.58675" lon="-1.26051">
        <ele>0.4</ele>
        <time>2020-06-15T11:48:00Z</time>
      </trkpt>
      <trkpt lat="49.58675" lon="-1.26051">
        <ele>0.4</ele>
        <time>2020-06-15T11:48:01Z</time>
      </trkpt>
      <trkpt lat="49.58674" lon="-1.2605">
        <ele>0.4</ele>
        <time>2020-06-15T11:48:02Z</time>
      </trkpt>
      <trkpt lat="49.58673" lon="-1.2605">
        <ele>0.4</ele>
        <time>2020-06-15T11:48:03Z</time>
      </trkpt>
      <trkpt lat="49.58673" lon="-1.2605">
        <ele>0.4</ele>
        <time>2020-06-15T11:48:04Z</time>
      </trkpt>
      <trkpt lat="49.58655" lon="-1.26055">
        <ele>0.4</ele>
        <time>2020-06-15T11:51:21Z</time>
      </trkpt>
      <trkpt lat="49.58655" lon="-1.26055">
        <ele>0.4</ele>
        <time>2020-06-15T11:51:22Z</time>
      </trkpt>
      <trkpt lat="49.58655" lon="-1.26055">
        <ele>0.4</ele>
        <time>2020-06-15T11:51:23Z</time>
      </trkpt>
      <trkpt lat="49.58655" lon="-1.26055">
        <ele>0.4</ele>
        <time>2020-06-15T11:51:24Z</time>
      </trkpt>
      <trkpt lat="49.58653" lon="-1.26054">
        <ele>0.4</ele>
        <time>2020-06-15T11:51:25Z</time>
      </trkpt>
      <trkpt lat="49.58652" lon="-1.26055">
        <ele>0.4</ele>
        <time>2020-06-15T11:51:26Z</time>
      </trkpt>
      <trkpt lat="49.58652" lon="-1.26055">
        <ele>0.4</ele>
        <time>2020-06-15T11:51:27Z</time>
      </trkpt>
      <trkpt lat="49.5865" lon="-1.26058">
        <ele>0.4</ele>
        <time>2020-06-15T11:51:28Z</time>
      </trkpt>
      <trkpt lat="49.58648" lon="-1.26062">
        <ele>0.4</ele>
        <time>2020-06-15T11:51:29Z</time>
      </trkpt>
      <trkpt lat="49.58647" lon="-1.26062">
        <ele>0.4</ele>
        <time>2020-06-15T11:51:30Z</time>
      </trkpt>
      <trkpt lat="49.58647" lon="-1.26062">
        <ele>0.4</ele>
        <time>2020-06-15T11:51:31Z</time>
      </trkpt>
      <trkpt lat="49.58646" lon="-1.26062">
        <ele>0.4</ele>
        <time>2020-06-15T11:51:32Z</time>
      </trkpt>
      <trkpt lat="49.58646" lon="-1.26062">
        <ele>0.5</ele>
        <time>2020-06-15T11:51:33Z</time>
      </trkpt>
      <trkpt lat="49.58646" lon="-1.26062">
        <ele>0.5</ele>
        <time>2020-06-15T11:51:34Z</time>
      </trkpt>
      <trkpt lat="49.58645" lon="-1.26062">
        <ele>0.5</ele>
        <time>2020-06-15T11:51:35Z</time>
      </trkpt>
      <trkpt lat="49.58645" lon="-1.26062">
        <ele>0.5</ele>
        <time>2020-06-15T11:51:36Z</time>
      </trkpt>
      <trkpt lat="49.58645" lon="-1.26062">
        <ele>0.5</ele>
        <time>2020-06-15T11:51:37Z</time>
      </trkpt>
      <trkpt lat="49.58645" lon="-1.26062">
        <ele>0.5</ele>
        <time>2020-06-15T11:51:38Z</time>
      </trkpt>
      <trkpt lat="49.58645" lon="-1.26062">
        <ele>0.5</ele>
        <time>2020-06-15T11:51:39Z</time>
      </trkpt>
      <trkpt lat="49.58645" lon="-1.26062">
        <ele>0.5</ele>
        <time>2020-06-15T11:51:40Z</time>
      </trkpt>
      <trkpt lat="49.58645" lon="-1.26062">
        <ele>0.5</ele>
        <time>2020-06-15T11:51:41Z</time>
      </trkpt>
      <trkpt lat="49.58645" lon="-1.26062">
        <ele>0.5</ele>
        <time>2020-06-15T11:51:42Z</time>
      </trkpt>
      <trkpt lat="49.58645" lon="-1.26062">
        <ele>0.5</ele>
        <time>2020-06-15T11:51:43Z</time>
      </trkpt>
      <trkpt lat="49.58645" lon="-1.26062">
        <ele>0.5</ele>
        <time>2020-06-15T11:51:44Z</time>
      </trkpt>
      <trkpt lat="49.58645" lon="-1.26062">
        <ele>0.5</ele>
        <time>2020-06-15T11:51:45Z</time>
      </trkpt>
      <trkpt lat="49.58663" lon="-1.26068">
        <ele>0.5</ele>
        <time>2020-06-15T12:03:47Z</time>
      </trkpt>
      <trkpt lat="49.58663" lon="-1.26068">
        <ele>0.5</ele>
        <time>2020-06-15T12:03:48Z</time>
      </trkpt>
      <trkpt lat="49.58663" lon="-1.2607">
        <ele>0.5</ele>
        <time>2020-06-15T12:03:49Z</time>
      </trkpt>
      <trkpt lat="49.58664" lon="-1.2607">
        <ele>0.5</ele>
        <time>2020-06-15T12:03:50Z</time>
      </trkpt>
      <trkpt lat="49.58665" lon="-1.26071">
        <ele>0.5</ele>
        <time>2020-06-15T12:03:51Z</time>
      </trkpt>
      <trkpt lat="49.58665" lon="-1.26072">
        <ele>0.5</ele>
        <time>2020-06-15T12:03:52Z</time>
      </trkpt>
      <trkpt lat="49.58665" lon="-1.26073">
        <ele>0.5</ele>
        <time>2020-06-15T12:03:53Z</time>
      </trkpt>
      <trkpt lat="49.58665" lon="-1.26074">
        <ele>0.5</ele>
        <time>2020-06-15T12:03:54Z</time>
      </trkpt>
      <trkpt lat="49.58664" lon="-1.26076">
        <ele>0.5</ele>
        <time>2020-06-15T12:03:55Z</time>
      </trkpt>
      <trkpt lat="49.58664" lon="-1.26078">
        <ele>0.5</ele>
        <time>2020-06-15T12:03:56Z</time>
      </trkpt>
      <trkpt lat="49.58663" lon="-1.26079">
        <ele>0.5</ele>
        <time>2020-06-15T12:03:57Z</time>
      </trkpt>
      <trkpt lat="49.58663" lon="-1.2608">
        <ele>0.5</ele>
        <time>2020-06-15T12:03:58Z</time>
      </trkpt>
      <trkpt lat="49.58662" lon="-1.26083">
        <ele>0.5</ele>
        <time>2020-06-15T12:03:59Z</time>
      </trkpt>
      <trkpt lat="49.58661" lon="-1.26084">
        <ele>0.5</ele>
        <time>2020-06-15T12:04:00Z</time>
      </trkpt>
      <trkpt lat="49.58661" lon="-1.26085">
        <ele>0.5</ele>
        <time>2020-06-15T12:04:01Z</time>
      </trkpt>
      <trkpt lat="49.5866" lon="-1.26087">
        <ele>0.5</ele>
        <time>2020-06-15T12:04:02Z</time>
      </trkpt>
      <trkpt lat="49.5866" lon="-1.26088">
        <ele>0.5</ele>
        <time>2020-06-15T12:04:03Z</time>
      </trkpt>
      <trkpt lat="49.58659" lon="-1.2609">
        <ele>0.5</ele>
        <time>2020-06-15T12:04:04Z</time>
      </trkpt>
      <trkpt lat="49.58659" lon="-1.2609">
        <ele>0.5</ele>
        <time>2020-06-15T12:04:05Z</time>
      </trkpt>
      <trkpt lat="49.58659" lon="-1.26091">
        <ele>0.5</ele>
        <time>2020-06-15T12:04:06Z</time>
      </trkpt>
      <trkpt lat="49.58659" lon="-1.26092">
        <ele>0.5</ele>
        <time>2020-06-15T12:04:07Z</time>
      </trkpt>
      <trkpt lat="49.58659" lon="-1.26092">
        <ele>0.5</ele>
        <time>2020-06-15T12:04:08Z</time>
      </trkpt>
      <trkpt lat="49.58658" lon="-1.26093">
        <ele>0.5</ele>
        <time>2020-06-15T12:04:09Z</time>
      </trkpt>
      <trkpt lat="49.58658" lon="-1.26095">
        <ele>0.5</ele>
        <time>2020-06-15T12:04:10Z</time>
      </trkpt>
      <trkpt lat="49.58658" lon="-1.26095">
        <ele>0.5</ele>
        <time>2020-06-15T12:04:11Z</time>
      </trkpt>
      <trkpt lat="49.58658" lon="-1.26095">
        <ele>0.5</ele>
        <time>2020-06-15T12:04:12Z</time>
      </trkpt>
      <trkpt lat="49.58659" lon="-1.26094">
        <ele>0.5</ele>
        <time>2020-06-15T12:04:13Z</time>
      </trkpt>
      <trkpt lat="49.58658" lon="-1.26094">
        <ele>0.5</ele>
        <time>2020-06-15T12:04:14Z</time>
      </trkpt>
      <trkpt lat="49.58658" lon="-1.26094">
        <ele>0.5</ele>
        <time>2020-06-15T12:04:15Z</time>
      </trkpt>
      <trkpt lat="49.58658" lon="-1.26094">
        <ele>0.5</ele>
        <time>2020-06-15T12:04:16Z</time>
      </trkpt>
      <trkpt lat="49.58658" lon="-1.26094">
        <ele>0.5</ele>
        <time>2020-06-15T12:04:17Z</time>
      </trkpt>
      <trkpt lat="49.58658" lon="-1.26094">
        <ele>0.5</ele>
        <time>2020-06-15T12:04:18Z</time>
      </trkpt>
      <trkpt lat="49.58658" lon="-1.26094">
        <ele>0.5</ele>
        <time>2020-06-15T12:04:19Z</time>
      </trkpt>
      <trkpt lat="49.58658" lon="-1.26094">
        <ele>0.5</ele>
        <time>2020-06-15T12:04:20Z</time>
      </trkpt>
      <trkpt lat="49.58658" lon="-1.26094">
        <ele>0.5</ele>
        <time>2020-06-15T12:04:21Z</time>
      </trkpt>
      <trkpt lat="49.58652" lon="-1.26085">
        <ele>0.5</ele>
        <time>2020-06-15T12:05:51Z</time>
      </trkpt>
      <trkpt lat="49.58652" lon="-1.26083">
        <ele>0.5</ele>
        <time>2020-06-15T12:05:52Z</time>
      </trkpt>
      <trkpt lat="49.58652" lon="-1.26081">
        <ele>0.5</ele>
        <time>2020-06-15T12:05:53Z</time>
      </trkpt>
      <trkpt lat="49.58653" lon="-1.26078">
        <ele>0.5</ele>
        <time>2020-06-15T12:05:54Z</time>
      </trkpt>
      <trkpt lat="49.58653" lon="-1.26076">
        <ele>0.5</ele>
        <time>2020-06-15T12:05:55Z</time>
      </trkpt>
      <trkpt lat="49.58653" lon="-1.26074">
        <ele>0.6</ele>
        <time>2020-06-15T12:05:56Z</time>
      </trkpt>
      <trkpt lat="49.58653" lon="-1.26071">
        <ele>0.6</ele>
        <time>2020-06-15T12:05:57Z</time>
      </trkpt>
      <trkpt lat="49.58653" lon="-1.26069">
        <ele>0.6</ele>
        <time>2020-06-15T12:05:58Z</time>
      </trkpt>
      <trkpt lat="49.58653" lon="-1.26067">
        <ele>0.6</ele>
        <time>2020-06-15T12:05:59Z</time>
      </trkpt>
      <trkpt lat="49.58654" lon="-1.26064">
        <ele>0.6</ele>
        <time>2020-06-15T12:06:00Z</time>
      </trkpt>
      <trkpt lat="49.58654" lon="-1.26062">
        <ele>0.6</ele>
        <time>2020-06-15T12:06:01Z</time>
      </trkpt>
      <trkpt lat="49.58654" lon="-1.26062">
        <ele>0.6</ele>
        <time>2020-06-15T12:06:02Z</time>
      </trkpt>
      <trkpt lat="49.58655" lon="-1.26062">
        <ele>0.6</ele>
        <time>2020-06-15T12:06:03Z</time>
      </trkpt>
      <trkpt lat="49.58655" lon="-1.26061">
        <ele>0.6</ele>
        <time>2020-06-15T12:06:04Z</time>
      </trkpt>
      <trkpt lat="49.58655" lon="-1.26059">
        <ele>0.6</ele>
        <time>2020-06-15T12:06:05Z</time>
      </trkpt>
      <trkpt lat="49.58655" lon="-1.26058">
        <ele>0.6</ele>
        <time>2020-06-15T12:06:06Z</time>
      </trkpt>
      <trkpt lat="49.58655" lon="-1.26058">
        <ele>0.6</ele>
        <time>2020-06-15T12:06:07Z</time>
      </trkpt>
      <trkpt lat="49.58655" lon="-1.26058">
        <ele>0.6</ele>
        <time>2020-06-15T12:06:08Z</time>
      </trkpt>
      <trkpt lat="49.58655" lon="-1.26059">
        <ele>0.6</ele>
        <time>2020-06-15T12:06:09Z</time>
      </trkpt>
      <trkpt lat="49.58655" lon="-1.2606">
        <ele>0.6</ele>
        <time>2020-06-15T12:06:10Z</time>
      </trkpt>
      <trkpt lat="49.58655" lon="-1.2606">
        <ele>0.6</ele>
        <time>2020-06-15T12:06:11Z</time>
      </trkpt>
      <trkpt lat="49.58655" lon="-1.2606">
        <ele>0.6</ele>
        <time>2020-06-15T12:06:12Z</time>
      </trkpt>
      <trkpt lat="49.58655" lon="-1.26059">
        <ele>0.6</ele>
        <time>2020-06-15T12:06:13Z</time>
      </trkpt>
      <trkpt lat="49.58655" lon="-1.26059">
        <ele>0.6</ele>
        <time>2020-06-15T12:06:14Z</time>
      </trkpt>
      <trkpt lat="49.58655" lon="-1.26059">
        <ele>0.6</ele>
        <time>2020-06-15T12:06:15Z</time>
      </trkpt>
      <trkpt lat="49.58654" lon="-1.26069">
        <ele>0.6</ele>
        <time>2020-06-15T12:06:40Z</time>
      </trkpt>
      <trkpt lat="49.58655" lon="-1.2607">
        <ele>0.6</ele>
        <time>2020-06-15T12:06:41Z</time>
      </trkpt>
      <trkpt lat="49.58655" lon="-1.26071">
        <ele>0.6</ele>
        <time>2020-06-15T12:06:42Z</time>
      </trkpt>
      <trkpt lat="49.58655" lon="-1.26072">
        <ele>0.6</ele>
        <time>2020-06-15T12:06:43Z</time>
      </trkpt>
      <trkpt lat="49.58654" lon="-1.26073">
        <ele>0.6</ele>
        <time>2020-06-15T12:06:44Z</time>
      </trkpt>
      <trkpt lat="49.58654" lon="-1.26074">
        <ele>0.6</ele>
        <time>2020-06-15T12:06:45Z</time>
      </trkpt>
      <trkpt lat="49.58654" lon="-1.26075">
        <ele>0.6</ele>
        <time>2020-06-15T12:06:46Z</time>
      </trkpt>
      <trkpt lat="49.58653" lon="-1.26075">
        <ele>0.6</ele>
        <time>2020-06-15T12:06:47Z</time>
      </trkpt>
      <trkpt lat="49.58653" lon="-1.26076">
        <ele>0.6</ele>
        <time>2020-06-15T12:06:48Z</time>
      </trkpt>
      <trkpt lat="49.58653" lon="-1.26077">
        <ele>0.6</ele>
        <time>2020-06-15T12:06:49Z</time>
      </trkpt>
      <trkpt lat="49.58653" lon="-1.26077">
        <ele>0.6</ele>
        <time>2020-06-15T12:06:50Z</time>
      </trkpt>
      <trkpt lat="49.58653" lon="-1.26077">
        <ele>0.6</ele>
        <time>2020-06-15T12:06:51Z</time>
      </trkpt>
      <trkpt lat="49.58653" lon="-1.26077">
        <ele>0.6</ele>
        <time>2020-06-15T12:06:52Z</time>
      </trkpt>
      <trkpt lat="49.58653" lon="-1.26078">
        <ele>0.6</ele>
        <time>2020-06-15T12:06:53Z</time>
      </trkpt>
      <trkpt lat="49.58654" lon="-1.26079">
        <ele>0.6</ele>
        <time>2020-06-15T12:06:54Z</time>
      </trkpt>
      <trkpt lat="49.58654" lon="-1.26081">
        <ele>0.6</ele>
        <time>2020-06-15T12:06:55Z</time>
      </trkpt>
      <trkpt lat="49.58655" lon="-1.26083">
        <ele>0.6</ele>
        <time>2020-06-15T12:06:56Z</time>
      </trkpt>
      <trkpt lat="49.58655" lon="-1.26084">
        <ele>0.6</ele>
        <time>2020-06-15T12:06:57Z</time>
      </trkpt>
      <trkpt lat="49.58656" lon="-1.26085">
        <ele>0.6</ele>
        <time>2020-06-15T12:06:58Z</time>
      </trkpt>
      <trkpt lat="49.58656" lon="-1.26086">
        <ele>0.6</ele>
        <time>2020-06-15T12:06:59Z</time>
      </trkpt>
      <trkpt lat="49.58657" lon="-1.26086">
        <ele>0.6</ele>
        <time>2020-06-15T12:07:00Z</time>
      </trkpt>
      <trkpt lat="49.58657" lon="-1.26087">
        <ele>0.6</ele>
        <time>2020-06-15T12:07:01Z</time>
      </trkpt>
      <trkpt lat="49.58656" lon="-1.26087">
        <ele>0.6</ele>
        <time>2020-06-15T12:07:02Z</time>
      </trkpt>
      <trkpt lat="49.58656" lon="-1.26088">
        <ele>0.6</ele>
        <time>2020-06-15T12:07:03Z</time>
      </trkpt>
      <trkpt lat="49.58656" lon="-1.26088">
        <ele>0.6</ele>
        <time>2020-06-15T12:07:04Z</time>
      </trkpt>
      <trkpt lat="49.58656" lon="-1.26089">
        <ele>0.6</ele>
        <time>2020-06-15T12:07:05Z</time>
      </trkpt>
      <trkpt lat="49.58657" lon="-1.2609">
        <ele>0.6</ele>
        <time>2020-06-15T12:07:06Z</time>
      </trkpt>
      <trkpt lat="49.58657" lon="-1.26091">
        <ele>0.6</ele>
        <time>2020-06-15T12:07:07Z</time>
      </trkpt>
      <trkpt lat="49.58657" lon="-1.26091">
        <ele>0.6</ele>
        <time>2020-06-15T12:07:08Z</time>
      </trkpt>
      <trkpt lat="49.58657" lon="-1.26091">
        <ele>0.6</ele>
        <time>2020-06-15T12:07:09Z</time>
      </trkpt>
      <trkpt lat="49.58658" lon="-1.26092">
        <ele>0.6</ele>
        <time>2020-06-15T12:07:10Z</time>
      </trkpt>
      <trkpt lat="49.58658" lon="-1.26093">
        <ele>0.6</ele>
        <time>2020-06-15T12:07:11Z</time>
      </trkpt>
      <trkpt lat="49.58655" lon="-1.26096">
        <ele>0.6</ele>
        <time>2020-06-15T12:07:33Z</time>
      </trkpt>
      <trkpt lat="49.58654" lon="-1.26097">
        <ele>0.7</ele>
        <time>2020-06-15T12:07:34Z</time>
      </trkpt>
      <trkpt lat="49.58654" lon="-1.26098">
        <ele>0.7</ele>
        <time>2020-06-15T12:07:35Z</time>
      </trkpt>
      <trkpt lat="49.58654" lon="-1.261">
        <ele>0.7</ele>
        <time>2020-06-15T12:07:36Z</time>
      </trkpt>
      <trkpt lat="49.58655" lon="-1.26101">
        <ele>0.7</ele>
        <time>2020-06-15T12:07:37Z</time>
      </trkpt>
      <trkpt lat="49.58655" lon="-1.26103">
        <ele>0.7</ele>
        <time>2020-06-15T12:07:38Z</time>
      </trkpt>
      <trkpt lat="49.58655" lon="-1.26104">
        <ele>0.7</ele>
        <time>2020-06-15T12:07:39Z</time>
      </trkpt>
      <trkpt lat="49.58655" lon="-1.26106">
        <ele>0.7</ele>
        <time>2020-06-15T12:07:40Z</time>
      </trkpt>
      <trkpt lat="49.58655" lon="-1.26109">
        <ele>0.7</ele>
        <time>2020-06-15T12:07:41Z</time>
      </trkpt>
      <trkpt lat="49.58655" lon="-1.26111">
        <ele>0.7</ele>
        <time>2020-06-15T12:07:42Z</time>
      </trkpt>
      <trkpt lat="49.58656" lon="-1.26112">
        <ele>0.7</ele>
        <time>2020-06-15T12:07:43Z</time>
      </trkpt>
      <trkpt lat="49.58656" lon="-1.26114">
        <ele>0.7</ele>
        <time>2020-06-15T12:07:44Z</time>
      </trkpt>
      <trkpt lat="49.58656" lon="-1.26117">
        <ele>0.7</ele>
        <time>2020-06-15T12:07:45Z</time>
      </trkpt>
      <trkpt lat="49.58657" lon="-1.26119">
        <ele>0.7</ele>
        <time>2020-06-15T12:07:46Z</time>
      </trkpt>
      <trkpt lat="49.58658" lon="-1.26121">
        <ele>0.7</ele>
        <time>2020-06-15T12:07:47Z</time>
      </trkpt>
      <trkpt lat="49.58659" lon="-1.26123">
        <ele>0.7</ele>
        <time>2020-06-15T12:07:48Z</time>
      </trkpt>
      <trkpt lat="49.58659" lon="-1.26125">
        <ele>0.7</ele>
        <time>2020-06-15T12:07:49Z</time>
      </trkpt>
      <trkpt lat="49.5866" lon="-1.26127">
        <ele>0.7</ele>
        <time>2020-06-15T12:07:50Z</time>
      </trkpt>
      <trkpt lat="49.58661" lon="-1.2613">
        <ele>0.7</ele>
        <time>2020-06-15T12:07:51Z</time>
      </trkpt>
      <trkpt lat="49.58662" lon="-1.26132">
        <ele>0.7</ele>
        <time>2020-06-15T12:07:52Z</time>
      </trkpt>
      <trkpt lat="49.58663" lon="-1.26134">
        <ele>0.7</ele>
        <time>2020-06-15T12:07:53Z</time>
      </trkpt>
      <trkpt lat="49.58664" lon="-1.26136">
        <ele>0.7</ele>
        <time>2020-06-15T12:07:54Z</time>
      </trkpt>
      <trkpt lat="49.58664" lon="-1.26137">
        <ele>0.7</ele>
        <time>2020-06-15T12:07:55Z</time>
      </trkpt>
      <trkpt lat="49.58665" lon="-1.2614">
        <ele>0.7</ele>
        <time>2020-06-15T12:07:56Z</time>
      </trkpt>
      <trkpt lat="49.58666" lon="-1.26141">
        <ele>0.7</ele>
        <time>2020-06-15T12:07:57Z</time>
      </trkpt>
      <trkpt lat="49.58668" lon="-1.26142">
        <ele>0.7</ele>
        <time>2020-06-15T12:07:58Z</time>
      </trkpt>
      <trkpt lat="49.58669" lon="-1.26143">
        <ele>0.7</ele>
        <time>2020-06-15T12:07:59Z</time>
      </trkpt>
      <trkpt lat="49.5867" lon="-1.26144">
        <ele>0.7</ele>
        <time>2020-06-15T12:08:00Z</time>
      </trkpt>
      <trkpt lat="49.58671" lon="-1.26145">
        <ele>0.7</ele>
        <time>2020-06-15T12:08:01Z</time>
      </trkpt>
      <trkpt lat="49.58673" lon="-1.26146">
        <ele>0.7</ele>
        <time>2020-06-15T12:08:02Z</time>
      </trkpt>
      <trkpt lat="49.58674" lon="-1.26147">
        <ele>0.7</ele>
        <time>2020-06-15T12:08:03Z</time>
      </trkpt>
      <trkpt lat="49.58675" lon="-1.26148">
        <ele>0.7</ele>
        <time>2020-06-15T12:08:04Z</time>
      </trkpt>
      <trkpt lat="49.58677" lon="-1.26151">
        <ele>0.7</ele>
        <time>2020-06-15T12:08:05Z</time>
      </trkpt>
      <trkpt lat="49.58677" lon="-1.26152">
        <ele>0.7</ele>
        <time>2020-06-15T12:08:06Z</time>
      </trkpt>
      <trkpt lat="49.58678" lon="-1.26153">
        <ele>0.7</ele>
        <time>2020-06-15T12:08:07Z</time>
      </trkpt>
      <trkpt lat="49.58679" lon="-1.26154">
        <ele>0.7</ele>
        <time>2020-06-15T12:08:08Z</time>
      </trkpt>
      <trkpt lat="49.5868" lon="-1.26156">
        <ele>0.7</ele>
        <time>2020-06-15T12:08:09Z</time>
      </trkpt>
      <trkpt lat="49.58681" lon="-1.26158">
        <ele>0.7</ele>
        <time>2020-06-15T12:08:10Z</time>
      </trkpt>
      <trkpt lat="49.58682" lon="-1.2616">
        <ele>0.7</ele>
        <time>2020-06-15T12:08:11Z</time>
      </trkpt>
      <trkpt lat="49.58683" lon="-1.26161">
        <ele>0.7</ele>
        <time>2020-06-15T12:08:12Z</time>
      </trkpt>
      <trkpt lat="49.58683" lon="-1.26162">
        <ele>0.7</ele>
        <time>2020-06-15T12:08:13Z</time>
      </trkpt>
      <trkpt lat="49.58683" lon="-1.26163">
        <ele>0.7</ele>
        <time>2020-06-15T12:08:14Z</time>
      </trkpt>
      <trkpt lat="49.58684" lon="-1.26164">
        <ele>0.7</ele>
        <time>2020-06-15T12:08:15Z</time>
      </trkpt>
      <trkpt lat="49.58684" lon="-1.26165">
        <ele>0.7</ele>
        <time>2020-06-15T12:08:16Z</time>
      </trkpt>
      <trkpt lat="49.58685" lon="-1.26167">
        <ele>0.7</ele>
        <time>2020-06-15T12:08:17Z</time>
      </trkpt>
      <trkpt lat="49.58685" lon="-1.26167">
        <ele>0.7</ele>
        <time>2020-06-15T12:08:18Z</time>
      </trkpt>
      <trkpt lat="49.58686" lon="-1.26167">
        <ele>0.7</ele>
        <time>2020-06-15T12:08:19Z</time>
      </trkpt>
      <trkpt lat="49.58686" lon="-1.26167">
        <ele>0.7</ele>
        <time>2020-06-15T12:08:20Z</time>
      </trkpt>
      <trkpt lat="49.58686" lon="-1.26167">
        <ele>0.7</ele>
        <time>2020-06-15T12:08:21Z</time>
      </trkpt>
      <trkpt lat="49.58687" lon="-1.26168">
        <ele>0.7</ele>
        <time>2020-06-15T12:08:22Z</time>
      </trkpt>
      <trkpt lat="49.58687" lon="-1.26168">
        <ele>0.7</ele>
        <time>2020-06-15T12:08:23Z</time>
      </trkpt>
      <trkpt lat="49.58687" lon="-1.26168">
        <ele>0.7</ele>
        <time>2020-06-15T12:08:24Z</time>
      </trkpt>
      <trkpt lat="49.58687" lon="-1.26168">
        <ele>0.8</ele>
        <time>2020-06-15T12:08:25Z</time>
      </trkpt>
      <trkpt lat="49.58687" lon="-1.26168">
        <ele>0.8</ele>
        <time>2020-06-15T12:08:26Z</time>
      </trkpt>
      <trkpt lat="49.58687" lon="-1.26168">
        <ele>0.8</ele>
        <time>2020-06-15T12:08:27Z</time>
      </trkpt>
      <trkpt lat="49.58687" lon="-1.26168">
        <ele>0.8</ele>
        <time>2020-06-15T12:08:28Z</time>
      </trkpt>
      <trkpt lat="49.58687" lon="-1.26168">
        <ele>0.8</ele>
        <time>2020-06-15T12:08:29Z</time>
      </trkpt>
      <trkpt lat="49.58687" lon="-1.26168">
        <ele>0.8</ele>
        <time>2020-06-15T12:08:30Z</time>
      </trkpt>
      <trkpt lat="49.58687" lon="-1.26168">
        <ele>0.8</ele>
        <time>2020-06-15T12:08:31Z</time>
      </trkpt>
      <trkpt lat="49.58687" lon="-1.26168">
        <ele>0.8</ele>
        <time>2020-06-15T12:08:32Z</time>
      </trkpt>
      <trkpt lat="49.58687" lon="-1.26169">
        <ele>0.8</ele>
        <time>2020-06-15T12:08:33Z</time>
      </trkpt>
      <trkpt lat="49.58691" lon="-1.26175">
        <ele>0.8</ele>
        <time>2020-06-15T12:08:50Z</time>
      </trkpt>
      <trkpt lat="49.58692" lon="-1.26178">
        <ele>0.8</ele>
        <time>2020-06-15T12:08:51Z</time>
      </trkpt>
      <trkpt lat="49.58694" lon="-1.26181">
        <ele>0.8</ele>
        <time>2020-06-15T12:08:52Z</time>
      </trkpt>
      <trkpt lat="49.58694" lon="-1.26182">
        <ele>0.8</ele>
        <time>2020-06-15T12:08:53Z</time>
      </trkpt>
      <trkpt lat="49.58695" lon="-1.26184">
        <ele>0.8</ele>
        <time>2020-06-15T12:08:54Z</time>
      </trkpt>
      <trkpt lat="49.58696" lon="-1.26186">
        <ele>0.8</ele>
        <time>2020-06-15T12:08:55Z</time>
      </trkpt>
      <trkpt lat="49.58697" lon="-1.26189">
        <ele>0.8</ele>
        <time>2020-06-15T12:08:56Z</time>
      </trkpt>
      <trkpt lat="49.58698" lon="-1.26191">
        <ele>0.8</ele>
        <time>2020-06-15T12:08:57Z</time>
      </trkpt>
      <trkpt lat="49.58699" lon="-1.26193">
        <ele>0.8</ele>
        <time>2020-06-15T12:08:58Z</time>
      </trkpt>
      <trkpt lat="49.587" lon="-1.26195">
        <ele>0.8</ele>
        <time>2020-06-15T12:08:59Z</time>
      </trkpt>
      <trkpt lat="49.58701" lon="-1.26197">
        <ele>0.8</ele>
        <time>2020-06-15T12:09:00Z</time>
      </trkpt>
      <trkpt lat="49.58701" lon="-1.26199">
        <ele>0.8</ele>
        <time>2020-06-15T12:09:01Z</time>
      </trkpt>
      <trkpt lat="49.58702" lon="-1.26201">
        <ele>0.8</ele>
        <time>2020-06-15T12:09:02Z</time>
      </trkpt>
      <trkpt lat="49.58703" lon="-1.26202">
        <ele>0.8</ele>
        <time>2020-06-15T12:09:03Z</time>
      </trkpt>
      <trkpt lat="49.58706" lon="-1.26203">
        <ele>0.8</ele>
        <time>2020-06-15T12:09:04Z</time>
      </trkpt>
      <trkpt lat="49.58707" lon="-1.26202">
        <ele>0.7</ele>
        <time>2020-06-15T12:09:05Z</time>
      </trkpt>
      <trkpt lat="49.58711" lon="-1.26204">
        <ele>0.7</ele>
        <time>2020-06-15T12:09:06Z</time>
      </trkpt>
      <trkpt lat="49.58712" lon="-1.26204">
        <ele>0.7</ele>
        <time>2020-06-15T12:09:07Z</time>
      </trkpt>
      <trkpt lat="49.58715" lon="-1.26208">
        <ele>0.6</ele>
        <time>2020-06-15T12:09:08Z</time>
      </trkpt>
      <trkpt lat="49.58716" lon="-1.2621">
        <ele>0.6</ele>
        <time>2020-06-15T12:09:09Z</time>
      </trkpt>
      <trkpt lat="49.58718" lon="-1.26214">
        <ele>0.4</ele>
        <time>2020-06-15T12:09:10Z</time>
      </trkpt>
      <trkpt lat="49.58719" lon="-1.26216">
        <ele>0.4</ele>
        <time>2020-06-15T12:09:11Z</time>
      </trkpt>
      <trkpt lat="49.58721" lon="-1.26218">
        <ele>0.2</ele>
        <time>2020-06-15T12:09:12Z</time>
      </trkpt>
      <trkpt lat="49.58724" lon="-1.26221">
        <ele>0.1</ele>
        <time>2020-06-15T12:09:13Z</time>
      </trkpt>
      <trkpt lat="49.58727" lon="-1.26225">
        <ele>4.8</ele>
        <time>2020-06-15T12:09:14Z</time>
      </trkpt>
      <trkpt lat="49.58728" lon="-1.26227">
        <ele>0.1</ele>
        <time>2020-06-15T12:09:15Z</time>
      </trkpt>
      <trkpt lat="49.58731" lon="-1.26231">
        <ele>0.1</ele>
        <time>2020-06-15T12:09:16Z</time>
      </trkpt>
      <trkpt lat="49.58733" lon="-1.26235">
        <ele>0.1</ele>
        <time>2020-06-15T12:09:17Z</time>
      </trkpt>
      <trkpt lat="49.58736" lon="-1.26239">
        <ele>0.1</ele>
        <time>2020-06-15T12:09:18Z</time>
      </trkpt>
      <trkpt lat="49.58739" lon="-1.26242">
        <ele>0.1</ele>
        <time>2020-06-15T12:09:19Z</time>
      </trkpt>
      <trkpt lat="49.58741" lon="-1.26247">
        <ele>0.1</ele>
        <time>2020-06-15T12:09:20Z</time>
      </trkpt>
      <trkpt lat="49.58743" lon="-1.2625">
        <ele>0.1</ele>
        <time>2020-06-15T12:09:21Z</time>
      </trkpt>
      <trkpt lat="49.58744" lon="-1.26255">
        <ele>0.1</ele>
        <time>2020-06-15T12:09:22Z</time>
      </trkpt>
      <trkpt lat="49.58746" lon="-1.26258">
        <ele>1</ele>
        <time>2020-06-15T12:09:23Z</time>
      </trkpt>
      <trkpt lat="49.58748" lon="-1.2626">
        <ele>1</ele>
        <time>2020-06-15T12:09:24Z</time>
      </trkpt>
      <trkpt lat="49.58751" lon="-1.26264">
        <ele>-0.1</ele>
        <time>2020-06-15T12:09:25Z</time>
      </trkpt>
      <trkpt lat="49.58752" lon="-1.26265">
        <ele>-0.1</ele>
        <time>2020-06-15T12:09:26Z</time>
      </trkpt>
      <trkpt lat="49.58755" lon="-1.26268">
        <ele>-0.2</ele>
        <time>2020-06-15T12:09:27Z</time>
      </trkpt>
      <trkpt lat="49.58757" lon="-1.26271">
        <ele>-0.2</ele>
        <time>2020-06-15T12:09:28Z</time>
      </trkpt>
      <trkpt lat="49.58761" lon="-1.26274">
        <ele>-0.3</ele>
        <time>2020-06-15T12:09:29Z</time>
      </trkpt>
      <trkpt lat="49.58762" lon="-1.26276">
        <ele>-0.3</ele>
        <time>2020-06-15T12:09:30Z</time>
      </trkpt>
      <trkpt lat="49.58765" lon="-1.26278">
        <ele>-0.3</ele>
        <time>2020-06-15T12:09:31Z</time>
      </trkpt>
      <trkpt lat="49.58769" lon="-1.26279">
        <ele>-0.2</ele>
        <time>2020-06-15T12:09:32Z</time>
      </trkpt>
      <trkpt lat="49.58771" lon="-1.26279">
        <ele>-0.2</ele>
        <time>2020-06-15T12:09:33Z</time>
      </trkpt>
      <trkpt lat="49.58774" lon="-1.26279">
        <ele>-0.2</ele>
        <time>2020-06-15T12:09:34Z</time>
      </trkpt>
      <trkpt lat="49.58777" lon="-1.26278">
        <ele>-0.2</ele>
        <time>2020-06-15T12:09:35Z</time>
      </trkpt>
      <trkpt lat="49.58782" lon="-1.26277">
        <ele>-0.3</ele>
        <time>2020-06-15T12:09:36Z</time>
      </trkpt>
      <trkpt lat="49.58785" lon="-1.26274">
        <ele>-0.3</ele>
        <time>2020-06-15T12:09:37Z</time>
      </trkpt>
      <trkpt lat="49.58789" lon="-1.26271">
        <ele>-0.3</ele>
        <time>2020-06-15T12:09:38Z</time>
      </trkpt>
      <trkpt lat="49.58793" lon="-1.26268">
        <ele>-0.2</ele>
        <time>2020-06-15T12:09:39Z</time>
      </trkpt>
      <trkpt lat="49.58796" lon="-1.26265">
        <ele>-0.1</ele>
        <time>2020-06-15T12:09:40Z</time>
      </trkpt>
      <trkpt lat="49.58799" lon="-1.26262">
        <ele>3.7</ele>
        <time>2020-06-15T12:09:41Z</time>
      </trkpt>
      <trkpt lat="49.58802" lon="-1.26257">
        <ele>0.1</ele>
        <time>2020-06-15T12:09:42Z</time>
      </trkpt>
      <trkpt lat="49.58805" lon="-1.26254">
        <ele>0.2</ele>
        <time>2020-06-15T12:09:43Z</time>
      </trkpt>
      <trkpt lat="49.58807" lon="-1.26251">
        <ele>0.2</ele>
        <time>2020-06-15T12:09:44Z</time>
      </trkpt>
      <trkpt lat="49.5881" lon="-1.26249">
        <ele>0.2</ele>
        <time>2020-06-15T12:09:45Z</time>
      </trkpt>
      <trkpt lat="49.58812" lon="-1.26245">
        <ele>0.2</ele>
        <time>2020-06-15T12:09:46Z</time>
      </trkpt>
      <trkpt lat="49.58815" lon="-1.26242">
        <ele>0.2</ele>
        <time>2020-06-15T12:09:47Z</time>
      </trkpt>
      <trkpt lat="49.58818" lon="-1.26238">
        <ele>0.1</ele>
        <time>2020-06-15T12:09:48Z</time>
      </trkpt>
      <trkpt lat="49.58821" lon="-1.26234">
        <ele>4.3</ele>
        <time>2020-06-15T12:09:49Z</time>
      </trkpt>
      <trkpt lat="49.58823" lon="-1.2623">
        <ele>-0.1</ele>
        <time>2020-06-15T12:09:50Z</time>
      </trkpt>
      <trkpt lat="49.58826" lon="-1.26226">
        <ele>-0.1</ele>
        <time>2020-06-15T12:09:51Z</time>
      </trkpt>
      <trkpt lat="49.58829" lon="-1.26222">
        <ele>-0.1</ele>
        <time>2020-06-15T12:09:52Z</time>
      </trkpt>
      <trkpt lat="49.5883" lon="-1.2622">
        <ele>-0.1</ele>
        <time>2020-06-15T12:09:53Z</time>
      </trkpt>
      <trkpt lat="49.58833" lon="-1.26217">
        <ele>-0.1</ele>
        <time>2020-06-15T12:09:54Z</time>
      </trkpt>
      <trkpt lat="49.58834" lon="-1.26217">
        <ele>-0.1</ele>
        <time>2020-06-15T12:09:55Z</time>
      </trkpt>
      <trkpt lat="49.58837" lon="-1.26219">
        <ele>-0.1</ele>
        <time>2020-06-15T12:09:56Z</time>
      </trkpt>
      <trkpt lat="49.58837" lon="-1.26221">
        <ele>-0.1</ele>
        <time>2020-06-15T12:09:57Z</time>
      </trkpt>
      <trkpt lat="49.58839" lon="-1.26227">
        <ele>-0.1</ele>
        <time>2020-06-15T12:09:58Z</time>
      </trkpt>
      <trkpt lat="49.5884" lon="-1.26229">
        <ele>-0.1</ele>
        <time>2020-06-15T12:09:59Z</time>
      </trkpt>
      <trkpt lat="49.58841" lon="-1.26234">
        <ele>-0.1</ele>
        <time>2020-06-15T12:10:00Z</time>
      </trkpt>
      <trkpt lat="49.58843" lon="-1.26238">
        <ele>-0.1</ele>
        <time>2020-06-15T12:10:01Z</time>
      </trkpt>
      <trkpt lat="49.58845" lon="-1.26241">
        <ele>-0.1</ele>
        <time>2020-06-15T12:10:02Z</time>
      </trkpt>
      <trkpt lat="49.58847" lon="-1.26245">
        <ele>-0.1</ele>
        <time>2020-06-15T12:10:03Z</time>
      </trkpt>
      <trkpt lat="49.58849" lon="-1.26248">
        <ele>-0.1</ele>
        <time>2020-06-15T12:10:04Z</time>
      </trkpt>
      <trkpt lat="49.5885" lon="-1.26249">
        <ele>-0.1</ele>
        <time>2020-06-15T12:10:05Z</time>
      </trkpt>
      <trkpt lat="49.58853" lon="-1.26252">
        <ele>-0.1</ele>
        <time>2020-06-15T12:10:06Z</time>
      </trkpt>
      <trkpt lat="49.58854" lon="-1.26254">
        <ele>-0.1</ele>
        <time>2020-06-15T12:10:07Z</time>
      </trkpt>
      <trkpt lat="49.58857" lon="-1.26257">
        <ele>-0.2</ele>
        <time>2020-06-15T12:10:08Z</time>
      </trkpt>
      <trkpt lat="49.58858" lon="-1.26258">
        <ele>-0.2</ele>
        <time>2020-06-15T12:10:09Z</time>
      </trkpt>
      <trkpt lat="49.5886" lon="-1.26261">
        <ele>-0.2</ele>
        <time>2020-06-15T12:10:10Z</time>
      </trkpt>
      <trkpt lat="49.58862" lon="-1.26263">
        <ele>-0.2</ele>
        <time>2020-06-15T12:10:11Z</time>
      </trkpt>
      <trkpt lat="49.58865" lon="-1.26266">
        <ele>-0.3</ele>
        <time>2020-06-15T12:10:12Z</time>
      </trkpt>
      <trkpt lat="49.58867" lon="-1.26269">
        <ele>-0.3</ele>
        <time>2020-06-15T12:10:13Z</time>
      </trkpt>
      <trkpt lat="49.58869" lon="-1.26272">
        <ele>-0.4</ele>
        <time>2020-06-15T12:10:14Z</time>
      </trkpt>
      <trkpt lat="49.58871" lon="-1.26276">
        <ele>-0.4</ele>
        <time>2020-06-15T12:10:15Z</time>
      </trkpt>
      <trkpt lat="49.58873" lon="-1.26279">
        <ele>-0.4</ele>
        <time>2020-06-15T12:10:16Z</time>
      </trkpt>
      <trkpt lat="49.58875" lon="-1.26282">
        <ele>-0.4</ele>
        <time>2020-06-15T12:10:17Z</time>
      </trkpt>
      <trkpt lat="49.58877" lon="-1.26286">
        <ele>-0.4</ele>
        <time>2020-06-15T12:10:18Z</time>
      </trkpt>
      <trkpt lat="49.58879" lon="-1.26289">
        <ele>-0.4</ele>
        <time>2020-06-15T12:10:19Z</time>
      </trkpt>
      <trkpt lat="49.58882" lon="-1.26293">
        <ele>-0.3</ele>
        <time>2020-06-15T12:10:20Z</time>
      </trkpt>
      <trkpt lat="49.58884" lon="-1.26294">
        <ele>-0.3</ele>
        <time>2020-06-15T12:10:21Z</time>
      </trkpt>
      <trkpt lat="49.58886" lon="-1.26298">
        <ele>-0.3</ele>
        <time>2020-06-15T12:10:22Z</time>
      </trkpt>
      <trkpt lat="49.58889" lon="-1.26302">
        <ele>-0.3</ele>
        <time>2020-06-15T12:10:23Z</time>
      </trkpt>
      <trkpt lat="49.5889" lon="-1.26304">
        <ele>-0.3</ele>
        <time>2020-06-15T12:10:24Z</time>
      </trkpt>
      <trkpt lat="49.58892" lon="-1.26307">
        <ele>-0.3</ele>
        <time>2020-06-15T12:10:25Z</time>
      </trkpt>
      <trkpt lat="49.58893" lon="-1.26308">
        <ele>-0.3</ele>
        <time>2020-06-15T12:10:26Z</time>
      </trkpt>
      <trkpt lat="49.58896" lon="-1.26311">
        <ele>-0.4</ele>
        <time>2020-06-15T12:10:27Z</time>
      </trkpt>
      <trkpt lat="49.58897" lon="-1.26313">
        <ele>-0.4</ele>
        <time>2020-06-15T12:10:28Z</time>
      </trkpt>
      <trkpt lat="49.589" lon="-1.26316">
        <ele>-0.4</ele>
        <time>2020-06-15T12:10:29Z</time>
      </trkpt>
      <trkpt lat="49.589" lon="-1.26318">
        <ele>-0.4</ele>
        <time>2020-06-15T12:10:30Z</time>
      </trkpt>
      <trkpt lat="49.58903" lon="-1.26322">
        <ele>-0.4</ele>
        <time>2020-06-15T12:10:31Z</time>
      </trkpt>
      <trkpt lat="49.58903" lon="-1.26323">
        <ele>-0.4</ele>
        <time>2020-06-15T12:10:32Z</time>
      </trkpt>
      <trkpt lat="49.58906" lon="-1.26327">
        <ele>-0.5</ele>
        <time>2020-06-15T12:10:33Z</time>
      </trkpt>
      <trkpt lat="49.58908" lon="-1.26328">
        <ele>-0.5</ele>
        <time>2020-06-15T12:10:34Z</time>
      </trkpt>
      <trkpt lat="49.5891" lon="-1.26331">
        <ele>-0.5</ele>
        <time>2020-06-15T12:10:35Z</time>
      </trkpt>
      <trkpt lat="49.58912" lon="-1.26334">
        <ele>-0.5</ele>
        <time>2020-06-15T12:10:36Z</time>
      </trkpt>
      <trkpt lat="49.58914" lon="-1.26338">
        <ele>-0.5</ele>
        <time>2020-06-15T12:10:37Z</time>
      </trkpt>
      <trkpt lat="49.58916" lon="-1.26341">
        <ele>-0.6</ele>
        <time>2020-06-15T12:10:38Z</time>
      </trkpt>
      <trkpt lat="49.58918" lon="-1.26344">
        <ele>-0.6</ele>
        <time>2020-06-15T12:10:39Z</time>
      </trkpt>
      <trkpt lat="49.5892" lon="-1.26348">
        <ele>-0.6</ele>
        <time>2020-06-15T12:10:40Z</time>
      </trkpt>
      <trkpt lat="49.58922" lon="-1.26353">
        <ele>-0.5</ele>
        <time>2020-06-15T12:10:41Z</time>
      </trkpt>
      <trkpt lat="49.58923" lon="-1.26354">
        <ele>-0.5</ele>
        <time>2020-06-15T12:10:42Z</time>
      </trkpt>
      <trkpt lat="49.58925" lon="-1.26359">
        <ele>-0.5</ele>
        <time>2020-06-15T12:10:43Z</time>
      </trkpt>
      <trkpt lat="49.58926" lon="-1.2636">
        <ele>-0.5</ele>
        <time>2020-06-15T12:10:44Z</time>
      </trkpt>
      <trkpt lat="49.58928" lon="-1.26364">
        <ele>-0.5</ele>
        <time>2020-06-15T12:10:45Z</time>
      </trkpt>
      <trkpt lat="49.58928" lon="-1.26365">
        <ele>-0.5</ele>
        <time>2020-06-15T12:10:46Z</time>
      </trkpt>
      <trkpt lat="49.58931" lon="-1.26369">
        <ele>-0.4</ele>
        <time>2020-06-15T12:10:47Z</time>
      </trkpt>
      <trkpt lat="49.58932" lon="-1.2637">
        <ele>-0.4</ele>
        <time>2020-06-15T12:10:48Z</time>
      </trkpt>
      <trkpt lat="49.58934" lon="-1.26375">
        <ele>-0.4</ele>
        <time>2020-06-15T12:10:49Z</time>
      </trkpt>
      <trkpt lat="49.58934" lon="-1.26376">
        <ele>-0.4</ele>
        <time>2020-06-15T12:10:50Z</time>
      </trkpt>
      <trkpt lat="49.58936" lon="-1.26379">
        <ele>-0.4</ele>
        <time>2020-06-15T12:10:51Z</time>
      </trkpt>
      <trkpt lat="49.58939" lon="-1.26383">
        <ele>-0.3</ele>
        <time>2020-06-15T12:10:52Z</time>
      </trkpt>
      <trkpt lat="49.58941" lon="-1.26386">
        <ele>-0.3</ele>
        <time>2020-06-15T12:10:53Z</time>
      </trkpt>
      <trkpt lat="49.58943" lon="-1.2639">
        <ele>-0.3</ele>
        <time>2020-06-15T12:10:54Z</time>
      </trkpt>
      <trkpt lat="49.58944" lon="-1.26392">
        <ele>-0.3</ele>
        <time>2020-06-15T12:10:55Z</time>
      </trkpt>
      <trkpt lat="49.58946" lon="-1.26395">
        <ele>-0.3</ele>
        <time>2020-06-15T12:10:56Z</time>
      </trkpt>
      <trkpt lat="49.58949" lon="-1.26398">
        <ele>-0.3</ele>
        <time>2020-06-15T12:10:57Z</time>
      </trkpt>
      <trkpt lat="49.58951" lon="-1.264">
        <ele>-0.3</ele>
        <time>2020-06-15T12:10:58Z</time>
      </trkpt>
      <trkpt lat="49.58953" lon="-1.26404">
        <ele>-0.3</ele>
        <time>2020-06-15T12:10:59Z</time>
      </trkpt>
      <trkpt lat="49.58954" lon="-1.26407">
        <ele>-0.4</ele>
        <time>2020-06-15T12:11:00Z</time>
      </trkpt>
      <trkpt lat="49.58956" lon="-1.2641">
        <ele>-0.4</ele>
        <time>2020-06-15T12:11:01Z</time>
      </trkpt>
      <trkpt lat="49.58959" lon="-1.26414">
        <ele>-0.4</ele>
        <time>2020-06-15T12:11:02Z</time>
      </trkpt>
      <trkpt lat="49.5896" lon="-1.26416">
        <ele>-0.4</ele>
        <time>2020-06-15T12:11:03Z</time>
      </trkpt>
      <trkpt lat="49.58962" lon="-1.26419">
        <ele>-0.4</ele>
        <time>2020-06-15T12:11:04Z</time>
      </trkpt>
      <trkpt lat="49.58963" lon="-1.26423">
        <ele>-0.4</ele>
        <time>2020-06-15T12:11:05Z</time>
      </trkpt>
      <trkpt lat="49.58965" lon="-1.26426">
        <ele>-0.4</ele>
        <time>2020-06-15T12:11:06Z</time>
      </trkpt>
      <trkpt lat="49.58968" lon="-1.2643">
        <ele>-0.3</ele>
        <time>2020-06-15T12:11:07Z</time>
      </trkpt>
      <trkpt lat="49.58968" lon="-1.26432">
        <ele>-0.3</ele>
        <time>2020-06-15T12:11:08Z</time>
      </trkpt>
      <trkpt lat="49.58971" lon="-1.26437">
        <ele>-0.2</ele>
        <time>2020-06-15T12:11:09Z</time>
      </trkpt>
      <trkpt lat="49.58971" lon="-1.26439">
        <ele>-0.2</ele>
        <time>2020-06-15T12:11:10Z</time>
      </trkpt>
      <trkpt lat="49.58973" lon="-1.26443">
        <ele>-0.1</ele>
        <time>2020-06-15T12:11:11Z</time>
      </trkpt>
      <trkpt lat="49.58973" lon="-1.26445">
        <ele>-0.1</ele>
        <time>2020-06-15T12:11:12Z</time>
      </trkpt>
      <trkpt lat="49.58974" lon="-1.2645">
        <ele>3.9</ele>
        <time>2020-06-15T12:11:13Z</time>
      </trkpt>
      <trkpt lat="49.58974" lon="-1.26451">
        <ele>0.1</ele>
        <time>2020-06-15T12:11:14Z</time>
      </trkpt>
      <trkpt lat="49.58976" lon="-1.26456">
        <ele>0.1</ele>
        <time>2020-06-15T12:11:15Z</time>
      </trkpt>
      <trkpt lat="49.58976" lon="-1.26457">
        <ele>0.2</ele>
        <time>2020-06-15T12:11:16Z</time>
      </trkpt>
      <trkpt lat="49.58978" lon="-1.26458">
        <ele>0.3</ele>
        <time>2020-06-15T12:11:17Z</time>
      </trkpt>
      <trkpt lat="49.5898" lon="-1.26459">
        <ele>0.4</ele>
        <time>2020-06-15T12:11:18Z</time>
      </trkpt>
      <trkpt lat="49.58983" lon="-1.26462">
        <ele>0.4</ele>
        <time>2020-06-15T12:11:19Z</time>
      </trkpt>
      <trkpt lat="49.58984" lon="-1.26463">
        <ele>0.5</ele>
        <time>2020-06-15T12:11:20Z</time>
      </trkpt>
      <trkpt lat="49.58984" lon="-1.26465">
        <ele>0.5</ele>
        <time>2020-06-15T12:11:21Z</time>
      </trkpt>
      <trkpt lat="49.58982" lon="-1.26464">
        <ele>0.6</ele>
        <time>2020-06-15T12:11:22Z</time>
      </trkpt>
      <trkpt lat="49.58981" lon="-1.26463">
        <ele>0.6</ele>
        <time>2020-06-15T12:11:23Z</time>
      </trkpt>
      <trkpt lat="49.5898" lon="-1.26463">
        <ele>0.7</ele>
        <time>2020-06-15T12:11:24Z</time>
      </trkpt>
      <trkpt lat="49.58979" lon="-1.26462">
        <ele>0.7</ele>
        <time>2020-06-15T12:11:25Z</time>
      </trkpt>
      <trkpt lat="49.58978" lon="-1.2646">
        <ele>0.7</ele>
        <time>2020-06-15T12:11:26Z</time>
      </trkpt>
      <trkpt lat="49.58979" lon="-1.26457">
        <ele>0.8</ele>
        <time>2020-06-15T12:11:27Z</time>
      </trkpt>
      <trkpt lat="49.58981" lon="-1.26452">
        <ele>0.9</ele>
        <time>2020-06-15T12:11:28Z</time>
      </trkpt>
      <trkpt lat="49.58981" lon="-1.2645">
        <ele>0.9</ele>
        <time>2020-06-15T12:11:29Z</time>
      </trkpt>
      <trkpt lat="49.58982" lon="-1.26446">
        <ele>1</ele>
        <time>2020-06-15T12:11:30Z</time>
      </trkpt>
      <trkpt lat="49.58984" lon="-1.26441">
        <ele>1</ele>
        <time>2020-06-15T12:11:31Z</time>
      </trkpt>
      <trkpt lat="49.58985" lon="-1.26437">
        <ele>1.1</ele>
        <time>2020-06-15T12:11:32Z</time>
      </trkpt>
      <trkpt lat="49.58986" lon="-1.26433">
        <ele>1.2</ele>
        <time>2020-06-15T12:11:33Z</time>
      </trkpt>
      <trkpt lat="49.58988" lon="-1.26429">
        <ele>1.2</ele>
        <time>2020-06-15T12:11:34Z</time>
      </trkpt>
      <trkpt lat="49.5899" lon="-1.26426">
        <ele>1.3</ele>
        <time>2020-06-15T12:11:35Z</time>
      </trkpt>
      <trkpt lat="49.58993" lon="-1.26423">
        <ele>1.4</ele>
        <time>2020-06-15T12:11:36Z</time>
      </trkpt>
      <trkpt lat="49.58996" lon="-1.26421">
        <ele>1.4</ele>
        <time>2020-06-15T12:11:37Z</time>
      </trkpt>
      <trkpt lat="49.59" lon="-1.26419">
        <ele>1.5</ele>
        <time>2020-06-15T12:11:38Z</time>
      </trkpt>
      <trkpt lat="49.59003" lon="-1.26418">
        <ele>1.5</ele>
        <time>2020-06-15T12:11:39Z</time>
      </trkpt>
      <trkpt lat="49.59007" lon="-1.26415">
        <ele>1.6</ele>
        <time>2020-06-15T12:11:40Z</time>
      </trkpt>
      <trkpt lat="49.59011" lon="-1.26414">
        <ele>1.6</ele>
        <time>2020-06-15T12:11:41Z</time>
      </trkpt>
      <trkpt lat="49.59015" lon="-1.26412">
        <ele>1.7</ele>
        <time>2020-06-15T12:11:42Z</time>
      </trkpt>
      <trkpt lat="49.59019" lon="-1.26414">
        <ele>1.7</ele>
        <time>2020-06-15T12:11:43Z</time>
      </trkpt>
      <trkpt lat="49.59022" lon="-1.26418">
        <ele>1.7</ele>
        <time>2020-06-15T12:11:44Z</time>
      </trkpt>
      <trkpt lat="49.59024" lon="-1.26422">
        <ele>1.8</ele>
        <time>2020-06-15T12:11:45Z</time>
      </trkpt>
      <trkpt lat="49.59027" lon="-1.26427">
        <ele>1.8</ele>
        <time>2020-06-15T12:11:46Z</time>
      </trkpt>
      <trkpt lat="49.59029" lon="-1.26433">
        <ele>1.8</ele>
        <time>2020-06-15T12:11:47Z</time>
      </trkpt>
      <trkpt lat="49.59031" lon="-1.26439">
        <ele>1.8</ele>
        <time>2020-06-15T12:11:48Z</time>
      </trkpt>
      <trkpt lat="49.59032" lon="-1.26445">
        <ele>1.9</ele>
        <time>2020-06-15T12:11:49Z</time>
      </trkpt>
      <trkpt lat="49.59034" lon="-1.26452">
        <ele>1.9</ele>
        <time>2020-06-15T12:11:50Z</time>
      </trkpt>
      <trkpt lat="49.59036" lon="-1.2646">
        <ele>1.9</ele>
        <time>2020-06-15T12:11:51Z</time>
      </trkpt>
      <trkpt lat="49.59037" lon="-1.26467">
        <ele>1.9</ele>
        <time>2020-06-15T12:11:52Z</time>
      </trkpt>
      <trkpt lat="49.59038" lon="-1.26475">
        <ele>1.9</ele>
        <time>2020-06-15T12:11:53Z</time>
      </trkpt>
      <trkpt lat="49.59038" lon="-1.26482">
        <ele>1.9</ele>
        <time>2020-06-15T12:11:54Z</time>
      </trkpt>
      <trkpt lat="49.59039" lon="-1.26488">
        <ele>1.9</ele>
        <time>2020-06-15T12:11:55Z</time>
      </trkpt>
      <trkpt lat="49.59039" lon="-1.26495">
        <ele>1.9</ele>
        <time>2020-06-15T12:11:56Z</time>
      </trkpt>
      <trkpt lat="49.5904" lon="-1.26502">
        <ele>1.9</ele>
        <time>2020-06-15T12:11:57Z</time>
      </trkpt>
      <trkpt lat="49.59039" lon="-1.26508">
        <ele>1.9</ele>
        <time>2020-06-15T12:11:58Z</time>
      </trkpt>
      <trkpt lat="49.59039" lon="-1.26514">
        <ele>1.9</ele>
        <time>2020-06-15T12:11:59Z</time>
      </trkpt>
      <trkpt lat="49.59039" lon="-1.26519">
        <ele>1.9</ele>
        <time>2020-06-15T12:12:00Z</time>
      </trkpt>
      <trkpt lat="49.59039" lon="-1.26525">
        <ele>1.9</ele>
        <time>2020-06-15T12:12:01Z</time>
      </trkpt>
      <trkpt lat="49.59038" lon="-1.2653">
        <ele>1.9</ele>
        <time>2020-06-15T12:12:02Z</time>
      </trkpt>
      <trkpt lat="49.59038" lon="-1.26536">
        <ele>2</ele>
        <time>2020-06-15T12:12:03Z</time>
      </trkpt>
      <trkpt lat="49.59038" lon="-1.26543">
        <ele>2</ele>
        <time>2020-06-15T12:12:04Z</time>
      </trkpt>
      <trkpt lat="49.59038" lon="-1.2655">
        <ele>2.1</ele>
        <time>2020-06-15T12:12:05Z</time>
      </trkpt>
      <trkpt lat="49.59038" lon="-1.26556">
        <ele>2.1</ele>
        <time>2020-06-15T12:12:06Z</time>
      </trkpt>
      <trkpt lat="49.59038" lon="-1.26562">
        <ele>2.1</ele>
        <time>2020-06-15T12:12:07Z</time>
      </trkpt>
      <trkpt lat="49.59038" lon="-1.26568">
        <ele>2.2</ele>
        <time>2020-06-15T12:12:08Z</time>
      </trkpt>
      <trkpt lat="49.59038" lon="-1.26574">
        <ele>2.2</ele>
        <time>2020-06-15T12:12:09Z</time>
      </trkpt>
      <trkpt lat="49.59038" lon="-1.26579">
        <ele>2.2</ele>
        <time>2020-06-15T12:12:10Z</time>
      </trkpt>
      <trkpt lat="49.59038" lon="-1.26583">
        <ele>2.3</ele>
        <time>2020-06-15T12:12:11Z</time>
      </trkpt>
      <trkpt lat="49.59036" lon="-1.26588">
        <ele>2.3</ele>
        <time>2020-06-15T12:12:12Z</time>
      </trkpt>
      <trkpt lat="49.59035" lon="-1.26591">
        <ele>2.3</ele>
        <time>2020-06-15T12:12:13Z</time>
      </trkpt>
      <trkpt lat="49.59032" lon="-1.26595">
        <ele>2.3</ele>
        <time>2020-06-15T12:12:14Z</time>
      </trkpt>
      <trkpt lat="49.5903" lon="-1.26599">
        <ele>2.3</ele>
        <time>2020-06-15T12:12:15Z</time>
      </trkpt>
      <trkpt lat="49.59027" lon="-1.26602">
        <ele>2.3</ele>
        <time>2020-06-15T12:12:16Z</time>
      </trkpt>
      <trkpt lat="49.59024" lon="-1.26603">
        <ele>2.3</ele>
        <time>2020-06-15T12:12:17Z</time>
      </trkpt>
      <trkpt lat="49.59022" lon="-1.26603">
        <ele>2.3</ele>
        <time>2020-06-15T12:12:18Z</time>
      </trkpt>
      <trkpt lat="49.59021" lon="-1.26603">
        <ele>2.3</ele>
        <time>2020-06-15T12:12:19Z</time>
      </trkpt>
      <trkpt lat="49.59021" lon="-1.26603">
        <ele>2.3</ele>
        <time>2020-06-15T12:12:20Z</time>
      </trkpt>
      <trkpt lat="49.59021" lon="-1.26603">
        <ele>2.4</ele>
        <time>2020-06-15T12:12:21Z</time>
      </trkpt>
      <trkpt lat="49.59022" lon="-1.26602">
        <ele>2.4</ele>
        <time>2020-06-15T12:12:22Z</time>
      </trkpt>
      <trkpt lat="49.59021" lon="-1.26601">
        <ele>2.4</ele>
        <time>2020-06-15T12:12:23Z</time>
      </trkpt>
      <trkpt lat="49.59022" lon="-1.26601">
        <ele>2.4</ele>
        <time>2020-06-15T12:12:24Z</time>
      </trkpt>
      <trkpt lat="49.59022" lon="-1.26601">
        <ele>2.4</ele>
        <time>2020-06-15T12:12:25Z</time>
      </trkpt>
      <trkpt lat="49.59023" lon="-1.26602">
        <ele>2.4</ele>
        <time>2020-06-15T12:12:26Z</time>
      </trkpt>
      <trkpt lat="49.59023" lon="-1.26602">
        <ele>2.4</ele>
        <time>2020-06-15T12:12:27Z</time>
      </trkpt>
      <trkpt lat="49.59022" lon="-1.26603">
        <ele>2.4</ele>
        <time>2020-06-15T12:12:28Z</time>
      </trkpt>
      <trkpt lat="49.59021" lon="-1.26602">
        <ele>2.4</ele>
        <time>2020-06-15T12:12:29Z</time>
      </trkpt>
      <trkpt lat="49.5902" lon="-1.26602">
        <ele>2.4</ele>
        <time>2020-06-15T12:12:30Z</time>
      </trkpt>
      <trkpt lat="49.5902" lon="-1.26602">
        <ele>2.4</ele>
        <time>2020-06-15T12:12:31Z</time>
      </trkpt>
      <trkpt lat="49.59019" lon="-1.26601">
        <ele>2.4</ele>
        <time>2020-06-15T12:12:32Z</time>
      </trkpt>
      <trkpt lat="49.59016" lon="-1.26599">
        <ele>2.3</ele>
        <time>2020-06-15T12:12:33Z</time>
      </trkpt>
      <trkpt lat="49.59011" lon="-1.26596">
        <ele>2.3</ele>
        <time>2020-06-15T12:12:34Z</time>
      </trkpt>
      <trkpt lat="49.59007" lon="-1.26593">
        <ele>2.3</ele>
        <time>2020-06-15T12:12:35Z</time>
      </trkpt>
      <trkpt lat="49.59003" lon="-1.26591">
        <ele>2.3</ele>
        <time>2020-06-15T12:12:36Z</time>
      </trkpt>
      <trkpt lat="49.59" lon="-1.2659">
        <ele>2.3</ele>
        <time>2020-06-15T12:12:37Z</time>
      </trkpt>
      <trkpt lat="49.58996" lon="-1.26588">
        <ele>2.3</ele>
        <time>2020-06-15T12:12:38Z</time>
      </trkpt>
      <trkpt lat="49.58993" lon="-1.26586">
        <ele>2.3</ele>
        <time>2020-06-15T12:12:39Z</time>
      </trkpt>
      <trkpt lat="49.5899" lon="-1.26583">
        <ele>2.3</ele>
        <time>2020-06-15T12:12:40Z</time>
      </trkpt>
      <trkpt lat="49.58987" lon="-1.26581">
        <ele>2.3</ele>
        <time>2020-06-15T12:12:41Z</time>
      </trkpt>
      <trkpt lat="49.58984" lon="-1.26581">
        <ele>2.3</ele>
        <time>2020-06-15T12:12:42Z</time>
      </trkpt>
      <trkpt lat="49.58981" lon="-1.26582">
        <ele>2.3</ele>
        <time>2020-06-15T12:12:43Z</time>
      </trkpt>
      <trkpt lat="49.58978" lon="-1.26583">
        <ele>2.3</ele>
        <time>2020-06-15T12:12:44Z</time>
      </trkpt>
      <trkpt lat="49.58975" lon="-1.26583">
        <ele>2.3</ele>
        <time>2020-06-15T12:12:45Z</time>
      </trkpt>
      <trkpt lat="49.58972" lon="-1.26584">
        <ele>2.3</ele>
        <time>2020-06-15T12:12:46Z</time>
      </trkpt>
      <trkpt lat="49.58969" lon="-1.26586">
        <ele>2.3</ele>
        <time>2020-06-15T12:12:47Z</time>
      </trkpt>
      <trkpt lat="49.58966" lon="-1.26588">
        <ele>2.3</ele>
        <time>2020-06-15T12:12:48Z</time>
      </trkpt>
      <trkpt lat="49.58962" lon="-1.2659">
        <ele>2.3</ele>
        <time>2020-06-15T12:12:49Z</time>
      </trkpt>
      <trkpt lat="49.5896" lon="-1.26591">
        <ele>2.3</ele>
        <time>2020-06-15T12:12:50Z</time>
      </trkpt>
      <trkpt lat="49.58958" lon="-1.26593">
        <ele>2.4</ele>
        <time>2020-06-15T12:12:51Z</time>
      </trkpt>
      <trkpt lat="49.58955" lon="-1.26595">
        <ele>2.4</ele>
        <time>2020-06-15T12:12:52Z</time>
      </trkpt>
      <trkpt lat="49.58953" lon="-1.26597">
        <ele>2.4</ele>
        <time>2020-06-15T12:12:53Z</time>
      </trkpt>
      <trkpt lat="49.5895" lon="-1.266">
        <ele>2.3</ele>
        <time>2020-06-15T12:12:54Z</time>
      </trkpt>
      <trkpt lat="49.58948" lon="-1.26604">
        <ele>2.3</ele>
        <time>2020-06-15T12:12:55Z</time>
      </trkpt>
      <trkpt lat="49.58945" lon="-1.26606">
        <ele>2.3</ele>
        <time>2020-06-15T12:12:56Z</time>
      </trkpt>
      <trkpt lat="49.58942" lon="-1.26606">
        <ele>2.2</ele>
        <time>2020-06-15T12:12:57Z</time>
      </trkpt>
      <trkpt lat="49.5894" lon="-1.26606">
        <ele>2.2</ele>
        <time>2020-06-15T12:12:58Z</time>
      </trkpt>
      <trkpt lat="49.58937" lon="-1.26605">
        <ele>2.2</ele>
        <time>2020-06-15T12:12:59Z</time>
      </trkpt>
      <trkpt lat="49.58933" lon="-1.26604">
        <ele>2.2</ele>
        <time>2020-06-15T12:13:00Z</time>
      </trkpt>
      <trkpt lat="49.5893" lon="-1.26603">
        <ele>2.1</ele>
        <time>2020-06-15T12:13:01Z</time>
      </trkpt>
      <trkpt lat="49.58925" lon="-1.26601">
        <ele>2.1</ele>
        <time>2020-06-15T12:13:02Z</time>
      </trkpt>
      <trkpt lat="49.58921" lon="-1.266">
        <ele>2</ele>
        <time>2020-06-15T12:13:03Z</time>
      </trkpt>
      <trkpt lat="49.58918" lon="-1.266">
        <ele>2</ele>
        <time>2020-06-15T12:13:04Z</time>
      </trkpt>
      <trkpt lat="49.58914" lon="-1.266">
        <ele>2</ele>
        <time>2020-06-15T12:13:05Z</time>
      </trkpt>
      <trkpt lat="49.58909" lon="-1.266">
        <ele>2</ele>
        <time>2020-06-15T12:13:06Z</time>
      </trkpt>
      <trkpt lat="49.58906" lon="-1.26599">
        <ele>2</ele>
        <time>2020-06-15T12:13:07Z</time>
      </trkpt>
      <trkpt lat="49.58903" lon="-1.26598">
        <ele>2</ele>
        <time>2020-06-15T12:13:08Z</time>
      </trkpt>
      <trkpt lat="49.58899" lon="-1.26597">
        <ele>2</ele>
        <time>2020-06-15T12:13:09Z</time>
      </trkpt>
      <trkpt lat="49.58896" lon="-1.26596">
        <ele>2</ele>
        <time>2020-06-15T12:13:10Z</time>
      </trkpt>
      <trkpt lat="49.58892" lon="-1.26595">
        <ele>2</ele>
        <time>2020-06-15T12:13:11Z</time>
      </trkpt>
      <trkpt lat="49.58889" lon="-1.26595">
        <ele>2</ele>
        <time>2020-06-15T12:13:12Z</time>
      </trkpt>
      <trkpt lat="49.58886" lon="-1.26594">
        <ele>1.9</ele>
        <time>2020-06-15T12:13:13Z</time>
      </trkpt>
      <trkpt lat="49.58883" lon="-1.26593">
        <ele>1.9</ele>
        <time>2020-06-15T12:13:14Z</time>
      </trkpt>
      <trkpt lat="49.58879" lon="-1.26592">
        <ele>1.9</ele>
        <time>2020-06-15T12:13:15Z</time>
      </trkpt>
      <trkpt lat="49.58878" lon="-1.26592">
        <ele>1.9</ele>
        <time>2020-06-15T12:13:16Z</time>
      </trkpt>
      <trkpt lat="49.58875" lon="-1.26592">
        <ele>1.9</ele>
        <time>2020-06-15T12:13:17Z</time>
      </trkpt>
      <trkpt lat="49.58871" lon="-1.26592">
        <ele>1.9</ele>
        <time>2020-06-15T12:13:18Z</time>
      </trkpt>
      <trkpt lat="49.58868" lon="-1.26592">
        <ele>1.9</ele>
        <time>2020-06-15T12:13:19Z</time>
      </trkpt>
      <trkpt lat="49.58864" lon="-1.2659">
        <ele>2</ele>
        <time>2020-06-15T12:13:20Z</time>
      </trkpt>
      <trkpt lat="49.58863" lon="-1.2659">
        <ele>2</ele>
        <time>2020-06-15T12:13:21Z</time>
      </trkpt>
      <trkpt lat="49.5886" lon="-1.26589">
        <ele>2.1</ele>
        <time>2020-06-15T12:13:22Z</time>
      </trkpt>
      <trkpt lat="49.58857" lon="-1.26588">
        <ele>2.1</ele>
        <time>2020-06-15T12:13:23Z</time>
      </trkpt>
      <trkpt lat="49.58853" lon="-1.26587">
        <ele>2.2</ele>
        <time>2020-06-15T12:13:24Z</time>
      </trkpt>
      <trkpt lat="49.5885" lon="-1.26585">
        <ele>2.2</ele>
        <time>2020-06-15T12:13:25Z</time>
      </trkpt>
      <trkpt lat="49.58847" lon="-1.26583">
        <ele>2.3</ele>
        <time>2020-06-15T12:13:26Z</time>
      </trkpt>
      <trkpt lat="49.58845" lon="-1.26578">
        <ele>2.3</ele>
        <time>2020-06-15T12:13:27Z</time>
      </trkpt>
      <trkpt lat="49.58844" lon="-1.26577">
        <ele>2.3</ele>
        <time>2020-06-15T12:13:28Z</time>
      </trkpt>
      <trkpt lat="49.58841" lon="-1.26574">
        <ele>2.3</ele>
        <time>2020-06-15T12:13:29Z</time>
      </trkpt>
      <trkpt lat="49.58839" lon="-1.26573">
        <ele>2.3</ele>
        <time>2020-06-15T12:13:30Z</time>
      </trkpt>
      <trkpt lat="49.58836" lon="-1.2657">
        <ele>2.3</ele>
        <time>2020-06-15T12:13:31Z</time>
      </trkpt>
      <trkpt lat="49.58835" lon="-1.26569">
        <ele>2.3</ele>
        <time>2020-06-15T12:13:32Z</time>
      </trkpt>
      <trkpt lat="49.58832" lon="-1.26567">
        <ele>2.4</ele>
        <time>2020-06-15T12:13:33Z</time>
      </trkpt>
      <trkpt lat="49.58831" lon="-1.26566">
        <ele>2.4</ele>
        <time>2020-06-15T12:13:34Z</time>
      </trkpt>
      <trkpt lat="49.58827" lon="-1.26563">
        <ele>2.4</ele>
        <time>2020-06-15T12:13:35Z</time>
      </trkpt>
      <trkpt lat="49.58826" lon="-1.26562">
        <ele>2.4</ele>
        <time>2020-06-15T12:13:36Z</time>
      </trkpt>
      <trkpt lat="49.58824" lon="-1.26559">
        <ele>2.4</ele>
        <time>2020-06-15T12:13:37Z</time>
      </trkpt>
      <trkpt lat="49.58821" lon="-1.26558">
        <ele>2.4</ele>
        <time>2020-06-15T12:13:38Z</time>
      </trkpt>
      <trkpt lat="49.58817" lon="-1.26556">
        <ele>2.4</ele>
        <time>2020-06-15T12:13:39Z</time>
      </trkpt>
      <trkpt lat="49.58814" lon="-1.26554">
        <ele>2.4</ele>
        <time>2020-06-15T12:13:40Z</time>
      </trkpt>
      <trkpt lat="49.58811" lon="-1.26552">
        <ele>2.5</ele>
        <time>2020-06-15T12:13:41Z</time>
      </trkpt>
      <trkpt lat="49.58809" lon="-1.2655">
        <ele>2.5</ele>
        <time>2020-06-15T12:13:42Z</time>
      </trkpt>
      <trkpt lat="49.58806" lon="-1.26546">
        <ele>2.5</ele>
        <time>2020-06-15T12:13:43Z</time>
      </trkpt>
      <trkpt lat="49.58803" lon="-1.26544">
        <ele>2.5</ele>
        <time>2020-06-15T12:13:44Z</time>
      </trkpt>
      <trkpt lat="49.588" lon="-1.26541">
        <ele>2.5</ele>
        <time>2020-06-15T12:13:45Z</time>
      </trkpt>
      <trkpt lat="49.58799" lon="-1.2654">
        <ele>2.5</ele>
        <time>2020-06-15T12:13:46Z</time>
      </trkpt>
      <trkpt lat="49.58796" lon="-1.26538">
        <ele>2.5</ele>
        <time>2020-06-15T12:13:47Z</time>
      </trkpt>
      <trkpt lat="49.58793" lon="-1.26536">
        <ele>2.5</ele>
        <time>2020-06-15T12:13:48Z</time>
      </trkpt>
      <trkpt lat="49.5879" lon="-1.26534">
        <ele>2.5</ele>
        <time>2020-06-15T12:13:49Z</time>
      </trkpt>
      <trkpt lat="49.58787" lon="-1.26532">
        <ele>2.5</ele>
        <time>2020-06-15T12:13:50Z</time>
      </trkpt>
      <trkpt lat="49.58784" lon="-1.2653">
        <ele>2.5</ele>
        <time>2020-06-15T12:13:51Z</time>
      </trkpt>
      <trkpt lat="49.58783" lon="-1.26529">
        <ele>2.5</ele>
        <time>2020-06-15T12:13:52Z</time>
      </trkpt>
      <trkpt lat="49.5878" lon="-1.26526">
        <ele>2.6</ele>
        <time>2020-06-15T12:13:53Z</time>
      </trkpt>
      <trkpt lat="49.58779" lon="-1.26525">
        <ele>2.6</ele>
        <time>2020-06-15T12:13:54Z</time>
      </trkpt>
      <trkpt lat="49.58776" lon="-1.26523">
        <ele>2.6</ele>
        <time>2020-06-15T12:13:55Z</time>
      </trkpt>
      <trkpt lat="49.58775" lon="-1.26522">
        <ele>2.6</ele>
        <time>2020-06-15T12:13:56Z</time>
      </trkpt>
      <trkpt lat="49.58772" lon="-1.26521">
        <ele>2.6</ele>
        <time>2020-06-15T12:13:57Z</time>
      </trkpt>
      <trkpt lat="49.58771" lon="-1.26521">
        <ele>2.6</ele>
        <time>2020-06-15T12:13:58Z</time>
      </trkpt>
      <trkpt lat="49.58768" lon="-1.26518">
        <ele>2.6</ele>
        <time>2020-06-15T12:13:59Z</time>
      </trkpt>
      <trkpt lat="49.58767" lon="-1.26517">
        <ele>2.6</ele>
        <time>2020-06-15T12:14:00Z</time>
      </trkpt>
      <trkpt lat="49.58765" lon="-1.26514">
        <ele>2.6</ele>
        <time>2020-06-15T12:14:01Z</time>
      </trkpt>
      <trkpt lat="49.58762" lon="-1.26512">
        <ele>2.6</ele>
        <time>2020-06-15T12:14:02Z</time>
      </trkpt>
      <trkpt lat="49.58761" lon="-1.26512">
        <ele>2.6</ele>
        <time>2020-06-15T12:14:03Z</time>
      </trkpt>
      <trkpt lat="49.58758" lon="-1.2651">
        <ele>2.7</ele>
        <time>2020-06-15T12:14:04Z</time>
      </trkpt>
      <trkpt lat="49.58754" lon="-1.26507">
        <ele>2.7</ele>
        <time>2020-06-15T12:14:05Z</time>
      </trkpt>
      <trkpt lat="49.58752" lon="-1.26506">
        <ele>2.7</ele>
        <time>2020-06-15T12:14:06Z</time>
      </trkpt>
      <trkpt lat="49.5875" lon="-1.26504">
        <ele>2.7</ele>
        <time>2020-06-15T12:14:07Z</time>
      </trkpt>
      <trkpt lat="49.58747" lon="-1.26502">
        <ele>2.7</ele>
        <time>2020-06-15T12:14:08Z</time>
      </trkpt>
      <trkpt lat="49.58743" lon="-1.26502">
        <ele>2.7</ele>
        <time>2020-06-15T12:14:09Z</time>
      </trkpt>
      <trkpt lat="49.5874" lon="-1.26501">
        <ele>2.7</ele>
        <time>2020-06-15T12:14:10Z</time>
      </trkpt>
      <trkpt lat="49.58738" lon="-1.26499">
        <ele>2.7</ele>
        <time>2020-06-15T12:14:11Z</time>
      </trkpt>
      <trkpt lat="49.58735" lon="-1.26497">
        <ele>2.7</ele>
        <time>2020-06-15T12:14:12Z</time>
      </trkpt>
      <trkpt lat="49.58733" lon="-1.26494">
        <ele>2.7</ele>
        <time>2020-06-15T12:14:13Z</time>
      </trkpt>
      <trkpt lat="49.5873" lon="-1.26491">
        <ele>2.7</ele>
        <time>2020-06-15T12:14:14Z</time>
      </trkpt>
      <trkpt lat="49.58728" lon="-1.26489">
        <ele>2.8</ele>
        <time>2020-06-15T12:14:15Z</time>
      </trkpt>
      <trkpt lat="49.58724" lon="-1.26486">
        <ele>2.8</ele>
        <time>2020-06-15T12:14:16Z</time>
      </trkpt>
      <trkpt lat="49.58723" lon="-1.26485">
        <ele>2.8</ele>
        <time>2020-06-15T12:14:17Z</time>
      </trkpt>
      <trkpt lat="49.5872" lon="-1.26483">
        <ele>2.8</ele>
        <time>2020-06-15T12:14:18Z</time>
      </trkpt>
      <trkpt lat="49.58718" lon="-1.26482">
        <ele>2.8</ele>
        <time>2020-06-15T12:14:19Z</time>
      </trkpt>
      <trkpt lat="49.58715" lon="-1.2648">
        <ele>2.8</ele>
        <time>2020-06-15T12:14:20Z</time>
      </trkpt>
      <trkpt lat="49.58713" lon="-1.26478">
        <ele>2.8</ele>
        <time>2020-06-15T12:14:21Z</time>
      </trkpt>
      <trkpt lat="49.5871" lon="-1.26476">
        <ele>2.8</ele>
        <time>2020-06-15T12:14:22Z</time>
      </trkpt>
      <trkpt lat="49.58706" lon="-1.26475">
        <ele>2.8</ele>
        <time>2020-06-15T12:14:23Z</time>
      </trkpt>
      <trkpt lat="49.58704" lon="-1.26473">
        <ele>2.8</ele>
        <time>2020-06-15T12:14:24Z</time>
      </trkpt>
      <trkpt lat="49.58701" lon="-1.26471">
        <ele>2.8</ele>
        <time>2020-06-15T12:14:25Z</time>
      </trkpt>
      <trkpt lat="49.58699" lon="-1.2647">
        <ele>2.8</ele>
        <time>2020-06-15T12:14:26Z</time>
      </trkpt>
      <trkpt lat="49.58697" lon="-1.26468">
        <ele>2.8</ele>
        <time>2020-06-15T12:14:27Z</time>
      </trkpt>
      <trkpt lat="49.58693" lon="-1.26465">
        <ele>2.8</ele>
        <time>2020-06-15T12:14:28Z</time>
      </trkpt>
      <trkpt lat="49.58692" lon="-1.26464">
        <ele>2.8</ele>
        <time>2020-06-15T12:14:29Z</time>
      </trkpt>
      <trkpt lat="49.58689" lon="-1.26462">
        <ele>2.8</ele>
        <time>2020-06-15T12:14:30Z</time>
      </trkpt>
      <trkpt lat="49.58686" lon="-1.26461">
        <ele>2.8</ele>
        <time>2020-06-15T12:14:31Z</time>
      </trkpt>
      <trkpt lat="49.58683" lon="-1.26459">
        <ele>2.8</ele>
        <time>2020-06-15T12:14:32Z</time>
      </trkpt>
      <trkpt lat="49.5868" lon="-1.26457">
        <ele>2.8</ele>
        <time>2020-06-15T12:14:33Z</time>
      </trkpt>
      <trkpt lat="49.5868" lon="-1.26456">
        <ele>2.8</ele>
        <time>2020-06-15T12:14:34Z</time>
      </trkpt>
      <trkpt lat="49.58677" lon="-1.26454">
        <ele>2.7</ele>
        <time>2020-06-15T12:14:35Z</time>
      </trkpt>
      <trkpt lat="49.58677" lon="-1.26453">
        <ele>2.7</ele>
        <time>2020-06-15T12:14:36Z</time>
      </trkpt>
      <trkpt lat="49.58674" lon="-1.26451">
        <ele>2.7</ele>
        <time>2020-06-15T12:14:37Z</time>
      </trkpt>
      <trkpt lat="49.58673" lon="-1.26451">
        <ele>2.7</ele>
        <time>2020-06-15T12:14:38Z</time>
      </trkpt>
      <trkpt lat="49.58672" lon="-1.26449">
        <ele>2.7</ele>
        <time>2020-06-15T12:14:39Z</time>
      </trkpt>
      <trkpt lat="49.5867" lon="-1.26448">
        <ele>2.7</ele>
        <time>2020-06-15T12:14:40Z</time>
      </trkpt>
      <trkpt lat="49.58669" lon="-1.26446">
        <ele>2.7</ele>
        <time>2020-06-15T12:14:41Z</time>
      </trkpt>
      <trkpt lat="49.58668" lon="-1.26446">
        <ele>2.7</ele>
        <time>2020-06-15T12:14:42Z</time>
      </trkpt>
      <trkpt lat="49.58667" lon="-1.26445">
        <ele>2.7</ele>
        <time>2020-06-15T12:14:43Z</time>
      </trkpt>
      <trkpt lat="49.58666" lon="-1.26447">
        <ele>2.7</ele>
        <time>2020-06-15T12:14:44Z</time>
      </trkpt>
      <trkpt lat="49.58666" lon="-1.26449">
        <ele>2.7</ele>
        <time>2020-06-15T12:14:45Z</time>
      </trkpt>
      <trkpt lat="49.58666" lon="-1.26452">
        <ele>2.7</ele>
        <time>2020-06-15T12:14:46Z</time>
      </trkpt>
      <trkpt lat="49.58665" lon="-1.26453">
        <ele>2.7</ele>
        <time>2020-06-15T12:14:47Z</time>
      </trkpt>
      <trkpt lat="49.58664" lon="-1.26454">
        <ele>2.7</ele>
        <time>2020-06-15T12:14:48Z</time>
      </trkpt>
      <trkpt lat="49.58661" lon="-1.26453">
        <ele>2.7</ele>
        <time>2020-06-15T12:14:49Z</time>
      </trkpt>
      <trkpt lat="49.58659" lon="-1.26452">
        <ele>2.7</ele>
        <time>2020-06-15T12:14:50Z</time>
      </trkpt>
      <trkpt lat="49.58656" lon="-1.2645">
        <ele>2.7</ele>
        <time>2020-06-15T12:14:51Z</time>
      </trkpt>
      <trkpt lat="49.58653" lon="-1.26448">
        <ele>2.7</ele>
        <time>2020-06-15T12:14:52Z</time>
      </trkpt>
      <trkpt lat="49.5865" lon="-1.26446">
        <ele>2.7</ele>
        <time>2020-06-15T12:14:53Z</time>
      </trkpt>
      <trkpt lat="49.58646" lon="-1.26444">
        <ele>2.7</ele>
        <time>2020-06-15T12:14:54Z</time>
      </trkpt>
      <trkpt lat="49.58643" lon="-1.26441">
        <ele>2.7</ele>
        <time>2020-06-15T12:14:55Z</time>
      </trkpt>
      <trkpt lat="49.5864" lon="-1.26439">
        <ele>2.7</ele>
        <time>2020-06-15T12:14:56Z</time>
      </trkpt>
      <trkpt lat="49.58637" lon="-1.26434">
        <ele>2.2</ele>
        <time>2020-06-15T12:14:57Z</time>
      </trkpt>
      <trkpt lat="49.58635" lon="-1.26431">
        <ele>2.2</ele>
        <time>2020-06-15T12:14:58Z</time>
      </trkpt>
      <trkpt lat="49.58634" lon="-1.26427">
        <ele>2.2</ele>
        <time>2020-06-15T12:14:59Z</time>
      </trkpt>
      <trkpt lat="49.58632" lon="-1.26422">
        <ele>2.2</ele>
        <time>2020-06-15T12:15:00Z</time>
      </trkpt>
      <trkpt lat="49.58632" lon="-1.2642">
        <ele>2.2</ele>
        <time>2020-06-15T12:15:01Z</time>
      </trkpt>
      <trkpt lat="49.58631" lon="-1.26416">
        <ele>2.3</ele>
        <time>2020-06-15T12:15:02Z</time>
      </trkpt>
      <trkpt lat="49.5863" lon="-1.2641">
        <ele>2.3</ele>
        <time>2020-06-15T12:15:03Z</time>
      </trkpt>
      <trkpt lat="49.58629" lon="-1.26406">
        <ele>2.3</ele>
        <time>2020-06-15T12:15:04Z</time>
      </trkpt>
      <trkpt lat="49.58627" lon="-1.26401">
        <ele>2.3</ele>
        <time>2020-06-15T12:15:05Z</time>
      </trkpt>
      <trkpt lat="49.58625" lon="-1.26396">
        <ele>2.3</ele>
        <time>2020-06-15T12:15:06Z</time>
      </trkpt>
      <trkpt lat="49.58624" lon="-1.26391">
        <ele>2.3</ele>
        <time>2020-06-15T12:15:07Z</time>
      </trkpt>
      <trkpt lat="49.58622" lon="-1.26386">
        <ele>2.4</ele>
        <time>2020-06-15T12:15:08Z</time>
      </trkpt>
      <trkpt lat="49.58621" lon="-1.26382">
        <ele>2.4</ele>
        <time>2020-06-15T12:15:09Z</time>
      </trkpt>
      <trkpt lat="49.58619" lon="-1.26376">
        <ele>2.4</ele>
        <time>2020-06-15T12:15:10Z</time>
      </trkpt>
      <trkpt lat="49.58617" lon="-1.26372">
        <ele>2.4</ele>
        <time>2020-06-15T12:15:11Z</time>
      </trkpt>
      <trkpt lat="49.58614" lon="-1.26367">
        <ele>2.4</ele>
        <time>2020-06-15T12:15:12Z</time>
      </trkpt>
      <trkpt lat="49.58613" lon="-1.26362">
        <ele>2.4</ele>
        <time>2020-06-15T12:15:13Z</time>
      </trkpt>
      <trkpt lat="49.58611" lon="-1.26356">
        <ele>2.4</ele>
        <time>2020-06-15T12:15:14Z</time>
      </trkpt>
      <trkpt lat="49.5861" lon="-1.26349">
        <ele>2.4</ele>
        <time>2020-06-15T12:15:15Z</time>
      </trkpt>
      <trkpt lat="49.58609" lon="-1.26341">
        <ele>2.4</ele>
        <time>2020-06-15T12:15:16Z</time>
      </trkpt>
      <trkpt lat="49.58608" lon="-1.26334">
        <ele>2.4</ele>
        <time>2020-06-15T12:15:17Z</time>
      </trkpt>
      <trkpt lat="49.58607" lon="-1.26327">
        <ele>2.4</ele>
        <time>2020-06-15T12:15:18Z</time>
      </trkpt>
      <trkpt lat="49.58606" lon="-1.26321">
        <ele>2.4</ele>
        <time>2020-06-15T12:15:19Z</time>
      </trkpt>
      <trkpt lat="49.58606" lon="-1.26314">
        <ele>2.4</ele>
        <time>2020-06-15T12:15:20Z</time>
      </trkpt>
      <trkpt lat="49.58606" lon="-1.26307">
        <ele>2.4</ele>
        <time>2020-06-15T12:15:21Z</time>
      </trkpt>
      <trkpt lat="49.58607" lon="-1.26301">
        <ele>2.4</ele>
        <time>2020-06-15T12:15:22Z</time>
      </trkpt>
      <trkpt lat="49.58607" lon="-1.26295">
        <ele>2.4</ele>
        <time>2020-06-15T12:15:23Z</time>
      </trkpt>
      <trkpt lat="49.58608" lon="-1.26289">
        <ele>2.4</ele>
        <time>2020-06-15T12:15:24Z</time>
      </trkpt>
      <trkpt lat="49.58608" lon="-1.26284">
        <ele>2.4</ele>
        <time>2020-06-15T12:15:25Z</time>
      </trkpt>
      <trkpt lat="49.58608" lon="-1.26278">
        <ele>2.4</ele>
        <time>2020-06-15T12:15:26Z</time>
      </trkpt>
      <trkpt lat="49.58609" lon="-1.26273">
        <ele>2.4</ele>
        <time>2020-06-15T12:15:27Z</time>
      </trkpt>
      <trkpt lat="49.58609" lon="-1.26267">
        <ele>2.4</ele>
        <time>2020-06-15T12:15:28Z</time>
      </trkpt>
      <trkpt lat="49.58609" lon="-1.26261">
        <ele>2.4</ele>
        <time>2020-06-15T12:15:29Z</time>
      </trkpt>
      <trkpt lat="49.5861" lon="-1.26255">
        <ele>2.4</ele>
        <time>2020-06-15T12:15:30Z</time>
      </trkpt>
      <trkpt lat="49.5861" lon="-1.26249">
        <ele>2.4</ele>
        <time>2020-06-15T12:15:31Z</time>
      </trkpt>
      <trkpt lat="49.5861" lon="-1.26243">
        <ele>2.4</ele>
        <time>2020-06-15T12:15:32Z</time>
      </trkpt>
      <trkpt lat="49.58609" lon="-1.26237">
        <ele>2.4</ele>
        <time>2020-06-15T12:15:33Z</time>
      </trkpt>
      <trkpt lat="49.5861" lon="-1.26232">
        <ele>2.4</ele>
        <time>2020-06-15T12:15:34Z</time>
      </trkpt>
      <trkpt lat="49.5861" lon="-1.26226">
        <ele>2.4</ele>
        <time>2020-06-15T12:15:35Z</time>
      </trkpt>
      <trkpt lat="49.5861" lon="-1.26221">
        <ele>2.4</ele>
        <time>2020-06-15T12:15:36Z</time>
      </trkpt>
      <trkpt lat="49.58608" lon="-1.26216">
        <ele>2.4</ele>
        <time>2020-06-15T12:15:37Z</time>
      </trkpt>
      <trkpt lat="49.58606" lon="-1.26211">
        <ele>2.4</ele>
        <time>2020-06-15T12:15:38Z</time>
      </trkpt>
      <trkpt lat="49.58603" lon="-1.26208">
        <ele>2.4</ele>
        <time>2020-06-15T12:15:39Z</time>
      </trkpt>
      <trkpt lat="49.586" lon="-1.26207">
        <ele>2.4</ele>
        <time>2020-06-15T12:15:40Z</time>
      </trkpt>
      <trkpt lat="49.58597" lon="-1.26207">
        <ele>2.4</ele>
        <time>2020-06-15T12:15:41Z</time>
      </trkpt>
      <trkpt lat="49.58594" lon="-1.26208">
        <ele>2.4</ele>
        <time>2020-06-15T12:15:42Z</time>
      </trkpt>
      <trkpt lat="49.58591" lon="-1.26206">
        <ele>2.4</ele>
        <time>2020-06-15T12:15:43Z</time>
      </trkpt>
      <trkpt lat="49.58587" lon="-1.26206">
        <ele>2.4</ele>
        <time>2020-06-15T12:15:44Z</time>
      </trkpt>
      <trkpt lat="49.58584" lon="-1.26207">
        <ele>2.4</ele>
        <time>2020-06-15T12:15:45Z</time>
      </trkpt>
      <trkpt lat="49.58581" lon="-1.26208">
        <ele>2.4</ele>
        <time>2020-06-15T12:15:46Z</time>
      </trkpt>
      <trkpt lat="49.58578" lon="-1.26209">
        <ele>2.4</ele>
        <time>2020-06-15T12:15:47Z</time>
      </trkpt>
      <trkpt lat="49.58575" lon="-1.2621">
        <ele>2.4</ele>
        <time>2020-06-15T12:15:48Z</time>
      </trkpt>
      <trkpt lat="49.58571" lon="-1.2621">
        <ele>2.4</ele>
        <time>2020-06-15T12:15:49Z</time>
      </trkpt>
      <trkpt lat="49.58567" lon="-1.2621">
        <ele>2.4</ele>
        <time>2020-06-15T12:15:50Z</time>
      </trkpt>
      <trkpt lat="49.58564" lon="-1.26213">
        <ele>2.4</ele>
        <time>2020-06-15T12:15:51Z</time>
      </trkpt>
      <trkpt lat="49.58561" lon="-1.26216">
        <ele>2.4</ele>
        <time>2020-06-15T12:15:52Z</time>
      </trkpt>
      <trkpt lat="49.58557" lon="-1.26218">
        <ele>2.4</ele>
        <time>2020-06-15T12:15:53Z</time>
      </trkpt>
      <trkpt lat="49.58554" lon="-1.26219">
        <ele>2.4</ele>
        <time>2020-06-15T12:15:54Z</time>
      </trkpt>
      <trkpt lat="49.58551" lon="-1.2622">
        <ele>2.4</ele>
        <time>2020-06-15T12:15:55Z</time>
      </trkpt>
      <trkpt lat="49.58547" lon="-1.26221">
        <ele>2.4</ele>
        <time>2020-06-15T12:15:56Z</time>
      </trkpt>
      <trkpt lat="49.58541" lon="-1.2622">
        <ele>2.4</ele>
        <time>2020-06-15T12:15:57Z</time>
      </trkpt>
      <trkpt lat="49.58536" lon="-1.2622">
        <ele>2.5</ele>
        <time>2020-06-15T12:15:58Z</time>
      </trkpt>
      <trkpt lat="49.58532" lon="-1.26222">
        <ele>2.5</ele>
        <time>2020-06-15T12:15:59Z</time>
      </trkpt>
      <trkpt lat="49.58529" lon="-1.26223">
        <ele>2.5</ele>
        <time>2020-06-15T12:16:00Z</time>
      </trkpt>
      <trkpt lat="49.58525" lon="-1.26225">
        <ele>2.5</ele>
        <time>2020-06-15T12:16:01Z</time>
      </trkpt>
      <trkpt lat="49.58523" lon="-1.26227">
        <ele>2.7</ele>
        <time>2020-06-15T12:16:02Z</time>
      </trkpt>
      <trkpt lat="49.5852" lon="-1.26227">
        <ele>2.7</ele>
        <time>2020-06-15T12:16:03Z</time>
      </trkpt>
      <trkpt lat="49.58517" lon="-1.26229">
        <ele>2.8</ele>
        <time>2020-06-15T12:16:04Z</time>
      </trkpt>
      <trkpt lat="49.58515" lon="-1.2623">
        <ele>2.8</ele>
        <time>2020-06-15T12:16:05Z</time>
      </trkpt>
      <trkpt lat="49.58512" lon="-1.2623">
        <ele>2.8</ele>
        <time>2020-06-15T12:16:06Z</time>
      </trkpt>
      <trkpt lat="49.58509" lon="-1.2623">
        <ele>2.8</ele>
        <time>2020-06-15T12:16:07Z</time>
      </trkpt>
      <trkpt lat="49.58508" lon="-1.26229">
        <ele>2.8</ele>
        <time>2020-06-15T12:16:08Z</time>
      </trkpt>
      <trkpt lat="49.58506" lon="-1.26228">
        <ele>2.8</ele>
        <time>2020-06-15T12:16:09Z</time>
      </trkpt>
      <trkpt lat="49.58505" lon="-1.26227">
        <ele>2.8</ele>
        <time>2020-06-15T12:16:10Z</time>
      </trkpt>
      <trkpt lat="49.58503" lon="-1.26223">
        <ele>2.8</ele>
        <time>2020-06-15T12:16:11Z</time>
      </trkpt>
      <trkpt lat="49.58503" lon="-1.26222">
        <ele>2.8</ele>
        <time>2020-06-15T12:16:12Z</time>
      </trkpt>
      <trkpt lat="49.58502" lon="-1.26218">
        <ele>2.8</ele>
        <time>2020-06-15T12:16:13Z</time>
      </trkpt>
      <trkpt lat="49.58502" lon="-1.26213">
        <ele>2.8</ele>
        <time>2020-06-15T12:16:14Z</time>
      </trkpt>
      <trkpt lat="49.58502" lon="-1.26212">
        <ele>2.8</ele>
        <time>2020-06-15T12:16:15Z</time>
      </trkpt>
      <trkpt lat="49.58502" lon="-1.26207">
        <ele>2.7</ele>
        <time>2020-06-15T12:16:16Z</time>
      </trkpt>
      <trkpt lat="49.58502" lon="-1.26205">
        <ele>2.7</ele>
        <time>2020-06-15T12:16:17Z</time>
      </trkpt>
      <trkpt lat="49.58502" lon="-1.26201">
        <ele>2.7</ele>
        <time>2020-06-15T12:16:18Z</time>
      </trkpt>
      <trkpt lat="49.58503" lon="-1.26197">
        <ele>2.7</ele>
        <time>2020-06-15T12:16:19Z</time>
      </trkpt>
      <trkpt lat="49.58504" lon="-1.26191">
        <ele>2.7</ele>
        <time>2020-06-15T12:16:20Z</time>
      </trkpt>
      <trkpt lat="49.58505" lon="-1.26189">
        <ele>2.6</ele>
        <time>2020-06-15T12:16:21Z</time>
      </trkpt>
      <trkpt lat="49.58506" lon="-1.26184">
        <ele>2.6</ele>
        <time>2020-06-15T12:16:22Z</time>
      </trkpt>
      <trkpt lat="49.58507" lon="-1.26182">
        <ele>2.6</ele>
        <time>2020-06-15T12:16:23Z</time>
      </trkpt>
      <trkpt lat="49.58507" lon="-1.26177">
        <ele>2.6</ele>
        <time>2020-06-15T12:16:24Z</time>
      </trkpt>
      <trkpt lat="49.58508" lon="-1.26173">
        <ele>2.6</ele>
        <time>2020-06-15T12:16:25Z</time>
      </trkpt>
      <trkpt lat="49.58509" lon="-1.26168">
        <ele>2.6</ele>
        <time>2020-06-15T12:16:26Z</time>
      </trkpt>
      <trkpt lat="49.5851" lon="-1.26163">
        <ele>2.6</ele>
        <time>2020-06-15T12:16:27Z</time>
      </trkpt>
      <trkpt lat="49.58512" lon="-1.26158">
        <ele>2.6</ele>
        <time>2020-06-15T12:16:28Z</time>
      </trkpt>
      <trkpt lat="49.58513" lon="-1.26154">
        <ele>2.6</ele>
        <time>2020-06-15T12:16:29Z</time>
      </trkpt>
      <trkpt lat="49.58514" lon="-1.2615">
        <ele>2.6</ele>
        <time>2020-06-15T12:16:30Z</time>
      </trkpt>
      <trkpt lat="49.58514" lon="-1.26144">
        <ele>2.6</ele>
        <time>2020-06-15T12:16:31Z</time>
      </trkpt>
      <trkpt lat="49.58516" lon="-1.26138">
        <ele>2.6</ele>
        <time>2020-06-15T12:16:32Z</time>
      </trkpt>
      <trkpt lat="49.58517" lon="-1.26132">
        <ele>2.6</ele>
        <time>2020-06-15T12:16:33Z</time>
      </trkpt>
      <trkpt lat="49.58518" lon="-1.26127">
        <ele>2.5</ele>
        <time>2020-06-15T12:16:34Z</time>
      </trkpt>
      <trkpt lat="49.58519" lon="-1.26122">
        <ele>2.5</ele>
        <time>2020-06-15T12:16:35Z</time>
      </trkpt>
      <trkpt lat="49.58519" lon="-1.26121">
        <ele>2.5</ele>
        <time>2020-06-15T12:16:36Z</time>
      </trkpt>
      <trkpt lat="49.5852" lon="-1.26116">
        <ele>2.4</ele>
        <time>2020-06-15T12:16:37Z</time>
      </trkpt>
      <trkpt lat="49.5852" lon="-1.26114">
        <ele>2.4</ele>
        <time>2020-06-15T12:16:38Z</time>
      </trkpt>
      <trkpt lat="49.58521" lon="-1.2611">
        <ele>2.3</ele>
        <time>2020-06-15T12:16:39Z</time>
      </trkpt>
      <trkpt lat="49.58522" lon="-1.26108">
        <ele>2.3</ele>
        <time>2020-06-15T12:16:40Z</time>
      </trkpt>
      <trkpt lat="49.58523" lon="-1.26102">
        <ele>2.2</ele>
        <time>2020-06-15T12:16:41Z</time>
      </trkpt>
      <trkpt lat="49.58523" lon="-1.26099">
        <ele>2.2</ele>
        <time>2020-06-15T12:16:42Z</time>
      </trkpt>
      <trkpt lat="49.58524" lon="-1.26095">
        <ele>2.1</ele>
        <time>2020-06-15T12:16:43Z</time>
      </trkpt>
      <trkpt lat="49.58524" lon="-1.26093">
        <ele>2.1</ele>
        <time>2020-06-15T12:16:44Z</time>
      </trkpt>
      <trkpt lat="49.58526" lon="-1.26088">
        <ele>2</ele>
        <time>2020-06-15T12:16:45Z</time>
      </trkpt>
      <trkpt lat="49.58527" lon="-1.26087">
        <ele>1.9</ele>
        <time>2020-06-15T12:16:46Z</time>
      </trkpt>
      <trkpt lat="49.58529" lon="-1.26083">
        <ele>1.9</ele>
        <time>2020-06-15T12:16:47Z</time>
      </trkpt>
      <trkpt lat="49.5853" lon="-1.26079">
        <ele>1.8</ele>
        <time>2020-06-15T12:16:48Z</time>
      </trkpt>
      <trkpt lat="49.58531" lon="-1.26075">
        <ele>1.8</ele>
        <time>2020-06-15T12:16:49Z</time>
      </trkpt>
      <trkpt lat="49.58532" lon="-1.26071">
        <ele>1.8</ele>
        <time>2020-06-15T12:16:50Z</time>
      </trkpt>
      <trkpt lat="49.58533" lon="-1.26066">
        <ele>1.8</ele>
        <time>2020-06-15T12:16:51Z</time>
      </trkpt>
      <trkpt lat="49.58533" lon="-1.26061">
        <ele>1.8</ele>
        <time>2020-06-15T12:16:52Z</time>
      </trkpt>
      <trkpt lat="49.58534" lon="-1.26057">
        <ele>1.8</ele>
        <time>2020-06-15T12:16:53Z</time>
      </trkpt>
      <trkpt lat="49.58536" lon="-1.26053">
        <ele>1.8</ele>
        <time>2020-06-15T12:16:54Z</time>
      </trkpt>
      <trkpt lat="49.58537" lon="-1.26047">
        <ele>1.8</ele>
        <time>2020-06-15T12:16:55Z</time>
      </trkpt>
      <trkpt lat="49.58539" lon="-1.26042">
        <ele>1.8</ele>
        <time>2020-06-15T12:16:56Z</time>
      </trkpt>
      <trkpt lat="49.5854" lon="-1.26036">
        <ele>1.8</ele>
        <time>2020-06-15T12:16:57Z</time>
      </trkpt>
      <trkpt lat="49.58541" lon="-1.26032">
        <ele>1.7</ele>
        <time>2020-06-15T12:16:58Z</time>
      </trkpt>
      <trkpt lat="49.58543" lon="-1.26028">
        <ele>1.7</ele>
        <time>2020-06-15T12:16:59Z</time>
      </trkpt>
      <trkpt lat="49.58544" lon="-1.26023">
        <ele>1.7</ele>
        <time>2020-06-15T12:17:00Z</time>
      </trkpt>
      <trkpt lat="49.58546" lon="-1.26018">
        <ele>1.7</ele>
        <time>2020-06-15T12:17:01Z</time>
      </trkpt>
      <trkpt lat="49.58547" lon="-1.26014">
        <ele>1.7</ele>
        <time>2020-06-15T12:17:02Z</time>
      </trkpt>
      <trkpt lat="49.58549" lon="-1.26011">
        <ele>1.6</ele>
        <time>2020-06-15T12:17:03Z</time>
      </trkpt>
      <trkpt lat="49.58551" lon="-1.26006">
        <ele>1.6</ele>
        <time>2020-06-15T12:17:04Z</time>
      </trkpt>
      <trkpt lat="49.58554" lon="-1.26002">
        <ele>1.6</ele>
        <time>2020-06-15T12:17:05Z</time>
      </trkpt>
      <trkpt lat="49.58556" lon="-1.25997">
        <ele>1.5</ele>
        <time>2020-06-15T12:17:06Z</time>
      </trkpt>
      <trkpt lat="49.58557" lon="-1.25993">
        <ele>1.4</ele>
        <time>2020-06-15T12:17:07Z</time>
      </trkpt>
      <trkpt lat="49.58558" lon="-1.25988">
        <ele>1.4</ele>
        <time>2020-06-15T12:17:08Z</time>
      </trkpt>
      <trkpt lat="49.58559" lon="-1.25984">
        <ele>1.3</ele>
        <time>2020-06-15T12:17:09Z</time>
      </trkpt>
      <trkpt lat="49.58561" lon="-1.25979">
        <ele>1.3</ele>
        <time>2020-06-15T12:17:10Z</time>
      </trkpt>
      <trkpt lat="49.58562" lon="-1.25973">
        <ele>1.3</ele>
        <time>2020-06-15T12:17:11Z</time>
      </trkpt>
      <trkpt lat="49.58564" lon="-1.25967">
        <ele>1.2</ele>
        <time>2020-06-15T12:17:12Z</time>
      </trkpt>
      <trkpt lat="49.58565" lon="-1.2596">
        <ele>1.2</ele>
        <time>2020-06-15T12:17:13Z</time>
      </trkpt>
      <trkpt lat="49.58567" lon="-1.25952">
        <ele>1.2</ele>
        <time>2020-06-15T12:17:14Z</time>
      </trkpt>
      <trkpt lat="49.58569" lon="-1.25945">
        <ele>1.2</ele>
        <time>2020-06-15T12:17:15Z</time>
      </trkpt>
      <trkpt lat="49.58571" lon="-1.25938">
        <ele>1.3</ele>
        <time>2020-06-15T12:17:16Z</time>
      </trkpt>
      <trkpt lat="49.58574" lon="-1.25932">
        <ele>1.3</ele>
        <time>2020-06-15T12:17:17Z</time>
      </trkpt>
      <trkpt lat="49.58575" lon="-1.25927">
        <ele>1.2</ele>
        <time>2020-06-15T12:17:18Z</time>
      </trkpt>
      <trkpt lat="49.5858" lon="-1.25918">
        <ele>1.1</ele>
        <time>2020-06-15T12:17:20Z</time>
      </trkpt>
      <trkpt lat="49.58581" lon="-1.25914">
        <ele>1.1</ele>
        <time>2020-06-15T12:17:21Z</time>
      </trkpt>
      <trkpt lat="49.58582" lon="-1.25909">
        <ele>1</ele>
        <time>2020-06-15T12:17:22Z</time>
      </trkpt>
      <trkpt lat="49.58583" lon="-1.25904">
        <ele>1</ele>
        <time>2020-06-15T12:17:23Z</time>
      </trkpt>
      <trkpt lat="49.58583" lon="-1.25899">
        <ele>1</ele>
        <time>2020-06-15T12:17:24Z</time>
      </trkpt>
      <trkpt lat="49.58584" lon="-1.25895">
        <ele>0.9</ele>
        <time>2020-06-15T12:17:25Z</time>
      </trkpt>
      <trkpt lat="49.58585" lon="-1.25892">
        <ele>0.9</ele>
        <time>2020-06-15T12:17:26Z</time>
      </trkpt>
      <trkpt lat="49.58587" lon="-1.25886">
        <ele>0.9</ele>
        <time>2020-06-15T12:17:27Z</time>
      </trkpt>
      <trkpt lat="49.58587" lon="-1.25884">
        <ele>0.9</ele>
        <time>2020-06-15T12:17:28Z</time>
      </trkpt>
      <trkpt lat="49.58589" lon="-1.25879">
        <ele>0.9</ele>
        <time>2020-06-15T12:17:29Z</time>
      </trkpt>
      <trkpt lat="49.5859" lon="-1.25873">
        <ele>0.8</ele>
        <time>2020-06-15T12:17:30Z</time>
      </trkpt>
      <trkpt lat="49.58591" lon="-1.25868">
        <ele>0.8</ele>
        <time>2020-06-15T12:17:31Z</time>
      </trkpt>
      <trkpt lat="49.58592" lon="-1.25864">
        <ele>0.7</ele>
        <time>2020-06-15T12:17:32Z</time>
      </trkpt>
      <trkpt lat="49.58594" lon="-1.2586">
        <ele>0.7</ele>
        <time>2020-06-15T12:17:33Z</time>
      </trkpt>
      <trkpt lat="49.58595" lon="-1.25855">
        <ele>0.7</ele>
        <time>2020-06-15T12:17:34Z</time>
      </trkpt>
      <trkpt lat="49.58596" lon="-1.25853">
        <ele>0.7</ele>
        <time>2020-06-15T12:17:35Z</time>
      </trkpt>
      <trkpt lat="49.58596" lon="-1.25851">
        <ele>0.7</ele>
        <time>2020-06-15T12:17:36Z</time>
      </trkpt>
      <trkpt lat="49.58597" lon="-1.25849">
        <ele>0.7</ele>
        <time>2020-06-15T12:17:37Z</time>
      </trkpt>
      <trkpt lat="49.58599" lon="-1.25844">
        <ele>0.7</ele>
        <time>2020-06-15T12:17:38Z</time>
      </trkpt>
      <trkpt lat="49.58599" lon="-1.25842">
        <ele>0.7</ele>
        <time>2020-06-15T12:17:39Z</time>
      </trkpt>
      <trkpt lat="49.58601" lon="-1.25838">
        <ele>0.7</ele>
        <time>2020-06-15T12:17:40Z</time>
      </trkpt>
      <trkpt lat="49.58602" lon="-1.25833">
        <ele>0.7</ele>
        <time>2020-06-15T12:17:41Z</time>
      </trkpt>
      <trkpt lat="49.58603" lon="-1.25832">
        <ele>0.7</ele>
        <time>2020-06-15T12:17:42Z</time>
      </trkpt>
      <trkpt lat="49.58604" lon="-1.25829">
        <ele>0.7</ele>
        <time>2020-06-15T12:17:43Z</time>
      </trkpt>
      <trkpt lat="49.58604" lon="-1.25828">
        <ele>0.7</ele>
        <time>2020-06-15T12:17:44Z</time>
      </trkpt>
      <trkpt lat="49.58604" lon="-1.25826">
        <ele>0.7</ele>
        <time>2020-06-15T12:17:45Z</time>
      </trkpt>
      <trkpt lat="49.58604" lon="-1.25825">
        <ele>0.7</ele>
        <time>2020-06-15T12:17:46Z</time>
      </trkpt>
      <trkpt lat="49.58605" lon="-1.25824">
        <ele>0.6</ele>
        <time>2020-06-15T12:17:47Z</time>
      </trkpt>
      <trkpt lat="49.58605" lon="-1.25823">
        <ele>0.6</ele>
        <time>2020-06-15T12:17:48Z</time>
      </trkpt>
      <trkpt lat="49.58605" lon="-1.25822">
        <ele>0.6</ele>
        <time>2020-06-15T12:17:49Z</time>
      </trkpt>
      <trkpt lat="49.58605" lon="-1.25821">
        <ele>0.6</ele>
        <time>2020-06-15T12:17:50Z</time>
      </trkpt>
      <trkpt lat="49.58605" lon="-1.2582">
        <ele>0.6</ele>
        <time>2020-06-15T12:17:51Z</time>
      </trkpt>
      <trkpt lat="49.58605" lon="-1.25819">
        <ele>0.6</ele>
        <time>2020-06-15T12:17:52Z</time>
      </trkpt>
      <trkpt lat="49.58605" lon="-1.25818">
        <ele>0.6</ele>
        <time>2020-06-15T12:17:53Z</time>
      </trkpt>
      <trkpt lat="49.58605" lon="-1.25817">
        <ele>0.6</ele>
        <time>2020-06-15T12:17:54Z</time>
      </trkpt>
      <trkpt lat="49.58605" lon="-1.25817">
        <ele>0.6</ele>
        <time>2020-06-15T12:17:55Z</time>
      </trkpt>
      <trkpt lat="49.58605" lon="-1.25816">
        <ele>0.6</ele>
        <time>2020-06-15T12:17:56Z</time>
      </trkpt>
      <trkpt lat="49.58605" lon="-1.25815">
        <ele>0.6</ele>
        <time>2020-06-15T12:17:57Z</time>
      </trkpt>
      <trkpt lat="49.58605" lon="-1.25814">
        <ele>0.6</ele>
        <time>2020-06-15T12:20:17Z</time>
      </trkpt>
      <trkpt lat="49.58605" lon="-1.25813">
        <ele>0.6</ele>
        <time>2020-06-15T12:20:18Z</time>
      </trkpt>
      <trkpt lat="49.58605" lon="-1.25812">
        <ele>0.5</ele>
        <time>2020-06-15T12:20:19Z</time>
      </trkpt>
      <trkpt lat="49.58607" lon="-1.25809">
        <ele>0.5</ele>
        <time>2020-06-15T12:20:20Z</time>
      </trkpt>
      <trkpt lat="49.58608" lon="-1.25808">
        <ele>0.5</ele>
        <time>2020-06-15T12:20:21Z</time>
      </trkpt>
      <trkpt lat="49.58609" lon="-1.25803">
        <ele>0.4</ele>
        <time>2020-06-15T12:20:22Z</time>
      </trkpt>
      <trkpt lat="49.5861" lon="-1.25798">
        <ele>0.3</ele>
        <time>2020-06-15T12:20:23Z</time>
      </trkpt>
      <trkpt lat="49.58612" lon="-1.25794">
        <ele>0.2</ele>
        <time>2020-06-15T12:20:24Z</time>
      </trkpt>
      <trkpt lat="49.58613" lon="-1.25789">
        <ele>0.1</ele>
        <time>2020-06-15T12:20:25Z</time>
      </trkpt>
      <trkpt lat="49.58615" lon="-1.25784">
        <ele>6</ele>
        <time>2020-06-15T12:20:26Z</time>
      </trkpt>
      <trkpt lat="49.58615" lon="-1.25782">
        <ele>6</ele>
        <time>2020-06-15T12:20:27Z</time>
      </trkpt>
      <trkpt lat="49.58617" lon="-1.25777">
        <ele>-0.1</ele>
        <time>2020-06-15T12:20:28Z</time>
      </trkpt>
      <trkpt lat="49.58617" lon="-1.25776">
        <ele>-0.1</ele>
        <time>2020-06-15T12:20:29Z</time>
      </trkpt>
      <trkpt lat="49.58618" lon="-1.25771">
        <ele>-0.2</ele>
        <time>2020-06-15T12:20:30Z</time>
      </trkpt>
      <trkpt lat="49.58619" lon="-1.25769">
        <ele>-0.2</ele>
        <time>2020-06-15T12:20:31Z</time>
      </trkpt>
      <trkpt lat="49.58621" lon="-1.25764">
        <ele>-0.2</ele>
        <time>2020-06-15T12:20:32Z</time>
      </trkpt>
      <trkpt lat="49.58621" lon="-1.25763">
        <ele>-0.2</ele>
        <time>2020-06-15T12:20:33Z</time>
      </trkpt>
      <trkpt lat="49.58623" lon="-1.25758">
        <ele>-0.2</ele>
        <time>2020-06-15T12:20:34Z</time>
      </trkpt>
      <trkpt lat="49.58623" lon="-1.25757">
        <ele>-0.2</ele>
        <time>2020-06-15T12:20:35Z</time>
      </trkpt>
      <trkpt lat="49.58625" lon="-1.25752">
        <ele>-0.2</ele>
        <time>2020-06-15T12:20:36Z</time>
      </trkpt>
      <trkpt lat="49.58625" lon="-1.25751">
        <ele>-0.2</ele>
        <time>2020-06-15T12:20:37Z</time>
      </trkpt>
      <trkpt lat="49.58628" lon="-1.25746">
        <ele>-0.2</ele>
        <time>2020-06-15T12:20:38Z</time>
      </trkpt>
      <trkpt lat="49.58628" lon="-1.25744">
        <ele>-0.2</ele>
        <time>2020-06-15T12:20:39Z</time>
      </trkpt>
      <trkpt lat="49.58629" lon="-1.25739">
        <ele>-0.2</ele>
        <time>2020-06-15T12:20:40Z</time>
      </trkpt>
      <trkpt lat="49.5863" lon="-1.25738">
        <ele>-0.2</ele>
        <time>2020-06-15T12:20:41Z</time>
      </trkpt>
      <trkpt lat="49.58631" lon="-1.25733">
        <ele>-0.2</ele>
        <time>2020-06-15T12:20:42Z</time>
      </trkpt>
      <trkpt lat="49.58631" lon="-1.25731">
        <ele>-0.2</ele>
        <time>2020-06-15T12:20:43Z</time>
      </trkpt>
      <trkpt lat="49.58632" lon="-1.25729">
        <ele>-0.2</ele>
        <time>2020-06-15T12:20:44Z</time>
      </trkpt>
      <trkpt lat="49.58632" lon="-1.25727">
        <ele>-0.2</ele>
        <time>2020-06-15T12:20:45Z</time>
      </trkpt>
      <trkpt lat="49.58633" lon="-1.25724">
        <ele>-0.1</ele>
        <time>2020-06-15T12:20:46Z</time>
      </trkpt>
      <trkpt lat="49.58633" lon="-1.25722">
        <ele>-0.1</ele>
        <time>2020-06-15T12:20:47Z</time>
      </trkpt>
      <trkpt lat="49.58634" lon="-1.25721">
        <ele>-0.1</ele>
        <time>2020-06-15T12:20:48Z</time>
      </trkpt>
      <trkpt lat="49.58634" lon="-1.25721">
        <ele>-0.1</ele>
        <time>2020-06-15T12:20:49Z</time>
      </trkpt>
      <trkpt lat="49.58634" lon="-1.25719">
        <ele>-0.1</ele>
        <time>2020-06-15T12:20:50Z</time>
      </trkpt>
      <trkpt lat="49.58634" lon="-1.25718">
        <ele>-0.1</ele>
        <time>2020-06-15T12:20:51Z</time>
      </trkpt>
      <trkpt lat="49.58635" lon="-1.25715">
        <time>2020-06-15T12:20:52Z</time>
      </trkpt>
      <trkpt lat="49.58636" lon="-1.25713">
        <time>2020-06-15T12:20:53Z</time>
      </trkpt>
      <trkpt lat="49.58637" lon="-1.25711">
        <time>2020-06-15T12:20:54Z</time>
      </trkpt>
      <trkpt lat="49.58637" lon="-1.25709">
        <time>2020-06-15T12:20:55Z</time>
      </trkpt>
      <trkpt lat="49.58637" lon="-1.25708">
        <time>2020-06-15T12:20:56Z</time>
      </trkpt>
      <trkpt lat="49.58638" lon="-1.25706">
        <time>2020-06-15T12:20:57Z</time>
      </trkpt>
      <trkpt lat="49.5864" lon="-1.25704">
        <time>2020-06-15T12:20:58Z</time>
      </trkpt>
      <trkpt lat="49.58641" lon="-1.25703">
        <ele>0.1</ele>
        <time>2020-06-15T12:20:59Z</time>
      </trkpt>
      <trkpt lat="49.58642" lon="-1.25701">
        <ele>0.1</ele>
        <time>2020-06-15T12:21:00Z</time>
      </trkpt>
      <trkpt lat="49.58643" lon="-1.25699">
        <ele>0.1</ele>
        <time>2020-06-15T12:21:01Z</time>
      </trkpt>
      <trkpt lat="49.58643" lon="-1.25699">
        <ele>0.1</ele>
        <time>2020-06-15T12:21:02Z</time>
      </trkpt>
      <trkpt lat="49.58643" lon="-1.25698">
        <ele>0.1</ele>
        <time>2020-06-15T12:21:03Z</time>
      </trkpt>
      <trkpt lat="49.58643" lon="-1.25698">
        <ele>0.1</ele>
        <time>2020-06-15T12:21:04Z</time>
      </trkpt>
      <trkpt lat="49.58643" lon="-1.25698">
        <ele>0.1</ele>
        <time>2020-06-15T12:21:05Z</time>
      </trkpt>
      <trkpt lat="49.58643" lon="-1.25698">
        <ele>0.1</ele>
        <time>2020-06-15T12:21:06Z</time>
      </trkpt>
      <trkpt lat="49.58643" lon="-1.25698">
        <ele>0.1</ele>
        <time>2020-06-15T12:21:07Z</time>
      </trkpt>
      <trkpt lat="49.58643" lon="-1.25698">
        <ele>0.1</ele>
        <time>2020-06-15T12:21:08Z</time>
      </trkpt>
      <trkpt lat="49.58643" lon="-1.25698">
        <ele>0.1</ele>
        <time>2020-06-15T12:21:09Z</time>
      </trkpt>
      <trkpt lat="49.58643" lon="-1.25698">
        <ele>0.1</ele>
        <time>2020-06-15T12:21:10Z</time>
      </trkpt>
      <trkpt lat="49.58643" lon="-1.25698">
        <ele>0.1</ele>
        <time>2020-06-15T12:21:11Z</time>
      </trkpt>
      <trkpt lat="49.58643" lon="-1.25698">
        <ele>0.1</ele>
        <time>2020-06-15T12:21:12Z</time>
      </trkpt>
      <trkpt lat="49.58643" lon="-1.25698">
        <ele>0.1</ele>
        <time>2020-06-15T12:21:13Z</time>
      </trkpt>
      <trkpt lat="49.58643" lon="-1.25698">
        <ele>0.1</ele>
        <time>2020-06-15T12:21:14Z</time>
      </trkpt>
      <trkpt lat="49.58644" lon="-1.25687">
        <ele>0.1</ele>
        <time>2020-06-15T12:21:40Z</time>
      </trkpt>
      <trkpt lat="49.58645" lon="-1.25686">
        <ele>0.1</ele>
        <time>2020-06-15T12:21:41Z</time>
      </trkpt>
      <trkpt lat="49.58645" lon="-1.25686">
        <ele>0.1</ele>
        <time>2020-06-15T12:21:42Z</time>
      </trkpt>
      <trkpt lat="49.58645" lon="-1.25684">
        <ele>0.1</ele>
        <time>2020-06-15T12:21:43Z</time>
      </trkpt>
      <trkpt lat="49.58645" lon="-1.25684">
        <ele>0.1</ele>
        <time>2020-06-15T12:21:44Z</time>
      </trkpt>
      <trkpt lat="49.58646" lon="-1.25684">
        <ele>0.1</ele>
        <time>2020-06-15T12:21:45Z</time>
      </trkpt>
      <trkpt lat="49.58646" lon="-1.25683">
        <ele>0.1</ele>
        <time>2020-06-15T12:21:46Z</time>
      </trkpt>
      <trkpt lat="49.58646" lon="-1.25683">
        <ele>0.1</ele>
        <time>2020-06-15T12:21:47Z</time>
      </trkpt>
      <trkpt lat="49.58647" lon="-1.25683">
        <ele>0.1</ele>
        <time>2020-06-15T12:21:48Z</time>
      </trkpt>
      <trkpt lat="49.58647" lon="-1.25683">
        <ele>0.1</ele>
        <time>2020-06-15T12:21:49Z</time>
      </trkpt>
      <trkpt lat="49.58647" lon="-1.25683">
        <ele>0.1</ele>
        <time>2020-06-15T12:21:50Z</time>
      </trkpt>
      <trkpt lat="49.58648" lon="-1.25685">
        <ele>0.1</ele>
        <time>2020-06-15T12:21:51Z</time>
      </trkpt>
      <trkpt lat="49.58649" lon="-1.25685">
        <ele>0.1</ele>
        <time>2020-06-15T12:21:52Z</time>
      </trkpt>
      <trkpt lat="49.58649" lon="-1.25685">
        <ele>0.1</ele>
        <time>2020-06-15T12:21:53Z</time>
      </trkpt>
      <trkpt lat="49.58649" lon="-1.25685">
        <ele>0.1</ele>
        <time>2020-06-15T12:21:54Z</time>
      </trkpt>
      <trkpt lat="49.58649" lon="-1.25685">
        <ele>0.1</ele>
        <time>2020-06-15T12:21:55Z</time>
      </trkpt>
      <trkpt lat="49.58648" lon="-1.25685">
        <ele>0.1</ele>
        <time>2020-06-15T12:21:56Z</time>
      </trkpt>
      <trkpt lat="49.58647" lon="-1.25685">
        <ele>0.1</ele>
        <time>2020-06-15T12:21:57Z</time>
      </trkpt>
      <trkpt lat="49.58646" lon="-1.25685">
        <time>2020-06-15T12:21:58Z</time>
      </trkpt>
      <trkpt lat="49.58646" lon="-1.25686">
        <time>2020-06-15T12:21:59Z</time>
      </trkpt>
      <trkpt lat="49.58646" lon="-1.25687">
        <time>2020-06-15T12:22:00Z</time>
      </trkpt>
      <trkpt lat="49.58646" lon="-1.25688">
        <time>2020-06-15T12:22:01Z</time>
      </trkpt>
      <trkpt lat="49.58646" lon="-1.25688">
        <time>2020-06-15T12:22:02Z</time>
      </trkpt>
      <trkpt lat="49.58646" lon="-1.25689">
        <time>2020-06-15T12:22:03Z</time>
      </trkpt>
      <trkpt lat="49.58645" lon="-1.2569">
        <time>2020-06-15T12:22:04Z</time>
      </trkpt>
      <trkpt lat="49.58644" lon="-1.25688">
        <time>2020-06-15T12:22:05Z</time>
      </trkpt>
      <trkpt lat="49.58644" lon="-1.25687">
        <time>2020-06-15T12:22:06Z</time>
      </trkpt>
      <trkpt lat="49.58643" lon="-1.25687">
        <time>2020-06-15T12:22:07Z</time>
      </trkpt>
      <trkpt lat="49.58643" lon="-1.25687">
        <time>2020-06-15T12:22:08Z</time>
      </trkpt>
      <trkpt lat="49.58642" lon="-1.25686">
        <time>2020-06-15T12:22:09Z</time>
      </trkpt>
      <trkpt lat="49.58643" lon="-1.25687">
        <time>2020-06-15T12:22:10Z</time>
      </trkpt>
      <trkpt lat="49.58643" lon="-1.25687">
        <time>2020-06-15T12:22:11Z</time>
      </trkpt>
      <trkpt lat="49.58643" lon="-1.25687">
        <time>2020-06-15T12:22:12Z</time>
      </trkpt>
      <trkpt lat="49.58643" lon="-1.25688">
        <time>2020-06-15T12:22:13Z</time>
      </trkpt>
      <trkpt lat="49.58644" lon="-1.25688">
        <time>2020-06-15T12:22:14Z</time>
      </trkpt>
      <trkpt lat="49.58644" lon="-1.25688">
        <ele>-0.1</ele>
        <time>2020-06-15T12:30:53Z</time>
      </trkpt>
      <trkpt lat="49.58644" lon="-1.25688">
        <ele>-0.1</ele>
        <time>2020-06-15T12:30:54Z</time>
      </trkpt>
      <trkpt lat="49.58644" lon="-1.25689">
        <ele>-0.1</ele>
        <time>2020-06-15T12:30:55Z</time>
      </trkpt>
      <trkpt lat="49.58645" lon="-1.25689">
        <ele>-0.1</ele>
        <time>2020-06-15T12:30:56Z</time>
      </trkpt>
      <trkpt lat="49.58645" lon="-1.25689">
        <ele>-0.1</ele>
        <time>2020-06-15T12:30:57Z</time>
      </trkpt>
      <trkpt lat="49.58645" lon="-1.2569">
        <ele>-0.1</ele>
        <time>2020-06-15T12:30:58Z</time>
      </trkpt>
      <trkpt lat="49.58645" lon="-1.2569">
        <ele>-0.1</ele>
        <time>2020-06-15T12:30:59Z</time>
      </trkpt>
      <trkpt lat="49.58646" lon="-1.2569">
        <ele>-0.1</ele>
        <time>2020-06-15T12:31:00Z</time>
      </trkpt>
      <trkpt lat="49.58646" lon="-1.25691">
        <ele>-0.1</ele>
        <time>2020-06-15T12:31:01Z</time>
      </trkpt>
      <trkpt lat="49.58646" lon="-1.25691">
        <ele>-0.1</ele>
        <time>2020-06-15T12:31:02Z</time>
      </trkpt>
      <trkpt lat="49.58646" lon="-1.25691">
        <ele>-0.1</ele>
        <time>2020-06-15T12:31:03Z</time>
      </trkpt>
      <trkpt lat="49.58647" lon="-1.25691">
        <ele>-0.1</ele>
        <time>2020-06-15T12:31:04Z</time>
      </trkpt>
      <trkpt lat="49.58647" lon="-1.25692">
        <ele>-0.1</ele>
        <time>2020-06-15T12:31:05Z</time>
      </trkpt>
      <trkpt lat="49.58647" lon="-1.25692">
        <ele>-0.1</ele>
        <time>2020-06-15T12:31:06Z</time>
      </trkpt>
      <trkpt lat="49.58647" lon="-1.25691">
        <ele>-0.1</ele>
        <time>2020-06-15T12:31:07Z</time>
      </trkpt>
      <trkpt lat="49.58647" lon="-1.25692">
        <ele>-0.1</ele>
        <time>2020-06-15T12:31:08Z</time>
      </trkpt>
      <trkpt lat="49.58646" lon="-1.25694">
        <ele>-0.1</ele>
        <time>2020-06-15T12:31:09Z</time>
      </trkpt>
      <trkpt lat="49.58646" lon="-1.25696">
        <ele>-0.2</ele>
        <time>2020-06-15T12:31:10Z</time>
      </trkpt>
      <trkpt lat="49.58646" lon="-1.25696">
        <ele>-0.2</ele>
        <time>2020-06-15T12:31:11Z</time>
      </trkpt>
      <trkpt lat="49.58646" lon="-1.25697">
        <ele>-0.2</ele>
        <time>2020-06-15T12:31:12Z</time>
      </trkpt>
      <trkpt lat="49.58646" lon="-1.25697">
        <ele>-0.2</ele>
        <time>2020-06-15T12:31:13Z</time>
      </trkpt>
      <trkpt lat="49.58647" lon="-1.25699">
        <ele>-0.2</ele>
        <time>2020-06-15T12:31:14Z</time>
      </trkpt>
      <trkpt lat="49.58647" lon="-1.257">
        <ele>-0.2</ele>
        <time>2020-06-15T12:31:15Z</time>
      </trkpt>
      <trkpt lat="49.58647" lon="-1.257">
        <ele>-0.2</ele>
        <time>2020-06-15T12:31:16Z</time>
      </trkpt>
      <trkpt lat="49.58646" lon="-1.25701">
        <ele>-0.2</ele>
        <time>2020-06-15T12:31:17Z</time>
      </trkpt>
      <trkpt lat="49.58645" lon="-1.25701">
        <ele>-0.2</ele>
        <time>2020-06-15T12:31:18Z</time>
      </trkpt>
      <trkpt lat="49.58644" lon="-1.25701">
        <ele>-0.2</ele>
        <time>2020-06-15T12:31:19Z</time>
      </trkpt>
      <trkpt lat="49.58643" lon="-1.25701">
        <ele>-0.2</ele>
        <time>2020-06-15T12:31:20Z</time>
      </trkpt>
      <trkpt lat="49.58642" lon="-1.25702">
        <ele>-0.2</ele>
        <time>2020-06-15T12:31:21Z</time>
      </trkpt>
      <trkpt lat="49.58641" lon="-1.25702">
        <ele>-0.2</ele>
        <time>2020-06-15T12:31:22Z</time>
      </trkpt>
      <trkpt lat="49.5864" lon="-1.25702">
        <ele>-0.2</ele>
        <time>2020-06-15T12:31:23Z</time>
      </trkpt>
      <trkpt lat="49.58639" lon="-1.25702">
        <ele>-0.2</ele>
        <time>2020-06-15T12:31:24Z</time>
      </trkpt>
      <trkpt lat="49.58638" lon="-1.25702">
        <ele>-0.2</ele>
        <time>2020-06-15T12:31:25Z</time>
      </trkpt>
      <trkpt lat="49.58637" lon="-1.25703">
        <ele>-0.2</ele>
        <time>2020-06-15T12:31:26Z</time>
      </trkpt>
      <trkpt lat="49.58636" lon="-1.25703">
        <ele>-0.2</ele>
        <time>2020-06-15T12:31:27Z</time>
      </trkpt>
      <trkpt lat="49.58635" lon="-1.25703">
        <ele>-0.2</ele>
        <time>2020-06-15T12:31:28Z</time>
      </trkpt>
      <trkpt lat="49.58634" lon="-1.25703">
        <ele>-0.2</ele>
        <time>2020-06-15T12:33:11Z</time>
      </trkpt>
      <trkpt lat="49.58633" lon="-1.25704">
        <ele>-0.2</ele>
        <time>2020-06-15T12:33:12Z</time>
      </trkpt>
      <trkpt lat="49.58632" lon="-1.25704">
        <ele>-0.2</ele>
        <time>2020-06-15T12:33:13Z</time>
      </trkpt>
      <trkpt lat="49.58632" lon="-1.25705">
        <ele>-0.2</ele>
        <time>2020-06-15T12:33:14Z</time>
      </trkpt>
      <trkpt lat="49.58632" lon="-1.25705">
        <ele>-0.2</ele>
        <time>2020-06-15T12:33:15Z</time>
      </trkpt>
      <trkpt lat="49.58632" lon="-1.25706">
        <ele>-0.2</ele>
        <time>2020-06-15T12:33:16Z</time>
      </trkpt>
      <trkpt lat="49.58632" lon="-1.25707">
        <ele>-0.2</ele>
        <time>2020-06-15T12:33:17Z</time>
      </trkpt>
      <trkpt lat="49.58631" lon="-1.25707">
        <ele>-0.2</ele>
        <time>2020-06-15T12:33:18Z</time>
      </trkpt>
      <trkpt lat="49.58631" lon="-1.25708">
        <ele>-0.2</ele>
        <time>2020-06-15T12:33:19Z</time>
      </trkpt>
      <trkpt lat="49.58631" lon="-1.25709">
        <ele>-0.2</ele>
        <time>2020-06-15T12:33:20Z</time>
      </trkpt>
      <trkpt lat="49.58631" lon="-1.2571">
        <ele>-0.2</ele>
        <time>2020-06-15T12:33:21Z</time>
      </trkpt>
      <trkpt lat="49.58631" lon="-1.25711">
        <ele>-0.2</ele>
        <time>2020-06-15T12:33:22Z</time>
      </trkpt>
      <trkpt lat="49.58631" lon="-1.25712">
        <ele>-0.2</ele>
        <time>2020-06-15T12:33:23Z</time>
      </trkpt>
      <trkpt lat="49.58631" lon="-1.25712">
        <ele>-0.2</ele>
        <time>2020-06-15T12:33:24Z</time>
      </trkpt>
      <trkpt lat="49.58631" lon="-1.25711">
        <ele>-0.2</ele>
        <time>2020-06-15T12:33:25Z</time>
      </trkpt>
      <trkpt lat="49.5863" lon="-1.25711">
        <ele>-0.2</ele>
        <time>2020-06-15T12:33:26Z</time>
      </trkpt>
      <trkpt lat="49.5863" lon="-1.2571">
        <ele>-0.2</ele>
        <time>2020-06-15T12:33:27Z</time>
      </trkpt>
      <trkpt lat="49.58631" lon="-1.25709">
        <ele>-0.2</ele>
        <time>2020-06-15T12:33:28Z</time>
      </trkpt>
      <trkpt lat="49.5863" lon="-1.25709">
        <ele>-0.2</ele>
        <time>2020-06-15T12:33:29Z</time>
      </trkpt>
      <trkpt lat="49.5863" lon="-1.25708">
        <ele>-0.2</ele>
        <time>2020-06-15T12:33:30Z</time>
      </trkpt>
      <trkpt lat="49.5863" lon="-1.25709">
        <ele>-0.2</ele>
        <time>2020-06-15T12:33:31Z</time>
      </trkpt>
      <trkpt lat="49.5863" lon="-1.25709">
        <ele>-0.2</ele>
        <time>2020-06-15T12:33:32Z</time>
      </trkpt>
      <trkpt lat="49.5863" lon="-1.25709">
        <ele>-0.2</ele>
        <time>2020-06-15T12:33:33Z</time>
      </trkpt>
      <trkpt lat="49.5863" lon="-1.25709">
        <ele>-0.2</ele>
        <time>2020-06-15T12:33:34Z</time>
      </trkpt>
      <trkpt lat="49.58623" lon="-1.2572">
        <ele>-0.1</ele>
        <time>2020-06-15T12:35:24Z</time>
      </trkpt>
      <trkpt lat="49.58623" lon="-1.2572">
        <ele>-0.1</ele>
        <time>2020-06-15T12:35:25Z</time>
      </trkpt>
      <trkpt lat="49.58623" lon="-1.2572">
        <ele>-0.1</ele>
        <time>2020-06-15T12:35:26Z</time>
      </trkpt>
      <trkpt lat="49.58623" lon="-1.2572">
        <ele>-0.1</ele>
        <time>2020-06-15T12:35:27Z</time>
      </trkpt>
      <trkpt lat="49.58624" lon="-1.25719">
        <ele>-0.1</ele>
        <time>2020-06-15T12:35:28Z</time>
      </trkpt>
      <trkpt lat="49.58624" lon="-1.25719">
        <ele>-0.1</ele>
        <time>2020-06-15T12:35:29Z</time>
      </trkpt>
      <trkpt lat="49.58624" lon="-1.2572">
        <ele>-0.1</ele>
        <time>2020-06-15T12:35:30Z</time>
      </trkpt>
      <trkpt lat="49.58624" lon="-1.25721">
        <ele>-0.1</ele>
        <time>2020-06-15T12:35:31Z</time>
      </trkpt>
      <trkpt lat="49.58624" lon="-1.25721">
        <ele>-0.1</ele>
        <time>2020-06-15T12:35:32Z</time>
      </trkpt>
      <trkpt lat="49.58624" lon="-1.25721">
        <ele>-0.1</ele>
        <time>2020-06-15T12:35:33Z</time>
      </trkpt>
      <trkpt lat="49.58624" lon="-1.25722">
        <ele>-0.1</ele>
        <time>2020-06-15T12:35:34Z</time>
      </trkpt>
      <trkpt lat="49.58624" lon="-1.25723">
        <ele>-0.1</ele>
        <time>2020-06-15T12:35:35Z</time>
      </trkpt>
      <trkpt lat="49.58623" lon="-1.25725">
        <ele>-0.1</ele>
        <time>2020-06-15T12:35:36Z</time>
      </trkpt>
      <trkpt lat="49.58622" lon="-1.25726">
        <time>2020-06-15T12:35:37Z</time>
      </trkpt>
      <trkpt lat="49.58621" lon="-1.25727">
        <time>2020-06-15T12:35:38Z</time>
      </trkpt>
      <trkpt lat="49.58621" lon="-1.25729">
        <time>2020-06-15T12:35:39Z</time>
      </trkpt>
      <trkpt lat="49.5862" lon="-1.25731">
        <time>2020-06-15T12:35:40Z</time>
      </trkpt>
      <trkpt lat="49.5862" lon="-1.25732">
        <ele>0.1</ele>
        <time>2020-06-15T12:35:41Z</time>
      </trkpt>
      <trkpt lat="49.58619" lon="-1.25733">
        <ele>0.1</ele>
        <time>2020-06-15T12:35:42Z</time>
      </trkpt>
      <trkpt lat="49.58619" lon="-1.25735">
        <ele>0.1</ele>
        <time>2020-06-15T12:35:43Z</time>
      </trkpt>
      <trkpt lat="49.58619" lon="-1.25735">
        <ele>0.1</ele>
        <time>2020-06-15T12:35:44Z</time>
      </trkpt>
      <trkpt lat="49.58618" lon="-1.25736">
        <ele>0.1</ele>
        <time>2020-06-15T12:35:45Z</time>
      </trkpt>
      <trkpt lat="49.58618" lon="-1.25736">
        <ele>0.2</ele>
        <time>2020-06-15T12:35:46Z</time>
      </trkpt>
      <trkpt lat="49.58618" lon="-1.25736">
        <ele>0.2</ele>
        <time>2020-06-15T12:35:47Z</time>
      </trkpt>
      <trkpt lat="49.58617" lon="-1.25737">
        <ele>0.2</ele>
        <time>2020-06-15T12:35:48Z</time>
      </trkpt>
      <trkpt lat="49.58617" lon="-1.25737">
        <ele>0.2</ele>
        <time>2020-06-15T12:35:49Z</time>
      </trkpt>
      <trkpt lat="49.58617" lon="-1.25737">
        <ele>0.2</ele>
        <time>2020-06-15T12:35:50Z</time>
      </trkpt>
      <trkpt lat="49.58618" lon="-1.25738">
        <ele>0.2</ele>
        <time>2020-06-15T12:35:51Z</time>
      </trkpt>
      <trkpt lat="49.58618" lon="-1.25738">
        <ele>0.2</ele>
        <time>2020-06-15T12:35:52Z</time>
      </trkpt>
      <trkpt lat="49.58618" lon="-1.25738">
        <ele>0.2</ele>
        <time>2020-06-15T12:35:53Z</time>
      </trkpt>
      <trkpt lat="49.58618" lon="-1.25739">
        <ele>0.2</ele>
        <time>2020-06-15T12:35:54Z</time>
      </trkpt>
      <trkpt lat="49.58618" lon="-1.25739">
        <ele>0.2</ele>
        <time>2020-06-15T12:35:55Z</time>
      </trkpt>
      <trkpt lat="49.58618" lon="-1.25739">
        <ele>0.2</ele>
        <time>2020-06-15T12:35:56Z</time>
      </trkpt>
      <trkpt lat="49.58618" lon="-1.25739">
        <ele>0.2</ele>
        <time>2020-06-15T12:35:57Z</time>
      </trkpt>
      <trkpt lat="49.58617" lon="-1.25746">
        <ele>0.3</ele>
        <time>2020-06-15T12:36:06Z</time>
      </trkpt>
      <trkpt lat="49.58616" lon="-1.25748">
        <ele>0.4</ele>
        <time>2020-06-15T12:36:07Z</time>
      </trkpt>
      <trkpt lat="49.58616" lon="-1.2575">
        <ele>0.4</ele>
        <time>2020-06-15T12:36:08Z</time>
      </trkpt>
      <trkpt lat="49.58615" lon="-1.25751">
        <ele>0.4</ele>
        <time>2020-06-15T12:36:09Z</time>
      </trkpt>
      <trkpt lat="49.58614" lon="-1.25753">
        <ele>0.4</ele>
        <time>2020-06-15T12:36:10Z</time>
      </trkpt>
      <trkpt lat="49.58614" lon="-1.25755">
        <ele>0.5</ele>
        <time>2020-06-15T12:36:11Z</time>
      </trkpt>
      <trkpt lat="49.58613" lon="-1.25758">
        <ele>0.5</ele>
        <time>2020-06-15T12:36:12Z</time>
      </trkpt>
      <trkpt lat="49.58613" lon="-1.25762">
        <ele>0.5</ele>
        <time>2020-06-15T12:36:13Z</time>
      </trkpt>
      <trkpt lat="49.58613" lon="-1.25764">
        <ele>0.6</ele>
        <time>2020-06-15T12:36:14Z</time>
      </trkpt>
      <trkpt lat="49.58614" lon="-1.25768">
        <ele>0.6</ele>
        <time>2020-06-15T12:36:15Z</time>
      </trkpt>
      <trkpt lat="49.58614" lon="-1.2577">
        <ele>0.6</ele>
        <time>2020-06-15T12:36:16Z</time>
      </trkpt>
      <trkpt lat="49.58614" lon="-1.25773">
        <ele>0.6</ele>
        <time>2020-06-15T12:36:17Z</time>
      </trkpt>
      <trkpt lat="49.58613" lon="-1.25775">
        <ele>0.7</ele>
        <time>2020-06-15T12:36:18Z</time>
      </trkpt>
      <trkpt lat="49.58611" lon="-1.25779">
        <ele>0.7</ele>
        <time>2020-06-15T12:36:19Z</time>
      </trkpt>
      <trkpt lat="49.5861" lon="-1.2578">
        <ele>0.7</ele>
        <time>2020-06-15T12:36:20Z</time>
      </trkpt>
      <trkpt lat="49.58608" lon="-1.25783">
        <ele>0.7</ele>
        <time>2020-06-15T12:36:21Z</time>
      </trkpt>
      <trkpt lat="49.58608" lon="-1.25785">
        <ele>0.7</ele>
        <time>2020-06-15T12:36:22Z</time>
      </trkpt>
      <trkpt lat="49.58607" lon="-1.25788">
        <ele>0.7</ele>
        <time>2020-06-15T12:36:23Z</time>
      </trkpt>
      <trkpt lat="49.58606" lon="-1.2579">
        <ele>0.7</ele>
        <time>2020-06-15T12:36:24Z</time>
      </trkpt>
      <trkpt lat="49.58605" lon="-1.25793">
        <ele>0.7</ele>
        <time>2020-06-15T12:36:25Z</time>
      </trkpt>
      <trkpt lat="49.58605" lon="-1.25796">
        <ele>0.7</ele>
        <time>2020-06-15T12:36:26Z</time>
      </trkpt>
      <trkpt lat="49.58604" lon="-1.25798">
        <ele>0.7</ele>
        <time>2020-06-15T12:36:27Z</time>
      </trkpt>
      <trkpt lat="49.58604" lon="-1.258">
        <ele>0.7</ele>
        <time>2020-06-15T12:36:28Z</time>
      </trkpt>
      <trkpt lat="49.58604" lon="-1.25803">
        <ele>0.7</ele>
        <time>2020-06-15T12:36:29Z</time>
      </trkpt>
      <trkpt lat="49.58603" lon="-1.25808">
        <ele>0.7</ele>
        <time>2020-06-15T12:36:30Z</time>
      </trkpt>
      <trkpt lat="49.58602" lon="-1.2581">
        <ele>0.7</ele>
        <time>2020-06-15T12:36:31Z</time>
      </trkpt>
      <trkpt lat="49.58601" lon="-1.25814">
        <ele>0.7</ele>
        <time>2020-06-15T12:36:32Z</time>
      </trkpt>
      <trkpt lat="49.586" lon="-1.25819">
        <ele>0.7</ele>
        <time>2020-06-15T12:36:33Z</time>
      </trkpt>
      <trkpt lat="49.586" lon="-1.2582">
        <ele>0.8</ele>
        <time>2020-06-15T12:36:34Z</time>
      </trkpt>
      <trkpt lat="49.586" lon="-1.25824">
        <ele>0.8</ele>
        <time>2020-06-15T12:36:35Z</time>
      </trkpt>
      <trkpt lat="49.58599" lon="-1.25826">
        <ele>0.8</ele>
        <time>2020-06-15T12:36:36Z</time>
      </trkpt>
      <trkpt lat="49.58597" lon="-1.2583">
        <ele>0.8</ele>
        <time>2020-06-15T12:36:37Z</time>
      </trkpt>
      <trkpt lat="49.58597" lon="-1.25832">
        <ele>0.8</ele>
        <time>2020-06-15T12:36:38Z</time>
      </trkpt>
      <trkpt lat="49.58596" lon="-1.25837">
        <ele>0.9</ele>
        <time>2020-06-15T12:36:39Z</time>
      </trkpt>
      <trkpt lat="49.58595" lon="-1.25839">
        <ele>0.9</ele>
        <time>2020-06-15T12:36:40Z</time>
      </trkpt>
      <trkpt lat="49.58594" lon="-1.25844">
        <ele>0.9</ele>
        <time>2020-06-15T12:36:41Z</time>
      </trkpt>
      <trkpt lat="49.58594" lon="-1.25846">
        <ele>0.9</ele>
        <time>2020-06-15T12:36:42Z</time>
      </trkpt>
      <trkpt lat="49.58593" lon="-1.25851">
        <ele>0.9</ele>
        <time>2020-06-15T12:36:43Z</time>
      </trkpt>
      <trkpt lat="49.58593" lon="-1.25852">
        <ele>0.9</ele>
        <time>2020-06-15T12:36:44Z</time>
      </trkpt>
      <trkpt lat="49.58592" lon="-1.25857">
        <ele>1</ele>
        <time>2020-06-15T12:36:45Z</time>
      </trkpt>
      <trkpt lat="49.58592" lon="-1.25859">
        <ele>1</ele>
        <time>2020-06-15T12:36:46Z</time>
      </trkpt>
      <trkpt lat="49.5859" lon="-1.25863">
        <ele>1</ele>
        <time>2020-06-15T12:36:47Z</time>
      </trkpt>
      <trkpt lat="49.58589" lon="-1.25865">
        <ele>1</ele>
        <time>2020-06-15T12:36:48Z</time>
      </trkpt>
      <trkpt lat="49.58588" lon="-1.25867">
        <ele>1</ele>
        <time>2020-06-15T12:36:49Z</time>
      </trkpt>
      <trkpt lat="49.58588" lon="-1.2587">
        <ele>1</ele>
        <time>2020-06-15T12:36:50Z</time>
      </trkpt>
      <trkpt lat="49.58587" lon="-1.25875">
        <ele>1.1</ele>
        <time>2020-06-15T12:36:51Z</time>
      </trkpt>
      <trkpt lat="49.58586" lon="-1.25876">
        <ele>1.1</ele>
        <time>2020-06-15T12:36:52Z</time>
      </trkpt>
      <trkpt lat="49.58586" lon="-1.25879">
        <ele>1.1</ele>
        <time>2020-06-15T12:36:53Z</time>
      </trkpt>
      <trkpt lat="49.58585" lon="-1.25881">
        <ele>1.2</ele>
        <time>2020-06-15T12:36:54Z</time>
      </trkpt>
      <trkpt lat="49.58584" lon="-1.25885">
        <ele>1.2</ele>
        <time>2020-06-15T12:36:55Z</time>
      </trkpt>
      <trkpt lat="49.58584" lon="-1.25887">
        <ele>1.2</ele>
        <time>2020-06-15T12:36:56Z</time>
      </trkpt>
      <trkpt lat="49.58584" lon="-1.25888">
        <ele>1.2</ele>
        <time>2020-06-15T12:36:57Z</time>
      </trkpt>
      <trkpt lat="49.58583" lon="-1.2589">
        <ele>1.2</ele>
        <time>2020-06-15T12:36:58Z</time>
      </trkpt>
      <trkpt lat="49.58583" lon="-1.25892">
        <ele>1.3</ele>
        <time>2020-06-15T12:36:59Z</time>
      </trkpt>
      <trkpt lat="49.58582" lon="-1.25894">
        <ele>1.3</ele>
        <time>2020-06-15T12:37:00Z</time>
      </trkpt>
      <trkpt lat="49.58582" lon="-1.25897">
        <ele>1.3</ele>
        <time>2020-06-15T12:37:01Z</time>
      </trkpt>
      <trkpt lat="49.58581" lon="-1.25899">
        <ele>1.3</ele>
        <time>2020-06-15T12:37:02Z</time>
      </trkpt>
      <trkpt lat="49.58581" lon="-1.25902">
        <ele>1.3</ele>
        <time>2020-06-15T12:37:03Z</time>
      </trkpt>
      <trkpt lat="49.5858" lon="-1.25904">
        <ele>1.3</ele>
        <time>2020-06-15T12:37:04Z</time>
      </trkpt>
      <trkpt lat="49.58579" lon="-1.25906">
        <ele>1.2</ele>
        <time>2020-06-15T12:37:05Z</time>
      </trkpt>
      <trkpt lat="49.58577" lon="-1.25909">
        <ele>1.2</ele>
        <time>2020-06-15T12:37:06Z</time>
      </trkpt>
      <trkpt lat="49.58577" lon="-1.2591">
        <ele>1.2</ele>
        <time>2020-06-15T12:37:07Z</time>
      </trkpt>
      <trkpt lat="49.58577" lon="-1.25911">
        <ele>1.2</ele>
        <time>2020-06-15T12:37:08Z</time>
      </trkpt>
      <trkpt lat="49.58577" lon="-1.25914">
        <ele>1.2</ele>
        <time>2020-06-15T12:37:09Z</time>
      </trkpt>
      <trkpt lat="49.58577" lon="-1.25916">
        <ele>1.2</ele>
        <time>2020-06-15T12:37:10Z</time>
      </trkpt>
      <trkpt lat="49.58576" lon="-1.25919">
        <ele>1.2</ele>
        <time>2020-06-15T12:37:11Z</time>
      </trkpt>
      <trkpt lat="49.58576" lon="-1.25922">
        <ele>1.2</ele>
        <time>2020-06-15T12:37:12Z</time>
      </trkpt>
      <trkpt lat="49.58575" lon="-1.25927">
        <ele>1.2</ele>
        <time>2020-06-15T12:37:13Z</time>
      </trkpt>
      <trkpt lat="49.58574" lon="-1.25929">
        <ele>1.2</ele>
        <time>2020-06-15T12:37:14Z</time>
      </trkpt>
      <trkpt lat="49.58573" lon="-1.25933">
        <ele>1.2</ele>
        <time>2020-06-15T12:37:15Z</time>
      </trkpt>
      <trkpt lat="49.58573" lon="-1.25935">
        <ele>1.3</ele>
        <time>2020-06-15T12:37:16Z</time>
      </trkpt>
      <trkpt lat="49.58572" lon="-1.25938">
        <ele>1.3</ele>
        <time>2020-06-15T12:37:17Z</time>
      </trkpt>
      <trkpt lat="49.58571" lon="-1.2594">
        <ele>1.3</ele>
        <time>2020-06-15T12:37:18Z</time>
      </trkpt>
      <trkpt lat="49.58571" lon="-1.25944">
        <ele>1.3</ele>
        <time>2020-06-15T12:37:19Z</time>
      </trkpt>
      <trkpt lat="49.58571" lon="-1.25946">
        <ele>1.3</ele>
        <time>2020-06-15T12:37:20Z</time>
      </trkpt>
      <trkpt lat="49.5857" lon="-1.25951">
        <ele>1.3</ele>
        <time>2020-06-15T12:37:21Z</time>
      </trkpt>
      <trkpt lat="49.5857" lon="-1.25952">
        <ele>1.3</ele>
        <time>2020-06-15T12:37:22Z</time>
      </trkpt>
      <trkpt lat="49.58569" lon="-1.25957">
        <ele>1.4</ele>
        <time>2020-06-15T12:37:23Z</time>
      </trkpt>
      <trkpt lat="49.58569" lon="-1.25959">
        <ele>1.4</ele>
        <time>2020-06-15T12:37:24Z</time>
      </trkpt>
      <trkpt lat="49.58567" lon="-1.25963">
        <ele>1.4</ele>
        <time>2020-06-15T12:37:25Z</time>
      </trkpt>
      <trkpt lat="49.58566" lon="-1.25965">
        <ele>1.5</ele>
        <time>2020-06-15T12:37:26Z</time>
      </trkpt>
      <trkpt lat="49.58565" lon="-1.2597">
        <ele>1.5</ele>
        <time>2020-06-15T12:37:27Z</time>
      </trkpt>
      <trkpt lat="49.58565" lon="-1.25975">
        <ele>1.6</ele>
        <time>2020-06-15T12:37:28Z</time>
      </trkpt>
      <trkpt lat="49.58564" lon="-1.25981">
        <ele>1.6</ele>
        <time>2020-06-15T12:37:29Z</time>
      </trkpt>
      <trkpt lat="49.58562" lon="-1.25986">
        <ele>1.7</ele>
        <time>2020-06-15T12:37:30Z</time>
      </trkpt>
      <trkpt lat="49.58561" lon="-1.2599">
        <ele>1.7</ele>
        <time>2020-06-15T12:37:31Z</time>
      </trkpt>
      <trkpt lat="49.5856" lon="-1.25994">
        <ele>1.7</ele>
        <time>2020-06-15T12:37:32Z</time>
      </trkpt>
      <trkpt lat="49.58558" lon="-1.25999">
        <ele>1.7</ele>
        <time>2020-06-15T12:37:33Z</time>
      </trkpt>
      <trkpt lat="49.58557" lon="-1.26001">
        <ele>1.7</ele>
        <time>2020-06-15T12:37:34Z</time>
      </trkpt>
      <trkpt lat="49.58555" lon="-1.26003">
        <ele>1.7</ele>
        <time>2020-06-15T12:37:35Z</time>
      </trkpt>
      <trkpt lat="49.58555" lon="-1.26005">
        <ele>1.7</ele>
        <time>2020-06-15T12:37:36Z</time>
      </trkpt>
      <trkpt lat="49.58554" lon="-1.2601">
        <ele>1.7</ele>
        <time>2020-06-15T12:37:37Z</time>
      </trkpt>
      <trkpt lat="49.58554" lon="-1.26012">
        <ele>1.8</ele>
        <time>2020-06-15T12:37:38Z</time>
      </trkpt>
      <trkpt lat="49.58553" lon="-1.26017">
        <ele>1.8</ele>
        <time>2020-06-15T12:37:39Z</time>
      </trkpt>
      <trkpt lat="49.58553" lon="-1.26019">
        <ele>1.8</ele>
        <time>2020-06-15T12:37:40Z</time>
      </trkpt>
      <trkpt lat="49.58551" lon="-1.26023">
        <ele>1.8</ele>
        <time>2020-06-15T12:37:41Z</time>
      </trkpt>
      <trkpt lat="49.5855" lon="-1.26025">
        <ele>1.8</ele>
        <time>2020-06-15T12:37:42Z</time>
      </trkpt>
      <trkpt lat="49.58548" lon="-1.26029">
        <ele>1.8</ele>
        <time>2020-06-15T12:37:43Z</time>
      </trkpt>
      <trkpt lat="49.58546" lon="-1.26033">
        <ele>1.8</ele>
        <time>2020-06-15T12:37:44Z</time>
      </trkpt>
      <trkpt lat="49.58545" lon="-1.26037">
        <ele>1.8</ele>
        <time>2020-06-15T12:37:45Z</time>
      </trkpt>
      <trkpt lat="49.58543" lon="-1.26042">
        <ele>1.8</ele>
        <time>2020-06-15T12:37:46Z</time>
      </trkpt>
      <trkpt lat="49.58543" lon="-1.26044">
        <ele>1.8</ele>
        <time>2020-06-15T12:37:47Z</time>
      </trkpt>
      <trkpt lat="49.58542" lon="-1.26049">
        <ele>1.8</ele>
        <time>2020-06-15T12:37:48Z</time>
      </trkpt>
      <trkpt lat="49.58541" lon="-1.26054">
        <ele>1.8</ele>
        <time>2020-06-15T12:37:49Z</time>
      </trkpt>
      <trkpt lat="49.5854" lon="-1.26059">
        <ele>1.9</ele>
        <time>2020-06-15T12:37:50Z</time>
      </trkpt>
      <trkpt lat="49.58538" lon="-1.26063">
        <ele>1.9</ele>
        <time>2020-06-15T12:37:51Z</time>
      </trkpt>
      <trkpt lat="49.58536" lon="-1.26068">
        <ele>2</ele>
        <time>2020-06-15T12:37:52Z</time>
      </trkpt>
      <trkpt lat="49.58535" lon="-1.26073">
        <ele>2</ele>
        <time>2020-06-15T12:37:53Z</time>
      </trkpt>
      <trkpt lat="49.58534" lon="-1.26079">
        <ele>2.1</ele>
        <time>2020-06-15T12:37:54Z</time>
      </trkpt>
      <trkpt lat="49.58532" lon="-1.26084">
        <ele>2.2</ele>
        <time>2020-06-15T12:37:55Z</time>
      </trkpt>
      <trkpt lat="49.58531" lon="-1.2609">
        <ele>2.3</ele>
        <time>2020-06-15T12:37:56Z</time>
      </trkpt>
      <trkpt lat="49.5853" lon="-1.26096">
        <ele>2.4</ele>
        <time>2020-06-15T12:37:57Z</time>
      </trkpt>
      <trkpt lat="49.58528" lon="-1.26102">
        <ele>2.5</ele>
        <time>2020-06-15T12:37:58Z</time>
      </trkpt>
      <trkpt lat="49.58526" lon="-1.26108">
        <ele>2.5</ele>
        <time>2020-06-15T12:37:59Z</time>
      </trkpt>
      <trkpt lat="49.58525" lon="-1.26113">
        <ele>2.5</ele>
        <time>2020-06-15T12:38:00Z</time>
      </trkpt>
      <trkpt lat="49.58523" lon="-1.26119">
        <ele>2.6</ele>
        <time>2020-06-15T12:38:01Z</time>
      </trkpt>
      <trkpt lat="49.58522" lon="-1.26126">
        <ele>2.6</ele>
        <time>2020-06-15T12:38:02Z</time>
      </trkpt>
      <trkpt lat="49.58521" lon="-1.26132">
        <ele>2.6</ele>
        <time>2020-06-15T12:38:03Z</time>
      </trkpt>
      <trkpt lat="49.5852" lon="-1.26138">
        <ele>2.6</ele>
        <time>2020-06-15T12:38:04Z</time>
      </trkpt>
      <trkpt lat="49.58518" lon="-1.26143">
        <ele>2.6</ele>
        <time>2020-06-15T12:38:05Z</time>
      </trkpt>
      <trkpt lat="49.58517" lon="-1.26148">
        <ele>2.6</ele>
        <time>2020-06-15T12:38:06Z</time>
      </trkpt>
      <trkpt lat="49.58515" lon="-1.26154">
        <ele>2.6</ele>
        <time>2020-06-15T12:38:07Z</time>
      </trkpt>
      <trkpt lat="49.58514" lon="-1.2616">
        <ele>2.6</ele>
        <time>2020-06-15T12:38:08Z</time>
      </trkpt>
      <trkpt lat="49.58512" lon="-1.26165">
        <ele>2.6</ele>
        <time>2020-06-15T12:38:09Z</time>
      </trkpt>
      <trkpt lat="49.58511" lon="-1.26173">
        <ele>2.6</ele>
        <time>2020-06-15T12:38:10Z</time>
      </trkpt>
      <trkpt lat="49.5851" lon="-1.26179">
        <ele>2.6</ele>
        <time>2020-06-15T12:38:11Z</time>
      </trkpt>
      <trkpt lat="49.58509" lon="-1.26184">
        <ele>2.7</ele>
        <time>2020-06-15T12:38:12Z</time>
      </trkpt>
      <trkpt lat="49.58508" lon="-1.26191">
        <ele>2.7</ele>
        <time>2020-06-15T12:38:13Z</time>
      </trkpt>
      <trkpt lat="49.58507" lon="-1.26196">
        <ele>2.7</ele>
        <time>2020-06-15T12:38:14Z</time>
      </trkpt>
      <trkpt lat="49.58506" lon="-1.262">
        <ele>2.8</ele>
        <time>2020-06-15T12:38:15Z</time>
      </trkpt>
      <trkpt lat="49.58505" lon="-1.26205">
        <ele>2.8</ele>
        <time>2020-06-15T12:38:16Z</time>
      </trkpt>
      <trkpt lat="49.58504" lon="-1.26211">
        <ele>2.8</ele>
        <time>2020-06-15T12:38:17Z</time>
      </trkpt>
      <trkpt lat="49.58504" lon="-1.26216">
        <ele>2.8</ele>
        <time>2020-06-15T12:38:18Z</time>
      </trkpt>
      <trkpt lat="49.58504" lon="-1.26217">
        <ele>2.8</ele>
        <time>2020-06-15T12:38:19Z</time>
      </trkpt>
      <trkpt lat="49.58505" lon="-1.26223">
        <ele>2.8</ele>
        <time>2020-06-15T12:38:20Z</time>
      </trkpt>
      <trkpt lat="49.58505" lon="-1.26225">
        <ele>2.8</ele>
        <time>2020-06-15T12:38:21Z</time>
      </trkpt>
      <trkpt lat="49.58507" lon="-1.2623">
        <ele>2.8</ele>
        <time>2020-06-15T12:38:22Z</time>
      </trkpt>
      <trkpt lat="49.58508" lon="-1.26231">
        <ele>2.8</ele>
        <time>2020-06-15T12:38:23Z</time>
      </trkpt>
      <trkpt lat="49.58511" lon="-1.26234">
        <ele>2.8</ele>
        <time>2020-06-15T12:38:24Z</time>
      </trkpt>
      <trkpt lat="49.58512" lon="-1.26234">
        <ele>2.8</ele>
        <time>2020-06-15T12:38:25Z</time>
      </trkpt>
      <trkpt lat="49.58515" lon="-1.26238">
        <ele>2.7</ele>
        <time>2020-06-15T12:38:26Z</time>
      </trkpt>
      <trkpt lat="49.58516" lon="-1.2624">
        <ele>2.6</ele>
        <time>2020-06-15T12:38:27Z</time>
      </trkpt>
      <trkpt lat="49.58518" lon="-1.26243">
        <ele>2.6</ele>
        <time>2020-06-15T12:38:28Z</time>
      </trkpt>
      <trkpt lat="49.5852" lon="-1.2625">
        <ele>2.6</ele>
        <time>2020-06-15T12:38:29Z</time>
      </trkpt>
      <trkpt lat="49.5852" lon="-1.26254">
        <ele>2.6</ele>
        <time>2020-06-15T12:38:30Z</time>
      </trkpt>
      <trkpt lat="49.58517" lon="-1.26259">
        <ele>2.6</ele>
        <time>2020-06-15T12:38:31Z</time>
      </trkpt>
      <trkpt lat="49.58516" lon="-1.26261">
        <ele>2.6</ele>
        <time>2020-06-15T12:38:32Z</time>
      </trkpt>
      <trkpt lat="49.58515" lon="-1.26265">
        <ele>2.6</ele>
        <time>2020-06-15T12:38:33Z</time>
      </trkpt>
      <trkpt lat="49.58512" lon="-1.26268">
        <ele>2.6</ele>
        <time>2020-06-15T12:38:34Z</time>
      </trkpt>
      <trkpt lat="49.58511" lon="-1.26273">
        <ele>2.6</ele>
        <time>2020-06-15T12:38:35Z</time>
      </trkpt>
      <trkpt lat="49.5851" lon="-1.26277">
        <ele>2.7</ele>
        <time>2020-06-15T12:38:36Z</time>
      </trkpt>
      <trkpt lat="49.58509" lon="-1.26282">
        <ele>2.7</ele>
        <time>2020-06-15T12:38:37Z</time>
      </trkpt>
      <trkpt lat="49.58508" lon="-1.26288">
        <ele>2.7</ele>
        <time>2020-06-15T12:38:38Z</time>
      </trkpt>
      <trkpt lat="49.58508" lon="-1.26292">
        <ele>2.7</ele>
        <time>2020-06-15T12:38:39Z</time>
      </trkpt>
      <trkpt lat="49.58507" lon="-1.26299">
        <ele>2.7</ele>
        <time>2020-06-15T12:38:40Z</time>
      </trkpt>
      <trkpt lat="49.58507" lon="-1.26305">
        <ele>2.7</ele>
        <time>2020-06-15T12:38:41Z</time>
      </trkpt>
      <trkpt lat="49.58508" lon="-1.26312">
        <ele>2.7</ele>
        <time>2020-06-15T12:38:42Z</time>
      </trkpt>
      <trkpt lat="49.58509" lon="-1.26318">
        <ele>2.6</ele>
        <time>2020-06-15T12:38:43Z</time>
      </trkpt>
      <trkpt lat="49.5851" lon="-1.26324">
        <ele>2.6</ele>
        <time>2020-06-15T12:38:44Z</time>
      </trkpt>
      <trkpt lat="49.5851" lon="-1.2633">
        <ele>2.6</ele>
        <time>2020-06-15T12:38:45Z</time>
      </trkpt>
      <trkpt lat="49.58511" lon="-1.26334">
        <ele>2.6</ele>
        <time>2020-06-15T12:38:46Z</time>
      </trkpt>
      <trkpt lat="49.58512" lon="-1.26339">
        <ele>2.6</ele>
        <time>2020-06-15T12:38:47Z</time>
      </trkpt>
      <trkpt lat="49.58513" lon="-1.26341">
        <ele>2.6</ele>
        <time>2020-06-15T12:38:48Z</time>
      </trkpt>
      <trkpt lat="49.58514" lon="-1.26345">
        <ele>2.6</ele>
        <time>2020-06-15T12:38:49Z</time>
      </trkpt>
      <trkpt lat="49.58515" lon="-1.26347">
        <ele>2.6</ele>
        <time>2020-06-15T12:38:50Z</time>
      </trkpt>
      <trkpt lat="49.58516" lon="-1.26348">
        <ele>2.6</ele>
        <time>2020-06-15T12:38:51Z</time>
      </trkpt>
      <trkpt lat="49.58516" lon="-1.26349">
        <ele>2.6</ele>
        <time>2020-06-15T12:38:52Z</time>
      </trkpt>
      <trkpt lat="49.58517" lon="-1.26351">
        <ele>2.5</ele>
        <time>2020-06-15T12:38:53Z</time>
      </trkpt>
      <trkpt lat="49.58517" lon="-1.26351">
        <ele>2.5</ele>
        <time>2020-06-15T12:38:54Z</time>
      </trkpt>
      <trkpt lat="49.58517" lon="-1.26352">
        <ele>2.5</ele>
        <time>2020-06-15T12:38:55Z</time>
      </trkpt>
      <trkpt lat="49.58517" lon="-1.26353">
        <ele>2.5</ele>
        <time>2020-06-15T12:38:56Z</time>
      </trkpt>
      <trkpt lat="49.58516" lon="-1.26354">
        <ele>2.5</ele>
        <time>2020-06-15T12:38:57Z</time>
      </trkpt>
      <trkpt lat="49.58516" lon="-1.26354">
        <ele>2.5</ele>
        <time>2020-06-15T12:38:58Z</time>
      </trkpt>
      <trkpt lat="49.58515" lon="-1.26354">
        <ele>2.5</ele>
        <time>2020-06-15T12:38:59Z</time>
      </trkpt>
      <trkpt lat="49.58514" lon="-1.26355">
        <ele>2.5</ele>
        <time>2020-06-15T12:39:00Z</time>
      </trkpt>
      <trkpt lat="49.58514" lon="-1.26355">
        <ele>2.5</ele>
        <time>2020-06-15T12:48:04Z</time>
      </trkpt>
      <trkpt lat="49.58513" lon="-1.26356">
        <ele>2.5</ele>
        <time>2020-06-15T12:48:05Z</time>
      </trkpt>
      <trkpt lat="49.58511" lon="-1.26357">
        <ele>2.4</ele>
        <time>2020-06-15T12:48:06Z</time>
      </trkpt>
      <trkpt lat="49.58511" lon="-1.26359">
        <ele>2.4</ele>
        <time>2020-06-15T12:48:07Z</time>
      </trkpt>
      <trkpt lat="49.58511" lon="-1.26361">
        <ele>2.4</ele>
        <time>2020-06-15T12:48:08Z</time>
      </trkpt>
      <trkpt lat="49.58512" lon="-1.26364">
        <ele>2.4</ele>
        <time>2020-06-15T12:48:09Z</time>
      </trkpt>
      <trkpt lat="49.58512" lon="-1.26366">
        <ele>2.4</ele>
        <time>2020-06-15T12:48:10Z</time>
      </trkpt>
      <trkpt lat="49.58513" lon="-1.26369">
        <ele>2.4</ele>
        <time>2020-06-15T12:48:11Z</time>
      </trkpt>
      <trkpt lat="49.58514" lon="-1.26373">
        <ele>2.4</ele>
        <time>2020-06-15T12:48:12Z</time>
      </trkpt>
      <trkpt lat="49.58515" lon="-1.26378">
        <ele>2.4</ele>
        <time>2020-06-15T12:48:13Z</time>
      </trkpt>
      <trkpt lat="49.58515" lon="-1.2638">
        <ele>2.4</ele>
        <time>2020-06-15T12:48:14Z</time>
      </trkpt>
      <trkpt lat="49.58515" lon="-1.26385">
        <ele>2.4</ele>
        <time>2020-06-15T12:48:15Z</time>
      </trkpt>
      <trkpt lat="49.58515" lon="-1.26387">
        <ele>2.4</ele>
        <time>2020-06-15T12:48:16Z</time>
      </trkpt>
      <trkpt lat="49.58515" lon="-1.26391">
        <ele>2.4</ele>
        <time>2020-06-15T12:48:17Z</time>
      </trkpt>
      <trkpt lat="49.58514" lon="-1.26395">
        <ele>2.4</ele>
        <time>2020-06-15T12:48:18Z</time>
      </trkpt>
      <trkpt lat="49.58515" lon="-1.264">
        <ele>2.4</ele>
        <time>2020-06-15T12:48:19Z</time>
      </trkpt>
      <trkpt lat="49.58514" lon="-1.26406">
        <ele>2.4</ele>
        <time>2020-06-15T12:48:20Z</time>
      </trkpt>
      <trkpt lat="49.58514" lon="-1.26409">
        <ele>2.4</ele>
        <time>2020-06-15T12:48:21Z</time>
      </trkpt>
      <trkpt lat="49.58515" lon="-1.26413">
        <ele>2.4</ele>
        <time>2020-06-15T12:48:22Z</time>
      </trkpt>
      <trkpt lat="49.58515" lon="-1.26419">
        <ele>2.4</ele>
        <time>2020-06-15T12:48:23Z</time>
      </trkpt>
      <trkpt lat="49.58515" lon="-1.26421">
        <ele>2.4</ele>
        <time>2020-06-15T12:48:24Z</time>
      </trkpt>
      <trkpt lat="49.58516" lon="-1.26427">
        <ele>2.4</ele>
        <time>2020-06-15T12:48:25Z</time>
      </trkpt>
      <trkpt lat="49.58516" lon="-1.26429">
        <ele>2.4</ele>
        <time>2020-06-15T12:48:26Z</time>
      </trkpt>
      <trkpt lat="49.58515" lon="-1.26433">
        <ele>2.4</ele>
        <time>2020-06-15T12:48:27Z</time>
      </trkpt>
      <trkpt lat="49.58516" lon="-1.2644">
        <ele>2.4</ele>
        <time>2020-06-15T12:48:28Z</time>
      </trkpt>
      <trkpt lat="49.58516" lon="-1.26442">
        <ele>2.4</ele>
        <time>2020-06-15T12:48:29Z</time>
      </trkpt>
      <trkpt lat="49.58517" lon="-1.26448">
        <ele>2.4</ele>
        <time>2020-06-15T12:48:30Z</time>
      </trkpt>
      <trkpt lat="49.58516" lon="-1.26452">
        <ele>2.4</ele>
        <time>2020-06-15T12:48:31Z</time>
      </trkpt>
      <trkpt lat="49.58516" lon="-1.26453">
        <ele>2.4</ele>
        <time>2020-06-15T12:48:32Z</time>
      </trkpt>
      <trkpt lat="49.58516" lon="-1.26458">
        <ele>2.4</ele>
        <time>2020-06-15T12:48:33Z</time>
      </trkpt>
      <trkpt lat="49.58516" lon="-1.2646">
        <ele>2.4</ele>
        <time>2020-06-15T12:48:34Z</time>
      </trkpt>
      <trkpt lat="49.58515" lon="-1.26464">
        <ele>2.4</ele>
        <time>2020-06-15T12:48:35Z</time>
      </trkpt>
      <trkpt lat="49.58514" lon="-1.26465">
        <ele>2.4</ele>
        <time>2020-06-15T12:48:36Z</time>
      </trkpt>
      <trkpt lat="49.58514" lon="-1.2647">
        <ele>2.4</ele>
        <time>2020-06-15T12:48:37Z</time>
      </trkpt>
      <trkpt lat="49.58514" lon="-1.26472">
        <ele>2.4</ele>
        <time>2020-06-15T12:48:38Z</time>
      </trkpt>
      <trkpt lat="49.58514" lon="-1.26476">
        <ele>2.4</ele>
        <time>2020-06-15T12:48:39Z</time>
      </trkpt>
      <trkpt lat="49.58514" lon="-1.26481">
        <ele>2.4</ele>
        <time>2020-06-15T12:48:40Z</time>
      </trkpt>
      <trkpt lat="49.58514" lon="-1.26487">
        <ele>2.4</ele>
        <time>2020-06-15T12:48:41Z</time>
      </trkpt>
      <trkpt lat="49.58515" lon="-1.26492">
        <ele>2.3</ele>
        <time>2020-06-15T12:48:42Z</time>
      </trkpt>
      <trkpt lat="49.58514" lon="-1.26498">
        <ele>2.3</ele>
        <time>2020-06-15T12:48:43Z</time>
      </trkpt>
      <trkpt lat="49.58514" lon="-1.26504">
        <ele>2.2</ele>
        <time>2020-06-15T12:48:44Z</time>
      </trkpt>
      <trkpt lat="49.58514" lon="-1.2651">
        <ele>2.2</ele>
        <time>2020-06-15T12:48:45Z</time>
      </trkpt>
      <trkpt lat="49.58515" lon="-1.26515">
        <ele>2.2</ele>
        <time>2020-06-15T12:48:46Z</time>
      </trkpt>
      <trkpt lat="49.58516" lon="-1.2652">
        <ele>2.1</ele>
        <time>2020-06-15T12:48:47Z</time>
      </trkpt>
      <trkpt lat="49.58516" lon="-1.26527">
        <ele>2.1</ele>
        <time>2020-06-15T12:48:48Z</time>
      </trkpt>
      <trkpt lat="49.58516" lon="-1.26534">
        <ele>2</ele>
        <time>2020-06-15T12:48:49Z</time>
      </trkpt>
      <trkpt lat="49.58516" lon="-1.2654">
        <ele>2</ele>
        <time>2020-06-15T12:48:50Z</time>
      </trkpt>
      <trkpt lat="49.58516" lon="-1.26547">
        <ele>1.9</ele>
        <time>2020-06-15T12:48:51Z</time>
      </trkpt>
      <trkpt lat="49.58515" lon="-1.26553">
        <ele>1.9</ele>
        <time>2020-06-15T12:48:52Z</time>
      </trkpt>
      <trkpt lat="49.58515" lon="-1.2656">
        <ele>1.8</ele>
        <time>2020-06-15T12:48:53Z</time>
      </trkpt>
      <trkpt lat="49.58515" lon="-1.26566">
        <ele>1.8</ele>
        <time>2020-06-15T12:48:54Z</time>
      </trkpt>
      <trkpt lat="49.58516" lon="-1.26572">
        <ele>1.7</ele>
        <time>2020-06-15T12:48:55Z</time>
      </trkpt>
      <trkpt lat="49.58516" lon="-1.26577">
        <ele>1.7</ele>
        <time>2020-06-15T12:48:56Z</time>
      </trkpt>
      <trkpt lat="49.58516" lon="-1.26583">
        <ele>1.7</ele>
        <time>2020-06-15T12:48:57Z</time>
      </trkpt>
      <trkpt lat="49.58515" lon="-1.26588">
        <ele>1.7</ele>
        <time>2020-06-15T12:48:58Z</time>
      </trkpt>
      <trkpt lat="49.58515" lon="-1.26592">
        <ele>1.7</ele>
        <time>2020-06-15T12:48:59Z</time>
      </trkpt>
      <trkpt lat="49.58514" lon="-1.26597">
        <ele>1.7</ele>
        <time>2020-06-15T12:49:00Z</time>
      </trkpt>
      <trkpt lat="49.58514" lon="-1.26601">
        <ele>1.7</ele>
        <time>2020-06-15T12:49:01Z</time>
      </trkpt>
      <trkpt lat="49.58514" lon="-1.26605">
        <ele>1.7</ele>
        <time>2020-06-15T12:49:02Z</time>
      </trkpt>
      <trkpt lat="49.58514" lon="-1.26611">
        <ele>1.7</ele>
        <time>2020-06-15T12:49:03Z</time>
      </trkpt>
      <trkpt lat="49.58514" lon="-1.26613">
        <ele>1.7</ele>
        <time>2020-06-15T12:49:04Z</time>
      </trkpt>
      <trkpt lat="49.58511" lon="-1.26617">
        <ele>1.7</ele>
        <time>2020-06-15T12:49:05Z</time>
      </trkpt>
      <trkpt lat="49.5851" lon="-1.26619">
        <ele>1.8</ele>
        <time>2020-06-15T12:49:06Z</time>
      </trkpt>
      <trkpt lat="49.58508" lon="-1.26624">
        <ele>2</ele>
        <time>2020-06-15T12:49:07Z</time>
      </trkpt>
      <trkpt lat="49.58507" lon="-1.26625">
        <ele>1.9</ele>
        <time>2020-06-15T12:49:08Z</time>
      </trkpt>
      <trkpt lat="49.58504" lon="-1.26628">
        <ele>1.9</ele>
        <time>2020-06-15T12:49:09Z</time>
      </trkpt>
      <trkpt lat="49.58504" lon="-1.2663">
        <ele>1.9</ele>
        <time>2020-06-15T12:49:10Z</time>
      </trkpt>
      <trkpt lat="49.58503" lon="-1.26635">
        <ele>1.9</ele>
        <time>2020-06-15T12:49:11Z</time>
      </trkpt>
      <trkpt lat="49.58502" lon="-1.26637">
        <ele>1.9</ele>
        <time>2020-06-15T12:49:12Z</time>
      </trkpt>
      <trkpt lat="49.58502" lon="-1.26641">
        <ele>1.8</ele>
        <time>2020-06-15T12:49:13Z</time>
      </trkpt>
      <trkpt lat="49.58501" lon="-1.26647">
        <ele>1.8</ele>
        <time>2020-06-15T12:49:14Z</time>
      </trkpt>
      <trkpt lat="49.58501" lon="-1.26649">
        <ele>1.8</ele>
        <time>2020-06-15T12:49:15Z</time>
      </trkpt>
      <trkpt lat="49.58501" lon="-1.26653">
        <ele>1.8</ele>
        <time>2020-06-15T12:49:16Z</time>
      </trkpt>
      <trkpt lat="49.58503" lon="-1.26658">
        <ele>1.8</ele>
        <time>2020-06-15T12:49:17Z</time>
      </trkpt>
      <trkpt lat="49.58503" lon="-1.2666">
        <ele>1.7</ele>
        <time>2020-06-15T12:49:18Z</time>
      </trkpt>
      <trkpt lat="49.58503" lon="-1.26664">
        <ele>1.7</ele>
        <time>2020-06-15T12:49:19Z</time>
      </trkpt>
      <trkpt lat="49.58504" lon="-1.26669">
        <ele>1.7</ele>
        <time>2020-06-15T12:49:20Z</time>
      </trkpt>
      <trkpt lat="49.58504" lon="-1.26676">
        <ele>1.7</ele>
        <time>2020-06-15T12:49:21Z</time>
      </trkpt>
      <trkpt lat="49.58505" lon="-1.26679">
        <ele>1.7</ele>
        <time>2020-06-15T12:49:22Z</time>
      </trkpt>
      <trkpt lat="49.58506" lon="-1.26684">
        <ele>1.7</ele>
        <time>2020-06-15T12:49:23Z</time>
      </trkpt>
      <trkpt lat="49.58507" lon="-1.26689">
        <ele>1.7</ele>
        <time>2020-06-15T12:49:24Z</time>
      </trkpt>
      <trkpt lat="49.58508" lon="-1.26694">
        <ele>1.7</ele>
        <time>2020-06-15T12:49:25Z</time>
      </trkpt>
      <trkpt lat="49.58508" lon="-1.26699">
        <ele>1.7</ele>
        <time>2020-06-15T12:49:26Z</time>
      </trkpt>
      <trkpt lat="49.58509" lon="-1.26704">
        <ele>1.7</ele>
        <time>2020-06-15T12:49:27Z</time>
      </trkpt>
      <trkpt lat="49.5851" lon="-1.26709">
        <ele>1.6</ele>
        <time>2020-06-15T12:49:28Z</time>
      </trkpt>
      <trkpt lat="49.58511" lon="-1.26716">
        <ele>1.6</ele>
        <time>2020-06-15T12:49:29Z</time>
      </trkpt>
      <trkpt lat="49.58512" lon="-1.26721">
        <ele>1.6</ele>
        <time>2020-06-15T12:49:30Z</time>
      </trkpt>
      <trkpt lat="49.58513" lon="-1.26727">
        <ele>1.6</ele>
        <time>2020-06-15T12:49:31Z</time>
      </trkpt>
      <trkpt lat="49.58514" lon="-1.26732">
        <ele>1.6</ele>
        <time>2020-06-15T12:49:32Z</time>
      </trkpt>
      <trkpt lat="49.58516" lon="-1.26737">
        <ele>1.6</ele>
        <time>2020-06-15T12:49:33Z</time>
      </trkpt>
      <trkpt lat="49.58517" lon="-1.26742">
        <ele>1.5</ele>
        <time>2020-06-15T12:49:34Z</time>
      </trkpt>
      <trkpt lat="49.58518" lon="-1.26747">
        <ele>1.5</ele>
        <time>2020-06-15T12:49:35Z</time>
      </trkpt>
      <trkpt lat="49.5852" lon="-1.26753">
        <ele>1.5</ele>
        <time>2020-06-15T12:49:36Z</time>
      </trkpt>
      <trkpt lat="49.5852" lon="-1.26758">
        <ele>1.5</ele>
        <time>2020-06-15T12:49:37Z</time>
      </trkpt>
      <trkpt lat="49.58522" lon="-1.26764">
        <ele>1.5</ele>
        <time>2020-06-15T12:49:38Z</time>
      </trkpt>
      <trkpt lat="49.58523" lon="-1.2677">
        <ele>1.5</ele>
        <time>2020-06-15T12:49:39Z</time>
      </trkpt>
      <trkpt lat="49.58524" lon="-1.26775">
        <ele>1.5</ele>
        <time>2020-06-15T12:49:40Z</time>
      </trkpt>
      <trkpt lat="49.58525" lon="-1.26782">
        <ele>1.5</ele>
        <time>2020-06-15T12:49:41Z</time>
      </trkpt>
      <trkpt lat="49.58526" lon="-1.26787">
        <ele>1.5</ele>
        <time>2020-06-15T12:49:42Z</time>
      </trkpt>
      <trkpt lat="49.58527" lon="-1.26793">
        <ele>1.5</ele>
        <time>2020-06-15T12:49:43Z</time>
      </trkpt>
      <trkpt lat="49.58528" lon="-1.26797">
        <ele>1.5</ele>
        <time>2020-06-15T12:49:44Z</time>
      </trkpt>
      <trkpt lat="49.5853" lon="-1.26803">
        <ele>1.5</ele>
        <time>2020-06-15T12:49:45Z</time>
      </trkpt>
      <trkpt lat="49.5853" lon="-1.26805">
        <ele>1.5</ele>
        <time>2020-06-15T12:49:46Z</time>
      </trkpt>
      <trkpt lat="49.58532" lon="-1.26811">
        <ele>1.6</ele>
        <time>2020-06-15T12:49:47Z</time>
      </trkpt>
      <trkpt lat="49.58533" lon="-1.26816">
        <ele>1.6</ele>
        <time>2020-06-15T12:49:48Z</time>
      </trkpt>
      <trkpt lat="49.58533" lon="-1.26822">
        <ele>1.6</ele>
        <time>2020-06-15T12:49:49Z</time>
      </trkpt>
      <trkpt lat="49.58535" lon="-1.26828">
        <ele>1.7</ele>
        <time>2020-06-15T12:49:50Z</time>
      </trkpt>
      <trkpt lat="49.58535" lon="-1.26834">
        <ele>1.8</ele>
        <time>2020-06-15T12:49:51Z</time>
      </trkpt>
      <trkpt lat="49.58536" lon="-1.26841">
        <ele>1.8</ele>
        <time>2020-06-15T12:49:52Z</time>
      </trkpt>
      <trkpt lat="49.58538" lon="-1.26849">
        <ele>1.9</ele>
        <time>2020-06-15T12:49:53Z</time>
      </trkpt>
      <trkpt lat="49.58539" lon="-1.26856">
        <ele>1.9</ele>
        <time>2020-06-15T12:49:54Z</time>
      </trkpt>
      <trkpt lat="49.58541" lon="-1.26863">
        <ele>1.9</ele>
        <time>2020-06-15T12:49:55Z</time>
      </trkpt>
      <trkpt lat="49.58542" lon="-1.2687">
        <ele>1.9</ele>
        <time>2020-06-15T12:49:56Z</time>
      </trkpt>
      <trkpt lat="49.58544" lon="-1.26876">
        <ele>1.9</ele>
        <time>2020-06-15T12:49:57Z</time>
      </trkpt>
      <trkpt lat="49.58544" lon="-1.26883">
        <ele>1.9</ele>
        <time>2020-06-15T12:49:58Z</time>
      </trkpt>
      <trkpt lat="49.58545" lon="-1.2689">
        <ele>1.9</ele>
        <time>2020-06-15T12:49:59Z</time>
      </trkpt>
      <trkpt lat="49.58546" lon="-1.26898">
        <ele>1.9</ele>
        <time>2020-06-15T12:50:00Z</time>
      </trkpt>
      <trkpt lat="49.58547" lon="-1.26903">
        <ele>1.9</ele>
        <time>2020-06-15T12:50:01Z</time>
      </trkpt>
      <trkpt lat="49.58549" lon="-1.2691">
        <ele>1.9</ele>
        <time>2020-06-15T12:50:02Z</time>
      </trkpt>
      <trkpt lat="49.5855" lon="-1.26917">
        <ele>1.9</ele>
        <time>2020-06-15T12:50:03Z</time>
      </trkpt>
      <trkpt lat="49.58552" lon="-1.26923">
        <ele>1.9</ele>
        <time>2020-06-15T12:50:04Z</time>
      </trkpt>
      <trkpt lat="49.58553" lon="-1.26929">
        <ele>1.9</ele>
        <time>2020-06-15T12:50:05Z</time>
      </trkpt>
      <trkpt lat="49.58555" lon="-1.26937">
        <ele>1.9</ele>
        <time>2020-06-15T12:50:06Z</time>
      </trkpt>
      <trkpt lat="49.58556" lon="-1.26944">
        <ele>1.9</ele>
        <time>2020-06-15T12:50:07Z</time>
      </trkpt>
      <trkpt lat="49.58558" lon="-1.2695">
        <ele>1.9</ele>
        <time>2020-06-15T12:50:08Z</time>
      </trkpt>
      <trkpt lat="49.5856" lon="-1.26957">
        <ele>1.9</ele>
        <time>2020-06-15T12:50:09Z</time>
      </trkpt>
      <trkpt lat="49.58562" lon="-1.26963">
        <ele>1.8</ele>
        <time>2020-06-15T12:50:10Z</time>
      </trkpt>
      <trkpt lat="49.58564" lon="-1.26971">
        <ele>1.8</ele>
        <time>2020-06-15T12:50:11Z</time>
      </trkpt>
      <trkpt lat="49.58565" lon="-1.26978">
        <ele>1.8</ele>
        <time>2020-06-15T12:50:12Z</time>
      </trkpt>
      <trkpt lat="49.58567" lon="-1.26985">
        <ele>1.8</ele>
        <time>2020-06-15T12:50:13Z</time>
      </trkpt>
      <trkpt lat="49.58568" lon="-1.26992">
        <ele>1.8</ele>
        <time>2020-06-15T12:50:14Z</time>
      </trkpt>
      <trkpt lat="49.5857" lon="-1.26999">
        <ele>1.8</ele>
        <time>2020-06-15T12:50:15Z</time>
      </trkpt>
      <trkpt lat="49.5857" lon="-1.27005">
        <ele>1.8</ele>
        <time>2020-06-15T12:50:16Z</time>
      </trkpt>
      <trkpt lat="49.58569" lon="-1.27013">
        <ele>1.8</ele>
        <time>2020-06-15T12:50:17Z</time>
      </trkpt>
      <trkpt lat="49.5857" lon="-1.27023">
        <ele>1.8</ele>
        <time>2020-06-15T12:50:18Z</time>
      </trkpt>
      <trkpt lat="49.58571" lon="-1.27032">
        <ele>1.8</ele>
        <time>2020-06-15T12:50:19Z</time>
      </trkpt>
      <trkpt lat="49.58572" lon="-1.27039">
        <ele>1.8</ele>
        <time>2020-06-15T12:50:20Z</time>
      </trkpt>
      <trkpt lat="49.58574" lon="-1.27048">
        <ele>1.8</ele>
        <time>2020-06-15T12:50:21Z</time>
      </trkpt>
      <trkpt lat="49.58575" lon="-1.27055">
        <ele>1.8</ele>
        <time>2020-06-15T12:50:22Z</time>
      </trkpt>
      <trkpt lat="49.58577" lon="-1.27061">
        <ele>1.8</ele>
        <time>2020-06-15T12:50:23Z</time>
      </trkpt>
      <trkpt lat="49.58578" lon="-1.27068">
        <ele>1.7</ele>
        <time>2020-06-15T12:50:24Z</time>
      </trkpt>
      <trkpt lat="49.58579" lon="-1.27076">
        <ele>1.7</ele>
        <time>2020-06-15T12:50:25Z</time>
      </trkpt>
      <trkpt lat="49.58581" lon="-1.27084">
        <ele>1.7</ele>
        <time>2020-06-15T12:50:26Z</time>
      </trkpt>
      <trkpt lat="49.58583" lon="-1.27093">
        <ele>1.7</ele>
        <time>2020-06-15T12:50:27Z</time>
      </trkpt>
      <trkpt lat="49.58584" lon="-1.271">
        <ele>1.7</ele>
        <time>2020-06-15T12:50:28Z</time>
      </trkpt>
      <trkpt lat="49.58586" lon="-1.27107">
        <ele>1.7</ele>
        <time>2020-06-15T12:50:29Z</time>
      </trkpt>
      <trkpt lat="49.58588" lon="-1.27113">
        <ele>1.7</ele>
        <time>2020-06-15T12:50:30Z</time>
      </trkpt>
      <trkpt lat="49.58589" lon="-1.27119">
        <ele>1.7</ele>
        <time>2020-06-15T12:50:31Z</time>
      </trkpt>
      <trkpt lat="49.58591" lon="-1.27124">
        <ele>1.7</ele>
        <time>2020-06-15T12:50:32Z</time>
      </trkpt>
      <trkpt lat="49.58594" lon="-1.27132">
        <ele>1.8</ele>
        <time>2020-06-15T12:50:33Z</time>
      </trkpt>
      <trkpt lat="49.58597" lon="-1.27139">
        <ele>1.8</ele>
        <time>2020-06-15T12:50:34Z</time>
      </trkpt>
      <trkpt lat="49.586" lon="-1.27145">
        <ele>1.8</ele>
        <time>2020-06-15T12:50:35Z</time>
      </trkpt>
      <trkpt lat="49.58603" lon="-1.27151">
        <ele>1.9</ele>
        <time>2020-06-15T12:50:36Z</time>
      </trkpt>
      <trkpt lat="49.58605" lon="-1.27157">
        <ele>1.9</ele>
        <time>2020-06-15T12:50:37Z</time>
      </trkpt>
      <trkpt lat="49.58609" lon="-1.27166">
        <ele>2</ele>
        <time>2020-06-15T12:50:38Z</time>
      </trkpt>
      <trkpt lat="49.58612" lon="-1.27173">
        <ele>2</ele>
        <time>2020-06-15T12:50:39Z</time>
      </trkpt>
      <trkpt lat="49.58615" lon="-1.2718">
        <ele>2</ele>
        <time>2020-06-15T12:50:40Z</time>
      </trkpt>
      <trkpt lat="49.58618" lon="-1.27186">
        <ele>1.9</ele>
        <time>2020-06-15T12:50:41Z</time>
      </trkpt>
      <trkpt lat="49.58621" lon="-1.27193">
        <ele>1.9</ele>
        <time>2020-06-15T12:50:42Z</time>
      </trkpt>
      <trkpt lat="49.58624" lon="-1.27199">
        <ele>1.9</ele>
        <time>2020-06-15T12:50:43Z</time>
      </trkpt>
      <trkpt lat="49.58627" lon="-1.27206">
        <ele>1.9</ele>
        <time>2020-06-15T12:50:44Z</time>
      </trkpt>
      <trkpt lat="49.58629" lon="-1.27213">
        <ele>1.9</ele>
        <time>2020-06-15T12:50:45Z</time>
      </trkpt>
      <trkpt lat="49.58632" lon="-1.27219">
        <ele>1.9</ele>
        <time>2020-06-15T12:50:46Z</time>
      </trkpt>
      <trkpt lat="49.58634" lon="-1.27225">
        <ele>2</ele>
        <time>2020-06-15T12:50:47Z</time>
      </trkpt>
      <trkpt lat="49.58637" lon="-1.27231">
        <ele>2</ele>
        <time>2020-06-15T12:50:48Z</time>
      </trkpt>
      <trkpt lat="49.5864" lon="-1.27236">
        <ele>2</ele>
        <time>2020-06-15T12:50:49Z</time>
      </trkpt>
      <trkpt lat="49.58643" lon="-1.27242">
        <ele>2</ele>
        <time>2020-06-15T12:50:50Z</time>
      </trkpt>
      <trkpt lat="49.58647" lon="-1.27247">
        <ele>2.1</ele>
        <time>2020-06-15T12:50:51Z</time>
      </trkpt>
      <trkpt lat="49.58651" lon="-1.27253">
        <ele>2.1</ele>
        <time>2020-06-15T12:50:52Z</time>
      </trkpt>
      <trkpt lat="49.58655" lon="-1.27259">
        <ele>2.1</ele>
        <time>2020-06-15T12:50:53Z</time>
      </trkpt>
      <trkpt lat="49.58659" lon="-1.27265">
        <ele>2.1</ele>
        <time>2020-06-15T12:50:54Z</time>
      </trkpt>
      <trkpt lat="49.58663" lon="-1.27271">
        <ele>2.1</ele>
        <time>2020-06-15T12:50:55Z</time>
      </trkpt>
      <trkpt lat="49.58666" lon="-1.27278">
        <ele>2.1</ele>
        <time>2020-06-15T12:50:56Z</time>
      </trkpt>
      <trkpt lat="49.5867" lon="-1.27284">
        <ele>2.2</ele>
        <time>2020-06-15T12:50:57Z</time>
      </trkpt>
      <trkpt lat="49.58674" lon="-1.2729">
        <ele>2.2</ele>
        <time>2020-06-15T12:50:58Z</time>
      </trkpt>
      <trkpt lat="49.58679" lon="-1.27295">
        <ele>2.3</ele>
        <time>2020-06-15T12:50:59Z</time>
      </trkpt>
      <trkpt lat="49.58683" lon="-1.273">
        <ele>2.3</ele>
        <time>2020-06-15T12:51:00Z</time>
      </trkpt>
      <trkpt lat="49.58687" lon="-1.27306">
        <ele>2.4</ele>
        <time>2020-06-15T12:51:01Z</time>
      </trkpt>
      <trkpt lat="49.58691" lon="-1.2731">
        <ele>2.4</ele>
        <time>2020-06-15T12:51:02Z</time>
      </trkpt>
      <trkpt lat="49.58695" lon="-1.27314">
        <ele>2.5</ele>
        <time>2020-06-15T12:51:03Z</time>
      </trkpt>
      <trkpt lat="49.58699" lon="-1.27319">
        <ele>2.5</ele>
        <time>2020-06-15T12:51:04Z</time>
      </trkpt>
      <trkpt lat="49.58703" lon="-1.27323">
        <ele>2.6</ele>
        <time>2020-06-15T12:51:05Z</time>
      </trkpt>
      <trkpt lat="49.58707" lon="-1.27327">
        <ele>2.6</ele>
        <time>2020-06-15T12:51:06Z</time>
      </trkpt>
      <trkpt lat="49.58711" lon="-1.27331">
        <ele>2.7</ele>
        <time>2020-06-15T12:51:07Z</time>
      </trkpt>
      <trkpt lat="49.58716" lon="-1.27334">
        <ele>2.8</ele>
        <time>2020-06-15T12:51:08Z</time>
      </trkpt>
      <trkpt lat="49.58721" lon="-1.27336">
        <ele>2.9</ele>
        <time>2020-06-15T12:51:09Z</time>
      </trkpt>
      <trkpt lat="49.58726" lon="-1.27338">
        <ele>2.9</ele>
        <time>2020-06-15T12:51:10Z</time>
      </trkpt>
      <trkpt lat="49.5873" lon="-1.27339">
        <ele>3</ele>
        <time>2020-06-15T12:51:11Z</time>
      </trkpt>
      <trkpt lat="49.58735" lon="-1.27341">
        <ele>3.1</ele>
        <time>2020-06-15T12:51:12Z</time>
      </trkpt>
      <trkpt lat="49.58739" lon="-1.27343">
        <ele>3.2</ele>
        <time>2020-06-15T12:51:13Z</time>
      </trkpt>
      <trkpt lat="49.58742" lon="-1.27345">
        <ele>3.2</ele>
        <time>2020-06-15T12:51:14Z</time>
      </trkpt>
      <trkpt lat="49.58745" lon="-1.27346">
        <ele>3.3</ele>
        <time>2020-06-15T12:51:15Z</time>
      </trkpt>
      <trkpt lat="49.58748" lon="-1.27348">
        <ele>3.3</ele>
        <time>2020-06-15T12:51:16Z</time>
      </trkpt>
      <trkpt lat="49.58751" lon="-1.27348">
        <ele>3.3</ele>
        <time>2020-06-15T12:51:17Z</time>
      </trkpt>
      <trkpt lat="49.58754" lon="-1.2735">
        <ele>3.4</ele>
        <time>2020-06-15T12:51:18Z</time>
      </trkpt>
      <trkpt lat="49.58757" lon="-1.27351">
        <ele>3.4</ele>
        <time>2020-06-15T12:51:19Z</time>
      </trkpt>
      <trkpt lat="49.58759" lon="-1.27351">
        <ele>3.4</ele>
        <time>2020-06-15T12:51:20Z</time>
      </trkpt>
      <trkpt lat="49.5876" lon="-1.27351">
        <ele>3.4</ele>
        <time>2020-06-15T12:51:21Z</time>
      </trkpt>
      <trkpt lat="49.58761" lon="-1.27351">
        <ele>3.4</ele>
        <time>2020-06-15T12:51:22Z</time>
      </trkpt>
      <trkpt lat="49.58762" lon="-1.27353">
        <ele>3.4</ele>
        <time>2020-06-15T12:51:23Z</time>
      </trkpt>
      <trkpt lat="49.58763" lon="-1.27355">
        <ele>3.4</ele>
        <time>2020-06-15T12:51:24Z</time>
      </trkpt>
      <trkpt lat="49.58766" lon="-1.27359">
        <ele>3.4</ele>
        <time>2020-06-15T12:51:25Z</time>
      </trkpt>
      <trkpt lat="49.58767" lon="-1.27361">
        <ele>3.5</ele>
        <time>2020-06-15T12:51:26Z</time>
      </trkpt>
      <trkpt lat="49.58768" lon="-1.27367">
        <ele>3.4</ele>
        <time>2020-06-15T12:51:27Z</time>
      </trkpt>
      <trkpt lat="49.58768" lon="-1.2737">
        <ele>3.4</ele>
        <time>2020-06-15T12:51:28Z</time>
      </trkpt>
      <trkpt lat="49.58769" lon="-1.27375">
        <ele>3.4</ele>
        <time>2020-06-15T12:51:29Z</time>
      </trkpt>
      <trkpt lat="49.58771" lon="-1.27382">
        <ele>3.4</ele>
        <time>2020-06-15T12:51:30Z</time>
      </trkpt>
      <trkpt lat="49.58772" lon="-1.27388">
        <ele>3.3</ele>
        <time>2020-06-15T12:51:31Z</time>
      </trkpt>
      <trkpt lat="49.58774" lon="-1.27394">
        <ele>3.3</ele>
        <time>2020-06-15T12:51:32Z</time>
      </trkpt>
      <trkpt lat="49.58776" lon="-1.27399">
        <ele>3.3</ele>
        <time>2020-06-15T12:51:33Z</time>
      </trkpt>
      <trkpt lat="49.58777" lon="-1.27405">
        <ele>3.3</ele>
        <time>2020-06-15T12:51:34Z</time>
      </trkpt>
      <trkpt lat="49.58778" lon="-1.27413">
        <ele>3.3</ele>
        <time>2020-06-15T12:51:35Z</time>
      </trkpt>
      <trkpt lat="49.5878" lon="-1.2742">
        <ele>3.3</ele>
        <time>2020-06-15T12:51:36Z</time>
      </trkpt>
      <trkpt lat="49.58782" lon="-1.27428">
        <ele>3.3</ele>
        <time>2020-06-15T12:51:37Z</time>
      </trkpt>
      <trkpt lat="49.58783" lon="-1.27434">
        <ele>3.2</ele>
        <time>2020-06-15T12:51:38Z</time>
      </trkpt>
      <trkpt lat="49.58783" lon="-1.27442">
        <ele>3.2</ele>
        <time>2020-06-15T12:51:39Z</time>
      </trkpt>
      <trkpt lat="49.58784" lon="-1.27449">
        <ele>3.2</ele>
        <time>2020-06-15T12:51:40Z</time>
      </trkpt>
      <trkpt lat="49.58785" lon="-1.27457">
        <ele>3.2</ele>
        <time>2020-06-15T12:51:41Z</time>
      </trkpt>
      <trkpt lat="49.58786" lon="-1.27464">
        <ele>3.1</ele>
        <time>2020-06-15T12:51:42Z</time>
      </trkpt>
      <trkpt lat="49.58787" lon="-1.27471">
        <ele>3.1</ele>
        <time>2020-06-15T12:51:43Z</time>
      </trkpt>
      <trkpt lat="49.58789" lon="-1.27477">
        <ele>3.1</ele>
        <time>2020-06-15T12:51:44Z</time>
      </trkpt>
      <trkpt lat="49.5879" lon="-1.27483">
        <ele>3.1</ele>
        <time>2020-06-15T12:51:45Z</time>
      </trkpt>
      <trkpt lat="49.58791" lon="-1.27491">
        <ele>3.1</ele>
        <time>2020-06-15T12:51:46Z</time>
      </trkpt>
      <trkpt lat="49.58792" lon="-1.27499">
        <ele>3.1</ele>
        <time>2020-06-15T12:51:47Z</time>
      </trkpt>
      <trkpt lat="49.58793" lon="-1.27506">
        <ele>3.1</ele>
        <time>2020-06-15T12:51:48Z</time>
      </trkpt>
      <trkpt lat="49.58795" lon="-1.27513">
        <ele>3</ele>
        <time>2020-06-15T12:51:49Z</time>
      </trkpt>
      <trkpt lat="49.58796" lon="-1.27522">
        <ele>3</ele>
        <time>2020-06-15T12:51:50Z</time>
      </trkpt>
      <trkpt lat="49.58797" lon="-1.2753">
        <ele>3</ele>
        <time>2020-06-15T12:51:51Z</time>
      </trkpt>
      <trkpt lat="49.58798" lon="-1.27538">
        <ele>3</ele>
        <time>2020-06-15T12:51:52Z</time>
      </trkpt>
      <trkpt lat="49.58799" lon="-1.27546">
        <ele>3</ele>
        <time>2020-06-15T12:51:53Z</time>
      </trkpt>
      <trkpt lat="49.588" lon="-1.27552">
        <ele>3</ele>
        <time>2020-06-15T12:51:54Z</time>
      </trkpt>
      <trkpt lat="49.588" lon="-1.2756">
        <ele>3</ele>
        <time>2020-06-15T12:51:55Z</time>
      </trkpt>
      <trkpt lat="49.58801" lon="-1.27567">
        <ele>3</ele>
        <time>2020-06-15T12:51:56Z</time>
      </trkpt>
      <trkpt lat="49.58802" lon="-1.27575">
        <ele>3</ele>
        <time>2020-06-15T12:51:57Z</time>
      </trkpt>
      <trkpt lat="49.58803" lon="-1.27583">
        <ele>3</ele>
        <time>2020-06-15T12:51:58Z</time>
      </trkpt>
      <trkpt lat="49.58805" lon="-1.2759">
        <ele>3</ele>
        <time>2020-06-15T12:51:59Z</time>
      </trkpt>
      <trkpt lat="49.58806" lon="-1.27598">
        <ele>3</ele>
        <time>2020-06-15T12:52:00Z</time>
      </trkpt>
      <trkpt lat="49.58807" lon="-1.27606">
        <ele>3.1</ele>
        <time>2020-06-15T12:52:01Z</time>
      </trkpt>
      <trkpt lat="49.58809" lon="-1.27614">
        <ele>3.1</ele>
        <time>2020-06-15T12:52:02Z</time>
      </trkpt>
      <trkpt lat="49.5881" lon="-1.27621">
        <ele>3.1</ele>
        <time>2020-06-15T12:52:03Z</time>
      </trkpt>
      <trkpt lat="49.58812" lon="-1.27629">
        <ele>3.1</ele>
        <time>2020-06-15T12:52:04Z</time>
      </trkpt>
      <trkpt lat="49.58813" lon="-1.27637">
        <ele>3.2</ele>
        <time>2020-06-15T12:52:05Z</time>
      </trkpt>
      <trkpt lat="49.58814" lon="-1.27645">
        <ele>3.2</ele>
        <time>2020-06-15T12:52:06Z</time>
      </trkpt>
      <trkpt lat="49.58816" lon="-1.27653">
        <ele>3.2</ele>
        <time>2020-06-15T12:52:07Z</time>
      </trkpt>
      <trkpt lat="49.58818" lon="-1.27661">
        <ele>3.2</ele>
        <time>2020-06-15T12:52:08Z</time>
      </trkpt>
      <trkpt lat="49.5882" lon="-1.27669">
        <ele>3.2</ele>
        <time>2020-06-15T12:52:09Z</time>
      </trkpt>
      <trkpt lat="49.58821" lon="-1.27676">
        <ele>3.3</ele>
        <time>2020-06-15T12:52:10Z</time>
      </trkpt>
      <trkpt lat="49.58822" lon="-1.27684">
        <ele>3.3</ele>
        <time>2020-06-15T12:52:11Z</time>
      </trkpt>
      <trkpt lat="49.58824" lon="-1.27692">
        <ele>3.3</ele>
        <time>2020-06-15T12:52:12Z</time>
      </trkpt>
      <trkpt lat="49.58825" lon="-1.27701">
        <ele>3.3</ele>
        <time>2020-06-15T12:52:13Z</time>
      </trkpt>
      <trkpt lat="49.58826" lon="-1.27707">
        <ele>3.4</ele>
        <time>2020-06-15T12:52:14Z</time>
      </trkpt>
      <trkpt lat="49.58827" lon="-1.27714">
        <ele>3.4</ele>
        <time>2020-06-15T12:52:15Z</time>
      </trkpt>
      <trkpt lat="49.58828" lon="-1.27722">
        <ele>3.4</ele>
        <time>2020-06-15T12:52:16Z</time>
      </trkpt>
      <trkpt lat="49.58829" lon="-1.27729">
        <ele>3.5</ele>
        <time>2020-06-15T12:52:17Z</time>
      </trkpt>
      <trkpt lat="49.5883" lon="-1.27737">
        <ele>3.5</ele>
        <time>2020-06-15T12:52:18Z</time>
      </trkpt>
      <trkpt lat="49.58831" lon="-1.27746">
        <ele>3.5</ele>
        <time>2020-06-15T12:52:19Z</time>
      </trkpt>
      <trkpt lat="49.58833" lon="-1.27752">
        <ele>3.5</ele>
        <time>2020-06-15T12:52:20Z</time>
      </trkpt>
      <trkpt lat="49.58835" lon="-1.2776">
        <ele>3.4</ele>
        <time>2020-06-15T12:52:21Z</time>
      </trkpt>
      <trkpt lat="49.58837" lon="-1.27768">
        <ele>3.3</ele>
        <time>2020-06-15T12:52:22Z</time>
      </trkpt>
      <trkpt lat="49.58838" lon="-1.27777">
        <ele>3.2</ele>
        <time>2020-06-15T12:52:23Z</time>
      </trkpt>
      <trkpt lat="49.5884" lon="-1.27785">
        <ele>3.2</ele>
        <time>2020-06-15T12:52:24Z</time>
      </trkpt>
      <trkpt lat="49.58841" lon="-1.27794">
        <ele>3.1</ele>
        <time>2020-06-15T12:52:25Z</time>
      </trkpt>
      <trkpt lat="49.58843" lon="-1.27802">
        <ele>3.1</ele>
        <time>2020-06-15T12:52:26Z</time>
      </trkpt>
      <trkpt lat="49.58844" lon="-1.27811">
        <ele>3.1</ele>
        <time>2020-06-15T12:52:27Z</time>
      </trkpt>
      <trkpt lat="49.58846" lon="-1.2782">
        <ele>3.1</ele>
        <time>2020-06-15T12:52:28Z</time>
      </trkpt>
      <trkpt lat="49.58847" lon="-1.27828">
        <ele>3.1</ele>
        <time>2020-06-15T12:52:29Z</time>
      </trkpt>
      <trkpt lat="49.58848" lon="-1.27837">
        <ele>3</ele>
        <time>2020-06-15T12:52:30Z</time>
      </trkpt>
      <trkpt lat="49.58849" lon="-1.27846">
        <ele>3</ele>
        <time>2020-06-15T12:52:31Z</time>
      </trkpt>
      <trkpt lat="49.58851" lon="-1.27855">
        <ele>3</ele>
        <time>2020-06-15T12:52:32Z</time>
      </trkpt>
      <trkpt lat="49.58851" lon="-1.27862">
        <ele>3</ele>
        <time>2020-06-15T12:52:33Z</time>
      </trkpt>
      <trkpt lat="49.58853" lon="-1.27871">
        <ele>3</ele>
        <time>2020-06-15T12:52:34Z</time>
      </trkpt>
      <trkpt lat="49.58854" lon="-1.27879">
        <ele>3</ele>
        <time>2020-06-15T12:52:35Z</time>
      </trkpt>
      <trkpt lat="49.58856" lon="-1.27887">
        <ele>3</ele>
        <time>2020-06-15T12:52:36Z</time>
      </trkpt>
      <trkpt lat="49.58857" lon="-1.27896">
        <ele>2.9</ele>
        <time>2020-06-15T12:52:37Z</time>
      </trkpt>
      <trkpt lat="49.58859" lon="-1.27903">
        <ele>2.9</ele>
        <time>2020-06-15T12:52:38Z</time>
      </trkpt>
      <trkpt lat="49.5886" lon="-1.27912">
        <ele>2.8</ele>
        <time>2020-06-15T12:52:39Z</time>
      </trkpt>
      <trkpt lat="49.58861" lon="-1.27921">
        <ele>2.8</ele>
        <time>2020-06-15T12:52:40Z</time>
      </trkpt>
      <trkpt lat="49.58862" lon="-1.27929">
        <ele>2.8</ele>
        <time>2020-06-15T12:52:41Z</time>
      </trkpt>
      <trkpt lat="49.58863" lon="-1.27938">
        <ele>2.7</ele>
        <time>2020-06-15T12:52:42Z</time>
      </trkpt>
      <trkpt lat="49.58864" lon="-1.27945">
        <ele>2.7</ele>
        <time>2020-06-15T12:52:43Z</time>
      </trkpt>
      <trkpt lat="49.58865" lon="-1.27953">
        <ele>2.7</ele>
        <time>2020-06-15T12:52:44Z</time>
      </trkpt>
      <trkpt lat="49.58866" lon="-1.27961">
        <ele>2.7</ele>
        <time>2020-06-15T12:52:45Z</time>
      </trkpt>
      <trkpt lat="49.58867" lon="-1.2797">
        <ele>2.6</ele>
        <time>2020-06-15T12:52:46Z</time>
      </trkpt>
      <trkpt lat="49.58868" lon="-1.27977">
        <ele>2.6</ele>
        <time>2020-06-15T12:52:47Z</time>
      </trkpt>
      <trkpt lat="49.5887" lon="-1.27984">
        <ele>2.6</ele>
        <time>2020-06-15T12:52:48Z</time>
      </trkpt>
      <trkpt lat="49.58871" lon="-1.27992">
        <ele>2.6</ele>
        <time>2020-06-15T12:52:49Z</time>
      </trkpt>
      <trkpt lat="49.58873" lon="-1.28">
        <ele>2.6</ele>
        <time>2020-06-15T12:52:50Z</time>
      </trkpt>
      <trkpt lat="49.58875" lon="-1.28007">
        <ele>2.6</ele>
        <time>2020-06-15T12:52:51Z</time>
      </trkpt>
      <trkpt lat="49.58878" lon="-1.28014">
        <ele>2.6</ele>
        <time>2020-06-15T12:52:52Z</time>
      </trkpt>
      <trkpt lat="49.58881" lon="-1.28021">
        <ele>2.6</ele>
        <time>2020-06-15T12:52:53Z</time>
      </trkpt>
      <trkpt lat="49.58883" lon="-1.28029">
        <ele>2.6</ele>
        <time>2020-06-15T12:52:54Z</time>
      </trkpt>
      <trkpt lat="49.58886" lon="-1.28036">
        <ele>2.6</ele>
        <time>2020-06-15T12:52:55Z</time>
      </trkpt>
      <trkpt lat="49.58889" lon="-1.28042">
        <ele>2.6</ele>
        <time>2020-06-15T12:52:56Z</time>
      </trkpt>
      <trkpt lat="49.58891" lon="-1.28048">
        <ele>2.6</ele>
        <time>2020-06-15T12:52:57Z</time>
      </trkpt>
      <trkpt lat="49.58895" lon="-1.28054">
        <ele>2.6</ele>
        <time>2020-06-15T12:52:58Z</time>
      </trkpt>
      <trkpt lat="49.58898" lon="-1.28059">
        <ele>2.6</ele>
        <time>2020-06-15T12:52:59Z</time>
      </trkpt>
      <trkpt lat="49.58901" lon="-1.28065">
        <ele>2.7</ele>
        <time>2020-06-15T12:53:00Z</time>
      </trkpt>
      <trkpt lat="49.58903" lon="-1.28071">
        <ele>2.7</ele>
        <time>2020-06-15T12:53:01Z</time>
      </trkpt>
      <trkpt lat="49.58905" lon="-1.2808">
        <ele>2.7</ele>
        <time>2020-06-15T12:53:02Z</time>
      </trkpt>
      <trkpt lat="49.58904" lon="-1.28088">
        <ele>2.7</ele>
        <time>2020-06-15T12:53:03Z</time>
      </trkpt>
      <trkpt lat="49.58903" lon="-1.28096">
        <ele>2.7</ele>
        <time>2020-06-15T12:53:04Z</time>
      </trkpt>
      <trkpt lat="49.58901" lon="-1.28103">
        <ele>2.7</ele>
        <time>2020-06-15T12:53:05Z</time>
      </trkpt>
      <trkpt lat="49.58901" lon="-1.28112">
        <ele>2.7</ele>
        <time>2020-06-15T12:53:06Z</time>
      </trkpt>
      <trkpt lat="49.58901" lon="-1.28121">
        <ele>2.6</ele>
        <time>2020-06-15T12:53:07Z</time>
      </trkpt>
      <trkpt lat="49.58902" lon="-1.28129">
        <ele>2.6</ele>
        <time>2020-06-15T12:53:08Z</time>
      </trkpt>
      <trkpt lat="49.58903" lon="-1.28137">
        <ele>2.6</ele>
        <time>2020-06-15T12:53:09Z</time>
      </trkpt>
      <trkpt lat="49.58904" lon="-1.28145">
        <ele>2.6</ele>
        <time>2020-06-15T12:53:10Z</time>
      </trkpt>
      <trkpt lat="49.58904" lon="-1.28154">
        <ele>2.6</ele>
        <time>2020-06-15T12:53:11Z</time>
      </trkpt>
      <trkpt lat="49.58904" lon="-1.28163">
        <ele>2.7</ele>
        <time>2020-06-15T12:53:12Z</time>
      </trkpt>
      <trkpt lat="49.58905" lon="-1.28171">
        <ele>2.7</ele>
        <time>2020-06-15T12:53:13Z</time>
      </trkpt>
      <trkpt lat="49.58906" lon="-1.28179">
        <ele>2.7</ele>
        <time>2020-06-15T12:53:14Z</time>
      </trkpt>
      <trkpt lat="49.58907" lon="-1.28188">
        <ele>2.7</ele>
        <time>2020-06-15T12:53:15Z</time>
      </trkpt>
      <trkpt lat="49.58908" lon="-1.28196">
        <ele>2.7</ele>
        <time>2020-06-15T12:53:16Z</time>
      </trkpt>
      <trkpt lat="49.58909" lon="-1.28205">
        <ele>2.7</ele>
        <time>2020-06-15T12:53:17Z</time>
      </trkpt>
      <trkpt lat="49.5891" lon="-1.28213">
        <ele>2.7</ele>
        <time>2020-06-15T12:53:18Z</time>
      </trkpt>
      <trkpt lat="49.58912" lon="-1.28222">
        <ele>2.7</ele>
        <time>2020-06-15T12:53:19Z</time>
      </trkpt>
      <trkpt lat="49.58912" lon="-1.2823">
        <ele>2.8</ele>
        <time>2020-06-15T12:53:20Z</time>
      </trkpt>
      <trkpt lat="49.58914" lon="-1.28238">
        <ele>2.8</ele>
        <time>2020-06-15T12:53:21Z</time>
      </trkpt>
      <trkpt lat="49.58915" lon="-1.28247">
        <ele>2.8</ele>
        <time>2020-06-15T12:53:22Z</time>
      </trkpt>
      <trkpt lat="49.58917" lon="-1.28256">
        <ele>2.8</ele>
        <time>2020-06-15T12:53:23Z</time>
      </trkpt>
      <trkpt lat="49.58918" lon="-1.28264">
        <ele>2.8</ele>
        <time>2020-06-15T12:53:24Z</time>
      </trkpt>
      <trkpt lat="49.5892" lon="-1.28272">
        <ele>2.9</ele>
        <time>2020-06-15T12:53:25Z</time>
      </trkpt>
      <trkpt lat="49.58921" lon="-1.2828">
        <ele>2.9</ele>
        <time>2020-06-15T12:53:26Z</time>
      </trkpt>
      <trkpt lat="49.58923" lon="-1.28289">
        <ele>2.9</ele>
        <time>2020-06-15T12:53:27Z</time>
      </trkpt>
      <trkpt lat="49.58925" lon="-1.28297">
        <ele>2.9</ele>
        <time>2020-06-15T12:53:28Z</time>
      </trkpt>
      <trkpt lat="49.58927" lon="-1.28305">
        <ele>2.9</ele>
        <time>2020-06-15T12:53:29Z</time>
      </trkpt>
      <trkpt lat="49.5893" lon="-1.28313">
        <ele>2.9</ele>
        <time>2020-06-15T12:53:30Z</time>
      </trkpt>
      <trkpt lat="49.58932" lon="-1.28322">
        <ele>3</ele>
        <time>2020-06-15T12:53:31Z</time>
      </trkpt>
      <trkpt lat="49.58934" lon="-1.28331">
        <ele>3</ele>
        <time>2020-06-15T12:53:32Z</time>
      </trkpt>
      <trkpt lat="49.58935" lon="-1.28339">
        <ele>3</ele>
        <time>2020-06-15T12:53:33Z</time>
      </trkpt>
      <trkpt lat="49.58936" lon="-1.28348">
        <ele>3</ele>
        <time>2020-06-15T12:53:34Z</time>
      </trkpt>
      <trkpt lat="49.58937" lon="-1.28355">
        <ele>3</ele>
        <time>2020-06-15T12:53:35Z</time>
      </trkpt>
      <trkpt lat="49.58939" lon="-1.28365">
        <ele>3</ele>
        <time>2020-06-15T12:53:36Z</time>
      </trkpt>
      <trkpt lat="49.5894" lon="-1.28373">
        <ele>3</ele>
        <time>2020-06-15T12:53:37Z</time>
      </trkpt>
      <trkpt lat="49.58942" lon="-1.28382">
        <ele>3</ele>
        <time>2020-06-15T12:53:38Z</time>
      </trkpt>
      <trkpt lat="49.58943" lon="-1.2839">
        <ele>2.9</ele>
        <time>2020-06-15T12:53:39Z</time>
      </trkpt>
      <trkpt lat="49.58944" lon="-1.28397">
        <ele>2.9</ele>
        <time>2020-06-15T12:53:40Z</time>
      </trkpt>
      <trkpt lat="49.58945" lon="-1.28406">
        <ele>2.9</ele>
        <time>2020-06-15T12:53:41Z</time>
      </trkpt>
      <trkpt lat="49.58947" lon="-1.28414">
        <ele>2.9</ele>
        <time>2020-06-15T12:53:42Z</time>
      </trkpt>
      <trkpt lat="49.58948" lon="-1.28424">
        <ele>2.9</ele>
        <time>2020-06-15T12:53:43Z</time>
      </trkpt>
      <trkpt lat="49.5895" lon="-1.28433">
        <ele>2.9</ele>
        <time>2020-06-15T12:53:44Z</time>
      </trkpt>
      <trkpt lat="49.58951" lon="-1.28442">
        <ele>2.8</ele>
        <time>2020-06-15T12:53:45Z</time>
      </trkpt>
      <trkpt lat="49.58952" lon="-1.2845">
        <ele>2.8</ele>
        <time>2020-06-15T12:53:46Z</time>
      </trkpt>
      <trkpt lat="49.58953" lon="-1.28459">
        <ele>2.7</ele>
        <time>2020-06-15T12:53:47Z</time>
      </trkpt>
      <trkpt lat="49.58954" lon="-1.28466">
        <ele>2.7</ele>
        <time>2020-06-15T12:53:48Z</time>
      </trkpt>
      <trkpt lat="49.58955" lon="-1.28475">
        <ele>2.7</ele>
        <time>2020-06-15T12:53:49Z</time>
      </trkpt>
      <trkpt lat="49.58957" lon="-1.28484">
        <ele>2.7</ele>
        <time>2020-06-15T12:53:50Z</time>
      </trkpt>
      <trkpt lat="49.58959" lon="-1.28493">
        <ele>2.7</ele>
        <time>2020-06-15T12:53:51Z</time>
      </trkpt>
      <trkpt lat="49.58961" lon="-1.28503">
        <ele>2.7</ele>
        <time>2020-06-15T12:53:52Z</time>
      </trkpt>
      <trkpt lat="49.58963" lon="-1.28511">
        <ele>2.7</ele>
        <time>2020-06-15T12:53:53Z</time>
      </trkpt>
      <trkpt lat="49.58964" lon="-1.28519">
        <ele>2.7</ele>
        <time>2020-06-15T12:53:54Z</time>
      </trkpt>
      <trkpt lat="49.58966" lon="-1.28527">
        <ele>2.7</ele>
        <time>2020-06-15T12:53:55Z</time>
      </trkpt>
      <trkpt lat="49.58967" lon="-1.28536">
        <ele>2.7</ele>
        <time>2020-06-15T12:53:56Z</time>
      </trkpt>
      <trkpt lat="49.58969" lon="-1.28544">
        <ele>2.7</ele>
        <time>2020-06-15T12:53:57Z</time>
      </trkpt>
      <trkpt lat="49.5897" lon="-1.28553">
        <ele>2.7</ele>
        <time>2020-06-15T12:53:58Z</time>
      </trkpt>
      <trkpt lat="49.58971" lon="-1.28561">
        <ele>2.7</ele>
        <time>2020-06-15T12:53:59Z</time>
      </trkpt>
      <trkpt lat="49.58973" lon="-1.2857">
        <ele>2.7</ele>
        <time>2020-06-15T12:54:00Z</time>
      </trkpt>
      <trkpt lat="49.58974" lon="-1.28577">
        <ele>2.7</ele>
        <time>2020-06-15T12:54:01Z</time>
      </trkpt>
      <trkpt lat="49.58975" lon="-1.28585">
        <ele>2.7</ele>
        <time>2020-06-15T12:54:02Z</time>
      </trkpt>
      <trkpt lat="49.58975" lon="-1.28593">
        <ele>2.7</ele>
        <time>2020-06-15T12:54:03Z</time>
      </trkpt>
      <trkpt lat="49.58976" lon="-1.28602">
        <ele>2.7</ele>
        <time>2020-06-15T12:54:04Z</time>
      </trkpt>
      <trkpt lat="49.58978" lon="-1.2861">
        <ele>2.7</ele>
        <time>2020-06-15T12:54:05Z</time>
      </trkpt>
      <trkpt lat="49.58979" lon="-1.28618">
        <ele>2.7</ele>
        <time>2020-06-15T12:54:06Z</time>
      </trkpt>
      <trkpt lat="49.5898" lon="-1.28627">
        <ele>2.7</ele>
        <time>2020-06-15T12:54:07Z</time>
      </trkpt>
      <trkpt lat="49.58982" lon="-1.28636">
        <ele>2.7</ele>
        <time>2020-06-15T12:54:08Z</time>
      </trkpt>
      <trkpt lat="49.58983" lon="-1.28645">
        <ele>2.7</ele>
        <time>2020-06-15T12:54:09Z</time>
      </trkpt>
      <trkpt lat="49.58985" lon="-1.28654">
        <ele>2.7</ele>
        <time>2020-06-15T12:54:10Z</time>
      </trkpt>
      <trkpt lat="49.58987" lon="-1.28661">
        <ele>2.7</ele>
        <time>2020-06-15T12:54:11Z</time>
      </trkpt>
      <trkpt lat="49.58989" lon="-1.28669">
        <ele>2.8</ele>
        <time>2020-06-15T12:54:12Z</time>
      </trkpt>
      <trkpt lat="49.5899" lon="-1.28677">
        <ele>2.8</ele>
        <time>2020-06-15T12:54:13Z</time>
      </trkpt>
      <trkpt lat="49.58992" lon="-1.28684">
        <ele>2.8</ele>
        <time>2020-06-15T12:54:14Z</time>
      </trkpt>
      <trkpt lat="49.58993" lon="-1.28693">
        <ele>2.7</ele>
        <time>2020-06-15T12:54:15Z</time>
      </trkpt>
      <trkpt lat="49.58994" lon="-1.28701">
        <ele>2.6</ele>
        <time>2020-06-15T12:54:16Z</time>
      </trkpt>
      <trkpt lat="49.58995" lon="-1.28709">
        <ele>2.5</ele>
        <time>2020-06-15T12:54:17Z</time>
      </trkpt>
      <trkpt lat="49.58997" lon="-1.28718">
        <ele>2.4</ele>
        <time>2020-06-15T12:54:18Z</time>
      </trkpt>
      <trkpt lat="49.58998" lon="-1.28726">
        <ele>2.3</ele>
        <time>2020-06-15T12:54:19Z</time>
      </trkpt>
      <trkpt lat="49.59" lon="-1.28734">
        <ele>2.4</ele>
        <time>2020-06-15T12:54:20Z</time>
      </trkpt>
      <trkpt lat="49.59003" lon="-1.28741">
        <ele>2.4</ele>
        <time>2020-06-15T12:54:21Z</time>
      </trkpt>
      <trkpt lat="49.59007" lon="-1.28746">
        <ele>2.4</ele>
        <time>2020-06-15T12:54:22Z</time>
      </trkpt>
      <trkpt lat="49.5901" lon="-1.28753">
        <ele>2.4</ele>
        <time>2020-06-15T12:54:23Z</time>
      </trkpt>
      <trkpt lat="49.59014" lon="-1.28757">
        <ele>3.8</ele>
        <time>2020-06-15T12:54:24Z</time>
      </trkpt>
      <trkpt lat="49.59017" lon="-1.28763">
        <ele>3.4</ele>
        <time>2020-06-15T12:54:25Z</time>
      </trkpt>
      <trkpt lat="49.59018" lon="-1.2877">
        <ele>3</ele>
        <time>2020-06-15T12:54:26Z</time>
      </trkpt>
      <trkpt lat="49.59019" lon="-1.28778">
        <ele>3.4</ele>
        <time>2020-06-15T12:54:27Z</time>
      </trkpt>
      <trkpt lat="49.59019" lon="-1.28786">
        <ele>3.1</ele>
        <time>2020-06-15T12:54:28Z</time>
      </trkpt>
      <trkpt lat="49.59017" lon="-1.28794">
        <ele>2.9</ele>
        <time>2020-06-15T12:54:29Z</time>
      </trkpt>
      <trkpt lat="49.59016" lon="-1.28802">
        <ele>2.7</ele>
        <time>2020-06-15T12:54:30Z</time>
      </trkpt>
      <trkpt lat="49.59016" lon="-1.28811">
        <ele>2.5</ele>
        <time>2020-06-15T12:54:31Z</time>
      </trkpt>
      <trkpt lat="49.59016" lon="-1.28819">
        <ele>2.2</ele>
        <time>2020-06-15T12:54:32Z</time>
      </trkpt>
      <trkpt lat="49.59015" lon="-1.28827">
        <ele>2.2</ele>
        <time>2020-06-15T12:54:33Z</time>
      </trkpt>
      <trkpt lat="49.59017" lon="-1.28836">
        <ele>2.2</ele>
        <time>2020-06-15T12:54:34Z</time>
      </trkpt>
      <trkpt lat="49.59018" lon="-1.28845">
        <ele>2.2</ele>
        <time>2020-06-15T12:54:35Z</time>
      </trkpt>
      <trkpt lat="49.59019" lon="-1.28853">
        <ele>2.2</ele>
        <time>2020-06-15T12:54:36Z</time>
      </trkpt>
      <trkpt lat="49.59021" lon="-1.28862">
        <ele>2.2</ele>
        <time>2020-06-15T12:54:37Z</time>
      </trkpt>
      <trkpt lat="49.59023" lon="-1.28869">
        <ele>2.2</ele>
        <time>2020-06-15T12:54:38Z</time>
      </trkpt>
      <trkpt lat="49.59025" lon="-1.28877">
        <ele>2.2</ele>
        <time>2020-06-15T12:54:39Z</time>
      </trkpt>
      <trkpt lat="49.59027" lon="-1.28885">
        <ele>2.3</ele>
        <time>2020-06-15T12:54:40Z</time>
      </trkpt>
      <trkpt lat="49.59029" lon="-1.28893">
        <ele>2.3</ele>
        <time>2020-06-15T12:54:41Z</time>
      </trkpt>
      <trkpt lat="49.5903" lon="-1.28902">
        <ele>2.4</ele>
        <time>2020-06-15T12:54:42Z</time>
      </trkpt>
      <trkpt lat="49.59032" lon="-1.28911">
        <ele>2.4</ele>
        <time>2020-06-15T12:54:43Z</time>
      </trkpt>
      <trkpt lat="49.59034" lon="-1.2892">
        <ele>2.5</ele>
        <time>2020-06-15T12:54:44Z</time>
      </trkpt>
      <trkpt lat="49.59035" lon="-1.28929">
        <ele>2.5</ele>
        <time>2020-06-15T12:54:45Z</time>
      </trkpt>
      <trkpt lat="49.59037" lon="-1.28938">
        <ele>2.5</ele>
        <time>2020-06-15T12:54:46Z</time>
      </trkpt>
      <trkpt lat="49.59039" lon="-1.28945">
        <ele>2.6</ele>
        <time>2020-06-15T12:54:47Z</time>
      </trkpt>
      <trkpt lat="49.5904" lon="-1.28953">
        <ele>2.6</ele>
        <time>2020-06-15T12:54:48Z</time>
      </trkpt>
      <trkpt lat="49.59041" lon="-1.28962">
        <ele>2.6</ele>
        <time>2020-06-15T12:54:49Z</time>
      </trkpt>
      <trkpt lat="49.59043" lon="-1.2897">
        <ele>2.6</ele>
        <time>2020-06-15T12:54:50Z</time>
      </trkpt>
      <trkpt lat="49.59045" lon="-1.28979">
        <ele>2.6</ele>
        <time>2020-06-15T12:54:51Z</time>
      </trkpt>
      <trkpt lat="49.59046" lon="-1.28988">
        <ele>2.6</ele>
        <time>2020-06-15T12:54:52Z</time>
      </trkpt>
      <trkpt lat="49.59047" lon="-1.28997">
        <ele>2.6</ele>
        <time>2020-06-15T12:54:53Z</time>
      </trkpt>
      <trkpt lat="49.59048" lon="-1.29008">
        <ele>2.6</ele>
        <time>2020-06-15T12:54:54Z</time>
      </trkpt>
      <trkpt lat="49.59049" lon="-1.29016">
        <ele>2.6</ele>
        <time>2020-06-15T12:54:55Z</time>
      </trkpt>
      <trkpt lat="49.5905" lon="-1.29025">
        <ele>2.6</ele>
        <time>2020-06-15T12:54:56Z</time>
      </trkpt>
      <trkpt lat="49.59051" lon="-1.29033">
        <ele>2.6</ele>
        <time>2020-06-15T12:54:57Z</time>
      </trkpt>
      <trkpt lat="49.59052" lon="-1.29044">
        <ele>2.6</ele>
        <time>2020-06-15T12:54:58Z</time>
      </trkpt>
      <trkpt lat="49.59054" lon="-1.29053">
        <ele>2.6</ele>
        <time>2020-06-15T12:54:59Z</time>
      </trkpt>
      <trkpt lat="49.59055" lon="-1.29063">
        <ele>2.7</ele>
        <time>2020-06-15T12:55:00Z</time>
      </trkpt>
      <trkpt lat="49.59057" lon="-1.29072">
        <ele>2.7</ele>
        <time>2020-06-15T12:55:01Z</time>
      </trkpt>
      <trkpt lat="49.59059" lon="-1.29081">
        <ele>2.8</ele>
        <time>2020-06-15T12:55:02Z</time>
      </trkpt>
      <trkpt lat="49.59061" lon="-1.2909">
        <ele>2.8</ele>
        <time>2020-06-15T12:55:03Z</time>
      </trkpt>
      <trkpt lat="49.59061" lon="-1.29098">
        <ele>2.8</ele>
        <time>2020-06-15T12:55:04Z</time>
      </trkpt>
      <trkpt lat="49.59062" lon="-1.29107">
        <ele>2.9</ele>
        <time>2020-06-15T12:55:05Z</time>
      </trkpt>
      <trkpt lat="49.59063" lon="-1.29116">
        <ele>2.9</ele>
        <time>2020-06-15T12:55:06Z</time>
      </trkpt>
      <trkpt lat="49.59065" lon="-1.29123">
        <ele>2.9</ele>
        <time>2020-06-15T12:55:07Z</time>
      </trkpt>
      <trkpt lat="49.59066" lon="-1.2913">
        <ele>3</ele>
        <time>2020-06-15T12:55:08Z</time>
      </trkpt>
      <trkpt lat="49.59068" lon="-1.29138">
        <ele>3</ele>
        <time>2020-06-15T12:55:09Z</time>
      </trkpt>
      <trkpt lat="49.59069" lon="-1.29145">
        <ele>3</ele>
        <time>2020-06-15T12:55:10Z</time>
      </trkpt>
      <trkpt lat="49.59071" lon="-1.29152">
        <ele>3</ele>
        <time>2020-06-15T12:55:11Z</time>
      </trkpt>
      <trkpt lat="49.59073" lon="-1.29161">
        <ele>3</ele>
        <time>2020-06-15T12:55:12Z</time>
      </trkpt>
      <trkpt lat="49.59074" lon="-1.29169">
        <ele>3</ele>
        <time>2020-06-15T12:55:13Z</time>
      </trkpt>
      <trkpt lat="49.59077" lon="-1.29179">
        <ele>3</ele>
        <time>2020-06-15T12:55:14Z</time>
      </trkpt>
      <trkpt lat="49.59079" lon="-1.29187">
        <ele>3</ele>
        <time>2020-06-15T12:55:15Z</time>
      </trkpt>
      <trkpt lat="49.59081" lon="-1.29197">
        <ele>3</ele>
        <time>2020-06-15T12:55:16Z</time>
      </trkpt>
      <trkpt lat="49.59083" lon="-1.29206">
        <ele>3</ele>
        <time>2020-06-15T12:55:17Z</time>
      </trkpt>
      <trkpt lat="49.59085" lon="-1.29215">
        <ele>3</ele>
        <time>2020-06-15T12:55:18Z</time>
      </trkpt>
      <trkpt lat="49.59086" lon="-1.29224">
        <ele>3</ele>
        <time>2020-06-15T12:55:19Z</time>
      </trkpt>
      <trkpt lat="49.59088" lon="-1.29233">
        <ele>3</ele>
        <time>2020-06-15T12:55:20Z</time>
      </trkpt>
      <trkpt lat="49.59089" lon="-1.29241">
        <ele>3</ele>
        <time>2020-06-15T12:55:21Z</time>
      </trkpt>
      <trkpt lat="49.59091" lon="-1.29251">
        <ele>3.1</ele>
        <time>2020-06-15T12:55:22Z</time>
      </trkpt>
      <trkpt lat="49.59093" lon="-1.2926">
        <ele>3.1</ele>
        <time>2020-06-15T12:55:23Z</time>
      </trkpt>
      <trkpt lat="49.59094" lon="-1.2927">
        <ele>3.2</ele>
        <time>2020-06-15T12:55:24Z</time>
      </trkpt>
      <trkpt lat="49.59096" lon="-1.29279">
        <ele>3.2</ele>
        <time>2020-06-15T12:55:25Z</time>
      </trkpt>
      <trkpt lat="49.59098" lon="-1.29285">
        <ele>3.2</ele>
        <time>2020-06-15T12:55:26Z</time>
      </trkpt>
      <trkpt lat="49.591" lon="-1.29292">
        <ele>3.3</ele>
        <time>2020-06-15T12:55:27Z</time>
      </trkpt>
      <trkpt lat="49.59102" lon="-1.293">
        <ele>3.3</ele>
        <time>2020-06-15T12:55:28Z</time>
      </trkpt>
      <trkpt lat="49.59104" lon="-1.29308">
        <ele>3.3</ele>
        <time>2020-06-15T12:55:29Z</time>
      </trkpt>
      <trkpt lat="49.59106" lon="-1.29317">
        <ele>3.4</ele>
        <time>2020-06-15T12:55:30Z</time>
      </trkpt>
      <trkpt lat="49.59107" lon="-1.29326">
        <ele>3.4</ele>
        <time>2020-06-15T12:55:31Z</time>
      </trkpt>
      <trkpt lat="49.59109" lon="-1.29334">
        <ele>3.4</ele>
        <time>2020-06-15T12:55:32Z</time>
      </trkpt>
      <trkpt lat="49.59111" lon="-1.29342">
        <ele>3.5</ele>
        <time>2020-06-15T12:55:33Z</time>
      </trkpt>
      <trkpt lat="49.59112" lon="-1.2935">
        <ele>3.5</ele>
        <time>2020-06-15T12:55:34Z</time>
      </trkpt>
      <trkpt lat="49.59112" lon="-1.29358">
        <ele>3.5</ele>
        <time>2020-06-15T12:55:35Z</time>
      </trkpt>
      <trkpt lat="49.59113" lon="-1.29368">
        <ele>3.5</ele>
        <time>2020-06-15T12:55:36Z</time>
      </trkpt>
      <trkpt lat="49.59114" lon="-1.29377">
        <ele>3.6</ele>
        <time>2020-06-15T12:55:37Z</time>
      </trkpt>
      <trkpt lat="49.59116" lon="-1.29386">
        <ele>3.6</ele>
        <time>2020-06-15T12:55:38Z</time>
      </trkpt>
      <trkpt lat="49.59118" lon="-1.29395">
        <ele>3.6</ele>
        <time>2020-06-15T12:55:39Z</time>
      </trkpt>
      <trkpt lat="49.5912" lon="-1.29403">
        <ele>3.7</ele>
        <time>2020-06-15T12:55:40Z</time>
      </trkpt>
      <trkpt lat="49.59121" lon="-1.29411">
        <ele>3.7</ele>
        <time>2020-06-15T12:55:41Z</time>
      </trkpt>
      <trkpt lat="49.59121" lon="-1.29418">
        <ele>3.7</ele>
        <time>2020-06-15T12:55:42Z</time>
      </trkpt>
      <trkpt lat="49.59122" lon="-1.29426">
        <ele>3.7</ele>
        <time>2020-06-15T12:55:43Z</time>
      </trkpt>
      <trkpt lat="49.59122" lon="-1.29432">
        <ele>3.8</ele>
        <time>2020-06-15T12:55:44Z</time>
      </trkpt>
      <trkpt lat="49.59123" lon="-1.29441">
        <ele>3.8</ele>
        <time>2020-06-15T12:55:45Z</time>
      </trkpt>
      <trkpt lat="49.59124" lon="-1.2945">
        <ele>3.9</ele>
        <time>2020-06-15T12:55:46Z</time>
      </trkpt>
      <trkpt lat="49.59125" lon="-1.29457">
        <ele>4</ele>
        <time>2020-06-15T12:55:47Z</time>
      </trkpt>
      <trkpt lat="49.59125" lon="-1.29464">
        <ele>4</ele>
        <time>2020-06-15T12:55:48Z</time>
      </trkpt>
      <trkpt lat="49.59126" lon="-1.29472">
        <ele>4.1</ele>
        <time>2020-06-15T12:55:49Z</time>
      </trkpt>
      <trkpt lat="49.59128" lon="-1.29479">
        <ele>4.2</ele>
        <time>2020-06-15T12:55:50Z</time>
      </trkpt>
      <trkpt lat="49.59131" lon="-1.29485">
        <ele>4.2</ele>
        <time>2020-06-15T12:55:51Z</time>
      </trkpt>
      <trkpt lat="49.59134" lon="-1.2949">
        <ele>4.3</ele>
        <time>2020-06-15T12:55:52Z</time>
      </trkpt>
      <trkpt lat="49.59136" lon="-1.29496">
        <ele>4.3</ele>
        <time>2020-06-15T12:55:53Z</time>
      </trkpt>
      <trkpt lat="49.59138" lon="-1.29503">
        <ele>4.4</ele>
        <time>2020-06-15T12:55:54Z</time>
      </trkpt>
      <trkpt lat="49.5914" lon="-1.29509">
        <ele>4.5</ele>
        <time>2020-06-15T12:55:55Z</time>
      </trkpt>
      <trkpt lat="49.59143" lon="-1.29516">
        <ele>4.6</ele>
        <time>2020-06-15T12:55:56Z</time>
      </trkpt>
      <trkpt lat="49.59143" lon="-1.29523">
        <ele>4.7</ele>
        <time>2020-06-15T12:55:57Z</time>
      </trkpt>
      <trkpt lat="49.59143" lon="-1.29531">
        <ele>4.8</ele>
        <time>2020-06-15T12:55:58Z</time>
      </trkpt>
      <trkpt lat="49.59142" lon="-1.29538">
        <ele>4.8</ele>
        <time>2020-06-15T12:55:59Z</time>
      </trkpt>
      <trkpt lat="49.59141" lon="-1.29546">
        <ele>4.8</ele>
        <time>2020-06-15T12:56:00Z</time>
      </trkpt>
      <trkpt lat="49.5914" lon="-1.29556">
        <ele>4.9</ele>
        <time>2020-06-15T12:56:01Z</time>
      </trkpt>
      <trkpt lat="49.5914" lon="-1.29565">
        <ele>5</ele>
        <time>2020-06-15T12:56:02Z</time>
      </trkpt>
      <trkpt lat="49.59141" lon="-1.29575">
        <ele>5</ele>
        <time>2020-06-15T12:56:03Z</time>
      </trkpt>
      <trkpt lat="49.59144" lon="-1.29583">
        <ele>5</ele>
        <time>2020-06-15T12:56:04Z</time>
      </trkpt>
      <trkpt lat="49.59147" lon="-1.29591">
        <ele>5</ele>
        <time>2020-06-15T12:56:05Z</time>
      </trkpt>
      <trkpt lat="49.59149" lon="-1.29599">
        <ele>5.1</ele>
        <time>2020-06-15T12:56:06Z</time>
      </trkpt>
      <trkpt lat="49.59151" lon="-1.29607">
        <ele>5.1</ele>
        <time>2020-06-15T12:56:07Z</time>
      </trkpt>
      <trkpt lat="49.59153" lon="-1.29618">
        <ele>5.2</ele>
        <time>2020-06-15T12:56:08Z</time>
      </trkpt>
      <trkpt lat="49.59155" lon="-1.29626">
        <ele>5.3</ele>
        <time>2020-06-15T12:56:09Z</time>
      </trkpt>
      <trkpt lat="49.59157" lon="-1.29635">
        <ele>5.3</ele>
        <time>2020-06-15T12:56:10Z</time>
      </trkpt>
      <trkpt lat="49.59159" lon="-1.29643">
        <ele>5.4</ele>
        <time>2020-06-15T12:56:11Z</time>
      </trkpt>
      <trkpt lat="49.5916" lon="-1.29652">
        <ele>5.5</ele>
        <time>2020-06-15T12:56:12Z</time>
      </trkpt>
      <trkpt lat="49.59161" lon="-1.29661">
        <ele>5.5</ele>
        <time>2020-06-15T12:56:13Z</time>
      </trkpt>
      <trkpt lat="49.59163" lon="-1.29669">
        <ele>5.6</ele>
        <time>2020-06-15T12:56:14Z</time>
      </trkpt>
      <trkpt lat="49.59164" lon="-1.29676">
        <ele>5.7</ele>
        <time>2020-06-15T12:56:15Z</time>
      </trkpt>
      <trkpt lat="49.59166" lon="-1.29683">
        <ele>5.8</ele>
        <time>2020-06-15T12:56:16Z</time>
      </trkpt>
      <trkpt lat="49.59166" lon="-1.2969">
        <ele>5.8</ele>
        <time>2020-06-15T12:56:17Z</time>
      </trkpt>
      <trkpt lat="49.59167" lon="-1.29698">
        <ele>5.9</ele>
        <time>2020-06-15T12:56:18Z</time>
      </trkpt>
      <trkpt lat="49.59168" lon="-1.29705">
        <ele>6</ele>
        <time>2020-06-15T12:56:19Z</time>
      </trkpt>
      <trkpt lat="49.59169" lon="-1.29713">
        <ele>6.1</ele>
        <time>2020-06-15T12:56:20Z</time>
      </trkpt>
      <trkpt lat="49.59171" lon="-1.29719">
        <ele>6.2</ele>
        <time>2020-06-15T12:56:21Z</time>
      </trkpt>
      <trkpt lat="49.59172" lon="-1.29727">
        <ele>6.4</ele>
        <time>2020-06-15T12:56:22Z</time>
      </trkpt>
      <trkpt lat="49.59173" lon="-1.29734">
        <ele>6.5</ele>
        <time>2020-06-15T12:56:23Z</time>
      </trkpt>
      <trkpt lat="49.59174" lon="-1.29741">
        <ele>6.6</ele>
        <time>2020-06-15T12:56:24Z</time>
      </trkpt>
      <trkpt lat="49.59175" lon="-1.29748">
        <ele>6.7</ele>
        <time>2020-06-15T12:56:25Z</time>
      </trkpt>
      <trkpt lat="49.59176" lon="-1.29754">
        <ele>6.7</ele>
        <time>2020-06-15T12:56:26Z</time>
      </trkpt>
      <trkpt lat="49.59177" lon="-1.29763">
        <ele>6.9</ele>
        <time>2020-06-15T12:56:27Z</time>
      </trkpt>
      <trkpt lat="49.59178" lon="-1.2977">
        <ele>6.9</ele>
        <time>2020-06-15T12:56:28Z</time>
      </trkpt>
      <trkpt lat="49.59179" lon="-1.29776">
        <ele>7</ele>
        <time>2020-06-15T12:56:29Z</time>
      </trkpt>
      <trkpt lat="49.5918" lon="-1.29784">
        <ele>7.1</ele>
        <time>2020-06-15T12:56:30Z</time>
      </trkpt>
      <trkpt lat="49.59181" lon="-1.29791">
        <ele>7.2</ele>
        <time>2020-06-15T12:56:31Z</time>
      </trkpt>
      <trkpt lat="49.59182" lon="-1.29797">
        <ele>7.3</ele>
        <time>2020-06-15T12:56:32Z</time>
      </trkpt>
      <trkpt lat="49.59184" lon="-1.29803">
        <ele>7.3</ele>
        <time>2020-06-15T12:56:33Z</time>
      </trkpt>
      <trkpt lat="49.59184" lon="-1.29809">
        <ele>7.4</ele>
        <time>2020-06-15T12:56:34Z</time>
      </trkpt>
      <trkpt lat="49.59186" lon="-1.29815">
        <ele>7.4</ele>
        <time>2020-06-15T12:56:35Z</time>
      </trkpt>
      <trkpt lat="49.59187" lon="-1.29821">
        <ele>7.5</ele>
        <time>2020-06-15T12:56:36Z</time>
      </trkpt>
      <trkpt lat="49.59188" lon="-1.29829">
        <ele>7.5</ele>
        <time>2020-06-15T12:56:37Z</time>
      </trkpt>
      <trkpt lat="49.59189" lon="-1.29834">
        <ele>7.5</ele>
        <time>2020-06-15T12:56:38Z</time>
      </trkpt>
      <trkpt lat="49.59191" lon="-1.29841">
        <ele>7.6</ele>
        <time>2020-06-15T12:56:39Z</time>
      </trkpt>
      <trkpt lat="49.59192" lon="-1.29847">
        <ele>7.6</ele>
        <time>2020-06-15T12:56:40Z</time>
      </trkpt>
      <trkpt lat="49.59193" lon="-1.29854">
        <ele>7.6</ele>
        <time>2020-06-15T12:56:41Z</time>
      </trkpt>
      <trkpt lat="49.59194" lon="-1.2986">
        <ele>7.6</ele>
        <time>2020-06-15T12:56:42Z</time>
      </trkpt>
      <trkpt lat="49.59195" lon="-1.29866">
        <ele>7.7</ele>
        <time>2020-06-15T12:56:43Z</time>
      </trkpt>
      <trkpt lat="49.59197" lon="-1.29872">
        <ele>7.8</ele>
        <time>2020-06-15T12:56:44Z</time>
      </trkpt>
      <trkpt lat="49.59199" lon="-1.29878">
        <ele>7.8</ele>
        <time>2020-06-15T12:56:45Z</time>
      </trkpt>
      <trkpt lat="49.59201" lon="-1.29883">
        <ele>7.9</ele>
        <time>2020-06-15T12:56:46Z</time>
      </trkpt>
      <trkpt lat="49.59202" lon="-1.29889">
        <ele>8</ele>
        <time>2020-06-15T12:56:47Z</time>
      </trkpt>
      <trkpt lat="49.59203" lon="-1.29893">
        <ele>8</ele>
        <time>2020-06-15T12:56:48Z</time>
      </trkpt>
      <trkpt lat="49.59204" lon="-1.29898">
        <ele>8.1</ele>
        <time>2020-06-15T12:56:49Z</time>
      </trkpt>
      <trkpt lat="49.59204" lon="-1.29903">
        <ele>8.1</ele>
        <time>2020-06-15T12:56:50Z</time>
      </trkpt>
      <trkpt lat="49.59205" lon="-1.29908">
        <ele>8.2</ele>
        <time>2020-06-15T12:56:51Z</time>
      </trkpt>
      <trkpt lat="49.59207" lon="-1.29914">
        <ele>8.2</ele>
        <time>2020-06-15T12:56:52Z</time>
      </trkpt>
      <trkpt lat="49.59208" lon="-1.29919">
        <ele>8.2</ele>
        <time>2020-06-15T12:56:53Z</time>
      </trkpt>
      <trkpt lat="49.59209" lon="-1.29924">
        <ele>8.3</ele>
        <time>2020-06-15T12:56:54Z</time>
      </trkpt>
      <trkpt lat="49.5921" lon="-1.29929">
        <ele>8.3</ele>
        <time>2020-06-15T12:56:55Z</time>
      </trkpt>
      <trkpt lat="49.59211" lon="-1.29935">
        <ele>8.4</ele>
        <time>2020-06-15T12:56:56Z</time>
      </trkpt>
      <trkpt lat="49.59211" lon="-1.29941">
        <ele>8.5</ele>
        <time>2020-06-15T12:56:57Z</time>
      </trkpt>
      <trkpt lat="49.59211" lon="-1.29946">
        <ele>8.5</ele>
        <time>2020-06-15T12:56:58Z</time>
      </trkpt>
      <trkpt lat="49.59212" lon="-1.29952">
        <ele>8.5</ele>
        <time>2020-06-15T12:56:59Z</time>
      </trkpt>
      <trkpt lat="49.59212" lon="-1.29957">
        <ele>8.6</ele>
        <time>2020-06-15T12:57:00Z</time>
      </trkpt>
      <trkpt lat="49.59213" lon="-1.29964">
        <ele>8.6</ele>
        <time>2020-06-15T12:57:01Z</time>
      </trkpt>
      <trkpt lat="49.59214" lon="-1.29969">
        <ele>8.7</ele>
        <time>2020-06-15T12:57:02Z</time>
      </trkpt>
      <trkpt lat="49.59215" lon="-1.29975">
        <ele>8.8</ele>
        <time>2020-06-15T12:57:03Z</time>
      </trkpt>
      <trkpt lat="49.59217" lon="-1.29981">
        <ele>8.9</ele>
        <time>2020-06-15T12:57:04Z</time>
      </trkpt>
      <trkpt lat="49.59218" lon="-1.29988">
        <ele>9</ele>
        <time>2020-06-15T12:57:05Z</time>
      </trkpt>
      <trkpt lat="49.59219" lon="-1.29996">
        <ele>9.1</ele>
        <time>2020-06-15T12:57:06Z</time>
      </trkpt>
      <trkpt lat="49.59221" lon="-1.30003">
        <ele>9.2</ele>
        <time>2020-06-15T12:57:07Z</time>
      </trkpt>
      <trkpt lat="49.59222" lon="-1.3001">
        <ele>9.3</ele>
        <time>2020-06-15T12:57:08Z</time>
      </trkpt>
      <trkpt lat="49.59224" lon="-1.30017">
        <ele>9.4</ele>
        <time>2020-06-15T12:57:09Z</time>
      </trkpt>
      <trkpt lat="49.59224" lon="-1.30024">
        <ele>9.5</ele>
        <time>2020-06-15T12:57:10Z</time>
      </trkpt>
      <trkpt lat="49.59225" lon="-1.3003">
        <ele>9.6</ele>
        <time>2020-06-15T12:57:11Z</time>
      </trkpt>
      <trkpt lat="49.59226" lon="-1.30035">
        <ele>9.7</ele>
        <time>2020-06-15T12:57:12Z</time>
      </trkpt>
      <trkpt lat="49.59228" lon="-1.30042">
        <ele>9.8</ele>
        <time>2020-06-15T12:57:13Z</time>
      </trkpt>
      <trkpt lat="49.59228" lon="-1.30048">
        <ele>9.9</ele>
        <time>2020-06-15T12:57:14Z</time>
      </trkpt>
      <trkpt lat="49.59229" lon="-1.30054">
        <ele>10</ele>
        <time>2020-06-15T12:57:15Z</time>
      </trkpt>
      <trkpt lat="49.5923" lon="-1.30059">
        <ele>10</ele>
        <time>2020-06-15T12:57:16Z</time>
      </trkpt>
      <trkpt lat="49.5923" lon="-1.30065">
        <ele>10.1</ele>
        <time>2020-06-15T12:57:17Z</time>
      </trkpt>
      <trkpt lat="49.5923" lon="-1.30071">
        <ele>10.2</ele>
        <time>2020-06-15T12:57:18Z</time>
      </trkpt>
      <trkpt lat="49.59231" lon="-1.30077">
        <ele>10.3</ele>
        <time>2020-06-15T12:57:19Z</time>
      </trkpt>
      <trkpt lat="49.59231" lon="-1.30083">
        <ele>10.3</ele>
        <time>2020-06-15T12:57:20Z</time>
      </trkpt>
      <trkpt lat="49.59231" lon="-1.30089">
        <ele>10.4</ele>
        <time>2020-06-15T12:57:21Z</time>
      </trkpt>
      <trkpt lat="49.59231" lon="-1.30091">
        <ele>10.4</ele>
        <time>2020-06-15T12:57:22Z</time>
      </trkpt>
      <trkpt lat="49.59231" lon="-1.30097">
        <ele>10.4</ele>
        <time>2020-06-15T12:57:23Z</time>
      </trkpt>
      <trkpt lat="49.5923" lon="-1.30099">
        <ele>10.5</ele>
        <time>2020-06-15T12:57:24Z</time>
      </trkpt>
      <trkpt lat="49.5923" lon="-1.30104">
        <ele>10.5</ele>
        <time>2020-06-15T12:57:25Z</time>
      </trkpt>
      <trkpt lat="49.59229" lon="-1.30106">
        <ele>10.5</ele>
        <time>2020-06-15T12:57:26Z</time>
      </trkpt>
      <trkpt lat="49.59229" lon="-1.30111">
        <ele>10.6</ele>
        <time>2020-06-15T12:57:27Z</time>
      </trkpt>
      <trkpt lat="49.59229" lon="-1.30113">
        <ele>10.6</ele>
        <time>2020-06-15T12:57:28Z</time>
      </trkpt>
      <trkpt lat="49.59229" lon="-1.30119">
        <ele>10.8</ele>
        <time>2020-06-15T12:57:29Z</time>
      </trkpt>
      <trkpt lat="49.59228" lon="-1.30122">
        <ele>10.8</ele>
        <time>2020-06-15T12:57:30Z</time>
      </trkpt>
      <trkpt lat="49.59229" lon="-1.30127">
        <ele>10.9</ele>
        <time>2020-06-15T12:57:31Z</time>
      </trkpt>
      <trkpt lat="49.59229" lon="-1.30132">
        <ele>10.9</ele>
        <time>2020-06-15T12:57:32Z</time>
      </trkpt>
      <trkpt lat="49.59229" lon="-1.30136">
        <ele>11</ele>
        <time>2020-06-15T12:57:33Z</time>
      </trkpt>
      <trkpt lat="49.5923" lon="-1.30142">
        <ele>11.1</ele>
        <time>2020-06-15T12:57:34Z</time>
      </trkpt>
      <trkpt lat="49.5923" lon="-1.30144">
        <ele>11.1</ele>
        <time>2020-06-15T12:57:35Z</time>
      </trkpt>
      <trkpt lat="49.5923" lon="-1.30149">
        <ele>11.2</ele>
        <time>2020-06-15T12:57:36Z</time>
      </trkpt>
      <trkpt lat="49.5923" lon="-1.30151">
        <ele>11.2</ele>
        <time>2020-06-15T12:57:37Z</time>
      </trkpt>
      <trkpt lat="49.59227" lon="-1.30155">
        <ele>11.3</ele>
        <time>2020-06-15T12:57:38Z</time>
      </trkpt>
      <trkpt lat="49.59227" lon="-1.30156">
        <ele>11.3</ele>
        <time>2020-06-15T12:57:39Z</time>
      </trkpt>
      <trkpt lat="49.59226" lon="-1.30159">
        <ele>11.3</ele>
        <time>2020-06-15T12:57:40Z</time>
      </trkpt>
      <trkpt lat="49.59225" lon="-1.3016">
        <ele>11.4</ele>
        <time>2020-06-15T12:57:41Z</time>
      </trkpt>
      <trkpt lat="49.59225" lon="-1.30162">
        <ele>11.4</ele>
        <time>2020-06-15T12:57:42Z</time>
      </trkpt>
      <trkpt lat="49.59223" lon="-1.30164">
        <ele>11.4</ele>
        <time>2020-06-15T12:57:43Z</time>
      </trkpt>
      <trkpt lat="49.59223" lon="-1.30164">
        <ele>11.4</ele>
        <time>2020-06-15T12:57:44Z</time>
      </trkpt>
      <trkpt lat="49.59222" lon="-1.30166">
        <ele>11.5</ele>
        <time>2020-06-15T12:57:45Z</time>
      </trkpt>
      <trkpt lat="49.59221" lon="-1.30167">
        <ele>11.5</ele>
        <time>2020-06-15T12:57:46Z</time>
      </trkpt>
      <trkpt lat="49.5922" lon="-1.30168">
        <ele>11.5</ele>
        <time>2020-06-15T12:57:47Z</time>
      </trkpt>
      <trkpt lat="49.5922" lon="-1.30169">
        <ele>11.5</ele>
        <time>2020-06-15T12:57:48Z</time>
      </trkpt>
      <trkpt lat="49.59219" lon="-1.3017">
        <ele>11.5</ele>
        <time>2020-06-15T12:57:49Z</time>
      </trkpt>
      <trkpt lat="49.5922" lon="-1.30171">
        <ele>11.6</ele>
        <time>2020-06-15T12:57:50Z</time>
      </trkpt>
      <trkpt lat="49.5922" lon="-1.30172">
        <ele>11.6</ele>
        <time>2020-06-15T12:57:51Z</time>
      </trkpt>
      <trkpt lat="49.5922" lon="-1.30173">
        <ele>11.6</ele>
        <time>2020-06-15T12:57:52Z</time>
      </trkpt>
      <trkpt lat="49.59221" lon="-1.30173">
        <ele>11.6</ele>
        <time>2020-06-15T12:57:53Z</time>
      </trkpt>
      <trkpt lat="49.59221" lon="-1.30174">
        <ele>11.6</ele>
        <time>2020-06-15T12:57:54Z</time>
      </trkpt>
      <trkpt lat="49.59222" lon="-1.30175">
        <ele>11.6</ele>
        <time>2020-06-15T12:57:55Z</time>
      </trkpt>
      <trkpt lat="49.59222" lon="-1.30175">
        <ele>11.6</ele>
        <time>2020-06-15T12:57:56Z</time>
      </trkpt>
      <trkpt lat="49.59225" lon="-1.30175">
        <ele>11.6</ele>
        <time>2020-06-15T12:57:57Z</time>
      </trkpt>
      <trkpt lat="49.59226" lon="-1.30175">
        <ele>11.7</ele>
        <time>2020-06-15T12:57:58Z</time>
      </trkpt>
      <trkpt lat="49.59226" lon="-1.30176">
        <ele>11.7</ele>
        <time>2020-06-15T12:57:59Z</time>
      </trkpt>
      <trkpt lat="49.59227" lon="-1.30177">
        <ele>11.7</ele>
        <time>2020-06-15T12:58:00Z</time>
      </trkpt>
      <trkpt lat="49.59227" lon="-1.30178">
        <ele>11.7</ele>
        <time>2020-06-15T12:58:01Z</time>
      </trkpt>
      <trkpt lat="49.59228" lon="-1.3018">
        <ele>11.7</ele>
        <time>2020-06-15T12:58:02Z</time>
      </trkpt>
      <trkpt lat="49.5923" lon="-1.30182">
        <ele>11.7</ele>
        <time>2020-06-15T12:58:03Z</time>
      </trkpt>
      <trkpt lat="49.59231" lon="-1.30183">
        <ele>11.7</ele>
        <time>2020-06-15T12:58:04Z</time>
      </trkpt>
      <trkpt lat="49.59234" lon="-1.30185">
        <ele>11.7</ele>
        <time>2020-06-15T12:58:05Z</time>
      </trkpt>
      <trkpt lat="49.59236" lon="-1.30188">
        <ele>11.7</ele>
        <time>2020-06-15T12:58:06Z</time>
      </trkpt>
      <trkpt lat="49.59237" lon="-1.30192">
        <ele>11.7</ele>
        <time>2020-06-15T12:58:07Z</time>
      </trkpt>
      <trkpt lat="49.59239" lon="-1.30198">
        <ele>11.7</ele>
        <time>2020-06-15T12:58:08Z</time>
      </trkpt>
      <trkpt lat="49.5924" lon="-1.30199">
        <ele>11.7</ele>
        <time>2020-06-15T12:58:09Z</time>
      </trkpt>
      <trkpt lat="49.59241" lon="-1.30204">
        <ele>11.7</ele>
        <time>2020-06-15T12:58:10Z</time>
      </trkpt>
      <trkpt lat="49.59243" lon="-1.30207">
        <ele>11.7</ele>
        <time>2020-06-15T12:58:11Z</time>
      </trkpt>
      <trkpt lat="49.59245" lon="-1.30213">
        <ele>11.8</ele>
        <time>2020-06-15T12:58:12Z</time>
      </trkpt>
      <trkpt lat="49.59246" lon="-1.30215">
        <ele>11.8</ele>
        <time>2020-06-15T12:58:13Z</time>
      </trkpt>
      <trkpt lat="49.59248" lon="-1.30219">
        <ele>11.8</ele>
        <time>2020-06-15T12:58:14Z</time>
      </trkpt>
      <trkpt lat="49.5925" lon="-1.30223">
        <ele>11.9</ele>
        <time>2020-06-15T12:58:15Z</time>
      </trkpt>
      <trkpt lat="49.59252" lon="-1.30228">
        <ele>11.9</ele>
        <time>2020-06-15T12:58:16Z</time>
      </trkpt>
      <trkpt lat="49.59253" lon="-1.30232">
        <ele>11.9</ele>
        <time>2020-06-15T12:58:17Z</time>
      </trkpt>
      <trkpt lat="49.59254" lon="-1.30237">
        <ele>12</ele>
        <time>2020-06-15T12:58:18Z</time>
      </trkpt>
      <trkpt lat="49.59254" lon="-1.30242">
        <ele>12</ele>
        <time>2020-06-15T12:58:19Z</time>
      </trkpt>
      <trkpt lat="49.59253" lon="-1.30248">
        <ele>12.1</ele>
        <time>2020-06-15T12:58:20Z</time>
      </trkpt>
      <trkpt lat="49.59253" lon="-1.30254">
        <ele>12.1</ele>
        <time>2020-06-15T12:58:21Z</time>
      </trkpt>
      <trkpt lat="49.59253" lon="-1.30261">
        <ele>12.2</ele>
        <time>2020-06-15T12:58:22Z</time>
      </trkpt>
      <trkpt lat="49.59254" lon="-1.30267">
        <ele>12.2</ele>
        <time>2020-06-15T12:58:23Z</time>
      </trkpt>
      <trkpt lat="49.59255" lon="-1.30274">
        <ele>12.3</ele>
        <time>2020-06-15T12:58:24Z</time>
      </trkpt>
      <trkpt lat="49.59257" lon="-1.3028">
        <ele>12.4</ele>
        <time>2020-06-15T12:58:25Z</time>
      </trkpt>
      <trkpt lat="49.59257" lon="-1.30287">
        <ele>12.5</ele>
        <time>2020-06-15T12:58:26Z</time>
      </trkpt>
      <trkpt lat="49.59257" lon="-1.30295">
        <ele>12.6</ele>
        <time>2020-06-15T12:58:27Z</time>
      </trkpt>
      <trkpt lat="49.59256" lon="-1.30302">
        <ele>12.8</ele>
        <time>2020-06-15T12:58:28Z</time>
      </trkpt>
      <trkpt lat="49.59256" lon="-1.3031">
        <ele>12.9</ele>
        <time>2020-06-15T12:58:29Z</time>
      </trkpt>
      <trkpt lat="49.59256" lon="-1.30317">
        <ele>13.1</ele>
        <time>2020-06-15T12:58:30Z</time>
      </trkpt>
      <trkpt lat="49.59256" lon="-1.30325">
        <ele>13.2</ele>
        <time>2020-06-15T12:58:31Z</time>
      </trkpt>
      <trkpt lat="49.59257" lon="-1.30333">
        <ele>13.4</ele>
        <time>2020-06-15T12:58:32Z</time>
      </trkpt>
      <trkpt lat="49.59258" lon="-1.3034">
        <ele>13.4</ele>
        <time>2020-06-15T12:58:33Z</time>
      </trkpt>
      <trkpt lat="49.59259" lon="-1.30347">
        <ele>13.4</ele>
        <time>2020-06-15T12:58:34Z</time>
      </trkpt>
      <trkpt lat="49.59259" lon="-1.30352">
        <ele>13.4</ele>
        <time>2020-06-15T12:58:35Z</time>
      </trkpt>
      <trkpt lat="49.5926" lon="-1.30359">
        <ele>13.4</ele>
        <time>2020-06-15T12:58:36Z</time>
      </trkpt>
      <trkpt lat="49.5926" lon="-1.30366">
        <ele>13.5</ele>
        <time>2020-06-15T12:58:37Z</time>
      </trkpt>
      <trkpt lat="49.59261" lon="-1.30374">
        <ele>13.5</ele>
        <time>2020-06-15T12:58:38Z</time>
      </trkpt>
      <trkpt lat="49.59262" lon="-1.30381">
        <ele>13.5</ele>
        <time>2020-06-15T12:58:39Z</time>
      </trkpt>
      <trkpt lat="49.59262" lon="-1.30389">
        <ele>13.6</ele>
        <time>2020-06-15T12:58:40Z</time>
      </trkpt>
      <trkpt lat="49.59263" lon="-1.30397">
        <ele>13.7</ele>
        <time>2020-06-15T12:58:41Z</time>
      </trkpt>
      <trkpt lat="49.59264" lon="-1.30405">
        <ele>13.8</ele>
        <time>2020-06-15T12:58:42Z</time>
      </trkpt>
      <trkpt lat="49.59264" lon="-1.30412">
        <ele>13.9</ele>
        <time>2020-06-15T12:58:43Z</time>
      </trkpt>
      <trkpt lat="49.59265" lon="-1.30419">
        <ele>14.1</ele>
        <time>2020-06-15T12:58:44Z</time>
      </trkpt>
      <trkpt lat="49.59266" lon="-1.30426">
        <ele>14.2</ele>
        <time>2020-06-15T12:58:45Z</time>
      </trkpt>
      <trkpt lat="49.59267" lon="-1.30434">
        <ele>14.4</ele>
        <time>2020-06-15T12:58:46Z</time>
      </trkpt>
      <trkpt lat="49.59268" lon="-1.30441">
        <ele>14.5</ele>
        <time>2020-06-15T12:58:47Z</time>
      </trkpt>
      <trkpt lat="49.59269" lon="-1.30449">
        <ele>14.7</ele>
        <time>2020-06-15T12:58:48Z</time>
      </trkpt>
      <trkpt lat="49.59269" lon="-1.30456">
        <ele>14.9</ele>
        <time>2020-06-15T12:58:49Z</time>
      </trkpt>
      <trkpt lat="49.59269" lon="-1.30462">
        <ele>15.1</ele>
        <time>2020-06-15T12:58:50Z</time>
      </trkpt>
      <trkpt lat="49.5927" lon="-1.30469">
        <ele>15.4</ele>
        <time>2020-06-15T12:58:51Z</time>
      </trkpt>
      <trkpt lat="49.59269" lon="-1.30476">
        <ele>15.4</ele>
        <time>2020-06-15T12:58:52Z</time>
      </trkpt>
      <trkpt lat="49.59267" lon="-1.30484">
        <ele>15.4</ele>
        <time>2020-06-15T12:58:53Z</time>
      </trkpt>
      <trkpt lat="49.59266" lon="-1.30492">
        <ele>15.6</ele>
        <time>2020-06-15T12:58:54Z</time>
      </trkpt>
      <trkpt lat="49.59264" lon="-1.305">
        <ele>15.9</ele>
        <time>2020-06-15T12:58:55Z</time>
      </trkpt>
      <trkpt lat="49.59262" lon="-1.30507">
        <ele>16.1</ele>
        <time>2020-06-15T12:58:56Z</time>
      </trkpt>
      <trkpt lat="49.5926" lon="-1.30515">
        <ele>16.3</ele>
        <time>2020-06-15T12:58:57Z</time>
      </trkpt>
      <trkpt lat="49.59259" lon="-1.30522">
        <ele>16.6</ele>
        <time>2020-06-15T12:58:58Z</time>
      </trkpt>
      <trkpt lat="49.59257" lon="-1.30529">
        <ele>16.8</ele>
        <time>2020-06-15T12:58:59Z</time>
      </trkpt>
      <trkpt lat="49.59255" lon="-1.30536">
        <ele>17</ele>
        <time>2020-06-15T12:59:00Z</time>
      </trkpt>
      <trkpt lat="49.59254" lon="-1.30541">
        <ele>17.2</ele>
        <time>2020-06-15T12:59:01Z</time>
      </trkpt>
      <trkpt lat="49.59251" lon="-1.30547">
        <ele>17.4</ele>
        <time>2020-06-15T12:59:02Z</time>
      </trkpt>
      <trkpt lat="49.5925" lon="-1.30553">
        <ele>17.6</ele>
        <time>2020-06-15T12:59:03Z</time>
      </trkpt>
      <trkpt lat="49.59248" lon="-1.30558">
        <ele>17.8</ele>
        <time>2020-06-15T12:59:04Z</time>
      </trkpt>
      <trkpt lat="49.59247" lon="-1.30563">
        <ele>18</ele>
        <time>2020-06-15T12:59:05Z</time>
      </trkpt>
      <trkpt lat="49.59246" lon="-1.30568">
        <ele>18.2</ele>
        <time>2020-06-15T12:59:06Z</time>
      </trkpt>
      <trkpt lat="49.59244" lon="-1.30575">
        <ele>18.4</ele>
        <time>2020-06-15T12:59:07Z</time>
      </trkpt>
      <trkpt lat="49.59242" lon="-1.3058">
        <ele>18.7</ele>
        <time>2020-06-15T12:59:08Z</time>
      </trkpt>
      <trkpt lat="49.59241" lon="-1.30586">
        <ele>18.9</ele>
        <time>2020-06-15T12:59:09Z</time>
      </trkpt>
      <trkpt lat="49.59239" lon="-1.30592">
        <ele>19.2</ele>
        <time>2020-06-15T12:59:10Z</time>
      </trkpt>
      <trkpt lat="49.59237" lon="-1.30598">
        <ele>19.4</ele>
        <time>2020-06-15T12:59:11Z</time>
      </trkpt>
      <trkpt lat="49.59236" lon="-1.30603">
        <ele>19.7</ele>
        <time>2020-06-15T12:59:12Z</time>
      </trkpt>
      <trkpt lat="49.59234" lon="-1.30609">
        <ele>19.9</ele>
        <time>2020-06-15T12:59:13Z</time>
      </trkpt>
      <trkpt lat="49.59232" lon="-1.30614">
        <ele>20.2</ele>
        <time>2020-06-15T12:59:14Z</time>
      </trkpt>
      <trkpt lat="49.5923" lon="-1.3062">
        <ele>20.4</ele>
        <time>2020-06-15T12:59:15Z</time>
      </trkpt>
      <trkpt lat="49.59228" lon="-1.30626">
        <ele>20.7</ele>
        <time>2020-06-15T12:59:16Z</time>
      </trkpt>
      <trkpt lat="49.59225" lon="-1.30632">
        <ele>21</ele>
        <time>2020-06-15T12:59:17Z</time>
      </trkpt>
      <trkpt lat="49.59223" lon="-1.30637">
        <ele>21.3</ele>
        <time>2020-06-15T12:59:18Z</time>
      </trkpt>
      <trkpt lat="49.59222" lon="-1.30643">
        <ele>21.5</ele>
        <time>2020-06-15T12:59:19Z</time>
      </trkpt>
      <trkpt lat="49.5922" lon="-1.30648">
        <ele>21.7</ele>
        <time>2020-06-15T12:59:20Z</time>
      </trkpt>
      <trkpt lat="49.59218" lon="-1.30654">
        <ele>22</ele>
        <time>2020-06-15T12:59:21Z</time>
      </trkpt>
      <trkpt lat="49.59216" lon="-1.30659">
        <ele>22.2</ele>
        <time>2020-06-15T12:59:22Z</time>
      </trkpt>
      <trkpt lat="49.59215" lon="-1.30665">
        <ele>22.4</ele>
        <time>2020-06-15T12:59:23Z</time>
      </trkpt>
      <trkpt lat="49.59213" lon="-1.3067">
        <ele>22.7</ele>
        <time>2020-06-15T12:59:24Z</time>
      </trkpt>
      <trkpt lat="49.59212" lon="-1.30676">
        <ele>22.9</ele>
        <time>2020-06-15T12:59:25Z</time>
      </trkpt>
      <trkpt lat="49.5921" lon="-1.3068">
        <ele>23.1</ele>
        <time>2020-06-15T12:59:26Z</time>
      </trkpt>
      <trkpt lat="49.59208" lon="-1.30686">
        <ele>23.4</ele>
        <time>2020-06-15T12:59:27Z</time>
      </trkpt>
      <trkpt lat="49.59207" lon="-1.30691">
        <ele>23.6</ele>
        <time>2020-06-15T12:59:28Z</time>
      </trkpt>
      <trkpt lat="49.59205" lon="-1.30695">
        <ele>23.8</ele>
        <time>2020-06-15T12:59:29Z</time>
      </trkpt>
      <trkpt lat="49.59204" lon="-1.307">
        <ele>24</ele>
        <time>2020-06-15T12:59:30Z</time>
      </trkpt>
      <trkpt lat="49.59202" lon="-1.30706">
        <ele>24.2</ele>
        <time>2020-06-15T12:59:31Z</time>
      </trkpt>
      <trkpt lat="49.59201" lon="-1.30711">
        <ele>24.4</ele>
        <time>2020-06-15T12:59:32Z</time>
      </trkpt>
      <trkpt lat="49.59199" lon="-1.30716">
        <ele>24.5</ele>
        <time>2020-06-15T12:59:33Z</time>
      </trkpt>
      <trkpt lat="49.59199" lon="-1.3072">
        <ele>24.7</ele>
        <time>2020-06-15T12:59:34Z</time>
      </trkpt>
      <trkpt lat="49.59198" lon="-1.30724">
        <ele>24.9</ele>
        <time>2020-06-15T12:59:35Z</time>
      </trkpt>
      <trkpt lat="49.59197" lon="-1.30729">
        <ele>25.1</ele>
        <time>2020-06-15T12:59:36Z</time>
      </trkpt>
      <trkpt lat="49.59197" lon="-1.30733">
        <ele>25.3</ele>
        <time>2020-06-15T12:59:37Z</time>
      </trkpt>
      <trkpt lat="49.59195" lon="-1.30737">
        <ele>25.5</ele>
        <time>2020-06-15T12:59:38Z</time>
      </trkpt>
      <trkpt lat="49.59194" lon="-1.30742">
        <ele>25.8</ele>
        <time>2020-06-15T12:59:39Z</time>
      </trkpt>
      <trkpt lat="49.59193" lon="-1.30747">
        <ele>26</ele>
        <time>2020-06-15T12:59:40Z</time>
      </trkpt>
      <trkpt lat="49.59192" lon="-1.30752">
        <ele>26.3</ele>
        <time>2020-06-15T12:59:41Z</time>
      </trkpt>
      <trkpt lat="49.59191" lon="-1.30757">
        <ele>26.5</ele>
        <time>2020-06-15T12:59:42Z</time>
      </trkpt>
      <trkpt lat="49.5919" lon="-1.30762">
        <ele>26.8</ele>
        <time>2020-06-15T12:59:43Z</time>
      </trkpt>
      <trkpt lat="49.59188" lon="-1.30767">
        <ele>27</ele>
        <time>2020-06-15T12:59:44Z</time>
      </trkpt>
      <trkpt lat="49.59187" lon="-1.30772">
        <ele>27.3</ele>
        <time>2020-06-15T12:59:45Z</time>
      </trkpt>
      <trkpt lat="49.59186" lon="-1.30777">
        <ele>27.5</ele>
        <time>2020-06-15T12:59:46Z</time>
      </trkpt>
      <trkpt lat="49.59185" lon="-1.30781">
        <ele>27.8</ele>
        <time>2020-06-15T12:59:47Z</time>
      </trkpt>
      <trkpt lat="49.59183" lon="-1.30785">
        <ele>28</ele>
        <time>2020-06-15T12:59:48Z</time>
      </trkpt>
      <trkpt lat="49.59181" lon="-1.30791">
        <ele>28.4</ele>
        <time>2020-06-15T12:59:49Z</time>
      </trkpt>
      <trkpt lat="49.5918" lon="-1.30794">
        <ele>28.5</ele>
        <time>2020-06-15T12:59:50Z</time>
      </trkpt>
      <trkpt lat="49.59179" lon="-1.30799">
        <ele>28.8</ele>
        <time>2020-06-15T12:59:51Z</time>
      </trkpt>
      <trkpt lat="49.59178" lon="-1.30804">
        <ele>29</ele>
        <time>2020-06-15T12:59:52Z</time>
      </trkpt>
      <trkpt lat="49.59176" lon="-1.30809">
        <ele>29.3</ele>
        <time>2020-06-15T12:59:53Z</time>
      </trkpt>
      <trkpt lat="49.59174" lon="-1.30814">
        <ele>29.6</ele>
        <time>2020-06-15T12:59:54Z</time>
      </trkpt>
      <trkpt lat="49.59173" lon="-1.30818">
        <ele>29.8</ele>
        <time>2020-06-15T12:59:55Z</time>
      </trkpt>
      <trkpt lat="49.59172" lon="-1.30822">
        <ele>30</ele>
        <time>2020-06-15T12:59:56Z</time>
      </trkpt>
      <trkpt lat="49.59171" lon="-1.30827">
        <ele>30.2</ele>
        <time>2020-06-15T12:59:57Z</time>
      </trkpt>
      <trkpt lat="49.5917" lon="-1.30832">
        <ele>30.4</ele>
        <time>2020-06-15T12:59:58Z</time>
      </trkpt>
      <trkpt lat="49.59169" lon="-1.30837">
        <ele>30.6</ele>
        <time>2020-06-15T12:59:59Z</time>
      </trkpt>
      <trkpt lat="49.59168" lon="-1.30842">
        <ele>30.9</ele>
        <time>2020-06-15T13:00:00Z</time>
      </trkpt>
      <trkpt lat="49.59166" lon="-1.30847">
        <ele>31.1</ele>
        <time>2020-06-15T13:00:01Z</time>
      </trkpt>
      <trkpt lat="49.59164" lon="-1.30852">
        <ele>31.3</ele>
        <time>2020-06-15T13:00:02Z</time>
      </trkpt>
      <trkpt lat="49.59163" lon="-1.30856">
        <ele>31.5</ele>
        <time>2020-06-15T13:00:03Z</time>
      </trkpt>
      <trkpt lat="49.59161" lon="-1.3086">
        <ele>31.7</ele>
        <time>2020-06-15T13:00:04Z</time>
      </trkpt>
      <trkpt lat="49.5916" lon="-1.30864">
        <ele>31.9</ele>
        <time>2020-06-15T13:00:05Z</time>
      </trkpt>
      <trkpt lat="49.59159" lon="-1.30868">
        <ele>32.1</ele>
        <time>2020-06-15T13:00:06Z</time>
      </trkpt>
      <trkpt lat="49.59158" lon="-1.30872">
        <ele>32.3</ele>
        <time>2020-06-15T13:00:07Z</time>
      </trkpt>
      <trkpt lat="49.59157" lon="-1.30878">
        <ele>32.6</ele>
        <time>2020-06-15T13:00:08Z</time>
      </trkpt>
      <trkpt lat="49.59155" lon="-1.30883">
        <ele>32.8</ele>
        <time>2020-06-15T13:00:09Z</time>
      </trkpt>
      <trkpt lat="49.59154" lon="-1.30887">
        <ele>33</ele>
        <time>2020-06-15T13:00:10Z</time>
      </trkpt>
      <trkpt lat="49.59152" lon="-1.30892">
        <ele>33.2</ele>
        <time>2020-06-15T13:00:11Z</time>
      </trkpt>
      <trkpt lat="49.5915" lon="-1.30897">
        <ele>33.4</ele>
        <time>2020-06-15T13:00:12Z</time>
      </trkpt>
      <trkpt lat="49.59149" lon="-1.30903">
        <ele>33.7</ele>
        <time>2020-06-15T13:00:13Z</time>
      </trkpt>
      <trkpt lat="49.59147" lon="-1.30908">
        <ele>34</ele>
        <time>2020-06-15T13:00:14Z</time>
      </trkpt>
      <trkpt lat="49.59146" lon="-1.30913">
        <ele>34.2</ele>
        <time>2020-06-15T13:00:15Z</time>
      </trkpt>
      <trkpt lat="49.59145" lon="-1.30919">
        <ele>34.4</ele>
        <time>2020-06-15T13:00:16Z</time>
      </trkpt>
      <trkpt lat="49.59144" lon="-1.30924">
        <ele>34.7</ele>
        <time>2020-06-15T13:00:17Z</time>
      </trkpt>
      <trkpt lat="49.59143" lon="-1.30929">
        <ele>34.9</ele>
        <time>2020-06-15T13:00:18Z</time>
      </trkpt>
      <trkpt lat="49.59141" lon="-1.30934">
        <ele>35.2</ele>
        <time>2020-06-15T13:00:19Z</time>
      </trkpt>
      <trkpt lat="49.5914" lon="-1.30938">
        <ele>35.4</ele>
        <time>2020-06-15T13:00:20Z</time>
      </trkpt>
      <trkpt lat="49.59138" lon="-1.30944">
        <ele>35.9</ele>
        <time>2020-06-15T13:00:21Z</time>
      </trkpt>
      <trkpt lat="49.59137" lon="-1.30948">
        <ele>35.5</ele>
        <time>2020-06-15T13:00:22Z</time>
      </trkpt>
      <trkpt lat="49.59136" lon="-1.30954">
        <ele>35</ele>
        <time>2020-06-15T13:00:23Z</time>
      </trkpt>
      <trkpt lat="49.59133" lon="-1.30959">
        <ele>35</ele>
        <time>2020-06-15T13:00:24Z</time>
      </trkpt>
      <trkpt lat="49.59131" lon="-1.30964">
        <ele>35.2</ele>
        <time>2020-06-15T13:00:25Z</time>
      </trkpt>
      <trkpt lat="49.5913" lon="-1.30969">
        <ele>35.3</ele>
        <time>2020-06-15T13:00:26Z</time>
      </trkpt>
      <trkpt lat="49.59128" lon="-1.30974">
        <ele>35.5</ele>
        <time>2020-06-15T13:00:27Z</time>
      </trkpt>
      <trkpt lat="49.59127" lon="-1.30979">
        <ele>35.6</ele>
        <time>2020-06-15T13:00:28Z</time>
      </trkpt>
      <trkpt lat="49.59126" lon="-1.30984">
        <ele>35.7</ele>
        <time>2020-06-15T13:00:29Z</time>
      </trkpt>
      <trkpt lat="49.59125" lon="-1.30989">
        <ele>35.8</ele>
        <time>2020-06-15T13:00:30Z</time>
      </trkpt>
      <trkpt lat="49.59123" lon="-1.30994">
        <ele>35.9</ele>
        <time>2020-06-15T13:00:31Z</time>
      </trkpt>
      <trkpt lat="49.59122" lon="-1.30998">
        <ele>36</ele>
        <time>2020-06-15T13:00:32Z</time>
      </trkpt>
      <trkpt lat="49.59121" lon="-1.31003">
        <ele>36.1</ele>
        <time>2020-06-15T13:00:33Z</time>
      </trkpt>
      <trkpt lat="49.5912" lon="-1.31009">
        <ele>36.2</ele>
        <time>2020-06-15T13:00:34Z</time>
      </trkpt>
      <trkpt lat="49.59118" lon="-1.31015">
        <ele>36.4</ele>
        <time>2020-06-15T13:00:35Z</time>
      </trkpt>
      <trkpt lat="49.59116" lon="-1.3102">
        <ele>36.5</ele>
        <time>2020-06-15T13:00:36Z</time>
      </trkpt>
      <trkpt lat="49.59114" lon="-1.31026">
        <ele>36.6</ele>
        <time>2020-06-15T13:00:37Z</time>
      </trkpt>
      <trkpt lat="49.59112" lon="-1.31032">
        <ele>36.7</ele>
        <time>2020-06-15T13:00:38Z</time>
      </trkpt>
      <trkpt lat="49.59111" lon="-1.31038">
        <ele>36.8</ele>
        <time>2020-06-15T13:00:39Z</time>
      </trkpt>
      <trkpt lat="49.5911" lon="-1.31044">
        <ele>36.9</ele>
        <time>2020-06-15T13:00:40Z</time>
      </trkpt>
      <trkpt lat="49.59108" lon="-1.3105">
        <ele>37</ele>
        <time>2020-06-15T13:00:41Z</time>
      </trkpt>
      <trkpt lat="49.59107" lon="-1.31055">
        <ele>37.1</ele>
        <time>2020-06-15T13:00:42Z</time>
      </trkpt>
      <trkpt lat="49.59105" lon="-1.3106">
        <ele>37.2</ele>
        <time>2020-06-15T13:00:43Z</time>
      </trkpt>
      <trkpt lat="49.59103" lon="-1.31066">
        <ele>37.3</ele>
        <time>2020-06-15T13:00:44Z</time>
      </trkpt>
      <trkpt lat="49.59102" lon="-1.31072">
        <ele>37.4</ele>
        <time>2020-06-15T13:00:45Z</time>
      </trkpt>
      <trkpt lat="49.59101" lon="-1.31078">
        <ele>37.5</ele>
        <time>2020-06-15T13:00:46Z</time>
      </trkpt>
      <trkpt lat="49.59099" lon="-1.31082">
        <ele>37.6</ele>
        <time>2020-06-15T13:00:47Z</time>
      </trkpt>
      <trkpt lat="49.59097" lon="-1.31089">
        <ele>37.8</ele>
        <time>2020-06-15T13:00:48Z</time>
      </trkpt>
      <trkpt lat="49.59095" lon="-1.31095">
        <ele>38</ele>
        <time>2020-06-15T13:00:49Z</time>
      </trkpt>
      <trkpt lat="49.59093" lon="-1.311">
        <ele>38.2</ele>
        <time>2020-06-15T13:00:50Z</time>
      </trkpt>
      <trkpt lat="49.59091" lon="-1.31106">
        <ele>38.3</ele>
        <time>2020-06-15T13:00:51Z</time>
      </trkpt>
      <trkpt lat="49.5909" lon="-1.31113">
        <ele>38.5</ele>
        <time>2020-06-15T13:00:52Z</time>
      </trkpt>
      <trkpt lat="49.59089" lon="-1.31118">
        <ele>38.6</ele>
        <time>2020-06-15T13:00:53Z</time>
      </trkpt>
      <trkpt lat="49.59088" lon="-1.31123">
        <ele>38.7</ele>
        <time>2020-06-15T13:00:54Z</time>
      </trkpt>
      <trkpt lat="49.59086" lon="-1.31128">
        <ele>38.8</ele>
        <time>2020-06-15T13:00:55Z</time>
      </trkpt>
      <trkpt lat="49.59085" lon="-1.31133">
        <ele>38.9</ele>
        <time>2020-06-15T13:00:56Z</time>
      </trkpt>
      <trkpt lat="49.59084" lon="-1.31137">
        <ele>39</ele>
        <time>2020-06-15T13:00:57Z</time>
      </trkpt>
      <trkpt lat="49.59083" lon="-1.31141">
        <ele>39.2</ele>
        <time>2020-06-15T13:00:58Z</time>
      </trkpt>
      <trkpt lat="49.59081" lon="-1.31146">
        <ele>39.3</ele>
        <time>2020-06-15T13:00:59Z</time>
      </trkpt>
      <trkpt lat="49.59079" lon="-1.31151">
        <ele>39.4</ele>
        <time>2020-06-15T13:01:00Z</time>
      </trkpt>
      <trkpt lat="49.59077" lon="-1.31156">
        <ele>39.5</ele>
        <time>2020-06-15T13:01:01Z</time>
      </trkpt>
      <trkpt lat="49.59076" lon="-1.31161">
        <ele>39.6</ele>
        <time>2020-06-15T13:01:02Z</time>
      </trkpt>
      <trkpt lat="49.59075" lon="-1.31166">
        <ele>39.8</ele>
        <time>2020-06-15T13:01:03Z</time>
      </trkpt>
      <trkpt lat="49.59074" lon="-1.31172">
        <ele>39.9</ele>
        <time>2020-06-15T13:01:04Z</time>
      </trkpt>
      <trkpt lat="49.59072" lon="-1.31177">
        <ele>40</ele>
        <time>2020-06-15T13:01:05Z</time>
      </trkpt>
      <trkpt lat="49.59071" lon="-1.31181">
        <ele>40.1</ele>
        <time>2020-06-15T13:01:06Z</time>
      </trkpt>
      <trkpt lat="49.59069" lon="-1.31186">
        <ele>40.3</ele>
        <time>2020-06-15T13:01:07Z</time>
      </trkpt>
      <trkpt lat="49.59068" lon="-1.31192">
        <ele>40.4</ele>
        <time>2020-06-15T13:01:08Z</time>
      </trkpt>
      <trkpt lat="49.59067" lon="-1.31196">
        <ele>40.5</ele>
        <time>2020-06-15T13:01:09Z</time>
      </trkpt>
      <trkpt lat="49.59065" lon="-1.31202">
        <ele>40.7</ele>
        <time>2020-06-15T13:01:10Z</time>
      </trkpt>
      <trkpt lat="49.59064" lon="-1.31207">
        <ele>40.8</ele>
        <time>2020-06-15T13:01:11Z</time>
      </trkpt>
      <trkpt lat="49.59063" lon="-1.31212">
        <ele>41</ele>
        <time>2020-06-15T13:01:12Z</time>
      </trkpt>
      <trkpt lat="49.59061" lon="-1.31216">
        <ele>41.1</ele>
        <time>2020-06-15T13:01:13Z</time>
      </trkpt>
      <trkpt lat="49.5906" lon="-1.31222">
        <ele>41.3</ele>
        <time>2020-06-15T13:01:14Z</time>
      </trkpt>
      <trkpt lat="49.59058" lon="-1.31228">
        <ele>41.4</ele>
        <time>2020-06-15T13:01:15Z</time>
      </trkpt>
      <trkpt lat="49.59057" lon="-1.31234">
        <ele>41.6</ele>
        <time>2020-06-15T13:01:16Z</time>
      </trkpt>
      <trkpt lat="49.59055" lon="-1.31239">
        <ele>41.8</ele>
        <time>2020-06-15T13:01:17Z</time>
      </trkpt>
      <trkpt lat="49.59054" lon="-1.31245">
        <ele>41.9</ele>
        <time>2020-06-15T13:01:18Z</time>
      </trkpt>
      <trkpt lat="49.59053" lon="-1.3125">
        <ele>42</ele>
        <time>2020-06-15T13:01:19Z</time>
      </trkpt>
      <trkpt lat="49.59052" lon="-1.31256">
        <ele>42.2</ele>
        <time>2020-06-15T13:01:20Z</time>
      </trkpt>
      <trkpt lat="49.5905" lon="-1.31261">
        <ele>42.4</ele>
        <time>2020-06-15T13:01:21Z</time>
      </trkpt>
      <trkpt lat="49.59049" lon="-1.31266">
        <ele>42.5</ele>
        <time>2020-06-15T13:01:22Z</time>
      </trkpt>
      <trkpt lat="49.59047" lon="-1.31271">
        <ele>42.7</ele>
        <time>2020-06-15T13:01:23Z</time>
      </trkpt>
      <trkpt lat="49.59046" lon="-1.31276">
        <ele>42.8</ele>
        <time>2020-06-15T13:01:24Z</time>
      </trkpt>
      <trkpt lat="49.59045" lon="-1.31281">
        <ele>43</ele>
        <time>2020-06-15T13:01:25Z</time>
      </trkpt>
      <trkpt lat="49.59043" lon="-1.31286">
        <ele>43.2</ele>
        <time>2020-06-15T13:01:26Z</time>
      </trkpt>
      <trkpt lat="49.59042" lon="-1.31291">
        <ele>43.4</ele>
        <time>2020-06-15T13:01:27Z</time>
      </trkpt>
      <trkpt lat="49.59041" lon="-1.31296">
        <ele>43.6</ele>
        <time>2020-06-15T13:01:28Z</time>
      </trkpt>
      <trkpt lat="49.59039" lon="-1.31302">
        <ele>43.8</ele>
        <time>2020-06-15T13:01:29Z</time>
      </trkpt>
      <trkpt lat="49.59038" lon="-1.31308">
        <ele>44</ele>
        <time>2020-06-15T13:01:30Z</time>
      </trkpt>
      <trkpt lat="49.59036" lon="-1.31314">
        <ele>44.2</ele>
        <time>2020-06-15T13:01:31Z</time>
      </trkpt>
      <trkpt lat="49.59035" lon="-1.31319">
        <ele>44.5</ele>
        <time>2020-06-15T13:01:32Z</time>
      </trkpt>
      <trkpt lat="49.59033" lon="-1.31325">
        <ele>44.7</ele>
        <time>2020-06-15T13:01:33Z</time>
      </trkpt>
      <trkpt lat="49.59032" lon="-1.31331">
        <ele>44.9</ele>
        <time>2020-06-15T13:01:34Z</time>
      </trkpt>
      <trkpt lat="49.59031" lon="-1.31337">
        <ele>45.2</ele>
        <time>2020-06-15T13:01:35Z</time>
      </trkpt>
      <trkpt lat="49.59029" lon="-1.31342">
        <ele>45.4</ele>
        <time>2020-06-15T13:01:36Z</time>
      </trkpt>
      <trkpt lat="49.59028" lon="-1.31348">
        <ele>45.7</ele>
        <time>2020-06-15T13:01:37Z</time>
      </trkpt>
      <trkpt lat="49.59027" lon="-1.31353">
        <ele>45.9</ele>
        <time>2020-06-15T13:01:38Z</time>
      </trkpt>
      <trkpt lat="49.59025" lon="-1.31357">
        <ele>46.1</ele>
        <time>2020-06-15T13:01:39Z</time>
      </trkpt>
      <trkpt lat="49.59023" lon="-1.31362">
        <ele>46.3</ele>
        <time>2020-06-15T13:01:40Z</time>
      </trkpt>
      <trkpt lat="49.59022" lon="-1.31366">
        <ele>46.5</ele>
        <time>2020-06-15T13:01:41Z</time>
      </trkpt>
      <trkpt lat="49.59021" lon="-1.31371">
        <ele>46.7</ele>
        <time>2020-06-15T13:01:42Z</time>
      </trkpt>
      <trkpt lat="49.5902" lon="-1.31376">
        <ele>47</ele>
        <time>2020-06-15T13:01:43Z</time>
      </trkpt>
      <trkpt lat="49.59019" lon="-1.31381">
        <ele>47.2</ele>
        <time>2020-06-15T13:01:44Z</time>
      </trkpt>
      <trkpt lat="49.59018" lon="-1.31386">
        <ele>47.4</ele>
        <time>2020-06-15T13:01:45Z</time>
      </trkpt>
      <trkpt lat="49.59016" lon="-1.31391">
        <ele>47.7</ele>
        <time>2020-06-15T13:01:46Z</time>
      </trkpt>
      <trkpt lat="49.59014" lon="-1.31397">
        <ele>47.9</ele>
        <time>2020-06-15T13:01:47Z</time>
      </trkpt>
      <trkpt lat="49.59012" lon="-1.31402">
        <ele>48.2</ele>
        <time>2020-06-15T13:01:48Z</time>
      </trkpt>
      <trkpt lat="49.5901" lon="-1.31406">
        <ele>48.4</ele>
        <time>2020-06-15T13:01:49Z</time>
      </trkpt>
      <trkpt lat="49.59009" lon="-1.31411">
        <ele>48.6</ele>
        <time>2020-06-15T13:01:50Z</time>
      </trkpt>
      <trkpt lat="49.59008" lon="-1.31416">
        <ele>48.9</ele>
        <time>2020-06-15T13:01:51Z</time>
      </trkpt>
      <trkpt lat="49.59006" lon="-1.31421">
        <ele>49.1</ele>
        <time>2020-06-15T13:01:52Z</time>
      </trkpt>
      <trkpt lat="49.59005" lon="-1.31427">
        <ele>49.4</ele>
        <time>2020-06-15T13:01:53Z</time>
      </trkpt>
      <trkpt lat="49.59003" lon="-1.31432">
        <ele>49.6</ele>
        <time>2020-06-15T13:01:54Z</time>
      </trkpt>
      <trkpt lat="49.59001" lon="-1.31437">
        <ele>49.9</ele>
        <time>2020-06-15T13:01:55Z</time>
      </trkpt>
      <trkpt lat="49.58999" lon="-1.31442">
        <ele>50.1</ele>
        <time>2020-06-15T13:01:56Z</time>
      </trkpt>
      <trkpt lat="49.58997" lon="-1.31447">
        <ele>50.3</ele>
        <time>2020-06-15T13:01:57Z</time>
      </trkpt>
      <trkpt lat="49.58995" lon="-1.31452">
        <ele>50.5</ele>
        <time>2020-06-15T13:01:58Z</time>
      </trkpt>
      <trkpt lat="49.58994" lon="-1.31457">
        <ele>50.8</ele>
        <time>2020-06-15T13:01:59Z</time>
      </trkpt>
      <trkpt lat="49.58992" lon="-1.31462">
        <ele>51.1</ele>
        <time>2020-06-15T13:02:00Z</time>
      </trkpt>
      <trkpt lat="49.58991" lon="-1.31468">
        <ele>51.3</ele>
        <time>2020-06-15T13:02:01Z</time>
      </trkpt>
      <trkpt lat="49.58989" lon="-1.31472">
        <ele>51.5</ele>
        <time>2020-06-15T13:02:02Z</time>
      </trkpt>
      <trkpt lat="49.58988" lon="-1.31476">
        <ele>51.7</ele>
        <time>2020-06-15T13:02:03Z</time>
      </trkpt>
      <trkpt lat="49.58987" lon="-1.3148">
        <ele>51.9</ele>
        <time>2020-06-15T13:02:04Z</time>
      </trkpt>
      <trkpt lat="49.58986" lon="-1.31485">
        <ele>52.2</ele>
        <time>2020-06-15T13:02:05Z</time>
      </trkpt>
      <trkpt lat="49.58985" lon="-1.31489">
        <ele>52.4</ele>
        <time>2020-06-15T13:02:06Z</time>
      </trkpt>
      <trkpt lat="49.58984" lon="-1.31494">
        <ele>52.6</ele>
        <time>2020-06-15T13:02:07Z</time>
      </trkpt>
      <trkpt lat="49.58983" lon="-1.31498">
        <ele>52.8</ele>
        <time>2020-06-15T13:02:08Z</time>
      </trkpt>
      <trkpt lat="49.58981" lon="-1.31503">
        <ele>53.1</ele>
        <time>2020-06-15T13:02:09Z</time>
      </trkpt>
      <trkpt lat="49.5898" lon="-1.31509">
        <ele>53.3</ele>
        <time>2020-06-15T13:02:10Z</time>
      </trkpt>
      <trkpt lat="49.58978" lon="-1.31515">
        <ele>53.6</ele>
        <time>2020-06-15T13:02:11Z</time>
      </trkpt>
      <trkpt lat="49.58977" lon="-1.31519">
        <ele>53.8</ele>
        <time>2020-06-15T13:02:12Z</time>
      </trkpt>
      <trkpt lat="49.58975" lon="-1.31524">
        <ele>54</ele>
        <time>2020-06-15T13:02:13Z</time>
      </trkpt>
      <trkpt lat="49.58974" lon="-1.31529">
        <ele>54.3</ele>
        <time>2020-06-15T13:02:14Z</time>
      </trkpt>
      <trkpt lat="49.58972" lon="-1.31534">
        <ele>54.5</ele>
        <time>2020-06-15T13:02:15Z</time>
      </trkpt>
      <trkpt lat="49.5897" lon="-1.31539">
        <ele>54.8</ele>
        <time>2020-06-15T13:02:16Z</time>
      </trkpt>
      <trkpt lat="49.58969" lon="-1.31543">
        <ele>54.9</ele>
        <time>2020-06-15T13:02:17Z</time>
      </trkpt>
      <trkpt lat="49.58968" lon="-1.31548">
        <ele>55.2</ele>
        <time>2020-06-15T13:02:18Z</time>
      </trkpt>
      <trkpt lat="49.58966" lon="-1.31553">
        <ele>55.4</ele>
        <time>2020-06-15T13:02:19Z</time>
      </trkpt>
      <trkpt lat="49.58965" lon="-1.31559">
        <ele>55.7</ele>
        <time>2020-06-15T13:02:20Z</time>
      </trkpt>
      <trkpt lat="49.58964" lon="-1.31564">
        <ele>55.9</ele>
        <time>2020-06-15T13:02:21Z</time>
      </trkpt>
      <trkpt lat="49.58962" lon="-1.31569">
        <ele>56.1</ele>
        <time>2020-06-15T13:02:22Z</time>
      </trkpt>
      <trkpt lat="49.58961" lon="-1.31573">
        <ele>56.3</ele>
        <time>2020-06-15T13:02:23Z</time>
      </trkpt>
      <trkpt lat="49.5896" lon="-1.31577">
        <ele>56.5</ele>
        <time>2020-06-15T13:02:24Z</time>
      </trkpt>
      <trkpt lat="49.58959" lon="-1.31582">
        <ele>56.7</ele>
        <time>2020-06-15T13:02:25Z</time>
      </trkpt>
      <trkpt lat="49.58958" lon="-1.31586">
        <ele>56.9</ele>
        <time>2020-06-15T13:02:26Z</time>
      </trkpt>
      <trkpt lat="49.58957" lon="-1.3159">
        <ele>57.1</ele>
        <time>2020-06-15T13:02:27Z</time>
      </trkpt>
      <trkpt lat="49.58956" lon="-1.31595">
        <ele>57.3</ele>
        <time>2020-06-15T13:02:28Z</time>
      </trkpt>
      <trkpt lat="49.58954" lon="-1.316">
        <ele>57.6</ele>
        <time>2020-06-15T13:02:29Z</time>
      </trkpt>
      <trkpt lat="49.58953" lon="-1.31606">
        <ele>57.9</ele>
        <time>2020-06-15T13:02:30Z</time>
      </trkpt>
      <trkpt lat="49.58952" lon="-1.31612">
        <ele>58.1</ele>
        <time>2020-06-15T13:02:31Z</time>
      </trkpt>
      <trkpt lat="49.5895" lon="-1.31617">
        <ele>58.4</ele>
        <time>2020-06-15T13:02:32Z</time>
      </trkpt>
      <trkpt lat="49.58949" lon="-1.31623">
        <ele>58.7</ele>
        <time>2020-06-15T13:02:33Z</time>
      </trkpt>
      <trkpt lat="49.58948" lon="-1.31628">
        <ele>58.9</ele>
        <time>2020-06-15T13:02:34Z</time>
      </trkpt>
      <trkpt lat="49.58947" lon="-1.31633">
        <ele>59.2</ele>
        <time>2020-06-15T13:02:35Z</time>
      </trkpt>
      <trkpt lat="49.58945" lon="-1.31638">
        <ele>59.4</ele>
        <time>2020-06-15T13:02:36Z</time>
      </trkpt>
      <trkpt lat="49.58943" lon="-1.31643">
        <ele>59.7</ele>
        <time>2020-06-15T13:02:37Z</time>
      </trkpt>
      <trkpt lat="49.58942" lon="-1.3165">
        <ele>60</ele>
        <time>2020-06-15T13:02:38Z</time>
      </trkpt>
      <trkpt lat="49.5894" lon="-1.31656">
        <ele>60.3</ele>
        <time>2020-06-15T13:02:39Z</time>
      </trkpt>
      <trkpt lat="49.58938" lon="-1.31661">
        <ele>60.6</ele>
        <time>2020-06-15T13:02:40Z</time>
      </trkpt>
      <trkpt lat="49.58937" lon="-1.31665">
        <ele>60.8</ele>
        <time>2020-06-15T13:02:41Z</time>
      </trkpt>
      <trkpt lat="49.58936" lon="-1.31669">
        <ele>61</ele>
        <time>2020-06-15T13:02:42Z</time>
      </trkpt>
      <trkpt lat="49.58935" lon="-1.31674">
        <ele>61.2</ele>
        <time>2020-06-15T13:02:43Z</time>
      </trkpt>
      <trkpt lat="49.58934" lon="-1.3168">
        <ele>61.4</ele>
        <time>2020-06-15T13:02:44Z</time>
      </trkpt>
      <trkpt lat="49.58933" lon="-1.31685">
        <ele>61.7</ele>
        <time>2020-06-15T13:02:45Z</time>
      </trkpt>
      <trkpt lat="49.58931" lon="-1.3169">
        <ele>61.9</ele>
        <time>2020-06-15T13:02:46Z</time>
      </trkpt>
      <trkpt lat="49.58929" lon="-1.31695">
        <ele>62.1</ele>
        <time>2020-06-15T13:02:47Z</time>
      </trkpt>
      <trkpt lat="49.58928" lon="-1.317">
        <ele>62.3</ele>
        <time>2020-06-15T13:02:48Z</time>
      </trkpt>
      <trkpt lat="49.58927" lon="-1.31706">
        <ele>62.6</ele>
        <time>2020-06-15T13:02:49Z</time>
      </trkpt>
      <trkpt lat="49.58926" lon="-1.31711">
        <ele>62.8</ele>
        <time>2020-06-15T13:02:50Z</time>
      </trkpt>
      <trkpt lat="49.58924" lon="-1.31716">
        <ele>63</ele>
        <time>2020-06-15T13:02:51Z</time>
      </trkpt>
      <trkpt lat="49.58923" lon="-1.31722">
        <ele>63.2</ele>
        <time>2020-06-15T13:02:52Z</time>
      </trkpt>
      <trkpt lat="49.58922" lon="-1.31726">
        <ele>63.3</ele>
        <time>2020-06-15T13:02:53Z</time>
      </trkpt>
      <trkpt lat="49.58919" lon="-1.3173">
        <ele>63.5</ele>
        <time>2020-06-15T13:02:54Z</time>
      </trkpt>
      <trkpt lat="49.58918" lon="-1.31735">
        <ele>63.7</ele>
        <time>2020-06-15T13:02:55Z</time>
      </trkpt>
      <trkpt lat="49.58916" lon="-1.31741">
        <ele>63.9</ele>
        <time>2020-06-15T13:02:56Z</time>
      </trkpt>
      <trkpt lat="49.58915" lon="-1.31745">
        <ele>64.1</ele>
        <time>2020-06-15T13:02:57Z</time>
      </trkpt>
      <trkpt lat="49.58913" lon="-1.3175">
        <ele>64.3</ele>
        <time>2020-06-15T13:02:58Z</time>
      </trkpt>
      <trkpt lat="49.58912" lon="-1.31755">
        <ele>64.5</ele>
        <time>2020-06-15T13:02:59Z</time>
      </trkpt>
      <trkpt lat="49.58911" lon="-1.31759">
        <ele>64.6</ele>
        <time>2020-06-15T13:03:00Z</time>
      </trkpt>
      <trkpt lat="49.5891" lon="-1.31764">
        <ele>64.8</ele>
        <time>2020-06-15T13:03:01Z</time>
      </trkpt>
      <trkpt lat="49.58909" lon="-1.31768">
        <ele>64.9</ele>
        <time>2020-06-15T13:03:02Z</time>
      </trkpt>
      <trkpt lat="49.58908" lon="-1.31773">
        <ele>65.1</ele>
        <time>2020-06-15T13:03:03Z</time>
      </trkpt>
      <trkpt lat="49.58907" lon="-1.31778">
        <ele>65.2</ele>
        <time>2020-06-15T13:03:04Z</time>
      </trkpt>
      <trkpt lat="49.58906" lon="-1.31784">
        <ele>65.4</ele>
        <time>2020-06-15T13:03:05Z</time>
      </trkpt>
      <trkpt lat="49.58904" lon="-1.31789">
        <ele>65.5</ele>
        <time>2020-06-15T13:03:06Z</time>
      </trkpt>
      <trkpt lat="49.58903" lon="-1.31796">
        <ele>65.7</ele>
        <time>2020-06-15T13:03:07Z</time>
      </trkpt>
      <trkpt lat="49.58902" lon="-1.31802">
        <ele>65.9</ele>
        <time>2020-06-15T13:03:08Z</time>
      </trkpt>
      <trkpt lat="49.589" lon="-1.31808">
        <ele>66</ele>
        <time>2020-06-15T13:03:09Z</time>
      </trkpt>
      <trkpt lat="49.58898" lon="-1.31814">
        <ele>66.2</ele>
        <time>2020-06-15T13:03:10Z</time>
      </trkpt>
      <trkpt lat="49.58896" lon="-1.3182">
        <ele>66.3</ele>
        <time>2020-06-15T13:03:11Z</time>
      </trkpt>
      <trkpt lat="49.58895" lon="-1.31825">
        <ele>66.4</ele>
        <time>2020-06-15T13:03:12Z</time>
      </trkpt>
      <trkpt lat="49.58893" lon="-1.31831">
        <ele>66.5</ele>
        <time>2020-06-15T13:03:13Z</time>
      </trkpt>
      <trkpt lat="49.58892" lon="-1.31837">
        <ele>66.6</ele>
        <time>2020-06-15T13:03:14Z</time>
      </trkpt>
      <trkpt lat="49.5889" lon="-1.31843">
        <ele>66.7</ele>
        <time>2020-06-15T13:03:15Z</time>
      </trkpt>
      <trkpt lat="49.58888" lon="-1.31849">
        <ele>66.9</ele>
        <time>2020-06-15T13:03:16Z</time>
      </trkpt>
      <trkpt lat="49.58886" lon="-1.31855">
        <ele>67</ele>
        <time>2020-06-15T13:03:17Z</time>
      </trkpt>
      <trkpt lat="49.58884" lon="-1.31861">
        <ele>67.1</ele>
        <time>2020-06-15T13:03:18Z</time>
      </trkpt>
      <trkpt lat="49.58882" lon="-1.31868">
        <ele>67.1</ele>
        <time>2020-06-15T13:03:19Z</time>
      </trkpt>
      <trkpt lat="49.5888" lon="-1.31874">
        <ele>67.2</ele>
        <time>2020-06-15T13:03:20Z</time>
      </trkpt>
      <trkpt lat="49.58878" lon="-1.31881">
        <ele>67.3</ele>
        <time>2020-06-15T13:03:21Z</time>
      </trkpt>
      <trkpt lat="49.58876" lon="-1.31887">
        <ele>67.4</ele>
        <time>2020-06-15T13:03:22Z</time>
      </trkpt>
      <trkpt lat="49.58874" lon="-1.31894">
        <ele>67.4</ele>
        <time>2020-06-15T13:03:23Z</time>
      </trkpt>
      <trkpt lat="49.58872" lon="-1.31902">
        <ele>67.5</ele>
        <time>2020-06-15T13:03:24Z</time>
      </trkpt>
      <trkpt lat="49.5887" lon="-1.31908">
        <ele>67.5</ele>
        <time>2020-06-15T13:03:25Z</time>
      </trkpt>
      <trkpt lat="49.58868" lon="-1.31915">
        <ele>67.6</ele>
        <time>2020-06-15T13:03:26Z</time>
      </trkpt>
      <trkpt lat="49.58866" lon="-1.31922">
        <ele>67.6</ele>
        <time>2020-06-15T13:03:27Z</time>
      </trkpt>
      <trkpt lat="49.58863" lon="-1.31929">
        <ele>67.7</ele>
        <time>2020-06-15T13:03:28Z</time>
      </trkpt>
      <trkpt lat="49.58862" lon="-1.31937">
        <ele>67.7</ele>
        <time>2020-06-15T13:03:29Z</time>
      </trkpt>
      <trkpt lat="49.5886" lon="-1.31945">
        <ele>67.8</ele>
        <time>2020-06-15T13:03:30Z</time>
      </trkpt>
      <trkpt lat="49.58857" lon="-1.31953">
        <ele>67.8</ele>
        <time>2020-06-15T13:03:31Z</time>
      </trkpt>
      <trkpt lat="49.58855" lon="-1.3196">
        <ele>67.9</ele>
        <time>2020-06-15T13:03:32Z</time>
      </trkpt>
      <trkpt lat="49.58853" lon="-1.31968">
        <ele>67.9</ele>
        <time>2020-06-15T13:03:33Z</time>
      </trkpt>
      <trkpt lat="49.58851" lon="-1.31975">
        <ele>67.9</ele>
        <time>2020-06-15T13:03:34Z</time>
      </trkpt>
      <trkpt lat="49.58849" lon="-1.31982">
        <ele>67.9</ele>
        <time>2020-06-15T13:03:35Z</time>
      </trkpt>
      <trkpt lat="49.58848" lon="-1.3199">
        <ele>67.9</ele>
        <time>2020-06-15T13:03:36Z</time>
      </trkpt>
      <trkpt lat="49.58846" lon="-1.31997">
        <ele>67.9</ele>
        <time>2020-06-15T13:03:37Z</time>
      </trkpt>
      <trkpt lat="49.58844" lon="-1.32004">
        <ele>67.9</ele>
        <time>2020-06-15T13:03:38Z</time>
      </trkpt>
      <trkpt lat="49.58842" lon="-1.32011">
        <ele>67.9</ele>
        <time>2020-06-15T13:03:39Z</time>
      </trkpt>
      <trkpt lat="49.58839" lon="-1.32019">
        <ele>67.9</ele>
        <time>2020-06-15T13:03:40Z</time>
      </trkpt>
      <trkpt lat="49.58836" lon="-1.32027">
        <ele>67.9</ele>
        <time>2020-06-15T13:03:41Z</time>
      </trkpt>
      <trkpt lat="49.58834" lon="-1.32035">
        <ele>67.9</ele>
        <time>2020-06-15T13:03:42Z</time>
      </trkpt>
      <trkpt lat="49.58831" lon="-1.32043">
        <ele>67.9</ele>
        <time>2020-06-15T13:03:43Z</time>
      </trkpt>
      <trkpt lat="49.58828" lon="-1.32051">
        <ele>68</ele>
        <time>2020-06-15T13:03:44Z</time>
      </trkpt>
      <trkpt lat="49.58826" lon="-1.32059">
        <ele>68</ele>
        <time>2020-06-15T13:03:45Z</time>
      </trkpt>
      <trkpt lat="49.58823" lon="-1.32067">
        <ele>68</ele>
        <time>2020-06-15T13:03:46Z</time>
      </trkpt>
      <trkpt lat="49.58821" lon="-1.32074">
        <ele>68.1</ele>
        <time>2020-06-15T13:03:47Z</time>
      </trkpt>
      <trkpt lat="49.58819" lon="-1.32082">
        <ele>68.1</ele>
        <time>2020-06-15T13:03:48Z</time>
      </trkpt>
      <trkpt lat="49.58816" lon="-1.3209">
        <ele>68.1</ele>
        <time>2020-06-15T13:03:49Z</time>
      </trkpt>
      <trkpt lat="49.58814" lon="-1.32098">
        <ele>68.2</ele>
        <time>2020-06-15T13:03:50Z</time>
      </trkpt>
      <trkpt lat="49.58812" lon="-1.32106">
        <ele>68.2</ele>
        <time>2020-06-15T13:03:51Z</time>
      </trkpt>
      <trkpt lat="49.5881" lon="-1.32114">
        <ele>68.2</ele>
        <time>2020-06-15T13:03:52Z</time>
      </trkpt>
      <trkpt lat="49.58807" lon="-1.32123">
        <ele>68.2</ele>
        <time>2020-06-15T13:03:53Z</time>
      </trkpt>
      <trkpt lat="49.58805" lon="-1.32131">
        <ele>68.2</ele>
        <time>2020-06-15T13:03:54Z</time>
      </trkpt>
      <trkpt lat="49.58803" lon="-1.3214">
        <ele>68.3</ele>
        <time>2020-06-15T13:03:55Z</time>
      </trkpt>
      <trkpt lat="49.58801" lon="-1.32149">
        <ele>68.3</ele>
        <time>2020-06-15T13:03:56Z</time>
      </trkpt>
      <trkpt lat="49.58799" lon="-1.32156">
        <ele>68.3</ele>
        <time>2020-06-15T13:03:57Z</time>
      </trkpt>
      <trkpt lat="49.58798" lon="-1.32164">
        <ele>68.4</ele>
        <time>2020-06-15T13:03:58Z</time>
      </trkpt>
      <trkpt lat="49.58796" lon="-1.32171">
        <ele>68.4</ele>
        <time>2020-06-15T13:03:59Z</time>
      </trkpt>
      <trkpt lat="49.58794" lon="-1.3218">
        <ele>68.4</ele>
        <time>2020-06-15T13:04:00Z</time>
      </trkpt>
      <trkpt lat="49.58792" lon="-1.32188">
        <ele>68.4</ele>
        <time>2020-06-15T13:04:01Z</time>
      </trkpt>
      <trkpt lat="49.58789" lon="-1.32198">
        <ele>68.4</ele>
        <time>2020-06-15T13:04:02Z</time>
      </trkpt>
      <trkpt lat="49.58787" lon="-1.32207">
        <ele>68.4</ele>
        <time>2020-06-15T13:04:03Z</time>
      </trkpt>
      <trkpt lat="49.58784" lon="-1.32215">
        <ele>68.5</ele>
        <time>2020-06-15T13:04:04Z</time>
      </trkpt>
      <trkpt lat="49.58781" lon="-1.32224">
        <ele>68.5</ele>
        <time>2020-06-15T13:04:05Z</time>
      </trkpt>
      <trkpt lat="49.58779" lon="-1.32232">
        <ele>68.5</ele>
        <time>2020-06-15T13:04:06Z</time>
      </trkpt>
      <trkpt lat="49.58777" lon="-1.3224">
        <ele>68.5</ele>
        <time>2020-06-15T13:04:07Z</time>
      </trkpt>
      <trkpt lat="49.58774" lon="-1.32248">
        <ele>68.6</ele>
        <time>2020-06-15T13:04:08Z</time>
      </trkpt>
      <trkpt lat="49.58771" lon="-1.32256">
        <ele>68.6</ele>
        <time>2020-06-15T13:04:09Z</time>
      </trkpt>
      <trkpt lat="49.58768" lon="-1.32265">
        <ele>68.6</ele>
        <time>2020-06-15T13:04:10Z</time>
      </trkpt>
      <trkpt lat="49.58766" lon="-1.32274">
        <ele>68.7</ele>
        <time>2020-06-15T13:04:11Z</time>
      </trkpt>
      <trkpt lat="49.58763" lon="-1.32283">
        <ele>68.7</ele>
        <time>2020-06-15T13:04:12Z</time>
      </trkpt>
      <trkpt lat="49.58761" lon="-1.32293">
        <ele>68.8</ele>
        <time>2020-06-15T13:04:13Z</time>
      </trkpt>
      <trkpt lat="49.58758" lon="-1.32303">
        <ele>68.9</ele>
        <time>2020-06-15T13:04:14Z</time>
      </trkpt>
      <trkpt lat="49.58755" lon="-1.32313">
        <ele>69</ele>
        <time>2020-06-15T13:04:15Z</time>
      </trkpt>
      <trkpt lat="49.58753" lon="-1.32321">
        <ele>69</ele>
        <time>2020-06-15T13:04:16Z</time>
      </trkpt>
      <trkpt lat="49.5875" lon="-1.3233">
        <ele>69.1</ele>
        <time>2020-06-15T13:04:17Z</time>
      </trkpt>
      <trkpt lat="49.58747" lon="-1.32339">
        <ele>69.2</ele>
        <time>2020-06-15T13:04:18Z</time>
      </trkpt>
      <trkpt lat="49.58745" lon="-1.32347">
        <ele>69.2</ele>
        <time>2020-06-15T13:04:19Z</time>
      </trkpt>
      <trkpt lat="49.58743" lon="-1.32355">
        <ele>69.2</ele>
        <time>2020-06-15T13:04:20Z</time>
      </trkpt>
      <trkpt lat="49.58741" lon="-1.32363">
        <ele>69.2</ele>
        <time>2020-06-15T13:04:21Z</time>
      </trkpt>
      <trkpt lat="49.58739" lon="-1.32371">
        <ele>69.1</ele>
        <time>2020-06-15T13:04:22Z</time>
      </trkpt>
      <trkpt lat="49.58736" lon="-1.32378">
        <ele>69.1</ele>
        <time>2020-06-15T13:04:23Z</time>
      </trkpt>
      <trkpt lat="49.58734" lon="-1.32387">
        <ele>69</ele>
        <time>2020-06-15T13:04:24Z</time>
      </trkpt>
      <trkpt lat="49.58731" lon="-1.32397">
        <ele>69</ele>
        <time>2020-06-15T13:04:25Z</time>
      </trkpt>
      <trkpt lat="49.58729" lon="-1.32406">
        <ele>68.9</ele>
        <time>2020-06-15T13:04:26Z</time>
      </trkpt>
      <trkpt lat="49.58726" lon="-1.32415">
        <ele>68.9</ele>
        <time>2020-06-15T13:04:27Z</time>
      </trkpt>
      <trkpt lat="49.58723" lon="-1.32425">
        <ele>68.8</ele>
        <time>2020-06-15T13:04:28Z</time>
      </trkpt>
      <trkpt lat="49.58721" lon="-1.32434">
        <ele>68.7</ele>
        <time>2020-06-15T13:04:29Z</time>
      </trkpt>
      <trkpt lat="49.58718" lon="-1.32444">
        <ele>68.7</ele>
        <time>2020-06-15T13:04:30Z</time>
      </trkpt>
      <trkpt lat="49.58716" lon="-1.32453">
        <ele>68.6</ele>
        <time>2020-06-15T13:04:31Z</time>
      </trkpt>
      <trkpt lat="49.58714" lon="-1.32461">
        <ele>68.5</ele>
        <time>2020-06-15T13:04:32Z</time>
      </trkpt>
      <trkpt lat="49.58711" lon="-1.3247">
        <ele>68.5</ele>
        <time>2020-06-15T13:04:33Z</time>
      </trkpt>
      <trkpt lat="49.58708" lon="-1.3248">
        <ele>68.4</ele>
        <time>2020-06-15T13:04:34Z</time>
      </trkpt>
      <trkpt lat="49.58705" lon="-1.32491">
        <ele>68.2</ele>
        <time>2020-06-15T13:04:35Z</time>
      </trkpt>
      <trkpt lat="49.58703" lon="-1.325">
        <ele>68.1</ele>
        <time>2020-06-15T13:04:36Z</time>
      </trkpt>
      <trkpt lat="49.587" lon="-1.32509">
        <ele>68</ele>
        <time>2020-06-15T13:04:37Z</time>
      </trkpt>
      <trkpt lat="49.58697" lon="-1.32519">
        <ele>67.9</ele>
        <time>2020-06-15T13:04:38Z</time>
      </trkpt>
      <trkpt lat="49.58695" lon="-1.32528">
        <ele>67.8</ele>
        <time>2020-06-15T13:04:39Z</time>
      </trkpt>
      <trkpt lat="49.58692" lon="-1.32537">
        <ele>67.7</ele>
        <time>2020-06-15T13:04:40Z</time>
      </trkpt>
      <trkpt lat="49.5869" lon="-1.32546">
        <ele>67.6</ele>
        <time>2020-06-15T13:04:41Z</time>
      </trkpt>
      <trkpt lat="49.58688" lon="-1.32555">
        <ele>67.6</ele>
        <time>2020-06-15T13:04:42Z</time>
      </trkpt>
      <trkpt lat="49.58685" lon="-1.32564">
        <ele>67.5</ele>
        <time>2020-06-15T13:04:43Z</time>
      </trkpt>
      <trkpt lat="49.58683" lon="-1.32574">
        <ele>67.4</ele>
        <time>2020-06-15T13:04:44Z</time>
      </trkpt>
      <trkpt lat="49.58681" lon="-1.32581">
        <ele>67.3</ele>
        <time>2020-06-15T13:04:45Z</time>
      </trkpt>
      <trkpt lat="49.58679" lon="-1.32589">
        <ele>67.3</ele>
        <time>2020-06-15T13:04:46Z</time>
      </trkpt>
      <trkpt lat="49.58676" lon="-1.32596">
        <ele>67.2</ele>
        <time>2020-06-15T13:04:47Z</time>
      </trkpt>
      <trkpt lat="49.58674" lon="-1.32604">
        <ele>67.1</ele>
        <time>2020-06-15T13:04:48Z</time>
      </trkpt>
      <trkpt lat="49.58671" lon="-1.32614">
        <ele>67</ele>
        <time>2020-06-15T13:04:49Z</time>
      </trkpt>
      <trkpt lat="49.58669" lon="-1.32621">
        <ele>66.9</ele>
        <time>2020-06-15T13:04:50Z</time>
      </trkpt>
      <trkpt lat="49.58667" lon="-1.3263">
        <ele>66.7</ele>
        <time>2020-06-15T13:04:51Z</time>
      </trkpt>
      <trkpt lat="49.58666" lon="-1.32639">
        <ele>66.6</ele>
        <time>2020-06-15T13:04:52Z</time>
      </trkpt>
      <trkpt lat="49.58664" lon="-1.32648">
        <ele>66.5</ele>
        <time>2020-06-15T13:04:53Z</time>
      </trkpt>
      <trkpt lat="49.58662" lon="-1.32655">
        <ele>66.5</ele>
        <time>2020-06-15T13:04:54Z</time>
      </trkpt>
      <trkpt lat="49.58659" lon="-1.32664">
        <ele>66.4</ele>
        <time>2020-06-15T13:04:55Z</time>
      </trkpt>
      <trkpt lat="49.58657" lon="-1.32674">
        <ele>66.4</ele>
        <time>2020-06-15T13:04:56Z</time>
      </trkpt>
      <trkpt lat="49.58655" lon="-1.32683">
        <ele>66.3</ele>
        <time>2020-06-15T13:04:57Z</time>
      </trkpt>
      <trkpt lat="49.58652" lon="-1.32692">
        <ele>66.2</ele>
        <time>2020-06-15T13:04:58Z</time>
      </trkpt>
      <trkpt lat="49.5865" lon="-1.32701">
        <ele>66.1</ele>
        <time>2020-06-15T13:04:59Z</time>
      </trkpt>
      <trkpt lat="49.58647" lon="-1.3271">
        <ele>65.9</ele>
        <time>2020-06-15T13:05:00Z</time>
      </trkpt>
      <trkpt lat="49.58644" lon="-1.32719">
        <ele>65.6</ele>
        <time>2020-06-15T13:05:01Z</time>
      </trkpt>
      <trkpt lat="49.58643" lon="-1.32726">
        <ele>65.5</ele>
        <time>2020-06-15T13:05:02Z</time>
      </trkpt>
      <trkpt lat="49.58641" lon="-1.32734">
        <ele>65.3</ele>
        <time>2020-06-15T13:05:03Z</time>
      </trkpt>
      <trkpt lat="49.58639" lon="-1.32742">
        <ele>65.1</ele>
        <time>2020-06-15T13:05:04Z</time>
      </trkpt>
      <trkpt lat="49.58636" lon="-1.32752">
        <ele>64.9</ele>
        <time>2020-06-15T13:05:05Z</time>
      </trkpt>
      <trkpt lat="49.58635" lon="-1.32761">
        <ele>64.7</ele>
        <time>2020-06-15T13:05:06Z</time>
      </trkpt>
      <trkpt lat="49.58633" lon="-1.3277">
        <ele>64.5</ele>
        <time>2020-06-15T13:05:07Z</time>
      </trkpt>
      <trkpt lat="49.58631" lon="-1.32778">
        <ele>64.2</ele>
        <time>2020-06-15T13:05:08Z</time>
      </trkpt>
      <trkpt lat="49.58628" lon="-1.32788">
        <ele>64</ele>
        <time>2020-06-15T13:05:09Z</time>
      </trkpt>
      <trkpt lat="49.58625" lon="-1.328">
        <ele>63.6</ele>
        <time>2020-06-15T13:05:10Z</time>
      </trkpt>
      <trkpt lat="49.58622" lon="-1.32811">
        <ele>63.2</ele>
        <time>2020-06-15T13:05:11Z</time>
      </trkpt>
      <trkpt lat="49.58618" lon="-1.32825">
        <ele>62.6</ele>
        <time>2020-06-15T13:05:12Z</time>
      </trkpt>
      <trkpt lat="49.58614" lon="-1.3284">
        <ele>62</ele>
        <time>2020-06-15T13:05:13Z</time>
      </trkpt>
      <trkpt lat="49.58609" lon="-1.32855">
        <ele>61.3</ele>
        <time>2020-06-15T13:05:14Z</time>
      </trkpt>
      <trkpt lat="49.58605" lon="-1.32871">
        <ele>60.5</ele>
        <time>2020-06-15T13:05:15Z</time>
      </trkpt>
      <trkpt lat="49.586" lon="-1.32886">
        <ele>59.6</ele>
        <time>2020-06-15T13:05:16Z</time>
      </trkpt>
      <trkpt lat="49.58596" lon="-1.32902">
        <ele>58.8</ele>
        <time>2020-06-15T13:05:17Z</time>
      </trkpt>
      <trkpt lat="49.58591" lon="-1.32919">
        <ele>58</ele>
        <time>2020-06-15T13:05:18Z</time>
      </trkpt>
      <trkpt lat="49.58586" lon="-1.32936">
        <ele>57</ele>
        <time>2020-06-15T13:05:19Z</time>
      </trkpt>
      <trkpt lat="49.58581" lon="-1.32953">
        <ele>56.1</ele>
        <time>2020-06-15T13:05:20Z</time>
      </trkpt>
      <trkpt lat="49.58575" lon="-1.32969">
        <ele>55.1</ele>
        <time>2020-06-15T13:05:21Z</time>
      </trkpt>
      <trkpt lat="49.5857" lon="-1.32988">
        <ele>54.2</ele>
        <time>2020-06-15T13:05:22Z</time>
      </trkpt>
      <trkpt lat="49.58565" lon="-1.33004">
        <ele>53.3</ele>
        <time>2020-06-15T13:05:23Z</time>
      </trkpt>
      <trkpt lat="49.5856" lon="-1.33021">
        <ele>52.5</ele>
        <time>2020-06-15T13:05:24Z</time>
      </trkpt>
      <trkpt lat="49.58554" lon="-1.33038">
        <ele>51.7</ele>
        <time>2020-06-15T13:05:25Z</time>
      </trkpt>
      <trkpt lat="49.58549" lon="-1.33055">
        <ele>51.1</ele>
        <time>2020-06-15T13:05:26Z</time>
      </trkpt>
      <trkpt lat="49.58544" lon="-1.33073">
        <ele>50.6</ele>
        <time>2020-06-15T13:05:27Z</time>
      </trkpt>
      <trkpt lat="49.58539" lon="-1.3309">
        <ele>50.4</ele>
        <time>2020-06-15T13:05:28Z</time>
      </trkpt>
      <trkpt lat="49.58534" lon="-1.33107">
        <ele>50.2</ele>
        <time>2020-06-15T13:05:29Z</time>
      </trkpt>
      <trkpt lat="49.5853" lon="-1.33125">
        <ele>50.1</ele>
        <time>2020-06-15T13:05:30Z</time>
      </trkpt>
      <trkpt lat="49.58526" lon="-1.33142">
        <ele>50.2</ele>
        <time>2020-06-15T13:05:31Z</time>
      </trkpt>
      <trkpt lat="49.58522" lon="-1.33157">
        <ele>50.3</ele>
        <time>2020-06-15T13:05:32Z</time>
      </trkpt>
      <trkpt lat="49.58517" lon="-1.33171">
        <ele>50.5</ele>
        <time>2020-06-15T13:05:33Z</time>
      </trkpt>
      <trkpt lat="49.58514" lon="-1.33184">
        <ele>50.8</ele>
        <time>2020-06-15T13:05:34Z</time>
      </trkpt>
      <trkpt lat="49.5851" lon="-1.33196">
        <ele>51.2</ele>
        <time>2020-06-15T13:05:35Z</time>
      </trkpt>
      <trkpt lat="49.58507" lon="-1.33207">
        <ele>51.5</ele>
        <time>2020-06-15T13:05:36Z</time>
      </trkpt>
      <trkpt lat="49.58503" lon="-1.33219">
        <ele>52</ele>
        <time>2020-06-15T13:05:37Z</time>
      </trkpt>
      <trkpt lat="49.58501" lon="-1.3323">
        <ele>52.4</ele>
        <time>2020-06-15T13:05:38Z</time>
      </trkpt>
      <trkpt lat="49.58498" lon="-1.33239">
        <ele>52.7</ele>
        <time>2020-06-15T13:05:39Z</time>
      </trkpt>
      <trkpt lat="49.58495" lon="-1.33249">
        <ele>53.1</ele>
        <time>2020-06-15T13:05:40Z</time>
      </trkpt>
      <trkpt lat="49.58493" lon="-1.33258">
        <ele>53.5</ele>
        <time>2020-06-15T13:05:41Z</time>
      </trkpt>
      <trkpt lat="49.58492" lon="-1.33266">
        <ele>53.8</ele>
        <time>2020-06-15T13:05:42Z</time>
      </trkpt>
      <trkpt lat="49.58491" lon="-1.33273">
        <ele>54.1</ele>
        <time>2020-06-15T13:05:43Z</time>
      </trkpt>
      <trkpt lat="49.5849" lon="-1.3328">
        <ele>54.4</ele>
        <time>2020-06-15T13:05:44Z</time>
      </trkpt>
      <trkpt lat="49.58487" lon="-1.33285">
        <ele>54.8</ele>
        <time>2020-06-15T13:05:45Z</time>
      </trkpt>
      <trkpt lat="49.58485" lon="-1.33291">
        <ele>55.1</ele>
        <time>2020-06-15T13:05:46Z</time>
      </trkpt>
      <trkpt lat="49.58484" lon="-1.33298">
        <ele>55.4</ele>
        <time>2020-06-15T13:05:47Z</time>
      </trkpt>
      <trkpt lat="49.58483" lon="-1.33305">
        <ele>55.8</ele>
        <time>2020-06-15T13:05:48Z</time>
      </trkpt>
      <trkpt lat="49.58483" lon="-1.33311">
        <ele>56.1</ele>
        <time>2020-06-15T13:05:49Z</time>
      </trkpt>
      <trkpt lat="49.58482" lon="-1.33314">
        <ele>56.2</ele>
        <time>2020-06-15T13:05:50Z</time>
      </trkpt>
      <trkpt lat="49.58483" lon="-1.33314">
        <ele>56.2</ele>
        <time>2020-06-15T13:05:51Z</time>
      </trkpt>
      <trkpt lat="49.58481" lon="-1.33315">
        <ele>56.4</ele>
        <time>2020-06-15T13:05:52Z</time>
      </trkpt>
      <trkpt lat="49.5848" lon="-1.33318">
        <ele>56.6</ele>
        <time>2020-06-15T13:05:53Z</time>
      </trkpt>
      <trkpt lat="49.58478" lon="-1.33323">
        <ele>56.8</ele>
        <time>2020-06-15T13:05:54Z</time>
      </trkpt>
      <trkpt lat="49.58477" lon="-1.33328">
        <ele>57.1</ele>
        <time>2020-06-15T13:05:55Z</time>
      </trkpt>
      <trkpt lat="49.58476" lon="-1.3333">
        <ele>57.1</ele>
        <time>2020-06-15T13:05:56Z</time>
      </trkpt>
      <trkpt lat="49.58475" lon="-1.33335">
        <ele>57.4</ele>
        <time>2020-06-15T13:05:57Z</time>
      </trkpt>
      <trkpt lat="49.58474" lon="-1.33337">
        <ele>57.5</ele>
        <time>2020-06-15T13:05:58Z</time>
      </trkpt>
      <trkpt lat="49.58473" lon="-1.3334">
        <ele>57.7</ele>
        <time>2020-06-15T13:05:59Z</time>
      </trkpt>
      <trkpt lat="49.58472" lon="-1.33345">
        <ele>57.9</ele>
        <time>2020-06-15T13:06:00Z</time>
      </trkpt>
      <trkpt lat="49.58471" lon="-1.3335">
        <ele>58.1</ele>
        <time>2020-06-15T13:06:01Z</time>
      </trkpt>
      <trkpt lat="49.5847" lon="-1.33355">
        <ele>58.4</ele>
        <time>2020-06-15T13:06:02Z</time>
      </trkpt>
      <trkpt lat="49.58469" lon="-1.3336">
        <ele>58.6</ele>
        <time>2020-06-15T13:06:03Z</time>
      </trkpt>
      <trkpt lat="49.58468" lon="-1.33365">
        <ele>58.9</ele>
        <time>2020-06-15T13:06:04Z</time>
      </trkpt>
      <trkpt lat="49.58468" lon="-1.33369">
        <ele>59.1</ele>
        <time>2020-06-15T13:06:05Z</time>
      </trkpt>
      <trkpt lat="49.58467" lon="-1.33376">
        <ele>59.4</ele>
        <time>2020-06-15T13:06:06Z</time>
      </trkpt>
      <trkpt lat="49.58466" lon="-1.33378">
        <ele>59.6</ele>
        <time>2020-06-15T13:06:07Z</time>
      </trkpt>
      <trkpt lat="49.58465" lon="-1.33382">
        <ele>59.8</ele>
        <time>2020-06-15T13:06:08Z</time>
      </trkpt>
      <trkpt lat="49.58464" lon="-1.33387">
        <ele>60</ele>
        <time>2020-06-15T13:06:09Z</time>
      </trkpt>
      <trkpt lat="49.58463" lon="-1.33392">
        <ele>60.2</ele>
        <time>2020-06-15T13:06:10Z</time>
      </trkpt>
      <trkpt lat="49.58462" lon="-1.33396">
        <ele>60.5</ele>
        <time>2020-06-15T13:06:11Z</time>
      </trkpt>
      <trkpt lat="49.5846" lon="-1.33401">
        <ele>60.8</ele>
        <time>2020-06-15T13:06:12Z</time>
      </trkpt>
      <trkpt lat="49.58459" lon="-1.33403">
        <ele>60.9</ele>
        <time>2020-06-15T13:06:13Z</time>
      </trkpt>
      <trkpt lat="49.58457" lon="-1.33407">
        <ele>61.1</ele>
        <time>2020-06-15T13:06:14Z</time>
      </trkpt>
      <trkpt lat="49.58455" lon="-1.33412">
        <ele>61.4</ele>
        <time>2020-06-15T13:06:15Z</time>
      </trkpt>
      <trkpt lat="49.58453" lon="-1.33416">
        <ele>61.6</ele>
        <time>2020-06-15T13:06:16Z</time>
      </trkpt>
      <trkpt lat="49.58451" lon="-1.33421">
        <ele>61.9</ele>
        <time>2020-06-15T13:06:17Z</time>
      </trkpt>
      <trkpt lat="49.58449" lon="-1.33425">
        <ele>62.1</ele>
        <time>2020-06-15T13:06:18Z</time>
      </trkpt>
      <trkpt lat="49.58447" lon="-1.3343">
        <ele>62.4</ele>
        <time>2020-06-15T13:06:19Z</time>
      </trkpt>
      <trkpt lat="49.58446" lon="-1.33435">
        <ele>62.7</ele>
        <time>2020-06-15T13:06:20Z</time>
      </trkpt>
      <trkpt lat="49.58443" lon="-1.33441">
        <ele>63</ele>
        <time>2020-06-15T13:06:21Z</time>
      </trkpt>
      <trkpt lat="49.58442" lon="-1.33448">
        <ele>63.3</ele>
        <time>2020-06-15T13:06:22Z</time>
      </trkpt>
      <trkpt lat="49.5844" lon="-1.33455">
        <ele>63.7</ele>
        <time>2020-06-15T13:06:23Z</time>
      </trkpt>
      <trkpt lat="49.5844" lon="-1.33461">
        <ele>64</ele>
        <time>2020-06-15T13:06:24Z</time>
      </trkpt>
      <trkpt lat="49.58439" lon="-1.33466">
        <ele>64.2</ele>
        <time>2020-06-15T13:06:25Z</time>
      </trkpt>
      <trkpt lat="49.58439" lon="-1.3347">
        <ele>64.4</ele>
        <time>2020-06-15T13:06:26Z</time>
      </trkpt>
      <trkpt lat="49.58438" lon="-1.33475">
        <ele>64.7</ele>
        <time>2020-06-15T13:06:27Z</time>
      </trkpt>
      <trkpt lat="49.58437" lon="-1.33479">
        <ele>64.9</ele>
        <time>2020-06-15T13:06:28Z</time>
      </trkpt>
      <trkpt lat="49.58434" lon="-1.33485">
        <ele>65.2</ele>
        <time>2020-06-15T13:06:29Z</time>
      </trkpt>
      <trkpt lat="49.58433" lon="-1.33487">
        <ele>65.4</ele>
        <time>2020-06-15T13:06:30Z</time>
      </trkpt>
      <trkpt lat="49.58431" lon="-1.33492">
        <ele>65.6</ele>
        <time>2020-06-15T13:06:31Z</time>
      </trkpt>
      <trkpt lat="49.5843" lon="-1.33496">
        <ele>65.8</ele>
        <time>2020-06-15T13:06:32Z</time>
      </trkpt>
      <trkpt lat="49.5843" lon="-1.33501">
        <ele>66</ele>
        <time>2020-06-15T13:06:33Z</time>
      </trkpt>
      <trkpt lat="49.5843" lon="-1.33506">
        <ele>66.3</ele>
        <time>2020-06-15T13:06:34Z</time>
      </trkpt>
      <trkpt lat="49.5843" lon="-1.33508">
        <ele>66.4</ele>
        <time>2020-06-15T13:06:35Z</time>
      </trkpt>
      <trkpt lat="49.58429" lon="-1.33514">
        <ele>66.7</ele>
        <time>2020-06-15T13:06:36Z</time>
      </trkpt>
      <trkpt lat="49.58429" lon="-1.33516">
        <ele>66.7</ele>
        <time>2020-06-15T13:06:37Z</time>
      </trkpt>
      <trkpt lat="49.58428" lon="-1.33521">
        <ele>67</ele>
        <time>2020-06-15T13:06:38Z</time>
      </trkpt>
      <trkpt lat="49.58427" lon="-1.33523">
        <ele>67.1</ele>
        <time>2020-06-15T13:06:39Z</time>
      </trkpt>
      <trkpt lat="49.58426" lon="-1.33529">
        <ele>67.3</ele>
        <time>2020-06-15T13:06:40Z</time>
      </trkpt>
      <trkpt lat="49.58425" lon="-1.33535">
        <ele>67.6</ele>
        <time>2020-06-15T13:06:41Z</time>
      </trkpt>
      <trkpt lat="49.58425" lon="-1.33541">
        <ele>67.9</ele>
        <time>2020-06-15T13:06:42Z</time>
      </trkpt>
      <trkpt lat="49.58424" lon="-1.33548">
        <ele>68.1</ele>
        <time>2020-06-15T13:06:43Z</time>
      </trkpt>
      <trkpt lat="49.58423" lon="-1.33552">
        <ele>68.3</ele>
        <time>2020-06-15T13:06:44Z</time>
      </trkpt>
      <trkpt lat="49.58421" lon="-1.33557">
        <ele>68.5</ele>
        <time>2020-06-15T13:06:45Z</time>
      </trkpt>
      <trkpt lat="49.5842" lon="-1.33561">
        <ele>68.7</ele>
        <time>2020-06-15T13:06:46Z</time>
      </trkpt>
      <trkpt lat="49.58419" lon="-1.33567">
        <ele>68.9</ele>
        <time>2020-06-15T13:06:47Z</time>
      </trkpt>
      <trkpt lat="49.58418" lon="-1.33572">
        <ele>69.1</ele>
        <time>2020-06-15T13:06:48Z</time>
      </trkpt>
      <trkpt lat="49.58417" lon="-1.33576">
        <ele>69.3</ele>
        <time>2020-06-15T13:06:49Z</time>
      </trkpt>
      <trkpt lat="49.58416" lon="-1.33581">
        <ele>69.5</ele>
        <time>2020-06-15T13:06:50Z</time>
      </trkpt>
      <trkpt lat="49.58413" lon="-1.33585">
        <ele>69.7</ele>
        <time>2020-06-15T13:06:51Z</time>
      </trkpt>
      <trkpt lat="49.58411" lon="-1.33589">
        <ele>69.9</ele>
        <time>2020-06-15T13:06:52Z</time>
      </trkpt>
      <trkpt lat="49.5841" lon="-1.33595">
        <ele>70.1</ele>
        <time>2020-06-15T13:06:53Z</time>
      </trkpt>
      <trkpt lat="49.5841" lon="-1.336">
        <ele>70.3</ele>
        <time>2020-06-15T13:06:54Z</time>
      </trkpt>
      <trkpt lat="49.58409" lon="-1.33604">
        <ele>70.5</ele>
        <time>2020-06-15T13:06:55Z</time>
      </trkpt>
      <trkpt lat="49.58407" lon="-1.3361">
        <ele>70.8</ele>
        <time>2020-06-15T13:06:56Z</time>
      </trkpt>
      <trkpt lat="49.58406" lon="-1.33613">
        <ele>70.9</ele>
        <time>2020-06-15T13:06:57Z</time>
      </trkpt>
      <trkpt lat="49.58404" lon="-1.33618">
        <ele>71.1</ele>
        <time>2020-06-15T13:06:58Z</time>
      </trkpt>
      <trkpt lat="49.58403" lon="-1.33624">
        <ele>71.4</ele>
        <time>2020-06-15T13:06:59Z</time>
      </trkpt>
      <trkpt lat="49.58402" lon="-1.3363">
        <ele>71.6</ele>
        <time>2020-06-15T13:07:00Z</time>
      </trkpt>
      <trkpt lat="49.58401" lon="-1.33635">
        <ele>71.8</ele>
        <time>2020-06-15T13:07:01Z</time>
      </trkpt>
      <trkpt lat="49.584" lon="-1.33641">
        <ele>72.1</ele>
        <time>2020-06-15T13:07:02Z</time>
      </trkpt>
      <trkpt lat="49.584" lon="-1.33647">
        <ele>72.3</ele>
        <time>2020-06-15T13:07:03Z</time>
      </trkpt>
      <trkpt lat="49.58398" lon="-1.33655">
        <ele>72.6</ele>
        <time>2020-06-15T13:07:04Z</time>
      </trkpt>
      <trkpt lat="49.58397" lon="-1.33661">
        <ele>72.9</ele>
        <time>2020-06-15T13:07:05Z</time>
      </trkpt>
      <trkpt lat="49.58394" lon="-1.33668">
        <ele>73.1</ele>
        <time>2020-06-15T13:07:06Z</time>
      </trkpt>
      <trkpt lat="49.58394" lon="-1.33675">
        <ele>73.4</ele>
        <time>2020-06-15T13:07:07Z</time>
      </trkpt>
      <trkpt lat="49.58392" lon="-1.3368">
        <ele>73.6</ele>
        <time>2020-06-15T13:07:08Z</time>
      </trkpt>
      <trkpt lat="49.58392" lon="-1.33686">
        <ele>73.8</ele>
        <time>2020-06-15T13:07:09Z</time>
      </trkpt>
      <trkpt lat="49.58391" lon="-1.33688">
        <ele>73.9</ele>
        <time>2020-06-15T13:07:10Z</time>
      </trkpt>
      <trkpt lat="49.5839" lon="-1.33693">
        <ele>74.1</ele>
        <time>2020-06-15T13:07:11Z</time>
      </trkpt>
      <trkpt lat="49.58388" lon="-1.33698">
        <ele>74.3</ele>
        <time>2020-06-15T13:07:12Z</time>
      </trkpt>
      <trkpt lat="49.58386" lon="-1.33703">
        <ele>74.5</ele>
        <time>2020-06-15T13:07:13Z</time>
      </trkpt>
      <trkpt lat="49.58383" lon="-1.33708">
        <ele>74.7</ele>
        <time>2020-06-15T13:07:14Z</time>
      </trkpt>
      <trkpt lat="49.58381" lon="-1.33712">
        <ele>74.9</ele>
        <time>2020-06-15T13:07:15Z</time>
      </trkpt>
      <trkpt lat="49.58379" lon="-1.33717">
        <ele>75.1</ele>
        <time>2020-06-15T13:07:16Z</time>
      </trkpt>
      <trkpt lat="49.58377" lon="-1.33722">
        <ele>75.3</ele>
        <time>2020-06-15T13:07:17Z</time>
      </trkpt>
      <trkpt lat="49.58376" lon="-1.33728">
        <ele>75.5</ele>
        <time>2020-06-15T13:07:18Z</time>
      </trkpt>
      <trkpt lat="49.58374" lon="-1.33733">
        <ele>75.6</ele>
        <time>2020-06-15T13:07:19Z</time>
      </trkpt>
      <trkpt lat="49.58372" lon="-1.33736">
        <ele>75.7</ele>
        <time>2020-06-15T13:07:20Z</time>
      </trkpt>
      <trkpt lat="49.5837" lon="-1.3374">
        <ele>75.9</ele>
        <time>2020-06-15T13:07:21Z</time>
      </trkpt>
      <trkpt lat="49.58369" lon="-1.33744">
        <ele>76</ele>
        <time>2020-06-15T13:07:22Z</time>
      </trkpt>
      <trkpt lat="49.58367" lon="-1.33749">
        <ele>76.2</ele>
        <time>2020-06-15T13:07:23Z</time>
      </trkpt>
      <trkpt lat="49.58366" lon="-1.33753">
        <ele>76.3</ele>
        <time>2020-06-15T13:07:24Z</time>
      </trkpt>
      <trkpt lat="49.58364" lon="-1.33757">
        <ele>76.4</ele>
        <time>2020-06-15T13:07:25Z</time>
      </trkpt>
      <trkpt lat="49.58363" lon="-1.33761">
        <ele>76.5</ele>
        <time>2020-06-15T13:07:26Z</time>
      </trkpt>
      <trkpt lat="49.58361" lon="-1.33765">
        <ele>76.6</ele>
        <time>2020-06-15T13:07:27Z</time>
      </trkpt>
      <trkpt lat="49.5836" lon="-1.3377">
        <ele>76.7</ele>
        <time>2020-06-15T13:07:28Z</time>
      </trkpt>
      <trkpt lat="49.58359" lon="-1.33772">
        <ele>76.8</ele>
        <time>2020-06-15T13:07:29Z</time>
      </trkpt>
      <trkpt lat="49.58358" lon="-1.33777">
        <ele>76.9</ele>
        <time>2020-06-15T13:07:30Z</time>
      </trkpt>
      <trkpt lat="49.58357" lon="-1.33781">
        <ele>77</ele>
        <time>2020-06-15T13:07:31Z</time>
      </trkpt>
      <trkpt lat="49.58357" lon="-1.33783">
        <ele>77</ele>
        <time>2020-06-15T13:07:32Z</time>
      </trkpt>
      <trkpt lat="49.58355" lon="-1.33785">
        <ele>77</ele>
        <time>2020-06-15T13:07:33Z</time>
      </trkpt>
      <trkpt lat="49.58355" lon="-1.33786">
        <ele>77</ele>
        <time>2020-06-15T13:07:34Z</time>
      </trkpt>
      <trkpt lat="49.58355" lon="-1.33786">
        <ele>77</ele>
        <time>2020-06-15T13:07:35Z</time>
      </trkpt>
      <trkpt lat="49.58355" lon="-1.33786">
        <ele>77</ele>
        <time>2020-06-15T13:07:36Z</time>
      </trkpt>
      <trkpt lat="49.58355" lon="-1.33786">
        <ele>77.1</ele>
        <time>2020-06-15T13:07:37Z</time>
      </trkpt>
      <trkpt lat="49.58355" lon="-1.33786">
        <ele>77.1</ele>
        <time>2020-06-15T13:07:38Z</time>
      </trkpt>
      <trkpt lat="49.58355" lon="-1.33786">
        <ele>77.1</ele>
        <time>2020-06-15T13:07:39Z</time>
      </trkpt>
      <trkpt lat="49.58353" lon="-1.33783">
        <ele>77.1</ele>
        <time>2020-06-15T13:07:40Z</time>
      </trkpt>
      <trkpt lat="49.58351" lon="-1.33788">
        <ele>77.2</ele>
        <time>2020-06-15T13:07:41Z</time>
      </trkpt>
      <trkpt lat="49.58348" lon="-1.33793">
        <ele>77.3</ele>
        <time>2020-06-15T13:07:42Z</time>
      </trkpt>
      <trkpt lat="49.58346" lon="-1.33797">
        <ele>77.3</ele>
        <time>2020-06-15T13:07:43Z</time>
      </trkpt>
      <trkpt lat="49.58343" lon="-1.33801">
        <ele>77.3</ele>
        <time>2020-06-15T13:08:23Z</time>
      </trkpt>
      <trkpt lat="49.58341" lon="-1.33806">
        <ele>77.4</ele>
        <time>2020-06-15T13:08:24Z</time>
      </trkpt>
      <trkpt lat="49.58338" lon="-1.33812">
        <ele>77.4</ele>
        <time>2020-06-15T13:08:25Z</time>
      </trkpt>
      <trkpt lat="49.58335" lon="-1.3382">
        <ele>77.4</ele>
        <time>2020-06-15T13:08:26Z</time>
      </trkpt>
      <trkpt lat="49.58333" lon="-1.33829">
        <ele>77.4</ele>
        <time>2020-06-15T13:08:27Z</time>
      </trkpt>
      <trkpt lat="49.5833" lon="-1.33837">
        <ele>77.4</ele>
        <time>2020-06-15T13:08:28Z</time>
      </trkpt>
      <trkpt lat="49.58327" lon="-1.33844">
        <ele>77.4</ele>
        <time>2020-06-15T13:08:29Z</time>
      </trkpt>
      <trkpt lat="49.58325" lon="-1.33852">
        <ele>77.4</ele>
        <time>2020-06-15T13:08:30Z</time>
      </trkpt>
      <trkpt lat="49.58322" lon="-1.33861">
        <ele>77.4</ele>
        <time>2020-06-15T13:08:31Z</time>
      </trkpt>
      <trkpt lat="49.5832" lon="-1.33869">
        <ele>77.4</ele>
        <time>2020-06-15T13:08:32Z</time>
      </trkpt>
      <trkpt lat="49.58317" lon="-1.33878">
        <ele>77.5</ele>
        <time>2020-06-15T13:08:33Z</time>
      </trkpt>
      <trkpt lat="49.58314" lon="-1.33886">
        <ele>77.5</ele>
        <time>2020-06-15T13:08:34Z</time>
      </trkpt>
      <trkpt lat="49.58312" lon="-1.33893">
        <ele>77.5</ele>
        <time>2020-06-15T13:08:35Z</time>
      </trkpt>
      <trkpt lat="49.58309" lon="-1.339">
        <ele>77.6</ele>
        <time>2020-06-15T13:08:36Z</time>
      </trkpt>
      <trkpt lat="49.58307" lon="-1.33907">
        <ele>77.6</ele>
        <time>2020-06-15T13:08:37Z</time>
      </trkpt>
      <trkpt lat="49.58305" lon="-1.33914">
        <ele>77.7</ele>
        <time>2020-06-15T13:08:38Z</time>
      </trkpt>
      <trkpt lat="49.58304" lon="-1.33921">
        <ele>77.7</ele>
        <time>2020-06-15T13:08:39Z</time>
      </trkpt>
      <trkpt lat="49.58302" lon="-1.3393">
        <ele>77.8</ele>
        <time>2020-06-15T13:08:40Z</time>
      </trkpt>
      <trkpt lat="49.58299" lon="-1.33937">
        <ele>77.9</ele>
        <time>2020-06-15T13:08:41Z</time>
      </trkpt>
      <trkpt lat="49.58297" lon="-1.33944">
        <ele>77.9</ele>
        <time>2020-06-15T13:08:42Z</time>
      </trkpt>
      <trkpt lat="49.58295" lon="-1.33952">
        <ele>78</ele>
        <time>2020-06-15T13:08:43Z</time>
      </trkpt>
      <trkpt lat="49.58293" lon="-1.3396">
        <ele>77.8</ele>
        <time>2020-06-15T13:08:44Z</time>
      </trkpt>
      <trkpt lat="49.5829" lon="-1.33968">
        <ele>77.7</ele>
        <time>2020-06-15T13:08:45Z</time>
      </trkpt>
      <trkpt lat="49.58288" lon="-1.33976">
        <ele>77.7</ele>
        <time>2020-06-15T13:08:46Z</time>
      </trkpt>
      <trkpt lat="49.58286" lon="-1.33985">
        <ele>77.6</ele>
        <time>2020-06-15T13:08:47Z</time>
      </trkpt>
      <trkpt lat="49.58284" lon="-1.33993">
        <ele>77.6</ele>
        <time>2020-06-15T13:08:48Z</time>
      </trkpt>
      <trkpt lat="49.58282" lon="-1.34">
        <ele>77.6</ele>
        <time>2020-06-15T13:08:49Z</time>
      </trkpt>
      <trkpt lat="49.58279" lon="-1.34007">
        <ele>77.5</ele>
        <time>2020-06-15T13:08:50Z</time>
      </trkpt>
      <trkpt lat="49.58277" lon="-1.34014">
        <ele>77.5</ele>
        <time>2020-06-15T13:08:51Z</time>
      </trkpt>
      <trkpt lat="49.58276" lon="-1.34023">
        <ele>77.5</ele>
        <time>2020-06-15T13:08:52Z</time>
      </trkpt>
      <trkpt lat="49.58273" lon="-1.34032">
        <ele>77.5</ele>
        <time>2020-06-15T13:08:53Z</time>
      </trkpt>
      <trkpt lat="49.58271" lon="-1.34038">
        <ele>77.5</ele>
        <time>2020-06-15T13:08:54Z</time>
      </trkpt>
      <trkpt lat="49.58267" lon="-1.34044">
        <ele>77.5</ele>
        <time>2020-06-15T13:08:55Z</time>
      </trkpt>
      <trkpt lat="49.58265" lon="-1.34052">
        <ele>77.5</ele>
        <time>2020-06-15T13:08:56Z</time>
      </trkpt>
      <trkpt lat="49.58263" lon="-1.3406">
        <ele>77.5</ele>
        <time>2020-06-15T13:08:57Z</time>
      </trkpt>
      <trkpt lat="49.5826" lon="-1.34069">
        <ele>77.5</ele>
        <time>2020-06-15T13:08:58Z</time>
      </trkpt>
      <trkpt lat="49.58257" lon="-1.34075">
        <ele>77.6</ele>
        <time>2020-06-15T13:08:59Z</time>
      </trkpt>
      <trkpt lat="49.58254" lon="-1.34084">
        <ele>77.6</ele>
        <time>2020-06-15T13:09:00Z</time>
      </trkpt>
      <trkpt lat="49.58252" lon="-1.34091">
        <ele>77.6</ele>
        <time>2020-06-15T13:09:01Z</time>
      </trkpt>
      <trkpt lat="49.58248" lon="-1.34099">
        <ele>77.5</ele>
        <time>2020-06-15T13:09:02Z</time>
      </trkpt>
      <trkpt lat="49.58246" lon="-1.34109">
        <ele>77.5</ele>
        <time>2020-06-15T13:09:03Z</time>
      </trkpt>
      <trkpt lat="49.58244" lon="-1.34117">
        <ele>77.5</ele>
        <time>2020-06-15T13:09:04Z</time>
      </trkpt>
      <trkpt lat="49.58242" lon="-1.34127">
        <ele>77.5</ele>
        <time>2020-06-15T13:09:05Z</time>
      </trkpt>
      <trkpt lat="49.5824" lon="-1.34136">
        <ele>77.5</ele>
        <time>2020-06-15T13:09:06Z</time>
      </trkpt>
      <trkpt lat="49.58236" lon="-1.34144">
        <ele>77.5</ele>
        <time>2020-06-15T13:09:07Z</time>
      </trkpt>
      <trkpt lat="49.58234" lon="-1.34153">
        <ele>77.5</ele>
        <time>2020-06-15T13:09:08Z</time>
      </trkpt>
      <trkpt lat="49.5823" lon="-1.3416">
        <ele>77.6</ele>
        <time>2020-06-15T13:09:09Z</time>
      </trkpt>
      <trkpt lat="49.58228" lon="-1.34168">
        <ele>77.6</ele>
        <time>2020-06-15T13:09:10Z</time>
      </trkpt>
      <trkpt lat="49.58226" lon="-1.34177">
        <ele>77.6</ele>
        <time>2020-06-15T13:09:11Z</time>
      </trkpt>
      <trkpt lat="49.58223" lon="-1.34185">
        <ele>77.7</ele>
        <time>2020-06-15T13:09:12Z</time>
      </trkpt>
      <trkpt lat="49.58221" lon="-1.34195">
        <ele>77.7</ele>
        <time>2020-06-15T13:09:13Z</time>
      </trkpt>
      <trkpt lat="49.58219" lon="-1.34203">
        <ele>77.8</ele>
        <time>2020-06-15T13:09:14Z</time>
      </trkpt>
      <trkpt lat="49.58217" lon="-1.34213">
        <ele>77.9</ele>
        <time>2020-06-15T13:09:15Z</time>
      </trkpt>
      <trkpt lat="49.58215" lon="-1.34224">
        <ele>77.9</ele>
        <time>2020-06-15T13:09:16Z</time>
      </trkpt>
      <trkpt lat="49.58211" lon="-1.3423">
        <ele>78</ele>
        <time>2020-06-15T13:09:17Z</time>
      </trkpt>
      <trkpt lat="49.58209" lon="-1.34241">
        <ele>78.1</ele>
        <time>2020-06-15T13:09:18Z</time>
      </trkpt>
      <trkpt lat="49.58205" lon="-1.34248">
        <ele>78.2</ele>
        <time>2020-06-15T13:09:19Z</time>
      </trkpt>
      <trkpt lat="49.58204" lon="-1.34259">
        <ele>78.3</ele>
        <time>2020-06-15T13:09:20Z</time>
      </trkpt>
      <trkpt lat="49.58202" lon="-1.34267">
        <ele>78.4</ele>
        <time>2020-06-15T13:09:21Z</time>
      </trkpt>
      <trkpt lat="49.582" lon="-1.34275">
        <ele>78.5</ele>
        <time>2020-06-15T13:09:22Z</time>
      </trkpt>
      <trkpt lat="49.58198" lon="-1.34284">
        <ele>78.6</ele>
        <time>2020-06-15T13:09:23Z</time>
      </trkpt>
      <trkpt lat="49.58195" lon="-1.34294">
        <ele>78.7</ele>
        <time>2020-06-15T13:09:24Z</time>
      </trkpt>
      <trkpt lat="49.58193" lon="-1.34303">
        <ele>78.8</ele>
        <time>2020-06-15T13:09:25Z</time>
      </trkpt>
      <trkpt lat="49.58191" lon="-1.34312">
        <ele>78.9</ele>
        <time>2020-06-15T13:09:26Z</time>
      </trkpt>
      <trkpt lat="49.58189" lon="-1.34321">
        <ele>79</ele>
        <time>2020-06-15T13:09:27Z</time>
      </trkpt>
      <trkpt lat="49.58186" lon="-1.34329">
        <ele>79.2</ele>
        <time>2020-06-15T13:09:28Z</time>
      </trkpt>
      <trkpt lat="49.58184" lon="-1.34337">
        <ele>79.3</ele>
        <time>2020-06-15T13:09:29Z</time>
      </trkpt>
      <trkpt lat="49.58182" lon="-1.34346">
        <ele>79.4</ele>
        <time>2020-06-15T13:09:30Z</time>
      </trkpt>
      <trkpt lat="49.58181" lon="-1.34353">
        <ele>79.6</ele>
        <time>2020-06-15T13:09:31Z</time>
      </trkpt>
      <trkpt lat="49.58178" lon="-1.34361">
        <ele>79.7</ele>
        <time>2020-06-15T13:09:32Z</time>
      </trkpt>
      <trkpt lat="49.58177" lon="-1.34368">
        <ele>79.8</ele>
        <time>2020-06-15T13:09:33Z</time>
      </trkpt>
      <trkpt lat="49.58175" lon="-1.34377">
        <ele>80</ele>
        <time>2020-06-15T13:09:34Z</time>
      </trkpt>
      <trkpt lat="49.58173" lon="-1.34387">
        <ele>80.1</ele>
        <time>2020-06-15T13:09:35Z</time>
      </trkpt>
      <trkpt lat="49.58172" lon="-1.34396">
        <ele>80.3</ele>
        <time>2020-06-15T13:09:36Z</time>
      </trkpt>
      <trkpt lat="49.5817" lon="-1.34405">
        <ele>80.5</ele>
        <time>2020-06-15T13:09:37Z</time>
      </trkpt>
      <trkpt lat="49.58168" lon="-1.34413">
        <ele>80.7</ele>
        <time>2020-06-15T13:09:38Z</time>
      </trkpt>
      <trkpt lat="49.58165" lon="-1.34421">
        <ele>81</ele>
        <time>2020-06-15T13:09:39Z</time>
      </trkpt>
      <trkpt lat="49.58163" lon="-1.34429">
        <ele>81.3</ele>
        <time>2020-06-15T13:09:40Z</time>
      </trkpt>
      <trkpt lat="49.58161" lon="-1.34437">
        <ele>81.5</ele>
        <time>2020-06-15T13:09:41Z</time>
      </trkpt>
      <trkpt lat="49.58159" lon="-1.34444">
        <ele>81.8</ele>
        <time>2020-06-15T13:09:42Z</time>
      </trkpt>
      <trkpt lat="49.58157" lon="-1.34452">
        <ele>82</ele>
        <time>2020-06-15T13:09:43Z</time>
      </trkpt>
      <trkpt lat="49.58154" lon="-1.3446">
        <ele>82.1</ele>
        <time>2020-06-15T13:09:44Z</time>
      </trkpt>
      <trkpt lat="49.58153" lon="-1.34467">
        <ele>82.1</ele>
        <time>2020-06-15T13:09:45Z</time>
      </trkpt>
      <trkpt lat="49.58151" lon="-1.34475">
        <ele>82.1</ele>
        <time>2020-06-15T13:09:46Z</time>
      </trkpt>
      <trkpt lat="49.58148" lon="-1.34481">
        <ele>82.1</ele>
        <time>2020-06-15T13:09:47Z</time>
      </trkpt>
      <trkpt lat="49.58145" lon="-1.34487">
        <ele>82.2</ele>
        <time>2020-06-15T13:09:48Z</time>
      </trkpt>
      <trkpt lat="49.58143" lon="-1.34495">
        <ele>82.3</ele>
        <time>2020-06-15T13:09:49Z</time>
      </trkpt>
      <trkpt lat="49.58141" lon="-1.34503">
        <ele>82.4</ele>
        <time>2020-06-15T13:09:50Z</time>
      </trkpt>
      <trkpt lat="49.58138" lon="-1.34511">
        <ele>82.5</ele>
        <time>2020-06-15T13:09:51Z</time>
      </trkpt>
      <trkpt lat="49.58136" lon="-1.34519">
        <ele>82.7</ele>
        <time>2020-06-15T13:09:52Z</time>
      </trkpt>
      <trkpt lat="49.58134" lon="-1.34526">
        <ele>82.8</ele>
        <time>2020-06-15T13:09:53Z</time>
      </trkpt>
      <trkpt lat="49.58131" lon="-1.34532">
        <ele>83</ele>
        <time>2020-06-15T13:09:54Z</time>
      </trkpt>
      <trkpt lat="49.58129" lon="-1.3454">
        <ele>83.1</ele>
        <time>2020-06-15T13:09:55Z</time>
      </trkpt>
      <trkpt lat="49.58128" lon="-1.34548">
        <ele>83.3</ele>
        <time>2020-06-15T13:09:56Z</time>
      </trkpt>
      <trkpt lat="49.58126" lon="-1.34556">
        <ele>83.4</ele>
        <time>2020-06-15T13:09:57Z</time>
      </trkpt>
      <trkpt lat="49.58124" lon="-1.34563">
        <ele>83.6</ele>
        <time>2020-06-15T13:09:58Z</time>
      </trkpt>
      <trkpt lat="49.58121" lon="-1.34572">
        <ele>83.8</ele>
        <time>2020-06-15T13:09:59Z</time>
      </trkpt>
      <trkpt lat="49.58119" lon="-1.3458">
        <ele>84</ele>
        <time>2020-06-15T13:10:00Z</time>
      </trkpt>
      <trkpt lat="49.58118" lon="-1.34588">
        <ele>84.1</ele>
        <time>2020-06-15T13:10:01Z</time>
      </trkpt>
      <trkpt lat="49.58116" lon="-1.34595">
        <ele>84.3</ele>
        <time>2020-06-15T13:10:02Z</time>
      </trkpt>
      <trkpt lat="49.58114" lon="-1.34603">
        <ele>84.4</ele>
        <time>2020-06-15T13:10:03Z</time>
      </trkpt>
      <trkpt lat="49.58111" lon="-1.3461">
        <ele>84.6</ele>
        <time>2020-06-15T13:10:04Z</time>
      </trkpt>
      <trkpt lat="49.58109" lon="-1.34616">
        <ele>84.8</ele>
        <time>2020-06-15T13:10:05Z</time>
      </trkpt>
      <trkpt lat="49.58106" lon="-1.34623">
        <ele>85</ele>
        <time>2020-06-15T13:10:06Z</time>
      </trkpt>
      <trkpt lat="49.58105" lon="-1.34629">
        <ele>85.1</ele>
        <time>2020-06-15T13:10:07Z</time>
      </trkpt>
      <trkpt lat="49.58103" lon="-1.34635">
        <ele>85.4</ele>
        <time>2020-06-15T13:10:08Z</time>
      </trkpt>
      <trkpt lat="49.58101" lon="-1.34642">
        <ele>85.6</ele>
        <time>2020-06-15T13:10:09Z</time>
      </trkpt>
      <trkpt lat="49.58098" lon="-1.34648">
        <ele>85.8</ele>
        <time>2020-06-15T13:10:10Z</time>
      </trkpt>
      <trkpt lat="49.58096" lon="-1.34655">
        <ele>86.1</ele>
        <time>2020-06-15T13:10:11Z</time>
      </trkpt>
      <trkpt lat="49.58095" lon="-1.34661">
        <ele>86.3</ele>
        <time>2020-06-15T13:10:12Z</time>
      </trkpt>
      <trkpt lat="49.58093" lon="-1.34667">
        <ele>86.6</ele>
        <time>2020-06-15T13:10:13Z</time>
      </trkpt>
      <trkpt lat="49.58091" lon="-1.34674">
        <ele>86.9</ele>
        <time>2020-06-15T13:10:14Z</time>
      </trkpt>
      <trkpt lat="49.58088" lon="-1.3468">
        <ele>87.3</ele>
        <time>2020-06-15T13:10:15Z</time>
      </trkpt>
      <trkpt lat="49.58086" lon="-1.34686">
        <ele>87.4</ele>
        <time>2020-06-15T13:10:16Z</time>
      </trkpt>
      <trkpt lat="49.58085" lon="-1.34692">
        <ele>87.6</ele>
        <time>2020-06-15T13:10:17Z</time>
      </trkpt>
      <trkpt lat="49.58083" lon="-1.34698">
        <ele>87.7</ele>
        <time>2020-06-15T13:10:18Z</time>
      </trkpt>
      <trkpt lat="49.58081" lon="-1.34704">
        <ele>87.9</ele>
        <time>2020-06-15T13:10:19Z</time>
      </trkpt>
      <trkpt lat="49.58078" lon="-1.3471">
        <ele>88.1</ele>
        <time>2020-06-15T13:10:20Z</time>
      </trkpt>
      <trkpt lat="49.58076" lon="-1.34716">
        <ele>88.4</ele>
        <time>2020-06-15T13:10:21Z</time>
      </trkpt>
      <trkpt lat="49.58073" lon="-1.34722">
        <ele>88.6</ele>
        <time>2020-06-15T13:10:22Z</time>
      </trkpt>
      <trkpt lat="49.58071" lon="-1.34728">
        <ele>88.8</ele>
        <time>2020-06-15T13:10:23Z</time>
      </trkpt>
      <trkpt lat="49.5807" lon="-1.34734">
        <ele>89</ele>
        <time>2020-06-15T13:10:24Z</time>
      </trkpt>
      <trkpt lat="49.58069" lon="-1.34741">
        <ele>89.3</ele>
        <time>2020-06-15T13:10:25Z</time>
      </trkpt>
      <trkpt lat="49.58067" lon="-1.34747">
        <ele>89.5</ele>
        <time>2020-06-15T13:10:26Z</time>
      </trkpt>
      <trkpt lat="49.58067" lon="-1.34754">
        <ele>89.7</ele>
        <time>2020-06-15T13:10:27Z</time>
      </trkpt>
      <trkpt lat="49.58066" lon="-1.3476">
        <ele>89.9</ele>
        <time>2020-06-15T13:10:28Z</time>
      </trkpt>
      <trkpt lat="49.58065" lon="-1.34767">
        <ele>90.1</ele>
        <time>2020-06-15T13:10:29Z</time>
      </trkpt>
      <trkpt lat="49.58062" lon="-1.34775">
        <ele>90.3</ele>
        <time>2020-06-15T13:10:30Z</time>
      </trkpt>
      <trkpt lat="49.5806" lon="-1.34782">
        <ele>90.6</ele>
        <time>2020-06-15T13:10:31Z</time>
      </trkpt>
      <trkpt lat="49.58059" lon="-1.3479">
        <ele>90.8</ele>
        <time>2020-06-15T13:10:32Z</time>
      </trkpt>
      <trkpt lat="49.58057" lon="-1.34796">
        <ele>91</ele>
        <time>2020-06-15T13:10:33Z</time>
      </trkpt>
      <trkpt lat="49.58055" lon="-1.34803">
        <ele>91.2</ele>
        <time>2020-06-15T13:10:34Z</time>
      </trkpt>
      <trkpt lat="49.58054" lon="-1.34809">
        <ele>91.3</ele>
        <time>2020-06-15T13:10:35Z</time>
      </trkpt>
      <trkpt lat="49.58052" lon="-1.34817">
        <ele>91.5</ele>
        <time>2020-06-15T13:10:36Z</time>
      </trkpt>
      <trkpt lat="49.5805" lon="-1.34825">
        <ele>91.7</ele>
        <time>2020-06-15T13:10:37Z</time>
      </trkpt>
      <trkpt lat="49.58047" lon="-1.34831">
        <ele>91.9</ele>
        <time>2020-06-15T13:10:38Z</time>
      </trkpt>
      <trkpt lat="49.58043" lon="-1.34836">
        <ele>92</ele>
        <time>2020-06-15T13:10:39Z</time>
      </trkpt>
      <trkpt lat="49.5804" lon="-1.34842">
        <ele>92.1</ele>
        <time>2020-06-15T13:10:40Z</time>
      </trkpt>
      <trkpt lat="49.58038" lon="-1.34849">
        <ele>92.2</ele>
        <time>2020-06-15T13:10:41Z</time>
      </trkpt>
      <trkpt lat="49.58036" lon="-1.34854">
        <ele>92.4</ele>
        <time>2020-06-15T13:10:42Z</time>
      </trkpt>
      <trkpt lat="49.58032" lon="-1.34861">
        <ele>92.5</ele>
        <time>2020-06-15T13:10:43Z</time>
      </trkpt>
      <trkpt lat="49.5803" lon="-1.34868">
        <ele>92.6</ele>
        <time>2020-06-15T13:10:44Z</time>
      </trkpt>
      <trkpt lat="49.58028" lon="-1.34876">
        <ele>92.7</ele>
        <time>2020-06-15T13:10:45Z</time>
      </trkpt>
      <trkpt lat="49.58026" lon="-1.34882">
        <ele>92.8</ele>
        <time>2020-06-15T13:10:46Z</time>
      </trkpt>
      <trkpt lat="49.58024" lon="-1.3489">
        <ele>92.9</ele>
        <time>2020-06-15T13:10:47Z</time>
      </trkpt>
      <trkpt lat="49.58023" lon="-1.34898">
        <ele>93</ele>
        <time>2020-06-15T13:10:48Z</time>
      </trkpt>
      <trkpt lat="49.58021" lon="-1.34905">
        <ele>93.1</ele>
        <time>2020-06-15T13:10:49Z</time>
      </trkpt>
      <trkpt lat="49.58019" lon="-1.34914">
        <ele>93.3</ele>
        <time>2020-06-15T13:10:50Z</time>
      </trkpt>
      <trkpt lat="49.58017" lon="-1.34922">
        <ele>93.4</ele>
        <time>2020-06-15T13:10:51Z</time>
      </trkpt>
      <trkpt lat="49.58015" lon="-1.34928">
        <ele>93.5</ele>
        <time>2020-06-15T13:10:52Z</time>
      </trkpt>
      <trkpt lat="49.58013" lon="-1.34936">
        <ele>93.6</ele>
        <time>2020-06-15T13:10:53Z</time>
      </trkpt>
      <trkpt lat="49.58012" lon="-1.34944">
        <ele>93.7</ele>
        <time>2020-06-15T13:10:54Z</time>
      </trkpt>
      <trkpt lat="49.58011" lon="-1.34951">
        <ele>93.8</ele>
        <time>2020-06-15T13:10:55Z</time>
      </trkpt>
      <trkpt lat="49.58008" lon="-1.34958">
        <ele>93.9</ele>
        <time>2020-06-15T13:10:56Z</time>
      </trkpt>
      <trkpt lat="49.58006" lon="-1.34966">
        <ele>93.9</ele>
        <time>2020-06-15T13:10:57Z</time>
      </trkpt>
      <trkpt lat="49.58004" lon="-1.34973">
        <ele>94</ele>
        <time>2020-06-15T13:10:58Z</time>
      </trkpt>
      <trkpt lat="49.58002" lon="-1.3498">
        <ele>94.1</ele>
        <time>2020-06-15T13:10:59Z</time>
      </trkpt>
      <trkpt lat="49.58001" lon="-1.34988">
        <ele>94.2</ele>
        <time>2020-06-15T13:11:00Z</time>
      </trkpt>
      <trkpt lat="49.58" lon="-1.34996">
        <ele>94.4</ele>
        <time>2020-06-15T13:11:01Z</time>
      </trkpt>
      <trkpt lat="49.57998" lon="-1.35003">
        <ele>94.5</ele>
        <time>2020-06-15T13:11:02Z</time>
      </trkpt>
      <trkpt lat="49.57997" lon="-1.35011">
        <ele>94.5</ele>
        <time>2020-06-15T13:11:03Z</time>
      </trkpt>
      <trkpt lat="49.57995" lon="-1.35018">
        <ele>94.6</ele>
        <time>2020-06-15T13:11:04Z</time>
      </trkpt>
      <trkpt lat="49.57993" lon="-1.35026">
        <ele>94.7</ele>
        <time>2020-06-15T13:11:05Z</time>
      </trkpt>
      <trkpt lat="49.57992" lon="-1.35033">
        <ele>94.8</ele>
        <time>2020-06-15T13:11:06Z</time>
      </trkpt>
      <trkpt lat="49.5799" lon="-1.3504">
        <ele>94.9</ele>
        <time>2020-06-15T13:11:07Z</time>
      </trkpt>
      <trkpt lat="49.57988" lon="-1.35046">
        <ele>95</ele>
        <time>2020-06-15T13:11:08Z</time>
      </trkpt>
      <trkpt lat="49.57986" lon="-1.35052">
        <ele>95.1</ele>
        <time>2020-06-15T13:11:09Z</time>
      </trkpt>
      <trkpt lat="49.57984" lon="-1.3506">
        <ele>95.3</ele>
        <time>2020-06-15T13:11:10Z</time>
      </trkpt>
      <trkpt lat="49.5798" lon="-1.35065">
        <ele>95.5</ele>
        <time>2020-06-15T13:11:11Z</time>
      </trkpt>
      <trkpt lat="49.57979" lon="-1.3507">
        <ele>95.6</ele>
        <time>2020-06-15T13:11:12Z</time>
      </trkpt>
      <trkpt lat="49.57978" lon="-1.35076">
        <ele>95.8</ele>
        <time>2020-06-15T13:11:13Z</time>
      </trkpt>
      <trkpt lat="49.57978" lon="-1.35081">
        <ele>95.9</ele>
        <time>2020-06-15T13:11:14Z</time>
      </trkpt>
      <trkpt lat="49.57977" lon="-1.35086">
        <ele>96</ele>
        <time>2020-06-15T13:11:15Z</time>
      </trkpt>
      <trkpt lat="49.57976" lon="-1.35088">
        <ele>96.1</ele>
        <time>2020-06-15T13:11:16Z</time>
      </trkpt>
      <trkpt lat="49.57976" lon="-1.3509">
        <ele>96.1</ele>
        <time>2020-06-15T13:11:17Z</time>
      </trkpt>
      <trkpt lat="49.57977" lon="-1.35093">
        <ele>96.2</ele>
        <time>2020-06-15T13:11:18Z</time>
      </trkpt>
      <trkpt lat="49.57977" lon="-1.35093">
        <ele>96.2</ele>
        <time>2020-06-15T13:11:19Z</time>
      </trkpt>
      <trkpt lat="49.57977" lon="-1.35093">
        <ele>96.2</ele>
        <time>2020-06-15T13:11:20Z</time>
      </trkpt>
      <trkpt lat="49.57977" lon="-1.35093">
        <ele>96.2</ele>
        <time>2020-06-15T13:11:21Z</time>
      </trkpt>
      <trkpt lat="49.57977" lon="-1.35093">
        <ele>96.3</ele>
        <time>2020-06-15T13:11:22Z</time>
      </trkpt>
      <trkpt lat="49.57976" lon="-1.35093">
        <ele>96.3</ele>
        <time>2020-06-15T13:11:23Z</time>
      </trkpt>
      <trkpt lat="49.57976" lon="-1.35093">
        <ele>96.3</ele>
        <time>2020-06-15T13:11:24Z</time>
      </trkpt>
      <trkpt lat="49.57977" lon="-1.35093">
        <ele>96.3</ele>
        <time>2020-06-15T13:11:25Z</time>
      </trkpt>
      <trkpt lat="49.57977" lon="-1.35094">
        <ele>96.3</ele>
        <time>2020-06-15T13:11:26Z</time>
      </trkpt>
      <trkpt lat="49.57977" lon="-1.35094">
        <ele>96.3</ele>
        <time>2020-06-15T13:11:27Z</time>
      </trkpt>
      <trkpt lat="49.57977" lon="-1.35094">
        <ele>96.3</ele>
        <time>2020-06-15T13:11:28Z</time>
      </trkpt>
      <trkpt lat="49.57977" lon="-1.35094">
        <ele>96.3</ele>
        <time>2020-06-15T13:11:29Z</time>
      </trkpt>
      <trkpt lat="49.57976" lon="-1.35099">
        <ele>96.3</ele>
        <time>2020-06-15T13:12:07Z</time>
      </trkpt>
      <trkpt lat="49.57976" lon="-1.35102">
        <ele>96.3</ele>
        <time>2020-06-15T13:12:08Z</time>
      </trkpt>
      <trkpt lat="49.57975" lon="-1.35106">
        <ele>96.3</ele>
        <time>2020-06-15T13:12:09Z</time>
      </trkpt>
      <trkpt lat="49.57974" lon="-1.3511">
        <ele>96.3</ele>
        <time>2020-06-15T13:12:10Z</time>
      </trkpt>
      <trkpt lat="49.57973" lon="-1.35116">
        <ele>96.3</ele>
        <time>2020-06-15T13:12:11Z</time>
      </trkpt>
      <trkpt lat="49.5797" lon="-1.35119">
        <ele>96.3</ele>
        <time>2020-06-15T13:12:12Z</time>
      </trkpt>
      <trkpt lat="49.57969" lon="-1.35124">
        <ele>96.3</ele>
        <time>2020-06-15T13:12:13Z</time>
      </trkpt>
      <trkpt lat="49.57967" lon="-1.35129">
        <ele>96.3</ele>
        <time>2020-06-15T13:12:14Z</time>
      </trkpt>
      <trkpt lat="49.57966" lon="-1.35134">
        <ele>96.3</ele>
        <time>2020-06-15T13:12:15Z</time>
      </trkpt>
      <trkpt lat="49.57965" lon="-1.35138">
        <ele>96.3</ele>
        <time>2020-06-15T13:12:16Z</time>
      </trkpt>
      <trkpt lat="49.57963" lon="-1.35143">
        <ele>96.3</ele>
        <time>2020-06-15T13:12:17Z</time>
      </trkpt>
      <trkpt lat="49.57962" lon="-1.35148">
        <ele>96.3</ele>
        <time>2020-06-15T13:12:18Z</time>
      </trkpt>
      <trkpt lat="49.5796" lon="-1.35154">
        <ele>96.3</ele>
        <time>2020-06-15T13:12:19Z</time>
      </trkpt>
      <trkpt lat="49.57958" lon="-1.3516">
        <ele>96.4</ele>
        <time>2020-06-15T13:12:20Z</time>
      </trkpt>
      <trkpt lat="49.57956" lon="-1.35167">
        <ele>96.4</ele>
        <time>2020-06-15T13:12:21Z</time>
      </trkpt>
      <trkpt lat="49.57954" lon="-1.35174">
        <ele>96.4</ele>
        <time>2020-06-15T13:12:22Z</time>
      </trkpt>
      <trkpt lat="49.57953" lon="-1.35181">
        <ele>96.4</ele>
        <time>2020-06-15T13:12:23Z</time>
      </trkpt>
      <trkpt lat="49.57952" lon="-1.35187">
        <ele>96.4</ele>
        <time>2020-06-15T13:12:24Z</time>
      </trkpt>
      <trkpt lat="49.5795" lon="-1.35193">
        <ele>96.4</ele>
        <time>2020-06-15T13:12:25Z</time>
      </trkpt>
      <trkpt lat="49.57948" lon="-1.35199">
        <ele>96.4</ele>
        <time>2020-06-15T13:12:26Z</time>
      </trkpt>
      <trkpt lat="49.57946" lon="-1.35206">
        <ele>96.4</ele>
        <time>2020-06-15T13:12:27Z</time>
      </trkpt>
      <trkpt lat="49.57944" lon="-1.35213">
        <ele>96.3</ele>
        <time>2020-06-15T13:12:28Z</time>
      </trkpt>
      <trkpt lat="49.57942" lon="-1.3522">
        <ele>96.2</ele>
        <time>2020-06-15T13:12:29Z</time>
      </trkpt>
      <trkpt lat="49.57941" lon="-1.35226">
        <ele>96.1</ele>
        <time>2020-06-15T13:12:30Z</time>
      </trkpt>
      <trkpt lat="49.57939" lon="-1.35234">
        <ele>95.9</ele>
        <time>2020-06-15T13:12:31Z</time>
      </trkpt>
      <trkpt lat="49.57937" lon="-1.35242">
        <ele>95.7</ele>
        <time>2020-06-15T13:12:32Z</time>
      </trkpt>
      <trkpt lat="49.57935" lon="-1.35249">
        <ele>95.5</ele>
        <time>2020-06-15T13:12:33Z</time>
      </trkpt>
      <trkpt lat="49.57933" lon="-1.35256">
        <ele>95.3</ele>
        <time>2020-06-15T13:12:34Z</time>
      </trkpt>
      <trkpt lat="49.57932" lon="-1.35264">
        <ele>95.1</ele>
        <time>2020-06-15T13:12:35Z</time>
      </trkpt>
      <trkpt lat="49.5793" lon="-1.35271">
        <ele>95</ele>
        <time>2020-06-15T13:12:36Z</time>
      </trkpt>
      <trkpt lat="49.57927" lon="-1.35278">
        <ele>94.8</ele>
        <time>2020-06-15T13:12:37Z</time>
      </trkpt>
      <trkpt lat="49.57925" lon="-1.35287">
        <ele>94.6</ele>
        <time>2020-06-15T13:12:38Z</time>
      </trkpt>
      <trkpt lat="49.57921" lon="-1.35295">
        <ele>94.4</ele>
        <time>2020-06-15T13:12:39Z</time>
      </trkpt>
      <trkpt lat="49.57919" lon="-1.35305">
        <ele>94.1</ele>
        <time>2020-06-15T13:12:40Z</time>
      </trkpt>
      <trkpt lat="49.57916" lon="-1.35314">
        <ele>93.9</ele>
        <time>2020-06-15T13:12:41Z</time>
      </trkpt>
      <trkpt lat="49.57912" lon="-1.35322">
        <ele>93.6</ele>
        <time>2020-06-15T13:12:42Z</time>
      </trkpt>
      <trkpt lat="49.57909" lon="-1.35333">
        <ele>93.2</ele>
        <time>2020-06-15T13:12:43Z</time>
      </trkpt>
      <trkpt lat="49.57906" lon="-1.35342">
        <ele>93</ele>
        <time>2020-06-15T13:12:44Z</time>
      </trkpt>
      <trkpt lat="49.57904" lon="-1.35354">
        <ele>92.6</ele>
        <time>2020-06-15T13:12:45Z</time>
      </trkpt>
      <trkpt lat="49.57901" lon="-1.35362">
        <ele>92.4</ele>
        <time>2020-06-15T13:12:46Z</time>
      </trkpt>
      <trkpt lat="49.57898" lon="-1.35371">
        <ele>92.1</ele>
        <time>2020-06-15T13:12:47Z</time>
      </trkpt>
      <trkpt lat="49.57895" lon="-1.3538">
        <ele>91.8</ele>
        <time>2020-06-15T13:12:48Z</time>
      </trkpt>
      <trkpt lat="49.57892" lon="-1.3539">
        <ele>91.5</ele>
        <time>2020-06-15T13:12:49Z</time>
      </trkpt>
      <trkpt lat="49.57889" lon="-1.354">
        <ele>91.1</ele>
        <time>2020-06-15T13:12:50Z</time>
      </trkpt>
      <trkpt lat="49.57885" lon="-1.35409">
        <ele>90.8</ele>
        <time>2020-06-15T13:12:51Z</time>
      </trkpt>
      <trkpt lat="49.57883" lon="-1.3542">
        <ele>90.5</ele>
        <time>2020-06-15T13:12:52Z</time>
      </trkpt>
      <trkpt lat="49.5788" lon="-1.3543">
        <ele>90.1</ele>
        <time>2020-06-15T13:12:53Z</time>
      </trkpt>
      <trkpt lat="49.57877" lon="-1.3544">
        <ele>89.7</ele>
        <time>2020-06-15T13:12:54Z</time>
      </trkpt>
      <trkpt lat="49.57874" lon="-1.35451">
        <ele>89.3</ele>
        <time>2020-06-15T13:12:55Z</time>
      </trkpt>
      <trkpt lat="49.57871" lon="-1.35462">
        <ele>88.9</ele>
        <time>2020-06-15T13:12:56Z</time>
      </trkpt>
      <trkpt lat="49.57868" lon="-1.35472">
        <ele>88.5</ele>
        <time>2020-06-15T13:12:57Z</time>
      </trkpt>
      <trkpt lat="49.57864" lon="-1.35482">
        <ele>88.1</ele>
        <time>2020-06-15T13:12:58Z</time>
      </trkpt>
      <trkpt lat="49.57861" lon="-1.35494">
        <ele>87.7</ele>
        <time>2020-06-15T13:12:59Z</time>
      </trkpt>
      <trkpt lat="49.57858" lon="-1.35505">
        <ele>87.4</ele>
        <time>2020-06-15T13:13:00Z</time>
      </trkpt>
      <trkpt lat="49.57856" lon="-1.35517">
        <ele>87</ele>
        <time>2020-06-15T13:13:01Z</time>
      </trkpt>
      <trkpt lat="49.57852" lon="-1.35529">
        <ele>86.6</ele>
        <time>2020-06-15T13:13:02Z</time>
      </trkpt>
      <trkpt lat="49.57849" lon="-1.3554">
        <ele>86.2</ele>
        <time>2020-06-15T13:13:03Z</time>
      </trkpt>
      <trkpt lat="49.57846" lon="-1.35552">
        <ele>85.9</ele>
        <time>2020-06-15T13:13:04Z</time>
      </trkpt>
      <trkpt lat="49.57843" lon="-1.35565">
        <ele>85.5</ele>
        <time>2020-06-15T13:13:05Z</time>
      </trkpt>
      <trkpt lat="49.57839" lon="-1.35577">
        <ele>85.2</ele>
        <time>2020-06-15T13:13:06Z</time>
      </trkpt>
      <trkpt lat="49.57836" lon="-1.35589">
        <ele>84.9</ele>
        <time>2020-06-15T13:13:07Z</time>
      </trkpt>
      <trkpt lat="49.57833" lon="-1.35601">
        <ele>84.7</ele>
        <time>2020-06-15T13:13:08Z</time>
      </trkpt>
      <trkpt lat="49.5783" lon="-1.35613">
        <ele>84.4</ele>
        <time>2020-06-15T13:13:09Z</time>
      </trkpt>
      <trkpt lat="49.57827" lon="-1.35625">
        <ele>84.1</ele>
        <time>2020-06-15T13:13:10Z</time>
      </trkpt>
      <trkpt lat="49.57823" lon="-1.35638">
        <ele>83.8</ele>
        <time>2020-06-15T13:13:11Z</time>
      </trkpt>
      <trkpt lat="49.5782" lon="-1.3565">
        <ele>83.6</ele>
        <time>2020-06-15T13:13:12Z</time>
      </trkpt>
      <trkpt lat="49.57816" lon="-1.35663">
        <ele>83.4</ele>
        <time>2020-06-15T13:13:13Z</time>
      </trkpt>
      <trkpt lat="49.57813" lon="-1.35676">
        <ele>83.4</ele>
        <time>2020-06-15T13:13:14Z</time>
      </trkpt>
      <trkpt lat="49.57809" lon="-1.35688">
        <ele>83.4</ele>
        <time>2020-06-15T13:13:15Z</time>
      </trkpt>
      <trkpt lat="49.57806" lon="-1.357">
        <ele>83.4</ele>
        <time>2020-06-15T13:13:16Z</time>
      </trkpt>
      <trkpt lat="49.57802" lon="-1.35713">
        <ele>83.4</ele>
        <time>2020-06-15T13:13:17Z</time>
      </trkpt>
      <trkpt lat="49.57799" lon="-1.35725">
        <ele>83.4</ele>
        <time>2020-06-15T13:13:18Z</time>
      </trkpt>
      <trkpt lat="49.57796" lon="-1.35737">
        <ele>83.4</ele>
        <time>2020-06-15T13:13:19Z</time>
      </trkpt>
      <trkpt lat="49.57792" lon="-1.35749">
        <ele>83.4</ele>
        <time>2020-06-15T13:13:20Z</time>
      </trkpt>
      <trkpt lat="49.57789" lon="-1.35761">
        <ele>83.4</ele>
        <time>2020-06-15T13:13:21Z</time>
      </trkpt>
      <trkpt lat="49.57785" lon="-1.35772">
        <ele>83.4</ele>
        <time>2020-06-15T13:13:22Z</time>
      </trkpt>
      <trkpt lat="49.57782" lon="-1.35782">
        <ele>83.5</ele>
        <time>2020-06-15T13:13:23Z</time>
      </trkpt>
      <trkpt lat="49.57779" lon="-1.35792">
        <ele>83.5</ele>
        <time>2020-06-15T13:13:24Z</time>
      </trkpt>
      <trkpt lat="49.57776" lon="-1.35802">
        <ele>83.5</ele>
        <time>2020-06-15T13:13:25Z</time>
      </trkpt>
      <trkpt lat="49.57774" lon="-1.35811">
        <ele>83.5</ele>
        <time>2020-06-15T13:13:26Z</time>
      </trkpt>
      <trkpt lat="49.57771" lon="-1.35821">
        <ele>83.5</ele>
        <time>2020-06-15T13:13:27Z</time>
      </trkpt>
      <trkpt lat="49.57768" lon="-1.3583">
        <ele>83.5</ele>
        <time>2020-06-15T13:13:28Z</time>
      </trkpt>
      <trkpt lat="49.57765" lon="-1.35839">
        <ele>83.5</ele>
        <time>2020-06-15T13:13:29Z</time>
      </trkpt>
      <trkpt lat="49.57762" lon="-1.35848">
        <ele>83.4</ele>
        <time>2020-06-15T13:13:30Z</time>
      </trkpt>
      <trkpt lat="49.57759" lon="-1.35857">
        <ele>83.3</ele>
        <time>2020-06-15T13:13:31Z</time>
      </trkpt>
      <trkpt lat="49.57757" lon="-1.35866">
        <ele>83.2</ele>
        <time>2020-06-15T13:13:32Z</time>
      </trkpt>
      <trkpt lat="49.57754" lon="-1.35875">
        <ele>83.1</ele>
        <time>2020-06-15T13:13:33Z</time>
      </trkpt>
      <trkpt lat="49.57751" lon="-1.35885">
        <ele>83</ele>
        <time>2020-06-15T13:13:34Z</time>
      </trkpt>
      <trkpt lat="49.57749" lon="-1.35894">
        <ele>82.9</ele>
        <time>2020-06-15T13:13:35Z</time>
      </trkpt>
      <trkpt lat="49.57746" lon="-1.35904">
        <ele>82.7</ele>
        <time>2020-06-15T13:13:36Z</time>
      </trkpt>
      <trkpt lat="49.57743" lon="-1.35914">
        <ele>82.5</ele>
        <time>2020-06-15T13:13:37Z</time>
      </trkpt>
      <trkpt lat="49.57741" lon="-1.35924">
        <ele>82.3</ele>
        <time>2020-06-15T13:13:38Z</time>
      </trkpt>
      <trkpt lat="49.57738" lon="-1.35935">
        <ele>82.2</ele>
        <time>2020-06-15T13:13:39Z</time>
      </trkpt>
      <trkpt lat="49.57735" lon="-1.35945">
        <ele>82</ele>
        <time>2020-06-15T13:13:40Z</time>
      </trkpt>
      <trkpt lat="49.57732" lon="-1.35956">
        <ele>81.9</ele>
        <time>2020-06-15T13:13:41Z</time>
      </trkpt>
      <trkpt lat="49.57729" lon="-1.35966">
        <ele>81.7</ele>
        <time>2020-06-15T13:13:42Z</time>
      </trkpt>
      <trkpt lat="49.57726" lon="-1.35976">
        <ele>81.5</ele>
        <time>2020-06-15T13:13:43Z</time>
      </trkpt>
      <trkpt lat="49.57724" lon="-1.35986">
        <ele>81.2</ele>
        <time>2020-06-15T13:13:44Z</time>
      </trkpt>
      <trkpt lat="49.57721" lon="-1.35997">
        <ele>81</ele>
        <time>2020-06-15T13:13:45Z</time>
      </trkpt>
      <trkpt lat="49.57717" lon="-1.36007">
        <ele>80.8</ele>
        <time>2020-06-15T13:13:46Z</time>
      </trkpt>
      <trkpt lat="49.57714" lon="-1.36018">
        <ele>80.6</ele>
        <time>2020-06-15T13:13:47Z</time>
      </trkpt>
      <trkpt lat="49.57711" lon="-1.36028">
        <ele>80.5</ele>
        <time>2020-06-15T13:13:48Z</time>
      </trkpt>
      <trkpt lat="49.57708" lon="-1.36039">
        <ele>80.5</ele>
        <time>2020-06-15T13:13:49Z</time>
      </trkpt>
      <trkpt lat="49.57705" lon="-1.3605">
        <ele>80.4</ele>
        <time>2020-06-15T13:13:50Z</time>
      </trkpt>
      <trkpt lat="49.57702" lon="-1.36061">
        <ele>80.3</ele>
        <time>2020-06-15T13:13:51Z</time>
      </trkpt>
      <trkpt lat="49.57699" lon="-1.36072">
        <ele>79.9</ele>
        <time>2020-06-15T13:13:52Z</time>
      </trkpt>
      <trkpt lat="49.57695" lon="-1.36084">
        <ele>79.6</ele>
        <time>2020-06-15T13:13:53Z</time>
      </trkpt>
      <trkpt lat="49.57692" lon="-1.36095">
        <ele>79.3</ele>
        <time>2020-06-15T13:13:54Z</time>
      </trkpt>
      <trkpt lat="49.57689" lon="-1.36106">
        <ele>78.9</ele>
        <time>2020-06-15T13:13:55Z</time>
      </trkpt>
      <trkpt lat="49.57686" lon="-1.36118">
        <ele>78.7</ele>
        <time>2020-06-15T13:13:56Z</time>
      </trkpt>
      <trkpt lat="49.57683" lon="-1.36129">
        <ele>78.4</ele>
        <time>2020-06-15T13:13:57Z</time>
      </trkpt>
      <trkpt lat="49.5768" lon="-1.36141">
        <ele>78.2</ele>
        <time>2020-06-15T13:13:58Z</time>
      </trkpt>
      <trkpt lat="49.57676" lon="-1.36153">
        <ele>78.1</ele>
        <time>2020-06-15T13:13:59Z</time>
      </trkpt>
      <trkpt lat="49.57673" lon="-1.36165">
        <ele>77.9</ele>
        <time>2020-06-15T13:14:00Z</time>
      </trkpt>
      <trkpt lat="49.5767" lon="-1.36177">
        <ele>77.8</ele>
        <time>2020-06-15T13:14:01Z</time>
      </trkpt>
      <trkpt lat="49.57667" lon="-1.36188">
        <ele>77.6</ele>
        <time>2020-06-15T13:14:02Z</time>
      </trkpt>
      <trkpt lat="49.57663" lon="-1.362">
        <ele>77.4</ele>
        <time>2020-06-15T13:14:03Z</time>
      </trkpt>
      <trkpt lat="49.5766" lon="-1.36212">
        <ele>77.2</ele>
        <time>2020-06-15T13:14:04Z</time>
      </trkpt>
      <trkpt lat="49.57657" lon="-1.36224">
        <ele>77</ele>
        <time>2020-06-15T13:14:05Z</time>
      </trkpt>
      <trkpt lat="49.57654" lon="-1.36235">
        <ele>76.9</ele>
        <time>2020-06-15T13:14:06Z</time>
      </trkpt>
      <trkpt lat="49.57651" lon="-1.36247">
        <ele>76.7</ele>
        <time>2020-06-15T13:14:07Z</time>
      </trkpt>
      <trkpt lat="49.57647" lon="-1.36259">
        <ele>76.6</ele>
        <time>2020-06-15T13:14:08Z</time>
      </trkpt>
      <trkpt lat="49.57644" lon="-1.3627">
        <ele>76.5</ele>
        <time>2020-06-15T13:14:09Z</time>
      </trkpt>
      <trkpt lat="49.5764" lon="-1.36282">
        <ele>76.3</ele>
        <time>2020-06-15T13:14:10Z</time>
      </trkpt>
      <trkpt lat="49.57637" lon="-1.36293">
        <ele>76.2</ele>
        <time>2020-06-15T13:14:11Z</time>
      </trkpt>
      <trkpt lat="49.57634" lon="-1.36306">
        <ele>76.1</ele>
        <time>2020-06-15T13:14:12Z</time>
      </trkpt>
      <trkpt lat="49.5763" lon="-1.36317">
        <ele>76.1</ele>
        <time>2020-06-15T13:14:13Z</time>
      </trkpt>
      <trkpt lat="49.57627" lon="-1.36329">
        <ele>76</ele>
        <time>2020-06-15T13:14:14Z</time>
      </trkpt>
      <trkpt lat="49.57624" lon="-1.36341">
        <ele>76</ele>
        <time>2020-06-15T13:14:15Z</time>
      </trkpt>
      <trkpt lat="49.57621" lon="-1.36353">
        <ele>76</ele>
        <time>2020-06-15T13:14:16Z</time>
      </trkpt>
      <trkpt lat="49.57617" lon="-1.36364">
        <ele>76</ele>
        <time>2020-06-15T13:14:17Z</time>
      </trkpt>
      <trkpt lat="49.57614" lon="-1.36375">
        <ele>76.1</ele>
        <time>2020-06-15T13:14:18Z</time>
      </trkpt>
      <trkpt lat="49.57611" lon="-1.36386">
        <ele>76.1</ele>
        <time>2020-06-15T13:14:19Z</time>
      </trkpt>
      <trkpt lat="49.57607" lon="-1.36397">
        <ele>76.2</ele>
        <time>2020-06-15T13:14:20Z</time>
      </trkpt>
      <trkpt lat="49.57603" lon="-1.36407">
        <ele>76.3</ele>
        <time>2020-06-15T13:14:21Z</time>
      </trkpt>
      <trkpt lat="49.576" lon="-1.36417">
        <ele>76.4</ele>
        <time>2020-06-15T13:14:22Z</time>
      </trkpt>
      <trkpt lat="49.57596" lon="-1.36426">
        <ele>76.5</ele>
        <time>2020-06-15T13:14:23Z</time>
      </trkpt>
      <trkpt lat="49.57592" lon="-1.36435">
        <ele>76.7</ele>
        <time>2020-06-15T13:14:24Z</time>
      </trkpt>
      <trkpt lat="49.57588" lon="-1.36444">
        <ele>76.9</ele>
        <time>2020-06-15T13:14:25Z</time>
      </trkpt>
      <trkpt lat="49.57585" lon="-1.36453">
        <ele>77.1</ele>
        <time>2020-06-15T13:14:26Z</time>
      </trkpt>
      <trkpt lat="49.57581" lon="-1.36461">
        <ele>77.3</ele>
        <time>2020-06-15T13:14:27Z</time>
      </trkpt>
      <trkpt lat="49.57577" lon="-1.36469">
        <ele>77.5</ele>
        <time>2020-06-15T13:14:28Z</time>
      </trkpt>
      <trkpt lat="49.57573" lon="-1.36477">
        <ele>77.6</ele>
        <time>2020-06-15T13:14:29Z</time>
      </trkpt>
      <trkpt lat="49.57569" lon="-1.36485">
        <ele>77.7</ele>
        <time>2020-06-15T13:14:30Z</time>
      </trkpt>
      <trkpt lat="49.57564" lon="-1.36492">
        <ele>77.8</ele>
        <time>2020-06-15T13:14:31Z</time>
      </trkpt>
      <trkpt lat="49.5756" lon="-1.36499">
        <ele>77.9</ele>
        <time>2020-06-15T13:14:32Z</time>
      </trkpt>
      <trkpt lat="49.57557" lon="-1.36507">
        <ele>78</ele>
        <time>2020-06-15T13:14:33Z</time>
      </trkpt>
      <trkpt lat="49.57554" lon="-1.36514">
        <ele>78.1</ele>
        <time>2020-06-15T13:14:34Z</time>
      </trkpt>
      <trkpt lat="49.57551" lon="-1.36523">
        <ele>78.2</ele>
        <time>2020-06-15T13:14:35Z</time>
      </trkpt>
      <trkpt lat="49.57547" lon="-1.3653">
        <ele>78.3</ele>
        <time>2020-06-15T13:14:36Z</time>
      </trkpt>
      <trkpt lat="49.57543" lon="-1.36537">
        <ele>78.4</ele>
        <time>2020-06-15T13:14:37Z</time>
      </trkpt>
      <trkpt lat="49.57539" lon="-1.36542">
        <ele>78.5</ele>
        <time>2020-06-15T13:14:38Z</time>
      </trkpt>
      <trkpt lat="49.57535" lon="-1.36548">
        <ele>78.6</ele>
        <time>2020-06-15T13:14:39Z</time>
      </trkpt>
      <trkpt lat="49.57531" lon="-1.36555">
        <ele>78.7</ele>
        <time>2020-06-15T13:14:40Z</time>
      </trkpt>
      <trkpt lat="49.57527" lon="-1.36562">
        <ele>78.7</ele>
        <time>2020-06-15T13:14:41Z</time>
      </trkpt>
      <trkpt lat="49.57523" lon="-1.36568">
        <ele>78.8</ele>
        <time>2020-06-15T13:14:42Z</time>
      </trkpt>
      <trkpt lat="49.57519" lon="-1.36576">
        <ele>78.9</ele>
        <time>2020-06-15T13:14:43Z</time>
      </trkpt>
      <trkpt lat="49.57516" lon="-1.36583">
        <ele>79</ele>
        <time>2020-06-15T13:14:44Z</time>
      </trkpt>
      <trkpt lat="49.57513" lon="-1.36592">
        <ele>79</ele>
        <time>2020-06-15T13:14:45Z</time>
      </trkpt>
      <trkpt lat="49.57509" lon="-1.36598">
        <ele>79</ele>
        <time>2020-06-15T13:14:46Z</time>
      </trkpt>
      <trkpt lat="49.57506" lon="-1.36608">
        <ele>78.7</ele>
        <time>2020-06-15T13:14:47Z</time>
      </trkpt>
      <trkpt lat="49.57501" lon="-1.36616">
        <ele>78.5</ele>
        <time>2020-06-15T13:14:48Z</time>
      </trkpt>
      <trkpt lat="49.57498" lon="-1.36623">
        <ele>78.5</ele>
        <time>2020-06-15T13:14:49Z</time>
      </trkpt>
      <trkpt lat="49.57494" lon="-1.36633">
        <ele>78.4</ele>
        <time>2020-06-15T13:14:50Z</time>
      </trkpt>
      <trkpt lat="49.5749" lon="-1.36641">
        <ele>78.4</ele>
        <time>2020-06-15T13:14:51Z</time>
      </trkpt>
      <trkpt lat="49.57486" lon="-1.36649">
        <ele>78.4</ele>
        <time>2020-06-15T13:14:52Z</time>
      </trkpt>
      <trkpt lat="49.57482" lon="-1.36657">
        <ele>78.4</ele>
        <time>2020-06-15T13:14:53Z</time>
      </trkpt>
      <trkpt lat="49.57478" lon="-1.36665">
        <ele>78.3</ele>
        <time>2020-06-15T13:14:54Z</time>
      </trkpt>
      <trkpt lat="49.57475" lon="-1.36673">
        <ele>78.3</ele>
        <time>2020-06-15T13:14:55Z</time>
      </trkpt>
      <trkpt lat="49.57471" lon="-1.36681">
        <ele>78.3</ele>
        <time>2020-06-15T13:14:56Z</time>
      </trkpt>
      <trkpt lat="49.57467" lon="-1.36688">
        <ele>78.3</ele>
        <time>2020-06-15T13:14:57Z</time>
      </trkpt>
      <trkpt lat="49.57463" lon="-1.36696">
        <ele>78.2</ele>
        <time>2020-06-15T13:14:58Z</time>
      </trkpt>
      <trkpt lat="49.5746" lon="-1.36704">
        <ele>78.2</ele>
        <time>2020-06-15T13:14:59Z</time>
      </trkpt>
      <trkpt lat="49.57456" lon="-1.36711">
        <ele>78.1</ele>
        <time>2020-06-15T13:15:00Z</time>
      </trkpt>
      <trkpt lat="49.57452" lon="-1.36719">
        <ele>78.1</ele>
        <time>2020-06-15T13:15:01Z</time>
      </trkpt>
      <trkpt lat="49.57448" lon="-1.36727">
        <ele>78</ele>
        <time>2020-06-15T13:15:02Z</time>
      </trkpt>
      <trkpt lat="49.57445" lon="-1.36735">
        <ele>78</ele>
        <time>2020-06-15T13:15:03Z</time>
      </trkpt>
      <trkpt lat="49.57441" lon="-1.36743">
        <ele>78</ele>
        <time>2020-06-15T13:15:04Z</time>
      </trkpt>
      <trkpt lat="49.57437" lon="-1.36751">
        <ele>77.9</ele>
        <time>2020-06-15T13:15:05Z</time>
      </trkpt>
      <trkpt lat="49.57433" lon="-1.3676">
        <ele>77.9</ele>
        <time>2020-06-15T13:15:06Z</time>
      </trkpt>
      <trkpt lat="49.57429" lon="-1.36768">
        <ele>77.8</ele>
        <time>2020-06-15T13:15:07Z</time>
      </trkpt>
      <trkpt lat="49.57425" lon="-1.36775">
        <ele>77.8</ele>
        <time>2020-06-15T13:15:08Z</time>
      </trkpt>
      <trkpt lat="49.57421" lon="-1.36783">
        <ele>77.7</ele>
        <time>2020-06-15T13:15:09Z</time>
      </trkpt>
      <trkpt lat="49.57417" lon="-1.36791">
        <ele>77.7</ele>
        <time>2020-06-15T13:15:10Z</time>
      </trkpt>
      <trkpt lat="49.57413" lon="-1.36798">
        <ele>77.7</ele>
        <time>2020-06-15T13:15:11Z</time>
      </trkpt>
      <trkpt lat="49.5741" lon="-1.36805">
        <ele>77.7</ele>
        <time>2020-06-15T13:15:12Z</time>
      </trkpt>
      <trkpt lat="49.57406" lon="-1.36813">
        <ele>77.6</ele>
        <time>2020-06-15T13:15:13Z</time>
      </trkpt>
      <trkpt lat="49.57402" lon="-1.3682">
        <ele>77.5</ele>
        <time>2020-06-15T13:15:14Z</time>
      </trkpt>
      <trkpt lat="49.57399" lon="-1.36827">
        <ele>77.2</ele>
        <time>2020-06-15T13:15:15Z</time>
      </trkpt>
      <trkpt lat="49.57395" lon="-1.36835">
        <ele>76.8</ele>
        <time>2020-06-15T13:15:16Z</time>
      </trkpt>
      <trkpt lat="49.57391" lon="-1.36843">
        <ele>76.5</ele>
        <time>2020-06-15T13:15:17Z</time>
      </trkpt>
      <trkpt lat="49.57387" lon="-1.36851">
        <ele>76.2</ele>
        <time>2020-06-15T13:15:18Z</time>
      </trkpt>
      <trkpt lat="49.57383" lon="-1.36859">
        <ele>76</ele>
        <time>2020-06-15T13:15:19Z</time>
      </trkpt>
      <trkpt lat="49.57379" lon="-1.36868">
        <ele>75.8</ele>
        <time>2020-06-15T13:15:20Z</time>
      </trkpt>
      <trkpt lat="49.57375" lon="-1.36876">
        <ele>75.6</ele>
        <time>2020-06-15T13:15:21Z</time>
      </trkpt>
      <trkpt lat="49.57371" lon="-1.36884">
        <ele>75.4</ele>
        <time>2020-06-15T13:15:22Z</time>
      </trkpt>
      <trkpt lat="49.57367" lon="-1.36893">
        <ele>75.3</ele>
        <time>2020-06-15T13:15:23Z</time>
      </trkpt>
      <trkpt lat="49.57363" lon="-1.36901">
        <ele>75.2</ele>
        <time>2020-06-15T13:15:24Z</time>
      </trkpt>
      <trkpt lat="49.57358" lon="-1.36909">
        <ele>75</ele>
        <time>2020-06-15T13:15:25Z</time>
      </trkpt>
      <trkpt lat="49.57354" lon="-1.36917">
        <ele>74.8</ele>
        <time>2020-06-15T13:15:26Z</time>
      </trkpt>
      <trkpt lat="49.57349" lon="-1.36925">
        <ele>74.6</ele>
        <time>2020-06-15T13:15:27Z</time>
      </trkpt>
      <trkpt lat="49.57345" lon="-1.36933">
        <ele>74.3</ele>
        <time>2020-06-15T13:15:28Z</time>
      </trkpt>
      <trkpt lat="49.57341" lon="-1.3694">
        <ele>74.1</ele>
        <time>2020-06-15T13:15:29Z</time>
      </trkpt>
      <trkpt lat="49.57337" lon="-1.36949">
        <ele>73.9</ele>
        <time>2020-06-15T13:15:30Z</time>
      </trkpt>
      <trkpt lat="49.57333" lon="-1.36957">
        <ele>73.7</ele>
        <time>2020-06-15T13:15:31Z</time>
      </trkpt>
      <trkpt lat="49.57329" lon="-1.36965">
        <ele>73.4</ele>
        <time>2020-06-15T13:15:32Z</time>
      </trkpt>
      <trkpt lat="49.57325" lon="-1.36974">
        <ele>73.2</ele>
        <time>2020-06-15T13:15:33Z</time>
      </trkpt>
      <trkpt lat="49.57321" lon="-1.36983">
        <ele>73</ele>
        <time>2020-06-15T13:15:34Z</time>
      </trkpt>
      <trkpt lat="49.57316" lon="-1.36991">
        <ele>72.7</ele>
        <time>2020-06-15T13:15:35Z</time>
      </trkpt>
      <trkpt lat="49.57312" lon="-1.37">
        <ele>72.4</ele>
        <time>2020-06-15T13:15:36Z</time>
      </trkpt>
      <trkpt lat="49.57308" lon="-1.37009">
        <ele>72.1</ele>
        <time>2020-06-15T13:15:37Z</time>
      </trkpt>
      <trkpt lat="49.57304" lon="-1.37018">
        <ele>71.8</ele>
        <time>2020-06-15T13:15:38Z</time>
      </trkpt>
      <trkpt lat="49.573" lon="-1.37027">
        <ele>71.5</ele>
        <time>2020-06-15T13:15:39Z</time>
      </trkpt>
      <trkpt lat="49.57295" lon="-1.37036">
        <ele>71.2</ele>
        <time>2020-06-15T13:15:40Z</time>
      </trkpt>
      <trkpt lat="49.5729" lon="-1.37045">
        <ele>70.9</ele>
        <time>2020-06-15T13:15:41Z</time>
      </trkpt>
      <trkpt lat="49.57285" lon="-1.37055">
        <ele>70.6</ele>
        <time>2020-06-15T13:15:42Z</time>
      </trkpt>
      <trkpt lat="49.57281" lon="-1.37064">
        <ele>70.3</ele>
        <time>2020-06-15T13:15:43Z</time>
      </trkpt>
      <trkpt lat="49.57276" lon="-1.37074">
        <ele>70</ele>
        <time>2020-06-15T13:15:44Z</time>
      </trkpt>
      <trkpt lat="49.57271" lon="-1.37084">
        <ele>69.6</ele>
        <time>2020-06-15T13:15:45Z</time>
      </trkpt>
      <trkpt lat="49.57266" lon="-1.37094">
        <ele>69.2</ele>
        <time>2020-06-15T13:15:46Z</time>
      </trkpt>
      <trkpt lat="49.57261" lon="-1.37104">
        <ele>68.8</ele>
        <time>2020-06-15T13:15:47Z</time>
      </trkpt>
      <trkpt lat="49.57256" lon="-1.37114">
        <ele>68.5</ele>
        <time>2020-06-15T13:15:48Z</time>
      </trkpt>
      <trkpt lat="49.57251" lon="-1.37124">
        <ele>68.1</ele>
        <time>2020-06-15T13:15:49Z</time>
      </trkpt>
      <trkpt lat="49.57246" lon="-1.37134">
        <ele>67.8</ele>
        <time>2020-06-15T13:15:50Z</time>
      </trkpt>
      <trkpt lat="49.5724" lon="-1.37144">
        <ele>67.5</ele>
        <time>2020-06-15T13:15:51Z</time>
      </trkpt>
      <trkpt lat="49.57235" lon="-1.37154">
        <ele>67.2</ele>
        <time>2020-06-15T13:15:52Z</time>
      </trkpt>
      <trkpt lat="49.5723" lon="-1.37164">
        <ele>66.9</ele>
        <time>2020-06-15T13:15:53Z</time>
      </trkpt>
      <trkpt lat="49.57225" lon="-1.37173">
        <ele>66.7</ele>
        <time>2020-06-15T13:15:54Z</time>
      </trkpt>
      <trkpt lat="49.57219" lon="-1.37182">
        <ele>66.5</ele>
        <time>2020-06-15T13:15:55Z</time>
      </trkpt>
      <trkpt lat="49.57215" lon="-1.37192">
        <ele>66.3</ele>
        <time>2020-06-15T13:15:56Z</time>
      </trkpt>
      <trkpt lat="49.57209" lon="-1.37201">
        <ele>66.1</ele>
        <time>2020-06-15T13:15:57Z</time>
      </trkpt>
      <trkpt lat="49.57204" lon="-1.3721">
        <ele>65.9</ele>
        <time>2020-06-15T13:15:58Z</time>
      </trkpt>
      <trkpt lat="49.572" lon="-1.3722">
        <ele>65.7</ele>
        <time>2020-06-15T13:15:59Z</time>
      </trkpt>
      <trkpt lat="49.57194" lon="-1.37229">
        <ele>65.5</ele>
        <time>2020-06-15T13:16:00Z</time>
      </trkpt>
      <trkpt lat="49.5719" lon="-1.37239">
        <ele>65.3</ele>
        <time>2020-06-15T13:16:01Z</time>
      </trkpt>
      <trkpt lat="49.57186" lon="-1.37249">
        <ele>65.1</ele>
        <time>2020-06-15T13:16:02Z</time>
      </trkpt>
      <trkpt lat="49.57182" lon="-1.3726">
        <ele>64.9</ele>
        <time>2020-06-15T13:16:03Z</time>
      </trkpt>
      <trkpt lat="49.57177" lon="-1.37269">
        <ele>64.7</ele>
        <time>2020-06-15T13:16:04Z</time>
      </trkpt>
      <trkpt lat="49.57172" lon="-1.37279">
        <ele>64.5</ele>
        <time>2020-06-15T13:16:05Z</time>
      </trkpt>
      <trkpt lat="49.57166" lon="-1.37288">
        <ele>64.3</ele>
        <time>2020-06-15T13:16:06Z</time>
      </trkpt>
      <trkpt lat="49.57161" lon="-1.37298">
        <ele>64.2</ele>
        <time>2020-06-15T13:16:07Z</time>
      </trkpt>
      <trkpt lat="49.57156" lon="-1.37308">
        <ele>64.1</ele>
        <time>2020-06-15T13:16:08Z</time>
      </trkpt>
      <trkpt lat="49.57152" lon="-1.37318">
        <ele>63.9</ele>
        <time>2020-06-15T13:16:09Z</time>
      </trkpt>
      <trkpt lat="49.57148" lon="-1.37329">
        <ele>63.8</ele>
        <time>2020-06-15T13:16:10Z</time>
      </trkpt>
      <trkpt lat="49.57143" lon="-1.37339">
        <ele>63.7</ele>
        <time>2020-06-15T13:16:11Z</time>
      </trkpt>
      <trkpt lat="49.57138" lon="-1.3735">
        <ele>63.7</ele>
        <time>2020-06-15T13:16:12Z</time>
      </trkpt>
      <trkpt lat="49.57133" lon="-1.37359">
        <ele>63.7</ele>
        <time>2020-06-15T13:16:13Z</time>
      </trkpt>
      <trkpt lat="49.57128" lon="-1.37369">
        <ele>63.8</ele>
        <time>2020-06-15T13:16:14Z</time>
      </trkpt>
      <trkpt lat="49.57124" lon="-1.37379">
        <ele>63.9</ele>
        <time>2020-06-15T13:16:15Z</time>
      </trkpt>
      <trkpt lat="49.57119" lon="-1.37388">
        <ele>64.1</ele>
        <time>2020-06-15T13:16:16Z</time>
      </trkpt>
      <trkpt lat="49.57114" lon="-1.37398">
        <ele>64.3</ele>
        <time>2020-06-15T13:16:17Z</time>
      </trkpt>
      <trkpt lat="49.5711" lon="-1.37407">
        <ele>64.4</ele>
        <time>2020-06-15T13:16:18Z</time>
      </trkpt>
      <trkpt lat="49.57105" lon="-1.37415">
        <ele>64.2</ele>
        <time>2020-06-15T13:16:19Z</time>
      </trkpt>
      <trkpt lat="49.57101" lon="-1.37425">
        <ele>64.1</ele>
        <time>2020-06-15T13:16:20Z</time>
      </trkpt>
      <trkpt lat="49.57096" lon="-1.37434">
        <ele>64.1</ele>
        <time>2020-06-15T13:16:21Z</time>
      </trkpt>
      <trkpt lat="49.57092" lon="-1.37442">
        <ele>64.1</ele>
        <time>2020-06-15T13:16:22Z</time>
      </trkpt>
      <trkpt lat="49.57088" lon="-1.37451">
        <ele>64.2</ele>
        <time>2020-06-15T13:16:23Z</time>
      </trkpt>
      <trkpt lat="49.57084" lon="-1.37459">
        <ele>64.4</ele>
        <time>2020-06-15T13:16:24Z</time>
      </trkpt>
      <trkpt lat="49.5708" lon="-1.37467">
        <ele>64.6</ele>
        <time>2020-06-15T13:16:25Z</time>
      </trkpt>
      <trkpt lat="49.57076" lon="-1.37475">
        <ele>64.8</ele>
        <time>2020-06-15T13:16:26Z</time>
      </trkpt>
      <trkpt lat="49.57072" lon="-1.37483">
        <ele>65</ele>
        <time>2020-06-15T13:16:27Z</time>
      </trkpt>
      <trkpt lat="49.57068" lon="-1.37491">
        <ele>65.2</ele>
        <time>2020-06-15T13:16:28Z</time>
      </trkpt>
      <trkpt lat="49.57064" lon="-1.37499">
        <ele>65.4</ele>
        <time>2020-06-15T13:16:29Z</time>
      </trkpt>
      <trkpt lat="49.57061" lon="-1.37507">
        <ele>65.6</ele>
        <time>2020-06-15T13:16:30Z</time>
      </trkpt>
      <trkpt lat="49.57057" lon="-1.37514">
        <ele>65.8</ele>
        <time>2020-06-15T13:16:31Z</time>
      </trkpt>
      <trkpt lat="49.57053" lon="-1.37522">
        <ele>66</ele>
        <time>2020-06-15T13:16:32Z</time>
      </trkpt>
      <trkpt lat="49.57049" lon="-1.37529">
        <ele>66.2</ele>
        <time>2020-06-15T13:16:33Z</time>
      </trkpt>
      <trkpt lat="49.57045" lon="-1.37536">
        <ele>66.5</ele>
        <time>2020-06-15T13:16:34Z</time>
      </trkpt>
      <trkpt lat="49.57041" lon="-1.37544">
        <ele>66.7</ele>
        <time>2020-06-15T13:16:35Z</time>
      </trkpt>
      <trkpt lat="49.57038" lon="-1.37551">
        <ele>66.9</ele>
        <time>2020-06-15T13:16:36Z</time>
      </trkpt>
      <trkpt lat="49.57034" lon="-1.37558">
        <ele>67.1</ele>
        <time>2020-06-15T13:16:37Z</time>
      </trkpt>
      <trkpt lat="49.57031" lon="-1.37566">
        <ele>67.3</ele>
        <time>2020-06-15T13:16:38Z</time>
      </trkpt>
      <trkpt lat="49.57027" lon="-1.37574">
        <ele>67.5</ele>
        <time>2020-06-15T13:16:39Z</time>
      </trkpt>
      <trkpt lat="49.57024" lon="-1.37581">
        <ele>67.8</ele>
        <time>2020-06-15T13:16:40Z</time>
      </trkpt>
      <trkpt lat="49.5702" lon="-1.37588">
        <ele>68</ele>
        <time>2020-06-15T13:16:41Z</time>
      </trkpt>
      <trkpt lat="49.57017" lon="-1.37594">
        <ele>68.2</ele>
        <time>2020-06-15T13:16:42Z</time>
      </trkpt>
      <trkpt lat="49.57014" lon="-1.37599">
        <ele>68.3</ele>
        <time>2020-06-15T13:16:43Z</time>
      </trkpt>
      <trkpt lat="49.57011" lon="-1.37604">
        <ele>68.5</ele>
        <time>2020-06-15T13:16:44Z</time>
      </trkpt>
      <trkpt lat="49.57007" lon="-1.3761">
        <ele>68.6</ele>
        <time>2020-06-15T13:16:45Z</time>
      </trkpt>
      <trkpt lat="49.57004" lon="-1.37617">
        <ele>68.6</ele>
        <time>2020-06-15T13:16:46Z</time>
      </trkpt>
      <trkpt lat="49.57001" lon="-1.37624">
        <ele>68.6</ele>
        <time>2020-06-15T13:16:47Z</time>
      </trkpt>
      <trkpt lat="49.56998" lon="-1.37632">
        <ele>68.6</ele>
        <time>2020-06-15T13:16:48Z</time>
      </trkpt>
      <trkpt lat="49.56993" lon="-1.3764">
        <ele>68.6</ele>
        <time>2020-06-15T13:16:49Z</time>
      </trkpt>
      <trkpt lat="49.56988" lon="-1.37649">
        <ele>68.5</ele>
        <time>2020-06-15T13:16:50Z</time>
      </trkpt>
      <trkpt lat="49.56983" lon="-1.37657">
        <ele>68.3</ele>
        <time>2020-06-15T13:16:51Z</time>
      </trkpt>
      <trkpt lat="49.56978" lon="-1.37665">
        <ele>68.1</ele>
        <time>2020-06-15T13:16:52Z</time>
      </trkpt>
      <trkpt lat="49.56973" lon="-1.37675">
        <ele>67.8</ele>
        <time>2020-06-15T13:16:53Z</time>
      </trkpt>
      <trkpt lat="49.56968" lon="-1.37686">
        <ele>67.4</ele>
        <time>2020-06-15T13:16:54Z</time>
      </trkpt>
      <trkpt lat="49.56963" lon="-1.37697">
        <ele>67.1</ele>
        <time>2020-06-15T13:16:55Z</time>
      </trkpt>
      <trkpt lat="49.56957" lon="-1.37709">
        <ele>66.7</ele>
        <time>2020-06-15T13:16:56Z</time>
      </trkpt>
      <trkpt lat="49.5695" lon="-1.37721">
        <ele>66.2</ele>
        <time>2020-06-15T13:16:57Z</time>
      </trkpt>
      <trkpt lat="49.56945" lon="-1.37733">
        <ele>65.8</ele>
        <time>2020-06-15T13:16:58Z</time>
      </trkpt>
      <trkpt lat="49.56939" lon="-1.37745">
        <ele>65.3</ele>
        <time>2020-06-15T13:16:59Z</time>
      </trkpt>
      <trkpt lat="49.56932" lon="-1.37758">
        <ele>64.7</ele>
        <time>2020-06-15T13:17:00Z</time>
      </trkpt>
      <trkpt lat="49.56925" lon="-1.37771">
        <ele>64.2</ele>
        <time>2020-06-15T13:17:01Z</time>
      </trkpt>
      <trkpt lat="49.56918" lon="-1.37784">
        <ele>63.6</ele>
        <time>2020-06-15T13:17:02Z</time>
      </trkpt>
      <trkpt lat="49.56911" lon="-1.37799">
        <ele>62.9</ele>
        <time>2020-06-15T13:17:03Z</time>
      </trkpt>
      <trkpt lat="49.56904" lon="-1.37813">
        <ele>62.1</ele>
        <time>2020-06-15T13:17:04Z</time>
      </trkpt>
      <trkpt lat="49.56896" lon="-1.37827">
        <ele>61.3</ele>
        <time>2020-06-15T13:17:05Z</time>
      </trkpt>
      <trkpt lat="49.56888" lon="-1.37841">
        <ele>60.6</ele>
        <time>2020-06-15T13:17:06Z</time>
      </trkpt>
      <trkpt lat="49.56881" lon="-1.37855">
        <ele>59.9</ele>
        <time>2020-06-15T13:17:07Z</time>
      </trkpt>
      <trkpt lat="49.56873" lon="-1.37869">
        <ele>59</ele>
        <time>2020-06-15T13:17:08Z</time>
      </trkpt>
      <trkpt lat="49.56865" lon="-1.37885">
        <ele>58.1</ele>
        <time>2020-06-15T13:17:09Z</time>
      </trkpt>
      <trkpt lat="49.56857" lon="-1.37901">
        <ele>57.1</ele>
        <time>2020-06-15T13:17:10Z</time>
      </trkpt>
      <trkpt lat="49.56849" lon="-1.37917">
        <ele>56.1</ele>
        <time>2020-06-15T13:17:11Z</time>
      </trkpt>
      <trkpt lat="49.56842" lon="-1.37936">
        <ele>54.9</ele>
        <time>2020-06-15T13:17:12Z</time>
      </trkpt>
      <trkpt lat="49.56835" lon="-1.37953">
        <ele>53.9</ele>
        <time>2020-06-15T13:17:13Z</time>
      </trkpt>
      <trkpt lat="49.56826" lon="-1.3797">
        <ele>52.8</ele>
        <time>2020-06-15T13:17:14Z</time>
      </trkpt>
      <trkpt lat="49.56819" lon="-1.37987">
        <ele>52</ele>
        <time>2020-06-15T13:17:15Z</time>
      </trkpt>
      <trkpt lat="49.5681" lon="-1.38004">
        <ele>51.3</ele>
        <time>2020-06-15T13:17:16Z</time>
      </trkpt>
      <trkpt lat="49.56802" lon="-1.38019">
        <ele>50.7</ele>
        <time>2020-06-15T13:17:17Z</time>
      </trkpt>
      <trkpt lat="49.56794" lon="-1.38034">
        <ele>49.8</ele>
        <time>2020-06-15T13:17:18Z</time>
      </trkpt>
      <trkpt lat="49.56786" lon="-1.38049">
        <ele>48.3</ele>
        <time>2020-06-15T13:17:19Z</time>
      </trkpt>
      <trkpt lat="49.56778" lon="-1.38065">
        <ele>47.2</ele>
        <time>2020-06-15T13:17:20Z</time>
      </trkpt>
      <trkpt lat="49.56771" lon="-1.38079">
        <ele>46.3</ele>
        <time>2020-06-15T13:17:21Z</time>
      </trkpt>
      <trkpt lat="49.56763" lon="-1.38093">
        <ele>45.6</ele>
        <time>2020-06-15T13:17:22Z</time>
      </trkpt>
      <trkpt lat="49.56756" lon="-1.38107">
        <ele>45.2</ele>
        <time>2020-06-15T13:17:23Z</time>
      </trkpt>
      <trkpt lat="49.56749" lon="-1.38121">
        <ele>45</ele>
        <time>2020-06-15T13:17:24Z</time>
      </trkpt>
      <trkpt lat="49.56742" lon="-1.38134">
        <ele>44.7</ele>
        <time>2020-06-15T13:17:25Z</time>
      </trkpt>
      <trkpt lat="49.56736" lon="-1.38147">
        <ele>44.6</ele>
        <time>2020-06-15T13:17:26Z</time>
      </trkpt>
      <trkpt lat="49.56729" lon="-1.38159">
        <ele>44.4</ele>
        <time>2020-06-15T13:17:27Z</time>
      </trkpt>
      <trkpt lat="49.56723" lon="-1.38171">
        <ele>44.4</ele>
        <time>2020-06-15T13:17:28Z</time>
      </trkpt>
      <trkpt lat="49.56717" lon="-1.38182">
        <ele>44.5</ele>
        <time>2020-06-15T13:17:29Z</time>
      </trkpt>
      <trkpt lat="49.56711" lon="-1.38194">
        <ele>44.7</ele>
        <time>2020-06-15T13:17:30Z</time>
      </trkpt>
      <trkpt lat="49.56704" lon="-1.38205">
        <ele>45</ele>
        <time>2020-06-15T13:17:31Z</time>
      </trkpt>
      <trkpt lat="49.56698" lon="-1.38217">
        <ele>45.1</ele>
        <time>2020-06-15T13:17:32Z</time>
      </trkpt>
      <trkpt lat="49.56693" lon="-1.38227">
        <ele>44.9</ele>
        <time>2020-06-15T13:17:33Z</time>
      </trkpt>
      <trkpt lat="49.56688" lon="-1.38237">
        <ele>44.9</ele>
        <time>2020-06-15T13:17:34Z</time>
      </trkpt>
      <trkpt lat="49.56683" lon="-1.38247">
        <ele>45</ele>
        <time>2020-06-15T13:17:35Z</time>
      </trkpt>
      <trkpt lat="49.56678" lon="-1.38257">
        <ele>45.2</ele>
        <time>2020-06-15T13:17:36Z</time>
      </trkpt>
      <trkpt lat="49.56673" lon="-1.38265">
        <ele>45.4</ele>
        <time>2020-06-15T13:17:37Z</time>
      </trkpt>
      <trkpt lat="49.56669" lon="-1.38273">
        <ele>45.7</ele>
        <time>2020-06-15T13:17:38Z</time>
      </trkpt>
      <trkpt lat="49.56665" lon="-1.38281">
        <ele>46.1</ele>
        <time>2020-06-15T13:17:39Z</time>
      </trkpt>
      <trkpt lat="49.56662" lon="-1.38289">
        <ele>46.4</ele>
        <time>2020-06-15T13:17:40Z</time>
      </trkpt>
      <trkpt lat="49.56658" lon="-1.38295">
        <ele>46.8</ele>
        <time>2020-06-15T13:17:41Z</time>
      </trkpt>
      <trkpt lat="49.56655" lon="-1.38301">
        <ele>47.2</ele>
        <time>2020-06-15T13:17:42Z</time>
      </trkpt>
      <trkpt lat="49.56651" lon="-1.38307">
        <ele>47.5</ele>
        <time>2020-06-15T13:17:43Z</time>
      </trkpt>
      <trkpt lat="49.56647" lon="-1.38312">
        <ele>47.8</ele>
        <time>2020-06-15T13:17:44Z</time>
      </trkpt>
      <trkpt lat="49.56644" lon="-1.38318">
        <ele>48.1</ele>
        <time>2020-06-15T13:17:45Z</time>
      </trkpt>
      <trkpt lat="49.56642" lon="-1.38324">
        <ele>48.5</ele>
        <time>2020-06-15T13:17:46Z</time>
      </trkpt>
      <trkpt lat="49.5664" lon="-1.38329">
        <ele>48.8</ele>
        <time>2020-06-15T13:17:47Z</time>
      </trkpt>
      <trkpt lat="49.56638" lon="-1.38333">
        <ele>49.1</ele>
        <time>2020-06-15T13:17:48Z</time>
      </trkpt>
      <trkpt lat="49.56635" lon="-1.38338">
        <ele>49.4</ele>
        <time>2020-06-15T13:17:49Z</time>
      </trkpt>
      <trkpt lat="49.56632" lon="-1.38342">
        <ele>49.7</ele>
        <time>2020-06-15T13:17:50Z</time>
      </trkpt>
      <trkpt lat="49.56631" lon="-1.38347">
        <ele>49.9</ele>
        <time>2020-06-15T13:17:51Z</time>
      </trkpt>
      <trkpt lat="49.56629" lon="-1.38351">
        <ele>50.2</ele>
        <time>2020-06-15T13:17:52Z</time>
      </trkpt>
      <trkpt lat="49.56626" lon="-1.38356">
        <ele>50.5</ele>
        <time>2020-06-15T13:17:53Z</time>
      </trkpt>
      <trkpt lat="49.56626" lon="-1.38358">
        <ele>50.6</ele>
        <time>2020-06-15T13:17:54Z</time>
      </trkpt>
      <trkpt lat="49.56624" lon="-1.38362">
        <ele>50.9</ele>
        <time>2020-06-15T13:17:55Z</time>
      </trkpt>
      <trkpt lat="49.56621" lon="-1.38369">
        <ele>51.3</ele>
        <time>2020-06-15T13:17:56Z</time>
      </trkpt>
      <trkpt lat="49.56619" lon="-1.38372">
        <ele>51.5</ele>
        <time>2020-06-15T13:17:57Z</time>
      </trkpt>
      <trkpt lat="49.56617" lon="-1.38376">
        <ele>51.7</ele>
        <time>2020-06-15T13:17:58Z</time>
      </trkpt>
      <trkpt lat="49.56616" lon="-1.38378">
        <ele>51.9</ele>
        <time>2020-06-15T13:17:59Z</time>
      </trkpt>
      <trkpt lat="49.56614" lon="-1.38382">
        <ele>52.1</ele>
        <time>2020-06-15T13:18:00Z</time>
      </trkpt>
      <trkpt lat="49.56612" lon="-1.38386">
        <ele>52.4</ele>
        <time>2020-06-15T13:18:01Z</time>
      </trkpt>
      <trkpt lat="49.5661" lon="-1.38391">
        <ele>52.8</ele>
        <time>2020-06-15T13:18:02Z</time>
      </trkpt>
      <trkpt lat="49.56607" lon="-1.38396">
        <ele>53.1</ele>
        <time>2020-06-15T13:18:03Z</time>
      </trkpt>
      <trkpt lat="49.56606" lon="-1.38399">
        <ele>53.3</ele>
        <time>2020-06-15T13:18:04Z</time>
      </trkpt>
      <trkpt lat="49.56604" lon="-1.38403">
        <ele>53.6</ele>
        <time>2020-06-15T13:18:05Z</time>
      </trkpt>
      <trkpt lat="49.56602" lon="-1.38407">
        <ele>53.8</ele>
        <time>2020-06-15T13:18:06Z</time>
      </trkpt>
      <trkpt lat="49.56599" lon="-1.38411">
        <ele>54.2</ele>
        <time>2020-06-15T13:18:07Z</time>
      </trkpt>
      <trkpt lat="49.56598" lon="-1.38414">
        <ele>54.4</ele>
        <time>2020-06-15T13:18:08Z</time>
      </trkpt>
      <trkpt lat="49.56596" lon="-1.38418">
        <ele>54.7</ele>
        <time>2020-06-15T13:18:09Z</time>
      </trkpt>
      <trkpt lat="49.56594" lon="-1.38424">
        <ele>55</ele>
        <time>2020-06-15T13:18:10Z</time>
      </trkpt>
      <trkpt lat="49.56593" lon="-1.38428">
        <ele>55.2</ele>
        <time>2020-06-15T13:18:11Z</time>
      </trkpt>
      <trkpt lat="49.56591" lon="-1.38432">
        <ele>55.5</ele>
        <time>2020-06-15T13:18:12Z</time>
      </trkpt>
      <trkpt lat="49.5659" lon="-1.38435">
        <ele>55.7</ele>
        <time>2020-06-15T13:18:13Z</time>
      </trkpt>
      <trkpt lat="49.56589" lon="-1.38437">
        <ele>55.8</ele>
        <time>2020-06-15T13:18:14Z</time>
      </trkpt>
      <trkpt lat="49.56587" lon="-1.38442">
        <ele>56.1</ele>
        <time>2020-06-15T13:18:15Z</time>
      </trkpt>
      <trkpt lat="49.56585" lon="-1.38447">
        <ele>56.4</ele>
        <time>2020-06-15T13:18:16Z</time>
      </trkpt>
      <trkpt lat="49.56583" lon="-1.38453">
        <ele>56.7</ele>
        <time>2020-06-15T13:18:17Z</time>
      </trkpt>
      <trkpt lat="49.56581" lon="-1.38458">
        <ele>57.1</ele>
        <time>2020-06-15T13:18:18Z</time>
      </trkpt>
      <trkpt lat="49.56579" lon="-1.38461">
        <ele>57.3</ele>
        <time>2020-06-15T13:18:19Z</time>
      </trkpt>
      <trkpt lat="49.56577" lon="-1.38465">
        <ele>57.5</ele>
        <time>2020-06-15T13:18:20Z</time>
      </trkpt>
      <trkpt lat="49.56574" lon="-1.38471">
        <ele>57.8</ele>
        <time>2020-06-15T13:18:21Z</time>
      </trkpt>
      <trkpt lat="49.56572" lon="-1.38474">
        <ele>58</ele>
        <time>2020-06-15T13:18:22Z</time>
      </trkpt>
      <trkpt lat="49.5657" lon="-1.38478">
        <ele>58.3</ele>
        <time>2020-06-15T13:18:23Z</time>
      </trkpt>
      <trkpt lat="49.56568" lon="-1.38481">
        <ele>58.5</ele>
        <time>2020-06-15T13:18:24Z</time>
      </trkpt>
      <trkpt lat="49.56566" lon="-1.38486">
        <ele>58.7</ele>
        <time>2020-06-15T13:18:25Z</time>
      </trkpt>
      <trkpt lat="49.56563" lon="-1.38491">
        <ele>59</ele>
        <time>2020-06-15T13:18:26Z</time>
      </trkpt>
      <trkpt lat="49.56561" lon="-1.38495">
        <ele>59.2</ele>
        <time>2020-06-15T13:18:27Z</time>
      </trkpt>
      <trkpt lat="49.56559" lon="-1.38499">
        <ele>59.4</ele>
        <time>2020-06-15T13:18:28Z</time>
      </trkpt>
      <trkpt lat="49.56556" lon="-1.38503">
        <ele>59.6</ele>
        <time>2020-06-15T13:18:29Z</time>
      </trkpt>
      <trkpt lat="49.56555" lon="-1.38506">
        <ele>59.8</ele>
        <time>2020-06-15T13:18:30Z</time>
      </trkpt>
      <trkpt lat="49.56551" lon="-1.38513">
        <ele>60.2</ele>
        <time>2020-06-15T13:18:31Z</time>
      </trkpt>
      <trkpt lat="49.56548" lon="-1.38518">
        <ele>60.5</ele>
        <time>2020-06-15T13:18:32Z</time>
      </trkpt>
      <trkpt lat="49.56547" lon="-1.3852">
        <ele>60.6</ele>
        <time>2020-06-15T13:18:33Z</time>
      </trkpt>
      <trkpt lat="49.56544" lon="-1.38525">
        <ele>60.8</ele>
        <time>2020-06-15T13:18:34Z</time>
      </trkpt>
      <trkpt lat="49.56542" lon="-1.38529">
        <ele>61</ele>
        <time>2020-06-15T13:18:35Z</time>
      </trkpt>
      <trkpt lat="49.5654" lon="-1.38534">
        <ele>61.2</ele>
        <time>2020-06-15T13:18:36Z</time>
      </trkpt>
      <trkpt lat="49.56538" lon="-1.38541">
        <ele>61.5</ele>
        <time>2020-06-15T13:18:37Z</time>
      </trkpt>
      <trkpt lat="49.56536" lon="-1.38545">
        <ele>61.7</ele>
        <time>2020-06-15T13:18:38Z</time>
      </trkpt>
      <trkpt lat="49.56532" lon="-1.3855">
        <ele>62</ele>
        <time>2020-06-15T13:18:39Z</time>
      </trkpt>
      <trkpt lat="49.5653" lon="-1.38554">
        <ele>62.2</ele>
        <time>2020-06-15T13:18:40Z</time>
      </trkpt>
      <trkpt lat="49.56527" lon="-1.3856">
        <ele>62.5</ele>
        <time>2020-06-15T13:18:41Z</time>
      </trkpt>
      <trkpt lat="49.56526" lon="-1.38562">
        <ele>62.6</ele>
        <time>2020-06-15T13:18:42Z</time>
      </trkpt>
      <trkpt lat="49.56523" lon="-1.38566">
        <ele>62.8</ele>
        <time>2020-06-15T13:18:43Z</time>
      </trkpt>
      <trkpt lat="49.56521" lon="-1.38572">
        <ele>63</ele>
        <time>2020-06-15T13:18:44Z</time>
      </trkpt>
      <trkpt lat="49.56519" lon="-1.38577">
        <ele>63.2</ele>
        <time>2020-06-15T13:18:45Z</time>
      </trkpt>
      <trkpt lat="49.56517" lon="-1.3858">
        <ele>63.4</ele>
        <time>2020-06-15T13:18:46Z</time>
      </trkpt>
      <trkpt lat="49.56515" lon="-1.38584">
        <ele>63.5</ele>
        <time>2020-06-15T13:18:47Z</time>
      </trkpt>
      <trkpt lat="49.56513" lon="-1.38588">
        <ele>63.7</ele>
        <time>2020-06-15T13:18:48Z</time>
      </trkpt>
      <trkpt lat="49.5651" lon="-1.38592">
        <ele>63.9</ele>
        <time>2020-06-15T13:18:49Z</time>
      </trkpt>
      <trkpt lat="49.56507" lon="-1.38598">
        <ele>64.1</ele>
        <time>2020-06-15T13:18:50Z</time>
      </trkpt>
      <trkpt lat="49.56504" lon="-1.38602">
        <ele>64.3</ele>
        <time>2020-06-15T13:18:51Z</time>
      </trkpt>
      <trkpt lat="49.56502" lon="-1.38606">
        <ele>64.5</ele>
        <time>2020-06-15T13:18:52Z</time>
      </trkpt>
      <trkpt lat="49.565" lon="-1.38612">
        <ele>64.7</ele>
        <time>2020-06-15T13:18:53Z</time>
      </trkpt>
      <trkpt lat="49.56498" lon="-1.38618">
        <ele>64.9</ele>
        <time>2020-06-15T13:18:54Z</time>
      </trkpt>
      <trkpt lat="49.56496" lon="-1.38623">
        <ele>65.1</ele>
        <time>2020-06-15T13:18:55Z</time>
      </trkpt>
      <trkpt lat="49.56495" lon="-1.38627">
        <ele>65.2</ele>
        <time>2020-06-15T13:18:56Z</time>
      </trkpt>
      <trkpt lat="49.56493" lon="-1.38631">
        <ele>65.4</ele>
        <time>2020-06-15T13:18:57Z</time>
      </trkpt>
      <trkpt lat="49.56491" lon="-1.38635">
        <ele>65.5</ele>
        <time>2020-06-15T13:18:58Z</time>
      </trkpt>
      <trkpt lat="49.56489" lon="-1.38639">
        <ele>65.7</ele>
        <time>2020-06-15T13:18:59Z</time>
      </trkpt>
      <trkpt lat="49.56487" lon="-1.38643">
        <ele>65.8</ele>
        <time>2020-06-15T13:19:00Z</time>
      </trkpt>
      <trkpt lat="49.56484" lon="-1.38645">
        <ele>66</ele>
        <time>2020-06-15T13:19:01Z</time>
      </trkpt>
      <trkpt lat="49.56482" lon="-1.38652">
        <ele>66.2</ele>
        <time>2020-06-15T13:19:02Z</time>
      </trkpt>
      <trkpt lat="49.56479" lon="-1.38657">
        <ele>66.4</ele>
        <time>2020-06-15T13:19:03Z</time>
      </trkpt>
      <trkpt lat="49.56476" lon="-1.38663">
        <ele>66.6</ele>
        <time>2020-06-15T13:19:04Z</time>
      </trkpt>
      <trkpt lat="49.56473" lon="-1.38668">
        <ele>66.8</ele>
        <time>2020-06-15T13:19:05Z</time>
      </trkpt>
      <trkpt lat="49.5647" lon="-1.38674">
        <ele>67</ele>
        <time>2020-06-15T13:19:06Z</time>
      </trkpt>
      <trkpt lat="49.56468" lon="-1.38679">
        <ele>67.1</ele>
        <time>2020-06-15T13:19:07Z</time>
      </trkpt>
      <trkpt lat="49.56467" lon="-1.38682">
        <ele>67.2</ele>
        <time>2020-06-15T13:19:08Z</time>
      </trkpt>
      <trkpt lat="49.56464" lon="-1.38686">
        <ele>67.3</ele>
        <time>2020-06-15T13:19:09Z</time>
      </trkpt>
      <trkpt lat="49.56461" lon="-1.38691">
        <ele>67.5</ele>
        <time>2020-06-15T13:19:10Z</time>
      </trkpt>
      <trkpt lat="49.56458" lon="-1.38695">
        <ele>67.6</ele>
        <time>2020-06-15T13:19:11Z</time>
      </trkpt>
      <trkpt lat="49.56456" lon="-1.38703">
        <ele>67.7</ele>
        <time>2020-06-15T13:19:12Z</time>
      </trkpt>
      <trkpt lat="49.56453" lon="-1.38708">
        <ele>67.8</ele>
        <time>2020-06-15T13:19:13Z</time>
      </trkpt>
      <trkpt lat="49.56451" lon="-1.38714">
        <ele>67.9</ele>
        <time>2020-06-15T13:19:14Z</time>
      </trkpt>
      <trkpt lat="49.56449" lon="-1.38719">
        <ele>68</ele>
        <time>2020-06-15T13:19:15Z</time>
      </trkpt>
      <trkpt lat="49.56446" lon="-1.38725">
        <ele>68.2</ele>
        <time>2020-06-15T13:19:16Z</time>
      </trkpt>
      <trkpt lat="49.56444" lon="-1.38731">
        <ele>68.3</ele>
        <time>2020-06-15T13:19:17Z</time>
      </trkpt>
      <trkpt lat="49.5644" lon="-1.38737">
        <ele>68.4</ele>
        <time>2020-06-15T13:19:18Z</time>
      </trkpt>
      <trkpt lat="49.56437" lon="-1.38741">
        <ele>68.5</ele>
        <time>2020-06-15T13:19:19Z</time>
      </trkpt>
      <trkpt lat="49.56435" lon="-1.38745">
        <ele>68.6</ele>
        <time>2020-06-15T13:19:20Z</time>
      </trkpt>
      <trkpt lat="49.56433" lon="-1.38751">
        <ele>68.7</ele>
        <time>2020-06-15T13:19:21Z</time>
      </trkpt>
      <trkpt lat="49.5643" lon="-1.38757">
        <ele>68.9</ele>
        <time>2020-06-15T13:19:22Z</time>
      </trkpt>
      <trkpt lat="49.56428" lon="-1.38764">
        <ele>69</ele>
        <time>2020-06-15T13:19:23Z</time>
      </trkpt>
      <trkpt lat="49.56424" lon="-1.3877">
        <ele>69.1</ele>
        <time>2020-06-15T13:19:24Z</time>
      </trkpt>
      <trkpt lat="49.56421" lon="-1.38775">
        <ele>69.2</ele>
        <time>2020-06-15T13:19:25Z</time>
      </trkpt>
      <trkpt lat="49.56418" lon="-1.38779">
        <ele>69.3</ele>
        <time>2020-06-15T13:19:26Z</time>
      </trkpt>
      <trkpt lat="49.56415" lon="-1.38785">
        <ele>69.4</ele>
        <time>2020-06-15T13:19:27Z</time>
      </trkpt>
      <trkpt lat="49.56412" lon="-1.38792">
        <ele>69.5</ele>
        <time>2020-06-15T13:19:28Z</time>
      </trkpt>
      <trkpt lat="49.56409" lon="-1.38798">
        <ele>69.5</ele>
        <time>2020-06-15T13:19:29Z</time>
      </trkpt>
      <trkpt lat="49.56405" lon="-1.38806">
        <ele>69.7</ele>
        <time>2020-06-15T13:19:30Z</time>
      </trkpt>
      <trkpt lat="49.56404" lon="-1.38811">
        <ele>69.7</ele>
        <time>2020-06-15T13:19:31Z</time>
      </trkpt>
      <trkpt lat="49.56401" lon="-1.38817">
        <ele>69.8</ele>
        <time>2020-06-15T13:19:32Z</time>
      </trkpt>
      <trkpt lat="49.56398" lon="-1.38822">
        <ele>69.9</ele>
        <time>2020-06-15T13:19:33Z</time>
      </trkpt>
      <trkpt lat="49.56396" lon="-1.38827">
        <ele>70</ele>
        <time>2020-06-15T13:19:34Z</time>
      </trkpt>
      <trkpt lat="49.56392" lon="-1.38833">
        <ele>70.1</ele>
        <time>2020-06-15T13:19:35Z</time>
      </trkpt>
      <trkpt lat="49.56389" lon="-1.38839">
        <ele>70.1</ele>
        <time>2020-06-15T13:19:36Z</time>
      </trkpt>
      <trkpt lat="49.56386" lon="-1.38847">
        <ele>70.3</ele>
        <time>2020-06-15T13:19:37Z</time>
      </trkpt>
      <trkpt lat="49.56383" lon="-1.38854">
        <ele>70.4</ele>
        <time>2020-06-15T13:19:38Z</time>
      </trkpt>
      <trkpt lat="49.5638" lon="-1.38863">
        <ele>70.5</ele>
        <time>2020-06-15T13:19:39Z</time>
      </trkpt>
      <trkpt lat="49.56377" lon="-1.38869">
        <ele>70.6</ele>
        <time>2020-06-15T13:19:40Z</time>
      </trkpt>
      <trkpt lat="49.56374" lon="-1.38875">
        <ele>70.8</ele>
        <time>2020-06-15T13:19:41Z</time>
      </trkpt>
      <trkpt lat="49.5637" lon="-1.38882">
        <ele>70.9</ele>
        <time>2020-06-15T13:19:42Z</time>
      </trkpt>
      <trkpt lat="49.56367" lon="-1.38888">
        <ele>71</ele>
        <time>2020-06-15T13:19:43Z</time>
      </trkpt>
      <trkpt lat="49.56363" lon="-1.38894">
        <ele>71.1</ele>
        <time>2020-06-15T13:19:44Z</time>
      </trkpt>
      <trkpt lat="49.56361" lon="-1.38899">
        <ele>71.2</ele>
        <time>2020-06-15T13:19:45Z</time>
      </trkpt>
      <trkpt lat="49.56359" lon="-1.38904">
        <ele>71.3</ele>
        <time>2020-06-15T13:19:46Z</time>
      </trkpt>
      <trkpt lat="49.56356" lon="-1.3891">
        <ele>71.5</ele>
        <time>2020-06-15T13:19:47Z</time>
      </trkpt>
      <trkpt lat="49.56354" lon="-1.38917">
        <ele>71.6</ele>
        <time>2020-06-15T13:19:48Z</time>
      </trkpt>
      <trkpt lat="49.5635" lon="-1.38923">
        <ele>71.8</ele>
        <time>2020-06-15T13:19:49Z</time>
      </trkpt>
      <trkpt lat="49.56347" lon="-1.3893">
        <ele>71.9</ele>
        <time>2020-06-15T13:19:50Z</time>
      </trkpt>
      <trkpt lat="49.56344" lon="-1.38935">
        <ele>71.9</ele>
        <time>2020-06-15T13:19:51Z</time>
      </trkpt>
      <trkpt lat="49.56341" lon="-1.38942">
        <ele>71.9</ele>
        <time>2020-06-15T13:19:52Z</time>
      </trkpt>
      <trkpt lat="49.56339" lon="-1.38948">
        <ele>71.6</ele>
        <time>2020-06-15T13:19:53Z</time>
      </trkpt>
      <trkpt lat="49.56336" lon="-1.38955">
        <ele>71.7</ele>
        <time>2020-06-15T13:19:54Z</time>
      </trkpt>
      <trkpt lat="49.56333" lon="-1.3896">
        <ele>71.9</ele>
        <time>2020-06-15T13:19:55Z</time>
      </trkpt>
      <trkpt lat="49.5633" lon="-1.38965">
        <ele>72.1</ele>
        <time>2020-06-15T13:19:56Z</time>
      </trkpt>
      <trkpt lat="49.56327" lon="-1.38969">
        <ele>72.2</ele>
        <time>2020-06-15T13:19:57Z</time>
      </trkpt>
      <trkpt lat="49.56324" lon="-1.38974">
        <ele>72.4</ele>
        <time>2020-06-15T13:19:58Z</time>
      </trkpt>
      <trkpt lat="49.56321" lon="-1.38978">
        <ele>72.5</ele>
        <time>2020-06-15T13:19:59Z</time>
      </trkpt>
      <trkpt lat="49.56318" lon="-1.38982">
        <ele>72.7</ele>
        <time>2020-06-15T13:20:00Z</time>
      </trkpt>
      <trkpt lat="49.56314" lon="-1.38988">
        <ele>72.9</ele>
        <time>2020-06-15T13:20:01Z</time>
      </trkpt>
      <trkpt lat="49.56311" lon="-1.38992">
        <ele>73.1</ele>
        <time>2020-06-15T13:20:02Z</time>
      </trkpt>
      <trkpt lat="49.5631" lon="-1.38996">
        <ele>73.2</ele>
        <time>2020-06-15T13:20:03Z</time>
      </trkpt>
      <trkpt lat="49.56307" lon="-1.39003">
        <ele>73.5</ele>
        <time>2020-06-15T13:20:04Z</time>
      </trkpt>
      <trkpt lat="49.56305" lon="-1.39008">
        <ele>73.7</ele>
        <time>2020-06-15T13:20:05Z</time>
      </trkpt>
      <trkpt lat="49.56302" lon="-1.39013">
        <ele>73.9</ele>
        <time>2020-06-15T13:20:06Z</time>
      </trkpt>
      <trkpt lat="49.56299" lon="-1.3902">
        <ele>74.1</ele>
        <time>2020-06-15T13:20:07Z</time>
      </trkpt>
      <trkpt lat="49.56296" lon="-1.39025">
        <ele>74.4</ele>
        <time>2020-06-15T13:20:08Z</time>
      </trkpt>
      <trkpt lat="49.56294" lon="-1.39029">
        <ele>74.5</ele>
        <time>2020-06-15T13:20:09Z</time>
      </trkpt>
      <trkpt lat="49.56292" lon="-1.39032">
        <ele>74.7</ele>
        <time>2020-06-15T13:20:10Z</time>
      </trkpt>
      <trkpt lat="49.56289" lon="-1.3904">
        <ele>75</ele>
        <time>2020-06-15T13:20:11Z</time>
      </trkpt>
      <trkpt lat="49.56286" lon="-1.39044">
        <ele>75.2</ele>
        <time>2020-06-15T13:20:12Z</time>
      </trkpt>
      <trkpt lat="49.56285" lon="-1.39048">
        <ele>75.3</ele>
        <time>2020-06-15T13:20:13Z</time>
      </trkpt>
      <trkpt lat="49.56283" lon="-1.39051">
        <ele>75.5</ele>
        <time>2020-06-15T13:20:14Z</time>
      </trkpt>
      <trkpt lat="49.56281" lon="-1.39057">
        <ele>75.7</ele>
        <time>2020-06-15T13:20:15Z</time>
      </trkpt>
      <trkpt lat="49.56279" lon="-1.3906">
        <ele>75.9</ele>
        <time>2020-06-15T13:20:16Z</time>
      </trkpt>
      <trkpt lat="49.56276" lon="-1.39066">
        <ele>76.1</ele>
        <time>2020-06-15T13:20:17Z</time>
      </trkpt>
      <trkpt lat="49.56274" lon="-1.39071">
        <ele>76.3</ele>
        <time>2020-06-15T13:20:18Z</time>
      </trkpt>
      <trkpt lat="49.56271" lon="-1.39074">
        <ele>76.5</ele>
        <time>2020-06-15T13:20:19Z</time>
      </trkpt>
      <trkpt lat="49.56267" lon="-1.3908">
        <ele>76.8</ele>
        <time>2020-06-15T13:20:20Z</time>
      </trkpt>
      <trkpt lat="49.56265" lon="-1.39086">
        <ele>77.1</ele>
        <time>2020-06-15T13:20:21Z</time>
      </trkpt>
      <trkpt lat="49.56264" lon="-1.3909">
        <ele>77.2</ele>
        <time>2020-06-15T13:20:22Z</time>
      </trkpt>
      <trkpt lat="49.56262" lon="-1.39094">
        <ele>77.4</ele>
        <time>2020-06-15T13:20:23Z</time>
      </trkpt>
      <trkpt lat="49.56259" lon="-1.39101">
        <ele>77.6</ele>
        <time>2020-06-15T13:20:24Z</time>
      </trkpt>
      <trkpt lat="49.56257" lon="-1.39106">
        <ele>77.8</ele>
        <time>2020-06-15T13:20:25Z</time>
      </trkpt>
      <trkpt lat="49.56255" lon="-1.3911">
        <ele>77.9</ele>
        <time>2020-06-15T13:20:26Z</time>
      </trkpt>
      <trkpt lat="49.56253" lon="-1.39116">
        <ele>78.1</ele>
        <time>2020-06-15T13:20:27Z</time>
      </trkpt>
      <trkpt lat="49.5625" lon="-1.39122">
        <ele>78.3</ele>
        <time>2020-06-15T13:20:28Z</time>
      </trkpt>
      <trkpt lat="49.56247" lon="-1.39128">
        <ele>78.5</ele>
        <time>2020-06-15T13:20:29Z</time>
      </trkpt>
      <trkpt lat="49.56245" lon="-1.39133">
        <ele>78.6</ele>
        <time>2020-06-15T13:20:30Z</time>
      </trkpt>
      <trkpt lat="49.56242" lon="-1.39139">
        <ele>78.7</ele>
        <time>2020-06-15T13:20:31Z</time>
      </trkpt>
      <trkpt lat="49.5624" lon="-1.39145">
        <ele>78.8</ele>
        <time>2020-06-15T13:20:32Z</time>
      </trkpt>
      <trkpt lat="49.56237" lon="-1.39149">
        <ele>78.9</ele>
        <time>2020-06-15T13:20:33Z</time>
      </trkpt>
      <trkpt lat="49.56234" lon="-1.39155">
        <ele>78.9</ele>
        <time>2020-06-15T13:20:34Z</time>
      </trkpt>
      <trkpt lat="49.56231" lon="-1.3916">
        <ele>78.9</ele>
        <time>2020-06-15T13:20:35Z</time>
      </trkpt>
      <trkpt lat="49.56228" lon="-1.39166">
        <ele>79</ele>
        <time>2020-06-15T13:20:36Z</time>
      </trkpt>
      <trkpt lat="49.56224" lon="-1.39171">
        <ele>79</ele>
        <time>2020-06-15T13:20:37Z</time>
      </trkpt>
      <trkpt lat="49.56222" lon="-1.39178">
        <ele>79</ele>
        <time>2020-06-15T13:20:38Z</time>
      </trkpt>
      <trkpt lat="49.56219" lon="-1.39186">
        <ele>79</ele>
        <time>2020-06-15T13:20:39Z</time>
      </trkpt>
      <trkpt lat="49.56215" lon="-1.39194">
        <ele>78.9</ele>
        <time>2020-06-15T13:20:40Z</time>
      </trkpt>
      <trkpt lat="49.56211" lon="-1.39202">
        <ele>78.9</ele>
        <time>2020-06-15T13:20:41Z</time>
      </trkpt>
      <trkpt lat="49.56208" lon="-1.39208">
        <ele>78.8</ele>
        <time>2020-06-15T13:20:42Z</time>
      </trkpt>
      <trkpt lat="49.56204" lon="-1.39213">
        <ele>78.8</ele>
        <time>2020-06-15T13:20:43Z</time>
      </trkpt>
      <trkpt lat="49.562" lon="-1.3922">
        <ele>78.7</ele>
        <time>2020-06-15T13:20:44Z</time>
      </trkpt>
      <trkpt lat="49.56197" lon="-1.39225">
        <ele>78.7</ele>
        <time>2020-06-15T13:20:45Z</time>
      </trkpt>
      <trkpt lat="49.56194" lon="-1.3923">
        <ele>78.7</ele>
        <time>2020-06-15T13:20:46Z</time>
      </trkpt>
      <trkpt lat="49.56191" lon="-1.39237">
        <ele>78.7</ele>
        <time>2020-06-15T13:20:47Z</time>
      </trkpt>
      <trkpt lat="49.56189" lon="-1.39243">
        <ele>78.6</ele>
        <time>2020-06-15T13:20:48Z</time>
      </trkpt>
      <trkpt lat="49.56186" lon="-1.39249">
        <ele>78.6</ele>
        <time>2020-06-15T13:20:49Z</time>
      </trkpt>
      <trkpt lat="49.56183" lon="-1.39255">
        <ele>78.5</ele>
        <time>2020-06-15T13:20:50Z</time>
      </trkpt>
      <trkpt lat="49.56181" lon="-1.3926">
        <ele>78.5</ele>
        <time>2020-06-15T13:20:51Z</time>
      </trkpt>
      <trkpt lat="49.56178" lon="-1.39267">
        <ele>78.4</ele>
        <time>2020-06-15T13:20:52Z</time>
      </trkpt>
      <trkpt lat="49.56175" lon="-1.39272">
        <ele>78.3</ele>
        <time>2020-06-15T13:20:53Z</time>
      </trkpt>
      <trkpt lat="49.56172" lon="-1.39277">
        <ele>78.3</ele>
        <time>2020-06-15T13:20:54Z</time>
      </trkpt>
      <trkpt lat="49.56169" lon="-1.39282">
        <ele>78.2</ele>
        <time>2020-06-15T13:20:55Z</time>
      </trkpt>
      <trkpt lat="49.56165" lon="-1.39291">
        <ele>78.2</ele>
        <time>2020-06-15T13:20:56Z</time>
      </trkpt>
      <trkpt lat="49.56162" lon="-1.39297">
        <ele>78.1</ele>
        <time>2020-06-15T13:20:57Z</time>
      </trkpt>
      <trkpt lat="49.5616" lon="-1.39302">
        <ele>78.1</ele>
        <time>2020-06-15T13:20:58Z</time>
      </trkpt>
      <trkpt lat="49.56157" lon="-1.39308">
        <ele>78.1</ele>
        <time>2020-06-15T13:20:59Z</time>
      </trkpt>
      <trkpt lat="49.56154" lon="-1.39314">
        <ele>78.1</ele>
        <time>2020-06-15T13:21:00Z</time>
      </trkpt>
      <trkpt lat="49.56151" lon="-1.39321">
        <ele>78.2</ele>
        <time>2020-06-15T13:21:01Z</time>
      </trkpt>
      <trkpt lat="49.56149" lon="-1.39325">
        <ele>78.2</ele>
        <time>2020-06-15T13:21:02Z</time>
      </trkpt>
      <trkpt lat="49.56146" lon="-1.3933">
        <ele>78.3</ele>
        <time>2020-06-15T13:21:03Z</time>
      </trkpt>
      <trkpt lat="49.56144" lon="-1.39334">
        <ele>78.3</ele>
        <time>2020-06-15T13:21:04Z</time>
      </trkpt>
      <trkpt lat="49.56141" lon="-1.39337">
        <ele>78.4</ele>
        <time>2020-06-15T13:21:05Z</time>
      </trkpt>
      <trkpt lat="49.56138" lon="-1.39341">
        <ele>78.5</ele>
        <time>2020-06-15T13:21:06Z</time>
      </trkpt>
      <trkpt lat="49.56136" lon="-1.39343">
        <ele>78.6</ele>
        <time>2020-06-15T13:21:07Z</time>
      </trkpt>
      <trkpt lat="49.56133" lon="-1.39345">
        <ele>78.7</ele>
        <time>2020-06-15T13:21:08Z</time>
      </trkpt>
      <trkpt lat="49.5613" lon="-1.39349">
        <ele>78.8</ele>
        <time>2020-06-15T13:21:09Z</time>
      </trkpt>
      <trkpt lat="49.56128" lon="-1.39354">
        <ele>79</ele>
        <time>2020-06-15T13:21:10Z</time>
      </trkpt>
      <trkpt lat="49.56126" lon="-1.39359">
        <ele>79.1</ele>
        <time>2020-06-15T13:21:11Z</time>
      </trkpt>
      <trkpt lat="49.56124" lon="-1.39366">
        <ele>79.3</ele>
        <time>2020-06-15T13:21:12Z</time>
      </trkpt>
      <trkpt lat="49.56123" lon="-1.39371">
        <ele>79.5</ele>
        <time>2020-06-15T13:21:13Z</time>
      </trkpt>
      <trkpt lat="49.5612" lon="-1.39376">
        <ele>79.7</ele>
        <time>2020-06-15T13:21:14Z</time>
      </trkpt>
      <trkpt lat="49.56118" lon="-1.3938">
        <ele>79.8</ele>
        <time>2020-06-15T13:21:15Z</time>
      </trkpt>
      <trkpt lat="49.56116" lon="-1.39386">
        <ele>80</ele>
        <time>2020-06-15T13:21:16Z</time>
      </trkpt>
      <trkpt lat="49.56114" lon="-1.39392">
        <ele>80.3</ele>
        <time>2020-06-15T13:21:17Z</time>
      </trkpt>
      <trkpt lat="49.56113" lon="-1.39395">
        <ele>80.3</ele>
        <time>2020-06-15T13:21:18Z</time>
      </trkpt>
      <trkpt lat="49.56111" lon="-1.39398">
        <ele>80.5</ele>
        <time>2020-06-15T13:21:19Z</time>
      </trkpt>
      <trkpt lat="49.56108" lon="-1.39405">
        <ele>80.8</ele>
        <time>2020-06-15T13:21:20Z</time>
      </trkpt>
      <trkpt lat="49.56105" lon="-1.39409">
        <ele>81</ele>
        <time>2020-06-15T13:21:21Z</time>
      </trkpt>
      <trkpt lat="49.56102" lon="-1.39413">
        <ele>81.3</ele>
        <time>2020-06-15T13:21:22Z</time>
      </trkpt>
      <trkpt lat="49.56099" lon="-1.3942">
        <ele>81.6</ele>
        <time>2020-06-15T13:21:23Z</time>
      </trkpt>
      <trkpt lat="49.56096" lon="-1.39425">
        <ele>81.8</ele>
        <time>2020-06-15T13:21:24Z</time>
      </trkpt>
      <trkpt lat="49.56094" lon="-1.39431">
        <ele>82.1</ele>
        <time>2020-06-15T13:21:25Z</time>
      </trkpt>
      <trkpt lat="49.56093" lon="-1.39436">
        <ele>82.2</ele>
        <time>2020-06-15T13:21:26Z</time>
      </trkpt>
      <trkpt lat="49.56091" lon="-1.3944">
        <ele>82.4</ele>
        <time>2020-06-15T13:21:27Z</time>
      </trkpt>
      <trkpt lat="49.56087" lon="-1.39446">
        <ele>82.7</ele>
        <time>2020-06-15T13:21:28Z</time>
      </trkpt>
      <trkpt lat="49.56084" lon="-1.39451">
        <ele>82.9</ele>
        <time>2020-06-15T13:21:29Z</time>
      </trkpt>
      <trkpt lat="49.56083" lon="-1.39453">
        <ele>83</ele>
        <time>2020-06-15T13:21:30Z</time>
      </trkpt>
      <trkpt lat="49.56081" lon="-1.3946">
        <ele>83.2</ele>
        <time>2020-06-15T13:21:31Z</time>
      </trkpt>
      <trkpt lat="49.56077" lon="-1.39466">
        <ele>83.3</ele>
        <time>2020-06-15T13:21:32Z</time>
      </trkpt>
      <trkpt lat="49.56073" lon="-1.3947">
        <ele>83.4</ele>
        <time>2020-06-15T13:21:33Z</time>
      </trkpt>
      <trkpt lat="49.56071" lon="-1.39477">
        <ele>83.9</ele>
        <time>2020-06-15T13:21:34Z</time>
      </trkpt>
      <trkpt lat="49.56068" lon="-1.39482">
        <ele>84.1</ele>
        <time>2020-06-15T13:21:35Z</time>
      </trkpt>
      <trkpt lat="49.56065" lon="-1.39488">
        <ele>84.4</ele>
        <time>2020-06-15T13:21:36Z</time>
      </trkpt>
      <trkpt lat="49.56063" lon="-1.39492">
        <ele>84.6</ele>
        <time>2020-06-15T13:21:37Z</time>
      </trkpt>
      <trkpt lat="49.5606" lon="-1.39496">
        <ele>84.8</ele>
        <time>2020-06-15T13:21:38Z</time>
      </trkpt>
      <trkpt lat="49.56057" lon="-1.39502">
        <ele>85.1</ele>
        <time>2020-06-15T13:21:39Z</time>
      </trkpt>
      <trkpt lat="49.56055" lon="-1.39506">
        <ele>85.3</ele>
        <time>2020-06-15T13:21:40Z</time>
      </trkpt>
      <trkpt lat="49.56053" lon="-1.39511">
        <ele>85.6</ele>
        <time>2020-06-15T13:21:41Z</time>
      </trkpt>
      <trkpt lat="49.56051" lon="-1.39517">
        <ele>85.8</ele>
        <time>2020-06-15T13:21:42Z</time>
      </trkpt>
      <trkpt lat="49.56048" lon="-1.39523">
        <ele>86.1</ele>
        <time>2020-06-15T13:21:43Z</time>
      </trkpt>
      <trkpt lat="49.56045" lon="-1.3953">
        <ele>86.4</ele>
        <time>2020-06-15T13:21:44Z</time>
      </trkpt>
      <trkpt lat="49.56043" lon="-1.39536">
        <ele>86.6</ele>
        <time>2020-06-15T13:21:45Z</time>
      </trkpt>
      <trkpt lat="49.56041" lon="-1.39541">
        <ele>86.8</ele>
        <time>2020-06-15T13:21:46Z</time>
      </trkpt>
      <trkpt lat="49.56038" lon="-1.39547">
        <ele>87</ele>
        <time>2020-06-15T13:21:47Z</time>
      </trkpt>
      <trkpt lat="49.56035" lon="-1.39553">
        <ele>87.2</ele>
        <time>2020-06-15T13:21:48Z</time>
      </trkpt>
      <trkpt lat="49.56033" lon="-1.39558">
        <ele>87.3</ele>
        <time>2020-06-15T13:21:49Z</time>
      </trkpt>
      <trkpt lat="49.56029" lon="-1.39565">
        <ele>87.5</ele>
        <time>2020-06-15T13:21:50Z</time>
      </trkpt>
      <trkpt lat="49.56026" lon="-1.39571">
        <ele>87.7</ele>
        <time>2020-06-15T13:21:51Z</time>
      </trkpt>
      <trkpt lat="49.56022" lon="-1.39578">
        <ele>87.8</ele>
        <time>2020-06-15T13:21:52Z</time>
      </trkpt>
      <trkpt lat="49.56018" lon="-1.39585">
        <ele>88</ele>
        <time>2020-06-15T13:21:53Z</time>
      </trkpt>
      <trkpt lat="49.56014" lon="-1.39593">
        <ele>88.2</ele>
        <time>2020-06-15T13:21:54Z</time>
      </trkpt>
      <trkpt lat="49.5601" lon="-1.396">
        <ele>88.4</ele>
        <time>2020-06-15T13:21:55Z</time>
      </trkpt>
      <trkpt lat="49.56007" lon="-1.39605">
        <ele>88.5</ele>
        <time>2020-06-15T13:21:56Z</time>
      </trkpt>
      <trkpt lat="49.56004" lon="-1.39611">
        <ele>88.6</ele>
        <time>2020-06-15T13:21:57Z</time>
      </trkpt>
      <trkpt lat="49.56" lon="-1.39618">
        <ele>88.8</ele>
        <time>2020-06-15T13:21:58Z</time>
      </trkpt>
      <trkpt lat="49.55995" lon="-1.39626">
        <ele>88.9</ele>
        <time>2020-06-15T13:21:59Z</time>
      </trkpt>
      <trkpt lat="49.55991" lon="-1.39634">
        <ele>89</ele>
        <time>2020-06-15T13:22:00Z</time>
      </trkpt>
      <trkpt lat="49.55988" lon="-1.39641">
        <ele>89.1</ele>
        <time>2020-06-15T13:22:01Z</time>
      </trkpt>
      <trkpt lat="49.55985" lon="-1.39648">
        <ele>89.2</ele>
        <time>2020-06-15T13:22:02Z</time>
      </trkpt>
      <trkpt lat="49.55981" lon="-1.39656">
        <ele>89.2</ele>
        <time>2020-06-15T13:22:03Z</time>
      </trkpt>
      <trkpt lat="49.55977" lon="-1.39665">
        <ele>89.4</ele>
        <time>2020-06-15T13:22:04Z</time>
      </trkpt>
      <trkpt lat="49.55974" lon="-1.39671">
        <ele>89.4</ele>
        <time>2020-06-15T13:22:05Z</time>
      </trkpt>
      <trkpt lat="49.55971" lon="-1.39678">
        <ele>89.5</ele>
        <time>2020-06-15T13:22:06Z</time>
      </trkpt>
      <trkpt lat="49.55967" lon="-1.39686">
        <ele>89.6</ele>
        <time>2020-06-15T13:22:07Z</time>
      </trkpt>
      <trkpt lat="49.55962" lon="-1.39694">
        <ele>89.6</ele>
        <time>2020-06-15T13:22:08Z</time>
      </trkpt>
      <trkpt lat="49.55958" lon="-1.39703">
        <ele>89.6</ele>
        <time>2020-06-15T13:22:09Z</time>
      </trkpt>
      <trkpt lat="49.55954" lon="-1.3971">
        <ele>89.6</ele>
        <time>2020-06-15T13:22:10Z</time>
      </trkpt>
      <trkpt lat="49.5595" lon="-1.39718">
        <ele>89.5</ele>
        <time>2020-06-15T13:22:11Z</time>
      </trkpt>
      <trkpt lat="49.55946" lon="-1.39726">
        <ele>89.4</ele>
        <time>2020-06-15T13:22:12Z</time>
      </trkpt>
      <trkpt lat="49.55942" lon="-1.39734">
        <ele>89.4</ele>
        <time>2020-06-15T13:22:13Z</time>
      </trkpt>
      <trkpt lat="49.55938" lon="-1.39742">
        <ele>89.3</ele>
        <time>2020-06-15T13:22:14Z</time>
      </trkpt>
      <trkpt lat="49.55933" lon="-1.3975">
        <ele>89.3</ele>
        <time>2020-06-15T13:22:15Z</time>
      </trkpt>
      <trkpt lat="49.55928" lon="-1.3976">
        <ele>89.3</ele>
        <time>2020-06-15T13:22:16Z</time>
      </trkpt>
      <trkpt lat="49.55924" lon="-1.3977">
        <ele>89.2</ele>
        <time>2020-06-15T13:22:17Z</time>
      </trkpt>
      <trkpt lat="49.55919" lon="-1.39779">
        <ele>89.2</ele>
        <time>2020-06-15T13:22:18Z</time>
      </trkpt>
      <trkpt lat="49.55915" lon="-1.39789">
        <ele>89.1</ele>
        <time>2020-06-15T13:22:19Z</time>
      </trkpt>
      <trkpt lat="49.5591" lon="-1.39798">
        <ele>89</ele>
        <time>2020-06-15T13:22:20Z</time>
      </trkpt>
      <trkpt lat="49.55906" lon="-1.39806">
        <ele>89</ele>
        <time>2020-06-15T13:22:21Z</time>
      </trkpt>
      <trkpt lat="49.55902" lon="-1.39814">
        <ele>88.9</ele>
        <time>2020-06-15T13:22:22Z</time>
      </trkpt>
      <trkpt lat="49.55897" lon="-1.39824">
        <ele>88.8</ele>
        <time>2020-06-15T13:22:23Z</time>
      </trkpt>
      <trkpt lat="49.55892" lon="-1.39833">
        <ele>88.7</ele>
        <time>2020-06-15T13:22:24Z</time>
      </trkpt>
      <trkpt lat="49.55887" lon="-1.39842">
        <ele>88.7</ele>
        <time>2020-06-15T13:22:25Z</time>
      </trkpt>
      <trkpt lat="49.55881" lon="-1.39851">
        <ele>88.7</ele>
        <time>2020-06-15T13:22:26Z</time>
      </trkpt>
      <trkpt lat="49.55876" lon="-1.39861">
        <ele>88.7</ele>
        <time>2020-06-15T13:22:27Z</time>
      </trkpt>
      <trkpt lat="49.55872" lon="-1.3987">
        <ele>88.7</ele>
        <time>2020-06-15T13:22:28Z</time>
      </trkpt>
      <trkpt lat="49.55867" lon="-1.39879">
        <ele>88.7</ele>
        <time>2020-06-15T13:22:29Z</time>
      </trkpt>
      <trkpt lat="49.55862" lon="-1.39888">
        <ele>88.8</ele>
        <time>2020-06-15T13:22:30Z</time>
      </trkpt>
      <trkpt lat="49.55857" lon="-1.39898">
        <ele>88.9</ele>
        <time>2020-06-15T13:22:31Z</time>
      </trkpt>
      <trkpt lat="49.55853" lon="-1.39908">
        <ele>88.9</ele>
        <time>2020-06-15T13:22:32Z</time>
      </trkpt>
      <trkpt lat="49.55848" lon="-1.39918">
        <ele>88.7</ele>
        <time>2020-06-15T13:22:33Z</time>
      </trkpt>
      <trkpt lat="49.55843" lon="-1.39928">
        <ele>88.5</ele>
        <time>2020-06-15T13:22:34Z</time>
      </trkpt>
      <trkpt lat="49.55839" lon="-1.39937">
        <ele>88.4</ele>
        <time>2020-06-15T13:22:35Z</time>
      </trkpt>
      <trkpt lat="49.55835" lon="-1.39946">
        <ele>88.3</ele>
        <time>2020-06-15T13:22:36Z</time>
      </trkpt>
      <trkpt lat="49.5583" lon="-1.39955">
        <ele>88.2</ele>
        <time>2020-06-15T13:22:37Z</time>
      </trkpt>
      <trkpt lat="49.55824" lon="-1.39963">
        <ele>88.2</ele>
        <time>2020-06-15T13:22:38Z</time>
      </trkpt>
      <trkpt lat="49.55819" lon="-1.39971">
        <ele>88.2</ele>
        <time>2020-06-15T13:22:39Z</time>
      </trkpt>
      <trkpt lat="49.55814" lon="-1.39981">
        <ele>88.3</ele>
        <time>2020-06-15T13:22:40Z</time>
      </trkpt>
      <trkpt lat="49.5581" lon="-1.39989">
        <ele>88.3</ele>
        <time>2020-06-15T13:22:41Z</time>
      </trkpt>
      <trkpt lat="49.55806" lon="-1.39998">
        <ele>88.3</ele>
        <time>2020-06-15T13:22:42Z</time>
      </trkpt>
      <trkpt lat="49.55801" lon="-1.40006">
        <ele>88.3</ele>
        <time>2020-06-15T13:22:43Z</time>
      </trkpt>
      <trkpt lat="49.55797" lon="-1.40015">
        <ele>88.3</ele>
        <time>2020-06-15T13:22:44Z</time>
      </trkpt>
      <trkpt lat="49.55792" lon="-1.40024">
        <ele>88.3</ele>
        <time>2020-06-15T13:22:45Z</time>
      </trkpt>
      <trkpt lat="49.55788" lon="-1.40033">
        <ele>88.4</ele>
        <time>2020-06-15T13:22:46Z</time>
      </trkpt>
      <trkpt lat="49.55784" lon="-1.40041">
        <ele>88.5</ele>
        <time>2020-06-15T13:22:47Z</time>
      </trkpt>
      <trkpt lat="49.5578" lon="-1.4005">
        <ele>88.7</ele>
        <time>2020-06-15T13:22:48Z</time>
      </trkpt>
      <trkpt lat="49.55776" lon="-1.40058">
        <ele>88.8</ele>
        <time>2020-06-15T13:22:49Z</time>
      </trkpt>
      <trkpt lat="49.55771" lon="-1.40067">
        <ele>88.9</ele>
        <time>2020-06-15T13:22:50Z</time>
      </trkpt>
      <trkpt lat="49.55767" lon="-1.40074">
        <ele>89</ele>
        <time>2020-06-15T13:22:51Z</time>
      </trkpt>
      <trkpt lat="49.55763" lon="-1.40081">
        <ele>89.1</ele>
        <time>2020-06-15T13:22:52Z</time>
      </trkpt>
      <trkpt lat="49.55759" lon="-1.40089">
        <ele>89.2</ele>
        <time>2020-06-15T13:22:53Z</time>
      </trkpt>
      <trkpt lat="49.55754" lon="-1.40096">
        <ele>89.3</ele>
        <time>2020-06-15T13:22:54Z</time>
      </trkpt>
      <trkpt lat="49.5575" lon="-1.40104">
        <ele>89.3</ele>
        <time>2020-06-15T13:22:55Z</time>
      </trkpt>
      <trkpt lat="49.55745" lon="-1.40111">
        <ele>89.4</ele>
        <time>2020-06-15T13:22:56Z</time>
      </trkpt>
      <trkpt lat="49.55741" lon="-1.40119">
        <ele>89.5</ele>
        <time>2020-06-15T13:22:57Z</time>
      </trkpt>
      <trkpt lat="49.55737" lon="-1.40125">
        <ele>89.5</ele>
        <time>2020-06-15T13:22:58Z</time>
      </trkpt>
      <trkpt lat="49.55733" lon="-1.40132">
        <ele>89.6</ele>
        <time>2020-06-15T13:22:59Z</time>
      </trkpt>
      <trkpt lat="49.55728" lon="-1.4014">
        <ele>89.6</ele>
        <time>2020-06-15T13:23:00Z</time>
      </trkpt>
      <trkpt lat="49.55724" lon="-1.40148">
        <ele>89.5</ele>
        <time>2020-06-15T13:23:01Z</time>
      </trkpt>
      <trkpt lat="49.55718" lon="-1.40154">
        <ele>89.5</ele>
        <time>2020-06-15T13:23:02Z</time>
      </trkpt>
      <trkpt lat="49.55714" lon="-1.40161">
        <ele>89.4</ele>
        <time>2020-06-15T13:23:03Z</time>
      </trkpt>
      <trkpt lat="49.55709" lon="-1.40168">
        <ele>89.4</ele>
        <time>2020-06-15T13:23:04Z</time>
      </trkpt>
      <trkpt lat="49.55705" lon="-1.40176">
        <ele>89.3</ele>
        <time>2020-06-15T13:23:05Z</time>
      </trkpt>
      <trkpt lat="49.557" lon="-1.40186">
        <ele>89.3</ele>
        <time>2020-06-15T13:23:06Z</time>
      </trkpt>
      <trkpt lat="49.55696" lon="-1.40194">
        <ele>89.2</ele>
        <time>2020-06-15T13:23:07Z</time>
      </trkpt>
      <trkpt lat="49.55691" lon="-1.40202">
        <ele>89.1</ele>
        <time>2020-06-15T13:23:08Z</time>
      </trkpt>
      <trkpt lat="49.55686" lon="-1.4021">
        <ele>89.1</ele>
        <time>2020-06-15T13:23:09Z</time>
      </trkpt>
      <trkpt lat="49.55681" lon="-1.40218">
        <ele>89.1</ele>
        <time>2020-06-15T13:23:10Z</time>
      </trkpt>
      <trkpt lat="49.55677" lon="-1.40226">
        <ele>89.1</ele>
        <time>2020-06-15T13:23:11Z</time>
      </trkpt>
      <trkpt lat="49.55673" lon="-1.40236">
        <ele>89.1</ele>
        <time>2020-06-15T13:23:12Z</time>
      </trkpt>
      <trkpt lat="49.55668" lon="-1.40245">
        <ele>89.1</ele>
        <time>2020-06-15T13:23:13Z</time>
      </trkpt>
      <trkpt lat="49.55663" lon="-1.40255">
        <ele>89.1</ele>
        <time>2020-06-15T13:23:14Z</time>
      </trkpt>
      <trkpt lat="49.55659" lon="-1.40264">
        <ele>89</ele>
        <time>2020-06-15T13:23:15Z</time>
      </trkpt>
      <trkpt lat="49.55654" lon="-1.40273">
        <ele>88.9</ele>
        <time>2020-06-15T13:23:16Z</time>
      </trkpt>
      <trkpt lat="49.55649" lon="-1.40281">
        <ele>88.9</ele>
        <time>2020-06-15T13:23:17Z</time>
      </trkpt>
      <trkpt lat="49.55644" lon="-1.40291">
        <ele>88.9</ele>
        <time>2020-06-15T13:23:18Z</time>
      </trkpt>
      <trkpt lat="49.5564" lon="-1.403">
        <ele>88.8</ele>
        <time>2020-06-15T13:23:19Z</time>
      </trkpt>
      <trkpt lat="49.55635" lon="-1.40309">
        <ele>88.8</ele>
        <time>2020-06-15T13:23:20Z</time>
      </trkpt>
      <trkpt lat="49.5563" lon="-1.40318">
        <ele>88.8</ele>
        <time>2020-06-15T13:23:21Z</time>
      </trkpt>
      <trkpt lat="49.55625" lon="-1.40327">
        <ele>88.7</ele>
        <time>2020-06-15T13:23:22Z</time>
      </trkpt>
      <trkpt lat="49.55621" lon="-1.40338">
        <ele>88.6</ele>
        <time>2020-06-15T13:23:23Z</time>
      </trkpt>
      <trkpt lat="49.55616" lon="-1.40348">
        <ele>88.5</ele>
        <time>2020-06-15T13:23:24Z</time>
      </trkpt>
      <trkpt lat="49.55612" lon="-1.40358">
        <ele>88.4</ele>
        <time>2020-06-15T13:23:25Z</time>
      </trkpt>
      <trkpt lat="49.55607" lon="-1.40367">
        <ele>88.3</ele>
        <time>2020-06-15T13:23:26Z</time>
      </trkpt>
      <trkpt lat="49.55603" lon="-1.40377">
        <ele>88.2</ele>
        <time>2020-06-15T13:23:27Z</time>
      </trkpt>
      <trkpt lat="49.55599" lon="-1.40387">
        <ele>88.1</ele>
        <time>2020-06-15T13:23:28Z</time>
      </trkpt>
      <trkpt lat="49.55595" lon="-1.40396">
        <ele>88</ele>
        <time>2020-06-15T13:23:29Z</time>
      </trkpt>
      <trkpt lat="49.5559" lon="-1.40404">
        <ele>88</ele>
        <time>2020-06-15T13:23:30Z</time>
      </trkpt>
      <trkpt lat="49.55585" lon="-1.40413">
        <ele>87.9</ele>
        <time>2020-06-15T13:23:31Z</time>
      </trkpt>
      <trkpt lat="49.55581" lon="-1.40422">
        <ele>87.9</ele>
        <time>2020-06-15T13:23:32Z</time>
      </trkpt>
      <trkpt lat="49.55578" lon="-1.40432">
        <ele>87.9</ele>
        <time>2020-06-15T13:23:33Z</time>
      </trkpt>
      <trkpt lat="49.55573" lon="-1.40439">
        <ele>87.9</ele>
        <time>2020-06-15T13:23:34Z</time>
      </trkpt>
      <trkpt lat="49.55569" lon="-1.40445">
        <ele>87.9</ele>
        <time>2020-06-15T13:23:35Z</time>
      </trkpt>
      <trkpt lat="49.55566" lon="-1.40453">
        <ele>87.9</ele>
        <time>2020-06-15T13:23:36Z</time>
      </trkpt>
      <trkpt lat="49.55561" lon="-1.40458">
        <ele>87.9</ele>
        <time>2020-06-15T13:23:37Z</time>
      </trkpt>
      <trkpt lat="49.55558" lon="-1.40465">
        <ele>87.8</ele>
        <time>2020-06-15T13:23:38Z</time>
      </trkpt>
      <trkpt lat="49.55554" lon="-1.4047">
        <ele>87.7</ele>
        <time>2020-06-15T13:23:39Z</time>
      </trkpt>
      <trkpt lat="49.55549" lon="-1.40474">
        <ele>87.5</ele>
        <time>2020-06-15T13:23:40Z</time>
      </trkpt>
      <trkpt lat="49.55543" lon="-1.40475">
        <ele>87.4</ele>
        <time>2020-06-15T13:23:41Z</time>
      </trkpt>
      <trkpt lat="49.55536" lon="-1.40471">
        <ele>87.2</ele>
        <time>2020-06-15T13:23:42Z</time>
      </trkpt>
      <trkpt lat="49.5553" lon="-1.40468">
        <ele>86.9</ele>
        <time>2020-06-15T13:23:43Z</time>
      </trkpt>
      <trkpt lat="49.55524" lon="-1.40466">
        <ele>86.6</ele>
        <time>2020-06-15T13:23:44Z</time>
      </trkpt>
      <trkpt lat="49.55518" lon="-1.40464">
        <ele>86.3</ele>
        <time>2020-06-15T13:23:45Z</time>
      </trkpt>
      <trkpt lat="49.55511" lon="-1.40462">
        <ele>86</ele>
        <time>2020-06-15T13:23:46Z</time>
      </trkpt>
      <trkpt lat="49.55505" lon="-1.40461">
        <ele>85.8</ele>
        <time>2020-06-15T13:23:47Z</time>
      </trkpt>
      <trkpt lat="49.55498" lon="-1.40459">
        <ele>85.6</ele>
        <time>2020-06-15T13:23:48Z</time>
      </trkpt>
      <trkpt lat="49.55491" lon="-1.40457">
        <ele>85.5</ele>
        <time>2020-06-15T13:23:49Z</time>
      </trkpt>
      <trkpt lat="49.55484" lon="-1.40456">
        <ele>85.3</ele>
        <time>2020-06-15T13:23:50Z</time>
      </trkpt>
      <trkpt lat="49.55477" lon="-1.40454">
        <ele>85.1</ele>
        <time>2020-06-15T13:23:51Z</time>
      </trkpt>
      <trkpt lat="49.5547" lon="-1.40452">
        <ele>84.9</ele>
        <time>2020-06-15T13:23:52Z</time>
      </trkpt>
      <trkpt lat="49.55464" lon="-1.40451">
        <ele>84.7</ele>
        <time>2020-06-15T13:23:53Z</time>
      </trkpt>
      <trkpt lat="49.55458" lon="-1.40449">
        <ele>84.6</ele>
        <time>2020-06-15T13:23:54Z</time>
      </trkpt>
      <trkpt lat="49.55451" lon="-1.40448">
        <ele>84.4</ele>
        <time>2020-06-15T13:23:55Z</time>
      </trkpt>
      <trkpt lat="49.55445" lon="-1.40446">
        <ele>84.3</ele>
        <time>2020-06-15T13:23:56Z</time>
      </trkpt>
      <trkpt lat="49.5544" lon="-1.40443">
        <ele>84.1</ele>
        <time>2020-06-15T13:23:57Z</time>
      </trkpt>
      <trkpt lat="49.55433" lon="-1.40441">
        <ele>84</ele>
        <time>2020-06-15T13:23:58Z</time>
      </trkpt>
      <trkpt lat="49.55425" lon="-1.40437">
        <ele>83.8</ele>
        <time>2020-06-15T13:23:59Z</time>
      </trkpt>
      <trkpt lat="49.55419" lon="-1.40436">
        <ele>83.6</ele>
        <time>2020-06-15T13:24:00Z</time>
      </trkpt>
      <trkpt lat="49.55413" lon="-1.40436">
        <ele>83.5</ele>
        <time>2020-06-15T13:24:01Z</time>
      </trkpt>
      <trkpt lat="49.55408" lon="-1.40436">
        <ele>83.4</ele>
        <time>2020-06-15T13:24:02Z</time>
      </trkpt>
      <trkpt lat="49.55402" lon="-1.40434">
        <ele>83.3</ele>
        <time>2020-06-15T13:24:03Z</time>
      </trkpt>
      <trkpt lat="49.55395" lon="-1.40434">
        <ele>83.2</ele>
        <time>2020-06-15T13:24:04Z</time>
      </trkpt>
      <trkpt lat="49.55388" lon="-1.40434">
        <ele>83.1</ele>
        <time>2020-06-15T13:24:05Z</time>
      </trkpt>
      <trkpt lat="49.55381" lon="-1.40433">
        <ele>83</ele>
        <time>2020-06-15T13:24:06Z</time>
      </trkpt>
      <trkpt lat="49.55375" lon="-1.40433">
        <ele>82.9</ele>
        <time>2020-06-15T13:24:07Z</time>
      </trkpt>
      <trkpt lat="49.55368" lon="-1.40433">
        <ele>82.7</ele>
        <time>2020-06-15T13:24:08Z</time>
      </trkpt>
      <trkpt lat="49.55362" lon="-1.40431">
        <ele>82.6</ele>
        <time>2020-06-15T13:24:09Z</time>
      </trkpt>
      <trkpt lat="49.55355" lon="-1.4043">
        <ele>82.5</ele>
        <time>2020-06-15T13:24:10Z</time>
      </trkpt>
      <trkpt lat="49.55349" lon="-1.40427">
        <ele>82.4</ele>
        <time>2020-06-15T13:24:11Z</time>
      </trkpt>
      <trkpt lat="49.55344" lon="-1.40425">
        <ele>82.3</ele>
        <time>2020-06-15T13:24:12Z</time>
      </trkpt>
      <trkpt lat="49.55339" lon="-1.40423">
        <ele>82.3</ele>
        <time>2020-06-15T13:24:13Z</time>
      </trkpt>
      <trkpt lat="49.55336" lon="-1.40422">
        <ele>82.2</ele>
        <time>2020-06-15T13:24:14Z</time>
      </trkpt>
      <trkpt lat="49.55332" lon="-1.40421">
        <ele>82.1</ele>
        <time>2020-06-15T13:24:15Z</time>
      </trkpt>
      <trkpt lat="49.55327" lon="-1.4042">
        <ele>82</ele>
        <time>2020-06-15T13:24:16Z</time>
      </trkpt>
      <trkpt lat="49.55322" lon="-1.40418">
        <ele>81.9</ele>
        <time>2020-06-15T13:24:17Z</time>
      </trkpt>
      <trkpt lat="49.55317" lon="-1.40417">
        <ele>81.7</ele>
        <time>2020-06-15T13:24:18Z</time>
      </trkpt>
      <trkpt lat="49.55311" lon="-1.40417">
        <ele>81.6</ele>
        <time>2020-06-15T13:24:19Z</time>
      </trkpt>
      <trkpt lat="49.55305" lon="-1.40417">
        <ele>81.4</ele>
        <time>2020-06-15T13:24:20Z</time>
      </trkpt>
      <trkpt lat="49.55298" lon="-1.40415">
        <ele>81.3</ele>
        <time>2020-06-15T13:24:21Z</time>
      </trkpt>
      <trkpt lat="49.55291" lon="-1.40415">
        <ele>81.2</ele>
        <time>2020-06-15T13:24:22Z</time>
      </trkpt>
      <trkpt lat="49.55285" lon="-1.40415">
        <ele>81</ele>
        <time>2020-06-15T13:24:23Z</time>
      </trkpt>
      <trkpt lat="49.55278" lon="-1.40414">
        <ele>80.9</ele>
        <time>2020-06-15T13:24:24Z</time>
      </trkpt>
      <trkpt lat="49.55271" lon="-1.40412">
        <ele>80.7</ele>
        <time>2020-06-15T13:24:25Z</time>
      </trkpt>
      <trkpt lat="49.55264" lon="-1.40412">
        <ele>80.6</ele>
        <time>2020-06-15T13:24:26Z</time>
      </trkpt>
      <trkpt lat="49.55256" lon="-1.40411">
        <ele>80.4</ele>
        <time>2020-06-15T13:24:27Z</time>
      </trkpt>
      <trkpt lat="49.55249" lon="-1.4041">
        <ele>80.2</ele>
        <time>2020-06-15T13:24:28Z</time>
      </trkpt>
      <trkpt lat="49.55241" lon="-1.40409">
        <ele>80.1</ele>
        <time>2020-06-15T13:24:29Z</time>
      </trkpt>
      <trkpt lat="49.55233" lon="-1.40408">
        <ele>79.9</ele>
        <time>2020-06-15T13:24:30Z</time>
      </trkpt>
      <trkpt lat="49.55225" lon="-1.40406">
        <ele>79.8</ele>
        <time>2020-06-15T13:24:31Z</time>
      </trkpt>
      <trkpt lat="49.55218" lon="-1.40405">
        <ele>79.7</ele>
        <time>2020-06-15T13:24:32Z</time>
      </trkpt>
      <trkpt lat="49.55211" lon="-1.40404">
        <ele>79.6</ele>
        <time>2020-06-15T13:24:33Z</time>
      </trkpt>
      <trkpt lat="49.55203" lon="-1.40403">
        <ele>79.5</ele>
        <time>2020-06-15T13:24:34Z</time>
      </trkpt>
      <trkpt lat="49.55196" lon="-1.40402">
        <ele>79.3</ele>
        <time>2020-06-15T13:24:35Z</time>
      </trkpt>
      <trkpt lat="49.55189" lon="-1.404">
        <ele>79.2</ele>
        <time>2020-06-15T13:24:36Z</time>
      </trkpt>
      <trkpt lat="49.55182" lon="-1.40399">
        <ele>79.1</ele>
        <time>2020-06-15T13:24:37Z</time>
      </trkpt>
      <trkpt lat="49.55176" lon="-1.40398">
        <ele>79</ele>
        <time>2020-06-15T13:24:38Z</time>
      </trkpt>
      <trkpt lat="49.55169" lon="-1.40396">
        <ele>78.9</ele>
        <time>2020-06-15T13:24:39Z</time>
      </trkpt>
      <trkpt lat="49.55162" lon="-1.40395">
        <ele>78.7</ele>
        <time>2020-06-15T13:24:40Z</time>
      </trkpt>
      <trkpt lat="49.55155" lon="-1.40393">
        <ele>78.5</ele>
        <time>2020-06-15T13:24:41Z</time>
      </trkpt>
      <trkpt lat="49.55148" lon="-1.40391">
        <ele>78.4</ele>
        <time>2020-06-15T13:24:42Z</time>
      </trkpt>
      <trkpt lat="49.5514" lon="-1.40389">
        <ele>78.2</ele>
        <time>2020-06-15T13:24:43Z</time>
      </trkpt>
      <trkpt lat="49.55133" lon="-1.40388">
        <ele>78</ele>
        <time>2020-06-15T13:24:44Z</time>
      </trkpt>
      <trkpt lat="49.55125" lon="-1.40386">
        <ele>77.7</ele>
        <time>2020-06-15T13:24:45Z</time>
      </trkpt>
      <trkpt lat="49.55117" lon="-1.40386">
        <ele>77.5</ele>
        <time>2020-06-15T13:24:46Z</time>
      </trkpt>
      <trkpt lat="49.5511" lon="-1.40386">
        <ele>77.3</ele>
        <time>2020-06-15T13:24:47Z</time>
      </trkpt>
      <trkpt lat="49.55102" lon="-1.40387">
        <ele>77.1</ele>
        <time>2020-06-15T13:24:48Z</time>
      </trkpt>
      <trkpt lat="49.55094" lon="-1.40386">
        <ele>76.9</ele>
        <time>2020-06-15T13:24:49Z</time>
      </trkpt>
      <trkpt lat="49.55086" lon="-1.40386">
        <ele>76.7</ele>
        <time>2020-06-15T13:24:50Z</time>
      </trkpt>
      <trkpt lat="49.55078" lon="-1.40386">
        <ele>76.6</ele>
        <time>2020-06-15T13:24:51Z</time>
      </trkpt>
      <trkpt lat="49.55069" lon="-1.40387">
        <ele>76.5</ele>
        <time>2020-06-15T13:24:52Z</time>
      </trkpt>
      <trkpt lat="49.55061" lon="-1.40387">
        <ele>76.4</ele>
        <time>2020-06-15T13:24:53Z</time>
      </trkpt>
      <trkpt lat="49.55053" lon="-1.40387">
        <ele>76.3</ele>
        <time>2020-06-15T13:24:54Z</time>
      </trkpt>
      <trkpt lat="49.55045" lon="-1.40387">
        <ele>76.1</ele>
        <time>2020-06-15T13:24:55Z</time>
      </trkpt>
      <trkpt lat="49.55037" lon="-1.40386">
        <ele>76</ele>
        <time>2020-06-15T13:24:56Z</time>
      </trkpt>
      <trkpt lat="49.55028" lon="-1.40384">
        <ele>76</ele>
        <time>2020-06-15T13:24:57Z</time>
      </trkpt>
      <trkpt lat="49.55021" lon="-1.40385">
        <ele>75.9</ele>
        <time>2020-06-15T13:24:58Z</time>
      </trkpt>
      <trkpt lat="49.55013" lon="-1.40385">
        <ele>75.8</ele>
        <time>2020-06-15T13:24:59Z</time>
      </trkpt>
      <trkpt lat="49.55005" lon="-1.40386">
        <ele>75.8</ele>
        <time>2020-06-15T13:25:00Z</time>
      </trkpt>
      <trkpt lat="49.54996" lon="-1.40385">
        <ele>75.7</ele>
        <time>2020-06-15T13:25:01Z</time>
      </trkpt>
      <trkpt lat="49.54988" lon="-1.40384">
        <ele>75.6</ele>
        <time>2020-06-15T13:25:02Z</time>
      </trkpt>
      <trkpt lat="49.54981" lon="-1.40384">
        <ele>75.4</ele>
        <time>2020-06-15T13:25:03Z</time>
      </trkpt>
      <trkpt lat="49.54973" lon="-1.40385">
        <ele>75.4</ele>
        <time>2020-06-15T13:25:04Z</time>
      </trkpt>
      <trkpt lat="49.54965" lon="-1.40383">
        <ele>75.3</ele>
        <time>2020-06-15T13:25:05Z</time>
      </trkpt>
      <trkpt lat="49.54957" lon="-1.40382">
        <ele>75.3</ele>
        <time>2020-06-15T13:25:06Z</time>
      </trkpt>
      <trkpt lat="49.54949" lon="-1.40382">
        <ele>75.3</ele>
        <time>2020-06-15T13:25:07Z</time>
      </trkpt>
      <trkpt lat="49.54942" lon="-1.40382">
        <ele>75.3</ele>
        <time>2020-06-15T13:25:08Z</time>
      </trkpt>
      <trkpt lat="49.54934" lon="-1.40382">
        <ele>75.3</ele>
        <time>2020-06-15T13:25:09Z</time>
      </trkpt>
      <trkpt lat="49.54927" lon="-1.40382">
        <ele>75.3</ele>
        <time>2020-06-15T13:25:10Z</time>
      </trkpt>
      <trkpt lat="49.54921" lon="-1.40382">
        <ele>75.3</ele>
        <time>2020-06-15T13:25:11Z</time>
      </trkpt>
      <trkpt lat="49.54914" lon="-1.40381">
        <ele>75.2</ele>
        <time>2020-06-15T13:25:12Z</time>
      </trkpt>
      <trkpt lat="49.54907" lon="-1.4038">
        <ele>75.1</ele>
        <time>2020-06-15T13:25:13Z</time>
      </trkpt>
      <trkpt lat="49.549" lon="-1.40379">
        <ele>75.1</ele>
        <time>2020-06-15T13:25:14Z</time>
      </trkpt>
      <trkpt lat="49.54893" lon="-1.40379">
        <ele>75</ele>
        <time>2020-06-15T13:25:15Z</time>
      </trkpt>
      <trkpt lat="49.54886" lon="-1.40377">
        <ele>74.9</ele>
        <time>2020-06-15T13:25:16Z</time>
      </trkpt>
      <trkpt lat="49.54879" lon="-1.40377">
        <ele>74.8</ele>
        <time>2020-06-15T13:25:17Z</time>
      </trkpt>
      <trkpt lat="49.54873" lon="-1.40376">
        <ele>74.7</ele>
        <time>2020-06-15T13:25:18Z</time>
      </trkpt>
      <trkpt lat="49.54866" lon="-1.40376">
        <ele>74.7</ele>
        <time>2020-06-15T13:25:19Z</time>
      </trkpt>
      <trkpt lat="49.54859" lon="-1.40376">
        <ele>74.6</ele>
        <time>2020-06-15T13:25:20Z</time>
      </trkpt>
      <trkpt lat="49.54852" lon="-1.40376">
        <ele>74.6</ele>
        <time>2020-06-15T13:25:21Z</time>
      </trkpt>
      <trkpt lat="49.54845" lon="-1.40377">
        <ele>74.5</ele>
        <time>2020-06-15T13:25:22Z</time>
      </trkpt>
      <trkpt lat="49.54838" lon="-1.40377">
        <ele>74.5</ele>
        <time>2020-06-15T13:25:23Z</time>
      </trkpt>
      <trkpt lat="49.54831" lon="-1.40376">
        <ele>74.4</ele>
        <time>2020-06-15T13:25:24Z</time>
      </trkpt>
      <trkpt lat="49.54824" lon="-1.40375">
        <ele>74.3</ele>
        <time>2020-06-15T13:25:25Z</time>
      </trkpt>
      <trkpt lat="49.54817" lon="-1.40374">
        <ele>74.3</ele>
        <time>2020-06-15T13:25:26Z</time>
      </trkpt>
      <trkpt lat="49.5481" lon="-1.40373">
        <ele>74.2</ele>
        <time>2020-06-15T13:25:27Z</time>
      </trkpt>
      <trkpt lat="49.54804" lon="-1.40371">
        <ele>74.2</ele>
        <time>2020-06-15T13:25:28Z</time>
      </trkpt>
      <trkpt lat="49.54796" lon="-1.40369">
        <ele>74.1</ele>
        <time>2020-06-15T13:25:29Z</time>
      </trkpt>
      <trkpt lat="49.54789" lon="-1.40369">
        <ele>74</ele>
        <time>2020-06-15T13:25:30Z</time>
      </trkpt>
      <trkpt lat="49.54781" lon="-1.40368">
        <ele>73.8</ele>
        <time>2020-06-15T13:25:31Z</time>
      </trkpt>
      <trkpt lat="49.54774" lon="-1.40367">
        <ele>73.7</ele>
        <time>2020-06-15T13:25:32Z</time>
      </trkpt>
      <trkpt lat="49.54766" lon="-1.40366">
        <ele>73.5</ele>
        <time>2020-06-15T13:25:33Z</time>
      </trkpt>
      <trkpt lat="49.54759" lon="-1.40366">
        <ele>73.4</ele>
        <time>2020-06-15T13:25:34Z</time>
      </trkpt>
      <trkpt lat="49.54752" lon="-1.40365">
        <ele>73.3</ele>
        <time>2020-06-15T13:25:35Z</time>
      </trkpt>
      <trkpt lat="49.54744" lon="-1.40363">
        <ele>73.2</ele>
        <time>2020-06-15T13:25:36Z</time>
      </trkpt>
      <trkpt lat="49.54736" lon="-1.40362">
        <ele>73</ele>
        <time>2020-06-15T13:25:37Z</time>
      </trkpt>
      <trkpt lat="49.54727" lon="-1.40359">
        <ele>72.9</ele>
        <time>2020-06-15T13:25:38Z</time>
      </trkpt>
      <trkpt lat="49.54719" lon="-1.40357">
        <ele>72.7</ele>
        <time>2020-06-15T13:25:39Z</time>
      </trkpt>
      <trkpt lat="49.54712" lon="-1.40356">
        <ele>72.5</ele>
        <time>2020-06-15T13:25:40Z</time>
      </trkpt>
      <trkpt lat="49.547" lon="-1.40354">
        <ele>72.3</ele>
        <time>2020-06-15T13:25:41Z</time>
      </trkpt>
      <trkpt lat="49.5469" lon="-1.40352">
        <ele>72.1</ele>
        <time>2020-06-15T13:25:42Z</time>
      </trkpt>
      <trkpt lat="49.54679" lon="-1.4035">
        <ele>71.9</ele>
        <time>2020-06-15T13:25:43Z</time>
      </trkpt>
      <trkpt lat="49.54671" lon="-1.40348">
        <ele>71.7</ele>
        <time>2020-06-15T13:25:44Z</time>
      </trkpt>
      <trkpt lat="49.54663" lon="-1.40347">
        <ele>71.5</ele>
        <time>2020-06-15T13:25:45Z</time>
      </trkpt>
      <trkpt lat="49.54655" lon="-1.40345">
        <ele>71.3</ele>
        <time>2020-06-15T13:25:46Z</time>
      </trkpt>
      <trkpt lat="49.54647" lon="-1.40344">
        <ele>71.2</ele>
        <time>2020-06-15T13:25:47Z</time>
      </trkpt>
      <trkpt lat="49.5464" lon="-1.40341">
        <ele>71</ele>
        <time>2020-06-15T13:25:48Z</time>
      </trkpt>
      <trkpt lat="49.54632" lon="-1.4034">
        <ele>70.9</ele>
        <time>2020-06-15T13:25:49Z</time>
      </trkpt>
      <trkpt lat="49.54624" lon="-1.40339">
        <ele>70.7</ele>
        <time>2020-06-15T13:25:50Z</time>
      </trkpt>
      <trkpt lat="49.54617" lon="-1.40338">
        <ele>70.6</ele>
        <time>2020-06-15T13:25:51Z</time>
      </trkpt>
      <trkpt lat="49.5461" lon="-1.40337">
        <ele>70.5</ele>
        <time>2020-06-15T13:25:52Z</time>
      </trkpt>
      <trkpt lat="49.54605" lon="-1.40337">
        <ele>70.4</ele>
        <time>2020-06-15T13:25:53Z</time>
      </trkpt>
      <trkpt lat="49.54599" lon="-1.40336">
        <ele>70.2</ele>
        <time>2020-06-15T13:25:54Z</time>
      </trkpt>
      <trkpt lat="49.54593" lon="-1.40336">
        <ele>70.1</ele>
        <time>2020-06-15T13:25:55Z</time>
      </trkpt>
      <trkpt lat="49.54587" lon="-1.40334">
        <ele>69.9</ele>
        <time>2020-06-15T13:25:56Z</time>
      </trkpt>
      <trkpt lat="49.54578" lon="-1.40335">
        <ele>69.7</ele>
        <time>2020-06-15T13:25:57Z</time>
      </trkpt>
      <trkpt lat="49.54571" lon="-1.40336">
        <ele>69.5</ele>
        <time>2020-06-15T13:25:58Z</time>
      </trkpt>
      <trkpt lat="49.54564" lon="-1.40337">
        <ele>69.3</ele>
        <time>2020-06-15T13:25:59Z</time>
      </trkpt>
      <trkpt lat="49.54557" lon="-1.40339">
        <ele>69.2</ele>
        <time>2020-06-15T13:26:00Z</time>
      </trkpt>
      <trkpt lat="49.5455" lon="-1.40341">
        <ele>69.1</ele>
        <time>2020-06-15T13:26:01Z</time>
      </trkpt>
      <trkpt lat="49.54542" lon="-1.40343">
        <ele>69</ele>
        <time>2020-06-15T13:26:02Z</time>
      </trkpt>
      <trkpt lat="49.54535" lon="-1.40345">
        <ele>68.9</ele>
        <time>2020-06-15T13:26:03Z</time>
      </trkpt>
      <trkpt lat="49.54528" lon="-1.40347">
        <ele>68.8</ele>
        <time>2020-06-15T13:26:04Z</time>
      </trkpt>
      <trkpt lat="49.54521" lon="-1.4035">
        <ele>68.7</ele>
        <time>2020-06-15T13:26:05Z</time>
      </trkpt>
      <trkpt lat="49.54514" lon="-1.40352">
        <ele>68.5</ele>
        <time>2020-06-15T13:26:06Z</time>
      </trkpt>
      <trkpt lat="49.54507" lon="-1.40353">
        <ele>68.3</ele>
        <time>2020-06-15T13:26:07Z</time>
      </trkpt>
      <trkpt lat="49.545" lon="-1.40354">
        <ele>68.2</ele>
        <time>2020-06-15T13:26:08Z</time>
      </trkpt>
      <trkpt lat="49.54493" lon="-1.40354">
        <ele>68</ele>
        <time>2020-06-15T13:26:09Z</time>
      </trkpt>
      <trkpt lat="49.54484" lon="-1.40353">
        <ele>67.8</ele>
        <time>2020-06-15T13:26:10Z</time>
      </trkpt>
      <trkpt lat="49.54477" lon="-1.40352">
        <ele>67.6</ele>
        <time>2020-06-15T13:26:11Z</time>
      </trkpt>
      <trkpt lat="49.54469" lon="-1.40351">
        <ele>67.4</ele>
        <time>2020-06-15T13:26:12Z</time>
      </trkpt>
      <trkpt lat="49.54461" lon="-1.4035">
        <ele>67.3</ele>
        <time>2020-06-15T13:26:13Z</time>
      </trkpt>
      <trkpt lat="49.54454" lon="-1.40349">
        <ele>67.2</ele>
        <time>2020-06-15T13:26:14Z</time>
      </trkpt>
      <trkpt lat="49.54446" lon="-1.40349">
        <ele>67.1</ele>
        <time>2020-06-15T13:26:15Z</time>
      </trkpt>
      <trkpt lat="49.54439" lon="-1.40348">
        <ele>67.1</ele>
        <time>2020-06-15T13:26:16Z</time>
      </trkpt>
      <trkpt lat="49.54431" lon="-1.40348">
        <ele>67.1</ele>
        <time>2020-06-15T13:26:17Z</time>
      </trkpt>
      <trkpt lat="49.54423" lon="-1.40347">
        <ele>67.1</ele>
        <time>2020-06-15T13:26:18Z</time>
      </trkpt>
      <trkpt lat="49.54414" lon="-1.40345">
        <ele>67.2</ele>
        <time>2020-06-15T13:26:19Z</time>
      </trkpt>
      <trkpt lat="49.54406" lon="-1.40344">
        <ele>67.3</ele>
        <time>2020-06-15T13:26:20Z</time>
      </trkpt>
      <trkpt lat="49.54398" lon="-1.40342">
        <ele>67.3</ele>
        <time>2020-06-15T13:26:21Z</time>
      </trkpt>
      <trkpt lat="49.54391" lon="-1.40341">
        <ele>67.4</ele>
        <time>2020-06-15T13:26:22Z</time>
      </trkpt>
      <trkpt lat="49.54384" lon="-1.4034">
        <ele>67.5</ele>
        <time>2020-06-15T13:26:23Z</time>
      </trkpt>
      <trkpt lat="49.54378" lon="-1.40339">
        <ele>67.6</ele>
        <time>2020-06-15T13:26:24Z</time>
      </trkpt>
      <trkpt lat="49.54371" lon="-1.40338">
        <ele>67.7</ele>
        <time>2020-06-15T13:26:25Z</time>
      </trkpt>
      <trkpt lat="49.54364" lon="-1.40337">
        <ele>67.8</ele>
        <time>2020-06-15T13:26:26Z</time>
      </trkpt>
      <trkpt lat="49.54358" lon="-1.40336">
        <ele>67.9</ele>
        <time>2020-06-15T13:26:27Z</time>
      </trkpt>
      <trkpt lat="49.54353" lon="-1.40335">
        <ele>68</ele>
        <time>2020-06-15T13:26:28Z</time>
      </trkpt>
      <trkpt lat="49.54346" lon="-1.40335">
        <ele>68.1</ele>
        <time>2020-06-15T13:26:29Z</time>
      </trkpt>
      <trkpt lat="49.54341" lon="-1.40334">
        <ele>68.3</ele>
        <time>2020-06-15T13:26:30Z</time>
      </trkpt>
      <trkpt lat="49.54335" lon="-1.40334">
        <ele>68.4</ele>
        <time>2020-06-15T13:26:31Z</time>
      </trkpt>
      <trkpt lat="49.5433" lon="-1.40333">
        <ele>68.5</ele>
        <time>2020-06-15T13:26:32Z</time>
      </trkpt>
      <trkpt lat="49.54325" lon="-1.40333">
        <ele>68.6</ele>
        <time>2020-06-15T13:26:33Z</time>
      </trkpt>
      <trkpt lat="49.54319" lon="-1.40332">
        <ele>68.7</ele>
        <time>2020-06-15T13:26:34Z</time>
      </trkpt>
      <trkpt lat="49.54313" lon="-1.40331">
        <ele>68.8</ele>
        <time>2020-06-15T13:26:35Z</time>
      </trkpt>
      <trkpt lat="49.54307" lon="-1.4033">
        <ele>68.9</ele>
        <time>2020-06-15T13:26:36Z</time>
      </trkpt>
      <trkpt lat="49.54302" lon="-1.40328">
        <ele>68.9</ele>
        <time>2020-06-15T13:26:37Z</time>
      </trkpt>
      <trkpt lat="49.54297" lon="-1.40327">
        <ele>68.9</ele>
        <time>2020-06-15T13:26:38Z</time>
      </trkpt>
      <trkpt lat="49.54292" lon="-1.40326">
        <ele>69</ele>
        <time>2020-06-15T13:26:39Z</time>
      </trkpt>
      <trkpt lat="49.54287" lon="-1.40324">
        <ele>69</ele>
        <time>2020-06-15T13:26:40Z</time>
      </trkpt>
      <trkpt lat="49.54283" lon="-1.40323">
        <ele>69</ele>
        <time>2020-06-15T13:26:41Z</time>
      </trkpt>
      <trkpt lat="49.54278" lon="-1.40323">
        <ele>69</ele>
        <time>2020-06-15T13:26:42Z</time>
      </trkpt>
      <trkpt lat="49.54272" lon="-1.40323">
        <ele>69</ele>
        <time>2020-06-15T13:26:43Z</time>
      </trkpt>
      <trkpt lat="49.54267" lon="-1.40322">
        <ele>69</ele>
        <time>2020-06-15T13:26:44Z</time>
      </trkpt>
      <trkpt lat="49.54262" lon="-1.40321">
        <ele>69</ele>
        <time>2020-06-15T13:26:45Z</time>
      </trkpt>
      <trkpt lat="49.54256" lon="-1.4032">
        <ele>69</ele>
        <time>2020-06-15T13:26:46Z</time>
      </trkpt>
      <trkpt lat="49.5425" lon="-1.4032">
        <ele>68.9</ele>
        <time>2020-06-15T13:26:47Z</time>
      </trkpt>
      <trkpt lat="49.54245" lon="-1.40319">
        <ele>68.9</ele>
        <time>2020-06-15T13:26:48Z</time>
      </trkpt>
      <trkpt lat="49.54238" lon="-1.40315">
        <ele>68.8</ele>
        <time>2020-06-15T13:26:49Z</time>
      </trkpt>
      <trkpt lat="49.54232" lon="-1.40312">
        <ele>68.7</ele>
        <time>2020-06-15T13:26:50Z</time>
      </trkpt>
      <trkpt lat="49.54227" lon="-1.40309">
        <ele>68.7</ele>
        <time>2020-06-15T13:26:51Z</time>
      </trkpt>
      <trkpt lat="49.54221" lon="-1.40306">
        <ele>68.6</ele>
        <time>2020-06-15T13:26:52Z</time>
      </trkpt>
      <trkpt lat="49.54215" lon="-1.40302">
        <ele>68.5</ele>
        <time>2020-06-15T13:26:53Z</time>
      </trkpt>
      <trkpt lat="49.5421" lon="-1.40299">
        <ele>68.5</ele>
        <time>2020-06-15T13:26:54Z</time>
      </trkpt>
      <trkpt lat="49.54205" lon="-1.40295">
        <ele>68.5</ele>
        <time>2020-06-15T13:26:55Z</time>
      </trkpt>
      <trkpt lat="49.542" lon="-1.4029">
        <ele>68.4</ele>
        <time>2020-06-15T13:26:56Z</time>
      </trkpt>
      <trkpt lat="49.54194" lon="-1.40285">
        <ele>68.4</ele>
        <time>2020-06-15T13:26:57Z</time>
      </trkpt>
      <trkpt lat="49.54189" lon="-1.40279">
        <ele>68.3</ele>
        <time>2020-06-15T13:26:58Z</time>
      </trkpt>
      <trkpt lat="49.54184" lon="-1.40274">
        <ele>68.2</ele>
        <time>2020-06-15T13:26:59Z</time>
      </trkpt>
      <trkpt lat="49.54178" lon="-1.40268">
        <ele>68</ele>
        <time>2020-06-15T13:27:00Z</time>
      </trkpt>
      <trkpt lat="49.54173" lon="-1.40263">
        <ele>67.8</ele>
        <time>2020-06-15T13:27:01Z</time>
      </trkpt>
      <trkpt lat="49.54168" lon="-1.40258">
        <ele>67.6</ele>
        <time>2020-06-15T13:27:02Z</time>
      </trkpt>
      <trkpt lat="49.54162" lon="-1.40254">
        <ele>67.4</ele>
        <time>2020-06-15T13:27:03Z</time>
      </trkpt>
      <trkpt lat="49.54158" lon="-1.4025">
        <ele>67.2</ele>
        <time>2020-06-15T13:27:04Z</time>
      </trkpt>
      <trkpt lat="49.54154" lon="-1.40246">
        <ele>67</ele>
        <time>2020-06-15T13:27:05Z</time>
      </trkpt>
      <trkpt lat="49.54149" lon="-1.4024">
        <ele>66.8</ele>
        <time>2020-06-15T13:27:06Z</time>
      </trkpt>
      <trkpt lat="49.54145" lon="-1.40234">
        <ele>66.5</ele>
        <time>2020-06-15T13:27:07Z</time>
      </trkpt>
      <trkpt lat="49.5414" lon="-1.40231">
        <ele>66.3</ele>
        <time>2020-06-15T13:27:08Z</time>
      </trkpt>
      <trkpt lat="49.54136" lon="-1.40226">
        <ele>66</ele>
        <time>2020-06-15T13:27:09Z</time>
      </trkpt>
      <trkpt lat="49.54131" lon="-1.4022">
        <ele>65.7</ele>
        <time>2020-06-15T13:27:10Z</time>
      </trkpt>
      <trkpt lat="49.54125" lon="-1.40215">
        <ele>65.4</ele>
        <time>2020-06-15T13:27:11Z</time>
      </trkpt>
      <trkpt lat="49.54121" lon="-1.4021">
        <ele>65.2</ele>
        <time>2020-06-15T13:27:12Z</time>
      </trkpt>
      <trkpt lat="49.54115" lon="-1.40206">
        <ele>64.9</ele>
        <time>2020-06-15T13:27:13Z</time>
      </trkpt>
      <trkpt lat="49.54108" lon="-1.40201">
        <ele>64.6</ele>
        <time>2020-06-15T13:27:14Z</time>
      </trkpt>
      <trkpt lat="49.54102" lon="-1.40195">
        <ele>64.3</ele>
        <time>2020-06-15T13:27:15Z</time>
      </trkpt>
      <trkpt lat="49.54095" lon="-1.40189">
        <ele>63.9</ele>
        <time>2020-06-15T13:27:16Z</time>
      </trkpt>
      <trkpt lat="49.54089" lon="-1.40183">
        <ele>63.6</ele>
        <time>2020-06-15T13:27:17Z</time>
      </trkpt>
      <trkpt lat="49.54082" lon="-1.40176">
        <ele>63.3</ele>
        <time>2020-06-15T13:27:18Z</time>
      </trkpt>
      <trkpt lat="49.54077" lon="-1.40171">
        <ele>63.1</ele>
        <time>2020-06-15T13:27:19Z</time>
      </trkpt>
      <trkpt lat="49.54071" lon="-1.40165">
        <ele>63</ele>
        <time>2020-06-15T13:27:20Z</time>
      </trkpt>
      <trkpt lat="49.54065" lon="-1.4016">
        <ele>62.7</ele>
        <time>2020-06-15T13:27:21Z</time>
      </trkpt>
      <trkpt lat="49.54059" lon="-1.40156">
        <ele>62.5</ele>
        <time>2020-06-15T13:27:22Z</time>
      </trkpt>
      <trkpt lat="49.54054" lon="-1.40151">
        <ele>62.3</ele>
        <time>2020-06-15T13:27:23Z</time>
      </trkpt>
      <trkpt lat="49.54047" lon="-1.40146">
        <ele>62.1</ele>
        <time>2020-06-15T13:27:24Z</time>
      </trkpt>
      <trkpt lat="49.54041" lon="-1.40141">
        <ele>61.9</ele>
        <time>2020-06-15T13:27:25Z</time>
      </trkpt>
      <trkpt lat="49.54034" lon="-1.40136">
        <ele>61.7</ele>
        <time>2020-06-15T13:27:26Z</time>
      </trkpt>
      <trkpt lat="49.54028" lon="-1.40132">
        <ele>61.5</ele>
        <time>2020-06-15T13:27:27Z</time>
      </trkpt>
      <trkpt lat="49.54022" lon="-1.40128">
        <ele>61.3</ele>
        <time>2020-06-15T13:27:28Z</time>
      </trkpt>
      <trkpt lat="49.54016" lon="-1.40124">
        <ele>61.2</ele>
        <time>2020-06-15T13:27:29Z</time>
      </trkpt>
      <trkpt lat="49.54009" lon="-1.4012">
        <ele>61</ele>
        <time>2020-06-15T13:27:30Z</time>
      </trkpt>
      <trkpt lat="49.54003" lon="-1.40116">
        <ele>60.8</ele>
        <time>2020-06-15T13:27:31Z</time>
      </trkpt>
      <trkpt lat="49.53996" lon="-1.40112">
        <ele>60.6</ele>
        <time>2020-06-15T13:27:32Z</time>
      </trkpt>
      <trkpt lat="49.53989" lon="-1.40107">
        <ele>60.4</ele>
        <time>2020-06-15T13:27:33Z</time>
      </trkpt>
      <trkpt lat="49.53983" lon="-1.40103">
        <ele>60.2</ele>
        <time>2020-06-15T13:27:34Z</time>
      </trkpt>
      <trkpt lat="49.53976" lon="-1.40099">
        <ele>60</ele>
        <time>2020-06-15T13:27:35Z</time>
      </trkpt>
      <trkpt lat="49.5397" lon="-1.40095">
        <ele>59.8</ele>
        <time>2020-06-15T13:27:36Z</time>
      </trkpt>
      <trkpt lat="49.53964" lon="-1.4009">
        <ele>59.7</ele>
        <time>2020-06-15T13:27:37Z</time>
      </trkpt>
      <trkpt lat="49.53958" lon="-1.40086">
        <ele>59.5</ele>
        <time>2020-06-15T13:27:38Z</time>
      </trkpt>
      <trkpt lat="49.53951" lon="-1.40081">
        <ele>59.3</ele>
        <time>2020-06-15T13:27:39Z</time>
      </trkpt>
      <trkpt lat="49.53945" lon="-1.40077">
        <ele>59.1</ele>
        <time>2020-06-15T13:27:40Z</time>
      </trkpt>
      <trkpt lat="49.53939" lon="-1.40072">
        <ele>58.9</ele>
        <time>2020-06-15T13:27:41Z</time>
      </trkpt>
      <trkpt lat="49.53932" lon="-1.40068">
        <ele>58.7</ele>
        <time>2020-06-15T13:27:42Z</time>
      </trkpt>
      <trkpt lat="49.53925" lon="-1.40063">
        <ele>58.5</ele>
        <time>2020-06-15T13:27:43Z</time>
      </trkpt>
      <trkpt lat="49.53918" lon="-1.40059">
        <ele>58.3</ele>
        <time>2020-06-15T13:27:44Z</time>
      </trkpt>
      <trkpt lat="49.53912" lon="-1.40055">
        <ele>58</ele>
        <time>2020-06-15T13:27:45Z</time>
      </trkpt>
      <trkpt lat="49.53905" lon="-1.40051">
        <ele>57.8</ele>
        <time>2020-06-15T13:27:46Z</time>
      </trkpt>
      <trkpt lat="49.53898" lon="-1.40047">
        <ele>57.6</ele>
        <time>2020-06-15T13:27:47Z</time>
      </trkpt>
      <trkpt lat="49.53891" lon="-1.40042">
        <ele>57.3</ele>
        <time>2020-06-15T13:27:48Z</time>
      </trkpt>
      <trkpt lat="49.53884" lon="-1.40038">
        <ele>57</ele>
        <time>2020-06-15T13:27:49Z</time>
      </trkpt>
      <trkpt lat="49.53877" lon="-1.40033">
        <ele>56.7</ele>
        <time>2020-06-15T13:27:50Z</time>
      </trkpt>
      <trkpt lat="49.5387" lon="-1.40029">
        <ele>56.7</ele>
        <time>2020-06-15T13:27:51Z</time>
      </trkpt>
      <trkpt lat="49.53863" lon="-1.40025">
        <ele>56.6</ele>
        <time>2020-06-15T13:27:52Z</time>
      </trkpt>
      <trkpt lat="49.53856" lon="-1.40022">
        <ele>56.3</ele>
        <time>2020-06-15T13:27:53Z</time>
      </trkpt>
      <trkpt lat="49.53849" lon="-1.40019">
        <ele>55.9</ele>
        <time>2020-06-15T13:27:54Z</time>
      </trkpt>
      <trkpt lat="49.53841" lon="-1.40016">
        <ele>55.5</ele>
        <time>2020-06-15T13:27:55Z</time>
      </trkpt>
      <trkpt lat="49.53834" lon="-1.40012">
        <ele>55.1</ele>
        <time>2020-06-15T13:27:56Z</time>
      </trkpt>
      <trkpt lat="49.53826" lon="-1.40009">
        <ele>54.7</ele>
        <time>2020-06-15T13:27:57Z</time>
      </trkpt>
      <trkpt lat="49.53818" lon="-1.40006">
        <ele>54.3</ele>
        <time>2020-06-15T13:27:58Z</time>
      </trkpt>
      <trkpt lat="49.5381" lon="-1.40003">
        <ele>54</ele>
        <time>2020-06-15T13:27:59Z</time>
      </trkpt>
      <trkpt lat="49.53801" lon="-1.39999">
        <ele>53.5</ele>
        <time>2020-06-15T13:28:00Z</time>
      </trkpt>
      <trkpt lat="49.53793" lon="-1.39997">
        <ele>53.1</ele>
        <time>2020-06-15T13:28:01Z</time>
      </trkpt>
      <trkpt lat="49.53785" lon="-1.39994">
        <ele>52.6</ele>
        <time>2020-06-15T13:28:02Z</time>
      </trkpt>
      <trkpt lat="49.53777" lon="-1.39989">
        <ele>52.2</ele>
        <time>2020-06-15T13:28:03Z</time>
      </trkpt>
      <trkpt lat="49.53768" lon="-1.39986">
        <ele>51.8</ele>
        <time>2020-06-15T13:28:04Z</time>
      </trkpt>
      <trkpt lat="49.5376" lon="-1.39983">
        <ele>51.3</ele>
        <time>2020-06-15T13:28:05Z</time>
      </trkpt>
      <trkpt lat="49.53752" lon="-1.39979">
        <ele>50.8</ele>
        <time>2020-06-15T13:28:06Z</time>
      </trkpt>
      <trkpt lat="49.53743" lon="-1.39974">
        <ele>50.2</ele>
        <time>2020-06-15T13:28:07Z</time>
      </trkpt>
      <trkpt lat="49.53735" lon="-1.39968">
        <ele>49.7</ele>
        <time>2020-06-15T13:28:08Z</time>
      </trkpt>
      <trkpt lat="49.53727" lon="-1.39961">
        <ele>49.3</ele>
        <time>2020-06-15T13:28:09Z</time>
      </trkpt>
      <trkpt lat="49.53719" lon="-1.39954">
        <ele>48.8</ele>
        <time>2020-06-15T13:28:10Z</time>
      </trkpt>
      <trkpt lat="49.53711" lon="-1.39947">
        <ele>48.3</ele>
        <time>2020-06-15T13:28:11Z</time>
      </trkpt>
      <trkpt lat="49.53703" lon="-1.39941">
        <ele>47.8</ele>
        <time>2020-06-15T13:28:12Z</time>
      </trkpt>
      <trkpt lat="49.53695" lon="-1.39935">
        <ele>47.3</ele>
        <time>2020-06-15T13:28:13Z</time>
      </trkpt>
      <trkpt lat="49.53687" lon="-1.39929">
        <ele>46.8</ele>
        <time>2020-06-15T13:28:14Z</time>
      </trkpt>
      <trkpt lat="49.53678" lon="-1.39922">
        <ele>46.3</ele>
        <time>2020-06-15T13:28:15Z</time>
      </trkpt>
      <trkpt lat="49.5367" lon="-1.39915">
        <ele>45.8</ele>
        <time>2020-06-15T13:28:16Z</time>
      </trkpt>
      <trkpt lat="49.53663" lon="-1.39909">
        <ele>45.3</ele>
        <time>2020-06-15T13:28:17Z</time>
      </trkpt>
      <trkpt lat="49.53655" lon="-1.39902">
        <ele>44.9</ele>
        <time>2020-06-15T13:28:18Z</time>
      </trkpt>
      <trkpt lat="49.53647" lon="-1.39896">
        <ele>44.5</ele>
        <time>2020-06-15T13:28:19Z</time>
      </trkpt>
      <trkpt lat="49.53639" lon="-1.39889">
        <ele>44.1</ele>
        <time>2020-06-15T13:28:20Z</time>
      </trkpt>
      <trkpt lat="49.53631" lon="-1.39883">
        <ele>43.7</ele>
        <time>2020-06-15T13:28:21Z</time>
      </trkpt>
      <trkpt lat="49.53624" lon="-1.39877">
        <ele>43.3</ele>
        <time>2020-06-15T13:28:22Z</time>
      </trkpt>
      <trkpt lat="49.53616" lon="-1.3987">
        <ele>43</ele>
        <time>2020-06-15T13:28:23Z</time>
      </trkpt>
      <trkpt lat="49.53608" lon="-1.39864">
        <ele>42.6</ele>
        <time>2020-06-15T13:28:24Z</time>
      </trkpt>
      <trkpt lat="49.536" lon="-1.39858">
        <ele>42.3</ele>
        <time>2020-06-15T13:28:25Z</time>
      </trkpt>
      <trkpt lat="49.53593" lon="-1.39853">
        <ele>41.9</ele>
        <time>2020-06-15T13:28:26Z</time>
      </trkpt>
      <trkpt lat="49.53585" lon="-1.39847">
        <ele>41.5</ele>
        <time>2020-06-15T13:28:27Z</time>
      </trkpt>
      <trkpt lat="49.53577" lon="-1.39841">
        <ele>41.1</ele>
        <time>2020-06-15T13:28:28Z</time>
      </trkpt>
      <trkpt lat="49.53569" lon="-1.39835">
        <ele>40.7</ele>
        <time>2020-06-15T13:28:29Z</time>
      </trkpt>
      <trkpt lat="49.53562" lon="-1.39829">
        <ele>40.3</ele>
        <time>2020-06-15T13:28:30Z</time>
      </trkpt>
      <trkpt lat="49.53555" lon="-1.39823">
        <ele>39.9</ele>
        <time>2020-06-15T13:28:31Z</time>
      </trkpt>
      <trkpt lat="49.53548" lon="-1.39817">
        <ele>39.5</ele>
        <time>2020-06-15T13:28:32Z</time>
      </trkpt>
      <trkpt lat="49.53541" lon="-1.3981">
        <ele>39</ele>
        <time>2020-06-15T13:28:33Z</time>
      </trkpt>
      <trkpt lat="49.53534" lon="-1.39803">
        <ele>38.5</ele>
        <time>2020-06-15T13:28:34Z</time>
      </trkpt>
      <trkpt lat="49.53528" lon="-1.39796">
        <ele>38.1</ele>
        <time>2020-06-15T13:28:35Z</time>
      </trkpt>
      <trkpt lat="49.53522" lon="-1.39787">
        <ele>37.6</ele>
        <time>2020-06-15T13:28:36Z</time>
      </trkpt>
      <trkpt lat="49.53517" lon="-1.39777">
        <ele>37.1</ele>
        <time>2020-06-15T13:28:37Z</time>
      </trkpt>
      <trkpt lat="49.53512" lon="-1.39767">
        <ele>36.6</ele>
        <time>2020-06-15T13:28:38Z</time>
      </trkpt>
      <trkpt lat="49.53507" lon="-1.39757">
        <ele>36</ele>
        <time>2020-06-15T13:28:39Z</time>
      </trkpt>
      <trkpt lat="49.53502" lon="-1.39746">
        <ele>35.5</ele>
        <time>2020-06-15T13:28:40Z</time>
      </trkpt>
      <trkpt lat="49.53499" lon="-1.39732">
        <ele>34.9</ele>
        <time>2020-06-15T13:28:41Z</time>
      </trkpt>
      <trkpt lat="49.53493" lon="-1.39721">
        <ele>34.3</ele>
        <time>2020-06-15T13:28:42Z</time>
      </trkpt>
      <trkpt lat="49.53488" lon="-1.3971">
        <ele>33.7</ele>
        <time>2020-06-15T13:28:43Z</time>
      </trkpt>
      <trkpt lat="49.53482" lon="-1.39699">
        <ele>33.2</ele>
        <time>2020-06-15T13:28:44Z</time>
      </trkpt>
      <trkpt lat="49.53476" lon="-1.39688">
        <ele>32.8</ele>
        <time>2020-06-15T13:28:45Z</time>
      </trkpt>
      <trkpt lat="49.5347" lon="-1.39677">
        <ele>32.4</ele>
        <time>2020-06-15T13:28:46Z</time>
      </trkpt>
      <trkpt lat="49.53464" lon="-1.39666">
        <ele>32</ele>
        <time>2020-06-15T13:28:47Z</time>
      </trkpt>
      <trkpt lat="49.53458" lon="-1.39655">
        <ele>31.6</ele>
        <time>2020-06-15T13:28:48Z</time>
      </trkpt>
      <trkpt lat="49.53451" lon="-1.39644">
        <ele>31.3</ele>
        <time>2020-06-15T13:28:49Z</time>
      </trkpt>
      <trkpt lat="49.53445" lon="-1.39634">
        <ele>31.1</ele>
        <time>2020-06-15T13:28:50Z</time>
      </trkpt>
      <trkpt lat="49.53439" lon="-1.39623">
        <ele>30.9</ele>
        <time>2020-06-15T13:28:51Z</time>
      </trkpt>
      <trkpt lat="49.53434" lon="-1.39613">
        <ele>30.7</ele>
        <time>2020-06-15T13:28:52Z</time>
      </trkpt>
      <trkpt lat="49.53429" lon="-1.39602">
        <ele>30.7</ele>
        <time>2020-06-15T13:28:53Z</time>
      </trkpt>
      <trkpt lat="49.53423" lon="-1.39593">
        <ele>30.7</ele>
        <time>2020-06-15T13:28:54Z</time>
      </trkpt>
      <trkpt lat="49.53418" lon="-1.39584">
        <ele>30.7</ele>
        <time>2020-06-15T13:28:55Z</time>
      </trkpt>
      <trkpt lat="49.53412" lon="-1.39576">
        <ele>30.7</ele>
        <time>2020-06-15T13:28:56Z</time>
      </trkpt>
      <trkpt lat="49.53407" lon="-1.39568">
        <ele>30.8</ele>
        <time>2020-06-15T13:28:57Z</time>
      </trkpt>
      <trkpt lat="49.53403" lon="-1.39561">
        <ele>30.9</ele>
        <time>2020-06-15T13:28:58Z</time>
      </trkpt>
      <trkpt lat="49.53399" lon="-1.39553">
        <ele>31.1</ele>
        <time>2020-06-15T13:28:59Z</time>
      </trkpt>
      <trkpt lat="49.53396" lon="-1.39545">
        <ele>31.4</ele>
        <time>2020-06-15T13:29:00Z</time>
      </trkpt>
      <trkpt lat="49.53394" lon="-1.39536">
        <ele>31.3</ele>
        <time>2020-06-15T13:29:01Z</time>
      </trkpt>
      <trkpt lat="49.53392" lon="-1.39527">
        <ele>31.3</ele>
        <time>2020-06-15T13:29:02Z</time>
      </trkpt>
      <trkpt lat="49.53391" lon="-1.39516">
        <ele>31.2</ele>
        <time>2020-06-15T13:29:03Z</time>
      </trkpt>
      <trkpt lat="49.53387" lon="-1.39512">
        <ele>31.1</ele>
        <time>2020-06-15T13:29:04Z</time>
      </trkpt>
      <trkpt lat="49.53383" lon="-1.39507">
        <ele>31.1</ele>
        <time>2020-06-15T13:29:05Z</time>
      </trkpt>
      <trkpt lat="49.53379" lon="-1.39503">
        <ele>31</ele>
        <time>2020-06-15T13:29:06Z</time>
      </trkpt>
      <trkpt lat="49.53376" lon="-1.395">
        <ele>31</ele>
        <time>2020-06-15T13:29:07Z</time>
      </trkpt>
      <trkpt lat="49.53372" lon="-1.395">
        <ele>31</ele>
        <time>2020-06-15T13:29:08Z</time>
      </trkpt>
      <trkpt lat="49.5337" lon="-1.39501">
        <ele>31</ele>
        <time>2020-06-15T13:29:09Z</time>
      </trkpt>
      <trkpt lat="49.53366" lon="-1.39502">
        <ele>31</ele>
        <time>2020-06-15T13:29:10Z</time>
      </trkpt>
      <trkpt lat="49.53365" lon="-1.39502">
        <ele>31</ele>
        <time>2020-06-15T13:29:11Z</time>
      </trkpt>
      <trkpt lat="49.53362" lon="-1.39501">
        <ele>31</ele>
        <time>2020-06-15T13:29:12Z</time>
      </trkpt>
      <trkpt lat="49.53359" lon="-1.39501">
        <ele>31.1</ele>
        <time>2020-06-15T13:29:13Z</time>
      </trkpt>
      <trkpt lat="49.53356" lon="-1.39501">
        <ele>31.1</ele>
        <time>2020-06-15T13:29:14Z</time>
      </trkpt>
      <trkpt lat="49.53355" lon="-1.39501">
        <ele>31.1</ele>
        <time>2020-06-15T13:29:15Z</time>
      </trkpt>
      <trkpt lat="49.53354" lon="-1.39498">
        <ele>31.1</ele>
        <time>2020-06-15T13:29:16Z</time>
      </trkpt>
      <trkpt lat="49.53354" lon="-1.39496">
        <ele>31.1</ele>
        <time>2020-06-15T13:29:17Z</time>
      </trkpt>
      <trkpt lat="49.53353" lon="-1.39496">
        <ele>31.1</ele>
        <time>2020-06-15T13:29:18Z</time>
      </trkpt>
      <trkpt lat="49.53353" lon="-1.39498">
        <ele>31.2</ele>
        <time>2020-06-15T13:29:19Z</time>
      </trkpt>
      <trkpt lat="49.53352" lon="-1.395">
        <ele>31.2</ele>
        <time>2020-06-15T13:29:20Z</time>
      </trkpt>
      <trkpt lat="49.5335" lon="-1.39501">
        <ele>31.2</ele>
        <time>2020-06-15T13:29:21Z</time>
      </trkpt>
      <trkpt lat="49.53349" lon="-1.39501">
        <ele>31.2</ele>
        <time>2020-06-15T13:29:22Z</time>
      </trkpt>
      <trkpt lat="49.53347" lon="-1.39501">
        <ele>31.2</ele>
        <time>2020-06-15T13:29:23Z</time>
      </trkpt>
      <trkpt lat="49.53345" lon="-1.39501">
        <ele>31.3</ele>
        <time>2020-06-15T13:29:24Z</time>
      </trkpt>
      <trkpt lat="49.53344" lon="-1.39502">
        <ele>31.3</ele>
        <time>2020-06-15T13:29:25Z</time>
      </trkpt>
      <trkpt lat="49.53342" lon="-1.39502">
        <ele>31.3</ele>
        <time>2020-06-15T13:29:26Z</time>
      </trkpt>
      <trkpt lat="49.5334" lon="-1.39502">
        <ele>31.3</ele>
        <time>2020-06-15T13:31:25Z</time>
      </trkpt>
      <trkpt lat="49.53338" lon="-1.39502">
        <ele>31.3</ele>
        <time>2020-06-15T13:31:26Z</time>
      </trkpt>
      <trkpt lat="49.53337" lon="-1.39503">
        <ele>31.4</ele>
        <time>2020-06-15T13:31:27Z</time>
      </trkpt>
      <trkpt lat="49.53335" lon="-1.39499">
        <ele>31.4</ele>
        <time>2020-06-15T13:31:28Z</time>
      </trkpt>
      <trkpt lat="49.53335" lon="-1.39498">
        <ele>31.4</ele>
        <time>2020-06-15T13:31:29Z</time>
      </trkpt>
      <trkpt lat="49.53335" lon="-1.39493">
        <ele>31.4</ele>
        <time>2020-06-15T13:31:30Z</time>
      </trkpt>
      <trkpt lat="49.53336" lon="-1.39491">
        <ele>31.4</ele>
        <time>2020-06-15T13:31:31Z</time>
      </trkpt>
      <trkpt lat="49.53337" lon="-1.39488">
        <ele>31.4</ele>
        <time>2020-06-15T13:31:32Z</time>
      </trkpt>
      <trkpt lat="49.53336" lon="-1.39485">
        <ele>31.5</ele>
        <time>2020-06-15T13:31:33Z</time>
      </trkpt>
      <trkpt lat="49.53334" lon="-1.39481">
        <ele>32.1</ele>
        <time>2020-06-15T13:31:34Z</time>
      </trkpt>
      <trkpt lat="49.53333" lon="-1.3948">
        <ele>32.3</ele>
        <time>2020-06-15T13:31:35Z</time>
      </trkpt>
      <trkpt lat="49.53331" lon="-1.39474">
        <ele>32.6</ele>
        <time>2020-06-15T13:31:36Z</time>
      </trkpt>
      <trkpt lat="49.5333" lon="-1.39472">
        <ele>32.8</ele>
        <time>2020-06-15T13:31:37Z</time>
      </trkpt>
      <trkpt lat="49.53329" lon="-1.39468">
        <ele>32.9</ele>
        <time>2020-06-15T13:31:38Z</time>
      </trkpt>
      <trkpt lat="49.53327" lon="-1.39464">
        <ele>33.1</ele>
        <time>2020-06-15T13:31:39Z</time>
      </trkpt>
      <trkpt lat="49.53325" lon="-1.39461">
        <ele>33.2</ele>
        <time>2020-06-15T13:31:40Z</time>
      </trkpt>
      <trkpt lat="49.53322" lon="-1.39456">
        <ele>33.4</ele>
        <time>2020-06-15T13:31:41Z</time>
      </trkpt>
      <trkpt lat="49.53319" lon="-1.39452">
        <ele>33.5</ele>
        <time>2020-06-15T13:31:42Z</time>
      </trkpt>
      <trkpt lat="49.53317" lon="-1.39447">
        <ele>33.7</ele>
        <time>2020-06-15T13:31:43Z</time>
      </trkpt>
      <trkpt lat="49.53315" lon="-1.39443">
        <ele>33.9</ele>
        <time>2020-06-15T13:31:44Z</time>
      </trkpt>
      <trkpt lat="49.53314" lon="-1.39438">
        <ele>34</ele>
        <time>2020-06-15T13:31:45Z</time>
      </trkpt>
      <trkpt lat="49.53313" lon="-1.39433">
        <ele>34.2</ele>
        <time>2020-06-15T13:31:46Z</time>
      </trkpt>
      <trkpt lat="49.53311" lon="-1.39428">
        <ele>34.3</ele>
        <time>2020-06-15T13:31:47Z</time>
      </trkpt>
      <trkpt lat="49.5331" lon="-1.39424">
        <ele>34.5</ele>
        <time>2020-06-15T13:31:48Z</time>
      </trkpt>
      <trkpt lat="49.53309" lon="-1.39418">
        <ele>34.6</ele>
        <time>2020-06-15T13:31:49Z</time>
      </trkpt>
      <trkpt lat="49.53308" lon="-1.39416">
        <ele>34.7</ele>
        <time>2020-06-15T13:31:50Z</time>
      </trkpt>
      <trkpt lat="49.53306" lon="-1.39412">
        <ele>34.8</ele>
        <time>2020-06-15T13:31:51Z</time>
      </trkpt>
      <trkpt lat="49.53305" lon="-1.39406">
        <ele>35</ele>
        <time>2020-06-15T13:31:52Z</time>
      </trkpt>
      <trkpt lat="49.53304" lon="-1.39404">
        <ele>35.1</ele>
        <time>2020-06-15T13:31:53Z</time>
      </trkpt>
      <trkpt lat="49.53304" lon="-1.39398">
        <ele>35.3</ele>
        <time>2020-06-15T13:31:54Z</time>
      </trkpt>
      <trkpt lat="49.53303" lon="-1.39397">
        <ele>35.3</ele>
        <time>2020-06-15T13:31:55Z</time>
      </trkpt>
      <trkpt lat="49.53302" lon="-1.39392">
        <ele>35.5</ele>
        <time>2020-06-15T13:31:56Z</time>
      </trkpt>
      <trkpt lat="49.53301" lon="-1.3939">
        <ele>35.6</ele>
        <time>2020-06-15T13:31:57Z</time>
      </trkpt>
      <trkpt lat="49.533" lon="-1.39385">
        <ele>35.8</ele>
        <time>2020-06-15T13:31:58Z</time>
      </trkpt>
      <trkpt lat="49.533" lon="-1.39384">
        <ele>35.8</ele>
        <time>2020-06-15T13:31:59Z</time>
      </trkpt>
      <trkpt lat="49.53299" lon="-1.39379">
        <ele>36</ele>
        <time>2020-06-15T13:32:00Z</time>
      </trkpt>
      <trkpt lat="49.53298" lon="-1.39377">
        <ele>36</ele>
        <time>2020-06-15T13:32:01Z</time>
      </trkpt>
      <trkpt lat="49.53298" lon="-1.39373">
        <ele>36.2</ele>
        <time>2020-06-15T13:32:02Z</time>
      </trkpt>
      <trkpt lat="49.53297" lon="-1.39371">
        <ele>36.2</ele>
        <time>2020-06-15T13:32:03Z</time>
      </trkpt>
      <trkpt lat="49.53297" lon="-1.39369">
        <ele>36.3</ele>
        <time>2020-06-15T13:32:04Z</time>
      </trkpt>
      <trkpt lat="49.53296" lon="-1.39367">
        <ele>36.4</ele>
        <time>2020-06-15T13:32:05Z</time>
      </trkpt>
      <trkpt lat="49.53296" lon="-1.39365">
        <ele>36.5</ele>
        <time>2020-06-15T13:32:06Z</time>
      </trkpt>
      <trkpt lat="49.53295" lon="-1.39362">
        <ele>36.6</ele>
        <time>2020-06-15T13:32:07Z</time>
      </trkpt>
      <trkpt lat="49.53294" lon="-1.39361">
        <ele>36.7</ele>
        <time>2020-06-15T13:32:08Z</time>
      </trkpt>
      <trkpt lat="49.53293" lon="-1.39359">
        <ele>36.7</ele>
        <time>2020-06-15T13:32:09Z</time>
      </trkpt>
      <trkpt lat="49.53293" lon="-1.39358">
        <ele>36.8</ele>
        <time>2020-06-15T13:32:10Z</time>
      </trkpt>
      <trkpt lat="49.53293" lon="-1.39357">
        <ele>36.8</ele>
        <time>2020-06-15T13:32:11Z</time>
      </trkpt>
      <trkpt lat="49.53294" lon="-1.39356">
        <ele>36.9</ele>
        <time>2020-06-15T13:32:12Z</time>
      </trkpt>
      <trkpt lat="49.53294" lon="-1.39358">
        <ele>36.9</ele>
        <time>2020-06-15T13:32:13Z</time>
      </trkpt>
      <trkpt lat="49.53294" lon="-1.39359">
        <ele>36.9</ele>
        <time>2020-06-15T13:32:14Z</time>
      </trkpt>
      <trkpt lat="49.53296" lon="-1.3936">
        <ele>37</ele>
        <time>2020-06-15T13:32:15Z</time>
      </trkpt>
      <trkpt lat="49.53296" lon="-1.39359">
        <ele>37.1</ele>
        <time>2020-06-15T13:32:16Z</time>
      </trkpt>
      <trkpt lat="49.53296" lon="-1.39358">
        <ele>37.1</ele>
        <time>2020-06-15T13:32:17Z</time>
      </trkpt>
      <trkpt lat="49.53296" lon="-1.39356">
        <ele>37.2</ele>
        <time>2020-06-15T13:32:18Z</time>
      </trkpt>
      <trkpt lat="49.53296" lon="-1.39355">
        <ele>37.2</ele>
        <time>2020-06-15T13:32:19Z</time>
      </trkpt>
      <trkpt lat="49.53296" lon="-1.39353">
        <ele>37.3</ele>
        <time>2020-06-15T13:32:20Z</time>
      </trkpt>
      <trkpt lat="49.53295" lon="-1.39352">
        <ele>37.3</ele>
        <time>2020-06-15T13:32:54Z</time>
      </trkpt>
      <trkpt lat="49.53295" lon="-1.3935">
        <ele>37.4</ele>
        <time>2020-06-15T13:32:55Z</time>
      </trkpt>
      <trkpt lat="49.53295" lon="-1.39348">
        <ele>37.4</ele>
        <time>2020-06-15T13:32:56Z</time>
      </trkpt>
      <trkpt lat="49.53294" lon="-1.39346">
        <ele>37.5</ele>
        <time>2020-06-15T13:32:57Z</time>
      </trkpt>
      <trkpt lat="49.53294" lon="-1.39343">
        <ele>37.6</ele>
        <time>2020-06-15T13:32:58Z</time>
      </trkpt>
      <trkpt lat="49.53293" lon="-1.39341">
        <ele>37.7</ele>
        <time>2020-06-15T13:32:59Z</time>
      </trkpt>
      <trkpt lat="49.53292" lon="-1.39336">
        <ele>37.9</ele>
        <time>2020-06-15T13:33:00Z</time>
      </trkpt>
      <trkpt lat="49.53291" lon="-1.39335">
        <ele>37.9</ele>
        <time>2020-06-15T13:33:01Z</time>
      </trkpt>
      <trkpt lat="49.53291" lon="-1.39329">
        <ele>38.1</ele>
        <time>2020-06-15T13:33:02Z</time>
      </trkpt>
      <trkpt lat="49.53291" lon="-1.39327">
        <ele>38.2</ele>
        <time>2020-06-15T13:33:03Z</time>
      </trkpt>
      <trkpt lat="49.53291" lon="-1.39323">
        <ele>38.3</ele>
        <time>2020-06-15T13:33:04Z</time>
      </trkpt>
      <trkpt lat="49.53291" lon="-1.39319">
        <ele>38.5</ele>
        <time>2020-06-15T13:33:05Z</time>
      </trkpt>
      <trkpt lat="49.5329" lon="-1.39314">
        <ele>38.6</ele>
        <time>2020-06-15T13:33:06Z</time>
      </trkpt>
      <trkpt lat="49.53289" lon="-1.39308">
        <ele>38.8</ele>
        <time>2020-06-15T13:33:07Z</time>
      </trkpt>
      <trkpt lat="49.53288" lon="-1.39306">
        <ele>38.9</ele>
        <time>2020-06-15T13:33:08Z</time>
      </trkpt>
      <trkpt lat="49.53287" lon="-1.393">
        <ele>39.1</ele>
        <time>2020-06-15T13:33:09Z</time>
      </trkpt>
      <trkpt lat="49.53286" lon="-1.39295">
        <ele>39.2</ele>
        <time>2020-06-15T13:33:10Z</time>
      </trkpt>
      <trkpt lat="49.53284" lon="-1.3929">
        <ele>39.4</ele>
        <time>2020-06-15T13:33:11Z</time>
      </trkpt>
      <trkpt lat="49.53283" lon="-1.39284">
        <ele>39.5</ele>
        <time>2020-06-15T13:33:12Z</time>
      </trkpt>
      <trkpt lat="49.53281" lon="-1.39277">
        <ele>39.7</ele>
        <time>2020-06-15T13:33:13Z</time>
      </trkpt>
      <trkpt lat="49.53279" lon="-1.3927">
        <ele>39.9</ele>
        <time>2020-06-15T13:33:14Z</time>
      </trkpt>
      <trkpt lat="49.53278" lon="-1.39264">
        <ele>40.1</ele>
        <time>2020-06-15T13:33:15Z</time>
      </trkpt>
      <trkpt lat="49.53276" lon="-1.39257">
        <ele>40.3</ele>
        <time>2020-06-15T13:33:16Z</time>
      </trkpt>
      <trkpt lat="49.53274" lon="-1.3925">
        <ele>40.4</ele>
        <time>2020-06-15T13:33:17Z</time>
      </trkpt>
      <trkpt lat="49.53272" lon="-1.39244">
        <ele>40.6</ele>
        <time>2020-06-15T13:33:18Z</time>
      </trkpt>
      <trkpt lat="49.53271" lon="-1.39238">
        <ele>40.7</ele>
        <time>2020-06-15T13:33:19Z</time>
      </trkpt>
      <trkpt lat="49.53269" lon="-1.39232">
        <ele>40.8</ele>
        <time>2020-06-15T13:33:20Z</time>
      </trkpt>
      <trkpt lat="49.53269" lon="-1.39227">
        <ele>41</ele>
        <time>2020-06-15T13:33:21Z</time>
      </trkpt>
      <trkpt lat="49.53267" lon="-1.39222">
        <ele>41.1</ele>
        <time>2020-06-15T13:33:22Z</time>
      </trkpt>
      <trkpt lat="49.53265" lon="-1.39215">
        <ele>41.2</ele>
        <time>2020-06-15T13:33:23Z</time>
      </trkpt>
      <trkpt lat="49.53264" lon="-1.39209">
        <ele>41.4</ele>
        <time>2020-06-15T13:33:24Z</time>
      </trkpt>
      <trkpt lat="49.53263" lon="-1.39204">
        <ele>41.4</ele>
        <time>2020-06-15T13:33:25Z</time>
      </trkpt>
      <trkpt lat="49.53262" lon="-1.39198">
        <ele>41.5</ele>
        <time>2020-06-15T13:33:26Z</time>
      </trkpt>
      <trkpt lat="49.53262" lon="-1.39192">
        <ele>41.6</ele>
        <time>2020-06-15T13:33:27Z</time>
      </trkpt>
      <trkpt lat="49.5326" lon="-1.39185">
        <ele>41.7</ele>
        <time>2020-06-15T13:33:28Z</time>
      </trkpt>
      <trkpt lat="49.53259" lon="-1.39181">
        <ele>41.8</ele>
        <time>2020-06-15T13:33:29Z</time>
      </trkpt>
      <trkpt lat="49.53258" lon="-1.39175">
        <ele>41.9</ele>
        <time>2020-06-15T13:33:30Z</time>
      </trkpt>
      <trkpt lat="49.53256" lon="-1.3917">
        <ele>42</ele>
        <time>2020-06-15T13:33:31Z</time>
      </trkpt>
      <trkpt lat="49.53254" lon="-1.39163">
        <ele>42</ele>
        <time>2020-06-15T13:33:32Z</time>
      </trkpt>
      <trkpt lat="49.53253" lon="-1.39155">
        <ele>42.1</ele>
        <time>2020-06-15T13:33:33Z</time>
      </trkpt>
      <trkpt lat="49.53251" lon="-1.3915">
        <ele>42.1</ele>
        <time>2020-06-15T13:33:34Z</time>
      </trkpt>
      <trkpt lat="49.5325" lon="-1.39143">
        <ele>42.1</ele>
        <time>2020-06-15T13:33:35Z</time>
      </trkpt>
      <trkpt lat="49.53247" lon="-1.39138">
        <ele>42.2</ele>
        <time>2020-06-15T13:33:36Z</time>
      </trkpt>
      <trkpt lat="49.53245" lon="-1.39132">
        <ele>42.2</ele>
        <time>2020-06-15T13:33:37Z</time>
      </trkpt>
      <trkpt lat="49.53244" lon="-1.39125">
        <ele>42.2</ele>
        <time>2020-06-15T13:33:38Z</time>
      </trkpt>
      <trkpt lat="49.53242" lon="-1.39118">
        <ele>42.2</ele>
        <time>2020-06-15T13:33:39Z</time>
      </trkpt>
      <trkpt lat="49.53242" lon="-1.39113">
        <ele>42.3</ele>
        <time>2020-06-15T13:33:40Z</time>
      </trkpt>
      <trkpt lat="49.53241" lon="-1.39105">
        <ele>42.3</ele>
        <time>2020-06-15T13:33:41Z</time>
      </trkpt>
      <trkpt lat="49.53239" lon="-1.39099">
        <ele>42.3</ele>
        <time>2020-06-15T13:33:42Z</time>
      </trkpt>
      <trkpt lat="49.53237" lon="-1.39093">
        <ele>42.3</ele>
        <time>2020-06-15T13:33:43Z</time>
      </trkpt>
      <trkpt lat="49.53236" lon="-1.39087">
        <ele>42.4</ele>
        <time>2020-06-15T13:33:44Z</time>
      </trkpt>
      <trkpt lat="49.53234" lon="-1.3908">
        <ele>42.4</ele>
        <time>2020-06-15T13:33:45Z</time>
      </trkpt>
      <trkpt lat="49.53233" lon="-1.39074">
        <ele>42.4</ele>
        <time>2020-06-15T13:33:46Z</time>
      </trkpt>
      <trkpt lat="49.53232" lon="-1.39068">
        <ele>42.5</ele>
        <time>2020-06-15T13:33:47Z</time>
      </trkpt>
      <trkpt lat="49.53231" lon="-1.39062">
        <ele>42.5</ele>
        <time>2020-06-15T13:33:48Z</time>
      </trkpt>
      <trkpt lat="49.5323" lon="-1.39056">
        <ele>42.5</ele>
        <time>2020-06-15T13:33:49Z</time>
      </trkpt>
      <trkpt lat="49.53227" lon="-1.39049">
        <ele>42.5</ele>
        <time>2020-06-15T13:33:50Z</time>
      </trkpt>
      <trkpt lat="49.53226" lon="-1.39041">
        <ele>42.6</ele>
        <time>2020-06-15T13:33:51Z</time>
      </trkpt>
      <trkpt lat="49.53225" lon="-1.39035">
        <ele>42.6</ele>
        <time>2020-06-15T13:33:52Z</time>
      </trkpt>
      <trkpt lat="49.53225" lon="-1.39029">
        <ele>42.6</ele>
        <time>2020-06-15T13:33:53Z</time>
      </trkpt>
      <trkpt lat="49.53223" lon="-1.39023">
        <ele>42.6</ele>
        <time>2020-06-15T13:33:54Z</time>
      </trkpt>
      <trkpt lat="49.53222" lon="-1.39018">
        <ele>42.7</ele>
        <time>2020-06-15T13:33:55Z</time>
      </trkpt>
      <trkpt lat="49.53221" lon="-1.3901">
        <ele>42.7</ele>
        <time>2020-06-15T13:33:56Z</time>
      </trkpt>
      <trkpt lat="49.5322" lon="-1.39003">
        <ele>42.7</ele>
        <time>2020-06-15T13:33:57Z</time>
      </trkpt>
      <trkpt lat="49.53218" lon="-1.38997">
        <ele>42.8</ele>
        <time>2020-06-15T13:33:58Z</time>
      </trkpt>
      <trkpt lat="49.53217" lon="-1.38989">
        <ele>42.8</ele>
        <time>2020-06-15T13:33:59Z</time>
      </trkpt>
      <trkpt lat="49.53215" lon="-1.38983">
        <ele>42.8</ele>
        <time>2020-06-15T13:34:00Z</time>
      </trkpt>
      <trkpt lat="49.53213" lon="-1.38978">
        <ele>42.9</ele>
        <time>2020-06-15T13:34:01Z</time>
      </trkpt>
      <trkpt lat="49.53212" lon="-1.38972">
        <ele>42.9</ele>
        <time>2020-06-15T13:34:02Z</time>
      </trkpt>
      <trkpt lat="49.5321" lon="-1.38966">
        <ele>42.9</ele>
        <time>2020-06-15T13:34:03Z</time>
      </trkpt>
      <trkpt lat="49.53208" lon="-1.38959">
        <ele>42.9</ele>
        <time>2020-06-15T13:34:04Z</time>
      </trkpt>
      <trkpt lat="49.53206" lon="-1.38952">
        <ele>43</ele>
        <time>2020-06-15T13:34:05Z</time>
      </trkpt>
      <trkpt lat="49.53204" lon="-1.38946">
        <ele>43</ele>
        <time>2020-06-15T13:34:06Z</time>
      </trkpt>
      <trkpt lat="49.53202" lon="-1.3894">
        <ele>43</ele>
        <time>2020-06-15T13:34:07Z</time>
      </trkpt>
      <trkpt lat="49.532" lon="-1.38933">
        <ele>43.1</ele>
        <time>2020-06-15T13:34:08Z</time>
      </trkpt>
      <trkpt lat="49.53198" lon="-1.38927">
        <ele>43.1</ele>
        <time>2020-06-15T13:34:09Z</time>
      </trkpt>
      <trkpt lat="49.53196" lon="-1.3892">
        <ele>43.1</ele>
        <time>2020-06-15T13:34:10Z</time>
      </trkpt>
      <trkpt lat="49.53193" lon="-1.38914">
        <ele>43.1</ele>
        <time>2020-06-15T13:34:11Z</time>
      </trkpt>
      <trkpt lat="49.53191" lon="-1.38908">
        <ele>43.1</ele>
        <time>2020-06-15T13:34:12Z</time>
      </trkpt>
      <trkpt lat="49.53189" lon="-1.38902">
        <ele>43.1</ele>
        <time>2020-06-15T13:34:13Z</time>
      </trkpt>
      <trkpt lat="49.53187" lon="-1.38896">
        <ele>43.1</ele>
        <time>2020-06-15T13:34:14Z</time>
      </trkpt>
      <trkpt lat="49.53185" lon="-1.38889">
        <ele>43.1</ele>
        <time>2020-06-15T13:34:15Z</time>
      </trkpt>
      <trkpt lat="49.53183" lon="-1.38883">
        <ele>43.2</ele>
        <time>2020-06-15T13:34:16Z</time>
      </trkpt>
      <trkpt lat="49.5318" lon="-1.38878">
        <ele>43.2</ele>
        <time>2020-06-15T13:34:17Z</time>
      </trkpt>
      <trkpt lat="49.53177" lon="-1.38871">
        <ele>43.3</ele>
        <time>2020-06-15T13:34:18Z</time>
      </trkpt>
      <trkpt lat="49.53175" lon="-1.38864">
        <ele>43.3</ele>
        <time>2020-06-15T13:34:19Z</time>
      </trkpt>
      <trkpt lat="49.53172" lon="-1.38857">
        <ele>43.4</ele>
        <time>2020-06-15T13:34:20Z</time>
      </trkpt>
      <trkpt lat="49.53169" lon="-1.38851">
        <ele>43.4</ele>
        <time>2020-06-15T13:34:21Z</time>
      </trkpt>
      <trkpt lat="49.53167" lon="-1.38844">
        <ele>43.5</ele>
        <time>2020-06-15T13:34:22Z</time>
      </trkpt>
      <trkpt lat="49.53164" lon="-1.38839">
        <ele>43.5</ele>
        <time>2020-06-15T13:34:23Z</time>
      </trkpt>
      <trkpt lat="49.53162" lon="-1.38834">
        <ele>43.5</ele>
        <time>2020-06-15T13:34:24Z</time>
      </trkpt>
      <trkpt lat="49.53159" lon="-1.38829">
        <ele>43.5</ele>
        <time>2020-06-15T13:34:25Z</time>
      </trkpt>
      <trkpt lat="49.53156" lon="-1.38823">
        <ele>43.4</ele>
        <time>2020-06-15T13:34:26Z</time>
      </trkpt>
      <trkpt lat="49.53153" lon="-1.38818">
        <ele>43.4</ele>
        <time>2020-06-15T13:34:27Z</time>
      </trkpt>
      <trkpt lat="49.53151" lon="-1.38812">
        <ele>43.4</ele>
        <time>2020-06-15T13:34:28Z</time>
      </trkpt>
      <trkpt lat="49.53148" lon="-1.38806">
        <ele>43.3</ele>
        <time>2020-06-15T13:34:29Z</time>
      </trkpt>
      <trkpt lat="49.53145" lon="-1.388">
        <ele>43.3</ele>
        <time>2020-06-15T13:34:30Z</time>
      </trkpt>
      <trkpt lat="49.53143" lon="-1.38794">
        <ele>43.3</ele>
        <time>2020-06-15T13:34:31Z</time>
      </trkpt>
      <trkpt lat="49.5314" lon="-1.38788">
        <ele>43.2</ele>
        <time>2020-06-15T13:34:32Z</time>
      </trkpt>
      <trkpt lat="49.53137" lon="-1.38782">
        <ele>43.1</ele>
        <time>2020-06-15T13:34:33Z</time>
      </trkpt>
      <trkpt lat="49.53134" lon="-1.38777">
        <ele>43</ele>
        <time>2020-06-15T13:34:34Z</time>
      </trkpt>
      <trkpt lat="49.53131" lon="-1.3877">
        <ele>43</ele>
        <time>2020-06-15T13:34:35Z</time>
      </trkpt>
      <trkpt lat="49.53127" lon="-1.38765">
        <ele>42.9</ele>
        <time>2020-06-15T13:34:36Z</time>
      </trkpt>
      <trkpt lat="49.53124" lon="-1.3876">
        <ele>42.8</ele>
        <time>2020-06-15T13:34:37Z</time>
      </trkpt>
      <trkpt lat="49.53121" lon="-1.38755">
        <ele>42.8</ele>
        <time>2020-06-15T13:34:38Z</time>
      </trkpt>
      <trkpt lat="49.53118" lon="-1.38748">
        <ele>42.7</ele>
        <time>2020-06-15T13:34:39Z</time>
      </trkpt>
      <trkpt lat="49.53115" lon="-1.38743">
        <ele>42.7</ele>
        <time>2020-06-15T13:34:40Z</time>
      </trkpt>
      <trkpt lat="49.53112" lon="-1.38737">
        <ele>42.7</ele>
        <time>2020-06-15T13:34:41Z</time>
      </trkpt>
      <trkpt lat="49.53109" lon="-1.3873">
        <ele>42.7</ele>
        <time>2020-06-15T13:34:42Z</time>
      </trkpt>
      <trkpt lat="49.53107" lon="-1.38724">
        <ele>42.6</ele>
        <time>2020-06-15T13:34:43Z</time>
      </trkpt>
      <trkpt lat="49.53103" lon="-1.38718">
        <ele>42.6</ele>
        <time>2020-06-15T13:34:44Z</time>
      </trkpt>
      <trkpt lat="49.531" lon="-1.38711">
        <ele>42.6</ele>
        <time>2020-06-15T13:34:45Z</time>
      </trkpt>
      <trkpt lat="49.53096" lon="-1.38705">
        <ele>42.5</ele>
        <time>2020-06-15T13:34:46Z</time>
      </trkpt>
      <trkpt lat="49.53093" lon="-1.38698">
        <ele>42.5</ele>
        <time>2020-06-15T13:34:47Z</time>
      </trkpt>
      <trkpt lat="49.5309" lon="-1.38691">
        <ele>42.4</ele>
        <time>2020-06-15T13:34:48Z</time>
      </trkpt>
      <trkpt lat="49.53086" lon="-1.38683">
        <ele>42.4</ele>
        <time>2020-06-15T13:34:49Z</time>
      </trkpt>
      <trkpt lat="49.53083" lon="-1.38676">
        <ele>42.3</ele>
        <time>2020-06-15T13:34:50Z</time>
      </trkpt>
      <trkpt lat="49.5308" lon="-1.38669">
        <ele>42.3</ele>
        <time>2020-06-15T13:34:51Z</time>
      </trkpt>
      <trkpt lat="49.53077" lon="-1.38662">
        <ele>42.2</ele>
        <time>2020-06-15T13:34:52Z</time>
      </trkpt>
      <trkpt lat="49.53073" lon="-1.38653">
        <ele>42.1</ele>
        <time>2020-06-15T13:34:53Z</time>
      </trkpt>
      <trkpt lat="49.5307" lon="-1.38646">
        <ele>42.1</ele>
        <time>2020-06-15T13:34:54Z</time>
      </trkpt>
      <trkpt lat="49.53066" lon="-1.38637">
        <ele>42</ele>
        <time>2020-06-15T13:34:55Z</time>
      </trkpt>
      <trkpt lat="49.53063" lon="-1.3863">
        <ele>42</ele>
        <time>2020-06-15T13:34:56Z</time>
      </trkpt>
      <trkpt lat="49.53059" lon="-1.38624">
        <ele>42</ele>
        <time>2020-06-15T13:34:57Z</time>
      </trkpt>
      <trkpt lat="49.53055" lon="-1.38617">
        <ele>41.9</ele>
        <time>2020-06-15T13:34:58Z</time>
      </trkpt>
      <trkpt lat="49.53052" lon="-1.38611">
        <ele>41.9</ele>
        <time>2020-06-15T13:34:59Z</time>
      </trkpt>
      <trkpt lat="49.53048" lon="-1.38605">
        <ele>41.9</ele>
        <time>2020-06-15T13:35:00Z</time>
      </trkpt>
      <trkpt lat="49.53045" lon="-1.38598">
        <ele>41.8</ele>
        <time>2020-06-15T13:35:01Z</time>
      </trkpt>
      <trkpt lat="49.53043" lon="-1.38592">
        <ele>41.7</ele>
        <time>2020-06-15T13:35:02Z</time>
      </trkpt>
      <trkpt lat="49.53039" lon="-1.38585">
        <ele>41.7</ele>
        <time>2020-06-15T13:35:03Z</time>
      </trkpt>
      <trkpt lat="49.53034" lon="-1.3858">
        <ele>41.6</ele>
        <time>2020-06-15T13:35:04Z</time>
      </trkpt>
      <trkpt lat="49.5303" lon="-1.38573">
        <ele>41.5</ele>
        <time>2020-06-15T13:35:05Z</time>
      </trkpt>
      <trkpt lat="49.53026" lon="-1.38568">
        <ele>41.4</ele>
        <time>2020-06-15T13:35:06Z</time>
      </trkpt>
      <trkpt lat="49.53022" lon="-1.38562">
        <ele>41.3</ele>
        <time>2020-06-15T13:35:07Z</time>
      </trkpt>
      <trkpt lat="49.53017" lon="-1.38557">
        <ele>41.3</ele>
        <time>2020-06-15T13:35:08Z</time>
      </trkpt>
      <trkpt lat="49.53013" lon="-1.38551">
        <ele>41.2</ele>
        <time>2020-06-15T13:35:09Z</time>
      </trkpt>
      <trkpt lat="49.53008" lon="-1.38547">
        <ele>41.2</ele>
        <time>2020-06-15T13:35:10Z</time>
      </trkpt>
      <trkpt lat="49.53004" lon="-1.38542">
        <ele>41.2</ele>
        <time>2020-06-15T13:35:11Z</time>
      </trkpt>
      <trkpt lat="49.53" lon="-1.38538">
        <ele>41.2</ele>
        <time>2020-06-15T13:35:12Z</time>
      </trkpt>
      <trkpt lat="49.52995" lon="-1.38533">
        <ele>41.2</ele>
        <time>2020-06-15T13:35:13Z</time>
      </trkpt>
      <trkpt lat="49.52991" lon="-1.38527">
        <ele>41.1</ele>
        <time>2020-06-15T13:35:14Z</time>
      </trkpt>
      <trkpt lat="49.52987" lon="-1.38522">
        <ele>41.1</ele>
        <time>2020-06-15T13:35:15Z</time>
      </trkpt>
      <trkpt lat="49.52982" lon="-1.38516">
        <ele>41.1</ele>
        <time>2020-06-15T13:35:16Z</time>
      </trkpt>
      <trkpt lat="49.52978" lon="-1.38511">
        <ele>41</ele>
        <time>2020-06-15T13:35:17Z</time>
      </trkpt>
      <trkpt lat="49.52973" lon="-1.38505">
        <ele>40.9</ele>
        <time>2020-06-15T13:35:18Z</time>
      </trkpt>
      <trkpt lat="49.52969" lon="-1.385">
        <ele>40.8</ele>
        <time>2020-06-15T13:35:19Z</time>
      </trkpt>
      <trkpt lat="49.52965" lon="-1.38494">
        <ele>40.7</ele>
        <time>2020-06-15T13:35:20Z</time>
      </trkpt>
      <trkpt lat="49.52961" lon="-1.38489">
        <ele>40.6</ele>
        <time>2020-06-15T13:35:21Z</time>
      </trkpt>
      <trkpt lat="49.52958" lon="-1.38483">
        <ele>40.4</ele>
        <time>2020-06-15T13:35:22Z</time>
      </trkpt>
      <trkpt lat="49.52954" lon="-1.38476">
        <ele>40.2</ele>
        <time>2020-06-15T13:35:23Z</time>
      </trkpt>
      <trkpt lat="49.5295" lon="-1.38469">
        <ele>40</ele>
        <time>2020-06-15T13:35:24Z</time>
      </trkpt>
      <trkpt lat="49.52947" lon="-1.38463">
        <ele>39.8</ele>
        <time>2020-06-15T13:35:25Z</time>
      </trkpt>
      <trkpt lat="49.52944" lon="-1.38457">
        <ele>39.7</ele>
        <time>2020-06-15T13:35:26Z</time>
      </trkpt>
      <trkpt lat="49.5294" lon="-1.38451">
        <ele>39.5</ele>
        <time>2020-06-15T13:35:27Z</time>
      </trkpt>
      <trkpt lat="49.52936" lon="-1.38444">
        <ele>39.3</ele>
        <time>2020-06-15T13:35:28Z</time>
      </trkpt>
      <trkpt lat="49.52933" lon="-1.38437">
        <ele>39.1</ele>
        <time>2020-06-15T13:35:29Z</time>
      </trkpt>
      <trkpt lat="49.52929" lon="-1.3843">
        <ele>38.8</ele>
        <time>2020-06-15T13:35:30Z</time>
      </trkpt>
      <trkpt lat="49.52926" lon="-1.38424">
        <ele>38.7</ele>
        <time>2020-06-15T13:35:31Z</time>
      </trkpt>
      <trkpt lat="49.52922" lon="-1.38418">
        <ele>38.6</ele>
        <time>2020-06-15T13:35:32Z</time>
      </trkpt>
      <trkpt lat="49.52918" lon="-1.38411">
        <ele>38.5</ele>
        <time>2020-06-15T13:35:33Z</time>
      </trkpt>
      <trkpt lat="49.52914" lon="-1.38404">
        <ele>38.4</ele>
        <time>2020-06-15T13:35:34Z</time>
      </trkpt>
      <trkpt lat="49.5291" lon="-1.38398">
        <ele>38.3</ele>
        <time>2020-06-15T13:35:35Z</time>
      </trkpt>
      <trkpt lat="49.52906" lon="-1.3839">
        <ele>38.1</ele>
        <time>2020-06-15T13:35:36Z</time>
      </trkpt>
      <trkpt lat="49.52902" lon="-1.38384">
        <ele>38.1</ele>
        <time>2020-06-15T13:35:37Z</time>
      </trkpt>
      <trkpt lat="49.52898" lon="-1.38378">
        <ele>38.1</ele>
        <time>2020-06-15T13:35:38Z</time>
      </trkpt>
      <trkpt lat="49.52895" lon="-1.38373">
        <ele>38</ele>
        <time>2020-06-15T13:35:39Z</time>
      </trkpt>
      <trkpt lat="49.52892" lon="-1.38369">
        <ele>38</ele>
        <time>2020-06-15T13:35:40Z</time>
      </trkpt>
      <trkpt lat="49.52889" lon="-1.38366">
        <ele>38</ele>
        <time>2020-06-15T13:35:41Z</time>
      </trkpt>
      <trkpt lat="49.52887" lon="-1.38363">
        <ele>37.9</ele>
        <time>2020-06-15T13:35:42Z</time>
      </trkpt>
      <trkpt lat="49.52885" lon="-1.38362">
        <ele>37.9</ele>
        <time>2020-06-15T13:35:43Z</time>
      </trkpt>
      <trkpt lat="49.52884" lon="-1.38361">
        <ele>37.9</ele>
        <time>2020-06-15T13:35:44Z</time>
      </trkpt>
      <trkpt lat="49.52882" lon="-1.38358">
        <ele>37.8</ele>
        <time>2020-06-15T13:35:45Z</time>
      </trkpt>
      <trkpt lat="49.52881" lon="-1.38358">
        <ele>37.8</ele>
        <time>2020-06-15T13:35:46Z</time>
      </trkpt>
      <trkpt lat="49.52881" lon="-1.38354">
        <ele>37.7</ele>
        <time>2020-06-15T13:35:47Z</time>
      </trkpt>
      <trkpt lat="49.52881" lon="-1.38352">
        <ele>37.7</ele>
        <time>2020-06-15T13:35:48Z</time>
      </trkpt>
      <trkpt lat="49.52881" lon="-1.38347">
        <ele>37.6</ele>
        <time>2020-06-15T13:35:49Z</time>
      </trkpt>
      <trkpt lat="49.52881" lon="-1.38342">
        <ele>37.5</ele>
        <time>2020-06-15T13:35:50Z</time>
      </trkpt>
      <trkpt lat="49.5288" lon="-1.38336">
        <ele>37.4</ele>
        <time>2020-06-15T13:35:51Z</time>
      </trkpt>
      <trkpt lat="49.5288" lon="-1.3833">
        <ele>37.3</ele>
        <time>2020-06-15T13:35:52Z</time>
      </trkpt>
      <trkpt lat="49.52879" lon="-1.38323">
        <ele>37.3</ele>
        <time>2020-06-15T13:35:53Z</time>
      </trkpt>
      <trkpt lat="49.52877" lon="-1.38317">
        <ele>37.2</ele>
        <time>2020-06-15T13:35:54Z</time>
      </trkpt>
      <trkpt lat="49.52875" lon="-1.3831">
        <ele>37.2</ele>
        <time>2020-06-15T13:35:55Z</time>
      </trkpt>
      <trkpt lat="49.52873" lon="-1.38303">
        <ele>37.2</ele>
        <time>2020-06-15T13:35:56Z</time>
      </trkpt>
      <trkpt lat="49.52872" lon="-1.38297">
        <ele>37.1</ele>
        <time>2020-06-15T13:35:57Z</time>
      </trkpt>
      <trkpt lat="49.5287" lon="-1.3829">
        <ele>37.1</ele>
        <time>2020-06-15T13:35:58Z</time>
      </trkpt>
      <trkpt lat="49.52868" lon="-1.38283">
        <ele>37.1</ele>
        <time>2020-06-15T13:35:59Z</time>
      </trkpt>
      <trkpt lat="49.52866" lon="-1.38276">
        <ele>37</ele>
        <time>2020-06-15T13:36:00Z</time>
      </trkpt>
      <trkpt lat="49.52863" lon="-1.38271">
        <ele>37</ele>
        <time>2020-06-15T13:36:01Z</time>
      </trkpt>
      <trkpt lat="49.52861" lon="-1.38264">
        <ele>37</ele>
        <time>2020-06-15T13:36:02Z</time>
      </trkpt>
      <trkpt lat="49.52859" lon="-1.38258">
        <ele>37</ele>
        <time>2020-06-15T13:36:03Z</time>
      </trkpt>
      <trkpt lat="49.52857" lon="-1.38252">
        <ele>37</ele>
        <time>2020-06-15T13:36:04Z</time>
      </trkpt>
      <trkpt lat="49.52855" lon="-1.38246">
        <ele>37</ele>
        <time>2020-06-15T13:36:05Z</time>
      </trkpt>
      <trkpt lat="49.52852" lon="-1.38239">
        <ele>36.9</ele>
        <time>2020-06-15T13:36:06Z</time>
      </trkpt>
      <trkpt lat="49.5285" lon="-1.38232">
        <ele>36.9</ele>
        <time>2020-06-15T13:36:07Z</time>
      </trkpt>
      <trkpt lat="49.52848" lon="-1.38226">
        <ele>37</ele>
        <time>2020-06-15T13:36:08Z</time>
      </trkpt>
      <trkpt lat="49.52845" lon="-1.38221">
        <ele>37</ele>
        <time>2020-06-15T13:36:09Z</time>
      </trkpt>
      <trkpt lat="49.52843" lon="-1.38216">
        <ele>37</ele>
        <time>2020-06-15T13:36:10Z</time>
      </trkpt>
      <trkpt lat="49.5284" lon="-1.38211">
        <ele>37</ele>
        <time>2020-06-15T13:36:11Z</time>
      </trkpt>
      <trkpt lat="49.52837" lon="-1.38206">
        <ele>36.9</ele>
        <time>2020-06-15T13:36:12Z</time>
      </trkpt>
      <trkpt lat="49.52834" lon="-1.382">
        <ele>36.8</ele>
        <time>2020-06-15T13:36:13Z</time>
      </trkpt>
      <trkpt lat="49.52831" lon="-1.38194">
        <ele>36.7</ele>
        <time>2020-06-15T13:36:14Z</time>
      </trkpt>
      <trkpt lat="49.52828" lon="-1.38188">
        <ele>36.6</ele>
        <time>2020-06-15T13:36:15Z</time>
      </trkpt>
      <trkpt lat="49.52825" lon="-1.38183">
        <ele>36.5</ele>
        <time>2020-06-15T13:36:16Z</time>
      </trkpt>
      <trkpt lat="49.52822" lon="-1.38176">
        <ele>36.4</ele>
        <time>2020-06-15T13:36:17Z</time>
      </trkpt>
      <trkpt lat="49.52819" lon="-1.3817">
        <ele>36.4</ele>
        <time>2020-06-15T13:36:18Z</time>
      </trkpt>
      <trkpt lat="49.52815" lon="-1.38163">
        <ele>36.3</ele>
        <time>2020-06-15T13:36:19Z</time>
      </trkpt>
      <trkpt lat="49.52812" lon="-1.38158">
        <ele>36.3</ele>
        <time>2020-06-15T13:36:20Z</time>
      </trkpt>
      <trkpt lat="49.52808" lon="-1.38152">
        <ele>36.2</ele>
        <time>2020-06-15T13:36:21Z</time>
      </trkpt>
      <trkpt lat="49.52805" lon="-1.38146">
        <ele>36.1</ele>
        <time>2020-06-15T13:36:22Z</time>
      </trkpt>
      <trkpt lat="49.52802" lon="-1.38139">
        <ele>36.1</ele>
        <time>2020-06-15T13:36:23Z</time>
      </trkpt>
      <trkpt lat="49.52798" lon="-1.38132">
        <ele>36</ele>
        <time>2020-06-15T13:36:24Z</time>
      </trkpt>
      <trkpt lat="49.52795" lon="-1.38125">
        <ele>36</ele>
        <time>2020-06-15T13:36:25Z</time>
      </trkpt>
      <trkpt lat="49.52792" lon="-1.38119">
        <ele>35.9</ele>
        <time>2020-06-15T13:36:26Z</time>
      </trkpt>
      <trkpt lat="49.52789" lon="-1.38113">
        <ele>35.8</ele>
        <time>2020-06-15T13:36:27Z</time>
      </trkpt>
      <trkpt lat="49.52786" lon="-1.38106">
        <ele>35.8</ele>
        <time>2020-06-15T13:36:28Z</time>
      </trkpt>
      <trkpt lat="49.52781" lon="-1.38099">
        <ele>35.7</ele>
        <time>2020-06-15T13:36:29Z</time>
      </trkpt>
      <trkpt lat="49.52777" lon="-1.38092">
        <ele>35.6</ele>
        <time>2020-06-15T13:36:30Z</time>
      </trkpt>
      <trkpt lat="49.52772" lon="-1.38086">
        <ele>35.6</ele>
        <time>2020-06-15T13:36:31Z</time>
      </trkpt>
      <trkpt lat="49.52768" lon="-1.3808">
        <ele>35.5</ele>
        <time>2020-06-15T13:36:32Z</time>
      </trkpt>
      <trkpt lat="49.52764" lon="-1.38074">
        <ele>35.5</ele>
        <time>2020-06-15T13:36:33Z</time>
      </trkpt>
      <trkpt lat="49.5276" lon="-1.38068">
        <ele>35.5</ele>
        <time>2020-06-15T13:36:34Z</time>
      </trkpt>
      <trkpt lat="49.52755" lon="-1.38061">
        <ele>35.5</ele>
        <time>2020-06-15T13:36:35Z</time>
      </trkpt>
      <trkpt lat="49.52751" lon="-1.38055">
        <ele>35.5</ele>
        <time>2020-06-15T13:36:36Z</time>
      </trkpt>
      <trkpt lat="49.52747" lon="-1.38048">
        <ele>35.4</ele>
        <time>2020-06-15T13:36:37Z</time>
      </trkpt>
      <trkpt lat="49.52743" lon="-1.38043">
        <ele>35.4</ele>
        <time>2020-06-15T13:36:38Z</time>
      </trkpt>
      <trkpt lat="49.52739" lon="-1.38039">
        <ele>35.4</ele>
        <time>2020-06-15T13:36:39Z</time>
      </trkpt>
      <trkpt lat="49.52735" lon="-1.38033">
        <ele>35.4</ele>
        <time>2020-06-15T13:36:40Z</time>
      </trkpt>
      <trkpt lat="49.52731" lon="-1.38028">
        <ele>35.3</ele>
        <time>2020-06-15T13:36:41Z</time>
      </trkpt>
      <trkpt lat="49.52727" lon="-1.38022">
        <ele>35.3</ele>
        <time>2020-06-15T13:36:42Z</time>
      </trkpt>
      <trkpt lat="49.52722" lon="-1.38017">
        <ele>35.3</ele>
        <time>2020-06-15T13:36:43Z</time>
      </trkpt>
      <trkpt lat="49.52718" lon="-1.38012">
        <ele>35.3</ele>
        <time>2020-06-15T13:36:44Z</time>
      </trkpt>
      <trkpt lat="49.52713" lon="-1.38005">
        <ele>35.3</ele>
        <time>2020-06-15T13:36:45Z</time>
      </trkpt>
      <trkpt lat="49.52708" lon="-1.37999">
        <ele>35.3</ele>
        <time>2020-06-15T13:36:46Z</time>
      </trkpt>
      <trkpt lat="49.52703" lon="-1.37993">
        <ele>35.2</ele>
        <time>2020-06-15T13:36:47Z</time>
      </trkpt>
      <trkpt lat="49.52699" lon="-1.37986">
        <ele>35.2</ele>
        <time>2020-06-15T13:36:48Z</time>
      </trkpt>
      <trkpt lat="49.52695" lon="-1.37979">
        <ele>35.2</ele>
        <time>2020-06-15T13:36:49Z</time>
      </trkpt>
      <trkpt lat="49.52691" lon="-1.37972">
        <ele>35.1</ele>
        <time>2020-06-15T13:36:50Z</time>
      </trkpt>
      <trkpt lat="49.52686" lon="-1.37965">
        <ele>35.1</ele>
        <time>2020-06-15T13:36:51Z</time>
      </trkpt>
      <trkpt lat="49.52682" lon="-1.37958">
        <ele>35.1</ele>
        <time>2020-06-15T13:36:52Z</time>
      </trkpt>
      <trkpt lat="49.52677" lon="-1.37952">
        <ele>35</ele>
        <time>2020-06-15T13:36:53Z</time>
      </trkpt>
      <trkpt lat="49.52673" lon="-1.37946">
        <ele>35</ele>
        <time>2020-06-15T13:36:54Z</time>
      </trkpt>
      <trkpt lat="49.52669" lon="-1.3794">
        <ele>34.9</ele>
        <time>2020-06-15T13:36:55Z</time>
      </trkpt>
      <trkpt lat="49.52665" lon="-1.37932">
        <ele>34.9</ele>
        <time>2020-06-15T13:36:56Z</time>
      </trkpt>
      <trkpt lat="49.5266" lon="-1.37925">
        <ele>34.8</ele>
        <time>2020-06-15T13:36:57Z</time>
      </trkpt>
      <trkpt lat="49.52655" lon="-1.37918">
        <ele>34.7</ele>
        <time>2020-06-15T13:36:58Z</time>
      </trkpt>
      <trkpt lat="49.5265" lon="-1.37912">
        <ele>34.6</ele>
        <time>2020-06-15T13:36:59Z</time>
      </trkpt>
      <trkpt lat="49.52645" lon="-1.37906">
        <ele>34.6</ele>
        <time>2020-06-15T13:37:00Z</time>
      </trkpt>
      <trkpt lat="49.5264" lon="-1.37901">
        <ele>34.5</ele>
        <time>2020-06-15T13:37:01Z</time>
      </trkpt>
      <trkpt lat="49.52635" lon="-1.37895">
        <ele>34.5</ele>
        <time>2020-06-15T13:37:02Z</time>
      </trkpt>
      <trkpt lat="49.5263" lon="-1.3789">
        <ele>34.4</ele>
        <time>2020-06-15T13:37:03Z</time>
      </trkpt>
      <trkpt lat="49.52625" lon="-1.37885">
        <ele>34.4</ele>
        <time>2020-06-15T13:37:04Z</time>
      </trkpt>
      <trkpt lat="49.5262" lon="-1.37881">
        <ele>34.3</ele>
        <time>2020-06-15T13:37:05Z</time>
      </trkpt>
      <trkpt lat="49.52615" lon="-1.37876">
        <ele>34.3</ele>
        <time>2020-06-15T13:37:06Z</time>
      </trkpt>
      <trkpt lat="49.5261" lon="-1.37871">
        <ele>34.2</ele>
        <time>2020-06-15T13:37:07Z</time>
      </trkpt>
      <trkpt lat="49.52605" lon="-1.37867">
        <ele>34.2</ele>
        <time>2020-06-15T13:37:08Z</time>
      </trkpt>
      <trkpt lat="49.526" lon="-1.37861">
        <ele>34.1</ele>
        <time>2020-06-15T13:37:09Z</time>
      </trkpt>
      <trkpt lat="49.52595" lon="-1.37855">
        <ele>34.1</ele>
        <time>2020-06-15T13:37:10Z</time>
      </trkpt>
      <trkpt lat="49.5259" lon="-1.3785">
        <ele>34</ele>
        <time>2020-06-15T13:37:11Z</time>
      </trkpt>
      <trkpt lat="49.52584" lon="-1.37846">
        <ele>34</ele>
        <time>2020-06-15T13:37:12Z</time>
      </trkpt>
      <trkpt lat="49.5258" lon="-1.37842">
        <ele>34</ele>
        <time>2020-06-15T13:37:13Z</time>
      </trkpt>
      <trkpt lat="49.52575" lon="-1.37837">
        <ele>34</ele>
        <time>2020-06-15T13:37:14Z</time>
      </trkpt>
      <trkpt lat="49.52569" lon="-1.37833">
        <ele>34</ele>
        <time>2020-06-15T13:37:15Z</time>
      </trkpt>
      <trkpt lat="49.52565" lon="-1.37829">
        <ele>34</ele>
        <time>2020-06-15T13:37:16Z</time>
      </trkpt>
      <trkpt lat="49.52559" lon="-1.37825">
        <ele>34</ele>
        <time>2020-06-15T13:37:17Z</time>
      </trkpt>
      <trkpt lat="49.52555" lon="-1.37822">
        <ele>33.9</ele>
        <time>2020-06-15T13:37:18Z</time>
      </trkpt>
      <trkpt lat="49.5255" lon="-1.37819">
        <ele>33.9</ele>
        <time>2020-06-15T13:37:19Z</time>
      </trkpt>
      <trkpt lat="49.52546" lon="-1.37815">
        <ele>33.9</ele>
        <time>2020-06-15T13:37:20Z</time>
      </trkpt>
      <trkpt lat="49.52541" lon="-1.3781">
        <ele>33.9</ele>
        <time>2020-06-15T13:37:21Z</time>
      </trkpt>
      <trkpt lat="49.52537" lon="-1.37806">
        <ele>33.8</ele>
        <time>2020-06-15T13:37:22Z</time>
      </trkpt>
      <trkpt lat="49.52531" lon="-1.378">
        <ele>33.8</ele>
        <time>2020-06-15T13:37:23Z</time>
      </trkpt>
      <trkpt lat="49.52526" lon="-1.37795">
        <ele>33.8</ele>
        <time>2020-06-15T13:37:24Z</time>
      </trkpt>
      <trkpt lat="49.52522" lon="-1.37789">
        <ele>33.7</ele>
        <time>2020-06-15T13:37:25Z</time>
      </trkpt>
      <trkpt lat="49.52516" lon="-1.37783">
        <ele>33.7</ele>
        <time>2020-06-15T13:37:26Z</time>
      </trkpt>
      <trkpt lat="49.52512" lon="-1.37778">
        <ele>33.7</ele>
        <time>2020-06-15T13:37:27Z</time>
      </trkpt>
      <trkpt lat="49.52507" lon="-1.37773">
        <ele>33.7</ele>
        <time>2020-06-15T13:37:28Z</time>
      </trkpt>
      <trkpt lat="49.52502" lon="-1.37766">
        <ele>33.6</ele>
        <time>2020-06-15T13:37:29Z</time>
      </trkpt>
      <trkpt lat="49.52498" lon="-1.37761">
        <ele>33.6</ele>
        <time>2020-06-15T13:37:30Z</time>
      </trkpt>
      <trkpt lat="49.52494" lon="-1.37754">
        <ele>33.5</ele>
        <time>2020-06-15T13:37:31Z</time>
      </trkpt>
      <trkpt lat="49.5249" lon="-1.37747">
        <ele>33.5</ele>
        <time>2020-06-15T13:37:32Z</time>
      </trkpt>
      <trkpt lat="49.52486" lon="-1.3774">
        <ele>33.5</ele>
        <time>2020-06-15T13:37:33Z</time>
      </trkpt>
      <trkpt lat="49.52483" lon="-1.37733">
        <ele>33.4</ele>
        <time>2020-06-15T13:37:34Z</time>
      </trkpt>
      <trkpt lat="49.52479" lon="-1.37725">
        <ele>33.4</ele>
        <time>2020-06-15T13:37:35Z</time>
      </trkpt>
      <trkpt lat="49.52476" lon="-1.37718">
        <ele>33.4</ele>
        <time>2020-06-15T13:37:36Z</time>
      </trkpt>
      <trkpt lat="49.52473" lon="-1.3771">
        <ele>33.4</ele>
        <time>2020-06-15T13:37:37Z</time>
      </trkpt>
      <trkpt lat="49.52469" lon="-1.37702">
        <ele>33.3</ele>
        <time>2020-06-15T13:37:38Z</time>
      </trkpt>
      <trkpt lat="49.52465" lon="-1.37695">
        <ele>33.3</ele>
        <time>2020-06-15T13:37:39Z</time>
      </trkpt>
      <trkpt lat="49.52462" lon="-1.37686">
        <ele>33.3</ele>
        <time>2020-06-15T13:37:40Z</time>
      </trkpt>
      <trkpt lat="49.52458" lon="-1.37678">
        <ele>33.3</ele>
        <time>2020-06-15T13:37:41Z</time>
      </trkpt>
      <trkpt lat="49.52455" lon="-1.37669">
        <ele>33.3</ele>
        <time>2020-06-15T13:37:42Z</time>
      </trkpt>
      <trkpt lat="49.52451" lon="-1.37663">
        <ele>33.3</ele>
        <time>2020-06-15T13:37:43Z</time>
      </trkpt>
      <trkpt lat="49.52448" lon="-1.37655">
        <ele>33.3</ele>
        <time>2020-06-15T13:37:44Z</time>
      </trkpt>
      <trkpt lat="49.52444" lon="-1.37648">
        <ele>33.3</ele>
        <time>2020-06-15T13:37:45Z</time>
      </trkpt>
      <trkpt lat="49.5244" lon="-1.3764">
        <ele>33.3</ele>
        <time>2020-06-15T13:37:46Z</time>
      </trkpt>
      <trkpt lat="49.52437" lon="-1.37633">
        <ele>33.3</ele>
        <time>2020-06-15T13:37:47Z</time>
      </trkpt>
      <trkpt lat="49.52434" lon="-1.37626">
        <ele>33.3</ele>
        <time>2020-06-15T13:37:48Z</time>
      </trkpt>
      <trkpt lat="49.52431" lon="-1.3762">
        <ele>33.4</ele>
        <time>2020-06-15T13:37:49Z</time>
      </trkpt>
      <trkpt lat="49.52427" lon="-1.37612">
        <ele>33.4</ele>
        <time>2020-06-15T13:37:50Z</time>
      </trkpt>
      <trkpt lat="49.52424" lon="-1.37605">
        <ele>33.5</ele>
        <time>2020-06-15T13:37:51Z</time>
      </trkpt>
      <trkpt lat="49.5242" lon="-1.37598">
        <ele>33.5</ele>
        <time>2020-06-15T13:37:52Z</time>
      </trkpt>
      <trkpt lat="49.52417" lon="-1.37591">
        <ele>33.6</ele>
        <time>2020-06-15T13:37:53Z</time>
      </trkpt>
      <trkpt lat="49.52414" lon="-1.37584">
        <ele>33.6</ele>
        <time>2020-06-15T13:37:54Z</time>
      </trkpt>
      <trkpt lat="49.52411" lon="-1.37578">
        <ele>33.7</ele>
        <time>2020-06-15T13:37:55Z</time>
      </trkpt>
      <trkpt lat="49.52409" lon="-1.37572">
        <ele>33.7</ele>
        <time>2020-06-15T13:37:56Z</time>
      </trkpt>
      <trkpt lat="49.52405" lon="-1.37566">
        <ele>33.8</ele>
        <time>2020-06-15T13:37:57Z</time>
      </trkpt>
      <trkpt lat="49.52402" lon="-1.37559">
        <ele>33.8</ele>
        <time>2020-06-15T13:37:58Z</time>
      </trkpt>
      <trkpt lat="49.52399" lon="-1.37552">
        <ele>33.9</ele>
        <time>2020-06-15T13:37:59Z</time>
      </trkpt>
      <trkpt lat="49.52396" lon="-1.37544">
        <ele>33.9</ele>
        <time>2020-06-15T13:38:00Z</time>
      </trkpt>
      <trkpt lat="49.52393" lon="-1.37538">
        <ele>33.9</ele>
        <time>2020-06-15T13:38:01Z</time>
      </trkpt>
      <trkpt lat="49.52389" lon="-1.37531">
        <ele>34</ele>
        <time>2020-06-15T13:38:02Z</time>
      </trkpt>
      <trkpt lat="49.52386" lon="-1.37523">
        <ele>34</ele>
        <time>2020-06-15T13:38:03Z</time>
      </trkpt>
      <trkpt lat="49.52382" lon="-1.37516">
        <ele>34</ele>
        <time>2020-06-15T13:38:04Z</time>
      </trkpt>
      <trkpt lat="49.52378" lon="-1.37508">
        <ele>34</ele>
        <time>2020-06-15T13:38:05Z</time>
      </trkpt>
      <trkpt lat="49.52376" lon="-1.37502">
        <ele>34</ele>
        <time>2020-06-15T13:38:06Z</time>
      </trkpt>
      <trkpt lat="49.52373" lon="-1.37496">
        <ele>34</ele>
        <time>2020-06-15T13:38:07Z</time>
      </trkpt>
      <trkpt lat="49.52369" lon="-1.37491">
        <ele>34</ele>
        <time>2020-06-15T13:38:08Z</time>
      </trkpt>
      <trkpt lat="49.52365" lon="-1.37485">
        <ele>34</ele>
        <time>2020-06-15T13:38:09Z</time>
      </trkpt>
      <trkpt lat="49.52362" lon="-1.37478">
        <ele>33.9</ele>
        <time>2020-06-15T13:38:10Z</time>
      </trkpt>
      <trkpt lat="49.52358" lon="-1.37473">
        <ele>33.8</ele>
        <time>2020-06-15T13:38:11Z</time>
      </trkpt>
      <trkpt lat="49.52355" lon="-1.37467">
        <ele>33.7</ele>
        <time>2020-06-15T13:38:12Z</time>
      </trkpt>
      <trkpt lat="49.52351" lon="-1.3746">
        <ele>33.7</ele>
        <time>2020-06-15T13:38:13Z</time>
      </trkpt>
      <trkpt lat="49.52348" lon="-1.37454">
        <ele>33.6</ele>
        <time>2020-06-15T13:38:14Z</time>
      </trkpt>
      <trkpt lat="49.52343" lon="-1.37449">
        <ele>33.6</ele>
        <time>2020-06-15T13:38:15Z</time>
      </trkpt>
      <trkpt lat="49.52338" lon="-1.37445">
        <ele>33.5</ele>
        <time>2020-06-15T13:38:16Z</time>
      </trkpt>
      <trkpt lat="49.52333" lon="-1.37441">
        <ele>33.5</ele>
        <time>2020-06-15T13:38:17Z</time>
      </trkpt>
      <trkpt lat="49.52329" lon="-1.37435">
        <ele>33.4</ele>
        <time>2020-06-15T13:38:18Z</time>
      </trkpt>
      <trkpt lat="49.52324" lon="-1.3743">
        <ele>33.4</ele>
        <time>2020-06-15T13:38:19Z</time>
      </trkpt>
      <trkpt lat="49.5232" lon="-1.37425">
        <ele>33.3</ele>
        <time>2020-06-15T13:38:20Z</time>
      </trkpt>
      <trkpt lat="49.52315" lon="-1.3742">
        <ele>33.2</ele>
        <time>2020-06-15T13:38:21Z</time>
      </trkpt>
      <trkpt lat="49.5231" lon="-1.37415">
        <ele>33.2</ele>
        <time>2020-06-15T13:38:22Z</time>
      </trkpt>
      <trkpt lat="49.52306" lon="-1.37411">
        <ele>33.1</ele>
        <time>2020-06-15T13:38:23Z</time>
      </trkpt>
      <trkpt lat="49.52301" lon="-1.37406">
        <ele>33</ele>
        <time>2020-06-15T13:38:24Z</time>
      </trkpt>
      <trkpt lat="49.52297" lon="-1.37401">
        <ele>32.9</ele>
        <time>2020-06-15T13:38:25Z</time>
      </trkpt>
      <trkpt lat="49.52292" lon="-1.37394">
        <ele>32.9</ele>
        <time>2020-06-15T13:38:26Z</time>
      </trkpt>
      <trkpt lat="49.52287" lon="-1.37388">
        <ele>32.8</ele>
        <time>2020-06-15T13:38:27Z</time>
      </trkpt>
      <trkpt lat="49.52283" lon="-1.37381">
        <ele>32.7</ele>
        <time>2020-06-15T13:38:28Z</time>
      </trkpt>
      <trkpt lat="49.52279" lon="-1.37376">
        <ele>32.6</ele>
        <time>2020-06-15T13:38:29Z</time>
      </trkpt>
      <trkpt lat="49.52275" lon="-1.37371">
        <ele>32.4</ele>
        <time>2020-06-15T13:38:30Z</time>
      </trkpt>
      <trkpt lat="49.52271" lon="-1.37365">
        <ele>32.3</ele>
        <time>2020-06-15T13:38:31Z</time>
      </trkpt>
      <trkpt lat="49.52266" lon="-1.3736">
        <ele>32.1</ele>
        <time>2020-06-15T13:38:32Z</time>
      </trkpt>
      <trkpt lat="49.52262" lon="-1.37356">
        <ele>31.9</ele>
        <time>2020-06-15T13:38:33Z</time>
      </trkpt>
      <trkpt lat="49.52259" lon="-1.37352">
        <ele>31.7</ele>
        <time>2020-06-15T13:38:34Z</time>
      </trkpt>
      <trkpt lat="49.52255" lon="-1.37347">
        <ele>31.6</ele>
        <time>2020-06-15T13:38:35Z</time>
      </trkpt>
      <trkpt lat="49.52251" lon="-1.37344">
        <ele>31.4</ele>
        <time>2020-06-15T13:38:36Z</time>
      </trkpt>
      <trkpt lat="49.52248" lon="-1.37341">
        <ele>31.3</ele>
        <time>2020-06-15T13:38:37Z</time>
      </trkpt>
      <trkpt lat="49.52245" lon="-1.37337">
        <ele>31.2</ele>
        <time>2020-06-15T13:38:38Z</time>
      </trkpt>
      <trkpt lat="49.52243" lon="-1.37334">
        <ele>31.1</ele>
        <time>2020-06-15T13:38:39Z</time>
      </trkpt>
      <trkpt lat="49.52241" lon="-1.3733">
        <ele>30.9</ele>
        <time>2020-06-15T13:38:40Z</time>
      </trkpt>
      <trkpt lat="49.52239" lon="-1.37327">
        <ele>30.8</ele>
        <time>2020-06-15T13:38:41Z</time>
      </trkpt>
      <trkpt lat="49.52236" lon="-1.37324">
        <ele>30.7</ele>
        <time>2020-06-15T13:38:42Z</time>
      </trkpt>
      <trkpt lat="49.52233" lon="-1.37322">
        <ele>30.4</ele>
        <time>2020-06-15T13:38:43Z</time>
      </trkpt>
      <trkpt lat="49.5223" lon="-1.37319">
        <ele>30.2</ele>
        <time>2020-06-15T13:38:44Z</time>
      </trkpt>
      <trkpt lat="49.52226" lon="-1.37316">
        <ele>30</ele>
        <time>2020-06-15T13:38:45Z</time>
      </trkpt>
      <trkpt lat="49.52222" lon="-1.37311">
        <ele>29.7</ele>
        <time>2020-06-15T13:38:46Z</time>
      </trkpt>
      <trkpt lat="49.52218" lon="-1.37306">
        <ele>29.4</ele>
        <time>2020-06-15T13:38:47Z</time>
      </trkpt>
      <trkpt lat="49.52214" lon="-1.37303">
        <ele>29.2</ele>
        <time>2020-06-15T13:38:48Z</time>
      </trkpt>
      <trkpt lat="49.5221" lon="-1.373">
        <ele>28.9</ele>
        <time>2020-06-15T13:38:49Z</time>
      </trkpt>
      <trkpt lat="49.52206" lon="-1.37296">
        <ele>28.7</ele>
        <time>2020-06-15T13:38:50Z</time>
      </trkpt>
      <trkpt lat="49.52202" lon="-1.37294">
        <ele>28.5</ele>
        <time>2020-06-15T13:38:51Z</time>
      </trkpt>
      <trkpt lat="49.52197" lon="-1.37291">
        <ele>28.3</ele>
        <time>2020-06-15T13:38:52Z</time>
      </trkpt>
      <trkpt lat="49.52193" lon="-1.37289">
        <ele>28.1</ele>
        <time>2020-06-15T13:38:53Z</time>
      </trkpt>
      <trkpt lat="49.52191" lon="-1.37287">
        <ele>28</ele>
        <time>2020-06-15T13:38:54Z</time>
      </trkpt>
      <trkpt lat="49.5219" lon="-1.37286">
        <ele>27.9</ele>
        <time>2020-06-15T13:38:55Z</time>
      </trkpt>
      <trkpt lat="49.52189" lon="-1.37285">
        <ele>27.8</ele>
        <time>2020-06-15T13:38:56Z</time>
      </trkpt>
      <trkpt lat="49.52188" lon="-1.37284">
        <ele>27.8</ele>
        <time>2020-06-15T13:38:57Z</time>
      </trkpt>
      <trkpt lat="49.52187" lon="-1.37284">
        <ele>27.7</ele>
        <time>2020-06-15T13:38:58Z</time>
      </trkpt>
      <trkpt lat="49.52185" lon="-1.37285">
        <ele>27.7</ele>
        <time>2020-06-15T13:38:59Z</time>
      </trkpt>
      <trkpt lat="49.52184" lon="-1.37284">
        <ele>27.6</ele>
        <time>2020-06-15T13:39:00Z</time>
      </trkpt>
      <trkpt lat="49.52184" lon="-1.37286">
        <ele>27.5</ele>
        <time>2020-06-15T13:39:01Z</time>
      </trkpt>
      <trkpt lat="49.52183" lon="-1.37287">
        <ele>27.5</ele>
        <time>2020-06-15T13:39:02Z</time>
      </trkpt>
      <trkpt lat="49.52183" lon="-1.37286">
        <ele>27.4</ele>
        <time>2020-06-15T13:39:03Z</time>
      </trkpt>
      <trkpt lat="49.52182" lon="-1.37286">
        <ele>27.4</ele>
        <time>2020-06-15T13:39:04Z</time>
      </trkpt>
      <trkpt lat="49.52181" lon="-1.37286">
        <ele>27.3</ele>
        <time>2020-06-15T13:39:05Z</time>
      </trkpt>
      <trkpt lat="49.5218" lon="-1.37286">
        <ele>27.3</ele>
        <time>2020-06-15T13:39:06Z</time>
      </trkpt>
      <trkpt lat="49.5218" lon="-1.37286">
        <ele>27.3</ele>
        <time>2020-06-15T13:39:07Z</time>
      </trkpt>
      <trkpt lat="49.5218" lon="-1.37286">
        <ele>27.3</ele>
        <time>2020-06-15T13:39:08Z</time>
      </trkpt>
      <trkpt lat="49.5218" lon="-1.37286">
        <ele>27.2</ele>
        <time>2020-06-15T13:39:09Z</time>
      </trkpt>
      <trkpt lat="49.5218" lon="-1.37287">
        <ele>27.2</ele>
        <time>2020-06-15T13:39:10Z</time>
      </trkpt>
      <trkpt lat="49.5218" lon="-1.37287">
        <ele>27.2</ele>
        <time>2020-06-15T13:39:11Z</time>
      </trkpt>
      <trkpt lat="49.52174" lon="-1.3728">
        <ele>26.8</ele>
        <time>2020-06-15T13:39:52Z</time>
      </trkpt>
      <trkpt lat="49.52171" lon="-1.37278">
        <ele>26.6</ele>
        <time>2020-06-15T13:39:53Z</time>
      </trkpt>
      <trkpt lat="49.52166" lon="-1.37274">
        <ele>26.4</ele>
        <time>2020-06-15T13:39:54Z</time>
      </trkpt>
      <trkpt lat="49.52164" lon="-1.37272">
        <ele>26.2</ele>
        <time>2020-06-15T13:39:55Z</time>
      </trkpt>
      <trkpt lat="49.5216" lon="-1.37269">
        <ele>26</ele>
        <time>2020-06-15T13:39:56Z</time>
      </trkpt>
      <trkpt lat="49.52155" lon="-1.37265">
        <ele>25.7</ele>
        <time>2020-06-15T13:39:57Z</time>
      </trkpt>
      <trkpt lat="49.52148" lon="-1.3726">
        <ele>25.4</ele>
        <time>2020-06-15T13:39:58Z</time>
      </trkpt>
      <trkpt lat="49.52142" lon="-1.37255">
        <ele>25.1</ele>
        <time>2020-06-15T13:39:59Z</time>
      </trkpt>
      <trkpt lat="49.52136" lon="-1.37251">
        <ele>24.9</ele>
        <time>2020-06-15T13:40:00Z</time>
      </trkpt>
      <trkpt lat="49.5213" lon="-1.37248">
        <ele>24.7</ele>
        <time>2020-06-15T13:40:01Z</time>
      </trkpt>
      <trkpt lat="49.52123" lon="-1.37243">
        <ele>24.5</ele>
        <time>2020-06-15T13:40:02Z</time>
      </trkpt>
      <trkpt lat="49.52116" lon="-1.37238">
        <ele>24.4</ele>
        <time>2020-06-15T13:40:03Z</time>
      </trkpt>
      <trkpt lat="49.5211" lon="-1.37233">
        <ele>24.3</ele>
        <time>2020-06-15T13:40:04Z</time>
      </trkpt>
      <trkpt lat="49.52103" lon="-1.37229">
        <ele>24.3</ele>
        <time>2020-06-15T13:40:05Z</time>
      </trkpt>
      <trkpt lat="49.52097" lon="-1.37224">
        <ele>24.4</ele>
        <time>2020-06-15T13:40:06Z</time>
      </trkpt>
      <trkpt lat="49.52091" lon="-1.3722">
        <ele>24.5</ele>
        <time>2020-06-15T13:40:07Z</time>
      </trkpt>
      <trkpt lat="49.52085" lon="-1.37216">
        <ele>24.6</ele>
        <time>2020-06-15T13:40:08Z</time>
      </trkpt>
      <trkpt lat="49.52079" lon="-1.37212">
        <ele>24.7</ele>
        <time>2020-06-15T13:40:09Z</time>
      </trkpt>
      <trkpt lat="49.52073" lon="-1.37208">
        <ele>24.9</ele>
        <time>2020-06-15T13:40:10Z</time>
      </trkpt>
      <trkpt lat="49.52067" lon="-1.37205">
        <ele>25.1</ele>
        <time>2020-06-15T13:40:11Z</time>
      </trkpt>
      <trkpt lat="49.52062" lon="-1.37202">
        <ele>25.4</ele>
        <time>2020-06-15T13:40:12Z</time>
      </trkpt>
      <trkpt lat="49.52057" lon="-1.37199">
        <ele>25.7</ele>
        <time>2020-06-15T13:40:13Z</time>
      </trkpt>
      <trkpt lat="49.52053" lon="-1.37196">
        <ele>25.9</ele>
        <time>2020-06-15T13:40:14Z</time>
      </trkpt>
      <trkpt lat="49.52049" lon="-1.37193">
        <ele>26.2</ele>
        <time>2020-06-15T13:40:15Z</time>
      </trkpt>
      <trkpt lat="49.52045" lon="-1.3719">
        <ele>26.4</ele>
        <time>2020-06-15T13:40:16Z</time>
      </trkpt>
      <trkpt lat="49.52041" lon="-1.37187">
        <ele>26.8</ele>
        <time>2020-06-15T13:40:17Z</time>
      </trkpt>
      <trkpt lat="49.52037" lon="-1.37185">
        <ele>27</ele>
        <time>2020-06-15T13:40:18Z</time>
      </trkpt>
      <trkpt lat="49.52033" lon="-1.37182">
        <ele>27.3</ele>
        <time>2020-06-15T13:40:19Z</time>
      </trkpt>
      <trkpt lat="49.5203" lon="-1.37179">
        <ele>27.6</ele>
        <time>2020-06-15T13:40:20Z</time>
      </trkpt>
      <trkpt lat="49.52026" lon="-1.37176">
        <ele>27.9</ele>
        <time>2020-06-15T13:40:21Z</time>
      </trkpt>
      <trkpt lat="49.52022" lon="-1.37172">
        <ele>28.2</ele>
        <time>2020-06-15T13:40:22Z</time>
      </trkpt>
      <trkpt lat="49.52019" lon="-1.37169">
        <ele>28.5</ele>
        <time>2020-06-15T13:40:23Z</time>
      </trkpt>
      <trkpt lat="49.52016" lon="-1.37167">
        <ele>28.7</ele>
        <time>2020-06-15T13:40:24Z</time>
      </trkpt>
      <trkpt lat="49.52013" lon="-1.37165">
        <ele>29</ele>
        <time>2020-06-15T13:40:25Z</time>
      </trkpt>
      <trkpt lat="49.52009" lon="-1.37163">
        <ele>29.3</ele>
        <time>2020-06-15T13:40:26Z</time>
      </trkpt>
      <trkpt lat="49.52007" lon="-1.37161">
        <ele>29.5</ele>
        <time>2020-06-15T13:40:27Z</time>
      </trkpt>
      <trkpt lat="49.52003" lon="-1.37159">
        <ele>29.9</ele>
        <time>2020-06-15T13:40:28Z</time>
      </trkpt>
      <trkpt lat="49.52" lon="-1.37157">
        <ele>30.2</ele>
        <time>2020-06-15T13:40:29Z</time>
      </trkpt>
      <trkpt lat="49.51996" lon="-1.37154">
        <ele>30.6</ele>
        <time>2020-06-15T13:40:30Z</time>
      </trkpt>
      <trkpt lat="49.51992" lon="-1.37152">
        <ele>31</ele>
        <time>2020-06-15T13:40:31Z</time>
      </trkpt>
      <trkpt lat="49.5199" lon="-1.37151">
        <ele>31.2</ele>
        <time>2020-06-15T13:40:32Z</time>
      </trkpt>
      <trkpt lat="49.51987" lon="-1.3715">
        <ele>31.4</ele>
        <time>2020-06-15T13:40:33Z</time>
      </trkpt>
      <trkpt lat="49.51984" lon="-1.37147">
        <ele>31.7</ele>
        <time>2020-06-15T13:40:34Z</time>
      </trkpt>
      <trkpt lat="49.5198" lon="-1.37144">
        <ele>32</ele>
        <time>2020-06-15T13:40:35Z</time>
      </trkpt>
      <trkpt lat="49.51977" lon="-1.37143">
        <ele>32.3</ele>
        <time>2020-06-15T13:40:36Z</time>
      </trkpt>
      <trkpt lat="49.51974" lon="-1.37142">
        <ele>32.5</ele>
        <time>2020-06-15T13:40:37Z</time>
      </trkpt>
      <trkpt lat="49.5197" lon="-1.3714">
        <ele>32.7</ele>
        <time>2020-06-15T13:40:38Z</time>
      </trkpt>
      <trkpt lat="49.51967" lon="-1.37137">
        <ele>33</ele>
        <time>2020-06-15T13:40:39Z</time>
      </trkpt>
      <trkpt lat="49.51965" lon="-1.37136">
        <ele>33.2</ele>
        <time>2020-06-15T13:40:40Z</time>
      </trkpt>
      <trkpt lat="49.51962" lon="-1.37134">
        <ele>33.4</ele>
        <time>2020-06-15T13:40:41Z</time>
      </trkpt>
      <trkpt lat="49.5196" lon="-1.37132">
        <ele>33.5</ele>
        <time>2020-06-15T13:40:42Z</time>
      </trkpt>
      <trkpt lat="49.51958" lon="-1.3713">
        <ele>33.7</ele>
        <time>2020-06-15T13:40:43Z</time>
      </trkpt>
      <trkpt lat="49.51954" lon="-1.37127">
        <ele>34</ele>
        <time>2020-06-15T13:40:44Z</time>
      </trkpt>
      <trkpt lat="49.51952" lon="-1.37125">
        <ele>34.2</ele>
        <time>2020-06-15T13:40:45Z</time>
      </trkpt>
      <trkpt lat="49.51949" lon="-1.37124">
        <ele>34.4</ele>
        <time>2020-06-15T13:40:46Z</time>
      </trkpt>
      <trkpt lat="49.51945" lon="-1.37121">
        <ele>34.7</ele>
        <time>2020-06-15T13:40:47Z</time>
      </trkpt>
      <trkpt lat="49.51942" lon="-1.37119">
        <ele>34.9</ele>
        <time>2020-06-15T13:40:48Z</time>
      </trkpt>
      <trkpt lat="49.51939" lon="-1.37117">
        <ele>35.1</ele>
        <time>2020-06-15T13:40:49Z</time>
      </trkpt>
      <trkpt lat="49.51935" lon="-1.37116">
        <ele>35.3</ele>
        <time>2020-06-15T13:40:50Z</time>
      </trkpt>
      <trkpt lat="49.51932" lon="-1.37116">
        <ele>35.5</ele>
        <time>2020-06-15T13:40:51Z</time>
      </trkpt>
      <trkpt lat="49.51929" lon="-1.37116">
        <ele>35.7</ele>
        <time>2020-06-15T13:40:52Z</time>
      </trkpt>
      <trkpt lat="49.51926" lon="-1.37116">
        <ele>35.9</ele>
        <time>2020-06-15T13:40:53Z</time>
      </trkpt>
      <trkpt lat="49.51921" lon="-1.37115">
        <ele>36.2</ele>
        <time>2020-06-15T13:40:54Z</time>
      </trkpt>
      <trkpt lat="49.51919" lon="-1.37115">
        <ele>36.4</ele>
        <time>2020-06-15T13:40:55Z</time>
      </trkpt>
      <trkpt lat="49.51915" lon="-1.37114">
        <ele>36.6</ele>
        <time>2020-06-15T13:40:56Z</time>
      </trkpt>
      <trkpt lat="49.51912" lon="-1.37114">
        <ele>36.8</ele>
        <time>2020-06-15T13:40:57Z</time>
      </trkpt>
      <trkpt lat="49.51909" lon="-1.37113">
        <ele>37</ele>
        <time>2020-06-15T13:40:58Z</time>
      </trkpt>
      <trkpt lat="49.51905" lon="-1.37112">
        <ele>37.2</ele>
        <time>2020-06-15T13:40:59Z</time>
      </trkpt>
      <trkpt lat="49.51901" lon="-1.37113">
        <ele>37.4</ele>
        <time>2020-06-15T13:41:00Z</time>
      </trkpt>
      <trkpt lat="49.51897" lon="-1.37113">
        <ele>37.6</ele>
        <time>2020-06-15T13:41:01Z</time>
      </trkpt>
      <trkpt lat="49.51894" lon="-1.37113">
        <ele>37.8</ele>
        <time>2020-06-15T13:41:02Z</time>
      </trkpt>
      <trkpt lat="49.5189" lon="-1.37113">
        <ele>38</ele>
        <time>2020-06-15T13:41:03Z</time>
      </trkpt>
      <trkpt lat="49.51887" lon="-1.37113">
        <ele>38.2</ele>
        <time>2020-06-15T13:41:04Z</time>
      </trkpt>
      <trkpt lat="49.51884" lon="-1.37114">
        <ele>38.3</ele>
        <time>2020-06-15T13:41:05Z</time>
      </trkpt>
      <trkpt lat="49.51881" lon="-1.37115">
        <ele>38.5</ele>
        <time>2020-06-15T13:41:06Z</time>
      </trkpt>
      <trkpt lat="49.51877" lon="-1.37114">
        <ele>38.7</ele>
        <time>2020-06-15T13:41:07Z</time>
      </trkpt>
      <trkpt lat="49.51875" lon="-1.37115">
        <ele>38.9</ele>
        <time>2020-06-15T13:41:08Z</time>
      </trkpt>
      <trkpt lat="49.51872" lon="-1.37117">
        <ele>39.1</ele>
        <time>2020-06-15T13:41:09Z</time>
      </trkpt>
      <trkpt lat="49.51868" lon="-1.37117">
        <ele>39.3</ele>
        <time>2020-06-15T13:41:10Z</time>
      </trkpt>
      <trkpt lat="49.51866" lon="-1.37116">
        <ele>39.4</ele>
        <time>2020-06-15T13:41:11Z</time>
      </trkpt>
      <trkpt lat="49.51862" lon="-1.37117">
        <ele>39.6</ele>
        <time>2020-06-15T13:41:12Z</time>
      </trkpt>
      <trkpt lat="49.51861" lon="-1.37118">
        <ele>39.7</ele>
        <time>2020-06-15T13:41:13Z</time>
      </trkpt>
      <trkpt lat="49.51858" lon="-1.37118">
        <ele>39.9</ele>
        <time>2020-06-15T13:41:14Z</time>
      </trkpt>
      <trkpt lat="49.51854" lon="-1.37119">
        <ele>40.1</ele>
        <time>2020-06-15T13:41:15Z</time>
      </trkpt>
      <trkpt lat="49.51851" lon="-1.3712">
        <ele>40.3</ele>
        <time>2020-06-15T13:41:16Z</time>
      </trkpt>
      <trkpt lat="49.51848" lon="-1.3712">
        <ele>40.5</ele>
        <time>2020-06-15T13:41:17Z</time>
      </trkpt>
      <trkpt lat="49.51844" lon="-1.3712">
        <ele>40.7</ele>
        <time>2020-06-15T13:41:18Z</time>
      </trkpt>
      <trkpt lat="49.51841" lon="-1.3712">
        <ele>40.8</ele>
        <time>2020-06-15T13:41:19Z</time>
      </trkpt>
      <trkpt lat="49.51837" lon="-1.3712">
        <ele>41</ele>
        <time>2020-06-15T13:41:20Z</time>
      </trkpt>
      <trkpt lat="49.51835" lon="-1.3712">
        <ele>41.2</ele>
        <time>2020-06-15T13:41:21Z</time>
      </trkpt>
      <trkpt lat="49.51832" lon="-1.3712">
        <ele>41.3</ele>
        <time>2020-06-15T13:41:22Z</time>
      </trkpt>
      <trkpt lat="49.51828" lon="-1.3712">
        <ele>41.5</ele>
        <time>2020-06-15T13:41:23Z</time>
      </trkpt>
      <trkpt lat="49.51824" lon="-1.3712">
        <ele>41.6</ele>
        <time>2020-06-15T13:41:24Z</time>
      </trkpt>
      <trkpt lat="49.51821" lon="-1.3712">
        <ele>41.8</ele>
        <time>2020-06-15T13:41:25Z</time>
      </trkpt>
      <trkpt lat="49.51817" lon="-1.37121">
        <ele>41.9</ele>
        <time>2020-06-15T13:41:26Z</time>
      </trkpt>
      <trkpt lat="49.51814" lon="-1.3712">
        <ele>42.1</ele>
        <time>2020-06-15T13:41:27Z</time>
      </trkpt>
      <trkpt lat="49.5181" lon="-1.37122">
        <ele>42.2</ele>
        <time>2020-06-15T13:41:28Z</time>
      </trkpt>
      <trkpt lat="49.51806" lon="-1.37122">
        <ele>42.4</ele>
        <time>2020-06-15T13:41:29Z</time>
      </trkpt>
      <trkpt lat="49.51802" lon="-1.37121">
        <ele>42.6</ele>
        <time>2020-06-15T13:41:30Z</time>
      </trkpt>
      <trkpt lat="49.51798" lon="-1.37121">
        <ele>42.7</ele>
        <time>2020-06-15T13:41:31Z</time>
      </trkpt>
      <trkpt lat="49.51794" lon="-1.3712">
        <ele>42.9</ele>
        <time>2020-06-15T13:41:32Z</time>
      </trkpt>
      <trkpt lat="49.5179" lon="-1.37119">
        <ele>43</ele>
        <time>2020-06-15T13:41:33Z</time>
      </trkpt>
      <trkpt lat="49.51784" lon="-1.37116">
        <ele>43.2</ele>
        <time>2020-06-15T13:41:34Z</time>
      </trkpt>
      <trkpt lat="49.5178" lon="-1.37114">
        <ele>43.4</ele>
        <time>2020-06-15T13:41:35Z</time>
      </trkpt>
      <trkpt lat="49.51775" lon="-1.37112">
        <ele>43.5</ele>
        <time>2020-06-15T13:41:36Z</time>
      </trkpt>
      <trkpt lat="49.51771" lon="-1.37111">
        <ele>43.7</ele>
        <time>2020-06-15T13:41:37Z</time>
      </trkpt>
      <trkpt lat="49.51766" lon="-1.3711">
        <ele>43.8</ele>
        <time>2020-06-15T13:41:38Z</time>
      </trkpt>
      <trkpt lat="49.51762" lon="-1.37109">
        <ele>43.9</ele>
        <time>2020-06-15T13:41:39Z</time>
      </trkpt>
      <trkpt lat="49.51758" lon="-1.37108">
        <ele>44.1</ele>
        <time>2020-06-15T13:41:40Z</time>
      </trkpt>
      <trkpt lat="49.51754" lon="-1.37108">
        <ele>44.2</ele>
        <time>2020-06-15T13:41:41Z</time>
      </trkpt>
      <trkpt lat="49.51749" lon="-1.37107">
        <ele>44.3</ele>
        <time>2020-06-15T13:41:42Z</time>
      </trkpt>
      <trkpt lat="49.51745" lon="-1.37106">
        <ele>44.4</ele>
        <time>2020-06-15T13:41:43Z</time>
      </trkpt>
      <trkpt lat="49.51741" lon="-1.37105">
        <ele>44.5</ele>
        <time>2020-06-15T13:41:44Z</time>
      </trkpt>
      <trkpt lat="49.51736" lon="-1.37103">
        <ele>44.6</ele>
        <time>2020-06-15T13:41:45Z</time>
      </trkpt>
      <trkpt lat="49.51732" lon="-1.37102">
        <ele>44.7</ele>
        <time>2020-06-15T13:41:46Z</time>
      </trkpt>
      <trkpt lat="49.51729" lon="-1.37102">
        <ele>44.7</ele>
        <time>2020-06-15T13:41:47Z</time>
      </trkpt>
      <trkpt lat="49.51725" lon="-1.37102">
        <ele>44.8</ele>
        <time>2020-06-15T13:41:48Z</time>
      </trkpt>
      <trkpt lat="49.51721" lon="-1.37101">
        <ele>44.9</ele>
        <time>2020-06-15T13:41:49Z</time>
      </trkpt>
      <trkpt lat="49.51716" lon="-1.371">
        <ele>44.9</ele>
        <time>2020-06-15T13:41:50Z</time>
      </trkpt>
      <trkpt lat="49.5171" lon="-1.37099">
        <ele>45</ele>
        <time>2020-06-15T13:41:51Z</time>
      </trkpt>
      <trkpt lat="49.51706" lon="-1.37099">
        <ele>45.1</ele>
        <time>2020-06-15T13:41:52Z</time>
      </trkpt>
      <trkpt lat="49.51701" lon="-1.37097">
        <ele>45.2</ele>
        <time>2020-06-15T13:41:53Z</time>
      </trkpt>
      <trkpt lat="49.51696" lon="-1.37095">
        <ele>45.3</ele>
        <time>2020-06-15T13:41:54Z</time>
      </trkpt>
      <trkpt lat="49.51691" lon="-1.37094">
        <ele>45.3</ele>
        <time>2020-06-15T13:41:55Z</time>
      </trkpt>
      <trkpt lat="49.51687" lon="-1.37093">
        <ele>45.4</ele>
        <time>2020-06-15T13:41:56Z</time>
      </trkpt>
      <trkpt lat="49.51682" lon="-1.3709">
        <ele>45.5</ele>
        <time>2020-06-15T13:41:57Z</time>
      </trkpt>
      <trkpt lat="49.51677" lon="-1.37088">
        <ele>45.5</ele>
        <time>2020-06-15T13:41:58Z</time>
      </trkpt>
      <trkpt lat="49.51673" lon="-1.37086">
        <ele>45.5</ele>
        <time>2020-06-15T13:41:59Z</time>
      </trkpt>
      <trkpt lat="49.51669" lon="-1.37083">
        <ele>45.5</ele>
        <time>2020-06-15T13:42:00Z</time>
      </trkpt>
      <trkpt lat="49.51664" lon="-1.3708">
        <ele>45.5</ele>
        <time>2020-06-15T13:42:01Z</time>
      </trkpt>
      <trkpt lat="49.51659" lon="-1.37077">
        <ele>45.6</ele>
        <time>2020-06-15T13:42:02Z</time>
      </trkpt>
      <trkpt lat="49.51655" lon="-1.37076">
        <ele>45.6</ele>
        <time>2020-06-15T13:42:03Z</time>
      </trkpt>
      <trkpt lat="49.5165" lon="-1.37074">
        <ele>45.6</ele>
        <time>2020-06-15T13:42:04Z</time>
      </trkpt>
      <trkpt lat="49.51646" lon="-1.37072">
        <ele>45.6</ele>
        <time>2020-06-15T13:42:05Z</time>
      </trkpt>
      <trkpt lat="49.51642" lon="-1.3707">
        <ele>45.6</ele>
        <time>2020-06-15T13:42:06Z</time>
      </trkpt>
      <trkpt lat="49.51637" lon="-1.37066">
        <ele>45.6</ele>
        <time>2020-06-15T13:42:07Z</time>
      </trkpt>
      <trkpt lat="49.51633" lon="-1.37062">
        <ele>45.6</ele>
        <time>2020-06-15T13:42:08Z</time>
      </trkpt>
      <trkpt lat="49.51628" lon="-1.37059">
        <ele>45.6</ele>
        <time>2020-06-15T13:42:09Z</time>
      </trkpt>
      <trkpt lat="49.51623" lon="-1.37056">
        <ele>45.5</ele>
        <time>2020-06-15T13:42:10Z</time>
      </trkpt>
      <trkpt lat="49.51618" lon="-1.37053">
        <ele>45.5</ele>
        <time>2020-06-15T13:42:11Z</time>
      </trkpt>
      <trkpt lat="49.51614" lon="-1.3705">
        <ele>45.5</ele>
        <time>2020-06-15T13:42:12Z</time>
      </trkpt>
      <trkpt lat="49.5161" lon="-1.37047">
        <ele>45.5</ele>
        <time>2020-06-15T13:42:13Z</time>
      </trkpt>
      <trkpt lat="49.51606" lon="-1.37044">
        <ele>45.5</ele>
        <time>2020-06-15T13:42:14Z</time>
      </trkpt>
      <trkpt lat="49.51602" lon="-1.37042">
        <ele>45.5</ele>
        <time>2020-06-15T13:42:15Z</time>
      </trkpt>
      <trkpt lat="49.51597" lon="-1.37039">
        <ele>45.5</ele>
        <time>2020-06-15T13:42:16Z</time>
      </trkpt>
      <trkpt lat="49.51592" lon="-1.37035">
        <ele>45.4</ele>
        <time>2020-06-15T13:42:17Z</time>
      </trkpt>
      <trkpt lat="49.51587" lon="-1.37031">
        <ele>45.4</ele>
        <time>2020-06-15T13:42:18Z</time>
      </trkpt>
      <trkpt lat="49.51583" lon="-1.37028">
        <ele>45.4</ele>
        <time>2020-06-15T13:42:19Z</time>
      </trkpt>
      <trkpt lat="49.51578" lon="-1.37025">
        <ele>45.3</ele>
        <time>2020-06-15T13:42:20Z</time>
      </trkpt>
      <trkpt lat="49.51573" lon="-1.37022">
        <ele>45.4</ele>
        <time>2020-06-15T13:42:21Z</time>
      </trkpt>
      <trkpt lat="49.51568" lon="-1.3702">
        <ele>45.5</ele>
        <time>2020-06-15T13:42:22Z</time>
      </trkpt>
      <trkpt lat="49.51563" lon="-1.37017">
        <ele>45.6</ele>
        <time>2020-06-15T13:42:23Z</time>
      </trkpt>
      <trkpt lat="49.51559" lon="-1.37016">
        <ele>45.6</ele>
        <time>2020-06-15T13:42:24Z</time>
      </trkpt>
      <trkpt lat="49.51555" lon="-1.37015">
        <ele>45.6</ele>
        <time>2020-06-15T13:42:25Z</time>
      </trkpt>
      <trkpt lat="49.5155" lon="-1.37012">
        <ele>45.7</ele>
        <time>2020-06-15T13:42:26Z</time>
      </trkpt>
      <trkpt lat="49.51546" lon="-1.3701">
        <ele>45.8</ele>
        <time>2020-06-15T13:42:27Z</time>
      </trkpt>
      <trkpt lat="49.51541" lon="-1.37008">
        <ele>45.9</ele>
        <time>2020-06-15T13:42:28Z</time>
      </trkpt>
      <trkpt lat="49.51537" lon="-1.37006">
        <ele>46.1</ele>
        <time>2020-06-15T13:42:29Z</time>
      </trkpt>
      <trkpt lat="49.51532" lon="-1.37003">
        <ele>46.2</ele>
        <time>2020-06-15T13:42:30Z</time>
      </trkpt>
      <trkpt lat="49.51528" lon="-1.37001">
        <ele>46.4</ele>
        <time>2020-06-15T13:42:31Z</time>
      </trkpt>
      <trkpt lat="49.51523" lon="-1.36998">
        <ele>46.5</ele>
        <time>2020-06-15T13:42:32Z</time>
      </trkpt>
      <trkpt lat="49.51519" lon="-1.36995">
        <ele>46.7</ele>
        <time>2020-06-15T13:42:33Z</time>
      </trkpt>
      <trkpt lat="49.51515" lon="-1.36996">
        <ele>46.9</ele>
        <time>2020-06-15T13:42:34Z</time>
      </trkpt>
      <trkpt lat="49.51511" lon="-1.36995">
        <ele>47</ele>
        <time>2020-06-15T13:42:35Z</time>
      </trkpt>
      <trkpt lat="49.51507" lon="-1.36992">
        <ele>47.1</ele>
        <time>2020-06-15T13:42:36Z</time>
      </trkpt>
      <trkpt lat="49.51503" lon="-1.36991">
        <ele>47.3</ele>
        <time>2020-06-15T13:42:37Z</time>
      </trkpt>
      <trkpt lat="49.51499" lon="-1.36989">
        <ele>47.4</ele>
        <time>2020-06-15T13:42:38Z</time>
      </trkpt>
      <trkpt lat="49.51495" lon="-1.36986">
        <ele>47.5</ele>
        <time>2020-06-15T13:42:39Z</time>
      </trkpt>
      <trkpt lat="49.51491" lon="-1.36983">
        <ele>47.7</ele>
        <time>2020-06-15T13:42:40Z</time>
      </trkpt>
      <trkpt lat="49.51487" lon="-1.3698">
        <ele>47.9</ele>
        <time>2020-06-15T13:42:41Z</time>
      </trkpt>
      <trkpt lat="49.51483" lon="-1.3698">
        <ele>48</ele>
        <time>2020-06-15T13:42:42Z</time>
      </trkpt>
      <trkpt lat="49.51478" lon="-1.36978">
        <ele>48.2</ele>
        <time>2020-06-15T13:42:43Z</time>
      </trkpt>
      <trkpt lat="49.51473" lon="-1.36977">
        <ele>48.4</ele>
        <time>2020-06-15T13:42:44Z</time>
      </trkpt>
      <trkpt lat="49.51468" lon="-1.36975">
        <ele>48.6</ele>
        <time>2020-06-15T13:42:45Z</time>
      </trkpt>
      <trkpt lat="49.51464" lon="-1.36974">
        <ele>48.7</ele>
        <time>2020-06-15T13:42:46Z</time>
      </trkpt>
      <trkpt lat="49.51461" lon="-1.36974">
        <ele>48.8</ele>
        <time>2020-06-15T13:42:47Z</time>
      </trkpt>
      <trkpt lat="49.51456" lon="-1.36973">
        <ele>49</ele>
        <time>2020-06-15T13:42:48Z</time>
      </trkpt>
      <trkpt lat="49.51452" lon="-1.36971">
        <ele>49.1</ele>
        <time>2020-06-15T13:42:49Z</time>
      </trkpt>
      <trkpt lat="49.51448" lon="-1.3697">
        <ele>49.3</ele>
        <time>2020-06-15T13:42:50Z</time>
      </trkpt>
      <trkpt lat="49.51445" lon="-1.3697">
        <ele>49.4</ele>
        <time>2020-06-15T13:42:51Z</time>
      </trkpt>
      <trkpt lat="49.51441" lon="-1.36968">
        <ele>49.6</ele>
        <time>2020-06-15T13:42:52Z</time>
      </trkpt>
      <trkpt lat="49.51438" lon="-1.36967">
        <ele>49.7</ele>
        <time>2020-06-15T13:42:53Z</time>
      </trkpt>
      <trkpt lat="49.51435" lon="-1.36966">
        <ele>49.8</ele>
        <time>2020-06-15T13:42:54Z</time>
      </trkpt>
      <trkpt lat="49.51431" lon="-1.36966">
        <ele>50</ele>
        <time>2020-06-15T13:42:55Z</time>
      </trkpt>
      <trkpt lat="49.51428" lon="-1.36964">
        <ele>50.1</ele>
        <time>2020-06-15T13:42:56Z</time>
      </trkpt>
      <trkpt lat="49.51424" lon="-1.36963">
        <ele>50.2</ele>
        <time>2020-06-15T13:42:57Z</time>
      </trkpt>
      <trkpt lat="49.5142" lon="-1.36963">
        <ele>50.4</ele>
        <time>2020-06-15T13:42:58Z</time>
      </trkpt>
      <trkpt lat="49.51416" lon="-1.36962">
        <ele>50.5</ele>
        <time>2020-06-15T13:42:59Z</time>
      </trkpt>
      <trkpt lat="49.51412" lon="-1.3696">
        <ele>50.6</ele>
        <time>2020-06-15T13:43:00Z</time>
      </trkpt>
      <trkpt lat="49.51408" lon="-1.36958">
        <ele>50.7</ele>
        <time>2020-06-15T13:43:01Z</time>
      </trkpt>
      <trkpt lat="49.51404" lon="-1.36956">
        <ele>50.9</ele>
        <time>2020-06-15T13:43:02Z</time>
      </trkpt>
      <trkpt lat="49.514" lon="-1.36954">
        <ele>51</ele>
        <time>2020-06-15T13:43:03Z</time>
      </trkpt>
      <trkpt lat="49.51397" lon="-1.36951">
        <ele>51.1</ele>
        <time>2020-06-15T13:43:04Z</time>
      </trkpt>
      <trkpt lat="49.51392" lon="-1.36949">
        <ele>51.2</ele>
        <time>2020-06-15T13:43:05Z</time>
      </trkpt>
      <trkpt lat="49.51389" lon="-1.36947">
        <ele>51.2</ele>
        <time>2020-06-15T13:43:06Z</time>
      </trkpt>
      <trkpt lat="49.51386" lon="-1.36946">
        <ele>51.3</ele>
        <time>2020-06-15T13:43:07Z</time>
      </trkpt>
      <trkpt lat="49.51381" lon="-1.36944">
        <ele>51.4</ele>
        <time>2020-06-15T13:43:08Z</time>
      </trkpt>
      <trkpt lat="49.51376" lon="-1.36943">
        <ele>51.5</ele>
        <time>2020-06-15T13:43:09Z</time>
      </trkpt>
      <trkpt lat="49.51372" lon="-1.36942">
        <ele>51.6</ele>
        <time>2020-06-15T13:43:10Z</time>
      </trkpt>
      <trkpt lat="49.51367" lon="-1.36941">
        <ele>51.6</ele>
        <time>2020-06-15T13:43:11Z</time>
      </trkpt>
      <trkpt lat="49.51363" lon="-1.36938">
        <ele>51.7</ele>
        <time>2020-06-15T13:43:12Z</time>
      </trkpt>
      <trkpt lat="49.51358" lon="-1.36934">
        <ele>51.8</ele>
        <time>2020-06-15T13:43:13Z</time>
      </trkpt>
      <trkpt lat="49.51353" lon="-1.36932">
        <ele>51.9</ele>
        <time>2020-06-15T13:43:14Z</time>
      </trkpt>
      <trkpt lat="49.51348" lon="-1.3693">
        <ele>51.9</ele>
        <time>2020-06-15T13:43:15Z</time>
      </trkpt>
      <trkpt lat="49.51344" lon="-1.36928">
        <ele>52</ele>
        <time>2020-06-15T13:43:16Z</time>
      </trkpt>
      <trkpt lat="49.51339" lon="-1.36926">
        <ele>52.1</ele>
        <time>2020-06-15T13:43:17Z</time>
      </trkpt>
      <trkpt lat="49.51335" lon="-1.36923">
        <ele>52.2</ele>
        <time>2020-06-15T13:43:18Z</time>
      </trkpt>
      <trkpt lat="49.51332" lon="-1.36922">
        <ele>52.2</ele>
        <time>2020-06-15T13:43:19Z</time>
      </trkpt>
      <trkpt lat="49.51328" lon="-1.3692">
        <ele>52.3</ele>
        <time>2020-06-15T13:43:20Z</time>
      </trkpt>
      <trkpt lat="49.51322" lon="-1.3692">
        <ele>52.4</ele>
        <time>2020-06-15T13:43:21Z</time>
      </trkpt>
      <trkpt lat="49.51318" lon="-1.36918">
        <ele>52.5</ele>
        <time>2020-06-15T13:43:22Z</time>
      </trkpt>
      <trkpt lat="49.51314" lon="-1.36918">
        <ele>52.6</ele>
        <time>2020-06-15T13:43:23Z</time>
      </trkpt>
      <trkpt lat="49.51309" lon="-1.36917">
        <ele>52.7</ele>
        <time>2020-06-15T13:43:24Z</time>
      </trkpt>
      <trkpt lat="49.51304" lon="-1.36914">
        <ele>52.7</ele>
        <time>2020-06-15T13:43:25Z</time>
      </trkpt>
      <trkpt lat="49.51299" lon="-1.36915">
        <ele>52.8</ele>
        <time>2020-06-15T13:43:26Z</time>
      </trkpt>
      <trkpt lat="49.51294" lon="-1.36914">
        <ele>52.9</ele>
        <time>2020-06-15T13:43:27Z</time>
      </trkpt>
      <trkpt lat="49.51291" lon="-1.36912">
        <ele>52.9</ele>
        <time>2020-06-15T13:43:28Z</time>
      </trkpt>
      <trkpt lat="49.51285" lon="-1.36913">
        <ele>52.9</ele>
        <time>2020-06-15T13:43:29Z</time>
      </trkpt>
      <trkpt lat="49.51281" lon="-1.36913">
        <ele>53</ele>
        <time>2020-06-15T13:43:30Z</time>
      </trkpt>
      <trkpt lat="49.51276" lon="-1.36911">
        <ele>53.1</ele>
        <time>2020-06-15T13:43:31Z</time>
      </trkpt>
      <trkpt lat="49.51271" lon="-1.36909">
        <ele>53.2</ele>
        <time>2020-06-15T13:43:32Z</time>
      </trkpt>
      <trkpt lat="49.51267" lon="-1.36907">
        <ele>53.3</ele>
        <time>2020-06-15T13:43:33Z</time>
      </trkpt>
      <trkpt lat="49.51262" lon="-1.36907">
        <ele>53.4</ele>
        <time>2020-06-15T13:43:34Z</time>
      </trkpt>
      <trkpt lat="49.51256" lon="-1.36907">
        <ele>53.5</ele>
        <time>2020-06-15T13:43:35Z</time>
      </trkpt>
      <trkpt lat="49.51251" lon="-1.36905">
        <ele>53.6</ele>
        <time>2020-06-15T13:43:36Z</time>
      </trkpt>
      <trkpt lat="49.51246" lon="-1.36906">
        <ele>53.7</ele>
        <time>2020-06-15T13:43:37Z</time>
      </trkpt>
      <trkpt lat="49.51242" lon="-1.36906">
        <ele>53.8</ele>
        <time>2020-06-15T13:43:38Z</time>
      </trkpt>
      <trkpt lat="49.51236" lon="-1.36906">
        <ele>53.9</ele>
        <time>2020-06-15T13:43:39Z</time>
      </trkpt>
      <trkpt lat="49.51231" lon="-1.36905">
        <ele>53.9</ele>
        <time>2020-06-15T13:43:40Z</time>
      </trkpt>
      <trkpt lat="49.51226" lon="-1.36905">
        <ele>54</ele>
        <time>2020-06-15T13:43:41Z</time>
      </trkpt>
      <trkpt lat="49.51221" lon="-1.36904">
        <ele>54.1</ele>
        <time>2020-06-15T13:43:42Z</time>
      </trkpt>
      <trkpt lat="49.51216" lon="-1.36903">
        <ele>54.1</ele>
        <time>2020-06-15T13:43:43Z</time>
      </trkpt>
      <trkpt lat="49.51211" lon="-1.36902">
        <ele>54.2</ele>
        <time>2020-06-15T13:43:44Z</time>
      </trkpt>
      <trkpt lat="49.51207" lon="-1.369">
        <ele>54.3</ele>
        <time>2020-06-15T13:43:45Z</time>
      </trkpt>
      <trkpt lat="49.51203" lon="-1.36901">
        <ele>54.3</ele>
        <time>2020-06-15T13:43:46Z</time>
      </trkpt>
      <trkpt lat="49.51198" lon="-1.36902">
        <ele>54.4</ele>
        <time>2020-06-15T13:43:47Z</time>
      </trkpt>
      <trkpt lat="49.51193" lon="-1.36903">
        <ele>54.4</ele>
        <time>2020-06-15T13:43:48Z</time>
      </trkpt>
      <trkpt lat="49.51188" lon="-1.36903">
        <ele>54.4</ele>
        <time>2020-06-15T13:43:49Z</time>
      </trkpt>
      <trkpt lat="49.51182" lon="-1.36903">
        <ele>54.4</ele>
        <time>2020-06-15T13:43:50Z</time>
      </trkpt>
      <trkpt lat="49.51177" lon="-1.36902">
        <ele>54.4</ele>
        <time>2020-06-15T13:43:51Z</time>
      </trkpt>
      <trkpt lat="49.51173" lon="-1.36901">
        <ele>54.4</ele>
        <time>2020-06-15T13:43:52Z</time>
      </trkpt>
      <trkpt lat="49.51168" lon="-1.369">
        <ele>54.3</ele>
        <time>2020-06-15T13:43:53Z</time>
      </trkpt>
      <trkpt lat="49.51164" lon="-1.369">
        <ele>54.3</ele>
        <time>2020-06-15T13:43:54Z</time>
      </trkpt>
      <trkpt lat="49.51159" lon="-1.369">
        <ele>54.2</ele>
        <time>2020-06-15T13:43:55Z</time>
      </trkpt>
      <trkpt lat="49.51154" lon="-1.36901">
        <ele>54.1</ele>
        <time>2020-06-15T13:43:56Z</time>
      </trkpt>
      <trkpt lat="49.51148" lon="-1.36901">
        <ele>54</ele>
        <time>2020-06-15T13:43:57Z</time>
      </trkpt>
      <trkpt lat="49.51143" lon="-1.36902">
        <ele>53.9</ele>
        <time>2020-06-15T13:43:58Z</time>
      </trkpt>
      <trkpt lat="49.51136" lon="-1.36903">
        <ele>53.8</ele>
        <time>2020-06-15T13:43:59Z</time>
      </trkpt>
      <trkpt lat="49.5113" lon="-1.36905">
        <ele>53.7</ele>
        <time>2020-06-15T13:44:00Z</time>
      </trkpt>
      <trkpt lat="49.51124" lon="-1.36906">
        <ele>53.6</ele>
        <time>2020-06-15T13:44:01Z</time>
      </trkpt>
      <trkpt lat="49.51117" lon="-1.36907">
        <ele>53.5</ele>
        <time>2020-06-15T13:44:02Z</time>
      </trkpt>
      <trkpt lat="49.51111" lon="-1.36908">
        <ele>53.4</ele>
        <time>2020-06-15T13:44:03Z</time>
      </trkpt>
      <trkpt lat="49.51106" lon="-1.3691">
        <ele>53.4</ele>
        <time>2020-06-15T13:44:04Z</time>
      </trkpt>
      <trkpt lat="49.51101" lon="-1.36912">
        <ele>53.3</ele>
        <time>2020-06-15T13:44:05Z</time>
      </trkpt>
      <trkpt lat="49.51094" lon="-1.36915">
        <ele>53.2</ele>
        <time>2020-06-15T13:44:06Z</time>
      </trkpt>
      <trkpt lat="49.51089" lon="-1.36917">
        <ele>53.1</ele>
        <time>2020-06-15T13:44:07Z</time>
      </trkpt>
      <trkpt lat="49.51083" lon="-1.36919">
        <ele>53</ele>
        <time>2020-06-15T13:44:08Z</time>
      </trkpt>
      <trkpt lat="49.51077" lon="-1.36921">
        <ele>53</ele>
        <time>2020-06-15T13:44:09Z</time>
      </trkpt>
      <trkpt lat="49.51072" lon="-1.36923">
        <ele>52.9</ele>
        <time>2020-06-15T13:44:10Z</time>
      </trkpt>
      <trkpt lat="49.51065" lon="-1.36925">
        <ele>52.8</ele>
        <time>2020-06-15T13:44:11Z</time>
      </trkpt>
      <trkpt lat="49.51059" lon="-1.36928">
        <ele>52.7</ele>
        <time>2020-06-15T13:44:12Z</time>
      </trkpt>
      <trkpt lat="49.51054" lon="-1.36931">
        <ele>52.6</ele>
        <time>2020-06-15T13:44:13Z</time>
      </trkpt>
      <trkpt lat="49.51048" lon="-1.36933">
        <ele>52.5</ele>
        <time>2020-06-15T13:44:14Z</time>
      </trkpt>
      <trkpt lat="49.51042" lon="-1.36935">
        <ele>52.4</ele>
        <time>2020-06-15T13:44:15Z</time>
      </trkpt>
      <trkpt lat="49.51036" lon="-1.36939">
        <ele>52.4</ele>
        <time>2020-06-15T13:44:16Z</time>
      </trkpt>
      <trkpt lat="49.5103" lon="-1.36942">
        <ele>52.3</ele>
        <time>2020-06-15T13:44:17Z</time>
      </trkpt>
      <trkpt lat="49.51023" lon="-1.36944">
        <ele>52.2</ele>
        <time>2020-06-15T13:44:18Z</time>
      </trkpt>
      <trkpt lat="49.51016" lon="-1.36947">
        <ele>52.2</ele>
        <time>2020-06-15T13:44:19Z</time>
      </trkpt>
      <trkpt lat="49.51011" lon="-1.3695">
        <ele>52.2</ele>
        <time>2020-06-15T13:44:20Z</time>
      </trkpt>
      <trkpt lat="49.51005" lon="-1.36953">
        <ele>52.2</ele>
        <time>2020-06-15T13:44:21Z</time>
      </trkpt>
      <trkpt lat="49.50999" lon="-1.36955">
        <ele>52.2</ele>
        <time>2020-06-15T13:44:22Z</time>
      </trkpt>
      <trkpt lat="49.50993" lon="-1.36957">
        <ele>52.2</ele>
        <time>2020-06-15T13:44:23Z</time>
      </trkpt>
      <trkpt lat="49.50987" lon="-1.36959">
        <ele>52.2</ele>
        <time>2020-06-15T13:44:24Z</time>
      </trkpt>
      <trkpt lat="49.50981" lon="-1.36962">
        <ele>52.2</ele>
        <time>2020-06-15T13:44:25Z</time>
      </trkpt>
      <trkpt lat="49.50975" lon="-1.36965">
        <ele>52.2</ele>
        <time>2020-06-15T13:44:26Z</time>
      </trkpt>
      <trkpt lat="49.50969" lon="-1.36967">
        <ele>52.2</ele>
        <time>2020-06-15T13:44:27Z</time>
      </trkpt>
      <trkpt lat="49.50962" lon="-1.3697">
        <ele>52.2</ele>
        <time>2020-06-15T13:44:28Z</time>
      </trkpt>
      <trkpt lat="49.50956" lon="-1.36972">
        <ele>52.3</ele>
        <time>2020-06-15T13:44:29Z</time>
      </trkpt>
      <trkpt lat="49.50951" lon="-1.36974">
        <ele>52.3</ele>
        <time>2020-06-15T13:44:30Z</time>
      </trkpt>
      <trkpt lat="49.50945" lon="-1.36976">
        <ele>52.4</ele>
        <time>2020-06-15T13:44:31Z</time>
      </trkpt>
      <trkpt lat="49.50938" lon="-1.36978">
        <ele>52.5</ele>
        <time>2020-06-15T13:44:32Z</time>
      </trkpt>
      <trkpt lat="49.50935" lon="-1.36981">
        <ele>52.5</ele>
        <time>2020-06-15T13:44:33Z</time>
      </trkpt>
      <trkpt lat="49.50929" lon="-1.36982">
        <ele>52.6</ele>
        <time>2020-06-15T13:44:34Z</time>
      </trkpt>
      <trkpt lat="49.50924" lon="-1.36983">
        <ele>52.7</ele>
        <time>2020-06-15T13:44:35Z</time>
      </trkpt>
      <trkpt lat="49.50919" lon="-1.36985">
        <ele>52.8</ele>
        <time>2020-06-15T13:44:36Z</time>
      </trkpt>
      <trkpt lat="49.50915" lon="-1.36987">
        <ele>52.8</ele>
        <time>2020-06-15T13:44:37Z</time>
      </trkpt>
      <trkpt lat="49.5091" lon="-1.36989">
        <ele>52.9</ele>
        <time>2020-06-15T13:44:38Z</time>
      </trkpt>
      <trkpt lat="49.50905" lon="-1.36991">
        <ele>53</ele>
        <time>2020-06-15T13:44:39Z</time>
      </trkpt>
      <trkpt lat="49.509" lon="-1.36993">
        <ele>53.1</ele>
        <time>2020-06-15T13:44:40Z</time>
      </trkpt>
      <trkpt lat="49.50894" lon="-1.36995">
        <ele>53.1</ele>
        <time>2020-06-15T13:44:41Z</time>
      </trkpt>
      <trkpt lat="49.50889" lon="-1.36997">
        <ele>53.2</ele>
        <time>2020-06-15T13:44:42Z</time>
      </trkpt>
      <trkpt lat="49.50885" lon="-1.36998">
        <ele>53.3</ele>
        <time>2020-06-15T13:44:43Z</time>
      </trkpt>
      <trkpt lat="49.50879" lon="-1.37001">
        <ele>53.4</ele>
        <time>2020-06-15T13:44:44Z</time>
      </trkpt>
      <trkpt lat="49.50874" lon="-1.37003">
        <ele>53.4</ele>
        <time>2020-06-15T13:44:45Z</time>
      </trkpt>
      <trkpt lat="49.50868" lon="-1.37005">
        <ele>53.5</ele>
        <time>2020-06-15T13:44:46Z</time>
      </trkpt>
      <trkpt lat="49.50863" lon="-1.37007">
        <ele>53.6</ele>
        <time>2020-06-15T13:44:47Z</time>
      </trkpt>
      <trkpt lat="49.50858" lon="-1.37007">
        <ele>53.7</ele>
        <time>2020-06-15T13:44:48Z</time>
      </trkpt>
      <trkpt lat="49.50852" lon="-1.3701">
        <ele>53.8</ele>
        <time>2020-06-15T13:44:49Z</time>
      </trkpt>
      <trkpt lat="49.50847" lon="-1.37011">
        <ele>53.9</ele>
        <time>2020-06-15T13:44:50Z</time>
      </trkpt>
      <trkpt lat="49.50842" lon="-1.37012">
        <ele>54</ele>
        <time>2020-06-15T13:44:51Z</time>
      </trkpt>
      <trkpt lat="49.50836" lon="-1.37013">
        <ele>54.1</ele>
        <time>2020-06-15T13:44:52Z</time>
      </trkpt>
      <trkpt lat="49.50831" lon="-1.37015">
        <ele>54.2</ele>
        <time>2020-06-15T13:44:53Z</time>
      </trkpt>
      <trkpt lat="49.50826" lon="-1.37017">
        <ele>54.3</ele>
        <time>2020-06-15T13:44:54Z</time>
      </trkpt>
      <trkpt lat="49.50822" lon="-1.37017">
        <ele>54.4</ele>
        <time>2020-06-15T13:44:55Z</time>
      </trkpt>
      <trkpt lat="49.50819" lon="-1.37019">
        <ele>54.5</ele>
        <time>2020-06-15T13:44:56Z</time>
      </trkpt>
      <trkpt lat="49.50815" lon="-1.37019">
        <ele>54.6</ele>
        <time>2020-06-15T13:44:57Z</time>
      </trkpt>
      <trkpt lat="49.50814" lon="-1.37019">
        <ele>54.6</ele>
        <time>2020-06-15T13:44:58Z</time>
      </trkpt>
      <trkpt lat="49.50813" lon="-1.37018">
        <ele>54.6</ele>
        <time>2020-06-15T13:44:59Z</time>
      </trkpt>
      <trkpt lat="49.50812" lon="-1.37016">
        <ele>54.7</ele>
        <time>2020-06-15T13:45:00Z</time>
      </trkpt>
      <trkpt lat="49.50812" lon="-1.37015">
        <ele>54.7</ele>
        <time>2020-06-15T13:45:01Z</time>
      </trkpt>
      <trkpt lat="49.50813" lon="-1.37013">
        <ele>54.7</ele>
        <time>2020-06-15T13:45:02Z</time>
      </trkpt>
      <trkpt lat="49.50814" lon="-1.37013">
        <ele>54.7</ele>
        <time>2020-06-15T13:45:03Z</time>
      </trkpt>
      <trkpt lat="49.50815" lon="-1.37013">
        <ele>54.8</ele>
        <time>2020-06-15T13:45:04Z</time>
      </trkpt>
      <trkpt lat="49.50815" lon="-1.37014">
        <ele>54.8</ele>
        <time>2020-06-15T13:45:05Z</time>
      </trkpt>
      <trkpt lat="49.50815" lon="-1.37017">
        <ele>54.8</ele>
        <time>2020-06-15T13:45:06Z</time>
      </trkpt>
      <trkpt lat="49.50813" lon="-1.37018">
        <ele>54.9</ele>
        <time>2020-06-15T13:45:07Z</time>
      </trkpt>
      <trkpt lat="49.50813" lon="-1.37018">
        <ele>54.9</ele>
        <time>2020-06-15T13:45:08Z</time>
      </trkpt>
      <trkpt lat="49.50813" lon="-1.37017">
        <ele>54.9</ele>
        <time>2020-06-15T13:45:09Z</time>
      </trkpt>
      <trkpt lat="49.50813" lon="-1.37013">
        <ele>55</ele>
        <time>2020-06-15T13:45:10Z</time>
      </trkpt>
      <trkpt lat="49.50814" lon="-1.3701">
        <ele>55</ele>
        <time>2020-06-15T13:45:11Z</time>
      </trkpt>
      <trkpt lat="49.50815" lon="-1.37006">
        <ele>55</ele>
        <time>2020-06-15T13:45:12Z</time>
      </trkpt>
      <trkpt lat="49.50815" lon="-1.37004">
        <ele>55</ele>
        <time>2020-06-15T13:45:13Z</time>
      </trkpt>
      <trkpt lat="49.50814" lon="-1.36997">
        <ele>55</ele>
        <time>2020-06-15T13:45:14Z</time>
      </trkpt>
      <trkpt lat="49.50814" lon="-1.36995">
        <ele>55</ele>
        <time>2020-06-15T13:45:15Z</time>
      </trkpt>
      <trkpt lat="49.50813" lon="-1.3699">
        <ele>55</ele>
        <time>2020-06-15T13:45:16Z</time>
      </trkpt>
      <trkpt lat="49.50813" lon="-1.36984">
        <ele>55</ele>
        <time>2020-06-15T13:45:17Z</time>
      </trkpt>
      <trkpt lat="49.50813" lon="-1.36978">
        <ele>55</ele>
        <time>2020-06-15T13:45:18Z</time>
      </trkpt>
      <trkpt lat="49.50813" lon="-1.36973">
        <ele>55</ele>
        <time>2020-06-15T13:45:19Z</time>
      </trkpt>
      <trkpt lat="49.50813" lon="-1.36967">
        <ele>55.1</ele>
        <time>2020-06-15T13:45:20Z</time>
      </trkpt>
      <trkpt lat="49.50813" lon="-1.36961">
        <ele>55.1</ele>
        <time>2020-06-15T13:45:21Z</time>
      </trkpt>
      <trkpt lat="49.50813" lon="-1.36954">
        <ele>55.2</ele>
        <time>2020-06-15T13:45:22Z</time>
      </trkpt>
      <trkpt lat="49.50813" lon="-1.36948">
        <ele>55.3</ele>
        <time>2020-06-15T13:45:23Z</time>
      </trkpt>
      <trkpt lat="49.50813" lon="-1.36942">
        <ele>55.4</ele>
        <time>2020-06-15T13:45:24Z</time>
      </trkpt>
      <trkpt lat="49.50812" lon="-1.36935">
        <ele>55.5</ele>
        <time>2020-06-15T13:45:25Z</time>
      </trkpt>
      <trkpt lat="49.50812" lon="-1.36929">
        <ele>55.6</ele>
        <time>2020-06-15T13:45:26Z</time>
      </trkpt>
      <trkpt lat="49.50812" lon="-1.36922">
        <ele>55.7</ele>
        <time>2020-06-15T13:45:27Z</time>
      </trkpt>
      <trkpt lat="49.50812" lon="-1.36917">
        <ele>55.9</ele>
        <time>2020-06-15T13:45:28Z</time>
      </trkpt>
      <trkpt lat="49.50812" lon="-1.3691">
        <ele>56</ele>
        <time>2020-06-15T13:45:29Z</time>
      </trkpt>
      <trkpt lat="49.50811" lon="-1.36904">
        <ele>56.2</ele>
        <time>2020-06-15T13:45:30Z</time>
      </trkpt>
      <trkpt lat="49.50812" lon="-1.36897">
        <ele>56.3</ele>
        <time>2020-06-15T13:45:31Z</time>
      </trkpt>
      <trkpt lat="49.50812" lon="-1.36891">
        <ele>56.5</ele>
        <time>2020-06-15T13:45:32Z</time>
      </trkpt>
      <trkpt lat="49.50812" lon="-1.36885">
        <ele>56.6</ele>
        <time>2020-06-15T13:45:33Z</time>
      </trkpt>
      <trkpt lat="49.50812" lon="-1.36878">
        <ele>56.7</ele>
        <time>2020-06-15T13:45:34Z</time>
      </trkpt>
      <trkpt lat="49.50812" lon="-1.36871">
        <ele>56.9</ele>
        <time>2020-06-15T13:45:35Z</time>
      </trkpt>
      <trkpt lat="49.50812" lon="-1.36864">
        <ele>57</ele>
        <time>2020-06-15T13:45:36Z</time>
      </trkpt>
      <trkpt lat="49.50812" lon="-1.36858">
        <ele>57.1</ele>
        <time>2020-06-15T13:45:37Z</time>
      </trkpt>
      <trkpt lat="49.50812" lon="-1.36851">
        <ele>57.2</ele>
        <time>2020-06-15T13:45:38Z</time>
      </trkpt>
      <trkpt lat="49.50813" lon="-1.36844">
        <ele>57.3</ele>
        <time>2020-06-15T13:45:39Z</time>
      </trkpt>
      <trkpt lat="49.50812" lon="-1.36839">
        <ele>57.4</ele>
        <time>2020-06-15T13:45:40Z</time>
      </trkpt>
      <trkpt lat="49.50812" lon="-1.36833">
        <ele>57.5</ele>
        <time>2020-06-15T13:45:41Z</time>
      </trkpt>
      <trkpt lat="49.50812" lon="-1.36827">
        <ele>57.6</ele>
        <time>2020-06-15T13:45:42Z</time>
      </trkpt>
      <trkpt lat="49.50812" lon="-1.3682">
        <ele>57.8</ele>
        <time>2020-06-15T13:45:43Z</time>
      </trkpt>
      <trkpt lat="49.5081" lon="-1.36813">
        <ele>57.9</ele>
        <time>2020-06-15T13:45:44Z</time>
      </trkpt>
      <trkpt lat="49.5081" lon="-1.36806">
        <ele>58.1</ele>
        <time>2020-06-15T13:45:45Z</time>
      </trkpt>
      <trkpt lat="49.50809" lon="-1.36799">
        <ele>58.2</ele>
        <time>2020-06-15T13:45:46Z</time>
      </trkpt>
      <trkpt lat="49.50809" lon="-1.36793">
        <ele>58.4</ele>
        <time>2020-06-15T13:45:47Z</time>
      </trkpt>
      <trkpt lat="49.50808" lon="-1.36786">
        <ele>58.5</ele>
        <time>2020-06-15T13:45:48Z</time>
      </trkpt>
      <trkpt lat="49.50807" lon="-1.36778">
        <ele>58.7</ele>
        <time>2020-06-15T13:45:49Z</time>
      </trkpt>
      <trkpt lat="49.50807" lon="-1.3677">
        <ele>58.9</ele>
        <time>2020-06-15T13:45:50Z</time>
      </trkpt>
      <trkpt lat="49.50806" lon="-1.36762">
        <ele>59</ele>
        <time>2020-06-15T13:45:51Z</time>
      </trkpt>
      <trkpt lat="49.50805" lon="-1.36755">
        <ele>59.2</ele>
        <time>2020-06-15T13:45:52Z</time>
      </trkpt>
      <trkpt lat="49.50805" lon="-1.3675">
        <ele>59.3</ele>
        <time>2020-06-15T13:45:53Z</time>
      </trkpt>
      <trkpt lat="49.50805" lon="-1.36744">
        <ele>59.4</ele>
        <time>2020-06-15T13:45:54Z</time>
      </trkpt>
      <trkpt lat="49.50804" lon="-1.36738">
        <ele>59.6</ele>
        <time>2020-06-15T13:45:55Z</time>
      </trkpt>
      <trkpt lat="49.50804" lon="-1.36731">
        <ele>59.7</ele>
        <time>2020-06-15T13:45:56Z</time>
      </trkpt>
      <trkpt lat="49.50804" lon="-1.36724">
        <ele>59.8</ele>
        <time>2020-06-15T13:45:57Z</time>
      </trkpt>
      <trkpt lat="49.50804" lon="-1.36718">
        <ele>59.9</ele>
        <time>2020-06-15T13:45:58Z</time>
      </trkpt>
      <trkpt lat="49.50804" lon="-1.3671">
        <ele>60</ele>
        <time>2020-06-15T13:45:59Z</time>
      </trkpt>
      <trkpt lat="49.50804" lon="-1.36703">
        <ele>60.2</ele>
        <time>2020-06-15T13:46:00Z</time>
      </trkpt>
      <trkpt lat="49.50804" lon="-1.36695">
        <ele>60.5</ele>
        <time>2020-06-15T13:46:01Z</time>
      </trkpt>
      <trkpt lat="49.50803" lon="-1.36688">
        <ele>60.7</ele>
        <time>2020-06-15T13:46:02Z</time>
      </trkpt>
      <trkpt lat="49.50803" lon="-1.36681">
        <ele>60.9</ele>
        <time>2020-06-15T13:46:03Z</time>
      </trkpt>
      <trkpt lat="49.50802" lon="-1.36674">
        <ele>61.2</ele>
        <time>2020-06-15T13:46:04Z</time>
      </trkpt>
      <trkpt lat="49.50802" lon="-1.36668">
        <ele>61.4</ele>
        <time>2020-06-15T13:46:05Z</time>
      </trkpt>
      <trkpt lat="49.50801" lon="-1.36662">
        <ele>61.6</ele>
        <time>2020-06-15T13:46:06Z</time>
      </trkpt>
      <trkpt lat="49.50801" lon="-1.36655">
        <ele>61.8</ele>
        <time>2020-06-15T13:46:07Z</time>
      </trkpt>
      <trkpt lat="49.508" lon="-1.36649">
        <ele>62</ele>
        <time>2020-06-15T13:46:08Z</time>
      </trkpt>
      <trkpt lat="49.508" lon="-1.36643">
        <ele>62.2</ele>
        <time>2020-06-15T13:46:09Z</time>
      </trkpt>
      <trkpt lat="49.508" lon="-1.36637">
        <ele>62.4</ele>
        <time>2020-06-15T13:46:10Z</time>
      </trkpt>
      <trkpt lat="49.508" lon="-1.36632">
        <ele>62.6</ele>
        <time>2020-06-15T13:46:11Z</time>
      </trkpt>
      <trkpt lat="49.50799" lon="-1.36627">
        <ele>62.7</ele>
        <time>2020-06-15T13:46:12Z</time>
      </trkpt>
      <trkpt lat="49.50799" lon="-1.36622">
        <ele>62.9</ele>
        <time>2020-06-15T13:46:13Z</time>
      </trkpt>
      <trkpt lat="49.50799" lon="-1.36617">
        <ele>63.1</ele>
        <time>2020-06-15T13:46:14Z</time>
      </trkpt>
      <trkpt lat="49.50798" lon="-1.36611">
        <ele>63.3</ele>
        <time>2020-06-15T13:46:15Z</time>
      </trkpt>
      <trkpt lat="49.50797" lon="-1.36605">
        <ele>63.6</ele>
        <time>2020-06-15T13:46:16Z</time>
      </trkpt>
      <trkpt lat="49.50797" lon="-1.36598">
        <ele>63.8</ele>
        <time>2020-06-15T13:46:17Z</time>
      </trkpt>
      <trkpt lat="49.50796" lon="-1.36591">
        <ele>64.1</ele>
        <time>2020-06-15T13:46:18Z</time>
      </trkpt>
      <trkpt lat="49.50796" lon="-1.36583">
        <ele>64.4</ele>
        <time>2020-06-15T13:46:19Z</time>
      </trkpt>
      <trkpt lat="49.50795" lon="-1.36577">
        <ele>64.7</ele>
        <time>2020-06-15T13:46:20Z</time>
      </trkpt>
      <trkpt lat="49.50795" lon="-1.3657">
        <ele>65</ele>
        <time>2020-06-15T13:46:21Z</time>
      </trkpt>
      <trkpt lat="49.50795" lon="-1.36564">
        <ele>65.3</ele>
        <time>2020-06-15T13:46:22Z</time>
      </trkpt>
      <trkpt lat="49.50795" lon="-1.36557">
        <ele>65.6</ele>
        <time>2020-06-15T13:46:23Z</time>
      </trkpt>
      <trkpt lat="49.50794" lon="-1.3655">
        <ele>65.9</ele>
        <time>2020-06-15T13:46:24Z</time>
      </trkpt>
      <trkpt lat="49.50794" lon="-1.36544">
        <ele>66.1</ele>
        <time>2020-06-15T13:46:25Z</time>
      </trkpt>
      <trkpt lat="49.50794" lon="-1.36538">
        <ele>66.4</ele>
        <time>2020-06-15T13:46:26Z</time>
      </trkpt>
      <trkpt lat="49.50793" lon="-1.36531">
        <ele>66.6</ele>
        <time>2020-06-15T13:46:27Z</time>
      </trkpt>
      <trkpt lat="49.50794" lon="-1.36523">
        <ele>66.9</ele>
        <time>2020-06-15T13:46:28Z</time>
      </trkpt>
      <trkpt lat="49.50793" lon="-1.36515">
        <ele>67.1</ele>
        <time>2020-06-15T13:46:29Z</time>
      </trkpt>
      <trkpt lat="49.50793" lon="-1.36507">
        <ele>67.4</ele>
        <time>2020-06-15T13:46:30Z</time>
      </trkpt>
      <trkpt lat="49.50792" lon="-1.365">
        <ele>67.7</ele>
        <time>2020-06-15T13:46:31Z</time>
      </trkpt>
      <trkpt lat="49.50792" lon="-1.36493">
        <ele>67.9</ele>
        <time>2020-06-15T13:46:32Z</time>
      </trkpt>
      <trkpt lat="49.50792" lon="-1.36487">
        <ele>68.2</ele>
        <time>2020-06-15T13:46:33Z</time>
      </trkpt>
      <trkpt lat="49.50792" lon="-1.3648">
        <ele>68.4</ele>
        <time>2020-06-15T13:46:34Z</time>
      </trkpt>
      <trkpt lat="49.50792" lon="-1.36474">
        <ele>68.7</ele>
        <time>2020-06-15T13:46:35Z</time>
      </trkpt>
      <trkpt lat="49.50791" lon="-1.36466">
        <ele>69</ele>
        <time>2020-06-15T13:46:36Z</time>
      </trkpt>
      <trkpt lat="49.50791" lon="-1.36459">
        <ele>69.3</ele>
        <time>2020-06-15T13:46:37Z</time>
      </trkpt>
      <trkpt lat="49.50791" lon="-1.36452">
        <ele>69.5</ele>
        <time>2020-06-15T13:46:38Z</time>
      </trkpt>
      <trkpt lat="49.50791" lon="-1.36446">
        <ele>69.7</ele>
        <time>2020-06-15T13:46:39Z</time>
      </trkpt>
      <trkpt lat="49.5079" lon="-1.36439">
        <ele>69.9</ele>
        <time>2020-06-15T13:46:40Z</time>
      </trkpt>
      <trkpt lat="49.5079" lon="-1.36433">
        <ele>70.1</ele>
        <time>2020-06-15T13:46:41Z</time>
      </trkpt>
      <trkpt lat="49.5079" lon="-1.36428">
        <ele>70.3</ele>
        <time>2020-06-15T13:46:42Z</time>
      </trkpt>
      <trkpt lat="49.50791" lon="-1.36422">
        <ele>70.5</ele>
        <time>2020-06-15T13:46:43Z</time>
      </trkpt>
      <trkpt lat="49.50791" lon="-1.36416">
        <ele>70.7</ele>
        <time>2020-06-15T13:46:44Z</time>
      </trkpt>
      <trkpt lat="49.50791" lon="-1.3641">
        <ele>70.9</ele>
        <time>2020-06-15T13:46:45Z</time>
      </trkpt>
      <trkpt lat="49.50791" lon="-1.36403">
        <ele>71.1</ele>
        <time>2020-06-15T13:46:46Z</time>
      </trkpt>
      <trkpt lat="49.50791" lon="-1.36396">
        <ele>71.3</ele>
        <time>2020-06-15T13:46:47Z</time>
      </trkpt>
      <trkpt lat="49.50791" lon="-1.3639">
        <ele>71.4</ele>
        <time>2020-06-15T13:46:48Z</time>
      </trkpt>
      <trkpt lat="49.50791" lon="-1.36383">
        <ele>71.6</ele>
        <time>2020-06-15T13:46:49Z</time>
      </trkpt>
      <trkpt lat="49.50791" lon="-1.36377">
        <ele>71.7</ele>
        <time>2020-06-15T13:46:50Z</time>
      </trkpt>
      <trkpt lat="49.5079" lon="-1.36369">
        <ele>71.9</ele>
        <time>2020-06-15T13:46:51Z</time>
      </trkpt>
      <trkpt lat="49.5079" lon="-1.36364">
        <ele>71.9</ele>
        <time>2020-06-15T13:46:52Z</time>
      </trkpt>
      <trkpt lat="49.50789" lon="-1.36357">
        <ele>72</ele>
        <time>2020-06-15T13:46:53Z</time>
      </trkpt>
      <trkpt lat="49.50789" lon="-1.3635">
        <ele>72.1</ele>
        <time>2020-06-15T13:46:54Z</time>
      </trkpt>
      <trkpt lat="49.50789" lon="-1.36344">
        <ele>72.2</ele>
        <time>2020-06-15T13:46:55Z</time>
      </trkpt>
      <trkpt lat="49.50789" lon="-1.36337">
        <ele>72.3</ele>
        <time>2020-06-15T13:46:56Z</time>
      </trkpt>
      <trkpt lat="49.50789" lon="-1.36331">
        <ele>72.3</ele>
        <time>2020-06-15T13:46:57Z</time>
      </trkpt>
      <trkpt lat="49.50789" lon="-1.36324">
        <ele>72.4</ele>
        <time>2020-06-15T13:46:58Z</time>
      </trkpt>
      <trkpt lat="49.50788" lon="-1.36317">
        <ele>72.4</ele>
        <time>2020-06-15T13:46:59Z</time>
      </trkpt>
      <trkpt lat="49.50787" lon="-1.3631">
        <ele>72.4</ele>
        <time>2020-06-15T13:47:00Z</time>
      </trkpt>
      <trkpt lat="49.50787" lon="-1.36304">
        <ele>72.5</ele>
        <time>2020-06-15T13:47:01Z</time>
      </trkpt>
      <trkpt lat="49.50786" lon="-1.36297">
        <ele>72.5</ele>
        <time>2020-06-15T13:47:02Z</time>
      </trkpt>
      <trkpt lat="49.50786" lon="-1.3629">
        <ele>72.4</ele>
        <time>2020-06-15T13:47:03Z</time>
      </trkpt>
      <trkpt lat="49.50785" lon="-1.36284">
        <ele>72.4</ele>
        <time>2020-06-15T13:47:04Z</time>
      </trkpt>
      <trkpt lat="49.50784" lon="-1.36277">
        <ele>72.3</ele>
        <time>2020-06-15T13:47:05Z</time>
      </trkpt>
      <trkpt lat="49.50784" lon="-1.36271">
        <ele>72.2</ele>
        <time>2020-06-15T13:47:06Z</time>
      </trkpt>
      <trkpt lat="49.50784" lon="-1.36265">
        <ele>72.1</ele>
        <time>2020-06-15T13:47:07Z</time>
      </trkpt>
      <trkpt lat="49.50784" lon="-1.36259">
        <ele>72</ele>
        <time>2020-06-15T13:47:08Z</time>
      </trkpt>
      <trkpt lat="49.50783" lon="-1.36252">
        <ele>71.9</ele>
        <time>2020-06-15T13:47:09Z</time>
      </trkpt>
      <trkpt lat="49.50783" lon="-1.36245">
        <ele>71.7</ele>
        <time>2020-06-15T13:47:10Z</time>
      </trkpt>
      <trkpt lat="49.50782" lon="-1.36238">
        <ele>71.5</ele>
        <time>2020-06-15T13:47:11Z</time>
      </trkpt>
      <trkpt lat="49.50782" lon="-1.36231">
        <ele>71.3</ele>
        <time>2020-06-15T13:47:12Z</time>
      </trkpt>
      <trkpt lat="49.50782" lon="-1.36224">
        <ele>71.1</ele>
        <time>2020-06-15T13:47:13Z</time>
      </trkpt>
      <trkpt lat="49.50781" lon="-1.36216">
        <ele>70.8</ele>
        <time>2020-06-15T13:47:14Z</time>
      </trkpt>
      <trkpt lat="49.50781" lon="-1.36209">
        <ele>70.6</ele>
        <time>2020-06-15T13:47:15Z</time>
      </trkpt>
      <trkpt lat="49.50781" lon="-1.36202">
        <ele>70.5</ele>
        <time>2020-06-15T13:47:16Z</time>
      </trkpt>
      <trkpt lat="49.50781" lon="-1.36195">
        <ele>70.3</ele>
        <time>2020-06-15T13:47:17Z</time>
      </trkpt>
      <trkpt lat="49.50781" lon="-1.36187">
        <ele>70</ele>
        <time>2020-06-15T13:47:18Z</time>
      </trkpt>
      <trkpt lat="49.5078" lon="-1.36179">
        <ele>69.8</ele>
        <time>2020-06-15T13:47:19Z</time>
      </trkpt>
      <trkpt lat="49.50779" lon="-1.3617">
        <ele>69.4</ele>
        <time>2020-06-15T13:47:20Z</time>
      </trkpt>
      <trkpt lat="49.50778" lon="-1.3616">
        <ele>69</ele>
        <time>2020-06-15T13:47:21Z</time>
      </trkpt>
      <trkpt lat="49.50777" lon="-1.3615">
        <ele>68.6</ele>
        <time>2020-06-15T13:47:22Z</time>
      </trkpt>
      <trkpt lat="49.50777" lon="-1.3614">
        <ele>68.2</ele>
        <time>2020-06-15T13:47:23Z</time>
      </trkpt>
      <trkpt lat="49.50776" lon="-1.36129">
        <ele>67.9</ele>
        <time>2020-06-15T13:47:24Z</time>
      </trkpt>
      <trkpt lat="49.50774" lon="-1.36118">
        <ele>67.5</ele>
        <time>2020-06-15T13:47:25Z</time>
      </trkpt>
      <trkpt lat="49.50773" lon="-1.36107">
        <ele>67.2</ele>
        <time>2020-06-15T13:47:26Z</time>
      </trkpt>
      <trkpt lat="49.50773" lon="-1.36097">
        <ele>66.9</ele>
        <time>2020-06-15T13:47:27Z</time>
      </trkpt>
      <trkpt lat="49.50772" lon="-1.36085">
        <ele>66.6</ele>
        <time>2020-06-15T13:47:28Z</time>
      </trkpt>
      <trkpt lat="49.50772" lon="-1.36073">
        <ele>66.3</ele>
        <time>2020-06-15T13:47:29Z</time>
      </trkpt>
      <trkpt lat="49.50771" lon="-1.36061">
        <ele>66</ele>
        <time>2020-06-15T13:47:30Z</time>
      </trkpt>
      <trkpt lat="49.5077" lon="-1.36049">
        <ele>65.7</ele>
        <time>2020-06-15T13:47:31Z</time>
      </trkpt>
      <trkpt lat="49.50769" lon="-1.36037">
        <ele>65.4</ele>
        <time>2020-06-15T13:47:32Z</time>
      </trkpt>
      <trkpt lat="49.50768" lon="-1.36026">
        <ele>65.1</ele>
        <time>2020-06-15T13:47:33Z</time>
      </trkpt>
      <trkpt lat="49.50767" lon="-1.36014">
        <ele>65</ele>
        <time>2020-06-15T13:47:34Z</time>
      </trkpt>
      <trkpt lat="49.50767" lon="-1.36003">
        <ele>64.8</ele>
        <time>2020-06-15T13:47:35Z</time>
      </trkpt>
      <trkpt lat="49.50766" lon="-1.35992">
        <ele>64.6</ele>
        <time>2020-06-15T13:47:36Z</time>
      </trkpt>
      <trkpt lat="49.50766" lon="-1.35983">
        <ele>64.5</ele>
        <time>2020-06-15T13:47:37Z</time>
      </trkpt>
      <trkpt lat="49.50766" lon="-1.35973">
        <ele>64.4</ele>
        <time>2020-06-15T13:47:38Z</time>
      </trkpt>
      <trkpt lat="49.50766" lon="-1.35963">
        <ele>64.3</ele>
        <time>2020-06-15T13:47:39Z</time>
      </trkpt>
      <trkpt lat="49.50766" lon="-1.35954">
        <ele>64.2</ele>
        <time>2020-06-15T13:47:40Z</time>
      </trkpt>
      <trkpt lat="49.50767" lon="-1.35946">
        <ele>64.1</ele>
        <time>2020-06-15T13:47:41Z</time>
      </trkpt>
      <trkpt lat="49.50769" lon="-1.35937">
        <ele>64</ele>
        <time>2020-06-15T13:47:42Z</time>
      </trkpt>
      <trkpt lat="49.50771" lon="-1.35928">
        <ele>63.9</ele>
        <time>2020-06-15T13:47:43Z</time>
      </trkpt>
      <trkpt lat="49.50773" lon="-1.35919">
        <ele>63.8</ele>
        <time>2020-06-15T13:47:44Z</time>
      </trkpt>
      <trkpt lat="49.50773" lon="-1.3591">
        <ele>63.7</ele>
        <time>2020-06-15T13:47:45Z</time>
      </trkpt>
      <trkpt lat="49.50774" lon="-1.35902">
        <ele>63.7</ele>
        <time>2020-06-15T13:47:46Z</time>
      </trkpt>
      <trkpt lat="49.50776" lon="-1.35893">
        <ele>63.6</ele>
        <time>2020-06-15T13:47:47Z</time>
      </trkpt>
      <trkpt lat="49.50778" lon="-1.35885">
        <ele>63.6</ele>
        <time>2020-06-15T13:47:48Z</time>
      </trkpt>
      <trkpt lat="49.50779" lon="-1.35877">
        <ele>63.6</ele>
        <time>2020-06-15T13:47:49Z</time>
      </trkpt>
      <trkpt lat="49.50781" lon="-1.35868">
        <ele>63.6</ele>
        <time>2020-06-15T13:47:50Z</time>
      </trkpt>
      <trkpt lat="49.50782" lon="-1.3586">
        <ele>63.6</ele>
        <time>2020-06-15T13:47:51Z</time>
      </trkpt>
      <trkpt lat="49.50784" lon="-1.35853">
        <ele>63.6</ele>
        <time>2020-06-15T13:47:52Z</time>
      </trkpt>
      <trkpt lat="49.50786" lon="-1.35845">
        <ele>63.7</ele>
        <time>2020-06-15T13:47:53Z</time>
      </trkpt>
      <trkpt lat="49.50787" lon="-1.35837">
        <ele>63.8</ele>
        <time>2020-06-15T13:47:54Z</time>
      </trkpt>
      <trkpt lat="49.50788" lon="-1.35831">
        <ele>63.9</ele>
        <time>2020-06-15T13:47:55Z</time>
      </trkpt>
      <trkpt lat="49.50791" lon="-1.35823">
        <ele>64</ele>
        <time>2020-06-15T13:47:56Z</time>
      </trkpt>
      <trkpt lat="49.50793" lon="-1.35814">
        <ele>64.2</ele>
        <time>2020-06-15T13:47:57Z</time>
      </trkpt>
      <trkpt lat="49.50795" lon="-1.35809">
        <ele>64.2</ele>
        <time>2020-06-15T13:47:58Z</time>
      </trkpt>
      <trkpt lat="49.50797" lon="-1.35802">
        <ele>64.3</ele>
        <time>2020-06-15T13:47:59Z</time>
      </trkpt>
      <trkpt lat="49.50799" lon="-1.35795">
        <ele>64.4</ele>
        <time>2020-06-15T13:48:00Z</time>
      </trkpt>
      <trkpt lat="49.508" lon="-1.35789">
        <ele>64.4</ele>
        <time>2020-06-15T13:48:01Z</time>
      </trkpt>
      <trkpt lat="49.50802" lon="-1.35782">
        <ele>64.4</ele>
        <time>2020-06-15T13:48:02Z</time>
      </trkpt>
      <trkpt lat="49.50803" lon="-1.35776">
        <ele>64.5</ele>
        <time>2020-06-15T13:48:03Z</time>
      </trkpt>
      <trkpt lat="49.50804" lon="-1.35769">
        <ele>64.5</ele>
        <time>2020-06-15T13:48:04Z</time>
      </trkpt>
      <trkpt lat="49.50806" lon="-1.35762">
        <ele>64.6</ele>
        <time>2020-06-15T13:48:05Z</time>
      </trkpt>
      <trkpt lat="49.50807" lon="-1.35754">
        <ele>64.7</ele>
        <time>2020-06-15T13:48:06Z</time>
      </trkpt>
      <trkpt lat="49.50809" lon="-1.35744">
        <ele>64.8</ele>
        <time>2020-06-15T13:48:07Z</time>
      </trkpt>
      <trkpt lat="49.5081" lon="-1.35736">
        <ele>64.9</ele>
        <time>2020-06-15T13:48:08Z</time>
      </trkpt>
      <trkpt lat="49.50811" lon="-1.35729">
        <ele>65</ele>
        <time>2020-06-15T13:48:09Z</time>
      </trkpt>
      <trkpt lat="49.50813" lon="-1.35721">
        <ele>65.1</ele>
        <time>2020-06-15T13:48:10Z</time>
      </trkpt>
      <trkpt lat="49.50813" lon="-1.35717">
        <ele>65.1</ele>
        <time>2020-06-15T13:48:11Z</time>
      </trkpt>
      <trkpt lat="49.50816" lon="-1.35706">
        <ele>65.2</ele>
        <time>2020-06-15T13:48:12Z</time>
      </trkpt>
      <trkpt lat="49.50818" lon="-1.35699">
        <ele>65.3</ele>
        <time>2020-06-15T13:48:13Z</time>
      </trkpt>
      <trkpt lat="49.5082" lon="-1.35689">
        <ele>65.4</ele>
        <time>2020-06-15T13:48:14Z</time>
      </trkpt>
      <trkpt lat="49.50822" lon="-1.35682">
        <ele>65.5</ele>
        <time>2020-06-15T13:48:15Z</time>
      </trkpt>
      <trkpt lat="49.50822" lon="-1.35677">
        <ele>65.6</ele>
        <time>2020-06-15T13:48:16Z</time>
      </trkpt>
      <trkpt lat="49.50823" lon="-1.35672">
        <ele>65.6</ele>
        <time>2020-06-15T13:48:17Z</time>
      </trkpt>
      <trkpt lat="49.50824" lon="-1.35663">
        <ele>65.7</ele>
        <time>2020-06-15T13:48:18Z</time>
      </trkpt>
      <trkpt lat="49.50825" lon="-1.35657">
        <ele>65.7</ele>
        <time>2020-06-15T13:48:19Z</time>
      </trkpt>
      <trkpt lat="49.50826" lon="-1.3565">
        <ele>65.7</ele>
        <time>2020-06-15T13:48:20Z</time>
      </trkpt>
      <trkpt lat="49.50827" lon="-1.35643">
        <ele>65.8</ele>
        <time>2020-06-15T13:48:21Z</time>
      </trkpt>
      <trkpt lat="49.50829" lon="-1.35634">
        <ele>65.8</ele>
        <time>2020-06-15T13:48:22Z</time>
      </trkpt>
      <trkpt lat="49.5083" lon="-1.35627">
        <ele>65.8</ele>
        <time>2020-06-15T13:48:23Z</time>
      </trkpt>
      <trkpt lat="49.50831" lon="-1.3562">
        <ele>65.9</ele>
        <time>2020-06-15T13:48:24Z</time>
      </trkpt>
      <trkpt lat="49.50833" lon="-1.35613">
        <ele>66.1</ele>
        <time>2020-06-15T13:48:25Z</time>
      </trkpt>
      <trkpt lat="49.50834" lon="-1.35606">
        <ele>66.2</ele>
        <time>2020-06-15T13:48:26Z</time>
      </trkpt>
      <trkpt lat="49.50836" lon="-1.35598">
        <ele>66.3</ele>
        <time>2020-06-15T13:48:27Z</time>
      </trkpt>
      <trkpt lat="49.50837" lon="-1.3559">
        <ele>66.3</ele>
        <time>2020-06-15T13:48:28Z</time>
      </trkpt>
      <trkpt lat="49.50839" lon="-1.35582">
        <ele>66.4</ele>
        <time>2020-06-15T13:48:29Z</time>
      </trkpt>
      <trkpt lat="49.50841" lon="-1.35575">
        <ele>66.5</ele>
        <time>2020-06-15T13:48:30Z</time>
      </trkpt>
      <trkpt lat="49.50843" lon="-1.35566">
        <ele>66.6</ele>
        <time>2020-06-15T13:48:31Z</time>
      </trkpt>
      <trkpt lat="49.50844" lon="-1.35558">
        <ele>66.6</ele>
        <time>2020-06-15T13:48:32Z</time>
      </trkpt>
      <trkpt lat="49.50845" lon="-1.3555">
        <ele>66.7</ele>
        <time>2020-06-15T13:48:33Z</time>
      </trkpt>
      <trkpt lat="49.50847" lon="-1.35542">
        <ele>66.7</ele>
        <time>2020-06-15T13:48:34Z</time>
      </trkpt>
      <trkpt lat="49.50848" lon="-1.35535">
        <ele>66.8</ele>
        <time>2020-06-15T13:48:35Z</time>
      </trkpt>
      <trkpt lat="49.50849" lon="-1.35528">
        <ele>66.8</ele>
        <time>2020-06-15T13:48:36Z</time>
      </trkpt>
      <trkpt lat="49.50851" lon="-1.35521">
        <ele>66.8</ele>
        <time>2020-06-15T13:48:37Z</time>
      </trkpt>
      <trkpt lat="49.50853" lon="-1.35512">
        <ele>66.8</ele>
        <time>2020-06-15T13:48:38Z</time>
      </trkpt>
      <trkpt lat="49.50854" lon="-1.35504">
        <ele>66.9</ele>
        <time>2020-06-15T13:48:39Z</time>
      </trkpt>
      <trkpt lat="49.50855" lon="-1.35496">
        <ele>66.9</ele>
        <time>2020-06-15T13:48:40Z</time>
      </trkpt>
      <trkpt lat="49.50857" lon="-1.35489">
        <ele>66.9</ele>
        <time>2020-06-15T13:48:41Z</time>
      </trkpt>
      <trkpt lat="49.50858" lon="-1.35481">
        <ele>67</ele>
        <time>2020-06-15T13:48:42Z</time>
      </trkpt>
      <trkpt lat="49.5086" lon="-1.35473">
        <ele>67</ele>
        <time>2020-06-15T13:48:43Z</time>
      </trkpt>
      <trkpt lat="49.50861" lon="-1.35465">
        <ele>67</ele>
        <time>2020-06-15T13:48:44Z</time>
      </trkpt>
      <trkpt lat="49.50862" lon="-1.35458">
        <ele>67</ele>
        <time>2020-06-15T13:48:45Z</time>
      </trkpt>
      <trkpt lat="49.50864" lon="-1.35451">
        <ele>67</ele>
        <time>2020-06-15T13:48:46Z</time>
      </trkpt>
      <trkpt lat="49.50866" lon="-1.35443">
        <ele>67</ele>
        <time>2020-06-15T13:48:47Z</time>
      </trkpt>
      <trkpt lat="49.50867" lon="-1.35436">
        <ele>67</ele>
        <time>2020-06-15T13:48:48Z</time>
      </trkpt>
      <trkpt lat="49.50869" lon="-1.35428">
        <ele>67</ele>
        <time>2020-06-15T13:48:49Z</time>
      </trkpt>
      <trkpt lat="49.50871" lon="-1.3542">
        <ele>67</ele>
        <time>2020-06-15T13:48:50Z</time>
      </trkpt>
      <trkpt lat="49.50872" lon="-1.35412">
        <ele>67</ele>
        <time>2020-06-15T13:48:51Z</time>
      </trkpt>
      <trkpt lat="49.50873" lon="-1.35404">
        <ele>67</ele>
        <time>2020-06-15T13:48:52Z</time>
      </trkpt>
      <trkpt lat="49.50874" lon="-1.35396">
        <ele>66.9</ele>
        <time>2020-06-15T13:48:53Z</time>
      </trkpt>
      <trkpt lat="49.50875" lon="-1.35388">
        <ele>66.8</ele>
        <time>2020-06-15T13:48:54Z</time>
      </trkpt>
      <trkpt lat="49.50877" lon="-1.3538">
        <ele>66.7</ele>
        <time>2020-06-15T13:48:55Z</time>
      </trkpt>
      <trkpt lat="49.50878" lon="-1.35372">
        <ele>66.6</ele>
        <time>2020-06-15T13:48:56Z</time>
      </trkpt>
      <trkpt lat="49.50878" lon="-1.35363">
        <ele>66.5</ele>
        <time>2020-06-15T13:48:57Z</time>
      </trkpt>
      <trkpt lat="49.50879" lon="-1.35354">
        <ele>66.3</ele>
        <time>2020-06-15T13:48:58Z</time>
      </trkpt>
      <trkpt lat="49.5088" lon="-1.35346">
        <ele>66.2</ele>
        <time>2020-06-15T13:48:59Z</time>
      </trkpt>
      <trkpt lat="49.50881" lon="-1.35337">
        <ele>66</ele>
        <time>2020-06-15T13:49:00Z</time>
      </trkpt>
      <trkpt lat="49.50881" lon="-1.35329">
        <ele>65.9</ele>
        <time>2020-06-15T13:49:01Z</time>
      </trkpt>
      <trkpt lat="49.50883" lon="-1.35321">
        <ele>65.7</ele>
        <time>2020-06-15T13:49:02Z</time>
      </trkpt>
      <trkpt lat="49.50884" lon="-1.35312">
        <ele>65.4</ele>
        <time>2020-06-15T13:49:03Z</time>
      </trkpt>
      <trkpt lat="49.50886" lon="-1.35303">
        <ele>65.1</ele>
        <time>2020-06-15T13:49:04Z</time>
      </trkpt>
      <trkpt lat="49.50888" lon="-1.35295">
        <ele>64.8</ele>
        <time>2020-06-15T13:49:05Z</time>
      </trkpt>
      <trkpt lat="49.5089" lon="-1.35286">
        <ele>64.6</ele>
        <time>2020-06-15T13:49:06Z</time>
      </trkpt>
      <trkpt lat="49.50892" lon="-1.35278">
        <ele>64.3</ele>
        <time>2020-06-15T13:49:07Z</time>
      </trkpt>
      <trkpt lat="49.50894" lon="-1.35269">
        <ele>64</ele>
        <time>2020-06-15T13:49:08Z</time>
      </trkpt>
      <trkpt lat="49.50897" lon="-1.35261">
        <ele>63.8</ele>
        <time>2020-06-15T13:49:09Z</time>
      </trkpt>
      <trkpt lat="49.509" lon="-1.35251">
        <ele>63.5</ele>
        <time>2020-06-15T13:49:10Z</time>
      </trkpt>
      <trkpt lat="49.50901" lon="-1.3524">
        <ele>63.3</ele>
        <time>2020-06-15T13:49:11Z</time>
      </trkpt>
      <trkpt lat="49.50903" lon="-1.3523">
        <ele>63.1</ele>
        <time>2020-06-15T13:49:12Z</time>
      </trkpt>
      <trkpt lat="49.50906" lon="-1.3522">
        <ele>62.9</ele>
        <time>2020-06-15T13:49:13Z</time>
      </trkpt>
      <trkpt lat="49.50907" lon="-1.35208">
        <ele>62.8</ele>
        <time>2020-06-15T13:49:14Z</time>
      </trkpt>
      <trkpt lat="49.5091" lon="-1.35198">
        <ele>62.6</ele>
        <time>2020-06-15T13:49:15Z</time>
      </trkpt>
      <trkpt lat="49.50912" lon="-1.35189">
        <ele>62.4</ele>
        <time>2020-06-15T13:49:16Z</time>
      </trkpt>
      <trkpt lat="49.50916" lon="-1.3518">
        <ele>62.3</ele>
        <time>2020-06-15T13:49:17Z</time>
      </trkpt>
      <trkpt lat="49.50919" lon="-1.35171">
        <ele>62.2</ele>
        <time>2020-06-15T13:49:18Z</time>
      </trkpt>
      <trkpt lat="49.50922" lon="-1.35161">
        <ele>62.1</ele>
        <time>2020-06-15T13:49:19Z</time>
      </trkpt>
      <trkpt lat="49.50925" lon="-1.35153">
        <ele>62</ele>
        <time>2020-06-15T13:49:20Z</time>
      </trkpt>
      <trkpt lat="49.50929" lon="-1.35145">
        <ele>61.9</ele>
        <time>2020-06-15T13:49:21Z</time>
      </trkpt>
      <trkpt lat="49.50932" lon="-1.35136">
        <ele>61.9</ele>
        <time>2020-06-15T13:49:22Z</time>
      </trkpt>
      <trkpt lat="49.50935" lon="-1.35129">
        <ele>61.9</ele>
        <time>2020-06-15T13:49:23Z</time>
      </trkpt>
      <trkpt lat="49.50939" lon="-1.35119">
        <ele>61.8</ele>
        <time>2020-06-15T13:49:24Z</time>
      </trkpt>
      <trkpt lat="49.50943" lon="-1.35111">
        <ele>61.8</ele>
        <time>2020-06-15T13:49:25Z</time>
      </trkpt>
      <trkpt lat="49.50947" lon="-1.35104">
        <ele>61.8</ele>
        <time>2020-06-15T13:49:26Z</time>
      </trkpt>
      <trkpt lat="49.5095" lon="-1.35096">
        <ele>61.9</ele>
        <time>2020-06-15T13:49:27Z</time>
      </trkpt>
      <trkpt lat="49.50954" lon="-1.35088">
        <ele>61.9</ele>
        <time>2020-06-15T13:49:28Z</time>
      </trkpt>
      <trkpt lat="49.50958" lon="-1.35082">
        <ele>62</ele>
        <time>2020-06-15T13:49:29Z</time>
      </trkpt>
      <trkpt lat="49.50961" lon="-1.35076">
        <ele>62</ele>
        <time>2020-06-15T13:49:30Z</time>
      </trkpt>
      <trkpt lat="49.50964" lon="-1.35072">
        <ele>62.1</ele>
        <time>2020-06-15T13:49:31Z</time>
      </trkpt>
      <trkpt lat="49.50968" lon="-1.35065">
        <ele>62.1</ele>
        <time>2020-06-15T13:49:32Z</time>
      </trkpt>
      <trkpt lat="49.50971" lon="-1.3506">
        <ele>62.2</ele>
        <time>2020-06-15T13:49:33Z</time>
      </trkpt>
      <trkpt lat="49.50974" lon="-1.35053">
        <ele>62.2</ele>
        <time>2020-06-15T13:49:34Z</time>
      </trkpt>
      <trkpt lat="49.50979" lon="-1.35047">
        <ele>62.3</ele>
        <time>2020-06-15T13:49:35Z</time>
      </trkpt>
      <trkpt lat="49.50983" lon="-1.3504">
        <ele>62.4</ele>
        <time>2020-06-15T13:49:36Z</time>
      </trkpt>
      <trkpt lat="49.50987" lon="-1.35033">
        <ele>62.5</ele>
        <time>2020-06-15T13:49:37Z</time>
      </trkpt>
      <trkpt lat="49.5099" lon="-1.35025">
        <ele>62.6</ele>
        <time>2020-06-15T13:49:38Z</time>
      </trkpt>
      <trkpt lat="49.50993" lon="-1.35018">
        <ele>62.7</ele>
        <time>2020-06-15T13:49:39Z</time>
      </trkpt>
      <trkpt lat="49.50994" lon="-1.35012">
        <ele>62.7</ele>
        <time>2020-06-15T13:49:40Z</time>
      </trkpt>
      <trkpt lat="49.50994" lon="-1.35005">
        <ele>62.7</ele>
        <time>2020-06-15T13:49:41Z</time>
      </trkpt>
      <trkpt lat="49.50991" lon="-1.34997">
        <ele>62.8</ele>
        <time>2020-06-15T13:49:42Z</time>
      </trkpt>
      <trkpt lat="49.50988" lon="-1.34989">
        <ele>62.9</ele>
        <time>2020-06-15T13:49:43Z</time>
      </trkpt>
      <trkpt lat="49.50984" lon="-1.34981">
        <ele>62.9</ele>
        <time>2020-06-15T13:49:44Z</time>
      </trkpt>
      <trkpt lat="49.50981" lon="-1.34973">
        <ele>63</ele>
        <time>2020-06-15T13:49:45Z</time>
      </trkpt>
      <trkpt lat="49.50979" lon="-1.34965">
        <ele>63.1</ele>
        <time>2020-06-15T13:49:46Z</time>
      </trkpt>
      <trkpt lat="49.50977" lon="-1.34957">
        <ele>63.1</ele>
        <time>2020-06-15T13:49:47Z</time>
      </trkpt>
      <trkpt lat="49.50977" lon="-1.34947">
        <ele>63.3</ele>
        <time>2020-06-15T13:49:48Z</time>
      </trkpt>
      <trkpt lat="49.50978" lon="-1.34939">
        <ele>63.4</ele>
        <time>2020-06-15T13:49:49Z</time>
      </trkpt>
      <trkpt lat="49.5098" lon="-1.34933">
        <ele>63.5</ele>
        <time>2020-06-15T13:49:50Z</time>
      </trkpt>
      <trkpt lat="49.50982" lon="-1.34924">
        <ele>63.6</ele>
        <time>2020-06-15T13:49:51Z</time>
      </trkpt>
      <trkpt lat="49.50983" lon="-1.34917">
        <ele>63.7</ele>
        <time>2020-06-15T13:49:52Z</time>
      </trkpt>
      <trkpt lat="49.50984" lon="-1.3491">
        <ele>63.9</ele>
        <time>2020-06-15T13:49:53Z</time>
      </trkpt>
      <trkpt lat="49.50983" lon="-1.34903">
        <ele>64</ele>
        <time>2020-06-15T13:49:54Z</time>
      </trkpt>
      <trkpt lat="49.50982" lon="-1.34897">
        <ele>64.1</ele>
        <time>2020-06-15T13:49:55Z</time>
      </trkpt>
      <trkpt lat="49.50981" lon="-1.34894">
        <ele>64.2</ele>
        <time>2020-06-15T13:49:56Z</time>
      </trkpt>
      <trkpt lat="49.50978" lon="-1.34887">
        <ele>64.3</ele>
        <time>2020-06-15T13:49:57Z</time>
      </trkpt>
      <trkpt lat="49.50975" lon="-1.34882">
        <ele>64.5</ele>
        <time>2020-06-15T13:49:58Z</time>
      </trkpt>
      <trkpt lat="49.50972" lon="-1.34876">
        <ele>64.6</ele>
        <time>2020-06-15T13:49:59Z</time>
      </trkpt>
      <trkpt lat="49.50969" lon="-1.3487">
        <ele>64.8</ele>
        <time>2020-06-15T13:50:00Z</time>
      </trkpt>
      <trkpt lat="49.50967" lon="-1.34864">
        <ele>65</ele>
        <time>2020-06-15T13:50:01Z</time>
      </trkpt>
      <trkpt lat="49.50964" lon="-1.34859">
        <ele>65.2</ele>
        <time>2020-06-15T13:50:02Z</time>
      </trkpt>
      <trkpt lat="49.50962" lon="-1.34855">
        <ele>65.4</ele>
        <time>2020-06-15T13:50:03Z</time>
      </trkpt>
      <trkpt lat="49.5096" lon="-1.3485">
        <ele>65.5</ele>
        <time>2020-06-15T13:50:04Z</time>
      </trkpt>
      <trkpt lat="49.50958" lon="-1.34845">
        <ele>65.7</ele>
        <time>2020-06-15T13:50:05Z</time>
      </trkpt>
      <trkpt lat="49.50956" lon="-1.34839">
        <ele>66.6</ele>
        <time>2020-06-15T13:50:06Z</time>
      </trkpt>
      <trkpt lat="49.50954" lon="-1.34833">
        <ele>67.1</ele>
        <time>2020-06-15T13:50:07Z</time>
      </trkpt>
      <trkpt lat="49.50952" lon="-1.34828">
        <ele>67.4</ele>
        <time>2020-06-15T13:50:08Z</time>
      </trkpt>
      <trkpt lat="49.50949" lon="-1.34823">
        <ele>67.6</ele>
        <time>2020-06-15T13:50:09Z</time>
      </trkpt>
      <trkpt lat="49.50947" lon="-1.34817">
        <ele>67.7</ele>
        <time>2020-06-15T13:50:10Z</time>
      </trkpt>
      <trkpt lat="49.50946" lon="-1.34812">
        <ele>67.7</ele>
        <time>2020-06-15T13:50:11Z</time>
      </trkpt>
      <trkpt lat="49.50944" lon="-1.34805">
        <ele>67.8</ele>
        <time>2020-06-15T13:50:12Z</time>
      </trkpt>
      <trkpt lat="49.50943" lon="-1.348">
        <ele>67.8</ele>
        <time>2020-06-15T13:50:13Z</time>
      </trkpt>
      <trkpt lat="49.50941" lon="-1.34793">
        <ele>67.8</ele>
        <time>2020-06-15T13:50:14Z</time>
      </trkpt>
      <trkpt lat="49.50939" lon="-1.34785">
        <ele>67.9</ele>
        <time>2020-06-15T13:50:15Z</time>
      </trkpt>
      <trkpt lat="49.50939" lon="-1.34778">
        <ele>68</ele>
        <time>2020-06-15T13:50:16Z</time>
      </trkpt>
      <trkpt lat="49.50937" lon="-1.3477">
        <ele>68.1</ele>
        <time>2020-06-15T13:50:17Z</time>
      </trkpt>
      <trkpt lat="49.50936" lon="-1.34763">
        <ele>68.1</ele>
        <time>2020-06-15T13:50:18Z</time>
      </trkpt>
      <trkpt lat="49.50935" lon="-1.34755">
        <ele>68.2</ele>
        <time>2020-06-15T13:50:19Z</time>
      </trkpt>
      <trkpt lat="49.50935" lon="-1.34748">
        <ele>68.2</ele>
        <time>2020-06-15T13:50:20Z</time>
      </trkpt>
      <trkpt lat="49.50934" lon="-1.3474">
        <ele>68.3</ele>
        <time>2020-06-15T13:50:21Z</time>
      </trkpt>
      <trkpt lat="49.50933" lon="-1.3473">
        <ele>68.3</ele>
        <time>2020-06-15T13:50:22Z</time>
      </trkpt>
      <trkpt lat="49.50933" lon="-1.34723">
        <ele>68.4</ele>
        <time>2020-06-15T13:50:23Z</time>
      </trkpt>
      <trkpt lat="49.50932" lon="-1.34715">
        <ele>68.4</ele>
        <time>2020-06-15T13:50:24Z</time>
      </trkpt>
      <trkpt lat="49.50931" lon="-1.34709">
        <ele>68.4</ele>
        <time>2020-06-15T13:50:25Z</time>
      </trkpt>
      <trkpt lat="49.50929" lon="-1.34703">
        <ele>68.5</ele>
        <time>2020-06-15T13:50:26Z</time>
      </trkpt>
      <trkpt lat="49.50927" lon="-1.34695">
        <ele>68.5</ele>
        <time>2020-06-15T13:50:27Z</time>
      </trkpt>
      <trkpt lat="49.50924" lon="-1.34688">
        <ele>68.6</ele>
        <time>2020-06-15T13:50:28Z</time>
      </trkpt>
      <trkpt lat="49.50921" lon="-1.3468">
        <ele>68.6</ele>
        <time>2020-06-15T13:50:29Z</time>
      </trkpt>
      <trkpt lat="49.50919" lon="-1.34672">
        <ele>68.6</ele>
        <time>2020-06-15T13:50:30Z</time>
      </trkpt>
      <trkpt lat="49.50917" lon="-1.34666">
        <ele>68.7</ele>
        <time>2020-06-15T13:50:31Z</time>
      </trkpt>
      <trkpt lat="49.50916" lon="-1.34659">
        <ele>68.7</ele>
        <time>2020-06-15T13:50:32Z</time>
      </trkpt>
      <trkpt lat="49.50913" lon="-1.34652">
        <ele>68.8</ele>
        <time>2020-06-15T13:50:33Z</time>
      </trkpt>
      <trkpt lat="49.50911" lon="-1.34644">
        <ele>68.8</ele>
        <time>2020-06-15T13:50:34Z</time>
      </trkpt>
      <trkpt lat="49.50908" lon="-1.34637">
        <ele>68.8</ele>
        <time>2020-06-15T13:50:35Z</time>
      </trkpt>
      <trkpt lat="49.50906" lon="-1.34631">
        <ele>68.8</ele>
        <time>2020-06-15T13:50:36Z</time>
      </trkpt>
      <trkpt lat="49.50905" lon="-1.34624">
        <ele>68.7</ele>
        <time>2020-06-15T13:50:37Z</time>
      </trkpt>
      <trkpt lat="49.50902" lon="-1.34616">
        <ele>68.6</ele>
        <time>2020-06-15T13:50:38Z</time>
      </trkpt>
      <trkpt lat="49.509" lon="-1.34608">
        <ele>68.5</ele>
        <time>2020-06-15T13:50:39Z</time>
      </trkpt>
      <trkpt lat="49.50897" lon="-1.346">
        <ele>68.5</ele>
        <time>2020-06-15T13:50:40Z</time>
      </trkpt>
      <trkpt lat="49.50894" lon="-1.34593">
        <ele>68.5</ele>
        <time>2020-06-15T13:50:41Z</time>
      </trkpt>
      <trkpt lat="49.50891" lon="-1.34585">
        <ele>68.5</ele>
        <time>2020-06-15T13:50:42Z</time>
      </trkpt>
      <trkpt lat="49.50888" lon="-1.34579">
        <ele>68.5</ele>
        <time>2020-06-15T13:50:43Z</time>
      </trkpt>
      <trkpt lat="49.50884" lon="-1.34571">
        <ele>68.5</ele>
        <time>2020-06-15T13:50:44Z</time>
      </trkpt>
      <trkpt lat="49.5088" lon="-1.34563">
        <ele>68.4</ele>
        <time>2020-06-15T13:50:45Z</time>
      </trkpt>
      <trkpt lat="49.50876" lon="-1.34554">
        <ele>68.3</ele>
        <time>2020-06-15T13:50:46Z</time>
      </trkpt>
      <trkpt lat="49.50872" lon="-1.34546">
        <ele>68.2</ele>
        <time>2020-06-15T13:50:47Z</time>
      </trkpt>
      <trkpt lat="49.50868" lon="-1.34538">
        <ele>68.2</ele>
        <time>2020-06-15T13:50:48Z</time>
      </trkpt>
      <trkpt lat="49.50865" lon="-1.3453">
        <ele>68.2</ele>
        <time>2020-06-15T13:50:49Z</time>
      </trkpt>
      <trkpt lat="49.50861" lon="-1.34523">
        <ele>68.1</ele>
        <time>2020-06-15T13:50:50Z</time>
      </trkpt>
      <trkpt lat="49.50857" lon="-1.34515">
        <ele>68</ele>
        <time>2020-06-15T13:50:51Z</time>
      </trkpt>
      <trkpt lat="49.50852" lon="-1.34508">
        <ele>67.8</ele>
        <time>2020-06-15T13:50:52Z</time>
      </trkpt>
      <trkpt lat="49.50849" lon="-1.345">
        <ele>67.7</ele>
        <time>2020-06-15T13:50:53Z</time>
      </trkpt>
      <trkpt lat="49.50844" lon="-1.34493">
        <ele>67.7</ele>
        <time>2020-06-15T13:50:54Z</time>
      </trkpt>
      <trkpt lat="49.5084" lon="-1.34485">
        <ele>67.7</ele>
        <time>2020-06-15T13:50:55Z</time>
      </trkpt>
      <trkpt lat="49.50837" lon="-1.34479">
        <ele>67.7</ele>
        <time>2020-06-15T13:50:56Z</time>
      </trkpt>
      <trkpt lat="49.50834" lon="-1.34473">
        <ele>67.6</ele>
        <time>2020-06-15T13:50:57Z</time>
      </trkpt>
      <trkpt lat="49.50831" lon="-1.34466">
        <ele>67.6</ele>
        <time>2020-06-15T13:50:58Z</time>
      </trkpt>
      <trkpt lat="49.50828" lon="-1.34459">
        <ele>67.5</ele>
        <time>2020-06-15T13:50:59Z</time>
      </trkpt>
      <trkpt lat="49.50825" lon="-1.34453">
        <ele>67.4</ele>
        <time>2020-06-15T13:51:00Z</time>
      </trkpt>
      <trkpt lat="49.50823" lon="-1.34447">
        <ele>67.2</ele>
        <time>2020-06-15T13:51:01Z</time>
      </trkpt>
      <trkpt lat="49.5082" lon="-1.34441">
        <ele>67.2</ele>
        <time>2020-06-15T13:51:02Z</time>
      </trkpt>
      <trkpt lat="49.50817" lon="-1.34434">
        <ele>67.1</ele>
        <time>2020-06-15T13:51:03Z</time>
      </trkpt>
      <trkpt lat="49.50814" lon="-1.34428">
        <ele>67.1</ele>
        <time>2020-06-15T13:51:04Z</time>
      </trkpt>
      <trkpt lat="49.50812" lon="-1.34421">
        <ele>67.1</ele>
        <time>2020-06-15T13:51:05Z</time>
      </trkpt>
      <trkpt lat="49.50809" lon="-1.34414">
        <ele>67.1</ele>
        <time>2020-06-15T13:51:06Z</time>
      </trkpt>
      <trkpt lat="49.50807" lon="-1.34408">
        <ele>67.2</ele>
        <time>2020-06-15T13:51:07Z</time>
      </trkpt>
      <trkpt lat="49.50804" lon="-1.34402">
        <ele>67.1</ele>
        <time>2020-06-15T13:51:08Z</time>
      </trkpt>
      <trkpt lat="49.50802" lon="-1.34398">
        <ele>67.1</ele>
        <time>2020-06-15T13:51:09Z</time>
      </trkpt>
      <trkpt lat="49.50801" lon="-1.34394">
        <ele>67</ele>
        <time>2020-06-15T13:51:10Z</time>
      </trkpt>
      <trkpt lat="49.50798" lon="-1.3439">
        <ele>66.9</ele>
        <time>2020-06-15T13:51:11Z</time>
      </trkpt>
      <trkpt lat="49.50798" lon="-1.34388">
        <ele>66.8</ele>
        <time>2020-06-15T13:51:12Z</time>
      </trkpt>
      <trkpt lat="49.50795" lon="-1.34383">
        <ele>66.7</ele>
        <time>2020-06-15T13:51:13Z</time>
      </trkpt>
      <trkpt lat="49.50794" lon="-1.34382">
        <ele>66.8</ele>
        <time>2020-06-15T13:51:14Z</time>
      </trkpt>
      <trkpt lat="49.50794" lon="-1.34376">
        <ele>66.8</ele>
        <time>2020-06-15T13:51:15Z</time>
      </trkpt>
      <trkpt lat="49.50794" lon="-1.3437">
        <ele>66.8</ele>
        <time>2020-06-15T13:51:16Z</time>
      </trkpt>
      <trkpt lat="49.50795" lon="-1.34365">
        <ele>66.9</ele>
        <time>2020-06-15T13:51:17Z</time>
      </trkpt>
      <trkpt lat="49.50795" lon="-1.3436">
        <ele>66.9</ele>
        <time>2020-06-15T13:51:18Z</time>
      </trkpt>
      <trkpt lat="49.50796" lon="-1.34355">
        <ele>66.9</ele>
        <time>2020-06-15T13:51:19Z</time>
      </trkpt>
      <trkpt lat="49.50796" lon="-1.3435">
        <ele>67</ele>
        <time>2020-06-15T13:51:20Z</time>
      </trkpt>
      <trkpt lat="49.50796" lon="-1.34344">
        <ele>67</ele>
        <time>2020-06-15T13:51:21Z</time>
      </trkpt>
      <trkpt lat="49.50797" lon="-1.34338">
        <ele>67.1</ele>
        <time>2020-06-15T13:51:22Z</time>
      </trkpt>
      <trkpt lat="49.50797" lon="-1.34332">
        <ele>67.2</ele>
        <time>2020-06-15T13:51:23Z</time>
      </trkpt>
      <trkpt lat="49.50797" lon="-1.34326">
        <ele>67.3</ele>
        <time>2020-06-15T13:51:24Z</time>
      </trkpt>
      <trkpt lat="49.50796" lon="-1.3432">
        <ele>67.3</ele>
        <time>2020-06-15T13:51:25Z</time>
      </trkpt>
      <trkpt lat="49.50796" lon="-1.34313">
        <ele>67.4</ele>
        <time>2020-06-15T13:51:26Z</time>
      </trkpt>
      <trkpt lat="49.50795" lon="-1.34305">
        <ele>67.5</ele>
        <time>2020-06-15T13:51:27Z</time>
      </trkpt>
      <trkpt lat="49.50795" lon="-1.34298">
        <ele>67.5</ele>
        <time>2020-06-15T13:51:28Z</time>
      </trkpt>
      <trkpt lat="49.50794" lon="-1.34292">
        <ele>67.5</ele>
        <time>2020-06-15T13:51:29Z</time>
      </trkpt>
      <trkpt lat="49.50794" lon="-1.34285">
        <ele>67.6</ele>
        <time>2020-06-15T13:51:30Z</time>
      </trkpt>
      <trkpt lat="49.50794" lon="-1.34278">
        <ele>67.6</ele>
        <time>2020-06-15T13:51:31Z</time>
      </trkpt>
      <trkpt lat="49.50795" lon="-1.34272">
        <ele>67.6</ele>
        <time>2020-06-15T13:51:32Z</time>
      </trkpt>
      <trkpt lat="49.50794" lon="-1.34264">
        <ele>67.6</ele>
        <time>2020-06-15T13:51:33Z</time>
      </trkpt>
      <trkpt lat="49.50794" lon="-1.34256">
        <ele>67.6</ele>
        <time>2020-06-15T13:51:34Z</time>
      </trkpt>
      <trkpt lat="49.50794" lon="-1.34247">
        <ele>67.6</ele>
        <time>2020-06-15T13:51:35Z</time>
      </trkpt>
      <trkpt lat="49.50794" lon="-1.34238">
        <ele>67.6</ele>
        <time>2020-06-15T13:51:36Z</time>
      </trkpt>
      <trkpt lat="49.50794" lon="-1.3423">
        <ele>67.6</ele>
        <time>2020-06-15T13:51:37Z</time>
      </trkpt>
      <trkpt lat="49.50794" lon="-1.34222">
        <ele>67.6</ele>
        <time>2020-06-15T13:51:38Z</time>
      </trkpt>
      <trkpt lat="49.50794" lon="-1.34214">
        <ele>67.6</ele>
        <time>2020-06-15T13:51:39Z</time>
      </trkpt>
      <trkpt lat="49.50795" lon="-1.34205">
        <ele>67.6</ele>
        <time>2020-06-15T13:51:40Z</time>
      </trkpt>
      <trkpt lat="49.50795" lon="-1.34197">
        <ele>67.5</ele>
        <time>2020-06-15T13:51:41Z</time>
      </trkpt>
      <trkpt lat="49.50796" lon="-1.34188">
        <ele>67.5</ele>
        <time>2020-06-15T13:51:42Z</time>
      </trkpt>
      <trkpt lat="49.50796" lon="-1.34179">
        <ele>67.4</ele>
        <time>2020-06-15T13:51:43Z</time>
      </trkpt>
      <trkpt lat="49.50798" lon="-1.3417">
        <ele>67.4</ele>
        <time>2020-06-15T13:51:44Z</time>
      </trkpt>
      <trkpt lat="49.50798" lon="-1.34161">
        <ele>67.3</ele>
        <time>2020-06-15T13:51:45Z</time>
      </trkpt>
      <trkpt lat="49.50799" lon="-1.34152">
        <ele>67.2</ele>
        <time>2020-06-15T13:51:46Z</time>
      </trkpt>
      <trkpt lat="49.50799" lon="-1.34144">
        <ele>67.2</ele>
        <time>2020-06-15T13:51:47Z</time>
      </trkpt>
      <trkpt lat="49.50799" lon="-1.34135">
        <ele>67.1</ele>
        <time>2020-06-15T13:51:48Z</time>
      </trkpt>
      <trkpt lat="49.508" lon="-1.34125">
        <ele>67.1</ele>
        <time>2020-06-15T13:51:49Z</time>
      </trkpt>
      <trkpt lat="49.508" lon="-1.34116">
        <ele>67</ele>
        <time>2020-06-15T13:51:50Z</time>
      </trkpt>
      <trkpt lat="49.508" lon="-1.34107">
        <ele>66.9</ele>
        <time>2020-06-15T13:51:51Z</time>
      </trkpt>
      <trkpt lat="49.50801" lon="-1.34099">
        <ele>66.9</ele>
        <time>2020-06-15T13:51:52Z</time>
      </trkpt>
      <trkpt lat="49.50802" lon="-1.3409">
        <ele>66.8</ele>
        <time>2020-06-15T13:51:53Z</time>
      </trkpt>
      <trkpt lat="49.50803" lon="-1.34081">
        <ele>66.7</ele>
        <time>2020-06-15T13:51:54Z</time>
      </trkpt>
      <trkpt lat="49.50803" lon="-1.34071">
        <ele>66.6</ele>
        <time>2020-06-15T13:51:55Z</time>
      </trkpt>
      <trkpt lat="49.50805" lon="-1.34061">
        <ele>66.5</ele>
        <time>2020-06-15T13:51:56Z</time>
      </trkpt>
      <trkpt lat="49.50804" lon="-1.34051">
        <ele>66.4</ele>
        <time>2020-06-15T13:51:57Z</time>
      </trkpt>
      <trkpt lat="49.50804" lon="-1.34042">
        <ele>66.3</ele>
        <time>2020-06-15T13:51:58Z</time>
      </trkpt>
      <trkpt lat="49.50805" lon="-1.34035">
        <ele>66.3</ele>
        <time>2020-06-15T13:51:59Z</time>
      </trkpt>
      <trkpt lat="49.50806" lon="-1.34027">
        <ele>66.2</ele>
        <time>2020-06-15T13:52:00Z</time>
      </trkpt>
      <trkpt lat="49.50806" lon="-1.34018">
        <ele>66.1</ele>
        <time>2020-06-15T13:52:01Z</time>
      </trkpt>
      <trkpt lat="49.50807" lon="-1.34008">
        <ele>66.1</ele>
        <time>2020-06-15T13:52:02Z</time>
      </trkpt>
      <trkpt lat="49.50807" lon="-1.33998">
        <ele>66</ele>
        <time>2020-06-15T13:52:03Z</time>
      </trkpt>
      <trkpt lat="49.50807" lon="-1.3399">
        <ele>65.9</ele>
        <time>2020-06-15T13:52:04Z</time>
      </trkpt>
      <trkpt lat="49.50808" lon="-1.3398">
        <ele>65.7</ele>
        <time>2020-06-15T13:52:05Z</time>
      </trkpt>
      <trkpt lat="49.50808" lon="-1.33972">
        <ele>65.6</ele>
        <time>2020-06-15T13:52:06Z</time>
      </trkpt>
      <trkpt lat="49.50808" lon="-1.33962">
        <ele>65.5</ele>
        <time>2020-06-15T13:52:07Z</time>
      </trkpt>
      <trkpt lat="49.50808" lon="-1.33952">
        <ele>65.3</ele>
        <time>2020-06-15T13:52:08Z</time>
      </trkpt>
      <trkpt lat="49.50808" lon="-1.33942">
        <ele>65.2</ele>
        <time>2020-06-15T13:52:09Z</time>
      </trkpt>
      <trkpt lat="49.50809" lon="-1.33933">
        <ele>65.1</ele>
        <time>2020-06-15T13:52:10Z</time>
      </trkpt>
      <trkpt lat="49.50809" lon="-1.33923">
        <ele>64.9</ele>
        <time>2020-06-15T13:52:11Z</time>
      </trkpt>
      <trkpt lat="49.50809" lon="-1.33913">
        <ele>64.8</ele>
        <time>2020-06-15T13:52:12Z</time>
      </trkpt>
      <trkpt lat="49.50809" lon="-1.33904">
        <ele>64.6</ele>
        <time>2020-06-15T13:52:13Z</time>
      </trkpt>
      <trkpt lat="49.50809" lon="-1.33897">
        <ele>64.5</ele>
        <time>2020-06-15T13:52:14Z</time>
      </trkpt>
      <trkpt lat="49.50809" lon="-1.33888">
        <ele>64.4</ele>
        <time>2020-06-15T13:52:15Z</time>
      </trkpt>
      <trkpt lat="49.50809" lon="-1.33879">
        <ele>64.3</ele>
        <time>2020-06-15T13:52:16Z</time>
      </trkpt>
      <trkpt lat="49.5081" lon="-1.33868">
        <ele>64.2</ele>
        <time>2020-06-15T13:52:17Z</time>
      </trkpt>
      <trkpt lat="49.50809" lon="-1.33859">
        <ele>64.1</ele>
        <time>2020-06-15T13:52:18Z</time>
      </trkpt>
      <trkpt lat="49.5081" lon="-1.33849">
        <ele>64</ele>
        <time>2020-06-15T13:52:19Z</time>
      </trkpt>
      <trkpt lat="49.5081" lon="-1.33842">
        <ele>64</ele>
        <time>2020-06-15T13:52:20Z</time>
      </trkpt>
      <trkpt lat="49.50809" lon="-1.33832">
        <ele>63.9</ele>
        <time>2020-06-15T13:52:21Z</time>
      </trkpt>
      <trkpt lat="49.5081" lon="-1.33823">
        <ele>63.8</ele>
        <time>2020-06-15T13:52:22Z</time>
      </trkpt>
      <trkpt lat="49.5081" lon="-1.3381">
        <ele>63.6</ele>
        <time>2020-06-15T13:52:23Z</time>
      </trkpt>
      <trkpt lat="49.5081" lon="-1.33802">
        <ele>63.5</ele>
        <time>2020-06-15T13:52:24Z</time>
      </trkpt>
      <trkpt lat="49.5081" lon="-1.33792">
        <ele>63.4</ele>
        <time>2020-06-15T13:52:25Z</time>
      </trkpt>
      <trkpt lat="49.50809" lon="-1.33779">
        <ele>63.2</ele>
        <time>2020-06-15T13:52:26Z</time>
      </trkpt>
      <trkpt lat="49.50809" lon="-1.33768">
        <ele>63</ele>
        <time>2020-06-15T13:52:27Z</time>
      </trkpt>
      <trkpt lat="49.50809" lon="-1.33756">
        <ele>62.8</ele>
        <time>2020-06-15T13:52:28Z</time>
      </trkpt>
      <trkpt lat="49.50809" lon="-1.33744">
        <ele>62.6</ele>
        <time>2020-06-15T13:52:29Z</time>
      </trkpt>
      <trkpt lat="49.50809" lon="-1.33732">
        <ele>62.4</ele>
        <time>2020-06-15T13:52:30Z</time>
      </trkpt>
      <trkpt lat="49.50809" lon="-1.33721">
        <ele>62.2</ele>
        <time>2020-06-15T13:52:31Z</time>
      </trkpt>
      <trkpt lat="49.50809" lon="-1.33709">
        <ele>61.9</ele>
        <time>2020-06-15T13:52:32Z</time>
      </trkpt>
      <trkpt lat="49.5081" lon="-1.33698">
        <ele>61.7</ele>
        <time>2020-06-15T13:52:33Z</time>
      </trkpt>
      <trkpt lat="49.5081" lon="-1.33686">
        <ele>61.6</ele>
        <time>2020-06-15T13:52:34Z</time>
      </trkpt>
      <trkpt lat="49.5081" lon="-1.33675">
        <ele>61.4</ele>
        <time>2020-06-15T13:52:35Z</time>
      </trkpt>
      <trkpt lat="49.50811" lon="-1.33662">
        <ele>61.1</ele>
        <time>2020-06-15T13:52:36Z</time>
      </trkpt>
      <trkpt lat="49.50812" lon="-1.33652">
        <ele>60.9</ele>
        <time>2020-06-15T13:52:37Z</time>
      </trkpt>
      <trkpt lat="49.50813" lon="-1.33641">
        <ele>60.6</ele>
        <time>2020-06-15T13:52:38Z</time>
      </trkpt>
      <trkpt lat="49.50814" lon="-1.3363">
        <ele>60.4</ele>
        <time>2020-06-15T13:52:39Z</time>
      </trkpt>
      <trkpt lat="49.50816" lon="-1.3362">
        <ele>60.1</ele>
        <time>2020-06-15T13:52:40Z</time>
      </trkpt>
      <trkpt lat="49.50817" lon="-1.3361">
        <ele>59.9</ele>
        <time>2020-06-15T13:52:41Z</time>
      </trkpt>
      <trkpt lat="49.50819" lon="-1.33598">
        <ele>59.5</ele>
        <time>2020-06-15T13:52:42Z</time>
      </trkpt>
      <trkpt lat="49.5082" lon="-1.33587">
        <ele>59.2</ele>
        <time>2020-06-15T13:52:43Z</time>
      </trkpt>
      <trkpt lat="49.50822" lon="-1.33574">
        <ele>58.9</ele>
        <time>2020-06-15T13:52:44Z</time>
      </trkpt>
      <trkpt lat="49.50823" lon="-1.3356">
        <ele>58.7</ele>
        <time>2020-06-15T13:52:45Z</time>
      </trkpt>
      <trkpt lat="49.50825" lon="-1.33547">
        <ele>58.4</ele>
        <time>2020-06-15T13:52:46Z</time>
      </trkpt>
      <trkpt lat="49.50826" lon="-1.33534">
        <ele>58.1</ele>
        <time>2020-06-15T13:52:47Z</time>
      </trkpt>
      <trkpt lat="49.50828" lon="-1.33521">
        <ele>57.8</ele>
        <time>2020-06-15T13:52:48Z</time>
      </trkpt>
      <trkpt lat="49.50829" lon="-1.33507">
        <ele>57.6</ele>
        <time>2020-06-15T13:52:49Z</time>
      </trkpt>
      <trkpt lat="49.5083" lon="-1.33494">
        <ele>57.4</ele>
        <time>2020-06-15T13:52:50Z</time>
      </trkpt>
      <trkpt lat="49.5083" lon="-1.33481">
        <ele>57.3</ele>
        <time>2020-06-15T13:52:51Z</time>
      </trkpt>
      <trkpt lat="49.50832" lon="-1.33468">
        <ele>57.2</ele>
        <time>2020-06-15T13:52:52Z</time>
      </trkpt>
      <trkpt lat="49.50833" lon="-1.33455">
        <ele>57.1</ele>
        <time>2020-06-15T13:52:53Z</time>
      </trkpt>
      <trkpt lat="49.50834" lon="-1.33442">
        <ele>57.1</ele>
        <time>2020-06-15T13:52:54Z</time>
      </trkpt>
      <trkpt lat="49.50836" lon="-1.3343">
        <ele>57.1</ele>
        <time>2020-06-15T13:52:55Z</time>
      </trkpt>
      <trkpt lat="49.50837" lon="-1.33418">
        <ele>57.1</ele>
        <time>2020-06-15T13:52:56Z</time>
      </trkpt>
      <trkpt lat="49.50838" lon="-1.33407">
        <ele>57.2</ele>
        <time>2020-06-15T13:52:57Z</time>
      </trkpt>
      <trkpt lat="49.50839" lon="-1.33396">
        <ele>57.2</ele>
        <time>2020-06-15T13:52:58Z</time>
      </trkpt>
      <trkpt lat="49.50841" lon="-1.33385">
        <ele>57.3</ele>
        <time>2020-06-15T13:52:59Z</time>
      </trkpt>
      <trkpt lat="49.50842" lon="-1.33375">
        <ele>57.5</ele>
        <time>2020-06-15T13:53:00Z</time>
      </trkpt>
      <trkpt lat="49.50843" lon="-1.33364">
        <ele>57.6</ele>
        <time>2020-06-15T13:53:01Z</time>
      </trkpt>
      <trkpt lat="49.50844" lon="-1.33354">
        <ele>57.8</ele>
        <time>2020-06-15T13:53:02Z</time>
      </trkpt>
      <trkpt lat="49.50845" lon="-1.33344">
        <ele>58</ele>
        <time>2020-06-15T13:53:03Z</time>
      </trkpt>
      <trkpt lat="49.50847" lon="-1.33333">
        <ele>58.3</ele>
        <time>2020-06-15T13:53:04Z</time>
      </trkpt>
      <trkpt lat="49.50847" lon="-1.33324">
        <ele>58.5</ele>
        <time>2020-06-15T13:53:05Z</time>
      </trkpt>
      <trkpt lat="49.50848" lon="-1.33315">
        <ele>58.7</ele>
        <time>2020-06-15T13:53:06Z</time>
      </trkpt>
      <trkpt lat="49.50849" lon="-1.33306">
        <ele>58.9</ele>
        <time>2020-06-15T13:53:07Z</time>
      </trkpt>
      <trkpt lat="49.50851" lon="-1.33298">
        <ele>59.1</ele>
        <time>2020-06-15T13:53:08Z</time>
      </trkpt>
      <trkpt lat="49.50852" lon="-1.3329">
        <ele>59.3</ele>
        <time>2020-06-15T13:53:09Z</time>
      </trkpt>
      <trkpt lat="49.50852" lon="-1.33282">
        <ele>59.5</ele>
        <time>2020-06-15T13:53:10Z</time>
      </trkpt>
      <trkpt lat="49.50852" lon="-1.33274">
        <ele>59.8</ele>
        <time>2020-06-15T13:53:11Z</time>
      </trkpt>
      <trkpt lat="49.50852" lon="-1.33266">
        <ele>60.1</ele>
        <time>2020-06-15T13:53:12Z</time>
      </trkpt>
      <trkpt lat="49.50853" lon="-1.33259">
        <ele>60.3</ele>
        <time>2020-06-15T13:53:13Z</time>
      </trkpt>
      <trkpt lat="49.50854" lon="-1.33252">
        <ele>60.6</ele>
        <time>2020-06-15T13:53:14Z</time>
      </trkpt>
      <trkpt lat="49.50855" lon="-1.33244">
        <ele>60.8</ele>
        <time>2020-06-15T13:53:15Z</time>
      </trkpt>
      <trkpt lat="49.50856" lon="-1.33236">
        <ele>61.1</ele>
        <time>2020-06-15T13:53:16Z</time>
      </trkpt>
      <trkpt lat="49.50857" lon="-1.33228">
        <ele>61.3</ele>
        <time>2020-06-15T13:53:17Z</time>
      </trkpt>
      <trkpt lat="49.50857" lon="-1.3322">
        <ele>61.5</ele>
        <time>2020-06-15T13:53:18Z</time>
      </trkpt>
      <trkpt lat="49.50858" lon="-1.33214">
        <ele>61.6</ele>
        <time>2020-06-15T13:53:19Z</time>
      </trkpt>
      <trkpt lat="49.50859" lon="-1.33207">
        <ele>61.7</ele>
        <time>2020-06-15T13:53:20Z</time>
      </trkpt>
      <trkpt lat="49.50859" lon="-1.332">
        <ele>61.9</ele>
        <time>2020-06-15T13:53:21Z</time>
      </trkpt>
      <trkpt lat="49.50859" lon="-1.33194">
        <ele>62</ele>
        <time>2020-06-15T13:53:22Z</time>
      </trkpt>
      <trkpt lat="49.50859" lon="-1.33188">
        <ele>62</ele>
        <time>2020-06-15T13:53:23Z</time>
      </trkpt>
      <trkpt lat="49.50859" lon="-1.3318">
        <ele>62</ele>
        <time>2020-06-15T13:53:24Z</time>
      </trkpt>
      <trkpt lat="49.50858" lon="-1.33173">
        <ele>61.7</ele>
        <time>2020-06-15T13:53:25Z</time>
      </trkpt>
      <trkpt lat="49.50858" lon="-1.33168">
        <ele>61.2</ele>
        <time>2020-06-15T13:53:26Z</time>
      </trkpt>
      <trkpt lat="49.50858" lon="-1.33161">
        <ele>60.2</ele>
        <time>2020-06-15T13:53:27Z</time>
      </trkpt>
      <trkpt lat="49.50858" lon="-1.33154">
        <ele>59</ele>
        <time>2020-06-15T13:53:28Z</time>
      </trkpt>
      <trkpt lat="49.50858" lon="-1.33145">
        <ele>59.1</ele>
        <time>2020-06-15T13:53:29Z</time>
      </trkpt>
      <trkpt lat="49.50858" lon="-1.33138">
        <ele>59.2</ele>
        <time>2020-06-15T13:53:30Z</time>
      </trkpt>
      <trkpt lat="49.50858" lon="-1.3313">
        <ele>59.2</ele>
        <time>2020-06-15T13:53:31Z</time>
      </trkpt>
      <trkpt lat="49.50858" lon="-1.33122">
        <ele>59.3</ele>
        <time>2020-06-15T13:53:32Z</time>
      </trkpt>
      <trkpt lat="49.50858" lon="-1.33114">
        <ele>59.4</ele>
        <time>2020-06-15T13:53:33Z</time>
      </trkpt>
      <trkpt lat="49.50859" lon="-1.33107">
        <ele>59.4</ele>
        <time>2020-06-15T13:53:34Z</time>
      </trkpt>
      <trkpt lat="49.50859" lon="-1.331">
        <ele>59.5</ele>
        <time>2020-06-15T13:53:35Z</time>
      </trkpt>
      <trkpt lat="49.50859" lon="-1.33093">
        <ele>59.5</ele>
        <time>2020-06-15T13:53:36Z</time>
      </trkpt>
      <trkpt lat="49.50859" lon="-1.33086">
        <ele>59.6</ele>
        <time>2020-06-15T13:53:37Z</time>
      </trkpt>
      <trkpt lat="49.50859" lon="-1.33079">
        <ele>59.6</ele>
        <time>2020-06-15T13:53:38Z</time>
      </trkpt>
      <trkpt lat="49.50858" lon="-1.33074">
        <ele>59.7</ele>
        <time>2020-06-15T13:53:39Z</time>
      </trkpt>
      <trkpt lat="49.50858" lon="-1.33066">
        <ele>59.7</ele>
        <time>2020-06-15T13:53:40Z</time>
      </trkpt>
      <trkpt lat="49.50858" lon="-1.33059">
        <ele>59.8</ele>
        <time>2020-06-15T13:53:41Z</time>
      </trkpt>
      <trkpt lat="49.50858" lon="-1.33053">
        <ele>59.8</ele>
        <time>2020-06-15T13:53:42Z</time>
      </trkpt>
      <trkpt lat="49.50858" lon="-1.33045">
        <ele>59.8</ele>
        <time>2020-06-15T13:53:43Z</time>
      </trkpt>
      <trkpt lat="49.50857" lon="-1.33037">
        <ele>59.9</ele>
        <time>2020-06-15T13:53:44Z</time>
      </trkpt>
      <trkpt lat="49.50857" lon="-1.3303">
        <ele>59.9</ele>
        <time>2020-06-15T13:53:45Z</time>
      </trkpt>
      <trkpt lat="49.50857" lon="-1.33023">
        <ele>59.9</ele>
        <time>2020-06-15T13:53:46Z</time>
      </trkpt>
      <trkpt lat="49.50856" lon="-1.33016">
        <ele>60</ele>
        <time>2020-06-15T13:53:47Z</time>
      </trkpt>
      <trkpt lat="49.50856" lon="-1.33009">
        <ele>60</ele>
        <time>2020-06-15T13:53:48Z</time>
      </trkpt>
      <trkpt lat="49.50856" lon="-1.33002">
        <ele>60.1</ele>
        <time>2020-06-15T13:53:49Z</time>
      </trkpt>
      <trkpt lat="49.50856" lon="-1.32992">
        <ele>60.1</ele>
        <time>2020-06-15T13:53:50Z</time>
      </trkpt>
      <trkpt lat="49.50856" lon="-1.32986">
        <ele>60.1</ele>
        <time>2020-06-15T13:53:51Z</time>
      </trkpt>
      <trkpt lat="49.50857" lon="-1.32979">
        <ele>60.1</ele>
        <time>2020-06-15T13:53:52Z</time>
      </trkpt>
      <trkpt lat="49.50856" lon="-1.32972">
        <ele>60.1</ele>
        <time>2020-06-15T13:53:53Z</time>
      </trkpt>
      <trkpt lat="49.50857" lon="-1.32964">
        <ele>60.1</ele>
        <time>2020-06-15T13:53:54Z</time>
      </trkpt>
      <trkpt lat="49.50856" lon="-1.32956">
        <ele>60.1</ele>
        <time>2020-06-15T13:53:55Z</time>
      </trkpt>
      <trkpt lat="49.50856" lon="-1.32949">
        <ele>60.1</ele>
        <time>2020-06-15T13:53:56Z</time>
      </trkpt>
      <trkpt lat="49.50856" lon="-1.32942">
        <ele>60.1</ele>
        <time>2020-06-15T13:53:57Z</time>
      </trkpt>
      <trkpt lat="49.50855" lon="-1.32934">
        <ele>60.1</ele>
        <time>2020-06-15T13:53:58Z</time>
      </trkpt>
      <trkpt lat="49.50854" lon="-1.32927">
        <ele>60.2</ele>
        <time>2020-06-15T13:53:59Z</time>
      </trkpt>
      <trkpt lat="49.50854" lon="-1.32919">
        <ele>60.2</ele>
        <time>2020-06-15T13:54:00Z</time>
      </trkpt>
      <trkpt lat="49.50854" lon="-1.3291">
        <ele>60.1</ele>
        <time>2020-06-15T13:54:01Z</time>
      </trkpt>
      <trkpt lat="49.50854" lon="-1.32903">
        <ele>60.1</ele>
        <time>2020-06-15T13:54:02Z</time>
      </trkpt>
      <trkpt lat="49.50854" lon="-1.32895">
        <ele>60.1</ele>
        <time>2020-06-15T13:54:03Z</time>
      </trkpt>
      <trkpt lat="49.50855" lon="-1.32887">
        <ele>60.1</ele>
        <time>2020-06-15T13:54:04Z</time>
      </trkpt>
      <trkpt lat="49.50855" lon="-1.32879">
        <ele>60</ele>
        <time>2020-06-15T13:54:05Z</time>
      </trkpt>
      <trkpt lat="49.50854" lon="-1.32871">
        <ele>60</ele>
        <time>2020-06-15T13:54:06Z</time>
      </trkpt>
      <trkpt lat="49.50853" lon="-1.32864">
        <ele>60</ele>
        <time>2020-06-15T13:54:07Z</time>
      </trkpt>
      <trkpt lat="49.50852" lon="-1.32856">
        <ele>59.9</ele>
        <time>2020-06-15T13:54:08Z</time>
      </trkpt>
      <trkpt lat="49.50852" lon="-1.32848">
        <ele>59.9</ele>
        <time>2020-06-15T13:54:09Z</time>
      </trkpt>
      <trkpt lat="49.50851" lon="-1.32841">
        <ele>59.9</ele>
        <time>2020-06-15T13:54:10Z</time>
      </trkpt>
      <trkpt lat="49.5085" lon="-1.32832">
        <ele>59.8</ele>
        <time>2020-06-15T13:54:11Z</time>
      </trkpt>
      <trkpt lat="49.50849" lon="-1.32823">
        <ele>59.7</ele>
        <time>2020-06-15T13:54:12Z</time>
      </trkpt>
      <trkpt lat="49.50849" lon="-1.32814">
        <ele>59.6</ele>
        <time>2020-06-15T13:54:13Z</time>
      </trkpt>
      <trkpt lat="49.5085" lon="-1.32805">
        <ele>59.5</ele>
        <time>2020-06-15T13:54:14Z</time>
      </trkpt>
      <trkpt lat="49.5085" lon="-1.32796">
        <ele>59.4</ele>
        <time>2020-06-15T13:54:15Z</time>
      </trkpt>
      <trkpt lat="49.50849" lon="-1.32786">
        <ele>59.3</ele>
        <time>2020-06-15T13:54:16Z</time>
      </trkpt>
      <trkpt lat="49.50849" lon="-1.32776">
        <ele>59.2</ele>
        <time>2020-06-15T13:54:17Z</time>
      </trkpt>
      <trkpt lat="49.5085" lon="-1.32766">
        <ele>59.1</ele>
        <time>2020-06-15T13:54:18Z</time>
      </trkpt>
      <trkpt lat="49.5085" lon="-1.32755">
        <ele>59</ele>
        <time>2020-06-15T13:54:19Z</time>
      </trkpt>
      <trkpt lat="49.50851" lon="-1.32746">
        <ele>58.8</ele>
        <time>2020-06-15T13:54:20Z</time>
      </trkpt>
      <trkpt lat="49.50851" lon="-1.32738">
        <ele>58.7</ele>
        <time>2020-06-15T13:54:21Z</time>
      </trkpt>
      <trkpt lat="49.50851" lon="-1.32729">
        <ele>58.6</ele>
        <time>2020-06-15T13:54:22Z</time>
      </trkpt>
      <trkpt lat="49.50851" lon="-1.32719">
        <ele>58.4</ele>
        <time>2020-06-15T13:54:23Z</time>
      </trkpt>
      <trkpt lat="49.50852" lon="-1.32709">
        <ele>58.2</ele>
        <time>2020-06-15T13:54:24Z</time>
      </trkpt>
      <trkpt lat="49.50852" lon="-1.32695">
        <ele>57.9</ele>
        <time>2020-06-15T13:54:25Z</time>
      </trkpt>
      <trkpt lat="49.50852" lon="-1.32687">
        <ele>57.8</ele>
        <time>2020-06-15T13:54:26Z</time>
      </trkpt>
      <trkpt lat="49.50853" lon="-1.32678">
        <ele>57.6</ele>
        <time>2020-06-15T13:54:27Z</time>
      </trkpt>
      <trkpt lat="49.50853" lon="-1.32666">
        <ele>57.3</ele>
        <time>2020-06-15T13:54:28Z</time>
      </trkpt>
      <trkpt lat="49.50853" lon="-1.32653">
        <ele>56.9</ele>
        <time>2020-06-15T13:54:29Z</time>
      </trkpt>
      <trkpt lat="49.50853" lon="-1.32642">
        <ele>56.7</ele>
        <time>2020-06-15T13:54:30Z</time>
      </trkpt>
      <trkpt lat="49.50854" lon="-1.32632">
        <ele>56.5</ele>
        <time>2020-06-15T13:54:31Z</time>
      </trkpt>
      <trkpt lat="49.50854" lon="-1.32621">
        <ele>56.2</ele>
        <time>2020-06-15T13:54:32Z</time>
      </trkpt>
      <trkpt lat="49.50855" lon="-1.3261">
        <ele>56</ele>
        <time>2020-06-15T13:54:33Z</time>
      </trkpt>
      <trkpt lat="49.50855" lon="-1.32599">
        <ele>55.7</ele>
        <time>2020-06-15T13:54:34Z</time>
      </trkpt>
      <trkpt lat="49.50855" lon="-1.32588">
        <ele>55.4</ele>
        <time>2020-06-15T13:54:35Z</time>
      </trkpt>
      <trkpt lat="49.50856" lon="-1.32577">
        <ele>55.1</ele>
        <time>2020-06-15T13:54:36Z</time>
      </trkpt>
      <trkpt lat="49.50856" lon="-1.32566">
        <ele>54.8</ele>
        <time>2020-06-15T13:54:37Z</time>
      </trkpt>
      <trkpt lat="49.50857" lon="-1.32555">
        <ele>54.5</ele>
        <time>2020-06-15T13:54:38Z</time>
      </trkpt>
      <trkpt lat="49.50857" lon="-1.32543">
        <ele>54.2</ele>
        <time>2020-06-15T13:54:39Z</time>
      </trkpt>
      <trkpt lat="49.50857" lon="-1.32532">
        <ele>53.9</ele>
        <time>2020-06-15T13:54:40Z</time>
      </trkpt>
      <trkpt lat="49.50858" lon="-1.32521">
        <ele>53.5</ele>
        <time>2020-06-15T13:54:41Z</time>
      </trkpt>
      <trkpt lat="49.50858" lon="-1.32508">
        <ele>53.2</ele>
        <time>2020-06-15T13:54:42Z</time>
      </trkpt>
      <trkpt lat="49.50857" lon="-1.32496">
        <ele>52.8</ele>
        <time>2020-06-15T13:54:43Z</time>
      </trkpt>
      <trkpt lat="49.50858" lon="-1.32486">
        <ele>52.6</ele>
        <time>2020-06-15T13:54:44Z</time>
      </trkpt>
      <trkpt lat="49.50858" lon="-1.32474">
        <ele>52.2</ele>
        <time>2020-06-15T13:54:45Z</time>
      </trkpt>
      <trkpt lat="49.50859" lon="-1.32462">
        <ele>51.8</ele>
        <time>2020-06-15T13:54:46Z</time>
      </trkpt>
      <trkpt lat="49.5086" lon="-1.32449">
        <ele>51.3</ele>
        <time>2020-06-15T13:54:47Z</time>
      </trkpt>
      <trkpt lat="49.50861" lon="-1.32437">
        <ele>50.9</ele>
        <time>2020-06-15T13:54:48Z</time>
      </trkpt>
      <trkpt lat="49.50862" lon="-1.32427">
        <ele>50.5</ele>
        <time>2020-06-15T13:54:49Z</time>
      </trkpt>
      <trkpt lat="49.50863" lon="-1.32416">
        <ele>50.1</ele>
        <time>2020-06-15T13:54:50Z</time>
      </trkpt>
      <trkpt lat="49.50864" lon="-1.32404">
        <ele>49.7</ele>
        <time>2020-06-15T13:54:51Z</time>
      </trkpt>
      <trkpt lat="49.50865" lon="-1.32393">
        <ele>49.3</ele>
        <time>2020-06-15T13:54:52Z</time>
      </trkpt>
      <trkpt lat="49.50866" lon="-1.32382">
        <ele>48.9</ele>
        <time>2020-06-15T13:54:53Z</time>
      </trkpt>
      <trkpt lat="49.50867" lon="-1.3237">
        <ele>48.6</ele>
        <time>2020-06-15T13:54:54Z</time>
      </trkpt>
      <trkpt lat="49.50868" lon="-1.32358">
        <ele>48.3</ele>
        <time>2020-06-15T13:54:55Z</time>
      </trkpt>
      <trkpt lat="49.50869" lon="-1.32347">
        <ele>48</ele>
        <time>2020-06-15T13:54:56Z</time>
      </trkpt>
      <trkpt lat="49.50869" lon="-1.32335">
        <ele>47.7</ele>
        <time>2020-06-15T13:54:57Z</time>
      </trkpt>
      <trkpt lat="49.5087" lon="-1.32323">
        <ele>47.3</ele>
        <time>2020-06-15T13:54:58Z</time>
      </trkpt>
      <trkpt lat="49.5087" lon="-1.3231">
        <ele>47</ele>
        <time>2020-06-15T13:54:59Z</time>
      </trkpt>
      <trkpt lat="49.5087" lon="-1.32297">
        <ele>46.8</ele>
        <time>2020-06-15T13:55:00Z</time>
      </trkpt>
      <trkpt lat="49.50868" lon="-1.32285">
        <ele>46.5</ele>
        <time>2020-06-15T13:55:01Z</time>
      </trkpt>
      <trkpt lat="49.50866" lon="-1.32272">
        <ele>46.4</ele>
        <time>2020-06-15T13:55:02Z</time>
      </trkpt>
      <trkpt lat="49.50867" lon="-1.3226">
        <ele>46.1</ele>
        <time>2020-06-15T13:55:03Z</time>
      </trkpt>
      <trkpt lat="49.50869" lon="-1.32248">
        <ele>45.9</ele>
        <time>2020-06-15T13:55:04Z</time>
      </trkpt>
      <trkpt lat="49.50872" lon="-1.32238">
        <ele>45.9</ele>
        <time>2020-06-15T13:55:05Z</time>
      </trkpt>
      <trkpt lat="49.50875" lon="-1.32228">
        <ele>45.5</ele>
        <time>2020-06-15T13:55:06Z</time>
      </trkpt>
      <trkpt lat="49.50877" lon="-1.32219">
        <ele>45.1</ele>
        <time>2020-06-15T13:55:07Z</time>
      </trkpt>
      <trkpt lat="49.50879" lon="-1.32208">
        <ele>44.6</ele>
        <time>2020-06-15T13:55:08Z</time>
      </trkpt>
      <trkpt lat="49.5088" lon="-1.32197">
        <ele>44.1</ele>
        <time>2020-06-15T13:55:09Z</time>
      </trkpt>
      <trkpt lat="49.50882" lon="-1.32186">
        <ele>43.7</ele>
        <time>2020-06-15T13:55:10Z</time>
      </trkpt>
      <trkpt lat="49.50883" lon="-1.32174">
        <ele>43.2</ele>
        <time>2020-06-15T13:55:11Z</time>
      </trkpt>
      <trkpt lat="49.50884" lon="-1.32163">
        <ele>42.7</ele>
        <time>2020-06-15T13:55:12Z</time>
      </trkpt>
      <trkpt lat="49.50884" lon="-1.32151">
        <ele>42.3</ele>
        <time>2020-06-15T13:55:13Z</time>
      </trkpt>
      <trkpt lat="49.50885" lon="-1.3214">
        <ele>41.9</ele>
        <time>2020-06-15T13:55:14Z</time>
      </trkpt>
      <trkpt lat="49.50886" lon="-1.32128">
        <ele>41.5</ele>
        <time>2020-06-15T13:55:15Z</time>
      </trkpt>
      <trkpt lat="49.50887" lon="-1.32116">
        <ele>41.1</ele>
        <time>2020-06-15T13:55:16Z</time>
      </trkpt>
      <trkpt lat="49.50888" lon="-1.32103">
        <ele>40.8</ele>
        <time>2020-06-15T13:55:17Z</time>
      </trkpt>
      <trkpt lat="49.50889" lon="-1.3209">
        <ele>40.5</ele>
        <time>2020-06-15T13:55:18Z</time>
      </trkpt>
      <trkpt lat="49.50891" lon="-1.32077">
        <ele>40.1</ele>
        <time>2020-06-15T13:55:19Z</time>
      </trkpt>
      <trkpt lat="49.50892" lon="-1.32064">
        <ele>39.7</ele>
        <time>2020-06-15T13:55:20Z</time>
      </trkpt>
      <trkpt lat="49.50894" lon="-1.32052">
        <ele>39.4</ele>
        <time>2020-06-15T13:55:21Z</time>
      </trkpt>
      <trkpt lat="49.50895" lon="-1.32039">
        <ele>39.1</ele>
        <time>2020-06-15T13:55:22Z</time>
      </trkpt>
      <trkpt lat="49.50897" lon="-1.32027">
        <ele>38.8</ele>
        <time>2020-06-15T13:55:23Z</time>
      </trkpt>
      <trkpt lat="49.50898" lon="-1.32016">
        <ele>38.6</ele>
        <time>2020-06-15T13:55:24Z</time>
      </trkpt>
      <trkpt lat="49.50899" lon="-1.32004">
        <ele>38.4</ele>
        <time>2020-06-15T13:55:25Z</time>
      </trkpt>
      <trkpt lat="49.509" lon="-1.31993">
        <ele>38.3</ele>
        <time>2020-06-15T13:55:26Z</time>
      </trkpt>
      <trkpt lat="49.50901" lon="-1.31983">
        <ele>38.3</ele>
        <time>2020-06-15T13:55:27Z</time>
      </trkpt>
      <trkpt lat="49.50901" lon="-1.31972">
        <ele>38.2</ele>
        <time>2020-06-15T13:55:28Z</time>
      </trkpt>
      <trkpt lat="49.50902" lon="-1.31961">
        <ele>38.2</ele>
        <time>2020-06-15T13:55:29Z</time>
      </trkpt>
      <trkpt lat="49.50903" lon="-1.31951">
        <ele>38.1</ele>
        <time>2020-06-15T13:55:30Z</time>
      </trkpt>
      <trkpt lat="49.50904" lon="-1.31941">
        <ele>38.1</ele>
        <time>2020-06-15T13:55:31Z</time>
      </trkpt>
      <trkpt lat="49.50905" lon="-1.3193">
        <ele>38.1</ele>
        <time>2020-06-15T13:55:32Z</time>
      </trkpt>
      <trkpt lat="49.50905" lon="-1.3192">
        <ele>38.1</ele>
        <time>2020-06-15T13:55:33Z</time>
      </trkpt>
      <trkpt lat="49.50906" lon="-1.31911">
        <ele>38.1</ele>
        <time>2020-06-15T13:55:34Z</time>
      </trkpt>
      <trkpt lat="49.50906" lon="-1.31901">
        <ele>38.1</ele>
        <time>2020-06-15T13:55:35Z</time>
      </trkpt>
      <trkpt lat="49.50907" lon="-1.31891">
        <ele>38.1</ele>
        <time>2020-06-15T13:55:36Z</time>
      </trkpt>
      <trkpt lat="49.50908" lon="-1.31882">
        <ele>38.1</ele>
        <time>2020-06-15T13:55:37Z</time>
      </trkpt>
      <trkpt lat="49.50908" lon="-1.31873">
        <ele>38.1</ele>
        <time>2020-06-15T13:55:38Z</time>
      </trkpt>
      <trkpt lat="49.50909" lon="-1.31864">
        <ele>38.1</ele>
        <time>2020-06-15T13:55:39Z</time>
      </trkpt>
      <trkpt lat="49.50909" lon="-1.31854">
        <ele>38.1</ele>
        <time>2020-06-15T13:55:40Z</time>
      </trkpt>
      <trkpt lat="49.50911" lon="-1.31846">
        <ele>38</ele>
        <time>2020-06-15T13:55:41Z</time>
      </trkpt>
      <trkpt lat="49.50911" lon="-1.31838">
        <ele>38</ele>
        <time>2020-06-15T13:55:42Z</time>
      </trkpt>
      <trkpt lat="49.50912" lon="-1.3183">
        <ele>38</ele>
        <time>2020-06-15T13:55:43Z</time>
      </trkpt>
      <trkpt lat="49.50914" lon="-1.3182">
        <ele>38</ele>
        <time>2020-06-15T13:55:44Z</time>
      </trkpt>
      <trkpt lat="49.50914" lon="-1.3181">
        <ele>38</ele>
        <time>2020-06-15T13:55:45Z</time>
      </trkpt>
      <trkpt lat="49.50916" lon="-1.318">
        <ele>38</ele>
        <time>2020-06-15T13:55:46Z</time>
      </trkpt>
      <trkpt lat="49.50917" lon="-1.31791">
        <ele>37.9</ele>
        <time>2020-06-15T13:55:47Z</time>
      </trkpt>
      <trkpt lat="49.50917" lon="-1.31781">
        <ele>37.9</ele>
        <time>2020-06-15T13:55:48Z</time>
      </trkpt>
      <trkpt lat="49.50918" lon="-1.31771">
        <ele>37.9</ele>
        <time>2020-06-15T13:55:49Z</time>
      </trkpt>
      <trkpt lat="49.50918" lon="-1.31762">
        <ele>37.9</ele>
        <time>2020-06-15T13:55:50Z</time>
      </trkpt>
      <trkpt lat="49.50919" lon="-1.31752">
        <ele>37.9</ele>
        <time>2020-06-15T13:55:51Z</time>
      </trkpt>
      <trkpt lat="49.50921" lon="-1.31743">
        <ele>37.9</ele>
        <time>2020-06-15T13:55:52Z</time>
      </trkpt>
      <trkpt lat="49.50921" lon="-1.31735">
        <ele>37.9</ele>
        <time>2020-06-15T13:55:53Z</time>
      </trkpt>
      <trkpt lat="49.50922" lon="-1.31725">
        <ele>37.9</ele>
        <time>2020-06-15T13:55:54Z</time>
      </trkpt>
      <trkpt lat="49.50923" lon="-1.31714">
        <ele>37.9</ele>
        <time>2020-06-15T13:55:55Z</time>
      </trkpt>
      <trkpt lat="49.50925" lon="-1.31702">
        <ele>37.9</ele>
        <time>2020-06-15T13:55:56Z</time>
      </trkpt>
      <trkpt lat="49.50927" lon="-1.31693">
        <ele>37.9</ele>
        <time>2020-06-15T13:55:57Z</time>
      </trkpt>
      <trkpt lat="49.50928" lon="-1.31683">
        <ele>37.9</ele>
        <time>2020-06-15T13:55:58Z</time>
      </trkpt>
      <trkpt lat="49.50929" lon="-1.31672">
        <ele>37.9</ele>
        <time>2020-06-15T13:55:59Z</time>
      </trkpt>
      <trkpt lat="49.5093" lon="-1.31663">
        <ele>38</ele>
        <time>2020-06-15T13:56:00Z</time>
      </trkpt>
      <trkpt lat="49.50931" lon="-1.31653">
        <ele>38</ele>
        <time>2020-06-15T13:56:01Z</time>
      </trkpt>
      <trkpt lat="49.50932" lon="-1.31644">
        <ele>38</ele>
        <time>2020-06-15T13:56:02Z</time>
      </trkpt>
      <trkpt lat="49.50932" lon="-1.31635">
        <ele>38</ele>
        <time>2020-06-15T13:56:03Z</time>
      </trkpt>
      <trkpt lat="49.50933" lon="-1.31627">
        <ele>38.1</ele>
        <time>2020-06-15T13:56:04Z</time>
      </trkpt>
      <trkpt lat="49.50934" lon="-1.31617">
        <ele>38.1</ele>
        <time>2020-06-15T13:56:05Z</time>
      </trkpt>
      <trkpt lat="49.50936" lon="-1.31606">
        <ele>38.2</ele>
        <time>2020-06-15T13:56:06Z</time>
      </trkpt>
      <trkpt lat="49.50937" lon="-1.31596">
        <ele>38.3</ele>
        <time>2020-06-15T13:56:07Z</time>
      </trkpt>
      <trkpt lat="49.50937" lon="-1.31585">
        <ele>38.4</ele>
        <time>2020-06-15T13:56:08Z</time>
      </trkpt>
      <trkpt lat="49.50938" lon="-1.31578">
        <ele>38.5</ele>
        <time>2020-06-15T13:56:09Z</time>
      </trkpt>
      <trkpt lat="49.5094" lon="-1.3157">
        <ele>38.6</ele>
        <time>2020-06-15T13:56:10Z</time>
      </trkpt>
      <trkpt lat="49.50941" lon="-1.3156">
        <ele>38.7</ele>
        <time>2020-06-15T13:56:11Z</time>
      </trkpt>
      <trkpt lat="49.50942" lon="-1.31551">
        <ele>38.9</ele>
        <time>2020-06-15T13:56:12Z</time>
      </trkpt>
      <trkpt lat="49.50943" lon="-1.31542">
        <ele>39.1</ele>
        <time>2020-06-15T13:56:13Z</time>
      </trkpt>
      <trkpt lat="49.50944" lon="-1.31533">
        <ele>39.3</ele>
        <time>2020-06-15T13:56:14Z</time>
      </trkpt>
      <trkpt lat="49.50945" lon="-1.31524">
        <ele>39.5</ele>
        <time>2020-06-15T13:56:15Z</time>
      </trkpt>
      <trkpt lat="49.50946" lon="-1.31515">
        <ele>39.7</ele>
        <time>2020-06-15T13:56:16Z</time>
      </trkpt>
      <trkpt lat="49.50947" lon="-1.31507">
        <ele>40</ele>
        <time>2020-06-15T13:56:17Z</time>
      </trkpt>
      <trkpt lat="49.50947" lon="-1.31499">
        <ele>40.2</ele>
        <time>2020-06-15T13:56:18Z</time>
      </trkpt>
      <trkpt lat="49.50947" lon="-1.31492">
        <ele>40.5</ele>
        <time>2020-06-15T13:56:19Z</time>
      </trkpt>
      <trkpt lat="49.50948" lon="-1.31485">
        <ele>40.7</ele>
        <time>2020-06-15T13:56:20Z</time>
      </trkpt>
      <trkpt lat="49.50949" lon="-1.31478">
        <ele>41</ele>
        <time>2020-06-15T13:56:21Z</time>
      </trkpt>
      <trkpt lat="49.5095" lon="-1.3147">
        <ele>41.2</ele>
        <time>2020-06-15T13:56:22Z</time>
      </trkpt>
      <trkpt lat="49.5095" lon="-1.31463">
        <ele>41.4</ele>
        <time>2020-06-15T13:56:23Z</time>
      </trkpt>
      <trkpt lat="49.5095" lon="-1.31456">
        <ele>41.6</ele>
        <time>2020-06-15T13:56:24Z</time>
      </trkpt>
      <trkpt lat="49.50951" lon="-1.3145">
        <ele>41.8</ele>
        <time>2020-06-15T13:56:25Z</time>
      </trkpt>
      <trkpt lat="49.50951" lon="-1.31444">
        <ele>42</ele>
        <time>2020-06-15T13:56:26Z</time>
      </trkpt>
      <trkpt lat="49.50952" lon="-1.31438">
        <ele>42.1</ele>
        <time>2020-06-15T13:56:27Z</time>
      </trkpt>
      <trkpt lat="49.50951" lon="-1.31431">
        <ele>42.3</ele>
        <time>2020-06-15T13:56:28Z</time>
      </trkpt>
      <trkpt lat="49.50951" lon="-1.31426">
        <ele>42.5</ele>
        <time>2020-06-15T13:56:29Z</time>
      </trkpt>
      <trkpt lat="49.50952" lon="-1.31419">
        <ele>42.6</ele>
        <time>2020-06-15T13:56:30Z</time>
      </trkpt>
      <trkpt lat="49.50953" lon="-1.31412">
        <ele>42.8</ele>
        <time>2020-06-15T13:56:31Z</time>
      </trkpt>
      <trkpt lat="49.50954" lon="-1.31405">
        <ele>42.9</ele>
        <time>2020-06-15T13:56:32Z</time>
      </trkpt>
      <trkpt lat="49.50954" lon="-1.31397">
        <ele>43.1</ele>
        <time>2020-06-15T13:56:33Z</time>
      </trkpt>
      <trkpt lat="49.50954" lon="-1.3139">
        <ele>43.2</ele>
        <time>2020-06-15T13:56:34Z</time>
      </trkpt>
      <trkpt lat="49.50956" lon="-1.31385">
        <ele>43.3</ele>
        <time>2020-06-15T13:56:35Z</time>
      </trkpt>
      <trkpt lat="49.50956" lon="-1.31378">
        <ele>43.4</ele>
        <time>2020-06-15T13:56:36Z</time>
      </trkpt>
      <trkpt lat="49.50957" lon="-1.31371">
        <ele>43.6</ele>
        <time>2020-06-15T13:56:37Z</time>
      </trkpt>
      <trkpt lat="49.50958" lon="-1.31365">
        <ele>43.7</ele>
        <time>2020-06-15T13:56:38Z</time>
      </trkpt>
      <trkpt lat="49.50959" lon="-1.31357">
        <ele>43.8</ele>
        <time>2020-06-15T13:56:39Z</time>
      </trkpt>
      <trkpt lat="49.5096" lon="-1.31347">
        <ele>44</ele>
        <time>2020-06-15T13:56:40Z</time>
      </trkpt>
      <trkpt lat="49.50961" lon="-1.31339">
        <ele>44.1</ele>
        <time>2020-06-15T13:56:41Z</time>
      </trkpt>
      <trkpt lat="49.50963" lon="-1.31331">
        <ele>44.2</ele>
        <time>2020-06-15T13:56:42Z</time>
      </trkpt>
      <trkpt lat="49.50964" lon="-1.31323">
        <ele>44.3</ele>
        <time>2020-06-15T13:56:43Z</time>
      </trkpt>
      <trkpt lat="49.50964" lon="-1.31315">
        <ele>44.4</ele>
        <time>2020-06-15T13:56:44Z</time>
      </trkpt>
      <trkpt lat="49.50965" lon="-1.31307">
        <ele>44.5</ele>
        <time>2020-06-15T13:56:45Z</time>
      </trkpt>
      <trkpt lat="49.50966" lon="-1.313">
        <ele>44.6</ele>
        <time>2020-06-15T13:56:46Z</time>
      </trkpt>
      <trkpt lat="49.50967" lon="-1.3129">
        <ele>44.7</ele>
        <time>2020-06-15T13:56:47Z</time>
      </trkpt>
      <trkpt lat="49.50968" lon="-1.31282">
        <ele>44.8</ele>
        <time>2020-06-15T13:56:48Z</time>
      </trkpt>
      <trkpt lat="49.50969" lon="-1.31274">
        <ele>44.8</ele>
        <time>2020-06-15T13:56:49Z</time>
      </trkpt>
      <trkpt lat="49.50969" lon="-1.31266">
        <ele>44.9</ele>
        <time>2020-06-15T13:56:50Z</time>
      </trkpt>
      <trkpt lat="49.50969" lon="-1.31257">
        <ele>44.9</ele>
        <time>2020-06-15T13:56:51Z</time>
      </trkpt>
      <trkpt lat="49.5097" lon="-1.31249">
        <ele>44.9</ele>
        <time>2020-06-15T13:56:52Z</time>
      </trkpt>
      <trkpt lat="49.50971" lon="-1.31241">
        <ele>44.9</ele>
        <time>2020-06-15T13:56:53Z</time>
      </trkpt>
      <trkpt lat="49.50972" lon="-1.31233">
        <ele>44.9</ele>
        <time>2020-06-15T13:56:54Z</time>
      </trkpt>
      <trkpt lat="49.50973" lon="-1.31224">
        <ele>44.9</ele>
        <time>2020-06-15T13:56:55Z</time>
      </trkpt>
      <trkpt lat="49.50974" lon="-1.31215">
        <ele>44.9</ele>
        <time>2020-06-15T13:56:56Z</time>
      </trkpt>
      <trkpt lat="49.50974" lon="-1.31207">
        <ele>44.8</ele>
        <time>2020-06-15T13:56:57Z</time>
      </trkpt>
      <trkpt lat="49.50975" lon="-1.31198">
        <ele>44.8</ele>
        <time>2020-06-15T13:56:58Z</time>
      </trkpt>
      <trkpt lat="49.50975" lon="-1.31189">
        <ele>44.7</ele>
        <time>2020-06-15T13:56:59Z</time>
      </trkpt>
      <trkpt lat="49.50976" lon="-1.31179">
        <ele>44.7</ele>
        <time>2020-06-15T13:57:00Z</time>
      </trkpt>
      <trkpt lat="49.50977" lon="-1.31171">
        <ele>44.7</ele>
        <time>2020-06-15T13:57:01Z</time>
      </trkpt>
      <trkpt lat="49.50977" lon="-1.31162">
        <ele>44.6</ele>
        <time>2020-06-15T13:57:02Z</time>
      </trkpt>
      <trkpt lat="49.50978" lon="-1.31152">
        <ele>44.5</ele>
        <time>2020-06-15T13:57:03Z</time>
      </trkpt>
      <trkpt lat="49.50979" lon="-1.31143">
        <ele>44.4</ele>
        <time>2020-06-15T13:57:04Z</time>
      </trkpt>
      <trkpt lat="49.5098" lon="-1.31133">
        <ele>44.3</ele>
        <time>2020-06-15T13:57:05Z</time>
      </trkpt>
      <trkpt lat="49.50981" lon="-1.31124">
        <ele>44.3</ele>
        <time>2020-06-15T13:57:06Z</time>
      </trkpt>
      <trkpt lat="49.50983" lon="-1.31113">
        <ele>44.1</ele>
        <time>2020-06-15T13:57:07Z</time>
      </trkpt>
      <trkpt lat="49.50983" lon="-1.31104">
        <ele>44</ele>
        <time>2020-06-15T13:57:08Z</time>
      </trkpt>
      <trkpt lat="49.50983" lon="-1.31093">
        <ele>43.9</ele>
        <time>2020-06-15T13:57:09Z</time>
      </trkpt>
      <trkpt lat="49.50984" lon="-1.31081">
        <ele>43.7</ele>
        <time>2020-06-15T13:57:10Z</time>
      </trkpt>
      <trkpt lat="49.50984" lon="-1.3107">
        <ele>43.5</ele>
        <time>2020-06-15T13:57:11Z</time>
      </trkpt>
      <trkpt lat="49.50985" lon="-1.31057">
        <ele>43.4</ele>
        <time>2020-06-15T13:57:12Z</time>
      </trkpt>
      <trkpt lat="49.50986" lon="-1.31046">
        <ele>43.3</ele>
        <time>2020-06-15T13:57:13Z</time>
      </trkpt>
      <trkpt lat="49.50986" lon="-1.31033">
        <ele>43.2</ele>
        <time>2020-06-15T13:57:14Z</time>
      </trkpt>
      <trkpt lat="49.50987" lon="-1.31022">
        <ele>43.1</ele>
        <time>2020-06-15T13:57:15Z</time>
      </trkpt>
      <trkpt lat="49.50988" lon="-1.3101">
        <ele>43.1</ele>
        <time>2020-06-15T13:57:16Z</time>
      </trkpt>
      <trkpt lat="49.50989" lon="-1.30999">
        <ele>43.1</ele>
        <time>2020-06-15T13:57:17Z</time>
      </trkpt>
      <trkpt lat="49.5099" lon="-1.30987">
        <ele>43</ele>
        <time>2020-06-15T13:57:18Z</time>
      </trkpt>
      <trkpt lat="49.50992" lon="-1.30976">
        <ele>42.9</ele>
        <time>2020-06-15T13:57:19Z</time>
      </trkpt>
      <trkpt lat="49.50993" lon="-1.30965">
        <ele>42.9</ele>
        <time>2020-06-15T13:57:20Z</time>
      </trkpt>
      <trkpt lat="49.50994" lon="-1.30955">
        <ele>42.8</ele>
        <time>2020-06-15T13:57:21Z</time>
      </trkpt>
      <trkpt lat="49.50996" lon="-1.30945">
        <ele>42.8</ele>
        <time>2020-06-15T13:57:22Z</time>
      </trkpt>
      <trkpt lat="49.50997" lon="-1.30936">
        <ele>42.7</ele>
        <time>2020-06-15T13:57:23Z</time>
      </trkpt>
      <trkpt lat="49.50999" lon="-1.30925">
        <ele>42.7</ele>
        <time>2020-06-15T13:57:24Z</time>
      </trkpt>
      <trkpt lat="49.51001" lon="-1.30915">
        <ele>42.7</ele>
        <time>2020-06-15T13:57:25Z</time>
      </trkpt>
      <trkpt lat="49.51003" lon="-1.30905">
        <ele>42.7</ele>
        <time>2020-06-15T13:57:26Z</time>
      </trkpt>
      <trkpt lat="49.51005" lon="-1.30895">
        <ele>42.7</ele>
        <time>2020-06-15T13:57:27Z</time>
      </trkpt>
      <trkpt lat="49.51007" lon="-1.30884">
        <ele>42.7</ele>
        <time>2020-06-15T13:57:28Z</time>
      </trkpt>
      <trkpt lat="49.51009" lon="-1.30874">
        <ele>42.7</ele>
        <time>2020-06-15T13:57:29Z</time>
      </trkpt>
      <trkpt lat="49.51011" lon="-1.30865">
        <ele>42.6</ele>
        <time>2020-06-15T13:57:30Z</time>
      </trkpt>
      <trkpt lat="49.51013" lon="-1.30855">
        <ele>42.6</ele>
        <time>2020-06-15T13:57:31Z</time>
      </trkpt>
      <trkpt lat="49.51015" lon="-1.30845">
        <ele>42.5</ele>
        <time>2020-06-15T13:57:32Z</time>
      </trkpt>
      <trkpt lat="49.51017" lon="-1.30836">
        <ele>42.4</ele>
        <time>2020-06-15T13:57:33Z</time>
      </trkpt>
      <trkpt lat="49.51019" lon="-1.30825">
        <ele>42.4</ele>
        <time>2020-06-15T13:57:34Z</time>
      </trkpt>
      <trkpt lat="49.51022" lon="-1.30816">
        <ele>42.3</ele>
        <time>2020-06-15T13:57:35Z</time>
      </trkpt>
      <trkpt lat="49.51024" lon="-1.30806">
        <ele>42.2</ele>
        <time>2020-06-15T13:57:36Z</time>
      </trkpt>
      <trkpt lat="49.51027" lon="-1.30794">
        <ele>42</ele>
        <time>2020-06-15T13:57:37Z</time>
      </trkpt>
      <trkpt lat="49.51029" lon="-1.30783">
        <ele>41.8</ele>
        <time>2020-06-15T13:57:38Z</time>
      </trkpt>
      <trkpt lat="49.51032" lon="-1.30771">
        <ele>41.6</ele>
        <time>2020-06-15T13:57:39Z</time>
      </trkpt>
      <trkpt lat="49.51034" lon="-1.30762">
        <ele>41.4</ele>
        <time>2020-06-15T13:57:40Z</time>
      </trkpt>
      <trkpt lat="49.51035" lon="-1.30753">
        <ele>41.2</ele>
        <time>2020-06-15T13:57:41Z</time>
      </trkpt>
      <trkpt lat="49.51037" lon="-1.30743">
        <ele>41</ele>
        <time>2020-06-15T13:57:42Z</time>
      </trkpt>
      <trkpt lat="49.51039" lon="-1.30734">
        <ele>40.8</ele>
        <time>2020-06-15T13:57:43Z</time>
      </trkpt>
      <trkpt lat="49.51041" lon="-1.30723">
        <ele>40.5</ele>
        <time>2020-06-15T13:57:44Z</time>
      </trkpt>
      <trkpt lat="49.51043" lon="-1.30714">
        <ele>40.3</ele>
        <time>2020-06-15T13:57:45Z</time>
      </trkpt>
      <trkpt lat="49.51046" lon="-1.30702">
        <ele>40</ele>
        <time>2020-06-15T13:57:46Z</time>
      </trkpt>
      <trkpt lat="49.51048" lon="-1.3069">
        <ele>39.7</ele>
        <time>2020-06-15T13:57:47Z</time>
      </trkpt>
      <trkpt lat="49.51049" lon="-1.3068">
        <ele>39.5</ele>
        <time>2020-06-15T13:57:48Z</time>
      </trkpt>
      <trkpt lat="49.5105" lon="-1.30667">
        <ele>39.2</ele>
        <time>2020-06-15T13:57:49Z</time>
      </trkpt>
      <trkpt lat="49.51051" lon="-1.30655">
        <ele>38.9</ele>
        <time>2020-06-15T13:57:50Z</time>
      </trkpt>
      <trkpt lat="49.51051" lon="-1.30642">
        <ele>38.6</ele>
        <time>2020-06-15T13:57:51Z</time>
      </trkpt>
      <trkpt lat="49.51051" lon="-1.30632">
        <ele>38.3</ele>
        <time>2020-06-15T13:57:52Z</time>
      </trkpt>
      <trkpt lat="49.51051" lon="-1.30618">
        <ele>38</ele>
        <time>2020-06-15T13:57:53Z</time>
      </trkpt>
      <trkpt lat="49.51052" lon="-1.30607">
        <ele>37.7</ele>
        <time>2020-06-15T13:57:54Z</time>
      </trkpt>
      <trkpt lat="49.51052" lon="-1.30592">
        <ele>37.4</ele>
        <time>2020-06-15T13:57:55Z</time>
      </trkpt>
      <trkpt lat="49.51053" lon="-1.3058">
        <ele>37.2</ele>
        <time>2020-06-15T13:57:56Z</time>
      </trkpt>
      <trkpt lat="49.51053" lon="-1.30569">
        <ele>37</ele>
        <time>2020-06-15T13:57:57Z</time>
      </trkpt>
      <trkpt lat="49.51053" lon="-1.30557">
        <ele>36.8</ele>
        <time>2020-06-15T13:57:58Z</time>
      </trkpt>
      <trkpt lat="49.51053" lon="-1.30545">
        <ele>36.6</ele>
        <time>2020-06-15T13:57:59Z</time>
      </trkpt>
      <trkpt lat="49.51054" lon="-1.30531">
        <ele>36.4</ele>
        <time>2020-06-15T13:58:00Z</time>
      </trkpt>
      <trkpt lat="49.51054" lon="-1.3052">
        <ele>36.1</ele>
        <time>2020-06-15T13:58:01Z</time>
      </trkpt>
      <trkpt lat="49.51055" lon="-1.30507">
        <ele>35.9</ele>
        <time>2020-06-15T13:58:02Z</time>
      </trkpt>
      <trkpt lat="49.51057" lon="-1.30494">
        <ele>35.7</ele>
        <time>2020-06-15T13:58:03Z</time>
      </trkpt>
      <trkpt lat="49.51059" lon="-1.30483">
        <ele>35.5</ele>
        <time>2020-06-15T13:58:04Z</time>
      </trkpt>
      <trkpt lat="49.51062" lon="-1.3047">
        <ele>35.3</ele>
        <time>2020-06-15T13:58:05Z</time>
      </trkpt>
      <trkpt lat="49.51065" lon="-1.30458">
        <ele>35</ele>
        <time>2020-06-15T13:58:06Z</time>
      </trkpt>
      <trkpt lat="49.51067" lon="-1.30447">
        <ele>34.8</ele>
        <time>2020-06-15T13:58:07Z</time>
      </trkpt>
      <trkpt lat="49.51072" lon="-1.30436">
        <ele>34.6</ele>
        <time>2020-06-15T13:58:08Z</time>
      </trkpt>
      <trkpt lat="49.51076" lon="-1.30426">
        <ele>34.4</ele>
        <time>2020-06-15T13:58:09Z</time>
      </trkpt>
      <trkpt lat="49.51081" lon="-1.30415">
        <ele>34.2</ele>
        <time>2020-06-15T13:58:10Z</time>
      </trkpt>
      <trkpt lat="49.51086" lon="-1.30405">
        <ele>34</ele>
        <time>2020-06-15T13:58:11Z</time>
      </trkpt>
      <trkpt lat="49.51091" lon="-1.30394">
        <ele>33.8</ele>
        <time>2020-06-15T13:58:12Z</time>
      </trkpt>
      <trkpt lat="49.51095" lon="-1.30385">
        <ele>33.6</ele>
        <time>2020-06-15T13:58:13Z</time>
      </trkpt>
      <trkpt lat="49.511" lon="-1.30376">
        <ele>33.4</ele>
        <time>2020-06-15T13:58:14Z</time>
      </trkpt>
      <trkpt lat="49.51105" lon="-1.30367">
        <ele>33.2</ele>
        <time>2020-06-15T13:58:15Z</time>
      </trkpt>
      <trkpt lat="49.5111" lon="-1.30357">
        <ele>33</ele>
        <time>2020-06-15T13:58:16Z</time>
      </trkpt>
      <trkpt lat="49.51116" lon="-1.30347">
        <ele>32.8</ele>
        <time>2020-06-15T13:58:17Z</time>
      </trkpt>
      <trkpt lat="49.51121" lon="-1.30336">
        <ele>32.7</ele>
        <time>2020-06-15T13:58:18Z</time>
      </trkpt>
      <trkpt lat="49.51126" lon="-1.30326">
        <ele>32.5</ele>
        <time>2020-06-15T13:58:19Z</time>
      </trkpt>
      <trkpt lat="49.5113" lon="-1.30315">
        <ele>32.4</ele>
        <time>2020-06-15T13:58:20Z</time>
      </trkpt>
      <trkpt lat="49.51135" lon="-1.30304">
        <ele>32.2</ele>
        <time>2020-06-15T13:58:21Z</time>
      </trkpt>
      <trkpt lat="49.5114" lon="-1.30293">
        <ele>32.1</ele>
        <time>2020-06-15T13:58:22Z</time>
      </trkpt>
      <trkpt lat="49.51144" lon="-1.30282">
        <ele>32</ele>
        <time>2020-06-15T13:58:23Z</time>
      </trkpt>
      <trkpt lat="49.51148" lon="-1.30271">
        <ele>31.9</ele>
        <time>2020-06-15T13:58:24Z</time>
      </trkpt>
      <trkpt lat="49.51152" lon="-1.30261">
        <ele>31.7</ele>
        <time>2020-06-15T13:58:25Z</time>
      </trkpt>
      <trkpt lat="49.51155" lon="-1.30251">
        <ele>31.6</ele>
        <time>2020-06-15T13:58:26Z</time>
      </trkpt>
      <trkpt lat="49.51159" lon="-1.30241">
        <ele>31.5</ele>
        <time>2020-06-15T13:58:27Z</time>
      </trkpt>
      <trkpt lat="49.51162" lon="-1.30232">
        <ele>31.5</ele>
        <time>2020-06-15T13:58:28Z</time>
      </trkpt>
      <trkpt lat="49.51165" lon="-1.30223">
        <ele>31.4</ele>
        <time>2020-06-15T13:58:29Z</time>
      </trkpt>
      <trkpt lat="49.51166" lon="-1.30214">
        <ele>31.3</ele>
        <time>2020-06-15T13:58:30Z</time>
      </trkpt>
      <trkpt lat="49.51169" lon="-1.30205">
        <ele>31.2</ele>
        <time>2020-06-15T13:58:31Z</time>
      </trkpt>
      <trkpt lat="49.51171" lon="-1.30195">
        <ele>31.1</ele>
        <time>2020-06-15T13:58:32Z</time>
      </trkpt>
      <trkpt lat="49.51173" lon="-1.30185">
        <ele>31</ele>
        <time>2020-06-15T13:58:33Z</time>
      </trkpt>
      <trkpt lat="49.51174" lon="-1.30175">
        <ele>30.8</ele>
        <time>2020-06-15T13:58:34Z</time>
      </trkpt>
      <trkpt lat="49.51174" lon="-1.30164">
        <ele>30.6</ele>
        <time>2020-06-15T13:58:35Z</time>
      </trkpt>
      <trkpt lat="49.51175" lon="-1.30154">
        <ele>30.3</ele>
        <time>2020-06-15T13:58:36Z</time>
      </trkpt>
      <trkpt lat="49.51175" lon="-1.30143">
        <ele>30</ele>
        <time>2020-06-15T13:58:37Z</time>
      </trkpt>
      <trkpt lat="49.51175" lon="-1.30132">
        <ele>29.7</ele>
        <time>2020-06-15T13:58:38Z</time>
      </trkpt>
      <trkpt lat="49.51175" lon="-1.3012">
        <ele>29.4</ele>
        <time>2020-06-15T13:58:39Z</time>
      </trkpt>
      <trkpt lat="49.51175" lon="-1.30109">
        <ele>29.1</ele>
        <time>2020-06-15T13:58:40Z</time>
      </trkpt>
      <trkpt lat="49.51175" lon="-1.30097">
        <ele>28.8</ele>
        <time>2020-06-15T13:58:41Z</time>
      </trkpt>
      <trkpt lat="49.51175" lon="-1.30085">
        <ele>28.5</ele>
        <time>2020-06-15T13:58:42Z</time>
      </trkpt>
      <trkpt lat="49.51175" lon="-1.30073">
        <ele>28.2</ele>
        <time>2020-06-15T13:58:43Z</time>
      </trkpt>
      <trkpt lat="49.51174" lon="-1.30061">
        <ele>27.9</ele>
        <time>2020-06-15T13:58:44Z</time>
      </trkpt>
      <trkpt lat="49.51173" lon="-1.30049">
        <ele>27.7</ele>
        <time>2020-06-15T13:58:45Z</time>
      </trkpt>
      <trkpt lat="49.51173" lon="-1.30037">
        <ele>27.5</ele>
        <time>2020-06-15T13:58:46Z</time>
      </trkpt>
      <trkpt lat="49.51172" lon="-1.30026">
        <ele>27.4</ele>
        <time>2020-06-15T13:58:47Z</time>
      </trkpt>
      <trkpt lat="49.51171" lon="-1.30015">
        <ele>27.3</ele>
        <time>2020-06-15T13:58:48Z</time>
      </trkpt>
      <trkpt lat="49.5117" lon="-1.30004">
        <ele>27.2</ele>
        <time>2020-06-15T13:58:49Z</time>
      </trkpt>
      <trkpt lat="49.51171" lon="-1.29994">
        <ele>27.1</ele>
        <time>2020-06-15T13:58:50Z</time>
      </trkpt>
      <trkpt lat="49.51171" lon="-1.29984">
        <ele>27.1</ele>
        <time>2020-06-15T13:58:51Z</time>
      </trkpt>
      <trkpt lat="49.51171" lon="-1.29974">
        <ele>27.1</ele>
        <time>2020-06-15T13:58:52Z</time>
      </trkpt>
      <trkpt lat="49.51172" lon="-1.29963">
        <ele>27.1</ele>
        <time>2020-06-15T13:58:53Z</time>
      </trkpt>
      <trkpt lat="49.51172" lon="-1.29953">
        <ele>27.2</ele>
        <time>2020-06-15T13:58:54Z</time>
      </trkpt>
      <trkpt lat="49.51172" lon="-1.29943">
        <ele>27.2</ele>
        <time>2020-06-15T13:58:55Z</time>
      </trkpt>
      <trkpt lat="49.51172" lon="-1.29934">
        <ele>27.3</ele>
        <time>2020-06-15T13:58:56Z</time>
      </trkpt>
      <trkpt lat="49.51173" lon="-1.29925">
        <ele>27.4</ele>
        <time>2020-06-15T13:58:57Z</time>
      </trkpt>
      <trkpt lat="49.51174" lon="-1.29916">
        <ele>27.5</ele>
        <time>2020-06-15T13:58:58Z</time>
      </trkpt>
      <trkpt lat="49.51175" lon="-1.29907">
        <ele>27.6</ele>
        <time>2020-06-15T13:58:59Z</time>
      </trkpt>
      <trkpt lat="49.51176" lon="-1.29898">
        <ele>27.7</ele>
        <time>2020-06-15T13:59:00Z</time>
      </trkpt>
      <trkpt lat="49.51177" lon="-1.29889">
        <ele>27.8</ele>
        <time>2020-06-15T13:59:01Z</time>
      </trkpt>
      <trkpt lat="49.51179" lon="-1.29881">
        <ele>27.9</ele>
        <time>2020-06-15T13:59:02Z</time>
      </trkpt>
      <trkpt lat="49.5118" lon="-1.29872">
        <ele>27.9</ele>
        <time>2020-06-15T13:59:03Z</time>
      </trkpt>
      <trkpt lat="49.51181" lon="-1.29865">
        <ele>28</ele>
        <time>2020-06-15T13:59:04Z</time>
      </trkpt>
      <trkpt lat="49.51183" lon="-1.29858">
        <ele>28.1</ele>
        <time>2020-06-15T13:59:05Z</time>
      </trkpt>
      <trkpt lat="49.51185" lon="-1.29852">
        <ele>28.1</ele>
        <time>2020-06-15T13:59:06Z</time>
      </trkpt>
      <trkpt lat="49.51188" lon="-1.29846">
        <ele>28.2</ele>
        <time>2020-06-15T13:59:07Z</time>
      </trkpt>
      <trkpt lat="49.5119" lon="-1.29839">
        <ele>28.2</ele>
        <time>2020-06-15T13:59:08Z</time>
      </trkpt>
      <trkpt lat="49.51192" lon="-1.29833">
        <ele>28.3</ele>
        <time>2020-06-15T13:59:09Z</time>
      </trkpt>
      <trkpt lat="49.51194" lon="-1.29827">
        <ele>28.3</ele>
        <time>2020-06-15T13:59:10Z</time>
      </trkpt>
      <trkpt lat="49.51196" lon="-1.29821">
        <ele>28.3</ele>
        <time>2020-06-15T13:59:11Z</time>
      </trkpt>
      <trkpt lat="49.51198" lon="-1.29815">
        <ele>28.3</ele>
        <time>2020-06-15T13:59:12Z</time>
      </trkpt>
      <trkpt lat="49.51199" lon="-1.29809">
        <ele>28.3</ele>
        <time>2020-06-15T13:59:13Z</time>
      </trkpt>
      <trkpt lat="49.51202" lon="-1.29803">
        <ele>28.3</ele>
        <time>2020-06-15T13:59:14Z</time>
      </trkpt>
      <trkpt lat="49.51204" lon="-1.29799">
        <ele>28.2</ele>
        <time>2020-06-15T13:59:15Z</time>
      </trkpt>
      <trkpt lat="49.51206" lon="-1.29794">
        <ele>28.2</ele>
        <time>2020-06-15T13:59:16Z</time>
      </trkpt>
      <trkpt lat="49.51208" lon="-1.2979">
        <ele>28.1</ele>
        <time>2020-06-15T13:59:17Z</time>
      </trkpt>
      <trkpt lat="49.5121" lon="-1.29786">
        <ele>28.1</ele>
        <time>2020-06-15T13:59:18Z</time>
      </trkpt>
      <trkpt lat="49.51212" lon="-1.29781">
        <ele>28</ele>
        <time>2020-06-15T13:59:19Z</time>
      </trkpt>
      <trkpt lat="49.51214" lon="-1.29776">
        <ele>28</ele>
        <time>2020-06-15T13:59:20Z</time>
      </trkpt>
      <trkpt lat="49.51216" lon="-1.29771">
        <ele>27.9</ele>
        <time>2020-06-15T13:59:21Z</time>
      </trkpt>
      <trkpt lat="49.51217" lon="-1.29765">
        <ele>27.8</ele>
        <time>2020-06-15T13:59:22Z</time>
      </trkpt>
      <trkpt lat="49.51217" lon="-1.2976">
        <ele>27.7</ele>
        <time>2020-06-15T13:59:23Z</time>
      </trkpt>
      <trkpt lat="49.51218" lon="-1.29754">
        <ele>27.5</ele>
        <time>2020-06-15T13:59:24Z</time>
      </trkpt>
      <trkpt lat="49.51219" lon="-1.29749">
        <ele>27.4</ele>
        <time>2020-06-15T13:59:25Z</time>
      </trkpt>
      <trkpt lat="49.51221" lon="-1.29746">
        <ele>27.2</ele>
        <time>2020-06-15T13:59:26Z</time>
      </trkpt>
      <trkpt lat="49.51221" lon="-1.29744">
        <ele>27.2</ele>
        <time>2020-06-15T13:59:27Z</time>
      </trkpt>
      <trkpt lat="49.51223" lon="-1.29743">
        <ele>27.2</ele>
        <time>2020-06-15T13:59:28Z</time>
      </trkpt>
      <trkpt lat="49.51223" lon="-1.29741">
        <ele>27.1</ele>
        <time>2020-06-15T13:59:29Z</time>
      </trkpt>
      <trkpt lat="49.51223" lon="-1.29738">
        <ele>27.1</ele>
        <time>2020-06-15T13:59:30Z</time>
      </trkpt>
      <trkpt lat="49.51223" lon="-1.29736">
        <ele>27</ele>
        <time>2020-06-15T13:59:31Z</time>
      </trkpt>
      <trkpt lat="49.51223" lon="-1.29735">
        <ele>27</ele>
        <time>2020-06-15T13:59:32Z</time>
      </trkpt>
      <trkpt lat="49.51223" lon="-1.29734">
        <ele>27</ele>
        <time>2020-06-15T13:59:33Z</time>
      </trkpt>
      <trkpt lat="49.51222" lon="-1.29732">
        <ele>26.9</ele>
        <time>2020-06-15T13:59:34Z</time>
      </trkpt>
      <trkpt lat="49.51222" lon="-1.29731">
        <ele>26.9</ele>
        <time>2020-06-15T13:59:35Z</time>
      </trkpt>
      <trkpt lat="49.51222" lon="-1.2973">
        <ele>26.9</ele>
        <time>2020-06-15T13:59:36Z</time>
      </trkpt>
      <trkpt lat="49.51222" lon="-1.29729">
        <ele>26.8</ele>
        <time>2020-06-15T13:59:37Z</time>
      </trkpt>
      <trkpt lat="49.51222" lon="-1.29727">
        <ele>26.8</ele>
        <time>2020-06-15T13:59:38Z</time>
      </trkpt>
      <trkpt lat="49.51222" lon="-1.29726">
        <ele>26.8</ele>
        <time>2020-06-15T13:59:39Z</time>
      </trkpt>
      <trkpt lat="49.51221" lon="-1.29725">
        <ele>26.7</ele>
        <time>2020-06-15T13:59:40Z</time>
      </trkpt>
      <trkpt lat="49.51221" lon="-1.29723">
        <ele>26.7</ele>
        <time>2020-06-15T13:59:41Z</time>
      </trkpt>
      <trkpt lat="49.51221" lon="-1.29722">
        <ele>26.7</ele>
        <time>2020-06-15T13:59:42Z</time>
      </trkpt>
      <trkpt lat="49.51221" lon="-1.29721">
        <ele>26.6</ele>
        <time>2020-06-15T13:59:43Z</time>
      </trkpt>
      <trkpt lat="49.51221" lon="-1.2972">
        <ele>26.6</ele>
        <time>2020-06-15T14:04:08Z</time>
      </trkpt>
      <trkpt lat="49.51221" lon="-1.29718">
        <ele>26.5</ele>
        <time>2020-06-15T14:04:09Z</time>
      </trkpt>
      <trkpt lat="49.5122" lon="-1.29717">
        <ele>26.5</ele>
        <time>2020-06-15T14:04:10Z</time>
      </trkpt>
      <trkpt lat="49.5122" lon="-1.29711">
        <ele>26.3</ele>
        <time>2020-06-15T14:04:11Z</time>
      </trkpt>
      <trkpt lat="49.5122" lon="-1.29708">
        <ele>26.2</ele>
        <time>2020-06-15T14:04:12Z</time>
      </trkpt>
      <trkpt lat="49.51219" lon="-1.29703">
        <ele>26.1</ele>
        <time>2020-06-15T14:04:13Z</time>
      </trkpt>
      <trkpt lat="49.51219" lon="-1.29701">
        <ele>26</ele>
        <time>2020-06-15T14:04:14Z</time>
      </trkpt>
      <trkpt lat="49.51219" lon="-1.29697">
        <ele>25.9</ele>
        <time>2020-06-15T14:04:15Z</time>
      </trkpt>
      <trkpt lat="49.51218" lon="-1.29693">
        <ele>25.7</ele>
        <time>2020-06-15T14:04:16Z</time>
      </trkpt>
      <trkpt lat="49.51217" lon="-1.29688">
        <ele>25.5</ele>
        <time>2020-06-15T14:04:17Z</time>
      </trkpt>
      <trkpt lat="49.51217" lon="-1.29684">
        <ele>25.4</ele>
        <time>2020-06-15T14:04:18Z</time>
      </trkpt>
      <trkpt lat="49.51217" lon="-1.29677">
        <ele>25.1</ele>
        <time>2020-06-15T14:04:19Z</time>
      </trkpt>
      <trkpt lat="49.51215" lon="-1.29672">
        <ele>24.9</ele>
        <time>2020-06-15T14:04:20Z</time>
      </trkpt>
      <trkpt lat="49.51216" lon="-1.29666">
        <ele>24.7</ele>
        <time>2020-06-15T14:04:21Z</time>
      </trkpt>
      <trkpt lat="49.51216" lon="-1.2966">
        <ele>24.5</ele>
        <time>2020-06-15T14:04:22Z</time>
      </trkpt>
      <trkpt lat="49.51216" lon="-1.29653">
        <ele>24.3</ele>
        <time>2020-06-15T14:04:23Z</time>
      </trkpt>
      <trkpt lat="49.51217" lon="-1.29647">
        <ele>24</ele>
        <time>2020-06-15T14:04:24Z</time>
      </trkpt>
      <trkpt lat="49.51216" lon="-1.29641">
        <ele>23.8</ele>
        <time>2020-06-15T14:04:25Z</time>
      </trkpt>
      <trkpt lat="49.51215" lon="-1.29635">
        <ele>23.6</ele>
        <time>2020-06-15T14:04:26Z</time>
      </trkpt>
      <trkpt lat="49.51214" lon="-1.29629">
        <ele>23.3</ele>
        <time>2020-06-15T14:04:27Z</time>
      </trkpt>
      <trkpt lat="49.51214" lon="-1.29623">
        <ele>23.1</ele>
        <time>2020-06-15T14:04:28Z</time>
      </trkpt>
      <trkpt lat="49.51213" lon="-1.29617">
        <ele>22.9</ele>
        <time>2020-06-15T14:04:29Z</time>
      </trkpt>
      <trkpt lat="49.51212" lon="-1.29611">
        <ele>22.6</ele>
        <time>2020-06-15T14:04:30Z</time>
      </trkpt>
      <trkpt lat="49.51211" lon="-1.29605">
        <ele>22.4</ele>
        <time>2020-06-15T14:04:31Z</time>
      </trkpt>
      <trkpt lat="49.51211" lon="-1.29599">
        <ele>22.2</ele>
        <time>2020-06-15T14:04:32Z</time>
      </trkpt>
      <trkpt lat="49.51211" lon="-1.29593">
        <ele>22</ele>
        <time>2020-06-15T14:04:33Z</time>
      </trkpt>
      <trkpt lat="49.51209" lon="-1.29586">
        <ele>21.7</ele>
        <time>2020-06-15T14:04:34Z</time>
      </trkpt>
      <trkpt lat="49.51209" lon="-1.29579">
        <ele>21.4</ele>
        <time>2020-06-15T14:04:35Z</time>
      </trkpt>
      <trkpt lat="49.51208" lon="-1.29571">
        <ele>21.1</ele>
        <time>2020-06-15T14:04:36Z</time>
      </trkpt>
      <trkpt lat="49.51207" lon="-1.29562">
        <ele>20.7</ele>
        <time>2020-06-15T14:04:37Z</time>
      </trkpt>
      <trkpt lat="49.51207" lon="-1.29554">
        <ele>20.4</ele>
        <time>2020-06-15T14:04:38Z</time>
      </trkpt>
      <trkpt lat="49.51207" lon="-1.29545">
        <ele>20.1</ele>
        <time>2020-06-15T14:04:39Z</time>
      </trkpt>
      <trkpt lat="49.51207" lon="-1.29536">
        <ele>19.8</ele>
        <time>2020-06-15T14:04:40Z</time>
      </trkpt>
      <trkpt lat="49.51206" lon="-1.29527">
        <ele>19.4</ele>
        <time>2020-06-15T14:04:41Z</time>
      </trkpt>
      <trkpt lat="49.51206" lon="-1.29516">
        <ele>19.1</ele>
        <time>2020-06-15T14:04:42Z</time>
      </trkpt>
      <trkpt lat="49.51206" lon="-1.29507">
        <ele>18.8</ele>
        <time>2020-06-15T14:04:43Z</time>
      </trkpt>
      <trkpt lat="49.51206" lon="-1.29497">
        <ele>18.5</ele>
        <time>2020-06-15T14:04:44Z</time>
      </trkpt>
      <trkpt lat="49.51206" lon="-1.29486">
        <ele>18.1</ele>
        <time>2020-06-15T14:04:45Z</time>
      </trkpt>
      <trkpt lat="49.51205" lon="-1.29476">
        <ele>17.8</ele>
        <time>2020-06-15T14:04:46Z</time>
      </trkpt>
      <trkpt lat="49.51205" lon="-1.29464">
        <ele>17.4</ele>
        <time>2020-06-15T14:04:47Z</time>
      </trkpt>
      <trkpt lat="49.51204" lon="-1.29454">
        <ele>17</ele>
        <time>2020-06-15T14:04:48Z</time>
      </trkpt>
      <trkpt lat="49.51203" lon="-1.29442">
        <ele>16.7</ele>
        <time>2020-06-15T14:04:49Z</time>
      </trkpt>
      <trkpt lat="49.51203" lon="-1.2943">
        <ele>16.3</ele>
        <time>2020-06-15T14:04:50Z</time>
      </trkpt>
      <trkpt lat="49.51203" lon="-1.29419">
        <ele>16.1</ele>
        <time>2020-06-15T14:04:51Z</time>
      </trkpt>
      <trkpt lat="49.51203" lon="-1.29408">
        <ele>15.8</ele>
        <time>2020-06-15T14:04:52Z</time>
      </trkpt>
      <trkpt lat="49.51203" lon="-1.29397">
        <ele>15.6</ele>
        <time>2020-06-15T14:04:53Z</time>
      </trkpt>
      <trkpt lat="49.51204" lon="-1.29387">
        <ele>15.4</ele>
        <time>2020-06-15T14:04:54Z</time>
      </trkpt>
      <trkpt lat="49.51205" lon="-1.29377">
        <ele>15.2</ele>
        <time>2020-06-15T14:04:55Z</time>
      </trkpt>
      <trkpt lat="49.51206" lon="-1.29366">
        <ele>14.9</ele>
        <time>2020-06-15T14:04:56Z</time>
      </trkpt>
      <trkpt lat="49.51207" lon="-1.29356">
        <ele>14.8</ele>
        <time>2020-06-15T14:04:57Z</time>
      </trkpt>
      <trkpt lat="49.51208" lon="-1.29346">
        <ele>14.6</ele>
        <time>2020-06-15T14:04:58Z</time>
      </trkpt>
      <trkpt lat="49.5121" lon="-1.29336">
        <ele>14.4</ele>
        <time>2020-06-15T14:04:59Z</time>
      </trkpt>
      <trkpt lat="49.51211" lon="-1.29327">
        <ele>14.3</ele>
        <time>2020-06-15T14:05:00Z</time>
      </trkpt>
      <trkpt lat="49.51212" lon="-1.29317">
        <ele>14.1</ele>
        <time>2020-06-15T14:05:01Z</time>
      </trkpt>
      <trkpt lat="49.51213" lon="-1.29308">
        <ele>14</ele>
        <time>2020-06-15T14:05:02Z</time>
      </trkpt>
      <trkpt lat="49.51215" lon="-1.29299">
        <ele>13.8</ele>
        <time>2020-06-15T14:05:03Z</time>
      </trkpt>
      <trkpt lat="49.51218" lon="-1.29291">
        <ele>13.7</ele>
        <time>2020-06-15T14:05:04Z</time>
      </trkpt>
      <trkpt lat="49.51219" lon="-1.29283">
        <ele>13.5</ele>
        <time>2020-06-15T14:05:05Z</time>
      </trkpt>
      <trkpt lat="49.51221" lon="-1.29274">
        <ele>13.3</ele>
        <time>2020-06-15T14:05:06Z</time>
      </trkpt>
      <trkpt lat="49.51223" lon="-1.29265">
        <ele>13.2</ele>
        <time>2020-06-15T14:05:07Z</time>
      </trkpt>
      <trkpt lat="49.51225" lon="-1.29257">
        <ele>13</ele>
        <time>2020-06-15T14:05:08Z</time>
      </trkpt>
      <trkpt lat="49.51227" lon="-1.29248">
        <ele>12.8</ele>
        <time>2020-06-15T14:05:09Z</time>
      </trkpt>
      <trkpt lat="49.51229" lon="-1.2924">
        <ele>12.7</ele>
        <time>2020-06-15T14:05:10Z</time>
      </trkpt>
      <trkpt lat="49.51231" lon="-1.29231">
        <ele>12.5</ele>
        <time>2020-06-15T14:05:11Z</time>
      </trkpt>
      <trkpt lat="49.51232" lon="-1.29222">
        <ele>12.3</ele>
        <time>2020-06-15T14:05:12Z</time>
      </trkpt>
      <trkpt lat="49.51235" lon="-1.29214">
        <ele>12.1</ele>
        <time>2020-06-15T14:05:13Z</time>
      </trkpt>
      <trkpt lat="49.51237" lon="-1.29205">
        <ele>11.9</ele>
        <time>2020-06-15T14:05:14Z</time>
      </trkpt>
      <trkpt lat="49.51239" lon="-1.29197">
        <ele>11.7</ele>
        <time>2020-06-15T14:05:15Z</time>
      </trkpt>
      <trkpt lat="49.51242" lon="-1.29188">
        <ele>11.5</ele>
        <time>2020-06-15T14:05:16Z</time>
      </trkpt>
      <trkpt lat="49.51243" lon="-1.29179">
        <ele>11.3</ele>
        <time>2020-06-15T14:05:17Z</time>
      </trkpt>
      <trkpt lat="49.51245" lon="-1.2917">
        <ele>11</ele>
        <time>2020-06-15T14:05:18Z</time>
      </trkpt>
      <trkpt lat="49.51247" lon="-1.29162">
        <ele>10.8</ele>
        <time>2020-06-15T14:05:19Z</time>
      </trkpt>
      <trkpt lat="49.51249" lon="-1.29153">
        <ele>10.6</ele>
        <time>2020-06-15T14:05:20Z</time>
      </trkpt>
      <trkpt lat="49.51251" lon="-1.29144">
        <ele>10.3</ele>
        <time>2020-06-15T14:05:21Z</time>
      </trkpt>
      <trkpt lat="49.51254" lon="-1.29136">
        <ele>10.1</ele>
        <time>2020-06-15T14:05:22Z</time>
      </trkpt>
      <trkpt lat="49.51257" lon="-1.29127">
        <ele>9.8</ele>
        <time>2020-06-15T14:05:23Z</time>
      </trkpt>
      <trkpt lat="49.5126" lon="-1.29118">
        <ele>9.5</ele>
        <time>2020-06-15T14:05:24Z</time>
      </trkpt>
      <trkpt lat="49.51263" lon="-1.29109">
        <ele>9</ele>
        <time>2020-06-15T14:05:25Z</time>
      </trkpt>
      <trkpt lat="49.51266" lon="-1.291">
        <ele>8.8</ele>
        <time>2020-06-15T14:05:26Z</time>
      </trkpt>
      <trkpt lat="49.51266" lon="-1.29089">
        <ele>8.5</ele>
        <time>2020-06-15T14:05:27Z</time>
      </trkpt>
      <trkpt lat="49.51269" lon="-1.29081">
        <ele>8.2</ele>
        <time>2020-06-15T14:05:28Z</time>
      </trkpt>
      <trkpt lat="49.5127" lon="-1.29073">
        <ele>8</ele>
        <time>2020-06-15T14:05:29Z</time>
      </trkpt>
      <trkpt lat="49.51272" lon="-1.29065">
        <ele>7.7</ele>
        <time>2020-06-15T14:05:30Z</time>
      </trkpt>
      <trkpt lat="49.51273" lon="-1.29057">
        <ele>7.5</ele>
        <time>2020-06-15T14:05:31Z</time>
      </trkpt>
      <trkpt lat="49.51274" lon="-1.29049">
        <ele>7.3</ele>
        <time>2020-06-15T14:05:32Z</time>
      </trkpt>
      <trkpt lat="49.51274" lon="-1.29041">
        <ele>7.1</ele>
        <time>2020-06-15T14:05:33Z</time>
      </trkpt>
      <trkpt lat="49.51276" lon="-1.29033">
        <ele>6.8</ele>
        <time>2020-06-15T14:05:34Z</time>
      </trkpt>
      <trkpt lat="49.51278" lon="-1.29025">
        <ele>6.6</ele>
        <time>2020-06-15T14:05:35Z</time>
      </trkpt>
      <trkpt lat="49.51282" lon="-1.29018">
        <ele>6.3</ele>
        <time>2020-06-15T14:05:36Z</time>
      </trkpt>
      <trkpt lat="49.51286" lon="-1.29012">
        <ele>6.1</ele>
        <time>2020-06-15T14:05:37Z</time>
      </trkpt>
      <trkpt lat="49.51291" lon="-1.29006">
        <ele>5.8</ele>
        <time>2020-06-15T14:05:38Z</time>
      </trkpt>
      <trkpt lat="49.51295" lon="-1.28999">
        <ele>5.6</ele>
        <time>2020-06-15T14:05:39Z</time>
      </trkpt>
      <trkpt lat="49.51299" lon="-1.2899">
        <ele>5.3</ele>
        <time>2020-06-15T14:05:40Z</time>
      </trkpt>
      <trkpt lat="49.51303" lon="-1.28984">
        <ele>5</ele>
        <time>2020-06-15T14:05:41Z</time>
      </trkpt>
      <trkpt lat="49.51308" lon="-1.28978">
        <ele>4.8</ele>
        <time>2020-06-15T14:05:42Z</time>
      </trkpt>
      <trkpt lat="49.51313" lon="-1.28973">
        <ele>4.6</ele>
        <time>2020-06-15T14:05:43Z</time>
      </trkpt>
      <trkpt lat="49.51318" lon="-1.28968">
        <ele>4.4</ele>
        <time>2020-06-15T14:05:44Z</time>
      </trkpt>
      <trkpt lat="49.51323" lon="-1.28965">
        <ele>4.2</ele>
        <time>2020-06-15T14:05:45Z</time>
      </trkpt>
      <trkpt lat="49.51328" lon="-1.2896">
        <ele>3.9</ele>
        <time>2020-06-15T14:05:46Z</time>
      </trkpt>
      <trkpt lat="49.51334" lon="-1.28957">
        <ele>3.8</ele>
        <time>2020-06-15T14:05:47Z</time>
      </trkpt>
      <trkpt lat="49.5134" lon="-1.28955">
        <ele>3.7</ele>
        <time>2020-06-15T14:05:48Z</time>
      </trkpt>
      <trkpt lat="49.51347" lon="-1.28955">
        <ele>3.7</ele>
        <time>2020-06-15T14:05:49Z</time>
      </trkpt>
      <trkpt lat="49.51353" lon="-1.28954">
        <ele>3.7</ele>
        <time>2020-06-15T14:05:50Z</time>
      </trkpt>
      <trkpt lat="49.51359" lon="-1.28954">
        <ele>3.4</ele>
        <time>2020-06-15T14:05:51Z</time>
      </trkpt>
      <trkpt lat="49.51366" lon="-1.28954">
        <ele>3.2</ele>
        <time>2020-06-15T14:05:52Z</time>
      </trkpt>
      <trkpt lat="49.51372" lon="-1.28954">
        <ele>3</ele>
        <time>2020-06-15T14:05:53Z</time>
      </trkpt>
      <trkpt lat="49.51378" lon="-1.28955">
        <ele>2.9</ele>
        <time>2020-06-15T14:05:54Z</time>
      </trkpt>
      <trkpt lat="49.51383" lon="-1.28955">
        <ele>2.8</ele>
        <time>2020-06-15T14:05:55Z</time>
      </trkpt>
      <trkpt lat="49.51387" lon="-1.28955">
        <ele>2.8</ele>
        <time>2020-06-15T14:05:56Z</time>
      </trkpt>
      <trkpt lat="49.51391" lon="-1.28954">
        <ele>2.7</ele>
        <time>2020-06-15T14:05:57Z</time>
      </trkpt>
      <trkpt lat="49.51395" lon="-1.28954">
        <ele>2.7</ele>
        <time>2020-06-15T14:05:58Z</time>
      </trkpt>
      <trkpt lat="49.51399" lon="-1.28954">
        <ele>2.7</ele>
        <time>2020-06-15T14:05:59Z</time>
      </trkpt>
      <trkpt lat="49.51402" lon="-1.28954">
        <ele>2.7</ele>
        <time>2020-06-15T14:06:00Z</time>
      </trkpt>
      <trkpt lat="49.51405" lon="-1.28953">
        <ele>2.7</ele>
        <time>2020-06-15T14:06:01Z</time>
      </trkpt>
      <trkpt lat="49.51408" lon="-1.28953">
        <ele>2.7</ele>
        <time>2020-06-15T14:06:02Z</time>
      </trkpt>
      <trkpt lat="49.51412" lon="-1.28953">
        <ele>2.7</ele>
        <time>2020-06-15T14:06:03Z</time>
      </trkpt>
      <trkpt lat="49.51413" lon="-1.28954">
        <ele>2.7</ele>
        <time>2020-06-15T14:06:04Z</time>
      </trkpt>
      <trkpt lat="49.51416" lon="-1.28955">
        <ele>2.7</ele>
        <time>2020-06-15T14:06:05Z</time>
      </trkpt>
      <trkpt lat="49.5142" lon="-1.28956">
        <ele>2.7</ele>
        <time>2020-06-15T14:06:06Z</time>
      </trkpt>
      <trkpt lat="49.51421" lon="-1.28956">
        <ele>2.7</ele>
        <time>2020-06-15T14:06:07Z</time>
      </trkpt>
      <trkpt lat="49.51424" lon="-1.28954">
        <ele>2.7</ele>
        <time>2020-06-15T14:06:08Z</time>
      </trkpt>
      <trkpt lat="49.51425" lon="-1.28953">
        <ele>2.7</ele>
        <time>2020-06-15T14:06:09Z</time>
      </trkpt>
      <trkpt lat="49.51426" lon="-1.28951">
        <ele>2.7</ele>
        <time>2020-06-15T14:06:10Z</time>
      </trkpt>
      <trkpt lat="49.51428" lon="-1.28952">
        <ele>2.7</ele>
        <time>2020-06-15T14:06:11Z</time>
      </trkpt>
      <trkpt lat="49.51428" lon="-1.28953">
        <ele>2.7</ele>
        <time>2020-06-15T14:06:12Z</time>
      </trkpt>
      <trkpt lat="49.51429" lon="-1.28952">
        <ele>2.7</ele>
        <time>2020-06-15T14:06:13Z</time>
      </trkpt>
      <trkpt lat="49.5143" lon="-1.28953">
        <ele>2.7</ele>
        <time>2020-06-15T14:06:14Z</time>
      </trkpt>
      <trkpt lat="49.5143" lon="-1.28955">
        <ele>2.7</ele>
        <time>2020-06-15T14:06:15Z</time>
      </trkpt>
      <trkpt lat="49.5143" lon="-1.28956">
        <ele>2.7</ele>
        <time>2020-06-15T14:06:16Z</time>
      </trkpt>
      <trkpt lat="49.51431" lon="-1.28957">
        <ele>2.7</ele>
        <time>2020-06-15T14:06:17Z</time>
      </trkpt>
      <trkpt lat="49.51431" lon="-1.28958">
        <ele>2.7</ele>
        <time>2020-06-15T14:06:18Z</time>
      </trkpt>
      <trkpt lat="49.5143" lon="-1.28959">
        <ele>2.7</ele>
        <time>2020-06-15T14:06:19Z</time>
      </trkpt>
      <trkpt lat="49.5143" lon="-1.2896">
        <ele>2.7</ele>
        <time>2020-06-15T14:06:20Z</time>
      </trkpt>
      <trkpt lat="49.51431" lon="-1.28961">
        <ele>2.7</ele>
        <time>2020-06-15T14:06:21Z</time>
      </trkpt>
      <trkpt lat="49.51431" lon="-1.28961">
        <ele>2.7</ele>
        <time>2020-06-15T14:06:22Z</time>
      </trkpt>
      <trkpt lat="49.51431" lon="-1.28962">
        <ele>2.7</ele>
        <time>2020-06-15T14:06:23Z</time>
      </trkpt>
      <trkpt lat="49.51431" lon="-1.28961">
        <ele>2.7</ele>
        <time>2020-06-15T14:06:24Z</time>
      </trkpt>
      <trkpt lat="49.51431" lon="-1.28961">
        <ele>2.7</ele>
        <time>2020-06-15T14:06:25Z</time>
      </trkpt>
      <trkpt lat="49.51431" lon="-1.2896">
        <ele>2.7</ele>
        <time>2020-06-15T14:06:26Z</time>
      </trkpt>
      <trkpt lat="49.51431" lon="-1.28959">
        <ele>2.7</ele>
        <time>2020-06-15T14:06:27Z</time>
      </trkpt>
      <trkpt lat="49.51435" lon="-1.28959">
        <ele>2.7</ele>
        <time>2020-06-15T14:06:40Z</time>
      </trkpt>
      <trkpt lat="49.51435" lon="-1.2896">
        <ele>2.7</ele>
        <time>2020-06-15T14:06:41Z</time>
      </trkpt>
      <trkpt lat="49.51436" lon="-1.2896">
        <ele>2.7</ele>
        <time>2020-06-15T14:06:42Z</time>
      </trkpt>
      <trkpt lat="49.51436" lon="-1.2896">
        <ele>2.7</ele>
        <time>2020-06-15T14:06:43Z</time>
      </trkpt>
      <trkpt lat="49.51436" lon="-1.28961">
        <ele>2.7</ele>
        <time>2020-06-15T14:06:44Z</time>
      </trkpt>
      <trkpt lat="49.51435" lon="-1.28963">
        <ele>2.7</ele>
        <time>2020-06-15T14:06:45Z</time>
      </trkpt>
      <trkpt lat="49.51432" lon="-1.28965">
        <ele>2.7</ele>
        <time>2020-06-15T14:06:46Z</time>
      </trkpt>
      <trkpt lat="49.51429" lon="-1.28966">
        <ele>2.7</ele>
        <time>2020-06-15T14:06:47Z</time>
      </trkpt>
      <trkpt lat="49.51426" lon="-1.28968">
        <ele>2.7</ele>
        <time>2020-06-15T14:06:48Z</time>
      </trkpt>
      <trkpt lat="49.51422" lon="-1.28969">
        <ele>2.7</ele>
        <time>2020-06-15T14:06:49Z</time>
      </trkpt>
      <trkpt lat="49.51419" lon="-1.2897">
        <ele>2.7</ele>
        <time>2020-06-15T14:06:50Z</time>
      </trkpt>
      <trkpt lat="49.51416" lon="-1.28971">
        <ele>2.7</ele>
        <time>2020-06-15T14:06:51Z</time>
      </trkpt>
      <trkpt lat="49.51413" lon="-1.28972">
        <ele>2.7</ele>
        <time>2020-06-15T14:06:52Z</time>
      </trkpt>
      <trkpt lat="49.51409" lon="-1.28973">
        <ele>2.7</ele>
        <time>2020-06-15T14:06:53Z</time>
      </trkpt>
      <trkpt lat="49.51406" lon="-1.28975">
        <ele>2.7</ele>
        <time>2020-06-15T14:06:54Z</time>
      </trkpt>
      <trkpt lat="49.51403" lon="-1.28976">
        <ele>2.7</ele>
        <time>2020-06-15T14:06:55Z</time>
      </trkpt>
      <trkpt lat="49.514" lon="-1.28977">
        <ele>2.7</ele>
        <time>2020-06-15T14:06:56Z</time>
      </trkpt>
      <trkpt lat="49.51396" lon="-1.28978">
        <ele>2.7</ele>
        <time>2020-06-15T14:28:42Z</time>
      </trkpt>
      <trkpt lat="49.51393" lon="-1.28979">
        <ele>2.7</ele>
        <time>2020-06-15T14:28:43Z</time>
      </trkpt>
      <trkpt lat="49.5139" lon="-1.28981">
        <ele>2.7</ele>
        <time>2020-06-15T14:28:44Z</time>
      </trkpt>
      <trkpt lat="49.51386" lon="-1.28982">
        <ele>2.8</ele>
        <time>2020-06-15T14:28:45Z</time>
      </trkpt>
      <trkpt lat="49.51384" lon="-1.28984">
        <ele>2.8</ele>
        <time>2020-06-15T14:28:46Z</time>
      </trkpt>
      <trkpt lat="49.51383" lon="-1.28985">
        <ele>2.8</ele>
        <time>2020-06-15T14:28:47Z</time>
      </trkpt>
      <trkpt lat="49.51382" lon="-1.28986">
        <ele>2.9</ele>
        <time>2020-06-15T14:28:48Z</time>
      </trkpt>
      <trkpt lat="49.51382" lon="-1.28987">
        <ele>2.9</ele>
        <time>2020-06-15T14:28:49Z</time>
      </trkpt>
      <trkpt lat="49.51381" lon="-1.28987">
        <ele>2.9</ele>
        <time>2020-06-15T14:28:50Z</time>
      </trkpt>
      <trkpt lat="49.5138" lon="-1.28988">
        <ele>2.9</ele>
        <time>2020-06-15T14:28:51Z</time>
      </trkpt>
      <trkpt lat="49.51379" lon="-1.28988">
        <ele>2.9</ele>
        <time>2020-06-15T14:28:52Z</time>
      </trkpt>
      <trkpt lat="49.51379" lon="-1.28987">
        <ele>2.9</ele>
        <time>2020-06-15T14:28:53Z</time>
      </trkpt>
      <trkpt lat="49.51378" lon="-1.28987">
        <ele>2.9</ele>
        <time>2020-06-15T14:28:54Z</time>
      </trkpt>
      <trkpt lat="49.51377" lon="-1.28987">
        <ele>3</ele>
        <time>2020-06-15T14:28:55Z</time>
      </trkpt>
      <trkpt lat="49.51375" lon="-1.28988">
        <ele>3</ele>
        <time>2020-06-15T14:28:56Z</time>
      </trkpt>
      <trkpt lat="49.51374" lon="-1.28988">
        <ele>3</ele>
        <time>2020-06-15T14:28:57Z</time>
      </trkpt>
      <trkpt lat="49.51373" lon="-1.28988">
        <ele>3</ele>
        <time>2020-06-15T14:28:58Z</time>
      </trkpt>
      <trkpt lat="49.51372" lon="-1.28988">
        <ele>3</ele>
        <time>2020-06-15T14:28:59Z</time>
      </trkpt>
      <trkpt lat="49.51373" lon="-1.28988">
        <ele>3.1</ele>
        <time>2020-06-15T14:29:04Z</time>
      </trkpt>
      <trkpt lat="49.51373" lon="-1.28988">
        <ele>3.1</ele>
        <time>2020-06-15T14:29:05Z</time>
      </trkpt>
      <trkpt lat="49.51372" lon="-1.28988">
        <ele>3.1</ele>
        <time>2020-06-15T14:29:06Z</time>
      </trkpt>
      <trkpt lat="49.51372" lon="-1.28988">
        <ele>3.1</ele>
        <time>2020-06-15T14:29:07Z</time>
      </trkpt>
      <trkpt lat="49.51371" lon="-1.28989">
        <ele>3.1</ele>
        <time>2020-06-15T14:29:08Z</time>
      </trkpt>
      <trkpt lat="49.5137" lon="-1.28989">
        <ele>3.1</ele>
        <time>2020-06-15T14:29:09Z</time>
      </trkpt>
      <trkpt lat="49.51369" lon="-1.28989">
        <ele>3.2</ele>
        <time>2020-06-15T14:29:10Z</time>
      </trkpt>
      <trkpt lat="49.51369" lon="-1.28989">
        <ele>3.2</ele>
        <time>2020-06-15T14:29:11Z</time>
      </trkpt>
      <trkpt lat="49.51368" lon="-1.28989">
        <ele>3.2</ele>
        <time>2020-06-15T14:29:12Z</time>
      </trkpt>
      <trkpt lat="49.51367" lon="-1.28989">
        <ele>3.2</ele>
        <time>2020-06-15T14:29:13Z</time>
      </trkpt>
      <trkpt lat="49.51366" lon="-1.28989">
        <ele>3.2</ele>
        <time>2020-06-15T14:29:14Z</time>
      </trkpt>
      <trkpt lat="49.51365" lon="-1.28989">
        <ele>3.3</ele>
        <time>2020-06-15T14:29:15Z</time>
      </trkpt>
      <trkpt lat="49.51364" lon="-1.28989">
        <ele>3.3</ele>
        <time>2020-06-15T14:29:16Z</time>
      </trkpt>
      <trkpt lat="49.51363" lon="-1.2899">
        <ele>3.3</ele>
        <time>2020-06-15T14:29:17Z</time>
      </trkpt>
      <trkpt lat="49.5136" lon="-1.2899">
        <ele>3.4</ele>
        <time>2020-06-15T14:29:18Z</time>
      </trkpt>
      <trkpt lat="49.51359" lon="-1.2899">
        <ele>3.4</ele>
        <time>2020-06-15T14:29:19Z</time>
      </trkpt>
      <trkpt lat="49.51357" lon="-1.2899">
        <ele>3.5</ele>
        <time>2020-06-15T14:29:20Z</time>
      </trkpt>
      <trkpt lat="49.51356" lon="-1.2899">
        <ele>3.5</ele>
        <time>2020-06-15T14:29:21Z</time>
      </trkpt>
      <trkpt lat="49.51354" lon="-1.2899">
        <ele>3.5</ele>
        <time>2020-06-15T14:29:22Z</time>
      </trkpt>
      <trkpt lat="49.51352" lon="-1.28991">
        <ele>3.7</ele>
        <time>2020-06-15T14:29:23Z</time>
      </trkpt>
      <trkpt lat="49.5135" lon="-1.28993">
        <ele>3.7</ele>
        <time>2020-06-15T14:29:24Z</time>
      </trkpt>
      <trkpt lat="49.51349" lon="-1.28994">
        <ele>3.7</ele>
        <time>2020-06-15T14:29:25Z</time>
      </trkpt>
      <trkpt lat="49.51348" lon="-1.28994">
        <ele>3.7</ele>
        <time>2020-06-15T14:29:26Z</time>
      </trkpt>
      <trkpt lat="49.51346" lon="-1.28995">
        <ele>3.7</ele>
        <time>2020-06-15T14:29:27Z</time>
      </trkpt>
      <trkpt lat="49.51345" lon="-1.28995">
        <ele>3.7</ele>
        <time>2020-06-15T14:29:28Z</time>
      </trkpt>
      <trkpt lat="49.51344" lon="-1.28996">
        <ele>3.7</ele>
        <time>2020-06-15T14:29:29Z</time>
      </trkpt>
      <trkpt lat="49.51343" lon="-1.28996">
        <ele>3.7</ele>
        <time>2020-06-15T14:29:30Z</time>
      </trkpt>
      <trkpt lat="49.51342" lon="-1.28996">
        <ele>3.7</ele>
        <time>2020-06-15T14:29:31Z</time>
      </trkpt>
      <trkpt lat="49.51341" lon="-1.28997">
        <ele>3.7</ele>
        <time>2020-06-15T14:29:32Z</time>
      </trkpt>
      <trkpt lat="49.51339" lon="-1.28997">
        <ele>3.8</ele>
        <time>2020-06-15T14:29:33Z</time>
      </trkpt>
      <trkpt lat="49.51375" lon="-1.28978">
        <ele>3</ele>
        <time>2020-06-15T14:29:57Z</time>
      </trkpt>
      <trkpt lat="49.51377" lon="-1.28973">
        <ele>3</ele>
        <time>2020-06-15T14:29:58Z</time>
      </trkpt>
      <trkpt lat="49.51376" lon="-1.2897">
        <ele>2.9</ele>
        <time>2020-06-15T14:29:59Z</time>
      </trkpt>
      <trkpt lat="49.51376" lon="-1.28968">
        <ele>2.9</ele>
        <time>2020-06-15T14:30:00Z</time>
      </trkpt>
      <trkpt lat="49.51377" lon="-1.28968">
        <ele>2.9</ele>
        <time>2020-06-15T14:30:01Z</time>
      </trkpt>
      <trkpt lat="49.51377" lon="-1.28966">
        <ele>2.9</ele>
        <time>2020-06-15T14:30:02Z</time>
      </trkpt>
      <trkpt lat="49.51377" lon="-1.28967">
        <ele>2.9</ele>
        <time>2020-06-15T14:30:03Z</time>
      </trkpt>
      <trkpt lat="49.51378" lon="-1.28968">
        <ele>2.9</ele>
        <time>2020-06-15T14:30:04Z</time>
      </trkpt>
      <trkpt lat="49.51378" lon="-1.28969">
        <ele>2.9</ele>
        <time>2020-06-15T14:30:05Z</time>
      </trkpt>
      <trkpt lat="49.5138" lon="-1.28967">
        <ele>2.9</ele>
        <time>2020-06-15T14:30:06Z</time>
      </trkpt>
      <trkpt lat="49.51382" lon="-1.28969">
        <ele>2.9</ele>
        <time>2020-06-15T14:30:07Z</time>
      </trkpt>
      <trkpt lat="49.51383" lon="-1.28971">
        <ele>2.8</ele>
        <time>2020-06-15T14:30:08Z</time>
      </trkpt>
      <trkpt lat="49.51383" lon="-1.28972">
        <ele>2.8</ele>
        <time>2020-06-15T14:30:09Z</time>
      </trkpt>
      <trkpt lat="49.51384" lon="-1.28974">
        <ele>2.8</ele>
        <time>2020-06-15T14:30:10Z</time>
      </trkpt>
      <trkpt lat="49.51385" lon="-1.28976">
        <ele>2.8</ele>
        <time>2020-06-15T14:30:11Z</time>
      </trkpt>
      <trkpt lat="49.51386" lon="-1.28978">
        <ele>2.8</ele>
        <time>2020-06-15T14:30:12Z</time>
      </trkpt>
      <trkpt lat="49.51387" lon="-1.28979">
        <ele>2.8</ele>
        <time>2020-06-15T14:30:13Z</time>
      </trkpt>
      <trkpt lat="49.51388" lon="-1.28981">
        <ele>2.8</ele>
        <time>2020-06-15T14:30:14Z</time>
      </trkpt>
      <trkpt lat="49.51389" lon="-1.28983">
        <ele>2.7</ele>
        <time>2020-06-15T14:30:15Z</time>
      </trkpt>
      <trkpt lat="49.5139" lon="-1.28985">
        <ele>2.7</ele>
        <time>2020-06-15T14:30:16Z</time>
      </trkpt>
      <trkpt lat="49.51391" lon="-1.28987">
        <ele>2.7</ele>
        <time>2020-06-15T14:30:17Z</time>
      </trkpt>
      <trkpt lat="49.51392" lon="-1.28988">
        <ele>2.7</ele>
        <time>2020-06-15T14:30:18Z</time>
      </trkpt>
      <trkpt lat="49.51393" lon="-1.2899">
        <ele>2.7</ele>
        <time>2020-06-15T14:30:19Z</time>
      </trkpt>
      <trkpt lat="49.51393" lon="-1.28992">
        <ele>2.7</ele>
        <time>2020-06-15T14:30:20Z</time>
      </trkpt>
      <trkpt lat="49.51394" lon="-1.28994">
        <ele>2.7</ele>
        <time>2020-06-15T14:30:21Z</time>
      </trkpt>
      <trkpt lat="49.51395" lon="-1.28995">
        <ele>2.7</ele>
        <time>2020-06-15T14:31:13Z</time>
      </trkpt>
      <trkpt lat="49.51396" lon="-1.28997">
        <ele>2.7</ele>
        <time>2020-06-15T14:31:14Z</time>
      </trkpt>
      <trkpt lat="49.51397" lon="-1.28999">
        <ele>2.7</ele>
        <time>2020-06-15T14:31:15Z</time>
      </trkpt>
      <trkpt lat="49.51397" lon="-1.29">
        <ele>2.7</ele>
        <time>2020-06-15T14:31:16Z</time>
      </trkpt>
      <trkpt lat="49.51398" lon="-1.29002">
        <ele>2.7</ele>
        <time>2020-06-15T14:31:17Z</time>
      </trkpt>
      <trkpt lat="49.51398" lon="-1.29004">
        <ele>2.7</ele>
        <time>2020-06-15T14:31:18Z</time>
      </trkpt>
      <trkpt lat="49.51398" lon="-1.29007">
        <ele>2.7</ele>
        <time>2020-06-15T14:31:19Z</time>
      </trkpt>
      <trkpt lat="49.51399" lon="-1.29009">
        <ele>2.7</ele>
        <time>2020-06-15T14:31:20Z</time>
      </trkpt>
      <trkpt lat="49.514" lon="-1.29008">
        <ele>2.7</ele>
        <time>2020-06-15T14:31:21Z</time>
      </trkpt>
      <trkpt lat="49.514" lon="-1.29008">
        <ele>2.7</ele>
        <time>2020-06-15T14:31:22Z</time>
      </trkpt>
      <trkpt lat="49.514" lon="-1.29008">
        <ele>2.7</ele>
        <time>2020-06-15T14:31:23Z</time>
      </trkpt>
      <trkpt lat="49.51401" lon="-1.29008">
        <ele>2.7</ele>
        <time>2020-06-15T14:31:24Z</time>
      </trkpt>
      <trkpt lat="49.51401" lon="-1.29008">
        <ele>2.7</ele>
        <time>2020-06-15T14:31:25Z</time>
      </trkpt>
      <trkpt lat="49.51402" lon="-1.29009">
        <ele>2.7</ele>
        <time>2020-06-15T14:31:26Z</time>
      </trkpt>
      <trkpt lat="49.51403" lon="-1.2901">
        <ele>2.7</ele>
        <time>2020-06-15T14:31:27Z</time>
      </trkpt>
      <trkpt lat="49.51403" lon="-1.29011">
        <ele>2.7</ele>
        <time>2020-06-15T14:31:28Z</time>
      </trkpt>
      <trkpt lat="49.51404" lon="-1.29012">
        <ele>2.7</ele>
        <time>2020-06-15T14:31:29Z</time>
      </trkpt>
      <trkpt lat="49.51404" lon="-1.29014">
        <ele>2.7</ele>
        <time>2020-06-15T14:31:30Z</time>
      </trkpt>
      <trkpt lat="49.51404" lon="-1.29014">
        <ele>2.7</ele>
        <time>2020-06-15T14:31:31Z</time>
      </trkpt>
      <trkpt lat="49.51405" lon="-1.29014">
        <ele>2.7</ele>
        <time>2020-06-15T14:31:32Z</time>
      </trkpt>
      <trkpt lat="49.51405" lon="-1.29015">
        <ele>2.7</ele>
        <time>2020-06-15T14:31:33Z</time>
      </trkpt>
      <trkpt lat="49.51405" lon="-1.29015">
        <ele>2.7</ele>
        <time>2020-06-15T14:31:34Z</time>
      </trkpt>
      <trkpt lat="49.51405" lon="-1.29016">
        <ele>2.7</ele>
        <time>2020-06-15T14:31:35Z</time>
      </trkpt>
      <trkpt lat="49.51405" lon="-1.29016">
        <ele>2.7</ele>
        <time>2020-06-15T14:31:36Z</time>
      </trkpt>
      <trkpt lat="49.51405" lon="-1.29016">
        <ele>2.7</ele>
        <time>2020-06-15T14:31:37Z</time>
      </trkpt>
      <trkpt lat="49.51405" lon="-1.29017">
        <ele>2.7</ele>
        <time>2020-06-15T14:31:38Z</time>
      </trkpt>
      <trkpt lat="49.51406" lon="-1.29017">
        <ele>2.7</ele>
        <time>2020-06-15T14:31:39Z</time>
      </trkpt>
      <trkpt lat="49.51406" lon="-1.29018">
        <ele>2.7</ele>
        <time>2020-06-15T14:31:40Z</time>
      </trkpt>
      <trkpt lat="49.51406" lon="-1.29018">
        <ele>2.7</ele>
        <time>2020-06-15T14:31:41Z</time>
      </trkpt>
      <trkpt lat="49.51406" lon="-1.29018">
        <ele>2.7</ele>
        <time>2020-06-15T14:31:42Z</time>
      </trkpt>
      <trkpt lat="49.51406" lon="-1.29018">
        <ele>2.7</ele>
        <time>2020-06-15T14:31:43Z</time>
      </trkpt>
      <trkpt lat="49.51406" lon="-1.29038">
        <ele>2.7</ele>
        <time>2020-06-15T14:34:09Z</time>
      </trkpt>
      <trkpt lat="49.51406" lon="-1.2904">
        <ele>2.7</ele>
        <time>2020-06-15T14:34:10Z</time>
      </trkpt>
      <trkpt lat="49.51406" lon="-1.29042">
        <ele>2.7</ele>
        <time>2020-06-15T14:34:11Z</time>
      </trkpt>
      <trkpt lat="49.51406" lon="-1.29039">
        <ele>2.7</ele>
        <time>2020-06-15T14:34:12Z</time>
      </trkpt>
      <trkpt lat="49.51406" lon="-1.29038">
        <ele>2.7</ele>
        <time>2020-06-15T14:34:13Z</time>
      </trkpt>
      <trkpt lat="49.51406" lon="-1.29037">
        <ele>2.7</ele>
        <time>2020-06-15T14:34:14Z</time>
      </trkpt>
      <trkpt lat="49.51406" lon="-1.29036">
        <ele>2.7</ele>
        <time>2020-06-15T14:34:15Z</time>
      </trkpt>
      <trkpt lat="49.51406" lon="-1.29033">
        <ele>2.7</ele>
        <time>2020-06-15T14:34:16Z</time>
      </trkpt>
      <trkpt lat="49.51405" lon="-1.29031">
        <ele>2.7</ele>
        <time>2020-06-15T14:34:17Z</time>
      </trkpt>
      <trkpt lat="49.51405" lon="-1.2903">
        <ele>2.7</ele>
        <time>2020-06-15T14:34:18Z</time>
      </trkpt>
      <trkpt lat="49.51405" lon="-1.29029">
        <ele>2.7</ele>
        <time>2020-06-15T14:34:19Z</time>
      </trkpt>
      <trkpt lat="49.51404" lon="-1.29028">
        <ele>2.7</ele>
        <time>2020-06-15T14:34:20Z</time>
      </trkpt>
      <trkpt lat="49.51404" lon="-1.29026">
        <ele>2.7</ele>
        <time>2020-06-15T14:34:21Z</time>
      </trkpt>
      <trkpt lat="49.51404" lon="-1.29025">
        <ele>2.7</ele>
        <time>2020-06-15T14:34:22Z</time>
      </trkpt>
      <trkpt lat="49.51404" lon="-1.29025">
        <ele>2.7</ele>
        <time>2020-06-15T14:34:23Z</time>
      </trkpt>
      <trkpt lat="49.51405" lon="-1.29025">
        <ele>2.7</ele>
        <time>2020-06-15T14:34:24Z</time>
      </trkpt>
      <trkpt lat="49.51405" lon="-1.29025">
        <ele>2.7</ele>
        <time>2020-06-15T14:34:25Z</time>
      </trkpt>
      <trkpt lat="49.51405" lon="-1.29025">
        <ele>2.7</ele>
        <time>2020-06-15T14:34:26Z</time>
      </trkpt>
      <trkpt lat="49.51405" lon="-1.29025">
        <ele>2.7</ele>
        <time>2020-06-15T14:34:46Z</time>
      </trkpt>
      <trkpt lat="49.51406" lon="-1.29025">
        <ele>2.7</ele>
        <time>2020-06-15T14:34:47Z</time>
      </trkpt>
      <trkpt lat="49.51406" lon="-1.29026">
        <ele>2.7</ele>
        <time>2020-06-15T14:34:48Z</time>
      </trkpt>
      <trkpt lat="49.51406" lon="-1.29026">
        <ele>2.7</ele>
        <time>2020-06-15T14:34:49Z</time>
      </trkpt>
      <trkpt lat="49.51406" lon="-1.29026">
        <ele>2.7</ele>
        <time>2020-06-15T14:34:50Z</time>
      </trkpt>
      <trkpt lat="49.51407" lon="-1.29026">
        <ele>2.7</ele>
        <time>2020-06-15T14:34:51Z</time>
      </trkpt>
      <trkpt lat="49.51407" lon="-1.29026">
        <ele>2.7</ele>
        <time>2020-06-15T14:34:52Z</time>
      </trkpt>
      <trkpt lat="49.51407" lon="-1.29026">
        <ele>2.7</ele>
        <time>2020-06-15T14:34:53Z</time>
      </trkpt>
      <trkpt lat="49.51407" lon="-1.29026">
        <ele>2.7</ele>
        <time>2020-06-15T14:34:54Z</time>
      </trkpt>
      <trkpt lat="49.51407" lon="-1.29024">
        <ele>2.7</ele>
        <time>2020-06-15T14:34:55Z</time>
      </trkpt>
      <trkpt lat="49.51407" lon="-1.29022">
        <ele>2.7</ele>
        <time>2020-06-15T14:34:56Z</time>
      </trkpt>
      <trkpt lat="49.51408" lon="-1.29022">
        <ele>2.7</ele>
        <time>2020-06-15T14:34:57Z</time>
      </trkpt>
      <trkpt lat="49.51408" lon="-1.29021">
        <ele>2.7</ele>
        <time>2020-06-15T14:34:58Z</time>
      </trkpt>
      <trkpt lat="49.5141" lon="-1.29018">
        <ele>2.7</ele>
        <time>2020-06-15T14:34:59Z</time>
      </trkpt>
      <trkpt lat="49.51413" lon="-1.29017">
        <ele>2.7</ele>
        <time>2020-06-15T14:35:00Z</time>
      </trkpt>
      <trkpt lat="49.51413" lon="-1.29016">
        <ele>2.7</ele>
        <time>2020-06-15T14:35:01Z</time>
      </trkpt>
      <trkpt lat="49.51415" lon="-1.29014">
        <ele>2.7</ele>
        <time>2020-06-15T14:35:02Z</time>
      </trkpt>
      <trkpt lat="49.51415" lon="-1.29013">
        <ele>2.7</ele>
        <time>2020-06-15T14:35:03Z</time>
      </trkpt>
      <trkpt lat="49.51416" lon="-1.29012">
        <ele>2.7</ele>
        <time>2020-06-15T14:35:04Z</time>
      </trkpt>
      <trkpt lat="49.51415" lon="-1.29011">
        <ele>2.7</ele>
        <time>2020-06-15T14:35:05Z</time>
      </trkpt>
      <trkpt lat="49.51415" lon="-1.2901">
        <ele>2.7</ele>
        <time>2020-06-15T14:35:06Z</time>
      </trkpt>
      <trkpt lat="49.51416" lon="-1.29009">
        <ele>2.7</ele>
        <time>2020-06-15T14:35:07Z</time>
      </trkpt>
      <trkpt lat="49.51416" lon="-1.29008">
        <ele>2.7</ele>
        <time>2020-06-15T14:35:08Z</time>
      </trkpt>
      <trkpt lat="49.51416" lon="-1.29006">
        <ele>2.7</ele>
        <time>2020-06-15T14:35:09Z</time>
      </trkpt>
      <trkpt lat="49.51414" lon="-1.29006">
        <ele>2.7</ele>
        <time>2020-06-15T14:35:10Z</time>
      </trkpt>
      <trkpt lat="49.51413" lon="-1.29005">
        <ele>2.7</ele>
        <time>2020-06-15T14:35:11Z</time>
      </trkpt>
      <trkpt lat="49.51412" lon="-1.29005">
        <ele>2.7</ele>
        <time>2020-06-15T14:35:12Z</time>
      </trkpt>
      <trkpt lat="49.51414" lon="-1.29003">
        <ele>2.7</ele>
        <time>2020-06-15T14:35:13Z</time>
      </trkpt>
      <trkpt lat="49.51414" lon="-1.29001">
        <ele>2.7</ele>
        <time>2020-06-15T14:35:14Z</time>
      </trkpt>
      <trkpt lat="49.51415" lon="-1.29">
        <ele>2.7</ele>
        <time>2020-06-15T14:35:15Z</time>
      </trkpt>
      <trkpt lat="49.51416" lon="-1.28997">
        <ele>2.7</ele>
        <time>2020-06-15T14:35:16Z</time>
      </trkpt>
      <trkpt lat="49.51418" lon="-1.28993">
        <ele>2.7</ele>
        <time>2020-06-15T14:35:17Z</time>
      </trkpt>
      <trkpt lat="49.51419" lon="-1.2899">
        <ele>2.7</ele>
        <time>2020-06-15T14:35:18Z</time>
      </trkpt>
      <trkpt lat="49.5142" lon="-1.28986">
        <ele>2.8</ele>
        <time>2020-06-15T14:35:19Z</time>
      </trkpt>
      <trkpt lat="49.51422" lon="-1.28982">
        <ele>2.8</ele>
        <time>2020-06-15T14:35:20Z</time>
      </trkpt>
      <trkpt lat="49.51423" lon="-1.28979">
        <ele>2.8</ele>
        <time>2020-06-15T14:35:21Z</time>
      </trkpt>
      <trkpt lat="49.51424" lon="-1.28975">
        <ele>2.8</ele>
        <time>2020-06-15T14:35:22Z</time>
      </trkpt>
      <trkpt lat="49.51426" lon="-1.28972">
        <ele>2.8</ele>
        <time>2020-06-15T14:35:23Z</time>
      </trkpt>
      <trkpt lat="49.51427" lon="-1.28968">
        <ele>2.8</ele>
        <time>2020-06-15T14:35:24Z</time>
      </trkpt>
      <trkpt lat="49.51428" lon="-1.28965">
        <ele>2.8</ele>
        <time>2020-06-15T14:39:17Z</time>
      </trkpt>
      <trkpt lat="49.5143" lon="-1.28961">
        <ele>2.8</ele>
        <time>2020-06-15T14:39:18Z</time>
      </trkpt>
      <trkpt lat="49.51433" lon="-1.28959">
        <ele>2.9</ele>
        <time>2020-06-15T14:39:19Z</time>
      </trkpt>
      <trkpt lat="49.51434" lon="-1.28959">
        <ele>2.9</ele>
        <time>2020-06-15T14:39:20Z</time>
      </trkpt>
      <trkpt lat="49.51436" lon="-1.28956">
        <ele>2.9</ele>
        <time>2020-06-15T14:39:21Z</time>
      </trkpt>
      <trkpt lat="49.51438" lon="-1.28953">
        <ele>2.9</ele>
        <time>2020-06-15T14:39:22Z</time>
      </trkpt>
      <trkpt lat="49.5144" lon="-1.28949">
        <ele>2.9</ele>
        <time>2020-06-15T14:39:23Z</time>
      </trkpt>
      <trkpt lat="49.51441" lon="-1.28948">
        <ele>2.9</ele>
        <time>2020-06-15T14:39:24Z</time>
      </trkpt>
      <trkpt lat="49.51443" lon="-1.28945">
        <ele>2.9</ele>
        <time>2020-06-15T14:39:25Z</time>
      </trkpt>
      <trkpt lat="49.51445" lon="-1.28941">
        <ele>3</ele>
        <time>2020-06-15T14:39:26Z</time>
      </trkpt>
      <trkpt lat="49.51449" lon="-1.28938">
        <ele>3.2</ele>
        <time>2020-06-15T14:39:27Z</time>
      </trkpt>
      <trkpt lat="49.5145" lon="-1.28933">
        <ele>3.1</ele>
        <time>2020-06-15T14:39:28Z</time>
      </trkpt>
      <trkpt lat="49.51451" lon="-1.28928">
        <ele>3.1</ele>
        <time>2020-06-15T14:39:29Z</time>
      </trkpt>
      <trkpt lat="49.51453" lon="-1.28923">
        <ele>3.1</ele>
        <time>2020-06-15T14:39:30Z</time>
      </trkpt>
      <trkpt lat="49.51454" lon="-1.28918">
        <ele>3.1</ele>
        <time>2020-06-15T14:39:31Z</time>
      </trkpt>
      <trkpt lat="49.51455" lon="-1.28913">
        <ele>3</ele>
        <time>2020-06-15T14:39:32Z</time>
      </trkpt>
      <trkpt lat="49.51456" lon="-1.28909">
        <ele>3</ele>
        <time>2020-06-15T14:39:33Z</time>
      </trkpt>
      <trkpt lat="49.51456" lon="-1.28902">
        <ele>3</ele>
        <time>2020-06-15T14:39:34Z</time>
      </trkpt>
      <trkpt lat="49.51457" lon="-1.28896">
        <ele>3</ele>
        <time>2020-06-15T14:39:35Z</time>
      </trkpt>
      <trkpt lat="49.51457" lon="-1.28893">
        <ele>3</ele>
        <time>2020-06-15T14:39:36Z</time>
      </trkpt>
      <trkpt lat="49.51458" lon="-1.28889">
        <ele>2.9</ele>
        <time>2020-06-15T14:39:37Z</time>
      </trkpt>
      <trkpt lat="49.5146" lon="-1.28883">
        <ele>2.9</ele>
        <time>2020-06-15T14:39:38Z</time>
      </trkpt>
      <trkpt lat="49.51461" lon="-1.28877">
        <ele>2.9</ele>
        <time>2020-06-15T14:39:39Z</time>
      </trkpt>
      <trkpt lat="49.51462" lon="-1.28872">
        <ele>2.9</ele>
        <time>2020-06-15T14:39:40Z</time>
      </trkpt>
      <trkpt lat="49.51464" lon="-1.28864">
        <ele>3</ele>
        <time>2020-06-15T14:39:41Z</time>
      </trkpt>
      <trkpt lat="49.51466" lon="-1.28859">
        <ele>3</ele>
        <time>2020-06-15T14:39:42Z</time>
      </trkpt>
      <trkpt lat="49.51468" lon="-1.28853">
        <ele>3.1</ele>
        <time>2020-06-15T14:39:43Z</time>
      </trkpt>
      <trkpt lat="49.5147" lon="-1.28848">
        <ele>3.1</ele>
        <time>2020-06-15T14:39:44Z</time>
      </trkpt>
      <trkpt lat="49.51472" lon="-1.28842">
        <ele>3.2</ele>
        <time>2020-06-15T14:39:45Z</time>
      </trkpt>
      <trkpt lat="49.51474" lon="-1.28836">
        <ele>3.2</ele>
        <time>2020-06-15T14:39:46Z</time>
      </trkpt>
      <trkpt lat="49.51476" lon="-1.28831">
        <ele>3.3</ele>
        <time>2020-06-15T14:39:47Z</time>
      </trkpt>
      <trkpt lat="49.51477" lon="-1.28826">
        <ele>3.3</ele>
        <time>2020-06-15T14:39:48Z</time>
      </trkpt>
      <trkpt lat="49.51478" lon="-1.28819">
        <ele>3.4</ele>
        <time>2020-06-15T14:39:49Z</time>
      </trkpt>
      <trkpt lat="49.51479" lon="-1.28814">
        <ele>3.4</ele>
        <time>2020-06-15T14:39:50Z</time>
      </trkpt>
      <trkpt lat="49.5148" lon="-1.28809">
        <ele>3.4</ele>
        <time>2020-06-15T14:39:51Z</time>
      </trkpt>
      <trkpt lat="49.51481" lon="-1.28803">
        <ele>3.5</ele>
        <time>2020-06-15T14:39:52Z</time>
      </trkpt>
      <trkpt lat="49.51481" lon="-1.28801">
        <ele>3.5</ele>
        <time>2020-06-15T14:39:53Z</time>
      </trkpt>
      <trkpt lat="49.51485" lon="-1.28796">
        <ele>3.6</ele>
        <time>2020-06-15T14:39:54Z</time>
      </trkpt>
      <trkpt lat="49.51487" lon="-1.28795">
        <ele>3.6</ele>
        <time>2020-06-15T14:39:55Z</time>
      </trkpt>
      <trkpt lat="49.51488" lon="-1.2879">
        <ele>3.7</ele>
        <time>2020-06-15T14:39:56Z</time>
      </trkpt>
      <trkpt lat="49.51488" lon="-1.28789">
        <ele>3.7</ele>
        <time>2020-06-15T14:39:57Z</time>
      </trkpt>
      <trkpt lat="49.51488" lon="-1.28787">
        <ele>3.7</ele>
        <time>2020-06-15T14:39:58Z</time>
      </trkpt>
      <trkpt lat="49.51487" lon="-1.28787">
        <ele>3.7</ele>
        <time>2020-06-15T14:39:59Z</time>
      </trkpt>
      <trkpt lat="49.51486" lon="-1.28787">
        <ele>3.7</ele>
        <time>2020-06-15T14:40:00Z</time>
      </trkpt>
      <trkpt lat="49.51485" lon="-1.28787">
        <ele>3.7</ele>
        <time>2020-06-15T14:40:01Z</time>
      </trkpt>
      <trkpt lat="49.51484" lon="-1.28786">
        <ele>3.7</ele>
        <time>2020-06-15T14:40:02Z</time>
      </trkpt>
      <trkpt lat="49.51484" lon="-1.28785">
        <ele>3.7</ele>
        <time>2020-06-15T14:40:03Z</time>
      </trkpt>
      <trkpt lat="49.51486" lon="-1.28783">
        <ele>3.7</ele>
        <time>2020-06-15T14:40:04Z</time>
      </trkpt>
      <trkpt lat="49.51487" lon="-1.28783">
        <ele>3.7</ele>
        <time>2020-06-15T14:40:05Z</time>
      </trkpt>
      <trkpt lat="49.51489" lon="-1.28782">
        <ele>3.8</ele>
        <time>2020-06-15T14:40:06Z</time>
      </trkpt>
      <trkpt lat="49.5149" lon="-1.28778">
        <ele>3.8</ele>
        <time>2020-06-15T14:40:07Z</time>
      </trkpt>
      <trkpt lat="49.51493" lon="-1.28776">
        <ele>3.8</ele>
        <time>2020-06-15T14:40:08Z</time>
      </trkpt>
      <trkpt lat="49.51494" lon="-1.28776">
        <ele>3.8</ele>
        <time>2020-06-15T14:40:09Z</time>
      </trkpt>
      <trkpt lat="49.51497" lon="-1.28773">
        <ele>3.8</ele>
        <time>2020-06-15T14:40:10Z</time>
      </trkpt>
      <trkpt lat="49.51498" lon="-1.28767">
        <ele>3.8</ele>
        <time>2020-06-15T14:40:11Z</time>
      </trkpt>
      <trkpt lat="49.51499" lon="-1.28762">
        <ele>3.8</ele>
        <time>2020-06-15T14:40:12Z</time>
      </trkpt>
      <trkpt lat="49.515" lon="-1.28758">
        <ele>3.8</ele>
        <time>2020-06-15T14:40:13Z</time>
      </trkpt>
      <trkpt lat="49.51501" lon="-1.28753">
        <ele>3.8</ele>
        <time>2020-06-15T14:40:14Z</time>
      </trkpt>
      <trkpt lat="49.51502" lon="-1.28749">
        <ele>3.8</ele>
        <time>2020-06-15T14:40:15Z</time>
      </trkpt>
      <trkpt lat="49.51504" lon="-1.28744">
        <ele>3.8</ele>
        <time>2020-06-15T14:40:16Z</time>
      </trkpt>
      <trkpt lat="49.51506" lon="-1.28738">
        <ele>3.8</ele>
        <time>2020-06-15T14:40:17Z</time>
      </trkpt>
      <trkpt lat="49.51506" lon="-1.28736">
        <ele>3.8</ele>
        <time>2020-06-15T14:40:18Z</time>
      </trkpt>
      <trkpt lat="49.51507" lon="-1.28731">
        <ele>3.8</ele>
        <time>2020-06-15T14:40:19Z</time>
      </trkpt>
      <trkpt lat="49.51508" lon="-1.28726">
        <ele>3.8</ele>
        <time>2020-06-15T14:40:20Z</time>
      </trkpt>
      <trkpt lat="49.5151" lon="-1.28719">
        <ele>3.8</ele>
        <time>2020-06-15T14:40:21Z</time>
      </trkpt>
      <trkpt lat="49.51511" lon="-1.28714">
        <ele>3.8</ele>
        <time>2020-06-15T14:40:22Z</time>
      </trkpt>
      <trkpt lat="49.51512" lon="-1.28709">
        <ele>3.8</ele>
        <time>2020-06-15T14:40:23Z</time>
      </trkpt>
      <trkpt lat="49.51514" lon="-1.28704">
        <ele>3.8</ele>
        <time>2020-06-15T14:40:24Z</time>
      </trkpt>
      <trkpt lat="49.51515" lon="-1.28699">
        <ele>3.8</ele>
        <time>2020-06-15T14:40:25Z</time>
      </trkpt>
      <trkpt lat="49.51516" lon="-1.28694">
        <ele>3.8</ele>
        <time>2020-06-15T14:40:26Z</time>
      </trkpt>
      <trkpt lat="49.51517" lon="-1.28691">
        <ele>3.8</ele>
        <time>2020-06-15T14:40:27Z</time>
      </trkpt>
      <trkpt lat="49.51517" lon="-1.28686">
        <ele>3.8</ele>
        <time>2020-06-15T14:40:28Z</time>
      </trkpt>
      <trkpt lat="49.51519" lon="-1.2868">
        <ele>3.8</ele>
        <time>2020-06-15T14:40:29Z</time>
      </trkpt>
      <trkpt lat="49.51519" lon="-1.28678">
        <ele>3.8</ele>
        <time>2020-06-15T14:40:30Z</time>
      </trkpt>
      <trkpt lat="49.5152" lon="-1.28674">
        <ele>3.8</ele>
        <time>2020-06-15T14:40:31Z</time>
      </trkpt>
      <trkpt lat="49.5152" lon="-1.2867">
        <ele>3.8</ele>
        <time>2020-06-15T14:40:32Z</time>
      </trkpt>
      <trkpt lat="49.51521" lon="-1.28668">
        <ele>3.8</ele>
        <time>2020-06-15T14:40:33Z</time>
      </trkpt>
      <trkpt lat="49.51522" lon="-1.28664">
        <ele>3.8</ele>
        <time>2020-06-15T14:40:34Z</time>
      </trkpt>
      <trkpt lat="49.51523" lon="-1.2866">
        <ele>3.8</ele>
        <time>2020-06-15T14:40:35Z</time>
      </trkpt>
      <trkpt lat="49.51523" lon="-1.28655">
        <ele>3.8</ele>
        <time>2020-06-15T14:40:36Z</time>
      </trkpt>
      <trkpt lat="49.51524" lon="-1.28651">
        <ele>3.8</ele>
        <time>2020-06-15T14:40:37Z</time>
      </trkpt>
      <trkpt lat="49.51525" lon="-1.28648">
        <ele>3.9</ele>
        <time>2020-06-15T14:40:38Z</time>
      </trkpt>
      <trkpt lat="49.51526" lon="-1.28642">
        <ele>3.9</ele>
        <time>2020-06-15T14:40:39Z</time>
      </trkpt>
      <trkpt lat="49.51527" lon="-1.28641">
        <ele>3.9</ele>
        <time>2020-06-15T14:40:40Z</time>
      </trkpt>
      <trkpt lat="49.51529" lon="-1.28637">
        <ele>3.9</ele>
        <time>2020-06-15T14:40:41Z</time>
      </trkpt>
      <trkpt lat="49.5153" lon="-1.28631">
        <ele>3.9</ele>
        <time>2020-06-15T14:40:42Z</time>
      </trkpt>
      <trkpt lat="49.5153" lon="-1.28629">
        <ele>3.9</ele>
        <time>2020-06-15T14:40:43Z</time>
      </trkpt>
      <trkpt lat="49.5153" lon="-1.28624">
        <ele>3.9</ele>
        <time>2020-06-15T14:40:44Z</time>
      </trkpt>
      <trkpt lat="49.5153" lon="-1.28622">
        <ele>3.8</ele>
        <time>2020-06-15T14:40:45Z</time>
      </trkpt>
      <trkpt lat="49.51531" lon="-1.28617">
        <ele>3.4</ele>
        <time>2020-06-15T14:40:46Z</time>
      </trkpt>
      <trkpt lat="49.51531" lon="-1.28615">
        <ele>3.2</ele>
        <time>2020-06-15T14:40:47Z</time>
      </trkpt>
      <trkpt lat="49.51533" lon="-1.2861">
        <ele>2.8</ele>
        <time>2020-06-15T14:40:48Z</time>
      </trkpt>
      <trkpt lat="49.51533" lon="-1.28609">
        <ele>2.6</ele>
        <time>2020-06-15T14:40:49Z</time>
      </trkpt>
      <trkpt lat="49.51534" lon="-1.28605">
        <ele>2.3</ele>
        <time>2020-06-15T14:40:50Z</time>
      </trkpt>
      <trkpt lat="49.51534" lon="-1.28603">
        <ele>2.1</ele>
        <time>2020-06-15T14:40:51Z</time>
      </trkpt>
      <trkpt lat="49.51535" lon="-1.28601">
        <ele>1.9</ele>
        <time>2020-06-15T14:40:52Z</time>
      </trkpt>
      <trkpt lat="49.51536" lon="-1.28599">
        <ele>1.7</ele>
        <time>2020-06-15T14:40:53Z</time>
      </trkpt>
      <trkpt lat="49.51538" lon="-1.28597">
        <ele>1.5</ele>
        <time>2020-06-15T14:40:54Z</time>
      </trkpt>
      <trkpt lat="49.51538" lon="-1.28596">
        <ele>1.3</ele>
        <time>2020-06-15T14:40:55Z</time>
      </trkpt>
      <trkpt lat="49.51539" lon="-1.28594">
        <ele>1.4</ele>
        <time>2020-06-15T14:40:56Z</time>
      </trkpt>
      <trkpt lat="49.5154" lon="-1.28592">
        <ele>1.5</ele>
        <time>2020-06-15T14:40:57Z</time>
      </trkpt>
      <trkpt lat="49.5154" lon="-1.28591">
        <ele>1.6</ele>
        <time>2020-06-15T14:40:58Z</time>
      </trkpt>
      <trkpt lat="49.51541" lon="-1.2859">
        <ele>1.7</ele>
        <time>2020-06-15T14:40:59Z</time>
      </trkpt>
      <trkpt lat="49.51542" lon="-1.28589">
        <ele>1.8</ele>
        <time>2020-06-15T14:41:00Z</time>
      </trkpt>
      <trkpt lat="49.51541" lon="-1.28589">
        <ele>1.8</ele>
        <time>2020-06-15T14:41:01Z</time>
      </trkpt>
      <trkpt lat="49.51541" lon="-1.28589">
        <ele>1.8</ele>
        <time>2020-06-15T14:41:02Z</time>
      </trkpt>
      <trkpt lat="49.51542" lon="-1.28589">
        <ele>1.8</ele>
        <time>2020-06-15T14:41:03Z</time>
      </trkpt>
      <trkpt lat="49.51542" lon="-1.28589">
        <ele>1.8</ele>
        <time>2020-06-15T14:41:04Z</time>
      </trkpt>
      <trkpt lat="49.51542" lon="-1.28589">
        <ele>1.8</ele>
        <time>2020-06-15T14:41:05Z</time>
      </trkpt>
      <trkpt lat="49.51542" lon="-1.28588">
        <ele>1.8</ele>
        <time>2020-06-15T14:41:06Z</time>
      </trkpt>
      <trkpt lat="49.51541" lon="-1.28588">
        <ele>1.8</ele>
        <time>2020-06-15T14:41:07Z</time>
      </trkpt>
      <trkpt lat="49.51541" lon="-1.28588">
        <ele>1.8</ele>
        <time>2020-06-15T14:41:08Z</time>
      </trkpt>
      <trkpt lat="49.51541" lon="-1.28588">
        <ele>1.8</ele>
        <time>2020-06-15T14:41:09Z</time>
      </trkpt>
      <trkpt lat="49.51541" lon="-1.28588">
        <ele>1.8</ele>
        <time>2020-06-15T14:41:10Z</time>
      </trkpt>
      <trkpt lat="49.51537" lon="-1.28596">
        <ele>2.4</ele>
        <time>2020-06-15T14:43:57Z</time>
      </trkpt>
      <trkpt lat="49.51536" lon="-1.28599">
        <ele>2.6</ele>
        <time>2020-06-15T14:43:58Z</time>
      </trkpt>
      <trkpt lat="49.51535" lon="-1.28604">
        <ele>2.8</ele>
        <time>2020-06-15T14:43:59Z</time>
      </trkpt>
      <trkpt lat="49.51536" lon="-1.28605">
        <ele>2.9</ele>
        <time>2020-06-15T14:44:00Z</time>
      </trkpt>
      <trkpt lat="49.51535" lon="-1.28611">
        <ele>3.2</ele>
        <time>2020-06-15T14:44:01Z</time>
      </trkpt>
      <trkpt lat="49.51534" lon="-1.28613">
        <ele>3.3</ele>
        <time>2020-06-15T14:44:02Z</time>
      </trkpt>
      <trkpt lat="49.51533" lon="-1.28618">
        <ele>3.6</ele>
        <time>2020-06-15T14:44:03Z</time>
      </trkpt>
      <trkpt lat="49.51533" lon="-1.28623">
        <ele>3.9</ele>
        <time>2020-06-15T14:44:04Z</time>
      </trkpt>
      <trkpt lat="49.51531" lon="-1.28628">
        <ele>3.9</ele>
        <time>2020-06-15T14:44:05Z</time>
      </trkpt>
      <trkpt lat="49.51529" lon="-1.28632">
        <ele>3.9</ele>
        <time>2020-06-15T14:44:06Z</time>
      </trkpt>
      <trkpt lat="49.51527" lon="-1.28636">
        <ele>3.9</ele>
        <time>2020-06-15T14:44:07Z</time>
      </trkpt>
      <trkpt lat="49.51526" lon="-1.2864">
        <ele>3.9</ele>
        <time>2020-06-15T14:44:08Z</time>
      </trkpt>
      <trkpt lat="49.51524" lon="-1.28644">
        <ele>3.9</ele>
        <time>2020-06-15T14:44:09Z</time>
      </trkpt>
      <trkpt lat="49.51523" lon="-1.28648">
        <ele>3.9</ele>
        <time>2020-06-15T14:44:10Z</time>
      </trkpt>
      <trkpt lat="49.5152" lon="-1.28653">
        <ele>3.8</ele>
        <time>2020-06-15T14:44:11Z</time>
      </trkpt>
      <trkpt lat="49.51519" lon="-1.28655">
        <ele>3.8</ele>
        <time>2020-06-15T14:44:12Z</time>
      </trkpt>
      <trkpt lat="49.51517" lon="-1.2866">
        <ele>3.8</ele>
        <time>2020-06-15T14:44:13Z</time>
      </trkpt>
      <trkpt lat="49.51516" lon="-1.28665">
        <ele>3.8</ele>
        <time>2020-06-15T14:44:14Z</time>
      </trkpt>
      <trkpt lat="49.51516" lon="-1.28669">
        <ele>3.8</ele>
        <time>2020-06-15T14:44:15Z</time>
      </trkpt>
      <trkpt lat="49.51515" lon="-1.28674">
        <ele>3.8</ele>
        <time>2020-06-15T14:44:16Z</time>
      </trkpt>
      <trkpt lat="49.51514" lon="-1.28678">
        <ele>3.8</ele>
        <time>2020-06-15T14:44:17Z</time>
      </trkpt>
      <trkpt lat="49.51513" lon="-1.28683">
        <ele>3.8</ele>
        <time>2020-06-15T14:44:18Z</time>
      </trkpt>
      <trkpt lat="49.51512" lon="-1.28689">
        <ele>3.8</ele>
        <time>2020-06-15T14:44:19Z</time>
      </trkpt>
      <trkpt lat="49.51511" lon="-1.28694">
        <ele>3.8</ele>
        <time>2020-06-15T14:44:20Z</time>
      </trkpt>
      <trkpt lat="49.5151" lon="-1.287">
        <ele>3.8</ele>
        <time>2020-06-15T14:44:21Z</time>
      </trkpt>
      <trkpt lat="49.51509" lon="-1.28705">
        <ele>3.8</ele>
        <time>2020-06-15T14:44:22Z</time>
      </trkpt>
      <trkpt lat="49.51508" lon="-1.2871">
        <ele>3.8</ele>
        <time>2020-06-15T14:44:23Z</time>
      </trkpt>
      <trkpt lat="49.51508" lon="-1.28716">
        <ele>3.8</ele>
        <time>2020-06-15T14:44:24Z</time>
      </trkpt>
      <trkpt lat="49.51507" lon="-1.28722">
        <ele>3.8</ele>
        <time>2020-06-15T14:44:25Z</time>
      </trkpt>
      <trkpt lat="49.51507" lon="-1.28727">
        <ele>3.8</ele>
        <time>2020-06-15T14:44:26Z</time>
      </trkpt>
      <trkpt lat="49.51506" lon="-1.28733">
        <ele>3.8</ele>
        <time>2020-06-15T14:44:27Z</time>
      </trkpt>
      <trkpt lat="49.51505" lon="-1.28738">
        <ele>3.8</ele>
        <time>2020-06-15T14:44:28Z</time>
      </trkpt>
      <trkpt lat="49.51503" lon="-1.28744">
        <ele>3.8</ele>
        <time>2020-06-15T14:44:29Z</time>
      </trkpt>
      <trkpt lat="49.51501" lon="-1.28751">
        <ele>3.8</ele>
        <time>2020-06-15T14:44:30Z</time>
      </trkpt>
      <trkpt lat="49.515" lon="-1.28757">
        <ele>3.8</ele>
        <time>2020-06-15T14:44:31Z</time>
      </trkpt>
      <trkpt lat="49.51499" lon="-1.28762">
        <ele>3.8</ele>
        <time>2020-06-15T14:44:32Z</time>
      </trkpt>
      <trkpt lat="49.51498" lon="-1.28766">
        <ele>3.8</ele>
        <time>2020-06-15T14:44:33Z</time>
      </trkpt>
      <trkpt lat="49.51497" lon="-1.2877">
        <ele>3.8</ele>
        <time>2020-06-15T14:44:34Z</time>
      </trkpt>
      <trkpt lat="49.51495" lon="-1.28774">
        <ele>3.8</ele>
        <time>2020-06-15T14:44:35Z</time>
      </trkpt>
      <trkpt lat="49.51492" lon="-1.28777">
        <ele>3.8</ele>
        <time>2020-06-15T14:44:36Z</time>
      </trkpt>
      <trkpt lat="49.51489" lon="-1.28779">
        <ele>3.6</ele>
        <time>2020-06-15T14:44:37Z</time>
      </trkpt>
      <trkpt lat="49.51485" lon="-1.28781">
        <ele>3.5</ele>
        <time>2020-06-15T14:44:38Z</time>
      </trkpt>
      <trkpt lat="49.5148" lon="-1.28782">
        <ele>3.4</ele>
        <time>2020-06-15T14:44:39Z</time>
      </trkpt>
      <trkpt lat="49.51476" lon="-1.2878">
        <ele>3.3</ele>
        <time>2020-06-15T14:44:40Z</time>
      </trkpt>
      <trkpt lat="49.51472" lon="-1.28778">
        <ele>3.2</ele>
        <time>2020-06-15T14:44:41Z</time>
      </trkpt>
      <trkpt lat="49.51468" lon="-1.28775">
        <ele>3.1</ele>
        <time>2020-06-15T14:44:42Z</time>
      </trkpt>
      <trkpt lat="49.51466" lon="-1.28772">
        <ele>3.1</ele>
        <time>2020-06-15T14:44:43Z</time>
      </trkpt>
      <trkpt lat="49.51463" lon="-1.28768">
        <ele>3</ele>
        <time>2020-06-15T14:44:44Z</time>
      </trkpt>
      <trkpt lat="49.51461" lon="-1.28763">
        <ele>3</ele>
        <time>2020-06-15T14:44:45Z</time>
      </trkpt>
      <trkpt lat="49.5146" lon="-1.28758">
        <ele>3</ele>
        <time>2020-06-15T14:44:46Z</time>
      </trkpt>
      <trkpt lat="49.51457" lon="-1.28753">
        <ele>3</ele>
        <time>2020-06-15T14:44:47Z</time>
      </trkpt>
      <trkpt lat="49.51455" lon="-1.28747">
        <ele>2.9</ele>
        <time>2020-06-15T14:44:48Z</time>
      </trkpt>
      <trkpt lat="49.51453" lon="-1.28742">
        <ele>2.9</ele>
        <time>2020-06-15T14:44:49Z</time>
      </trkpt>
      <trkpt lat="49.51451" lon="-1.28736">
        <ele>2.9</ele>
        <time>2020-06-15T14:44:50Z</time>
      </trkpt>
      <trkpt lat="49.51446" lon="-1.28729">
        <ele>2.8</ele>
        <time>2020-06-15T14:44:51Z</time>
      </trkpt>
      <trkpt lat="49.51441" lon="-1.28722">
        <ele>2.8</ele>
        <time>2020-06-15T14:44:52Z</time>
      </trkpt>
      <trkpt lat="49.51437" lon="-1.28716">
        <ele>2.7</ele>
        <time>2020-06-15T14:44:53Z</time>
      </trkpt>
      <trkpt lat="49.51433" lon="-1.2871">
        <ele>2.7</ele>
        <time>2020-06-15T14:44:54Z</time>
      </trkpt>
      <trkpt lat="49.5143" lon="-1.28705">
        <ele>2.7</ele>
        <time>2020-06-15T14:44:55Z</time>
      </trkpt>
      <trkpt lat="49.51427" lon="-1.28699">
        <ele>2.7</ele>
        <time>2020-06-15T14:44:56Z</time>
      </trkpt>
      <trkpt lat="49.51423" lon="-1.28694">
        <ele>2.7</ele>
        <time>2020-06-15T14:44:57Z</time>
      </trkpt>
      <trkpt lat="49.51419" lon="-1.28689">
        <ele>2.6</ele>
        <time>2020-06-15T14:44:58Z</time>
      </trkpt>
      <trkpt lat="49.51417" lon="-1.28683">
        <ele>2.6</ele>
        <time>2020-06-15T14:44:59Z</time>
      </trkpt>
      <trkpt lat="49.51414" lon="-1.28676">
        <ele>2.6</ele>
        <time>2020-06-15T14:45:00Z</time>
      </trkpt>
      <trkpt lat="49.5141" lon="-1.2867">
        <ele>2.6</ele>
        <time>2020-06-15T14:45:01Z</time>
      </trkpt>
      <trkpt lat="49.51408" lon="-1.28664">
        <ele>2.6</ele>
        <time>2020-06-15T14:45:02Z</time>
      </trkpt>
      <trkpt lat="49.51405" lon="-1.28659">
        <ele>2.6</ele>
        <time>2020-06-15T14:45:03Z</time>
      </trkpt>
      <trkpt lat="49.51402" lon="-1.28654">
        <ele>2.6</ele>
        <time>2020-06-15T14:45:04Z</time>
      </trkpt>
      <trkpt lat="49.51399" lon="-1.28649">
        <ele>2.6</ele>
        <time>2020-06-15T14:45:05Z</time>
      </trkpt>
      <trkpt lat="49.51396" lon="-1.28643">
        <ele>2.6</ele>
        <time>2020-06-15T14:45:06Z</time>
      </trkpt>
      <trkpt lat="49.51393" lon="-1.28637">
        <ele>2.6</ele>
        <time>2020-06-15T14:45:07Z</time>
      </trkpt>
      <trkpt lat="49.51389" lon="-1.28631">
        <ele>2.6</ele>
        <time>2020-06-15T14:45:08Z</time>
      </trkpt>
      <trkpt lat="49.51385" lon="-1.28626">
        <ele>2.6</ele>
        <time>2020-06-15T14:45:09Z</time>
      </trkpt>
      <trkpt lat="49.51382" lon="-1.28619">
        <ele>2.5</ele>
        <time>2020-06-15T14:45:10Z</time>
      </trkpt>
      <trkpt lat="49.51378" lon="-1.28614">
        <ele>2.5</ele>
        <time>2020-06-15T14:45:11Z</time>
      </trkpt>
      <trkpt lat="49.51375" lon="-1.28608">
        <ele>2.5</ele>
        <time>2020-06-15T14:45:12Z</time>
      </trkpt>
      <trkpt lat="49.51371" lon="-1.28602">
        <ele>2.5</ele>
        <time>2020-06-15T14:45:13Z</time>
      </trkpt>
      <trkpt lat="49.51367" lon="-1.28596">
        <ele>2.5</ele>
        <time>2020-06-15T14:45:14Z</time>
      </trkpt>
      <trkpt lat="49.51363" lon="-1.28591">
        <ele>2.5</ele>
        <time>2020-06-15T14:45:15Z</time>
      </trkpt>
      <trkpt lat="49.51358" lon="-1.28587">
        <ele>2.5</ele>
        <time>2020-06-15T14:45:16Z</time>
      </trkpt>
      <trkpt lat="49.51354" lon="-1.28582">
        <ele>2.5</ele>
        <time>2020-06-15T14:45:17Z</time>
      </trkpt>
      <trkpt lat="49.51351" lon="-1.28576">
        <ele>2.5</ele>
        <time>2020-06-15T14:45:18Z</time>
      </trkpt>
      <trkpt lat="49.51347" lon="-1.28572">
        <ele>2.6</ele>
        <time>2020-06-15T14:45:19Z</time>
      </trkpt>
      <trkpt lat="49.51343" lon="-1.28568">
        <ele>2.6</ele>
        <time>2020-06-15T14:45:20Z</time>
      </trkpt>
      <trkpt lat="49.51339" lon="-1.28564">
        <ele>2.6</ele>
        <time>2020-06-15T14:45:21Z</time>
      </trkpt>
      <trkpt lat="49.51336" lon="-1.2856">
        <ele>2.6</ele>
        <time>2020-06-15T14:45:22Z</time>
      </trkpt>
      <trkpt lat="49.51332" lon="-1.28556">
        <ele>2.7</ele>
        <time>2020-06-15T14:45:23Z</time>
      </trkpt>
      <trkpt lat="49.51328" lon="-1.28551">
        <ele>2.7</ele>
        <time>2020-06-15T14:45:24Z</time>
      </trkpt>
      <trkpt lat="49.51325" lon="-1.28549">
        <ele>2.7</ele>
        <time>2020-06-15T14:45:25Z</time>
      </trkpt>
      <trkpt lat="49.5132" lon="-1.28544">
        <ele>2.8</ele>
        <time>2020-06-15T14:45:26Z</time>
      </trkpt>
      <trkpt lat="49.51316" lon="-1.28538">
        <ele>2.8</ele>
        <time>2020-06-15T14:45:27Z</time>
      </trkpt>
      <trkpt lat="49.51311" lon="-1.28534">
        <ele>2.7</ele>
        <time>2020-06-15T14:45:28Z</time>
      </trkpt>
      <trkpt lat="49.51307" lon="-1.28529">
        <ele>2.7</ele>
        <time>2020-06-15T14:45:29Z</time>
      </trkpt>
      <trkpt lat="49.51304" lon="-1.28523">
        <ele>2.7</ele>
        <time>2020-06-15T14:45:30Z</time>
      </trkpt>
      <trkpt lat="49.51301" lon="-1.28517">
        <ele>2.7</ele>
        <time>2020-06-15T14:45:31Z</time>
      </trkpt>
      <trkpt lat="49.51298" lon="-1.28511">
        <ele>2.7</ele>
        <time>2020-06-15T14:45:32Z</time>
      </trkpt>
      <trkpt lat="49.51294" lon="-1.28504">
        <ele>2.7</ele>
        <time>2020-06-15T14:45:33Z</time>
      </trkpt>
      <trkpt lat="49.51291" lon="-1.28497">
        <ele>2.8</ele>
        <time>2020-06-15T14:45:34Z</time>
      </trkpt>
      <trkpt lat="49.51288" lon="-1.28492">
        <ele>2.8</ele>
        <time>2020-06-15T14:45:35Z</time>
      </trkpt>
      <trkpt lat="49.51284" lon="-1.28486">
        <ele>2.8</ele>
        <time>2020-06-15T14:45:36Z</time>
      </trkpt>
      <trkpt lat="49.51281" lon="-1.28481">
        <ele>2.8</ele>
        <time>2020-06-15T14:45:37Z</time>
      </trkpt>
      <trkpt lat="49.51278" lon="-1.28476">
        <ele>2.9</ele>
        <time>2020-06-15T14:45:38Z</time>
      </trkpt>
      <trkpt lat="49.51274" lon="-1.2847">
        <ele>2.9</ele>
        <time>2020-06-15T14:45:39Z</time>
      </trkpt>
      <trkpt lat="49.5127" lon="-1.28466">
        <ele>2.9</ele>
        <time>2020-06-15T14:45:40Z</time>
      </trkpt>
      <trkpt lat="49.51266" lon="-1.28462">
        <ele>2.9</ele>
        <time>2020-06-15T14:45:41Z</time>
      </trkpt>
      <trkpt lat="49.51262" lon="-1.28456">
        <ele>3</ele>
        <time>2020-06-15T14:45:42Z</time>
      </trkpt>
      <trkpt lat="49.51258" lon="-1.28452">
        <ele>3</ele>
        <time>2020-06-15T14:45:43Z</time>
      </trkpt>
      <trkpt lat="49.51255" lon="-1.28447">
        <ele>3</ele>
        <time>2020-06-15T14:45:44Z</time>
      </trkpt>
      <trkpt lat="49.51252" lon="-1.28442">
        <ele>3.1</ele>
        <time>2020-06-15T14:45:45Z</time>
      </trkpt>
      <trkpt lat="49.51248" lon="-1.28437">
        <ele>3.1</ele>
        <time>2020-06-15T14:45:46Z</time>
      </trkpt>
      <trkpt lat="49.51245" lon="-1.28433">
        <ele>3.1</ele>
        <time>2020-06-15T14:45:47Z</time>
      </trkpt>
      <trkpt lat="49.51241" lon="-1.28429">
        <ele>3.2</ele>
        <time>2020-06-15T14:45:48Z</time>
      </trkpt>
      <trkpt lat="49.51238" lon="-1.28425">
        <ele>3.2</ele>
        <time>2020-06-15T14:45:49Z</time>
      </trkpt>
      <trkpt lat="49.51233" lon="-1.28421">
        <ele>3.2</ele>
        <time>2020-06-15T14:45:50Z</time>
      </trkpt>
      <trkpt lat="49.5123" lon="-1.28417">
        <ele>3.2</ele>
        <time>2020-06-15T14:45:51Z</time>
      </trkpt>
      <trkpt lat="49.51226" lon="-1.28412">
        <ele>3.3</ele>
        <time>2020-06-15T14:45:52Z</time>
      </trkpt>
      <trkpt lat="49.51222" lon="-1.28407">
        <ele>3.3</ele>
        <time>2020-06-15T14:45:53Z</time>
      </trkpt>
      <trkpt lat="49.51218" lon="-1.28401">
        <ele>3.4</ele>
        <time>2020-06-15T14:45:54Z</time>
      </trkpt>
      <trkpt lat="49.51214" lon="-1.28395">
        <ele>3.4</ele>
        <time>2020-06-15T14:45:55Z</time>
      </trkpt>
      <trkpt lat="49.5121" lon="-1.28389">
        <ele>3.4</ele>
        <time>2020-06-15T14:45:56Z</time>
      </trkpt>
      <trkpt lat="49.51206" lon="-1.28383">
        <ele>3.4</ele>
        <time>2020-06-15T14:45:57Z</time>
      </trkpt>
      <trkpt lat="49.51203" lon="-1.28377">
        <ele>3.4</ele>
        <time>2020-06-15T14:45:58Z</time>
      </trkpt>
      <trkpt lat="49.512" lon="-1.28372">
        <ele>3.4</ele>
        <time>2020-06-15T14:45:59Z</time>
      </trkpt>
      <trkpt lat="49.51196" lon="-1.28367">
        <ele>3.4</ele>
        <time>2020-06-15T14:46:00Z</time>
      </trkpt>
      <trkpt lat="49.51192" lon="-1.28361">
        <ele>3.4</ele>
        <time>2020-06-15T14:46:01Z</time>
      </trkpt>
      <trkpt lat="49.51189" lon="-1.28356">
        <ele>3.4</ele>
        <time>2020-06-15T14:46:02Z</time>
      </trkpt>
      <trkpt lat="49.51185" lon="-1.28351">
        <ele>3.4</ele>
        <time>2020-06-15T14:46:03Z</time>
      </trkpt>
      <trkpt lat="49.51181" lon="-1.28346">
        <ele>3.5</ele>
        <time>2020-06-15T14:46:04Z</time>
      </trkpt>
      <trkpt lat="49.51177" lon="-1.28342">
        <ele>3.5</ele>
        <time>2020-06-15T14:46:05Z</time>
      </trkpt>
      <trkpt lat="49.51173" lon="-1.28338">
        <ele>3.5</ele>
        <time>2020-06-15T14:46:06Z</time>
      </trkpt>
      <trkpt lat="49.51169" lon="-1.28334">
        <ele>3.4</ele>
        <time>2020-06-15T14:46:07Z</time>
      </trkpt>
      <trkpt lat="49.51164" lon="-1.2833">
        <ele>3.4</ele>
        <time>2020-06-15T14:46:08Z</time>
      </trkpt>
      <trkpt lat="49.5116" lon="-1.28326">
        <ele>3.4</ele>
        <time>2020-06-15T14:46:09Z</time>
      </trkpt>
      <trkpt lat="49.51155" lon="-1.28322">
        <ele>3.4</ele>
        <time>2020-06-15T14:46:10Z</time>
      </trkpt>
      <trkpt lat="49.51151" lon="-1.28319">
        <ele>3.4</ele>
        <time>2020-06-15T14:46:11Z</time>
      </trkpt>
      <trkpt lat="49.51147" lon="-1.28316">
        <ele>3.4</ele>
        <time>2020-06-15T14:46:12Z</time>
      </trkpt>
      <trkpt lat="49.51143" lon="-1.28313">
        <ele>3.4</ele>
        <time>2020-06-15T14:46:13Z</time>
      </trkpt>
      <trkpt lat="49.51139" lon="-1.28309">
        <ele>3.4</ele>
        <time>2020-06-15T14:46:14Z</time>
      </trkpt>
      <trkpt lat="49.51136" lon="-1.28306">
        <ele>3.4</ele>
        <time>2020-06-15T14:46:15Z</time>
      </trkpt>
      <trkpt lat="49.51131" lon="-1.28303">
        <ele>3.4</ele>
        <time>2020-06-15T14:46:16Z</time>
      </trkpt>
      <trkpt lat="49.51127" lon="-1.28299">
        <ele>3.4</ele>
        <time>2020-06-15T14:46:17Z</time>
      </trkpt>
      <trkpt lat="49.51123" lon="-1.28295">
        <ele>3.5</ele>
        <time>2020-06-15T14:46:18Z</time>
      </trkpt>
      <trkpt lat="49.51119" lon="-1.28291">
        <ele>3.5</ele>
        <time>2020-06-15T14:46:19Z</time>
      </trkpt>
      <trkpt lat="49.51115" lon="-1.28287">
        <ele>3.4</ele>
        <time>2020-06-15T14:46:20Z</time>
      </trkpt>
      <trkpt lat="49.5111" lon="-1.28282">
        <ele>3.4</ele>
        <time>2020-06-15T14:46:21Z</time>
      </trkpt>
      <trkpt lat="49.51106" lon="-1.28277">
        <ele>3.3</ele>
        <time>2020-06-15T14:46:22Z</time>
      </trkpt>
      <trkpt lat="49.51101" lon="-1.28272">
        <ele>3.3</ele>
        <time>2020-06-15T14:46:23Z</time>
      </trkpt>
      <trkpt lat="49.51097" lon="-1.28269">
        <ele>3.3</ele>
        <time>2020-06-15T14:46:24Z</time>
      </trkpt>
      <trkpt lat="49.51092" lon="-1.28266">
        <ele>3.3</ele>
        <time>2020-06-15T14:46:25Z</time>
      </trkpt>
      <trkpt lat="49.51088" lon="-1.28262">
        <ele>3.2</ele>
        <time>2020-06-15T14:46:26Z</time>
      </trkpt>
      <trkpt lat="49.51084" lon="-1.28259">
        <ele>3.2</ele>
        <time>2020-06-15T14:46:27Z</time>
      </trkpt>
      <trkpt lat="49.51079" lon="-1.28255">
        <ele>3.2</ele>
        <time>2020-06-15T14:46:28Z</time>
      </trkpt>
      <trkpt lat="49.51074" lon="-1.2825">
        <ele>3.2</ele>
        <time>2020-06-15T14:46:29Z</time>
      </trkpt>
      <trkpt lat="49.51071" lon="-1.28246">
        <ele>3.2</ele>
        <time>2020-06-15T14:46:30Z</time>
      </trkpt>
      <trkpt lat="49.51066" lon="-1.28241">
        <ele>3.2</ele>
        <time>2020-06-15T14:46:31Z</time>
      </trkpt>
      <trkpt lat="49.51062" lon="-1.28237">
        <ele>3.2</ele>
        <time>2020-06-15T14:46:32Z</time>
      </trkpt>
      <trkpt lat="49.51058" lon="-1.28234">
        <ele>3.2</ele>
        <time>2020-06-15T14:46:33Z</time>
      </trkpt>
      <trkpt lat="49.51054" lon="-1.2823">
        <ele>3.1</ele>
        <time>2020-06-15T14:46:34Z</time>
      </trkpt>
      <trkpt lat="49.5105" lon="-1.28226">
        <ele>3.1</ele>
        <time>2020-06-15T14:46:35Z</time>
      </trkpt>
      <trkpt lat="49.51046" lon="-1.28223">
        <ele>3.1</ele>
        <time>2020-06-15T14:46:36Z</time>
      </trkpt>
      <trkpt lat="49.51042" lon="-1.28219">
        <ele>3.1</ele>
        <time>2020-06-15T14:46:37Z</time>
      </trkpt>
      <trkpt lat="49.51038" lon="-1.28216">
        <ele>3.1</ele>
        <time>2020-06-15T14:46:38Z</time>
      </trkpt>
      <trkpt lat="49.51033" lon="-1.28211">
        <ele>3</ele>
        <time>2020-06-15T14:46:39Z</time>
      </trkpt>
      <trkpt lat="49.51029" lon="-1.28207">
        <ele>3</ele>
        <time>2020-06-15T14:46:40Z</time>
      </trkpt>
      <trkpt lat="49.51025" lon="-1.28202">
        <ele>3</ele>
        <time>2020-06-15T14:46:41Z</time>
      </trkpt>
      <trkpt lat="49.5102" lon="-1.28198">
        <ele>3</ele>
        <time>2020-06-15T14:46:42Z</time>
      </trkpt>
      <trkpt lat="49.51015" lon="-1.28194">
        <ele>3</ele>
        <time>2020-06-15T14:46:43Z</time>
      </trkpt>
      <trkpt lat="49.51011" lon="-1.2819">
        <ele>3</ele>
        <time>2020-06-15T14:46:44Z</time>
      </trkpt>
      <trkpt lat="49.51006" lon="-1.28186">
        <ele>3.1</ele>
        <time>2020-06-15T14:46:45Z</time>
      </trkpt>
      <trkpt lat="49.51002" lon="-1.28182">
        <ele>3</ele>
        <time>2020-06-15T14:46:46Z</time>
      </trkpt>
      <trkpt lat="49.50997" lon="-1.28178">
        <ele>3</ele>
        <time>2020-06-15T14:46:47Z</time>
      </trkpt>
      <trkpt lat="49.50992" lon="-1.28174">
        <ele>3</ele>
        <time>2020-06-15T14:46:48Z</time>
      </trkpt>
      <trkpt lat="49.50987" lon="-1.28171">
        <ele>2.9</ele>
        <time>2020-06-15T14:46:49Z</time>
      </trkpt>
      <trkpt lat="49.50983" lon="-1.28167">
        <ele>2.9</ele>
        <time>2020-06-15T14:46:50Z</time>
      </trkpt>
      <trkpt lat="49.50978" lon="-1.28162">
        <ele>2.8</ele>
        <time>2020-06-15T14:46:51Z</time>
      </trkpt>
      <trkpt lat="49.50973" lon="-1.28158">
        <ele>2.8</ele>
        <time>2020-06-15T14:46:52Z</time>
      </trkpt>
      <trkpt lat="49.50969" lon="-1.28154">
        <ele>2.8</ele>
        <time>2020-06-15T14:46:53Z</time>
      </trkpt>
      <trkpt lat="49.50965" lon="-1.2815">
        <ele>2.8</ele>
        <time>2020-06-15T14:46:54Z</time>
      </trkpt>
      <trkpt lat="49.5096" lon="-1.28146">
        <ele>2.8</ele>
        <time>2020-06-15T14:46:55Z</time>
      </trkpt>
      <trkpt lat="49.50955" lon="-1.28142">
        <ele>2.8</ele>
        <time>2020-06-15T14:46:56Z</time>
      </trkpt>
      <trkpt lat="49.50951" lon="-1.28137">
        <ele>2.8</ele>
        <time>2020-06-15T14:46:57Z</time>
      </trkpt>
      <trkpt lat="49.50946" lon="-1.28133">
        <ele>2.8</ele>
        <time>2020-06-15T14:46:58Z</time>
      </trkpt>
      <trkpt lat="49.50941" lon="-1.28128">
        <ele>2.7</ele>
        <time>2020-06-15T14:46:59Z</time>
      </trkpt>
      <trkpt lat="49.50936" lon="-1.28124">
        <ele>2.7</ele>
        <time>2020-06-15T14:47:00Z</time>
      </trkpt>
      <trkpt lat="49.50932" lon="-1.28119">
        <ele>2.7</ele>
        <time>2020-06-15T14:47:01Z</time>
      </trkpt>
      <trkpt lat="49.50926" lon="-1.28115">
        <ele>2.6</ele>
        <time>2020-06-15T14:47:02Z</time>
      </trkpt>
      <trkpt lat="49.50921" lon="-1.28111">
        <ele>2.6</ele>
        <time>2020-06-15T14:47:03Z</time>
      </trkpt>
      <trkpt lat="49.50916" lon="-1.28107">
        <ele>2.6</ele>
        <time>2020-06-15T14:47:04Z</time>
      </trkpt>
      <trkpt lat="49.5091" lon="-1.28103">
        <ele>2.6</ele>
        <time>2020-06-15T14:47:05Z</time>
      </trkpt>
      <trkpt lat="49.50905" lon="-1.28099">
        <ele>2.6</ele>
        <time>2020-06-15T14:47:06Z</time>
      </trkpt>
      <trkpt lat="49.509" lon="-1.28095">
        <ele>2.6</ele>
        <time>2020-06-15T14:47:07Z</time>
      </trkpt>
      <trkpt lat="49.50896" lon="-1.28091">
        <ele>2.7</ele>
        <time>2020-06-15T14:47:08Z</time>
      </trkpt>
      <trkpt lat="49.50891" lon="-1.28087">
        <ele>2.7</ele>
        <time>2020-06-15T14:47:09Z</time>
      </trkpt>
      <trkpt lat="49.50885" lon="-1.28083">
        <ele>2.7</ele>
        <time>2020-06-15T14:47:10Z</time>
      </trkpt>
      <trkpt lat="49.5088" lon="-1.28078">
        <ele>2.7</ele>
        <time>2020-06-15T14:47:11Z</time>
      </trkpt>
      <trkpt lat="49.50875" lon="-1.28074">
        <ele>2.7</ele>
        <time>2020-06-15T14:47:12Z</time>
      </trkpt>
      <trkpt lat="49.5087" lon="-1.28071">
        <ele>2.7</ele>
        <time>2020-06-15T14:47:13Z</time>
      </trkpt>
      <trkpt lat="49.50866" lon="-1.28066">
        <ele>2.7</ele>
        <time>2020-06-15T14:47:14Z</time>
      </trkpt>
      <trkpt lat="49.50861" lon="-1.28062">
        <ele>2.8</ele>
        <time>2020-06-15T14:47:15Z</time>
      </trkpt>
      <trkpt lat="49.50857" lon="-1.28059">
        <ele>2.8</ele>
        <time>2020-06-15T14:47:16Z</time>
      </trkpt>
      <trkpt lat="49.50853" lon="-1.28055">
        <ele>2.8</ele>
        <time>2020-06-15T14:47:17Z</time>
      </trkpt>
      <trkpt lat="49.50849" lon="-1.2805">
        <ele>2.8</ele>
        <time>2020-06-15T14:47:18Z</time>
      </trkpt>
      <trkpt lat="49.50845" lon="-1.28047">
        <ele>2.9</ele>
        <time>2020-06-15T14:47:19Z</time>
      </trkpt>
      <trkpt lat="49.50841" lon="-1.28043">
        <ele>2.9</ele>
        <time>2020-06-15T14:47:20Z</time>
      </trkpt>
      <trkpt lat="49.50836" lon="-1.28039">
        <ele>2.9</ele>
        <time>2020-06-15T14:47:21Z</time>
      </trkpt>
      <trkpt lat="49.50832" lon="-1.28033">
        <ele>2.9</ele>
        <time>2020-06-15T14:47:22Z</time>
      </trkpt>
      <trkpt lat="49.50828" lon="-1.28027">
        <ele>3</ele>
        <time>2020-06-15T14:47:23Z</time>
      </trkpt>
      <trkpt lat="49.50824" lon="-1.28022">
        <ele>3</ele>
        <time>2020-06-15T14:47:24Z</time>
      </trkpt>
      <trkpt lat="49.50821" lon="-1.28016">
        <ele>3.1</ele>
        <time>2020-06-15T14:47:25Z</time>
      </trkpt>
      <trkpt lat="49.50817" lon="-1.2801">
        <ele>3.1</ele>
        <time>2020-06-15T14:47:26Z</time>
      </trkpt>
      <trkpt lat="49.50813" lon="-1.28005">
        <ele>3.2</ele>
        <time>2020-06-15T14:47:27Z</time>
      </trkpt>
      <trkpt lat="49.50809" lon="-1.28">
        <ele>3.2</ele>
        <time>2020-06-15T14:47:28Z</time>
      </trkpt>
      <trkpt lat="49.50806" lon="-1.27993">
        <ele>3.3</ele>
        <time>2020-06-15T14:47:29Z</time>
      </trkpt>
      <trkpt lat="49.50803" lon="-1.27987">
        <ele>3.3</ele>
        <time>2020-06-15T14:47:30Z</time>
      </trkpt>
      <trkpt lat="49.508" lon="-1.2798">
        <ele>3.4</ele>
        <time>2020-06-15T14:47:31Z</time>
      </trkpt>
      <trkpt lat="49.50796" lon="-1.27973">
        <ele>3.5</ele>
        <time>2020-06-15T14:47:32Z</time>
      </trkpt>
      <trkpt lat="49.50793" lon="-1.27968">
        <ele>3.5</ele>
        <time>2020-06-15T14:47:33Z</time>
      </trkpt>
      <trkpt lat="49.5079" lon="-1.27961">
        <ele>3.6</ele>
        <time>2020-06-15T14:47:34Z</time>
      </trkpt>
      <trkpt lat="49.50788" lon="-1.27955">
        <ele>3.6</ele>
        <time>2020-06-15T14:47:35Z</time>
      </trkpt>
      <trkpt lat="49.50785" lon="-1.27948">
        <ele>3.6</ele>
        <time>2020-06-15T14:47:36Z</time>
      </trkpt>
      <trkpt lat="49.50782" lon="-1.27942">
        <ele>3.7</ele>
        <time>2020-06-15T14:47:37Z</time>
      </trkpt>
      <trkpt lat="49.50779" lon="-1.27935">
        <ele>3.7</ele>
        <time>2020-06-15T14:47:38Z</time>
      </trkpt>
      <trkpt lat="49.50777" lon="-1.27929">
        <ele>3.7</ele>
        <time>2020-06-15T14:47:39Z</time>
      </trkpt>
      <trkpt lat="49.50774" lon="-1.27922">
        <ele>3.8</ele>
        <time>2020-06-15T14:47:40Z</time>
      </trkpt>
      <trkpt lat="49.5077" lon="-1.27916">
        <ele>3.8</ele>
        <time>2020-06-15T14:47:41Z</time>
      </trkpt>
      <trkpt lat="49.50767" lon="-1.2791">
        <ele>3.8</ele>
        <time>2020-06-15T14:47:42Z</time>
      </trkpt>
      <trkpt lat="49.50765" lon="-1.27903">
        <ele>3.9</ele>
        <time>2020-06-15T14:47:43Z</time>
      </trkpt>
      <trkpt lat="49.50762" lon="-1.27897">
        <ele>3.9</ele>
        <time>2020-06-15T14:47:44Z</time>
      </trkpt>
      <trkpt lat="49.50759" lon="-1.2789">
        <ele>3.9</ele>
        <time>2020-06-15T14:47:45Z</time>
      </trkpt>
      <trkpt lat="49.50755" lon="-1.27884">
        <ele>4</ele>
        <time>2020-06-15T14:47:46Z</time>
      </trkpt>
      <trkpt lat="49.50752" lon="-1.27878">
        <ele>4</ele>
        <time>2020-06-15T14:47:47Z</time>
      </trkpt>
      <trkpt lat="49.50749" lon="-1.27871">
        <ele>4</ele>
        <time>2020-06-15T14:47:48Z</time>
      </trkpt>
      <trkpt lat="49.50746" lon="-1.27864">
        <ele>4.1</ele>
        <time>2020-06-15T14:47:49Z</time>
      </trkpt>
      <trkpt lat="49.50743" lon="-1.27858">
        <ele>4.1</ele>
        <time>2020-06-15T14:47:50Z</time>
      </trkpt>
      <trkpt lat="49.5074" lon="-1.27852">
        <ele>4.1</ele>
        <time>2020-06-15T14:47:51Z</time>
      </trkpt>
      <trkpt lat="49.50736" lon="-1.27846">
        <ele>4.1</ele>
        <time>2020-06-15T14:47:52Z</time>
      </trkpt>
      <trkpt lat="49.50733" lon="-1.2784">
        <ele>4.2</ele>
        <time>2020-06-15T14:47:53Z</time>
      </trkpt>
      <trkpt lat="49.50729" lon="-1.27834">
        <ele>4.2</ele>
        <time>2020-06-15T14:47:54Z</time>
      </trkpt>
      <trkpt lat="49.50726" lon="-1.27828">
        <ele>4.3</ele>
        <time>2020-06-15T14:47:55Z</time>
      </trkpt>
      <trkpt lat="49.50722" lon="-1.27822">
        <ele>4.4</ele>
        <time>2020-06-15T14:47:56Z</time>
      </trkpt>
      <trkpt lat="49.50718" lon="-1.27816">
        <ele>4.5</ele>
        <time>2020-06-15T14:47:57Z</time>
      </trkpt>
      <trkpt lat="49.50714" lon="-1.27811">
        <ele>4.5</ele>
        <time>2020-06-15T14:47:58Z</time>
      </trkpt>
      <trkpt lat="49.5071" lon="-1.27805">
        <ele>4.6</ele>
        <time>2020-06-15T14:47:59Z</time>
      </trkpt>
      <trkpt lat="49.50707" lon="-1.27799">
        <ele>4.7</ele>
        <time>2020-06-15T14:48:00Z</time>
      </trkpt>
      <trkpt lat="49.50703" lon="-1.27793">
        <ele>4.8</ele>
        <time>2020-06-15T14:48:01Z</time>
      </trkpt>
      <trkpt lat="49.50699" lon="-1.27788">
        <ele>4.8</ele>
        <time>2020-06-15T14:48:02Z</time>
      </trkpt>
      <trkpt lat="49.50696" lon="-1.27782">
        <ele>4.8</ele>
        <time>2020-06-15T14:48:03Z</time>
      </trkpt>
      <trkpt lat="49.50692" lon="-1.27777">
        <ele>4.9</ele>
        <time>2020-06-15T14:48:04Z</time>
      </trkpt>
      <trkpt lat="49.50688" lon="-1.27771">
        <ele>4.9</ele>
        <time>2020-06-15T14:48:05Z</time>
      </trkpt>
      <trkpt lat="49.50684" lon="-1.27766">
        <ele>4.9</ele>
        <time>2020-06-15T14:48:06Z</time>
      </trkpt>
      <trkpt lat="49.5068" lon="-1.2776">
        <ele>5</ele>
        <time>2020-06-15T14:48:07Z</time>
      </trkpt>
      <trkpt lat="49.50676" lon="-1.27755">
        <ele>5</ele>
        <time>2020-06-15T14:48:08Z</time>
      </trkpt>
      <trkpt lat="49.50672" lon="-1.27751">
        <ele>5.1</ele>
        <time>2020-06-15T14:48:09Z</time>
      </trkpt>
      <trkpt lat="49.50667" lon="-1.27746">
        <ele>5.1</ele>
        <time>2020-06-15T14:48:10Z</time>
      </trkpt>
      <trkpt lat="49.50662" lon="-1.27741">
        <ele>5.1</ele>
        <time>2020-06-15T14:48:11Z</time>
      </trkpt>
      <trkpt lat="49.50658" lon="-1.27736">
        <ele>5.2</ele>
        <time>2020-06-15T14:48:12Z</time>
      </trkpt>
      <trkpt lat="49.50653" lon="-1.27732">
        <ele>5.2</ele>
        <time>2020-06-15T14:48:13Z</time>
      </trkpt>
      <trkpt lat="49.50649" lon="-1.27728">
        <ele>5.2</ele>
        <time>2020-06-15T14:48:14Z</time>
      </trkpt>
      <trkpt lat="49.50646" lon="-1.27724">
        <ele>5.2</ele>
        <time>2020-06-15T14:48:15Z</time>
      </trkpt>
      <trkpt lat="49.50642" lon="-1.27718">
        <ele>5.3</ele>
        <time>2020-06-15T14:48:16Z</time>
      </trkpt>
      <trkpt lat="49.50639" lon="-1.27713">
        <ele>5.3</ele>
        <time>2020-06-15T14:48:17Z</time>
      </trkpt>
      <trkpt lat="49.50635" lon="-1.27708">
        <ele>5.3</ele>
        <time>2020-06-15T14:48:18Z</time>
      </trkpt>
      <trkpt lat="49.5063" lon="-1.27704">
        <ele>5.3</ele>
        <time>2020-06-15T14:48:19Z</time>
      </trkpt>
      <trkpt lat="49.50626" lon="-1.27699">
        <ele>5.3</ele>
        <time>2020-06-15T14:48:20Z</time>
      </trkpt>
      <trkpt lat="49.50621" lon="-1.27695">
        <ele>5.3</ele>
        <time>2020-06-15T14:48:21Z</time>
      </trkpt>
      <trkpt lat="49.50616" lon="-1.27691">
        <ele>5.3</ele>
        <time>2020-06-15T14:48:22Z</time>
      </trkpt>
      <trkpt lat="49.50612" lon="-1.27686">
        <ele>5.3</ele>
        <time>2020-06-15T14:48:23Z</time>
      </trkpt>
      <trkpt lat="49.50607" lon="-1.27682">
        <ele>5.4</ele>
        <time>2020-06-15T14:48:24Z</time>
      </trkpt>
      <trkpt lat="49.50603" lon="-1.27677">
        <ele>5.4</ele>
        <time>2020-06-15T14:48:25Z</time>
      </trkpt>
      <trkpt lat="49.50598" lon="-1.27673">
        <ele>5.4</ele>
        <time>2020-06-15T14:48:26Z</time>
      </trkpt>
      <trkpt lat="49.50595" lon="-1.27668">
        <ele>5.4</ele>
        <time>2020-06-15T14:48:27Z</time>
      </trkpt>
      <trkpt lat="49.50591" lon="-1.27664">
        <ele>5.4</ele>
        <time>2020-06-15T14:48:28Z</time>
      </trkpt>
      <trkpt lat="49.50586" lon="-1.2766">
        <ele>5.4</ele>
        <time>2020-06-15T14:48:29Z</time>
      </trkpt>
      <trkpt lat="49.50582" lon="-1.27655">
        <ele>5.4</ele>
        <time>2020-06-15T14:48:30Z</time>
      </trkpt>
      <trkpt lat="49.50577" lon="-1.27651">
        <ele>5.4</ele>
        <time>2020-06-15T14:48:31Z</time>
      </trkpt>
      <trkpt lat="49.50572" lon="-1.27647">
        <ele>5.3</ele>
        <time>2020-06-15T14:48:32Z</time>
      </trkpt>
      <trkpt lat="49.50567" lon="-1.27643">
        <ele>5.3</ele>
        <time>2020-06-15T14:48:33Z</time>
      </trkpt>
      <trkpt lat="49.50563" lon="-1.27639">
        <ele>5.3</ele>
        <time>2020-06-15T14:48:34Z</time>
      </trkpt>
      <trkpt lat="49.50559" lon="-1.27635">
        <ele>5.3</ele>
        <time>2020-06-15T14:48:35Z</time>
      </trkpt>
      <trkpt lat="49.50555" lon="-1.2763">
        <ele>5.3</ele>
        <time>2020-06-15T14:48:36Z</time>
      </trkpt>
      <trkpt lat="49.50551" lon="-1.27627">
        <ele>5.3</ele>
        <time>2020-06-15T14:48:37Z</time>
      </trkpt>
      <trkpt lat="49.50547" lon="-1.27622">
        <ele>5.4</ele>
        <time>2020-06-15T14:48:38Z</time>
      </trkpt>
      <trkpt lat="49.50542" lon="-1.27618">
        <ele>5.4</ele>
        <time>2020-06-15T14:48:39Z</time>
      </trkpt>
      <trkpt lat="49.50538" lon="-1.27613">
        <ele>5.4</ele>
        <time>2020-06-15T14:48:40Z</time>
      </trkpt>
      <trkpt lat="49.50535" lon="-1.27607">
        <ele>5.4</ele>
        <time>2020-06-15T14:48:41Z</time>
      </trkpt>
      <trkpt lat="49.50531" lon="-1.27603">
        <ele>5.4</ele>
        <time>2020-06-15T14:48:42Z</time>
      </trkpt>
      <trkpt lat="49.50526" lon="-1.27598">
        <ele>5.5</ele>
        <time>2020-06-15T14:48:43Z</time>
      </trkpt>
      <trkpt lat="49.50521" lon="-1.27593">
        <ele>5.5</ele>
        <time>2020-06-15T14:48:44Z</time>
      </trkpt>
      <trkpt lat="49.50516" lon="-1.27589">
        <ele>5.4</ele>
        <time>2020-06-15T14:48:45Z</time>
      </trkpt>
      <trkpt lat="49.50511" lon="-1.27584">
        <ele>5.4</ele>
        <time>2020-06-15T14:48:46Z</time>
      </trkpt>
      <trkpt lat="49.50507" lon="-1.2758">
        <ele>5.4</ele>
        <time>2020-06-15T14:48:47Z</time>
      </trkpt>
      <trkpt lat="49.50502" lon="-1.27576">
        <ele>5.4</ele>
        <time>2020-06-15T14:48:48Z</time>
      </trkpt>
      <trkpt lat="49.50498" lon="-1.27571">
        <ele>5.4</ele>
        <time>2020-06-15T14:48:49Z</time>
      </trkpt>
      <trkpt lat="49.50494" lon="-1.27566">
        <ele>5.4</ele>
        <time>2020-06-15T14:48:50Z</time>
      </trkpt>
      <trkpt lat="49.5049" lon="-1.27562">
        <ele>5.4</ele>
        <time>2020-06-15T14:48:51Z</time>
      </trkpt>
      <trkpt lat="49.50486" lon="-1.27558">
        <ele>5.3</ele>
        <time>2020-06-15T14:48:52Z</time>
      </trkpt>
      <trkpt lat="49.50481" lon="-1.27552">
        <ele>5.3</ele>
        <time>2020-06-15T14:48:53Z</time>
      </trkpt>
      <trkpt lat="49.50477" lon="-1.27547">
        <ele>5.2</ele>
        <time>2020-06-15T14:48:54Z</time>
      </trkpt>
      <trkpt lat="49.50473" lon="-1.27542">
        <ele>5.2</ele>
        <time>2020-06-15T14:48:55Z</time>
      </trkpt>
      <trkpt lat="49.50469" lon="-1.27537">
        <ele>5.1</ele>
        <time>2020-06-15T14:48:56Z</time>
      </trkpt>
      <trkpt lat="49.50464" lon="-1.27533">
        <ele>5</ele>
        <time>2020-06-15T14:48:57Z</time>
      </trkpt>
      <trkpt lat="49.5046" lon="-1.27529">
        <ele>5</ele>
        <time>2020-06-15T14:48:58Z</time>
      </trkpt>
      <trkpt lat="49.50455" lon="-1.27524">
        <ele>4.9</ele>
        <time>2020-06-15T14:48:59Z</time>
      </trkpt>
      <trkpt lat="49.5045" lon="-1.27518">
        <ele>4.9</ele>
        <time>2020-06-15T14:49:00Z</time>
      </trkpt>
      <trkpt lat="49.50446" lon="-1.27513">
        <ele>4.8</ele>
        <time>2020-06-15T14:49:01Z</time>
      </trkpt>
      <trkpt lat="49.50442" lon="-1.27508">
        <ele>4.7</ele>
        <time>2020-06-15T14:49:02Z</time>
      </trkpt>
      <trkpt lat="49.50437" lon="-1.27503">
        <ele>4.7</ele>
        <time>2020-06-15T14:49:03Z</time>
      </trkpt>
      <trkpt lat="49.50433" lon="-1.27498">
        <ele>4.6</ele>
        <time>2020-06-15T14:49:04Z</time>
      </trkpt>
      <trkpt lat="49.50429" lon="-1.27494">
        <ele>4.6</ele>
        <time>2020-06-15T14:49:05Z</time>
      </trkpt>
      <trkpt lat="49.50424" lon="-1.27489">
        <ele>4.5</ele>
        <time>2020-06-15T14:49:06Z</time>
      </trkpt>
      <trkpt lat="49.50419" lon="-1.27484">
        <ele>4.5</ele>
        <time>2020-06-15T14:49:07Z</time>
      </trkpt>
      <trkpt lat="49.50414" lon="-1.2748">
        <ele>4.4</ele>
        <time>2020-06-15T14:49:08Z</time>
      </trkpt>
      <trkpt lat="49.5041" lon="-1.27475">
        <ele>4.4</ele>
        <time>2020-06-15T14:49:09Z</time>
      </trkpt>
      <trkpt lat="49.50406" lon="-1.2747">
        <ele>4.3</ele>
        <time>2020-06-15T14:49:10Z</time>
      </trkpt>
      <trkpt lat="49.50401" lon="-1.27464">
        <ele>4.3</ele>
        <time>2020-06-15T14:49:11Z</time>
      </trkpt>
      <trkpt lat="49.50396" lon="-1.27459">
        <ele>4.2</ele>
        <time>2020-06-15T14:49:12Z</time>
      </trkpt>
      <trkpt lat="49.50392" lon="-1.27453">
        <ele>4.2</ele>
        <time>2020-06-15T14:49:13Z</time>
      </trkpt>
      <trkpt lat="49.50387" lon="-1.27448">
        <ele>4.2</ele>
        <time>2020-06-15T14:49:14Z</time>
      </trkpt>
      <trkpt lat="49.50383" lon="-1.27442">
        <ele>4.2</ele>
        <time>2020-06-15T14:49:15Z</time>
      </trkpt>
      <trkpt lat="49.50378" lon="-1.27438">
        <ele>4.1</ele>
        <time>2020-06-15T14:49:16Z</time>
      </trkpt>
      <trkpt lat="49.50374" lon="-1.27433">
        <ele>4.1</ele>
        <time>2020-06-15T14:49:17Z</time>
      </trkpt>
      <trkpt lat="49.50369" lon="-1.27427">
        <ele>4.1</ele>
        <time>2020-06-15T14:49:18Z</time>
      </trkpt>
      <trkpt lat="49.50364" lon="-1.27421">
        <ele>4.2</ele>
        <time>2020-06-15T14:49:19Z</time>
      </trkpt>
      <trkpt lat="49.5036" lon="-1.27416">
        <ele>4.2</ele>
        <time>2020-06-15T14:49:20Z</time>
      </trkpt>
      <trkpt lat="49.50355" lon="-1.27411">
        <ele>4.3</ele>
        <time>2020-06-15T14:49:21Z</time>
      </trkpt>
      <trkpt lat="49.50351" lon="-1.27406">
        <ele>4.3</ele>
        <time>2020-06-15T14:49:22Z</time>
      </trkpt>
      <trkpt lat="49.50346" lon="-1.27401">
        <ele>4.4</ele>
        <time>2020-06-15T14:49:23Z</time>
      </trkpt>
      <trkpt lat="49.50342" lon="-1.27397">
        <ele>4.4</ele>
        <time>2020-06-15T14:49:24Z</time>
      </trkpt>
      <trkpt lat="49.50339" lon="-1.27393">
        <ele>4.5</ele>
        <time>2020-06-15T14:49:25Z</time>
      </trkpt>
      <trkpt lat="49.50335" lon="-1.27388">
        <ele>4.5</ele>
        <time>2020-06-15T14:49:26Z</time>
      </trkpt>
      <trkpt lat="49.50331" lon="-1.27383">
        <ele>4.5</ele>
        <time>2020-06-15T14:49:27Z</time>
      </trkpt>
      <trkpt lat="49.50326" lon="-1.27378">
        <ele>4.5</ele>
        <time>2020-06-15T14:49:28Z</time>
      </trkpt>
      <trkpt lat="49.50321" lon="-1.27374">
        <ele>4.5</ele>
        <time>2020-06-15T14:49:29Z</time>
      </trkpt>
      <trkpt lat="49.50317" lon="-1.27369">
        <ele>4.5</ele>
        <time>2020-06-15T14:49:30Z</time>
      </trkpt>
      <trkpt lat="49.50314" lon="-1.27362">
        <ele>4.5</ele>
        <time>2020-06-15T14:49:31Z</time>
      </trkpt>
      <trkpt lat="49.50309" lon="-1.27357">
        <ele>4.6</ele>
        <time>2020-06-15T14:49:32Z</time>
      </trkpt>
      <trkpt lat="49.50305" lon="-1.27352">
        <ele>4.6</ele>
        <time>2020-06-15T14:49:33Z</time>
      </trkpt>
      <trkpt lat="49.50301" lon="-1.27348">
        <ele>4.6</ele>
        <time>2020-06-15T14:49:34Z</time>
      </trkpt>
      <trkpt lat="49.50297" lon="-1.27343">
        <ele>4.6</ele>
        <time>2020-06-15T14:49:35Z</time>
      </trkpt>
      <trkpt lat="49.50292" lon="-1.27338">
        <ele>4.6</ele>
        <time>2020-06-15T14:49:36Z</time>
      </trkpt>
      <trkpt lat="49.50288" lon="-1.27332">
        <ele>4.6</ele>
        <time>2020-06-15T14:49:37Z</time>
      </trkpt>
      <trkpt lat="49.50284" lon="-1.27326">
        <ele>4.6</ele>
        <time>2020-06-15T14:49:38Z</time>
      </trkpt>
      <trkpt lat="49.50279" lon="-1.27321">
        <ele>4.6</ele>
        <time>2020-06-15T14:49:39Z</time>
      </trkpt>
      <trkpt lat="49.50275" lon="-1.27316">
        <ele>4.5</ele>
        <time>2020-06-15T14:49:40Z</time>
      </trkpt>
      <trkpt lat="49.50271" lon="-1.27311">
        <ele>4.5</ele>
        <time>2020-06-15T14:49:41Z</time>
      </trkpt>
      <trkpt lat="49.50266" lon="-1.27306">
        <ele>4.5</ele>
        <time>2020-06-15T14:49:42Z</time>
      </trkpt>
      <trkpt lat="49.50262" lon="-1.27301">
        <ele>4.5</ele>
        <time>2020-06-15T14:49:43Z</time>
      </trkpt>
      <trkpt lat="49.50256" lon="-1.27294">
        <ele>4.5</ele>
        <time>2020-06-15T14:49:44Z</time>
      </trkpt>
      <trkpt lat="49.50252" lon="-1.27288">
        <ele>4.5</ele>
        <time>2020-06-15T14:49:45Z</time>
      </trkpt>
      <trkpt lat="49.50247" lon="-1.27283">
        <ele>4.5</ele>
        <time>2020-06-15T14:49:46Z</time>
      </trkpt>
      <trkpt lat="49.50243" lon="-1.27278">
        <ele>4.4</ele>
        <time>2020-06-15T14:49:47Z</time>
      </trkpt>
      <trkpt lat="49.50237" lon="-1.27273">
        <ele>4.4</ele>
        <time>2020-06-15T14:49:48Z</time>
      </trkpt>
      <trkpt lat="49.50232" lon="-1.27267">
        <ele>4.4</ele>
        <time>2020-06-15T14:49:49Z</time>
      </trkpt>
      <trkpt lat="49.50228" lon="-1.27261">
        <ele>4.4</ele>
        <time>2020-06-15T14:49:50Z</time>
      </trkpt>
      <trkpt lat="49.50223" lon="-1.27256">
        <ele>4.4</ele>
        <time>2020-06-15T14:49:51Z</time>
      </trkpt>
      <trkpt lat="49.50218" lon="-1.2725">
        <ele>4.4</ele>
        <time>2020-06-15T14:49:52Z</time>
      </trkpt>
      <trkpt lat="49.50214" lon="-1.27244">
        <ele>4.4</ele>
        <time>2020-06-15T14:49:53Z</time>
      </trkpt>
      <trkpt lat="49.50209" lon="-1.27239">
        <ele>4.5</ele>
        <time>2020-06-15T14:49:54Z</time>
      </trkpt>
      <trkpt lat="49.50205" lon="-1.27233">
        <ele>4.5</ele>
        <time>2020-06-15T14:49:55Z</time>
      </trkpt>
      <trkpt lat="49.502" lon="-1.27227">
        <ele>4.5</ele>
        <time>2020-06-15T14:49:56Z</time>
      </trkpt>
      <trkpt lat="49.50196" lon="-1.27222">
        <ele>4.5</ele>
        <time>2020-06-15T14:49:57Z</time>
      </trkpt>
      <trkpt lat="49.50192" lon="-1.27216">
        <ele>4.4</ele>
        <time>2020-06-15T14:49:58Z</time>
      </trkpt>
      <trkpt lat="49.50187" lon="-1.27211">
        <ele>4.4</ele>
        <time>2020-06-15T14:49:59Z</time>
      </trkpt>
      <trkpt lat="49.50183" lon="-1.27205">
        <ele>4.4</ele>
        <time>2020-06-15T14:50:00Z</time>
      </trkpt>
      <trkpt lat="49.50179" lon="-1.272">
        <ele>4.4</ele>
        <time>2020-06-15T14:50:01Z</time>
      </trkpt>
      <trkpt lat="49.50174" lon="-1.27194">
        <ele>4.4</ele>
        <time>2020-06-15T14:50:02Z</time>
      </trkpt>
      <trkpt lat="49.5017" lon="-1.27189">
        <ele>4.4</ele>
        <time>2020-06-15T14:50:03Z</time>
      </trkpt>
      <trkpt lat="49.50165" lon="-1.27184">
        <ele>4.4</ele>
        <time>2020-06-15T14:50:04Z</time>
      </trkpt>
      <trkpt lat="49.50161" lon="-1.27179">
        <ele>4.5</ele>
        <time>2020-06-15T14:50:05Z</time>
      </trkpt>
      <trkpt lat="49.50156" lon="-1.27173">
        <ele>4.5</ele>
        <time>2020-06-15T14:50:06Z</time>
      </trkpt>
      <trkpt lat="49.50151" lon="-1.27168">
        <ele>4.5</ele>
        <time>2020-06-15T14:50:07Z</time>
      </trkpt>
      <trkpt lat="49.50146" lon="-1.27163">
        <ele>4.5</ele>
        <time>2020-06-15T14:50:08Z</time>
      </trkpt>
      <trkpt lat="49.50142" lon="-1.27158">
        <ele>4.5</ele>
        <time>2020-06-15T14:50:09Z</time>
      </trkpt>
      <trkpt lat="49.50138" lon="-1.27153">
        <ele>4.4</ele>
        <time>2020-06-15T14:50:10Z</time>
      </trkpt>
      <trkpt lat="49.50134" lon="-1.27148">
        <ele>4.4</ele>
        <time>2020-06-15T14:50:11Z</time>
      </trkpt>
      <trkpt lat="49.50129" lon="-1.27144">
        <ele>4.4</ele>
        <time>2020-06-15T14:50:12Z</time>
      </trkpt>
      <trkpt lat="49.50125" lon="-1.27139">
        <ele>4.4</ele>
        <time>2020-06-15T14:50:13Z</time>
      </trkpt>
      <trkpt lat="49.50121" lon="-1.27134">
        <ele>4.4</ele>
        <time>2020-06-15T14:50:14Z</time>
      </trkpt>
      <trkpt lat="49.50117" lon="-1.2713">
        <ele>4.4</ele>
        <time>2020-06-15T14:50:15Z</time>
      </trkpt>
      <trkpt lat="49.50114" lon="-1.27124">
        <ele>4.4</ele>
        <time>2020-06-15T14:50:16Z</time>
      </trkpt>
      <trkpt lat="49.5011" lon="-1.27119">
        <ele>4.4</ele>
        <time>2020-06-15T14:50:17Z</time>
      </trkpt>
      <trkpt lat="49.50106" lon="-1.27114">
        <ele>4.4</ele>
        <time>2020-06-15T14:50:18Z</time>
      </trkpt>
      <trkpt lat="49.50102" lon="-1.27108">
        <ele>4.4</ele>
        <time>2020-06-15T14:50:19Z</time>
      </trkpt>
      <trkpt lat="49.50098" lon="-1.27102">
        <ele>4.4</ele>
        <time>2020-06-15T14:50:20Z</time>
      </trkpt>
      <trkpt lat="49.50093" lon="-1.27097">
        <ele>4.4</ele>
        <time>2020-06-15T14:50:21Z</time>
      </trkpt>
      <trkpt lat="49.5009" lon="-1.27091">
        <ele>4.4</ele>
        <time>2020-06-15T14:50:22Z</time>
      </trkpt>
      <trkpt lat="49.50086" lon="-1.27086">
        <ele>4.4</ele>
        <time>2020-06-15T14:50:23Z</time>
      </trkpt>
      <trkpt lat="49.50082" lon="-1.27081">
        <ele>4.5</ele>
        <time>2020-06-15T14:50:24Z</time>
      </trkpt>
      <trkpt lat="49.50078" lon="-1.27076">
        <ele>4.5</ele>
        <time>2020-06-15T14:50:25Z</time>
      </trkpt>
      <trkpt lat="49.50074" lon="-1.27071">
        <ele>4.5</ele>
        <time>2020-06-15T14:50:26Z</time>
      </trkpt>
      <trkpt lat="49.50069" lon="-1.27066">
        <ele>4.5</ele>
        <time>2020-06-15T14:50:27Z</time>
      </trkpt>
      <trkpt lat="49.50064" lon="-1.27061">
        <ele>4.5</ele>
        <time>2020-06-15T14:50:28Z</time>
      </trkpt>
      <trkpt lat="49.5006" lon="-1.27056">
        <ele>4.6</ele>
        <time>2020-06-15T14:50:29Z</time>
      </trkpt>
      <trkpt lat="49.50055" lon="-1.27051">
        <ele>4.6</ele>
        <time>2020-06-15T14:50:30Z</time>
      </trkpt>
      <trkpt lat="49.50051" lon="-1.27047">
        <ele>4.6</ele>
        <time>2020-06-15T14:50:31Z</time>
      </trkpt>
      <trkpt lat="49.50047" lon="-1.27043">
        <ele>4.6</ele>
        <time>2020-06-15T14:50:32Z</time>
      </trkpt>
      <trkpt lat="49.50042" lon="-1.27038">
        <ele>4.5</ele>
        <time>2020-06-15T14:50:33Z</time>
      </trkpt>
      <trkpt lat="49.50038" lon="-1.27031">
        <ele>4.5</ele>
        <time>2020-06-15T14:50:34Z</time>
      </trkpt>
      <trkpt lat="49.50033" lon="-1.27025">
        <ele>4.5</ele>
        <time>2020-06-15T14:50:35Z</time>
      </trkpt>
      <trkpt lat="49.50029" lon="-1.27018">
        <ele>4.4</ele>
        <time>2020-06-15T14:50:36Z</time>
      </trkpt>
      <trkpt lat="49.50024" lon="-1.27012">
        <ele>4.4</ele>
        <time>2020-06-15T14:50:37Z</time>
      </trkpt>
      <trkpt lat="49.50019" lon="-1.27006">
        <ele>4.4</ele>
        <time>2020-06-15T14:50:38Z</time>
      </trkpt>
      <trkpt lat="49.50014" lon="-1.27002">
        <ele>4.4</ele>
        <time>2020-06-15T14:50:39Z</time>
      </trkpt>
      <trkpt lat="49.50009" lon="-1.26997">
        <ele>4.4</ele>
        <time>2020-06-15T14:50:40Z</time>
      </trkpt>
      <trkpt lat="49.50004" lon="-1.26992">
        <ele>4.4</ele>
        <time>2020-06-15T14:50:41Z</time>
      </trkpt>
      <trkpt lat="49.5" lon="-1.26987">
        <ele>4.3</ele>
        <time>2020-06-15T14:50:42Z</time>
      </trkpt>
      <trkpt lat="49.49995" lon="-1.26982">
        <ele>4.3</ele>
        <time>2020-06-15T14:50:43Z</time>
      </trkpt>
      <trkpt lat="49.49989" lon="-1.26978">
        <ele>4.3</ele>
        <time>2020-06-15T14:50:44Z</time>
      </trkpt>
      <trkpt lat="49.49985" lon="-1.26973">
        <ele>4.2</ele>
        <time>2020-06-15T14:50:45Z</time>
      </trkpt>
      <trkpt lat="49.4998" lon="-1.26968">
        <ele>4.2</ele>
        <time>2020-06-15T14:50:46Z</time>
      </trkpt>
      <trkpt lat="49.49975" lon="-1.26963">
        <ele>4.2</ele>
        <time>2020-06-15T14:50:47Z</time>
      </trkpt>
      <trkpt lat="49.4997" lon="-1.26958">
        <ele>4.2</ele>
        <time>2020-06-15T14:50:48Z</time>
      </trkpt>
      <trkpt lat="49.49965" lon="-1.26953">
        <ele>4.1</ele>
        <time>2020-06-15T14:50:49Z</time>
      </trkpt>
      <trkpt lat="49.4996" lon="-1.26948">
        <ele>4.1</ele>
        <time>2020-06-15T14:50:50Z</time>
      </trkpt>
      <trkpt lat="49.49955" lon="-1.26945">
        <ele>4.1</ele>
        <time>2020-06-15T14:50:51Z</time>
      </trkpt>
      <trkpt lat="49.4995" lon="-1.26942">
        <ele>4.1</ele>
        <time>2020-06-15T14:50:52Z</time>
      </trkpt>
      <trkpt lat="49.49945" lon="-1.26938">
        <ele>4.1</ele>
        <time>2020-06-15T14:50:53Z</time>
      </trkpt>
      <trkpt lat="49.4994" lon="-1.26934">
        <ele>4.1</ele>
        <time>2020-06-15T14:50:54Z</time>
      </trkpt>
      <trkpt lat="49.49935" lon="-1.26929">
        <ele>4.1</ele>
        <time>2020-06-15T14:50:55Z</time>
      </trkpt>
      <trkpt lat="49.4993" lon="-1.26924">
        <ele>4</ele>
        <time>2020-06-15T14:50:56Z</time>
      </trkpt>
      <trkpt lat="49.49925" lon="-1.2692">
        <ele>4</ele>
        <time>2020-06-15T14:50:57Z</time>
      </trkpt>
      <trkpt lat="49.4992" lon="-1.26917">
        <ele>4</ele>
        <time>2020-06-15T14:50:58Z</time>
      </trkpt>
      <trkpt lat="49.49915" lon="-1.26913">
        <ele>4</ele>
        <time>2020-06-15T14:50:59Z</time>
      </trkpt>
      <trkpt lat="49.49911" lon="-1.26908">
        <ele>4</ele>
        <time>2020-06-15T14:51:00Z</time>
      </trkpt>
      <trkpt lat="49.49906" lon="-1.26903">
        <ele>4</ele>
        <time>2020-06-15T14:51:01Z</time>
      </trkpt>
      <trkpt lat="49.49901" lon="-1.26899">
        <ele>4</ele>
        <time>2020-06-15T14:51:02Z</time>
      </trkpt>
      <trkpt lat="49.49895" lon="-1.26895">
        <ele>4</ele>
        <time>2020-06-15T14:51:03Z</time>
      </trkpt>
      <trkpt lat="49.4989" lon="-1.26891">
        <ele>4</ele>
        <time>2020-06-15T14:51:04Z</time>
      </trkpt>
      <trkpt lat="49.49885" lon="-1.26887">
        <ele>4</ele>
        <time>2020-06-15T14:51:05Z</time>
      </trkpt>
      <trkpt lat="49.4988" lon="-1.26883">
        <ele>4</ele>
        <time>2020-06-15T14:51:06Z</time>
      </trkpt>
      <trkpt lat="49.49875" lon="-1.26878">
        <ele>4</ele>
        <time>2020-06-15T14:51:07Z</time>
      </trkpt>
      <trkpt lat="49.49871" lon="-1.26874">
        <ele>4</ele>
        <time>2020-06-15T14:51:08Z</time>
      </trkpt>
      <trkpt lat="49.49867" lon="-1.26869">
        <ele>4</ele>
        <time>2020-06-15T14:51:09Z</time>
      </trkpt>
      <trkpt lat="49.49862" lon="-1.26866">
        <ele>4</ele>
        <time>2020-06-15T14:51:10Z</time>
      </trkpt>
      <trkpt lat="49.49857" lon="-1.26861">
        <ele>4</ele>
        <time>2020-06-15T14:51:11Z</time>
      </trkpt>
      <trkpt lat="49.49852" lon="-1.26858">
        <ele>4</ele>
        <time>2020-06-15T14:51:12Z</time>
      </trkpt>
      <trkpt lat="49.49847" lon="-1.26852">
        <ele>4</ele>
        <time>2020-06-15T14:51:13Z</time>
      </trkpt>
      <trkpt lat="49.49842" lon="-1.26848">
        <ele>4</ele>
        <time>2020-06-15T14:51:14Z</time>
      </trkpt>
      <trkpt lat="49.49838" lon="-1.26844">
        <ele>4</ele>
        <time>2020-06-15T14:51:15Z</time>
      </trkpt>
      <trkpt lat="49.49833" lon="-1.2684">
        <ele>4</ele>
        <time>2020-06-15T14:51:16Z</time>
      </trkpt>
      <trkpt lat="49.49828" lon="-1.26836">
        <ele>4</ele>
        <time>2020-06-15T14:51:17Z</time>
      </trkpt>
      <trkpt lat="49.49824" lon="-1.26832">
        <ele>4</ele>
        <time>2020-06-15T14:51:18Z</time>
      </trkpt>
      <trkpt lat="49.49819" lon="-1.26829">
        <ele>4</ele>
        <time>2020-06-15T14:51:19Z</time>
      </trkpt>
      <trkpt lat="49.49814" lon="-1.26825">
        <ele>4</ele>
        <time>2020-06-15T14:51:20Z</time>
      </trkpt>
      <trkpt lat="49.4981" lon="-1.26822">
        <ele>4</ele>
        <time>2020-06-15T14:51:21Z</time>
      </trkpt>
      <trkpt lat="49.49805" lon="-1.26817">
        <ele>4</ele>
        <time>2020-06-15T14:51:22Z</time>
      </trkpt>
      <trkpt lat="49.49801" lon="-1.26813">
        <ele>4</ele>
        <time>2020-06-15T14:51:23Z</time>
      </trkpt>
      <trkpt lat="49.49796" lon="-1.2681">
        <ele>4</ele>
        <time>2020-06-15T14:51:24Z</time>
      </trkpt>
      <trkpt lat="49.49792" lon="-1.26807">
        <ele>4.1</ele>
        <time>2020-06-15T14:51:25Z</time>
      </trkpt>
      <trkpt lat="49.49787" lon="-1.26804">
        <ele>4.1</ele>
        <time>2020-06-15T14:51:26Z</time>
      </trkpt>
      <trkpt lat="49.49783" lon="-1.268">
        <ele>4.1</ele>
        <time>2020-06-15T14:51:27Z</time>
      </trkpt>
      <trkpt lat="49.49777" lon="-1.26797">
        <ele>4.1</ele>
        <time>2020-06-15T14:51:28Z</time>
      </trkpt>
      <trkpt lat="49.49772" lon="-1.26792">
        <ele>4</ele>
        <time>2020-06-15T14:51:29Z</time>
      </trkpt>
      <trkpt lat="49.49767" lon="-1.26788">
        <ele>4</ele>
        <time>2020-06-15T14:51:30Z</time>
      </trkpt>
      <trkpt lat="49.49762" lon="-1.26784">
        <ele>4</ele>
        <time>2020-06-15T14:51:31Z</time>
      </trkpt>
      <trkpt lat="49.49757" lon="-1.2678">
        <ele>4</ele>
        <time>2020-06-15T14:51:32Z</time>
      </trkpt>
      <trkpt lat="49.49753" lon="-1.26776">
        <ele>4</ele>
        <time>2020-06-15T14:51:33Z</time>
      </trkpt>
      <trkpt lat="49.49749" lon="-1.26773">
        <ele>3.9</ele>
        <time>2020-06-15T14:51:34Z</time>
      </trkpt>
      <trkpt lat="49.49745" lon="-1.26769">
        <ele>3.9</ele>
        <time>2020-06-15T14:51:35Z</time>
      </trkpt>
      <trkpt lat="49.4974" lon="-1.26765">
        <ele>3.9</ele>
        <time>2020-06-15T14:51:36Z</time>
      </trkpt>
      <trkpt lat="49.49735" lon="-1.26762">
        <ele>3.9</ele>
        <time>2020-06-15T14:51:37Z</time>
      </trkpt>
      <trkpt lat="49.49731" lon="-1.26758">
        <ele>3.9</ele>
        <time>2020-06-15T14:51:38Z</time>
      </trkpt>
      <trkpt lat="49.49727" lon="-1.26754">
        <ele>3.8</ele>
        <time>2020-06-15T14:51:39Z</time>
      </trkpt>
      <trkpt lat="49.49721" lon="-1.26751">
        <ele>3.8</ele>
        <time>2020-06-15T14:51:40Z</time>
      </trkpt>
      <trkpt lat="49.49716" lon="-1.26748">
        <ele>3.8</ele>
        <time>2020-06-15T14:51:41Z</time>
      </trkpt>
      <trkpt lat="49.49712" lon="-1.26744">
        <ele>3.7</ele>
        <time>2020-06-15T14:51:42Z</time>
      </trkpt>
      <trkpt lat="49.49707" lon="-1.2674">
        <ele>3.7</ele>
        <time>2020-06-15T14:51:43Z</time>
      </trkpt>
      <trkpt lat="49.49701" lon="-1.26736">
        <ele>3.7</ele>
        <time>2020-06-15T14:51:44Z</time>
      </trkpt>
      <trkpt lat="49.49697" lon="-1.26731">
        <ele>3.6</ele>
        <time>2020-06-15T14:51:45Z</time>
      </trkpt>
      <trkpt lat="49.49692" lon="-1.26727">
        <ele>3.6</ele>
        <time>2020-06-15T14:51:46Z</time>
      </trkpt>
      <trkpt lat="49.49688" lon="-1.26723">
        <ele>3.6</ele>
        <time>2020-06-15T14:51:47Z</time>
      </trkpt>
      <trkpt lat="49.49683" lon="-1.26719">
        <ele>3.6</ele>
        <time>2020-06-15T14:51:48Z</time>
      </trkpt>
      <trkpt lat="49.49678" lon="-1.26714">
        <ele>3.6</ele>
        <time>2020-06-15T14:51:49Z</time>
      </trkpt>
      <trkpt lat="49.49673" lon="-1.26711">
        <ele>3.6</ele>
        <time>2020-06-15T14:51:50Z</time>
      </trkpt>
      <trkpt lat="49.49668" lon="-1.26707">
        <ele>3.6</ele>
        <time>2020-06-15T14:51:51Z</time>
      </trkpt>
      <trkpt lat="49.49663" lon="-1.26704">
        <ele>3.6</ele>
        <time>2020-06-15T14:51:52Z</time>
      </trkpt>
      <trkpt lat="49.49658" lon="-1.267">
        <ele>3.6</ele>
        <time>2020-06-15T14:51:53Z</time>
      </trkpt>
      <trkpt lat="49.49654" lon="-1.26696">
        <ele>3.7</ele>
        <time>2020-06-15T14:51:54Z</time>
      </trkpt>
      <trkpt lat="49.49649" lon="-1.26693">
        <ele>3.7</ele>
        <time>2020-06-15T14:51:55Z</time>
      </trkpt>
      <trkpt lat="49.49643" lon="-1.26688">
        <ele>3.7</ele>
        <time>2020-06-15T14:51:56Z</time>
      </trkpt>
      <trkpt lat="49.49638" lon="-1.26685">
        <ele>3.8</ele>
        <time>2020-06-15T14:51:57Z</time>
      </trkpt>
      <trkpt lat="49.49633" lon="-1.26681">
        <ele>3.8</ele>
        <time>2020-06-15T14:51:58Z</time>
      </trkpt>
      <trkpt lat="49.49628" lon="-1.26677">
        <ele>3.8</ele>
        <time>2020-06-15T14:51:59Z</time>
      </trkpt>
      <trkpt lat="49.49622" lon="-1.26673">
        <ele>3.7</ele>
        <time>2020-06-15T14:52:00Z</time>
      </trkpt>
      <trkpt lat="49.49617" lon="-1.26669">
        <ele>3.7</ele>
        <time>2020-06-15T14:52:01Z</time>
      </trkpt>
      <trkpt lat="49.49612" lon="-1.26665">
        <ele>3.7</ele>
        <time>2020-06-15T14:52:02Z</time>
      </trkpt>
      <trkpt lat="49.49607" lon="-1.26662">
        <ele>3.7</ele>
        <time>2020-06-15T14:52:03Z</time>
      </trkpt>
      <trkpt lat="49.49603" lon="-1.26658">
        <ele>3.8</ele>
        <time>2020-06-15T14:52:04Z</time>
      </trkpt>
      <trkpt lat="49.49598" lon="-1.26655">
        <ele>3.8</ele>
        <time>2020-06-15T14:52:05Z</time>
      </trkpt>
      <trkpt lat="49.49594" lon="-1.26651">
        <ele>3.8</ele>
        <time>2020-06-15T14:52:06Z</time>
      </trkpt>
      <trkpt lat="49.49588" lon="-1.26648">
        <ele>3.8</ele>
        <time>2020-06-15T14:52:07Z</time>
      </trkpt>
      <trkpt lat="49.49584" lon="-1.26644">
        <ele>3.8</ele>
        <time>2020-06-15T14:52:08Z</time>
      </trkpt>
      <trkpt lat="49.49579" lon="-1.2664">
        <ele>3.9</ele>
        <time>2020-06-15T14:52:09Z</time>
      </trkpt>
      <trkpt lat="49.49574" lon="-1.26635">
        <ele>3.9</ele>
        <time>2020-06-15T14:52:10Z</time>
      </trkpt>
      <trkpt lat="49.4957" lon="-1.26631">
        <ele>3.9</ele>
        <time>2020-06-15T14:52:11Z</time>
      </trkpt>
      <trkpt lat="49.49565" lon="-1.26627">
        <ele>3.9</ele>
        <time>2020-06-15T14:52:12Z</time>
      </trkpt>
      <trkpt lat="49.4956" lon="-1.26624">
        <ele>3.9</ele>
        <time>2020-06-15T14:52:13Z</time>
      </trkpt>
      <trkpt lat="49.49555" lon="-1.26619">
        <ele>4</ele>
        <time>2020-06-15T14:52:14Z</time>
      </trkpt>
      <trkpt lat="49.4955" lon="-1.26615">
        <ele>4</ele>
        <time>2020-06-15T14:52:15Z</time>
      </trkpt>
      <trkpt lat="49.49546" lon="-1.26612">
        <ele>4</ele>
        <time>2020-06-15T14:52:16Z</time>
      </trkpt>
      <trkpt lat="49.49542" lon="-1.26607">
        <ele>4</ele>
        <time>2020-06-15T14:52:17Z</time>
      </trkpt>
      <trkpt lat="49.49537" lon="-1.26603">
        <ele>4</ele>
        <time>2020-06-15T14:52:18Z</time>
      </trkpt>
      <trkpt lat="49.49533" lon="-1.26599">
        <ele>4</ele>
        <time>2020-06-15T14:52:19Z</time>
      </trkpt>
      <trkpt lat="49.49528" lon="-1.26596">
        <ele>3.9</ele>
        <time>2020-06-15T14:52:20Z</time>
      </trkpt>
      <trkpt lat="49.49523" lon="-1.26592">
        <ele>3.9</ele>
        <time>2020-06-15T14:52:21Z</time>
      </trkpt>
      <trkpt lat="49.49519" lon="-1.26587">
        <ele>3.9</ele>
        <time>2020-06-15T14:52:22Z</time>
      </trkpt>
      <trkpt lat="49.49514" lon="-1.26583">
        <ele>3.9</ele>
        <time>2020-06-15T14:52:23Z</time>
      </trkpt>
      <trkpt lat="49.49509" lon="-1.26579">
        <ele>3.9</ele>
        <time>2020-06-15T14:52:24Z</time>
      </trkpt>
      <trkpt lat="49.49504" lon="-1.26574">
        <ele>3.9</ele>
        <time>2020-06-15T14:52:25Z</time>
      </trkpt>
      <trkpt lat="49.495" lon="-1.26571">
        <ele>3.9</ele>
        <time>2020-06-15T14:52:26Z</time>
      </trkpt>
      <trkpt lat="49.49495" lon="-1.26567">
        <ele>3.8</ele>
        <time>2020-06-15T14:52:27Z</time>
      </trkpt>
      <trkpt lat="49.4949" lon="-1.26563">
        <ele>3.8</ele>
        <time>2020-06-15T14:52:28Z</time>
      </trkpt>
      <trkpt lat="49.49485" lon="-1.26558">
        <ele>3.8</ele>
        <time>2020-06-15T14:52:29Z</time>
      </trkpt>
      <trkpt lat="49.4948" lon="-1.26554">
        <ele>3.8</ele>
        <time>2020-06-15T14:52:30Z</time>
      </trkpt>
      <trkpt lat="49.49475" lon="-1.26551">
        <ele>3.7</ele>
        <time>2020-06-15T14:52:31Z</time>
      </trkpt>
      <trkpt lat="49.49471" lon="-1.26548">
        <ele>3.7</ele>
        <time>2020-06-15T14:52:32Z</time>
      </trkpt>
      <trkpt lat="49.49466" lon="-1.26546">
        <ele>3.7</ele>
        <time>2020-06-15T14:52:33Z</time>
      </trkpt>
      <trkpt lat="49.49461" lon="-1.26544">
        <ele>3.7</ele>
        <time>2020-06-15T14:52:34Z</time>
      </trkpt>
      <trkpt lat="49.49456" lon="-1.26542">
        <ele>3.7</ele>
        <time>2020-06-15T14:52:35Z</time>
      </trkpt>
      <trkpt lat="49.49451" lon="-1.2654">
        <ele>3.6</ele>
        <time>2020-06-15T14:52:36Z</time>
      </trkpt>
      <trkpt lat="49.49445" lon="-1.26535">
        <ele>3.5</ele>
        <time>2020-06-15T14:52:37Z</time>
      </trkpt>
      <trkpt lat="49.4944" lon="-1.26532">
        <ele>3.5</ele>
        <time>2020-06-15T14:52:38Z</time>
      </trkpt>
      <trkpt lat="49.49435" lon="-1.26528">
        <ele>3.4</ele>
        <time>2020-06-15T14:52:39Z</time>
      </trkpt>
      <trkpt lat="49.49429" lon="-1.26525">
        <ele>3.4</ele>
        <time>2020-06-15T14:52:40Z</time>
      </trkpt>
      <trkpt lat="49.49424" lon="-1.26521">
        <ele>3.4</ele>
        <time>2020-06-15T14:52:41Z</time>
      </trkpt>
      <trkpt lat="49.49419" lon="-1.26518">
        <ele>3.4</ele>
        <time>2020-06-15T14:52:42Z</time>
      </trkpt>
      <trkpt lat="49.49414" lon="-1.26516">
        <ele>3.4</ele>
        <time>2020-06-15T14:52:43Z</time>
      </trkpt>
      <trkpt lat="49.49409" lon="-1.26512">
        <ele>3.3</ele>
        <time>2020-06-15T14:52:44Z</time>
      </trkpt>
      <trkpt lat="49.49404" lon="-1.26508">
        <ele>3.3</ele>
        <time>2020-06-15T14:52:45Z</time>
      </trkpt>
      <trkpt lat="49.49399" lon="-1.26503">
        <ele>3.3</ele>
        <time>2020-06-15T14:52:46Z</time>
      </trkpt>
      <trkpt lat="49.49395" lon="-1.26499">
        <ele>3.3</ele>
        <time>2020-06-15T14:52:47Z</time>
      </trkpt>
      <trkpt lat="49.49391" lon="-1.26495">
        <ele>3.3</ele>
        <time>2020-06-15T14:52:48Z</time>
      </trkpt>
      <trkpt lat="49.49385" lon="-1.2649">
        <ele>3.3</ele>
        <time>2020-06-15T14:52:49Z</time>
      </trkpt>
      <trkpt lat="49.49381" lon="-1.26486">
        <ele>3.3</ele>
        <time>2020-06-15T14:52:50Z</time>
      </trkpt>
      <trkpt lat="49.49377" lon="-1.26481">
        <ele>3.3</ele>
        <time>2020-06-15T14:52:51Z</time>
      </trkpt>
      <trkpt lat="49.49371" lon="-1.26477">
        <ele>3.2</ele>
        <time>2020-06-15T14:52:52Z</time>
      </trkpt>
      <trkpt lat="49.49366" lon="-1.26471">
        <ele>3.2</ele>
        <time>2020-06-15T14:52:53Z</time>
      </trkpt>
      <trkpt lat="49.4936" lon="-1.26467">
        <ele>3.2</ele>
        <time>2020-06-15T14:52:54Z</time>
      </trkpt>
      <trkpt lat="49.49355" lon="-1.26463">
        <ele>3.2</ele>
        <time>2020-06-15T14:52:55Z</time>
      </trkpt>
      <trkpt lat="49.4935" lon="-1.26457">
        <ele>3.2</ele>
        <time>2020-06-15T14:52:56Z</time>
      </trkpt>
      <trkpt lat="49.49345" lon="-1.26452">
        <ele>3.2</ele>
        <time>2020-06-15T14:52:57Z</time>
      </trkpt>
      <trkpt lat="49.4934" lon="-1.26447">
        <ele>3.2</ele>
        <time>2020-06-15T14:52:58Z</time>
      </trkpt>
      <trkpt lat="49.49336" lon="-1.26443">
        <ele>3.2</ele>
        <time>2020-06-15T14:52:59Z</time>
      </trkpt>
      <trkpt lat="49.49331" lon="-1.2644">
        <ele>3.3</ele>
        <time>2020-06-15T14:53:00Z</time>
      </trkpt>
      <trkpt lat="49.49327" lon="-1.26436">
        <ele>3.3</ele>
        <time>2020-06-15T14:53:01Z</time>
      </trkpt>
      <trkpt lat="49.49322" lon="-1.26433">
        <ele>3.3</ele>
        <time>2020-06-15T14:53:02Z</time>
      </trkpt>
      <trkpt lat="49.49317" lon="-1.26428">
        <ele>3.3</ele>
        <time>2020-06-15T14:53:03Z</time>
      </trkpt>
      <trkpt lat="49.49313" lon="-1.26425">
        <ele>3.3</ele>
        <time>2020-06-15T14:53:04Z</time>
      </trkpt>
      <trkpt lat="49.49309" lon="-1.26421">
        <ele>3.3</ele>
        <time>2020-06-15T14:53:05Z</time>
      </trkpt>
      <trkpt lat="49.49305" lon="-1.26418">
        <ele>3.2</ele>
        <time>2020-06-15T14:53:06Z</time>
      </trkpt>
      <trkpt lat="49.49301" lon="-1.26414">
        <ele>3.2</ele>
        <time>2020-06-15T14:53:07Z</time>
      </trkpt>
      <trkpt lat="49.49296" lon="-1.2641">
        <ele>3.2</ele>
        <time>2020-06-15T14:53:08Z</time>
      </trkpt>
      <trkpt lat="49.49291" lon="-1.26406">
        <ele>3.2</ele>
        <time>2020-06-15T14:53:09Z</time>
      </trkpt>
      <trkpt lat="49.49286" lon="-1.26403">
        <ele>3.2</ele>
        <time>2020-06-15T14:53:10Z</time>
      </trkpt>
      <trkpt lat="49.49282" lon="-1.26399">
        <ele>3.2</ele>
        <time>2020-06-15T14:53:11Z</time>
      </trkpt>
      <trkpt lat="49.49278" lon="-1.26395">
        <ele>3.1</ele>
        <time>2020-06-15T14:53:12Z</time>
      </trkpt>
      <trkpt lat="49.49273" lon="-1.26391">
        <ele>3.1</ele>
        <time>2020-06-15T14:53:13Z</time>
      </trkpt>
      <trkpt lat="49.49268" lon="-1.26387">
        <ele>3.1</ele>
        <time>2020-06-15T14:53:14Z</time>
      </trkpt>
      <trkpt lat="49.49263" lon="-1.26381">
        <ele>3.1</ele>
        <time>2020-06-15T14:53:15Z</time>
      </trkpt>
      <trkpt lat="49.49259" lon="-1.26377">
        <ele>3.1</ele>
        <time>2020-06-15T14:53:16Z</time>
      </trkpt>
      <trkpt lat="49.49254" lon="-1.26373">
        <ele>3.1</ele>
        <time>2020-06-15T14:53:17Z</time>
      </trkpt>
      <trkpt lat="49.4925" lon="-1.26368">
        <ele>3.1</ele>
        <time>2020-06-15T14:53:18Z</time>
      </trkpt>
      <trkpt lat="49.49245" lon="-1.26364">
        <ele>3.1</ele>
        <time>2020-06-15T14:53:19Z</time>
      </trkpt>
      <trkpt lat="49.4924" lon="-1.26359">
        <ele>3.1</ele>
        <time>2020-06-15T14:53:20Z</time>
      </trkpt>
      <trkpt lat="49.49236" lon="-1.26355">
        <ele>3.1</ele>
        <time>2020-06-15T14:53:21Z</time>
      </trkpt>
      <trkpt lat="49.4923" lon="-1.2635">
        <ele>3.2</ele>
        <time>2020-06-15T14:53:22Z</time>
      </trkpt>
      <trkpt lat="49.49225" lon="-1.26346">
        <ele>3.2</ele>
        <time>2020-06-15T14:53:23Z</time>
      </trkpt>
      <trkpt lat="49.4922" lon="-1.26342">
        <ele>3.2</ele>
        <time>2020-06-15T14:53:24Z</time>
      </trkpt>
      <trkpt lat="49.49215" lon="-1.26338">
        <ele>3.2</ele>
        <time>2020-06-15T14:53:25Z</time>
      </trkpt>
      <trkpt lat="49.4921" lon="-1.26334">
        <ele>3.2</ele>
        <time>2020-06-15T14:53:26Z</time>
      </trkpt>
      <trkpt lat="49.49205" lon="-1.2633">
        <ele>3.2</ele>
        <time>2020-06-15T14:53:27Z</time>
      </trkpt>
      <trkpt lat="49.492" lon="-1.26327">
        <ele>3.2</ele>
        <time>2020-06-15T14:53:28Z</time>
      </trkpt>
      <trkpt lat="49.49195" lon="-1.26323">
        <ele>3.1</ele>
        <time>2020-06-15T14:53:29Z</time>
      </trkpt>
      <trkpt lat="49.49191" lon="-1.26319">
        <ele>3.1</ele>
        <time>2020-06-15T14:53:30Z</time>
      </trkpt>
      <trkpt lat="49.49186" lon="-1.26315">
        <ele>3.1</ele>
        <time>2020-06-15T14:53:31Z</time>
      </trkpt>
      <trkpt lat="49.49182" lon="-1.26311">
        <ele>3.1</ele>
        <time>2020-06-15T14:53:32Z</time>
      </trkpt>
      <trkpt lat="49.49177" lon="-1.26307">
        <ele>3.1</ele>
        <time>2020-06-15T14:53:33Z</time>
      </trkpt>
      <trkpt lat="49.49172" lon="-1.26303">
        <ele>3.1</ele>
        <time>2020-06-15T14:53:34Z</time>
      </trkpt>
      <trkpt lat="49.49166" lon="-1.26299">
        <ele>3.2</ele>
        <time>2020-06-15T14:53:35Z</time>
      </trkpt>
      <trkpt lat="49.49161" lon="-1.26295">
        <ele>3.2</ele>
        <time>2020-06-15T14:53:36Z</time>
      </trkpt>
      <trkpt lat="49.49156" lon="-1.26292">
        <ele>3.2</ele>
        <time>2020-06-15T14:53:37Z</time>
      </trkpt>
      <trkpt lat="49.49152" lon="-1.26288">
        <ele>3.2</ele>
        <time>2020-06-15T14:53:38Z</time>
      </trkpt>
      <trkpt lat="49.49146" lon="-1.26284">
        <ele>3.2</ele>
        <time>2020-06-15T14:53:39Z</time>
      </trkpt>
      <trkpt lat="49.49141" lon="-1.2628">
        <ele>3.2</ele>
        <time>2020-06-15T14:53:40Z</time>
      </trkpt>
      <trkpt lat="49.49137" lon="-1.26276">
        <ele>3.2</ele>
        <time>2020-06-15T14:53:41Z</time>
      </trkpt>
      <trkpt lat="49.49132" lon="-1.26272">
        <ele>3.2</ele>
        <time>2020-06-15T14:53:42Z</time>
      </trkpt>
      <trkpt lat="49.49127" lon="-1.26268">
        <ele>3.1</ele>
        <time>2020-06-15T14:53:43Z</time>
      </trkpt>
      <trkpt lat="49.49123" lon="-1.26264">
        <ele>3.1</ele>
        <time>2020-06-15T14:53:44Z</time>
      </trkpt>
      <trkpt lat="49.49119" lon="-1.2626">
        <ele>3.1</ele>
        <time>2020-06-15T14:53:45Z</time>
      </trkpt>
      <trkpt lat="49.49113" lon="-1.26256">
        <ele>3.2</ele>
        <time>2020-06-15T14:53:46Z</time>
      </trkpt>
      <trkpt lat="49.49109" lon="-1.26252">
        <ele>3.2</ele>
        <time>2020-06-15T14:53:47Z</time>
      </trkpt>
      <trkpt lat="49.49104" lon="-1.26248">
        <ele>3.2</ele>
        <time>2020-06-15T14:53:48Z</time>
      </trkpt>
      <trkpt lat="49.49099" lon="-1.26244">
        <ele>3.2</ele>
        <time>2020-06-15T14:53:49Z</time>
      </trkpt>
      <trkpt lat="49.49094" lon="-1.2624">
        <ele>3.2</ele>
        <time>2020-06-15T14:53:50Z</time>
      </trkpt>
      <trkpt lat="49.49089" lon="-1.26236">
        <ele>3.3</ele>
        <time>2020-06-15T14:53:51Z</time>
      </trkpt>
      <trkpt lat="49.49084" lon="-1.26231">
        <ele>3.3</ele>
        <time>2020-06-15T14:53:52Z</time>
      </trkpt>
      <trkpt lat="49.49079" lon="-1.26226">
        <ele>3.3</ele>
        <time>2020-06-15T14:53:53Z</time>
      </trkpt>
      <trkpt lat="49.49075" lon="-1.26222">
        <ele>3.3</ele>
        <time>2020-06-15T14:53:54Z</time>
      </trkpt>
      <trkpt lat="49.4907" lon="-1.26217">
        <ele>3.3</ele>
        <time>2020-06-15T14:53:55Z</time>
      </trkpt>
      <trkpt lat="49.49065" lon="-1.26213">
        <ele>3.3</ele>
        <time>2020-06-15T14:53:56Z</time>
      </trkpt>
      <trkpt lat="49.4906" lon="-1.26208">
        <ele>3.3</ele>
        <time>2020-06-15T14:53:57Z</time>
      </trkpt>
      <trkpt lat="49.49056" lon="-1.26203">
        <ele>3.3</ele>
        <time>2020-06-15T14:53:58Z</time>
      </trkpt>
      <trkpt lat="49.49051" lon="-1.26198">
        <ele>3.3</ele>
        <time>2020-06-15T14:53:59Z</time>
      </trkpt>
      <trkpt lat="49.49046" lon="-1.26194">
        <ele>3.3</ele>
        <time>2020-06-15T14:54:00Z</time>
      </trkpt>
      <trkpt lat="49.49042" lon="-1.2619">
        <ele>3.3</ele>
        <time>2020-06-15T14:54:01Z</time>
      </trkpt>
      <trkpt lat="49.49037" lon="-1.26186">
        <ele>3.2</ele>
        <time>2020-06-15T14:54:02Z</time>
      </trkpt>
      <trkpt lat="49.49032" lon="-1.26181">
        <ele>3.2</ele>
        <time>2020-06-15T14:54:03Z</time>
      </trkpt>
      <trkpt lat="49.49027" lon="-1.26176">
        <ele>3.2</ele>
        <time>2020-06-15T14:54:04Z</time>
      </trkpt>
      <trkpt lat="49.49022" lon="-1.26172">
        <ele>3.2</ele>
        <time>2020-06-15T14:54:05Z</time>
      </trkpt>
      <trkpt lat="49.49018" lon="-1.26167">
        <ele>3.2</ele>
        <time>2020-06-15T14:54:06Z</time>
      </trkpt>
      <trkpt lat="49.49012" lon="-1.26162">
        <ele>3.2</ele>
        <time>2020-06-15T14:54:07Z</time>
      </trkpt>
      <trkpt lat="49.49007" lon="-1.26158">
        <ele>3.2</ele>
        <time>2020-06-15T14:54:08Z</time>
      </trkpt>
      <trkpt lat="49.49002" lon="-1.26154">
        <ele>3.2</ele>
        <time>2020-06-15T14:54:09Z</time>
      </trkpt>
      <trkpt lat="49.48997" lon="-1.26148">
        <ele>3.2</ele>
        <time>2020-06-15T14:54:10Z</time>
      </trkpt>
      <trkpt lat="49.48993" lon="-1.26143">
        <ele>3.2</ele>
        <time>2020-06-15T14:54:11Z</time>
      </trkpt>
      <trkpt lat="49.48988" lon="-1.26138">
        <ele>3.3</ele>
        <time>2020-06-15T14:54:12Z</time>
      </trkpt>
      <trkpt lat="49.48983" lon="-1.26133">
        <ele>3.3</ele>
        <time>2020-06-15T14:54:13Z</time>
      </trkpt>
      <trkpt lat="49.48978" lon="-1.26129">
        <ele>3.3</ele>
        <time>2020-06-15T14:54:14Z</time>
      </trkpt>
      <trkpt lat="49.48972" lon="-1.26124">
        <ele>3.3</ele>
        <time>2020-06-15T14:54:15Z</time>
      </trkpt>
      <trkpt lat="49.48967" lon="-1.2612">
        <ele>3.3</ele>
        <time>2020-06-15T14:54:16Z</time>
      </trkpt>
      <trkpt lat="49.48963" lon="-1.26116">
        <ele>3.3</ele>
        <time>2020-06-15T14:54:17Z</time>
      </trkpt>
      <trkpt lat="49.48957" lon="-1.26112">
        <ele>3.3</ele>
        <time>2020-06-15T14:54:18Z</time>
      </trkpt>
      <trkpt lat="49.48952" lon="-1.26107">
        <ele>3.3</ele>
        <time>2020-06-15T14:54:19Z</time>
      </trkpt>
      <trkpt lat="49.48947" lon="-1.26103">
        <ele>3.3</ele>
        <time>2020-06-15T14:54:20Z</time>
      </trkpt>
      <trkpt lat="49.48942" lon="-1.26099">
        <ele>3.3</ele>
        <time>2020-06-15T14:54:21Z</time>
      </trkpt>
      <trkpt lat="49.48937" lon="-1.26096">
        <ele>3.2</ele>
        <time>2020-06-15T14:54:22Z</time>
      </trkpt>
      <trkpt lat="49.48933" lon="-1.26092">
        <ele>3.2</ele>
        <time>2020-06-15T14:54:23Z</time>
      </trkpt>
      <trkpt lat="49.48927" lon="-1.26088">
        <ele>3.2</ele>
        <time>2020-06-15T14:54:24Z</time>
      </trkpt>
      <trkpt lat="49.48922" lon="-1.26084">
        <ele>3.2</ele>
        <time>2020-06-15T14:54:25Z</time>
      </trkpt>
      <trkpt lat="49.48917" lon="-1.2608">
        <ele>3.2</ele>
        <time>2020-06-15T14:54:26Z</time>
      </trkpt>
      <trkpt lat="49.48911" lon="-1.26077">
        <ele>3.2</ele>
        <time>2020-06-15T14:54:27Z</time>
      </trkpt>
      <trkpt lat="49.48906" lon="-1.26072">
        <ele>3.2</ele>
        <time>2020-06-15T14:54:28Z</time>
      </trkpt>
      <trkpt lat="49.489" lon="-1.26067">
        <ele>3.2</ele>
        <time>2020-06-15T14:54:29Z</time>
      </trkpt>
      <trkpt lat="49.48895" lon="-1.26063">
        <ele>3.1</ele>
        <time>2020-06-15T14:54:30Z</time>
      </trkpt>
      <trkpt lat="49.4889" lon="-1.2606">
        <ele>3</ele>
        <time>2020-06-15T14:54:31Z</time>
      </trkpt>
      <trkpt lat="49.48885" lon="-1.26059">
        <ele>3</ele>
        <time>2020-06-15T14:54:32Z</time>
      </trkpt>
      <trkpt lat="49.4888" lon="-1.26056">
        <ele>2.9</ele>
        <time>2020-06-15T14:54:33Z</time>
      </trkpt>
      <trkpt lat="49.48875" lon="-1.26053">
        <ele>2.9</ele>
        <time>2020-06-15T14:54:34Z</time>
      </trkpt>
      <trkpt lat="49.4887" lon="-1.2605">
        <ele>2.9</ele>
        <time>2020-06-15T14:54:35Z</time>
      </trkpt>
      <trkpt lat="49.48865" lon="-1.26049">
        <ele>2.8</ele>
        <time>2020-06-15T14:54:36Z</time>
      </trkpt>
      <trkpt lat="49.48859" lon="-1.26047">
        <ele>2.8</ele>
        <time>2020-06-15T14:54:37Z</time>
      </trkpt>
      <trkpt lat="49.48853" lon="-1.26047">
        <ele>2.7</ele>
        <time>2020-06-15T14:54:38Z</time>
      </trkpt>
      <trkpt lat="49.48847" lon="-1.26047">
        <ele>2.7</ele>
        <time>2020-06-15T14:54:39Z</time>
      </trkpt>
      <trkpt lat="49.48841" lon="-1.26046">
        <ele>2.7</ele>
        <time>2020-06-15T14:54:40Z</time>
      </trkpt>
      <trkpt lat="49.48835" lon="-1.26044">
        <ele>2.7</ele>
        <time>2020-06-15T14:54:41Z</time>
      </trkpt>
      <trkpt lat="49.4883" lon="-1.26043">
        <ele>2.7</ele>
        <time>2020-06-15T14:54:42Z</time>
      </trkpt>
      <trkpt lat="49.48824" lon="-1.26042">
        <ele>2.6</ele>
        <time>2020-06-15T14:54:43Z</time>
      </trkpt>
      <trkpt lat="49.48818" lon="-1.26041">
        <ele>2.6</ele>
        <time>2020-06-15T14:54:44Z</time>
      </trkpt>
      <trkpt lat="49.48812" lon="-1.26039">
        <ele>2.6</ele>
        <time>2020-06-15T14:54:45Z</time>
      </trkpt>
      <trkpt lat="49.48807" lon="-1.26038">
        <ele>2.6</ele>
        <time>2020-06-15T14:54:46Z</time>
      </trkpt>
      <trkpt lat="49.48801" lon="-1.26036">
        <ele>2.6</ele>
        <time>2020-06-15T14:54:47Z</time>
      </trkpt>
      <trkpt lat="49.48796" lon="-1.26034">
        <ele>2.5</ele>
        <time>2020-06-15T14:54:48Z</time>
      </trkpt>
      <trkpt lat="49.4879" lon="-1.26032">
        <ele>2.5</ele>
        <time>2020-06-15T14:54:49Z</time>
      </trkpt>
      <trkpt lat="49.48785" lon="-1.2603">
        <ele>2.5</ele>
        <time>2020-06-15T14:54:50Z</time>
      </trkpt>
      <trkpt lat="49.48779" lon="-1.26028">
        <ele>2.5</ele>
        <time>2020-06-15T14:54:51Z</time>
      </trkpt>
      <trkpt lat="49.48774" lon="-1.26025">
        <ele>2.4</ele>
        <time>2020-06-15T14:54:52Z</time>
      </trkpt>
      <trkpt lat="49.48768" lon="-1.26022">
        <ele>2.4</ele>
        <time>2020-06-15T14:54:53Z</time>
      </trkpt>
      <trkpt lat="49.48763" lon="-1.26019">
        <ele>2.4</ele>
        <time>2020-06-15T14:54:54Z</time>
      </trkpt>
      <trkpt lat="49.48758" lon="-1.26014">
        <ele>2.4</ele>
        <time>2020-06-15T14:54:55Z</time>
      </trkpt>
      <trkpt lat="49.48753" lon="-1.2601">
        <ele>2.4</ele>
        <time>2020-06-15T14:54:56Z</time>
      </trkpt>
      <trkpt lat="49.48747" lon="-1.26005">
        <ele>2.4</ele>
        <time>2020-06-15T14:54:57Z</time>
      </trkpt>
      <trkpt lat="49.48742" lon="-1.26002">
        <ele>2.4</ele>
        <time>2020-06-15T14:54:58Z</time>
      </trkpt>
      <trkpt lat="49.48737" lon="-1.25998">
        <ele>2.4</ele>
        <time>2020-06-15T14:54:59Z</time>
      </trkpt>
      <trkpt lat="49.48731" lon="-1.25994">
        <ele>2.4</ele>
        <time>2020-06-15T14:55:00Z</time>
      </trkpt>
      <trkpt lat="49.48726" lon="-1.25991">
        <ele>2.4</ele>
        <time>2020-06-15T14:55:01Z</time>
      </trkpt>
      <trkpt lat="49.48721" lon="-1.25987">
        <ele>2.4</ele>
        <time>2020-06-15T14:55:02Z</time>
      </trkpt>
      <trkpt lat="49.48717" lon="-1.25983">
        <ele>2.4</ele>
        <time>2020-06-15T14:55:03Z</time>
      </trkpt>
      <trkpt lat="49.48712" lon="-1.25979">
        <ele>2.4</ele>
        <time>2020-06-15T14:55:04Z</time>
      </trkpt>
      <trkpt lat="49.48707" lon="-1.25976">
        <ele>2.4</ele>
        <time>2020-06-15T14:55:05Z</time>
      </trkpt>
      <trkpt lat="49.487" lon="-1.2597">
        <ele>2.4</ele>
        <time>2020-06-15T14:55:06Z</time>
      </trkpt>
      <trkpt lat="49.48694" lon="-1.25967">
        <ele>2.4</ele>
        <time>2020-06-15T14:55:07Z</time>
      </trkpt>
      <trkpt lat="49.48689" lon="-1.25963">
        <ele>2.3</ele>
        <time>2020-06-15T14:55:08Z</time>
      </trkpt>
      <trkpt lat="49.48683" lon="-1.2596">
        <ele>2.3</ele>
        <time>2020-06-15T14:55:09Z</time>
      </trkpt>
      <trkpt lat="49.48677" lon="-1.25958">
        <ele>2.3</ele>
        <time>2020-06-15T14:55:10Z</time>
      </trkpt>
      <trkpt lat="49.4867" lon="-1.25957">
        <ele>2.3</ele>
        <time>2020-06-15T14:55:11Z</time>
      </trkpt>
      <trkpt lat="49.48664" lon="-1.25957">
        <ele>2.3</ele>
        <time>2020-06-15T14:55:12Z</time>
      </trkpt>
      <trkpt lat="49.48658" lon="-1.25956">
        <ele>2.3</ele>
        <time>2020-06-15T14:55:13Z</time>
      </trkpt>
      <trkpt lat="49.48652" lon="-1.25956">
        <ele>2.3</ele>
        <time>2020-06-15T14:55:14Z</time>
      </trkpt>
      <trkpt lat="49.48646" lon="-1.25956">
        <ele>2.3</ele>
        <time>2020-06-15T14:55:15Z</time>
      </trkpt>
      <trkpt lat="49.48641" lon="-1.25957">
        <ele>2.2</ele>
        <time>2020-06-15T14:55:16Z</time>
      </trkpt>
      <trkpt lat="49.48635" lon="-1.25959">
        <ele>2.2</ele>
        <time>2020-06-15T14:55:17Z</time>
      </trkpt>
      <trkpt lat="49.4863" lon="-1.25962">
        <ele>2.2</ele>
        <time>2020-06-15T14:55:18Z</time>
      </trkpt>
      <trkpt lat="49.48625" lon="-1.25965">
        <ele>2.2</ele>
        <time>2020-06-15T14:55:19Z</time>
      </trkpt>
      <trkpt lat="49.4862" lon="-1.25967">
        <ele>2.2</ele>
        <time>2020-06-15T14:55:20Z</time>
      </trkpt>
      <trkpt lat="49.48615" lon="-1.2597">
        <ele>2.2</ele>
        <time>2020-06-15T14:55:21Z</time>
      </trkpt>
      <trkpt lat="49.48609" lon="-1.25973">
        <ele>2.2</ele>
        <time>2020-06-15T14:55:22Z</time>
      </trkpt>
      <trkpt lat="49.48604" lon="-1.25975">
        <ele>2.2</ele>
        <time>2020-06-15T14:55:23Z</time>
      </trkpt>
      <trkpt lat="49.48598" lon="-1.25978">
        <ele>2.2</ele>
        <time>2020-06-15T14:55:24Z</time>
      </trkpt>
      <trkpt lat="49.48593" lon="-1.2598">
        <ele>2.2</ele>
        <time>2020-06-15T14:55:25Z</time>
      </trkpt>
      <trkpt lat="49.48587" lon="-1.25982">
        <ele>2.2</ele>
        <time>2020-06-15T14:55:26Z</time>
      </trkpt>
      <trkpt lat="49.48581" lon="-1.25985">
        <ele>2.2</ele>
        <time>2020-06-15T14:55:27Z</time>
      </trkpt>
      <trkpt lat="49.48575" lon="-1.25986">
        <ele>2.2</ele>
        <time>2020-06-15T14:55:28Z</time>
      </trkpt>
      <trkpt lat="49.4857" lon="-1.25988">
        <ele>2.2</ele>
        <time>2020-06-15T14:55:29Z</time>
      </trkpt>
      <trkpt lat="49.48564" lon="-1.25989">
        <ele>2.3</ele>
        <time>2020-06-15T14:55:30Z</time>
      </trkpt>
      <trkpt lat="49.48559" lon="-1.2599">
        <ele>2.3</ele>
        <time>2020-06-15T14:55:31Z</time>
      </trkpt>
      <trkpt lat="49.48554" lon="-1.2599">
        <ele>2.3</ele>
        <time>2020-06-15T14:55:32Z</time>
      </trkpt>
      <trkpt lat="49.48549" lon="-1.2599">
        <ele>2.3</ele>
        <time>2020-06-15T14:55:33Z</time>
      </trkpt>
      <trkpt lat="49.48543" lon="-1.2599">
        <ele>2.4</ele>
        <time>2020-06-15T14:55:34Z</time>
      </trkpt>
      <trkpt lat="49.48537" lon="-1.2599">
        <ele>2.4</ele>
        <time>2020-06-15T14:55:35Z</time>
      </trkpt>
      <trkpt lat="49.48531" lon="-1.25989">
        <ele>2.4</ele>
        <time>2020-06-15T14:55:36Z</time>
      </trkpt>
      <trkpt lat="49.48525" lon="-1.25988">
        <ele>2.4</ele>
        <time>2020-06-15T14:55:37Z</time>
      </trkpt>
      <trkpt lat="49.48519" lon="-1.25986">
        <ele>2.4</ele>
        <time>2020-06-15T14:55:38Z</time>
      </trkpt>
      <trkpt lat="49.48515" lon="-1.25983">
        <ele>2.5</ele>
        <time>2020-06-15T14:55:39Z</time>
      </trkpt>
      <trkpt lat="49.48509" lon="-1.25981">
        <ele>2.5</ele>
        <time>2020-06-15T14:55:40Z</time>
      </trkpt>
      <trkpt lat="49.48504" lon="-1.25979">
        <ele>2.5</ele>
        <time>2020-06-15T14:55:41Z</time>
      </trkpt>
      <trkpt lat="49.48498" lon="-1.25976">
        <ele>2.5</ele>
        <time>2020-06-15T14:55:42Z</time>
      </trkpt>
      <trkpt lat="49.48492" lon="-1.25974">
        <ele>2.6</ele>
        <time>2020-06-15T14:55:43Z</time>
      </trkpt>
      <trkpt lat="49.48487" lon="-1.25972">
        <ele>2.6</ele>
        <time>2020-06-15T14:55:44Z</time>
      </trkpt>
      <trkpt lat="49.48481" lon="-1.2597">
        <ele>2.6</ele>
        <time>2020-06-15T14:55:45Z</time>
      </trkpt>
      <trkpt lat="49.48475" lon="-1.25967">
        <ele>2.7</ele>
        <time>2020-06-15T14:55:46Z</time>
      </trkpt>
      <trkpt lat="49.48469" lon="-1.25965">
        <ele>2.7</ele>
        <time>2020-06-15T14:55:47Z</time>
      </trkpt>
      <trkpt lat="49.48464" lon="-1.25962">
        <ele>2.6</ele>
        <time>2020-06-15T14:55:48Z</time>
      </trkpt>
      <trkpt lat="49.48458" lon="-1.2596">
        <ele>2.6</ele>
        <time>2020-06-15T14:55:49Z</time>
      </trkpt>
      <trkpt lat="49.48452" lon="-1.25957">
        <ele>2.6</ele>
        <time>2020-06-15T14:55:50Z</time>
      </trkpt>
      <trkpt lat="49.48446" lon="-1.25954">
        <ele>2.6</ele>
        <time>2020-06-15T14:55:51Z</time>
      </trkpt>
      <trkpt lat="49.48441" lon="-1.25951">
        <ele>2.7</ele>
        <time>2020-06-15T14:55:52Z</time>
      </trkpt>
      <trkpt lat="49.48435" lon="-1.25949">
        <ele>2.7</ele>
        <time>2020-06-15T14:55:53Z</time>
      </trkpt>
      <trkpt lat="49.48429" lon="-1.25947">
        <ele>2.7</ele>
        <time>2020-06-15T14:55:54Z</time>
      </trkpt>
      <trkpt lat="49.48424" lon="-1.25944">
        <ele>2.8</ele>
        <time>2020-06-15T14:55:55Z</time>
      </trkpt>
      <trkpt lat="49.48418" lon="-1.25942">
        <ele>2.8</ele>
        <time>2020-06-15T14:55:56Z</time>
      </trkpt>
      <trkpt lat="49.48412" lon="-1.2594">
        <ele>2.8</ele>
        <time>2020-06-15T14:55:57Z</time>
      </trkpt>
      <trkpt lat="49.48406" lon="-1.25938">
        <ele>2.9</ele>
        <time>2020-06-15T14:55:58Z</time>
      </trkpt>
      <trkpt lat="49.484" lon="-1.25935">
        <ele>2.9</ele>
        <time>2020-06-15T14:55:59Z</time>
      </trkpt>
      <trkpt lat="49.48395" lon="-1.25932">
        <ele>2.9</ele>
        <time>2020-06-15T14:56:00Z</time>
      </trkpt>
      <trkpt lat="49.48389" lon="-1.25929">
        <ele>2.9</ele>
        <time>2020-06-15T14:56:01Z</time>
      </trkpt>
      <trkpt lat="49.48383" lon="-1.25927">
        <ele>2.8</ele>
        <time>2020-06-15T14:56:02Z</time>
      </trkpt>
      <trkpt lat="49.48378" lon="-1.25924">
        <ele>2.8</ele>
        <time>2020-06-15T14:56:03Z</time>
      </trkpt>
      <trkpt lat="49.48372" lon="-1.25922">
        <ele>2.8</ele>
        <time>2020-06-15T14:56:04Z</time>
      </trkpt>
      <trkpt lat="49.48366" lon="-1.25919">
        <ele>2.8</ele>
        <time>2020-06-15T14:56:05Z</time>
      </trkpt>
      <trkpt lat="49.4836" lon="-1.25916">
        <ele>2.8</ele>
        <time>2020-06-15T14:56:06Z</time>
      </trkpt>
      <trkpt lat="49.48353" lon="-1.25914">
        <ele>2.8</ele>
        <time>2020-06-15T14:56:07Z</time>
      </trkpt>
      <trkpt lat="49.48347" lon="-1.25912">
        <ele>2.8</ele>
        <time>2020-06-15T14:56:08Z</time>
      </trkpt>
      <trkpt lat="49.48342" lon="-1.25911">
        <ele>2.8</ele>
        <time>2020-06-15T14:56:09Z</time>
      </trkpt>
      <trkpt lat="49.48336" lon="-1.2591">
        <ele>2.8</ele>
        <time>2020-06-15T14:56:10Z</time>
      </trkpt>
      <trkpt lat="49.48331" lon="-1.25909">
        <ele>2.8</ele>
        <time>2020-06-15T14:56:11Z</time>
      </trkpt>
      <trkpt lat="49.48325" lon="-1.25909">
        <ele>2.7</ele>
        <time>2020-06-15T14:56:12Z</time>
      </trkpt>
      <trkpt lat="49.48319" lon="-1.25909">
        <ele>2.7</ele>
        <time>2020-06-15T14:56:13Z</time>
      </trkpt>
      <trkpt lat="49.48313" lon="-1.25908">
        <ele>2.7</ele>
        <time>2020-06-15T14:56:14Z</time>
      </trkpt>
      <trkpt lat="49.48307" lon="-1.25909">
        <ele>2.6</ele>
        <time>2020-06-15T14:56:15Z</time>
      </trkpt>
      <trkpt lat="49.48301" lon="-1.25909">
        <ele>2.6</ele>
        <time>2020-06-15T14:56:16Z</time>
      </trkpt>
      <trkpt lat="49.48295" lon="-1.2591">
        <ele>2.5</ele>
        <time>2020-06-15T14:56:17Z</time>
      </trkpt>
      <trkpt lat="49.48289" lon="-1.2591">
        <ele>2.5</ele>
        <time>2020-06-15T14:56:18Z</time>
      </trkpt>
      <trkpt lat="49.48283" lon="-1.25911">
        <ele>2.5</ele>
        <time>2020-06-15T14:56:19Z</time>
      </trkpt>
      <trkpt lat="49.48278" lon="-1.25911">
        <ele>2.5</ele>
        <time>2020-06-15T14:56:20Z</time>
      </trkpt>
      <trkpt lat="49.48272" lon="-1.25911">
        <ele>2.5</ele>
        <time>2020-06-15T14:56:21Z</time>
      </trkpt>
      <trkpt lat="49.48266" lon="-1.25912">
        <ele>2.5</ele>
        <time>2020-06-15T14:56:22Z</time>
      </trkpt>
      <trkpt lat="49.48259" lon="-1.25913">
        <ele>2.5</ele>
        <time>2020-06-15T14:56:23Z</time>
      </trkpt>
      <trkpt lat="49.48252" lon="-1.25913">
        <ele>2.5</ele>
        <time>2020-06-15T14:56:24Z</time>
      </trkpt>
      <trkpt lat="49.48246" lon="-1.25913">
        <ele>2.5</ele>
        <time>2020-06-15T14:56:25Z</time>
      </trkpt>
      <trkpt lat="49.4824" lon="-1.25914">
        <ele>2.5</ele>
        <time>2020-06-15T14:56:26Z</time>
      </trkpt>
      <trkpt lat="49.48234" lon="-1.25914">
        <ele>2.5</ele>
        <time>2020-06-15T14:56:27Z</time>
      </trkpt>
      <trkpt lat="49.48228" lon="-1.25914">
        <ele>2.5</ele>
        <time>2020-06-15T14:56:28Z</time>
      </trkpt>
      <trkpt lat="49.48222" lon="-1.25914">
        <ele>2.5</ele>
        <time>2020-06-15T14:56:29Z</time>
      </trkpt>
      <trkpt lat="49.48215" lon="-1.25914">
        <ele>2.5</ele>
        <time>2020-06-15T14:56:30Z</time>
      </trkpt>
      <trkpt lat="49.48209" lon="-1.25915">
        <ele>2.5</ele>
        <time>2020-06-15T14:56:31Z</time>
      </trkpt>
      <trkpt lat="49.48204" lon="-1.25916">
        <ele>2.5</ele>
        <time>2020-06-15T14:56:32Z</time>
      </trkpt>
      <trkpt lat="49.48198" lon="-1.25915">
        <ele>2.5</ele>
        <time>2020-06-15T14:56:33Z</time>
      </trkpt>
      <trkpt lat="49.48192" lon="-1.25915">
        <ele>2.5</ele>
        <time>2020-06-15T14:56:34Z</time>
      </trkpt>
      <trkpt lat="49.48186" lon="-1.25915">
        <ele>2.4</ele>
        <time>2020-06-15T14:56:35Z</time>
      </trkpt>
      <trkpt lat="49.4818" lon="-1.25914">
        <ele>2.4</ele>
        <time>2020-06-15T14:56:36Z</time>
      </trkpt>
      <trkpt lat="49.48174" lon="-1.25912">
        <ele>2.4</ele>
        <time>2020-06-15T14:56:37Z</time>
      </trkpt>
      <trkpt lat="49.48168" lon="-1.2591">
        <ele>2.5</ele>
        <time>2020-06-15T14:56:38Z</time>
      </trkpt>
      <trkpt lat="49.48163" lon="-1.25908">
        <ele>2.5</ele>
        <time>2020-06-15T14:56:39Z</time>
      </trkpt>
      <trkpt lat="49.48156" lon="-1.25906">
        <ele>2.5</ele>
        <time>2020-06-15T14:56:40Z</time>
      </trkpt>
      <trkpt lat="49.4815" lon="-1.25903">
        <ele>2.5</ele>
        <time>2020-06-15T14:56:41Z</time>
      </trkpt>
      <trkpt lat="49.48144" lon="-1.25901">
        <ele>2.5</ele>
        <time>2020-06-15T14:56:42Z</time>
      </trkpt>
      <trkpt lat="49.48139" lon="-1.25899">
        <ele>2.5</ele>
        <time>2020-06-15T14:56:43Z</time>
      </trkpt>
      <trkpt lat="49.48133" lon="-1.25896">
        <ele>2.5</ele>
        <time>2020-06-15T14:56:44Z</time>
      </trkpt>
      <trkpt lat="49.48127" lon="-1.25893">
        <ele>2.4</ele>
        <time>2020-06-15T14:56:45Z</time>
      </trkpt>
      <trkpt lat="49.48122" lon="-1.25889">
        <ele>2.4</ele>
        <time>2020-06-15T14:56:46Z</time>
      </trkpt>
      <trkpt lat="49.48117" lon="-1.25885">
        <ele>2.4</ele>
        <time>2020-06-15T14:56:47Z</time>
      </trkpt>
      <trkpt lat="49.48111" lon="-1.25881">
        <ele>2.4</ele>
        <time>2020-06-15T14:56:48Z</time>
      </trkpt>
      <trkpt lat="49.48105" lon="-1.25877">
        <ele>2.4</ele>
        <time>2020-06-15T14:56:49Z</time>
      </trkpt>
      <trkpt lat="49.481" lon="-1.25872">
        <ele>2.4</ele>
        <time>2020-06-15T14:56:50Z</time>
      </trkpt>
      <trkpt lat="49.48095" lon="-1.25868">
        <ele>2.4</ele>
        <time>2020-06-15T14:56:51Z</time>
      </trkpt>
      <trkpt lat="49.4809" lon="-1.25862">
        <ele>2.4</ele>
        <time>2020-06-15T14:56:52Z</time>
      </trkpt>
      <trkpt lat="49.48085" lon="-1.25857">
        <ele>2.4</ele>
        <time>2020-06-15T14:56:53Z</time>
      </trkpt>
      <trkpt lat="49.4808" lon="-1.25852">
        <ele>2.5</ele>
        <time>2020-06-15T14:56:54Z</time>
      </trkpt>
      <trkpt lat="49.48075" lon="-1.25846">
        <ele>2.5</ele>
        <time>2020-06-15T14:56:55Z</time>
      </trkpt>
      <trkpt lat="49.4807" lon="-1.25841">
        <ele>2.4</ele>
        <time>2020-06-15T14:56:56Z</time>
      </trkpt>
      <trkpt lat="49.48065" lon="-1.25836">
        <ele>2.4</ele>
        <time>2020-06-15T14:56:57Z</time>
      </trkpt>
      <trkpt lat="49.48061" lon="-1.25832">
        <ele>2.4</ele>
        <time>2020-06-15T14:56:58Z</time>
      </trkpt>
      <trkpt lat="49.48057" lon="-1.25827">
        <ele>2.4</ele>
        <time>2020-06-15T14:56:59Z</time>
      </trkpt>
      <trkpt lat="49.48052" lon="-1.2582">
        <ele>2.3</ele>
        <time>2020-06-15T14:57:00Z</time>
      </trkpt>
      <trkpt lat="49.48047" lon="-1.25814">
        <ele>2.3</ele>
        <time>2020-06-15T14:57:01Z</time>
      </trkpt>
      <trkpt lat="49.48041" lon="-1.25808">
        <ele>2.3</ele>
        <time>2020-06-15T14:57:02Z</time>
      </trkpt>
      <trkpt lat="49.48036" lon="-1.25801">
        <ele>2.3</ele>
        <time>2020-06-15T14:57:03Z</time>
      </trkpt>
      <trkpt lat="49.48031" lon="-1.25795">
        <ele>2.2</ele>
        <time>2020-06-15T14:57:04Z</time>
      </trkpt>
      <trkpt lat="49.48026" lon="-1.25789">
        <ele>2.2</ele>
        <time>2020-06-15T14:57:05Z</time>
      </trkpt>
      <trkpt lat="49.48021" lon="-1.25782">
        <ele>2.1</ele>
        <time>2020-06-15T14:57:06Z</time>
      </trkpt>
      <trkpt lat="49.48016" lon="-1.25775">
        <ele>2.1</ele>
        <time>2020-06-15T14:57:07Z</time>
      </trkpt>
      <trkpt lat="49.48011" lon="-1.25768">
        <ele>2</ele>
        <time>2020-06-15T14:57:08Z</time>
      </trkpt>
      <trkpt lat="49.48006" lon="-1.25761">
        <ele>2</ele>
        <time>2020-06-15T14:57:09Z</time>
      </trkpt>
      <trkpt lat="49.48" lon="-1.25755">
        <ele>1.9</ele>
        <time>2020-06-15T14:57:10Z</time>
      </trkpt>
      <trkpt lat="49.47995" lon="-1.25749">
        <ele>1.9</ele>
        <time>2020-06-15T14:57:11Z</time>
      </trkpt>
      <trkpt lat="49.4799" lon="-1.25742">
        <ele>1.9</ele>
        <time>2020-06-15T14:57:12Z</time>
      </trkpt>
      <trkpt lat="49.47984" lon="-1.25736">
        <ele>1.9</ele>
        <time>2020-06-15T14:57:13Z</time>
      </trkpt>
      <trkpt lat="49.47979" lon="-1.2573">
        <ele>1.8</ele>
        <time>2020-06-15T14:57:14Z</time>
      </trkpt>
      <trkpt lat="49.47975" lon="-1.25723">
        <ele>1.8</ele>
        <time>2020-06-15T14:57:15Z</time>
      </trkpt>
      <trkpt lat="49.47969" lon="-1.25717">
        <ele>1.8</ele>
        <time>2020-06-15T14:57:16Z</time>
      </trkpt>
      <trkpt lat="49.47965" lon="-1.25711">
        <ele>1.8</ele>
        <time>2020-06-15T14:57:17Z</time>
      </trkpt>
      <trkpt lat="49.4796" lon="-1.25704">
        <ele>1.8</ele>
        <time>2020-06-15T14:57:18Z</time>
      </trkpt>
      <trkpt lat="49.47955" lon="-1.25698">
        <ele>1.8</ele>
        <time>2020-06-15T14:57:19Z</time>
      </trkpt>
      <trkpt lat="49.4795" lon="-1.25691">
        <ele>1.8</ele>
        <time>2020-06-15T14:57:20Z</time>
      </trkpt>
      <trkpt lat="49.47945" lon="-1.25685">
        <ele>1.8</ele>
        <time>2020-06-15T14:57:21Z</time>
      </trkpt>
      <trkpt lat="49.4794" lon="-1.25679">
        <ele>1.9</ele>
        <time>2020-06-15T14:57:22Z</time>
      </trkpt>
      <trkpt lat="49.47935" lon="-1.25672">
        <ele>1.9</ele>
        <time>2020-06-15T14:57:23Z</time>
      </trkpt>
      <trkpt lat="49.4793" lon="-1.25665">
        <ele>2</ele>
        <time>2020-06-15T14:57:24Z</time>
      </trkpt>
      <trkpt lat="49.47925" lon="-1.2566">
        <ele>2</ele>
        <time>2020-06-15T14:57:25Z</time>
      </trkpt>
      <trkpt lat="49.4792" lon="-1.25653">
        <ele>1.9</ele>
        <time>2020-06-15T14:57:26Z</time>
      </trkpt>
      <trkpt lat="49.47915" lon="-1.25647">
        <ele>1.8</ele>
        <time>2020-06-15T14:57:27Z</time>
      </trkpt>
      <trkpt lat="49.4791" lon="-1.25641">
        <ele>1.8</ele>
        <time>2020-06-15T14:57:28Z</time>
      </trkpt>
      <trkpt lat="49.47905" lon="-1.25635">
        <ele>1.7</ele>
        <time>2020-06-15T14:57:29Z</time>
      </trkpt>
      <trkpt lat="49.479" lon="-1.25629">
        <ele>1.7</ele>
        <time>2020-06-15T14:57:30Z</time>
      </trkpt>
      <trkpt lat="49.47895" lon="-1.25624">
        <ele>1.6</ele>
        <time>2020-06-15T14:57:31Z</time>
      </trkpt>
      <trkpt lat="49.4789" lon="-1.25617">
        <ele>1.6</ele>
        <time>2020-06-15T14:57:32Z</time>
      </trkpt>
      <trkpt lat="49.47885" lon="-1.25611">
        <ele>1.6</ele>
        <time>2020-06-15T14:57:33Z</time>
      </trkpt>
      <trkpt lat="49.4788" lon="-1.25604">
        <ele>1.6</ele>
        <time>2020-06-15T14:57:34Z</time>
      </trkpt>
      <trkpt lat="49.47875" lon="-1.25597">
        <ele>1.7</ele>
        <time>2020-06-15T14:57:35Z</time>
      </trkpt>
      <trkpt lat="49.4787" lon="-1.25591">
        <ele>1.7</ele>
        <time>2020-06-15T14:57:36Z</time>
      </trkpt>
      <trkpt lat="49.47865" lon="-1.25585">
        <ele>1.7</ele>
        <time>2020-06-15T14:57:37Z</time>
      </trkpt>
      <trkpt lat="49.4786" lon="-1.25579">
        <ele>1.7</ele>
        <time>2020-06-15T14:57:38Z</time>
      </trkpt>
      <trkpt lat="49.47854" lon="-1.25573">
        <ele>1.8</ele>
        <time>2020-06-15T14:57:39Z</time>
      </trkpt>
      <trkpt lat="49.47848" lon="-1.25566">
        <ele>1.8</ele>
        <time>2020-06-15T14:57:40Z</time>
      </trkpt>
      <trkpt lat="49.47843" lon="-1.2556">
        <ele>1.8</ele>
        <time>2020-06-15T14:57:41Z</time>
      </trkpt>
      <trkpt lat="49.47838" lon="-1.25554">
        <ele>1.9</ele>
        <time>2020-06-15T14:57:42Z</time>
      </trkpt>
      <trkpt lat="49.47833" lon="-1.25548">
        <ele>1.9</ele>
        <time>2020-06-15T14:57:43Z</time>
      </trkpt>
      <trkpt lat="49.47827" lon="-1.25541">
        <ele>1.9</ele>
        <time>2020-06-15T14:57:44Z</time>
      </trkpt>
      <trkpt lat="49.47823" lon="-1.25536">
        <ele>1.9</ele>
        <time>2020-06-15T14:57:45Z</time>
      </trkpt>
      <trkpt lat="49.47818" lon="-1.2553">
        <ele>1.9</ele>
        <time>2020-06-15T14:57:46Z</time>
      </trkpt>
      <trkpt lat="49.47813" lon="-1.25524">
        <ele>2</ele>
        <time>2020-06-15T14:57:47Z</time>
      </trkpt>
      <trkpt lat="49.47807" lon="-1.25518">
        <ele>2</ele>
        <time>2020-06-15T14:57:48Z</time>
      </trkpt>
      <trkpt lat="49.47803" lon="-1.25513">
        <ele>2</ele>
        <time>2020-06-15T14:57:49Z</time>
      </trkpt>
      <trkpt lat="49.47799" lon="-1.25507">
        <ele>2</ele>
        <time>2020-06-15T14:57:50Z</time>
      </trkpt>
      <trkpt lat="49.47793" lon="-1.255">
        <ele>2</ele>
        <time>2020-06-15T14:57:51Z</time>
      </trkpt>
      <trkpt lat="49.47788" lon="-1.25495">
        <ele>2</ele>
        <time>2020-06-15T14:57:52Z</time>
      </trkpt>
      <trkpt lat="49.47783" lon="-1.25489">
        <ele>2</ele>
        <time>2020-06-15T14:57:53Z</time>
      </trkpt>
      <trkpt lat="49.47778" lon="-1.25483">
        <ele>2</ele>
        <time>2020-06-15T14:57:54Z</time>
      </trkpt>
      <trkpt lat="49.47773" lon="-1.25478">
        <ele>2</ele>
        <time>2020-06-15T14:57:55Z</time>
      </trkpt>
      <trkpt lat="49.47767" lon="-1.25472">
        <ele>2</ele>
        <time>2020-06-15T14:57:56Z</time>
      </trkpt>
      <trkpt lat="49.47762" lon="-1.25466">
        <ele>2</ele>
        <time>2020-06-15T14:57:57Z</time>
      </trkpt>
      <trkpt lat="49.47758" lon="-1.2546">
        <ele>2</ele>
        <time>2020-06-15T14:57:58Z</time>
      </trkpt>
      <trkpt lat="49.47753" lon="-1.25455">
        <ele>2</ele>
        <time>2020-06-15T14:57:59Z</time>
      </trkpt>
      <trkpt lat="49.47748" lon="-1.25449">
        <ele>1.9</ele>
        <time>2020-06-15T14:58:00Z</time>
      </trkpt>
      <trkpt lat="49.47742" lon="-1.25443">
        <ele>1.9</ele>
        <time>2020-06-15T14:58:01Z</time>
      </trkpt>
      <trkpt lat="49.47737" lon="-1.25437">
        <ele>1.9</ele>
        <time>2020-06-15T14:58:02Z</time>
      </trkpt>
      <trkpt lat="49.47732" lon="-1.25431">
        <ele>1.9</ele>
        <time>2020-06-15T14:58:03Z</time>
      </trkpt>
      <trkpt lat="49.47726" lon="-1.25426">
        <ele>1.9</ele>
        <time>2020-06-15T14:58:04Z</time>
      </trkpt>
      <trkpt lat="49.47721" lon="-1.2542">
        <ele>1.9</ele>
        <time>2020-06-15T14:58:05Z</time>
      </trkpt>
      <trkpt lat="49.47715" lon="-1.25415">
        <ele>1.9</ele>
        <time>2020-06-15T14:58:06Z</time>
      </trkpt>
      <trkpt lat="49.4771" lon="-1.25409">
        <ele>1.9</ele>
        <time>2020-06-15T14:58:07Z</time>
      </trkpt>
      <trkpt lat="49.47705" lon="-1.25404">
        <ele>1.9</ele>
        <time>2020-06-15T14:58:08Z</time>
      </trkpt>
      <trkpt lat="49.477" lon="-1.25399">
        <ele>1.9</ele>
        <time>2020-06-15T14:58:09Z</time>
      </trkpt>
      <trkpt lat="49.47694" lon="-1.25393">
        <ele>1.9</ele>
        <time>2020-06-15T14:58:10Z</time>
      </trkpt>
      <trkpt lat="49.47689" lon="-1.25387">
        <ele>1.9</ele>
        <time>2020-06-15T14:58:11Z</time>
      </trkpt>
      <trkpt lat="49.47683" lon="-1.25382">
        <ele>1.9</ele>
        <time>2020-06-15T14:58:12Z</time>
      </trkpt>
      <trkpt lat="49.47678" lon="-1.25377">
        <ele>1.9</ele>
        <time>2020-06-15T14:58:13Z</time>
      </trkpt>
      <trkpt lat="49.47672" lon="-1.25372">
        <ele>1.9</ele>
        <time>2020-06-15T14:58:14Z</time>
      </trkpt>
      <trkpt lat="49.47667" lon="-1.25367">
        <ele>1.9</ele>
        <time>2020-06-15T14:58:15Z</time>
      </trkpt>
      <trkpt lat="49.47662" lon="-1.25362">
        <ele>1.9</ele>
        <time>2020-06-15T14:58:16Z</time>
      </trkpt>
      <trkpt lat="49.47656" lon="-1.25358">
        <ele>1.8</ele>
        <time>2020-06-15T14:58:17Z</time>
      </trkpt>
      <trkpt lat="49.4765" lon="-1.25353">
        <ele>1.8</ele>
        <time>2020-06-15T14:58:18Z</time>
      </trkpt>
      <trkpt lat="49.47644" lon="-1.25349">
        <ele>1.8</ele>
        <time>2020-06-15T14:58:19Z</time>
      </trkpt>
      <trkpt lat="49.47639" lon="-1.25344">
        <ele>1.8</ele>
        <time>2020-06-15T14:58:20Z</time>
      </trkpt>
      <trkpt lat="49.47633" lon="-1.25339">
        <ele>1.9</ele>
        <time>2020-06-15T14:58:21Z</time>
      </trkpt>
      <trkpt lat="49.47627" lon="-1.25334">
        <ele>1.9</ele>
        <time>2020-06-15T14:58:22Z</time>
      </trkpt>
      <trkpt lat="49.47621" lon="-1.2533">
        <ele>1.9</ele>
        <time>2020-06-15T14:58:23Z</time>
      </trkpt>
      <trkpt lat="49.47615" lon="-1.25325">
        <ele>1.9</ele>
        <time>2020-06-15T14:58:24Z</time>
      </trkpt>
      <trkpt lat="49.47609" lon="-1.2532">
        <ele>1.8</ele>
        <time>2020-06-15T14:58:25Z</time>
      </trkpt>
      <trkpt lat="49.47603" lon="-1.25316">
        <ele>1.8</ele>
        <time>2020-06-15T14:58:26Z</time>
      </trkpt>
      <trkpt lat="49.47597" lon="-1.25311">
        <ele>1.8</ele>
        <time>2020-06-15T14:58:27Z</time>
      </trkpt>
      <trkpt lat="49.47591" lon="-1.25307">
        <ele>1.8</ele>
        <time>2020-06-15T14:58:28Z</time>
      </trkpt>
      <trkpt lat="49.47586" lon="-1.25303">
        <ele>1.7</ele>
        <time>2020-06-15T14:58:29Z</time>
      </trkpt>
      <trkpt lat="49.4758" lon="-1.25298">
        <ele>1.7</ele>
        <time>2020-06-15T14:58:30Z</time>
      </trkpt>
      <trkpt lat="49.47575" lon="-1.25294">
        <ele>1.7</ele>
        <time>2020-06-15T14:58:31Z</time>
      </trkpt>
      <trkpt lat="49.4757" lon="-1.2529">
        <ele>1.7</ele>
        <time>2020-06-15T14:58:32Z</time>
      </trkpt>
      <trkpt lat="49.47564" lon="-1.25286">
        <ele>1.7</ele>
        <time>2020-06-15T14:58:33Z</time>
      </trkpt>
      <trkpt lat="49.47558" lon="-1.25283">
        <ele>1.7</ele>
        <time>2020-06-15T14:58:34Z</time>
      </trkpt>
      <trkpt lat="49.47551" lon="-1.25278">
        <ele>1.7</ele>
        <time>2020-06-15T14:58:35Z</time>
      </trkpt>
      <trkpt lat="49.47545" lon="-1.25274">
        <ele>1.7</ele>
        <time>2020-06-15T14:58:36Z</time>
      </trkpt>
      <trkpt lat="49.47539" lon="-1.25269">
        <ele>1.7</ele>
        <time>2020-06-15T14:58:37Z</time>
      </trkpt>
      <trkpt lat="49.47533" lon="-1.25265">
        <ele>1.7</ele>
        <time>2020-06-15T14:58:38Z</time>
      </trkpt>
      <trkpt lat="49.47526" lon="-1.2526">
        <ele>1.7</ele>
        <time>2020-06-15T14:58:39Z</time>
      </trkpt>
      <trkpt lat="49.47519" lon="-1.25255">
        <ele>1.6</ele>
        <time>2020-06-15T14:58:40Z</time>
      </trkpt>
      <trkpt lat="49.47512" lon="-1.2525">
        <ele>1.6</ele>
        <time>2020-06-15T14:58:41Z</time>
      </trkpt>
      <trkpt lat="49.47506" lon="-1.25247">
        <ele>1.6</ele>
        <time>2020-06-15T14:58:42Z</time>
      </trkpt>
      <trkpt lat="49.475" lon="-1.25242">
        <ele>1.7</ele>
        <time>2020-06-15T14:58:43Z</time>
      </trkpt>
      <trkpt lat="49.47494" lon="-1.25238">
        <ele>1.7</ele>
        <time>2020-06-15T14:58:44Z</time>
      </trkpt>
      <trkpt lat="49.47487" lon="-1.25235">
        <ele>1.7</ele>
        <time>2020-06-15T14:58:45Z</time>
      </trkpt>
      <trkpt lat="49.47481" lon="-1.2523">
        <ele>1.7</ele>
        <time>2020-06-15T14:58:46Z</time>
      </trkpt>
      <trkpt lat="49.47474" lon="-1.25226">
        <ele>1.8</ele>
        <time>2020-06-15T14:58:47Z</time>
      </trkpt>
      <trkpt lat="49.47468" lon="-1.25222">
        <ele>1.7</ele>
        <time>2020-06-15T14:58:48Z</time>
      </trkpt>
      <trkpt lat="49.47461" lon="-1.25218">
        <ele>1.7</ele>
        <time>2020-06-15T14:58:49Z</time>
      </trkpt>
      <trkpt lat="49.47455" lon="-1.25215">
        <ele>1.7</ele>
        <time>2020-06-15T14:58:50Z</time>
      </trkpt>
      <trkpt lat="49.4745" lon="-1.25211">
        <ele>1.7</ele>
        <time>2020-06-15T14:58:51Z</time>
      </trkpt>
      <trkpt lat="49.47444" lon="-1.25207">
        <ele>1.7</ele>
        <time>2020-06-15T14:58:52Z</time>
      </trkpt>
      <trkpt lat="49.47438" lon="-1.25204">
        <ele>1.7</ele>
        <time>2020-06-15T14:58:53Z</time>
      </trkpt>
      <trkpt lat="49.47432" lon="-1.252">
        <ele>1.7</ele>
        <time>2020-06-15T14:58:54Z</time>
      </trkpt>
      <trkpt lat="49.47425" lon="-1.25195">
        <ele>1.7</ele>
        <time>2020-06-15T14:58:55Z</time>
      </trkpt>
      <trkpt lat="49.47419" lon="-1.25192">
        <ele>1.7</ele>
        <time>2020-06-15T14:58:56Z</time>
      </trkpt>
      <trkpt lat="49.47413" lon="-1.25188">
        <ele>1.7</ele>
        <time>2020-06-15T14:58:57Z</time>
      </trkpt>
      <trkpt lat="49.47407" lon="-1.25184">
        <ele>1.7</ele>
        <time>2020-06-15T14:58:58Z</time>
      </trkpt>
      <trkpt lat="49.47401" lon="-1.2518">
        <ele>1.7</ele>
        <time>2020-06-15T14:58:59Z</time>
      </trkpt>
      <trkpt lat="49.47395" lon="-1.25176">
        <ele>1.8</ele>
        <time>2020-06-15T14:59:00Z</time>
      </trkpt>
      <trkpt lat="49.47389" lon="-1.25172">
        <ele>1.8</ele>
        <time>2020-06-15T14:59:01Z</time>
      </trkpt>
      <trkpt lat="49.47384" lon="-1.25168">
        <ele>1.8</ele>
        <time>2020-06-15T14:59:02Z</time>
      </trkpt>
      <trkpt lat="49.47378" lon="-1.25165">
        <ele>1.8</ele>
        <time>2020-06-15T14:59:03Z</time>
      </trkpt>
      <trkpt lat="49.47372" lon="-1.25161">
        <ele>1.8</ele>
        <time>2020-06-15T14:59:04Z</time>
      </trkpt>
      <trkpt lat="49.47366" lon="-1.25157">
        <ele>1.8</ele>
        <time>2020-06-15T14:59:05Z</time>
      </trkpt>
      <trkpt lat="49.47361" lon="-1.25154">
        <ele>1.8</ele>
        <time>2020-06-15T14:59:06Z</time>
      </trkpt>
      <trkpt lat="49.47355" lon="-1.2515">
        <ele>1.8</ele>
        <time>2020-06-15T14:59:07Z</time>
      </trkpt>
      <trkpt lat="49.47349" lon="-1.25147">
        <ele>1.8</ele>
        <time>2020-06-15T14:59:08Z</time>
      </trkpt>
      <trkpt lat="49.47343" lon="-1.25143">
        <ele>1.8</ele>
        <time>2020-06-15T14:59:09Z</time>
      </trkpt>
      <trkpt lat="49.47337" lon="-1.2514">
        <ele>1.8</ele>
        <time>2020-06-15T14:59:10Z</time>
      </trkpt>
      <trkpt lat="49.47332" lon="-1.25137">
        <ele>1.8</ele>
        <time>2020-06-15T14:59:11Z</time>
      </trkpt>
      <trkpt lat="49.47326" lon="-1.25133">
        <ele>1.8</ele>
        <time>2020-06-15T14:59:12Z</time>
      </trkpt>
      <trkpt lat="49.4732" lon="-1.25129">
        <ele>1.8</ele>
        <time>2020-06-15T14:59:13Z</time>
      </trkpt>
      <trkpt lat="49.47314" lon="-1.25126">
        <ele>1.8</ele>
        <time>2020-06-15T14:59:14Z</time>
      </trkpt>
      <trkpt lat="49.47309" lon="-1.25123">
        <ele>1.8</ele>
        <time>2020-06-15T14:59:15Z</time>
      </trkpt>
      <trkpt lat="49.47302" lon="-1.25119">
        <ele>1.9</ele>
        <time>2020-06-15T14:59:16Z</time>
      </trkpt>
      <trkpt lat="49.47296" lon="-1.25116">
        <ele>2</ele>
        <time>2020-06-15T14:59:17Z</time>
      </trkpt>
      <trkpt lat="49.4729" lon="-1.25112">
        <ele>1.9</ele>
        <time>2020-06-15T14:59:18Z</time>
      </trkpt>
      <trkpt lat="49.47284" lon="-1.25108">
        <ele>1.8</ele>
        <time>2020-06-15T14:59:19Z</time>
      </trkpt>
      <trkpt lat="49.47278" lon="-1.25104">
        <ele>1.7</ele>
        <time>2020-06-15T14:59:20Z</time>
      </trkpt>
      <trkpt lat="49.47272" lon="-1.251">
        <ele>1.7</ele>
        <time>2020-06-15T14:59:21Z</time>
      </trkpt>
      <trkpt lat="49.47267" lon="-1.25096">
        <ele>1.7</ele>
        <time>2020-06-15T14:59:22Z</time>
      </trkpt>
      <trkpt lat="49.47262" lon="-1.25092">
        <ele>1.7</ele>
        <time>2020-06-15T14:59:23Z</time>
      </trkpt>
      <trkpt lat="49.47257" lon="-1.25089">
        <ele>1.6</ele>
        <time>2020-06-15T14:59:24Z</time>
      </trkpt>
      <trkpt lat="49.47252" lon="-1.25085">
        <ele>1.6</ele>
        <time>2020-06-15T14:59:25Z</time>
      </trkpt>
      <trkpt lat="49.47246" lon="-1.2508">
        <ele>1.6</ele>
        <time>2020-06-15T14:59:26Z</time>
      </trkpt>
      <trkpt lat="49.47241" lon="-1.25076">
        <ele>1.6</ele>
        <time>2020-06-15T14:59:27Z</time>
      </trkpt>
      <trkpt lat="49.47236" lon="-1.25071">
        <ele>1.5</ele>
        <time>2020-06-15T14:59:28Z</time>
      </trkpt>
      <trkpt lat="49.47231" lon="-1.25066">
        <ele>1.5</ele>
        <time>2020-06-15T14:59:29Z</time>
      </trkpt>
      <trkpt lat="49.47225" lon="-1.25061">
        <ele>1.5</ele>
        <time>2020-06-15T14:59:30Z</time>
      </trkpt>
      <trkpt lat="49.47219" lon="-1.25056">
        <ele>1.4</ele>
        <time>2020-06-15T14:59:31Z</time>
      </trkpt>
      <trkpt lat="49.47214" lon="-1.2505">
        <ele>1.4</ele>
        <time>2020-06-15T14:59:32Z</time>
      </trkpt>
      <trkpt lat="49.47209" lon="-1.25043">
        <ele>1.3</ele>
        <time>2020-06-15T14:59:33Z</time>
      </trkpt>
      <trkpt lat="49.47203" lon="-1.25036">
        <ele>1.3</ele>
        <time>2020-06-15T14:59:34Z</time>
      </trkpt>
      <trkpt lat="49.47199" lon="-1.25031">
        <ele>1.3</ele>
        <time>2020-06-15T14:59:35Z</time>
      </trkpt>
      <trkpt lat="49.47194" lon="-1.25024">
        <ele>1.3</ele>
        <time>2020-06-15T14:59:36Z</time>
      </trkpt>
      <trkpt lat="49.47188" lon="-1.25018">
        <ele>1.3</ele>
        <time>2020-06-15T14:59:37Z</time>
      </trkpt>
      <trkpt lat="49.47182" lon="-1.25012">
        <ele>1.3</ele>
        <time>2020-06-15T14:59:38Z</time>
      </trkpt>
      <trkpt lat="49.47177" lon="-1.25005">
        <ele>1.3</ele>
        <time>2020-06-15T14:59:39Z</time>
      </trkpt>
      <trkpt lat="49.47172" lon="-1.25">
        <ele>1.3</ele>
        <time>2020-06-15T14:59:40Z</time>
      </trkpt>
      <trkpt lat="49.47168" lon="-1.24994">
        <ele>1.4</ele>
        <time>2020-06-15T14:59:41Z</time>
      </trkpt>
      <trkpt lat="49.47162" lon="-1.24987">
        <ele>1.4</ele>
        <time>2020-06-15T14:59:42Z</time>
      </trkpt>
      <trkpt lat="49.47157" lon="-1.24981">
        <ele>1.4</ele>
        <time>2020-06-15T14:59:43Z</time>
      </trkpt>
      <trkpt lat="49.47152" lon="-1.24974">
        <ele>1.4</ele>
        <time>2020-06-15T14:59:44Z</time>
      </trkpt>
      <trkpt lat="49.47148" lon="-1.24968">
        <ele>1.4</ele>
        <time>2020-06-15T14:59:45Z</time>
      </trkpt>
      <trkpt lat="49.47143" lon="-1.24961">
        <ele>1.4</ele>
        <time>2020-06-15T14:59:46Z</time>
      </trkpt>
      <trkpt lat="49.47139" lon="-1.24954">
        <ele>1.4</ele>
        <time>2020-06-15T14:59:47Z</time>
      </trkpt>
      <trkpt lat="49.47135" lon="-1.24948">
        <ele>1.5</ele>
        <time>2020-06-15T14:59:48Z</time>
      </trkpt>
      <trkpt lat="49.47131" lon="-1.24942">
        <ele>1.5</ele>
        <time>2020-06-15T14:59:49Z</time>
      </trkpt>
      <trkpt lat="49.47127" lon="-1.24937">
        <ele>1.6</ele>
        <time>2020-06-15T14:59:50Z</time>
      </trkpt>
      <trkpt lat="49.47123" lon="-1.24932">
        <ele>1.6</ele>
        <time>2020-06-15T14:59:51Z</time>
      </trkpt>
      <trkpt lat="49.47119" lon="-1.24928">
        <ele>1.7</ele>
        <time>2020-06-15T14:59:52Z</time>
      </trkpt>
      <trkpt lat="49.47115" lon="-1.24923">
        <ele>1.7</ele>
        <time>2020-06-15T14:59:53Z</time>
      </trkpt>
      <trkpt lat="49.47111" lon="-1.24918">
        <ele>1.8</ele>
        <time>2020-06-15T14:59:54Z</time>
      </trkpt>
      <trkpt lat="49.47106" lon="-1.24914">
        <ele>1.8</ele>
        <time>2020-06-15T14:59:55Z</time>
      </trkpt>
      <trkpt lat="49.47103" lon="-1.2491">
        <ele>1.9</ele>
        <time>2020-06-15T14:59:56Z</time>
      </trkpt>
      <trkpt lat="49.471" lon="-1.24905">
        <ele>2</ele>
        <time>2020-06-15T14:59:57Z</time>
      </trkpt>
      <trkpt lat="49.47098" lon="-1.24901">
        <ele>2</ele>
        <time>2020-06-15T14:59:58Z</time>
      </trkpt>
      <trkpt lat="49.47099" lon="-1.24896">
        <ele>2</ele>
        <time>2020-06-15T14:59:59Z</time>
      </trkpt>
      <trkpt lat="49.471" lon="-1.2489">
        <ele>2</ele>
        <time>2020-06-15T15:00:00Z</time>
      </trkpt>
      <trkpt lat="49.47101" lon="-1.24884">
        <ele>1.9</ele>
        <time>2020-06-15T15:00:01Z</time>
      </trkpt>
      <trkpt lat="49.47104" lon="-1.24878">
        <ele>1.9</ele>
        <time>2020-06-15T15:00:02Z</time>
      </trkpt>
      <trkpt lat="49.47107" lon="-1.24872">
        <ele>1.9</ele>
        <time>2020-06-15T15:00:03Z</time>
      </trkpt>
      <trkpt lat="49.47109" lon="-1.24866">
        <ele>1.9</ele>
        <time>2020-06-15T15:00:04Z</time>
      </trkpt>
      <trkpt lat="49.47113" lon="-1.2486">
        <ele>1.8</ele>
        <time>2020-06-15T15:00:05Z</time>
      </trkpt>
      <trkpt lat="49.47116" lon="-1.24854">
        <ele>1.8</ele>
        <time>2020-06-15T15:00:06Z</time>
      </trkpt>
      <trkpt lat="49.4712" lon="-1.24846">
        <ele>1.8</ele>
        <time>2020-06-15T15:00:07Z</time>
      </trkpt>
      <trkpt lat="49.47123" lon="-1.24839">
        <ele>1.8</ele>
        <time>2020-06-15T15:00:08Z</time>
      </trkpt>
      <trkpt lat="49.47126" lon="-1.24832">
        <ele>1.9</ele>
        <time>2020-06-15T15:00:09Z</time>
      </trkpt>
      <trkpt lat="49.47129" lon="-1.24827">
        <ele>1.9</ele>
        <time>2020-06-15T15:00:10Z</time>
      </trkpt>
      <trkpt lat="49.47132" lon="-1.24821">
        <ele>1.9</ele>
        <time>2020-06-15T15:00:11Z</time>
      </trkpt>
      <trkpt lat="49.47136" lon="-1.24815">
        <ele>1.9</ele>
        <time>2020-06-15T15:00:12Z</time>
      </trkpt>
      <trkpt lat="49.47139" lon="-1.24808">
        <ele>2</ele>
        <time>2020-06-15T15:00:13Z</time>
      </trkpt>
      <trkpt lat="49.47143" lon="-1.24802">
        <ele>2</ele>
        <time>2020-06-15T15:00:14Z</time>
      </trkpt>
      <trkpt lat="49.47146" lon="-1.24795">
        <ele>2.1</ele>
        <time>2020-06-15T15:00:15Z</time>
      </trkpt>
      <trkpt lat="49.4715" lon="-1.24788">
        <ele>2.1</ele>
        <time>2020-06-15T15:00:16Z</time>
      </trkpt>
      <trkpt lat="49.47153" lon="-1.2478">
        <ele>2.2</ele>
        <time>2020-06-15T15:00:17Z</time>
      </trkpt>
      <trkpt lat="49.47156" lon="-1.24773">
        <ele>2.2</ele>
        <time>2020-06-15T15:00:18Z</time>
      </trkpt>
      <trkpt lat="49.47159" lon="-1.24766">
        <ele>2.3</ele>
        <time>2020-06-15T15:00:19Z</time>
      </trkpt>
      <trkpt lat="49.47162" lon="-1.2476">
        <ele>2.3</ele>
        <time>2020-06-15T15:00:20Z</time>
      </trkpt>
      <trkpt lat="49.47165" lon="-1.24752">
        <ele>2.3</ele>
        <time>2020-06-15T15:00:21Z</time>
      </trkpt>
      <trkpt lat="49.47168" lon="-1.24746">
        <ele>2.3</ele>
        <time>2020-06-15T15:00:22Z</time>
      </trkpt>
      <trkpt lat="49.47172" lon="-1.24738">
        <ele>2.2</ele>
        <time>2020-06-15T15:00:23Z</time>
      </trkpt>
      <trkpt lat="49.47175" lon="-1.24731">
        <ele>2.2</ele>
        <time>2020-06-15T15:00:24Z</time>
      </trkpt>
      <trkpt lat="49.47178" lon="-1.24725">
        <ele>2.2</ele>
        <time>2020-06-15T15:00:25Z</time>
      </trkpt>
      <trkpt lat="49.47182" lon="-1.24717">
        <ele>2.2</ele>
        <time>2020-06-15T15:00:26Z</time>
      </trkpt>
      <trkpt lat="49.47186" lon="-1.24709">
        <ele>2.2</ele>
        <time>2020-06-15T15:00:27Z</time>
      </trkpt>
      <trkpt lat="49.47189" lon="-1.24702">
        <ele>2.2</ele>
        <time>2020-06-15T15:00:28Z</time>
      </trkpt>
      <trkpt lat="49.47192" lon="-1.24694">
        <ele>2.1</ele>
        <time>2020-06-15T15:00:29Z</time>
      </trkpt>
      <trkpt lat="49.47196" lon="-1.24687">
        <ele>2.1</ele>
        <time>2020-06-15T15:00:30Z</time>
      </trkpt>
      <trkpt lat="49.47199" lon="-1.24679">
        <ele>2.1</ele>
        <time>2020-06-15T15:00:31Z</time>
      </trkpt>
      <trkpt lat="49.47203" lon="-1.24671">
        <ele>2.1</ele>
        <time>2020-06-15T15:00:32Z</time>
      </trkpt>
      <trkpt lat="49.47207" lon="-1.24663">
        <ele>2.1</ele>
        <time>2020-06-15T15:00:33Z</time>
      </trkpt>
      <trkpt lat="49.47211" lon="-1.24655">
        <ele>2.1</ele>
        <time>2020-06-15T15:00:34Z</time>
      </trkpt>
      <trkpt lat="49.47214" lon="-1.24648">
        <ele>2.1</ele>
        <time>2020-06-15T15:00:35Z</time>
      </trkpt>
      <trkpt lat="49.47218" lon="-1.2464">
        <ele>2.1</ele>
        <time>2020-06-15T15:00:36Z</time>
      </trkpt>
      <trkpt lat="49.47222" lon="-1.24633">
        <ele>2.1</ele>
        <time>2020-06-15T15:00:37Z</time>
      </trkpt>
      <trkpt lat="49.47225" lon="-1.24626">
        <ele>2.1</ele>
        <time>2020-06-15T15:00:38Z</time>
      </trkpt>
      <trkpt lat="49.47228" lon="-1.24617">
        <ele>2</ele>
        <time>2020-06-15T15:00:39Z</time>
      </trkpt>
      <trkpt lat="49.47232" lon="-1.24609">
        <ele>2</ele>
        <time>2020-06-15T15:00:40Z</time>
      </trkpt>
      <trkpt lat="49.47235" lon="-1.24601">
        <ele>2</ele>
        <time>2020-06-15T15:00:41Z</time>
      </trkpt>
      <trkpt lat="49.47238" lon="-1.24594">
        <ele>2</ele>
        <time>2020-06-15T15:00:42Z</time>
      </trkpt>
      <trkpt lat="49.47242" lon="-1.24587">
        <ele>2.1</ele>
        <time>2020-06-15T15:00:43Z</time>
      </trkpt>
      <trkpt lat="49.47245" lon="-1.2458">
        <ele>2.1</ele>
        <time>2020-06-15T15:00:44Z</time>
      </trkpt>
      <trkpt lat="49.47249" lon="-1.24573">
        <ele>2.1</ele>
        <time>2020-06-15T15:00:45Z</time>
      </trkpt>
      <trkpt lat="49.47252" lon="-1.24566">
        <ele>2.2</ele>
        <time>2020-06-15T15:00:46Z</time>
      </trkpt>
      <trkpt lat="49.47256" lon="-1.24558">
        <ele>2.2</ele>
        <time>2020-06-15T15:00:47Z</time>
      </trkpt>
      <trkpt lat="49.47258" lon="-1.2455">
        <ele>2.2</ele>
        <time>2020-06-15T15:00:48Z</time>
      </trkpt>
      <trkpt lat="49.47264" lon="-1.24545">
        <ele>2.3</ele>
        <time>2020-06-15T15:00:49Z</time>
      </trkpt>
      <trkpt lat="49.47267" lon="-1.24537">
        <ele>2.2</ele>
        <time>2020-06-15T15:00:50Z</time>
      </trkpt>
      <trkpt lat="49.4727" lon="-1.2453">
        <ele>2.2</ele>
        <time>2020-06-15T15:00:51Z</time>
      </trkpt>
      <trkpt lat="49.47273" lon="-1.24522">
        <ele>2.2</ele>
        <time>2020-06-15T15:00:52Z</time>
      </trkpt>
      <trkpt lat="49.47277" lon="-1.24514">
        <ele>2.2</ele>
        <time>2020-06-15T15:00:53Z</time>
      </trkpt>
      <trkpt lat="49.4728" lon="-1.24507">
        <ele>2.2</ele>
        <time>2020-06-15T15:00:54Z</time>
      </trkpt>
      <trkpt lat="49.47283" lon="-1.24501">
        <ele>2.2</ele>
        <time>2020-06-15T15:00:55Z</time>
      </trkpt>
      <trkpt lat="49.47286" lon="-1.24495">
        <ele>2.3</ele>
        <time>2020-06-15T15:00:56Z</time>
      </trkpt>
      <trkpt lat="49.47289" lon="-1.24489">
        <ele>2.3</ele>
        <time>2020-06-15T15:00:57Z</time>
      </trkpt>
      <trkpt lat="49.47293" lon="-1.24483">
        <ele>2.3</ele>
        <time>2020-06-15T15:00:58Z</time>
      </trkpt>
      <trkpt lat="49.47296" lon="-1.24476">
        <ele>2.4</ele>
        <time>2020-06-15T15:00:59Z</time>
      </trkpt>
      <trkpt lat="49.47299" lon="-1.24469">
        <ele>2.4</ele>
        <time>2020-06-15T15:01:00Z</time>
      </trkpt>
      <trkpt lat="49.47303" lon="-1.24462">
        <ele>2.5</ele>
        <time>2020-06-15T15:01:01Z</time>
      </trkpt>
      <trkpt lat="49.47305" lon="-1.24454">
        <ele>2.5</ele>
        <time>2020-06-15T15:01:02Z</time>
      </trkpt>
      <trkpt lat="49.47308" lon="-1.24447">
        <ele>2.5</ele>
        <time>2020-06-15T15:01:03Z</time>
      </trkpt>
      <trkpt lat="49.47311" lon="-1.24438">
        <ele>2.6</ele>
        <time>2020-06-15T15:01:04Z</time>
      </trkpt>
      <trkpt lat="49.47314" lon="-1.24432">
        <ele>2.7</ele>
        <time>2020-06-15T15:01:05Z</time>
      </trkpt>
      <trkpt lat="49.47317" lon="-1.24424">
        <ele>2.7</ele>
        <time>2020-06-15T15:01:06Z</time>
      </trkpt>
      <trkpt lat="49.4732" lon="-1.24416">
        <ele>2.8</ele>
        <time>2020-06-15T15:01:07Z</time>
      </trkpt>
      <trkpt lat="49.47323" lon="-1.24408">
        <ele>2.8</ele>
        <time>2020-06-15T15:01:08Z</time>
      </trkpt>
      <trkpt lat="49.47326" lon="-1.24401">
        <ele>2.9</ele>
        <time>2020-06-15T15:01:09Z</time>
      </trkpt>
      <trkpt lat="49.47328" lon="-1.24395">
        <ele>3</ele>
        <time>2020-06-15T15:01:10Z</time>
      </trkpt>
      <trkpt lat="49.47332" lon="-1.2439">
        <ele>3</ele>
        <time>2020-06-15T15:01:11Z</time>
      </trkpt>
      <trkpt lat="49.47334" lon="-1.24384">
        <ele>3.1</ele>
        <time>2020-06-15T15:01:12Z</time>
      </trkpt>
      <trkpt lat="49.47337" lon="-1.24379">
        <ele>3.2</ele>
        <time>2020-06-15T15:01:13Z</time>
      </trkpt>
      <trkpt lat="49.47339" lon="-1.24374">
        <ele>3.2</ele>
        <time>2020-06-15T15:01:14Z</time>
      </trkpt>
      <trkpt lat="49.4734" lon="-1.24368">
        <ele>3.3</ele>
        <time>2020-06-15T15:01:15Z</time>
      </trkpt>
      <trkpt lat="49.47342" lon="-1.24363">
        <ele>3.4</ele>
        <time>2020-06-15T15:01:16Z</time>
      </trkpt>
      <trkpt lat="49.4734" lon="-1.24357">
        <ele>3.4</ele>
        <time>2020-06-15T15:01:17Z</time>
      </trkpt>
      <trkpt lat="49.47339" lon="-1.24355">
        <ele>3.4</ele>
        <time>2020-06-15T15:01:18Z</time>
      </trkpt>
      <trkpt lat="49.47337" lon="-1.24349">
        <ele>3.4</ele>
        <time>2020-06-15T15:01:19Z</time>
      </trkpt>
      <trkpt lat="49.47334" lon="-1.24345">
        <ele>3.3</ele>
        <time>2020-06-15T15:01:20Z</time>
      </trkpt>
      <trkpt lat="49.47332" lon="-1.24339">
        <ele>3.3</ele>
        <time>2020-06-15T15:01:21Z</time>
      </trkpt>
      <trkpt lat="49.47328" lon="-1.24334">
        <ele>3.3</ele>
        <time>2020-06-15T15:01:22Z</time>
      </trkpt>
      <trkpt lat="49.47325" lon="-1.24328">
        <ele>3.3</ele>
        <time>2020-06-15T15:01:23Z</time>
      </trkpt>
      <trkpt lat="49.47322" lon="-1.24322">
        <ele>3.3</ele>
        <time>2020-06-15T15:01:24Z</time>
      </trkpt>
      <trkpt lat="49.47318" lon="-1.24315">
        <ele>3.2</ele>
        <time>2020-06-15T15:01:25Z</time>
      </trkpt>
      <trkpt lat="49.47314" lon="-1.24308">
        <ele>3.2</ele>
        <time>2020-06-15T15:01:26Z</time>
      </trkpt>
      <trkpt lat="49.4731" lon="-1.24303">
        <ele>3.2</ele>
        <time>2020-06-15T15:01:27Z</time>
      </trkpt>
      <trkpt lat="49.47306" lon="-1.24297">
        <ele>3.2</ele>
        <time>2020-06-15T15:01:28Z</time>
      </trkpt>
      <trkpt lat="49.47302" lon="-1.24291">
        <ele>3.2</ele>
        <time>2020-06-15T15:01:29Z</time>
      </trkpt>
      <trkpt lat="49.47299" lon="-1.24285">
        <ele>3.2</ele>
        <time>2020-06-15T15:01:30Z</time>
      </trkpt>
      <trkpt lat="49.47296" lon="-1.2428">
        <ele>3.2</ele>
        <time>2020-06-15T15:01:31Z</time>
      </trkpt>
      <trkpt lat="49.47292" lon="-1.24275">
        <ele>3.2</ele>
        <time>2020-06-15T15:01:32Z</time>
      </trkpt>
      <trkpt lat="49.47288" lon="-1.24269">
        <ele>3.2</ele>
        <time>2020-06-15T15:01:33Z</time>
      </trkpt>
      <trkpt lat="49.47285" lon="-1.24262">
        <ele>3.2</ele>
        <time>2020-06-15T15:01:34Z</time>
      </trkpt>
      <trkpt lat="49.47282" lon="-1.24256">
        <ele>3.2</ele>
        <time>2020-06-15T15:01:35Z</time>
      </trkpt>
      <trkpt lat="49.47278" lon="-1.24249">
        <ele>3.2</ele>
        <time>2020-06-15T15:01:36Z</time>
      </trkpt>
      <trkpt lat="49.47274" lon="-1.24244">
        <ele>3.3</ele>
        <time>2020-06-15T15:01:37Z</time>
      </trkpt>
      <trkpt lat="49.4727" lon="-1.24238">
        <ele>3.3</ele>
        <time>2020-06-15T15:01:38Z</time>
      </trkpt>
      <trkpt lat="49.47267" lon="-1.24231">
        <ele>3.3</ele>
        <time>2020-06-15T15:01:39Z</time>
      </trkpt>
      <trkpt lat="49.47264" lon="-1.24224">
        <ele>3.3</ele>
        <time>2020-06-15T15:01:40Z</time>
      </trkpt>
      <trkpt lat="49.4726" lon="-1.24219">
        <ele>3.3</ele>
        <time>2020-06-15T15:01:41Z</time>
      </trkpt>
      <trkpt lat="49.47257" lon="-1.24214">
        <ele>3.3</ele>
        <time>2020-06-15T15:01:42Z</time>
      </trkpt>
      <trkpt lat="49.47253" lon="-1.24208">
        <ele>3.3</ele>
        <time>2020-06-15T15:01:43Z</time>
      </trkpt>
      <trkpt lat="49.4725" lon="-1.24202">
        <ele>3.4</ele>
        <time>2020-06-15T15:01:44Z</time>
      </trkpt>
      <trkpt lat="49.47246" lon="-1.24196">
        <ele>3.4</ele>
        <time>2020-06-15T15:01:45Z</time>
      </trkpt>
      <trkpt lat="49.47244" lon="-1.24189">
        <ele>3.4</ele>
        <time>2020-06-15T15:01:46Z</time>
      </trkpt>
      <trkpt lat="49.4724" lon="-1.24183">
        <ele>3.4</ele>
        <time>2020-06-15T15:01:47Z</time>
      </trkpt>
      <trkpt lat="49.47236" lon="-1.24179">
        <ele>3.5</ele>
        <time>2020-06-15T15:01:48Z</time>
      </trkpt>
      <trkpt lat="49.47233" lon="-1.24172">
        <ele>3.4</ele>
        <time>2020-06-15T15:01:49Z</time>
      </trkpt>
      <trkpt lat="49.4723" lon="-1.24167">
        <ele>3.4</ele>
        <time>2020-06-15T15:01:50Z</time>
      </trkpt>
      <trkpt lat="49.47226" lon="-1.24161">
        <ele>3.4</ele>
        <time>2020-06-15T15:01:51Z</time>
      </trkpt>
      <trkpt lat="49.47222" lon="-1.24156">
        <ele>3.3</ele>
        <time>2020-06-15T15:01:52Z</time>
      </trkpt>
      <trkpt lat="49.47217" lon="-1.2415">
        <ele>3.3</ele>
        <time>2020-06-15T15:01:53Z</time>
      </trkpt>
      <trkpt lat="49.47213" lon="-1.24144">
        <ele>3.3</ele>
        <time>2020-06-15T15:01:54Z</time>
      </trkpt>
      <trkpt lat="49.47209" lon="-1.24138">
        <ele>3.2</ele>
        <time>2020-06-15T15:01:55Z</time>
      </trkpt>
      <trkpt lat="49.47205" lon="-1.24133">
        <ele>3.2</ele>
        <time>2020-06-15T15:01:56Z</time>
      </trkpt>
      <trkpt lat="49.47202" lon="-1.24127">
        <ele>3.2</ele>
        <time>2020-06-15T15:01:57Z</time>
      </trkpt>
      <trkpt lat="49.47198" lon="-1.24121">
        <ele>3.1</ele>
        <time>2020-06-15T15:01:58Z</time>
      </trkpt>
      <trkpt lat="49.47193" lon="-1.24115">
        <ele>3.1</ele>
        <time>2020-06-15T15:01:59Z</time>
      </trkpt>
      <trkpt lat="49.47189" lon="-1.24109">
        <ele>3.1</ele>
        <time>2020-06-15T15:02:00Z</time>
      </trkpt>
      <trkpt lat="49.47185" lon="-1.24103">
        <ele>3.1</ele>
        <time>2020-06-15T15:02:01Z</time>
      </trkpt>
      <trkpt lat="49.47181" lon="-1.24098">
        <ele>3.2</ele>
        <time>2020-06-15T15:02:02Z</time>
      </trkpt>
      <trkpt lat="49.47177" lon="-1.24092">
        <ele>3.2</ele>
        <time>2020-06-15T15:02:03Z</time>
      </trkpt>
      <trkpt lat="49.47172" lon="-1.24086">
        <ele>3.3</ele>
        <time>2020-06-15T15:02:04Z</time>
      </trkpt>
      <trkpt lat="49.47168" lon="-1.24081">
        <ele>3.3</ele>
        <time>2020-06-15T15:02:05Z</time>
      </trkpt>
      <trkpt lat="49.47163" lon="-1.24076">
        <ele>3.3</ele>
        <time>2020-06-15T15:02:06Z</time>
      </trkpt>
      <trkpt lat="49.4716" lon="-1.24069">
        <ele>3.4</ele>
        <time>2020-06-15T15:02:07Z</time>
      </trkpt>
      <trkpt lat="49.47156" lon="-1.24063">
        <ele>3.4</ele>
        <time>2020-06-15T15:02:08Z</time>
      </trkpt>
      <trkpt lat="49.47152" lon="-1.24058">
        <ele>3.5</ele>
        <time>2020-06-15T15:02:09Z</time>
      </trkpt>
      <trkpt lat="49.47148" lon="-1.24053">
        <ele>3.6</ele>
        <time>2020-06-15T15:02:10Z</time>
      </trkpt>
      <trkpt lat="49.47144" lon="-1.24048">
        <ele>3.6</ele>
        <time>2020-06-15T15:02:11Z</time>
      </trkpt>
      <trkpt lat="49.47141" lon="-1.24044">
        <ele>3.6</ele>
        <time>2020-06-15T15:02:12Z</time>
      </trkpt>
      <trkpt lat="49.47137" lon="-1.24039">
        <ele>3.7</ele>
        <time>2020-06-15T15:02:13Z</time>
      </trkpt>
      <trkpt lat="49.47133" lon="-1.24034">
        <ele>3.7</ele>
        <time>2020-06-15T15:02:14Z</time>
      </trkpt>
      <trkpt lat="49.47128" lon="-1.24029">
        <ele>3.7</ele>
        <time>2020-06-15T15:02:15Z</time>
      </trkpt>
      <trkpt lat="49.47124" lon="-1.24023">
        <ele>3.6</ele>
        <time>2020-06-15T15:02:16Z</time>
      </trkpt>
      <trkpt lat="49.47119" lon="-1.24019">
        <ele>3.6</ele>
        <time>2020-06-15T15:02:17Z</time>
      </trkpt>
      <trkpt lat="49.47115" lon="-1.24014">
        <ele>3.6</ele>
        <time>2020-06-15T15:02:18Z</time>
      </trkpt>
      <trkpt lat="49.4711" lon="-1.24009">
        <ele>3.6</ele>
        <time>2020-06-15T15:02:19Z</time>
      </trkpt>
      <trkpt lat="49.47107" lon="-1.24003">
        <ele>3.6</ele>
        <time>2020-06-15T15:02:20Z</time>
      </trkpt>
      <trkpt lat="49.47102" lon="-1.23998">
        <ele>3.6</ele>
        <time>2020-06-15T15:02:21Z</time>
      </trkpt>
      <trkpt lat="49.47097" lon="-1.23993">
        <ele>3.6</ele>
        <time>2020-06-15T15:02:22Z</time>
      </trkpt>
      <trkpt lat="49.47093" lon="-1.23988">
        <ele>3.6</ele>
        <time>2020-06-15T15:02:23Z</time>
      </trkpt>
      <trkpt lat="49.47089" lon="-1.23983">
        <ele>3.6</ele>
        <time>2020-06-15T15:02:24Z</time>
      </trkpt>
      <trkpt lat="49.47084" lon="-1.23978">
        <ele>3.6</ele>
        <time>2020-06-15T15:02:25Z</time>
      </trkpt>
      <trkpt lat="49.4708" lon="-1.23972">
        <ele>3.7</ele>
        <time>2020-06-15T15:02:26Z</time>
      </trkpt>
      <trkpt lat="49.47075" lon="-1.23967">
        <ele>3.7</ele>
        <time>2020-06-15T15:02:27Z</time>
      </trkpt>
      <trkpt lat="49.4707" lon="-1.23963">
        <ele>3.7</ele>
        <time>2020-06-15T15:02:28Z</time>
      </trkpt>
      <trkpt lat="49.47066" lon="-1.23958">
        <ele>3.7</ele>
        <time>2020-06-15T15:02:29Z</time>
      </trkpt>
      <trkpt lat="49.47062" lon="-1.23953">
        <ele>3.7</ele>
        <time>2020-06-15T15:02:30Z</time>
      </trkpt>
      <trkpt lat="49.47057" lon="-1.23949">
        <ele>3.8</ele>
        <time>2020-06-15T15:02:31Z</time>
      </trkpt>
      <trkpt lat="49.47052" lon="-1.23943">
        <ele>3.8</ele>
        <time>2020-06-15T15:02:32Z</time>
      </trkpt>
      <trkpt lat="49.47048" lon="-1.23938">
        <ele>3.8</ele>
        <time>2020-06-15T15:02:33Z</time>
      </trkpt>
      <trkpt lat="49.47043" lon="-1.23932">
        <ele>3.7</ele>
        <time>2020-06-15T15:02:34Z</time>
      </trkpt>
      <trkpt lat="49.47039" lon="-1.23927">
        <ele>3.7</ele>
        <time>2020-06-15T15:02:35Z</time>
      </trkpt>
      <trkpt lat="49.47034" lon="-1.23922">
        <ele>3.7</ele>
        <time>2020-06-15T15:02:36Z</time>
      </trkpt>
      <trkpt lat="49.4703" lon="-1.23917">
        <ele>3.7</ele>
        <time>2020-06-15T15:02:37Z</time>
      </trkpt>
      <trkpt lat="49.47026" lon="-1.23911">
        <ele>3.7</ele>
        <time>2020-06-15T15:02:38Z</time>
      </trkpt>
      <trkpt lat="49.47022" lon="-1.23906">
        <ele>3.7</ele>
        <time>2020-06-15T15:02:39Z</time>
      </trkpt>
      <trkpt lat="49.47018" lon="-1.23901">
        <ele>3.7</ele>
        <time>2020-06-15T15:02:40Z</time>
      </trkpt>
      <trkpt lat="49.47013" lon="-1.23898">
        <ele>3.7</ele>
        <time>2020-06-15T15:02:41Z</time>
      </trkpt>
      <trkpt lat="49.47009" lon="-1.23893">
        <ele>3.7</ele>
        <time>2020-06-15T15:02:42Z</time>
      </trkpt>
      <trkpt lat="49.47004" lon="-1.23888">
        <ele>3.7</ele>
        <time>2020-06-15T15:02:43Z</time>
      </trkpt>
      <trkpt lat="49.47" lon="-1.23883">
        <ele>3.7</ele>
        <time>2020-06-15T15:02:44Z</time>
      </trkpt>
      <trkpt lat="49.46995" lon="-1.23878">
        <ele>3.7</ele>
        <time>2020-06-15T15:02:45Z</time>
      </trkpt>
      <trkpt lat="49.46991" lon="-1.23873">
        <ele>3.7</ele>
        <time>2020-06-15T15:02:46Z</time>
      </trkpt>
      <trkpt lat="49.46987" lon="-1.23868">
        <ele>3.7</ele>
        <time>2020-06-15T15:02:47Z</time>
      </trkpt>
      <trkpt lat="49.46982" lon="-1.23863">
        <ele>3.6</ele>
        <time>2020-06-15T15:02:48Z</time>
      </trkpt>
      <trkpt lat="49.46977" lon="-1.23858">
        <ele>3.6</ele>
        <time>2020-06-15T15:02:49Z</time>
      </trkpt>
      <trkpt lat="49.46972" lon="-1.23853">
        <ele>3.6</ele>
        <time>2020-06-15T15:02:50Z</time>
      </trkpt>
      <trkpt lat="49.46967" lon="-1.23848">
        <ele>3.6</ele>
        <time>2020-06-15T15:02:51Z</time>
      </trkpt>
      <trkpt lat="49.46962" lon="-1.23843">
        <ele>3.6</ele>
        <time>2020-06-15T15:02:52Z</time>
      </trkpt>
      <trkpt lat="49.46957" lon="-1.23838">
        <ele>3.6</ele>
        <time>2020-06-15T15:02:53Z</time>
      </trkpt>
      <trkpt lat="49.46953" lon="-1.23833">
        <ele>3.6</ele>
        <time>2020-06-15T15:02:54Z</time>
      </trkpt>
      <trkpt lat="49.46948" lon="-1.23828">
        <ele>3.6</ele>
        <time>2020-06-15T15:02:55Z</time>
      </trkpt>
      <trkpt lat="49.46944" lon="-1.23823">
        <ele>3.6</ele>
        <time>2020-06-15T15:02:56Z</time>
      </trkpt>
      <trkpt lat="49.46939" lon="-1.23819">
        <ele>3.6</ele>
        <time>2020-06-15T15:02:57Z</time>
      </trkpt>
      <trkpt lat="49.46935" lon="-1.23814">
        <ele>3.6</ele>
        <time>2020-06-15T15:02:58Z</time>
      </trkpt>
      <trkpt lat="49.46929" lon="-1.23809">
        <ele>3.6</ele>
        <time>2020-06-15T15:02:59Z</time>
      </trkpt>
      <trkpt lat="49.46924" lon="-1.23803">
        <ele>3.6</ele>
        <time>2020-06-15T15:03:00Z</time>
      </trkpt>
      <trkpt lat="49.46919" lon="-1.23797">
        <ele>3.6</ele>
        <time>2020-06-15T15:03:01Z</time>
      </trkpt>
      <trkpt lat="49.46915" lon="-1.23792">
        <ele>3.6</ele>
        <time>2020-06-15T15:03:02Z</time>
      </trkpt>
      <trkpt lat="49.46911" lon="-1.23787">
        <ele>3.6</ele>
        <time>2020-06-15T15:03:03Z</time>
      </trkpt>
      <trkpt lat="49.46907" lon="-1.23781">
        <ele>3.5</ele>
        <time>2020-06-15T15:03:04Z</time>
      </trkpt>
      <trkpt lat="49.46901" lon="-1.23775">
        <ele>3.5</ele>
        <time>2020-06-15T15:03:05Z</time>
      </trkpt>
      <trkpt lat="49.46897" lon="-1.2377">
        <ele>3.5</ele>
        <time>2020-06-15T15:03:06Z</time>
      </trkpt>
      <trkpt lat="49.46891" lon="-1.23766">
        <ele>3.5</ele>
        <time>2020-06-15T15:03:07Z</time>
      </trkpt>
      <trkpt lat="49.46887" lon="-1.2376">
        <ele>3.4</ele>
        <time>2020-06-15T15:03:08Z</time>
      </trkpt>
      <trkpt lat="49.46882" lon="-1.23754">
        <ele>3.4</ele>
        <time>2020-06-15T15:03:09Z</time>
      </trkpt>
      <trkpt lat="49.46877" lon="-1.23749">
        <ele>3.4</ele>
        <time>2020-06-15T15:03:10Z</time>
      </trkpt>
      <trkpt lat="49.46872" lon="-1.23744">
        <ele>3.4</ele>
        <time>2020-06-15T15:03:11Z</time>
      </trkpt>
      <trkpt lat="49.46867" lon="-1.23739">
        <ele>3.4</ele>
        <time>2020-06-15T15:03:12Z</time>
      </trkpt>
      <trkpt lat="49.46862" lon="-1.23734">
        <ele>3.4</ele>
        <time>2020-06-15T15:03:13Z</time>
      </trkpt>
      <trkpt lat="49.46857" lon="-1.23729">
        <ele>3.4</ele>
        <time>2020-06-15T15:03:14Z</time>
      </trkpt>
      <trkpt lat="49.46852" lon="-1.23724">
        <ele>3.3</ele>
        <time>2020-06-15T15:03:15Z</time>
      </trkpt>
      <trkpt lat="49.46847" lon="-1.23719">
        <ele>3.3</ele>
        <time>2020-06-15T15:03:16Z</time>
      </trkpt>
      <trkpt lat="49.46842" lon="-1.23713">
        <ele>3.3</ele>
        <time>2020-06-15T15:03:17Z</time>
      </trkpt>
      <trkpt lat="49.46837" lon="-1.23708">
        <ele>3.3</ele>
        <time>2020-06-15T15:03:18Z</time>
      </trkpt>
      <trkpt lat="49.46831" lon="-1.23703">
        <ele>3.3</ele>
        <time>2020-06-15T15:03:19Z</time>
      </trkpt>
      <trkpt lat="49.46827" lon="-1.23698">
        <ele>3.3</ele>
        <time>2020-06-15T15:03:20Z</time>
      </trkpt>
      <trkpt lat="49.46822" lon="-1.23692">
        <ele>3.3</ele>
        <time>2020-06-15T15:03:21Z</time>
      </trkpt>
      <trkpt lat="49.46817" lon="-1.23687">
        <ele>3.3</ele>
        <time>2020-06-15T15:03:22Z</time>
      </trkpt>
      <trkpt lat="49.46812" lon="-1.23682">
        <ele>3.3</ele>
        <time>2020-06-15T15:03:23Z</time>
      </trkpt>
      <trkpt lat="49.46808" lon="-1.23677">
        <ele>3.3</ele>
        <time>2020-06-15T15:03:24Z</time>
      </trkpt>
      <trkpt lat="49.46803" lon="-1.23672">
        <ele>3.4</ele>
        <time>2020-06-15T15:03:25Z</time>
      </trkpt>
      <trkpt lat="49.46798" lon="-1.23667">
        <ele>3.4</ele>
        <time>2020-06-15T15:03:26Z</time>
      </trkpt>
      <trkpt lat="49.46793" lon="-1.23662">
        <ele>3.4</ele>
        <time>2020-06-15T15:03:27Z</time>
      </trkpt>
      <trkpt lat="49.46788" lon="-1.23656">
        <ele>3.4</ele>
        <time>2020-06-15T15:03:28Z</time>
      </trkpt>
      <trkpt lat="49.46783" lon="-1.2365">
        <ele>3.4</ele>
        <time>2020-06-15T15:03:29Z</time>
      </trkpt>
      <trkpt lat="49.46779" lon="-1.23645">
        <ele>3.4</ele>
        <time>2020-06-15T15:03:30Z</time>
      </trkpt>
      <trkpt lat="49.46775" lon="-1.2364">
        <ele>3.4</ele>
        <time>2020-06-15T15:03:31Z</time>
      </trkpt>
      <trkpt lat="49.4677" lon="-1.23636">
        <ele>3.5</ele>
        <time>2020-06-15T15:03:32Z</time>
      </trkpt>
      <trkpt lat="49.46764" lon="-1.2363">
        <ele>3.5</ele>
        <time>2020-06-15T15:03:33Z</time>
      </trkpt>
      <trkpt lat="49.4676" lon="-1.23625">
        <ele>3.5</ele>
        <time>2020-06-15T15:03:34Z</time>
      </trkpt>
      <trkpt lat="49.46756" lon="-1.2362">
        <ele>3.5</ele>
        <time>2020-06-15T15:03:35Z</time>
      </trkpt>
      <trkpt lat="49.46751" lon="-1.23615">
        <ele>3.5</ele>
        <time>2020-06-15T15:03:36Z</time>
      </trkpt>
      <trkpt lat="49.46747" lon="-1.2361">
        <ele>3.5</ele>
        <time>2020-06-15T15:03:37Z</time>
      </trkpt>
      <trkpt lat="49.46742" lon="-1.23605">
        <ele>3.5</ele>
        <time>2020-06-15T15:03:38Z</time>
      </trkpt>
      <trkpt lat="49.46737" lon="-1.236">
        <ele>3.5</ele>
        <time>2020-06-15T15:03:39Z</time>
      </trkpt>
      <trkpt lat="49.46732" lon="-1.23594">
        <ele>3.5</ele>
        <time>2020-06-15T15:03:40Z</time>
      </trkpt>
      <trkpt lat="49.46728" lon="-1.2359">
        <ele>3.5</ele>
        <time>2020-06-15T15:03:41Z</time>
      </trkpt>
      <trkpt lat="49.46723" lon="-1.23585">
        <ele>3.5</ele>
        <time>2020-06-15T15:03:42Z</time>
      </trkpt>
      <trkpt lat="49.46718" lon="-1.2358">
        <ele>3.5</ele>
        <time>2020-06-15T15:03:43Z</time>
      </trkpt>
      <trkpt lat="49.46714" lon="-1.23576">
        <ele>3.5</ele>
        <time>2020-06-15T15:03:44Z</time>
      </trkpt>
      <trkpt lat="49.46711" lon="-1.23572">
        <ele>3.5</ele>
        <time>2020-06-15T15:03:45Z</time>
      </trkpt>
      <trkpt lat="49.46706" lon="-1.23567">
        <ele>3.5</ele>
        <time>2020-06-15T15:03:46Z</time>
      </trkpt>
      <trkpt lat="49.46702" lon="-1.23563">
        <ele>3.5</ele>
        <time>2020-06-15T15:03:47Z</time>
      </trkpt>
      <trkpt lat="49.46697" lon="-1.23559">
        <ele>3.5</ele>
        <time>2020-06-15T15:03:48Z</time>
      </trkpt>
      <trkpt lat="49.46691" lon="-1.23551">
        <ele>3.5</ele>
        <time>2020-06-15T15:03:49Z</time>
      </trkpt>
      <trkpt lat="49.46687" lon="-1.23546">
        <ele>3.5</ele>
        <time>2020-06-15T15:03:50Z</time>
      </trkpt>
      <trkpt lat="49.46682" lon="-1.23541">
        <ele>3.4</ele>
        <time>2020-06-15T15:03:51Z</time>
      </trkpt>
      <trkpt lat="49.46677" lon="-1.23536">
        <ele>3.4</ele>
        <time>2020-06-15T15:03:52Z</time>
      </trkpt>
      <trkpt lat="49.46672" lon="-1.23532">
        <ele>3.4</ele>
        <time>2020-06-15T15:03:53Z</time>
      </trkpt>
      <trkpt lat="49.46668" lon="-1.23528">
        <ele>3.4</ele>
        <time>2020-06-15T15:03:54Z</time>
      </trkpt>
      <trkpt lat="49.46664" lon="-1.23524">
        <ele>3.4</ele>
        <time>2020-06-15T15:03:55Z</time>
      </trkpt>
      <trkpt lat="49.46658" lon="-1.23519">
        <ele>3.3</ele>
        <time>2020-06-15T15:03:56Z</time>
      </trkpt>
      <trkpt lat="49.46653" lon="-1.23514">
        <ele>3.3</ele>
        <time>2020-06-15T15:03:57Z</time>
      </trkpt>
      <trkpt lat="49.46648" lon="-1.23509">
        <ele>3.3</ele>
        <time>2020-06-15T15:03:58Z</time>
      </trkpt>
      <trkpt lat="49.46644" lon="-1.23505">
        <ele>3.2</ele>
        <time>2020-06-15T15:03:59Z</time>
      </trkpt>
      <trkpt lat="49.46639" lon="-1.235">
        <ele>3.2</ele>
        <time>2020-06-15T15:04:00Z</time>
      </trkpt>
      <trkpt lat="49.46635" lon="-1.23494">
        <ele>3.2</ele>
        <time>2020-06-15T15:04:01Z</time>
      </trkpt>
      <trkpt lat="49.46631" lon="-1.23489">
        <ele>3.2</ele>
        <time>2020-06-15T15:04:02Z</time>
      </trkpt>
      <trkpt lat="49.46627" lon="-1.23484">
        <ele>3.2</ele>
        <time>2020-06-15T15:04:03Z</time>
      </trkpt>
      <trkpt lat="49.46623" lon="-1.23479">
        <ele>3.2</ele>
        <time>2020-06-15T15:04:04Z</time>
      </trkpt>
      <trkpt lat="49.46619" lon="-1.23474">
        <ele>3.2</ele>
        <time>2020-06-15T15:04:05Z</time>
      </trkpt>
      <trkpt lat="49.46615" lon="-1.2347">
        <ele>3.2</ele>
        <time>2020-06-15T15:04:06Z</time>
      </trkpt>
      <trkpt lat="49.46611" lon="-1.23466">
        <ele>3.2</ele>
        <time>2020-06-15T15:04:07Z</time>
      </trkpt>
      <trkpt lat="49.46607" lon="-1.23462">
        <ele>3.2</ele>
        <time>2020-06-15T15:04:08Z</time>
      </trkpt>
      <trkpt lat="49.46604" lon="-1.23459">
        <ele>3.2</ele>
        <time>2020-06-15T15:04:09Z</time>
      </trkpt>
      <trkpt lat="49.46599" lon="-1.23454">
        <ele>3.2</ele>
        <time>2020-06-15T15:04:10Z</time>
      </trkpt>
      <trkpt lat="49.46595" lon="-1.23449">
        <ele>3.2</ele>
        <time>2020-06-15T15:04:11Z</time>
      </trkpt>
      <trkpt lat="49.46591" lon="-1.23446">
        <ele>3.2</ele>
        <time>2020-06-15T15:04:12Z</time>
      </trkpt>
      <trkpt lat="49.46586" lon="-1.23441">
        <ele>3.2</ele>
        <time>2020-06-15T15:04:13Z</time>
      </trkpt>
      <trkpt lat="49.46582" lon="-1.23437">
        <ele>3.2</ele>
        <time>2020-06-15T15:04:14Z</time>
      </trkpt>
      <trkpt lat="49.46578" lon="-1.23432">
        <ele>3.2</ele>
        <time>2020-06-15T15:04:15Z</time>
      </trkpt>
      <trkpt lat="49.46573" lon="-1.23428">
        <ele>3.2</ele>
        <time>2020-06-15T15:04:16Z</time>
      </trkpt>
      <trkpt lat="49.46569" lon="-1.23423">
        <ele>3.2</ele>
        <time>2020-06-15T15:04:17Z</time>
      </trkpt>
      <trkpt lat="49.46564" lon="-1.23419">
        <ele>3.1</ele>
        <time>2020-06-15T15:04:18Z</time>
      </trkpt>
      <trkpt lat="49.4656" lon="-1.23414">
        <ele>3.1</ele>
        <time>2020-06-15T15:04:19Z</time>
      </trkpt>
      <trkpt lat="49.46555" lon="-1.2341">
        <ele>3.1</ele>
        <time>2020-06-15T15:04:20Z</time>
      </trkpt>
      <trkpt lat="49.4655" lon="-1.23405">
        <ele>3.1</ele>
        <time>2020-06-15T15:04:21Z</time>
      </trkpt>
      <trkpt lat="49.46545" lon="-1.23399">
        <ele>3.1</ele>
        <time>2020-06-15T15:04:22Z</time>
      </trkpt>
      <trkpt lat="49.46541" lon="-1.23394">
        <ele>3.1</ele>
        <time>2020-06-15T15:04:23Z</time>
      </trkpt>
      <trkpt lat="49.46536" lon="-1.23389">
        <ele>3.1</ele>
        <time>2020-06-15T15:04:24Z</time>
      </trkpt>
      <trkpt lat="49.46532" lon="-1.23383">
        <ele>3.1</ele>
        <time>2020-06-15T15:04:25Z</time>
      </trkpt>
      <trkpt lat="49.46528" lon="-1.23378">
        <ele>3.1</ele>
        <time>2020-06-15T15:04:26Z</time>
      </trkpt>
      <trkpt lat="49.46523" lon="-1.23372">
        <ele>3.1</ele>
        <time>2020-06-15T15:04:27Z</time>
      </trkpt>
      <trkpt lat="49.46518" lon="-1.23367">
        <ele>3.1</ele>
        <time>2020-06-15T15:04:28Z</time>
      </trkpt>
      <trkpt lat="49.46514" lon="-1.23362">
        <ele>3.1</ele>
        <time>2020-06-15T15:04:29Z</time>
      </trkpt>
      <trkpt lat="49.46509" lon="-1.23356">
        <ele>3.2</ele>
        <time>2020-06-15T15:04:30Z</time>
      </trkpt>
      <trkpt lat="49.46505" lon="-1.23349">
        <ele>3.2</ele>
        <time>2020-06-15T15:04:31Z</time>
      </trkpt>
      <trkpt lat="49.465" lon="-1.23344">
        <ele>3.2</ele>
        <time>2020-06-15T15:04:32Z</time>
      </trkpt>
      <trkpt lat="49.46496" lon="-1.23338">
        <ele>3.2</ele>
        <time>2020-06-15T15:04:33Z</time>
      </trkpt>
      <trkpt lat="49.46491" lon="-1.23333">
        <ele>3.2</ele>
        <time>2020-06-15T15:04:34Z</time>
      </trkpt>
      <trkpt lat="49.46486" lon="-1.23327">
        <ele>3.3</ele>
        <time>2020-06-15T15:04:35Z</time>
      </trkpt>
      <trkpt lat="49.46482" lon="-1.23323">
        <ele>3.3</ele>
        <time>2020-06-15T15:04:36Z</time>
      </trkpt>
      <trkpt lat="49.46478" lon="-1.23318">
        <ele>3.3</ele>
        <time>2020-06-15T15:04:37Z</time>
      </trkpt>
      <trkpt lat="49.46474" lon="-1.23314">
        <ele>3.4</ele>
        <time>2020-06-15T15:04:38Z</time>
      </trkpt>
      <trkpt lat="49.4647" lon="-1.23309">
        <ele>3.4</ele>
        <time>2020-06-15T15:04:39Z</time>
      </trkpt>
      <trkpt lat="49.46465" lon="-1.23304">
        <ele>3.4</ele>
        <time>2020-06-15T15:04:40Z</time>
      </trkpt>
      <trkpt lat="49.4646" lon="-1.23299">
        <ele>3.4</ele>
        <time>2020-06-15T15:04:41Z</time>
      </trkpt>
      <trkpt lat="49.46455" lon="-1.23295">
        <ele>3.4</ele>
        <time>2020-06-15T15:04:42Z</time>
      </trkpt>
      <trkpt lat="49.46451" lon="-1.23289">
        <ele>3.4</ele>
        <time>2020-06-15T15:04:43Z</time>
      </trkpt>
      <trkpt lat="49.46447" lon="-1.23284">
        <ele>3.3</ele>
        <time>2020-06-15T15:04:44Z</time>
      </trkpt>
      <trkpt lat="49.46443" lon="-1.23279">
        <ele>3.3</ele>
        <time>2020-06-15T15:04:45Z</time>
      </trkpt>
      <trkpt lat="49.46439" lon="-1.23274">
        <ele>3.4</ele>
        <time>2020-06-15T15:04:46Z</time>
      </trkpt>
      <trkpt lat="49.46434" lon="-1.2327">
        <ele>3.4</ele>
        <time>2020-06-15T15:04:47Z</time>
      </trkpt>
      <trkpt lat="49.46431" lon="-1.23266">
        <ele>3.4</ele>
        <time>2020-06-15T15:04:48Z</time>
      </trkpt>
      <trkpt lat="49.46425" lon="-1.23259">
        <ele>3.4</ele>
        <time>2020-06-15T15:04:49Z</time>
      </trkpt>
      <trkpt lat="49.46421" lon="-1.23255">
        <ele>3.4</ele>
        <time>2020-06-15T15:04:50Z</time>
      </trkpt>
      <trkpt lat="49.46417" lon="-1.23249">
        <ele>3.4</ele>
        <time>2020-06-15T15:04:51Z</time>
      </trkpt>
      <trkpt lat="49.46413" lon="-1.23245">
        <ele>3.4</ele>
        <time>2020-06-15T15:04:52Z</time>
      </trkpt>
      <trkpt lat="49.46408" lon="-1.23241">
        <ele>3.4</ele>
        <time>2020-06-15T15:04:53Z</time>
      </trkpt>
      <trkpt lat="49.46404" lon="-1.23236">
        <ele>3.4</ele>
        <time>2020-06-15T15:04:54Z</time>
      </trkpt>
      <trkpt lat="49.46399" lon="-1.23231">
        <ele>3.4</ele>
        <time>2020-06-15T15:04:55Z</time>
      </trkpt>
      <trkpt lat="49.46395" lon="-1.23225">
        <ele>3.4</ele>
        <time>2020-06-15T15:04:56Z</time>
      </trkpt>
      <trkpt lat="49.46391" lon="-1.2322">
        <ele>3.4</ele>
        <time>2020-06-15T15:04:57Z</time>
      </trkpt>
      <trkpt lat="49.46386" lon="-1.23215">
        <ele>3.4</ele>
        <time>2020-06-15T15:04:58Z</time>
      </trkpt>
      <trkpt lat="49.46382" lon="-1.23211">
        <ele>3.4</ele>
        <time>2020-06-15T15:04:59Z</time>
      </trkpt>
      <trkpt lat="49.46378" lon="-1.23206">
        <ele>3.4</ele>
        <time>2020-06-15T15:05:00Z</time>
      </trkpt>
      <trkpt lat="49.46373" lon="-1.23202">
        <ele>3.4</ele>
        <time>2020-06-15T15:05:01Z</time>
      </trkpt>
      <trkpt lat="49.46369" lon="-1.23197">
        <ele>3.4</ele>
        <time>2020-06-15T15:05:02Z</time>
      </trkpt>
      <trkpt lat="49.46363" lon="-1.2319">
        <ele>3.3</ele>
        <time>2020-06-15T15:05:03Z</time>
      </trkpt>
      <trkpt lat="49.46359" lon="-1.23185">
        <ele>3.3</ele>
        <time>2020-06-15T15:05:04Z</time>
      </trkpt>
      <trkpt lat="49.46354" lon="-1.2318">
        <ele>3.3</ele>
        <time>2020-06-15T15:05:05Z</time>
      </trkpt>
      <trkpt lat="49.4635" lon="-1.23174">
        <ele>3.3</ele>
        <time>2020-06-15T15:05:06Z</time>
      </trkpt>
      <trkpt lat="49.46345" lon="-1.23169">
        <ele>3.3</ele>
        <time>2020-06-15T15:05:07Z</time>
      </trkpt>
      <trkpt lat="49.4634" lon="-1.23163">
        <ele>3.3</ele>
        <time>2020-06-15T15:05:08Z</time>
      </trkpt>
      <trkpt lat="49.46336" lon="-1.23158">
        <ele>3.3</ele>
        <time>2020-06-15T15:05:09Z</time>
      </trkpt>
      <trkpt lat="49.46331" lon="-1.23152">
        <ele>3.3</ele>
        <time>2020-06-15T15:05:10Z</time>
      </trkpt>
      <trkpt lat="49.46327" lon="-1.23147">
        <ele>3.2</ele>
        <time>2020-06-15T15:05:11Z</time>
      </trkpt>
      <trkpt lat="49.46322" lon="-1.23143">
        <ele>3.2</ele>
        <time>2020-06-15T15:05:12Z</time>
      </trkpt>
      <trkpt lat="49.46317" lon="-1.23137">
        <ele>3.2</ele>
        <time>2020-06-15T15:05:13Z</time>
      </trkpt>
      <trkpt lat="49.46312" lon="-1.23132">
        <ele>3.2</ele>
        <time>2020-06-15T15:05:14Z</time>
      </trkpt>
      <trkpt lat="49.46308" lon="-1.23126">
        <ele>3.2</ele>
        <time>2020-06-15T15:05:15Z</time>
      </trkpt>
      <trkpt lat="49.46302" lon="-1.23121">
        <ele>3.2</ele>
        <time>2020-06-15T15:05:16Z</time>
      </trkpt>
      <trkpt lat="49.46297" lon="-1.23117">
        <ele>3.2</ele>
        <time>2020-06-15T15:05:17Z</time>
      </trkpt>
      <trkpt lat="49.46291" lon="-1.2311">
        <ele>3.1</ele>
        <time>2020-06-15T15:05:18Z</time>
      </trkpt>
      <trkpt lat="49.46286" lon="-1.23105">
        <ele>3.1</ele>
        <time>2020-06-15T15:05:19Z</time>
      </trkpt>
      <trkpt lat="49.46281" lon="-1.23101">
        <ele>3.1</ele>
        <time>2020-06-15T15:05:20Z</time>
      </trkpt>
      <trkpt lat="49.46276" lon="-1.23096">
        <ele>3</ele>
        <time>2020-06-15T15:05:21Z</time>
      </trkpt>
      <trkpt lat="49.46272" lon="-1.2309">
        <ele>3</ele>
        <time>2020-06-15T15:05:22Z</time>
      </trkpt>
      <trkpt lat="49.46267" lon="-1.23086">
        <ele>3</ele>
        <time>2020-06-15T15:05:23Z</time>
      </trkpt>
      <trkpt lat="49.46262" lon="-1.23079">
        <ele>3</ele>
        <time>2020-06-15T15:05:24Z</time>
      </trkpt>
      <trkpt lat="49.46258" lon="-1.23073">
        <ele>3</ele>
        <time>2020-06-15T15:05:25Z</time>
      </trkpt>
      <trkpt lat="49.46253" lon="-1.23068">
        <ele>2.9</ele>
        <time>2020-06-15T15:05:26Z</time>
      </trkpt>
      <trkpt lat="49.46249" lon="-1.23063">
        <ele>2.9</ele>
        <time>2020-06-15T15:05:27Z</time>
      </trkpt>
      <trkpt lat="49.46245" lon="-1.23057">
        <ele>2.8</ele>
        <time>2020-06-15T15:05:28Z</time>
      </trkpt>
      <trkpt lat="49.4624" lon="-1.23051">
        <ele>2.8</ele>
        <time>2020-06-15T15:05:29Z</time>
      </trkpt>
      <trkpt lat="49.46236" lon="-1.23045">
        <ele>2.8</ele>
        <time>2020-06-15T15:05:30Z</time>
      </trkpt>
      <trkpt lat="49.46231" lon="-1.23038">
        <ele>2.8</ele>
        <time>2020-06-15T15:05:31Z</time>
      </trkpt>
      <trkpt lat="49.46227" lon="-1.23032">
        <ele>2.8</ele>
        <time>2020-06-15T15:05:32Z</time>
      </trkpt>
      <trkpt lat="49.46222" lon="-1.23026">
        <ele>2.8</ele>
        <time>2020-06-15T15:05:33Z</time>
      </trkpt>
      <trkpt lat="49.46217" lon="-1.23019">
        <ele>2.8</ele>
        <time>2020-06-15T15:05:34Z</time>
      </trkpt>
      <trkpt lat="49.46214" lon="-1.23014">
        <ele>2.8</ele>
        <time>2020-06-15T15:05:35Z</time>
      </trkpt>
      <trkpt lat="49.4621" lon="-1.23009">
        <ele>2.8</ele>
        <time>2020-06-15T15:05:36Z</time>
      </trkpt>
      <trkpt lat="49.46206" lon="-1.23005">
        <ele>2.8</ele>
        <time>2020-06-15T15:05:37Z</time>
      </trkpt>
      <trkpt lat="49.46203" lon="-1.23">
        <ele>2.8</ele>
        <time>2020-06-15T15:05:38Z</time>
      </trkpt>
      <trkpt lat="49.46199" lon="-1.22995">
        <ele>2.8</ele>
        <time>2020-06-15T15:05:39Z</time>
      </trkpt>
      <trkpt lat="49.46196" lon="-1.22991">
        <ele>2.9</ele>
        <time>2020-06-15T15:05:40Z</time>
      </trkpt>
      <trkpt lat="49.46193" lon="-1.22988">
        <ele>2.9</ele>
        <time>2020-06-15T15:05:41Z</time>
      </trkpt>
      <trkpt lat="49.46188" lon="-1.22984">
        <ele>2.9</ele>
        <time>2020-06-15T15:05:42Z</time>
      </trkpt>
      <trkpt lat="49.46184" lon="-1.22979">
        <ele>2.9</ele>
        <time>2020-06-15T15:05:43Z</time>
      </trkpt>
      <trkpt lat="49.46181" lon="-1.22974">
        <ele>2.9</ele>
        <time>2020-06-15T15:05:44Z</time>
      </trkpt>
      <trkpt lat="49.46177" lon="-1.2297">
        <ele>2.9</ele>
        <time>2020-06-15T15:05:45Z</time>
      </trkpt>
      <trkpt lat="49.46174" lon="-1.22966">
        <ele>2.9</ele>
        <time>2020-06-15T15:05:46Z</time>
      </trkpt>
      <trkpt lat="49.46171" lon="-1.22963">
        <ele>2.9</ele>
        <time>2020-06-15T15:05:47Z</time>
      </trkpt>
      <trkpt lat="49.46168" lon="-1.22959">
        <ele>2.9</ele>
        <time>2020-06-15T15:05:48Z</time>
      </trkpt>
      <trkpt lat="49.46164" lon="-1.22955">
        <ele>3</ele>
        <time>2020-06-15T15:05:49Z</time>
      </trkpt>
      <trkpt lat="49.4616" lon="-1.2295">
        <ele>3</ele>
        <time>2020-06-15T15:05:50Z</time>
      </trkpt>
      <trkpt lat="49.46155" lon="-1.22946">
        <ele>3</ele>
        <time>2020-06-15T15:05:51Z</time>
      </trkpt>
      <trkpt lat="49.4615" lon="-1.22941">
        <ele>3.1</ele>
        <time>2020-06-15T15:05:52Z</time>
      </trkpt>
      <trkpt lat="49.46145" lon="-1.22935">
        <ele>3.1</ele>
        <time>2020-06-15T15:05:53Z</time>
      </trkpt>
      <trkpt lat="49.46141" lon="-1.22931">
        <ele>3.1</ele>
        <time>2020-06-15T15:05:54Z</time>
      </trkpt>
      <trkpt lat="49.46137" lon="-1.22928">
        <ele>3.1</ele>
        <time>2020-06-15T15:05:55Z</time>
      </trkpt>
      <trkpt lat="49.46133" lon="-1.22924">
        <ele>3.1</ele>
        <time>2020-06-15T15:05:56Z</time>
      </trkpt>
      <trkpt lat="49.4613" lon="-1.22919">
        <ele>3.1</ele>
        <time>2020-06-15T15:05:57Z</time>
      </trkpt>
      <trkpt lat="49.46126" lon="-1.22916">
        <ele>3.1</ele>
        <time>2020-06-15T15:05:58Z</time>
      </trkpt>
      <trkpt lat="49.46123" lon="-1.22912">
        <ele>3.1</ele>
        <time>2020-06-15T15:05:59Z</time>
      </trkpt>
      <trkpt lat="49.46119" lon="-1.22908">
        <ele>3.1</ele>
        <time>2020-06-15T15:06:00Z</time>
      </trkpt>
      <trkpt lat="49.46115" lon="-1.22903">
        <ele>3.1</ele>
        <time>2020-06-15T15:06:01Z</time>
      </trkpt>
      <trkpt lat="49.46111" lon="-1.22899">
        <ele>3.2</ele>
        <time>2020-06-15T15:06:02Z</time>
      </trkpt>
      <trkpt lat="49.46105" lon="-1.22893">
        <ele>3.2</ele>
        <time>2020-06-15T15:06:03Z</time>
      </trkpt>
      <trkpt lat="49.46101" lon="-1.22886">
        <ele>3.2</ele>
        <time>2020-06-15T15:06:04Z</time>
      </trkpt>
      <trkpt lat="49.46096" lon="-1.2288">
        <ele>3.2</ele>
        <time>2020-06-15T15:06:05Z</time>
      </trkpt>
      <trkpt lat="49.46092" lon="-1.22876">
        <ele>3.2</ele>
        <time>2020-06-15T15:06:06Z</time>
      </trkpt>
      <trkpt lat="49.46088" lon="-1.22871">
        <ele>3.2</ele>
        <time>2020-06-15T15:06:07Z</time>
      </trkpt>
      <trkpt lat="49.46083" lon="-1.22866">
        <ele>3.2</ele>
        <time>2020-06-15T15:06:08Z</time>
      </trkpt>
      <trkpt lat="49.46079" lon="-1.22862">
        <ele>3.2</ele>
        <time>2020-06-15T15:06:09Z</time>
      </trkpt>
      <trkpt lat="49.46074" lon="-1.22857">
        <ele>3.2</ele>
        <time>2020-06-15T15:06:10Z</time>
      </trkpt>
      <trkpt lat="49.4607" lon="-1.22852">
        <ele>3.2</ele>
        <time>2020-06-15T15:06:11Z</time>
      </trkpt>
      <trkpt lat="49.46065" lon="-1.22847">
        <ele>3.2</ele>
        <time>2020-06-15T15:06:12Z</time>
      </trkpt>
      <trkpt lat="49.46061" lon="-1.22842">
        <ele>3.2</ele>
        <time>2020-06-15T15:06:13Z</time>
      </trkpt>
      <trkpt lat="49.46056" lon="-1.22837">
        <ele>3.2</ele>
        <time>2020-06-15T15:06:14Z</time>
      </trkpt>
      <trkpt lat="49.46052" lon="-1.22833">
        <ele>3.2</ele>
        <time>2020-06-15T15:06:15Z</time>
      </trkpt>
      <trkpt lat="49.46048" lon="-1.22828">
        <ele>3.2</ele>
        <time>2020-06-15T15:06:16Z</time>
      </trkpt>
      <trkpt lat="49.46044" lon="-1.22823">
        <ele>3.2</ele>
        <time>2020-06-15T15:06:17Z</time>
      </trkpt>
      <trkpt lat="49.46039" lon="-1.22818">
        <ele>3.3</ele>
        <time>2020-06-15T15:06:18Z</time>
      </trkpt>
      <trkpt lat="49.46034" lon="-1.22813">
        <ele>3.3</ele>
        <time>2020-06-15T15:06:19Z</time>
      </trkpt>
      <trkpt lat="49.46029" lon="-1.22808">
        <ele>3.3</ele>
        <time>2020-06-15T15:06:20Z</time>
      </trkpt>
      <trkpt lat="49.46025" lon="-1.22803">
        <ele>3.3</ele>
        <time>2020-06-15T15:06:21Z</time>
      </trkpt>
      <trkpt lat="49.4602" lon="-1.22798">
        <ele>3.3</ele>
        <time>2020-06-15T15:06:22Z</time>
      </trkpt>
      <trkpt lat="49.46016" lon="-1.22792">
        <ele>3.3</ele>
        <time>2020-06-15T15:06:23Z</time>
      </trkpt>
      <trkpt lat="49.46012" lon="-1.22787">
        <ele>3.3</ele>
        <time>2020-06-15T15:06:24Z</time>
      </trkpt>
      <trkpt lat="49.46006" lon="-1.22781">
        <ele>3.3</ele>
        <time>2020-06-15T15:06:25Z</time>
      </trkpt>
      <trkpt lat="49.46001" lon="-1.22776">
        <ele>3.3</ele>
        <time>2020-06-15T15:06:26Z</time>
      </trkpt>
      <trkpt lat="49.45996" lon="-1.22771">
        <ele>3.3</ele>
        <time>2020-06-15T15:06:27Z</time>
      </trkpt>
      <trkpt lat="49.45992" lon="-1.22766">
        <ele>3.4</ele>
        <time>2020-06-15T15:06:28Z</time>
      </trkpt>
      <trkpt lat="49.45987" lon="-1.2276">
        <ele>3.4</ele>
        <time>2020-06-15T15:06:29Z</time>
      </trkpt>
      <trkpt lat="49.45982" lon="-1.22754">
        <ele>3.4</ele>
        <time>2020-06-15T15:06:30Z</time>
      </trkpt>
      <trkpt lat="49.45977" lon="-1.2275">
        <ele>3.4</ele>
        <time>2020-06-15T15:06:31Z</time>
      </trkpt>
      <trkpt lat="49.45972" lon="-1.22745">
        <ele>3.4</ele>
        <time>2020-06-15T15:06:32Z</time>
      </trkpt>
      <trkpt lat="49.45968" lon="-1.2274">
        <ele>3.4</ele>
        <time>2020-06-15T15:06:33Z</time>
      </trkpt>
      <trkpt lat="49.45963" lon="-1.22735">
        <ele>3.4</ele>
        <time>2020-06-15T15:06:34Z</time>
      </trkpt>
      <trkpt lat="49.45959" lon="-1.22729">
        <ele>3.4</ele>
        <time>2020-06-15T15:06:35Z</time>
      </trkpt>
      <trkpt lat="49.45954" lon="-1.22724">
        <ele>3.4</ele>
        <time>2020-06-15T15:06:36Z</time>
      </trkpt>
      <trkpt lat="49.45949" lon="-1.22719">
        <ele>3.4</ele>
        <time>2020-06-15T15:06:37Z</time>
      </trkpt>
      <trkpt lat="49.45945" lon="-1.22715">
        <ele>3.4</ele>
        <time>2020-06-15T15:06:38Z</time>
      </trkpt>
      <trkpt lat="49.4594" lon="-1.22711">
        <ele>3.4</ele>
        <time>2020-06-15T15:06:39Z</time>
      </trkpt>
      <trkpt lat="49.45935" lon="-1.22706">
        <ele>3.4</ele>
        <time>2020-06-15T15:06:40Z</time>
      </trkpt>
      <trkpt lat="49.45931" lon="-1.22702">
        <ele>3.4</ele>
        <time>2020-06-15T15:06:41Z</time>
      </trkpt>
      <trkpt lat="49.45927" lon="-1.22697">
        <ele>3.4</ele>
        <time>2020-06-15T15:06:42Z</time>
      </trkpt>
      <trkpt lat="49.45922" lon="-1.22692">
        <ele>3.4</ele>
        <time>2020-06-15T15:06:43Z</time>
      </trkpt>
      <trkpt lat="49.45918" lon="-1.22687">
        <ele>3.4</ele>
        <time>2020-06-15T15:06:44Z</time>
      </trkpt>
      <trkpt lat="49.45913" lon="-1.22682">
        <ele>3.3</ele>
        <time>2020-06-15T15:06:45Z</time>
      </trkpt>
      <trkpt lat="49.45908" lon="-1.22675">
        <ele>3.3</ele>
        <time>2020-06-15T15:06:46Z</time>
      </trkpt>
      <trkpt lat="49.45903" lon="-1.22671">
        <ele>3.3</ele>
        <time>2020-06-15T15:06:47Z</time>
      </trkpt>
      <trkpt lat="49.45898" lon="-1.22665">
        <ele>3.3</ele>
        <time>2020-06-15T15:06:48Z</time>
      </trkpt>
      <trkpt lat="49.45893" lon="-1.22659">
        <ele>3.3</ele>
        <time>2020-06-15T15:06:49Z</time>
      </trkpt>
      <trkpt lat="49.45888" lon="-1.22654">
        <ele>3.3</ele>
        <time>2020-06-15T15:06:50Z</time>
      </trkpt>
      <trkpt lat="49.45882" lon="-1.22649">
        <ele>3.4</ele>
        <time>2020-06-15T15:06:51Z</time>
      </trkpt>
      <trkpt lat="49.45877" lon="-1.22645">
        <ele>3.4</ele>
        <time>2020-06-15T15:06:52Z</time>
      </trkpt>
      <trkpt lat="49.45872" lon="-1.2264">
        <ele>3.4</ele>
        <time>2020-06-15T15:06:53Z</time>
      </trkpt>
      <trkpt lat="49.45868" lon="-1.22634">
        <ele>3.4</ele>
        <time>2020-06-15T15:06:54Z</time>
      </trkpt>
      <trkpt lat="49.45863" lon="-1.22628">
        <ele>3.4</ele>
        <time>2020-06-15T15:06:55Z</time>
      </trkpt>
      <trkpt lat="49.45859" lon="-1.22622">
        <ele>3.4</ele>
        <time>2020-06-15T15:06:56Z</time>
      </trkpt>
      <trkpt lat="49.45854" lon="-1.22617">
        <ele>3.4</ele>
        <time>2020-06-15T15:06:57Z</time>
      </trkpt>
      <trkpt lat="49.4585" lon="-1.22612">
        <ele>3.4</ele>
        <time>2020-06-15T15:06:58Z</time>
      </trkpt>
      <trkpt lat="49.45845" lon="-1.22608">
        <ele>3.3</ele>
        <time>2020-06-15T15:06:59Z</time>
      </trkpt>
      <trkpt lat="49.45839" lon="-1.22602">
        <ele>3.3</ele>
        <time>2020-06-15T15:07:00Z</time>
      </trkpt>
      <trkpt lat="49.45835" lon="-1.22597">
        <ele>3.3</ele>
        <time>2020-06-15T15:07:01Z</time>
      </trkpt>
      <trkpt lat="49.4583" lon="-1.22593">
        <ele>3.2</ele>
        <time>2020-06-15T15:07:02Z</time>
      </trkpt>
      <trkpt lat="49.45825" lon="-1.22588">
        <ele>3.2</ele>
        <time>2020-06-15T15:07:03Z</time>
      </trkpt>
      <trkpt lat="49.4582" lon="-1.22584">
        <ele>3.2</ele>
        <time>2020-06-15T15:07:04Z</time>
      </trkpt>
      <trkpt lat="49.45816" lon="-1.22578">
        <ele>3.2</ele>
        <time>2020-06-15T15:07:05Z</time>
      </trkpt>
      <trkpt lat="49.45811" lon="-1.22573">
        <ele>3.2</ele>
        <time>2020-06-15T15:07:06Z</time>
      </trkpt>
      <trkpt lat="49.45806" lon="-1.22567">
        <ele>3.2</ele>
        <time>2020-06-15T15:07:07Z</time>
      </trkpt>
      <trkpt lat="49.45801" lon="-1.22562">
        <ele>3.2</ele>
        <time>2020-06-15T15:07:08Z</time>
      </trkpt>
      <trkpt lat="49.45796" lon="-1.22556">
        <ele>3.2</ele>
        <time>2020-06-15T15:07:09Z</time>
      </trkpt>
      <trkpt lat="49.45792" lon="-1.22551">
        <ele>3.2</ele>
        <time>2020-06-15T15:07:10Z</time>
      </trkpt>
      <trkpt lat="49.45787" lon="-1.22546">
        <ele>3.2</ele>
        <time>2020-06-15T15:07:11Z</time>
      </trkpt>
      <trkpt lat="49.45782" lon="-1.22539">
        <ele>3.2</ele>
        <time>2020-06-15T15:07:12Z</time>
      </trkpt>
      <trkpt lat="49.45777" lon="-1.22534">
        <ele>3.2</ele>
        <time>2020-06-15T15:07:13Z</time>
      </trkpt>
      <trkpt lat="49.45772" lon="-1.2253">
        <ele>3.2</ele>
        <time>2020-06-15T15:07:14Z</time>
      </trkpt>
      <trkpt lat="49.45768" lon="-1.22525">
        <ele>3.2</ele>
        <time>2020-06-15T15:07:15Z</time>
      </trkpt>
      <trkpt lat="49.45763" lon="-1.22521">
        <ele>3.2</ele>
        <time>2020-06-15T15:07:16Z</time>
      </trkpt>
      <trkpt lat="49.45757" lon="-1.22515">
        <ele>3.2</ele>
        <time>2020-06-15T15:07:17Z</time>
      </trkpt>
      <trkpt lat="49.45751" lon="-1.22509">
        <ele>3.2</ele>
        <time>2020-06-15T15:07:18Z</time>
      </trkpt>
      <trkpt lat="49.45746" lon="-1.22504">
        <ele>3.2</ele>
        <time>2020-06-15T15:07:19Z</time>
      </trkpt>
      <trkpt lat="49.45741" lon="-1.22499">
        <ele>3.1</ele>
        <time>2020-06-15T15:07:20Z</time>
      </trkpt>
      <trkpt lat="49.45737" lon="-1.22495">
        <ele>3.1</ele>
        <time>2020-06-15T15:07:21Z</time>
      </trkpt>
      <trkpt lat="49.45732" lon="-1.2249">
        <ele>3.1</ele>
        <time>2020-06-15T15:07:22Z</time>
      </trkpt>
      <trkpt lat="49.45727" lon="-1.22485">
        <ele>3.1</ele>
        <time>2020-06-15T15:07:23Z</time>
      </trkpt>
      <trkpt lat="49.45723" lon="-1.22479">
        <ele>3.1</ele>
        <time>2020-06-15T15:07:24Z</time>
      </trkpt>
      <trkpt lat="49.45719" lon="-1.22473">
        <ele>3.2</ele>
        <time>2020-06-15T15:07:25Z</time>
      </trkpt>
      <trkpt lat="49.45713" lon="-1.22467">
        <ele>3.2</ele>
        <time>2020-06-15T15:07:26Z</time>
      </trkpt>
      <trkpt lat="49.45708" lon="-1.22463">
        <ele>3.3</ele>
        <time>2020-06-15T15:07:27Z</time>
      </trkpt>
      <trkpt lat="49.45704" lon="-1.22458">
        <ele>3.3</ele>
        <time>2020-06-15T15:07:28Z</time>
      </trkpt>
      <trkpt lat="49.45699" lon="-1.22454">
        <ele>3.3</ele>
        <time>2020-06-15T15:07:29Z</time>
      </trkpt>
      <trkpt lat="49.45693" lon="-1.22448">
        <ele>3.3</ele>
        <time>2020-06-15T15:07:30Z</time>
      </trkpt>
      <trkpt lat="49.45688" lon="-1.22444">
        <ele>3.3</ele>
        <time>2020-06-15T15:07:31Z</time>
      </trkpt>
      <trkpt lat="49.45684" lon="-1.22439">
        <ele>3.3</ele>
        <time>2020-06-15T15:07:32Z</time>
      </trkpt>
      <trkpt lat="49.4568" lon="-1.22436">
        <ele>3.3</ele>
        <time>2020-06-15T15:07:33Z</time>
      </trkpt>
      <trkpt lat="49.45675" lon="-1.22431">
        <ele>3.2</ele>
        <time>2020-06-15T15:07:34Z</time>
      </trkpt>
      <trkpt lat="49.4567" lon="-1.22425">
        <ele>3.2</ele>
        <time>2020-06-15T15:07:35Z</time>
      </trkpt>
      <trkpt lat="49.45666" lon="-1.2242">
        <ele>3.2</ele>
        <time>2020-06-15T15:07:36Z</time>
      </trkpt>
      <trkpt lat="49.45662" lon="-1.22415">
        <ele>3.2</ele>
        <time>2020-06-15T15:07:37Z</time>
      </trkpt>
      <trkpt lat="49.45657" lon="-1.2241">
        <ele>3.2</ele>
        <time>2020-06-15T15:07:38Z</time>
      </trkpt>
      <trkpt lat="49.45653" lon="-1.22405">
        <ele>3.2</ele>
        <time>2020-06-15T15:07:39Z</time>
      </trkpt>
      <trkpt lat="49.45648" lon="-1.224">
        <ele>3.1</ele>
        <time>2020-06-15T15:07:40Z</time>
      </trkpt>
      <trkpt lat="49.45644" lon="-1.22394">
        <ele>3.1</ele>
        <time>2020-06-15T15:07:41Z</time>
      </trkpt>
      <trkpt lat="49.45639" lon="-1.22388">
        <ele>3</ele>
        <time>2020-06-15T15:07:42Z</time>
      </trkpt>
      <trkpt lat="49.45634" lon="-1.22383">
        <ele>3</ele>
        <time>2020-06-15T15:07:43Z</time>
      </trkpt>
      <trkpt lat="49.45629" lon="-1.22378">
        <ele>3</ele>
        <time>2020-06-15T15:07:44Z</time>
      </trkpt>
      <trkpt lat="49.45624" lon="-1.22372">
        <ele>3</ele>
        <time>2020-06-15T15:07:45Z</time>
      </trkpt>
      <trkpt lat="49.45619" lon="-1.22365">
        <ele>3</ele>
        <time>2020-06-15T15:07:46Z</time>
      </trkpt>
      <trkpt lat="49.45615" lon="-1.2236">
        <ele>3</ele>
        <time>2020-06-15T15:07:47Z</time>
      </trkpt>
      <trkpt lat="49.4561" lon="-1.22355">
        <ele>3</ele>
        <time>2020-06-15T15:07:48Z</time>
      </trkpt>
      <trkpt lat="49.45606" lon="-1.2235">
        <ele>3</ele>
        <time>2020-06-15T15:07:49Z</time>
      </trkpt>
      <trkpt lat="49.45601" lon="-1.22345">
        <ele>3</ele>
        <time>2020-06-15T15:07:50Z</time>
      </trkpt>
      <trkpt lat="49.45596" lon="-1.22339">
        <ele>3</ele>
        <time>2020-06-15T15:07:51Z</time>
      </trkpt>
      <trkpt lat="49.45591" lon="-1.22334">
        <ele>3</ele>
        <time>2020-06-15T15:07:52Z</time>
      </trkpt>
      <trkpt lat="49.45585" lon="-1.22328">
        <ele>3</ele>
        <time>2020-06-15T15:07:53Z</time>
      </trkpt>
      <trkpt lat="49.45581" lon="-1.22323">
        <ele>3</ele>
        <time>2020-06-15T15:07:54Z</time>
      </trkpt>
      <trkpt lat="49.45577" lon="-1.22317">
        <ele>3</ele>
        <time>2020-06-15T15:07:55Z</time>
      </trkpt>
      <trkpt lat="49.45572" lon="-1.22312">
        <ele>3.1</ele>
        <time>2020-06-15T15:07:56Z</time>
      </trkpt>
      <trkpt lat="49.45568" lon="-1.22306">
        <ele>3.1</ele>
        <time>2020-06-15T15:07:57Z</time>
      </trkpt>
      <trkpt lat="49.45564" lon="-1.223">
        <ele>3</ele>
        <time>2020-06-15T15:07:58Z</time>
      </trkpt>
      <trkpt lat="49.45559" lon="-1.22294">
        <ele>3</ele>
        <time>2020-06-15T15:07:59Z</time>
      </trkpt>
      <trkpt lat="49.45555" lon="-1.22288">
        <ele>3</ele>
        <time>2020-06-15T15:08:00Z</time>
      </trkpt>
      <trkpt lat="49.4555" lon="-1.22283">
        <ele>3</ele>
        <time>2020-06-15T15:08:01Z</time>
      </trkpt>
      <trkpt lat="49.45545" lon="-1.22277">
        <ele>3</ele>
        <time>2020-06-15T15:08:02Z</time>
      </trkpt>
      <trkpt lat="49.45541" lon="-1.22272">
        <ele>3</ele>
        <time>2020-06-15T15:08:03Z</time>
      </trkpt>
      <trkpt lat="49.45536" lon="-1.22266">
        <ele>3.1</ele>
        <time>2020-06-15T15:08:04Z</time>
      </trkpt>
      <trkpt lat="49.45532" lon="-1.2226">
        <ele>3.1</ele>
        <time>2020-06-15T15:08:05Z</time>
      </trkpt>
      <trkpt lat="49.45527" lon="-1.22255">
        <ele>3.2</ele>
        <time>2020-06-15T15:08:06Z</time>
      </trkpt>
      <trkpt lat="49.45522" lon="-1.22249">
        <ele>3.2</ele>
        <time>2020-06-15T15:08:07Z</time>
      </trkpt>
      <trkpt lat="49.45517" lon="-1.22243">
        <ele>3.2</ele>
        <time>2020-06-15T15:08:08Z</time>
      </trkpt>
      <trkpt lat="49.45513" lon="-1.22239">
        <ele>3.3</ele>
        <time>2020-06-15T15:08:09Z</time>
      </trkpt>
      <trkpt lat="49.45509" lon="-1.22234">
        <ele>3.3</ele>
        <time>2020-06-15T15:08:10Z</time>
      </trkpt>
      <trkpt lat="49.45505" lon="-1.22227">
        <ele>3.3</ele>
        <time>2020-06-15T15:08:11Z</time>
      </trkpt>
      <trkpt lat="49.455" lon="-1.22221">
        <ele>3.3</ele>
        <time>2020-06-15T15:08:12Z</time>
      </trkpt>
      <trkpt lat="49.45496" lon="-1.22216">
        <ele>3.3</ele>
        <time>2020-06-15T15:08:13Z</time>
      </trkpt>
      <trkpt lat="49.45491" lon="-1.2221">
        <ele>3.3</ele>
        <time>2020-06-15T15:08:14Z</time>
      </trkpt>
      <trkpt lat="49.45485" lon="-1.22204">
        <ele>3.3</ele>
        <time>2020-06-15T15:08:15Z</time>
      </trkpt>
      <trkpt lat="49.4548" lon="-1.22198">
        <ele>3.2</ele>
        <time>2020-06-15T15:08:16Z</time>
      </trkpt>
      <trkpt lat="49.45475" lon="-1.22192">
        <ele>3.2</ele>
        <time>2020-06-15T15:08:17Z</time>
      </trkpt>
      <trkpt lat="49.4547" lon="-1.22185">
        <ele>3.2</ele>
        <time>2020-06-15T15:08:18Z</time>
      </trkpt>
      <trkpt lat="49.45466" lon="-1.2218">
        <ele>3.2</ele>
        <time>2020-06-15T15:08:19Z</time>
      </trkpt>
      <trkpt lat="49.45461" lon="-1.22174">
        <ele>3.2</ele>
        <time>2020-06-15T15:08:20Z</time>
      </trkpt>
      <trkpt lat="49.45456" lon="-1.22168">
        <ele>3.2</ele>
        <time>2020-06-15T15:08:21Z</time>
      </trkpt>
      <trkpt lat="49.45452" lon="-1.22162">
        <ele>3.3</ele>
        <time>2020-06-15T15:08:22Z</time>
      </trkpt>
      <trkpt lat="49.45447" lon="-1.22155">
        <ele>3.3</ele>
        <time>2020-06-15T15:08:23Z</time>
      </trkpt>
      <trkpt lat="49.45443" lon="-1.22149">
        <ele>3.3</ele>
        <time>2020-06-15T15:08:24Z</time>
      </trkpt>
      <trkpt lat="49.45439" lon="-1.22143">
        <ele>3.3</ele>
        <time>2020-06-15T15:08:25Z</time>
      </trkpt>
      <trkpt lat="49.45435" lon="-1.22138">
        <ele>3.3</ele>
        <time>2020-06-15T15:08:26Z</time>
      </trkpt>
      <trkpt lat="49.45431" lon="-1.22132">
        <ele>3.3</ele>
        <time>2020-06-15T15:08:27Z</time>
      </trkpt>
      <trkpt lat="49.45426" lon="-1.22126">
        <ele>3.3</ele>
        <time>2020-06-15T15:08:28Z</time>
      </trkpt>
      <trkpt lat="49.45422" lon="-1.2212">
        <ele>3.2</ele>
        <time>2020-06-15T15:08:29Z</time>
      </trkpt>
      <trkpt lat="49.45417" lon="-1.22113">
        <ele>3.2</ele>
        <time>2020-06-15T15:08:30Z</time>
      </trkpt>
      <trkpt lat="49.45412" lon="-1.22108">
        <ele>3.2</ele>
        <time>2020-06-15T15:08:31Z</time>
      </trkpt>
      <trkpt lat="49.45407" lon="-1.22103">
        <ele>3.1</ele>
        <time>2020-06-15T15:08:32Z</time>
      </trkpt>
      <trkpt lat="49.45402" lon="-1.22097">
        <ele>3.1</ele>
        <time>2020-06-15T15:08:33Z</time>
      </trkpt>
      <trkpt lat="49.45396" lon="-1.22092">
        <ele>3.1</ele>
        <time>2020-06-15T15:08:34Z</time>
      </trkpt>
      <trkpt lat="49.45391" lon="-1.22086">
        <ele>3.1</ele>
        <time>2020-06-15T15:08:35Z</time>
      </trkpt>
      <trkpt lat="49.45386" lon="-1.2208">
        <ele>3</ele>
        <time>2020-06-15T15:08:36Z</time>
      </trkpt>
      <trkpt lat="49.45381" lon="-1.22075">
        <ele>3</ele>
        <time>2020-06-15T15:08:37Z</time>
      </trkpt>
      <trkpt lat="49.45376" lon="-1.2207">
        <ele>3</ele>
        <time>2020-06-15T15:08:38Z</time>
      </trkpt>
      <trkpt lat="49.45371" lon="-1.22064">
        <ele>3</ele>
        <time>2020-06-15T15:08:39Z</time>
      </trkpt>
      <trkpt lat="49.45365" lon="-1.22057">
        <ele>3</ele>
        <time>2020-06-15T15:08:40Z</time>
      </trkpt>
      <trkpt lat="49.4536" lon="-1.2205">
        <ele>3</ele>
        <time>2020-06-15T15:08:41Z</time>
      </trkpt>
      <trkpt lat="49.45356" lon="-1.22045">
        <ele>2.9</ele>
        <time>2020-06-15T15:08:42Z</time>
      </trkpt>
      <trkpt lat="49.45352" lon="-1.22041">
        <ele>2.9</ele>
        <time>2020-06-15T15:08:43Z</time>
      </trkpt>
      <trkpt lat="49.45347" lon="-1.22034">
        <ele>2.8</ele>
        <time>2020-06-15T15:08:44Z</time>
      </trkpt>
      <trkpt lat="49.45341" lon="-1.22028">
        <ele>2.8</ele>
        <time>2020-06-15T15:08:45Z</time>
      </trkpt>
      <trkpt lat="49.45336" lon="-1.22022">
        <ele>2.8</ele>
        <time>2020-06-15T15:08:46Z</time>
      </trkpt>
      <trkpt lat="49.45331" lon="-1.22017">
        <ele>2.8</ele>
        <time>2020-06-15T15:08:47Z</time>
      </trkpt>
      <trkpt lat="49.45325" lon="-1.22012">
        <ele>2.9</ele>
        <time>2020-06-15T15:08:48Z</time>
      </trkpt>
      <trkpt lat="49.45321" lon="-1.22007">
        <ele>2.9</ele>
        <time>2020-06-15T15:08:49Z</time>
      </trkpt>
      <trkpt lat="49.45316" lon="-1.22002">
        <ele>2.8</ele>
        <time>2020-06-15T15:08:50Z</time>
      </trkpt>
      <trkpt lat="49.4531" lon="-1.21996">
        <ele>2.8</ele>
        <time>2020-06-15T15:08:51Z</time>
      </trkpt>
      <trkpt lat="49.45305" lon="-1.21991">
        <ele>2.8</ele>
        <time>2020-06-15T15:08:52Z</time>
      </trkpt>
      <trkpt lat="49.453" lon="-1.21985">
        <ele>2.7</ele>
        <time>2020-06-15T15:08:53Z</time>
      </trkpt>
      <trkpt lat="49.45295" lon="-1.2198">
        <ele>2.7</ele>
        <time>2020-06-15T15:08:54Z</time>
      </trkpt>
      <trkpt lat="49.4529" lon="-1.21975">
        <ele>2.7</ele>
        <time>2020-06-15T15:08:55Z</time>
      </trkpt>
      <trkpt lat="49.45286" lon="-1.2197">
        <ele>2.7</ele>
        <time>2020-06-15T15:08:56Z</time>
      </trkpt>
      <trkpt lat="49.45281" lon="-1.21964">
        <ele>2.7</ele>
        <time>2020-06-15T15:08:57Z</time>
      </trkpt>
      <trkpt lat="49.45276" lon="-1.2196">
        <ele>2.8</ele>
        <time>2020-06-15T15:08:58Z</time>
      </trkpt>
      <trkpt lat="49.45271" lon="-1.21955">
        <ele>2.8</ele>
        <time>2020-06-15T15:08:59Z</time>
      </trkpt>
      <trkpt lat="49.45266" lon="-1.21949">
        <ele>2.9</ele>
        <time>2020-06-15T15:09:00Z</time>
      </trkpt>
      <trkpt lat="49.45261" lon="-1.21943">
        <ele>2.9</ele>
        <time>2020-06-15T15:09:01Z</time>
      </trkpt>
      <trkpt lat="49.45255" lon="-1.21938">
        <ele>3</ele>
        <time>2020-06-15T15:09:02Z</time>
      </trkpt>
      <trkpt lat="49.4525" lon="-1.21933">
        <ele>3</ele>
        <time>2020-06-15T15:09:03Z</time>
      </trkpt>
      <trkpt lat="49.45245" lon="-1.21927">
        <ele>3</ele>
        <time>2020-06-15T15:09:04Z</time>
      </trkpt>
      <trkpt lat="49.45239" lon="-1.2192">
        <ele>3</ele>
        <time>2020-06-15T15:09:05Z</time>
      </trkpt>
      <trkpt lat="49.45234" lon="-1.21914">
        <ele>3</ele>
        <time>2020-06-15T15:09:06Z</time>
      </trkpt>
      <trkpt lat="49.45229" lon="-1.21908">
        <ele>3</ele>
        <time>2020-06-15T15:09:07Z</time>
      </trkpt>
      <trkpt lat="49.45224" lon="-1.21902">
        <ele>3</ele>
        <time>2020-06-15T15:09:08Z</time>
      </trkpt>
      <trkpt lat="49.45219" lon="-1.21896">
        <ele>3</ele>
        <time>2020-06-15T15:09:09Z</time>
      </trkpt>
      <trkpt lat="49.45214" lon="-1.21891">
        <ele>3</ele>
        <time>2020-06-15T15:09:10Z</time>
      </trkpt>
      <trkpt lat="49.45209" lon="-1.21885">
        <ele>3</ele>
        <time>2020-06-15T15:09:11Z</time>
      </trkpt>
      <trkpt lat="49.45204" lon="-1.2188">
        <ele>3</ele>
        <time>2020-06-15T15:09:12Z</time>
      </trkpt>
      <trkpt lat="49.452" lon="-1.21875">
        <ele>3</ele>
        <time>2020-06-15T15:09:13Z</time>
      </trkpt>
      <trkpt lat="49.45195" lon="-1.21869">
        <ele>3</ele>
        <time>2020-06-15T15:09:14Z</time>
      </trkpt>
      <trkpt lat="49.45191" lon="-1.21864">
        <ele>3</ele>
        <time>2020-06-15T15:09:15Z</time>
      </trkpt>
      <trkpt lat="49.45186" lon="-1.21858">
        <ele>3</ele>
        <time>2020-06-15T15:09:16Z</time>
      </trkpt>
      <trkpt lat="49.45181" lon="-1.21853">
        <ele>3</ele>
        <time>2020-06-15T15:09:17Z</time>
      </trkpt>
      <trkpt lat="49.45175" lon="-1.21846">
        <ele>3</ele>
        <time>2020-06-15T15:09:18Z</time>
      </trkpt>
      <trkpt lat="49.4517" lon="-1.21839">
        <ele>3</ele>
        <time>2020-06-15T15:09:19Z</time>
      </trkpt>
      <trkpt lat="49.45165" lon="-1.21834">
        <ele>3</ele>
        <time>2020-06-15T15:09:20Z</time>
      </trkpt>
      <trkpt lat="49.4516" lon="-1.21828">
        <ele>3.1</ele>
        <time>2020-06-15T15:09:21Z</time>
      </trkpt>
      <trkpt lat="49.45154" lon="-1.21821">
        <ele>3.1</ele>
        <time>2020-06-15T15:09:22Z</time>
      </trkpt>
      <trkpt lat="49.45149" lon="-1.21814">
        <ele>3.1</ele>
        <time>2020-06-15T15:09:23Z</time>
      </trkpt>
      <trkpt lat="49.45143" lon="-1.21808">
        <ele>3.2</ele>
        <time>2020-06-15T15:09:24Z</time>
      </trkpt>
      <trkpt lat="49.45138" lon="-1.21802">
        <ele>3.2</ele>
        <time>2020-06-15T15:09:25Z</time>
      </trkpt>
      <trkpt lat="49.45133" lon="-1.21794">
        <ele>3.2</ele>
        <time>2020-06-15T15:09:26Z</time>
      </trkpt>
      <trkpt lat="49.45127" lon="-1.21787">
        <ele>3.3</ele>
        <time>2020-06-15T15:09:27Z</time>
      </trkpt>
      <trkpt lat="49.45122" lon="-1.21783">
        <ele>3.3</ele>
        <time>2020-06-15T15:09:28Z</time>
      </trkpt>
      <trkpt lat="49.45117" lon="-1.21778">
        <ele>3.3</ele>
        <time>2020-06-15T15:09:29Z</time>
      </trkpt>
      <trkpt lat="49.45112" lon="-1.21772">
        <ele>3.2</ele>
        <time>2020-06-15T15:09:30Z</time>
      </trkpt>
      <trkpt lat="49.45107" lon="-1.21768">
        <ele>3.2</ele>
        <time>2020-06-15T15:09:31Z</time>
      </trkpt>
      <trkpt lat="49.45102" lon="-1.21761">
        <ele>3.1</ele>
        <time>2020-06-15T15:09:32Z</time>
      </trkpt>
      <trkpt lat="49.45098" lon="-1.21756">
        <ele>3.1</ele>
        <time>2020-06-15T15:09:33Z</time>
      </trkpt>
      <trkpt lat="49.45092" lon="-1.21751">
        <ele>3</ele>
        <time>2020-06-15T15:09:34Z</time>
      </trkpt>
      <trkpt lat="49.45087" lon="-1.21746">
        <ele>3</ele>
        <time>2020-06-15T15:09:35Z</time>
      </trkpt>
      <trkpt lat="49.45082" lon="-1.2174">
        <ele>3</ele>
        <time>2020-06-15T15:09:36Z</time>
      </trkpt>
      <trkpt lat="49.45076" lon="-1.21734">
        <ele>3</ele>
        <time>2020-06-15T15:09:37Z</time>
      </trkpt>
      <trkpt lat="49.4507" lon="-1.21729">
        <ele>3.1</ele>
        <time>2020-06-15T15:09:38Z</time>
      </trkpt>
      <trkpt lat="49.45064" lon="-1.21723">
        <ele>3.1</ele>
        <time>2020-06-15T15:09:39Z</time>
      </trkpt>
      <trkpt lat="49.45057" lon="-1.21717">
        <ele>3.1</ele>
        <time>2020-06-15T15:09:40Z</time>
      </trkpt>
      <trkpt lat="49.45052" lon="-1.21713">
        <ele>3.1</ele>
        <time>2020-06-15T15:09:41Z</time>
      </trkpt>
      <trkpt lat="49.45045" lon="-1.21709">
        <ele>3.1</ele>
        <time>2020-06-15T15:09:42Z</time>
      </trkpt>
      <trkpt lat="49.4504" lon="-1.21704">
        <ele>3.1</ele>
        <time>2020-06-15T15:09:43Z</time>
      </trkpt>
      <trkpt lat="49.45034" lon="-1.217">
        <ele>3.1</ele>
        <time>2020-06-15T15:09:44Z</time>
      </trkpt>
      <trkpt lat="49.45028" lon="-1.21695">
        <ele>3.1</ele>
        <time>2020-06-15T15:09:45Z</time>
      </trkpt>
      <trkpt lat="49.45022" lon="-1.21691">
        <ele>3</ele>
        <time>2020-06-15T15:09:46Z</time>
      </trkpt>
      <trkpt lat="49.45016" lon="-1.21687">
        <ele>3</ele>
        <time>2020-06-15T15:09:47Z</time>
      </trkpt>
      <trkpt lat="49.4501" lon="-1.21682">
        <ele>3</ele>
        <time>2020-06-15T15:09:48Z</time>
      </trkpt>
      <trkpt lat="49.45005" lon="-1.21679">
        <ele>2.9</ele>
        <time>2020-06-15T15:09:49Z</time>
      </trkpt>
      <trkpt lat="49.44999" lon="-1.21674">
        <ele>2.9</ele>
        <time>2020-06-15T15:09:50Z</time>
      </trkpt>
      <trkpt lat="49.44993" lon="-1.2167">
        <ele>2.9</ele>
        <time>2020-06-15T15:09:51Z</time>
      </trkpt>
      <trkpt lat="49.44986" lon="-1.21666">
        <ele>2.9</ele>
        <time>2020-06-15T15:09:52Z</time>
      </trkpt>
      <trkpt lat="49.4498" lon="-1.21661">
        <ele>3</ele>
        <time>2020-06-15T15:09:53Z</time>
      </trkpt>
      <trkpt lat="49.44975" lon="-1.21657">
        <ele>3</ele>
        <time>2020-06-15T15:09:54Z</time>
      </trkpt>
      <trkpt lat="49.44968" lon="-1.21653">
        <ele>3</ele>
        <time>2020-06-15T15:09:55Z</time>
      </trkpt>
      <trkpt lat="49.44963" lon="-1.2165">
        <ele>3.1</ele>
        <time>2020-06-15T15:09:56Z</time>
      </trkpt>
      <trkpt lat="49.44957" lon="-1.21646">
        <ele>3.2</ele>
        <time>2020-06-15T15:09:57Z</time>
      </trkpt>
      <trkpt lat="49.44952" lon="-1.21643">
        <ele>3.2</ele>
        <time>2020-06-15T15:09:58Z</time>
      </trkpt>
      <trkpt lat="49.44947" lon="-1.2164">
        <ele>3.2</ele>
        <time>2020-06-15T15:09:59Z</time>
      </trkpt>
      <trkpt lat="49.44942" lon="-1.21636">
        <ele>3.3</ele>
        <time>2020-06-15T15:10:00Z</time>
      </trkpt>
      <trkpt lat="49.44937" lon="-1.21633">
        <ele>3.3</ele>
        <time>2020-06-15T15:10:01Z</time>
      </trkpt>
      <trkpt lat="49.44932" lon="-1.21629">
        <ele>3.3</ele>
        <time>2020-06-15T15:10:02Z</time>
      </trkpt>
      <trkpt lat="49.44927" lon="-1.21626">
        <ele>3.3</ele>
        <time>2020-06-15T15:10:03Z</time>
      </trkpt>
      <trkpt lat="49.44921" lon="-1.21622">
        <ele>3.3</ele>
        <time>2020-06-15T15:10:04Z</time>
      </trkpt>
      <trkpt lat="49.44916" lon="-1.21619">
        <ele>3.2</ele>
        <time>2020-06-15T15:10:05Z</time>
      </trkpt>
      <trkpt lat="49.44909" lon="-1.21614">
        <ele>3.1</ele>
        <time>2020-06-15T15:10:06Z</time>
      </trkpt>
      <trkpt lat="49.44904" lon="-1.2161">
        <ele>3.1</ele>
        <time>2020-06-15T15:10:07Z</time>
      </trkpt>
      <trkpt lat="49.44897" lon="-1.21607">
        <ele>3</ele>
        <time>2020-06-15T15:10:08Z</time>
      </trkpt>
      <trkpt lat="49.44892" lon="-1.21603">
        <ele>2.9</ele>
        <time>2020-06-15T15:10:09Z</time>
      </trkpt>
      <trkpt lat="49.44886" lon="-1.21601">
        <ele>2.8</ele>
        <time>2020-06-15T15:10:10Z</time>
      </trkpt>
      <trkpt lat="49.44881" lon="-1.21597">
        <ele>2.8</ele>
        <time>2020-06-15T15:10:11Z</time>
      </trkpt>
      <trkpt lat="49.44874" lon="-1.21592">
        <ele>2.7</ele>
        <time>2020-06-15T15:10:12Z</time>
      </trkpt>
      <trkpt lat="49.44868" lon="-1.21588">
        <ele>2.7</ele>
        <time>2020-06-15T15:10:13Z</time>
      </trkpt>
      <trkpt lat="49.44862" lon="-1.21584">
        <ele>2.6</ele>
        <time>2020-06-15T15:10:14Z</time>
      </trkpt>
      <trkpt lat="49.44856" lon="-1.21579">
        <ele>2.6</ele>
        <time>2020-06-15T15:10:15Z</time>
      </trkpt>
      <trkpt lat="49.4485" lon="-1.21576">
        <ele>2.5</ele>
        <time>2020-06-15T15:10:16Z</time>
      </trkpt>
      <trkpt lat="49.44844" lon="-1.2157">
        <ele>2.5</ele>
        <time>2020-06-15T15:10:17Z</time>
      </trkpt>
      <trkpt lat="49.44837" lon="-1.21565">
        <ele>2.5</ele>
        <time>2020-06-15T15:10:18Z</time>
      </trkpt>
      <trkpt lat="49.44831" lon="-1.21561">
        <ele>2.5</ele>
        <time>2020-06-15T15:10:19Z</time>
      </trkpt>
      <trkpt lat="49.44825" lon="-1.21557">
        <ele>2.5</ele>
        <time>2020-06-15T15:10:20Z</time>
      </trkpt>
      <trkpt lat="49.44819" lon="-1.21552">
        <ele>2.5</ele>
        <time>2020-06-15T15:10:21Z</time>
      </trkpt>
      <trkpt lat="49.44813" lon="-1.21549">
        <ele>2.4</ele>
        <time>2020-06-15T15:10:22Z</time>
      </trkpt>
      <trkpt lat="49.44807" lon="-1.21546">
        <ele>2.4</ele>
        <time>2020-06-15T15:10:23Z</time>
      </trkpt>
      <trkpt lat="49.44801" lon="-1.21542">
        <ele>2.4</ele>
        <time>2020-06-15T15:10:24Z</time>
      </trkpt>
      <trkpt lat="49.44795" lon="-1.21537">
        <ele>2.4</ele>
        <time>2020-06-15T15:10:25Z</time>
      </trkpt>
      <trkpt lat="49.44788" lon="-1.21534">
        <ele>2.3</ele>
        <time>2020-06-15T15:10:26Z</time>
      </trkpt>
      <trkpt lat="49.44782" lon="-1.2153">
        <ele>2.3</ele>
        <time>2020-06-15T15:10:27Z</time>
      </trkpt>
      <trkpt lat="49.44777" lon="-1.21525">
        <ele>2.3</ele>
        <time>2020-06-15T15:10:28Z</time>
      </trkpt>
      <trkpt lat="49.44771" lon="-1.2152">
        <ele>2.3</ele>
        <time>2020-06-15T15:10:29Z</time>
      </trkpt>
      <trkpt lat="49.44765" lon="-1.21516">
        <ele>2.2</ele>
        <time>2020-06-15T15:10:30Z</time>
      </trkpt>
      <trkpt lat="49.44759" lon="-1.21511">
        <ele>2.2</ele>
        <time>2020-06-15T15:10:31Z</time>
      </trkpt>
      <trkpt lat="49.44753" lon="-1.21507">
        <ele>2.1</ele>
        <time>2020-06-15T15:10:32Z</time>
      </trkpt>
      <trkpt lat="49.44748" lon="-1.21501">
        <ele>2.1</ele>
        <time>2020-06-15T15:10:33Z</time>
      </trkpt>
      <trkpt lat="49.44743" lon="-1.21496">
        <ele>2.1</ele>
        <time>2020-06-15T15:10:34Z</time>
      </trkpt>
      <trkpt lat="49.44737" lon="-1.21489">
        <ele>2.1</ele>
        <time>2020-06-15T15:10:35Z</time>
      </trkpt>
      <trkpt lat="49.44732" lon="-1.21482">
        <ele>2</ele>
        <time>2020-06-15T15:10:36Z</time>
      </trkpt>
      <trkpt lat="49.44727" lon="-1.21475">
        <ele>2</ele>
        <time>2020-06-15T15:10:37Z</time>
      </trkpt>
      <trkpt lat="49.44722" lon="-1.21468">
        <ele>2</ele>
        <time>2020-06-15T15:10:38Z</time>
      </trkpt>
      <trkpt lat="49.44717" lon="-1.21462">
        <ele>2</ele>
        <time>2020-06-15T15:10:39Z</time>
      </trkpt>
      <trkpt lat="49.44712" lon="-1.21455">
        <ele>2</ele>
        <time>2020-06-15T15:10:40Z</time>
      </trkpt>
      <trkpt lat="49.44707" lon="-1.21448">
        <ele>2</ele>
        <time>2020-06-15T15:10:41Z</time>
      </trkpt>
      <trkpt lat="49.44702" lon="-1.21441">
        <ele>2</ele>
        <time>2020-06-15T15:10:42Z</time>
      </trkpt>
      <trkpt lat="49.44697" lon="-1.21434">
        <ele>2</ele>
        <time>2020-06-15T15:10:43Z</time>
      </trkpt>
      <trkpt lat="49.44692" lon="-1.21428">
        <ele>2</ele>
        <time>2020-06-15T15:10:44Z</time>
      </trkpt>
      <trkpt lat="49.44687" lon="-1.21422">
        <ele>2</ele>
        <time>2020-06-15T15:10:45Z</time>
      </trkpt>
      <trkpt lat="49.44682" lon="-1.21416">
        <ele>2.1</ele>
        <time>2020-06-15T15:10:46Z</time>
      </trkpt>
      <trkpt lat="49.44676" lon="-1.21409">
        <ele>2.1</ele>
        <time>2020-06-15T15:10:47Z</time>
      </trkpt>
      <trkpt lat="49.44671" lon="-1.21403">
        <ele>2.1</ele>
        <time>2020-06-15T15:10:48Z</time>
      </trkpt>
      <trkpt lat="49.44665" lon="-1.21397">
        <ele>2.1</ele>
        <time>2020-06-15T15:10:49Z</time>
      </trkpt>
      <trkpt lat="49.44659" lon="-1.21391">
        <ele>2.1</ele>
        <time>2020-06-15T15:10:50Z</time>
      </trkpt>
      <trkpt lat="49.44654" lon="-1.21385">
        <ele>2.1</ele>
        <time>2020-06-15T15:10:51Z</time>
      </trkpt>
      <trkpt lat="49.44649" lon="-1.2138">
        <ele>2.1</ele>
        <time>2020-06-15T15:10:52Z</time>
      </trkpt>
      <trkpt lat="49.44643" lon="-1.21377">
        <ele>2.2</ele>
        <time>2020-06-15T15:10:53Z</time>
      </trkpt>
      <trkpt lat="49.44638" lon="-1.21374">
        <ele>2.3</ele>
        <time>2020-06-15T15:10:54Z</time>
      </trkpt>
      <trkpt lat="49.44632" lon="-1.2137">
        <ele>2.3</ele>
        <time>2020-06-15T15:10:55Z</time>
      </trkpt>
      <trkpt lat="49.44626" lon="-1.21367">
        <ele>2.4</ele>
        <time>2020-06-15T15:10:56Z</time>
      </trkpt>
      <trkpt lat="49.4462" lon="-1.21363">
        <ele>2.4</ele>
        <time>2020-06-15T15:10:57Z</time>
      </trkpt>
      <trkpt lat="49.44614" lon="-1.21359">
        <ele>2.4</ele>
        <time>2020-06-15T15:10:58Z</time>
      </trkpt>
      <trkpt lat="49.44608" lon="-1.21354">
        <ele>2.3</ele>
        <time>2020-06-15T15:10:59Z</time>
      </trkpt>
      <trkpt lat="49.44602" lon="-1.2135">
        <ele>2.3</ele>
        <time>2020-06-15T15:11:00Z</time>
      </trkpt>
      <trkpt lat="49.44596" lon="-1.21346">
        <ele>2.2</ele>
        <time>2020-06-15T15:11:01Z</time>
      </trkpt>
      <trkpt lat="49.44589" lon="-1.21342">
        <ele>2.1</ele>
        <time>2020-06-15T15:11:02Z</time>
      </trkpt>
      <trkpt lat="49.44584" lon="-1.21338">
        <ele>2.1</ele>
        <time>2020-06-15T15:11:03Z</time>
      </trkpt>
      <trkpt lat="49.44578" lon="-1.21335">
        <ele>2.1</ele>
        <time>2020-06-15T15:11:04Z</time>
      </trkpt>
      <trkpt lat="49.44572" lon="-1.21332">
        <ele>2.1</ele>
        <time>2020-06-15T15:11:05Z</time>
      </trkpt>
      <trkpt lat="49.44565" lon="-1.21328">
        <ele>2.1</ele>
        <time>2020-06-15T15:11:06Z</time>
      </trkpt>
      <trkpt lat="49.44559" lon="-1.21324">
        <ele>2.1</ele>
        <time>2020-06-15T15:11:07Z</time>
      </trkpt>
      <trkpt lat="49.44552" lon="-1.21322">
        <ele>2</ele>
        <time>2020-06-15T15:11:08Z</time>
      </trkpt>
      <trkpt lat="49.44546" lon="-1.21319">
        <ele>2</ele>
        <time>2020-06-15T15:11:09Z</time>
      </trkpt>
      <trkpt lat="49.4454" lon="-1.21316">
        <ele>2</ele>
        <time>2020-06-15T15:11:10Z</time>
      </trkpt>
      <trkpt lat="49.44534" lon="-1.21314">
        <ele>2</ele>
        <time>2020-06-15T15:11:11Z</time>
      </trkpt>
      <trkpt lat="49.44528" lon="-1.21311">
        <ele>2</ele>
        <time>2020-06-15T15:11:12Z</time>
      </trkpt>
      <trkpt lat="49.44522" lon="-1.21309">
        <ele>2</ele>
        <time>2020-06-15T15:11:13Z</time>
      </trkpt>
      <trkpt lat="49.44515" lon="-1.21308">
        <ele>2</ele>
        <time>2020-06-15T15:11:14Z</time>
      </trkpt>
      <trkpt lat="49.44508" lon="-1.21304">
        <ele>1.9</ele>
        <time>2020-06-15T15:11:15Z</time>
      </trkpt>
      <trkpt lat="49.44501" lon="-1.21302">
        <ele>1.9</ele>
        <time>2020-06-15T15:11:16Z</time>
      </trkpt>
      <trkpt lat="49.44495" lon="-1.21302">
        <ele>1.9</ele>
        <time>2020-06-15T15:11:17Z</time>
      </trkpt>
      <trkpt lat="49.44489" lon="-1.21301">
        <ele>1.9</ele>
        <time>2020-06-15T15:11:18Z</time>
      </trkpt>
      <trkpt lat="49.44482" lon="-1.213">
        <ele>1.9</ele>
        <time>2020-06-15T15:11:19Z</time>
      </trkpt>
      <trkpt lat="49.44476" lon="-1.21298">
        <ele>1.9</ele>
        <time>2020-06-15T15:11:20Z</time>
      </trkpt>
      <trkpt lat="49.44469" lon="-1.21298">
        <ele>1.9</ele>
        <time>2020-06-15T15:11:21Z</time>
      </trkpt>
      <trkpt lat="49.44464" lon="-1.21297">
        <ele>1.9</ele>
        <time>2020-06-15T15:11:22Z</time>
      </trkpt>
      <trkpt lat="49.44458" lon="-1.21296">
        <ele>1.9</ele>
        <time>2020-06-15T15:11:23Z</time>
      </trkpt>
      <trkpt lat="49.44451" lon="-1.21296">
        <ele>1.9</ele>
        <time>2020-06-15T15:11:24Z</time>
      </trkpt>
      <trkpt lat="49.44445" lon="-1.21295">
        <ele>1.8</ele>
        <time>2020-06-15T15:11:25Z</time>
      </trkpt>
      <trkpt lat="49.44438" lon="-1.21295">
        <ele>1.8</ele>
        <time>2020-06-15T15:11:26Z</time>
      </trkpt>
      <trkpt lat="49.44432" lon="-1.21295">
        <ele>1.8</ele>
        <time>2020-06-15T15:11:27Z</time>
      </trkpt>
      <trkpt lat="49.44427" lon="-1.21294">
        <ele>1.8</ele>
        <time>2020-06-15T15:11:28Z</time>
      </trkpt>
      <trkpt lat="49.44421" lon="-1.21293">
        <ele>1.9</ele>
        <time>2020-06-15T15:11:29Z</time>
      </trkpt>
      <trkpt lat="49.44416" lon="-1.21292">
        <ele>1.9</ele>
        <time>2020-06-15T15:11:30Z</time>
      </trkpt>
      <trkpt lat="49.4441" lon="-1.21289">
        <ele>1.9</ele>
        <time>2020-06-15T15:11:31Z</time>
      </trkpt>
      <trkpt lat="49.44405" lon="-1.21286">
        <ele>1.9</ele>
        <time>2020-06-15T15:11:32Z</time>
      </trkpt>
      <trkpt lat="49.44401" lon="-1.2128">
        <ele>1.8</ele>
        <time>2020-06-15T15:11:33Z</time>
      </trkpt>
      <trkpt lat="49.44396" lon="-1.21272">
        <ele>1.8</ele>
        <time>2020-06-15T15:11:34Z</time>
      </trkpt>
      <trkpt lat="49.44392" lon="-1.21263">
        <ele>1.8</ele>
        <time>2020-06-15T15:11:35Z</time>
      </trkpt>
      <trkpt lat="49.44388" lon="-1.21253">
        <ele>1.8</ele>
        <time>2020-06-15T15:11:36Z</time>
      </trkpt>
      <trkpt lat="49.44384" lon="-1.21242">
        <ele>1.8</ele>
        <time>2020-06-15T15:11:37Z</time>
      </trkpt>
      <trkpt lat="49.44381" lon="-1.21233">
        <ele>1.8</ele>
        <time>2020-06-15T15:11:38Z</time>
      </trkpt>
      <trkpt lat="49.44379" lon="-1.21222">
        <ele>1.9</ele>
        <time>2020-06-15T15:11:39Z</time>
      </trkpt>
      <trkpt lat="49.44378" lon="-1.21214">
        <ele>1.9</ele>
        <time>2020-06-15T15:11:40Z</time>
      </trkpt>
      <trkpt lat="49.44377" lon="-1.21204">
        <ele>2</ele>
        <time>2020-06-15T15:11:41Z</time>
      </trkpt>
      <trkpt lat="49.44377" lon="-1.21196">
        <ele>2</ele>
        <time>2020-06-15T15:11:42Z</time>
      </trkpt>
      <trkpt lat="49.44377" lon="-1.21188">
        <ele>2</ele>
        <time>2020-06-15T15:11:43Z</time>
      </trkpt>
      <trkpt lat="49.44378" lon="-1.2118">
        <ele>2</ele>
        <time>2020-06-15T15:11:44Z</time>
      </trkpt>
      <trkpt lat="49.44378" lon="-1.21171">
        <ele>2</ele>
        <time>2020-06-15T15:11:45Z</time>
      </trkpt>
      <trkpt lat="49.4438" lon="-1.21161">
        <ele>2</ele>
        <time>2020-06-15T15:11:46Z</time>
      </trkpt>
      <trkpt lat="49.44382" lon="-1.21151">
        <ele>2</ele>
        <time>2020-06-15T15:11:47Z</time>
      </trkpt>
      <trkpt lat="49.44385" lon="-1.21141">
        <ele>1.9</ele>
        <time>2020-06-15T15:11:48Z</time>
      </trkpt>
      <trkpt lat="49.44386" lon="-1.21133">
        <ele>1.9</ele>
        <time>2020-06-15T15:11:49Z</time>
      </trkpt>
      <trkpt lat="49.44388" lon="-1.21124">
        <ele>1.9</ele>
        <time>2020-06-15T15:11:50Z</time>
      </trkpt>
      <trkpt lat="49.4439" lon="-1.21116">
        <ele>1.9</ele>
        <time>2020-06-15T15:11:51Z</time>
      </trkpt>
      <trkpt lat="49.4439" lon="-1.21105">
        <ele>1.9</ele>
        <time>2020-06-15T15:11:52Z</time>
      </trkpt>
      <trkpt lat="49.4439" lon="-1.21097">
        <ele>2</ele>
        <time>2020-06-15T15:11:53Z</time>
      </trkpt>
      <trkpt lat="49.4439" lon="-1.21088">
        <ele>2</ele>
        <time>2020-06-15T15:11:54Z</time>
      </trkpt>
      <trkpt lat="49.44388" lon="-1.21078">
        <ele>2</ele>
        <time>2020-06-15T15:11:55Z</time>
      </trkpt>
      <trkpt lat="49.44386" lon="-1.21069">
        <ele>2.1</ele>
        <time>2020-06-15T15:11:56Z</time>
      </trkpt>
      <trkpt lat="49.44383" lon="-1.21059">
        <ele>2.1</ele>
        <time>2020-06-15T15:11:57Z</time>
      </trkpt>
      <trkpt lat="49.4438" lon="-1.2105">
        <ele>2.1</ele>
        <time>2020-06-15T15:11:58Z</time>
      </trkpt>
      <trkpt lat="49.44378" lon="-1.21043">
        <ele>2.2</ele>
        <time>2020-06-15T15:11:59Z</time>
      </trkpt>
      <trkpt lat="49.44375" lon="-1.21033">
        <ele>2.2</ele>
        <time>2020-06-15T15:12:00Z</time>
      </trkpt>
      <trkpt lat="49.44372" lon="-1.21026">
        <ele>2.3</ele>
        <time>2020-06-15T15:12:01Z</time>
      </trkpt>
      <trkpt lat="49.4437" lon="-1.2102">
        <ele>2.3</ele>
        <time>2020-06-15T15:12:02Z</time>
      </trkpt>
      <trkpt lat="49.44369" lon="-1.21012">
        <ele>2.3</ele>
        <time>2020-06-15T15:12:03Z</time>
      </trkpt>
      <trkpt lat="49.44368" lon="-1.21006">
        <ele>2.4</ele>
        <time>2020-06-15T15:12:04Z</time>
      </trkpt>
      <trkpt lat="49.44369" lon="-1.20997">
        <ele>2.6</ele>
        <time>2020-06-15T15:12:05Z</time>
      </trkpt>
      <trkpt lat="49.44369" lon="-1.2099">
        <ele>2.7</ele>
        <time>2020-06-15T15:12:06Z</time>
      </trkpt>
      <trkpt lat="49.4437" lon="-1.20984">
        <ele>2.8</ele>
        <time>2020-06-15T15:12:07Z</time>
      </trkpt>
      <trkpt lat="49.4437" lon="-1.20979">
        <ele>2.9</ele>
        <time>2020-06-15T15:12:08Z</time>
      </trkpt>
      <trkpt lat="49.4437" lon="-1.20973">
        <ele>2.9</ele>
        <time>2020-06-15T15:12:09Z</time>
      </trkpt>
      <trkpt lat="49.44371" lon="-1.2097">
        <ele>3</ele>
        <time>2020-06-15T15:12:10Z</time>
      </trkpt>
      <trkpt lat="49.44372" lon="-1.20966">
        <ele>3.1</ele>
        <time>2020-06-15T15:12:11Z</time>
      </trkpt>
      <trkpt lat="49.44372" lon="-1.20964">
        <ele>3.1</ele>
        <time>2020-06-15T15:12:12Z</time>
      </trkpt>
      <trkpt lat="49.44373" lon="-1.20961">
        <ele>3.1</ele>
        <time>2020-06-15T15:12:13Z</time>
      </trkpt>
      <trkpt lat="49.44373" lon="-1.20959">
        <ele>3.2</ele>
        <time>2020-06-15T15:12:14Z</time>
      </trkpt>
      <trkpt lat="49.44374" lon="-1.20955">
        <ele>3.1</ele>
        <time>2020-06-15T15:12:15Z</time>
      </trkpt>
      <trkpt lat="49.44374" lon="-1.20954">
        <ele>3.1</ele>
        <time>2020-06-15T15:12:16Z</time>
      </trkpt>
      <trkpt lat="49.44375" lon="-1.20948">
        <ele>3.1</ele>
        <time>2020-06-15T15:12:17Z</time>
      </trkpt>
      <trkpt lat="49.44376" lon="-1.20946">
        <ele>3.1</ele>
        <time>2020-06-15T15:12:18Z</time>
      </trkpt>
      <trkpt lat="49.44378" lon="-1.20941">
        <ele>3</ele>
        <time>2020-06-15T15:12:19Z</time>
      </trkpt>
      <trkpt lat="49.4438" lon="-1.20936">
        <ele>3</ele>
        <time>2020-06-15T15:12:20Z</time>
      </trkpt>
      <trkpt lat="49.44382" lon="-1.20931">
        <ele>3</ele>
        <time>2020-06-15T15:12:21Z</time>
      </trkpt>
      <trkpt lat="49.44384" lon="-1.20927">
        <ele>3</ele>
        <time>2020-06-15T15:12:22Z</time>
      </trkpt>
      <trkpt lat="49.44385" lon="-1.20923">
        <ele>3.1</ele>
        <time>2020-06-15T15:12:23Z</time>
      </trkpt>
      <trkpt lat="49.44387" lon="-1.20918">
        <ele>3.1</ele>
        <time>2020-06-15T15:12:24Z</time>
      </trkpt>
      <trkpt lat="49.44388" lon="-1.20916">
        <ele>3.1</ele>
        <time>2020-06-15T15:12:25Z</time>
      </trkpt>
      <trkpt lat="49.44389" lon="-1.20912">
        <ele>3.1</ele>
        <time>2020-06-15T15:12:26Z</time>
      </trkpt>
      <trkpt lat="49.44392" lon="-1.20907">
        <ele>3.1</ele>
        <time>2020-06-15T15:12:27Z</time>
      </trkpt>
      <trkpt lat="49.44394" lon="-1.20902">
        <ele>3.1</ele>
        <time>2020-06-15T15:12:28Z</time>
      </trkpt>
      <trkpt lat="49.44395" lon="-1.20899">
        <ele>3.2</ele>
        <time>2020-06-15T15:12:29Z</time>
      </trkpt>
      <trkpt lat="49.44397" lon="-1.20896">
        <ele>3.2</ele>
        <time>2020-06-15T15:12:30Z</time>
      </trkpt>
      <trkpt lat="49.44397" lon="-1.20895">
        <ele>3.2</ele>
        <time>2020-06-15T15:12:31Z</time>
      </trkpt>
      <trkpt lat="49.44398" lon="-1.20892">
        <ele>3.2</ele>
        <time>2020-06-15T15:12:32Z</time>
      </trkpt>
      <trkpt lat="49.44399" lon="-1.2089">
        <ele>3.2</ele>
        <time>2020-06-15T15:12:33Z</time>
      </trkpt>
      <trkpt lat="49.44399" lon="-1.20889">
        <ele>3.2</ele>
        <time>2020-06-15T15:12:34Z</time>
      </trkpt>
      <trkpt lat="49.444" lon="-1.20888">
        <ele>3.3</ele>
        <time>2020-06-15T15:12:35Z</time>
      </trkpt>
      <trkpt lat="49.444" lon="-1.20886">
        <ele>3.3</ele>
        <time>2020-06-15T15:12:36Z</time>
      </trkpt>
      <trkpt lat="49.444" lon="-1.20888">
        <ele>3.3</ele>
        <time>2020-06-15T15:12:37Z</time>
      </trkpt>
      <trkpt lat="49.444" lon="-1.20887">
        <ele>3.3</ele>
        <time>2020-06-15T15:12:38Z</time>
      </trkpt>
      <trkpt lat="49.444" lon="-1.20886">
        <ele>3.3</ele>
        <time>2020-06-15T15:12:39Z</time>
      </trkpt>
      <trkpt lat="49.44401" lon="-1.20885">
        <ele>3.3</ele>
        <time>2020-06-15T15:12:40Z</time>
      </trkpt>
      <trkpt lat="49.444" lon="-1.20886">
        <ele>3.3</ele>
        <time>2020-06-15T15:12:41Z</time>
      </trkpt>
      <trkpt lat="49.444" lon="-1.20886">
        <ele>3.3</ele>
        <time>2020-06-15T15:12:42Z</time>
      </trkpt>
      <trkpt lat="49.444" lon="-1.20886">
        <ele>3.3</ele>
        <time>2020-06-15T15:12:43Z</time>
      </trkpt>
      <trkpt lat="49.444" lon="-1.20885">
        <ele>3.3</ele>
        <time>2020-06-15T15:12:44Z</time>
      </trkpt>
      <trkpt lat="49.444" lon="-1.20885">
        <ele>3.3</ele>
        <time>2020-06-15T15:12:45Z</time>
      </trkpt>
      <trkpt lat="49.444" lon="-1.20885">
        <ele>3.3</ele>
        <time>2020-06-15T15:12:46Z</time>
      </trkpt>
      <trkpt lat="49.444" lon="-1.20885">
        <ele>3.3</ele>
        <time>2020-06-15T15:12:47Z</time>
      </trkpt>
      <trkpt lat="49.444" lon="-1.20885">
        <ele>3.3</ele>
        <time>2020-06-15T15:12:48Z</time>
      </trkpt>
      <trkpt lat="49.444" lon="-1.20885">
        <ele>3.3</ele>
        <time>2020-06-15T15:12:49Z</time>
      </trkpt>
      <trkpt lat="49.444" lon="-1.20885">
        <ele>3.3</ele>
        <time>2020-06-15T15:12:50Z</time>
      </trkpt>
      <trkpt lat="49.44412" lon="-1.20878">
        <ele>3.4</ele>
        <time>2020-06-15T15:14:33Z</time>
      </trkpt>
      <trkpt lat="49.44412" lon="-1.20877">
        <ele>3.4</ele>
        <time>2020-06-15T15:14:34Z</time>
      </trkpt>
      <trkpt lat="49.44412" lon="-1.20876">
        <ele>3.4</ele>
        <time>2020-06-15T15:14:35Z</time>
      </trkpt>
      <trkpt lat="49.44413" lon="-1.20876">
        <ele>3.4</ele>
        <time>2020-06-15T15:14:36Z</time>
      </trkpt>
      <trkpt lat="49.44413" lon="-1.20874">
        <ele>3.4</ele>
        <time>2020-06-15T15:14:37Z</time>
      </trkpt>
      <trkpt lat="49.44413" lon="-1.20872">
        <ele>3.4</ele>
        <time>2020-06-15T15:14:38Z</time>
      </trkpt>
      <trkpt lat="49.44414" lon="-1.20871">
        <ele>3.1</ele>
        <time>2020-06-15T15:14:39Z</time>
      </trkpt>
      <trkpt lat="49.44415" lon="-1.2087">
        <ele>3</ele>
        <time>2020-06-15T15:14:40Z</time>
      </trkpt>
      <trkpt lat="49.44416" lon="-1.20869">
        <ele>2.9</ele>
        <time>2020-06-15T15:14:41Z</time>
      </trkpt>
      <trkpt lat="49.44416" lon="-1.20868">
        <ele>2.9</ele>
        <time>2020-06-15T15:14:42Z</time>
      </trkpt>
      <trkpt lat="49.44416" lon="-1.20867">
        <ele>2.9</ele>
        <time>2020-06-15T15:14:43Z</time>
      </trkpt>
      <trkpt lat="49.44416" lon="-1.20867">
        <ele>2.8</ele>
        <time>2020-06-15T15:14:44Z</time>
      </trkpt>
      <trkpt lat="49.44416" lon="-1.20866">
        <ele>2.8</ele>
        <time>2020-06-15T15:14:45Z</time>
      </trkpt>
      <trkpt lat="49.44417" lon="-1.20865">
        <ele>2.7</ele>
        <time>2020-06-15T15:14:46Z</time>
      </trkpt>
      <trkpt lat="49.44418" lon="-1.20863">
        <ele>2.6</ele>
        <time>2020-06-15T15:14:47Z</time>
      </trkpt>
      <trkpt lat="49.44418" lon="-1.20862">
        <ele>2.6</ele>
        <time>2020-06-15T15:14:48Z</time>
      </trkpt>
      <trkpt lat="49.44419" lon="-1.20861">
        <ele>2.5</ele>
        <time>2020-06-15T15:14:49Z</time>
      </trkpt>
      <trkpt lat="49.44419" lon="-1.20859">
        <ele>2.4</ele>
        <time>2020-06-15T15:14:50Z</time>
      </trkpt>
      <trkpt lat="49.4442" lon="-1.20858">
        <ele>2.2</ele>
        <time>2020-06-15T15:14:51Z</time>
      </trkpt>
      <trkpt lat="49.4442" lon="-1.20857">
        <ele>2.2</ele>
        <time>2020-06-15T15:14:52Z</time>
      </trkpt>
      <trkpt lat="49.44421" lon="-1.20855">
        <ele>2.2</ele>
        <time>2020-06-15T15:14:53Z</time>
      </trkpt>
      <trkpt lat="49.44422" lon="-1.20854">
        <ele>2.2</ele>
        <time>2020-06-15T15:14:54Z</time>
      </trkpt>
      <trkpt lat="49.44422" lon="-1.20853">
        <ele>2.2</ele>
        <time>2020-06-15T15:14:55Z</time>
      </trkpt>
      <trkpt lat="49.44422" lon="-1.20851">
        <ele>2.2</ele>
        <time>2020-06-15T15:14:56Z</time>
      </trkpt>
      <trkpt lat="49.44423" lon="-1.20849">
        <ele>2.2</ele>
        <time>2020-06-15T15:14:57Z</time>
      </trkpt>
      <trkpt lat="49.44423" lon="-1.20848">
        <ele>2.1</ele>
        <time>2020-06-15T15:14:58Z</time>
      </trkpt>
      <trkpt lat="49.44424" lon="-1.20845">
        <ele>2.1</ele>
        <time>2020-06-15T15:14:59Z</time>
      </trkpt>
      <trkpt lat="49.44424" lon="-1.20844">
        <ele>2.1</ele>
        <time>2020-06-15T15:15:00Z</time>
      </trkpt>
      <trkpt lat="49.44424" lon="-1.20843">
        <ele>2.1</ele>
        <time>2020-06-15T15:15:01Z</time>
      </trkpt>
      <trkpt lat="49.44424" lon="-1.20842">
        <ele>2.1</ele>
        <time>2020-06-15T15:15:02Z</time>
      </trkpt>
      <trkpt lat="49.44425" lon="-1.2084">
        <ele>2.1</ele>
        <time>2020-06-15T15:15:03Z</time>
      </trkpt>
      <trkpt lat="49.44426" lon="-1.20838">
        <ele>2.1</ele>
        <time>2020-06-15T15:15:04Z</time>
      </trkpt>
      <trkpt lat="49.44426" lon="-1.20837">
        <ele>2</ele>
        <time>2020-06-15T15:15:05Z</time>
      </trkpt>
      <trkpt lat="49.44427" lon="-1.20835">
        <ele>2</ele>
        <time>2020-06-15T15:15:06Z</time>
      </trkpt>
      <trkpt lat="49.44428" lon="-1.20834">
        <ele>2</ele>
        <time>2020-06-15T15:15:07Z</time>
      </trkpt>
      <trkpt lat="49.4443" lon="-1.20834">
        <ele>2</ele>
        <time>2020-06-15T15:15:08Z</time>
      </trkpt>
      <trkpt lat="49.44431" lon="-1.20832">
        <ele>2</ele>
        <time>2020-06-15T15:15:09Z</time>
      </trkpt>
      <trkpt lat="49.44431" lon="-1.20831">
        <ele>2</ele>
        <time>2020-06-15T15:15:10Z</time>
      </trkpt>
      <trkpt lat="49.44433" lon="-1.2083">
        <ele>2</ele>
        <time>2020-06-15T15:15:11Z</time>
      </trkpt>
      <trkpt lat="49.44434" lon="-1.20829">
        <ele>1.9</ele>
        <time>2020-06-15T15:15:12Z</time>
      </trkpt>
      <trkpt lat="49.44434" lon="-1.20828">
        <ele>1.9</ele>
        <time>2020-06-15T15:15:13Z</time>
      </trkpt>
      <trkpt lat="49.44435" lon="-1.20827">
        <ele>1.9</ele>
        <time>2020-06-15T15:15:14Z</time>
      </trkpt>
      <trkpt lat="49.44435" lon="-1.20825">
        <ele>1.9</ele>
        <time>2020-06-15T15:15:15Z</time>
      </trkpt>
      <trkpt lat="49.44435" lon="-1.20824">
        <ele>1.9</ele>
        <time>2020-06-15T15:15:16Z</time>
      </trkpt>
      <trkpt lat="49.44435" lon="-1.20823">
        <ele>1.9</ele>
        <time>2020-06-15T15:15:17Z</time>
      </trkpt>
      <trkpt lat="49.44435" lon="-1.20821">
        <ele>1.9</ele>
        <time>2020-06-15T15:15:18Z</time>
      </trkpt>
      <trkpt lat="49.44436" lon="-1.2082">
        <ele>1.9</ele>
        <time>2020-06-15T15:15:19Z</time>
      </trkpt>
      <trkpt lat="49.44437" lon="-1.20818">
        <ele>1.8</ele>
        <time>2020-06-15T15:15:20Z</time>
      </trkpt>
      <trkpt lat="49.44438" lon="-1.20817">
        <ele>1.8</ele>
        <time>2020-06-15T15:15:21Z</time>
      </trkpt>
      <trkpt lat="49.44438" lon="-1.20816">
        <ele>1.8</ele>
        <time>2020-06-15T15:15:22Z</time>
      </trkpt>
      <trkpt lat="49.44439" lon="-1.20814">
        <ele>1.8</ele>
        <time>2020-06-15T15:15:23Z</time>
      </trkpt>
      <trkpt lat="49.4444" lon="-1.20812">
        <ele>1.8</ele>
        <time>2020-06-15T15:15:24Z</time>
      </trkpt>
      <trkpt lat="49.44441" lon="-1.2081">
        <ele>1.8</ele>
        <time>2020-06-15T15:15:25Z</time>
      </trkpt>
      <trkpt lat="49.44442" lon="-1.20809">
        <ele>1.7</ele>
        <time>2020-06-15T15:15:26Z</time>
      </trkpt>
      <trkpt lat="49.44443" lon="-1.20807">
        <ele>1.7</ele>
        <time>2020-06-15T15:15:27Z</time>
      </trkpt>
      <trkpt lat="49.44444" lon="-1.20805">
        <ele>1.7</ele>
        <time>2020-06-15T15:15:28Z</time>
      </trkpt>
      <trkpt lat="49.44444" lon="-1.20804">
        <ele>1.7</ele>
        <time>2020-06-15T15:15:29Z</time>
      </trkpt>
      <trkpt lat="49.44445" lon="-1.20803">
        <ele>1.7</ele>
        <time>2020-06-15T15:15:30Z</time>
      </trkpt>
      <trkpt lat="49.44446" lon="-1.20801">
        <ele>1.7</ele>
        <time>2020-06-15T15:15:31Z</time>
      </trkpt>
      <trkpt lat="49.44447" lon="-1.20799">
        <ele>1.6</ele>
        <time>2020-06-15T15:15:32Z</time>
      </trkpt>
      <trkpt lat="49.44447" lon="-1.20798">
        <ele>1.6</ele>
        <time>2020-06-15T15:15:33Z</time>
      </trkpt>
      <trkpt lat="49.44448" lon="-1.20797">
        <ele>1.6</ele>
        <time>2020-06-15T15:15:34Z</time>
      </trkpt>
      <trkpt lat="49.44448" lon="-1.20796">
        <ele>1.6</ele>
        <time>2020-06-15T15:15:35Z</time>
      </trkpt>
      <trkpt lat="49.44449" lon="-1.20794">
        <ele>1.6</ele>
        <time>2020-06-15T15:15:36Z</time>
      </trkpt>
      <trkpt lat="49.4445" lon="-1.20793">
        <ele>1.6</ele>
        <time>2020-06-15T15:15:37Z</time>
      </trkpt>
      <trkpt lat="49.4445" lon="-1.20792">
        <ele>1.6</ele>
        <time>2020-06-15T15:15:38Z</time>
      </trkpt>
      <trkpt lat="49.44451" lon="-1.2079">
        <ele>1.6</ele>
        <time>2020-06-15T15:15:39Z</time>
      </trkpt>
      <trkpt lat="49.44452" lon="-1.20789">
        <ele>1.6</ele>
        <time>2020-06-15T15:15:40Z</time>
      </trkpt>
      <trkpt lat="49.44452" lon="-1.20789">
        <ele>1.5</ele>
        <time>2020-06-15T15:15:41Z</time>
      </trkpt>
      <trkpt lat="49.44452" lon="-1.20787">
        <ele>1.5</ele>
        <time>2020-06-15T15:15:42Z</time>
      </trkpt>
      <trkpt lat="49.44452" lon="-1.20786">
        <ele>1.5</ele>
        <time>2020-06-15T15:15:43Z</time>
      </trkpt>
      <trkpt lat="49.44453" lon="-1.20785">
        <ele>1.5</ele>
        <time>2020-06-15T15:15:44Z</time>
      </trkpt>
      <trkpt lat="49.44453" lon="-1.20785">
        <ele>1.5</ele>
        <time>2020-06-15T15:15:45Z</time>
      </trkpt>
      <trkpt lat="49.44453" lon="-1.20784">
        <ele>1.5</ele>
        <time>2020-06-15T15:15:46Z</time>
      </trkpt>
      <trkpt lat="49.44453" lon="-1.20784">
        <ele>1.5</ele>
        <time>2020-06-15T15:15:47Z</time>
      </trkpt>
      <trkpt lat="49.44453" lon="-1.20784">
        <ele>1.5</ele>
        <time>2020-06-15T15:15:48Z</time>
      </trkpt>
      <trkpt lat="49.44453" lon="-1.20784">
        <ele>1.5</ele>
        <time>2020-06-15T15:15:49Z</time>
      </trkpt>
      <trkpt lat="49.44453" lon="-1.20784">
        <ele>1.5</ele>
        <time>2020-06-15T15:15:50Z</time>
      </trkpt>
      <trkpt lat="49.44454" lon="-1.20783">
        <ele>1.5</ele>
        <time>2020-06-15T15:15:51Z</time>
      </trkpt>
      <trkpt lat="49.44454" lon="-1.20782">
        <ele>1.5</ele>
        <time>2020-06-15T15:15:52Z</time>
      </trkpt>
      <trkpt lat="49.44453" lon="-1.20782">
        <ele>1.5</ele>
        <time>2020-06-15T15:15:53Z</time>
      </trkpt>
      <trkpt lat="49.44453" lon="-1.20783">
        <ele>1.5</ele>
        <time>2020-06-15T15:15:54Z</time>
      </trkpt>
      <trkpt lat="49.44453" lon="-1.20784">
        <ele>1.5</ele>
        <time>2020-06-15T15:15:55Z</time>
      </trkpt>
      <trkpt lat="49.44453" lon="-1.20785">
        <ele>1.5</ele>
        <time>2020-06-15T15:15:56Z</time>
      </trkpt>
      <trkpt lat="49.44453" lon="-1.20786">
        <ele>1.4</ele>
        <time>2020-06-15T15:15:57Z</time>
      </trkpt>
      <trkpt lat="49.44453" lon="-1.20786">
        <ele>1.4</ele>
        <time>2020-06-15T15:15:58Z</time>
      </trkpt>
      <trkpt lat="49.44453" lon="-1.20786">
        <ele>1.4</ele>
        <time>2020-06-15T15:15:59Z</time>
      </trkpt>
      <trkpt lat="49.44453" lon="-1.20786">
        <ele>1.4</ele>
        <time>2020-06-15T15:16:00Z</time>
      </trkpt>
      <trkpt lat="49.44453" lon="-1.20786">
        <ele>1.4</ele>
        <time>2020-06-15T15:16:01Z</time>
      </trkpt>
      <trkpt lat="49.44453" lon="-1.20786">
        <ele>1.4</ele>
        <time>2020-06-15T15:16:02Z</time>
      </trkpt>
      <trkpt lat="49.44453" lon="-1.20786">
        <ele>1.4</ele>
        <time>2020-06-15T15:16:03Z</time>
      </trkpt>
      <trkpt lat="49.44453" lon="-1.20786">
        <ele>1.4</ele>
        <time>2020-06-15T15:16:04Z</time>
      </trkpt>
      <trkpt lat="49.44453" lon="-1.20786">
        <ele>1.4</ele>
        <time>2020-06-15T15:16:05Z</time>
      </trkpt>
      <trkpt lat="49.44453" lon="-1.20786">
        <ele>1.4</ele>
        <time>2020-06-15T15:16:06Z</time>
      </trkpt>
      <trkpt lat="49.44452" lon="-1.20794">
        <ele>1.4</ele>
        <time>2020-06-15T15:17:56Z</time>
      </trkpt>
      <trkpt lat="49.44451" lon="-1.20794">
        <ele>1.4</ele>
        <time>2020-06-15T15:17:57Z</time>
      </trkpt>
      <trkpt lat="49.4445" lon="-1.20795">
        <ele>1.4</ele>
        <time>2020-06-15T15:17:58Z</time>
      </trkpt>
      <trkpt lat="49.4445" lon="-1.20795">
        <ele>1.4</ele>
        <time>2020-06-15T15:17:59Z</time>
      </trkpt>
      <trkpt lat="49.44449" lon="-1.20796">
        <ele>1.3</ele>
        <time>2020-06-15T15:18:00Z</time>
      </trkpt>
      <trkpt lat="49.44447" lon="-1.20798">
        <ele>1.3</ele>
        <time>2020-06-15T15:18:01Z</time>
      </trkpt>
      <trkpt lat="49.44447" lon="-1.20799">
        <ele>1.3</ele>
        <time>2020-06-15T15:18:02Z</time>
      </trkpt>
      <trkpt lat="49.44447" lon="-1.208">
        <ele>1.3</ele>
        <time>2020-06-15T15:18:03Z</time>
      </trkpt>
      <trkpt lat="49.44446" lon="-1.20801">
        <ele>1.3</ele>
        <time>2020-06-15T15:18:04Z</time>
      </trkpt>
      <trkpt lat="49.44446" lon="-1.20803">
        <ele>1.3</ele>
        <time>2020-06-15T15:18:05Z</time>
      </trkpt>
      <trkpt lat="49.44446" lon="-1.20804">
        <ele>1.3</ele>
        <time>2020-06-15T15:18:06Z</time>
      </trkpt>
      <trkpt lat="49.44446" lon="-1.20805">
        <ele>1.3</ele>
        <time>2020-06-15T15:18:07Z</time>
      </trkpt>
      <trkpt lat="49.44445" lon="-1.20807">
        <ele>1.2</ele>
        <time>2020-06-15T15:18:08Z</time>
      </trkpt>
      <trkpt lat="49.44444" lon="-1.20809">
        <ele>1.2</ele>
        <time>2020-06-15T15:18:09Z</time>
      </trkpt>
      <trkpt lat="49.44444" lon="-1.2081">
        <ele>1.2</ele>
        <time>2020-06-15T15:18:10Z</time>
      </trkpt>
      <trkpt lat="49.44444" lon="-1.20811">
        <ele>1.2</ele>
        <time>2020-06-15T15:18:11Z</time>
      </trkpt>
      <trkpt lat="49.44442" lon="-1.20814">
        <ele>1.2</ele>
        <time>2020-06-15T15:18:12Z</time>
      </trkpt>
      <trkpt lat="49.44442" lon="-1.20814">
        <ele>1.2</ele>
        <time>2020-06-15T15:18:13Z</time>
      </trkpt>
      <trkpt lat="49.44441" lon="-1.20815">
        <ele>1.2</ele>
        <time>2020-06-15T15:18:14Z</time>
      </trkpt>
      <trkpt lat="49.44441" lon="-1.20816">
        <ele>1.1</ele>
        <time>2020-06-15T15:18:15Z</time>
      </trkpt>
      <trkpt lat="49.44439" lon="-1.20817">
        <ele>1.1</ele>
        <time>2020-06-15T15:18:16Z</time>
      </trkpt>
      <trkpt lat="49.44439" lon="-1.20818">
        <ele>1.1</ele>
        <time>2020-06-15T15:18:17Z</time>
      </trkpt>
      <trkpt lat="49.44438" lon="-1.20818">
        <ele>1.1</ele>
        <time>2020-06-15T15:18:18Z</time>
      </trkpt>
      <trkpt lat="49.44438" lon="-1.20819">
        <ele>1.1</ele>
        <time>2020-06-15T15:18:19Z</time>
      </trkpt>
      <trkpt lat="49.44437" lon="-1.20819">
        <ele>1.1</ele>
        <time>2020-06-15T15:18:20Z</time>
      </trkpt>
      <trkpt lat="49.44436" lon="-1.2082">
        <ele>1.1</ele>
        <time>2020-06-15T15:18:21Z</time>
      </trkpt>
      <trkpt lat="49.44435" lon="-1.20821">
        <ele>1.1</ele>
        <time>2020-06-15T15:18:22Z</time>
      </trkpt>
      <trkpt lat="49.44434" lon="-1.20823">
        <ele>1.1</ele>
        <time>2020-06-15T15:18:23Z</time>
      </trkpt>
      <trkpt lat="49.44433" lon="-1.20824">
        <ele>1</ele>
        <time>2020-06-15T15:18:24Z</time>
      </trkpt>
      <trkpt lat="49.44432" lon="-1.20825">
        <ele>1</ele>
        <time>2020-06-15T15:18:25Z</time>
      </trkpt>
      <trkpt lat="49.44431" lon="-1.20827">
        <ele>1</ele>
        <time>2020-06-15T15:18:26Z</time>
      </trkpt>
      <trkpt lat="49.4443" lon="-1.20828">
        <ele>1</ele>
        <time>2020-06-15T15:18:27Z</time>
      </trkpt>
      <trkpt lat="49.44428" lon="-1.2083">
        <ele>1</ele>
        <time>2020-06-15T15:18:28Z</time>
      </trkpt>
      <trkpt lat="49.44428" lon="-1.2083">
        <ele>1</ele>
        <time>2020-06-15T15:18:29Z</time>
      </trkpt>
      <trkpt lat="49.44427" lon="-1.20831">
        <ele>0.9</ele>
        <time>2020-06-15T15:18:30Z</time>
      </trkpt>
      <trkpt lat="49.44426" lon="-1.20832">
        <ele>0.9</ele>
        <time>2020-06-15T15:18:31Z</time>
      </trkpt>
      <trkpt lat="49.44425" lon="-1.20833">
        <ele>0.9</ele>
        <time>2020-06-15T15:18:32Z</time>
      </trkpt>
      <trkpt lat="49.44424" lon="-1.20834">
        <ele>0.9</ele>
        <time>2020-06-15T15:18:33Z</time>
      </trkpt>
      <trkpt lat="49.44423" lon="-1.20835">
        <ele>0.9</ele>
        <time>2020-06-15T15:18:34Z</time>
      </trkpt>
      <trkpt lat="49.44423" lon="-1.20836">
        <ele>1</ele>
        <time>2020-06-15T15:18:35Z</time>
      </trkpt>
      <trkpt lat="49.44422" lon="-1.20837">
        <ele>1</ele>
        <time>2020-06-15T15:18:36Z</time>
      </trkpt>
      <trkpt lat="49.44422" lon="-1.20838">
        <ele>1.1</ele>
        <time>2020-06-15T15:18:37Z</time>
      </trkpt>
      <trkpt lat="49.44422" lon="-1.20839">
        <ele>1.2</ele>
        <time>2020-06-15T15:18:38Z</time>
      </trkpt>
      <trkpt lat="49.44422" lon="-1.20839">
        <ele>1.2</ele>
        <time>2020-06-15T15:18:39Z</time>
      </trkpt>
      <trkpt lat="49.44421" lon="-1.20839">
        <ele>1.2</ele>
        <time>2020-06-15T15:18:40Z</time>
      </trkpt>
      <trkpt lat="49.44421" lon="-1.20839">
        <ele>1.2</ele>
        <time>2020-06-15T15:18:41Z</time>
      </trkpt>
      <trkpt lat="49.44421" lon="-1.2084">
        <ele>1.3</ele>
        <time>2020-06-15T15:18:42Z</time>
      </trkpt>
      <trkpt lat="49.44421" lon="-1.2084">
        <ele>1.3</ele>
        <time>2020-06-15T15:18:43Z</time>
      </trkpt>
      <trkpt lat="49.4442" lon="-1.2084">
        <ele>1.4</ele>
        <time>2020-06-15T15:18:44Z</time>
      </trkpt>
      <trkpt lat="49.4442" lon="-1.20841">
        <ele>1.4</ele>
        <time>2020-06-15T15:18:45Z</time>
      </trkpt>
      <trkpt lat="49.4442" lon="-1.20842">
        <ele>1.5</ele>
        <time>2020-06-15T15:18:46Z</time>
      </trkpt>
      <trkpt lat="49.4442" lon="-1.20843">
        <ele>1.6</ele>
        <time>2020-06-15T15:18:47Z</time>
      </trkpt>
      <trkpt lat="49.4442" lon="-1.20844">
        <ele>1.6</ele>
        <time>2020-06-15T15:18:48Z</time>
      </trkpt>
      <trkpt lat="49.44419" lon="-1.20846">
        <ele>2.2</ele>
        <time>2020-06-15T15:18:49Z</time>
      </trkpt>
      <trkpt lat="49.44418" lon="-1.20847">
        <ele>2.3</ele>
        <time>2020-06-15T15:18:50Z</time>
      </trkpt>
      <trkpt lat="49.44417" lon="-1.20848">
        <ele>2.3</ele>
        <time>2020-06-15T15:18:51Z</time>
      </trkpt>
      <trkpt lat="49.44417" lon="-1.20849">
        <ele>2.4</ele>
        <time>2020-06-15T15:18:52Z</time>
      </trkpt>
      <trkpt lat="49.44416" lon="-1.2085">
        <ele>2.4</ele>
        <time>2020-06-15T15:18:53Z</time>
      </trkpt>
      <trkpt lat="49.44415" lon="-1.20851">
        <ele>2.5</ele>
        <time>2020-06-15T15:18:54Z</time>
      </trkpt>
      <trkpt lat="49.44415" lon="-1.20852">
        <ele>2.5</ele>
        <time>2020-06-15T15:18:55Z</time>
      </trkpt>
      <trkpt lat="49.44414" lon="-1.20853">
        <ele>2.6</ele>
        <time>2020-06-15T15:18:56Z</time>
      </trkpt>
      <trkpt lat="49.44414" lon="-1.20855">
        <ele>2.6</ele>
        <time>2020-06-15T15:18:57Z</time>
      </trkpt>
      <trkpt lat="49.44414" lon="-1.20856">
        <ele>2.7</ele>
        <time>2020-06-15T15:18:58Z</time>
      </trkpt>
      <trkpt lat="49.44413" lon="-1.20858">
        <ele>2.8</ele>
        <time>2020-06-15T15:18:59Z</time>
      </trkpt>
      <trkpt lat="49.44412" lon="-1.20859">
        <ele>2.8</ele>
        <time>2020-06-15T15:19:00Z</time>
      </trkpt>
      <trkpt lat="49.44412" lon="-1.2086">
        <ele>2.8</ele>
        <time>2020-06-15T15:19:01Z</time>
      </trkpt>
      <trkpt lat="49.44411" lon="-1.20861">
        <ele>2.9</ele>
        <time>2020-06-15T15:19:02Z</time>
      </trkpt>
      <trkpt lat="49.44411" lon="-1.20861">
        <ele>2.9</ele>
        <time>2020-06-15T15:19:03Z</time>
      </trkpt>
      <trkpt lat="49.4441" lon="-1.20862">
        <ele>3</ele>
        <time>2020-06-15T15:19:04Z</time>
      </trkpt>
      <trkpt lat="49.4441" lon="-1.20863">
        <ele>3</ele>
        <time>2020-06-15T15:19:05Z</time>
      </trkpt>
      <trkpt lat="49.4441" lon="-1.20864">
        <ele>3</ele>
        <time>2020-06-15T15:19:06Z</time>
      </trkpt>
      <trkpt lat="49.4441" lon="-1.20864">
        <ele>3</ele>
        <time>2020-06-15T15:19:07Z</time>
      </trkpt>
      <trkpt lat="49.4441" lon="-1.20864">
        <ele>3</ele>
        <time>2020-06-15T15:19:08Z</time>
      </trkpt>
      <trkpt lat="49.4441" lon="-1.20864">
        <ele>3.1</ele>
        <time>2020-06-15T15:19:09Z</time>
      </trkpt>
      <trkpt lat="49.44409" lon="-1.20865">
        <ele>3.1</ele>
        <time>2020-06-15T15:19:10Z</time>
      </trkpt>
      <trkpt lat="49.44408" lon="-1.20867">
        <ele>3.2</ele>
        <time>2020-06-15T15:19:11Z</time>
      </trkpt>
      <trkpt lat="49.44408" lon="-1.20868">
        <ele>3.2</ele>
        <time>2020-06-15T15:19:12Z</time>
      </trkpt>
      <trkpt lat="49.44407" lon="-1.2087">
        <ele>3.4</ele>
        <time>2020-06-15T15:19:13Z</time>
      </trkpt>
      <trkpt lat="49.44405" lon="-1.20871">
        <ele>3.4</ele>
        <time>2020-06-15T15:19:14Z</time>
      </trkpt>
      <trkpt lat="49.44405" lon="-1.20872">
        <ele>3.4</ele>
        <time>2020-06-15T15:19:15Z</time>
      </trkpt>
      <trkpt lat="49.44404" lon="-1.20873">
        <ele>3.4</ele>
        <time>2020-06-15T15:19:16Z</time>
      </trkpt>
      <trkpt lat="49.44403" lon="-1.20875">
        <ele>3.4</ele>
        <time>2020-06-15T15:19:17Z</time>
      </trkpt>
      <trkpt lat="49.44403" lon="-1.20876">
        <ele>3.4</ele>
        <time>2020-06-15T15:19:18Z</time>
      </trkpt>
      <trkpt lat="49.44403" lon="-1.20877">
        <ele>3.4</ele>
        <time>2020-06-15T15:19:19Z</time>
      </trkpt>
      <trkpt lat="49.44402" lon="-1.20878">
        <ele>3.4</ele>
        <time>2020-06-15T15:19:20Z</time>
      </trkpt>
      <trkpt lat="49.44402" lon="-1.20879">
        <ele>3.4</ele>
        <time>2020-06-15T15:19:21Z</time>
      </trkpt>
      <trkpt lat="49.44402" lon="-1.2088">
        <ele>3.4</ele>
        <time>2020-06-15T15:19:22Z</time>
      </trkpt>
      <trkpt lat="49.44402" lon="-1.20881">
        <ele>3.4</ele>
        <time>2020-06-15T15:19:23Z</time>
      </trkpt>
      <trkpt lat="49.44401" lon="-1.20882">
        <ele>3.4</ele>
        <time>2020-06-15T15:19:24Z</time>
      </trkpt>
      <trkpt lat="49.44401" lon="-1.20883">
        <ele>3.4</ele>
        <time>2020-06-15T15:19:25Z</time>
      </trkpt>
      <trkpt lat="49.444" lon="-1.20884">
        <ele>3.4</ele>
        <time>2020-06-15T15:19:26Z</time>
      </trkpt>
      <trkpt lat="49.44399" lon="-1.20885">
        <ele>3.4</ele>
        <time>2020-06-15T15:19:27Z</time>
      </trkpt>
      <trkpt lat="49.44398" lon="-1.20886">
        <ele>3.4</ele>
        <time>2020-06-15T15:19:28Z</time>
      </trkpt>
      <trkpt lat="49.44397" lon="-1.20889">
        <ele>3.4</ele>
        <time>2020-06-15T15:19:29Z</time>
      </trkpt>
      <trkpt lat="49.44397" lon="-1.2089">
        <ele>3.4</ele>
        <time>2020-06-15T15:19:30Z</time>
      </trkpt>
      <trkpt lat="49.44397" lon="-1.20892">
        <ele>3.4</ele>
        <time>2020-06-15T15:19:31Z</time>
      </trkpt>
      <trkpt lat="49.44397" lon="-1.20894">
        <ele>3.4</ele>
        <time>2020-06-15T15:19:32Z</time>
      </trkpt>
      <trkpt lat="49.44398" lon="-1.20896">
        <ele>3.4</ele>
        <time>2020-06-15T15:19:33Z</time>
      </trkpt>
      <trkpt lat="49.44398" lon="-1.20899">
        <ele>3.4</ele>
        <time>2020-06-15T15:19:34Z</time>
      </trkpt>
      <trkpt lat="49.44399" lon="-1.209">
        <ele>3.4</ele>
        <time>2020-06-15T15:19:35Z</time>
      </trkpt>
      <trkpt lat="49.444" lon="-1.20902">
        <ele>3.4</ele>
        <time>2020-06-15T15:19:36Z</time>
      </trkpt>
      <trkpt lat="49.444" lon="-1.20904">
        <ele>3.4</ele>
        <time>2020-06-15T15:19:37Z</time>
      </trkpt>
      <trkpt lat="49.44401" lon="-1.20909">
        <ele>3.4</ele>
        <time>2020-06-15T15:19:38Z</time>
      </trkpt>
      <trkpt lat="49.44401" lon="-1.2091">
        <ele>3.4</ele>
        <time>2020-06-15T15:19:39Z</time>
      </trkpt>
      <trkpt lat="49.44402" lon="-1.20911">
        <ele>3.3</ele>
        <time>2020-06-15T15:19:40Z</time>
      </trkpt>
      <trkpt lat="49.44403" lon="-1.20912">
        <ele>3.3</ele>
        <time>2020-06-15T15:19:41Z</time>
      </trkpt>
      <trkpt lat="49.44403" lon="-1.20914">
        <ele>3.3</ele>
        <time>2020-06-15T15:19:42Z</time>
      </trkpt>
      <trkpt lat="49.44403" lon="-1.20915">
        <ele>3.3</ele>
        <time>2020-06-15T15:19:43Z</time>
      </trkpt>
      <trkpt lat="49.44403" lon="-1.20915">
        <ele>3.3</ele>
        <time>2020-06-15T15:19:44Z</time>
      </trkpt>
      <trkpt lat="49.44403" lon="-1.20914">
        <ele>3.3</ele>
        <time>2020-06-15T15:19:45Z</time>
      </trkpt>
      <trkpt lat="49.44403" lon="-1.20914">
        <ele>3.3</ele>
        <time>2020-06-15T15:19:46Z</time>
      </trkpt>
      <trkpt lat="49.44403" lon="-1.20914">
        <ele>3.3</ele>
        <time>2020-06-15T15:19:47Z</time>
      </trkpt>
      <trkpt lat="49.44403" lon="-1.20914">
        <ele>3.3</ele>
        <time>2020-06-15T15:19:48Z</time>
      </trkpt>
      <trkpt lat="49.44403" lon="-1.20914">
        <ele>3.3</ele>
        <time>2020-06-15T15:19:49Z</time>
      </trkpt>
      <trkpt lat="49.44403" lon="-1.20914">
        <ele>3.3</ele>
        <time>2020-06-15T15:19:50Z</time>
      </trkpt>
      <trkpt lat="49.44403" lon="-1.20914">
        <ele>3.3</ele>
        <time>2020-06-15T15:19:51Z</time>
      </trkpt>
      <trkpt lat="49.44403" lon="-1.20914">
        <ele>3.3</ele>
        <time>2020-06-15T15:19:52Z</time>
      </trkpt>
      <trkpt lat="49.44403" lon="-1.20914">
        <ele>3.3</ele>
        <time>2020-06-15T15:19:53Z</time>
      </trkpt>
      <trkpt lat="49.44403" lon="-1.20914">
        <ele>3.3</ele>
        <time>2020-06-15T15:19:54Z</time>
      </trkpt>
      <trkpt lat="49.444" lon="-1.20906">
        <ele>3.3</ele>
        <time>2020-06-15T15:21:44Z</time>
      </trkpt>
      <trkpt lat="49.44399" lon="-1.20905">
        <ele>3.3</ele>
        <time>2020-06-15T15:21:45Z</time>
      </trkpt>
      <trkpt lat="49.44398" lon="-1.20903">
        <ele>3.3</ele>
        <time>2020-06-15T15:21:46Z</time>
      </trkpt>
      <trkpt lat="49.44397" lon="-1.20901">
        <ele>3.3</ele>
        <time>2020-06-15T15:21:47Z</time>
      </trkpt>
      <trkpt lat="49.44396" lon="-1.20898">
        <ele>3.2</ele>
        <time>2020-06-15T15:21:48Z</time>
      </trkpt>
      <trkpt lat="49.44396" lon="-1.20897">
        <ele>3.2</ele>
        <time>2020-06-15T15:21:49Z</time>
      </trkpt>
      <trkpt lat="49.44395" lon="-1.20895">
        <ele>3.2</ele>
        <time>2020-06-15T15:21:50Z</time>
      </trkpt>
      <trkpt lat="49.44395" lon="-1.20894">
        <ele>3.2</ele>
        <time>2020-06-15T15:21:51Z</time>
      </trkpt>
      <trkpt lat="49.44394" lon="-1.20893">
        <ele>3.2</ele>
        <time>2020-06-15T15:21:52Z</time>
      </trkpt>
      <trkpt lat="49.44394" lon="-1.20891">
        <ele>3.2</ele>
        <time>2020-06-15T15:21:53Z</time>
      </trkpt>
      <trkpt lat="49.44394" lon="-1.2089">
        <ele>3.2</ele>
        <time>2020-06-15T15:21:54Z</time>
      </trkpt>
      <trkpt lat="49.44393" lon="-1.20888">
        <ele>3.2</ele>
        <time>2020-06-15T15:21:55Z</time>
      </trkpt>
      <trkpt lat="49.44393" lon="-1.20887">
        <ele>3.2</ele>
        <time>2020-06-15T15:21:56Z</time>
      </trkpt>
      <trkpt lat="49.44393" lon="-1.20887">
        <ele>3.2</ele>
        <time>2020-06-15T15:21:57Z</time>
      </trkpt>
      <trkpt lat="49.44393" lon="-1.20886">
        <ele>3.2</ele>
        <time>2020-06-15T15:21:58Z</time>
      </trkpt>
      <trkpt lat="49.44393" lon="-1.20885">
        <ele>3.2</ele>
        <time>2020-06-15T15:21:59Z</time>
      </trkpt>
      <trkpt lat="49.44392" lon="-1.20885">
        <ele>3.2</ele>
        <time>2020-06-15T15:22:00Z</time>
      </trkpt>
      <trkpt lat="49.44392" lon="-1.20885">
        <ele>3.2</ele>
        <time>2020-06-15T15:22:01Z</time>
      </trkpt>
      <trkpt lat="49.44392" lon="-1.20885">
        <ele>3.2</ele>
        <time>2020-06-15T15:22:02Z</time>
      </trkpt>
      <trkpt lat="49.44392" lon="-1.20885">
        <ele>3.2</ele>
        <time>2020-06-15T15:22:03Z</time>
      </trkpt>
      <trkpt lat="49.44392" lon="-1.20885">
        <ele>3.2</ele>
        <time>2020-06-15T15:22:04Z</time>
      </trkpt>
      <trkpt lat="49.44392" lon="-1.20885">
        <ele>3.2</ele>
        <time>2020-06-15T15:22:05Z</time>
      </trkpt>
      <trkpt lat="49.44392" lon="-1.20885">
        <ele>3.2</ele>
        <time>2020-06-15T15:22:06Z</time>
      </trkpt>
      <trkpt lat="49.44392" lon="-1.20884">
        <ele>3.2</ele>
        <time>2020-06-15T15:22:07Z</time>
      </trkpt>
      <trkpt lat="49.44392" lon="-1.20884">
        <ele>3.2</ele>
        <time>2020-06-15T15:22:08Z</time>
      </trkpt>
      <trkpt lat="49.44397" lon="-1.20891">
        <ele>3.1</ele>
        <time>2020-06-15T15:22:42Z</time>
      </trkpt>
      <trkpt lat="49.44399" lon="-1.2089">
        <ele>3.1</ele>
        <time>2020-06-15T15:22:43Z</time>
      </trkpt>
      <trkpt lat="49.44399" lon="-1.20889">
        <ele>3.1</ele>
        <time>2020-06-15T15:22:44Z</time>
      </trkpt>
      <trkpt lat="49.444" lon="-1.20888">
        <ele>3.1</ele>
        <time>2020-06-15T15:22:45Z</time>
      </trkpt>
      <trkpt lat="49.444" lon="-1.20888">
        <ele>3.1</ele>
        <time>2020-06-15T15:22:46Z</time>
      </trkpt>
      <trkpt lat="49.444" lon="-1.20888">
        <ele>3.1</ele>
        <time>2020-06-15T15:22:47Z</time>
      </trkpt>
      <trkpt lat="49.444" lon="-1.20888">
        <ele>3.1</ele>
        <time>2020-06-15T15:22:48Z</time>
      </trkpt>
      <trkpt lat="49.444" lon="-1.20888">
        <ele>3.1</ele>
        <time>2020-06-15T15:22:49Z</time>
      </trkpt>
      <trkpt lat="49.444" lon="-1.20888">
        <ele>3.1</ele>
        <time>2020-06-15T15:22:50Z</time>
      </trkpt>
      <trkpt lat="49.444" lon="-1.20887">
        <ele>3.1</ele>
        <time>2020-06-15T15:22:51Z</time>
      </trkpt>
      <trkpt lat="49.444" lon="-1.20887">
        <ele>3.1</ele>
        <time>2020-06-15T15:22:52Z</time>
      </trkpt>
      <trkpt lat="49.444" lon="-1.20887">
        <ele>3.1</ele>
        <time>2020-06-15T15:22:53Z</time>
      </trkpt>
      <trkpt lat="49.444" lon="-1.20886">
        <ele>3.1</ele>
        <time>2020-06-15T15:22:54Z</time>
      </trkpt>
      <trkpt lat="49.444" lon="-1.20887">
        <ele>3.1</ele>
        <time>2020-06-15T15:22:55Z</time>
      </trkpt>
      <trkpt lat="49.44399" lon="-1.20887">
        <ele>3.1</ele>
        <time>2020-06-15T15:22:56Z</time>
      </trkpt>
      <trkpt lat="49.44395" lon="-1.20887">
        <ele>3.1</ele>
        <time>2020-06-15T15:23:02Z</time>
      </trkpt>
      <trkpt lat="49.44393" lon="-1.20887">
        <ele>3.1</ele>
        <time>2020-06-15T15:23:03Z</time>
      </trkpt>
      <trkpt lat="49.44392" lon="-1.20888">
        <ele>3.1</ele>
        <time>2020-06-15T15:23:04Z</time>
      </trkpt>
      <trkpt lat="49.44391" lon="-1.20887">
        <ele>3.1</ele>
        <time>2020-06-15T15:23:05Z</time>
      </trkpt>
      <trkpt lat="49.4439" lon="-1.20887">
        <ele>3.1</ele>
        <time>2020-06-15T15:23:06Z</time>
      </trkpt>
      <trkpt lat="49.44389" lon="-1.20888">
        <ele>3.1</ele>
        <time>2020-06-15T15:23:07Z</time>
      </trkpt>
      <trkpt lat="49.44388" lon="-1.20888">
        <ele>3.1</ele>
        <time>2020-06-15T15:23:08Z</time>
      </trkpt>
      <trkpt lat="49.44388" lon="-1.20888">
        <ele>3.1</ele>
        <time>2020-06-15T15:23:09Z</time>
      </trkpt>
      <trkpt lat="49.44388" lon="-1.20888">
        <ele>3.1</ele>
        <time>2020-06-15T15:23:10Z</time>
      </trkpt>
      <trkpt lat="49.44387" lon="-1.20888">
        <ele>3.1</ele>
        <time>2020-06-15T15:23:11Z</time>
      </trkpt>
      <trkpt lat="49.44386" lon="-1.20887">
        <ele>3.1</ele>
        <time>2020-06-15T15:23:12Z</time>
      </trkpt>
      <trkpt lat="49.44386" lon="-1.20888">
        <ele>3.1</ele>
        <time>2020-06-15T15:23:13Z</time>
      </trkpt>
      <trkpt lat="49.44386" lon="-1.20888">
        <ele>3.1</ele>
        <time>2020-06-15T15:23:14Z</time>
      </trkpt>
      <trkpt lat="49.44386" lon="-1.20888">
        <ele>3.1</ele>
        <time>2020-06-15T15:23:15Z</time>
      </trkpt>
      <trkpt lat="49.44385" lon="-1.20889">
        <ele>3.1</ele>
        <time>2020-06-15T15:23:16Z</time>
      </trkpt>
      <trkpt lat="49.44385" lon="-1.20889">
        <ele>3.1</ele>
        <time>2020-06-15T15:23:17Z</time>
      </trkpt>
      <trkpt lat="49.44385" lon="-1.20889">
        <ele>3.1</ele>
        <time>2020-06-15T15:23:18Z</time>
      </trkpt>
      <trkpt lat="49.44385" lon="-1.2089">
        <ele>3.1</ele>
        <time>2020-06-15T15:23:19Z</time>
      </trkpt>
      <trkpt lat="49.44384" lon="-1.2089">
        <ele>3.1</ele>
        <time>2020-06-15T15:23:20Z</time>
      </trkpt>
      <trkpt lat="49.44384" lon="-1.20891">
        <ele>3.1</ele>
        <time>2020-06-15T15:23:21Z</time>
      </trkpt>
      <trkpt lat="49.44384" lon="-1.20891">
        <ele>3.1</ele>
        <time>2020-06-15T15:23:22Z</time>
      </trkpt>
      <trkpt lat="49.44384" lon="-1.20891">
        <ele>3.1</ele>
        <time>2020-06-15T15:23:23Z</time>
      </trkpt>
      <trkpt lat="49.44383" lon="-1.20892">
        <ele>3.1</ele>
        <time>2020-06-15T15:23:24Z</time>
      </trkpt>
      <trkpt lat="49.44383" lon="-1.20892">
        <ele>3.1</ele>
        <time>2020-06-15T15:23:25Z</time>
      </trkpt>
      <trkpt lat="49.44383" lon="-1.20893">
        <ele>3.1</ele>
        <time>2020-06-15T15:23:26Z</time>
      </trkpt>
      <trkpt lat="49.44383" lon="-1.20893">
        <ele>3.1</ele>
        <time>2020-06-15T15:23:27Z</time>
      </trkpt>
      <trkpt lat="49.44382" lon="-1.20893">
        <ele>3.1</ele>
        <time>2020-06-15T15:23:28Z</time>
      </trkpt>
      <trkpt lat="49.44382" lon="-1.20894">
        <ele>3.1</ele>
        <time>2020-06-15T15:23:29Z</time>
      </trkpt>
      <trkpt lat="49.44382" lon="-1.20894">
        <ele>3.1</ele>
        <time>2020-06-15T15:23:30Z</time>
      </trkpt>
      <trkpt lat="49.44382" lon="-1.20894">
        <ele>3.1</ele>
        <time>2020-06-15T15:26:05Z</time>
      </trkpt>
      <trkpt lat="49.44381" lon="-1.20895">
        <ele>3.1</ele>
        <time>2020-06-15T15:26:06Z</time>
      </trkpt>
      <trkpt lat="49.44381" lon="-1.20895">
        <ele>3.1</ele>
        <time>2020-06-15T15:26:07Z</time>
      </trkpt>
      <trkpt lat="49.4438" lon="-1.20898">
        <ele>3.1</ele>
        <time>2020-06-15T15:26:08Z</time>
      </trkpt>
      <trkpt lat="49.4438" lon="-1.209">
        <ele>3.1</ele>
        <time>2020-06-15T15:26:09Z</time>
      </trkpt>
      <trkpt lat="49.4438" lon="-1.20902">
        <ele>3.1</ele>
        <time>2020-06-15T15:26:10Z</time>
      </trkpt>
      <trkpt lat="49.4438" lon="-1.20905">
        <ele>3.1</ele>
        <time>2020-06-15T15:26:11Z</time>
      </trkpt>
      <trkpt lat="49.44381" lon="-1.20907">
        <ele>3.1</ele>
        <time>2020-06-15T15:26:12Z</time>
      </trkpt>
      <trkpt lat="49.44381" lon="-1.20908">
        <ele>3.1</ele>
        <time>2020-06-15T15:26:13Z</time>
      </trkpt>
      <trkpt lat="49.44382" lon="-1.20909">
        <ele>3.1</ele>
        <time>2020-06-15T15:26:14Z</time>
      </trkpt>
      <trkpt lat="49.44383" lon="-1.20909">
        <ele>3.1</ele>
        <time>2020-06-15T15:26:15Z</time>
      </trkpt>
      <trkpt lat="49.44384" lon="-1.20911">
        <ele>3.1</ele>
        <time>2020-06-15T15:26:16Z</time>
      </trkpt>
      <trkpt lat="49.44384" lon="-1.20913">
        <ele>3.1</ele>
        <time>2020-06-15T15:26:17Z</time>
      </trkpt>
      <trkpt lat="49.44384" lon="-1.20915">
        <ele>3</ele>
        <time>2020-06-15T15:26:18Z</time>
      </trkpt>
      <trkpt lat="49.44384" lon="-1.20917">
        <ele>3</ele>
        <time>2020-06-15T15:26:19Z</time>
      </trkpt>
      <trkpt lat="49.44383" lon="-1.20918">
        <ele>3</ele>
        <time>2020-06-15T15:26:20Z</time>
      </trkpt>
      <trkpt lat="49.44382" lon="-1.20916">
        <ele>3</ele>
        <time>2020-06-15T15:26:21Z</time>
      </trkpt>
      <trkpt lat="49.4438" lon="-1.20917">
        <ele>3</ele>
        <time>2020-06-15T15:26:22Z</time>
      </trkpt>
      <trkpt lat="49.44378" lon="-1.20919">
        <ele>3</ele>
        <time>2020-06-15T15:26:23Z</time>
      </trkpt>
      <trkpt lat="49.44378" lon="-1.20919">
        <ele>3</ele>
        <time>2020-06-15T15:26:24Z</time>
      </trkpt>
      <trkpt lat="49.44377" lon="-1.2092">
        <ele>3</ele>
        <time>2020-06-15T15:26:25Z</time>
      </trkpt>
      <trkpt lat="49.44376" lon="-1.20922">
        <ele>3</ele>
        <time>2020-06-15T15:26:26Z</time>
      </trkpt>
      <trkpt lat="49.44376" lon="-1.20924">
        <ele>3</ele>
        <time>2020-06-15T15:26:27Z</time>
      </trkpt>
      <trkpt lat="49.44376" lon="-1.20925">
        <ele>3</ele>
        <time>2020-06-15T15:26:28Z</time>
      </trkpt>
      <trkpt lat="49.44375" lon="-1.20927">
        <ele>3</ele>
        <time>2020-06-15T15:26:29Z</time>
      </trkpt>
      <trkpt lat="49.44375" lon="-1.20927">
        <ele>3</ele>
        <time>2020-06-15T15:26:30Z</time>
      </trkpt>
      <trkpt lat="49.44375" lon="-1.20929">
        <ele>3</ele>
        <time>2020-06-15T15:26:31Z</time>
      </trkpt>
      <trkpt lat="49.44374" lon="-1.20929">
        <ele>3</ele>
        <time>2020-06-15T15:26:32Z</time>
      </trkpt>
      <trkpt lat="49.44375" lon="-1.20929">
        <ele>3</ele>
        <time>2020-06-15T15:26:33Z</time>
      </trkpt>
      <trkpt lat="49.44375" lon="-1.2093">
        <ele>3</ele>
        <time>2020-06-15T15:26:34Z</time>
      </trkpt>
      <trkpt lat="49.44375" lon="-1.20931">
        <ele>3</ele>
        <time>2020-06-15T15:26:35Z</time>
      </trkpt>
      <trkpt lat="49.44376" lon="-1.20932">
        <ele>3</ele>
        <time>2020-06-15T15:26:36Z</time>
      </trkpt>
      <trkpt lat="49.44376" lon="-1.20933">
        <ele>3</ele>
        <time>2020-06-15T15:26:37Z</time>
      </trkpt>
      <trkpt lat="49.44376" lon="-1.20933">
        <ele>3</ele>
        <time>2020-06-15T15:26:38Z</time>
      </trkpt>
      <trkpt lat="49.44377" lon="-1.20934">
        <ele>3</ele>
        <time>2020-06-15T15:26:39Z</time>
      </trkpt>
      <trkpt lat="49.44377" lon="-1.20935">
        <ele>3</ele>
        <time>2020-06-15T15:26:40Z</time>
      </trkpt>
      <trkpt lat="49.44379" lon="-1.20935">
        <ele>3</ele>
        <time>2020-06-15T15:26:41Z</time>
      </trkpt>
      <trkpt lat="49.44379" lon="-1.20937">
        <ele>3.1</ele>
        <time>2020-06-15T15:26:42Z</time>
      </trkpt>
      <trkpt lat="49.4438" lon="-1.20938">
        <ele>3.1</ele>
        <time>2020-06-15T15:26:43Z</time>
      </trkpt>
      <trkpt lat="49.44381" lon="-1.20939">
        <ele>3.1</ele>
        <time>2020-06-15T15:26:44Z</time>
      </trkpt>
      <trkpt lat="49.4438" lon="-1.20941">
        <ele>3.1</ele>
        <time>2020-06-15T15:26:45Z</time>
      </trkpt>
      <trkpt lat="49.44379" lon="-1.20943">
        <ele>3.1</ele>
        <time>2020-06-15T15:26:46Z</time>
      </trkpt>
      <trkpt lat="49.44379" lon="-1.20944">
        <ele>3.1</ele>
        <time>2020-06-15T15:26:47Z</time>
      </trkpt>
      <trkpt lat="49.44378" lon="-1.20947">
        <ele>3.1</ele>
        <time>2020-06-15T15:26:48Z</time>
      </trkpt>
      <trkpt lat="49.44377" lon="-1.20948">
        <ele>3.1</ele>
        <time>2020-06-15T15:26:49Z</time>
      </trkpt>
      <trkpt lat="49.44376" lon="-1.20948">
        <ele>3.1</ele>
        <time>2020-06-15T15:26:50Z</time>
      </trkpt>
      <trkpt lat="49.44375" lon="-1.20951">
        <ele>3.1</ele>
        <time>2020-06-15T15:26:51Z</time>
      </trkpt>
      <trkpt lat="49.44374" lon="-1.20952">
        <ele>3.1</ele>
        <time>2020-06-15T15:26:52Z</time>
      </trkpt>
      <trkpt lat="49.44374" lon="-1.20954">
        <ele>3.1</ele>
        <time>2020-06-15T15:26:53Z</time>
      </trkpt>
      <trkpt lat="49.44372" lon="-1.20957">
        <ele>3.2</ele>
        <time>2020-06-15T15:26:54Z</time>
      </trkpt>
      <trkpt lat="49.44371" lon="-1.20958">
        <ele>3.2</ele>
        <time>2020-06-15T15:26:55Z</time>
      </trkpt>
      <trkpt lat="49.44367" lon="-1.2096">
        <ele>3.1</ele>
        <time>2020-06-15T15:26:56Z</time>
      </trkpt>
      <trkpt lat="49.44366" lon="-1.20961">
        <ele>3.1</ele>
        <time>2020-06-15T15:26:57Z</time>
      </trkpt>
      <trkpt lat="49.44363" lon="-1.20962">
        <ele>3</ele>
        <time>2020-06-15T15:26:58Z</time>
      </trkpt>
      <trkpt lat="49.44361" lon="-1.20963">
        <ele>3</ele>
        <time>2020-06-15T15:26:59Z</time>
      </trkpt>
      <trkpt lat="49.44358" lon="-1.20964">
        <ele>2.9</ele>
        <time>2020-06-15T15:27:00Z</time>
      </trkpt>
      <trkpt lat="49.44356" lon="-1.20964">
        <ele>2.9</ele>
        <time>2020-06-15T15:27:01Z</time>
      </trkpt>
      <trkpt lat="49.44353" lon="-1.20964">
        <ele>2.9</ele>
        <time>2020-06-15T15:27:02Z</time>
      </trkpt>
      <trkpt lat="49.44352" lon="-1.20964">
        <ele>2.8</ele>
        <time>2020-06-15T15:27:03Z</time>
      </trkpt>
      <trkpt lat="49.44348" lon="-1.20964">
        <ele>2.8</ele>
        <time>2020-06-15T15:27:04Z</time>
      </trkpt>
      <trkpt lat="49.44347" lon="-1.20964">
        <ele>2.8</ele>
        <time>2020-06-15T15:27:05Z</time>
      </trkpt>
      <trkpt lat="49.44346" lon="-1.20964">
        <ele>2.8</ele>
        <time>2020-06-15T15:27:06Z</time>
      </trkpt>
      <trkpt lat="49.44344" lon="-1.20964">
        <ele>2.7</ele>
        <time>2020-06-15T15:27:07Z</time>
      </trkpt>
      <trkpt lat="49.44343" lon="-1.20964">
        <ele>2.7</ele>
        <time>2020-06-15T15:27:08Z</time>
      </trkpt>
      <trkpt lat="49.44342" lon="-1.20962">
        <ele>2.7</ele>
        <time>2020-06-15T15:27:09Z</time>
      </trkpt>
      <trkpt lat="49.44342" lon="-1.20962">
        <ele>2.7</ele>
        <time>2020-06-15T15:27:10Z</time>
      </trkpt>
      <trkpt lat="49.44342" lon="-1.20963">
        <ele>2.7</ele>
        <time>2020-06-15T15:27:11Z</time>
      </trkpt>
      <trkpt lat="49.44342" lon="-1.20964">
        <ele>2.7</ele>
        <time>2020-06-15T15:27:12Z</time>
      </trkpt>
      <trkpt lat="49.44342" lon="-1.20965">
        <ele>2.7</ele>
        <time>2020-06-15T15:27:13Z</time>
      </trkpt>
      <trkpt lat="49.44342" lon="-1.20966">
        <ele>2.7</ele>
        <time>2020-06-15T15:27:14Z</time>
      </trkpt>
      <trkpt lat="49.44342" lon="-1.20967">
        <ele>2.7</ele>
        <time>2020-06-15T15:27:15Z</time>
      </trkpt>
      <trkpt lat="49.44342" lon="-1.20968">
        <ele>2.6</ele>
        <time>2020-06-15T15:27:16Z</time>
      </trkpt>
      <trkpt lat="49.44343" lon="-1.2097">
        <ele>2.6</ele>
        <time>2020-06-15T15:27:17Z</time>
      </trkpt>
      <trkpt lat="49.44343" lon="-1.20971">
        <ele>2.6</ele>
        <time>2020-06-15T15:27:18Z</time>
      </trkpt>
      <trkpt lat="49.44343" lon="-1.20972">
        <ele>2.6</ele>
        <time>2020-06-15T15:27:19Z</time>
      </trkpt>
      <trkpt lat="49.44343" lon="-1.20973">
        <ele>2.6</ele>
        <time>2020-06-15T15:27:20Z</time>
      </trkpt>
      <trkpt lat="49.44343" lon="-1.20974">
        <ele>2.6</ele>
        <time>2020-06-15T15:28:21Z</time>
      </trkpt>
      <trkpt lat="49.44343" lon="-1.20975">
        <ele>2.6</ele>
        <time>2020-06-15T15:28:22Z</time>
      </trkpt>
      <trkpt lat="49.44342" lon="-1.20977">
        <ele>2.6</ele>
        <time>2020-06-15T15:28:23Z</time>
      </trkpt>
      <trkpt lat="49.44341" lon="-1.20977">
        <ele>2.6</ele>
        <time>2020-06-15T15:28:24Z</time>
      </trkpt>
      <trkpt lat="49.44338" lon="-1.20978">
        <ele>2.5</ele>
        <time>2020-06-15T15:28:25Z</time>
      </trkpt>
      <trkpt lat="49.44337" lon="-1.20978">
        <ele>2.6</ele>
        <time>2020-06-15T15:28:26Z</time>
      </trkpt>
      <trkpt lat="49.44334" lon="-1.20977">
        <ele>2.6</ele>
        <time>2020-06-15T15:28:27Z</time>
      </trkpt>
      <trkpt lat="49.44331" lon="-1.20974">
        <ele>2.6</ele>
        <time>2020-06-15T15:28:28Z</time>
      </trkpt>
      <trkpt lat="49.44329" lon="-1.20973">
        <ele>2.6</ele>
        <time>2020-06-15T15:28:29Z</time>
      </trkpt>
      <trkpt lat="49.44327" lon="-1.2097">
        <ele>2.7</ele>
        <time>2020-06-15T15:28:30Z</time>
      </trkpt>
      <trkpt lat="49.44324" lon="-1.20967">
        <ele>2.7</ele>
        <time>2020-06-15T15:28:31Z</time>
      </trkpt>
      <trkpt lat="49.44323" lon="-1.20966">
        <ele>2.7</ele>
        <time>2020-06-15T15:28:32Z</time>
      </trkpt>
      <trkpt lat="49.4432" lon="-1.20963">
        <ele>2.7</ele>
        <time>2020-06-15T15:28:33Z</time>
      </trkpt>
      <trkpt lat="49.44317" lon="-1.2096">
        <ele>2.7</ele>
        <time>2020-06-15T15:28:34Z</time>
      </trkpt>
      <trkpt lat="49.44315" lon="-1.20957">
        <ele>2.7</ele>
        <time>2020-06-15T15:28:35Z</time>
      </trkpt>
      <trkpt lat="49.44312" lon="-1.20954">
        <ele>2.7</ele>
        <time>2020-06-15T15:28:36Z</time>
      </trkpt>
      <trkpt lat="49.44309" lon="-1.20951">
        <ele>2.7</ele>
        <time>2020-06-15T15:28:37Z</time>
      </trkpt>
      <trkpt lat="49.44306" lon="-1.20948">
        <ele>2.7</ele>
        <time>2020-06-15T15:28:38Z</time>
      </trkpt>
      <trkpt lat="49.44303" lon="-1.20946">
        <ele>2.7</ele>
        <time>2020-06-15T15:28:39Z</time>
      </trkpt>
      <trkpt lat="49.44299" lon="-1.20944">
        <ele>2.7</ele>
        <time>2020-06-15T15:28:40Z</time>
      </trkpt>
      <trkpt lat="49.44295" lon="-1.20941">
        <ele>2.7</ele>
        <time>2020-06-15T15:28:41Z</time>
      </trkpt>
      <trkpt lat="49.44291" lon="-1.20938">
        <ele>2.7</ele>
        <time>2020-06-15T15:28:42Z</time>
      </trkpt>
      <trkpt lat="49.44286" lon="-1.20935">
        <ele>2.6</ele>
        <time>2020-06-15T15:28:43Z</time>
      </trkpt>
      <trkpt lat="49.44282" lon="-1.20932">
        <ele>2.6</ele>
        <time>2020-06-15T15:28:44Z</time>
      </trkpt>
      <trkpt lat="49.44277" lon="-1.20928">
        <ele>2.6</ele>
        <time>2020-06-15T15:28:45Z</time>
      </trkpt>
      <trkpt lat="49.44273" lon="-1.20926">
        <ele>2.6</ele>
        <time>2020-06-15T15:28:46Z</time>
      </trkpt>
      <trkpt lat="49.44269" lon="-1.20922">
        <ele>2.6</ele>
        <time>2020-06-15T15:28:47Z</time>
      </trkpt>
      <trkpt lat="49.44264" lon="-1.20919">
        <ele>2.6</ele>
        <time>2020-06-15T15:28:48Z</time>
      </trkpt>
      <trkpt lat="49.44259" lon="-1.20916">
        <ele>2.6</ele>
        <time>2020-06-15T15:28:49Z</time>
      </trkpt>
      <trkpt lat="49.44254" lon="-1.20912">
        <ele>2.6</ele>
        <time>2020-06-15T15:28:50Z</time>
      </trkpt>
      <trkpt lat="49.44249" lon="-1.20909">
        <ele>2.6</ele>
        <time>2020-06-15T15:28:51Z</time>
      </trkpt>
      <trkpt lat="49.44244" lon="-1.20906">
        <ele>2.7</ele>
        <time>2020-06-15T15:28:52Z</time>
      </trkpt>
      <trkpt lat="49.4424" lon="-1.20902">
        <ele>2.7</ele>
        <time>2020-06-15T15:28:53Z</time>
      </trkpt>
      <trkpt lat="49.44235" lon="-1.20899">
        <ele>2.7</ele>
        <time>2020-06-15T15:28:54Z</time>
      </trkpt>
      <trkpt lat="49.44229" lon="-1.20895">
        <ele>2.7</ele>
        <time>2020-06-15T15:28:55Z</time>
      </trkpt>
      <trkpt lat="49.44225" lon="-1.20891">
        <ele>2.7</ele>
        <time>2020-06-15T15:28:56Z</time>
      </trkpt>
      <trkpt lat="49.4422" lon="-1.20888">
        <ele>2.7</ele>
        <time>2020-06-15T15:28:57Z</time>
      </trkpt>
      <trkpt lat="49.44215" lon="-1.20883">
        <ele>2.7</ele>
        <time>2020-06-15T15:28:58Z</time>
      </trkpt>
      <trkpt lat="49.4421" lon="-1.2088">
        <ele>2.7</ele>
        <time>2020-06-15T15:28:59Z</time>
      </trkpt>
      <trkpt lat="49.44205" lon="-1.20876">
        <ele>2.7</ele>
        <time>2020-06-15T15:29:00Z</time>
      </trkpt>
      <trkpt lat="49.442" lon="-1.20872">
        <ele>2.7</ele>
        <time>2020-06-15T15:29:01Z</time>
      </trkpt>
      <trkpt lat="49.44194" lon="-1.20868">
        <ele>2.6</ele>
        <time>2020-06-15T15:29:02Z</time>
      </trkpt>
      <trkpt lat="49.44189" lon="-1.20864">
        <ele>2.6</ele>
        <time>2020-06-15T15:29:03Z</time>
      </trkpt>
      <trkpt lat="49.44184" lon="-1.2086">
        <ele>2.6</ele>
        <time>2020-06-15T15:29:04Z</time>
      </trkpt>
      <trkpt lat="49.44179" lon="-1.20855">
        <ele>2.5</ele>
        <time>2020-06-15T15:29:05Z</time>
      </trkpt>
      <trkpt lat="49.44174" lon="-1.20851">
        <ele>2.5</ele>
        <time>2020-06-15T15:29:06Z</time>
      </trkpt>
      <trkpt lat="49.44169" lon="-1.20847">
        <ele>2.4</ele>
        <time>2020-06-15T15:29:07Z</time>
      </trkpt>
      <trkpt lat="49.44164" lon="-1.20841">
        <ele>2.4</ele>
        <time>2020-06-15T15:29:08Z</time>
      </trkpt>
      <trkpt lat="49.44159" lon="-1.20837">
        <ele>2.4</ele>
        <time>2020-06-15T15:29:09Z</time>
      </trkpt>
      <trkpt lat="49.44154" lon="-1.20833">
        <ele>2.4</ele>
        <time>2020-06-15T15:29:10Z</time>
      </trkpt>
      <trkpt lat="49.44149" lon="-1.20829">
        <ele>2.4</ele>
        <time>2020-06-15T15:29:11Z</time>
      </trkpt>
      <trkpt lat="49.44144" lon="-1.20824">
        <ele>2.4</ele>
        <time>2020-06-15T15:29:12Z</time>
      </trkpt>
      <trkpt lat="49.4414" lon="-1.20819">
        <ele>2.4</ele>
        <time>2020-06-15T15:29:13Z</time>
      </trkpt>
      <trkpt lat="49.44135" lon="-1.20814">
        <ele>2.4</ele>
        <time>2020-06-15T15:29:14Z</time>
      </trkpt>
      <trkpt lat="49.4413" lon="-1.2081">
        <ele>2.5</ele>
        <time>2020-06-15T15:29:15Z</time>
      </trkpt>
      <trkpt lat="49.44125" lon="-1.20806">
        <ele>2.5</ele>
        <time>2020-06-15T15:29:16Z</time>
      </trkpt>
      <trkpt lat="49.4412" lon="-1.20801">
        <ele>2.6</ele>
        <time>2020-06-15T15:29:17Z</time>
      </trkpt>
      <trkpt lat="49.44115" lon="-1.20798">
        <ele>2.6</ele>
        <time>2020-06-15T15:29:18Z</time>
      </trkpt>
      <trkpt lat="49.4411" lon="-1.20794">
        <ele>2.7</ele>
        <time>2020-06-15T15:29:19Z</time>
      </trkpt>
      <trkpt lat="49.44105" lon="-1.20789">
        <ele>2.7</ele>
        <time>2020-06-15T15:29:20Z</time>
      </trkpt>
      <trkpt lat="49.44099" lon="-1.20786">
        <ele>2.7</ele>
        <time>2020-06-15T15:29:21Z</time>
      </trkpt>
      <trkpt lat="49.44094" lon="-1.20782">
        <ele>2.7</ele>
        <time>2020-06-15T15:29:22Z</time>
      </trkpt>
      <trkpt lat="49.44088" lon="-1.20778">
        <ele>2.7</ele>
        <time>2020-06-15T15:29:23Z</time>
      </trkpt>
      <trkpt lat="49.44083" lon="-1.20775">
        <ele>2.7</ele>
        <time>2020-06-15T15:29:24Z</time>
      </trkpt>
      <trkpt lat="49.44078" lon="-1.20774">
        <ele>2.7</ele>
        <time>2020-06-15T15:29:25Z</time>
      </trkpt>
      <trkpt lat="49.44072" lon="-1.20772">
        <ele>2.6</ele>
        <time>2020-06-15T15:29:26Z</time>
      </trkpt>
      <trkpt lat="49.44067" lon="-1.2077">
        <ele>2.6</ele>
        <time>2020-06-15T15:29:27Z</time>
      </trkpt>
      <trkpt lat="49.44062" lon="-1.20768">
        <ele>2.5</ele>
        <time>2020-06-15T15:29:28Z</time>
      </trkpt>
      <trkpt lat="49.44056" lon="-1.20766">
        <ele>2.5</ele>
        <time>2020-06-15T15:29:29Z</time>
      </trkpt>
      <trkpt lat="49.4405" lon="-1.20764">
        <ele>2.5</ele>
        <time>2020-06-15T15:29:30Z</time>
      </trkpt>
      <trkpt lat="49.44045" lon="-1.20761">
        <ele>2.5</ele>
        <time>2020-06-15T15:29:31Z</time>
      </trkpt>
      <trkpt lat="49.44039" lon="-1.20758">
        <ele>2.5</ele>
        <time>2020-06-15T15:29:32Z</time>
      </trkpt>
      <trkpt lat="49.44032" lon="-1.20755">
        <ele>2.5</ele>
        <time>2020-06-15T15:29:33Z</time>
      </trkpt>
      <trkpt lat="49.44027" lon="-1.20753">
        <ele>2.5</ele>
        <time>2020-06-15T15:29:34Z</time>
      </trkpt>
      <trkpt lat="49.44021" lon="-1.20749">
        <ele>2.5</ele>
        <time>2020-06-15T15:29:35Z</time>
      </trkpt>
      <trkpt lat="49.44015" lon="-1.20747">
        <ele>2.5</ele>
        <time>2020-06-15T15:29:36Z</time>
      </trkpt>
      <trkpt lat="49.44009" lon="-1.20743">
        <ele>2.4</ele>
        <time>2020-06-15T15:29:37Z</time>
      </trkpt>
      <trkpt lat="49.44003" lon="-1.20741">
        <ele>2.4</ele>
        <time>2020-06-15T15:29:38Z</time>
      </trkpt>
      <trkpt lat="49.43997" lon="-1.20739">
        <ele>2.3</ele>
        <time>2020-06-15T15:29:39Z</time>
      </trkpt>
      <trkpt lat="49.43991" lon="-1.20735">
        <ele>2.3</ele>
        <time>2020-06-15T15:29:40Z</time>
      </trkpt>
      <trkpt lat="49.43984" lon="-1.20732">
        <ele>2.2</ele>
        <time>2020-06-15T15:29:41Z</time>
      </trkpt>
      <trkpt lat="49.43978" lon="-1.2073">
        <ele>2.2</ele>
        <time>2020-06-15T15:29:42Z</time>
      </trkpt>
      <trkpt lat="49.43972" lon="-1.20727">
        <ele>2.2</ele>
        <time>2020-06-15T15:29:43Z</time>
      </trkpt>
      <trkpt lat="49.43967" lon="-1.20724">
        <ele>2.2</ele>
        <time>2020-06-15T15:29:44Z</time>
      </trkpt>
      <trkpt lat="49.43961" lon="-1.20721">
        <ele>2.1</ele>
        <time>2020-06-15T15:29:45Z</time>
      </trkpt>
      <trkpt lat="49.43955" lon="-1.20719">
        <ele>2.1</ele>
        <time>2020-06-15T15:29:46Z</time>
      </trkpt>
      <trkpt lat="49.43949" lon="-1.20717">
        <ele>2</ele>
        <time>2020-06-15T15:29:47Z</time>
      </trkpt>
      <trkpt lat="49.43943" lon="-1.20714">
        <ele>2</ele>
        <time>2020-06-15T15:29:48Z</time>
      </trkpt>
      <trkpt lat="49.43938" lon="-1.20712">
        <ele>1.8</ele>
        <time>2020-06-15T15:29:49Z</time>
      </trkpt>
      <trkpt lat="49.43931" lon="-1.20709">
        <ele>1.7</ele>
        <time>2020-06-15T15:29:50Z</time>
      </trkpt>
      <trkpt lat="49.43925" lon="-1.20706">
        <ele>1.6</ele>
        <time>2020-06-15T15:29:51Z</time>
      </trkpt>
      <trkpt lat="49.4392" lon="-1.20704">
        <ele>1.5</ele>
        <time>2020-06-15T15:29:52Z</time>
      </trkpt>
      <trkpt lat="49.43915" lon="-1.20702">
        <ele>1.4</ele>
        <time>2020-06-15T15:29:53Z</time>
      </trkpt>
      <trkpt lat="49.43909" lon="-1.20699">
        <ele>1.4</ele>
        <time>2020-06-15T15:29:54Z</time>
      </trkpt>
      <trkpt lat="49.43902" lon="-1.20695">
        <ele>1.4</ele>
        <time>2020-06-15T15:29:55Z</time>
      </trkpt>
      <trkpt lat="49.43896" lon="-1.20693">
        <ele>1.4</ele>
        <time>2020-06-15T15:29:56Z</time>
      </trkpt>
      <trkpt lat="49.4389" lon="-1.20691">
        <ele>1.4</ele>
        <time>2020-06-15T15:29:57Z</time>
      </trkpt>
      <trkpt lat="49.43883" lon="-1.20688">
        <ele>1.4</ele>
        <time>2020-06-15T15:29:58Z</time>
      </trkpt>
      <trkpt lat="49.43877" lon="-1.20685">
        <ele>1.4</ele>
        <time>2020-06-15T15:29:59Z</time>
      </trkpt>
      <trkpt lat="49.43871" lon="-1.20682">
        <ele>1.4</ele>
        <time>2020-06-15T15:30:00Z</time>
      </trkpt>
      <trkpt lat="49.43864" lon="-1.20678">
        <ele>1.5</ele>
        <time>2020-06-15T15:30:01Z</time>
      </trkpt>
      <trkpt lat="49.43858" lon="-1.20675">
        <ele>1.5</ele>
        <time>2020-06-15T15:30:02Z</time>
      </trkpt>
      <trkpt lat="49.43853" lon="-1.20673">
        <ele>1.5</ele>
        <time>2020-06-15T15:30:03Z</time>
      </trkpt>
      <trkpt lat="49.43847" lon="-1.2067">
        <ele>1.5</ele>
        <time>2020-06-15T15:30:04Z</time>
      </trkpt>
      <trkpt lat="49.43842" lon="-1.20667">
        <ele>1.5</ele>
        <time>2020-06-15T15:30:05Z</time>
      </trkpt>
      <trkpt lat="49.43836" lon="-1.20664">
        <ele>1.6</ele>
        <time>2020-06-15T15:30:06Z</time>
      </trkpt>
      <trkpt lat="49.4383" lon="-1.20661">
        <ele>1.6</ele>
        <time>2020-06-15T15:30:07Z</time>
      </trkpt>
      <trkpt lat="49.43825" lon="-1.20657">
        <ele>1.6</ele>
        <time>2020-06-15T15:30:08Z</time>
      </trkpt>
      <trkpt lat="49.43819" lon="-1.20654">
        <ele>1.6</ele>
        <time>2020-06-15T15:30:09Z</time>
      </trkpt>
      <trkpt lat="49.43813" lon="-1.2065">
        <ele>1.6</ele>
        <time>2020-06-15T15:30:10Z</time>
      </trkpt>
      <trkpt lat="49.43808" lon="-1.20647">
        <ele>1.6</ele>
        <time>2020-06-15T15:30:11Z</time>
      </trkpt>
      <trkpt lat="49.43802" lon="-1.20642">
        <ele>1.6</ele>
        <time>2020-06-15T15:30:12Z</time>
      </trkpt>
      <trkpt lat="49.43797" lon="-1.20637">
        <ele>1.6</ele>
        <time>2020-06-15T15:30:13Z</time>
      </trkpt>
      <trkpt lat="49.43793" lon="-1.20632">
        <ele>1.6</ele>
        <time>2020-06-15T15:30:14Z</time>
      </trkpt>
      <trkpt lat="49.43788" lon="-1.20628">
        <ele>1.6</ele>
        <time>2020-06-15T15:30:15Z</time>
      </trkpt>
      <trkpt lat="49.43783" lon="-1.20622">
        <ele>1.6</ele>
        <time>2020-06-15T15:30:16Z</time>
      </trkpt>
      <trkpt lat="49.43779" lon="-1.20616">
        <ele>1.6</ele>
        <time>2020-06-15T15:30:17Z</time>
      </trkpt>
      <trkpt lat="49.43774" lon="-1.20609">
        <ele>1.7</ele>
        <time>2020-06-15T15:30:18Z</time>
      </trkpt>
      <trkpt lat="49.4377" lon="-1.20602">
        <ele>1.7</ele>
        <time>2020-06-15T15:30:19Z</time>
      </trkpt>
      <trkpt lat="49.43765" lon="-1.20595">
        <ele>1.7</ele>
        <time>2020-06-15T15:30:20Z</time>
      </trkpt>
      <trkpt lat="49.43761" lon="-1.20588">
        <ele>1.7</ele>
        <time>2020-06-15T15:30:21Z</time>
      </trkpt>
      <trkpt lat="49.43757" lon="-1.20581">
        <ele>1.7</ele>
        <time>2020-06-15T15:30:22Z</time>
      </trkpt>
      <trkpt lat="49.43753" lon="-1.20574">
        <ele>1.7</ele>
        <time>2020-06-15T15:30:23Z</time>
      </trkpt>
      <trkpt lat="49.43749" lon="-1.20566">
        <ele>1.7</ele>
        <time>2020-06-15T15:30:24Z</time>
      </trkpt>
      <trkpt lat="49.43745" lon="-1.20558">
        <ele>1.6</ele>
        <time>2020-06-15T15:30:25Z</time>
      </trkpt>
      <trkpt lat="49.43741" lon="-1.20551">
        <ele>1.6</ele>
        <time>2020-06-15T15:30:26Z</time>
      </trkpt>
      <trkpt lat="49.43737" lon="-1.20544">
        <ele>1.6</ele>
        <time>2020-06-15T15:30:27Z</time>
      </trkpt>
      <trkpt lat="49.43734" lon="-1.20536">
        <ele>1.6</ele>
        <time>2020-06-15T15:30:28Z</time>
      </trkpt>
      <trkpt lat="49.43731" lon="-1.20528">
        <ele>1.6</ele>
        <time>2020-06-15T15:30:29Z</time>
      </trkpt>
      <trkpt lat="49.43727" lon="-1.2052">
        <ele>1.5</ele>
        <time>2020-06-15T15:30:30Z</time>
      </trkpt>
      <trkpt lat="49.43724" lon="-1.20513">
        <ele>1.5</ele>
        <time>2020-06-15T15:30:31Z</time>
      </trkpt>
      <trkpt lat="49.4372" lon="-1.20505">
        <ele>1.6</ele>
        <time>2020-06-15T15:30:32Z</time>
      </trkpt>
      <trkpt lat="49.43716" lon="-1.20497">
        <ele>1.6</ele>
        <time>2020-06-15T15:30:33Z</time>
      </trkpt>
      <trkpt lat="49.43711" lon="-1.20489">
        <ele>1.6</ele>
        <time>2020-06-15T15:30:34Z</time>
      </trkpt>
      <trkpt lat="49.43708" lon="-1.20483">
        <ele>1.6</ele>
        <time>2020-06-15T15:30:35Z</time>
      </trkpt>
      <trkpt lat="49.43703" lon="-1.20475">
        <ele>1.6</ele>
        <time>2020-06-15T15:30:36Z</time>
      </trkpt>
      <trkpt lat="49.437" lon="-1.20469">
        <ele>1.6</ele>
        <time>2020-06-15T15:30:37Z</time>
      </trkpt>
      <trkpt lat="49.43696" lon="-1.20461">
        <ele>1.6</ele>
        <time>2020-06-15T15:30:38Z</time>
      </trkpt>
      <trkpt lat="49.43692" lon="-1.20452">
        <ele>1.7</ele>
        <time>2020-06-15T15:30:39Z</time>
      </trkpt>
      <trkpt lat="49.43688" lon="-1.20445">
        <ele>1.8</ele>
        <time>2020-06-15T15:30:40Z</time>
      </trkpt>
      <trkpt lat="49.43685" lon="-1.20437">
        <ele>1.8</ele>
        <time>2020-06-15T15:30:41Z</time>
      </trkpt>
      <trkpt lat="49.43682" lon="-1.20428">
        <ele>1.9</ele>
        <time>2020-06-15T15:30:42Z</time>
      </trkpt>
      <trkpt lat="49.4368" lon="-1.2042">
        <ele>1.9</ele>
        <time>2020-06-15T15:30:43Z</time>
      </trkpt>
      <trkpt lat="49.43678" lon="-1.20411">
        <ele>2</ele>
        <time>2020-06-15T15:30:44Z</time>
      </trkpt>
      <trkpt lat="49.43676" lon="-1.20402">
        <ele>2</ele>
        <time>2020-06-15T15:30:45Z</time>
      </trkpt>
      <trkpt lat="49.43674" lon="-1.20393">
        <ele>2.1</ele>
        <time>2020-06-15T15:30:46Z</time>
      </trkpt>
      <trkpt lat="49.43672" lon="-1.20384">
        <ele>2.1</ele>
        <time>2020-06-15T15:30:47Z</time>
      </trkpt>
      <trkpt lat="49.4367" lon="-1.20377">
        <ele>2.2</ele>
        <time>2020-06-15T15:30:48Z</time>
      </trkpt>
      <trkpt lat="49.43667" lon="-1.20369">
        <ele>2.2</ele>
        <time>2020-06-15T15:30:49Z</time>
      </trkpt>
      <trkpt lat="49.43666" lon="-1.2036">
        <ele>2.2</ele>
        <time>2020-06-15T15:30:50Z</time>
      </trkpt>
      <trkpt lat="49.43664" lon="-1.20351">
        <ele>2.2</ele>
        <time>2020-06-15T15:30:51Z</time>
      </trkpt>
      <trkpt lat="49.43662" lon="-1.20343">
        <ele>2.2</ele>
        <time>2020-06-15T15:30:52Z</time>
      </trkpt>
      <trkpt lat="49.4366" lon="-1.20334">
        <ele>2.2</ele>
        <time>2020-06-15T15:30:53Z</time>
      </trkpt>
      <trkpt lat="49.43658" lon="-1.20321">
        <ele>2.2</ele>
        <time>2020-06-15T15:30:54Z</time>
      </trkpt>
      <trkpt lat="49.43655" lon="-1.20311">
        <ele>2.2</ele>
        <time>2020-06-15T15:30:55Z</time>
      </trkpt>
      <trkpt lat="49.43654" lon="-1.20302">
        <ele>2.2</ele>
        <time>2020-06-15T15:30:56Z</time>
      </trkpt>
      <trkpt lat="49.43652" lon="-1.20293">
        <ele>2.3</ele>
        <time>2020-06-15T15:30:57Z</time>
      </trkpt>
      <trkpt lat="49.4365" lon="-1.20286">
        <ele>2.3</ele>
        <time>2020-06-15T15:30:58Z</time>
      </trkpt>
      <trkpt lat="49.43648" lon="-1.20278">
        <ele>2.3</ele>
        <time>2020-06-15T15:30:59Z</time>
      </trkpt>
      <trkpt lat="49.43645" lon="-1.20271">
        <ele>2.3</ele>
        <time>2020-06-15T15:31:00Z</time>
      </trkpt>
      <trkpt lat="49.43642" lon="-1.20263">
        <ele>2.4</ele>
        <time>2020-06-15T15:31:01Z</time>
      </trkpt>
      <trkpt lat="49.43638" lon="-1.20255">
        <ele>2.4</ele>
        <time>2020-06-15T15:31:02Z</time>
      </trkpt>
      <trkpt lat="49.43635" lon="-1.20246">
        <ele>2.3</ele>
        <time>2020-06-15T15:31:03Z</time>
      </trkpt>
      <trkpt lat="49.43632" lon="-1.20239">
        <ele>2.3</ele>
        <time>2020-06-15T15:31:04Z</time>
      </trkpt>
      <trkpt lat="49.43628" lon="-1.20234">
        <ele>2.3</ele>
        <time>2020-06-15T15:31:05Z</time>
      </trkpt>
      <trkpt lat="49.43624" lon="-1.20226">
        <ele>2.3</ele>
        <time>2020-06-15T15:31:06Z</time>
      </trkpt>
      <trkpt lat="49.4362" lon="-1.2022">
        <ele>2.3</ele>
        <time>2020-06-15T15:31:07Z</time>
      </trkpt>
      <trkpt lat="49.43615" lon="-1.20214">
        <ele>2.3</ele>
        <time>2020-06-15T15:31:08Z</time>
      </trkpt>
      <trkpt lat="49.43609" lon="-1.20208">
        <ele>2.2</ele>
        <time>2020-06-15T15:31:09Z</time>
      </trkpt>
      <trkpt lat="49.43604" lon="-1.20203">
        <ele>2.2</ele>
        <time>2020-06-15T15:31:10Z</time>
      </trkpt>
      <trkpt lat="49.43599" lon="-1.20198">
        <ele>2.2</ele>
        <time>2020-06-15T15:31:11Z</time>
      </trkpt>
      <trkpt lat="49.43593" lon="-1.20193">
        <ele>2.2</ele>
        <time>2020-06-15T15:31:12Z</time>
      </trkpt>
      <trkpt lat="49.43588" lon="-1.20187">
        <ele>2.2</ele>
        <time>2020-06-15T15:31:13Z</time>
      </trkpt>
      <trkpt lat="49.43583" lon="-1.20183">
        <ele>2.2</ele>
        <time>2020-06-15T15:31:14Z</time>
      </trkpt>
      <trkpt lat="49.43578" lon="-1.20177">
        <ele>2.2</ele>
        <time>2020-06-15T15:31:15Z</time>
      </trkpt>
      <trkpt lat="49.43573" lon="-1.20171">
        <ele>2.3</ele>
        <time>2020-06-15T15:31:16Z</time>
      </trkpt>
      <trkpt lat="49.43567" lon="-1.20166">
        <ele>2.3</ele>
        <time>2020-06-15T15:31:17Z</time>
      </trkpt>
      <trkpt lat="49.43561" lon="-1.20161">
        <ele>2.3</ele>
        <time>2020-06-15T15:31:18Z</time>
      </trkpt>
      <trkpt lat="49.43556" lon="-1.20156">
        <ele>2.3</ele>
        <time>2020-06-15T15:31:19Z</time>
      </trkpt>
      <trkpt lat="49.43551" lon="-1.20151">
        <ele>2.3</ele>
        <time>2020-06-15T15:31:20Z</time>
      </trkpt>
      <trkpt lat="49.43546" lon="-1.20145">
        <ele>2.3</ele>
        <time>2020-06-15T15:31:21Z</time>
      </trkpt>
      <trkpt lat="49.43541" lon="-1.20139">
        <ele>2.3</ele>
        <time>2020-06-15T15:31:22Z</time>
      </trkpt>
      <trkpt lat="49.43536" lon="-1.20133">
        <ele>2.3</ele>
        <time>2020-06-15T15:31:23Z</time>
      </trkpt>
      <trkpt lat="49.43531" lon="-1.20127">
        <ele>2.3</ele>
        <time>2020-06-15T15:31:24Z</time>
      </trkpt>
      <trkpt lat="49.43527" lon="-1.2012">
        <ele>2.3</ele>
        <time>2020-06-15T15:31:25Z</time>
      </trkpt>
      <trkpt lat="49.43522" lon="-1.20113">
        <ele>2.3</ele>
        <time>2020-06-15T15:31:26Z</time>
      </trkpt>
      <trkpt lat="49.43518" lon="-1.20106">
        <ele>2.3</ele>
        <time>2020-06-15T15:31:27Z</time>
      </trkpt>
      <trkpt lat="49.43514" lon="-1.20098">
        <ele>2.3</ele>
        <time>2020-06-15T15:31:28Z</time>
      </trkpt>
      <trkpt lat="49.43511" lon="-1.20089">
        <ele>2.3</ele>
        <time>2020-06-15T15:31:29Z</time>
      </trkpt>
      <trkpt lat="49.43507" lon="-1.20081">
        <ele>2.3</ele>
        <time>2020-06-15T15:31:30Z</time>
      </trkpt>
      <trkpt lat="49.43504" lon="-1.20072">
        <ele>2.3</ele>
        <time>2020-06-15T15:31:31Z</time>
      </trkpt>
      <trkpt lat="49.43501" lon="-1.20063">
        <ele>2.3</ele>
        <time>2020-06-15T15:31:32Z</time>
      </trkpt>
      <trkpt lat="49.43498" lon="-1.20054">
        <ele>2.3</ele>
        <time>2020-06-15T15:31:33Z</time>
      </trkpt>
      <trkpt lat="49.43495" lon="-1.20046">
        <ele>2.4</ele>
        <time>2020-06-15T15:31:34Z</time>
      </trkpt>
      <trkpt lat="49.43492" lon="-1.20039">
        <ele>2.3</ele>
        <time>2020-06-15T15:31:35Z</time>
      </trkpt>
      <trkpt lat="49.43489" lon="-1.20029">
        <ele>2.2</ele>
        <time>2020-06-15T15:31:36Z</time>
      </trkpt>
      <trkpt lat="49.43487" lon="-1.2002">
        <ele>2.1</ele>
        <time>2020-06-15T15:31:37Z</time>
      </trkpt>
      <trkpt lat="49.43483" lon="-1.20012">
        <ele>2</ele>
        <time>2020-06-15T15:31:38Z</time>
      </trkpt>
      <trkpt lat="49.4348" lon="-1.20004">
        <ele>2</ele>
        <time>2020-06-15T15:31:39Z</time>
      </trkpt>
      <trkpt lat="49.43476" lon="-1.19995">
        <ele>2</ele>
        <time>2020-06-15T15:31:40Z</time>
      </trkpt>
      <trkpt lat="49.43473" lon="-1.19987">
        <ele>2.1</ele>
        <time>2020-06-15T15:31:41Z</time>
      </trkpt>
      <trkpt lat="49.43469" lon="-1.1998">
        <ele>2.1</ele>
        <time>2020-06-15T15:31:42Z</time>
      </trkpt>
      <trkpt lat="49.43465" lon="-1.19972">
        <ele>2.1</ele>
        <time>2020-06-15T15:31:43Z</time>
      </trkpt>
      <trkpt lat="49.43461" lon="-1.19965">
        <ele>2.2</ele>
        <time>2020-06-15T15:31:44Z</time>
      </trkpt>
      <trkpt lat="49.43457" lon="-1.19959">
        <ele>2.2</ele>
        <time>2020-06-15T15:31:45Z</time>
      </trkpt>
      <trkpt lat="49.43454" lon="-1.19952">
        <ele>2.2</ele>
        <time>2020-06-15T15:31:46Z</time>
      </trkpt>
      <trkpt lat="49.43449" lon="-1.19943">
        <ele>2.3</ele>
        <time>2020-06-15T15:31:47Z</time>
      </trkpt>
      <trkpt lat="49.43444" lon="-1.19935">
        <ele>2.3</ele>
        <time>2020-06-15T15:31:48Z</time>
      </trkpt>
      <trkpt lat="49.4344" lon="-1.19927">
        <ele>2.3</ele>
        <time>2020-06-15T15:31:49Z</time>
      </trkpt>
      <trkpt lat="49.43436" lon="-1.19919">
        <ele>2.3</ele>
        <time>2020-06-15T15:31:50Z</time>
      </trkpt>
      <trkpt lat="49.43431" lon="-1.19912">
        <ele>2.3</ele>
        <time>2020-06-15T15:31:51Z</time>
      </trkpt>
      <trkpt lat="49.43428" lon="-1.19906">
        <ele>2.3</ele>
        <time>2020-06-15T15:31:52Z</time>
      </trkpt>
      <trkpt lat="49.43425" lon="-1.19901">
        <ele>2.3</ele>
        <time>2020-06-15T15:31:53Z</time>
      </trkpt>
      <trkpt lat="49.4342" lon="-1.19896">
        <ele>2.3</ele>
        <time>2020-06-15T15:31:54Z</time>
      </trkpt>
      <trkpt lat="49.43415" lon="-1.19889">
        <ele>2.3</ele>
        <time>2020-06-15T15:31:55Z</time>
      </trkpt>
      <trkpt lat="49.4341" lon="-1.19884">
        <ele>2.3</ele>
        <time>2020-06-15T15:31:56Z</time>
      </trkpt>
      <trkpt lat="49.43405" lon="-1.19877">
        <ele>2.3</ele>
        <time>2020-06-15T15:31:57Z</time>
      </trkpt>
      <trkpt lat="49.43401" lon="-1.19871">
        <ele>2.2</ele>
        <time>2020-06-15T15:31:58Z</time>
      </trkpt>
      <trkpt lat="49.43396" lon="-1.19868">
        <ele>2.2</ele>
        <time>2020-06-15T15:31:59Z</time>
      </trkpt>
      <trkpt lat="49.43391" lon="-1.19862">
        <ele>2.2</ele>
        <time>2020-06-15T15:32:00Z</time>
      </trkpt>
      <trkpt lat="49.43386" lon="-1.19858">
        <ele>2.3</ele>
        <time>2020-06-15T15:32:01Z</time>
      </trkpt>
      <trkpt lat="49.43382" lon="-1.19852">
        <ele>2.3</ele>
        <time>2020-06-15T15:32:02Z</time>
      </trkpt>
      <trkpt lat="49.43377" lon="-1.19845">
        <ele>2.3</ele>
        <time>2020-06-15T15:32:03Z</time>
      </trkpt>
      <trkpt lat="49.43373" lon="-1.19839">
        <ele>2.3</ele>
        <time>2020-06-15T15:32:04Z</time>
      </trkpt>
      <trkpt lat="49.43368" lon="-1.19834">
        <ele>2.3</ele>
        <time>2020-06-15T15:32:05Z</time>
      </trkpt>
      <trkpt lat="49.43363" lon="-1.19828">
        <ele>2.3</ele>
        <time>2020-06-15T15:32:06Z</time>
      </trkpt>
      <trkpt lat="49.43359" lon="-1.19823">
        <ele>2.4</ele>
        <time>2020-06-15T15:32:07Z</time>
      </trkpt>
      <trkpt lat="49.43353" lon="-1.19819">
        <ele>2.4</ele>
        <time>2020-06-15T15:32:08Z</time>
      </trkpt>
      <trkpt lat="49.43348" lon="-1.19814">
        <ele>2.4</ele>
        <time>2020-06-15T15:32:09Z</time>
      </trkpt>
      <trkpt lat="49.43342" lon="-1.1981">
        <ele>2.4</ele>
        <time>2020-06-15T15:32:10Z</time>
      </trkpt>
      <trkpt lat="49.43336" lon="-1.19805">
        <ele>2.4</ele>
        <time>2020-06-15T15:32:11Z</time>
      </trkpt>
      <trkpt lat="49.4333" lon="-1.19802">
        <ele>2.4</ele>
        <time>2020-06-15T15:32:12Z</time>
      </trkpt>
      <trkpt lat="49.43323" lon="-1.19798">
        <ele>2.3</ele>
        <time>2020-06-15T15:32:13Z</time>
      </trkpt>
      <trkpt lat="49.43317" lon="-1.19796">
        <ele>2.3</ele>
        <time>2020-06-15T15:32:14Z</time>
      </trkpt>
      <trkpt lat="49.43311" lon="-1.19793">
        <ele>2.2</ele>
        <time>2020-06-15T15:32:15Z</time>
      </trkpt>
      <trkpt lat="49.43306" lon="-1.19789">
        <ele>2.2</ele>
        <time>2020-06-15T15:32:16Z</time>
      </trkpt>
      <trkpt lat="49.433" lon="-1.19785">
        <ele>2.2</ele>
        <time>2020-06-15T15:32:17Z</time>
      </trkpt>
      <trkpt lat="49.43294" lon="-1.19781">
        <ele>2.2</ele>
        <time>2020-06-15T15:32:18Z</time>
      </trkpt>
      <trkpt lat="49.43288" lon="-1.19779">
        <ele>2.1</ele>
        <time>2020-06-15T15:32:19Z</time>
      </trkpt>
      <trkpt lat="49.43282" lon="-1.19775">
        <ele>2.1</ele>
        <time>2020-06-15T15:32:20Z</time>
      </trkpt>
      <trkpt lat="49.43276" lon="-1.19773">
        <ele>2.1</ele>
        <time>2020-06-15T15:32:21Z</time>
      </trkpt>
      <trkpt lat="49.43269" lon="-1.19769">
        <ele>2.1</ele>
        <time>2020-06-15T15:32:22Z</time>
      </trkpt>
      <trkpt lat="49.43263" lon="-1.19767">
        <ele>2.2</ele>
        <time>2020-06-15T15:32:23Z</time>
      </trkpt>
      <trkpt lat="49.43257" lon="-1.19764">
        <ele>2.2</ele>
        <time>2020-06-15T15:32:24Z</time>
      </trkpt>
      <trkpt lat="49.4325" lon="-1.19759">
        <ele>2.2</ele>
        <time>2020-06-15T15:32:25Z</time>
      </trkpt>
      <trkpt lat="49.43245" lon="-1.19756">
        <ele>2.3</ele>
        <time>2020-06-15T15:32:26Z</time>
      </trkpt>
      <trkpt lat="49.43239" lon="-1.19751">
        <ele>2.3</ele>
        <time>2020-06-15T15:32:27Z</time>
      </trkpt>
      <trkpt lat="49.43233" lon="-1.19747">
        <ele>2.3</ele>
        <time>2020-06-15T15:32:28Z</time>
      </trkpt>
      <trkpt lat="49.43228" lon="-1.19742">
        <ele>2.4</ele>
        <time>2020-06-15T15:32:29Z</time>
      </trkpt>
      <trkpt lat="49.43223" lon="-1.19738">
        <ele>2.4</ele>
        <time>2020-06-15T15:32:30Z</time>
      </trkpt>
      <trkpt lat="49.43217" lon="-1.19733">
        <ele>2.4</ele>
        <time>2020-06-15T15:32:31Z</time>
      </trkpt>
      <trkpt lat="49.43212" lon="-1.19727">
        <ele>2.4</ele>
        <time>2020-06-15T15:32:32Z</time>
      </trkpt>
      <trkpt lat="49.43207" lon="-1.1972">
        <ele>2.4</ele>
        <time>2020-06-15T15:32:33Z</time>
      </trkpt>
      <trkpt lat="49.43202" lon="-1.19713">
        <ele>2.4</ele>
        <time>2020-06-15T15:32:34Z</time>
      </trkpt>
      <trkpt lat="49.43197" lon="-1.19708">
        <ele>2.4</ele>
        <time>2020-06-15T15:32:35Z</time>
      </trkpt>
      <trkpt lat="49.43193" lon="-1.19703">
        <ele>2.5</ele>
        <time>2020-06-15T15:32:36Z</time>
      </trkpt>
      <trkpt lat="49.43189" lon="-1.19697">
        <ele>2.5</ele>
        <time>2020-06-15T15:32:37Z</time>
      </trkpt>
      <trkpt lat="49.43184" lon="-1.19691">
        <ele>2.5</ele>
        <time>2020-06-15T15:32:38Z</time>
      </trkpt>
      <trkpt lat="49.43181" lon="-1.19686">
        <ele>2.5</ele>
        <time>2020-06-15T15:32:39Z</time>
      </trkpt>
      <trkpt lat="49.43177" lon="-1.1968">
        <ele>2.5</ele>
        <time>2020-06-15T15:32:40Z</time>
      </trkpt>
      <trkpt lat="49.43172" lon="-1.19673">
        <ele>2.6</ele>
        <time>2020-06-15T15:32:41Z</time>
      </trkpt>
      <trkpt lat="49.43168" lon="-1.19669">
        <ele>2.6</ele>
        <time>2020-06-15T15:32:42Z</time>
      </trkpt>
      <trkpt lat="49.43163" lon="-1.19663">
        <ele>2.7</ele>
        <time>2020-06-15T15:32:43Z</time>
      </trkpt>
      <trkpt lat="49.43158" lon="-1.19657">
        <ele>2.7</ele>
        <time>2020-06-15T15:32:44Z</time>
      </trkpt>
      <trkpt lat="49.43154" lon="-1.19652">
        <ele>2.7</ele>
        <time>2020-06-15T15:32:45Z</time>
      </trkpt>
      <trkpt lat="49.43149" lon="-1.19646">
        <ele>2.7</ele>
        <time>2020-06-15T15:32:46Z</time>
      </trkpt>
      <trkpt lat="49.43144" lon="-1.1964">
        <ele>2.7</ele>
        <time>2020-06-15T15:32:47Z</time>
      </trkpt>
      <trkpt lat="49.43138" lon="-1.19633">
        <ele>2.7</ele>
        <time>2020-06-15T15:32:48Z</time>
      </trkpt>
      <trkpt lat="49.43132" lon="-1.19626">
        <ele>2.7</ele>
        <time>2020-06-15T15:32:49Z</time>
      </trkpt>
      <trkpt lat="49.43127" lon="-1.19619">
        <ele>2.7</ele>
        <time>2020-06-15T15:32:50Z</time>
      </trkpt>
      <trkpt lat="49.43123" lon="-1.19614">
        <ele>2.8</ele>
        <time>2020-06-15T15:32:51Z</time>
      </trkpt>
      <trkpt lat="49.43118" lon="-1.19608">
        <ele>2.8</ele>
        <time>2020-06-15T15:32:52Z</time>
      </trkpt>
      <trkpt lat="49.43112" lon="-1.196">
        <ele>2.9</ele>
        <time>2020-06-15T15:32:53Z</time>
      </trkpt>
      <trkpt lat="49.43107" lon="-1.19593">
        <ele>3</ele>
        <time>2020-06-15T15:32:54Z</time>
      </trkpt>
      <trkpt lat="49.43102" lon="-1.19586">
        <ele>3</ele>
        <time>2020-06-15T15:32:55Z</time>
      </trkpt>
      <trkpt lat="49.43097" lon="-1.19581">
        <ele>3.1</ele>
        <time>2020-06-15T15:32:56Z</time>
      </trkpt>
      <trkpt lat="49.43092" lon="-1.19577">
        <ele>3.1</ele>
        <time>2020-06-15T15:32:57Z</time>
      </trkpt>
      <trkpt lat="49.43088" lon="-1.1957">
        <ele>3.1</ele>
        <time>2020-06-15T15:32:58Z</time>
      </trkpt>
      <trkpt lat="49.43083" lon="-1.19564">
        <ele>3.1</ele>
        <time>2020-06-15T15:32:59Z</time>
      </trkpt>
      <trkpt lat="49.43079" lon="-1.19559">
        <ele>3.1</ele>
        <time>2020-06-15T15:33:00Z</time>
      </trkpt>
      <trkpt lat="49.43074" lon="-1.19553">
        <ele>3</ele>
        <time>2020-06-15T15:33:01Z</time>
      </trkpt>
      <trkpt lat="49.4307" lon="-1.19549">
        <ele>3</ele>
        <time>2020-06-15T15:33:02Z</time>
      </trkpt>
      <trkpt lat="49.43065" lon="-1.19543">
        <ele>3</ele>
        <time>2020-06-15T15:33:03Z</time>
      </trkpt>
      <trkpt lat="49.4306" lon="-1.19537">
        <ele>3</ele>
        <time>2020-06-15T15:33:04Z</time>
      </trkpt>
      <trkpt lat="49.43055" lon="-1.19531">
        <ele>3</ele>
        <time>2020-06-15T15:33:05Z</time>
      </trkpt>
      <trkpt lat="49.4305" lon="-1.19525">
        <ele>2.9</ele>
        <time>2020-06-15T15:33:06Z</time>
      </trkpt>
      <trkpt lat="49.43045" lon="-1.19518">
        <ele>2.9</ele>
        <time>2020-06-15T15:33:07Z</time>
      </trkpt>
      <trkpt lat="49.43039" lon="-1.19511">
        <ele>2.8</ele>
        <time>2020-06-15T15:33:08Z</time>
      </trkpt>
      <trkpt lat="49.43035" lon="-1.19507">
        <ele>2.8</ele>
        <time>2020-06-15T15:33:09Z</time>
      </trkpt>
      <trkpt lat="49.4303" lon="-1.195">
        <ele>2.7</ele>
        <time>2020-06-15T15:33:10Z</time>
      </trkpt>
      <trkpt lat="49.43025" lon="-1.19494">
        <ele>2.6</ele>
        <time>2020-06-15T15:33:11Z</time>
      </trkpt>
      <trkpt lat="49.4302" lon="-1.19487">
        <ele>2.6</ele>
        <time>2020-06-15T15:33:12Z</time>
      </trkpt>
      <trkpt lat="49.43015" lon="-1.19481">
        <ele>2.6</ele>
        <time>2020-06-15T15:33:13Z</time>
      </trkpt>
      <trkpt lat="49.4301" lon="-1.19475">
        <ele>2.6</ele>
        <time>2020-06-15T15:33:14Z</time>
      </trkpt>
      <trkpt lat="49.43004" lon="-1.19469">
        <ele>2.6</ele>
        <time>2020-06-15T15:33:15Z</time>
      </trkpt>
      <trkpt lat="49.43" lon="-1.19461">
        <ele>2.6</ele>
        <time>2020-06-15T15:33:16Z</time>
      </trkpt>
      <trkpt lat="49.42994" lon="-1.19456">
        <ele>2.7</ele>
        <time>2020-06-15T15:33:17Z</time>
      </trkpt>
      <trkpt lat="49.4299" lon="-1.1945">
        <ele>2.8</ele>
        <time>2020-06-15T15:33:18Z</time>
      </trkpt>
      <trkpt lat="49.42984" lon="-1.19444">
        <ele>2.8</ele>
        <time>2020-06-15T15:33:19Z</time>
      </trkpt>
      <trkpt lat="49.4298" lon="-1.19437">
        <ele>2.9</ele>
        <time>2020-06-15T15:33:20Z</time>
      </trkpt>
      <trkpt lat="49.42975" lon="-1.19432">
        <ele>2.9</ele>
        <time>2020-06-15T15:33:21Z</time>
      </trkpt>
      <trkpt lat="49.42971" lon="-1.19425">
        <ele>2.9</ele>
        <time>2020-06-15T15:33:22Z</time>
      </trkpt>
      <trkpt lat="49.42967" lon="-1.19419">
        <ele>2.9</ele>
        <time>2020-06-15T15:33:23Z</time>
      </trkpt>
      <trkpt lat="49.42964" lon="-1.19413">
        <ele>3</ele>
        <time>2020-06-15T15:33:24Z</time>
      </trkpt>
      <trkpt lat="49.4296" lon="-1.19408">
        <ele>3</ele>
        <time>2020-06-15T15:33:25Z</time>
      </trkpt>
      <trkpt lat="49.42956" lon="-1.19402">
        <ele>3</ele>
        <time>2020-06-15T15:33:26Z</time>
      </trkpt>
      <trkpt lat="49.42952" lon="-1.19394">
        <ele>3</ele>
        <time>2020-06-15T15:33:27Z</time>
      </trkpt>
      <trkpt lat="49.42948" lon="-1.19386">
        <ele>3</ele>
        <time>2020-06-15T15:33:28Z</time>
      </trkpt>
      <trkpt lat="49.42944" lon="-1.19378">
        <ele>3</ele>
        <time>2020-06-15T15:33:29Z</time>
      </trkpt>
      <trkpt lat="49.42941" lon="-1.1937">
        <ele>3</ele>
        <time>2020-06-15T15:33:30Z</time>
      </trkpt>
      <trkpt lat="49.42938" lon="-1.1936">
        <ele>3</ele>
        <time>2020-06-15T15:33:31Z</time>
      </trkpt>
      <trkpt lat="49.42936" lon="-1.19351">
        <ele>2.9</ele>
        <time>2020-06-15T15:33:32Z</time>
      </trkpt>
      <trkpt lat="49.42934" lon="-1.19341">
        <ele>2.9</ele>
        <time>2020-06-15T15:33:33Z</time>
      </trkpt>
      <trkpt lat="49.42932" lon="-1.19331">
        <ele>2.9</ele>
        <time>2020-06-15T15:33:34Z</time>
      </trkpt>
      <trkpt lat="49.4293" lon="-1.19322">
        <ele>2.9</ele>
        <time>2020-06-15T15:33:35Z</time>
      </trkpt>
      <trkpt lat="49.42929" lon="-1.19314">
        <ele>2.9</ele>
        <time>2020-06-15T15:33:36Z</time>
      </trkpt>
      <trkpt lat="49.42927" lon="-1.19304">
        <ele>2.9</ele>
        <time>2020-06-15T15:33:37Z</time>
      </trkpt>
      <trkpt lat="49.42926" lon="-1.19295">
        <ele>2.9</ele>
        <time>2020-06-15T15:33:38Z</time>
      </trkpt>
      <trkpt lat="49.42924" lon="-1.19286">
        <ele>2.9</ele>
        <time>2020-06-15T15:33:39Z</time>
      </trkpt>
      <trkpt lat="49.42923" lon="-1.19277">
        <ele>2.9</ele>
        <time>2020-06-15T15:33:40Z</time>
      </trkpt>
      <trkpt lat="49.42922" lon="-1.19268">
        <ele>2.8</ele>
        <time>2020-06-15T15:33:41Z</time>
      </trkpt>
      <trkpt lat="49.42921" lon="-1.19259">
        <ele>2.8</ele>
        <time>2020-06-15T15:33:42Z</time>
      </trkpt>
      <trkpt lat="49.42919" lon="-1.1925">
        <ele>2.7</ele>
        <time>2020-06-15T15:33:43Z</time>
      </trkpt>
      <trkpt lat="49.42917" lon="-1.19242">
        <ele>2.7</ele>
        <time>2020-06-15T15:33:44Z</time>
      </trkpt>
      <trkpt lat="49.42915" lon="-1.19234">
        <ele>2.7</ele>
        <time>2020-06-15T15:33:45Z</time>
      </trkpt>
      <trkpt lat="49.42913" lon="-1.19225">
        <ele>2.7</ele>
        <time>2020-06-15T15:33:46Z</time>
      </trkpt>
      <trkpt lat="49.42911" lon="-1.19214">
        <ele>2.6</ele>
        <time>2020-06-15T15:33:47Z</time>
      </trkpt>
      <trkpt lat="49.42909" lon="-1.19204">
        <ele>2.6</ele>
        <time>2020-06-15T15:33:48Z</time>
      </trkpt>
      <trkpt lat="49.42908" lon="-1.19196">
        <ele>2.6</ele>
        <time>2020-06-15T15:33:49Z</time>
      </trkpt>
      <trkpt lat="49.42906" lon="-1.19186">
        <ele>2.6</ele>
        <time>2020-06-15T15:33:50Z</time>
      </trkpt>
      <trkpt lat="49.42905" lon="-1.19177">
        <ele>2.6</ele>
        <time>2020-06-15T15:33:51Z</time>
      </trkpt>
      <trkpt lat="49.42903" lon="-1.19167">
        <ele>2.6</ele>
        <time>2020-06-15T15:33:52Z</time>
      </trkpt>
      <trkpt lat="49.42901" lon="-1.19158">
        <ele>2.6</ele>
        <time>2020-06-15T15:33:53Z</time>
      </trkpt>
      <trkpt lat="49.42899" lon="-1.19148">
        <ele>2.6</ele>
        <time>2020-06-15T15:33:54Z</time>
      </trkpt>
      <trkpt lat="49.42897" lon="-1.19138">
        <ele>2.6</ele>
        <time>2020-06-15T15:33:55Z</time>
      </trkpt>
      <trkpt lat="49.42895" lon="-1.1913">
        <ele>2.6</ele>
        <time>2020-06-15T15:33:56Z</time>
      </trkpt>
      <trkpt lat="49.42893" lon="-1.19121">
        <ele>2.6</ele>
        <time>2020-06-15T15:33:57Z</time>
      </trkpt>
      <trkpt lat="49.42891" lon="-1.19112">
        <ele>2.7</ele>
        <time>2020-06-15T15:33:58Z</time>
      </trkpt>
      <trkpt lat="49.42889" lon="-1.19103">
        <ele>2.7</ele>
        <time>2020-06-15T15:33:59Z</time>
      </trkpt>
      <trkpt lat="49.42888" lon="-1.19094">
        <ele>2.7</ele>
        <time>2020-06-15T15:34:00Z</time>
      </trkpt>
      <trkpt lat="49.42886" lon="-1.19087">
        <ele>2.7</ele>
        <time>2020-06-15T15:34:01Z</time>
      </trkpt>
      <trkpt lat="49.42883" lon="-1.19077">
        <ele>2.6</ele>
        <time>2020-06-15T15:34:02Z</time>
      </trkpt>
      <trkpt lat="49.42881" lon="-1.1907">
        <ele>2.5</ele>
        <time>2020-06-15T15:34:03Z</time>
      </trkpt>
      <trkpt lat="49.4288" lon="-1.19062">
        <ele>2.4</ele>
        <time>2020-06-15T15:34:04Z</time>
      </trkpt>
      <trkpt lat="49.42878" lon="-1.19053">
        <ele>2.4</ele>
        <time>2020-06-15T15:34:05Z</time>
      </trkpt>
      <trkpt lat="49.42876" lon="-1.19046">
        <ele>2.4</ele>
        <time>2020-06-15T15:34:06Z</time>
      </trkpt>
      <trkpt lat="49.42874" lon="-1.19036">
        <ele>2.3</ele>
        <time>2020-06-15T15:34:07Z</time>
      </trkpt>
      <trkpt lat="49.42873" lon="-1.19028">
        <ele>2.3</ele>
        <time>2020-06-15T15:34:08Z</time>
      </trkpt>
      <trkpt lat="49.42871" lon="-1.19019">
        <ele>2.3</ele>
        <time>2020-06-15T15:34:09Z</time>
      </trkpt>
      <trkpt lat="49.42869" lon="-1.1901">
        <ele>2.3</ele>
        <time>2020-06-15T15:34:10Z</time>
      </trkpt>
      <trkpt lat="49.42867" lon="-1.19001">
        <ele>2.3</ele>
        <time>2020-06-15T15:34:11Z</time>
      </trkpt>
      <trkpt lat="49.42865" lon="-1.18992">
        <ele>2.4</ele>
        <time>2020-06-15T15:34:12Z</time>
      </trkpt>
      <trkpt lat="49.42863" lon="-1.18983">
        <ele>2.4</ele>
        <time>2020-06-15T15:34:13Z</time>
      </trkpt>
      <trkpt lat="49.4286" lon="-1.18974">
        <ele>2.4</ele>
        <time>2020-06-15T15:34:14Z</time>
      </trkpt>
      <trkpt lat="49.42858" lon="-1.18965">
        <ele>2.5</ele>
        <time>2020-06-15T15:34:15Z</time>
      </trkpt>
      <trkpt lat="49.42855" lon="-1.18956">
        <ele>2.5</ele>
        <time>2020-06-15T15:34:16Z</time>
      </trkpt>
      <trkpt lat="49.42851" lon="-1.18948">
        <ele>2.6</ele>
        <time>2020-06-15T15:34:17Z</time>
      </trkpt>
      <trkpt lat="49.42848" lon="-1.1894">
        <ele>2.6</ele>
        <time>2020-06-15T15:34:18Z</time>
      </trkpt>
      <trkpt lat="49.42845" lon="-1.18931">
        <ele>2.7</ele>
        <time>2020-06-15T15:34:19Z</time>
      </trkpt>
      <trkpt lat="49.42842" lon="-1.18924">
        <ele>2.8</ele>
        <time>2020-06-15T15:34:20Z</time>
      </trkpt>
      <trkpt lat="49.4284" lon="-1.18916">
        <ele>2.9</ele>
        <time>2020-06-15T15:34:21Z</time>
      </trkpt>
      <trkpt lat="49.42837" lon="-1.18909">
        <ele>2.9</ele>
        <time>2020-06-15T15:34:22Z</time>
      </trkpt>
      <trkpt lat="49.42834" lon="-1.18902">
        <ele>3</ele>
        <time>2020-06-15T15:34:23Z</time>
      </trkpt>
      <trkpt lat="49.4283" lon="-1.18896">
        <ele>3.1</ele>
        <time>2020-06-15T15:34:24Z</time>
      </trkpt>
      <trkpt lat="49.42827" lon="-1.1889">
        <ele>3.2</ele>
        <time>2020-06-15T15:34:25Z</time>
      </trkpt>
      <trkpt lat="49.42824" lon="-1.18884">
        <ele>3.2</ele>
        <time>2020-06-15T15:34:26Z</time>
      </trkpt>
      <trkpt lat="49.4282" lon="-1.18878">
        <ele>3.2</ele>
        <time>2020-06-15T15:34:27Z</time>
      </trkpt>
      <trkpt lat="49.42816" lon="-1.18872">
        <ele>3.3</ele>
        <time>2020-06-15T15:34:28Z</time>
      </trkpt>
      <trkpt lat="49.42812" lon="-1.18865">
        <ele>3.3</ele>
        <time>2020-06-15T15:34:29Z</time>
      </trkpt>
      <trkpt lat="49.42808" lon="-1.18858">
        <ele>3.3</ele>
        <time>2020-06-15T15:34:30Z</time>
      </trkpt>
      <trkpt lat="49.42805" lon="-1.18853">
        <ele>3.3</ele>
        <time>2020-06-15T15:34:31Z</time>
      </trkpt>
      <trkpt lat="49.428" lon="-1.18848">
        <ele>3.3</ele>
        <time>2020-06-15T15:34:32Z</time>
      </trkpt>
      <trkpt lat="49.42795" lon="-1.18843">
        <ele>3.3</ele>
        <time>2020-06-15T15:34:33Z</time>
      </trkpt>
      <trkpt lat="49.42792" lon="-1.18839">
        <ele>3.4</ele>
        <time>2020-06-15T15:34:34Z</time>
      </trkpt>
      <trkpt lat="49.42786" lon="-1.18834">
        <ele>3.4</ele>
        <time>2020-06-15T15:34:35Z</time>
      </trkpt>
      <trkpt lat="49.42782" lon="-1.18829">
        <ele>3.4</ele>
        <time>2020-06-15T15:34:36Z</time>
      </trkpt>
      <trkpt lat="49.42778" lon="-1.18825">
        <ele>3.4</ele>
        <time>2020-06-15T15:34:37Z</time>
      </trkpt>
      <trkpt lat="49.42773" lon="-1.1882">
        <ele>3.4</ele>
        <time>2020-06-15T15:34:38Z</time>
      </trkpt>
      <trkpt lat="49.42767" lon="-1.18815">
        <ele>3.4</ele>
        <time>2020-06-15T15:34:39Z</time>
      </trkpt>
      <trkpt lat="49.42761" lon="-1.1881">
        <ele>3.4</ele>
        <time>2020-06-15T15:34:40Z</time>
      </trkpt>
      <trkpt lat="49.42756" lon="-1.18806">
        <ele>3.4</ele>
        <time>2020-06-15T15:34:41Z</time>
      </trkpt>
      <trkpt lat="49.42753" lon="-1.18801">
        <ele>3.4</ele>
        <time>2020-06-15T15:34:42Z</time>
      </trkpt>
      <trkpt lat="49.42747" lon="-1.18797">
        <ele>3.4</ele>
        <time>2020-06-15T15:34:43Z</time>
      </trkpt>
      <trkpt lat="49.42741" lon="-1.18792">
        <ele>3.4</ele>
        <time>2020-06-15T15:34:44Z</time>
      </trkpt>
      <trkpt lat="49.42735" lon="-1.18787">
        <ele>3.4</ele>
        <time>2020-06-15T15:34:45Z</time>
      </trkpt>
      <trkpt lat="49.42728" lon="-1.18781">
        <ele>3.4</ele>
        <time>2020-06-15T15:34:46Z</time>
      </trkpt>
      <trkpt lat="49.42723" lon="-1.18776">
        <ele>3.4</ele>
        <time>2020-06-15T15:34:47Z</time>
      </trkpt>
      <trkpt lat="49.42719" lon="-1.18772">
        <ele>3.3</ele>
        <time>2020-06-15T15:34:48Z</time>
      </trkpt>
      <trkpt lat="49.42713" lon="-1.18767">
        <ele>3.3</ele>
        <time>2020-06-15T15:34:49Z</time>
      </trkpt>
      <trkpt lat="49.42708" lon="-1.18762">
        <ele>3.3</ele>
        <time>2020-06-15T15:34:50Z</time>
      </trkpt>
      <trkpt lat="49.42702" lon="-1.18756">
        <ele>3.2</ele>
        <time>2020-06-15T15:34:51Z</time>
      </trkpt>
      <trkpt lat="49.42696" lon="-1.18751">
        <ele>3.2</ele>
        <time>2020-06-15T15:34:52Z</time>
      </trkpt>
      <trkpt lat="49.42691" lon="-1.18745">
        <ele>3.2</ele>
        <time>2020-06-15T15:34:53Z</time>
      </trkpt>
      <trkpt lat="49.42686" lon="-1.18739">
        <ele>3.1</ele>
        <time>2020-06-15T15:34:54Z</time>
      </trkpt>
      <trkpt lat="49.42681" lon="-1.18735">
        <ele>3.1</ele>
        <time>2020-06-15T15:34:55Z</time>
      </trkpt>
      <trkpt lat="49.42676" lon="-1.18729">
        <ele>3.1</ele>
        <time>2020-06-15T15:34:56Z</time>
      </trkpt>
      <trkpt lat="49.42671" lon="-1.18724">
        <ele>3.1</ele>
        <time>2020-06-15T15:34:57Z</time>
      </trkpt>
      <trkpt lat="49.42666" lon="-1.18718">
        <ele>3.1</ele>
        <time>2020-06-15T15:34:58Z</time>
      </trkpt>
      <trkpt lat="49.4266" lon="-1.18712">
        <ele>3.1</ele>
        <time>2020-06-15T15:34:59Z</time>
      </trkpt>
      <trkpt lat="49.42655" lon="-1.18706">
        <ele>3.1</ele>
        <time>2020-06-15T15:35:00Z</time>
      </trkpt>
      <trkpt lat="49.42649" lon="-1.18702">
        <ele>3.1</ele>
        <time>2020-06-15T15:35:01Z</time>
      </trkpt>
      <trkpt lat="49.42643" lon="-1.18695">
        <ele>3.1</ele>
        <time>2020-06-15T15:35:02Z</time>
      </trkpt>
      <trkpt lat="49.42639" lon="-1.18689">
        <ele>3</ele>
        <time>2020-06-15T15:35:03Z</time>
      </trkpt>
      <trkpt lat="49.42633" lon="-1.18684">
        <ele>3</ele>
        <time>2020-06-15T15:35:04Z</time>
      </trkpt>
      <trkpt lat="49.42628" lon="-1.1868">
        <ele>3</ele>
        <time>2020-06-15T15:35:05Z</time>
      </trkpt>
      <trkpt lat="49.42623" lon="-1.18674">
        <ele>3</ele>
        <time>2020-06-15T15:35:06Z</time>
      </trkpt>
      <trkpt lat="49.42616" lon="-1.18667">
        <ele>3</ele>
        <time>2020-06-15T15:35:07Z</time>
      </trkpt>
      <trkpt lat="49.42611" lon="-1.18662">
        <ele>3</ele>
        <time>2020-06-15T15:35:08Z</time>
      </trkpt>
      <trkpt lat="49.42607" lon="-1.18656">
        <ele>2.9</ele>
        <time>2020-06-15T15:35:09Z</time>
      </trkpt>
      <trkpt lat="49.42601" lon="-1.18649">
        <ele>2.9</ele>
        <time>2020-06-15T15:35:10Z</time>
      </trkpt>
      <trkpt lat="49.42596" lon="-1.18643">
        <ele>2.9</ele>
        <time>2020-06-15T15:35:11Z</time>
      </trkpt>
      <trkpt lat="49.42592" lon="-1.18639">
        <ele>2.9</ele>
        <time>2020-06-15T15:35:12Z</time>
      </trkpt>
      <trkpt lat="49.42587" lon="-1.18633">
        <ele>2.9</ele>
        <time>2020-06-15T15:35:13Z</time>
      </trkpt>
      <trkpt lat="49.42582" lon="-1.18628">
        <ele>2.8</ele>
        <time>2020-06-15T15:35:14Z</time>
      </trkpt>
      <trkpt lat="49.42577" lon="-1.18622">
        <ele>2.8</ele>
        <time>2020-06-15T15:35:15Z</time>
      </trkpt>
      <trkpt lat="49.42571" lon="-1.18616">
        <ele>2.8</ele>
        <time>2020-06-15T15:35:16Z</time>
      </trkpt>
      <trkpt lat="49.42565" lon="-1.1861">
        <ele>2.8</ele>
        <time>2020-06-15T15:35:17Z</time>
      </trkpt>
      <trkpt lat="49.42561" lon="-1.18604">
        <ele>2.7</ele>
        <time>2020-06-15T15:35:18Z</time>
      </trkpt>
      <trkpt lat="49.42555" lon="-1.18598">
        <ele>2.7</ele>
        <time>2020-06-15T15:35:19Z</time>
      </trkpt>
      <trkpt lat="49.4255" lon="-1.18593">
        <ele>2.7</ele>
        <time>2020-06-15T15:35:20Z</time>
      </trkpt>
      <trkpt lat="49.42544" lon="-1.18587">
        <ele>2.6</ele>
        <time>2020-06-15T15:35:21Z</time>
      </trkpt>
      <trkpt lat="49.42539" lon="-1.18582">
        <ele>2.6</ele>
        <time>2020-06-15T15:35:22Z</time>
      </trkpt>
      <trkpt lat="49.42534" lon="-1.18576">
        <ele>2.6</ele>
        <time>2020-06-15T15:35:23Z</time>
      </trkpt>
      <trkpt lat="49.42528" lon="-1.1857">
        <ele>2.6</ele>
        <time>2020-06-15T15:35:24Z</time>
      </trkpt>
      <trkpt lat="49.42523" lon="-1.18565">
        <ele>2.5</ele>
        <time>2020-06-15T15:35:25Z</time>
      </trkpt>
      <trkpt lat="49.42517" lon="-1.18559">
        <ele>2.5</ele>
        <time>2020-06-15T15:35:26Z</time>
      </trkpt>
      <trkpt lat="49.42512" lon="-1.18554">
        <ele>2.5</ele>
        <time>2020-06-15T15:35:27Z</time>
      </trkpt>
      <trkpt lat="49.42507" lon="-1.18548">
        <ele>2.5</ele>
        <time>2020-06-15T15:35:28Z</time>
      </trkpt>
      <trkpt lat="49.42501" lon="-1.18542">
        <ele>2.5</ele>
        <time>2020-06-15T15:35:29Z</time>
      </trkpt>
      <trkpt lat="49.42496" lon="-1.18536">
        <ele>2.5</ele>
        <time>2020-06-15T15:35:30Z</time>
      </trkpt>
      <trkpt lat="49.4249" lon="-1.1853">
        <ele>2.5</ele>
        <time>2020-06-15T15:35:31Z</time>
      </trkpt>
      <trkpt lat="49.42484" lon="-1.18524">
        <ele>2.5</ele>
        <time>2020-06-15T15:35:32Z</time>
      </trkpt>
      <trkpt lat="49.42479" lon="-1.18518">
        <ele>2.5</ele>
        <time>2020-06-15T15:35:33Z</time>
      </trkpt>
      <trkpt lat="49.42473" lon="-1.18512">
        <ele>2.5</ele>
        <time>2020-06-15T15:35:34Z</time>
      </trkpt>
      <trkpt lat="49.42468" lon="-1.18506">
        <ele>2.5</ele>
        <time>2020-06-15T15:35:35Z</time>
      </trkpt>
      <trkpt lat="49.42463" lon="-1.185">
        <ele>2.5</ele>
        <time>2020-06-15T15:35:36Z</time>
      </trkpt>
      <trkpt lat="49.42457" lon="-1.18494">
        <ele>2.4</ele>
        <time>2020-06-15T15:35:37Z</time>
      </trkpt>
      <trkpt lat="49.42452" lon="-1.18487">
        <ele>2.4</ele>
        <time>2020-06-15T15:35:38Z</time>
      </trkpt>
      <trkpt lat="49.42447" lon="-1.18481">
        <ele>2.4</ele>
        <time>2020-06-15T15:35:39Z</time>
      </trkpt>
      <trkpt lat="49.42442" lon="-1.18476">
        <ele>2.5</ele>
        <time>2020-06-15T15:35:40Z</time>
      </trkpt>
      <trkpt lat="49.42436" lon="-1.18471">
        <ele>2.5</ele>
        <time>2020-06-15T15:35:41Z</time>
      </trkpt>
      <trkpt lat="49.42432" lon="-1.18466">
        <ele>2.5</ele>
        <time>2020-06-15T15:35:42Z</time>
      </trkpt>
      <trkpt lat="49.42426" lon="-1.1846">
        <ele>2.5</ele>
        <time>2020-06-15T15:35:43Z</time>
      </trkpt>
      <trkpt lat="49.42421" lon="-1.18453">
        <ele>2.5</ele>
        <time>2020-06-15T15:35:44Z</time>
      </trkpt>
      <trkpt lat="49.42417" lon="-1.18449">
        <ele>2.6</ele>
        <time>2020-06-15T15:35:45Z</time>
      </trkpt>
      <trkpt lat="49.42412" lon="-1.18444">
        <ele>2.6</ele>
        <time>2020-06-15T15:35:46Z</time>
      </trkpt>
      <trkpt lat="49.42407" lon="-1.18439">
        <ele>2.6</ele>
        <time>2020-06-15T15:35:47Z</time>
      </trkpt>
      <trkpt lat="49.42402" lon="-1.18434">
        <ele>2.7</ele>
        <time>2020-06-15T15:35:48Z</time>
      </trkpt>
      <trkpt lat="49.42398" lon="-1.18428">
        <ele>2.7</ele>
        <time>2020-06-15T15:35:49Z</time>
      </trkpt>
      <trkpt lat="49.42393" lon="-1.18423">
        <ele>2.7</ele>
        <time>2020-06-15T15:35:50Z</time>
      </trkpt>
      <trkpt lat="49.42388" lon="-1.18417">
        <ele>2.7</ele>
        <time>2020-06-15T15:35:51Z</time>
      </trkpt>
      <trkpt lat="49.42382" lon="-1.18411">
        <ele>2.7</ele>
        <time>2020-06-15T15:35:52Z</time>
      </trkpt>
      <trkpt lat="49.42378" lon="-1.18406">
        <ele>2.8</ele>
        <time>2020-06-15T15:35:53Z</time>
      </trkpt>
      <trkpt lat="49.42371" lon="-1.18399">
        <ele>2.8</ele>
        <time>2020-06-15T15:35:54Z</time>
      </trkpt>
      <trkpt lat="49.42366" lon="-1.18392">
        <ele>2.8</ele>
        <time>2020-06-15T15:35:55Z</time>
      </trkpt>
      <trkpt lat="49.42361" lon="-1.18387">
        <ele>2.8</ele>
        <time>2020-06-15T15:35:56Z</time>
      </trkpt>
      <trkpt lat="49.42355" lon="-1.18381">
        <ele>2.8</ele>
        <time>2020-06-15T15:35:57Z</time>
      </trkpt>
      <trkpt lat="49.42349" lon="-1.18375">
        <ele>2.9</ele>
        <time>2020-06-15T15:35:58Z</time>
      </trkpt>
      <trkpt lat="49.42344" lon="-1.18368">
        <ele>2.9</ele>
        <time>2020-06-15T15:35:59Z</time>
      </trkpt>
      <trkpt lat="49.42339" lon="-1.18363">
        <ele>2.9</ele>
        <time>2020-06-15T15:36:00Z</time>
      </trkpt>
      <trkpt lat="49.42334" lon="-1.18357">
        <ele>3</ele>
        <time>2020-06-15T15:36:01Z</time>
      </trkpt>
      <trkpt lat="49.42328" lon="-1.18351">
        <ele>3.1</ele>
        <time>2020-06-15T15:36:02Z</time>
      </trkpt>
      <trkpt lat="49.42323" lon="-1.18345">
        <ele>3.2</ele>
        <time>2020-06-15T15:36:03Z</time>
      </trkpt>
      <trkpt lat="49.42317" lon="-1.1834">
        <ele>3.3</ele>
        <time>2020-06-15T15:36:04Z</time>
      </trkpt>
      <trkpt lat="49.42313" lon="-1.18335">
        <ele>3.3</ele>
        <time>2020-06-15T15:36:05Z</time>
      </trkpt>
      <trkpt lat="49.42308" lon="-1.18329">
        <ele>3.3</ele>
        <time>2020-06-15T15:36:06Z</time>
      </trkpt>
      <trkpt lat="49.42304" lon="-1.18324">
        <ele>3.4</ele>
        <time>2020-06-15T15:36:07Z</time>
      </trkpt>
      <trkpt lat="49.423" lon="-1.18319">
        <ele>3.4</ele>
        <time>2020-06-15T15:36:08Z</time>
      </trkpt>
      <trkpt lat="49.42295" lon="-1.18314">
        <ele>3.4</ele>
        <time>2020-06-15T15:36:09Z</time>
      </trkpt>
      <trkpt lat="49.4229" lon="-1.18308">
        <ele>3.3</ele>
        <time>2020-06-15T15:36:10Z</time>
      </trkpt>
      <trkpt lat="49.42284" lon="-1.18303">
        <ele>3.3</ele>
        <time>2020-06-15T15:36:11Z</time>
      </trkpt>
      <trkpt lat="49.42279" lon="-1.18298">
        <ele>3.2</ele>
        <time>2020-06-15T15:36:12Z</time>
      </trkpt>
      <trkpt lat="49.42273" lon="-1.18293">
        <ele>3.1</ele>
        <time>2020-06-15T15:36:13Z</time>
      </trkpt>
      <trkpt lat="49.42267" lon="-1.18288">
        <ele>3</ele>
        <time>2020-06-15T15:36:14Z</time>
      </trkpt>
      <trkpt lat="49.42261" lon="-1.18283">
        <ele>3</ele>
        <time>2020-06-15T15:36:15Z</time>
      </trkpt>
      <trkpt lat="49.42255" lon="-1.18278">
        <ele>2.9</ele>
        <time>2020-06-15T15:36:16Z</time>
      </trkpt>
      <trkpt lat="49.42249" lon="-1.18274">
        <ele>2.9</ele>
        <time>2020-06-15T15:36:17Z</time>
      </trkpt>
      <trkpt lat="49.42244" lon="-1.18269">
        <ele>2.9</ele>
        <time>2020-06-15T15:36:18Z</time>
      </trkpt>
      <trkpt lat="49.42238" lon="-1.18264">
        <ele>2.9</ele>
        <time>2020-06-15T15:36:19Z</time>
      </trkpt>
      <trkpt lat="49.42232" lon="-1.18259">
        <ele>2.9</ele>
        <time>2020-06-15T15:36:20Z</time>
      </trkpt>
      <trkpt lat="49.42227" lon="-1.18254">
        <ele>2.9</ele>
        <time>2020-06-15T15:36:21Z</time>
      </trkpt>
      <trkpt lat="49.4222" lon="-1.1825">
        <ele>2.9</ele>
        <time>2020-06-15T15:36:22Z</time>
      </trkpt>
      <trkpt lat="49.42215" lon="-1.18244">
        <ele>2.8</ele>
        <time>2020-06-15T15:36:23Z</time>
      </trkpt>
      <trkpt lat="49.42208" lon="-1.18239">
        <ele>2.8</ele>
        <time>2020-06-15T15:36:24Z</time>
      </trkpt>
      <trkpt lat="49.42202" lon="-1.18233">
        <ele>2.8</ele>
        <time>2020-06-15T15:36:25Z</time>
      </trkpt>
      <trkpt lat="49.42195" lon="-1.18227">
        <ele>2.8</ele>
        <time>2020-06-15T15:36:26Z</time>
      </trkpt>
      <trkpt lat="49.4219" lon="-1.18222">
        <ele>2.8</ele>
        <time>2020-06-15T15:36:27Z</time>
      </trkpt>
      <trkpt lat="49.42185" lon="-1.18218">
        <ele>2.8</ele>
        <time>2020-06-15T15:36:28Z</time>
      </trkpt>
      <trkpt lat="49.42179" lon="-1.18213">
        <ele>2.8</ele>
        <time>2020-06-15T15:36:29Z</time>
      </trkpt>
      <trkpt lat="49.42173" lon="-1.18208">
        <ele>2.8</ele>
        <time>2020-06-15T15:36:30Z</time>
      </trkpt>
      <trkpt lat="49.42168" lon="-1.18202">
        <ele>2.8</ele>
        <time>2020-06-15T15:36:31Z</time>
      </trkpt>
      <trkpt lat="49.42162" lon="-1.18197">
        <ele>2.8</ele>
        <time>2020-06-15T15:36:32Z</time>
      </trkpt>
      <trkpt lat="49.42156" lon="-1.18192">
        <ele>2.8</ele>
        <time>2020-06-15T15:36:33Z</time>
      </trkpt>
      <trkpt lat="49.42152" lon="-1.18188">
        <ele>2.9</ele>
        <time>2020-06-15T15:36:34Z</time>
      </trkpt>
      <trkpt lat="49.42147" lon="-1.18182">
        <ele>2.9</ele>
        <time>2020-06-15T15:36:35Z</time>
      </trkpt>
      <trkpt lat="49.42142" lon="-1.18175">
        <ele>3</ele>
        <time>2020-06-15T15:36:36Z</time>
      </trkpt>
      <trkpt lat="49.42137" lon="-1.18169">
        <ele>3</ele>
        <time>2020-06-15T15:36:37Z</time>
      </trkpt>
      <trkpt lat="49.42133" lon="-1.18164">
        <ele>3</ele>
        <time>2020-06-15T15:36:38Z</time>
      </trkpt>
      <trkpt lat="49.42128" lon="-1.18158">
        <ele>3.1</ele>
        <time>2020-06-15T15:36:39Z</time>
      </trkpt>
      <trkpt lat="49.42124" lon="-1.18151">
        <ele>3.1</ele>
        <time>2020-06-15T15:36:40Z</time>
      </trkpt>
      <trkpt lat="49.42119" lon="-1.18145">
        <ele>3.1</ele>
        <time>2020-06-15T15:36:41Z</time>
      </trkpt>
      <trkpt lat="49.42114" lon="-1.18139">
        <ele>3.1</ele>
        <time>2020-06-15T15:36:42Z</time>
      </trkpt>
      <trkpt lat="49.4211" lon="-1.18132">
        <ele>3.1</ele>
        <time>2020-06-15T15:36:43Z</time>
      </trkpt>
      <trkpt lat="49.42105" lon="-1.18126">
        <ele>3.1</ele>
        <time>2020-06-15T15:36:44Z</time>
      </trkpt>
      <trkpt lat="49.421" lon="-1.1812">
        <ele>3.1</ele>
        <time>2020-06-15T15:36:45Z</time>
      </trkpt>
      <trkpt lat="49.42096" lon="-1.18113">
        <ele>3.1</ele>
        <time>2020-06-15T15:36:46Z</time>
      </trkpt>
      <trkpt lat="49.42091" lon="-1.18106">
        <ele>3.1</ele>
        <time>2020-06-15T15:36:47Z</time>
      </trkpt>
      <trkpt lat="49.42087" lon="-1.181">
        <ele>3.1</ele>
        <time>2020-06-15T15:36:48Z</time>
      </trkpt>
      <trkpt lat="49.42083" lon="-1.18094">
        <ele>3.1</ele>
        <time>2020-06-15T15:36:49Z</time>
      </trkpt>
      <trkpt lat="49.42079" lon="-1.18088">
        <ele>3.2</ele>
        <time>2020-06-15T15:36:50Z</time>
      </trkpt>
      <trkpt lat="49.42074" lon="-1.18082">
        <ele>3.2</ele>
        <time>2020-06-15T15:36:51Z</time>
      </trkpt>
      <trkpt lat="49.42069" lon="-1.18076">
        <ele>3.2</ele>
        <time>2020-06-15T15:36:52Z</time>
      </trkpt>
      <trkpt lat="49.42065" lon="-1.1807">
        <ele>3.2</ele>
        <time>2020-06-15T15:36:53Z</time>
      </trkpt>
      <trkpt lat="49.4206" lon="-1.18064">
        <ele>3.2</ele>
        <time>2020-06-15T15:36:54Z</time>
      </trkpt>
      <trkpt lat="49.42056" lon="-1.18058">
        <ele>3.3</ele>
        <time>2020-06-15T15:36:55Z</time>
      </trkpt>
      <trkpt lat="49.42052" lon="-1.18052">
        <ele>3.3</ele>
        <time>2020-06-15T15:36:56Z</time>
      </trkpt>
      <trkpt lat="49.42047" lon="-1.18045">
        <ele>3.3</ele>
        <time>2020-06-15T15:36:57Z</time>
      </trkpt>
      <trkpt lat="49.42043" lon="-1.18039">
        <ele>3.3</ele>
        <time>2020-06-15T15:36:58Z</time>
      </trkpt>
      <trkpt lat="49.42037" lon="-1.18032">
        <ele>3.3</ele>
        <time>2020-06-15T15:36:59Z</time>
      </trkpt>
      <trkpt lat="49.42031" lon="-1.18026">
        <ele>3.4</ele>
        <time>2020-06-15T15:37:00Z</time>
      </trkpt>
      <trkpt lat="49.42027" lon="-1.1802">
        <ele>3.4</ele>
        <time>2020-06-15T15:37:01Z</time>
      </trkpt>
      <trkpt lat="49.42023" lon="-1.18015">
        <ele>3.4</ele>
        <time>2020-06-15T15:37:02Z</time>
      </trkpt>
      <trkpt lat="49.4202" lon="-1.18011">
        <ele>3.4</ele>
        <time>2020-06-15T15:37:03Z</time>
      </trkpt>
      <trkpt lat="49.42017" lon="-1.18008">
        <ele>3.4</ele>
        <time>2020-06-15T15:37:04Z</time>
      </trkpt>
      <trkpt lat="49.42014" lon="-1.18003">
        <ele>3.4</ele>
        <time>2020-06-15T15:37:05Z</time>
      </trkpt>
      <trkpt lat="49.42011" lon="-1.18">
        <ele>3.5</ele>
        <time>2020-06-15T15:37:06Z</time>
      </trkpt>
      <trkpt lat="49.4201" lon="-1.17999">
        <ele>3.5</ele>
        <time>2020-06-15T15:37:07Z</time>
      </trkpt>
      <trkpt lat="49.4201" lon="-1.17996">
        <ele>3.5</ele>
        <time>2020-06-15T15:37:08Z</time>
      </trkpt>
      <trkpt lat="49.42011" lon="-1.17992">
        <ele>3.3</ele>
        <time>2020-06-15T15:37:09Z</time>
      </trkpt>
      <trkpt lat="49.42011" lon="-1.1799">
        <ele>3.3</ele>
        <time>2020-06-15T15:37:10Z</time>
      </trkpt>
      <trkpt lat="49.42012" lon="-1.17987">
        <ele>3.3</ele>
        <time>2020-06-15T15:37:11Z</time>
      </trkpt>
      <trkpt lat="49.42013" lon="-1.17986">
        <ele>3.3</ele>
        <time>2020-06-15T15:37:12Z</time>
      </trkpt>
      <trkpt lat="49.42014" lon="-1.17985">
        <ele>3.2</ele>
        <time>2020-06-15T15:37:13Z</time>
      </trkpt>
      <trkpt lat="49.42016" lon="-1.17981">
        <ele>3.2</ele>
        <time>2020-06-15T15:37:14Z</time>
      </trkpt>
      <trkpt lat="49.42017" lon="-1.17979">
        <ele>3.2</ele>
        <time>2020-06-15T15:37:15Z</time>
      </trkpt>
      <trkpt lat="49.42018" lon="-1.17974">
        <ele>3.1</ele>
        <time>2020-06-15T15:37:16Z</time>
      </trkpt>
      <trkpt lat="49.42019" lon="-1.17973">
        <ele>3.1</ele>
        <time>2020-06-15T15:37:17Z</time>
      </trkpt>
      <trkpt lat="49.4202" lon="-1.17969">
        <ele>3</ele>
        <time>2020-06-15T15:37:18Z</time>
      </trkpt>
      <trkpt lat="49.42022" lon="-1.17965">
        <ele>3</ele>
        <time>2020-06-15T15:37:19Z</time>
      </trkpt>
      <trkpt lat="49.42024" lon="-1.1796">
        <ele>2.9</ele>
        <time>2020-06-15T15:37:20Z</time>
      </trkpt>
      <trkpt lat="49.42026" lon="-1.17957">
        <ele>2.9</ele>
        <time>2020-06-15T15:37:21Z</time>
      </trkpt>
      <trkpt lat="49.42027" lon="-1.17953">
        <ele>2.8</ele>
        <time>2020-06-15T15:37:22Z</time>
      </trkpt>
      <trkpt lat="49.4203" lon="-1.17949">
        <ele>2.7</ele>
        <time>2020-06-15T15:37:23Z</time>
      </trkpt>
      <trkpt lat="49.42031" lon="-1.17947">
        <ele>2.7</ele>
        <time>2020-06-15T15:37:24Z</time>
      </trkpt>
      <trkpt lat="49.42033" lon="-1.17942">
        <ele>2.6</ele>
        <time>2020-06-15T15:37:25Z</time>
      </trkpt>
      <trkpt lat="49.42034" lon="-1.17939">
        <ele>2.5</ele>
        <time>2020-06-15T15:37:26Z</time>
      </trkpt>
      <trkpt lat="49.42035" lon="-1.17937">
        <ele>2.5</ele>
        <time>2020-06-15T15:37:27Z</time>
      </trkpt>
      <trkpt lat="49.42037" lon="-1.17933">
        <ele>2.4</ele>
        <time>2020-06-15T15:37:28Z</time>
      </trkpt>
      <trkpt lat="49.42038" lon="-1.17932">
        <ele>2.3</ele>
        <time>2020-06-15T15:37:29Z</time>
      </trkpt>
      <trkpt lat="49.4204" lon="-1.17928">
        <ele>2.2</ele>
        <time>2020-06-15T15:37:30Z</time>
      </trkpt>
      <trkpt lat="49.42042" lon="-1.17923">
        <ele>2</ele>
        <time>2020-06-15T15:37:31Z</time>
      </trkpt>
      <trkpt lat="49.42043" lon="-1.1792">
        <ele>2</ele>
        <time>2020-06-15T15:37:32Z</time>
      </trkpt>
      <trkpt lat="49.42044" lon="-1.17916">
        <ele>1.8</ele>
        <time>2020-06-15T15:37:33Z</time>
      </trkpt>
      <trkpt lat="49.42044" lon="-1.17914">
        <ele>1.7</ele>
        <time>2020-06-15T15:37:34Z</time>
      </trkpt>
      <trkpt lat="49.42047" lon="-1.1791">
        <ele>1.6</ele>
        <time>2020-06-15T15:37:35Z</time>
      </trkpt>
      <trkpt lat="49.42048" lon="-1.17909">
        <ele>1.5</ele>
        <time>2020-06-15T15:37:36Z</time>
      </trkpt>
      <trkpt lat="49.42049" lon="-1.17908">
        <ele>1.4</ele>
        <time>2020-06-15T15:37:37Z</time>
      </trkpt>
      <trkpt lat="49.4205" lon="-1.17907">
        <ele>1.3</ele>
        <time>2020-06-15T15:37:38Z</time>
      </trkpt>
      <trkpt lat="49.42051" lon="-1.17906">
        <ele>1.3</ele>
        <time>2020-06-15T15:37:39Z</time>
      </trkpt>
      <trkpt lat="49.42051" lon="-1.17903">
        <ele>1.1</ele>
        <time>2020-06-15T15:37:40Z</time>
      </trkpt>
      <trkpt lat="49.42052" lon="-1.17901">
        <ele>1</ele>
        <time>2020-06-15T15:37:41Z</time>
      </trkpt>
      <trkpt lat="49.42053" lon="-1.179">
        <ele>1</ele>
        <time>2020-06-15T15:37:42Z</time>
      </trkpt>
      <trkpt lat="49.42054" lon="-1.17897">
        <ele>0.8</ele>
        <time>2020-06-15T15:37:43Z</time>
      </trkpt>
      <trkpt lat="49.42054" lon="-1.17895">
        <ele>0.7</ele>
        <time>2020-06-15T15:37:44Z</time>
      </trkpt>
      <trkpt lat="49.42055" lon="-1.17892">
        <ele>0.6</ele>
        <time>2020-06-15T15:37:45Z</time>
      </trkpt>
      <trkpt lat="49.42055" lon="-1.17891">
        <ele>0.6</ele>
        <time>2020-06-15T15:37:46Z</time>
      </trkpt>
      <trkpt lat="49.42055" lon="-1.17892">
        <ele>0.5</ele>
        <time>2020-06-15T15:37:47Z</time>
      </trkpt>
      <trkpt lat="49.42054" lon="-1.17892">
        <ele>0.5</ele>
        <time>2020-06-15T15:37:48Z</time>
      </trkpt>
      <trkpt lat="49.42054" lon="-1.17894">
        <ele>0.5</ele>
        <time>2020-06-15T15:37:49Z</time>
      </trkpt>
      <trkpt lat="49.42054" lon="-1.17894">
        <ele>0.4</ele>
        <time>2020-06-15T15:37:50Z</time>
      </trkpt>
      <trkpt lat="49.42054" lon="-1.17895">
        <ele>0.4</ele>
        <time>2020-06-15T15:37:51Z</time>
      </trkpt>
      <trkpt lat="49.42053" lon="-1.17896">
        <ele>0.3</ele>
        <time>2020-06-15T15:37:52Z</time>
      </trkpt>
      <trkpt lat="49.42054" lon="-1.17897">
        <ele>0.3</ele>
        <time>2020-06-15T15:37:53Z</time>
      </trkpt>
      <trkpt lat="49.42054" lon="-1.17896">
        <ele>0.3</ele>
        <time>2020-06-15T15:37:54Z</time>
      </trkpt>
      <trkpt lat="49.42053" lon="-1.17898">
        <ele>0.2</ele>
        <time>2020-06-15T15:37:55Z</time>
      </trkpt>
      <trkpt lat="49.42055" lon="-1.17896">
        <ele>0.1</ele>
        <time>2020-06-15T15:37:56Z</time>
      </trkpt>
      <trkpt lat="49.42055" lon="-1.17896">
        <ele>0.1</ele>
        <time>2020-06-15T15:37:57Z</time>
      </trkpt>
      <trkpt lat="49.42055" lon="-1.17896">
        <ele>6</ele>
        <time>2020-06-15T15:37:58Z</time>
      </trkpt>
      <trkpt lat="49.42055" lon="-1.17896">
        <ele>6</ele>
        <time>2020-06-15T15:37:59Z</time>
      </trkpt>
      <trkpt lat="49.42047" lon="-1.17915">
        <ele>0.4</ele>
        <time>2020-06-15T15:38:55Z</time>
      </trkpt>
      <trkpt lat="49.42046" lon="-1.17917">
        <ele>0.5</ele>
        <time>2020-06-15T15:38:56Z</time>
      </trkpt>
      <trkpt lat="49.42045" lon="-1.17921">
        <ele>0.7</ele>
        <time>2020-06-15T15:38:57Z</time>
      </trkpt>
      <trkpt lat="49.42044" lon="-1.17922">
        <ele>0.8</ele>
        <time>2020-06-15T15:38:58Z</time>
      </trkpt>
      <trkpt lat="49.42042" lon="-1.17925">
        <ele>1.1</ele>
        <time>2020-06-15T15:38:59Z</time>
      </trkpt>
      <trkpt lat="49.42041" lon="-1.17926">
        <ele>1.2</ele>
        <time>2020-06-15T15:39:00Z</time>
      </trkpt>
      <trkpt lat="49.4204" lon="-1.1793">
        <ele>1.4</ele>
        <time>2020-06-15T15:39:01Z</time>
      </trkpt>
      <trkpt lat="49.42039" lon="-1.17932">
        <ele>1.5</ele>
        <time>2020-06-15T15:39:02Z</time>
      </trkpt>
      <trkpt lat="49.42038" lon="-1.17937">
        <ele>1.8</ele>
        <time>2020-06-15T15:39:03Z</time>
      </trkpt>
      <trkpt lat="49.42037" lon="-1.17938">
        <ele>1.8</ele>
        <time>2020-06-15T15:39:04Z</time>
      </trkpt>
      <trkpt lat="49.42035" lon="-1.17942">
        <ele>2</ele>
        <time>2020-06-15T15:39:05Z</time>
      </trkpt>
      <trkpt lat="49.42033" lon="-1.17945">
        <ele>2.2</ele>
        <time>2020-06-15T15:39:06Z</time>
      </trkpt>
      <trkpt lat="49.42032" lon="-1.17949">
        <ele>2.3</ele>
        <time>2020-06-15T15:39:07Z</time>
      </trkpt>
      <trkpt lat="49.4203" lon="-1.17954">
        <ele>2.5</ele>
        <time>2020-06-15T15:39:08Z</time>
      </trkpt>
      <trkpt lat="49.42029" lon="-1.17956">
        <ele>2.5</ele>
        <time>2020-06-15T15:39:09Z</time>
      </trkpt>
      <trkpt lat="49.42028" lon="-1.17959">
        <ele>2.6</ele>
        <time>2020-06-15T15:39:10Z</time>
      </trkpt>
      <trkpt lat="49.42026" lon="-1.17963">
        <ele>2.7</ele>
        <time>2020-06-15T15:39:11Z</time>
      </trkpt>
      <trkpt lat="49.42024" lon="-1.17967">
        <ele>2.8</ele>
        <time>2020-06-15T15:39:12Z</time>
      </trkpt>
      <trkpt lat="49.42023" lon="-1.17972">
        <ele>2.9</ele>
        <time>2020-06-15T15:39:13Z</time>
      </trkpt>
      <trkpt lat="49.42022" lon="-1.17977">
        <ele>3</ele>
        <time>2020-06-15T15:39:14Z</time>
      </trkpt>
      <trkpt lat="49.42019" lon="-1.17982">
        <ele>3.1</ele>
        <time>2020-06-15T15:39:15Z</time>
      </trkpt>
      <trkpt lat="49.42016" lon="-1.17986">
        <ele>3.2</ele>
        <time>2020-06-15T15:39:16Z</time>
      </trkpt>
      <trkpt lat="49.42013" lon="-1.17991">
        <ele>3.3</ele>
        <time>2020-06-15T15:39:17Z</time>
      </trkpt>
      <trkpt lat="49.4201" lon="-1.17995">
        <ele>3.4</ele>
        <time>2020-06-15T15:39:18Z</time>
      </trkpt>
      <trkpt lat="49.42007" lon="-1.17996">
        <ele>3.4</ele>
        <time>2020-06-15T15:39:19Z</time>
      </trkpt>
      <trkpt lat="49.42006" lon="-1.17996">
        <ele>3.4</ele>
        <time>2020-06-15T15:39:20Z</time>
      </trkpt>
      <trkpt lat="49.42004" lon="-1.17995">
        <ele>3.4</ele>
        <time>2020-06-15T15:39:21Z</time>
      </trkpt>
      <trkpt lat="49.42002" lon="-1.17994">
        <ele>3.3</ele>
        <time>2020-06-15T15:39:22Z</time>
      </trkpt>
      <trkpt lat="49.42001" lon="-1.17992">
        <ele>3.3</ele>
        <time>2020-06-15T15:39:23Z</time>
      </trkpt>
      <trkpt lat="49.42" lon="-1.1799">
        <ele>3.3</ele>
        <time>2020-06-15T15:39:24Z</time>
      </trkpt>
      <trkpt lat="49.41999" lon="-1.17988">
        <ele>3.3</ele>
        <time>2020-06-15T15:39:25Z</time>
      </trkpt>
      <trkpt lat="49.41998" lon="-1.17985">
        <ele>3.3</ele>
        <time>2020-06-15T15:39:26Z</time>
      </trkpt>
      <trkpt lat="49.41997" lon="-1.17984">
        <ele>3.3</ele>
        <time>2020-06-15T15:39:27Z</time>
      </trkpt>
      <trkpt lat="49.41996" lon="-1.17983">
        <ele>3.3</ele>
        <time>2020-06-15T15:39:28Z</time>
      </trkpt>
      <trkpt lat="49.41995" lon="-1.17982">
        <ele>3.3</ele>
        <time>2020-06-15T15:39:29Z</time>
      </trkpt>
      <trkpt lat="49.41994" lon="-1.17981">
        <ele>3.3</ele>
        <time>2020-06-15T15:39:30Z</time>
      </trkpt>
      <trkpt lat="49.41993" lon="-1.1798">
        <ele>3.3</ele>
        <time>2020-06-15T15:39:31Z</time>
      </trkpt>
      <trkpt lat="49.41991" lon="-1.17978">
        <ele>3.3</ele>
        <time>2020-06-15T15:39:32Z</time>
      </trkpt>
      <trkpt lat="49.41989" lon="-1.17975">
        <ele>3.3</ele>
        <time>2020-06-15T15:39:33Z</time>
      </trkpt>
      <trkpt lat="49.41987" lon="-1.17974">
        <ele>3.3</ele>
        <time>2020-06-15T15:39:34Z</time>
      </trkpt>
      <trkpt lat="49.41984" lon="-1.17972">
        <ele>3.3</ele>
        <time>2020-06-15T15:39:35Z</time>
      </trkpt>
      <trkpt lat="49.41982" lon="-1.17971">
        <ele>3.3</ele>
        <time>2020-06-15T15:39:36Z</time>
      </trkpt>
      <trkpt lat="49.41979" lon="-1.17968">
        <ele>3.3</ele>
        <time>2020-06-15T15:39:37Z</time>
      </trkpt>
      <trkpt lat="49.41978" lon="-1.17967">
        <ele>3.3</ele>
        <time>2020-06-15T15:39:38Z</time>
      </trkpt>
      <trkpt lat="49.41975" lon="-1.17965">
        <ele>3.4</ele>
        <time>2020-06-15T15:39:39Z</time>
      </trkpt>
      <trkpt lat="49.41974" lon="-1.17964">
        <ele>3.4</ele>
        <time>2020-06-15T15:39:40Z</time>
      </trkpt>
      <trkpt lat="49.4197" lon="-1.17964">
        <ele>3.4</ele>
        <time>2020-06-15T15:39:41Z</time>
      </trkpt>
      <trkpt lat="49.41967" lon="-1.17962">
        <ele>3.4</ele>
        <time>2020-06-15T15:39:42Z</time>
      </trkpt>
      <trkpt lat="49.41963" lon="-1.17961">
        <ele>3.4</ele>
        <time>2020-06-15T15:39:43Z</time>
      </trkpt>
      <trkpt lat="49.41959" lon="-1.17956">
        <ele>3.5</ele>
        <time>2020-06-15T15:39:44Z</time>
      </trkpt>
      <trkpt lat="49.41956" lon="-1.17952">
        <ele>3.5</ele>
        <time>2020-06-15T15:39:45Z</time>
      </trkpt>
      <trkpt lat="49.41953" lon="-1.17948">
        <ele>3.5</ele>
        <time>2020-06-15T15:39:46Z</time>
      </trkpt>
      <trkpt lat="49.41948" lon="-1.17946">
        <ele>3.5</ele>
        <time>2020-06-15T15:39:47Z</time>
      </trkpt>
      <trkpt lat="49.41944" lon="-1.17942">
        <ele>3.5</ele>
        <time>2020-06-15T15:39:48Z</time>
      </trkpt>
      <trkpt lat="49.41941" lon="-1.17939">
        <ele>3.5</ele>
        <time>2020-06-15T15:39:49Z</time>
      </trkpt>
      <trkpt lat="49.41938" lon="-1.17935">
        <ele>3.5</ele>
        <time>2020-06-15T15:39:50Z</time>
      </trkpt>
      <trkpt lat="49.41934" lon="-1.1793">
        <ele>3.5</ele>
        <time>2020-06-15T15:39:51Z</time>
      </trkpt>
      <trkpt lat="49.4193" lon="-1.17925">
        <ele>3.5</ele>
        <time>2020-06-15T15:39:52Z</time>
      </trkpt>
      <trkpt lat="49.41925" lon="-1.17921">
        <ele>3.5</ele>
        <time>2020-06-15T15:39:53Z</time>
      </trkpt>
      <trkpt lat="49.41921" lon="-1.17918">
        <ele>3.5</ele>
        <time>2020-06-15T15:39:54Z</time>
      </trkpt>
      <trkpt lat="49.41916" lon="-1.17914">
        <ele>3.5</ele>
        <time>2020-06-15T15:39:55Z</time>
      </trkpt>
      <trkpt lat="49.41911" lon="-1.1791">
        <ele>3.5</ele>
        <time>2020-06-15T15:39:56Z</time>
      </trkpt>
      <trkpt lat="49.41906" lon="-1.17906">
        <ele>3.5</ele>
        <time>2020-06-15T15:39:57Z</time>
      </trkpt>
      <trkpt lat="49.41902" lon="-1.17901">
        <ele>3.5</ele>
        <time>2020-06-15T15:39:58Z</time>
      </trkpt>
      <trkpt lat="49.41898" lon="-1.17897">
        <ele>3.5</ele>
        <time>2020-06-15T15:39:59Z</time>
      </trkpt>
      <trkpt lat="49.41893" lon="-1.17893">
        <ele>3.6</ele>
        <time>2020-06-15T15:40:00Z</time>
      </trkpt>
      <trkpt lat="49.41888" lon="-1.17888">
        <ele>3.6</ele>
        <time>2020-06-15T15:40:01Z</time>
      </trkpt>
      <trkpt lat="49.41883" lon="-1.17884">
        <ele>3.6</ele>
        <time>2020-06-15T15:40:02Z</time>
      </trkpt>
      <trkpt lat="49.41878" lon="-1.1788">
        <ele>3.6</ele>
        <time>2020-06-15T15:40:03Z</time>
      </trkpt>
      <trkpt lat="49.41874" lon="-1.17875">
        <ele>3.6</ele>
        <time>2020-06-15T15:40:04Z</time>
      </trkpt>
      <trkpt lat="49.4187" lon="-1.1787">
        <ele>3.7</ele>
        <time>2020-06-15T15:40:05Z</time>
      </trkpt>
      <trkpt lat="49.41865" lon="-1.17866">
        <ele>3.7</ele>
        <time>2020-06-15T15:40:06Z</time>
      </trkpt>
      <trkpt lat="49.41861" lon="-1.17862">
        <ele>3.7</ele>
        <time>2020-06-15T15:40:07Z</time>
      </trkpt>
      <trkpt lat="49.41855" lon="-1.17858">
        <ele>3.6</ele>
        <time>2020-06-15T15:40:08Z</time>
      </trkpt>
      <trkpt lat="49.41851" lon="-1.17853">
        <ele>3.6</ele>
        <time>2020-06-15T15:40:09Z</time>
      </trkpt>
      <trkpt lat="49.41846" lon="-1.17849">
        <ele>3.6</ele>
        <time>2020-06-15T15:40:10Z</time>
      </trkpt>
      <trkpt lat="49.41841" lon="-1.17844">
        <ele>3.6</ele>
        <time>2020-06-15T15:40:11Z</time>
      </trkpt>
      <trkpt lat="49.41836" lon="-1.17839">
        <ele>3.6</ele>
        <time>2020-06-15T15:40:12Z</time>
      </trkpt>
      <trkpt lat="49.41831" lon="-1.17834">
        <ele>3.6</ele>
        <time>2020-06-15T15:40:13Z</time>
      </trkpt>
      <trkpt lat="49.41827" lon="-1.17828">
        <ele>3.6</ele>
        <time>2020-06-15T15:40:14Z</time>
      </trkpt>
      <trkpt lat="49.41822" lon="-1.17824">
        <ele>3.6</ele>
        <time>2020-06-15T15:40:15Z</time>
      </trkpt>
      <trkpt lat="49.41817" lon="-1.1782">
        <ele>3.6</ele>
        <time>2020-06-15T15:40:16Z</time>
      </trkpt>
      <trkpt lat="49.41812" lon="-1.17816">
        <ele>3.6</ele>
        <time>2020-06-15T15:40:17Z</time>
      </trkpt>
      <trkpt lat="49.41807" lon="-1.17812">
        <ele>3.6</ele>
        <time>2020-06-15T15:40:18Z</time>
      </trkpt>
      <trkpt lat="49.41802" lon="-1.17807">
        <ele>3.6</ele>
        <time>2020-06-15T15:40:19Z</time>
      </trkpt>
      <trkpt lat="49.41798" lon="-1.17802">
        <ele>3.6</ele>
        <time>2020-06-15T15:40:20Z</time>
      </trkpt>
      <trkpt lat="49.41793" lon="-1.17798">
        <ele>3.6</ele>
        <time>2020-06-15T15:40:21Z</time>
      </trkpt>
      <trkpt lat="49.41789" lon="-1.17793">
        <ele>3.6</ele>
        <time>2020-06-15T15:40:22Z</time>
      </trkpt>
      <trkpt lat="49.41784" lon="-1.17787">
        <ele>3.5</ele>
        <time>2020-06-15T15:40:23Z</time>
      </trkpt>
      <trkpt lat="49.41779" lon="-1.17782">
        <ele>3.5</ele>
        <time>2020-06-15T15:40:24Z</time>
      </trkpt>
      <trkpt lat="49.41773" lon="-1.17777">
        <ele>3.5</ele>
        <time>2020-06-15T15:40:25Z</time>
      </trkpt>
      <trkpt lat="49.41768" lon="-1.17772">
        <ele>3.5</ele>
        <time>2020-06-15T15:40:26Z</time>
      </trkpt>
      <trkpt lat="49.41763" lon="-1.17768">
        <ele>3.4</ele>
        <time>2020-06-15T15:40:27Z</time>
      </trkpt>
      <trkpt lat="49.41759" lon="-1.17763">
        <ele>3.4</ele>
        <time>2020-06-15T15:40:28Z</time>
      </trkpt>
      <trkpt lat="49.41754" lon="-1.17759">
        <ele>3.4</ele>
        <time>2020-06-15T15:40:29Z</time>
      </trkpt>
      <trkpt lat="49.41749" lon="-1.17755">
        <ele>3.4</ele>
        <time>2020-06-15T15:40:30Z</time>
      </trkpt>
      <trkpt lat="49.41744" lon="-1.1775">
        <ele>3.4</ele>
        <time>2020-06-15T15:40:31Z</time>
      </trkpt>
      <trkpt lat="49.41739" lon="-1.17746">
        <ele>3.4</ele>
        <time>2020-06-15T15:40:32Z</time>
      </trkpt>
      <trkpt lat="49.41735" lon="-1.17741">
        <ele>3.4</ele>
        <time>2020-06-15T15:40:33Z</time>
      </trkpt>
      <trkpt lat="49.4173" lon="-1.17738">
        <ele>3.4</ele>
        <time>2020-06-15T15:40:34Z</time>
      </trkpt>
      <trkpt lat="49.41725" lon="-1.17733">
        <ele>3.4</ele>
        <time>2020-06-15T15:40:35Z</time>
      </trkpt>
      <trkpt lat="49.41721" lon="-1.1773">
        <ele>3.5</ele>
        <time>2020-06-15T15:40:36Z</time>
      </trkpt>
      <trkpt lat="49.41716" lon="-1.17727">
        <ele>3.5</ele>
        <time>2020-06-15T15:40:37Z</time>
      </trkpt>
      <trkpt lat="49.41712" lon="-1.17722">
        <ele>3.5</ele>
        <time>2020-06-15T15:40:38Z</time>
      </trkpt>
      <trkpt lat="49.41708" lon="-1.17717">
        <ele>3.5</ele>
        <time>2020-06-15T15:40:39Z</time>
      </trkpt>
      <trkpt lat="49.41704" lon="-1.17713">
        <ele>3.5</ele>
        <time>2020-06-15T15:40:40Z</time>
      </trkpt>
      <trkpt lat="49.41699" lon="-1.17708">
        <ele>3.4</ele>
        <time>2020-06-15T15:40:41Z</time>
      </trkpt>
      <trkpt lat="49.41695" lon="-1.17704">
        <ele>3.4</ele>
        <time>2020-06-15T15:40:42Z</time>
      </trkpt>
      <trkpt lat="49.41691" lon="-1.17698">
        <ele>3.4</ele>
        <time>2020-06-15T15:40:43Z</time>
      </trkpt>
      <trkpt lat="49.41687" lon="-1.17694">
        <ele>3.4</ele>
        <time>2020-06-15T15:40:44Z</time>
      </trkpt>
      <trkpt lat="49.41682" lon="-1.1769">
        <ele>3.4</ele>
        <time>2020-06-15T15:40:45Z</time>
      </trkpt>
      <trkpt lat="49.41677" lon="-1.17687">
        <ele>3.4</ele>
        <time>2020-06-15T15:40:46Z</time>
      </trkpt>
      <trkpt lat="49.41672" lon="-1.17682">
        <ele>3.5</ele>
        <time>2020-06-15T15:40:47Z</time>
      </trkpt>
      <trkpt lat="49.41668" lon="-1.17678">
        <ele>3.5</ele>
        <time>2020-06-15T15:40:48Z</time>
      </trkpt>
      <trkpt lat="49.41664" lon="-1.17674">
        <ele>3.5</ele>
        <time>2020-06-15T15:40:49Z</time>
      </trkpt>
      <trkpt lat="49.41659" lon="-1.17673">
        <ele>3.4</ele>
        <time>2020-06-15T15:40:50Z</time>
      </trkpt>
      <trkpt lat="49.41654" lon="-1.17673">
        <ele>3.4</ele>
        <time>2020-06-15T15:40:51Z</time>
      </trkpt>
      <trkpt lat="49.4165" lon="-1.17673">
        <ele>3.4</ele>
        <time>2020-06-15T15:40:52Z</time>
      </trkpt>
      <trkpt lat="49.41646" lon="-1.17673">
        <ele>3.4</ele>
        <time>2020-06-15T15:40:53Z</time>
      </trkpt>
      <trkpt lat="49.41642" lon="-1.17673">
        <ele>3.4</ele>
        <time>2020-06-15T15:40:54Z</time>
      </trkpt>
      <trkpt lat="49.41642" lon="-1.17673">
        <ele>3.4</ele>
        <time>2020-06-15T15:40:55Z</time>
      </trkpt>
      <trkpt lat="49.4164" lon="-1.17672">
        <ele>3.4</ele>
        <time>2020-06-15T15:40:56Z</time>
      </trkpt>
      <trkpt lat="49.41639" lon="-1.17669">
        <ele>3.4</ele>
        <time>2020-06-15T15:40:57Z</time>
      </trkpt>
      <trkpt lat="49.41639" lon="-1.17665">
        <ele>3.5</ele>
        <time>2020-06-15T15:40:58Z</time>
      </trkpt>
      <trkpt lat="49.41639" lon="-1.17663">
        <ele>3.5</ele>
        <time>2020-06-15T15:40:59Z</time>
      </trkpt>
      <trkpt lat="49.4164" lon="-1.17657">
        <ele>3.6</ele>
        <time>2020-06-15T15:41:00Z</time>
      </trkpt>
      <trkpt lat="49.41641" lon="-1.17654">
        <ele>3.7</ele>
        <time>2020-06-15T15:41:01Z</time>
      </trkpt>
      <trkpt lat="49.41641" lon="-1.17648">
        <ele>3.8</ele>
        <time>2020-06-15T15:41:02Z</time>
      </trkpt>
      <trkpt lat="49.4164" lon="-1.17646">
        <ele>3.8</ele>
        <time>2020-06-15T15:41:03Z</time>
      </trkpt>
      <trkpt lat="49.41639" lon="-1.17641">
        <ele>3.9</ele>
        <time>2020-06-15T15:41:04Z</time>
      </trkpt>
      <trkpt lat="49.41638" lon="-1.17636">
        <ele>4</ele>
        <time>2020-06-15T15:41:05Z</time>
      </trkpt>
      <trkpt lat="49.41636" lon="-1.17633">
        <ele>4.1</ele>
        <time>2020-06-15T15:41:06Z</time>
      </trkpt>
      <trkpt lat="49.41634" lon="-1.17629">
        <ele>4.1</ele>
        <time>2020-06-15T15:41:07Z</time>
      </trkpt>
      <trkpt lat="49.41631" lon="-1.17626">
        <ele>4.2</ele>
        <time>2020-06-15T15:41:08Z</time>
      </trkpt>
      <trkpt lat="49.4163" lon="-1.17624">
        <ele>4.2</ele>
        <time>2020-06-15T15:41:09Z</time>
      </trkpt>
      <trkpt lat="49.41628" lon="-1.17622">
        <ele>4.2</ele>
        <time>2020-06-15T15:41:10Z</time>
      </trkpt>
      <trkpt lat="49.41626" lon="-1.17618">
        <ele>4.3</ele>
        <time>2020-06-15T15:41:11Z</time>
      </trkpt>
      <trkpt lat="49.41625" lon="-1.17617">
        <ele>4.3</ele>
        <time>2020-06-15T15:41:12Z</time>
      </trkpt>
      <trkpt lat="49.41624" lon="-1.17615">
        <ele>4.3</ele>
        <time>2020-06-15T15:41:13Z</time>
      </trkpt>
      <trkpt lat="49.41623" lon="-1.17615">
        <ele>4.3</ele>
        <time>2020-06-15T15:41:14Z</time>
      </trkpt>
      <trkpt lat="49.41623" lon="-1.17614">
        <ele>4.3</ele>
        <time>2020-06-15T15:41:15Z</time>
      </trkpt>
      <trkpt lat="49.41624" lon="-1.17615">
        <ele>4.3</ele>
        <time>2020-06-15T15:41:16Z</time>
      </trkpt>
      <trkpt lat="49.41624" lon="-1.17615">
        <ele>4.3</ele>
        <time>2020-06-15T15:41:17Z</time>
      </trkpt>
      <trkpt lat="49.41623" lon="-1.17615">
        <ele>4.3</ele>
        <time>2020-06-15T15:41:18Z</time>
      </trkpt>
      <trkpt lat="49.41624" lon="-1.17615">
        <ele>4.3</ele>
        <time>2020-06-15T15:41:19Z</time>
      </trkpt>
      <trkpt lat="49.41624" lon="-1.17615">
        <ele>4.3</ele>
        <time>2020-06-15T15:41:20Z</time>
      </trkpt>
      <trkpt lat="49.41624" lon="-1.17616">
        <ele>4.3</ele>
        <time>2020-06-15T15:41:21Z</time>
      </trkpt>
      <trkpt lat="49.41624" lon="-1.17615">
        <ele>4.3</ele>
        <time>2020-06-15T15:41:22Z</time>
      </trkpt>
      <trkpt lat="49.41624" lon="-1.17612">
        <ele>4.4</ele>
        <time>2020-06-15T15:41:23Z</time>
      </trkpt>
      <trkpt lat="49.41623" lon="-1.1761">
        <ele>4.4</ele>
        <time>2020-06-15T15:41:24Z</time>
      </trkpt>
      <trkpt lat="49.41624" lon="-1.17609">
        <ele>4.5</ele>
        <time>2020-06-15T15:41:25Z</time>
      </trkpt>
      <trkpt lat="49.41626" lon="-1.17608">
        <ele>4.5</ele>
        <time>2020-06-15T15:41:26Z</time>
      </trkpt>
      <trkpt lat="49.41626" lon="-1.17607">
        <ele>4.5</ele>
        <time>2020-06-15T15:41:27Z</time>
      </trkpt>
      <trkpt lat="49.41627" lon="-1.17606">
        <ele>4.5</ele>
        <time>2020-06-15T15:41:28Z</time>
      </trkpt>
      <trkpt lat="49.41629" lon="-1.17605">
        <ele>4.6</ele>
        <time>2020-06-15T15:41:29Z</time>
      </trkpt>
      <trkpt lat="49.4163" lon="-1.17604">
        <ele>4.6</ele>
        <time>2020-06-15T15:41:30Z</time>
      </trkpt>
      <trkpt lat="49.4163" lon="-1.17603">
        <ele>4.6</ele>
        <time>2020-06-15T15:41:31Z</time>
      </trkpt>
      <trkpt lat="49.41632" lon="-1.17601">
        <ele>4.7</ele>
        <time>2020-06-15T15:41:32Z</time>
      </trkpt>
      <trkpt lat="49.41632" lon="-1.17599">
        <ele>4.7</ele>
        <time>2020-06-15T15:41:33Z</time>
      </trkpt>
      <trkpt lat="49.41633" lon="-1.17598">
        <ele>4.7</ele>
        <time>2020-06-15T15:41:34Z</time>
      </trkpt>
      <trkpt lat="49.41633" lon="-1.17596">
        <ele>4.9</ele>
        <time>2020-06-15T15:41:35Z</time>
      </trkpt>
      <trkpt lat="49.41633" lon="-1.17596">
        <ele>4.9</ele>
        <time>2020-06-15T15:41:36Z</time>
      </trkpt>
      <trkpt lat="49.41632" lon="-1.17595">
        <ele>4.9</ele>
        <time>2020-06-15T15:41:37Z</time>
      </trkpt>
      <trkpt lat="49.41633" lon="-1.17592">
        <ele>5</ele>
        <time>2020-06-15T15:41:38Z</time>
      </trkpt>
      <trkpt lat="49.41634" lon="-1.1759">
        <ele>5</ele>
        <time>2020-06-15T15:41:39Z</time>
      </trkpt>
      <trkpt lat="49.41633" lon="-1.1759">
        <ele>5</ele>
        <time>2020-06-15T15:41:40Z</time>
      </trkpt>
      <trkpt lat="49.41635" lon="-1.17587">
        <ele>5.2</ele>
        <time>2020-06-15T15:41:41Z</time>
      </trkpt>
      <trkpt lat="49.41636" lon="-1.17587">
        <ele>5.2</ele>
        <time>2020-06-15T15:41:42Z</time>
      </trkpt>
      <trkpt lat="49.41636" lon="-1.17586">
        <ele>5.3</ele>
        <time>2020-06-15T15:41:43Z</time>
      </trkpt>
      <trkpt lat="49.41636" lon="-1.17586">
        <ele>5.2</ele>
        <time>2020-06-15T15:41:44Z</time>
      </trkpt>
      <trkpt lat="49.41637" lon="-1.17584">
        <ele>5.3</ele>
        <time>2020-06-15T15:41:45Z</time>
      </trkpt>
      <trkpt lat="49.41638" lon="-1.17583">
        <ele>5.5</ele>
        <time>2020-06-15T15:41:46Z</time>
      </trkpt>
      <trkpt lat="49.41639" lon="-1.17581">
        <ele>5.5</ele>
        <time>2020-06-15T15:41:47Z</time>
      </trkpt>
      <trkpt lat="49.4164" lon="-1.17579">
        <ele>5.7</ele>
        <time>2020-06-15T15:41:48Z</time>
      </trkpt>
      <trkpt lat="49.41642" lon="-1.17578">
        <ele>5.7</ele>
        <time>2020-06-15T15:41:49Z</time>
      </trkpt>
      <trkpt lat="49.41642" lon="-1.17577">
        <ele>5.8</ele>
        <time>2020-06-15T15:41:50Z</time>
      </trkpt>
      <trkpt lat="49.41643" lon="-1.17576">
        <ele>5.8</ele>
        <time>2020-06-15T15:41:51Z</time>
      </trkpt>
      <trkpt lat="49.41643" lon="-1.17575">
        <ele>5.8</ele>
        <time>2020-06-15T15:41:52Z</time>
      </trkpt>
      <trkpt lat="49.41644" lon="-1.17575">
        <ele>5.8</ele>
        <time>2020-06-15T15:41:53Z</time>
      </trkpt>
      <trkpt lat="49.41644" lon="-1.17576">
        <ele>5.8</ele>
        <time>2020-06-15T15:41:54Z</time>
      </trkpt>
      <trkpt lat="49.41645" lon="-1.17575">
        <ele>5.9</ele>
        <time>2020-06-15T15:41:55Z</time>
      </trkpt>
      <trkpt lat="49.41644" lon="-1.17575">
        <ele>5.8</ele>
        <time>2020-06-15T15:41:56Z</time>
      </trkpt>
      <trkpt lat="49.41644" lon="-1.17575">
        <ele>5.8</ele>
        <time>2020-06-15T15:41:57Z</time>
      </trkpt>
      <trkpt lat="49.41645" lon="-1.17576">
        <ele>5.9</ele>
        <time>2020-06-15T15:41:58Z</time>
      </trkpt>
      <trkpt lat="49.41645" lon="-1.17574">
        <ele>5.8</ele>
        <time>2020-06-15T15:41:59Z</time>
      </trkpt>
      <trkpt lat="49.41645" lon="-1.17576">
        <ele>5.9</ele>
        <time>2020-06-15T15:42:00Z</time>
      </trkpt>
      <trkpt lat="49.41646" lon="-1.17577">
        <ele>5.9</ele>
        <time>2020-06-15T15:42:01Z</time>
      </trkpt>
      <trkpt lat="49.41646" lon="-1.17576">
        <ele>5.9</ele>
        <time>2020-06-15T15:42:02Z</time>
      </trkpt>
      <trkpt lat="49.41646" lon="-1.17575">
        <ele>5.9</ele>
        <time>2020-06-15T15:42:03Z</time>
      </trkpt>
      <trkpt lat="49.41645" lon="-1.17574">
        <ele>5.8</ele>
        <time>2020-06-15T15:42:04Z</time>
      </trkpt>
      <trkpt lat="49.41645" lon="-1.17574">
        <ele>5.8</ele>
        <time>2020-06-15T15:42:05Z</time>
      </trkpt>
      <trkpt lat="49.41644" lon="-1.17573">
        <ele>5.8</ele>
        <time>2020-06-15T15:42:06Z</time>
      </trkpt>
      <trkpt lat="49.41644" lon="-1.17574">
        <ele>5.8</ele>
        <time>2020-06-15T15:42:07Z</time>
      </trkpt>
      <trkpt lat="49.41644" lon="-1.17573">
        <ele>5.8</ele>
        <time>2020-06-15T15:42:08Z</time>
      </trkpt>
      <trkpt lat="49.41644" lon="-1.17573">
        <ele>5.8</ele>
        <time>2020-06-15T15:42:09Z</time>
      </trkpt>
      <trkpt lat="49.41644" lon="-1.17573">
        <ele>5.8</ele>
        <time>2020-06-15T15:42:10Z</time>
      </trkpt>
      <trkpt lat="49.41644" lon="-1.17573">
        <ele>5.8</ele>
        <time>2020-06-15T15:42:11Z</time>
      </trkpt>
      <trkpt lat="49.41644" lon="-1.17573">
        <ele>5.8</ele>
        <time>2020-06-15T15:42:12Z</time>
      </trkpt>
      <trkpt lat="49.41644" lon="-1.17573">
        <ele>5.8</ele>
        <time>2020-06-15T15:42:13Z</time>
      </trkpt>
      <trkpt lat="49.41644" lon="-1.17573">
        <ele>5.8</ele>
        <time>2020-06-15T15:42:14Z</time>
      </trkpt>
      <trkpt lat="49.41644" lon="-1.17573">
        <ele>5.8</ele>
        <time>2020-06-15T15:42:15Z</time>
      </trkpt>
      <trkpt lat="49.41644" lon="-1.17573">
        <ele>5.8</ele>
        <time>2020-06-15T15:42:16Z</time>
      </trkpt>
      <trkpt lat="49.41644" lon="-1.17573">
        <ele>5.8</ele>
        <time>2020-06-15T15:42:17Z</time>
      </trkpt>
      <trkpt lat="49.41644" lon="-1.17573">
        <ele>5.8</ele>
        <time>2020-06-15T15:42:18Z</time>
      </trkpt>
      <trkpt lat="49.41599" lon="-1.17548">
        <ele>4.4</ele>
        <time>2020-06-15T15:43:29Z</time>
      </trkpt>
      <trkpt lat="49.41599" lon="-1.17548">
        <ele>4.4</ele>
        <time>2020-06-15T15:43:30Z</time>
      </trkpt>
      <trkpt lat="49.41599" lon="-1.17547">
        <ele>4.4</ele>
        <time>2020-06-15T15:43:31Z</time>
      </trkpt>
      <trkpt lat="49.41598" lon="-1.17547">
        <ele>4.4</ele>
        <time>2020-06-15T15:43:32Z</time>
      </trkpt>
      <trkpt lat="49.41599" lon="-1.17547">
        <ele>4.4</ele>
        <time>2020-06-15T15:43:33Z</time>
      </trkpt>
      <trkpt lat="49.41599" lon="-1.17546">
        <ele>4.4</ele>
        <time>2020-06-15T15:43:34Z</time>
      </trkpt>
      <trkpt lat="49.41598" lon="-1.17545">
        <ele>4.4</ele>
        <time>2020-06-15T15:43:35Z</time>
      </trkpt>
      <trkpt lat="49.41597" lon="-1.17543">
        <ele>4.5</ele>
        <time>2020-06-15T15:43:36Z</time>
      </trkpt>
      <trkpt lat="49.41597" lon="-1.17539">
        <ele>4.5</ele>
        <time>2020-06-15T15:43:37Z</time>
      </trkpt>
      <trkpt lat="49.41597" lon="-1.17539">
        <ele>4.6</ele>
        <time>2020-06-15T15:43:38Z</time>
      </trkpt>
      <trkpt lat="49.41598" lon="-1.17539">
        <ele>4.6</ele>
        <time>2020-06-15T15:43:39Z</time>
      </trkpt>
      <trkpt lat="49.41599" lon="-1.17539">
        <ele>4.6</ele>
        <time>2020-06-15T15:43:40Z</time>
      </trkpt>
      <trkpt lat="49.416" lon="-1.17539">
        <ele>4.6</ele>
        <time>2020-06-15T15:43:41Z</time>
      </trkpt>
      <trkpt lat="49.41601" lon="-1.17539">
        <ele>4.7</ele>
        <time>2020-06-15T15:43:42Z</time>
      </trkpt>
      <trkpt lat="49.41601" lon="-1.17539">
        <ele>4.7</ele>
        <time>2020-06-15T15:43:43Z</time>
      </trkpt>
      <trkpt lat="49.41604" lon="-1.17538">
        <ele>4.8</ele>
        <time>2020-06-15T15:43:44Z</time>
      </trkpt>
      <trkpt lat="49.41605" lon="-1.17538">
        <ele>4.8</ele>
        <time>2020-06-15T15:43:45Z</time>
      </trkpt>
      <trkpt lat="49.41608" lon="-1.17541">
        <ele>5</ele>
        <time>2020-06-15T15:43:46Z</time>
      </trkpt>
      <trkpt lat="49.41611" lon="-1.17541">
        <ele>5.3</ele>
        <time>2020-06-15T15:43:47Z</time>
      </trkpt>
      <trkpt lat="49.41613" lon="-1.17543">
        <ele>5.3</ele>
        <time>2020-06-15T15:43:48Z</time>
      </trkpt>
      <trkpt lat="49.41614" lon="-1.17543">
        <ele>5.3</ele>
        <time>2020-06-15T15:43:49Z</time>
      </trkpt>
      <trkpt lat="49.41615" lon="-1.17544">
        <ele>5.3</ele>
        <time>2020-06-15T15:43:50Z</time>
      </trkpt>
      <trkpt lat="49.41617" lon="-1.17546">
        <ele>5.6</ele>
        <time>2020-06-15T15:43:51Z</time>
      </trkpt>
      <trkpt lat="49.41618" lon="-1.17547">
        <ele>5.6</ele>
        <time>2020-06-15T15:43:52Z</time>
      </trkpt>
      <trkpt lat="49.41618" lon="-1.17548">
        <ele>5.6</ele>
        <time>2020-06-15T15:43:53Z</time>
      </trkpt>
      <trkpt lat="49.41619" lon="-1.17548">
        <ele>5.6</ele>
        <time>2020-06-15T15:43:54Z</time>
      </trkpt>
      <trkpt lat="49.4162" lon="-1.17549">
        <ele>5.6</ele>
        <time>2020-06-15T15:43:55Z</time>
      </trkpt>
      <trkpt lat="49.41621" lon="-1.1755">
        <ele>5.7</ele>
        <time>2020-06-15T15:43:56Z</time>
      </trkpt>
      <trkpt lat="49.41621" lon="-1.1755">
        <ele>5.7</ele>
        <time>2020-06-15T15:43:57Z</time>
      </trkpt>
      <trkpt lat="49.41622" lon="-1.1755">
        <ele>5.7</ele>
        <time>2020-06-15T15:43:58Z</time>
      </trkpt>
      <trkpt lat="49.41623" lon="-1.17552">
        <ele>5.6</ele>
        <time>2020-06-15T15:43:59Z</time>
      </trkpt>
      <trkpt lat="49.41624" lon="-1.17554">
        <ele>5.6</ele>
        <time>2020-06-15T15:44:00Z</time>
      </trkpt>
      <trkpt lat="49.41624" lon="-1.17556">
        <ele>5.5</ele>
        <time>2020-06-15T15:44:01Z</time>
      </trkpt>
      <trkpt lat="49.41625" lon="-1.17558">
        <ele>5.5</ele>
        <time>2020-06-15T15:44:02Z</time>
      </trkpt>
      <trkpt lat="49.41626" lon="-1.17559">
        <ele>5.4</ele>
        <time>2020-06-15T15:44:03Z</time>
      </trkpt>
      <trkpt lat="49.41627" lon="-1.17561">
        <ele>5.4</ele>
        <time>2020-06-15T15:44:04Z</time>
      </trkpt>
      <trkpt lat="49.41627" lon="-1.17563">
        <ele>5.3</ele>
        <time>2020-06-15T15:44:05Z</time>
      </trkpt>
      <trkpt lat="49.4163" lon="-1.17569">
        <ele>5.3</ele>
        <time>2020-06-15T15:44:06Z</time>
      </trkpt>
      <trkpt lat="49.41631" lon="-1.17572">
        <ele>5.4</ele>
        <time>2020-06-15T15:44:07Z</time>
      </trkpt>
      <trkpt lat="49.41632" lon="-1.17576">
        <ele>5.3</ele>
        <time>2020-06-15T15:44:08Z</time>
      </trkpt>
      <trkpt lat="49.41633" lon="-1.17579">
        <ele>5.3</ele>
        <time>2020-06-15T15:44:09Z</time>
      </trkpt>
      <trkpt lat="49.41634" lon="-1.17583">
        <ele>5.4</ele>
        <time>2020-06-15T15:44:10Z</time>
      </trkpt>
      <trkpt lat="49.41635" lon="-1.17586">
        <ele>5.3</ele>
        <time>2020-06-15T15:44:11Z</time>
      </trkpt>
      <trkpt lat="49.41636" lon="-1.17589">
        <ele>5.2</ele>
        <time>2020-06-15T15:44:12Z</time>
      </trkpt>
      <trkpt lat="49.41637" lon="-1.17593">
        <ele>5</ele>
        <time>2020-06-15T15:44:13Z</time>
      </trkpt>
      <trkpt lat="49.41638" lon="-1.17596">
        <ele>5</ele>
        <time>2020-06-15T15:44:14Z</time>
      </trkpt>
      <trkpt lat="49.4164" lon="-1.17603">
        <ele>4.7</ele>
        <time>2020-06-15T15:44:15Z</time>
      </trkpt>
      <trkpt lat="49.41641" lon="-1.17606">
        <ele>4.6</ele>
        <time>2020-06-15T15:44:16Z</time>
      </trkpt>
      <trkpt lat="49.41643" lon="-1.17609">
        <ele>4.6</ele>
        <time>2020-06-15T15:44:17Z</time>
      </trkpt>
      <trkpt lat="49.41644" lon="-1.17613">
        <ele>4.5</ele>
        <time>2020-06-15T15:44:18Z</time>
      </trkpt>
      <trkpt lat="49.41646" lon="-1.17616">
        <ele>4.4</ele>
        <time>2020-06-15T15:44:19Z</time>
      </trkpt>
      <trkpt lat="49.41649" lon="-1.1762">
        <ele>4.4</ele>
        <time>2020-06-15T15:44:20Z</time>
      </trkpt>
      <trkpt lat="49.41651" lon="-1.17624">
        <ele>4.4</ele>
        <time>2020-06-15T15:44:21Z</time>
      </trkpt>
      <trkpt lat="49.41653" lon="-1.17629">
        <ele>4.4</ele>
        <time>2020-06-15T15:44:22Z</time>
      </trkpt>
      <trkpt lat="49.41655" lon="-1.17635">
        <ele>4.3</ele>
        <time>2020-06-15T15:44:23Z</time>
      </trkpt>
      <trkpt lat="49.41656" lon="-1.17641">
        <ele>4.1</ele>
        <time>2020-06-15T15:44:24Z</time>
      </trkpt>
      <trkpt lat="49.41658" lon="-1.17648">
        <ele>4.1</ele>
        <time>2020-06-15T15:44:25Z</time>
      </trkpt>
      <trkpt lat="49.41659" lon="-1.17655">
        <ele>4</ele>
        <time>2020-06-15T15:44:26Z</time>
      </trkpt>
      <trkpt lat="49.41661" lon="-1.17662">
        <ele>3.8</ele>
        <time>2020-06-15T15:44:27Z</time>
      </trkpt>
      <trkpt lat="49.41666" lon="-1.17685">
        <ele>3.4</ele>
        <time>2020-06-15T15:44:31Z</time>
      </trkpt>
      <trkpt lat="49.41669" lon="-1.17695">
        <ele>3.3</ele>
        <time>2020-06-15T15:44:32Z</time>
      </trkpt>
      <trkpt lat="49.4167" lon="-1.17699">
        <ele>3.2</ele>
        <time>2020-06-15T15:44:33Z</time>
      </trkpt>
      <trkpt lat="49.41671" lon="-1.17703">
        <ele>3.2</ele>
        <time>2020-06-15T15:44:34Z</time>
      </trkpt>
      <trkpt lat="49.41673" lon="-1.17711">
        <ele>3</ele>
        <time>2020-06-15T15:44:35Z</time>
      </trkpt>
      <trkpt lat="49.41674" lon="-1.17713">
        <ele>3</ele>
        <time>2020-06-15T15:44:36Z</time>
      </trkpt>
      <trkpt lat="49.41676" lon="-1.17718">
        <ele>2.9</ele>
        <time>2020-06-15T15:44:37Z</time>
      </trkpt>
      <trkpt lat="49.41677" lon="-1.1772">
        <ele>2.9</ele>
        <time>2020-06-15T15:44:38Z</time>
      </trkpt>
      <trkpt lat="49.41681" lon="-1.17725">
        <ele>2.9</ele>
        <time>2020-06-15T15:44:39Z</time>
      </trkpt>
      <trkpt lat="49.41683" lon="-1.17727">
        <ele>2.9</ele>
        <time>2020-06-15T15:44:40Z</time>
      </trkpt>
      <trkpt lat="49.41685" lon="-1.1773">
        <ele>3</ele>
        <time>2020-06-15T15:44:41Z</time>
      </trkpt>
      <trkpt lat="49.41686" lon="-1.17732">
        <ele>2.9</ele>
        <time>2020-06-15T15:44:42Z</time>
      </trkpt>
      <trkpt lat="49.41688" lon="-1.17734">
        <ele>2.9</ele>
        <time>2020-06-15T15:44:43Z</time>
      </trkpt>
      <trkpt lat="49.4169" lon="-1.17736">
        <ele>3</ele>
        <time>2020-06-15T15:44:44Z</time>
      </trkpt>
      <trkpt lat="49.41692" lon="-1.17739">
        <ele>2.9</ele>
        <time>2020-06-15T15:44:45Z</time>
      </trkpt>
      <trkpt lat="49.41701" lon="-1.17755">
        <ele>3.1</ele>
        <time>2020-06-15T15:44:46Z</time>
      </trkpt>
      <trkpt lat="49.41706" lon="-1.17762">
        <ele>3.1</ele>
        <time>2020-06-15T15:44:47Z</time>
      </trkpt>
      <trkpt lat="49.41711" lon="-1.17769">
        <ele>3.1</ele>
        <time>2020-06-15T15:44:48Z</time>
      </trkpt>
      <trkpt lat="49.41717" lon="-1.17777">
        <ele>3.1</ele>
        <time>2020-06-15T15:44:49Z</time>
      </trkpt>
      <trkpt lat="49.41722" lon="-1.17784">
        <ele>3.2</ele>
        <time>2020-06-15T15:44:50Z</time>
      </trkpt>
      <trkpt lat="49.41727" lon="-1.17792">
        <ele>3.1</ele>
        <time>2020-06-15T15:44:51Z</time>
      </trkpt>
      <trkpt lat="49.41732" lon="-1.17799">
        <ele>3.1</ele>
        <time>2020-06-15T15:44:52Z</time>
      </trkpt>
      <trkpt lat="49.41737" lon="-1.17807">
        <ele>3.1</ele>
        <time>2020-06-15T15:44:53Z</time>
      </trkpt>
      <trkpt lat="49.41742" lon="-1.17814">
        <ele>3.1</ele>
        <time>2020-06-15T15:44:54Z</time>
      </trkpt>
      <trkpt lat="49.4174" lon="-1.17792">
        <ele>3.3</ele>
        <time>2020-06-15T15:44:55Z</time>
      </trkpt>
      <trkpt lat="49.4174" lon="-1.17789">
        <ele>3.3</ele>
        <time>2020-06-15T15:44:56Z</time>
      </trkpt>
      <trkpt lat="49.4174" lon="-1.1779">
        <ele>3.3</ele>
        <time>2020-06-15T15:44:57Z</time>
      </trkpt>
      <trkpt lat="49.41742" lon="-1.17791">
        <ele>3.3</ele>
        <time>2020-06-15T15:44:58Z</time>
      </trkpt>
      <trkpt lat="49.41742" lon="-1.17794">
        <ele>3.3</ele>
        <time>2020-06-15T15:44:59Z</time>
      </trkpt>
      <trkpt lat="49.41744" lon="-1.17798">
        <ele>3.3</ele>
        <time>2020-06-15T15:45:00Z</time>
      </trkpt>
      <trkpt lat="49.41744" lon="-1.178">
        <ele>3.2</ele>
        <time>2020-06-15T15:45:01Z</time>
      </trkpt>
      <trkpt lat="49.41744" lon="-1.17802">
        <ele>3.2</ele>
        <time>2020-06-15T15:45:02Z</time>
      </trkpt>
      <trkpt lat="49.41744" lon="-1.17799">
        <ele>3.2</ele>
        <time>2020-06-15T15:45:03Z</time>
      </trkpt>
      <trkpt lat="49.41744" lon="-1.17798">
        <ele>3.3</ele>
        <time>2020-06-15T15:45:04Z</time>
      </trkpt>
      <trkpt lat="49.41743" lon="-1.17798">
        <ele>3.3</ele>
        <time>2020-06-15T15:45:05Z</time>
      </trkpt>
      <trkpt lat="49.41743" lon="-1.178">
        <ele>3.2</ele>
        <time>2020-06-15T15:45:06Z</time>
      </trkpt>
      <trkpt lat="49.41742" lon="-1.17799">
        <ele>3.2</ele>
        <time>2020-06-15T15:45:07Z</time>
      </trkpt>
      <trkpt lat="49.41743" lon="-1.17802">
        <ele>3.2</ele>
        <time>2020-06-15T15:45:08Z</time>
      </trkpt>
      <trkpt lat="49.41744" lon="-1.17804">
        <ele>3.2</ele>
        <time>2020-06-15T15:45:09Z</time>
      </trkpt>
      <trkpt lat="49.41744" lon="-1.17805">
        <ele>3.2</ele>
        <time>2020-06-15T15:45:10Z</time>
      </trkpt>
      <trkpt lat="49.41745" lon="-1.17807">
        <ele>3.2</ele>
        <time>2020-06-15T15:45:11Z</time>
      </trkpt>
      <trkpt lat="49.41746" lon="-1.17809">
        <ele>3.2</ele>
        <time>2020-06-15T15:45:12Z</time>
      </trkpt>
      <trkpt lat="49.41747" lon="-1.1781">
        <ele>3.2</ele>
        <time>2020-06-15T15:45:13Z</time>
      </trkpt>
      <trkpt lat="49.41748" lon="-1.17812">
        <ele>3.2</ele>
        <time>2020-06-15T15:45:14Z</time>
      </trkpt>
      <trkpt lat="49.41749" lon="-1.17815">
        <ele>3.2</ele>
        <time>2020-06-15T15:45:15Z</time>
      </trkpt>
      <trkpt lat="49.41749" lon="-1.17817">
        <ele>3.2</ele>
        <time>2020-06-15T15:45:16Z</time>
      </trkpt>
      <trkpt lat="49.4175" lon="-1.1782">
        <ele>3.2</ele>
        <time>2020-06-15T15:45:17Z</time>
      </trkpt>
      <trkpt lat="49.4175" lon="-1.17822">
        <ele>3.2</ele>
        <time>2020-06-15T15:45:18Z</time>
      </trkpt>
      <trkpt lat="49.4175" lon="-1.17825">
        <ele>3.2</ele>
        <time>2020-06-15T15:45:19Z</time>
      </trkpt>
      <trkpt lat="49.4175" lon="-1.17826">
        <ele>3.2</ele>
        <time>2020-06-15T15:45:20Z</time>
      </trkpt>
      <trkpt lat="49.4175" lon="-1.17827">
        <ele>3.2</ele>
        <time>2020-06-15T15:45:21Z</time>
      </trkpt>
      <trkpt lat="49.41764" lon="-1.17881">
        <ele>3.5</ele>
        <time>2020-06-15T15:45:39Z</time>
      </trkpt>
      <trkpt lat="49.41768" lon="-1.17883">
        <ele>3.5</ele>
        <time>2020-06-15T15:45:40Z</time>
      </trkpt>
      <trkpt lat="49.41772" lon="-1.17885">
        <ele>3.5</ele>
        <time>2020-06-15T15:45:41Z</time>
      </trkpt>
      <trkpt lat="49.41776" lon="-1.17887">
        <ele>3.4</ele>
        <time>2020-06-15T15:45:42Z</time>
      </trkpt>
      <trkpt lat="49.4178" lon="-1.17889">
        <ele>3.4</ele>
        <time>2020-06-15T15:45:43Z</time>
      </trkpt>
      <trkpt lat="49.41785" lon="-1.17891">
        <ele>3.4</ele>
        <time>2020-06-15T15:45:44Z</time>
      </trkpt>
      <trkpt lat="49.41589" lon="-1.17566">
        <ele>4.3</ele>
        <time>2020-06-15T15:45:53Z</time>
      </trkpt>
      <trkpt lat="49.41594" lon="-1.17557">
        <ele>4.3</ele>
        <time>2020-06-15T15:45:54Z</time>
      </trkpt>
      <trkpt lat="49.41597" lon="-1.17557">
        <ele>4.4</ele>
        <time>2020-06-15T15:45:55Z</time>
      </trkpt>
      <trkpt lat="49.41598" lon="-1.17557">
        <ele>4.5</ele>
        <time>2020-06-15T15:45:56Z</time>
      </trkpt>
      <trkpt lat="49.416" lon="-1.17558">
        <ele>4.7</ele>
        <time>2020-06-15T15:45:57Z</time>
      </trkpt>
      <trkpt lat="49.41601" lon="-1.17559">
        <ele>4.7</ele>
        <time>2020-06-15T15:45:58Z</time>
      </trkpt>
      <trkpt lat="49.41606" lon="-1.17559">
        <ele>4.9</ele>
        <time>2020-06-15T15:45:59Z</time>
      </trkpt>
      <trkpt lat="49.41609" lon="-1.17558">
        <ele>5</ele>
        <time>2020-06-15T15:46:00Z</time>
      </trkpt>
      <trkpt lat="49.4161" lon="-1.17558">
        <ele>5</ele>
        <time>2020-06-15T15:46:01Z</time>
      </trkpt>
      <trkpt lat="49.41612" lon="-1.17559">
        <ele>5.1</ele>
        <time>2020-06-15T15:46:02Z</time>
      </trkpt>
      <trkpt lat="49.41614" lon="-1.17559">
        <ele>5.1</ele>
        <time>2020-06-15T15:46:03Z</time>
      </trkpt>
      <trkpt lat="49.41617" lon="-1.1756">
        <ele>5.3</ele>
        <time>2020-06-15T15:46:04Z</time>
      </trkpt>
      <trkpt lat="49.41618" lon="-1.17561">
        <ele>5.3</ele>
        <time>2020-06-15T15:46:05Z</time>
      </trkpt>
      <trkpt lat="49.41619" lon="-1.1756">
        <ele>5.3</ele>
        <time>2020-06-15T15:46:06Z</time>
      </trkpt>
      <trkpt lat="49.41619" lon="-1.17561">
        <ele>5.3</ele>
        <time>2020-06-15T15:46:07Z</time>
      </trkpt>
      <trkpt lat="49.4162" lon="-1.17561">
        <ele>5.4</ele>
        <time>2020-06-15T15:46:08Z</time>
      </trkpt>
      <trkpt lat="49.41622" lon="-1.17561">
        <ele>5.4</ele>
        <time>2020-06-15T15:46:09Z</time>
      </trkpt>
      <trkpt lat="49.41623" lon="-1.17562">
        <ele>5.4</ele>
        <time>2020-06-15T15:46:10Z</time>
      </trkpt>
      <trkpt lat="49.41625" lon="-1.17563">
        <ele>5.3</ele>
        <time>2020-06-15T15:46:11Z</time>
      </trkpt>
      <trkpt lat="49.41626" lon="-1.17563">
        <ele>5.3</ele>
        <time>2020-06-15T15:46:12Z</time>
      </trkpt>
      <trkpt lat="49.41627" lon="-1.17564">
        <ele>5.3</ele>
        <time>2020-06-15T15:46:13Z</time>
      </trkpt>
      <trkpt lat="49.41628" lon="-1.17564">
        <ele>5.4</ele>
        <time>2020-06-15T15:46:14Z</time>
      </trkpt>
      <trkpt lat="49.4163" lon="-1.17565">
        <ele>5.4</ele>
        <time>2020-06-15T15:46:15Z</time>
      </trkpt>
      <trkpt lat="49.4163" lon="-1.17565">
        <ele>5.4</ele>
        <time>2020-06-15T15:46:16Z</time>
      </trkpt>
      <trkpt lat="49.41631" lon="-1.17565">
        <ele>5.5</ele>
        <time>2020-06-15T15:46:17Z</time>
      </trkpt>
      <trkpt lat="49.41633" lon="-1.17566">
        <ele>5.5</ele>
        <time>2020-06-15T15:46:18Z</time>
      </trkpt>
      <trkpt lat="49.41634" lon="-1.17567">
        <ele>5.6</ele>
        <time>2020-06-15T15:46:19Z</time>
      </trkpt>
      <trkpt lat="49.41633" lon="-1.17565">
        <ele>5.5</ele>
        <time>2020-06-15T15:46:20Z</time>
      </trkpt>
      <trkpt lat="49.41632" lon="-1.17571">
        <ele>5.5</ele>
        <time>2020-06-15T15:46:21Z</time>
      </trkpt>
      <trkpt lat="49.41634" lon="-1.17571">
        <ele>5.6</ele>
        <time>2020-06-15T15:46:22Z</time>
      </trkpt>
      <trkpt lat="49.41635" lon="-1.1757">
        <ele>5.6</ele>
        <time>2020-06-15T15:46:23Z</time>
      </trkpt>
      <trkpt lat="49.41635" lon="-1.1757">
        <ele>5.6</ele>
        <time>2020-06-15T15:46:24Z</time>
      </trkpt>
      <trkpt lat="49.41635" lon="-1.17569">
        <ele>5.6</ele>
        <time>2020-06-15T15:46:25Z</time>
      </trkpt>
      <trkpt lat="49.41635" lon="-1.17569">
        <ele>5.6</ele>
        <time>2020-06-15T15:46:26Z</time>
      </trkpt>
      <trkpt lat="49.41636" lon="-1.17569">
        <ele>5.6</ele>
        <time>2020-06-15T15:46:27Z</time>
      </trkpt>
      <trkpt lat="49.41636" lon="-1.17569">
        <ele>5.6</ele>
        <time>2020-06-15T15:46:28Z</time>
      </trkpt>
      <trkpt lat="49.41636" lon="-1.17569">
        <ele>5.6</ele>
        <time>2020-06-15T15:46:29Z</time>
      </trkpt>
      <trkpt lat="49.41636" lon="-1.17569">
        <ele>5.6</ele>
        <time>2020-06-15T15:46:30Z</time>
      </trkpt>
      <trkpt lat="49.41636" lon="-1.17569">
        <ele>5.6</ele>
        <time>2020-06-15T15:46:31Z</time>
      </trkpt>
      <trkpt lat="49.41636" lon="-1.17569">
        <ele>5.6</ele>
        <time>2020-06-15T15:46:32Z</time>
      </trkpt>
      <trkpt lat="49.41633" lon="-1.17576">
        <ele>5.4</ele>
        <time>2020-06-15T15:47:02Z</time>
      </trkpt>
      <trkpt lat="49.41633" lon="-1.17577">
        <ele>5.4</ele>
        <time>2020-06-15T15:47:03Z</time>
      </trkpt>
      <trkpt lat="49.41633" lon="-1.17577">
        <ele>5.4</ele>
        <time>2020-06-15T15:47:04Z</time>
      </trkpt>
      <trkpt lat="49.41633" lon="-1.17578">
        <ele>5.4</ele>
        <time>2020-06-15T15:47:05Z</time>
      </trkpt>
      <trkpt lat="49.41634" lon="-1.17578">
        <ele>5.6</ele>
        <time>2020-06-15T15:47:06Z</time>
      </trkpt>
      <trkpt lat="49.41635" lon="-1.17577">
        <ele>5.6</ele>
        <time>2020-06-15T15:47:07Z</time>
      </trkpt>
      <trkpt lat="49.41635" lon="-1.17577">
        <ele>5.6</ele>
        <time>2020-06-15T15:47:08Z</time>
      </trkpt>
      <trkpt lat="49.41636" lon="-1.17576">
        <ele>5.6</ele>
        <time>2020-06-15T15:47:09Z</time>
      </trkpt>
      <trkpt lat="49.41637" lon="-1.17575">
        <ele>5.8</ele>
        <time>2020-06-15T15:47:10Z</time>
      </trkpt>
      <trkpt lat="49.41637" lon="-1.17574">
        <ele>5.8</ele>
        <time>2020-06-15T15:47:11Z</time>
      </trkpt>
      <trkpt lat="49.41637" lon="-1.17574">
        <ele>5.8</ele>
        <time>2020-06-15T15:47:12Z</time>
      </trkpt>
      <trkpt lat="49.41637" lon="-1.17574">
        <ele>5.8</ele>
        <time>2020-06-15T15:47:13Z</time>
      </trkpt>
      <trkpt lat="49.41638" lon="-1.17573">
        <ele>5.8</ele>
        <time>2020-06-15T15:47:14Z</time>
      </trkpt>
      <trkpt lat="49.41638" lon="-1.17572">
        <ele>5.8</ele>
        <time>2020-06-15T15:47:15Z</time>
      </trkpt>
      <trkpt lat="49.41638" lon="-1.17571">
        <ele>5.8</ele>
        <time>2020-06-15T15:47:16Z</time>
      </trkpt>
      <trkpt lat="49.41638" lon="-1.17571">
        <ele>5.7</ele>
        <time>2020-06-15T15:47:17Z</time>
      </trkpt>
      <trkpt lat="49.41639" lon="-1.1757">
        <ele>5.7</ele>
        <time>2020-06-15T15:47:18Z</time>
      </trkpt>
      <trkpt lat="49.41639" lon="-1.1757">
        <ele>5.7</ele>
        <time>2020-06-15T15:47:19Z</time>
      </trkpt>
      <trkpt lat="49.41639" lon="-1.17569">
        <ele>5.7</ele>
        <time>2020-06-15T15:47:20Z</time>
      </trkpt>
      <trkpt lat="49.4164" lon="-1.17568">
        <ele>5.8</ele>
        <time>2020-06-15T15:47:21Z</time>
      </trkpt>
      <trkpt lat="49.4164" lon="-1.17566">
        <ele>5.5</ele>
        <time>2020-06-15T15:47:22Z</time>
      </trkpt>
      <trkpt lat="49.4164" lon="-1.17565">
        <ele>5.5</ele>
        <time>2020-06-15T15:47:23Z</time>
      </trkpt>
      <trkpt lat="49.4164" lon="-1.17564">
        <ele>5.5</ele>
        <time>2020-06-15T15:47:24Z</time>
      </trkpt>
      <trkpt lat="49.4164" lon="-1.17563">
        <ele>5.5</ele>
        <time>2020-06-15T15:47:25Z</time>
      </trkpt>
      <trkpt lat="49.4164" lon="-1.17562">
        <ele>5.5</ele>
        <time>2020-06-15T15:47:26Z</time>
      </trkpt>
      <trkpt lat="49.41639" lon="-1.1756">
        <ele>5.5</ele>
        <time>2020-06-15T15:47:27Z</time>
      </trkpt>
      <trkpt lat="49.41638" lon="-1.1756">
        <ele>5.5</ele>
        <time>2020-06-15T15:47:28Z</time>
      </trkpt>
      <trkpt lat="49.41637" lon="-1.17559">
        <ele>5.5</ele>
        <time>2020-06-15T15:47:29Z</time>
      </trkpt>
      <trkpt lat="49.41636" lon="-1.17558">
        <ele>5.5</ele>
        <time>2020-06-15T15:47:30Z</time>
      </trkpt>
      <trkpt lat="49.41635" lon="-1.17557">
        <ele>5.5</ele>
        <time>2020-06-15T15:47:31Z</time>
      </trkpt>
      <trkpt lat="49.41635" lon="-1.17556">
        <ele>5.5</ele>
        <time>2020-06-15T15:47:32Z</time>
      </trkpt>
      <trkpt lat="49.41634" lon="-1.17556">
        <ele>5.5</ele>
        <time>2020-06-15T15:47:33Z</time>
      </trkpt>
      <trkpt lat="49.41634" lon="-1.17557">
        <ele>5.6</ele>
        <time>2020-06-15T15:47:34Z</time>
      </trkpt>
      <trkpt lat="49.41634" lon="-1.17557">
        <ele>5.6</ele>
        <time>2020-06-15T15:47:35Z</time>
      </trkpt>
      <trkpt lat="49.41633" lon="-1.17557">
        <ele>5.6</ele>
        <time>2020-06-15T15:47:36Z</time>
      </trkpt>
      <trkpt lat="49.41633" lon="-1.17557">
        <ele>5.6</ele>
        <time>2020-06-15T15:47:37Z</time>
      </trkpt>
      <trkpt lat="49.41633" lon="-1.17557">
        <ele>5.6</ele>
        <time>2020-06-15T15:47:38Z</time>
      </trkpt>
      <trkpt lat="49.41633" lon="-1.17556">
        <ele>5.6</ele>
        <time>2020-06-15T15:47:39Z</time>
      </trkpt>
      <trkpt lat="49.41633" lon="-1.17555">
        <ele>5.6</ele>
        <time>2020-06-15T15:47:40Z</time>
      </trkpt>
      <trkpt lat="49.41633" lon="-1.17555">
        <ele>5.6</ele>
        <time>2020-06-15T15:47:41Z</time>
      </trkpt>
      <trkpt lat="49.41634" lon="-1.17555">
        <ele>5.6</ele>
        <time>2020-06-15T15:47:42Z</time>
      </trkpt>
      <trkpt lat="49.41634" lon="-1.17555">
        <ele>5.6</ele>
        <time>2020-06-15T15:47:43Z</time>
      </trkpt>
      <trkpt lat="49.41634" lon="-1.17555">
        <ele>5.6</ele>
        <time>2020-06-15T15:47:44Z</time>
      </trkpt>
      <trkpt lat="49.41634" lon="-1.17555">
        <ele>5.6</ele>
        <time>2020-06-15T15:47:45Z</time>
      </trkpt>
      <trkpt lat="49.41634" lon="-1.17555">
        <ele>5.6</ele>
        <time>2020-06-15T15:47:46Z</time>
      </trkpt>
      <trkpt lat="49.41634" lon="-1.17555">
        <ele>5.6</ele>
        <time>2020-06-15T15:47:47Z</time>
      </trkpt>
      <trkpt lat="49.41634" lon="-1.17555">
        <ele>5.6</ele>
        <time>2020-06-15T15:47:48Z</time>
      </trkpt>
      <trkpt lat="49.41634" lon="-1.17554">
        <ele>5.6</ele>
        <time>2020-06-15T15:47:49Z</time>
      </trkpt>
      <trkpt lat="49.41634" lon="-1.17554">
        <ele>5.6</ele>
        <time>2020-06-15T15:47:50Z</time>
      </trkpt>
      <trkpt lat="49.41635" lon="-1.17554">
        <ele>5.6</ele>
        <time>2020-06-15T15:47:51Z</time>
      </trkpt>
      <trkpt lat="49.41635" lon="-1.17554">
        <ele>5.6</ele>
        <time>2020-06-15T15:47:52Z</time>
      </trkpt>
      <trkpt lat="49.41635" lon="-1.17554">
        <ele>5.6</ele>
        <time>2020-06-15T15:47:53Z</time>
      </trkpt>
      <trkpt lat="49.41635" lon="-1.17554">
        <ele>5.6</ele>
        <time>2020-06-15T15:47:54Z</time>
      </trkpt>
      <trkpt lat="49.41635" lon="-1.17554">
        <ele>5.6</ele>
        <time>2020-06-15T15:47:55Z</time>
      </trkpt>
      <trkpt lat="49.41635" lon="-1.17553">
        <ele>5.6</ele>
        <time>2020-06-15T15:47:56Z</time>
      </trkpt>
      <trkpt lat="49.41635" lon="-1.17553">
        <ele>5.6</ele>
        <time>2020-06-15T15:47:57Z</time>
      </trkpt>
      <trkpt lat="49.41636" lon="-1.17553">
        <ele>5.6</ele>
        <time>2020-06-15T15:47:58Z</time>
      </trkpt>
      <trkpt lat="49.41636" lon="-1.17553">
        <ele>5.6</ele>
        <time>2020-06-15T15:47:59Z</time>
      </trkpt>
      <trkpt lat="49.41637" lon="-1.17552">
        <ele>5.6</ele>
        <time>2020-06-15T15:48:00Z</time>
      </trkpt>
      <trkpt lat="49.41636" lon="-1.17552">
        <ele>5.6</ele>
        <time>2020-06-15T15:48:01Z</time>
      </trkpt>
      <trkpt lat="49.41636" lon="-1.17552">
        <ele>5.6</ele>
        <time>2020-06-15T15:48:02Z</time>
      </trkpt>
      <trkpt lat="49.41636" lon="-1.17552">
        <ele>5.6</ele>
        <time>2020-06-15T15:48:03Z</time>
      </trkpt>
      <trkpt lat="49.41637" lon="-1.1755">
        <ele>5.6</ele>
        <time>2020-06-15T15:48:04Z</time>
      </trkpt>
      <trkpt lat="49.41637" lon="-1.17549">
        <ele>5.6</ele>
        <time>2020-06-15T15:48:05Z</time>
      </trkpt>
      <trkpt lat="49.41637" lon="-1.17548">
        <ele>5.6</ele>
        <time>2020-06-15T15:48:06Z</time>
      </trkpt>
      <trkpt lat="49.41638" lon="-1.17547">
        <ele>5.6</ele>
        <time>2020-06-15T15:48:07Z</time>
      </trkpt>
      <trkpt lat="49.41637" lon="-1.17547">
        <ele>5.6</ele>
        <time>2020-06-15T15:48:08Z</time>
      </trkpt>
      <trkpt lat="49.41638" lon="-1.17547">
        <ele>5.6</ele>
        <time>2020-06-15T15:48:09Z</time>
      </trkpt>
      <trkpt lat="49.41638" lon="-1.17547">
        <ele>5.6</ele>
        <time>2020-06-15T15:48:10Z</time>
      </trkpt>
      <trkpt lat="49.41638" lon="-1.17547">
        <ele>5.6</ele>
        <time>2020-06-15T15:48:11Z</time>
      </trkpt>
      <trkpt lat="49.41638" lon="-1.17547">
        <ele>5.6</ele>
        <time>2020-06-15T15:48:12Z</time>
      </trkpt>
      <trkpt lat="49.41638" lon="-1.17547">
        <ele>5.6</ele>
        <time>2020-06-15T15:48:13Z</time>
      </trkpt>
      <trkpt lat="49.41638" lon="-1.17547">
        <ele>5.6</ele>
        <time>2020-06-15T15:48:14Z</time>
      </trkpt>
      <trkpt lat="49.41638" lon="-1.17547">
        <ele>5.6</ele>
        <time>2020-06-15T15:48:15Z</time>
      </trkpt>
      <trkpt lat="49.41638" lon="-1.17547">
        <ele>5.6</ele>
        <time>2020-06-15T15:48:16Z</time>
      </trkpt>
      <trkpt lat="49.41648" lon="-1.17569">
        <ele>5.6</ele>
        <time>2020-06-15T15:50:30Z</time>
      </trkpt>
      <trkpt lat="49.41647" lon="-1.17567">
        <ele>5.6</ele>
        <time>2020-06-15T15:50:31Z</time>
      </trkpt>
      <trkpt lat="49.41646" lon="-1.17567">
        <ele>5.6</ele>
        <time>2020-06-15T15:50:32Z</time>
      </trkpt>
      <trkpt lat="49.41646" lon="-1.17567">
        <ele>5.6</ele>
        <time>2020-06-15T15:50:33Z</time>
      </trkpt>
      <trkpt lat="49.41646" lon="-1.17567">
        <ele>5.6</ele>
        <time>2020-06-15T15:50:34Z</time>
      </trkpt>
      <trkpt lat="49.41645" lon="-1.17567">
        <ele>5.6</ele>
        <time>2020-06-15T15:50:35Z</time>
      </trkpt>
      <trkpt lat="49.41644" lon="-1.17567">
        <ele>5.6</ele>
        <time>2020-06-15T15:50:36Z</time>
      </trkpt>
      <trkpt lat="49.41644" lon="-1.17565">
        <ele>5.6</ele>
        <time>2020-06-15T15:50:37Z</time>
      </trkpt>
      <trkpt lat="49.41644" lon="-1.17564">
        <ele>5.6</ele>
        <time>2020-06-15T15:50:38Z</time>
      </trkpt>
      <trkpt lat="49.41644" lon="-1.17564">
        <ele>5.6</ele>
        <time>2020-06-15T15:50:39Z</time>
      </trkpt>
      <trkpt lat="49.41644" lon="-1.17563">
        <ele>5.6</ele>
        <time>2020-06-15T15:50:40Z</time>
      </trkpt>
      <trkpt lat="49.41643" lon="-1.17564">
        <ele>5.6</ele>
        <time>2020-06-15T15:50:41Z</time>
      </trkpt>
      <trkpt lat="49.41642" lon="-1.17564">
        <ele>5.6</ele>
        <time>2020-06-15T15:50:42Z</time>
      </trkpt>
      <trkpt lat="49.41642" lon="-1.17564">
        <ele>5.6</ele>
        <time>2020-06-15T15:50:43Z</time>
      </trkpt>
      <trkpt lat="49.41642" lon="-1.17564">
        <ele>5.6</ele>
        <time>2020-06-15T15:50:44Z</time>
      </trkpt>
      <trkpt lat="49.41641" lon="-1.17565">
        <ele>5.6</ele>
        <time>2020-06-15T15:50:45Z</time>
      </trkpt>
      <trkpt lat="49.41641" lon="-1.17566">
        <ele>5.6</ele>
        <time>2020-06-15T15:50:46Z</time>
      </trkpt>
      <trkpt lat="49.4164" lon="-1.17567">
        <ele>5.6</ele>
        <time>2020-06-15T15:50:47Z</time>
      </trkpt>
      <trkpt lat="49.4164" lon="-1.17568">
        <ele>5.6</ele>
        <time>2020-06-15T15:50:48Z</time>
      </trkpt>
      <trkpt lat="49.41639" lon="-1.17569">
        <ele>5.6</ele>
        <time>2020-06-15T15:50:49Z</time>
      </trkpt>
      <trkpt lat="49.41639" lon="-1.1757">
        <ele>5.6</ele>
        <time>2020-06-15T15:50:50Z</time>
      </trkpt>
      <trkpt lat="49.41639" lon="-1.1757">
        <ele>5.6</ele>
        <time>2020-06-15T15:50:51Z</time>
      </trkpt>
      <trkpt lat="49.41639" lon="-1.1757">
        <ele>5.6</ele>
        <time>2020-06-15T15:50:52Z</time>
      </trkpt>
      <trkpt lat="49.41639" lon="-1.1757">
        <ele>5.6</ele>
        <time>2020-06-15T15:50:53Z</time>
      </trkpt>
      <trkpt lat="49.41639" lon="-1.1757">
        <ele>5.6</ele>
        <time>2020-06-15T15:50:54Z</time>
      </trkpt>
      <trkpt lat="49.41638" lon="-1.1757">
        <ele>5.5</ele>
        <time>2020-06-15T15:50:55Z</time>
      </trkpt>
      <trkpt lat="49.41638" lon="-1.17571">
        <ele>5.5</ele>
        <time>2020-06-15T15:50:56Z</time>
      </trkpt>
      <trkpt lat="49.41637" lon="-1.17571">
        <ele>5.5</ele>
        <time>2020-06-15T15:50:57Z</time>
      </trkpt>
      <trkpt lat="49.41636" lon="-1.17572">
        <ele>5.5</ele>
        <time>2020-06-15T15:50:58Z</time>
      </trkpt>
      <trkpt lat="49.41635" lon="-1.17573">
        <ele>5.5</ele>
        <time>2020-06-15T15:50:59Z</time>
      </trkpt>
      <trkpt lat="49.41635" lon="-1.17574">
        <ele>5.5</ele>
        <time>2020-06-15T15:51:00Z</time>
      </trkpt>
      <trkpt lat="49.41635" lon="-1.17574">
        <ele>5.5</ele>
        <time>2020-06-15T15:51:01Z</time>
      </trkpt>
      <trkpt lat="49.41634" lon="-1.17575">
        <ele>5.5</ele>
        <time>2020-06-15T15:51:02Z</time>
      </trkpt>
      <trkpt lat="49.41634" lon="-1.17576">
        <ele>5.5</ele>
        <time>2020-06-15T15:51:03Z</time>
      </trkpt>
      <trkpt lat="49.41634" lon="-1.17578">
        <ele>5.5</ele>
        <time>2020-06-15T15:51:04Z</time>
      </trkpt>
      <trkpt lat="49.41634" lon="-1.1758">
        <ele>5.4</ele>
        <time>2020-06-15T15:51:05Z</time>
      </trkpt>
      <trkpt lat="49.41633" lon="-1.17583">
        <ele>5.3</ele>
        <time>2020-06-15T15:51:06Z</time>
      </trkpt>
      <trkpt lat="49.41633" lon="-1.17585">
        <ele>5.3</ele>
        <time>2020-06-15T15:51:07Z</time>
      </trkpt>
      <trkpt lat="49.41632" lon="-1.17586">
        <ele>5.3</ele>
        <time>2020-06-15T15:51:08Z</time>
      </trkpt>
      <trkpt lat="49.41632" lon="-1.17587">
        <ele>5.3</ele>
        <time>2020-06-15T15:51:09Z</time>
      </trkpt>
      <trkpt lat="49.41631" lon="-1.17589">
        <ele>5.2</ele>
        <time>2020-06-15T15:51:10Z</time>
      </trkpt>
      <trkpt lat="49.41631" lon="-1.1759">
        <ele>5.2</ele>
        <time>2020-06-15T15:51:11Z</time>
      </trkpt>
      <trkpt lat="49.4163" lon="-1.17591">
        <ele>5.2</ele>
        <time>2020-06-15T15:51:12Z</time>
      </trkpt>
      <trkpt lat="49.4163" lon="-1.17592">
        <ele>5.2</ele>
        <time>2020-06-15T15:51:13Z</time>
      </trkpt>
      <trkpt lat="49.41629" lon="-1.17593">
        <ele>5.1</ele>
        <time>2020-06-15T15:51:14Z</time>
      </trkpt>
      <trkpt lat="49.41628" lon="-1.17595">
        <ele>5.1</ele>
        <time>2020-06-15T15:51:15Z</time>
      </trkpt>
      <trkpt lat="49.41628" lon="-1.17596">
        <ele>5.1</ele>
        <time>2020-06-15T15:51:16Z</time>
      </trkpt>
      <trkpt lat="49.41627" lon="-1.17597">
        <ele>5.1</ele>
        <time>2020-06-15T15:51:17Z</time>
      </trkpt>
      <trkpt lat="49.41627" lon="-1.17599">
        <ele>5</ele>
        <time>2020-06-15T15:51:18Z</time>
      </trkpt>
      <trkpt lat="49.41627" lon="-1.17601">
        <ele>5</ele>
        <time>2020-06-15T15:51:19Z</time>
      </trkpt>
      <trkpt lat="49.41626" lon="-1.17602">
        <ele>5</ele>
        <time>2020-06-15T15:51:20Z</time>
      </trkpt>
      <trkpt lat="49.41625" lon="-1.17603">
        <ele>5</ele>
        <time>2020-06-15T15:51:21Z</time>
      </trkpt>
      <trkpt lat="49.41626" lon="-1.17605">
        <ele>5</ele>
        <time>2020-06-15T15:51:22Z</time>
      </trkpt>
      <trkpt lat="49.41625" lon="-1.17606">
        <ele>5</ele>
        <time>2020-06-15T15:51:23Z</time>
      </trkpt>
      <trkpt lat="49.41625" lon="-1.17608">
        <ele>5</ele>
        <time>2020-06-15T15:51:24Z</time>
      </trkpt>
      <trkpt lat="49.41625" lon="-1.17609">
        <ele>5</ele>
        <time>2020-06-15T15:51:25Z</time>
      </trkpt>
      <trkpt lat="49.41624" lon="-1.17611">
        <ele>5</ele>
        <time>2020-06-15T15:51:26Z</time>
      </trkpt>
      <trkpt lat="49.41624" lon="-1.17614">
        <ele>4.9</ele>
        <time>2020-06-15T15:51:27Z</time>
      </trkpt>
      <trkpt lat="49.41624" lon="-1.17614">
        <ele>4.9</ele>
        <time>2020-06-15T15:51:28Z</time>
      </trkpt>
      <trkpt lat="49.41624" lon="-1.17615">
        <ele>4.9</ele>
        <time>2020-06-15T15:51:29Z</time>
      </trkpt>
      <trkpt lat="49.41624" lon="-1.17616">
        <ele>4.9</ele>
        <time>2020-06-15T15:51:30Z</time>
      </trkpt>
      <trkpt lat="49.41624" lon="-1.17618">
        <ele>4.9</ele>
        <time>2020-06-15T15:51:31Z</time>
      </trkpt>
      <trkpt lat="49.41624" lon="-1.17619">
        <ele>4.9</ele>
        <time>2020-06-15T15:51:32Z</time>
      </trkpt>
      <trkpt lat="49.41624" lon="-1.17619">
        <ele>4.9</ele>
        <time>2020-06-15T15:51:33Z</time>
      </trkpt>
      <trkpt lat="49.41625" lon="-1.17621">
        <ele>4.9</ele>
        <time>2020-06-15T15:51:34Z</time>
      </trkpt>
      <trkpt lat="49.41625" lon="-1.1762">
        <ele>4.9</ele>
        <time>2020-06-15T15:51:35Z</time>
      </trkpt>
      <trkpt lat="49.41626" lon="-1.1762">
        <ele>4.9</ele>
        <time>2020-06-15T15:51:36Z</time>
      </trkpt>
      <trkpt lat="49.41626" lon="-1.1762">
        <ele>4.9</ele>
        <time>2020-06-15T15:51:37Z</time>
      </trkpt>
      <trkpt lat="49.41625" lon="-1.17619">
        <ele>4.9</ele>
        <time>2020-06-15T15:51:38Z</time>
      </trkpt>
      <trkpt lat="49.41624" lon="-1.17618">
        <ele>4.9</ele>
        <time>2020-06-15T15:51:39Z</time>
      </trkpt>
      <trkpt lat="49.41622" lon="-1.17617">
        <ele>4.9</ele>
        <time>2020-06-15T15:51:40Z</time>
      </trkpt>
      <trkpt lat="49.41621" lon="-1.17617">
        <ele>4.9</ele>
        <time>2020-06-15T15:51:41Z</time>
      </trkpt>
      <trkpt lat="49.41619" lon="-1.17616">
        <ele>4.9</ele>
        <time>2020-06-15T15:51:42Z</time>
      </trkpt>
      <trkpt lat="49.41616" lon="-1.17614">
        <ele>4.8</ele>
        <time>2020-06-15T15:51:43Z</time>
      </trkpt>
      <trkpt lat="49.41615" lon="-1.17613">
        <ele>4.8</ele>
        <time>2020-06-15T15:51:44Z</time>
      </trkpt>
      <trkpt lat="49.41612" lon="-1.17611">
        <ele>4.8</ele>
        <time>2020-06-15T15:51:45Z</time>
      </trkpt>
      <trkpt lat="49.41611" lon="-1.1761">
        <ele>4.8</ele>
        <time>2020-06-15T15:51:46Z</time>
      </trkpt>
      <trkpt lat="49.41607" lon="-1.17607">
        <ele>4.8</ele>
        <time>2020-06-15T15:51:47Z</time>
      </trkpt>
      <trkpt lat="49.41605" lon="-1.17606">
        <ele>4.8</ele>
        <time>2020-06-15T15:51:48Z</time>
      </trkpt>
      <trkpt lat="49.41602" lon="-1.17604">
        <ele>4.8</ele>
        <time>2020-06-15T15:51:49Z</time>
      </trkpt>
      <trkpt lat="49.41599" lon="-1.17602">
        <ele>4.7</ele>
        <time>2020-06-15T15:51:50Z</time>
      </trkpt>
      <trkpt lat="49.41597" lon="-1.17599">
        <ele>4.7</ele>
        <time>2020-06-15T15:51:51Z</time>
      </trkpt>
      <trkpt lat="49.41594" lon="-1.17598">
        <ele>4.7</ele>
        <time>2020-06-15T15:51:52Z</time>
      </trkpt>
      <trkpt lat="49.41591" lon="-1.17595">
        <ele>4.7</ele>
        <time>2020-06-15T15:51:53Z</time>
      </trkpt>
      <trkpt lat="49.41588" lon="-1.17593">
        <ele>4.7</ele>
        <time>2020-06-15T15:51:54Z</time>
      </trkpt>
      <trkpt lat="49.41585" lon="-1.1759">
        <ele>4.7</ele>
        <time>2020-06-15T15:51:55Z</time>
      </trkpt>
      <trkpt lat="49.41582" lon="-1.17588">
        <ele>4.7</ele>
        <time>2020-06-15T15:51:56Z</time>
      </trkpt>
      <trkpt lat="49.41579" lon="-1.17585">
        <ele>4.7</ele>
        <time>2020-06-15T15:51:57Z</time>
      </trkpt>
      <trkpt lat="49.41576" lon="-1.17582">
        <ele>4.7</ele>
        <time>2020-06-15T15:51:58Z</time>
      </trkpt>
      <trkpt lat="49.41573" lon="-1.17579">
        <ele>4.8</ele>
        <time>2020-06-15T15:51:59Z</time>
      </trkpt>
      <trkpt lat="49.41571" lon="-1.17575">
        <ele>4.8</ele>
        <time>2020-06-15T15:52:00Z</time>
      </trkpt>
      <trkpt lat="49.4157" lon="-1.17573">
        <ele>4.8</ele>
        <time>2020-06-15T15:52:01Z</time>
      </trkpt>
      <trkpt lat="49.41568" lon="-1.17571">
        <ele>4.8</ele>
        <time>2020-06-15T15:52:02Z</time>
      </trkpt>
      <trkpt lat="49.41565" lon="-1.1757">
        <ele>4.8</ele>
        <time>2020-06-15T15:52:03Z</time>
      </trkpt>
      <trkpt lat="49.41563" lon="-1.1757">
        <ele>4.8</ele>
        <time>2020-06-15T15:52:04Z</time>
      </trkpt>
      <trkpt lat="49.4156" lon="-1.17567">
        <ele>4.8</ele>
        <time>2020-06-15T15:52:05Z</time>
      </trkpt>
      <trkpt lat="49.41559" lon="-1.17566">
        <ele>4.8</ele>
        <time>2020-06-15T15:52:06Z</time>
      </trkpt>
      <trkpt lat="49.41558" lon="-1.17565">
        <ele>4.8</ele>
        <time>2020-06-15T15:52:07Z</time>
      </trkpt>
      <trkpt lat="49.41557" lon="-1.17566">
        <ele>4.8</ele>
        <time>2020-06-15T15:52:08Z</time>
      </trkpt>
      <trkpt lat="49.41557" lon="-1.17566">
        <ele>4.8</ele>
        <time>2020-06-15T15:52:09Z</time>
      </trkpt>
      <trkpt lat="49.41557" lon="-1.17568">
        <ele>4.8</ele>
        <time>2020-06-15T15:52:10Z</time>
      </trkpt>
      <trkpt lat="49.41558" lon="-1.17568">
        <ele>4.8</ele>
        <time>2020-06-15T15:52:11Z</time>
      </trkpt>
      <trkpt lat="49.41558" lon="-1.17569">
        <ele>4.8</ele>
        <time>2020-06-15T15:52:12Z</time>
      </trkpt>
      <trkpt lat="49.41558" lon="-1.17568">
        <ele>4.8</ele>
        <time>2020-06-15T15:52:13Z</time>
      </trkpt>
      <trkpt lat="49.41558" lon="-1.17566">
        <ele>4.9</ele>
        <time>2020-06-15T15:52:14Z</time>
      </trkpt>
      <trkpt lat="49.41559" lon="-1.17567">
        <ele>4.9</ele>
        <time>2020-06-15T15:52:15Z</time>
      </trkpt>
      <trkpt lat="49.41559" lon="-1.17567">
        <ele>4.9</ele>
        <time>2020-06-15T15:52:16Z</time>
      </trkpt>
      <trkpt lat="49.41559" lon="-1.17567">
        <ele>4.9</ele>
        <time>2020-06-15T15:52:17Z</time>
      </trkpt>
      <trkpt lat="49.41558" lon="-1.17567">
        <ele>4.9</ele>
        <time>2020-06-15T15:52:18Z</time>
      </trkpt>
      <trkpt lat="49.41559" lon="-1.17566">
        <ele>4.9</ele>
        <time>2020-06-15T15:52:19Z</time>
      </trkpt>
      <trkpt lat="49.41558" lon="-1.17566">
        <ele>4.9</ele>
        <time>2020-06-15T15:52:20Z</time>
      </trkpt>
      <trkpt lat="49.41558" lon="-1.17567">
        <ele>4.9</ele>
        <time>2020-06-15T15:52:21Z</time>
      </trkpt>
      <trkpt lat="49.41558" lon="-1.17567">
        <ele>4.9</ele>
        <time>2020-06-15T15:52:22Z</time>
      </trkpt>
      <trkpt lat="49.41558" lon="-1.17567">
        <ele>4.9</ele>
        <time>2020-06-15T15:52:23Z</time>
      </trkpt>
      <trkpt lat="49.41558" lon="-1.17567">
        <ele>4.9</ele>
        <time>2020-06-15T15:52:24Z</time>
      </trkpt>
      <trkpt lat="49.41558" lon="-1.17566">
        <ele>4.9</ele>
        <time>2020-06-15T15:52:25Z</time>
      </trkpt>
      <trkpt lat="49.41557" lon="-1.17564">
        <ele>4.9</ele>
        <time>2020-06-15T15:52:26Z</time>
      </trkpt>
      <trkpt lat="49.41557" lon="-1.17564">
        <ele>4.9</ele>
        <time>2020-06-15T15:52:27Z</time>
      </trkpt>
      <trkpt lat="49.41557" lon="-1.17563">
        <ele>4.9</ele>
        <time>2020-06-15T15:52:28Z</time>
      </trkpt>
      <trkpt lat="49.41556" lon="-1.17562">
        <ele>4.9</ele>
        <time>2020-06-15T15:52:29Z</time>
      </trkpt>
      <trkpt lat="49.41556" lon="-1.17562">
        <ele>4.9</ele>
        <time>2020-06-15T15:52:30Z</time>
      </trkpt>
      <trkpt lat="49.41556" lon="-1.17562">
        <ele>5</ele>
        <time>2020-06-15T15:52:31Z</time>
      </trkpt>
      <trkpt lat="49.41556" lon="-1.17561">
        <ele>5</ele>
        <time>2020-06-15T15:52:32Z</time>
      </trkpt>
      <trkpt lat="49.41555" lon="-1.17561">
        <ele>5</ele>
        <time>2020-06-15T15:52:33Z</time>
      </trkpt>
      <trkpt lat="49.41555" lon="-1.17561">
        <ele>5</ele>
        <time>2020-06-15T15:52:34Z</time>
      </trkpt>
      <trkpt lat="49.41555" lon="-1.17561">
        <ele>5</ele>
        <time>2020-06-15T15:52:35Z</time>
      </trkpt>
      <trkpt lat="49.41555" lon="-1.17559">
        <ele>5</ele>
        <time>2020-06-15T15:52:36Z</time>
      </trkpt>
      <trkpt lat="49.41556" lon="-1.17553">
        <ele>5</ele>
        <time>2020-06-15T15:52:37Z</time>
      </trkpt>
      <trkpt lat="49.41557" lon="-1.17551">
        <ele>5</ele>
        <time>2020-06-15T15:52:38Z</time>
      </trkpt>
      <trkpt lat="49.41558" lon="-1.17547">
        <ele>5.1</ele>
        <time>2020-06-15T15:52:39Z</time>
      </trkpt>
      <trkpt lat="49.41558" lon="-1.17545">
        <ele>5.1</ele>
        <time>2020-06-15T15:52:40Z</time>
      </trkpt>
      <trkpt lat="49.41559" lon="-1.17543">
        <ele>5.1</ele>
        <time>2020-06-15T15:52:41Z</time>
      </trkpt>
      <trkpt lat="49.4156" lon="-1.17542">
        <ele>5.1</ele>
        <time>2020-06-15T15:52:42Z</time>
      </trkpt>
      <trkpt lat="49.41561" lon="-1.1754">
        <ele>5.1</ele>
        <time>2020-06-15T15:52:43Z</time>
      </trkpt>
      <trkpt lat="49.41562" lon="-1.17539">
        <ele>5.1</ele>
        <time>2020-06-15T15:52:44Z</time>
      </trkpt>
      <trkpt lat="49.41563" lon="-1.17538">
        <ele>5.1</ele>
        <time>2020-06-15T15:52:45Z</time>
      </trkpt>
      <trkpt lat="49.41563" lon="-1.17536">
        <ele>5.2</ele>
        <time>2020-06-15T15:52:46Z</time>
      </trkpt>
      <trkpt lat="49.41564" lon="-1.17535">
        <ele>5.2</ele>
        <time>2020-06-15T15:52:47Z</time>
      </trkpt>
      <trkpt lat="49.41565" lon="-1.17531">
        <ele>5.2</ele>
        <time>2020-06-15T15:52:48Z</time>
      </trkpt>
      <trkpt lat="49.41566" lon="-1.1753">
        <ele>5.2</ele>
        <time>2020-06-15T15:52:49Z</time>
      </trkpt>
      <trkpt lat="49.41567" lon="-1.17528">
        <ele>5.2</ele>
        <time>2020-06-15T15:52:50Z</time>
      </trkpt>
      <trkpt lat="49.41568" lon="-1.17526">
        <ele>5.2</ele>
        <time>2020-06-15T15:52:51Z</time>
      </trkpt>
      <trkpt lat="49.4157" lon="-1.17525">
        <ele>5.2</ele>
        <time>2020-06-15T15:52:52Z</time>
      </trkpt>
      <trkpt lat="49.41571" lon="-1.17524">
        <ele>5.2</ele>
        <time>2020-06-15T15:52:53Z</time>
      </trkpt>
      <trkpt lat="49.41572" lon="-1.17523">
        <ele>5.2</ele>
        <time>2020-06-15T15:52:54Z</time>
      </trkpt>
      <trkpt lat="49.41573" lon="-1.17523">
        <ele>5.2</ele>
        <time>2020-06-15T15:52:55Z</time>
      </trkpt>
      <trkpt lat="49.41574" lon="-1.17524">
        <ele>5.2</ele>
        <time>2020-06-15T15:52:56Z</time>
      </trkpt>
      <trkpt lat="49.41574" lon="-1.17526">
        <ele>5.2</ele>
        <time>2020-06-15T15:52:57Z</time>
      </trkpt>
      <trkpt lat="49.41575" lon="-1.17528">
        <ele>5.2</ele>
        <time>2020-06-15T15:52:58Z</time>
      </trkpt>
      <trkpt lat="49.41575" lon="-1.17528">
        <ele>5.2</ele>
        <time>2020-06-15T15:52:59Z</time>
      </trkpt>
      <trkpt lat="49.41575" lon="-1.17528">
        <ele>5.2</ele>
        <time>2020-06-15T15:53:00Z</time>
      </trkpt>
      <trkpt lat="49.41575" lon="-1.17528">
        <ele>5.2</ele>
        <time>2020-06-15T15:53:01Z</time>
      </trkpt>
      <trkpt lat="49.41574" lon="-1.17529">
        <ele>5.2</ele>
        <time>2020-06-15T15:53:02Z</time>
      </trkpt>
      <trkpt lat="49.41573" lon="-1.17529">
        <ele>5.2</ele>
        <time>2020-06-15T15:53:03Z</time>
      </trkpt>
      <trkpt lat="49.41572" lon="-1.1753">
        <ele>5.2</ele>
        <time>2020-06-15T15:53:04Z</time>
      </trkpt>
      <trkpt lat="49.41571" lon="-1.1753">
        <ele>5.2</ele>
        <time>2020-06-15T15:53:05Z</time>
      </trkpt>
      <trkpt lat="49.41571" lon="-1.17531">
        <ele>5.3</ele>
        <time>2020-06-15T15:53:06Z</time>
      </trkpt>
      <trkpt lat="49.4157" lon="-1.17532">
        <ele>5.3</ele>
        <time>2020-06-15T15:53:07Z</time>
      </trkpt>
      <trkpt lat="49.41569" lon="-1.17532">
        <ele>5.3</ele>
        <time>2020-06-15T15:53:08Z</time>
      </trkpt>
      <trkpt lat="49.41568" lon="-1.17533">
        <ele>5.3</ele>
        <time>2020-06-15T15:53:09Z</time>
      </trkpt>
      <trkpt lat="49.41567" lon="-1.17533">
        <ele>5.3</ele>
        <time>2020-06-15T15:54:08Z</time>
      </trkpt>
      <trkpt lat="49.41566" lon="-1.17534">
        <ele>5.3</ele>
        <time>2020-06-15T15:54:09Z</time>
      </trkpt>
      <trkpt lat="49.41565" lon="-1.17534">
        <ele>5.3</ele>
        <time>2020-06-15T15:54:10Z</time>
      </trkpt>
      <trkpt lat="49.41565" lon="-1.17534">
        <ele>5.3</ele>
        <time>2020-06-15T15:54:11Z</time>
      </trkpt>
      <trkpt lat="49.41565" lon="-1.17535">
        <ele>5.3</ele>
        <time>2020-06-15T15:54:12Z</time>
      </trkpt>
      <trkpt lat="49.41565" lon="-1.17535">
        <ele>5.3</ele>
        <time>2020-06-15T15:54:13Z</time>
      </trkpt>
      <trkpt lat="49.41565" lon="-1.17535">
        <ele>5.3</ele>
        <time>2020-06-15T15:54:14Z</time>
      </trkpt>
      <trkpt lat="49.41565" lon="-1.17535">
        <ele>5.3</ele>
        <time>2020-06-15T15:54:15Z</time>
      </trkpt>
      <trkpt lat="49.41565" lon="-1.17535">
        <ele>5.3</ele>
        <time>2020-06-15T15:54:16Z</time>
      </trkpt>
      <trkpt lat="49.41565" lon="-1.17536">
        <ele>5.3</ele>
        <time>2020-06-15T15:54:17Z</time>
      </trkpt>
      <trkpt lat="49.41567" lon="-1.17535">
        <ele>5.3</ele>
        <time>2020-06-15T15:54:18Z</time>
      </trkpt>
      <trkpt lat="49.41567" lon="-1.17534">
        <ele>5.3</ele>
        <time>2020-06-15T15:54:19Z</time>
      </trkpt>
      <trkpt lat="49.41567" lon="-1.17534">
        <ele>5.3</ele>
        <time>2020-06-15T15:54:20Z</time>
      </trkpt>
      <trkpt lat="49.41567" lon="-1.17534">
        <ele>5.3</ele>
        <time>2020-06-15T15:54:21Z</time>
      </trkpt>
      <trkpt lat="49.41563" lon="-1.1754">
        <ele>5.3</ele>
        <time>2020-06-15T15:57:09Z</time>
      </trkpt>
      <trkpt lat="49.41563" lon="-1.17538">
        <ele>5.3</ele>
        <time>2020-06-15T15:57:10Z</time>
      </trkpt>
      <trkpt lat="49.41564" lon="-1.17537">
        <ele>5.3</ele>
        <time>2020-06-15T15:57:11Z</time>
      </trkpt>
      <trkpt lat="49.41565" lon="-1.17535">
        <ele>5.3</ele>
        <time>2020-06-15T15:57:12Z</time>
      </trkpt>
      <trkpt lat="49.41566" lon="-1.17534">
        <ele>5.3</ele>
        <time>2020-06-15T15:57:13Z</time>
      </trkpt>
      <trkpt lat="49.41566" lon="-1.17531">
        <ele>5.3</ele>
        <time>2020-06-15T15:57:14Z</time>
      </trkpt>
      <trkpt lat="49.41566" lon="-1.17529">
        <ele>5.3</ele>
        <time>2020-06-15T15:57:15Z</time>
      </trkpt>
      <trkpt lat="49.41567" lon="-1.17527">
        <ele>5.3</ele>
        <time>2020-06-15T15:57:16Z</time>
      </trkpt>
      <trkpt lat="49.41568" lon="-1.17526">
        <ele>5.3</ele>
        <time>2020-06-15T15:57:17Z</time>
      </trkpt>
      <trkpt lat="49.41568" lon="-1.17524">
        <ele>5.3</ele>
        <time>2020-06-15T15:57:18Z</time>
      </trkpt>
      <trkpt lat="49.41568" lon="-1.17522">
        <ele>5.3</ele>
        <time>2020-06-15T15:57:19Z</time>
      </trkpt>
      <trkpt lat="49.41569" lon="-1.17519">
        <ele>5.2</ele>
        <time>2020-06-15T15:57:20Z</time>
      </trkpt>
      <trkpt lat="49.41569" lon="-1.17517">
        <ele>5.1</ele>
        <time>2020-06-15T15:57:21Z</time>
      </trkpt>
      <trkpt lat="49.4157" lon="-1.17515">
        <ele>5</ele>
        <time>2020-06-15T15:57:22Z</time>
      </trkpt>
      <trkpt lat="49.4157" lon="-1.17514">
        <ele>5</ele>
        <time>2020-06-15T15:57:23Z</time>
      </trkpt>
      <trkpt lat="49.4157" lon="-1.17514">
        <ele>5</ele>
        <time>2020-06-15T15:57:24Z</time>
      </trkpt>
      <trkpt lat="49.4157" lon="-1.17512">
        <ele>4.9</ele>
        <time>2020-06-15T15:57:25Z</time>
      </trkpt>
      <trkpt lat="49.41569" lon="-1.17512">
        <ele>4.8</ele>
        <time>2020-06-15T15:57:26Z</time>
      </trkpt>
      <trkpt lat="49.41569" lon="-1.17511">
        <ele>4.8</ele>
        <time>2020-06-15T15:57:27Z</time>
      </trkpt>
      <trkpt lat="49.41569" lon="-1.17511">
        <ele>4.8</ele>
        <time>2020-06-15T15:57:28Z</time>
      </trkpt>
      <trkpt lat="49.41569" lon="-1.17511">
        <ele>4.8</ele>
        <time>2020-06-15T15:57:29Z</time>
      </trkpt>
      <trkpt lat="49.41569" lon="-1.17511">
        <ele>4.8</ele>
        <time>2020-06-15T15:57:30Z</time>
      </trkpt>
      <trkpt lat="49.41569" lon="-1.17511">
        <ele>4.8</ele>
        <time>2020-06-15T15:57:31Z</time>
      </trkpt>
      <trkpt lat="49.41569" lon="-1.17511">
        <ele>4.8</ele>
        <time>2020-06-15T15:57:32Z</time>
      </trkpt>
      <trkpt lat="49.41569" lon="-1.17511">
        <ele>4.8</ele>
        <time>2020-06-15T15:57:33Z</time>
      </trkpt>
      <trkpt lat="49.41569" lon="-1.17511">
        <ele>4.8</ele>
        <time>2020-06-15T15:57:34Z</time>
      </trkpt>
      <trkpt lat="49.41569" lon="-1.17511">
        <ele>4.8</ele>
        <time>2020-06-15T15:57:35Z</time>
      </trkpt>
      <trkpt lat="49.41572" lon="-1.17508">
        <ele>4.6</ele>
        <time>2020-06-15T15:57:59Z</time>
      </trkpt>
      <trkpt lat="49.41573" lon="-1.17507">
        <ele>4.5</ele>
        <time>2020-06-15T15:58:00Z</time>
      </trkpt>
      <trkpt lat="49.41572" lon="-1.17507">
        <ele>4.5</ele>
        <time>2020-06-15T15:58:01Z</time>
      </trkpt>
      <trkpt lat="49.41573" lon="-1.17505">
        <ele>4.4</ele>
        <time>2020-06-15T15:58:02Z</time>
      </trkpt>
      <trkpt lat="49.41573" lon="-1.17504">
        <ele>4.4</ele>
        <time>2020-06-15T15:58:03Z</time>
      </trkpt>
      <trkpt lat="49.41573" lon="-1.17503">
        <ele>4.3</ele>
        <time>2020-06-15T15:58:04Z</time>
      </trkpt>
      <trkpt lat="49.41574" lon="-1.17501">
        <ele>4.2</ele>
        <time>2020-06-15T15:58:05Z</time>
      </trkpt>
      <trkpt lat="49.41575" lon="-1.17499">
        <ele>4.2</ele>
        <time>2020-06-15T15:58:06Z</time>
      </trkpt>
      <trkpt lat="49.41575" lon="-1.17498">
        <ele>4.1</ele>
        <time>2020-06-15T15:58:07Z</time>
      </trkpt>
      <trkpt lat="49.41576" lon="-1.17497">
        <ele>4</ele>
        <time>2020-06-15T15:58:08Z</time>
      </trkpt>
      <trkpt lat="49.41577" lon="-1.17495">
        <ele>3.9</ele>
        <time>2020-06-15T15:58:09Z</time>
      </trkpt>
      <trkpt lat="49.41577" lon="-1.17494">
        <ele>3.8</ele>
        <time>2020-06-15T15:58:10Z</time>
      </trkpt>
      <trkpt lat="49.41578" lon="-1.17492">
        <ele>3.8</ele>
        <time>2020-06-15T15:58:11Z</time>
      </trkpt>
      <trkpt lat="49.41578" lon="-1.1749">
        <ele>3.7</ele>
        <time>2020-06-15T15:58:12Z</time>
      </trkpt>
      <trkpt lat="49.41579" lon="-1.17488">
        <ele>3.6</ele>
        <time>2020-06-15T15:58:13Z</time>
      </trkpt>
      <trkpt lat="49.41579" lon="-1.17487">
        <ele>3.5</ele>
        <time>2020-06-15T15:58:14Z</time>
      </trkpt>
      <trkpt lat="49.41579" lon="-1.17486">
        <ele>3.5</ele>
        <time>2020-06-15T15:58:15Z</time>
      </trkpt>
      <trkpt lat="49.41581" lon="-1.17485">
        <ele>3.4</ele>
        <time>2020-06-15T15:58:16Z</time>
      </trkpt>
      <trkpt lat="49.41581" lon="-1.17483">
        <ele>3.3</ele>
        <time>2020-06-15T15:58:17Z</time>
      </trkpt>
      <trkpt lat="49.41582" lon="-1.17481">
        <ele>3.2</ele>
        <time>2020-06-15T15:58:18Z</time>
      </trkpt>
      <trkpt lat="49.41582" lon="-1.17479">
        <ele>3.1</ele>
        <time>2020-06-15T15:58:19Z</time>
      </trkpt>
      <trkpt lat="49.41582" lon="-1.17478">
        <ele>3</ele>
        <time>2020-06-15T15:58:20Z</time>
      </trkpt>
      <trkpt lat="49.41582" lon="-1.17477">
        <ele>2.9</ele>
        <time>2020-06-15T15:58:21Z</time>
      </trkpt>
      <trkpt lat="49.41582" lon="-1.17476">
        <ele>2.9</ele>
        <time>2020-06-15T15:58:22Z</time>
      </trkpt>
      <trkpt lat="49.41583" lon="-1.17475">
        <ele>2.8</ele>
        <time>2020-06-15T15:58:23Z</time>
      </trkpt>
      <trkpt lat="49.41583" lon="-1.17474">
        <ele>2.8</ele>
        <time>2020-06-15T15:58:24Z</time>
      </trkpt>
      <trkpt lat="49.41582" lon="-1.17474">
        <ele>2.8</ele>
        <time>2020-06-15T15:58:25Z</time>
      </trkpt>
      <trkpt lat="49.41582" lon="-1.17473">
        <ele>2.7</ele>
        <time>2020-06-15T15:58:26Z</time>
      </trkpt>
      <trkpt lat="49.41583" lon="-1.1747">
        <ele>2.6</ele>
        <time>2020-06-15T15:58:27Z</time>
      </trkpt>
      <trkpt lat="49.41583" lon="-1.17469">
        <ele>2.5</ele>
        <time>2020-06-15T15:58:28Z</time>
      </trkpt>
      <trkpt lat="49.41584" lon="-1.17468">
        <ele>2.5</ele>
        <time>2020-06-15T15:58:29Z</time>
      </trkpt>
      <trkpt lat="49.41584" lon="-1.17467">
        <ele>2.4</ele>
        <time>2020-06-15T15:58:30Z</time>
      </trkpt>
      <trkpt lat="49.41585" lon="-1.17466">
        <ele>2.3</ele>
        <time>2020-06-15T15:58:31Z</time>
      </trkpt>
      <trkpt lat="49.41585" lon="-1.17465">
        <ele>2.3</ele>
        <time>2020-06-15T15:58:32Z</time>
      </trkpt>
      <trkpt lat="49.41585" lon="-1.17463">
        <ele>2.2</ele>
        <time>2020-06-15T15:58:33Z</time>
      </trkpt>
      <trkpt lat="49.41585" lon="-1.17462">
        <ele>2.1</ele>
        <time>2020-06-15T15:58:34Z</time>
      </trkpt>
      <trkpt lat="49.41586" lon="-1.17461">
        <ele>2.1</ele>
        <time>2020-06-15T15:58:35Z</time>
      </trkpt>
      <trkpt lat="49.41586" lon="-1.1746">
        <ele>2</ele>
        <time>2020-06-15T15:58:36Z</time>
      </trkpt>
      <trkpt lat="49.41586" lon="-1.17459">
        <ele>1.9</ele>
        <time>2020-06-15T15:58:37Z</time>
      </trkpt>
      <trkpt lat="49.41587" lon="-1.17457">
        <ele>1.8</ele>
        <time>2020-06-15T15:58:38Z</time>
      </trkpt>
      <trkpt lat="49.41587" lon="-1.17456">
        <ele>1.8</ele>
        <time>2020-06-15T15:58:39Z</time>
      </trkpt>
      <trkpt lat="49.41588" lon="-1.17455">
        <ele>1.7</ele>
        <time>2020-06-15T15:58:40Z</time>
      </trkpt>
      <trkpt lat="49.41589" lon="-1.17454">
        <ele>1.6</ele>
        <time>2020-06-15T15:58:41Z</time>
      </trkpt>
      <trkpt lat="49.41589" lon="-1.17452">
        <ele>1.5</ele>
        <time>2020-06-15T15:58:42Z</time>
      </trkpt>
      <trkpt lat="49.41589" lon="-1.17451">
        <ele>1.4</ele>
        <time>2020-06-15T15:58:43Z</time>
      </trkpt>
      <trkpt lat="49.41589" lon="-1.1745">
        <ele>1.4</ele>
        <time>2020-06-15T15:58:44Z</time>
      </trkpt>
      <trkpt lat="49.41589" lon="-1.17449">
        <ele>1.3</ele>
        <time>2020-06-15T15:58:45Z</time>
      </trkpt>
      <trkpt lat="49.41589" lon="-1.17447">
        <ele>1.2</ele>
        <time>2020-06-15T15:58:46Z</time>
      </trkpt>
      <trkpt lat="49.41589" lon="-1.17447">
        <ele>1.2</ele>
        <time>2020-06-15T15:58:47Z</time>
      </trkpt>
      <trkpt lat="49.41589" lon="-1.17447">
        <ele>1.2</ele>
        <time>2020-06-15T15:58:48Z</time>
      </trkpt>
      <trkpt lat="49.41589" lon="-1.17447">
        <ele>1.2</ele>
        <time>2020-06-15T15:58:49Z</time>
      </trkpt>
      <trkpt lat="49.41589" lon="-1.17447">
        <ele>1.2</ele>
        <time>2020-06-15T15:58:50Z</time>
      </trkpt>
      <trkpt lat="49.41589" lon="-1.17446">
        <ele>1.2</ele>
        <time>2020-06-15T15:58:51Z</time>
      </trkpt>
      <trkpt lat="49.4159" lon="-1.17446">
        <ele>1.2</ele>
        <time>2020-06-15T15:58:52Z</time>
      </trkpt>
      <trkpt lat="49.4159" lon="-1.17446">
        <ele>1.1</ele>
        <time>2020-06-15T15:58:53Z</time>
      </trkpt>
      <trkpt lat="49.4159" lon="-1.17445">
        <ele>1</ele>
        <time>2020-06-15T15:58:54Z</time>
      </trkpt>
      <trkpt lat="49.4159" lon="-1.17444">
        <ele>1</ele>
        <time>2020-06-15T15:58:55Z</time>
      </trkpt>
      <trkpt lat="49.4159" lon="-1.17444">
        <ele>1</ele>
        <time>2020-06-15T15:58:56Z</time>
      </trkpt>
      <trkpt lat="49.4159" lon="-1.17444">
        <ele>1</ele>
        <time>2020-06-15T15:58:57Z</time>
      </trkpt>
      <trkpt lat="49.4159" lon="-1.17453">
        <ele>0.5</ele>
        <time>2020-06-15T15:59:14Z</time>
      </trkpt>
      <trkpt lat="49.41589" lon="-1.17454">
        <ele>0.4</ele>
        <time>2020-06-15T15:59:15Z</time>
      </trkpt>
      <trkpt lat="49.41588" lon="-1.17455">
        <ele>0.3</ele>
        <time>2020-06-15T15:59:16Z</time>
      </trkpt>
      <trkpt lat="49.41588" lon="-1.17455">
        <ele>0.2</ele>
        <time>2020-06-15T15:59:17Z</time>
      </trkpt>
      <trkpt lat="49.41588" lon="-1.17456">
        <ele>0.3</ele>
        <time>2020-06-15T15:59:18Z</time>
      </trkpt>
      <trkpt lat="49.41588" lon="-1.17457">
        <ele>0.4</ele>
        <time>2020-06-15T15:59:19Z</time>
      </trkpt>
      <trkpt lat="49.41587" lon="-1.17459">
        <ele>0.5</ele>
        <time>2020-06-15T15:59:20Z</time>
      </trkpt>
      <trkpt lat="49.41587" lon="-1.1746">
        <ele>0.6</ele>
        <time>2020-06-15T15:59:21Z</time>
      </trkpt>
      <trkpt lat="49.41587" lon="-1.1746">
        <ele>0.7</ele>
        <time>2020-06-15T15:59:22Z</time>
      </trkpt>
      <trkpt lat="49.41586" lon="-1.17462">
        <ele>0.8</ele>
        <time>2020-06-15T15:59:23Z</time>
      </trkpt>
      <trkpt lat="49.41586" lon="-1.17463">
        <ele>0.9</ele>
        <time>2020-06-15T15:59:24Z</time>
      </trkpt>
      <trkpt lat="49.41585" lon="-1.17465">
        <ele>1.1</ele>
        <time>2020-06-15T15:59:25Z</time>
      </trkpt>
      <trkpt lat="49.41585" lon="-1.17466">
        <ele>1.1</ele>
        <time>2020-06-15T15:59:26Z</time>
      </trkpt>
      <trkpt lat="49.41585" lon="-1.17468">
        <ele>1.3</ele>
        <time>2020-06-15T15:59:27Z</time>
      </trkpt>
      <trkpt lat="49.41584" lon="-1.17469">
        <ele>1.4</ele>
        <time>2020-06-15T15:59:28Z</time>
      </trkpt>
      <trkpt lat="49.41585" lon="-1.1747">
        <ele>1.5</ele>
        <time>2020-06-15T15:59:29Z</time>
      </trkpt>
      <trkpt lat="49.41585" lon="-1.17471">
        <ele>1.6</ele>
        <time>2020-06-15T15:59:30Z</time>
      </trkpt>
      <trkpt lat="49.41584" lon="-1.17472">
        <ele>1.7</ele>
        <time>2020-06-15T15:59:31Z</time>
      </trkpt>
      <trkpt lat="49.41584" lon="-1.17474">
        <ele>1.8</ele>
        <time>2020-06-15T15:59:32Z</time>
      </trkpt>
      <trkpt lat="49.41583" lon="-1.17475">
        <ele>1.9</ele>
        <time>2020-06-15T15:59:33Z</time>
      </trkpt>
      <trkpt lat="49.41583" lon="-1.17477">
        <ele>2</ele>
        <time>2020-06-15T15:59:34Z</time>
      </trkpt>
      <trkpt lat="49.41582" lon="-1.17479">
        <ele>2.2</ele>
        <time>2020-06-15T15:59:35Z</time>
      </trkpt>
      <trkpt lat="49.41582" lon="-1.1748">
        <ele>2.2</ele>
        <time>2020-06-15T15:59:36Z</time>
      </trkpt>
      <trkpt lat="49.41582" lon="-1.17481">
        <ele>2.3</ele>
        <time>2020-06-15T15:59:37Z</time>
      </trkpt>
      <trkpt lat="49.41582" lon="-1.17483">
        <ele>2.4</ele>
        <time>2020-06-15T15:59:38Z</time>
      </trkpt>
      <trkpt lat="49.41583" lon="-1.17484">
        <ele>2.5</ele>
        <time>2020-06-15T15:59:39Z</time>
      </trkpt>
      <trkpt lat="49.41583" lon="-1.17485">
        <ele>2.6</ele>
        <time>2020-06-15T15:59:40Z</time>
      </trkpt>
      <trkpt lat="49.41583" lon="-1.17486">
        <ele>2.7</ele>
        <time>2020-06-15T15:59:41Z</time>
      </trkpt>
      <trkpt lat="49.41583" lon="-1.17488">
        <ele>2.9</ele>
        <time>2020-06-15T15:59:42Z</time>
      </trkpt>
      <trkpt lat="49.41582" lon="-1.17489">
        <ele>3</ele>
        <time>2020-06-15T15:59:43Z</time>
      </trkpt>
      <trkpt lat="49.41581" lon="-1.1749">
        <ele>3</ele>
        <time>2020-06-15T15:59:44Z</time>
      </trkpt>
      <trkpt lat="49.41581" lon="-1.17491">
        <ele>3.1</ele>
        <time>2020-06-15T15:59:45Z</time>
      </trkpt>
      <trkpt lat="49.41579" lon="-1.17493">
        <ele>3.3</ele>
        <time>2020-06-15T15:59:46Z</time>
      </trkpt>
      <trkpt lat="49.41579" lon="-1.17494">
        <ele>3.4</ele>
        <time>2020-06-15T15:59:47Z</time>
      </trkpt>
      <trkpt lat="49.41578" lon="-1.17495">
        <ele>3.5</ele>
        <time>2020-06-15T15:59:48Z</time>
      </trkpt>
      <trkpt lat="49.41577" lon="-1.17496">
        <ele>3.6</ele>
        <time>2020-06-15T15:59:49Z</time>
      </trkpt>
      <trkpt lat="49.41577" lon="-1.17497">
        <ele>3.7</ele>
        <time>2020-06-15T15:59:50Z</time>
      </trkpt>
      <trkpt lat="49.41576" lon="-1.17499">
        <ele>3.8</ele>
        <time>2020-06-15T15:59:51Z</time>
      </trkpt>
      <trkpt lat="49.41576" lon="-1.175">
        <ele>3.9</ele>
        <time>2020-06-15T15:59:52Z</time>
      </trkpt>
      <trkpt lat="49.41575" lon="-1.17502">
        <ele>4</ele>
        <time>2020-06-15T15:59:53Z</time>
      </trkpt>
      <trkpt lat="49.41575" lon="-1.17503">
        <ele>4.1</ele>
        <time>2020-06-15T15:59:54Z</time>
      </trkpt>
      <trkpt lat="49.41575" lon="-1.17505">
        <ele>4.2</ele>
        <time>2020-06-15T15:59:55Z</time>
      </trkpt>
      <trkpt lat="49.41575" lon="-1.17506">
        <ele>4.2</ele>
        <time>2020-06-15T15:59:56Z</time>
      </trkpt>
      <trkpt lat="49.41575" lon="-1.17506">
        <ele>4.3</ele>
        <time>2020-06-15T15:59:57Z</time>
      </trkpt>
      <trkpt lat="49.41576" lon="-1.17508">
        <ele>4.4</ele>
        <time>2020-06-15T15:59:58Z</time>
      </trkpt>
      <trkpt lat="49.41576" lon="-1.1751">
        <ele>4.9</ele>
        <time>2020-06-15T15:59:59Z</time>
      </trkpt>
      <trkpt lat="49.41577" lon="-1.17512">
        <ele>4.9</ele>
        <time>2020-06-15T16:00:00Z</time>
      </trkpt>
      <trkpt lat="49.41578" lon="-1.17512">
        <ele>4.8</ele>
        <time>2020-06-15T16:00:01Z</time>
      </trkpt>
      <trkpt lat="49.41579" lon="-1.17512">
        <ele>4.8</ele>
        <time>2020-06-15T16:00:02Z</time>
      </trkpt>
      <trkpt lat="49.41579" lon="-1.17512">
        <ele>4.8</ele>
        <time>2020-06-15T16:00:03Z</time>
      </trkpt>
      <trkpt lat="49.41579" lon="-1.17512">
        <ele>4.8</ele>
        <time>2020-06-15T16:00:04Z</time>
      </trkpt>
      <trkpt lat="49.4158" lon="-1.17513">
        <ele>4.7</ele>
        <time>2020-06-15T16:00:05Z</time>
      </trkpt>
      <trkpt lat="49.41582" lon="-1.17513">
        <ele>4.7</ele>
        <time>2020-06-15T16:00:06Z</time>
      </trkpt>
      <trkpt lat="49.41583" lon="-1.17512">
        <ele>4.6</ele>
        <time>2020-06-15T16:00:07Z</time>
      </trkpt>
      <trkpt lat="49.41585" lon="-1.17511">
        <ele>4.6</ele>
        <time>2020-06-15T16:00:08Z</time>
      </trkpt>
      <trkpt lat="49.41586" lon="-1.17511">
        <ele>4.5</ele>
        <time>2020-06-15T16:00:09Z</time>
      </trkpt>
      <trkpt lat="49.41587" lon="-1.1751">
        <ele>4.5</ele>
        <time>2020-06-15T16:00:10Z</time>
      </trkpt>
      <trkpt lat="49.41588" lon="-1.1751">
        <ele>4.5</ele>
        <time>2020-06-15T16:00:11Z</time>
      </trkpt>
      <trkpt lat="49.4159" lon="-1.1751">
        <ele>4.5</ele>
        <time>2020-06-15T16:00:12Z</time>
      </trkpt>
      <trkpt lat="49.41593" lon="-1.17509">
        <ele>4.4</ele>
        <time>2020-06-15T16:00:13Z</time>
      </trkpt>
      <trkpt lat="49.41594" lon="-1.17509">
        <ele>4.4</ele>
        <time>2020-06-15T16:00:14Z</time>
      </trkpt>
      <trkpt lat="49.41595" lon="-1.17509">
        <ele>4.4</ele>
        <time>2020-06-15T16:00:15Z</time>
      </trkpt>
      <trkpt lat="49.41597" lon="-1.17508">
        <ele>4.4</ele>
        <time>2020-06-15T16:00:16Z</time>
      </trkpt>
      <trkpt lat="49.41598" lon="-1.17508">
        <ele>4.4</ele>
        <time>2020-06-15T16:00:17Z</time>
      </trkpt>
      <trkpt lat="49.41599" lon="-1.17508">
        <ele>4.4</ele>
        <time>2020-06-15T16:00:18Z</time>
      </trkpt>
      <trkpt lat="49.416" lon="-1.17508">
        <ele>4.4</ele>
        <time>2020-06-15T16:00:19Z</time>
      </trkpt>
      <trkpt lat="49.41601" lon="-1.17509">
        <ele>4.4</ele>
        <time>2020-06-15T16:00:20Z</time>
      </trkpt>
      <trkpt lat="49.41602" lon="-1.17509">
        <ele>4.3</ele>
        <time>2020-06-15T16:00:21Z</time>
      </trkpt>
      <trkpt lat="49.41602" lon="-1.1751">
        <ele>4.3</ele>
        <time>2020-06-15T16:00:22Z</time>
      </trkpt>
      <trkpt lat="49.41603" lon="-1.17512">
        <ele>4.3</ele>
        <time>2020-06-15T16:00:23Z</time>
      </trkpt>
      <trkpt lat="49.41604" lon="-1.17513">
        <ele>4.3</ele>
        <time>2020-06-15T16:00:24Z</time>
      </trkpt>
      <trkpt lat="49.41604" lon="-1.17514">
        <ele>4.2</ele>
        <time>2020-06-15T16:00:25Z</time>
      </trkpt>
      <trkpt lat="49.41605" lon="-1.17515">
        <ele>4.3</ele>
        <time>2020-06-15T16:00:26Z</time>
      </trkpt>
      <trkpt lat="49.41606" lon="-1.17516">
        <ele>4.3</ele>
        <time>2020-06-15T16:00:27Z</time>
      </trkpt>
      <trkpt lat="49.41606" lon="-1.17517">
        <ele>4.3</ele>
        <time>2020-06-15T16:00:28Z</time>
      </trkpt>
      <trkpt lat="49.41607" lon="-1.17517">
        <ele>4.3</ele>
        <time>2020-06-15T16:00:29Z</time>
      </trkpt>
      <trkpt lat="49.41607" lon="-1.17518">
        <ele>4.3</ele>
        <time>2020-06-15T16:00:30Z</time>
      </trkpt>
      <trkpt lat="49.41607" lon="-1.17519">
        <ele>4.3</ele>
        <time>2020-06-15T16:00:31Z</time>
      </trkpt>
      <trkpt lat="49.41607" lon="-1.17519">
        <ele>4.3</ele>
        <time>2020-06-15T16:00:32Z</time>
      </trkpt>
      <trkpt lat="49.41606" lon="-1.1752">
        <ele>4.3</ele>
        <time>2020-06-15T16:00:33Z</time>
      </trkpt>
      <trkpt lat="49.41606" lon="-1.17521">
        <ele>4.3</ele>
        <time>2020-06-15T16:00:34Z</time>
      </trkpt>
      <trkpt lat="49.41605" lon="-1.17522">
        <ele>4.3</ele>
        <time>2020-06-15T16:00:35Z</time>
      </trkpt>
      <trkpt lat="49.41605" lon="-1.17522">
        <ele>4.3</ele>
        <time>2020-06-15T16:00:36Z</time>
      </trkpt>
      <trkpt lat="49.41605" lon="-1.17524">
        <ele>4.3</ele>
        <time>2020-06-15T16:00:37Z</time>
      </trkpt>
      <trkpt lat="49.41604" lon="-1.17525">
        <ele>4.3</ele>
        <time>2020-06-15T16:00:38Z</time>
      </trkpt>
      <trkpt lat="49.41604" lon="-1.17525">
        <ele>4.3</ele>
        <time>2020-06-15T16:00:39Z</time>
      </trkpt>
      <trkpt lat="49.41604" lon="-1.17526">
        <ele>4.3</ele>
        <time>2020-06-15T16:00:40Z</time>
      </trkpt>
      <trkpt lat="49.41603" lon="-1.17526">
        <ele>4.3</ele>
        <time>2020-06-15T16:00:41Z</time>
      </trkpt>
      <trkpt lat="49.41603" lon="-1.17526">
        <ele>4.3</ele>
        <time>2020-06-15T16:00:42Z</time>
      </trkpt>
      <trkpt lat="49.41602" lon="-1.17527">
        <ele>4.3</ele>
        <time>2020-06-15T16:00:43Z</time>
      </trkpt>
      <trkpt lat="49.41602" lon="-1.17527">
        <ele>4.3</ele>
        <time>2020-06-15T16:00:44Z</time>
      </trkpt>
      <trkpt lat="49.41602" lon="-1.17528">
        <ele>4.3</ele>
        <time>2020-06-15T16:00:45Z</time>
      </trkpt>
      <trkpt lat="49.41602" lon="-1.17528">
        <ele>4.4</ele>
        <time>2020-06-15T16:00:46Z</time>
      </trkpt>
      <trkpt lat="49.41602" lon="-1.17525">
        <ele>4.4</ele>
        <time>2020-06-15T16:00:47Z</time>
      </trkpt>
      <trkpt lat="49.41603" lon="-1.17522">
        <ele>4.4</ele>
        <time>2020-06-15T16:00:48Z</time>
      </trkpt>
      <trkpt lat="49.41604" lon="-1.17519">
        <ele>4.4</ele>
        <time>2020-06-15T16:00:49Z</time>
      </trkpt>
      <trkpt lat="49.41605" lon="-1.17517">
        <ele>4.4</ele>
        <time>2020-06-15T16:01:16Z</time>
      </trkpt>
      <trkpt lat="49.41605" lon="-1.17514">
        <ele>4.4</ele>
        <time>2020-06-15T16:01:17Z</time>
      </trkpt>
      <trkpt lat="49.41606" lon="-1.17511">
        <ele>4.4</ele>
        <time>2020-06-15T16:01:18Z</time>
      </trkpt>
      <trkpt lat="49.41607" lon="-1.17511">
        <ele>4.4</ele>
        <time>2020-06-15T16:01:19Z</time>
      </trkpt>
      <trkpt lat="49.41608" lon="-1.1751">
        <ele>4.4</ele>
        <time>2020-06-15T16:01:20Z</time>
      </trkpt>
      <trkpt lat="49.41608" lon="-1.1751">
        <ele>4.4</ele>
        <time>2020-06-15T16:01:21Z</time>
      </trkpt>
      <trkpt lat="49.41608" lon="-1.1751">
        <ele>4.4</ele>
        <time>2020-06-15T16:01:22Z</time>
      </trkpt>
      <trkpt lat="49.41608" lon="-1.17509">
        <ele>4.4</ele>
        <time>2020-06-15T16:01:23Z</time>
      </trkpt>
      <trkpt lat="49.41608" lon="-1.17509">
        <ele>4.4</ele>
        <time>2020-06-15T16:01:24Z</time>
      </trkpt>
      <trkpt lat="49.41608" lon="-1.17509">
        <ele>4.4</ele>
        <time>2020-06-15T16:01:25Z</time>
      </trkpt>
      <trkpt lat="49.41608" lon="-1.17509">
        <ele>4.4</ele>
        <time>2020-06-15T16:01:26Z</time>
      </trkpt>
      <trkpt lat="49.41608" lon="-1.17509">
        <ele>4.4</ele>
        <time>2020-06-15T16:01:27Z</time>
      </trkpt>
      <trkpt lat="49.41608" lon="-1.17509">
        <ele>4.4</ele>
        <time>2020-06-15T16:01:28Z</time>
      </trkpt>
      <trkpt lat="49.41585" lon="-1.17517">
        <ele>4.7</ele>
        <time>2020-06-15T16:04:16Z</time>
      </trkpt>
      <trkpt lat="49.41584" lon="-1.17518">
        <ele>4.8</ele>
        <time>2020-06-15T16:04:17Z</time>
      </trkpt>
      <trkpt lat="49.41583" lon="-1.17519">
        <ele>4.8</ele>
        <time>2020-06-15T16:04:18Z</time>
      </trkpt>
      <trkpt lat="49.41582" lon="-1.17522">
        <ele>4.8</ele>
        <time>2020-06-15T16:04:19Z</time>
      </trkpt>
      <trkpt lat="49.41581" lon="-1.17523">
        <ele>4.8</ele>
        <time>2020-06-15T16:04:20Z</time>
      </trkpt>
      <trkpt lat="49.4158" lon="-1.17524">
        <ele>4.9</ele>
        <time>2020-06-15T16:04:21Z</time>
      </trkpt>
      <trkpt lat="49.41579" lon="-1.17526">
        <ele>4.9</ele>
        <time>2020-06-15T16:04:22Z</time>
      </trkpt>
      <trkpt lat="49.41578" lon="-1.17527">
        <ele>4.9</ele>
        <time>2020-06-15T16:04:23Z</time>
      </trkpt>
      <trkpt lat="49.41577" lon="-1.17529">
        <ele>5</ele>
        <time>2020-06-15T16:04:24Z</time>
      </trkpt>
      <trkpt lat="49.41577" lon="-1.1753">
        <ele>5</ele>
        <time>2020-06-15T16:04:25Z</time>
      </trkpt>
      <trkpt lat="49.41577" lon="-1.17529">
        <ele>5</ele>
        <time>2020-06-15T16:04:26Z</time>
      </trkpt>
      <trkpt lat="49.41577" lon="-1.17529">
        <ele>5</ele>
        <time>2020-06-15T16:04:27Z</time>
      </trkpt>
      <trkpt lat="49.41576" lon="-1.17528">
        <ele>5</ele>
        <time>2020-06-15T16:04:28Z</time>
      </trkpt>
      <trkpt lat="49.41575" lon="-1.17528">
        <ele>5</ele>
        <time>2020-06-15T16:04:29Z</time>
      </trkpt>
      <trkpt lat="49.41574" lon="-1.17528">
        <ele>5</ele>
        <time>2020-06-15T16:04:30Z</time>
      </trkpt>
      <trkpt lat="49.41573" lon="-1.17528">
        <ele>5.1</ele>
        <time>2020-06-15T16:04:31Z</time>
      </trkpt>
      <trkpt lat="49.41572" lon="-1.17527">
        <ele>5.1</ele>
        <time>2020-06-15T16:04:32Z</time>
      </trkpt>
      <trkpt lat="49.4157" lon="-1.17526">
        <ele>5.1</ele>
        <time>2020-06-15T16:04:33Z</time>
      </trkpt>
      <trkpt lat="49.41569" lon="-1.17525">
        <ele>5.2</ele>
        <time>2020-06-15T16:04:34Z</time>
      </trkpt>
      <trkpt lat="49.41568" lon="-1.17526">
        <ele>5.2</ele>
        <time>2020-06-15T16:04:35Z</time>
      </trkpt>
      <trkpt lat="49.41567" lon="-1.17525">
        <ele>5.2</ele>
        <time>2020-06-15T16:04:36Z</time>
      </trkpt>
      <trkpt lat="49.41566" lon="-1.17525">
        <ele>5.2</ele>
        <time>2020-06-15T16:04:37Z</time>
      </trkpt>
      <trkpt lat="49.41564" lon="-1.17524">
        <ele>5.3</ele>
        <time>2020-06-15T16:04:38Z</time>
      </trkpt>
      <trkpt lat="49.41562" lon="-1.17523">
        <ele>5.2</ele>
        <time>2020-06-15T16:04:39Z</time>
      </trkpt>
      <trkpt lat="49.41561" lon="-1.17523">
        <ele>5.2</ele>
        <time>2020-06-15T16:04:40Z</time>
      </trkpt>
      <trkpt lat="49.4156" lon="-1.17523">
        <ele>5.2</ele>
        <time>2020-06-15T16:04:41Z</time>
      </trkpt>
      <trkpt lat="49.41559" lon="-1.17523">
        <ele>5.2</ele>
        <time>2020-06-15T16:04:42Z</time>
      </trkpt>
      <trkpt lat="49.41558" lon="-1.17522">
        <ele>5.2</ele>
        <time>2020-06-15T16:04:43Z</time>
      </trkpt>
      <trkpt lat="49.41557" lon="-1.17522">
        <ele>5.2</ele>
        <time>2020-06-15T16:04:44Z</time>
      </trkpt>
      <trkpt lat="49.41555" lon="-1.17521">
        <ele>5.3</ele>
        <time>2020-06-15T16:04:45Z</time>
      </trkpt>
      <trkpt lat="49.41554" lon="-1.1752">
        <ele>5.3</ele>
        <time>2020-06-15T16:04:46Z</time>
      </trkpt>
      <trkpt lat="49.41553" lon="-1.1752">
        <ele>5.3</ele>
        <time>2020-06-15T16:04:47Z</time>
      </trkpt>
      <trkpt lat="49.41551" lon="-1.17519">
        <ele>5.4</ele>
        <time>2020-06-15T16:04:48Z</time>
      </trkpt>
      <trkpt lat="49.4155" lon="-1.17518">
        <ele>5.4</ele>
        <time>2020-06-15T16:04:49Z</time>
      </trkpt>
      <trkpt lat="49.41549" lon="-1.17518">
        <ele>5.4</ele>
        <time>2020-06-15T16:04:50Z</time>
      </trkpt>
      <trkpt lat="49.41549" lon="-1.17518">
        <ele>5.4</ele>
        <time>2020-06-15T16:04:51Z</time>
      </trkpt>
      <trkpt lat="49.41548" lon="-1.17519">
        <ele>5.4</ele>
        <time>2020-06-15T16:04:52Z</time>
      </trkpt>
      <trkpt lat="49.41548" lon="-1.17519">
        <ele>5.4</ele>
        <time>2020-06-15T16:04:53Z</time>
      </trkpt>
      <trkpt lat="49.41547" lon="-1.17519">
        <ele>5.5</ele>
        <time>2020-06-15T16:04:54Z</time>
      </trkpt>
      <trkpt lat="49.41547" lon="-1.1752">
        <ele>5.4</ele>
        <time>2020-06-15T16:04:55Z</time>
      </trkpt>
      <trkpt lat="49.41546" lon="-1.1752">
        <ele>5.4</ele>
        <time>2020-06-15T16:04:56Z</time>
      </trkpt>
      <trkpt lat="49.41545" lon="-1.1752">
        <ele>5.4</ele>
        <time>2020-06-15T16:04:57Z</time>
      </trkpt>
      <trkpt lat="49.41545" lon="-1.1752">
        <ele>5.4</ele>
        <time>2020-06-15T16:04:58Z</time>
      </trkpt>
      <trkpt lat="49.41543" lon="-1.1752">
        <ele>5.5</ele>
        <time>2020-06-15T16:04:59Z</time>
      </trkpt>
      <trkpt lat="49.41542" lon="-1.1752">
        <ele>5.4</ele>
        <time>2020-06-15T16:05:00Z</time>
      </trkpt>
      <trkpt lat="49.41542" lon="-1.17521">
        <ele>5.4</ele>
        <time>2020-06-15T16:05:01Z</time>
      </trkpt>
      <trkpt lat="49.41541" lon="-1.17521">
        <ele>5.5</ele>
        <time>2020-06-15T16:05:02Z</time>
      </trkpt>
      <trkpt lat="49.41539" lon="-1.17521">
        <ele>5.5</ele>
        <time>2020-06-15T16:05:03Z</time>
      </trkpt>
      <trkpt lat="49.41539" lon="-1.1752">
        <ele>5.4</ele>
        <time>2020-06-15T16:05:04Z</time>
      </trkpt>
      <trkpt lat="49.41538" lon="-1.1752">
        <ele>5.5</ele>
        <time>2020-06-15T16:05:05Z</time>
      </trkpt>
      <trkpt lat="49.41537" lon="-1.1752">
        <ele>5.5</ele>
        <time>2020-06-15T16:05:06Z</time>
      </trkpt>
      <trkpt lat="49.41536" lon="-1.17519">
        <ele>5.5</ele>
        <time>2020-06-15T16:05:07Z</time>
      </trkpt>
      <trkpt lat="49.41535" lon="-1.17518">
        <ele>5.5</ele>
        <time>2020-06-15T16:05:08Z</time>
      </trkpt>
      <trkpt lat="49.41535" lon="-1.17515">
        <ele>5.5</ele>
        <time>2020-06-15T16:05:09Z</time>
      </trkpt>
      <trkpt lat="49.41535" lon="-1.17514">
        <ele>5.5</ele>
        <time>2020-06-15T16:05:10Z</time>
      </trkpt>
      <trkpt lat="49.41535" lon="-1.17512">
        <ele>5.5</ele>
        <time>2020-06-15T16:05:11Z</time>
      </trkpt>
      <trkpt lat="49.41535" lon="-1.1751">
        <ele>5.4</ele>
        <time>2020-06-15T16:05:12Z</time>
      </trkpt>
      <trkpt lat="49.41536" lon="-1.17509">
        <ele>5.4</ele>
        <time>2020-06-15T16:05:13Z</time>
      </trkpt>
      <trkpt lat="49.41536" lon="-1.17508">
        <ele>5.4</ele>
        <time>2020-06-15T16:05:14Z</time>
      </trkpt>
      <trkpt lat="49.41537" lon="-1.17508">
        <ele>5.4</ele>
        <time>2020-06-15T16:05:15Z</time>
      </trkpt>
      <trkpt lat="49.41537" lon="-1.17507">
        <ele>5.4</ele>
        <time>2020-06-15T16:05:16Z</time>
      </trkpt>
      <trkpt lat="49.41537" lon="-1.17507">
        <ele>5.4</ele>
        <time>2020-06-15T16:05:17Z</time>
      </trkpt>
      <trkpt lat="49.41537" lon="-1.17507">
        <ele>5.4</ele>
        <time>2020-06-15T16:05:18Z</time>
      </trkpt>
      <trkpt lat="49.41537" lon="-1.17507">
        <ele>5.4</ele>
        <time>2020-06-15T16:05:19Z</time>
      </trkpt>
      <trkpt lat="49.41537" lon="-1.17507">
        <ele>5.4</ele>
        <time>2020-06-15T16:05:20Z</time>
      </trkpt>
      <trkpt lat="49.41537" lon="-1.17507">
        <ele>5.4</ele>
        <time>2020-06-15T16:05:21Z</time>
      </trkpt>
      <trkpt lat="49.41537" lon="-1.17507">
        <ele>5.4</ele>
        <time>2020-06-15T16:05:22Z</time>
      </trkpt>
      <trkpt lat="49.41537" lon="-1.17507">
        <ele>5.4</ele>
        <time>2020-06-15T16:05:23Z</time>
      </trkpt>
      <trkpt lat="49.41537" lon="-1.17507">
        <ele>5.4</ele>
        <time>2020-06-15T16:05:24Z</time>
      </trkpt>
      <trkpt lat="49.41536" lon="-1.17506">
        <ele>5.3</ele>
        <time>2020-06-15T16:05:25Z</time>
      </trkpt>
      <trkpt lat="49.41535" lon="-1.17501">
        <ele>5.2</ele>
        <time>2020-06-15T16:05:33Z</time>
      </trkpt>
      <trkpt lat="49.41533" lon="-1.175">
        <ele>5.2</ele>
        <time>2020-06-15T16:05:34Z</time>
      </trkpt>
      <trkpt lat="49.41532" lon="-1.175">
        <ele>5.3</ele>
        <time>2020-06-15T16:05:35Z</time>
      </trkpt>
      <trkpt lat="49.41531" lon="-1.175">
        <ele>5.3</ele>
        <time>2020-06-15T16:05:36Z</time>
      </trkpt>
      <trkpt lat="49.41531" lon="-1.175">
        <ele>5.2</ele>
        <time>2020-06-15T16:05:37Z</time>
      </trkpt>
      <trkpt lat="49.41531" lon="-1.17499">
        <ele>5.2</ele>
        <time>2020-06-15T16:05:38Z</time>
      </trkpt>
      <trkpt lat="49.41531" lon="-1.17498">
        <ele>5.2</ele>
        <time>2020-06-15T16:05:39Z</time>
      </trkpt>
      <trkpt lat="49.4153" lon="-1.17497">
        <ele>5.2</ele>
        <time>2020-06-15T16:05:40Z</time>
      </trkpt>
      <trkpt lat="49.4153" lon="-1.17497">
        <ele>5.2</ele>
        <time>2020-06-15T16:05:41Z</time>
      </trkpt>
      <trkpt lat="49.41531" lon="-1.17497">
        <ele>5.2</ele>
        <time>2020-06-15T16:05:42Z</time>
      </trkpt>
      <trkpt lat="49.41532" lon="-1.17498">
        <ele>5.2</ele>
        <time>2020-06-15T16:05:43Z</time>
      </trkpt>
      <trkpt lat="49.41533" lon="-1.175">
        <ele>5.2</ele>
        <time>2020-06-15T16:05:44Z</time>
      </trkpt>
      <trkpt lat="49.41533" lon="-1.17501">
        <ele>5.2</ele>
        <time>2020-06-15T16:05:45Z</time>
      </trkpt>
      <trkpt lat="49.41534" lon="-1.17503">
        <ele>5.2</ele>
        <time>2020-06-15T16:05:46Z</time>
      </trkpt>
      <trkpt lat="49.41534" lon="-1.17505">
        <ele>5.2</ele>
        <time>2020-06-15T16:05:47Z</time>
      </trkpt>
      <trkpt lat="49.41535" lon="-1.17506">
        <ele>5.2</ele>
        <time>2020-06-15T16:05:48Z</time>
      </trkpt>
      <trkpt lat="49.41535" lon="-1.17508">
        <ele>5.3</ele>
        <time>2020-06-15T16:05:49Z</time>
      </trkpt>
      <trkpt lat="49.41535" lon="-1.17508">
        <ele>5.3</ele>
        <time>2020-06-15T16:05:50Z</time>
      </trkpt>
      <trkpt lat="49.41536" lon="-1.17509">
        <ele>5.3</ele>
        <time>2020-06-15T16:05:51Z</time>
      </trkpt>
      <trkpt lat="49.41536" lon="-1.17511">
        <ele>5.3</ele>
        <time>2020-06-15T16:05:52Z</time>
      </trkpt>
      <trkpt lat="49.41537" lon="-1.17512">
        <ele>5.3</ele>
        <time>2020-06-15T16:05:53Z</time>
      </trkpt>
      <trkpt lat="49.41537" lon="-1.17514">
        <ele>5.3</ele>
        <time>2020-06-15T16:05:54Z</time>
      </trkpt>
      <trkpt lat="49.41538" lon="-1.17516">
        <ele>5.3</ele>
        <time>2020-06-15T16:05:55Z</time>
      </trkpt>
      <trkpt lat="49.41539" lon="-1.17518">
        <ele>5.2</ele>
        <time>2020-06-15T16:05:56Z</time>
      </trkpt>
      <trkpt lat="49.41602" lon="-1.17537">
        <ele>5.8</ele>
        <time>2020-06-15T16:17:59Z</time>
      </trkpt>
      <trkpt lat="49.416" lon="-1.17533">
        <ele>5.8</ele>
        <time>2020-06-15T16:18:00Z</time>
      </trkpt>
      <trkpt lat="49.41599" lon="-1.17531">
        <ele>5.9</ele>
        <time>2020-06-15T16:18:01Z</time>
      </trkpt>
      <trkpt lat="49.41598" lon="-1.17529">
        <ele>5.9</ele>
        <time>2020-06-15T16:18:02Z</time>
      </trkpt>
      <trkpt lat="49.41597" lon="-1.17527">
        <ele>6</ele>
        <time>2020-06-15T16:18:03Z</time>
      </trkpt>
      <trkpt lat="49.41596" lon="-1.17527">
        <ele>6</ele>
        <time>2020-06-15T16:18:04Z</time>
      </trkpt>
      <trkpt lat="49.41595" lon="-1.17526">
        <ele>6</ele>
        <time>2020-06-15T16:18:05Z</time>
      </trkpt>
      <trkpt lat="49.41593" lon="-1.17526">
        <ele>6</ele>
        <time>2020-06-15T16:18:06Z</time>
      </trkpt>
      <trkpt lat="49.41591" lon="-1.17526">
        <ele>6</ele>
        <time>2020-06-15T16:18:07Z</time>
      </trkpt>
      <trkpt lat="49.41589" lon="-1.17528">
        <ele>6</ele>
        <time>2020-06-15T16:18:08Z</time>
      </trkpt>
      <trkpt lat="49.41588" lon="-1.17529">
        <ele>5.8</ele>
        <time>2020-06-15T16:18:09Z</time>
      </trkpt>
      <trkpt lat="49.41582" lon="-1.17527">
        <ele>5.7</ele>
        <time>2020-06-15T16:18:10Z</time>
      </trkpt>
      <trkpt lat="49.41578" lon="-1.17525">
        <ele>5.5</ele>
        <time>2020-06-15T16:18:11Z</time>
      </trkpt>
      <trkpt lat="49.41571" lon="-1.17521">
        <ele>5.1</ele>
        <time>2020-06-15T16:18:12Z</time>
      </trkpt>
      <trkpt lat="49.4157" lon="-1.17519">
        <ele>5.1</ele>
        <time>2020-06-15T16:18:13Z</time>
      </trkpt>
      <trkpt lat="49.41571" lon="-1.17518">
        <ele>5.1</ele>
        <time>2020-06-15T16:18:14Z</time>
      </trkpt>
      <trkpt lat="49.41571" lon="-1.17516">
        <ele>5.1</ele>
        <time>2020-06-15T16:18:15Z</time>
      </trkpt>
      <trkpt lat="49.41568" lon="-1.17514">
        <ele>5</ele>
        <time>2020-06-15T16:18:16Z</time>
      </trkpt>
      <trkpt lat="49.41567" lon="-1.17513">
        <ele>5</ele>
        <time>2020-06-15T16:18:17Z</time>
      </trkpt>
      <trkpt lat="49.41566" lon="-1.17512">
        <ele>5</ele>
        <time>2020-06-15T16:18:18Z</time>
      </trkpt>
      <trkpt lat="49.41563" lon="-1.17508">
        <ele>5.1</ele>
        <time>2020-06-15T16:18:19Z</time>
      </trkpt>
      <trkpt lat="49.41562" lon="-1.17507">
        <ele>5.1</ele>
        <time>2020-06-15T16:18:20Z</time>
      </trkpt>
      <trkpt lat="49.4156" lon="-1.17506">
        <ele>5.2</ele>
        <time>2020-06-15T16:18:21Z</time>
      </trkpt>
      <trkpt lat="49.41559" lon="-1.17505">
        <ele>5.2</ele>
        <time>2020-06-15T16:18:22Z</time>
      </trkpt>
      <trkpt lat="49.41557" lon="-1.17505">
        <ele>5.2</ele>
        <time>2020-06-15T16:18:23Z</time>
      </trkpt>
      <trkpt lat="49.41556" lon="-1.17504">
        <ele>5.2</ele>
        <time>2020-06-15T16:18:24Z</time>
      </trkpt>
      <trkpt lat="49.41554" lon="-1.17503">
        <ele>5.1</ele>
        <time>2020-06-15T16:18:25Z</time>
      </trkpt>
      <trkpt lat="49.41553" lon="-1.17502">
        <ele>5.2</ele>
        <time>2020-06-15T16:18:26Z</time>
      </trkpt>
      <trkpt lat="49.41552" lon="-1.17501">
        <ele>5.2</ele>
        <time>2020-06-15T16:18:27Z</time>
      </trkpt>
      <trkpt lat="49.41551" lon="-1.175">
        <ele>5.2</ele>
        <time>2020-06-15T16:18:28Z</time>
      </trkpt>
      <trkpt lat="49.4155" lon="-1.175">
        <ele>5.1</ele>
        <time>2020-06-15T16:18:29Z</time>
      </trkpt>
      <trkpt lat="49.4155" lon="-1.17498">
        <ele>5.1</ele>
        <time>2020-06-15T16:18:30Z</time>
      </trkpt>
      <trkpt lat="49.41549" lon="-1.17498">
        <ele>5.1</ele>
        <time>2020-06-15T16:18:31Z</time>
      </trkpt>
      <trkpt lat="49.41549" lon="-1.17498">
        <ele>5.1</ele>
        <time>2020-06-15T16:18:32Z</time>
      </trkpt>
      <trkpt lat="49.41549" lon="-1.17497">
        <ele>5.1</ele>
        <time>2020-06-15T16:18:33Z</time>
      </trkpt>
      <trkpt lat="49.41549" lon="-1.17497">
        <ele>5.1</ele>
        <time>2020-06-15T16:18:34Z</time>
      </trkpt>
      <trkpt lat="49.41544" lon="-1.17501">
        <ele>4.9</ele>
        <time>2020-06-15T16:18:35Z</time>
      </trkpt>
      <trkpt lat="49.41539" lon="-1.17506">
        <ele>4.9</ele>
        <time>2020-06-15T16:18:36Z</time>
      </trkpt>
      <trkpt lat="49.41534" lon="-1.1751">
        <ele>4.9</ele>
        <time>2020-06-15T16:20:30Z</time>
      </trkpt>
      <trkpt lat="49.41528" lon="-1.17515">
        <ele>5</ele>
        <time>2020-06-15T16:20:31Z</time>
      </trkpt>
      <trkpt lat="49.41526" lon="-1.17517">
        <ele>5</ele>
        <time>2020-06-15T16:20:32Z</time>
      </trkpt>
      <trkpt lat="49.41523" lon="-1.17519">
        <ele>5</ele>
        <time>2020-06-15T16:20:33Z</time>
      </trkpt>
      <trkpt lat="49.41521" lon="-1.17521">
        <ele>4.9</ele>
        <time>2020-06-15T16:20:34Z</time>
      </trkpt>
      <trkpt lat="49.41518" lon="-1.17523">
        <ele>4.9</ele>
        <time>2020-06-15T16:20:35Z</time>
      </trkpt>
      <trkpt lat="49.41515" lon="-1.17526">
        <ele>4.9</ele>
        <time>2020-06-15T16:20:36Z</time>
      </trkpt>
      <trkpt lat="49.41514" lon="-1.17526">
        <ele>4.8</ele>
        <time>2020-06-15T16:20:37Z</time>
      </trkpt>
      <trkpt lat="49.41512" lon="-1.17528">
        <ele>4.8</ele>
        <time>2020-06-15T16:20:38Z</time>
      </trkpt>
      <trkpt lat="49.4151" lon="-1.17529">
        <ele>4.8</ele>
        <time>2020-06-15T16:20:39Z</time>
      </trkpt>
      <trkpt lat="49.41509" lon="-1.17531">
        <ele>4.8</ele>
        <time>2020-06-15T16:20:40Z</time>
      </trkpt>
      <trkpt lat="49.41508" lon="-1.17532">
        <ele>4.8</ele>
        <time>2020-06-15T16:20:41Z</time>
      </trkpt>
      <trkpt lat="49.41507" lon="-1.17533">
        <ele>4.7</ele>
        <time>2020-06-15T16:20:42Z</time>
      </trkpt>
      <trkpt lat="49.41506" lon="-1.17536">
        <ele>4.7</ele>
        <time>2020-06-15T16:20:43Z</time>
      </trkpt>
      <trkpt lat="49.41505" lon="-1.17537">
        <ele>4.6</ele>
        <time>2020-06-15T16:20:44Z</time>
      </trkpt>
      <trkpt lat="49.41505" lon="-1.17539">
        <ele>4.6</ele>
        <time>2020-06-15T16:20:45Z</time>
      </trkpt>
      <trkpt lat="49.41505" lon="-1.1754">
        <ele>4.5</ele>
        <time>2020-06-15T16:20:46Z</time>
      </trkpt>
      <trkpt lat="49.41505" lon="-1.17541">
        <ele>4.5</ele>
        <time>2020-06-15T16:20:47Z</time>
      </trkpt>
      <trkpt lat="49.41505" lon="-1.17541">
        <ele>4.5</ele>
        <time>2020-06-15T16:20:48Z</time>
      </trkpt>
      <trkpt lat="49.41505" lon="-1.17541">
        <ele>4.5</ele>
        <time>2020-06-15T16:20:49Z</time>
      </trkpt>
      <trkpt lat="49.41505" lon="-1.17541">
        <ele>4.5</ele>
        <time>2020-06-15T16:20:50Z</time>
      </trkpt>
      <trkpt lat="49.41505" lon="-1.17541">
        <ele>4.5</ele>
        <time>2020-06-15T16:20:51Z</time>
      </trkpt>
      <trkpt lat="49.41505" lon="-1.17541">
        <ele>4.4</ele>
        <time>2020-06-15T16:20:52Z</time>
      </trkpt>
      <trkpt lat="49.41504" lon="-1.17541">
        <ele>4.4</ele>
        <time>2020-06-15T16:20:53Z</time>
      </trkpt>
      <trkpt lat="49.41504" lon="-1.17541">
        <ele>4.4</ele>
        <time>2020-06-15T16:20:54Z</time>
      </trkpt>
      <trkpt lat="49.41504" lon="-1.17541">
        <ele>4.4</ele>
        <time>2020-06-15T16:20:55Z</time>
      </trkpt>
      <trkpt lat="49.41503" lon="-1.17544">
        <ele>4.4</ele>
        <time>2020-06-15T16:20:56Z</time>
      </trkpt>
      <trkpt lat="49.41503" lon="-1.17546">
        <ele>4.3</ele>
        <time>2020-06-15T16:21:04Z</time>
      </trkpt>
      <trkpt lat="49.41502" lon="-1.17548">
        <ele>4.3</ele>
        <time>2020-06-15T16:21:05Z</time>
      </trkpt>
      <trkpt lat="49.41501" lon="-1.17551">
        <ele>4.2</ele>
        <time>2020-06-15T16:21:06Z</time>
      </trkpt>
      <trkpt lat="49.41499" lon="-1.17554">
        <ele>4.1</ele>
        <time>2020-06-15T16:21:07Z</time>
      </trkpt>
      <trkpt lat="49.41499" lon="-1.17556">
        <ele>4.1</ele>
        <time>2020-06-15T16:21:08Z</time>
      </trkpt>
      <trkpt lat="49.41497" lon="-1.17561">
        <ele>4</ele>
        <time>2020-06-15T16:21:09Z</time>
      </trkpt>
      <trkpt lat="49.41496" lon="-1.17563">
        <ele>3.9</ele>
        <time>2020-06-15T16:21:10Z</time>
      </trkpt>
      <trkpt lat="49.41493" lon="-1.17564">
        <ele>3.8</ele>
        <time>2020-06-15T16:21:11Z</time>
      </trkpt>
      <trkpt lat="49.41489" lon="-1.17564">
        <ele>3.8</ele>
        <time>2020-06-15T16:21:12Z</time>
      </trkpt>
      <trkpt lat="49.41488" lon="-1.17564">
        <ele>3.8</ele>
        <time>2020-06-15T16:21:13Z</time>
      </trkpt>
      <trkpt lat="49.41484" lon="-1.17562">
        <ele>3.7</ele>
        <time>2020-06-15T16:21:14Z</time>
      </trkpt>
      <trkpt lat="49.4148" lon="-1.1756">
        <ele>3.8</ele>
        <time>2020-06-15T16:21:15Z</time>
      </trkpt>
      <trkpt lat="49.41477" lon="-1.17558">
        <ele>3.7</ele>
        <time>2020-06-15T16:21:16Z</time>
      </trkpt>
      <trkpt lat="49.41475" lon="-1.17557">
        <ele>3.8</ele>
        <time>2020-06-15T16:21:17Z</time>
      </trkpt>
      <trkpt lat="49.41472" lon="-1.17555">
        <ele>3.7</ele>
        <time>2020-06-15T16:21:18Z</time>
      </trkpt>
      <trkpt lat="49.41469" lon="-1.17552">
        <ele>3.8</ele>
        <time>2020-06-15T16:21:19Z</time>
      </trkpt>
      <trkpt lat="49.41466" lon="-1.17551">
        <ele>3.8</ele>
        <time>2020-06-15T16:21:20Z</time>
      </trkpt>
      <trkpt lat="49.41466" lon="-1.1755">
        <ele>3.7</ele>
        <time>2020-06-15T16:21:21Z</time>
      </trkpt>
      <trkpt lat="49.41464" lon="-1.17549">
        <ele>3.8</ele>
        <time>2020-06-15T16:21:22Z</time>
      </trkpt>
      <trkpt lat="49.41463" lon="-1.17548">
        <ele>3.7</ele>
        <time>2020-06-15T16:21:23Z</time>
      </trkpt>
      <trkpt lat="49.41461" lon="-1.17547">
        <ele>3.7</ele>
        <time>2020-06-15T16:21:24Z</time>
      </trkpt>
      <trkpt lat="49.41459" lon="-1.17547">
        <ele>3.7</ele>
        <time>2020-06-15T16:21:25Z</time>
      </trkpt>
      <trkpt lat="49.41459" lon="-1.17547">
        <ele>3.7</ele>
        <time>2020-06-15T16:21:26Z</time>
      </trkpt>
      <trkpt lat="49.41458" lon="-1.17547">
        <ele>3.7</ele>
        <time>2020-06-15T16:21:27Z</time>
      </trkpt>
      <trkpt lat="49.41458" lon="-1.17547">
        <ele>3.6</ele>
        <time>2020-06-15T16:21:28Z</time>
      </trkpt>
      <trkpt lat="49.41458" lon="-1.17547">
        <ele>3.6</ele>
        <time>2020-06-15T16:21:29Z</time>
      </trkpt>
      <trkpt lat="49.41458" lon="-1.17547">
        <ele>3.6</ele>
        <time>2020-06-15T16:21:30Z</time>
      </trkpt>
      <trkpt lat="49.41458" lon="-1.17547">
        <ele>3.6</ele>
        <time>2020-06-15T16:21:31Z</time>
      </trkpt>
      <trkpt lat="49.41458" lon="-1.17547">
        <ele>3.6</ele>
        <time>2020-06-15T16:21:32Z</time>
      </trkpt>
      <trkpt lat="49.41458" lon="-1.17547">
        <ele>3.6</ele>
        <time>2020-06-15T16:21:33Z</time>
      </trkpt>
      <trkpt lat="49.41458" lon="-1.17547">
        <ele>3.6</ele>
        <time>2020-06-15T16:21:34Z</time>
      </trkpt>
      <trkpt lat="49.41458" lon="-1.17547">
        <ele>3.6</ele>
        <time>2020-06-15T16:21:35Z</time>
      </trkpt>
      <trkpt lat="49.41458" lon="-1.17547">
        <ele>3.6</ele>
        <time>2020-06-15T16:21:36Z</time>
      </trkpt>
      <trkpt lat="49.41458" lon="-1.17547">
        <ele>3.6</ele>
        <time>2020-06-15T16:21:37Z</time>
      </trkpt>
      <trkpt lat="49.41463" lon="-1.17542">
        <ele>3.7</ele>
        <time>2020-06-15T16:22:46Z</time>
      </trkpt>
      <trkpt lat="49.41463" lon="-1.17542">
        <ele>3.8</ele>
        <time>2020-06-15T16:22:47Z</time>
      </trkpt>
      <trkpt lat="49.41464" lon="-1.17543">
        <ele>3.8</ele>
        <time>2020-06-15T16:22:48Z</time>
      </trkpt>
      <trkpt lat="49.41464" lon="-1.17543">
        <ele>3.8</ele>
        <time>2020-06-15T16:22:49Z</time>
      </trkpt>
      <trkpt lat="49.41465" lon="-1.17544">
        <ele>3.7</ele>
        <time>2020-06-15T16:22:50Z</time>
      </trkpt>
      <trkpt lat="49.41466" lon="-1.17543">
        <ele>3.7</ele>
        <time>2020-06-15T16:22:51Z</time>
      </trkpt>
      <trkpt lat="49.41467" lon="-1.17543">
        <ele>3.8</ele>
        <time>2020-06-15T16:22:52Z</time>
      </trkpt>
      <trkpt lat="49.41467" lon="-1.17543">
        <ele>3.8</ele>
        <time>2020-06-15T16:22:53Z</time>
      </trkpt>
      <trkpt lat="49.41467" lon="-1.17543">
        <ele>3.8</ele>
        <time>2020-06-15T16:22:54Z</time>
      </trkpt>
      <trkpt lat="49.41467" lon="-1.17543">
        <ele>3.8</ele>
        <time>2020-06-15T16:22:55Z</time>
      </trkpt>
      <trkpt lat="49.41467" lon="-1.17543">
        <ele>3.8</ele>
        <time>2020-06-15T16:22:56Z</time>
      </trkpt>
      <trkpt lat="49.41467" lon="-1.17543">
        <ele>3.8</ele>
        <time>2020-06-15T16:22:57Z</time>
      </trkpt>
      <trkpt lat="49.41467" lon="-1.17543">
        <ele>3.8</ele>
        <time>2020-06-15T16:22:58Z</time>
      </trkpt>
      <trkpt lat="49.41467" lon="-1.17543">
        <ele>3.7</ele>
        <time>2020-06-15T16:22:59Z</time>
      </trkpt>
      <trkpt lat="49.41467" lon="-1.17543">
        <ele>3.7</ele>
        <time>2020-06-15T16:23:00Z</time>
      </trkpt>
      <trkpt lat="49.41467" lon="-1.17543">
        <ele>3.7</ele>
        <time>2020-06-15T16:23:01Z</time>
      </trkpt>
      <trkpt lat="49.41467" lon="-1.17543">
        <ele>3.7</ele>
        <time>2020-06-15T16:23:02Z</time>
      </trkpt>
      <trkpt lat="49.41467" lon="-1.17539">
        <ele>3.8</ele>
        <time>2020-06-15T16:23:10Z</time>
      </trkpt>
      <trkpt lat="49.41467" lon="-1.17537">
        <ele>3.8</ele>
        <time>2020-06-15T16:23:11Z</time>
      </trkpt>
      <trkpt lat="49.41466" lon="-1.17534">
        <ele>3.9</ele>
        <time>2020-06-15T16:23:12Z</time>
      </trkpt>
      <trkpt lat="49.41466" lon="-1.17532">
        <ele>3.9</ele>
        <time>2020-06-15T16:23:13Z</time>
      </trkpt>
      <trkpt lat="49.41466" lon="-1.1753">
        <ele>3.9</ele>
        <time>2020-06-15T16:23:14Z</time>
      </trkpt>
      <trkpt lat="49.41467" lon="-1.17526">
        <ele>4</ele>
        <time>2020-06-15T16:23:15Z</time>
      </trkpt>
      <trkpt lat="49.41468" lon="-1.17524">
        <ele>4</ele>
        <time>2020-06-15T16:23:16Z</time>
      </trkpt>
      <trkpt lat="49.41468" lon="-1.17519">
        <ele>4</ele>
        <time>2020-06-15T16:23:17Z</time>
      </trkpt>
      <trkpt lat="49.41469" lon="-1.17518">
        <ele>4.2</ele>
        <time>2020-06-15T16:23:18Z</time>
      </trkpt>
      <trkpt lat="49.41471" lon="-1.17513">
        <ele>4.2</ele>
        <time>2020-06-15T16:23:19Z</time>
      </trkpt>
      <trkpt lat="49.41471" lon="-1.17512">
        <ele>4.2</ele>
        <time>2020-06-15T16:23:20Z</time>
      </trkpt>
      <trkpt lat="49.41473" lon="-1.17508">
        <ele>4.4</ele>
        <time>2020-06-15T16:23:21Z</time>
      </trkpt>
      <trkpt lat="49.41473" lon="-1.17506">
        <ele>4.4</ele>
        <time>2020-06-15T16:23:22Z</time>
      </trkpt>
      <trkpt lat="49.41474" lon="-1.17504">
        <ele>4.4</ele>
        <time>2020-06-15T16:23:23Z</time>
      </trkpt>
      <trkpt lat="49.41475" lon="-1.17501">
        <ele>4.5</ele>
        <time>2020-06-15T16:23:24Z</time>
      </trkpt>
      <trkpt lat="49.41476" lon="-1.175">
        <ele>4.5</ele>
        <time>2020-06-15T16:23:25Z</time>
      </trkpt>
      <trkpt lat="49.41477" lon="-1.17498">
        <ele>4.6</ele>
        <time>2020-06-15T16:23:26Z</time>
      </trkpt>
      <trkpt lat="49.41478" lon="-1.17496">
        <ele>4.6</ele>
        <time>2020-06-15T16:23:27Z</time>
      </trkpt>
      <trkpt lat="49.4148" lon="-1.17495">
        <ele>4.6</ele>
        <time>2020-06-15T16:23:28Z</time>
      </trkpt>
      <trkpt lat="49.41482" lon="-1.17494">
        <ele>4.6</ele>
        <time>2020-06-15T16:23:29Z</time>
      </trkpt>
      <trkpt lat="49.41483" lon="-1.17494">
        <ele>4.6</ele>
        <time>2020-06-15T16:23:30Z</time>
      </trkpt>
      <trkpt lat="49.41484" lon="-1.17493">
        <ele>4.6</ele>
        <time>2020-06-15T16:23:31Z</time>
      </trkpt>
      <trkpt lat="49.41485" lon="-1.17493">
        <ele>4.7</ele>
        <time>2020-06-15T16:23:32Z</time>
      </trkpt>
      <trkpt lat="49.41487" lon="-1.17493">
        <ele>4.7</ele>
        <time>2020-06-15T16:23:33Z</time>
      </trkpt>
      <trkpt lat="49.4149" lon="-1.17496">
        <ele>4.7</ele>
        <time>2020-06-15T16:23:34Z</time>
      </trkpt>
      <trkpt lat="49.41491" lon="-1.17498">
        <ele>4.7</ele>
        <time>2020-06-15T16:23:35Z</time>
      </trkpt>
      <trkpt lat="49.41494" lon="-1.175">
        <ele>4.8</ele>
        <time>2020-06-15T16:23:36Z</time>
      </trkpt>
      <trkpt lat="49.41495" lon="-1.17501">
        <ele>4.8</ele>
        <time>2020-06-15T16:23:37Z</time>
      </trkpt>
      <trkpt lat="49.41498" lon="-1.17503">
        <ele>4.8</ele>
        <time>2020-06-15T16:23:38Z</time>
      </trkpt>
      <trkpt lat="49.41499" lon="-1.17503">
        <ele>4.8</ele>
        <time>2020-06-15T16:23:39Z</time>
      </trkpt>
      <trkpt lat="49.41503" lon="-1.17507">
        <ele>4.9</ele>
        <time>2020-06-15T16:23:40Z</time>
      </trkpt>
      <trkpt lat="49.41505" lon="-1.17508">
        <ele>4.9</ele>
        <time>2020-06-15T16:23:41Z</time>
      </trkpt>
      <trkpt lat="49.41508" lon="-1.17511">
        <ele>4.9</ele>
        <time>2020-06-15T16:23:42Z</time>
      </trkpt>
      <trkpt lat="49.41509" lon="-1.17512">
        <ele>4.9</ele>
        <time>2020-06-15T16:23:43Z</time>
      </trkpt>
      <trkpt lat="49.41512" lon="-1.17514">
        <ele>4.9</ele>
        <time>2020-06-15T16:23:44Z</time>
      </trkpt>
      <trkpt lat="49.41514" lon="-1.17517">
        <ele>4.9</ele>
        <time>2020-06-15T16:23:45Z</time>
      </trkpt>
      <trkpt lat="49.41517" lon="-1.1752">
        <ele>4.9</ele>
        <time>2020-06-15T16:23:46Z</time>
      </trkpt>
      <trkpt lat="49.4152" lon="-1.17522">
        <ele>4.9</ele>
        <time>2020-06-15T16:23:47Z</time>
      </trkpt>
      <trkpt lat="49.41524" lon="-1.17525">
        <ele>4.9</ele>
        <time>2020-06-15T16:23:48Z</time>
      </trkpt>
      <trkpt lat="49.41527" lon="-1.17528">
        <ele>4.9</ele>
        <time>2020-06-15T16:23:49Z</time>
      </trkpt>
      <trkpt lat="49.4153" lon="-1.17532">
        <ele>4.9</ele>
        <time>2020-06-15T16:23:50Z</time>
      </trkpt>
      <trkpt lat="49.41533" lon="-1.17535">
        <ele>4.9</ele>
        <time>2020-06-15T16:23:51Z</time>
      </trkpt>
      <trkpt lat="49.41535" lon="-1.17538">
        <ele>4.9</ele>
        <time>2020-06-15T16:23:52Z</time>
      </trkpt>
      <trkpt lat="49.41538" lon="-1.17542">
        <ele>4.9</ele>
        <time>2020-06-15T16:23:53Z</time>
      </trkpt>
      <trkpt lat="49.4154" lon="-1.17546">
        <ele>4.9</ele>
        <time>2020-06-15T16:23:54Z</time>
      </trkpt>
      <trkpt lat="49.41542" lon="-1.17551">
        <ele>4.9</ele>
        <time>2020-06-15T16:23:55Z</time>
      </trkpt>
      <trkpt lat="49.41543" lon="-1.17555">
        <ele>4.9</ele>
        <time>2020-06-15T16:23:56Z</time>
      </trkpt>
      <trkpt lat="49.41545" lon="-1.1756">
        <ele>4.8</ele>
        <time>2020-06-15T16:23:57Z</time>
      </trkpt>
      <trkpt lat="49.41547" lon="-1.17564">
        <ele>4.8</ele>
        <time>2020-06-15T16:23:58Z</time>
      </trkpt>
      <trkpt lat="49.41547" lon="-1.17568">
        <ele>4.8</ele>
        <time>2020-06-15T16:23:59Z</time>
      </trkpt>
      <trkpt lat="49.41546" lon="-1.17574">
        <ele>4.5</ele>
        <time>2020-06-15T16:24:00Z</time>
      </trkpt>
      <trkpt lat="49.41545" lon="-1.17577">
        <ele>4.5</ele>
        <time>2020-06-15T16:24:01Z</time>
      </trkpt>
      <trkpt lat="49.41544" lon="-1.17581">
        <ele>4.5</ele>
        <time>2020-06-15T16:24:02Z</time>
      </trkpt>
      <trkpt lat="49.41542" lon="-1.17584">
        <ele>4.4</ele>
        <time>2020-06-15T16:24:03Z</time>
      </trkpt>
      <trkpt lat="49.41541" lon="-1.17588">
        <ele>4.3</ele>
        <time>2020-06-15T16:24:04Z</time>
      </trkpt>
      <trkpt lat="49.41539" lon="-1.17592">
        <ele>4.3</ele>
        <time>2020-06-15T16:24:05Z</time>
      </trkpt>
      <trkpt lat="49.41537" lon="-1.17595">
        <ele>4.2</ele>
        <time>2020-06-15T16:24:06Z</time>
      </trkpt>
      <trkpt lat="49.41536" lon="-1.17599">
        <ele>4.2</ele>
        <time>2020-06-15T16:24:07Z</time>
      </trkpt>
      <trkpt lat="49.41534" lon="-1.17602">
        <ele>4.1</ele>
        <time>2020-06-15T16:24:08Z</time>
      </trkpt>
      <trkpt lat="49.41532" lon="-1.17606">
        <ele>4.1</ele>
        <time>2020-06-15T16:24:09Z</time>
      </trkpt>
      <trkpt lat="49.41531" lon="-1.1761">
        <ele>4.1</ele>
        <time>2020-06-15T16:24:10Z</time>
      </trkpt>
      <trkpt lat="49.41529" lon="-1.17614">
        <ele>4</ele>
        <time>2020-06-15T16:24:11Z</time>
      </trkpt>
      <trkpt lat="49.41528" lon="-1.17617">
        <ele>4</ele>
        <time>2020-06-15T16:24:12Z</time>
      </trkpt>
      <trkpt lat="49.41526" lon="-1.17621">
        <ele>4</ele>
        <time>2020-06-15T16:24:13Z</time>
      </trkpt>
      <trkpt lat="49.41525" lon="-1.17625">
        <ele>3.9</ele>
        <time>2020-06-15T16:24:14Z</time>
      </trkpt>
      <trkpt lat="49.41523" lon="-1.17628">
        <ele>3.9</ele>
        <time>2020-06-15T16:24:15Z</time>
      </trkpt>
      <trkpt lat="49.41521" lon="-1.17633">
        <ele>3.9</ele>
        <time>2020-06-15T16:24:16Z</time>
      </trkpt>
      <trkpt lat="49.41521" lon="-1.17635">
        <ele>3.9</ele>
        <time>2020-06-15T16:24:17Z</time>
      </trkpt>
      <trkpt lat="49.41519" lon="-1.17639">
        <ele>3.8</ele>
        <time>2020-06-15T16:24:18Z</time>
      </trkpt>
      <trkpt lat="49.41518" lon="-1.17643">
        <ele>3.8</ele>
        <time>2020-06-15T16:24:19Z</time>
      </trkpt>
      <trkpt lat="49.41517" lon="-1.17646">
        <ele>3.8</ele>
        <time>2020-06-15T16:24:20Z</time>
      </trkpt>
      <trkpt lat="49.41515" lon="-1.17652">
        <ele>3.7</ele>
        <time>2020-06-15T16:24:21Z</time>
      </trkpt>
      <trkpt lat="49.41514" lon="-1.17654">
        <ele>3.7</ele>
        <time>2020-06-15T16:24:22Z</time>
      </trkpt>
      <trkpt lat="49.41513" lon="-1.17658">
        <ele>3.7</ele>
        <time>2020-06-15T16:24:23Z</time>
      </trkpt>
      <trkpt lat="49.41511" lon="-1.17662">
        <ele>3.7</ele>
        <time>2020-06-15T16:24:24Z</time>
      </trkpt>
      <trkpt lat="49.4151" lon="-1.17664">
        <ele>3.7</ele>
        <time>2020-06-15T16:24:25Z</time>
      </trkpt>
      <trkpt lat="49.41508" lon="-1.17669">
        <ele>3.6</ele>
        <time>2020-06-15T16:24:26Z</time>
      </trkpt>
      <trkpt lat="49.41507" lon="-1.1767">
        <ele>3.6</ele>
        <time>2020-06-15T16:24:27Z</time>
      </trkpt>
      <trkpt lat="49.41505" lon="-1.17676">
        <ele>3.6</ele>
        <time>2020-06-15T16:24:28Z</time>
      </trkpt>
      <trkpt lat="49.41505" lon="-1.17678">
        <ele>3.6</ele>
        <time>2020-06-15T16:24:29Z</time>
      </trkpt>
      <trkpt lat="49.41503" lon="-1.17683">
        <ele>3.6</ele>
        <time>2020-06-15T16:24:30Z</time>
      </trkpt>
      <trkpt lat="49.41503" lon="-1.17685">
        <ele>3.6</ele>
        <time>2020-06-15T16:24:31Z</time>
      </trkpt>
      <trkpt lat="49.41502" lon="-1.17691">
        <ele>3.5</ele>
        <time>2020-06-15T16:24:32Z</time>
      </trkpt>
      <trkpt lat="49.41504" lon="-1.17695">
        <ele>3.5</ele>
        <time>2020-06-15T16:24:33Z</time>
      </trkpt>
      <trkpt lat="49.41505" lon="-1.17696">
        <ele>3.5</ele>
        <time>2020-06-15T16:24:34Z</time>
      </trkpt>
      <trkpt lat="49.41507" lon="-1.17698">
        <ele>3.5</ele>
        <time>2020-06-15T16:24:35Z</time>
      </trkpt>
      <trkpt lat="49.41511" lon="-1.17699">
        <ele>3.5</ele>
        <time>2020-06-15T16:24:36Z</time>
      </trkpt>
      <trkpt lat="49.41514" lon="-1.177">
        <ele>3.4</ele>
        <time>2020-06-15T16:24:37Z</time>
      </trkpt>
      <trkpt lat="49.41518" lon="-1.17701">
        <ele>3.4</ele>
        <time>2020-06-15T16:24:38Z</time>
      </trkpt>
      <trkpt lat="49.41522" lon="-1.17703">
        <ele>3.4</ele>
        <time>2020-06-15T16:24:39Z</time>
      </trkpt>
      <trkpt lat="49.41526" lon="-1.17705">
        <ele>3.3</ele>
        <time>2020-06-15T16:24:40Z</time>
      </trkpt>
      <trkpt lat="49.4153" lon="-1.17707">
        <ele>3.3</ele>
        <time>2020-06-15T16:24:41Z</time>
      </trkpt>
      <trkpt lat="49.41535" lon="-1.1771">
        <ele>3.3</ele>
        <time>2020-06-15T16:24:42Z</time>
      </trkpt>
      <trkpt lat="49.4154" lon="-1.17713">
        <ele>3.3</ele>
        <time>2020-06-15T16:24:43Z</time>
      </trkpt>
      <trkpt lat="49.41544" lon="-1.17716">
        <ele>3.3</ele>
        <time>2020-06-15T16:24:44Z</time>
      </trkpt>
      <trkpt lat="49.41549" lon="-1.17719">
        <ele>3.2</ele>
        <time>2020-06-15T16:24:45Z</time>
      </trkpt>
      <trkpt lat="49.41553" lon="-1.17722">
        <ele>3.2</ele>
        <time>2020-06-15T16:24:46Z</time>
      </trkpt>
      <trkpt lat="49.41558" lon="-1.17726">
        <ele>3.2</ele>
        <time>2020-06-15T16:24:47Z</time>
      </trkpt>
      <trkpt lat="49.41562" lon="-1.17729">
        <ele>3.2</ele>
        <time>2020-06-15T16:24:48Z</time>
      </trkpt>
      <trkpt lat="49.41566" lon="-1.17732">
        <ele>3.2</ele>
        <time>2020-06-15T16:24:49Z</time>
      </trkpt>
      <trkpt lat="49.4157" lon="-1.17736">
        <ele>3.2</ele>
        <time>2020-06-15T16:24:50Z</time>
      </trkpt>
      <trkpt lat="49.41575" lon="-1.1774">
        <ele>3.2</ele>
        <time>2020-06-15T16:24:51Z</time>
      </trkpt>
      <trkpt lat="49.41579" lon="-1.17744">
        <ele>3.2</ele>
        <time>2020-06-15T16:24:52Z</time>
      </trkpt>
      <trkpt lat="49.41583" lon="-1.17747">
        <ele>3.2</ele>
        <time>2020-06-15T16:24:53Z</time>
      </trkpt>
      <trkpt lat="49.41587" lon="-1.17751">
        <ele>3.2</ele>
        <time>2020-06-15T16:24:54Z</time>
      </trkpt>
      <trkpt lat="49.41591" lon="-1.17755">
        <ele>3.2</ele>
        <time>2020-06-15T16:24:55Z</time>
      </trkpt>
      <trkpt lat="49.41596" lon="-1.17759">
        <ele>3.2</ele>
        <time>2020-06-15T16:24:56Z</time>
      </trkpt>
      <trkpt lat="49.41601" lon="-1.1776">
        <ele>3.2</ele>
        <time>2020-06-15T16:24:57Z</time>
      </trkpt>
      <trkpt lat="49.41606" lon="-1.1776">
        <ele>3.2</ele>
        <time>2020-06-15T16:24:58Z</time>
      </trkpt>
      <trkpt lat="49.41611" lon="-1.17757">
        <ele>3.2</ele>
        <time>2020-06-15T16:24:59Z</time>
      </trkpt>
      <trkpt lat="49.41615" lon="-1.17753">
        <ele>3.2</ele>
        <time>2020-06-15T16:25:00Z</time>
      </trkpt>
      <trkpt lat="49.41618" lon="-1.17748">
        <ele>3.2</ele>
        <time>2020-06-15T16:25:01Z</time>
      </trkpt>
      <trkpt lat="49.41621" lon="-1.17743">
        <ele>3.2</ele>
        <time>2020-06-15T16:25:02Z</time>
      </trkpt>
      <trkpt lat="49.41624" lon="-1.17738">
        <ele>3.2</ele>
        <time>2020-06-15T16:25:03Z</time>
      </trkpt>
      <trkpt lat="49.41626" lon="-1.17732">
        <ele>3.2</ele>
        <time>2020-06-15T16:25:04Z</time>
      </trkpt>
      <trkpt lat="49.41628" lon="-1.17726">
        <ele>3.2</ele>
        <time>2020-06-15T16:25:05Z</time>
      </trkpt>
      <trkpt lat="49.41629" lon="-1.17719">
        <ele>3.2</ele>
        <time>2020-06-15T16:25:06Z</time>
      </trkpt>
      <trkpt lat="49.4163" lon="-1.17713">
        <ele>3.2</ele>
        <time>2020-06-15T16:25:07Z</time>
      </trkpt>
      <trkpt lat="49.41632" lon="-1.17708">
        <ele>3.2</ele>
        <time>2020-06-15T16:25:08Z</time>
      </trkpt>
      <trkpt lat="49.41634" lon="-1.17702">
        <ele>3.2</ele>
        <time>2020-06-15T16:25:09Z</time>
      </trkpt>
      <trkpt lat="49.41636" lon="-1.17696">
        <ele>3.3</ele>
        <time>2020-06-15T16:25:10Z</time>
      </trkpt>
      <trkpt lat="49.41639" lon="-1.17691">
        <ele>3.3</ele>
        <time>2020-06-15T16:25:11Z</time>
      </trkpt>
      <trkpt lat="49.41641" lon="-1.17686">
        <ele>3.3</ele>
        <time>2020-06-15T16:25:12Z</time>
      </trkpt>
      <trkpt lat="49.41644" lon="-1.17681">
        <ele>3.4</ele>
        <time>2020-06-15T16:25:13Z</time>
      </trkpt>
      <trkpt lat="49.41647" lon="-1.17677">
        <ele>3.4</ele>
        <time>2020-06-15T16:25:14Z</time>
      </trkpt>
      <trkpt lat="49.41651" lon="-1.17675">
        <ele>3.4</ele>
        <time>2020-06-15T16:25:15Z</time>
      </trkpt>
      <trkpt lat="49.41655" lon="-1.17674">
        <ele>3.4</ele>
        <time>2020-06-15T16:25:16Z</time>
      </trkpt>
      <trkpt lat="49.41659" lon="-1.17674">
        <ele>3.4</ele>
        <time>2020-06-15T16:25:17Z</time>
      </trkpt>
      <trkpt lat="49.41662" lon="-1.17675">
        <ele>3.4</ele>
        <time>2020-06-15T16:25:18Z</time>
      </trkpt>
      <trkpt lat="49.41665" lon="-1.17676">
        <ele>3.5</ele>
        <time>2020-06-15T16:25:19Z</time>
      </trkpt>
      <trkpt lat="49.41669" lon="-1.17676">
        <ele>3.5</ele>
        <time>2020-06-15T16:25:20Z</time>
      </trkpt>
      <trkpt lat="49.41669" lon="-1.17676">
        <ele>3.5</ele>
        <time>2020-06-15T16:25:21Z</time>
      </trkpt>
      <trkpt lat="49.4167" lon="-1.17677">
        <ele>3.5</ele>
        <time>2020-06-15T16:25:22Z</time>
      </trkpt>
      <trkpt lat="49.41671" lon="-1.17677">
        <ele>3.5</ele>
        <time>2020-06-15T16:25:23Z</time>
      </trkpt>
      <trkpt lat="49.41672" lon="-1.17678">
        <ele>3.5</ele>
        <time>2020-06-15T16:25:24Z</time>
      </trkpt>
      <trkpt lat="49.41672" lon="-1.17678">
        <ele>3.5</ele>
        <time>2020-06-15T16:25:25Z</time>
      </trkpt>
      <trkpt lat="49.41672" lon="-1.17678">
        <ele>3.5</ele>
        <time>2020-06-15T16:25:26Z</time>
      </trkpt>
      <trkpt lat="49.41672" lon="-1.17677">
        <ele>3.5</ele>
        <time>2020-06-15T16:25:27Z</time>
      </trkpt>
      <trkpt lat="49.41672" lon="-1.17677">
        <ele>3.5</ele>
        <time>2020-06-15T16:25:28Z</time>
      </trkpt>
      <trkpt lat="49.41672" lon="-1.17677">
        <ele>3.5</ele>
        <time>2020-06-15T16:25:29Z</time>
      </trkpt>
      <trkpt lat="49.41671" lon="-1.17678">
        <ele>3.5</ele>
        <time>2020-06-15T16:25:30Z</time>
      </trkpt>
      <trkpt lat="49.4167" lon="-1.17678">
        <ele>3.5</ele>
        <time>2020-06-15T16:25:31Z</time>
      </trkpt>
      <trkpt lat="49.41669" lon="-1.17678">
        <ele>3.4</ele>
        <time>2020-06-15T16:25:32Z</time>
      </trkpt>
      <trkpt lat="49.41669" lon="-1.17679">
        <ele>3.4</ele>
        <time>2020-06-15T16:25:33Z</time>
      </trkpt>
      <trkpt lat="49.41669" lon="-1.1768">
        <ele>3.4</ele>
        <time>2020-06-15T16:25:34Z</time>
      </trkpt>
      <trkpt lat="49.4167" lon="-1.17683">
        <ele>3.4</ele>
        <time>2020-06-15T16:25:35Z</time>
      </trkpt>
      <trkpt lat="49.41673" lon="-1.17688">
        <ele>3.4</ele>
        <time>2020-06-15T16:25:36Z</time>
      </trkpt>
      <trkpt lat="49.41673" lon="-1.1769">
        <ele>3.4</ele>
        <time>2020-06-15T16:25:37Z</time>
      </trkpt>
      <trkpt lat="49.41676" lon="-1.17693">
        <ele>3.4</ele>
        <time>2020-06-15T16:25:38Z</time>
      </trkpt>
      <trkpt lat="49.41678" lon="-1.17695">
        <ele>3.4</ele>
        <time>2020-06-15T16:25:39Z</time>
      </trkpt>
      <trkpt lat="49.41681" lon="-1.17696">
        <ele>3.4</ele>
        <time>2020-06-15T16:25:40Z</time>
      </trkpt>
      <trkpt lat="49.41684" lon="-1.17698">
        <ele>3.4</ele>
        <time>2020-06-15T16:25:41Z</time>
      </trkpt>
      <trkpt lat="49.41687" lon="-1.17701">
        <ele>3.4</ele>
        <time>2020-06-15T16:25:42Z</time>
      </trkpt>
      <trkpt lat="49.4169" lon="-1.17703">
        <ele>3.4</ele>
        <time>2020-06-15T16:25:43Z</time>
      </trkpt>
      <trkpt lat="49.41694" lon="-1.17706">
        <ele>3.5</ele>
        <time>2020-06-15T16:25:44Z</time>
      </trkpt>
      <trkpt lat="49.41697" lon="-1.17709">
        <ele>3.5</ele>
        <time>2020-06-15T16:25:45Z</time>
      </trkpt>
      <trkpt lat="49.41701" lon="-1.17713">
        <ele>3.5</ele>
        <time>2020-06-15T16:25:46Z</time>
      </trkpt>
      <trkpt lat="49.41705" lon="-1.17716">
        <ele>3.5</ele>
        <time>2020-06-15T16:25:47Z</time>
      </trkpt>
      <trkpt lat="49.4171" lon="-1.1772">
        <ele>3.5</ele>
        <time>2020-06-15T16:25:48Z</time>
      </trkpt>
      <trkpt lat="49.41714" lon="-1.17724">
        <ele>3.4</ele>
        <time>2020-06-15T16:25:49Z</time>
      </trkpt>
      <trkpt lat="49.41717" lon="-1.17727">
        <ele>3.4</ele>
        <time>2020-06-15T16:25:50Z</time>
      </trkpt>
      <trkpt lat="49.41721" lon="-1.1773">
        <ele>3.4</ele>
        <time>2020-06-15T16:25:51Z</time>
      </trkpt>
      <trkpt lat="49.41725" lon="-1.17734">
        <ele>3.4</ele>
        <time>2020-06-15T16:25:52Z</time>
      </trkpt>
      <trkpt lat="49.41729" lon="-1.17737">
        <ele>3.4</ele>
        <time>2020-06-15T16:25:53Z</time>
      </trkpt>
      <trkpt lat="49.41732" lon="-1.1774">
        <ele>3.4</ele>
        <time>2020-06-15T16:25:54Z</time>
      </trkpt>
      <trkpt lat="49.41736" lon="-1.17744">
        <ele>3.4</ele>
        <time>2020-06-15T16:25:55Z</time>
      </trkpt>
      <trkpt lat="49.41741" lon="-1.17747">
        <ele>3.4</ele>
        <time>2020-06-15T16:25:56Z</time>
      </trkpt>
      <trkpt lat="49.41746" lon="-1.1775">
        <ele>3.4</ele>
        <time>2020-06-15T16:25:57Z</time>
      </trkpt>
      <trkpt lat="49.4175" lon="-1.17754">
        <ele>3.4</ele>
        <time>2020-06-15T16:25:58Z</time>
      </trkpt>
      <trkpt lat="49.41755" lon="-1.17758">
        <ele>3.4</ele>
        <time>2020-06-15T16:25:59Z</time>
      </trkpt>
      <trkpt lat="49.41759" lon="-1.17762">
        <ele>3.5</ele>
        <time>2020-06-15T16:26:00Z</time>
      </trkpt>
      <trkpt lat="49.41764" lon="-1.17765">
        <ele>3.5</ele>
        <time>2020-06-15T16:26:01Z</time>
      </trkpt>
      <trkpt lat="49.41769" lon="-1.1777">
        <ele>3.5</ele>
        <time>2020-06-15T16:26:02Z</time>
      </trkpt>
      <trkpt lat="49.41774" lon="-1.17774">
        <ele>3.5</ele>
        <time>2020-06-15T16:26:03Z</time>
      </trkpt>
      <trkpt lat="49.41779" lon="-1.17779">
        <ele>3.5</ele>
        <time>2020-06-15T16:26:04Z</time>
      </trkpt>
      <trkpt lat="49.41783" lon="-1.17783">
        <ele>3.5</ele>
        <time>2020-06-15T16:26:05Z</time>
      </trkpt>
      <trkpt lat="49.41787" lon="-1.17787">
        <ele>3.6</ele>
        <time>2020-06-15T16:26:06Z</time>
      </trkpt>
      <trkpt lat="49.41791" lon="-1.17792">
        <ele>3.6</ele>
        <time>2020-06-15T16:26:07Z</time>
      </trkpt>
      <trkpt lat="49.41795" lon="-1.17796">
        <ele>3.6</ele>
        <time>2020-06-15T16:26:08Z</time>
      </trkpt>
      <trkpt lat="49.41799" lon="-1.178">
        <ele>3.6</ele>
        <time>2020-06-15T16:26:09Z</time>
      </trkpt>
      <trkpt lat="49.41803" lon="-1.17804">
        <ele>3.6</ele>
        <time>2020-06-15T16:26:10Z</time>
      </trkpt>
      <trkpt lat="49.41807" lon="-1.17808">
        <ele>3.6</ele>
        <time>2020-06-15T16:26:11Z</time>
      </trkpt>
      <trkpt lat="49.41811" lon="-1.17812">
        <ele>3.6</ele>
        <time>2020-06-15T16:26:12Z</time>
      </trkpt>
      <trkpt lat="49.41815" lon="-1.17815">
        <ele>3.6</ele>
        <time>2020-06-15T16:26:13Z</time>
      </trkpt>
      <trkpt lat="49.41819" lon="-1.17819">
        <ele>3.6</ele>
        <time>2020-06-15T16:26:14Z</time>
      </trkpt>
      <trkpt lat="49.41824" lon="-1.17823">
        <ele>3.6</ele>
        <time>2020-06-15T16:26:15Z</time>
      </trkpt>
      <trkpt lat="49.41829" lon="-1.17826">
        <ele>3.6</ele>
        <time>2020-06-15T16:26:16Z</time>
      </trkpt>
      <trkpt lat="49.41833" lon="-1.1783">
        <ele>3.6</ele>
        <time>2020-06-15T16:26:17Z</time>
      </trkpt>
      <trkpt lat="49.41837" lon="-1.17834">
        <ele>3.6</ele>
        <time>2020-06-15T16:26:18Z</time>
      </trkpt>
      <trkpt lat="49.41842" lon="-1.17838">
        <ele>3.6</ele>
        <time>2020-06-15T16:26:19Z</time>
      </trkpt>
      <trkpt lat="49.41847" lon="-1.17842">
        <ele>3.6</ele>
        <time>2020-06-15T16:26:20Z</time>
      </trkpt>
      <trkpt lat="49.41851" lon="-1.17846">
        <ele>3.6</ele>
        <time>2020-06-15T16:26:21Z</time>
      </trkpt>
      <trkpt lat="49.41856" lon="-1.17851">
        <ele>3.7</ele>
        <time>2020-06-15T16:26:22Z</time>
      </trkpt>
      <trkpt lat="49.41861" lon="-1.17855">
        <ele>3.7</ele>
        <time>2020-06-15T16:26:23Z</time>
      </trkpt>
      <trkpt lat="49.41866" lon="-1.1786">
        <ele>3.7</ele>
        <time>2020-06-15T16:26:24Z</time>
      </trkpt>
      <trkpt lat="49.4187" lon="-1.17865">
        <ele>3.7</ele>
        <time>2020-06-15T16:26:25Z</time>
      </trkpt>
      <trkpt lat="49.41874" lon="-1.1787">
        <ele>3.6</ele>
        <time>2020-06-15T16:26:26Z</time>
      </trkpt>
      <trkpt lat="49.41879" lon="-1.17874">
        <ele>3.6</ele>
        <time>2020-06-15T16:26:27Z</time>
      </trkpt>
      <trkpt lat="49.41883" lon="-1.17879">
        <ele>3.6</ele>
        <time>2020-06-15T16:26:28Z</time>
      </trkpt>
      <trkpt lat="49.41887" lon="-1.17883">
        <ele>3.6</ele>
        <time>2020-06-15T16:26:29Z</time>
      </trkpt>
      <trkpt lat="49.41892" lon="-1.17888">
        <ele>3.6</ele>
        <time>2020-06-15T16:26:30Z</time>
      </trkpt>
      <trkpt lat="49.41896" lon="-1.17892">
        <ele>3.5</ele>
        <time>2020-06-15T16:26:31Z</time>
      </trkpt>
      <trkpt lat="49.419" lon="-1.17895">
        <ele>3.5</ele>
        <time>2020-06-15T16:26:32Z</time>
      </trkpt>
      <trkpt lat="49.41904" lon="-1.17899">
        <ele>3.5</ele>
        <time>2020-06-15T16:26:33Z</time>
      </trkpt>
      <trkpt lat="49.41909" lon="-1.17902">
        <ele>3.5</ele>
        <time>2020-06-15T16:26:34Z</time>
      </trkpt>
      <trkpt lat="49.41912" lon="-1.17906">
        <ele>3.5</ele>
        <time>2020-06-15T16:26:35Z</time>
      </trkpt>
      <trkpt lat="49.41917" lon="-1.17912">
        <ele>3.5</ele>
        <time>2020-06-15T16:26:36Z</time>
      </trkpt>
      <trkpt lat="49.41922" lon="-1.17916">
        <ele>3.5</ele>
        <time>2020-06-15T16:26:37Z</time>
      </trkpt>
      <trkpt lat="49.41927" lon="-1.1792">
        <ele>3.5</ele>
        <time>2020-06-15T16:26:38Z</time>
      </trkpt>
      <trkpt lat="49.41932" lon="-1.17924">
        <ele>3.5</ele>
        <time>2020-06-15T16:26:39Z</time>
      </trkpt>
      <trkpt lat="49.41937" lon="-1.17928">
        <ele>3.5</ele>
        <time>2020-06-15T16:26:40Z</time>
      </trkpt>
      <trkpt lat="49.41942" lon="-1.17932">
        <ele>3.5</ele>
        <time>2020-06-15T16:26:41Z</time>
      </trkpt>
      <trkpt lat="49.41947" lon="-1.17937">
        <ele>3.5</ele>
        <time>2020-06-15T16:26:42Z</time>
      </trkpt>
      <trkpt lat="49.41953" lon="-1.17942">
        <ele>3.5</ele>
        <time>2020-06-15T16:26:43Z</time>
      </trkpt>
      <trkpt lat="49.41958" lon="-1.17947">
        <ele>3.5</ele>
        <time>2020-06-15T16:26:44Z</time>
      </trkpt>
      <trkpt lat="49.41963" lon="-1.17952">
        <ele>3.5</ele>
        <time>2020-06-15T16:26:45Z</time>
      </trkpt>
      <trkpt lat="49.41967" lon="-1.17956">
        <ele>3.4</ele>
        <time>2020-06-15T16:26:46Z</time>
      </trkpt>
      <trkpt lat="49.41972" lon="-1.17961">
        <ele>3.4</ele>
        <time>2020-06-15T16:26:47Z</time>
      </trkpt>
      <trkpt lat="49.41977" lon="-1.17966">
        <ele>3.3</ele>
        <time>2020-06-15T16:26:48Z</time>
      </trkpt>
      <trkpt lat="49.41981" lon="-1.1797">
        <ele>3.3</ele>
        <time>2020-06-15T16:26:49Z</time>
      </trkpt>
      <trkpt lat="49.41986" lon="-1.17973">
        <ele>3.3</ele>
        <time>2020-06-15T16:26:50Z</time>
      </trkpt>
      <trkpt lat="49.41991" lon="-1.17978">
        <ele>3.3</ele>
        <time>2020-06-15T16:26:51Z</time>
      </trkpt>
      <trkpt lat="49.41995" lon="-1.17983">
        <ele>3.3</ele>
        <time>2020-06-15T16:26:52Z</time>
      </trkpt>
      <trkpt lat="49.42" lon="-1.17988">
        <ele>3.3</ele>
        <time>2020-06-15T16:26:53Z</time>
      </trkpt>
      <trkpt lat="49.42005" lon="-1.17993">
        <ele>3.4</ele>
        <time>2020-06-15T16:26:54Z</time>
      </trkpt>
      <trkpt lat="49.4201" lon="-1.17996">
        <ele>3.4</ele>
        <time>2020-06-15T16:26:55Z</time>
      </trkpt>
      <trkpt lat="49.42016" lon="-1.17998">
        <ele>3.5</ele>
        <time>2020-06-15T16:26:56Z</time>
      </trkpt>
      <trkpt lat="49.4202" lon="-1.18001">
        <ele>3.4</ele>
        <time>2020-06-15T16:26:57Z</time>
      </trkpt>
      <trkpt lat="49.42024" lon="-1.18004">
        <ele>3.4</ele>
        <time>2020-06-15T16:26:58Z</time>
      </trkpt>
      <trkpt lat="49.42029" lon="-1.18008">
        <ele>3.4</ele>
        <time>2020-06-15T16:26:59Z</time>
      </trkpt>
      <trkpt lat="49.42033" lon="-1.18012">
        <ele>3.4</ele>
        <time>2020-06-15T16:27:00Z</time>
      </trkpt>
      <trkpt lat="49.42038" lon="-1.18017">
        <ele>3.4</ele>
        <time>2020-06-15T16:27:01Z</time>
      </trkpt>
      <trkpt lat="49.42043" lon="-1.18022">
        <ele>3.3</ele>
        <time>2020-06-15T16:27:02Z</time>
      </trkpt>
      <trkpt lat="49.42047" lon="-1.18028">
        <ele>3.3</ele>
        <time>2020-06-15T16:27:03Z</time>
      </trkpt>
      <trkpt lat="49.42052" lon="-1.18034">
        <ele>3.3</ele>
        <time>2020-06-15T16:27:04Z</time>
      </trkpt>
      <trkpt lat="49.42056" lon="-1.18039">
        <ele>3.3</ele>
        <time>2020-06-15T16:27:05Z</time>
      </trkpt>
      <trkpt lat="49.4206" lon="-1.18044">
        <ele>3.3</ele>
        <time>2020-06-15T16:27:06Z</time>
      </trkpt>
      <trkpt lat="49.42064" lon="-1.1805">
        <ele>3.3</ele>
        <time>2020-06-15T16:27:07Z</time>
      </trkpt>
      <trkpt lat="49.42068" lon="-1.18056">
        <ele>3.3</ele>
        <time>2020-06-15T16:27:08Z</time>
      </trkpt>
      <trkpt lat="49.42072" lon="-1.18062">
        <ele>3.2</ele>
        <time>2020-06-15T16:27:09Z</time>
      </trkpt>
      <trkpt lat="49.42076" lon="-1.18069">
        <ele>3.2</ele>
        <time>2020-06-15T16:27:10Z</time>
      </trkpt>
      <trkpt lat="49.42081" lon="-1.18076">
        <ele>3.2</ele>
        <time>2020-06-15T16:27:11Z</time>
      </trkpt>
      <trkpt lat="49.42085" lon="-1.18083">
        <ele>3.2</ele>
        <time>2020-06-15T16:27:12Z</time>
      </trkpt>
      <trkpt lat="49.42089" lon="-1.1809">
        <ele>3.1</ele>
        <time>2020-06-15T16:27:13Z</time>
      </trkpt>
      <trkpt lat="49.42093" lon="-1.18096">
        <ele>3.1</ele>
        <time>2020-06-15T16:27:14Z</time>
      </trkpt>
      <trkpt lat="49.42097" lon="-1.18103">
        <ele>3.1</ele>
        <time>2020-06-15T16:27:15Z</time>
      </trkpt>
      <trkpt lat="49.42102" lon="-1.1811">
        <ele>3.1</ele>
        <time>2020-06-15T16:27:16Z</time>
      </trkpt>
      <trkpt lat="49.42106" lon="-1.18117">
        <ele>3.1</ele>
        <time>2020-06-15T16:27:17Z</time>
      </trkpt>
      <trkpt lat="49.4211" lon="-1.18124">
        <ele>3.1</ele>
        <time>2020-06-15T16:27:18Z</time>
      </trkpt>
      <trkpt lat="49.42114" lon="-1.1813">
        <ele>3.1</ele>
        <time>2020-06-15T16:27:19Z</time>
      </trkpt>
      <trkpt lat="49.42119" lon="-1.18137">
        <ele>3.1</ele>
        <time>2020-06-15T16:27:20Z</time>
      </trkpt>
      <trkpt lat="49.42123" lon="-1.18142">
        <ele>3.1</ele>
        <time>2020-06-15T16:27:21Z</time>
      </trkpt>
      <trkpt lat="49.42127" lon="-1.18148">
        <ele>3.1</ele>
        <time>2020-06-15T16:27:22Z</time>
      </trkpt>
      <trkpt lat="49.42131" lon="-1.18154">
        <ele>3.1</ele>
        <time>2020-06-15T16:27:23Z</time>
      </trkpt>
      <trkpt lat="49.42135" lon="-1.1816">
        <ele>3.1</ele>
        <time>2020-06-15T16:27:24Z</time>
      </trkpt>
      <trkpt lat="49.4214" lon="-1.18166">
        <ele>3</ele>
        <time>2020-06-15T16:27:25Z</time>
      </trkpt>
      <trkpt lat="49.42144" lon="-1.18172">
        <ele>3</ele>
        <time>2020-06-15T16:27:26Z</time>
      </trkpt>
      <trkpt lat="49.42149" lon="-1.18179">
        <ele>2.9</ele>
        <time>2020-06-15T16:27:27Z</time>
      </trkpt>
      <trkpt lat="49.42154" lon="-1.18186">
        <ele>2.9</ele>
        <time>2020-06-15T16:27:28Z</time>
      </trkpt>
      <trkpt lat="49.42158" lon="-1.1819">
        <ele>2.9</ele>
        <time>2020-06-15T16:27:29Z</time>
      </trkpt>
      <trkpt lat="49.42164" lon="-1.18197">
        <ele>2.8</ele>
        <time>2020-06-15T16:27:30Z</time>
      </trkpt>
      <trkpt lat="49.42169" lon="-1.18202">
        <ele>2.8</ele>
        <time>2020-06-15T16:27:31Z</time>
      </trkpt>
      <trkpt lat="49.42174" lon="-1.18208">
        <ele>2.8</ele>
        <time>2020-06-15T16:27:32Z</time>
      </trkpt>
      <trkpt lat="49.42178" lon="-1.18212">
        <ele>2.8</ele>
        <time>2020-06-15T16:27:33Z</time>
      </trkpt>
      <trkpt lat="49.42184" lon="-1.18217">
        <ele>2.8</ele>
        <time>2020-06-15T16:27:34Z</time>
      </trkpt>
      <trkpt lat="49.42188" lon="-1.18222">
        <ele>2.8</ele>
        <time>2020-06-15T16:27:35Z</time>
      </trkpt>
      <trkpt lat="49.42194" lon="-1.18227">
        <ele>2.8</ele>
        <time>2020-06-15T16:27:36Z</time>
      </trkpt>
      <trkpt lat="49.42198" lon="-1.18231">
        <ele>2.8</ele>
        <time>2020-06-15T16:27:37Z</time>
      </trkpt>
      <trkpt lat="49.42203" lon="-1.18235">
        <ele>2.8</ele>
        <time>2020-06-15T16:27:38Z</time>
      </trkpt>
      <trkpt lat="49.42209" lon="-1.1824">
        <ele>2.8</ele>
        <time>2020-06-15T16:27:39Z</time>
      </trkpt>
      <trkpt lat="49.42214" lon="-1.18245">
        <ele>2.8</ele>
        <time>2020-06-15T16:27:40Z</time>
      </trkpt>
      <trkpt lat="49.4222" lon="-1.1825">
        <ele>2.8</ele>
        <time>2020-06-15T16:27:41Z</time>
      </trkpt>
      <trkpt lat="49.42225" lon="-1.18254">
        <ele>2.9</ele>
        <time>2020-06-15T16:27:42Z</time>
      </trkpt>
      <trkpt lat="49.4223" lon="-1.18259">
        <ele>2.9</ele>
        <time>2020-06-15T16:27:43Z</time>
      </trkpt>
      <trkpt lat="49.42235" lon="-1.18263">
        <ele>2.9</ele>
        <time>2020-06-15T16:27:44Z</time>
      </trkpt>
      <trkpt lat="49.4224" lon="-1.18267">
        <ele>2.9</ele>
        <time>2020-06-15T16:27:45Z</time>
      </trkpt>
      <trkpt lat="49.42245" lon="-1.1827">
        <ele>2.9</ele>
        <time>2020-06-15T16:27:46Z</time>
      </trkpt>
      <trkpt lat="49.4225" lon="-1.18275">
        <ele>2.9</ele>
        <time>2020-06-15T16:27:47Z</time>
      </trkpt>
      <trkpt lat="49.42255" lon="-1.1828">
        <ele>2.9</ele>
        <time>2020-06-15T16:27:48Z</time>
      </trkpt>
      <trkpt lat="49.4226" lon="-1.18285">
        <ele>2.9</ele>
        <time>2020-06-15T16:27:49Z</time>
      </trkpt>
      <trkpt lat="49.42266" lon="-1.1829">
        <ele>3</ele>
        <time>2020-06-15T16:27:50Z</time>
      </trkpt>
      <trkpt lat="49.42271" lon="-1.18295">
        <ele>3.1</ele>
        <time>2020-06-15T16:27:51Z</time>
      </trkpt>
      <trkpt lat="49.42277" lon="-1.18301">
        <ele>3.2</ele>
        <time>2020-06-15T16:27:52Z</time>
      </trkpt>
      <trkpt lat="49.42282" lon="-1.18305">
        <ele>3.2</ele>
        <time>2020-06-15T16:27:53Z</time>
      </trkpt>
      <trkpt lat="49.42285" lon="-1.18309">
        <ele>3.3</ele>
        <time>2020-06-15T16:27:54Z</time>
      </trkpt>
      <trkpt lat="49.42289" lon="-1.18314">
        <ele>3.3</ele>
        <time>2020-06-15T16:27:55Z</time>
      </trkpt>
      <trkpt lat="49.42294" lon="-1.18318">
        <ele>3.4</ele>
        <time>2020-06-15T16:27:56Z</time>
      </trkpt>
      <trkpt lat="49.42298" lon="-1.18323">
        <ele>3.4</ele>
        <time>2020-06-15T16:27:57Z</time>
      </trkpt>
      <trkpt lat="49.42303" lon="-1.18327">
        <ele>3.4</ele>
        <time>2020-06-15T16:27:58Z</time>
      </trkpt>
      <trkpt lat="49.42308" lon="-1.18332">
        <ele>3.3</ele>
        <time>2020-06-15T16:27:59Z</time>
      </trkpt>
      <trkpt lat="49.42313" lon="-1.18337">
        <ele>3.3</ele>
        <time>2020-06-15T16:28:00Z</time>
      </trkpt>
      <trkpt lat="49.42317" lon="-1.18342">
        <ele>3.2</ele>
        <time>2020-06-15T16:28:01Z</time>
      </trkpt>
      <trkpt lat="49.42322" lon="-1.18347">
        <ele>3.2</ele>
        <time>2020-06-15T16:28:02Z</time>
      </trkpt>
      <trkpt lat="49.42327" lon="-1.18352">
        <ele>3.1</ele>
        <time>2020-06-15T16:28:03Z</time>
      </trkpt>
      <trkpt lat="49.42332" lon="-1.18358">
        <ele>3</ele>
        <time>2020-06-15T16:28:04Z</time>
      </trkpt>
      <trkpt lat="49.42337" lon="-1.18364">
        <ele>3</ele>
        <time>2020-06-15T16:28:05Z</time>
      </trkpt>
      <trkpt lat="49.42342" lon="-1.1837">
        <ele>2.9</ele>
        <time>2020-06-15T16:28:06Z</time>
      </trkpt>
      <trkpt lat="49.42346" lon="-1.18375">
        <ele>2.9</ele>
        <time>2020-06-15T16:28:07Z</time>
      </trkpt>
      <trkpt lat="49.42351" lon="-1.1838">
        <ele>2.9</ele>
        <time>2020-06-15T16:28:08Z</time>
      </trkpt>
      <trkpt lat="49.42356" lon="-1.18386">
        <ele>2.8</ele>
        <time>2020-06-15T16:28:09Z</time>
      </trkpt>
      <trkpt lat="49.42361" lon="-1.1839">
        <ele>2.8</ele>
        <time>2020-06-15T16:28:10Z</time>
      </trkpt>
      <trkpt lat="49.42366" lon="-1.18395">
        <ele>2.8</ele>
        <time>2020-06-15T16:28:11Z</time>
      </trkpt>
      <trkpt lat="49.42371" lon="-1.184">
        <ele>2.8</ele>
        <time>2020-06-15T16:28:12Z</time>
      </trkpt>
      <trkpt lat="49.42376" lon="-1.18405">
        <ele>2.8</ele>
        <time>2020-06-15T16:28:13Z</time>
      </trkpt>
      <trkpt lat="49.42381" lon="-1.18411">
        <ele>2.7</ele>
        <time>2020-06-15T16:28:14Z</time>
      </trkpt>
      <trkpt lat="49.42386" lon="-1.18416">
        <ele>2.7</ele>
        <time>2020-06-15T16:28:15Z</time>
      </trkpt>
      <trkpt lat="49.42392" lon="-1.18422">
        <ele>2.7</ele>
        <time>2020-06-15T16:28:16Z</time>
      </trkpt>
      <trkpt lat="49.42397" lon="-1.18427">
        <ele>2.7</ele>
        <time>2020-06-15T16:28:17Z</time>
      </trkpt>
      <trkpt lat="49.42402" lon="-1.18431">
        <ele>2.7</ele>
        <time>2020-06-15T16:28:18Z</time>
      </trkpt>
      <trkpt lat="49.42407" lon="-1.18436">
        <ele>2.6</ele>
        <time>2020-06-15T16:28:19Z</time>
      </trkpt>
      <trkpt lat="49.42412" lon="-1.1844">
        <ele>2.6</ele>
        <time>2020-06-15T16:28:20Z</time>
      </trkpt>
      <trkpt lat="49.42417" lon="-1.18446">
        <ele>2.6</ele>
        <time>2020-06-15T16:28:21Z</time>
      </trkpt>
      <trkpt lat="49.42422" lon="-1.18451">
        <ele>2.5</ele>
        <time>2020-06-15T16:28:22Z</time>
      </trkpt>
      <trkpt lat="49.42427" lon="-1.18456">
        <ele>2.5</ele>
        <time>2020-06-15T16:28:23Z</time>
      </trkpt>
      <trkpt lat="49.42432" lon="-1.18462">
        <ele>2.5</ele>
        <time>2020-06-15T16:28:24Z</time>
      </trkpt>
      <trkpt lat="49.42436" lon="-1.18467">
        <ele>2.5</ele>
        <time>2020-06-15T16:28:25Z</time>
      </trkpt>
      <trkpt lat="49.42441" lon="-1.18472">
        <ele>2.5</ele>
        <time>2020-06-15T16:28:26Z</time>
      </trkpt>
      <trkpt lat="49.42446" lon="-1.18478">
        <ele>2.4</ele>
        <time>2020-06-15T16:28:27Z</time>
      </trkpt>
      <trkpt lat="49.42451" lon="-1.18484">
        <ele>2.4</ele>
        <time>2020-06-15T16:28:28Z</time>
      </trkpt>
      <trkpt lat="49.42456" lon="-1.1849">
        <ele>2.4</ele>
        <time>2020-06-15T16:28:29Z</time>
      </trkpt>
      <trkpt lat="49.42462" lon="-1.18496">
        <ele>2.4</ele>
        <time>2020-06-15T16:28:30Z</time>
      </trkpt>
      <trkpt lat="49.42467" lon="-1.18501">
        <ele>2.5</ele>
        <time>2020-06-15T16:28:31Z</time>
      </trkpt>
      <trkpt lat="49.42472" lon="-1.18507">
        <ele>2.5</ele>
        <time>2020-06-15T16:28:32Z</time>
      </trkpt>
      <trkpt lat="49.42478" lon="-1.18512">
        <ele>2.5</ele>
        <time>2020-06-15T16:28:33Z</time>
      </trkpt>
      <trkpt lat="49.42482" lon="-1.18518">
        <ele>2.5</ele>
        <time>2020-06-15T16:28:34Z</time>
      </trkpt>
      <trkpt lat="49.42487" lon="-1.18522">
        <ele>2.5</ele>
        <time>2020-06-15T16:28:35Z</time>
      </trkpt>
      <trkpt lat="49.42492" lon="-1.18529">
        <ele>2.5</ele>
        <time>2020-06-15T16:28:36Z</time>
      </trkpt>
      <trkpt lat="49.42496" lon="-1.18534">
        <ele>2.5</ele>
        <time>2020-06-15T16:28:37Z</time>
      </trkpt>
      <trkpt lat="49.42502" lon="-1.1854">
        <ele>2.5</ele>
        <time>2020-06-15T16:28:38Z</time>
      </trkpt>
      <trkpt lat="49.42507" lon="-1.18546">
        <ele>2.5</ele>
        <time>2020-06-15T16:28:39Z</time>
      </trkpt>
      <trkpt lat="49.42512" lon="-1.18552">
        <ele>2.5</ele>
        <time>2020-06-15T16:28:40Z</time>
      </trkpt>
      <trkpt lat="49.42518" lon="-1.18558">
        <ele>2.5</ele>
        <time>2020-06-15T16:28:41Z</time>
      </trkpt>
      <trkpt lat="49.42523" lon="-1.18564">
        <ele>2.5</ele>
        <time>2020-06-15T16:28:42Z</time>
      </trkpt>
      <trkpt lat="49.42528" lon="-1.18569">
        <ele>2.6</ele>
        <time>2020-06-15T16:28:43Z</time>
      </trkpt>
      <trkpt lat="49.42533" lon="-1.18574">
        <ele>2.6</ele>
        <time>2020-06-15T16:28:44Z</time>
      </trkpt>
      <trkpt lat="49.42537" lon="-1.1858">
        <ele>2.6</ele>
        <time>2020-06-15T16:28:45Z</time>
      </trkpt>
      <trkpt lat="49.42542" lon="-1.18585">
        <ele>2.6</ele>
        <time>2020-06-15T16:28:46Z</time>
      </trkpt>
      <trkpt lat="49.42547" lon="-1.18591">
        <ele>2.7</ele>
        <time>2020-06-15T16:28:47Z</time>
      </trkpt>
      <trkpt lat="49.42552" lon="-1.18595">
        <ele>2.7</ele>
        <time>2020-06-15T16:28:48Z</time>
      </trkpt>
      <trkpt lat="49.42556" lon="-1.186">
        <ele>2.7</ele>
        <time>2020-06-15T16:28:49Z</time>
      </trkpt>
      <trkpt lat="49.42561" lon="-1.18604">
        <ele>2.7</ele>
        <time>2020-06-15T16:28:50Z</time>
      </trkpt>
      <trkpt lat="49.42565" lon="-1.1861">
        <ele>2.8</ele>
        <time>2020-06-15T16:28:51Z</time>
      </trkpt>
      <trkpt lat="49.4257" lon="-1.18615">
        <ele>2.8</ele>
        <time>2020-06-15T16:28:52Z</time>
      </trkpt>
      <trkpt lat="49.42575" lon="-1.1862">
        <ele>2.8</ele>
        <time>2020-06-15T16:28:53Z</time>
      </trkpt>
      <trkpt lat="49.4258" lon="-1.18626">
        <ele>2.8</ele>
        <time>2020-06-15T16:28:54Z</time>
      </trkpt>
      <trkpt lat="49.42586" lon="-1.18631">
        <ele>2.9</ele>
        <time>2020-06-15T16:28:55Z</time>
      </trkpt>
      <trkpt lat="49.42592" lon="-1.18637">
        <ele>2.9</ele>
        <time>2020-06-15T16:28:56Z</time>
      </trkpt>
      <trkpt lat="49.42597" lon="-1.18642">
        <ele>2.9</ele>
        <time>2020-06-15T16:28:57Z</time>
      </trkpt>
      <trkpt lat="49.42603" lon="-1.18649">
        <ele>2.9</ele>
        <time>2020-06-15T16:28:58Z</time>
      </trkpt>
      <trkpt lat="49.42608" lon="-1.18654">
        <ele>2.9</ele>
        <time>2020-06-15T16:28:59Z</time>
      </trkpt>
      <trkpt lat="49.42614" lon="-1.1866">
        <ele>3</ele>
        <time>2020-06-15T16:29:00Z</time>
      </trkpt>
      <trkpt lat="49.42619" lon="-1.18665">
        <ele>3</ele>
        <time>2020-06-15T16:29:01Z</time>
      </trkpt>
      <trkpt lat="49.42623" lon="-1.18671">
        <ele>3</ele>
        <time>2020-06-15T16:29:02Z</time>
      </trkpt>
      <trkpt lat="49.42627" lon="-1.18675">
        <ele>3</ele>
        <time>2020-06-15T16:29:03Z</time>
      </trkpt>
      <trkpt lat="49.42632" lon="-1.1868">
        <ele>3</ele>
        <time>2020-06-15T16:29:04Z</time>
      </trkpt>
      <trkpt lat="49.42637" lon="-1.18685">
        <ele>3</ele>
        <time>2020-06-15T16:29:05Z</time>
      </trkpt>
      <trkpt lat="49.42641" lon="-1.1869">
        <ele>3</ele>
        <time>2020-06-15T16:29:06Z</time>
      </trkpt>
      <trkpt lat="49.42645" lon="-1.18694">
        <ele>3.1</ele>
        <time>2020-06-15T16:29:07Z</time>
      </trkpt>
      <trkpt lat="49.42651" lon="-1.187">
        <ele>3.1</ele>
        <time>2020-06-15T16:29:08Z</time>
      </trkpt>
      <trkpt lat="49.42656" lon="-1.18705">
        <ele>3.1</ele>
        <time>2020-06-15T16:29:09Z</time>
      </trkpt>
      <trkpt lat="49.4266" lon="-1.1871">
        <ele>3.1</ele>
        <time>2020-06-15T16:29:10Z</time>
      </trkpt>
      <trkpt lat="49.42664" lon="-1.18714">
        <ele>3.1</ele>
        <time>2020-06-15T16:29:11Z</time>
      </trkpt>
      <trkpt lat="49.42669" lon="-1.18719">
        <ele>3.1</ele>
        <time>2020-06-15T16:29:12Z</time>
      </trkpt>
      <trkpt lat="49.42673" lon="-1.18724">
        <ele>3.1</ele>
        <time>2020-06-15T16:29:13Z</time>
      </trkpt>
      <trkpt lat="49.42679" lon="-1.1873">
        <ele>3.1</ele>
        <time>2020-06-15T16:29:14Z</time>
      </trkpt>
      <trkpt lat="49.42683" lon="-1.18735">
        <ele>3.1</ele>
        <time>2020-06-15T16:29:15Z</time>
      </trkpt>
      <trkpt lat="49.42688" lon="-1.18739">
        <ele>3.1</ele>
        <time>2020-06-15T16:29:16Z</time>
      </trkpt>
      <trkpt lat="49.42692" lon="-1.18744">
        <ele>3.1</ele>
        <time>2020-06-15T16:29:17Z</time>
      </trkpt>
      <trkpt lat="49.42697" lon="-1.18749">
        <ele>3.2</ele>
        <time>2020-06-15T16:29:18Z</time>
      </trkpt>
      <trkpt lat="49.42702" lon="-1.18753">
        <ele>3.2</ele>
        <time>2020-06-15T16:29:19Z</time>
      </trkpt>
      <trkpt lat="49.42707" lon="-1.18759">
        <ele>3.2</ele>
        <time>2020-06-15T16:29:20Z</time>
      </trkpt>
      <trkpt lat="49.42712" lon="-1.18764">
        <ele>3.3</ele>
        <time>2020-06-15T16:29:21Z</time>
      </trkpt>
      <trkpt lat="49.42717" lon="-1.18769">
        <ele>3.3</ele>
        <time>2020-06-15T16:29:22Z</time>
      </trkpt>
      <trkpt lat="49.42722" lon="-1.18771">
        <ele>3.3</ele>
        <time>2020-06-15T16:29:23Z</time>
      </trkpt>
      <trkpt lat="49.42727" lon="-1.18774">
        <ele>3.4</ele>
        <time>2020-06-15T16:29:24Z</time>
      </trkpt>
      <trkpt lat="49.42732" lon="-1.18778">
        <ele>3.4</ele>
        <time>2020-06-15T16:29:25Z</time>
      </trkpt>
      <trkpt lat="49.42737" lon="-1.18782">
        <ele>3.4</ele>
        <time>2020-06-15T16:29:26Z</time>
      </trkpt>
      <trkpt lat="49.42742" lon="-1.18785">
        <ele>3.4</ele>
        <time>2020-06-15T16:29:27Z</time>
      </trkpt>
      <trkpt lat="49.42747" lon="-1.18789">
        <ele>3.4</ele>
        <time>2020-06-15T16:29:28Z</time>
      </trkpt>
      <trkpt lat="49.42752" lon="-1.18793">
        <ele>3.4</ele>
        <time>2020-06-15T16:29:29Z</time>
      </trkpt>
      <trkpt lat="49.42757" lon="-1.18799">
        <ele>3.4</ele>
        <time>2020-06-15T16:29:30Z</time>
      </trkpt>
      <trkpt lat="49.42761" lon="-1.18803">
        <ele>3.4</ele>
        <time>2020-06-15T16:29:31Z</time>
      </trkpt>
      <trkpt lat="49.42766" lon="-1.18807">
        <ele>3.4</ele>
        <time>2020-06-15T16:29:32Z</time>
      </trkpt>
      <trkpt lat="49.42771" lon="-1.18812">
        <ele>3.4</ele>
        <time>2020-06-15T16:29:33Z</time>
      </trkpt>
      <trkpt lat="49.42776" lon="-1.18817">
        <ele>3.4</ele>
        <time>2020-06-15T16:29:34Z</time>
      </trkpt>
      <trkpt lat="49.42781" lon="-1.18823">
        <ele>3.4</ele>
        <time>2020-06-15T16:29:35Z</time>
      </trkpt>
      <trkpt lat="49.42786" lon="-1.18828">
        <ele>3.4</ele>
        <time>2020-06-15T16:29:36Z</time>
      </trkpt>
      <trkpt lat="49.42791" lon="-1.18833">
        <ele>3.4</ele>
        <time>2020-06-15T16:29:37Z</time>
      </trkpt>
      <trkpt lat="49.42796" lon="-1.18837">
        <ele>3.4</ele>
        <time>2020-06-15T16:29:38Z</time>
      </trkpt>
      <trkpt lat="49.428" lon="-1.18842">
        <ele>3.4</ele>
        <time>2020-06-15T16:29:39Z</time>
      </trkpt>
      <trkpt lat="49.42804" lon="-1.18846">
        <ele>3.3</ele>
        <time>2020-06-15T16:29:40Z</time>
      </trkpt>
      <trkpt lat="49.42809" lon="-1.18852">
        <ele>3.3</ele>
        <time>2020-06-15T16:29:41Z</time>
      </trkpt>
      <trkpt lat="49.42813" lon="-1.18857">
        <ele>3.3</ele>
        <time>2020-06-15T16:29:42Z</time>
      </trkpt>
      <trkpt lat="49.42817" lon="-1.18864">
        <ele>3.3</ele>
        <time>2020-06-15T16:29:43Z</time>
      </trkpt>
      <trkpt lat="49.42822" lon="-1.18871">
        <ele>3.3</ele>
        <time>2020-06-15T16:29:44Z</time>
      </trkpt>
      <trkpt lat="49.42826" lon="-1.18878">
        <ele>3.3</ele>
        <time>2020-06-15T16:29:45Z</time>
      </trkpt>
      <trkpt lat="49.4283" lon="-1.18884">
        <ele>3.2</ele>
        <time>2020-06-15T16:29:46Z</time>
      </trkpt>
      <trkpt lat="49.42834" lon="-1.18892">
        <ele>3.2</ele>
        <time>2020-06-15T16:29:47Z</time>
      </trkpt>
      <trkpt lat="49.42838" lon="-1.189">
        <ele>3.1</ele>
        <time>2020-06-15T16:29:48Z</time>
      </trkpt>
      <trkpt lat="49.42842" lon="-1.18909">
        <ele>3</ele>
        <time>2020-06-15T16:29:49Z</time>
      </trkpt>
      <trkpt lat="49.42846" lon="-1.18917">
        <ele>2.9</ele>
        <time>2020-06-15T16:29:50Z</time>
      </trkpt>
      <trkpt lat="49.4285" lon="-1.18925">
        <ele>2.8</ele>
        <time>2020-06-15T16:29:51Z</time>
      </trkpt>
      <trkpt lat="49.42853" lon="-1.18933">
        <ele>2.7</ele>
        <time>2020-06-15T16:29:52Z</time>
      </trkpt>
      <trkpt lat="49.42856" lon="-1.18941">
        <ele>2.7</ele>
        <time>2020-06-15T16:29:53Z</time>
      </trkpt>
      <trkpt lat="49.42858" lon="-1.1895">
        <ele>2.6</ele>
        <time>2020-06-15T16:29:54Z</time>
      </trkpt>
      <trkpt lat="49.42862" lon="-1.1896">
        <ele>2.5</ele>
        <time>2020-06-15T16:29:55Z</time>
      </trkpt>
      <trkpt lat="49.42864" lon="-1.1897">
        <ele>2.5</ele>
        <time>2020-06-15T16:29:56Z</time>
      </trkpt>
      <trkpt lat="49.42867" lon="-1.1898">
        <ele>2.4</ele>
        <time>2020-06-15T16:29:57Z</time>
      </trkpt>
      <trkpt lat="49.42869" lon="-1.18989">
        <ele>2.4</ele>
        <time>2020-06-15T16:29:58Z</time>
      </trkpt>
      <trkpt lat="49.42871" lon="-1.18998">
        <ele>2.4</ele>
        <time>2020-06-15T16:29:59Z</time>
      </trkpt>
      <trkpt lat="49.42872" lon="-1.19006">
        <ele>2.3</ele>
        <time>2020-06-15T16:30:00Z</time>
      </trkpt>
      <trkpt lat="49.42874" lon="-1.19014">
        <ele>2.3</ele>
        <time>2020-06-15T16:30:01Z</time>
      </trkpt>
      <trkpt lat="49.42875" lon="-1.1902">
        <ele>2.3</ele>
        <time>2020-06-15T16:30:02Z</time>
      </trkpt>
      <trkpt lat="49.42876" lon="-1.19026">
        <ele>2.3</ele>
        <time>2020-06-15T16:30:03Z</time>
      </trkpt>
      <trkpt lat="49.42877" lon="-1.1903">
        <ele>2.3</ele>
        <time>2020-06-15T16:30:04Z</time>
      </trkpt>
      <trkpt lat="49.42878" lon="-1.19034">
        <ele>2.3</ele>
        <time>2020-06-15T16:30:05Z</time>
      </trkpt>
      <trkpt lat="49.42878" lon="-1.19036">
        <ele>2.3</ele>
        <time>2020-06-15T16:30:06Z</time>
      </trkpt>
      <trkpt lat="49.42879" lon="-1.19037">
        <ele>2.3</ele>
        <time>2020-06-15T16:30:07Z</time>
      </trkpt>
      <trkpt lat="49.42879" lon="-1.19038">
        <ele>2.3</ele>
        <time>2020-06-15T16:30:08Z</time>
      </trkpt>
      <trkpt lat="49.42879" lon="-1.19037">
        <ele>2.3</ele>
        <time>2020-06-15T16:30:09Z</time>
      </trkpt>
      <trkpt lat="49.42879" lon="-1.19035">
        <ele>2.3</ele>
        <time>2020-06-15T16:30:10Z</time>
      </trkpt>
      <trkpt lat="49.4288" lon="-1.19033">
        <ele>2.3</ele>
        <time>2020-06-15T16:30:11Z</time>
      </trkpt>
      <trkpt lat="49.4288" lon="-1.19033">
        <ele>2.3</ele>
        <time>2020-06-15T16:30:12Z</time>
      </trkpt>
      <trkpt lat="49.4288" lon="-1.19033">
        <ele>2.3</ele>
        <time>2020-06-15T16:30:13Z</time>
      </trkpt>
      <trkpt lat="49.42881" lon="-1.19033">
        <ele>2.3</ele>
        <time>2020-06-15T16:30:14Z</time>
      </trkpt>
      <trkpt lat="49.42882" lon="-1.19033">
        <ele>2.3</ele>
        <time>2020-06-15T16:30:15Z</time>
      </trkpt>
      <trkpt lat="49.42882" lon="-1.19035">
        <ele>2.4</ele>
        <time>2020-06-15T16:30:16Z</time>
      </trkpt>
      <trkpt lat="49.42883" lon="-1.19031">
        <ele>2.4</ele>
        <time>2020-06-15T16:30:17Z</time>
      </trkpt>
      <trkpt lat="49.42884" lon="-1.19027">
        <ele>2.4</ele>
        <time>2020-06-15T16:30:18Z</time>
      </trkpt>
      <trkpt lat="49.42886" lon="-1.19024">
        <ele>2.4</ele>
        <time>2020-06-15T16:30:19Z</time>
      </trkpt>
      <trkpt lat="49.42887" lon="-1.19021">
        <ele>2.5</ele>
        <time>2020-06-15T16:30:27Z</time>
      </trkpt>
      <trkpt lat="49.42888" lon="-1.19018">
        <ele>2.5</ele>
        <time>2020-06-15T16:30:28Z</time>
      </trkpt>
      <trkpt lat="49.42889" lon="-1.19015">
        <ele>2.5</ele>
        <time>2020-06-15T16:30:29Z</time>
      </trkpt>
      <trkpt lat="49.4289" lon="-1.19013">
        <ele>2.6</ele>
        <time>2020-06-15T16:30:30Z</time>
      </trkpt>
      <trkpt lat="49.42891" lon="-1.19011">
        <ele>2.6</ele>
        <time>2020-06-15T16:30:31Z</time>
      </trkpt>
      <trkpt lat="49.42893" lon="-1.19007">
        <ele>2.7</ele>
        <time>2020-06-15T16:30:32Z</time>
      </trkpt>
      <trkpt lat="49.42893" lon="-1.19006">
        <ele>2.7</ele>
        <time>2020-06-15T16:30:33Z</time>
      </trkpt>
      <trkpt lat="49.42895" lon="-1.19003">
        <ele>2.7</ele>
        <time>2020-06-15T16:30:34Z</time>
      </trkpt>
      <trkpt lat="49.42895" lon="-1.19002">
        <ele>2.8</ele>
        <time>2020-06-15T16:30:35Z</time>
      </trkpt>
      <trkpt lat="49.42897" lon="-1.18999">
        <ele>2.8</ele>
        <time>2020-06-15T16:30:36Z</time>
      </trkpt>
      <trkpt lat="49.42898" lon="-1.18999">
        <ele>2.9</ele>
        <time>2020-06-15T16:30:37Z</time>
      </trkpt>
      <trkpt lat="49.42898" lon="-1.18999">
        <ele>2.9</ele>
        <time>2020-06-15T16:30:38Z</time>
      </trkpt>
      <trkpt lat="49.42899" lon="-1.18997">
        <ele>2.9</ele>
        <time>2020-06-15T16:30:39Z</time>
      </trkpt>
      <trkpt lat="49.42901" lon="-1.18996">
        <ele>3</ele>
        <time>2020-06-15T16:30:40Z</time>
      </trkpt>
      <trkpt lat="49.42901" lon="-1.18994">
        <ele>3</ele>
        <time>2020-06-15T16:30:41Z</time>
      </trkpt>
      <trkpt lat="49.42903" lon="-1.18993">
        <ele>3.1</ele>
        <time>2020-06-15T16:30:42Z</time>
      </trkpt>
      <trkpt lat="49.42904" lon="-1.18992">
        <ele>3.1</ele>
        <time>2020-06-15T16:30:43Z</time>
      </trkpt>
      <trkpt lat="49.42905" lon="-1.18992">
        <ele>3.1</ele>
        <time>2020-06-15T16:30:44Z</time>
      </trkpt>
      <trkpt lat="49.42907" lon="-1.18991">
        <ele>3.1</ele>
        <time>2020-06-15T16:30:45Z</time>
      </trkpt>
      <trkpt lat="49.42908" lon="-1.18989">
        <ele>3.2</ele>
        <time>2020-06-15T16:30:46Z</time>
      </trkpt>
      <trkpt lat="49.42909" lon="-1.18987">
        <ele>3.2</ele>
        <time>2020-06-15T16:30:47Z</time>
      </trkpt>
      <trkpt lat="49.42909" lon="-1.18986">
        <ele>3.3</ele>
        <time>2020-06-15T16:30:48Z</time>
      </trkpt>
      <trkpt lat="49.4291" lon="-1.18984">
        <ele>3.3</ele>
        <time>2020-06-15T16:30:49Z</time>
      </trkpt>
      <trkpt lat="49.4291" lon="-1.18984">
        <ele>3.3</ele>
        <time>2020-06-15T16:30:50Z</time>
      </trkpt>
      <trkpt lat="49.4291" lon="-1.18983">
        <ele>3.3</ele>
        <time>2020-06-15T16:30:51Z</time>
      </trkpt>
      <trkpt lat="49.4291" lon="-1.18983">
        <ele>3.4</ele>
        <time>2020-06-15T16:30:52Z</time>
      </trkpt>
      <trkpt lat="49.4291" lon="-1.18983">
        <ele>3.5</ele>
        <time>2020-06-15T16:30:53Z</time>
      </trkpt>
      <trkpt lat="49.4291" lon="-1.18982">
        <ele>3.5</ele>
        <time>2020-06-15T16:30:54Z</time>
      </trkpt>
      <trkpt lat="49.42911" lon="-1.18981">
        <ele>3.5</ele>
        <time>2020-06-15T16:30:55Z</time>
      </trkpt>
      <trkpt lat="49.42911" lon="-1.18981">
        <ele>3.6</ele>
        <time>2020-06-15T16:30:56Z</time>
      </trkpt>
      <trkpt lat="49.42911" lon="-1.1898">
        <ele>3.6</ele>
        <time>2020-06-15T16:30:57Z</time>
      </trkpt>
      <trkpt lat="49.42911" lon="-1.18979">
        <ele>3.6</ele>
        <time>2020-06-15T16:30:58Z</time>
      </trkpt>
      <trkpt lat="49.42911" lon="-1.18979">
        <ele>3.7</ele>
        <time>2020-06-15T16:30:59Z</time>
      </trkpt>
      <trkpt lat="49.42934" lon="-1.1888">
        <ele>0.4</ele>
        <time>2020-06-15T16:32:29Z</time>
      </trkpt>
      <trkpt lat="49.42935" lon="-1.18882">
        <ele>0.5</ele>
        <time>2020-06-15T16:32:30Z</time>
      </trkpt>
      <trkpt lat="49.42935" lon="-1.18884">
        <ele>0.5</ele>
        <time>2020-06-15T16:32:31Z</time>
      </trkpt>
      <trkpt lat="49.42935" lon="-1.18886">
        <ele>0.6</ele>
        <time>2020-06-15T16:32:32Z</time>
      </trkpt>
      <trkpt lat="49.42934" lon="-1.1889">
        <ele>0.6</ele>
        <time>2020-06-15T16:32:33Z</time>
      </trkpt>
      <trkpt lat="49.42934" lon="-1.18892">
        <ele>0.7</ele>
        <time>2020-06-15T16:32:34Z</time>
      </trkpt>
      <trkpt lat="49.42933" lon="-1.18895">
        <ele>0.7</ele>
        <time>2020-06-15T16:32:35Z</time>
      </trkpt>
      <trkpt lat="49.42933" lon="-1.18896">
        <ele>0.8</ele>
        <time>2020-06-15T16:32:36Z</time>
      </trkpt>
      <trkpt lat="49.42933" lon="-1.18897">
        <ele>0.8</ele>
        <time>2020-06-15T16:32:37Z</time>
      </trkpt>
      <trkpt lat="49.42932" lon="-1.189">
        <ele>0.8</ele>
        <time>2020-06-15T16:32:38Z</time>
      </trkpt>
      <trkpt lat="49.42932" lon="-1.18901">
        <ele>0.7</ele>
        <time>2020-06-15T16:32:39Z</time>
      </trkpt>
      <trkpt lat="49.42932" lon="-1.18902">
        <ele>0.8</ele>
        <time>2020-06-15T16:32:40Z</time>
      </trkpt>
      <trkpt lat="49.42931" lon="-1.18903">
        <ele>0.7</ele>
        <time>2020-06-15T16:32:41Z</time>
      </trkpt>
      <trkpt lat="49.42932" lon="-1.18905">
        <ele>0.8</ele>
        <time>2020-06-15T16:32:42Z</time>
      </trkpt>
      <trkpt lat="49.42933" lon="-1.18906">
        <ele>0.7</ele>
        <time>2020-06-15T16:32:43Z</time>
      </trkpt>
      <trkpt lat="49.42933" lon="-1.18905">
        <ele>0.9</ele>
        <time>2020-06-15T16:32:44Z</time>
      </trkpt>
      <trkpt lat="49.42932" lon="-1.18906">
        <ele>0.8</ele>
        <time>2020-06-15T16:32:45Z</time>
      </trkpt>
      <trkpt lat="49.42931" lon="-1.18906">
        <ele>0.8</ele>
        <time>2020-06-15T16:32:46Z</time>
      </trkpt>
      <trkpt lat="49.4293" lon="-1.1891">
        <ele>0.8</ele>
        <time>2020-06-15T16:32:47Z</time>
      </trkpt>
      <trkpt lat="49.42928" lon="-1.1891">
        <ele>0.8</ele>
        <time>2020-06-15T16:32:48Z</time>
      </trkpt>
      <trkpt lat="49.42927" lon="-1.18911">
        <ele>0.8</ele>
        <time>2020-06-15T16:32:49Z</time>
      </trkpt>
      <trkpt lat="49.42926" lon="-1.18912">
        <ele>0.9</ele>
        <time>2020-06-15T16:32:50Z</time>
      </trkpt>
      <trkpt lat="49.42925" lon="-1.18914">
        <ele>0.9</ele>
        <time>2020-06-15T16:32:51Z</time>
      </trkpt>
      <trkpt lat="49.42924" lon="-1.18914">
        <ele>1</ele>
        <time>2020-06-15T16:32:52Z</time>
      </trkpt>
      <trkpt lat="49.42923" lon="-1.18914">
        <ele>1.1</ele>
        <time>2020-06-15T16:32:53Z</time>
      </trkpt>
      <trkpt lat="49.42922" lon="-1.18914">
        <ele>1.1</ele>
        <time>2020-06-15T16:32:54Z</time>
      </trkpt>
      <trkpt lat="49.42922" lon="-1.18914">
        <ele>1.1</ele>
        <time>2020-06-15T16:32:55Z</time>
      </trkpt>
      <trkpt lat="49.42923" lon="-1.18914">
        <ele>1.1</ele>
        <time>2020-06-15T16:32:56Z</time>
      </trkpt>
      <trkpt lat="49.42923" lon="-1.18913">
        <ele>1.1</ele>
        <time>2020-06-15T16:32:57Z</time>
      </trkpt>
      <trkpt lat="49.42922" lon="-1.18913">
        <ele>1.2</ele>
        <time>2020-06-15T16:32:58Z</time>
      </trkpt>
      <trkpt lat="49.42922" lon="-1.18913">
        <ele>1.2</ele>
        <time>2020-06-15T16:32:59Z</time>
      </trkpt>
      <trkpt lat="49.42922" lon="-1.18912">
        <ele>1.3</ele>
        <time>2020-06-15T16:33:00Z</time>
      </trkpt>
      <trkpt lat="49.42922" lon="-1.18912">
        <ele>1.3</ele>
        <time>2020-06-15T16:33:01Z</time>
      </trkpt>
      <trkpt lat="49.42922" lon="-1.18912">
        <ele>1.3</ele>
        <time>2020-06-15T16:33:02Z</time>
      </trkpt>
      <trkpt lat="49.42922" lon="-1.18911">
        <ele>1.4</ele>
        <time>2020-06-15T16:33:03Z</time>
      </trkpt>
      <trkpt lat="49.42922" lon="-1.1891">
        <ele>1.3</ele>
        <time>2020-06-15T16:33:04Z</time>
      </trkpt>
      <trkpt lat="49.42921" lon="-1.18909">
        <ele>1.3</ele>
        <time>2020-06-15T16:33:05Z</time>
      </trkpt>
      <trkpt lat="49.4292" lon="-1.1891">
        <ele>1.4</ele>
        <time>2020-06-15T16:33:06Z</time>
      </trkpt>
      <trkpt lat="49.4292" lon="-1.18908">
        <ele>1.4</ele>
        <time>2020-06-15T16:33:07Z</time>
      </trkpt>
      <trkpt lat="49.42921" lon="-1.18907">
        <ele>1.4</ele>
        <time>2020-06-15T16:33:08Z</time>
      </trkpt>
      <trkpt lat="49.4292" lon="-1.18907">
        <ele>1.5</ele>
        <time>2020-06-15T16:33:09Z</time>
      </trkpt>
      <trkpt lat="49.4292" lon="-1.18905">
        <ele>1.4</ele>
        <time>2020-06-15T16:33:10Z</time>
      </trkpt>
      <trkpt lat="49.42921" lon="-1.18906">
        <ele>1.5</ele>
        <time>2020-06-15T16:33:11Z</time>
      </trkpt>
      <trkpt lat="49.42922" lon="-1.18907">
        <ele>1.6</ele>
        <time>2020-06-15T16:33:12Z</time>
      </trkpt>
      <trkpt lat="49.42923" lon="-1.18908">
        <ele>1.6</ele>
        <time>2020-06-15T16:33:13Z</time>
      </trkpt>
      <trkpt lat="49.42924" lon="-1.18908">
        <ele>1.6</ele>
        <time>2020-06-15T16:33:14Z</time>
      </trkpt>
      <trkpt lat="49.42924" lon="-1.1891">
        <ele>1.7</ele>
        <time>2020-06-15T16:33:15Z</time>
      </trkpt>
      <trkpt lat="49.42924" lon="-1.18911">
        <ele>1.7</ele>
        <time>2020-06-15T16:33:16Z</time>
      </trkpt>
      <trkpt lat="49.42925" lon="-1.18913">
        <ele>1.7</ele>
        <time>2020-06-15T16:33:17Z</time>
      </trkpt>
      <trkpt lat="49.42925" lon="-1.18914">
        <ele>1.8</ele>
        <time>2020-06-15T16:33:18Z</time>
      </trkpt>
      <trkpt lat="49.42925" lon="-1.18914">
        <ele>1.8</ele>
        <time>2020-06-15T16:33:19Z</time>
      </trkpt>
      <trkpt lat="49.42925" lon="-1.18915">
        <ele>1.9</ele>
        <time>2020-06-15T16:33:20Z</time>
      </trkpt>
      <trkpt lat="49.42925" lon="-1.18915">
        <ele>2</ele>
        <time>2020-06-15T16:33:21Z</time>
      </trkpt>
      <trkpt lat="49.42925" lon="-1.18916">
        <ele>2</ele>
        <time>2020-06-15T16:33:22Z</time>
      </trkpt>
      <trkpt lat="49.42924" lon="-1.18916">
        <ele>2</ele>
        <time>2020-06-15T16:33:23Z</time>
      </trkpt>
      <trkpt lat="49.42924" lon="-1.18917">
        <ele>2.1</ele>
        <time>2020-06-15T16:33:24Z</time>
      </trkpt>
      <trkpt lat="49.42924" lon="-1.18917">
        <ele>2.1</ele>
        <time>2020-06-15T16:33:25Z</time>
      </trkpt>
      <trkpt lat="49.42924" lon="-1.18918">
        <ele>2.1</ele>
        <time>2020-06-15T16:33:26Z</time>
      </trkpt>
      <trkpt lat="49.42924" lon="-1.18919">
        <ele>2.3</ele>
        <time>2020-06-15T16:33:27Z</time>
      </trkpt>
      <trkpt lat="49.42923" lon="-1.18919">
        <ele>2.3</ele>
        <time>2020-06-15T16:33:28Z</time>
      </trkpt>
      <trkpt lat="49.42923" lon="-1.1892">
        <ele>2.4</ele>
        <time>2020-06-15T16:33:29Z</time>
      </trkpt>
      <trkpt lat="49.42923" lon="-1.1892">
        <ele>2.7</ele>
        <time>2020-06-15T16:33:30Z</time>
      </trkpt>
      <trkpt lat="49.42923" lon="-1.18921">
        <ele>2.7</ele>
        <time>2020-06-15T16:33:31Z</time>
      </trkpt>
      <trkpt lat="49.42922" lon="-1.18925">
        <ele>3</ele>
        <time>2020-06-15T16:33:32Z</time>
      </trkpt>
      <trkpt lat="49.42921" lon="-1.18928">
        <ele>3.1</ele>
        <time>2020-06-15T16:33:33Z</time>
      </trkpt>
      <trkpt lat="49.4292" lon="-1.18929">
        <ele>3.1</ele>
        <time>2020-06-15T16:33:34Z</time>
      </trkpt>
      <trkpt lat="49.4292" lon="-1.18929">
        <ele>3.1</ele>
        <time>2020-06-15T16:33:35Z</time>
      </trkpt>
      <trkpt lat="49.4292" lon="-1.1893">
        <ele>3.1</ele>
        <time>2020-06-15T16:33:36Z</time>
      </trkpt>
      <trkpt lat="49.4292" lon="-1.1893">
        <ele>3.1</ele>
        <time>2020-06-15T16:33:37Z</time>
      </trkpt>
      <trkpt lat="49.42919" lon="-1.18932">
        <ele>3.2</ele>
        <time>2020-06-15T16:33:38Z</time>
      </trkpt>
      <trkpt lat="49.42919" lon="-1.18932">
        <ele>3.2</ele>
        <time>2020-06-15T16:33:39Z</time>
      </trkpt>
      <trkpt lat="49.42919" lon="-1.18932">
        <ele>3.2</ele>
        <time>2020-06-15T16:33:40Z</time>
      </trkpt>
      <trkpt lat="49.42919" lon="-1.18932">
        <ele>3.2</ele>
        <time>2020-06-15T16:33:41Z</time>
      </trkpt>
      <trkpt lat="49.42919" lon="-1.18932">
        <ele>3.2</ele>
        <time>2020-06-15T16:33:42Z</time>
      </trkpt>
      <trkpt lat="49.42918" lon="-1.18932">
        <ele>3.2</ele>
        <time>2020-06-15T16:33:43Z</time>
      </trkpt>
      <trkpt lat="49.42918" lon="-1.18931">
        <ele>3.2</ele>
        <time>2020-06-15T16:33:44Z</time>
      </trkpt>
      <trkpt lat="49.42918" lon="-1.18931">
        <ele>3.2</ele>
        <time>2020-06-15T16:33:45Z</time>
      </trkpt>
      <trkpt lat="49.42918" lon="-1.18931">
        <ele>3.2</ele>
        <time>2020-06-15T16:33:46Z</time>
      </trkpt>
      <trkpt lat="49.42923" lon="-1.18936">
        <ele>3.3</ele>
        <time>2020-06-15T16:38:59Z</time>
      </trkpt>
      <trkpt lat="49.42923" lon="-1.18937">
        <ele>3.3</ele>
        <time>2020-06-15T16:39:00Z</time>
      </trkpt>
      <trkpt lat="49.42923" lon="-1.18938">
        <ele>3.3</ele>
        <time>2020-06-15T16:39:01Z</time>
      </trkpt>
      <trkpt lat="49.42924" lon="-1.18939">
        <ele>3.3</ele>
        <time>2020-06-15T16:39:02Z</time>
      </trkpt>
      <trkpt lat="49.42924" lon="-1.1894">
        <ele>3.3</ele>
        <time>2020-06-15T16:39:03Z</time>
      </trkpt>
      <trkpt lat="49.42925" lon="-1.18941">
        <ele>3.3</ele>
        <time>2020-06-15T16:39:04Z</time>
      </trkpt>
      <trkpt lat="49.42925" lon="-1.18942">
        <ele>3.3</ele>
        <time>2020-06-15T16:39:05Z</time>
      </trkpt>
      <trkpt lat="49.42925" lon="-1.18943">
        <ele>3.3</ele>
        <time>2020-06-15T16:39:06Z</time>
      </trkpt>
      <trkpt lat="49.42926" lon="-1.18945">
        <ele>3.3</ele>
        <time>2020-06-15T16:39:07Z</time>
      </trkpt>
      <trkpt lat="49.42926" lon="-1.18946">
        <ele>3.3</ele>
        <time>2020-06-15T16:39:08Z</time>
      </trkpt>
      <trkpt lat="49.42927" lon="-1.18947">
        <ele>3.3</ele>
        <time>2020-06-15T16:39:09Z</time>
      </trkpt>
      <trkpt lat="49.42927" lon="-1.18948">
        <ele>3.3</ele>
        <time>2020-06-15T16:39:10Z</time>
      </trkpt>
      <trkpt lat="49.42928" lon="-1.18949">
        <ele>3.3</ele>
        <time>2020-06-15T16:39:11Z</time>
      </trkpt>
      <trkpt lat="49.42928" lon="-1.18951">
        <ele>3.3</ele>
        <time>2020-06-15T16:39:12Z</time>
      </trkpt>
      <trkpt lat="49.42929" lon="-1.18952">
        <ele>3.3</ele>
        <time>2020-06-15T16:39:13Z</time>
      </trkpt>
      <trkpt lat="49.4293" lon="-1.18953">
        <ele>3.3</ele>
        <time>2020-06-15T16:39:14Z</time>
      </trkpt>
      <trkpt lat="49.4293" lon="-1.18954">
        <ele>3.3</ele>
        <time>2020-06-15T16:39:15Z</time>
      </trkpt>
      <trkpt lat="49.42931" lon="-1.18955">
        <ele>3.3</ele>
        <time>2020-06-15T16:39:16Z</time>
      </trkpt>
      <trkpt lat="49.42932" lon="-1.18957">
        <ele>3.2</ele>
        <time>2020-06-15T16:39:17Z</time>
      </trkpt>
      <trkpt lat="49.42932" lon="-1.18958">
        <ele>3.2</ele>
        <time>2020-06-15T16:39:18Z</time>
      </trkpt>
      <trkpt lat="49.42933" lon="-1.18958">
        <ele>3.2</ele>
        <time>2020-06-15T16:39:19Z</time>
      </trkpt>
      <trkpt lat="49.42933" lon="-1.18959">
        <ele>3.2</ele>
        <time>2020-06-15T16:39:20Z</time>
      </trkpt>
      <trkpt lat="49.42934" lon="-1.18959">
        <ele>3.2</ele>
        <time>2020-06-15T16:39:21Z</time>
      </trkpt>
      <trkpt lat="49.42935" lon="-1.1896">
        <ele>3.2</ele>
        <time>2020-06-15T16:39:22Z</time>
      </trkpt>
      <trkpt lat="49.42936" lon="-1.18962">
        <ele>3.2</ele>
        <time>2020-06-15T16:39:23Z</time>
      </trkpt>
      <trkpt lat="49.42937" lon="-1.18964">
        <ele>3.1</ele>
        <time>2020-06-15T16:39:24Z</time>
      </trkpt>
      <trkpt lat="49.42938" lon="-1.18967">
        <ele>3.1</ele>
        <time>2020-06-15T16:39:25Z</time>
      </trkpt>
      <trkpt lat="49.42939" lon="-1.18968">
        <ele>3</ele>
        <time>2020-06-15T16:39:26Z</time>
      </trkpt>
      <trkpt lat="49.4294" lon="-1.1897">
        <ele>3</ele>
        <time>2020-06-15T16:39:27Z</time>
      </trkpt>
      <trkpt lat="49.4294" lon="-1.18971">
        <ele>3</ele>
        <time>2020-06-15T16:39:28Z</time>
      </trkpt>
      <trkpt lat="49.42939" lon="-1.18971">
        <ele>3</ele>
        <time>2020-06-15T16:39:29Z</time>
      </trkpt>
      <trkpt lat="49.42938" lon="-1.18973">
        <ele>3</ele>
        <time>2020-06-15T16:39:30Z</time>
      </trkpt>
      <trkpt lat="49.42938" lon="-1.18976">
        <ele>3</ele>
        <time>2020-06-15T16:39:31Z</time>
      </trkpt>
      <trkpt lat="49.42937" lon="-1.18978">
        <ele>3</ele>
        <time>2020-06-15T16:39:32Z</time>
      </trkpt>
      <trkpt lat="49.42936" lon="-1.1898">
        <ele>2.9</ele>
        <time>2020-06-15T16:39:33Z</time>
      </trkpt>
      <trkpt lat="49.42936" lon="-1.18982">
        <ele>2.9</ele>
        <time>2020-06-15T16:39:34Z</time>
      </trkpt>
      <trkpt lat="49.42936" lon="-1.18985">
        <ele>2.9</ele>
        <time>2020-06-15T16:39:35Z</time>
      </trkpt>
      <trkpt lat="49.42936" lon="-1.18986">
        <ele>2.9</ele>
        <time>2020-06-15T16:39:36Z</time>
      </trkpt>
      <trkpt lat="49.42936" lon="-1.18987">
        <ele>2.9</ele>
        <time>2020-06-15T16:39:37Z</time>
      </trkpt>
      <trkpt lat="49.42935" lon="-1.18988">
        <ele>2.9</ele>
        <time>2020-06-15T16:39:38Z</time>
      </trkpt>
      <trkpt lat="49.42936" lon="-1.1899">
        <ele>2.8</ele>
        <time>2020-06-15T16:39:39Z</time>
      </trkpt>
      <trkpt lat="49.42935" lon="-1.18991">
        <ele>2.8</ele>
        <time>2020-06-15T16:39:40Z</time>
      </trkpt>
      <trkpt lat="49.42934" lon="-1.18993">
        <ele>2.8</ele>
        <time>2020-06-15T16:39:41Z</time>
      </trkpt>
      <trkpt lat="49.42933" lon="-1.18994">
        <ele>2.8</ele>
        <time>2020-06-15T16:39:42Z</time>
      </trkpt>
      <trkpt lat="49.42932" lon="-1.18996">
        <ele>2.8</ele>
        <time>2020-06-15T16:39:43Z</time>
      </trkpt>
      <trkpt lat="49.42931" lon="-1.18997">
        <ele>2.7</ele>
        <time>2020-06-15T16:39:44Z</time>
      </trkpt>
      <trkpt lat="49.4293" lon="-1.18999">
        <ele>2.7</ele>
        <time>2020-06-15T16:39:45Z</time>
      </trkpt>
      <trkpt lat="49.42929" lon="-1.19">
        <ele>2.7</ele>
        <time>2020-06-15T16:39:46Z</time>
      </trkpt>
      <trkpt lat="49.42928" lon="-1.19002">
        <ele>2.7</ele>
        <time>2020-06-15T16:39:47Z</time>
      </trkpt>
      <trkpt lat="49.42927" lon="-1.19005">
        <ele>2.6</ele>
        <time>2020-06-15T16:39:48Z</time>
      </trkpt>
      <trkpt lat="49.42926" lon="-1.19007">
        <ele>2.6</ele>
        <time>2020-06-15T16:39:49Z</time>
      </trkpt>
      <trkpt lat="49.42924" lon="-1.19009">
        <ele>2.6</ele>
        <time>2020-06-15T16:39:50Z</time>
      </trkpt>
      <trkpt lat="49.42923" lon="-1.1901">
        <ele>2.6</ele>
        <time>2020-06-15T16:39:51Z</time>
      </trkpt>
      <trkpt lat="49.42922" lon="-1.19012">
        <ele>2.6</ele>
        <time>2020-06-15T16:39:52Z</time>
      </trkpt>
      <trkpt lat="49.42922" lon="-1.19015">
        <ele>2.6</ele>
        <time>2020-06-15T16:39:53Z</time>
      </trkpt>
      <trkpt lat="49.4292" lon="-1.19017">
        <ele>2.5</ele>
        <time>2020-06-15T16:39:54Z</time>
      </trkpt>
      <trkpt lat="49.42919" lon="-1.19018">
        <ele>2.5</ele>
        <time>2020-06-15T16:39:55Z</time>
      </trkpt>
      <trkpt lat="49.42919" lon="-1.19019">
        <ele>2.5</ele>
        <time>2020-06-15T16:39:56Z</time>
      </trkpt>
      <trkpt lat="49.42918" lon="-1.1902">
        <ele>2.5</ele>
        <time>2020-06-15T16:39:57Z</time>
      </trkpt>
      <trkpt lat="49.42918" lon="-1.1902">
        <ele>2.5</ele>
        <time>2020-06-15T16:39:58Z</time>
      </trkpt>
      <trkpt lat="49.42918" lon="-1.19021">
        <ele>2.5</ele>
        <time>2020-06-15T16:39:59Z</time>
      </trkpt>
      <trkpt lat="49.42917" lon="-1.19022">
        <ele>2.5</ele>
        <time>2020-06-15T16:40:00Z</time>
      </trkpt>
      <trkpt lat="49.42917" lon="-1.19023">
        <ele>2.5</ele>
        <time>2020-06-15T16:40:01Z</time>
      </trkpt>
      <trkpt lat="49.42917" lon="-1.19024">
        <ele>2.5</ele>
        <time>2020-06-15T16:40:02Z</time>
      </trkpt>
      <trkpt lat="49.42916" lon="-1.19025">
        <ele>2.5</ele>
        <time>2020-06-15T16:40:03Z</time>
      </trkpt>
      <trkpt lat="49.42915" lon="-1.19027">
        <ele>2.5</ele>
        <time>2020-06-15T16:40:04Z</time>
      </trkpt>
      <trkpt lat="49.42915" lon="-1.19029">
        <ele>2.5</ele>
        <time>2020-06-15T16:40:05Z</time>
      </trkpt>
      <trkpt lat="49.42914" lon="-1.19031">
        <ele>2.5</ele>
        <time>2020-06-15T16:40:06Z</time>
      </trkpt>
      <trkpt lat="49.42913" lon="-1.19032">
        <ele>2.5</ele>
        <time>2020-06-15T16:40:07Z</time>
      </trkpt>
      <trkpt lat="49.42912" lon="-1.19034">
        <ele>2.5</ele>
        <time>2020-06-15T16:40:08Z</time>
      </trkpt>
      <trkpt lat="49.42912" lon="-1.19035">
        <ele>2.5</ele>
        <time>2020-06-15T16:40:09Z</time>
      </trkpt>
      <trkpt lat="49.42911" lon="-1.19038">
        <ele>2.5</ele>
        <time>2020-06-15T16:40:10Z</time>
      </trkpt>
      <trkpt lat="49.42911" lon="-1.19039">
        <ele>2.5</ele>
        <time>2020-06-15T16:40:11Z</time>
      </trkpt>
      <trkpt lat="49.4291" lon="-1.19041">
        <ele>2.5</ele>
        <time>2020-06-15T16:40:12Z</time>
      </trkpt>
      <trkpt lat="49.42909" lon="-1.19042">
        <ele>2.5</ele>
        <time>2020-06-15T16:40:13Z</time>
      </trkpt>
      <trkpt lat="49.42909" lon="-1.19043">
        <ele>2.5</ele>
        <time>2020-06-15T16:40:14Z</time>
      </trkpt>
      <trkpt lat="49.42908" lon="-1.19045">
        <ele>2.5</ele>
        <time>2020-06-15T16:40:15Z</time>
      </trkpt>
      <trkpt lat="49.42907" lon="-1.19047">
        <ele>2.5</ele>
        <time>2020-06-15T16:40:16Z</time>
      </trkpt>
      <trkpt lat="49.42906" lon="-1.19048">
        <ele>2.5</ele>
        <time>2020-06-15T16:40:17Z</time>
      </trkpt>
      <trkpt lat="49.42905" lon="-1.19049">
        <ele>2.5</ele>
        <time>2020-06-15T16:40:18Z</time>
      </trkpt>
      <trkpt lat="49.42904" lon="-1.1905">
        <ele>2.5</ele>
        <time>2020-06-15T16:40:19Z</time>
      </trkpt>
      <trkpt lat="49.42904" lon="-1.19051">
        <ele>2.5</ele>
        <time>2020-06-15T16:40:20Z</time>
      </trkpt>
      <trkpt lat="49.42902" lon="-1.19054">
        <ele>2.5</ele>
        <time>2020-06-15T16:40:21Z</time>
      </trkpt>
      <trkpt lat="49.42901" lon="-1.19055">
        <ele>2.6</ele>
        <time>2020-06-15T16:40:22Z</time>
      </trkpt>
      <trkpt lat="49.429" lon="-1.19057">
        <ele>2.6</ele>
        <time>2020-06-15T16:40:23Z</time>
      </trkpt>
      <trkpt lat="49.42899" lon="-1.19059">
        <ele>2.6</ele>
        <time>2020-06-15T16:40:24Z</time>
      </trkpt>
      <trkpt lat="49.42897" lon="-1.19061">
        <ele>2.6</ele>
        <time>2020-06-15T16:40:25Z</time>
      </trkpt>
      <trkpt lat="49.42896" lon="-1.19062">
        <ele>2.6</ele>
        <time>2020-06-15T16:40:26Z</time>
      </trkpt>
      <trkpt lat="49.42896" lon="-1.19063">
        <ele>2.6</ele>
        <time>2020-06-15T16:40:27Z</time>
      </trkpt>
      <trkpt lat="49.42895" lon="-1.19064">
        <ele>2.6</ele>
        <time>2020-06-15T16:40:28Z</time>
      </trkpt>
      <trkpt lat="49.42894" lon="-1.19064">
        <ele>2.6</ele>
        <time>2020-06-15T16:40:29Z</time>
      </trkpt>
      <trkpt lat="49.42892" lon="-1.19063">
        <ele>2.6</ele>
        <time>2020-06-15T16:40:30Z</time>
      </trkpt>
      <trkpt lat="49.42891" lon="-1.19063">
        <ele>2.6</ele>
        <time>2020-06-15T16:40:31Z</time>
      </trkpt>
      <trkpt lat="49.4289" lon="-1.19063">
        <ele>2.6</ele>
        <time>2020-06-15T16:40:32Z</time>
      </trkpt>
      <trkpt lat="49.42889" lon="-1.19063">
        <ele>2.6</ele>
        <time>2020-06-15T16:40:33Z</time>
      </trkpt>
      <trkpt lat="49.42888" lon="-1.19062">
        <ele>2.6</ele>
        <time>2020-06-15T16:40:34Z</time>
      </trkpt>
      <trkpt lat="49.42887" lon="-1.19061">
        <ele>2.6</ele>
        <time>2020-06-15T16:40:35Z</time>
      </trkpt>
      <trkpt lat="49.42886" lon="-1.19061">
        <ele>2.6</ele>
        <time>2020-06-15T16:40:36Z</time>
      </trkpt>
      <trkpt lat="49.42885" lon="-1.1906">
        <ele>2.6</ele>
        <time>2020-06-15T16:40:37Z</time>
      </trkpt>
      <trkpt lat="49.42884" lon="-1.19059">
        <ele>2.6</ele>
        <time>2020-06-15T16:40:38Z</time>
      </trkpt>
      <trkpt lat="49.42883" lon="-1.19057">
        <ele>2.6</ele>
        <time>2020-06-15T16:40:39Z</time>
      </trkpt>
      <trkpt lat="49.42882" lon="-1.19056">
        <ele>2.7</ele>
        <time>2020-06-15T16:40:40Z</time>
      </trkpt>
      <trkpt lat="49.42882" lon="-1.19055">
        <ele>2.7</ele>
        <time>2020-06-15T16:40:41Z</time>
      </trkpt>
      <trkpt lat="49.42882" lon="-1.19054">
        <ele>2.7</ele>
        <time>2020-06-15T16:40:42Z</time>
      </trkpt>
      <trkpt lat="49.42882" lon="-1.19053">
        <ele>2.7</ele>
        <time>2020-06-15T16:40:43Z</time>
      </trkpt>
      <trkpt lat="49.42882" lon="-1.1905">
        <ele>2.7</ele>
        <time>2020-06-15T16:40:44Z</time>
      </trkpt>
      <trkpt lat="49.42882" lon="-1.19048">
        <ele>2.7</ele>
        <time>2020-06-15T16:40:45Z</time>
      </trkpt>
      <trkpt lat="49.42882" lon="-1.19046">
        <ele>2.7</ele>
        <time>2020-06-15T16:40:46Z</time>
      </trkpt>
      <trkpt lat="49.42882" lon="-1.19045">
        <ele>2.7</ele>
        <time>2020-06-15T16:40:47Z</time>
      </trkpt>
      <trkpt lat="49.42882" lon="-1.19045">
        <ele>2.7</ele>
        <time>2020-06-15T16:40:48Z</time>
      </trkpt>
      <trkpt lat="49.42883" lon="-1.19044">
        <ele>2.7</ele>
        <time>2020-06-15T16:40:49Z</time>
      </trkpt>
      <trkpt lat="49.42883" lon="-1.19044">
        <ele>2.7</ele>
        <time>2020-06-15T16:40:50Z</time>
      </trkpt>
      <trkpt lat="49.42883" lon="-1.19043">
        <ele>2.7</ele>
        <time>2020-06-15T16:40:51Z</time>
      </trkpt>
      <trkpt lat="49.42882" lon="-1.19042">
        <ele>2.7</ele>
        <time>2020-06-15T16:40:52Z</time>
      </trkpt>
      <trkpt lat="49.42882" lon="-1.19043">
        <ele>2.7</ele>
        <time>2020-06-15T16:40:53Z</time>
      </trkpt>
      <trkpt lat="49.42882" lon="-1.19044">
        <ele>2.7</ele>
        <time>2020-06-15T16:40:54Z</time>
      </trkpt>
      <trkpt lat="49.42882" lon="-1.19045">
        <ele>2.7</ele>
        <time>2020-06-15T16:40:55Z</time>
      </trkpt>
      <trkpt lat="49.42882" lon="-1.19046">
        <ele>2.7</ele>
        <time>2020-06-15T16:40:56Z</time>
      </trkpt>
      <trkpt lat="49.42882" lon="-1.19047">
        <ele>2.7</ele>
        <time>2020-06-15T16:40:57Z</time>
      </trkpt>
      <trkpt lat="49.42882" lon="-1.19048">
        <ele>2.7</ele>
        <time>2020-06-15T16:40:58Z</time>
      </trkpt>
      <trkpt lat="49.42883" lon="-1.1905">
        <ele>2.7</ele>
        <time>2020-06-15T16:40:59Z</time>
      </trkpt>
      <trkpt lat="49.42883" lon="-1.19052">
        <ele>2.7</ele>
        <time>2020-06-15T16:41:00Z</time>
      </trkpt>
      <trkpt lat="49.42883" lon="-1.19053">
        <ele>2.7</ele>
        <time>2020-06-15T16:41:01Z</time>
      </trkpt>
      <trkpt lat="49.42883" lon="-1.19053">
        <ele>2.7</ele>
        <time>2020-06-15T16:41:02Z</time>
      </trkpt>
      <trkpt lat="49.42882" lon="-1.19054">
        <ele>2.7</ele>
        <time>2020-06-15T16:41:03Z</time>
      </trkpt>
      <trkpt lat="49.42882" lon="-1.19054">
        <ele>2.7</ele>
        <time>2020-06-15T16:41:04Z</time>
      </trkpt>
      <trkpt lat="49.42882" lon="-1.19055">
        <ele>2.7</ele>
        <time>2020-06-15T16:41:05Z</time>
      </trkpt>
      <trkpt lat="49.42882" lon="-1.19056">
        <ele>2.7</ele>
        <time>2020-06-15T16:41:06Z</time>
      </trkpt>
      <trkpt lat="49.42882" lon="-1.19057">
        <ele>2.7</ele>
        <time>2020-06-15T16:41:07Z</time>
      </trkpt>
      <trkpt lat="49.42882" lon="-1.1906">
        <ele>2.7</ele>
        <time>2020-06-15T16:41:08Z</time>
      </trkpt>
      <trkpt lat="49.42883" lon="-1.19062">
        <ele>2.7</ele>
        <time>2020-06-15T16:41:09Z</time>
      </trkpt>
      <trkpt lat="49.42883" lon="-1.19063">
        <ele>2.7</ele>
        <time>2020-06-15T16:41:10Z</time>
      </trkpt>
      <trkpt lat="49.42883" lon="-1.19065">
        <ele>2.7</ele>
        <time>2020-06-15T16:41:11Z</time>
      </trkpt>
      <trkpt lat="49.42884" lon="-1.19067">
        <ele>2.7</ele>
        <time>2020-06-15T16:41:12Z</time>
      </trkpt>
      <trkpt lat="49.42884" lon="-1.19069">
        <ele>2.7</ele>
        <time>2020-06-15T16:41:13Z</time>
      </trkpt>
      <trkpt lat="49.42884" lon="-1.19073">
        <ele>2.7</ele>
        <time>2020-06-15T16:41:14Z</time>
      </trkpt>
      <trkpt lat="49.42885" lon="-1.19079">
        <ele>2.7</ele>
        <time>2020-06-15T16:41:15Z</time>
      </trkpt>
      <trkpt lat="49.42884" lon="-1.19081">
        <ele>2.7</ele>
        <time>2020-06-15T16:41:16Z</time>
      </trkpt>
      <trkpt lat="49.42883" lon="-1.19086">
        <ele>2.7</ele>
        <time>2020-06-15T16:41:17Z</time>
      </trkpt>
      <trkpt lat="49.42883" lon="-1.19091">
        <ele>2.7</ele>
        <time>2020-06-15T16:41:18Z</time>
      </trkpt>
      <trkpt lat="49.42882" lon="-1.19096">
        <ele>2.7</ele>
        <time>2020-06-15T16:41:19Z</time>
      </trkpt>
      <trkpt lat="49.42881" lon="-1.19101">
        <ele>2.7</ele>
        <time>2020-06-15T16:41:20Z</time>
      </trkpt>
      <trkpt lat="49.4288" lon="-1.19107">
        <ele>2.7</ele>
        <time>2020-06-15T16:41:21Z</time>
      </trkpt>
      <trkpt lat="49.42878" lon="-1.19113">
        <ele>2.7</ele>
        <time>2020-06-15T16:41:22Z</time>
      </trkpt>
      <trkpt lat="49.42876" lon="-1.19119">
        <ele>2.6</ele>
        <time>2020-06-15T16:41:23Z</time>
      </trkpt>
      <trkpt lat="49.42875" lon="-1.19125">
        <ele>2.6</ele>
        <time>2020-06-15T16:41:24Z</time>
      </trkpt>
      <trkpt lat="49.42873" lon="-1.19131">
        <ele>2.6</ele>
        <time>2020-06-15T16:41:25Z</time>
      </trkpt>
      <trkpt lat="49.42871" lon="-1.19139">
        <ele>2.6</ele>
        <time>2020-06-15T16:41:26Z</time>
      </trkpt>
      <trkpt lat="49.42869" lon="-1.19146">
        <ele>2.6</ele>
        <time>2020-06-15T16:41:27Z</time>
      </trkpt>
      <trkpt lat="49.42867" lon="-1.19153">
        <ele>2.5</ele>
        <time>2020-06-15T16:41:28Z</time>
      </trkpt>
      <trkpt lat="49.42865" lon="-1.19161">
        <ele>2.5</ele>
        <time>2020-06-15T16:41:29Z</time>
      </trkpt>
      <trkpt lat="49.42863" lon="-1.19167">
        <ele>2.5</ele>
        <time>2020-06-15T16:41:30Z</time>
      </trkpt>
      <trkpt lat="49.4286" lon="-1.19174">
        <ele>2.5</ele>
        <time>2020-06-15T16:41:31Z</time>
      </trkpt>
      <trkpt lat="49.42857" lon="-1.1918">
        <ele>2.5</ele>
        <time>2020-06-15T16:41:32Z</time>
      </trkpt>
      <trkpt lat="49.42855" lon="-1.19187">
        <ele>2.4</ele>
        <time>2020-06-15T16:41:33Z</time>
      </trkpt>
      <trkpt lat="49.42851" lon="-1.19194">
        <ele>2.4</ele>
        <time>2020-06-15T16:41:34Z</time>
      </trkpt>
      <trkpt lat="49.42848" lon="-1.19201">
        <ele>2.4</ele>
        <time>2020-06-15T16:41:35Z</time>
      </trkpt>
      <trkpt lat="49.42845" lon="-1.19207">
        <ele>2.3</ele>
        <time>2020-06-15T16:41:36Z</time>
      </trkpt>
      <trkpt lat="49.42841" lon="-1.19213">
        <ele>2.3</ele>
        <time>2020-06-15T16:41:37Z</time>
      </trkpt>
      <trkpt lat="49.42837" lon="-1.1922">
        <ele>2.3</ele>
        <time>2020-06-15T16:41:38Z</time>
      </trkpt>
      <trkpt lat="49.42833" lon="-1.19226">
        <ele>2.2</ele>
        <time>2020-06-15T16:41:39Z</time>
      </trkpt>
      <trkpt lat="49.42828" lon="-1.19234">
        <ele>2.2</ele>
        <time>2020-06-15T16:41:40Z</time>
      </trkpt>
      <trkpt lat="49.42824" lon="-1.19242">
        <ele>2.2</ele>
        <time>2020-06-15T16:41:41Z</time>
      </trkpt>
      <trkpt lat="49.42821" lon="-1.19249">
        <ele>2.1</ele>
        <time>2020-06-15T16:41:42Z</time>
      </trkpt>
      <trkpt lat="49.42817" lon="-1.19255">
        <ele>2.1</ele>
        <time>2020-06-15T16:41:43Z</time>
      </trkpt>
      <trkpt lat="49.42812" lon="-1.19262">
        <ele>2.1</ele>
        <time>2020-06-15T16:41:44Z</time>
      </trkpt>
      <trkpt lat="49.42808" lon="-1.19269">
        <ele>2.1</ele>
        <time>2020-06-15T16:41:45Z</time>
      </trkpt>
      <trkpt lat="49.42804" lon="-1.19275">
        <ele>2</ele>
        <time>2020-06-15T16:41:46Z</time>
      </trkpt>
      <trkpt lat="49.428" lon="-1.19281">
        <ele>2</ele>
        <time>2020-06-15T16:41:47Z</time>
      </trkpt>
      <trkpt lat="49.42796" lon="-1.19288">
        <ele>2</ele>
        <time>2020-06-15T16:41:48Z</time>
      </trkpt>
      <trkpt lat="49.42792" lon="-1.19295">
        <ele>2</ele>
        <time>2020-06-15T16:41:49Z</time>
      </trkpt>
      <trkpt lat="49.42788" lon="-1.19302">
        <ele>1.9</ele>
        <time>2020-06-15T16:41:50Z</time>
      </trkpt>
      <trkpt lat="49.42784" lon="-1.19309">
        <ele>1.9</ele>
        <time>2020-06-15T16:41:51Z</time>
      </trkpt>
      <trkpt lat="49.4278" lon="-1.19317">
        <ele>1.9</ele>
        <time>2020-06-15T16:41:52Z</time>
      </trkpt>
      <trkpt lat="49.42776" lon="-1.19324">
        <ele>1.8</ele>
        <time>2020-06-15T16:41:53Z</time>
      </trkpt>
      <trkpt lat="49.42772" lon="-1.19333">
        <ele>1.8</ele>
        <time>2020-06-15T16:41:54Z</time>
      </trkpt>
      <trkpt lat="49.42768" lon="-1.19341">
        <ele>1.8</ele>
        <time>2020-06-15T16:41:55Z</time>
      </trkpt>
      <trkpt lat="49.42764" lon="-1.19347">
        <ele>1.8</ele>
        <time>2020-06-15T16:41:56Z</time>
      </trkpt>
      <trkpt lat="49.4276" lon="-1.19354">
        <ele>1.8</ele>
        <time>2020-06-15T16:41:57Z</time>
      </trkpt>
      <trkpt lat="49.42756" lon="-1.19362">
        <ele>1.8</ele>
        <time>2020-06-15T16:41:58Z</time>
      </trkpt>
      <trkpt lat="49.42752" lon="-1.19369">
        <ele>1.9</ele>
        <time>2020-06-15T16:41:59Z</time>
      </trkpt>
      <trkpt lat="49.42749" lon="-1.19376">
        <ele>1.9</ele>
        <time>2020-06-15T16:42:00Z</time>
      </trkpt>
      <trkpt lat="49.42745" lon="-1.19383">
        <ele>1.8</ele>
        <time>2020-06-15T16:42:01Z</time>
      </trkpt>
      <trkpt lat="49.42742" lon="-1.19389">
        <ele>1.8</ele>
        <time>2020-06-15T16:42:02Z</time>
      </trkpt>
      <trkpt lat="49.42739" lon="-1.19396">
        <ele>1.8</ele>
        <time>2020-06-15T16:42:03Z</time>
      </trkpt>
      <trkpt lat="49.42735" lon="-1.19403">
        <ele>1.8</ele>
        <time>2020-06-15T16:42:04Z</time>
      </trkpt>
      <trkpt lat="49.42731" lon="-1.19411">
        <ele>1.8</ele>
        <time>2020-06-15T16:42:05Z</time>
      </trkpt>
      <trkpt lat="49.42727" lon="-1.19419">
        <ele>1.9</ele>
        <time>2020-06-15T16:42:06Z</time>
      </trkpt>
      <trkpt lat="49.42724" lon="-1.19426">
        <ele>2</ele>
        <time>2020-06-15T16:42:07Z</time>
      </trkpt>
      <trkpt lat="49.4272" lon="-1.19435">
        <ele>2.2</ele>
        <time>2020-06-15T16:42:08Z</time>
      </trkpt>
      <trkpt lat="49.42715" lon="-1.19444">
        <ele>2.3</ele>
        <time>2020-06-15T16:42:09Z</time>
      </trkpt>
      <trkpt lat="49.4271" lon="-1.19453">
        <ele>2.4</ele>
        <time>2020-06-15T16:42:10Z</time>
      </trkpt>
      <trkpt lat="49.42707" lon="-1.1946">
        <ele>2.5</ele>
        <time>2020-06-15T16:42:11Z</time>
      </trkpt>
      <trkpt lat="49.42703" lon="-1.19466">
        <ele>2.6</ele>
        <time>2020-06-15T16:42:12Z</time>
      </trkpt>
      <trkpt lat="49.42699" lon="-1.19473">
        <ele>2.8</ele>
        <time>2020-06-15T16:42:13Z</time>
      </trkpt>
      <trkpt lat="49.42695" lon="-1.1948">
        <ele>2.7</ele>
        <time>2020-06-15T16:42:14Z</time>
      </trkpt>
      <trkpt lat="49.42692" lon="-1.19486">
        <ele>2.7</ele>
        <time>2020-06-15T16:42:15Z</time>
      </trkpt>
      <trkpt lat="49.42688" lon="-1.19493">
        <ele>2.7</ele>
        <time>2020-06-15T16:42:16Z</time>
      </trkpt>
      <trkpt lat="49.42685" lon="-1.19501">
        <ele>2.7</ele>
        <time>2020-06-15T16:42:17Z</time>
      </trkpt>
      <trkpt lat="49.42682" lon="-1.19509">
        <ele>2.7</ele>
        <time>2020-06-15T16:42:18Z</time>
      </trkpt>
      <trkpt lat="49.42679" lon="-1.19517">
        <ele>2.7</ele>
        <time>2020-06-15T16:42:19Z</time>
      </trkpt>
      <trkpt lat="49.42677" lon="-1.19524">
        <ele>2.7</ele>
        <time>2020-06-15T16:42:20Z</time>
      </trkpt>
      <trkpt lat="49.42673" lon="-1.19532">
        <ele>2.7</ele>
        <time>2020-06-15T16:42:21Z</time>
      </trkpt>
      <trkpt lat="49.4267" lon="-1.1954">
        <ele>2.7</ele>
        <time>2020-06-15T16:42:22Z</time>
      </trkpt>
      <trkpt lat="49.42667" lon="-1.19549">
        <ele>2.7</ele>
        <time>2020-06-15T16:42:23Z</time>
      </trkpt>
      <trkpt lat="49.42663" lon="-1.19558">
        <ele>2.7</ele>
        <time>2020-06-15T16:42:24Z</time>
      </trkpt>
      <trkpt lat="49.4266" lon="-1.19565">
        <ele>2.7</ele>
        <time>2020-06-15T16:42:25Z</time>
      </trkpt>
      <trkpt lat="49.42656" lon="-1.19573">
        <ele>2.6</ele>
        <time>2020-06-15T16:42:26Z</time>
      </trkpt>
      <trkpt lat="49.42652" lon="-1.19581">
        <ele>2.6</ele>
        <time>2020-06-15T16:42:27Z</time>
      </trkpt>
      <trkpt lat="49.42648" lon="-1.19588">
        <ele>2.5</ele>
        <time>2020-06-15T16:42:28Z</time>
      </trkpt>
      <trkpt lat="49.42645" lon="-1.19596">
        <ele>2.5</ele>
        <time>2020-06-15T16:42:29Z</time>
      </trkpt>
      <trkpt lat="49.42641" lon="-1.19604">
        <ele>2.4</ele>
        <time>2020-06-15T16:42:30Z</time>
      </trkpt>
      <trkpt lat="49.42637" lon="-1.19612">
        <ele>2.4</ele>
        <time>2020-06-15T16:42:31Z</time>
      </trkpt>
      <trkpt lat="49.42634" lon="-1.19619">
        <ele>2.4</ele>
        <time>2020-06-15T16:42:32Z</time>
      </trkpt>
      <trkpt lat="49.42631" lon="-1.19626">
        <ele>2.4</ele>
        <time>2020-06-15T16:42:33Z</time>
      </trkpt>
      <trkpt lat="49.42627" lon="-1.19634">
        <ele>2.3</ele>
        <time>2020-06-15T16:42:34Z</time>
      </trkpt>
      <trkpt lat="49.42625" lon="-1.19642">
        <ele>2.3</ele>
        <time>2020-06-15T16:42:35Z</time>
      </trkpt>
      <trkpt lat="49.42622" lon="-1.19651">
        <ele>2.2</ele>
        <time>2020-06-15T16:42:36Z</time>
      </trkpt>
      <trkpt lat="49.42618" lon="-1.1966">
        <ele>2.1</ele>
        <time>2020-06-15T16:42:37Z</time>
      </trkpt>
      <trkpt lat="49.42615" lon="-1.19668">
        <ele>2.1</ele>
        <time>2020-06-15T16:42:38Z</time>
      </trkpt>
      <trkpt lat="49.42612" lon="-1.19677">
        <ele>2</ele>
        <time>2020-06-15T16:42:39Z</time>
      </trkpt>
      <trkpt lat="49.42608" lon="-1.19686">
        <ele>1.9</ele>
        <time>2020-06-15T16:42:40Z</time>
      </trkpt>
      <trkpt lat="49.42605" lon="-1.19695">
        <ele>1.9</ele>
        <time>2020-06-15T16:42:41Z</time>
      </trkpt>
      <trkpt lat="49.42602" lon="-1.19704">
        <ele>1.9</ele>
        <time>2020-06-15T16:42:42Z</time>
      </trkpt>
      <trkpt lat="49.42599" lon="-1.19713">
        <ele>1.9</ele>
        <time>2020-06-15T16:42:43Z</time>
      </trkpt>
      <trkpt lat="49.42597" lon="-1.19721">
        <ele>1.8</ele>
        <time>2020-06-15T16:42:44Z</time>
      </trkpt>
      <trkpt lat="49.42594" lon="-1.19731">
        <ele>1.7</ele>
        <time>2020-06-15T16:42:45Z</time>
      </trkpt>
      <trkpt lat="49.4259" lon="-1.19741">
        <ele>1.7</ele>
        <time>2020-06-15T16:42:46Z</time>
      </trkpt>
      <trkpt lat="49.42587" lon="-1.19751">
        <ele>1.6</ele>
        <time>2020-06-15T16:42:47Z</time>
      </trkpt>
      <trkpt lat="49.42584" lon="-1.19761">
        <ele>1.6</ele>
        <time>2020-06-15T16:42:48Z</time>
      </trkpt>
      <trkpt lat="49.42582" lon="-1.1977">
        <ele>1.6</ele>
        <time>2020-06-15T16:42:49Z</time>
      </trkpt>
      <trkpt lat="49.42578" lon="-1.19779">
        <ele>1.5</ele>
        <time>2020-06-15T16:42:50Z</time>
      </trkpt>
      <trkpt lat="49.42576" lon="-1.19789">
        <ele>1.5</ele>
        <time>2020-06-15T16:42:51Z</time>
      </trkpt>
      <trkpt lat="49.42573" lon="-1.19796">
        <ele>1.5</ele>
        <time>2020-06-15T16:42:52Z</time>
      </trkpt>
      <trkpt lat="49.42571" lon="-1.19803">
        <ele>1.5</ele>
        <time>2020-06-15T16:42:53Z</time>
      </trkpt>
      <trkpt lat="49.42569" lon="-1.19811">
        <ele>1.6</ele>
        <time>2020-06-15T16:42:54Z</time>
      </trkpt>
      <trkpt lat="49.42567" lon="-1.19821">
        <ele>1.7</ele>
        <time>2020-06-15T16:42:55Z</time>
      </trkpt>
      <trkpt lat="49.42565" lon="-1.1983">
        <ele>1.7</ele>
        <time>2020-06-15T16:42:56Z</time>
      </trkpt>
      <trkpt lat="49.42563" lon="-1.1984">
        <ele>1.7</ele>
        <time>2020-06-15T16:42:57Z</time>
      </trkpt>
      <trkpt lat="49.42561" lon="-1.19849">
        <ele>1.7</ele>
        <time>2020-06-15T16:42:58Z</time>
      </trkpt>
      <trkpt lat="49.42559" lon="-1.19858">
        <ele>1.6</ele>
        <time>2020-06-15T16:42:59Z</time>
      </trkpt>
      <trkpt lat="49.42557" lon="-1.19867">
        <ele>1.6</ele>
        <time>2020-06-15T16:43:00Z</time>
      </trkpt>
      <trkpt lat="49.42554" lon="-1.19876">
        <ele>1.7</ele>
        <time>2020-06-15T16:43:01Z</time>
      </trkpt>
      <trkpt lat="49.42552" lon="-1.19885">
        <ele>1.7</ele>
        <time>2020-06-15T16:43:02Z</time>
      </trkpt>
      <trkpt lat="49.42551" lon="-1.19894">
        <ele>1.7</ele>
        <time>2020-06-15T16:43:03Z</time>
      </trkpt>
      <trkpt lat="49.42548" lon="-1.19903">
        <ele>1.8</ele>
        <time>2020-06-15T16:43:04Z</time>
      </trkpt>
      <trkpt lat="49.42545" lon="-1.19912">
        <ele>1.8</ele>
        <time>2020-06-15T16:43:05Z</time>
      </trkpt>
      <trkpt lat="49.42542" lon="-1.1992">
        <ele>1.8</ele>
        <time>2020-06-15T16:43:06Z</time>
      </trkpt>
      <trkpt lat="49.42539" lon="-1.19928">
        <ele>1.8</ele>
        <time>2020-06-15T16:43:07Z</time>
      </trkpt>
      <trkpt lat="49.42537" lon="-1.19936">
        <ele>1.8</ele>
        <time>2020-06-15T16:43:08Z</time>
      </trkpt>
      <trkpt lat="49.42534" lon="-1.19946">
        <ele>1.7</ele>
        <time>2020-06-15T16:43:09Z</time>
      </trkpt>
      <trkpt lat="49.42531" lon="-1.19954">
        <ele>1.7</ele>
        <time>2020-06-15T16:43:10Z</time>
      </trkpt>
      <trkpt lat="49.42528" lon="-1.19962">
        <ele>1.7</ele>
        <time>2020-06-15T16:43:11Z</time>
      </trkpt>
      <trkpt lat="49.42526" lon="-1.1997">
        <ele>1.8</ele>
        <time>2020-06-15T16:43:12Z</time>
      </trkpt>
      <trkpt lat="49.42523" lon="-1.19979">
        <ele>1.8</ele>
        <time>2020-06-15T16:43:13Z</time>
      </trkpt>
      <trkpt lat="49.42521" lon="-1.19986">
        <ele>1.8</ele>
        <time>2020-06-15T16:43:14Z</time>
      </trkpt>
      <trkpt lat="49.42519" lon="-1.19994">
        <ele>1.9</ele>
        <time>2020-06-15T16:43:15Z</time>
      </trkpt>
      <trkpt lat="49.42517" lon="-1.20002">
        <ele>1.9</ele>
        <time>2020-06-15T16:43:16Z</time>
      </trkpt>
      <trkpt lat="49.42515" lon="-1.20012">
        <ele>1.9</ele>
        <time>2020-06-15T16:43:17Z</time>
      </trkpt>
      <trkpt lat="49.42512" lon="-1.2002">
        <ele>1.9</ele>
        <time>2020-06-15T16:43:18Z</time>
      </trkpt>
      <trkpt lat="49.4251" lon="-1.20028">
        <ele>1.9</ele>
        <time>2020-06-15T16:43:19Z</time>
      </trkpt>
      <trkpt lat="49.42507" lon="-1.20037">
        <ele>1.8</ele>
        <time>2020-06-15T16:43:20Z</time>
      </trkpt>
      <trkpt lat="49.42504" lon="-1.20044">
        <ele>1.8</ele>
        <time>2020-06-15T16:43:21Z</time>
      </trkpt>
      <trkpt lat="49.42502" lon="-1.20052">
        <ele>1.8</ele>
        <time>2020-06-15T16:43:22Z</time>
      </trkpt>
      <trkpt lat="49.42499" lon="-1.2006">
        <ele>1.7</ele>
        <time>2020-06-15T16:43:23Z</time>
      </trkpt>
      <trkpt lat="49.42497" lon="-1.20068">
        <ele>1.7</ele>
        <time>2020-06-15T16:43:24Z</time>
      </trkpt>
      <trkpt lat="49.42494" lon="-1.20075">
        <ele>1.7</ele>
        <time>2020-06-15T16:43:25Z</time>
      </trkpt>
      <trkpt lat="49.42491" lon="-1.20083">
        <ele>1.7</ele>
        <time>2020-06-15T16:43:26Z</time>
      </trkpt>
      <trkpt lat="49.42489" lon="-1.20091">
        <ele>1.7</ele>
        <time>2020-06-15T16:43:27Z</time>
      </trkpt>
      <trkpt lat="49.42486" lon="-1.20099">
        <ele>1.7</ele>
        <time>2020-06-15T16:43:28Z</time>
      </trkpt>
      <trkpt lat="49.42483" lon="-1.20107">
        <ele>1.8</ele>
        <time>2020-06-15T16:43:29Z</time>
      </trkpt>
      <trkpt lat="49.4248" lon="-1.20114">
        <ele>1.8</ele>
        <time>2020-06-15T16:43:30Z</time>
      </trkpt>
      <trkpt lat="49.42477" lon="-1.20122">
        <ele>1.8</ele>
        <time>2020-06-15T16:43:31Z</time>
      </trkpt>
      <trkpt lat="49.42474" lon="-1.2013">
        <ele>1.7</ele>
        <time>2020-06-15T16:43:32Z</time>
      </trkpt>
      <trkpt lat="49.42471" lon="-1.20136">
        <ele>1.7</ele>
        <time>2020-06-15T16:43:33Z</time>
      </trkpt>
      <trkpt lat="49.42469" lon="-1.20144">
        <ele>1.7</ele>
        <time>2020-06-15T16:43:34Z</time>
      </trkpt>
      <trkpt lat="49.42466" lon="-1.20152">
        <ele>1.7</ele>
        <time>2020-06-15T16:43:35Z</time>
      </trkpt>
      <trkpt lat="49.42463" lon="-1.20159">
        <ele>1.7</ele>
        <time>2020-06-15T16:43:36Z</time>
      </trkpt>
      <trkpt lat="49.4246" lon="-1.20166">
        <ele>1.7</ele>
        <time>2020-06-15T16:43:37Z</time>
      </trkpt>
      <trkpt lat="49.42456" lon="-1.20173">
        <ele>1.7</ele>
        <time>2020-06-15T16:43:38Z</time>
      </trkpt>
      <trkpt lat="49.42452" lon="-1.2018">
        <ele>1.6</ele>
        <time>2020-06-15T16:43:39Z</time>
      </trkpt>
      <trkpt lat="49.42449" lon="-1.20187">
        <ele>1.6</ele>
        <time>2020-06-15T16:43:40Z</time>
      </trkpt>
      <trkpt lat="49.42445" lon="-1.20193">
        <ele>1.6</ele>
        <time>2020-06-15T16:43:41Z</time>
      </trkpt>
      <trkpt lat="49.42442" lon="-1.20199">
        <ele>1.6</ele>
        <time>2020-06-15T16:43:42Z</time>
      </trkpt>
      <trkpt lat="49.4244" lon="-1.20206">
        <ele>1.6</ele>
        <time>2020-06-15T16:43:43Z</time>
      </trkpt>
      <trkpt lat="49.42438" lon="-1.20212">
        <ele>1.6</ele>
        <time>2020-06-15T16:43:44Z</time>
      </trkpt>
      <trkpt lat="49.42437" lon="-1.20217">
        <ele>1.6</ele>
        <time>2020-06-15T16:43:45Z</time>
      </trkpt>
      <trkpt lat="49.42434" lon="-1.20225">
        <ele>1.6</ele>
        <time>2020-06-15T16:43:46Z</time>
      </trkpt>
      <trkpt lat="49.42431" lon="-1.20234">
        <ele>1.6</ele>
        <time>2020-06-15T16:43:47Z</time>
      </trkpt>
      <trkpt lat="49.4243" lon="-1.20244">
        <ele>1.6</ele>
        <time>2020-06-15T16:43:48Z</time>
      </trkpt>
      <trkpt lat="49.42429" lon="-1.20253">
        <ele>1.6</ele>
        <time>2020-06-15T16:43:49Z</time>
      </trkpt>
      <trkpt lat="49.42428" lon="-1.20264">
        <ele>1.6</ele>
        <time>2020-06-15T16:43:50Z</time>
      </trkpt>
      <trkpt lat="49.42428" lon="-1.20273">
        <ele>1.6</ele>
        <time>2020-06-15T16:43:51Z</time>
      </trkpt>
      <trkpt lat="49.42429" lon="-1.2028">
        <ele>1.7</ele>
        <time>2020-06-15T16:43:52Z</time>
      </trkpt>
      <trkpt lat="49.4243" lon="-1.20288">
        <ele>1.8</ele>
        <time>2020-06-15T16:43:53Z</time>
      </trkpt>
      <trkpt lat="49.42433" lon="-1.20296">
        <ele>1.8</ele>
        <time>2020-06-15T16:43:54Z</time>
      </trkpt>
      <trkpt lat="49.42437" lon="-1.20301">
        <ele>1.8</ele>
        <time>2020-06-15T16:43:55Z</time>
      </trkpt>
      <trkpt lat="49.42442" lon="-1.20305">
        <ele>1.7</ele>
        <time>2020-06-15T16:43:56Z</time>
      </trkpt>
      <trkpt lat="49.42446" lon="-1.20309">
        <ele>1.7</ele>
        <time>2020-06-15T16:43:57Z</time>
      </trkpt>
      <trkpt lat="49.4245" lon="-1.20313">
        <ele>1.7</ele>
        <time>2020-06-15T16:43:58Z</time>
      </trkpt>
      <trkpt lat="49.42454" lon="-1.20318">
        <ele>1.7</ele>
        <time>2020-06-15T16:43:59Z</time>
      </trkpt>
      <trkpt lat="49.42458" lon="-1.20321">
        <ele>1.8</ele>
        <time>2020-06-15T16:44:00Z</time>
      </trkpt>
      <trkpt lat="49.42462" lon="-1.20326">
        <ele>1.8</ele>
        <time>2020-06-15T16:44:01Z</time>
      </trkpt>
      <trkpt lat="49.42466" lon="-1.20331">
        <ele>1.8</ele>
        <time>2020-06-15T16:44:02Z</time>
      </trkpt>
      <trkpt lat="49.4247" lon="-1.20336">
        <ele>1.8</ele>
        <time>2020-06-15T16:44:03Z</time>
      </trkpt>
      <trkpt lat="49.42474" lon="-1.2034">
        <ele>1.8</ele>
        <time>2020-06-15T16:44:04Z</time>
      </trkpt>
      <trkpt lat="49.42479" lon="-1.20344">
        <ele>1.8</ele>
        <time>2020-06-15T16:44:05Z</time>
      </trkpt>
      <trkpt lat="49.42484" lon="-1.20348">
        <ele>1.9</ele>
        <time>2020-06-15T16:44:06Z</time>
      </trkpt>
      <trkpt lat="49.42489" lon="-1.20351">
        <ele>2</ele>
        <time>2020-06-15T16:44:07Z</time>
      </trkpt>
      <trkpt lat="49.42494" lon="-1.20355">
        <ele>2.1</ele>
        <time>2020-06-15T16:44:08Z</time>
      </trkpt>
      <trkpt lat="49.42499" lon="-1.20359">
        <ele>2.2</ele>
        <time>2020-06-15T16:44:09Z</time>
      </trkpt>
      <trkpt lat="49.42504" lon="-1.20364">
        <ele>2.2</ele>
        <time>2020-06-15T16:44:10Z</time>
      </trkpt>
      <trkpt lat="49.42509" lon="-1.20368">
        <ele>2.1</ele>
        <time>2020-06-15T16:44:11Z</time>
      </trkpt>
      <trkpt lat="49.42515" lon="-1.20372">
        <ele>2.1</ele>
        <time>2020-06-15T16:44:12Z</time>
      </trkpt>
      <trkpt lat="49.4252" lon="-1.20376">
        <ele>2.1</ele>
        <time>2020-06-15T16:44:13Z</time>
      </trkpt>
      <trkpt lat="49.42527" lon="-1.2038">
        <ele>2</ele>
        <time>2020-06-15T16:44:14Z</time>
      </trkpt>
      <trkpt lat="49.42533" lon="-1.20383">
        <ele>2</ele>
        <time>2020-06-15T16:44:15Z</time>
      </trkpt>
      <trkpt lat="49.42539" lon="-1.20386">
        <ele>2</ele>
        <time>2020-06-15T16:44:16Z</time>
      </trkpt>
      <trkpt lat="49.42545" lon="-1.2039">
        <ele>2</ele>
        <time>2020-06-15T16:44:17Z</time>
      </trkpt>
      <trkpt lat="49.42552" lon="-1.20394">
        <ele>2</ele>
        <time>2020-06-15T16:44:18Z</time>
      </trkpt>
      <trkpt lat="49.42558" lon="-1.20398">
        <ele>2</ele>
        <time>2020-06-15T16:44:19Z</time>
      </trkpt>
      <trkpt lat="49.42563" lon="-1.20402">
        <ele>2.1</ele>
        <time>2020-06-15T16:44:20Z</time>
      </trkpt>
      <trkpt lat="49.42569" lon="-1.20406">
        <ele>2.1</ele>
        <time>2020-06-15T16:44:21Z</time>
      </trkpt>
      <trkpt lat="49.42574" lon="-1.2041">
        <ele>2.1</ele>
        <time>2020-06-15T16:44:22Z</time>
      </trkpt>
      <trkpt lat="49.4258" lon="-1.20415">
        <ele>2.1</ele>
        <time>2020-06-15T16:44:23Z</time>
      </trkpt>
      <trkpt lat="49.42585" lon="-1.2042">
        <ele>2.1</ele>
        <time>2020-06-15T16:44:24Z</time>
      </trkpt>
      <trkpt lat="49.4259" lon="-1.20424">
        <ele>2.1</ele>
        <time>2020-06-15T16:44:25Z</time>
      </trkpt>
      <trkpt lat="49.42595" lon="-1.20429">
        <ele>2.1</ele>
        <time>2020-06-15T16:44:26Z</time>
      </trkpt>
      <trkpt lat="49.426" lon="-1.20434">
        <ele>2.1</ele>
        <time>2020-06-15T16:44:27Z</time>
      </trkpt>
      <trkpt lat="49.42605" lon="-1.2044">
        <ele>2.1</ele>
        <time>2020-06-15T16:44:28Z</time>
      </trkpt>
      <trkpt lat="49.42611" lon="-1.20445">
        <ele>2.1</ele>
        <time>2020-06-15T16:44:29Z</time>
      </trkpt>
      <trkpt lat="49.42617" lon="-1.2045">
        <ele>2.1</ele>
        <time>2020-06-15T16:44:30Z</time>
      </trkpt>
      <trkpt lat="49.42623" lon="-1.20455">
        <ele>2.1</ele>
        <time>2020-06-15T16:44:31Z</time>
      </trkpt>
      <trkpt lat="49.42627" lon="-1.20459">
        <ele>2.2</ele>
        <time>2020-06-15T16:44:32Z</time>
      </trkpt>
      <trkpt lat="49.42633" lon="-1.20465">
        <ele>2.2</ele>
        <time>2020-06-15T16:44:33Z</time>
      </trkpt>
      <trkpt lat="49.42638" lon="-1.20471">
        <ele>2.2</ele>
        <time>2020-06-15T16:44:34Z</time>
      </trkpt>
      <trkpt lat="49.42644" lon="-1.20476">
        <ele>2.1</ele>
        <time>2020-06-15T16:44:35Z</time>
      </trkpt>
      <trkpt lat="49.42649" lon="-1.20482">
        <ele>2.1</ele>
        <time>2020-06-15T16:44:36Z</time>
      </trkpt>
      <trkpt lat="49.42654" lon="-1.20488">
        <ele>2.1</ele>
        <time>2020-06-15T16:44:37Z</time>
      </trkpt>
      <trkpt lat="49.42659" lon="-1.20494">
        <ele>2.1</ele>
        <time>2020-06-15T16:44:38Z</time>
      </trkpt>
      <trkpt lat="49.42665" lon="-1.205">
        <ele>2.1</ele>
        <time>2020-06-15T16:44:39Z</time>
      </trkpt>
      <trkpt lat="49.42671" lon="-1.20505">
        <ele>2.1</ele>
        <time>2020-06-15T16:44:40Z</time>
      </trkpt>
      <trkpt lat="49.42676" lon="-1.20511">
        <ele>2.1</ele>
        <time>2020-06-15T16:44:41Z</time>
      </trkpt>
      <trkpt lat="49.42682" lon="-1.20516">
        <ele>2.2</ele>
        <time>2020-06-15T16:44:42Z</time>
      </trkpt>
      <trkpt lat="49.42687" lon="-1.20522">
        <ele>2.1</ele>
        <time>2020-06-15T16:44:43Z</time>
      </trkpt>
      <trkpt lat="49.42693" lon="-1.20527">
        <ele>2.1</ele>
        <time>2020-06-15T16:44:44Z</time>
      </trkpt>
      <trkpt lat="49.42699" lon="-1.20532">
        <ele>2.1</ele>
        <time>2020-06-15T16:44:45Z</time>
      </trkpt>
      <trkpt lat="49.42704" lon="-1.20538">
        <ele>2.1</ele>
        <time>2020-06-15T16:44:46Z</time>
      </trkpt>
      <trkpt lat="49.42708" lon="-1.20545">
        <ele>2.1</ele>
        <time>2020-06-15T16:44:47Z</time>
      </trkpt>
      <trkpt lat="49.42713" lon="-1.2055">
        <ele>2.1</ele>
        <time>2020-06-15T16:44:48Z</time>
      </trkpt>
      <trkpt lat="49.42719" lon="-1.20555">
        <ele>2.2</ele>
        <time>2020-06-15T16:44:49Z</time>
      </trkpt>
      <trkpt lat="49.42724" lon="-1.20559">
        <ele>2.2</ele>
        <time>2020-06-15T16:44:50Z</time>
      </trkpt>
      <trkpt lat="49.42729" lon="-1.20564">
        <ele>2.2</ele>
        <time>2020-06-15T16:44:51Z</time>
      </trkpt>
      <trkpt lat="49.42735" lon="-1.20569">
        <ele>2.2</ele>
        <time>2020-06-15T16:44:52Z</time>
      </trkpt>
      <trkpt lat="49.42741" lon="-1.20574">
        <ele>2.2</ele>
        <time>2020-06-15T16:44:53Z</time>
      </trkpt>
      <trkpt lat="49.42747" lon="-1.20579">
        <ele>2.1</ele>
        <time>2020-06-15T16:44:54Z</time>
      </trkpt>
      <trkpt lat="49.42753" lon="-1.20585">
        <ele>2.1</ele>
        <time>2020-06-15T16:44:55Z</time>
      </trkpt>
      <trkpt lat="49.42758" lon="-1.20591">
        <ele>1.9</ele>
        <time>2020-06-15T16:44:56Z</time>
      </trkpt>
      <trkpt lat="49.42765" lon="-1.20598">
        <ele>1.8</ele>
        <time>2020-06-15T16:44:57Z</time>
      </trkpt>
      <trkpt lat="49.42771" lon="-1.20604">
        <ele>1.7</ele>
        <time>2020-06-15T16:44:58Z</time>
      </trkpt>
      <trkpt lat="49.42777" lon="-1.2061">
        <ele>1.6</ele>
        <time>2020-06-15T16:44:59Z</time>
      </trkpt>
      <trkpt lat="49.42782" lon="-1.20617">
        <ele>1.6</ele>
        <time>2020-06-15T16:45:00Z</time>
      </trkpt>
      <trkpt lat="49.42788" lon="-1.20623">
        <ele>1.6</ele>
        <time>2020-06-15T16:45:01Z</time>
      </trkpt>
      <trkpt lat="49.42795" lon="-1.2063">
        <ele>1.6</ele>
        <time>2020-06-15T16:45:02Z</time>
      </trkpt>
      <trkpt lat="49.42798" lon="-1.20635">
        <ele>1.7</ele>
        <time>2020-06-15T16:45:03Z</time>
      </trkpt>
      <trkpt lat="49.42803" lon="-1.2064">
        <ele>1.7</ele>
        <time>2020-06-15T16:45:04Z</time>
      </trkpt>
      <trkpt lat="49.42808" lon="-1.20646">
        <ele>1.8</ele>
        <time>2020-06-15T16:45:05Z</time>
      </trkpt>
      <trkpt lat="49.42813" lon="-1.20652">
        <ele>1.8</ele>
        <time>2020-06-15T16:45:06Z</time>
      </trkpt>
      <trkpt lat="49.42818" lon="-1.20658">
        <ele>1.9</ele>
        <time>2020-06-15T16:45:07Z</time>
      </trkpt>
      <trkpt lat="49.42825" lon="-1.20663">
        <ele>1.9</ele>
        <time>2020-06-15T16:45:08Z</time>
      </trkpt>
      <trkpt lat="49.42831" lon="-1.20667">
        <ele>1.8</ele>
        <time>2020-06-15T16:45:09Z</time>
      </trkpt>
      <trkpt lat="49.42836" lon="-1.20671">
        <ele>1.8</ele>
        <time>2020-06-15T16:45:10Z</time>
      </trkpt>
      <trkpt lat="49.4284" lon="-1.20675">
        <ele>1.8</ele>
        <time>2020-06-15T16:45:11Z</time>
      </trkpt>
      <trkpt lat="49.42845" lon="-1.20679">
        <ele>1.8</ele>
        <time>2020-06-15T16:45:12Z</time>
      </trkpt>
      <trkpt lat="49.42848" lon="-1.20684">
        <ele>1.8</ele>
        <time>2020-06-15T16:45:13Z</time>
      </trkpt>
      <trkpt lat="49.42852" lon="-1.20688">
        <ele>1.9</ele>
        <time>2020-06-15T16:45:14Z</time>
      </trkpt>
      <trkpt lat="49.42855" lon="-1.20691">
        <ele>1.9</ele>
        <time>2020-06-15T16:45:15Z</time>
      </trkpt>
      <trkpt lat="49.42858" lon="-1.20693">
        <ele>1.9</ele>
        <time>2020-06-15T16:45:16Z</time>
      </trkpt>
      <trkpt lat="49.42864" lon="-1.20697">
        <ele>2</ele>
        <time>2020-06-15T16:45:17Z</time>
      </trkpt>
      <trkpt lat="49.42868" lon="-1.207">
        <ele>2</ele>
        <time>2020-06-15T16:45:18Z</time>
      </trkpt>
      <trkpt lat="49.42872" lon="-1.20702">
        <ele>1.9</ele>
        <time>2020-06-15T16:45:19Z</time>
      </trkpt>
      <trkpt lat="49.42874" lon="-1.20705">
        <ele>1.9</ele>
        <time>2020-06-15T16:45:20Z</time>
      </trkpt>
      <trkpt lat="49.42877" lon="-1.20707">
        <ele>1.9</ele>
        <time>2020-06-15T16:45:21Z</time>
      </trkpt>
      <trkpt lat="49.42881" lon="-1.20709">
        <ele>1.9</ele>
        <time>2020-06-15T16:45:22Z</time>
      </trkpt>
      <trkpt lat="49.42884" lon="-1.2071">
        <ele>1.9</ele>
        <time>2020-06-15T16:45:23Z</time>
      </trkpt>
      <trkpt lat="49.42887" lon="-1.20712">
        <ele>1.9</ele>
        <time>2020-06-15T16:45:24Z</time>
      </trkpt>
      <trkpt lat="49.42888" lon="-1.20713">
        <ele>1.8</ele>
        <time>2020-06-15T16:45:25Z</time>
      </trkpt>
      <trkpt lat="49.42887" lon="-1.20714">
        <ele>1.8</ele>
        <time>2020-06-15T16:45:26Z</time>
      </trkpt>
      <trkpt lat="49.42887" lon="-1.20715">
        <ele>1.8</ele>
        <time>2020-06-15T16:45:27Z</time>
      </trkpt>
      <trkpt lat="49.42887" lon="-1.20716">
        <ele>1.8</ele>
        <time>2020-06-15T16:45:28Z</time>
      </trkpt>
      <trkpt lat="49.42886" lon="-1.20717">
        <ele>1.8</ele>
        <time>2020-06-15T16:45:29Z</time>
      </trkpt>
      <trkpt lat="49.42886" lon="-1.20718">
        <ele>1.7</ele>
        <time>2020-06-15T16:45:30Z</time>
      </trkpt>
      <trkpt lat="49.42884" lon="-1.20722">
        <ele>1.7</ele>
        <time>2020-06-15T16:45:31Z</time>
      </trkpt>
      <trkpt lat="49.42883" lon="-1.20723">
        <ele>1.6</ele>
        <time>2020-06-15T16:45:32Z</time>
      </trkpt>
      <trkpt lat="49.42881" lon="-1.20727">
        <ele>1.6</ele>
        <time>2020-06-15T16:45:33Z</time>
      </trkpt>
      <trkpt lat="49.42878" lon="-1.20732">
        <ele>1.6</ele>
        <time>2020-06-15T16:45:34Z</time>
      </trkpt>
      <trkpt lat="49.42875" lon="-1.20737">
        <ele>1.6</ele>
        <time>2020-06-15T16:45:35Z</time>
      </trkpt>
      <trkpt lat="49.42872" lon="-1.20743">
        <ele>1.7</ele>
        <time>2020-06-15T16:45:36Z</time>
      </trkpt>
      <trkpt lat="49.42869" lon="-1.20748">
        <ele>1.7</ele>
        <time>2020-06-15T16:45:37Z</time>
      </trkpt>
      <trkpt lat="49.42865" lon="-1.20753">
        <ele>1.7</ele>
        <time>2020-06-15T16:45:38Z</time>
      </trkpt>
      <trkpt lat="49.42863" lon="-1.20758">
        <ele>1.7</ele>
        <time>2020-06-15T16:45:39Z</time>
      </trkpt>
      <trkpt lat="49.4286" lon="-1.20762">
        <ele>1.7</ele>
        <time>2020-06-15T16:45:40Z</time>
      </trkpt>
      <trkpt lat="49.42858" lon="-1.20766">
        <ele>1.7</ele>
        <time>2020-06-15T16:45:41Z</time>
      </trkpt>
      <trkpt lat="49.42854" lon="-1.20771">
        <ele>1.6</ele>
        <time>2020-06-15T16:45:42Z</time>
      </trkpt>
      <trkpt lat="49.42853" lon="-1.20775">
        <ele>1.5</ele>
        <time>2020-06-15T16:45:43Z</time>
      </trkpt>
      <trkpt lat="49.42851" lon="-1.2078">
        <ele>1.5</ele>
        <time>2020-06-15T16:45:44Z</time>
      </trkpt>
      <trkpt lat="49.42849" lon="-1.20786">
        <ele>1.4</ele>
        <time>2020-06-15T16:45:45Z</time>
      </trkpt>
      <trkpt lat="49.42848" lon="-1.20792">
        <ele>1.3</ele>
        <time>2020-06-15T16:45:46Z</time>
      </trkpt>
      <trkpt lat="49.42846" lon="-1.20798">
        <ele>1.3</ele>
        <time>2020-06-15T16:45:47Z</time>
      </trkpt>
      <trkpt lat="49.42843" lon="-1.20803">
        <ele>1.3</ele>
        <time>2020-06-15T16:45:48Z</time>
      </trkpt>
      <trkpt lat="49.4284" lon="-1.20807">
        <ele>1.3</ele>
        <time>2020-06-15T16:45:49Z</time>
      </trkpt>
      <trkpt lat="49.42838" lon="-1.20812">
        <ele>1.3</ele>
        <time>2020-06-15T16:45:50Z</time>
      </trkpt>
      <trkpt lat="49.42836" lon="-1.20817">
        <ele>1.3</ele>
        <time>2020-06-15T16:45:51Z</time>
      </trkpt>
      <trkpt lat="49.42834" lon="-1.20822">
        <ele>1.3</ele>
        <time>2020-06-15T16:45:52Z</time>
      </trkpt>
      <trkpt lat="49.42831" lon="-1.20827">
        <ele>1.3</ele>
        <time>2020-06-15T16:45:53Z</time>
      </trkpt>
      <trkpt lat="49.4283" lon="-1.20832">
        <ele>1.2</ele>
        <time>2020-06-15T16:45:54Z</time>
      </trkpt>
      <trkpt lat="49.42827" lon="-1.20836">
        <ele>1.2</ele>
        <time>2020-06-15T16:45:55Z</time>
      </trkpt>
      <trkpt lat="49.42825" lon="-1.2084">
        <ele>1.2</ele>
        <time>2020-06-15T16:45:56Z</time>
      </trkpt>
      <trkpt lat="49.42822" lon="-1.20846">
        <ele>1.2</ele>
        <time>2020-06-15T16:45:57Z</time>
      </trkpt>
      <trkpt lat="49.42819" lon="-1.2085">
        <ele>1.2</ele>
        <time>2020-06-15T16:45:58Z</time>
      </trkpt>
      <trkpt lat="49.42818" lon="-1.20855">
        <ele>1.2</ele>
        <time>2020-06-15T16:45:59Z</time>
      </trkpt>
      <trkpt lat="49.42815" lon="-1.20861">
        <ele>1.2</ele>
        <time>2020-06-15T16:46:00Z</time>
      </trkpt>
      <trkpt lat="49.42813" lon="-1.20866">
        <ele>1.2</ele>
        <time>2020-06-15T16:46:01Z</time>
      </trkpt>
      <trkpt lat="49.42811" lon="-1.20871">
        <ele>1.3</ele>
        <time>2020-06-15T16:46:02Z</time>
      </trkpt>
      <trkpt lat="49.42808" lon="-1.20876">
        <ele>1.3</ele>
        <time>2020-06-15T16:46:03Z</time>
      </trkpt>
      <trkpt lat="49.42805" lon="-1.20882">
        <ele>1.3</ele>
        <time>2020-06-15T16:46:04Z</time>
      </trkpt>
      <trkpt lat="49.42803" lon="-1.20888">
        <ele>1.4</ele>
        <time>2020-06-15T16:46:05Z</time>
      </trkpt>
      <trkpt lat="49.428" lon="-1.20893">
        <ele>1.4</ele>
        <time>2020-06-15T16:46:06Z</time>
      </trkpt>
      <trkpt lat="49.42797" lon="-1.20898">
        <ele>1.5</ele>
        <time>2020-06-15T16:46:07Z</time>
      </trkpt>
      <trkpt lat="49.42794" lon="-1.20903">
        <ele>1.5</ele>
        <time>2020-06-15T16:46:08Z</time>
      </trkpt>
      <trkpt lat="49.42792" lon="-1.20908">
        <ele>1.5</ele>
        <time>2020-06-15T16:46:09Z</time>
      </trkpt>
      <trkpt lat="49.42789" lon="-1.20913">
        <ele>1.5</ele>
        <time>2020-06-15T16:46:10Z</time>
      </trkpt>
      <trkpt lat="49.42787" lon="-1.20918">
        <ele>1.4</ele>
        <time>2020-06-15T16:46:11Z</time>
      </trkpt>
      <trkpt lat="49.42785" lon="-1.20924">
        <ele>1.4</ele>
        <time>2020-06-15T16:46:12Z</time>
      </trkpt>
      <trkpt lat="49.42782" lon="-1.20931">
        <ele>1.3</ele>
        <time>2020-06-15T16:46:13Z</time>
      </trkpt>
      <trkpt lat="49.4278" lon="-1.20938">
        <ele>1.3</ele>
        <time>2020-06-15T16:46:14Z</time>
      </trkpt>
      <trkpt lat="49.42777" lon="-1.20943">
        <ele>1.2</ele>
        <time>2020-06-15T16:46:15Z</time>
      </trkpt>
      <trkpt lat="49.42775" lon="-1.2095">
        <ele>1.2</ele>
        <time>2020-06-15T16:46:16Z</time>
      </trkpt>
      <trkpt lat="49.42772" lon="-1.20958">
        <ele>1.2</ele>
        <time>2020-06-15T16:46:17Z</time>
      </trkpt>
      <trkpt lat="49.42769" lon="-1.20965">
        <ele>1.2</ele>
        <time>2020-06-15T16:46:18Z</time>
      </trkpt>
      <trkpt lat="49.42767" lon="-1.20972">
        <ele>1.2</ele>
        <time>2020-06-15T16:46:19Z</time>
      </trkpt>
      <trkpt lat="49.42763" lon="-1.20979">
        <ele>1.2</ele>
        <time>2020-06-15T16:46:20Z</time>
      </trkpt>
      <trkpt lat="49.42761" lon="-1.20985">
        <ele>1.2</ele>
        <time>2020-06-15T16:46:21Z</time>
      </trkpt>
      <trkpt lat="49.42758" lon="-1.2099">
        <ele>1.2</ele>
        <time>2020-06-15T16:46:22Z</time>
      </trkpt>
      <trkpt lat="49.42756" lon="-1.20996">
        <ele>1.2</ele>
        <time>2020-06-15T16:46:23Z</time>
      </trkpt>
      <trkpt lat="49.42753" lon="-1.21003">
        <ele>1.2</ele>
        <time>2020-06-15T16:46:24Z</time>
      </trkpt>
      <trkpt lat="49.4275" lon="-1.21008">
        <ele>1.2</ele>
        <time>2020-06-15T16:46:25Z</time>
      </trkpt>
      <trkpt lat="49.42747" lon="-1.21014">
        <ele>1.2</ele>
        <time>2020-06-15T16:46:26Z</time>
      </trkpt>
      <trkpt lat="49.42745" lon="-1.21019">
        <ele>1.2</ele>
        <time>2020-06-15T16:46:27Z</time>
      </trkpt>
      <trkpt lat="49.42743" lon="-1.21025">
        <ele>1.2</ele>
        <time>2020-06-15T16:46:28Z</time>
      </trkpt>
      <trkpt lat="49.42741" lon="-1.21031">
        <ele>1.3</ele>
        <time>2020-06-15T16:46:29Z</time>
      </trkpt>
      <trkpt lat="49.42737" lon="-1.21037">
        <ele>1.3</ele>
        <time>2020-06-15T16:46:30Z</time>
      </trkpt>
      <trkpt lat="49.42733" lon="-1.21042">
        <ele>1.4</ele>
        <time>2020-06-15T16:46:31Z</time>
      </trkpt>
      <trkpt lat="49.4273" lon="-1.21047">
        <ele>1.4</ele>
        <time>2020-06-15T16:46:32Z</time>
      </trkpt>
      <trkpt lat="49.42727" lon="-1.21053">
        <ele>1.3</ele>
        <time>2020-06-15T16:46:33Z</time>
      </trkpt>
      <trkpt lat="49.42725" lon="-1.21059">
        <ele>1.3</ele>
        <time>2020-06-15T16:46:34Z</time>
      </trkpt>
      <trkpt lat="49.42722" lon="-1.21065">
        <ele>1.2</ele>
        <time>2020-06-15T16:46:35Z</time>
      </trkpt>
      <trkpt lat="49.4272" lon="-1.2107">
        <ele>1.2</ele>
        <time>2020-06-15T16:46:36Z</time>
      </trkpt>
      <trkpt lat="49.42719" lon="-1.21075">
        <ele>1.2</ele>
        <time>2020-06-15T16:46:37Z</time>
      </trkpt>
      <trkpt lat="49.42716" lon="-1.21079">
        <ele>1.2</ele>
        <time>2020-06-15T16:46:38Z</time>
      </trkpt>
      <trkpt lat="49.42714" lon="-1.21085">
        <ele>1.2</ele>
        <time>2020-06-15T16:46:39Z</time>
      </trkpt>
      <trkpt lat="49.4271" lon="-1.21089">
        <ele>1.2</ele>
        <time>2020-06-15T16:46:40Z</time>
      </trkpt>
      <trkpt lat="49.42707" lon="-1.21094">
        <ele>1.2</ele>
        <time>2020-06-15T16:46:41Z</time>
      </trkpt>
      <trkpt lat="49.42703" lon="-1.21098">
        <ele>1.2</ele>
        <time>2020-06-15T16:46:42Z</time>
      </trkpt>
      <trkpt lat="49.42699" lon="-1.21102">
        <ele>1.1</ele>
        <time>2020-06-15T16:46:43Z</time>
      </trkpt>
      <trkpt lat="49.42695" lon="-1.21107">
        <ele>1.1</ele>
        <time>2020-06-15T16:46:44Z</time>
      </trkpt>
      <trkpt lat="49.42691" lon="-1.21111">
        <ele>1.1</ele>
        <time>2020-06-15T16:46:45Z</time>
      </trkpt>
      <trkpt lat="49.42687" lon="-1.21116">
        <ele>1.2</ele>
        <time>2020-06-15T16:46:46Z</time>
      </trkpt>
      <trkpt lat="49.42683" lon="-1.21121">
        <ele>1.2</ele>
        <time>2020-06-15T16:46:47Z</time>
      </trkpt>
      <trkpt lat="49.42678" lon="-1.21126">
        <ele>1.3</ele>
        <time>2020-06-15T16:46:48Z</time>
      </trkpt>
      <trkpt lat="49.42674" lon="-1.21132">
        <ele>1.3</ele>
        <time>2020-06-15T16:46:49Z</time>
      </trkpt>
      <trkpt lat="49.42669" lon="-1.21138">
        <ele>1.2</ele>
        <time>2020-06-15T16:46:50Z</time>
      </trkpt>
      <trkpt lat="49.42665" lon="-1.21145">
        <ele>1.1</ele>
        <time>2020-06-15T16:46:51Z</time>
      </trkpt>
      <trkpt lat="49.42661" lon="-1.21152">
        <ele>1.1</ele>
        <time>2020-06-15T16:46:52Z</time>
      </trkpt>
      <trkpt lat="49.42657" lon="-1.21159">
        <ele>1</ele>
        <time>2020-06-15T16:46:53Z</time>
      </trkpt>
      <trkpt lat="49.42653" lon="-1.21166">
        <ele>1</ele>
        <time>2020-06-15T16:46:54Z</time>
      </trkpt>
      <trkpt lat="49.42648" lon="-1.21172">
        <ele>1</ele>
        <time>2020-06-15T16:46:55Z</time>
      </trkpt>
      <trkpt lat="49.42643" lon="-1.21178">
        <ele>1</ele>
        <time>2020-06-15T16:46:56Z</time>
      </trkpt>
      <trkpt lat="49.42638" lon="-1.21184">
        <ele>1</ele>
        <time>2020-06-15T16:46:57Z</time>
      </trkpt>
      <trkpt lat="49.42635" lon="-1.21189">
        <ele>1</ele>
        <time>2020-06-15T16:46:58Z</time>
      </trkpt>
      <trkpt lat="49.42631" lon="-1.21195">
        <ele>1</ele>
        <time>2020-06-15T16:46:59Z</time>
      </trkpt>
      <trkpt lat="49.42628" lon="-1.21201">
        <ele>1</ele>
        <time>2020-06-15T16:47:00Z</time>
      </trkpt>
      <trkpt lat="49.42624" lon="-1.21207">
        <ele>1.1</ele>
        <time>2020-06-15T16:47:01Z</time>
      </trkpt>
      <trkpt lat="49.42621" lon="-1.21213">
        <ele>1.1</ele>
        <time>2020-06-15T16:47:02Z</time>
      </trkpt>
      <trkpt lat="49.42617" lon="-1.21219">
        <ele>1.2</ele>
        <time>2020-06-15T16:47:03Z</time>
      </trkpt>
      <trkpt lat="49.42614" lon="-1.21225">
        <ele>1.2</ele>
        <time>2020-06-15T16:47:04Z</time>
      </trkpt>
      <trkpt lat="49.42611" lon="-1.21232">
        <ele>1.2</ele>
        <time>2020-06-15T16:47:05Z</time>
      </trkpt>
      <trkpt lat="49.42608" lon="-1.21238">
        <ele>1.2</ele>
        <time>2020-06-15T16:47:06Z</time>
      </trkpt>
      <trkpt lat="49.42605" lon="-1.21244">
        <ele>1.2</ele>
        <time>2020-06-15T16:47:07Z</time>
      </trkpt>
      <trkpt lat="49.42603" lon="-1.2125">
        <ele>1.2</ele>
        <time>2020-06-15T16:47:08Z</time>
      </trkpt>
      <trkpt lat="49.426" lon="-1.21256">
        <ele>1.2</ele>
        <time>2020-06-15T16:47:09Z</time>
      </trkpt>
      <trkpt lat="49.42598" lon="-1.21262">
        <ele>1.2</ele>
        <time>2020-06-15T16:47:10Z</time>
      </trkpt>
      <trkpt lat="49.42595" lon="-1.21267">
        <ele>1.2</ele>
        <time>2020-06-15T16:47:11Z</time>
      </trkpt>
      <trkpt lat="49.42592" lon="-1.21273">
        <ele>1.2</ele>
        <time>2020-06-15T16:47:12Z</time>
      </trkpt>
      <trkpt lat="49.42589" lon="-1.2128">
        <ele>1.3</ele>
        <time>2020-06-15T16:47:13Z</time>
      </trkpt>
      <trkpt lat="49.42587" lon="-1.21287">
        <ele>1.3</ele>
        <time>2020-06-15T16:47:14Z</time>
      </trkpt>
      <trkpt lat="49.42584" lon="-1.21293">
        <ele>1.3</ele>
        <time>2020-06-15T16:47:15Z</time>
      </trkpt>
      <trkpt lat="49.42582" lon="-1.21299">
        <ele>1.2</ele>
        <time>2020-06-15T16:47:16Z</time>
      </trkpt>
      <trkpt lat="49.42579" lon="-1.21306">
        <ele>1.2</ele>
        <time>2020-06-15T16:47:17Z</time>
      </trkpt>
      <trkpt lat="49.42576" lon="-1.21313">
        <ele>1.2</ele>
        <time>2020-06-15T16:47:18Z</time>
      </trkpt>
      <trkpt lat="49.42574" lon="-1.21319">
        <ele>1.2</ele>
        <time>2020-06-15T16:47:19Z</time>
      </trkpt>
      <trkpt lat="49.42571" lon="-1.21326">
        <ele>1.2</ele>
        <time>2020-06-15T16:47:20Z</time>
      </trkpt>
      <trkpt lat="49.4257" lon="-1.21332">
        <ele>1.1</ele>
        <time>2020-06-15T16:47:21Z</time>
      </trkpt>
      <trkpt lat="49.42567" lon="-1.21339">
        <ele>1</ele>
        <time>2020-06-15T16:47:22Z</time>
      </trkpt>
      <trkpt lat="49.42564" lon="-1.21346">
        <ele>1</ele>
        <time>2020-06-15T16:47:23Z</time>
      </trkpt>
      <trkpt lat="49.42562" lon="-1.21353">
        <ele>0.9</ele>
        <time>2020-06-15T16:47:24Z</time>
      </trkpt>
      <trkpt lat="49.42559" lon="-1.2136">
        <ele>0.9</ele>
        <time>2020-06-15T16:47:25Z</time>
      </trkpt>
      <trkpt lat="49.42556" lon="-1.21366">
        <ele>0.8</ele>
        <time>2020-06-15T16:47:26Z</time>
      </trkpt>
      <trkpt lat="49.42554" lon="-1.21372">
        <ele>0.7</ele>
        <time>2020-06-15T16:47:27Z</time>
      </trkpt>
      <trkpt lat="49.42552" lon="-1.21377">
        <ele>0.7</ele>
        <time>2020-06-15T16:47:28Z</time>
      </trkpt>
      <trkpt lat="49.4255" lon="-1.21383">
        <ele>0.6</ele>
        <time>2020-06-15T16:47:29Z</time>
      </trkpt>
      <trkpt lat="49.42548" lon="-1.21389">
        <ele>0.6</ele>
        <time>2020-06-15T16:47:30Z</time>
      </trkpt>
      <trkpt lat="49.42546" lon="-1.21394">
        <ele>0.5</ele>
        <time>2020-06-15T16:47:31Z</time>
      </trkpt>
      <trkpt lat="49.42544" lon="-1.21401">
        <ele>0.5</ele>
        <time>2020-06-15T16:47:32Z</time>
      </trkpt>
      <trkpt lat="49.42541" lon="-1.21407">
        <ele>0.5</ele>
        <time>2020-06-15T16:47:33Z</time>
      </trkpt>
      <trkpt lat="49.42538" lon="-1.21414">
        <ele>0.5</ele>
        <time>2020-06-15T16:47:34Z</time>
      </trkpt>
      <trkpt lat="49.42535" lon="-1.2142">
        <ele>0.4</ele>
        <time>2020-06-15T16:47:35Z</time>
      </trkpt>
      <trkpt lat="49.42533" lon="-1.21426">
        <ele>0.4</ele>
        <time>2020-06-15T16:47:36Z</time>
      </trkpt>
      <trkpt lat="49.42531" lon="-1.21432">
        <ele>0.4</ele>
        <time>2020-06-15T16:47:37Z</time>
      </trkpt>
      <trkpt lat="49.42528" lon="-1.21437">
        <ele>0.4</ele>
        <time>2020-06-15T16:47:38Z</time>
      </trkpt>
      <trkpt lat="49.42526" lon="-1.21444">
        <ele>0.4</ele>
        <time>2020-06-15T16:47:39Z</time>
      </trkpt>
      <trkpt lat="49.42523" lon="-1.2145">
        <ele>0.4</ele>
        <time>2020-06-15T16:47:40Z</time>
      </trkpt>
      <trkpt lat="49.42521" lon="-1.21456">
        <ele>0.4</ele>
        <time>2020-06-15T16:47:41Z</time>
      </trkpt>
      <trkpt lat="49.42518" lon="-1.21462">
        <ele>0.4</ele>
        <time>2020-06-15T16:47:42Z</time>
      </trkpt>
      <trkpt lat="49.42516" lon="-1.21468">
        <ele>0.5</ele>
        <time>2020-06-15T16:47:43Z</time>
      </trkpt>
      <trkpt lat="49.42514" lon="-1.21475">
        <ele>0.5</ele>
        <time>2020-06-15T16:47:44Z</time>
      </trkpt>
      <trkpt lat="49.42511" lon="-1.21482">
        <ele>0.6</ele>
        <time>2020-06-15T16:47:45Z</time>
      </trkpt>
      <trkpt lat="49.42508" lon="-1.2149">
        <ele>0.7</ele>
        <time>2020-06-15T16:47:46Z</time>
      </trkpt>
      <trkpt lat="49.42506" lon="-1.21497">
        <ele>0.7</ele>
        <time>2020-06-15T16:47:47Z</time>
      </trkpt>
      <trkpt lat="49.42504" lon="-1.21504">
        <ele>0.8</ele>
        <time>2020-06-15T16:47:48Z</time>
      </trkpt>
      <trkpt lat="49.42501" lon="-1.2151">
        <ele>0.8</ele>
        <time>2020-06-15T16:47:49Z</time>
      </trkpt>
      <trkpt lat="49.42499" lon="-1.21516">
        <ele>0.8</ele>
        <time>2020-06-15T16:47:50Z</time>
      </trkpt>
      <trkpt lat="49.42498" lon="-1.21523">
        <ele>0.7</ele>
        <time>2020-06-15T16:47:51Z</time>
      </trkpt>
      <trkpt lat="49.42496" lon="-1.21531">
        <ele>0.7</ele>
        <time>2020-06-15T16:47:52Z</time>
      </trkpt>
      <trkpt lat="49.42494" lon="-1.21538">
        <ele>0.6</ele>
        <time>2020-06-15T16:47:53Z</time>
      </trkpt>
      <trkpt lat="49.42492" lon="-1.21545">
        <ele>0.6</ele>
        <time>2020-06-15T16:47:54Z</time>
      </trkpt>
      <trkpt lat="49.42489" lon="-1.21552">
        <ele>0.5</ele>
        <time>2020-06-15T16:47:55Z</time>
      </trkpt>
      <trkpt lat="49.42487" lon="-1.21559">
        <ele>0.4</ele>
        <time>2020-06-15T16:47:56Z</time>
      </trkpt>
      <trkpt lat="49.42484" lon="-1.21567">
        <ele>0.4</ele>
        <time>2020-06-15T16:47:57Z</time>
      </trkpt>
      <trkpt lat="49.42481" lon="-1.21574">
        <ele>0.4</ele>
        <time>2020-06-15T16:47:58Z</time>
      </trkpt>
      <trkpt lat="49.42478" lon="-1.21581">
        <ele>0.5</ele>
        <time>2020-06-15T16:47:59Z</time>
      </trkpt>
      <trkpt lat="49.42475" lon="-1.21589">
        <ele>0.6</ele>
        <time>2020-06-15T16:48:00Z</time>
      </trkpt>
      <trkpt lat="49.42472" lon="-1.21595">
        <ele>0.7</ele>
        <time>2020-06-15T16:48:01Z</time>
      </trkpt>
      <trkpt lat="49.4247" lon="-1.21603">
        <ele>0.7</ele>
        <time>2020-06-15T16:48:02Z</time>
      </trkpt>
      <trkpt lat="49.42468" lon="-1.21612">
        <ele>0.8</ele>
        <time>2020-06-15T16:48:03Z</time>
      </trkpt>
      <trkpt lat="49.42465" lon="-1.21618">
        <ele>0.7</ele>
        <time>2020-06-15T16:48:04Z</time>
      </trkpt>
      <trkpt lat="49.42463" lon="-1.21624">
        <ele>0.7</ele>
        <time>2020-06-15T16:48:05Z</time>
      </trkpt>
      <trkpt lat="49.42461" lon="-1.21631">
        <ele>0.7</ele>
        <time>2020-06-15T16:48:06Z</time>
      </trkpt>
      <trkpt lat="49.42458" lon="-1.21637">
        <ele>0.6</ele>
        <time>2020-06-15T16:48:07Z</time>
      </trkpt>
      <trkpt lat="49.42455" lon="-1.21645">
        <ele>0.6</ele>
        <time>2020-06-15T16:48:08Z</time>
      </trkpt>
      <trkpt lat="49.42453" lon="-1.21653">
        <ele>0.6</ele>
        <time>2020-06-15T16:48:09Z</time>
      </trkpt>
      <trkpt lat="49.4245" lon="-1.2166">
        <ele>0.7</ele>
        <time>2020-06-15T16:48:10Z</time>
      </trkpt>
      <trkpt lat="49.42448" lon="-1.21667">
        <ele>0.8</ele>
        <time>2020-06-15T16:48:11Z</time>
      </trkpt>
      <trkpt lat="49.42445" lon="-1.21675">
        <ele>0.9</ele>
        <time>2020-06-15T16:48:12Z</time>
      </trkpt>
      <trkpt lat="49.42444" lon="-1.21682">
        <ele>0.9</ele>
        <time>2020-06-15T16:48:13Z</time>
      </trkpt>
      <trkpt lat="49.42442" lon="-1.2169">
        <ele>0.9</ele>
        <time>2020-06-15T16:48:14Z</time>
      </trkpt>
      <trkpt lat="49.4244" lon="-1.217">
        <ele>1</ele>
        <time>2020-06-15T16:48:15Z</time>
      </trkpt>
      <trkpt lat="49.42438" lon="-1.21709">
        <ele>1</ele>
        <time>2020-06-15T16:48:16Z</time>
      </trkpt>
      <trkpt lat="49.42436" lon="-1.21718">
        <ele>1</ele>
        <time>2020-06-15T16:48:17Z</time>
      </trkpt>
      <trkpt lat="49.42434" lon="-1.21727">
        <ele>1</ele>
        <time>2020-06-15T16:48:18Z</time>
      </trkpt>
      <trkpt lat="49.42432" lon="-1.21735">
        <ele>1.1</ele>
        <time>2020-06-15T16:48:19Z</time>
      </trkpt>
      <trkpt lat="49.42431" lon="-1.21743">
        <ele>1.1</ele>
        <time>2020-06-15T16:48:20Z</time>
      </trkpt>
      <trkpt lat="49.4243" lon="-1.21752">
        <ele>1.2</ele>
        <time>2020-06-15T16:48:21Z</time>
      </trkpt>
      <trkpt lat="49.42429" lon="-1.2176">
        <ele>1.3</ele>
        <time>2020-06-15T16:48:22Z</time>
      </trkpt>
      <trkpt lat="49.42428" lon="-1.21769">
        <ele>1.3</ele>
        <time>2020-06-15T16:48:23Z</time>
      </trkpt>
      <trkpt lat="49.42427" lon="-1.21777">
        <ele>1.4</ele>
        <time>2020-06-15T16:48:24Z</time>
      </trkpt>
      <trkpt lat="49.42426" lon="-1.21784">
        <ele>1.4</ele>
        <time>2020-06-15T16:48:25Z</time>
      </trkpt>
      <trkpt lat="49.42425" lon="-1.21791">
        <ele>1.5</ele>
        <time>2020-06-15T16:48:26Z</time>
      </trkpt>
      <trkpt lat="49.42424" lon="-1.21798">
        <ele>1.5</ele>
        <time>2020-06-15T16:48:27Z</time>
      </trkpt>
      <trkpt lat="49.42423" lon="-1.21805">
        <ele>1.5</ele>
        <time>2020-06-15T16:48:28Z</time>
      </trkpt>
      <trkpt lat="49.42422" lon="-1.2181">
        <ele>1.5</ele>
        <time>2020-06-15T16:48:29Z</time>
      </trkpt>
      <trkpt lat="49.42422" lon="-1.21816">
        <ele>1.5</ele>
        <time>2020-06-15T16:48:30Z</time>
      </trkpt>
      <trkpt lat="49.42421" lon="-1.21822">
        <ele>1.4</ele>
        <time>2020-06-15T16:48:31Z</time>
      </trkpt>
      <trkpt lat="49.4242" lon="-1.21829">
        <ele>1.4</ele>
        <time>2020-06-15T16:48:32Z</time>
      </trkpt>
      <trkpt lat="49.42419" lon="-1.21836">
        <ele>1.3</ele>
        <time>2020-06-15T16:48:33Z</time>
      </trkpt>
      <trkpt lat="49.42418" lon="-1.21843">
        <ele>1.3</ele>
        <time>2020-06-15T16:48:34Z</time>
      </trkpt>
      <trkpt lat="49.42417" lon="-1.2185">
        <ele>1.3</ele>
        <time>2020-06-15T16:48:35Z</time>
      </trkpt>
      <trkpt lat="49.42416" lon="-1.21858">
        <ele>1.3</ele>
        <time>2020-06-15T16:48:36Z</time>
      </trkpt>
      <trkpt lat="49.42415" lon="-1.21866">
        <ele>1.3</ele>
        <time>2020-06-15T16:48:37Z</time>
      </trkpt>
      <trkpt lat="49.42414" lon="-1.21874">
        <ele>1.3</ele>
        <time>2020-06-15T16:48:38Z</time>
      </trkpt>
      <trkpt lat="49.42414" lon="-1.21881">
        <ele>1.4</ele>
        <time>2020-06-15T16:48:39Z</time>
      </trkpt>
      <trkpt lat="49.42413" lon="-1.21888">
        <ele>1.4</ele>
        <time>2020-06-15T16:48:40Z</time>
      </trkpt>
      <trkpt lat="49.42413" lon="-1.21897">
        <ele>1.5</ele>
        <time>2020-06-15T16:48:41Z</time>
      </trkpt>
      <trkpt lat="49.42412" lon="-1.21905">
        <ele>1.5</ele>
        <time>2020-06-15T16:48:42Z</time>
      </trkpt>
      <trkpt lat="49.42412" lon="-1.21912">
        <ele>1.6</ele>
        <time>2020-06-15T16:48:43Z</time>
      </trkpt>
      <trkpt lat="49.42412" lon="-1.21919">
        <ele>1.6</ele>
        <time>2020-06-15T16:48:44Z</time>
      </trkpt>
      <trkpt lat="49.42411" lon="-1.21926">
        <ele>1.6</ele>
        <time>2020-06-15T16:48:45Z</time>
      </trkpt>
      <trkpt lat="49.42411" lon="-1.21933">
        <ele>1.6</ele>
        <time>2020-06-15T16:48:46Z</time>
      </trkpt>
      <trkpt lat="49.42411" lon="-1.2194">
        <ele>1.6</ele>
        <time>2020-06-15T16:48:47Z</time>
      </trkpt>
      <trkpt lat="49.4241" lon="-1.21947">
        <ele>1.5</ele>
        <time>2020-06-15T16:48:48Z</time>
      </trkpt>
      <trkpt lat="49.42411" lon="-1.21952">
        <ele>1.5</ele>
        <time>2020-06-15T16:48:49Z</time>
      </trkpt>
      <trkpt lat="49.4241" lon="-1.21959">
        <ele>1.5</ele>
        <time>2020-06-15T16:48:50Z</time>
      </trkpt>
      <trkpt lat="49.4241" lon="-1.21965">
        <ele>1.5</ele>
        <time>2020-06-15T16:48:51Z</time>
      </trkpt>
      <trkpt lat="49.42411" lon="-1.21971">
        <ele>1.5</ele>
        <time>2020-06-15T16:48:52Z</time>
      </trkpt>
      <trkpt lat="49.42411" lon="-1.21978">
        <ele>1.6</ele>
        <time>2020-06-15T16:48:53Z</time>
      </trkpt>
      <trkpt lat="49.4241" lon="-1.21985">
        <ele>1.6</ele>
        <time>2020-06-15T16:48:54Z</time>
      </trkpt>
      <trkpt lat="49.4241" lon="-1.21991">
        <ele>1.6</ele>
        <time>2020-06-15T16:48:55Z</time>
      </trkpt>
      <trkpt lat="49.42409" lon="-1.21998">
        <ele>1.7</ele>
        <time>2020-06-15T16:48:56Z</time>
      </trkpt>
      <trkpt lat="49.42409" lon="-1.22006">
        <ele>1.7</ele>
        <time>2020-06-15T16:48:57Z</time>
      </trkpt>
      <trkpt lat="49.42408" lon="-1.22013">
        <ele>1.8</ele>
        <time>2020-06-15T16:48:58Z</time>
      </trkpt>
      <trkpt lat="49.42408" lon="-1.2202">
        <ele>1.8</ele>
        <time>2020-06-15T16:48:59Z</time>
      </trkpt>
      <trkpt lat="49.42407" lon="-1.22025">
        <ele>1.8</ele>
        <time>2020-06-15T16:49:00Z</time>
      </trkpt>
      <trkpt lat="49.42405" lon="-1.22031">
        <ele>1.8</ele>
        <time>2020-06-15T16:49:01Z</time>
      </trkpt>
      <trkpt lat="49.42405" lon="-1.22037">
        <ele>1.8</ele>
        <time>2020-06-15T16:49:02Z</time>
      </trkpt>
      <trkpt lat="49.42404" lon="-1.22044">
        <ele>1.9</ele>
        <time>2020-06-15T16:49:03Z</time>
      </trkpt>
      <trkpt lat="49.42403" lon="-1.2205">
        <ele>1.9</ele>
        <time>2020-06-15T16:49:04Z</time>
      </trkpt>
      <trkpt lat="49.42402" lon="-1.22056">
        <ele>1.9</ele>
        <time>2020-06-15T16:49:05Z</time>
      </trkpt>
      <trkpt lat="49.42402" lon="-1.22062">
        <ele>1.9</ele>
        <time>2020-06-15T16:49:06Z</time>
      </trkpt>
      <trkpt lat="49.42401" lon="-1.22068">
        <ele>1.9</ele>
        <time>2020-06-15T16:49:07Z</time>
      </trkpt>
      <trkpt lat="49.424" lon="-1.22075">
        <ele>1.9</ele>
        <time>2020-06-15T16:49:08Z</time>
      </trkpt>
      <trkpt lat="49.424" lon="-1.22082">
        <ele>1.9</ele>
        <time>2020-06-15T16:49:09Z</time>
      </trkpt>
      <trkpt lat="49.42399" lon="-1.22089">
        <ele>1.9</ele>
        <time>2020-06-15T16:49:10Z</time>
      </trkpt>
      <trkpt lat="49.42398" lon="-1.22096">
        <ele>1.9</ele>
        <time>2020-06-15T16:49:11Z</time>
      </trkpt>
      <trkpt lat="49.42397" lon="-1.22102">
        <ele>1.9</ele>
        <time>2020-06-15T16:49:12Z</time>
      </trkpt>
      <trkpt lat="49.42396" lon="-1.22109">
        <ele>1.8</ele>
        <time>2020-06-15T16:49:13Z</time>
      </trkpt>
      <trkpt lat="49.42396" lon="-1.22116">
        <ele>1.8</ele>
        <time>2020-06-15T16:49:14Z</time>
      </trkpt>
      <trkpt lat="49.42395" lon="-1.22123">
        <ele>1.8</ele>
        <time>2020-06-15T16:49:15Z</time>
      </trkpt>
      <trkpt lat="49.42395" lon="-1.2213">
        <ele>1.8</ele>
        <time>2020-06-15T16:49:16Z</time>
      </trkpt>
      <trkpt lat="49.42394" lon="-1.22137">
        <ele>1.8</ele>
        <time>2020-06-15T16:49:17Z</time>
      </trkpt>
      <trkpt lat="49.42394" lon="-1.22144">
        <ele>1.8</ele>
        <time>2020-06-15T16:49:18Z</time>
      </trkpt>
      <trkpt lat="49.42393" lon="-1.22153">
        <ele>1.8</ele>
        <time>2020-06-15T16:49:19Z</time>
      </trkpt>
      <trkpt lat="49.42392" lon="-1.2216">
        <ele>1.9</ele>
        <time>2020-06-15T16:49:20Z</time>
      </trkpt>
      <trkpt lat="49.42391" lon="-1.22168">
        <ele>1.9</ele>
        <time>2020-06-15T16:49:21Z</time>
      </trkpt>
      <trkpt lat="49.4239" lon="-1.22177">
        <ele>2</ele>
        <time>2020-06-15T16:49:22Z</time>
      </trkpt>
      <trkpt lat="49.42389" lon="-1.22186">
        <ele>2</ele>
        <time>2020-06-15T16:49:23Z</time>
      </trkpt>
      <trkpt lat="49.42388" lon="-1.22195">
        <ele>2</ele>
        <time>2020-06-15T16:49:24Z</time>
      </trkpt>
      <trkpt lat="49.42386" lon="-1.22203">
        <ele>2</ele>
        <time>2020-06-15T16:49:25Z</time>
      </trkpt>
      <trkpt lat="49.42385" lon="-1.22211">
        <ele>2</ele>
        <time>2020-06-15T16:49:26Z</time>
      </trkpt>
      <trkpt lat="49.42384" lon="-1.22219">
        <ele>2</ele>
        <time>2020-06-15T16:49:27Z</time>
      </trkpt>
      <trkpt lat="49.42383" lon="-1.22226">
        <ele>2</ele>
        <time>2020-06-15T16:49:28Z</time>
      </trkpt>
      <trkpt lat="49.42382" lon="-1.22234">
        <ele>2</ele>
        <time>2020-06-15T16:49:29Z</time>
      </trkpt>
      <trkpt lat="49.42381" lon="-1.22241">
        <ele>2</ele>
        <time>2020-06-15T16:49:30Z</time>
      </trkpt>
      <trkpt lat="49.4238" lon="-1.22247">
        <ele>2</ele>
        <time>2020-06-15T16:49:31Z</time>
      </trkpt>
      <trkpt lat="49.42379" lon="-1.22253">
        <ele>2</ele>
        <time>2020-06-15T16:49:32Z</time>
      </trkpt>
      <trkpt lat="49.42378" lon="-1.22259">
        <ele>2</ele>
        <time>2020-06-15T16:49:33Z</time>
      </trkpt>
      <trkpt lat="49.42377" lon="-1.22264">
        <ele>2</ele>
        <time>2020-06-15T16:49:34Z</time>
      </trkpt>
      <trkpt lat="49.42376" lon="-1.22271">
        <ele>2.1</ele>
        <time>2020-06-15T16:49:35Z</time>
      </trkpt>
      <trkpt lat="49.42376" lon="-1.22276">
        <ele>2.1</ele>
        <time>2020-06-15T16:49:36Z</time>
      </trkpt>
      <trkpt lat="49.42376" lon="-1.22282">
        <ele>2.2</ele>
        <time>2020-06-15T16:49:37Z</time>
      </trkpt>
      <trkpt lat="49.42376" lon="-1.22288">
        <ele>2.2</ele>
        <time>2020-06-15T16:49:38Z</time>
      </trkpt>
      <trkpt lat="49.42375" lon="-1.22294">
        <ele>2.2</ele>
        <time>2020-06-15T16:49:39Z</time>
      </trkpt>
      <trkpt lat="49.42375" lon="-1.223">
        <ele>2.2</ele>
        <time>2020-06-15T16:49:40Z</time>
      </trkpt>
      <trkpt lat="49.42375" lon="-1.22306">
        <ele>2.2</ele>
        <time>2020-06-15T16:49:41Z</time>
      </trkpt>
      <trkpt lat="49.42374" lon="-1.22312">
        <ele>2.2</ele>
        <time>2020-06-15T16:49:42Z</time>
      </trkpt>
      <trkpt lat="49.42375" lon="-1.22318">
        <ele>2.2</ele>
        <time>2020-06-15T16:49:43Z</time>
      </trkpt>
      <trkpt lat="49.42376" lon="-1.22325">
        <ele>2.2</ele>
        <time>2020-06-15T16:49:44Z</time>
      </trkpt>
      <trkpt lat="49.42377" lon="-1.22331">
        <ele>2.1</ele>
        <time>2020-06-15T16:49:45Z</time>
      </trkpt>
      <trkpt lat="49.42376" lon="-1.22337">
        <ele>2.1</ele>
        <time>2020-06-15T16:49:46Z</time>
      </trkpt>
      <trkpt lat="49.42376" lon="-1.22343">
        <ele>2.1</ele>
        <time>2020-06-15T16:49:47Z</time>
      </trkpt>
      <trkpt lat="49.42376" lon="-1.22349">
        <ele>2.1</ele>
        <time>2020-06-15T16:49:48Z</time>
      </trkpt>
      <trkpt lat="49.42376" lon="-1.22355">
        <ele>2.1</ele>
        <time>2020-06-15T16:49:49Z</time>
      </trkpt>
      <trkpt lat="49.42375" lon="-1.22361">
        <ele>2.1</ele>
        <time>2020-06-15T16:49:50Z</time>
      </trkpt>
      <trkpt lat="49.42375" lon="-1.22367">
        <ele>2.1</ele>
        <time>2020-06-15T16:49:51Z</time>
      </trkpt>
      <trkpt lat="49.42375" lon="-1.22374">
        <ele>2.1</ele>
        <time>2020-06-15T16:49:52Z</time>
      </trkpt>
      <trkpt lat="49.42375" lon="-1.2238">
        <ele>2.2</ele>
        <time>2020-06-15T16:49:53Z</time>
      </trkpt>
      <trkpt lat="49.42375" lon="-1.22387">
        <ele>2.2</ele>
        <time>2020-06-15T16:49:54Z</time>
      </trkpt>
      <trkpt lat="49.42374" lon="-1.22394">
        <ele>2.2</ele>
        <time>2020-06-15T16:49:55Z</time>
      </trkpt>
      <trkpt lat="49.42373" lon="-1.224">
        <ele>2.1</ele>
        <time>2020-06-15T16:49:56Z</time>
      </trkpt>
      <trkpt lat="49.42372" lon="-1.22406">
        <ele>2.1</ele>
        <time>2020-06-15T16:49:57Z</time>
      </trkpt>
      <trkpt lat="49.42371" lon="-1.22413">
        <ele>2.1</ele>
        <time>2020-06-15T16:49:58Z</time>
      </trkpt>
      <trkpt lat="49.4237" lon="-1.22419">
        <ele>2.1</ele>
        <time>2020-06-15T16:49:59Z</time>
      </trkpt>
      <trkpt lat="49.4237" lon="-1.22426">
        <ele>2.1</ele>
        <time>2020-06-15T16:50:00Z</time>
      </trkpt>
      <trkpt lat="49.42369" lon="-1.22432">
        <ele>2.1</ele>
        <time>2020-06-15T16:50:01Z</time>
      </trkpt>
      <trkpt lat="49.42369" lon="-1.22439">
        <ele>2.2</ele>
        <time>2020-06-15T16:50:02Z</time>
      </trkpt>
      <trkpt lat="49.42369" lon="-1.22445">
        <ele>2.2</ele>
        <time>2020-06-15T16:50:03Z</time>
      </trkpt>
      <trkpt lat="49.42368" lon="-1.22451">
        <ele>2.2</ele>
        <time>2020-06-15T16:50:04Z</time>
      </trkpt>
      <trkpt lat="49.42368" lon="-1.22459">
        <ele>2.3</ele>
        <time>2020-06-15T16:50:05Z</time>
      </trkpt>
      <trkpt lat="49.42368" lon="-1.22467">
        <ele>2.3</ele>
        <time>2020-06-15T16:50:06Z</time>
      </trkpt>
      <trkpt lat="49.42367" lon="-1.22476">
        <ele>2.3</ele>
        <time>2020-06-15T16:50:07Z</time>
      </trkpt>
      <trkpt lat="49.42366" lon="-1.22485">
        <ele>2.3</ele>
        <time>2020-06-15T16:50:08Z</time>
      </trkpt>
      <trkpt lat="49.42366" lon="-1.22493">
        <ele>2.3</ele>
        <time>2020-06-15T16:50:09Z</time>
      </trkpt>
      <trkpt lat="49.42365" lon="-1.22501">
        <ele>2.4</ele>
        <time>2020-06-15T16:50:10Z</time>
      </trkpt>
      <trkpt lat="49.42364" lon="-1.22509">
        <ele>2.4</ele>
        <time>2020-06-15T16:50:11Z</time>
      </trkpt>
      <trkpt lat="49.42363" lon="-1.22517">
        <ele>2.4</ele>
        <time>2020-06-15T16:50:12Z</time>
      </trkpt>
      <trkpt lat="49.42361" lon="-1.22525">
        <ele>2.3</ele>
        <time>2020-06-15T16:50:13Z</time>
      </trkpt>
      <trkpt lat="49.4236" lon="-1.22532">
        <ele>2.3</ele>
        <time>2020-06-15T16:50:14Z</time>
      </trkpt>
      <trkpt lat="49.42358" lon="-1.2254">
        <ele>2.3</ele>
        <time>2020-06-15T16:50:15Z</time>
      </trkpt>
      <trkpt lat="49.42357" lon="-1.22548">
        <ele>2.3</ele>
        <time>2020-06-15T16:50:16Z</time>
      </trkpt>
      <trkpt lat="49.42356" lon="-1.22556">
        <ele>2.2</ele>
        <time>2020-06-15T16:50:17Z</time>
      </trkpt>
      <trkpt lat="49.42355" lon="-1.22562">
        <ele>2.2</ele>
        <time>2020-06-15T16:50:18Z</time>
      </trkpt>
      <trkpt lat="49.42354" lon="-1.22569">
        <ele>2.2</ele>
        <time>2020-06-15T16:50:19Z</time>
      </trkpt>
      <trkpt lat="49.42353" lon="-1.22576">
        <ele>2.2</ele>
        <time>2020-06-15T16:50:20Z</time>
      </trkpt>
      <trkpt lat="49.42352" lon="-1.22583">
        <ele>2.2</ele>
        <time>2020-06-15T16:50:21Z</time>
      </trkpt>
      <trkpt lat="49.42351" lon="-1.2259">
        <ele>2.2</ele>
        <time>2020-06-15T16:50:22Z</time>
      </trkpt>
      <trkpt lat="49.4235" lon="-1.22597">
        <ele>2.3</ele>
        <time>2020-06-15T16:50:23Z</time>
      </trkpt>
      <trkpt lat="49.4235" lon="-1.22604">
        <ele>2.3</ele>
        <time>2020-06-15T16:50:24Z</time>
      </trkpt>
      <trkpt lat="49.42349" lon="-1.22611">
        <ele>2.3</ele>
        <time>2020-06-15T16:50:25Z</time>
      </trkpt>
      <trkpt lat="49.42348" lon="-1.22618">
        <ele>2.3</ele>
        <time>2020-06-15T16:50:26Z</time>
      </trkpt>
      <trkpt lat="49.42346" lon="-1.22625">
        <ele>2.3</ele>
        <time>2020-06-15T16:50:27Z</time>
      </trkpt>
      <trkpt lat="49.42345" lon="-1.22633">
        <ele>2.3</ele>
        <time>2020-06-15T16:50:28Z</time>
      </trkpt>
      <trkpt lat="49.42344" lon="-1.22641">
        <ele>2.4</ele>
        <time>2020-06-15T16:50:29Z</time>
      </trkpt>
      <trkpt lat="49.42344" lon="-1.22649">
        <ele>2.4</ele>
        <time>2020-06-15T16:50:30Z</time>
      </trkpt>
      <trkpt lat="49.42343" lon="-1.22657">
        <ele>2.5</ele>
        <time>2020-06-15T16:50:31Z</time>
      </trkpt>
      <trkpt lat="49.42343" lon="-1.22665">
        <ele>2.5</ele>
        <time>2020-06-15T16:50:32Z</time>
      </trkpt>
      <trkpt lat="49.42342" lon="-1.22672">
        <ele>2.5</ele>
        <time>2020-06-15T16:50:33Z</time>
      </trkpt>
      <trkpt lat="49.42342" lon="-1.2268">
        <ele>2.6</ele>
        <time>2020-06-15T16:50:34Z</time>
      </trkpt>
      <trkpt lat="49.42341" lon="-1.22688">
        <ele>2.6</ele>
        <time>2020-06-15T16:50:35Z</time>
      </trkpt>
      <trkpt lat="49.4234" lon="-1.22697">
        <ele>2.6</ele>
        <time>2020-06-15T16:50:36Z</time>
      </trkpt>
      <trkpt lat="49.42339" lon="-1.22705">
        <ele>2.6</ele>
        <time>2020-06-15T16:50:37Z</time>
      </trkpt>
      <trkpt lat="49.42338" lon="-1.22712">
        <ele>2.6</ele>
        <time>2020-06-15T16:50:38Z</time>
      </trkpt>
      <trkpt lat="49.42337" lon="-1.22719">
        <ele>2.6</ele>
        <time>2020-06-15T16:50:39Z</time>
      </trkpt>
      <trkpt lat="49.42337" lon="-1.22726">
        <ele>2.6</ele>
        <time>2020-06-15T16:50:40Z</time>
      </trkpt>
      <trkpt lat="49.42335" lon="-1.22733">
        <ele>2.5</ele>
        <time>2020-06-15T16:50:41Z</time>
      </trkpt>
      <trkpt lat="49.42334" lon="-1.22741">
        <ele>2.4</ele>
        <time>2020-06-15T16:50:42Z</time>
      </trkpt>
      <trkpt lat="49.42333" lon="-1.22749">
        <ele>2.4</ele>
        <time>2020-06-15T16:50:43Z</time>
      </trkpt>
      <trkpt lat="49.42332" lon="-1.22757">
        <ele>2.4</ele>
        <time>2020-06-15T16:50:44Z</time>
      </trkpt>
      <trkpt lat="49.4233" lon="-1.22765">
        <ele>2.3</ele>
        <time>2020-06-15T16:50:45Z</time>
      </trkpt>
      <trkpt lat="49.42329" lon="-1.22773">
        <ele>2.4</ele>
        <time>2020-06-15T16:50:46Z</time>
      </trkpt>
      <trkpt lat="49.42328" lon="-1.2278">
        <ele>2.4</ele>
        <time>2020-06-15T16:50:47Z</time>
      </trkpt>
      <trkpt lat="49.42326" lon="-1.22788">
        <ele>2.5</ele>
        <time>2020-06-15T16:50:48Z</time>
      </trkpt>
      <trkpt lat="49.42325" lon="-1.22797">
        <ele>2.6</ele>
        <time>2020-06-15T16:50:49Z</time>
      </trkpt>
      <trkpt lat="49.42324" lon="-1.22804">
        <ele>2.7</ele>
        <time>2020-06-15T16:50:50Z</time>
      </trkpt>
      <trkpt lat="49.42323" lon="-1.2281">
        <ele>2.8</ele>
        <time>2020-06-15T16:50:51Z</time>
      </trkpt>
      <trkpt lat="49.42323" lon="-1.22817">
        <ele>2.8</ele>
        <time>2020-06-15T16:50:52Z</time>
      </trkpt>
      <trkpt lat="49.42322" lon="-1.22823">
        <ele>2.9</ele>
        <time>2020-06-15T16:50:53Z</time>
      </trkpt>
      <trkpt lat="49.42321" lon="-1.22829">
        <ele>3</ele>
        <time>2020-06-15T16:50:54Z</time>
      </trkpt>
      <trkpt lat="49.42321" lon="-1.22836">
        <ele>3.1</ele>
        <time>2020-06-15T16:50:55Z</time>
      </trkpt>
      <trkpt lat="49.42321" lon="-1.22841">
        <ele>3.1</ele>
        <time>2020-06-15T16:50:56Z</time>
      </trkpt>
      <trkpt lat="49.42322" lon="-1.22845">
        <ele>3.1</ele>
        <time>2020-06-15T16:50:57Z</time>
      </trkpt>
      <trkpt lat="49.42324" lon="-1.2285">
        <ele>3.2</ele>
        <time>2020-06-15T16:50:58Z</time>
      </trkpt>
      <trkpt lat="49.42326" lon="-1.22854">
        <ele>3.4</ele>
        <time>2020-06-15T16:50:59Z</time>
      </trkpt>
      <trkpt lat="49.42327" lon="-1.22855">
        <ele>3.4</ele>
        <time>2020-06-15T16:51:00Z</time>
      </trkpt>
      <trkpt lat="49.4233" lon="-1.22856">
        <ele>3.4</ele>
        <time>2020-06-15T16:51:01Z</time>
      </trkpt>
      <trkpt lat="49.42332" lon="-1.22856">
        <ele>3.4</ele>
        <time>2020-06-15T16:51:02Z</time>
      </trkpt>
      <trkpt lat="49.42333" lon="-1.22856">
        <ele>3.4</ele>
        <time>2020-06-15T16:51:03Z</time>
      </trkpt>
      <trkpt lat="49.42336" lon="-1.22856">
        <ele>3.3</ele>
        <time>2020-06-15T16:51:04Z</time>
      </trkpt>
      <trkpt lat="49.42337" lon="-1.22856">
        <ele>3.3</ele>
        <time>2020-06-15T16:51:05Z</time>
      </trkpt>
      <trkpt lat="49.42338" lon="-1.22856">
        <ele>3.3</ele>
        <time>2020-06-15T16:51:06Z</time>
      </trkpt>
      <trkpt lat="49.42339" lon="-1.22858">
        <ele>3.3</ele>
        <time>2020-06-15T16:51:07Z</time>
      </trkpt>
      <trkpt lat="49.4234" lon="-1.22859">
        <ele>3.3</ele>
        <time>2020-06-15T16:51:08Z</time>
      </trkpt>
      <trkpt lat="49.42341" lon="-1.22859">
        <ele>3.3</ele>
        <time>2020-06-15T16:51:09Z</time>
      </trkpt>
      <trkpt lat="49.42341" lon="-1.22859">
        <ele>3.3</ele>
        <time>2020-06-15T16:51:10Z</time>
      </trkpt>
      <trkpt lat="49.42341" lon="-1.22859">
        <ele>3.3</ele>
        <time>2020-06-15T16:51:11Z</time>
      </trkpt>
      <trkpt lat="49.42341" lon="-1.22859">
        <ele>3.3</ele>
        <time>2020-06-15T16:51:12Z</time>
      </trkpt>
      <trkpt lat="49.42341" lon="-1.2286">
        <ele>3.3</ele>
        <time>2020-06-15T16:51:13Z</time>
      </trkpt>
      <trkpt lat="49.42341" lon="-1.2286">
        <ele>3.3</ele>
        <time>2020-06-15T16:51:14Z</time>
      </trkpt>
      <trkpt lat="49.42341" lon="-1.22861">
        <ele>3.3</ele>
        <time>2020-06-15T16:51:15Z</time>
      </trkpt>
      <trkpt lat="49.42341" lon="-1.22861">
        <ele>3.3</ele>
        <time>2020-06-15T16:51:16Z</time>
      </trkpt>
      <trkpt lat="49.42342" lon="-1.22861">
        <ele>3.3</ele>
        <time>2020-06-15T16:51:17Z</time>
      </trkpt>
      <trkpt lat="49.4235" lon="-1.22862">
        <ele>3.3</ele>
        <time>2020-06-15T16:51:20Z</time>
      </trkpt>
      <trkpt lat="49.42353" lon="-1.22864">
        <ele>3.3</ele>
        <time>2020-06-15T16:51:21Z</time>
      </trkpt>
      <trkpt lat="49.42356" lon="-1.22864">
        <ele>3.3</ele>
        <time>2020-06-15T16:51:22Z</time>
      </trkpt>
      <trkpt lat="49.4236" lon="-1.22864">
        <ele>3.3</ele>
        <time>2020-06-15T16:51:23Z</time>
      </trkpt>
      <trkpt lat="49.42363" lon="-1.22865">
        <ele>3.3</ele>
        <time>2020-06-15T16:51:24Z</time>
      </trkpt>
      <trkpt lat="49.42367" lon="-1.22865">
        <ele>3.3</ele>
        <time>2020-06-15T16:51:25Z</time>
      </trkpt>
      <trkpt lat="49.4237" lon="-1.22865">
        <ele>3.3</ele>
        <time>2020-06-15T16:51:26Z</time>
      </trkpt>
      <trkpt lat="49.42373" lon="-1.22865">
        <ele>3.3</ele>
        <time>2020-06-15T16:51:27Z</time>
      </trkpt>
      <trkpt lat="49.42377" lon="-1.22864">
        <ele>3.3</ele>
        <time>2020-06-15T16:51:28Z</time>
      </trkpt>
      <trkpt lat="49.42381" lon="-1.22863">
        <ele>3.4</ele>
        <time>2020-06-15T16:51:29Z</time>
      </trkpt>
      <trkpt lat="49.42385" lon="-1.22863">
        <ele>3.5</ele>
        <time>2020-06-15T16:51:30Z</time>
      </trkpt>
      <trkpt lat="49.42387" lon="-1.22862">
        <ele>3.5</ele>
        <time>2020-06-15T16:51:31Z</time>
      </trkpt>
      <trkpt lat="49.4239" lon="-1.22861">
        <ele>3.5</ele>
        <time>2020-06-15T16:51:32Z</time>
      </trkpt>
      <trkpt lat="49.42394" lon="-1.2286">
        <ele>3.6</ele>
        <time>2020-06-15T16:51:33Z</time>
      </trkpt>
      <trkpt lat="49.42398" lon="-1.22859">
        <ele>3.6</ele>
        <time>2020-06-15T16:51:34Z</time>
      </trkpt>
      <trkpt lat="49.42402" lon="-1.22858">
        <ele>3.6</ele>
        <time>2020-06-15T16:51:35Z</time>
      </trkpt>
      <trkpt lat="49.42407" lon="-1.22859">
        <ele>3.7</ele>
        <time>2020-06-15T16:51:36Z</time>
      </trkpt>
      <trkpt lat="49.42411" lon="-1.2286">
        <ele>3.7</ele>
        <time>2020-06-15T16:51:37Z</time>
      </trkpt>
      <trkpt lat="49.42416" lon="-1.22861">
        <ele>3.7</ele>
        <time>2020-06-15T16:51:38Z</time>
      </trkpt>
      <trkpt lat="49.42421" lon="-1.22862">
        <ele>3.7</ele>
        <time>2020-06-15T16:51:39Z</time>
      </trkpt>
      <trkpt lat="49.42426" lon="-1.22863">
        <ele>3.7</ele>
        <time>2020-06-15T16:51:40Z</time>
      </trkpt>
      <trkpt lat="49.42431" lon="-1.22864">
        <ele>3.7</ele>
        <time>2020-06-15T16:51:41Z</time>
      </trkpt>
      <trkpt lat="49.42437" lon="-1.22866">
        <ele>3.7</ele>
        <time>2020-06-15T16:51:42Z</time>
      </trkpt>
      <trkpt lat="49.42441" lon="-1.22866">
        <ele>3.7</ele>
        <time>2020-06-15T16:51:43Z</time>
      </trkpt>
      <trkpt lat="49.42446" lon="-1.22868">
        <ele>3.8</ele>
        <time>2020-06-15T16:51:44Z</time>
      </trkpt>
      <trkpt lat="49.42452" lon="-1.2287">
        <ele>3.8</ele>
        <time>2020-06-15T16:51:45Z</time>
      </trkpt>
      <trkpt lat="49.42458" lon="-1.22872">
        <ele>3.7</ele>
        <time>2020-06-15T16:51:46Z</time>
      </trkpt>
      <trkpt lat="49.42464" lon="-1.22875">
        <ele>3.7</ele>
        <time>2020-06-15T16:51:47Z</time>
      </trkpt>
      <trkpt lat="49.4247" lon="-1.22881">
        <ele>3.6</ele>
        <time>2020-06-15T16:51:48Z</time>
      </trkpt>
      <trkpt lat="49.42477" lon="-1.22889">
        <ele>3.5</ele>
        <time>2020-06-15T16:51:49Z</time>
      </trkpt>
      <trkpt lat="49.42482" lon="-1.22896">
        <ele>3.4</ele>
        <time>2020-06-15T16:51:50Z</time>
      </trkpt>
      <trkpt lat="49.42487" lon="-1.22903">
        <ele>3.4</ele>
        <time>2020-06-15T16:51:51Z</time>
      </trkpt>
      <trkpt lat="49.42493" lon="-1.22907">
        <ele>3.5</ele>
        <time>2020-06-15T16:51:52Z</time>
      </trkpt>
      <trkpt lat="49.42499" lon="-1.22911">
        <ele>3.6</ele>
        <time>2020-06-15T16:51:53Z</time>
      </trkpt>
      <trkpt lat="49.42504" lon="-1.22915">
        <ele>3.6</ele>
        <time>2020-06-15T16:51:54Z</time>
      </trkpt>
      <trkpt lat="49.4251" lon="-1.22917">
        <ele>3.7</ele>
        <time>2020-06-15T16:51:55Z</time>
      </trkpt>
      <trkpt lat="49.42516" lon="-1.2292">
        <ele>3.8</ele>
        <time>2020-06-15T16:51:56Z</time>
      </trkpt>
      <trkpt lat="49.4252" lon="-1.22924">
        <ele>3.9</ele>
        <time>2020-06-15T16:51:57Z</time>
      </trkpt>
      <trkpt lat="49.42525" lon="-1.22928">
        <ele>4.1</ele>
        <time>2020-06-15T16:51:58Z</time>
      </trkpt>
      <trkpt lat="49.4253" lon="-1.22933">
        <ele>4.2</ele>
        <time>2020-06-15T16:51:59Z</time>
      </trkpt>
      <trkpt lat="49.42534" lon="-1.22936">
        <ele>4.3</ele>
        <time>2020-06-15T16:52:00Z</time>
      </trkpt>
      <trkpt lat="49.42539" lon="-1.2294">
        <ele>4.3</ele>
        <time>2020-06-15T16:52:01Z</time>
      </trkpt>
      <trkpt lat="49.42545" lon="-1.22944">
        <ele>4.4</ele>
        <time>2020-06-15T16:52:02Z</time>
      </trkpt>
      <trkpt lat="49.42551" lon="-1.22948">
        <ele>4.4</ele>
        <time>2020-06-15T16:52:03Z</time>
      </trkpt>
      <trkpt lat="49.42557" lon="-1.22952">
        <ele>4.4</ele>
        <time>2020-06-15T16:52:04Z</time>
      </trkpt>
      <trkpt lat="49.42563" lon="-1.22955">
        <ele>4.5</ele>
        <time>2020-06-15T16:52:05Z</time>
      </trkpt>
      <trkpt lat="49.4257" lon="-1.22959">
        <ele>4.5</ele>
        <time>2020-06-15T16:52:06Z</time>
      </trkpt>
      <trkpt lat="49.42577" lon="-1.22963">
        <ele>4.4</ele>
        <time>2020-06-15T16:52:07Z</time>
      </trkpt>
      <trkpt lat="49.42583" lon="-1.22967">
        <ele>4.4</ele>
        <time>2020-06-15T16:52:08Z</time>
      </trkpt>
      <trkpt lat="49.42589" lon="-1.2297">
        <ele>4.3</ele>
        <time>2020-06-15T16:52:09Z</time>
      </trkpt>
      <trkpt lat="49.42594" lon="-1.22972">
        <ele>4.3</ele>
        <time>2020-06-15T16:52:10Z</time>
      </trkpt>
      <trkpt lat="49.42599" lon="-1.22974">
        <ele>4.2</ele>
        <time>2020-06-15T16:52:11Z</time>
      </trkpt>
      <trkpt lat="49.42605" lon="-1.22976">
        <ele>4.2</ele>
        <time>2020-06-15T16:52:12Z</time>
      </trkpt>
      <trkpt lat="49.42611" lon="-1.22978">
        <ele>4.2</ele>
        <time>2020-06-15T16:52:13Z</time>
      </trkpt>
      <trkpt lat="49.42617" lon="-1.2298">
        <ele>4.1</ele>
        <time>2020-06-15T16:52:14Z</time>
      </trkpt>
      <trkpt lat="49.42623" lon="-1.22981">
        <ele>3.8</ele>
        <time>2020-06-15T16:52:15Z</time>
      </trkpt>
      <trkpt lat="49.4263" lon="-1.22983">
        <ele>3.6</ele>
        <time>2020-06-15T16:52:16Z</time>
      </trkpt>
      <trkpt lat="49.42635" lon="-1.22984">
        <ele>3.4</ele>
        <time>2020-06-15T16:52:17Z</time>
      </trkpt>
      <trkpt lat="49.4264" lon="-1.22987">
        <ele>3.3</ele>
        <time>2020-06-15T16:52:18Z</time>
      </trkpt>
      <trkpt lat="49.42646" lon="-1.2299">
        <ele>3.3</ele>
        <time>2020-06-15T16:52:19Z</time>
      </trkpt>
      <trkpt lat="49.42653" lon="-1.22992">
        <ele>3.3</ele>
        <time>2020-06-15T16:52:20Z</time>
      </trkpt>
      <trkpt lat="49.42662" lon="-1.22993">
        <ele>3.4</ele>
        <time>2020-06-15T16:52:21Z</time>
      </trkpt>
      <trkpt lat="49.42671" lon="-1.22994">
        <ele>3.5</ele>
        <time>2020-06-15T16:52:22Z</time>
      </trkpt>
      <trkpt lat="49.42678" lon="-1.22996">
        <ele>3.5</ele>
        <time>2020-06-15T16:52:23Z</time>
      </trkpt>
      <trkpt lat="49.42681" lon="-1.22997">
        <ele>3.5</ele>
        <time>2020-06-15T16:52:24Z</time>
      </trkpt>
      <trkpt lat="49.42687" lon="-1.22999">
        <ele>3.4</ele>
        <time>2020-06-15T16:52:25Z</time>
      </trkpt>
      <trkpt lat="49.42694" lon="-1.23003">
        <ele>3.2</ele>
        <time>2020-06-15T16:52:26Z</time>
      </trkpt>
      <trkpt lat="49.42701" lon="-1.23007">
        <ele>2.9</ele>
        <time>2020-06-15T16:52:27Z</time>
      </trkpt>
      <trkpt lat="49.42707" lon="-1.23013">
        <ele>3.2</ele>
        <time>2020-06-15T16:52:28Z</time>
      </trkpt>
      <trkpt lat="49.42715" lon="-1.2302">
        <ele>3.4</ele>
        <time>2020-06-15T16:52:29Z</time>
      </trkpt>
      <trkpt lat="49.4272" lon="-1.23027">
        <ele>3.4</ele>
        <time>2020-06-15T16:52:30Z</time>
      </trkpt>
      <trkpt lat="49.42727" lon="-1.23034">
        <ele>3.4</ele>
        <time>2020-06-15T16:52:31Z</time>
      </trkpt>
      <trkpt lat="49.42732" lon="-1.23041">
        <ele>3.4</ele>
        <time>2020-06-15T16:52:32Z</time>
      </trkpt>
      <trkpt lat="49.42737" lon="-1.23048">
        <ele>3.5</ele>
        <time>2020-06-15T16:52:33Z</time>
      </trkpt>
      <trkpt lat="49.42742" lon="-1.23056">
        <ele>3.6</ele>
        <time>2020-06-15T16:52:34Z</time>
      </trkpt>
      <trkpt lat="49.42747" lon="-1.23063">
        <ele>3.7</ele>
        <time>2020-06-15T16:52:35Z</time>
      </trkpt>
      <trkpt lat="49.42751" lon="-1.23069">
        <ele>3.8</ele>
        <time>2020-06-15T16:52:36Z</time>
      </trkpt>
      <trkpt lat="49.42753" lon="-1.23075">
        <ele>3.8</ele>
        <time>2020-06-15T16:52:37Z</time>
      </trkpt>
      <trkpt lat="49.42755" lon="-1.23081">
        <ele>3.8</ele>
        <time>2020-06-15T16:52:38Z</time>
      </trkpt>
      <trkpt lat="49.42757" lon="-1.23086">
        <ele>3.8</ele>
        <time>2020-06-15T16:52:39Z</time>
      </trkpt>
      <trkpt lat="49.4276" lon="-1.23092">
        <ele>3.8</ele>
        <time>2020-06-15T16:52:40Z</time>
      </trkpt>
      <trkpt lat="49.42762" lon="-1.23099">
        <ele>3.7</ele>
        <time>2020-06-15T16:52:41Z</time>
      </trkpt>
      <trkpt lat="49.42763" lon="-1.23108">
        <ele>3.7</ele>
        <time>2020-06-15T16:52:42Z</time>
      </trkpt>
      <trkpt lat="49.42764" lon="-1.23114">
        <ele>3.7</ele>
        <time>2020-06-15T16:52:43Z</time>
      </trkpt>
      <trkpt lat="49.42765" lon="-1.23119">
        <ele>3.8</ele>
        <time>2020-06-15T16:52:44Z</time>
      </trkpt>
      <trkpt lat="49.42768" lon="-1.23124">
        <ele>3.8</ele>
        <time>2020-06-15T16:52:45Z</time>
      </trkpt>
      <trkpt lat="49.4277" lon="-1.23131">
        <ele>3.9</ele>
        <time>2020-06-15T16:52:46Z</time>
      </trkpt>
      <trkpt lat="49.42774" lon="-1.23138">
        <ele>3.9</ele>
        <time>2020-06-15T16:52:47Z</time>
      </trkpt>
      <trkpt lat="49.42777" lon="-1.23144">
        <ele>3.9</ele>
        <time>2020-06-15T16:52:48Z</time>
      </trkpt>
      <trkpt lat="49.4278" lon="-1.23152">
        <ele>3.9</ele>
        <time>2020-06-15T16:52:49Z</time>
      </trkpt>
      <trkpt lat="49.42783" lon="-1.2316">
        <ele>3.9</ele>
        <time>2020-06-15T16:52:50Z</time>
      </trkpt>
      <trkpt lat="49.42786" lon="-1.23167">
        <ele>4</ele>
        <time>2020-06-15T16:52:51Z</time>
      </trkpt>
      <trkpt lat="49.42787" lon="-1.23172">
        <ele>4</ele>
        <time>2020-06-15T16:52:52Z</time>
      </trkpt>
      <trkpt lat="49.42786" lon="-1.23178">
        <ele>4</ele>
        <time>2020-06-15T16:52:53Z</time>
      </trkpt>
      <trkpt lat="49.42785" lon="-1.23186">
        <ele>4</ele>
        <time>2020-06-15T16:52:54Z</time>
      </trkpt>
      <trkpt lat="49.42782" lon="-1.23193">
        <ele>4.2</ele>
        <time>2020-06-15T16:52:55Z</time>
      </trkpt>
      <trkpt lat="49.42779" lon="-1.23201">
        <ele>4.4</ele>
        <time>2020-06-15T16:52:56Z</time>
      </trkpt>
      <trkpt lat="49.42776" lon="-1.23209">
        <ele>4.7</ele>
        <time>2020-06-15T16:52:57Z</time>
      </trkpt>
      <trkpt lat="49.42772" lon="-1.23219">
        <ele>4.9</ele>
        <time>2020-06-15T16:52:58Z</time>
      </trkpt>
      <trkpt lat="49.42769" lon="-1.23229">
        <ele>5.2</ele>
        <time>2020-06-15T16:52:59Z</time>
      </trkpt>
      <trkpt lat="49.42766" lon="-1.23238">
        <ele>5.3</ele>
        <time>2020-06-15T16:53:00Z</time>
      </trkpt>
      <trkpt lat="49.42762" lon="-1.23246">
        <ele>5.5</ele>
        <time>2020-06-15T16:53:01Z</time>
      </trkpt>
      <trkpt lat="49.42759" lon="-1.23254">
        <ele>5.6</ele>
        <time>2020-06-15T16:53:02Z</time>
      </trkpt>
      <trkpt lat="49.42755" lon="-1.23262">
        <ele>5.7</ele>
        <time>2020-06-15T16:53:03Z</time>
      </trkpt>
      <trkpt lat="49.42752" lon="-1.2327">
        <ele>5.8</ele>
        <time>2020-06-15T16:53:04Z</time>
      </trkpt>
      <trkpt lat="49.42749" lon="-1.23279">
        <ele>5.9</ele>
        <time>2020-06-15T16:53:05Z</time>
      </trkpt>
      <trkpt lat="49.42746" lon="-1.23287">
        <ele>6.1</ele>
        <time>2020-06-15T16:53:06Z</time>
      </trkpt>
      <trkpt lat="49.42744" lon="-1.23295">
        <ele>6.3</ele>
        <time>2020-06-15T16:53:07Z</time>
      </trkpt>
      <trkpt lat="49.42741" lon="-1.23304">
        <ele>6.6</ele>
        <time>2020-06-15T16:53:08Z</time>
      </trkpt>
      <trkpt lat="49.42739" lon="-1.23312">
        <ele>6.7</ele>
        <time>2020-06-15T16:53:09Z</time>
      </trkpt>
      <trkpt lat="49.42737" lon="-1.2332">
        <ele>6.9</ele>
        <time>2020-06-15T16:53:10Z</time>
      </trkpt>
      <trkpt lat="49.42735" lon="-1.23328">
        <ele>7.1</ele>
        <time>2020-06-15T16:53:11Z</time>
      </trkpt>
      <trkpt lat="49.42733" lon="-1.23335">
        <ele>7.2</ele>
        <time>2020-06-15T16:53:12Z</time>
      </trkpt>
      <trkpt lat="49.4273" lon="-1.23342">
        <ele>7.4</ele>
        <time>2020-06-15T16:53:13Z</time>
      </trkpt>
      <trkpt lat="49.42728" lon="-1.23349">
        <ele>7.5</ele>
        <time>2020-06-15T16:53:14Z</time>
      </trkpt>
      <trkpt lat="49.42725" lon="-1.23357">
        <ele>7.7</ele>
        <time>2020-06-15T16:53:15Z</time>
      </trkpt>
      <trkpt lat="49.42723" lon="-1.23365">
        <ele>7.8</ele>
        <time>2020-06-15T16:53:16Z</time>
      </trkpt>
      <trkpt lat="49.42721" lon="-1.23373">
        <ele>8</ele>
        <time>2020-06-15T16:53:17Z</time>
      </trkpt>
      <trkpt lat="49.42719" lon="-1.2338">
        <ele>8.1</ele>
        <time>2020-06-15T16:53:18Z</time>
      </trkpt>
      <trkpt lat="49.42716" lon="-1.23388">
        <ele>8.3</ele>
        <time>2020-06-15T16:53:19Z</time>
      </trkpt>
      <trkpt lat="49.42714" lon="-1.23396">
        <ele>8.5</ele>
        <time>2020-06-15T16:53:20Z</time>
      </trkpt>
      <trkpt lat="49.42711" lon="-1.23404">
        <ele>8.6</ele>
        <time>2020-06-15T16:53:21Z</time>
      </trkpt>
      <trkpt lat="49.42709" lon="-1.2341">
        <ele>8.8</ele>
        <time>2020-06-15T16:53:22Z</time>
      </trkpt>
      <trkpt lat="49.42707" lon="-1.23417">
        <ele>8.9</ele>
        <time>2020-06-15T16:53:23Z</time>
      </trkpt>
      <trkpt lat="49.42704" lon="-1.23424">
        <ele>9.1</ele>
        <time>2020-06-15T16:53:24Z</time>
      </trkpt>
      <trkpt lat="49.42702" lon="-1.2343">
        <ele>9.2</ele>
        <time>2020-06-15T16:53:25Z</time>
      </trkpt>
      <trkpt lat="49.427" lon="-1.23438">
        <ele>9.3</ele>
        <time>2020-06-15T16:53:26Z</time>
      </trkpt>
      <trkpt lat="49.42697" lon="-1.23445">
        <ele>9.4</ele>
        <time>2020-06-15T16:53:27Z</time>
      </trkpt>
      <trkpt lat="49.42695" lon="-1.23453">
        <ele>9.6</ele>
        <time>2020-06-15T16:53:28Z</time>
      </trkpt>
      <trkpt lat="49.42692" lon="-1.23459">
        <ele>9.8</ele>
        <time>2020-06-15T16:53:29Z</time>
      </trkpt>
      <trkpt lat="49.4269" lon="-1.23466">
        <ele>10.1</ele>
        <time>2020-06-15T16:53:30Z</time>
      </trkpt>
      <trkpt lat="49.42688" lon="-1.23474">
        <ele>10.4</ele>
        <time>2020-06-15T16:53:31Z</time>
      </trkpt>
      <trkpt lat="49.42687" lon="-1.23481">
        <ele>10.8</ele>
        <time>2020-06-15T16:53:32Z</time>
      </trkpt>
      <trkpt lat="49.42687" lon="-1.23486">
        <ele>10.7</ele>
        <time>2020-06-15T16:53:33Z</time>
      </trkpt>
      <trkpt lat="49.42687" lon="-1.23491">
        <ele>10.7</ele>
        <time>2020-06-15T16:53:34Z</time>
      </trkpt>
      <trkpt lat="49.42689" lon="-1.23495">
        <ele>10.7</ele>
        <time>2020-06-15T16:53:35Z</time>
      </trkpt>
      <trkpt lat="49.42689" lon="-1.23496">
        <ele>10.7</ele>
        <time>2020-06-15T16:53:36Z</time>
      </trkpt>
      <trkpt lat="49.42692" lon="-1.235">
        <ele>10.7</ele>
        <time>2020-06-15T16:53:37Z</time>
      </trkpt>
      <trkpt lat="49.42694" lon="-1.23502">
        <ele>10.7</ele>
        <time>2020-06-15T16:53:38Z</time>
      </trkpt>
      <trkpt lat="49.42697" lon="-1.23506">
        <ele>10.6</ele>
        <time>2020-06-15T16:53:39Z</time>
      </trkpt>
      <trkpt lat="49.427" lon="-1.23511">
        <ele>10.6</ele>
        <time>2020-06-15T16:53:40Z</time>
      </trkpt>
      <trkpt lat="49.42704" lon="-1.23515">
        <ele>10.5</ele>
        <time>2020-06-15T16:53:41Z</time>
      </trkpt>
      <trkpt lat="49.42707" lon="-1.2352">
        <ele>10.5</ele>
        <time>2020-06-15T16:53:42Z</time>
      </trkpt>
      <trkpt lat="49.42709" lon="-1.23525">
        <ele>10.4</ele>
        <time>2020-06-15T16:53:43Z</time>
      </trkpt>
      <trkpt lat="49.42711" lon="-1.23531">
        <ele>10.6</ele>
        <time>2020-06-15T16:53:44Z</time>
      </trkpt>
      <trkpt lat="49.42711" lon="-1.23536">
        <ele>10.9</ele>
        <time>2020-06-15T16:53:45Z</time>
      </trkpt>
      <trkpt lat="49.4271" lon="-1.23542">
        <ele>11.1</ele>
        <time>2020-06-15T16:53:46Z</time>
      </trkpt>
      <trkpt lat="49.42709" lon="-1.23548">
        <ele>11.3</ele>
        <time>2020-06-15T16:53:47Z</time>
      </trkpt>
      <trkpt lat="49.42708" lon="-1.23554">
        <ele>11.6</ele>
        <time>2020-06-15T16:53:48Z</time>
      </trkpt>
      <trkpt lat="49.42708" lon="-1.2356">
        <ele>11.8</ele>
        <time>2020-06-15T16:53:49Z</time>
      </trkpt>
      <trkpt lat="49.42707" lon="-1.23565">
        <ele>12</ele>
        <time>2020-06-15T16:53:50Z</time>
      </trkpt>
      <trkpt lat="49.42706" lon="-1.23571">
        <ele>12.3</ele>
        <time>2020-06-15T16:53:51Z</time>
      </trkpt>
      <trkpt lat="49.42706" lon="-1.23573">
        <ele>12.4</ele>
        <time>2020-06-15T16:53:52Z</time>
      </trkpt>
      <trkpt lat="49.42705" lon="-1.23577">
        <ele>12.6</ele>
        <time>2020-06-15T16:53:53Z</time>
      </trkpt>
      <trkpt lat="49.42705" lon="-1.23578">
        <ele>12.7</ele>
        <time>2020-06-15T16:53:54Z</time>
      </trkpt>
      <trkpt lat="49.42703" lon="-1.23582">
        <ele>12.9</ele>
        <time>2020-06-15T16:53:55Z</time>
      </trkpt>
      <trkpt lat="49.42701" lon="-1.23587">
        <ele>13.2</ele>
        <time>2020-06-15T16:53:56Z</time>
      </trkpt>
      <trkpt lat="49.427" lon="-1.23588">
        <ele>13.3</ele>
        <time>2020-06-15T16:53:57Z</time>
      </trkpt>
      <trkpt lat="49.42698" lon="-1.23592">
        <ele>13.6</ele>
        <time>2020-06-15T16:53:58Z</time>
      </trkpt>
      <trkpt lat="49.42698" lon="-1.23594">
        <ele>13.7</ele>
        <time>2020-06-15T16:53:59Z</time>
      </trkpt>
      <trkpt lat="49.42696" lon="-1.23597">
        <ele>14</ele>
        <time>2020-06-15T16:54:00Z</time>
      </trkpt>
      <trkpt lat="49.42695" lon="-1.23598">
        <ele>14.1</ele>
        <time>2020-06-15T16:54:01Z</time>
      </trkpt>
      <trkpt lat="49.42693" lon="-1.23602">
        <ele>14.4</ele>
        <time>2020-06-15T16:54:02Z</time>
      </trkpt>
      <trkpt lat="49.42692" lon="-1.23604">
        <ele>14.5</ele>
        <time>2020-06-15T16:54:03Z</time>
      </trkpt>
      <trkpt lat="49.42691" lon="-1.23609">
        <ele>14.9</ele>
        <time>2020-06-15T16:54:04Z</time>
      </trkpt>
      <trkpt lat="49.4269" lon="-1.2361">
        <ele>15</ele>
        <time>2020-06-15T16:54:05Z</time>
      </trkpt>
      <trkpt lat="49.4269" lon="-1.23615">
        <ele>15.8</ele>
        <time>2020-06-15T16:54:06Z</time>
      </trkpt>
      <trkpt lat="49.42688" lon="-1.2362">
        <ele>16.2</ele>
        <time>2020-06-15T16:54:07Z</time>
      </trkpt>
      <trkpt lat="49.42688" lon="-1.23621">
        <ele>16.3</ele>
        <time>2020-06-15T16:54:08Z</time>
      </trkpt>
      <trkpt lat="49.42686" lon="-1.23626">
        <ele>16.7</ele>
        <time>2020-06-15T16:54:09Z</time>
      </trkpt>
      <trkpt lat="49.42685" lon="-1.23627">
        <ele>16.8</ele>
        <time>2020-06-15T16:54:10Z</time>
      </trkpt>
      <trkpt lat="49.42684" lon="-1.23631">
        <ele>17.1</ele>
        <time>2020-06-15T16:54:11Z</time>
      </trkpt>
      <trkpt lat="49.42682" lon="-1.23636">
        <ele>17.3</ele>
        <time>2020-06-15T16:54:12Z</time>
      </trkpt>
      <trkpt lat="49.4268" lon="-1.23641">
        <ele>17.6</ele>
        <time>2020-06-15T16:54:13Z</time>
      </trkpt>
      <trkpt lat="49.42678" lon="-1.23646">
        <ele>17.9</ele>
        <time>2020-06-15T16:54:14Z</time>
      </trkpt>
      <trkpt lat="49.42677" lon="-1.23651">
        <ele>18.1</ele>
        <time>2020-06-15T16:54:15Z</time>
      </trkpt>
      <trkpt lat="49.42676" lon="-1.23655">
        <ele>18.3</ele>
        <time>2020-06-15T16:54:16Z</time>
      </trkpt>
      <trkpt lat="49.42675" lon="-1.2366">
        <ele>18.6</ele>
        <time>2020-06-15T16:54:17Z</time>
      </trkpt>
      <trkpt lat="49.42673" lon="-1.23665">
        <ele>18.8</ele>
        <time>2020-06-15T16:54:18Z</time>
      </trkpt>
      <trkpt lat="49.42672" lon="-1.2367">
        <ele>19.1</ele>
        <time>2020-06-15T16:54:19Z</time>
      </trkpt>
      <trkpt lat="49.42671" lon="-1.23673">
        <ele>19.3</ele>
        <time>2020-06-15T16:54:20Z</time>
      </trkpt>
      <trkpt lat="49.4267" lon="-1.23677">
        <ele>19.5</ele>
        <time>2020-06-15T16:54:21Z</time>
      </trkpt>
      <trkpt lat="49.42669" lon="-1.23683">
        <ele>19.7</ele>
        <time>2020-06-15T16:54:22Z</time>
      </trkpt>
      <trkpt lat="49.42669" lon="-1.23684">
        <ele>19.8</ele>
        <time>2020-06-15T16:54:23Z</time>
      </trkpt>
      <trkpt lat="49.42668" lon="-1.23689">
        <ele>20</ele>
        <time>2020-06-15T16:54:24Z</time>
      </trkpt>
      <trkpt lat="49.42668" lon="-1.23691">
        <ele>20.1</ele>
        <time>2020-06-15T16:54:25Z</time>
      </trkpt>
      <trkpt lat="49.42668" lon="-1.23696">
        <ele>20.4</ele>
        <time>2020-06-15T16:54:26Z</time>
      </trkpt>
      <trkpt lat="49.42667" lon="-1.23698">
        <ele>20.5</ele>
        <time>2020-06-15T16:54:27Z</time>
      </trkpt>
      <trkpt lat="49.42666" lon="-1.23703">
        <ele>20.7</ele>
        <time>2020-06-15T16:54:28Z</time>
      </trkpt>
      <trkpt lat="49.42666" lon="-1.23705">
        <ele>20.8</ele>
        <time>2020-06-15T16:54:29Z</time>
      </trkpt>
      <trkpt lat="49.42665" lon="-1.2371">
        <ele>21</ele>
        <time>2020-06-15T16:54:30Z</time>
      </trkpt>
      <trkpt lat="49.42665" lon="-1.23712">
        <ele>21</ele>
        <time>2020-06-15T16:54:31Z</time>
      </trkpt>
      <trkpt lat="49.42665" lon="-1.23717">
        <ele>21.2</ele>
        <time>2020-06-15T16:54:32Z</time>
      </trkpt>
      <trkpt lat="49.42666" lon="-1.23722">
        <ele>21.4</ele>
        <time>2020-06-15T16:54:33Z</time>
      </trkpt>
      <trkpt lat="49.42666" lon="-1.23726">
        <ele>21.4</ele>
        <time>2020-06-15T16:54:34Z</time>
      </trkpt>
      <trkpt lat="49.42667" lon="-1.23731">
        <ele>21.4</ele>
        <time>2020-06-15T16:54:35Z</time>
      </trkpt>
      <trkpt lat="49.42667" lon="-1.23735">
        <ele>21.4</ele>
        <time>2020-06-15T16:54:36Z</time>
      </trkpt>
      <trkpt lat="49.42668" lon="-1.2374">
        <ele>21.3</ele>
        <time>2020-06-15T16:54:37Z</time>
      </trkpt>
      <trkpt lat="49.42668" lon="-1.23744">
        <ele>21.3</ele>
        <time>2020-06-15T16:54:38Z</time>
      </trkpt>
      <trkpt lat="49.42669" lon="-1.23749">
        <ele>21.3</ele>
        <time>2020-06-15T16:54:39Z</time>
      </trkpt>
      <trkpt lat="49.42669" lon="-1.23755">
        <ele>21.2</ele>
        <time>2020-06-15T16:54:40Z</time>
      </trkpt>
      <trkpt lat="49.4267" lon="-1.23758">
        <ele>21.2</ele>
        <time>2020-06-15T16:54:41Z</time>
      </trkpt>
      <trkpt lat="49.4267" lon="-1.23763">
        <ele>21.3</ele>
        <time>2020-06-15T16:54:42Z</time>
      </trkpt>
      <trkpt lat="49.4267" lon="-1.23769">
        <ele>21.3</ele>
        <time>2020-06-15T16:54:43Z</time>
      </trkpt>
      <trkpt lat="49.4267" lon="-1.23774">
        <ele>21.3</ele>
        <time>2020-06-15T16:54:44Z</time>
      </trkpt>
      <trkpt lat="49.42671" lon="-1.2378">
        <ele>21.3</ele>
        <time>2020-06-15T16:54:45Z</time>
      </trkpt>
      <trkpt lat="49.42671" lon="-1.23786">
        <ele>21.4</ele>
        <time>2020-06-15T16:54:46Z</time>
      </trkpt>
      <trkpt lat="49.42672" lon="-1.23792">
        <ele>21.4</ele>
        <time>2020-06-15T16:54:47Z</time>
      </trkpt>
      <trkpt lat="49.42672" lon="-1.23798">
        <ele>21.4</ele>
        <time>2020-06-15T16:54:48Z</time>
      </trkpt>
      <trkpt lat="49.42673" lon="-1.23803">
        <ele>21.4</ele>
        <time>2020-06-15T16:54:49Z</time>
      </trkpt>
      <trkpt lat="49.42674" lon="-1.2381">
        <ele>21.4</ele>
        <time>2020-06-15T16:54:50Z</time>
      </trkpt>
      <trkpt lat="49.42674" lon="-1.23817">
        <ele>21.4</ele>
        <time>2020-06-15T16:54:51Z</time>
      </trkpt>
      <trkpt lat="49.42674" lon="-1.23823">
        <ele>21.4</ele>
        <time>2020-06-15T16:54:52Z</time>
      </trkpt>
      <trkpt lat="49.42672" lon="-1.2383">
        <ele>21.4</ele>
        <time>2020-06-15T16:54:53Z</time>
      </trkpt>
      <trkpt lat="49.42672" lon="-1.23839">
        <ele>21.4</ele>
        <time>2020-06-15T16:54:54Z</time>
      </trkpt>
      <trkpt lat="49.42672" lon="-1.23847">
        <ele>21.4</ele>
        <time>2020-06-15T16:54:55Z</time>
      </trkpt>
      <trkpt lat="49.42672" lon="-1.23855">
        <ele>21.5</ele>
        <time>2020-06-15T16:54:56Z</time>
      </trkpt>
      <trkpt lat="49.42671" lon="-1.23863">
        <ele>21.5</ele>
        <time>2020-06-15T16:54:57Z</time>
      </trkpt>
      <trkpt lat="49.4267" lon="-1.23872">
        <ele>21.5</ele>
        <time>2020-06-15T16:54:58Z</time>
      </trkpt>
      <trkpt lat="49.42669" lon="-1.2388">
        <ele>21.5</ele>
        <time>2020-06-15T16:54:59Z</time>
      </trkpt>
      <trkpt lat="49.42668" lon="-1.23889">
        <ele>21.4</ele>
        <time>2020-06-15T16:55:00Z</time>
      </trkpt>
      <trkpt lat="49.42668" lon="-1.23896">
        <ele>21.4</ele>
        <time>2020-06-15T16:55:01Z</time>
      </trkpt>
      <trkpt lat="49.42668" lon="-1.23904">
        <ele>21.3</ele>
        <time>2020-06-15T16:55:02Z</time>
      </trkpt>
      <trkpt lat="49.42669" lon="-1.23913">
        <ele>21.3</ele>
        <time>2020-06-15T16:55:03Z</time>
      </trkpt>
      <trkpt lat="49.42669" lon="-1.23923">
        <ele>21.3</ele>
        <time>2020-06-15T16:55:04Z</time>
      </trkpt>
      <trkpt lat="49.42669" lon="-1.23932">
        <ele>21.4</ele>
        <time>2020-06-15T16:55:05Z</time>
      </trkpt>
      <trkpt lat="49.42669" lon="-1.23941">
        <ele>21.6</ele>
        <time>2020-06-15T16:55:06Z</time>
      </trkpt>
      <trkpt lat="49.42669" lon="-1.2395">
        <ele>21.7</ele>
        <time>2020-06-15T16:55:07Z</time>
      </trkpt>
      <trkpt lat="49.4267" lon="-1.23959">
        <ele>21.8</ele>
        <time>2020-06-15T16:55:08Z</time>
      </trkpt>
      <trkpt lat="49.42672" lon="-1.23967">
        <ele>21.8</ele>
        <time>2020-06-15T16:55:09Z</time>
      </trkpt>
      <trkpt lat="49.42673" lon="-1.23974">
        <ele>21.8</ele>
        <time>2020-06-15T16:55:10Z</time>
      </trkpt>
      <trkpt lat="49.42673" lon="-1.23982">
        <ele>21.7</ele>
        <time>2020-06-15T16:55:11Z</time>
      </trkpt>
      <trkpt lat="49.42674" lon="-1.23991">
        <ele>21.7</ele>
        <time>2020-06-15T16:55:12Z</time>
      </trkpt>
      <trkpt lat="49.42674" lon="-1.23998">
        <ele>21.7</ele>
        <time>2020-06-15T16:55:13Z</time>
      </trkpt>
      <trkpt lat="49.42675" lon="-1.24006">
        <ele>21.7</ele>
        <time>2020-06-15T16:55:14Z</time>
      </trkpt>
      <trkpt lat="49.42676" lon="-1.24014">
        <ele>21.7</ele>
        <time>2020-06-15T16:55:15Z</time>
      </trkpt>
      <trkpt lat="49.42677" lon="-1.24021">
        <ele>21.8</ele>
        <time>2020-06-15T16:55:16Z</time>
      </trkpt>
      <trkpt lat="49.42677" lon="-1.24029">
        <ele>21.9</ele>
        <time>2020-06-15T16:55:17Z</time>
      </trkpt>
      <trkpt lat="49.42678" lon="-1.24037">
        <ele>21.9</ele>
        <time>2020-06-15T16:55:18Z</time>
      </trkpt>
      <trkpt lat="49.42679" lon="-1.24044">
        <ele>21.9</ele>
        <time>2020-06-15T16:55:19Z</time>
      </trkpt>
      <trkpt lat="49.42679" lon="-1.24052">
        <ele>21.9</ele>
        <time>2020-06-15T16:55:20Z</time>
      </trkpt>
      <trkpt lat="49.4268" lon="-1.24059">
        <ele>21.9</ele>
        <time>2020-06-15T16:55:21Z</time>
      </trkpt>
      <trkpt lat="49.4268" lon="-1.24066">
        <ele>21.9</ele>
        <time>2020-06-15T16:55:22Z</time>
      </trkpt>
      <trkpt lat="49.4268" lon="-1.24073">
        <ele>22</ele>
        <time>2020-06-15T16:55:23Z</time>
      </trkpt>
      <trkpt lat="49.4268" lon="-1.24081">
        <ele>22</ele>
        <time>2020-06-15T16:55:24Z</time>
      </trkpt>
      <trkpt lat="49.4268" lon="-1.24087">
        <ele>22.1</ele>
        <time>2020-06-15T16:55:25Z</time>
      </trkpt>
      <trkpt lat="49.4268" lon="-1.24094">
        <ele>22.2</ele>
        <time>2020-06-15T16:55:26Z</time>
      </trkpt>
      <trkpt lat="49.4268" lon="-1.24101">
        <ele>22.2</ele>
        <time>2020-06-15T16:55:27Z</time>
      </trkpt>
      <trkpt lat="49.4268" lon="-1.24108">
        <ele>22.3</ele>
        <time>2020-06-15T16:55:28Z</time>
      </trkpt>
      <trkpt lat="49.42681" lon="-1.24115">
        <ele>22.3</ele>
        <time>2020-06-15T16:55:29Z</time>
      </trkpt>
      <trkpt lat="49.42682" lon="-1.24123">
        <ele>22.4</ele>
        <time>2020-06-15T16:55:30Z</time>
      </trkpt>
      <trkpt lat="49.42683" lon="-1.24132">
        <ele>22.5</ele>
        <time>2020-06-15T16:55:31Z</time>
      </trkpt>
      <trkpt lat="49.42683" lon="-1.24141">
        <ele>22.6</ele>
        <time>2020-06-15T16:55:32Z</time>
      </trkpt>
      <trkpt lat="49.42683" lon="-1.24149">
        <ele>22.7</ele>
        <time>2020-06-15T16:55:33Z</time>
      </trkpt>
      <trkpt lat="49.42682" lon="-1.24158">
        <ele>22.8</ele>
        <time>2020-06-15T16:55:34Z</time>
      </trkpt>
      <trkpt lat="49.42683" lon="-1.24167">
        <ele>22.9</ele>
        <time>2020-06-15T16:55:35Z</time>
      </trkpt>
      <trkpt lat="49.42684" lon="-1.24175">
        <ele>23</ele>
        <time>2020-06-15T16:55:36Z</time>
      </trkpt>
      <trkpt lat="49.42684" lon="-1.24184">
        <ele>23</ele>
        <time>2020-06-15T16:55:37Z</time>
      </trkpt>
      <trkpt lat="49.42686" lon="-1.24192">
        <ele>23.1</ele>
        <time>2020-06-15T16:55:38Z</time>
      </trkpt>
      <trkpt lat="49.42686" lon="-1.24199">
        <ele>23.2</ele>
        <time>2020-06-15T16:55:39Z</time>
      </trkpt>
      <trkpt lat="49.42686" lon="-1.24206">
        <ele>23.3</ele>
        <time>2020-06-15T16:55:40Z</time>
      </trkpt>
      <trkpt lat="49.42686" lon="-1.24213">
        <ele>23.3</ele>
        <time>2020-06-15T16:55:41Z</time>
      </trkpt>
      <trkpt lat="49.42686" lon="-1.2422">
        <ele>23.4</ele>
        <time>2020-06-15T16:55:42Z</time>
      </trkpt>
      <trkpt lat="49.42686" lon="-1.24228">
        <ele>23.4</ele>
        <time>2020-06-15T16:55:43Z</time>
      </trkpt>
      <trkpt lat="49.42686" lon="-1.24235">
        <ele>23.4</ele>
        <time>2020-06-15T16:55:44Z</time>
      </trkpt>
      <trkpt lat="49.42686" lon="-1.24243">
        <ele>23.4</ele>
        <time>2020-06-15T16:55:45Z</time>
      </trkpt>
      <trkpt lat="49.42685" lon="-1.2425">
        <ele>23.4</ele>
        <time>2020-06-15T16:55:46Z</time>
      </trkpt>
      <trkpt lat="49.42684" lon="-1.24257">
        <ele>23.4</ele>
        <time>2020-06-15T16:55:47Z</time>
      </trkpt>
      <trkpt lat="49.42684" lon="-1.24265">
        <ele>23.4</ele>
        <time>2020-06-15T16:55:48Z</time>
      </trkpt>
      <trkpt lat="49.42683" lon="-1.24273">
        <ele>23.4</ele>
        <time>2020-06-15T16:55:49Z</time>
      </trkpt>
      <trkpt lat="49.42683" lon="-1.24281">
        <ele>23.5</ele>
        <time>2020-06-15T16:55:50Z</time>
      </trkpt>
      <trkpt lat="49.42683" lon="-1.24288">
        <ele>23.5</ele>
        <time>2020-06-15T16:55:51Z</time>
      </trkpt>
      <trkpt lat="49.42682" lon="-1.24296">
        <ele>23.6</ele>
        <time>2020-06-15T16:55:52Z</time>
      </trkpt>
      <trkpt lat="49.42682" lon="-1.24303">
        <ele>23.6</ele>
        <time>2020-06-15T16:55:53Z</time>
      </trkpt>
      <trkpt lat="49.42681" lon="-1.24309">
        <ele>23.6</ele>
        <time>2020-06-15T16:55:54Z</time>
      </trkpt>
      <trkpt lat="49.4268" lon="-1.24316">
        <ele>23.7</ele>
        <time>2020-06-15T16:55:55Z</time>
      </trkpt>
      <trkpt lat="49.4268" lon="-1.24323">
        <ele>23.8</ele>
        <time>2020-06-15T16:55:56Z</time>
      </trkpt>
      <trkpt lat="49.4268" lon="-1.2433">
        <ele>23.8</ele>
        <time>2020-06-15T16:55:57Z</time>
      </trkpt>
      <trkpt lat="49.4268" lon="-1.24337">
        <ele>23.8</ele>
        <time>2020-06-15T16:55:58Z</time>
      </trkpt>
      <trkpt lat="49.42679" lon="-1.24345">
        <ele>23.8</ele>
        <time>2020-06-15T16:55:59Z</time>
      </trkpt>
      <trkpt lat="49.42678" lon="-1.24352">
        <ele>23.9</ele>
        <time>2020-06-15T16:56:00Z</time>
      </trkpt>
      <trkpt lat="49.42678" lon="-1.24359">
        <ele>23.9</ele>
        <time>2020-06-15T16:56:01Z</time>
      </trkpt>
      <trkpt lat="49.42679" lon="-1.24367">
        <ele>23.9</ele>
        <time>2020-06-15T16:56:02Z</time>
      </trkpt>
      <trkpt lat="49.42679" lon="-1.24374">
        <ele>23.9</ele>
        <time>2020-06-15T16:56:03Z</time>
      </trkpt>
      <trkpt lat="49.42679" lon="-1.24381">
        <ele>23.8</ele>
        <time>2020-06-15T16:56:04Z</time>
      </trkpt>
      <trkpt lat="49.42679" lon="-1.24388">
        <ele>23.7</ele>
        <time>2020-06-15T16:56:05Z</time>
      </trkpt>
      <trkpt lat="49.4268" lon="-1.24396">
        <ele>23.6</ele>
        <time>2020-06-15T16:56:06Z</time>
      </trkpt>
      <trkpt lat="49.42681" lon="-1.24404">
        <ele>23.6</ele>
        <time>2020-06-15T16:56:07Z</time>
      </trkpt>
      <trkpt lat="49.42681" lon="-1.24412">
        <ele>23.6</ele>
        <time>2020-06-15T16:56:08Z</time>
      </trkpt>
      <trkpt lat="49.42681" lon="-1.2442">
        <ele>23.6</ele>
        <time>2020-06-15T16:56:09Z</time>
      </trkpt>
      <trkpt lat="49.42681" lon="-1.24429">
        <ele>23.6</ele>
        <time>2020-06-15T16:56:10Z</time>
      </trkpt>
      <trkpt lat="49.42681" lon="-1.24436">
        <ele>23.6</ele>
        <time>2020-06-15T16:56:11Z</time>
      </trkpt>
      <trkpt lat="49.42681" lon="-1.24444">
        <ele>23.6</ele>
        <time>2020-06-15T16:56:12Z</time>
      </trkpt>
      <trkpt lat="49.42681" lon="-1.24453">
        <ele>23.6</ele>
        <time>2020-06-15T16:56:13Z</time>
      </trkpt>
      <trkpt lat="49.4268" lon="-1.24462">
        <ele>23.5</ele>
        <time>2020-06-15T16:56:14Z</time>
      </trkpt>
      <trkpt lat="49.4268" lon="-1.24469">
        <ele>23.4</ele>
        <time>2020-06-15T16:56:15Z</time>
      </trkpt>
      <trkpt lat="49.4268" lon="-1.24477">
        <ele>23.3</ele>
        <time>2020-06-15T16:56:16Z</time>
      </trkpt>
      <trkpt lat="49.4268" lon="-1.24485">
        <ele>23.2</ele>
        <time>2020-06-15T16:56:17Z</time>
      </trkpt>
      <trkpt lat="49.4268" lon="-1.24494">
        <ele>23.1</ele>
        <time>2020-06-15T16:56:18Z</time>
      </trkpt>
      <trkpt lat="49.42679" lon="-1.24504">
        <ele>23.1</ele>
        <time>2020-06-15T16:56:19Z</time>
      </trkpt>
      <trkpt lat="49.42678" lon="-1.24512">
        <ele>23.1</ele>
        <time>2020-06-15T16:56:20Z</time>
      </trkpt>
      <trkpt lat="49.42677" lon="-1.24521">
        <ele>23.1</ele>
        <time>2020-06-15T16:56:21Z</time>
      </trkpt>
      <trkpt lat="49.42676" lon="-1.2453">
        <ele>22.9</ele>
        <time>2020-06-15T16:56:22Z</time>
      </trkpt>
      <trkpt lat="49.42676" lon="-1.24539">
        <ele>22.8</ele>
        <time>2020-06-15T16:56:23Z</time>
      </trkpt>
      <trkpt lat="49.42676" lon="-1.24548">
        <ele>22.8</ele>
        <time>2020-06-15T16:56:24Z</time>
      </trkpt>
      <trkpt lat="49.42676" lon="-1.24557">
        <ele>22.7</ele>
        <time>2020-06-15T16:56:25Z</time>
      </trkpt>
      <trkpt lat="49.42677" lon="-1.24567">
        <ele>22.6</ele>
        <time>2020-06-15T16:56:26Z</time>
      </trkpt>
      <trkpt lat="49.42677" lon="-1.24575">
        <ele>22.5</ele>
        <time>2020-06-15T16:56:27Z</time>
      </trkpt>
      <trkpt lat="49.42678" lon="-1.24584">
        <ele>22.4</ele>
        <time>2020-06-15T16:56:28Z</time>
      </trkpt>
      <trkpt lat="49.42678" lon="-1.24594">
        <ele>22.4</ele>
        <time>2020-06-15T16:56:29Z</time>
      </trkpt>
      <trkpt lat="49.42678" lon="-1.24605">
        <ele>22.4</ele>
        <time>2020-06-15T16:56:30Z</time>
      </trkpt>
      <trkpt lat="49.42677" lon="-1.24615">
        <ele>22.5</ele>
        <time>2020-06-15T16:56:31Z</time>
      </trkpt>
      <trkpt lat="49.42677" lon="-1.24627">
        <ele>22.5</ele>
        <time>2020-06-15T16:56:32Z</time>
      </trkpt>
      <trkpt lat="49.42675" lon="-1.24636">
        <ele>22.5</ele>
        <time>2020-06-15T16:56:33Z</time>
      </trkpt>
      <trkpt lat="49.42671" lon="-1.24649">
        <ele>22.6</ele>
        <time>2020-06-15T16:56:34Z</time>
      </trkpt>
      <trkpt lat="49.42668" lon="-1.24658">
        <ele>22.7</ele>
        <time>2020-06-15T16:56:35Z</time>
      </trkpt>
      <trkpt lat="49.42666" lon="-1.24667">
        <ele>22.8</ele>
        <time>2020-06-15T16:56:36Z</time>
      </trkpt>
      <trkpt lat="49.42664" lon="-1.24674">
        <ele>22.8</ele>
        <time>2020-06-15T16:56:37Z</time>
      </trkpt>
      <trkpt lat="49.42663" lon="-1.2468">
        <ele>22.8</ele>
        <time>2020-06-15T16:56:38Z</time>
      </trkpt>
      <trkpt lat="49.42663" lon="-1.24687">
        <ele>22.8</ele>
        <time>2020-06-15T16:56:39Z</time>
      </trkpt>
      <trkpt lat="49.42663" lon="-1.24695">
        <ele>22.6</ele>
        <time>2020-06-15T16:56:40Z</time>
      </trkpt>
      <trkpt lat="49.42662" lon="-1.24702">
        <ele>22.5</ele>
        <time>2020-06-15T16:56:41Z</time>
      </trkpt>
      <trkpt lat="49.42661" lon="-1.2471">
        <ele>22.3</ele>
        <time>2020-06-15T16:56:42Z</time>
      </trkpt>
      <trkpt lat="49.42659" lon="-1.2472">
        <ele>22.1</ele>
        <time>2020-06-15T16:56:43Z</time>
      </trkpt>
      <trkpt lat="49.42657" lon="-1.24728">
        <ele>21.9</ele>
        <time>2020-06-15T16:56:44Z</time>
      </trkpt>
      <trkpt lat="49.42657" lon="-1.24741">
        <ele>21.6</ele>
        <time>2020-06-15T16:56:45Z</time>
      </trkpt>
      <trkpt lat="49.42656" lon="-1.24751">
        <ele>21.4</ele>
        <time>2020-06-15T16:56:46Z</time>
      </trkpt>
      <trkpt lat="49.42654" lon="-1.24761">
        <ele>21.2</ele>
        <time>2020-06-15T16:56:47Z</time>
      </trkpt>
      <trkpt lat="49.42651" lon="-1.24772">
        <ele>21.1</ele>
        <time>2020-06-15T16:56:48Z</time>
      </trkpt>
      <trkpt lat="49.42647" lon="-1.24783">
        <ele>21.1</ele>
        <time>2020-06-15T16:56:49Z</time>
      </trkpt>
      <trkpt lat="49.42643" lon="-1.24795">
        <ele>21</ele>
        <time>2020-06-15T16:56:50Z</time>
      </trkpt>
      <trkpt lat="49.4264" lon="-1.24806">
        <ele>21.1</ele>
        <time>2020-06-15T16:56:51Z</time>
      </trkpt>
      <trkpt lat="49.42638" lon="-1.24816">
        <ele>21.2</ele>
        <time>2020-06-15T16:56:52Z</time>
      </trkpt>
      <trkpt lat="49.42635" lon="-1.24827">
        <ele>21.3</ele>
        <time>2020-06-15T16:56:53Z</time>
      </trkpt>
      <trkpt lat="49.42633" lon="-1.24838">
        <ele>21.4</ele>
        <time>2020-06-15T16:56:54Z</time>
      </trkpt>
      <trkpt lat="49.42631" lon="-1.24848">
        <ele>21.5</ele>
        <time>2020-06-15T16:56:55Z</time>
      </trkpt>
      <trkpt lat="49.42629" lon="-1.24857">
        <ele>21.5</ele>
        <time>2020-06-15T16:56:56Z</time>
      </trkpt>
      <trkpt lat="49.42627" lon="-1.24867">
        <ele>21.6</ele>
        <time>2020-06-15T16:56:57Z</time>
      </trkpt>
      <trkpt lat="49.42626" lon="-1.24877">
        <ele>21.6</ele>
        <time>2020-06-15T16:56:58Z</time>
      </trkpt>
      <trkpt lat="49.42624" lon="-1.24888">
        <ele>21.7</ele>
        <time>2020-06-15T16:56:59Z</time>
      </trkpt>
      <trkpt lat="49.42623" lon="-1.24897">
        <ele>21.7</ele>
        <time>2020-06-15T16:57:00Z</time>
      </trkpt>
      <trkpt lat="49.42621" lon="-1.24906">
        <ele>21.8</ele>
        <time>2020-06-15T16:57:01Z</time>
      </trkpt>
      <trkpt lat="49.42621" lon="-1.24915">
        <ele>21.8</ele>
        <time>2020-06-15T16:57:02Z</time>
      </trkpt>
      <trkpt lat="49.4262" lon="-1.24923">
        <ele>21.8</ele>
        <time>2020-06-15T16:57:03Z</time>
      </trkpt>
      <trkpt lat="49.42619" lon="-1.24931">
        <ele>21.8</ele>
        <time>2020-06-15T16:57:04Z</time>
      </trkpt>
      <trkpt lat="49.42618" lon="-1.24939">
        <ele>21.8</ele>
        <time>2020-06-15T16:57:05Z</time>
      </trkpt>
      <trkpt lat="49.42616" lon="-1.24947">
        <ele>21.9</ele>
        <time>2020-06-15T16:57:06Z</time>
      </trkpt>
      <trkpt lat="49.42614" lon="-1.24955">
        <ele>21.9</ele>
        <time>2020-06-15T16:57:07Z</time>
      </trkpt>
      <trkpt lat="49.42612" lon="-1.24963">
        <ele>22</ele>
        <time>2020-06-15T16:57:08Z</time>
      </trkpt>
      <trkpt lat="49.42611" lon="-1.24972">
        <ele>22.1</ele>
        <time>2020-06-15T16:57:09Z</time>
      </trkpt>
      <trkpt lat="49.42609" lon="-1.2498">
        <ele>22.1</ele>
        <time>2020-06-15T16:57:10Z</time>
      </trkpt>
      <trkpt lat="49.42608" lon="-1.24988">
        <ele>22.2</ele>
        <time>2020-06-15T16:57:11Z</time>
      </trkpt>
      <trkpt lat="49.42607" lon="-1.24996">
        <ele>22.2</ele>
        <time>2020-06-15T16:57:12Z</time>
      </trkpt>
      <trkpt lat="49.42605" lon="-1.25003">
        <ele>22.3</ele>
        <time>2020-06-15T16:57:13Z</time>
      </trkpt>
      <trkpt lat="49.42602" lon="-1.25012">
        <ele>22.4</ele>
        <time>2020-06-15T16:57:14Z</time>
      </trkpt>
      <trkpt lat="49.426" lon="-1.2502">
        <ele>22.5</ele>
        <time>2020-06-15T16:57:15Z</time>
      </trkpt>
      <trkpt lat="49.42598" lon="-1.25028">
        <ele>22.5</ele>
        <time>2020-06-15T16:57:16Z</time>
      </trkpt>
      <trkpt lat="49.42596" lon="-1.25036">
        <ele>22.4</ele>
        <time>2020-06-15T16:57:17Z</time>
      </trkpt>
      <trkpt lat="49.42593" lon="-1.25044">
        <ele>22.4</ele>
        <time>2020-06-15T16:57:18Z</time>
      </trkpt>
      <trkpt lat="49.42591" lon="-1.25052">
        <ele>22.4</ele>
        <time>2020-06-15T16:57:19Z</time>
      </trkpt>
      <trkpt lat="49.42588" lon="-1.2506">
        <ele>22.4</ele>
        <time>2020-06-15T16:57:20Z</time>
      </trkpt>
      <trkpt lat="49.42585" lon="-1.2507">
        <ele>22.4</ele>
        <time>2020-06-15T16:57:21Z</time>
      </trkpt>
      <trkpt lat="49.42582" lon="-1.25078">
        <ele>22.5</ele>
        <time>2020-06-15T16:57:22Z</time>
      </trkpt>
      <trkpt lat="49.42579" lon="-1.25086">
        <ele>22.5</ele>
        <time>2020-06-15T16:57:23Z</time>
      </trkpt>
      <trkpt lat="49.42575" lon="-1.25095">
        <ele>22.5</ele>
        <time>2020-06-15T16:57:24Z</time>
      </trkpt>
      <trkpt lat="49.42572" lon="-1.25104">
        <ele>22.5</ele>
        <time>2020-06-15T16:57:25Z</time>
      </trkpt>
      <trkpt lat="49.42568" lon="-1.25114">
        <ele>22.5</ele>
        <time>2020-06-15T16:57:26Z</time>
      </trkpt>
      <trkpt lat="49.42564" lon="-1.25124">
        <ele>22.5</ele>
        <time>2020-06-15T16:57:27Z</time>
      </trkpt>
      <trkpt lat="49.4256" lon="-1.25133">
        <ele>22.6</ele>
        <time>2020-06-15T16:57:28Z</time>
      </trkpt>
      <trkpt lat="49.42556" lon="-1.25143">
        <ele>22.7</ele>
        <time>2020-06-15T16:57:29Z</time>
      </trkpt>
      <trkpt lat="49.42551" lon="-1.25152">
        <ele>22.9</ele>
        <time>2020-06-15T16:57:30Z</time>
      </trkpt>
      <trkpt lat="49.42547" lon="-1.25158">
        <ele>23</ele>
        <time>2020-06-15T16:57:31Z</time>
      </trkpt>
      <trkpt lat="49.42543" lon="-1.25167">
        <ele>23.1</ele>
        <time>2020-06-15T16:57:32Z</time>
      </trkpt>
      <trkpt lat="49.42539" lon="-1.25174">
        <ele>23.2</ele>
        <time>2020-06-15T16:57:33Z</time>
      </trkpt>
      <trkpt lat="49.42535" lon="-1.25183">
        <ele>23.2</ele>
        <time>2020-06-15T16:57:34Z</time>
      </trkpt>
      <trkpt lat="49.42531" lon="-1.25191">
        <ele>23.3</ele>
        <time>2020-06-15T16:57:35Z</time>
      </trkpt>
      <trkpt lat="49.42528" lon="-1.25199">
        <ele>23.3</ele>
        <time>2020-06-15T16:57:36Z</time>
      </trkpt>
      <trkpt lat="49.42525" lon="-1.25208">
        <ele>23.3</ele>
        <time>2020-06-15T16:57:37Z</time>
      </trkpt>
      <trkpt lat="49.42522" lon="-1.25217">
        <ele>23.3</ele>
        <time>2020-06-15T16:57:38Z</time>
      </trkpt>
      <trkpt lat="49.4252" lon="-1.25224">
        <ele>23.2</ele>
        <time>2020-06-15T16:57:39Z</time>
      </trkpt>
      <trkpt lat="49.42518" lon="-1.25231">
        <ele>23.2</ele>
        <time>2020-06-15T16:57:40Z</time>
      </trkpt>
      <trkpt lat="49.42515" lon="-1.25237">
        <ele>23.2</ele>
        <time>2020-06-15T16:57:41Z</time>
      </trkpt>
      <trkpt lat="49.42513" lon="-1.25246">
        <ele>23.2</ele>
        <time>2020-06-15T16:57:42Z</time>
      </trkpt>
      <trkpt lat="49.42511" lon="-1.25255">
        <ele>23.3</ele>
        <time>2020-06-15T16:57:43Z</time>
      </trkpt>
      <trkpt lat="49.42508" lon="-1.25264">
        <ele>23.4</ele>
        <time>2020-06-15T16:57:44Z</time>
      </trkpt>
      <trkpt lat="49.42505" lon="-1.25272">
        <ele>23.4</ele>
        <time>2020-06-15T16:57:45Z</time>
      </trkpt>
      <trkpt lat="49.42503" lon="-1.2528">
        <ele>23.5</ele>
        <time>2020-06-15T16:57:46Z</time>
      </trkpt>
      <trkpt lat="49.425" lon="-1.2529">
        <ele>23.6</ele>
        <time>2020-06-15T16:57:47Z</time>
      </trkpt>
      <trkpt lat="49.42499" lon="-1.25297">
        <ele>23.6</ele>
        <time>2020-06-15T16:57:48Z</time>
      </trkpt>
      <trkpt lat="49.42497" lon="-1.25306">
        <ele>23.7</ele>
        <time>2020-06-15T16:57:49Z</time>
      </trkpt>
      <trkpt lat="49.42495" lon="-1.25314">
        <ele>23.8</ele>
        <time>2020-06-15T16:57:50Z</time>
      </trkpt>
      <trkpt lat="49.42494" lon="-1.25322">
        <ele>23.8</ele>
        <time>2020-06-15T16:57:51Z</time>
      </trkpt>
      <trkpt lat="49.42494" lon="-1.2533">
        <ele>23.9</ele>
        <time>2020-06-15T16:57:52Z</time>
      </trkpt>
      <trkpt lat="49.42492" lon="-1.25338">
        <ele>24</ele>
        <time>2020-06-15T16:57:53Z</time>
      </trkpt>
      <trkpt lat="49.42491" lon="-1.25347">
        <ele>24.1</ele>
        <time>2020-06-15T16:57:54Z</time>
      </trkpt>
      <trkpt lat="49.42489" lon="-1.25355">
        <ele>24.2</ele>
        <time>2020-06-15T16:57:55Z</time>
      </trkpt>
      <trkpt lat="49.42487" lon="-1.25365">
        <ele>24.3</ele>
        <time>2020-06-15T16:57:56Z</time>
      </trkpt>
      <trkpt lat="49.42486" lon="-1.25373">
        <ele>24.4</ele>
        <time>2020-06-15T16:57:57Z</time>
      </trkpt>
      <trkpt lat="49.42484" lon="-1.25381">
        <ele>24.4</ele>
        <time>2020-06-15T16:57:58Z</time>
      </trkpt>
      <trkpt lat="49.42483" lon="-1.25391">
        <ele>24.6</ele>
        <time>2020-06-15T16:57:59Z</time>
      </trkpt>
      <trkpt lat="49.42481" lon="-1.25399">
        <ele>24.8</ele>
        <time>2020-06-15T16:58:00Z</time>
      </trkpt>
      <trkpt lat="49.4248" lon="-1.25406">
        <ele>25</ele>
        <time>2020-06-15T16:58:01Z</time>
      </trkpt>
      <trkpt lat="49.42478" lon="-1.25413">
        <ele>25.4</ele>
        <time>2020-06-15T16:58:02Z</time>
      </trkpt>
      <trkpt lat="49.42475" lon="-1.25421">
        <ele>25.8</ele>
        <time>2020-06-15T16:58:03Z</time>
      </trkpt>
      <trkpt lat="49.42473" lon="-1.25428">
        <ele>25.4</ele>
        <time>2020-06-15T16:58:04Z</time>
      </trkpt>
      <trkpt lat="49.4247" lon="-1.25435">
        <ele>25.1</ele>
        <time>2020-06-15T16:58:05Z</time>
      </trkpt>
      <trkpt lat="49.42467" lon="-1.25442">
        <ele>25</ele>
        <time>2020-06-15T16:58:06Z</time>
      </trkpt>
      <trkpt lat="49.42464" lon="-1.2545">
        <ele>25</ele>
        <time>2020-06-15T16:58:07Z</time>
      </trkpt>
      <trkpt lat="49.42461" lon="-1.25456">
        <ele>25</ele>
        <time>2020-06-15T16:58:08Z</time>
      </trkpt>
      <trkpt lat="49.42458" lon="-1.25463">
        <ele>25.2</ele>
        <time>2020-06-15T16:58:09Z</time>
      </trkpt>
      <trkpt lat="49.42456" lon="-1.25471">
        <ele>25.3</ele>
        <time>2020-06-15T16:58:10Z</time>
      </trkpt>
      <trkpt lat="49.42454" lon="-1.25479">
        <ele>25.5</ele>
        <time>2020-06-15T16:58:11Z</time>
      </trkpt>
      <trkpt lat="49.42449" lon="-1.25488">
        <ele>25.7</ele>
        <time>2020-06-15T16:58:12Z</time>
      </trkpt>
      <trkpt lat="49.42445" lon="-1.25496">
        <ele>25.8</ele>
        <time>2020-06-15T16:58:13Z</time>
      </trkpt>
      <trkpt lat="49.4244" lon="-1.25505">
        <ele>26</ele>
        <time>2020-06-15T16:58:14Z</time>
      </trkpt>
      <trkpt lat="49.42437" lon="-1.25513">
        <ele>26.1</ele>
        <time>2020-06-15T16:58:15Z</time>
      </trkpt>
      <trkpt lat="49.42433" lon="-1.2552">
        <ele>26.2</ele>
        <time>2020-06-15T16:58:16Z</time>
      </trkpt>
      <trkpt lat="49.4243" lon="-1.25528">
        <ele>26.4</ele>
        <time>2020-06-15T16:58:17Z</time>
      </trkpt>
      <trkpt lat="49.42427" lon="-1.25535">
        <ele>26.5</ele>
        <time>2020-06-15T16:58:18Z</time>
      </trkpt>
      <trkpt lat="49.42424" lon="-1.25542">
        <ele>26.7</ele>
        <time>2020-06-15T16:58:19Z</time>
      </trkpt>
      <trkpt lat="49.42421" lon="-1.25549">
        <ele>26.8</ele>
        <time>2020-06-15T16:58:20Z</time>
      </trkpt>
      <trkpt lat="49.42418" lon="-1.25558">
        <ele>27</ele>
        <time>2020-06-15T16:58:21Z</time>
      </trkpt>
      <trkpt lat="49.42415" lon="-1.25566">
        <ele>27</ele>
        <time>2020-06-15T16:58:22Z</time>
      </trkpt>
      <trkpt lat="49.42412" lon="-1.25573">
        <ele>27</ele>
        <time>2020-06-15T16:58:23Z</time>
      </trkpt>
      <trkpt lat="49.4241" lon="-1.2558">
        <ele>27</ele>
        <time>2020-06-15T16:58:24Z</time>
      </trkpt>
      <trkpt lat="49.42407" lon="-1.25588">
        <ele>27</ele>
        <time>2020-06-15T16:58:25Z</time>
      </trkpt>
      <trkpt lat="49.42404" lon="-1.25595">
        <ele>27.1</ele>
        <time>2020-06-15T16:58:26Z</time>
      </trkpt>
      <trkpt lat="49.424" lon="-1.25603">
        <ele>27.1</ele>
        <time>2020-06-15T16:58:27Z</time>
      </trkpt>
      <trkpt lat="49.42396" lon="-1.2561">
        <ele>27.1</ele>
        <time>2020-06-15T16:58:28Z</time>
      </trkpt>
      <trkpt lat="49.42393" lon="-1.25618">
        <ele>27.1</ele>
        <time>2020-06-15T16:58:29Z</time>
      </trkpt>
      <trkpt lat="49.4239" lon="-1.25626">
        <ele>27.2</ele>
        <time>2020-06-15T16:58:30Z</time>
      </trkpt>
      <trkpt lat="49.42386" lon="-1.25633">
        <ele>27.3</ele>
        <time>2020-06-15T16:58:31Z</time>
      </trkpt>
      <trkpt lat="49.42383" lon="-1.25641">
        <ele>27.5</ele>
        <time>2020-06-15T16:58:32Z</time>
      </trkpt>
      <trkpt lat="49.4238" lon="-1.25647">
        <ele>27.6</ele>
        <time>2020-06-15T16:58:33Z</time>
      </trkpt>
      <trkpt lat="49.42378" lon="-1.25654">
        <ele>27.6</ele>
        <time>2020-06-15T16:58:34Z</time>
      </trkpt>
      <trkpt lat="49.42375" lon="-1.2566">
        <ele>27.7</ele>
        <time>2020-06-15T16:58:35Z</time>
      </trkpt>
      <trkpt lat="49.42373" lon="-1.25666">
        <ele>27.7</ele>
        <time>2020-06-15T16:58:36Z</time>
      </trkpt>
      <trkpt lat="49.42372" lon="-1.2567">
        <ele>27.7</ele>
        <time>2020-06-15T16:58:37Z</time>
      </trkpt>
      <trkpt lat="49.42369" lon="-1.25675">
        <ele>27.8</ele>
        <time>2020-06-15T16:58:38Z</time>
      </trkpt>
      <trkpt lat="49.42366" lon="-1.25681">
        <ele>27.8</ele>
        <time>2020-06-15T16:58:39Z</time>
      </trkpt>
      <trkpt lat="49.42363" lon="-1.25687">
        <ele>27.9</ele>
        <time>2020-06-15T16:58:40Z</time>
      </trkpt>
      <trkpt lat="49.42359" lon="-1.25692">
        <ele>28</ele>
        <time>2020-06-15T16:58:41Z</time>
      </trkpt>
      <trkpt lat="49.42354" lon="-1.25699">
        <ele>28.1</ele>
        <time>2020-06-15T16:58:42Z</time>
      </trkpt>
      <trkpt lat="49.42349" lon="-1.25706">
        <ele>28.1</ele>
        <time>2020-06-15T16:58:43Z</time>
      </trkpt>
      <trkpt lat="49.42345" lon="-1.25712">
        <ele>28.1</ele>
        <time>2020-06-15T16:58:44Z</time>
      </trkpt>
      <trkpt lat="49.42341" lon="-1.25717">
        <ele>28.1</ele>
        <time>2020-06-15T16:58:45Z</time>
      </trkpt>
      <trkpt lat="49.42337" lon="-1.25723">
        <ele>28.1</ele>
        <time>2020-06-15T16:58:46Z</time>
      </trkpt>
      <trkpt lat="49.42332" lon="-1.2573">
        <ele>28.1</ele>
        <time>2020-06-15T16:58:47Z</time>
      </trkpt>
      <trkpt lat="49.42328" lon="-1.25735">
        <ele>28.1</ele>
        <time>2020-06-15T16:58:48Z</time>
      </trkpt>
      <trkpt lat="49.42324" lon="-1.25742">
        <ele>28.2</ele>
        <time>2020-06-15T16:58:49Z</time>
      </trkpt>
      <trkpt lat="49.4232" lon="-1.25747">
        <ele>28.3</ele>
        <time>2020-06-15T16:58:50Z</time>
      </trkpt>
      <trkpt lat="49.42317" lon="-1.25753">
        <ele>28.4</ele>
        <time>2020-06-15T16:58:51Z</time>
      </trkpt>
      <trkpt lat="49.42314" lon="-1.25758">
        <ele>28.4</ele>
        <time>2020-06-15T16:58:52Z</time>
      </trkpt>
      <trkpt lat="49.42311" lon="-1.25765">
        <ele>28.5</ele>
        <time>2020-06-15T16:58:53Z</time>
      </trkpt>
      <trkpt lat="49.42308" lon="-1.25771">
        <ele>28.5</ele>
        <time>2020-06-15T16:58:54Z</time>
      </trkpt>
      <trkpt lat="49.42305" lon="-1.25778">
        <ele>28.6</ele>
        <time>2020-06-15T16:58:55Z</time>
      </trkpt>
      <trkpt lat="49.42301" lon="-1.25785">
        <ele>28.5</ele>
        <time>2020-06-15T16:58:56Z</time>
      </trkpt>
      <trkpt lat="49.42298" lon="-1.25792">
        <ele>28.5</ele>
        <time>2020-06-15T16:58:57Z</time>
      </trkpt>
      <trkpt lat="49.42295" lon="-1.25797">
        <ele>28.5</ele>
        <time>2020-06-15T16:58:58Z</time>
      </trkpt>
      <trkpt lat="49.42293" lon="-1.25803">
        <ele>28.5</ele>
        <time>2020-06-15T16:58:59Z</time>
      </trkpt>
      <trkpt lat="49.42291" lon="-1.25808">
        <ele>28.5</ele>
        <time>2020-06-15T16:59:00Z</time>
      </trkpt>
      <trkpt lat="49.4229" lon="-1.25813">
        <ele>28.5</ele>
        <time>2020-06-15T16:59:01Z</time>
      </trkpt>
      <trkpt lat="49.42289" lon="-1.25819">
        <ele>28.6</ele>
        <time>2020-06-15T16:59:02Z</time>
      </trkpt>
      <trkpt lat="49.42288" lon="-1.25826">
        <ele>28.7</ele>
        <time>2020-06-15T16:59:03Z</time>
      </trkpt>
      <trkpt lat="49.42286" lon="-1.25833">
        <ele>28.9</ele>
        <time>2020-06-15T16:59:04Z</time>
      </trkpt>
      <trkpt lat="49.42285" lon="-1.2584">
        <ele>29.1</ele>
        <time>2020-06-15T16:59:05Z</time>
      </trkpt>
      <trkpt lat="49.42284" lon="-1.25847">
        <ele>29.3</ele>
        <time>2020-06-15T16:59:06Z</time>
      </trkpt>
      <trkpt lat="49.42283" lon="-1.25852">
        <ele>29.3</ele>
        <time>2020-06-15T16:59:07Z</time>
      </trkpt>
      <trkpt lat="49.42282" lon="-1.25858">
        <ele>29.4</ele>
        <time>2020-06-15T16:59:08Z</time>
      </trkpt>
      <trkpt lat="49.42282" lon="-1.25864">
        <ele>29.4</ele>
        <time>2020-06-15T16:59:09Z</time>
      </trkpt>
      <trkpt lat="49.42282" lon="-1.2587">
        <ele>29.5</ele>
        <time>2020-06-15T16:59:10Z</time>
      </trkpt>
      <trkpt lat="49.42281" lon="-1.25876">
        <ele>29.6</ele>
        <time>2020-06-15T16:59:11Z</time>
      </trkpt>
      <trkpt lat="49.4228" lon="-1.25882">
        <ele>29.6</ele>
        <time>2020-06-15T16:59:12Z</time>
      </trkpt>
      <trkpt lat="49.42279" lon="-1.25889">
        <ele>29.7</ele>
        <time>2020-06-15T16:59:13Z</time>
      </trkpt>
      <trkpt lat="49.42278" lon="-1.25896">
        <ele>29.8</ele>
        <time>2020-06-15T16:59:14Z</time>
      </trkpt>
      <trkpt lat="49.42277" lon="-1.25904">
        <ele>29.7</ele>
        <time>2020-06-15T16:59:15Z</time>
      </trkpt>
      <trkpt lat="49.42276" lon="-1.2591">
        <ele>29.7</ele>
        <time>2020-06-15T16:59:16Z</time>
      </trkpt>
      <trkpt lat="49.42275" lon="-1.25919">
        <ele>29.6</ele>
        <time>2020-06-15T16:59:17Z</time>
      </trkpt>
      <trkpt lat="49.42273" lon="-1.25927">
        <ele>29.6</ele>
        <time>2020-06-15T16:59:18Z</time>
      </trkpt>
      <trkpt lat="49.42272" lon="-1.25935">
        <ele>29.6</ele>
        <time>2020-06-15T16:59:19Z</time>
      </trkpt>
      <trkpt lat="49.4227" lon="-1.25944">
        <ele>29.7</ele>
        <time>2020-06-15T16:59:20Z</time>
      </trkpt>
      <trkpt lat="49.42268" lon="-1.25952">
        <ele>29.8</ele>
        <time>2020-06-15T16:59:21Z</time>
      </trkpt>
      <trkpt lat="49.42267" lon="-1.2596">
        <ele>29.9</ele>
        <time>2020-06-15T16:59:22Z</time>
      </trkpt>
      <trkpt lat="49.42265" lon="-1.25968">
        <ele>30.1</ele>
        <time>2020-06-15T16:59:23Z</time>
      </trkpt>
      <trkpt lat="49.42264" lon="-1.25977">
        <ele>30.2</ele>
        <time>2020-06-15T16:59:24Z</time>
      </trkpt>
      <trkpt lat="49.42262" lon="-1.25987">
        <ele>30.3</ele>
        <time>2020-06-15T16:59:25Z</time>
      </trkpt>
      <trkpt lat="49.42261" lon="-1.25996">
        <ele>30.4</ele>
        <time>2020-06-15T16:59:26Z</time>
      </trkpt>
      <trkpt lat="49.4226" lon="-1.26005">
        <ele>30.5</ele>
        <time>2020-06-15T16:59:27Z</time>
      </trkpt>
      <trkpt lat="49.42259" lon="-1.26012">
        <ele>30.6</ele>
        <time>2020-06-15T16:59:28Z</time>
      </trkpt>
      <trkpt lat="49.42258" lon="-1.2602">
        <ele>30.6</ele>
        <time>2020-06-15T16:59:29Z</time>
      </trkpt>
      <trkpt lat="49.42256" lon="-1.26029">
        <ele>30.7</ele>
        <time>2020-06-15T16:59:30Z</time>
      </trkpt>
      <trkpt lat="49.42255" lon="-1.26037">
        <ele>30.7</ele>
        <time>2020-06-15T16:59:31Z</time>
      </trkpt>
      <trkpt lat="49.42253" lon="-1.26047">
        <ele>30.7</ele>
        <time>2020-06-15T16:59:32Z</time>
      </trkpt>
      <trkpt lat="49.42251" lon="-1.26057">
        <ele>30.7</ele>
        <time>2020-06-15T16:59:33Z</time>
      </trkpt>
      <trkpt lat="49.4225" lon="-1.26066">
        <ele>30.6</ele>
        <time>2020-06-15T16:59:34Z</time>
      </trkpt>
      <trkpt lat="49.42249" lon="-1.26075">
        <ele>30.6</ele>
        <time>2020-06-15T16:59:35Z</time>
      </trkpt>
      <trkpt lat="49.42247" lon="-1.26084">
        <ele>30.5</ele>
        <time>2020-06-15T16:59:36Z</time>
      </trkpt>
      <trkpt lat="49.42245" lon="-1.26094">
        <ele>30.5</ele>
        <time>2020-06-15T16:59:37Z</time>
      </trkpt>
      <trkpt lat="49.42243" lon="-1.26102">
        <ele>30.5</ele>
        <time>2020-06-15T16:59:38Z</time>
      </trkpt>
      <trkpt lat="49.42241" lon="-1.26111">
        <ele>30.5</ele>
        <time>2020-06-15T16:59:39Z</time>
      </trkpt>
      <trkpt lat="49.4224" lon="-1.26119">
        <ele>30.6</ele>
        <time>2020-06-15T16:59:40Z</time>
      </trkpt>
      <trkpt lat="49.42238" lon="-1.26128">
        <ele>30.6</ele>
        <time>2020-06-15T16:59:41Z</time>
      </trkpt>
      <trkpt lat="49.42237" lon="-1.26136">
        <ele>30.6</ele>
        <time>2020-06-15T16:59:42Z</time>
      </trkpt>
      <trkpt lat="49.42236" lon="-1.26146">
        <ele>30.7</ele>
        <time>2020-06-15T16:59:43Z</time>
      </trkpt>
      <trkpt lat="49.42234" lon="-1.26154">
        <ele>30.7</ele>
        <time>2020-06-15T16:59:44Z</time>
      </trkpt>
      <trkpt lat="49.42232" lon="-1.26163">
        <ele>30.8</ele>
        <time>2020-06-15T16:59:45Z</time>
      </trkpt>
      <trkpt lat="49.4223" lon="-1.26171">
        <ele>30.9</ele>
        <time>2020-06-15T16:59:46Z</time>
      </trkpt>
      <trkpt lat="49.42227" lon="-1.26178">
        <ele>31.1</ele>
        <time>2020-06-15T16:59:47Z</time>
      </trkpt>
      <trkpt lat="49.42225" lon="-1.26185">
        <ele>31.2</ele>
        <time>2020-06-15T16:59:48Z</time>
      </trkpt>
      <trkpt lat="49.42224" lon="-1.26191">
        <ele>31.3</ele>
        <time>2020-06-15T16:59:49Z</time>
      </trkpt>
      <trkpt lat="49.42222" lon="-1.26197">
        <ele>31.4</ele>
        <time>2020-06-15T16:59:50Z</time>
      </trkpt>
      <trkpt lat="49.42219" lon="-1.26204">
        <ele>31.5</ele>
        <time>2020-06-15T16:59:51Z</time>
      </trkpt>
      <trkpt lat="49.42217" lon="-1.2621">
        <ele>31.6</ele>
        <time>2020-06-15T16:59:52Z</time>
      </trkpt>
      <trkpt lat="49.42215" lon="-1.26215">
        <ele>31.7</ele>
        <time>2020-06-15T16:59:53Z</time>
      </trkpt>
      <trkpt lat="49.42213" lon="-1.26221">
        <ele>31.7</ele>
        <time>2020-06-15T16:59:54Z</time>
      </trkpt>
      <trkpt lat="49.42211" lon="-1.26227">
        <ele>31.8</ele>
        <time>2020-06-15T16:59:55Z</time>
      </trkpt>
      <trkpt lat="49.42207" lon="-1.26235">
        <ele>31.8</ele>
        <time>2020-06-15T16:59:56Z</time>
      </trkpt>
      <trkpt lat="49.42205" lon="-1.26242">
        <ele>31.9</ele>
        <time>2020-06-15T16:59:57Z</time>
      </trkpt>
      <trkpt lat="49.42202" lon="-1.26249">
        <ele>31.9</ele>
        <time>2020-06-15T16:59:58Z</time>
      </trkpt>
      <trkpt lat="49.42199" lon="-1.26257">
        <ele>31.9</ele>
        <time>2020-06-15T16:59:59Z</time>
      </trkpt>
      <trkpt lat="49.42197" lon="-1.26265">
        <ele>31.9</ele>
        <time>2020-06-15T17:00:00Z</time>
      </trkpt>
      <trkpt lat="49.42195" lon="-1.26272">
        <ele>31.9</ele>
        <time>2020-06-15T17:00:01Z</time>
      </trkpt>
      <trkpt lat="49.42193" lon="-1.2628">
        <ele>31.9</ele>
        <time>2020-06-15T17:00:02Z</time>
      </trkpt>
      <trkpt lat="49.42192" lon="-1.26288">
        <ele>31.9</ele>
        <time>2020-06-15T17:00:03Z</time>
      </trkpt>
      <trkpt lat="49.4219" lon="-1.26296">
        <ele>32</ele>
        <time>2020-06-15T17:00:04Z</time>
      </trkpt>
      <trkpt lat="49.42189" lon="-1.26303">
        <ele>32</ele>
        <time>2020-06-15T17:00:05Z</time>
      </trkpt>
      <trkpt lat="49.42187" lon="-1.26311">
        <ele>32.1</ele>
        <time>2020-06-15T17:00:06Z</time>
      </trkpt>
      <trkpt lat="49.42186" lon="-1.26319">
        <ele>32.1</ele>
        <time>2020-06-15T17:00:07Z</time>
      </trkpt>
      <trkpt lat="49.42186" lon="-1.26329">
        <ele>32.2</ele>
        <time>2020-06-15T17:00:08Z</time>
      </trkpt>
      <trkpt lat="49.42184" lon="-1.26339">
        <ele>32.3</ele>
        <time>2020-06-15T17:00:09Z</time>
      </trkpt>
      <trkpt lat="49.42184" lon="-1.26347">
        <ele>32.3</ele>
        <time>2020-06-15T17:00:10Z</time>
      </trkpt>
      <trkpt lat="49.42183" lon="-1.26355">
        <ele>32.4</ele>
        <time>2020-06-15T17:00:11Z</time>
      </trkpt>
      <trkpt lat="49.42182" lon="-1.26363">
        <ele>32.5</ele>
        <time>2020-06-15T17:00:12Z</time>
      </trkpt>
      <trkpt lat="49.42181" lon="-1.26372">
        <ele>32.7</ele>
        <time>2020-06-15T17:00:13Z</time>
      </trkpt>
      <trkpt lat="49.42179" lon="-1.26381">
        <ele>33</ele>
        <time>2020-06-15T17:00:14Z</time>
      </trkpt>
      <trkpt lat="49.42177" lon="-1.2639">
        <ele>33.2</ele>
        <time>2020-06-15T17:00:15Z</time>
      </trkpt>
      <trkpt lat="49.42176" lon="-1.26398">
        <ele>33.3</ele>
        <time>2020-06-15T17:00:16Z</time>
      </trkpt>
      <trkpt lat="49.42174" lon="-1.26408">
        <ele>33.4</ele>
        <time>2020-06-15T17:00:17Z</time>
      </trkpt>
      <trkpt lat="49.42173" lon="-1.26417">
        <ele>33.5</ele>
        <time>2020-06-15T17:00:18Z</time>
      </trkpt>
      <trkpt lat="49.42172" lon="-1.26427">
        <ele>33.5</ele>
        <time>2020-06-15T17:00:19Z</time>
      </trkpt>
      <trkpt lat="49.42171" lon="-1.26434">
        <ele>33.6</ele>
        <time>2020-06-15T17:00:20Z</time>
      </trkpt>
      <trkpt lat="49.42169" lon="-1.26442">
        <ele>33.7</ele>
        <time>2020-06-15T17:00:21Z</time>
      </trkpt>
      <trkpt lat="49.42167" lon="-1.26448">
        <ele>33.7</ele>
        <time>2020-06-15T17:00:22Z</time>
      </trkpt>
      <trkpt lat="49.42166" lon="-1.26455">
        <ele>33.7</ele>
        <time>2020-06-15T17:00:23Z</time>
      </trkpt>
      <trkpt lat="49.42164" lon="-1.26463">
        <ele>33.8</ele>
        <time>2020-06-15T17:00:24Z</time>
      </trkpt>
      <trkpt lat="49.42163" lon="-1.26471">
        <ele>33.9</ele>
        <time>2020-06-15T17:00:25Z</time>
      </trkpt>
      <trkpt lat="49.42162" lon="-1.26478">
        <ele>34</ele>
        <time>2020-06-15T17:00:26Z</time>
      </trkpt>
      <trkpt lat="49.4216" lon="-1.26486">
        <ele>34</ele>
        <time>2020-06-15T17:00:27Z</time>
      </trkpt>
      <trkpt lat="49.42159" lon="-1.26492">
        <ele>34.1</ele>
        <time>2020-06-15T17:00:28Z</time>
      </trkpt>
      <trkpt lat="49.42157" lon="-1.26499">
        <ele>34.1</ele>
        <time>2020-06-15T17:00:29Z</time>
      </trkpt>
      <trkpt lat="49.42155" lon="-1.26506">
        <ele>34.2</ele>
        <time>2020-06-15T17:00:30Z</time>
      </trkpt>
      <trkpt lat="49.42154" lon="-1.26514">
        <ele>34.2</ele>
        <time>2020-06-15T17:00:31Z</time>
      </trkpt>
      <trkpt lat="49.42152" lon="-1.26521">
        <ele>34.3</ele>
        <time>2020-06-15T17:00:32Z</time>
      </trkpt>
      <trkpt lat="49.4215" lon="-1.26529">
        <ele>34.4</ele>
        <time>2020-06-15T17:00:33Z</time>
      </trkpt>
      <trkpt lat="49.42148" lon="-1.26537">
        <ele>34.4</ele>
        <time>2020-06-15T17:00:34Z</time>
      </trkpt>
      <trkpt lat="49.42145" lon="-1.26547">
        <ele>34.5</ele>
        <time>2020-06-15T17:00:35Z</time>
      </trkpt>
      <trkpt lat="49.42143" lon="-1.26555">
        <ele>34.6</ele>
        <time>2020-06-15T17:00:36Z</time>
      </trkpt>
      <trkpt lat="49.42141" lon="-1.26562">
        <ele>34.8</ele>
        <time>2020-06-15T17:00:37Z</time>
      </trkpt>
      <trkpt lat="49.42139" lon="-1.26567">
        <ele>34.9</ele>
        <time>2020-06-15T17:00:38Z</time>
      </trkpt>
      <trkpt lat="49.42138" lon="-1.26573">
        <ele>35</ele>
        <time>2020-06-15T17:00:39Z</time>
      </trkpt>
      <trkpt lat="49.42136" lon="-1.26577">
        <ele>35</ele>
        <time>2020-06-15T17:00:40Z</time>
      </trkpt>
      <trkpt lat="49.42134" lon="-1.26582">
        <ele>35.1</ele>
        <time>2020-06-15T17:00:41Z</time>
      </trkpt>
      <trkpt lat="49.42132" lon="-1.26587">
        <ele>35.1</ele>
        <time>2020-06-15T17:00:42Z</time>
      </trkpt>
      <trkpt lat="49.4213" lon="-1.26594">
        <ele>35.1</ele>
        <time>2020-06-15T17:00:43Z</time>
      </trkpt>
      <trkpt lat="49.42129" lon="-1.26601">
        <ele>35.2</ele>
        <time>2020-06-15T17:00:44Z</time>
      </trkpt>
      <trkpt lat="49.42128" lon="-1.2661">
        <ele>35.2</ele>
        <time>2020-06-15T17:00:45Z</time>
      </trkpt>
      <trkpt lat="49.42125" lon="-1.26617">
        <ele>35.3</ele>
        <time>2020-06-15T17:00:46Z</time>
      </trkpt>
      <trkpt lat="49.42121" lon="-1.26623">
        <ele>35.3</ele>
        <time>2020-06-15T17:00:47Z</time>
      </trkpt>
      <trkpt lat="49.42118" lon="-1.26629">
        <ele>35.4</ele>
        <time>2020-06-15T17:00:48Z</time>
      </trkpt>
      <trkpt lat="49.42114" lon="-1.26635">
        <ele>35.4</ele>
        <time>2020-06-15T17:00:49Z</time>
      </trkpt>
      <trkpt lat="49.42113" lon="-1.26644">
        <ele>35.5</ele>
        <time>2020-06-15T17:00:50Z</time>
      </trkpt>
      <trkpt lat="49.42111" lon="-1.2665">
        <ele>35.6</ele>
        <time>2020-06-15T17:00:51Z</time>
      </trkpt>
      <trkpt lat="49.42109" lon="-1.26656">
        <ele>35.7</ele>
        <time>2020-06-15T17:00:52Z</time>
      </trkpt>
      <trkpt lat="49.42107" lon="-1.26662">
        <ele>35.7</ele>
        <time>2020-06-15T17:00:53Z</time>
      </trkpt>
      <trkpt lat="49.42105" lon="-1.26669">
        <ele>35.7</ele>
        <time>2020-06-15T17:00:54Z</time>
      </trkpt>
      <trkpt lat="49.42103" lon="-1.26675">
        <ele>35.7</ele>
        <time>2020-06-15T17:00:55Z</time>
      </trkpt>
      <trkpt lat="49.421" lon="-1.26682">
        <ele>35.7</ele>
        <time>2020-06-15T17:00:56Z</time>
      </trkpt>
      <trkpt lat="49.42097" lon="-1.26689">
        <ele>35.7</ele>
        <time>2020-06-15T17:00:57Z</time>
      </trkpt>
      <trkpt lat="49.42095" lon="-1.26697">
        <ele>35.7</ele>
        <time>2020-06-15T17:00:58Z</time>
      </trkpt>
      <trkpt lat="49.42091" lon="-1.26704">
        <ele>35.7</ele>
        <time>2020-06-15T17:00:59Z</time>
      </trkpt>
      <trkpt lat="49.42088" lon="-1.2671">
        <ele>35.7</ele>
        <time>2020-06-15T17:01:00Z</time>
      </trkpt>
      <trkpt lat="49.42085" lon="-1.26716">
        <ele>35.7</ele>
        <time>2020-06-15T17:01:01Z</time>
      </trkpt>
      <trkpt lat="49.42081" lon="-1.26723">
        <ele>35.7</ele>
        <time>2020-06-15T17:01:02Z</time>
      </trkpt>
      <trkpt lat="49.42078" lon="-1.2673">
        <ele>35.7</ele>
        <time>2020-06-15T17:01:03Z</time>
      </trkpt>
      <trkpt lat="49.42074" lon="-1.26738">
        <ele>35.7</ele>
        <time>2020-06-15T17:01:04Z</time>
      </trkpt>
      <trkpt lat="49.4207" lon="-1.26744">
        <ele>35.7</ele>
        <time>2020-06-15T17:01:05Z</time>
      </trkpt>
      <trkpt lat="49.42066" lon="-1.2675">
        <ele>35.8</ele>
        <time>2020-06-15T17:01:06Z</time>
      </trkpt>
      <trkpt lat="49.42062" lon="-1.26755">
        <ele>35.8</ele>
        <time>2020-06-15T17:01:07Z</time>
      </trkpt>
      <trkpt lat="49.42058" lon="-1.26762">
        <ele>35.8</ele>
        <time>2020-06-15T17:01:08Z</time>
      </trkpt>
      <trkpt lat="49.42054" lon="-1.26769">
        <ele>35.7</ele>
        <time>2020-06-15T17:01:09Z</time>
      </trkpt>
      <trkpt lat="49.4205" lon="-1.26776">
        <ele>35.7</ele>
        <time>2020-06-15T17:01:10Z</time>
      </trkpt>
      <trkpt lat="49.42044" lon="-1.26784">
        <ele>35.7</ele>
        <time>2020-06-15T17:01:11Z</time>
      </trkpt>
      <trkpt lat="49.42039" lon="-1.26791">
        <ele>35.6</ele>
        <time>2020-06-15T17:01:12Z</time>
      </trkpt>
      <trkpt lat="49.42035" lon="-1.26798">
        <ele>35.6</ele>
        <time>2020-06-15T17:01:13Z</time>
      </trkpt>
      <trkpt lat="49.42031" lon="-1.26807">
        <ele>35.5</ele>
        <time>2020-06-15T17:01:14Z</time>
      </trkpt>
      <trkpt lat="49.42027" lon="-1.26815">
        <ele>35.5</ele>
        <time>2020-06-15T17:01:15Z</time>
      </trkpt>
      <trkpt lat="49.42023" lon="-1.26822">
        <ele>35.6</ele>
        <time>2020-06-15T17:01:16Z</time>
      </trkpt>
      <trkpt lat="49.4202" lon="-1.26831">
        <ele>35.6</ele>
        <time>2020-06-15T17:01:17Z</time>
      </trkpt>
      <trkpt lat="49.42017" lon="-1.2684">
        <ele>35.7</ele>
        <time>2020-06-15T17:01:18Z</time>
      </trkpt>
      <trkpt lat="49.42015" lon="-1.26846">
        <ele>35.8</ele>
        <time>2020-06-15T17:01:19Z</time>
      </trkpt>
      <trkpt lat="49.42011" lon="-1.26854">
        <ele>35.9</ele>
        <time>2020-06-15T17:01:20Z</time>
      </trkpt>
      <trkpt lat="49.42007" lon="-1.26864">
        <ele>36</ele>
        <time>2020-06-15T17:01:21Z</time>
      </trkpt>
      <trkpt lat="49.42003" lon="-1.26872">
        <ele>36.1</ele>
        <time>2020-06-15T17:01:22Z</time>
      </trkpt>
      <trkpt lat="49.42" lon="-1.26879">
        <ele>36.2</ele>
        <time>2020-06-15T17:01:23Z</time>
      </trkpt>
      <trkpt lat="49.41998" lon="-1.26886">
        <ele>36.2</ele>
        <time>2020-06-15T17:01:24Z</time>
      </trkpt>
      <trkpt lat="49.41997" lon="-1.26892">
        <ele>36.3</ele>
        <time>2020-06-15T17:01:25Z</time>
      </trkpt>
      <trkpt lat="49.41994" lon="-1.26898">
        <ele>36.3</ele>
        <time>2020-06-15T17:01:26Z</time>
      </trkpt>
      <trkpt lat="49.41992" lon="-1.26906">
        <ele>36.4</ele>
        <time>2020-06-15T17:01:27Z</time>
      </trkpt>
      <trkpt lat="49.41989" lon="-1.26913">
        <ele>36.5</ele>
        <time>2020-06-15T17:01:28Z</time>
      </trkpt>
      <trkpt lat="49.41985" lon="-1.26921">
        <ele>36.7</ele>
        <time>2020-06-15T17:01:29Z</time>
      </trkpt>
      <trkpt lat="49.41981" lon="-1.26928">
        <ele>36.9</ele>
        <time>2020-06-15T17:01:30Z</time>
      </trkpt>
      <trkpt lat="49.41976" lon="-1.26935">
        <ele>36.9</ele>
        <time>2020-06-15T17:01:31Z</time>
      </trkpt>
      <trkpt lat="49.41971" lon="-1.26941">
        <ele>36.9</ele>
        <time>2020-06-15T17:01:32Z</time>
      </trkpt>
      <trkpt lat="49.41965" lon="-1.26948">
        <ele>36.9</ele>
        <time>2020-06-15T17:01:33Z</time>
      </trkpt>
      <trkpt lat="49.4196" lon="-1.26955">
        <ele>36.9</ele>
        <time>2020-06-15T17:01:34Z</time>
      </trkpt>
      <trkpt lat="49.41957" lon="-1.2696">
        <ele>36.9</ele>
        <time>2020-06-15T17:01:35Z</time>
      </trkpt>
      <trkpt lat="49.41954" lon="-1.26966">
        <ele>36.9</ele>
        <time>2020-06-15T17:01:36Z</time>
      </trkpt>
      <trkpt lat="49.4195" lon="-1.26971">
        <ele>36.9</ele>
        <time>2020-06-15T17:01:37Z</time>
      </trkpt>
      <trkpt lat="49.41944" lon="-1.26978">
        <ele>36.8</ele>
        <time>2020-06-15T17:01:38Z</time>
      </trkpt>
      <trkpt lat="49.4194" lon="-1.26983">
        <ele>36.8</ele>
        <time>2020-06-15T17:01:39Z</time>
      </trkpt>
      <trkpt lat="49.41934" lon="-1.26989">
        <ele>36.8</ele>
        <time>2020-06-15T17:01:40Z</time>
      </trkpt>
      <trkpt lat="49.41928" lon="-1.26995">
        <ele>36.7</ele>
        <time>2020-06-15T17:01:41Z</time>
      </trkpt>
      <trkpt lat="49.41922" lon="-1.27001">
        <ele>36.7</ele>
        <time>2020-06-15T17:01:42Z</time>
      </trkpt>
      <trkpt lat="49.41916" lon="-1.27006">
        <ele>36.8</ele>
        <time>2020-06-15T17:01:43Z</time>
      </trkpt>
      <trkpt lat="49.41911" lon="-1.27011">
        <ele>36.7</ele>
        <time>2020-06-15T17:01:44Z</time>
      </trkpt>
      <trkpt lat="49.41906" lon="-1.27016">
        <ele>36.6</ele>
        <time>2020-06-15T17:01:45Z</time>
      </trkpt>
      <trkpt lat="49.419" lon="-1.27022">
        <ele>36.5</ele>
        <time>2020-06-15T17:01:46Z</time>
      </trkpt>
      <trkpt lat="49.41895" lon="-1.27028">
        <ele>36.4</ele>
        <time>2020-06-15T17:01:47Z</time>
      </trkpt>
      <trkpt lat="49.4189" lon="-1.27035">
        <ele>36.3</ele>
        <time>2020-06-15T17:01:48Z</time>
      </trkpt>
      <trkpt lat="49.41885" lon="-1.27042">
        <ele>36.1</ele>
        <time>2020-06-15T17:01:49Z</time>
      </trkpt>
      <trkpt lat="49.41879" lon="-1.2705">
        <ele>35.8</ele>
        <time>2020-06-15T17:01:50Z</time>
      </trkpt>
      <trkpt lat="49.41873" lon="-1.27057">
        <ele>35.6</ele>
        <time>2020-06-15T17:01:51Z</time>
      </trkpt>
      <trkpt lat="49.41867" lon="-1.27063">
        <ele>35.4</ele>
        <time>2020-06-15T17:01:52Z</time>
      </trkpt>
      <trkpt lat="49.41861" lon="-1.2707">
        <ele>35.2</ele>
        <time>2020-06-15T17:01:53Z</time>
      </trkpt>
      <trkpt lat="49.41856" lon="-1.27077">
        <ele>34.9</ele>
        <time>2020-06-15T17:01:54Z</time>
      </trkpt>
      <trkpt lat="49.4185" lon="-1.27085">
        <ele>34.6</ele>
        <time>2020-06-15T17:01:55Z</time>
      </trkpt>
      <trkpt lat="49.41843" lon="-1.27095">
        <ele>34.5</ele>
        <time>2020-06-15T17:01:56Z</time>
      </trkpt>
      <trkpt lat="49.41836" lon="-1.27104">
        <ele>34.4</ele>
        <time>2020-06-15T17:01:57Z</time>
      </trkpt>
      <trkpt lat="49.4183" lon="-1.27114">
        <ele>34.3</ele>
        <time>2020-06-15T17:01:58Z</time>
      </trkpt>
      <trkpt lat="49.41824" lon="-1.27123">
        <ele>34.2</ele>
        <time>2020-06-15T17:01:59Z</time>
      </trkpt>
      <trkpt lat="49.41818" lon="-1.27131">
        <ele>34.1</ele>
        <time>2020-06-15T17:02:00Z</time>
      </trkpt>
      <trkpt lat="49.41814" lon="-1.27139">
        <ele>34.1</ele>
        <time>2020-06-15T17:02:01Z</time>
      </trkpt>
      <trkpt lat="49.41808" lon="-1.27147">
        <ele>34.1</ele>
        <time>2020-06-15T17:02:02Z</time>
      </trkpt>
      <trkpt lat="49.41803" lon="-1.27154">
        <ele>34.1</ele>
        <time>2020-06-15T17:02:03Z</time>
      </trkpt>
      <trkpt lat="49.418" lon="-1.2716">
        <ele>33.9</ele>
        <time>2020-06-15T17:02:04Z</time>
      </trkpt>
      <trkpt lat="49.41798" lon="-1.27168">
        <ele>33.3</ele>
        <time>2020-06-15T17:02:05Z</time>
      </trkpt>
      <trkpt lat="49.41797" lon="-1.27174">
        <ele>33.3</ele>
        <time>2020-06-15T17:02:06Z</time>
      </trkpt>
      <trkpt lat="49.41798" lon="-1.2718">
        <ele>33.3</ele>
        <time>2020-06-15T17:02:07Z</time>
      </trkpt>
      <trkpt lat="49.418" lon="-1.27187">
        <ele>33.3</ele>
        <time>2020-06-15T17:02:08Z</time>
      </trkpt>
      <trkpt lat="49.41801" lon="-1.27194">
        <ele>33.3</ele>
        <time>2020-06-15T17:02:09Z</time>
      </trkpt>
      <trkpt lat="49.41803" lon="-1.27202">
        <ele>33.3</ele>
        <time>2020-06-15T17:02:10Z</time>
      </trkpt>
      <trkpt lat="49.41806" lon="-1.27209">
        <ele>33.3</ele>
        <time>2020-06-15T17:02:11Z</time>
      </trkpt>
      <trkpt lat="49.41809" lon="-1.27218">
        <ele>33.4</ele>
        <time>2020-06-15T17:02:12Z</time>
      </trkpt>
      <trkpt lat="49.41812" lon="-1.27227">
        <ele>33.5</ele>
        <time>2020-06-15T17:02:13Z</time>
      </trkpt>
      <trkpt lat="49.41816" lon="-1.27235">
        <ele>33.6</ele>
        <time>2020-06-15T17:02:14Z</time>
      </trkpt>
      <trkpt lat="49.41821" lon="-1.27244">
        <ele>33.7</ele>
        <time>2020-06-15T17:02:15Z</time>
      </trkpt>
      <trkpt lat="49.41825" lon="-1.27252">
        <ele>33.8</ele>
        <time>2020-06-15T17:02:16Z</time>
      </trkpt>
      <trkpt lat="49.41829" lon="-1.27261">
        <ele>34</ele>
        <time>2020-06-15T17:02:17Z</time>
      </trkpt>
      <trkpt lat="49.41832" lon="-1.27269">
        <ele>34.1</ele>
        <time>2020-06-15T17:02:18Z</time>
      </trkpt>
      <trkpt lat="49.41836" lon="-1.27276">
        <ele>34.2</ele>
        <time>2020-06-15T17:02:19Z</time>
      </trkpt>
      <trkpt lat="49.41839" lon="-1.27283">
        <ele>34.3</ele>
        <time>2020-06-15T17:02:20Z</time>
      </trkpt>
      <trkpt lat="49.41841" lon="-1.27289">
        <ele>34.4</ele>
        <time>2020-06-15T17:02:21Z</time>
      </trkpt>
      <trkpt lat="49.41844" lon="-1.27295">
        <ele>34.6</ele>
        <time>2020-06-15T17:02:22Z</time>
      </trkpt>
      <trkpt lat="49.41847" lon="-1.27301">
        <ele>34.8</ele>
        <time>2020-06-15T17:02:23Z</time>
      </trkpt>
      <trkpt lat="49.41849" lon="-1.27307">
        <ele>34.9</ele>
        <time>2020-06-15T17:02:24Z</time>
      </trkpt>
      <trkpt lat="49.41851" lon="-1.27314">
        <ele>35.1</ele>
        <time>2020-06-15T17:02:25Z</time>
      </trkpt>
      <trkpt lat="49.41854" lon="-1.2732">
        <ele>35.3</ele>
        <time>2020-06-15T17:02:26Z</time>
      </trkpt>
      <trkpt lat="49.41858" lon="-1.27328">
        <ele>35.5</ele>
        <time>2020-06-15T17:02:27Z</time>
      </trkpt>
      <trkpt lat="49.41862" lon="-1.27335">
        <ele>35.6</ele>
        <time>2020-06-15T17:02:28Z</time>
      </trkpt>
      <trkpt lat="49.41865" lon="-1.27341">
        <ele>35.8</ele>
        <time>2020-06-15T17:02:29Z</time>
      </trkpt>
      <trkpt lat="49.41868" lon="-1.27347">
        <ele>35.9</ele>
        <time>2020-06-15T17:02:30Z</time>
      </trkpt>
      <trkpt lat="49.41872" lon="-1.27355">
        <ele>36.1</ele>
        <time>2020-06-15T17:02:31Z</time>
      </trkpt>
      <trkpt lat="49.41877" lon="-1.27361">
        <ele>36.3</ele>
        <time>2020-06-15T17:02:32Z</time>
      </trkpt>
      <trkpt lat="49.41882" lon="-1.27369">
        <ele>36.5</ele>
        <time>2020-06-15T17:02:33Z</time>
      </trkpt>
      <trkpt lat="49.41884" lon="-1.27375">
        <ele>36.6</ele>
        <time>2020-06-15T17:02:34Z</time>
      </trkpt>
      <trkpt lat="49.41887" lon="-1.27383">
        <ele>36.8</ele>
        <time>2020-06-15T17:02:35Z</time>
      </trkpt>
      <trkpt lat="49.41891" lon="-1.27389">
        <ele>37</ele>
        <time>2020-06-15T17:02:36Z</time>
      </trkpt>
      <trkpt lat="49.41894" lon="-1.27396">
        <ele>37.2</ele>
        <time>2020-06-15T17:02:37Z</time>
      </trkpt>
      <trkpt lat="49.41899" lon="-1.27403">
        <ele>37.4</ele>
        <time>2020-06-15T17:02:38Z</time>
      </trkpt>
      <trkpt lat="49.41901" lon="-1.27409">
        <ele>37.6</ele>
        <time>2020-06-15T17:02:39Z</time>
      </trkpt>
      <trkpt lat="49.41903" lon="-1.27415">
        <ele>37.8</ele>
        <time>2020-06-15T17:02:40Z</time>
      </trkpt>
      <trkpt lat="49.41906" lon="-1.27422">
        <ele>38</ele>
        <time>2020-06-15T17:02:41Z</time>
      </trkpt>
      <trkpt lat="49.41909" lon="-1.27429">
        <ele>38.1</ele>
        <time>2020-06-15T17:02:42Z</time>
      </trkpt>
      <trkpt lat="49.41912" lon="-1.27436">
        <ele>38.3</ele>
        <time>2020-06-15T17:02:43Z</time>
      </trkpt>
      <trkpt lat="49.41916" lon="-1.27443">
        <ele>38.4</ele>
        <time>2020-06-15T17:02:44Z</time>
      </trkpt>
      <trkpt lat="49.41919" lon="-1.27451">
        <ele>38.6</ele>
        <time>2020-06-15T17:02:45Z</time>
      </trkpt>
      <trkpt lat="49.41922" lon="-1.27458">
        <ele>38.7</ele>
        <time>2020-06-15T17:02:46Z</time>
      </trkpt>
      <trkpt lat="49.41924" lon="-1.27464">
        <ele>38.8</ele>
        <time>2020-06-15T17:02:47Z</time>
      </trkpt>
      <trkpt lat="49.41927" lon="-1.27471">
        <ele>38.9</ele>
        <time>2020-06-15T17:02:48Z</time>
      </trkpt>
      <trkpt lat="49.4193" lon="-1.27477">
        <ele>39</ele>
        <time>2020-06-15T17:02:49Z</time>
      </trkpt>
      <trkpt lat="49.41933" lon="-1.27483">
        <ele>39.1</ele>
        <time>2020-06-15T17:02:50Z</time>
      </trkpt>
      <trkpt lat="49.41935" lon="-1.2749">
        <ele>39.2</ele>
        <time>2020-06-15T17:02:51Z</time>
      </trkpt>
      <trkpt lat="49.41938" lon="-1.27496">
        <ele>39.3</ele>
        <time>2020-06-15T17:02:52Z</time>
      </trkpt>
      <trkpt lat="49.41941" lon="-1.27502">
        <ele>39.3</ele>
        <time>2020-06-15T17:02:53Z</time>
      </trkpt>
      <trkpt lat="49.41943" lon="-1.27509">
        <ele>39.4</ele>
        <time>2020-06-15T17:02:54Z</time>
      </trkpt>
      <trkpt lat="49.41946" lon="-1.27516">
        <ele>39.5</ele>
        <time>2020-06-15T17:02:55Z</time>
      </trkpt>
      <trkpt lat="49.41949" lon="-1.27523">
        <ele>39.6</ele>
        <time>2020-06-15T17:02:56Z</time>
      </trkpt>
      <trkpt lat="49.41951" lon="-1.2753">
        <ele>39.6</ele>
        <time>2020-06-15T17:02:57Z</time>
      </trkpt>
      <trkpt lat="49.41954" lon="-1.27538">
        <ele>39.6</ele>
        <time>2020-06-15T17:02:58Z</time>
      </trkpt>
      <trkpt lat="49.41956" lon="-1.27544">
        <ele>39.6</ele>
        <time>2020-06-15T17:02:59Z</time>
      </trkpt>
      <trkpt lat="49.41959" lon="-1.27551">
        <ele>39.6</ele>
        <time>2020-06-15T17:03:00Z</time>
      </trkpt>
      <trkpt lat="49.41962" lon="-1.27557">
        <ele>39.6</ele>
        <time>2020-06-15T17:03:01Z</time>
      </trkpt>
      <trkpt lat="49.41965" lon="-1.27564">
        <ele>39.6</ele>
        <time>2020-06-15T17:03:02Z</time>
      </trkpt>
      <trkpt lat="49.41967" lon="-1.2757">
        <ele>39.6</ele>
        <time>2020-06-15T17:03:03Z</time>
      </trkpt>
      <trkpt lat="49.4197" lon="-1.27576">
        <ele>39.6</ele>
        <time>2020-06-15T17:03:04Z</time>
      </trkpt>
      <trkpt lat="49.41973" lon="-1.27582">
        <ele>39.5</ele>
        <time>2020-06-15T17:03:05Z</time>
      </trkpt>
      <trkpt lat="49.41976" lon="-1.27589">
        <ele>39.5</ele>
        <time>2020-06-15T17:03:06Z</time>
      </trkpt>
      <trkpt lat="49.41979" lon="-1.27597">
        <ele>39.4</ele>
        <time>2020-06-15T17:03:07Z</time>
      </trkpt>
      <trkpt lat="49.41982" lon="-1.27605">
        <ele>39.2</ele>
        <time>2020-06-15T17:03:08Z</time>
      </trkpt>
      <trkpt lat="49.41986" lon="-1.27612">
        <ele>39.1</ele>
        <time>2020-06-15T17:03:09Z</time>
      </trkpt>
      <trkpt lat="49.4199" lon="-1.27618">
        <ele>39</ele>
        <time>2020-06-15T17:03:10Z</time>
      </trkpt>
      <trkpt lat="49.41995" lon="-1.27625">
        <ele>38.9</ele>
        <time>2020-06-15T17:03:11Z</time>
      </trkpt>
      <trkpt lat="49.42" lon="-1.27631">
        <ele>38.8</ele>
        <time>2020-06-15T17:03:12Z</time>
      </trkpt>
      <trkpt lat="49.42004" lon="-1.27637">
        <ele>38.7</ele>
        <time>2020-06-15T17:03:13Z</time>
      </trkpt>
      <trkpt lat="49.42009" lon="-1.27644">
        <ele>38.7</ele>
        <time>2020-06-15T17:03:14Z</time>
      </trkpt>
      <trkpt lat="49.42012" lon="-1.27652">
        <ele>38.5</ele>
        <time>2020-06-15T17:03:15Z</time>
      </trkpt>
      <trkpt lat="49.42017" lon="-1.27659">
        <ele>38.3</ele>
        <time>2020-06-15T17:03:16Z</time>
      </trkpt>
      <trkpt lat="49.42022" lon="-1.27666">
        <ele>38.3</ele>
        <time>2020-06-15T17:03:17Z</time>
      </trkpt>
      <trkpt lat="49.42025" lon="-1.27674">
        <ele>38.3</ele>
        <time>2020-06-15T17:03:18Z</time>
      </trkpt>
      <trkpt lat="49.42029" lon="-1.27681">
        <ele>38.2</ele>
        <time>2020-06-15T17:03:19Z</time>
      </trkpt>
      <trkpt lat="49.42033" lon="-1.27688">
        <ele>38.2</ele>
        <time>2020-06-15T17:03:20Z</time>
      </trkpt>
      <trkpt lat="49.42038" lon="-1.27695">
        <ele>38.2</ele>
        <time>2020-06-15T17:03:21Z</time>
      </trkpt>
      <trkpt lat="49.42042" lon="-1.27701">
        <ele>38.1</ele>
        <time>2020-06-15T17:03:22Z</time>
      </trkpt>
      <trkpt lat="49.42046" lon="-1.27707">
        <ele>38</ele>
        <time>2020-06-15T17:03:23Z</time>
      </trkpt>
      <trkpt lat="49.4205" lon="-1.27713">
        <ele>38</ele>
        <time>2020-06-15T17:03:24Z</time>
      </trkpt>
      <trkpt lat="49.42055" lon="-1.27719">
        <ele>37.9</ele>
        <time>2020-06-15T17:03:25Z</time>
      </trkpt>
      <trkpt lat="49.42059" lon="-1.27726">
        <ele>37.9</ele>
        <time>2020-06-15T17:03:26Z</time>
      </trkpt>
      <trkpt lat="49.42064" lon="-1.27732">
        <ele>37.8</ele>
        <time>2020-06-15T17:03:27Z</time>
      </trkpt>
      <trkpt lat="49.42067" lon="-1.27738">
        <ele>37.8</ele>
        <time>2020-06-15T17:03:28Z</time>
      </trkpt>
      <trkpt lat="49.42071" lon="-1.27743">
        <ele>37.7</ele>
        <time>2020-06-15T17:03:29Z</time>
      </trkpt>
      <trkpt lat="49.42075" lon="-1.27749">
        <ele>37.6</ele>
        <time>2020-06-15T17:03:30Z</time>
      </trkpt>
      <trkpt lat="49.42078" lon="-1.27755">
        <ele>37.6</ele>
        <time>2020-06-15T17:03:31Z</time>
      </trkpt>
      <trkpt lat="49.42081" lon="-1.2776">
        <ele>37.5</ele>
        <time>2020-06-15T17:03:32Z</time>
      </trkpt>
      <trkpt lat="49.42084" lon="-1.27767">
        <ele>37.5</ele>
        <time>2020-06-15T17:03:33Z</time>
      </trkpt>
      <trkpt lat="49.42085" lon="-1.27774">
        <ele>37.4</ele>
        <time>2020-06-15T17:03:34Z</time>
      </trkpt>
      <trkpt lat="49.42086" lon="-1.27782">
        <ele>37.1</ele>
        <time>2020-06-15T17:03:35Z</time>
      </trkpt>
      <trkpt lat="49.42086" lon="-1.27788">
        <ele>37.1</ele>
        <time>2020-06-15T17:03:36Z</time>
      </trkpt>
      <trkpt lat="49.42084" lon="-1.27793">
        <ele>37.1</ele>
        <time>2020-06-15T17:03:37Z</time>
      </trkpt>
      <trkpt lat="49.42081" lon="-1.27799">
        <ele>37.1</ele>
        <time>2020-06-15T17:03:38Z</time>
      </trkpt>
      <trkpt lat="49.42079" lon="-1.27805">
        <ele>37.1</ele>
        <time>2020-06-15T17:03:39Z</time>
      </trkpt>
      <trkpt lat="49.42077" lon="-1.2781">
        <ele>37.1</ele>
        <time>2020-06-15T17:03:40Z</time>
      </trkpt>
      <trkpt lat="49.42074" lon="-1.27816">
        <ele>37.2</ele>
        <time>2020-06-15T17:03:41Z</time>
      </trkpt>
      <trkpt lat="49.42071" lon="-1.27822">
        <ele>37.2</ele>
        <time>2020-06-15T17:03:42Z</time>
      </trkpt>
      <trkpt lat="49.42068" lon="-1.27827">
        <ele>37.2</ele>
        <time>2020-06-15T17:03:43Z</time>
      </trkpt>
      <trkpt lat="49.42065" lon="-1.27832">
        <ele>37.2</ele>
        <time>2020-06-15T17:03:44Z</time>
      </trkpt>
      <trkpt lat="49.42062" lon="-1.27838">
        <ele>37.2</ele>
        <time>2020-06-15T17:03:45Z</time>
      </trkpt>
      <trkpt lat="49.4206" lon="-1.27846">
        <ele>37.3</ele>
        <time>2020-06-15T17:03:46Z</time>
      </trkpt>
      <trkpt lat="49.42056" lon="-1.27852">
        <ele>37.3</ele>
        <time>2020-06-15T17:03:47Z</time>
      </trkpt>
      <trkpt lat="49.42053" lon="-1.27858">
        <ele>37.3</ele>
        <time>2020-06-15T17:03:48Z</time>
      </trkpt>
      <trkpt lat="49.42049" lon="-1.27864">
        <ele>37.3</ele>
        <time>2020-06-15T17:03:49Z</time>
      </trkpt>
      <trkpt lat="49.42047" lon="-1.27871">
        <ele>37.3</ele>
        <time>2020-06-15T17:03:50Z</time>
      </trkpt>
      <trkpt lat="49.42044" lon="-1.27877">
        <ele>37.4</ele>
        <time>2020-06-15T17:03:51Z</time>
      </trkpt>
      <trkpt lat="49.4204" lon="-1.27884">
        <ele>37.4</ele>
        <time>2020-06-15T17:03:52Z</time>
      </trkpt>
      <trkpt lat="49.42038" lon="-1.2789">
        <ele>37.4</ele>
        <time>2020-06-15T17:03:53Z</time>
      </trkpt>
      <trkpt lat="49.42036" lon="-1.27897">
        <ele>37.4</ele>
        <time>2020-06-15T17:03:54Z</time>
      </trkpt>
      <trkpt lat="49.42033" lon="-1.27903">
        <ele>37.4</ele>
        <time>2020-06-15T17:03:55Z</time>
      </trkpt>
      <trkpt lat="49.4203" lon="-1.27909">
        <ele>37.5</ele>
        <time>2020-06-15T17:03:56Z</time>
      </trkpt>
      <trkpt lat="49.42027" lon="-1.27915">
        <ele>37.5</ele>
        <time>2020-06-15T17:03:57Z</time>
      </trkpt>
      <trkpt lat="49.42024" lon="-1.27921">
        <ele>37.5</ele>
        <time>2020-06-15T17:03:58Z</time>
      </trkpt>
      <trkpt lat="49.42021" lon="-1.27927">
        <ele>37.5</ele>
        <time>2020-06-15T17:03:59Z</time>
      </trkpt>
      <trkpt lat="49.42018" lon="-1.27933">
        <ele>37.5</ele>
        <time>2020-06-15T17:04:00Z</time>
      </trkpt>
      <trkpt lat="49.42015" lon="-1.27941">
        <ele>37.5</ele>
        <time>2020-06-15T17:04:01Z</time>
      </trkpt>
      <trkpt lat="49.42012" lon="-1.27949">
        <ele>37.6</ele>
        <time>2020-06-15T17:04:02Z</time>
      </trkpt>
      <trkpt lat="49.42008" lon="-1.27957">
        <ele>37.6</ele>
        <time>2020-06-15T17:04:03Z</time>
      </trkpt>
      <trkpt lat="49.42005" lon="-1.27965">
        <ele>37.6</ele>
        <time>2020-06-15T17:04:04Z</time>
      </trkpt>
      <trkpt lat="49.42001" lon="-1.27972">
        <ele>37.6</ele>
        <time>2020-06-15T17:04:05Z</time>
      </trkpt>
      <trkpt lat="49.41998" lon="-1.27979">
        <ele>37.6</ele>
        <time>2020-06-15T17:04:06Z</time>
      </trkpt>
      <trkpt lat="49.41995" lon="-1.27987">
        <ele>37.6</ele>
        <time>2020-06-15T17:04:07Z</time>
      </trkpt>
      <trkpt lat="49.41991" lon="-1.27994">
        <ele>37.6</ele>
        <time>2020-06-15T17:04:08Z</time>
      </trkpt>
      <trkpt lat="49.41986" lon="-1.28003">
        <ele>37.7</ele>
        <time>2020-06-15T17:04:09Z</time>
      </trkpt>
      <trkpt lat="49.41982" lon="-1.28013">
        <ele>37.7</ele>
        <time>2020-06-15T17:04:10Z</time>
      </trkpt>
      <trkpt lat="49.41978" lon="-1.28021">
        <ele>37.7</ele>
        <time>2020-06-15T17:04:11Z</time>
      </trkpt>
      <trkpt lat="49.41975" lon="-1.2803">
        <ele>37.7</ele>
        <time>2020-06-15T17:04:12Z</time>
      </trkpt>
      <trkpt lat="49.41971" lon="-1.28039">
        <ele>37.7</ele>
        <time>2020-06-15T17:04:13Z</time>
      </trkpt>
      <trkpt lat="49.41967" lon="-1.28046">
        <ele>37.7</ele>
        <time>2020-06-15T17:04:14Z</time>
      </trkpt>
      <trkpt lat="49.41963" lon="-1.28054">
        <ele>37.7</ele>
        <time>2020-06-15T17:04:15Z</time>
      </trkpt>
      <trkpt lat="49.41959" lon="-1.28062">
        <ele>37.7</ele>
        <time>2020-06-15T17:04:16Z</time>
      </trkpt>
      <trkpt lat="49.41956" lon="-1.2807">
        <ele>37.7</ele>
        <time>2020-06-15T17:04:17Z</time>
      </trkpt>
      <trkpt lat="49.41952" lon="-1.2808">
        <ele>37.7</ele>
        <time>2020-06-15T17:04:18Z</time>
      </trkpt>
      <trkpt lat="49.41949" lon="-1.28089">
        <ele>37.7</ele>
        <time>2020-06-15T17:04:19Z</time>
      </trkpt>
      <trkpt lat="49.41945" lon="-1.28099">
        <ele>37.7</ele>
        <time>2020-06-15T17:04:20Z</time>
      </trkpt>
      <trkpt lat="49.41941" lon="-1.28109">
        <ele>37.7</ele>
        <time>2020-06-15T17:04:21Z</time>
      </trkpt>
      <trkpt lat="49.41938" lon="-1.28119">
        <ele>37.7</ele>
        <time>2020-06-15T17:04:22Z</time>
      </trkpt>
      <trkpt lat="49.41936" lon="-1.2813">
        <ele>37.7</ele>
        <time>2020-06-15T17:04:23Z</time>
      </trkpt>
      <trkpt lat="49.41933" lon="-1.28141">
        <ele>37.8</ele>
        <time>2020-06-15T17:04:24Z</time>
      </trkpt>
      <trkpt lat="49.41931" lon="-1.28153">
        <ele>37.8</ele>
        <time>2020-06-15T17:04:25Z</time>
      </trkpt>
      <trkpt lat="49.41929" lon="-1.28164">
        <ele>37.8</ele>
        <time>2020-06-15T17:04:26Z</time>
      </trkpt>
      <trkpt lat="49.41926" lon="-1.28174">
        <ele>37.8</ele>
        <time>2020-06-15T17:04:27Z</time>
      </trkpt>
      <trkpt lat="49.41923" lon="-1.28183">
        <ele>37.8</ele>
        <time>2020-06-15T17:04:28Z</time>
      </trkpt>
      <trkpt lat="49.4192" lon="-1.28193">
        <ele>37.8</ele>
        <time>2020-06-15T17:04:29Z</time>
      </trkpt>
      <trkpt lat="49.41917" lon="-1.28202">
        <ele>37.9</ele>
        <time>2020-06-15T17:04:30Z</time>
      </trkpt>
      <trkpt lat="49.41914" lon="-1.28211">
        <ele>37.9</ele>
        <time>2020-06-15T17:04:31Z</time>
      </trkpt>
      <trkpt lat="49.41911" lon="-1.28219">
        <ele>38</ele>
        <time>2020-06-15T17:04:32Z</time>
      </trkpt>
      <trkpt lat="49.41907" lon="-1.28227">
        <ele>38</ele>
        <time>2020-06-15T17:04:33Z</time>
      </trkpt>
      <trkpt lat="49.41904" lon="-1.28236">
        <ele>38.1</ele>
        <time>2020-06-15T17:04:34Z</time>
      </trkpt>
      <trkpt lat="49.41901" lon="-1.28244">
        <ele>38</ele>
        <time>2020-06-15T17:04:35Z</time>
      </trkpt>
      <trkpt lat="49.41898" lon="-1.28253">
        <ele>38</ele>
        <time>2020-06-15T17:04:36Z</time>
      </trkpt>
      <trkpt lat="49.41894" lon="-1.28263">
        <ele>38</ele>
        <time>2020-06-15T17:04:37Z</time>
      </trkpt>
      <trkpt lat="49.4189" lon="-1.28272">
        <ele>38</ele>
        <time>2020-06-15T17:04:38Z</time>
      </trkpt>
      <trkpt lat="49.41887" lon="-1.2828">
        <ele>38</ele>
        <time>2020-06-15T17:04:39Z</time>
      </trkpt>
      <trkpt lat="49.41883" lon="-1.28289">
        <ele>38</ele>
        <time>2020-06-15T17:04:40Z</time>
      </trkpt>
      <trkpt lat="49.4188" lon="-1.28299">
        <ele>38</ele>
        <time>2020-06-15T17:04:41Z</time>
      </trkpt>
      <trkpt lat="49.41878" lon="-1.28308">
        <ele>38</ele>
        <time>2020-06-15T17:04:42Z</time>
      </trkpt>
      <trkpt lat="49.41874" lon="-1.28318">
        <ele>38</ele>
        <time>2020-06-15T17:04:43Z</time>
      </trkpt>
      <trkpt lat="49.41871" lon="-1.28328">
        <ele>38</ele>
        <time>2020-06-15T17:04:44Z</time>
      </trkpt>
      <trkpt lat="49.41868" lon="-1.28337">
        <ele>38</ele>
        <time>2020-06-15T17:04:45Z</time>
      </trkpt>
      <trkpt lat="49.41864" lon="-1.28346">
        <ele>38</ele>
        <time>2020-06-15T17:04:46Z</time>
      </trkpt>
      <trkpt lat="49.4186" lon="-1.28355">
        <ele>37.9</ele>
        <time>2020-06-15T17:04:47Z</time>
      </trkpt>
      <trkpt lat="49.41856" lon="-1.28364">
        <ele>37.9</ele>
        <time>2020-06-15T17:04:48Z</time>
      </trkpt>
      <trkpt lat="49.41852" lon="-1.28373">
        <ele>37.8</ele>
        <time>2020-06-15T17:04:49Z</time>
      </trkpt>
      <trkpt lat="49.41848" lon="-1.2838">
        <ele>37.8</ele>
        <time>2020-06-15T17:04:50Z</time>
      </trkpt>
      <trkpt lat="49.41844" lon="-1.28387">
        <ele>37.8</ele>
        <time>2020-06-15T17:04:51Z</time>
      </trkpt>
      <trkpt lat="49.41839" lon="-1.28395">
        <ele>37.8</ele>
        <time>2020-06-15T17:04:52Z</time>
      </trkpt>
      <trkpt lat="49.41832" lon="-1.28401">
        <ele>37.8</ele>
        <time>2020-06-15T17:04:53Z</time>
      </trkpt>
      <trkpt lat="49.41827" lon="-1.28409">
        <ele>37.8</ele>
        <time>2020-06-15T17:04:54Z</time>
      </trkpt>
      <trkpt lat="49.41822" lon="-1.28415">
        <ele>37.8</ele>
        <time>2020-06-15T17:04:55Z</time>
      </trkpt>
      <trkpt lat="49.41818" lon="-1.28422">
        <ele>37.8</ele>
        <time>2020-06-15T17:04:56Z</time>
      </trkpt>
      <trkpt lat="49.41813" lon="-1.28428">
        <ele>37.9</ele>
        <time>2020-06-15T17:04:57Z</time>
      </trkpt>
      <trkpt lat="49.4181" lon="-1.28434">
        <ele>37.9</ele>
        <time>2020-06-15T17:04:58Z</time>
      </trkpt>
      <trkpt lat="49.41805" lon="-1.2844">
        <ele>37.9</ele>
        <time>2020-06-15T17:04:59Z</time>
      </trkpt>
      <trkpt lat="49.41799" lon="-1.28447">
        <ele>38</ele>
        <time>2020-06-15T17:05:00Z</time>
      </trkpt>
      <trkpt lat="49.41794" lon="-1.28454">
        <ele>37.9</ele>
        <time>2020-06-15T17:05:01Z</time>
      </trkpt>
      <trkpt lat="49.41788" lon="-1.2846">
        <ele>37.9</ele>
        <time>2020-06-15T17:05:02Z</time>
      </trkpt>
      <trkpt lat="49.41785" lon="-1.28467">
        <ele>37.9</ele>
        <time>2020-06-15T17:05:03Z</time>
      </trkpt>
      <trkpt lat="49.4178" lon="-1.28473">
        <ele>37.9</ele>
        <time>2020-06-15T17:05:04Z</time>
      </trkpt>
      <trkpt lat="49.41775" lon="-1.28479">
        <ele>37.8</ele>
        <time>2020-06-15T17:05:05Z</time>
      </trkpt>
      <trkpt lat="49.41771" lon="-1.28486">
        <ele>37.9</ele>
        <time>2020-06-15T17:05:06Z</time>
      </trkpt>
      <trkpt lat="49.41766" lon="-1.28491">
        <ele>37.9</ele>
        <time>2020-06-15T17:05:07Z</time>
      </trkpt>
      <trkpt lat="49.41762" lon="-1.28496">
        <ele>37.9</ele>
        <time>2020-06-15T17:05:08Z</time>
      </trkpt>
      <trkpt lat="49.41755" lon="-1.28504">
        <ele>37.9</ele>
        <time>2020-06-15T17:05:09Z</time>
      </trkpt>
      <trkpt lat="49.41749" lon="-1.2851">
        <ele>37.9</ele>
        <time>2020-06-15T17:05:10Z</time>
      </trkpt>
      <trkpt lat="49.41745" lon="-1.28513">
        <ele>37.9</ele>
        <time>2020-06-15T17:05:11Z</time>
      </trkpt>
      <trkpt lat="49.4174" lon="-1.28518">
        <ele>37.9</ele>
        <time>2020-06-15T17:05:12Z</time>
      </trkpt>
      <trkpt lat="49.41736" lon="-1.28524">
        <ele>37.9</ele>
        <time>2020-06-15T17:05:13Z</time>
      </trkpt>
      <trkpt lat="49.41731" lon="-1.28529">
        <ele>37.9</ele>
        <time>2020-06-15T17:05:14Z</time>
      </trkpt>
      <trkpt lat="49.41726" lon="-1.28536">
        <ele>37.9</ele>
        <time>2020-06-15T17:05:15Z</time>
      </trkpt>
      <trkpt lat="49.4172" lon="-1.28545">
        <ele>37.9</ele>
        <time>2020-06-15T17:05:16Z</time>
      </trkpt>
      <trkpt lat="49.41715" lon="-1.28553">
        <ele>37.9</ele>
        <time>2020-06-15T17:05:17Z</time>
      </trkpt>
      <trkpt lat="49.4171" lon="-1.28561">
        <ele>37.9</ele>
        <time>2020-06-15T17:05:18Z</time>
      </trkpt>
      <trkpt lat="49.41706" lon="-1.28568">
        <ele>37.9</ele>
        <time>2020-06-15T17:05:19Z</time>
      </trkpt>
      <trkpt lat="49.41699" lon="-1.28581">
        <ele>37.8</ele>
        <time>2020-06-15T17:05:20Z</time>
      </trkpt>
      <trkpt lat="49.41697" lon="-1.28584">
        <ele>37.7</ele>
        <time>2020-06-15T17:05:21Z</time>
      </trkpt>
      <trkpt lat="49.41692" lon="-1.28592">
        <ele>37.7</ele>
        <time>2020-06-15T17:05:22Z</time>
      </trkpt>
      <trkpt lat="49.41687" lon="-1.28598">
        <ele>37.6</ele>
        <time>2020-06-15T17:05:23Z</time>
      </trkpt>
      <trkpt lat="49.41681" lon="-1.28604">
        <ele>37.6</ele>
        <time>2020-06-15T17:05:24Z</time>
      </trkpt>
      <trkpt lat="49.41674" lon="-1.28612">
        <ele>37.6</ele>
        <time>2020-06-15T17:05:25Z</time>
      </trkpt>
      <trkpt lat="49.41669" lon="-1.2862">
        <ele>37.6</ele>
        <time>2020-06-15T17:05:26Z</time>
      </trkpt>
      <trkpt lat="49.41664" lon="-1.28625">
        <ele>37.5</ele>
        <time>2020-06-15T17:05:27Z</time>
      </trkpt>
      <trkpt lat="49.41658" lon="-1.28632">
        <ele>37.4</ele>
        <time>2020-06-15T17:05:28Z</time>
      </trkpt>
      <trkpt lat="49.41652" lon="-1.2864">
        <ele>37.3</ele>
        <time>2020-06-15T17:05:29Z</time>
      </trkpt>
      <trkpt lat="49.41647" lon="-1.28647">
        <ele>37.3</ele>
        <time>2020-06-15T17:05:30Z</time>
      </trkpt>
      <trkpt lat="49.41641" lon="-1.28654">
        <ele>37.2</ele>
        <time>2020-06-15T17:05:31Z</time>
      </trkpt>
      <trkpt lat="49.41636" lon="-1.28662">
        <ele>37.2</ele>
        <time>2020-06-15T17:05:32Z</time>
      </trkpt>
      <trkpt lat="49.41631" lon="-1.2867">
        <ele>37.2</ele>
        <time>2020-06-15T17:05:33Z</time>
      </trkpt>
      <trkpt lat="49.41626" lon="-1.28681">
        <ele>37.2</ele>
        <time>2020-06-15T17:05:34Z</time>
      </trkpt>
      <trkpt lat="49.4162" lon="-1.2869">
        <ele>37.1</ele>
        <time>2020-06-15T17:05:35Z</time>
      </trkpt>
      <trkpt lat="49.41614" lon="-1.28698">
        <ele>37</ele>
        <time>2020-06-15T17:05:36Z</time>
      </trkpt>
      <trkpt lat="49.41609" lon="-1.28706">
        <ele>36.9</ele>
        <time>2020-06-15T17:05:37Z</time>
      </trkpt>
      <trkpt lat="49.41605" lon="-1.28712">
        <ele>36.8</ele>
        <time>2020-06-15T17:05:38Z</time>
      </trkpt>
      <trkpt lat="49.41599" lon="-1.28726">
        <ele>36.5</ele>
        <time>2020-06-15T17:05:39Z</time>
      </trkpt>
      <trkpt lat="49.41594" lon="-1.28739">
        <ele>36.3</ele>
        <time>2020-06-15T17:05:40Z</time>
      </trkpt>
      <trkpt lat="49.41589" lon="-1.2875">
        <ele>36.2</ele>
        <time>2020-06-15T17:05:41Z</time>
      </trkpt>
      <trkpt lat="49.41584" lon="-1.28761">
        <ele>36.1</ele>
        <time>2020-06-15T17:05:42Z</time>
      </trkpt>
      <trkpt lat="49.4158" lon="-1.28771">
        <ele>35.9</ele>
        <time>2020-06-15T17:05:43Z</time>
      </trkpt>
      <trkpt lat="49.41576" lon="-1.28782">
        <ele>35.8</ele>
        <time>2020-06-15T17:05:44Z</time>
      </trkpt>
      <trkpt lat="49.41573" lon="-1.28792">
        <ele>35.7</ele>
        <time>2020-06-15T17:05:45Z</time>
      </trkpt>
      <trkpt lat="49.4157" lon="-1.28802">
        <ele>35.6</ele>
        <time>2020-06-15T17:05:46Z</time>
      </trkpt>
      <trkpt lat="49.41567" lon="-1.28814">
        <ele>35.4</ele>
        <time>2020-06-15T17:05:47Z</time>
      </trkpt>
      <trkpt lat="49.41564" lon="-1.28826">
        <ele>35.3</ele>
        <time>2020-06-15T17:05:48Z</time>
      </trkpt>
      <trkpt lat="49.41561" lon="-1.28839">
        <ele>35.2</ele>
        <time>2020-06-15T17:05:49Z</time>
      </trkpt>
      <trkpt lat="49.41559" lon="-1.28851">
        <ele>35</ele>
        <time>2020-06-15T17:05:50Z</time>
      </trkpt>
      <trkpt lat="49.41557" lon="-1.28862">
        <ele>34.9</ele>
        <time>2020-06-15T17:05:51Z</time>
      </trkpt>
      <trkpt lat="49.41556" lon="-1.28874">
        <ele>34.8</ele>
        <time>2020-06-15T17:05:52Z</time>
      </trkpt>
      <trkpt lat="49.41554" lon="-1.28886">
        <ele>34.7</ele>
        <time>2020-06-15T17:05:53Z</time>
      </trkpt>
      <trkpt lat="49.41553" lon="-1.28897">
        <ele>34.7</ele>
        <time>2020-06-15T17:05:54Z</time>
      </trkpt>
      <trkpt lat="49.41552" lon="-1.28907">
        <ele>34.6</ele>
        <time>2020-06-15T17:05:55Z</time>
      </trkpt>
      <trkpt lat="49.41551" lon="-1.28918">
        <ele>34.5</ele>
        <time>2020-06-15T17:05:56Z</time>
      </trkpt>
      <trkpt lat="49.41549" lon="-1.2893">
        <ele>34.3</ele>
        <time>2020-06-15T17:05:57Z</time>
      </trkpt>
      <trkpt lat="49.41548" lon="-1.28941">
        <ele>34.2</ele>
        <time>2020-06-15T17:05:58Z</time>
      </trkpt>
      <trkpt lat="49.41547" lon="-1.28952">
        <ele>34.2</ele>
        <time>2020-06-15T17:05:59Z</time>
      </trkpt>
      <trkpt lat="49.41546" lon="-1.28965">
        <ele>34.1</ele>
        <time>2020-06-15T17:06:00Z</time>
      </trkpt>
      <trkpt lat="49.41545" lon="-1.28978">
        <ele>34.1</ele>
        <time>2020-06-15T17:06:01Z</time>
      </trkpt>
      <trkpt lat="49.41544" lon="-1.2899">
        <ele>34</ele>
        <time>2020-06-15T17:06:02Z</time>
      </trkpt>
      <trkpt lat="49.41542" lon="-1.29003">
        <ele>34</ele>
        <time>2020-06-15T17:06:03Z</time>
      </trkpt>
      <trkpt lat="49.41541" lon="-1.29016">
        <ele>33.9</ele>
        <time>2020-06-15T17:06:04Z</time>
      </trkpt>
      <trkpt lat="49.4154" lon="-1.2903">
        <ele>33.8</ele>
        <time>2020-06-15T17:06:05Z</time>
      </trkpt>
      <trkpt lat="49.41539" lon="-1.29042">
        <ele>33.7</ele>
        <time>2020-06-15T17:06:06Z</time>
      </trkpt>
      <trkpt lat="49.41538" lon="-1.29054">
        <ele>33.6</ele>
        <time>2020-06-15T17:06:07Z</time>
      </trkpt>
      <trkpt lat="49.41537" lon="-1.29066">
        <ele>33.5</ele>
        <time>2020-06-15T17:06:08Z</time>
      </trkpt>
      <trkpt lat="49.41536" lon="-1.29078">
        <ele>33.5</ele>
        <time>2020-06-15T17:06:09Z</time>
      </trkpt>
      <trkpt lat="49.41534" lon="-1.29091">
        <ele>33.4</ele>
        <time>2020-06-15T17:06:10Z</time>
      </trkpt>
      <trkpt lat="49.41533" lon="-1.29104">
        <ele>33.4</ele>
        <time>2020-06-15T17:06:11Z</time>
      </trkpt>
      <trkpt lat="49.41532" lon="-1.29118">
        <ele>33.4</ele>
        <time>2020-06-15T17:06:12Z</time>
      </trkpt>
      <trkpt lat="49.41531" lon="-1.29132">
        <ele>33.4</ele>
        <time>2020-06-15T17:06:13Z</time>
      </trkpt>
      <trkpt lat="49.41529" lon="-1.29146">
        <ele>33.4</ele>
        <time>2020-06-15T17:06:14Z</time>
      </trkpt>
      <trkpt lat="49.41528" lon="-1.2916">
        <ele>33.4</ele>
        <time>2020-06-15T17:06:15Z</time>
      </trkpt>
      <trkpt lat="49.41527" lon="-1.29175">
        <ele>33.4</ele>
        <time>2020-06-15T17:06:16Z</time>
      </trkpt>
      <trkpt lat="49.41526" lon="-1.29188">
        <ele>33.3</ele>
        <time>2020-06-15T17:06:17Z</time>
      </trkpt>
      <trkpt lat="49.41525" lon="-1.29202">
        <ele>33.1</ele>
        <time>2020-06-15T17:06:18Z</time>
      </trkpt>
      <trkpt lat="49.41524" lon="-1.29216">
        <ele>33</ele>
        <time>2020-06-15T17:06:19Z</time>
      </trkpt>
      <trkpt lat="49.41522" lon="-1.2923">
        <ele>32.8</ele>
        <time>2020-06-15T17:06:20Z</time>
      </trkpt>
      <trkpt lat="49.41521" lon="-1.29245">
        <ele>32.7</ele>
        <time>2020-06-15T17:06:21Z</time>
      </trkpt>
      <trkpt lat="49.4152" lon="-1.29259">
        <ele>32.7</ele>
        <time>2020-06-15T17:06:22Z</time>
      </trkpt>
      <trkpt lat="49.41518" lon="-1.29273">
        <ele>32.7</ele>
        <time>2020-06-15T17:06:23Z</time>
      </trkpt>
      <trkpt lat="49.41516" lon="-1.29288">
        <ele>32.7</ele>
        <time>2020-06-15T17:06:24Z</time>
      </trkpt>
      <trkpt lat="49.41516" lon="-1.29301">
        <ele>32.7</ele>
        <time>2020-06-15T17:06:25Z</time>
      </trkpt>
      <trkpt lat="49.41513" lon="-1.29314">
        <ele>32.7</ele>
        <time>2020-06-15T17:06:26Z</time>
      </trkpt>
      <trkpt lat="49.41511" lon="-1.29325">
        <ele>32.7</ele>
        <time>2020-06-15T17:06:27Z</time>
      </trkpt>
      <trkpt lat="49.41508" lon="-1.29336">
        <ele>32.6</ele>
        <time>2020-06-15T17:06:28Z</time>
      </trkpt>
      <trkpt lat="49.41507" lon="-1.29348">
        <ele>32.5</ele>
        <time>2020-06-15T17:06:29Z</time>
      </trkpt>
      <trkpt lat="49.41505" lon="-1.29359">
        <ele>32.4</ele>
        <time>2020-06-15T17:06:30Z</time>
      </trkpt>
      <trkpt lat="49.41503" lon="-1.29369">
        <ele>32.4</ele>
        <time>2020-06-15T17:06:31Z</time>
      </trkpt>
      <trkpt lat="49.41501" lon="-1.2938">
        <ele>32.3</ele>
        <time>2020-06-15T17:06:32Z</time>
      </trkpt>
      <trkpt lat="49.415" lon="-1.29391">
        <ele>32.2</ele>
        <time>2020-06-15T17:06:33Z</time>
      </trkpt>
      <trkpt lat="49.41498" lon="-1.29402">
        <ele>32.2</ele>
        <time>2020-06-15T17:06:34Z</time>
      </trkpt>
      <trkpt lat="49.41497" lon="-1.29414">
        <ele>32.2</ele>
        <time>2020-06-15T17:06:35Z</time>
      </trkpt>
      <trkpt lat="49.41495" lon="-1.29427">
        <ele>32.2</ele>
        <time>2020-06-15T17:06:36Z</time>
      </trkpt>
      <trkpt lat="49.41493" lon="-1.29439">
        <ele>32.2</ele>
        <time>2020-06-15T17:06:37Z</time>
      </trkpt>
      <trkpt lat="49.41492" lon="-1.29452">
        <ele>32.2</ele>
        <time>2020-06-15T17:06:38Z</time>
      </trkpt>
      <trkpt lat="49.41491" lon="-1.29462">
        <ele>32.1</ele>
        <time>2020-06-15T17:06:39Z</time>
      </trkpt>
      <trkpt lat="49.41491" lon="-1.29474">
        <ele>31.9</ele>
        <time>2020-06-15T17:06:40Z</time>
      </trkpt>
      <trkpt lat="49.41491" lon="-1.29485">
        <ele>31.8</ele>
        <time>2020-06-15T17:06:41Z</time>
      </trkpt>
      <trkpt lat="49.41493" lon="-1.29496">
        <ele>31.7</ele>
        <time>2020-06-15T17:06:42Z</time>
      </trkpt>
      <trkpt lat="49.41495" lon="-1.29505">
        <ele>31.7</ele>
        <time>2020-06-15T17:06:43Z</time>
      </trkpt>
      <trkpt lat="49.41497" lon="-1.29514">
        <ele>31.7</ele>
        <time>2020-06-15T17:06:44Z</time>
      </trkpt>
      <trkpt lat="49.41499" lon="-1.29525">
        <ele>31.7</ele>
        <time>2020-06-15T17:06:45Z</time>
      </trkpt>
      <trkpt lat="49.41501" lon="-1.29537">
        <ele>31.6</ele>
        <time>2020-06-15T17:06:46Z</time>
      </trkpt>
      <trkpt lat="49.41505" lon="-1.29549">
        <ele>31.6</ele>
        <time>2020-06-15T17:06:47Z</time>
      </trkpt>
      <trkpt lat="49.41508" lon="-1.29559">
        <ele>31.5</ele>
        <time>2020-06-15T17:06:48Z</time>
      </trkpt>
      <trkpt lat="49.41512" lon="-1.29569">
        <ele>31.4</ele>
        <time>2020-06-15T17:06:49Z</time>
      </trkpt>
      <trkpt lat="49.41516" lon="-1.2958">
        <ele>31.4</ele>
        <time>2020-06-15T17:06:50Z</time>
      </trkpt>
      <trkpt lat="49.41518" lon="-1.29592">
        <ele>31.3</ele>
        <time>2020-06-15T17:06:51Z</time>
      </trkpt>
      <trkpt lat="49.41521" lon="-1.29603">
        <ele>31.2</ele>
        <time>2020-06-15T17:06:52Z</time>
      </trkpt>
      <trkpt lat="49.41524" lon="-1.29615">
        <ele>31.1</ele>
        <time>2020-06-15T17:06:53Z</time>
      </trkpt>
      <trkpt lat="49.41528" lon="-1.29627">
        <ele>31</ele>
        <time>2020-06-15T17:06:54Z</time>
      </trkpt>
      <trkpt lat="49.41531" lon="-1.29639">
        <ele>31</ele>
        <time>2020-06-15T17:06:55Z</time>
      </trkpt>
      <trkpt lat="49.41534" lon="-1.2965">
        <ele>31</ele>
        <time>2020-06-15T17:06:56Z</time>
      </trkpt>
      <trkpt lat="49.41537" lon="-1.29661">
        <ele>31</ele>
        <time>2020-06-15T17:06:57Z</time>
      </trkpt>
      <trkpt lat="49.41541" lon="-1.29671">
        <ele>31</ele>
        <time>2020-06-15T17:06:58Z</time>
      </trkpt>
      <trkpt lat="49.41544" lon="-1.29682">
        <ele>30.9</ele>
        <time>2020-06-15T17:06:59Z</time>
      </trkpt>
      <trkpt lat="49.41547" lon="-1.29694">
        <ele>30.9</ele>
        <time>2020-06-15T17:07:00Z</time>
      </trkpt>
      <trkpt lat="49.41549" lon="-1.29704">
        <ele>30.9</ele>
        <time>2020-06-15T17:07:01Z</time>
      </trkpt>
      <trkpt lat="49.41551" lon="-1.29715">
        <ele>30.7</ele>
        <time>2020-06-15T17:07:02Z</time>
      </trkpt>
      <trkpt lat="49.41554" lon="-1.29726">
        <ele>30.7</ele>
        <time>2020-06-15T17:07:03Z</time>
      </trkpt>
      <trkpt lat="49.41555" lon="-1.29737">
        <ele>30.6</ele>
        <time>2020-06-15T17:07:04Z</time>
      </trkpt>
      <trkpt lat="49.41555" lon="-1.29747">
        <ele>30.7</ele>
        <time>2020-06-15T17:07:05Z</time>
      </trkpt>
      <trkpt lat="49.41555" lon="-1.29758">
        <ele>30.8</ele>
        <time>2020-06-15T17:07:06Z</time>
      </trkpt>
      <trkpt lat="49.41555" lon="-1.29769">
        <ele>30.9</ele>
        <time>2020-06-15T17:07:07Z</time>
      </trkpt>
      <trkpt lat="49.41555" lon="-1.2978">
        <ele>31</ele>
        <time>2020-06-15T17:07:08Z</time>
      </trkpt>
      <trkpt lat="49.41554" lon="-1.29791">
        <ele>31.1</ele>
        <time>2020-06-15T17:07:09Z</time>
      </trkpt>
      <trkpt lat="49.41553" lon="-1.29801">
        <ele>31.3</ele>
        <time>2020-06-15T17:07:10Z</time>
      </trkpt>
      <trkpt lat="49.41553" lon="-1.29812">
        <ele>31.4</ele>
        <time>2020-06-15T17:07:11Z</time>
      </trkpt>
      <trkpt lat="49.4155" lon="-1.29823">
        <ele>31.5</ele>
        <time>2020-06-15T17:07:12Z</time>
      </trkpt>
      <trkpt lat="49.41547" lon="-1.29832">
        <ele>31.6</ele>
        <time>2020-06-15T17:07:13Z</time>
      </trkpt>
      <trkpt lat="49.41544" lon="-1.29842">
        <ele>31.6</ele>
        <time>2020-06-15T17:07:14Z</time>
      </trkpt>
      <trkpt lat="49.41542" lon="-1.29854">
        <ele>31.7</ele>
        <time>2020-06-15T17:07:15Z</time>
      </trkpt>
      <trkpt lat="49.41538" lon="-1.29863">
        <ele>31.8</ele>
        <time>2020-06-15T17:07:16Z</time>
      </trkpt>
      <trkpt lat="49.41535" lon="-1.29873">
        <ele>31.9</ele>
        <time>2020-06-15T17:07:17Z</time>
      </trkpt>
      <trkpt lat="49.41531" lon="-1.29882">
        <ele>31.9</ele>
        <time>2020-06-15T17:07:18Z</time>
      </trkpt>
      <trkpt lat="49.41528" lon="-1.29892">
        <ele>32</ele>
        <time>2020-06-15T17:07:19Z</time>
      </trkpt>
      <trkpt lat="49.41526" lon="-1.299">
        <ele>32.1</ele>
        <time>2020-06-15T17:07:20Z</time>
      </trkpt>
      <trkpt lat="49.41523" lon="-1.29908">
        <ele>32.1</ele>
        <time>2020-06-15T17:07:21Z</time>
      </trkpt>
      <trkpt lat="49.41521" lon="-1.29917">
        <ele>32.2</ele>
        <time>2020-06-15T17:07:22Z</time>
      </trkpt>
      <trkpt lat="49.41519" lon="-1.29926">
        <ele>32.2</ele>
        <time>2020-06-15T17:07:23Z</time>
      </trkpt>
      <trkpt lat="49.41517" lon="-1.29935">
        <ele>32.2</ele>
        <time>2020-06-15T17:07:24Z</time>
      </trkpt>
      <trkpt lat="49.41514" lon="-1.29945">
        <ele>32.3</ele>
        <time>2020-06-15T17:07:25Z</time>
      </trkpt>
      <trkpt lat="49.41512" lon="-1.29954">
        <ele>32.3</ele>
        <time>2020-06-15T17:07:26Z</time>
      </trkpt>
      <trkpt lat="49.41509" lon="-1.29965">
        <ele>32.3</ele>
        <time>2020-06-15T17:07:27Z</time>
      </trkpt>
      <trkpt lat="49.41506" lon="-1.29974">
        <ele>32.2</ele>
        <time>2020-06-15T17:07:28Z</time>
      </trkpt>
      <trkpt lat="49.41504" lon="-1.29983">
        <ele>32.2</ele>
        <time>2020-06-15T17:07:29Z</time>
      </trkpt>
      <trkpt lat="49.41501" lon="-1.29991">
        <ele>32.2</ele>
        <time>2020-06-15T17:07:30Z</time>
      </trkpt>
      <trkpt lat="49.41498" lon="-1.30001">
        <ele>32.1</ele>
        <time>2020-06-15T17:07:31Z</time>
      </trkpt>
      <trkpt lat="49.41495" lon="-1.3001">
        <ele>32.1</ele>
        <time>2020-06-15T17:07:32Z</time>
      </trkpt>
      <trkpt lat="49.41492" lon="-1.30019">
        <ele>32.1</ele>
        <time>2020-06-15T17:07:33Z</time>
      </trkpt>
      <trkpt lat="49.41489" lon="-1.30027">
        <ele>32.1</ele>
        <time>2020-06-15T17:07:34Z</time>
      </trkpt>
      <trkpt lat="49.41487" lon="-1.30037">
        <ele>32.1</ele>
        <time>2020-06-15T17:07:35Z</time>
      </trkpt>
      <trkpt lat="49.41484" lon="-1.30046">
        <ele>32.2</ele>
        <time>2020-06-15T17:07:36Z</time>
      </trkpt>
      <trkpt lat="49.41481" lon="-1.30056">
        <ele>32.2</ele>
        <time>2020-06-15T17:07:37Z</time>
      </trkpt>
      <trkpt lat="49.41478" lon="-1.30066">
        <ele>32.2</ele>
        <time>2020-06-15T17:07:38Z</time>
      </trkpt>
      <trkpt lat="49.41475" lon="-1.30076">
        <ele>32.3</ele>
        <time>2020-06-15T17:07:39Z</time>
      </trkpt>
      <trkpt lat="49.41472" lon="-1.30086">
        <ele>32.3</ele>
        <time>2020-06-15T17:07:40Z</time>
      </trkpt>
      <trkpt lat="49.41469" lon="-1.30096">
        <ele>32.3</ele>
        <time>2020-06-15T17:07:41Z</time>
      </trkpt>
      <trkpt lat="49.41467" lon="-1.30106">
        <ele>32.2</ele>
        <time>2020-06-15T17:07:42Z</time>
      </trkpt>
      <trkpt lat="49.41465" lon="-1.30113">
        <ele>32.2</ele>
        <time>2020-06-15T17:07:43Z</time>
      </trkpt>
      <trkpt lat="49.41463" lon="-1.30123">
        <ele>32.2</ele>
        <time>2020-06-15T17:07:44Z</time>
      </trkpt>
      <trkpt lat="49.41461" lon="-1.30133">
        <ele>32.2</ele>
        <time>2020-06-15T17:07:45Z</time>
      </trkpt>
      <trkpt lat="49.41459" lon="-1.30142">
        <ele>32.2</ele>
        <time>2020-06-15T17:07:46Z</time>
      </trkpt>
      <trkpt lat="49.41457" lon="-1.30153">
        <ele>32.2</ele>
        <time>2020-06-15T17:07:47Z</time>
      </trkpt>
      <trkpt lat="49.41456" lon="-1.30164">
        <ele>32.2</ele>
        <time>2020-06-15T17:07:48Z</time>
      </trkpt>
      <trkpt lat="49.41454" lon="-1.30174">
        <ele>32.3</ele>
        <time>2020-06-15T17:07:49Z</time>
      </trkpt>
      <trkpt lat="49.41452" lon="-1.30185">
        <ele>32.3</ele>
        <time>2020-06-15T17:07:50Z</time>
      </trkpt>
      <trkpt lat="49.4145" lon="-1.30196">
        <ele>32.2</ele>
        <time>2020-06-15T17:07:51Z</time>
      </trkpt>
      <trkpt lat="49.41448" lon="-1.30208">
        <ele>32.2</ele>
        <time>2020-06-15T17:07:52Z</time>
      </trkpt>
      <trkpt lat="49.41444" lon="-1.30218">
        <ele>32.1</ele>
        <time>2020-06-15T17:07:53Z</time>
      </trkpt>
      <trkpt lat="49.41442" lon="-1.3023">
        <ele>32.1</ele>
        <time>2020-06-15T17:07:54Z</time>
      </trkpt>
      <trkpt lat="49.41439" lon="-1.30242">
        <ele>32.1</ele>
        <time>2020-06-15T17:07:55Z</time>
      </trkpt>
      <trkpt lat="49.41437" lon="-1.30254">
        <ele>32.1</ele>
        <time>2020-06-15T17:07:56Z</time>
      </trkpt>
      <trkpt lat="49.41434" lon="-1.30266">
        <ele>32</ele>
        <time>2020-06-15T17:07:57Z</time>
      </trkpt>
      <trkpt lat="49.41432" lon="-1.30278">
        <ele>31.9</ele>
        <time>2020-06-15T17:07:58Z</time>
      </trkpt>
      <trkpt lat="49.41429" lon="-1.30288">
        <ele>31.9</ele>
        <time>2020-06-15T17:07:59Z</time>
      </trkpt>
      <trkpt lat="49.41427" lon="-1.30299">
        <ele>31.8</ele>
        <time>2020-06-15T17:08:00Z</time>
      </trkpt>
      <trkpt lat="49.41425" lon="-1.3031">
        <ele>31.7</ele>
        <time>2020-06-15T17:08:01Z</time>
      </trkpt>
      <trkpt lat="49.41423" lon="-1.3032">
        <ele>31.7</ele>
        <time>2020-06-15T17:08:02Z</time>
      </trkpt>
      <trkpt lat="49.41421" lon="-1.30332">
        <ele>31.6</ele>
        <time>2020-06-15T17:08:03Z</time>
      </trkpt>
      <trkpt lat="49.41418" lon="-1.30344">
        <ele>31.5</ele>
        <time>2020-06-15T17:08:04Z</time>
      </trkpt>
      <trkpt lat="49.41416" lon="-1.30352">
        <ele>31.4</ele>
        <time>2020-06-15T17:08:05Z</time>
      </trkpt>
      <trkpt lat="49.41415" lon="-1.30362">
        <ele>31.4</ele>
        <time>2020-06-15T17:08:06Z</time>
      </trkpt>
      <trkpt lat="49.41413" lon="-1.3037">
        <ele>31.3</ele>
        <time>2020-06-15T17:08:07Z</time>
      </trkpt>
      <trkpt lat="49.41411" lon="-1.3038">
        <ele>31.2</ele>
        <time>2020-06-15T17:08:08Z</time>
      </trkpt>
      <trkpt lat="49.41408" lon="-1.30389">
        <ele>31.1</ele>
        <time>2020-06-15T17:08:09Z</time>
      </trkpt>
      <trkpt lat="49.41405" lon="-1.30398">
        <ele>31.1</ele>
        <time>2020-06-15T17:08:10Z</time>
      </trkpt>
      <trkpt lat="49.41403" lon="-1.30408">
        <ele>31.1</ele>
        <time>2020-06-15T17:08:11Z</time>
      </trkpt>
      <trkpt lat="49.414" lon="-1.30418">
        <ele>31.1</ele>
        <time>2020-06-15T17:08:12Z</time>
      </trkpt>
      <trkpt lat="49.41397" lon="-1.30428">
        <ele>31.1</ele>
        <time>2020-06-15T17:08:13Z</time>
      </trkpt>
      <trkpt lat="49.41395" lon="-1.30438">
        <ele>31</ele>
        <time>2020-06-15T17:08:14Z</time>
      </trkpt>
      <trkpt lat="49.41392" lon="-1.30447">
        <ele>31</ele>
        <time>2020-06-15T17:08:15Z</time>
      </trkpt>
      <trkpt lat="49.4139" lon="-1.30457">
        <ele>31</ele>
        <time>2020-06-15T17:08:16Z</time>
      </trkpt>
      <trkpt lat="49.41388" lon="-1.30467">
        <ele>31</ele>
        <time>2020-06-15T17:08:17Z</time>
      </trkpt>
      <trkpt lat="49.41385" lon="-1.30477">
        <ele>31</ele>
        <time>2020-06-15T17:08:18Z</time>
      </trkpt>
      <trkpt lat="49.41383" lon="-1.30488">
        <ele>31.1</ele>
        <time>2020-06-15T17:08:19Z</time>
      </trkpt>
      <trkpt lat="49.41381" lon="-1.30498">
        <ele>31.1</ele>
        <time>2020-06-15T17:08:20Z</time>
      </trkpt>
      <trkpt lat="49.41379" lon="-1.30508">
        <ele>31.2</ele>
        <time>2020-06-15T17:08:21Z</time>
      </trkpt>
      <trkpt lat="49.41378" lon="-1.30517">
        <ele>31.2</ele>
        <time>2020-06-15T17:08:22Z</time>
      </trkpt>
      <trkpt lat="49.41376" lon="-1.30525">
        <ele>31.2</ele>
        <time>2020-06-15T17:08:23Z</time>
      </trkpt>
      <trkpt lat="49.41374" lon="-1.30533">
        <ele>31.2</ele>
        <time>2020-06-15T17:08:24Z</time>
      </trkpt>
      <trkpt lat="49.41372" lon="-1.30542">
        <ele>31.2</ele>
        <time>2020-06-15T17:08:25Z</time>
      </trkpt>
      <trkpt lat="49.4137" lon="-1.30548">
        <ele>31.2</ele>
        <time>2020-06-15T17:08:26Z</time>
      </trkpt>
      <trkpt lat="49.41367" lon="-1.30557">
        <ele>31.2</ele>
        <time>2020-06-15T17:08:27Z</time>
      </trkpt>
      <trkpt lat="49.41363" lon="-1.30567">
        <ele>31.2</ele>
        <time>2020-06-15T17:08:28Z</time>
      </trkpt>
      <trkpt lat="49.41361" lon="-1.30576">
        <ele>31.2</ele>
        <time>2020-06-15T17:08:29Z</time>
      </trkpt>
      <trkpt lat="49.41359" lon="-1.30584">
        <ele>31.2</ele>
        <time>2020-06-15T17:08:30Z</time>
      </trkpt>
      <trkpt lat="49.41358" lon="-1.30592">
        <ele>31.3</ele>
        <time>2020-06-15T17:08:31Z</time>
      </trkpt>
      <trkpt lat="49.41355" lon="-1.30602">
        <ele>31.3</ele>
        <time>2020-06-15T17:08:32Z</time>
      </trkpt>
      <trkpt lat="49.41353" lon="-1.30611">
        <ele>31.4</ele>
        <time>2020-06-15T17:08:33Z</time>
      </trkpt>
      <trkpt lat="49.41351" lon="-1.30621">
        <ele>31.4</ele>
        <time>2020-06-15T17:08:34Z</time>
      </trkpt>
      <trkpt lat="49.41348" lon="-1.3063">
        <ele>31.5</ele>
        <time>2020-06-15T17:08:35Z</time>
      </trkpt>
      <trkpt lat="49.41345" lon="-1.30639">
        <ele>31.5</ele>
        <time>2020-06-15T17:08:36Z</time>
      </trkpt>
      <trkpt lat="49.41342" lon="-1.30648">
        <ele>31.6</ele>
        <time>2020-06-15T17:08:37Z</time>
      </trkpt>
      <trkpt lat="49.41338" lon="-1.30658">
        <ele>31.6</ele>
        <time>2020-06-15T17:08:38Z</time>
      </trkpt>
      <trkpt lat="49.41334" lon="-1.30669">
        <ele>31.6</ele>
        <time>2020-06-15T17:08:39Z</time>
      </trkpt>
      <trkpt lat="49.41331" lon="-1.3068">
        <ele>31.7</ele>
        <time>2020-06-15T17:08:40Z</time>
      </trkpt>
      <trkpt lat="49.41327" lon="-1.30691">
        <ele>31.7</ele>
        <time>2020-06-15T17:08:41Z</time>
      </trkpt>
      <trkpt lat="49.41323" lon="-1.307">
        <ele>31.7</ele>
        <time>2020-06-15T17:08:42Z</time>
      </trkpt>
      <trkpt lat="49.4132" lon="-1.30711">
        <ele>31.8</ele>
        <time>2020-06-15T17:08:43Z</time>
      </trkpt>
      <trkpt lat="49.41316" lon="-1.30721">
        <ele>31.8</ele>
        <time>2020-06-15T17:08:44Z</time>
      </trkpt>
      <trkpt lat="49.41311" lon="-1.30732">
        <ele>31.8</ele>
        <time>2020-06-15T17:08:45Z</time>
      </trkpt>
      <trkpt lat="49.41308" lon="-1.30741">
        <ele>31.8</ele>
        <time>2020-06-15T17:08:46Z</time>
      </trkpt>
      <trkpt lat="49.41305" lon="-1.30749">
        <ele>31.8</ele>
        <time>2020-06-15T17:08:47Z</time>
      </trkpt>
      <trkpt lat="49.41301" lon="-1.30758">
        <ele>31.9</ele>
        <time>2020-06-15T17:08:48Z</time>
      </trkpt>
      <trkpt lat="49.41298" lon="-1.30767">
        <ele>31.9</ele>
        <time>2020-06-15T17:08:49Z</time>
      </trkpt>
      <trkpt lat="49.41296" lon="-1.30776">
        <ele>31.9</ele>
        <time>2020-06-15T17:08:50Z</time>
      </trkpt>
      <trkpt lat="49.41293" lon="-1.30785">
        <ele>31.9</ele>
        <time>2020-06-15T17:08:51Z</time>
      </trkpt>
      <trkpt lat="49.41291" lon="-1.30795">
        <ele>31.8</ele>
        <time>2020-06-15T17:08:52Z</time>
      </trkpt>
      <trkpt lat="49.41289" lon="-1.30803">
        <ele>31.8</ele>
        <time>2020-06-15T17:08:53Z</time>
      </trkpt>
      <trkpt lat="49.41287" lon="-1.30813">
        <ele>31.8</ele>
        <time>2020-06-15T17:08:54Z</time>
      </trkpt>
      <trkpt lat="49.41284" lon="-1.30824">
        <ele>31.8</ele>
        <time>2020-06-15T17:08:55Z</time>
      </trkpt>
      <trkpt lat="49.41282" lon="-1.30835">
        <ele>31.8</ele>
        <time>2020-06-15T17:08:56Z</time>
      </trkpt>
      <trkpt lat="49.4128" lon="-1.30846">
        <ele>31.7</ele>
        <time>2020-06-15T17:08:57Z</time>
      </trkpt>
      <trkpt lat="49.41278" lon="-1.30855">
        <ele>31.7</ele>
        <time>2020-06-15T17:08:58Z</time>
      </trkpt>
      <trkpt lat="49.41275" lon="-1.30864">
        <ele>31.7</ele>
        <time>2020-06-15T17:08:59Z</time>
      </trkpt>
      <trkpt lat="49.41273" lon="-1.30874">
        <ele>31.7</ele>
        <time>2020-06-15T17:09:00Z</time>
      </trkpt>
      <trkpt lat="49.41271" lon="-1.30884">
        <ele>31.7</ele>
        <time>2020-06-15T17:09:01Z</time>
      </trkpt>
      <trkpt lat="49.4127" lon="-1.30893">
        <ele>31.6</ele>
        <time>2020-06-15T17:09:02Z</time>
      </trkpt>
      <trkpt lat="49.41268" lon="-1.30904">
        <ele>31.6</ele>
        <time>2020-06-15T17:09:03Z</time>
      </trkpt>
      <trkpt lat="49.41267" lon="-1.30914">
        <ele>31.6</ele>
        <time>2020-06-15T17:09:04Z</time>
      </trkpt>
      <trkpt lat="49.41266" lon="-1.30924">
        <ele>31.5</ele>
        <time>2020-06-15T17:09:05Z</time>
      </trkpt>
      <trkpt lat="49.41265" lon="-1.30933">
        <ele>31.5</ele>
        <time>2020-06-15T17:09:06Z</time>
      </trkpt>
      <trkpt lat="49.41264" lon="-1.30942">
        <ele>31.5</ele>
        <time>2020-06-15T17:09:07Z</time>
      </trkpt>
      <trkpt lat="49.41262" lon="-1.3095">
        <ele>31.4</ele>
        <time>2020-06-15T17:09:08Z</time>
      </trkpt>
      <trkpt lat="49.4126" lon="-1.3096">
        <ele>31.4</ele>
        <time>2020-06-15T17:09:09Z</time>
      </trkpt>
      <trkpt lat="49.41258" lon="-1.30969">
        <ele>31.3</ele>
        <time>2020-06-15T17:09:10Z</time>
      </trkpt>
      <trkpt lat="49.41256" lon="-1.30978">
        <ele>31.3</ele>
        <time>2020-06-15T17:09:11Z</time>
      </trkpt>
      <trkpt lat="49.41255" lon="-1.30986">
        <ele>31.3</ele>
        <time>2020-06-15T17:09:12Z</time>
      </trkpt>
      <trkpt lat="49.41254" lon="-1.30994">
        <ele>31.2</ele>
        <time>2020-06-15T17:09:13Z</time>
      </trkpt>
      <trkpt lat="49.41253" lon="-1.31004">
        <ele>31.2</ele>
        <time>2020-06-15T17:09:14Z</time>
      </trkpt>
      <trkpt lat="49.41252" lon="-1.31014">
        <ele>31.2</ele>
        <time>2020-06-15T17:09:15Z</time>
      </trkpt>
      <trkpt lat="49.41251" lon="-1.31022">
        <ele>31.1</ele>
        <time>2020-06-15T17:09:16Z</time>
      </trkpt>
      <trkpt lat="49.41249" lon="-1.31029">
        <ele>31.1</ele>
        <time>2020-06-15T17:09:17Z</time>
      </trkpt>
      <trkpt lat="49.41246" lon="-1.31032">
        <ele>31</ele>
        <time>2020-06-15T17:09:18Z</time>
      </trkpt>
      <trkpt lat="49.41244" lon="-1.31031">
        <ele>31</ele>
        <time>2020-06-15T17:09:19Z</time>
      </trkpt>
      <trkpt lat="49.41243" lon="-1.3103">
        <ele>31</ele>
        <time>2020-06-15T17:09:20Z</time>
      </trkpt>
      <trkpt lat="49.41243" lon="-1.3103">
        <ele>31</ele>
        <time>2020-06-15T17:09:21Z</time>
      </trkpt>
      <trkpt lat="49.41245" lon="-1.31033">
        <ele>30.9</ele>
        <time>2020-06-15T17:09:22Z</time>
      </trkpt>
      <trkpt lat="49.41245" lon="-1.31036">
        <ele>30.9</ele>
        <time>2020-06-15T17:09:23Z</time>
      </trkpt>
      <trkpt lat="49.41245" lon="-1.31038">
        <ele>30.9</ele>
        <time>2020-06-15T17:09:24Z</time>
      </trkpt>
      <trkpt lat="49.41244" lon="-1.31038">
        <ele>30.9</ele>
        <time>2020-06-15T17:09:25Z</time>
      </trkpt>
      <trkpt lat="49.41244" lon="-1.31038">
        <ele>30.9</ele>
        <time>2020-06-15T17:09:26Z</time>
      </trkpt>
      <trkpt lat="49.41244" lon="-1.31035">
        <ele>30.8</ele>
        <time>2020-06-15T17:09:27Z</time>
      </trkpt>
      <trkpt lat="49.41245" lon="-1.31035">
        <ele>30.8</ele>
        <time>2020-06-15T17:09:28Z</time>
      </trkpt>
      <trkpt lat="49.41246" lon="-1.31036">
        <ele>30.8</ele>
        <time>2020-06-15T17:09:29Z</time>
      </trkpt>
      <trkpt lat="49.41247" lon="-1.31038">
        <ele>30.8</ele>
        <time>2020-06-15T17:09:30Z</time>
      </trkpt>
      <trkpt lat="49.41247" lon="-1.3104">
        <ele>30.8</ele>
        <time>2020-06-15T17:09:31Z</time>
      </trkpt>
      <trkpt lat="49.41248" lon="-1.31044">
        <ele>30.7</ele>
        <time>2020-06-15T17:09:32Z</time>
      </trkpt>
      <trkpt lat="49.41249" lon="-1.3105">
        <ele>30.7</ele>
        <time>2020-06-15T17:09:33Z</time>
      </trkpt>
      <trkpt lat="49.4125" lon="-1.31053">
        <ele>30.7</ele>
        <time>2020-06-15T17:09:34Z</time>
      </trkpt>
      <trkpt lat="49.4125" lon="-1.3106">
        <ele>30.7</ele>
        <time>2020-06-15T17:09:35Z</time>
      </trkpt>
      <trkpt lat="49.4125" lon="-1.31068">
        <ele>30.7</ele>
        <time>2020-06-15T17:09:36Z</time>
      </trkpt>
      <trkpt lat="49.4125" lon="-1.31075">
        <ele>30.7</ele>
        <time>2020-06-15T17:09:37Z</time>
      </trkpt>
      <trkpt lat="49.4125" lon="-1.31082">
        <ele>30.7</ele>
        <time>2020-06-15T17:09:38Z</time>
      </trkpt>
      <trkpt lat="49.41249" lon="-1.31088">
        <ele>30.7</ele>
        <time>2020-06-15T17:09:39Z</time>
      </trkpt>
      <trkpt lat="49.41248" lon="-1.31093">
        <ele>30.7</ele>
        <time>2020-06-15T17:09:40Z</time>
      </trkpt>
      <trkpt lat="49.41246" lon="-1.31098">
        <ele>30.3</ele>
        <time>2020-06-15T17:09:41Z</time>
      </trkpt>
      <trkpt lat="49.41244" lon="-1.31103">
        <ele>30.2</ele>
        <time>2020-06-15T17:09:42Z</time>
      </trkpt>
      <trkpt lat="49.41241" lon="-1.31111">
        <ele>30.1</ele>
        <time>2020-06-15T17:09:43Z</time>
      </trkpt>
      <trkpt lat="49.41237" lon="-1.31116">
        <ele>29.9</ele>
        <time>2020-06-15T17:09:44Z</time>
      </trkpt>
      <trkpt lat="49.41233" lon="-1.31124">
        <ele>29.8</ele>
        <time>2020-06-15T17:09:45Z</time>
      </trkpt>
      <trkpt lat="49.41228" lon="-1.3113">
        <ele>29.8</ele>
        <time>2020-06-15T17:09:46Z</time>
      </trkpt>
      <trkpt lat="49.41223" lon="-1.31136">
        <ele>29.7</ele>
        <time>2020-06-15T17:09:47Z</time>
      </trkpt>
      <trkpt lat="49.41218" lon="-1.3114">
        <ele>29.6</ele>
        <time>2020-06-15T17:09:48Z</time>
      </trkpt>
      <trkpt lat="49.41213" lon="-1.31145">
        <ele>29.5</ele>
        <time>2020-06-15T17:09:49Z</time>
      </trkpt>
      <trkpt lat="49.41208" lon="-1.3115">
        <ele>29.4</ele>
        <time>2020-06-15T17:09:50Z</time>
      </trkpt>
      <trkpt lat="49.41204" lon="-1.31155">
        <ele>29.3</ele>
        <time>2020-06-15T17:09:51Z</time>
      </trkpt>
      <trkpt lat="49.41199" lon="-1.3116">
        <ele>29.2</ele>
        <time>2020-06-15T17:09:52Z</time>
      </trkpt>
      <trkpt lat="49.41195" lon="-1.31165">
        <ele>29.2</ele>
        <time>2020-06-15T17:09:53Z</time>
      </trkpt>
      <trkpt lat="49.41191" lon="-1.3117">
        <ele>29.1</ele>
        <time>2020-06-15T17:09:54Z</time>
      </trkpt>
      <trkpt lat="49.41187" lon="-1.31175">
        <ele>29</ele>
        <time>2020-06-15T17:09:55Z</time>
      </trkpt>
      <trkpt lat="49.41183" lon="-1.31179">
        <ele>29</ele>
        <time>2020-06-15T17:09:56Z</time>
      </trkpt>
      <trkpt lat="49.41179" lon="-1.31183">
        <ele>29</ele>
        <time>2020-06-15T17:09:57Z</time>
      </trkpt>
      <trkpt lat="49.41175" lon="-1.31188">
        <ele>28.9</ele>
        <time>2020-06-15T17:09:58Z</time>
      </trkpt>
      <trkpt lat="49.41171" lon="-1.31193">
        <ele>28.9</ele>
        <time>2020-06-15T17:09:59Z</time>
      </trkpt>
      <trkpt lat="49.41168" lon="-1.31198">
        <ele>28.9</ele>
        <time>2020-06-15T17:10:00Z</time>
      </trkpt>
      <trkpt lat="49.41165" lon="-1.31203">
        <ele>28.8</ele>
        <time>2020-06-15T17:10:01Z</time>
      </trkpt>
      <trkpt lat="49.41161" lon="-1.31206">
        <ele>28.8</ele>
        <time>2020-06-15T17:10:02Z</time>
      </trkpt>
      <trkpt lat="49.41158" lon="-1.3121">
        <ele>28.8</ele>
        <time>2020-06-15T17:10:03Z</time>
      </trkpt>
      <trkpt lat="49.41154" lon="-1.31214">
        <ele>28.8</ele>
        <time>2020-06-15T17:10:04Z</time>
      </trkpt>
      <trkpt lat="49.41151" lon="-1.31219">
        <ele>28.8</ele>
        <time>2020-06-15T17:10:05Z</time>
      </trkpt>
      <trkpt lat="49.41147" lon="-1.31223">
        <ele>28.8</ele>
        <time>2020-06-15T17:10:06Z</time>
      </trkpt>
      <trkpt lat="49.41144" lon="-1.31227">
        <ele>28.8</ele>
        <time>2020-06-15T17:10:07Z</time>
      </trkpt>
      <trkpt lat="49.41141" lon="-1.31229">
        <ele>28.8</ele>
        <time>2020-06-15T17:10:08Z</time>
      </trkpt>
      <trkpt lat="49.41138" lon="-1.31231">
        <ele>28.7</ele>
        <time>2020-06-15T17:10:09Z</time>
      </trkpt>
      <trkpt lat="49.41134" lon="-1.31236">
        <ele>28.7</ele>
        <time>2020-06-15T17:10:10Z</time>
      </trkpt>
      <trkpt lat="49.41131" lon="-1.31241">
        <ele>28.7</ele>
        <time>2020-06-15T17:10:11Z</time>
      </trkpt>
      <trkpt lat="49.41127" lon="-1.31245">
        <ele>28.7</ele>
        <time>2020-06-15T17:10:12Z</time>
      </trkpt>
      <trkpt lat="49.41123" lon="-1.31251">
        <ele>28.7</ele>
        <time>2020-06-15T17:10:13Z</time>
      </trkpt>
      <trkpt lat="49.41119" lon="-1.31259">
        <ele>28.6</ele>
        <time>2020-06-15T17:10:14Z</time>
      </trkpt>
      <trkpt lat="49.41115" lon="-1.31265">
        <ele>28.6</ele>
        <time>2020-06-15T17:10:15Z</time>
      </trkpt>
      <trkpt lat="49.41111" lon="-1.31271">
        <ele>28.6</ele>
        <time>2020-06-15T17:10:16Z</time>
      </trkpt>
      <trkpt lat="49.41107" lon="-1.31276">
        <ele>28.5</ele>
        <time>2020-06-15T17:10:17Z</time>
      </trkpt>
      <trkpt lat="49.41102" lon="-1.31282">
        <ele>28.5</ele>
        <time>2020-06-15T17:10:18Z</time>
      </trkpt>
      <trkpt lat="49.41097" lon="-1.31287">
        <ele>28.4</ele>
        <time>2020-06-15T17:10:19Z</time>
      </trkpt>
      <trkpt lat="49.41092" lon="-1.31293">
        <ele>28.4</ele>
        <time>2020-06-15T17:10:20Z</time>
      </trkpt>
      <trkpt lat="49.41087" lon="-1.31297">
        <ele>28.3</ele>
        <time>2020-06-15T17:10:21Z</time>
      </trkpt>
      <trkpt lat="49.41082" lon="-1.31302">
        <ele>28.3</ele>
        <time>2020-06-15T17:10:22Z</time>
      </trkpt>
      <trkpt lat="49.41078" lon="-1.31308">
        <ele>28.3</ele>
        <time>2020-06-15T17:10:23Z</time>
      </trkpt>
      <trkpt lat="49.41073" lon="-1.31315">
        <ele>28.3</ele>
        <time>2020-06-15T17:10:24Z</time>
      </trkpt>
      <trkpt lat="49.41069" lon="-1.31319">
        <ele>28.3</ele>
        <time>2020-06-15T17:10:25Z</time>
      </trkpt>
      <trkpt lat="49.41064" lon="-1.31324">
        <ele>28.2</ele>
        <time>2020-06-15T17:10:26Z</time>
      </trkpt>
      <trkpt lat="49.4106" lon="-1.31329">
        <ele>28.2</ele>
        <time>2020-06-15T17:10:27Z</time>
      </trkpt>
      <trkpt lat="49.41055" lon="-1.31334">
        <ele>28.1</ele>
        <time>2020-06-15T17:10:28Z</time>
      </trkpt>
      <trkpt lat="49.41051" lon="-1.3134">
        <ele>28</ele>
        <time>2020-06-15T17:10:29Z</time>
      </trkpt>
      <trkpt lat="49.41048" lon="-1.31346">
        <ele>27.9</ele>
        <time>2020-06-15T17:10:30Z</time>
      </trkpt>
      <trkpt lat="49.41044" lon="-1.31353">
        <ele>27.8</ele>
        <time>2020-06-15T17:10:31Z</time>
      </trkpt>
      <trkpt lat="49.4104" lon="-1.31359">
        <ele>27.7</ele>
        <time>2020-06-15T17:10:32Z</time>
      </trkpt>
      <trkpt lat="49.41036" lon="-1.31366">
        <ele>27.7</ele>
        <time>2020-06-15T17:10:33Z</time>
      </trkpt>
      <trkpt lat="49.41033" lon="-1.31372">
        <ele>27.6</ele>
        <time>2020-06-15T17:10:34Z</time>
      </trkpt>
      <trkpt lat="49.41029" lon="-1.31378">
        <ele>27.5</ele>
        <time>2020-06-15T17:10:35Z</time>
      </trkpt>
      <trkpt lat="49.41025" lon="-1.31385">
        <ele>27.3</ele>
        <time>2020-06-15T17:10:36Z</time>
      </trkpt>
      <trkpt lat="49.41021" lon="-1.31393">
        <ele>27.2</ele>
        <time>2020-06-15T17:10:37Z</time>
      </trkpt>
      <trkpt lat="49.41017" lon="-1.31399">
        <ele>27</ele>
        <time>2020-06-15T17:10:38Z</time>
      </trkpt>
      <trkpt lat="49.41013" lon="-1.31407">
        <ele>26.9</ele>
        <time>2020-06-15T17:10:39Z</time>
      </trkpt>
      <trkpt lat="49.41008" lon="-1.31414">
        <ele>26.8</ele>
        <time>2020-06-15T17:10:40Z</time>
      </trkpt>
      <trkpt lat="49.41003" lon="-1.31422">
        <ele>26.6</ele>
        <time>2020-06-15T17:10:41Z</time>
      </trkpt>
      <trkpt lat="49.40998" lon="-1.31426">
        <ele>26.6</ele>
        <time>2020-06-15T17:10:42Z</time>
      </trkpt>
      <trkpt lat="49.40994" lon="-1.31432">
        <ele>26.5</ele>
        <time>2020-06-15T17:10:43Z</time>
      </trkpt>
      <trkpt lat="49.40988" lon="-1.31436">
        <ele>26.4</ele>
        <time>2020-06-15T17:10:44Z</time>
      </trkpt>
      <trkpt lat="49.40983" lon="-1.3144">
        <ele>26.4</ele>
        <time>2020-06-15T17:10:45Z</time>
      </trkpt>
      <trkpt lat="49.40977" lon="-1.31445">
        <ele>26.2</ele>
        <time>2020-06-15T17:10:46Z</time>
      </trkpt>
      <trkpt lat="49.40974" lon="-1.31448">
        <ele>26.1</ele>
        <time>2020-06-15T17:10:47Z</time>
      </trkpt>
      <trkpt lat="49.40969" lon="-1.31453">
        <ele>26.1</ele>
        <time>2020-06-15T17:10:48Z</time>
      </trkpt>
      <trkpt lat="49.40965" lon="-1.31457">
        <ele>26</ele>
        <time>2020-06-15T17:10:49Z</time>
      </trkpt>
      <trkpt lat="49.40962" lon="-1.31461">
        <ele>26</ele>
        <time>2020-06-15T17:10:50Z</time>
      </trkpt>
      <trkpt lat="49.40959" lon="-1.31465">
        <ele>26</ele>
        <time>2020-06-15T17:10:51Z</time>
      </trkpt>
      <trkpt lat="49.40957" lon="-1.31469">
        <ele>25.9</ele>
        <time>2020-06-15T17:10:52Z</time>
      </trkpt>
      <trkpt lat="49.40954" lon="-1.31474">
        <ele>25.9</ele>
        <time>2020-06-15T17:10:53Z</time>
      </trkpt>
      <trkpt lat="49.4095" lon="-1.3148">
        <ele>25.9</ele>
        <time>2020-06-15T17:10:54Z</time>
      </trkpt>
      <trkpt lat="49.40948" lon="-1.31485">
        <ele>25.9</ele>
        <time>2020-06-15T17:10:55Z</time>
      </trkpt>
      <trkpt lat="49.40945" lon="-1.3149">
        <ele>25.9</ele>
        <time>2020-06-15T17:10:56Z</time>
      </trkpt>
      <trkpt lat="49.40944" lon="-1.31499">
        <ele>25.7</ele>
        <time>2020-06-15T17:10:57Z</time>
      </trkpt>
      <trkpt lat="49.40945" lon="-1.31506">
        <ele>25.6</ele>
        <time>2020-06-15T17:10:58Z</time>
      </trkpt>
      <trkpt lat="49.40948" lon="-1.31514">
        <ele>25.4</ele>
        <time>2020-06-15T17:10:59Z</time>
      </trkpt>
      <trkpt lat="49.4095" lon="-1.31521">
        <ele>25.2</ele>
        <time>2020-06-15T17:11:00Z</time>
      </trkpt>
      <trkpt lat="49.40953" lon="-1.31526">
        <ele>25.1</ele>
        <time>2020-06-15T17:11:01Z</time>
      </trkpt>
      <trkpt lat="49.40955" lon="-1.31531">
        <ele>25</ele>
        <time>2020-06-15T17:11:02Z</time>
      </trkpt>
      <trkpt lat="49.40957" lon="-1.31535">
        <ele>24.9</ele>
        <time>2020-06-15T17:11:03Z</time>
      </trkpt>
      <trkpt lat="49.40959" lon="-1.3154">
        <ele>24.8</ele>
        <time>2020-06-15T17:11:04Z</time>
      </trkpt>
      <trkpt lat="49.40959" lon="-1.31546">
        <ele>24.7</ele>
        <time>2020-06-15T17:11:05Z</time>
      </trkpt>
      <trkpt lat="49.40959" lon="-1.31547">
        <ele>24.7</ele>
        <time>2020-06-15T17:11:06Z</time>
      </trkpt>
      <trkpt lat="49.40956" lon="-1.31553">
        <ele>24.8</ele>
        <time>2020-06-15T17:11:07Z</time>
      </trkpt>
      <trkpt lat="49.40955" lon="-1.31555">
        <ele>24.8</ele>
        <time>2020-06-15T17:11:08Z</time>
      </trkpt>
      <trkpt lat="49.40952" lon="-1.31557">
        <ele>24.8</ele>
        <time>2020-06-15T17:11:09Z</time>
      </trkpt>
      <trkpt lat="49.40949" lon="-1.3156">
        <ele>24.9</ele>
        <time>2020-06-15T17:11:10Z</time>
      </trkpt>
      <trkpt lat="49.40946" lon="-1.31564">
        <ele>24.9</ele>
        <time>2020-06-15T17:11:11Z</time>
      </trkpt>
      <trkpt lat="49.40943" lon="-1.31568">
        <ele>25</ele>
        <time>2020-06-15T17:11:12Z</time>
      </trkpt>
      <trkpt lat="49.40939" lon="-1.31571">
        <ele>25.1</ele>
        <time>2020-06-15T17:11:13Z</time>
      </trkpt>
      <trkpt lat="49.40935" lon="-1.31574">
        <ele>25.1</ele>
        <time>2020-06-15T17:11:14Z</time>
      </trkpt>
      <trkpt lat="49.40931" lon="-1.31577">
        <ele>25.2</ele>
        <time>2020-06-15T17:11:15Z</time>
      </trkpt>
      <trkpt lat="49.40927" lon="-1.3158">
        <ele>25.2</ele>
        <time>2020-06-15T17:11:16Z</time>
      </trkpt>
      <trkpt lat="49.40923" lon="-1.31583">
        <ele>25.3</ele>
        <time>2020-06-15T17:11:17Z</time>
      </trkpt>
      <trkpt lat="49.4092" lon="-1.31585">
        <ele>25.3</ele>
        <time>2020-06-15T17:11:18Z</time>
      </trkpt>
      <trkpt lat="49.40917" lon="-1.31588">
        <ele>25.4</ele>
        <time>2020-06-15T17:11:19Z</time>
      </trkpt>
      <trkpt lat="49.40915" lon="-1.31591">
        <ele>25.5</ele>
        <time>2020-06-15T17:11:20Z</time>
      </trkpt>
      <trkpt lat="49.40912" lon="-1.31594">
        <ele>25.5</ele>
        <time>2020-06-15T17:11:21Z</time>
      </trkpt>
      <trkpt lat="49.4091" lon="-1.31598">
        <ele>25.6</ele>
        <time>2020-06-15T17:11:22Z</time>
      </trkpt>
      <trkpt lat="49.40909" lon="-1.31604">
        <ele>25.5</ele>
        <time>2020-06-15T17:11:23Z</time>
      </trkpt>
      <trkpt lat="49.40909" lon="-1.31607">
        <ele>25.5</ele>
        <time>2020-06-15T17:11:24Z</time>
      </trkpt>
      <trkpt lat="49.40908" lon="-1.31613">
        <ele>25.5</ele>
        <time>2020-06-15T17:11:25Z</time>
      </trkpt>
      <trkpt lat="49.40907" lon="-1.31619">
        <ele>25.4</ele>
        <time>2020-06-15T17:11:26Z</time>
      </trkpt>
      <trkpt lat="49.40905" lon="-1.31624">
        <ele>25.4</ele>
        <time>2020-06-15T17:11:27Z</time>
      </trkpt>
      <trkpt lat="49.40904" lon="-1.31629">
        <ele>25.3</ele>
        <time>2020-06-15T17:11:28Z</time>
      </trkpt>
      <trkpt lat="49.40902" lon="-1.31635">
        <ele>25.2</ele>
        <time>2020-06-15T17:11:29Z</time>
      </trkpt>
      <trkpt lat="49.40899" lon="-1.31641">
        <ele>25.1</ele>
        <time>2020-06-15T17:11:30Z</time>
      </trkpt>
      <trkpt lat="49.40896" lon="-1.31647">
        <ele>24.9</ele>
        <time>2020-06-15T17:11:31Z</time>
      </trkpt>
      <trkpt lat="49.40894" lon="-1.31653">
        <ele>24.8</ele>
        <time>2020-06-15T17:11:32Z</time>
      </trkpt>
      <trkpt lat="49.40891" lon="-1.3166">
        <ele>24.6</ele>
        <time>2020-06-15T17:11:33Z</time>
      </trkpt>
      <trkpt lat="49.40889" lon="-1.31667">
        <ele>24.4</ele>
        <time>2020-06-15T17:11:34Z</time>
      </trkpt>
      <trkpt lat="49.40887" lon="-1.31674">
        <ele>24.3</ele>
        <time>2020-06-15T17:11:35Z</time>
      </trkpt>
      <trkpt lat="49.40884" lon="-1.3168">
        <ele>24.1</ele>
        <time>2020-06-15T17:11:36Z</time>
      </trkpt>
      <trkpt lat="49.40882" lon="-1.31686">
        <ele>24</ele>
        <time>2020-06-15T17:11:37Z</time>
      </trkpt>
      <trkpt lat="49.40879" lon="-1.31691">
        <ele>23.8</ele>
        <time>2020-06-15T17:11:38Z</time>
      </trkpt>
      <trkpt lat="49.40876" lon="-1.31698">
        <ele>23.7</ele>
        <time>2020-06-15T17:11:39Z</time>
      </trkpt>
      <trkpt lat="49.40874" lon="-1.31705">
        <ele>23.5</ele>
        <time>2020-06-15T17:11:40Z</time>
      </trkpt>
      <trkpt lat="49.4087" lon="-1.3171">
        <ele>23.4</ele>
        <time>2020-06-15T17:11:41Z</time>
      </trkpt>
      <trkpt lat="49.40866" lon="-1.31714">
        <ele>23.3</ele>
        <time>2020-06-15T17:11:42Z</time>
      </trkpt>
      <trkpt lat="49.40862" lon="-1.31718">
        <ele>23.2</ele>
        <time>2020-06-15T17:11:43Z</time>
      </trkpt>
      <trkpt lat="49.4086" lon="-1.31722">
        <ele>23.1</ele>
        <time>2020-06-15T17:11:44Z</time>
      </trkpt>
      <trkpt lat="49.40857" lon="-1.31725">
        <ele>23</ele>
        <time>2020-06-15T17:11:45Z</time>
      </trkpt>
      <trkpt lat="49.40856" lon="-1.31728">
        <ele>23</ele>
        <time>2020-06-15T17:11:46Z</time>
      </trkpt>
      <trkpt lat="49.40856" lon="-1.31729">
        <ele>22.9</ele>
        <time>2020-06-15T17:11:47Z</time>
      </trkpt>
      <trkpt lat="49.40855" lon="-1.3173">
        <ele>22.9</ele>
        <time>2020-06-15T17:11:48Z</time>
      </trkpt>
      <trkpt lat="49.40854" lon="-1.31731">
        <ele>22.9</ele>
        <time>2020-06-15T17:11:49Z</time>
      </trkpt>
      <trkpt lat="49.40854" lon="-1.31733">
        <ele>22.9</ele>
        <time>2020-06-15T17:11:50Z</time>
      </trkpt>
      <trkpt lat="49.40854" lon="-1.31735">
        <ele>22.8</ele>
        <time>2020-06-15T17:11:51Z</time>
      </trkpt>
      <trkpt lat="49.40853" lon="-1.31736">
        <ele>22.8</ele>
        <time>2020-06-15T17:11:52Z</time>
      </trkpt>
      <trkpt lat="49.40853" lon="-1.31736">
        <ele>22.8</ele>
        <time>2020-06-15T17:11:53Z</time>
      </trkpt>
      <trkpt lat="49.40852" lon="-1.31736">
        <ele>22.8</ele>
        <time>2020-06-15T17:11:54Z</time>
      </trkpt>
      <trkpt lat="49.40852" lon="-1.31737">
        <ele>22.8</ele>
        <time>2020-06-15T17:11:55Z</time>
      </trkpt>
      <trkpt lat="49.40851" lon="-1.31738">
        <ele>22.8</ele>
        <time>2020-06-15T17:11:56Z</time>
      </trkpt>
      <trkpt lat="49.40851" lon="-1.31741">
        <ele>22.7</ele>
        <time>2020-06-15T17:11:57Z</time>
      </trkpt>
      <trkpt lat="49.40851" lon="-1.31742">
        <ele>22.7</ele>
        <time>2020-06-15T17:11:58Z</time>
      </trkpt>
      <trkpt lat="49.40851" lon="-1.31744">
        <ele>22.7</ele>
        <time>2020-06-15T17:11:59Z</time>
      </trkpt>
      <trkpt lat="49.40851" lon="-1.31745">
        <ele>22.7</ele>
        <time>2020-06-15T17:12:00Z</time>
      </trkpt>
      <trkpt lat="49.40851" lon="-1.31746">
        <ele>22.6</ele>
        <time>2020-06-15T17:12:01Z</time>
      </trkpt>
      <trkpt lat="49.40852" lon="-1.31746">
        <ele>22.6</ele>
        <time>2020-06-15T17:12:02Z</time>
      </trkpt>
      <trkpt lat="49.40852" lon="-1.31747">
        <ele>22.6</ele>
        <time>2020-06-15T17:12:03Z</time>
      </trkpt>
      <trkpt lat="49.40852" lon="-1.31747">
        <ele>22.6</ele>
        <time>2020-06-15T17:12:04Z</time>
      </trkpt>
      <trkpt lat="49.4085" lon="-1.31749">
        <ele>22.6</ele>
        <time>2020-06-15T17:12:05Z</time>
      </trkpt>
      <trkpt lat="49.40849" lon="-1.31751">
        <ele>22.5</ele>
        <time>2020-06-15T17:12:06Z</time>
      </trkpt>
      <trkpt lat="49.40848" lon="-1.31752">
        <ele>22.5</ele>
        <time>2020-06-15T17:12:07Z</time>
      </trkpt>
      <trkpt lat="49.40847" lon="-1.31755">
        <ele>22.5</ele>
        <time>2020-06-15T17:12:08Z</time>
      </trkpt>
      <trkpt lat="49.40846" lon="-1.31756">
        <ele>22.5</ele>
        <time>2020-06-15T17:12:09Z</time>
      </trkpt>
      <trkpt lat="49.40845" lon="-1.31756">
        <ele>23</ele>
        <time>2020-06-15T17:12:10Z</time>
      </trkpt>
      <trkpt lat="49.40844" lon="-1.31755">
        <ele>23.1</ele>
        <time>2020-06-15T17:12:11Z</time>
      </trkpt>
      <trkpt lat="49.40844" lon="-1.31754">
        <ele>23.1</ele>
        <time>2020-06-15T17:12:12Z</time>
      </trkpt>
      <trkpt lat="49.40843" lon="-1.31752">
        <ele>23.1</ele>
        <time>2020-06-15T17:12:13Z</time>
      </trkpt>
      <trkpt lat="49.40843" lon="-1.31751">
        <ele>23.2</ele>
        <time>2020-06-15T17:12:14Z</time>
      </trkpt>
      <trkpt lat="49.40843" lon="-1.3175">
        <ele>23.2</ele>
        <time>2020-06-15T17:12:15Z</time>
      </trkpt>
      <trkpt lat="49.40843" lon="-1.31749">
        <ele>23.2</ele>
        <time>2020-06-15T17:12:16Z</time>
      </trkpt>
      <trkpt lat="49.40843" lon="-1.31746">
        <ele>23.3</ele>
        <time>2020-06-15T17:12:17Z</time>
      </trkpt>
      <trkpt lat="49.40843" lon="-1.31745">
        <ele>23.3</ele>
        <time>2020-06-15T17:12:18Z</time>
      </trkpt>
      <trkpt lat="49.40842" lon="-1.31743">
        <ele>23.4</ele>
        <time>2020-06-15T17:12:19Z</time>
      </trkpt>
      <trkpt lat="49.40841" lon="-1.31741">
        <ele>23.4</ele>
        <time>2020-06-15T17:12:20Z</time>
      </trkpt>
      <trkpt lat="49.40841" lon="-1.3174">
        <ele>23.5</ele>
        <time>2020-06-15T17:12:21Z</time>
      </trkpt>
      <trkpt lat="49.40841" lon="-1.3174">
        <ele>23.5</ele>
        <time>2020-06-15T17:12:22Z</time>
      </trkpt>
      <trkpt lat="49.40841" lon="-1.3174">
        <ele>23.5</ele>
        <time>2020-06-15T17:12:23Z</time>
      </trkpt>
      <trkpt lat="49.40841" lon="-1.3174">
        <ele>23.5</ele>
        <time>2020-06-15T17:12:24Z</time>
      </trkpt>
      <trkpt lat="49.40841" lon="-1.3174">
        <ele>23.5</ele>
        <time>2020-06-15T17:12:25Z</time>
      </trkpt>
      <trkpt lat="49.40841" lon="-1.3174">
        <ele>23.5</ele>
        <time>2020-06-15T17:12:26Z</time>
      </trkpt>
      <trkpt lat="49.40841" lon="-1.3174">
        <ele>23.5</ele>
        <time>2020-06-15T17:12:27Z</time>
      </trkpt>
      <trkpt lat="49.40841" lon="-1.3174">
        <ele>23.5</ele>
        <time>2020-06-15T17:12:28Z</time>
      </trkpt>
      <trkpt lat="49.40842" lon="-1.31739">
        <ele>23.5</ele>
        <time>2020-06-15T17:12:29Z</time>
      </trkpt>
      <trkpt lat="49.40841" lon="-1.31739">
        <ele>23.5</ele>
        <time>2020-06-15T17:12:30Z</time>
      </trkpt>
      <trkpt lat="49.40842" lon="-1.31739">
        <ele>23.5</ele>
        <time>2020-06-15T17:12:31Z</time>
      </trkpt>
      <trkpt lat="49.40842" lon="-1.31739">
        <ele>23.5</ele>
        <time>2020-06-15T17:12:32Z</time>
      </trkpt>
      <trkpt lat="49.4084" lon="-1.31735">
        <ele>23.7</ele>
        <time>2020-06-15T17:13:04Z</time>
      </trkpt>
      <trkpt lat="49.40839" lon="-1.31735">
        <ele>23.7</ele>
        <time>2020-06-15T17:13:05Z</time>
      </trkpt>
      <trkpt lat="49.40838" lon="-1.31734">
        <ele>23.8</ele>
        <time>2020-06-15T17:13:06Z</time>
      </trkpt>
      <trkpt lat="49.40836" lon="-1.31734">
        <ele>23.8</ele>
        <time>2020-06-15T17:13:07Z</time>
      </trkpt>
      <trkpt lat="49.40835" lon="-1.31733">
        <ele>23.9</ele>
        <time>2020-06-15T17:13:08Z</time>
      </trkpt>
      <trkpt lat="49.40833" lon="-1.31733">
        <ele>24</ele>
        <time>2020-06-15T17:13:09Z</time>
      </trkpt>
      <trkpt lat="49.40832" lon="-1.31733">
        <ele>24</ele>
        <time>2020-06-15T17:13:10Z</time>
      </trkpt>
      <trkpt lat="49.40831" lon="-1.31732">
        <ele>24</ele>
        <time>2020-06-15T17:13:11Z</time>
      </trkpt>
      <trkpt lat="49.4083" lon="-1.31732">
        <ele>24.1</ele>
        <time>2020-06-15T17:13:12Z</time>
      </trkpt>
      <trkpt lat="49.40828" lon="-1.31731">
        <ele>24.1</ele>
        <time>2020-06-15T17:13:13Z</time>
      </trkpt>
      <trkpt lat="49.40827" lon="-1.3173">
        <ele>24.2</ele>
        <time>2020-06-15T17:13:14Z</time>
      </trkpt>
      <trkpt lat="49.40825" lon="-1.31729">
        <ele>24.3</ele>
        <time>2020-06-15T17:13:15Z</time>
      </trkpt>
      <trkpt lat="49.40823" lon="-1.31726">
        <ele>24.4</ele>
        <time>2020-06-15T17:13:16Z</time>
      </trkpt>
      <trkpt lat="49.40822" lon="-1.31725">
        <ele>24.5</ele>
        <time>2020-06-15T17:13:17Z</time>
      </trkpt>
      <trkpt lat="49.4082" lon="-1.31724">
        <ele>24.6</ele>
        <time>2020-06-15T17:13:18Z</time>
      </trkpt>
      <trkpt lat="49.40819" lon="-1.31722">
        <ele>24.6</ele>
        <time>2020-06-15T17:13:19Z</time>
      </trkpt>
      <trkpt lat="49.40818" lon="-1.31721">
        <ele>24.7</ele>
        <time>2020-06-15T17:13:20Z</time>
      </trkpt>
      <trkpt lat="49.40817" lon="-1.3172">
        <ele>24.7</ele>
        <time>2020-06-15T17:13:21Z</time>
      </trkpt>
      <trkpt lat="49.40817" lon="-1.31719">
        <ele>24.7</ele>
        <time>2020-06-15T17:13:22Z</time>
      </trkpt>
      <trkpt lat="49.40815" lon="-1.31717">
        <ele>24.8</ele>
        <time>2020-06-15T17:13:23Z</time>
      </trkpt>
      <trkpt lat="49.40814" lon="-1.31716">
        <ele>24.9</ele>
        <time>2020-06-15T17:13:24Z</time>
      </trkpt>
      <trkpt lat="49.40814" lon="-1.31715">
        <ele>24.9</ele>
        <time>2020-06-15T17:13:25Z</time>
      </trkpt>
      <trkpt lat="49.40812" lon="-1.31714">
        <ele>25</ele>
        <time>2020-06-15T17:13:26Z</time>
      </trkpt>
      <trkpt lat="49.40812" lon="-1.31714">
        <ele>25.4</ele>
        <time>2020-06-15T17:13:27Z</time>
      </trkpt>
      <trkpt lat="49.40811" lon="-1.31713">
        <ele>25.4</ele>
        <time>2020-06-15T17:13:28Z</time>
      </trkpt>
      <trkpt lat="49.4081" lon="-1.31712">
        <ele>25.4</ele>
        <time>2020-06-15T17:13:29Z</time>
      </trkpt>
      <trkpt lat="49.4081" lon="-1.31711">
        <ele>25.4</ele>
        <time>2020-06-15T17:13:30Z</time>
      </trkpt>
      <trkpt lat="49.40809" lon="-1.31711">
        <ele>25.4</ele>
        <time>2020-06-15T17:13:31Z</time>
      </trkpt>
      <trkpt lat="49.40809" lon="-1.31711">
        <ele>25.4</ele>
        <time>2020-06-15T17:13:32Z</time>
      </trkpt>
      <trkpt lat="49.40809" lon="-1.3171">
        <ele>25.5</ele>
        <time>2020-06-15T17:13:33Z</time>
      </trkpt>
      <trkpt lat="49.40808" lon="-1.31709">
        <ele>25.5</ele>
        <time>2020-06-15T17:13:34Z</time>
      </trkpt>
      <trkpt lat="49.40809" lon="-1.31708">
        <ele>25.5</ele>
        <time>2020-06-15T17:13:35Z</time>
      </trkpt>
      <trkpt lat="49.40809" lon="-1.31708">
        <ele>25.5</ele>
        <time>2020-06-15T17:13:36Z</time>
      </trkpt>
      <trkpt lat="49.40808" lon="-1.31708">
        <ele>25.5</ele>
        <time>2020-06-15T17:13:37Z</time>
      </trkpt>
      <trkpt lat="49.40808" lon="-1.31707">
        <ele>25.5</ele>
        <time>2020-06-15T17:13:38Z</time>
      </trkpt>
      <trkpt lat="49.40808" lon="-1.31707">
        <ele>25.5</ele>
        <time>2020-06-15T17:13:39Z</time>
      </trkpt>
      <trkpt lat="49.40807" lon="-1.31706">
        <ele>25.5</ele>
        <time>2020-06-15T17:13:40Z</time>
      </trkpt>
      <trkpt lat="49.40807" lon="-1.31706">
        <ele>25.5</ele>
        <time>2020-06-15T17:13:41Z</time>
      </trkpt>
      <trkpt lat="49.40807" lon="-1.31705">
        <ele>25.5</ele>
        <time>2020-06-15T17:13:42Z</time>
      </trkpt>
      <trkpt lat="49.40808" lon="-1.31705">
        <ele>25.5</ele>
        <time>2020-06-15T17:13:43Z</time>
      </trkpt>
      <trkpt lat="49.40808" lon="-1.31705">
        <ele>25.5</ele>
        <time>2020-06-15T17:13:44Z</time>
      </trkpt>
      <trkpt lat="49.40808" lon="-1.31705">
        <ele>25.5</ele>
        <time>2020-06-15T17:13:45Z</time>
      </trkpt>
      <trkpt lat="49.40808" lon="-1.31705">
        <ele>25.5</ele>
        <time>2020-06-15T17:13:46Z</time>
      </trkpt>
      <trkpt lat="49.40808" lon="-1.31705">
        <ele>25.5</ele>
        <time>2020-06-15T17:13:47Z</time>
      </trkpt>
      <trkpt lat="49.40808" lon="-1.31705">
        <ele>25.5</ele>
        <time>2020-06-15T17:13:48Z</time>
      </trkpt>
      <trkpt lat="49.40808" lon="-1.31706">
        <ele>25.5</ele>
        <time>2020-06-15T17:13:49Z</time>
      </trkpt>
      <trkpt lat="49.40808" lon="-1.31706">
        <ele>25.5</ele>
        <time>2020-06-15T17:13:50Z</time>
      </trkpt>
      <trkpt lat="49.40808" lon="-1.31706">
        <ele>25.5</ele>
        <time>2020-06-15T17:13:51Z</time>
      </trkpt>
      <trkpt lat="49.40808" lon="-1.31706">
        <ele>25.5</ele>
        <time>2020-06-15T17:13:52Z</time>
      </trkpt>
      <trkpt lat="49.40808" lon="-1.31706">
        <ele>25.5</ele>
        <time>2020-06-15T17:13:53Z</time>
      </trkpt>
      <trkpt lat="49.40808" lon="-1.31706">
        <ele>25.6</ele>
        <time>2020-06-15T17:13:54Z</time>
      </trkpt>
      <trkpt lat="49.40808" lon="-1.31706">
        <ele>25.6</ele>
        <time>2020-06-15T17:13:55Z</time>
      </trkpt>
      <trkpt lat="49.40808" lon="-1.31707">
        <ele>25.6</ele>
        <time>2020-06-15T17:13:56Z</time>
      </trkpt>
      <trkpt lat="49.40808" lon="-1.31708">
        <ele>25.6</ele>
        <time>2020-06-15T17:13:57Z</time>
      </trkpt>
      <trkpt lat="49.40808" lon="-1.31707">
        <ele>25.6</ele>
        <time>2020-06-15T17:13:58Z</time>
      </trkpt>
      <trkpt lat="49.40808" lon="-1.31706">
        <ele>25.6</ele>
        <time>2020-06-15T17:13:59Z</time>
      </trkpt>
      <trkpt lat="49.40808" lon="-1.31705">
        <ele>25.6</ele>
        <time>2020-06-15T17:14:00Z</time>
      </trkpt>
      <trkpt lat="49.40812" lon="-1.31701">
        <ele>25.7</ele>
        <time>2020-06-15T17:14:05Z</time>
      </trkpt>
      <trkpt lat="49.40813" lon="-1.31698">
        <ele>25.7</ele>
        <time>2020-06-15T17:14:06Z</time>
      </trkpt>
      <trkpt lat="49.40814" lon="-1.31695">
        <ele>25.7</ele>
        <time>2020-06-15T17:14:07Z</time>
      </trkpt>
      <trkpt lat="49.40814" lon="-1.31693">
        <ele>25.7</ele>
        <time>2020-06-15T17:14:08Z</time>
      </trkpt>
      <trkpt lat="49.40817" lon="-1.31689">
        <ele>25.7</ele>
        <time>2020-06-15T17:14:09Z</time>
      </trkpt>
      <trkpt lat="49.40817" lon="-1.31688">
        <ele>25.8</ele>
        <time>2020-06-15T17:14:10Z</time>
      </trkpt>
      <trkpt lat="49.40819" lon="-1.31683">
        <ele>25.8</ele>
        <time>2020-06-15T17:14:11Z</time>
      </trkpt>
      <trkpt lat="49.40819" lon="-1.31682">
        <ele>25.9</ele>
        <time>2020-06-15T17:14:12Z</time>
      </trkpt>
      <trkpt lat="49.40819" lon="-1.3168">
        <ele>25.9</ele>
        <time>2020-06-15T17:14:13Z</time>
      </trkpt>
      <trkpt lat="49.40819" lon="-1.31678">
        <ele>25.9</ele>
        <time>2020-06-15T17:14:14Z</time>
      </trkpt>
      <trkpt lat="49.40819" lon="-1.31676">
        <ele>25.9</ele>
        <time>2020-06-15T17:14:15Z</time>
      </trkpt>
      <trkpt lat="49.40819" lon="-1.31675">
        <ele>26</ele>
        <time>2020-06-15T17:14:16Z</time>
      </trkpt>
      <trkpt lat="49.4082" lon="-1.31674">
        <ele>26.1</ele>
        <time>2020-06-15T17:14:17Z</time>
      </trkpt>
      <trkpt lat="49.4082" lon="-1.31673">
        <ele>26.1</ele>
        <time>2020-06-15T17:14:18Z</time>
      </trkpt>
      <trkpt lat="49.40821" lon="-1.31673">
        <ele>26.1</ele>
        <time>2020-06-15T17:14:19Z</time>
      </trkpt>
      <trkpt lat="49.40822" lon="-1.31672">
        <ele>26.1</ele>
        <time>2020-06-15T17:14:20Z</time>
      </trkpt>
      <trkpt lat="49.40822" lon="-1.31671">
        <ele>26.1</ele>
        <time>2020-06-15T17:14:21Z</time>
      </trkpt>
      <trkpt lat="49.40822" lon="-1.31671">
        <ele>26.1</ele>
        <time>2020-06-15T17:14:22Z</time>
      </trkpt>
      <trkpt lat="49.40822" lon="-1.3167">
        <ele>26.1</ele>
        <time>2020-06-15T17:14:23Z</time>
      </trkpt>
      <trkpt lat="49.40823" lon="-1.3167">
        <ele>26.1</ele>
        <time>2020-06-15T17:14:24Z</time>
      </trkpt>
      <trkpt lat="49.40823" lon="-1.31669">
        <ele>26.1</ele>
        <time>2020-06-15T17:14:25Z</time>
      </trkpt>
      <trkpt lat="49.40823" lon="-1.31668">
        <ele>26.1</ele>
        <time>2020-06-15T17:14:26Z</time>
      </trkpt>
      <trkpt lat="49.40824" lon="-1.31668">
        <ele>26.1</ele>
        <time>2020-06-15T17:14:27Z</time>
      </trkpt>
      <trkpt lat="49.40824" lon="-1.31667">
        <ele>26.1</ele>
        <time>2020-06-15T17:14:28Z</time>
      </trkpt>
      <trkpt lat="49.40824" lon="-1.31667">
        <ele>26.1</ele>
        <time>2020-06-15T17:14:29Z</time>
      </trkpt>
      <trkpt lat="49.40824" lon="-1.31666">
        <ele>26.1</ele>
        <time>2020-06-15T17:14:30Z</time>
      </trkpt>
      <trkpt lat="49.40825" lon="-1.31665">
        <ele>26.1</ele>
        <time>2020-06-15T17:14:43Z</time>
      </trkpt>
      <trkpt lat="49.40825" lon="-1.31665">
        <ele>26.1</ele>
        <time>2020-06-15T17:14:44Z</time>
      </trkpt>
      <trkpt lat="49.40825" lon="-1.31664">
        <ele>26.1</ele>
        <time>2020-06-15T17:14:45Z</time>
      </trkpt>
      <trkpt lat="49.40826" lon="-1.31662">
        <ele>26.4</ele>
        <time>2020-06-15T17:14:46Z</time>
      </trkpt>
      <trkpt lat="49.40827" lon="-1.31661">
        <ele>26.4</ele>
        <time>2020-06-15T17:14:47Z</time>
      </trkpt>
      <trkpt lat="49.40829" lon="-1.31659">
        <ele>26.4</ele>
        <time>2020-06-15T17:14:48Z</time>
      </trkpt>
      <trkpt lat="49.4083" lon="-1.31659">
        <ele>26.4</ele>
        <time>2020-06-15T17:14:49Z</time>
      </trkpt>
      <trkpt lat="49.40831" lon="-1.31659">
        <ele>26</ele>
        <time>2020-06-15T17:14:50Z</time>
      </trkpt>
      <trkpt lat="49.40832" lon="-1.31658">
        <ele>26</ele>
        <time>2020-06-15T17:14:51Z</time>
      </trkpt>
      <trkpt lat="49.40833" lon="-1.31658">
        <ele>26</ele>
        <time>2020-06-15T17:14:52Z</time>
      </trkpt>
      <trkpt lat="49.40833" lon="-1.31658">
        <ele>26</ele>
        <time>2020-06-15T17:14:53Z</time>
      </trkpt>
      <trkpt lat="49.40834" lon="-1.31658">
        <ele>26</ele>
        <time>2020-06-15T17:14:54Z</time>
      </trkpt>
      <trkpt lat="49.40836" lon="-1.31658">
        <ele>25.9</ele>
        <time>2020-06-15T17:14:55Z</time>
      </trkpt>
      <trkpt lat="49.40837" lon="-1.31659">
        <ele>25.9</ele>
        <time>2020-06-15T17:14:56Z</time>
      </trkpt>
      <trkpt lat="49.40838" lon="-1.3166">
        <ele>25.9</ele>
        <time>2020-06-15T17:14:57Z</time>
      </trkpt>
      <trkpt lat="49.40839" lon="-1.31661">
        <ele>25.9</ele>
        <time>2020-06-15T17:14:58Z</time>
      </trkpt>
      <trkpt lat="49.40841" lon="-1.31661">
        <ele>25.9</ele>
        <time>2020-06-15T17:14:59Z</time>
      </trkpt>
      <trkpt lat="49.40842" lon="-1.31662">
        <ele>25.9</ele>
        <time>2020-06-15T17:15:00Z</time>
      </trkpt>
      <trkpt lat="49.40843" lon="-1.31663">
        <ele>25.9</ele>
        <time>2020-06-15T17:15:01Z</time>
      </trkpt>
      <trkpt lat="49.40844" lon="-1.31664">
        <ele>25.9</ele>
        <time>2020-06-15T17:15:27Z</time>
      </trkpt>
      <trkpt lat="49.40846" lon="-1.31665">
        <ele>25.9</ele>
        <time>2020-06-15T17:15:28Z</time>
      </trkpt>
      <trkpt lat="49.4085" lon="-1.31665">
        <ele>25.9</ele>
        <time>2020-06-15T17:15:29Z</time>
      </trkpt>
      <trkpt lat="49.40851" lon="-1.31665">
        <ele>25.9</ele>
        <time>2020-06-15T17:15:30Z</time>
      </trkpt>
      <trkpt lat="49.40854" lon="-1.31666">
        <ele>26</ele>
        <time>2020-06-15T17:15:31Z</time>
      </trkpt>
      <trkpt lat="49.40856" lon="-1.31665">
        <ele>26</ele>
        <time>2020-06-15T17:15:32Z</time>
      </trkpt>
      <trkpt lat="49.40857" lon="-1.31665">
        <ele>26</ele>
        <time>2020-06-15T17:15:33Z</time>
      </trkpt>
      <trkpt lat="49.40859" lon="-1.31666">
        <ele>26</ele>
        <time>2020-06-15T17:15:34Z</time>
      </trkpt>
      <trkpt lat="49.4086" lon="-1.31666">
        <ele>26</ele>
        <time>2020-06-15T17:15:35Z</time>
      </trkpt>
      <trkpt lat="49.4086" lon="-1.31666">
        <ele>26</ele>
        <time>2020-06-15T17:15:36Z</time>
      </trkpt>
      <trkpt lat="49.40861" lon="-1.31667">
        <ele>26</ele>
        <time>2020-06-15T17:15:37Z</time>
      </trkpt>
      <trkpt lat="49.40862" lon="-1.31667">
        <ele>26</ele>
        <time>2020-06-15T17:15:38Z</time>
      </trkpt>
      <trkpt lat="49.40862" lon="-1.31667">
        <ele>26</ele>
        <time>2020-06-15T17:15:39Z</time>
      </trkpt>
      <trkpt lat="49.40863" lon="-1.31667">
        <ele>26</ele>
        <time>2020-06-15T17:15:40Z</time>
      </trkpt>
      <trkpt lat="49.40863" lon="-1.31668">
        <ele>26</ele>
        <time>2020-06-15T17:15:41Z</time>
      </trkpt>
      <trkpt lat="49.40863" lon="-1.31669">
        <ele>26</ele>
        <time>2020-06-15T17:15:42Z</time>
      </trkpt>
      <trkpt lat="49.40863" lon="-1.3167">
        <ele>26</ele>
        <time>2020-06-15T17:15:43Z</time>
      </trkpt>
      <trkpt lat="49.40864" lon="-1.3167">
        <ele>26</ele>
        <time>2020-06-15T17:15:44Z</time>
      </trkpt>
      <trkpt lat="49.40864" lon="-1.3167">
        <ele>26</ele>
        <time>2020-06-15T17:15:45Z</time>
      </trkpt>
      <trkpt lat="49.40864" lon="-1.3167">
        <ele>26</ele>
        <time>2020-06-15T17:15:46Z</time>
      </trkpt>
      <trkpt lat="49.40864" lon="-1.3167">
        <ele>26</ele>
        <time>2020-06-15T17:15:47Z</time>
      </trkpt>
      <trkpt lat="49.40864" lon="-1.3167">
        <ele>26</ele>
        <time>2020-06-15T17:15:48Z</time>
      </trkpt>
      <trkpt lat="49.40864" lon="-1.3167">
        <ele>26</ele>
        <time>2020-06-15T17:15:49Z</time>
      </trkpt>
      <trkpt lat="49.40863" lon="-1.3167">
        <ele>26</ele>
        <time>2020-06-15T17:15:50Z</time>
      </trkpt>
      <trkpt lat="49.40861" lon="-1.3166">
        <ele>26.2</ele>
        <time>2020-06-15T17:16:00Z</time>
      </trkpt>
      <trkpt lat="49.40862" lon="-1.31657">
        <ele>26.3</ele>
        <time>2020-06-15T17:16:01Z</time>
      </trkpt>
      <trkpt lat="49.40862" lon="-1.31652">
        <ele>26.3</ele>
        <time>2020-06-15T17:16:02Z</time>
      </trkpt>
      <trkpt lat="49.40862" lon="-1.3165">
        <ele>26.4</ele>
        <time>2020-06-15T17:16:03Z</time>
      </trkpt>
      <trkpt lat="49.40862" lon="-1.31647">
        <ele>26.4</ele>
        <time>2020-06-15T17:16:04Z</time>
      </trkpt>
      <trkpt lat="49.40863" lon="-1.31645">
        <ele>26.4</ele>
        <time>2020-06-15T17:16:05Z</time>
      </trkpt>
      <trkpt lat="49.40864" lon="-1.31643">
        <ele>26.4</ele>
        <time>2020-06-15T17:16:06Z</time>
      </trkpt>
      <trkpt lat="49.40865" lon="-1.31641">
        <ele>26.4</ele>
        <time>2020-06-15T17:16:07Z</time>
      </trkpt>
      <trkpt lat="49.40866" lon="-1.3164">
        <ele>26.3</ele>
        <time>2020-06-15T17:16:08Z</time>
      </trkpt>
      <trkpt lat="49.40867" lon="-1.31639">
        <ele>26.3</ele>
        <time>2020-06-15T17:16:09Z</time>
      </trkpt>
      <trkpt lat="49.40868" lon="-1.31638">
        <ele>26.3</ele>
        <time>2020-06-15T17:16:10Z</time>
      </trkpt>
      <trkpt lat="49.40869" lon="-1.31639">
        <ele>26.2</ele>
        <time>2020-06-15T17:16:11Z</time>
      </trkpt>
      <trkpt lat="49.4087" lon="-1.31639">
        <ele>26.2</ele>
        <time>2020-06-15T17:16:12Z</time>
      </trkpt>
      <trkpt lat="49.4087" lon="-1.3164">
        <ele>26.2</ele>
        <time>2020-06-15T17:16:13Z</time>
      </trkpt>
      <trkpt lat="49.40871" lon="-1.31641">
        <ele>26.2</ele>
        <time>2020-06-15T17:16:14Z</time>
      </trkpt>
      <trkpt lat="49.40872" lon="-1.31643">
        <ele>26.1</ele>
        <time>2020-06-15T17:16:15Z</time>
      </trkpt>
      <trkpt lat="49.40872" lon="-1.31644">
        <ele>26.1</ele>
        <time>2020-06-15T17:16:16Z</time>
      </trkpt>
      <trkpt lat="49.40872" lon="-1.31644">
        <ele>26.1</ele>
        <time>2020-06-15T17:16:17Z</time>
      </trkpt>
      <trkpt lat="49.40872" lon="-1.31645">
        <ele>26</ele>
        <time>2020-06-15T17:16:18Z</time>
      </trkpt>
      <trkpt lat="49.40872" lon="-1.31645">
        <ele>26</ele>
        <time>2020-06-15T17:16:19Z</time>
      </trkpt>
      <trkpt lat="49.40872" lon="-1.31646">
        <ele>26</ele>
        <time>2020-06-15T17:16:20Z</time>
      </trkpt>
      <trkpt lat="49.40872" lon="-1.31645">
        <ele>26</ele>
        <time>2020-06-15T17:16:21Z</time>
      </trkpt>
      <trkpt lat="49.40872" lon="-1.31645">
        <ele>26</ele>
        <time>2020-06-15T17:16:22Z</time>
      </trkpt>
      <trkpt lat="49.40873" lon="-1.31646">
        <ele>26</ele>
        <time>2020-06-15T17:16:23Z</time>
      </trkpt>
      <trkpt lat="49.40873" lon="-1.31645">
        <ele>26</ele>
        <time>2020-06-15T17:16:24Z</time>
      </trkpt>
      <trkpt lat="49.40874" lon="-1.31645">
        <ele>25.9</ele>
        <time>2020-06-15T17:16:25Z</time>
      </trkpt>
      <trkpt lat="49.40874" lon="-1.31644">
        <ele>25.9</ele>
        <time>2020-06-15T17:16:26Z</time>
      </trkpt>
      <trkpt lat="49.40874" lon="-1.31645">
        <ele>25.9</ele>
        <time>2020-06-15T17:16:27Z</time>
      </trkpt>
      <trkpt lat="49.40875" lon="-1.31645">
        <ele>25.9</ele>
        <time>2020-06-15T17:16:28Z</time>
      </trkpt>
      <trkpt lat="49.40874" lon="-1.31644">
        <ele>25.9</ele>
        <time>2020-06-15T17:16:29Z</time>
      </trkpt>
      <trkpt lat="49.40874" lon="-1.31644">
        <ele>25.9</ele>
        <time>2020-06-15T17:16:30Z</time>
      </trkpt>
      <trkpt lat="49.40875" lon="-1.31641">
        <ele>25.9</ele>
        <time>2020-06-15T17:16:31Z</time>
      </trkpt>
      <trkpt lat="49.40875" lon="-1.31637">
        <ele>25.9</ele>
        <time>2020-06-15T17:16:32Z</time>
      </trkpt>
      <trkpt lat="49.40875" lon="-1.31634">
        <ele>26</ele>
        <time>2020-06-15T17:16:33Z</time>
      </trkpt>
      <trkpt lat="49.40875" lon="-1.31631">
        <ele>26</ele>
        <time>2020-06-15T17:16:34Z</time>
      </trkpt>
      <trkpt lat="49.40641" lon="-1.31319">
        <ele>24.7</ele>
        <time>2020-06-15T17:19:48Z</time>
      </trkpt>
      <trkpt lat="49.40638" lon="-1.31326">
        <ele>24.7</ele>
        <time>2020-06-15T17:19:49Z</time>
      </trkpt>
      <trkpt lat="49.40637" lon="-1.31328">
        <ele>24.7</ele>
        <time>2020-06-15T17:19:50Z</time>
      </trkpt>
      <trkpt lat="49.40636" lon="-1.31331">
        <ele>24.7</ele>
        <time>2020-06-15T17:19:51Z</time>
      </trkpt>
      <trkpt lat="49.40636" lon="-1.31333">
        <ele>24.7</ele>
        <time>2020-06-15T17:19:52Z</time>
      </trkpt>
      <trkpt lat="49.40636" lon="-1.31337">
        <ele>24.7</ele>
        <time>2020-06-15T17:19:53Z</time>
      </trkpt>
      <trkpt lat="49.40637" lon="-1.31338">
        <ele>24.7</ele>
        <time>2020-06-15T17:19:54Z</time>
      </trkpt>
      <trkpt lat="49.40639" lon="-1.31338">
        <ele>24.7</ele>
        <time>2020-06-15T17:19:55Z</time>
      </trkpt>
      <trkpt lat="49.40641" lon="-1.31337">
        <ele>24.7</ele>
        <time>2020-06-15T17:19:56Z</time>
      </trkpt>
      <trkpt lat="49.40643" lon="-1.31335">
        <ele>24.8</ele>
        <time>2020-06-15T17:19:57Z</time>
      </trkpt>
      <trkpt lat="49.40646" lon="-1.31334">
        <ele>24.7</ele>
        <time>2020-06-15T17:19:58Z</time>
      </trkpt>
      <trkpt lat="49.40649" lon="-1.31334">
        <ele>24.8</ele>
        <time>2020-06-15T17:19:59Z</time>
      </trkpt>
      <trkpt lat="49.4065" lon="-1.31337">
        <ele>24.8</ele>
        <time>2020-06-15T17:20:00Z</time>
      </trkpt>
      <trkpt lat="49.40652" lon="-1.31338">
        <ele>24.8</ele>
        <time>2020-06-15T17:20:01Z</time>
      </trkpt>
      <trkpt lat="49.40658" lon="-1.31346">
        <ele>24.9</ele>
        <time>2020-06-15T17:20:02Z</time>
      </trkpt>
      <trkpt lat="49.40663" lon="-1.31355">
        <ele>25</ele>
        <time>2020-06-15T17:20:03Z</time>
      </trkpt>
      <trkpt lat="49.40667" lon="-1.31364">
        <ele>25</ele>
        <time>2020-06-15T17:20:04Z</time>
      </trkpt>
      <trkpt lat="49.40672" lon="-1.31372">
        <ele>25.1</ele>
        <time>2020-06-15T17:20:05Z</time>
      </trkpt>
      <trkpt lat="49.40675" lon="-1.31369">
        <ele>25.1</ele>
        <time>2020-06-15T17:20:06Z</time>
      </trkpt>
      <trkpt lat="49.40681" lon="-1.31366">
        <ele>25.1</ele>
        <time>2020-06-15T17:20:07Z</time>
      </trkpt>
      <trkpt lat="49.40683" lon="-1.31367">
        <ele>25.2</ele>
        <time>2020-06-15T17:20:08Z</time>
      </trkpt>
      <trkpt lat="49.40686" lon="-1.31369">
        <ele>25.2</ele>
        <time>2020-06-15T17:20:09Z</time>
      </trkpt>
      <trkpt lat="49.40689" lon="-1.3137">
        <ele>25.2</ele>
        <time>2020-06-15T17:20:10Z</time>
      </trkpt>
      <trkpt lat="49.40691" lon="-1.31371">
        <ele>25.3</ele>
        <time>2020-06-15T17:20:11Z</time>
      </trkpt>
      <trkpt lat="49.40694" lon="-1.31372">
        <ele>25.3</ele>
        <time>2020-06-15T17:20:12Z</time>
      </trkpt>
      <trkpt lat="49.40696" lon="-1.31381">
        <ele>25.4</ele>
        <time>2020-06-15T17:20:13Z</time>
      </trkpt>
      <trkpt lat="49.40696" lon="-1.31387">
        <ele>25.4</ele>
        <time>2020-06-15T17:20:14Z</time>
      </trkpt>
      <trkpt lat="49.40695" lon="-1.31394">
        <ele>25.5</ele>
        <time>2020-06-15T17:20:15Z</time>
      </trkpt>
      <trkpt lat="49.40692" lon="-1.31399">
        <ele>25.4</ele>
        <time>2020-06-15T17:20:16Z</time>
      </trkpt>
      <trkpt lat="49.4069" lon="-1.31403">
        <ele>25.4</ele>
        <time>2020-06-15T17:20:17Z</time>
      </trkpt>
      <trkpt lat="49.40689" lon="-1.31404">
        <ele>25.4</ele>
        <time>2020-06-15T17:20:18Z</time>
      </trkpt>
      <trkpt lat="49.4069" lon="-1.3141">
        <ele>25.5</ele>
        <time>2020-06-15T17:20:19Z</time>
      </trkpt>
      <trkpt lat="49.4069" lon="-1.31412">
        <ele>25.5</ele>
        <time>2020-06-15T17:20:20Z</time>
      </trkpt>
      <trkpt lat="49.40691" lon="-1.31416">
        <ele>25.5</ele>
        <time>2020-06-15T17:20:21Z</time>
      </trkpt>
      <trkpt lat="49.40691" lon="-1.31417">
        <ele>25.5</ele>
        <time>2020-06-15T17:20:22Z</time>
      </trkpt>
      <trkpt lat="49.40693" lon="-1.31421">
        <ele>25.6</ele>
        <time>2020-06-15T17:20:23Z</time>
      </trkpt>
      <trkpt lat="49.40693" lon="-1.31423">
        <ele>25.6</ele>
        <time>2020-06-15T17:20:24Z</time>
      </trkpt>
      <trkpt lat="49.40694" lon="-1.31425">
        <ele>25.6</ele>
        <time>2020-06-15T17:20:25Z</time>
      </trkpt>
      <trkpt lat="49.40695" lon="-1.31427">
        <ele>25.6</ele>
        <time>2020-06-15T17:20:26Z</time>
      </trkpt>
      <trkpt lat="49.40696" lon="-1.31427">
        <ele>25.6</ele>
        <time>2020-06-15T17:20:27Z</time>
      </trkpt>
      <trkpt lat="49.40696" lon="-1.31428">
        <ele>25.6</ele>
        <time>2020-06-15T17:20:28Z</time>
      </trkpt>
      <trkpt lat="49.40697" lon="-1.31428">
        <ele>25.7</ele>
        <time>2020-06-15T17:20:29Z</time>
      </trkpt>
      <trkpt lat="49.40697" lon="-1.31428">
        <ele>25.6</ele>
        <time>2020-06-15T17:20:30Z</time>
      </trkpt>
      <trkpt lat="49.40697" lon="-1.31429">
        <ele>25.6</ele>
        <time>2020-06-15T17:20:31Z</time>
      </trkpt>
      <trkpt lat="49.40697" lon="-1.31429">
        <ele>25.6</ele>
        <time>2020-06-15T17:20:32Z</time>
      </trkpt>
      <trkpt lat="49.40697" lon="-1.31429">
        <ele>25.6</ele>
        <time>2020-06-15T17:20:33Z</time>
      </trkpt>
      <trkpt lat="49.40697" lon="-1.3143">
        <ele>25.6</ele>
        <time>2020-06-15T17:20:34Z</time>
      </trkpt>
      <trkpt lat="49.40698" lon="-1.31431">
        <ele>25.6</ele>
        <time>2020-06-15T17:20:35Z</time>
      </trkpt>
      <trkpt lat="49.40697" lon="-1.31431">
        <ele>25.6</ele>
        <time>2020-06-15T17:20:36Z</time>
      </trkpt>
      <trkpt lat="49.40698" lon="-1.31431">
        <ele>25.6</ele>
        <time>2020-06-15T17:20:37Z</time>
      </trkpt>
      <trkpt lat="49.40698" lon="-1.31431">
        <ele>25.6</ele>
        <time>2020-06-15T17:20:38Z</time>
      </trkpt>
      <trkpt lat="49.40699" lon="-1.31432">
        <ele>25.6</ele>
        <time>2020-06-15T17:20:39Z</time>
      </trkpt>
      <trkpt lat="49.40699" lon="-1.31432">
        <ele>25.6</ele>
        <time>2020-06-15T17:20:40Z</time>
      </trkpt>
      <trkpt lat="49.40697" lon="-1.31435">
        <ele>25.6</ele>
        <time>2020-06-15T17:20:41Z</time>
      </trkpt>
      <trkpt lat="49.40696" lon="-1.31436">
        <ele>25.6</ele>
        <time>2020-06-15T17:20:42Z</time>
      </trkpt>
      <trkpt lat="49.40696" lon="-1.31437">
        <ele>25.6</ele>
        <time>2020-06-15T17:20:43Z</time>
      </trkpt>
      <trkpt lat="49.40696" lon="-1.31438">
        <ele>25.6</ele>
        <time>2020-06-15T17:20:44Z</time>
      </trkpt>
      <trkpt lat="49.40696" lon="-1.31438">
        <ele>25.6</ele>
        <time>2020-06-15T17:20:45Z</time>
      </trkpt>
      <trkpt lat="49.40697" lon="-1.31439">
        <ele>25.6</ele>
        <time>2020-06-15T17:20:46Z</time>
      </trkpt>
      <trkpt lat="49.40697" lon="-1.31441">
        <ele>25.6</ele>
        <time>2020-06-15T17:20:47Z</time>
      </trkpt>
      <trkpt lat="49.40697" lon="-1.31442">
        <ele>25.7</ele>
        <time>2020-06-15T17:20:48Z</time>
      </trkpt>
      <trkpt lat="49.40697" lon="-1.31443">
        <ele>25.7</ele>
        <time>2020-06-15T17:20:49Z</time>
      </trkpt>
      <trkpt lat="49.40697" lon="-1.31445">
        <ele>25.6</ele>
        <time>2020-06-15T17:20:50Z</time>
      </trkpt>
      <trkpt lat="49.40698" lon="-1.31446">
        <ele>25.7</ele>
        <time>2020-06-15T17:20:51Z</time>
      </trkpt>
      <trkpt lat="49.40698" lon="-1.31446">
        <ele>25.7</ele>
        <time>2020-06-15T17:20:52Z</time>
      </trkpt>
      <trkpt lat="49.40698" lon="-1.31446">
        <ele>25.7</ele>
        <time>2020-06-15T17:20:53Z</time>
      </trkpt>
      <trkpt lat="49.40697" lon="-1.31446">
        <ele>25.7</ele>
        <time>2020-06-15T17:20:54Z</time>
      </trkpt>
      <trkpt lat="49.40865" lon="-1.31651">
        <ele>25.3</ele>
        <time>2020-06-15T17:22:26Z</time>
      </trkpt>
      <trkpt lat="49.40866" lon="-1.3165">
        <ele>25.2</ele>
        <time>2020-06-15T17:22:27Z</time>
      </trkpt>
      <trkpt lat="49.40867" lon="-1.31648">
        <ele>25.2</ele>
        <time>2020-06-15T17:22:28Z</time>
      </trkpt>
      <trkpt lat="49.40867" lon="-1.31648">
        <ele>25.2</ele>
        <time>2020-06-15T17:22:29Z</time>
      </trkpt>
      <trkpt lat="49.40868" lon="-1.31646">
        <ele>25.2</ele>
        <time>2020-06-15T17:22:30Z</time>
      </trkpt>
      <trkpt lat="49.40869" lon="-1.31645">
        <ele>25.2</ele>
        <time>2020-06-15T17:22:31Z</time>
      </trkpt>
      <trkpt lat="49.40869" lon="-1.31643">
        <ele>25.2</ele>
        <time>2020-06-15T17:22:32Z</time>
      </trkpt>
      <trkpt lat="49.4087" lon="-1.31642">
        <ele>25.2</ele>
        <time>2020-06-15T17:22:33Z</time>
      </trkpt>
      <trkpt lat="49.4087" lon="-1.31641">
        <ele>25.2</ele>
        <time>2020-06-15T17:22:34Z</time>
      </trkpt>
      <trkpt lat="49.4087" lon="-1.31639">
        <ele>25.2</ele>
        <time>2020-06-15T17:22:35Z</time>
      </trkpt>
      <trkpt lat="49.40871" lon="-1.31638">
        <ele>25.2</ele>
        <time>2020-06-15T17:22:36Z</time>
      </trkpt>
      <trkpt lat="49.40871" lon="-1.31637">
        <ele>25.2</ele>
        <time>2020-06-15T17:22:37Z</time>
      </trkpt>
      <trkpt lat="49.40871" lon="-1.31636">
        <ele>25.2</ele>
        <time>2020-06-15T17:22:38Z</time>
      </trkpt>
      <trkpt lat="49.40872" lon="-1.31634">
        <ele>25.2</ele>
        <time>2020-06-15T17:22:39Z</time>
      </trkpt>
      <trkpt lat="49.40873" lon="-1.31633">
        <ele>25.2</ele>
        <time>2020-06-15T17:22:40Z</time>
      </trkpt>
      <trkpt lat="49.40874" lon="-1.31632">
        <ele>25.2</ele>
        <time>2020-06-15T17:22:41Z</time>
      </trkpt>
      <trkpt lat="49.40874" lon="-1.31632">
        <ele>25.1</ele>
        <time>2020-06-15T17:22:42Z</time>
      </trkpt>
      <trkpt lat="49.40875" lon="-1.31632">
        <ele>25.1</ele>
        <time>2020-06-15T17:22:43Z</time>
      </trkpt>
      <trkpt lat="49.40874" lon="-1.31632">
        <ele>25.1</ele>
        <time>2020-06-15T17:22:44Z</time>
      </trkpt>
      <trkpt lat="49.40875" lon="-1.31632">
        <ele>25.1</ele>
        <time>2020-06-15T17:22:45Z</time>
      </trkpt>
      <trkpt lat="49.40875" lon="-1.31633">
        <ele>25</ele>
        <time>2020-06-15T17:22:46Z</time>
      </trkpt>
      <trkpt lat="49.40875" lon="-1.31633">
        <ele>25</ele>
        <time>2020-06-15T17:22:47Z</time>
      </trkpt>
      <trkpt lat="49.40875" lon="-1.31634">
        <ele>25</ele>
        <time>2020-06-15T17:22:48Z</time>
      </trkpt>
      <trkpt lat="49.40875" lon="-1.31635">
        <ele>25</ele>
        <time>2020-06-15T17:22:49Z</time>
      </trkpt>
      <trkpt lat="49.40875" lon="-1.31635">
        <ele>25</ele>
        <time>2020-06-15T17:22:50Z</time>
      </trkpt>
      <trkpt lat="49.40875" lon="-1.31636">
        <ele>24.9</ele>
        <time>2020-06-15T17:22:51Z</time>
      </trkpt>
      <trkpt lat="49.40875" lon="-1.31636">
        <ele>24.9</ele>
        <time>2020-06-15T17:22:52Z</time>
      </trkpt>
      <trkpt lat="49.40875" lon="-1.31636">
        <ele>24.9</ele>
        <time>2020-06-15T17:22:53Z</time>
      </trkpt>
      <trkpt lat="49.40879" lon="-1.31636">
        <ele>24.9</ele>
        <time>2020-06-15T17:24:25Z</time>
      </trkpt>
      <trkpt lat="49.4088" lon="-1.31635">
        <ele>24.8</ele>
        <time>2020-06-15T17:24:26Z</time>
      </trkpt>
      <trkpt lat="49.40881" lon="-1.31635">
        <ele>24.8</ele>
        <time>2020-06-15T17:24:27Z</time>
      </trkpt>
      <trkpt lat="49.4088" lon="-1.31635">
        <ele>24.8</ele>
        <time>2020-06-15T17:24:28Z</time>
      </trkpt>
      <trkpt lat="49.4088" lon="-1.31636">
        <ele>24.8</ele>
        <time>2020-06-15T17:24:29Z</time>
      </trkpt>
      <trkpt lat="49.4088" lon="-1.31636">
        <ele>24.8</ele>
        <time>2020-06-15T17:24:30Z</time>
      </trkpt>
      <trkpt lat="49.4088" lon="-1.31637">
        <ele>24.8</ele>
        <time>2020-06-15T17:24:31Z</time>
      </trkpt>
      <trkpt lat="49.4088" lon="-1.31637">
        <ele>24.8</ele>
        <time>2020-06-15T17:24:32Z</time>
      </trkpt>
      <trkpt lat="49.4088" lon="-1.31638">
        <ele>24.7</ele>
        <time>2020-06-15T17:24:33Z</time>
      </trkpt>
      <trkpt lat="49.4088" lon="-1.31638">
        <ele>24.7</ele>
        <time>2020-06-15T17:24:34Z</time>
      </trkpt>
      <trkpt lat="49.4088" lon="-1.31639">
        <ele>24.7</ele>
        <time>2020-06-15T17:24:35Z</time>
      </trkpt>
      <trkpt lat="49.4088" lon="-1.31639">
        <ele>24.7</ele>
        <time>2020-06-15T17:24:36Z</time>
      </trkpt>
      <trkpt lat="49.4088" lon="-1.31639">
        <ele>24.7</ele>
        <time>2020-06-15T17:24:37Z</time>
      </trkpt>
      <trkpt lat="49.4088" lon="-1.3164">
        <ele>24.7</ele>
        <time>2020-06-15T17:24:53Z</time>
      </trkpt>
      <trkpt lat="49.4088" lon="-1.3164">
        <ele>24.7</ele>
        <time>2020-06-15T17:24:54Z</time>
      </trkpt>
      <trkpt lat="49.4088" lon="-1.31641">
        <ele>24.7</ele>
        <time>2020-06-15T17:24:55Z</time>
      </trkpt>
      <trkpt lat="49.40879" lon="-1.31641">
        <ele>24.7</ele>
        <time>2020-06-15T17:24:56Z</time>
      </trkpt>
      <trkpt lat="49.40879" lon="-1.31642">
        <ele>24.6</ele>
        <time>2020-06-15T17:24:57Z</time>
      </trkpt>
      <trkpt lat="49.40879" lon="-1.31642">
        <ele>24.6</ele>
        <time>2020-06-15T17:24:58Z</time>
      </trkpt>
      <trkpt lat="49.40879" lon="-1.31643">
        <ele>24.6</ele>
        <time>2020-06-15T17:24:59Z</time>
      </trkpt>
      <trkpt lat="49.40879" lon="-1.31643">
        <ele>24.6</ele>
        <time>2020-06-15T17:25:00Z</time>
      </trkpt>
      <trkpt lat="49.40879" lon="-1.31644">
        <ele>24.6</ele>
        <time>2020-06-15T17:25:01Z</time>
      </trkpt>
      <trkpt lat="49.40879" lon="-1.31644">
        <ele>24.6</ele>
        <time>2020-06-15T17:25:02Z</time>
      </trkpt>
      <trkpt lat="49.40879" lon="-1.31644">
        <ele>24.6</ele>
        <time>2020-06-15T17:25:03Z</time>
      </trkpt>
      <trkpt lat="49.40879" lon="-1.31645">
        <ele>24.6</ele>
        <time>2020-06-15T17:25:04Z</time>
      </trkpt>
      <trkpt lat="49.40879" lon="-1.31645">
        <ele>24.6</ele>
        <time>2020-06-15T17:25:05Z</time>
      </trkpt>
      <trkpt lat="49.40879" lon="-1.31646">
        <ele>24.6</ele>
        <time>2020-06-15T17:25:06Z</time>
      </trkpt>
      <trkpt lat="49.40879" lon="-1.31646">
        <ele>24.5</ele>
        <time>2020-06-15T17:25:18Z</time>
      </trkpt>
      <trkpt lat="49.40878" lon="-1.31647">
        <ele>24.5</ele>
        <time>2020-06-15T17:25:19Z</time>
      </trkpt>
      <trkpt lat="49.40878" lon="-1.31647">
        <ele>24.5</ele>
        <time>2020-06-15T17:25:20Z</time>
      </trkpt>
      <trkpt lat="49.40878" lon="-1.31648">
        <ele>24.5</ele>
        <time>2020-06-15T17:25:21Z</time>
      </trkpt>
      <trkpt lat="49.40878" lon="-1.31648">
        <ele>24.5</ele>
        <time>2020-06-15T17:25:22Z</time>
      </trkpt>
      <trkpt lat="49.40876" lon="-1.31652">
        <ele>24.4</ele>
        <time>2020-06-15T17:25:23Z</time>
      </trkpt>
      <trkpt lat="49.40875" lon="-1.31656">
        <ele>24.3</ele>
        <time>2020-06-15T17:25:24Z</time>
      </trkpt>
      <trkpt lat="49.40873" lon="-1.31661">
        <ele>24.2</ele>
        <time>2020-06-15T17:25:25Z</time>
      </trkpt>
      <trkpt lat="49.40872" lon="-1.31666">
        <ele>24.1</ele>
        <time>2020-06-15T17:25:26Z</time>
      </trkpt>
      <trkpt lat="49.4087" lon="-1.31672">
        <ele>24</ele>
        <time>2020-06-15T17:25:27Z</time>
      </trkpt>
      <trkpt lat="49.40869" lon="-1.31677">
        <ele>23.9</ele>
        <time>2020-06-15T17:25:28Z</time>
      </trkpt>
      <trkpt lat="49.40868" lon="-1.31683">
        <ele>23.7</ele>
        <time>2020-06-15T17:25:29Z</time>
      </trkpt>
      <trkpt lat="49.40867" lon="-1.3169">
        <ele>23.6</ele>
        <time>2020-06-15T17:25:30Z</time>
      </trkpt>
      <trkpt lat="49.40867" lon="-1.31697">
        <ele>23.5</ele>
        <time>2020-06-15T17:25:31Z</time>
      </trkpt>
      <trkpt lat="49.40866" lon="-1.31702">
        <ele>23.4</ele>
        <time>2020-06-15T17:25:32Z</time>
      </trkpt>
      <trkpt lat="49.40866" lon="-1.31708">
        <ele>23.3</ele>
        <time>2020-06-15T17:25:33Z</time>
      </trkpt>
      <trkpt lat="49.40864" lon="-1.31713">
        <ele>23.2</ele>
        <time>2020-06-15T17:25:34Z</time>
      </trkpt>
      <trkpt lat="49.40862" lon="-1.31717">
        <ele>23.1</ele>
        <time>2020-06-15T17:25:35Z</time>
      </trkpt>
      <trkpt lat="49.40861" lon="-1.31722">
        <ele>23</ele>
        <time>2020-06-15T17:25:36Z</time>
      </trkpt>
      <trkpt lat="49.40861" lon="-1.31727">
        <ele>23</ele>
        <time>2020-06-15T17:25:37Z</time>
      </trkpt>
      <trkpt lat="49.4086" lon="-1.31732">
        <ele>22.9</ele>
        <time>2020-06-15T17:25:38Z</time>
      </trkpt>
      <trkpt lat="49.40859" lon="-1.31739">
        <ele>22.8</ele>
        <time>2020-06-15T17:25:39Z</time>
      </trkpt>
      <trkpt lat="49.40859" lon="-1.31744">
        <ele>22.7</ele>
        <time>2020-06-15T17:25:40Z</time>
      </trkpt>
      <trkpt lat="49.40858" lon="-1.3175">
        <ele>22.6</ele>
        <time>2020-06-15T17:25:41Z</time>
      </trkpt>
      <trkpt lat="49.40857" lon="-1.31752">
        <ele>22.6</ele>
        <time>2020-06-15T17:25:42Z</time>
      </trkpt>
      <trkpt lat="49.40856" lon="-1.31757">
        <ele>22.5</ele>
        <time>2020-06-15T17:25:43Z</time>
      </trkpt>
      <trkpt lat="49.40856" lon="-1.31759">
        <ele>22.5</ele>
        <time>2020-06-15T17:25:44Z</time>
      </trkpt>
      <trkpt lat="49.40855" lon="-1.31763">
        <ele>22.5</ele>
        <time>2020-06-15T17:25:45Z</time>
      </trkpt>
      <trkpt lat="49.40854" lon="-1.31764">
        <ele>22.5</ele>
        <time>2020-06-15T17:25:46Z</time>
      </trkpt>
      <trkpt lat="49.40852" lon="-1.31768">
        <ele>22.5</ele>
        <time>2020-06-15T17:25:47Z</time>
      </trkpt>
      <trkpt lat="49.40851" lon="-1.31772">
        <ele>22.6</ele>
        <time>2020-06-15T17:25:48Z</time>
      </trkpt>
      <trkpt lat="49.40849" lon="-1.31777">
        <ele>22.7</ele>
        <time>2020-06-15T17:25:49Z</time>
      </trkpt>
      <trkpt lat="49.40847" lon="-1.31782">
        <ele>22.8</ele>
        <time>2020-06-15T17:25:50Z</time>
      </trkpt>
      <trkpt lat="49.40845" lon="-1.31787">
        <ele>22.9</ele>
        <time>2020-06-15T17:25:51Z</time>
      </trkpt>
      <trkpt lat="49.40843" lon="-1.31792">
        <ele>23</ele>
        <time>2020-06-15T17:25:52Z</time>
      </trkpt>
      <trkpt lat="49.40841" lon="-1.31796">
        <ele>23.1</ele>
        <time>2020-06-15T17:25:53Z</time>
      </trkpt>
      <trkpt lat="49.40838" lon="-1.318">
        <ele>23.1</ele>
        <time>2020-06-15T17:25:54Z</time>
      </trkpt>
      <trkpt lat="49.40836" lon="-1.31804">
        <ele>23.1</ele>
        <time>2020-06-15T17:25:55Z</time>
      </trkpt>
      <trkpt lat="49.40834" lon="-1.31809">
        <ele>23</ele>
        <time>2020-06-15T17:25:56Z</time>
      </trkpt>
      <trkpt lat="49.40831" lon="-1.31815">
        <ele>23</ele>
        <time>2020-06-15T17:25:57Z</time>
      </trkpt>
      <trkpt lat="49.40828" lon="-1.31822">
        <ele>22.9</ele>
        <time>2020-06-15T17:25:58Z</time>
      </trkpt>
      <trkpt lat="49.40825" lon="-1.31828">
        <ele>22.9</ele>
        <time>2020-06-15T17:25:59Z</time>
      </trkpt>
      <trkpt lat="49.40821" lon="-1.31835">
        <ele>22.8</ele>
        <time>2020-06-15T17:26:00Z</time>
      </trkpt>
      <trkpt lat="49.40817" lon="-1.31841">
        <ele>22.7</ele>
        <time>2020-06-15T17:26:01Z</time>
      </trkpt>
      <trkpt lat="49.40813" lon="-1.31848">
        <ele>22.6</ele>
        <time>2020-06-15T17:26:02Z</time>
      </trkpt>
      <trkpt lat="49.40809" lon="-1.31854">
        <ele>22.4</ele>
        <time>2020-06-15T17:26:03Z</time>
      </trkpt>
      <trkpt lat="49.40804" lon="-1.31861">
        <ele>22.3</ele>
        <time>2020-06-15T17:26:04Z</time>
      </trkpt>
      <trkpt lat="49.40799" lon="-1.31867">
        <ele>22.2</ele>
        <time>2020-06-15T17:26:05Z</time>
      </trkpt>
      <trkpt lat="49.40795" lon="-1.31873">
        <ele>22.1</ele>
        <time>2020-06-15T17:26:06Z</time>
      </trkpt>
      <trkpt lat="49.40791" lon="-1.31878">
        <ele>22</ele>
        <time>2020-06-15T17:26:07Z</time>
      </trkpt>
      <trkpt lat="49.40787" lon="-1.31885">
        <ele>21.9</ele>
        <time>2020-06-15T17:26:08Z</time>
      </trkpt>
      <trkpt lat="49.40784" lon="-1.31893">
        <ele>21.8</ele>
        <time>2020-06-15T17:26:09Z</time>
      </trkpt>
      <trkpt lat="49.40781" lon="-1.319">
        <ele>21.7</ele>
        <time>2020-06-15T17:26:10Z</time>
      </trkpt>
      <trkpt lat="49.40777" lon="-1.31908">
        <ele>21.6</ele>
        <time>2020-06-15T17:26:11Z</time>
      </trkpt>
      <trkpt lat="49.40774" lon="-1.31917">
        <ele>21.4</ele>
        <time>2020-06-15T17:26:12Z</time>
      </trkpt>
      <trkpt lat="49.40771" lon="-1.31927">
        <ele>21.2</ele>
        <time>2020-06-15T17:26:13Z</time>
      </trkpt>
      <trkpt lat="49.40768" lon="-1.31937">
        <ele>20.8</ele>
        <time>2020-06-15T17:26:14Z</time>
      </trkpt>
      <trkpt lat="49.40766" lon="-1.31948">
        <ele>20.4</ele>
        <time>2020-06-15T17:26:15Z</time>
      </trkpt>
      <trkpt lat="49.40763" lon="-1.3196">
        <ele>20.1</ele>
        <time>2020-06-15T17:26:16Z</time>
      </trkpt>
      <trkpt lat="49.4076" lon="-1.31973">
        <ele>19.8</ele>
        <time>2020-06-15T17:26:17Z</time>
      </trkpt>
      <trkpt lat="49.40757" lon="-1.31985">
        <ele>19.4</ele>
        <time>2020-06-15T17:26:18Z</time>
      </trkpt>
      <trkpt lat="49.40754" lon="-1.31996">
        <ele>19.1</ele>
        <time>2020-06-15T17:26:19Z</time>
      </trkpt>
      <trkpt lat="49.40752" lon="-1.32006">
        <ele>18.9</ele>
        <time>2020-06-15T17:26:20Z</time>
      </trkpt>
      <trkpt lat="49.40752" lon="-1.32016">
        <ele>18.8</ele>
        <time>2020-06-15T17:26:21Z</time>
      </trkpt>
      <trkpt lat="49.40751" lon="-1.32024">
        <ele>18.7</ele>
        <time>2020-06-15T17:26:22Z</time>
      </trkpt>
      <trkpt lat="49.40752" lon="-1.32032">
        <ele>18.5</ele>
        <time>2020-06-15T17:26:23Z</time>
      </trkpt>
      <trkpt lat="49.40753" lon="-1.32038">
        <ele>18.4</ele>
        <time>2020-06-15T17:26:24Z</time>
      </trkpt>
      <trkpt lat="49.40756" lon="-1.32042">
        <ele>18.3</ele>
        <time>2020-06-15T17:26:25Z</time>
      </trkpt>
      <trkpt lat="49.4076" lon="-1.32047">
        <ele>18.2</ele>
        <time>2020-06-15T17:26:26Z</time>
      </trkpt>
      <trkpt lat="49.40765" lon="-1.32048">
        <ele>18</ele>
        <time>2020-06-15T17:26:27Z</time>
      </trkpt>
      <trkpt lat="49.4077" lon="-1.32048">
        <ele>17.9</ele>
        <time>2020-06-15T17:26:28Z</time>
      </trkpt>
      <trkpt lat="49.40774" lon="-1.32052">
        <ele>17.8</ele>
        <time>2020-06-15T17:26:29Z</time>
      </trkpt>
      <trkpt lat="49.40777" lon="-1.32055">
        <ele>17.7</ele>
        <time>2020-06-15T17:26:30Z</time>
      </trkpt>
      <trkpt lat="49.4078" lon="-1.32058">
        <ele>17.6</ele>
        <time>2020-06-15T17:26:31Z</time>
      </trkpt>
      <trkpt lat="49.40784" lon="-1.32062">
        <ele>17.4</ele>
        <time>2020-06-15T17:26:32Z</time>
      </trkpt>
      <trkpt lat="49.40786" lon="-1.32065">
        <ele>17.3</ele>
        <time>2020-06-15T17:26:33Z</time>
      </trkpt>
      <trkpt lat="49.40788" lon="-1.32066">
        <ele>17.1</ele>
        <time>2020-06-15T17:26:34Z</time>
      </trkpt>
      <trkpt lat="49.40789" lon="-1.32067">
        <ele>17.1</ele>
        <time>2020-06-15T17:26:35Z</time>
      </trkpt>
      <trkpt lat="49.4079" lon="-1.32068">
        <ele>17</ele>
        <time>2020-06-15T17:26:36Z</time>
      </trkpt>
      <trkpt lat="49.40791" lon="-1.3207">
        <ele>16.9</ele>
        <time>2020-06-15T17:26:37Z</time>
      </trkpt>
      <trkpt lat="49.40792" lon="-1.32073">
        <ele>16.9</ele>
        <time>2020-06-15T17:26:38Z</time>
      </trkpt>
      <trkpt lat="49.40792" lon="-1.32075">
        <ele>16.9</ele>
        <time>2020-06-15T17:26:39Z</time>
      </trkpt>
      <trkpt lat="49.40791" lon="-1.32078">
        <ele>16.9</ele>
        <time>2020-06-15T17:26:40Z</time>
      </trkpt>
      <trkpt lat="49.4079" lon="-1.32082">
        <ele>16.8</ele>
        <time>2020-06-15T17:26:41Z</time>
      </trkpt>
      <trkpt lat="49.40789" lon="-1.32086">
        <ele>16.8</ele>
        <time>2020-06-15T17:26:42Z</time>
      </trkpt>
      <trkpt lat="49.40788" lon="-1.32091">
        <ele>16.8</ele>
        <time>2020-06-15T17:26:43Z</time>
      </trkpt>
      <trkpt lat="49.40788" lon="-1.32099">
        <ele>16.7</ele>
        <time>2020-06-15T17:26:44Z</time>
      </trkpt>
      <trkpt lat="49.40787" lon="-1.32112">
        <ele>16.7</ele>
        <time>2020-06-15T17:26:45Z</time>
      </trkpt>
      <trkpt lat="49.40786" lon="-1.32119">
        <ele>16.6</ele>
        <time>2020-06-15T17:26:46Z</time>
      </trkpt>
      <trkpt lat="49.40786" lon="-1.32125">
        <ele>16.5</ele>
        <time>2020-06-15T17:26:47Z</time>
      </trkpt>
      <trkpt lat="49.40785" lon="-1.32132">
        <ele>16.5</ele>
        <time>2020-06-15T17:26:48Z</time>
      </trkpt>
      <trkpt lat="49.40784" lon="-1.32139">
        <ele>16.4</ele>
        <time>2020-06-15T17:26:49Z</time>
      </trkpt>
      <trkpt lat="49.40781" lon="-1.32148">
        <ele>16.3</ele>
        <time>2020-06-15T17:26:50Z</time>
      </trkpt>
      <trkpt lat="49.40778" lon="-1.32159">
        <ele>16.2</ele>
        <time>2020-06-15T17:26:51Z</time>
      </trkpt>
      <trkpt lat="49.40773" lon="-1.3217">
        <ele>16.2</ele>
        <time>2020-06-15T17:26:52Z</time>
      </trkpt>
      <trkpt lat="49.40768" lon="-1.3218">
        <ele>16.2</ele>
        <time>2020-06-15T17:26:53Z</time>
      </trkpt>
      <trkpt lat="49.40761" lon="-1.32189">
        <ele>16.1</ele>
        <time>2020-06-15T17:26:54Z</time>
      </trkpt>
      <trkpt lat="49.40753" lon="-1.32197">
        <ele>15.9</ele>
        <time>2020-06-15T17:26:55Z</time>
      </trkpt>
      <trkpt lat="49.40745" lon="-1.32205">
        <ele>15.8</ele>
        <time>2020-06-15T17:26:56Z</time>
      </trkpt>
      <trkpt lat="49.40737" lon="-1.3221">
        <ele>15.7</ele>
        <time>2020-06-15T17:26:57Z</time>
      </trkpt>
      <trkpt lat="49.40729" lon="-1.32216">
        <ele>15.7</ele>
        <time>2020-06-15T17:26:58Z</time>
      </trkpt>
      <trkpt lat="49.40722" lon="-1.32221">
        <ele>15.6</ele>
        <time>2020-06-15T17:26:59Z</time>
      </trkpt>
      <trkpt lat="49.40715" lon="-1.32226">
        <ele>15.5</ele>
        <time>2020-06-15T17:27:00Z</time>
      </trkpt>
      <trkpt lat="49.40708" lon="-1.3223">
        <ele>15.5</ele>
        <time>2020-06-15T17:27:01Z</time>
      </trkpt>
      <trkpt lat="49.40702" lon="-1.32234">
        <ele>15.4</ele>
        <time>2020-06-15T17:27:02Z</time>
      </trkpt>
      <trkpt lat="49.40696" lon="-1.3224">
        <ele>15.4</ele>
        <time>2020-06-15T17:27:03Z</time>
      </trkpt>
      <trkpt lat="49.40689" lon="-1.32246">
        <ele>15.4</ele>
        <time>2020-06-15T17:27:04Z</time>
      </trkpt>
      <trkpt lat="49.40684" lon="-1.32252">
        <ele>15.4</ele>
        <time>2020-06-15T17:27:05Z</time>
      </trkpt>
      <trkpt lat="49.40679" lon="-1.32257">
        <ele>15.4</ele>
        <time>2020-06-15T17:27:06Z</time>
      </trkpt>
      <trkpt lat="49.40672" lon="-1.3226">
        <ele>15.5</ele>
        <time>2020-06-15T17:27:07Z</time>
      </trkpt>
      <trkpt lat="49.40665" lon="-1.32261">
        <ele>15.6</ele>
        <time>2020-06-15T17:27:08Z</time>
      </trkpt>
      <trkpt lat="49.40658" lon="-1.32259">
        <ele>15.8</ele>
        <time>2020-06-15T17:27:09Z</time>
      </trkpt>
      <trkpt lat="49.40652" lon="-1.32255">
        <ele>15.9</ele>
        <time>2020-06-15T17:27:10Z</time>
      </trkpt>
      <trkpt lat="49.40649" lon="-1.32249">
        <ele>16</ele>
        <time>2020-06-15T17:27:11Z</time>
      </trkpt>
      <trkpt lat="49.40644" lon="-1.32244">
        <ele>16</ele>
        <time>2020-06-15T17:27:12Z</time>
      </trkpt>
      <trkpt lat="49.40639" lon="-1.32238">
        <ele>16.1</ele>
        <time>2020-06-15T17:27:13Z</time>
      </trkpt>
      <trkpt lat="49.40635" lon="-1.32233">
        <ele>16.2</ele>
        <time>2020-06-15T17:27:14Z</time>
      </trkpt>
      <trkpt lat="49.4063" lon="-1.32228">
        <ele>16.3</ele>
        <time>2020-06-15T17:27:15Z</time>
      </trkpt>
      <trkpt lat="49.40625" lon="-1.32223">
        <ele>16.5</ele>
        <time>2020-06-15T17:27:16Z</time>
      </trkpt>
      <trkpt lat="49.4062" lon="-1.32217">
        <ele>16.7</ele>
        <time>2020-06-15T17:27:17Z</time>
      </trkpt>
      <trkpt lat="49.40615" lon="-1.32212">
        <ele>16.8</ele>
        <time>2020-06-15T17:27:18Z</time>
      </trkpt>
      <trkpt lat="49.4061" lon="-1.32207">
        <ele>17</ele>
        <time>2020-06-15T17:27:19Z</time>
      </trkpt>
      <trkpt lat="49.40605" lon="-1.32202">
        <ele>17.2</ele>
        <time>2020-06-15T17:27:20Z</time>
      </trkpt>
      <trkpt lat="49.406" lon="-1.32197">
        <ele>17.4</ele>
        <time>2020-06-15T17:27:21Z</time>
      </trkpt>
      <trkpt lat="49.40595" lon="-1.32192">
        <ele>17.6</ele>
        <time>2020-06-15T17:27:22Z</time>
      </trkpt>
      <trkpt lat="49.40591" lon="-1.32187">
        <ele>17.8</ele>
        <time>2020-06-15T17:27:23Z</time>
      </trkpt>
      <trkpt lat="49.40587" lon="-1.32182">
        <ele>17.9</ele>
        <time>2020-06-15T17:27:24Z</time>
      </trkpt>
      <trkpt lat="49.40583" lon="-1.32177">
        <ele>18.1</ele>
        <time>2020-06-15T17:27:25Z</time>
      </trkpt>
      <trkpt lat="49.40579" lon="-1.32172">
        <ele>18.3</ele>
        <time>2020-06-15T17:27:26Z</time>
      </trkpt>
      <trkpt lat="49.40576" lon="-1.32168">
        <ele>18.5</ele>
        <time>2020-06-15T17:27:27Z</time>
      </trkpt>
      <trkpt lat="49.40572" lon="-1.32164">
        <ele>18.6</ele>
        <time>2020-06-15T17:27:28Z</time>
      </trkpt>
      <trkpt lat="49.40569" lon="-1.3216">
        <ele>18.8</ele>
        <time>2020-06-15T17:27:29Z</time>
      </trkpt>
      <trkpt lat="49.40564" lon="-1.32159">
        <ele>18.9</ele>
        <time>2020-06-15T17:27:30Z</time>
      </trkpt>
      <trkpt lat="49.40559" lon="-1.3216">
        <ele>18.9</ele>
        <time>2020-06-15T17:27:31Z</time>
      </trkpt>
      <trkpt lat="49.40555" lon="-1.32162">
        <ele>18.8</ele>
        <time>2020-06-15T17:27:32Z</time>
      </trkpt>
      <trkpt lat="49.40552" lon="-1.32165">
        <ele>18.7</ele>
        <time>2020-06-15T17:27:33Z</time>
      </trkpt>
      <trkpt lat="49.40549" lon="-1.3217">
        <ele>18.6</ele>
        <time>2020-06-15T17:27:34Z</time>
      </trkpt>
      <trkpt lat="49.40547" lon="-1.32176">
        <ele>18.6</ele>
        <time>2020-06-15T17:27:35Z</time>
      </trkpt>
      <trkpt lat="49.40544" lon="-1.32182">
        <ele>18.5</ele>
        <time>2020-06-15T17:27:36Z</time>
      </trkpt>
      <trkpt lat="49.40541" lon="-1.3219">
        <ele>18.3</ele>
        <time>2020-06-15T17:27:37Z</time>
      </trkpt>
      <trkpt lat="49.40539" lon="-1.32197">
        <ele>18.2</ele>
        <time>2020-06-15T17:27:38Z</time>
      </trkpt>
      <trkpt lat="49.40536" lon="-1.32202">
        <ele>18.2</ele>
        <time>2020-06-15T17:27:39Z</time>
      </trkpt>
      <trkpt lat="49.40532" lon="-1.32208">
        <ele>18.1</ele>
        <time>2020-06-15T17:27:40Z</time>
      </trkpt>
      <trkpt lat="49.40526" lon="-1.32212">
        <ele>18</ele>
        <time>2020-06-15T17:27:41Z</time>
      </trkpt>
      <trkpt lat="49.40521" lon="-1.32215">
        <ele>17.9</ele>
        <time>2020-06-15T17:27:42Z</time>
      </trkpt>
      <trkpt lat="49.40517" lon="-1.32217">
        <ele>18</ele>
        <time>2020-06-15T17:27:43Z</time>
      </trkpt>
      <trkpt lat="49.40512" lon="-1.32217">
        <ele>18</ele>
        <time>2020-06-15T17:27:44Z</time>
      </trkpt>
      <trkpt lat="49.40506" lon="-1.32218">
        <ele>18</ele>
        <time>2020-06-15T17:27:45Z</time>
      </trkpt>
      <trkpt lat="49.40501" lon="-1.32219">
        <ele>18</ele>
        <time>2020-06-15T17:27:46Z</time>
      </trkpt>
      <trkpt lat="49.40496" lon="-1.32221">
        <ele>18.1</ele>
        <time>2020-06-15T17:27:47Z</time>
      </trkpt>
      <trkpt lat="49.40489" lon="-1.32223">
        <ele>18.1</ele>
        <time>2020-06-15T17:27:48Z</time>
      </trkpt>
      <trkpt lat="49.40483" lon="-1.32225">
        <ele>18.2</ele>
        <time>2020-06-15T17:27:49Z</time>
      </trkpt>
      <trkpt lat="49.40478" lon="-1.32227">
        <ele>18.2</ele>
        <time>2020-06-15T17:27:50Z</time>
      </trkpt>
      <trkpt lat="49.40472" lon="-1.32229">
        <ele>18.3</ele>
        <time>2020-06-15T17:27:51Z</time>
      </trkpt>
      <trkpt lat="49.40467" lon="-1.32232">
        <ele>18.4</ele>
        <time>2020-06-15T17:27:52Z</time>
      </trkpt>
      <trkpt lat="49.40462" lon="-1.32235">
        <ele>18.4</ele>
        <time>2020-06-15T17:27:53Z</time>
      </trkpt>
      <trkpt lat="49.40458" lon="-1.32238">
        <ele>18.5</ele>
        <time>2020-06-15T17:27:54Z</time>
      </trkpt>
      <trkpt lat="49.40453" lon="-1.32242">
        <ele>18.5</ele>
        <time>2020-06-15T17:27:55Z</time>
      </trkpt>
      <trkpt lat="49.40449" lon="-1.32245">
        <ele>18.6</ele>
        <time>2020-06-15T17:27:56Z</time>
      </trkpt>
      <trkpt lat="49.40444" lon="-1.32248">
        <ele>18.6</ele>
        <time>2020-06-15T17:27:57Z</time>
      </trkpt>
      <trkpt lat="49.4044" lon="-1.32251">
        <ele>18.7</ele>
        <time>2020-06-15T17:27:58Z</time>
      </trkpt>
      <trkpt lat="49.40435" lon="-1.32255">
        <ele>18.8</ele>
        <time>2020-06-15T17:27:59Z</time>
      </trkpt>
      <trkpt lat="49.40431" lon="-1.3226">
        <ele>18.8</ele>
        <time>2020-06-15T17:28:00Z</time>
      </trkpt>
      <trkpt lat="49.40428" lon="-1.32265">
        <ele>18.9</ele>
        <time>2020-06-15T17:28:01Z</time>
      </trkpt>
      <trkpt lat="49.40424" lon="-1.32269">
        <ele>19</ele>
        <time>2020-06-15T17:28:02Z</time>
      </trkpt>
      <trkpt lat="49.40421" lon="-1.32273">
        <ele>19.1</ele>
        <time>2020-06-15T17:28:03Z</time>
      </trkpt>
      <trkpt lat="49.40418" lon="-1.32275">
        <ele>19.3</ele>
        <time>2020-06-15T17:28:04Z</time>
      </trkpt>
      <trkpt lat="49.40415" lon="-1.32277">
        <ele>19.4</ele>
        <time>2020-06-15T17:28:05Z</time>
      </trkpt>
      <trkpt lat="49.40413" lon="-1.3228">
        <ele>19.6</ele>
        <time>2020-06-15T17:28:06Z</time>
      </trkpt>
      <trkpt lat="49.40411" lon="-1.32284">
        <ele>19.7</ele>
        <time>2020-06-15T17:28:07Z</time>
      </trkpt>
      <trkpt lat="49.4041" lon="-1.32286">
        <ele>19.8</ele>
        <time>2020-06-15T17:28:08Z</time>
      </trkpt>
      <trkpt lat="49.40408" lon="-1.32288">
        <ele>19.9</ele>
        <time>2020-06-15T17:28:09Z</time>
      </trkpt>
      <trkpt lat="49.40407" lon="-1.32292">
        <ele>20.1</ele>
        <time>2020-06-15T17:28:10Z</time>
      </trkpt>
      <trkpt lat="49.40406" lon="-1.32293">
        <ele>20.1</ele>
        <time>2020-06-15T17:28:11Z</time>
      </trkpt>
      <trkpt lat="49.40406" lon="-1.32295">
        <ele>20.1</ele>
        <time>2020-06-15T17:28:12Z</time>
      </trkpt>
      <trkpt lat="49.40406" lon="-1.32295">
        <ele>20.1</ele>
        <time>2020-06-15T17:28:13Z</time>
      </trkpt>
      <trkpt lat="49.40406" lon="-1.32296">
        <ele>20.1</ele>
        <time>2020-06-15T17:28:14Z</time>
      </trkpt>
      <trkpt lat="49.40405" lon="-1.32297">
        <ele>20.1</ele>
        <time>2020-06-15T17:28:15Z</time>
      </trkpt>
      <trkpt lat="49.40405" lon="-1.32297">
        <ele>20.1</ele>
        <time>2020-06-15T17:28:16Z</time>
      </trkpt>
      <trkpt lat="49.40405" lon="-1.32298">
        <ele>20.1</ele>
        <time>2020-06-15T17:28:17Z</time>
      </trkpt>
      <trkpt lat="49.40406" lon="-1.32298">
        <ele>20.1</ele>
        <time>2020-06-15T17:28:18Z</time>
      </trkpt>
      <trkpt lat="49.40406" lon="-1.32298">
        <ele>20.1</ele>
        <time>2020-06-15T17:28:19Z</time>
      </trkpt>
      <trkpt lat="49.40405" lon="-1.32298">
        <ele>20.1</ele>
        <time>2020-06-15T17:28:20Z</time>
      </trkpt>
      <trkpt lat="49.40405" lon="-1.32299">
        <ele>20.1</ele>
        <time>2020-06-15T17:28:21Z</time>
      </trkpt>
      <trkpt lat="49.40405" lon="-1.32301">
        <ele>20.2</ele>
        <time>2020-06-15T17:28:22Z</time>
      </trkpt>
      <trkpt lat="49.40406" lon="-1.32302">
        <ele>20.2</ele>
        <time>2020-06-15T17:28:24Z</time>
      </trkpt>
      <trkpt lat="49.40406" lon="-1.32303">
        <ele>20.2</ele>
        <time>2020-06-15T17:28:25Z</time>
      </trkpt>
      <trkpt lat="49.40407" lon="-1.32303">
        <ele>20.2</ele>
        <time>2020-06-15T17:28:26Z</time>
      </trkpt>
      <trkpt lat="49.40407" lon="-1.32305">
        <ele>20.3</ele>
        <time>2020-06-15T17:28:27Z</time>
      </trkpt>
      <trkpt lat="49.40408" lon="-1.32306">
        <ele>20.2</ele>
        <time>2020-06-15T17:28:28Z</time>
      </trkpt>
      <trkpt lat="49.40408" lon="-1.32307">
        <ele>20.2</ele>
        <time>2020-06-15T17:28:29Z</time>
      </trkpt>
      <trkpt lat="49.40408" lon="-1.32307">
        <ele>20.2</ele>
        <time>2020-06-15T17:28:30Z</time>
      </trkpt>
      <trkpt lat="49.40408" lon="-1.32308">
        <ele>20.3</ele>
        <time>2020-06-15T17:28:31Z</time>
      </trkpt>
      <trkpt lat="49.40408" lon="-1.32308">
        <ele>20.3</ele>
        <time>2020-06-15T17:28:32Z</time>
      </trkpt>
      <trkpt lat="49.40408" lon="-1.32308">
        <ele>20.2</ele>
        <time>2020-06-15T17:28:33Z</time>
      </trkpt>
      <trkpt lat="49.40408" lon="-1.32308">
        <ele>20.2</ele>
        <time>2020-06-15T17:28:34Z</time>
      </trkpt>
      <trkpt lat="49.40408" lon="-1.32308">
        <ele>20.2</ele>
        <time>2020-06-15T17:28:35Z</time>
      </trkpt>
      <trkpt lat="49.40409" lon="-1.32308">
        <ele>20.3</ele>
        <time>2020-06-15T17:28:36Z</time>
      </trkpt>
      <trkpt lat="49.40409" lon="-1.32308">
        <ele>20.3</ele>
        <time>2020-06-15T17:28:37Z</time>
      </trkpt>
      <trkpt lat="49.4041" lon="-1.32309">
        <ele>20.3</ele>
        <time>2020-06-15T17:28:38Z</time>
      </trkpt>
      <trkpt lat="49.4041" lon="-1.32309">
        <ele>20.3</ele>
        <time>2020-06-15T17:28:39Z</time>
      </trkpt>
      <trkpt lat="49.40411" lon="-1.32309">
        <ele>20.2</ele>
        <time>2020-06-15T17:28:40Z</time>
      </trkpt>
      <trkpt lat="49.40412" lon="-1.3231">
        <ele>20.2</ele>
        <time>2020-06-15T17:28:41Z</time>
      </trkpt>
      <trkpt lat="49.40412" lon="-1.3231">
        <ele>20.2</ele>
        <time>2020-06-15T17:28:42Z</time>
      </trkpt>
      <trkpt lat="49.40413" lon="-1.32311">
        <ele>20.2</ele>
        <time>2020-06-15T17:28:43Z</time>
      </trkpt>
      <trkpt lat="49.40414" lon="-1.32311">
        <ele>20.1</ele>
        <time>2020-06-15T17:28:44Z</time>
      </trkpt>
      <trkpt lat="49.404" lon="-1.32298">
        <ele>20.3</ele>
        <time>2020-06-15T17:32:29Z</time>
      </trkpt>
      <trkpt lat="49.40399" lon="-1.32297">
        <ele>20.4</ele>
        <time>2020-06-15T17:32:30Z</time>
      </trkpt>
      <trkpt lat="49.404" lon="-1.32297">
        <ele>20.3</ele>
        <time>2020-06-15T17:32:31Z</time>
      </trkpt>
      <trkpt lat="49.404" lon="-1.32297">
        <ele>20.3</ele>
        <time>2020-06-15T17:32:32Z</time>
      </trkpt>
      <trkpt lat="49.40397" lon="-1.32299">
        <ele>20.4</ele>
        <time>2020-06-15T17:32:33Z</time>
      </trkpt>
      <trkpt lat="49.40396" lon="-1.32298">
        <ele>20.5</ele>
        <time>2020-06-15T17:32:34Z</time>
      </trkpt>
      <trkpt lat="49.40395" lon="-1.32297">
        <ele>20.5</ele>
        <time>2020-06-15T17:32:35Z</time>
      </trkpt>
      <trkpt lat="49.40396" lon="-1.32298">
        <ele>20.5</ele>
        <time>2020-06-15T17:32:36Z</time>
      </trkpt>
      <trkpt lat="49.40397" lon="-1.32298">
        <ele>20.4</ele>
        <time>2020-06-15T17:32:37Z</time>
      </trkpt>
      <trkpt lat="49.40397" lon="-1.32298">
        <ele>20.4</ele>
        <time>2020-06-15T17:32:38Z</time>
      </trkpt>
      <trkpt lat="49.40398" lon="-1.32298">
        <ele>20.4</ele>
        <time>2020-06-15T17:32:39Z</time>
      </trkpt>
      <trkpt lat="49.40398" lon="-1.32298">
        <ele>20.4</ele>
        <time>2020-06-15T17:32:40Z</time>
      </trkpt>
      <trkpt lat="49.40399" lon="-1.32298">
        <ele>20.4</ele>
        <time>2020-06-15T17:32:41Z</time>
      </trkpt>
      <trkpt lat="49.40399" lon="-1.32299">
        <ele>20.4</ele>
        <time>2020-06-15T17:32:42Z</time>
      </trkpt>
      <trkpt lat="49.404" lon="-1.32299">
        <ele>20.3</ele>
        <time>2020-06-15T17:32:43Z</time>
      </trkpt>
      <trkpt lat="49.40404" lon="-1.32297">
        <ele>20.2</ele>
        <time>2020-06-15T17:32:44Z</time>
      </trkpt>
      <trkpt lat="49.40406" lon="-1.32295">
        <ele>20.2</ele>
        <time>2020-06-15T17:32:45Z</time>
      </trkpt>
      <trkpt lat="49.40406" lon="-1.32297">
        <ele>20.2</ele>
        <time>2020-06-15T17:32:46Z</time>
      </trkpt>
      <trkpt lat="49.40406" lon="-1.32299">
        <ele>20.2</ele>
        <time>2020-06-15T17:32:47Z</time>
      </trkpt>
      <trkpt lat="49.40407" lon="-1.323">
        <ele>20.2</ele>
        <time>2020-06-15T17:32:48Z</time>
      </trkpt>
      <trkpt lat="49.40407" lon="-1.32305">
        <ele>20.3</ele>
        <time>2020-06-15T17:32:49Z</time>
      </trkpt>
      <trkpt lat="49.40407" lon="-1.32306">
        <ele>20.3</ele>
        <time>2020-06-15T17:32:50Z</time>
      </trkpt>
      <trkpt lat="49.40408" lon="-1.32309">
        <ele>20.3</ele>
        <time>2020-06-15T17:32:51Z</time>
      </trkpt>
      <trkpt lat="49.40409" lon="-1.32311">
        <ele>20.3</ele>
        <time>2020-06-15T17:32:52Z</time>
      </trkpt>
      <trkpt lat="49.40408" lon="-1.32312">
        <ele>20.3</ele>
        <time>2020-06-15T17:32:53Z</time>
      </trkpt>
      <trkpt lat="49.40408" lon="-1.32312">
        <ele>20.3</ele>
        <time>2020-06-15T17:32:54Z</time>
      </trkpt>
      <trkpt lat="49.40408" lon="-1.32311">
        <ele>20.3</ele>
        <time>2020-06-15T17:32:55Z</time>
      </trkpt>
      <trkpt lat="49.40408" lon="-1.32311">
        <ele>20.3</ele>
        <time>2020-06-15T17:32:56Z</time>
      </trkpt>
      <trkpt lat="49.40408" lon="-1.3231">
        <ele>20.3</ele>
        <time>2020-06-15T17:32:57Z</time>
      </trkpt>
      <trkpt lat="49.40408" lon="-1.32309">
        <ele>20.3</ele>
        <time>2020-06-15T17:32:58Z</time>
      </trkpt>
      <trkpt lat="49.40408" lon="-1.32309">
        <ele>20.3</ele>
        <time>2020-06-15T17:32:59Z</time>
      </trkpt>
      <trkpt lat="49.40408" lon="-1.32309">
        <ele>20.3</ele>
        <time>2020-06-15T17:33:00Z</time>
      </trkpt>
      <trkpt lat="49.40408" lon="-1.32308">
        <ele>20.3</ele>
        <time>2020-06-15T17:33:01Z</time>
      </trkpt>
      <trkpt lat="49.40408" lon="-1.32308">
        <ele>20.3</ele>
        <time>2020-06-15T17:33:02Z</time>
      </trkpt>
      <trkpt lat="49.40408" lon="-1.32308">
        <ele>20.3</ele>
        <time>2020-06-15T17:33:03Z</time>
      </trkpt>
      <trkpt lat="49.40408" lon="-1.32308">
        <ele>20.3</ele>
        <time>2020-06-15T17:33:04Z</time>
      </trkpt>
      <trkpt lat="49.40402" lon="-1.323">
        <ele>20.4</ele>
        <time>2020-06-15T17:33:23Z</time>
      </trkpt>
      <trkpt lat="49.40402" lon="-1.323">
        <ele>20.4</ele>
        <time>2020-06-15T17:33:24Z</time>
      </trkpt>
      <trkpt lat="49.40401" lon="-1.32299">
        <ele>20.3</ele>
        <time>2020-06-15T17:33:25Z</time>
      </trkpt>
      <trkpt lat="49.404" lon="-1.32299">
        <ele>20.3</ele>
        <time>2020-06-15T17:33:26Z</time>
      </trkpt>
      <trkpt lat="49.404" lon="-1.32299">
        <ele>20.3</ele>
        <time>2020-06-15T17:33:27Z</time>
      </trkpt>
      <trkpt lat="49.404" lon="-1.323">
        <ele>20.4</ele>
        <time>2020-06-15T17:33:28Z</time>
      </trkpt>
      <trkpt lat="49.404" lon="-1.323">
        <ele>20.4</ele>
        <time>2020-06-15T17:33:29Z</time>
      </trkpt>
      <trkpt lat="49.404" lon="-1.323">
        <ele>20.4</ele>
        <time>2020-06-15T17:33:30Z</time>
      </trkpt>
      <trkpt lat="49.404" lon="-1.323">
        <ele>20.4</ele>
        <time>2020-06-15T17:33:31Z</time>
      </trkpt>
      <trkpt lat="49.404" lon="-1.32301">
        <ele>20.4</ele>
        <time>2020-06-15T17:33:32Z</time>
      </trkpt>
      <trkpt lat="49.40399" lon="-1.32301">
        <ele>20.4</ele>
        <time>2020-06-15T17:33:33Z</time>
      </trkpt>
      <trkpt lat="49.40402" lon="-1.323">
        <ele>20.4</ele>
        <time>2020-06-15T17:33:34Z</time>
      </trkpt>
      <trkpt lat="49.40403" lon="-1.32299">
        <ele>20.3</ele>
        <time>2020-06-15T17:33:35Z</time>
      </trkpt>
      <trkpt lat="49.40404" lon="-1.32298">
        <ele>20.3</ele>
        <time>2020-06-15T17:33:36Z</time>
      </trkpt>
      <trkpt lat="49.40404" lon="-1.32298">
        <ele>20.3</ele>
        <time>2020-06-15T17:33:37Z</time>
      </trkpt>
      <trkpt lat="49.40405" lon="-1.32299">
        <ele>20.2</ele>
        <time>2020-06-15T17:33:38Z</time>
      </trkpt>
      <trkpt lat="49.40406" lon="-1.32299">
        <ele>20.2</ele>
        <time>2020-06-15T17:33:39Z</time>
      </trkpt>
      <trkpt lat="49.40407" lon="-1.32299">
        <ele>20.2</ele>
        <time>2020-06-15T17:33:40Z</time>
      </trkpt>
      <trkpt lat="49.40407" lon="-1.32299">
        <ele>20.2</ele>
        <time>2020-06-15T17:33:41Z</time>
      </trkpt>
      <trkpt lat="49.40407" lon="-1.32298">
        <ele>20.2</ele>
        <time>2020-06-15T17:33:42Z</time>
      </trkpt>
      <trkpt lat="49.40408" lon="-1.32297">
        <ele>20.1</ele>
        <time>2020-06-15T17:33:43Z</time>
      </trkpt>
      <trkpt lat="49.40408" lon="-1.32297">
        <ele>20.1</ele>
        <time>2020-06-15T17:33:44Z</time>
      </trkpt>
      <trkpt lat="49.40408" lon="-1.32297">
        <ele>20.1</ele>
        <time>2020-06-15T17:33:45Z</time>
      </trkpt>
      <trkpt lat="49.40408" lon="-1.32296">
        <ele>20.1</ele>
        <time>2020-06-15T17:33:46Z</time>
      </trkpt>
      <trkpt lat="49.40409" lon="-1.32296">
        <ele>20.1</ele>
        <time>2020-06-15T17:33:47Z</time>
      </trkpt>
      <trkpt lat="49.40409" lon="-1.32296">
        <ele>20.1</ele>
        <time>2020-06-15T17:33:48Z</time>
      </trkpt>
      <trkpt lat="49.40409" lon="-1.32295">
        <ele>20.1</ele>
        <time>2020-06-15T17:33:49Z</time>
      </trkpt>
      <trkpt lat="49.4041" lon="-1.32295">
        <ele>20</ele>
        <time>2020-06-15T17:33:50Z</time>
      </trkpt>
      <trkpt lat="49.40409" lon="-1.32297">
        <ele>20.1</ele>
        <time>2020-06-15T17:33:51Z</time>
      </trkpt>
      <trkpt lat="49.40409" lon="-1.32298">
        <ele>20.1</ele>
        <time>2020-06-15T17:33:52Z</time>
      </trkpt>
      <trkpt lat="49.40409" lon="-1.32298">
        <ele>20.1</ele>
        <time>2020-06-15T17:33:53Z</time>
      </trkpt>
      <trkpt lat="49.40409" lon="-1.32299">
        <ele>20.1</ele>
        <time>2020-06-15T17:33:54Z</time>
      </trkpt>
      <trkpt lat="49.40408" lon="-1.32299">
        <ele>20.1</ele>
        <time>2020-06-15T17:33:55Z</time>
      </trkpt>
      <trkpt lat="49.40408" lon="-1.32298">
        <ele>20.1</ele>
        <time>2020-06-15T17:33:56Z</time>
      </trkpt>
      <trkpt lat="49.40408" lon="-1.32297">
        <ele>20.1</ele>
        <time>2020-06-15T17:33:57Z</time>
      </trkpt>
      <trkpt lat="49.40408" lon="-1.32296">
        <ele>20.1</ele>
        <time>2020-06-15T17:33:58Z</time>
      </trkpt>
      <trkpt lat="49.40408" lon="-1.32296">
        <ele>20.1</ele>
        <time>2020-06-15T17:33:59Z</time>
      </trkpt>
      <trkpt lat="49.40408" lon="-1.32298">
        <ele>20.1</ele>
        <time>2020-06-15T17:34:00Z</time>
      </trkpt>
      <trkpt lat="49.40406" lon="-1.32297">
        <ele>20.2</ele>
        <time>2020-06-15T17:34:01Z</time>
      </trkpt>
      <trkpt lat="49.40406" lon="-1.32297">
        <ele>20.2</ele>
        <time>2020-06-15T17:34:02Z</time>
      </trkpt>
      <trkpt lat="49.40406" lon="-1.32299">
        <ele>20.2</ele>
        <time>2020-06-15T17:34:03Z</time>
      </trkpt>
      <trkpt lat="49.40405" lon="-1.323">
        <ele>20.3</ele>
        <time>2020-06-15T17:34:04Z</time>
      </trkpt>
      <trkpt lat="49.40404" lon="-1.32303">
        <ele>20.3</ele>
        <time>2020-06-15T17:34:05Z</time>
      </trkpt>
      <trkpt lat="49.40404" lon="-1.32303">
        <ele>20.3</ele>
        <time>2020-06-15T17:34:06Z</time>
      </trkpt>
      <trkpt lat="49.40403" lon="-1.32304">
        <ele>20.4</ele>
        <time>2020-06-15T17:34:07Z</time>
      </trkpt>
      <trkpt lat="49.40403" lon="-1.32303">
        <ele>20.3</ele>
        <time>2020-06-15T17:34:08Z</time>
      </trkpt>
      <trkpt lat="49.40403" lon="-1.32304">
        <ele>20.3</ele>
        <time>2020-06-15T17:34:09Z</time>
      </trkpt>
      <trkpt lat="49.40403" lon="-1.32304">
        <ele>20.4</ele>
        <time>2020-06-15T17:34:10Z</time>
      </trkpt>
      <trkpt lat="49.40403" lon="-1.32304">
        <ele>20.4</ele>
        <time>2020-06-15T17:34:11Z</time>
      </trkpt>
      <trkpt lat="49.40402" lon="-1.32303">
        <ele>20.3</ele>
        <time>2020-06-15T17:34:12Z</time>
      </trkpt>
      <trkpt lat="49.40402" lon="-1.32302">
        <ele>20.4</ele>
        <time>2020-06-15T17:34:13Z</time>
      </trkpt>
      <trkpt lat="49.40401" lon="-1.32301">
        <ele>20.4</ele>
        <time>2020-06-15T17:34:14Z</time>
      </trkpt>
      <trkpt lat="49.404" lon="-1.32299">
        <ele>20.4</ele>
        <time>2020-06-15T17:34:15Z</time>
      </trkpt>
      <trkpt lat="49.404" lon="-1.32298">
        <ele>20.4</ele>
        <time>2020-06-15T17:34:16Z</time>
      </trkpt>
      <trkpt lat="49.404" lon="-1.32296">
        <ele>20.4</ele>
        <time>2020-06-15T17:34:17Z</time>
      </trkpt>
      <trkpt lat="49.40401" lon="-1.32295">
        <ele>20.4</ele>
        <time>2020-06-15T17:34:18Z</time>
      </trkpt>
      <trkpt lat="49.40401" lon="-1.32295">
        <ele>20.4</ele>
        <time>2020-06-15T17:34:19Z</time>
      </trkpt>
      <trkpt lat="49.40401" lon="-1.32295">
        <ele>20.4</ele>
        <time>2020-06-15T17:34:20Z</time>
      </trkpt>
      <trkpt lat="49.40402" lon="-1.32295">
        <ele>20.3</ele>
        <time>2020-06-15T17:34:21Z</time>
      </trkpt>
      <trkpt lat="49.40402" lon="-1.32295">
        <ele>20.3</ele>
        <time>2020-06-15T17:34:22Z</time>
      </trkpt>
      <trkpt lat="49.40402" lon="-1.32295">
        <ele>20.2</ele>
        <time>2020-06-15T17:34:23Z</time>
      </trkpt>
      <trkpt lat="49.40402" lon="-1.32295">
        <ele>20.2</ele>
        <time>2020-06-15T17:34:24Z</time>
      </trkpt>
      <trkpt lat="49.40403" lon="-1.32295">
        <ele>20.2</ele>
        <time>2020-06-15T17:34:25Z</time>
      </trkpt>
      <trkpt lat="49.40403" lon="-1.32295">
        <ele>20.2</ele>
        <time>2020-06-15T17:34:26Z</time>
      </trkpt>
      <trkpt lat="49.40403" lon="-1.32295">
        <ele>20.2</ele>
        <time>2020-06-15T17:34:27Z</time>
      </trkpt>
      <trkpt lat="49.40404" lon="-1.32295">
        <ele>20.2</ele>
        <time>2020-06-15T17:34:28Z</time>
      </trkpt>
      <trkpt lat="49.40404" lon="-1.32296">
        <ele>20.3</ele>
        <time>2020-06-15T17:34:29Z</time>
      </trkpt>
      <trkpt lat="49.40404" lon="-1.32297">
        <ele>20.3</ele>
        <time>2020-06-15T17:34:30Z</time>
      </trkpt>
      <trkpt lat="49.40404" lon="-1.32298">
        <ele>20.3</ele>
        <time>2020-06-15T17:34:31Z</time>
      </trkpt>
      <trkpt lat="49.40404" lon="-1.32298">
        <ele>20.3</ele>
        <time>2020-06-15T17:34:32Z</time>
      </trkpt>
      <trkpt lat="49.40404" lon="-1.32298">
        <ele>20.3</ele>
        <time>2020-06-15T17:34:33Z</time>
      </trkpt>
      <trkpt lat="49.40404" lon="-1.32298">
        <ele>20.3</ele>
        <time>2020-06-15T17:34:34Z</time>
      </trkpt>
      <trkpt lat="49.40405" lon="-1.32299">
        <ele>20.3</ele>
        <time>2020-06-15T17:34:35Z</time>
      </trkpt>
      <trkpt lat="49.40405" lon="-1.32298">
        <ele>20.3</ele>
        <time>2020-06-15T17:34:36Z</time>
      </trkpt>
      <trkpt lat="49.40405" lon="-1.32297">
        <ele>20.3</ele>
        <time>2020-06-15T17:34:37Z</time>
      </trkpt>
      <trkpt lat="49.40405" lon="-1.32296">
        <ele>20.2</ele>
        <time>2020-06-15T17:34:38Z</time>
      </trkpt>
      <trkpt lat="49.40405" lon="-1.32295">
        <ele>20.1</ele>
        <time>2020-06-15T17:34:39Z</time>
      </trkpt>
      <trkpt lat="49.40406" lon="-1.32294">
        <ele>20.1</ele>
        <time>2020-06-15T17:34:40Z</time>
      </trkpt>
      <trkpt lat="49.40406" lon="-1.32293">
        <ele>20.1</ele>
        <time>2020-06-15T17:34:41Z</time>
      </trkpt>
      <trkpt lat="49.40407" lon="-1.32294">
        <ele>20.1</ele>
        <time>2020-06-15T17:34:42Z</time>
      </trkpt>
      <trkpt lat="49.40407" lon="-1.32295">
        <ele>20.1</ele>
        <time>2020-06-15T17:34:43Z</time>
      </trkpt>
      <trkpt lat="49.40407" lon="-1.32295">
        <ele>20.1</ele>
        <time>2020-06-15T17:34:44Z</time>
      </trkpt>
      <trkpt lat="49.40408" lon="-1.32295">
        <ele>20</ele>
        <time>2020-06-15T17:34:45Z</time>
      </trkpt>
      <trkpt lat="49.40408" lon="-1.32295">
        <ele>20</ele>
        <time>2020-06-15T17:34:46Z</time>
      </trkpt>
      <trkpt lat="49.40408" lon="-1.32294">
        <ele>20</ele>
        <time>2020-06-15T17:34:47Z</time>
      </trkpt>
      <trkpt lat="49.40408" lon="-1.32293">
        <ele>20</ele>
        <time>2020-06-15T17:34:48Z</time>
      </trkpt>
      <trkpt lat="49.40408" lon="-1.32293">
        <ele>20</ele>
        <time>2020-06-15T17:34:49Z</time>
      </trkpt>
      <trkpt lat="49.40408" lon="-1.32293">
        <ele>20</ele>
        <time>2020-06-15T17:34:50Z</time>
      </trkpt>
      <trkpt lat="49.40408" lon="-1.32292">
        <ele>20</ele>
        <time>2020-06-15T17:34:51Z</time>
      </trkpt>
      <trkpt lat="49.40408" lon="-1.32292">
        <ele>20</ele>
        <time>2020-06-15T17:34:52Z</time>
      </trkpt>
      <trkpt lat="49.40408" lon="-1.32291">
        <ele>20</ele>
        <time>2020-06-15T17:34:53Z</time>
      </trkpt>
      <trkpt lat="49.40408" lon="-1.32292">
        <ele>20</ele>
        <time>2020-06-15T17:34:54Z</time>
      </trkpt>
      <trkpt lat="49.40408" lon="-1.32292">
        <ele>20.1</ele>
        <time>2020-06-15T17:34:55Z</time>
      </trkpt>
      <trkpt lat="49.40407" lon="-1.32291">
        <ele>20.1</ele>
        <time>2020-06-15T17:34:56Z</time>
      </trkpt>
      <trkpt lat="49.40407" lon="-1.32291">
        <ele>20.1</ele>
        <time>2020-06-15T17:34:57Z</time>
      </trkpt>
      <trkpt lat="49.40406" lon="-1.32291">
        <ele>20.1</ele>
        <time>2020-06-15T17:34:58Z</time>
      </trkpt>
      <trkpt lat="49.40406" lon="-1.32291">
        <ele>20.1</ele>
        <time>2020-06-15T17:34:59Z</time>
      </trkpt>
      <trkpt lat="49.40406" lon="-1.32291">
        <ele>20.1</ele>
        <time>2020-06-15T17:35:00Z</time>
      </trkpt>
      <trkpt lat="49.40406" lon="-1.32292">
        <ele>20.1</ele>
        <time>2020-06-15T17:35:01Z</time>
      </trkpt>
      <trkpt lat="49.40406" lon="-1.32292">
        <ele>20.1</ele>
        <time>2020-06-15T17:35:02Z</time>
      </trkpt>
      <trkpt lat="49.40406" lon="-1.32292">
        <ele>20.1</ele>
        <time>2020-06-15T17:35:03Z</time>
      </trkpt>
      <trkpt lat="49.40405" lon="-1.32295">
        <ele>20.1</ele>
        <time>2020-06-15T17:35:04Z</time>
      </trkpt>
      <trkpt lat="49.40405" lon="-1.32297">
        <ele>20.3</ele>
        <time>2020-06-15T17:35:05Z</time>
      </trkpt>
      <trkpt lat="49.40405" lon="-1.32298">
        <ele>20.3</ele>
        <time>2020-06-15T17:35:06Z</time>
      </trkpt>
      <trkpt lat="49.40405" lon="-1.32299">
        <ele>20.3</ele>
        <time>2020-06-15T17:35:07Z</time>
      </trkpt>
      <trkpt lat="49.40405" lon="-1.32299">
        <ele>20.3</ele>
        <time>2020-06-15T17:35:08Z</time>
      </trkpt>
      <trkpt lat="49.40404" lon="-1.323">
        <ele>20.4</ele>
        <time>2020-06-15T17:35:09Z</time>
      </trkpt>
      <trkpt lat="49.40404" lon="-1.32301">
        <ele>20.4</ele>
        <time>2020-06-15T17:35:10Z</time>
      </trkpt>
      <trkpt lat="49.40404" lon="-1.32301">
        <ele>20.4</ele>
        <time>2020-06-15T17:35:11Z</time>
      </trkpt>
      <trkpt lat="49.40403" lon="-1.32302">
        <ele>20.4</ele>
        <time>2020-06-15T17:35:12Z</time>
      </trkpt>
      <trkpt lat="49.40403" lon="-1.32302">
        <ele>20.4</ele>
        <time>2020-06-15T17:35:13Z</time>
      </trkpt>
      <trkpt lat="49.40403" lon="-1.32301">
        <ele>20.4</ele>
        <time>2020-06-15T17:35:14Z</time>
      </trkpt>
      <trkpt lat="49.40403" lon="-1.323">
        <ele>20.4</ele>
        <time>2020-06-15T17:35:15Z</time>
      </trkpt>
      <trkpt lat="49.40402" lon="-1.32299">
        <ele>20.3</ele>
        <time>2020-06-15T17:35:16Z</time>
      </trkpt>
      <trkpt lat="49.40402" lon="-1.32298">
        <ele>20.4</ele>
        <time>2020-06-15T17:35:17Z</time>
      </trkpt>
      <trkpt lat="49.40401" lon="-1.32298">
        <ele>20.4</ele>
        <time>2020-06-15T17:35:18Z</time>
      </trkpt>
      <trkpt lat="49.40401" lon="-1.32297">
        <ele>20.4</ele>
        <time>2020-06-15T17:35:19Z</time>
      </trkpt>
      <trkpt lat="49.40401" lon="-1.32297">
        <ele>20.4</ele>
        <time>2020-06-15T17:35:20Z</time>
      </trkpt>
      <trkpt lat="49.404" lon="-1.32296">
        <ele>20.4</ele>
        <time>2020-06-15T17:35:21Z</time>
      </trkpt>
      <trkpt lat="49.40399" lon="-1.32295">
        <ele>20.4</ele>
        <time>2020-06-15T17:35:22Z</time>
      </trkpt>
      <trkpt lat="49.40399" lon="-1.32295">
        <ele>20.4</ele>
        <time>2020-06-15T17:35:23Z</time>
      </trkpt>
      <trkpt lat="49.40398" lon="-1.32294">
        <ele>20.4</ele>
        <time>2020-06-15T17:35:24Z</time>
      </trkpt>
      <trkpt lat="49.40398" lon="-1.32294">
        <ele>20.4</ele>
        <time>2020-06-15T17:35:25Z</time>
      </trkpt>
      <trkpt lat="49.40397" lon="-1.32294">
        <ele>20.4</ele>
        <time>2020-06-15T17:35:26Z</time>
      </trkpt>
      <trkpt lat="49.40396" lon="-1.32295">
        <ele>20.5</ele>
        <time>2020-06-15T17:35:27Z</time>
      </trkpt>
      <trkpt lat="49.40396" lon="-1.32295">
        <ele>20.5</ele>
        <time>2020-06-15T17:35:28Z</time>
      </trkpt>
      <trkpt lat="49.40396" lon="-1.32295">
        <ele>20.5</ele>
        <time>2020-06-15T17:35:29Z</time>
      </trkpt>
      <trkpt lat="49.40396" lon="-1.32295">
        <ele>20.5</ele>
        <time>2020-06-15T17:35:30Z</time>
      </trkpt>
      <trkpt lat="49.40395" lon="-1.32296">
        <ele>20.6</ele>
        <time>2020-06-15T17:35:31Z</time>
      </trkpt>
      <trkpt lat="49.40395" lon="-1.32298">
        <ele>20.6</ele>
        <time>2020-06-15T17:35:32Z</time>
      </trkpt>
      <trkpt lat="49.40395" lon="-1.32298">
        <ele>20.6</ele>
        <time>2020-06-15T17:35:33Z</time>
      </trkpt>
      <trkpt lat="49.40396" lon="-1.32298">
        <ele>20.6</ele>
        <time>2020-06-15T17:35:34Z</time>
      </trkpt>
      <trkpt lat="49.40396" lon="-1.32299">
        <ele>20.6</ele>
        <time>2020-06-15T17:35:35Z</time>
      </trkpt>
      <trkpt lat="49.40396" lon="-1.32301">
        <ele>20.6</ele>
        <time>2020-06-15T17:35:36Z</time>
      </trkpt>
      <trkpt lat="49.40396" lon="-1.32302">
        <ele>20.6</ele>
        <time>2020-06-15T17:35:37Z</time>
      </trkpt>
      <trkpt lat="49.40397" lon="-1.32304">
        <ele>20.6</ele>
        <time>2020-06-15T17:35:38Z</time>
      </trkpt>
      <trkpt lat="49.40397" lon="-1.32305">
        <ele>20.6</ele>
        <time>2020-06-15T17:35:39Z</time>
      </trkpt>
      <trkpt lat="49.40398" lon="-1.32306">
        <ele>20.6</ele>
        <time>2020-06-15T17:35:40Z</time>
      </trkpt>
      <trkpt lat="49.40398" lon="-1.32307">
        <ele>20.6</ele>
        <time>2020-06-15T17:35:41Z</time>
      </trkpt>
      <trkpt lat="49.40398" lon="-1.32308">
        <ele>20.6</ele>
        <time>2020-06-15T17:35:42Z</time>
      </trkpt>
      <trkpt lat="49.40398" lon="-1.32309">
        <ele>20.6</ele>
        <time>2020-06-15T17:35:43Z</time>
      </trkpt>
      <trkpt lat="49.40398" lon="-1.32309">
        <ele>20.6</ele>
        <time>2020-06-15T17:35:44Z</time>
      </trkpt>
      <trkpt lat="49.40398" lon="-1.32309">
        <ele>20.6</ele>
        <time>2020-06-15T17:35:45Z</time>
      </trkpt>
      <trkpt lat="49.40397" lon="-1.32309">
        <ele>20.6</ele>
        <time>2020-06-15T17:35:46Z</time>
      </trkpt>
      <trkpt lat="49.40397" lon="-1.32309">
        <ele>20.6</ele>
        <time>2020-06-15T17:35:47Z</time>
      </trkpt>
      <trkpt lat="49.40397" lon="-1.32308">
        <ele>20.6</ele>
        <time>2020-06-15T17:35:48Z</time>
      </trkpt>
      <trkpt lat="49.40397" lon="-1.32309">
        <ele>20.6</ele>
        <time>2020-06-15T17:35:49Z</time>
      </trkpt>
      <trkpt lat="49.40397" lon="-1.3231">
        <ele>20.6</ele>
        <time>2020-06-15T17:35:50Z</time>
      </trkpt>
      <trkpt lat="49.40397" lon="-1.3231">
        <ele>20.6</ele>
        <time>2020-06-15T17:35:51Z</time>
      </trkpt>
      <trkpt lat="49.40398" lon="-1.3231">
        <ele>20.6</ele>
        <time>2020-06-15T17:35:52Z</time>
      </trkpt>
      <trkpt lat="49.40398" lon="-1.32311">
        <ele>20.6</ele>
        <time>2020-06-15T17:35:53Z</time>
      </trkpt>
      <trkpt lat="49.40398" lon="-1.32311">
        <ele>20.6</ele>
        <time>2020-06-15T17:35:54Z</time>
      </trkpt>
      <trkpt lat="49.40398" lon="-1.32311">
        <ele>20.6</ele>
        <time>2020-06-15T17:35:55Z</time>
      </trkpt>
      <trkpt lat="49.40399" lon="-1.32311">
        <ele>20.6</ele>
        <time>2020-06-15T17:35:56Z</time>
      </trkpt>
      <trkpt lat="49.40399" lon="-1.32311">
        <ele>20.6</ele>
        <time>2020-06-15T17:35:57Z</time>
      </trkpt>
      <trkpt lat="49.40399" lon="-1.3231">
        <ele>20.6</ele>
        <time>2020-06-15T17:35:58Z</time>
      </trkpt>
      <trkpt lat="49.404" lon="-1.3231">
        <ele>20.6</ele>
        <time>2020-06-15T17:35:59Z</time>
      </trkpt>
      <trkpt lat="49.404" lon="-1.3231">
        <ele>20.6</ele>
        <time>2020-06-15T17:36:00Z</time>
      </trkpt>
      <trkpt lat="49.404" lon="-1.3231">
        <ele>20.6</ele>
        <time>2020-06-15T17:36:01Z</time>
      </trkpt>
      <trkpt lat="49.40401" lon="-1.3231">
        <ele>20.6</ele>
        <time>2020-06-15T17:36:02Z</time>
      </trkpt>
      <trkpt lat="49.40401" lon="-1.32309">
        <ele>20.6</ele>
        <time>2020-06-15T17:36:03Z</time>
      </trkpt>
      <trkpt lat="49.40401" lon="-1.32309">
        <ele>20.6</ele>
        <time>2020-06-15T17:36:04Z</time>
      </trkpt>
      <trkpt lat="49.40402" lon="-1.32309">
        <ele>20.6</ele>
        <time>2020-06-15T17:36:05Z</time>
      </trkpt>
      <trkpt lat="49.40402" lon="-1.32309">
        <ele>20.6</ele>
        <time>2020-06-15T17:36:06Z</time>
      </trkpt>
      <trkpt lat="49.40402" lon="-1.32308">
        <ele>20.5</ele>
        <time>2020-06-15T17:36:07Z</time>
      </trkpt>
      <trkpt lat="49.40402" lon="-1.32308">
        <ele>20.5</ele>
        <time>2020-06-15T17:36:08Z</time>
      </trkpt>
      <trkpt lat="49.40403" lon="-1.32308">
        <ele>20.5</ele>
        <time>2020-06-15T17:36:09Z</time>
      </trkpt>
      <trkpt lat="49.40403" lon="-1.32308">
        <ele>20.5</ele>
        <time>2020-06-15T17:36:10Z</time>
      </trkpt>
      <trkpt lat="49.40403" lon="-1.32308">
        <ele>20.5</ele>
        <time>2020-06-15T17:36:11Z</time>
      </trkpt>
      <trkpt lat="49.40404" lon="-1.32307">
        <ele>20.5</ele>
        <time>2020-06-15T17:36:12Z</time>
      </trkpt>
      <trkpt lat="49.40404" lon="-1.32307">
        <ele>20.5</ele>
        <time>2020-06-15T17:36:13Z</time>
      </trkpt>
      <trkpt lat="49.40404" lon="-1.32307">
        <ele>20.5</ele>
        <time>2020-06-15T17:36:14Z</time>
      </trkpt>
      <trkpt lat="49.40405" lon="-1.32307">
        <ele>20.5</ele>
        <time>2020-06-15T17:36:15Z</time>
      </trkpt>
      <trkpt lat="49.40405" lon="-1.32307">
        <ele>20.4</ele>
        <time>2020-06-15T17:37:42Z</time>
      </trkpt>
      <trkpt lat="49.40405" lon="-1.32306">
        <ele>20.4</ele>
        <time>2020-06-15T17:37:43Z</time>
      </trkpt>
      <trkpt lat="49.40406" lon="-1.32306">
        <ele>20.4</ele>
        <time>2020-06-15T17:37:44Z</time>
      </trkpt>
      <trkpt lat="49.40406" lon="-1.32306">
        <ele>20.4</ele>
        <time>2020-06-15T17:37:45Z</time>
      </trkpt>
      <trkpt lat="49.40406" lon="-1.32306">
        <ele>20.4</ele>
        <time>2020-06-15T17:37:46Z</time>
      </trkpt>
      <trkpt lat="49.40407" lon="-1.32306">
        <ele>20.4</ele>
        <time>2020-06-15T17:37:47Z</time>
      </trkpt>
      <trkpt lat="49.40407" lon="-1.32305">
        <ele>20.4</ele>
        <time>2020-06-15T17:37:48Z</time>
      </trkpt>
      <trkpt lat="49.40407" lon="-1.32305">
        <ele>20.4</ele>
        <time>2020-06-15T17:37:49Z</time>
      </trkpt>
      <trkpt lat="49.40407" lon="-1.32305">
        <ele>20.4</ele>
        <time>2020-06-15T17:37:50Z</time>
      </trkpt>
      <trkpt lat="49.40408" lon="-1.32305">
        <ele>20.3</ele>
        <time>2020-06-15T17:37:51Z</time>
      </trkpt>
      <trkpt lat="49.40408" lon="-1.32304">
        <ele>20.3</ele>
        <time>2020-06-15T17:37:52Z</time>
      </trkpt>
      <trkpt lat="49.40408" lon="-1.32304">
        <ele>20.3</ele>
        <time>2020-06-15T17:37:53Z</time>
      </trkpt>
      <trkpt lat="49.40409" lon="-1.32304">
        <ele>20.3</ele>
        <time>2020-06-15T17:37:54Z</time>
      </trkpt>
      <trkpt lat="49.40409" lon="-1.32304">
        <ele>20.3</ele>
        <time>2020-06-15T17:37:55Z</time>
      </trkpt>
      <trkpt lat="49.40409" lon="-1.32304">
        <ele>20.2</ele>
        <time>2020-06-15T17:37:56Z</time>
      </trkpt>
      <trkpt lat="49.4041" lon="-1.32303">
        <ele>20.2</ele>
        <time>2020-06-15T17:37:57Z</time>
      </trkpt>
      <trkpt lat="49.4041" lon="-1.32303">
        <ele>20.2</ele>
        <time>2020-06-15T17:37:58Z</time>
      </trkpt>
      <trkpt lat="49.4041" lon="-1.32303">
        <ele>20.2</ele>
        <time>2020-06-15T17:37:59Z</time>
      </trkpt>
      <trkpt lat="49.40411" lon="-1.32303">
        <ele>20.2</ele>
        <time>2020-06-15T17:38:40Z</time>
      </trkpt>
      <trkpt lat="49.40411" lon="-1.32303">
        <ele>20.2</ele>
        <time>2020-06-15T17:38:41Z</time>
      </trkpt>
      <trkpt lat="49.40414" lon="-1.32304">
        <ele>20.1</ele>
        <time>2020-06-15T17:38:42Z</time>
      </trkpt>
      <trkpt lat="49.40416" lon="-1.32308">
        <ele>20</ele>
        <time>2020-06-15T17:38:43Z</time>
      </trkpt>
      <trkpt lat="49.40418" lon="-1.32311">
        <ele>20.1</ele>
        <time>2020-06-15T17:38:44Z</time>
      </trkpt>
      <trkpt lat="49.40421" lon="-1.32314">
        <ele>20.1</ele>
        <time>2020-06-15T17:38:45Z</time>
      </trkpt>
      <trkpt lat="49.40422" lon="-1.32315">
        <ele>20</ele>
        <time>2020-06-15T17:38:46Z</time>
      </trkpt>
      <trkpt lat="49.40426" lon="-1.32316">
        <ele>19.9</ele>
        <time>2020-06-15T17:38:47Z</time>
      </trkpt>
      <trkpt lat="49.40428" lon="-1.32316">
        <ele>19.8</ele>
        <time>2020-06-15T17:38:48Z</time>
      </trkpt>
      <trkpt lat="49.40431" lon="-1.32316">
        <ele>19.7</ele>
        <time>2020-06-15T17:38:49Z</time>
      </trkpt>
      <trkpt lat="49.40433" lon="-1.32316">
        <ele>19.6</ele>
        <time>2020-06-15T17:38:50Z</time>
      </trkpt>
      <trkpt lat="49.40436" lon="-1.32314">
        <ele>19.5</ele>
        <time>2020-06-15T17:38:51Z</time>
      </trkpt>
      <trkpt lat="49.40439" lon="-1.32312">
        <ele>19.4</ele>
        <time>2020-06-15T17:38:52Z</time>
      </trkpt>
      <trkpt lat="49.40442" lon="-1.32309">
        <ele>19.2</ele>
        <time>2020-06-15T17:38:53Z</time>
      </trkpt>
      <trkpt lat="49.40445" lon="-1.32306">
        <ele>19</ele>
        <time>2020-06-15T17:38:54Z</time>
      </trkpt>
      <trkpt lat="49.40448" lon="-1.32304">
        <ele>18.9</ele>
        <time>2020-06-15T17:38:55Z</time>
      </trkpt>
      <trkpt lat="49.40451" lon="-1.32301">
        <ele>18.7</ele>
        <time>2020-06-15T17:38:56Z</time>
      </trkpt>
      <trkpt lat="49.40454" lon="-1.32298">
        <ele>18.6</ele>
        <time>2020-06-15T17:38:57Z</time>
      </trkpt>
      <trkpt lat="49.40455" lon="-1.32297">
        <ele>18.6</ele>
        <time>2020-06-15T17:38:58Z</time>
      </trkpt>
      <trkpt lat="49.40458" lon="-1.32295">
        <ele>18.4</ele>
        <time>2020-06-15T17:38:59Z</time>
      </trkpt>
      <trkpt lat="49.40459" lon="-1.32295">
        <ele>18.4</ele>
        <time>2020-06-15T17:39:00Z</time>
      </trkpt>
      <trkpt lat="49.40462" lon="-1.32292">
        <ele>18.3</ele>
        <time>2020-06-15T17:39:01Z</time>
      </trkpt>
      <trkpt lat="49.40463" lon="-1.3229">
        <ele>18.3</ele>
        <time>2020-06-15T17:39:02Z</time>
      </trkpt>
      <trkpt lat="49.40466" lon="-1.32286">
        <ele>18.2</ele>
        <time>2020-06-15T17:39:03Z</time>
      </trkpt>
      <trkpt lat="49.40466" lon="-1.32284">
        <ele>18.2</ele>
        <time>2020-06-15T17:39:04Z</time>
      </trkpt>
      <trkpt lat="49.40467" lon="-1.32282">
        <ele>18.2</ele>
        <time>2020-06-15T17:39:05Z</time>
      </trkpt>
      <trkpt lat="49.40466" lon="-1.32279">
        <ele>18.3</ele>
        <time>2020-06-15T17:39:06Z</time>
      </trkpt>
      <trkpt lat="49.40464" lon="-1.32275">
        <ele>18.3</ele>
        <time>2020-06-15T17:39:07Z</time>
      </trkpt>
      <trkpt lat="49.40463" lon="-1.32274">
        <ele>18.4</ele>
        <time>2020-06-15T17:39:08Z</time>
      </trkpt>
      <trkpt lat="49.40461" lon="-1.3227">
        <ele>18.4</ele>
        <time>2020-06-15T17:39:09Z</time>
      </trkpt>
      <trkpt lat="49.4046" lon="-1.32269">
        <ele>18.5</ele>
        <time>2020-06-15T17:39:10Z</time>
      </trkpt>
      <trkpt lat="49.40457" lon="-1.32266">
        <ele>18.5</ele>
        <time>2020-06-15T17:39:11Z</time>
      </trkpt>
      <trkpt lat="49.40456" lon="-1.32265">
        <ele>18.5</ele>
        <time>2020-06-15T17:39:12Z</time>
      </trkpt>
      <trkpt lat="49.40455" lon="-1.32263">
        <ele>18.6</ele>
        <time>2020-06-15T17:39:13Z</time>
      </trkpt>
      <trkpt lat="49.40453" lon="-1.32262">
        <ele>18.6</ele>
        <time>2020-06-15T17:39:14Z</time>
      </trkpt>
      <trkpt lat="49.40452" lon="-1.3226">
        <ele>18.6</ele>
        <time>2020-06-15T17:39:15Z</time>
      </trkpt>
      <trkpt lat="49.40451" lon="-1.32258">
        <ele>18.6</ele>
        <time>2020-06-15T17:39:16Z</time>
      </trkpt>
      <trkpt lat="49.4045" lon="-1.32257">
        <ele>18.7</ele>
        <time>2020-06-15T17:39:17Z</time>
      </trkpt>
      <trkpt lat="49.40449" lon="-1.32255">
        <ele>18.7</ele>
        <time>2020-06-15T17:39:18Z</time>
      </trkpt>
      <trkpt lat="49.40449" lon="-1.32252">
        <ele>18.7</ele>
        <time>2020-06-15T17:39:19Z</time>
      </trkpt>
      <trkpt lat="49.4045" lon="-1.3225">
        <ele>18.7</ele>
        <time>2020-06-15T17:39:20Z</time>
      </trkpt>
      <trkpt lat="49.40452" lon="-1.32246">
        <ele>18.7</ele>
        <time>2020-06-15T17:39:21Z</time>
      </trkpt>
      <trkpt lat="49.40452" lon="-1.32245">
        <ele>18.7</ele>
        <time>2020-06-15T17:39:22Z</time>
      </trkpt>
      <trkpt lat="49.40455" lon="-1.32243">
        <ele>18.6</ele>
        <time>2020-06-15T17:39:23Z</time>
      </trkpt>
      <trkpt lat="49.40455" lon="-1.32242">
        <ele>18.6</ele>
        <time>2020-06-15T17:39:24Z</time>
      </trkpt>
      <trkpt lat="49.40459" lon="-1.32243">
        <ele>18.6</ele>
        <time>2020-06-15T17:39:25Z</time>
      </trkpt>
      <trkpt lat="49.4046" lon="-1.32244">
        <ele>18.5</ele>
        <time>2020-06-15T17:39:26Z</time>
      </trkpt>
      <trkpt lat="49.40463" lon="-1.32245">
        <ele>18.5</ele>
        <time>2020-06-15T17:39:27Z</time>
      </trkpt>
      <trkpt lat="49.40465" lon="-1.32247">
        <ele>18.4</ele>
        <time>2020-06-15T17:39:28Z</time>
      </trkpt>
      <trkpt lat="49.40468" lon="-1.32251">
        <ele>18.4</ele>
        <time>2020-06-15T17:39:29Z</time>
      </trkpt>
      <trkpt lat="49.40469" lon="-1.32252">
        <ele>18.4</ele>
        <time>2020-06-15T17:39:30Z</time>
      </trkpt>
      <trkpt lat="49.40472" lon="-1.32255">
        <ele>18.3</ele>
        <time>2020-06-15T17:39:31Z</time>
      </trkpt>
      <trkpt lat="49.40473" lon="-1.32256">
        <ele>18.3</ele>
        <time>2020-06-15T17:39:32Z</time>
      </trkpt>
      <trkpt lat="49.40476" lon="-1.32258">
        <ele>18.2</ele>
        <time>2020-06-15T17:39:33Z</time>
      </trkpt>
      <trkpt lat="49.40479" lon="-1.3226">
        <ele>18.2</ele>
        <time>2020-06-15T17:39:34Z</time>
      </trkpt>
      <trkpt lat="49.40482" lon="-1.32262">
        <ele>18.1</ele>
        <time>2020-06-15T17:39:35Z</time>
      </trkpt>
      <trkpt lat="49.40485" lon="-1.32263">
        <ele>18.1</ele>
        <time>2020-06-15T17:39:36Z</time>
      </trkpt>
      <trkpt lat="49.40488" lon="-1.32265">
        <ele>18</ele>
        <time>2020-06-15T17:39:37Z</time>
      </trkpt>
      <trkpt lat="49.40491" lon="-1.32267">
        <ele>17.9</ele>
        <time>2020-06-15T17:39:38Z</time>
      </trkpt>
      <trkpt lat="49.40494" lon="-1.32267">
        <ele>17.9</ele>
        <time>2020-06-15T17:39:39Z</time>
      </trkpt>
      <trkpt lat="49.40497" lon="-1.32267">
        <ele>17.8</ele>
        <time>2020-06-15T17:39:40Z</time>
      </trkpt>
      <trkpt lat="49.405" lon="-1.32266">
        <ele>17.7</ele>
        <time>2020-06-15T17:39:41Z</time>
      </trkpt>
      <trkpt lat="49.40504" lon="-1.32265">
        <ele>17.7</ele>
        <time>2020-06-15T17:39:42Z</time>
      </trkpt>
      <trkpt lat="49.40508" lon="-1.32262">
        <ele>17.7</ele>
        <time>2020-06-15T17:39:43Z</time>
      </trkpt>
      <trkpt lat="49.40511" lon="-1.3226">
        <ele>17.7</ele>
        <time>2020-06-15T17:39:44Z</time>
      </trkpt>
      <trkpt lat="49.40514" lon="-1.32256">
        <ele>17.7</ele>
        <time>2020-06-15T17:39:45Z</time>
      </trkpt>
      <trkpt lat="49.40518" lon="-1.32251">
        <ele>17.7</ele>
        <time>2020-06-15T17:39:46Z</time>
      </trkpt>
      <trkpt lat="49.40521" lon="-1.32247">
        <ele>17.7</ele>
        <time>2020-06-15T17:39:47Z</time>
      </trkpt>
      <trkpt lat="49.40524" lon="-1.32242">
        <ele>17.8</ele>
        <time>2020-06-15T17:39:48Z</time>
      </trkpt>
      <trkpt lat="49.40528" lon="-1.32236">
        <ele>17.8</ele>
        <time>2020-06-15T17:39:49Z</time>
      </trkpt>
      <trkpt lat="49.40531" lon="-1.32231">
        <ele>17.9</ele>
        <time>2020-06-15T17:39:50Z</time>
      </trkpt>
      <trkpt lat="49.40534" lon="-1.32225">
        <ele>18</ele>
        <time>2020-06-15T17:39:51Z</time>
      </trkpt>
      <trkpt lat="49.40536" lon="-1.32219">
        <ele>18</ele>
        <time>2020-06-15T17:39:52Z</time>
      </trkpt>
      <trkpt lat="49.40538" lon="-1.32214">
        <ele>18.1</ele>
        <time>2020-06-15T17:39:53Z</time>
      </trkpt>
      <trkpt lat="49.4054" lon="-1.32208">
        <ele>18.1</ele>
        <time>2020-06-15T17:39:54Z</time>
      </trkpt>
      <trkpt lat="49.40542" lon="-1.32203">
        <ele>18.2</ele>
        <time>2020-06-15T17:39:55Z</time>
      </trkpt>
      <trkpt lat="49.40544" lon="-1.32198">
        <ele>18.3</ele>
        <time>2020-06-15T17:39:56Z</time>
      </trkpt>
      <trkpt lat="49.40546" lon="-1.32193">
        <ele>18.4</ele>
        <time>2020-06-15T17:39:57Z</time>
      </trkpt>
      <trkpt lat="49.40548" lon="-1.32188">
        <ele>18.5</ele>
        <time>2020-06-15T17:39:58Z</time>
      </trkpt>
      <trkpt lat="49.40549" lon="-1.32183">
        <ele>18.5</ele>
        <time>2020-06-15T17:39:59Z</time>
      </trkpt>
      <trkpt lat="49.4055" lon="-1.32179">
        <ele>18.6</ele>
        <time>2020-06-15T17:40:00Z</time>
      </trkpt>
      <trkpt lat="49.40552" lon="-1.32175">
        <ele>18.7</ele>
        <time>2020-06-15T17:40:01Z</time>
      </trkpt>
      <trkpt lat="49.40554" lon="-1.3217">
        <ele>18.7</ele>
        <time>2020-06-15T17:40:02Z</time>
      </trkpt>
      <trkpt lat="49.40555" lon="-1.32166">
        <ele>18.8</ele>
        <time>2020-06-15T17:40:03Z</time>
      </trkpt>
      <trkpt lat="49.40557" lon="-1.32161">
        <ele>18.9</ele>
        <time>2020-06-15T17:40:04Z</time>
      </trkpt>
      <trkpt lat="49.40559" lon="-1.32156">
        <ele>19</ele>
        <time>2020-06-15T17:40:05Z</time>
      </trkpt>
      <trkpt lat="49.4056" lon="-1.32152">
        <ele>19</ele>
        <time>2020-06-15T17:40:06Z</time>
      </trkpt>
      <trkpt lat="49.40563" lon="-1.32148">
        <ele>19.1</ele>
        <time>2020-06-15T17:40:07Z</time>
      </trkpt>
      <trkpt lat="49.40565" lon="-1.32145">
        <ele>19.2</ele>
        <time>2020-06-15T17:40:08Z</time>
      </trkpt>
      <trkpt lat="49.40566" lon="-1.3214">
        <ele>19.3</ele>
        <time>2020-06-15T17:40:09Z</time>
      </trkpt>
      <trkpt lat="49.40566" lon="-1.32138">
        <ele>19.3</ele>
        <time>2020-06-15T17:40:10Z</time>
      </trkpt>
      <trkpt lat="49.40565" lon="-1.32134">
        <ele>19.4</ele>
        <time>2020-06-15T17:40:11Z</time>
      </trkpt>
      <trkpt lat="49.40563" lon="-1.3213">
        <ele>19.5</ele>
        <time>2020-06-15T17:40:12Z</time>
      </trkpt>
      <trkpt lat="49.40562" lon="-1.32125">
        <ele>19.6</ele>
        <time>2020-06-15T17:40:13Z</time>
      </trkpt>
      <trkpt lat="49.4056" lon="-1.32121">
        <ele>19.6</ele>
        <time>2020-06-15T17:40:14Z</time>
      </trkpt>
      <trkpt lat="49.40558" lon="-1.32117">
        <ele>19.7</ele>
        <time>2020-06-15T17:40:15Z</time>
      </trkpt>
      <trkpt lat="49.40557" lon="-1.32113">
        <ele>19.8</ele>
        <time>2020-06-15T17:40:16Z</time>
      </trkpt>
      <trkpt lat="49.40556" lon="-1.32108">
        <ele>19.9</ele>
        <time>2020-06-15T17:40:17Z</time>
      </trkpt>
      <trkpt lat="49.40555" lon="-1.32104">
        <ele>20</ele>
        <time>2020-06-15T17:40:18Z</time>
      </trkpt>
      <trkpt lat="49.40555" lon="-1.321">
        <ele>20.1</ele>
        <time>2020-06-15T17:40:19Z</time>
      </trkpt>
      <trkpt lat="49.40555" lon="-1.32095">
        <ele>20.2</ele>
        <time>2020-06-15T17:40:20Z</time>
      </trkpt>
      <trkpt lat="49.40555" lon="-1.3209">
        <ele>20.3</ele>
        <time>2020-06-15T17:40:21Z</time>
      </trkpt>
      <trkpt lat="49.40554" lon="-1.32086">
        <ele>20.4</ele>
        <time>2020-06-15T17:40:22Z</time>
      </trkpt>
      <trkpt lat="49.40553" lon="-1.32081">
        <ele>20.5</ele>
        <time>2020-06-15T17:40:23Z</time>
      </trkpt>
      <trkpt lat="49.40552" lon="-1.32076">
        <ele>20.6</ele>
        <time>2020-06-15T17:40:24Z</time>
      </trkpt>
      <trkpt lat="49.40551" lon="-1.3207">
        <ele>20.7</ele>
        <time>2020-06-15T17:40:25Z</time>
      </trkpt>
      <trkpt lat="49.4055" lon="-1.32064">
        <ele>20.8</ele>
        <time>2020-06-15T17:40:26Z</time>
      </trkpt>
      <trkpt lat="49.40549" lon="-1.32057">
        <ele>21</ele>
        <time>2020-06-15T17:40:27Z</time>
      </trkpt>
      <trkpt lat="49.40548" lon="-1.32051">
        <ele>21.1</ele>
        <time>2020-06-15T17:40:28Z</time>
      </trkpt>
      <trkpt lat="49.40547" lon="-1.32043">
        <ele>21.2</ele>
        <time>2020-06-15T17:40:29Z</time>
      </trkpt>
      <trkpt lat="49.40545" lon="-1.32038">
        <ele>21.2</ele>
        <time>2020-06-15T17:40:30Z</time>
      </trkpt>
      <trkpt lat="49.40544" lon="-1.32033">
        <ele>21.3</ele>
        <time>2020-06-15T17:40:31Z</time>
      </trkpt>
      <trkpt lat="49.40542" lon="-1.32028">
        <ele>21.4</ele>
        <time>2020-06-15T17:40:32Z</time>
      </trkpt>
      <trkpt lat="49.40541" lon="-1.32023">
        <ele>21.4</ele>
        <time>2020-06-15T17:40:33Z</time>
      </trkpt>
      <trkpt lat="49.4054" lon="-1.32018">
        <ele>21.4</ele>
        <time>2020-06-15T17:40:34Z</time>
      </trkpt>
      <trkpt lat="49.40539" lon="-1.32013">
        <ele>21.5</ele>
        <time>2020-06-15T17:40:35Z</time>
      </trkpt>
      <trkpt lat="49.40537" lon="-1.32007">
        <ele>21.5</ele>
        <time>2020-06-15T17:40:36Z</time>
      </trkpt>
      <trkpt lat="49.40536" lon="-1.32">
        <ele>21.6</ele>
        <time>2020-06-15T17:40:37Z</time>
      </trkpt>
      <trkpt lat="49.40535" lon="-1.31994">
        <ele>21.6</ele>
        <time>2020-06-15T17:40:38Z</time>
      </trkpt>
      <trkpt lat="49.40534" lon="-1.31987">
        <ele>21.7</ele>
        <time>2020-06-15T17:40:39Z</time>
      </trkpt>
      <trkpt lat="49.40533" lon="-1.31981">
        <ele>21.7</ele>
        <time>2020-06-15T17:40:40Z</time>
      </trkpt>
      <trkpt lat="49.40532" lon="-1.31974">
        <ele>21.7</ele>
        <time>2020-06-15T17:40:41Z</time>
      </trkpt>
      <trkpt lat="49.40531" lon="-1.31968">
        <ele>21.8</ele>
        <time>2020-06-15T17:40:42Z</time>
      </trkpt>
      <trkpt lat="49.40529" lon="-1.31961">
        <ele>21.8</ele>
        <time>2020-06-15T17:40:43Z</time>
      </trkpt>
      <trkpt lat="49.40528" lon="-1.31953">
        <ele>21.8</ele>
        <time>2020-06-15T17:40:44Z</time>
      </trkpt>
      <trkpt lat="49.40527" lon="-1.31947">
        <ele>21.8</ele>
        <time>2020-06-15T17:40:45Z</time>
      </trkpt>
      <trkpt lat="49.40526" lon="-1.31939">
        <ele>21.8</ele>
        <time>2020-06-15T17:40:46Z</time>
      </trkpt>
      <trkpt lat="49.40524" lon="-1.31931">
        <ele>21.9</ele>
        <time>2020-06-15T17:40:47Z</time>
      </trkpt>
      <trkpt lat="49.40523" lon="-1.31924">
        <ele>21.9</ele>
        <time>2020-06-15T17:40:48Z</time>
      </trkpt>
      <trkpt lat="49.40522" lon="-1.31919">
        <ele>21.9</ele>
        <time>2020-06-15T17:40:49Z</time>
      </trkpt>
      <trkpt lat="49.40521" lon="-1.31912">
        <ele>21.9</ele>
        <time>2020-06-15T17:40:50Z</time>
      </trkpt>
      <trkpt lat="49.40521" lon="-1.31906">
        <ele>21.9</ele>
        <time>2020-06-15T17:40:51Z</time>
      </trkpt>
      <trkpt lat="49.4052" lon="-1.31901">
        <ele>21.9</ele>
        <time>2020-06-15T17:40:52Z</time>
      </trkpt>
      <trkpt lat="49.40518" lon="-1.31895">
        <ele>21.9</ele>
        <time>2020-06-15T17:40:53Z</time>
      </trkpt>
      <trkpt lat="49.40517" lon="-1.3189">
        <ele>21.9</ele>
        <time>2020-06-15T17:40:54Z</time>
      </trkpt>
      <trkpt lat="49.40515" lon="-1.31884">
        <ele>21.9</ele>
        <time>2020-06-15T17:40:55Z</time>
      </trkpt>
      <trkpt lat="49.40512" lon="-1.31877">
        <ele>21.9</ele>
        <time>2020-06-15T17:40:56Z</time>
      </trkpt>
      <trkpt lat="49.4051" lon="-1.3187">
        <ele>21.9</ele>
        <time>2020-06-15T17:40:57Z</time>
      </trkpt>
      <trkpt lat="49.40508" lon="-1.31864">
        <ele>21.8</ele>
        <time>2020-06-15T17:40:58Z</time>
      </trkpt>
      <trkpt lat="49.40506" lon="-1.31858">
        <ele>21.8</ele>
        <time>2020-06-15T17:40:59Z</time>
      </trkpt>
      <trkpt lat="49.40503" lon="-1.31852">
        <ele>21.7</ele>
        <time>2020-06-15T17:41:00Z</time>
      </trkpt>
      <trkpt lat="49.405" lon="-1.31846">
        <ele>21.7</ele>
        <time>2020-06-15T17:41:01Z</time>
      </trkpt>
      <trkpt lat="49.40497" lon="-1.31841">
        <ele>21.6</ele>
        <time>2020-06-15T17:41:02Z</time>
      </trkpt>
      <trkpt lat="49.40494" lon="-1.31836">
        <ele>21.5</ele>
        <time>2020-06-15T17:41:03Z</time>
      </trkpt>
      <trkpt lat="49.40492" lon="-1.31831">
        <ele>21.4</ele>
        <time>2020-06-15T17:41:04Z</time>
      </trkpt>
      <trkpt lat="49.40488" lon="-1.31825">
        <ele>21.3</ele>
        <time>2020-06-15T17:41:05Z</time>
      </trkpt>
      <trkpt lat="49.40486" lon="-1.3182">
        <ele>21.3</ele>
        <time>2020-06-15T17:41:06Z</time>
      </trkpt>
      <trkpt lat="49.40483" lon="-1.31814">
        <ele>21.2</ele>
        <time>2020-06-15T17:41:07Z</time>
      </trkpt>
      <trkpt lat="49.4048" lon="-1.31809">
        <ele>21.1</ele>
        <time>2020-06-15T17:41:08Z</time>
      </trkpt>
      <trkpt lat="49.40477" lon="-1.31804">
        <ele>21</ele>
        <time>2020-06-15T17:41:09Z</time>
      </trkpt>
      <trkpt lat="49.40474" lon="-1.31799">
        <ele>20.9</ele>
        <time>2020-06-15T17:41:10Z</time>
      </trkpt>
      <trkpt lat="49.4047" lon="-1.31793">
        <ele>20.8</ele>
        <time>2020-06-15T17:41:11Z</time>
      </trkpt>
      <trkpt lat="49.40466" lon="-1.31788">
        <ele>20.6</ele>
        <time>2020-06-15T17:41:12Z</time>
      </trkpt>
      <trkpt lat="49.40463" lon="-1.31783">
        <ele>20.5</ele>
        <time>2020-06-15T17:41:13Z</time>
      </trkpt>
      <trkpt lat="49.40459" lon="-1.31776">
        <ele>20.3</ele>
        <time>2020-06-15T17:41:14Z</time>
      </trkpt>
      <trkpt lat="49.40456" lon="-1.3177">
        <ele>20.1</ele>
        <time>2020-06-15T17:41:15Z</time>
      </trkpt>
      <trkpt lat="49.40452" lon="-1.31764">
        <ele>19.9</ele>
        <time>2020-06-15T17:41:16Z</time>
      </trkpt>
      <trkpt lat="49.40449" lon="-1.31758">
        <ele>19.7</ele>
        <time>2020-06-15T17:41:17Z</time>
      </trkpt>
      <trkpt lat="49.40446" lon="-1.31752">
        <ele>19.5</ele>
        <time>2020-06-15T17:41:18Z</time>
      </trkpt>
      <trkpt lat="49.40443" lon="-1.31745">
        <ele>19.3</ele>
        <time>2020-06-15T17:41:19Z</time>
      </trkpt>
      <trkpt lat="49.4044" lon="-1.31737">
        <ele>19.1</ele>
        <time>2020-06-15T17:41:20Z</time>
      </trkpt>
      <trkpt lat="49.40437" lon="-1.31729">
        <ele>18.8</ele>
        <time>2020-06-15T17:41:21Z</time>
      </trkpt>
      <trkpt lat="49.40434" lon="-1.31721">
        <ele>18.6</ele>
        <time>2020-06-15T17:41:22Z</time>
      </trkpt>
      <trkpt lat="49.40431" lon="-1.31712">
        <ele>18.4</ele>
        <time>2020-06-15T17:41:23Z</time>
      </trkpt>
      <trkpt lat="49.40427" lon="-1.31703">
        <ele>18.1</ele>
        <time>2020-06-15T17:41:24Z</time>
      </trkpt>
      <trkpt lat="49.40423" lon="-1.31695">
        <ele>17.9</ele>
        <time>2020-06-15T17:41:25Z</time>
      </trkpt>
      <trkpt lat="49.40419" lon="-1.31686">
        <ele>17.7</ele>
        <time>2020-06-15T17:41:26Z</time>
      </trkpt>
      <trkpt lat="49.40415" lon="-1.31675">
        <ele>17.5</ele>
        <time>2020-06-15T17:41:27Z</time>
      </trkpt>
      <trkpt lat="49.40411" lon="-1.31664">
        <ele>17.5</ele>
        <time>2020-06-15T17:41:28Z</time>
      </trkpt>
      <trkpt lat="49.40406" lon="-1.31654">
        <ele>17.5</ele>
        <time>2020-06-15T17:41:29Z</time>
      </trkpt>
      <trkpt lat="49.40403" lon="-1.31645">
        <ele>17.5</ele>
        <time>2020-06-15T17:41:30Z</time>
      </trkpt>
      <trkpt lat="49.40399" lon="-1.31636">
        <ele>17.6</ele>
        <time>2020-06-15T17:41:31Z</time>
      </trkpt>
      <trkpt lat="49.40395" lon="-1.31626">
        <ele>17.7</ele>
        <time>2020-06-15T17:41:32Z</time>
      </trkpt>
      <trkpt lat="49.40392" lon="-1.31617">
        <ele>17.8</ele>
        <time>2020-06-15T17:41:33Z</time>
      </trkpt>
      <trkpt lat="49.40388" lon="-1.31608">
        <ele>17.9</ele>
        <time>2020-06-15T17:41:34Z</time>
      </trkpt>
      <trkpt lat="49.40385" lon="-1.31598">
        <ele>18.1</ele>
        <time>2020-06-15T17:41:35Z</time>
      </trkpt>
      <trkpt lat="49.40381" lon="-1.3159">
        <ele>18.2</ele>
        <time>2020-06-15T17:41:36Z</time>
      </trkpt>
      <trkpt lat="49.40379" lon="-1.31584">
        <ele>18.4</ele>
        <time>2020-06-15T17:41:37Z</time>
      </trkpt>
      <trkpt lat="49.40375" lon="-1.31578">
        <ele>18.6</ele>
        <time>2020-06-15T17:41:38Z</time>
      </trkpt>
      <trkpt lat="49.40373" lon="-1.31571">
        <ele>18.7</ele>
        <time>2020-06-15T17:41:39Z</time>
      </trkpt>
      <trkpt lat="49.4037" lon="-1.31566">
        <ele>18.9</ele>
        <time>2020-06-15T17:41:40Z</time>
      </trkpt>
      <trkpt lat="49.40367" lon="-1.31561">
        <ele>19</ele>
        <time>2020-06-15T17:41:41Z</time>
      </trkpt>
      <trkpt lat="49.40364" lon="-1.31556">
        <ele>19.2</ele>
        <time>2020-06-15T17:41:42Z</time>
      </trkpt>
      <trkpt lat="49.40361" lon="-1.3155">
        <ele>19.4</ele>
        <time>2020-06-15T17:41:43Z</time>
      </trkpt>
      <trkpt lat="49.40358" lon="-1.31545">
        <ele>19.5</ele>
        <time>2020-06-15T17:41:44Z</time>
      </trkpt>
      <trkpt lat="49.40355" lon="-1.31538">
        <ele>19.7</ele>
        <time>2020-06-15T17:41:45Z</time>
      </trkpt>
      <trkpt lat="49.40353" lon="-1.31532">
        <ele>19.8</ele>
        <time>2020-06-15T17:41:46Z</time>
      </trkpt>
      <trkpt lat="49.4035" lon="-1.31526">
        <ele>20</ele>
        <time>2020-06-15T17:41:47Z</time>
      </trkpt>
      <trkpt lat="49.40348" lon="-1.3152">
        <ele>20.1</ele>
        <time>2020-06-15T17:41:48Z</time>
      </trkpt>
      <trkpt lat="49.40346" lon="-1.31514">
        <ele>20.2</ele>
        <time>2020-06-15T17:41:49Z</time>
      </trkpt>
      <trkpt lat="49.40343" lon="-1.31508">
        <ele>20.4</ele>
        <time>2020-06-15T17:41:50Z</time>
      </trkpt>
      <trkpt lat="49.4034" lon="-1.31501">
        <ele>20.6</ele>
        <time>2020-06-15T17:41:51Z</time>
      </trkpt>
      <trkpt lat="49.40338" lon="-1.31495">
        <ele>20.7</ele>
        <time>2020-06-15T17:41:52Z</time>
      </trkpt>
      <trkpt lat="49.40335" lon="-1.31488">
        <ele>20.8</ele>
        <time>2020-06-15T17:41:53Z</time>
      </trkpt>
      <trkpt lat="49.40333" lon="-1.31482">
        <ele>21</ele>
        <time>2020-06-15T17:41:54Z</time>
      </trkpt>
      <trkpt lat="49.40331" lon="-1.31474">
        <ele>21.1</ele>
        <time>2020-06-15T17:41:55Z</time>
      </trkpt>
      <trkpt lat="49.40328" lon="-1.31468">
        <ele>21.2</ele>
        <time>2020-06-15T17:41:56Z</time>
      </trkpt>
      <trkpt lat="49.40325" lon="-1.31464">
        <ele>21.3</ele>
        <time>2020-06-15T17:41:57Z</time>
      </trkpt>
      <trkpt lat="49.40323" lon="-1.31458">
        <ele>21.4</ele>
        <time>2020-06-15T17:41:58Z</time>
      </trkpt>
      <trkpt lat="49.4032" lon="-1.31453">
        <ele>21.5</ele>
        <time>2020-06-15T17:41:59Z</time>
      </trkpt>
      <trkpt lat="49.40317" lon="-1.31446">
        <ele>21.6</ele>
        <time>2020-06-15T17:42:00Z</time>
      </trkpt>
      <trkpt lat="49.40314" lon="-1.31441">
        <ele>21.7</ele>
        <time>2020-06-15T17:42:01Z</time>
      </trkpt>
      <trkpt lat="49.40311" lon="-1.31435">
        <ele>21.7</ele>
        <time>2020-06-15T17:42:02Z</time>
      </trkpt>
      <trkpt lat="49.40308" lon="-1.31429">
        <ele>21.8</ele>
        <time>2020-06-15T17:42:03Z</time>
      </trkpt>
      <trkpt lat="49.40305" lon="-1.31424">
        <ele>21.9</ele>
        <time>2020-06-15T17:42:04Z</time>
      </trkpt>
      <trkpt lat="49.40303" lon="-1.31419">
        <ele>22</ele>
        <time>2020-06-15T17:42:05Z</time>
      </trkpt>
      <trkpt lat="49.403" lon="-1.31413">
        <ele>22</ele>
        <time>2020-06-15T17:42:06Z</time>
      </trkpt>
      <trkpt lat="49.40298" lon="-1.31408">
        <ele>22.1</ele>
        <time>2020-06-15T17:42:07Z</time>
      </trkpt>
      <trkpt lat="49.40295" lon="-1.31402">
        <ele>22.1</ele>
        <time>2020-06-15T17:42:08Z</time>
      </trkpt>
      <trkpt lat="49.40292" lon="-1.31396">
        <ele>22.2</ele>
        <time>2020-06-15T17:42:09Z</time>
      </trkpt>
      <trkpt lat="49.40288" lon="-1.3139">
        <ele>22.3</ele>
        <time>2020-06-15T17:42:10Z</time>
      </trkpt>
      <trkpt lat="49.40285" lon="-1.31386">
        <ele>22.4</ele>
        <time>2020-06-15T17:42:11Z</time>
      </trkpt>
      <trkpt lat="49.40281" lon="-1.3138">
        <ele>22.4</ele>
        <time>2020-06-15T17:42:12Z</time>
      </trkpt>
      <trkpt lat="49.40278" lon="-1.31375">
        <ele>22.5</ele>
        <time>2020-06-15T17:42:13Z</time>
      </trkpt>
      <trkpt lat="49.40274" lon="-1.3137">
        <ele>22.6</ele>
        <time>2020-06-15T17:42:14Z</time>
      </trkpt>
      <trkpt lat="49.40269" lon="-1.31366">
        <ele>22.7</ele>
        <time>2020-06-15T17:42:15Z</time>
      </trkpt>
      <trkpt lat="49.40265" lon="-1.31362">
        <ele>22.7</ele>
        <time>2020-06-15T17:42:16Z</time>
      </trkpt>
      <trkpt lat="49.4026" lon="-1.3136">
        <ele>22.8</ele>
        <time>2020-06-15T17:42:17Z</time>
      </trkpt>
      <trkpt lat="49.40256" lon="-1.31357">
        <ele>22.9</ele>
        <time>2020-06-15T17:42:18Z</time>
      </trkpt>
      <trkpt lat="49.40252" lon="-1.31354">
        <ele>22.9</ele>
        <time>2020-06-15T17:42:19Z</time>
      </trkpt>
      <trkpt lat="49.40247" lon="-1.31353">
        <ele>23</ele>
        <time>2020-06-15T17:42:20Z</time>
      </trkpt>
      <trkpt lat="49.40242" lon="-1.31352">
        <ele>23</ele>
        <time>2020-06-15T17:42:21Z</time>
      </trkpt>
      <trkpt lat="49.40238" lon="-1.31352">
        <ele>23.1</ele>
        <time>2020-06-15T17:42:22Z</time>
      </trkpt>
      <trkpt lat="49.40233" lon="-1.31351">
        <ele>23.1</ele>
        <time>2020-06-15T17:42:23Z</time>
      </trkpt>
      <trkpt lat="49.40228" lon="-1.3135">
        <ele>23.2</ele>
        <time>2020-06-15T17:42:24Z</time>
      </trkpt>
      <trkpt lat="49.40224" lon="-1.3135">
        <ele>23.2</ele>
        <time>2020-06-15T17:42:25Z</time>
      </trkpt>
      <trkpt lat="49.40219" lon="-1.31352">
        <ele>23.2</ele>
        <time>2020-06-15T17:42:26Z</time>
      </trkpt>
      <trkpt lat="49.40215" lon="-1.31353">
        <ele>23.3</ele>
        <time>2020-06-15T17:42:27Z</time>
      </trkpt>
      <trkpt lat="49.4021" lon="-1.31353">
        <ele>23.3</ele>
        <time>2020-06-15T17:42:28Z</time>
      </trkpt>
      <trkpt lat="49.40206" lon="-1.31353">
        <ele>23.4</ele>
        <time>2020-06-15T17:42:29Z</time>
      </trkpt>
      <trkpt lat="49.40201" lon="-1.31354">
        <ele>23.4</ele>
        <time>2020-06-15T17:42:30Z</time>
      </trkpt>
      <trkpt lat="49.40196" lon="-1.31355">
        <ele>23.5</ele>
        <time>2020-06-15T17:42:31Z</time>
      </trkpt>
      <trkpt lat="49.40191" lon="-1.31355">
        <ele>23.5</ele>
        <time>2020-06-15T17:42:32Z</time>
      </trkpt>
      <trkpt lat="49.40186" lon="-1.31355">
        <ele>23.6</ele>
        <time>2020-06-15T17:42:33Z</time>
      </trkpt>
      <trkpt lat="49.40181" lon="-1.31354">
        <ele>23.7</ele>
        <time>2020-06-15T17:42:34Z</time>
      </trkpt>
      <trkpt lat="49.40177" lon="-1.31351">
        <ele>23.7</ele>
        <time>2020-06-15T17:42:35Z</time>
      </trkpt>
      <trkpt lat="49.40173" lon="-1.31347">
        <ele>23.8</ele>
        <time>2020-06-15T17:42:36Z</time>
      </trkpt>
      <trkpt lat="49.40169" lon="-1.31341">
        <ele>23.8</ele>
        <time>2020-06-15T17:42:37Z</time>
      </trkpt>
      <trkpt lat="49.40166" lon="-1.31336">
        <ele>23.8</ele>
        <time>2020-06-15T17:42:38Z</time>
      </trkpt>
      <trkpt lat="49.40164" lon="-1.31331">
        <ele>23.9</ele>
        <time>2020-06-15T17:42:39Z</time>
      </trkpt>
      <trkpt lat="49.40162" lon="-1.31325">
        <ele>23.9</ele>
        <time>2020-06-15T17:42:40Z</time>
      </trkpt>
      <trkpt lat="49.4016" lon="-1.31319">
        <ele>23.9</ele>
        <time>2020-06-15T17:42:41Z</time>
      </trkpt>
      <trkpt lat="49.40159" lon="-1.31312">
        <ele>23.9</ele>
        <time>2020-06-15T17:42:42Z</time>
      </trkpt>
      <trkpt lat="49.40158" lon="-1.31305">
        <ele>23.9</ele>
        <time>2020-06-15T17:42:43Z</time>
      </trkpt>
      <trkpt lat="49.40158" lon="-1.31296">
        <ele>24</ele>
        <time>2020-06-15T17:42:44Z</time>
      </trkpt>
      <trkpt lat="49.40158" lon="-1.31288">
        <ele>24</ele>
        <time>2020-06-15T17:42:45Z</time>
      </trkpt>
      <trkpt lat="49.40159" lon="-1.31279">
        <ele>24.1</ele>
        <time>2020-06-15T17:42:46Z</time>
      </trkpt>
      <trkpt lat="49.4016" lon="-1.31271">
        <ele>24.2</ele>
        <time>2020-06-15T17:42:47Z</time>
      </trkpt>
      <trkpt lat="49.40162" lon="-1.31263">
        <ele>24.2</ele>
        <time>2020-06-15T17:42:48Z</time>
      </trkpt>
      <trkpt lat="49.40163" lon="-1.31257">
        <ele>24.3</ele>
        <time>2020-06-15T17:42:49Z</time>
      </trkpt>
      <trkpt lat="49.40164" lon="-1.31251">
        <ele>24.3</ele>
        <time>2020-06-15T17:42:50Z</time>
      </trkpt>
      <trkpt lat="49.40164" lon="-1.31244">
        <ele>24.3</ele>
        <time>2020-06-15T17:42:51Z</time>
      </trkpt>
      <trkpt lat="49.40162" lon="-1.31239">
        <ele>24.2</ele>
        <time>2020-06-15T17:42:52Z</time>
      </trkpt>
      <trkpt lat="49.40159" lon="-1.31233">
        <ele>24.2</ele>
        <time>2020-06-15T17:42:53Z</time>
      </trkpt>
      <trkpt lat="49.40155" lon="-1.31228">
        <ele>24.1</ele>
        <time>2020-06-15T17:42:54Z</time>
      </trkpt>
      <trkpt lat="49.4015" lon="-1.31225">
        <ele>24</ele>
        <time>2020-06-15T17:42:55Z</time>
      </trkpt>
      <trkpt lat="49.40146" lon="-1.31221">
        <ele>24</ele>
        <time>2020-06-15T17:42:56Z</time>
      </trkpt>
      <trkpt lat="49.4014" lon="-1.31219">
        <ele>24</ele>
        <time>2020-06-15T17:42:57Z</time>
      </trkpt>
      <trkpt lat="49.40136" lon="-1.31216">
        <ele>23.9</ele>
        <time>2020-06-15T17:42:58Z</time>
      </trkpt>
      <trkpt lat="49.40131" lon="-1.31213">
        <ele>23.9</ele>
        <time>2020-06-15T17:42:59Z</time>
      </trkpt>
      <trkpt lat="49.40126" lon="-1.31209">
        <ele>23.8</ele>
        <time>2020-06-15T17:43:00Z</time>
      </trkpt>
      <trkpt lat="49.40121" lon="-1.31206">
        <ele>23.8</ele>
        <time>2020-06-15T17:43:01Z</time>
      </trkpt>
      <trkpt lat="49.40117" lon="-1.31203">
        <ele>23.8</ele>
        <time>2020-06-15T17:43:02Z</time>
      </trkpt>
      <trkpt lat="49.40113" lon="-1.31199">
        <ele>23.8</ele>
        <time>2020-06-15T17:43:03Z</time>
      </trkpt>
      <trkpt lat="49.40109" lon="-1.31195">
        <ele>23.7</ele>
        <time>2020-06-15T17:43:04Z</time>
      </trkpt>
      <trkpt lat="49.40105" lon="-1.31192">
        <ele>23.7</ele>
        <time>2020-06-15T17:43:05Z</time>
      </trkpt>
      <trkpt lat="49.40101" lon="-1.31188">
        <ele>23.7</ele>
        <time>2020-06-15T17:43:06Z</time>
      </trkpt>
      <trkpt lat="49.40097" lon="-1.31184">
        <ele>23.7</ele>
        <time>2020-06-15T17:43:07Z</time>
      </trkpt>
      <trkpt lat="49.40092" lon="-1.3118">
        <ele>23.7</ele>
        <time>2020-06-15T17:43:08Z</time>
      </trkpt>
      <trkpt lat="49.40088" lon="-1.31178">
        <ele>23.7</ele>
        <time>2020-06-15T17:43:09Z</time>
      </trkpt>
      <trkpt lat="49.40082" lon="-1.31175">
        <ele>23.7</ele>
        <time>2020-06-15T17:43:10Z</time>
      </trkpt>
      <trkpt lat="49.40078" lon="-1.31172">
        <ele>23.7</ele>
        <time>2020-06-15T17:43:11Z</time>
      </trkpt>
      <trkpt lat="49.40074" lon="-1.31169">
        <ele>23.7</ele>
        <time>2020-06-15T17:43:12Z</time>
      </trkpt>
      <trkpt lat="49.40069" lon="-1.31165">
        <ele>23.7</ele>
        <time>2020-06-15T17:43:13Z</time>
      </trkpt>
      <trkpt lat="49.40064" lon="-1.31163">
        <ele>23.6</ele>
        <time>2020-06-15T17:43:14Z</time>
      </trkpt>
      <trkpt lat="49.40059" lon="-1.3116">
        <ele>23.6</ele>
        <time>2020-06-15T17:43:15Z</time>
      </trkpt>
      <trkpt lat="49.40056" lon="-1.31155">
        <ele>23.6</ele>
        <time>2020-06-15T17:43:16Z</time>
      </trkpt>
      <trkpt lat="49.40051" lon="-1.31151">
        <ele>23.5</ele>
        <time>2020-06-15T17:43:17Z</time>
      </trkpt>
      <trkpt lat="49.40047" lon="-1.31148">
        <ele>23.5</ele>
        <time>2020-06-15T17:43:18Z</time>
      </trkpt>
      <trkpt lat="49.40042" lon="-1.31144">
        <ele>23.4</ele>
        <time>2020-06-15T17:43:19Z</time>
      </trkpt>
      <trkpt lat="49.40037" lon="-1.31141">
        <ele>23.3</ele>
        <time>2020-06-15T17:43:20Z</time>
      </trkpt>
      <trkpt lat="49.40033" lon="-1.31138">
        <ele>23.3</ele>
        <time>2020-06-15T17:43:21Z</time>
      </trkpt>
      <trkpt lat="49.40028" lon="-1.31135">
        <ele>23.2</ele>
        <time>2020-06-15T17:43:22Z</time>
      </trkpt>
      <trkpt lat="49.40024" lon="-1.31131">
        <ele>23.1</ele>
        <time>2020-06-15T17:43:23Z</time>
      </trkpt>
      <trkpt lat="49.40019" lon="-1.31127">
        <ele>23</ele>
        <time>2020-06-15T17:43:24Z</time>
      </trkpt>
      <trkpt lat="49.40014" lon="-1.31122">
        <ele>22.8</ele>
        <time>2020-06-15T17:43:25Z</time>
      </trkpt>
      <trkpt lat="49.4001" lon="-1.31118">
        <ele>22.7</ele>
        <time>2020-06-15T17:43:26Z</time>
      </trkpt>
      <trkpt lat="49.40004" lon="-1.31112">
        <ele>22.6</ele>
        <time>2020-06-15T17:43:27Z</time>
      </trkpt>
      <trkpt lat="49.39999" lon="-1.31107">
        <ele>22.4</ele>
        <time>2020-06-15T17:43:28Z</time>
      </trkpt>
      <trkpt lat="49.39992" lon="-1.31101">
        <ele>22.2</ele>
        <time>2020-06-15T17:43:29Z</time>
      </trkpt>
      <trkpt lat="49.39987" lon="-1.31096">
        <ele>22</ele>
        <time>2020-06-15T17:43:30Z</time>
      </trkpt>
      <trkpt lat="49.39981" lon="-1.31092">
        <ele>21.9</ele>
        <time>2020-06-15T17:43:31Z</time>
      </trkpt>
      <trkpt lat="49.39975" lon="-1.31087">
        <ele>21.7</ele>
        <time>2020-06-15T17:43:32Z</time>
      </trkpt>
      <trkpt lat="49.39968" lon="-1.31082">
        <ele>21.6</ele>
        <time>2020-06-15T17:43:33Z</time>
      </trkpt>
      <trkpt lat="49.39962" lon="-1.31077">
        <ele>21.4</ele>
        <time>2020-06-15T17:43:34Z</time>
      </trkpt>
      <trkpt lat="49.39956" lon="-1.31073">
        <ele>21.2</ele>
        <time>2020-06-15T17:43:35Z</time>
      </trkpt>
      <trkpt lat="49.3995" lon="-1.31067">
        <ele>21.1</ele>
        <time>2020-06-15T17:43:36Z</time>
      </trkpt>
      <trkpt lat="49.39944" lon="-1.31062">
        <ele>20.9</ele>
        <time>2020-06-15T17:43:37Z</time>
      </trkpt>
      <trkpt lat="49.39939" lon="-1.31057">
        <ele>20.8</ele>
        <time>2020-06-15T17:43:38Z</time>
      </trkpt>
      <trkpt lat="49.39933" lon="-1.31052">
        <ele>20.6</ele>
        <time>2020-06-15T17:43:39Z</time>
      </trkpt>
      <trkpt lat="49.39926" lon="-1.31046">
        <ele>20.5</ele>
        <time>2020-06-15T17:43:40Z</time>
      </trkpt>
      <trkpt lat="49.3992" lon="-1.31041">
        <ele>20.4</ele>
        <time>2020-06-15T17:43:41Z</time>
      </trkpt>
      <trkpt lat="49.39913" lon="-1.31035">
        <ele>20.4</ele>
        <time>2020-06-15T17:43:42Z</time>
      </trkpt>
      <trkpt lat="49.39906" lon="-1.31029">
        <ele>20.6</ele>
        <time>2020-06-15T17:43:43Z</time>
      </trkpt>
      <trkpt lat="49.399" lon="-1.31023">
        <ele>20.8</ele>
        <time>2020-06-15T17:43:44Z</time>
      </trkpt>
      <trkpt lat="49.39893" lon="-1.31018">
        <ele>20.9</ele>
        <time>2020-06-15T17:43:45Z</time>
      </trkpt>
      <trkpt lat="49.39888" lon="-1.31014">
        <ele>21</ele>
        <time>2020-06-15T17:43:46Z</time>
      </trkpt>
      <trkpt lat="49.39882" lon="-1.31011">
        <ele>21</ele>
        <time>2020-06-15T17:43:47Z</time>
      </trkpt>
      <trkpt lat="49.39877" lon="-1.31007">
        <ele>21.1</ele>
        <time>2020-06-15T17:43:48Z</time>
      </trkpt>
      <trkpt lat="49.39872" lon="-1.31003">
        <ele>21.2</ele>
        <time>2020-06-15T17:43:49Z</time>
      </trkpt>
      <trkpt lat="49.39867" lon="-1.30999">
        <ele>21.2</ele>
        <time>2020-06-15T17:43:50Z</time>
      </trkpt>
      <trkpt lat="49.39863" lon="-1.30995">
        <ele>21.3</ele>
        <time>2020-06-15T17:43:51Z</time>
      </trkpt>
      <trkpt lat="49.39859" lon="-1.30991">
        <ele>21.4</ele>
        <time>2020-06-15T17:43:52Z</time>
      </trkpt>
      <trkpt lat="49.39854" lon="-1.30988">
        <ele>21.5</ele>
        <time>2020-06-15T17:43:53Z</time>
      </trkpt>
      <trkpt lat="49.39849" lon="-1.30985">
        <ele>21.6</ele>
        <time>2020-06-15T17:43:54Z</time>
      </trkpt>
      <trkpt lat="49.39844" lon="-1.30982">
        <ele>21.8</ele>
        <time>2020-06-15T17:43:55Z</time>
      </trkpt>
      <trkpt lat="49.3984" lon="-1.30978">
        <ele>21.9</ele>
        <time>2020-06-15T17:43:56Z</time>
      </trkpt>
      <trkpt lat="49.39836" lon="-1.30975">
        <ele>22</ele>
        <time>2020-06-15T17:43:57Z</time>
      </trkpt>
      <trkpt lat="49.39832" lon="-1.30971">
        <ele>22.2</ele>
        <time>2020-06-15T17:43:58Z</time>
      </trkpt>
      <trkpt lat="49.39828" lon="-1.30968">
        <ele>22.3</ele>
        <time>2020-06-15T17:43:59Z</time>
      </trkpt>
      <trkpt lat="49.39824" lon="-1.30964">
        <ele>22.4</ele>
        <time>2020-06-15T17:44:00Z</time>
      </trkpt>
      <trkpt lat="49.3982" lon="-1.30962">
        <ele>22.6</ele>
        <time>2020-06-15T17:44:01Z</time>
      </trkpt>
      <trkpt lat="49.39816" lon="-1.3096">
        <ele>22.7</ele>
        <time>2020-06-15T17:44:02Z</time>
      </trkpt>
      <trkpt lat="49.39812" lon="-1.30957">
        <ele>22.8</ele>
        <time>2020-06-15T17:44:03Z</time>
      </trkpt>
      <trkpt lat="49.39809" lon="-1.30954">
        <ele>23</ele>
        <time>2020-06-15T17:44:04Z</time>
      </trkpt>
      <trkpt lat="49.39805" lon="-1.30952">
        <ele>23.1</ele>
        <time>2020-06-15T17:44:05Z</time>
      </trkpt>
      <trkpt lat="49.39801" lon="-1.3095">
        <ele>23.2</ele>
        <time>2020-06-15T17:44:06Z</time>
      </trkpt>
      <trkpt lat="49.39797" lon="-1.30948">
        <ele>23.3</ele>
        <time>2020-06-15T17:44:07Z</time>
      </trkpt>
      <trkpt lat="49.39794" lon="-1.30946">
        <ele>23.5</ele>
        <time>2020-06-15T17:44:08Z</time>
      </trkpt>
      <trkpt lat="49.3979" lon="-1.30943">
        <ele>23.6</ele>
        <time>2020-06-15T17:44:09Z</time>
      </trkpt>
      <trkpt lat="49.39786" lon="-1.3094">
        <ele>23.8</ele>
        <time>2020-06-15T17:44:10Z</time>
      </trkpt>
      <trkpt lat="49.39782" lon="-1.30937">
        <ele>23.9</ele>
        <time>2020-06-15T17:44:11Z</time>
      </trkpt>
      <trkpt lat="49.39778" lon="-1.30935">
        <ele>24.1</ele>
        <time>2020-06-15T17:44:12Z</time>
      </trkpt>
      <trkpt lat="49.39774" lon="-1.30932">
        <ele>24.2</ele>
        <time>2020-06-15T17:44:13Z</time>
      </trkpt>
      <trkpt lat="49.3977" lon="-1.3093">
        <ele>24.4</ele>
        <time>2020-06-15T17:44:14Z</time>
      </trkpt>
      <trkpt lat="49.39766" lon="-1.30927">
        <ele>24.6</ele>
        <time>2020-06-15T17:44:15Z</time>
      </trkpt>
      <trkpt lat="49.39762" lon="-1.30924">
        <ele>24.8</ele>
        <time>2020-06-15T17:44:16Z</time>
      </trkpt>
      <trkpt lat="49.39759" lon="-1.30921">
        <ele>24.9</ele>
        <time>2020-06-15T17:44:17Z</time>
      </trkpt>
      <trkpt lat="49.39756" lon="-1.30919">
        <ele>25.1</ele>
        <time>2020-06-15T17:44:18Z</time>
      </trkpt>
      <trkpt lat="49.39752" lon="-1.30915">
        <ele>25.3</ele>
        <time>2020-06-15T17:44:19Z</time>
      </trkpt>
      <trkpt lat="49.39748" lon="-1.30913">
        <ele>25.5</ele>
        <time>2020-06-15T17:44:20Z</time>
      </trkpt>
      <trkpt lat="49.39745" lon="-1.3091">
        <ele>25.7</ele>
        <time>2020-06-15T17:44:21Z</time>
      </trkpt>
      <trkpt lat="49.39742" lon="-1.30908">
        <ele>25.8</ele>
        <time>2020-06-15T17:44:22Z</time>
      </trkpt>
      <trkpt lat="49.39739" lon="-1.30906">
        <ele>25.9</ele>
        <time>2020-06-15T17:44:23Z</time>
      </trkpt>
      <trkpt lat="49.39736" lon="-1.30904">
        <ele>26.1</ele>
        <time>2020-06-15T17:44:24Z</time>
      </trkpt>
      <trkpt lat="49.39734" lon="-1.30901">
        <ele>26.2</ele>
        <time>2020-06-15T17:44:25Z</time>
      </trkpt>
      <trkpt lat="49.3973" lon="-1.30897">
        <ele>26.4</ele>
        <time>2020-06-15T17:44:26Z</time>
      </trkpt>
      <trkpt lat="49.39726" lon="-1.30894">
        <ele>26.6</ele>
        <time>2020-06-15T17:44:27Z</time>
      </trkpt>
      <trkpt lat="49.39722" lon="-1.30892">
        <ele>26.7</ele>
        <time>2020-06-15T17:44:28Z</time>
      </trkpt>
      <trkpt lat="49.39718" lon="-1.30889">
        <ele>26.9</ele>
        <time>2020-06-15T17:44:29Z</time>
      </trkpt>
      <trkpt lat="49.39715" lon="-1.30887">
        <ele>27</ele>
        <time>2020-06-15T17:44:30Z</time>
      </trkpt>
      <trkpt lat="49.39711" lon="-1.30884">
        <ele>27.1</ele>
        <time>2020-06-15T17:44:31Z</time>
      </trkpt>
      <trkpt lat="49.39707" lon="-1.30881">
        <ele>27.3</ele>
        <time>2020-06-15T17:44:32Z</time>
      </trkpt>
      <trkpt lat="49.39704" lon="-1.30877">
        <ele>27.4</ele>
        <time>2020-06-15T17:44:33Z</time>
      </trkpt>
      <trkpt lat="49.397" lon="-1.30874">
        <ele>27.6</ele>
        <time>2020-06-15T17:44:34Z</time>
      </trkpt>
      <trkpt lat="49.39697" lon="-1.30871">
        <ele>27.8</ele>
        <time>2020-06-15T17:44:35Z</time>
      </trkpt>
      <trkpt lat="49.39695" lon="-1.30868">
        <ele>27.9</ele>
        <time>2020-06-15T17:44:36Z</time>
      </trkpt>
      <trkpt lat="49.39691" lon="-1.30866">
        <ele>28</ele>
        <time>2020-06-15T17:44:37Z</time>
      </trkpt>
      <trkpt lat="49.39687" lon="-1.30863">
        <ele>28.2</ele>
        <time>2020-06-15T17:44:38Z</time>
      </trkpt>
      <trkpt lat="49.39683" lon="-1.3086">
        <ele>28.4</ele>
        <time>2020-06-15T17:44:39Z</time>
      </trkpt>
      <trkpt lat="49.3968" lon="-1.30857">
        <ele>28.5</ele>
        <time>2020-06-15T17:44:40Z</time>
      </trkpt>
      <trkpt lat="49.39677" lon="-1.30855">
        <ele>28.6</ele>
        <time>2020-06-15T17:44:41Z</time>
      </trkpt>
      <trkpt lat="49.39673" lon="-1.30852">
        <ele>28.8</ele>
        <time>2020-06-15T17:44:42Z</time>
      </trkpt>
      <trkpt lat="49.39669" lon="-1.3085">
        <ele>28.9</ele>
        <time>2020-06-15T17:44:43Z</time>
      </trkpt>
      <trkpt lat="49.39666" lon="-1.30846">
        <ele>29.1</ele>
        <time>2020-06-15T17:44:44Z</time>
      </trkpt>
      <trkpt lat="49.39662" lon="-1.30843">
        <ele>29.2</ele>
        <time>2020-06-15T17:44:45Z</time>
      </trkpt>
      <trkpt lat="49.39659" lon="-1.30841">
        <ele>29.3</ele>
        <time>2020-06-15T17:44:46Z</time>
      </trkpt>
      <trkpt lat="49.39656" lon="-1.30837">
        <ele>29.4</ele>
        <time>2020-06-15T17:44:47Z</time>
      </trkpt>
      <trkpt lat="49.39653" lon="-1.30835">
        <ele>29.5</ele>
        <time>2020-06-15T17:44:48Z</time>
      </trkpt>
      <trkpt lat="49.3965" lon="-1.30833">
        <ele>29.6</ele>
        <time>2020-06-15T17:44:49Z</time>
      </trkpt>
      <trkpt lat="49.39646" lon="-1.30831">
        <ele>29.7</ele>
        <time>2020-06-15T17:44:50Z</time>
      </trkpt>
      <trkpt lat="49.39643" lon="-1.30829">
        <ele>29.8</ele>
        <time>2020-06-15T17:44:51Z</time>
      </trkpt>
      <trkpt lat="49.39639" lon="-1.30827">
        <ele>29.9</ele>
        <time>2020-06-15T17:44:52Z</time>
      </trkpt>
      <trkpt lat="49.39636" lon="-1.30824">
        <ele>30</ele>
        <time>2020-06-15T17:44:53Z</time>
      </trkpt>
      <trkpt lat="49.39633" lon="-1.30822">
        <ele>30.1</ele>
        <time>2020-06-15T17:44:54Z</time>
      </trkpt>
      <trkpt lat="49.39629" lon="-1.30819">
        <ele>30.2</ele>
        <time>2020-06-15T17:44:55Z</time>
      </trkpt>
      <trkpt lat="49.39625" lon="-1.30816">
        <ele>30.3</ele>
        <time>2020-06-15T17:44:56Z</time>
      </trkpt>
      <trkpt lat="49.39621" lon="-1.30814">
        <ele>30.4</ele>
        <time>2020-06-15T17:44:57Z</time>
      </trkpt>
      <trkpt lat="49.39618" lon="-1.30811">
        <ele>30.5</ele>
        <time>2020-06-15T17:44:58Z</time>
      </trkpt>
      <trkpt lat="49.39614" lon="-1.30808">
        <ele>30.5</ele>
        <time>2020-06-15T17:44:59Z</time>
      </trkpt>
      <trkpt lat="49.3961" lon="-1.30805">
        <ele>30.6</ele>
        <time>2020-06-15T17:45:00Z</time>
      </trkpt>
      <trkpt lat="49.39607" lon="-1.30802">
        <ele>30.7</ele>
        <time>2020-06-15T17:45:01Z</time>
      </trkpt>
      <trkpt lat="49.39604" lon="-1.308">
        <ele>30.7</ele>
        <time>2020-06-15T17:45:02Z</time>
      </trkpt>
      <trkpt lat="49.39601" lon="-1.30797">
        <ele>30.8</ele>
        <time>2020-06-15T17:45:03Z</time>
      </trkpt>
      <trkpt lat="49.39598" lon="-1.30794">
        <ele>30.8</ele>
        <time>2020-06-15T17:45:04Z</time>
      </trkpt>
      <trkpt lat="49.39595" lon="-1.30791">
        <ele>30.8</ele>
        <time>2020-06-15T17:45:05Z</time>
      </trkpt>
      <trkpt lat="49.39592" lon="-1.3079">
        <ele>30.8</ele>
        <time>2020-06-15T17:45:06Z</time>
      </trkpt>
      <trkpt lat="49.39589" lon="-1.30788">
        <ele>30.8</ele>
        <time>2020-06-15T17:45:07Z</time>
      </trkpt>
      <trkpt lat="49.39587" lon="-1.30785">
        <ele>30.8</ele>
        <time>2020-06-15T17:45:08Z</time>
      </trkpt>
      <trkpt lat="49.39584" lon="-1.30782">
        <ele>30.8</ele>
        <time>2020-06-15T17:45:09Z</time>
      </trkpt>
      <trkpt lat="49.39583" lon="-1.3078">
        <ele>30.8</ele>
        <time>2020-06-15T17:45:10Z</time>
      </trkpt>
      <trkpt lat="49.3958" lon="-1.30777">
        <ele>30.8</ele>
        <time>2020-06-15T17:45:11Z</time>
      </trkpt>
      <trkpt lat="49.39577" lon="-1.30773">
        <ele>30.8</ele>
        <time>2020-06-15T17:45:12Z</time>
      </trkpt>
      <trkpt lat="49.39574" lon="-1.30767">
        <ele>30.8</ele>
        <time>2020-06-15T17:45:13Z</time>
      </trkpt>
      <trkpt lat="49.39572" lon="-1.30763">
        <ele>30.8</ele>
        <time>2020-06-15T17:45:14Z</time>
      </trkpt>
      <trkpt lat="49.3957" lon="-1.30759">
        <ele>30.8</ele>
        <time>2020-06-15T17:45:15Z</time>
      </trkpt>
      <trkpt lat="49.39568" lon="-1.30755">
        <ele>30.8</ele>
        <time>2020-06-15T17:45:16Z</time>
      </trkpt>
      <trkpt lat="49.39567" lon="-1.30754">
        <ele>30.8</ele>
        <time>2020-06-15T17:45:17Z</time>
      </trkpt>
      <trkpt lat="49.39564" lon="-1.30752">
        <ele>30.8</ele>
        <time>2020-06-15T17:45:18Z</time>
      </trkpt>
      <trkpt lat="49.39564" lon="-1.30752">
        <ele>30.8</ele>
        <time>2020-06-15T17:45:19Z</time>
      </trkpt>
      <trkpt lat="49.39562" lon="-1.3075">
        <ele>30.8</ele>
        <time>2020-06-15T17:45:20Z</time>
      </trkpt>
      <trkpt lat="49.39562" lon="-1.3075">
        <ele>30.8</ele>
        <time>2020-06-15T17:45:21Z</time>
      </trkpt>
      <trkpt lat="49.39561" lon="-1.3075">
        <ele>30.8</ele>
        <time>2020-06-15T17:45:22Z</time>
      </trkpt>
      <trkpt lat="49.39562" lon="-1.30747">
        <ele>30.8</ele>
        <time>2020-06-15T17:45:23Z</time>
      </trkpt>
      <trkpt lat="49.39563" lon="-1.30746">
        <ele>30.8</ele>
        <time>2020-06-15T17:45:24Z</time>
      </trkpt>
      <trkpt lat="49.39564" lon="-1.30745">
        <ele>30.8</ele>
        <time>2020-06-15T17:45:25Z</time>
      </trkpt>
      <trkpt lat="49.39567" lon="-1.30746">
        <ele>30.7</ele>
        <time>2020-06-15T17:45:26Z</time>
      </trkpt>
      <trkpt lat="49.39568" lon="-1.30747">
        <ele>30.7</ele>
        <time>2020-06-15T17:45:27Z</time>
      </trkpt>
      <trkpt lat="49.3957" lon="-1.30749">
        <ele>30.7</ele>
        <time>2020-06-15T17:45:28Z</time>
      </trkpt>
      <trkpt lat="49.39571" lon="-1.3075">
        <ele>30.7</ele>
        <time>2020-06-15T17:45:29Z</time>
      </trkpt>
      <trkpt lat="49.39573" lon="-1.30754">
        <ele>30.7</ele>
        <time>2020-06-15T17:45:30Z</time>
      </trkpt>
      <trkpt lat="49.39574" lon="-1.30755">
        <ele>30.7</ele>
        <time>2020-06-15T17:45:31Z</time>
      </trkpt>
      <trkpt lat="49.39576" lon="-1.30759">
        <ele>30.7</ele>
        <time>2020-06-15T17:45:32Z</time>
      </trkpt>
      <trkpt lat="49.39579" lon="-1.30763">
        <ele>30.8</ele>
        <time>2020-06-15T17:45:33Z</time>
      </trkpt>
      <trkpt lat="49.39582" lon="-1.30766">
        <ele>30.8</ele>
        <time>2020-06-15T17:45:34Z</time>
      </trkpt>
      <trkpt lat="49.39584" lon="-1.30768">
        <ele>30.8</ele>
        <time>2020-06-15T17:45:35Z</time>
      </trkpt>
      <trkpt lat="49.39587" lon="-1.30772">
        <ele>30.8</ele>
        <time>2020-06-15T17:45:36Z</time>
      </trkpt>
      <trkpt lat="49.3959" lon="-1.30775">
        <ele>30.8</ele>
        <time>2020-06-15T17:45:37Z</time>
      </trkpt>
      <trkpt lat="49.39592" lon="-1.30779">
        <ele>30.8</ele>
        <time>2020-06-15T17:45:38Z</time>
      </trkpt>
      <trkpt lat="49.39594" lon="-1.30784">
        <ele>30.8</ele>
        <time>2020-06-15T17:45:39Z</time>
      </trkpt>
      <trkpt lat="49.39597" lon="-1.30788">
        <ele>30.8</ele>
        <time>2020-06-15T17:45:40Z</time>
      </trkpt>
      <trkpt lat="49.396" lon="-1.30791">
        <ele>30.8</ele>
        <time>2020-06-15T17:45:41Z</time>
      </trkpt>
      <trkpt lat="49.39603" lon="-1.30795">
        <ele>30.8</ele>
        <time>2020-06-15T17:45:42Z</time>
      </trkpt>
      <trkpt lat="49.39606" lon="-1.30799">
        <ele>30.7</ele>
        <time>2020-06-15T17:45:43Z</time>
      </trkpt>
      <trkpt lat="49.39609" lon="-1.30802">
        <ele>30.7</ele>
        <time>2020-06-15T17:45:44Z</time>
      </trkpt>
      <trkpt lat="49.39613" lon="-1.30806">
        <ele>30.6</ele>
        <time>2020-06-15T17:45:45Z</time>
      </trkpt>
      <trkpt lat="49.39617" lon="-1.30808">
        <ele>30.5</ele>
        <time>2020-06-15T17:45:46Z</time>
      </trkpt>
      <trkpt lat="49.39622" lon="-1.3081">
        <ele>30.4</ele>
        <time>2020-06-15T17:45:47Z</time>
      </trkpt>
      <trkpt lat="49.39626" lon="-1.30812">
        <ele>30.3</ele>
        <time>2020-06-15T17:45:48Z</time>
      </trkpt>
      <trkpt lat="49.39631" lon="-1.30815">
        <ele>30.2</ele>
        <time>2020-06-15T17:45:49Z</time>
      </trkpt>
      <trkpt lat="49.39636" lon="-1.30818">
        <ele>30.1</ele>
        <time>2020-06-15T17:45:50Z</time>
      </trkpt>
      <trkpt lat="49.3964" lon="-1.30821">
        <ele>30</ele>
        <time>2020-06-15T17:45:51Z</time>
      </trkpt>
      <trkpt lat="49.39644" lon="-1.30824">
        <ele>29.9</ele>
        <time>2020-06-15T17:45:52Z</time>
      </trkpt>
      <trkpt lat="49.39646" lon="-1.30829">
        <ele>29.8</ele>
        <time>2020-06-15T17:45:53Z</time>
      </trkpt>
      <trkpt lat="49.39647" lon="-1.30833">
        <ele>29.8</ele>
        <time>2020-06-15T17:45:54Z</time>
      </trkpt>
      <trkpt lat="49.39647" lon="-1.30838">
        <ele>29.8</ele>
        <time>2020-06-15T17:45:55Z</time>
      </trkpt>
      <trkpt lat="49.39647" lon="-1.30841">
        <ele>29.8</ele>
        <time>2020-06-15T17:45:56Z</time>
      </trkpt>
      <trkpt lat="49.39647" lon="-1.30843">
        <ele>29.9</ele>
        <time>2020-06-15T17:45:57Z</time>
      </trkpt>
      <trkpt lat="49.39646" lon="-1.30844">
        <ele>29.9</ele>
        <time>2020-06-15T17:45:58Z</time>
      </trkpt>
      <trkpt lat="49.39646" lon="-1.30846">
        <ele>29.9</ele>
        <time>2020-06-15T17:45:59Z</time>
      </trkpt>
      <trkpt lat="49.39646" lon="-1.30846">
        <ele>29.9</ele>
        <time>2020-06-15T17:46:00Z</time>
      </trkpt>
      <trkpt lat="49.39646" lon="-1.30846">
        <ele>29.9</ele>
        <time>2020-06-15T17:46:01Z</time>
      </trkpt>
      <trkpt lat="49.39644" lon="-1.30846">
        <ele>29.9</ele>
        <time>2020-06-15T17:46:02Z</time>
      </trkpt>
      <trkpt lat="49.39641" lon="-1.30847">
        <ele>29.9</ele>
        <time>2020-06-15T17:46:03Z</time>
      </trkpt>
      <trkpt lat="49.39639" lon="-1.30847">
        <ele>30</ele>
        <time>2020-06-15T17:46:04Z</time>
      </trkpt>
      <trkpt lat="49.39636" lon="-1.30847">
        <ele>30</ele>
        <time>2020-06-15T17:46:05Z</time>
      </trkpt>
      <trkpt lat="49.39635" lon="-1.30847">
        <ele>30</ele>
        <time>2020-06-15T17:46:06Z</time>
      </trkpt>
      <trkpt lat="49.39632" lon="-1.30848">
        <ele>30</ele>
        <time>2020-06-15T17:46:07Z</time>
      </trkpt>
      <trkpt lat="49.39631" lon="-1.30848">
        <ele>30</ele>
        <time>2020-06-15T17:46:08Z</time>
      </trkpt>
      <trkpt lat="49.39629" lon="-1.30848">
        <ele>30.1</ele>
        <time>2020-06-15T17:46:09Z</time>
      </trkpt>
      <trkpt lat="49.39627" lon="-1.30848">
        <ele>30.1</ele>
        <time>2020-06-15T17:46:10Z</time>
      </trkpt>
      <trkpt lat="49.39625" lon="-1.3085">
        <ele>30.1</ele>
        <time>2020-06-15T17:46:11Z</time>
      </trkpt>
      <trkpt lat="49.39624" lon="-1.30851">
        <ele>30.1</ele>
        <time>2020-06-15T17:46:12Z</time>
      </trkpt>
      <trkpt lat="49.39622" lon="-1.30852">
        <ele>30.1</ele>
        <time>2020-06-15T17:46:13Z</time>
      </trkpt>
      <trkpt lat="49.39621" lon="-1.30852">
        <ele>30.2</ele>
        <time>2020-06-15T17:46:14Z</time>
      </trkpt>
      <trkpt lat="49.39619" lon="-1.30852">
        <ele>30.2</ele>
        <time>2020-06-15T17:46:15Z</time>
      </trkpt>
      <trkpt lat="49.39618" lon="-1.30852">
        <ele>30.2</ele>
        <time>2020-06-15T17:46:16Z</time>
      </trkpt>
      <trkpt lat="49.39616" lon="-1.30852">
        <ele>30.2</ele>
        <time>2020-06-15T17:46:17Z</time>
      </trkpt>
      <trkpt lat="49.39615" lon="-1.30852">
        <ele>30.2</ele>
        <time>2020-06-15T17:46:18Z</time>
      </trkpt>
      <trkpt lat="49.39613" lon="-1.30852">
        <ele>30.2</ele>
        <time>2020-06-15T17:46:19Z</time>
      </trkpt>
      <trkpt lat="49.39611" lon="-1.30852">
        <ele>30.2</ele>
        <time>2020-06-15T17:46:20Z</time>
      </trkpt>
      <trkpt lat="49.3961" lon="-1.30852">
        <ele>30.2</ele>
        <time>2020-06-15T17:46:21Z</time>
      </trkpt>
      <trkpt lat="49.39608" lon="-1.30853">
        <ele>30.3</ele>
        <time>2020-06-15T17:46:22Z</time>
      </trkpt>
      <trkpt lat="49.39607" lon="-1.30853">
        <ele>30.3</ele>
        <time>2020-06-15T17:46:23Z</time>
      </trkpt>
      <trkpt lat="49.39605" lon="-1.30854">
        <ele>30.3</ele>
        <time>2020-06-15T17:46:24Z</time>
      </trkpt>
      <trkpt lat="49.39603" lon="-1.30854">
        <ele>30.3</ele>
        <time>2020-06-15T17:46:25Z</time>
      </trkpt>
      <trkpt lat="49.39602" lon="-1.30855">
        <ele>30.3</ele>
        <time>2020-06-15T17:46:26Z</time>
      </trkpt>
      <trkpt lat="49.396" lon="-1.30855">
        <ele>30.3</ele>
        <time>2020-06-15T17:46:27Z</time>
      </trkpt>
      <trkpt lat="49.396" lon="-1.30854">
        <ele>30.3</ele>
        <time>2020-06-15T17:46:28Z</time>
      </trkpt>
      <trkpt lat="49.39598" lon="-1.30854">
        <ele>30.3</ele>
        <time>2020-06-15T17:46:29Z</time>
      </trkpt>
      <trkpt lat="49.39597" lon="-1.30854">
        <ele>30.3</ele>
        <time>2020-06-15T17:46:30Z</time>
      </trkpt>
      <trkpt lat="49.39596" lon="-1.30854">
        <ele>30.4</ele>
        <time>2020-06-15T17:46:31Z</time>
      </trkpt>
      <trkpt lat="49.39594" lon="-1.30853">
        <ele>30.4</ele>
        <time>2020-06-15T17:46:32Z</time>
      </trkpt>
      <trkpt lat="49.39593" lon="-1.30853">
        <ele>30.4</ele>
        <time>2020-06-15T17:46:33Z</time>
      </trkpt>
      <trkpt lat="49.39592" lon="-1.30853">
        <ele>30.4</ele>
        <time>2020-06-15T17:46:34Z</time>
      </trkpt>
      <trkpt lat="49.39591" lon="-1.30853">
        <ele>30.4</ele>
        <time>2020-06-15T17:46:35Z</time>
      </trkpt>
      <trkpt lat="49.3959" lon="-1.30852">
        <ele>30.4</ele>
        <time>2020-06-15T17:46:36Z</time>
      </trkpt>
      <trkpt lat="49.39589" lon="-1.30851">
        <ele>30.4</ele>
        <time>2020-06-15T17:46:37Z</time>
      </trkpt>
      <trkpt lat="49.39589" lon="-1.3085">
        <ele>30.4</ele>
        <time>2020-06-15T17:46:38Z</time>
      </trkpt>
      <trkpt lat="49.39588" lon="-1.30849">
        <ele>30.4</ele>
        <time>2020-06-15T17:46:39Z</time>
      </trkpt>
      <trkpt lat="49.39587" lon="-1.30848">
        <ele>30.4</ele>
        <time>2020-06-15T17:46:40Z</time>
      </trkpt>
      <trkpt lat="49.39587" lon="-1.30846">
        <ele>30.4</ele>
        <time>2020-06-15T17:46:41Z</time>
      </trkpt>
      <trkpt lat="49.39586" lon="-1.30844">
        <ele>30.4</ele>
        <time>2020-06-15T17:46:42Z</time>
      </trkpt>
      <trkpt lat="49.39586" lon="-1.30842">
        <ele>30.4</ele>
        <time>2020-06-15T17:46:43Z</time>
      </trkpt>
      <trkpt lat="49.39586" lon="-1.30841">
        <ele>30.5</ele>
        <time>2020-06-15T17:46:44Z</time>
      </trkpt>
      <trkpt lat="49.39585" lon="-1.3084">
        <ele>30.5</ele>
        <time>2020-06-15T17:46:45Z</time>
      </trkpt>
      <trkpt lat="49.39585" lon="-1.30839">
        <ele>30.5</ele>
        <time>2020-06-15T17:46:46Z</time>
      </trkpt>
      <trkpt lat="49.39585" lon="-1.30838">
        <ele>30.5</ele>
        <time>2020-06-15T17:46:47Z</time>
      </trkpt>
      <trkpt lat="49.39585" lon="-1.30837">
        <ele>30.5</ele>
        <time>2020-06-15T17:46:48Z</time>
      </trkpt>
      <trkpt lat="49.39584" lon="-1.30836">
        <ele>30.5</ele>
        <time>2020-06-15T17:46:49Z</time>
      </trkpt>
      <trkpt lat="49.39584" lon="-1.30836">
        <ele>30.5</ele>
        <time>2020-06-15T17:46:50Z</time>
      </trkpt>
      <trkpt lat="49.39584" lon="-1.30835">
        <ele>30.5</ele>
        <time>2020-06-15T17:46:51Z</time>
      </trkpt>
      <trkpt lat="49.39584" lon="-1.30834">
        <ele>30.5</ele>
        <time>2020-06-15T17:46:52Z</time>
      </trkpt>
      <trkpt lat="49.39584" lon="-1.30834">
        <ele>30.5</ele>
        <time>2020-06-15T17:46:53Z</time>
      </trkpt>
      <trkpt lat="49.39584" lon="-1.30834">
        <ele>30.5</ele>
        <time>2020-06-15T17:46:54Z</time>
      </trkpt>
      <trkpt lat="49.39584" lon="-1.30834">
        <ele>30.5</ele>
        <time>2020-06-15T17:46:55Z</time>
      </trkpt>
      <trkpt lat="49.39583" lon="-1.30834">
        <ele>30.5</ele>
        <time>2020-06-15T17:46:56Z</time>
      </trkpt>
      <trkpt lat="49.39583" lon="-1.30834">
        <ele>30.5</ele>
        <time>2020-06-15T17:46:57Z</time>
      </trkpt>
      <trkpt lat="49.39584" lon="-1.30833">
        <ele>30.5</ele>
        <time>2020-06-15T17:46:58Z</time>
      </trkpt>
      <trkpt lat="49.39584" lon="-1.30832">
        <ele>30.5</ele>
        <time>2020-06-15T17:46:59Z</time>
      </trkpt>
      <trkpt lat="49.39585" lon="-1.30832">
        <ele>30.5</ele>
        <time>2020-06-15T17:47:00Z</time>
      </trkpt>
      <trkpt lat="49.39585" lon="-1.30832">
        <ele>30.5</ele>
        <time>2020-06-15T17:47:01Z</time>
      </trkpt>
      <trkpt lat="49.39585" lon="-1.30832">
        <ele>30.5</ele>
        <time>2020-06-15T17:47:02Z</time>
      </trkpt>
      <trkpt lat="49.39586" lon="-1.30832">
        <ele>30.5</ele>
        <time>2020-06-15T17:47:03Z</time>
      </trkpt>
      <trkpt lat="49.39586" lon="-1.30831">
        <ele>30.5</ele>
        <time>2020-06-15T17:47:04Z</time>
      </trkpt>
      <trkpt lat="49.39587" lon="-1.30831">
        <ele>30.5</ele>
        <time>2020-06-15T17:47:05Z</time>
      </trkpt>
      <trkpt lat="49.39588" lon="-1.3083">
        <ele>30.5</ele>
        <time>2020-06-15T17:47:06Z</time>
      </trkpt>
      <trkpt lat="49.39589" lon="-1.30829">
        <ele>30.5</ele>
        <time>2020-06-15T17:47:07Z</time>
      </trkpt>
      <trkpt lat="49.39589" lon="-1.30829">
        <ele>30.5</ele>
        <time>2020-06-15T17:47:08Z</time>
      </trkpt>
      <trkpt lat="49.39589" lon="-1.30828">
        <ele>30.5</ele>
        <time>2020-06-15T17:47:09Z</time>
      </trkpt>
      <trkpt lat="49.39589" lon="-1.30828">
        <ele>30.5</ele>
        <time>2020-06-15T17:47:10Z</time>
      </trkpt>
      <trkpt lat="49.39589" lon="-1.30827">
        <ele>30.5</ele>
        <time>2020-06-15T17:47:11Z</time>
      </trkpt>
      <trkpt lat="49.39589" lon="-1.30827">
        <ele>30.5</ele>
        <time>2020-06-15T17:47:12Z</time>
      </trkpt>
      <trkpt lat="49.3959" lon="-1.30828">
        <ele>30.5</ele>
        <time>2020-06-15T17:47:13Z</time>
      </trkpt>
      <trkpt lat="49.39591" lon="-1.30828">
        <ele>30.6</ele>
        <time>2020-06-15T17:47:14Z</time>
      </trkpt>
      <trkpt lat="49.39591" lon="-1.30828">
        <ele>30.6</ele>
        <time>2020-06-15T17:47:15Z</time>
      </trkpt>
      <trkpt lat="49.39591" lon="-1.30828">
        <ele>30.6</ele>
        <time>2020-06-15T17:47:16Z</time>
      </trkpt>
      <trkpt lat="49.39591" lon="-1.30828">
        <ele>30.6</ele>
        <time>2020-06-15T17:47:17Z</time>
      </trkpt>
      <trkpt lat="49.39591" lon="-1.30828">
        <ele>30.6</ele>
        <time>2020-06-15T17:47:18Z</time>
      </trkpt>
      <trkpt lat="49.39591" lon="-1.30828">
        <ele>30.6</ele>
        <time>2020-06-15T17:49:54Z</time>
      </trkpt>
      <trkpt lat="49.3959" lon="-1.30827">
        <ele>30.6</ele>
        <time>2020-06-15T17:49:55Z</time>
      </trkpt>
      <trkpt lat="49.3959" lon="-1.30826">
        <ele>30.6</ele>
        <time>2020-06-15T17:49:56Z</time>
      </trkpt>
      <trkpt lat="49.39589" lon="-1.30826">
        <ele>30.6</ele>
        <time>2020-06-15T17:49:57Z</time>
      </trkpt>
      <trkpt lat="49.39589" lon="-1.30826">
        <ele>30.6</ele>
        <time>2020-06-15T17:49:58Z</time>
      </trkpt>
      <trkpt lat="49.39589" lon="-1.30826">
        <ele>30.6</ele>
        <time>2020-06-15T17:49:59Z</time>
      </trkpt>
      <trkpt lat="49.39589" lon="-1.30826">
        <ele>30.6</ele>
        <time>2020-06-15T17:50:00Z</time>
      </trkpt>
      <trkpt lat="49.39589" lon="-1.30826">
        <ele>30.6</ele>
        <time>2020-06-15T17:50:01Z</time>
      </trkpt>
      <trkpt lat="49.39589" lon="-1.30826">
        <ele>30.6</ele>
        <time>2020-06-15T17:50:02Z</time>
      </trkpt>
      <trkpt lat="49.39589" lon="-1.30825">
        <ele>30.6</ele>
        <time>2020-06-15T17:50:03Z</time>
      </trkpt>
      <trkpt lat="49.39589" lon="-1.30825">
        <ele>30.6</ele>
        <time>2020-06-15T17:50:04Z</time>
      </trkpt>
      <trkpt lat="49.39588" lon="-1.30825">
        <ele>30.6</ele>
        <time>2020-06-15T17:50:05Z</time>
      </trkpt>
      <trkpt lat="49.39587" lon="-1.30824">
        <ele>30.6</ele>
        <time>2020-06-15T17:50:06Z</time>
      </trkpt>
      <trkpt lat="49.39587" lon="-1.30824">
        <ele>30.6</ele>
        <time>2020-06-15T17:50:07Z</time>
      </trkpt>
      <trkpt lat="49.39586" lon="-1.30823">
        <ele>30.6</ele>
        <time>2020-06-15T17:50:08Z</time>
      </trkpt>
      <trkpt lat="49.39586" lon="-1.30823">
        <ele>30.6</ele>
        <time>2020-06-15T17:50:09Z</time>
      </trkpt>
      <trkpt lat="49.39586" lon="-1.30823">
        <ele>30.6</ele>
        <time>2020-06-15T17:50:10Z</time>
      </trkpt>
      <trkpt lat="49.39586" lon="-1.30824">
        <ele>30.6</ele>
        <time>2020-06-15T17:50:11Z</time>
      </trkpt>
      <trkpt lat="49.39586" lon="-1.30824">
        <ele>30.6</ele>
        <time>2020-06-15T17:50:12Z</time>
      </trkpt>
      <trkpt lat="49.39586" lon="-1.30825">
        <ele>30.6</ele>
        <time>2020-06-15T17:50:13Z</time>
      </trkpt>
      <trkpt lat="49.39586" lon="-1.30825">
        <ele>30.6</ele>
        <time>2020-06-15T17:50:14Z</time>
      </trkpt>
      <trkpt lat="49.39586" lon="-1.30825">
        <ele>30.6</ele>
        <time>2020-06-15T17:50:15Z</time>
      </trkpt>
      <trkpt lat="49.39586" lon="-1.30825">
        <ele>30.6</ele>
        <time>2020-06-15T17:50:16Z</time>
      </trkpt>
      <trkpt lat="49.39586" lon="-1.30824">
        <ele>30.6</ele>
        <time>2020-06-15T17:50:17Z</time>
      </trkpt>
      <trkpt lat="49.39584" lon="-1.30825">
        <ele>30.6</ele>
        <time>2020-06-15T17:50:18Z</time>
      </trkpt>
      <trkpt lat="49.39584" lon="-1.30826">
        <ele>30.6</ele>
        <time>2020-06-15T17:50:19Z</time>
      </trkpt>
      <trkpt lat="49.39584" lon="-1.30826">
        <ele>30.6</ele>
        <time>2020-06-15T17:50:20Z</time>
      </trkpt>
      <trkpt lat="49.39584" lon="-1.30826">
        <ele>30.6</ele>
        <time>2020-06-15T17:50:21Z</time>
      </trkpt>
      <trkpt lat="49.39584" lon="-1.30826">
        <ele>30.6</ele>
        <time>2020-06-15T17:50:22Z</time>
      </trkpt>
      <trkpt lat="49.39584" lon="-1.30826">
        <ele>30.6</ele>
        <time>2020-06-15T17:50:23Z</time>
      </trkpt>
      <trkpt lat="49.39584" lon="-1.30825">
        <ele>30.6</ele>
        <time>2020-06-15T17:50:24Z</time>
      </trkpt>
      <trkpt lat="49.39584" lon="-1.30826">
        <ele>30.6</ele>
        <time>2020-06-15T17:50:25Z</time>
      </trkpt>
      <trkpt lat="49.39585" lon="-1.30826">
        <ele>30.6</ele>
        <time>2020-06-15T17:50:26Z</time>
      </trkpt>
      <trkpt lat="49.39584" lon="-1.30826">
        <ele>30.6</ele>
        <time>2020-06-15T17:50:27Z</time>
      </trkpt>
      <trkpt lat="49.39585" lon="-1.30826">
        <ele>30.6</ele>
        <time>2020-06-15T17:50:28Z</time>
      </trkpt>
      <trkpt lat="49.39585" lon="-1.30827">
        <ele>30.7</ele>
        <time>2020-06-15T17:50:29Z</time>
      </trkpt>
      <trkpt lat="49.39585" lon="-1.30828">
        <ele>30.7</ele>
        <time>2020-06-15T17:50:30Z</time>
      </trkpt>
      <trkpt lat="49.39585" lon="-1.30828">
        <ele>30.7</ele>
        <time>2020-06-15T17:50:31Z</time>
      </trkpt>
      <trkpt lat="49.39585" lon="-1.30828">
        <ele>30.7</ele>
        <time>2020-06-15T17:50:32Z</time>
      </trkpt>
      <trkpt lat="49.39584" lon="-1.30827">
        <ele>30.7</ele>
        <time>2020-06-15T17:50:33Z</time>
      </trkpt>
      <trkpt lat="49.39584" lon="-1.30826">
        <ele>30.7</ele>
        <time>2020-06-15T17:50:34Z</time>
      </trkpt>
      <trkpt lat="49.39584" lon="-1.30826">
        <ele>30.7</ele>
        <time>2020-06-15T17:50:35Z</time>
      </trkpt>
      <trkpt lat="49.39584" lon="-1.30825">
        <ele>30.7</ele>
        <time>2020-06-15T17:50:36Z</time>
      </trkpt>
      <trkpt lat="49.39583" lon="-1.30825">
        <ele>30.7</ele>
        <time>2020-06-15T17:50:37Z</time>
      </trkpt>
      <trkpt lat="49.39583" lon="-1.30824">
        <ele>30.7</ele>
        <time>2020-06-15T17:50:38Z</time>
      </trkpt>
      <trkpt lat="49.39582" lon="-1.30823">
        <ele>30.7</ele>
        <time>2020-06-15T17:50:39Z</time>
      </trkpt>
      <trkpt lat="49.39582" lon="-1.30822">
        <ele>30.7</ele>
        <time>2020-06-15T17:50:40Z</time>
      </trkpt>
      <trkpt lat="49.39582" lon="-1.30821">
        <ele>30.7</ele>
        <time>2020-06-15T17:50:41Z</time>
      </trkpt>
      <trkpt lat="49.39582" lon="-1.30821">
        <ele>30.7</ele>
        <time>2020-06-15T17:50:42Z</time>
      </trkpt>
      <trkpt lat="49.39582" lon="-1.30821">
        <ele>30.7</ele>
        <time>2020-06-15T17:50:43Z</time>
      </trkpt>
      <trkpt lat="49.39582" lon="-1.30821">
        <ele>30.7</ele>
        <time>2020-06-15T17:50:44Z</time>
      </trkpt>
      <trkpt lat="49.39583" lon="-1.30822">
        <ele>30.7</ele>
        <time>2020-06-15T17:50:45Z</time>
      </trkpt>
      <trkpt lat="49.39583" lon="-1.30822">
        <ele>30.7</ele>
        <time>2020-06-15T17:50:46Z</time>
      </trkpt>
      <trkpt lat="49.39584" lon="-1.30823">
        <ele>30.7</ele>
        <time>2020-06-15T17:50:47Z</time>
      </trkpt>
      <trkpt lat="49.39584" lon="-1.30824">
        <ele>30.7</ele>
        <time>2020-06-15T17:50:48Z</time>
      </trkpt>
      <trkpt lat="49.39584" lon="-1.30824">
        <ele>30.7</ele>
        <time>2020-06-15T17:50:49Z</time>
      </trkpt>
      <trkpt lat="49.39584" lon="-1.30825">
        <ele>30.7</ele>
        <time>2020-06-15T17:50:50Z</time>
      </trkpt>
      <trkpt lat="49.39584" lon="-1.30824">
        <ele>30.7</ele>
        <time>2020-06-15T17:50:51Z</time>
      </trkpt>
      <trkpt lat="49.39584" lon="-1.30824">
        <ele>30.7</ele>
        <time>2020-06-15T17:50:52Z</time>
      </trkpt>
      <trkpt lat="49.39584" lon="-1.30824">
        <ele>30.7</ele>
        <time>2020-06-15T17:50:53Z</time>
      </trkpt>
      <trkpt lat="49.39584" lon="-1.30824">
        <ele>30.7</ele>
        <time>2020-06-15T17:50:54Z</time>
      </trkpt>
      <trkpt lat="49.39584" lon="-1.30825">
        <ele>30.7</ele>
        <time>2020-06-15T17:50:55Z</time>
      </trkpt>
      <trkpt lat="49.39585" lon="-1.30826">
        <ele>30.7</ele>
        <time>2020-06-15T17:50:56Z</time>
      </trkpt>
      <trkpt lat="49.39585" lon="-1.30827">
        <ele>30.7</ele>
        <time>2020-06-15T17:50:57Z</time>
      </trkpt>
      <trkpt lat="49.39588" lon="-1.30829">
        <ele>30.7</ele>
        <time>2020-06-15T17:51:03Z</time>
      </trkpt>
      <trkpt lat="49.39589" lon="-1.3083">
        <ele>30.7</ele>
        <time>2020-06-15T17:51:04Z</time>
      </trkpt>
      <trkpt lat="49.3959" lon="-1.3083">
        <ele>30.7</ele>
        <time>2020-06-15T17:51:05Z</time>
      </trkpt>
      <trkpt lat="49.3959" lon="-1.30831">
        <ele>30.7</ele>
        <time>2020-06-15T17:51:06Z</time>
      </trkpt>
      <trkpt lat="49.3959" lon="-1.30832">
        <ele>30.7</ele>
        <time>2020-06-15T17:51:07Z</time>
      </trkpt>
      <trkpt lat="49.3959" lon="-1.30832">
        <ele>30.7</ele>
        <time>2020-06-15T17:51:08Z</time>
      </trkpt>
      <trkpt lat="49.3959" lon="-1.30833">
        <ele>30.8</ele>
        <time>2020-06-15T17:51:09Z</time>
      </trkpt>
      <trkpt lat="49.3959" lon="-1.30834">
        <ele>30.8</ele>
        <time>2020-06-15T17:51:10Z</time>
      </trkpt>
      <trkpt lat="49.3959" lon="-1.30834">
        <ele>30.8</ele>
        <time>2020-06-15T17:51:11Z</time>
      </trkpt>
      <trkpt lat="49.3959" lon="-1.30834">
        <ele>30.8</ele>
        <time>2020-06-15T17:51:12Z</time>
      </trkpt>
      <trkpt lat="49.39591" lon="-1.30835">
        <ele>30.7</ele>
        <time>2020-06-15T17:51:13Z</time>
      </trkpt>
      <trkpt lat="49.39591" lon="-1.30836">
        <ele>30.7</ele>
        <time>2020-06-15T17:51:14Z</time>
      </trkpt>
      <trkpt lat="49.39592" lon="-1.30836">
        <ele>30.7</ele>
        <time>2020-06-15T17:51:15Z</time>
      </trkpt>
      <trkpt lat="49.39593" lon="-1.30836">
        <ele>30.7</ele>
        <time>2020-06-15T17:51:16Z</time>
      </trkpt>
      <trkpt lat="49.39593" lon="-1.30836">
        <ele>30.7</ele>
        <time>2020-06-15T17:51:17Z</time>
      </trkpt>
      <trkpt lat="49.39593" lon="-1.30837">
        <ele>30.7</ele>
        <time>2020-06-15T17:51:18Z</time>
      </trkpt>
      <trkpt lat="49.39593" lon="-1.30837">
        <ele>30.7</ele>
        <time>2020-06-15T17:51:19Z</time>
      </trkpt>
      <trkpt lat="49.39593" lon="-1.30838">
        <ele>30.7</ele>
        <time>2020-06-15T17:51:20Z</time>
      </trkpt>
      <trkpt lat="49.39592" lon="-1.30838">
        <ele>30.7</ele>
        <time>2020-06-15T17:51:21Z</time>
      </trkpt>
      <trkpt lat="49.39592" lon="-1.30837">
        <ele>30.7</ele>
        <time>2020-06-15T17:51:22Z</time>
      </trkpt>
      <trkpt lat="49.39592" lon="-1.30836">
        <ele>30.7</ele>
        <time>2020-06-15T17:51:23Z</time>
      </trkpt>
      <trkpt lat="49.39592" lon="-1.30836">
        <ele>30.7</ele>
        <time>2020-06-15T17:51:24Z</time>
      </trkpt>
      <trkpt lat="49.39592" lon="-1.30836">
        <ele>30.7</ele>
        <time>2020-06-15T17:51:25Z</time>
      </trkpt>
      <trkpt lat="49.39592" lon="-1.30836">
        <ele>30.7</ele>
        <time>2020-06-15T17:51:26Z</time>
      </trkpt>
      <trkpt lat="49.39593" lon="-1.30837">
        <ele>30.7</ele>
        <time>2020-06-15T17:51:27Z</time>
      </trkpt>
      <trkpt lat="49.39593" lon="-1.30837">
        <ele>30.7</ele>
        <time>2020-06-15T17:51:28Z</time>
      </trkpt>
      <trkpt lat="49.39593" lon="-1.30837">
        <ele>30.7</ele>
        <time>2020-06-15T17:51:29Z</time>
      </trkpt>
      <trkpt lat="49.39593" lon="-1.30838">
        <ele>30.7</ele>
        <time>2020-06-15T17:51:30Z</time>
      </trkpt>
      <trkpt lat="49.39593" lon="-1.30838">
        <ele>30.7</ele>
        <time>2020-06-15T17:51:31Z</time>
      </trkpt>
      <trkpt lat="49.39593" lon="-1.30838">
        <ele>30.7</ele>
        <time>2020-06-15T17:51:32Z</time>
      </trkpt>
      <trkpt lat="49.39594" lon="-1.30839">
        <ele>30.7</ele>
        <time>2020-06-15T17:51:33Z</time>
      </trkpt>
      <trkpt lat="49.39593" lon="-1.30839">
        <ele>30.7</ele>
        <time>2020-06-15T17:51:34Z</time>
      </trkpt>
      <trkpt lat="49.39593" lon="-1.30839">
        <ele>30.7</ele>
        <time>2020-06-15T17:51:35Z</time>
      </trkpt>
      <trkpt lat="49.39593" lon="-1.30839">
        <ele>30.7</ele>
        <time>2020-06-15T17:51:36Z</time>
      </trkpt>
      <trkpt lat="49.39593" lon="-1.30839">
        <ele>30.7</ele>
        <time>2020-06-15T17:51:37Z</time>
      </trkpt>
      <trkpt lat="49.39593" lon="-1.30837">
        <ele>30.7</ele>
        <time>2020-06-15T17:51:38Z</time>
      </trkpt>
      <trkpt lat="49.39593" lon="-1.30836">
        <ele>30.7</ele>
        <time>2020-06-15T17:51:39Z</time>
      </trkpt>
      <trkpt lat="49.39593" lon="-1.30836">
        <ele>30.7</ele>
        <time>2020-06-15T17:51:40Z</time>
      </trkpt>
      <trkpt lat="49.39593" lon="-1.30835">
        <ele>30.7</ele>
        <time>2020-06-15T17:51:41Z</time>
      </trkpt>
      <trkpt lat="49.39593" lon="-1.30836">
        <ele>30.7</ele>
        <time>2020-06-15T17:51:42Z</time>
      </trkpt>
      <trkpt lat="49.39593" lon="-1.30836">
        <ele>30.7</ele>
        <time>2020-06-15T17:51:43Z</time>
      </trkpt>
      <trkpt lat="49.39592" lon="-1.30836">
        <ele>30.7</ele>
        <time>2020-06-15T17:51:44Z</time>
      </trkpt>
      <trkpt lat="49.39592" lon="-1.30837">
        <ele>30.7</ele>
        <time>2020-06-15T17:51:45Z</time>
      </trkpt>
      <trkpt lat="49.39592" lon="-1.30837">
        <ele>30.7</ele>
        <time>2020-06-15T17:51:46Z</time>
      </trkpt>
      <trkpt lat="49.39592" lon="-1.30837">
        <ele>30.7</ele>
        <time>2020-06-15T17:51:47Z</time>
      </trkpt>
      <trkpt lat="49.39591" lon="-1.30837">
        <ele>30.7</ele>
        <time>2020-06-15T17:51:48Z</time>
      </trkpt>
      <trkpt lat="49.39591" lon="-1.30838">
        <ele>30.7</ele>
        <time>2020-06-15T17:51:49Z</time>
      </trkpt>
      <trkpt lat="49.39591" lon="-1.30837">
        <ele>30.7</ele>
        <time>2020-06-15T17:51:50Z</time>
      </trkpt>
      <trkpt lat="49.3959" lon="-1.30837">
        <ele>30.7</ele>
        <time>2020-06-15T17:51:51Z</time>
      </trkpt>
      <trkpt lat="49.3959" lon="-1.30837">
        <ele>30.7</ele>
        <time>2020-06-15T17:51:52Z</time>
      </trkpt>
      <trkpt lat="49.3959" lon="-1.30836">
        <ele>30.8</ele>
        <time>2020-06-15T17:51:53Z</time>
      </trkpt>
      <trkpt lat="49.39589" lon="-1.30835">
        <ele>30.8</ele>
        <time>2020-06-15T17:51:54Z</time>
      </trkpt>
      <trkpt lat="49.39589" lon="-1.30835">
        <ele>30.8</ele>
        <time>2020-06-15T17:51:55Z</time>
      </trkpt>
      <trkpt lat="49.39588" lon="-1.30833">
        <ele>30.8</ele>
        <time>2020-06-15T17:51:56Z</time>
      </trkpt>
      <trkpt lat="49.39587" lon="-1.30832">
        <ele>30.8</ele>
        <time>2020-06-15T17:51:57Z</time>
      </trkpt>
      <trkpt lat="49.39587" lon="-1.30831">
        <ele>30.8</ele>
        <time>2020-06-15T17:51:58Z</time>
      </trkpt>
      <trkpt lat="49.39586" lon="-1.30831">
        <ele>30.8</ele>
        <time>2020-06-15T17:51:59Z</time>
      </trkpt>
      <trkpt lat="49.39586" lon="-1.30831">
        <ele>30.8</ele>
        <time>2020-06-15T17:52:00Z</time>
      </trkpt>
      <trkpt lat="49.39586" lon="-1.30833">
        <ele>30.8</ele>
        <time>2020-06-15T17:52:01Z</time>
      </trkpt>
      <trkpt lat="49.39585" lon="-1.30834">
        <ele>30.8</ele>
        <time>2020-06-15T17:52:02Z</time>
      </trkpt>
      <trkpt lat="49.39585" lon="-1.30833">
        <ele>30.8</ele>
        <time>2020-06-15T17:52:03Z</time>
      </trkpt>
      <trkpt lat="49.39586" lon="-1.30833">
        <ele>30.8</ele>
        <time>2020-06-15T17:52:04Z</time>
      </trkpt>
      <trkpt lat="49.39586" lon="-1.30834">
        <ele>30.8</ele>
        <time>2020-06-15T17:52:05Z</time>
      </trkpt>
      <trkpt lat="49.39586" lon="-1.30835">
        <ele>30.8</ele>
        <time>2020-06-15T17:52:06Z</time>
      </trkpt>
      <trkpt lat="49.39586" lon="-1.30835">
        <ele>30.8</ele>
        <time>2020-06-15T17:52:07Z</time>
      </trkpt>
      <trkpt lat="49.39586" lon="-1.30835">
        <ele>30.8</ele>
        <time>2020-06-15T17:52:08Z</time>
      </trkpt>
      <trkpt lat="49.39586" lon="-1.30835">
        <ele>30.8</ele>
        <time>2020-06-15T17:52:09Z</time>
      </trkpt>
      <trkpt lat="49.39586" lon="-1.30836">
        <ele>30.8</ele>
        <time>2020-06-15T17:52:10Z</time>
      </trkpt>
      <trkpt lat="49.39586" lon="-1.30836">
        <ele>30.8</ele>
        <time>2020-06-15T17:52:11Z</time>
      </trkpt>
      <trkpt lat="49.39585" lon="-1.30836">
        <ele>30.8</ele>
        <time>2020-06-15T17:52:12Z</time>
      </trkpt>
      <trkpt lat="49.39585" lon="-1.30837">
        <ele>30.8</ele>
        <time>2020-06-15T17:52:13Z</time>
      </trkpt>
      <trkpt lat="49.39585" lon="-1.30837">
        <ele>30.8</ele>
        <time>2020-06-15T17:52:14Z</time>
      </trkpt>
      <trkpt lat="49.39585" lon="-1.30837">
        <ele>30.8</ele>
        <time>2020-06-15T17:52:15Z</time>
      </trkpt>
      <trkpt lat="49.39585" lon="-1.30837">
        <ele>30.8</ele>
        <time>2020-06-15T17:52:16Z</time>
      </trkpt>
      <trkpt lat="49.39586" lon="-1.30838">
        <ele>30.8</ele>
        <time>2020-06-15T17:52:17Z</time>
      </trkpt>
      <trkpt lat="49.39586" lon="-1.30838">
        <ele>30.8</ele>
        <time>2020-06-15T17:52:18Z</time>
      </trkpt>
      <trkpt lat="49.39586" lon="-1.30838">
        <ele>30.8</ele>
        <time>2020-06-15T17:52:19Z</time>
      </trkpt>
      <trkpt lat="49.39586" lon="-1.30838">
        <ele>30.8</ele>
        <time>2020-06-15T17:52:20Z</time>
      </trkpt>
      <trkpt lat="49.39586" lon="-1.30839">
        <ele>30.8</ele>
        <time>2020-06-15T17:52:21Z</time>
      </trkpt>
      <trkpt lat="49.39587" lon="-1.30839">
        <ele>30.8</ele>
        <time>2020-06-15T17:52:22Z</time>
      </trkpt>
      <trkpt lat="49.39587" lon="-1.30839">
        <ele>30.8</ele>
        <time>2020-06-15T17:52:23Z</time>
      </trkpt>
      <trkpt lat="49.39587" lon="-1.30839">
        <ele>30.8</ele>
        <time>2020-06-15T17:52:24Z</time>
      </trkpt>
      <trkpt lat="49.39587" lon="-1.3084">
        <ele>30.8</ele>
        <time>2020-06-15T17:52:25Z</time>
      </trkpt>
      <trkpt lat="49.39587" lon="-1.3084">
        <ele>30.8</ele>
        <time>2020-06-15T17:52:26Z</time>
      </trkpt>
      <trkpt lat="49.39588" lon="-1.3084">
        <ele>30.8</ele>
        <time>2020-06-15T17:54:35Z</time>
      </trkpt>
      <trkpt lat="49.39588" lon="-1.3084">
        <ele>30.8</ele>
        <time>2020-06-15T17:54:36Z</time>
      </trkpt>
      <trkpt lat="49.39588" lon="-1.30841">
        <ele>30.8</ele>
        <time>2020-06-15T17:54:37Z</time>
      </trkpt>
      <trkpt lat="49.39588" lon="-1.30841">
        <ele>30.8</ele>
        <time>2020-06-15T17:54:38Z</time>
      </trkpt>
      <trkpt lat="49.39589" lon="-1.30841">
        <ele>30.8</ele>
        <time>2020-06-15T17:54:39Z</time>
      </trkpt>
      <trkpt lat="49.39589" lon="-1.30841">
        <ele>30.7</ele>
        <time>2020-06-15T17:54:40Z</time>
      </trkpt>
      <trkpt lat="49.39589" lon="-1.30842">
        <ele>30.7</ele>
        <time>2020-06-15T17:54:41Z</time>
      </trkpt>
      <trkpt lat="49.39589" lon="-1.30842">
        <ele>30.7</ele>
        <time>2020-06-15T17:54:42Z</time>
      </trkpt>
      <trkpt lat="49.39589" lon="-1.30842">
        <ele>30.7</ele>
        <time>2020-06-15T17:54:43Z</time>
      </trkpt>
      <trkpt lat="49.3959" lon="-1.30842">
        <ele>30.7</ele>
        <time>2020-06-15T17:54:44Z</time>
      </trkpt>
      <trkpt lat="49.3959" lon="-1.30843">
        <ele>30.7</ele>
        <time>2020-06-15T17:54:45Z</time>
      </trkpt>
      <trkpt lat="49.3959" lon="-1.30843">
        <ele>30.7</ele>
        <time>2020-06-15T17:54:46Z</time>
      </trkpt>
      <trkpt lat="49.3959" lon="-1.30843">
        <ele>30.7</ele>
        <time>2020-06-15T17:54:47Z</time>
      </trkpt>
      <trkpt lat="49.3959" lon="-1.30843">
        <ele>30.7</ele>
        <time>2020-06-15T17:54:48Z</time>
      </trkpt>
      <trkpt lat="49.39591" lon="-1.30844">
        <ele>30.7</ele>
        <time>2020-06-15T17:54:49Z</time>
      </trkpt>
      <trkpt lat="49.39591" lon="-1.30844">
        <ele>30.7</ele>
        <time>2020-06-15T17:54:50Z</time>
      </trkpt>
      <trkpt lat="49.39591" lon="-1.30844">
        <ele>30.7</ele>
        <time>2020-06-15T17:54:51Z</time>
      </trkpt>
      <trkpt lat="49.39591" lon="-1.30844">
        <ele>30.7</ele>
        <time>2020-06-15T17:54:52Z</time>
      </trkpt>
      <trkpt lat="49.39591" lon="-1.30845">
        <ele>30.7</ele>
        <time>2020-06-15T17:58:37Z</time>
      </trkpt>
      <trkpt lat="49.39592" lon="-1.30845">
        <ele>30.7</ele>
        <time>2020-06-15T17:58:38Z</time>
      </trkpt>
      <trkpt lat="49.39592" lon="-1.30849">
        <ele>30.7</ele>
        <time>2020-06-15T17:58:39Z</time>
      </trkpt>
      <trkpt lat="49.39593" lon="-1.30851">
        <ele>30.7</ele>
        <time>2020-06-15T17:58:40Z</time>
      </trkpt>
      <trkpt lat="49.39594" lon="-1.30856">
        <ele>30.6</ele>
        <time>2020-06-15T17:58:41Z</time>
      </trkpt>
      <trkpt lat="49.39595" lon="-1.30857">
        <ele>30.6</ele>
        <time>2020-06-15T17:58:42Z</time>
      </trkpt>
      <trkpt lat="49.39599" lon="-1.30858">
        <ele>30.6</ele>
        <time>2020-06-15T17:58:43Z</time>
      </trkpt>
      <trkpt lat="49.39601" lon="-1.30857">
        <ele>30.5</ele>
        <time>2020-06-15T17:58:44Z</time>
      </trkpt>
      <trkpt lat="49.39605" lon="-1.30855">
        <ele>30.5</ele>
        <time>2020-06-15T17:58:45Z</time>
      </trkpt>
      <trkpt lat="49.39609" lon="-1.30854">
        <ele>30.4</ele>
        <time>2020-06-15T17:58:46Z</time>
      </trkpt>
      <trkpt lat="49.39613" lon="-1.30854">
        <ele>30.3</ele>
        <time>2020-06-15T17:58:47Z</time>
      </trkpt>
      <trkpt lat="49.39617" lon="-1.30853">
        <ele>30.3</ele>
        <time>2020-06-15T17:58:48Z</time>
      </trkpt>
      <trkpt lat="49.39622" lon="-1.30852">
        <ele>30.2</ele>
        <time>2020-06-15T17:58:49Z</time>
      </trkpt>
      <trkpt lat="49.39626" lon="-1.30851">
        <ele>30.1</ele>
        <time>2020-06-15T17:58:50Z</time>
      </trkpt>
      <trkpt lat="49.3963" lon="-1.30849">
        <ele>30</ele>
        <time>2020-06-15T17:58:51Z</time>
      </trkpt>
      <trkpt lat="49.39634" lon="-1.30848">
        <ele>29.9</ele>
        <time>2020-06-15T17:58:52Z</time>
      </trkpt>
      <trkpt lat="49.39638" lon="-1.30846">
        <ele>29.8</ele>
        <time>2020-06-15T17:58:53Z</time>
      </trkpt>
      <trkpt lat="49.39643" lon="-1.30844">
        <ele>29.9</ele>
        <time>2020-06-15T17:58:54Z</time>
      </trkpt>
      <trkpt lat="49.39645" lon="-1.30841">
        <ele>30</ele>
        <time>2020-06-15T17:58:55Z</time>
      </trkpt>
      <trkpt lat="49.39646" lon="-1.3084">
        <ele>30</ele>
        <time>2020-06-15T17:58:56Z</time>
      </trkpt>
      <trkpt lat="49.39644" lon="-1.30838">
        <ele>30.1</ele>
        <time>2020-06-15T17:58:57Z</time>
      </trkpt>
      <trkpt lat="49.39643" lon="-1.30837">
        <ele>30.1</ele>
        <time>2020-06-15T17:58:58Z</time>
      </trkpt>
      <trkpt lat="49.39641" lon="-1.30836">
        <ele>30.1</ele>
        <time>2020-06-15T17:58:59Z</time>
      </trkpt>
      <trkpt lat="49.39638" lon="-1.30833">
        <ele>30.2</ele>
        <time>2020-06-15T17:59:00Z</time>
      </trkpt>
      <trkpt lat="49.39635" lon="-1.3083">
        <ele>30.3</ele>
        <time>2020-06-15T17:59:01Z</time>
      </trkpt>
      <trkpt lat="49.39631" lon="-1.30826">
        <ele>30.3</ele>
        <time>2020-06-15T17:59:02Z</time>
      </trkpt>
      <trkpt lat="49.39626" lon="-1.30822">
        <ele>30.4</ele>
        <time>2020-06-15T17:59:03Z</time>
      </trkpt>
      <trkpt lat="49.39621" lon="-1.30818">
        <ele>30.5</ele>
        <time>2020-06-15T17:59:04Z</time>
      </trkpt>
      <trkpt lat="49.39617" lon="-1.30815">
        <ele>30.6</ele>
        <time>2020-06-15T17:59:05Z</time>
      </trkpt>
      <trkpt lat="49.39613" lon="-1.30813">
        <ele>30.6</ele>
        <time>2020-06-15T17:59:06Z</time>
      </trkpt>
      <trkpt lat="49.39609" lon="-1.3081">
        <ele>30.7</ele>
        <time>2020-06-15T17:59:07Z</time>
      </trkpt>
      <trkpt lat="49.39605" lon="-1.30806">
        <ele>30.7</ele>
        <time>2020-06-15T17:59:08Z</time>
      </trkpt>
      <trkpt lat="49.39601" lon="-1.30802">
        <ele>30.8</ele>
        <time>2020-06-15T17:59:09Z</time>
      </trkpt>
      <trkpt lat="49.39597" lon="-1.30798">
        <ele>30.8</ele>
        <time>2020-06-15T17:59:10Z</time>
      </trkpt>
      <trkpt lat="49.39594" lon="-1.30795">
        <ele>30.8</ele>
        <time>2020-06-15T17:59:11Z</time>
      </trkpt>
      <trkpt lat="49.39591" lon="-1.30791">
        <ele>30.8</ele>
        <time>2020-06-15T17:59:12Z</time>
      </trkpt>
      <trkpt lat="49.39587" lon="-1.30786">
        <ele>30.8</ele>
        <time>2020-06-15T17:59:13Z</time>
      </trkpt>
      <trkpt lat="49.39584" lon="-1.30781">
        <ele>30.8</ele>
        <time>2020-06-15T17:59:14Z</time>
      </trkpt>
      <trkpt lat="49.39581" lon="-1.30775">
        <ele>30.8</ele>
        <time>2020-06-15T17:59:15Z</time>
      </trkpt>
      <trkpt lat="49.39578" lon="-1.3077">
        <ele>30.8</ele>
        <time>2020-06-15T17:59:16Z</time>
      </trkpt>
      <trkpt lat="49.39574" lon="-1.30764">
        <ele>30.7</ele>
        <time>2020-06-15T17:59:17Z</time>
      </trkpt>
      <trkpt lat="49.39571" lon="-1.30761">
        <ele>30.7</ele>
        <time>2020-06-15T17:59:18Z</time>
      </trkpt>
      <trkpt lat="49.39567" lon="-1.30756">
        <ele>30.7</ele>
        <time>2020-06-15T17:59:19Z</time>
      </trkpt>
      <trkpt lat="49.39563" lon="-1.30752">
        <ele>30.6</ele>
        <time>2020-06-15T17:59:20Z</time>
      </trkpt>
      <trkpt lat="49.39559" lon="-1.30748">
        <ele>30.6</ele>
        <time>2020-06-15T17:59:21Z</time>
      </trkpt>
      <trkpt lat="49.39555" lon="-1.30746">
        <ele>30.5</ele>
        <time>2020-06-15T17:59:22Z</time>
      </trkpt>
      <trkpt lat="49.39551" lon="-1.30746">
        <ele>30.3</ele>
        <time>2020-06-15T17:59:23Z</time>
      </trkpt>
      <trkpt lat="49.39547" lon="-1.30745">
        <ele>30.2</ele>
        <time>2020-06-15T17:59:24Z</time>
      </trkpt>
      <trkpt lat="49.39543" lon="-1.30744">
        <ele>30.1</ele>
        <time>2020-06-15T17:59:25Z</time>
      </trkpt>
      <trkpt lat="49.39536" lon="-1.30743">
        <ele>29.9</ele>
        <time>2020-06-15T17:59:26Z</time>
      </trkpt>
      <trkpt lat="49.39531" lon="-1.30741">
        <ele>29.7</ele>
        <time>2020-06-15T17:59:27Z</time>
      </trkpt>
      <trkpt lat="49.39527" lon="-1.30738">
        <ele>29.5</ele>
        <time>2020-06-15T17:59:28Z</time>
      </trkpt>
      <trkpt lat="49.39522" lon="-1.30736">
        <ele>29.3</ele>
        <time>2020-06-15T17:59:29Z</time>
      </trkpt>
      <trkpt lat="49.39517" lon="-1.30734">
        <ele>29.1</ele>
        <time>2020-06-15T17:59:30Z</time>
      </trkpt>
      <trkpt lat="49.39511" lon="-1.30731">
        <ele>28.9</ele>
        <time>2020-06-15T17:59:31Z</time>
      </trkpt>
      <trkpt lat="49.39506" lon="-1.30729">
        <ele>28.7</ele>
        <time>2020-06-15T17:59:32Z</time>
      </trkpt>
      <trkpt lat="49.39502" lon="-1.30727">
        <ele>28.6</ele>
        <time>2020-06-15T17:59:33Z</time>
      </trkpt>
      <trkpt lat="49.39498" lon="-1.30725">
        <ele>28.5</ele>
        <time>2020-06-15T17:59:34Z</time>
      </trkpt>
      <trkpt lat="49.39494" lon="-1.30723">
        <ele>28.3</ele>
        <time>2020-06-15T17:59:35Z</time>
      </trkpt>
      <trkpt lat="49.39491" lon="-1.30719">
        <ele>28.2</ele>
        <time>2020-06-15T17:59:36Z</time>
      </trkpt>
      <trkpt lat="49.39487" lon="-1.30716">
        <ele>28.1</ele>
        <time>2020-06-15T17:59:37Z</time>
      </trkpt>
      <trkpt lat="49.39483" lon="-1.30712">
        <ele>27.9</ele>
        <time>2020-06-15T17:59:38Z</time>
      </trkpt>
      <trkpt lat="49.39479" lon="-1.30707">
        <ele>27.6</ele>
        <time>2020-06-15T17:59:39Z</time>
      </trkpt>
      <trkpt lat="49.39474" lon="-1.30703">
        <ele>27.4</ele>
        <time>2020-06-15T17:59:40Z</time>
      </trkpt>
      <trkpt lat="49.39469" lon="-1.30699">
        <ele>27.1</ele>
        <time>2020-06-15T17:59:41Z</time>
      </trkpt>
      <trkpt lat="49.39464" lon="-1.30695">
        <ele>26.8</ele>
        <time>2020-06-15T17:59:42Z</time>
      </trkpt>
      <trkpt lat="49.39459" lon="-1.3069">
        <ele>26.6</ele>
        <time>2020-06-15T17:59:43Z</time>
      </trkpt>
      <trkpt lat="49.39454" lon="-1.30683">
        <ele>26.3</ele>
        <time>2020-06-15T17:59:44Z</time>
      </trkpt>
      <trkpt lat="49.39448" lon="-1.30678">
        <ele>26</ele>
        <time>2020-06-15T17:59:45Z</time>
      </trkpt>
      <trkpt lat="49.39442" lon="-1.30673">
        <ele>25.7</ele>
        <time>2020-06-15T17:59:46Z</time>
      </trkpt>
      <trkpt lat="49.39436" lon="-1.30669">
        <ele>25.3</ele>
        <time>2020-06-15T17:59:47Z</time>
      </trkpt>
      <trkpt lat="49.3943" lon="-1.30665">
        <ele>24.9</ele>
        <time>2020-06-15T17:59:48Z</time>
      </trkpt>
      <trkpt lat="49.39423" lon="-1.30661">
        <ele>24.5</ele>
        <time>2020-06-15T17:59:49Z</time>
      </trkpt>
      <trkpt lat="49.39415" lon="-1.30658">
        <ele>24</ele>
        <time>2020-06-15T17:59:50Z</time>
      </trkpt>
      <trkpt lat="49.39407" lon="-1.30655">
        <ele>23.5</ele>
        <time>2020-06-15T17:59:51Z</time>
      </trkpt>
      <trkpt lat="49.394" lon="-1.30651">
        <ele>23.1</ele>
        <time>2020-06-15T17:59:52Z</time>
      </trkpt>
      <trkpt lat="49.39392" lon="-1.30647">
        <ele>22.6</ele>
        <time>2020-06-15T17:59:53Z</time>
      </trkpt>
      <trkpt lat="49.39385" lon="-1.30642">
        <ele>22</ele>
        <time>2020-06-15T17:59:54Z</time>
      </trkpt>
      <trkpt lat="49.39377" lon="-1.30638">
        <ele>21.5</ele>
        <time>2020-06-15T17:59:55Z</time>
      </trkpt>
      <trkpt lat="49.3937" lon="-1.30633">
        <ele>21</ele>
        <time>2020-06-15T17:59:56Z</time>
      </trkpt>
      <trkpt lat="49.39362" lon="-1.30628">
        <ele>20.5</ele>
        <time>2020-06-15T17:59:57Z</time>
      </trkpt>
      <trkpt lat="49.39354" lon="-1.30623">
        <ele>20</ele>
        <time>2020-06-15T17:59:58Z</time>
      </trkpt>
      <trkpt lat="49.39346" lon="-1.30617">
        <ele>19.5</ele>
        <time>2020-06-15T17:59:59Z</time>
      </trkpt>
      <trkpt lat="49.39338" lon="-1.30612">
        <ele>19</ele>
        <time>2020-06-15T18:00:00Z</time>
      </trkpt>
      <trkpt lat="49.3933" lon="-1.30607">
        <ele>18.5</ele>
        <time>2020-06-15T18:00:01Z</time>
      </trkpt>
      <trkpt lat="49.39322" lon="-1.30601">
        <ele>18</ele>
        <time>2020-06-15T18:00:02Z</time>
      </trkpt>
      <trkpt lat="49.39314" lon="-1.30596">
        <ele>17.5</ele>
        <time>2020-06-15T18:00:03Z</time>
      </trkpt>
      <trkpt lat="49.39306" lon="-1.3059">
        <ele>17</ele>
        <time>2020-06-15T18:00:04Z</time>
      </trkpt>
      <trkpt lat="49.39298" lon="-1.30585">
        <ele>16.6</ele>
        <time>2020-06-15T18:00:05Z</time>
      </trkpt>
      <trkpt lat="49.39291" lon="-1.30579">
        <ele>16.1</ele>
        <time>2020-06-15T18:00:06Z</time>
      </trkpt>
      <trkpt lat="49.39284" lon="-1.30573">
        <ele>15.6</ele>
        <time>2020-06-15T18:00:07Z</time>
      </trkpt>
      <trkpt lat="49.39276" lon="-1.30567">
        <ele>15.2</ele>
        <time>2020-06-15T18:00:08Z</time>
      </trkpt>
      <trkpt lat="49.39268" lon="-1.30561">
        <ele>14.8</ele>
        <time>2020-06-15T18:00:09Z</time>
      </trkpt>
      <trkpt lat="49.39261" lon="-1.30555">
        <ele>14.4</ele>
        <time>2020-06-15T18:00:10Z</time>
      </trkpt>
      <trkpt lat="49.39253" lon="-1.30549">
        <ele>14</ele>
        <time>2020-06-15T18:00:11Z</time>
      </trkpt>
      <trkpt lat="49.39246" lon="-1.30542">
        <ele>13.6</ele>
        <time>2020-06-15T18:00:12Z</time>
      </trkpt>
      <trkpt lat="49.39239" lon="-1.30535">
        <ele>13.3</ele>
        <time>2020-06-15T18:00:13Z</time>
      </trkpt>
      <trkpt lat="49.39231" lon="-1.3053">
        <ele>13</ele>
        <time>2020-06-15T18:00:14Z</time>
      </trkpt>
      <trkpt lat="49.39224" lon="-1.30524">
        <ele>12.7</ele>
        <time>2020-06-15T18:00:15Z</time>
      </trkpt>
      <trkpt lat="49.39217" lon="-1.30519">
        <ele>12.5</ele>
        <time>2020-06-15T18:00:16Z</time>
      </trkpt>
      <trkpt lat="49.39209" lon="-1.30513">
        <ele>12.3</ele>
        <time>2020-06-15T18:00:17Z</time>
      </trkpt>
      <trkpt lat="49.39202" lon="-1.30508">
        <ele>12.1</ele>
        <time>2020-06-15T18:00:18Z</time>
      </trkpt>
      <trkpt lat="49.39195" lon="-1.30503">
        <ele>11.9</ele>
        <time>2020-06-15T18:00:19Z</time>
      </trkpt>
      <trkpt lat="49.39189" lon="-1.30498">
        <ele>11.7</ele>
        <time>2020-06-15T18:00:20Z</time>
      </trkpt>
      <trkpt lat="49.39182" lon="-1.30493">
        <ele>11.5</ele>
        <time>2020-06-15T18:00:21Z</time>
      </trkpt>
      <trkpt lat="49.39174" lon="-1.30489">
        <ele>11.4</ele>
        <time>2020-06-15T18:00:22Z</time>
      </trkpt>
      <trkpt lat="49.39167" lon="-1.30484">
        <ele>11.3</ele>
        <time>2020-06-15T18:00:23Z</time>
      </trkpt>
      <trkpt lat="49.3916" lon="-1.30479">
        <ele>11.2</ele>
        <time>2020-06-15T18:00:24Z</time>
      </trkpt>
      <trkpt lat="49.39153" lon="-1.30474">
        <ele>11.1</ele>
        <time>2020-06-15T18:00:25Z</time>
      </trkpt>
      <trkpt lat="49.39146" lon="-1.3047">
        <ele>11</ele>
        <time>2020-06-15T18:00:26Z</time>
      </trkpt>
      <trkpt lat="49.3914" lon="-1.30465">
        <ele>10.9</ele>
        <time>2020-06-15T18:00:27Z</time>
      </trkpt>
      <trkpt lat="49.39133" lon="-1.3046">
        <ele>10.8</ele>
        <time>2020-06-15T18:00:28Z</time>
      </trkpt>
      <trkpt lat="49.39127" lon="-1.30457">
        <ele>10.8</ele>
        <time>2020-06-15T18:00:29Z</time>
      </trkpt>
      <trkpt lat="49.39121" lon="-1.30454">
        <ele>10.7</ele>
        <time>2020-06-15T18:00:30Z</time>
      </trkpt>
      <trkpt lat="49.39115" lon="-1.3045">
        <ele>10.6</ele>
        <time>2020-06-15T18:00:31Z</time>
      </trkpt>
      <trkpt lat="49.3911" lon="-1.30446">
        <ele>10.5</ele>
        <time>2020-06-15T18:00:32Z</time>
      </trkpt>
      <trkpt lat="49.39104" lon="-1.30443">
        <ele>10.4</ele>
        <time>2020-06-15T18:00:33Z</time>
      </trkpt>
      <trkpt lat="49.39098" lon="-1.30439">
        <ele>10.3</ele>
        <time>2020-06-15T18:00:34Z</time>
      </trkpt>
      <trkpt lat="49.39093" lon="-1.30435">
        <ele>10.2</ele>
        <time>2020-06-15T18:00:35Z</time>
      </trkpt>
      <trkpt lat="49.39087" lon="-1.3043">
        <ele>10.1</ele>
        <time>2020-06-15T18:00:36Z</time>
      </trkpt>
      <trkpt lat="49.39082" lon="-1.30426">
        <ele>10</ele>
        <time>2020-06-15T18:00:37Z</time>
      </trkpt>
      <trkpt lat="49.39076" lon="-1.30422">
        <ele>9.9</ele>
        <time>2020-06-15T18:00:38Z</time>
      </trkpt>
      <trkpt lat="49.3907" lon="-1.30417">
        <ele>9.8</ele>
        <time>2020-06-15T18:00:39Z</time>
      </trkpt>
      <trkpt lat="49.39064" lon="-1.30413">
        <ele>9.8</ele>
        <time>2020-06-15T18:00:40Z</time>
      </trkpt>
      <trkpt lat="49.39059" lon="-1.30408">
        <ele>9.7</ele>
        <time>2020-06-15T18:00:41Z</time>
      </trkpt>
      <trkpt lat="49.39053" lon="-1.30405">
        <ele>9.6</ele>
        <time>2020-06-15T18:00:42Z</time>
      </trkpt>
      <trkpt lat="49.39048" lon="-1.304">
        <ele>9.5</ele>
        <time>2020-06-15T18:00:43Z</time>
      </trkpt>
      <trkpt lat="49.39042" lon="-1.30395">
        <ele>9.5</ele>
        <time>2020-06-15T18:00:44Z</time>
      </trkpt>
      <trkpt lat="49.39036" lon="-1.3039">
        <ele>9.5</ele>
        <time>2020-06-15T18:00:45Z</time>
      </trkpt>
      <trkpt lat="49.3903" lon="-1.30385">
        <ele>9.4</ele>
        <time>2020-06-15T18:00:46Z</time>
      </trkpt>
      <trkpt lat="49.39025" lon="-1.30382">
        <ele>9.4</ele>
        <time>2020-06-15T18:00:47Z</time>
      </trkpt>
      <trkpt lat="49.39019" lon="-1.30378">
        <ele>9.4</ele>
        <time>2020-06-15T18:00:48Z</time>
      </trkpt>
      <trkpt lat="49.39014" lon="-1.30374">
        <ele>9.4</ele>
        <time>2020-06-15T18:00:49Z</time>
      </trkpt>
      <trkpt lat="49.39008" lon="-1.3037">
        <ele>9.5</ele>
        <time>2020-06-15T18:00:50Z</time>
      </trkpt>
      <trkpt lat="49.39003" lon="-1.30365">
        <ele>9.5</ele>
        <time>2020-06-15T18:00:51Z</time>
      </trkpt>
      <trkpt lat="49.38997" lon="-1.3036">
        <ele>9.5</ele>
        <time>2020-06-15T18:00:52Z</time>
      </trkpt>
      <trkpt lat="49.38991" lon="-1.30355">
        <ele>9.3</ele>
        <time>2020-06-15T18:00:53Z</time>
      </trkpt>
      <trkpt lat="49.38985" lon="-1.30351">
        <ele>9</ele>
        <time>2020-06-15T18:00:54Z</time>
      </trkpt>
      <trkpt lat="49.38981" lon="-1.30347">
        <ele>8.6</ele>
        <time>2020-06-15T18:00:55Z</time>
      </trkpt>
      <trkpt lat="49.38976" lon="-1.30343">
        <ele>8.5</ele>
        <time>2020-06-15T18:00:56Z</time>
      </trkpt>
      <trkpt lat="49.38971" lon="-1.30339">
        <ele>8.4</ele>
        <time>2020-06-15T18:00:57Z</time>
      </trkpt>
      <trkpt lat="49.38965" lon="-1.30336">
        <ele>8.4</ele>
        <time>2020-06-15T18:00:58Z</time>
      </trkpt>
      <trkpt lat="49.3896" lon="-1.30331">
        <ele>8.3</ele>
        <time>2020-06-15T18:00:59Z</time>
      </trkpt>
      <trkpt lat="49.38955" lon="-1.30327">
        <ele>8.2</ele>
        <time>2020-06-15T18:01:00Z</time>
      </trkpt>
      <trkpt lat="49.3895" lon="-1.30324">
        <ele>8.2</ele>
        <time>2020-06-15T18:01:01Z</time>
      </trkpt>
      <trkpt lat="49.38945" lon="-1.30319">
        <ele>8.2</ele>
        <time>2020-06-15T18:01:02Z</time>
      </trkpt>
      <trkpt lat="49.3894" lon="-1.30316">
        <ele>8.2</ele>
        <time>2020-06-15T18:01:03Z</time>
      </trkpt>
      <trkpt lat="49.38935" lon="-1.30313">
        <ele>8.3</ele>
        <time>2020-06-15T18:01:04Z</time>
      </trkpt>
      <trkpt lat="49.3893" lon="-1.30309">
        <ele>8.3</ele>
        <time>2020-06-15T18:01:05Z</time>
      </trkpt>
      <trkpt lat="49.38924" lon="-1.30305">
        <ele>8.3</ele>
        <time>2020-06-15T18:01:06Z</time>
      </trkpt>
      <trkpt lat="49.3892" lon="-1.30301">
        <ele>8.3</ele>
        <time>2020-06-15T18:01:07Z</time>
      </trkpt>
      <trkpt lat="49.38915" lon="-1.30298">
        <ele>8.3</ele>
        <time>2020-06-15T18:01:08Z</time>
      </trkpt>
      <trkpt lat="49.3891" lon="-1.30294">
        <ele>8.3</ele>
        <time>2020-06-15T18:01:09Z</time>
      </trkpt>
      <trkpt lat="49.38905" lon="-1.30289">
        <ele>8.3</ele>
        <time>2020-06-15T18:01:10Z</time>
      </trkpt>
      <trkpt lat="49.389" lon="-1.30286">
        <ele>8.4</ele>
        <time>2020-06-15T18:01:11Z</time>
      </trkpt>
      <trkpt lat="49.38894" lon="-1.30281">
        <ele>8.4</ele>
        <time>2020-06-15T18:01:12Z</time>
      </trkpt>
      <trkpt lat="49.38889" lon="-1.30278">
        <ele>8.5</ele>
        <time>2020-06-15T18:01:13Z</time>
      </trkpt>
      <trkpt lat="49.38884" lon="-1.30274">
        <ele>8.6</ele>
        <time>2020-06-15T18:01:14Z</time>
      </trkpt>
      <trkpt lat="49.38879" lon="-1.3027">
        <ele>8.7</ele>
        <time>2020-06-15T18:01:15Z</time>
      </trkpt>
      <trkpt lat="49.38874" lon="-1.30266">
        <ele>8.8</ele>
        <time>2020-06-15T18:01:16Z</time>
      </trkpt>
      <trkpt lat="49.3887" lon="-1.30263">
        <ele>8.8</ele>
        <time>2020-06-15T18:01:17Z</time>
      </trkpt>
      <trkpt lat="49.38864" lon="-1.30258">
        <ele>8.9</ele>
        <time>2020-06-15T18:01:18Z</time>
      </trkpt>
      <trkpt lat="49.38858" lon="-1.30254">
        <ele>9</ele>
        <time>2020-06-15T18:01:19Z</time>
      </trkpt>
      <trkpt lat="49.38852" lon="-1.30249">
        <ele>9.1</ele>
        <time>2020-06-15T18:01:20Z</time>
      </trkpt>
      <trkpt lat="49.38847" lon="-1.30245">
        <ele>9.3</ele>
        <time>2020-06-15T18:01:21Z</time>
      </trkpt>
      <trkpt lat="49.38841" lon="-1.30241">
        <ele>9.4</ele>
        <time>2020-06-15T18:01:22Z</time>
      </trkpt>
      <trkpt lat="49.38835" lon="-1.30237">
        <ele>9.4</ele>
        <time>2020-06-15T18:01:23Z</time>
      </trkpt>
      <trkpt lat="49.3883" lon="-1.30234">
        <ele>9.4</ele>
        <time>2020-06-15T18:01:24Z</time>
      </trkpt>
      <trkpt lat="49.38824" lon="-1.3023">
        <ele>9.4</ele>
        <time>2020-06-15T18:01:25Z</time>
      </trkpt>
      <trkpt lat="49.38819" lon="-1.30227">
        <ele>9.4</ele>
        <time>2020-06-15T18:01:26Z</time>
      </trkpt>
      <trkpt lat="49.38814" lon="-1.30223">
        <ele>9.5</ele>
        <time>2020-06-15T18:01:27Z</time>
      </trkpt>
      <trkpt lat="49.38809" lon="-1.30218">
        <ele>9.6</ele>
        <time>2020-06-15T18:01:28Z</time>
      </trkpt>
      <trkpt lat="49.38805" lon="-1.30214">
        <ele>9.7</ele>
        <time>2020-06-15T18:01:29Z</time>
      </trkpt>
      <trkpt lat="49.388" lon="-1.3021">
        <ele>9.8</ele>
        <time>2020-06-15T18:01:30Z</time>
      </trkpt>
      <trkpt lat="49.38795" lon="-1.30206">
        <ele>10</ele>
        <time>2020-06-15T18:01:31Z</time>
      </trkpt>
      <trkpt lat="49.3879" lon="-1.30203">
        <ele>10.1</ele>
        <time>2020-06-15T18:01:32Z</time>
      </trkpt>
      <trkpt lat="49.38786" lon="-1.30198">
        <ele>10.3</ele>
        <time>2020-06-15T18:01:33Z</time>
      </trkpt>
      <trkpt lat="49.38781" lon="-1.30194">
        <ele>10.5</ele>
        <time>2020-06-15T18:01:34Z</time>
      </trkpt>
      <trkpt lat="49.38777" lon="-1.30191">
        <ele>10.7</ele>
        <time>2020-06-15T18:01:35Z</time>
      </trkpt>
      <trkpt lat="49.38772" lon="-1.30188">
        <ele>10.9</ele>
        <time>2020-06-15T18:01:36Z</time>
      </trkpt>
      <trkpt lat="49.38767" lon="-1.30186">
        <ele>11</ele>
        <time>2020-06-15T18:01:37Z</time>
      </trkpt>
      <trkpt lat="49.38764" lon="-1.30182">
        <ele>11.2</ele>
        <time>2020-06-15T18:01:38Z</time>
      </trkpt>
      <trkpt lat="49.3876" lon="-1.30179">
        <ele>11.3</ele>
        <time>2020-06-15T18:01:39Z</time>
      </trkpt>
      <trkpt lat="49.38756" lon="-1.30177">
        <ele>11.4</ele>
        <time>2020-06-15T18:01:40Z</time>
      </trkpt>
      <trkpt lat="49.38752" lon="-1.30174">
        <ele>11.6</ele>
        <time>2020-06-15T18:01:41Z</time>
      </trkpt>
      <trkpt lat="49.38749" lon="-1.30171">
        <ele>11.8</ele>
        <time>2020-06-15T18:01:42Z</time>
      </trkpt>
      <trkpt lat="49.38745" lon="-1.30169">
        <ele>11.9</ele>
        <time>2020-06-15T18:01:43Z</time>
      </trkpt>
      <trkpt lat="49.38741" lon="-1.30165">
        <ele>12.1</ele>
        <time>2020-06-15T18:01:44Z</time>
      </trkpt>
      <trkpt lat="49.38737" lon="-1.30162">
        <ele>12.3</ele>
        <time>2020-06-15T18:01:45Z</time>
      </trkpt>
      <trkpt lat="49.38733" lon="-1.30159">
        <ele>12.6</ele>
        <time>2020-06-15T18:01:46Z</time>
      </trkpt>
      <trkpt lat="49.38729" lon="-1.30156">
        <ele>12.7</ele>
        <time>2020-06-15T18:01:47Z</time>
      </trkpt>
      <trkpt lat="49.38726" lon="-1.30153">
        <ele>13</ele>
        <time>2020-06-15T18:01:48Z</time>
      </trkpt>
      <trkpt lat="49.38723" lon="-1.30151">
        <ele>13.2</ele>
        <time>2020-06-15T18:01:49Z</time>
      </trkpt>
      <trkpt lat="49.38718" lon="-1.30148">
        <ele>13.4</ele>
        <time>2020-06-15T18:01:50Z</time>
      </trkpt>
      <trkpt lat="49.38715" lon="-1.30147">
        <ele>13.6</ele>
        <time>2020-06-15T18:01:51Z</time>
      </trkpt>
      <trkpt lat="49.38712" lon="-1.30145">
        <ele>13.8</ele>
        <time>2020-06-15T18:01:52Z</time>
      </trkpt>
      <trkpt lat="49.3871" lon="-1.30143">
        <ele>14</ele>
        <time>2020-06-15T18:01:53Z</time>
      </trkpt>
      <trkpt lat="49.38706" lon="-1.30139">
        <ele>14.2</ele>
        <time>2020-06-15T18:01:54Z</time>
      </trkpt>
      <trkpt lat="49.38704" lon="-1.30138">
        <ele>14.3</ele>
        <time>2020-06-15T18:01:55Z</time>
      </trkpt>
      <trkpt lat="49.38701" lon="-1.30135">
        <ele>14.5</ele>
        <time>2020-06-15T18:01:56Z</time>
      </trkpt>
      <trkpt lat="49.38698" lon="-1.30132">
        <ele>14.7</ele>
        <time>2020-06-15T18:01:57Z</time>
      </trkpt>
      <trkpt lat="49.38695" lon="-1.3013">
        <ele>15</ele>
        <time>2020-06-15T18:01:58Z</time>
      </trkpt>
      <trkpt lat="49.38692" lon="-1.30127">
        <ele>15.1</ele>
        <time>2020-06-15T18:01:59Z</time>
      </trkpt>
      <trkpt lat="49.38689" lon="-1.30125">
        <ele>15.3</ele>
        <time>2020-06-15T18:02:00Z</time>
      </trkpt>
      <trkpt lat="49.38686" lon="-1.30122">
        <ele>15.5</ele>
        <time>2020-06-15T18:02:01Z</time>
      </trkpt>
      <trkpt lat="49.38683" lon="-1.3012">
        <ele>15.6</ele>
        <time>2020-06-15T18:02:02Z</time>
      </trkpt>
      <trkpt lat="49.3868" lon="-1.30117">
        <ele>15.9</ele>
        <time>2020-06-15T18:02:03Z</time>
      </trkpt>
      <trkpt lat="49.38676" lon="-1.30115">
        <ele>16.1</ele>
        <time>2020-06-15T18:02:04Z</time>
      </trkpt>
      <trkpt lat="49.38673" lon="-1.30112">
        <ele>16.3</ele>
        <time>2020-06-15T18:02:05Z</time>
      </trkpt>
      <trkpt lat="49.3867" lon="-1.30109">
        <ele>16.5</ele>
        <time>2020-06-15T18:02:06Z</time>
      </trkpt>
      <trkpt lat="49.38666" lon="-1.30106">
        <ele>16.7</ele>
        <time>2020-06-15T18:02:07Z</time>
      </trkpt>
      <trkpt lat="49.38662" lon="-1.30103">
        <ele>17</ele>
        <time>2020-06-15T18:02:08Z</time>
      </trkpt>
      <trkpt lat="49.38658" lon="-1.301">
        <ele>17.2</ele>
        <time>2020-06-15T18:02:09Z</time>
      </trkpt>
      <trkpt lat="49.38655" lon="-1.30098">
        <ele>17.3</ele>
        <time>2020-06-15T18:02:10Z</time>
      </trkpt>
      <trkpt lat="49.38652" lon="-1.30097">
        <ele>17.5</ele>
        <time>2020-06-15T18:02:11Z</time>
      </trkpt>
      <trkpt lat="49.38648" lon="-1.30094">
        <ele>17.7</ele>
        <time>2020-06-15T18:02:12Z</time>
      </trkpt>
      <trkpt lat="49.38645" lon="-1.30091">
        <ele>17.9</ele>
        <time>2020-06-15T18:02:13Z</time>
      </trkpt>
      <trkpt lat="49.38641" lon="-1.30089">
        <ele>18.1</ele>
        <time>2020-06-15T18:02:14Z</time>
      </trkpt>
      <trkpt lat="49.38638" lon="-1.30086">
        <ele>18.3</ele>
        <time>2020-06-15T18:02:15Z</time>
      </trkpt>
      <trkpt lat="49.38635" lon="-1.30084">
        <ele>18.5</ele>
        <time>2020-06-15T18:02:16Z</time>
      </trkpt>
      <trkpt lat="49.38632" lon="-1.30081">
        <ele>18.7</ele>
        <time>2020-06-15T18:02:17Z</time>
      </trkpt>
      <trkpt lat="49.38629" lon="-1.30078">
        <ele>18.9</ele>
        <time>2020-06-15T18:02:18Z</time>
      </trkpt>
      <trkpt lat="49.38625" lon="-1.30076">
        <ele>19.1</ele>
        <time>2020-06-15T18:02:19Z</time>
      </trkpt>
      <trkpt lat="49.38622" lon="-1.30073">
        <ele>19.3</ele>
        <time>2020-06-15T18:02:20Z</time>
      </trkpt>
      <trkpt lat="49.38618" lon="-1.3007">
        <ele>19.5</ele>
        <time>2020-06-15T18:02:21Z</time>
      </trkpt>
      <trkpt lat="49.38614" lon="-1.30068">
        <ele>19.7</ele>
        <time>2020-06-15T18:02:22Z</time>
      </trkpt>
      <trkpt lat="49.38611" lon="-1.30066">
        <ele>19.9</ele>
        <time>2020-06-15T18:02:23Z</time>
      </trkpt>
      <trkpt lat="49.38607" lon="-1.30064">
        <ele>20.1</ele>
        <time>2020-06-15T18:02:24Z</time>
      </trkpt>
      <trkpt lat="49.38603" lon="-1.30061">
        <ele>20.3</ele>
        <time>2020-06-15T18:02:25Z</time>
      </trkpt>
      <trkpt lat="49.38602" lon="-1.3006">
        <ele>20.3</ele>
        <time>2020-06-15T18:02:26Z</time>
      </trkpt>
      <trkpt lat="49.38599" lon="-1.30058">
        <ele>20.5</ele>
        <time>2020-06-15T18:02:27Z</time>
      </trkpt>
      <trkpt lat="49.38596" lon="-1.30055">
        <ele>20.6</ele>
        <time>2020-06-15T18:02:28Z</time>
      </trkpt>
      <trkpt lat="49.38594" lon="-1.30052">
        <ele>20.8</ele>
        <time>2020-06-15T18:02:29Z</time>
      </trkpt>
      <trkpt lat="49.3859" lon="-1.3005">
        <ele>20.9</ele>
        <time>2020-06-15T18:02:30Z</time>
      </trkpt>
      <trkpt lat="49.38588" lon="-1.30047">
        <ele>21.1</ele>
        <time>2020-06-15T18:02:31Z</time>
      </trkpt>
      <trkpt lat="49.38584" lon="-1.30044">
        <ele>21.2</ele>
        <time>2020-06-15T18:02:32Z</time>
      </trkpt>
      <trkpt lat="49.38581" lon="-1.30042">
        <ele>21.3</ele>
        <time>2020-06-15T18:02:33Z</time>
      </trkpt>
      <trkpt lat="49.38578" lon="-1.30039">
        <ele>21.5</ele>
        <time>2020-06-15T18:02:34Z</time>
      </trkpt>
      <trkpt lat="49.38574" lon="-1.30035">
        <ele>21.7</ele>
        <time>2020-06-15T18:02:35Z</time>
      </trkpt>
      <trkpt lat="49.38571" lon="-1.30033">
        <ele>21.8</ele>
        <time>2020-06-15T18:02:36Z</time>
      </trkpt>
      <trkpt lat="49.38566" lon="-1.30031">
        <ele>21.9</ele>
        <time>2020-06-15T18:02:37Z</time>
      </trkpt>
      <trkpt lat="49.38563" lon="-1.30029">
        <ele>22</ele>
        <time>2020-06-15T18:02:38Z</time>
      </trkpt>
      <trkpt lat="49.3856" lon="-1.30026">
        <ele>22.1</ele>
        <time>2020-06-15T18:02:39Z</time>
      </trkpt>
      <trkpt lat="49.38557" lon="-1.30023">
        <ele>22.2</ele>
        <time>2020-06-15T18:02:40Z</time>
      </trkpt>
      <trkpt lat="49.38553" lon="-1.30021">
        <ele>22.3</ele>
        <time>2020-06-15T18:02:41Z</time>
      </trkpt>
      <trkpt lat="49.38549" lon="-1.30018">
        <ele>22.5</ele>
        <time>2020-06-15T18:02:42Z</time>
      </trkpt>
      <trkpt lat="49.38545" lon="-1.30015">
        <ele>22.7</ele>
        <time>2020-06-15T18:02:43Z</time>
      </trkpt>
      <trkpt lat="49.38541" lon="-1.30011">
        <ele>22.8</ele>
        <time>2020-06-15T18:02:44Z</time>
      </trkpt>
      <trkpt lat="49.38538" lon="-1.30008">
        <ele>23</ele>
        <time>2020-06-15T18:02:45Z</time>
      </trkpt>
      <trkpt lat="49.38536" lon="-1.30006">
        <ele>23.1</ele>
        <time>2020-06-15T18:02:46Z</time>
      </trkpt>
      <trkpt lat="49.38532" lon="-1.30004">
        <ele>23.2</ele>
        <time>2020-06-15T18:02:47Z</time>
      </trkpt>
      <trkpt lat="49.38529" lon="-1.30001">
        <ele>23.4</ele>
        <time>2020-06-15T18:02:48Z</time>
      </trkpt>
      <trkpt lat="49.38526" lon="-1.29999">
        <ele>23.5</ele>
        <time>2020-06-15T18:02:49Z</time>
      </trkpt>
      <trkpt lat="49.38522" lon="-1.29996">
        <ele>23.7</ele>
        <time>2020-06-15T18:02:50Z</time>
      </trkpt>
      <trkpt lat="49.38519" lon="-1.29995">
        <ele>23.8</ele>
        <time>2020-06-15T18:02:51Z</time>
      </trkpt>
      <trkpt lat="49.38516" lon="-1.29993">
        <ele>23.9</ele>
        <time>2020-06-15T18:02:52Z</time>
      </trkpt>
      <trkpt lat="49.38511" lon="-1.29989">
        <ele>24.1</ele>
        <time>2020-06-15T18:02:53Z</time>
      </trkpt>
      <trkpt lat="49.38508" lon="-1.29987">
        <ele>24.2</ele>
        <time>2020-06-15T18:02:54Z</time>
      </trkpt>
      <trkpt lat="49.38505" lon="-1.29983">
        <ele>24.3</ele>
        <time>2020-06-15T18:02:55Z</time>
      </trkpt>
      <trkpt lat="49.38502" lon="-1.29979">
        <ele>24.4</ele>
        <time>2020-06-15T18:02:56Z</time>
      </trkpt>
      <trkpt lat="49.38498" lon="-1.29975">
        <ele>24.5</ele>
        <time>2020-06-15T18:02:57Z</time>
      </trkpt>
      <trkpt lat="49.38495" lon="-1.29972">
        <ele>24.6</ele>
        <time>2020-06-15T18:02:58Z</time>
      </trkpt>
      <trkpt lat="49.38492" lon="-1.29968">
        <ele>24.8</ele>
        <time>2020-06-15T18:02:59Z</time>
      </trkpt>
      <trkpt lat="49.38487" lon="-1.29964">
        <ele>24.9</ele>
        <time>2020-06-15T18:03:00Z</time>
      </trkpt>
      <trkpt lat="49.38483" lon="-1.29961">
        <ele>25.1</ele>
        <time>2020-06-15T18:03:01Z</time>
      </trkpt>
      <trkpt lat="49.38479" lon="-1.29958">
        <ele>25.2</ele>
        <time>2020-06-15T18:03:02Z</time>
      </trkpt>
      <trkpt lat="49.38475" lon="-1.29956">
        <ele>25.4</ele>
        <time>2020-06-15T18:03:03Z</time>
      </trkpt>
      <trkpt lat="49.38472" lon="-1.29953">
        <ele>25.5</ele>
        <time>2020-06-15T18:03:04Z</time>
      </trkpt>
      <trkpt lat="49.38468" lon="-1.29951">
        <ele>25.6</ele>
        <time>2020-06-15T18:03:05Z</time>
      </trkpt>
      <trkpt lat="49.38465" lon="-1.29948">
        <ele>25.7</ele>
        <time>2020-06-15T18:03:06Z</time>
      </trkpt>
      <trkpt lat="49.38462" lon="-1.29946">
        <ele>25.8</ele>
        <time>2020-06-15T18:03:07Z</time>
      </trkpt>
      <trkpt lat="49.38458" lon="-1.29943">
        <ele>25.9</ele>
        <time>2020-06-15T18:03:08Z</time>
      </trkpt>
      <trkpt lat="49.38454" lon="-1.29939">
        <ele>26.1</ele>
        <time>2020-06-15T18:03:09Z</time>
      </trkpt>
      <trkpt lat="49.3845" lon="-1.29938">
        <ele>26.2</ele>
        <time>2020-06-15T18:03:10Z</time>
      </trkpt>
      <trkpt lat="49.38445" lon="-1.29935">
        <ele>26.3</ele>
        <time>2020-06-15T18:03:11Z</time>
      </trkpt>
      <trkpt lat="49.38441" lon="-1.29931">
        <ele>26.5</ele>
        <time>2020-06-15T18:03:12Z</time>
      </trkpt>
      <trkpt lat="49.38437" lon="-1.29929">
        <ele>26.6</ele>
        <time>2020-06-15T18:03:13Z</time>
      </trkpt>
      <trkpt lat="49.38433" lon="-1.29927">
        <ele>26.7</ele>
        <time>2020-06-15T18:03:14Z</time>
      </trkpt>
      <trkpt lat="49.3843" lon="-1.29925">
        <ele>26.8</ele>
        <time>2020-06-15T18:03:15Z</time>
      </trkpt>
      <trkpt lat="49.38427" lon="-1.29923">
        <ele>26.8</ele>
        <time>2020-06-15T18:03:16Z</time>
      </trkpt>
      <trkpt lat="49.38423" lon="-1.2992">
        <ele>26.9</ele>
        <time>2020-06-15T18:03:17Z</time>
      </trkpt>
      <trkpt lat="49.38419" lon="-1.29917">
        <ele>27</ele>
        <time>2020-06-15T18:03:18Z</time>
      </trkpt>
      <trkpt lat="49.38415" lon="-1.29915">
        <ele>27.2</ele>
        <time>2020-06-15T18:03:19Z</time>
      </trkpt>
      <trkpt lat="49.38411" lon="-1.29912">
        <ele>27.3</ele>
        <time>2020-06-15T18:03:20Z</time>
      </trkpt>
      <trkpt lat="49.38408" lon="-1.2991">
        <ele>27.4</ele>
        <time>2020-06-15T18:03:21Z</time>
      </trkpt>
      <trkpt lat="49.38404" lon="-1.29909">
        <ele>27.5</ele>
        <time>2020-06-15T18:03:22Z</time>
      </trkpt>
      <trkpt lat="49.384" lon="-1.29905">
        <ele>27.7</ele>
        <time>2020-06-15T18:03:23Z</time>
      </trkpt>
      <trkpt lat="49.38397" lon="-1.29903">
        <ele>27.7</ele>
        <time>2020-06-15T18:03:24Z</time>
      </trkpt>
      <trkpt lat="49.38392" lon="-1.29898">
        <ele>27.9</ele>
        <time>2020-06-15T18:03:25Z</time>
      </trkpt>
      <trkpt lat="49.38388" lon="-1.29895">
        <ele>27.9</ele>
        <time>2020-06-15T18:03:26Z</time>
      </trkpt>
      <trkpt lat="49.38385" lon="-1.29893">
        <ele>28</ele>
        <time>2020-06-15T18:03:27Z</time>
      </trkpt>
      <trkpt lat="49.38381" lon="-1.2989">
        <ele>28.1</ele>
        <time>2020-06-15T18:03:28Z</time>
      </trkpt>
      <trkpt lat="49.38377" lon="-1.29887">
        <ele>28.1</ele>
        <time>2020-06-15T18:03:29Z</time>
      </trkpt>
      <trkpt lat="49.38374" lon="-1.29885">
        <ele>28.2</ele>
        <time>2020-06-15T18:03:30Z</time>
      </trkpt>
      <trkpt lat="49.38371" lon="-1.29883">
        <ele>28.2</ele>
        <time>2020-06-15T18:03:31Z</time>
      </trkpt>
      <trkpt lat="49.38367" lon="-1.29879">
        <ele>28.3</ele>
        <time>2020-06-15T18:03:32Z</time>
      </trkpt>
      <trkpt lat="49.38363" lon="-1.29877">
        <ele>28.3</ele>
        <time>2020-06-15T18:03:33Z</time>
      </trkpt>
      <trkpt lat="49.38358" lon="-1.29874">
        <ele>28.4</ele>
        <time>2020-06-15T18:03:34Z</time>
      </trkpt>
      <trkpt lat="49.38354" lon="-1.29871">
        <ele>28.4</ele>
        <time>2020-06-15T18:03:35Z</time>
      </trkpt>
      <trkpt lat="49.3835" lon="-1.29867">
        <ele>28.5</ele>
        <time>2020-06-15T18:03:36Z</time>
      </trkpt>
      <trkpt lat="49.38346" lon="-1.29864">
        <ele>28.5</ele>
        <time>2020-06-15T18:03:37Z</time>
      </trkpt>
      <trkpt lat="49.38342" lon="-1.29861">
        <ele>28.6</ele>
        <time>2020-06-15T18:03:38Z</time>
      </trkpt>
      <trkpt lat="49.38339" lon="-1.29858">
        <ele>28.6</ele>
        <time>2020-06-15T18:03:39Z</time>
      </trkpt>
      <trkpt lat="49.38335" lon="-1.29856">
        <ele>28.7</ele>
        <time>2020-06-15T18:03:40Z</time>
      </trkpt>
      <trkpt lat="49.3833" lon="-1.29852">
        <ele>28.7</ele>
        <time>2020-06-15T18:03:41Z</time>
      </trkpt>
      <trkpt lat="49.38327" lon="-1.29848">
        <ele>28.8</ele>
        <time>2020-06-15T18:03:42Z</time>
      </trkpt>
      <trkpt lat="49.38323" lon="-1.29845">
        <ele>28.9</ele>
        <time>2020-06-15T18:03:43Z</time>
      </trkpt>
      <trkpt lat="49.38319" lon="-1.29843">
        <ele>28.9</ele>
        <time>2020-06-15T18:03:44Z</time>
      </trkpt>
      <trkpt lat="49.38314" lon="-1.2984">
        <ele>29</ele>
        <time>2020-06-15T18:03:45Z</time>
      </trkpt>
      <trkpt lat="49.3831" lon="-1.29836">
        <ele>29</ele>
        <time>2020-06-15T18:03:46Z</time>
      </trkpt>
      <trkpt lat="49.38305" lon="-1.29833">
        <ele>29.1</ele>
        <time>2020-06-15T18:03:47Z</time>
      </trkpt>
      <trkpt lat="49.383" lon="-1.29831">
        <ele>29.2</ele>
        <time>2020-06-15T18:03:48Z</time>
      </trkpt>
      <trkpt lat="49.38297" lon="-1.29828">
        <ele>29.2</ele>
        <time>2020-06-15T18:03:49Z</time>
      </trkpt>
      <trkpt lat="49.38292" lon="-1.29826">
        <ele>29.2</ele>
        <time>2020-06-15T18:03:50Z</time>
      </trkpt>
      <trkpt lat="49.38288" lon="-1.29824">
        <ele>29.3</ele>
        <time>2020-06-15T18:03:51Z</time>
      </trkpt>
      <trkpt lat="49.38284" lon="-1.29822">
        <ele>29.3</ele>
        <time>2020-06-15T18:03:52Z</time>
      </trkpt>
      <trkpt lat="49.3828" lon="-1.2982">
        <ele>29.3</ele>
        <time>2020-06-15T18:03:53Z</time>
      </trkpt>
      <trkpt lat="49.38275" lon="-1.29818">
        <ele>29.4</ele>
        <time>2020-06-15T18:03:54Z</time>
      </trkpt>
      <trkpt lat="49.3827" lon="-1.29816">
        <ele>29.4</ele>
        <time>2020-06-15T18:03:55Z</time>
      </trkpt>
      <trkpt lat="49.38267" lon="-1.29814">
        <ele>29.4</ele>
        <time>2020-06-15T18:03:56Z</time>
      </trkpt>
      <trkpt lat="49.38262" lon="-1.29811">
        <ele>29.4</ele>
        <time>2020-06-15T18:03:57Z</time>
      </trkpt>
      <trkpt lat="49.38257" lon="-1.29809">
        <ele>29.4</ele>
        <time>2020-06-15T18:03:58Z</time>
      </trkpt>
      <trkpt lat="49.38252" lon="-1.29806">
        <ele>29.5</ele>
        <time>2020-06-15T18:03:59Z</time>
      </trkpt>
      <trkpt lat="49.38247" lon="-1.29803">
        <ele>29.5</ele>
        <time>2020-06-15T18:04:00Z</time>
      </trkpt>
      <trkpt lat="49.38242" lon="-1.29799">
        <ele>29.6</ele>
        <time>2020-06-15T18:04:01Z</time>
      </trkpt>
      <trkpt lat="49.38238" lon="-1.29796">
        <ele>29.7</ele>
        <time>2020-06-15T18:04:02Z</time>
      </trkpt>
      <trkpt lat="49.38234" lon="-1.29793">
        <ele>29.8</ele>
        <time>2020-06-15T18:04:03Z</time>
      </trkpt>
      <trkpt lat="49.3823" lon="-1.2979">
        <ele>29.8</ele>
        <time>2020-06-15T18:04:04Z</time>
      </trkpt>
      <trkpt lat="49.38226" lon="-1.29788">
        <ele>29.9</ele>
        <time>2020-06-15T18:04:05Z</time>
      </trkpt>
      <trkpt lat="49.38222" lon="-1.29784">
        <ele>29.9</ele>
        <time>2020-06-15T18:04:06Z</time>
      </trkpt>
      <trkpt lat="49.38217" lon="-1.29782">
        <ele>30</ele>
        <time>2020-06-15T18:04:07Z</time>
      </trkpt>
      <trkpt lat="49.38213" lon="-1.2978">
        <ele>30</ele>
        <time>2020-06-15T18:04:08Z</time>
      </trkpt>
      <trkpt lat="49.38207" lon="-1.29776">
        <ele>30.1</ele>
        <time>2020-06-15T18:04:09Z</time>
      </trkpt>
      <trkpt lat="49.38203" lon="-1.29773">
        <ele>30.1</ele>
        <time>2020-06-15T18:04:10Z</time>
      </trkpt>
      <trkpt lat="49.38199" lon="-1.2977">
        <ele>30.2</ele>
        <time>2020-06-15T18:04:11Z</time>
      </trkpt>
      <trkpt lat="49.38194" lon="-1.29767">
        <ele>30.2</ele>
        <time>2020-06-15T18:04:12Z</time>
      </trkpt>
      <trkpt lat="49.3819" lon="-1.29765">
        <ele>30.2</ele>
        <time>2020-06-15T18:04:13Z</time>
      </trkpt>
      <trkpt lat="49.38186" lon="-1.29762">
        <ele>30.3</ele>
        <time>2020-06-15T18:04:14Z</time>
      </trkpt>
      <trkpt lat="49.38182" lon="-1.2976">
        <ele>30.3</ele>
        <time>2020-06-15T18:04:15Z</time>
      </trkpt>
      <trkpt lat="49.38178" lon="-1.29759">
        <ele>30.3</ele>
        <time>2020-06-15T18:04:16Z</time>
      </trkpt>
      <trkpt lat="49.38175" lon="-1.29758">
        <ele>30.3</ele>
        <time>2020-06-15T18:04:17Z</time>
      </trkpt>
      <trkpt lat="49.38169" lon="-1.29756">
        <ele>30.3</ele>
        <time>2020-06-15T18:04:18Z</time>
      </trkpt>
      <trkpt lat="49.38165" lon="-1.29754">
        <ele>30.3</ele>
        <time>2020-06-15T18:04:19Z</time>
      </trkpt>
      <trkpt lat="49.38161" lon="-1.29754">
        <ele>30.3</ele>
        <time>2020-06-15T18:04:20Z</time>
      </trkpt>
      <trkpt lat="49.38158" lon="-1.29754">
        <ele>30.3</ele>
        <time>2020-06-15T18:04:21Z</time>
      </trkpt>
      <trkpt lat="49.38154" lon="-1.29753">
        <ele>30.3</ele>
        <time>2020-06-15T18:04:22Z</time>
      </trkpt>
      <trkpt lat="49.38151" lon="-1.29752">
        <ele>30.3</ele>
        <time>2020-06-15T18:04:23Z</time>
      </trkpt>
      <trkpt lat="49.38148" lon="-1.29753">
        <ele>30.3</ele>
        <time>2020-06-15T18:04:24Z</time>
      </trkpt>
      <trkpt lat="49.38144" lon="-1.29754">
        <ele>30.3</ele>
        <time>2020-06-15T18:04:25Z</time>
      </trkpt>
      <trkpt lat="49.38141" lon="-1.29755">
        <ele>30.3</ele>
        <time>2020-06-15T18:04:26Z</time>
      </trkpt>
      <trkpt lat="49.38138" lon="-1.29757">
        <ele>30.3</ele>
        <time>2020-06-15T18:04:27Z</time>
      </trkpt>
      <trkpt lat="49.38137" lon="-1.29758">
        <ele>30.3</ele>
        <time>2020-06-15T18:04:28Z</time>
      </trkpt>
      <trkpt lat="49.38133" lon="-1.29761">
        <ele>30.3</ele>
        <time>2020-06-15T18:04:29Z</time>
      </trkpt>
      <trkpt lat="49.38132" lon="-1.29762">
        <ele>30.2</ele>
        <time>2020-06-15T18:04:30Z</time>
      </trkpt>
      <trkpt lat="49.3813" lon="-1.29765">
        <ele>30.2</ele>
        <time>2020-06-15T18:04:31Z</time>
      </trkpt>
      <trkpt lat="49.38127" lon="-1.2977">
        <ele>30.2</ele>
        <time>2020-06-15T18:04:32Z</time>
      </trkpt>
      <trkpt lat="49.38126" lon="-1.29771">
        <ele>30.2</ele>
        <time>2020-06-15T18:04:33Z</time>
      </trkpt>
      <trkpt lat="49.38123" lon="-1.29775">
        <ele>30.2</ele>
        <time>2020-06-15T18:04:34Z</time>
      </trkpt>
      <trkpt lat="49.38122" lon="-1.29777">
        <ele>30.2</ele>
        <time>2020-06-15T18:04:35Z</time>
      </trkpt>
      <trkpt lat="49.38121" lon="-1.29782">
        <ele>30.2</ele>
        <time>2020-06-15T18:04:36Z</time>
      </trkpt>
      <trkpt lat="49.3812" lon="-1.29784">
        <ele>30.2</ele>
        <time>2020-06-15T18:04:37Z</time>
      </trkpt>
      <trkpt lat="49.38119" lon="-1.29789">
        <ele>30.2</ele>
        <time>2020-06-15T18:04:38Z</time>
      </trkpt>
      <trkpt lat="49.38118" lon="-1.29791">
        <ele>30.2</ele>
        <time>2020-06-15T18:04:39Z</time>
      </trkpt>
      <trkpt lat="49.38116" lon="-1.29796">
        <ele>30.2</ele>
        <time>2020-06-15T18:04:40Z</time>
      </trkpt>
      <trkpt lat="49.38114" lon="-1.29797">
        <ele>30.2</ele>
        <time>2020-06-15T18:04:41Z</time>
      </trkpt>
      <trkpt lat="49.38112" lon="-1.29798">
        <ele>30.2</ele>
        <time>2020-06-15T18:04:42Z</time>
      </trkpt>
      <trkpt lat="49.38109" lon="-1.298">
        <ele>30.2</ele>
        <time>2020-06-15T18:04:43Z</time>
      </trkpt>
      <trkpt lat="49.38106" lon="-1.29801">
        <ele>30.3</ele>
        <time>2020-06-15T18:04:44Z</time>
      </trkpt>
      <trkpt lat="49.38103" lon="-1.29803">
        <ele>30.3</ele>
        <time>2020-06-15T18:04:45Z</time>
      </trkpt>
      <trkpt lat="49.38102" lon="-1.29804">
        <ele>30.3</ele>
        <time>2020-06-15T18:04:46Z</time>
      </trkpt>
      <trkpt lat="49.38099" lon="-1.29805">
        <ele>30.3</ele>
        <time>2020-06-15T18:04:47Z</time>
      </trkpt>
      <trkpt lat="49.38096" lon="-1.29804">
        <ele>30.3</ele>
        <time>2020-06-15T18:04:48Z</time>
      </trkpt>
      <trkpt lat="49.38092" lon="-1.29801">
        <ele>30.3</ele>
        <time>2020-06-15T18:04:49Z</time>
      </trkpt>
      <trkpt lat="49.38091" lon="-1.298">
        <ele>30.3</ele>
        <time>2020-06-15T18:04:50Z</time>
      </trkpt>
      <trkpt lat="49.38088" lon="-1.29796">
        <ele>30.2</ele>
        <time>2020-06-15T18:04:51Z</time>
      </trkpt>
      <trkpt lat="49.38086" lon="-1.29792">
        <ele>30.1</ele>
        <time>2020-06-15T18:04:52Z</time>
      </trkpt>
      <trkpt lat="49.38084" lon="-1.29788">
        <ele>30.1</ele>
        <time>2020-06-15T18:04:53Z</time>
      </trkpt>
      <trkpt lat="49.38083" lon="-1.29782">
        <ele>30</ele>
        <time>2020-06-15T18:04:54Z</time>
      </trkpt>
      <trkpt lat="49.38081" lon="-1.29776">
        <ele>29.9</ele>
        <time>2020-06-15T18:04:55Z</time>
      </trkpt>
      <trkpt lat="49.38079" lon="-1.2977">
        <ele>29.8</ele>
        <time>2020-06-15T18:04:56Z</time>
      </trkpt>
      <trkpt lat="49.38078" lon="-1.29763">
        <ele>29.7</ele>
        <time>2020-06-15T18:04:57Z</time>
      </trkpt>
      <trkpt lat="49.38076" lon="-1.29756">
        <ele>29.5</ele>
        <time>2020-06-15T18:04:58Z</time>
      </trkpt>
      <trkpt lat="49.38075" lon="-1.2975">
        <ele>29.4</ele>
        <time>2020-06-15T18:04:59Z</time>
      </trkpt>
      <trkpt lat="49.38074" lon="-1.29743">
        <ele>29.3</ele>
        <time>2020-06-15T18:05:00Z</time>
      </trkpt>
      <trkpt lat="49.38072" lon="-1.29736">
        <ele>29.2</ele>
        <time>2020-06-15T18:05:01Z</time>
      </trkpt>
      <trkpt lat="49.38071" lon="-1.29729">
        <ele>29.2</ele>
        <time>2020-06-15T18:05:02Z</time>
      </trkpt>
      <trkpt lat="49.3807" lon="-1.29721">
        <ele>29.1</ele>
        <time>2020-06-15T18:05:03Z</time>
      </trkpt>
      <trkpt lat="49.38069" lon="-1.29714">
        <ele>29.1</ele>
        <time>2020-06-15T18:05:04Z</time>
      </trkpt>
      <trkpt lat="49.38069" lon="-1.29706">
        <ele>29.1</ele>
        <time>2020-06-15T18:05:05Z</time>
      </trkpt>
      <trkpt lat="49.38068" lon="-1.29697">
        <ele>29</ele>
        <time>2020-06-15T18:05:06Z</time>
      </trkpt>
      <trkpt lat="49.38068" lon="-1.29688">
        <ele>28.9</ele>
        <time>2020-06-15T18:05:07Z</time>
      </trkpt>
      <trkpt lat="49.38068" lon="-1.2968">
        <ele>28.8</ele>
        <time>2020-06-15T18:05:08Z</time>
      </trkpt>
      <trkpt lat="49.38069" lon="-1.29672">
        <ele>28.7</ele>
        <time>2020-06-15T18:05:09Z</time>
      </trkpt>
      <trkpt lat="49.3807" lon="-1.29661">
        <ele>29</ele>
        <time>2020-06-15T18:05:10Z</time>
      </trkpt>
      <trkpt lat="49.3807" lon="-1.29657">
        <ele>29</ele>
        <time>2020-06-15T18:05:11Z</time>
      </trkpt>
      <trkpt lat="49.38071" lon="-1.29649">
        <ele>29.1</ele>
        <time>2020-06-15T18:05:12Z</time>
      </trkpt>
      <trkpt lat="49.38072" lon="-1.29642">
        <ele>29.2</ele>
        <time>2020-06-15T18:05:13Z</time>
      </trkpt>
      <trkpt lat="49.38071" lon="-1.29634">
        <ele>29.3</ele>
        <time>2020-06-15T18:05:14Z</time>
      </trkpt>
      <trkpt lat="49.38071" lon="-1.29628">
        <ele>29.3</ele>
        <time>2020-06-15T18:05:15Z</time>
      </trkpt>
      <trkpt lat="49.3807" lon="-1.29621">
        <ele>29.3</ele>
        <time>2020-06-15T18:05:16Z</time>
      </trkpt>
      <trkpt lat="49.38067" lon="-1.29615">
        <ele>29.2</ele>
        <time>2020-06-15T18:05:17Z</time>
      </trkpt>
      <trkpt lat="49.38064" lon="-1.29612">
        <ele>29.2</ele>
        <time>2020-06-15T18:05:18Z</time>
      </trkpt>
      <trkpt lat="49.38058" lon="-1.29609">
        <ele>29.3</ele>
        <time>2020-06-15T18:05:19Z</time>
      </trkpt>
      <trkpt lat="49.38055" lon="-1.29608">
        <ele>29.3</ele>
        <time>2020-06-15T18:05:20Z</time>
      </trkpt>
      <trkpt lat="49.3805" lon="-1.29606">
        <ele>29.4</ele>
        <time>2020-06-15T18:05:21Z</time>
      </trkpt>
      <trkpt lat="49.38045" lon="-1.29603">
        <ele>29.4</ele>
        <time>2020-06-15T18:05:22Z</time>
      </trkpt>
      <trkpt lat="49.3804" lon="-1.29602">
        <ele>29.5</ele>
        <time>2020-06-15T18:05:23Z</time>
      </trkpt>
      <trkpt lat="49.38035" lon="-1.296">
        <ele>29.5</ele>
        <time>2020-06-15T18:05:24Z</time>
      </trkpt>
      <trkpt lat="49.3803" lon="-1.29598">
        <ele>29.6</ele>
        <time>2020-06-15T18:05:25Z</time>
      </trkpt>
      <trkpt lat="49.38024" lon="-1.29596">
        <ele>29.7</ele>
        <time>2020-06-15T18:05:26Z</time>
      </trkpt>
      <trkpt lat="49.3802" lon="-1.29593">
        <ele>29.8</ele>
        <time>2020-06-15T18:05:27Z</time>
      </trkpt>
      <trkpt lat="49.38016" lon="-1.2959">
        <ele>29.9</ele>
        <time>2020-06-15T18:05:28Z</time>
      </trkpt>
      <trkpt lat="49.38012" lon="-1.29588">
        <ele>30</ele>
        <time>2020-06-15T18:05:29Z</time>
      </trkpt>
      <trkpt lat="49.38008" lon="-1.29585">
        <ele>30.1</ele>
        <time>2020-06-15T18:05:30Z</time>
      </trkpt>
      <trkpt lat="49.38004" lon="-1.29581">
        <ele>30.2</ele>
        <time>2020-06-15T18:05:31Z</time>
      </trkpt>
      <trkpt lat="49.38001" lon="-1.29577">
        <ele>30.3</ele>
        <time>2020-06-15T18:05:32Z</time>
      </trkpt>
      <trkpt lat="49.37997" lon="-1.29573">
        <ele>30.4</ele>
        <time>2020-06-15T18:05:33Z</time>
      </trkpt>
      <trkpt lat="49.37992" lon="-1.29569">
        <ele>30.4</ele>
        <time>2020-06-15T18:05:34Z</time>
      </trkpt>
      <trkpt lat="49.37987" lon="-1.29564">
        <ele>30.4</ele>
        <time>2020-06-15T18:05:35Z</time>
      </trkpt>
      <trkpt lat="49.37983" lon="-1.2956">
        <ele>30.5</ele>
        <time>2020-06-15T18:05:36Z</time>
      </trkpt>
      <trkpt lat="49.37978" lon="-1.29556">
        <ele>30.5</ele>
        <time>2020-06-15T18:05:37Z</time>
      </trkpt>
      <trkpt lat="49.37974" lon="-1.29552">
        <ele>30.5</ele>
        <time>2020-06-15T18:05:38Z</time>
      </trkpt>
      <trkpt lat="49.37969" lon="-1.29548">
        <ele>30.5</ele>
        <time>2020-06-15T18:05:39Z</time>
      </trkpt>
      <trkpt lat="49.37966" lon="-1.29545">
        <ele>30.5</ele>
        <time>2020-06-15T18:05:40Z</time>
      </trkpt>
      <trkpt lat="49.37961" lon="-1.2954">
        <ele>30.5</ele>
        <time>2020-06-15T18:05:41Z</time>
      </trkpt>
      <trkpt lat="49.37957" lon="-1.29537">
        <ele>30.5</ele>
        <time>2020-06-15T18:05:42Z</time>
      </trkpt>
      <trkpt lat="49.37951" lon="-1.29533">
        <ele>30.5</ele>
        <time>2020-06-15T18:05:43Z</time>
      </trkpt>
      <trkpt lat="49.37946" lon="-1.29529">
        <ele>30.5</ele>
        <time>2020-06-15T18:05:44Z</time>
      </trkpt>
      <trkpt lat="49.37941" lon="-1.29526">
        <ele>30.5</ele>
        <time>2020-06-15T18:05:45Z</time>
      </trkpt>
      <trkpt lat="49.37937" lon="-1.29523">
        <ele>30.5</ele>
        <time>2020-06-15T18:05:46Z</time>
      </trkpt>
      <trkpt lat="49.37932" lon="-1.2952">
        <ele>30.5</ele>
        <time>2020-06-15T18:05:47Z</time>
      </trkpt>
      <trkpt lat="49.37926" lon="-1.29516">
        <ele>30.5</ele>
        <time>2020-06-15T18:05:48Z</time>
      </trkpt>
      <trkpt lat="49.37922" lon="-1.29513">
        <ele>30.7</ele>
        <time>2020-06-15T18:05:49Z</time>
      </trkpt>
      <trkpt lat="49.37916" lon="-1.29509">
        <ele>30.7</ele>
        <time>2020-06-15T18:05:50Z</time>
      </trkpt>
      <trkpt lat="49.37911" lon="-1.29504">
        <ele>30.7</ele>
        <time>2020-06-15T18:05:51Z</time>
      </trkpt>
      <trkpt lat="49.37905" lon="-1.295">
        <ele>30.6</ele>
        <time>2020-06-15T18:05:52Z</time>
      </trkpt>
      <trkpt lat="49.379" lon="-1.29495">
        <ele>30.6</ele>
        <time>2020-06-15T18:05:53Z</time>
      </trkpt>
      <trkpt lat="49.37895" lon="-1.2949">
        <ele>30.6</ele>
        <time>2020-06-15T18:05:54Z</time>
      </trkpt>
      <trkpt lat="49.37889" lon="-1.29486">
        <ele>30.6</ele>
        <time>2020-06-15T18:05:55Z</time>
      </trkpt>
      <trkpt lat="49.37884" lon="-1.29482">
        <ele>30.6</ele>
        <time>2020-06-15T18:05:56Z</time>
      </trkpt>
      <trkpt lat="49.37879" lon="-1.29477">
        <ele>30.6</ele>
        <time>2020-06-15T18:05:57Z</time>
      </trkpt>
      <trkpt lat="49.37873" lon="-1.29472">
        <ele>30.6</ele>
        <time>2020-06-15T18:05:58Z</time>
      </trkpt>
      <trkpt lat="49.37868" lon="-1.29468">
        <ele>30.6</ele>
        <time>2020-06-15T18:05:59Z</time>
      </trkpt>
      <trkpt lat="49.37862" lon="-1.29462">
        <ele>30.7</ele>
        <time>2020-06-15T18:06:00Z</time>
      </trkpt>
      <trkpt lat="49.37857" lon="-1.29458">
        <ele>30.7</ele>
        <time>2020-06-15T18:06:01Z</time>
      </trkpt>
      <trkpt lat="49.37852" lon="-1.29455">
        <ele>30.7</ele>
        <time>2020-06-15T18:06:02Z</time>
      </trkpt>
      <trkpt lat="49.37846" lon="-1.29451">
        <ele>30.8</ele>
        <time>2020-06-15T18:06:03Z</time>
      </trkpt>
      <trkpt lat="49.37841" lon="-1.29447">
        <ele>30.8</ele>
        <time>2020-06-15T18:06:04Z</time>
      </trkpt>
      <trkpt lat="49.37836" lon="-1.29443">
        <ele>30.8</ele>
        <time>2020-06-15T18:06:05Z</time>
      </trkpt>
      <trkpt lat="49.37831" lon="-1.29439">
        <ele>30.9</ele>
        <time>2020-06-15T18:06:06Z</time>
      </trkpt>
      <trkpt lat="49.37826" lon="-1.29436">
        <ele>30.9</ele>
        <time>2020-06-15T18:06:07Z</time>
      </trkpt>
      <trkpt lat="49.37821" lon="-1.29433">
        <ele>30.9</ele>
        <time>2020-06-15T18:06:08Z</time>
      </trkpt>
      <trkpt lat="49.37817" lon="-1.2943">
        <ele>31</ele>
        <time>2020-06-15T18:06:09Z</time>
      </trkpt>
      <trkpt lat="49.37812" lon="-1.29426">
        <ele>31</ele>
        <time>2020-06-15T18:06:10Z</time>
      </trkpt>
      <trkpt lat="49.37807" lon="-1.29422">
        <ele>31</ele>
        <time>2020-06-15T18:06:11Z</time>
      </trkpt>
      <trkpt lat="49.37802" lon="-1.29419">
        <ele>31</ele>
        <time>2020-06-15T18:06:12Z</time>
      </trkpt>
      <trkpt lat="49.37797" lon="-1.29415">
        <ele>31.1</ele>
        <time>2020-06-15T18:06:13Z</time>
      </trkpt>
      <trkpt lat="49.37792" lon="-1.29411">
        <ele>31.1</ele>
        <time>2020-06-15T18:06:14Z</time>
      </trkpt>
      <trkpt lat="49.37787" lon="-1.29408">
        <ele>31.1</ele>
        <time>2020-06-15T18:06:15Z</time>
      </trkpt>
      <trkpt lat="49.37781" lon="-1.29404">
        <ele>31.2</ele>
        <time>2020-06-15T18:06:16Z</time>
      </trkpt>
      <trkpt lat="49.37776" lon="-1.29401">
        <ele>31.2</ele>
        <time>2020-06-15T18:06:17Z</time>
      </trkpt>
      <trkpt lat="49.37771" lon="-1.29396">
        <ele>31.2</ele>
        <time>2020-06-15T18:06:18Z</time>
      </trkpt>
      <trkpt lat="49.37767" lon="-1.29392">
        <ele>31.2</ele>
        <time>2020-06-15T18:06:19Z</time>
      </trkpt>
      <trkpt lat="49.37761" lon="-1.29389">
        <ele>31.3</ele>
        <time>2020-06-15T18:06:20Z</time>
      </trkpt>
      <trkpt lat="49.37755" lon="-1.29385">
        <ele>31.3</ele>
        <time>2020-06-15T18:06:21Z</time>
      </trkpt>
      <trkpt lat="49.3775" lon="-1.29381">
        <ele>31.4</ele>
        <time>2020-06-15T18:06:22Z</time>
      </trkpt>
      <trkpt lat="49.37744" lon="-1.29378">
        <ele>31.4</ele>
        <time>2020-06-15T18:06:23Z</time>
      </trkpt>
      <trkpt lat="49.37738" lon="-1.29373">
        <ele>31.5</ele>
        <time>2020-06-15T18:06:24Z</time>
      </trkpt>
      <trkpt lat="49.37732" lon="-1.29369">
        <ele>31.5</ele>
        <time>2020-06-15T18:06:25Z</time>
      </trkpt>
      <trkpt lat="49.37726" lon="-1.29365">
        <ele>31.6</ele>
        <time>2020-06-15T18:06:26Z</time>
      </trkpt>
      <trkpt lat="49.37721" lon="-1.29361">
        <ele>31.6</ele>
        <time>2020-06-15T18:06:27Z</time>
      </trkpt>
      <trkpt lat="49.37716" lon="-1.29358">
        <ele>31.6</ele>
        <time>2020-06-15T18:06:28Z</time>
      </trkpt>
      <trkpt lat="49.37712" lon="-1.29354">
        <ele>31.6</ele>
        <time>2020-06-15T18:06:29Z</time>
      </trkpt>
      <trkpt lat="49.37706" lon="-1.29349">
        <ele>31.6</ele>
        <time>2020-06-15T18:06:30Z</time>
      </trkpt>
      <trkpt lat="49.37701" lon="-1.29345">
        <ele>31.6</ele>
        <time>2020-06-15T18:06:31Z</time>
      </trkpt>
      <trkpt lat="49.37695" lon="-1.29341">
        <ele>31.6</ele>
        <time>2020-06-15T18:06:32Z</time>
      </trkpt>
      <trkpt lat="49.3769" lon="-1.29337">
        <ele>31.7</ele>
        <time>2020-06-15T18:06:33Z</time>
      </trkpt>
      <trkpt lat="49.37684" lon="-1.29332">
        <ele>31.7</ele>
        <time>2020-06-15T18:06:34Z</time>
      </trkpt>
      <trkpt lat="49.37678" lon="-1.29328">
        <ele>31.7</ele>
        <time>2020-06-15T18:06:35Z</time>
      </trkpt>
      <trkpt lat="49.37673" lon="-1.29323">
        <ele>31.8</ele>
        <time>2020-06-15T18:06:36Z</time>
      </trkpt>
      <trkpt lat="49.37668" lon="-1.29319">
        <ele>31.8</ele>
        <time>2020-06-15T18:06:37Z</time>
      </trkpt>
      <trkpt lat="49.37663" lon="-1.29316">
        <ele>31.9</ele>
        <time>2020-06-15T18:06:38Z</time>
      </trkpt>
      <trkpt lat="49.37658" lon="-1.29311">
        <ele>31.9</ele>
        <time>2020-06-15T18:06:39Z</time>
      </trkpt>
      <trkpt lat="49.37653" lon="-1.29307">
        <ele>32</ele>
        <time>2020-06-15T18:06:40Z</time>
      </trkpt>
      <trkpt lat="49.37648" lon="-1.29302">
        <ele>32</ele>
        <time>2020-06-15T18:06:41Z</time>
      </trkpt>
      <trkpt lat="49.37643" lon="-1.29298">
        <ele>32</ele>
        <time>2020-06-15T18:06:42Z</time>
      </trkpt>
      <trkpt lat="49.37638" lon="-1.29293">
        <ele>32.1</ele>
        <time>2020-06-15T18:06:43Z</time>
      </trkpt>
      <trkpt lat="49.37633" lon="-1.29289">
        <ele>32.1</ele>
        <time>2020-06-15T18:06:44Z</time>
      </trkpt>
      <trkpt lat="49.37628" lon="-1.29285">
        <ele>32.1</ele>
        <time>2020-06-15T18:06:45Z</time>
      </trkpt>
      <trkpt lat="49.37623" lon="-1.29282">
        <ele>32.1</ele>
        <time>2020-06-15T18:06:46Z</time>
      </trkpt>
      <trkpt lat="49.37617" lon="-1.29278">
        <ele>32.1</ele>
        <time>2020-06-15T18:06:47Z</time>
      </trkpt>
      <trkpt lat="49.37612" lon="-1.29275">
        <ele>32.2</ele>
        <time>2020-06-15T18:06:48Z</time>
      </trkpt>
      <trkpt lat="49.37607" lon="-1.29271">
        <ele>32.2</ele>
        <time>2020-06-15T18:06:49Z</time>
      </trkpt>
      <trkpt lat="49.37601" lon="-1.29267">
        <ele>32.2</ele>
        <time>2020-06-15T18:06:50Z</time>
      </trkpt>
      <trkpt lat="49.37596" lon="-1.29262">
        <ele>32.3</ele>
        <time>2020-06-15T18:06:51Z</time>
      </trkpt>
      <trkpt lat="49.37591" lon="-1.29258">
        <ele>32.3</ele>
        <time>2020-06-15T18:06:52Z</time>
      </trkpt>
      <trkpt lat="49.37585" lon="-1.29253">
        <ele>32.4</ele>
        <time>2020-06-15T18:06:53Z</time>
      </trkpt>
      <trkpt lat="49.3758" lon="-1.29249">
        <ele>32.4</ele>
        <time>2020-06-15T18:06:54Z</time>
      </trkpt>
      <trkpt lat="49.37575" lon="-1.29245">
        <ele>32.5</ele>
        <time>2020-06-15T18:06:55Z</time>
      </trkpt>
      <trkpt lat="49.3757" lon="-1.29242">
        <ele>32.5</ele>
        <time>2020-06-15T18:06:56Z</time>
      </trkpt>
      <trkpt lat="49.37566" lon="-1.29239">
        <ele>32.5</ele>
        <time>2020-06-15T18:06:57Z</time>
      </trkpt>
      <trkpt lat="49.37561" lon="-1.29236">
        <ele>32.6</ele>
        <time>2020-06-15T18:06:58Z</time>
      </trkpt>
      <trkpt lat="49.37557" lon="-1.29231">
        <ele>32.6</ele>
        <time>2020-06-15T18:06:59Z</time>
      </trkpt>
      <trkpt lat="49.37553" lon="-1.29227">
        <ele>32.6</ele>
        <time>2020-06-15T18:07:00Z</time>
      </trkpt>
      <trkpt lat="49.37549" lon="-1.29223">
        <ele>32.5</ele>
        <time>2020-06-15T18:07:01Z</time>
      </trkpt>
      <trkpt lat="49.37545" lon="-1.29219">
        <ele>32.5</ele>
        <time>2020-06-15T18:07:02Z</time>
      </trkpt>
      <trkpt lat="49.37541" lon="-1.29215">
        <ele>32.5</ele>
        <time>2020-06-15T18:07:03Z</time>
      </trkpt>
      <trkpt lat="49.37536" lon="-1.29211">
        <ele>32.5</ele>
        <time>2020-06-15T18:07:04Z</time>
      </trkpt>
      <trkpt lat="49.37531" lon="-1.29207">
        <ele>32.4</ele>
        <time>2020-06-15T18:07:05Z</time>
      </trkpt>
      <trkpt lat="49.37527" lon="-1.29203">
        <ele>32.3</ele>
        <time>2020-06-15T18:07:06Z</time>
      </trkpt>
      <trkpt lat="49.37521" lon="-1.29199">
        <ele>32.3</ele>
        <time>2020-06-15T18:07:07Z</time>
      </trkpt>
      <trkpt lat="49.37516" lon="-1.29195">
        <ele>32.2</ele>
        <time>2020-06-15T18:07:08Z</time>
      </trkpt>
      <trkpt lat="49.37512" lon="-1.29191">
        <ele>32.1</ele>
        <time>2020-06-15T18:07:09Z</time>
      </trkpt>
      <trkpt lat="49.37507" lon="-1.29186">
        <ele>32</ele>
        <time>2020-06-15T18:07:10Z</time>
      </trkpt>
      <trkpt lat="49.37502" lon="-1.29181">
        <ele>31.9</ele>
        <time>2020-06-15T18:07:11Z</time>
      </trkpt>
      <trkpt lat="49.37497" lon="-1.29176">
        <ele>31.8</ele>
        <time>2020-06-15T18:07:12Z</time>
      </trkpt>
      <trkpt lat="49.37493" lon="-1.29172">
        <ele>31.7</ele>
        <time>2020-06-15T18:07:13Z</time>
      </trkpt>
      <trkpt lat="49.37489" lon="-1.29167">
        <ele>31.5</ele>
        <time>2020-06-15T18:07:14Z</time>
      </trkpt>
      <trkpt lat="49.37484" lon="-1.29162">
        <ele>31.3</ele>
        <time>2020-06-15T18:07:15Z</time>
      </trkpt>
      <trkpt lat="49.37479" lon="-1.29159">
        <ele>31.1</ele>
        <time>2020-06-15T18:07:16Z</time>
      </trkpt>
      <trkpt lat="49.37475" lon="-1.29154">
        <ele>30.9</ele>
        <time>2020-06-15T18:07:17Z</time>
      </trkpt>
      <trkpt lat="49.3747" lon="-1.2915">
        <ele>30.7</ele>
        <time>2020-06-15T18:07:18Z</time>
      </trkpt>
      <trkpt lat="49.37465" lon="-1.29146">
        <ele>30.5</ele>
        <time>2020-06-15T18:07:19Z</time>
      </trkpt>
      <trkpt lat="49.37459" lon="-1.29142">
        <ele>30.2</ele>
        <time>2020-06-15T18:07:20Z</time>
      </trkpt>
      <trkpt lat="49.37453" lon="-1.29137">
        <ele>29.9</ele>
        <time>2020-06-15T18:07:21Z</time>
      </trkpt>
      <trkpt lat="49.37447" lon="-1.29131">
        <ele>29.6</ele>
        <time>2020-06-15T18:07:22Z</time>
      </trkpt>
      <trkpt lat="49.37441" lon="-1.29126">
        <ele>29.3</ele>
        <time>2020-06-15T18:07:23Z</time>
      </trkpt>
      <trkpt lat="49.37434" lon="-1.29121">
        <ele>29</ele>
        <time>2020-06-15T18:07:24Z</time>
      </trkpt>
      <trkpt lat="49.37428" lon="-1.29116">
        <ele>28.6</ele>
        <time>2020-06-15T18:07:25Z</time>
      </trkpt>
      <trkpt lat="49.37421" lon="-1.2911">
        <ele>28.3</ele>
        <time>2020-06-15T18:07:26Z</time>
      </trkpt>
      <trkpt lat="49.37415" lon="-1.29104">
        <ele>27.9</ele>
        <time>2020-06-15T18:07:27Z</time>
      </trkpt>
      <trkpt lat="49.37408" lon="-1.29099">
        <ele>27.6</ele>
        <time>2020-06-15T18:07:28Z</time>
      </trkpt>
      <trkpt lat="49.37402" lon="-1.29093">
        <ele>27.3</ele>
        <time>2020-06-15T18:07:29Z</time>
      </trkpt>
      <trkpt lat="49.37395" lon="-1.29087">
        <ele>26.9</ele>
        <time>2020-06-15T18:07:30Z</time>
      </trkpt>
      <trkpt lat="49.37389" lon="-1.2908">
        <ele>26.6</ele>
        <time>2020-06-15T18:07:31Z</time>
      </trkpt>
      <trkpt lat="49.37382" lon="-1.29073">
        <ele>26.2</ele>
        <time>2020-06-15T18:07:32Z</time>
      </trkpt>
      <trkpt lat="49.37376" lon="-1.29065">
        <ele>25.8</ele>
        <time>2020-06-15T18:07:33Z</time>
      </trkpt>
      <trkpt lat="49.37369" lon="-1.29057">
        <ele>25.5</ele>
        <time>2020-06-15T18:07:34Z</time>
      </trkpt>
      <trkpt lat="49.37364" lon="-1.29049">
        <ele>25.2</ele>
        <time>2020-06-15T18:07:35Z</time>
      </trkpt>
      <trkpt lat="49.37358" lon="-1.29041">
        <ele>24.9</ele>
        <time>2020-06-15T18:07:36Z</time>
      </trkpt>
      <trkpt lat="49.37352" lon="-1.29032">
        <ele>24.6</ele>
        <time>2020-06-15T18:07:37Z</time>
      </trkpt>
      <trkpt lat="49.37346" lon="-1.29023">
        <ele>24.3</ele>
        <time>2020-06-15T18:07:38Z</time>
      </trkpt>
      <trkpt lat="49.3734" lon="-1.29014">
        <ele>23.9</ele>
        <time>2020-06-15T18:07:39Z</time>
      </trkpt>
      <trkpt lat="49.37334" lon="-1.29005">
        <ele>23.6</ele>
        <time>2020-06-15T18:07:40Z</time>
      </trkpt>
      <trkpt lat="49.37328" lon="-1.28996">
        <ele>23.3</ele>
        <time>2020-06-15T18:07:41Z</time>
      </trkpt>
      <trkpt lat="49.37323" lon="-1.28987">
        <ele>23.1</ele>
        <time>2020-06-15T18:07:42Z</time>
      </trkpt>
      <trkpt lat="49.37318" lon="-1.28977">
        <ele>22.8</ele>
        <time>2020-06-15T18:07:43Z</time>
      </trkpt>
      <trkpt lat="49.37312" lon="-1.28967">
        <ele>22.5</ele>
        <time>2020-06-15T18:07:44Z</time>
      </trkpt>
      <trkpt lat="49.37306" lon="-1.28958">
        <ele>22.3</ele>
        <time>2020-06-15T18:07:45Z</time>
      </trkpt>
      <trkpt lat="49.373" lon="-1.2895">
        <ele>22</ele>
        <time>2020-06-15T18:07:46Z</time>
      </trkpt>
      <trkpt lat="49.37294" lon="-1.28942">
        <ele>21.8</ele>
        <time>2020-06-15T18:07:47Z</time>
      </trkpt>
      <trkpt lat="49.37288" lon="-1.28934">
        <ele>21.5</ele>
        <time>2020-06-15T18:07:48Z</time>
      </trkpt>
      <trkpt lat="49.37282" lon="-1.28926">
        <ele>21.2</ele>
        <time>2020-06-15T18:07:49Z</time>
      </trkpt>
      <trkpt lat="49.37276" lon="-1.28918">
        <ele>21</ele>
        <time>2020-06-15T18:07:50Z</time>
      </trkpt>
      <trkpt lat="49.37269" lon="-1.28911">
        <ele>20.7</ele>
        <time>2020-06-15T18:07:51Z</time>
      </trkpt>
      <trkpt lat="49.37262" lon="-1.28904">
        <ele>20.3</ele>
        <time>2020-06-15T18:07:52Z</time>
      </trkpt>
      <trkpt lat="49.37255" lon="-1.28897">
        <ele>19.9</ele>
        <time>2020-06-15T18:07:53Z</time>
      </trkpt>
      <trkpt lat="49.37249" lon="-1.2889">
        <ele>19.6</ele>
        <time>2020-06-15T18:07:54Z</time>
      </trkpt>
      <trkpt lat="49.37242" lon="-1.28883">
        <ele>19.2</ele>
        <time>2020-06-15T18:07:55Z</time>
      </trkpt>
      <trkpt lat="49.37236" lon="-1.28876">
        <ele>18.9</ele>
        <time>2020-06-15T18:07:56Z</time>
      </trkpt>
      <trkpt lat="49.37229" lon="-1.28868">
        <ele>18.6</ele>
        <time>2020-06-15T18:07:57Z</time>
      </trkpt>
      <trkpt lat="49.37223" lon="-1.28862">
        <ele>18.3</ele>
        <time>2020-06-15T18:07:58Z</time>
      </trkpt>
      <trkpt lat="49.37216" lon="-1.28854">
        <ele>18</ele>
        <time>2020-06-15T18:07:59Z</time>
      </trkpt>
      <trkpt lat="49.3721" lon="-1.28846">
        <ele>17.7</ele>
        <time>2020-06-15T18:08:00Z</time>
      </trkpt>
      <trkpt lat="49.37203" lon="-1.28838">
        <ele>17.3</ele>
        <time>2020-06-15T18:08:01Z</time>
      </trkpt>
      <trkpt lat="49.37197" lon="-1.2883">
        <ele>17</ele>
        <time>2020-06-15T18:08:02Z</time>
      </trkpt>
      <trkpt lat="49.3719" lon="-1.28822">
        <ele>16.7</ele>
        <time>2020-06-15T18:08:03Z</time>
      </trkpt>
      <trkpt lat="49.37184" lon="-1.28814">
        <ele>16.3</ele>
        <time>2020-06-15T18:08:04Z</time>
      </trkpt>
      <trkpt lat="49.37177" lon="-1.28805">
        <ele>15.9</ele>
        <time>2020-06-15T18:08:05Z</time>
      </trkpt>
      <trkpt lat="49.3717" lon="-1.28797">
        <ele>15.4</ele>
        <time>2020-06-15T18:08:06Z</time>
      </trkpt>
      <trkpt lat="49.37164" lon="-1.28789">
        <ele>14.9</ele>
        <time>2020-06-15T18:08:07Z</time>
      </trkpt>
      <trkpt lat="49.37158" lon="-1.2878">
        <ele>14.5</ele>
        <time>2020-06-15T18:08:08Z</time>
      </trkpt>
      <trkpt lat="49.37152" lon="-1.28771">
        <ele>14</ele>
        <time>2020-06-15T18:08:09Z</time>
      </trkpt>
      <trkpt lat="49.37145" lon="-1.28762">
        <ele>13.5</ele>
        <time>2020-06-15T18:08:10Z</time>
      </trkpt>
      <trkpt lat="49.37139" lon="-1.28753">
        <ele>13.1</ele>
        <time>2020-06-15T18:08:11Z</time>
      </trkpt>
      <trkpt lat="49.37133" lon="-1.28744">
        <ele>12.6</ele>
        <time>2020-06-15T18:08:12Z</time>
      </trkpt>
      <trkpt lat="49.37126" lon="-1.28735">
        <ele>12.1</ele>
        <time>2020-06-15T18:08:13Z</time>
      </trkpt>
      <trkpt lat="49.37119" lon="-1.28726">
        <ele>11.7</ele>
        <time>2020-06-15T18:08:14Z</time>
      </trkpt>
      <trkpt lat="49.37112" lon="-1.28717">
        <ele>11.3</ele>
        <time>2020-06-15T18:08:15Z</time>
      </trkpt>
      <trkpt lat="49.37105" lon="-1.28708">
        <ele>10.9</ele>
        <time>2020-06-15T18:08:16Z</time>
      </trkpt>
      <trkpt lat="49.37098" lon="-1.28699">
        <ele>10.7</ele>
        <time>2020-06-15T18:08:17Z</time>
      </trkpt>
      <trkpt lat="49.3709" lon="-1.2869">
        <ele>10.4</ele>
        <time>2020-06-15T18:08:18Z</time>
      </trkpt>
      <trkpt lat="49.37083" lon="-1.28682">
        <ele>10.3</ele>
        <time>2020-06-15T18:08:19Z</time>
      </trkpt>
      <trkpt lat="49.37076" lon="-1.28674">
        <ele>10.2</ele>
        <time>2020-06-15T18:08:20Z</time>
      </trkpt>
      <trkpt lat="49.37069" lon="-1.28666">
        <ele>10.3</ele>
        <time>2020-06-15T18:08:21Z</time>
      </trkpt>
      <trkpt lat="49.37063" lon="-1.28658">
        <ele>10.4</ele>
        <time>2020-06-15T18:08:22Z</time>
      </trkpt>
      <trkpt lat="49.37056" lon="-1.28651">
        <ele>10.5</ele>
        <time>2020-06-15T18:08:23Z</time>
      </trkpt>
      <trkpt lat="49.3705" lon="-1.28643">
        <ele>10.5</ele>
        <time>2020-06-15T18:08:24Z</time>
      </trkpt>
      <trkpt lat="49.37044" lon="-1.28635">
        <ele>10.6</ele>
        <time>2020-06-15T18:08:25Z</time>
      </trkpt>
      <trkpt lat="49.37038" lon="-1.28628">
        <ele>10.7</ele>
        <time>2020-06-15T18:08:26Z</time>
      </trkpt>
      <trkpt lat="49.37032" lon="-1.28621">
        <ele>10.8</ele>
        <time>2020-06-15T18:08:27Z</time>
      </trkpt>
      <trkpt lat="49.37027" lon="-1.28614">
        <ele>10.9</ele>
        <time>2020-06-15T18:08:28Z</time>
      </trkpt>
      <trkpt lat="49.37021" lon="-1.28608">
        <ele>11</ele>
        <time>2020-06-15T18:08:29Z</time>
      </trkpt>
      <trkpt lat="49.37016" lon="-1.28602">
        <ele>11</ele>
        <time>2020-06-15T18:08:30Z</time>
      </trkpt>
      <trkpt lat="49.37011" lon="-1.28594">
        <ele>11</ele>
        <time>2020-06-15T18:08:31Z</time>
      </trkpt>
      <trkpt lat="49.37006" lon="-1.28587">
        <ele>11.1</ele>
        <time>2020-06-15T18:08:32Z</time>
      </trkpt>
      <trkpt lat="49.37002" lon="-1.2858">
        <ele>11.1</ele>
        <time>2020-06-15T18:08:33Z</time>
      </trkpt>
      <trkpt lat="49.36997" lon="-1.28574">
        <ele>11.1</ele>
        <time>2020-06-15T18:08:34Z</time>
      </trkpt>
      <trkpt lat="49.36992" lon="-1.28568">
        <ele>11</ele>
        <time>2020-06-15T18:08:35Z</time>
      </trkpt>
      <trkpt lat="49.36988" lon="-1.28562">
        <ele>11</ele>
        <time>2020-06-15T18:08:36Z</time>
      </trkpt>
      <trkpt lat="49.36984" lon="-1.28557">
        <ele>11</ele>
        <time>2020-06-15T18:08:37Z</time>
      </trkpt>
      <trkpt lat="49.3698" lon="-1.28552">
        <ele>11</ele>
        <time>2020-06-15T18:08:38Z</time>
      </trkpt>
      <trkpt lat="49.36975" lon="-1.28547">
        <ele>10.9</ele>
        <time>2020-06-15T18:08:39Z</time>
      </trkpt>
      <trkpt lat="49.36971" lon="-1.28541">
        <ele>10.9</ele>
        <time>2020-06-15T18:08:40Z</time>
      </trkpt>
      <trkpt lat="49.36966" lon="-1.28535">
        <ele>10.9</ele>
        <time>2020-06-15T18:08:41Z</time>
      </trkpt>
      <trkpt lat="49.36961" lon="-1.2853">
        <ele>10.9</ele>
        <time>2020-06-15T18:08:42Z</time>
      </trkpt>
      <trkpt lat="49.36957" lon="-1.28524">
        <ele>10.9</ele>
        <time>2020-06-15T18:08:43Z</time>
      </trkpt>
      <trkpt lat="49.36953" lon="-1.28518">
        <ele>10.8</ele>
        <time>2020-06-15T18:08:44Z</time>
      </trkpt>
      <trkpt lat="49.36949" lon="-1.28514">
        <ele>10.8</ele>
        <time>2020-06-15T18:08:45Z</time>
      </trkpt>
      <trkpt lat="49.36944" lon="-1.28508">
        <ele>10.8</ele>
        <time>2020-06-15T18:08:46Z</time>
      </trkpt>
      <trkpt lat="49.3694" lon="-1.28503">
        <ele>10.7</ele>
        <time>2020-06-15T18:08:47Z</time>
      </trkpt>
      <trkpt lat="49.36936" lon="-1.28497">
        <ele>10.7</ele>
        <time>2020-06-15T18:08:48Z</time>
      </trkpt>
      <trkpt lat="49.36932" lon="-1.28492">
        <ele>10.6</ele>
        <time>2020-06-15T18:08:49Z</time>
      </trkpt>
      <trkpt lat="49.36928" lon="-1.28486">
        <ele>10.5</ele>
        <time>2020-06-15T18:08:50Z</time>
      </trkpt>
      <trkpt lat="49.36923" lon="-1.28481">
        <ele>10.5</ele>
        <time>2020-06-15T18:08:51Z</time>
      </trkpt>
      <trkpt lat="49.3692" lon="-1.28476">
        <ele>10.4</ele>
        <time>2020-06-15T18:08:52Z</time>
      </trkpt>
      <trkpt lat="49.36916" lon="-1.2847">
        <ele>10.4</ele>
        <time>2020-06-15T18:08:53Z</time>
      </trkpt>
      <trkpt lat="49.36912" lon="-1.28464">
        <ele>10.3</ele>
        <time>2020-06-15T18:08:54Z</time>
      </trkpt>
      <trkpt lat="49.36908" lon="-1.28459">
        <ele>10.2</ele>
        <time>2020-06-15T18:08:55Z</time>
      </trkpt>
      <trkpt lat="49.36903" lon="-1.28453">
        <ele>10.2</ele>
        <time>2020-06-15T18:08:56Z</time>
      </trkpt>
      <trkpt lat="49.36899" lon="-1.28448">
        <ele>10.1</ele>
        <time>2020-06-15T18:08:57Z</time>
      </trkpt>
      <trkpt lat="49.36896" lon="-1.28443">
        <ele>10.1</ele>
        <time>2020-06-15T18:08:58Z</time>
      </trkpt>
      <trkpt lat="49.36892" lon="-1.28437">
        <ele>10.1</ele>
        <time>2020-06-15T18:08:59Z</time>
      </trkpt>
      <trkpt lat="49.36889" lon="-1.28432">
        <ele>10</ele>
        <time>2020-06-15T18:09:00Z</time>
      </trkpt>
      <trkpt lat="49.36885" lon="-1.28428">
        <ele>10</ele>
        <time>2020-06-15T18:09:01Z</time>
      </trkpt>
      <trkpt lat="49.36881" lon="-1.28423">
        <ele>10</ele>
        <time>2020-06-15T18:09:02Z</time>
      </trkpt>
      <trkpt lat="49.36878" lon="-1.28418">
        <ele>9.9</ele>
        <time>2020-06-15T18:09:03Z</time>
      </trkpt>
      <trkpt lat="49.36873" lon="-1.28413">
        <ele>9.9</ele>
        <time>2020-06-15T18:09:04Z</time>
      </trkpt>
      <trkpt lat="49.3687" lon="-1.28409">
        <ele>9.9</ele>
        <time>2020-06-15T18:09:05Z</time>
      </trkpt>
      <trkpt lat="49.36867" lon="-1.28406">
        <ele>9.9</ele>
        <time>2020-06-15T18:09:06Z</time>
      </trkpt>
      <trkpt lat="49.36863" lon="-1.28401">
        <ele>9.8</ele>
        <time>2020-06-15T18:09:07Z</time>
      </trkpt>
      <trkpt lat="49.36858" lon="-1.28395">
        <ele>9.8</ele>
        <time>2020-06-15T18:09:08Z</time>
      </trkpt>
      <trkpt lat="49.36855" lon="-1.28391">
        <ele>9.8</ele>
        <time>2020-06-15T18:09:09Z</time>
      </trkpt>
      <trkpt lat="49.36851" lon="-1.28387">
        <ele>9.8</ele>
        <time>2020-06-15T18:09:10Z</time>
      </trkpt>
      <trkpt lat="49.36847" lon="-1.28381">
        <ele>9.9</ele>
        <time>2020-06-15T18:09:11Z</time>
      </trkpt>
      <trkpt lat="49.36843" lon="-1.28377">
        <ele>9.9</ele>
        <time>2020-06-15T18:09:12Z</time>
      </trkpt>
      <trkpt lat="49.36839" lon="-1.28373">
        <ele>9.9</ele>
        <time>2020-06-15T18:09:13Z</time>
      </trkpt>
      <trkpt lat="49.36835" lon="-1.28368">
        <ele>10</ele>
        <time>2020-06-15T18:09:14Z</time>
      </trkpt>
      <trkpt lat="49.3683" lon="-1.28362">
        <ele>10</ele>
        <time>2020-06-15T18:09:15Z</time>
      </trkpt>
      <trkpt lat="49.36826" lon="-1.28357">
        <ele>10.1</ele>
        <time>2020-06-15T18:09:16Z</time>
      </trkpt>
      <trkpt lat="49.36822" lon="-1.28352">
        <ele>10.1</ele>
        <time>2020-06-15T18:09:17Z</time>
      </trkpt>
      <trkpt lat="49.36817" lon="-1.28347">
        <ele>10.2</ele>
        <time>2020-06-15T18:09:18Z</time>
      </trkpt>
      <trkpt lat="49.36814" lon="-1.28342">
        <ele>10.2</ele>
        <time>2020-06-15T18:09:19Z</time>
      </trkpt>
      <trkpt lat="49.36811" lon="-1.28338">
        <ele>10.3</ele>
        <time>2020-06-15T18:09:20Z</time>
      </trkpt>
      <trkpt lat="49.36807" lon="-1.28334">
        <ele>10.3</ele>
        <time>2020-06-15T18:09:21Z</time>
      </trkpt>
      <trkpt lat="49.36805" lon="-1.2833">
        <ele>10.4</ele>
        <time>2020-06-15T18:09:22Z</time>
      </trkpt>
      <trkpt lat="49.36803" lon="-1.28326">
        <ele>10.4</ele>
        <time>2020-06-15T18:09:23Z</time>
      </trkpt>
      <trkpt lat="49.36802" lon="-1.28322">
        <ele>10.4</ele>
        <time>2020-06-15T18:09:24Z</time>
      </trkpt>
      <trkpt lat="49.36802" lon="-1.28321">
        <ele>10.4</ele>
        <time>2020-06-15T18:09:25Z</time>
      </trkpt>
      <trkpt lat="49.36804" lon="-1.28321">
        <ele>10.4</ele>
        <time>2020-06-15T18:09:26Z</time>
      </trkpt>
      <trkpt lat="49.36805" lon="-1.28322">
        <ele>10.3</ele>
        <time>2020-06-15T18:09:27Z</time>
      </trkpt>
      <trkpt lat="49.36806" lon="-1.28322">
        <ele>10.3</ele>
        <time>2020-06-15T18:09:28Z</time>
      </trkpt>
      <trkpt lat="49.3681" lon="-1.28325">
        <ele>10.3</ele>
        <time>2020-06-15T18:09:29Z</time>
      </trkpt>
      <trkpt lat="49.36811" lon="-1.28326">
        <ele>10.3</ele>
        <time>2020-06-15T18:09:30Z</time>
      </trkpt>
      <trkpt lat="49.36813" lon="-1.28329">
        <ele>10.3</ele>
        <time>2020-06-15T18:09:31Z</time>
      </trkpt>
      <trkpt lat="49.36816" lon="-1.28332">
        <ele>10.3</ele>
        <time>2020-06-15T18:09:32Z</time>
      </trkpt>
      <trkpt lat="49.36817" lon="-1.28334">
        <ele>10.3</ele>
        <time>2020-06-15T18:09:33Z</time>
      </trkpt>
      <trkpt lat="49.36819" lon="-1.28337">
        <ele>10.3</ele>
        <time>2020-06-15T18:09:34Z</time>
      </trkpt>
      <trkpt lat="49.3682" lon="-1.28339">
        <ele>10.3</ele>
        <time>2020-06-15T18:09:35Z</time>
      </trkpt>
      <trkpt lat="49.36823" lon="-1.28341">
        <ele>10.3</ele>
        <time>2020-06-15T18:09:36Z</time>
      </trkpt>
      <trkpt lat="49.36823" lon="-1.28342">
        <ele>10.3</ele>
        <time>2020-06-15T18:09:37Z</time>
      </trkpt>
      <trkpt lat="49.36824" lon="-1.28344">
        <ele>10.3</ele>
        <time>2020-06-15T18:09:38Z</time>
      </trkpt>
      <trkpt lat="49.36826" lon="-1.28346">
        <ele>10.3</ele>
        <time>2020-06-15T18:09:39Z</time>
      </trkpt>
      <trkpt lat="49.36826" lon="-1.28348">
        <ele>10.3</ele>
        <time>2020-06-15T18:09:40Z</time>
      </trkpt>
      <trkpt lat="49.36827" lon="-1.28351">
        <ele>10.2</ele>
        <time>2020-06-15T18:09:41Z</time>
      </trkpt>
      <trkpt lat="49.36827" lon="-1.28353">
        <ele>10.2</ele>
        <time>2020-06-15T18:09:42Z</time>
      </trkpt>
      <trkpt lat="49.36827" lon="-1.28356">
        <ele>10.2</ele>
        <time>2020-06-15T18:09:43Z</time>
      </trkpt>
      <trkpt lat="49.36828" lon="-1.28358">
        <ele>10.2</ele>
        <time>2020-06-15T18:09:44Z</time>
      </trkpt>
      <trkpt lat="49.36829" lon="-1.2836">
        <ele>10.2</ele>
        <time>2020-06-15T18:09:45Z</time>
      </trkpt>
      <trkpt lat="49.36831" lon="-1.28364">
        <ele>10.2</ele>
        <time>2020-06-15T18:09:46Z</time>
      </trkpt>
      <trkpt lat="49.36831" lon="-1.28366">
        <ele>10.2</ele>
        <time>2020-06-15T18:09:47Z</time>
      </trkpt>
      <trkpt lat="49.36833" lon="-1.2837">
        <ele>10.2</ele>
        <time>2020-06-15T18:09:48Z</time>
      </trkpt>
      <trkpt lat="49.36833" lon="-1.28371">
        <ele>10.2</ele>
        <time>2020-06-15T18:09:49Z</time>
      </trkpt>
      <trkpt lat="49.36834" lon="-1.28372">
        <ele>10.2</ele>
        <time>2020-06-15T18:09:50Z</time>
      </trkpt>
      <trkpt lat="49.36833" lon="-1.28373">
        <ele>10.2</ele>
        <time>2020-06-15T18:09:51Z</time>
      </trkpt>
      <trkpt lat="49.36834" lon="-1.28372">
        <ele>10.2</ele>
        <time>2020-06-15T18:09:52Z</time>
      </trkpt>
      <trkpt lat="49.36834" lon="-1.28372">
        <ele>10.2</ele>
        <time>2020-06-15T18:09:53Z</time>
      </trkpt>
      <trkpt lat="49.36835" lon="-1.28372">
        <ele>10.2</ele>
        <time>2020-06-15T18:09:54Z</time>
      </trkpt>
      <trkpt lat="49.36835" lon="-1.28372">
        <ele>10.2</ele>
        <time>2020-06-15T18:09:55Z</time>
      </trkpt>
      <trkpt lat="49.36836" lon="-1.28372">
        <ele>10.2</ele>
        <time>2020-06-15T18:09:56Z</time>
      </trkpt>
      <trkpt lat="49.36836" lon="-1.28372">
        <ele>10.2</ele>
        <time>2020-06-15T18:09:57Z</time>
      </trkpt>
      <trkpt lat="49.36836" lon="-1.28372">
        <ele>10.2</ele>
        <time>2020-06-15T18:09:58Z</time>
      </trkpt>
      <trkpt lat="49.36836" lon="-1.28372">
        <ele>10.2</ele>
        <time>2020-06-15T18:09:59Z</time>
      </trkpt>
      <trkpt lat="49.36836" lon="-1.28372">
        <ele>10.2</ele>
        <time>2020-06-15T18:10:00Z</time>
      </trkpt>
      <trkpt lat="49.36836" lon="-1.28373">
        <ele>10.2</ele>
        <time>2020-06-15T18:10:01Z</time>
      </trkpt>
      <trkpt lat="49.36836" lon="-1.28373">
        <ele>10.2</ele>
        <time>2020-06-15T18:10:02Z</time>
      </trkpt>
      <trkpt lat="49.36836" lon="-1.28386">
        <ele>10.1</ele>
        <time>2020-06-15T18:14:20Z</time>
      </trkpt>
      <trkpt lat="49.36837" lon="-1.28387">
        <ele>10.1</ele>
        <time>2020-06-15T18:14:21Z</time>
      </trkpt>
      <trkpt lat="49.36838" lon="-1.28388">
        <ele>10.1</ele>
        <time>2020-06-15T18:14:22Z</time>
      </trkpt>
      <trkpt lat="49.36838" lon="-1.28389">
        <ele>10.1</ele>
        <time>2020-06-15T18:14:23Z</time>
      </trkpt>
      <trkpt lat="49.36838" lon="-1.28391">
        <ele>10.1</ele>
        <time>2020-06-15T18:14:24Z</time>
      </trkpt>
      <trkpt lat="49.36837" lon="-1.28392">
        <ele>10.1</ele>
        <time>2020-06-15T18:14:25Z</time>
      </trkpt>
      <trkpt lat="49.36836" lon="-1.28393">
        <ele>10.1</ele>
        <time>2020-06-15T18:14:26Z</time>
      </trkpt>
      <trkpt lat="49.36835" lon="-1.28395">
        <ele>10.1</ele>
        <time>2020-06-15T18:14:27Z</time>
      </trkpt>
      <trkpt lat="49.36833" lon="-1.28396">
        <ele>10.1</ele>
        <time>2020-06-15T18:14:28Z</time>
      </trkpt>
      <trkpt lat="49.36832" lon="-1.28398">
        <ele>10.1</ele>
        <time>2020-06-15T18:14:29Z</time>
      </trkpt>
      <trkpt lat="49.36831" lon="-1.284">
        <ele>10.1</ele>
        <time>2020-06-15T18:14:30Z</time>
      </trkpt>
      <trkpt lat="49.36829" lon="-1.28401">
        <ele>10.1</ele>
        <time>2020-06-15T18:14:31Z</time>
      </trkpt>
      <trkpt lat="49.36828" lon="-1.28402">
        <ele>10.1</ele>
        <time>2020-06-15T18:14:32Z</time>
      </trkpt>
      <trkpt lat="49.36827" lon="-1.28403">
        <ele>10.1</ele>
        <time>2020-06-15T18:14:33Z</time>
      </trkpt>
      <trkpt lat="49.36826" lon="-1.28405">
        <ele>10.1</ele>
        <time>2020-06-15T18:14:34Z</time>
      </trkpt>
      <trkpt lat="49.36826" lon="-1.28406">
        <ele>10.1</ele>
        <time>2020-06-15T18:14:35Z</time>
      </trkpt>
      <trkpt lat="49.36825" lon="-1.28408">
        <ele>10.1</ele>
        <time>2020-06-15T18:14:36Z</time>
      </trkpt>
      <trkpt lat="49.36825" lon="-1.28409">
        <ele>10.1</ele>
        <time>2020-06-15T18:14:37Z</time>
      </trkpt>
      <trkpt lat="49.36824" lon="-1.2841">
        <ele>10</ele>
        <time>2020-06-15T18:14:38Z</time>
      </trkpt>
      <trkpt lat="49.36824" lon="-1.28411">
        <ele>10</ele>
        <time>2020-06-15T18:14:39Z</time>
      </trkpt>
      <trkpt lat="49.36822" lon="-1.28413">
        <ele>10</ele>
        <time>2020-06-15T18:14:40Z</time>
      </trkpt>
      <trkpt lat="49.36822" lon="-1.28414">
        <ele>10</ele>
        <time>2020-06-15T18:14:41Z</time>
      </trkpt>
      <trkpt lat="49.36821" lon="-1.28415">
        <ele>10</ele>
        <time>2020-06-15T18:14:42Z</time>
      </trkpt>
      <trkpt lat="49.3682" lon="-1.28418">
        <ele>10</ele>
        <time>2020-06-15T18:14:43Z</time>
      </trkpt>
      <trkpt lat="49.3682" lon="-1.28419">
        <ele>10</ele>
        <time>2020-06-15T18:14:44Z</time>
      </trkpt>
      <trkpt lat="49.36819" lon="-1.28421">
        <ele>10</ele>
        <time>2020-06-15T18:14:45Z</time>
      </trkpt>
      <trkpt lat="49.36818" lon="-1.28423">
        <ele>10</ele>
        <time>2020-06-15T18:14:46Z</time>
      </trkpt>
      <trkpt lat="49.36817" lon="-1.28425">
        <ele>10</ele>
        <time>2020-06-15T18:14:47Z</time>
      </trkpt>
      <trkpt lat="49.36817" lon="-1.28426">
        <ele>10</ele>
        <time>2020-06-15T18:14:48Z</time>
      </trkpt>
      <trkpt lat="49.36816" lon="-1.28427">
        <ele>10</ele>
        <time>2020-06-15T18:14:49Z</time>
      </trkpt>
      <trkpt lat="49.36816" lon="-1.28427">
        <ele>10</ele>
        <time>2020-06-15T18:14:50Z</time>
      </trkpt>
      <trkpt lat="49.36815" lon="-1.28426">
        <ele>10</ele>
        <time>2020-06-15T18:14:51Z</time>
      </trkpt>
      <trkpt lat="49.36815" lon="-1.28426">
        <ele>10</ele>
        <time>2020-06-15T18:14:52Z</time>
      </trkpt>
      <trkpt lat="49.36815" lon="-1.28426">
        <ele>10</ele>
        <time>2020-06-15T18:14:53Z</time>
      </trkpt>
      <trkpt lat="49.36815" lon="-1.28426">
        <ele>10</ele>
        <time>2020-06-15T18:14:54Z</time>
      </trkpt>
      <trkpt lat="49.36815" lon="-1.28426">
        <ele>10</ele>
        <time>2020-06-15T18:14:55Z</time>
      </trkpt>
      <trkpt lat="49.36815" lon="-1.28426">
        <ele>10</ele>
        <time>2020-06-15T18:14:56Z</time>
      </trkpt>
      <trkpt lat="49.36814" lon="-1.28426">
        <ele>10</ele>
        <time>2020-06-15T18:14:57Z</time>
      </trkpt>
      <trkpt lat="49.36814" lon="-1.28426">
        <ele>10</ele>
        <time>2020-06-15T18:14:58Z</time>
      </trkpt>
      <trkpt lat="49.36813" lon="-1.28427">
        <ele>10</ele>
        <time>2020-06-15T18:14:59Z</time>
      </trkpt>
      <trkpt lat="49.36814" lon="-1.2843">
        <ele>10</ele>
        <time>2020-06-15T18:16:28Z</time>
      </trkpt>
      <trkpt lat="49.36815" lon="-1.2843">
        <ele>10</ele>
        <time>2020-06-15T18:16:29Z</time>
      </trkpt>
      <trkpt lat="49.36815" lon="-1.2843">
        <ele>10</ele>
        <time>2020-06-15T18:16:30Z</time>
      </trkpt>
      <trkpt lat="49.36816" lon="-1.2843">
        <ele>10</ele>
        <time>2020-06-15T18:16:31Z</time>
      </trkpt>
      <trkpt lat="49.36816" lon="-1.2843">
        <ele>10</ele>
        <time>2020-06-15T18:16:32Z</time>
      </trkpt>
      <trkpt lat="49.36816" lon="-1.2843">
        <ele>10</ele>
        <time>2020-06-15T18:16:33Z</time>
      </trkpt>
      <trkpt lat="49.36816" lon="-1.2843">
        <ele>10</ele>
        <time>2020-06-15T18:16:34Z</time>
      </trkpt>
      <trkpt lat="49.36816" lon="-1.28429">
        <ele>10</ele>
        <time>2020-06-15T18:16:35Z</time>
      </trkpt>
      <trkpt lat="49.36817" lon="-1.2843">
        <ele>10</ele>
        <time>2020-06-15T18:16:36Z</time>
      </trkpt>
      <trkpt lat="49.36817" lon="-1.2843">
        <ele>10</ele>
        <time>2020-06-15T18:16:37Z</time>
      </trkpt>
      <trkpt lat="49.36816" lon="-1.2843">
        <ele>10</ele>
        <time>2020-06-15T18:16:38Z</time>
      </trkpt>
      <trkpt lat="49.36817" lon="-1.28431">
        <ele>10</ele>
        <time>2020-06-15T18:16:39Z</time>
      </trkpt>
      <trkpt lat="49.36807" lon="-1.28428">
        <ele>10</ele>
        <time>2020-06-15T18:17:15Z</time>
      </trkpt>
      <trkpt lat="49.36806" lon="-1.2843">
        <ele>10</ele>
        <time>2020-06-15T18:17:16Z</time>
      </trkpt>
      <trkpt lat="49.36805" lon="-1.28431">
        <ele>10</ele>
        <time>2020-06-15T18:17:17Z</time>
      </trkpt>
      <trkpt lat="49.36805" lon="-1.28433">
        <ele>10</ele>
        <time>2020-06-15T18:17:18Z</time>
      </trkpt>
      <trkpt lat="49.36805" lon="-1.28433">
        <ele>10</ele>
        <time>2020-06-15T18:17:19Z</time>
      </trkpt>
      <trkpt lat="49.36805" lon="-1.28433">
        <ele>9.9</ele>
        <time>2020-06-15T18:17:20Z</time>
      </trkpt>
      <trkpt lat="49.36805" lon="-1.28434">
        <ele>9.9</ele>
        <time>2020-06-15T18:17:21Z</time>
      </trkpt>
      <trkpt lat="49.36804" lon="-1.28436">
        <ele>9.9</ele>
        <time>2020-06-15T18:17:22Z</time>
      </trkpt>
      <trkpt lat="49.36804" lon="-1.28438">
        <ele>9.9</ele>
        <time>2020-06-15T18:17:23Z</time>
      </trkpt>
      <trkpt lat="49.36804" lon="-1.28439">
        <ele>9.9</ele>
        <time>2020-06-15T18:17:24Z</time>
      </trkpt>
      <trkpt lat="49.36804" lon="-1.28441">
        <ele>9.9</ele>
        <time>2020-06-15T18:17:25Z</time>
      </trkpt>
      <trkpt lat="49.36803" lon="-1.28442">
        <ele>9.9</ele>
        <time>2020-06-15T18:17:26Z</time>
      </trkpt>
      <trkpt lat="49.36802" lon="-1.28443">
        <ele>9.9</ele>
        <time>2020-06-15T18:17:27Z</time>
      </trkpt>
      <trkpt lat="49.36802" lon="-1.28444">
        <ele>9.9</ele>
        <time>2020-06-15T18:17:28Z</time>
      </trkpt>
      <trkpt lat="49.36801" lon="-1.28445">
        <ele>9.9</ele>
        <time>2020-06-15T18:17:29Z</time>
      </trkpt>
      <trkpt lat="49.368" lon="-1.28446">
        <ele>9.9</ele>
        <time>2020-06-15T18:17:30Z</time>
      </trkpt>
      <trkpt lat="49.36799" lon="-1.28446">
        <ele>9.9</ele>
        <time>2020-06-15T18:17:31Z</time>
      </trkpt>
      <trkpt lat="49.36799" lon="-1.28447">
        <ele>9.9</ele>
        <time>2020-06-15T18:17:32Z</time>
      </trkpt>
      <trkpt lat="49.36799" lon="-1.28448">
        <ele>9.9</ele>
        <time>2020-06-15T18:17:33Z</time>
      </trkpt>
      <trkpt lat="49.36799" lon="-1.28448">
        <ele>9.9</ele>
        <time>2020-06-15T18:17:34Z</time>
      </trkpt>
      <trkpt lat="49.36799" lon="-1.28448">
        <ele>9.9</ele>
        <time>2020-06-15T18:17:35Z</time>
      </trkpt>
      <trkpt lat="49.36799" lon="-1.28449">
        <ele>9.9</ele>
        <time>2020-06-15T18:17:36Z</time>
      </trkpt>
      <trkpt lat="49.36799" lon="-1.28449">
        <ele>9.9</ele>
        <time>2020-06-15T18:17:37Z</time>
      </trkpt>
      <trkpt lat="49.36799" lon="-1.28449">
        <ele>9.9</ele>
        <time>2020-06-15T18:17:38Z</time>
      </trkpt>
      <trkpt lat="49.36799" lon="-1.28449">
        <ele>9.9</ele>
        <time>2020-06-15T18:17:39Z</time>
      </trkpt>
      <trkpt lat="49.36799" lon="-1.28449">
        <ele>9.9</ele>
        <time>2020-06-15T18:17:40Z</time>
      </trkpt>
      <trkpt lat="49.36798" lon="-1.28449">
        <ele>9.9</ele>
        <time>2020-06-15T18:17:41Z</time>
      </trkpt>
      <trkpt lat="49.36798" lon="-1.28449">
        <ele>9.9</ele>
        <time>2020-06-15T18:17:42Z</time>
      </trkpt>
      <trkpt lat="49.36798" lon="-1.28449">
        <ele>9.9</ele>
        <time>2020-06-15T18:17:43Z</time>
      </trkpt>
      <trkpt lat="49.36798" lon="-1.2845">
        <ele>9.9</ele>
        <time>2020-06-15T18:17:44Z</time>
      </trkpt>
    </trkseg>
  </trk>
  <trk>
    <name><![CDATA[T18]]></name>
    <trkseg>
      <trkpt lat="50.51669" lon="1.5844">
        <ele>12.3</ele>
        <time>2020-06-22T07:27:21Z</time>
      </trkpt>
      <trkpt lat="50.51669" lon="1.5844">
        <ele>12.3</ele>
        <time>2020-06-22T07:27:22Z</time>
      </trkpt>
      <trkpt lat="50.51668" lon="1.5844">
        <ele>12.3</ele>
        <time>2020-06-22T07:27:23Z</time>
      </trkpt>
      <trkpt lat="50.51668" lon="1.5844">
        <ele>12.3</ele>
        <time>2020-06-22T07:27:24Z</time>
      </trkpt>
      <trkpt lat="50.51667" lon="1.58441">
        <ele>12.3</ele>
        <time>2020-06-22T07:27:25Z</time>
      </trkpt>
      <trkpt lat="50.51665" lon="1.58442">
        <ele>12.2</ele>
        <time>2020-06-22T07:27:26Z</time>
      </trkpt>
      <trkpt lat="50.51664" lon="1.58445">
        <ele>12.2</ele>
        <time>2020-06-22T07:27:27Z</time>
      </trkpt>
      <trkpt lat="50.51663" lon="1.58447">
        <ele>12.2</ele>
        <time>2020-06-22T07:27:28Z</time>
      </trkpt>
      <trkpt lat="50.51663" lon="1.58451">
        <ele>12.2</ele>
        <time>2020-06-22T07:27:29Z</time>
      </trkpt>
      <trkpt lat="50.51662" lon="1.58454">
        <ele>12.1</ele>
        <time>2020-06-22T07:27:31Z</time>
      </trkpt>
      <trkpt lat="50.51661" lon="1.5846">
        <ele>12.1</ele>
        <time>2020-06-22T07:27:32Z</time>
      </trkpt>
      <trkpt lat="50.5166" lon="1.58463">
        <ele>12.1</ele>
        <time>2020-06-22T07:27:33Z</time>
      </trkpt>
      <trkpt lat="50.5166" lon="1.58468">
        <ele>12.1</ele>
        <time>2020-06-22T07:27:34Z</time>
      </trkpt>
      <trkpt lat="50.51659" lon="1.58472">
        <ele>12</ele>
        <time>2020-06-22T07:27:35Z</time>
      </trkpt>
      <trkpt lat="50.51659" lon="1.58478">
        <ele>12</ele>
        <time>2020-06-22T07:27:36Z</time>
      </trkpt>
      <trkpt lat="50.51658" lon="1.58483">
        <ele>12</ele>
        <time>2020-06-22T07:27:37Z</time>
      </trkpt>
      <trkpt lat="50.51657" lon="1.5849">
        <ele>12</ele>
        <time>2020-06-22T07:27:38Z</time>
      </trkpt>
      <trkpt lat="50.51657" lon="1.58496">
        <ele>12</ele>
        <time>2020-06-22T07:27:39Z</time>
      </trkpt>
      <trkpt lat="50.51655" lon="1.585">
        <ele>12</ele>
        <time>2020-06-22T07:27:40Z</time>
      </trkpt>
      <trkpt lat="50.51653" lon="1.58505">
        <ele>12</ele>
        <time>2020-06-22T07:27:41Z</time>
      </trkpt>
      <trkpt lat="50.51646" lon="1.58512">
        <ele>12.3</ele>
        <time>2020-06-22T07:27:42Z</time>
      </trkpt>
      <trkpt lat="50.51643" lon="1.58517">
        <ele>12.4</ele>
        <time>2020-06-22T07:27:43Z</time>
      </trkpt>
      <trkpt lat="50.5164" lon="1.58523">
        <ele>12.5</ele>
        <time>2020-06-22T07:27:44Z</time>
      </trkpt>
      <trkpt lat="50.51638" lon="1.5853">
        <ele>12.6</ele>
        <time>2020-06-22T07:27:45Z</time>
      </trkpt>
      <trkpt lat="50.51636" lon="1.58535">
        <ele>12.6</ele>
        <time>2020-06-22T07:27:46Z</time>
      </trkpt>
      <trkpt lat="50.51635" lon="1.58542">
        <ele>12</ele>
        <time>2020-06-22T07:27:47Z</time>
      </trkpt>
      <trkpt lat="50.51633" lon="1.58548">
        <ele>12</ele>
        <time>2020-06-22T07:27:48Z</time>
      </trkpt>
      <trkpt lat="50.51629" lon="1.58553">
        <ele>11.9</ele>
        <time>2020-06-22T07:27:49Z</time>
      </trkpt>
      <trkpt lat="50.51625" lon="1.58556">
        <ele>11.8</ele>
        <time>2020-06-22T07:27:50Z</time>
      </trkpt>
      <trkpt lat="50.51621" lon="1.5856">
        <ele>11.8</ele>
        <time>2020-06-22T07:27:51Z</time>
      </trkpt>
      <trkpt lat="50.51617" lon="1.58565">
        <ele>11.7</ele>
        <time>2020-06-22T07:27:52Z</time>
      </trkpt>
      <trkpt lat="50.51612" lon="1.58569">
        <ele>11.7</ele>
        <time>2020-06-22T07:27:53Z</time>
      </trkpt>
      <trkpt lat="50.51608" lon="1.58573">
        <ele>11.7</ele>
        <time>2020-06-22T07:27:54Z</time>
      </trkpt>
      <trkpt lat="50.51603" lon="1.58577">
        <ele>11.6</ele>
        <time>2020-06-22T07:27:55Z</time>
      </trkpt>
      <trkpt lat="50.51598" lon="1.58581">
        <ele>11.6</ele>
        <time>2020-06-22T07:27:56Z</time>
      </trkpt>
      <trkpt lat="50.51594" lon="1.58587">
        <ele>11.6</ele>
        <time>2020-06-22T07:27:57Z</time>
      </trkpt>
      <trkpt lat="50.51589" lon="1.58591">
        <ele>11.6</ele>
        <time>2020-06-22T07:27:58Z</time>
      </trkpt>
      <trkpt lat="50.51584" lon="1.58596">
        <ele>11.5</ele>
        <time>2020-06-22T07:27:59Z</time>
      </trkpt>
      <trkpt lat="50.51579" lon="1.586">
        <ele>11.5</ele>
        <time>2020-06-22T07:28:00Z</time>
      </trkpt>
      <trkpt lat="50.51573" lon="1.58605">
        <ele>11.5</ele>
        <time>2020-06-22T07:28:01Z</time>
      </trkpt>
      <trkpt lat="50.51568" lon="1.5861">
        <ele>11.5</ele>
        <time>2020-06-22T07:28:02Z</time>
      </trkpt>
      <trkpt lat="50.51563" lon="1.58614">
        <ele>11.5</ele>
        <time>2020-06-22T07:28:03Z</time>
      </trkpt>
      <trkpt lat="50.51557" lon="1.58618">
        <ele>11.5</ele>
        <time>2020-06-22T07:28:04Z</time>
      </trkpt>
      <trkpt lat="50.51552" lon="1.58623">
        <ele>11.5</ele>
        <time>2020-06-22T07:28:05Z</time>
      </trkpt>
      <trkpt lat="50.51546" lon="1.58627">
        <ele>11.5</ele>
        <time>2020-06-22T07:28:06Z</time>
      </trkpt>
      <trkpt lat="50.5154" lon="1.58631">
        <ele>11.5</ele>
        <time>2020-06-22T07:28:07Z</time>
      </trkpt>
      <trkpt lat="50.51535" lon="1.58634">
        <ele>11.6</ele>
        <time>2020-06-22T07:28:08Z</time>
      </trkpt>
      <trkpt lat="50.51529" lon="1.58637">
        <ele>11.6</ele>
        <time>2020-06-22T07:28:09Z</time>
      </trkpt>
      <trkpt lat="50.51523" lon="1.5864">
        <ele>11.7</ele>
        <time>2020-06-22T07:28:10Z</time>
      </trkpt>
      <trkpt lat="50.51518" lon="1.58643">
        <ele>11.7</ele>
        <time>2020-06-22T07:28:11Z</time>
      </trkpt>
      <trkpt lat="50.51511" lon="1.58646">
        <ele>11.8</ele>
        <time>2020-06-22T07:28:12Z</time>
      </trkpt>
      <trkpt lat="50.51504" lon="1.58648">
        <ele>11.9</ele>
        <time>2020-06-22T07:28:13Z</time>
      </trkpt>
      <trkpt lat="50.51499" lon="1.58651">
        <ele>11.9</ele>
        <time>2020-06-22T07:28:14Z</time>
      </trkpt>
      <trkpt lat="50.51492" lon="1.58654">
        <ele>12</ele>
        <time>2020-06-22T07:28:15Z</time>
      </trkpt>
      <trkpt lat="50.51487" lon="1.58657">
        <ele>12</ele>
        <time>2020-06-22T07:28:16Z</time>
      </trkpt>
      <trkpt lat="50.5148" lon="1.5866">
        <ele>12.1</ele>
        <time>2020-06-22T07:28:17Z</time>
      </trkpt>
      <trkpt lat="50.51473" lon="1.58661">
        <ele>12.1</ele>
        <time>2020-06-22T07:28:18Z</time>
      </trkpt>
      <trkpt lat="50.51468" lon="1.58663">
        <ele>12.2</ele>
        <time>2020-06-22T07:28:19Z</time>
      </trkpt>
      <trkpt lat="50.51462" lon="1.58665">
        <ele>12.2</ele>
        <time>2020-06-22T07:28:20Z</time>
      </trkpt>
      <trkpt lat="50.51456" lon="1.58667">
        <ele>12.3</ele>
        <time>2020-06-22T07:28:21Z</time>
      </trkpt>
      <trkpt lat="50.51451" lon="1.58669">
        <ele>12.4</ele>
        <time>2020-06-22T07:28:22Z</time>
      </trkpt>
      <trkpt lat="50.51445" lon="1.5867">
        <ele>12.4</ele>
        <time>2020-06-22T07:28:23Z</time>
      </trkpt>
      <trkpt lat="50.51438" lon="1.58671">
        <ele>12.5</ele>
        <time>2020-06-22T07:28:24Z</time>
      </trkpt>
      <trkpt lat="50.51432" lon="1.58671">
        <ele>12.5</ele>
        <time>2020-06-22T07:28:25Z</time>
      </trkpt>
      <trkpt lat="50.51427" lon="1.58673">
        <ele>12.6</ele>
        <time>2020-06-22T07:28:26Z</time>
      </trkpt>
      <trkpt lat="50.51421" lon="1.58673">
        <ele>12.6</ele>
        <time>2020-06-22T07:28:27Z</time>
      </trkpt>
      <trkpt lat="50.51416" lon="1.58675">
        <ele>12.7</ele>
        <time>2020-06-22T07:28:28Z</time>
      </trkpt>
      <trkpt lat="50.5141" lon="1.58676">
        <ele>12.7</ele>
        <time>2020-06-22T07:28:29Z</time>
      </trkpt>
      <trkpt lat="50.51404" lon="1.58676">
        <ele>12.8</ele>
        <time>2020-06-22T07:28:30Z</time>
      </trkpt>
      <trkpt lat="50.51399" lon="1.58677">
        <ele>12.8</ele>
        <time>2020-06-22T07:28:31Z</time>
      </trkpt>
      <trkpt lat="50.51394" lon="1.58677">
        <ele>12.9</ele>
        <time>2020-06-22T07:28:32Z</time>
      </trkpt>
      <trkpt lat="50.51388" lon="1.58678">
        <ele>13</ele>
        <time>2020-06-22T07:28:33Z</time>
      </trkpt>
      <trkpt lat="50.51383" lon="1.5868">
        <ele>13</ele>
        <time>2020-06-22T07:28:34Z</time>
      </trkpt>
      <trkpt lat="50.51377" lon="1.58682">
        <ele>13.1</ele>
        <time>2020-06-22T07:28:35Z</time>
      </trkpt>
      <trkpt lat="50.51371" lon="1.58683">
        <ele>13.2</ele>
        <time>2020-06-22T07:28:36Z</time>
      </trkpt>
      <trkpt lat="50.51366" lon="1.58684">
        <ele>13.3</ele>
        <time>2020-06-22T07:28:37Z</time>
      </trkpt>
      <trkpt lat="50.51361" lon="1.58685">
        <ele>13.3</ele>
        <time>2020-06-22T07:28:38Z</time>
      </trkpt>
      <trkpt lat="50.51356" lon="1.58686">
        <ele>13.3</ele>
        <time>2020-06-22T07:28:39Z</time>
      </trkpt>
      <trkpt lat="50.51351" lon="1.58688">
        <ele>13.2</ele>
        <time>2020-06-22T07:28:40Z</time>
      </trkpt>
      <trkpt lat="50.51346" lon="1.58689">
        <ele>13.2</ele>
        <time>2020-06-22T07:28:41Z</time>
      </trkpt>
      <trkpt lat="50.5134" lon="1.58691">
        <ele>13.1</ele>
        <time>2020-06-22T07:28:42Z</time>
      </trkpt>
      <trkpt lat="50.51336" lon="1.58692">
        <ele>13.1</ele>
        <time>2020-06-22T07:28:43Z</time>
      </trkpt>
      <trkpt lat="50.5133" lon="1.58693">
        <ele>13.1</ele>
        <time>2020-06-22T07:28:44Z</time>
      </trkpt>
      <trkpt lat="50.51325" lon="1.58694">
        <ele>13.2</ele>
        <time>2020-06-22T07:28:45Z</time>
      </trkpt>
      <trkpt lat="50.51321" lon="1.58697">
        <ele>13.3</ele>
        <time>2020-06-22T07:28:46Z</time>
      </trkpt>
      <trkpt lat="50.51318" lon="1.58703">
        <ele>13.3</ele>
        <time>2020-06-22T07:28:47Z</time>
      </trkpt>
      <trkpt lat="50.51316" lon="1.58708">
        <ele>13.5</ele>
        <time>2020-06-22T07:28:48Z</time>
      </trkpt>
      <trkpt lat="50.51316" lon="1.58715">
        <ele>13.6</ele>
        <time>2020-06-22T07:28:49Z</time>
      </trkpt>
      <trkpt lat="50.51315" lon="1.58723">
        <ele>13.7</ele>
        <time>2020-06-22T07:28:50Z</time>
      </trkpt>
      <trkpt lat="50.51314" lon="1.58733">
        <ele>13.6</ele>
        <time>2020-06-22T07:28:51Z</time>
      </trkpt>
      <trkpt lat="50.51313" lon="1.5874">
        <ele>13.5</ele>
        <time>2020-06-22T07:28:52Z</time>
      </trkpt>
      <trkpt lat="50.51311" lon="1.58749">
        <ele>13.4</ele>
        <time>2020-06-22T07:28:53Z</time>
      </trkpt>
      <trkpt lat="50.5131" lon="1.58756">
        <ele>13.3</ele>
        <time>2020-06-22T07:28:54Z</time>
      </trkpt>
      <trkpt lat="50.51309" lon="1.58762">
        <ele>13.2</ele>
        <time>2020-06-22T07:28:55Z</time>
      </trkpt>
      <trkpt lat="50.51308" lon="1.5877">
        <ele>13.1</ele>
        <time>2020-06-22T07:28:56Z</time>
      </trkpt>
      <trkpt lat="50.51307" lon="1.58778">
        <ele>13</ele>
        <time>2020-06-22T07:28:57Z</time>
      </trkpt>
      <trkpt lat="50.51306" lon="1.58787">
        <ele>12.9</ele>
        <time>2020-06-22T07:28:58Z</time>
      </trkpt>
      <trkpt lat="50.51305" lon="1.58796">
        <ele>12.9</ele>
        <time>2020-06-22T07:28:59Z</time>
      </trkpt>
      <trkpt lat="50.51303" lon="1.58806">
        <ele>12.7</ele>
        <time>2020-06-22T07:29:00Z</time>
      </trkpt>
      <trkpt lat="50.51302" lon="1.58814">
        <ele>12.6</ele>
        <time>2020-06-22T07:29:01Z</time>
      </trkpt>
      <trkpt lat="50.51301" lon="1.58821">
        <ele>12.5</ele>
        <time>2020-06-22T07:29:02Z</time>
      </trkpt>
      <trkpt lat="50.513" lon="1.5883">
        <ele>12.3</ele>
        <time>2020-06-22T07:29:03Z</time>
      </trkpt>
      <trkpt lat="50.51299" lon="1.5884">
        <ele>12.1</ele>
        <time>2020-06-22T07:29:04Z</time>
      </trkpt>
      <trkpt lat="50.51299" lon="1.5885">
        <ele>11.9</ele>
        <time>2020-06-22T07:29:05Z</time>
      </trkpt>
      <trkpt lat="50.51297" lon="1.58861">
        <ele>11.6</ele>
        <time>2020-06-22T07:29:06Z</time>
      </trkpt>
      <trkpt lat="50.51296" lon="1.58872">
        <ele>11.4</ele>
        <time>2020-06-22T07:29:07Z</time>
      </trkpt>
      <trkpt lat="50.51293" lon="1.58883">
        <ele>11.1</ele>
        <time>2020-06-22T07:29:08Z</time>
      </trkpt>
      <trkpt lat="50.5129" lon="1.58892">
        <ele>10.9</ele>
        <time>2020-06-22T07:29:09Z</time>
      </trkpt>
      <trkpt lat="50.51288" lon="1.58903">
        <ele>10.7</ele>
        <time>2020-06-22T07:29:10Z</time>
      </trkpt>
      <trkpt lat="50.51287" lon="1.58914">
        <ele>10.5</ele>
        <time>2020-06-22T07:29:11Z</time>
      </trkpt>
      <trkpt lat="50.51286" lon="1.58923">
        <ele>10.3</ele>
        <time>2020-06-22T07:29:12Z</time>
      </trkpt>
      <trkpt lat="50.51287" lon="1.58933">
        <ele>10.2</ele>
        <time>2020-06-22T07:29:13Z</time>
      </trkpt>
      <trkpt lat="50.51287" lon="1.58941">
        <ele>10</ele>
        <time>2020-06-22T07:29:14Z</time>
      </trkpt>
      <trkpt lat="50.51287" lon="1.58951">
        <ele>9.9</ele>
        <time>2020-06-22T07:29:15Z</time>
      </trkpt>
      <trkpt lat="50.51286" lon="1.58963">
        <ele>9.8</ele>
        <time>2020-06-22T07:29:16Z</time>
      </trkpt>
      <trkpt lat="50.51285" lon="1.58973">
        <ele>9.8</ele>
        <time>2020-06-22T07:29:17Z</time>
      </trkpt>
      <trkpt lat="50.51285" lon="1.58982">
        <ele>9.7</ele>
        <time>2020-06-22T07:29:18Z</time>
      </trkpt>
      <trkpt lat="50.51284" lon="1.58991">
        <ele>9.6</ele>
        <time>2020-06-22T07:29:19Z</time>
      </trkpt>
      <trkpt lat="50.51284" lon="1.58999">
        <ele>9.6</ele>
        <time>2020-06-22T07:29:20Z</time>
      </trkpt>
      <trkpt lat="50.51283" lon="1.59009">
        <ele>9.6</ele>
        <time>2020-06-22T07:29:21Z</time>
      </trkpt>
      <trkpt lat="50.51283" lon="1.59018">
        <ele>9.5</ele>
        <time>2020-06-22T07:29:22Z</time>
      </trkpt>
      <trkpt lat="50.51283" lon="1.59029">
        <ele>9.5</ele>
        <time>2020-06-22T07:29:23Z</time>
      </trkpt>
      <trkpt lat="50.51284" lon="1.59039">
        <ele>9.5</ele>
        <time>2020-06-22T07:29:24Z</time>
      </trkpt>
      <trkpt lat="50.51284" lon="1.59049">
        <ele>9.4</ele>
        <time>2020-06-22T07:29:25Z</time>
      </trkpt>
      <trkpt lat="50.51285" lon="1.5906">
        <ele>9.4</ele>
        <time>2020-06-22T07:29:26Z</time>
      </trkpt>
      <trkpt lat="50.51286" lon="1.59073">
        <ele>9.4</ele>
        <time>2020-06-22T07:29:27Z</time>
      </trkpt>
      <trkpt lat="50.51286" lon="1.59085">
        <ele>9.3</ele>
        <time>2020-06-22T07:29:28Z</time>
      </trkpt>
      <trkpt lat="50.51286" lon="1.59097">
        <ele>9.3</ele>
        <time>2020-06-22T07:29:29Z</time>
      </trkpt>
      <trkpt lat="50.51286" lon="1.59109">
        <ele>9.2</ele>
        <time>2020-06-22T07:29:30Z</time>
      </trkpt>
      <trkpt lat="50.51287" lon="1.5912">
        <ele>9.2</ele>
        <time>2020-06-22T07:29:31Z</time>
      </trkpt>
      <trkpt lat="50.51286" lon="1.59129">
        <ele>9.1</ele>
        <time>2020-06-22T07:29:32Z</time>
      </trkpt>
      <trkpt lat="50.51287" lon="1.59139">
        <ele>9.1</ele>
        <time>2020-06-22T07:29:33Z</time>
      </trkpt>
      <trkpt lat="50.51287" lon="1.59149">
        <ele>9.1</ele>
        <time>2020-06-22T07:29:34Z</time>
      </trkpt>
      <trkpt lat="50.51287" lon="1.59159">
        <ele>9.1</ele>
        <time>2020-06-22T07:29:35Z</time>
      </trkpt>
      <trkpt lat="50.51287" lon="1.59169">
        <ele>9.1</ele>
        <time>2020-06-22T07:29:36Z</time>
      </trkpt>
      <trkpt lat="50.51288" lon="1.59179">
        <ele>9.1</ele>
        <time>2020-06-22T07:29:37Z</time>
      </trkpt>
      <trkpt lat="50.51288" lon="1.5919">
        <ele>9.1</ele>
        <time>2020-06-22T07:29:38Z</time>
      </trkpt>
      <trkpt lat="50.51289" lon="1.592">
        <ele>9.1</ele>
        <time>2020-06-22T07:29:39Z</time>
      </trkpt>
      <trkpt lat="50.51289" lon="1.59211">
        <ele>9.1</ele>
        <time>2020-06-22T07:29:40Z</time>
      </trkpt>
      <trkpt lat="50.51289" lon="1.5922">
        <ele>9.1</ele>
        <time>2020-06-22T07:29:41Z</time>
      </trkpt>
      <trkpt lat="50.51289" lon="1.59229">
        <ele>9.1</ele>
        <time>2020-06-22T07:29:42Z</time>
      </trkpt>
      <trkpt lat="50.5129" lon="1.59236">
        <ele>9.1</ele>
        <time>2020-06-22T07:29:43Z</time>
      </trkpt>
      <trkpt lat="50.5129" lon="1.59245">
        <ele>9.1</ele>
        <time>2020-06-22T07:29:44Z</time>
      </trkpt>
      <trkpt lat="50.51291" lon="1.59253">
        <ele>9.1</ele>
        <time>2020-06-22T07:29:45Z</time>
      </trkpt>
      <trkpt lat="50.51292" lon="1.5926">
        <ele>9.1</ele>
        <time>2020-06-22T07:29:46Z</time>
      </trkpt>
      <trkpt lat="50.51293" lon="1.59271">
        <ele>9.1</ele>
        <time>2020-06-22T07:29:47Z</time>
      </trkpt>
      <trkpt lat="50.51294" lon="1.5928">
        <ele>9.1</ele>
        <time>2020-06-22T07:29:48Z</time>
      </trkpt>
      <trkpt lat="50.51296" lon="1.59291">
        <ele>9.1</ele>
        <time>2020-06-22T07:29:49Z</time>
      </trkpt>
      <trkpt lat="50.51295" lon="1.59299">
        <ele>9.1</ele>
        <time>2020-06-22T07:29:50Z</time>
      </trkpt>
      <trkpt lat="50.51295" lon="1.59304">
        <ele>9.1</ele>
        <time>2020-06-22T07:29:51Z</time>
      </trkpt>
      <trkpt lat="50.51296" lon="1.59311">
        <ele>9.1</ele>
        <time>2020-06-22T07:29:52Z</time>
      </trkpt>
      <trkpt lat="50.51297" lon="1.59319">
        <ele>9.1</ele>
        <time>2020-06-22T07:29:53Z</time>
      </trkpt>
      <trkpt lat="50.51299" lon="1.59329">
        <ele>9.2</ele>
        <time>2020-06-22T07:29:54Z</time>
      </trkpt>
      <trkpt lat="50.51301" lon="1.59338">
        <ele>9.2</ele>
        <time>2020-06-22T07:29:55Z</time>
      </trkpt>
      <trkpt lat="50.51302" lon="1.59347">
        <ele>9.2</ele>
        <time>2020-06-22T07:29:56Z</time>
      </trkpt>
      <trkpt lat="50.51303" lon="1.59356">
        <ele>9.2</ele>
        <time>2020-06-22T07:29:57Z</time>
      </trkpt>
      <trkpt lat="50.51305" lon="1.59366">
        <ele>9.2</ele>
        <time>2020-06-22T07:29:58Z</time>
      </trkpt>
      <trkpt lat="50.51307" lon="1.59374">
        <ele>9.2</ele>
        <time>2020-06-22T07:29:59Z</time>
      </trkpt>
      <trkpt lat="50.51308" lon="1.5938">
        <ele>9.3</ele>
        <time>2020-06-22T07:30:00Z</time>
      </trkpt>
      <trkpt lat="50.5131" lon="1.59388">
        <ele>9.3</ele>
        <time>2020-06-22T07:30:01Z</time>
      </trkpt>
      <trkpt lat="50.51311" lon="1.59396">
        <ele>9.3</ele>
        <time>2020-06-22T07:30:02Z</time>
      </trkpt>
      <trkpt lat="50.51312" lon="1.59404">
        <ele>9.3</ele>
        <time>2020-06-22T07:30:03Z</time>
      </trkpt>
      <trkpt lat="50.51313" lon="1.59413">
        <ele>9.4</ele>
        <time>2020-06-22T07:30:04Z</time>
      </trkpt>
      <trkpt lat="50.51314" lon="1.59421">
        <ele>9.4</ele>
        <time>2020-06-22T07:30:05Z</time>
      </trkpt>
      <trkpt lat="50.51316" lon="1.59429">
        <ele>9.5</ele>
        <time>2020-06-22T07:30:06Z</time>
      </trkpt>
      <trkpt lat="50.51316" lon="1.59435">
        <ele>9.5</ele>
        <time>2020-06-22T07:30:07Z</time>
      </trkpt>
      <trkpt lat="50.51317" lon="1.59442">
        <ele>9.5</ele>
        <time>2020-06-22T07:30:08Z</time>
      </trkpt>
      <trkpt lat="50.51314" lon="1.59445">
        <ele>9.4</ele>
        <time>2020-06-22T07:30:09Z</time>
      </trkpt>
      <trkpt lat="50.51311" lon="1.59446">
        <ele>9.4</ele>
        <time>2020-06-22T07:30:10Z</time>
      </trkpt>
      <trkpt lat="50.51304" lon="1.59447">
        <ele>9.4</ele>
        <time>2020-06-22T07:30:11Z</time>
      </trkpt>
      <trkpt lat="50.51298" lon="1.59449">
        <ele>9.3</ele>
        <time>2020-06-22T07:30:12Z</time>
      </trkpt>
      <trkpt lat="50.51293" lon="1.5945">
        <ele>9.3</ele>
        <time>2020-06-22T07:30:13Z</time>
      </trkpt>
      <trkpt lat="50.51288" lon="1.5945">
        <ele>9.3</ele>
        <time>2020-06-22T07:30:14Z</time>
      </trkpt>
      <trkpt lat="50.51283" lon="1.59451">
        <ele>9.3</ele>
        <time>2020-06-22T07:30:15Z</time>
      </trkpt>
      <trkpt lat="50.51278" lon="1.59452">
        <ele>9.2</ele>
        <time>2020-06-22T07:30:16Z</time>
      </trkpt>
      <trkpt lat="50.51273" lon="1.59452">
        <ele>9.3</ele>
        <time>2020-06-22T07:30:17Z</time>
      </trkpt>
      <trkpt lat="50.51267" lon="1.59454">
        <ele>9.3</ele>
        <time>2020-06-22T07:30:18Z</time>
      </trkpt>
      <trkpt lat="50.51263" lon="1.59456">
        <ele>9.3</ele>
        <time>2020-06-22T07:30:19Z</time>
      </trkpt>
      <trkpt lat="50.51257" lon="1.59459">
        <ele>9.3</ele>
        <time>2020-06-22T07:30:20Z</time>
      </trkpt>
      <trkpt lat="50.51249" lon="1.59461">
        <ele>9.3</ele>
        <time>2020-06-22T07:30:21Z</time>
      </trkpt>
      <trkpt lat="50.51244" lon="1.59463">
        <ele>9.4</ele>
        <time>2020-06-22T07:30:22Z</time>
      </trkpt>
      <trkpt lat="50.51239" lon="1.59464">
        <ele>9.4</ele>
        <time>2020-06-22T07:30:23Z</time>
      </trkpt>
      <trkpt lat="50.51234" lon="1.59465">
        <ele>9.4</ele>
        <time>2020-06-22T07:30:24Z</time>
      </trkpt>
      <trkpt lat="50.51229" lon="1.59466">
        <ele>9.5</ele>
        <time>2020-06-22T07:30:25Z</time>
      </trkpt>
      <trkpt lat="50.51223" lon="1.59467">
        <ele>9.5</ele>
        <time>2020-06-22T07:30:26Z</time>
      </trkpt>
      <trkpt lat="50.51217" lon="1.59469">
        <ele>9.5</ele>
        <time>2020-06-22T07:30:27Z</time>
      </trkpt>
      <trkpt lat="50.51212" lon="1.5947">
        <ele>9.5</ele>
        <time>2020-06-22T07:30:28Z</time>
      </trkpt>
      <trkpt lat="50.51206" lon="1.59472">
        <ele>9.6</ele>
        <time>2020-06-22T07:30:29Z</time>
      </trkpt>
      <trkpt lat="50.51201" lon="1.59474">
        <ele>9.6</ele>
        <time>2020-06-22T07:30:30Z</time>
      </trkpt>
      <trkpt lat="50.51196" lon="1.59476">
        <ele>9.6</ele>
        <time>2020-06-22T07:30:31Z</time>
      </trkpt>
      <trkpt lat="50.51191" lon="1.59479">
        <ele>9.7</ele>
        <time>2020-06-22T07:30:32Z</time>
      </trkpt>
      <trkpt lat="50.51185" lon="1.59482">
        <ele>9.8</ele>
        <time>2020-06-22T07:30:33Z</time>
      </trkpt>
      <trkpt lat="50.51179" lon="1.59485">
        <ele>9.9</ele>
        <time>2020-06-22T07:30:34Z</time>
      </trkpt>
      <trkpt lat="50.51174" lon="1.59488">
        <ele>9.9</ele>
        <time>2020-06-22T07:30:35Z</time>
      </trkpt>
      <trkpt lat="50.51167" lon="1.59492">
        <ele>10</ele>
        <time>2020-06-22T07:30:36Z</time>
      </trkpt>
      <trkpt lat="50.51162" lon="1.59494">
        <ele>10.1</ele>
        <time>2020-06-22T07:30:37Z</time>
      </trkpt>
      <trkpt lat="50.51157" lon="1.59497">
        <ele>10.1</ele>
        <time>2020-06-22T07:30:38Z</time>
      </trkpt>
      <trkpt lat="50.51152" lon="1.59499">
        <ele>10.2</ele>
        <time>2020-06-22T07:30:39Z</time>
      </trkpt>
      <trkpt lat="50.51145" lon="1.59504">
        <ele>10.2</ele>
        <time>2020-06-22T07:30:40Z</time>
      </trkpt>
      <trkpt lat="50.51139" lon="1.59509">
        <ele>10.2</ele>
        <time>2020-06-22T07:30:41Z</time>
      </trkpt>
      <trkpt lat="50.51132" lon="1.59514">
        <ele>10.2</ele>
        <time>2020-06-22T07:30:42Z</time>
      </trkpt>
      <trkpt lat="50.51127" lon="1.59518">
        <ele>10.2</ele>
        <time>2020-06-22T07:30:43Z</time>
      </trkpt>
      <trkpt lat="50.51122" lon="1.59523">
        <ele>10.2</ele>
        <time>2020-06-22T07:30:44Z</time>
      </trkpt>
      <trkpt lat="50.51118" lon="1.59526">
        <ele>10.3</ele>
        <time>2020-06-22T07:30:45Z</time>
      </trkpt>
      <trkpt lat="50.51114" lon="1.59529">
        <ele>10.3</ele>
        <time>2020-06-22T07:30:46Z</time>
      </trkpt>
      <trkpt lat="50.51109" lon="1.59533">
        <ele>10.3</ele>
        <time>2020-06-22T07:30:47Z</time>
      </trkpt>
      <trkpt lat="50.51105" lon="1.59537">
        <ele>10.4</ele>
        <time>2020-06-22T07:30:48Z</time>
      </trkpt>
      <trkpt lat="50.511" lon="1.59541">
        <ele>10.4</ele>
        <time>2020-06-22T07:30:49Z</time>
      </trkpt>
      <trkpt lat="50.51095" lon="1.59546">
        <ele>10.4</ele>
        <time>2020-06-22T07:30:50Z</time>
      </trkpt>
      <trkpt lat="50.5109" lon="1.59552">
        <ele>10.4</ele>
        <time>2020-06-22T07:30:51Z</time>
      </trkpt>
      <trkpt lat="50.51086" lon="1.59558">
        <ele>10.5</ele>
        <time>2020-06-22T07:30:52Z</time>
      </trkpt>
      <trkpt lat="50.5108" lon="1.59562">
        <ele>10.5</ele>
        <time>2020-06-22T07:30:53Z</time>
      </trkpt>
      <trkpt lat="50.51075" lon="1.59567">
        <ele>10.5</ele>
        <time>2020-06-22T07:30:54Z</time>
      </trkpt>
      <trkpt lat="50.51071" lon="1.59571">
        <ele>10.5</ele>
        <time>2020-06-22T07:30:55Z</time>
      </trkpt>
      <trkpt lat="50.51067" lon="1.59573">
        <ele>10.5</ele>
        <time>2020-06-22T07:30:56Z</time>
      </trkpt>
      <trkpt lat="50.51063" lon="1.5958">
        <ele>10.5</ele>
        <time>2020-06-22T07:30:57Z</time>
      </trkpt>
      <trkpt lat="50.51059" lon="1.59585">
        <ele>10.5</ele>
        <time>2020-06-22T07:30:58Z</time>
      </trkpt>
      <trkpt lat="50.51056" lon="1.59592">
        <ele>10.5</ele>
        <time>2020-06-22T07:30:59Z</time>
      </trkpt>
      <trkpt lat="50.51053" lon="1.59597">
        <ele>10.5</ele>
        <time>2020-06-22T07:31:00Z</time>
      </trkpt>
      <trkpt lat="50.5105" lon="1.59601">
        <ele>10.5</ele>
        <time>2020-06-22T07:31:01Z</time>
      </trkpt>
      <trkpt lat="50.51046" lon="1.59607">
        <ele>10.6</ele>
        <time>2020-06-22T07:31:02Z</time>
      </trkpt>
      <trkpt lat="50.51043" lon="1.59611">
        <ele>10.6</ele>
        <time>2020-06-22T07:31:03Z</time>
      </trkpt>
      <trkpt lat="50.5104" lon="1.59615">
        <ele>10.6</ele>
        <time>2020-06-22T07:31:04Z</time>
      </trkpt>
      <trkpt lat="50.51036" lon="1.59622">
        <ele>10.6</ele>
        <time>2020-06-22T07:31:05Z</time>
      </trkpt>
      <trkpt lat="50.51032" lon="1.59628">
        <ele>10.7</ele>
        <time>2020-06-22T07:31:06Z</time>
      </trkpt>
      <trkpt lat="50.51029" lon="1.59634">
        <ele>10.7</ele>
        <time>2020-06-22T07:31:07Z</time>
      </trkpt>
      <trkpt lat="50.51024" lon="1.5964">
        <ele>10.7</ele>
        <time>2020-06-22T07:31:08Z</time>
      </trkpt>
      <trkpt lat="50.5102" lon="1.59646">
        <ele>10.7</ele>
        <time>2020-06-22T07:31:09Z</time>
      </trkpt>
      <trkpt lat="50.51015" lon="1.59653">
        <ele>10.7</ele>
        <time>2020-06-22T07:31:10Z</time>
      </trkpt>
      <trkpt lat="50.51009" lon="1.5966">
        <ele>10.7</ele>
        <time>2020-06-22T07:31:11Z</time>
      </trkpt>
      <trkpt lat="50.51006" lon="1.59667">
        <ele>10.7</ele>
        <time>2020-06-22T07:31:12Z</time>
      </trkpt>
      <trkpt lat="50.51001" lon="1.59674">
        <ele>10.7</ele>
        <time>2020-06-22T07:31:13Z</time>
      </trkpt>
      <trkpt lat="50.50995" lon="1.59685">
        <ele>10.8</ele>
        <time>2020-06-22T07:31:14Z</time>
      </trkpt>
      <trkpt lat="50.50991" lon="1.59692">
        <ele>10.8</ele>
        <time>2020-06-22T07:31:15Z</time>
      </trkpt>
      <trkpt lat="50.50985" lon="1.59702">
        <ele>10.8</ele>
        <time>2020-06-22T07:31:16Z</time>
      </trkpt>
      <trkpt lat="50.5098" lon="1.59713">
        <ele>10.8</ele>
        <time>2020-06-22T07:31:17Z</time>
      </trkpt>
      <trkpt lat="50.50975" lon="1.59721">
        <ele>10.9</ele>
        <time>2020-06-22T07:31:18Z</time>
      </trkpt>
      <trkpt lat="50.50972" lon="1.59728">
        <ele>10.9</ele>
        <time>2020-06-22T07:31:19Z</time>
      </trkpt>
      <trkpt lat="50.50968" lon="1.59736">
        <ele>10.9</ele>
        <time>2020-06-22T07:31:20Z</time>
      </trkpt>
      <trkpt lat="50.50964" lon="1.59745">
        <ele>11</ele>
        <time>2020-06-22T07:31:21Z</time>
      </trkpt>
      <trkpt lat="50.5096" lon="1.59755">
        <ele>11</ele>
        <time>2020-06-22T07:31:22Z</time>
      </trkpt>
      <trkpt lat="50.50957" lon="1.59764">
        <ele>11.1</ele>
        <time>2020-06-22T07:31:23Z</time>
      </trkpt>
      <trkpt lat="50.50954" lon="1.59773">
        <ele>11.1</ele>
        <time>2020-06-22T07:31:24Z</time>
      </trkpt>
      <trkpt lat="50.5095" lon="1.59781">
        <ele>11.1</ele>
        <time>2020-06-22T07:31:25Z</time>
      </trkpt>
      <trkpt lat="50.50945" lon="1.59792">
        <ele>11.1</ele>
        <time>2020-06-22T07:31:26Z</time>
      </trkpt>
      <trkpt lat="50.50942" lon="1.598">
        <ele>11.1</ele>
        <time>2020-06-22T07:31:27Z</time>
      </trkpt>
      <trkpt lat="50.50938" lon="1.5981">
        <ele>11.1</ele>
        <time>2020-06-22T07:31:28Z</time>
      </trkpt>
      <trkpt lat="50.50935" lon="1.5982">
        <ele>11.1</ele>
        <time>2020-06-22T07:31:29Z</time>
      </trkpt>
      <trkpt lat="50.50931" lon="1.59829">
        <ele>11.2</ele>
        <time>2020-06-22T07:31:30Z</time>
      </trkpt>
      <trkpt lat="50.50928" lon="1.59837">
        <ele>11.2</ele>
        <time>2020-06-22T07:31:31Z</time>
      </trkpt>
      <trkpt lat="50.50924" lon="1.59845">
        <ele>11.2</ele>
        <time>2020-06-22T07:31:32Z</time>
      </trkpt>
      <trkpt lat="50.50921" lon="1.59852">
        <ele>11.3</ele>
        <time>2020-06-22T07:31:33Z</time>
      </trkpt>
      <trkpt lat="50.50918" lon="1.59861">
        <ele>11.3</ele>
        <time>2020-06-22T07:31:34Z</time>
      </trkpt>
      <trkpt lat="50.50915" lon="1.5987">
        <ele>11.3</ele>
        <time>2020-06-22T07:31:35Z</time>
      </trkpt>
      <trkpt lat="50.50913" lon="1.59877">
        <ele>11.3</ele>
        <time>2020-06-22T07:31:36Z</time>
      </trkpt>
      <trkpt lat="50.5091" lon="1.59883">
        <ele>11.3</ele>
        <time>2020-06-22T07:31:37Z</time>
      </trkpt>
      <trkpt lat="50.50908" lon="1.59892">
        <ele>11.3</ele>
        <time>2020-06-22T07:31:38Z</time>
      </trkpt>
      <trkpt lat="50.50905" lon="1.59899">
        <ele>11.3</ele>
        <time>2020-06-22T07:31:39Z</time>
      </trkpt>
      <trkpt lat="50.50903" lon="1.59904">
        <ele>11.3</ele>
        <time>2020-06-22T07:31:40Z</time>
      </trkpt>
      <trkpt lat="50.50901" lon="1.5991">
        <ele>11.3</ele>
        <time>2020-06-22T07:31:41Z</time>
      </trkpt>
      <trkpt lat="50.50899" lon="1.59917">
        <ele>11.3</ele>
        <time>2020-06-22T07:31:42Z</time>
      </trkpt>
      <trkpt lat="50.50897" lon="1.59925">
        <ele>11.3</ele>
        <time>2020-06-22T07:31:43Z</time>
      </trkpt>
      <trkpt lat="50.50895" lon="1.59932">
        <ele>11.3</ele>
        <time>2020-06-22T07:31:44Z</time>
      </trkpt>
      <trkpt lat="50.50893" lon="1.59939">
        <ele>11.3</ele>
        <time>2020-06-22T07:31:45Z</time>
      </trkpt>
      <trkpt lat="50.50891" lon="1.59947">
        <ele>11.3</ele>
        <time>2020-06-22T07:31:46Z</time>
      </trkpt>
      <trkpt lat="50.50889" lon="1.59955">
        <ele>11.3</ele>
        <time>2020-06-22T07:31:47Z</time>
      </trkpt>
      <trkpt lat="50.50888" lon="1.59962">
        <ele>11.3</ele>
        <time>2020-06-22T07:31:48Z</time>
      </trkpt>
      <trkpt lat="50.50886" lon="1.59972">
        <ele>11.3</ele>
        <time>2020-06-22T07:31:49Z</time>
      </trkpt>
      <trkpt lat="50.50884" lon="1.5998">
        <ele>11.3</ele>
        <time>2020-06-22T07:31:50Z</time>
      </trkpt>
      <trkpt lat="50.50883" lon="1.59988">
        <ele>11.3</ele>
        <time>2020-06-22T07:31:51Z</time>
      </trkpt>
      <trkpt lat="50.50882" lon="1.59996">
        <ele>11.3</ele>
        <time>2020-06-22T07:31:52Z</time>
      </trkpt>
      <trkpt lat="50.5088" lon="1.60004">
        <ele>11.3</ele>
        <time>2020-06-22T07:31:53Z</time>
      </trkpt>
      <trkpt lat="50.50878" lon="1.60012">
        <ele>11.3</ele>
        <time>2020-06-22T07:31:54Z</time>
      </trkpt>
      <trkpt lat="50.50875" lon="1.60018">
        <ele>11.3</ele>
        <time>2020-06-22T07:31:55Z</time>
      </trkpt>
      <trkpt lat="50.50873" lon="1.60026">
        <ele>11.3</ele>
        <time>2020-06-22T07:31:56Z</time>
      </trkpt>
      <trkpt lat="50.5087" lon="1.60035">
        <ele>11.3</ele>
        <time>2020-06-22T07:31:57Z</time>
      </trkpt>
      <trkpt lat="50.50868" lon="1.60042">
        <ele>11.2</ele>
        <time>2020-06-22T07:31:58Z</time>
      </trkpt>
      <trkpt lat="50.50865" lon="1.60049">
        <ele>11.2</ele>
        <time>2020-06-22T07:31:59Z</time>
      </trkpt>
      <trkpt lat="50.50861" lon="1.60059">
        <ele>11.2</ele>
        <time>2020-06-22T07:32:00Z</time>
      </trkpt>
      <trkpt lat="50.50859" lon="1.60067">
        <ele>11.1</ele>
        <time>2020-06-22T07:32:01Z</time>
      </trkpt>
      <trkpt lat="50.50857" lon="1.60075">
        <ele>11.1</ele>
        <time>2020-06-22T07:32:02Z</time>
      </trkpt>
      <trkpt lat="50.50856" lon="1.60083">
        <ele>11</ele>
        <time>2020-06-22T07:32:03Z</time>
      </trkpt>
      <trkpt lat="50.50855" lon="1.60089">
        <ele>11</ele>
        <time>2020-06-22T07:32:04Z</time>
      </trkpt>
      <trkpt lat="50.50853" lon="1.60096">
        <ele>11</ele>
        <time>2020-06-22T07:32:05Z</time>
      </trkpt>
      <trkpt lat="50.50851" lon="1.60104">
        <ele>10.9</ele>
        <time>2020-06-22T07:32:06Z</time>
      </trkpt>
      <trkpt lat="50.5085" lon="1.60111">
        <ele>10.9</ele>
        <time>2020-06-22T07:32:07Z</time>
      </trkpt>
      <trkpt lat="50.50849" lon="1.60116">
        <ele>10.9</ele>
        <time>2020-06-22T07:32:08Z</time>
      </trkpt>
      <trkpt lat="50.50848" lon="1.60124">
        <ele>10.9</ele>
        <time>2020-06-22T07:32:09Z</time>
      </trkpt>
      <trkpt lat="50.50846" lon="1.60134">
        <ele>10.9</ele>
        <time>2020-06-22T07:32:10Z</time>
      </trkpt>
      <trkpt lat="50.50845" lon="1.60143">
        <ele>10.9</ele>
        <time>2020-06-22T07:32:11Z</time>
      </trkpt>
      <trkpt lat="50.50844" lon="1.60151">
        <ele>10.9</ele>
        <time>2020-06-22T07:32:12Z</time>
      </trkpt>
      <trkpt lat="50.50844" lon="1.60158">
        <ele>10.9</ele>
        <time>2020-06-22T07:32:13Z</time>
      </trkpt>
      <trkpt lat="50.50843" lon="1.60164">
        <ele>10.9</ele>
        <time>2020-06-22T07:32:14Z</time>
      </trkpt>
      <trkpt lat="50.50841" lon="1.6017">
        <ele>10.9</ele>
        <time>2020-06-22T07:32:15Z</time>
      </trkpt>
      <trkpt lat="50.5084" lon="1.60176">
        <ele>10.9</ele>
        <time>2020-06-22T07:32:16Z</time>
      </trkpt>
      <trkpt lat="50.50838" lon="1.60183">
        <ele>10.9</ele>
        <time>2020-06-22T07:32:17Z</time>
      </trkpt>
      <trkpt lat="50.50837" lon="1.6019">
        <ele>10.8</ele>
        <time>2020-06-22T07:32:18Z</time>
      </trkpt>
      <trkpt lat="50.50836" lon="1.60196">
        <ele>10.8</ele>
        <time>2020-06-22T07:32:19Z</time>
      </trkpt>
      <trkpt lat="50.50835" lon="1.60202">
        <ele>10.8</ele>
        <time>2020-06-22T07:32:20Z</time>
      </trkpt>
      <trkpt lat="50.50833" lon="1.60208">
        <ele>10.8</ele>
        <time>2020-06-22T07:32:21Z</time>
      </trkpt>
      <trkpt lat="50.50832" lon="1.60215">
        <ele>10.8</ele>
        <time>2020-06-22T07:32:22Z</time>
      </trkpt>
      <trkpt lat="50.5083" lon="1.60222">
        <ele>10.8</ele>
        <time>2020-06-22T07:32:23Z</time>
      </trkpt>
      <trkpt lat="50.50829" lon="1.6023">
        <ele>10.8</ele>
        <time>2020-06-22T07:32:24Z</time>
      </trkpt>
      <trkpt lat="50.50828" lon="1.60239">
        <ele>10.7</ele>
        <time>2020-06-22T07:32:25Z</time>
      </trkpt>
      <trkpt lat="50.50828" lon="1.60248">
        <ele>10.7</ele>
        <time>2020-06-22T07:32:26Z</time>
      </trkpt>
      <trkpt lat="50.50828" lon="1.60257">
        <ele>10.7</ele>
        <time>2020-06-22T07:32:27Z</time>
      </trkpt>
      <trkpt lat="50.50827" lon="1.60265">
        <ele>10.7</ele>
        <time>2020-06-22T07:32:28Z</time>
      </trkpt>
      <trkpt lat="50.50827" lon="1.60273">
        <ele>10.7</ele>
        <time>2020-06-22T07:32:29Z</time>
      </trkpt>
      <trkpt lat="50.50826" lon="1.60282">
        <ele>10.7</ele>
        <time>2020-06-22T07:32:30Z</time>
      </trkpt>
      <trkpt lat="50.50826" lon="1.6029">
        <ele>10.7</ele>
        <time>2020-06-22T07:32:31Z</time>
      </trkpt>
      <trkpt lat="50.50825" lon="1.603">
        <ele>10.7</ele>
        <time>2020-06-22T07:32:32Z</time>
      </trkpt>
      <trkpt lat="50.50825" lon="1.60307">
        <ele>10.7</ele>
        <time>2020-06-22T07:32:33Z</time>
      </trkpt>
      <trkpt lat="50.50824" lon="1.60314">
        <ele>10.7</ele>
        <time>2020-06-22T07:32:34Z</time>
      </trkpt>
      <trkpt lat="50.50823" lon="1.60322">
        <ele>10.7</ele>
        <time>2020-06-22T07:32:35Z</time>
      </trkpt>
      <trkpt lat="50.50822" lon="1.6033">
        <ele>10.7</ele>
        <time>2020-06-22T07:32:36Z</time>
      </trkpt>
      <trkpt lat="50.5082" lon="1.60339">
        <ele>10.7</ele>
        <time>2020-06-22T07:32:37Z</time>
      </trkpt>
      <trkpt lat="50.50819" lon="1.60349">
        <ele>10.7</ele>
        <time>2020-06-22T07:32:38Z</time>
      </trkpt>
      <trkpt lat="50.50815" lon="1.60357">
        <ele>10.7</ele>
        <time>2020-06-22T07:32:39Z</time>
      </trkpt>
      <trkpt lat="50.50813" lon="1.60364">
        <ele>10.7</ele>
        <time>2020-06-22T07:32:40Z</time>
      </trkpt>
      <trkpt lat="50.50812" lon="1.60372">
        <ele>10.7</ele>
        <time>2020-06-22T07:32:41Z</time>
      </trkpt>
      <trkpt lat="50.50809" lon="1.60375">
        <ele>10.6</ele>
        <time>2020-06-22T07:32:42Z</time>
      </trkpt>
      <trkpt lat="50.50806" lon="1.60379">
        <ele>10.6</ele>
        <time>2020-06-22T07:32:43Z</time>
      </trkpt>
      <trkpt lat="50.50805" lon="1.60384">
        <ele>10.6</ele>
        <time>2020-06-22T07:32:44Z</time>
      </trkpt>
      <trkpt lat="50.50805" lon="1.60389">
        <ele>10.5</ele>
        <time>2020-06-22T07:32:45Z</time>
      </trkpt>
      <trkpt lat="50.50806" lon="1.60395">
        <ele>10.5</ele>
        <time>2020-06-22T07:32:46Z</time>
      </trkpt>
      <trkpt lat="50.50807" lon="1.60401">
        <ele>10.5</ele>
        <time>2020-06-22T07:32:47Z</time>
      </trkpt>
      <trkpt lat="50.50807" lon="1.60407">
        <ele>10.4</ele>
        <time>2020-06-22T07:32:48Z</time>
      </trkpt>
      <trkpt lat="50.50807" lon="1.60417">
        <ele>10.4</ele>
        <time>2020-06-22T07:32:49Z</time>
      </trkpt>
      <trkpt lat="50.50808" lon="1.60425">
        <ele>10.4</ele>
        <time>2020-06-22T07:32:50Z</time>
      </trkpt>
      <trkpt lat="50.50808" lon="1.60433">
        <ele>10.4</ele>
        <time>2020-06-22T07:32:51Z</time>
      </trkpt>
      <trkpt lat="50.50807" lon="1.60442">
        <ele>10.3</ele>
        <time>2020-06-22T07:32:52Z</time>
      </trkpt>
      <trkpt lat="50.50807" lon="1.60451">
        <ele>10.3</ele>
        <time>2020-06-22T07:32:53Z</time>
      </trkpt>
      <trkpt lat="50.50807" lon="1.60459">
        <ele>10.3</ele>
        <time>2020-06-22T07:32:54Z</time>
      </trkpt>
      <trkpt lat="50.50807" lon="1.60467">
        <ele>10.3</ele>
        <time>2020-06-22T07:32:55Z</time>
      </trkpt>
      <trkpt lat="50.50807" lon="1.60475">
        <ele>10.3</ele>
        <time>2020-06-22T07:32:56Z</time>
      </trkpt>
      <trkpt lat="50.50809" lon="1.60482">
        <ele>10.3</ele>
        <time>2020-06-22T07:32:57Z</time>
      </trkpt>
      <trkpt lat="50.50808" lon="1.6049">
        <ele>10.3</ele>
        <time>2020-06-22T07:32:58Z</time>
      </trkpt>
      <trkpt lat="50.50808" lon="1.60499">
        <ele>10.3</ele>
        <time>2020-06-22T07:32:59Z</time>
      </trkpt>
      <trkpt lat="50.50808" lon="1.6051">
        <ele>10.3</ele>
        <time>2020-06-22T07:33:00Z</time>
      </trkpt>
      <trkpt lat="50.50808" lon="1.60518">
        <ele>10.3</ele>
        <time>2020-06-22T07:33:01Z</time>
      </trkpt>
      <trkpt lat="50.50809" lon="1.60527">
        <ele>10.3</ele>
        <time>2020-06-22T07:33:02Z</time>
      </trkpt>
      <trkpt lat="50.50809" lon="1.60537">
        <ele>10.4</ele>
        <time>2020-06-22T07:33:03Z</time>
      </trkpt>
      <trkpt lat="50.50809" lon="1.60546">
        <ele>10.4</ele>
        <time>2020-06-22T07:33:04Z</time>
      </trkpt>
      <trkpt lat="50.50808" lon="1.60556">
        <ele>10.4</ele>
        <time>2020-06-22T07:33:05Z</time>
      </trkpt>
      <trkpt lat="50.50807" lon="1.60568">
        <ele>10.4</ele>
        <time>2020-06-22T07:33:06Z</time>
      </trkpt>
      <trkpt lat="50.50806" lon="1.60578">
        <ele>10.4</ele>
        <time>2020-06-22T07:33:07Z</time>
      </trkpt>
      <trkpt lat="50.50805" lon="1.60588">
        <ele>10.4</ele>
        <time>2020-06-22T07:33:08Z</time>
      </trkpt>
      <trkpt lat="50.50803" lon="1.60597">
        <ele>10.5</ele>
        <time>2020-06-22T07:33:09Z</time>
      </trkpt>
      <trkpt lat="50.50801" lon="1.60606">
        <ele>10.5</ele>
        <time>2020-06-22T07:33:10Z</time>
      </trkpt>
      <trkpt lat="50.508" lon="1.60616">
        <ele>10.5</ele>
        <time>2020-06-22T07:33:11Z</time>
      </trkpt>
      <trkpt lat="50.50799" lon="1.60625">
        <ele>10.5</ele>
        <time>2020-06-22T07:33:12Z</time>
      </trkpt>
      <trkpt lat="50.50799" lon="1.60635">
        <ele>10.5</ele>
        <time>2020-06-22T07:33:13Z</time>
      </trkpt>
      <trkpt lat="50.50801" lon="1.60645">
        <ele>10.5</ele>
        <time>2020-06-22T07:33:14Z</time>
      </trkpt>
      <trkpt lat="50.50801" lon="1.60653">
        <ele>10.6</ele>
        <time>2020-06-22T07:33:15Z</time>
      </trkpt>
      <trkpt lat="50.50801" lon="1.6066">
        <ele>10.6</ele>
        <time>2020-06-22T07:33:16Z</time>
      </trkpt>
      <trkpt lat="50.50801" lon="1.6067">
        <ele>10.5</ele>
        <time>2020-06-22T07:33:17Z</time>
      </trkpt>
      <trkpt lat="50.50801" lon="1.6068">
        <ele>10.5</ele>
        <time>2020-06-22T07:33:18Z</time>
      </trkpt>
      <trkpt lat="50.50802" lon="1.60689">
        <ele>10.5</ele>
        <time>2020-06-22T07:33:19Z</time>
      </trkpt>
      <trkpt lat="50.50802" lon="1.60696">
        <ele>10.5</ele>
        <time>2020-06-22T07:33:20Z</time>
      </trkpt>
      <trkpt lat="50.50803" lon="1.60702">
        <ele>10.5</ele>
        <time>2020-06-22T07:33:21Z</time>
      </trkpt>
      <trkpt lat="50.50803" lon="1.60711">
        <ele>10.6</ele>
        <time>2020-06-22T07:33:22Z</time>
      </trkpt>
      <trkpt lat="50.50805" lon="1.6072">
        <ele>10.6</ele>
        <time>2020-06-22T07:33:23Z</time>
      </trkpt>
      <trkpt lat="50.50806" lon="1.60726">
        <ele>10.6</ele>
        <time>2020-06-22T07:33:24Z</time>
      </trkpt>
      <trkpt lat="50.50807" lon="1.60733">
        <ele>10.5</ele>
        <time>2020-06-22T07:33:25Z</time>
      </trkpt>
      <trkpt lat="50.50807" lon="1.60739">
        <ele>10.5</ele>
        <time>2020-06-22T07:33:26Z</time>
      </trkpt>
      <trkpt lat="50.50808" lon="1.60747">
        <ele>10.5</ele>
        <time>2020-06-22T07:33:27Z</time>
      </trkpt>
      <trkpt lat="50.50808" lon="1.60755">
        <ele>10.5</ele>
        <time>2020-06-22T07:33:28Z</time>
      </trkpt>
      <trkpt lat="50.50808" lon="1.60763">
        <ele>10.5</ele>
        <time>2020-06-22T07:33:29Z</time>
      </trkpt>
      <trkpt lat="50.50808" lon="1.60771">
        <ele>10.5</ele>
        <time>2020-06-22T07:33:30Z</time>
      </trkpt>
      <trkpt lat="50.50809" lon="1.60778">
        <ele>10.5</ele>
        <time>2020-06-22T07:33:31Z</time>
      </trkpt>
      <trkpt lat="50.5081" lon="1.60785">
        <ele>10.5</ele>
        <time>2020-06-22T07:33:32Z</time>
      </trkpt>
      <trkpt lat="50.50809" lon="1.60793">
        <ele>10.5</ele>
        <time>2020-06-22T07:33:33Z</time>
      </trkpt>
      <trkpt lat="50.5081" lon="1.60801">
        <ele>10.5</ele>
        <time>2020-06-22T07:33:34Z</time>
      </trkpt>
      <trkpt lat="50.50809" lon="1.6081">
        <ele>10.5</ele>
        <time>2020-06-22T07:33:35Z</time>
      </trkpt>
      <trkpt lat="50.50808" lon="1.60819">
        <ele>10.5</ele>
        <time>2020-06-22T07:33:36Z</time>
      </trkpt>
      <trkpt lat="50.50808" lon="1.60827">
        <ele>10.6</ele>
        <time>2020-06-22T07:33:37Z</time>
      </trkpt>
      <trkpt lat="50.50808" lon="1.60835">
        <ele>10.6</ele>
        <time>2020-06-22T07:33:38Z</time>
      </trkpt>
      <trkpt lat="50.50808" lon="1.60844">
        <ele>10.6</ele>
        <time>2020-06-22T07:33:39Z</time>
      </trkpt>
      <trkpt lat="50.50808" lon="1.60853">
        <ele>10.6</ele>
        <time>2020-06-22T07:33:40Z</time>
      </trkpt>
      <trkpt lat="50.50808" lon="1.60861">
        <ele>10.6</ele>
        <time>2020-06-22T07:33:41Z</time>
      </trkpt>
      <trkpt lat="50.50808" lon="1.60867">
        <ele>10.7</ele>
        <time>2020-06-22T07:33:42Z</time>
      </trkpt>
      <trkpt lat="50.50808" lon="1.60874">
        <ele>10.7</ele>
        <time>2020-06-22T07:33:43Z</time>
      </trkpt>
      <trkpt lat="50.50809" lon="1.60882">
        <ele>10.7</ele>
        <time>2020-06-22T07:33:44Z</time>
      </trkpt>
      <trkpt lat="50.50809" lon="1.60889">
        <ele>10.7</ele>
        <time>2020-06-22T07:33:45Z</time>
      </trkpt>
      <trkpt lat="50.5081" lon="1.60896">
        <ele>10.7</ele>
        <time>2020-06-22T07:33:46Z</time>
      </trkpt>
      <trkpt lat="50.5081" lon="1.60903">
        <ele>10.8</ele>
        <time>2020-06-22T07:33:47Z</time>
      </trkpt>
      <trkpt lat="50.5081" lon="1.60911">
        <ele>10.8</ele>
        <time>2020-06-22T07:33:48Z</time>
      </trkpt>
      <trkpt lat="50.5081" lon="1.60919">
        <ele>10.8</ele>
        <time>2020-06-22T07:33:49Z</time>
      </trkpt>
      <trkpt lat="50.50809" lon="1.60927">
        <ele>10.7</ele>
        <time>2020-06-22T07:33:50Z</time>
      </trkpt>
      <trkpt lat="50.50808" lon="1.60934">
        <ele>10.7</ele>
        <time>2020-06-22T07:33:51Z</time>
      </trkpt>
      <trkpt lat="50.50808" lon="1.60943">
        <ele>10.7</ele>
        <time>2020-06-22T07:33:52Z</time>
      </trkpt>
      <trkpt lat="50.50809" lon="1.60951">
        <ele>10.7</ele>
        <time>2020-06-22T07:33:53Z</time>
      </trkpt>
      <trkpt lat="50.50811" lon="1.60959">
        <ele>10.7</ele>
        <time>2020-06-22T07:33:54Z</time>
      </trkpt>
      <trkpt lat="50.50811" lon="1.60968">
        <ele>10.8</ele>
        <time>2020-06-22T07:33:55Z</time>
      </trkpt>
      <trkpt lat="50.50812" lon="1.60976">
        <ele>10.8</ele>
        <time>2020-06-22T07:33:56Z</time>
      </trkpt>
      <trkpt lat="50.50812" lon="1.60983">
        <ele>10.8</ele>
        <time>2020-06-22T07:33:57Z</time>
      </trkpt>
      <trkpt lat="50.50812" lon="1.60991">
        <ele>10.9</ele>
        <time>2020-06-22T07:33:58Z</time>
      </trkpt>
      <trkpt lat="50.50813" lon="1.60998">
        <ele>10.9</ele>
        <time>2020-06-22T07:33:59Z</time>
      </trkpt>
      <trkpt lat="50.50814" lon="1.61006">
        <ele>10.9</ele>
        <time>2020-06-22T07:34:00Z</time>
      </trkpt>
      <trkpt lat="50.50814" lon="1.61013">
        <ele>11</ele>
        <time>2020-06-22T07:34:01Z</time>
      </trkpt>
      <trkpt lat="50.50814" lon="1.61019">
        <ele>11</ele>
        <time>2020-06-22T07:34:02Z</time>
      </trkpt>
      <trkpt lat="50.50814" lon="1.61026">
        <ele>11.1</ele>
        <time>2020-06-22T07:34:03Z</time>
      </trkpt>
      <trkpt lat="50.50813" lon="1.61032">
        <ele>11.1</ele>
        <time>2020-06-22T07:34:04Z</time>
      </trkpt>
      <trkpt lat="50.50813" lon="1.61039">
        <ele>11.2</ele>
        <time>2020-06-22T07:34:05Z</time>
      </trkpt>
      <trkpt lat="50.50811" lon="1.61047">
        <ele>11.2</ele>
        <time>2020-06-22T07:34:06Z</time>
      </trkpt>
      <trkpt lat="50.50811" lon="1.61054">
        <ele>11.3</ele>
        <time>2020-06-22T07:34:07Z</time>
      </trkpt>
      <trkpt lat="50.5081" lon="1.61062">
        <ele>11.3</ele>
        <time>2020-06-22T07:34:08Z</time>
      </trkpt>
      <trkpt lat="50.5081" lon="1.61068">
        <ele>11.4</ele>
        <time>2020-06-22T07:34:09Z</time>
      </trkpt>
      <trkpt lat="50.5081" lon="1.61076">
        <ele>11.5</ele>
        <time>2020-06-22T07:34:10Z</time>
      </trkpt>
      <trkpt lat="50.5081" lon="1.61084">
        <ele>11.6</ele>
        <time>2020-06-22T07:34:11Z</time>
      </trkpt>
      <trkpt lat="50.5081" lon="1.61091">
        <ele>11.6</ele>
        <time>2020-06-22T07:34:12Z</time>
      </trkpt>
      <trkpt lat="50.50809" lon="1.61098">
        <ele>11.6</ele>
        <time>2020-06-22T07:34:13Z</time>
      </trkpt>
      <trkpt lat="50.50808" lon="1.61105">
        <ele>11.9</ele>
        <time>2020-06-22T07:34:14Z</time>
      </trkpt>
      <trkpt lat="50.50808" lon="1.61113">
        <ele>12</ele>
        <time>2020-06-22T07:34:15Z</time>
      </trkpt>
      <trkpt lat="50.50808" lon="1.61118">
        <ele>12</ele>
        <time>2020-06-22T07:34:16Z</time>
      </trkpt>
      <trkpt lat="50.50806" lon="1.61124">
        <ele>12.1</ele>
        <time>2020-06-22T07:34:17Z</time>
      </trkpt>
      <trkpt lat="50.50806" lon="1.61125">
        <ele>12.1</ele>
        <time>2020-06-22T07:34:18Z</time>
      </trkpt>
      <trkpt lat="50.50807" lon="1.61131">
        <ele>12.1</ele>
        <time>2020-06-22T07:34:19Z</time>
      </trkpt>
      <trkpt lat="50.50807" lon="1.61133">
        <ele>12.1</ele>
        <time>2020-06-22T07:34:20Z</time>
      </trkpt>
      <trkpt lat="50.50808" lon="1.61139">
        <ele>11.7</ele>
        <time>2020-06-22T07:34:21Z</time>
      </trkpt>
      <trkpt lat="50.50808" lon="1.61142">
        <ele>11.7</ele>
        <time>2020-06-22T07:34:22Z</time>
      </trkpt>
      <trkpt lat="50.50808" lon="1.61147">
        <ele>11.6</ele>
        <time>2020-06-22T07:34:23Z</time>
      </trkpt>
      <trkpt lat="50.50808" lon="1.61153">
        <ele>11.6</ele>
        <time>2020-06-22T07:34:24Z</time>
      </trkpt>
      <trkpt lat="50.50809" lon="1.61159">
        <ele>11.5</ele>
        <time>2020-06-22T07:34:25Z</time>
      </trkpt>
      <trkpt lat="50.50809" lon="1.61166">
        <ele>11.5</ele>
        <time>2020-06-22T07:34:26Z</time>
      </trkpt>
      <trkpt lat="50.50809" lon="1.61172">
        <ele>11.5</ele>
        <time>2020-06-22T07:34:27Z</time>
      </trkpt>
      <trkpt lat="50.50808" lon="1.61179">
        <ele>11.5</ele>
        <time>2020-06-22T07:34:28Z</time>
      </trkpt>
      <trkpt lat="50.50808" lon="1.61186">
        <ele>11.4</ele>
        <time>2020-06-22T07:34:29Z</time>
      </trkpt>
      <trkpt lat="50.50808" lon="1.61191">
        <ele>11.4</ele>
        <time>2020-06-22T07:34:30Z</time>
      </trkpt>
      <trkpt lat="50.50808" lon="1.61197">
        <ele>11.4</ele>
        <time>2020-06-22T07:34:31Z</time>
      </trkpt>
      <trkpt lat="50.50808" lon="1.61204">
        <ele>11.4</ele>
        <time>2020-06-22T07:34:32Z</time>
      </trkpt>
      <trkpt lat="50.50807" lon="1.61212">
        <ele>11.4</ele>
        <time>2020-06-22T07:34:33Z</time>
      </trkpt>
      <trkpt lat="50.50807" lon="1.6122">
        <ele>11.4</ele>
        <time>2020-06-22T07:34:34Z</time>
      </trkpt>
      <trkpt lat="50.50807" lon="1.61229">
        <ele>11.4</ele>
        <time>2020-06-22T07:34:35Z</time>
      </trkpt>
      <trkpt lat="50.50807" lon="1.61237">
        <ele>11.4</ele>
        <time>2020-06-22T07:34:36Z</time>
      </trkpt>
      <trkpt lat="50.50809" lon="1.61245">
        <ele>11.4</ele>
        <time>2020-06-22T07:34:37Z</time>
      </trkpt>
      <trkpt lat="50.5081" lon="1.61253">
        <ele>11.4</ele>
        <time>2020-06-22T07:34:38Z</time>
      </trkpt>
      <trkpt lat="50.50812" lon="1.61263">
        <ele>11.4</ele>
        <time>2020-06-22T07:34:39Z</time>
      </trkpt>
      <trkpt lat="50.50812" lon="1.61271">
        <ele>11.4</ele>
        <time>2020-06-22T07:34:40Z</time>
      </trkpt>
      <trkpt lat="50.50814" lon="1.6128">
        <ele>11.3</ele>
        <time>2020-06-22T07:34:41Z</time>
      </trkpt>
      <trkpt lat="50.50815" lon="1.61289">
        <ele>11.3</ele>
        <time>2020-06-22T07:34:42Z</time>
      </trkpt>
      <trkpt lat="50.50816" lon="1.61298">
        <ele>11.3</ele>
        <time>2020-06-22T07:34:43Z</time>
      </trkpt>
      <trkpt lat="50.50817" lon="1.61307">
        <ele>11.2</ele>
        <time>2020-06-22T07:34:44Z</time>
      </trkpt>
      <trkpt lat="50.50817" lon="1.61314">
        <ele>11.2</ele>
        <time>2020-06-22T07:34:45Z</time>
      </trkpt>
      <trkpt lat="50.50818" lon="1.61322">
        <ele>11.1</ele>
        <time>2020-06-22T07:34:46Z</time>
      </trkpt>
      <trkpt lat="50.50819" lon="1.6133">
        <ele>11.1</ele>
        <time>2020-06-22T07:34:47Z</time>
      </trkpt>
      <trkpt lat="50.5082" lon="1.6134">
        <ele>11.1</ele>
        <time>2020-06-22T07:34:48Z</time>
      </trkpt>
      <trkpt lat="50.50821" lon="1.61348">
        <ele>11.1</ele>
        <time>2020-06-22T07:34:49Z</time>
      </trkpt>
      <trkpt lat="50.50821" lon="1.61357">
        <ele>11.1</ele>
        <time>2020-06-22T07:34:50Z</time>
      </trkpt>
      <trkpt lat="50.50822" lon="1.61367">
        <ele>11</ele>
        <time>2020-06-22T07:34:51Z</time>
      </trkpt>
      <trkpt lat="50.50824" lon="1.61375">
        <ele>11</ele>
        <time>2020-06-22T07:34:52Z</time>
      </trkpt>
      <trkpt lat="50.50826" lon="1.61385">
        <ele>10.9</ele>
        <time>2020-06-22T07:34:53Z</time>
      </trkpt>
      <trkpt lat="50.50828" lon="1.61393">
        <ele>10.9</ele>
        <time>2020-06-22T07:34:54Z</time>
      </trkpt>
      <trkpt lat="50.5083" lon="1.61402">
        <ele>10.9</ele>
        <time>2020-06-22T07:34:55Z</time>
      </trkpt>
      <trkpt lat="50.50832" lon="1.6141">
        <ele>10.8</ele>
        <time>2020-06-22T07:34:56Z</time>
      </trkpt>
      <trkpt lat="50.50834" lon="1.6142">
        <ele>10.8</ele>
        <time>2020-06-22T07:34:57Z</time>
      </trkpt>
      <trkpt lat="50.50836" lon="1.6143">
        <ele>10.7</ele>
        <time>2020-06-22T07:34:58Z</time>
      </trkpt>
      <trkpt lat="50.50837" lon="1.6144">
        <ele>10.7</ele>
        <time>2020-06-22T07:34:59Z</time>
      </trkpt>
      <trkpt lat="50.50839" lon="1.61451">
        <ele>10.6</ele>
        <time>2020-06-22T07:35:00Z</time>
      </trkpt>
      <trkpt lat="50.50841" lon="1.61461">
        <ele>10.6</ele>
        <time>2020-06-22T07:35:01Z</time>
      </trkpt>
      <trkpt lat="50.50843" lon="1.61471">
        <ele>10.5</ele>
        <time>2020-06-22T07:35:02Z</time>
      </trkpt>
      <trkpt lat="50.50847" lon="1.61482">
        <ele>10.5</ele>
        <time>2020-06-22T07:35:03Z</time>
      </trkpt>
      <trkpt lat="50.50851" lon="1.61492">
        <ele>10.4</ele>
        <time>2020-06-22T07:35:04Z</time>
      </trkpt>
      <trkpt lat="50.50854" lon="1.61505">
        <ele>10.3</ele>
        <time>2020-06-22T07:35:05Z</time>
      </trkpt>
      <trkpt lat="50.50857" lon="1.61517">
        <ele>10.3</ele>
        <time>2020-06-22T07:35:06Z</time>
      </trkpt>
      <trkpt lat="50.5086" lon="1.61529">
        <ele>10.2</ele>
        <time>2020-06-22T07:35:07Z</time>
      </trkpt>
      <trkpt lat="50.50862" lon="1.61541">
        <ele>10.1</ele>
        <time>2020-06-22T07:35:08Z</time>
      </trkpt>
      <trkpt lat="50.50865" lon="1.61553">
        <ele>10.1</ele>
        <time>2020-06-22T07:35:09Z</time>
      </trkpt>
      <trkpt lat="50.50868" lon="1.61564">
        <ele>10</ele>
        <time>2020-06-22T07:35:10Z</time>
      </trkpt>
      <trkpt lat="50.50871" lon="1.61578">
        <ele>9.9</ele>
        <time>2020-06-22T07:35:11Z</time>
      </trkpt>
      <trkpt lat="50.50874" lon="1.61591">
        <ele>9.8</ele>
        <time>2020-06-22T07:35:12Z</time>
      </trkpt>
      <trkpt lat="50.50878" lon="1.61605">
        <ele>9.7</ele>
        <time>2020-06-22T07:35:13Z</time>
      </trkpt>
      <trkpt lat="50.50881" lon="1.61618">
        <ele>9.6</ele>
        <time>2020-06-22T07:35:14Z</time>
      </trkpt>
      <trkpt lat="50.50884" lon="1.61631">
        <ele>9.6</ele>
        <time>2020-06-22T07:35:15Z</time>
      </trkpt>
      <trkpt lat="50.50887" lon="1.61644">
        <ele>9.5</ele>
        <time>2020-06-22T07:35:16Z</time>
      </trkpt>
      <trkpt lat="50.5089" lon="1.61657">
        <ele>9.5</ele>
        <time>2020-06-22T07:35:17Z</time>
      </trkpt>
      <trkpt lat="50.50893" lon="1.6167">
        <ele>9.5</ele>
        <time>2020-06-22T07:35:18Z</time>
      </trkpt>
      <trkpt lat="50.50896" lon="1.61683">
        <ele>9.5</ele>
        <time>2020-06-22T07:35:19Z</time>
      </trkpt>
      <trkpt lat="50.50899" lon="1.61696">
        <ele>9.5</ele>
        <time>2020-06-22T07:35:20Z</time>
      </trkpt>
      <trkpt lat="50.50902" lon="1.61709">
        <ele>9.4</ele>
        <time>2020-06-22T07:35:21Z</time>
      </trkpt>
      <trkpt lat="50.50904" lon="1.61722">
        <ele>9.4</ele>
        <time>2020-06-22T07:35:22Z</time>
      </trkpt>
      <trkpt lat="50.50906" lon="1.61735">
        <ele>9.4</ele>
        <time>2020-06-22T07:35:23Z</time>
      </trkpt>
      <trkpt lat="50.50909" lon="1.61748">
        <ele>9.4</ele>
        <time>2020-06-22T07:35:24Z</time>
      </trkpt>
      <trkpt lat="50.50912" lon="1.61761">
        <ele>9.4</ele>
        <time>2020-06-22T07:35:25Z</time>
      </trkpt>
      <trkpt lat="50.50914" lon="1.61773">
        <ele>9.4</ele>
        <time>2020-06-22T07:35:26Z</time>
      </trkpt>
      <trkpt lat="50.50917" lon="1.61786">
        <ele>9.3</ele>
        <time>2020-06-22T07:35:27Z</time>
      </trkpt>
      <trkpt lat="50.5092" lon="1.61799">
        <ele>9.3</ele>
        <time>2020-06-22T07:35:28Z</time>
      </trkpt>
      <trkpt lat="50.50922" lon="1.61813">
        <ele>9.2</ele>
        <time>2020-06-22T07:35:29Z</time>
      </trkpt>
      <trkpt lat="50.50924" lon="1.61825">
        <ele>9.1</ele>
        <time>2020-06-22T07:35:30Z</time>
      </trkpt>
      <trkpt lat="50.50926" lon="1.61837">
        <ele>9.1</ele>
        <time>2020-06-22T07:35:31Z</time>
      </trkpt>
      <trkpt lat="50.50927" lon="1.6185">
        <ele>9.1</ele>
        <time>2020-06-22T07:35:32Z</time>
      </trkpt>
      <trkpt lat="50.50928" lon="1.61862">
        <ele>9</ele>
        <time>2020-06-22T07:35:33Z</time>
      </trkpt>
      <trkpt lat="50.5093" lon="1.61872">
        <ele>9</ele>
        <time>2020-06-22T07:35:34Z</time>
      </trkpt>
      <trkpt lat="50.50931" lon="1.61881">
        <ele>9</ele>
        <time>2020-06-22T07:35:35Z</time>
      </trkpt>
      <trkpt lat="50.50932" lon="1.6189">
        <ele>9</ele>
        <time>2020-06-22T07:35:36Z</time>
      </trkpt>
      <trkpt lat="50.50933" lon="1.619">
        <ele>8.9</ele>
        <time>2020-06-22T07:35:37Z</time>
      </trkpt>
      <trkpt lat="50.50934" lon="1.61909">
        <ele>8.9</ele>
        <time>2020-06-22T07:35:38Z</time>
      </trkpt>
      <trkpt lat="50.50936" lon="1.61919">
        <ele>8.8</ele>
        <time>2020-06-22T07:35:39Z</time>
      </trkpt>
      <trkpt lat="50.50937" lon="1.6193">
        <ele>8.8</ele>
        <time>2020-06-22T07:35:40Z</time>
      </trkpt>
      <trkpt lat="50.50938" lon="1.6194">
        <ele>8.8</ele>
        <time>2020-06-22T07:35:41Z</time>
      </trkpt>
      <trkpt lat="50.5094" lon="1.61949">
        <ele>8.8</ele>
        <time>2020-06-22T07:35:42Z</time>
      </trkpt>
      <trkpt lat="50.50942" lon="1.61958">
        <ele>8.7</ele>
        <time>2020-06-22T07:35:43Z</time>
      </trkpt>
      <trkpt lat="50.50943" lon="1.61967">
        <ele>8.7</ele>
        <time>2020-06-22T07:35:44Z</time>
      </trkpt>
      <trkpt lat="50.50943" lon="1.61977">
        <ele>8.7</ele>
        <time>2020-06-22T07:35:45Z</time>
      </trkpt>
      <trkpt lat="50.50944" lon="1.61987">
        <ele>8.7</ele>
        <time>2020-06-22T07:35:46Z</time>
      </trkpt>
      <trkpt lat="50.50945" lon="1.61997">
        <ele>8.7</ele>
        <time>2020-06-22T07:35:47Z</time>
      </trkpt>
      <trkpt lat="50.50946" lon="1.62006">
        <ele>8.7</ele>
        <time>2020-06-22T07:35:48Z</time>
      </trkpt>
      <trkpt lat="50.50946" lon="1.62014">
        <ele>8.7</ele>
        <time>2020-06-22T07:35:49Z</time>
      </trkpt>
      <trkpt lat="50.50947" lon="1.62022">
        <ele>8.6</ele>
        <time>2020-06-22T07:35:50Z</time>
      </trkpt>
      <trkpt lat="50.50947" lon="1.62029">
        <ele>8.6</ele>
        <time>2020-06-22T07:35:51Z</time>
      </trkpt>
      <trkpt lat="50.50947" lon="1.62036">
        <ele>8.6</ele>
        <time>2020-06-22T07:35:52Z</time>
      </trkpt>
      <trkpt lat="50.50947" lon="1.62043">
        <ele>8.5</ele>
        <time>2020-06-22T07:35:53Z</time>
      </trkpt>
      <trkpt lat="50.50947" lon="1.6205">
        <ele>8.5</ele>
        <time>2020-06-22T07:35:54Z</time>
      </trkpt>
      <trkpt lat="50.50947" lon="1.62058">
        <ele>8.5</ele>
        <time>2020-06-22T07:35:55Z</time>
      </trkpt>
      <trkpt lat="50.50948" lon="1.62066">
        <ele>8.5</ele>
        <time>2020-06-22T07:35:56Z</time>
      </trkpt>
      <trkpt lat="50.50949" lon="1.62076">
        <ele>8.5</ele>
        <time>2020-06-22T07:35:57Z</time>
      </trkpt>
      <trkpt lat="50.5095" lon="1.62085">
        <ele>8.5</ele>
        <time>2020-06-22T07:35:58Z</time>
      </trkpt>
      <trkpt lat="50.5095" lon="1.62094">
        <ele>8.5</ele>
        <time>2020-06-22T07:35:59Z</time>
      </trkpt>
      <trkpt lat="50.50951" lon="1.62102">
        <ele>8.5</ele>
        <time>2020-06-22T07:36:00Z</time>
      </trkpt>
      <trkpt lat="50.5095" lon="1.6211">
        <ele>8.5</ele>
        <time>2020-06-22T07:36:01Z</time>
      </trkpt>
      <trkpt lat="50.5095" lon="1.62118">
        <ele>8.5</ele>
        <time>2020-06-22T07:36:02Z</time>
      </trkpt>
      <trkpt lat="50.50951" lon="1.62126">
        <ele>8.5</ele>
        <time>2020-06-22T07:36:03Z</time>
      </trkpt>
      <trkpt lat="50.50949" lon="1.62133">
        <ele>8.5</ele>
        <time>2020-06-22T07:36:04Z</time>
      </trkpt>
      <trkpt lat="50.50947" lon="1.62139">
        <ele>8.5</ele>
        <time>2020-06-22T07:36:05Z</time>
      </trkpt>
      <trkpt lat="50.50944" lon="1.62143">
        <ele>8.5</ele>
        <time>2020-06-22T07:36:06Z</time>
      </trkpt>
      <trkpt lat="50.5094" lon="1.62149">
        <ele>8.4</ele>
        <time>2020-06-22T07:36:07Z</time>
      </trkpt>
      <trkpt lat="50.50939" lon="1.62157">
        <ele>8.4</ele>
        <time>2020-06-22T07:36:08Z</time>
      </trkpt>
      <trkpt lat="50.50939" lon="1.62165">
        <ele>8.5</ele>
        <time>2020-06-22T07:36:09Z</time>
      </trkpt>
      <trkpt lat="50.5094" lon="1.62172">
        <ele>8.4</ele>
        <time>2020-06-22T07:36:10Z</time>
      </trkpt>
      <trkpt lat="50.50943" lon="1.62178">
        <ele>8.4</ele>
        <time>2020-06-22T07:36:11Z</time>
      </trkpt>
      <trkpt lat="50.50946" lon="1.62185">
        <ele>8.3</ele>
        <time>2020-06-22T07:36:12Z</time>
      </trkpt>
      <trkpt lat="50.50948" lon="1.62193">
        <ele>8.3</ele>
        <time>2020-06-22T07:36:13Z</time>
      </trkpt>
      <trkpt lat="50.50951" lon="1.62201">
        <ele>8.2</ele>
        <time>2020-06-22T07:36:14Z</time>
      </trkpt>
      <trkpt lat="50.5095" lon="1.62209">
        <ele>8.2</ele>
        <time>2020-06-22T07:36:15Z</time>
      </trkpt>
      <trkpt lat="50.50951" lon="1.62216">
        <ele>8.2</ele>
        <time>2020-06-22T07:36:16Z</time>
      </trkpt>
      <trkpt lat="50.5095" lon="1.62224">
        <ele>8.2</ele>
        <time>2020-06-22T07:36:17Z</time>
      </trkpt>
      <trkpt lat="50.50948" lon="1.62231">
        <ele>8.1</ele>
        <time>2020-06-22T07:36:18Z</time>
      </trkpt>
      <trkpt lat="50.50947" lon="1.62237">
        <ele>8.1</ele>
        <time>2020-06-22T07:36:19Z</time>
      </trkpt>
      <trkpt lat="50.50947" lon="1.62245">
        <ele>8</ele>
        <time>2020-06-22T07:36:20Z</time>
      </trkpt>
      <trkpt lat="50.50946" lon="1.62252">
        <ele>7.9</ele>
        <time>2020-06-22T07:36:21Z</time>
      </trkpt>
      <trkpt lat="50.50945" lon="1.62259">
        <ele>7.9</ele>
        <time>2020-06-22T07:36:22Z</time>
      </trkpt>
      <trkpt lat="50.50945" lon="1.62266">
        <ele>7.8</ele>
        <time>2020-06-22T07:36:23Z</time>
      </trkpt>
      <trkpt lat="50.50944" lon="1.62272">
        <ele>7.8</ele>
        <time>2020-06-22T07:36:24Z</time>
      </trkpt>
      <trkpt lat="50.50944" lon="1.62279">
        <ele>7.7</ele>
        <time>2020-06-22T07:36:25Z</time>
      </trkpt>
      <trkpt lat="50.50944" lon="1.62285">
        <ele>7.7</ele>
        <time>2020-06-22T07:36:26Z</time>
      </trkpt>
      <trkpt lat="50.50943" lon="1.62292">
        <ele>7.7</ele>
        <time>2020-06-22T07:36:27Z</time>
      </trkpt>
      <trkpt lat="50.50944" lon="1.623">
        <ele>7.6</ele>
        <time>2020-06-22T07:36:28Z</time>
      </trkpt>
      <trkpt lat="50.50945" lon="1.62309">
        <ele>7.6</ele>
        <time>2020-06-22T07:36:29Z</time>
      </trkpt>
      <trkpt lat="50.50946" lon="1.62318">
        <ele>7.5</ele>
        <time>2020-06-22T07:36:30Z</time>
      </trkpt>
      <trkpt lat="50.50947" lon="1.62328">
        <ele>7.4</ele>
        <time>2020-06-22T07:36:31Z</time>
      </trkpt>
      <trkpt lat="50.50946" lon="1.62337">
        <ele>7.3</ele>
        <time>2020-06-22T07:36:32Z</time>
      </trkpt>
      <trkpt lat="50.50945" lon="1.62346">
        <ele>7.3</ele>
        <time>2020-06-22T07:36:33Z</time>
      </trkpt>
      <trkpt lat="50.50945" lon="1.62355">
        <ele>7.2</ele>
        <time>2020-06-22T07:36:34Z</time>
      </trkpt>
      <trkpt lat="50.50945" lon="1.62365">
        <ele>7.1</ele>
        <time>2020-06-22T07:36:35Z</time>
      </trkpt>
      <trkpt lat="50.50945" lon="1.62374">
        <ele>7</ele>
        <time>2020-06-22T07:36:36Z</time>
      </trkpt>
      <trkpt lat="50.50944" lon="1.62384">
        <ele>7</ele>
        <time>2020-06-22T07:36:37Z</time>
      </trkpt>
      <trkpt lat="50.50944" lon="1.62393">
        <ele>6.9</ele>
        <time>2020-06-22T07:36:38Z</time>
      </trkpt>
      <trkpt lat="50.50944" lon="1.62401">
        <ele>6.9</ele>
        <time>2020-06-22T07:36:39Z</time>
      </trkpt>
      <trkpt lat="50.50944" lon="1.6241">
        <ele>6.8</ele>
        <time>2020-06-22T07:36:40Z</time>
      </trkpt>
      <trkpt lat="50.50944" lon="1.62418">
        <ele>6.8</ele>
        <time>2020-06-22T07:36:41Z</time>
      </trkpt>
      <trkpt lat="50.50944" lon="1.62426">
        <ele>6.8</ele>
        <time>2020-06-22T07:36:42Z</time>
      </trkpt>
      <trkpt lat="50.50944" lon="1.62435">
        <ele>6.8</ele>
        <time>2020-06-22T07:36:43Z</time>
      </trkpt>
      <trkpt lat="50.50943" lon="1.62443">
        <ele>6.7</ele>
        <time>2020-06-22T07:36:44Z</time>
      </trkpt>
      <trkpt lat="50.50943" lon="1.62452">
        <ele>6.7</ele>
        <time>2020-06-22T07:36:45Z</time>
      </trkpt>
      <trkpt lat="50.50942" lon="1.62461">
        <ele>6.6</ele>
        <time>2020-06-22T07:36:46Z</time>
      </trkpt>
      <trkpt lat="50.50942" lon="1.62471">
        <ele>6.5</ele>
        <time>2020-06-22T07:36:47Z</time>
      </trkpt>
      <trkpt lat="50.50942" lon="1.6248">
        <ele>6.5</ele>
        <time>2020-06-22T07:36:48Z</time>
      </trkpt>
      <trkpt lat="50.50941" lon="1.6249">
        <ele>6.4</ele>
        <time>2020-06-22T07:36:49Z</time>
      </trkpt>
      <trkpt lat="50.50941" lon="1.62499">
        <ele>6.4</ele>
        <time>2020-06-22T07:36:50Z</time>
      </trkpt>
      <trkpt lat="50.5094" lon="1.62509">
        <ele>6.4</ele>
        <time>2020-06-22T07:36:51Z</time>
      </trkpt>
      <trkpt lat="50.50939" lon="1.62518">
        <ele>6.3</ele>
        <time>2020-06-22T07:36:52Z</time>
      </trkpt>
      <trkpt lat="50.50939" lon="1.62527">
        <ele>6.3</ele>
        <time>2020-06-22T07:36:53Z</time>
      </trkpt>
      <trkpt lat="50.50939" lon="1.62535">
        <ele>6.2</ele>
        <time>2020-06-22T07:36:54Z</time>
      </trkpt>
      <trkpt lat="50.50938" lon="1.62543">
        <ele>6.2</ele>
        <time>2020-06-22T07:36:55Z</time>
      </trkpt>
      <trkpt lat="50.50938" lon="1.62551">
        <ele>6.1</ele>
        <time>2020-06-22T07:36:56Z</time>
      </trkpt>
      <trkpt lat="50.50937" lon="1.6256">
        <ele>6.1</ele>
        <time>2020-06-22T07:36:57Z</time>
      </trkpt>
      <trkpt lat="50.50937" lon="1.62569">
        <ele>6</ele>
        <time>2020-06-22T07:36:58Z</time>
      </trkpt>
      <trkpt lat="50.50938" lon="1.62577">
        <ele>6</ele>
        <time>2020-06-22T07:36:59Z</time>
      </trkpt>
      <trkpt lat="50.50938" lon="1.62586">
        <ele>6</ele>
        <time>2020-06-22T07:37:00Z</time>
      </trkpt>
      <trkpt lat="50.50939" lon="1.62595">
        <ele>5.9</ele>
        <time>2020-06-22T07:37:01Z</time>
      </trkpt>
      <trkpt lat="50.50939" lon="1.62604">
        <ele>5.9</ele>
        <time>2020-06-22T07:37:02Z</time>
      </trkpt>
      <trkpt lat="50.50939" lon="1.62613">
        <ele>5.9</ele>
        <time>2020-06-22T07:37:03Z</time>
      </trkpt>
      <trkpt lat="50.50941" lon="1.62623">
        <ele>5.9</ele>
        <time>2020-06-22T07:37:04Z</time>
      </trkpt>
      <trkpt lat="50.50941" lon="1.62632">
        <ele>5.9</ele>
        <time>2020-06-22T07:37:05Z</time>
      </trkpt>
      <trkpt lat="50.50942" lon="1.62641">
        <ele>5.9</ele>
        <time>2020-06-22T07:37:06Z</time>
      </trkpt>
      <trkpt lat="50.50943" lon="1.6265">
        <ele>5.9</ele>
        <time>2020-06-22T07:37:07Z</time>
      </trkpt>
      <trkpt lat="50.50944" lon="1.6266">
        <ele>5.9</ele>
        <time>2020-06-22T07:37:08Z</time>
      </trkpt>
      <trkpt lat="50.50945" lon="1.62668">
        <ele>5.9</ele>
        <time>2020-06-22T07:37:09Z</time>
      </trkpt>
      <trkpt lat="50.50946" lon="1.62676">
        <ele>5.9</ele>
        <time>2020-06-22T07:37:10Z</time>
      </trkpt>
      <trkpt lat="50.50945" lon="1.62682">
        <ele>5.9</ele>
        <time>2020-06-22T07:37:11Z</time>
      </trkpt>
      <trkpt lat="50.50945" lon="1.62687">
        <ele>5.9</ele>
        <time>2020-06-22T07:37:12Z</time>
      </trkpt>
      <trkpt lat="50.50944" lon="1.62692">
        <ele>5.9</ele>
        <time>2020-06-22T07:37:13Z</time>
      </trkpt>
      <trkpt lat="50.50945" lon="1.62697">
        <ele>5.9</ele>
        <time>2020-06-22T07:37:14Z</time>
      </trkpt>
      <trkpt lat="50.50947" lon="1.62701">
        <ele>6</ele>
        <time>2020-06-22T07:37:15Z</time>
      </trkpt>
      <trkpt lat="50.5095" lon="1.62706">
        <ele>6</ele>
        <time>2020-06-22T07:37:16Z</time>
      </trkpt>
      <trkpt lat="50.50951" lon="1.62712">
        <ele>6</ele>
        <time>2020-06-22T07:37:17Z</time>
      </trkpt>
      <trkpt lat="50.50951" lon="1.62719">
        <ele>5.9</ele>
        <time>2020-06-22T07:37:18Z</time>
      </trkpt>
      <trkpt lat="50.50951" lon="1.62726">
        <ele>5.9</ele>
        <time>2020-06-22T07:37:19Z</time>
      </trkpt>
      <trkpt lat="50.50952" lon="1.62734">
        <ele>5.8</ele>
        <time>2020-06-22T07:37:20Z</time>
      </trkpt>
      <trkpt lat="50.50954" lon="1.62742">
        <ele>5.8</ele>
        <time>2020-06-22T07:37:21Z</time>
      </trkpt>
      <trkpt lat="50.50954" lon="1.6275">
        <ele>5.8</ele>
        <time>2020-06-22T07:37:22Z</time>
      </trkpt>
      <trkpt lat="50.50956" lon="1.62759">
        <ele>5.7</ele>
        <time>2020-06-22T07:37:23Z</time>
      </trkpt>
      <trkpt lat="50.50957" lon="1.62768">
        <ele>5.7</ele>
        <time>2020-06-22T07:37:24Z</time>
      </trkpt>
      <trkpt lat="50.50958" lon="1.62777">
        <ele>5.7</ele>
        <time>2020-06-22T07:37:25Z</time>
      </trkpt>
      <trkpt lat="50.50959" lon="1.62787">
        <ele>5.7</ele>
        <time>2020-06-22T07:37:26Z</time>
      </trkpt>
      <trkpt lat="50.5096" lon="1.62796">
        <ele>5.7</ele>
        <time>2020-06-22T07:37:27Z</time>
      </trkpt>
      <trkpt lat="50.50961" lon="1.62805">
        <ele>5.7</ele>
        <time>2020-06-22T07:37:28Z</time>
      </trkpt>
      <trkpt lat="50.50962" lon="1.62815">
        <ele>5.8</ele>
        <time>2020-06-22T07:37:29Z</time>
      </trkpt>
      <trkpt lat="50.50964" lon="1.62824">
        <ele>5.8</ele>
        <time>2020-06-22T07:37:30Z</time>
      </trkpt>
      <trkpt lat="50.50964" lon="1.62836">
        <ele>5.8</ele>
        <time>2020-06-22T07:37:31Z</time>
      </trkpt>
      <trkpt lat="50.50965" lon="1.62846">
        <ele>5.9</ele>
        <time>2020-06-22T07:37:32Z</time>
      </trkpt>
      <trkpt lat="50.50966" lon="1.62856">
        <ele>5.9</ele>
        <time>2020-06-22T07:37:33Z</time>
      </trkpt>
      <trkpt lat="50.50967" lon="1.62866">
        <ele>5.9</ele>
        <time>2020-06-22T07:37:34Z</time>
      </trkpt>
      <trkpt lat="50.50968" lon="1.62876">
        <ele>5.8</ele>
        <time>2020-06-22T07:37:35Z</time>
      </trkpt>
      <trkpt lat="50.50969" lon="1.62885">
        <ele>5.8</ele>
        <time>2020-06-22T07:37:36Z</time>
      </trkpt>
      <trkpt lat="50.5097" lon="1.62895">
        <ele>5.8</ele>
        <time>2020-06-22T07:37:37Z</time>
      </trkpt>
      <trkpt lat="50.5097" lon="1.62906">
        <ele>5.8</ele>
        <time>2020-06-22T07:37:38Z</time>
      </trkpt>
      <trkpt lat="50.50972" lon="1.62915">
        <ele>5.8</ele>
        <time>2020-06-22T07:37:39Z</time>
      </trkpt>
      <trkpt lat="50.50973" lon="1.62925">
        <ele>5.8</ele>
        <time>2020-06-22T07:37:40Z</time>
      </trkpt>
      <trkpt lat="50.50974" lon="1.62935">
        <ele>5.8</ele>
        <time>2020-06-22T07:37:41Z</time>
      </trkpt>
      <trkpt lat="50.50976" lon="1.62945">
        <ele>5.9</ele>
        <time>2020-06-22T07:37:42Z</time>
      </trkpt>
      <trkpt lat="50.50977" lon="1.62955">
        <ele>5.8</ele>
        <time>2020-06-22T07:37:43Z</time>
      </trkpt>
      <trkpt lat="50.50978" lon="1.62965">
        <ele>5.8</ele>
        <time>2020-06-22T07:37:44Z</time>
      </trkpt>
      <trkpt lat="50.50979" lon="1.62975">
        <ele>5.8</ele>
        <time>2020-06-22T07:37:45Z</time>
      </trkpt>
      <trkpt lat="50.5098" lon="1.62985">
        <ele>5.8</ele>
        <time>2020-06-22T07:37:46Z</time>
      </trkpt>
      <trkpt lat="50.50981" lon="1.62995">
        <ele>5.8</ele>
        <time>2020-06-22T07:37:47Z</time>
      </trkpt>
      <trkpt lat="50.50982" lon="1.63006">
        <ele>5.8</ele>
        <time>2020-06-22T07:37:48Z</time>
      </trkpt>
      <trkpt lat="50.50982" lon="1.63016">
        <ele>5.9</ele>
        <time>2020-06-22T07:37:49Z</time>
      </trkpt>
      <trkpt lat="50.50983" lon="1.63026">
        <ele>5.9</ele>
        <time>2020-06-22T07:37:50Z</time>
      </trkpt>
      <trkpt lat="50.50983" lon="1.63036">
        <ele>6</ele>
        <time>2020-06-22T07:37:51Z</time>
      </trkpt>
      <trkpt lat="50.50984" lon="1.63046">
        <ele>6</ele>
        <time>2020-06-22T07:37:52Z</time>
      </trkpt>
      <trkpt lat="50.50985" lon="1.63054">
        <ele>6.1</ele>
        <time>2020-06-22T07:37:53Z</time>
      </trkpt>
      <trkpt lat="50.50985" lon="1.63063">
        <ele>6.2</ele>
        <time>2020-06-22T07:37:54Z</time>
      </trkpt>
      <trkpt lat="50.50984" lon="1.6307">
        <ele>6.2</ele>
        <time>2020-06-22T07:37:55Z</time>
      </trkpt>
      <trkpt lat="50.50984" lon="1.63076">
        <ele>6.3</ele>
        <time>2020-06-22T07:37:56Z</time>
      </trkpt>
      <trkpt lat="50.50983" lon="1.63081">
        <ele>6.3</ele>
        <time>2020-06-22T07:37:57Z</time>
      </trkpt>
      <trkpt lat="50.50983" lon="1.63082">
        <ele>6.3</ele>
        <time>2020-06-22T07:37:58Z</time>
      </trkpt>
      <trkpt lat="50.5098" lon="1.63087">
        <ele>6.3</ele>
        <time>2020-06-22T07:37:59Z</time>
      </trkpt>
      <trkpt lat="50.50979" lon="1.63089">
        <ele>6.3</ele>
        <time>2020-06-22T07:38:00Z</time>
      </trkpt>
      <trkpt lat="50.50977" lon="1.63093">
        <ele>6.3</ele>
        <time>2020-06-22T07:38:01Z</time>
      </trkpt>
      <trkpt lat="50.50974" lon="1.63098">
        <ele>6.3</ele>
        <time>2020-06-22T07:38:02Z</time>
      </trkpt>
      <trkpt lat="50.50971" lon="1.63103">
        <ele>6.3</ele>
        <time>2020-06-22T07:38:03Z</time>
      </trkpt>
      <trkpt lat="50.50968" lon="1.63109">
        <ele>6.7</ele>
        <time>2020-06-22T07:38:04Z</time>
      </trkpt>
      <trkpt lat="50.50966" lon="1.63116">
        <ele>6.6</ele>
        <time>2020-06-22T07:38:05Z</time>
      </trkpt>
      <trkpt lat="50.50965" lon="1.63125">
        <ele>6.5</ele>
        <time>2020-06-22T07:38:06Z</time>
      </trkpt>
      <trkpt lat="50.50965" lon="1.63133">
        <ele>6.4</ele>
        <time>2020-06-22T07:38:07Z</time>
      </trkpt>
      <trkpt lat="50.50967" lon="1.6314">
        <ele>6.3</ele>
        <time>2020-06-22T07:38:08Z</time>
      </trkpt>
      <trkpt lat="50.5097" lon="1.63145">
        <ele>6.2</ele>
        <time>2020-06-22T07:38:09Z</time>
      </trkpt>
      <trkpt lat="50.50974" lon="1.63151">
        <ele>6.1</ele>
        <time>2020-06-22T07:38:10Z</time>
      </trkpt>
      <trkpt lat="50.50978" lon="1.63154">
        <ele>6.1</ele>
        <time>2020-06-22T07:38:11Z</time>
      </trkpt>
      <trkpt lat="50.50983" lon="1.63156">
        <ele>6</ele>
        <time>2020-06-22T07:38:12Z</time>
      </trkpt>
      <trkpt lat="50.50988" lon="1.63158">
        <ele>6</ele>
        <time>2020-06-22T07:38:13Z</time>
      </trkpt>
      <trkpt lat="50.50994" lon="1.63159">
        <ele>6</ele>
        <time>2020-06-22T07:38:14Z</time>
      </trkpt>
      <trkpt lat="50.50999" lon="1.63162">
        <ele>5.9</ele>
        <time>2020-06-22T07:38:15Z</time>
      </trkpt>
      <trkpt lat="50.51004" lon="1.63166">
        <ele>5.9</ele>
        <time>2020-06-22T07:38:16Z</time>
      </trkpt>
      <trkpt lat="50.51008" lon="1.63172">
        <ele>5.9</ele>
        <time>2020-06-22T07:38:17Z</time>
      </trkpt>
      <trkpt lat="50.51012" lon="1.6318">
        <ele>5.8</ele>
        <time>2020-06-22T07:38:18Z</time>
      </trkpt>
      <trkpt lat="50.51016" lon="1.63188">
        <ele>5.8</ele>
        <time>2020-06-22T07:38:19Z</time>
      </trkpt>
      <trkpt lat="50.5102" lon="1.63196">
        <ele>5.8</ele>
        <time>2020-06-22T07:38:20Z</time>
      </trkpt>
      <trkpt lat="50.51025" lon="1.63204">
        <ele>5.8</ele>
        <time>2020-06-22T07:38:21Z</time>
      </trkpt>
      <trkpt lat="50.51028" lon="1.63212">
        <ele>5.8</ele>
        <time>2020-06-22T07:38:22Z</time>
      </trkpt>
      <trkpt lat="50.51032" lon="1.6322">
        <ele>5.9</ele>
        <time>2020-06-22T07:38:23Z</time>
      </trkpt>
      <trkpt lat="50.51036" lon="1.63228">
        <ele>6</ele>
        <time>2020-06-22T07:38:24Z</time>
      </trkpt>
      <trkpt lat="50.5104" lon="1.63236">
        <ele>6.1</ele>
        <time>2020-06-22T07:38:25Z</time>
      </trkpt>
      <trkpt lat="50.51045" lon="1.63244">
        <ele>6.1</ele>
        <time>2020-06-22T07:38:26Z</time>
      </trkpt>
      <trkpt lat="50.51049" lon="1.63253">
        <ele>6.1</ele>
        <time>2020-06-22T07:38:27Z</time>
      </trkpt>
      <trkpt lat="50.51053" lon="1.63261">
        <ele>6.2</ele>
        <time>2020-06-22T07:38:28Z</time>
      </trkpt>
      <trkpt lat="50.51057" lon="1.6327">
        <ele>6.2</ele>
        <time>2020-06-22T07:38:29Z</time>
      </trkpt>
      <trkpt lat="50.51061" lon="1.63278">
        <ele>6.2</ele>
        <time>2020-06-22T07:38:30Z</time>
      </trkpt>
      <trkpt lat="50.51065" lon="1.63286">
        <ele>6.3</ele>
        <time>2020-06-22T07:38:31Z</time>
      </trkpt>
      <trkpt lat="50.5107" lon="1.63294">
        <ele>6.3</ele>
        <time>2020-06-22T07:38:32Z</time>
      </trkpt>
      <trkpt lat="50.51075" lon="1.63302">
        <ele>6.3</ele>
        <time>2020-06-22T07:38:33Z</time>
      </trkpt>
      <trkpt lat="50.5108" lon="1.6331">
        <ele>6.3</ele>
        <time>2020-06-22T07:38:34Z</time>
      </trkpt>
      <trkpt lat="50.51085" lon="1.63317">
        <ele>6.4</ele>
        <time>2020-06-22T07:38:35Z</time>
      </trkpt>
      <trkpt lat="50.5109" lon="1.63324">
        <ele>6.4</ele>
        <time>2020-06-22T07:38:36Z</time>
      </trkpt>
      <trkpt lat="50.51095" lon="1.63331">
        <ele>6.5</ele>
        <time>2020-06-22T07:38:37Z</time>
      </trkpt>
      <trkpt lat="50.511" lon="1.63338">
        <ele>6.6</ele>
        <time>2020-06-22T07:38:38Z</time>
      </trkpt>
      <trkpt lat="50.51105" lon="1.63345">
        <ele>6.6</ele>
        <time>2020-06-22T07:38:39Z</time>
      </trkpt>
      <trkpt lat="50.5111" lon="1.63352">
        <ele>6.7</ele>
        <time>2020-06-22T07:38:40Z</time>
      </trkpt>
      <trkpt lat="50.51115" lon="1.63359">
        <ele>6.8</ele>
        <time>2020-06-22T07:38:41Z</time>
      </trkpt>
      <trkpt lat="50.5112" lon="1.63366">
        <ele>6.9</ele>
        <time>2020-06-22T07:38:42Z</time>
      </trkpt>
      <trkpt lat="50.51125" lon="1.63374">
        <ele>6.9</ele>
        <time>2020-06-22T07:38:43Z</time>
      </trkpt>
      <trkpt lat="50.5113" lon="1.63381">
        <ele>7</ele>
        <time>2020-06-22T07:38:44Z</time>
      </trkpt>
      <trkpt lat="50.51134" lon="1.63388">
        <ele>7.1</ele>
        <time>2020-06-22T07:38:45Z</time>
      </trkpt>
      <trkpt lat="50.51139" lon="1.63396">
        <ele>7.2</ele>
        <time>2020-06-22T07:38:46Z</time>
      </trkpt>
      <trkpt lat="50.51144" lon="1.63403">
        <ele>7.3</ele>
        <time>2020-06-22T07:38:47Z</time>
      </trkpt>
      <trkpt lat="50.5115" lon="1.6341">
        <ele>7.4</ele>
        <time>2020-06-22T07:38:48Z</time>
      </trkpt>
      <trkpt lat="50.51154" lon="1.63418">
        <ele>7.6</ele>
        <time>2020-06-22T07:38:49Z</time>
      </trkpt>
      <trkpt lat="50.51159" lon="1.63426">
        <ele>7.7</ele>
        <time>2020-06-22T07:38:50Z</time>
      </trkpt>
      <trkpt lat="50.51164" lon="1.63433">
        <ele>7.8</ele>
        <time>2020-06-22T07:38:51Z</time>
      </trkpt>
      <trkpt lat="50.51169" lon="1.63441">
        <ele>7.9</ele>
        <time>2020-06-22T07:38:52Z</time>
      </trkpt>
      <trkpt lat="50.51174" lon="1.63449">
        <ele>8</ele>
        <time>2020-06-22T07:38:53Z</time>
      </trkpt>
      <trkpt lat="50.51178" lon="1.63456">
        <ele>8.1</ele>
        <time>2020-06-22T07:38:54Z</time>
      </trkpt>
      <trkpt lat="50.51183" lon="1.63464">
        <ele>8.2</ele>
        <time>2020-06-22T07:38:55Z</time>
      </trkpt>
      <trkpt lat="50.51188" lon="1.63471">
        <ele>8.3</ele>
        <time>2020-06-22T07:38:56Z</time>
      </trkpt>
      <trkpt lat="50.51192" lon="1.63479">
        <ele>8.5</ele>
        <time>2020-06-22T07:38:57Z</time>
      </trkpt>
      <trkpt lat="50.51197" lon="1.63486">
        <ele>8.7</ele>
        <time>2020-06-22T07:38:58Z</time>
      </trkpt>
      <trkpt lat="50.51201" lon="1.63493">
        <ele>8.9</ele>
        <time>2020-06-22T07:38:59Z</time>
      </trkpt>
      <trkpt lat="50.51205" lon="1.63499">
        <ele>9</ele>
        <time>2020-06-22T07:39:00Z</time>
      </trkpt>
      <trkpt lat="50.51209" lon="1.63506">
        <ele>9.1</ele>
        <time>2020-06-22T07:39:01Z</time>
      </trkpt>
      <trkpt lat="50.51213" lon="1.63512">
        <ele>9.3</ele>
        <time>2020-06-22T07:39:02Z</time>
      </trkpt>
      <trkpt lat="50.51217" lon="1.63519">
        <ele>9.4</ele>
        <time>2020-06-22T07:39:03Z</time>
      </trkpt>
      <trkpt lat="50.51221" lon="1.63525">
        <ele>9.5</ele>
        <time>2020-06-22T07:39:04Z</time>
      </trkpt>
      <trkpt lat="50.51225" lon="1.63532">
        <ele>9.6</ele>
        <time>2020-06-22T07:39:05Z</time>
      </trkpt>
      <trkpt lat="50.5123" lon="1.6354">
        <ele>9.6</ele>
        <time>2020-06-22T07:39:06Z</time>
      </trkpt>
      <trkpt lat="50.51234" lon="1.63546">
        <ele>9.7</ele>
        <time>2020-06-22T07:39:07Z</time>
      </trkpt>
      <trkpt lat="50.51239" lon="1.63554">
        <ele>9.7</ele>
        <time>2020-06-22T07:39:08Z</time>
      </trkpt>
      <trkpt lat="50.51243" lon="1.63561">
        <ele>9.7</ele>
        <time>2020-06-22T07:39:09Z</time>
      </trkpt>
      <trkpt lat="50.51248" lon="1.63568">
        <ele>9.7</ele>
        <time>2020-06-22T07:39:10Z</time>
      </trkpt>
      <trkpt lat="50.51253" lon="1.63575">
        <ele>9.7</ele>
        <time>2020-06-22T07:39:11Z</time>
      </trkpt>
      <trkpt lat="50.51258" lon="1.63582">
        <ele>9.7</ele>
        <time>2020-06-22T07:39:12Z</time>
      </trkpt>
      <trkpt lat="50.51262" lon="1.63589">
        <ele>9.7</ele>
        <time>2020-06-22T07:39:13Z</time>
      </trkpt>
      <trkpt lat="50.51267" lon="1.63597">
        <ele>9.6</ele>
        <time>2020-06-22T07:39:14Z</time>
      </trkpt>
      <trkpt lat="50.51272" lon="1.63604">
        <ele>9.6</ele>
        <time>2020-06-22T07:39:15Z</time>
      </trkpt>
      <trkpt lat="50.51276" lon="1.63611">
        <ele>9.5</ele>
        <time>2020-06-22T07:39:16Z</time>
      </trkpt>
      <trkpt lat="50.51281" lon="1.63618">
        <ele>9.5</ele>
        <time>2020-06-22T07:39:17Z</time>
      </trkpt>
      <trkpt lat="50.51286" lon="1.63625">
        <ele>9.4</ele>
        <time>2020-06-22T07:39:18Z</time>
      </trkpt>
      <trkpt lat="50.5129" lon="1.63632">
        <ele>9.2</ele>
        <time>2020-06-22T07:39:19Z</time>
      </trkpt>
      <trkpt lat="50.51294" lon="1.63639">
        <ele>9.2</ele>
        <time>2020-06-22T07:39:20Z</time>
      </trkpt>
      <trkpt lat="50.51298" lon="1.63646">
        <ele>9.4</ele>
        <time>2020-06-22T07:39:21Z</time>
      </trkpt>
      <trkpt lat="50.51302" lon="1.63653">
        <ele>9.3</ele>
        <time>2020-06-22T07:39:22Z</time>
      </trkpt>
      <trkpt lat="50.51306" lon="1.63659">
        <ele>9.1</ele>
        <time>2020-06-22T07:39:23Z</time>
      </trkpt>
      <trkpt lat="50.51309" lon="1.63665">
        <ele>9.1</ele>
        <time>2020-06-22T07:39:24Z</time>
      </trkpt>
      <trkpt lat="50.51312" lon="1.63672">
        <ele>9.1</ele>
        <time>2020-06-22T07:39:25Z</time>
      </trkpt>
      <trkpt lat="50.51315" lon="1.63679">
        <ele>8.8</ele>
        <time>2020-06-22T07:39:26Z</time>
      </trkpt>
      <trkpt lat="50.51318" lon="1.63686">
        <ele>8.6</ele>
        <time>2020-06-22T07:39:27Z</time>
      </trkpt>
      <trkpt lat="50.51323" lon="1.63691">
        <ele>8.4</ele>
        <time>2020-06-22T07:39:28Z</time>
      </trkpt>
      <trkpt lat="50.51327" lon="1.63695">
        <ele>8.4</ele>
        <time>2020-06-22T07:39:29Z</time>
      </trkpt>
      <trkpt lat="50.51333" lon="1.63694">
        <ele>8.3</ele>
        <time>2020-06-22T07:39:30Z</time>
      </trkpt>
      <trkpt lat="50.51338" lon="1.63693">
        <ele>8.2</ele>
        <time>2020-06-22T07:39:31Z</time>
      </trkpt>
      <trkpt lat="50.51343" lon="1.63688">
        <ele>8.2</ele>
        <time>2020-06-22T07:39:32Z</time>
      </trkpt>
      <trkpt lat="50.51348" lon="1.63683">
        <ele>8.1</ele>
        <time>2020-06-22T07:39:33Z</time>
      </trkpt>
      <trkpt lat="50.51351" lon="1.63677">
        <ele>8</ele>
        <time>2020-06-22T07:39:34Z</time>
      </trkpt>
      <trkpt lat="50.51355" lon="1.63671">
        <ele>8</ele>
        <time>2020-06-22T07:39:35Z</time>
      </trkpt>
      <trkpt lat="50.51358" lon="1.63665">
        <ele>7.9</ele>
        <time>2020-06-22T07:39:36Z</time>
      </trkpt>
      <trkpt lat="50.51362" lon="1.6366">
        <ele>7.9</ele>
        <time>2020-06-22T07:39:37Z</time>
      </trkpt>
      <trkpt lat="50.51365" lon="1.63655">
        <ele>7.8</ele>
        <time>2020-06-22T07:39:38Z</time>
      </trkpt>
      <trkpt lat="50.51368" lon="1.63651">
        <ele>7.8</ele>
        <time>2020-06-22T07:39:39Z</time>
      </trkpt>
      <trkpt lat="50.51371" lon="1.63649">
        <ele>7.7</ele>
        <time>2020-06-22T07:39:40Z</time>
      </trkpt>
      <trkpt lat="50.51373" lon="1.63648">
        <ele>7.7</ele>
        <time>2020-06-22T07:39:41Z</time>
      </trkpt>
      <trkpt lat="50.51374" lon="1.63647">
        <ele>7.7</ele>
        <time>2020-06-22T07:39:42Z</time>
      </trkpt>
      <trkpt lat="50.51375" lon="1.63646">
        <ele>7.7</ele>
        <time>2020-06-22T07:39:43Z</time>
      </trkpt>
      <trkpt lat="50.51375" lon="1.63645">
        <ele>7.7</ele>
        <time>2020-06-22T07:39:44Z</time>
      </trkpt>
      <trkpt lat="50.51376" lon="1.63644">
        <ele>7.7</ele>
        <time>2020-06-22T07:39:45Z</time>
      </trkpt>
      <trkpt lat="50.51377" lon="1.63643">
        <ele>7.7</ele>
        <time>2020-06-22T07:39:46Z</time>
      </trkpt>
      <trkpt lat="50.51377" lon="1.63642">
        <ele>7.7</ele>
        <time>2020-06-22T07:39:47Z</time>
      </trkpt>
      <trkpt lat="50.51378" lon="1.63642">
        <ele>7.7</ele>
        <time>2020-06-22T07:39:48Z</time>
      </trkpt>
      <trkpt lat="50.51378" lon="1.63641">
        <ele>7.7</ele>
        <time>2020-06-22T07:39:49Z</time>
      </trkpt>
      <trkpt lat="50.51379" lon="1.6364">
        <ele>7.7</ele>
        <time>2020-06-22T07:39:50Z</time>
      </trkpt>
      <trkpt lat="50.5138" lon="1.63639">
        <ele>7.7</ele>
        <time>2020-06-22T07:39:51Z</time>
      </trkpt>
      <trkpt lat="50.5138" lon="1.63638">
        <ele>7.7</ele>
        <time>2020-06-22T07:39:52Z</time>
      </trkpt>
      <trkpt lat="50.51381" lon="1.63637">
        <ele>7.6</ele>
        <time>2020-06-22T07:39:53Z</time>
      </trkpt>
      <trkpt lat="50.51382" lon="1.63636">
        <ele>7.6</ele>
        <time>2020-06-22T07:42:10Z</time>
      </trkpt>
      <trkpt lat="50.51382" lon="1.63636">
        <ele>7.6</ele>
        <time>2020-06-22T07:42:11Z</time>
      </trkpt>
      <trkpt lat="50.51383" lon="1.63631">
        <ele>7.6</ele>
        <time>2020-06-22T07:42:12Z</time>
      </trkpt>
      <trkpt lat="50.51386" lon="1.63626">
        <ele>7.6</ele>
        <time>2020-06-22T07:42:13Z</time>
      </trkpt>
      <trkpt lat="50.51387" lon="1.63624">
        <ele>7.6</ele>
        <time>2020-06-22T07:42:14Z</time>
      </trkpt>
      <trkpt lat="50.5139" lon="1.63621">
        <ele>7.6</ele>
        <time>2020-06-22T07:42:15Z</time>
      </trkpt>
      <trkpt lat="50.51392" lon="1.63617">
        <ele>7.6</ele>
        <time>2020-06-22T07:42:16Z</time>
      </trkpt>
      <trkpt lat="50.51396" lon="1.63613">
        <ele>7.6</ele>
        <time>2020-06-22T07:42:17Z</time>
      </trkpt>
      <trkpt lat="50.51398" lon="1.63607">
        <ele>7.5</ele>
        <time>2020-06-22T07:42:18Z</time>
      </trkpt>
      <trkpt lat="50.51401" lon="1.63602">
        <ele>7.5</ele>
        <time>2020-06-22T07:42:19Z</time>
      </trkpt>
      <trkpt lat="50.51405" lon="1.63597">
        <ele>7.4</ele>
        <time>2020-06-22T07:42:20Z</time>
      </trkpt>
      <trkpt lat="50.51408" lon="1.63592">
        <ele>7.4</ele>
        <time>2020-06-22T07:42:21Z</time>
      </trkpt>
      <trkpt lat="50.51411" lon="1.63588">
        <ele>7.3</ele>
        <time>2020-06-22T07:42:22Z</time>
      </trkpt>
      <trkpt lat="50.51415" lon="1.63585">
        <ele>7.3</ele>
        <time>2020-06-22T07:42:23Z</time>
      </trkpt>
      <trkpt lat="50.51418" lon="1.63582">
        <ele>7.2</ele>
        <time>2020-06-22T07:42:24Z</time>
      </trkpt>
      <trkpt lat="50.51422" lon="1.6358">
        <ele>7.2</ele>
        <time>2020-06-22T07:42:25Z</time>
      </trkpt>
      <trkpt lat="50.51425" lon="1.63576">
        <ele>7.1</ele>
        <time>2020-06-22T07:42:26Z</time>
      </trkpt>
      <trkpt lat="50.51429" lon="1.63572">
        <ele>7.1</ele>
        <time>2020-06-22T07:42:27Z</time>
      </trkpt>
      <trkpt lat="50.51433" lon="1.63568">
        <ele>7</ele>
        <time>2020-06-22T07:42:28Z</time>
      </trkpt>
      <trkpt lat="50.51437" lon="1.63563">
        <ele>6.9</ele>
        <time>2020-06-22T07:42:29Z</time>
      </trkpt>
      <trkpt lat="50.51442" lon="1.63559">
        <ele>6.9</ele>
        <time>2020-06-22T07:42:30Z</time>
      </trkpt>
      <trkpt lat="50.51445" lon="1.63553">
        <ele>6.9</ele>
        <time>2020-06-22T07:42:31Z</time>
      </trkpt>
      <trkpt lat="50.5145" lon="1.63547">
        <ele>6.9</ele>
        <time>2020-06-22T07:42:32Z</time>
      </trkpt>
      <trkpt lat="50.51456" lon="1.6354">
        <ele>7</ele>
        <time>2020-06-22T07:42:33Z</time>
      </trkpt>
      <trkpt lat="50.51461" lon="1.63536">
        <ele>7</ele>
        <time>2020-06-22T07:42:34Z</time>
      </trkpt>
      <trkpt lat="50.51465" lon="1.6353">
        <ele>7</ele>
        <time>2020-06-22T07:42:35Z</time>
      </trkpt>
      <trkpt lat="50.51471" lon="1.63523">
        <ele>7.1</ele>
        <time>2020-06-22T07:42:36Z</time>
      </trkpt>
      <trkpt lat="50.51475" lon="1.63518">
        <ele>7.1</ele>
        <time>2020-06-22T07:42:37Z</time>
      </trkpt>
      <trkpt lat="50.51479" lon="1.63511">
        <ele>7.2</ele>
        <time>2020-06-22T07:42:38Z</time>
      </trkpt>
      <trkpt lat="50.51483" lon="1.63506">
        <ele>7.2</ele>
        <time>2020-06-22T07:42:39Z</time>
      </trkpt>
      <trkpt lat="50.51488" lon="1.635">
        <ele>7.1</ele>
        <time>2020-06-22T07:42:40Z</time>
      </trkpt>
      <trkpt lat="50.51493" lon="1.63493">
        <ele>7.1</ele>
        <time>2020-06-22T07:42:41Z</time>
      </trkpt>
      <trkpt lat="50.515" lon="1.63485">
        <ele>7</ele>
        <time>2020-06-22T07:42:42Z</time>
      </trkpt>
      <trkpt lat="50.51505" lon="1.6348">
        <ele>7.1</ele>
        <time>2020-06-22T07:42:43Z</time>
      </trkpt>
      <trkpt lat="50.51511" lon="1.63473">
        <ele>7.1</ele>
        <time>2020-06-22T07:42:44Z</time>
      </trkpt>
      <trkpt lat="50.51517" lon="1.63466">
        <ele>7.2</ele>
        <time>2020-06-22T07:42:45Z</time>
      </trkpt>
      <trkpt lat="50.51522" lon="1.63459">
        <ele>7.2</ele>
        <time>2020-06-22T07:42:46Z</time>
      </trkpt>
      <trkpt lat="50.51528" lon="1.63452">
        <ele>7.3</ele>
        <time>2020-06-22T07:42:47Z</time>
      </trkpt>
      <trkpt lat="50.51533" lon="1.63447">
        <ele>7.4</ele>
        <time>2020-06-22T07:42:48Z</time>
      </trkpt>
      <trkpt lat="50.51539" lon="1.63441">
        <ele>7.3</ele>
        <time>2020-06-22T07:42:49Z</time>
      </trkpt>
      <trkpt lat="50.51543" lon="1.63435">
        <ele>7.2</ele>
        <time>2020-06-22T07:42:50Z</time>
      </trkpt>
      <trkpt lat="50.51548" lon="1.63428">
        <ele>7.1</ele>
        <time>2020-06-22T07:42:51Z</time>
      </trkpt>
      <trkpt lat="50.51553" lon="1.63421">
        <ele>7.1</ele>
        <time>2020-06-22T07:42:52Z</time>
      </trkpt>
      <trkpt lat="50.51559" lon="1.63414">
        <ele>7</ele>
        <time>2020-06-22T07:42:53Z</time>
      </trkpt>
      <trkpt lat="50.51565" lon="1.63408">
        <ele>6.9</ele>
        <time>2020-06-22T07:42:54Z</time>
      </trkpt>
      <trkpt lat="50.5157" lon="1.63401">
        <ele>6.8</ele>
        <time>2020-06-22T07:42:55Z</time>
      </trkpt>
      <trkpt lat="50.51575" lon="1.63394">
        <ele>6.8</ele>
        <time>2020-06-22T07:42:56Z</time>
      </trkpt>
      <trkpt lat="50.51582" lon="1.63387">
        <ele>6.8</ele>
        <time>2020-06-22T07:42:57Z</time>
      </trkpt>
      <trkpt lat="50.51586" lon="1.63383">
        <ele>6.8</ele>
        <time>2020-06-22T07:42:58Z</time>
      </trkpt>
      <trkpt lat="50.51592" lon="1.63378">
        <ele>6.9</ele>
        <time>2020-06-22T07:42:59Z</time>
      </trkpt>
      <trkpt lat="50.51597" lon="1.63373">
        <ele>6.9</ele>
        <time>2020-06-22T07:43:00Z</time>
      </trkpt>
      <trkpt lat="50.51602" lon="1.63367">
        <ele>7</ele>
        <time>2020-06-22T07:43:01Z</time>
      </trkpt>
      <trkpt lat="50.51607" lon="1.63364">
        <ele>7</ele>
        <time>2020-06-22T07:43:02Z</time>
      </trkpt>
      <trkpt lat="50.51613" lon="1.63359">
        <ele>7.1</ele>
        <time>2020-06-22T07:43:03Z</time>
      </trkpt>
      <trkpt lat="50.51617" lon="1.63352">
        <ele>7.1</ele>
        <time>2020-06-22T07:43:04Z</time>
      </trkpt>
      <trkpt lat="50.5162" lon="1.63347">
        <ele>7.1</ele>
        <time>2020-06-22T07:43:05Z</time>
      </trkpt>
      <trkpt lat="50.51623" lon="1.63343">
        <ele>7.1</ele>
        <time>2020-06-22T07:43:06Z</time>
      </trkpt>
      <trkpt lat="50.51627" lon="1.63338">
        <ele>7</ele>
        <time>2020-06-22T07:43:07Z</time>
      </trkpt>
      <trkpt lat="50.51631" lon="1.63332">
        <ele>7</ele>
        <time>2020-06-22T07:43:08Z</time>
      </trkpt>
      <trkpt lat="50.51636" lon="1.63325">
        <ele>6.9</ele>
        <time>2020-06-22T07:43:09Z</time>
      </trkpt>
      <trkpt lat="50.5164" lon="1.63318">
        <ele>6.8</ele>
        <time>2020-06-22T07:43:10Z</time>
      </trkpt>
      <trkpt lat="50.51641" lon="1.63313">
        <ele>6.8</ele>
        <time>2020-06-22T07:43:11Z</time>
      </trkpt>
      <trkpt lat="50.51643" lon="1.63308">
        <ele>6.7</ele>
        <time>2020-06-22T07:43:12Z</time>
      </trkpt>
      <trkpt lat="50.51648" lon="1.63302">
        <ele>6.6</ele>
        <time>2020-06-22T07:43:13Z</time>
      </trkpt>
      <trkpt lat="50.51653" lon="1.63293">
        <ele>6.5</ele>
        <time>2020-06-22T07:43:14Z</time>
      </trkpt>
      <trkpt lat="50.51657" lon="1.63287">
        <ele>6.5</ele>
        <time>2020-06-22T07:43:15Z</time>
      </trkpt>
      <trkpt lat="50.51661" lon="1.63281">
        <ele>6.5</ele>
        <time>2020-06-22T07:43:16Z</time>
      </trkpt>
      <trkpt lat="50.51665" lon="1.63276">
        <ele>6.6</ele>
        <time>2020-06-22T07:43:17Z</time>
      </trkpt>
      <trkpt lat="50.51667" lon="1.63273">
        <ele>6.6</ele>
        <time>2020-06-22T07:43:18Z</time>
      </trkpt>
      <trkpt lat="50.5167" lon="1.63269">
        <ele>6.6</ele>
        <time>2020-06-22T07:43:19Z</time>
      </trkpt>
      <trkpt lat="50.51673" lon="1.63261">
        <ele>6.8</ele>
        <time>2020-06-22T07:43:20Z</time>
      </trkpt>
      <trkpt lat="50.51676" lon="1.63254">
        <ele>6.8</ele>
        <time>2020-06-22T07:43:21Z</time>
      </trkpt>
      <trkpt lat="50.51678" lon="1.63246">
        <ele>6.8</ele>
        <time>2020-06-22T07:43:22Z</time>
      </trkpt>
      <trkpt lat="50.51682" lon="1.63238">
        <ele>6.6</ele>
        <time>2020-06-22T07:43:23Z</time>
      </trkpt>
      <trkpt lat="50.51686" lon="1.63232">
        <ele>6.6</ele>
        <time>2020-06-22T07:43:24Z</time>
      </trkpt>
      <trkpt lat="50.5169" lon="1.63224">
        <ele>6.5</ele>
        <time>2020-06-22T07:43:25Z</time>
      </trkpt>
      <trkpt lat="50.51695" lon="1.63215">
        <ele>6.4</ele>
        <time>2020-06-22T07:43:26Z</time>
      </trkpt>
      <trkpt lat="50.51701" lon="1.63208">
        <ele>6.4</ele>
        <time>2020-06-22T07:43:27Z</time>
      </trkpt>
      <trkpt lat="50.51707" lon="1.632">
        <ele>6.4</ele>
        <time>2020-06-22T07:43:28Z</time>
      </trkpt>
      <trkpt lat="50.51711" lon="1.63195">
        <ele>6.4</ele>
        <time>2020-06-22T07:43:29Z</time>
      </trkpt>
      <trkpt lat="50.51717" lon="1.63187">
        <ele>6.4</ele>
        <time>2020-06-22T07:43:30Z</time>
      </trkpt>
      <trkpt lat="50.51722" lon="1.63178">
        <ele>6.4</ele>
        <time>2020-06-22T07:43:31Z</time>
      </trkpt>
      <trkpt lat="50.51728" lon="1.6317">
        <ele>6.4</ele>
        <time>2020-06-22T07:43:32Z</time>
      </trkpt>
      <trkpt lat="50.51734" lon="1.63162">
        <ele>6.4</ele>
        <time>2020-06-22T07:43:33Z</time>
      </trkpt>
      <trkpt lat="50.51741" lon="1.63153">
        <ele>6.4</ele>
        <time>2020-06-22T07:43:34Z</time>
      </trkpt>
      <trkpt lat="50.51748" lon="1.63146">
        <ele>6.4</ele>
        <time>2020-06-22T07:43:35Z</time>
      </trkpt>
      <trkpt lat="50.51754" lon="1.63138">
        <ele>6.4</ele>
        <time>2020-06-22T07:43:36Z</time>
      </trkpt>
      <trkpt lat="50.51759" lon="1.63132">
        <ele>6.4</ele>
        <time>2020-06-22T07:43:37Z</time>
      </trkpt>
      <trkpt lat="50.51761" lon="1.63129">
        <ele>6.4</ele>
        <time>2020-06-22T07:43:38Z</time>
      </trkpt>
      <trkpt lat="50.51762" lon="1.63129">
        <ele>6.4</ele>
        <time>2020-06-22T07:43:39Z</time>
      </trkpt>
      <trkpt lat="50.51764" lon="1.63127">
        <ele>6.4</ele>
        <time>2020-06-22T07:43:40Z</time>
      </trkpt>
      <trkpt lat="50.51763" lon="1.63127">
        <ele>6.4</ele>
        <time>2020-06-22T07:43:41Z</time>
      </trkpt>
      <trkpt lat="50.51763" lon="1.63129">
        <ele>6.4</ele>
        <time>2020-06-22T07:43:42Z</time>
      </trkpt>
      <trkpt lat="50.51763" lon="1.63128">
        <ele>6.4</ele>
        <time>2020-06-22T07:43:43Z</time>
      </trkpt>
      <trkpt lat="50.51763" lon="1.63127">
        <ele>6.4</ele>
        <time>2020-06-22T07:43:44Z</time>
      </trkpt>
      <trkpt lat="50.51764" lon="1.63125">
        <ele>6.4</ele>
        <time>2020-06-22T07:43:45Z</time>
      </trkpt>
      <trkpt lat="50.51768" lon="1.6312">
        <ele>6.4</ele>
        <time>2020-06-22T07:43:46Z</time>
      </trkpt>
      <trkpt lat="50.5177" lon="1.63117">
        <ele>6.4</ele>
        <time>2020-06-22T07:43:47Z</time>
      </trkpt>
      <trkpt lat="50.51773" lon="1.63113">
        <ele>6.4</ele>
        <time>2020-06-22T07:43:48Z</time>
      </trkpt>
      <trkpt lat="50.51776" lon="1.63108">
        <ele>6.4</ele>
        <time>2020-06-22T07:43:49Z</time>
      </trkpt>
      <trkpt lat="50.51779" lon="1.63104">
        <ele>6.4</ele>
        <time>2020-06-22T07:43:50Z</time>
      </trkpt>
      <trkpt lat="50.51782" lon="1.63099">
        <ele>6.4</ele>
        <time>2020-06-22T07:43:51Z</time>
      </trkpt>
      <trkpt lat="50.51785" lon="1.63094">
        <ele>6.4</ele>
        <time>2020-06-22T07:43:52Z</time>
      </trkpt>
      <trkpt lat="50.5179" lon="1.6309">
        <ele>6.5</ele>
        <time>2020-06-22T07:43:53Z</time>
      </trkpt>
      <trkpt lat="50.51796" lon="1.63084">
        <ele>6.5</ele>
        <time>2020-06-22T07:43:54Z</time>
      </trkpt>
      <trkpt lat="50.51801" lon="1.63078">
        <ele>6.4</ele>
        <time>2020-06-22T07:43:55Z</time>
      </trkpt>
      <trkpt lat="50.51805" lon="1.63072">
        <ele>6.4</ele>
        <time>2020-06-22T07:43:56Z</time>
      </trkpt>
      <trkpt lat="50.5181" lon="1.63065">
        <ele>6.4</ele>
        <time>2020-06-22T07:43:57Z</time>
      </trkpt>
      <trkpt lat="50.51815" lon="1.63059">
        <ele>6.3</ele>
        <time>2020-06-22T07:43:58Z</time>
      </trkpt>
      <trkpt lat="50.5182" lon="1.63053">
        <ele>6.3</ele>
        <time>2020-06-22T07:43:59Z</time>
      </trkpt>
      <trkpt lat="50.51825" lon="1.63046">
        <ele>6.3</ele>
        <time>2020-06-22T07:44:00Z</time>
      </trkpt>
      <trkpt lat="50.51829" lon="1.63041">
        <ele>6.3</ele>
        <time>2020-06-22T07:44:01Z</time>
      </trkpt>
      <trkpt lat="50.51834" lon="1.63035">
        <ele>6.2</ele>
        <time>2020-06-22T07:44:02Z</time>
      </trkpt>
      <trkpt lat="50.5184" lon="1.63029">
        <ele>6.2</ele>
        <time>2020-06-22T07:44:03Z</time>
      </trkpt>
      <trkpt lat="50.51845" lon="1.63023">
        <ele>6.2</ele>
        <time>2020-06-22T07:44:04Z</time>
      </trkpt>
      <trkpt lat="50.51851" lon="1.63016">
        <ele>6.2</ele>
        <time>2020-06-22T07:44:05Z</time>
      </trkpt>
      <trkpt lat="50.51856" lon="1.6301">
        <ele>6.3</ele>
        <time>2020-06-22T07:44:06Z</time>
      </trkpt>
      <trkpt lat="50.51861" lon="1.63004">
        <ele>6.3</ele>
        <time>2020-06-22T07:44:07Z</time>
      </trkpt>
      <trkpt lat="50.51866" lon="1.63">
        <ele>6.3</ele>
        <time>2020-06-22T07:44:08Z</time>
      </trkpt>
      <trkpt lat="50.5187" lon="1.62995">
        <ele>6.3</ele>
        <time>2020-06-22T07:44:09Z</time>
      </trkpt>
      <trkpt lat="50.51874" lon="1.62992">
        <ele>6.3</ele>
        <time>2020-06-22T07:44:10Z</time>
      </trkpt>
      <trkpt lat="50.51879" lon="1.62987">
        <ele>6.3</ele>
        <time>2020-06-22T07:44:11Z</time>
      </trkpt>
      <trkpt lat="50.51883" lon="1.62983">
        <ele>6.3</ele>
        <time>2020-06-22T07:44:12Z</time>
      </trkpt>
      <trkpt lat="50.51888" lon="1.62978">
        <ele>6.3</ele>
        <time>2020-06-22T07:44:13Z</time>
      </trkpt>
      <trkpt lat="50.51893" lon="1.62971">
        <ele>6.2</ele>
        <time>2020-06-22T07:44:14Z</time>
      </trkpt>
      <trkpt lat="50.51896" lon="1.62966">
        <ele>6.2</ele>
        <time>2020-06-22T07:44:15Z</time>
      </trkpt>
      <trkpt lat="50.519" lon="1.62959">
        <ele>6.2</ele>
        <time>2020-06-22T07:44:16Z</time>
      </trkpt>
      <trkpt lat="50.51904" lon="1.62953">
        <ele>6.2</ele>
        <time>2020-06-22T07:44:17Z</time>
      </trkpt>
      <trkpt lat="50.51908" lon="1.62948">
        <ele>6.2</ele>
        <time>2020-06-22T07:44:18Z</time>
      </trkpt>
      <trkpt lat="50.51911" lon="1.62942">
        <ele>6.2</ele>
        <time>2020-06-22T07:44:19Z</time>
      </trkpt>
      <trkpt lat="50.51914" lon="1.62937">
        <ele>6.1</ele>
        <time>2020-06-22T07:44:20Z</time>
      </trkpt>
      <trkpt lat="50.51919" lon="1.62932">
        <ele>6.1</ele>
        <time>2020-06-22T07:44:21Z</time>
      </trkpt>
      <trkpt lat="50.51924" lon="1.62928">
        <ele>6.1</ele>
        <time>2020-06-22T07:44:22Z</time>
      </trkpt>
      <trkpt lat="50.51929" lon="1.62922">
        <ele>6.1</ele>
        <time>2020-06-22T07:44:23Z</time>
      </trkpt>
      <trkpt lat="50.51933" lon="1.62917">
        <ele>6.1</ele>
        <time>2020-06-22T07:44:24Z</time>
      </trkpt>
      <trkpt lat="50.51937" lon="1.62912">
        <ele>6.1</ele>
        <time>2020-06-22T07:44:25Z</time>
      </trkpt>
      <trkpt lat="50.51941" lon="1.62907">
        <ele>6.1</ele>
        <time>2020-06-22T07:44:26Z</time>
      </trkpt>
      <trkpt lat="50.51945" lon="1.62902">
        <ele>6.1</ele>
        <time>2020-06-22T07:44:27Z</time>
      </trkpt>
      <trkpt lat="50.5195" lon="1.62896">
        <ele>6.1</ele>
        <time>2020-06-22T07:44:28Z</time>
      </trkpt>
      <trkpt lat="50.51953" lon="1.62892">
        <ele>6.1</ele>
        <time>2020-06-22T07:44:29Z</time>
      </trkpt>
      <trkpt lat="50.51957" lon="1.62886">
        <ele>6</ele>
        <time>2020-06-22T07:44:30Z</time>
      </trkpt>
      <trkpt lat="50.5196" lon="1.62881">
        <ele>6</ele>
        <time>2020-06-22T07:44:31Z</time>
      </trkpt>
      <trkpt lat="50.51964" lon="1.62875">
        <ele>6</ele>
        <time>2020-06-22T07:44:32Z</time>
      </trkpt>
      <trkpt lat="50.51968" lon="1.62869">
        <ele>5.9</ele>
        <time>2020-06-22T07:44:33Z</time>
      </trkpt>
      <trkpt lat="50.51973" lon="1.62865">
        <ele>5.9</ele>
        <time>2020-06-22T07:44:34Z</time>
      </trkpt>
      <trkpt lat="50.51978" lon="1.62863">
        <ele>5.9</ele>
        <time>2020-06-22T07:44:35Z</time>
      </trkpt>
      <trkpt lat="50.51983" lon="1.62861">
        <ele>5.8</ele>
        <time>2020-06-22T07:44:36Z</time>
      </trkpt>
      <trkpt lat="50.51988" lon="1.62858">
        <ele>5.8</ele>
        <time>2020-06-22T07:44:37Z</time>
      </trkpt>
      <trkpt lat="50.51992" lon="1.62853">
        <ele>5.8</ele>
        <time>2020-06-22T07:44:38Z</time>
      </trkpt>
      <trkpt lat="50.51996" lon="1.62847">
        <ele>5.8</ele>
        <time>2020-06-22T07:44:39Z</time>
      </trkpt>
      <trkpt lat="50.52" lon="1.62842">
        <ele>5.7</ele>
        <time>2020-06-22T07:44:40Z</time>
      </trkpt>
      <trkpt lat="50.52005" lon="1.62838">
        <ele>5.7</ele>
        <time>2020-06-22T07:44:41Z</time>
      </trkpt>
      <trkpt lat="50.52008" lon="1.62833">
        <ele>5.7</ele>
        <time>2020-06-22T07:44:42Z</time>
      </trkpt>
      <trkpt lat="50.52014" lon="1.62833">
        <ele>5.7</ele>
        <time>2020-06-22T07:44:43Z</time>
      </trkpt>
      <trkpt lat="50.52021" lon="1.62833">
        <ele>5.7</ele>
        <time>2020-06-22T07:44:44Z</time>
      </trkpt>
      <trkpt lat="50.52028" lon="1.62832">
        <ele>5.8</ele>
        <time>2020-06-22T07:44:45Z</time>
      </trkpt>
      <trkpt lat="50.52035" lon="1.6283">
        <ele>5.8</ele>
        <time>2020-06-22T07:44:46Z</time>
      </trkpt>
      <trkpt lat="50.52041" lon="1.62828">
        <ele>5.8</ele>
        <time>2020-06-22T07:44:47Z</time>
      </trkpt>
      <trkpt lat="50.52047" lon="1.62827">
        <ele>5.9</ele>
        <time>2020-06-22T07:44:48Z</time>
      </trkpt>
      <trkpt lat="50.52053" lon="1.62825">
        <ele>5.9</ele>
        <time>2020-06-22T07:44:49Z</time>
      </trkpt>
      <trkpt lat="50.5206" lon="1.62825">
        <ele>6</ele>
        <time>2020-06-22T07:44:50Z</time>
      </trkpt>
      <trkpt lat="50.52067" lon="1.62823">
        <ele>6.1</ele>
        <time>2020-06-22T07:44:51Z</time>
      </trkpt>
      <trkpt lat="50.52074" lon="1.62822">
        <ele>6.3</ele>
        <time>2020-06-22T07:44:52Z</time>
      </trkpt>
      <trkpt lat="50.52082" lon="1.62822">
        <ele>6.3</ele>
        <time>2020-06-22T07:44:53Z</time>
      </trkpt>
      <trkpt lat="50.52088" lon="1.6282">
        <ele>6.3</ele>
        <time>2020-06-22T07:44:54Z</time>
      </trkpt>
      <trkpt lat="50.52095" lon="1.6282">
        <ele>6.2</ele>
        <time>2020-06-22T07:44:55Z</time>
      </trkpt>
      <trkpt lat="50.52101" lon="1.62821">
        <ele>6.1</ele>
        <time>2020-06-22T07:44:56Z</time>
      </trkpt>
      <trkpt lat="50.52109" lon="1.62823">
        <ele>6</ele>
        <time>2020-06-22T07:44:57Z</time>
      </trkpt>
      <trkpt lat="50.52115" lon="1.62825">
        <ele>5.9</ele>
        <time>2020-06-22T07:44:58Z</time>
      </trkpt>
      <trkpt lat="50.52122" lon="1.62827">
        <ele>5.8</ele>
        <time>2020-06-22T07:44:59Z</time>
      </trkpt>
      <trkpt lat="50.52129" lon="1.6283">
        <ele>5.6</ele>
        <time>2020-06-22T07:45:00Z</time>
      </trkpt>
      <trkpt lat="50.52135" lon="1.62833">
        <ele>5.6</ele>
        <time>2020-06-22T07:45:01Z</time>
      </trkpt>
      <trkpt lat="50.5214" lon="1.62834">
        <ele>5.6</ele>
        <time>2020-06-22T07:45:02Z</time>
      </trkpt>
      <trkpt lat="50.52147" lon="1.62837">
        <ele>5.7</ele>
        <time>2020-06-22T07:45:03Z</time>
      </trkpt>
      <trkpt lat="50.52153" lon="1.6284">
        <ele>5.7</ele>
        <time>2020-06-22T07:45:04Z</time>
      </trkpt>
      <trkpt lat="50.52157" lon="1.62843">
        <ele>5.8</ele>
        <time>2020-06-22T07:45:05Z</time>
      </trkpt>
      <trkpt lat="50.52162" lon="1.62846">
        <ele>5.8</ele>
        <time>2020-06-22T07:45:06Z</time>
      </trkpt>
      <trkpt lat="50.52168" lon="1.62849">
        <ele>5.9</ele>
        <time>2020-06-22T07:45:07Z</time>
      </trkpt>
      <trkpt lat="50.52173" lon="1.62852">
        <ele>5.9</ele>
        <time>2020-06-22T07:45:08Z</time>
      </trkpt>
      <trkpt lat="50.52179" lon="1.62856">
        <ele>6</ele>
        <time>2020-06-22T07:45:09Z</time>
      </trkpt>
      <trkpt lat="50.52184" lon="1.6286">
        <ele>6.1</ele>
        <time>2020-06-22T07:45:10Z</time>
      </trkpt>
      <trkpt lat="50.5219" lon="1.62865">
        <ele>6.2</ele>
        <time>2020-06-22T07:45:11Z</time>
      </trkpt>
      <trkpt lat="50.52196" lon="1.62871">
        <ele>6.3</ele>
        <time>2020-06-22T07:45:12Z</time>
      </trkpt>
      <trkpt lat="50.52201" lon="1.62876">
        <ele>6.4</ele>
        <time>2020-06-22T07:45:13Z</time>
      </trkpt>
      <trkpt lat="50.52206" lon="1.62881">
        <ele>6.5</ele>
        <time>2020-06-22T07:45:14Z</time>
      </trkpt>
      <trkpt lat="50.5221" lon="1.62887">
        <ele>6.5</ele>
        <time>2020-06-22T07:45:15Z</time>
      </trkpt>
      <trkpt lat="50.52215" lon="1.62893">
        <ele>6.8</ele>
        <time>2020-06-22T07:45:16Z</time>
      </trkpt>
      <trkpt lat="50.52219" lon="1.62899">
        <ele>6.6</ele>
        <time>2020-06-22T07:45:17Z</time>
      </trkpt>
      <trkpt lat="50.52222" lon="1.62904">
        <ele>6.5</ele>
        <time>2020-06-22T07:45:18Z</time>
      </trkpt>
      <trkpt lat="50.52226" lon="1.62906">
        <ele>6.3</ele>
        <time>2020-06-22T07:45:19Z</time>
      </trkpt>
      <trkpt lat="50.52231" lon="1.62907">
        <ele>6.2</ele>
        <time>2020-06-22T07:45:20Z</time>
      </trkpt>
      <trkpt lat="50.52237" lon="1.62905">
        <ele>6.9</ele>
        <time>2020-06-22T07:45:21Z</time>
      </trkpt>
      <trkpt lat="50.52242" lon="1.62901">
        <ele>6.9</ele>
        <time>2020-06-22T07:45:22Z</time>
      </trkpt>
      <trkpt lat="50.52247" lon="1.62897">
        <ele>7</ele>
        <time>2020-06-22T07:45:23Z</time>
      </trkpt>
      <trkpt lat="50.52251" lon="1.62895">
        <ele>7.1</ele>
        <time>2020-06-22T07:45:24Z</time>
      </trkpt>
      <trkpt lat="50.52254" lon="1.62893">
        <ele>7.2</ele>
        <time>2020-06-22T07:45:25Z</time>
      </trkpt>
      <trkpt lat="50.52258" lon="1.62894">
        <ele>7.2</ele>
        <time>2020-06-22T07:45:26Z</time>
      </trkpt>
      <trkpt lat="50.52261" lon="1.62895">
        <ele>7.3</ele>
        <time>2020-06-22T07:45:27Z</time>
      </trkpt>
      <trkpt lat="50.52265" lon="1.62895">
        <ele>7.4</ele>
        <time>2020-06-22T07:45:28Z</time>
      </trkpt>
      <trkpt lat="50.52268" lon="1.62895">
        <ele>7.5</ele>
        <time>2020-06-22T07:45:29Z</time>
      </trkpt>
      <trkpt lat="50.52271" lon="1.62895">
        <ele>7.6</ele>
        <time>2020-06-22T07:45:30Z</time>
      </trkpt>
      <trkpt lat="50.52276" lon="1.62896">
        <ele>7.7</ele>
        <time>2020-06-22T07:45:31Z</time>
      </trkpt>
      <trkpt lat="50.52279" lon="1.62896">
        <ele>7.8</ele>
        <time>2020-06-22T07:45:32Z</time>
      </trkpt>
      <trkpt lat="50.52284" lon="1.62897">
        <ele>7.9</ele>
        <time>2020-06-22T07:45:33Z</time>
      </trkpt>
      <trkpt lat="50.52288" lon="1.62899">
        <ele>7.9</ele>
        <time>2020-06-22T07:45:34Z</time>
      </trkpt>
      <trkpt lat="50.52293" lon="1.62901">
        <ele>8</ele>
        <time>2020-06-22T07:45:35Z</time>
      </trkpt>
      <trkpt lat="50.52298" lon="1.62905">
        <ele>8.1</ele>
        <time>2020-06-22T07:45:36Z</time>
      </trkpt>
      <trkpt lat="50.52303" lon="1.62909">
        <ele>8.2</ele>
        <time>2020-06-22T07:45:37Z</time>
      </trkpt>
      <trkpt lat="50.52307" lon="1.62911">
        <ele>8.3</ele>
        <time>2020-06-22T07:45:38Z</time>
      </trkpt>
      <trkpt lat="50.52311" lon="1.62912">
        <ele>8.3</ele>
        <time>2020-06-22T07:45:39Z</time>
      </trkpt>
      <trkpt lat="50.52316" lon="1.62913">
        <ele>8.4</ele>
        <time>2020-06-22T07:45:40Z</time>
      </trkpt>
      <trkpt lat="50.52321" lon="1.62914">
        <ele>8.5</ele>
        <time>2020-06-22T07:45:41Z</time>
      </trkpt>
      <trkpt lat="50.52325" lon="1.62913">
        <ele>8.6</ele>
        <time>2020-06-22T07:45:42Z</time>
      </trkpt>
      <trkpt lat="50.52329" lon="1.62913">
        <ele>8.7</ele>
        <time>2020-06-22T07:45:43Z</time>
      </trkpt>
      <trkpt lat="50.52334" lon="1.62914">
        <ele>8.8</ele>
        <time>2020-06-22T07:45:44Z</time>
      </trkpt>
      <trkpt lat="50.52338" lon="1.62915">
        <ele>8.9</ele>
        <time>2020-06-22T07:45:45Z</time>
      </trkpt>
      <trkpt lat="50.52343" lon="1.62916">
        <ele>9.1</ele>
        <time>2020-06-22T07:45:46Z</time>
      </trkpt>
      <trkpt lat="50.52348" lon="1.62918">
        <ele>9.2</ele>
        <time>2020-06-22T07:45:47Z</time>
      </trkpt>
      <trkpt lat="50.52354" lon="1.62922">
        <ele>9.4</ele>
        <time>2020-06-22T07:45:48Z</time>
      </trkpt>
      <trkpt lat="50.52359" lon="1.62923">
        <ele>9.6</ele>
        <time>2020-06-22T07:45:49Z</time>
      </trkpt>
      <trkpt lat="50.52363" lon="1.62925">
        <ele>9.7</ele>
        <time>2020-06-22T07:45:50Z</time>
      </trkpt>
      <trkpt lat="50.52368" lon="1.62926">
        <ele>9.8</ele>
        <time>2020-06-22T07:45:51Z</time>
      </trkpt>
      <trkpt lat="50.52372" lon="1.62926">
        <ele>10</ele>
        <time>2020-06-22T07:45:52Z</time>
      </trkpt>
      <trkpt lat="50.52377" lon="1.62927">
        <ele>10.1</ele>
        <time>2020-06-22T07:45:53Z</time>
      </trkpt>
      <trkpt lat="50.52382" lon="1.62928">
        <ele>10.3</ele>
        <time>2020-06-22T07:45:54Z</time>
      </trkpt>
      <trkpt lat="50.52387" lon="1.62929">
        <ele>10.4</ele>
        <time>2020-06-22T07:45:55Z</time>
      </trkpt>
      <trkpt lat="50.5239" lon="1.62929">
        <ele>10.5</ele>
        <time>2020-06-22T07:45:56Z</time>
      </trkpt>
      <trkpt lat="50.52394" lon="1.62929">
        <ele>10.6</ele>
        <time>2020-06-22T07:45:57Z</time>
      </trkpt>
      <trkpt lat="50.52398" lon="1.62929">
        <ele>10.7</ele>
        <time>2020-06-22T07:45:58Z</time>
      </trkpt>
      <trkpt lat="50.52403" lon="1.62931">
        <ele>10.8</ele>
        <time>2020-06-22T07:45:59Z</time>
      </trkpt>
      <trkpt lat="50.52406" lon="1.62932">
        <ele>10.9</ele>
        <time>2020-06-22T07:46:00Z</time>
      </trkpt>
      <trkpt lat="50.52409" lon="1.62933">
        <ele>10.9</ele>
        <time>2020-06-22T07:46:01Z</time>
      </trkpt>
      <trkpt lat="50.52413" lon="1.62933">
        <ele>11</ele>
        <time>2020-06-22T07:46:02Z</time>
      </trkpt>
      <trkpt lat="50.52417" lon="1.62933">
        <ele>11</ele>
        <time>2020-06-22T07:46:03Z</time>
      </trkpt>
      <trkpt lat="50.52421" lon="1.62932">
        <ele>11.2</ele>
        <time>2020-06-22T07:46:04Z</time>
      </trkpt>
      <trkpt lat="50.52424" lon="1.6293">
        <ele>11.3</ele>
        <time>2020-06-22T07:46:05Z</time>
      </trkpt>
      <trkpt lat="50.52428" lon="1.62929">
        <ele>11.5</ele>
        <time>2020-06-22T07:46:06Z</time>
      </trkpt>
      <trkpt lat="50.52429" lon="1.62928">
        <ele>11.5</ele>
        <time>2020-06-22T07:46:07Z</time>
      </trkpt>
      <trkpt lat="50.52432" lon="1.62928">
        <ele>11.7</ele>
        <time>2020-06-22T07:46:08Z</time>
      </trkpt>
      <trkpt lat="50.52436" lon="1.62927">
        <ele>11.9</ele>
        <time>2020-06-22T07:46:09Z</time>
      </trkpt>
      <trkpt lat="50.5244" lon="1.62926">
        <ele>12</ele>
        <time>2020-06-22T07:46:10Z</time>
      </trkpt>
      <trkpt lat="50.52445" lon="1.62926">
        <ele>12.2</ele>
        <time>2020-06-22T07:46:11Z</time>
      </trkpt>
      <trkpt lat="50.52449" lon="1.62926">
        <ele>12.4</ele>
        <time>2020-06-22T07:46:12Z</time>
      </trkpt>
      <trkpt lat="50.52454" lon="1.62926">
        <ele>12.6</ele>
        <time>2020-06-22T07:46:13Z</time>
      </trkpt>
      <trkpt lat="50.52456" lon="1.62926">
        <ele>12.7</ele>
        <time>2020-06-22T07:46:14Z</time>
      </trkpt>
      <trkpt lat="50.52461" lon="1.62926">
        <ele>12.9</ele>
        <time>2020-06-22T07:46:15Z</time>
      </trkpt>
      <trkpt lat="50.52464" lon="1.62925">
        <ele>13.1</ele>
        <time>2020-06-22T07:46:16Z</time>
      </trkpt>
      <trkpt lat="50.52468" lon="1.62925">
        <ele>13.3</ele>
        <time>2020-06-22T07:46:17Z</time>
      </trkpt>
      <trkpt lat="50.52473" lon="1.62923">
        <ele>13.5</ele>
        <time>2020-06-22T07:46:18Z</time>
      </trkpt>
      <trkpt lat="50.52477" lon="1.62921">
        <ele>13.6</ele>
        <time>2020-06-22T07:46:19Z</time>
      </trkpt>
      <trkpt lat="50.52481" lon="1.6292">
        <ele>13.8</ele>
        <time>2020-06-22T07:46:20Z</time>
      </trkpt>
      <trkpt lat="50.52485" lon="1.62919">
        <ele>14</ele>
        <time>2020-06-22T07:46:21Z</time>
      </trkpt>
      <trkpt lat="50.5249" lon="1.62917">
        <ele>14.2</ele>
        <time>2020-06-22T07:46:22Z</time>
      </trkpt>
      <trkpt lat="50.52494" lon="1.62916">
        <ele>14.4</ele>
        <time>2020-06-22T07:46:23Z</time>
      </trkpt>
      <trkpt lat="50.52498" lon="1.62914">
        <ele>14.6</ele>
        <time>2020-06-22T07:46:24Z</time>
      </trkpt>
      <trkpt lat="50.52502" lon="1.62913">
        <ele>14.9</ele>
        <time>2020-06-22T07:46:25Z</time>
      </trkpt>
      <trkpt lat="50.52505" lon="1.62912">
        <ele>15</ele>
        <time>2020-06-22T07:46:26Z</time>
      </trkpt>
      <trkpt lat="50.52509" lon="1.6291">
        <ele>15.5</ele>
        <time>2020-06-22T07:46:27Z</time>
      </trkpt>
      <trkpt lat="50.52512" lon="1.62909">
        <ele>15.6</ele>
        <time>2020-06-22T07:46:28Z</time>
      </trkpt>
      <trkpt lat="50.52515" lon="1.62909">
        <ele>15.7</ele>
        <time>2020-06-22T07:46:29Z</time>
      </trkpt>
      <trkpt lat="50.52519" lon="1.62908">
        <ele>16.1</ele>
        <time>2020-06-22T07:46:30Z</time>
      </trkpt>
      <trkpt lat="50.52521" lon="1.62908">
        <ele>16.1</ele>
        <time>2020-06-22T07:46:31Z</time>
      </trkpt>
      <trkpt lat="50.52524" lon="1.62907">
        <ele>16.2</ele>
        <time>2020-06-22T07:46:32Z</time>
      </trkpt>
      <trkpt lat="50.52527" lon="1.62905">
        <ele>16.2</ele>
        <time>2020-06-22T07:46:33Z</time>
      </trkpt>
      <trkpt lat="50.5253" lon="1.62901">
        <ele>16.3</ele>
        <time>2020-06-22T07:46:34Z</time>
      </trkpt>
      <trkpt lat="50.52533" lon="1.62899">
        <ele>16.4</ele>
        <time>2020-06-22T07:46:35Z</time>
      </trkpt>
      <trkpt lat="50.52536" lon="1.62896">
        <ele>16.4</ele>
        <time>2020-06-22T07:46:36Z</time>
      </trkpt>
      <trkpt lat="50.52539" lon="1.62894">
        <ele>16.4</ele>
        <time>2020-06-22T07:46:37Z</time>
      </trkpt>
      <trkpt lat="50.52543" lon="1.62892">
        <ele>16.4</ele>
        <time>2020-06-22T07:46:38Z</time>
      </trkpt>
      <trkpt lat="50.52547" lon="1.6289">
        <ele>16.4</ele>
        <time>2020-06-22T07:46:39Z</time>
      </trkpt>
      <trkpt lat="50.5255" lon="1.62888">
        <ele>16.6</ele>
        <time>2020-06-22T07:46:40Z</time>
      </trkpt>
      <trkpt lat="50.52554" lon="1.62886">
        <ele>16.7</ele>
        <time>2020-06-22T07:46:41Z</time>
      </trkpt>
      <trkpt lat="50.52557" lon="1.62885">
        <ele>16.9</ele>
        <time>2020-06-22T07:46:42Z</time>
      </trkpt>
      <trkpt lat="50.52561" lon="1.62884">
        <ele>17.1</ele>
        <time>2020-06-22T07:46:43Z</time>
      </trkpt>
      <trkpt lat="50.52567" lon="1.62883">
        <ele>17.3</ele>
        <time>2020-06-22T07:46:44Z</time>
      </trkpt>
      <trkpt lat="50.52571" lon="1.62881">
        <ele>17.4</ele>
        <time>2020-06-22T07:46:45Z</time>
      </trkpt>
      <trkpt lat="50.52575" lon="1.6288">
        <ele>17.6</ele>
        <time>2020-06-22T07:46:46Z</time>
      </trkpt>
      <trkpt lat="50.52579" lon="1.62878">
        <ele>17.7</ele>
        <time>2020-06-22T07:46:47Z</time>
      </trkpt>
      <trkpt lat="50.52584" lon="1.62876">
        <ele>17.9</ele>
        <time>2020-06-22T07:46:48Z</time>
      </trkpt>
      <trkpt lat="50.52588" lon="1.62874">
        <ele>18</ele>
        <time>2020-06-22T07:46:49Z</time>
      </trkpt>
      <trkpt lat="50.52593" lon="1.62872">
        <ele>18.1</ele>
        <time>2020-06-22T07:46:50Z</time>
      </trkpt>
      <trkpt lat="50.52597" lon="1.62871">
        <ele>18.3</ele>
        <time>2020-06-22T07:46:51Z</time>
      </trkpt>
      <trkpt lat="50.52601" lon="1.62869">
        <ele>18.4</ele>
        <time>2020-06-22T07:46:52Z</time>
      </trkpt>
      <trkpt lat="50.52605" lon="1.62868">
        <ele>18.5</ele>
        <time>2020-06-22T07:46:53Z</time>
      </trkpt>
      <trkpt lat="50.52609" lon="1.62866">
        <ele>18.7</ele>
        <time>2020-06-22T07:46:54Z</time>
      </trkpt>
      <trkpt lat="50.52613" lon="1.62865">
        <ele>18.8</ele>
        <time>2020-06-22T07:46:55Z</time>
      </trkpt>
      <trkpt lat="50.52617" lon="1.62862">
        <ele>18.9</ele>
        <time>2020-06-22T07:46:56Z</time>
      </trkpt>
      <trkpt lat="50.52621" lon="1.6286">
        <ele>19</ele>
        <time>2020-06-22T07:46:57Z</time>
      </trkpt>
      <trkpt lat="50.52625" lon="1.62859">
        <ele>19.1</ele>
        <time>2020-06-22T07:46:58Z</time>
      </trkpt>
      <trkpt lat="50.5263" lon="1.62856">
        <ele>19.2</ele>
        <time>2020-06-22T07:46:59Z</time>
      </trkpt>
      <trkpt lat="50.52634" lon="1.62855">
        <ele>19.4</ele>
        <time>2020-06-22T07:47:00Z</time>
      </trkpt>
      <trkpt lat="50.52638" lon="1.62854">
        <ele>19.4</ele>
        <time>2020-06-22T07:47:01Z</time>
      </trkpt>
      <trkpt lat="50.52643" lon="1.62852">
        <ele>19.5</ele>
        <time>2020-06-22T07:47:02Z</time>
      </trkpt>
      <trkpt lat="50.52647" lon="1.62851">
        <ele>19.6</ele>
        <time>2020-06-22T07:47:03Z</time>
      </trkpt>
      <trkpt lat="50.52651" lon="1.62849">
        <ele>19.7</ele>
        <time>2020-06-22T07:47:04Z</time>
      </trkpt>
      <trkpt lat="50.52655" lon="1.62847">
        <ele>19.8</ele>
        <time>2020-06-22T07:47:05Z</time>
      </trkpt>
      <trkpt lat="50.5266" lon="1.62844">
        <ele>19.8</ele>
        <time>2020-06-22T07:47:06Z</time>
      </trkpt>
      <trkpt lat="50.52664" lon="1.62841">
        <ele>19.9</ele>
        <time>2020-06-22T07:47:07Z</time>
      </trkpt>
      <trkpt lat="50.52669" lon="1.62839">
        <ele>19.9</ele>
        <time>2020-06-22T07:47:08Z</time>
      </trkpt>
      <trkpt lat="50.52673" lon="1.62837">
        <ele>19.9</ele>
        <time>2020-06-22T07:47:09Z</time>
      </trkpt>
      <trkpt lat="50.52678" lon="1.62834">
        <ele>19.9</ele>
        <time>2020-06-22T07:47:10Z</time>
      </trkpt>
      <trkpt lat="50.52683" lon="1.62832">
        <ele>19.9</ele>
        <time>2020-06-22T07:47:11Z</time>
      </trkpt>
      <trkpt lat="50.52688" lon="1.62831">
        <ele>19.9</ele>
        <time>2020-06-22T07:47:12Z</time>
      </trkpt>
      <trkpt lat="50.52693" lon="1.62828">
        <ele>19.9</ele>
        <time>2020-06-22T07:47:13Z</time>
      </trkpt>
      <trkpt lat="50.52698" lon="1.62826">
        <ele>19.9</ele>
        <time>2020-06-22T07:47:14Z</time>
      </trkpt>
      <trkpt lat="50.52702" lon="1.62823">
        <ele>20</ele>
        <time>2020-06-22T07:47:15Z</time>
      </trkpt>
      <trkpt lat="50.52707" lon="1.62821">
        <ele>20</ele>
        <time>2020-06-22T07:47:16Z</time>
      </trkpt>
      <trkpt lat="50.52712" lon="1.62819">
        <ele>20</ele>
        <time>2020-06-22T07:47:17Z</time>
      </trkpt>
      <trkpt lat="50.52717" lon="1.62818">
        <ele>20.1</ele>
        <time>2020-06-22T07:47:18Z</time>
      </trkpt>
      <trkpt lat="50.52722" lon="1.62816">
        <ele>20.1</ele>
        <time>2020-06-22T07:47:19Z</time>
      </trkpt>
      <trkpt lat="50.52726" lon="1.62814">
        <ele>20.1</ele>
        <time>2020-06-22T07:47:20Z</time>
      </trkpt>
      <trkpt lat="50.52732" lon="1.62812">
        <ele>20.2</ele>
        <time>2020-06-22T07:47:21Z</time>
      </trkpt>
      <trkpt lat="50.52737" lon="1.6281">
        <ele>20.2</ele>
        <time>2020-06-22T07:47:22Z</time>
      </trkpt>
      <trkpt lat="50.52742" lon="1.62809">
        <ele>20.3</ele>
        <time>2020-06-22T07:47:23Z</time>
      </trkpt>
      <trkpt lat="50.52749" lon="1.62807">
        <ele>20.4</ele>
        <time>2020-06-22T07:47:24Z</time>
      </trkpt>
      <trkpt lat="50.52754" lon="1.62805">
        <ele>20.4</ele>
        <time>2020-06-22T07:47:25Z</time>
      </trkpt>
      <trkpt lat="50.52758" lon="1.62803">
        <ele>20.4</ele>
        <time>2020-06-22T07:47:26Z</time>
      </trkpt>
      <trkpt lat="50.52763" lon="1.62801">
        <ele>20.4</ele>
        <time>2020-06-22T07:47:27Z</time>
      </trkpt>
      <trkpt lat="50.52768" lon="1.62801">
        <ele>20.4</ele>
        <time>2020-06-22T07:47:28Z</time>
      </trkpt>
      <trkpt lat="50.52772" lon="1.62799">
        <ele>20.4</ele>
        <time>2020-06-22T07:47:29Z</time>
      </trkpt>
      <trkpt lat="50.52777" lon="1.62798">
        <ele>20.4</ele>
        <time>2020-06-22T07:47:30Z</time>
      </trkpt>
      <trkpt lat="50.52782" lon="1.62796">
        <ele>20.4</ele>
        <time>2020-06-22T07:47:31Z</time>
      </trkpt>
      <trkpt lat="50.52787" lon="1.62794">
        <ele>20.4</ele>
        <time>2020-06-22T07:47:32Z</time>
      </trkpt>
      <trkpt lat="50.52792" lon="1.6279">
        <ele>20.4</ele>
        <time>2020-06-22T07:47:33Z</time>
      </trkpt>
      <trkpt lat="50.52797" lon="1.62787">
        <ele>20.4</ele>
        <time>2020-06-22T07:47:34Z</time>
      </trkpt>
      <trkpt lat="50.52802" lon="1.62784">
        <ele>20.4</ele>
        <time>2020-06-22T07:47:35Z</time>
      </trkpt>
      <trkpt lat="50.52807" lon="1.62781">
        <ele>20.4</ele>
        <time>2020-06-22T07:47:36Z</time>
      </trkpt>
      <trkpt lat="50.52813" lon="1.6278">
        <ele>20.4</ele>
        <time>2020-06-22T07:47:37Z</time>
      </trkpt>
      <trkpt lat="50.52818" lon="1.62777">
        <ele>20.4</ele>
        <time>2020-06-22T07:47:38Z</time>
      </trkpt>
      <trkpt lat="50.52823" lon="1.62774">
        <ele>20.4</ele>
        <time>2020-06-22T07:47:39Z</time>
      </trkpt>
      <trkpt lat="50.52828" lon="1.62772">
        <ele>20.4</ele>
        <time>2020-06-22T07:47:40Z</time>
      </trkpt>
      <trkpt lat="50.52833" lon="1.62769">
        <ele>20.5</ele>
        <time>2020-06-22T07:47:41Z</time>
      </trkpt>
      <trkpt lat="50.52837" lon="1.62764">
        <ele>20.5</ele>
        <time>2020-06-22T07:47:42Z</time>
      </trkpt>
      <trkpt lat="50.52842" lon="1.62762">
        <ele>20.5</ele>
        <time>2020-06-22T07:47:43Z</time>
      </trkpt>
      <trkpt lat="50.52846" lon="1.6276">
        <ele>20.5</ele>
        <time>2020-06-22T07:47:44Z</time>
      </trkpt>
      <trkpt lat="50.52852" lon="1.62758">
        <ele>20.5</ele>
        <time>2020-06-22T07:47:45Z</time>
      </trkpt>
      <trkpt lat="50.52857" lon="1.62757">
        <ele>20.5</ele>
        <time>2020-06-22T07:47:46Z</time>
      </trkpt>
      <trkpt lat="50.52863" lon="1.62755">
        <ele>20.5</ele>
        <time>2020-06-22T07:47:47Z</time>
      </trkpt>
      <trkpt lat="50.52868" lon="1.62752">
        <ele>20.5</ele>
        <time>2020-06-22T07:47:48Z</time>
      </trkpt>
      <trkpt lat="50.52874" lon="1.6275">
        <ele>20.5</ele>
        <time>2020-06-22T07:47:49Z</time>
      </trkpt>
      <trkpt lat="50.52879" lon="1.62747">
        <ele>20.5</ele>
        <time>2020-06-22T07:47:50Z</time>
      </trkpt>
      <trkpt lat="50.52885" lon="1.62745">
        <ele>20.5</ele>
        <time>2020-06-22T07:47:51Z</time>
      </trkpt>
      <trkpt lat="50.5289" lon="1.62743">
        <ele>20.5</ele>
        <time>2020-06-22T07:47:52Z</time>
      </trkpt>
      <trkpt lat="50.52896" lon="1.6274">
        <ele>20.6</ele>
        <time>2020-06-22T07:47:53Z</time>
      </trkpt>
      <trkpt lat="50.52902" lon="1.62738">
        <ele>20.6</ele>
        <time>2020-06-22T07:47:54Z</time>
      </trkpt>
      <trkpt lat="50.52908" lon="1.62735">
        <ele>20.6</ele>
        <time>2020-06-22T07:47:55Z</time>
      </trkpt>
      <trkpt lat="50.52914" lon="1.62733">
        <ele>20.6</ele>
        <time>2020-06-22T07:47:56Z</time>
      </trkpt>
      <trkpt lat="50.52921" lon="1.62731">
        <ele>20.6</ele>
        <time>2020-06-22T07:47:57Z</time>
      </trkpt>
      <trkpt lat="50.52928" lon="1.62727">
        <ele>20.6</ele>
        <time>2020-06-22T07:47:58Z</time>
      </trkpt>
      <trkpt lat="50.52934" lon="1.62724">
        <ele>20.6</ele>
        <time>2020-06-22T07:47:59Z</time>
      </trkpt>
      <trkpt lat="50.52941" lon="1.62721">
        <ele>20.6</ele>
        <time>2020-06-22T07:48:00Z</time>
      </trkpt>
      <trkpt lat="50.52948" lon="1.6272">
        <ele>20.7</ele>
        <time>2020-06-22T07:48:01Z</time>
      </trkpt>
      <trkpt lat="50.52954" lon="1.62719">
        <ele>20.7</ele>
        <time>2020-06-22T07:48:02Z</time>
      </trkpt>
      <trkpt lat="50.5296" lon="1.62716">
        <ele>20.7</ele>
        <time>2020-06-22T07:48:03Z</time>
      </trkpt>
      <trkpt lat="50.52965" lon="1.62714">
        <ele>20.7</ele>
        <time>2020-06-22T07:48:04Z</time>
      </trkpt>
      <trkpt lat="50.52971" lon="1.6271">
        <ele>20.7</ele>
        <time>2020-06-22T07:48:05Z</time>
      </trkpt>
      <trkpt lat="50.52977" lon="1.62708">
        <ele>20.7</ele>
        <time>2020-06-22T07:48:06Z</time>
      </trkpt>
      <trkpt lat="50.52984" lon="1.62706">
        <ele>20.7</ele>
        <time>2020-06-22T07:48:07Z</time>
      </trkpt>
      <trkpt lat="50.5299" lon="1.62705">
        <ele>20.7</ele>
        <time>2020-06-22T07:48:08Z</time>
      </trkpt>
      <trkpt lat="50.52995" lon="1.62703">
        <ele>20.7</ele>
        <time>2020-06-22T07:48:09Z</time>
      </trkpt>
      <trkpt lat="50.53001" lon="1.627">
        <ele>20.7</ele>
        <time>2020-06-22T07:48:10Z</time>
      </trkpt>
      <trkpt lat="50.53005" lon="1.62698">
        <ele>20.7</ele>
        <time>2020-06-22T07:48:11Z</time>
      </trkpt>
      <trkpt lat="50.53011" lon="1.62694">
        <ele>20.7</ele>
        <time>2020-06-22T07:48:12Z</time>
      </trkpt>
      <trkpt lat="50.53015" lon="1.62692">
        <ele>20.7</ele>
        <time>2020-06-22T07:48:13Z</time>
      </trkpt>
      <trkpt lat="50.5302" lon="1.62691">
        <ele>20.7</ele>
        <time>2020-06-22T07:48:14Z</time>
      </trkpt>
      <trkpt lat="50.53027" lon="1.62689">
        <ele>20.6</ele>
        <time>2020-06-22T07:48:15Z</time>
      </trkpt>
      <trkpt lat="50.53035" lon="1.62686">
        <ele>20.6</ele>
        <time>2020-06-22T07:48:16Z</time>
      </trkpt>
      <trkpt lat="50.53042" lon="1.62684">
        <ele>20.6</ele>
        <time>2020-06-22T07:48:17Z</time>
      </trkpt>
      <trkpt lat="50.53049" lon="1.62682">
        <ele>20.6</ele>
        <time>2020-06-22T07:48:18Z</time>
      </trkpt>
      <trkpt lat="50.53055" lon="1.6268">
        <ele>20.6</ele>
        <time>2020-06-22T07:48:19Z</time>
      </trkpt>
      <trkpt lat="50.53061" lon="1.62678">
        <ele>20.6</ele>
        <time>2020-06-22T07:48:20Z</time>
      </trkpt>
      <trkpt lat="50.53066" lon="1.62675">
        <ele>20.5</ele>
        <time>2020-06-22T07:48:21Z</time>
      </trkpt>
      <trkpt lat="50.53071" lon="1.62673">
        <ele>20.5</ele>
        <time>2020-06-22T07:48:22Z</time>
      </trkpt>
      <trkpt lat="50.53075" lon="1.62671">
        <ele>20.5</ele>
        <time>2020-06-22T07:48:23Z</time>
      </trkpt>
      <trkpt lat="50.5308" lon="1.62668">
        <ele>20.5</ele>
        <time>2020-06-22T07:48:24Z</time>
      </trkpt>
      <trkpt lat="50.53085" lon="1.62666">
        <ele>20.4</ele>
        <time>2020-06-22T07:48:25Z</time>
      </trkpt>
      <trkpt lat="50.5309" lon="1.62663">
        <ele>20.4</ele>
        <time>2020-06-22T07:48:26Z</time>
      </trkpt>
      <trkpt lat="50.53096" lon="1.62659">
        <ele>20.4</ele>
        <time>2020-06-22T07:48:27Z</time>
      </trkpt>
      <trkpt lat="50.53103" lon="1.62656">
        <ele>20.4</ele>
        <time>2020-06-22T07:48:28Z</time>
      </trkpt>
      <trkpt lat="50.53109" lon="1.62654">
        <ele>20.4</ele>
        <time>2020-06-22T07:48:29Z</time>
      </trkpt>
      <trkpt lat="50.53116" lon="1.62651">
        <ele>20.4</ele>
        <time>2020-06-22T07:48:30Z</time>
      </trkpt>
      <trkpt lat="50.53123" lon="1.62649">
        <ele>20.3</ele>
        <time>2020-06-22T07:48:31Z</time>
      </trkpt>
      <trkpt lat="50.53128" lon="1.62646">
        <ele>20.3</ele>
        <time>2020-06-22T07:48:32Z</time>
      </trkpt>
      <trkpt lat="50.53135" lon="1.62643">
        <ele>20.3</ele>
        <time>2020-06-22T07:48:33Z</time>
      </trkpt>
      <trkpt lat="50.53143" lon="1.6264">
        <ele>20.4</ele>
        <time>2020-06-22T07:48:34Z</time>
      </trkpt>
      <trkpt lat="50.53149" lon="1.62638">
        <ele>20.4</ele>
        <time>2020-06-22T07:48:35Z</time>
      </trkpt>
      <trkpt lat="50.53154" lon="1.62635">
        <ele>20.4</ele>
        <time>2020-06-22T07:48:36Z</time>
      </trkpt>
      <trkpt lat="50.5316" lon="1.62633">
        <ele>20.4</ele>
        <time>2020-06-22T07:48:37Z</time>
      </trkpt>
      <trkpt lat="50.53164" lon="1.62632">
        <ele>20.4</ele>
        <time>2020-06-22T07:48:38Z</time>
      </trkpt>
      <trkpt lat="50.5317" lon="1.6263">
        <ele>20.5</ele>
        <time>2020-06-22T07:48:39Z</time>
      </trkpt>
      <trkpt lat="50.53176" lon="1.62628">
        <ele>20.5</ele>
        <time>2020-06-22T07:48:40Z</time>
      </trkpt>
      <trkpt lat="50.53182" lon="1.62625">
        <ele>20.5</ele>
        <time>2020-06-22T07:48:41Z</time>
      </trkpt>
      <trkpt lat="50.53188" lon="1.62624">
        <ele>20.6</ele>
        <time>2020-06-22T07:48:42Z</time>
      </trkpt>
      <trkpt lat="50.53194" lon="1.62621">
        <ele>20.6</ele>
        <time>2020-06-22T07:48:43Z</time>
      </trkpt>
      <trkpt lat="50.53201" lon="1.62619">
        <ele>20.7</ele>
        <time>2020-06-22T07:48:44Z</time>
      </trkpt>
      <trkpt lat="50.53206" lon="1.62616">
        <ele>20.8</ele>
        <time>2020-06-22T07:48:45Z</time>
      </trkpt>
      <trkpt lat="50.53212" lon="1.62614">
        <ele>20.9</ele>
        <time>2020-06-22T07:48:46Z</time>
      </trkpt>
      <trkpt lat="50.53218" lon="1.62612">
        <ele>20.9</ele>
        <time>2020-06-22T07:48:47Z</time>
      </trkpt>
      <trkpt lat="50.53222" lon="1.62611">
        <ele>21</ele>
        <time>2020-06-22T07:48:48Z</time>
      </trkpt>
      <trkpt lat="50.53226" lon="1.62609">
        <ele>21</ele>
        <time>2020-06-22T07:48:49Z</time>
      </trkpt>
      <trkpt lat="50.53232" lon="1.62608">
        <ele>21</ele>
        <time>2020-06-22T07:48:50Z</time>
      </trkpt>
      <trkpt lat="50.53238" lon="1.62605">
        <ele>21.1</ele>
        <time>2020-06-22T07:48:51Z</time>
      </trkpt>
      <trkpt lat="50.53245" lon="1.62602">
        <ele>21.1</ele>
        <time>2020-06-22T07:48:52Z</time>
      </trkpt>
      <trkpt lat="50.53252" lon="1.62599">
        <ele>21.2</ele>
        <time>2020-06-22T07:48:53Z</time>
      </trkpt>
      <trkpt lat="50.53258" lon="1.62596">
        <ele>21.2</ele>
        <time>2020-06-22T07:48:54Z</time>
      </trkpt>
      <trkpt lat="50.53264" lon="1.62594">
        <ele>21.3</ele>
        <time>2020-06-22T07:48:55Z</time>
      </trkpt>
      <trkpt lat="50.5327" lon="1.62591">
        <ele>21.3</ele>
        <time>2020-06-22T07:48:56Z</time>
      </trkpt>
      <trkpt lat="50.53274" lon="1.62588">
        <ele>21.4</ele>
        <time>2020-06-22T07:48:57Z</time>
      </trkpt>
      <trkpt lat="50.5328" lon="1.62586">
        <ele>21.4</ele>
        <time>2020-06-22T07:48:58Z</time>
      </trkpt>
      <trkpt lat="50.53287" lon="1.62582">
        <ele>21.5</ele>
        <time>2020-06-22T07:48:59Z</time>
      </trkpt>
      <trkpt lat="50.53293" lon="1.6258">
        <ele>21.6</ele>
        <time>2020-06-22T07:49:00Z</time>
      </trkpt>
      <trkpt lat="50.53298" lon="1.62578">
        <ele>21.7</ele>
        <time>2020-06-22T07:49:01Z</time>
      </trkpt>
      <trkpt lat="50.53303" lon="1.62576">
        <ele>21.8</ele>
        <time>2020-06-22T07:49:02Z</time>
      </trkpt>
      <trkpt lat="50.53309" lon="1.62574">
        <ele>21.9</ele>
        <time>2020-06-22T07:49:03Z</time>
      </trkpt>
      <trkpt lat="50.53315" lon="1.6257">
        <ele>22</ele>
        <time>2020-06-22T07:49:04Z</time>
      </trkpt>
      <trkpt lat="50.5332" lon="1.62568">
        <ele>22</ele>
        <time>2020-06-22T07:49:05Z</time>
      </trkpt>
      <trkpt lat="50.53324" lon="1.62565">
        <ele>22.1</ele>
        <time>2020-06-22T07:49:06Z</time>
      </trkpt>
      <trkpt lat="50.53329" lon="1.62562">
        <ele>22.1</ele>
        <time>2020-06-22T07:49:07Z</time>
      </trkpt>
      <trkpt lat="50.53333" lon="1.6256">
        <ele>22.2</ele>
        <time>2020-06-22T07:49:08Z</time>
      </trkpt>
      <trkpt lat="50.53339" lon="1.62556">
        <ele>22.3</ele>
        <time>2020-06-22T07:49:09Z</time>
      </trkpt>
      <trkpt lat="50.53344" lon="1.62555">
        <ele>22.4</ele>
        <time>2020-06-22T07:49:10Z</time>
      </trkpt>
      <trkpt lat="50.5335" lon="1.62552">
        <ele>22.5</ele>
        <time>2020-06-22T07:49:11Z</time>
      </trkpt>
      <trkpt lat="50.53356" lon="1.62549">
        <ele>22.6</ele>
        <time>2020-06-22T07:49:12Z</time>
      </trkpt>
      <trkpt lat="50.53362" lon="1.62547">
        <ele>22.6</ele>
        <time>2020-06-22T07:49:13Z</time>
      </trkpt>
      <trkpt lat="50.53367" lon="1.62545">
        <ele>22.7</ele>
        <time>2020-06-22T07:49:14Z</time>
      </trkpt>
      <trkpt lat="50.53373" lon="1.62541">
        <ele>22.7</ele>
        <time>2020-06-22T07:49:15Z</time>
      </trkpt>
      <trkpt lat="50.53378" lon="1.62537">
        <ele>22.8</ele>
        <time>2020-06-22T07:49:16Z</time>
      </trkpt>
      <trkpt lat="50.53384" lon="1.62533">
        <ele>22.8</ele>
        <time>2020-06-22T07:49:17Z</time>
      </trkpt>
      <trkpt lat="50.53391" lon="1.6253">
        <ele>22.9</ele>
        <time>2020-06-22T07:49:18Z</time>
      </trkpt>
      <trkpt lat="50.53397" lon="1.62528">
        <ele>22.9</ele>
        <time>2020-06-22T07:49:19Z</time>
      </trkpt>
      <trkpt lat="50.53403" lon="1.62524">
        <ele>23</ele>
        <time>2020-06-22T07:49:20Z</time>
      </trkpt>
      <trkpt lat="50.5341" lon="1.62522">
        <ele>23</ele>
        <time>2020-06-22T07:49:21Z</time>
      </trkpt>
      <trkpt lat="50.53415" lon="1.62519">
        <ele>23.1</ele>
        <time>2020-06-22T07:49:22Z</time>
      </trkpt>
      <trkpt lat="50.53421" lon="1.62515">
        <ele>23.1</ele>
        <time>2020-06-22T07:49:23Z</time>
      </trkpt>
      <trkpt lat="50.53427" lon="1.62512">
        <ele>23.2</ele>
        <time>2020-06-22T07:49:24Z</time>
      </trkpt>
      <trkpt lat="50.53432" lon="1.62511">
        <ele>23.3</ele>
        <time>2020-06-22T07:49:25Z</time>
      </trkpt>
      <trkpt lat="50.53438" lon="1.6251">
        <ele>23.4</ele>
        <time>2020-06-22T07:49:26Z</time>
      </trkpt>
      <trkpt lat="50.53446" lon="1.62508">
        <ele>23.5</ele>
        <time>2020-06-22T07:49:27Z</time>
      </trkpt>
      <trkpt lat="50.53452" lon="1.62505">
        <ele>23.6</ele>
        <time>2020-06-22T07:49:28Z</time>
      </trkpt>
      <trkpt lat="50.53457" lon="1.62503">
        <ele>23.6</ele>
        <time>2020-06-22T07:49:29Z</time>
      </trkpt>
      <trkpt lat="50.53464" lon="1.625">
        <ele>23.6</ele>
        <time>2020-06-22T07:49:30Z</time>
      </trkpt>
      <trkpt lat="50.53469" lon="1.62498">
        <ele>23.7</ele>
        <time>2020-06-22T07:49:31Z</time>
      </trkpt>
      <trkpt lat="50.53476" lon="1.62496">
        <ele>23.8</ele>
        <time>2020-06-22T07:49:32Z</time>
      </trkpt>
      <trkpt lat="50.53482" lon="1.62493">
        <ele>23.9</ele>
        <time>2020-06-22T07:49:33Z</time>
      </trkpt>
      <trkpt lat="50.5349" lon="1.62493">
        <ele>24</ele>
        <time>2020-06-22T07:49:34Z</time>
      </trkpt>
      <trkpt lat="50.53497" lon="1.62491">
        <ele>24</ele>
        <time>2020-06-22T07:49:35Z</time>
      </trkpt>
      <trkpt lat="50.53503" lon="1.62489">
        <ele>24.1</ele>
        <time>2020-06-22T07:49:36Z</time>
      </trkpt>
      <trkpt lat="50.5351" lon="1.62488">
        <ele>24.2</ele>
        <time>2020-06-22T07:49:37Z</time>
      </trkpt>
      <trkpt lat="50.53514" lon="1.62486">
        <ele>24.3</ele>
        <time>2020-06-22T07:49:38Z</time>
      </trkpt>
      <trkpt lat="50.5352" lon="1.62483">
        <ele>24.3</ele>
        <time>2020-06-22T07:49:39Z</time>
      </trkpt>
      <trkpt lat="50.53525" lon="1.62482">
        <ele>24.4</ele>
        <time>2020-06-22T07:49:40Z</time>
      </trkpt>
      <trkpt lat="50.5353" lon="1.62481">
        <ele>24.5</ele>
        <time>2020-06-22T07:49:41Z</time>
      </trkpt>
      <trkpt lat="50.53536" lon="1.62479">
        <ele>24.6</ele>
        <time>2020-06-22T07:49:42Z</time>
      </trkpt>
      <trkpt lat="50.53543" lon="1.62478">
        <ele>24.7</ele>
        <time>2020-06-22T07:49:43Z</time>
      </trkpt>
      <trkpt lat="50.53549" lon="1.62476">
        <ele>24.8</ele>
        <time>2020-06-22T07:49:44Z</time>
      </trkpt>
      <trkpt lat="50.53554" lon="1.62475">
        <ele>24.9</ele>
        <time>2020-06-22T07:49:45Z</time>
      </trkpt>
      <trkpt lat="50.53558" lon="1.62473">
        <ele>25.1</ele>
        <time>2020-06-22T07:49:46Z</time>
      </trkpt>
      <trkpt lat="50.53564" lon="1.62473">
        <ele>25.2</ele>
        <time>2020-06-22T07:49:47Z</time>
      </trkpt>
      <trkpt lat="50.53568" lon="1.62473">
        <ele>25.4</ele>
        <time>2020-06-22T07:49:48Z</time>
      </trkpt>
      <trkpt lat="50.53572" lon="1.62472">
        <ele>25.4</ele>
        <time>2020-06-22T07:49:49Z</time>
      </trkpt>
      <trkpt lat="50.53577" lon="1.6247">
        <ele>25.6</ele>
        <time>2020-06-22T07:49:50Z</time>
      </trkpt>
      <trkpt lat="50.53583" lon="1.62468">
        <ele>25.7</ele>
        <time>2020-06-22T07:49:51Z</time>
      </trkpt>
      <trkpt lat="50.53588" lon="1.62464">
        <ele>25.8</ele>
        <time>2020-06-22T07:49:52Z</time>
      </trkpt>
      <trkpt lat="50.53594" lon="1.62463">
        <ele>25.9</ele>
        <time>2020-06-22T07:49:53Z</time>
      </trkpt>
      <trkpt lat="50.53599" lon="1.6246">
        <ele>26</ele>
        <time>2020-06-22T07:49:54Z</time>
      </trkpt>
      <trkpt lat="50.53604" lon="1.62456">
        <ele>26.1</ele>
        <time>2020-06-22T07:49:55Z</time>
      </trkpt>
      <trkpt lat="50.5361" lon="1.62453">
        <ele>26.2</ele>
        <time>2020-06-22T07:49:56Z</time>
      </trkpt>
      <trkpt lat="50.53615" lon="1.62451">
        <ele>26.3</ele>
        <time>2020-06-22T07:49:57Z</time>
      </trkpt>
      <trkpt lat="50.53619" lon="1.62448">
        <ele>26.4</ele>
        <time>2020-06-22T07:49:58Z</time>
      </trkpt>
      <trkpt lat="50.53625" lon="1.62445">
        <ele>26.5</ele>
        <time>2020-06-22T07:49:59Z</time>
      </trkpt>
      <trkpt lat="50.5363" lon="1.62443">
        <ele>26.6</ele>
        <time>2020-06-22T07:50:00Z</time>
      </trkpt>
      <trkpt lat="50.53635" lon="1.62441">
        <ele>26.7</ele>
        <time>2020-06-22T07:50:01Z</time>
      </trkpt>
      <trkpt lat="50.5364" lon="1.62437">
        <ele>26.7</ele>
        <time>2020-06-22T07:50:02Z</time>
      </trkpt>
      <trkpt lat="50.53644" lon="1.62435">
        <ele>26.8</ele>
        <time>2020-06-22T07:50:03Z</time>
      </trkpt>
      <trkpt lat="50.53648" lon="1.62432">
        <ele>26.8</ele>
        <time>2020-06-22T07:50:04Z</time>
      </trkpt>
      <trkpt lat="50.53653" lon="1.62428">
        <ele>26.9</ele>
        <time>2020-06-22T07:50:05Z</time>
      </trkpt>
      <trkpt lat="50.53658" lon="1.62425">
        <ele>27</ele>
        <time>2020-06-22T07:50:06Z</time>
      </trkpt>
      <trkpt lat="50.53663" lon="1.62422">
        <ele>27.1</ele>
        <time>2020-06-22T07:50:07Z</time>
      </trkpt>
      <trkpt lat="50.53668" lon="1.62418">
        <ele>27.1</ele>
        <time>2020-06-22T07:50:08Z</time>
      </trkpt>
      <trkpt lat="50.53672" lon="1.62416">
        <ele>27.2</ele>
        <time>2020-06-22T07:50:09Z</time>
      </trkpt>
      <trkpt lat="50.53677" lon="1.62414">
        <ele>27.3</ele>
        <time>2020-06-22T07:50:10Z</time>
      </trkpt>
      <trkpt lat="50.53682" lon="1.62412">
        <ele>27.4</ele>
        <time>2020-06-22T07:50:11Z</time>
      </trkpt>
      <trkpt lat="50.53687" lon="1.6241">
        <ele>27.5</ele>
        <time>2020-06-22T07:50:12Z</time>
      </trkpt>
      <trkpt lat="50.53693" lon="1.62408">
        <ele>27.6</ele>
        <time>2020-06-22T07:50:13Z</time>
      </trkpt>
      <trkpt lat="50.53697" lon="1.62406">
        <ele>27.6</ele>
        <time>2020-06-22T07:50:14Z</time>
      </trkpt>
      <trkpt lat="50.53702" lon="1.62405">
        <ele>27.7</ele>
        <time>2020-06-22T07:50:15Z</time>
      </trkpt>
      <trkpt lat="50.53707" lon="1.62402">
        <ele>27.8</ele>
        <time>2020-06-22T07:50:16Z</time>
      </trkpt>
      <trkpt lat="50.53712" lon="1.624">
        <ele>27.8</ele>
        <time>2020-06-22T07:50:17Z</time>
      </trkpt>
      <trkpt lat="50.53718" lon="1.62398">
        <ele>27.9</ele>
        <time>2020-06-22T07:50:18Z</time>
      </trkpt>
      <trkpt lat="50.53723" lon="1.62395">
        <ele>28</ele>
        <time>2020-06-22T07:50:19Z</time>
      </trkpt>
      <trkpt lat="50.53728" lon="1.62392">
        <ele>28</ele>
        <time>2020-06-22T07:50:20Z</time>
      </trkpt>
      <trkpt lat="50.53734" lon="1.6239">
        <ele>28.1</ele>
        <time>2020-06-22T07:50:21Z</time>
      </trkpt>
      <trkpt lat="50.5374" lon="1.62387">
        <ele>28.1</ele>
        <time>2020-06-22T07:50:22Z</time>
      </trkpt>
      <trkpt lat="50.53745" lon="1.62386">
        <ele>28.1</ele>
        <time>2020-06-22T07:50:23Z</time>
      </trkpt>
      <trkpt lat="50.53751" lon="1.62386">
        <ele>28.2</ele>
        <time>2020-06-22T07:50:24Z</time>
      </trkpt>
      <trkpt lat="50.53757" lon="1.62385">
        <ele>28.2</ele>
        <time>2020-06-22T07:50:25Z</time>
      </trkpt>
      <trkpt lat="50.53764" lon="1.62383">
        <ele>28.3</ele>
        <time>2020-06-22T07:50:26Z</time>
      </trkpt>
      <trkpt lat="50.53771" lon="1.62381">
        <ele>28.4</ele>
        <time>2020-06-22T07:50:27Z</time>
      </trkpt>
      <trkpt lat="50.53778" lon="1.62379">
        <ele>28.5</ele>
        <time>2020-06-22T07:50:28Z</time>
      </trkpt>
      <trkpt lat="50.53784" lon="1.62375">
        <ele>28.5</ele>
        <time>2020-06-22T07:50:29Z</time>
      </trkpt>
      <trkpt lat="50.53791" lon="1.62372">
        <ele>28.6</ele>
        <time>2020-06-22T07:50:30Z</time>
      </trkpt>
      <trkpt lat="50.53796" lon="1.6237">
        <ele>28.7</ele>
        <time>2020-06-22T07:50:31Z</time>
      </trkpt>
      <trkpt lat="50.53802" lon="1.62368">
        <ele>28.7</ele>
        <time>2020-06-22T07:50:32Z</time>
      </trkpt>
      <trkpt lat="50.53807" lon="1.62364">
        <ele>28.7</ele>
        <time>2020-06-22T07:50:33Z</time>
      </trkpt>
      <trkpt lat="50.53813" lon="1.62361">
        <ele>28.8</ele>
        <time>2020-06-22T07:50:34Z</time>
      </trkpt>
      <trkpt lat="50.53819" lon="1.62359">
        <ele>28.8</ele>
        <time>2020-06-22T07:50:35Z</time>
      </trkpt>
      <trkpt lat="50.53824" lon="1.62358">
        <ele>28.8</ele>
        <time>2020-06-22T07:50:36Z</time>
      </trkpt>
      <trkpt lat="50.53831" lon="1.62355">
        <ele>28.8</ele>
        <time>2020-06-22T07:50:37Z</time>
      </trkpt>
      <trkpt lat="50.53837" lon="1.62353">
        <ele>28.8</ele>
        <time>2020-06-22T07:50:38Z</time>
      </trkpt>
      <trkpt lat="50.53842" lon="1.6235">
        <ele>28.9</ele>
        <time>2020-06-22T07:50:39Z</time>
      </trkpt>
      <trkpt lat="50.53847" lon="1.62348">
        <ele>28.9</ele>
        <time>2020-06-22T07:50:40Z</time>
      </trkpt>
      <trkpt lat="50.53853" lon="1.62345">
        <ele>28.9</ele>
        <time>2020-06-22T07:50:41Z</time>
      </trkpt>
      <trkpt lat="50.5386" lon="1.62342">
        <ele>29</ele>
        <time>2020-06-22T07:50:42Z</time>
      </trkpt>
      <trkpt lat="50.53867" lon="1.62339">
        <ele>29</ele>
        <time>2020-06-22T07:50:43Z</time>
      </trkpt>
      <trkpt lat="50.53872" lon="1.62336">
        <ele>29</ele>
        <time>2020-06-22T07:50:44Z</time>
      </trkpt>
      <trkpt lat="50.53877" lon="1.62334">
        <ele>29.1</ele>
        <time>2020-06-22T07:50:45Z</time>
      </trkpt>
      <trkpt lat="50.53882" lon="1.62332">
        <ele>29.1</ele>
        <time>2020-06-22T07:50:46Z</time>
      </trkpt>
      <trkpt lat="50.53886" lon="1.62331">
        <ele>29.1</ele>
        <time>2020-06-22T07:50:47Z</time>
      </trkpt>
      <trkpt lat="50.53891" lon="1.62329">
        <ele>29.1</ele>
        <time>2020-06-22T07:50:48Z</time>
      </trkpt>
      <trkpt lat="50.53896" lon="1.62327">
        <ele>29.1</ele>
        <time>2020-06-22T07:50:49Z</time>
      </trkpt>
      <trkpt lat="50.53902" lon="1.62326">
        <ele>29.1</ele>
        <time>2020-06-22T07:50:50Z</time>
      </trkpt>
      <trkpt lat="50.53908" lon="1.62323">
        <ele>29.1</ele>
        <time>2020-06-22T07:50:51Z</time>
      </trkpt>
      <trkpt lat="50.53914" lon="1.62321">
        <ele>29.1</ele>
        <time>2020-06-22T07:50:52Z</time>
      </trkpt>
      <trkpt lat="50.53921" lon="1.6232">
        <ele>29.1</ele>
        <time>2020-06-22T07:50:53Z</time>
      </trkpt>
      <trkpt lat="50.53927" lon="1.62314">
        <ele>29.1</ele>
        <time>2020-06-22T07:50:54Z</time>
      </trkpt>
      <trkpt lat="50.53935" lon="1.62311">
        <ele>29.1</ele>
        <time>2020-06-22T07:50:55Z</time>
      </trkpt>
      <trkpt lat="50.53941" lon="1.62308">
        <ele>29.1</ele>
        <time>2020-06-22T07:50:56Z</time>
      </trkpt>
      <trkpt lat="50.53946" lon="1.62307">
        <ele>29.2</ele>
        <time>2020-06-22T07:50:57Z</time>
      </trkpt>
      <trkpt lat="50.53952" lon="1.62303">
        <ele>29.2</ele>
        <time>2020-06-22T07:50:58Z</time>
      </trkpt>
      <trkpt lat="50.53959" lon="1.623">
        <ele>29.3</ele>
        <time>2020-06-22T07:50:59Z</time>
      </trkpt>
      <trkpt lat="50.53965" lon="1.62298">
        <ele>29.3</ele>
        <time>2020-06-22T07:51:00Z</time>
      </trkpt>
      <trkpt lat="50.53971" lon="1.62294">
        <ele>29.4</ele>
        <time>2020-06-22T07:51:01Z</time>
      </trkpt>
      <trkpt lat="50.53978" lon="1.62292">
        <ele>29.4</ele>
        <time>2020-06-22T07:51:02Z</time>
      </trkpt>
      <trkpt lat="50.53986" lon="1.62289">
        <ele>29.4</ele>
        <time>2020-06-22T07:51:03Z</time>
      </trkpt>
      <trkpt lat="50.53993" lon="1.62286">
        <ele>29.4</ele>
        <time>2020-06-22T07:51:04Z</time>
      </trkpt>
      <trkpt lat="50.53999" lon="1.62283">
        <ele>29.5</ele>
        <time>2020-06-22T07:51:05Z</time>
      </trkpt>
      <trkpt lat="50.54005" lon="1.6228">
        <ele>29.5</ele>
        <time>2020-06-22T07:51:06Z</time>
      </trkpt>
      <trkpt lat="50.54012" lon="1.62277">
        <ele>29.6</ele>
        <time>2020-06-22T07:51:07Z</time>
      </trkpt>
      <trkpt lat="50.54018" lon="1.62274">
        <ele>29.6</ele>
        <time>2020-06-22T07:51:08Z</time>
      </trkpt>
      <trkpt lat="50.54023" lon="1.62271">
        <ele>29.7</ele>
        <time>2020-06-22T07:51:09Z</time>
      </trkpt>
      <trkpt lat="50.54029" lon="1.62268">
        <ele>29.7</ele>
        <time>2020-06-22T07:51:10Z</time>
      </trkpt>
      <trkpt lat="50.54035" lon="1.62265">
        <ele>29.8</ele>
        <time>2020-06-22T07:51:11Z</time>
      </trkpt>
      <trkpt lat="50.54041" lon="1.62262">
        <ele>29.8</ele>
        <time>2020-06-22T07:51:12Z</time>
      </trkpt>
      <trkpt lat="50.54047" lon="1.62259">
        <ele>29.8</ele>
        <time>2020-06-22T07:51:13Z</time>
      </trkpt>
      <trkpt lat="50.54053" lon="1.62256">
        <ele>29.9</ele>
        <time>2020-06-22T07:51:14Z</time>
      </trkpt>
      <trkpt lat="50.54059" lon="1.62253">
        <ele>29.9</ele>
        <time>2020-06-22T07:51:15Z</time>
      </trkpt>
      <trkpt lat="50.54065" lon="1.62251">
        <ele>30</ele>
        <time>2020-06-22T07:51:16Z</time>
      </trkpt>
      <trkpt lat="50.54071" lon="1.62249">
        <ele>30</ele>
        <time>2020-06-22T07:51:17Z</time>
      </trkpt>
      <trkpt lat="50.54076" lon="1.62247">
        <ele>30</ele>
        <time>2020-06-22T07:51:18Z</time>
      </trkpt>
      <trkpt lat="50.54081" lon="1.62246">
        <ele>30.1</ele>
        <time>2020-06-22T07:51:19Z</time>
      </trkpt>
      <trkpt lat="50.54087" lon="1.62244">
        <ele>30.1</ele>
        <time>2020-06-22T07:51:20Z</time>
      </trkpt>
      <trkpt lat="50.54094" lon="1.62242">
        <ele>30.2</ele>
        <time>2020-06-22T07:51:21Z</time>
      </trkpt>
      <trkpt lat="50.541" lon="1.62239">
        <ele>30.2</ele>
        <time>2020-06-22T07:51:22Z</time>
      </trkpt>
      <trkpt lat="50.54106" lon="1.62237">
        <ele>30.2</ele>
        <time>2020-06-22T07:51:23Z</time>
      </trkpt>
      <trkpt lat="50.54112" lon="1.62234">
        <ele>30.3</ele>
        <time>2020-06-22T07:51:24Z</time>
      </trkpt>
      <trkpt lat="50.54119" lon="1.62232">
        <ele>30.3</ele>
        <time>2020-06-22T07:51:25Z</time>
      </trkpt>
      <trkpt lat="50.54125" lon="1.62229">
        <ele>30.3</ele>
        <time>2020-06-22T07:51:26Z</time>
      </trkpt>
      <trkpt lat="50.54132" lon="1.62225">
        <ele>30.3</ele>
        <time>2020-06-22T07:51:27Z</time>
      </trkpt>
      <trkpt lat="50.54139" lon="1.62221">
        <ele>30.3</ele>
        <time>2020-06-22T07:51:28Z</time>
      </trkpt>
      <trkpt lat="50.54146" lon="1.62217">
        <ele>30.3</ele>
        <time>2020-06-22T07:51:29Z</time>
      </trkpt>
      <trkpt lat="50.54152" lon="1.62213">
        <ele>30.3</ele>
        <time>2020-06-22T07:51:30Z</time>
      </trkpt>
      <trkpt lat="50.54159" lon="1.62212">
        <ele>30.3</ele>
        <time>2020-06-22T07:51:31Z</time>
      </trkpt>
      <trkpt lat="50.54164" lon="1.6221">
        <ele>30.3</ele>
        <time>2020-06-22T07:51:32Z</time>
      </trkpt>
      <trkpt lat="50.54171" lon="1.62207">
        <ele>30.2</ele>
        <time>2020-06-22T07:51:33Z</time>
      </trkpt>
      <trkpt lat="50.54177" lon="1.62204">
        <ele>30.1</ele>
        <time>2020-06-22T07:51:34Z</time>
      </trkpt>
      <trkpt lat="50.54184" lon="1.62202">
        <ele>30.1</ele>
        <time>2020-06-22T07:51:35Z</time>
      </trkpt>
      <trkpt lat="50.5419" lon="1.62199">
        <ele>30</ele>
        <time>2020-06-22T07:51:36Z</time>
      </trkpt>
      <trkpt lat="50.54195" lon="1.62197">
        <ele>30</ele>
        <time>2020-06-22T07:51:37Z</time>
      </trkpt>
      <trkpt lat="50.54202" lon="1.62194">
        <ele>30</ele>
        <time>2020-06-22T07:51:38Z</time>
      </trkpt>
      <trkpt lat="50.54209" lon="1.62191">
        <ele>29.9</ele>
        <time>2020-06-22T07:51:39Z</time>
      </trkpt>
      <trkpt lat="50.54216" lon="1.62188">
        <ele>29.9</ele>
        <time>2020-06-22T07:51:40Z</time>
      </trkpt>
      <trkpt lat="50.54223" lon="1.62185">
        <ele>29.8</ele>
        <time>2020-06-22T07:51:41Z</time>
      </trkpt>
      <trkpt lat="50.54229" lon="1.62183">
        <ele>29.7</ele>
        <time>2020-06-22T07:51:42Z</time>
      </trkpt>
      <trkpt lat="50.54236" lon="1.6218">
        <ele>29.7</ele>
        <time>2020-06-22T07:51:43Z</time>
      </trkpt>
      <trkpt lat="50.54243" lon="1.62178">
        <ele>29.6</ele>
        <time>2020-06-22T07:51:44Z</time>
      </trkpt>
      <trkpt lat="50.5425" lon="1.62175">
        <ele>29.6</ele>
        <time>2020-06-22T07:51:45Z</time>
      </trkpt>
      <trkpt lat="50.54258" lon="1.62173">
        <ele>29.6</ele>
        <time>2020-06-22T07:51:46Z</time>
      </trkpt>
      <trkpt lat="50.54264" lon="1.6217">
        <ele>29.5</ele>
        <time>2020-06-22T07:51:47Z</time>
      </trkpt>
      <trkpt lat="50.5427" lon="1.62167">
        <ele>29.5</ele>
        <time>2020-06-22T07:51:48Z</time>
      </trkpt>
      <trkpt lat="50.54276" lon="1.62164">
        <ele>29.4</ele>
        <time>2020-06-22T07:51:49Z</time>
      </trkpt>
      <trkpt lat="50.54283" lon="1.62162">
        <ele>29.4</ele>
        <time>2020-06-22T07:51:50Z</time>
      </trkpt>
      <trkpt lat="50.5429" lon="1.62159">
        <ele>29.4</ele>
        <time>2020-06-22T07:51:51Z</time>
      </trkpt>
      <trkpt lat="50.54297" lon="1.62156">
        <ele>29.3</ele>
        <time>2020-06-22T07:51:52Z</time>
      </trkpt>
      <trkpt lat="50.54304" lon="1.62153">
        <ele>29.3</ele>
        <time>2020-06-22T07:51:53Z</time>
      </trkpt>
      <trkpt lat="50.5431" lon="1.6215">
        <ele>29.3</ele>
        <time>2020-06-22T07:51:54Z</time>
      </trkpt>
      <trkpt lat="50.54316" lon="1.62147">
        <ele>29.3</ele>
        <time>2020-06-22T07:51:55Z</time>
      </trkpt>
      <trkpt lat="50.54323" lon="1.62145">
        <ele>29.2</ele>
        <time>2020-06-22T07:51:56Z</time>
      </trkpt>
      <trkpt lat="50.54329" lon="1.62141">
        <ele>29.2</ele>
        <time>2020-06-22T07:51:57Z</time>
      </trkpt>
      <trkpt lat="50.54335" lon="1.62139">
        <ele>29.2</ele>
        <time>2020-06-22T07:51:58Z</time>
      </trkpt>
      <trkpt lat="50.54342" lon="1.62136">
        <ele>29.1</ele>
        <time>2020-06-22T07:51:59Z</time>
      </trkpt>
      <trkpt lat="50.54348" lon="1.62134">
        <ele>29.1</ele>
        <time>2020-06-22T07:52:00Z</time>
      </trkpt>
      <trkpt lat="50.54355" lon="1.62132">
        <ele>29</ele>
        <time>2020-06-22T07:52:01Z</time>
      </trkpt>
      <trkpt lat="50.54362" lon="1.62129">
        <ele>29</ele>
        <time>2020-06-22T07:52:02Z</time>
      </trkpt>
      <trkpt lat="50.54369" lon="1.62127">
        <ele>28.9</ele>
        <time>2020-06-22T07:52:03Z</time>
      </trkpt>
      <trkpt lat="50.54376" lon="1.62123">
        <ele>28.8</ele>
        <time>2020-06-22T07:52:04Z</time>
      </trkpt>
      <trkpt lat="50.54382" lon="1.6212">
        <ele>28.7</ele>
        <time>2020-06-22T07:52:05Z</time>
      </trkpt>
      <trkpt lat="50.54389" lon="1.62118">
        <ele>28.7</ele>
        <time>2020-06-22T07:52:06Z</time>
      </trkpt>
      <trkpt lat="50.54396" lon="1.62114">
        <ele>28.6</ele>
        <time>2020-06-22T07:52:07Z</time>
      </trkpt>
      <trkpt lat="50.54403" lon="1.62111">
        <ele>28.5</ele>
        <time>2020-06-22T07:52:08Z</time>
      </trkpt>
      <trkpt lat="50.5441" lon="1.62108">
        <ele>28.4</ele>
        <time>2020-06-22T07:52:09Z</time>
      </trkpt>
      <trkpt lat="50.54417" lon="1.62105">
        <ele>28.3</ele>
        <time>2020-06-22T07:52:10Z</time>
      </trkpt>
      <trkpt lat="50.54424" lon="1.62102">
        <ele>28.1</ele>
        <time>2020-06-22T07:52:11Z</time>
      </trkpt>
      <trkpt lat="50.54431" lon="1.62099">
        <ele>28</ele>
        <time>2020-06-22T07:52:12Z</time>
      </trkpt>
      <trkpt lat="50.54438" lon="1.62095">
        <ele>27.8</ele>
        <time>2020-06-22T07:52:13Z</time>
      </trkpt>
      <trkpt lat="50.54445" lon="1.62092">
        <ele>27.7</ele>
        <time>2020-06-22T07:52:14Z</time>
      </trkpt>
      <trkpt lat="50.54452" lon="1.62088">
        <ele>27.5</ele>
        <time>2020-06-22T07:52:15Z</time>
      </trkpt>
      <trkpt lat="50.5446" lon="1.62086">
        <ele>27.2</ele>
        <time>2020-06-22T07:52:16Z</time>
      </trkpt>
      <trkpt lat="50.54468" lon="1.62082">
        <ele>26.9</ele>
        <time>2020-06-22T07:52:17Z</time>
      </trkpt>
      <trkpt lat="50.54476" lon="1.62079">
        <ele>26.6</ele>
        <time>2020-06-22T07:52:18Z</time>
      </trkpt>
      <trkpt lat="50.54484" lon="1.62076">
        <ele>26.2</ele>
        <time>2020-06-22T07:52:19Z</time>
      </trkpt>
      <trkpt lat="50.54492" lon="1.62073">
        <ele>25.9</ele>
        <time>2020-06-22T07:52:20Z</time>
      </trkpt>
      <trkpt lat="50.54501" lon="1.62069">
        <ele>25.5</ele>
        <time>2020-06-22T07:52:21Z</time>
      </trkpt>
      <trkpt lat="50.54509" lon="1.62065">
        <ele>25</ele>
        <time>2020-06-22T07:52:22Z</time>
      </trkpt>
      <trkpt lat="50.54518" lon="1.62061">
        <ele>24.6</ele>
        <time>2020-06-22T07:52:23Z</time>
      </trkpt>
      <trkpt lat="50.54527" lon="1.62057">
        <ele>24.2</ele>
        <time>2020-06-22T07:52:24Z</time>
      </trkpt>
      <trkpt lat="50.54536" lon="1.62052">
        <ele>23.7</ele>
        <time>2020-06-22T07:52:25Z</time>
      </trkpt>
      <trkpt lat="50.54546" lon="1.62048">
        <ele>23.2</ele>
        <time>2020-06-22T07:52:26Z</time>
      </trkpt>
      <trkpt lat="50.54555" lon="1.62044">
        <ele>22.6</ele>
        <time>2020-06-22T07:52:27Z</time>
      </trkpt>
      <trkpt lat="50.54565" lon="1.6204">
        <ele>22.1</ele>
        <time>2020-06-22T07:52:28Z</time>
      </trkpt>
      <trkpt lat="50.54575" lon="1.62035">
        <ele>21.6</ele>
        <time>2020-06-22T07:52:29Z</time>
      </trkpt>
      <trkpt lat="50.54585" lon="1.62031">
        <ele>21</ele>
        <time>2020-06-22T07:52:30Z</time>
      </trkpt>
      <trkpt lat="50.54596" lon="1.62026">
        <ele>20.3</ele>
        <time>2020-06-22T07:52:31Z</time>
      </trkpt>
      <trkpt lat="50.54606" lon="1.62021">
        <ele>19.6</ele>
        <time>2020-06-22T07:52:32Z</time>
      </trkpt>
      <trkpt lat="50.54617" lon="1.62016">
        <ele>19</ele>
        <time>2020-06-22T07:52:33Z</time>
      </trkpt>
      <trkpt lat="50.54629" lon="1.62012">
        <ele>18.4</ele>
        <time>2020-06-22T07:52:34Z</time>
      </trkpt>
      <trkpt lat="50.5464" lon="1.62007">
        <ele>17.9</ele>
        <time>2020-06-22T07:52:35Z</time>
      </trkpt>
      <trkpt lat="50.54652" lon="1.62001">
        <ele>17.6</ele>
        <time>2020-06-22T07:52:36Z</time>
      </trkpt>
      <trkpt lat="50.54663" lon="1.61996">
        <ele>17.4</ele>
        <time>2020-06-22T07:52:37Z</time>
      </trkpt>
      <trkpt lat="50.54674" lon="1.61991">
        <ele>17.1</ele>
        <time>2020-06-22T07:52:38Z</time>
      </trkpt>
      <trkpt lat="50.54686" lon="1.61987">
        <ele>16.9</ele>
        <time>2020-06-22T07:52:39Z</time>
      </trkpt>
      <trkpt lat="50.54697" lon="1.61983">
        <ele>16.8</ele>
        <time>2020-06-22T07:52:40Z</time>
      </trkpt>
      <trkpt lat="50.54707" lon="1.61979">
        <ele>16.9</ele>
        <time>2020-06-22T07:52:41Z</time>
      </trkpt>
      <trkpt lat="50.54717" lon="1.61974">
        <ele>17</ele>
        <time>2020-06-22T07:52:42Z</time>
      </trkpt>
      <trkpt lat="50.54727" lon="1.6197">
        <ele>17.1</ele>
        <time>2020-06-22T07:52:43Z</time>
      </trkpt>
      <trkpt lat="50.54736" lon="1.61966">
        <ele>17.3</ele>
        <time>2020-06-22T07:52:44Z</time>
      </trkpt>
      <trkpt lat="50.54744" lon="1.61962">
        <ele>17.5</ele>
        <time>2020-06-22T07:52:45Z</time>
      </trkpt>
      <trkpt lat="50.54752" lon="1.61959">
        <ele>17.7</ele>
        <time>2020-06-22T07:52:46Z</time>
      </trkpt>
      <trkpt lat="50.5476" lon="1.61955">
        <ele>17.9</ele>
        <time>2020-06-22T07:52:47Z</time>
      </trkpt>
      <trkpt lat="50.54767" lon="1.61953">
        <ele>18.1</ele>
        <time>2020-06-22T07:52:48Z</time>
      </trkpt>
      <trkpt lat="50.54775" lon="1.61949">
        <ele>18.3</ele>
        <time>2020-06-22T07:52:49Z</time>
      </trkpt>
      <trkpt lat="50.54781" lon="1.61945">
        <ele>18.5</ele>
        <time>2020-06-22T07:52:50Z</time>
      </trkpt>
      <trkpt lat="50.54788" lon="1.61941">
        <ele>18.7</ele>
        <time>2020-06-22T07:52:51Z</time>
      </trkpt>
      <trkpt lat="50.54794" lon="1.61938">
        <ele>19</ele>
        <time>2020-06-22T07:52:52Z</time>
      </trkpt>
      <trkpt lat="50.54801" lon="1.61936">
        <ele>19.2</ele>
        <time>2020-06-22T07:52:53Z</time>
      </trkpt>
      <trkpt lat="50.54808" lon="1.61935">
        <ele>19.4</ele>
        <time>2020-06-22T07:52:54Z</time>
      </trkpt>
      <trkpt lat="50.54815" lon="1.61932">
        <ele>19.6</ele>
        <time>2020-06-22T07:52:55Z</time>
      </trkpt>
      <trkpt lat="50.54821" lon="1.6193">
        <ele>19.8</ele>
        <time>2020-06-22T07:52:56Z</time>
      </trkpt>
      <trkpt lat="50.54828" lon="1.61926">
        <ele>20</ele>
        <time>2020-06-22T07:52:57Z</time>
      </trkpt>
      <trkpt lat="50.54834" lon="1.61924">
        <ele>20.2</ele>
        <time>2020-06-22T07:52:58Z</time>
      </trkpt>
      <trkpt lat="50.5484" lon="1.61922">
        <ele>20.4</ele>
        <time>2020-06-22T07:52:59Z</time>
      </trkpt>
      <trkpt lat="50.54846" lon="1.6192">
        <ele>20.5</ele>
        <time>2020-06-22T07:53:00Z</time>
      </trkpt>
      <trkpt lat="50.54851" lon="1.61917">
        <ele>20.7</ele>
        <time>2020-06-22T07:53:01Z</time>
      </trkpt>
      <trkpt lat="50.54857" lon="1.61914">
        <ele>20.9</ele>
        <time>2020-06-22T07:53:02Z</time>
      </trkpt>
      <trkpt lat="50.54862" lon="1.61911">
        <ele>21.1</ele>
        <time>2020-06-22T07:53:03Z</time>
      </trkpt>
      <trkpt lat="50.54867" lon="1.61908">
        <ele>21.3</ele>
        <time>2020-06-22T07:53:04Z</time>
      </trkpt>
      <trkpt lat="50.54872" lon="1.61905">
        <ele>21.4</ele>
        <time>2020-06-22T07:53:05Z</time>
      </trkpt>
      <trkpt lat="50.54877" lon="1.61902">
        <ele>21.6</ele>
        <time>2020-06-22T07:53:06Z</time>
      </trkpt>
      <trkpt lat="50.54882" lon="1.61901">
        <ele>21.8</ele>
        <time>2020-06-22T07:53:07Z</time>
      </trkpt>
      <trkpt lat="50.54887" lon="1.61899">
        <ele>22</ele>
        <time>2020-06-22T07:53:08Z</time>
      </trkpt>
      <trkpt lat="50.54892" lon="1.61897">
        <ele>22.1</ele>
        <time>2020-06-22T07:53:09Z</time>
      </trkpt>
      <trkpt lat="50.54897" lon="1.61894">
        <ele>22.3</ele>
        <time>2020-06-22T07:53:10Z</time>
      </trkpt>
      <trkpt lat="50.54903" lon="1.61892">
        <ele>22.5</ele>
        <time>2020-06-22T07:53:11Z</time>
      </trkpt>
      <trkpt lat="50.54908" lon="1.6189">
        <ele>22.6</ele>
        <time>2020-06-22T07:53:12Z</time>
      </trkpt>
      <trkpt lat="50.54913" lon="1.61888">
        <ele>22.8</ele>
        <time>2020-06-22T07:53:13Z</time>
      </trkpt>
      <trkpt lat="50.54918" lon="1.61886">
        <ele>23</ele>
        <time>2020-06-22T07:53:14Z</time>
      </trkpt>
      <trkpt lat="50.54923" lon="1.61885">
        <ele>23.2</ele>
        <time>2020-06-22T07:53:15Z</time>
      </trkpt>
      <trkpt lat="50.54928" lon="1.61884">
        <ele>23.3</ele>
        <time>2020-06-22T07:53:16Z</time>
      </trkpt>
      <trkpt lat="50.54933" lon="1.61882">
        <ele>23.4</ele>
        <time>2020-06-22T07:53:17Z</time>
      </trkpt>
      <trkpt lat="50.54938" lon="1.6188">
        <ele>23.5</ele>
        <time>2020-06-22T07:53:18Z</time>
      </trkpt>
      <trkpt lat="50.54942" lon="1.61877">
        <ele>23.6</ele>
        <time>2020-06-22T07:53:19Z</time>
      </trkpt>
      <trkpt lat="50.54948" lon="1.61875">
        <ele>23.7</ele>
        <time>2020-06-22T07:53:20Z</time>
      </trkpt>
      <trkpt lat="50.54953" lon="1.61874">
        <ele>23.8</ele>
        <time>2020-06-22T07:53:21Z</time>
      </trkpt>
      <trkpt lat="50.54958" lon="1.61872">
        <ele>23.9</ele>
        <time>2020-06-22T07:53:22Z</time>
      </trkpt>
      <trkpt lat="50.54963" lon="1.61869">
        <ele>24</ele>
        <time>2020-06-22T07:53:23Z</time>
      </trkpt>
      <trkpt lat="50.54968" lon="1.61867">
        <ele>24.2</ele>
        <time>2020-06-22T07:53:24Z</time>
      </trkpt>
      <trkpt lat="50.54973" lon="1.61865">
        <ele>24.3</ele>
        <time>2020-06-22T07:53:25Z</time>
      </trkpt>
      <trkpt lat="50.54978" lon="1.61863">
        <ele>24.4</ele>
        <time>2020-06-22T07:53:26Z</time>
      </trkpt>
      <trkpt lat="50.54984" lon="1.61863">
        <ele>24.5</ele>
        <time>2020-06-22T07:53:27Z</time>
      </trkpt>
      <trkpt lat="50.54988" lon="1.6186">
        <ele>24.6</ele>
        <time>2020-06-22T07:53:28Z</time>
      </trkpt>
      <trkpt lat="50.54994" lon="1.61859">
        <ele>24.6</ele>
        <time>2020-06-22T07:53:29Z</time>
      </trkpt>
      <trkpt lat="50.54998" lon="1.61856">
        <ele>24.7</ele>
        <time>2020-06-22T07:53:30Z</time>
      </trkpt>
      <trkpt lat="50.55002" lon="1.61854">
        <ele>24.7</ele>
        <time>2020-06-22T07:53:31Z</time>
      </trkpt>
      <trkpt lat="50.55005" lon="1.61851">
        <ele>24.7</ele>
        <time>2020-06-22T07:53:32Z</time>
      </trkpt>
      <trkpt lat="50.5501" lon="1.61849">
        <ele>24.8</ele>
        <time>2020-06-22T07:53:33Z</time>
      </trkpt>
      <trkpt lat="50.55014" lon="1.61847">
        <ele>24.8</ele>
        <time>2020-06-22T07:53:34Z</time>
      </trkpt>
      <trkpt lat="50.55018" lon="1.61845">
        <ele>24.8</ele>
        <time>2020-06-22T07:53:35Z</time>
      </trkpt>
      <trkpt lat="50.55023" lon="1.61845">
        <ele>24.8</ele>
        <time>2020-06-22T07:53:36Z</time>
      </trkpt>
      <trkpt lat="50.55028" lon="1.61845">
        <ele>24.9</ele>
        <time>2020-06-22T07:53:37Z</time>
      </trkpt>
      <trkpt lat="50.55033" lon="1.61847">
        <ele>24.9</ele>
        <time>2020-06-22T07:53:38Z</time>
      </trkpt>
      <trkpt lat="50.55039" lon="1.6185">
        <ele>25</ele>
        <time>2020-06-22T07:53:39Z</time>
      </trkpt>
      <trkpt lat="50.55044" lon="1.61853">
        <ele>25</ele>
        <time>2020-06-22T07:53:40Z</time>
      </trkpt>
      <trkpt lat="50.55048" lon="1.61856">
        <ele>25.1</ele>
        <time>2020-06-22T07:53:41Z</time>
      </trkpt>
      <trkpt lat="50.55051" lon="1.61858">
        <ele>25.1</ele>
        <time>2020-06-22T07:53:42Z</time>
      </trkpt>
      <trkpt lat="50.55056" lon="1.61859">
        <ele>25.3</ele>
        <time>2020-06-22T07:53:43Z</time>
      </trkpt>
      <trkpt lat="50.55061" lon="1.61861">
        <ele>25.5</ele>
        <time>2020-06-22T07:53:44Z</time>
      </trkpt>
      <trkpt lat="50.55066" lon="1.61863">
        <ele>25.6</ele>
        <time>2020-06-22T07:53:45Z</time>
      </trkpt>
      <trkpt lat="50.55071" lon="1.61863">
        <ele>25.7</ele>
        <time>2020-06-22T07:53:46Z</time>
      </trkpt>
      <trkpt lat="50.55076" lon="1.61863">
        <ele>25.8</ele>
        <time>2020-06-22T07:53:47Z</time>
      </trkpt>
      <trkpt lat="50.55081" lon="1.61865">
        <ele>26</ele>
        <time>2020-06-22T07:53:48Z</time>
      </trkpt>
      <trkpt lat="50.55085" lon="1.61865">
        <ele>26.1</ele>
        <time>2020-06-22T07:53:49Z</time>
      </trkpt>
      <trkpt lat="50.5509" lon="1.61866">
        <ele>26.2</ele>
        <time>2020-06-22T07:53:50Z</time>
      </trkpt>
      <trkpt lat="50.55094" lon="1.61866">
        <ele>26.3</ele>
        <time>2020-06-22T07:53:51Z</time>
      </trkpt>
      <trkpt lat="50.55101" lon="1.61868">
        <ele>26.4</ele>
        <time>2020-06-22T07:53:52Z</time>
      </trkpt>
      <trkpt lat="50.55108" lon="1.6187">
        <ele>26.6</ele>
        <time>2020-06-22T07:53:53Z</time>
      </trkpt>
      <trkpt lat="50.55113" lon="1.6187">
        <ele>26.7</ele>
        <time>2020-06-22T07:53:54Z</time>
      </trkpt>
      <trkpt lat="50.55118" lon="1.61871">
        <ele>26.8</ele>
        <time>2020-06-22T07:53:55Z</time>
      </trkpt>
      <trkpt lat="50.55122" lon="1.61871">
        <ele>26.9</ele>
        <time>2020-06-22T07:53:56Z</time>
      </trkpt>
      <trkpt lat="50.55127" lon="1.61872">
        <ele>27</ele>
        <time>2020-06-22T07:53:57Z</time>
      </trkpt>
      <trkpt lat="50.55132" lon="1.61874">
        <ele>27.1</ele>
        <time>2020-06-22T07:53:58Z</time>
      </trkpt>
      <trkpt lat="50.55137" lon="1.61876">
        <ele>27.2</ele>
        <time>2020-06-22T07:53:59Z</time>
      </trkpt>
      <trkpt lat="50.55142" lon="1.61877">
        <ele>27.3</ele>
        <time>2020-06-22T07:54:00Z</time>
      </trkpt>
      <trkpt lat="50.55147" lon="1.61879">
        <ele>27.4</ele>
        <time>2020-06-22T07:54:01Z</time>
      </trkpt>
      <trkpt lat="50.55152" lon="1.61879">
        <ele>27.5</ele>
        <time>2020-06-22T07:54:02Z</time>
      </trkpt>
      <trkpt lat="50.55158" lon="1.61881">
        <ele>27.6</ele>
        <time>2020-06-22T07:54:03Z</time>
      </trkpt>
      <trkpt lat="50.55164" lon="1.61882">
        <ele>27.7</ele>
        <time>2020-06-22T07:54:04Z</time>
      </trkpt>
      <trkpt lat="50.5517" lon="1.61883">
        <ele>27.8</ele>
        <time>2020-06-22T07:54:05Z</time>
      </trkpt>
      <trkpt lat="50.55176" lon="1.61885">
        <ele>27.9</ele>
        <time>2020-06-22T07:54:06Z</time>
      </trkpt>
      <trkpt lat="50.55181" lon="1.61887">
        <ele>28</ele>
        <time>2020-06-22T07:54:07Z</time>
      </trkpt>
      <trkpt lat="50.55186" lon="1.61888">
        <ele>28.1</ele>
        <time>2020-06-22T07:54:08Z</time>
      </trkpt>
      <trkpt lat="50.55193" lon="1.6189">
        <ele>28.2</ele>
        <time>2020-06-22T07:54:09Z</time>
      </trkpt>
      <trkpt lat="50.55198" lon="1.6189">
        <ele>28.5</ele>
        <time>2020-06-22T07:54:10Z</time>
      </trkpt>
      <trkpt lat="50.55206" lon="1.61891">
        <ele>28.8</ele>
        <time>2020-06-22T07:54:11Z</time>
      </trkpt>
      <trkpt lat="50.55212" lon="1.61891">
        <ele>29</ele>
        <time>2020-06-22T07:54:12Z</time>
      </trkpt>
      <trkpt lat="50.55218" lon="1.61893">
        <ele>29.3</ele>
        <time>2020-06-22T07:54:13Z</time>
      </trkpt>
      <trkpt lat="50.55222" lon="1.61892">
        <ele>29.4</ele>
        <time>2020-06-22T07:54:14Z</time>
      </trkpt>
      <trkpt lat="50.55226" lon="1.61892">
        <ele>29.6</ele>
        <time>2020-06-22T07:54:15Z</time>
      </trkpt>
      <trkpt lat="50.55231" lon="1.61893">
        <ele>29.8</ele>
        <time>2020-06-22T07:54:16Z</time>
      </trkpt>
      <trkpt lat="50.55237" lon="1.61894">
        <ele>30</ele>
        <time>2020-06-22T07:54:17Z</time>
      </trkpt>
      <trkpt lat="50.55243" lon="1.61896">
        <ele>30.3</ele>
        <time>2020-06-22T07:54:18Z</time>
      </trkpt>
      <trkpt lat="50.55248" lon="1.61897">
        <ele>30.5</ele>
        <time>2020-06-22T07:54:19Z</time>
      </trkpt>
      <trkpt lat="50.55253" lon="1.61899">
        <ele>30.7</ele>
        <time>2020-06-22T07:54:20Z</time>
      </trkpt>
      <trkpt lat="50.55258" lon="1.61902">
        <ele>30.9</ele>
        <time>2020-06-22T07:54:21Z</time>
      </trkpt>
      <trkpt lat="50.55264" lon="1.61905">
        <ele>31.2</ele>
        <time>2020-06-22T07:54:22Z</time>
      </trkpt>
      <trkpt lat="50.55267" lon="1.61904">
        <ele>31.3</ele>
        <time>2020-06-22T07:54:23Z</time>
      </trkpt>
      <trkpt lat="50.55271" lon="1.61905">
        <ele>31.5</ele>
        <time>2020-06-22T07:54:24Z</time>
      </trkpt>
      <trkpt lat="50.55276" lon="1.61906">
        <ele>31.6</ele>
        <time>2020-06-22T07:54:25Z</time>
      </trkpt>
      <trkpt lat="50.5528" lon="1.61907">
        <ele>31.8</ele>
        <time>2020-06-22T07:54:26Z</time>
      </trkpt>
      <trkpt lat="50.55284" lon="1.61908">
        <ele>31.9</ele>
        <time>2020-06-22T07:54:27Z</time>
      </trkpt>
      <trkpt lat="50.55288" lon="1.61909">
        <ele>32.1</ele>
        <time>2020-06-22T07:54:28Z</time>
      </trkpt>
      <trkpt lat="50.55292" lon="1.6191">
        <ele>32.2</ele>
        <time>2020-06-22T07:54:29Z</time>
      </trkpt>
      <trkpt lat="50.55298" lon="1.61913">
        <ele>32.4</ele>
        <time>2020-06-22T07:54:30Z</time>
      </trkpt>
      <trkpt lat="50.55304" lon="1.61914">
        <ele>32.7</ele>
        <time>2020-06-22T07:54:31Z</time>
      </trkpt>
      <trkpt lat="50.55309" lon="1.61915">
        <ele>32.8</ele>
        <time>2020-06-22T07:54:32Z</time>
      </trkpt>
      <trkpt lat="50.55314" lon="1.61917">
        <ele>33</ele>
        <time>2020-06-22T07:54:33Z</time>
      </trkpt>
      <trkpt lat="50.55319" lon="1.61918">
        <ele>33.2</ele>
        <time>2020-06-22T07:54:34Z</time>
      </trkpt>
      <trkpt lat="50.55323" lon="1.61919">
        <ele>33.3</ele>
        <time>2020-06-22T07:54:35Z</time>
      </trkpt>
      <trkpt lat="50.55327" lon="1.61921">
        <ele>33.4</ele>
        <time>2020-06-22T07:54:36Z</time>
      </trkpt>
      <trkpt lat="50.55334" lon="1.61922">
        <ele>33.6</ele>
        <time>2020-06-22T07:54:37Z</time>
      </trkpt>
      <trkpt lat="50.55337" lon="1.61923">
        <ele>33.6</ele>
        <time>2020-06-22T07:54:38Z</time>
      </trkpt>
      <trkpt lat="50.55343" lon="1.61924">
        <ele>33.7</ele>
        <time>2020-06-22T07:54:39Z</time>
      </trkpt>
      <trkpt lat="50.55348" lon="1.61925">
        <ele>33.8</ele>
        <time>2020-06-22T07:54:40Z</time>
      </trkpt>
      <trkpt lat="50.55352" lon="1.61926">
        <ele>33.8</ele>
        <time>2020-06-22T07:54:41Z</time>
      </trkpt>
      <trkpt lat="50.55355" lon="1.61927">
        <ele>33.9</ele>
        <time>2020-06-22T07:54:42Z</time>
      </trkpt>
      <trkpt lat="50.55358" lon="1.61928">
        <ele>33.9</ele>
        <time>2020-06-22T07:54:43Z</time>
      </trkpt>
      <trkpt lat="50.55362" lon="1.61929">
        <ele>33.9</ele>
        <time>2020-06-22T07:54:44Z</time>
      </trkpt>
      <trkpt lat="50.55367" lon="1.6193">
        <ele>33.8</ele>
        <time>2020-06-22T07:54:45Z</time>
      </trkpt>
      <trkpt lat="50.55372" lon="1.61931">
        <ele>33.8</ele>
        <time>2020-06-22T07:54:46Z</time>
      </trkpt>
      <trkpt lat="50.55378" lon="1.6193">
        <ele>33.7</ele>
        <time>2020-06-22T07:54:47Z</time>
      </trkpt>
      <trkpt lat="50.55386" lon="1.61928">
        <ele>33.7</ele>
        <time>2020-06-22T07:54:48Z</time>
      </trkpt>
      <trkpt lat="50.55394" lon="1.61927">
        <ele>33.6</ele>
        <time>2020-06-22T07:54:49Z</time>
      </trkpt>
      <trkpt lat="50.554" lon="1.61923">
        <ele>33.5</ele>
        <time>2020-06-22T07:54:50Z</time>
      </trkpt>
      <trkpt lat="50.55407" lon="1.61923">
        <ele>33.4</ele>
        <time>2020-06-22T07:54:51Z</time>
      </trkpt>
      <trkpt lat="50.55414" lon="1.61922">
        <ele>33.3</ele>
        <time>2020-06-22T07:54:52Z</time>
      </trkpt>
      <trkpt lat="50.55421" lon="1.6192">
        <ele>33.2</ele>
        <time>2020-06-22T07:54:53Z</time>
      </trkpt>
      <trkpt lat="50.55429" lon="1.61918">
        <ele>33.1</ele>
        <time>2020-06-22T07:54:54Z</time>
      </trkpt>
      <trkpt lat="50.55437" lon="1.61915">
        <ele>33</ele>
        <time>2020-06-22T07:54:55Z</time>
      </trkpt>
      <trkpt lat="50.5544" lon="1.61915">
        <ele>33</ele>
        <time>2020-06-22T07:54:56Z</time>
      </trkpt>
      <trkpt lat="50.55445" lon="1.61913">
        <ele>32.9</ele>
        <time>2020-06-22T07:54:57Z</time>
      </trkpt>
      <trkpt lat="50.5545" lon="1.61911">
        <ele>32.8</ele>
        <time>2020-06-22T07:54:58Z</time>
      </trkpt>
      <trkpt lat="50.55456" lon="1.6191">
        <ele>32.7</ele>
        <time>2020-06-22T07:54:59Z</time>
      </trkpt>
      <trkpt lat="50.55463" lon="1.6191">
        <ele>32.6</ele>
        <time>2020-06-22T07:55:00Z</time>
      </trkpt>
      <trkpt lat="50.55471" lon="1.61908">
        <ele>32.5</ele>
        <time>2020-06-22T07:55:01Z</time>
      </trkpt>
      <trkpt lat="50.55479" lon="1.61907">
        <ele>32.4</ele>
        <time>2020-06-22T07:55:02Z</time>
      </trkpt>
      <trkpt lat="50.55486" lon="1.61907">
        <ele>32.4</ele>
        <time>2020-06-22T07:55:03Z</time>
      </trkpt>
      <trkpt lat="50.55493" lon="1.61907">
        <ele>32.3</ele>
        <time>2020-06-22T07:55:04Z</time>
      </trkpt>
      <trkpt lat="50.55502" lon="1.61906">
        <ele>32.2</ele>
        <time>2020-06-22T07:55:05Z</time>
      </trkpt>
      <trkpt lat="50.5551" lon="1.61905">
        <ele>32.2</ele>
        <time>2020-06-22T07:55:06Z</time>
      </trkpt>
      <trkpt lat="50.55515" lon="1.61902">
        <ele>32.2</ele>
        <time>2020-06-22T07:55:07Z</time>
      </trkpt>
      <trkpt lat="50.55522" lon="1.61901">
        <ele>32.1</ele>
        <time>2020-06-22T07:55:08Z</time>
      </trkpt>
      <trkpt lat="50.55532" lon="1.61901">
        <ele>32.1</ele>
        <time>2020-06-22T07:55:09Z</time>
      </trkpt>
      <trkpt lat="50.55539" lon="1.619">
        <ele>32</ele>
        <time>2020-06-22T07:55:10Z</time>
      </trkpt>
      <trkpt lat="50.55547" lon="1.61899">
        <ele>32</ele>
        <time>2020-06-22T07:55:11Z</time>
      </trkpt>
      <trkpt lat="50.55553" lon="1.61898">
        <ele>32</ele>
        <time>2020-06-22T07:55:12Z</time>
      </trkpt>
      <trkpt lat="50.5556" lon="1.61897">
        <ele>32</ele>
        <time>2020-06-22T07:55:13Z</time>
      </trkpt>
      <trkpt lat="50.55567" lon="1.61895">
        <ele>32</ele>
        <time>2020-06-22T07:55:14Z</time>
      </trkpt>
      <trkpt lat="50.55573" lon="1.61894">
        <ele>32</ele>
        <time>2020-06-22T07:55:15Z</time>
      </trkpt>
      <trkpt lat="50.55578" lon="1.61892">
        <ele>32</ele>
        <time>2020-06-22T07:55:16Z</time>
      </trkpt>
      <trkpt lat="50.55585" lon="1.61891">
        <ele>32</ele>
        <time>2020-06-22T07:55:17Z</time>
      </trkpt>
      <trkpt lat="50.55591" lon="1.61889">
        <ele>32.1</ele>
        <time>2020-06-22T07:55:18Z</time>
      </trkpt>
      <trkpt lat="50.55598" lon="1.61889">
        <ele>32.2</ele>
        <time>2020-06-22T07:55:19Z</time>
      </trkpt>
      <trkpt lat="50.55605" lon="1.61888">
        <ele>32.2</ele>
        <time>2020-06-22T07:55:20Z</time>
      </trkpt>
      <trkpt lat="50.55611" lon="1.61886">
        <ele>32.2</ele>
        <time>2020-06-22T07:55:21Z</time>
      </trkpt>
      <trkpt lat="50.55617" lon="1.61885">
        <ele>32.3</ele>
        <time>2020-06-22T07:55:22Z</time>
      </trkpt>
      <trkpt lat="50.55622" lon="1.61883">
        <ele>32.3</ele>
        <time>2020-06-22T07:55:23Z</time>
      </trkpt>
      <trkpt lat="50.55627" lon="1.61882">
        <ele>32.4</ele>
        <time>2020-06-22T07:55:24Z</time>
      </trkpt>
      <trkpt lat="50.55632" lon="1.6188">
        <ele>32.4</ele>
        <time>2020-06-22T07:55:25Z</time>
      </trkpt>
      <trkpt lat="50.55638" lon="1.61879">
        <ele>32.5</ele>
        <time>2020-06-22T07:55:26Z</time>
      </trkpt>
      <trkpt lat="50.55643" lon="1.61879">
        <ele>32.5</ele>
        <time>2020-06-22T07:55:27Z</time>
      </trkpt>
      <trkpt lat="50.55649" lon="1.61878">
        <ele>32.5</ele>
        <time>2020-06-22T07:55:28Z</time>
      </trkpt>
      <trkpt lat="50.55656" lon="1.61876">
        <ele>32.4</ele>
        <time>2020-06-22T07:55:29Z</time>
      </trkpt>
      <trkpt lat="50.55662" lon="1.61876">
        <ele>32.4</ele>
        <time>2020-06-22T07:55:30Z</time>
      </trkpt>
      <trkpt lat="50.55667" lon="1.61875">
        <ele>32.3</ele>
        <time>2020-06-22T07:55:31Z</time>
      </trkpt>
      <trkpt lat="50.55673" lon="1.61875">
        <ele>32.2</ele>
        <time>2020-06-22T07:55:32Z</time>
      </trkpt>
      <trkpt lat="50.5568" lon="1.61874">
        <ele>32.1</ele>
        <time>2020-06-22T07:55:33Z</time>
      </trkpt>
      <trkpt lat="50.55686" lon="1.61872">
        <ele>32.1</ele>
        <time>2020-06-22T07:55:34Z</time>
      </trkpt>
      <trkpt lat="50.55693" lon="1.61872">
        <ele>32</ele>
        <time>2020-06-22T07:55:35Z</time>
      </trkpt>
      <trkpt lat="50.55702" lon="1.61871">
        <ele>31.9</ele>
        <time>2020-06-22T07:55:36Z</time>
      </trkpt>
      <trkpt lat="50.55708" lon="1.61871">
        <ele>31.8</ele>
        <time>2020-06-22T07:55:37Z</time>
      </trkpt>
      <trkpt lat="50.55715" lon="1.6187">
        <ele>31.8</ele>
        <time>2020-06-22T07:55:38Z</time>
      </trkpt>
      <trkpt lat="50.55723" lon="1.61868">
        <ele>31.7</ele>
        <time>2020-06-22T07:55:39Z</time>
      </trkpt>
      <trkpt lat="50.55732" lon="1.61867">
        <ele>31.7</ele>
        <time>2020-06-22T07:55:40Z</time>
      </trkpt>
      <trkpt lat="50.55739" lon="1.61864">
        <ele>31.7</ele>
        <time>2020-06-22T07:55:41Z</time>
      </trkpt>
      <trkpt lat="50.55748" lon="1.61862">
        <ele>31.7</ele>
        <time>2020-06-22T07:55:42Z</time>
      </trkpt>
      <trkpt lat="50.55754" lon="1.61861">
        <ele>31.7</ele>
        <time>2020-06-22T07:55:43Z</time>
      </trkpt>
      <trkpt lat="50.55761" lon="1.61859">
        <ele>31.7</ele>
        <time>2020-06-22T07:55:44Z</time>
      </trkpt>
      <trkpt lat="50.55768" lon="1.61858">
        <ele>31.6</ele>
        <time>2020-06-22T07:55:45Z</time>
      </trkpt>
      <trkpt lat="50.55776" lon="1.61857">
        <ele>31.6</ele>
        <time>2020-06-22T07:55:46Z</time>
      </trkpt>
      <trkpt lat="50.55783" lon="1.61855">
        <ele>31.6</ele>
        <time>2020-06-22T07:55:47Z</time>
      </trkpt>
      <trkpt lat="50.55789" lon="1.61854">
        <ele>31.6</ele>
        <time>2020-06-22T07:55:48Z</time>
      </trkpt>
      <trkpt lat="50.55796" lon="1.61854">
        <ele>31.6</ele>
        <time>2020-06-22T07:55:49Z</time>
      </trkpt>
      <trkpt lat="50.55803" lon="1.61853">
        <ele>31.6</ele>
        <time>2020-06-22T07:55:50Z</time>
      </trkpt>
      <trkpt lat="50.5581" lon="1.61852">
        <ele>31.6</ele>
        <time>2020-06-22T07:55:51Z</time>
      </trkpt>
      <trkpt lat="50.55817" lon="1.61851">
        <ele>31.6</ele>
        <time>2020-06-22T07:55:52Z</time>
      </trkpt>
      <trkpt lat="50.55823" lon="1.6185">
        <ele>31.7</ele>
        <time>2020-06-22T07:55:53Z</time>
      </trkpt>
      <trkpt lat="50.55829" lon="1.6185">
        <ele>31.8</ele>
        <time>2020-06-22T07:55:54Z</time>
      </trkpt>
      <trkpt lat="50.55835" lon="1.61848">
        <ele>31.9</ele>
        <time>2020-06-22T07:55:55Z</time>
      </trkpt>
      <trkpt lat="50.55841" lon="1.61847">
        <ele>32</ele>
        <time>2020-06-22T07:55:56Z</time>
      </trkpt>
      <trkpt lat="50.55846" lon="1.61844">
        <ele>32</ele>
        <time>2020-06-22T07:55:57Z</time>
      </trkpt>
      <trkpt lat="50.55852" lon="1.61843">
        <ele>32.1</ele>
        <time>2020-06-22T07:55:58Z</time>
      </trkpt>
      <trkpt lat="50.55858" lon="1.61841">
        <ele>32.1</ele>
        <time>2020-06-22T07:55:59Z</time>
      </trkpt>
      <trkpt lat="50.55863" lon="1.61839">
        <ele>32.2</ele>
        <time>2020-06-22T07:56:00Z</time>
      </trkpt>
      <trkpt lat="50.55869" lon="1.61838">
        <ele>32.3</ele>
        <time>2020-06-22T07:56:01Z</time>
      </trkpt>
      <trkpt lat="50.55874" lon="1.61837">
        <ele>32.3</ele>
        <time>2020-06-22T07:56:02Z</time>
      </trkpt>
      <trkpt lat="50.55879" lon="1.61836">
        <ele>32.4</ele>
        <time>2020-06-22T07:56:03Z</time>
      </trkpt>
      <trkpt lat="50.55885" lon="1.61836">
        <ele>32.5</ele>
        <time>2020-06-22T07:56:04Z</time>
      </trkpt>
      <trkpt lat="50.55891" lon="1.61834">
        <ele>32.5</ele>
        <time>2020-06-22T07:56:05Z</time>
      </trkpt>
      <trkpt lat="50.55897" lon="1.61834">
        <ele>32.6</ele>
        <time>2020-06-22T07:56:06Z</time>
      </trkpt>
      <trkpt lat="50.55903" lon="1.61834">
        <ele>32.7</ele>
        <time>2020-06-22T07:56:07Z</time>
      </trkpt>
      <trkpt lat="50.55908" lon="1.61834">
        <ele>32.7</ele>
        <time>2020-06-22T07:56:08Z</time>
      </trkpt>
      <trkpt lat="50.55914" lon="1.61834">
        <ele>32.8</ele>
        <time>2020-06-22T07:56:09Z</time>
      </trkpt>
      <trkpt lat="50.5592" lon="1.61833">
        <ele>32.8</ele>
        <time>2020-06-22T07:56:10Z</time>
      </trkpt>
      <trkpt lat="50.55925" lon="1.61832">
        <ele>32.8</ele>
        <time>2020-06-22T07:56:11Z</time>
      </trkpt>
      <trkpt lat="50.55931" lon="1.61829">
        <ele>32.8</ele>
        <time>2020-06-22T07:56:12Z</time>
      </trkpt>
      <trkpt lat="50.55937" lon="1.61828">
        <ele>32.8</ele>
        <time>2020-06-22T07:56:13Z</time>
      </trkpt>
      <trkpt lat="50.55942" lon="1.61826">
        <ele>32.8</ele>
        <time>2020-06-22T07:56:14Z</time>
      </trkpt>
      <trkpt lat="50.55948" lon="1.61824">
        <ele>32.9</ele>
        <time>2020-06-22T07:56:15Z</time>
      </trkpt>
      <trkpt lat="50.55954" lon="1.61822">
        <ele>32.9</ele>
        <time>2020-06-22T07:56:16Z</time>
      </trkpt>
      <trkpt lat="50.55958" lon="1.6182">
        <ele>32.9</ele>
        <time>2020-06-22T07:56:17Z</time>
      </trkpt>
      <trkpt lat="50.55963" lon="1.61819">
        <ele>33</ele>
        <time>2020-06-22T07:56:18Z</time>
      </trkpt>
      <trkpt lat="50.5597" lon="1.61818">
        <ele>33</ele>
        <time>2020-06-22T07:56:19Z</time>
      </trkpt>
      <trkpt lat="50.55979" lon="1.61814">
        <ele>33.1</ele>
        <time>2020-06-22T07:56:20Z</time>
      </trkpt>
      <trkpt lat="50.55987" lon="1.61813">
        <ele>33.1</ele>
        <time>2020-06-22T07:56:21Z</time>
      </trkpt>
      <trkpt lat="50.55995" lon="1.61811">
        <ele>33.1</ele>
        <time>2020-06-22T07:56:22Z</time>
      </trkpt>
      <trkpt lat="50.56001" lon="1.61809">
        <ele>33.1</ele>
        <time>2020-06-22T07:56:23Z</time>
      </trkpt>
      <trkpt lat="50.56006" lon="1.61806">
        <ele>33.1</ele>
        <time>2020-06-22T07:56:24Z</time>
      </trkpt>
      <trkpt lat="50.56012" lon="1.61805">
        <ele>33.1</ele>
        <time>2020-06-22T07:56:25Z</time>
      </trkpt>
      <trkpt lat="50.56018" lon="1.61803">
        <ele>33.2</ele>
        <time>2020-06-22T07:56:26Z</time>
      </trkpt>
      <trkpt lat="50.56025" lon="1.61801">
        <ele>33.2</ele>
        <time>2020-06-22T07:56:27Z</time>
      </trkpt>
      <trkpt lat="50.56031" lon="1.61799">
        <ele>33.2</ele>
        <time>2020-06-22T07:56:28Z</time>
      </trkpt>
      <trkpt lat="50.56037" lon="1.61797">
        <ele>33.2</ele>
        <time>2020-06-22T07:56:29Z</time>
      </trkpt>
      <trkpt lat="50.56043" lon="1.61796">
        <ele>33.3</ele>
        <time>2020-06-22T07:56:30Z</time>
      </trkpt>
      <trkpt lat="50.5605" lon="1.61795">
        <ele>33.3</ele>
        <time>2020-06-22T07:56:31Z</time>
      </trkpt>
      <trkpt lat="50.56056" lon="1.61794">
        <ele>33.3</ele>
        <time>2020-06-22T07:56:32Z</time>
      </trkpt>
      <trkpt lat="50.56063" lon="1.61793">
        <ele>33.4</ele>
        <time>2020-06-22T07:56:33Z</time>
      </trkpt>
      <trkpt lat="50.5607" lon="1.61791">
        <ele>33.4</ele>
        <time>2020-06-22T07:56:34Z</time>
      </trkpt>
      <trkpt lat="50.56075" lon="1.6179">
        <ele>33.5</ele>
        <time>2020-06-22T07:56:35Z</time>
      </trkpt>
      <trkpt lat="50.56079" lon="1.61789">
        <ele>33.5</ele>
        <time>2020-06-22T07:56:36Z</time>
      </trkpt>
      <trkpt lat="50.56086" lon="1.61789">
        <ele>33.6</ele>
        <time>2020-06-22T07:56:37Z</time>
      </trkpt>
      <trkpt lat="50.56094" lon="1.61784">
        <ele>33.6</ele>
        <time>2020-06-22T07:56:38Z</time>
      </trkpt>
      <trkpt lat="50.56101" lon="1.61781">
        <ele>33.7</ele>
        <time>2020-06-22T07:56:39Z</time>
      </trkpt>
      <trkpt lat="50.56107" lon="1.61778">
        <ele>33.7</ele>
        <time>2020-06-22T07:56:40Z</time>
      </trkpt>
      <trkpt lat="50.56112" lon="1.61776">
        <ele>33.8</ele>
        <time>2020-06-22T07:56:41Z</time>
      </trkpt>
      <trkpt lat="50.56117" lon="1.61775">
        <ele>33.8</ele>
        <time>2020-06-22T07:56:42Z</time>
      </trkpt>
      <trkpt lat="50.56121" lon="1.61774">
        <ele>33.8</ele>
        <time>2020-06-22T07:56:43Z</time>
      </trkpt>
      <trkpt lat="50.56125" lon="1.61773">
        <ele>33.9</ele>
        <time>2020-06-22T07:56:44Z</time>
      </trkpt>
      <trkpt lat="50.56129" lon="1.61772">
        <ele>33.9</ele>
        <time>2020-06-22T07:56:45Z</time>
      </trkpt>
      <trkpt lat="50.56134" lon="1.61771">
        <ele>33.9</ele>
        <time>2020-06-22T07:56:46Z</time>
      </trkpt>
      <trkpt lat="50.56138" lon="1.61769">
        <ele>33.9</ele>
        <time>2020-06-22T07:56:47Z</time>
      </trkpt>
      <trkpt lat="50.56147" lon="1.61768">
        <ele>33.9</ele>
        <time>2020-06-22T07:56:48Z</time>
      </trkpt>
      <trkpt lat="50.56152" lon="1.61767">
        <ele>33.9</ele>
        <time>2020-06-22T07:56:49Z</time>
      </trkpt>
      <trkpt lat="50.56159" lon="1.61764">
        <ele>33.8</ele>
        <time>2020-06-22T07:56:50Z</time>
      </trkpt>
      <trkpt lat="50.56164" lon="1.61762">
        <ele>33.8</ele>
        <time>2020-06-22T07:56:51Z</time>
      </trkpt>
      <trkpt lat="50.5617" lon="1.61761">
        <ele>33.7</ele>
        <time>2020-06-22T07:56:52Z</time>
      </trkpt>
      <trkpt lat="50.56175" lon="1.6176">
        <ele>33.6</ele>
        <time>2020-06-22T07:56:53Z</time>
      </trkpt>
      <trkpt lat="50.56179" lon="1.61759">
        <ele>33.5</ele>
        <time>2020-06-22T07:56:54Z</time>
      </trkpt>
      <trkpt lat="50.5618" lon="1.61759">
        <ele>33.5</ele>
        <time>2020-06-22T07:56:55Z</time>
      </trkpt>
      <trkpt lat="50.56185" lon="1.61757">
        <ele>33.4</ele>
        <time>2020-06-22T07:56:56Z</time>
      </trkpt>
      <trkpt lat="50.56191" lon="1.61757">
        <ele>33.1</ele>
        <time>2020-06-22T07:56:57Z</time>
      </trkpt>
      <trkpt lat="50.56196" lon="1.61755">
        <ele>33</ele>
        <time>2020-06-22T07:56:58Z</time>
      </trkpt>
      <trkpt lat="50.562" lon="1.61754">
        <ele>32.8</ele>
        <time>2020-06-22T07:56:59Z</time>
      </trkpt>
      <trkpt lat="50.56205" lon="1.61753">
        <ele>32.6</ele>
        <time>2020-06-22T07:57:00Z</time>
      </trkpt>
      <trkpt lat="50.5621" lon="1.61751">
        <ele>32.4</ele>
        <time>2020-06-22T07:57:01Z</time>
      </trkpt>
      <trkpt lat="50.56217" lon="1.6175">
        <ele>32.2</ele>
        <time>2020-06-22T07:57:02Z</time>
      </trkpt>
      <trkpt lat="50.56222" lon="1.61747">
        <ele>31.9</ele>
        <time>2020-06-22T07:57:03Z</time>
      </trkpt>
      <trkpt lat="50.56227" lon="1.61738">
        <ele>31.7</ele>
        <time>2020-06-22T07:57:04Z</time>
      </trkpt>
      <trkpt lat="50.56229" lon="1.61729">
        <ele>31.2</ele>
        <time>2020-06-22T07:57:05Z</time>
      </trkpt>
      <trkpt lat="50.56232" lon="1.61717">
        <ele>30.7</ele>
        <time>2020-06-22T07:57:06Z</time>
      </trkpt>
      <trkpt lat="50.56233" lon="1.61705">
        <ele>30.2</ele>
        <time>2020-06-22T07:57:07Z</time>
      </trkpt>
      <trkpt lat="50.56231" lon="1.61688">
        <ele>29.4</ele>
        <time>2020-06-22T07:57:08Z</time>
      </trkpt>
      <trkpt lat="50.56228" lon="1.61675">
        <ele>28.9</ele>
        <time>2020-06-22T07:57:09Z</time>
      </trkpt>
      <trkpt lat="50.56226" lon="1.61661">
        <ele>28.3</ele>
        <time>2020-06-22T07:57:10Z</time>
      </trkpt>
      <trkpt lat="50.56223" lon="1.61651">
        <ele>27.9</ele>
        <time>2020-06-22T07:57:11Z</time>
      </trkpt>
      <trkpt lat="50.5622" lon="1.6164">
        <ele>27.4</ele>
        <time>2020-06-22T07:57:12Z</time>
      </trkpt>
      <trkpt lat="50.56218" lon="1.61627">
        <ele>26.9</ele>
        <time>2020-06-22T07:57:13Z</time>
      </trkpt>
      <trkpt lat="50.56216" lon="1.61614">
        <ele>26.4</ele>
        <time>2020-06-22T07:57:14Z</time>
      </trkpt>
      <trkpt lat="50.56213" lon="1.61602">
        <ele>26</ele>
        <time>2020-06-22T07:57:15Z</time>
      </trkpt>
      <trkpt lat="50.56212" lon="1.6159">
        <ele>25.6</ele>
        <time>2020-06-22T07:57:16Z</time>
      </trkpt>
      <trkpt lat="50.56211" lon="1.61577">
        <ele>25.3</ele>
        <time>2020-06-22T07:57:17Z</time>
      </trkpt>
      <trkpt lat="50.5621" lon="1.61564">
        <ele>24.9</ele>
        <time>2020-06-22T07:57:18Z</time>
      </trkpt>
      <trkpt lat="50.56208" lon="1.61552">
        <ele>24.6</ele>
        <time>2020-06-22T07:57:19Z</time>
      </trkpt>
      <trkpt lat="50.56207" lon="1.61539">
        <ele>24.2</ele>
        <time>2020-06-22T07:57:20Z</time>
      </trkpt>
      <trkpt lat="50.56205" lon="1.61527">
        <ele>23.9</ele>
        <time>2020-06-22T07:57:21Z</time>
      </trkpt>
      <trkpt lat="50.56204" lon="1.61514">
        <ele>23.6</ele>
        <time>2020-06-22T07:57:22Z</time>
      </trkpt>
      <trkpt lat="50.56203" lon="1.61501">
        <ele>23.3</ele>
        <time>2020-06-22T07:57:23Z</time>
      </trkpt>
      <trkpt lat="50.56201" lon="1.61489">
        <ele>23.1</ele>
        <time>2020-06-22T07:57:24Z</time>
      </trkpt>
      <trkpt lat="50.56199" lon="1.61478">
        <ele>22.9</ele>
        <time>2020-06-22T07:57:25Z</time>
      </trkpt>
      <trkpt lat="50.56198" lon="1.61466">
        <ele>22.8</ele>
        <time>2020-06-22T07:57:26Z</time>
      </trkpt>
      <trkpt lat="50.56196" lon="1.61456">
        <ele>22.8</ele>
        <time>2020-06-22T07:57:27Z</time>
      </trkpt>
      <trkpt lat="50.56195" lon="1.61445">
        <ele>22.8</ele>
        <time>2020-06-22T07:57:28Z</time>
      </trkpt>
      <trkpt lat="50.56193" lon="1.61435">
        <ele>22.7</ele>
        <time>2020-06-22T07:57:29Z</time>
      </trkpt>
      <trkpt lat="50.56192" lon="1.61426">
        <ele>22.7</ele>
        <time>2020-06-22T07:57:30Z</time>
      </trkpt>
      <trkpt lat="50.56191" lon="1.61418">
        <ele>23.1</ele>
        <time>2020-06-22T07:57:31Z</time>
      </trkpt>
      <trkpt lat="50.56192" lon="1.61411">
        <ele>23.2</ele>
        <time>2020-06-22T07:57:32Z</time>
      </trkpt>
      <trkpt lat="50.56193" lon="1.61404">
        <ele>23.3</ele>
        <time>2020-06-22T07:57:33Z</time>
      </trkpt>
      <trkpt lat="50.56195" lon="1.61398">
        <ele>23.1</ele>
        <time>2020-06-22T07:57:34Z</time>
      </trkpt>
      <trkpt lat="50.56198" lon="1.61392">
        <ele>22.8</ele>
        <time>2020-06-22T07:57:35Z</time>
      </trkpt>
      <trkpt lat="50.56201" lon="1.61387">
        <ele>22.5</ele>
        <time>2020-06-22T07:57:36Z</time>
      </trkpt>
      <trkpt lat="50.56205" lon="1.61381">
        <ele>22.2</ele>
        <time>2020-06-22T07:57:37Z</time>
      </trkpt>
      <trkpt lat="50.5621" lon="1.61376">
        <ele>21.9</ele>
        <time>2020-06-22T07:57:38Z</time>
      </trkpt>
      <trkpt lat="50.56216" lon="1.61371">
        <ele>21.5</ele>
        <time>2020-06-22T07:57:39Z</time>
      </trkpt>
      <trkpt lat="50.56221" lon="1.61365">
        <ele>21.2</ele>
        <time>2020-06-22T07:57:40Z</time>
      </trkpt>
      <trkpt lat="50.56226" lon="1.61361">
        <ele>20.8</ele>
        <time>2020-06-22T07:57:41Z</time>
      </trkpt>
      <trkpt lat="50.56232" lon="1.61356">
        <ele>20.4</ele>
        <time>2020-06-22T07:57:42Z</time>
      </trkpt>
      <trkpt lat="50.56239" lon="1.61352">
        <ele>20.1</ele>
        <time>2020-06-22T07:57:43Z</time>
      </trkpt>
      <trkpt lat="50.56246" lon="1.61349">
        <ele>19.7</ele>
        <time>2020-06-22T07:57:44Z</time>
      </trkpt>
      <trkpt lat="50.56254" lon="1.61349">
        <ele>19.5</ele>
        <time>2020-06-22T07:57:45Z</time>
      </trkpt>
      <trkpt lat="50.56262" lon="1.61347">
        <ele>19.3</ele>
        <time>2020-06-22T07:57:46Z</time>
      </trkpt>
      <trkpt lat="50.56269" lon="1.61346">
        <ele>19.1</ele>
        <time>2020-06-22T07:57:47Z</time>
      </trkpt>
      <trkpt lat="50.56277" lon="1.61345">
        <ele>18.8</ele>
        <time>2020-06-22T07:57:48Z</time>
      </trkpt>
      <trkpt lat="50.56284" lon="1.61344">
        <ele>18.8</ele>
        <time>2020-06-22T07:57:49Z</time>
      </trkpt>
      <trkpt lat="50.56291" lon="1.61343">
        <ele>18.8</ele>
        <time>2020-06-22T07:57:50Z</time>
      </trkpt>
      <trkpt lat="50.56298" lon="1.61341">
        <ele>18.8</ele>
        <time>2020-06-22T07:57:51Z</time>
      </trkpt>
      <trkpt lat="50.56304" lon="1.6134">
        <ele>18.7</ele>
        <time>2020-06-22T07:57:52Z</time>
      </trkpt>
      <trkpt lat="50.56311" lon="1.61339">
        <ele>18.7</ele>
        <time>2020-06-22T07:57:53Z</time>
      </trkpt>
      <trkpt lat="50.56317" lon="1.61338">
        <ele>18.7</ele>
        <time>2020-06-22T07:57:54Z</time>
      </trkpt>
      <trkpt lat="50.56324" lon="1.61338">
        <ele>18.8</ele>
        <time>2020-06-22T07:57:55Z</time>
      </trkpt>
      <trkpt lat="50.56331" lon="1.61336">
        <ele>18.8</ele>
        <time>2020-06-22T07:57:56Z</time>
      </trkpt>
      <trkpt lat="50.56338" lon="1.61335">
        <ele>18.9</ele>
        <time>2020-06-22T07:57:57Z</time>
      </trkpt>
      <trkpt lat="50.56344" lon="1.61333">
        <ele>19</ele>
        <time>2020-06-22T07:57:58Z</time>
      </trkpt>
      <trkpt lat="50.56351" lon="1.61333">
        <ele>19</ele>
        <time>2020-06-22T07:57:59Z</time>
      </trkpt>
      <trkpt lat="50.56357" lon="1.61332">
        <ele>19</ele>
        <time>2020-06-22T07:58:00Z</time>
      </trkpt>
      <trkpt lat="50.56363" lon="1.61332">
        <ele>19.1</ele>
        <time>2020-06-22T07:58:01Z</time>
      </trkpt>
      <trkpt lat="50.56369" lon="1.61332">
        <ele>19.1</ele>
        <time>2020-06-22T07:58:02Z</time>
      </trkpt>
      <trkpt lat="50.56376" lon="1.61331">
        <ele>19.2</ele>
        <time>2020-06-22T07:58:03Z</time>
      </trkpt>
      <trkpt lat="50.56382" lon="1.61331">
        <ele>19.3</ele>
        <time>2020-06-22T07:58:04Z</time>
      </trkpt>
      <trkpt lat="50.56388" lon="1.61331">
        <ele>19.4</ele>
        <time>2020-06-22T07:58:05Z</time>
      </trkpt>
      <trkpt lat="50.56395" lon="1.61333">
        <ele>19.5</ele>
        <time>2020-06-22T07:58:06Z</time>
      </trkpt>
      <trkpt lat="50.56401" lon="1.61334">
        <ele>19.6</ele>
        <time>2020-06-22T07:58:07Z</time>
      </trkpt>
      <trkpt lat="50.56407" lon="1.61336">
        <ele>19.7</ele>
        <time>2020-06-22T07:58:08Z</time>
      </trkpt>
      <trkpt lat="50.56413" lon="1.61337">
        <ele>19.8</ele>
        <time>2020-06-22T07:58:09Z</time>
      </trkpt>
      <trkpt lat="50.5642" lon="1.61337">
        <ele>19.9</ele>
        <time>2020-06-22T07:58:10Z</time>
      </trkpt>
      <trkpt lat="50.56426" lon="1.61337">
        <ele>20</ele>
        <time>2020-06-22T07:58:11Z</time>
      </trkpt>
      <trkpt lat="50.56432" lon="1.61336">
        <ele>20</ele>
        <time>2020-06-22T07:58:12Z</time>
      </trkpt>
      <trkpt lat="50.56438" lon="1.61338">
        <ele>20.1</ele>
        <time>2020-06-22T07:58:13Z</time>
      </trkpt>
      <trkpt lat="50.56444" lon="1.61339">
        <ele>20.2</ele>
        <time>2020-06-22T07:58:14Z</time>
      </trkpt>
      <trkpt lat="50.56449" lon="1.6134">
        <ele>20.2</ele>
        <time>2020-06-22T07:58:15Z</time>
      </trkpt>
      <trkpt lat="50.56455" lon="1.6134">
        <ele>20.3</ele>
        <time>2020-06-22T07:58:16Z</time>
      </trkpt>
      <trkpt lat="50.56461" lon="1.61341">
        <ele>20.3</ele>
        <time>2020-06-22T07:58:17Z</time>
      </trkpt>
      <trkpt lat="50.56467" lon="1.61341">
        <ele>20.4</ele>
        <time>2020-06-22T07:58:18Z</time>
      </trkpt>
      <trkpt lat="50.56472" lon="1.6134">
        <ele>20.4</ele>
        <time>2020-06-22T07:58:19Z</time>
      </trkpt>
      <trkpt lat="50.56478" lon="1.6134">
        <ele>20.5</ele>
        <time>2020-06-22T07:58:20Z</time>
      </trkpt>
      <trkpt lat="50.56484" lon="1.6134">
        <ele>20.5</ele>
        <time>2020-06-22T07:58:21Z</time>
      </trkpt>
      <trkpt lat="50.56489" lon="1.61341">
        <ele>20.6</ele>
        <time>2020-06-22T07:58:22Z</time>
      </trkpt>
      <trkpt lat="50.56494" lon="1.61341">
        <ele>20.6</ele>
        <time>2020-06-22T07:58:23Z</time>
      </trkpt>
      <trkpt lat="50.56501" lon="1.61342">
        <ele>20.7</ele>
        <time>2020-06-22T07:58:24Z</time>
      </trkpt>
      <trkpt lat="50.56506" lon="1.61343">
        <ele>20.8</ele>
        <time>2020-06-22T07:58:25Z</time>
      </trkpt>
      <trkpt lat="50.56512" lon="1.61343">
        <ele>20.8</ele>
        <time>2020-06-22T07:58:26Z</time>
      </trkpt>
      <trkpt lat="50.56517" lon="1.61343">
        <ele>20.9</ele>
        <time>2020-06-22T07:58:27Z</time>
      </trkpt>
      <trkpt lat="50.56523" lon="1.61344">
        <ele>20.9</ele>
        <time>2020-06-22T07:58:28Z</time>
      </trkpt>
      <trkpt lat="50.56528" lon="1.61344">
        <ele>20.9</ele>
        <time>2020-06-22T07:58:29Z</time>
      </trkpt>
      <trkpt lat="50.56534" lon="1.61345">
        <ele>21</ele>
        <time>2020-06-22T07:58:30Z</time>
      </trkpt>
      <trkpt lat="50.56541" lon="1.61345">
        <ele>21.1</ele>
        <time>2020-06-22T07:58:31Z</time>
      </trkpt>
      <trkpt lat="50.56545" lon="1.61345">
        <ele>21.2</ele>
        <time>2020-06-22T07:58:32Z</time>
      </trkpt>
      <trkpt lat="50.5655" lon="1.61346">
        <ele>21.3</ele>
        <time>2020-06-22T07:58:33Z</time>
      </trkpt>
      <trkpt lat="50.56554" lon="1.61346">
        <ele>21.3</ele>
        <time>2020-06-22T07:58:34Z</time>
      </trkpt>
      <trkpt lat="50.56559" lon="1.61346">
        <ele>21.4</ele>
        <time>2020-06-22T07:58:35Z</time>
      </trkpt>
      <trkpt lat="50.56564" lon="1.61348">
        <ele>21.5</ele>
        <time>2020-06-22T07:58:36Z</time>
      </trkpt>
      <trkpt lat="50.5657" lon="1.61349">
        <ele>21.6</ele>
        <time>2020-06-22T07:58:37Z</time>
      </trkpt>
      <trkpt lat="50.56575" lon="1.61349">
        <ele>21.7</ele>
        <time>2020-06-22T07:58:38Z</time>
      </trkpt>
      <trkpt lat="50.56581" lon="1.6135">
        <ele>21.7</ele>
        <time>2020-06-22T07:58:39Z</time>
      </trkpt>
      <trkpt lat="50.56586" lon="1.61351">
        <ele>21.7</ele>
        <time>2020-06-22T07:58:40Z</time>
      </trkpt>
      <trkpt lat="50.56593" lon="1.61352">
        <ele>21.7</ele>
        <time>2020-06-22T07:58:41Z</time>
      </trkpt>
      <trkpt lat="50.56597" lon="1.61353">
        <ele>21.7</ele>
        <time>2020-06-22T07:58:42Z</time>
      </trkpt>
      <trkpt lat="50.56602" lon="1.61355">
        <ele>21.7</ele>
        <time>2020-06-22T07:58:43Z</time>
      </trkpt>
      <trkpt lat="50.56607" lon="1.61356">
        <ele>21.7</ele>
        <time>2020-06-22T07:58:44Z</time>
      </trkpt>
      <trkpt lat="50.56611" lon="1.61356">
        <ele>21.7</ele>
        <time>2020-06-22T07:58:45Z</time>
      </trkpt>
      <trkpt lat="50.56614" lon="1.61355">
        <ele>21.7</ele>
        <time>2020-06-22T07:58:46Z</time>
      </trkpt>
      <trkpt lat="50.56618" lon="1.61354">
        <ele>21.8</ele>
        <time>2020-06-22T07:58:47Z</time>
      </trkpt>
      <trkpt lat="50.56622" lon="1.61356">
        <ele>21.8</ele>
        <time>2020-06-22T07:58:48Z</time>
      </trkpt>
      <trkpt lat="50.56627" lon="1.61357">
        <ele>21.7</ele>
        <time>2020-06-22T07:58:49Z</time>
      </trkpt>
      <trkpt lat="50.56631" lon="1.61358">
        <ele>21.7</ele>
        <time>2020-06-22T07:58:50Z</time>
      </trkpt>
      <trkpt lat="50.56634" lon="1.61358">
        <ele>21.7</ele>
        <time>2020-06-22T07:58:51Z</time>
      </trkpt>
      <trkpt lat="50.56638" lon="1.61359">
        <ele>21.7</ele>
        <time>2020-06-22T07:58:52Z</time>
      </trkpt>
      <trkpt lat="50.56641" lon="1.61359">
        <ele>21.7</ele>
        <time>2020-06-22T07:58:53Z</time>
      </trkpt>
      <trkpt lat="50.56645" lon="1.6136">
        <ele>21.6</ele>
        <time>2020-06-22T07:58:54Z</time>
      </trkpt>
      <trkpt lat="50.5665" lon="1.61361">
        <ele>21.6</ele>
        <time>2020-06-22T07:58:55Z</time>
      </trkpt>
      <trkpt lat="50.56658" lon="1.61362">
        <ele>21.5</ele>
        <time>2020-06-22T07:58:56Z</time>
      </trkpt>
      <trkpt lat="50.56665" lon="1.61362">
        <ele>21.4</ele>
        <time>2020-06-22T07:58:57Z</time>
      </trkpt>
      <trkpt lat="50.5667" lon="1.61362">
        <ele>21.4</ele>
        <time>2020-06-22T07:58:58Z</time>
      </trkpt>
      <trkpt lat="50.56677" lon="1.61361">
        <ele>21.3</ele>
        <time>2020-06-22T07:58:59Z</time>
      </trkpt>
      <trkpt lat="50.56683" lon="1.6136">
        <ele>21.3</ele>
        <time>2020-06-22T07:59:00Z</time>
      </trkpt>
      <trkpt lat="50.56689" lon="1.61361">
        <ele>21.2</ele>
        <time>2020-06-22T07:59:01Z</time>
      </trkpt>
      <trkpt lat="50.56695" lon="1.61361">
        <ele>21.2</ele>
        <time>2020-06-22T07:59:02Z</time>
      </trkpt>
      <trkpt lat="50.56699" lon="1.61362">
        <ele>21.2</ele>
        <time>2020-06-22T07:59:03Z</time>
      </trkpt>
      <trkpt lat="50.56705" lon="1.61361">
        <ele>21.1</ele>
        <time>2020-06-22T07:59:04Z</time>
      </trkpt>
      <trkpt lat="50.5671" lon="1.61361">
        <ele>21.1</ele>
        <time>2020-06-22T07:59:05Z</time>
      </trkpt>
      <trkpt lat="50.56716" lon="1.6136">
        <ele>21.1</ele>
        <time>2020-06-22T07:59:06Z</time>
      </trkpt>
      <trkpt lat="50.56722" lon="1.61361">
        <ele>21.1</ele>
        <time>2020-06-22T07:59:07Z</time>
      </trkpt>
      <trkpt lat="50.56729" lon="1.61361">
        <ele>21.1</ele>
        <time>2020-06-22T07:59:08Z</time>
      </trkpt>
      <trkpt lat="50.56734" lon="1.61361">
        <ele>21.1</ele>
        <time>2020-06-22T07:59:09Z</time>
      </trkpt>
      <trkpt lat="50.5674" lon="1.61361">
        <ele>21.1</ele>
        <time>2020-06-22T07:59:10Z</time>
      </trkpt>
      <trkpt lat="50.56746" lon="1.61361">
        <ele>21.1</ele>
        <time>2020-06-22T07:59:11Z</time>
      </trkpt>
      <trkpt lat="50.56753" lon="1.61362">
        <ele>21.2</ele>
        <time>2020-06-22T07:59:12Z</time>
      </trkpt>
      <trkpt lat="50.5676" lon="1.61362">
        <ele>21.3</ele>
        <time>2020-06-22T07:59:13Z</time>
      </trkpt>
      <trkpt lat="50.56768" lon="1.61363">
        <ele>21.4</ele>
        <time>2020-06-22T07:59:14Z</time>
      </trkpt>
      <trkpt lat="50.56775" lon="1.61363">
        <ele>21.5</ele>
        <time>2020-06-22T07:59:15Z</time>
      </trkpt>
      <trkpt lat="50.56781" lon="1.61363">
        <ele>21.5</ele>
        <time>2020-06-22T07:59:16Z</time>
      </trkpt>
      <trkpt lat="50.56786" lon="1.61363">
        <ele>21.5</ele>
        <time>2020-06-22T07:59:17Z</time>
      </trkpt>
      <trkpt lat="50.56792" lon="1.61364">
        <ele>21.6</ele>
        <time>2020-06-22T07:59:18Z</time>
      </trkpt>
      <trkpt lat="50.56797" lon="1.61364">
        <ele>21.6</ele>
        <time>2020-06-22T07:59:19Z</time>
      </trkpt>
      <trkpt lat="50.56803" lon="1.61365">
        <ele>21.7</ele>
        <time>2020-06-22T07:59:20Z</time>
      </trkpt>
      <trkpt lat="50.56809" lon="1.61365">
        <ele>21.7</ele>
        <time>2020-06-22T07:59:21Z</time>
      </trkpt>
      <trkpt lat="50.56814" lon="1.61367">
        <ele>21.8</ele>
        <time>2020-06-22T07:59:22Z</time>
      </trkpt>
      <trkpt lat="50.56821" lon="1.61366">
        <ele>21.9</ele>
        <time>2020-06-22T07:59:23Z</time>
      </trkpt>
      <trkpt lat="50.56826" lon="1.61366">
        <ele>21.9</ele>
        <time>2020-06-22T07:59:24Z</time>
      </trkpt>
      <trkpt lat="50.5683" lon="1.61366">
        <ele>22</ele>
        <time>2020-06-22T07:59:25Z</time>
      </trkpt>
      <trkpt lat="50.56837" lon="1.61365">
        <ele>22</ele>
        <time>2020-06-22T07:59:26Z</time>
      </trkpt>
      <trkpt lat="50.56842" lon="1.61364">
        <ele>22.1</ele>
        <time>2020-06-22T07:59:27Z</time>
      </trkpt>
      <trkpt lat="50.56848" lon="1.61366">
        <ele>22.1</ele>
        <time>2020-06-22T07:59:28Z</time>
      </trkpt>
      <trkpt lat="50.56852" lon="1.61366">
        <ele>22.1</ele>
        <time>2020-06-22T07:59:29Z</time>
      </trkpt>
      <trkpt lat="50.56856" lon="1.61366">
        <ele>22.1</ele>
        <time>2020-06-22T07:59:30Z</time>
      </trkpt>
      <trkpt lat="50.5686" lon="1.61366">
        <ele>22.1</ele>
        <time>2020-06-22T07:59:31Z</time>
      </trkpt>
      <trkpt lat="50.56867" lon="1.61365">
        <ele>21.9</ele>
        <time>2020-06-22T07:59:32Z</time>
      </trkpt>
      <trkpt lat="50.56871" lon="1.61365">
        <ele>21.9</ele>
        <time>2020-06-22T07:59:33Z</time>
      </trkpt>
      <trkpt lat="50.56877" lon="1.61365">
        <ele>21.8</ele>
        <time>2020-06-22T07:59:34Z</time>
      </trkpt>
      <trkpt lat="50.56882" lon="1.61364">
        <ele>21.7</ele>
        <time>2020-06-22T07:59:35Z</time>
      </trkpt>
      <trkpt lat="50.56889" lon="1.61363">
        <ele>21.7</ele>
        <time>2020-06-22T07:59:36Z</time>
      </trkpt>
      <trkpt lat="50.56895" lon="1.61362">
        <ele>21.6</ele>
        <time>2020-06-22T07:59:37Z</time>
      </trkpt>
      <trkpt lat="50.569" lon="1.61362">
        <ele>21.6</ele>
        <time>2020-06-22T07:59:38Z</time>
      </trkpt>
      <trkpt lat="50.56906" lon="1.61362">
        <ele>21.5</ele>
        <time>2020-06-22T07:59:39Z</time>
      </trkpt>
      <trkpt lat="50.56913" lon="1.61362">
        <ele>21.4</ele>
        <time>2020-06-22T07:59:40Z</time>
      </trkpt>
      <trkpt lat="50.56918" lon="1.61361">
        <ele>21.4</ele>
        <time>2020-06-22T07:59:41Z</time>
      </trkpt>
      <trkpt lat="50.56925" lon="1.6136">
        <ele>21.4</ele>
        <time>2020-06-22T07:59:42Z</time>
      </trkpt>
      <trkpt lat="50.56932" lon="1.61361">
        <ele>21.3</ele>
        <time>2020-06-22T07:59:43Z</time>
      </trkpt>
      <trkpt lat="50.56938" lon="1.6136">
        <ele>21.3</ele>
        <time>2020-06-22T07:59:44Z</time>
      </trkpt>
      <trkpt lat="50.56944" lon="1.6136">
        <ele>21.2</ele>
        <time>2020-06-22T07:59:45Z</time>
      </trkpt>
      <trkpt lat="50.56949" lon="1.6136">
        <ele>21.2</ele>
        <time>2020-06-22T07:59:46Z</time>
      </trkpt>
      <trkpt lat="50.56954" lon="1.61359">
        <ele>21.2</ele>
        <time>2020-06-22T07:59:47Z</time>
      </trkpt>
      <trkpt lat="50.56962" lon="1.61359">
        <ele>21.1</ele>
        <time>2020-06-22T07:59:48Z</time>
      </trkpt>
      <trkpt lat="50.5697" lon="1.6136">
        <ele>21.1</ele>
        <time>2020-06-22T07:59:49Z</time>
      </trkpt>
      <trkpt lat="50.56977" lon="1.61359">
        <ele>21</ele>
        <time>2020-06-22T07:59:50Z</time>
      </trkpt>
      <trkpt lat="50.56984" lon="1.61359">
        <ele>21</ele>
        <time>2020-06-22T07:59:51Z</time>
      </trkpt>
      <trkpt lat="50.5699" lon="1.61358">
        <ele>21</ele>
        <time>2020-06-22T07:59:52Z</time>
      </trkpt>
      <trkpt lat="50.56997" lon="1.61359">
        <ele>21.1</ele>
        <time>2020-06-22T07:59:53Z</time>
      </trkpt>
      <trkpt lat="50.57003" lon="1.61358">
        <ele>21.1</ele>
        <time>2020-06-22T07:59:54Z</time>
      </trkpt>
      <trkpt lat="50.57008" lon="1.61356">
        <ele>21.2</ele>
        <time>2020-06-22T07:59:55Z</time>
      </trkpt>
      <trkpt lat="50.57014" lon="1.61357">
        <ele>21.2</ele>
        <time>2020-06-22T07:59:56Z</time>
      </trkpt>
      <trkpt lat="50.5702" lon="1.61356">
        <ele>21.2</ele>
        <time>2020-06-22T07:59:57Z</time>
      </trkpt>
      <trkpt lat="50.57026" lon="1.61356">
        <ele>21.1</ele>
        <time>2020-06-22T07:59:58Z</time>
      </trkpt>
      <trkpt lat="50.57033" lon="1.61356">
        <ele>21.1</ele>
        <time>2020-06-22T07:59:59Z</time>
      </trkpt>
      <trkpt lat="50.57039" lon="1.61355">
        <ele>21</ele>
        <time>2020-06-22T08:00:00Z</time>
      </trkpt>
      <trkpt lat="50.57046" lon="1.61355">
        <ele>21</ele>
        <time>2020-06-22T08:00:01Z</time>
      </trkpt>
      <trkpt lat="50.57053" lon="1.61354">
        <ele>20.9</ele>
        <time>2020-06-22T08:00:02Z</time>
      </trkpt>
      <trkpt lat="50.5706" lon="1.61355">
        <ele>20.9</ele>
        <time>2020-06-22T08:00:03Z</time>
      </trkpt>
      <trkpt lat="50.57066" lon="1.61355">
        <ele>20.9</ele>
        <time>2020-06-22T08:00:04Z</time>
      </trkpt>
      <trkpt lat="50.57072" lon="1.61354">
        <ele>20.9</ele>
        <time>2020-06-22T08:00:05Z</time>
      </trkpt>
      <trkpt lat="50.57077" lon="1.61354">
        <ele>20.9</ele>
        <time>2020-06-22T08:00:06Z</time>
      </trkpt>
      <trkpt lat="50.57083" lon="1.61353">
        <ele>20.9</ele>
        <time>2020-06-22T08:00:07Z</time>
      </trkpt>
      <trkpt lat="50.57088" lon="1.61352">
        <ele>20.9</ele>
        <time>2020-06-22T08:00:08Z</time>
      </trkpt>
      <trkpt lat="50.57096" lon="1.61351">
        <ele>20.9</ele>
        <time>2020-06-22T08:00:09Z</time>
      </trkpt>
      <trkpt lat="50.57102" lon="1.61351">
        <ele>20.9</ele>
        <time>2020-06-22T08:00:10Z</time>
      </trkpt>
      <trkpt lat="50.57107" lon="1.61349">
        <ele>20.9</ele>
        <time>2020-06-22T08:00:11Z</time>
      </trkpt>
      <trkpt lat="50.57114" lon="1.6135">
        <ele>20.9</ele>
        <time>2020-06-22T08:00:12Z</time>
      </trkpt>
      <trkpt lat="50.57121" lon="1.61348">
        <ele>20.9</ele>
        <time>2020-06-22T08:00:13Z</time>
      </trkpt>
      <trkpt lat="50.57127" lon="1.61347">
        <ele>20.9</ele>
        <time>2020-06-22T08:00:14Z</time>
      </trkpt>
      <trkpt lat="50.57134" lon="1.61346">
        <ele>21</ele>
        <time>2020-06-22T08:00:15Z</time>
      </trkpt>
      <trkpt lat="50.57141" lon="1.61344">
        <ele>21</ele>
        <time>2020-06-22T08:00:16Z</time>
      </trkpt>
      <trkpt lat="50.57148" lon="1.61343">
        <ele>21</ele>
        <time>2020-06-22T08:00:17Z</time>
      </trkpt>
      <trkpt lat="50.57155" lon="1.61343">
        <ele>21</ele>
        <time>2020-06-22T08:00:18Z</time>
      </trkpt>
      <trkpt lat="50.57161" lon="1.61341">
        <ele>21.1</ele>
        <time>2020-06-22T08:00:19Z</time>
      </trkpt>
      <trkpt lat="50.57167" lon="1.61339">
        <ele>21.1</ele>
        <time>2020-06-22T08:00:20Z</time>
      </trkpt>
      <trkpt lat="50.57173" lon="1.61336">
        <ele>21.1</ele>
        <time>2020-06-22T08:00:21Z</time>
      </trkpt>
      <trkpt lat="50.57179" lon="1.61334">
        <ele>21.1</ele>
        <time>2020-06-22T08:00:22Z</time>
      </trkpt>
      <trkpt lat="50.57186" lon="1.61332">
        <ele>21.2</ele>
        <time>2020-06-22T08:00:23Z</time>
      </trkpt>
      <trkpt lat="50.57192" lon="1.6133">
        <ele>21.2</ele>
        <time>2020-06-22T08:00:24Z</time>
      </trkpt>
      <trkpt lat="50.57198" lon="1.61328">
        <ele>21.3</ele>
        <time>2020-06-22T08:00:25Z</time>
      </trkpt>
      <trkpt lat="50.57205" lon="1.61327">
        <ele>21.3</ele>
        <time>2020-06-22T08:00:26Z</time>
      </trkpt>
      <trkpt lat="50.57211" lon="1.61325">
        <ele>21.4</ele>
        <time>2020-06-22T08:00:27Z</time>
      </trkpt>
      <trkpt lat="50.57216" lon="1.61323">
        <ele>21.5</ele>
        <time>2020-06-22T08:00:28Z</time>
      </trkpt>
      <trkpt lat="50.57222" lon="1.61321">
        <ele>21.6</ele>
        <time>2020-06-22T08:00:29Z</time>
      </trkpt>
      <trkpt lat="50.57228" lon="1.61318">
        <ele>21.7</ele>
        <time>2020-06-22T08:00:30Z</time>
      </trkpt>
      <trkpt lat="50.57233" lon="1.61315">
        <ele>21.7</ele>
        <time>2020-06-22T08:00:31Z</time>
      </trkpt>
      <trkpt lat="50.57236" lon="1.61312">
        <ele>21.8</ele>
        <time>2020-06-22T08:00:32Z</time>
      </trkpt>
      <trkpt lat="50.57242" lon="1.61311">
        <ele>21.9</ele>
        <time>2020-06-22T08:00:33Z</time>
      </trkpt>
      <trkpt lat="50.57247" lon="1.6131">
        <ele>22</ele>
        <time>2020-06-22T08:00:34Z</time>
      </trkpt>
      <trkpt lat="50.57252" lon="1.61308">
        <ele>22</ele>
        <time>2020-06-22T08:00:35Z</time>
      </trkpt>
      <trkpt lat="50.57257" lon="1.61306">
        <ele>22.1</ele>
        <time>2020-06-22T08:00:36Z</time>
      </trkpt>
      <trkpt lat="50.57262" lon="1.61305">
        <ele>22.2</ele>
        <time>2020-06-22T08:00:37Z</time>
      </trkpt>
      <trkpt lat="50.57265" lon="1.61304">
        <ele>22.2</ele>
        <time>2020-06-22T08:00:38Z</time>
      </trkpt>
      <trkpt lat="50.57268" lon="1.61304">
        <ele>22.3</ele>
        <time>2020-06-22T08:00:39Z</time>
      </trkpt>
      <trkpt lat="50.57272" lon="1.61302">
        <ele>22.3</ele>
        <time>2020-06-22T08:00:40Z</time>
      </trkpt>
      <trkpt lat="50.57278" lon="1.61302">
        <ele>22.4</ele>
        <time>2020-06-22T08:00:41Z</time>
      </trkpt>
      <trkpt lat="50.57284" lon="1.61301">
        <ele>22.5</ele>
        <time>2020-06-22T08:00:42Z</time>
      </trkpt>
      <trkpt lat="50.57289" lon="1.61299">
        <ele>22.6</ele>
        <time>2020-06-22T08:00:43Z</time>
      </trkpt>
      <trkpt lat="50.57295" lon="1.61297">
        <ele>22.7</ele>
        <time>2020-06-22T08:00:44Z</time>
      </trkpt>
      <trkpt lat="50.57301" lon="1.61295">
        <ele>22.8</ele>
        <time>2020-06-22T08:00:45Z</time>
      </trkpt>
      <trkpt lat="50.57305" lon="1.61293">
        <ele>22.9</ele>
        <time>2020-06-22T08:00:46Z</time>
      </trkpt>
      <trkpt lat="50.57311" lon="1.61292">
        <ele>22.9</ele>
        <time>2020-06-22T08:00:47Z</time>
      </trkpt>
      <trkpt lat="50.57317" lon="1.6129">
        <ele>23</ele>
        <time>2020-06-22T08:00:48Z</time>
      </trkpt>
      <trkpt lat="50.57322" lon="1.61289">
        <ele>23</ele>
        <time>2020-06-22T08:00:49Z</time>
      </trkpt>
      <trkpt lat="50.57328" lon="1.61288">
        <ele>23.1</ele>
        <time>2020-06-22T08:00:50Z</time>
      </trkpt>
      <trkpt lat="50.57331" lon="1.61285">
        <ele>23.1</ele>
        <time>2020-06-22T08:00:51Z</time>
      </trkpt>
      <trkpt lat="50.57336" lon="1.61283">
        <ele>23.1</ele>
        <time>2020-06-22T08:00:52Z</time>
      </trkpt>
      <trkpt lat="50.57342" lon="1.61281">
        <ele>23.2</ele>
        <time>2020-06-22T08:00:53Z</time>
      </trkpt>
      <trkpt lat="50.57348" lon="1.6128">
        <ele>23.2</ele>
        <time>2020-06-22T08:00:54Z</time>
      </trkpt>
      <trkpt lat="50.57354" lon="1.61279">
        <ele>23.3</ele>
        <time>2020-06-22T08:00:55Z</time>
      </trkpt>
      <trkpt lat="50.5736" lon="1.61277">
        <ele>23.3</ele>
        <time>2020-06-22T08:00:56Z</time>
      </trkpt>
      <trkpt lat="50.57368" lon="1.61275">
        <ele>23.3</ele>
        <time>2020-06-22T08:00:57Z</time>
      </trkpt>
      <trkpt lat="50.57374" lon="1.61273">
        <ele>23.3</ele>
        <time>2020-06-22T08:00:58Z</time>
      </trkpt>
      <trkpt lat="50.57379" lon="1.61271">
        <ele>23.3</ele>
        <time>2020-06-22T08:00:59Z</time>
      </trkpt>
      <trkpt lat="50.57385" lon="1.6127">
        <ele>23.3</ele>
        <time>2020-06-22T08:01:00Z</time>
      </trkpt>
      <trkpt lat="50.5739" lon="1.61269">
        <ele>23.4</ele>
        <time>2020-06-22T08:01:01Z</time>
      </trkpt>
      <trkpt lat="50.57395" lon="1.61267">
        <ele>23.4</ele>
        <time>2020-06-22T08:01:02Z</time>
      </trkpt>
      <trkpt lat="50.57403" lon="1.61267">
        <ele>23.3</ele>
        <time>2020-06-22T08:01:03Z</time>
      </trkpt>
      <trkpt lat="50.57411" lon="1.61266">
        <ele>23.3</ele>
        <time>2020-06-22T08:01:04Z</time>
      </trkpt>
      <trkpt lat="50.57419" lon="1.61265">
        <ele>23.3</ele>
        <time>2020-06-22T08:01:05Z</time>
      </trkpt>
      <trkpt lat="50.57426" lon="1.61264">
        <ele>23.3</ele>
        <time>2020-06-22T08:01:06Z</time>
      </trkpt>
      <trkpt lat="50.57432" lon="1.61264">
        <ele>23.3</ele>
        <time>2020-06-22T08:01:07Z</time>
      </trkpt>
      <trkpt lat="50.57438" lon="1.61263">
        <ele>23.3</ele>
        <time>2020-06-22T08:01:08Z</time>
      </trkpt>
      <trkpt lat="50.57443" lon="1.61261">
        <ele>23.2</ele>
        <time>2020-06-22T08:01:09Z</time>
      </trkpt>
      <trkpt lat="50.57449" lon="1.61261">
        <ele>23.2</ele>
        <time>2020-06-22T08:01:10Z</time>
      </trkpt>
      <trkpt lat="50.57455" lon="1.6126">
        <ele>23.2</ele>
        <time>2020-06-22T08:01:11Z</time>
      </trkpt>
      <trkpt lat="50.57461" lon="1.6126">
        <ele>23.2</ele>
        <time>2020-06-22T08:01:12Z</time>
      </trkpt>
      <trkpt lat="50.57466" lon="1.6126">
        <ele>23.2</ele>
        <time>2020-06-22T08:01:13Z</time>
      </trkpt>
      <trkpt lat="50.57472" lon="1.6126">
        <ele>23.2</ele>
        <time>2020-06-22T08:01:14Z</time>
      </trkpt>
      <trkpt lat="50.57478" lon="1.61259">
        <ele>23.3</ele>
        <time>2020-06-22T08:01:15Z</time>
      </trkpt>
      <trkpt lat="50.57483" lon="1.6126">
        <ele>23.3</ele>
        <time>2020-06-22T08:01:16Z</time>
      </trkpt>
      <trkpt lat="50.57489" lon="1.6126">
        <ele>23.4</ele>
        <time>2020-06-22T08:01:17Z</time>
      </trkpt>
      <trkpt lat="50.57495" lon="1.61261">
        <ele>23.4</ele>
        <time>2020-06-22T08:01:18Z</time>
      </trkpt>
      <trkpt lat="50.575" lon="1.61258">
        <ele>23.5</ele>
        <time>2020-06-22T08:01:19Z</time>
      </trkpt>
      <trkpt lat="50.57506" lon="1.61258">
        <ele>23.5</ele>
        <time>2020-06-22T08:01:20Z</time>
      </trkpt>
      <trkpt lat="50.57512" lon="1.61257">
        <ele>23.6</ele>
        <time>2020-06-22T08:01:21Z</time>
      </trkpt>
      <trkpt lat="50.57518" lon="1.61256">
        <ele>23.7</ele>
        <time>2020-06-22T08:01:22Z</time>
      </trkpt>
      <trkpt lat="50.57524" lon="1.61257">
        <ele>23.7</ele>
        <time>2020-06-22T08:01:23Z</time>
      </trkpt>
      <trkpt lat="50.57531" lon="1.61259">
        <ele>23.8</ele>
        <time>2020-06-22T08:01:24Z</time>
      </trkpt>
      <trkpt lat="50.57537" lon="1.6126">
        <ele>23.9</ele>
        <time>2020-06-22T08:01:25Z</time>
      </trkpt>
      <trkpt lat="50.57542" lon="1.61262">
        <ele>23.9</ele>
        <time>2020-06-22T08:01:26Z</time>
      </trkpt>
      <trkpt lat="50.57548" lon="1.61262">
        <ele>23.9</ele>
        <time>2020-06-22T08:01:27Z</time>
      </trkpt>
      <trkpt lat="50.57552" lon="1.61262">
        <ele>24</ele>
        <time>2020-06-22T08:01:28Z</time>
      </trkpt>
      <trkpt lat="50.57558" lon="1.61262">
        <ele>24</ele>
        <time>2020-06-22T08:01:29Z</time>
      </trkpt>
      <trkpt lat="50.57562" lon="1.61261">
        <ele>24</ele>
        <time>2020-06-22T08:01:30Z</time>
      </trkpt>
      <trkpt lat="50.57567" lon="1.61262">
        <ele>24.1</ele>
        <time>2020-06-22T08:01:31Z</time>
      </trkpt>
      <trkpt lat="50.57573" lon="1.61261">
        <ele>24.1</ele>
        <time>2020-06-22T08:01:32Z</time>
      </trkpt>
      <trkpt lat="50.5758" lon="1.61261">
        <ele>24.2</ele>
        <time>2020-06-22T08:01:33Z</time>
      </trkpt>
      <trkpt lat="50.57587" lon="1.61261">
        <ele>24.2</ele>
        <time>2020-06-22T08:01:34Z</time>
      </trkpt>
      <trkpt lat="50.57594" lon="1.61261">
        <ele>24.3</ele>
        <time>2020-06-22T08:01:35Z</time>
      </trkpt>
      <trkpt lat="50.576" lon="1.61261">
        <ele>24.4</ele>
        <time>2020-06-22T08:01:36Z</time>
      </trkpt>
      <trkpt lat="50.57605" lon="1.61261">
        <ele>24.5</ele>
        <time>2020-06-22T08:01:37Z</time>
      </trkpt>
      <trkpt lat="50.5761" lon="1.61262">
        <ele>24.5</ele>
        <time>2020-06-22T08:01:38Z</time>
      </trkpt>
      <trkpt lat="50.57616" lon="1.61264">
        <ele>24.6</ele>
        <time>2020-06-22T08:01:39Z</time>
      </trkpt>
      <trkpt lat="50.57621" lon="1.61264">
        <ele>24.6</ele>
        <time>2020-06-22T08:01:40Z</time>
      </trkpt>
      <trkpt lat="50.57627" lon="1.61263">
        <ele>24.7</ele>
        <time>2020-06-22T08:01:41Z</time>
      </trkpt>
      <trkpt lat="50.57634" lon="1.61262">
        <ele>24.7</ele>
        <time>2020-06-22T08:01:42Z</time>
      </trkpt>
      <trkpt lat="50.5764" lon="1.61262">
        <ele>24.8</ele>
        <time>2020-06-22T08:01:43Z</time>
      </trkpt>
      <trkpt lat="50.57645" lon="1.6126">
        <ele>24.8</ele>
        <time>2020-06-22T08:01:44Z</time>
      </trkpt>
      <trkpt lat="50.57652" lon="1.61261">
        <ele>24.9</ele>
        <time>2020-06-22T08:01:45Z</time>
      </trkpt>
      <trkpt lat="50.57657" lon="1.6126">
        <ele>24.9</ele>
        <time>2020-06-22T08:01:46Z</time>
      </trkpt>
      <trkpt lat="50.57662" lon="1.6126">
        <ele>24.9</ele>
        <time>2020-06-22T08:01:47Z</time>
      </trkpt>
      <trkpt lat="50.57668" lon="1.6126">
        <ele>24.9</ele>
        <time>2020-06-22T08:01:48Z</time>
      </trkpt>
      <trkpt lat="50.57674" lon="1.61259">
        <ele>24.9</ele>
        <time>2020-06-22T08:01:49Z</time>
      </trkpt>
      <trkpt lat="50.57679" lon="1.61259">
        <ele>24.9</ele>
        <time>2020-06-22T08:01:50Z</time>
      </trkpt>
      <trkpt lat="50.57686" lon="1.61259">
        <ele>24.9</ele>
        <time>2020-06-22T08:01:51Z</time>
      </trkpt>
      <trkpt lat="50.57692" lon="1.61259">
        <ele>24.9</ele>
        <time>2020-06-22T08:01:52Z</time>
      </trkpt>
      <trkpt lat="50.57697" lon="1.61259">
        <ele>24.9</ele>
        <time>2020-06-22T08:01:53Z</time>
      </trkpt>
      <trkpt lat="50.57703" lon="1.61259">
        <ele>24.9</ele>
        <time>2020-06-22T08:01:54Z</time>
      </trkpt>
      <trkpt lat="50.57709" lon="1.61258">
        <ele>24.8</ele>
        <time>2020-06-22T08:01:55Z</time>
      </trkpt>
      <trkpt lat="50.57716" lon="1.61257">
        <ele>24.8</ele>
        <time>2020-06-22T08:01:56Z</time>
      </trkpt>
      <trkpt lat="50.57722" lon="1.61257">
        <ele>24.8</ele>
        <time>2020-06-22T08:01:57Z</time>
      </trkpt>
      <trkpt lat="50.57728" lon="1.61257">
        <ele>24.8</ele>
        <time>2020-06-22T08:01:58Z</time>
      </trkpt>
      <trkpt lat="50.57735" lon="1.61258">
        <ele>24.8</ele>
        <time>2020-06-22T08:01:59Z</time>
      </trkpt>
      <trkpt lat="50.5774" lon="1.61257">
        <ele>24.7</ele>
        <time>2020-06-22T08:02:00Z</time>
      </trkpt>
      <trkpt lat="50.57744" lon="1.61257">
        <ele>24.7</ele>
        <time>2020-06-22T08:02:01Z</time>
      </trkpt>
      <trkpt lat="50.57751" lon="1.61257">
        <ele>24.7</ele>
        <time>2020-06-22T08:02:02Z</time>
      </trkpt>
      <trkpt lat="50.57757" lon="1.61258">
        <ele>24.6</ele>
        <time>2020-06-22T08:02:03Z</time>
      </trkpt>
      <trkpt lat="50.57765" lon="1.61259">
        <ele>24.6</ele>
        <time>2020-06-22T08:02:04Z</time>
      </trkpt>
      <trkpt lat="50.57772" lon="1.61259">
        <ele>24.6</ele>
        <time>2020-06-22T08:02:05Z</time>
      </trkpt>
      <trkpt lat="50.57777" lon="1.61259">
        <ele>24.5</ele>
        <time>2020-06-22T08:02:06Z</time>
      </trkpt>
      <trkpt lat="50.57781" lon="1.61258">
        <ele>24.5</ele>
        <time>2020-06-22T08:02:07Z</time>
      </trkpt>
      <trkpt lat="50.57787" lon="1.61257">
        <ele>24.5</ele>
        <time>2020-06-22T08:02:08Z</time>
      </trkpt>
      <trkpt lat="50.57792" lon="1.61257">
        <ele>24.4</ele>
        <time>2020-06-22T08:02:09Z</time>
      </trkpt>
      <trkpt lat="50.578" lon="1.61256">
        <ele>24.4</ele>
        <time>2020-06-22T08:02:10Z</time>
      </trkpt>
      <trkpt lat="50.57808" lon="1.61258">
        <ele>24.3</ele>
        <time>2020-06-22T08:02:11Z</time>
      </trkpt>
      <trkpt lat="50.57813" lon="1.61259">
        <ele>24.3</ele>
        <time>2020-06-22T08:02:12Z</time>
      </trkpt>
      <trkpt lat="50.57819" lon="1.6126">
        <ele>24.2</ele>
        <time>2020-06-22T08:02:13Z</time>
      </trkpt>
      <trkpt lat="50.57826" lon="1.61261">
        <ele>24.2</ele>
        <time>2020-06-22T08:02:14Z</time>
      </trkpt>
      <trkpt lat="50.57832" lon="1.61261">
        <ele>24.1</ele>
        <time>2020-06-22T08:02:15Z</time>
      </trkpt>
      <trkpt lat="50.57839" lon="1.61263">
        <ele>24.1</ele>
        <time>2020-06-22T08:02:16Z</time>
      </trkpt>
      <trkpt lat="50.57846" lon="1.61264">
        <ele>24</ele>
        <time>2020-06-22T08:02:17Z</time>
      </trkpt>
      <trkpt lat="50.57853" lon="1.61265">
        <ele>23.9</ele>
        <time>2020-06-22T08:02:18Z</time>
      </trkpt>
      <trkpt lat="50.5786" lon="1.61267">
        <ele>23.9</ele>
        <time>2020-06-22T08:02:19Z</time>
      </trkpt>
      <trkpt lat="50.57866" lon="1.61267">
        <ele>23.8</ele>
        <time>2020-06-22T08:02:20Z</time>
      </trkpt>
      <trkpt lat="50.57873" lon="1.61269">
        <ele>23.8</ele>
        <time>2020-06-22T08:02:21Z</time>
      </trkpt>
      <trkpt lat="50.57879" lon="1.61272">
        <ele>23.8</ele>
        <time>2020-06-22T08:02:22Z</time>
      </trkpt>
      <trkpt lat="50.57886" lon="1.61273">
        <ele>23.7</ele>
        <time>2020-06-22T08:02:23Z</time>
      </trkpt>
      <trkpt lat="50.57892" lon="1.61274">
        <ele>23.7</ele>
        <time>2020-06-22T08:02:24Z</time>
      </trkpt>
      <trkpt lat="50.57899" lon="1.61275">
        <ele>23.7</ele>
        <time>2020-06-22T08:02:25Z</time>
      </trkpt>
      <trkpt lat="50.57906" lon="1.61277">
        <ele>23.7</ele>
        <time>2020-06-22T08:02:26Z</time>
      </trkpt>
      <trkpt lat="50.57913" lon="1.61279">
        <ele>23.7</ele>
        <time>2020-06-22T08:02:27Z</time>
      </trkpt>
      <trkpt lat="50.5792" lon="1.61281">
        <ele>23.6</ele>
        <time>2020-06-22T08:02:28Z</time>
      </trkpt>
      <trkpt lat="50.57926" lon="1.61283">
        <ele>23.7</ele>
        <time>2020-06-22T08:02:29Z</time>
      </trkpt>
      <trkpt lat="50.57933" lon="1.61285">
        <ele>23.7</ele>
        <time>2020-06-22T08:02:30Z</time>
      </trkpt>
      <trkpt lat="50.5794" lon="1.61286">
        <ele>23.7</ele>
        <time>2020-06-22T08:02:31Z</time>
      </trkpt>
      <trkpt lat="50.57946" lon="1.61289">
        <ele>23.7</ele>
        <time>2020-06-22T08:02:32Z</time>
      </trkpt>
      <trkpt lat="50.57953" lon="1.61289">
        <ele>23.7</ele>
        <time>2020-06-22T08:02:33Z</time>
      </trkpt>
      <trkpt lat="50.5796" lon="1.61291">
        <ele>23.7</ele>
        <time>2020-06-22T08:02:34Z</time>
      </trkpt>
      <trkpt lat="50.57967" lon="1.61292">
        <ele>23.8</ele>
        <time>2020-06-22T08:02:35Z</time>
      </trkpt>
      <trkpt lat="50.57974" lon="1.61292">
        <ele>23.8</ele>
        <time>2020-06-22T08:02:36Z</time>
      </trkpt>
      <trkpt lat="50.5798" lon="1.61292">
        <ele>23.8</ele>
        <time>2020-06-22T08:02:37Z</time>
      </trkpt>
      <trkpt lat="50.57987" lon="1.61292">
        <ele>23.9</ele>
        <time>2020-06-22T08:02:38Z</time>
      </trkpt>
      <trkpt lat="50.57994" lon="1.61292">
        <ele>23.9</ele>
        <time>2020-06-22T08:02:39Z</time>
      </trkpt>
      <trkpt lat="50.58001" lon="1.61292">
        <ele>23.9</ele>
        <time>2020-06-22T08:02:40Z</time>
      </trkpt>
      <trkpt lat="50.58007" lon="1.61292">
        <ele>24</ele>
        <time>2020-06-22T08:02:41Z</time>
      </trkpt>
      <trkpt lat="50.58014" lon="1.61293">
        <ele>24</ele>
        <time>2020-06-22T08:02:42Z</time>
      </trkpt>
      <trkpt lat="50.58021" lon="1.61295">
        <ele>24.1</ele>
        <time>2020-06-22T08:02:43Z</time>
      </trkpt>
      <trkpt lat="50.58028" lon="1.61295">
        <ele>24.1</ele>
        <time>2020-06-22T08:02:44Z</time>
      </trkpt>
      <trkpt lat="50.58034" lon="1.61295">
        <ele>24.2</ele>
        <time>2020-06-22T08:02:45Z</time>
      </trkpt>
      <trkpt lat="50.58041" lon="1.61295">
        <ele>24.2</ele>
        <time>2020-06-22T08:02:46Z</time>
      </trkpt>
      <trkpt lat="50.58047" lon="1.61297">
        <ele>24.3</ele>
        <time>2020-06-22T08:02:47Z</time>
      </trkpt>
      <trkpt lat="50.58054" lon="1.61297">
        <ele>24.3</ele>
        <time>2020-06-22T08:02:48Z</time>
      </trkpt>
      <trkpt lat="50.5806" lon="1.61298">
        <ele>24.4</ele>
        <time>2020-06-22T08:02:49Z</time>
      </trkpt>
      <trkpt lat="50.58067" lon="1.61299">
        <ele>24.5</ele>
        <time>2020-06-22T08:02:50Z</time>
      </trkpt>
      <trkpt lat="50.58073" lon="1.613">
        <ele>24.5</ele>
        <time>2020-06-22T08:02:51Z</time>
      </trkpt>
      <trkpt lat="50.5808" lon="1.61301">
        <ele>24.6</ele>
        <time>2020-06-22T08:02:52Z</time>
      </trkpt>
      <trkpt lat="50.58086" lon="1.61302">
        <ele>24.7</ele>
        <time>2020-06-22T08:02:53Z</time>
      </trkpt>
      <trkpt lat="50.58092" lon="1.61304">
        <ele>24.7</ele>
        <time>2020-06-22T08:02:54Z</time>
      </trkpt>
      <trkpt lat="50.58098" lon="1.61306">
        <ele>24.8</ele>
        <time>2020-06-22T08:02:55Z</time>
      </trkpt>
      <trkpt lat="50.58104" lon="1.61308">
        <ele>24.9</ele>
        <time>2020-06-22T08:02:56Z</time>
      </trkpt>
      <trkpt lat="50.5811" lon="1.61309">
        <ele>25</ele>
        <time>2020-06-22T08:02:57Z</time>
      </trkpt>
      <trkpt lat="50.58116" lon="1.6131">
        <ele>25.1</ele>
        <time>2020-06-22T08:02:58Z</time>
      </trkpt>
      <trkpt lat="50.58122" lon="1.61313">
        <ele>25.2</ele>
        <time>2020-06-22T08:02:59Z</time>
      </trkpt>
      <trkpt lat="50.58128" lon="1.61314">
        <ele>25.4</ele>
        <time>2020-06-22T08:03:00Z</time>
      </trkpt>
      <trkpt lat="50.58134" lon="1.61316">
        <ele>25.5</ele>
        <time>2020-06-22T08:03:01Z</time>
      </trkpt>
      <trkpt lat="50.5814" lon="1.61318">
        <ele>25.7</ele>
        <time>2020-06-22T08:03:02Z</time>
      </trkpt>
      <trkpt lat="50.58147" lon="1.6132">
        <ele>25.8</ele>
        <time>2020-06-22T08:03:03Z</time>
      </trkpt>
      <trkpt lat="50.58153" lon="1.61322">
        <ele>25.9</ele>
        <time>2020-06-22T08:03:04Z</time>
      </trkpt>
      <trkpt lat="50.58159" lon="1.61325">
        <ele>25.9</ele>
        <time>2020-06-22T08:03:05Z</time>
      </trkpt>
      <trkpt lat="50.58165" lon="1.61327">
        <ele>26</ele>
        <time>2020-06-22T08:03:06Z</time>
      </trkpt>
      <trkpt lat="50.58171" lon="1.61329">
        <ele>26.1</ele>
        <time>2020-06-22T08:03:07Z</time>
      </trkpt>
      <trkpt lat="50.58177" lon="1.61331">
        <ele>26.2</ele>
        <time>2020-06-22T08:03:08Z</time>
      </trkpt>
      <trkpt lat="50.58184" lon="1.61334">
        <ele>26.3</ele>
        <time>2020-06-22T08:03:09Z</time>
      </trkpt>
      <trkpt lat="50.5819" lon="1.61337">
        <ele>26.4</ele>
        <time>2020-06-22T08:03:10Z</time>
      </trkpt>
      <trkpt lat="50.58196" lon="1.6134">
        <ele>26.5</ele>
        <time>2020-06-22T08:03:11Z</time>
      </trkpt>
      <trkpt lat="50.58202" lon="1.61343">
        <ele>26.6</ele>
        <time>2020-06-22T08:03:12Z</time>
      </trkpt>
      <trkpt lat="50.58208" lon="1.61346">
        <ele>26.7</ele>
        <time>2020-06-22T08:03:13Z</time>
      </trkpt>
      <trkpt lat="50.58214" lon="1.61349">
        <ele>26.8</ele>
        <time>2020-06-22T08:03:14Z</time>
      </trkpt>
      <trkpt lat="50.5822" lon="1.61352">
        <ele>26.9</ele>
        <time>2020-06-22T08:03:15Z</time>
      </trkpt>
      <trkpt lat="50.58226" lon="1.61355">
        <ele>26.9</ele>
        <time>2020-06-22T08:03:16Z</time>
      </trkpt>
      <trkpt lat="50.58232" lon="1.61359">
        <ele>27</ele>
        <time>2020-06-22T08:03:17Z</time>
      </trkpt>
      <trkpt lat="50.58237" lon="1.61362">
        <ele>27.1</ele>
        <time>2020-06-22T08:03:18Z</time>
      </trkpt>
      <trkpt lat="50.58244" lon="1.61365">
        <ele>27.2</ele>
        <time>2020-06-22T08:03:19Z</time>
      </trkpt>
      <trkpt lat="50.58249" lon="1.61368">
        <ele>27.2</ele>
        <time>2020-06-22T08:03:20Z</time>
      </trkpt>
      <trkpt lat="50.58255" lon="1.61371">
        <ele>27.3</ele>
        <time>2020-06-22T08:03:21Z</time>
      </trkpt>
      <trkpt lat="50.58261" lon="1.61374">
        <ele>27.3</ele>
        <time>2020-06-22T08:03:22Z</time>
      </trkpt>
      <trkpt lat="50.58267" lon="1.61378">
        <ele>27.4</ele>
        <time>2020-06-22T08:03:23Z</time>
      </trkpt>
      <trkpt lat="50.58273" lon="1.61381">
        <ele>27.4</ele>
        <time>2020-06-22T08:03:24Z</time>
      </trkpt>
      <trkpt lat="50.58279" lon="1.61383">
        <ele>27.4</ele>
        <time>2020-06-22T08:03:25Z</time>
      </trkpt>
      <trkpt lat="50.58285" lon="1.61387">
        <ele>27.4</ele>
        <time>2020-06-22T08:03:26Z</time>
      </trkpt>
      <trkpt lat="50.58291" lon="1.61389">
        <ele>27.4</ele>
        <time>2020-06-22T08:03:27Z</time>
      </trkpt>
      <trkpt lat="50.58297" lon="1.61392">
        <ele>27.4</ele>
        <time>2020-06-22T08:03:28Z</time>
      </trkpt>
      <trkpt lat="50.58303" lon="1.61395">
        <ele>27.4</ele>
        <time>2020-06-22T08:03:29Z</time>
      </trkpt>
      <trkpt lat="50.58308" lon="1.61398">
        <ele>27.4</ele>
        <time>2020-06-22T08:03:30Z</time>
      </trkpt>
      <trkpt lat="50.58315" lon="1.61399">
        <ele>27.4</ele>
        <time>2020-06-22T08:03:31Z</time>
      </trkpt>
      <trkpt lat="50.58321" lon="1.61401">
        <ele>27.4</ele>
        <time>2020-06-22T08:03:32Z</time>
      </trkpt>
      <trkpt lat="50.58327" lon="1.61403">
        <ele>27.4</ele>
        <time>2020-06-22T08:03:33Z</time>
      </trkpt>
      <trkpt lat="50.58333" lon="1.61404">
        <ele>27.4</ele>
        <time>2020-06-22T08:03:34Z</time>
      </trkpt>
      <trkpt lat="50.58338" lon="1.61404">
        <ele>27.4</ele>
        <time>2020-06-22T08:03:35Z</time>
      </trkpt>
      <trkpt lat="50.58345" lon="1.61404">
        <ele>27.4</ele>
        <time>2020-06-22T08:03:36Z</time>
      </trkpt>
      <trkpt lat="50.58351" lon="1.61403">
        <ele>27.5</ele>
        <time>2020-06-22T08:03:37Z</time>
      </trkpt>
      <trkpt lat="50.58359" lon="1.61402">
        <ele>27.5</ele>
        <time>2020-06-22T08:03:38Z</time>
      </trkpt>
      <trkpt lat="50.58366" lon="1.614">
        <ele>27.6</ele>
        <time>2020-06-22T08:03:39Z</time>
      </trkpt>
      <trkpt lat="50.58374" lon="1.61397">
        <ele>27.6</ele>
        <time>2020-06-22T08:03:40Z</time>
      </trkpt>
      <trkpt lat="50.5838" lon="1.61396">
        <ele>27.7</ele>
        <time>2020-06-22T08:03:41Z</time>
      </trkpt>
      <trkpt lat="50.58385" lon="1.61396">
        <ele>27.7</ele>
        <time>2020-06-22T08:03:42Z</time>
      </trkpt>
      <trkpt lat="50.58391" lon="1.61395">
        <ele>27.7</ele>
        <time>2020-06-22T08:03:43Z</time>
      </trkpt>
      <trkpt lat="50.58397" lon="1.61395">
        <ele>27.8</ele>
        <time>2020-06-22T08:03:44Z</time>
      </trkpt>
      <trkpt lat="50.58402" lon="1.61395">
        <ele>27.8</ele>
        <time>2020-06-22T08:03:45Z</time>
      </trkpt>
      <trkpt lat="50.58408" lon="1.61394">
        <ele>27.9</ele>
        <time>2020-06-22T08:03:46Z</time>
      </trkpt>
      <trkpt lat="50.58415" lon="1.61393">
        <ele>28</ele>
        <time>2020-06-22T08:03:47Z</time>
      </trkpt>
      <trkpt lat="50.5842" lon="1.61393">
        <ele>28.1</ele>
        <time>2020-06-22T08:03:48Z</time>
      </trkpt>
      <trkpt lat="50.58427" lon="1.61392">
        <ele>28.1</ele>
        <time>2020-06-22T08:03:49Z</time>
      </trkpt>
      <trkpt lat="50.58433" lon="1.61392">
        <ele>28.3</ele>
        <time>2020-06-22T08:03:50Z</time>
      </trkpt>
      <trkpt lat="50.58438" lon="1.61391">
        <ele>28.3</ele>
        <time>2020-06-22T08:03:51Z</time>
      </trkpt>
      <trkpt lat="50.58445" lon="1.61391">
        <ele>28.4</ele>
        <time>2020-06-22T08:03:52Z</time>
      </trkpt>
      <trkpt lat="50.58451" lon="1.61391">
        <ele>28.6</ele>
        <time>2020-06-22T08:03:53Z</time>
      </trkpt>
      <trkpt lat="50.58457" lon="1.61392">
        <ele>28.7</ele>
        <time>2020-06-22T08:03:54Z</time>
      </trkpt>
      <trkpt lat="50.58462" lon="1.61395">
        <ele>28.9</ele>
        <time>2020-06-22T08:03:55Z</time>
      </trkpt>
      <trkpt lat="50.58467" lon="1.61398">
        <ele>29</ele>
        <time>2020-06-22T08:03:56Z</time>
      </trkpt>
      <trkpt lat="50.58473" lon="1.61401">
        <ele>29.2</ele>
        <time>2020-06-22T08:03:57Z</time>
      </trkpt>
      <trkpt lat="50.58478" lon="1.61404">
        <ele>29.3</ele>
        <time>2020-06-22T08:03:58Z</time>
      </trkpt>
      <trkpt lat="50.58482" lon="1.61406">
        <ele>29.4</ele>
        <time>2020-06-22T08:03:59Z</time>
      </trkpt>
      <trkpt lat="50.58488" lon="1.61408">
        <ele>29.5</ele>
        <time>2020-06-22T08:04:00Z</time>
      </trkpt>
      <trkpt lat="50.58493" lon="1.6141">
        <ele>29.6</ele>
        <time>2020-06-22T08:04:01Z</time>
      </trkpt>
      <trkpt lat="50.58499" lon="1.61414">
        <ele>29.8</ele>
        <time>2020-06-22T08:04:02Z</time>
      </trkpt>
      <trkpt lat="50.58505" lon="1.61415">
        <ele>29.9</ele>
        <time>2020-06-22T08:04:03Z</time>
      </trkpt>
      <trkpt lat="50.58511" lon="1.61418">
        <ele>30</ele>
        <time>2020-06-22T08:04:04Z</time>
      </trkpt>
      <trkpt lat="50.58517" lon="1.61419">
        <ele>30.2</ele>
        <time>2020-06-22T08:04:05Z</time>
      </trkpt>
      <trkpt lat="50.58521" lon="1.61422">
        <ele>30.3</ele>
        <time>2020-06-22T08:04:06Z</time>
      </trkpt>
      <trkpt lat="50.58529" lon="1.61426">
        <ele>30.4</ele>
        <time>2020-06-22T08:04:07Z</time>
      </trkpt>
      <trkpt lat="50.58533" lon="1.61428">
        <ele>30.5</ele>
        <time>2020-06-22T08:04:08Z</time>
      </trkpt>
      <trkpt lat="50.58538" lon="1.61431">
        <ele>30.6</ele>
        <time>2020-06-22T08:04:09Z</time>
      </trkpt>
      <trkpt lat="50.58544" lon="1.61434">
        <ele>30.7</ele>
        <time>2020-06-22T08:04:10Z</time>
      </trkpt>
      <trkpt lat="50.58549" lon="1.61438">
        <ele>30.8</ele>
        <time>2020-06-22T08:04:11Z</time>
      </trkpt>
      <trkpt lat="50.58553" lon="1.61441">
        <ele>30.9</ele>
        <time>2020-06-22T08:04:12Z</time>
      </trkpt>
      <trkpt lat="50.58558" lon="1.61444">
        <ele>31</ele>
        <time>2020-06-22T08:04:13Z</time>
      </trkpt>
      <trkpt lat="50.58563" lon="1.61447">
        <ele>31.2</ele>
        <time>2020-06-22T08:04:14Z</time>
      </trkpt>
      <trkpt lat="50.5857" lon="1.61451">
        <ele>31.3</ele>
        <time>2020-06-22T08:04:15Z</time>
      </trkpt>
      <trkpt lat="50.58574" lon="1.61454">
        <ele>31.4</ele>
        <time>2020-06-22T08:04:16Z</time>
      </trkpt>
      <trkpt lat="50.58578" lon="1.61457">
        <ele>31.5</ele>
        <time>2020-06-22T08:04:17Z</time>
      </trkpt>
      <trkpt lat="50.58582" lon="1.61459">
        <ele>31.6</ele>
        <time>2020-06-22T08:04:18Z</time>
      </trkpt>
      <trkpt lat="50.58587" lon="1.61462">
        <ele>31.7</ele>
        <time>2020-06-22T08:04:19Z</time>
      </trkpt>
      <trkpt lat="50.58592" lon="1.61465">
        <ele>31.8</ele>
        <time>2020-06-22T08:04:20Z</time>
      </trkpt>
      <trkpt lat="50.58597" lon="1.61467">
        <ele>31.8</ele>
        <time>2020-06-22T08:04:21Z</time>
      </trkpt>
      <trkpt lat="50.58602" lon="1.6147">
        <ele>31.9</ele>
        <time>2020-06-22T08:04:22Z</time>
      </trkpt>
      <trkpt lat="50.58607" lon="1.61473">
        <ele>32</ele>
        <time>2020-06-22T08:04:23Z</time>
      </trkpt>
      <trkpt lat="50.58612" lon="1.61476">
        <ele>32</ele>
        <time>2020-06-22T08:04:24Z</time>
      </trkpt>
      <trkpt lat="50.58617" lon="1.61479">
        <ele>32.1</ele>
        <time>2020-06-22T08:04:25Z</time>
      </trkpt>
      <trkpt lat="50.58622" lon="1.61482">
        <ele>32.2</ele>
        <time>2020-06-22T08:04:26Z</time>
      </trkpt>
      <trkpt lat="50.58628" lon="1.61486">
        <ele>32.4</ele>
        <time>2020-06-22T08:04:27Z</time>
      </trkpt>
      <trkpt lat="50.58633" lon="1.61489">
        <ele>32.5</ele>
        <time>2020-06-22T08:04:28Z</time>
      </trkpt>
      <trkpt lat="50.58638" lon="1.61494">
        <ele>32.6</ele>
        <time>2020-06-22T08:04:29Z</time>
      </trkpt>
      <trkpt lat="50.58643" lon="1.61498">
        <ele>32.7</ele>
        <time>2020-06-22T08:04:30Z</time>
      </trkpt>
      <trkpt lat="50.58648" lon="1.61504">
        <ele>32.8</ele>
        <time>2020-06-22T08:04:31Z</time>
      </trkpt>
      <trkpt lat="50.58652" lon="1.61509">
        <ele>32.8</ele>
        <time>2020-06-22T08:04:32Z</time>
      </trkpt>
      <trkpt lat="50.58656" lon="1.61512">
        <ele>32.9</ele>
        <time>2020-06-22T08:04:33Z</time>
      </trkpt>
      <trkpt lat="50.58661" lon="1.61516">
        <ele>32.9</ele>
        <time>2020-06-22T08:04:34Z</time>
      </trkpt>
      <trkpt lat="50.58666" lon="1.6152">
        <ele>33</ele>
        <time>2020-06-22T08:04:35Z</time>
      </trkpt>
      <trkpt lat="50.58672" lon="1.61524">
        <ele>33.2</ele>
        <time>2020-06-22T08:04:36Z</time>
      </trkpt>
      <trkpt lat="50.58677" lon="1.61528">
        <ele>33.3</ele>
        <time>2020-06-22T08:04:37Z</time>
      </trkpt>
      <trkpt lat="50.58681" lon="1.61531">
        <ele>33.4</ele>
        <time>2020-06-22T08:04:38Z</time>
      </trkpt>
      <trkpt lat="50.58686" lon="1.61535">
        <ele>33.5</ele>
        <time>2020-06-22T08:04:39Z</time>
      </trkpt>
      <trkpt lat="50.5869" lon="1.61539">
        <ele>33.6</ele>
        <time>2020-06-22T08:04:40Z</time>
      </trkpt>
      <trkpt lat="50.58696" lon="1.61545">
        <ele>33.7</ele>
        <time>2020-06-22T08:04:41Z</time>
      </trkpt>
      <trkpt lat="50.58701" lon="1.61549">
        <ele>33.8</ele>
        <time>2020-06-22T08:04:42Z</time>
      </trkpt>
      <trkpt lat="50.58707" lon="1.61553">
        <ele>33.9</ele>
        <time>2020-06-22T08:04:43Z</time>
      </trkpt>
      <trkpt lat="50.58712" lon="1.61557">
        <ele>33.9</ele>
        <time>2020-06-22T08:04:44Z</time>
      </trkpt>
      <trkpt lat="50.58717" lon="1.61561">
        <ele>34</ele>
        <time>2020-06-22T08:04:45Z</time>
      </trkpt>
      <trkpt lat="50.58723" lon="1.61565">
        <ele>34.1</ele>
        <time>2020-06-22T08:04:46Z</time>
      </trkpt>
      <trkpt lat="50.58728" lon="1.6157">
        <ele>34.3</ele>
        <time>2020-06-22T08:04:47Z</time>
      </trkpt>
      <trkpt lat="50.58734" lon="1.61575">
        <ele>34.4</ele>
        <time>2020-06-22T08:04:48Z</time>
      </trkpt>
      <trkpt lat="50.58739" lon="1.61578">
        <ele>34.5</ele>
        <time>2020-06-22T08:04:49Z</time>
      </trkpt>
      <trkpt lat="50.58745" lon="1.61582">
        <ele>34.6</ele>
        <time>2020-06-22T08:04:50Z</time>
      </trkpt>
      <trkpt lat="50.5875" lon="1.61587">
        <ele>34.7</ele>
        <time>2020-06-22T08:04:51Z</time>
      </trkpt>
      <trkpt lat="50.58755" lon="1.61592">
        <ele>34.8</ele>
        <time>2020-06-22T08:04:52Z</time>
      </trkpt>
      <trkpt lat="50.58759" lon="1.61596">
        <ele>34.9</ele>
        <time>2020-06-22T08:04:53Z</time>
      </trkpt>
      <trkpt lat="50.58765" lon="1.61601">
        <ele>35.1</ele>
        <time>2020-06-22T08:04:54Z</time>
      </trkpt>
      <trkpt lat="50.5877" lon="1.61605">
        <ele>35.2</ele>
        <time>2020-06-22T08:04:55Z</time>
      </trkpt>
      <trkpt lat="50.58775" lon="1.6161">
        <ele>35.3</ele>
        <time>2020-06-22T08:04:56Z</time>
      </trkpt>
      <trkpt lat="50.58781" lon="1.61616">
        <ele>35.4</ele>
        <time>2020-06-22T08:04:57Z</time>
      </trkpt>
      <trkpt lat="50.58787" lon="1.61622">
        <ele>35.5</ele>
        <time>2020-06-22T08:04:58Z</time>
      </trkpt>
      <trkpt lat="50.58791" lon="1.61624">
        <ele>35.5</ele>
        <time>2020-06-22T08:04:59Z</time>
      </trkpt>
      <trkpt lat="50.58798" lon="1.61628">
        <ele>35.6</ele>
        <time>2020-06-22T08:05:00Z</time>
      </trkpt>
      <trkpt lat="50.58803" lon="1.61633">
        <ele>35.7</ele>
        <time>2020-06-22T08:05:01Z</time>
      </trkpt>
      <trkpt lat="50.58808" lon="1.61637">
        <ele>35.7</ele>
        <time>2020-06-22T08:05:02Z</time>
      </trkpt>
      <trkpt lat="50.58814" lon="1.61643">
        <ele>35.8</ele>
        <time>2020-06-22T08:05:03Z</time>
      </trkpt>
      <trkpt lat="50.58819" lon="1.61649">
        <ele>35.9</ele>
        <time>2020-06-22T08:05:04Z</time>
      </trkpt>
      <trkpt lat="50.58824" lon="1.61653">
        <ele>36</ele>
        <time>2020-06-22T08:05:05Z</time>
      </trkpt>
      <trkpt lat="50.58829" lon="1.61657">
        <ele>36.1</ele>
        <time>2020-06-22T08:05:06Z</time>
      </trkpt>
      <trkpt lat="50.58835" lon="1.61661">
        <ele>36.2</ele>
        <time>2020-06-22T08:05:07Z</time>
      </trkpt>
      <trkpt lat="50.58839" lon="1.61665">
        <ele>36.1</ele>
        <time>2020-06-22T08:05:08Z</time>
      </trkpt>
      <trkpt lat="50.58844" lon="1.61669">
        <ele>36.1</ele>
        <time>2020-06-22T08:05:09Z</time>
      </trkpt>
      <trkpt lat="50.58848" lon="1.61673">
        <ele>36.1</ele>
        <time>2020-06-22T08:05:10Z</time>
      </trkpt>
      <trkpt lat="50.58853" lon="1.61677">
        <ele>36.1</ele>
        <time>2020-06-22T08:05:11Z</time>
      </trkpt>
      <trkpt lat="50.58858" lon="1.61682">
        <ele>36.1</ele>
        <time>2020-06-22T08:05:12Z</time>
      </trkpt>
      <trkpt lat="50.58863" lon="1.61687">
        <ele>36.2</ele>
        <time>2020-06-22T08:05:13Z</time>
      </trkpt>
      <trkpt lat="50.58868" lon="1.61692">
        <ele>36.2</ele>
        <time>2020-06-22T08:05:14Z</time>
      </trkpt>
      <trkpt lat="50.58872" lon="1.61697">
        <ele>36.2</ele>
        <time>2020-06-22T08:05:15Z</time>
      </trkpt>
      <trkpt lat="50.58877" lon="1.61703">
        <ele>36.2</ele>
        <time>2020-06-22T08:05:16Z</time>
      </trkpt>
      <trkpt lat="50.5888" lon="1.61706">
        <ele>36.2</ele>
        <time>2020-06-22T08:05:17Z</time>
      </trkpt>
      <trkpt lat="50.58885" lon="1.61711">
        <ele>36.1</ele>
        <time>2020-06-22T08:05:18Z</time>
      </trkpt>
      <trkpt lat="50.58889" lon="1.61716">
        <ele>36.1</ele>
        <time>2020-06-22T08:05:19Z</time>
      </trkpt>
      <trkpt lat="50.58893" lon="1.61721">
        <ele>36.1</ele>
        <time>2020-06-22T08:05:20Z</time>
      </trkpt>
      <trkpt lat="50.58897" lon="1.61724">
        <ele>36.1</ele>
        <time>2020-06-22T08:05:21Z</time>
      </trkpt>
      <trkpt lat="50.58901" lon="1.61729">
        <ele>36.1</ele>
        <time>2020-06-22T08:05:22Z</time>
      </trkpt>
      <trkpt lat="50.58904" lon="1.61734">
        <ele>36.1</ele>
        <time>2020-06-22T08:05:23Z</time>
      </trkpt>
      <trkpt lat="50.58907" lon="1.61739">
        <ele>36.1</ele>
        <time>2020-06-22T08:05:24Z</time>
      </trkpt>
      <trkpt lat="50.58911" lon="1.61744">
        <ele>36.1</ele>
        <time>2020-06-22T08:05:25Z</time>
      </trkpt>
      <trkpt lat="50.58914" lon="1.61748">
        <ele>36.2</ele>
        <time>2020-06-22T08:05:26Z</time>
      </trkpt>
      <trkpt lat="50.58919" lon="1.61749">
        <ele>36.2</ele>
        <time>2020-06-22T08:05:27Z</time>
      </trkpt>
      <trkpt lat="50.58924" lon="1.61745">
        <ele>36</ele>
        <time>2020-06-22T08:05:28Z</time>
      </trkpt>
      <trkpt lat="50.58926" lon="1.61739">
        <ele>35.8</ele>
        <time>2020-06-22T08:05:29Z</time>
      </trkpt>
      <trkpt lat="50.58927" lon="1.61733">
        <ele>35.7</ele>
        <time>2020-06-22T08:05:30Z</time>
      </trkpt>
      <trkpt lat="50.58927" lon="1.6173">
        <ele>35.6</ele>
        <time>2020-06-22T08:05:31Z</time>
      </trkpt>
      <trkpt lat="50.58928" lon="1.61725">
        <ele>35.5</ele>
        <time>2020-06-22T08:05:32Z</time>
      </trkpt>
      <trkpt lat="50.58928" lon="1.61719">
        <ele>35.3</ele>
        <time>2020-06-22T08:05:33Z</time>
      </trkpt>
      <trkpt lat="50.58929" lon="1.61712">
        <ele>35.2</ele>
        <time>2020-06-22T08:05:34Z</time>
      </trkpt>
      <trkpt lat="50.58931" lon="1.61706">
        <ele>35</ele>
        <time>2020-06-22T08:05:35Z</time>
      </trkpt>
      <trkpt lat="50.58931" lon="1.61698">
        <ele>34.8</ele>
        <time>2020-06-22T08:05:36Z</time>
      </trkpt>
      <trkpt lat="50.5893" lon="1.61693">
        <ele>34.7</ele>
        <time>2020-06-22T08:05:37Z</time>
      </trkpt>
      <trkpt lat="50.58932" lon="1.61686">
        <ele>34.6</ele>
        <time>2020-06-22T08:05:38Z</time>
      </trkpt>
      <trkpt lat="50.58931" lon="1.61679">
        <ele>34.4</ele>
        <time>2020-06-22T08:05:39Z</time>
      </trkpt>
      <trkpt lat="50.58932" lon="1.61672">
        <ele>34.3</ele>
        <time>2020-06-22T08:05:40Z</time>
      </trkpt>
      <trkpt lat="50.58933" lon="1.61666">
        <ele>34.2</ele>
        <time>2020-06-22T08:05:41Z</time>
      </trkpt>
      <trkpt lat="50.58934" lon="1.6166">
        <ele>34</ele>
        <time>2020-06-22T08:05:42Z</time>
      </trkpt>
      <trkpt lat="50.58934" lon="1.61652">
        <ele>33.9</ele>
        <time>2020-06-22T08:05:43Z</time>
      </trkpt>
      <trkpt lat="50.58935" lon="1.61646">
        <ele>33.8</ele>
        <time>2020-06-22T08:05:44Z</time>
      </trkpt>
      <trkpt lat="50.58936" lon="1.61639">
        <ele>33.6</ele>
        <time>2020-06-22T08:05:45Z</time>
      </trkpt>
      <trkpt lat="50.58937" lon="1.61631">
        <ele>33.5</ele>
        <time>2020-06-22T08:05:46Z</time>
      </trkpt>
      <trkpt lat="50.58938" lon="1.61624">
        <ele>33.3</ele>
        <time>2020-06-22T08:05:47Z</time>
      </trkpt>
      <trkpt lat="50.58938" lon="1.61619">
        <ele>33.2</ele>
        <time>2020-06-22T08:05:48Z</time>
      </trkpt>
      <trkpt lat="50.58939" lon="1.6161">
        <ele>33.1</ele>
        <time>2020-06-22T08:05:49Z</time>
      </trkpt>
      <trkpt lat="50.5894" lon="1.61603">
        <ele>33</ele>
        <time>2020-06-22T08:05:50Z</time>
      </trkpt>
      <trkpt lat="50.58941" lon="1.61593">
        <ele>32.8</ele>
        <time>2020-06-22T08:05:51Z</time>
      </trkpt>
      <trkpt lat="50.58942" lon="1.61586">
        <ele>32.6</ele>
        <time>2020-06-22T08:05:52Z</time>
      </trkpt>
      <trkpt lat="50.58943" lon="1.61578">
        <ele>32.5</ele>
        <time>2020-06-22T08:05:53Z</time>
      </trkpt>
      <trkpt lat="50.58944" lon="1.61572">
        <ele>32.4</ele>
        <time>2020-06-22T08:05:54Z</time>
      </trkpt>
      <trkpt lat="50.58944" lon="1.61568">
        <ele>32.3</ele>
        <time>2020-06-22T08:05:55Z</time>
      </trkpt>
      <trkpt lat="50.58943" lon="1.6157">
        <ele>32.2</ele>
        <time>2020-06-22T08:05:56Z</time>
      </trkpt>
      <trkpt lat="50.58943" lon="1.61573">
        <ele>32.1</ele>
        <time>2020-06-22T08:05:57Z</time>
      </trkpt>
      <trkpt lat="50.58942" lon="1.61577">
        <ele>32.1</ele>
        <time>2020-06-22T08:05:58Z</time>
      </trkpt>
      <trkpt lat="50.58942" lon="1.61581">
        <ele>32</ele>
        <time>2020-06-22T08:05:59Z</time>
      </trkpt>
      <trkpt lat="50.58941" lon="1.61582">
        <ele>32</ele>
        <time>2020-06-22T08:06:00Z</time>
      </trkpt>
      <trkpt lat="50.58941" lon="1.61583">
        <ele>31.9</ele>
        <time>2020-06-22T08:06:01Z</time>
      </trkpt>
      <trkpt lat="50.5894" lon="1.6159">
        <ele>32.1</ele>
        <time>2020-06-22T08:06:02Z</time>
      </trkpt>
      <trkpt lat="50.58939" lon="1.61593">
        <ele>32.2</ele>
        <time>2020-06-22T08:06:03Z</time>
      </trkpt>
      <trkpt lat="50.58937" lon="1.61599">
        <ele>32.3</ele>
        <time>2020-06-22T08:06:04Z</time>
      </trkpt>
      <trkpt lat="50.58937" lon="1.61606">
        <ele>32.5</ele>
        <time>2020-06-22T08:06:05Z</time>
      </trkpt>
      <trkpt lat="50.58937" lon="1.61611">
        <ele>32.6</ele>
        <time>2020-06-22T08:06:06Z</time>
      </trkpt>
      <trkpt lat="50.58937" lon="1.61617">
        <ele>32.7</ele>
        <time>2020-06-22T08:06:07Z</time>
      </trkpt>
      <trkpt lat="50.58936" lon="1.61623">
        <ele>32.9</ele>
        <time>2020-06-22T08:06:08Z</time>
      </trkpt>
      <trkpt lat="50.58934" lon="1.6163">
        <ele>33</ele>
        <time>2020-06-22T08:06:09Z</time>
      </trkpt>
      <trkpt lat="50.58933" lon="1.61637">
        <ele>33.2</ele>
        <time>2020-06-22T08:06:10Z</time>
      </trkpt>
      <trkpt lat="50.58932" lon="1.61645">
        <ele>33.3</ele>
        <time>2020-06-22T08:06:11Z</time>
      </trkpt>
      <trkpt lat="50.5893" lon="1.61652">
        <ele>33.5</ele>
        <time>2020-06-22T08:06:12Z</time>
      </trkpt>
      <trkpt lat="50.58929" lon="1.61659">
        <ele>33.6</ele>
        <time>2020-06-22T08:06:13Z</time>
      </trkpt>
      <trkpt lat="50.58928" lon="1.61666">
        <ele>33.8</ele>
        <time>2020-06-22T08:06:14Z</time>
      </trkpt>
      <trkpt lat="50.58926" lon="1.61672">
        <ele>33.9</ele>
        <time>2020-06-22T08:06:15Z</time>
      </trkpt>
      <trkpt lat="50.58925" lon="1.61679">
        <ele>34.1</ele>
        <time>2020-06-22T08:06:16Z</time>
      </trkpt>
      <trkpt lat="50.58924" lon="1.61687">
        <ele>34.3</ele>
        <time>2020-06-22T08:06:17Z</time>
      </trkpt>
      <trkpt lat="50.58923" lon="1.61695">
        <ele>34.5</ele>
        <time>2020-06-22T08:06:18Z</time>
      </trkpt>
      <trkpt lat="50.58921" lon="1.61702">
        <ele>34.6</ele>
        <time>2020-06-22T08:06:19Z</time>
      </trkpt>
      <trkpt lat="50.5892" lon="1.61709">
        <ele>34.8</ele>
        <time>2020-06-22T08:06:20Z</time>
      </trkpt>
      <trkpt lat="50.58919" lon="1.61714">
        <ele>35</ele>
        <time>2020-06-22T08:06:21Z</time>
      </trkpt>
      <trkpt lat="50.58917" lon="1.61721">
        <ele>35.1</ele>
        <time>2020-06-22T08:06:22Z</time>
      </trkpt>
      <trkpt lat="50.58916" lon="1.61727">
        <ele>35.3</ele>
        <time>2020-06-22T08:06:23Z</time>
      </trkpt>
      <trkpt lat="50.58915" lon="1.61733">
        <ele>35.5</ele>
        <time>2020-06-22T08:06:24Z</time>
      </trkpt>
      <trkpt lat="50.58913" lon="1.61739">
        <ele>35.7</ele>
        <time>2020-06-22T08:06:25Z</time>
      </trkpt>
      <trkpt lat="50.58912" lon="1.61746">
        <ele>35.8</ele>
        <time>2020-06-22T08:06:26Z</time>
      </trkpt>
      <trkpt lat="50.58912" lon="1.61751">
        <ele>35.9</ele>
        <time>2020-06-22T08:06:27Z</time>
      </trkpt>
      <trkpt lat="50.58913" lon="1.61755">
        <ele>36</ele>
        <time>2020-06-22T08:06:28Z</time>
      </trkpt>
      <trkpt lat="50.58915" lon="1.61759">
        <ele>36.2</ele>
        <time>2020-06-22T08:06:29Z</time>
      </trkpt>
      <trkpt lat="50.58917" lon="1.61765">
        <ele>36.2</ele>
        <time>2020-06-22T08:06:30Z</time>
      </trkpt>
      <trkpt lat="50.5892" lon="1.6177">
        <ele>36.2</ele>
        <time>2020-06-22T08:06:31Z</time>
      </trkpt>
      <trkpt lat="50.58923" lon="1.61774">
        <ele>36.2</ele>
        <time>2020-06-22T08:06:32Z</time>
      </trkpt>
      <trkpt lat="50.58927" lon="1.61778">
        <ele>36.1</ele>
        <time>2020-06-22T08:06:33Z</time>
      </trkpt>
      <trkpt lat="50.5893" lon="1.61783">
        <ele>36.1</ele>
        <time>2020-06-22T08:06:34Z</time>
      </trkpt>
      <trkpt lat="50.58934" lon="1.61788">
        <ele>36.1</ele>
        <time>2020-06-22T08:06:35Z</time>
      </trkpt>
      <trkpt lat="50.58938" lon="1.6179">
        <ele>36.1</ele>
        <time>2020-06-22T08:06:36Z</time>
      </trkpt>
      <trkpt lat="50.58943" lon="1.61793">
        <ele>36.1</ele>
        <time>2020-06-22T08:06:37Z</time>
      </trkpt>
      <trkpt lat="50.58947" lon="1.61797">
        <ele>36.1</ele>
        <time>2020-06-22T08:06:38Z</time>
      </trkpt>
      <trkpt lat="50.58951" lon="1.618">
        <ele>36.1</ele>
        <time>2020-06-22T08:06:39Z</time>
      </trkpt>
      <trkpt lat="50.58955" lon="1.61803">
        <ele>36.2</ele>
        <time>2020-06-22T08:06:40Z</time>
      </trkpt>
      <trkpt lat="50.58959" lon="1.61807">
        <ele>36.2</ele>
        <time>2020-06-22T08:06:41Z</time>
      </trkpt>
      <trkpt lat="50.58963" lon="1.6181">
        <ele>36.2</ele>
        <time>2020-06-22T08:06:42Z</time>
      </trkpt>
      <trkpt lat="50.58968" lon="1.61813">
        <ele>36.2</ele>
        <time>2020-06-22T08:06:43Z</time>
      </trkpt>
      <trkpt lat="50.58972" lon="1.61814">
        <ele>36.2</ele>
        <time>2020-06-22T08:06:44Z</time>
      </trkpt>
      <trkpt lat="50.58976" lon="1.61817">
        <ele>36.3</ele>
        <time>2020-06-22T08:06:45Z</time>
      </trkpt>
      <trkpt lat="50.5898" lon="1.61819">
        <ele>36.3</ele>
        <time>2020-06-22T08:06:46Z</time>
      </trkpt>
      <trkpt lat="50.58985" lon="1.61821">
        <ele>36.3</ele>
        <time>2020-06-22T08:06:47Z</time>
      </trkpt>
      <trkpt lat="50.5899" lon="1.61824">
        <ele>36.3</ele>
        <time>2020-06-22T08:06:48Z</time>
      </trkpt>
      <trkpt lat="50.58994" lon="1.61828">
        <ele>36.3</ele>
        <time>2020-06-22T08:06:49Z</time>
      </trkpt>
      <trkpt lat="50.58999" lon="1.61831">
        <ele>36.3</ele>
        <time>2020-06-22T08:06:50Z</time>
      </trkpt>
      <trkpt lat="50.59004" lon="1.61833">
        <ele>36.3</ele>
        <time>2020-06-22T08:06:51Z</time>
      </trkpt>
      <trkpt lat="50.5901" lon="1.61836">
        <ele>36.3</ele>
        <time>2020-06-22T08:06:52Z</time>
      </trkpt>
      <trkpt lat="50.59015" lon="1.61839">
        <ele>36.3</ele>
        <time>2020-06-22T08:06:53Z</time>
      </trkpt>
      <trkpt lat="50.5902" lon="1.61842">
        <ele>36.3</ele>
        <time>2020-06-22T08:06:54Z</time>
      </trkpt>
      <trkpt lat="50.59026" lon="1.61845">
        <ele>36.3</ele>
        <time>2020-06-22T08:06:55Z</time>
      </trkpt>
      <trkpt lat="50.59031" lon="1.61849">
        <ele>36.2</ele>
        <time>2020-06-22T08:06:56Z</time>
      </trkpt>
      <trkpt lat="50.59036" lon="1.61853">
        <ele>36.2</ele>
        <time>2020-06-22T08:06:57Z</time>
      </trkpt>
      <trkpt lat="50.59041" lon="1.61856">
        <ele>36.3</ele>
        <time>2020-06-22T08:06:58Z</time>
      </trkpt>
      <trkpt lat="50.59046" lon="1.6186">
        <ele>36.3</ele>
        <time>2020-06-22T08:06:59Z</time>
      </trkpt>
      <trkpt lat="50.59051" lon="1.61864">
        <ele>36.4</ele>
        <time>2020-06-22T08:07:00Z</time>
      </trkpt>
      <trkpt lat="50.59056" lon="1.6187">
        <ele>36.4</ele>
        <time>2020-06-22T08:07:01Z</time>
      </trkpt>
      <trkpt lat="50.5906" lon="1.61876">
        <ele>36.5</ele>
        <time>2020-06-22T08:07:02Z</time>
      </trkpt>
      <trkpt lat="50.59064" lon="1.61881">
        <ele>36.6</ele>
        <time>2020-06-22T08:07:03Z</time>
      </trkpt>
      <trkpt lat="50.59067" lon="1.61887">
        <ele>36.6</ele>
        <time>2020-06-22T08:07:04Z</time>
      </trkpt>
      <trkpt lat="50.59071" lon="1.61892">
        <ele>36.7</ele>
        <time>2020-06-22T08:07:05Z</time>
      </trkpt>
      <trkpt lat="50.59074" lon="1.61898">
        <ele>36.8</ele>
        <time>2020-06-22T08:07:06Z</time>
      </trkpt>
      <trkpt lat="50.59078" lon="1.61903">
        <ele>36.8</ele>
        <time>2020-06-22T08:07:07Z</time>
      </trkpt>
      <trkpt lat="50.59082" lon="1.61909">
        <ele>36.9</ele>
        <time>2020-06-22T08:07:08Z</time>
      </trkpt>
      <trkpt lat="50.59087" lon="1.61915">
        <ele>37</ele>
        <time>2020-06-22T08:07:09Z</time>
      </trkpt>
      <trkpt lat="50.59091" lon="1.6192">
        <ele>37.1</ele>
        <time>2020-06-22T08:07:10Z</time>
      </trkpt>
      <trkpt lat="50.59096" lon="1.61925">
        <ele>37.1</ele>
        <time>2020-06-22T08:07:11Z</time>
      </trkpt>
      <trkpt lat="50.591" lon="1.61929">
        <ele>37.2</ele>
        <time>2020-06-22T08:07:12Z</time>
      </trkpt>
      <trkpt lat="50.59103" lon="1.61933">
        <ele>37.2</ele>
        <time>2020-06-22T08:07:13Z</time>
      </trkpt>
      <trkpt lat="50.59107" lon="1.61935">
        <ele>37.2</ele>
        <time>2020-06-22T08:07:14Z</time>
      </trkpt>
      <trkpt lat="50.59112" lon="1.61934">
        <ele>37.2</ele>
        <time>2020-06-22T08:07:15Z</time>
      </trkpt>
      <trkpt lat="50.59117" lon="1.61932">
        <ele>37.1</ele>
        <time>2020-06-22T08:07:16Z</time>
      </trkpt>
      <trkpt lat="50.59123" lon="1.6193">
        <ele>37</ele>
        <time>2020-06-22T08:07:17Z</time>
      </trkpt>
      <trkpt lat="50.59129" lon="1.61926">
        <ele>36.8</ele>
        <time>2020-06-22T08:07:18Z</time>
      </trkpt>
      <trkpt lat="50.59136" lon="1.61922">
        <ele>36.5</ele>
        <time>2020-06-22T08:07:19Z</time>
      </trkpt>
      <trkpt lat="50.59141" lon="1.61919">
        <ele>36.2</ele>
        <time>2020-06-22T08:07:20Z</time>
      </trkpt>
      <trkpt lat="50.59147" lon="1.61915">
        <ele>35.9</ele>
        <time>2020-06-22T08:07:21Z</time>
      </trkpt>
      <trkpt lat="50.59154" lon="1.61908">
        <ele>35.4</ele>
        <time>2020-06-22T08:07:22Z</time>
      </trkpt>
      <trkpt lat="50.59159" lon="1.61902">
        <ele>35</ele>
        <time>2020-06-22T08:07:23Z</time>
      </trkpt>
      <trkpt lat="50.59164" lon="1.61893">
        <ele>34.6</ele>
        <time>2020-06-22T08:07:24Z</time>
      </trkpt>
      <trkpt lat="50.59171" lon="1.61881">
        <ele>34</ele>
        <time>2020-06-22T08:07:25Z</time>
      </trkpt>
      <trkpt lat="50.59177" lon="1.61872">
        <ele>33.6</ele>
        <time>2020-06-22T08:07:26Z</time>
      </trkpt>
      <trkpt lat="50.59183" lon="1.61864">
        <ele>33.3</ele>
        <time>2020-06-22T08:07:27Z</time>
      </trkpt>
      <trkpt lat="50.5919" lon="1.6186">
        <ele>33.1</ele>
        <time>2020-06-22T08:07:28Z</time>
      </trkpt>
      <trkpt lat="50.59198" lon="1.61859">
        <ele>32.9</ele>
        <time>2020-06-22T08:07:29Z</time>
      </trkpt>
      <trkpt lat="50.59205" lon="1.6186">
        <ele>32.7</ele>
        <time>2020-06-22T08:07:30Z</time>
      </trkpt>
      <trkpt lat="50.59212" lon="1.61861">
        <ele>32.5</ele>
        <time>2020-06-22T08:07:31Z</time>
      </trkpt>
      <trkpt lat="50.59219" lon="1.61864">
        <ele>32.4</ele>
        <time>2020-06-22T08:07:32Z</time>
      </trkpt>
      <trkpt lat="50.59225" lon="1.61866">
        <ele>32.2</ele>
        <time>2020-06-22T08:07:33Z</time>
      </trkpt>
      <trkpt lat="50.5923" lon="1.61868">
        <ele>32.1</ele>
        <time>2020-06-22T08:07:34Z</time>
      </trkpt>
      <trkpt lat="50.59234" lon="1.6187">
        <ele>32</ele>
        <time>2020-06-22T08:07:35Z</time>
      </trkpt>
      <trkpt lat="50.59239" lon="1.61872">
        <ele>31.9</ele>
        <time>2020-06-22T08:07:36Z</time>
      </trkpt>
      <trkpt lat="50.59243" lon="1.61876">
        <ele>31.9</ele>
        <time>2020-06-22T08:07:37Z</time>
      </trkpt>
      <trkpt lat="50.59248" lon="1.6188">
        <ele>31.9</ele>
        <time>2020-06-22T08:07:38Z</time>
      </trkpt>
      <trkpt lat="50.59252" lon="1.61886">
        <ele>31.9</ele>
        <time>2020-06-22T08:07:39Z</time>
      </trkpt>
      <trkpt lat="50.59256" lon="1.61892">
        <ele>32.1</ele>
        <time>2020-06-22T08:07:40Z</time>
      </trkpt>
      <trkpt lat="50.59259" lon="1.61899">
        <ele>32.3</ele>
        <time>2020-06-22T08:07:41Z</time>
      </trkpt>
      <trkpt lat="50.59262" lon="1.61906">
        <ele>32.4</ele>
        <time>2020-06-22T08:07:42Z</time>
      </trkpt>
      <trkpt lat="50.59266" lon="1.61912">
        <ele>32.5</ele>
        <time>2020-06-22T08:07:43Z</time>
      </trkpt>
      <trkpt lat="50.59269" lon="1.61918">
        <ele>32.7</ele>
        <time>2020-06-22T08:07:44Z</time>
      </trkpt>
      <trkpt lat="50.59272" lon="1.61924">
        <ele>32.8</ele>
        <time>2020-06-22T08:07:45Z</time>
      </trkpt>
      <trkpt lat="50.59275" lon="1.6193">
        <ele>32.9</ele>
        <time>2020-06-22T08:07:46Z</time>
      </trkpt>
      <trkpt lat="50.59278" lon="1.61935">
        <ele>33.1</ele>
        <time>2020-06-22T08:07:47Z</time>
      </trkpt>
      <trkpt lat="50.59281" lon="1.61941">
        <ele>33.2</ele>
        <time>2020-06-22T08:07:48Z</time>
      </trkpt>
      <trkpt lat="50.59284" lon="1.61946">
        <ele>33.3</ele>
        <time>2020-06-22T08:07:49Z</time>
      </trkpt>
      <trkpt lat="50.59287" lon="1.61952">
        <ele>33.5</ele>
        <time>2020-06-22T08:07:50Z</time>
      </trkpt>
      <trkpt lat="50.59291" lon="1.61957">
        <ele>33.6</ele>
        <time>2020-06-22T08:07:51Z</time>
      </trkpt>
      <trkpt lat="50.59294" lon="1.61964">
        <ele>33.7</ele>
        <time>2020-06-22T08:07:52Z</time>
      </trkpt>
      <trkpt lat="50.59297" lon="1.6197">
        <ele>33.9</ele>
        <time>2020-06-22T08:07:53Z</time>
      </trkpt>
      <trkpt lat="50.593" lon="1.61975">
        <ele>34</ele>
        <time>2020-06-22T08:07:54Z</time>
      </trkpt>
      <trkpt lat="50.59304" lon="1.6198">
        <ele>34.1</ele>
        <time>2020-06-22T08:07:55Z</time>
      </trkpt>
      <trkpt lat="50.59307" lon="1.61985">
        <ele>34.2</ele>
        <time>2020-06-22T08:07:56Z</time>
      </trkpt>
      <trkpt lat="50.59311" lon="1.6199">
        <ele>34.3</ele>
        <time>2020-06-22T08:07:57Z</time>
      </trkpt>
      <trkpt lat="50.59314" lon="1.61995">
        <ele>34.4</ele>
        <time>2020-06-22T08:07:58Z</time>
      </trkpt>
      <trkpt lat="50.59318" lon="1.62">
        <ele>34.5</ele>
        <time>2020-06-22T08:07:59Z</time>
      </trkpt>
      <trkpt lat="50.59322" lon="1.62004">
        <ele>34.6</ele>
        <time>2020-06-22T08:08:00Z</time>
      </trkpt>
      <trkpt lat="50.59326" lon="1.62009">
        <ele>34.8</ele>
        <time>2020-06-22T08:08:01Z</time>
      </trkpt>
      <trkpt lat="50.5933" lon="1.62014">
        <ele>34.9</ele>
        <time>2020-06-22T08:08:02Z</time>
      </trkpt>
      <trkpt lat="50.59334" lon="1.62019">
        <ele>35.1</ele>
        <time>2020-06-22T08:08:03Z</time>
      </trkpt>
      <trkpt lat="50.59338" lon="1.62023">
        <ele>35.2</ele>
        <time>2020-06-22T08:08:04Z</time>
      </trkpt>
      <trkpt lat="50.59343" lon="1.6203">
        <ele>35.3</ele>
        <time>2020-06-22T08:08:05Z</time>
      </trkpt>
      <trkpt lat="50.59347" lon="1.62035">
        <ele>35.4</ele>
        <time>2020-06-22T08:08:06Z</time>
      </trkpt>
      <trkpt lat="50.5935" lon="1.62038">
        <ele>35.5</ele>
        <time>2020-06-22T08:08:07Z</time>
      </trkpt>
      <trkpt lat="50.59354" lon="1.62044">
        <ele>35.5</ele>
        <time>2020-06-22T08:08:08Z</time>
      </trkpt>
      <trkpt lat="50.59359" lon="1.62049">
        <ele>35.6</ele>
        <time>2020-06-22T08:08:09Z</time>
      </trkpt>
      <trkpt lat="50.59364" lon="1.62053">
        <ele>35.7</ele>
        <time>2020-06-22T08:08:10Z</time>
      </trkpt>
      <trkpt lat="50.59367" lon="1.62058">
        <ele>35.8</ele>
        <time>2020-06-22T08:08:11Z</time>
      </trkpt>
      <trkpt lat="50.59371" lon="1.62061">
        <ele>35.8</ele>
        <time>2020-06-22T08:08:12Z</time>
      </trkpt>
      <trkpt lat="50.59375" lon="1.62065">
        <ele>35.9</ele>
        <time>2020-06-22T08:08:13Z</time>
      </trkpt>
      <trkpt lat="50.5938" lon="1.6207">
        <ele>36</ele>
        <time>2020-06-22T08:08:14Z</time>
      </trkpt>
      <trkpt lat="50.59383" lon="1.62074">
        <ele>36</ele>
        <time>2020-06-22T08:08:15Z</time>
      </trkpt>
      <trkpt lat="50.59387" lon="1.62079">
        <ele>36.1</ele>
        <time>2020-06-22T08:08:16Z</time>
      </trkpt>
      <trkpt lat="50.59392" lon="1.62084">
        <ele>36.2</ele>
        <time>2020-06-22T08:08:17Z</time>
      </trkpt>
      <trkpt lat="50.59397" lon="1.62089">
        <ele>36.3</ele>
        <time>2020-06-22T08:08:18Z</time>
      </trkpt>
      <trkpt lat="50.59402" lon="1.62094">
        <ele>36.4</ele>
        <time>2020-06-22T08:08:19Z</time>
      </trkpt>
      <trkpt lat="50.59407" lon="1.621">
        <ele>36.4</ele>
        <time>2020-06-22T08:08:20Z</time>
      </trkpt>
      <trkpt lat="50.59411" lon="1.62105">
        <ele>36.5</ele>
        <time>2020-06-22T08:08:21Z</time>
      </trkpt>
      <trkpt lat="50.59415" lon="1.62109">
        <ele>36.6</ele>
        <time>2020-06-22T08:08:22Z</time>
      </trkpt>
      <trkpt lat="50.5942" lon="1.62113">
        <ele>36.6</ele>
        <time>2020-06-22T08:08:23Z</time>
      </trkpt>
      <trkpt lat="50.59424" lon="1.62117">
        <ele>36.6</ele>
        <time>2020-06-22T08:08:24Z</time>
      </trkpt>
      <trkpt lat="50.59428" lon="1.62121">
        <ele>36.7</ele>
        <time>2020-06-22T08:08:25Z</time>
      </trkpt>
      <trkpt lat="50.59432" lon="1.62125">
        <ele>36.7</ele>
        <time>2020-06-22T08:08:26Z</time>
      </trkpt>
      <trkpt lat="50.59437" lon="1.62129">
        <ele>36.7</ele>
        <time>2020-06-22T08:08:27Z</time>
      </trkpt>
      <trkpt lat="50.59442" lon="1.62132">
        <ele>36.7</ele>
        <time>2020-06-22T08:08:28Z</time>
      </trkpt>
      <trkpt lat="50.59448" lon="1.62135">
        <ele>36.7</ele>
        <time>2020-06-22T08:08:29Z</time>
      </trkpt>
      <trkpt lat="50.59452" lon="1.62137">
        <ele>36.7</ele>
        <time>2020-06-22T08:08:30Z</time>
      </trkpt>
      <trkpt lat="50.59458" lon="1.62141">
        <ele>36.8</ele>
        <time>2020-06-22T08:08:31Z</time>
      </trkpt>
      <trkpt lat="50.59464" lon="1.62144">
        <ele>36.8</ele>
        <time>2020-06-22T08:08:32Z</time>
      </trkpt>
      <trkpt lat="50.59469" lon="1.62146">
        <ele>36.9</ele>
        <time>2020-06-22T08:08:33Z</time>
      </trkpt>
      <trkpt lat="50.59475" lon="1.6215">
        <ele>36.9</ele>
        <time>2020-06-22T08:08:34Z</time>
      </trkpt>
      <trkpt lat="50.59481" lon="1.62152">
        <ele>37</ele>
        <time>2020-06-22T08:08:35Z</time>
      </trkpt>
      <trkpt lat="50.59487" lon="1.62156">
        <ele>37.1</ele>
        <time>2020-06-22T08:08:36Z</time>
      </trkpt>
      <trkpt lat="50.59491" lon="1.62158">
        <ele>37.1</ele>
        <time>2020-06-22T08:08:37Z</time>
      </trkpt>
      <trkpt lat="50.59496" lon="1.62161">
        <ele>37.2</ele>
        <time>2020-06-22T08:08:38Z</time>
      </trkpt>
      <trkpt lat="50.595" lon="1.62163">
        <ele>37.2</ele>
        <time>2020-06-22T08:08:39Z</time>
      </trkpt>
      <trkpt lat="50.59505" lon="1.62167">
        <ele>37.2</ele>
        <time>2020-06-22T08:08:40Z</time>
      </trkpt>
      <trkpt lat="50.5951" lon="1.62169">
        <ele>37.3</ele>
        <time>2020-06-22T08:08:41Z</time>
      </trkpt>
      <trkpt lat="50.59516" lon="1.62173">
        <ele>37.3</ele>
        <time>2020-06-22T08:08:42Z</time>
      </trkpt>
      <trkpt lat="50.59522" lon="1.62176">
        <ele>37.4</ele>
        <time>2020-06-22T08:08:43Z</time>
      </trkpt>
      <trkpt lat="50.59528" lon="1.6218">
        <ele>37.4</ele>
        <time>2020-06-22T08:08:44Z</time>
      </trkpt>
      <trkpt lat="50.59533" lon="1.62183">
        <ele>37.5</ele>
        <time>2020-06-22T08:08:45Z</time>
      </trkpt>
      <trkpt lat="50.59539" lon="1.62187">
        <ele>37.6</ele>
        <time>2020-06-22T08:08:46Z</time>
      </trkpt>
      <trkpt lat="50.59545" lon="1.6219">
        <ele>37.7</ele>
        <time>2020-06-22T08:08:47Z</time>
      </trkpt>
      <trkpt lat="50.59549" lon="1.62193">
        <ele>37.7</ele>
        <time>2020-06-22T08:08:48Z</time>
      </trkpt>
      <trkpt lat="50.59554" lon="1.62196">
        <ele>37.7</ele>
        <time>2020-06-22T08:08:49Z</time>
      </trkpt>
      <trkpt lat="50.5956" lon="1.62201">
        <ele>37.8</ele>
        <time>2020-06-22T08:08:50Z</time>
      </trkpt>
      <trkpt lat="50.59565" lon="1.62205">
        <ele>37.8</ele>
        <time>2020-06-22T08:08:51Z</time>
      </trkpt>
      <trkpt lat="50.5957" lon="1.62211">
        <ele>37.8</ele>
        <time>2020-06-22T08:08:52Z</time>
      </trkpt>
      <trkpt lat="50.59575" lon="1.62215">
        <ele>37.9</ele>
        <time>2020-06-22T08:08:53Z</time>
      </trkpt>
      <trkpt lat="50.59579" lon="1.62219">
        <ele>37.9</ele>
        <time>2020-06-22T08:08:54Z</time>
      </trkpt>
      <trkpt lat="50.59584" lon="1.62223">
        <ele>37.9</ele>
        <time>2020-06-22T08:08:55Z</time>
      </trkpt>
      <trkpt lat="50.59589" lon="1.62229">
        <ele>38</ele>
        <time>2020-06-22T08:08:56Z</time>
      </trkpt>
      <trkpt lat="50.59594" lon="1.62234">
        <ele>38.1</ele>
        <time>2020-06-22T08:08:57Z</time>
      </trkpt>
      <trkpt lat="50.59598" lon="1.62239">
        <ele>38.2</ele>
        <time>2020-06-22T08:08:58Z</time>
      </trkpt>
      <trkpt lat="50.59603" lon="1.62244">
        <ele>38.2</ele>
        <time>2020-06-22T08:08:59Z</time>
      </trkpt>
      <trkpt lat="50.59608" lon="1.62251">
        <ele>38.3</ele>
        <time>2020-06-22T08:09:00Z</time>
      </trkpt>
      <trkpt lat="50.59614" lon="1.62256">
        <ele>38.4</ele>
        <time>2020-06-22T08:09:01Z</time>
      </trkpt>
      <trkpt lat="50.59618" lon="1.62259">
        <ele>38.5</ele>
        <time>2020-06-22T08:09:02Z</time>
      </trkpt>
      <trkpt lat="50.59623" lon="1.62265">
        <ele>38.6</ele>
        <time>2020-06-22T08:09:03Z</time>
      </trkpt>
      <trkpt lat="50.59628" lon="1.62269">
        <ele>38.7</ele>
        <time>2020-06-22T08:09:04Z</time>
      </trkpt>
      <trkpt lat="50.59633" lon="1.62274">
        <ele>38.8</ele>
        <time>2020-06-22T08:09:05Z</time>
      </trkpt>
      <trkpt lat="50.59638" lon="1.6228">
        <ele>38.9</ele>
        <time>2020-06-22T08:09:06Z</time>
      </trkpt>
      <trkpt lat="50.59642" lon="1.62284">
        <ele>39</ele>
        <time>2020-06-22T08:09:07Z</time>
      </trkpt>
      <trkpt lat="50.59646" lon="1.62289">
        <ele>39.1</ele>
        <time>2020-06-22T08:09:08Z</time>
      </trkpt>
      <trkpt lat="50.59651" lon="1.62295">
        <ele>39.2</ele>
        <time>2020-06-22T08:09:09Z</time>
      </trkpt>
      <trkpt lat="50.59656" lon="1.623">
        <ele>39.2</ele>
        <time>2020-06-22T08:09:10Z</time>
      </trkpt>
      <trkpt lat="50.59659" lon="1.62304">
        <ele>39.3</ele>
        <time>2020-06-22T08:09:11Z</time>
      </trkpt>
      <trkpt lat="50.59664" lon="1.62308">
        <ele>39.4</ele>
        <time>2020-06-22T08:09:12Z</time>
      </trkpt>
      <trkpt lat="50.59669" lon="1.62315">
        <ele>39.5</ele>
        <time>2020-06-22T08:09:13Z</time>
      </trkpt>
      <trkpt lat="50.59674" lon="1.6232">
        <ele>39.6</ele>
        <time>2020-06-22T08:09:14Z</time>
      </trkpt>
      <trkpt lat="50.59679" lon="1.62325">
        <ele>39.7</ele>
        <time>2020-06-22T08:09:15Z</time>
      </trkpt>
      <trkpt lat="50.59684" lon="1.6233">
        <ele>39.8</ele>
        <time>2020-06-22T08:09:16Z</time>
      </trkpt>
      <trkpt lat="50.59689" lon="1.62336">
        <ele>39.9</ele>
        <time>2020-06-22T08:09:17Z</time>
      </trkpt>
      <trkpt lat="50.59694" lon="1.62342">
        <ele>40</ele>
        <time>2020-06-22T08:09:18Z</time>
      </trkpt>
      <trkpt lat="50.59699" lon="1.62347">
        <ele>40.1</ele>
        <time>2020-06-22T08:09:19Z</time>
      </trkpt>
      <trkpt lat="50.59703" lon="1.62351">
        <ele>40.2</ele>
        <time>2020-06-22T08:09:20Z</time>
      </trkpt>
      <trkpt lat="50.59708" lon="1.62356">
        <ele>40.3</ele>
        <time>2020-06-22T08:09:21Z</time>
      </trkpt>
      <trkpt lat="50.59713" lon="1.62361">
        <ele>40.3</ele>
        <time>2020-06-22T08:09:22Z</time>
      </trkpt>
      <trkpt lat="50.59718" lon="1.62365">
        <ele>40.4</ele>
        <time>2020-06-22T08:09:23Z</time>
      </trkpt>
      <trkpt lat="50.59722" lon="1.6237">
        <ele>40.5</ele>
        <time>2020-06-22T08:09:24Z</time>
      </trkpt>
      <trkpt lat="50.59727" lon="1.62375">
        <ele>40.5</ele>
        <time>2020-06-22T08:09:25Z</time>
      </trkpt>
      <trkpt lat="50.5973" lon="1.62379">
        <ele>40.6</ele>
        <time>2020-06-22T08:09:26Z</time>
      </trkpt>
      <trkpt lat="50.59734" lon="1.62384">
        <ele>40.7</ele>
        <time>2020-06-22T08:09:27Z</time>
      </trkpt>
      <trkpt lat="50.59739" lon="1.62388">
        <ele>40.8</ele>
        <time>2020-06-22T08:09:28Z</time>
      </trkpt>
      <trkpt lat="50.59744" lon="1.62394">
        <ele>40.9</ele>
        <time>2020-06-22T08:09:29Z</time>
      </trkpt>
      <trkpt lat="50.59748" lon="1.62399">
        <ele>41</ele>
        <time>2020-06-22T08:09:30Z</time>
      </trkpt>
      <trkpt lat="50.59753" lon="1.62403">
        <ele>41.1</ele>
        <time>2020-06-22T08:09:31Z</time>
      </trkpt>
      <trkpt lat="50.59758" lon="1.62409">
        <ele>41.3</ele>
        <time>2020-06-22T08:09:32Z</time>
      </trkpt>
      <trkpt lat="50.59763" lon="1.62414">
        <ele>41.4</ele>
        <time>2020-06-22T08:09:33Z</time>
      </trkpt>
      <trkpt lat="50.59767" lon="1.6242">
        <ele>41.5</ele>
        <time>2020-06-22T08:09:34Z</time>
      </trkpt>
      <trkpt lat="50.59772" lon="1.62426">
        <ele>41.6</ele>
        <time>2020-06-22T08:09:35Z</time>
      </trkpt>
      <trkpt lat="50.59777" lon="1.62432">
        <ele>41.6</ele>
        <time>2020-06-22T08:09:36Z</time>
      </trkpt>
      <trkpt lat="50.59781" lon="1.62437">
        <ele>41.7</ele>
        <time>2020-06-22T08:09:37Z</time>
      </trkpt>
      <trkpt lat="50.59785" lon="1.62442">
        <ele>41.8</ele>
        <time>2020-06-22T08:09:38Z</time>
      </trkpt>
      <trkpt lat="50.5979" lon="1.62449">
        <ele>41.9</ele>
        <time>2020-06-22T08:09:39Z</time>
      </trkpt>
      <trkpt lat="50.59794" lon="1.62457">
        <ele>41.9</ele>
        <time>2020-06-22T08:09:40Z</time>
      </trkpt>
      <trkpt lat="50.59797" lon="1.62464">
        <ele>42</ele>
        <time>2020-06-22T08:09:41Z</time>
      </trkpt>
      <trkpt lat="50.598" lon="1.62472">
        <ele>42</ele>
        <time>2020-06-22T08:09:42Z</time>
      </trkpt>
      <trkpt lat="50.59804" lon="1.62477">
        <ele>42.1</ele>
        <time>2020-06-22T08:09:43Z</time>
      </trkpt>
      <trkpt lat="50.59807" lon="1.62484">
        <ele>42.2</ele>
        <time>2020-06-22T08:09:44Z</time>
      </trkpt>
      <trkpt lat="50.59811" lon="1.62492">
        <ele>42.3</ele>
        <time>2020-06-22T08:09:45Z</time>
      </trkpt>
      <trkpt lat="50.59814" lon="1.625">
        <ele>42.4</ele>
        <time>2020-06-22T08:09:46Z</time>
      </trkpt>
      <trkpt lat="50.59818" lon="1.62507">
        <ele>42.4</ele>
        <time>2020-06-22T08:09:47Z</time>
      </trkpt>
      <trkpt lat="50.59822" lon="1.62515">
        <ele>42.5</ele>
        <time>2020-06-22T08:09:48Z</time>
      </trkpt>
      <trkpt lat="50.59825" lon="1.62522">
        <ele>42.6</ele>
        <time>2020-06-22T08:09:49Z</time>
      </trkpt>
      <trkpt lat="50.59827" lon="1.6253">
        <ele>42.7</ele>
        <time>2020-06-22T08:09:50Z</time>
      </trkpt>
      <trkpt lat="50.5983" lon="1.62538">
        <ele>42.8</ele>
        <time>2020-06-22T08:09:51Z</time>
      </trkpt>
      <trkpt lat="50.59833" lon="1.62545">
        <ele>42.9</ele>
        <time>2020-06-22T08:09:52Z</time>
      </trkpt>
      <trkpt lat="50.59835" lon="1.62552">
        <ele>43</ele>
        <time>2020-06-22T08:09:53Z</time>
      </trkpt>
      <trkpt lat="50.59838" lon="1.62559">
        <ele>43</ele>
        <time>2020-06-22T08:09:54Z</time>
      </trkpt>
      <trkpt lat="50.5984" lon="1.62566">
        <ele>43.1</ele>
        <time>2020-06-22T08:09:55Z</time>
      </trkpt>
      <trkpt lat="50.59844" lon="1.62572">
        <ele>43.1</ele>
        <time>2020-06-22T08:09:56Z</time>
      </trkpt>
      <trkpt lat="50.59848" lon="1.6258">
        <ele>43.2</ele>
        <time>2020-06-22T08:09:57Z</time>
      </trkpt>
      <trkpt lat="50.59851" lon="1.62588">
        <ele>43.3</ele>
        <time>2020-06-22T08:09:58Z</time>
      </trkpt>
      <trkpt lat="50.59855" lon="1.62595">
        <ele>43.3</ele>
        <time>2020-06-22T08:09:59Z</time>
      </trkpt>
      <trkpt lat="50.59859" lon="1.62602">
        <ele>43.4</ele>
        <time>2020-06-22T08:10:00Z</time>
      </trkpt>
      <trkpt lat="50.59862" lon="1.62608">
        <ele>43.6</ele>
        <time>2020-06-22T08:10:01Z</time>
      </trkpt>
      <trkpt lat="50.59866" lon="1.62613">
        <ele>43.7</ele>
        <time>2020-06-22T08:10:02Z</time>
      </trkpt>
      <trkpt lat="50.59869" lon="1.62615">
        <ele>43.7</ele>
        <time>2020-06-22T08:10:03Z</time>
      </trkpt>
      <trkpt lat="50.59875" lon="1.62618">
        <ele>43.9</ele>
        <time>2020-06-22T08:10:04Z</time>
      </trkpt>
      <trkpt lat="50.59881" lon="1.62619">
        <ele>44</ele>
        <time>2020-06-22T08:10:05Z</time>
      </trkpt>
      <trkpt lat="50.59886" lon="1.62619">
        <ele>44.2</ele>
        <time>2020-06-22T08:10:06Z</time>
      </trkpt>
      <trkpt lat="50.59891" lon="1.62618">
        <ele>44.3</ele>
        <time>2020-06-22T08:10:07Z</time>
      </trkpt>
      <trkpt lat="50.59895" lon="1.62617">
        <ele>44.5</ele>
        <time>2020-06-22T08:10:08Z</time>
      </trkpt>
      <trkpt lat="50.599" lon="1.62616">
        <ele>44.6</ele>
        <time>2020-06-22T08:10:09Z</time>
      </trkpt>
      <trkpt lat="50.59904" lon="1.62614">
        <ele>45</ele>
        <time>2020-06-22T08:10:10Z</time>
      </trkpt>
      <trkpt lat="50.59909" lon="1.62611">
        <ele>45.4</ele>
        <time>2020-06-22T08:10:11Z</time>
      </trkpt>
      <trkpt lat="50.59913" lon="1.62608">
        <ele>45.8</ele>
        <time>2020-06-22T08:10:12Z</time>
      </trkpt>
      <trkpt lat="50.59917" lon="1.62606">
        <ele>46.1</ele>
        <time>2020-06-22T08:10:13Z</time>
      </trkpt>
      <trkpt lat="50.59922" lon="1.62603">
        <ele>46.5</ele>
        <time>2020-06-22T08:10:14Z</time>
      </trkpt>
      <trkpt lat="50.59926" lon="1.62599">
        <ele>46.8</ele>
        <time>2020-06-22T08:10:15Z</time>
      </trkpt>
      <trkpt lat="50.5993" lon="1.62596">
        <ele>47</ele>
        <time>2020-06-22T08:10:16Z</time>
      </trkpt>
      <trkpt lat="50.59933" lon="1.62594">
        <ele>47.2</ele>
        <time>2020-06-22T08:10:17Z</time>
      </trkpt>
      <trkpt lat="50.59937" lon="1.62592">
        <ele>47.3</ele>
        <time>2020-06-22T08:10:18Z</time>
      </trkpt>
      <trkpt lat="50.59941" lon="1.6259">
        <ele>47.6</ele>
        <time>2020-06-22T08:10:19Z</time>
      </trkpt>
      <trkpt lat="50.59944" lon="1.6259">
        <ele>47.8</ele>
        <time>2020-06-22T08:10:20Z</time>
      </trkpt>
      <trkpt lat="50.59946" lon="1.62591">
        <ele>47.9</ele>
        <time>2020-06-22T08:10:21Z</time>
      </trkpt>
      <trkpt lat="50.59951" lon="1.62596">
        <ele>48.6</ele>
        <time>2020-06-22T08:10:22Z</time>
      </trkpt>
      <trkpt lat="50.59956" lon="1.62603">
        <ele>48.9</ele>
        <time>2020-06-22T08:10:23Z</time>
      </trkpt>
      <trkpt lat="50.59958" lon="1.6261">
        <ele>49.2</ele>
        <time>2020-06-22T08:10:24Z</time>
      </trkpt>
      <trkpt lat="50.5996" lon="1.62617">
        <ele>49.4</ele>
        <time>2020-06-22T08:10:25Z</time>
      </trkpt>
      <trkpt lat="50.59962" lon="1.62623">
        <ele>49.6</ele>
        <time>2020-06-22T08:10:26Z</time>
      </trkpt>
      <trkpt lat="50.59965" lon="1.62629">
        <ele>49.8</ele>
        <time>2020-06-22T08:10:27Z</time>
      </trkpt>
      <trkpt lat="50.59966" lon="1.62635">
        <ele>50</ele>
        <time>2020-06-22T08:10:28Z</time>
      </trkpt>
      <trkpt lat="50.59968" lon="1.6264">
        <ele>50.1</ele>
        <time>2020-06-22T08:10:29Z</time>
      </trkpt>
      <trkpt lat="50.5997" lon="1.62647">
        <ele>50.4</ele>
        <time>2020-06-22T08:10:30Z</time>
      </trkpt>
      <trkpt lat="50.59972" lon="1.62652">
        <ele>50.6</ele>
        <time>2020-06-22T08:10:31Z</time>
      </trkpt>
      <trkpt lat="50.59974" lon="1.62658">
        <ele>50.8</ele>
        <time>2020-06-22T08:10:32Z</time>
      </trkpt>
      <trkpt lat="50.59976" lon="1.62664">
        <ele>51</ele>
        <time>2020-06-22T08:10:33Z</time>
      </trkpt>
      <trkpt lat="50.59978" lon="1.62671">
        <ele>51.3</ele>
        <time>2020-06-22T08:10:34Z</time>
      </trkpt>
      <trkpt lat="50.59981" lon="1.62678">
        <ele>51.5</ele>
        <time>2020-06-22T08:10:35Z</time>
      </trkpt>
      <trkpt lat="50.59984" lon="1.62686">
        <ele>51.8</ele>
        <time>2020-06-22T08:10:36Z</time>
      </trkpt>
      <trkpt lat="50.59986" lon="1.62692">
        <ele>52</ele>
        <time>2020-06-22T08:10:37Z</time>
      </trkpt>
      <trkpt lat="50.59989" lon="1.62698">
        <ele>52.2</ele>
        <time>2020-06-22T08:10:38Z</time>
      </trkpt>
      <trkpt lat="50.59992" lon="1.62704">
        <ele>52.4</ele>
        <time>2020-06-22T08:10:39Z</time>
      </trkpt>
      <trkpt lat="50.59994" lon="1.62709">
        <ele>52.5</ele>
        <time>2020-06-22T08:10:40Z</time>
      </trkpt>
      <trkpt lat="50.59997" lon="1.62717">
        <ele>52.8</ele>
        <time>2020-06-22T08:10:41Z</time>
      </trkpt>
      <trkpt lat="50.6" lon="1.62723">
        <ele>52.9</ele>
        <time>2020-06-22T08:10:42Z</time>
      </trkpt>
      <trkpt lat="50.60002" lon="1.62728">
        <ele>53.1</ele>
        <time>2020-06-22T08:10:43Z</time>
      </trkpt>
      <trkpt lat="50.60005" lon="1.62735">
        <ele>53.3</ele>
        <time>2020-06-22T08:10:44Z</time>
      </trkpt>
      <trkpt lat="50.60008" lon="1.62741">
        <ele>53.5</ele>
        <time>2020-06-22T08:10:45Z</time>
      </trkpt>
      <trkpt lat="50.6001" lon="1.62747">
        <ele>53.6</ele>
        <time>2020-06-22T08:10:46Z</time>
      </trkpt>
      <trkpt lat="50.60012" lon="1.62753">
        <ele>53.8</ele>
        <time>2020-06-22T08:10:47Z</time>
      </trkpt>
      <trkpt lat="50.60015" lon="1.62759">
        <ele>53.9</ele>
        <time>2020-06-22T08:10:48Z</time>
      </trkpt>
      <trkpt lat="50.60018" lon="1.62764">
        <ele>54.1</ele>
        <time>2020-06-22T08:10:49Z</time>
      </trkpt>
      <trkpt lat="50.60021" lon="1.6277">
        <ele>54.2</ele>
        <time>2020-06-22T08:10:50Z</time>
      </trkpt>
      <trkpt lat="50.60024" lon="1.62773">
        <ele>54.3</ele>
        <time>2020-06-22T08:10:51Z</time>
      </trkpt>
      <trkpt lat="50.60026" lon="1.62777">
        <ele>54.4</ele>
        <time>2020-06-22T08:10:52Z</time>
      </trkpt>
      <trkpt lat="50.60029" lon="1.62783">
        <ele>54.5</ele>
        <time>2020-06-22T08:10:53Z</time>
      </trkpt>
      <trkpt lat="50.60033" lon="1.62789">
        <ele>54.6</ele>
        <time>2020-06-22T08:10:54Z</time>
      </trkpt>
      <trkpt lat="50.60036" lon="1.62794">
        <ele>54.8</ele>
        <time>2020-06-22T08:10:55Z</time>
      </trkpt>
      <trkpt lat="50.6004" lon="1.628">
        <ele>54.9</ele>
        <time>2020-06-22T08:10:56Z</time>
      </trkpt>
      <trkpt lat="50.60043" lon="1.62805">
        <ele>55</ele>
        <time>2020-06-22T08:10:57Z</time>
      </trkpt>
      <trkpt lat="50.60048" lon="1.62811">
        <ele>55.2</ele>
        <time>2020-06-22T08:10:58Z</time>
      </trkpt>
      <trkpt lat="50.60051" lon="1.62816">
        <ele>55.3</ele>
        <time>2020-06-22T08:10:59Z</time>
      </trkpt>
      <trkpt lat="50.60055" lon="1.62822">
        <ele>55.4</ele>
        <time>2020-06-22T08:11:00Z</time>
      </trkpt>
      <trkpt lat="50.60059" lon="1.62828">
        <ele>55.5</ele>
        <time>2020-06-22T08:11:01Z</time>
      </trkpt>
      <trkpt lat="50.60064" lon="1.62834">
        <ele>55.6</ele>
        <time>2020-06-22T08:11:02Z</time>
      </trkpt>
      <trkpt lat="50.60068" lon="1.6284">
        <ele>55.6</ele>
        <time>2020-06-22T08:11:03Z</time>
      </trkpt>
      <trkpt lat="50.60072" lon="1.62845">
        <ele>55.7</ele>
        <time>2020-06-22T08:11:04Z</time>
      </trkpt>
      <trkpt lat="50.60076" lon="1.62851">
        <ele>55.7</ele>
        <time>2020-06-22T08:11:05Z</time>
      </trkpt>
      <trkpt lat="50.6008" lon="1.62855">
        <ele>55.7</ele>
        <time>2020-06-22T08:11:06Z</time>
      </trkpt>
      <trkpt lat="50.60084" lon="1.62862">
        <ele>55.8</ele>
        <time>2020-06-22T08:11:07Z</time>
      </trkpt>
      <trkpt lat="50.6009" lon="1.62868">
        <ele>56</ele>
        <time>2020-06-22T08:11:08Z</time>
      </trkpt>
      <trkpt lat="50.60095" lon="1.62873">
        <ele>56</ele>
        <time>2020-06-22T08:11:09Z</time>
      </trkpt>
      <trkpt lat="50.601" lon="1.62879">
        <ele>56</ele>
        <time>2020-06-22T08:11:10Z</time>
      </trkpt>
      <trkpt lat="50.60104" lon="1.62883">
        <ele>56</ele>
        <time>2020-06-22T08:11:11Z</time>
      </trkpt>
      <trkpt lat="50.60108" lon="1.62887">
        <ele>56</ele>
        <time>2020-06-22T08:11:12Z</time>
      </trkpt>
      <trkpt lat="50.60113" lon="1.62892">
        <ele>56</ele>
        <time>2020-06-22T08:11:13Z</time>
      </trkpt>
      <trkpt lat="50.60118" lon="1.62897">
        <ele>56</ele>
        <time>2020-06-22T08:11:14Z</time>
      </trkpt>
      <trkpt lat="50.60124" lon="1.62902">
        <ele>56</ele>
        <time>2020-06-22T08:11:15Z</time>
      </trkpt>
      <trkpt lat="50.60129" lon="1.62907">
        <ele>56</ele>
        <time>2020-06-22T08:11:16Z</time>
      </trkpt>
      <trkpt lat="50.60134" lon="1.62912">
        <ele>56</ele>
        <time>2020-06-22T08:11:17Z</time>
      </trkpt>
      <trkpt lat="50.6014" lon="1.62917">
        <ele>56</ele>
        <time>2020-06-22T08:11:18Z</time>
      </trkpt>
      <trkpt lat="50.60146" lon="1.62922">
        <ele>55.9</ele>
        <time>2020-06-22T08:11:19Z</time>
      </trkpt>
      <trkpt lat="50.60152" lon="1.62927">
        <ele>55.9</ele>
        <time>2020-06-22T08:11:20Z</time>
      </trkpt>
      <trkpt lat="50.60157" lon="1.62932">
        <ele>55.8</ele>
        <time>2020-06-22T08:11:21Z</time>
      </trkpt>
      <trkpt lat="50.60163" lon="1.62938">
        <ele>55.8</ele>
        <time>2020-06-22T08:11:22Z</time>
      </trkpt>
      <trkpt lat="50.60167" lon="1.62942">
        <ele>55.8</ele>
        <time>2020-06-22T08:11:23Z</time>
      </trkpt>
      <trkpt lat="50.60173" lon="1.62947">
        <ele>55.9</ele>
        <time>2020-06-22T08:11:24Z</time>
      </trkpt>
      <trkpt lat="50.60178" lon="1.6295">
        <ele>55.9</ele>
        <time>2020-06-22T08:11:25Z</time>
      </trkpt>
      <trkpt lat="50.60182" lon="1.62953">
        <ele>55.9</ele>
        <time>2020-06-22T08:11:26Z</time>
      </trkpt>
      <trkpt lat="50.60187" lon="1.62957">
        <ele>55.9</ele>
        <time>2020-06-22T08:11:27Z</time>
      </trkpt>
      <trkpt lat="50.60193" lon="1.62961">
        <ele>56</ele>
        <time>2020-06-22T08:11:28Z</time>
      </trkpt>
      <trkpt lat="50.60199" lon="1.62965">
        <ele>56</ele>
        <time>2020-06-22T08:11:29Z</time>
      </trkpt>
      <trkpt lat="50.60204" lon="1.62969">
        <ele>56</ele>
        <time>2020-06-22T08:11:30Z</time>
      </trkpt>
      <trkpt lat="50.60208" lon="1.62972">
        <ele>56.1</ele>
        <time>2020-06-22T08:11:31Z</time>
      </trkpt>
      <trkpt lat="50.60213" lon="1.62975">
        <ele>56.2</ele>
        <time>2020-06-22T08:11:32Z</time>
      </trkpt>
      <trkpt lat="50.60217" lon="1.62978">
        <ele>56.3</ele>
        <time>2020-06-22T08:11:33Z</time>
      </trkpt>
      <trkpt lat="50.6022" lon="1.6298">
        <ele>56.4</ele>
        <time>2020-06-22T08:11:34Z</time>
      </trkpt>
      <trkpt lat="50.60225" lon="1.62981">
        <ele>56.5</ele>
        <time>2020-06-22T08:11:35Z</time>
      </trkpt>
      <trkpt lat="50.6023" lon="1.62982">
        <ele>56.8</ele>
        <time>2020-06-22T08:11:36Z</time>
      </trkpt>
      <trkpt lat="50.60235" lon="1.6298">
        <ele>56.9</ele>
        <time>2020-06-22T08:11:37Z</time>
      </trkpt>
      <trkpt lat="50.60238" lon="1.62975">
        <ele>57.5</ele>
        <time>2020-06-22T08:11:38Z</time>
      </trkpt>
      <trkpt lat="50.60242" lon="1.62973">
        <ele>57.5</ele>
        <time>2020-06-22T08:11:39Z</time>
      </trkpt>
      <trkpt lat="50.60246" lon="1.62975">
        <ele>57.6</ele>
        <time>2020-06-22T08:11:40Z</time>
      </trkpt>
      <trkpt lat="50.6025" lon="1.62978">
        <ele>57.6</ele>
        <time>2020-06-22T08:11:41Z</time>
      </trkpt>
      <trkpt lat="50.60253" lon="1.6298">
        <ele>57.7</ele>
        <time>2020-06-22T08:11:42Z</time>
      </trkpt>
      <trkpt lat="50.60257" lon="1.62983">
        <ele>57.8</ele>
        <time>2020-06-22T08:11:43Z</time>
      </trkpt>
      <trkpt lat="50.60261" lon="1.62986">
        <ele>57.9</ele>
        <time>2020-06-22T08:11:44Z</time>
      </trkpt>
      <trkpt lat="50.60266" lon="1.62988">
        <ele>58</ele>
        <time>2020-06-22T08:11:45Z</time>
      </trkpt>
      <trkpt lat="50.6027" lon="1.6299">
        <ele>58.1</ele>
        <time>2020-06-22T08:11:46Z</time>
      </trkpt>
      <trkpt lat="50.60276" lon="1.62994">
        <ele>58.2</ele>
        <time>2020-06-22T08:11:47Z</time>
      </trkpt>
      <trkpt lat="50.6028" lon="1.62997">
        <ele>58.3</ele>
        <time>2020-06-22T08:11:48Z</time>
      </trkpt>
      <trkpt lat="50.60285" lon="1.62999">
        <ele>58.4</ele>
        <time>2020-06-22T08:11:49Z</time>
      </trkpt>
      <trkpt lat="50.60289" lon="1.63003">
        <ele>58.5</ele>
        <time>2020-06-22T08:11:50Z</time>
      </trkpt>
      <trkpt lat="50.60294" lon="1.63005">
        <ele>58.5</ele>
        <time>2020-06-22T08:11:51Z</time>
      </trkpt>
      <trkpt lat="50.60298" lon="1.63007">
        <ele>58.6</ele>
        <time>2020-06-22T08:11:52Z</time>
      </trkpt>
      <trkpt lat="50.60303" lon="1.63009">
        <ele>58.7</ele>
        <time>2020-06-22T08:11:53Z</time>
      </trkpt>
      <trkpt lat="50.60307" lon="1.63013">
        <ele>58.8</ele>
        <time>2020-06-22T08:11:54Z</time>
      </trkpt>
      <trkpt lat="50.60312" lon="1.63017">
        <ele>58.9</ele>
        <time>2020-06-22T08:11:55Z</time>
      </trkpt>
      <trkpt lat="50.60316" lon="1.63019">
        <ele>59</ele>
        <time>2020-06-22T08:11:56Z</time>
      </trkpt>
      <trkpt lat="50.60321" lon="1.63023">
        <ele>59.1</ele>
        <time>2020-06-22T08:11:57Z</time>
      </trkpt>
      <trkpt lat="50.60325" lon="1.63025">
        <ele>59.1</ele>
        <time>2020-06-22T08:11:58Z</time>
      </trkpt>
      <trkpt lat="50.6033" lon="1.63026">
        <ele>59.2</ele>
        <time>2020-06-22T08:11:59Z</time>
      </trkpt>
      <trkpt lat="50.60334" lon="1.63027">
        <ele>59.3</ele>
        <time>2020-06-22T08:12:00Z</time>
      </trkpt>
      <trkpt lat="50.6034" lon="1.63029">
        <ele>59.3</ele>
        <time>2020-06-22T08:12:01Z</time>
      </trkpt>
      <trkpt lat="50.60346" lon="1.63033">
        <ele>59.4</ele>
        <time>2020-06-22T08:12:02Z</time>
      </trkpt>
      <trkpt lat="50.60352" lon="1.63036">
        <ele>59.5</ele>
        <time>2020-06-22T08:12:03Z</time>
      </trkpt>
      <trkpt lat="50.60357" lon="1.63039">
        <ele>59.6</ele>
        <time>2020-06-22T08:12:04Z</time>
      </trkpt>
      <trkpt lat="50.60362" lon="1.63041">
        <ele>59.7</ele>
        <time>2020-06-22T08:12:05Z</time>
      </trkpt>
      <trkpt lat="50.60368" lon="1.63044">
        <ele>59.8</ele>
        <time>2020-06-22T08:12:06Z</time>
      </trkpt>
      <trkpt lat="50.60374" lon="1.63047">
        <ele>59.9</ele>
        <time>2020-06-22T08:12:07Z</time>
      </trkpt>
      <trkpt lat="50.6038" lon="1.63049">
        <ele>60</ele>
        <time>2020-06-22T08:12:08Z</time>
      </trkpt>
      <trkpt lat="50.60385" lon="1.63052">
        <ele>60</ele>
        <time>2020-06-22T08:12:09Z</time>
      </trkpt>
      <trkpt lat="50.60391" lon="1.63055">
        <ele>60.1</ele>
        <time>2020-06-22T08:12:10Z</time>
      </trkpt>
      <trkpt lat="50.60396" lon="1.63058">
        <ele>60.2</ele>
        <time>2020-06-22T08:12:11Z</time>
      </trkpt>
      <trkpt lat="50.60401" lon="1.63061">
        <ele>60.2</ele>
        <time>2020-06-22T08:12:12Z</time>
      </trkpt>
      <trkpt lat="50.60407" lon="1.63064">
        <ele>60.3</ele>
        <time>2020-06-22T08:12:13Z</time>
      </trkpt>
      <trkpt lat="50.60411" lon="1.63067">
        <ele>60.3</ele>
        <time>2020-06-22T08:12:14Z</time>
      </trkpt>
      <trkpt lat="50.60416" lon="1.6307">
        <ele>60.4</ele>
        <time>2020-06-22T08:12:15Z</time>
      </trkpt>
      <trkpt lat="50.60421" lon="1.63073">
        <ele>60.4</ele>
        <time>2020-06-22T08:12:16Z</time>
      </trkpt>
      <trkpt lat="50.60427" lon="1.63076">
        <ele>60.5</ele>
        <time>2020-06-22T08:12:17Z</time>
      </trkpt>
      <trkpt lat="50.60432" lon="1.63078">
        <ele>60.6</ele>
        <time>2020-06-22T08:12:18Z</time>
      </trkpt>
      <trkpt lat="50.60437" lon="1.6308">
        <ele>60.8</ele>
        <time>2020-06-22T08:12:19Z</time>
      </trkpt>
      <trkpt lat="50.60441" lon="1.63082">
        <ele>60.9</ele>
        <time>2020-06-22T08:12:20Z</time>
      </trkpt>
      <trkpt lat="50.60446" lon="1.63084">
        <ele>61</ele>
        <time>2020-06-22T08:12:21Z</time>
      </trkpt>
      <trkpt lat="50.60451" lon="1.63086">
        <ele>61.1</ele>
        <time>2020-06-22T08:12:22Z</time>
      </trkpt>
      <trkpt lat="50.60455" lon="1.63089">
        <ele>61.2</ele>
        <time>2020-06-22T08:12:23Z</time>
      </trkpt>
      <trkpt lat="50.60461" lon="1.63091">
        <ele>61.4</ele>
        <time>2020-06-22T08:12:24Z</time>
      </trkpt>
      <trkpt lat="50.60468" lon="1.63094">
        <ele>61.6</ele>
        <time>2020-06-22T08:12:25Z</time>
      </trkpt>
      <trkpt lat="50.60474" lon="1.63096">
        <ele>61.8</ele>
        <time>2020-06-22T08:12:26Z</time>
      </trkpt>
      <trkpt lat="50.60479" lon="1.63099">
        <ele>61.9</ele>
        <time>2020-06-22T08:12:27Z</time>
      </trkpt>
      <trkpt lat="50.60485" lon="1.63101">
        <ele>62.1</ele>
        <time>2020-06-22T08:12:28Z</time>
      </trkpt>
      <trkpt lat="50.6049" lon="1.63102">
        <ele>62.2</ele>
        <time>2020-06-22T08:12:29Z</time>
      </trkpt>
      <trkpt lat="50.60495" lon="1.63105">
        <ele>62.4</ele>
        <time>2020-06-22T08:12:30Z</time>
      </trkpt>
      <trkpt lat="50.60501" lon="1.63107">
        <ele>62.6</ele>
        <time>2020-06-22T08:12:31Z</time>
      </trkpt>
      <trkpt lat="50.60507" lon="1.63109">
        <ele>62.8</ele>
        <time>2020-06-22T08:12:32Z</time>
      </trkpt>
      <trkpt lat="50.60512" lon="1.63111">
        <ele>62.9</ele>
        <time>2020-06-22T08:12:33Z</time>
      </trkpt>
      <trkpt lat="50.60518" lon="1.63112">
        <ele>63.1</ele>
        <time>2020-06-22T08:12:34Z</time>
      </trkpt>
      <trkpt lat="50.60523" lon="1.63115">
        <ele>63.3</ele>
        <time>2020-06-22T08:12:35Z</time>
      </trkpt>
      <trkpt lat="50.60529" lon="1.63117">
        <ele>63.5</ele>
        <time>2020-06-22T08:12:36Z</time>
      </trkpt>
      <trkpt lat="50.60535" lon="1.6312">
        <ele>63.7</ele>
        <time>2020-06-22T08:12:37Z</time>
      </trkpt>
      <trkpt lat="50.60539" lon="1.63124">
        <ele>63.8</ele>
        <time>2020-06-22T08:12:38Z</time>
      </trkpt>
      <trkpt lat="50.60544" lon="1.63126">
        <ele>64</ele>
        <time>2020-06-22T08:12:39Z</time>
      </trkpt>
      <trkpt lat="50.60549" lon="1.63128">
        <ele>64.2</ele>
        <time>2020-06-22T08:12:40Z</time>
      </trkpt>
      <trkpt lat="50.60553" lon="1.6313">
        <ele>64.3</ele>
        <time>2020-06-22T08:12:41Z</time>
      </trkpt>
      <trkpt lat="50.60558" lon="1.63132">
        <ele>64.5</ele>
        <time>2020-06-22T08:12:42Z</time>
      </trkpt>
      <trkpt lat="50.60563" lon="1.63134">
        <ele>64.7</ele>
        <time>2020-06-22T08:12:43Z</time>
      </trkpt>
      <trkpt lat="50.60568" lon="1.63135">
        <ele>64.9</ele>
        <time>2020-06-22T08:12:44Z</time>
      </trkpt>
      <trkpt lat="50.60573" lon="1.63136">
        <ele>65.1</ele>
        <time>2020-06-22T08:12:45Z</time>
      </trkpt>
      <trkpt lat="50.60579" lon="1.63139">
        <ele>65.3</ele>
        <time>2020-06-22T08:12:46Z</time>
      </trkpt>
      <trkpt lat="50.60585" lon="1.63141">
        <ele>65.4</ele>
        <time>2020-06-22T08:12:47Z</time>
      </trkpt>
      <trkpt lat="50.60589" lon="1.63142">
        <ele>65.6</ele>
        <time>2020-06-22T08:12:48Z</time>
      </trkpt>
      <trkpt lat="50.60593" lon="1.63143">
        <ele>65.7</ele>
        <time>2020-06-22T08:12:49Z</time>
      </trkpt>
      <trkpt lat="50.60598" lon="1.63146">
        <ele>65.8</ele>
        <time>2020-06-22T08:12:50Z</time>
      </trkpt>
      <trkpt lat="50.60602" lon="1.63148">
        <ele>66</ele>
        <time>2020-06-22T08:12:51Z</time>
      </trkpt>
      <trkpt lat="50.60607" lon="1.6315">
        <ele>66.1</ele>
        <time>2020-06-22T08:12:52Z</time>
      </trkpt>
      <trkpt lat="50.60611" lon="1.63152">
        <ele>66.2</ele>
        <time>2020-06-22T08:12:53Z</time>
      </trkpt>
      <trkpt lat="50.60616" lon="1.63154">
        <ele>66.4</ele>
        <time>2020-06-22T08:12:54Z</time>
      </trkpt>
      <trkpt lat="50.6062" lon="1.63157">
        <ele>66.5</ele>
        <time>2020-06-22T08:12:55Z</time>
      </trkpt>
      <trkpt lat="50.60626" lon="1.63158">
        <ele>66.6</ele>
        <time>2020-06-22T08:12:56Z</time>
      </trkpt>
      <trkpt lat="50.60631" lon="1.6316">
        <ele>66.7</ele>
        <time>2020-06-22T08:12:57Z</time>
      </trkpt>
      <trkpt lat="50.60637" lon="1.63163">
        <ele>66.9</ele>
        <time>2020-06-22T08:12:58Z</time>
      </trkpt>
      <trkpt lat="50.60641" lon="1.63164">
        <ele>67</ele>
        <time>2020-06-22T08:12:59Z</time>
      </trkpt>
      <trkpt lat="50.60646" lon="1.63167">
        <ele>67.1</ele>
        <time>2020-06-22T08:13:00Z</time>
      </trkpt>
      <trkpt lat="50.60652" lon="1.63169">
        <ele>67.2</ele>
        <time>2020-06-22T08:13:01Z</time>
      </trkpt>
      <trkpt lat="50.60657" lon="1.63171">
        <ele>67.3</ele>
        <time>2020-06-22T08:13:02Z</time>
      </trkpt>
      <trkpt lat="50.60661" lon="1.63173">
        <ele>67.4</ele>
        <time>2020-06-22T08:13:03Z</time>
      </trkpt>
      <trkpt lat="50.60666" lon="1.63174">
        <ele>67.5</ele>
        <time>2020-06-22T08:13:04Z</time>
      </trkpt>
      <trkpt lat="50.60673" lon="1.63177">
        <ele>67.7</ele>
        <time>2020-06-22T08:13:05Z</time>
      </trkpt>
      <trkpt lat="50.60679" lon="1.6318">
        <ele>67.8</ele>
        <time>2020-06-22T08:13:06Z</time>
      </trkpt>
      <trkpt lat="50.60685" lon="1.63183">
        <ele>68</ele>
        <time>2020-06-22T08:13:07Z</time>
      </trkpt>
      <trkpt lat="50.60691" lon="1.63185">
        <ele>68.1</ele>
        <time>2020-06-22T08:13:08Z</time>
      </trkpt>
      <trkpt lat="50.60697" lon="1.63188">
        <ele>68.2</ele>
        <time>2020-06-22T08:13:09Z</time>
      </trkpt>
      <trkpt lat="50.60703" lon="1.6319">
        <ele>68.3</ele>
        <time>2020-06-22T08:13:10Z</time>
      </trkpt>
      <trkpt lat="50.60708" lon="1.63192">
        <ele>68.4</ele>
        <time>2020-06-22T08:13:11Z</time>
      </trkpt>
      <trkpt lat="50.60714" lon="1.63194">
        <ele>68.4</ele>
        <time>2020-06-22T08:13:12Z</time>
      </trkpt>
      <trkpt lat="50.6072" lon="1.63197">
        <ele>68.5</ele>
        <time>2020-06-22T08:13:13Z</time>
      </trkpt>
      <trkpt lat="50.60726" lon="1.63199">
        <ele>68.5</ele>
        <time>2020-06-22T08:13:14Z</time>
      </trkpt>
      <trkpt lat="50.60731" lon="1.632">
        <ele>68.6</ele>
        <time>2020-06-22T08:13:15Z</time>
      </trkpt>
      <trkpt lat="50.60736" lon="1.63203">
        <ele>68.7</ele>
        <time>2020-06-22T08:13:16Z</time>
      </trkpt>
      <trkpt lat="50.60742" lon="1.63204">
        <ele>68.8</ele>
        <time>2020-06-22T08:13:17Z</time>
      </trkpt>
      <trkpt lat="50.60748" lon="1.63206">
        <ele>68.8</ele>
        <time>2020-06-22T08:13:18Z</time>
      </trkpt>
      <trkpt lat="50.60753" lon="1.63209">
        <ele>68.9</ele>
        <time>2020-06-22T08:13:19Z</time>
      </trkpt>
      <trkpt lat="50.60759" lon="1.63211">
        <ele>69</ele>
        <time>2020-06-22T08:13:20Z</time>
      </trkpt>
      <trkpt lat="50.60765" lon="1.63213">
        <ele>69.1</ele>
        <time>2020-06-22T08:13:21Z</time>
      </trkpt>
      <trkpt lat="50.60771" lon="1.63215">
        <ele>69.2</ele>
        <time>2020-06-22T08:13:22Z</time>
      </trkpt>
      <trkpt lat="50.60777" lon="1.63218">
        <ele>69.2</ele>
        <time>2020-06-22T08:13:23Z</time>
      </trkpt>
      <trkpt lat="50.60782" lon="1.6322">
        <ele>69.3</ele>
        <time>2020-06-22T08:13:24Z</time>
      </trkpt>
      <trkpt lat="50.60788" lon="1.63223">
        <ele>69.4</ele>
        <time>2020-06-22T08:13:25Z</time>
      </trkpt>
      <trkpt lat="50.60794" lon="1.63226">
        <ele>69.4</ele>
        <time>2020-06-22T08:13:26Z</time>
      </trkpt>
      <trkpt lat="50.60799" lon="1.63229">
        <ele>69.4</ele>
        <time>2020-06-22T08:13:27Z</time>
      </trkpt>
      <trkpt lat="50.60805" lon="1.63232">
        <ele>69.5</ele>
        <time>2020-06-22T08:13:28Z</time>
      </trkpt>
      <trkpt lat="50.6081" lon="1.63234">
        <ele>69.5</ele>
        <time>2020-06-22T08:13:29Z</time>
      </trkpt>
      <trkpt lat="50.60815" lon="1.63236">
        <ele>69.5</ele>
        <time>2020-06-22T08:13:30Z</time>
      </trkpt>
      <trkpt lat="50.60819" lon="1.63238">
        <ele>69.5</ele>
        <time>2020-06-22T08:13:31Z</time>
      </trkpt>
      <trkpt lat="50.60826" lon="1.63241">
        <ele>69.5</ele>
        <time>2020-06-22T08:13:32Z</time>
      </trkpt>
      <trkpt lat="50.60832" lon="1.63244">
        <ele>69.5</ele>
        <time>2020-06-22T08:13:33Z</time>
      </trkpt>
      <trkpt lat="50.60838" lon="1.63248">
        <ele>69.4</ele>
        <time>2020-06-22T08:13:34Z</time>
      </trkpt>
      <trkpt lat="50.60844" lon="1.63251">
        <ele>69.4</ele>
        <time>2020-06-22T08:13:35Z</time>
      </trkpt>
      <trkpt lat="50.6085" lon="1.63253">
        <ele>69.4</ele>
        <time>2020-06-22T08:13:36Z</time>
      </trkpt>
      <trkpt lat="50.60856" lon="1.63256">
        <ele>69.4</ele>
        <time>2020-06-22T08:13:37Z</time>
      </trkpt>
      <trkpt lat="50.60863" lon="1.63259">
        <ele>69.3</ele>
        <time>2020-06-22T08:13:38Z</time>
      </trkpt>
      <trkpt lat="50.60868" lon="1.63262">
        <ele>69.2</ele>
        <time>2020-06-22T08:13:39Z</time>
      </trkpt>
      <trkpt lat="50.60873" lon="1.63263">
        <ele>69.1</ele>
        <time>2020-06-22T08:13:40Z</time>
      </trkpt>
      <trkpt lat="50.60878" lon="1.63266">
        <ele>69</ele>
        <time>2020-06-22T08:13:41Z</time>
      </trkpt>
      <trkpt lat="50.60883" lon="1.63268">
        <ele>68.9</ele>
        <time>2020-06-22T08:13:42Z</time>
      </trkpt>
      <trkpt lat="50.60888" lon="1.6327">
        <ele>68.8</ele>
        <time>2020-06-22T08:13:43Z</time>
      </trkpt>
      <trkpt lat="50.60895" lon="1.63272">
        <ele>68.8</ele>
        <time>2020-06-22T08:13:44Z</time>
      </trkpt>
      <trkpt lat="50.609" lon="1.63274">
        <ele>68.7</ele>
        <time>2020-06-22T08:13:45Z</time>
      </trkpt>
      <trkpt lat="50.60906" lon="1.63276">
        <ele>68.6</ele>
        <time>2020-06-22T08:13:46Z</time>
      </trkpt>
      <trkpt lat="50.6091" lon="1.63276">
        <ele>68.6</ele>
        <time>2020-06-22T08:13:47Z</time>
      </trkpt>
      <trkpt lat="50.60917" lon="1.63276">
        <ele>68.5</ele>
        <time>2020-06-22T08:13:48Z</time>
      </trkpt>
      <trkpt lat="50.60923" lon="1.63276">
        <ele>68.4</ele>
        <time>2020-06-22T08:13:49Z</time>
      </trkpt>
      <trkpt lat="50.60928" lon="1.63276">
        <ele>68.3</ele>
        <time>2020-06-22T08:13:50Z</time>
      </trkpt>
      <trkpt lat="50.60934" lon="1.63278">
        <ele>68.2</ele>
        <time>2020-06-22T08:13:51Z</time>
      </trkpt>
      <trkpt lat="50.60941" lon="1.63278">
        <ele>68.1</ele>
        <time>2020-06-22T08:13:52Z</time>
      </trkpt>
      <trkpt lat="50.60947" lon="1.63279">
        <ele>68</ele>
        <time>2020-06-22T08:13:53Z</time>
      </trkpt>
      <trkpt lat="50.60953" lon="1.63279">
        <ele>67.9</ele>
        <time>2020-06-22T08:13:54Z</time>
      </trkpt>
      <trkpt lat="50.60959" lon="1.6328">
        <ele>67.8</ele>
        <time>2020-06-22T08:13:55Z</time>
      </trkpt>
      <trkpt lat="50.60966" lon="1.63281">
        <ele>67.6</ele>
        <time>2020-06-22T08:13:56Z</time>
      </trkpt>
      <trkpt lat="50.60971" lon="1.63282">
        <ele>67.5</ele>
        <time>2020-06-22T08:13:57Z</time>
      </trkpt>
      <trkpt lat="50.60977" lon="1.63282">
        <ele>67.4</ele>
        <time>2020-06-22T08:13:58Z</time>
      </trkpt>
      <trkpt lat="50.60984" lon="1.63282">
        <ele>67.3</ele>
        <time>2020-06-22T08:13:59Z</time>
      </trkpt>
      <trkpt lat="50.60991" lon="1.63283">
        <ele>67.2</ele>
        <time>2020-06-22T08:14:00Z</time>
      </trkpt>
      <trkpt lat="50.60997" lon="1.63282">
        <ele>67</ele>
        <time>2020-06-22T08:14:01Z</time>
      </trkpt>
      <trkpt lat="50.61004" lon="1.63282">
        <ele>66.9</ele>
        <time>2020-06-22T08:14:02Z</time>
      </trkpt>
      <trkpt lat="50.6101" lon="1.63282">
        <ele>66.8</ele>
        <time>2020-06-22T08:14:03Z</time>
      </trkpt>
      <trkpt lat="50.61016" lon="1.6328">
        <ele>66.7</ele>
        <time>2020-06-22T08:14:04Z</time>
      </trkpt>
      <trkpt lat="50.61022" lon="1.6328">
        <ele>66.5</ele>
        <time>2020-06-22T08:14:05Z</time>
      </trkpt>
      <trkpt lat="50.61029" lon="1.6328">
        <ele>66.4</ele>
        <time>2020-06-22T08:14:06Z</time>
      </trkpt>
      <trkpt lat="50.61033" lon="1.63279">
        <ele>66.4</ele>
        <time>2020-06-22T08:14:07Z</time>
      </trkpt>
      <trkpt lat="50.61039" lon="1.63279">
        <ele>66.3</ele>
        <time>2020-06-22T08:14:08Z</time>
      </trkpt>
      <trkpt lat="50.61047" lon="1.63278">
        <ele>66.2</ele>
        <time>2020-06-22T08:14:09Z</time>
      </trkpt>
      <trkpt lat="50.61053" lon="1.63278">
        <ele>66.2</ele>
        <time>2020-06-22T08:14:10Z</time>
      </trkpt>
      <trkpt lat="50.6106" lon="1.63278">
        <ele>66</ele>
        <time>2020-06-22T08:14:11Z</time>
      </trkpt>
      <trkpt lat="50.61066" lon="1.63277">
        <ele>65.9</ele>
        <time>2020-06-22T08:14:12Z</time>
      </trkpt>
      <trkpt lat="50.61072" lon="1.63277">
        <ele>65.8</ele>
        <time>2020-06-22T08:14:13Z</time>
      </trkpt>
      <trkpt lat="50.61078" lon="1.63276">
        <ele>65.7</ele>
        <time>2020-06-22T08:14:14Z</time>
      </trkpt>
      <trkpt lat="50.61086" lon="1.63275">
        <ele>65.7</ele>
        <time>2020-06-22T08:14:15Z</time>
      </trkpt>
      <trkpt lat="50.61092" lon="1.63273">
        <ele>65.6</ele>
        <time>2020-06-22T08:14:16Z</time>
      </trkpt>
      <trkpt lat="50.61098" lon="1.63273">
        <ele>65.5</ele>
        <time>2020-06-22T08:14:17Z</time>
      </trkpt>
      <trkpt lat="50.61105" lon="1.63271">
        <ele>65.5</ele>
        <time>2020-06-22T08:14:18Z</time>
      </trkpt>
      <trkpt lat="50.61111" lon="1.63269">
        <ele>65.4</ele>
        <time>2020-06-22T08:14:19Z</time>
      </trkpt>
      <trkpt lat="50.61115" lon="1.63265">
        <ele>65.4</ele>
        <time>2020-06-22T08:14:20Z</time>
      </trkpt>
      <trkpt lat="50.6112" lon="1.63259">
        <ele>65.3</ele>
        <time>2020-06-22T08:14:21Z</time>
      </trkpt>
      <trkpt lat="50.61124" lon="1.63255">
        <ele>65.3</ele>
        <time>2020-06-22T08:14:22Z</time>
      </trkpt>
      <trkpt lat="50.61128" lon="1.6325">
        <ele>65.3</ele>
        <time>2020-06-22T08:14:23Z</time>
      </trkpt>
      <trkpt lat="50.61133" lon="1.63246">
        <ele>65.2</ele>
        <time>2020-06-22T08:14:24Z</time>
      </trkpt>
      <trkpt lat="50.61137" lon="1.63242">
        <ele>65.2</ele>
        <time>2020-06-22T08:14:25Z</time>
      </trkpt>
      <trkpt lat="50.61142" lon="1.63242">
        <ele>65.2</ele>
        <time>2020-06-22T08:14:26Z</time>
      </trkpt>
      <trkpt lat="50.61148" lon="1.63243">
        <ele>65.1</ele>
        <time>2020-06-22T08:14:27Z</time>
      </trkpt>
      <trkpt lat="50.61153" lon="1.63246">
        <ele>65</ele>
        <time>2020-06-22T08:14:28Z</time>
      </trkpt>
      <trkpt lat="50.61158" lon="1.6325">
        <ele>64.9</ele>
        <time>2020-06-22T08:14:29Z</time>
      </trkpt>
      <trkpt lat="50.61162" lon="1.63257">
        <ele>64.7</ele>
        <time>2020-06-22T08:14:30Z</time>
      </trkpt>
      <trkpt lat="50.61167" lon="1.63264">
        <ele>64.6</ele>
        <time>2020-06-22T08:14:31Z</time>
      </trkpt>
      <trkpt lat="50.61171" lon="1.63273">
        <ele>64.4</ele>
        <time>2020-06-22T08:14:32Z</time>
      </trkpt>
      <trkpt lat="50.61174" lon="1.63281">
        <ele>64.2</ele>
        <time>2020-06-22T08:14:33Z</time>
      </trkpt>
      <trkpt lat="50.61177" lon="1.6329">
        <ele>64.1</ele>
        <time>2020-06-22T08:14:34Z</time>
      </trkpt>
      <trkpt lat="50.61179" lon="1.63299">
        <ele>63.9</ele>
        <time>2020-06-22T08:14:35Z</time>
      </trkpt>
      <trkpt lat="50.61181" lon="1.63309">
        <ele>63.8</ele>
        <time>2020-06-22T08:14:36Z</time>
      </trkpt>
      <trkpt lat="50.61185" lon="1.63317">
        <ele>63.6</ele>
        <time>2020-06-22T08:14:37Z</time>
      </trkpt>
      <trkpt lat="50.6119" lon="1.63324">
        <ele>63.4</ele>
        <time>2020-06-22T08:14:38Z</time>
      </trkpt>
      <trkpt lat="50.61195" lon="1.63329">
        <ele>63.3</ele>
        <time>2020-06-22T08:14:39Z</time>
      </trkpt>
      <trkpt lat="50.612" lon="1.63335">
        <ele>63.1</ele>
        <time>2020-06-22T08:14:40Z</time>
      </trkpt>
      <trkpt lat="50.61207" lon="1.6334">
        <ele>62.9</ele>
        <time>2020-06-22T08:14:41Z</time>
      </trkpt>
      <trkpt lat="50.61213" lon="1.63345">
        <ele>62.7</ele>
        <time>2020-06-22T08:14:42Z</time>
      </trkpt>
      <trkpt lat="50.61219" lon="1.6335">
        <ele>62.5</ele>
        <time>2020-06-22T08:14:43Z</time>
      </trkpt>
      <trkpt lat="50.61225" lon="1.63355">
        <ele>62.3</ele>
        <time>2020-06-22T08:14:44Z</time>
      </trkpt>
      <trkpt lat="50.61231" lon="1.63359">
        <ele>62.1</ele>
        <time>2020-06-22T08:14:45Z</time>
      </trkpt>
      <trkpt lat="50.61238" lon="1.63362">
        <ele>61.8</ele>
        <time>2020-06-22T08:14:46Z</time>
      </trkpt>
      <trkpt lat="50.61245" lon="1.63366">
        <ele>61.6</ele>
        <time>2020-06-22T08:14:47Z</time>
      </trkpt>
      <trkpt lat="50.61252" lon="1.63368">
        <ele>61.3</ele>
        <time>2020-06-22T08:14:48Z</time>
      </trkpt>
      <trkpt lat="50.6126" lon="1.63369">
        <ele>61.1</ele>
        <time>2020-06-22T08:14:49Z</time>
      </trkpt>
      <trkpt lat="50.61267" lon="1.6337">
        <ele>60.8</ele>
        <time>2020-06-22T08:14:50Z</time>
      </trkpt>
      <trkpt lat="50.61275" lon="1.6337">
        <ele>60.6</ele>
        <time>2020-06-22T08:14:51Z</time>
      </trkpt>
      <trkpt lat="50.61283" lon="1.63371">
        <ele>60.4</ele>
        <time>2020-06-22T08:14:52Z</time>
      </trkpt>
      <trkpt lat="50.6129" lon="1.63369">
        <ele>60.2</ele>
        <time>2020-06-22T08:14:53Z</time>
      </trkpt>
      <trkpt lat="50.61297" lon="1.63365">
        <ele>60.1</ele>
        <time>2020-06-22T08:14:54Z</time>
      </trkpt>
      <trkpt lat="50.61302" lon="1.6336">
        <ele>60</ele>
        <time>2020-06-22T08:14:55Z</time>
      </trkpt>
      <trkpt lat="50.61307" lon="1.63357">
        <ele>59.9</ele>
        <time>2020-06-22T08:14:56Z</time>
      </trkpt>
      <trkpt lat="50.61312" lon="1.63358">
        <ele>59.9</ele>
        <time>2020-06-22T08:14:57Z</time>
      </trkpt>
      <trkpt lat="50.61317" lon="1.63359">
        <ele>59.8</ele>
        <time>2020-06-22T08:14:58Z</time>
      </trkpt>
      <trkpt lat="50.6132" lon="1.63364">
        <ele>59.7</ele>
        <time>2020-06-22T08:14:59Z</time>
      </trkpt>
      <trkpt lat="50.61322" lon="1.63369">
        <ele>59.6</ele>
        <time>2020-06-22T08:15:00Z</time>
      </trkpt>
      <trkpt lat="50.61323" lon="1.63374">
        <ele>59.4</ele>
        <time>2020-06-22T08:15:01Z</time>
      </trkpt>
      <trkpt lat="50.61323" lon="1.63379">
        <ele>59.4</ele>
        <time>2020-06-22T08:15:02Z</time>
      </trkpt>
      <trkpt lat="50.61323" lon="1.63385">
        <ele>59.2</ele>
        <time>2020-06-22T08:15:03Z</time>
      </trkpt>
      <trkpt lat="50.61323" lon="1.63387">
        <ele>59.1</ele>
        <time>2020-06-22T08:15:04Z</time>
      </trkpt>
      <trkpt lat="50.61323" lon="1.63393">
        <ele>59</ele>
        <time>2020-06-22T08:15:05Z</time>
      </trkpt>
      <trkpt lat="50.61323" lon="1.63395">
        <ele>58.9</ele>
        <time>2020-06-22T08:15:06Z</time>
      </trkpt>
      <trkpt lat="50.61325" lon="1.634">
        <ele>58.9</ele>
        <time>2020-06-22T08:15:07Z</time>
      </trkpt>
      <trkpt lat="50.61326" lon="1.63401">
        <ele>58.9</ele>
        <time>2020-06-22T08:15:08Z</time>
      </trkpt>
      <trkpt lat="50.61328" lon="1.63399">
        <ele>58.8</ele>
        <time>2020-06-22T08:15:09Z</time>
      </trkpt>
      <trkpt lat="50.61331" lon="1.63397">
        <ele>58.7</ele>
        <time>2020-06-22T08:15:10Z</time>
      </trkpt>
      <trkpt lat="50.61334" lon="1.63396">
        <ele>58.7</ele>
        <time>2020-06-22T08:15:11Z</time>
      </trkpt>
      <trkpt lat="50.61337" lon="1.63396">
        <ele>58.6</ele>
        <time>2020-06-22T08:15:12Z</time>
      </trkpt>
      <trkpt lat="50.6134" lon="1.63396">
        <ele>58.6</ele>
        <time>2020-06-22T08:15:13Z</time>
      </trkpt>
      <trkpt lat="50.61343" lon="1.63399">
        <ele>58.5</ele>
        <time>2020-06-22T08:15:14Z</time>
      </trkpt>
      <trkpt lat="50.61347" lon="1.63398">
        <ele>58.4</ele>
        <time>2020-06-22T08:15:15Z</time>
      </trkpt>
      <trkpt lat="50.6135" lon="1.63397">
        <ele>58.4</ele>
        <time>2020-06-22T08:15:16Z</time>
      </trkpt>
      <trkpt lat="50.61353" lon="1.63397">
        <ele>58.3</ele>
        <time>2020-06-22T08:15:17Z</time>
      </trkpt>
      <trkpt lat="50.61356" lon="1.63397">
        <ele>58.2</ele>
        <time>2020-06-22T08:15:18Z</time>
      </trkpt>
      <trkpt lat="50.6136" lon="1.63396">
        <ele>58.1</ele>
        <time>2020-06-22T08:15:19Z</time>
      </trkpt>
      <trkpt lat="50.61364" lon="1.63397">
        <ele>58.1</ele>
        <time>2020-06-22T08:15:20Z</time>
      </trkpt>
      <trkpt lat="50.61367" lon="1.63397">
        <ele>58</ele>
        <time>2020-06-22T08:15:21Z</time>
      </trkpt>
      <trkpt lat="50.61371" lon="1.63397">
        <ele>57.9</ele>
        <time>2020-06-22T08:15:22Z</time>
      </trkpt>
      <trkpt lat="50.61374" lon="1.63397">
        <ele>57.9</ele>
        <time>2020-06-22T08:15:23Z</time>
      </trkpt>
      <trkpt lat="50.61378" lon="1.63397">
        <ele>57.8</ele>
        <time>2020-06-22T08:15:24Z</time>
      </trkpt>
      <trkpt lat="50.61381" lon="1.63397">
        <ele>57.8</ele>
        <time>2020-06-22T08:15:25Z</time>
      </trkpt>
      <trkpt lat="50.61385" lon="1.63397">
        <ele>57.7</ele>
        <time>2020-06-22T08:15:26Z</time>
      </trkpt>
      <trkpt lat="50.61388" lon="1.63396">
        <ele>57.6</ele>
        <time>2020-06-22T08:15:27Z</time>
      </trkpt>
      <trkpt lat="50.61392" lon="1.63396">
        <ele>57.6</ele>
        <time>2020-06-22T08:15:28Z</time>
      </trkpt>
      <trkpt lat="50.61395" lon="1.63397">
        <ele>57.5</ele>
        <time>2020-06-22T08:15:29Z</time>
      </trkpt>
      <trkpt lat="50.61398" lon="1.63398">
        <ele>57.5</ele>
        <time>2020-06-22T08:15:30Z</time>
      </trkpt>
      <trkpt lat="50.61401" lon="1.63397">
        <ele>57.5</ele>
        <time>2020-06-22T08:15:31Z</time>
      </trkpt>
      <trkpt lat="50.61402" lon="1.63398">
        <ele>57.4</ele>
        <time>2020-06-22T08:15:32Z</time>
      </trkpt>
      <trkpt lat="50.61403" lon="1.63397">
        <ele>57.4</ele>
        <time>2020-06-22T08:15:33Z</time>
      </trkpt>
      <trkpt lat="50.61402" lon="1.63397">
        <ele>57.4</ele>
        <time>2020-06-22T08:15:34Z</time>
      </trkpt>
      <trkpt lat="50.61402" lon="1.63396">
        <ele>57.4</ele>
        <time>2020-06-22T08:15:35Z</time>
      </trkpt>
      <trkpt lat="50.61401" lon="1.63397">
        <ele>57.4</ele>
        <time>2020-06-22T08:15:36Z</time>
      </trkpt>
      <trkpt lat="50.61401" lon="1.63396">
        <ele>57.4</ele>
        <time>2020-06-22T08:15:37Z</time>
      </trkpt>
      <trkpt lat="50.61402" lon="1.63395">
        <ele>57.4</ele>
        <time>2020-06-22T08:15:38Z</time>
      </trkpt>
      <trkpt lat="50.61403" lon="1.63394">
        <ele>57.4</ele>
        <time>2020-06-22T08:15:39Z</time>
      </trkpt>
      <trkpt lat="50.61403" lon="1.63394">
        <ele>57.4</ele>
        <time>2020-06-22T08:15:40Z</time>
      </trkpt>
      <trkpt lat="50.61404" lon="1.63394">
        <ele>57.4</ele>
        <time>2020-06-22T08:15:41Z</time>
      </trkpt>
      <trkpt lat="50.61404" lon="1.63394">
        <ele>57.4</ele>
        <time>2020-06-22T08:15:42Z</time>
      </trkpt>
      <trkpt lat="50.61403" lon="1.63392">
        <ele>57.3</ele>
        <time>2020-06-22T08:15:43Z</time>
      </trkpt>
      <trkpt lat="50.61403" lon="1.63393">
        <ele>57.3</ele>
        <time>2020-06-22T08:15:44Z</time>
      </trkpt>
      <trkpt lat="50.61403" lon="1.63394">
        <ele>57.3</ele>
        <time>2020-06-22T08:15:45Z</time>
      </trkpt>
      <trkpt lat="50.61403" lon="1.63395">
        <ele>57.3</ele>
        <time>2020-06-22T08:15:46Z</time>
      </trkpt>
      <trkpt lat="50.61404" lon="1.63396">
        <ele>57.3</ele>
        <time>2020-06-22T08:15:47Z</time>
      </trkpt>
      <trkpt lat="50.61404" lon="1.63396">
        <ele>57.3</ele>
        <time>2020-06-22T08:15:48Z</time>
      </trkpt>
      <trkpt lat="50.61404" lon="1.63396">
        <ele>57.3</ele>
        <time>2020-06-22T08:15:49Z</time>
      </trkpt>
      <trkpt lat="50.61404" lon="1.63395">
        <ele>57.3</ele>
        <time>2020-06-22T08:15:50Z</time>
      </trkpt>
      <trkpt lat="50.61404" lon="1.63394">
        <ele>57.3</ele>
        <time>2020-06-22T08:15:51Z</time>
      </trkpt>
      <trkpt lat="50.61417" lon="1.63392">
        <ele>57.1</ele>
        <time>2020-06-22T08:16:51Z</time>
      </trkpt>
      <trkpt lat="50.61421" lon="1.63392">
        <ele>57.1</ele>
        <time>2020-06-22T08:16:52Z</time>
      </trkpt>
      <trkpt lat="50.61424" lon="1.63392">
        <ele>57</ele>
        <time>2020-06-22T08:16:53Z</time>
      </trkpt>
      <trkpt lat="50.61428" lon="1.63392">
        <ele>56.9</ele>
        <time>2020-06-22T08:16:54Z</time>
      </trkpt>
      <trkpt lat="50.61432" lon="1.63392">
        <ele>56.9</ele>
        <time>2020-06-22T08:16:55Z</time>
      </trkpt>
      <trkpt lat="50.61436" lon="1.63391">
        <ele>56.8</ele>
        <time>2020-06-22T08:16:56Z</time>
      </trkpt>
      <trkpt lat="50.61441" lon="1.63391">
        <ele>56.8</ele>
        <time>2020-06-22T08:16:57Z</time>
      </trkpt>
      <trkpt lat="50.61445" lon="1.63391">
        <ele>56.7</ele>
        <time>2020-06-22T08:16:58Z</time>
      </trkpt>
      <trkpt lat="50.6145" lon="1.63391">
        <ele>56.7</ele>
        <time>2020-06-22T08:16:59Z</time>
      </trkpt>
      <trkpt lat="50.61454" lon="1.63392">
        <ele>56.6</ele>
        <time>2020-06-22T08:17:00Z</time>
      </trkpt>
      <trkpt lat="50.61458" lon="1.63393">
        <ele>56.6</ele>
        <time>2020-06-22T08:17:01Z</time>
      </trkpt>
      <trkpt lat="50.61463" lon="1.63393">
        <ele>56.5</ele>
        <time>2020-06-22T08:17:02Z</time>
      </trkpt>
      <trkpt lat="50.61467" lon="1.63393">
        <ele>56.5</ele>
        <time>2020-06-22T08:17:03Z</time>
      </trkpt>
      <trkpt lat="50.61472" lon="1.63393">
        <ele>56.4</ele>
        <time>2020-06-22T08:17:04Z</time>
      </trkpt>
      <trkpt lat="50.61476" lon="1.63394">
        <ele>56.3</ele>
        <time>2020-06-22T08:17:05Z</time>
      </trkpt>
      <trkpt lat="50.61481" lon="1.63394">
        <ele>56.3</ele>
        <time>2020-06-22T08:17:06Z</time>
      </trkpt>
      <trkpt lat="50.61486" lon="1.63393">
        <ele>56.2</ele>
        <time>2020-06-22T08:17:07Z</time>
      </trkpt>
      <trkpt lat="50.61491" lon="1.63394">
        <ele>56.1</ele>
        <time>2020-06-22T08:17:08Z</time>
      </trkpt>
      <trkpt lat="50.61497" lon="1.63394">
        <ele>56.1</ele>
        <time>2020-06-22T08:17:09Z</time>
      </trkpt>
      <trkpt lat="50.61502" lon="1.63395">
        <ele>56</ele>
        <time>2020-06-22T08:17:10Z</time>
      </trkpt>
      <trkpt lat="50.61507" lon="1.63395">
        <ele>56</ele>
        <time>2020-06-22T08:17:11Z</time>
      </trkpt>
      <trkpt lat="50.61512" lon="1.63394">
        <ele>55.9</ele>
        <time>2020-06-22T08:17:12Z</time>
      </trkpt>
      <trkpt lat="50.61517" lon="1.63393">
        <ele>55.9</ele>
        <time>2020-06-22T08:17:13Z</time>
      </trkpt>
      <trkpt lat="50.61521" lon="1.63395">
        <ele>55.8</ele>
        <time>2020-06-22T08:17:14Z</time>
      </trkpt>
      <trkpt lat="50.61526" lon="1.63397">
        <ele>55.8</ele>
        <time>2020-06-22T08:17:15Z</time>
      </trkpt>
      <trkpt lat="50.61529" lon="1.63398">
        <ele>55.7</ele>
        <time>2020-06-22T08:17:16Z</time>
      </trkpt>
      <trkpt lat="50.61533" lon="1.63399">
        <ele>55.6</ele>
        <time>2020-06-22T08:17:17Z</time>
      </trkpt>
      <trkpt lat="50.61537" lon="1.63399">
        <ele>55.5</ele>
        <time>2020-06-22T08:17:18Z</time>
      </trkpt>
      <trkpt lat="50.6154" lon="1.63398">
        <ele>55.5</ele>
        <time>2020-06-22T08:17:19Z</time>
      </trkpt>
      <trkpt lat="50.61544" lon="1.63398">
        <ele>55.4</ele>
        <time>2020-06-22T08:17:20Z</time>
      </trkpt>
      <trkpt lat="50.61548" lon="1.63399">
        <ele>55.3</ele>
        <time>2020-06-22T08:17:21Z</time>
      </trkpt>
      <trkpt lat="50.61552" lon="1.63401">
        <ele>55.2</ele>
        <time>2020-06-22T08:17:22Z</time>
      </trkpt>
      <trkpt lat="50.61557" lon="1.63402">
        <ele>55.1</ele>
        <time>2020-06-22T08:17:23Z</time>
      </trkpt>
      <trkpt lat="50.61562" lon="1.63403">
        <ele>55</ele>
        <time>2020-06-22T08:17:24Z</time>
      </trkpt>
      <trkpt lat="50.61567" lon="1.63404">
        <ele>54.9</ele>
        <time>2020-06-22T08:17:25Z</time>
      </trkpt>
      <trkpt lat="50.61572" lon="1.63405">
        <ele>54.8</ele>
        <time>2020-06-22T08:17:26Z</time>
      </trkpt>
      <trkpt lat="50.61577" lon="1.63406">
        <ele>54.7</ele>
        <time>2020-06-22T08:17:27Z</time>
      </trkpt>
      <trkpt lat="50.61582" lon="1.63406">
        <ele>54.6</ele>
        <time>2020-06-22T08:17:28Z</time>
      </trkpt>
      <trkpt lat="50.61588" lon="1.63407">
        <ele>54.5</ele>
        <time>2020-06-22T08:17:29Z</time>
      </trkpt>
      <trkpt lat="50.61594" lon="1.63408">
        <ele>54.3</ele>
        <time>2020-06-22T08:17:30Z</time>
      </trkpt>
      <trkpt lat="50.616" lon="1.63409">
        <ele>54.2</ele>
        <time>2020-06-22T08:17:31Z</time>
      </trkpt>
      <trkpt lat="50.61606" lon="1.6341">
        <ele>54.1</ele>
        <time>2020-06-22T08:17:32Z</time>
      </trkpt>
      <trkpt lat="50.61612" lon="1.63413">
        <ele>54</ele>
        <time>2020-06-22T08:17:33Z</time>
      </trkpt>
      <trkpt lat="50.61619" lon="1.63414">
        <ele>53.8</ele>
        <time>2020-06-22T08:17:34Z</time>
      </trkpt>
      <trkpt lat="50.61626" lon="1.63414">
        <ele>53.6</ele>
        <time>2020-06-22T08:17:35Z</time>
      </trkpt>
      <trkpt lat="50.61633" lon="1.63415">
        <ele>53.5</ele>
        <time>2020-06-22T08:17:36Z</time>
      </trkpt>
      <trkpt lat="50.6164" lon="1.63415">
        <ele>53.3</ele>
        <time>2020-06-22T08:17:37Z</time>
      </trkpt>
      <trkpt lat="50.61647" lon="1.63416">
        <ele>53.1</ele>
        <time>2020-06-22T08:17:38Z</time>
      </trkpt>
      <trkpt lat="50.61654" lon="1.63419">
        <ele>52.9</ele>
        <time>2020-06-22T08:17:39Z</time>
      </trkpt>
      <trkpt lat="50.61662" lon="1.63422">
        <ele>52.6</ele>
        <time>2020-06-22T08:17:40Z</time>
      </trkpt>
      <trkpt lat="50.61669" lon="1.63425">
        <ele>52.4</ele>
        <time>2020-06-22T08:17:41Z</time>
      </trkpt>
      <trkpt lat="50.61677" lon="1.63429">
        <ele>52.2</ele>
        <time>2020-06-22T08:17:42Z</time>
      </trkpt>
      <trkpt lat="50.61684" lon="1.63431">
        <ele>51.9</ele>
        <time>2020-06-22T08:17:43Z</time>
      </trkpt>
      <trkpt lat="50.61691" lon="1.63434">
        <ele>51.7</ele>
        <time>2020-06-22T08:17:44Z</time>
      </trkpt>
      <trkpt lat="50.61699" lon="1.63436">
        <ele>51.5</ele>
        <time>2020-06-22T08:17:45Z</time>
      </trkpt>
      <trkpt lat="50.61706" lon="1.63439">
        <ele>51.3</ele>
        <time>2020-06-22T08:17:46Z</time>
      </trkpt>
      <trkpt lat="50.61714" lon="1.63442">
        <ele>51.1</ele>
        <time>2020-06-22T08:17:47Z</time>
      </trkpt>
      <trkpt lat="50.61721" lon="1.63446">
        <ele>50.9</ele>
        <time>2020-06-22T08:17:48Z</time>
      </trkpt>
      <trkpt lat="50.61728" lon="1.63449">
        <ele>50.7</ele>
        <time>2020-06-22T08:17:49Z</time>
      </trkpt>
      <trkpt lat="50.61735" lon="1.63452">
        <ele>50.5</ele>
        <time>2020-06-22T08:17:50Z</time>
      </trkpt>
      <trkpt lat="50.61743" lon="1.63455">
        <ele>50.3</ele>
        <time>2020-06-22T08:17:51Z</time>
      </trkpt>
      <trkpt lat="50.6175" lon="1.63458">
        <ele>50.2</ele>
        <time>2020-06-22T08:17:52Z</time>
      </trkpt>
      <trkpt lat="50.61757" lon="1.63461">
        <ele>50.1</ele>
        <time>2020-06-22T08:17:53Z</time>
      </trkpt>
      <trkpt lat="50.61764" lon="1.63465">
        <ele>50</ele>
        <time>2020-06-22T08:17:54Z</time>
      </trkpt>
      <trkpt lat="50.61771" lon="1.63469">
        <ele>49.9</ele>
        <time>2020-06-22T08:17:55Z</time>
      </trkpt>
      <trkpt lat="50.61778" lon="1.63472">
        <ele>49.7</ele>
        <time>2020-06-22T08:17:56Z</time>
      </trkpt>
      <trkpt lat="50.61784" lon="1.63475">
        <ele>49.7</ele>
        <time>2020-06-22T08:17:57Z</time>
      </trkpt>
      <trkpt lat="50.61791" lon="1.63479">
        <ele>49.7</ele>
        <time>2020-06-22T08:17:58Z</time>
      </trkpt>
      <trkpt lat="50.61797" lon="1.63482">
        <ele>49.6</ele>
        <time>2020-06-22T08:17:59Z</time>
      </trkpt>
      <trkpt lat="50.61804" lon="1.63485">
        <ele>49.6</ele>
        <time>2020-06-22T08:18:00Z</time>
      </trkpt>
      <trkpt lat="50.61811" lon="1.63488">
        <ele>49.5</ele>
        <time>2020-06-22T08:18:01Z</time>
      </trkpt>
      <trkpt lat="50.61818" lon="1.63491">
        <ele>49.5</ele>
        <time>2020-06-22T08:18:02Z</time>
      </trkpt>
      <trkpt lat="50.61825" lon="1.63493">
        <ele>49.5</ele>
        <time>2020-06-22T08:18:03Z</time>
      </trkpt>
      <trkpt lat="50.61832" lon="1.63496">
        <ele>49.5</ele>
        <time>2020-06-22T08:18:04Z</time>
      </trkpt>
      <trkpt lat="50.61839" lon="1.63499">
        <ele>49.5</ele>
        <time>2020-06-22T08:18:05Z</time>
      </trkpt>
      <trkpt lat="50.61846" lon="1.63503">
        <ele>49.4</ele>
        <time>2020-06-22T08:18:06Z</time>
      </trkpt>
      <trkpt lat="50.61853" lon="1.63507">
        <ele>49.4</ele>
        <time>2020-06-22T08:18:07Z</time>
      </trkpt>
      <trkpt lat="50.61859" lon="1.6351">
        <ele>49.4</ele>
        <time>2020-06-22T08:18:08Z</time>
      </trkpt>
      <trkpt lat="50.61866" lon="1.63514">
        <ele>49.3</ele>
        <time>2020-06-22T08:18:09Z</time>
      </trkpt>
      <trkpt lat="50.61872" lon="1.63518">
        <ele>49.3</ele>
        <time>2020-06-22T08:18:10Z</time>
      </trkpt>
      <trkpt lat="50.61878" lon="1.63523">
        <ele>49.3</ele>
        <time>2020-06-22T08:18:11Z</time>
      </trkpt>
      <trkpt lat="50.61885" lon="1.63527">
        <ele>49.2</ele>
        <time>2020-06-22T08:18:12Z</time>
      </trkpt>
      <trkpt lat="50.61891" lon="1.63531">
        <ele>49.2</ele>
        <time>2020-06-22T08:18:13Z</time>
      </trkpt>
      <trkpt lat="50.61897" lon="1.63535">
        <ele>49.2</ele>
        <time>2020-06-22T08:18:14Z</time>
      </trkpt>
      <trkpt lat="50.61903" lon="1.63539">
        <ele>49.1</ele>
        <time>2020-06-22T08:18:15Z</time>
      </trkpt>
      <trkpt lat="50.61909" lon="1.63543">
        <ele>49.1</ele>
        <time>2020-06-22T08:18:16Z</time>
      </trkpt>
      <trkpt lat="50.61915" lon="1.63547">
        <ele>49.1</ele>
        <time>2020-06-22T08:18:17Z</time>
      </trkpt>
      <trkpt lat="50.61921" lon="1.63552">
        <ele>49</ele>
        <time>2020-06-22T08:18:18Z</time>
      </trkpt>
      <trkpt lat="50.61927" lon="1.63555">
        <ele>48.9</ele>
        <time>2020-06-22T08:18:19Z</time>
      </trkpt>
      <trkpt lat="50.61934" lon="1.63559">
        <ele>48.8</ele>
        <time>2020-06-22T08:18:20Z</time>
      </trkpt>
      <trkpt lat="50.6194" lon="1.63564">
        <ele>48.8</ele>
        <time>2020-06-22T08:18:21Z</time>
      </trkpt>
      <trkpt lat="50.61946" lon="1.63569">
        <ele>48.7</ele>
        <time>2020-06-22T08:18:22Z</time>
      </trkpt>
      <trkpt lat="50.61952" lon="1.63574">
        <ele>48.7</ele>
        <time>2020-06-22T08:18:23Z</time>
      </trkpt>
      <trkpt lat="50.61958" lon="1.63579">
        <ele>48.6</ele>
        <time>2020-06-22T08:18:24Z</time>
      </trkpt>
      <trkpt lat="50.61964" lon="1.63584">
        <ele>48.5</ele>
        <time>2020-06-22T08:18:25Z</time>
      </trkpt>
      <trkpt lat="50.6197" lon="1.63588">
        <ele>48.4</ele>
        <time>2020-06-22T08:18:26Z</time>
      </trkpt>
      <trkpt lat="50.61977" lon="1.63593">
        <ele>48.3</ele>
        <time>2020-06-22T08:18:27Z</time>
      </trkpt>
      <trkpt lat="50.61983" lon="1.63597">
        <ele>48.2</ele>
        <time>2020-06-22T08:18:28Z</time>
      </trkpt>
      <trkpt lat="50.6199" lon="1.63602">
        <ele>48.1</ele>
        <time>2020-06-22T08:18:29Z</time>
      </trkpt>
      <trkpt lat="50.61996" lon="1.63606">
        <ele>48</ele>
        <time>2020-06-22T08:18:30Z</time>
      </trkpt>
      <trkpt lat="50.62003" lon="1.6361">
        <ele>47.9</ele>
        <time>2020-06-22T08:18:31Z</time>
      </trkpt>
      <trkpt lat="50.62009" lon="1.63616">
        <ele>47.8</ele>
        <time>2020-06-22T08:18:32Z</time>
      </trkpt>
      <trkpt lat="50.62015" lon="1.63622">
        <ele>47.7</ele>
        <time>2020-06-22T08:18:33Z</time>
      </trkpt>
      <trkpt lat="50.62021" lon="1.63628">
        <ele>47.7</ele>
        <time>2020-06-22T08:18:34Z</time>
      </trkpt>
      <trkpt lat="50.62027" lon="1.63632">
        <ele>47.6</ele>
        <time>2020-06-22T08:18:35Z</time>
      </trkpt>
      <trkpt lat="50.62033" lon="1.63638">
        <ele>47.5</ele>
        <time>2020-06-22T08:18:36Z</time>
      </trkpt>
      <trkpt lat="50.6204" lon="1.63642">
        <ele>47.5</ele>
        <time>2020-06-22T08:18:37Z</time>
      </trkpt>
      <trkpt lat="50.62047" lon="1.63647">
        <ele>47.4</ele>
        <time>2020-06-22T08:18:38Z</time>
      </trkpt>
      <trkpt lat="50.62053" lon="1.63653">
        <ele>47.4</ele>
        <time>2020-06-22T08:18:39Z</time>
      </trkpt>
      <trkpt lat="50.6206" lon="1.63657">
        <ele>47.3</ele>
        <time>2020-06-22T08:18:40Z</time>
      </trkpt>
      <trkpt lat="50.62067" lon="1.63661">
        <ele>47.3</ele>
        <time>2020-06-22T08:18:41Z</time>
      </trkpt>
      <trkpt lat="50.62074" lon="1.63666">
        <ele>47.2</ele>
        <time>2020-06-22T08:18:42Z</time>
      </trkpt>
      <trkpt lat="50.62081" lon="1.63671">
        <ele>47.2</ele>
        <time>2020-06-22T08:18:43Z</time>
      </trkpt>
      <trkpt lat="50.62088" lon="1.63676">
        <ele>47.1</ele>
        <time>2020-06-22T08:18:44Z</time>
      </trkpt>
      <trkpt lat="50.62095" lon="1.63681">
        <ele>47.1</ele>
        <time>2020-06-22T08:18:45Z</time>
      </trkpt>
      <trkpt lat="50.62101" lon="1.63686">
        <ele>47</ele>
        <time>2020-06-22T08:18:46Z</time>
      </trkpt>
      <trkpt lat="50.62107" lon="1.63691">
        <ele>47</ele>
        <time>2020-06-22T08:18:47Z</time>
      </trkpt>
      <trkpt lat="50.62113" lon="1.63695">
        <ele>46.9</ele>
        <time>2020-06-22T08:18:48Z</time>
      </trkpt>
      <trkpt lat="50.62117" lon="1.63699">
        <ele>46.9</ele>
        <time>2020-06-22T08:18:49Z</time>
      </trkpt>
      <trkpt lat="50.62121" lon="1.63702">
        <ele>46.9</ele>
        <time>2020-06-22T08:18:50Z</time>
      </trkpt>
      <trkpt lat="50.62124" lon="1.63705">
        <ele>46.9</ele>
        <time>2020-06-22T08:18:51Z</time>
      </trkpt>
      <trkpt lat="50.62127" lon="1.63707">
        <ele>46.9</ele>
        <time>2020-06-22T08:18:52Z</time>
      </trkpt>
      <trkpt lat="50.62129" lon="1.63709">
        <ele>46.9</ele>
        <time>2020-06-22T08:18:53Z</time>
      </trkpt>
      <trkpt lat="50.6213" lon="1.6371">
        <ele>46.9</ele>
        <time>2020-06-22T08:18:54Z</time>
      </trkpt>
      <trkpt lat="50.62131" lon="1.63711">
        <ele>46.9</ele>
        <time>2020-06-22T08:18:55Z</time>
      </trkpt>
      <trkpt lat="50.62132" lon="1.63711">
        <ele>46.9</ele>
        <time>2020-06-22T08:18:56Z</time>
      </trkpt>
      <trkpt lat="50.62133" lon="1.63712">
        <ele>46.9</ele>
        <time>2020-06-22T08:18:57Z</time>
      </trkpt>
      <trkpt lat="50.62137" lon="1.63713">
        <ele>46.8</ele>
        <time>2020-06-22T08:18:58Z</time>
      </trkpt>
      <trkpt lat="50.62138" lon="1.63714">
        <ele>46.8</ele>
        <time>2020-06-22T08:18:59Z</time>
      </trkpt>
      <trkpt lat="50.62141" lon="1.63716">
        <ele>46.8</ele>
        <time>2020-06-22T08:19:00Z</time>
      </trkpt>
      <trkpt lat="50.62145" lon="1.63718">
        <ele>46.8</ele>
        <time>2020-06-22T08:19:01Z</time>
      </trkpt>
      <trkpt lat="50.62148" lon="1.63719">
        <ele>46.7</ele>
        <time>2020-06-22T08:19:02Z</time>
      </trkpt>
      <trkpt lat="50.62151" lon="1.6372">
        <ele>46.7</ele>
        <time>2020-06-22T08:19:03Z</time>
      </trkpt>
      <trkpt lat="50.62155" lon="1.6372">
        <ele>46.6</ele>
        <time>2020-06-22T08:19:04Z</time>
      </trkpt>
      <trkpt lat="50.6216" lon="1.63721">
        <ele>46.6</ele>
        <time>2020-06-22T08:19:05Z</time>
      </trkpt>
      <trkpt lat="50.62165" lon="1.63723">
        <ele>46.5</ele>
        <time>2020-06-22T08:19:06Z</time>
      </trkpt>
      <trkpt lat="50.62169" lon="1.63725">
        <ele>46.4</ele>
        <time>2020-06-22T08:19:07Z</time>
      </trkpt>
      <trkpt lat="50.62174" lon="1.63726">
        <ele>46.4</ele>
        <time>2020-06-22T08:19:08Z</time>
      </trkpt>
      <trkpt lat="50.62178" lon="1.63728">
        <ele>46.3</ele>
        <time>2020-06-22T08:19:09Z</time>
      </trkpt>
      <trkpt lat="50.62182" lon="1.63729">
        <ele>46.3</ele>
        <time>2020-06-22T08:19:10Z</time>
      </trkpt>
      <trkpt lat="50.62186" lon="1.63731">
        <ele>46.2</ele>
        <time>2020-06-22T08:19:11Z</time>
      </trkpt>
      <trkpt lat="50.62191" lon="1.63733">
        <ele>46.2</ele>
        <time>2020-06-22T08:19:12Z</time>
      </trkpt>
      <trkpt lat="50.62195" lon="1.63735">
        <ele>46.1</ele>
        <time>2020-06-22T08:19:13Z</time>
      </trkpt>
      <trkpt lat="50.62199" lon="1.63738">
        <ele>46.1</ele>
        <time>2020-06-22T08:19:14Z</time>
      </trkpt>
      <trkpt lat="50.62204" lon="1.63741">
        <ele>46</ele>
        <time>2020-06-22T08:19:15Z</time>
      </trkpt>
      <trkpt lat="50.62209" lon="1.63743">
        <ele>45.9</ele>
        <time>2020-06-22T08:19:16Z</time>
      </trkpt>
      <trkpt lat="50.62215" lon="1.63745">
        <ele>45.8</ele>
        <time>2020-06-22T08:19:17Z</time>
      </trkpt>
      <trkpt lat="50.6222" lon="1.63747">
        <ele>45.7</ele>
        <time>2020-06-22T08:19:18Z</time>
      </trkpt>
      <trkpt lat="50.62225" lon="1.6375">
        <ele>45.6</ele>
        <time>2020-06-22T08:19:19Z</time>
      </trkpt>
      <trkpt lat="50.6223" lon="1.63753">
        <ele>45.5</ele>
        <time>2020-06-22T08:19:20Z</time>
      </trkpt>
      <trkpt lat="50.62235" lon="1.63754">
        <ele>45.4</ele>
        <time>2020-06-22T08:19:21Z</time>
      </trkpt>
      <trkpt lat="50.62241" lon="1.63757">
        <ele>45.3</ele>
        <time>2020-06-22T08:19:22Z</time>
      </trkpt>
      <trkpt lat="50.62246" lon="1.63759">
        <ele>45.2</ele>
        <time>2020-06-22T08:19:23Z</time>
      </trkpt>
      <trkpt lat="50.62251" lon="1.63761">
        <ele>45.1</ele>
        <time>2020-06-22T08:19:24Z</time>
      </trkpt>
      <trkpt lat="50.62257" lon="1.63764">
        <ele>45</ele>
        <time>2020-06-22T08:19:25Z</time>
      </trkpt>
      <trkpt lat="50.62262" lon="1.63766">
        <ele>44.9</ele>
        <time>2020-06-22T08:19:26Z</time>
      </trkpt>
      <trkpt lat="50.62268" lon="1.63767">
        <ele>44.8</ele>
        <time>2020-06-22T08:19:27Z</time>
      </trkpt>
      <trkpt lat="50.62274" lon="1.63769">
        <ele>44.7</ele>
        <time>2020-06-22T08:19:28Z</time>
      </trkpt>
      <trkpt lat="50.6228" lon="1.63771">
        <ele>44.6</ele>
        <time>2020-06-22T08:19:29Z</time>
      </trkpt>
      <trkpt lat="50.62286" lon="1.63773">
        <ele>44.5</ele>
        <time>2020-06-22T08:19:30Z</time>
      </trkpt>
      <trkpt lat="50.62293" lon="1.63774">
        <ele>44.4</ele>
        <time>2020-06-22T08:19:31Z</time>
      </trkpt>
      <trkpt lat="50.62299" lon="1.63777">
        <ele>44.3</ele>
        <time>2020-06-22T08:19:32Z</time>
      </trkpt>
      <trkpt lat="50.62304" lon="1.63777">
        <ele>44.2</ele>
        <time>2020-06-22T08:19:33Z</time>
      </trkpt>
      <trkpt lat="50.62311" lon="1.63778">
        <ele>44.1</ele>
        <time>2020-06-22T08:19:34Z</time>
      </trkpt>
      <trkpt lat="50.62317" lon="1.63778">
        <ele>44</ele>
        <time>2020-06-22T08:19:35Z</time>
      </trkpt>
      <trkpt lat="50.62323" lon="1.63778">
        <ele>43.9</ele>
        <time>2020-06-22T08:19:36Z</time>
      </trkpt>
      <trkpt lat="50.62329" lon="1.63778">
        <ele>43.7</ele>
        <time>2020-06-22T08:19:37Z</time>
      </trkpt>
      <trkpt lat="50.62335" lon="1.63778">
        <ele>43.6</ele>
        <time>2020-06-22T08:19:38Z</time>
      </trkpt>
      <trkpt lat="50.62342" lon="1.6378">
        <ele>43.4</ele>
        <time>2020-06-22T08:19:39Z</time>
      </trkpt>
      <trkpt lat="50.62348" lon="1.63781">
        <ele>43.3</ele>
        <time>2020-06-22T08:19:40Z</time>
      </trkpt>
      <trkpt lat="50.62354" lon="1.63782">
        <ele>43.2</ele>
        <time>2020-06-22T08:19:41Z</time>
      </trkpt>
      <trkpt lat="50.6236" lon="1.63783">
        <ele>43.2</ele>
        <time>2020-06-22T08:19:42Z</time>
      </trkpt>
      <trkpt lat="50.62367" lon="1.63784">
        <ele>43.1</ele>
        <time>2020-06-22T08:19:43Z</time>
      </trkpt>
      <trkpt lat="50.62373" lon="1.63785">
        <ele>43</ele>
        <time>2020-06-22T08:19:44Z</time>
      </trkpt>
      <trkpt lat="50.62379" lon="1.63787">
        <ele>43</ele>
        <time>2020-06-22T08:19:45Z</time>
      </trkpt>
      <trkpt lat="50.62386" lon="1.63787">
        <ele>42.9</ele>
        <time>2020-06-22T08:19:46Z</time>
      </trkpt>
      <trkpt lat="50.62392" lon="1.63788">
        <ele>42.8</ele>
        <time>2020-06-22T08:19:47Z</time>
      </trkpt>
      <trkpt lat="50.62399" lon="1.63789">
        <ele>42.6</ele>
        <time>2020-06-22T08:19:48Z</time>
      </trkpt>
      <trkpt lat="50.62405" lon="1.63791">
        <ele>42.5</ele>
        <time>2020-06-22T08:19:49Z</time>
      </trkpt>
      <trkpt lat="50.62411" lon="1.63792">
        <ele>42.4</ele>
        <time>2020-06-22T08:19:50Z</time>
      </trkpt>
      <trkpt lat="50.62418" lon="1.63792">
        <ele>42.3</ele>
        <time>2020-06-22T08:19:51Z</time>
      </trkpt>
      <trkpt lat="50.62424" lon="1.63793">
        <ele>42.2</ele>
        <time>2020-06-22T08:19:52Z</time>
      </trkpt>
      <trkpt lat="50.6243" lon="1.63794">
        <ele>42.2</ele>
        <time>2020-06-22T08:19:53Z</time>
      </trkpt>
      <trkpt lat="50.62437" lon="1.63794">
        <ele>42.1</ele>
        <time>2020-06-22T08:19:54Z</time>
      </trkpt>
      <trkpt lat="50.62443" lon="1.63795">
        <ele>41.9</ele>
        <time>2020-06-22T08:19:55Z</time>
      </trkpt>
      <trkpt lat="50.62449" lon="1.63796">
        <ele>41.8</ele>
        <time>2020-06-22T08:19:56Z</time>
      </trkpt>
      <trkpt lat="50.62455" lon="1.63797">
        <ele>41.7</ele>
        <time>2020-06-22T08:19:57Z</time>
      </trkpt>
      <trkpt lat="50.62461" lon="1.63798">
        <ele>41.6</ele>
        <time>2020-06-22T08:19:58Z</time>
      </trkpt>
      <trkpt lat="50.62467" lon="1.638">
        <ele>41.5</ele>
        <time>2020-06-22T08:19:59Z</time>
      </trkpt>
      <trkpt lat="50.62474" lon="1.63802">
        <ele>41.3</ele>
        <time>2020-06-22T08:20:00Z</time>
      </trkpt>
      <trkpt lat="50.62479" lon="1.63805">
        <ele>41.2</ele>
        <time>2020-06-22T08:20:01Z</time>
      </trkpt>
      <trkpt lat="50.62485" lon="1.63809">
        <ele>40.9</ele>
        <time>2020-06-22T08:20:02Z</time>
      </trkpt>
      <trkpt lat="50.6249" lon="1.6381">
        <ele>40.9</ele>
        <time>2020-06-22T08:20:03Z</time>
      </trkpt>
      <trkpt lat="50.62495" lon="1.63812">
        <ele>40.9</ele>
        <time>2020-06-22T08:20:04Z</time>
      </trkpt>
      <trkpt lat="50.62501" lon="1.63809">
        <ele>41.1</ele>
        <time>2020-06-22T08:20:05Z</time>
      </trkpt>
      <trkpt lat="50.62506" lon="1.63809">
        <ele>41</ele>
        <time>2020-06-22T08:20:06Z</time>
      </trkpt>
      <trkpt lat="50.62512" lon="1.63811">
        <ele>40.9</ele>
        <time>2020-06-22T08:20:07Z</time>
      </trkpt>
      <trkpt lat="50.62518" lon="1.63815">
        <ele>40.8</ele>
        <time>2020-06-22T08:20:08Z</time>
      </trkpt>
      <trkpt lat="50.62523" lon="1.63817">
        <ele>40.8</ele>
        <time>2020-06-22T08:20:09Z</time>
      </trkpt>
      <trkpt lat="50.62529" lon="1.63819">
        <ele>40.7</ele>
        <time>2020-06-22T08:20:10Z</time>
      </trkpt>
      <trkpt lat="50.62534" lon="1.6382">
        <ele>40.6</ele>
        <time>2020-06-22T08:20:11Z</time>
      </trkpt>
      <trkpt lat="50.6254" lon="1.63821">
        <ele>40.6</ele>
        <time>2020-06-22T08:20:12Z</time>
      </trkpt>
      <trkpt lat="50.62546" lon="1.63824">
        <ele>40.5</ele>
        <time>2020-06-22T08:20:13Z</time>
      </trkpt>
      <trkpt lat="50.62552" lon="1.63825">
        <ele>40.5</ele>
        <time>2020-06-22T08:20:14Z</time>
      </trkpt>
      <trkpt lat="50.62557" lon="1.63829">
        <ele>40.4</ele>
        <time>2020-06-22T08:20:15Z</time>
      </trkpt>
      <trkpt lat="50.62563" lon="1.6383">
        <ele>40.3</ele>
        <time>2020-06-22T08:20:16Z</time>
      </trkpt>
      <trkpt lat="50.62568" lon="1.63833">
        <ele>40.3</ele>
        <time>2020-06-22T08:20:17Z</time>
      </trkpt>
      <trkpt lat="50.62574" lon="1.63835">
        <ele>40.2</ele>
        <time>2020-06-22T08:20:18Z</time>
      </trkpt>
      <trkpt lat="50.6258" lon="1.63836">
        <ele>40.1</ele>
        <time>2020-06-22T08:20:19Z</time>
      </trkpt>
      <trkpt lat="50.62585" lon="1.63841">
        <ele>40</ele>
        <time>2020-06-22T08:20:20Z</time>
      </trkpt>
      <trkpt lat="50.62591" lon="1.63844">
        <ele>39.9</ele>
        <time>2020-06-22T08:20:21Z</time>
      </trkpt>
      <trkpt lat="50.62597" lon="1.63846">
        <ele>39.8</ele>
        <time>2020-06-22T08:20:22Z</time>
      </trkpt>
      <trkpt lat="50.62603" lon="1.63849">
        <ele>39.7</ele>
        <time>2020-06-22T08:20:23Z</time>
      </trkpt>
      <trkpt lat="50.6261" lon="1.63852">
        <ele>39.6</ele>
        <time>2020-06-22T08:20:24Z</time>
      </trkpt>
      <trkpt lat="50.62616" lon="1.63857">
        <ele>39.5</ele>
        <time>2020-06-22T08:20:25Z</time>
      </trkpt>
      <trkpt lat="50.62622" lon="1.6386">
        <ele>39.4</ele>
        <time>2020-06-22T08:20:26Z</time>
      </trkpt>
      <trkpt lat="50.62629" lon="1.63863">
        <ele>39.3</ele>
        <time>2020-06-22T08:20:27Z</time>
      </trkpt>
      <trkpt lat="50.62635" lon="1.63867">
        <ele>39.3</ele>
        <time>2020-06-22T08:20:28Z</time>
      </trkpt>
      <trkpt lat="50.62641" lon="1.63871">
        <ele>39.1</ele>
        <time>2020-06-22T08:20:29Z</time>
      </trkpt>
      <trkpt lat="50.62647" lon="1.63875">
        <ele>39</ele>
        <time>2020-06-22T08:20:30Z</time>
      </trkpt>
      <trkpt lat="50.62654" lon="1.63879">
        <ele>38.9</ele>
        <time>2020-06-22T08:20:31Z</time>
      </trkpt>
      <trkpt lat="50.6266" lon="1.63883">
        <ele>38.8</ele>
        <time>2020-06-22T08:20:32Z</time>
      </trkpt>
      <trkpt lat="50.62667" lon="1.63887">
        <ele>38.8</ele>
        <time>2020-06-22T08:20:33Z</time>
      </trkpt>
      <trkpt lat="50.62673" lon="1.63892">
        <ele>38.7</ele>
        <time>2020-06-22T08:20:34Z</time>
      </trkpt>
      <trkpt lat="50.62679" lon="1.63897">
        <ele>38.6</ele>
        <time>2020-06-22T08:20:35Z</time>
      </trkpt>
      <trkpt lat="50.62685" lon="1.63901">
        <ele>38.5</ele>
        <time>2020-06-22T08:20:36Z</time>
      </trkpt>
      <trkpt lat="50.62692" lon="1.63906">
        <ele>38.4</ele>
        <time>2020-06-22T08:20:37Z</time>
      </trkpt>
      <trkpt lat="50.62698" lon="1.63911">
        <ele>38.3</ele>
        <time>2020-06-22T08:20:38Z</time>
      </trkpt>
      <trkpt lat="50.62704" lon="1.63917">
        <ele>38.2</ele>
        <time>2020-06-22T08:20:39Z</time>
      </trkpt>
      <trkpt lat="50.6271" lon="1.63921">
        <ele>38.1</ele>
        <time>2020-06-22T08:20:40Z</time>
      </trkpt>
      <trkpt lat="50.62716" lon="1.63926">
        <ele>38</ele>
        <time>2020-06-22T08:20:41Z</time>
      </trkpt>
      <trkpt lat="50.62722" lon="1.6393">
        <ele>37.9</ele>
        <time>2020-06-22T08:20:42Z</time>
      </trkpt>
      <trkpt lat="50.62728" lon="1.63935">
        <ele>37.8</ele>
        <time>2020-06-22T08:20:43Z</time>
      </trkpt>
      <trkpt lat="50.62735" lon="1.6394">
        <ele>37.7</ele>
        <time>2020-06-22T08:20:44Z</time>
      </trkpt>
      <trkpt lat="50.62741" lon="1.63945">
        <ele>37.6</ele>
        <time>2020-06-22T08:20:45Z</time>
      </trkpt>
      <trkpt lat="50.62747" lon="1.6395">
        <ele>37.5</ele>
        <time>2020-06-22T08:20:46Z</time>
      </trkpt>
      <trkpt lat="50.62753" lon="1.63956">
        <ele>37.4</ele>
        <time>2020-06-22T08:20:47Z</time>
      </trkpt>
      <trkpt lat="50.6276" lon="1.63961">
        <ele>37.1</ele>
        <time>2020-06-22T08:20:48Z</time>
      </trkpt>
      <trkpt lat="50.62766" lon="1.63967">
        <ele>37.1</ele>
        <time>2020-06-22T08:20:49Z</time>
      </trkpt>
      <trkpt lat="50.62772" lon="1.63972">
        <ele>37</ele>
        <time>2020-06-22T08:20:50Z</time>
      </trkpt>
      <trkpt lat="50.62778" lon="1.63978">
        <ele>36.9</ele>
        <time>2020-06-22T08:20:51Z</time>
      </trkpt>
      <trkpt lat="50.62784" lon="1.63983">
        <ele>36.9</ele>
        <time>2020-06-22T08:20:52Z</time>
      </trkpt>
      <trkpt lat="50.6279" lon="1.63988">
        <ele>36.8</ele>
        <time>2020-06-22T08:20:53Z</time>
      </trkpt>
      <trkpt lat="50.62796" lon="1.63993">
        <ele>36.7</ele>
        <time>2020-06-22T08:20:54Z</time>
      </trkpt>
      <trkpt lat="50.62802" lon="1.63998">
        <ele>36.7</ele>
        <time>2020-06-22T08:20:55Z</time>
      </trkpt>
      <trkpt lat="50.62807" lon="1.64003">
        <ele>36.6</ele>
        <time>2020-06-22T08:20:56Z</time>
      </trkpt>
      <trkpt lat="50.62813" lon="1.64007">
        <ele>36.5</ele>
        <time>2020-06-22T08:20:57Z</time>
      </trkpt>
      <trkpt lat="50.62819" lon="1.64013">
        <ele>36.4</ele>
        <time>2020-06-22T08:20:58Z</time>
      </trkpt>
      <trkpt lat="50.62825" lon="1.64017">
        <ele>36.3</ele>
        <time>2020-06-22T08:20:59Z</time>
      </trkpt>
      <trkpt lat="50.62831" lon="1.64022">
        <ele>36.2</ele>
        <time>2020-06-22T08:21:00Z</time>
      </trkpt>
      <trkpt lat="50.62836" lon="1.64029">
        <ele>36.1</ele>
        <time>2020-06-22T08:21:01Z</time>
      </trkpt>
      <trkpt lat="50.6284" lon="1.64035">
        <ele>36</ele>
        <time>2020-06-22T08:21:02Z</time>
      </trkpt>
      <trkpt lat="50.62844" lon="1.6404">
        <ele>35.9</ele>
        <time>2020-06-22T08:21:03Z</time>
      </trkpt>
      <trkpt lat="50.62848" lon="1.64043">
        <ele>35.8</ele>
        <time>2020-06-22T08:21:04Z</time>
      </trkpt>
      <trkpt lat="50.62852" lon="1.64046">
        <ele>35.6</ele>
        <time>2020-06-22T08:21:05Z</time>
      </trkpt>
      <trkpt lat="50.62856" lon="1.64049">
        <ele>35.6</ele>
        <time>2020-06-22T08:21:06Z</time>
      </trkpt>
      <trkpt lat="50.6286" lon="1.64052">
        <ele>35.5</ele>
        <time>2020-06-22T08:21:07Z</time>
      </trkpt>
      <trkpt lat="50.62865" lon="1.64055">
        <ele>35.5</ele>
        <time>2020-06-22T08:21:08Z</time>
      </trkpt>
      <trkpt lat="50.62869" lon="1.64057">
        <ele>35.5</ele>
        <time>2020-06-22T08:21:09Z</time>
      </trkpt>
      <trkpt lat="50.62874" lon="1.64059">
        <ele>35.4</ele>
        <time>2020-06-22T08:21:10Z</time>
      </trkpt>
      <trkpt lat="50.62879" lon="1.64061">
        <ele>35.4</ele>
        <time>2020-06-22T08:21:11Z</time>
      </trkpt>
      <trkpt lat="50.62883" lon="1.64064">
        <ele>35.3</ele>
        <time>2020-06-22T08:21:12Z</time>
      </trkpt>
      <trkpt lat="50.62887" lon="1.64067">
        <ele>35.3</ele>
        <time>2020-06-22T08:21:13Z</time>
      </trkpt>
      <trkpt lat="50.62891" lon="1.64071">
        <ele>35.2</ele>
        <time>2020-06-22T08:21:14Z</time>
      </trkpt>
      <trkpt lat="50.62894" lon="1.64076">
        <ele>35.1</ele>
        <time>2020-06-22T08:21:15Z</time>
      </trkpt>
      <trkpt lat="50.62899" lon="1.64081">
        <ele>35.1</ele>
        <time>2020-06-22T08:21:16Z</time>
      </trkpt>
      <trkpt lat="50.62904" lon="1.64085">
        <ele>35</ele>
        <time>2020-06-22T08:21:17Z</time>
      </trkpt>
      <trkpt lat="50.62908" lon="1.6409">
        <ele>34.9</ele>
        <time>2020-06-22T08:21:18Z</time>
      </trkpt>
      <trkpt lat="50.62913" lon="1.64096">
        <ele>34.9</ele>
        <time>2020-06-22T08:21:19Z</time>
      </trkpt>
      <trkpt lat="50.62918" lon="1.641">
        <ele>34.8</ele>
        <time>2020-06-22T08:21:20Z</time>
      </trkpt>
      <trkpt lat="50.62923" lon="1.64105">
        <ele>34.7</ele>
        <time>2020-06-22T08:21:21Z</time>
      </trkpt>
      <trkpt lat="50.62928" lon="1.64111">
        <ele>34.7</ele>
        <time>2020-06-22T08:21:22Z</time>
      </trkpt>
      <trkpt lat="50.62933" lon="1.64117">
        <ele>34.6</ele>
        <time>2020-06-22T08:21:23Z</time>
      </trkpt>
      <trkpt lat="50.62938" lon="1.64122">
        <ele>34.6</ele>
        <time>2020-06-22T08:21:24Z</time>
      </trkpt>
      <trkpt lat="50.62943" lon="1.64128">
        <ele>34.5</ele>
        <time>2020-06-22T08:21:25Z</time>
      </trkpt>
      <trkpt lat="50.62948" lon="1.64134">
        <ele>34.4</ele>
        <time>2020-06-22T08:21:26Z</time>
      </trkpt>
      <trkpt lat="50.62953" lon="1.6414">
        <ele>34.4</ele>
        <time>2020-06-22T08:21:27Z</time>
      </trkpt>
      <trkpt lat="50.62959" lon="1.64146">
        <ele>34.3</ele>
        <time>2020-06-22T08:21:28Z</time>
      </trkpt>
      <trkpt lat="50.62964" lon="1.64152">
        <ele>34.2</ele>
        <time>2020-06-22T08:21:29Z</time>
      </trkpt>
      <trkpt lat="50.62969" lon="1.64159">
        <ele>34.1</ele>
        <time>2020-06-22T08:21:30Z</time>
      </trkpt>
      <trkpt lat="50.62974" lon="1.64165">
        <ele>34.1</ele>
        <time>2020-06-22T08:21:31Z</time>
      </trkpt>
      <trkpt lat="50.62979" lon="1.6417">
        <ele>34</ele>
        <time>2020-06-22T08:21:32Z</time>
      </trkpt>
      <trkpt lat="50.62985" lon="1.64176">
        <ele>34</ele>
        <time>2020-06-22T08:21:33Z</time>
      </trkpt>
      <trkpt lat="50.6299" lon="1.64183">
        <ele>33.9</ele>
        <time>2020-06-22T08:21:34Z</time>
      </trkpt>
      <trkpt lat="50.62995" lon="1.64189">
        <ele>33.9</ele>
        <time>2020-06-22T08:21:35Z</time>
      </trkpt>
      <trkpt lat="50.63" lon="1.64195">
        <ele>33.9</ele>
        <time>2020-06-22T08:21:36Z</time>
      </trkpt>
      <trkpt lat="50.63005" lon="1.64202">
        <ele>33.9</ele>
        <time>2020-06-22T08:21:37Z</time>
      </trkpt>
      <trkpt lat="50.6301" lon="1.64209">
        <ele>33.9</ele>
        <time>2020-06-22T08:21:38Z</time>
      </trkpt>
      <trkpt lat="50.63014" lon="1.64215">
        <ele>33.8</ele>
        <time>2020-06-22T08:21:39Z</time>
      </trkpt>
      <trkpt lat="50.63019" lon="1.64222">
        <ele>33.8</ele>
        <time>2020-06-22T08:21:40Z</time>
      </trkpt>
      <trkpt lat="50.63024" lon="1.64229">
        <ele>33.7</ele>
        <time>2020-06-22T08:21:41Z</time>
      </trkpt>
      <trkpt lat="50.63028" lon="1.64236">
        <ele>33.6</ele>
        <time>2020-06-22T08:21:42Z</time>
      </trkpt>
      <trkpt lat="50.63033" lon="1.64243">
        <ele>33.6</ele>
        <time>2020-06-22T08:21:43Z</time>
      </trkpt>
      <trkpt lat="50.63037" lon="1.6425">
        <ele>33.5</ele>
        <time>2020-06-22T08:21:44Z</time>
      </trkpt>
      <trkpt lat="50.63042" lon="1.64257">
        <ele>33.4</ele>
        <time>2020-06-22T08:21:45Z</time>
      </trkpt>
      <trkpt lat="50.63046" lon="1.64263">
        <ele>33.3</ele>
        <time>2020-06-22T08:21:46Z</time>
      </trkpt>
      <trkpt lat="50.63051" lon="1.6427">
        <ele>33.3</ele>
        <time>2020-06-22T08:21:47Z</time>
      </trkpt>
      <trkpt lat="50.63056" lon="1.64277">
        <ele>33.2</ele>
        <time>2020-06-22T08:21:48Z</time>
      </trkpt>
      <trkpt lat="50.6306" lon="1.64283">
        <ele>33.1</ele>
        <time>2020-06-22T08:21:49Z</time>
      </trkpt>
      <trkpt lat="50.63065" lon="1.6429">
        <ele>33</ele>
        <time>2020-06-22T08:21:50Z</time>
      </trkpt>
      <trkpt lat="50.6307" lon="1.64296">
        <ele>32.9</ele>
        <time>2020-06-22T08:21:51Z</time>
      </trkpt>
      <trkpt lat="50.63074" lon="1.64302">
        <ele>32.8</ele>
        <time>2020-06-22T08:21:52Z</time>
      </trkpt>
      <trkpt lat="50.63079" lon="1.64309">
        <ele>32.7</ele>
        <time>2020-06-22T08:21:53Z</time>
      </trkpt>
      <trkpt lat="50.63084" lon="1.64316">
        <ele>32.6</ele>
        <time>2020-06-22T08:21:54Z</time>
      </trkpt>
      <trkpt lat="50.63088" lon="1.64322">
        <ele>32.5</ele>
        <time>2020-06-22T08:21:55Z</time>
      </trkpt>
      <trkpt lat="50.63093" lon="1.64328">
        <ele>32.5</ele>
        <time>2020-06-22T08:21:56Z</time>
      </trkpt>
      <trkpt lat="50.63097" lon="1.64334">
        <ele>32.4</ele>
        <time>2020-06-22T08:21:57Z</time>
      </trkpt>
      <trkpt lat="50.63102" lon="1.6434">
        <ele>32.4</ele>
        <time>2020-06-22T08:21:58Z</time>
      </trkpt>
      <trkpt lat="50.63107" lon="1.64346">
        <ele>32.3</ele>
        <time>2020-06-22T08:21:59Z</time>
      </trkpt>
      <trkpt lat="50.63111" lon="1.64352">
        <ele>32.3</ele>
        <time>2020-06-22T08:22:00Z</time>
      </trkpt>
      <trkpt lat="50.63116" lon="1.64358">
        <ele>32.2</ele>
        <time>2020-06-22T08:22:01Z</time>
      </trkpt>
      <trkpt lat="50.6312" lon="1.64364">
        <ele>32.1</ele>
        <time>2020-06-22T08:22:02Z</time>
      </trkpt>
      <trkpt lat="50.63125" lon="1.6437">
        <ele>32</ele>
        <time>2020-06-22T08:22:03Z</time>
      </trkpt>
      <trkpt lat="50.6313" lon="1.64376">
        <ele>32</ele>
        <time>2020-06-22T08:22:04Z</time>
      </trkpt>
      <trkpt lat="50.63134" lon="1.64382">
        <ele>31.9</ele>
        <time>2020-06-22T08:22:05Z</time>
      </trkpt>
      <trkpt lat="50.6314" lon="1.64387">
        <ele>31.8</ele>
        <time>2020-06-22T08:22:06Z</time>
      </trkpt>
      <trkpt lat="50.63144" lon="1.64393">
        <ele>31.8</ele>
        <time>2020-06-22T08:22:07Z</time>
      </trkpt>
      <trkpt lat="50.6315" lon="1.64397">
        <ele>31.7</ele>
        <time>2020-06-22T08:22:08Z</time>
      </trkpt>
      <trkpt lat="50.63155" lon="1.64402">
        <ele>31.6</ele>
        <time>2020-06-22T08:22:09Z</time>
      </trkpt>
      <trkpt lat="50.63161" lon="1.64407">
        <ele>31.5</ele>
        <time>2020-06-22T08:22:10Z</time>
      </trkpt>
      <trkpt lat="50.63166" lon="1.64412">
        <ele>31.4</ele>
        <time>2020-06-22T08:22:11Z</time>
      </trkpt>
      <trkpt lat="50.63172" lon="1.64416">
        <ele>31.3</ele>
        <time>2020-06-22T08:22:12Z</time>
      </trkpt>
      <trkpt lat="50.63177" lon="1.6442">
        <ele>31.2</ele>
        <time>2020-06-22T08:22:13Z</time>
      </trkpt>
      <trkpt lat="50.63182" lon="1.64425">
        <ele>31.1</ele>
        <time>2020-06-22T08:22:14Z</time>
      </trkpt>
      <trkpt lat="50.63187" lon="1.6443">
        <ele>31</ele>
        <time>2020-06-22T08:22:15Z</time>
      </trkpt>
      <trkpt lat="50.63192" lon="1.64435">
        <ele>31</ele>
        <time>2020-06-22T08:22:16Z</time>
      </trkpt>
      <trkpt lat="50.63197" lon="1.64439">
        <ele>30.9</ele>
        <time>2020-06-22T08:22:17Z</time>
      </trkpt>
      <trkpt lat="50.63202" lon="1.64444">
        <ele>30.8</ele>
        <time>2020-06-22T08:22:18Z</time>
      </trkpt>
      <trkpt lat="50.63208" lon="1.64448">
        <ele>30.7</ele>
        <time>2020-06-22T08:22:19Z</time>
      </trkpt>
      <trkpt lat="50.63213" lon="1.64453">
        <ele>30.6</ele>
        <time>2020-06-22T08:22:20Z</time>
      </trkpt>
      <trkpt lat="50.63218" lon="1.6446">
        <ele>30.5</ele>
        <time>2020-06-22T08:22:21Z</time>
      </trkpt>
      <trkpt lat="50.63224" lon="1.64464">
        <ele>30.4</ele>
        <time>2020-06-22T08:22:22Z</time>
      </trkpt>
      <trkpt lat="50.63231" lon="1.64467">
        <ele>30.4</ele>
        <time>2020-06-22T08:22:23Z</time>
      </trkpt>
      <trkpt lat="50.63237" lon="1.6447">
        <ele>30.3</ele>
        <time>2020-06-22T08:22:24Z</time>
      </trkpt>
      <trkpt lat="50.63243" lon="1.64473">
        <ele>30.3</ele>
        <time>2020-06-22T08:22:25Z</time>
      </trkpt>
      <trkpt lat="50.63248" lon="1.64477">
        <ele>30.2</ele>
        <time>2020-06-22T08:22:26Z</time>
      </trkpt>
      <trkpt lat="50.63252" lon="1.6448">
        <ele>30.2</ele>
        <time>2020-06-22T08:22:27Z</time>
      </trkpt>
      <trkpt lat="50.63256" lon="1.64484">
        <ele>30.2</ele>
        <time>2020-06-22T08:22:28Z</time>
      </trkpt>
      <trkpt lat="50.63258" lon="1.64488">
        <ele>30.1</ele>
        <time>2020-06-22T08:22:29Z</time>
      </trkpt>
      <trkpt lat="50.63261" lon="1.64492">
        <ele>30.1</ele>
        <time>2020-06-22T08:22:30Z</time>
      </trkpt>
      <trkpt lat="50.63264" lon="1.64496">
        <ele>30</ele>
        <time>2020-06-22T08:22:31Z</time>
      </trkpt>
      <trkpt lat="50.63267" lon="1.64496">
        <ele>29.9</ele>
        <time>2020-06-22T08:22:32Z</time>
      </trkpt>
      <trkpt lat="50.63272" lon="1.64497">
        <ele>29.9</ele>
        <time>2020-06-22T08:22:33Z</time>
      </trkpt>
      <trkpt lat="50.63276" lon="1.64497">
        <ele>29.8</ele>
        <time>2020-06-22T08:22:34Z</time>
      </trkpt>
      <trkpt lat="50.6328" lon="1.64499">
        <ele>29.8</ele>
        <time>2020-06-22T08:22:35Z</time>
      </trkpt>
      <trkpt lat="50.63285" lon="1.645">
        <ele>29.8</ele>
        <time>2020-06-22T08:22:36Z</time>
      </trkpt>
      <trkpt lat="50.63288" lon="1.64501">
        <ele>29.8</ele>
        <time>2020-06-22T08:22:37Z</time>
      </trkpt>
      <trkpt lat="50.63292" lon="1.64502">
        <ele>29.8</ele>
        <time>2020-06-22T08:22:38Z</time>
      </trkpt>
      <trkpt lat="50.63296" lon="1.64504">
        <ele>29.8</ele>
        <time>2020-06-22T08:22:39Z</time>
      </trkpt>
      <trkpt lat="50.63301" lon="1.64505">
        <ele>29.8</ele>
        <time>2020-06-22T08:22:40Z</time>
      </trkpt>
      <trkpt lat="50.63306" lon="1.64506">
        <ele>29.8</ele>
        <time>2020-06-22T08:22:41Z</time>
      </trkpt>
      <trkpt lat="50.6331" lon="1.64507">
        <ele>29.8</ele>
        <time>2020-06-22T08:22:42Z</time>
      </trkpt>
      <trkpt lat="50.63315" lon="1.64505">
        <ele>29.8</ele>
        <time>2020-06-22T08:22:43Z</time>
      </trkpt>
      <trkpt lat="50.6332" lon="1.64503">
        <ele>29.9</ele>
        <time>2020-06-22T08:22:44Z</time>
      </trkpt>
      <trkpt lat="50.63325" lon="1.64504">
        <ele>29.9</ele>
        <time>2020-06-22T08:22:45Z</time>
      </trkpt>
      <trkpt lat="50.6333" lon="1.64504">
        <ele>29.9</ele>
        <time>2020-06-22T08:22:46Z</time>
      </trkpt>
      <trkpt lat="50.63334" lon="1.64502">
        <ele>29.9</ele>
        <time>2020-06-22T08:22:47Z</time>
      </trkpt>
      <trkpt lat="50.63339" lon="1.64503">
        <ele>29.9</ele>
        <time>2020-06-22T08:22:48Z</time>
      </trkpt>
      <trkpt lat="50.63345" lon="1.64503">
        <ele>30</ele>
        <time>2020-06-22T08:22:49Z</time>
      </trkpt>
      <trkpt lat="50.63351" lon="1.64505">
        <ele>30</ele>
        <time>2020-06-22T08:22:50Z</time>
      </trkpt>
      <trkpt lat="50.63356" lon="1.64505">
        <ele>30.1</ele>
        <time>2020-06-22T08:22:51Z</time>
      </trkpt>
      <trkpt lat="50.63362" lon="1.64504">
        <ele>30.1</ele>
        <time>2020-06-22T08:22:52Z</time>
      </trkpt>
      <trkpt lat="50.63367" lon="1.64505">
        <ele>30.2</ele>
        <time>2020-06-22T08:22:53Z</time>
      </trkpt>
      <trkpt lat="50.63374" lon="1.64504">
        <ele>30.3</ele>
        <time>2020-06-22T08:22:54Z</time>
      </trkpt>
      <trkpt lat="50.6338" lon="1.64504">
        <ele>30.3</ele>
        <time>2020-06-22T08:22:55Z</time>
      </trkpt>
      <trkpt lat="50.63385" lon="1.64503">
        <ele>30.4</ele>
        <time>2020-06-22T08:22:56Z</time>
      </trkpt>
      <trkpt lat="50.63391" lon="1.64501">
        <ele>30.5</ele>
        <time>2020-06-22T08:22:57Z</time>
      </trkpt>
      <trkpt lat="50.63396" lon="1.64501">
        <ele>30.5</ele>
        <time>2020-06-22T08:22:58Z</time>
      </trkpt>
      <trkpt lat="50.63401" lon="1.64501">
        <ele>30.6</ele>
        <time>2020-06-22T08:22:59Z</time>
      </trkpt>
      <trkpt lat="50.63408" lon="1.645">
        <ele>30.7</ele>
        <time>2020-06-22T08:23:00Z</time>
      </trkpt>
      <trkpt lat="50.63415" lon="1.64498">
        <ele>30.8</ele>
        <time>2020-06-22T08:23:01Z</time>
      </trkpt>
      <trkpt lat="50.63422" lon="1.64496">
        <ele>30.9</ele>
        <time>2020-06-22T08:23:02Z</time>
      </trkpt>
      <trkpt lat="50.63428" lon="1.64495">
        <ele>31</ele>
        <time>2020-06-22T08:23:03Z</time>
      </trkpt>
      <trkpt lat="50.63434" lon="1.64493">
        <ele>31</ele>
        <time>2020-06-22T08:23:04Z</time>
      </trkpt>
      <trkpt lat="50.6344" lon="1.64493">
        <ele>31.1</ele>
        <time>2020-06-22T08:23:05Z</time>
      </trkpt>
      <trkpt lat="50.63446" lon="1.64492">
        <ele>31.1</ele>
        <time>2020-06-22T08:23:06Z</time>
      </trkpt>
      <trkpt lat="50.63451" lon="1.64491">
        <ele>31.1</ele>
        <time>2020-06-22T08:23:07Z</time>
      </trkpt>
      <trkpt lat="50.63458" lon="1.6449">
        <ele>31.1</ele>
        <time>2020-06-22T08:23:08Z</time>
      </trkpt>
      <trkpt lat="50.63464" lon="1.64488">
        <ele>31.1</ele>
        <time>2020-06-22T08:23:09Z</time>
      </trkpt>
      <trkpt lat="50.6347" lon="1.64486">
        <ele>31.1</ele>
        <time>2020-06-22T08:23:10Z</time>
      </trkpt>
      <trkpt lat="50.63476" lon="1.64485">
        <ele>31.1</ele>
        <time>2020-06-22T08:23:11Z</time>
      </trkpt>
      <trkpt lat="50.63482" lon="1.64484">
        <ele>31</ele>
        <time>2020-06-22T08:23:12Z</time>
      </trkpt>
      <trkpt lat="50.63488" lon="1.64484">
        <ele>31</ele>
        <time>2020-06-22T08:23:13Z</time>
      </trkpt>
      <trkpt lat="50.63495" lon="1.64483">
        <ele>30.9</ele>
        <time>2020-06-22T08:23:14Z</time>
      </trkpt>
      <trkpt lat="50.63501" lon="1.64483">
        <ele>30.9</ele>
        <time>2020-06-22T08:23:15Z</time>
      </trkpt>
      <trkpt lat="50.63507" lon="1.64482">
        <ele>30.9</ele>
        <time>2020-06-22T08:23:16Z</time>
      </trkpt>
      <trkpt lat="50.63513" lon="1.64482">
        <ele>30.8</ele>
        <time>2020-06-22T08:23:17Z</time>
      </trkpt>
      <trkpt lat="50.63519" lon="1.64481">
        <ele>30.8</ele>
        <time>2020-06-22T08:23:18Z</time>
      </trkpt>
      <trkpt lat="50.63525" lon="1.6448">
        <ele>30.7</ele>
        <time>2020-06-22T08:23:19Z</time>
      </trkpt>
      <trkpt lat="50.63531" lon="1.64479">
        <ele>30.6</ele>
        <time>2020-06-22T08:23:20Z</time>
      </trkpt>
      <trkpt lat="50.63539" lon="1.64479">
        <ele>30.4</ele>
        <time>2020-06-22T08:23:21Z</time>
      </trkpt>
      <trkpt lat="50.63545" lon="1.64478">
        <ele>30.3</ele>
        <time>2020-06-22T08:23:22Z</time>
      </trkpt>
      <trkpt lat="50.63552" lon="1.64477">
        <ele>30.1</ele>
        <time>2020-06-22T08:23:23Z</time>
      </trkpt>
      <trkpt lat="50.63557" lon="1.64477">
        <ele>30</ele>
        <time>2020-06-22T08:23:24Z</time>
      </trkpt>
      <trkpt lat="50.63564" lon="1.64478">
        <ele>29.9</ele>
        <time>2020-06-22T08:23:25Z</time>
      </trkpt>
      <trkpt lat="50.63571" lon="1.64478">
        <ele>29.8</ele>
        <time>2020-06-22T08:23:26Z</time>
      </trkpt>
      <trkpt lat="50.63578" lon="1.64477">
        <ele>29.6</ele>
        <time>2020-06-22T08:23:27Z</time>
      </trkpt>
      <trkpt lat="50.63583" lon="1.64475">
        <ele>29.6</ele>
        <time>2020-06-22T08:23:28Z</time>
      </trkpt>
      <trkpt lat="50.63588" lon="1.64473">
        <ele>29.5</ele>
        <time>2020-06-22T08:23:29Z</time>
      </trkpt>
      <trkpt lat="50.63595" lon="1.64472">
        <ele>29.4</ele>
        <time>2020-06-22T08:23:30Z</time>
      </trkpt>
      <trkpt lat="50.63601" lon="1.64471">
        <ele>29.3</ele>
        <time>2020-06-22T08:23:31Z</time>
      </trkpt>
      <trkpt lat="50.63607" lon="1.64471">
        <ele>29.1</ele>
        <time>2020-06-22T08:23:32Z</time>
      </trkpt>
      <trkpt lat="50.63614" lon="1.6447">
        <ele>29</ele>
        <time>2020-06-22T08:23:33Z</time>
      </trkpt>
      <trkpt lat="50.63621" lon="1.64469">
        <ele>28.8</ele>
        <time>2020-06-22T08:23:34Z</time>
      </trkpt>
      <trkpt lat="50.63628" lon="1.64468">
        <ele>28.7</ele>
        <time>2020-06-22T08:23:35Z</time>
      </trkpt>
      <trkpt lat="50.63634" lon="1.64468">
        <ele>28.5</ele>
        <time>2020-06-22T08:23:36Z</time>
      </trkpt>
      <trkpt lat="50.63641" lon="1.64467">
        <ele>28.4</ele>
        <time>2020-06-22T08:23:37Z</time>
      </trkpt>
      <trkpt lat="50.63647" lon="1.64466">
        <ele>28.4</ele>
        <time>2020-06-22T08:23:38Z</time>
      </trkpt>
      <trkpt lat="50.63653" lon="1.64465">
        <ele>28.3</ele>
        <time>2020-06-22T08:23:39Z</time>
      </trkpt>
      <trkpt lat="50.63659" lon="1.64464">
        <ele>28.2</ele>
        <time>2020-06-22T08:23:40Z</time>
      </trkpt>
      <trkpt lat="50.63665" lon="1.64463">
        <ele>28.2</ele>
        <time>2020-06-22T08:23:41Z</time>
      </trkpt>
      <trkpt lat="50.63672" lon="1.64463">
        <ele>28.1</ele>
        <time>2020-06-22T08:23:42Z</time>
      </trkpt>
      <trkpt lat="50.63678" lon="1.64461">
        <ele>28.1</ele>
        <time>2020-06-22T08:23:43Z</time>
      </trkpt>
      <trkpt lat="50.63685" lon="1.64459">
        <ele>28.1</ele>
        <time>2020-06-22T08:23:44Z</time>
      </trkpt>
      <trkpt lat="50.63691" lon="1.64458">
        <ele>28.1</ele>
        <time>2020-06-22T08:23:45Z</time>
      </trkpt>
      <trkpt lat="50.63697" lon="1.64457">
        <ele>28.2</ele>
        <time>2020-06-22T08:23:46Z</time>
      </trkpt>
      <trkpt lat="50.63703" lon="1.64456">
        <ele>28.2</ele>
        <time>2020-06-22T08:23:47Z</time>
      </trkpt>
      <trkpt lat="50.6371" lon="1.64455">
        <ele>28.3</ele>
        <time>2020-06-22T08:23:48Z</time>
      </trkpt>
      <trkpt lat="50.63716" lon="1.64454">
        <ele>28.4</ele>
        <time>2020-06-22T08:23:49Z</time>
      </trkpt>
      <trkpt lat="50.63721" lon="1.64453">
        <ele>28.5</ele>
        <time>2020-06-22T08:23:50Z</time>
      </trkpt>
      <trkpt lat="50.63728" lon="1.64452">
        <ele>28.7</ele>
        <time>2020-06-22T08:23:51Z</time>
      </trkpt>
      <trkpt lat="50.63733" lon="1.64452">
        <ele>28.8</ele>
        <time>2020-06-22T08:23:52Z</time>
      </trkpt>
      <trkpt lat="50.63739" lon="1.64451">
        <ele>29</ele>
        <time>2020-06-22T08:23:53Z</time>
      </trkpt>
      <trkpt lat="50.63743" lon="1.64451">
        <ele>29.1</ele>
        <time>2020-06-22T08:23:54Z</time>
      </trkpt>
      <trkpt lat="50.63749" lon="1.6445">
        <ele>29.3</ele>
        <time>2020-06-22T08:23:55Z</time>
      </trkpt>
      <trkpt lat="50.63755" lon="1.64448">
        <ele>29.5</ele>
        <time>2020-06-22T08:23:56Z</time>
      </trkpt>
      <trkpt lat="50.63761" lon="1.64448">
        <ele>29.7</ele>
        <time>2020-06-22T08:23:57Z</time>
      </trkpt>
      <trkpt lat="50.63766" lon="1.64447">
        <ele>29.9</ele>
        <time>2020-06-22T08:23:58Z</time>
      </trkpt>
      <trkpt lat="50.63771" lon="1.64446">
        <ele>30.1</ele>
        <time>2020-06-22T08:23:59Z</time>
      </trkpt>
      <trkpt lat="50.63776" lon="1.64445">
        <ele>30.3</ele>
        <time>2020-06-22T08:24:00Z</time>
      </trkpt>
      <trkpt lat="50.63782" lon="1.64444">
        <ele>30.5</ele>
        <time>2020-06-22T08:24:01Z</time>
      </trkpt>
      <trkpt lat="50.63788" lon="1.64443">
        <ele>30.7</ele>
        <time>2020-06-22T08:24:02Z</time>
      </trkpt>
      <trkpt lat="50.63794" lon="1.64442">
        <ele>30.9</ele>
        <time>2020-06-22T08:24:03Z</time>
      </trkpt>
      <trkpt lat="50.63801" lon="1.64441">
        <ele>31.1</ele>
        <time>2020-06-22T08:24:04Z</time>
      </trkpt>
      <trkpt lat="50.63806" lon="1.64439">
        <ele>31.3</ele>
        <time>2020-06-22T08:24:05Z</time>
      </trkpt>
      <trkpt lat="50.63811" lon="1.64439">
        <ele>31.5</ele>
        <time>2020-06-22T08:24:06Z</time>
      </trkpt>
      <trkpt lat="50.63817" lon="1.64439">
        <ele>31.7</ele>
        <time>2020-06-22T08:24:07Z</time>
      </trkpt>
      <trkpt lat="50.63822" lon="1.64438">
        <ele>31.9</ele>
        <time>2020-06-22T08:24:08Z</time>
      </trkpt>
      <trkpt lat="50.63826" lon="1.64438">
        <ele>32.1</ele>
        <time>2020-06-22T08:24:09Z</time>
      </trkpt>
      <trkpt lat="50.63831" lon="1.64437">
        <ele>32.3</ele>
        <time>2020-06-22T08:24:10Z</time>
      </trkpt>
      <trkpt lat="50.63836" lon="1.64436">
        <ele>32.5</ele>
        <time>2020-06-22T08:24:11Z</time>
      </trkpt>
      <trkpt lat="50.6384" lon="1.64436">
        <ele>32.7</ele>
        <time>2020-06-22T08:24:12Z</time>
      </trkpt>
      <trkpt lat="50.63844" lon="1.64435">
        <ele>32.8</ele>
        <time>2020-06-22T08:24:13Z</time>
      </trkpt>
      <trkpt lat="50.6385" lon="1.64434">
        <ele>33</ele>
        <time>2020-06-22T08:24:14Z</time>
      </trkpt>
      <trkpt lat="50.63854" lon="1.64434">
        <ele>33.2</ele>
        <time>2020-06-22T08:24:15Z</time>
      </trkpt>
      <trkpt lat="50.63858" lon="1.64432">
        <ele>33.3</ele>
        <time>2020-06-22T08:24:16Z</time>
      </trkpt>
      <trkpt lat="50.63863" lon="1.64432">
        <ele>33.5</ele>
        <time>2020-06-22T08:24:17Z</time>
      </trkpt>
      <trkpt lat="50.6387" lon="1.64431">
        <ele>33.7</ele>
        <time>2020-06-22T08:24:18Z</time>
      </trkpt>
      <trkpt lat="50.63876" lon="1.6443">
        <ele>33.9</ele>
        <time>2020-06-22T08:24:19Z</time>
      </trkpt>
      <trkpt lat="50.63882" lon="1.64428">
        <ele>34.1</ele>
        <time>2020-06-22T08:24:20Z</time>
      </trkpt>
      <trkpt lat="50.63887" lon="1.64427">
        <ele>34.2</ele>
        <time>2020-06-22T08:24:21Z</time>
      </trkpt>
      <trkpt lat="50.63892" lon="1.64425">
        <ele>34.4</ele>
        <time>2020-06-22T08:24:22Z</time>
      </trkpt>
      <trkpt lat="50.63897" lon="1.64424">
        <ele>34.6</ele>
        <time>2020-06-22T08:24:23Z</time>
      </trkpt>
      <trkpt lat="50.63902" lon="1.64423">
        <ele>34.7</ele>
        <time>2020-06-22T08:24:24Z</time>
      </trkpt>
      <trkpt lat="50.63907" lon="1.64422">
        <ele>34.9</ele>
        <time>2020-06-22T08:24:25Z</time>
      </trkpt>
      <trkpt lat="50.63912" lon="1.64421">
        <ele>35.1</ele>
        <time>2020-06-22T08:24:26Z</time>
      </trkpt>
      <trkpt lat="50.63917" lon="1.6442">
        <ele>35.2</ele>
        <time>2020-06-22T08:24:27Z</time>
      </trkpt>
      <trkpt lat="50.63921" lon="1.64419">
        <ele>35.4</ele>
        <time>2020-06-22T08:24:28Z</time>
      </trkpt>
      <trkpt lat="50.63927" lon="1.64418">
        <ele>35.6</ele>
        <time>2020-06-22T08:24:29Z</time>
      </trkpt>
      <trkpt lat="50.63932" lon="1.64418">
        <ele>35.7</ele>
        <time>2020-06-22T08:24:30Z</time>
      </trkpt>
      <trkpt lat="50.63937" lon="1.64417">
        <ele>35.9</ele>
        <time>2020-06-22T08:24:31Z</time>
      </trkpt>
      <trkpt lat="50.63942" lon="1.64416">
        <ele>36</ele>
        <time>2020-06-22T08:24:32Z</time>
      </trkpt>
      <trkpt lat="50.63947" lon="1.64416">
        <ele>36.2</ele>
        <time>2020-06-22T08:24:33Z</time>
      </trkpt>
      <trkpt lat="50.63952" lon="1.64415">
        <ele>36.3</ele>
        <time>2020-06-22T08:24:34Z</time>
      </trkpt>
      <trkpt lat="50.63957" lon="1.64415">
        <ele>36.3</ele>
        <time>2020-06-22T08:24:35Z</time>
      </trkpt>
      <trkpt lat="50.63962" lon="1.64415">
        <ele>36.4</ele>
        <time>2020-06-22T08:24:36Z</time>
      </trkpt>
      <trkpt lat="50.63968" lon="1.64414">
        <ele>36.6</ele>
        <time>2020-06-22T08:24:37Z</time>
      </trkpt>
      <trkpt lat="50.63974" lon="1.64414">
        <ele>36.7</ele>
        <time>2020-06-22T08:24:38Z</time>
      </trkpt>
      <trkpt lat="50.63977" lon="1.64414">
        <ele>36.7</ele>
        <time>2020-06-22T08:24:39Z</time>
      </trkpt>
      <trkpt lat="50.63983" lon="1.64413">
        <ele>36.8</ele>
        <time>2020-06-22T08:24:40Z</time>
      </trkpt>
      <trkpt lat="50.63989" lon="1.64412">
        <ele>36.9</ele>
        <time>2020-06-22T08:24:41Z</time>
      </trkpt>
      <trkpt lat="50.63995" lon="1.64411">
        <ele>37</ele>
        <time>2020-06-22T08:24:42Z</time>
      </trkpt>
      <trkpt lat="50.64001" lon="1.6441">
        <ele>37.1</ele>
        <time>2020-06-22T08:24:43Z</time>
      </trkpt>
      <trkpt lat="50.64005" lon="1.6441">
        <ele>37.2</ele>
        <time>2020-06-22T08:24:44Z</time>
      </trkpt>
      <trkpt lat="50.6401" lon="1.64409">
        <ele>37.3</ele>
        <time>2020-06-22T08:24:45Z</time>
      </trkpt>
      <trkpt lat="50.64014" lon="1.64408">
        <ele>37.3</ele>
        <time>2020-06-22T08:24:46Z</time>
      </trkpt>
      <trkpt lat="50.6402" lon="1.64406">
        <ele>37.4</ele>
        <time>2020-06-22T08:24:47Z</time>
      </trkpt>
      <trkpt lat="50.64024" lon="1.64405">
        <ele>37.5</ele>
        <time>2020-06-22T08:24:48Z</time>
      </trkpt>
      <trkpt lat="50.64029" lon="1.64404">
        <ele>37.5</ele>
        <time>2020-06-22T08:24:49Z</time>
      </trkpt>
      <trkpt lat="50.64035" lon="1.64403">
        <ele>37.6</ele>
        <time>2020-06-22T08:24:50Z</time>
      </trkpt>
      <trkpt lat="50.6404" lon="1.64402">
        <ele>37.6</ele>
        <time>2020-06-22T08:24:51Z</time>
      </trkpt>
      <trkpt lat="50.64046" lon="1.64401">
        <ele>37.6</ele>
        <time>2020-06-22T08:24:52Z</time>
      </trkpt>
      <trkpt lat="50.64051" lon="1.64401">
        <ele>37.7</ele>
        <time>2020-06-22T08:24:53Z</time>
      </trkpt>
      <trkpt lat="50.64057" lon="1.644">
        <ele>37.7</ele>
        <time>2020-06-22T08:24:54Z</time>
      </trkpt>
      <trkpt lat="50.64063" lon="1.644">
        <ele>37.7</ele>
        <time>2020-06-22T08:24:55Z</time>
      </trkpt>
      <trkpt lat="50.64072" lon="1.64401">
        <ele>37.7</ele>
        <time>2020-06-22T08:24:56Z</time>
      </trkpt>
      <trkpt lat="50.64078" lon="1.644">
        <ele>37.6</ele>
        <time>2020-06-22T08:24:57Z</time>
      </trkpt>
      <trkpt lat="50.64083" lon="1.644">
        <ele>37.6</ele>
        <time>2020-06-22T08:24:58Z</time>
      </trkpt>
      <trkpt lat="50.64087" lon="1.644">
        <ele>37.6</ele>
        <time>2020-06-22T08:24:59Z</time>
      </trkpt>
      <trkpt lat="50.64091" lon="1.64401">
        <ele>37.6</ele>
        <time>2020-06-22T08:25:00Z</time>
      </trkpt>
      <trkpt lat="50.64096" lon="1.64402">
        <ele>37.5</ele>
        <time>2020-06-22T08:25:01Z</time>
      </trkpt>
      <trkpt lat="50.641" lon="1.64405">
        <ele>37.5</ele>
        <time>2020-06-22T08:25:02Z</time>
      </trkpt>
      <trkpt lat="50.64106" lon="1.64406">
        <ele>37.4</ele>
        <time>2020-06-22T08:25:03Z</time>
      </trkpt>
      <trkpt lat="50.64113" lon="1.64405">
        <ele>37.4</ele>
        <time>2020-06-22T08:25:04Z</time>
      </trkpt>
      <trkpt lat="50.64118" lon="1.64402">
        <ele>37.3</ele>
        <time>2020-06-22T08:25:05Z</time>
      </trkpt>
      <trkpt lat="50.64122" lon="1.644">
        <ele>37.2</ele>
        <time>2020-06-22T08:25:06Z</time>
      </trkpt>
      <trkpt lat="50.64126" lon="1.64398">
        <ele>37.2</ele>
        <time>2020-06-22T08:25:07Z</time>
      </trkpt>
      <trkpt lat="50.6413" lon="1.64396">
        <ele>37.1</ele>
        <time>2020-06-22T08:25:08Z</time>
      </trkpt>
      <trkpt lat="50.64133" lon="1.64395">
        <ele>37</ele>
        <time>2020-06-22T08:25:09Z</time>
      </trkpt>
      <trkpt lat="50.64138" lon="1.64397">
        <ele>37</ele>
        <time>2020-06-22T08:25:10Z</time>
      </trkpt>
      <trkpt lat="50.64142" lon="1.64397">
        <ele>36.9</ele>
        <time>2020-06-22T08:25:11Z</time>
      </trkpt>
      <trkpt lat="50.64147" lon="1.64397">
        <ele>36.8</ele>
        <time>2020-06-22T08:25:12Z</time>
      </trkpt>
      <trkpt lat="50.64151" lon="1.64395">
        <ele>36.8</ele>
        <time>2020-06-22T08:25:13Z</time>
      </trkpt>
      <trkpt lat="50.64156" lon="1.64394">
        <ele>36.7</ele>
        <time>2020-06-22T08:25:14Z</time>
      </trkpt>
      <trkpt lat="50.64161" lon="1.64393">
        <ele>36.7</ele>
        <time>2020-06-22T08:25:15Z</time>
      </trkpt>
      <trkpt lat="50.64165" lon="1.64392">
        <ele>36.6</ele>
        <time>2020-06-22T08:25:16Z</time>
      </trkpt>
      <trkpt lat="50.64171" lon="1.64392">
        <ele>36.6</ele>
        <time>2020-06-22T08:25:17Z</time>
      </trkpt>
      <trkpt lat="50.64177" lon="1.6439">
        <ele>36.5</ele>
        <time>2020-06-22T08:25:18Z</time>
      </trkpt>
      <trkpt lat="50.64182" lon="1.64389">
        <ele>36.5</ele>
        <time>2020-06-22T08:25:19Z</time>
      </trkpt>
      <trkpt lat="50.64188" lon="1.64388">
        <ele>36.5</ele>
        <time>2020-06-22T08:25:20Z</time>
      </trkpt>
      <trkpt lat="50.64194" lon="1.64388">
        <ele>36.5</ele>
        <time>2020-06-22T08:25:21Z</time>
      </trkpt>
      <trkpt lat="50.642" lon="1.64387">
        <ele>36.5</ele>
        <time>2020-06-22T08:25:22Z</time>
      </trkpt>
      <trkpt lat="50.64205" lon="1.64387">
        <ele>36.5</ele>
        <time>2020-06-22T08:25:23Z</time>
      </trkpt>
      <trkpt lat="50.64212" lon="1.64386">
        <ele>36.5</ele>
        <time>2020-06-22T08:25:24Z</time>
      </trkpt>
      <trkpt lat="50.64218" lon="1.64385">
        <ele>36.6</ele>
        <time>2020-06-22T08:25:25Z</time>
      </trkpt>
      <trkpt lat="50.64222" lon="1.64383">
        <ele>36.6</ele>
        <time>2020-06-22T08:25:26Z</time>
      </trkpt>
      <trkpt lat="50.64227" lon="1.64382">
        <ele>36.7</ele>
        <time>2020-06-22T08:25:27Z</time>
      </trkpt>
      <trkpt lat="50.64233" lon="1.64381">
        <ele>36.8</ele>
        <time>2020-06-22T08:25:28Z</time>
      </trkpt>
      <trkpt lat="50.64239" lon="1.64381">
        <ele>36.9</ele>
        <time>2020-06-22T08:25:29Z</time>
      </trkpt>
      <trkpt lat="50.64245" lon="1.6438">
        <ele>37</ele>
        <time>2020-06-22T08:25:30Z</time>
      </trkpt>
      <trkpt lat="50.6425" lon="1.64379">
        <ele>37.1</ele>
        <time>2020-06-22T08:25:31Z</time>
      </trkpt>
      <trkpt lat="50.64256" lon="1.64378">
        <ele>37.2</ele>
        <time>2020-06-22T08:25:32Z</time>
      </trkpt>
      <trkpt lat="50.6426" lon="1.64378">
        <ele>37.2</ele>
        <time>2020-06-22T08:25:33Z</time>
      </trkpt>
      <trkpt lat="50.64265" lon="1.64377">
        <ele>37.3</ele>
        <time>2020-06-22T08:25:34Z</time>
      </trkpt>
      <trkpt lat="50.64271" lon="1.64376">
        <ele>37.4</ele>
        <time>2020-06-22T08:25:35Z</time>
      </trkpt>
      <trkpt lat="50.64276" lon="1.64375">
        <ele>37.5</ele>
        <time>2020-06-22T08:25:36Z</time>
      </trkpt>
      <trkpt lat="50.64281" lon="1.64374">
        <ele>37.6</ele>
        <time>2020-06-22T08:25:37Z</time>
      </trkpt>
      <trkpt lat="50.64285" lon="1.64373">
        <ele>37.7</ele>
        <time>2020-06-22T08:25:38Z</time>
      </trkpt>
      <trkpt lat="50.6429" lon="1.64372">
        <ele>37.7</ele>
        <time>2020-06-22T08:25:39Z</time>
      </trkpt>
      <trkpt lat="50.64295" lon="1.64371">
        <ele>37.8</ele>
        <time>2020-06-22T08:25:40Z</time>
      </trkpt>
      <trkpt lat="50.643" lon="1.6437">
        <ele>37.9</ele>
        <time>2020-06-22T08:25:41Z</time>
      </trkpt>
      <trkpt lat="50.64306" lon="1.64369">
        <ele>38</ele>
        <time>2020-06-22T08:25:42Z</time>
      </trkpt>
      <trkpt lat="50.64312" lon="1.64368">
        <ele>38.1</ele>
        <time>2020-06-22T08:25:43Z</time>
      </trkpt>
      <trkpt lat="50.64317" lon="1.64366">
        <ele>38.2</ele>
        <time>2020-06-22T08:25:44Z</time>
      </trkpt>
      <trkpt lat="50.64323" lon="1.64367">
        <ele>38.2</ele>
        <time>2020-06-22T08:25:45Z</time>
      </trkpt>
      <trkpt lat="50.64328" lon="1.64366">
        <ele>38.1</ele>
        <time>2020-06-22T08:25:46Z</time>
      </trkpt>
      <trkpt lat="50.64333" lon="1.64365">
        <ele>38.1</ele>
        <time>2020-06-22T08:25:47Z</time>
      </trkpt>
      <trkpt lat="50.64339" lon="1.64364">
        <ele>38.2</ele>
        <time>2020-06-22T08:25:48Z</time>
      </trkpt>
      <trkpt lat="50.64345" lon="1.64363">
        <ele>38.2</ele>
        <time>2020-06-22T08:25:49Z</time>
      </trkpt>
      <trkpt lat="50.6435" lon="1.64362">
        <ele>38.2</ele>
        <time>2020-06-22T08:25:50Z</time>
      </trkpt>
      <trkpt lat="50.64355" lon="1.64362">
        <ele>38.2</ele>
        <time>2020-06-22T08:25:51Z</time>
      </trkpt>
      <trkpt lat="50.64362" lon="1.6436">
        <ele>38.2</ele>
        <time>2020-06-22T08:25:52Z</time>
      </trkpt>
      <trkpt lat="50.64368" lon="1.64359">
        <ele>38.1</ele>
        <time>2020-06-22T08:25:53Z</time>
      </trkpt>
      <trkpt lat="50.64373" lon="1.64359">
        <ele>38.1</ele>
        <time>2020-06-22T08:25:54Z</time>
      </trkpt>
      <trkpt lat="50.64377" lon="1.64359">
        <ele>38</ele>
        <time>2020-06-22T08:25:55Z</time>
      </trkpt>
      <trkpt lat="50.64383" lon="1.64358">
        <ele>38</ele>
        <time>2020-06-22T08:25:56Z</time>
      </trkpt>
      <trkpt lat="50.64387" lon="1.64357">
        <ele>37.9</ele>
        <time>2020-06-22T08:25:57Z</time>
      </trkpt>
      <trkpt lat="50.64391" lon="1.64357">
        <ele>37.9</ele>
        <time>2020-06-22T08:25:58Z</time>
      </trkpt>
      <trkpt lat="50.64395" lon="1.64356">
        <ele>37.9</ele>
        <time>2020-06-22T08:25:59Z</time>
      </trkpt>
      <trkpt lat="50.64399" lon="1.64357">
        <ele>37.8</ele>
        <time>2020-06-22T08:26:00Z</time>
      </trkpt>
      <trkpt lat="50.64403" lon="1.64357">
        <ele>37.8</ele>
        <time>2020-06-22T08:26:01Z</time>
      </trkpt>
      <trkpt lat="50.64408" lon="1.64357">
        <ele>37.7</ele>
        <time>2020-06-22T08:26:02Z</time>
      </trkpt>
      <trkpt lat="50.64412" lon="1.64356">
        <ele>37.6</ele>
        <time>2020-06-22T08:26:03Z</time>
      </trkpt>
      <trkpt lat="50.64417" lon="1.64355">
        <ele>37.5</ele>
        <time>2020-06-22T08:26:04Z</time>
      </trkpt>
      <trkpt lat="50.64422" lon="1.64355">
        <ele>37.4</ele>
        <time>2020-06-22T08:26:05Z</time>
      </trkpt>
      <trkpt lat="50.64427" lon="1.64354">
        <ele>37.3</ele>
        <time>2020-06-22T08:26:06Z</time>
      </trkpt>
      <trkpt lat="50.64432" lon="1.64353">
        <ele>37.2</ele>
        <time>2020-06-22T08:26:07Z</time>
      </trkpt>
      <trkpt lat="50.64437" lon="1.64353">
        <ele>37</ele>
        <time>2020-06-22T08:26:08Z</time>
      </trkpt>
      <trkpt lat="50.64441" lon="1.64352">
        <ele>36.9</ele>
        <time>2020-06-22T08:26:09Z</time>
      </trkpt>
      <trkpt lat="50.64447" lon="1.6435">
        <ele>36.8</ele>
        <time>2020-06-22T08:26:10Z</time>
      </trkpt>
      <trkpt lat="50.64452" lon="1.64348">
        <ele>36.6</ele>
        <time>2020-06-22T08:26:11Z</time>
      </trkpt>
      <trkpt lat="50.64459" lon="1.64348">
        <ele>36.4</ele>
        <time>2020-06-22T08:26:12Z</time>
      </trkpt>
      <trkpt lat="50.64465" lon="1.64346">
        <ele>36.1</ele>
        <time>2020-06-22T08:26:13Z</time>
      </trkpt>
      <trkpt lat="50.64471" lon="1.64345">
        <ele>35.7</ele>
        <time>2020-06-22T08:26:14Z</time>
      </trkpt>
      <trkpt lat="50.64477" lon="1.64342">
        <ele>35.6</ele>
        <time>2020-06-22T08:26:15Z</time>
      </trkpt>
      <trkpt lat="50.64483" lon="1.6434">
        <ele>35.4</ele>
        <time>2020-06-22T08:26:16Z</time>
      </trkpt>
      <trkpt lat="50.64489" lon="1.64338">
        <ele>35.3</ele>
        <time>2020-06-22T08:26:17Z</time>
      </trkpt>
      <trkpt lat="50.64495" lon="1.64336">
        <ele>35.1</ele>
        <time>2020-06-22T08:26:18Z</time>
      </trkpt>
      <trkpt lat="50.64501" lon="1.64333">
        <ele>35</ele>
        <time>2020-06-22T08:26:19Z</time>
      </trkpt>
      <trkpt lat="50.64508" lon="1.64332">
        <ele>34.9</ele>
        <time>2020-06-22T08:26:20Z</time>
      </trkpt>
      <trkpt lat="50.64514" lon="1.6433">
        <ele>34.8</ele>
        <time>2020-06-22T08:26:21Z</time>
      </trkpt>
      <trkpt lat="50.64522" lon="1.64328">
        <ele>34.6</ele>
        <time>2020-06-22T08:26:22Z</time>
      </trkpt>
      <trkpt lat="50.6453" lon="1.64327">
        <ele>34.5</ele>
        <time>2020-06-22T08:26:23Z</time>
      </trkpt>
      <trkpt lat="50.64537" lon="1.64327">
        <ele>34.4</ele>
        <time>2020-06-22T08:26:24Z</time>
      </trkpt>
      <trkpt lat="50.64542" lon="1.64328">
        <ele>34.5</ele>
        <time>2020-06-22T08:26:25Z</time>
      </trkpt>
      <trkpt lat="50.64547" lon="1.64331">
        <ele>34.6</ele>
        <time>2020-06-22T08:26:26Z</time>
      </trkpt>
      <trkpt lat="50.64551" lon="1.64336">
        <ele>34.5</ele>
        <time>2020-06-22T08:26:27Z</time>
      </trkpt>
      <trkpt lat="50.64554" lon="1.6434">
        <ele>34.2</ele>
        <time>2020-06-22T08:26:28Z</time>
      </trkpt>
      <trkpt lat="50.64558" lon="1.64342">
        <ele>34</ele>
        <time>2020-06-22T08:26:29Z</time>
      </trkpt>
      <trkpt lat="50.64564" lon="1.64343">
        <ele>33.7</ele>
        <time>2020-06-22T08:26:30Z</time>
      </trkpt>
      <trkpt lat="50.64571" lon="1.64341">
        <ele>33.4</ele>
        <time>2020-06-22T08:26:31Z</time>
      </trkpt>
      <trkpt lat="50.64577" lon="1.64338">
        <ele>33.1</ele>
        <time>2020-06-22T08:26:32Z</time>
      </trkpt>
      <trkpt lat="50.64582" lon="1.64333">
        <ele>33</ele>
        <time>2020-06-22T08:26:33Z</time>
      </trkpt>
      <trkpt lat="50.64588" lon="1.64328">
        <ele>32.7</ele>
        <time>2020-06-22T08:26:34Z</time>
      </trkpt>
      <trkpt lat="50.64593" lon="1.64322">
        <ele>32.4</ele>
        <time>2020-06-22T08:26:35Z</time>
      </trkpt>
      <trkpt lat="50.64597" lon="1.64316">
        <ele>32.2</ele>
        <time>2020-06-22T08:26:36Z</time>
      </trkpt>
      <trkpt lat="50.64601" lon="1.6431">
        <ele>31.9</ele>
        <time>2020-06-22T08:26:37Z</time>
      </trkpt>
      <trkpt lat="50.64607" lon="1.64307">
        <ele>31.6</ele>
        <time>2020-06-22T08:26:38Z</time>
      </trkpt>
      <trkpt lat="50.64613" lon="1.64305">
        <ele>31.3</ele>
        <time>2020-06-22T08:26:39Z</time>
      </trkpt>
      <trkpt lat="50.64619" lon="1.64309">
        <ele>31</ele>
        <time>2020-06-22T08:26:40Z</time>
      </trkpt>
      <trkpt lat="50.64627" lon="1.64311">
        <ele>30.5</ele>
        <time>2020-06-22T08:26:41Z</time>
      </trkpt>
      <trkpt lat="50.64634" lon="1.64313">
        <ele>30.1</ele>
        <time>2020-06-22T08:26:42Z</time>
      </trkpt>
      <trkpt lat="50.64642" lon="1.64314">
        <ele>29.7</ele>
        <time>2020-06-22T08:26:43Z</time>
      </trkpt>
      <trkpt lat="50.64651" lon="1.64314">
        <ele>29.2</ele>
        <time>2020-06-22T08:26:44Z</time>
      </trkpt>
      <trkpt lat="50.64658" lon="1.64314">
        <ele>28.8</ele>
        <time>2020-06-22T08:26:45Z</time>
      </trkpt>
      <trkpt lat="50.64666" lon="1.64314">
        <ele>28.4</ele>
        <time>2020-06-22T08:26:46Z</time>
      </trkpt>
      <trkpt lat="50.64675" lon="1.64313">
        <ele>28</ele>
        <time>2020-06-22T08:26:47Z</time>
      </trkpt>
      <trkpt lat="50.64683" lon="1.64313">
        <ele>27.7</ele>
        <time>2020-06-22T08:26:48Z</time>
      </trkpt>
      <trkpt lat="50.64693" lon="1.64311">
        <ele>27.3</ele>
        <time>2020-06-22T08:26:49Z</time>
      </trkpt>
      <trkpt lat="50.64701" lon="1.6431">
        <ele>27.1</ele>
        <time>2020-06-22T08:26:50Z</time>
      </trkpt>
      <trkpt lat="50.6471" lon="1.64309">
        <ele>26.8</ele>
        <time>2020-06-22T08:26:51Z</time>
      </trkpt>
      <trkpt lat="50.64718" lon="1.64308">
        <ele>26.6</ele>
        <time>2020-06-22T08:26:52Z</time>
      </trkpt>
      <trkpt lat="50.64727" lon="1.64306">
        <ele>26.4</ele>
        <time>2020-06-22T08:26:53Z</time>
      </trkpt>
      <trkpt lat="50.64736" lon="1.64305">
        <ele>26.3</ele>
        <time>2020-06-22T08:26:54Z</time>
      </trkpt>
      <trkpt lat="50.64745" lon="1.64303">
        <ele>26.1</ele>
        <time>2020-06-22T08:26:55Z</time>
      </trkpt>
      <trkpt lat="50.64753" lon="1.64301">
        <ele>26</ele>
        <time>2020-06-22T08:26:56Z</time>
      </trkpt>
      <trkpt lat="50.64761" lon="1.643">
        <ele>25.9</ele>
        <time>2020-06-22T08:26:57Z</time>
      </trkpt>
      <trkpt lat="50.64769" lon="1.64299">
        <ele>25.8</ele>
        <time>2020-06-22T08:26:58Z</time>
      </trkpt>
      <trkpt lat="50.64777" lon="1.64298">
        <ele>25.7</ele>
        <time>2020-06-22T08:26:59Z</time>
      </trkpt>
      <trkpt lat="50.64784" lon="1.64296">
        <ele>25.7</ele>
        <time>2020-06-22T08:27:00Z</time>
      </trkpt>
      <trkpt lat="50.64791" lon="1.64296">
        <ele>25.7</ele>
        <time>2020-06-22T08:27:01Z</time>
      </trkpt>
      <trkpt lat="50.64797" lon="1.64295">
        <ele>25.7</ele>
        <time>2020-06-22T08:27:02Z</time>
      </trkpt>
      <trkpt lat="50.64802" lon="1.64294">
        <ele>25.8</ele>
        <time>2020-06-22T08:27:03Z</time>
      </trkpt>
      <trkpt lat="50.64808" lon="1.64294">
        <ele>25.7</ele>
        <time>2020-06-22T08:27:04Z</time>
      </trkpt>
      <trkpt lat="50.64813" lon="1.64293">
        <ele>25.7</ele>
        <time>2020-06-22T08:27:05Z</time>
      </trkpt>
      <trkpt lat="50.64817" lon="1.64293">
        <ele>25.6</ele>
        <time>2020-06-22T08:27:06Z</time>
      </trkpt>
      <trkpt lat="50.64822" lon="1.64292">
        <ele>25.6</ele>
        <time>2020-06-22T08:27:07Z</time>
      </trkpt>
      <trkpt lat="50.64826" lon="1.64293">
        <ele>25.6</ele>
        <time>2020-06-22T08:27:08Z</time>
      </trkpt>
      <trkpt lat="50.6483" lon="1.64293">
        <ele>25.6</ele>
        <time>2020-06-22T08:27:09Z</time>
      </trkpt>
      <trkpt lat="50.64836" lon="1.64294">
        <ele>25.5</ele>
        <time>2020-06-22T08:27:10Z</time>
      </trkpt>
      <trkpt lat="50.64842" lon="1.64293">
        <ele>25.5</ele>
        <time>2020-06-22T08:27:11Z</time>
      </trkpt>
      <trkpt lat="50.64847" lon="1.64291">
        <ele>25.5</ele>
        <time>2020-06-22T08:27:12Z</time>
      </trkpt>
      <trkpt lat="50.64853" lon="1.64291">
        <ele>25.5</ele>
        <time>2020-06-22T08:27:13Z</time>
      </trkpt>
      <trkpt lat="50.64859" lon="1.6429">
        <ele>25.5</ele>
        <time>2020-06-22T08:27:14Z</time>
      </trkpt>
      <trkpt lat="50.64865" lon="1.64289">
        <ele>25.5</ele>
        <time>2020-06-22T08:27:15Z</time>
      </trkpt>
      <trkpt lat="50.64871" lon="1.64289">
        <ele>25.6</ele>
        <time>2020-06-22T08:27:16Z</time>
      </trkpt>
      <trkpt lat="50.64877" lon="1.64288">
        <ele>25.7</ele>
        <time>2020-06-22T08:27:17Z</time>
      </trkpt>
      <trkpt lat="50.64883" lon="1.64287">
        <ele>25.8</ele>
        <time>2020-06-22T08:27:18Z</time>
      </trkpt>
      <trkpt lat="50.64889" lon="1.64285">
        <ele>25.9</ele>
        <time>2020-06-22T08:27:19Z</time>
      </trkpt>
      <trkpt lat="50.64895" lon="1.64285">
        <ele>26</ele>
        <time>2020-06-22T08:27:20Z</time>
      </trkpt>
      <trkpt lat="50.64901" lon="1.64284">
        <ele>26.2</ele>
        <time>2020-06-22T08:27:21Z</time>
      </trkpt>
      <trkpt lat="50.64907" lon="1.64283">
        <ele>26.4</ele>
        <time>2020-06-22T08:27:22Z</time>
      </trkpt>
      <trkpt lat="50.64913" lon="1.64282">
        <ele>26.7</ele>
        <time>2020-06-22T08:27:23Z</time>
      </trkpt>
      <trkpt lat="50.64919" lon="1.64281">
        <ele>26.9</ele>
        <time>2020-06-22T08:27:24Z</time>
      </trkpt>
      <trkpt lat="50.64925" lon="1.64279">
        <ele>27.2</ele>
        <time>2020-06-22T08:27:25Z</time>
      </trkpt>
      <trkpt lat="50.6493" lon="1.64277">
        <ele>27.4</ele>
        <time>2020-06-22T08:27:26Z</time>
      </trkpt>
      <trkpt lat="50.64934" lon="1.64276">
        <ele>27.6</ele>
        <time>2020-06-22T08:27:27Z</time>
      </trkpt>
      <trkpt lat="50.64939" lon="1.64275">
        <ele>27.8</ele>
        <time>2020-06-22T08:27:28Z</time>
      </trkpt>
      <trkpt lat="50.64943" lon="1.64274">
        <ele>28</ele>
        <time>2020-06-22T08:27:29Z</time>
      </trkpt>
      <trkpt lat="50.64948" lon="1.64274">
        <ele>28.2</ele>
        <time>2020-06-22T08:27:30Z</time>
      </trkpt>
      <trkpt lat="50.64953" lon="1.64273">
        <ele>28.5</ele>
        <time>2020-06-22T08:27:31Z</time>
      </trkpt>
      <trkpt lat="50.64958" lon="1.64273">
        <ele>28.8</ele>
        <time>2020-06-22T08:27:32Z</time>
      </trkpt>
      <trkpt lat="50.64963" lon="1.64272">
        <ele>29.1</ele>
        <time>2020-06-22T08:27:33Z</time>
      </trkpt>
      <trkpt lat="50.64969" lon="1.64272">
        <ele>29.4</ele>
        <time>2020-06-22T08:27:34Z</time>
      </trkpt>
      <trkpt lat="50.64974" lon="1.64272">
        <ele>29.7</ele>
        <time>2020-06-22T08:27:35Z</time>
      </trkpt>
      <trkpt lat="50.6498" lon="1.64272">
        <ele>30</ele>
        <time>2020-06-22T08:27:36Z</time>
      </trkpt>
      <trkpt lat="50.64985" lon="1.64269">
        <ele>30.3</ele>
        <time>2020-06-22T08:27:37Z</time>
      </trkpt>
      <trkpt lat="50.6499" lon="1.64267">
        <ele>30.6</ele>
        <time>2020-06-22T08:27:38Z</time>
      </trkpt>
      <trkpt lat="50.64995" lon="1.64265">
        <ele>30.9</ele>
        <time>2020-06-22T08:27:39Z</time>
      </trkpt>
      <trkpt lat="50.65001" lon="1.64265">
        <ele>31.2</ele>
        <time>2020-06-22T08:27:40Z</time>
      </trkpt>
      <trkpt lat="50.65006" lon="1.64264">
        <ele>31.5</ele>
        <time>2020-06-22T08:27:41Z</time>
      </trkpt>
      <trkpt lat="50.65013" lon="1.64264">
        <ele>31.8</ele>
        <time>2020-06-22T08:27:42Z</time>
      </trkpt>
      <trkpt lat="50.65018" lon="1.64264">
        <ele>32.1</ele>
        <time>2020-06-22T08:27:43Z</time>
      </trkpt>
      <trkpt lat="50.65025" lon="1.64263">
        <ele>32.4</ele>
        <time>2020-06-22T08:27:44Z</time>
      </trkpt>
      <trkpt lat="50.6503" lon="1.64262">
        <ele>32.7</ele>
        <time>2020-06-22T08:27:45Z</time>
      </trkpt>
      <trkpt lat="50.65036" lon="1.64261">
        <ele>33.1</ele>
        <time>2020-06-22T08:27:46Z</time>
      </trkpt>
      <trkpt lat="50.65042" lon="1.6426">
        <ele>33.4</ele>
        <time>2020-06-22T08:27:47Z</time>
      </trkpt>
      <trkpt lat="50.65047" lon="1.64259">
        <ele>33.7</ele>
        <time>2020-06-22T08:27:48Z</time>
      </trkpt>
      <trkpt lat="50.65053" lon="1.64258">
        <ele>33.9</ele>
        <time>2020-06-22T08:27:49Z</time>
      </trkpt>
      <trkpt lat="50.65058" lon="1.64259">
        <ele>34.2</ele>
        <time>2020-06-22T08:27:50Z</time>
      </trkpt>
      <trkpt lat="50.65063" lon="1.64258">
        <ele>34.4</ele>
        <time>2020-06-22T08:27:51Z</time>
      </trkpt>
      <trkpt lat="50.65069" lon="1.64257">
        <ele>34.6</ele>
        <time>2020-06-22T08:27:52Z</time>
      </trkpt>
      <trkpt lat="50.65075" lon="1.64257">
        <ele>34.8</ele>
        <time>2020-06-22T08:27:53Z</time>
      </trkpt>
      <trkpt lat="50.6508" lon="1.64256">
        <ele>35</ele>
        <time>2020-06-22T08:27:54Z</time>
      </trkpt>
      <trkpt lat="50.65086" lon="1.64254">
        <ele>35.2</ele>
        <time>2020-06-22T08:27:55Z</time>
      </trkpt>
      <trkpt lat="50.65091" lon="1.64253">
        <ele>35.3</ele>
        <time>2020-06-22T08:27:56Z</time>
      </trkpt>
      <trkpt lat="50.65097" lon="1.64253">
        <ele>35.5</ele>
        <time>2020-06-22T08:27:57Z</time>
      </trkpt>
      <trkpt lat="50.65102" lon="1.64252">
        <ele>35.6</ele>
        <time>2020-06-22T08:27:58Z</time>
      </trkpt>
      <trkpt lat="50.65107" lon="1.64251">
        <ele>35.7</ele>
        <time>2020-06-22T08:27:59Z</time>
      </trkpt>
      <trkpt lat="50.65113" lon="1.64251">
        <ele>35.7</ele>
        <time>2020-06-22T08:28:00Z</time>
      </trkpt>
      <trkpt lat="50.65118" lon="1.6425">
        <ele>35.8</ele>
        <time>2020-06-22T08:28:01Z</time>
      </trkpt>
      <trkpt lat="50.65123" lon="1.64249">
        <ele>35.9</ele>
        <time>2020-06-22T08:28:02Z</time>
      </trkpt>
      <trkpt lat="50.65128" lon="1.64249">
        <ele>35.9</ele>
        <time>2020-06-22T08:28:03Z</time>
      </trkpt>
      <trkpt lat="50.65132" lon="1.64249">
        <ele>35.9</ele>
        <time>2020-06-22T08:28:04Z</time>
      </trkpt>
      <trkpt lat="50.65137" lon="1.64248">
        <ele>36</ele>
        <time>2020-06-22T08:28:05Z</time>
      </trkpt>
      <trkpt lat="50.65142" lon="1.64247">
        <ele>36</ele>
        <time>2020-06-22T08:28:06Z</time>
      </trkpt>
      <trkpt lat="50.65147" lon="1.64246">
        <ele>36</ele>
        <time>2020-06-22T08:28:07Z</time>
      </trkpt>
      <trkpt lat="50.65153" lon="1.64246">
        <ele>36.1</ele>
        <time>2020-06-22T08:28:08Z</time>
      </trkpt>
      <trkpt lat="50.65159" lon="1.64245">
        <ele>36.1</ele>
        <time>2020-06-22T08:28:09Z</time>
      </trkpt>
      <trkpt lat="50.65164" lon="1.64243">
        <ele>36.2</ele>
        <time>2020-06-22T08:28:10Z</time>
      </trkpt>
      <trkpt lat="50.65169" lon="1.64242">
        <ele>36.2</ele>
        <time>2020-06-22T08:28:11Z</time>
      </trkpt>
      <trkpt lat="50.65173" lon="1.64242">
        <ele>36.2</ele>
        <time>2020-06-22T08:28:12Z</time>
      </trkpt>
      <trkpt lat="50.65179" lon="1.64243">
        <ele>36.3</ele>
        <time>2020-06-22T08:28:13Z</time>
      </trkpt>
      <trkpt lat="50.65185" lon="1.64245">
        <ele>36.3</ele>
        <time>2020-06-22T08:28:14Z</time>
      </trkpt>
      <trkpt lat="50.6519" lon="1.64247">
        <ele>36.4</ele>
        <time>2020-06-22T08:28:15Z</time>
      </trkpt>
      <trkpt lat="50.65194" lon="1.6425">
        <ele>36.4</ele>
        <time>2020-06-22T08:28:16Z</time>
      </trkpt>
      <trkpt lat="50.65198" lon="1.64254">
        <ele>36.5</ele>
        <time>2020-06-22T08:28:17Z</time>
      </trkpt>
      <trkpt lat="50.65201" lon="1.64258">
        <ele>36.5</ele>
        <time>2020-06-22T08:28:18Z</time>
      </trkpt>
      <trkpt lat="50.65204" lon="1.64262">
        <ele>36.6</ele>
        <time>2020-06-22T08:28:19Z</time>
      </trkpt>
      <trkpt lat="50.65208" lon="1.64265">
        <ele>36.6</ele>
        <time>2020-06-22T08:28:20Z</time>
      </trkpt>
      <trkpt lat="50.65211" lon="1.64268">
        <ele>36.7</ele>
        <time>2020-06-22T08:28:21Z</time>
      </trkpt>
      <trkpt lat="50.65215" lon="1.64271">
        <ele>36.7</ele>
        <time>2020-06-22T08:28:22Z</time>
      </trkpt>
      <trkpt lat="50.65219" lon="1.64275">
        <ele>36.8</ele>
        <time>2020-06-22T08:28:23Z</time>
      </trkpt>
      <trkpt lat="50.65222" lon="1.6428">
        <ele>36.7</ele>
        <time>2020-06-22T08:28:24Z</time>
      </trkpt>
      <trkpt lat="50.65226" lon="1.64287">
        <ele>36.6</ele>
        <time>2020-06-22T08:28:25Z</time>
      </trkpt>
      <trkpt lat="50.6523" lon="1.64294">
        <ele>36.6</ele>
        <time>2020-06-22T08:28:26Z</time>
      </trkpt>
      <trkpt lat="50.65235" lon="1.64298">
        <ele>36.5</ele>
        <time>2020-06-22T08:28:27Z</time>
      </trkpt>
      <trkpt lat="50.65239" lon="1.64302">
        <ele>36.5</ele>
        <time>2020-06-22T08:28:28Z</time>
      </trkpt>
      <trkpt lat="50.65244" lon="1.64301">
        <ele>36.4</ele>
        <time>2020-06-22T08:28:29Z</time>
      </trkpt>
      <trkpt lat="50.65249" lon="1.64296">
        <ele>36.5</ele>
        <time>2020-06-22T08:28:30Z</time>
      </trkpt>
      <trkpt lat="50.65253" lon="1.6429">
        <ele>36.6</ele>
        <time>2020-06-22T08:28:31Z</time>
      </trkpt>
      <trkpt lat="50.65257" lon="1.64282">
        <ele>36.7</ele>
        <time>2020-06-22T08:28:32Z</time>
      </trkpt>
      <trkpt lat="50.6526" lon="1.64275">
        <ele>36.8</ele>
        <time>2020-06-22T08:28:33Z</time>
      </trkpt>
      <trkpt lat="50.65263" lon="1.64268">
        <ele>36.9</ele>
        <time>2020-06-22T08:28:34Z</time>
      </trkpt>
      <trkpt lat="50.65266" lon="1.64261">
        <ele>36.8</ele>
        <time>2020-06-22T08:28:35Z</time>
      </trkpt>
      <trkpt lat="50.65268" lon="1.64254">
        <ele>36.7</ele>
        <time>2020-06-22T08:28:36Z</time>
      </trkpt>
      <trkpt lat="50.65273" lon="1.6425">
        <ele>36.6</ele>
        <time>2020-06-22T08:28:37Z</time>
      </trkpt>
      <trkpt lat="50.65279" lon="1.64244">
        <ele>36.5</ele>
        <time>2020-06-22T08:28:38Z</time>
      </trkpt>
      <trkpt lat="50.65285" lon="1.64238">
        <ele>36.4</ele>
        <time>2020-06-22T08:28:39Z</time>
      </trkpt>
      <trkpt lat="50.6529" lon="1.64233">
        <ele>36.4</ele>
        <time>2020-06-22T08:28:40Z</time>
      </trkpt>
      <trkpt lat="50.65295" lon="1.64228">
        <ele>36.6</ele>
        <time>2020-06-22T08:28:41Z</time>
      </trkpt>
      <trkpt lat="50.653" lon="1.64224">
        <ele>36.7</ele>
        <time>2020-06-22T08:28:42Z</time>
      </trkpt>
      <trkpt lat="50.65304" lon="1.64219">
        <ele>36.9</ele>
        <time>2020-06-22T08:28:43Z</time>
      </trkpt>
      <trkpt lat="50.65311" lon="1.64216">
        <ele>37.1</ele>
        <time>2020-06-22T08:28:44Z</time>
      </trkpt>
      <trkpt lat="50.65316" lon="1.64213">
        <ele>37.3</ele>
        <time>2020-06-22T08:28:45Z</time>
      </trkpt>
      <trkpt lat="50.65322" lon="1.64212">
        <ele>37.6</ele>
        <time>2020-06-22T08:28:46Z</time>
      </trkpt>
      <trkpt lat="50.65327" lon="1.64209">
        <ele>37.8</ele>
        <time>2020-06-22T08:28:47Z</time>
      </trkpt>
      <trkpt lat="50.65333" lon="1.6421">
        <ele>38</ele>
        <time>2020-06-22T08:28:48Z</time>
      </trkpt>
      <trkpt lat="50.65338" lon="1.6421">
        <ele>38.2</ele>
        <time>2020-06-22T08:28:49Z</time>
      </trkpt>
      <trkpt lat="50.65342" lon="1.64211">
        <ele>38.4</ele>
        <time>2020-06-22T08:28:50Z</time>
      </trkpt>
      <trkpt lat="50.65347" lon="1.64211">
        <ele>38.6</ele>
        <time>2020-06-22T08:28:51Z</time>
      </trkpt>
      <trkpt lat="50.6535" lon="1.6421">
        <ele>38.8</ele>
        <time>2020-06-22T08:28:52Z</time>
      </trkpt>
      <trkpt lat="50.65355" lon="1.64211">
        <ele>39</ele>
        <time>2020-06-22T08:28:53Z</time>
      </trkpt>
      <trkpt lat="50.6536" lon="1.6421">
        <ele>39.2</ele>
        <time>2020-06-22T08:28:54Z</time>
      </trkpt>
      <trkpt lat="50.65366" lon="1.6421">
        <ele>39.5</ele>
        <time>2020-06-22T08:28:55Z</time>
      </trkpt>
      <trkpt lat="50.6537" lon="1.64209">
        <ele>39.7</ele>
        <time>2020-06-22T08:28:56Z</time>
      </trkpt>
      <trkpt lat="50.65374" lon="1.6421">
        <ele>39.9</ele>
        <time>2020-06-22T08:28:57Z</time>
      </trkpt>
      <trkpt lat="50.65378" lon="1.6421">
        <ele>40</ele>
        <time>2020-06-22T08:28:58Z</time>
      </trkpt>
      <trkpt lat="50.65382" lon="1.64209">
        <ele>40.2</ele>
        <time>2020-06-22T08:28:59Z</time>
      </trkpt>
      <trkpt lat="50.65386" lon="1.64209">
        <ele>40.4</ele>
        <time>2020-06-22T08:29:00Z</time>
      </trkpt>
      <trkpt lat="50.6539" lon="1.64209">
        <ele>40.6</ele>
        <time>2020-06-22T08:29:01Z</time>
      </trkpt>
      <trkpt lat="50.65395" lon="1.64208">
        <ele>40.8</ele>
        <time>2020-06-22T08:29:02Z</time>
      </trkpt>
      <trkpt lat="50.654" lon="1.64207">
        <ele>41.3</ele>
        <time>2020-06-22T08:29:03Z</time>
      </trkpt>
      <trkpt lat="50.65405" lon="1.64206">
        <ele>41.5</ele>
        <time>2020-06-22T08:29:04Z</time>
      </trkpt>
      <trkpt lat="50.6541" lon="1.64204">
        <ele>41.8</ele>
        <time>2020-06-22T08:29:05Z</time>
      </trkpt>
      <trkpt lat="50.65415" lon="1.64203">
        <ele>42</ele>
        <time>2020-06-22T08:29:06Z</time>
      </trkpt>
      <trkpt lat="50.65419" lon="1.64202">
        <ele>42.2</ele>
        <time>2020-06-22T08:29:07Z</time>
      </trkpt>
      <trkpt lat="50.65424" lon="1.64201">
        <ele>42.5</ele>
        <time>2020-06-22T08:29:08Z</time>
      </trkpt>
      <trkpt lat="50.65428" lon="1.64201">
        <ele>42.7</ele>
        <time>2020-06-22T08:29:09Z</time>
      </trkpt>
      <trkpt lat="50.65432" lon="1.642">
        <ele>42.9</ele>
        <time>2020-06-22T08:29:10Z</time>
      </trkpt>
      <trkpt lat="50.65437" lon="1.64198">
        <ele>43.2</ele>
        <time>2020-06-22T08:29:11Z</time>
      </trkpt>
      <trkpt lat="50.65442" lon="1.64198">
        <ele>43.4</ele>
        <time>2020-06-22T08:29:12Z</time>
      </trkpt>
      <trkpt lat="50.65447" lon="1.64197">
        <ele>43.7</ele>
        <time>2020-06-22T08:29:13Z</time>
      </trkpt>
      <trkpt lat="50.65453" lon="1.64196">
        <ele>44.1</ele>
        <time>2020-06-22T08:29:14Z</time>
      </trkpt>
      <trkpt lat="50.65457" lon="1.64196">
        <ele>44.3</ele>
        <time>2020-06-22T08:29:15Z</time>
      </trkpt>
      <trkpt lat="50.65461" lon="1.64196">
        <ele>44.5</ele>
        <time>2020-06-22T08:29:16Z</time>
      </trkpt>
      <trkpt lat="50.65465" lon="1.64196">
        <ele>44.8</ele>
        <time>2020-06-22T08:29:17Z</time>
      </trkpt>
      <trkpt lat="50.65469" lon="1.64195">
        <ele>45.1</ele>
        <time>2020-06-22T08:29:18Z</time>
      </trkpt>
      <trkpt lat="50.65475" lon="1.64193">
        <ele>45.5</ele>
        <time>2020-06-22T08:29:19Z</time>
      </trkpt>
      <trkpt lat="50.6548" lon="1.64192">
        <ele>45.8</ele>
        <time>2020-06-22T08:29:20Z</time>
      </trkpt>
      <trkpt lat="50.65484" lon="1.64191">
        <ele>46.1</ele>
        <time>2020-06-22T08:29:21Z</time>
      </trkpt>
      <trkpt lat="50.65489" lon="1.64191">
        <ele>46.5</ele>
        <time>2020-06-22T08:29:22Z</time>
      </trkpt>
      <trkpt lat="50.65495" lon="1.6419">
        <ele>46.9</ele>
        <time>2020-06-22T08:29:23Z</time>
      </trkpt>
      <trkpt lat="50.65499" lon="1.6419">
        <ele>47.2</ele>
        <time>2020-06-22T08:29:24Z</time>
      </trkpt>
      <trkpt lat="50.65503" lon="1.6419">
        <ele>47.5</ele>
        <time>2020-06-22T08:29:25Z</time>
      </trkpt>
      <trkpt lat="50.65508" lon="1.6419">
        <ele>47.9</ele>
        <time>2020-06-22T08:29:26Z</time>
      </trkpt>
      <trkpt lat="50.65512" lon="1.6419">
        <ele>48.2</ele>
        <time>2020-06-22T08:29:27Z</time>
      </trkpt>
      <trkpt lat="50.65517" lon="1.64189">
        <ele>48.6</ele>
        <time>2020-06-22T08:29:28Z</time>
      </trkpt>
      <trkpt lat="50.65522" lon="1.64188">
        <ele>49</ele>
        <time>2020-06-22T08:29:29Z</time>
      </trkpt>
      <trkpt lat="50.65527" lon="1.64187">
        <ele>49.3</ele>
        <time>2020-06-22T08:29:30Z</time>
      </trkpt>
      <trkpt lat="50.65531" lon="1.64186">
        <ele>49.7</ele>
        <time>2020-06-22T08:29:31Z</time>
      </trkpt>
      <trkpt lat="50.65536" lon="1.64186">
        <ele>50</ele>
        <time>2020-06-22T08:29:32Z</time>
      </trkpt>
      <trkpt lat="50.6554" lon="1.64186">
        <ele>50.3</ele>
        <time>2020-06-22T08:29:33Z</time>
      </trkpt>
      <trkpt lat="50.65545" lon="1.64185">
        <ele>50.7</ele>
        <time>2020-06-22T08:29:34Z</time>
      </trkpt>
      <trkpt lat="50.65548" lon="1.64185">
        <ele>51</ele>
        <time>2020-06-22T08:29:35Z</time>
      </trkpt>
      <trkpt lat="50.65553" lon="1.64184">
        <ele>51.3</ele>
        <time>2020-06-22T08:29:36Z</time>
      </trkpt>
      <trkpt lat="50.65557" lon="1.64183">
        <ele>51.6</ele>
        <time>2020-06-22T08:29:37Z</time>
      </trkpt>
      <trkpt lat="50.6556" lon="1.64183">
        <ele>51.8</ele>
        <time>2020-06-22T08:29:38Z</time>
      </trkpt>
      <trkpt lat="50.65565" lon="1.64184">
        <ele>52.1</ele>
        <time>2020-06-22T08:29:39Z</time>
      </trkpt>
      <trkpt lat="50.65568" lon="1.64184">
        <ele>52.3</ele>
        <time>2020-06-22T08:29:40Z</time>
      </trkpt>
      <trkpt lat="50.65572" lon="1.64184">
        <ele>52.6</ele>
        <time>2020-06-22T08:29:41Z</time>
      </trkpt>
      <trkpt lat="50.65576" lon="1.64184">
        <ele>52.9</ele>
        <time>2020-06-22T08:29:42Z</time>
      </trkpt>
      <trkpt lat="50.65579" lon="1.64183">
        <ele>53.1</ele>
        <time>2020-06-22T08:29:43Z</time>
      </trkpt>
      <trkpt lat="50.65581" lon="1.64183">
        <ele>53.2</ele>
        <time>2020-06-22T08:29:44Z</time>
      </trkpt>
      <trkpt lat="50.65585" lon="1.64183">
        <ele>53.5</ele>
        <time>2020-06-22T08:29:45Z</time>
      </trkpt>
      <trkpt lat="50.65587" lon="1.64183">
        <ele>53.6</ele>
        <time>2020-06-22T08:29:46Z</time>
      </trkpt>
      <trkpt lat="50.6559" lon="1.64181">
        <ele>53.8</ele>
        <time>2020-06-22T08:29:47Z</time>
      </trkpt>
      <trkpt lat="50.65594" lon="1.64181">
        <ele>54</ele>
        <time>2020-06-22T08:29:48Z</time>
      </trkpt>
      <trkpt lat="50.65598" lon="1.6418">
        <ele>54.3</ele>
        <time>2020-06-22T08:29:49Z</time>
      </trkpt>
      <trkpt lat="50.65602" lon="1.6418">
        <ele>54.5</ele>
        <time>2020-06-22T08:29:50Z</time>
      </trkpt>
      <trkpt lat="50.65606" lon="1.6418">
        <ele>54.9</ele>
        <time>2020-06-22T08:29:51Z</time>
      </trkpt>
      <trkpt lat="50.65609" lon="1.6418">
        <ele>55.1</ele>
        <time>2020-06-22T08:29:52Z</time>
      </trkpt>
      <trkpt lat="50.65613" lon="1.64179">
        <ele>55.4</ele>
        <time>2020-06-22T08:29:53Z</time>
      </trkpt>
      <trkpt lat="50.65616" lon="1.64179">
        <ele>55.6</ele>
        <time>2020-06-22T08:29:54Z</time>
      </trkpt>
      <trkpt lat="50.65619" lon="1.64178">
        <ele>55.8</ele>
        <time>2020-06-22T08:29:55Z</time>
      </trkpt>
      <trkpt lat="50.65623" lon="1.64177">
        <ele>56</ele>
        <time>2020-06-22T08:29:56Z</time>
      </trkpt>
      <trkpt lat="50.65626" lon="1.64177">
        <ele>56.2</ele>
        <time>2020-06-22T08:29:57Z</time>
      </trkpt>
      <trkpt lat="50.6563" lon="1.64176">
        <ele>56.4</ele>
        <time>2020-06-22T08:29:58Z</time>
      </trkpt>
      <trkpt lat="50.65633" lon="1.64175">
        <ele>56.7</ele>
        <time>2020-06-22T08:29:59Z</time>
      </trkpt>
      <trkpt lat="50.65636" lon="1.64175">
        <ele>56.8</ele>
        <time>2020-06-22T08:30:00Z</time>
      </trkpt>
      <trkpt lat="50.6564" lon="1.64174">
        <ele>57.1</ele>
        <time>2020-06-22T08:30:01Z</time>
      </trkpt>
      <trkpt lat="50.65643" lon="1.64174">
        <ele>57.3</ele>
        <time>2020-06-22T08:30:02Z</time>
      </trkpt>
      <trkpt lat="50.65647" lon="1.64173">
        <ele>57.5</ele>
        <time>2020-06-22T08:30:03Z</time>
      </trkpt>
      <trkpt lat="50.65649" lon="1.64172">
        <ele>57.6</ele>
        <time>2020-06-22T08:30:04Z</time>
      </trkpt>
      <trkpt lat="50.65652" lon="1.64172">
        <ele>57.9</ele>
        <time>2020-06-22T08:30:05Z</time>
      </trkpt>
      <trkpt lat="50.65656" lon="1.64172">
        <ele>58</ele>
        <time>2020-06-22T08:30:06Z</time>
      </trkpt>
      <trkpt lat="50.65659" lon="1.64171">
        <ele>58.2</ele>
        <time>2020-06-22T08:30:07Z</time>
      </trkpt>
      <trkpt lat="50.65662" lon="1.64172">
        <ele>58.4</ele>
        <time>2020-06-22T08:30:08Z</time>
      </trkpt>
      <trkpt lat="50.65665" lon="1.64172">
        <ele>58.6</ele>
        <time>2020-06-22T08:30:09Z</time>
      </trkpt>
      <trkpt lat="50.65669" lon="1.64172">
        <ele>58.8</ele>
        <time>2020-06-22T08:30:10Z</time>
      </trkpt>
      <trkpt lat="50.65672" lon="1.64171">
        <ele>59</ele>
        <time>2020-06-22T08:30:11Z</time>
      </trkpt>
      <trkpt lat="50.65676" lon="1.64171">
        <ele>59.2</ele>
        <time>2020-06-22T08:30:12Z</time>
      </trkpt>
      <trkpt lat="50.6568" lon="1.64171">
        <ele>59.4</ele>
        <time>2020-06-22T08:30:13Z</time>
      </trkpt>
      <trkpt lat="50.65683" lon="1.6417">
        <ele>59.6</ele>
        <time>2020-06-22T08:30:14Z</time>
      </trkpt>
      <trkpt lat="50.65686" lon="1.6417">
        <ele>59.8</ele>
        <time>2020-06-22T08:30:15Z</time>
      </trkpt>
      <trkpt lat="50.65689" lon="1.64169">
        <ele>59.9</ele>
        <time>2020-06-22T08:30:16Z</time>
      </trkpt>
      <trkpt lat="50.65694" lon="1.64169">
        <ele>60.2</ele>
        <time>2020-06-22T08:30:17Z</time>
      </trkpt>
      <trkpt lat="50.65698" lon="1.64169">
        <ele>60.4</ele>
        <time>2020-06-22T08:30:18Z</time>
      </trkpt>
      <trkpt lat="50.65701" lon="1.64169">
        <ele>60.5</ele>
        <time>2020-06-22T08:30:19Z</time>
      </trkpt>
      <trkpt lat="50.65705" lon="1.64168">
        <ele>60.7</ele>
        <time>2020-06-22T08:30:20Z</time>
      </trkpt>
      <trkpt lat="50.65708" lon="1.64167">
        <ele>60.9</ele>
        <time>2020-06-22T08:30:21Z</time>
      </trkpt>
      <trkpt lat="50.65712" lon="1.64166">
        <ele>61.1</ele>
        <time>2020-06-22T08:30:22Z</time>
      </trkpt>
      <trkpt lat="50.65714" lon="1.64166">
        <ele>61.1</ele>
        <time>2020-06-22T08:30:23Z</time>
      </trkpt>
      <trkpt lat="50.65717" lon="1.64166">
        <ele>61.3</ele>
        <time>2020-06-22T08:30:24Z</time>
      </trkpt>
      <trkpt lat="50.65721" lon="1.64164">
        <ele>61.4</ele>
        <time>2020-06-22T08:30:25Z</time>
      </trkpt>
      <trkpt lat="50.65726" lon="1.64164">
        <ele>61.6</ele>
        <time>2020-06-22T08:30:26Z</time>
      </trkpt>
      <trkpt lat="50.65729" lon="1.64162">
        <ele>61.8</ele>
        <time>2020-06-22T08:30:27Z</time>
      </trkpt>
      <trkpt lat="50.65731" lon="1.64162">
        <ele>61.9</ele>
        <time>2020-06-22T08:30:28Z</time>
      </trkpt>
      <trkpt lat="50.65735" lon="1.64162">
        <ele>62</ele>
        <time>2020-06-22T08:30:29Z</time>
      </trkpt>
      <trkpt lat="50.65738" lon="1.64161">
        <ele>62.2</ele>
        <time>2020-06-22T08:30:30Z</time>
      </trkpt>
      <trkpt lat="50.65744" lon="1.64161">
        <ele>62.4</ele>
        <time>2020-06-22T08:30:31Z</time>
      </trkpt>
      <trkpt lat="50.65748" lon="1.64161">
        <ele>62.5</ele>
        <time>2020-06-22T08:30:32Z</time>
      </trkpt>
      <trkpt lat="50.65752" lon="1.6416">
        <ele>62.7</ele>
        <time>2020-06-22T08:30:33Z</time>
      </trkpt>
      <trkpt lat="50.65756" lon="1.6416">
        <ele>62.8</ele>
        <time>2020-06-22T08:30:34Z</time>
      </trkpt>
      <trkpt lat="50.6576" lon="1.64159">
        <ele>63</ele>
        <time>2020-06-22T08:30:35Z</time>
      </trkpt>
      <trkpt lat="50.65763" lon="1.64158">
        <ele>63.1</ele>
        <time>2020-06-22T08:30:36Z</time>
      </trkpt>
      <trkpt lat="50.65767" lon="1.64157">
        <ele>63.2</ele>
        <time>2020-06-22T08:30:37Z</time>
      </trkpt>
      <trkpt lat="50.65771" lon="1.64156">
        <ele>63.3</ele>
        <time>2020-06-22T08:30:38Z</time>
      </trkpt>
      <trkpt lat="50.65774" lon="1.64156">
        <ele>63.4</ele>
        <time>2020-06-22T08:30:39Z</time>
      </trkpt>
      <trkpt lat="50.65778" lon="1.64155">
        <ele>63.5</ele>
        <time>2020-06-22T08:30:40Z</time>
      </trkpt>
      <trkpt lat="50.65781" lon="1.64154">
        <ele>63.6</ele>
        <time>2020-06-22T08:30:41Z</time>
      </trkpt>
      <trkpt lat="50.65784" lon="1.64154">
        <ele>63.7</ele>
        <time>2020-06-22T08:30:42Z</time>
      </trkpt>
      <trkpt lat="50.65788" lon="1.64153">
        <ele>63.9</ele>
        <time>2020-06-22T08:30:43Z</time>
      </trkpt>
      <trkpt lat="50.65792" lon="1.64152">
        <ele>64</ele>
        <time>2020-06-22T08:30:44Z</time>
      </trkpt>
      <trkpt lat="50.65796" lon="1.64151">
        <ele>64.1</ele>
        <time>2020-06-22T08:30:45Z</time>
      </trkpt>
      <trkpt lat="50.65801" lon="1.6415">
        <ele>64.2</ele>
        <time>2020-06-22T08:30:46Z</time>
      </trkpt>
      <trkpt lat="50.65806" lon="1.64148">
        <ele>64.3</ele>
        <time>2020-06-22T08:30:47Z</time>
      </trkpt>
      <trkpt lat="50.6581" lon="1.64148">
        <ele>64.4</ele>
        <time>2020-06-22T08:30:48Z</time>
      </trkpt>
      <trkpt lat="50.65814" lon="1.64146">
        <ele>64.4</ele>
        <time>2020-06-22T08:30:49Z</time>
      </trkpt>
      <trkpt lat="50.65817" lon="1.64144">
        <ele>64.5</ele>
        <time>2020-06-22T08:30:50Z</time>
      </trkpt>
      <trkpt lat="50.65822" lon="1.64143">
        <ele>64.5</ele>
        <time>2020-06-22T08:30:51Z</time>
      </trkpt>
      <trkpt lat="50.65827" lon="1.64141">
        <ele>64.6</ele>
        <time>2020-06-22T08:30:52Z</time>
      </trkpt>
      <trkpt lat="50.65832" lon="1.6414">
        <ele>64.6</ele>
        <time>2020-06-22T08:30:53Z</time>
      </trkpt>
      <trkpt lat="50.65836" lon="1.64139">
        <ele>64.6</ele>
        <time>2020-06-22T08:30:54Z</time>
      </trkpt>
      <trkpt lat="50.6584" lon="1.64138">
        <ele>64.6</ele>
        <time>2020-06-22T08:30:55Z</time>
      </trkpt>
      <trkpt lat="50.65845" lon="1.64137">
        <ele>64.6</ele>
        <time>2020-06-22T08:30:56Z</time>
      </trkpt>
      <trkpt lat="50.65849" lon="1.64135">
        <ele>64.6</ele>
        <time>2020-06-22T08:30:57Z</time>
      </trkpt>
      <trkpt lat="50.65853" lon="1.64133">
        <ele>64.5</ele>
        <time>2020-06-22T08:30:58Z</time>
      </trkpt>
      <trkpt lat="50.65858" lon="1.64131">
        <ele>64.5</ele>
        <time>2020-06-22T08:30:59Z</time>
      </trkpt>
      <trkpt lat="50.65863" lon="1.64129">
        <ele>64.5</ele>
        <time>2020-06-22T08:31:00Z</time>
      </trkpt>
      <trkpt lat="50.65868" lon="1.64128">
        <ele>64.5</ele>
        <time>2020-06-22T08:31:01Z</time>
      </trkpt>
      <trkpt lat="50.65873" lon="1.64127">
        <ele>64.4</ele>
        <time>2020-06-22T08:31:02Z</time>
      </trkpt>
      <trkpt lat="50.65878" lon="1.64126">
        <ele>64.4</ele>
        <time>2020-06-22T08:31:03Z</time>
      </trkpt>
      <trkpt lat="50.65884" lon="1.64125">
        <ele>64.3</ele>
        <time>2020-06-22T08:31:04Z</time>
      </trkpt>
      <trkpt lat="50.65889" lon="1.64123">
        <ele>64.3</ele>
        <time>2020-06-22T08:31:05Z</time>
      </trkpt>
      <trkpt lat="50.65893" lon="1.64122">
        <ele>64.2</ele>
        <time>2020-06-22T08:31:06Z</time>
      </trkpt>
      <trkpt lat="50.65897" lon="1.64121">
        <ele>64.2</ele>
        <time>2020-06-22T08:31:07Z</time>
      </trkpt>
      <trkpt lat="50.65901" lon="1.64121">
        <ele>64.2</ele>
        <time>2020-06-22T08:31:08Z</time>
      </trkpt>
      <trkpt lat="50.65907" lon="1.64119">
        <ele>64.1</ele>
        <time>2020-06-22T08:31:09Z</time>
      </trkpt>
      <trkpt lat="50.65913" lon="1.64118">
        <ele>64</ele>
        <time>2020-06-22T08:31:10Z</time>
      </trkpt>
      <trkpt lat="50.65919" lon="1.64117">
        <ele>64</ele>
        <time>2020-06-22T08:31:11Z</time>
      </trkpt>
      <trkpt lat="50.65924" lon="1.64115">
        <ele>63.9</ele>
        <time>2020-06-22T08:31:12Z</time>
      </trkpt>
      <trkpt lat="50.6593" lon="1.64114">
        <ele>63.8</ele>
        <time>2020-06-22T08:31:13Z</time>
      </trkpt>
      <trkpt lat="50.65935" lon="1.64112">
        <ele>63.7</ele>
        <time>2020-06-22T08:31:14Z</time>
      </trkpt>
      <trkpt lat="50.65941" lon="1.64111">
        <ele>63.6</ele>
        <time>2020-06-22T08:31:15Z</time>
      </trkpt>
      <trkpt lat="50.65945" lon="1.6411">
        <ele>63.6</ele>
        <time>2020-06-22T08:31:16Z</time>
      </trkpt>
      <trkpt lat="50.6595" lon="1.64109">
        <ele>63.5</ele>
        <time>2020-06-22T08:31:17Z</time>
      </trkpt>
      <trkpt lat="50.65954" lon="1.64107">
        <ele>63.5</ele>
        <time>2020-06-22T08:31:18Z</time>
      </trkpt>
      <trkpt lat="50.65958" lon="1.64106">
        <ele>63.4</ele>
        <time>2020-06-22T08:31:19Z</time>
      </trkpt>
      <trkpt lat="50.65962" lon="1.64104">
        <ele>63.4</ele>
        <time>2020-06-22T08:31:20Z</time>
      </trkpt>
      <trkpt lat="50.65966" lon="1.64102">
        <ele>63.3</ele>
        <time>2020-06-22T08:31:21Z</time>
      </trkpt>
      <trkpt lat="50.6597" lon="1.641">
        <ele>63.3</ele>
        <time>2020-06-22T08:31:22Z</time>
      </trkpt>
      <trkpt lat="50.65976" lon="1.64098">
        <ele>63.2</ele>
        <time>2020-06-22T08:31:23Z</time>
      </trkpt>
      <trkpt lat="50.6598" lon="1.64096">
        <ele>63.1</ele>
        <time>2020-06-22T08:31:24Z</time>
      </trkpt>
      <trkpt lat="50.65987" lon="1.64093">
        <ele>62.9</ele>
        <time>2020-06-22T08:31:25Z</time>
      </trkpt>
      <trkpt lat="50.65992" lon="1.64091">
        <ele>62.8</ele>
        <time>2020-06-22T08:31:26Z</time>
      </trkpt>
      <trkpt lat="50.65998" lon="1.64089">
        <ele>62.6</ele>
        <time>2020-06-22T08:31:27Z</time>
      </trkpt>
      <trkpt lat="50.66005" lon="1.64087">
        <ele>62.4</ele>
        <time>2020-06-22T08:31:28Z</time>
      </trkpt>
      <trkpt lat="50.66011" lon="1.64085">
        <ele>62.1</ele>
        <time>2020-06-22T08:31:29Z</time>
      </trkpt>
      <trkpt lat="50.66017" lon="1.64083">
        <ele>61.8</ele>
        <time>2020-06-22T08:31:30Z</time>
      </trkpt>
      <trkpt lat="50.66024" lon="1.6408">
        <ele>61.5</ele>
        <time>2020-06-22T08:31:31Z</time>
      </trkpt>
      <trkpt lat="50.66029" lon="1.6408">
        <ele>61.3</ele>
        <time>2020-06-22T08:31:32Z</time>
      </trkpt>
      <trkpt lat="50.66036" lon="1.64079">
        <ele>60.9</ele>
        <time>2020-06-22T08:31:33Z</time>
      </trkpt>
      <trkpt lat="50.66044" lon="1.64076">
        <ele>60.5</ele>
        <time>2020-06-22T08:31:34Z</time>
      </trkpt>
      <trkpt lat="50.66052" lon="1.64073">
        <ele>60.1</ele>
        <time>2020-06-22T08:31:35Z</time>
      </trkpt>
      <trkpt lat="50.66059" lon="1.64071">
        <ele>59.6</ele>
        <time>2020-06-22T08:31:36Z</time>
      </trkpt>
      <trkpt lat="50.66067" lon="1.64069">
        <ele>59.2</ele>
        <time>2020-06-22T08:31:37Z</time>
      </trkpt>
      <trkpt lat="50.66073" lon="1.64067">
        <ele>58.8</ele>
        <time>2020-06-22T08:31:38Z</time>
      </trkpt>
      <trkpt lat="50.6608" lon="1.64065">
        <ele>58.4</ele>
        <time>2020-06-22T08:31:39Z</time>
      </trkpt>
      <trkpt lat="50.66087" lon="1.64062">
        <ele>57.9</ele>
        <time>2020-06-22T08:31:40Z</time>
      </trkpt>
      <trkpt lat="50.66094" lon="1.6406">
        <ele>57.4</ele>
        <time>2020-06-22T08:31:41Z</time>
      </trkpt>
      <trkpt lat="50.66102" lon="1.64058">
        <ele>56.7</ele>
        <time>2020-06-22T08:31:42Z</time>
      </trkpt>
      <trkpt lat="50.66109" lon="1.64057">
        <ele>56.1</ele>
        <time>2020-06-22T08:31:43Z</time>
      </trkpt>
      <trkpt lat="50.66118" lon="1.64056">
        <ele>55.4</ele>
        <time>2020-06-22T08:31:44Z</time>
      </trkpt>
      <trkpt lat="50.66126" lon="1.64054">
        <ele>54.7</ele>
        <time>2020-06-22T08:31:45Z</time>
      </trkpt>
      <trkpt lat="50.66136" lon="1.64052">
        <ele>54</ele>
        <time>2020-06-22T08:31:46Z</time>
      </trkpt>
      <trkpt lat="50.66147" lon="1.64052">
        <ele>53.4</ele>
        <time>2020-06-22T08:31:47Z</time>
      </trkpt>
      <trkpt lat="50.66157" lon="1.64052">
        <ele>52.8</ele>
        <time>2020-06-22T08:31:48Z</time>
      </trkpt>
      <trkpt lat="50.66168" lon="1.64052">
        <ele>52.3</ele>
        <time>2020-06-22T08:31:49Z</time>
      </trkpt>
      <trkpt lat="50.66178" lon="1.64051">
        <ele>52</ele>
        <time>2020-06-22T08:31:50Z</time>
      </trkpt>
      <trkpt lat="50.66188" lon="1.64053">
        <ele>51.9</ele>
        <time>2020-06-22T08:31:51Z</time>
      </trkpt>
      <trkpt lat="50.66197" lon="1.64056">
        <ele>51.7</ele>
        <time>2020-06-22T08:31:52Z</time>
      </trkpt>
      <trkpt lat="50.66206" lon="1.6406">
        <ele>51.7</ele>
        <time>2020-06-22T08:31:53Z</time>
      </trkpt>
      <trkpt lat="50.66214" lon="1.64064">
        <ele>51.8</ele>
        <time>2020-06-22T08:31:54Z</time>
      </trkpt>
      <trkpt lat="50.66222" lon="1.64068">
        <ele>52.1</ele>
        <time>2020-06-22T08:31:55Z</time>
      </trkpt>
      <trkpt lat="50.6623" lon="1.64072">
        <ele>52.3</ele>
        <time>2020-06-22T08:31:56Z</time>
      </trkpt>
      <trkpt lat="50.66237" lon="1.64075">
        <ele>52.6</ele>
        <time>2020-06-22T08:31:57Z</time>
      </trkpt>
      <trkpt lat="50.66245" lon="1.64079">
        <ele>52.9</ele>
        <time>2020-06-22T08:31:58Z</time>
      </trkpt>
      <trkpt lat="50.66252" lon="1.64083">
        <ele>53.2</ele>
        <time>2020-06-22T08:31:59Z</time>
      </trkpt>
      <trkpt lat="50.66259" lon="1.64088">
        <ele>53.5</ele>
        <time>2020-06-22T08:32:00Z</time>
      </trkpt>
      <trkpt lat="50.66266" lon="1.64092">
        <ele>53.9</ele>
        <time>2020-06-22T08:32:01Z</time>
      </trkpt>
      <trkpt lat="50.66272" lon="1.64095">
        <ele>54.2</ele>
        <time>2020-06-22T08:32:02Z</time>
      </trkpt>
      <trkpt lat="50.66278" lon="1.64099">
        <ele>54.5</ele>
        <time>2020-06-22T08:32:03Z</time>
      </trkpt>
      <trkpt lat="50.66284" lon="1.64103">
        <ele>54.7</ele>
        <time>2020-06-22T08:32:04Z</time>
      </trkpt>
      <trkpt lat="50.6629" lon="1.64106">
        <ele>55</ele>
        <time>2020-06-22T08:32:05Z</time>
      </trkpt>
      <trkpt lat="50.66296" lon="1.64108">
        <ele>55.2</ele>
        <time>2020-06-22T08:32:06Z</time>
      </trkpt>
      <trkpt lat="50.66301" lon="1.64112">
        <ele>55.4</ele>
        <time>2020-06-22T08:32:07Z</time>
      </trkpt>
      <trkpt lat="50.66306" lon="1.64116">
        <ele>55.7</ele>
        <time>2020-06-22T08:32:08Z</time>
      </trkpt>
      <trkpt lat="50.66312" lon="1.64119">
        <ele>55.9</ele>
        <time>2020-06-22T08:32:09Z</time>
      </trkpt>
      <trkpt lat="50.66318" lon="1.64123">
        <ele>56.2</ele>
        <time>2020-06-22T08:32:10Z</time>
      </trkpt>
      <trkpt lat="50.66323" lon="1.64126">
        <ele>56.4</ele>
        <time>2020-06-22T08:32:11Z</time>
      </trkpt>
      <trkpt lat="50.66329" lon="1.64129">
        <ele>56.6</ele>
        <time>2020-06-22T08:32:12Z</time>
      </trkpt>
      <trkpt lat="50.66334" lon="1.64132">
        <ele>56.8</ele>
        <time>2020-06-22T08:32:13Z</time>
      </trkpt>
      <trkpt lat="50.6634" lon="1.64135">
        <ele>57</ele>
        <time>2020-06-22T08:32:14Z</time>
      </trkpt>
      <trkpt lat="50.66345" lon="1.64139">
        <ele>57.2</ele>
        <time>2020-06-22T08:32:15Z</time>
      </trkpt>
      <trkpt lat="50.6635" lon="1.64142">
        <ele>57.4</ele>
        <time>2020-06-22T08:32:16Z</time>
      </trkpt>
      <trkpt lat="50.66355" lon="1.64145">
        <ele>57.6</ele>
        <time>2020-06-22T08:32:17Z</time>
      </trkpt>
      <trkpt lat="50.6636" lon="1.64148">
        <ele>57.8</ele>
        <time>2020-06-22T08:32:18Z</time>
      </trkpt>
      <trkpt lat="50.66366" lon="1.6415">
        <ele>57.9</ele>
        <time>2020-06-22T08:32:19Z</time>
      </trkpt>
      <trkpt lat="50.66372" lon="1.64151">
        <ele>58.1</ele>
        <time>2020-06-22T08:32:20Z</time>
      </trkpt>
      <trkpt lat="50.66377" lon="1.64153">
        <ele>58.2</ele>
        <time>2020-06-22T08:32:21Z</time>
      </trkpt>
      <trkpt lat="50.66383" lon="1.64154">
        <ele>58.4</ele>
        <time>2020-06-22T08:32:22Z</time>
      </trkpt>
      <trkpt lat="50.66388" lon="1.64156">
        <ele>58.6</ele>
        <time>2020-06-22T08:32:23Z</time>
      </trkpt>
      <trkpt lat="50.66394" lon="1.64155">
        <ele>58.7</ele>
        <time>2020-06-22T08:32:24Z</time>
      </trkpt>
      <trkpt lat="50.664" lon="1.64155">
        <ele>58.9</ele>
        <time>2020-06-22T08:32:25Z</time>
      </trkpt>
      <trkpt lat="50.66406" lon="1.64155">
        <ele>59.1</ele>
        <time>2020-06-22T08:32:26Z</time>
      </trkpt>
      <trkpt lat="50.66412" lon="1.64156">
        <ele>59.3</ele>
        <time>2020-06-22T08:32:27Z</time>
      </trkpt>
      <trkpt lat="50.66419" lon="1.64155">
        <ele>59.5</ele>
        <time>2020-06-22T08:32:28Z</time>
      </trkpt>
      <trkpt lat="50.66425" lon="1.64153">
        <ele>59.7</ele>
        <time>2020-06-22T08:32:29Z</time>
      </trkpt>
      <trkpt lat="50.66432" lon="1.64152">
        <ele>59.9</ele>
        <time>2020-06-22T08:32:30Z</time>
      </trkpt>
      <trkpt lat="50.66438" lon="1.64151">
        <ele>60.1</ele>
        <time>2020-06-22T08:32:31Z</time>
      </trkpt>
      <trkpt lat="50.66443" lon="1.6415">
        <ele>60.3</ele>
        <time>2020-06-22T08:32:32Z</time>
      </trkpt>
      <trkpt lat="50.66449" lon="1.64148">
        <ele>60.5</ele>
        <time>2020-06-22T08:32:33Z</time>
      </trkpt>
      <trkpt lat="50.66456" lon="1.64145">
        <ele>60.7</ele>
        <time>2020-06-22T08:32:34Z</time>
      </trkpt>
      <trkpt lat="50.66461" lon="1.64142">
        <ele>60.9</ele>
        <time>2020-06-22T08:32:35Z</time>
      </trkpt>
      <trkpt lat="50.66466" lon="1.64139">
        <ele>61.1</ele>
        <time>2020-06-22T08:32:36Z</time>
      </trkpt>
      <trkpt lat="50.66471" lon="1.64136">
        <ele>61.3</ele>
        <time>2020-06-22T08:32:37Z</time>
      </trkpt>
      <trkpt lat="50.66478" lon="1.64132">
        <ele>61.6</ele>
        <time>2020-06-22T08:32:38Z</time>
      </trkpt>
      <trkpt lat="50.66484" lon="1.64129">
        <ele>61.8</ele>
        <time>2020-06-22T08:32:39Z</time>
      </trkpt>
      <trkpt lat="50.6649" lon="1.64126">
        <ele>62</ele>
        <time>2020-06-22T08:32:40Z</time>
      </trkpt>
      <trkpt lat="50.66497" lon="1.64123">
        <ele>62.2</ele>
        <time>2020-06-22T08:32:41Z</time>
      </trkpt>
      <trkpt lat="50.66502" lon="1.6412">
        <ele>62.4</ele>
        <time>2020-06-22T08:32:42Z</time>
      </trkpt>
      <trkpt lat="50.66508" lon="1.64116">
        <ele>62.6</ele>
        <time>2020-06-22T08:32:43Z</time>
      </trkpt>
      <trkpt lat="50.66513" lon="1.64112">
        <ele>62.8</ele>
        <time>2020-06-22T08:32:44Z</time>
      </trkpt>
      <trkpt lat="50.66518" lon="1.64109">
        <ele>63</ele>
        <time>2020-06-22T08:32:45Z</time>
      </trkpt>
      <trkpt lat="50.66524" lon="1.64104">
        <ele>63.2</ele>
        <time>2020-06-22T08:32:46Z</time>
      </trkpt>
      <trkpt lat="50.66528" lon="1.64099">
        <ele>63.4</ele>
        <time>2020-06-22T08:32:47Z</time>
      </trkpt>
      <trkpt lat="50.66534" lon="1.64093">
        <ele>63.7</ele>
        <time>2020-06-22T08:32:48Z</time>
      </trkpt>
      <trkpt lat="50.66539" lon="1.64088">
        <ele>63.9</ele>
        <time>2020-06-22T08:32:49Z</time>
      </trkpt>
      <trkpt lat="50.66543" lon="1.64083">
        <ele>64.1</ele>
        <time>2020-06-22T08:32:50Z</time>
      </trkpt>
      <trkpt lat="50.66548" lon="1.64078">
        <ele>64.3</ele>
        <time>2020-06-22T08:32:51Z</time>
      </trkpt>
      <trkpt lat="50.66553" lon="1.64073">
        <ele>64.4</ele>
        <time>2020-06-22T08:32:52Z</time>
      </trkpt>
      <trkpt lat="50.66557" lon="1.64069">
        <ele>64.5</ele>
        <time>2020-06-22T08:32:53Z</time>
      </trkpt>
      <trkpt lat="50.66562" lon="1.64064">
        <ele>64.6</ele>
        <time>2020-06-22T08:32:54Z</time>
      </trkpt>
      <trkpt lat="50.66566" lon="1.6406">
        <ele>64.6</ele>
        <time>2020-06-22T08:32:55Z</time>
      </trkpt>
      <trkpt lat="50.66569" lon="1.64056">
        <ele>64.6</ele>
        <time>2020-06-22T08:32:56Z</time>
      </trkpt>
      <trkpt lat="50.66573" lon="1.64052">
        <ele>64.6</ele>
        <time>2020-06-22T08:32:57Z</time>
      </trkpt>
      <trkpt lat="50.66576" lon="1.64048">
        <ele>64.6</ele>
        <time>2020-06-22T08:32:58Z</time>
      </trkpt>
      <trkpt lat="50.66578" lon="1.64046">
        <ele>64.6</ele>
        <time>2020-06-22T08:32:59Z</time>
      </trkpt>
      <trkpt lat="50.66581" lon="1.64041">
        <ele>64.6</ele>
        <time>2020-06-22T08:33:00Z</time>
      </trkpt>
      <trkpt lat="50.66585" lon="1.64036">
        <ele>64.6</ele>
        <time>2020-06-22T08:33:01Z</time>
      </trkpt>
      <trkpt lat="50.66587" lon="1.64035">
        <ele>64.6</ele>
        <time>2020-06-22T08:33:02Z</time>
      </trkpt>
      <trkpt lat="50.66591" lon="1.6403">
        <ele>64.6</ele>
        <time>2020-06-22T08:33:03Z</time>
      </trkpt>
      <trkpt lat="50.66596" lon="1.64024">
        <ele>64.5</ele>
        <time>2020-06-22T08:33:04Z</time>
      </trkpt>
      <trkpt lat="50.666" lon="1.64019">
        <ele>64.5</ele>
        <time>2020-06-22T08:33:05Z</time>
      </trkpt>
      <trkpt lat="50.66604" lon="1.64014">
        <ele>64.3</ele>
        <time>2020-06-22T08:33:06Z</time>
      </trkpt>
      <trkpt lat="50.66608" lon="1.64006">
        <ele>64.1</ele>
        <time>2020-06-22T08:33:07Z</time>
      </trkpt>
      <trkpt lat="50.66611" lon="1.64001">
        <ele>64</ele>
        <time>2020-06-22T08:33:08Z</time>
      </trkpt>
      <trkpt lat="50.66614" lon="1.63995">
        <ele>63.9</ele>
        <time>2020-06-22T08:33:09Z</time>
      </trkpt>
      <trkpt lat="50.66618" lon="1.6399">
        <ele>63.8</ele>
        <time>2020-06-22T08:33:10Z</time>
      </trkpt>
      <trkpt lat="50.66621" lon="1.63988">
        <ele>63.7</ele>
        <time>2020-06-22T08:33:11Z</time>
      </trkpt>
      <trkpt lat="50.66625" lon="1.63983">
        <ele>63.5</ele>
        <time>2020-06-22T08:33:12Z</time>
      </trkpt>
      <trkpt lat="50.66631" lon="1.63978">
        <ele>63.3</ele>
        <time>2020-06-22T08:33:13Z</time>
      </trkpt>
      <trkpt lat="50.66635" lon="1.63973">
        <ele>63.1</ele>
        <time>2020-06-22T08:33:14Z</time>
      </trkpt>
      <trkpt lat="50.66639" lon="1.63966">
        <ele>62.8</ele>
        <time>2020-06-22T08:33:15Z</time>
      </trkpt>
      <trkpt lat="50.66644" lon="1.6396">
        <ele>62.5</ele>
        <time>2020-06-22T08:33:16Z</time>
      </trkpt>
      <trkpt lat="50.66649" lon="1.63953">
        <ele>62.2</ele>
        <time>2020-06-22T08:33:17Z</time>
      </trkpt>
      <trkpt lat="50.66655" lon="1.63944">
        <ele>61.8</ele>
        <time>2020-06-22T08:33:18Z</time>
      </trkpt>
      <trkpt lat="50.66659" lon="1.63939">
        <ele>61.5</ele>
        <time>2020-06-22T08:33:19Z</time>
      </trkpt>
      <trkpt lat="50.66664" lon="1.63933">
        <ele>61.2</ele>
        <time>2020-06-22T08:33:20Z</time>
      </trkpt>
      <trkpt lat="50.66668" lon="1.63926">
        <ele>60.9</ele>
        <time>2020-06-22T08:33:21Z</time>
      </trkpt>
      <trkpt lat="50.66672" lon="1.6392">
        <ele>60.6</ele>
        <time>2020-06-22T08:33:22Z</time>
      </trkpt>
      <trkpt lat="50.66675" lon="1.63913">
        <ele>60.3</ele>
        <time>2020-06-22T08:33:23Z</time>
      </trkpt>
      <trkpt lat="50.66679" lon="1.63906">
        <ele>60</ele>
        <time>2020-06-22T08:33:24Z</time>
      </trkpt>
      <trkpt lat="50.66683" lon="1.63899">
        <ele>59.6</ele>
        <time>2020-06-22T08:33:25Z</time>
      </trkpt>
      <trkpt lat="50.66686" lon="1.63892">
        <ele>59.3</ele>
        <time>2020-06-22T08:33:26Z</time>
      </trkpt>
      <trkpt lat="50.66688" lon="1.63883">
        <ele>58.9</ele>
        <time>2020-06-22T08:33:27Z</time>
      </trkpt>
      <trkpt lat="50.66692" lon="1.63874">
        <ele>58.4</ele>
        <time>2020-06-22T08:33:28Z</time>
      </trkpt>
      <trkpt lat="50.66696" lon="1.63865">
        <ele>57.8</ele>
        <time>2020-06-22T08:33:29Z</time>
      </trkpt>
      <trkpt lat="50.667" lon="1.63857">
        <ele>57.2</ele>
        <time>2020-06-22T08:33:30Z</time>
      </trkpt>
      <trkpt lat="50.66704" lon="1.63847">
        <ele>56.4</ele>
        <time>2020-06-22T08:33:31Z</time>
      </trkpt>
      <trkpt lat="50.66709" lon="1.63834">
        <ele>55.5</ele>
        <time>2020-06-22T08:33:32Z</time>
      </trkpt>
      <trkpt lat="50.66714" lon="1.63819">
        <ele>54.4</ele>
        <time>2020-06-22T08:33:33Z</time>
      </trkpt>
      <trkpt lat="50.66718" lon="1.63801">
        <ele>53.2</ele>
        <time>2020-06-22T08:33:34Z</time>
      </trkpt>
      <trkpt lat="50.66722" lon="1.63784">
        <ele>51.9</ele>
        <time>2020-06-22T08:33:35Z</time>
      </trkpt>
      <trkpt lat="50.66725" lon="1.63769">
        <ele>50.8</ele>
        <time>2020-06-22T08:33:36Z</time>
      </trkpt>
      <trkpt lat="50.66728" lon="1.63749">
        <ele>49.6</ele>
        <time>2020-06-22T08:33:37Z</time>
      </trkpt>
      <trkpt lat="50.6673" lon="1.63728">
        <ele>48.2</ele>
        <time>2020-06-22T08:33:38Z</time>
      </trkpt>
      <trkpt lat="50.66731" lon="1.63708">
        <ele>47.1</ele>
        <time>2020-06-22T08:33:39Z</time>
      </trkpt>
      <trkpt lat="50.66731" lon="1.63687">
        <ele>46.1</ele>
        <time>2020-06-22T08:33:40Z</time>
      </trkpt>
      <trkpt lat="50.66731" lon="1.63667">
        <ele>45.3</ele>
        <time>2020-06-22T08:33:41Z</time>
      </trkpt>
      <trkpt lat="50.66731" lon="1.63647">
        <ele>44.7</ele>
        <time>2020-06-22T08:33:42Z</time>
      </trkpt>
      <trkpt lat="50.66731" lon="1.63627">
        <ele>44.3</ele>
        <time>2020-06-22T08:33:43Z</time>
      </trkpt>
      <trkpt lat="50.66731" lon="1.63607">
        <ele>43.9</ele>
        <time>2020-06-22T08:33:44Z</time>
      </trkpt>
      <trkpt lat="50.66734" lon="1.63588">
        <ele>43.6</ele>
        <time>2020-06-22T08:33:45Z</time>
      </trkpt>
      <trkpt lat="50.66736" lon="1.63568">
        <ele>43.4</ele>
        <time>2020-06-22T08:33:46Z</time>
      </trkpt>
      <trkpt lat="50.6674" lon="1.63552">
        <ele>43.2</ele>
        <time>2020-06-22T08:33:47Z</time>
      </trkpt>
      <trkpt lat="50.66745" lon="1.63538">
        <ele>43</ele>
        <time>2020-06-22T08:33:48Z</time>
      </trkpt>
      <trkpt lat="50.66753" lon="1.63527">
        <ele>42.9</ele>
        <time>2020-06-22T08:33:49Z</time>
      </trkpt>
      <trkpt lat="50.66761" lon="1.63519">
        <ele>42.7</ele>
        <time>2020-06-22T08:33:50Z</time>
      </trkpt>
      <trkpt lat="50.66771" lon="1.63515">
        <ele>42.9</ele>
        <time>2020-06-22T08:33:51Z</time>
      </trkpt>
      <trkpt lat="50.6678" lon="1.63511">
        <ele>43</ele>
        <time>2020-06-22T08:33:52Z</time>
      </trkpt>
      <trkpt lat="50.66789" lon="1.6351">
        <ele>43</ele>
        <time>2020-06-22T08:33:53Z</time>
      </trkpt>
      <trkpt lat="50.66798" lon="1.63511">
        <ele>43</ele>
        <time>2020-06-22T08:33:54Z</time>
      </trkpt>
      <trkpt lat="50.66807" lon="1.63513">
        <ele>43.1</ele>
        <time>2020-06-22T08:33:55Z</time>
      </trkpt>
      <trkpt lat="50.66815" lon="1.63515">
        <ele>43.2</ele>
        <time>2020-06-22T08:33:56Z</time>
      </trkpt>
      <trkpt lat="50.66824" lon="1.63517">
        <ele>43.4</ele>
        <time>2020-06-22T08:33:57Z</time>
      </trkpt>
      <trkpt lat="50.66832" lon="1.63518">
        <ele>43.5</ele>
        <time>2020-06-22T08:33:58Z</time>
      </trkpt>
      <trkpt lat="50.6684" lon="1.6352">
        <ele>43.7</ele>
        <time>2020-06-22T08:33:59Z</time>
      </trkpt>
      <trkpt lat="50.66848" lon="1.63523">
        <ele>43.8</ele>
        <time>2020-06-22T08:34:00Z</time>
      </trkpt>
      <trkpt lat="50.66855" lon="1.63524">
        <ele>44</ele>
        <time>2020-06-22T08:34:01Z</time>
      </trkpt>
      <trkpt lat="50.66863" lon="1.63526">
        <ele>44.1</ele>
        <time>2020-06-22T08:34:02Z</time>
      </trkpt>
      <trkpt lat="50.6687" lon="1.63527">
        <ele>44.3</ele>
        <time>2020-06-22T08:34:03Z</time>
      </trkpt>
      <trkpt lat="50.66877" lon="1.63528">
        <ele>44.5</ele>
        <time>2020-06-22T08:34:04Z</time>
      </trkpt>
      <trkpt lat="50.66884" lon="1.6353">
        <ele>44.6</ele>
        <time>2020-06-22T08:34:05Z</time>
      </trkpt>
      <trkpt lat="50.6689" lon="1.63531">
        <ele>44.8</ele>
        <time>2020-06-22T08:34:06Z</time>
      </trkpt>
      <trkpt lat="50.66896" lon="1.63532">
        <ele>44.9</ele>
        <time>2020-06-22T08:34:07Z</time>
      </trkpt>
      <trkpt lat="50.66902" lon="1.63534">
        <ele>45</ele>
        <time>2020-06-22T08:34:08Z</time>
      </trkpt>
      <trkpt lat="50.66907" lon="1.63536">
        <ele>45.1</ele>
        <time>2020-06-22T08:34:09Z</time>
      </trkpt>
      <trkpt lat="50.66913" lon="1.63537">
        <ele>45.1</ele>
        <time>2020-06-22T08:34:10Z</time>
      </trkpt>
      <trkpt lat="50.66918" lon="1.63539">
        <ele>45.1</ele>
        <time>2020-06-22T08:34:11Z</time>
      </trkpt>
      <trkpt lat="50.66924" lon="1.63541">
        <ele>45.1</ele>
        <time>2020-06-22T08:34:12Z</time>
      </trkpt>
      <trkpt lat="50.6693" lon="1.63542">
        <ele>45.1</ele>
        <time>2020-06-22T08:34:13Z</time>
      </trkpt>
      <trkpt lat="50.66936" lon="1.63543">
        <ele>45.1</ele>
        <time>2020-06-22T08:34:14Z</time>
      </trkpt>
      <trkpt lat="50.66942" lon="1.63544">
        <ele>45.1</ele>
        <time>2020-06-22T08:34:15Z</time>
      </trkpt>
      <trkpt lat="50.66948" lon="1.63546">
        <ele>45.1</ele>
        <time>2020-06-22T08:34:16Z</time>
      </trkpt>
      <trkpt lat="50.66954" lon="1.63549">
        <ele>45</ele>
        <time>2020-06-22T08:34:17Z</time>
      </trkpt>
      <trkpt lat="50.66959" lon="1.63552">
        <ele>45</ele>
        <time>2020-06-22T08:34:18Z</time>
      </trkpt>
      <trkpt lat="50.66964" lon="1.63553">
        <ele>44.9</ele>
        <time>2020-06-22T08:34:19Z</time>
      </trkpt>
      <trkpt lat="50.66968" lon="1.63554">
        <ele>44.9</ele>
        <time>2020-06-22T08:34:20Z</time>
      </trkpt>
      <trkpt lat="50.66971" lon="1.63557">
        <ele>44.8</ele>
        <time>2020-06-22T08:34:21Z</time>
      </trkpt>
      <trkpt lat="50.66974" lon="1.63557">
        <ele>44.9</ele>
        <time>2020-06-22T08:34:22Z</time>
      </trkpt>
      <trkpt lat="50.66974" lon="1.63558">
        <ele>44.9</ele>
        <time>2020-06-22T08:34:23Z</time>
      </trkpt>
      <trkpt lat="50.66973" lon="1.63559">
        <ele>44.9</ele>
        <time>2020-06-22T08:34:24Z</time>
      </trkpt>
      <trkpt lat="50.66974" lon="1.63559">
        <ele>44.9</ele>
        <time>2020-06-22T08:34:25Z</time>
      </trkpt>
      <trkpt lat="50.66974" lon="1.6356">
        <ele>44.9</ele>
        <time>2020-06-22T08:34:26Z</time>
      </trkpt>
      <trkpt lat="50.66974" lon="1.6356">
        <ele>44.9</ele>
        <time>2020-06-22T08:34:27Z</time>
      </trkpt>
      <trkpt lat="50.66974" lon="1.63561">
        <ele>44.9</ele>
        <time>2020-06-22T08:34:28Z</time>
      </trkpt>
      <trkpt lat="50.66974" lon="1.63562">
        <ele>44.9</ele>
        <time>2020-06-22T08:34:29Z</time>
      </trkpt>
      <trkpt lat="50.66975" lon="1.63561">
        <ele>44.9</ele>
        <time>2020-06-22T08:34:30Z</time>
      </trkpt>
      <trkpt lat="50.66975" lon="1.6356">
        <ele>44.9</ele>
        <time>2020-06-22T08:34:31Z</time>
      </trkpt>
      <trkpt lat="50.66976" lon="1.63559">
        <ele>44.9</ele>
        <time>2020-06-22T08:34:32Z</time>
      </trkpt>
      <trkpt lat="50.66976" lon="1.63559">
        <ele>44.9</ele>
        <time>2020-06-22T08:34:33Z</time>
      </trkpt>
      <trkpt lat="50.66977" lon="1.63559">
        <ele>44.9</ele>
        <time>2020-06-22T08:34:34Z</time>
      </trkpt>
      <trkpt lat="50.66977" lon="1.63559">
        <ele>44.9</ele>
        <time>2020-06-22T08:34:35Z</time>
      </trkpt>
      <trkpt lat="50.66977" lon="1.63558">
        <ele>44.9</ele>
        <time>2020-06-22T08:34:36Z</time>
      </trkpt>
      <trkpt lat="50.66976" lon="1.63558">
        <ele>44.9</ele>
        <time>2020-06-22T08:34:37Z</time>
      </trkpt>
      <trkpt lat="50.66975" lon="1.63559">
        <ele>44.9</ele>
        <time>2020-06-22T08:34:38Z</time>
      </trkpt>
      <trkpt lat="50.66975" lon="1.63559">
        <ele>45</ele>
        <time>2020-06-22T08:34:39Z</time>
      </trkpt>
      <trkpt lat="50.66974" lon="1.63559">
        <ele>45</ele>
        <time>2020-06-22T08:34:40Z</time>
      </trkpt>
      <trkpt lat="50.66973" lon="1.6356">
        <ele>45</ele>
        <time>2020-06-22T08:34:41Z</time>
      </trkpt>
      <trkpt lat="50.66973" lon="1.6356">
        <ele>45</ele>
        <time>2020-06-22T08:34:42Z</time>
      </trkpt>
      <trkpt lat="50.66972" lon="1.63562">
        <ele>45</ele>
        <time>2020-06-22T08:34:43Z</time>
      </trkpt>
      <trkpt lat="50.66971" lon="1.63562">
        <ele>45</ele>
        <time>2020-06-22T08:34:44Z</time>
      </trkpt>
      <trkpt lat="50.6697" lon="1.63563">
        <ele>45</ele>
        <time>2020-06-22T08:34:45Z</time>
      </trkpt>
      <trkpt lat="50.66968" lon="1.63562">
        <ele>45</ele>
        <time>2020-06-22T08:34:46Z</time>
      </trkpt>
      <trkpt lat="50.66968" lon="1.63562">
        <ele>45</ele>
        <time>2020-06-22T08:34:47Z</time>
      </trkpt>
      <trkpt lat="50.66967" lon="1.63561">
        <ele>45</ele>
        <time>2020-06-22T08:34:48Z</time>
      </trkpt>
      <trkpt lat="50.66967" lon="1.63561">
        <ele>45</ele>
        <time>2020-06-22T08:34:49Z</time>
      </trkpt>
      <trkpt lat="50.66967" lon="1.63561">
        <ele>45</ele>
        <time>2020-06-22T08:34:50Z</time>
      </trkpt>
      <trkpt lat="50.66966" lon="1.6356">
        <ele>45</ele>
        <time>2020-06-22T08:34:51Z</time>
      </trkpt>
      <trkpt lat="50.66966" lon="1.6356">
        <ele>45</ele>
        <time>2020-06-22T08:34:52Z</time>
      </trkpt>
      <trkpt lat="50.66966" lon="1.6356">
        <ele>45</ele>
        <time>2020-06-22T08:34:53Z</time>
      </trkpt>
      <trkpt lat="50.66964" lon="1.63559">
        <ele>45</ele>
        <time>2020-06-22T08:34:54Z</time>
      </trkpt>
      <trkpt lat="50.66962" lon="1.63556">
        <ele>45</ele>
        <time>2020-06-22T08:34:55Z</time>
      </trkpt>
      <trkpt lat="50.66962" lon="1.63555">
        <ele>45.1</ele>
        <time>2020-06-22T08:34:56Z</time>
      </trkpt>
      <trkpt lat="50.66959" lon="1.63553">
        <ele>45.1</ele>
        <time>2020-06-22T08:34:57Z</time>
      </trkpt>
      <trkpt lat="50.66958" lon="1.63552">
        <ele>45.1</ele>
        <time>2020-06-22T08:34:58Z</time>
      </trkpt>
      <trkpt lat="50.66956" lon="1.63551">
        <ele>45.1</ele>
        <time>2020-06-22T08:34:59Z</time>
      </trkpt>
      <trkpt lat="50.66955" lon="1.6355">
        <ele>45.1</ele>
        <time>2020-06-22T08:35:00Z</time>
      </trkpt>
      <trkpt lat="50.66954" lon="1.6355">
        <ele>45.1</ele>
        <time>2020-06-22T08:35:01Z</time>
      </trkpt>
      <trkpt lat="50.66954" lon="1.63551">
        <ele>45.1</ele>
        <time>2020-06-22T08:35:02Z</time>
      </trkpt>
      <trkpt lat="50.66953" lon="1.6355">
        <ele>45.1</ele>
        <time>2020-06-22T08:35:03Z</time>
      </trkpt>
      <trkpt lat="50.66952" lon="1.6355">
        <ele>45.1</ele>
        <time>2020-06-22T08:35:04Z</time>
      </trkpt>
      <trkpt lat="50.66951" lon="1.6355">
        <ele>45.1</ele>
        <time>2020-06-22T08:35:05Z</time>
      </trkpt>
      <trkpt lat="50.66949" lon="1.63551">
        <ele>45.1</ele>
        <time>2020-06-22T08:35:06Z</time>
      </trkpt>
      <trkpt lat="50.66946" lon="1.63548">
        <ele>45.1</ele>
        <time>2020-06-22T08:35:07Z</time>
      </trkpt>
      <trkpt lat="50.66945" lon="1.63547">
        <ele>45.1</ele>
        <time>2020-06-22T08:35:08Z</time>
      </trkpt>
      <trkpt lat="50.66943" lon="1.63547">
        <ele>45.1</ele>
        <time>2020-06-22T08:35:09Z</time>
      </trkpt>
      <trkpt lat="50.66941" lon="1.63549">
        <ele>45.1</ele>
        <time>2020-06-22T08:35:10Z</time>
      </trkpt>
      <trkpt lat="50.66938" lon="1.63549">
        <ele>45.1</ele>
        <time>2020-06-22T08:35:11Z</time>
      </trkpt>
      <trkpt lat="50.66938" lon="1.63549">
        <ele>45.1</ele>
        <time>2020-06-22T08:35:12Z</time>
      </trkpt>
      <trkpt lat="50.66935" lon="1.63549">
        <ele>45.1</ele>
        <time>2020-06-22T08:35:13Z</time>
      </trkpt>
      <trkpt lat="50.66934" lon="1.63549">
        <ele>45.1</ele>
        <time>2020-06-22T08:35:14Z</time>
      </trkpt>
      <trkpt lat="50.6693" lon="1.63548">
        <ele>45.1</ele>
        <time>2020-06-22T08:35:15Z</time>
      </trkpt>
      <trkpt lat="50.66929" lon="1.63548">
        <ele>45.1</ele>
        <time>2020-06-22T08:35:16Z</time>
      </trkpt>
      <trkpt lat="50.66926" lon="1.63546">
        <ele>45.1</ele>
        <time>2020-06-22T08:35:17Z</time>
      </trkpt>
      <trkpt lat="50.66925" lon="1.63546">
        <ele>45.1</ele>
        <time>2020-06-22T08:35:18Z</time>
      </trkpt>
      <trkpt lat="50.66922" lon="1.63546">
        <ele>45.1</ele>
        <time>2020-06-22T08:35:19Z</time>
      </trkpt>
      <trkpt lat="50.66921" lon="1.63545">
        <ele>45.1</ele>
        <time>2020-06-22T08:35:20Z</time>
      </trkpt>
      <trkpt lat="50.66918" lon="1.63545">
        <ele>45.1</ele>
        <time>2020-06-22T08:35:21Z</time>
      </trkpt>
      <trkpt lat="50.66916" lon="1.63545">
        <ele>45.1</ele>
        <time>2020-06-22T08:35:22Z</time>
      </trkpt>
      <trkpt lat="50.66915" lon="1.63544">
        <ele>45</ele>
        <time>2020-06-22T08:35:23Z</time>
      </trkpt>
      <trkpt lat="50.66913" lon="1.63543">
        <ele>45</ele>
        <time>2020-06-22T08:35:24Z</time>
      </trkpt>
      <trkpt lat="50.66911" lon="1.6354">
        <ele>45</ele>
        <time>2020-06-22T08:35:25Z</time>
      </trkpt>
      <trkpt lat="50.6691" lon="1.63539">
        <ele>45</ele>
        <time>2020-06-22T08:35:26Z</time>
      </trkpt>
      <trkpt lat="50.66909" lon="1.63538">
        <ele>45</ele>
        <time>2020-06-22T08:35:27Z</time>
      </trkpt>
      <trkpt lat="50.66907" lon="1.63538">
        <ele>44.9</ele>
        <time>2020-06-22T08:35:28Z</time>
      </trkpt>
      <trkpt lat="50.66905" lon="1.63537">
        <ele>44.9</ele>
        <time>2020-06-22T08:35:29Z</time>
      </trkpt>
      <trkpt lat="50.66904" lon="1.63537">
        <ele>44.9</ele>
        <time>2020-06-22T08:35:30Z</time>
      </trkpt>
      <trkpt lat="50.66901" lon="1.63534">
        <ele>44.8</ele>
        <time>2020-06-22T08:35:31Z</time>
      </trkpt>
      <trkpt lat="50.66898" lon="1.63531">
        <ele>44.8</ele>
        <time>2020-06-22T08:35:32Z</time>
      </trkpt>
      <trkpt lat="50.66894" lon="1.6353">
        <ele>44.7</ele>
        <time>2020-06-22T08:35:33Z</time>
      </trkpt>
      <trkpt lat="50.66889" lon="1.63529">
        <ele>44.6</ele>
        <time>2020-06-22T08:35:34Z</time>
      </trkpt>
      <trkpt lat="50.66884" lon="1.63527">
        <ele>44.5</ele>
        <time>2020-06-22T08:35:35Z</time>
      </trkpt>
      <trkpt lat="50.66879" lon="1.63526">
        <ele>44.4</ele>
        <time>2020-06-22T08:35:36Z</time>
      </trkpt>
      <trkpt lat="50.66874" lon="1.63526">
        <ele>44.2</ele>
        <time>2020-06-22T08:35:37Z</time>
      </trkpt>
      <trkpt lat="50.66869" lon="1.63523">
        <ele>44.1</ele>
        <time>2020-06-22T08:35:38Z</time>
      </trkpt>
      <trkpt lat="50.66863" lon="1.63522">
        <ele>44</ele>
        <time>2020-06-22T08:35:39Z</time>
      </trkpt>
      <trkpt lat="50.66858" lon="1.63521">
        <ele>43.9</ele>
        <time>2020-06-22T08:35:40Z</time>
      </trkpt>
      <trkpt lat="50.66852" lon="1.6352">
        <ele>43.8</ele>
        <time>2020-06-22T08:35:41Z</time>
      </trkpt>
      <trkpt lat="50.66847" lon="1.63518">
        <ele>43.7</ele>
        <time>2020-06-22T08:35:42Z</time>
      </trkpt>
      <trkpt lat="50.66842" lon="1.63516">
        <ele>43.7</ele>
        <time>2020-06-22T08:35:43Z</time>
      </trkpt>
      <trkpt lat="50.66836" lon="1.63515">
        <ele>43.6</ele>
        <time>2020-06-22T08:35:44Z</time>
      </trkpt>
      <trkpt lat="50.66831" lon="1.63515">
        <ele>43.5</ele>
        <time>2020-06-22T08:35:45Z</time>
      </trkpt>
      <trkpt lat="50.66827" lon="1.63515">
        <ele>43.4</ele>
        <time>2020-06-22T08:35:46Z</time>
      </trkpt>
      <trkpt lat="50.66823" lon="1.63518">
        <ele>43.4</ele>
        <time>2020-06-22T08:35:47Z</time>
      </trkpt>
      <trkpt lat="50.6682" lon="1.63521">
        <ele>43.3</ele>
        <time>2020-06-22T08:35:48Z</time>
      </trkpt>
      <trkpt lat="50.66819" lon="1.63525">
        <ele>43.3</ele>
        <time>2020-06-22T08:35:49Z</time>
      </trkpt>
      <trkpt lat="50.66818" lon="1.63526">
        <ele>43.2</ele>
        <time>2020-06-22T08:35:50Z</time>
      </trkpt>
      <trkpt lat="50.66817" lon="1.63528">
        <ele>43.2</ele>
        <time>2020-06-22T08:35:51Z</time>
      </trkpt>
      <trkpt lat="50.66816" lon="1.63529">
        <ele>43.2</ele>
        <time>2020-06-22T08:35:52Z</time>
      </trkpt>
      <trkpt lat="50.66816" lon="1.6353">
        <ele>43.2</ele>
        <time>2020-06-22T08:35:53Z</time>
      </trkpt>
      <trkpt lat="50.66816" lon="1.6353">
        <ele>43.2</ele>
        <time>2020-06-22T08:35:54Z</time>
      </trkpt>
      <trkpt lat="50.66816" lon="1.6353">
        <ele>43.2</ele>
        <time>2020-06-22T08:35:55Z</time>
      </trkpt>
      <trkpt lat="50.66816" lon="1.6353">
        <ele>43.2</ele>
        <time>2020-06-22T08:35:56Z</time>
      </trkpt>
      <trkpt lat="50.66815" lon="1.63529">
        <ele>43.2</ele>
        <time>2020-06-22T08:35:57Z</time>
      </trkpt>
      <trkpt lat="50.66815" lon="1.63529">
        <ele>43.2</ele>
        <time>2020-06-22T08:35:58Z</time>
      </trkpt>
      <trkpt lat="50.66815" lon="1.63529">
        <ele>43.2</ele>
        <time>2020-06-22T08:35:59Z</time>
      </trkpt>
      <trkpt lat="50.66814" lon="1.63529">
        <ele>43.2</ele>
        <time>2020-06-22T08:36:00Z</time>
      </trkpt>
      <trkpt lat="50.66814" lon="1.63528">
        <ele>43.2</ele>
        <time>2020-06-22T08:36:01Z</time>
      </trkpt>
      <trkpt lat="50.66814" lon="1.63529">
        <ele>43.2</ele>
        <time>2020-06-22T08:36:02Z</time>
      </trkpt>
      <trkpt lat="50.66813" lon="1.63528">
        <ele>43.1</ele>
        <time>2020-06-22T08:36:03Z</time>
      </trkpt>
      <trkpt lat="50.66806" lon="1.63529">
        <ele>43.1</ele>
        <time>2020-06-22T08:38:17Z</time>
      </trkpt>
      <trkpt lat="50.66805" lon="1.6353">
        <ele>43.1</ele>
        <time>2020-06-22T08:38:18Z</time>
      </trkpt>
      <trkpt lat="50.66804" lon="1.63531">
        <ele>43.1</ele>
        <time>2020-06-22T08:38:19Z</time>
      </trkpt>
      <trkpt lat="50.66802" lon="1.63532">
        <ele>43</ele>
        <time>2020-06-22T08:38:20Z</time>
      </trkpt>
      <trkpt lat="50.66801" lon="1.63532">
        <ele>43</ele>
        <time>2020-06-22T08:38:21Z</time>
      </trkpt>
      <trkpt lat="50.668" lon="1.63531">
        <ele>43</ele>
        <time>2020-06-22T08:38:22Z</time>
      </trkpt>
      <trkpt lat="50.66799" lon="1.63531">
        <ele>43</ele>
        <time>2020-06-22T08:38:23Z</time>
      </trkpt>
      <trkpt lat="50.66798" lon="1.63531">
        <ele>43</ele>
        <time>2020-06-22T08:38:24Z</time>
      </trkpt>
      <trkpt lat="50.66797" lon="1.63532">
        <ele>43</ele>
        <time>2020-06-22T08:38:25Z</time>
      </trkpt>
      <trkpt lat="50.66796" lon="1.63532">
        <ele>43</ele>
        <time>2020-06-22T08:38:26Z</time>
      </trkpt>
      <trkpt lat="50.66795" lon="1.63533">
        <ele>43</ele>
        <time>2020-06-22T08:38:27Z</time>
      </trkpt>
      <trkpt lat="50.66793" lon="1.63534">
        <ele>43</ele>
        <time>2020-06-22T08:38:28Z</time>
      </trkpt>
      <trkpt lat="50.66791" lon="1.63534">
        <ele>43</ele>
        <time>2020-06-22T08:38:29Z</time>
      </trkpt>
      <trkpt lat="50.66791" lon="1.63535">
        <ele>43</ele>
        <time>2020-06-22T08:38:30Z</time>
      </trkpt>
      <trkpt lat="50.6679" lon="1.63535">
        <ele>43</ele>
        <time>2020-06-22T08:38:31Z</time>
      </trkpt>
      <trkpt lat="50.66788" lon="1.63535">
        <ele>43</ele>
        <time>2020-06-22T08:38:32Z</time>
      </trkpt>
      <trkpt lat="50.66787" lon="1.63535">
        <ele>43</ele>
        <time>2020-06-22T08:38:33Z</time>
      </trkpt>
      <trkpt lat="50.66786" lon="1.63535">
        <ele>43</ele>
        <time>2020-06-22T08:38:34Z</time>
      </trkpt>
      <trkpt lat="50.66785" lon="1.63534">
        <ele>43.1</ele>
        <time>2020-06-22T08:38:35Z</time>
      </trkpt>
      <trkpt lat="50.66784" lon="1.63533">
        <ele>43.1</ele>
        <time>2020-06-22T08:38:36Z</time>
      </trkpt>
      <trkpt lat="50.66784" lon="1.63532">
        <ele>43.1</ele>
        <time>2020-06-22T08:38:37Z</time>
      </trkpt>
      <trkpt lat="50.66784" lon="1.63531">
        <ele>43.1</ele>
        <time>2020-06-22T08:38:38Z</time>
      </trkpt>
      <trkpt lat="50.66784" lon="1.63531">
        <ele>43.1</ele>
        <time>2020-06-22T08:38:39Z</time>
      </trkpt>
      <trkpt lat="50.66783" lon="1.63529">
        <ele>43.1</ele>
        <time>2020-06-22T08:38:40Z</time>
      </trkpt>
      <trkpt lat="50.66783" lon="1.63529">
        <ele>43.1</ele>
        <time>2020-06-22T08:38:41Z</time>
      </trkpt>
      <trkpt lat="50.66783" lon="1.63529">
        <ele>43.1</ele>
        <time>2020-06-22T08:38:42Z</time>
      </trkpt>
      <trkpt lat="50.66783" lon="1.6353">
        <ele>43.1</ele>
        <time>2020-06-22T08:38:43Z</time>
      </trkpt>
      <trkpt lat="50.66783" lon="1.6353">
        <ele>43.1</ele>
        <time>2020-06-22T08:38:44Z</time>
      </trkpt>
      <trkpt lat="50.66783" lon="1.6353">
        <ele>43.1</ele>
        <time>2020-06-22T08:38:45Z</time>
      </trkpt>
      <trkpt lat="50.66783" lon="1.63529">
        <ele>43.1</ele>
        <time>2020-06-22T08:38:46Z</time>
      </trkpt>
      <trkpt lat="50.66784" lon="1.6353">
        <ele>43.1</ele>
        <time>2020-06-22T08:38:47Z</time>
      </trkpt>
      <trkpt lat="50.66778" lon="1.63528">
        <ele>43.4</ele>
        <time>2020-06-22T08:39:00Z</time>
      </trkpt>
      <trkpt lat="50.66778" lon="1.63528">
        <ele>43.4</ele>
        <time>2020-06-22T08:39:01Z</time>
      </trkpt>
      <trkpt lat="50.66777" lon="1.63529">
        <ele>43.4</ele>
        <time>2020-06-22T08:39:02Z</time>
      </trkpt>
      <trkpt lat="50.66777" lon="1.63529">
        <ele>43.5</ele>
        <time>2020-06-22T08:39:03Z</time>
      </trkpt>
      <trkpt lat="50.66777" lon="1.63529">
        <ele>43.5</ele>
        <time>2020-06-22T08:39:04Z</time>
      </trkpt>
      <trkpt lat="50.66777" lon="1.63529">
        <ele>43.4</ele>
        <time>2020-06-22T08:39:05Z</time>
      </trkpt>
      <trkpt lat="50.66777" lon="1.6353">
        <ele>43.4</ele>
        <time>2020-06-22T08:39:06Z</time>
      </trkpt>
      <trkpt lat="50.66777" lon="1.6353">
        <ele>43.4</ele>
        <time>2020-06-22T08:39:07Z</time>
      </trkpt>
      <trkpt lat="50.66777" lon="1.6353">
        <ele>43.4</ele>
        <time>2020-06-22T08:39:08Z</time>
      </trkpt>
      <trkpt lat="50.66777" lon="1.6353">
        <ele>43.4</ele>
        <time>2020-06-22T08:39:09Z</time>
      </trkpt>
      <trkpt lat="50.66777" lon="1.6353">
        <ele>43.4</ele>
        <time>2020-06-22T08:39:10Z</time>
      </trkpt>
      <trkpt lat="50.66777" lon="1.6353">
        <ele>43.4</ele>
        <time>2020-06-22T08:39:11Z</time>
      </trkpt>
      <trkpt lat="50.66777" lon="1.6353">
        <ele>43.5</ele>
        <time>2020-06-22T08:39:12Z</time>
      </trkpt>
      <trkpt lat="50.66776" lon="1.6353">
        <ele>43.5</ele>
        <time>2020-06-22T08:39:13Z</time>
      </trkpt>
      <trkpt lat="50.66776" lon="1.63529">
        <ele>43.5</ele>
        <time>2020-06-22T08:39:14Z</time>
      </trkpt>
      <trkpt lat="50.66775" lon="1.63528">
        <ele>43.5</ele>
        <time>2020-06-22T08:39:15Z</time>
      </trkpt>
      <trkpt lat="50.66775" lon="1.63528">
        <ele>43.5</ele>
        <time>2020-06-22T08:39:16Z</time>
      </trkpt>
      <trkpt lat="50.66775" lon="1.63527">
        <ele>43.5</ele>
        <time>2020-06-22T08:39:17Z</time>
      </trkpt>
      <trkpt lat="50.66775" lon="1.63527">
        <ele>43.5</ele>
        <time>2020-06-22T08:39:18Z</time>
      </trkpt>
      <trkpt lat="50.66775" lon="1.63527">
        <ele>43.5</ele>
        <time>2020-06-22T08:39:19Z</time>
      </trkpt>
      <trkpt lat="50.66776" lon="1.63527">
        <ele>43.5</ele>
        <time>2020-06-22T08:39:20Z</time>
      </trkpt>
      <trkpt lat="50.66776" lon="1.63528">
        <ele>43.5</ele>
        <time>2020-06-22T08:39:21Z</time>
      </trkpt>
      <trkpt lat="50.66777" lon="1.63529">
        <ele>43.5</ele>
        <time>2020-06-22T08:39:22Z</time>
      </trkpt>
      <trkpt lat="50.66777" lon="1.63531">
        <ele>43.4</ele>
        <time>2020-06-22T08:39:23Z</time>
      </trkpt>
      <trkpt lat="50.66778" lon="1.63532">
        <ele>43.4</ele>
        <time>2020-06-22T08:39:24Z</time>
      </trkpt>
      <trkpt lat="50.66777" lon="1.63534">
        <ele>43.4</ele>
        <time>2020-06-22T08:39:25Z</time>
      </trkpt>
      <trkpt lat="50.66777" lon="1.63535">
        <ele>43.4</ele>
        <time>2020-06-22T08:39:26Z</time>
      </trkpt>
      <trkpt lat="50.66777" lon="1.63535">
        <ele>43.5</ele>
        <time>2020-06-22T08:39:27Z</time>
      </trkpt>
      <trkpt lat="50.66776" lon="1.63536">
        <ele>43.5</ele>
        <time>2020-06-22T08:39:28Z</time>
      </trkpt>
      <trkpt lat="50.66777" lon="1.63534">
        <ele>43.5</ele>
        <time>2020-06-22T08:39:29Z</time>
      </trkpt>
      <trkpt lat="50.66777" lon="1.63534">
        <ele>43.5</ele>
        <time>2020-06-22T08:39:30Z</time>
      </trkpt>
      <trkpt lat="50.66777" lon="1.63534">
        <ele>43.5</ele>
        <time>2020-06-22T08:39:31Z</time>
      </trkpt>
      <trkpt lat="50.66776" lon="1.63534">
        <ele>43.5</ele>
        <time>2020-06-22T08:39:32Z</time>
      </trkpt>
      <trkpt lat="50.66776" lon="1.63534">
        <ele>43.5</ele>
        <time>2020-06-22T08:39:33Z</time>
      </trkpt>
      <trkpt lat="50.66776" lon="1.63534">
        <ele>43.5</ele>
        <time>2020-06-22T08:39:34Z</time>
      </trkpt>
      <trkpt lat="50.66775" lon="1.63535">
        <ele>43.5</ele>
        <time>2020-06-22T08:39:35Z</time>
      </trkpt>
      <trkpt lat="50.66775" lon="1.63535">
        <ele>43.5</ele>
        <time>2020-06-22T08:39:36Z</time>
      </trkpt>
      <trkpt lat="50.66781" lon="1.6354">
        <ele>43.3</ele>
        <time>2020-06-22T10:12:01Z</time>
      </trkpt>
      <trkpt lat="50.66782" lon="1.63541">
        <ele>43.3</ele>
        <time>2020-06-22T10:12:02Z</time>
      </trkpt>
      <trkpt lat="50.66783" lon="1.63542">
        <ele>43.2</ele>
        <time>2020-06-22T10:12:03Z</time>
      </trkpt>
      <trkpt lat="50.66785" lon="1.63544">
        <ele>43.2</ele>
        <time>2020-06-22T10:12:04Z</time>
      </trkpt>
      <trkpt lat="50.66786" lon="1.63546">
        <ele>43.2</ele>
        <time>2020-06-22T10:12:05Z</time>
      </trkpt>
      <trkpt lat="50.66786" lon="1.63547">
        <ele>43.2</ele>
        <time>2020-06-22T10:12:06Z</time>
      </trkpt>
      <trkpt lat="50.66786" lon="1.63547">
        <ele>43.2</ele>
        <time>2020-06-22T10:12:07Z</time>
      </trkpt>
      <trkpt lat="50.66787" lon="1.63548">
        <ele>43.2</ele>
        <time>2020-06-22T10:12:08Z</time>
      </trkpt>
      <trkpt lat="50.66787" lon="1.63548">
        <ele>43.2</ele>
        <time>2020-06-22T10:12:09Z</time>
      </trkpt>
      <trkpt lat="50.66787" lon="1.6355">
        <ele>43.2</ele>
        <time>2020-06-22T10:12:10Z</time>
      </trkpt>
      <trkpt lat="50.66787" lon="1.63552">
        <ele>43.2</ele>
        <time>2020-06-22T10:12:11Z</time>
      </trkpt>
      <trkpt lat="50.66786" lon="1.63553">
        <ele>43.2</ele>
        <time>2020-06-22T10:12:12Z</time>
      </trkpt>
      <trkpt lat="50.66786" lon="1.63553">
        <ele>43.2</ele>
        <time>2020-06-22T10:12:13Z</time>
      </trkpt>
      <trkpt lat="50.66786" lon="1.63554">
        <ele>43.2</ele>
        <time>2020-06-22T10:12:14Z</time>
      </trkpt>
      <trkpt lat="50.66786" lon="1.63554">
        <ele>43.2</ele>
        <time>2020-06-22T10:12:15Z</time>
      </trkpt>
      <trkpt lat="50.66786" lon="1.63554">
        <ele>43.2</ele>
        <time>2020-06-22T10:12:16Z</time>
      </trkpt>
      <trkpt lat="50.66784" lon="1.63556">
        <ele>43.4</ele>
        <time>2020-06-22T10:12:17Z</time>
      </trkpt>
      <trkpt lat="50.66784" lon="1.63556">
        <ele>43.4</ele>
        <time>2020-06-22T10:12:18Z</time>
      </trkpt>
      <trkpt lat="50.66784" lon="1.63556">
        <ele>43.4</ele>
        <time>2020-06-22T10:12:19Z</time>
      </trkpt>
      <trkpt lat="50.66783" lon="1.63556">
        <ele>43.4</ele>
        <time>2020-06-22T10:12:20Z</time>
      </trkpt>
      <trkpt lat="50.66783" lon="1.63558">
        <ele>43.4</ele>
        <time>2020-06-22T10:12:21Z</time>
      </trkpt>
      <trkpt lat="50.66783" lon="1.63559">
        <ele>43.5</ele>
        <time>2020-06-22T10:12:22Z</time>
      </trkpt>
      <trkpt lat="50.66783" lon="1.6356">
        <ele>43.5</ele>
        <time>2020-06-22T10:12:23Z</time>
      </trkpt>
      <trkpt lat="50.66784" lon="1.6356">
        <ele>43.5</ele>
        <time>2020-06-22T10:12:24Z</time>
      </trkpt>
      <trkpt lat="50.66784" lon="1.63561">
        <ele>43.5</ele>
        <time>2020-06-22T10:12:25Z</time>
      </trkpt>
      <trkpt lat="50.66784" lon="1.63561">
        <ele>43.5</ele>
        <time>2020-06-22T10:12:26Z</time>
      </trkpt>
      <trkpt lat="50.66784" lon="1.63561">
        <ele>43.5</ele>
        <time>2020-06-22T10:12:27Z</time>
      </trkpt>
      <trkpt lat="50.66784" lon="1.63561">
        <ele>43.5</ele>
        <time>2020-06-22T10:12:28Z</time>
      </trkpt>
      <trkpt lat="50.66784" lon="1.63561">
        <ele>43.5</ele>
        <time>2020-06-22T10:12:29Z</time>
      </trkpt>
      <trkpt lat="50.66785" lon="1.63561">
        <ele>43.5</ele>
        <time>2020-06-22T10:12:30Z</time>
      </trkpt>
      <trkpt lat="50.66785" lon="1.63562">
        <ele>43.5</ele>
        <time>2020-06-22T10:12:31Z</time>
      </trkpt>
      <trkpt lat="50.66785" lon="1.63563">
        <ele>43.4</ele>
        <time>2020-06-22T10:12:32Z</time>
      </trkpt>
      <trkpt lat="50.66785" lon="1.63563">
        <ele>43.4</ele>
        <time>2020-06-22T10:12:33Z</time>
      </trkpt>
      <trkpt lat="50.66786" lon="1.63563">
        <ele>43.4</ele>
        <time>2020-06-22T10:12:34Z</time>
      </trkpt>
      <trkpt lat="50.66786" lon="1.63564">
        <ele>43.5</ele>
        <time>2020-06-22T10:12:35Z</time>
      </trkpt>
      <trkpt lat="50.66787" lon="1.63563">
        <ele>43.4</ele>
        <time>2020-06-22T10:12:36Z</time>
      </trkpt>
      <trkpt lat="50.66787" lon="1.63562">
        <ele>43.4</ele>
        <time>2020-06-22T10:12:37Z</time>
      </trkpt>
      <trkpt lat="50.66788" lon="1.63562">
        <ele>43.4</ele>
        <time>2020-06-22T10:12:38Z</time>
      </trkpt>
      <trkpt lat="50.66788" lon="1.63562">
        <ele>43.3</ele>
        <time>2020-06-22T10:12:39Z</time>
      </trkpt>
      <trkpt lat="50.66788" lon="1.63563">
        <ele>43.3</ele>
        <time>2020-06-22T10:12:40Z</time>
      </trkpt>
      <trkpt lat="50.66789" lon="1.63563">
        <ele>43.4</ele>
        <time>2020-06-22T10:12:41Z</time>
      </trkpt>
      <trkpt lat="50.66789" lon="1.63564">
        <ele>43.4</ele>
        <time>2020-06-22T10:12:42Z</time>
      </trkpt>
      <trkpt lat="50.66789" lon="1.63564">
        <ele>43.4</ele>
        <time>2020-06-22T10:12:43Z</time>
      </trkpt>
      <trkpt lat="50.66789" lon="1.63564">
        <ele>43.4</ele>
        <time>2020-06-22T10:12:44Z</time>
      </trkpt>
      <trkpt lat="50.66789" lon="1.63565">
        <ele>43.4</ele>
        <time>2020-06-22T10:12:45Z</time>
      </trkpt>
      <trkpt lat="50.66789" lon="1.63564">
        <ele>43.4</ele>
        <time>2020-06-22T10:12:46Z</time>
      </trkpt>
      <trkpt lat="50.66789" lon="1.63564">
        <ele>43.4</ele>
        <time>2020-06-22T10:12:47Z</time>
      </trkpt>
      <trkpt lat="50.66789" lon="1.63565">
        <ele>43.4</ele>
        <time>2020-06-22T10:12:48Z</time>
      </trkpt>
      <trkpt lat="50.66789" lon="1.63565">
        <ele>43.4</ele>
        <time>2020-06-22T10:12:49Z</time>
      </trkpt>
      <trkpt lat="50.66789" lon="1.63565">
        <ele>43.4</ele>
        <time>2020-06-22T10:12:50Z</time>
      </trkpt>
      <trkpt lat="50.6679" lon="1.63564">
        <ele>43.4</ele>
        <time>2020-06-22T10:12:51Z</time>
      </trkpt>
      <trkpt lat="50.6679" lon="1.63562">
        <ele>43.3</ele>
        <time>2020-06-22T10:12:52Z</time>
      </trkpt>
      <trkpt lat="50.66791" lon="1.63562">
        <ele>43.2</ele>
        <time>2020-06-22T10:12:53Z</time>
      </trkpt>
      <trkpt lat="50.66791" lon="1.63564">
        <ele>43.3</ele>
        <time>2020-06-22T10:12:54Z</time>
      </trkpt>
      <trkpt lat="50.66792" lon="1.63564">
        <ele>43.3</ele>
        <time>2020-06-22T10:12:55Z</time>
      </trkpt>
      <trkpt lat="50.66791" lon="1.63566">
        <ele>43.3</ele>
        <time>2020-06-22T10:12:56Z</time>
      </trkpt>
      <trkpt lat="50.66793" lon="1.63565">
        <ele>43.3</ele>
        <time>2020-06-22T10:12:57Z</time>
      </trkpt>
      <trkpt lat="50.66796" lon="1.63565">
        <ele>43.1</ele>
        <time>2020-06-22T10:12:58Z</time>
      </trkpt>
      <trkpt lat="50.66797" lon="1.63564">
        <ele>43.1</ele>
        <time>2020-06-22T10:12:59Z</time>
      </trkpt>
      <trkpt lat="50.66799" lon="1.63563">
        <ele>43.1</ele>
        <time>2020-06-22T10:13:00Z</time>
      </trkpt>
      <trkpt lat="50.668" lon="1.63562">
        <ele>43</ele>
        <time>2020-06-22T10:13:01Z</time>
      </trkpt>
      <trkpt lat="50.66801" lon="1.63561">
        <ele>43</ele>
        <time>2020-06-22T10:13:02Z</time>
      </trkpt>
      <trkpt lat="50.66802" lon="1.63561">
        <ele>43</ele>
        <time>2020-06-22T10:13:03Z</time>
      </trkpt>
      <trkpt lat="50.66803" lon="1.6356">
        <ele>43</ele>
        <time>2020-06-22T10:13:04Z</time>
      </trkpt>
      <trkpt lat="50.66804" lon="1.63559">
        <ele>43</ele>
        <time>2020-06-22T10:13:05Z</time>
      </trkpt>
      <trkpt lat="50.66805" lon="1.63559">
        <ele>42.9</ele>
        <time>2020-06-22T10:13:06Z</time>
      </trkpt>
      <trkpt lat="50.66806" lon="1.63558">
        <ele>42.9</ele>
        <time>2020-06-22T10:13:07Z</time>
      </trkpt>
      <trkpt lat="50.66808" lon="1.63558">
        <ele>42.9</ele>
        <time>2020-06-22T10:13:08Z</time>
      </trkpt>
      <trkpt lat="50.6681" lon="1.63558">
        <ele>42.9</ele>
        <time>2020-06-22T10:13:09Z</time>
      </trkpt>
      <trkpt lat="50.66812" lon="1.63557">
        <ele>42.9</ele>
        <time>2020-06-22T10:13:10Z</time>
      </trkpt>
      <trkpt lat="50.66814" lon="1.63556">
        <ele>42.8</ele>
        <time>2020-06-22T10:13:11Z</time>
      </trkpt>
      <trkpt lat="50.66815" lon="1.63554">
        <ele>42.8</ele>
        <time>2020-06-22T10:13:12Z</time>
      </trkpt>
      <trkpt lat="50.66817" lon="1.63553">
        <ele>42.8</ele>
        <time>2020-06-22T10:13:13Z</time>
      </trkpt>
      <trkpt lat="50.66819" lon="1.63552">
        <ele>42.8</ele>
        <time>2020-06-22T10:13:14Z</time>
      </trkpt>
      <trkpt lat="50.66821" lon="1.63551">
        <ele>42.8</ele>
        <time>2020-06-22T10:13:15Z</time>
      </trkpt>
      <trkpt lat="50.66821" lon="1.63551">
        <ele>42.8</ele>
        <time>2020-06-22T10:13:16Z</time>
      </trkpt>
      <trkpt lat="50.66769" lon="1.63568">
        <ele>44.3</ele>
        <time>2020-06-22T10:27:50Z</time>
      </trkpt>
      <trkpt lat="50.66767" lon="1.63569">
        <ele>44.3</ele>
        <time>2020-06-22T10:27:51Z</time>
      </trkpt>
      <trkpt lat="50.66767" lon="1.63569">
        <ele>44.3</ele>
        <time>2020-06-22T10:27:52Z</time>
      </trkpt>
      <trkpt lat="50.66767" lon="1.63569">
        <ele>44.3</ele>
        <time>2020-06-22T10:27:53Z</time>
      </trkpt>
      <trkpt lat="50.66767" lon="1.63569">
        <ele>44.3</ele>
        <time>2020-06-22T10:27:54Z</time>
      </trkpt>
      <trkpt lat="50.66767" lon="1.63569">
        <ele>44.3</ele>
        <time>2020-06-22T10:27:55Z</time>
      </trkpt>
      <trkpt lat="50.66765" lon="1.6357">
        <ele>44.4</ele>
        <time>2020-06-22T10:27:56Z</time>
      </trkpt>
      <trkpt lat="50.66767" lon="1.63569">
        <ele>44.3</ele>
        <time>2020-06-22T10:27:57Z</time>
      </trkpt>
      <trkpt lat="50.66768" lon="1.63569">
        <ele>44.3</ele>
        <time>2020-06-22T10:27:58Z</time>
      </trkpt>
      <trkpt lat="50.66768" lon="1.63569">
        <ele>44.3</ele>
        <time>2020-06-22T10:27:59Z</time>
      </trkpt>
      <trkpt lat="50.66768" lon="1.6357">
        <ele>44.3</ele>
        <time>2020-06-22T10:28:00Z</time>
      </trkpt>
      <trkpt lat="50.66769" lon="1.63569">
        <ele>44.2</ele>
        <time>2020-06-22T10:28:01Z</time>
      </trkpt>
      <trkpt lat="50.6677" lon="1.63568">
        <ele>44.2</ele>
        <time>2020-06-22T10:28:02Z</time>
      </trkpt>
      <trkpt lat="50.66771" lon="1.63566">
        <ele>44.1</ele>
        <time>2020-06-22T10:28:03Z</time>
      </trkpt>
      <trkpt lat="50.6677" lon="1.63566">
        <ele>44.1</ele>
        <time>2020-06-22T10:28:04Z</time>
      </trkpt>
      <trkpt lat="50.66771" lon="1.63565">
        <ele>44.1</ele>
        <time>2020-06-22T10:28:05Z</time>
      </trkpt>
      <trkpt lat="50.66772" lon="1.63563">
        <ele>43.9</ele>
        <time>2020-06-22T10:28:06Z</time>
      </trkpt>
      <trkpt lat="50.66774" lon="1.63561">
        <ele>43.9</ele>
        <time>2020-06-22T10:28:07Z</time>
      </trkpt>
      <trkpt lat="50.66775" lon="1.6356">
        <ele>43.8</ele>
        <time>2020-06-22T10:28:13Z</time>
      </trkpt>
      <trkpt lat="50.66777" lon="1.63558">
        <ele>43.7</ele>
        <time>2020-06-22T10:28:14Z</time>
      </trkpt>
      <trkpt lat="50.66778" lon="1.63556">
        <ele>43.6</ele>
        <time>2020-06-22T10:28:15Z</time>
      </trkpt>
      <trkpt lat="50.66779" lon="1.63554">
        <ele>43.5</ele>
        <time>2020-06-22T10:28:16Z</time>
      </trkpt>
      <trkpt lat="50.6678" lon="1.63552">
        <ele>43.5</ele>
        <time>2020-06-22T10:28:17Z</time>
      </trkpt>
      <trkpt lat="50.66781" lon="1.63551">
        <ele>43.4</ele>
        <time>2020-06-22T10:28:18Z</time>
      </trkpt>
      <trkpt lat="50.66782" lon="1.6355">
        <ele>43.4</ele>
        <time>2020-06-22T10:28:19Z</time>
      </trkpt>
      <trkpt lat="50.66783" lon="1.63547">
        <ele>43.3</ele>
        <time>2020-06-22T10:28:20Z</time>
      </trkpt>
      <trkpt lat="50.66784" lon="1.63545">
        <ele>43.2</ele>
        <time>2020-06-22T10:28:21Z</time>
      </trkpt>
      <trkpt lat="50.66786" lon="1.63544">
        <ele>43.1</ele>
        <time>2020-06-22T10:28:22Z</time>
      </trkpt>
      <trkpt lat="50.66788" lon="1.63542">
        <ele>43</ele>
        <time>2020-06-22T10:28:23Z</time>
      </trkpt>
      <trkpt lat="50.66789" lon="1.63542">
        <ele>43</ele>
        <time>2020-06-22T10:28:24Z</time>
      </trkpt>
      <trkpt lat="50.66792" lon="1.63539">
        <ele>42.9</ele>
        <time>2020-06-22T10:28:25Z</time>
      </trkpt>
      <trkpt lat="50.66794" lon="1.63536">
        <ele>42.8</ele>
        <time>2020-06-22T10:28:26Z</time>
      </trkpt>
      <trkpt lat="50.66797" lon="1.63532">
        <ele>42.7</ele>
        <time>2020-06-22T10:28:27Z</time>
      </trkpt>
      <trkpt lat="50.668" lon="1.63529">
        <ele>42.7</ele>
        <time>2020-06-22T10:28:28Z</time>
      </trkpt>
      <trkpt lat="50.66803" lon="1.63525">
        <ele>42.6</ele>
        <time>2020-06-22T10:28:29Z</time>
      </trkpt>
      <trkpt lat="50.66804" lon="1.63523">
        <ele>42.5</ele>
        <time>2020-06-22T10:28:30Z</time>
      </trkpt>
      <trkpt lat="50.66806" lon="1.6352">
        <ele>42.5</ele>
        <time>2020-06-22T10:28:31Z</time>
      </trkpt>
      <trkpt lat="50.66806" lon="1.63519">
        <ele>42.5</ele>
        <time>2020-06-22T10:28:32Z</time>
      </trkpt>
      <trkpt lat="50.66809" lon="1.63515">
        <ele>42.4</ele>
        <time>2020-06-22T10:28:33Z</time>
      </trkpt>
      <trkpt lat="50.6681" lon="1.63513">
        <ele>42.4</ele>
        <time>2020-06-22T10:28:34Z</time>
      </trkpt>
      <trkpt lat="50.66811" lon="1.63511">
        <ele>42.4</ele>
        <time>2020-06-22T10:28:35Z</time>
      </trkpt>
      <trkpt lat="50.66813" lon="1.63508">
        <ele>42.4</ele>
        <time>2020-06-22T10:28:36Z</time>
      </trkpt>
      <trkpt lat="50.66816" lon="1.63508">
        <ele>42.4</ele>
        <time>2020-06-22T10:28:37Z</time>
      </trkpt>
      <trkpt lat="50.66817" lon="1.63507">
        <ele>42.4</ele>
        <time>2020-06-22T10:28:38Z</time>
      </trkpt>
      <trkpt lat="50.6682" lon="1.63503">
        <ele>42.4</ele>
        <time>2020-06-22T10:28:39Z</time>
      </trkpt>
      <trkpt lat="50.6682" lon="1.63501">
        <ele>42.4</ele>
        <time>2020-06-22T10:28:40Z</time>
      </trkpt>
      <trkpt lat="50.66822" lon="1.63497">
        <ele>42.4</ele>
        <time>2020-06-22T10:28:41Z</time>
      </trkpt>
      <trkpt lat="50.66822" lon="1.63496">
        <ele>42.4</ele>
        <time>2020-06-22T10:28:42Z</time>
      </trkpt>
      <trkpt lat="50.66823" lon="1.63496">
        <ele>42.4</ele>
        <time>2020-06-22T10:28:43Z</time>
      </trkpt>
      <trkpt lat="50.66823" lon="1.63495">
        <ele>42.4</ele>
        <time>2020-06-22T10:28:44Z</time>
      </trkpt>
      <trkpt lat="50.66824" lon="1.63495">
        <ele>42.4</ele>
        <time>2020-06-22T10:28:45Z</time>
      </trkpt>
      <trkpt lat="50.66824" lon="1.63494">
        <ele>42.5</ele>
        <time>2020-06-22T10:28:46Z</time>
      </trkpt>
      <trkpt lat="50.66825" lon="1.63493">
        <ele>42.5</ele>
        <time>2020-06-22T10:28:47Z</time>
      </trkpt>
      <trkpt lat="50.66824" lon="1.63496">
        <ele>42.4</ele>
        <time>2020-06-22T10:28:48Z</time>
      </trkpt>
      <trkpt lat="50.66822" lon="1.63499">
        <ele>42.4</ele>
        <time>2020-06-22T10:28:49Z</time>
      </trkpt>
      <trkpt lat="50.6682" lon="1.63501">
        <ele>42.4</ele>
        <time>2020-06-22T10:28:50Z</time>
      </trkpt>
      <trkpt lat="50.66818" lon="1.63503">
        <ele>42.4</ele>
        <time>2020-06-22T10:28:51Z</time>
      </trkpt>
      <trkpt lat="50.66817" lon="1.63505">
        <ele>42.4</ele>
        <time>2020-06-22T10:28:52Z</time>
      </trkpt>
      <trkpt lat="50.66815" lon="1.63507">
        <ele>42.4</ele>
        <time>2020-06-22T10:28:53Z</time>
      </trkpt>
      <trkpt lat="50.66813" lon="1.63509">
        <ele>42.4</ele>
        <time>2020-06-22T10:28:54Z</time>
      </trkpt>
      <trkpt lat="50.66811" lon="1.63511">
        <ele>42.4</ele>
        <time>2020-06-22T10:28:55Z</time>
      </trkpt>
      <trkpt lat="50.66809" lon="1.63513">
        <ele>42.4</ele>
        <time>2020-06-22T10:28:56Z</time>
      </trkpt>
      <trkpt lat="50.66807" lon="1.63515">
        <ele>42.4</ele>
        <time>2020-06-22T10:28:57Z</time>
      </trkpt>
      <trkpt lat="50.66805" lon="1.63518">
        <ele>42.5</ele>
        <time>2020-06-22T10:28:58Z</time>
      </trkpt>
      <trkpt lat="50.66804" lon="1.6352">
        <ele>42.5</ele>
        <time>2020-06-22T10:28:59Z</time>
      </trkpt>
      <trkpt lat="50.66802" lon="1.63522">
        <ele>42.5</ele>
        <time>2020-06-22T10:29:00Z</time>
      </trkpt>
      <trkpt lat="50.668" lon="1.63524">
        <ele>42.6</ele>
        <time>2020-06-22T11:03:15Z</time>
      </trkpt>
      <trkpt lat="50.66798" lon="1.63526">
        <ele>42.7</ele>
        <time>2020-06-22T11:03:16Z</time>
      </trkpt>
      <trkpt lat="50.66796" lon="1.63528">
        <ele>42.7</ele>
        <time>2020-06-22T11:03:17Z</time>
      </trkpt>
      <trkpt lat="50.66794" lon="1.63532">
        <ele>42.8</ele>
        <time>2020-06-22T11:03:18Z</time>
      </trkpt>
      <trkpt lat="50.66793" lon="1.63534">
        <ele>42.9</ele>
        <time>2020-06-22T11:03:19Z</time>
      </trkpt>
      <trkpt lat="50.66791" lon="1.63536">
        <ele>42.9</ele>
        <time>2020-06-22T11:03:20Z</time>
      </trkpt>
      <trkpt lat="50.6679" lon="1.63537">
        <ele>43</ele>
        <time>2020-06-22T11:03:21Z</time>
      </trkpt>
      <trkpt lat="50.66791" lon="1.63541">
        <ele>42.9</ele>
        <time>2020-06-22T11:03:22Z</time>
      </trkpt>
      <trkpt lat="50.66793" lon="1.63544">
        <ele>43</ele>
        <time>2020-06-22T11:03:23Z</time>
      </trkpt>
      <trkpt lat="50.66795" lon="1.63547">
        <ele>43</ele>
        <time>2020-06-22T11:03:24Z</time>
      </trkpt>
      <trkpt lat="50.66797" lon="1.63551">
        <ele>43</ele>
        <time>2020-06-22T11:03:25Z</time>
      </trkpt>
      <trkpt lat="50.66799" lon="1.63554">
        <ele>43</ele>
        <time>2020-06-22T11:03:26Z</time>
      </trkpt>
      <trkpt lat="50.66801" lon="1.63557">
        <ele>43</ele>
        <time>2020-06-22T11:03:27Z</time>
      </trkpt>
      <trkpt lat="50.66802" lon="1.6356">
        <ele>43</ele>
        <time>2020-06-22T11:03:28Z</time>
      </trkpt>
      <trkpt lat="50.66804" lon="1.63564">
        <ele>43</ele>
        <time>2020-06-22T11:03:29Z</time>
      </trkpt>
      <trkpt lat="50.66806" lon="1.63567">
        <ele>43</ele>
        <time>2020-06-22T11:03:30Z</time>
      </trkpt>
      <trkpt lat="50.66808" lon="1.6357">
        <ele>43</ele>
        <time>2020-06-22T11:03:31Z</time>
      </trkpt>
      <trkpt lat="50.6681" lon="1.63574">
        <ele>42.9</ele>
        <time>2020-06-22T11:03:32Z</time>
      </trkpt>
      <trkpt lat="50.66812" lon="1.63577">
        <ele>43</ele>
        <time>2020-06-22T12:26:29Z</time>
      </trkpt>
      <trkpt lat="50.66814" lon="1.6358">
        <ele>42.9</ele>
        <time>2020-06-22T12:26:30Z</time>
      </trkpt>
      <trkpt lat="50.66809" lon="1.63582">
        <ele>43.1</ele>
        <time>2020-06-22T12:26:31Z</time>
      </trkpt>
      <trkpt lat="50.66807" lon="1.63582">
        <ele>43.1</ele>
        <time>2020-06-22T12:26:32Z</time>
      </trkpt>
      <trkpt lat="50.66802" lon="1.63584">
        <ele>43.2</ele>
        <time>2020-06-22T12:26:33Z</time>
      </trkpt>
      <trkpt lat="50.66798" lon="1.63587">
        <ele>43.5</ele>
        <time>2020-06-22T12:26:34Z</time>
      </trkpt>
      <trkpt lat="50.66795" lon="1.6359">
        <ele>43.8</ele>
        <time>2020-06-22T12:26:35Z</time>
      </trkpt>
      <trkpt lat="50.66793" lon="1.63593">
        <ele>43.9</ele>
        <time>2020-06-22T12:26:36Z</time>
      </trkpt>
      <trkpt lat="50.66792" lon="1.63594">
        <ele>44.1</ele>
        <time>2020-06-22T12:26:37Z</time>
      </trkpt>
      <trkpt lat="50.66791" lon="1.63595">
        <ele>44.1</ele>
        <time>2020-06-22T12:26:38Z</time>
      </trkpt>
      <trkpt lat="50.66789" lon="1.63596">
        <ele>44.2</ele>
        <time>2020-06-22T12:26:39Z</time>
      </trkpt>
      <trkpt lat="50.66785" lon="1.63592">
        <ele>44.2</ele>
        <time>2020-06-22T12:26:40Z</time>
      </trkpt>
      <trkpt lat="50.66784" lon="1.63588">
        <ele>44.2</ele>
        <time>2020-06-22T12:26:41Z</time>
      </trkpt>
      <trkpt lat="50.66782" lon="1.63587">
        <ele>44.3</ele>
        <time>2020-06-22T12:26:42Z</time>
      </trkpt>
      <trkpt lat="50.66782" lon="1.63587">
        <ele>44.3</ele>
        <time>2020-06-22T12:26:43Z</time>
      </trkpt>
      <trkpt lat="50.66782" lon="1.63588">
        <ele>44.3</ele>
        <time>2020-06-22T12:26:44Z</time>
      </trkpt>
      <trkpt lat="50.66781" lon="1.63587">
        <ele>44.3</ele>
        <time>2020-06-22T12:26:45Z</time>
      </trkpt>
      <trkpt lat="50.66781" lon="1.63585">
        <ele>44.3</ele>
        <time>2020-06-22T12:26:46Z</time>
      </trkpt>
      <trkpt lat="50.66781" lon="1.63584">
        <ele>44.2</ele>
        <time>2020-06-22T12:26:47Z</time>
      </trkpt>
      <trkpt lat="50.66781" lon="1.63584">
        <ele>44.2</ele>
        <time>2020-06-22T12:26:48Z</time>
      </trkpt>
      <trkpt lat="50.66781" lon="1.63583">
        <ele>44.2</ele>
        <time>2020-06-22T12:26:49Z</time>
      </trkpt>
      <trkpt lat="50.66781" lon="1.63582">
        <ele>44.2</ele>
        <time>2020-06-22T12:26:50Z</time>
      </trkpt>
      <trkpt lat="50.6678" lon="1.63582">
        <ele>44.2</ele>
        <time>2020-06-22T12:26:51Z</time>
      </trkpt>
      <trkpt lat="50.6678" lon="1.63581">
        <ele>44.2</ele>
        <time>2020-06-22T12:26:52Z</time>
      </trkpt>
      <trkpt lat="50.6678" lon="1.63581">
        <ele>44.2</ele>
        <time>2020-06-22T12:26:53Z</time>
      </trkpt>
      <trkpt lat="50.6678" lon="1.63579">
        <ele>44.1</ele>
        <time>2020-06-22T12:26:54Z</time>
      </trkpt>
      <trkpt lat="50.66779" lon="1.63578">
        <ele>44.1</ele>
        <time>2020-06-22T12:26:55Z</time>
      </trkpt>
      <trkpt lat="50.66779" lon="1.63577">
        <ele>44.1</ele>
        <time>2020-06-22T12:26:56Z</time>
      </trkpt>
      <trkpt lat="50.66779" lon="1.63577">
        <ele>44.1</ele>
        <time>2020-06-22T12:26:57Z</time>
      </trkpt>
      <trkpt lat="50.66779" lon="1.63577">
        <ele>44.1</ele>
        <time>2020-06-22T12:26:58Z</time>
      </trkpt>
      <trkpt lat="50.66778" lon="1.63576">
        <ele>44</ele>
        <time>2020-06-22T12:26:59Z</time>
      </trkpt>
      <trkpt lat="50.66778" lon="1.63575">
        <ele>44</ele>
        <time>2020-06-22T12:27:00Z</time>
      </trkpt>
      <trkpt lat="50.66777" lon="1.63575">
        <ele>44.1</ele>
        <time>2020-06-22T12:27:01Z</time>
      </trkpt>
      <trkpt lat="50.66776" lon="1.63575">
        <ele>44.1</ele>
        <time>2020-06-22T12:27:02Z</time>
      </trkpt>
      <trkpt lat="50.66775" lon="1.63575">
        <ele>44.1</ele>
        <time>2020-06-22T12:27:03Z</time>
      </trkpt>
      <trkpt lat="50.66775" lon="1.63575">
        <ele>44.1</ele>
        <time>2020-06-22T12:27:04Z</time>
      </trkpt>
      <trkpt lat="50.66775" lon="1.63575">
        <ele>44.1</ele>
        <time>2020-06-22T12:27:05Z</time>
      </trkpt>
      <trkpt lat="50.66775" lon="1.63575">
        <ele>44.1</ele>
        <time>2020-06-22T12:27:06Z</time>
      </trkpt>
      <trkpt lat="50.66775" lon="1.63575">
        <ele>44.1</ele>
        <time>2020-06-22T12:27:07Z</time>
      </trkpt>
      <trkpt lat="50.66776" lon="1.63575">
        <ele>44.1</ele>
        <time>2020-06-22T12:27:08Z</time>
      </trkpt>
      <trkpt lat="50.66776" lon="1.63573">
        <ele>44.1</ele>
        <time>2020-06-22T12:27:09Z</time>
      </trkpt>
      <trkpt lat="50.66777" lon="1.63573">
        <ele>44.1</ele>
        <time>2020-06-22T12:27:10Z</time>
      </trkpt>
      <trkpt lat="50.66778" lon="1.63572">
        <ele>44</ele>
        <time>2020-06-22T12:27:11Z</time>
      </trkpt>
      <trkpt lat="50.6678" lon="1.63573">
        <ele>44</ele>
        <time>2020-06-22T12:27:12Z</time>
      </trkpt>
      <trkpt lat="50.66781" lon="1.63572">
        <ele>43.9</ele>
        <time>2020-06-22T12:27:13Z</time>
      </trkpt>
      <trkpt lat="50.66781" lon="1.63572">
        <ele>43.9</ele>
        <time>2020-06-22T12:27:14Z</time>
      </trkpt>
      <trkpt lat="50.66781" lon="1.63572">
        <ele>43.9</ele>
        <time>2020-06-22T12:27:15Z</time>
      </trkpt>
      <trkpt lat="50.66781" lon="1.63572">
        <ele>43.9</ele>
        <time>2020-06-22T12:27:16Z</time>
      </trkpt>
      <trkpt lat="50.66781" lon="1.63572">
        <ele>43.9</ele>
        <time>2020-06-22T12:27:17Z</time>
      </trkpt>
      <trkpt lat="50.66781" lon="1.63572">
        <ele>43.9</ele>
        <time>2020-06-22T12:27:18Z</time>
      </trkpt>
      <trkpt lat="50.66781" lon="1.63572">
        <ele>43.9</ele>
        <time>2020-06-22T12:27:19Z</time>
      </trkpt>
      <trkpt lat="50.66782" lon="1.63572">
        <ele>43.8</ele>
        <time>2020-06-22T12:27:20Z</time>
      </trkpt>
      <trkpt lat="50.66782" lon="1.63571">
        <ele>43.8</ele>
        <time>2020-06-22T12:27:21Z</time>
      </trkpt>
      <trkpt lat="50.66782" lon="1.63571">
        <ele>43.8</ele>
        <time>2020-06-22T12:27:22Z</time>
      </trkpt>
      <trkpt lat="50.66782" lon="1.6357">
        <ele>43.8</ele>
        <time>2020-06-22T12:27:23Z</time>
      </trkpt>
      <trkpt lat="50.66782" lon="1.6357">
        <ele>43.8</ele>
        <time>2020-06-22T12:27:24Z</time>
      </trkpt>
      <trkpt lat="50.6678" lon="1.63567">
        <ele>43.7</ele>
        <time>2020-06-22T12:27:27Z</time>
      </trkpt>
      <trkpt lat="50.66779" lon="1.63566">
        <ele>43.8</ele>
        <time>2020-06-22T12:27:28Z</time>
      </trkpt>
      <trkpt lat="50.66779" lon="1.63564">
        <ele>43.8</ele>
        <time>2020-06-22T12:27:29Z</time>
      </trkpt>
      <trkpt lat="50.66778" lon="1.63563">
        <ele>43.7</ele>
        <time>2020-06-22T12:27:30Z</time>
      </trkpt>
      <trkpt lat="50.66778" lon="1.63562">
        <ele>43.7</ele>
        <time>2020-06-22T12:27:31Z</time>
      </trkpt>
      <trkpt lat="50.66777" lon="1.6356">
        <ele>43.7</ele>
        <time>2020-06-22T12:27:32Z</time>
      </trkpt>
      <trkpt lat="50.66777" lon="1.6356">
        <ele>43.7</ele>
        <time>2020-06-22T12:27:33Z</time>
      </trkpt>
      <trkpt lat="50.66777" lon="1.6356">
        <ele>43.7</ele>
        <time>2020-06-22T12:27:34Z</time>
      </trkpt>
      <trkpt lat="50.66777" lon="1.6356">
        <ele>43.7</ele>
        <time>2020-06-22T12:27:35Z</time>
      </trkpt>
      <trkpt lat="50.66777" lon="1.6356">
        <ele>43.7</ele>
        <time>2020-06-22T12:27:36Z</time>
      </trkpt>
      <trkpt lat="50.66777" lon="1.6356">
        <ele>43.7</ele>
        <time>2020-06-22T12:27:37Z</time>
      </trkpt>
      <trkpt lat="50.66777" lon="1.6356">
        <ele>43.7</ele>
        <time>2020-06-22T12:27:38Z</time>
      </trkpt>
      <trkpt lat="50.66777" lon="1.6356">
        <ele>43.7</ele>
        <time>2020-06-22T12:27:39Z</time>
      </trkpt>
      <trkpt lat="50.66777" lon="1.6356">
        <ele>43.7</ele>
        <time>2020-06-22T12:27:40Z</time>
      </trkpt>
      <trkpt lat="50.66777" lon="1.6356">
        <ele>43.7</ele>
        <time>2020-06-22T12:27:41Z</time>
      </trkpt>
      <trkpt lat="50.66777" lon="1.6356">
        <ele>43.7</ele>
        <time>2020-06-22T12:27:42Z</time>
      </trkpt>
      <trkpt lat="50.66777" lon="1.6356">
        <ele>43.7</ele>
        <time>2020-06-22T12:27:43Z</time>
      </trkpt>
      <trkpt lat="50.66766" lon="1.63537">
        <ele>43.9</ele>
        <time>2020-06-22T13:13:32Z</time>
      </trkpt>
      <trkpt lat="50.66765" lon="1.63537">
        <ele>44.1</ele>
        <time>2020-06-22T13:13:33Z</time>
      </trkpt>
      <trkpt lat="50.66764" lon="1.63537">
        <ele>44.1</ele>
        <time>2020-06-22T13:13:34Z</time>
      </trkpt>
      <trkpt lat="50.66763" lon="1.63538">
        <ele>44.2</ele>
        <time>2020-06-22T13:13:35Z</time>
      </trkpt>
      <trkpt lat="50.66761" lon="1.63539">
        <ele>44.2</ele>
        <time>2020-06-22T13:13:36Z</time>
      </trkpt>
      <trkpt lat="50.6676" lon="1.6354">
        <ele>44.4</ele>
        <time>2020-06-22T13:13:37Z</time>
      </trkpt>
      <trkpt lat="50.66759" lon="1.63541">
        <ele>44.4</ele>
        <time>2020-06-22T13:13:38Z</time>
      </trkpt>
      <trkpt lat="50.66757" lon="1.63542">
        <ele>44.5</ele>
        <time>2020-06-22T13:13:39Z</time>
      </trkpt>
      <trkpt lat="50.66756" lon="1.63544">
        <ele>44.5</ele>
        <time>2020-06-22T13:13:40Z</time>
      </trkpt>
      <trkpt lat="50.66755" lon="1.63545">
        <ele>44.7</ele>
        <time>2020-06-22T13:13:41Z</time>
      </trkpt>
      <trkpt lat="50.66754" lon="1.63547">
        <ele>44.7</ele>
        <time>2020-06-22T13:13:42Z</time>
      </trkpt>
      <trkpt lat="50.66753" lon="1.63548">
        <ele>44.7</ele>
        <time>2020-06-22T13:13:43Z</time>
      </trkpt>
      <trkpt lat="50.66752" lon="1.63549">
        <ele>44.8</ele>
        <time>2020-06-22T13:13:44Z</time>
      </trkpt>
      <trkpt lat="50.66853" lon="1.64221">
        <ele>31.7</ele>
        <time>2020-06-22T13:17:14Z</time>
      </trkpt>
      <trkpt lat="50.66852" lon="1.64216">
        <ele>31.9</ele>
        <time>2020-06-22T13:17:15Z</time>
      </trkpt>
      <trkpt lat="50.66851" lon="1.64212">
        <ele>32</ele>
        <time>2020-06-22T13:17:16Z</time>
      </trkpt>
      <trkpt lat="50.6685" lon="1.64209">
        <ele>32.2</ele>
        <time>2020-06-22T13:17:17Z</time>
      </trkpt>
      <trkpt lat="50.66848" lon="1.64203">
        <ele>32.4</ele>
        <time>2020-06-22T13:17:18Z</time>
      </trkpt>
      <trkpt lat="50.66851" lon="1.64185">
        <ele>33.1</ele>
        <time>2020-06-22T13:17:19Z</time>
      </trkpt>
      <trkpt lat="50.66853" lon="1.64167">
        <ele>33.8</ele>
        <time>2020-06-22T13:17:20Z</time>
      </trkpt>
      <trkpt lat="50.66863" lon="1.64105">
        <ele>35.5</ele>
        <time>2020-06-22T13:17:21Z</time>
      </trkpt>
      <trkpt lat="50.66864" lon="1.64099">
        <ele>35.8</ele>
        <time>2020-06-22T13:17:22Z</time>
      </trkpt>
      <trkpt lat="50.66872" lon="1.64066">
        <ele>37.5</ele>
        <time>2020-06-22T13:17:23Z</time>
      </trkpt>
      <trkpt lat="50.66884" lon="1.64023">
        <ele>40.8</ele>
        <time>2020-06-22T13:17:24Z</time>
      </trkpt>
      <trkpt lat="50.66886" lon="1.64016">
        <ele>41.4</ele>
        <time>2020-06-22T13:17:25Z</time>
      </trkpt>
      <trkpt lat="50.66888" lon="1.64008">
        <ele>41.8</ele>
        <time>2020-06-22T13:17:26Z</time>
      </trkpt>
      <trkpt lat="50.6689" lon="1.64001">
        <ele>42.3</ele>
        <time>2020-06-22T13:17:27Z</time>
      </trkpt>
      <trkpt lat="50.66893" lon="1.63993">
        <ele>42.5</ele>
        <time>2020-06-22T13:17:28Z</time>
      </trkpt>
      <trkpt lat="50.66895" lon="1.63986">
        <ele>42.8</ele>
        <time>2020-06-22T13:17:29Z</time>
      </trkpt>
      <trkpt lat="50.66897" lon="1.63979">
        <ele>43</ele>
        <time>2020-06-22T13:17:30Z</time>
      </trkpt>
      <trkpt lat="50.66899" lon="1.63971">
        <ele>43.1</ele>
        <time>2020-06-22T13:17:31Z</time>
      </trkpt>
      <trkpt lat="50.66901" lon="1.63964">
        <ele>43.2</ele>
        <time>2020-06-22T13:17:32Z</time>
      </trkpt>
      <trkpt lat="50.66904" lon="1.63956">
        <ele>43.2</ele>
        <time>2020-06-22T13:17:33Z</time>
      </trkpt>
      <trkpt lat="50.66881" lon="1.63928">
        <ele>43.9</ele>
        <time>2020-06-22T13:17:34Z</time>
      </trkpt>
      <trkpt lat="50.66881" lon="1.63927">
        <ele>43.9</ele>
        <time>2020-06-22T13:17:35Z</time>
      </trkpt>
      <trkpt lat="50.66882" lon="1.63923">
        <ele>43.8</ele>
        <time>2020-06-22T13:17:36Z</time>
      </trkpt>
      <trkpt lat="50.66881" lon="1.63919">
        <ele>43.7</ele>
        <time>2020-06-22T13:17:37Z</time>
      </trkpt>
      <trkpt lat="50.66881" lon="1.63914">
        <ele>43.5</ele>
        <time>2020-06-22T13:17:38Z</time>
      </trkpt>
      <trkpt lat="50.66882" lon="1.63912">
        <ele>43.5</ele>
        <time>2020-06-22T13:17:39Z</time>
      </trkpt>
      <trkpt lat="50.66853" lon="1.6388">
        <ele>44.8</ele>
        <time>2020-06-22T13:17:40Z</time>
      </trkpt>
      <trkpt lat="50.66848" lon="1.63873">
        <ele>44.9</ele>
        <time>2020-06-22T13:17:41Z</time>
      </trkpt>
      <trkpt lat="50.66839" lon="1.63862">
        <ele>44.9</ele>
        <time>2020-06-22T13:17:42Z</time>
      </trkpt>
      <trkpt lat="50.66834" lon="1.63851">
        <ele>44.5</ele>
        <time>2020-06-22T13:17:43Z</time>
      </trkpt>
      <trkpt lat="50.66828" lon="1.63844">
        <ele>44</ele>
        <time>2020-06-22T13:17:44Z</time>
      </trkpt>
      <trkpt lat="50.66824" lon="1.63838">
        <ele>43.8</ele>
        <time>2020-06-22T13:17:45Z</time>
      </trkpt>
      <trkpt lat="50.66821" lon="1.63835">
        <ele>43.6</ele>
        <time>2020-06-22T13:17:46Z</time>
      </trkpt>
      <trkpt lat="50.66819" lon="1.63831">
        <ele>43.4</ele>
        <time>2020-06-22T13:17:47Z</time>
      </trkpt>
      <trkpt lat="50.66818" lon="1.63833">
        <ele>43.6</ele>
        <time>2020-06-22T13:17:48Z</time>
      </trkpt>
      <trkpt lat="50.66819" lon="1.63835">
        <ele>43.7</ele>
        <time>2020-06-22T13:17:49Z</time>
      </trkpt>
      <trkpt lat="50.6682" lon="1.63838">
        <ele>43.7</ele>
        <time>2020-06-22T13:17:50Z</time>
      </trkpt>
      <trkpt lat="50.66822" lon="1.63837">
        <ele>43.6</ele>
        <time>2020-06-22T13:17:51Z</time>
      </trkpt>
      <trkpt lat="50.66823" lon="1.63837">
        <ele>43.6</ele>
        <time>2020-06-22T13:17:52Z</time>
      </trkpt>
      <trkpt lat="50.66825" lon="1.63837">
        <ele>43.3</ele>
        <time>2020-06-22T13:17:53Z</time>
      </trkpt>
      <trkpt lat="50.66826" lon="1.63837">
        <ele>43.3</ele>
        <time>2020-06-22T13:17:54Z</time>
      </trkpt>
      <trkpt lat="50.66827" lon="1.63837">
        <ele>43.1</ele>
        <time>2020-06-22T13:17:55Z</time>
      </trkpt>
      <trkpt lat="50.66838" lon="1.63837">
        <ele>42</ele>
        <time>2020-06-22T13:17:56Z</time>
      </trkpt>
      <trkpt lat="50.66847" lon="1.63837">
        <ele>41</ele>
        <time>2020-06-22T13:17:57Z</time>
      </trkpt>
      <trkpt lat="50.66857" lon="1.63824">
        <ele>38.3</ele>
        <time>2020-06-22T13:17:58Z</time>
      </trkpt>
      <trkpt lat="50.66861" lon="1.63823">
        <ele>37.9</ele>
        <time>2020-06-22T13:17:59Z</time>
      </trkpt>
      <trkpt lat="50.66862" lon="1.63816">
        <ele>37.3</ele>
        <time>2020-06-22T13:18:00Z</time>
      </trkpt>
      <trkpt lat="50.66862" lon="1.63809">
        <ele>37.1</ele>
        <time>2020-06-22T13:18:01Z</time>
      </trkpt>
      <trkpt lat="50.66862" lon="1.63801">
        <ele>37</ele>
        <time>2020-06-22T13:18:02Z</time>
      </trkpt>
      <trkpt lat="50.66862" lon="1.63796">
        <ele>37</ele>
        <time>2020-06-22T13:18:03Z</time>
      </trkpt>
      <trkpt lat="50.6686" lon="1.63793">
        <ele>37.2</ele>
        <time>2020-06-22T13:18:04Z</time>
      </trkpt>
      <trkpt lat="50.66864" lon="1.63787">
        <ele>37.1</ele>
        <time>2020-06-22T13:18:05Z</time>
      </trkpt>
      <trkpt lat="50.66867" lon="1.63782">
        <ele>37.3</ele>
        <time>2020-06-22T13:18:06Z</time>
      </trkpt>
      <trkpt lat="50.66868" lon="1.63778">
        <ele>37.4</ele>
        <time>2020-06-22T13:18:07Z</time>
      </trkpt>
      <trkpt lat="50.66867" lon="1.63773">
        <ele>37.6</ele>
        <time>2020-06-22T13:18:08Z</time>
      </trkpt>
      <trkpt lat="50.66867" lon="1.63772">
        <ele>37.8</ele>
        <time>2020-06-22T13:18:09Z</time>
      </trkpt>
      <trkpt lat="50.66866" lon="1.63768">
        <ele>38</ele>
        <time>2020-06-22T13:18:10Z</time>
      </trkpt>
      <trkpt lat="50.66866" lon="1.63768">
        <ele>38</ele>
        <time>2020-06-22T13:18:11Z</time>
      </trkpt>
      <trkpt lat="50.66866" lon="1.63768">
        <ele>38</ele>
        <time>2020-06-22T13:18:12Z</time>
      </trkpt>
      <trkpt lat="50.66866" lon="1.63767">
        <ele>38</ele>
        <time>2020-06-22T13:18:13Z</time>
      </trkpt>
      <trkpt lat="50.66867" lon="1.63765">
        <ele>38.1</ele>
        <time>2020-06-22T13:18:14Z</time>
      </trkpt>
      <trkpt lat="50.66866" lon="1.63765">
        <ele>38.3</ele>
        <time>2020-06-22T13:18:15Z</time>
      </trkpt>
      <trkpt lat="50.66868" lon="1.63763">
        <ele>38.1</ele>
        <time>2020-06-22T13:18:16Z</time>
      </trkpt>
      <trkpt lat="50.66869" lon="1.63761">
        <ele>38.1</ele>
        <time>2020-06-22T13:18:17Z</time>
      </trkpt>
      <trkpt lat="50.6687" lon="1.63759">
        <ele>38.2</ele>
        <time>2020-06-22T13:18:18Z</time>
      </trkpt>
      <trkpt lat="50.66871" lon="1.63757">
        <ele>38.2</ele>
        <time>2020-06-22T13:18:19Z</time>
      </trkpt>
      <trkpt lat="50.66871" lon="1.63757">
        <ele>38.2</ele>
        <time>2020-06-22T13:18:20Z</time>
      </trkpt>
      <trkpt lat="50.6687" lon="1.63758">
        <ele>38.2</ele>
        <time>2020-06-22T13:18:21Z</time>
      </trkpt>
      <trkpt lat="50.66871" lon="1.6376">
        <ele>38.2</ele>
        <time>2020-06-22T13:18:22Z</time>
      </trkpt>
      <trkpt lat="50.66872" lon="1.6376">
        <ele>38.2</ele>
        <time>2020-06-22T13:18:23Z</time>
      </trkpt>
      <trkpt lat="50.66872" lon="1.63762">
        <ele>38</ele>
        <time>2020-06-22T13:18:24Z</time>
      </trkpt>
      <trkpt lat="50.66872" lon="1.63762">
        <ele>38</ele>
        <time>2020-06-22T13:18:25Z</time>
      </trkpt>
      <trkpt lat="50.66872" lon="1.63762">
        <ele>38</ele>
        <time>2020-06-22T13:18:26Z</time>
      </trkpt>
      <trkpt lat="50.66872" lon="1.63762">
        <ele>38</ele>
        <time>2020-06-22T13:18:27Z</time>
      </trkpt>
      <trkpt lat="50.66872" lon="1.63762">
        <ele>38</ele>
        <time>2020-06-22T13:18:28Z</time>
      </trkpt>
      <trkpt lat="50.66872" lon="1.63763">
        <ele>37.9</ele>
        <time>2020-06-22T13:18:29Z</time>
      </trkpt>
      <trkpt lat="50.66873" lon="1.63763">
        <ele>37.9</ele>
        <time>2020-06-22T13:18:30Z</time>
      </trkpt>
      <trkpt lat="50.66873" lon="1.63764">
        <ele>37.9</ele>
        <time>2020-06-22T13:18:31Z</time>
      </trkpt>
      <trkpt lat="50.66874" lon="1.63765">
        <ele>37.9</ele>
        <time>2020-06-22T13:18:32Z</time>
      </trkpt>
      <trkpt lat="50.66875" lon="1.63765">
        <ele>37.9</ele>
        <time>2020-06-22T13:18:33Z</time>
      </trkpt>
      <trkpt lat="50.66876" lon="1.63765">
        <ele>37.6</ele>
        <time>2020-06-22T13:18:34Z</time>
      </trkpt>
      <trkpt lat="50.66877" lon="1.63766">
        <ele>37.6</ele>
        <time>2020-06-22T13:18:35Z</time>
      </trkpt>
      <trkpt lat="50.66877" lon="1.63765">
        <ele>37.6</ele>
        <time>2020-06-22T13:18:36Z</time>
      </trkpt>
      <trkpt lat="50.66877" lon="1.63765">
        <ele>37.6</ele>
        <time>2020-06-22T13:18:37Z</time>
      </trkpt>
      <trkpt lat="50.66877" lon="1.63765">
        <ele>37.8</ele>
        <time>2020-06-22T13:18:38Z</time>
      </trkpt>
      <trkpt lat="50.66878" lon="1.63764">
        <ele>37.7</ele>
        <time>2020-06-22T13:18:39Z</time>
      </trkpt>
      <trkpt lat="50.66878" lon="1.63764">
        <ele>37.7</ele>
        <time>2020-06-22T13:18:40Z</time>
      </trkpt>
      <trkpt lat="50.66878" lon="1.63764">
        <ele>37.7</ele>
        <time>2020-06-22T13:18:41Z</time>
      </trkpt>
      <trkpt lat="50.66878" lon="1.63763">
        <ele>37.7</ele>
        <time>2020-06-22T13:18:42Z</time>
      </trkpt>
      <trkpt lat="50.66879" lon="1.63763">
        <ele>37.7</ele>
        <time>2020-06-22T13:18:43Z</time>
      </trkpt>
      <trkpt lat="50.66879" lon="1.63763">
        <ele>37.7</ele>
        <time>2020-06-22T13:18:44Z</time>
      </trkpt>
      <trkpt lat="50.66879" lon="1.63762">
        <ele>37.7</ele>
        <time>2020-06-22T13:18:45Z</time>
      </trkpt>
      <trkpt lat="50.66879" lon="1.63762">
        <ele>37.7</ele>
        <time>2020-06-22T13:18:46Z</time>
      </trkpt>
      <trkpt lat="50.66879" lon="1.63762">
        <ele>37.7</ele>
        <time>2020-06-22T13:19:11Z</time>
      </trkpt>
      <trkpt lat="50.6688" lon="1.63761">
        <ele>37.7</ele>
        <time>2020-06-22T13:19:12Z</time>
      </trkpt>
      <trkpt lat="50.6688" lon="1.63761">
        <ele>37.7</ele>
        <time>2020-06-22T13:19:13Z</time>
      </trkpt>
      <trkpt lat="50.6688" lon="1.63761">
        <ele>37.7</ele>
        <time>2020-06-22T13:19:14Z</time>
      </trkpt>
      <trkpt lat="50.6688" lon="1.6376">
        <ele>37.9</ele>
        <time>2020-06-22T13:19:15Z</time>
      </trkpt>
      <trkpt lat="50.6688" lon="1.6376">
        <ele>37.9</ele>
        <time>2020-06-22T13:19:16Z</time>
      </trkpt>
      <trkpt lat="50.66879" lon="1.63759">
        <ele>37.9</ele>
        <time>2020-06-22T13:19:17Z</time>
      </trkpt>
      <trkpt lat="50.66879" lon="1.63758">
        <ele>37.9</ele>
        <time>2020-06-22T13:19:18Z</time>
      </trkpt>
      <trkpt lat="50.66879" lon="1.63758">
        <ele>37.9</ele>
        <time>2020-06-22T13:19:19Z</time>
      </trkpt>
      <trkpt lat="50.66879" lon="1.63757">
        <ele>37.9</ele>
        <time>2020-06-22T13:19:20Z</time>
      </trkpt>
      <trkpt lat="50.66879" lon="1.63756">
        <ele>38.1</ele>
        <time>2020-06-22T13:19:21Z</time>
      </trkpt>
      <trkpt lat="50.66879" lon="1.63755">
        <ele>38.1</ele>
        <time>2020-06-22T13:19:22Z</time>
      </trkpt>
      <trkpt lat="50.66879" lon="1.63754">
        <ele>38.1</ele>
        <time>2020-06-22T13:19:23Z</time>
      </trkpt>
      <trkpt lat="50.66879" lon="1.63754">
        <ele>38.1</ele>
        <time>2020-06-22T13:19:24Z</time>
      </trkpt>
      <trkpt lat="50.66878" lon="1.63752">
        <ele>38.1</ele>
        <time>2020-06-22T13:19:25Z</time>
      </trkpt>
      <trkpt lat="50.66878" lon="1.63751">
        <ele>38.3</ele>
        <time>2020-06-22T13:19:26Z</time>
      </trkpt>
      <trkpt lat="50.66877" lon="1.6375">
        <ele>38.4</ele>
        <time>2020-06-22T13:19:27Z</time>
      </trkpt>
      <trkpt lat="50.66876" lon="1.63749">
        <ele>38.4</ele>
        <time>2020-06-22T13:19:28Z</time>
      </trkpt>
      <trkpt lat="50.66875" lon="1.63746">
        <ele>38.6</ele>
        <time>2020-06-22T13:19:29Z</time>
      </trkpt>
      <trkpt lat="50.66874" lon="1.63739">
        <ele>39.1</ele>
        <time>2020-06-22T13:19:30Z</time>
      </trkpt>
      <trkpt lat="50.66874" lon="1.63735">
        <ele>39.1</ele>
        <time>2020-06-22T13:19:31Z</time>
      </trkpt>
      <trkpt lat="50.66873" lon="1.63735">
        <ele>39.3</ele>
        <time>2020-06-22T13:19:32Z</time>
      </trkpt>
      <trkpt lat="50.66873" lon="1.63733">
        <ele>39.3</ele>
        <time>2020-06-22T13:19:33Z</time>
      </trkpt>
      <trkpt lat="50.66873" lon="1.63731">
        <ele>39.5</ele>
        <time>2020-06-22T13:19:34Z</time>
      </trkpt>
      <trkpt lat="50.66872" lon="1.63729">
        <ele>39.5</ele>
        <time>2020-06-22T13:19:35Z</time>
      </trkpt>
      <trkpt lat="50.66872" lon="1.63727">
        <ele>39.7</ele>
        <time>2020-06-22T13:19:36Z</time>
      </trkpt>
      <trkpt lat="50.66872" lon="1.63725">
        <ele>39.9</ele>
        <time>2020-06-22T13:19:37Z</time>
      </trkpt>
      <trkpt lat="50.6687" lon="1.63725">
        <ele>39.9</ele>
        <time>2020-06-22T13:19:38Z</time>
      </trkpt>
      <trkpt lat="50.6687" lon="1.63723">
        <ele>39.9</ele>
        <time>2020-06-22T13:19:39Z</time>
      </trkpt>
      <trkpt lat="50.6687" lon="1.6372">
        <ele>40</ele>
        <time>2020-06-22T13:19:40Z</time>
      </trkpt>
      <trkpt lat="50.66869" lon="1.63718">
        <ele>40.3</ele>
        <time>2020-06-22T13:19:41Z</time>
      </trkpt>
      <trkpt lat="50.66869" lon="1.63716">
        <ele>40.4</ele>
        <time>2020-06-22T13:19:42Z</time>
      </trkpt>
      <trkpt lat="50.66869" lon="1.63714">
        <ele>40.4</ele>
        <time>2020-06-22T13:19:43Z</time>
      </trkpt>
      <trkpt lat="50.66868" lon="1.63713">
        <ele>40.5</ele>
        <time>2020-06-22T13:19:44Z</time>
      </trkpt>
      <trkpt lat="50.66866" lon="1.63715">
        <ele>40.7</ele>
        <time>2020-06-22T13:19:45Z</time>
      </trkpt>
      <trkpt lat="50.66866" lon="1.63716">
        <ele>40.7</ele>
        <time>2020-06-22T13:19:46Z</time>
      </trkpt>
      <trkpt lat="50.66865" lon="1.63716">
        <ele>40.7</ele>
        <time>2020-06-22T13:19:47Z</time>
      </trkpt>
      <trkpt lat="50.66864" lon="1.63718">
        <ele>40.6</ele>
        <time>2020-06-22T13:19:48Z</time>
      </trkpt>
      <trkpt lat="50.66858" lon="1.63719">
        <ele>41.6</ele>
        <time>2020-06-22T13:20:03Z</time>
      </trkpt>
      <trkpt lat="50.66857" lon="1.63723">
        <ele>41.4</ele>
        <time>2020-06-22T13:20:04Z</time>
      </trkpt>
      <trkpt lat="50.66857" lon="1.63726">
        <ele>41.4</ele>
        <time>2020-06-22T13:20:05Z</time>
      </trkpt>
      <trkpt lat="50.66856" lon="1.63729">
        <ele>41.2</ele>
        <time>2020-06-22T13:20:06Z</time>
      </trkpt>
      <trkpt lat="50.66856" lon="1.63727">
        <ele>41.6</ele>
        <time>2020-06-22T13:20:07Z</time>
      </trkpt>
      <trkpt lat="50.66856" lon="1.63727">
        <ele>41.2</ele>
        <time>2020-06-22T13:20:08Z</time>
      </trkpt>
      <trkpt lat="50.66856" lon="1.63731">
        <ele>41</ele>
        <time>2020-06-22T13:20:09Z</time>
      </trkpt>
      <trkpt lat="50.66855" lon="1.63735">
        <ele>41.4</ele>
        <time>2020-06-22T13:20:10Z</time>
      </trkpt>
      <trkpt lat="50.66855" lon="1.63737">
        <ele>41.1</ele>
        <time>2020-06-22T13:20:11Z</time>
      </trkpt>
      <trkpt lat="50.66855" lon="1.63729">
        <ele>41.6</ele>
        <time>2020-06-22T13:20:12Z</time>
      </trkpt>
      <trkpt lat="50.66855" lon="1.63723">
        <ele>41.8</ele>
        <time>2020-06-22T13:20:13Z</time>
      </trkpt>
      <trkpt lat="50.66855" lon="1.63724">
        <ele>41.8</ele>
        <time>2020-06-22T13:20:14Z</time>
      </trkpt>
      <trkpt lat="50.66849" lon="1.63711">
        <ele>43</ele>
        <time>2020-06-22T13:20:28Z</time>
      </trkpt>
      <trkpt lat="50.66849" lon="1.63712">
        <ele>43</ele>
        <time>2020-06-22T13:20:29Z</time>
      </trkpt>
      <trkpt lat="50.6685" lon="1.63713">
        <ele>43</ele>
        <time>2020-06-22T13:20:30Z</time>
      </trkpt>
      <trkpt lat="50.66849" lon="1.63711">
        <ele>43</ele>
        <time>2020-06-22T13:20:31Z</time>
      </trkpt>
      <trkpt lat="50.66849" lon="1.63713">
        <ele>43</ele>
        <time>2020-06-22T13:20:32Z</time>
      </trkpt>
      <trkpt lat="50.66849" lon="1.63714">
        <ele>42.9</ele>
        <time>2020-06-22T13:20:33Z</time>
      </trkpt>
      <trkpt lat="50.6685" lon="1.63714">
        <ele>42.9</ele>
        <time>2020-06-22T13:20:34Z</time>
      </trkpt>
      <trkpt lat="50.6685" lon="1.63715">
        <ele>42.9</ele>
        <time>2020-06-22T13:20:35Z</time>
      </trkpt>
      <trkpt lat="50.66851" lon="1.63716">
        <ele>42.5</ele>
        <time>2020-06-22T13:20:36Z</time>
      </trkpt>
      <trkpt lat="50.66851" lon="1.63718">
        <ele>42.4</ele>
        <time>2020-06-22T13:20:37Z</time>
      </trkpt>
      <trkpt lat="50.66852" lon="1.63717">
        <ele>42.5</ele>
        <time>2020-06-22T13:20:38Z</time>
      </trkpt>
      <trkpt lat="50.66852" lon="1.63716">
        <ele>42.5</ele>
        <time>2020-06-22T13:20:39Z</time>
      </trkpt>
      <trkpt lat="50.66851" lon="1.63714">
        <ele>42.5</ele>
        <time>2020-06-22T13:20:40Z</time>
      </trkpt>
      <trkpt lat="50.66851" lon="1.63712">
        <ele>42.6</ele>
        <time>2020-06-22T13:20:41Z</time>
      </trkpt>
      <trkpt lat="50.66851" lon="1.63711">
        <ele>42.6</ele>
        <time>2020-06-22T13:20:42Z</time>
      </trkpt>
      <trkpt lat="50.6685" lon="1.63705">
        <ele>43</ele>
        <time>2020-06-22T13:20:43Z</time>
      </trkpt>
      <trkpt lat="50.6685" lon="1.637">
        <ele>43</ele>
        <time>2020-06-22T13:20:44Z</time>
      </trkpt>
      <trkpt lat="50.66849" lon="1.63691">
        <ele>42.8</ele>
        <time>2020-06-22T13:20:45Z</time>
      </trkpt>
      <trkpt lat="50.66849" lon="1.63686">
        <ele>42.6</ele>
        <time>2020-06-22T13:20:46Z</time>
      </trkpt>
      <trkpt lat="50.66849" lon="1.63683">
        <ele>42.5</ele>
        <time>2020-06-22T13:20:47Z</time>
      </trkpt>
      <trkpt lat="50.66849" lon="1.63681">
        <ele>42.5</ele>
        <time>2020-06-22T13:20:48Z</time>
      </trkpt>
      <trkpt lat="50.66848" lon="1.63678">
        <ele>42.4</ele>
        <time>2020-06-22T13:20:49Z</time>
      </trkpt>
      <trkpt lat="50.66848" lon="1.63677">
        <ele>42.4</ele>
        <time>2020-06-22T13:20:50Z</time>
      </trkpt>
      <trkpt lat="50.66847" lon="1.63675">
        <ele>42.5</ele>
        <time>2020-06-22T13:20:51Z</time>
      </trkpt>
      <trkpt lat="50.66847" lon="1.63673">
        <ele>42.5</ele>
        <time>2020-06-22T13:20:52Z</time>
      </trkpt>
      <trkpt lat="50.66846" lon="1.63671">
        <ele>42.3</ele>
        <time>2020-06-22T13:20:53Z</time>
      </trkpt>
      <trkpt lat="50.66846" lon="1.63669">
        <ele>42.3</ele>
        <time>2020-06-22T13:20:54Z</time>
      </trkpt>
      <trkpt lat="50.66845" lon="1.63667">
        <ele>42.3</ele>
        <time>2020-06-22T13:20:55Z</time>
      </trkpt>
      <trkpt lat="50.66845" lon="1.63664">
        <ele>42.1</ele>
        <time>2020-06-22T13:20:56Z</time>
      </trkpt>
      <trkpt lat="50.66845" lon="1.63662">
        <ele>42.1</ele>
        <time>2020-06-22T13:20:57Z</time>
      </trkpt>
      <trkpt lat="50.66845" lon="1.6366">
        <ele>42</ele>
        <time>2020-06-22T13:20:58Z</time>
      </trkpt>
      <trkpt lat="50.66845" lon="1.63658">
        <ele>42</ele>
        <time>2020-06-22T13:20:59Z</time>
      </trkpt>
      <trkpt lat="50.66845" lon="1.6366">
        <ele>42.2</ele>
        <time>2020-06-22T13:21:00Z</time>
      </trkpt>
      <trkpt lat="50.66845" lon="1.63659">
        <ele>42.2</ele>
        <time>2020-06-22T13:21:01Z</time>
      </trkpt>
      <trkpt lat="50.66844" lon="1.63659">
        <ele>42.2</ele>
        <time>2020-06-22T13:21:02Z</time>
      </trkpt>
      <trkpt lat="50.66844" lon="1.63658">
        <ele>42.1</ele>
        <time>2020-06-22T13:21:03Z</time>
      </trkpt>
      <trkpt lat="50.66843" lon="1.63659">
        <ele>42.2</ele>
        <time>2020-06-22T13:21:04Z</time>
      </trkpt>
      <trkpt lat="50.66843" lon="1.63658">
        <ele>42.2</ele>
        <time>2020-06-22T13:21:05Z</time>
      </trkpt>
      <trkpt lat="50.66844" lon="1.63656">
        <ele>42.1</ele>
        <time>2020-06-22T13:21:06Z</time>
      </trkpt>
      <trkpt lat="50.66843" lon="1.63655">
        <ele>42.1</ele>
        <time>2020-06-22T13:21:07Z</time>
      </trkpt>
      <trkpt lat="50.66843" lon="1.63651">
        <ele>41.9</ele>
        <time>2020-06-22T13:21:08Z</time>
      </trkpt>
      <trkpt lat="50.66843" lon="1.63649">
        <ele>41.9</ele>
        <time>2020-06-22T13:21:09Z</time>
      </trkpt>
      <trkpt lat="50.66843" lon="1.63648">
        <ele>41.9</ele>
        <time>2020-06-22T13:21:10Z</time>
      </trkpt>
      <trkpt lat="50.66843" lon="1.63646">
        <ele>41.9</ele>
        <time>2020-06-22T13:21:11Z</time>
      </trkpt>
      <trkpt lat="50.66841" lon="1.63645">
        <ele>41.9</ele>
        <time>2020-06-22T13:21:12Z</time>
      </trkpt>
      <trkpt lat="50.66841" lon="1.63644">
        <ele>41.9</ele>
        <time>2020-06-22T13:21:13Z</time>
      </trkpt>
      <trkpt lat="50.66841" lon="1.63643">
        <ele>41.9</ele>
        <time>2020-06-22T13:21:14Z</time>
      </trkpt>
      <trkpt lat="50.66841" lon="1.63641">
        <ele>41.9</ele>
        <time>2020-06-22T13:21:15Z</time>
      </trkpt>
      <trkpt lat="50.6684" lon="1.6364">
        <ele>41.9</ele>
        <time>2020-06-22T13:21:16Z</time>
      </trkpt>
      <trkpt lat="50.6684" lon="1.63639">
        <ele>41.9</ele>
        <time>2020-06-22T13:21:17Z</time>
      </trkpt>
      <trkpt lat="50.66838" lon="1.63634">
        <ele>42</ele>
        <time>2020-06-22T13:21:18Z</time>
      </trkpt>
      <trkpt lat="50.66838" lon="1.63633">
        <ele>42</ele>
        <time>2020-06-22T13:21:19Z</time>
      </trkpt>
      <trkpt lat="50.66838" lon="1.63633">
        <ele>42</ele>
        <time>2020-06-22T13:21:20Z</time>
      </trkpt>
      <trkpt lat="50.66837" lon="1.63631">
        <ele>42</ele>
        <time>2020-06-22T13:21:21Z</time>
      </trkpt>
      <trkpt lat="50.66837" lon="1.6363">
        <ele>42</ele>
        <time>2020-06-22T13:21:22Z</time>
      </trkpt>
      <trkpt lat="50.66836" lon="1.63628">
        <ele>42.1</ele>
        <time>2020-06-22T13:21:23Z</time>
      </trkpt>
      <trkpt lat="50.66832" lon="1.63619">
        <ele>42.2</ele>
        <time>2020-06-22T13:21:24Z</time>
      </trkpt>
      <trkpt lat="50.66829" lon="1.63611">
        <ele>42.3</ele>
        <time>2020-06-22T13:21:25Z</time>
      </trkpt>
      <trkpt lat="50.66825" lon="1.63603">
        <ele>42.6</ele>
        <time>2020-06-22T13:21:26Z</time>
      </trkpt>
      <trkpt lat="50.66822" lon="1.63596">
        <ele>42.7</ele>
        <time>2020-06-22T13:21:27Z</time>
      </trkpt>
      <trkpt lat="50.66821" lon="1.63595">
        <ele>42.7</ele>
        <time>2020-06-22T13:21:28Z</time>
      </trkpt>
      <trkpt lat="50.6682" lon="1.63594">
        <ele>42.8</ele>
        <time>2020-06-22T13:21:29Z</time>
      </trkpt>
      <trkpt lat="50.6682" lon="1.63594">
        <ele>42.8</ele>
        <time>2020-06-22T13:21:30Z</time>
      </trkpt>
      <trkpt lat="50.66819" lon="1.63593">
        <ele>42.8</ele>
        <time>2020-06-22T13:21:31Z</time>
      </trkpt>
      <trkpt lat="50.66818" lon="1.63593">
        <ele>42.8</ele>
        <time>2020-06-22T13:21:32Z</time>
      </trkpt>
      <trkpt lat="50.66818" lon="1.63593">
        <ele>42.8</ele>
        <time>2020-06-22T13:21:33Z</time>
      </trkpt>
      <trkpt lat="50.66817" lon="1.63591">
        <ele>42.9</ele>
        <time>2020-06-22T13:21:34Z</time>
      </trkpt>
      <trkpt lat="50.66816" lon="1.63591">
        <ele>42.9</ele>
        <time>2020-06-22T13:21:35Z</time>
      </trkpt>
      <trkpt lat="50.66816" lon="1.6359">
        <ele>42.9</ele>
        <time>2020-06-22T13:21:36Z</time>
      </trkpt>
      <trkpt lat="50.66816" lon="1.63589">
        <ele>42.9</ele>
        <time>2020-06-22T13:21:37Z</time>
      </trkpt>
      <trkpt lat="50.66815" lon="1.63587">
        <ele>42.9</ele>
        <time>2020-06-22T13:21:38Z</time>
      </trkpt>
      <trkpt lat="50.66814" lon="1.63586">
        <ele>42.9</ele>
        <time>2020-06-22T13:21:39Z</time>
      </trkpt>
      <trkpt lat="50.66814" lon="1.63585">
        <ele>42.9</ele>
        <time>2020-06-22T13:21:40Z</time>
      </trkpt>
      <trkpt lat="50.66813" lon="1.63583">
        <ele>42.9</ele>
        <time>2020-06-22T13:21:41Z</time>
      </trkpt>
      <trkpt lat="50.66813" lon="1.63586">
        <ele>42.9</ele>
        <time>2020-06-22T13:21:42Z</time>
      </trkpt>
      <trkpt lat="50.66813" lon="1.63586">
        <ele>42.9</ele>
        <time>2020-06-22T13:21:43Z</time>
      </trkpt>
      <trkpt lat="50.66814" lon="1.63587">
        <ele>42.9</ele>
        <time>2020-06-22T13:21:44Z</time>
      </trkpt>
      <trkpt lat="50.66814" lon="1.63588">
        <ele>42.9</ele>
        <time>2020-06-22T13:21:45Z</time>
      </trkpt>
      <trkpt lat="50.66814" lon="1.63587">
        <ele>42.9</ele>
        <time>2020-06-22T13:21:46Z</time>
      </trkpt>
      <trkpt lat="50.66814" lon="1.63586">
        <ele>42.9</ele>
        <time>2020-06-22T13:21:47Z</time>
      </trkpt>
      <trkpt lat="50.66814" lon="1.63585">
        <ele>42.9</ele>
        <time>2020-06-22T13:21:48Z</time>
      </trkpt>
      <trkpt lat="50.66813" lon="1.63585">
        <ele>42.9</ele>
        <time>2020-06-22T13:21:49Z</time>
      </trkpt>
      <trkpt lat="50.66813" lon="1.63584">
        <ele>42.9</ele>
        <time>2020-06-22T13:21:50Z</time>
      </trkpt>
      <trkpt lat="50.66812" lon="1.63583">
        <ele>43</ele>
        <time>2020-06-22T13:21:51Z</time>
      </trkpt>
      <trkpt lat="50.66813" lon="1.63584">
        <ele>42.9</ele>
        <time>2020-06-22T13:21:52Z</time>
      </trkpt>
      <trkpt lat="50.66813" lon="1.63583">
        <ele>42.9</ele>
        <time>2020-06-22T13:21:53Z</time>
      </trkpt>
      <trkpt lat="50.66813" lon="1.63582">
        <ele>42.9</ele>
        <time>2020-06-22T13:21:54Z</time>
      </trkpt>
      <trkpt lat="50.66812" lon="1.63582">
        <ele>43</ele>
        <time>2020-06-22T13:21:55Z</time>
      </trkpt>
      <trkpt lat="50.66812" lon="1.63584">
        <ele>43</ele>
        <time>2020-06-22T13:21:56Z</time>
      </trkpt>
      <trkpt lat="50.66812" lon="1.63587">
        <ele>43</ele>
        <time>2020-06-22T13:21:57Z</time>
      </trkpt>
      <trkpt lat="50.66812" lon="1.63588">
        <ele>43</ele>
        <time>2020-06-22T13:21:58Z</time>
      </trkpt>
      <trkpt lat="50.66811" lon="1.63588">
        <ele>43</ele>
        <time>2020-06-22T13:21:59Z</time>
      </trkpt>
      <trkpt lat="50.66811" lon="1.63586">
        <ele>43</ele>
        <time>2020-06-22T13:22:00Z</time>
      </trkpt>
      <trkpt lat="50.6681" lon="1.63586">
        <ele>43</ele>
        <time>2020-06-22T13:22:01Z</time>
      </trkpt>
      <trkpt lat="50.6681" lon="1.63586">
        <ele>43</ele>
        <time>2020-06-22T13:22:02Z</time>
      </trkpt>
      <trkpt lat="50.6681" lon="1.63586">
        <ele>43</ele>
        <time>2020-06-22T13:22:03Z</time>
      </trkpt>
      <trkpt lat="50.66809" lon="1.63584">
        <ele>43.1</ele>
        <time>2020-06-22T13:22:04Z</time>
      </trkpt>
      <trkpt lat="50.66809" lon="1.63584">
        <ele>43.1</ele>
        <time>2020-06-22T13:22:05Z</time>
      </trkpt>
      <trkpt lat="50.66808" lon="1.63583">
        <ele>43.1</ele>
        <time>2020-06-22T13:22:06Z</time>
      </trkpt>
      <trkpt lat="50.66808" lon="1.63582">
        <ele>43.1</ele>
        <time>2020-06-22T13:22:07Z</time>
      </trkpt>
      <trkpt lat="50.66808" lon="1.63581">
        <ele>43.1</ele>
        <time>2020-06-22T13:22:08Z</time>
      </trkpt>
      <trkpt lat="50.66807" lon="1.63581">
        <ele>43.2</ele>
        <time>2020-06-22T13:22:09Z</time>
      </trkpt>
      <trkpt lat="50.66807" lon="1.6358">
        <ele>43.1</ele>
        <time>2020-06-22T13:22:10Z</time>
      </trkpt>
      <trkpt lat="50.66806" lon="1.6358">
        <ele>43.1</ele>
        <time>2020-06-22T13:22:11Z</time>
      </trkpt>
      <trkpt lat="50.66807" lon="1.63579">
        <ele>43.1</ele>
        <time>2020-06-22T13:22:12Z</time>
      </trkpt>
      <trkpt lat="50.66806" lon="1.63577">
        <ele>43.1</ele>
        <time>2020-06-22T13:22:13Z</time>
      </trkpt>
      <trkpt lat="50.66805" lon="1.63573">
        <ele>43.1</ele>
        <time>2020-06-22T13:22:14Z</time>
      </trkpt>
      <trkpt lat="50.66805" lon="1.63571">
        <ele>43</ele>
        <time>2020-06-22T13:22:15Z</time>
      </trkpt>
      <trkpt lat="50.66805" lon="1.6357">
        <ele>43</ele>
        <time>2020-06-22T13:22:16Z</time>
      </trkpt>
      <trkpt lat="50.66805" lon="1.6357">
        <ele>43</ele>
        <time>2020-06-22T13:22:17Z</time>
      </trkpt>
      <trkpt lat="50.66805" lon="1.63568">
        <ele>43</ele>
        <time>2020-06-22T13:22:18Z</time>
      </trkpt>
      <trkpt lat="50.66804" lon="1.63568">
        <ele>43</ele>
        <time>2020-06-22T13:22:19Z</time>
      </trkpt>
      <trkpt lat="50.66804" lon="1.63568">
        <ele>43.1</ele>
        <time>2020-06-22T13:22:20Z</time>
      </trkpt>
      <trkpt lat="50.66804" lon="1.63567">
        <ele>43</ele>
        <time>2020-06-22T13:22:21Z</time>
      </trkpt>
      <trkpt lat="50.66802" lon="1.63562">
        <ele>43</ele>
        <time>2020-06-22T13:22:22Z</time>
      </trkpt>
      <trkpt lat="50.668" lon="1.63558">
        <ele>43</ele>
        <time>2020-06-22T13:22:23Z</time>
      </trkpt>
      <trkpt lat="50.668" lon="1.63557">
        <ele>43</ele>
        <time>2020-06-22T13:22:24Z</time>
      </trkpt>
      <trkpt lat="50.66798" lon="1.63553">
        <ele>43</ele>
        <time>2020-06-22T13:22:25Z</time>
      </trkpt>
      <trkpt lat="50.66798" lon="1.63551">
        <ele>43</ele>
        <time>2020-06-22T13:22:26Z</time>
      </trkpt>
      <trkpt lat="50.66797" lon="1.6355">
        <ele>42.9</ele>
        <time>2020-06-22T13:22:27Z</time>
      </trkpt>
      <trkpt lat="50.66796" lon="1.63548">
        <ele>43</ele>
        <time>2020-06-22T13:22:28Z</time>
      </trkpt>
      <trkpt lat="50.66795" lon="1.63546">
        <ele>42.9</ele>
        <time>2020-06-22T13:22:29Z</time>
      </trkpt>
      <trkpt lat="50.66795" lon="1.63544">
        <ele>42.9</ele>
        <time>2020-06-22T13:22:30Z</time>
      </trkpt>
      <trkpt lat="50.66794" lon="1.63541">
        <ele>42.9</ele>
        <time>2020-06-22T13:22:31Z</time>
      </trkpt>
      <trkpt lat="50.66794" lon="1.63541">
        <ele>42.9</ele>
        <time>2020-06-22T13:22:32Z</time>
      </trkpt>
      <trkpt lat="50.66793" lon="1.63541">
        <ele>42.9</ele>
        <time>2020-06-22T13:22:33Z</time>
      </trkpt>
      <trkpt lat="50.66793" lon="1.63542">
        <ele>43</ele>
        <time>2020-06-22T13:22:34Z</time>
      </trkpt>
      <trkpt lat="50.66792" lon="1.63543">
        <ele>43</ele>
        <time>2020-06-22T13:22:35Z</time>
      </trkpt>
      <trkpt lat="50.66792" lon="1.63544">
        <ele>43</ele>
        <time>2020-06-22T13:22:36Z</time>
      </trkpt>
      <trkpt lat="50.66792" lon="1.63545">
        <ele>43</ele>
        <time>2020-06-22T13:22:37Z</time>
      </trkpt>
      <trkpt lat="50.66792" lon="1.63546">
        <ele>43</ele>
        <time>2020-06-22T13:22:38Z</time>
      </trkpt>
      <trkpt lat="50.66792" lon="1.63548">
        <ele>43</ele>
        <time>2020-06-22T13:22:39Z</time>
      </trkpt>
      <trkpt lat="50.66792" lon="1.63549">
        <ele>43</ele>
        <time>2020-06-22T13:22:40Z</time>
      </trkpt>
      <trkpt lat="50.66793" lon="1.63549">
        <ele>43</ele>
        <time>2020-06-22T13:22:41Z</time>
      </trkpt>
      <trkpt lat="50.66793" lon="1.63549">
        <ele>43</ele>
        <time>2020-06-22T13:22:42Z</time>
      </trkpt>
      <trkpt lat="50.66793" lon="1.63548">
        <ele>43</ele>
        <time>2020-06-22T13:22:43Z</time>
      </trkpt>
      <trkpt lat="50.66793" lon="1.63548">
        <ele>43</ele>
        <time>2020-06-22T13:22:44Z</time>
      </trkpt>
      <trkpt lat="50.66793" lon="1.63548">
        <ele>43</ele>
        <time>2020-06-22T13:22:45Z</time>
      </trkpt>
      <trkpt lat="50.66794" lon="1.63549">
        <ele>43</ele>
        <time>2020-06-22T13:22:46Z</time>
      </trkpt>
      <trkpt lat="50.66795" lon="1.63549">
        <ele>43</ele>
        <time>2020-06-22T13:22:47Z</time>
      </trkpt>
      <trkpt lat="50.66795" lon="1.6355">
        <ele>43</ele>
        <time>2020-06-22T13:22:48Z</time>
      </trkpt>
      <trkpt lat="50.66796" lon="1.63551">
        <ele>43</ele>
        <time>2020-06-22T13:22:49Z</time>
      </trkpt>
      <trkpt lat="50.66796" lon="1.63552">
        <ele>43</ele>
        <time>2020-06-22T13:22:50Z</time>
      </trkpt>
      <trkpt lat="50.66797" lon="1.63553">
        <ele>43</ele>
        <time>2020-06-22T13:22:51Z</time>
      </trkpt>
      <trkpt lat="50.66797" lon="1.63553">
        <ele>43</ele>
        <time>2020-06-22T13:22:52Z</time>
      </trkpt>
      <trkpt lat="50.66797" lon="1.63552">
        <ele>43</ele>
        <time>2020-06-22T13:22:53Z</time>
      </trkpt>
      <trkpt lat="50.66796" lon="1.63552">
        <ele>43</ele>
        <time>2020-06-22T13:22:54Z</time>
      </trkpt>
      <trkpt lat="50.66796" lon="1.63551">
        <ele>43</ele>
        <time>2020-06-22T13:22:55Z</time>
      </trkpt>
      <trkpt lat="50.66796" lon="1.63551">
        <ele>43</ele>
        <time>2020-06-22T13:22:56Z</time>
      </trkpt>
      <trkpt lat="50.66795" lon="1.6355">
        <ele>43</ele>
        <time>2020-06-22T13:22:57Z</time>
      </trkpt>
      <trkpt lat="50.66795" lon="1.6355">
        <ele>43</ele>
        <time>2020-06-22T13:22:58Z</time>
      </trkpt>
      <trkpt lat="50.66795" lon="1.6355">
        <ele>43</ele>
        <time>2020-06-22T13:22:59Z</time>
      </trkpt>
      <trkpt lat="50.66795" lon="1.63549">
        <ele>43</ele>
        <time>2020-06-22T13:23:00Z</time>
      </trkpt>
      <trkpt lat="50.66794" lon="1.63549">
        <ele>43</ele>
        <time>2020-06-22T13:23:01Z</time>
      </trkpt>
      <trkpt lat="50.66794" lon="1.63548">
        <ele>43</ele>
        <time>2020-06-22T13:23:02Z</time>
      </trkpt>
      <trkpt lat="50.66793" lon="1.63548">
        <ele>43</ele>
        <time>2020-06-22T13:23:03Z</time>
      </trkpt>
      <trkpt lat="50.66793" lon="1.63548">
        <ele>43</ele>
        <time>2020-06-22T13:23:04Z</time>
      </trkpt>
      <trkpt lat="50.66793" lon="1.63547">
        <ele>43</ele>
        <time>2020-06-22T13:23:05Z</time>
      </trkpt>
      <trkpt lat="50.66793" lon="1.63548">
        <ele>43</ele>
        <time>2020-06-22T13:23:06Z</time>
      </trkpt>
      <trkpt lat="50.66793" lon="1.63549">
        <ele>43</ele>
        <time>2020-06-22T13:23:07Z</time>
      </trkpt>
      <trkpt lat="50.66794" lon="1.63551">
        <ele>43</ele>
        <time>2020-06-22T13:23:08Z</time>
      </trkpt>
      <trkpt lat="50.66795" lon="1.63552">
        <ele>43</ele>
        <time>2020-06-22T13:23:09Z</time>
      </trkpt>
      <trkpt lat="50.66796" lon="1.63552">
        <ele>43</ele>
        <time>2020-06-22T13:23:10Z</time>
      </trkpt>
      <trkpt lat="50.66796" lon="1.63552">
        <ele>43</ele>
        <time>2020-06-22T13:23:11Z</time>
      </trkpt>
      <trkpt lat="50.66795" lon="1.63553">
        <ele>43</ele>
        <time>2020-06-22T13:23:12Z</time>
      </trkpt>
      <trkpt lat="50.66795" lon="1.63552">
        <ele>43</ele>
        <time>2020-06-22T13:23:13Z</time>
      </trkpt>
      <trkpt lat="50.66795" lon="1.63552">
        <ele>43</ele>
        <time>2020-06-22T13:23:14Z</time>
      </trkpt>
      <trkpt lat="50.66794" lon="1.63552">
        <ele>43</ele>
        <time>2020-06-22T13:23:15Z</time>
      </trkpt>
      <trkpt lat="50.66794" lon="1.63552">
        <ele>43</ele>
        <time>2020-06-22T13:23:16Z</time>
      </trkpt>
      <trkpt lat="50.66794" lon="1.63552">
        <ele>43</ele>
        <time>2020-06-22T13:23:17Z</time>
      </trkpt>
      <trkpt lat="50.66793" lon="1.63551">
        <ele>43.1</ele>
        <time>2020-06-22T13:23:18Z</time>
      </trkpt>
      <trkpt lat="50.66792" lon="1.6355">
        <ele>43</ele>
        <time>2020-06-22T13:23:19Z</time>
      </trkpt>
      <trkpt lat="50.66791" lon="1.63549">
        <ele>43</ele>
        <time>2020-06-22T13:23:20Z</time>
      </trkpt>
      <trkpt lat="50.66791" lon="1.63549">
        <ele>43</ele>
        <time>2020-06-22T13:23:21Z</time>
      </trkpt>
      <trkpt lat="50.6679" lon="1.63548">
        <ele>43.1</ele>
        <time>2020-06-22T13:23:22Z</time>
      </trkpt>
      <trkpt lat="50.6679" lon="1.63548">
        <ele>43.1</ele>
        <time>2020-06-22T13:23:23Z</time>
      </trkpt>
      <trkpt lat="50.66789" lon="1.63547">
        <ele>43.1</ele>
        <time>2020-06-22T13:23:24Z</time>
      </trkpt>
      <trkpt lat="50.66789" lon="1.63546">
        <ele>43</ele>
        <time>2020-06-22T13:23:25Z</time>
      </trkpt>
      <trkpt lat="50.66788" lon="1.63546">
        <ele>43.1</ele>
        <time>2020-06-22T13:23:26Z</time>
      </trkpt>
      <trkpt lat="50.66787" lon="1.63548">
        <ele>43.2</ele>
        <time>2020-06-22T13:23:27Z</time>
      </trkpt>
      <trkpt lat="50.66787" lon="1.63548">
        <ele>43.2</ele>
        <time>2020-06-22T13:23:28Z</time>
      </trkpt>
      <trkpt lat="50.66787" lon="1.63549">
        <ele>43.2</ele>
        <time>2020-06-22T13:23:29Z</time>
      </trkpt>
      <trkpt lat="50.66786" lon="1.6355">
        <ele>43.2</ele>
        <time>2020-06-22T13:23:30Z</time>
      </trkpt>
      <trkpt lat="50.66786" lon="1.63551">
        <ele>43.2</ele>
        <time>2020-06-22T13:23:31Z</time>
      </trkpt>
      <trkpt lat="50.66786" lon="1.63553">
        <ele>43.2</ele>
        <time>2020-06-22T13:23:32Z</time>
      </trkpt>
      <trkpt lat="50.66785" lon="1.63555">
        <ele>43.3</ele>
        <time>2020-06-22T13:23:33Z</time>
      </trkpt>
      <trkpt lat="50.66785" lon="1.63557">
        <ele>43.3</ele>
        <time>2020-06-22T13:23:34Z</time>
      </trkpt>
      <trkpt lat="50.66785" lon="1.63559">
        <ele>43.5</ele>
        <time>2020-06-22T13:23:35Z</time>
      </trkpt>
      <trkpt lat="50.66785" lon="1.63561">
        <ele>43.4</ele>
        <time>2020-06-22T13:23:36Z</time>
      </trkpt>
      <trkpt lat="50.66786" lon="1.63563">
        <ele>43.4</ele>
        <time>2020-06-22T13:23:37Z</time>
      </trkpt>
      <trkpt lat="50.66785" lon="1.63564">
        <ele>43.5</ele>
        <time>2020-06-22T13:23:38Z</time>
      </trkpt>
      <trkpt lat="50.66785" lon="1.63563">
        <ele>43.5</ele>
        <time>2020-06-22T13:23:39Z</time>
      </trkpt>
      <trkpt lat="50.66785" lon="1.63563">
        <ele>43.6</ele>
        <time>2020-06-22T13:23:40Z</time>
      </trkpt>
      <trkpt lat="50.66784" lon="1.63564">
        <ele>43.6</ele>
        <time>2020-06-22T13:23:41Z</time>
      </trkpt>
      <trkpt lat="50.66784" lon="1.63566">
        <ele>43.6</ele>
        <time>2020-06-22T13:23:42Z</time>
      </trkpt>
      <trkpt lat="50.66783" lon="1.63565">
        <ele>43.6</ele>
        <time>2020-06-22T13:23:43Z</time>
      </trkpt>
      <trkpt lat="50.66783" lon="1.63565">
        <ele>43.6</ele>
        <time>2020-06-22T13:23:44Z</time>
      </trkpt>
      <trkpt lat="50.66783" lon="1.63564">
        <ele>43.6</ele>
        <time>2020-06-22T13:23:45Z</time>
      </trkpt>
      <trkpt lat="50.66783" lon="1.63564">
        <ele>43.6</ele>
        <time>2020-06-22T13:23:46Z</time>
      </trkpt>
      <trkpt lat="50.66783" lon="1.63563">
        <ele>43.5</ele>
        <time>2020-06-22T13:23:47Z</time>
      </trkpt>
      <trkpt lat="50.66783" lon="1.63563">
        <ele>43.5</ele>
        <time>2020-06-22T13:23:48Z</time>
      </trkpt>
      <trkpt lat="50.66783" lon="1.63564">
        <ele>43.6</ele>
        <time>2020-06-22T13:23:49Z</time>
      </trkpt>
      <trkpt lat="50.66783" lon="1.63564">
        <ele>43.6</ele>
        <time>2020-06-22T13:23:50Z</time>
      </trkpt>
      <trkpt lat="50.66784" lon="1.63564">
        <ele>43.6</ele>
        <time>2020-06-22T13:23:51Z</time>
      </trkpt>
      <trkpt lat="50.66783" lon="1.63564">
        <ele>43.6</ele>
        <time>2020-06-22T13:23:52Z</time>
      </trkpt>
      <trkpt lat="50.66783" lon="1.63563">
        <ele>43.5</ele>
        <time>2020-06-22T13:23:53Z</time>
      </trkpt>
      <trkpt lat="50.66783" lon="1.63563">
        <ele>43.5</ele>
        <time>2020-06-22T13:23:54Z</time>
      </trkpt>
      <trkpt lat="50.66783" lon="1.63563">
        <ele>43.5</ele>
        <time>2020-06-22T13:23:55Z</time>
      </trkpt>
      <trkpt lat="50.66783" lon="1.63562">
        <ele>43.5</ele>
        <time>2020-06-22T13:23:56Z</time>
      </trkpt>
      <trkpt lat="50.66783" lon="1.63561">
        <ele>43.5</ele>
        <time>2020-06-22T13:23:57Z</time>
      </trkpt>
      <trkpt lat="50.66783" lon="1.63562">
        <ele>43.5</ele>
        <time>2020-06-22T13:23:58Z</time>
      </trkpt>
      <trkpt lat="50.66783" lon="1.63562">
        <ele>43.5</ele>
        <time>2020-06-22T13:23:59Z</time>
      </trkpt>
      <trkpt lat="50.66783" lon="1.63562">
        <ele>43.5</ele>
        <time>2020-06-22T13:24:00Z</time>
      </trkpt>
      <trkpt lat="50.66783" lon="1.63561">
        <ele>43.5</ele>
        <time>2020-06-22T13:24:01Z</time>
      </trkpt>
      <trkpt lat="50.66783" lon="1.63561">
        <ele>43.5</ele>
        <time>2020-06-22T13:24:02Z</time>
      </trkpt>
      <trkpt lat="50.66783" lon="1.6356">
        <ele>43.5</ele>
        <time>2020-06-22T13:24:03Z</time>
      </trkpt>
      <trkpt lat="50.66783" lon="1.6356">
        <ele>43.5</ele>
        <time>2020-06-22T13:24:04Z</time>
      </trkpt>
      <trkpt lat="50.66783" lon="1.6356">
        <ele>43.5</ele>
        <time>2020-06-22T13:24:05Z</time>
      </trkpt>
      <trkpt lat="50.66783" lon="1.63561">
        <ele>43.5</ele>
        <time>2020-06-22T13:24:06Z</time>
      </trkpt>
      <trkpt lat="50.66782" lon="1.63561">
        <ele>43.6</ele>
        <time>2020-06-22T13:24:07Z</time>
      </trkpt>
      <trkpt lat="50.66782" lon="1.63561">
        <ele>43.6</ele>
        <time>2020-06-22T13:24:08Z</time>
      </trkpt>
      <trkpt lat="50.66782" lon="1.63561">
        <ele>43.6</ele>
        <time>2020-06-22T13:24:09Z</time>
      </trkpt>
      <trkpt lat="50.66782" lon="1.63561">
        <ele>43.6</ele>
        <time>2020-06-22T13:24:10Z</time>
      </trkpt>
      <trkpt lat="50.66781" lon="1.63561">
        <ele>43.6</ele>
        <time>2020-06-22T13:24:11Z</time>
      </trkpt>
      <trkpt lat="50.66781" lon="1.63561">
        <ele>43.6</ele>
        <time>2020-06-22T13:24:12Z</time>
      </trkpt>
      <trkpt lat="50.66781" lon="1.63561">
        <ele>43.6</ele>
        <time>2020-06-22T13:24:13Z</time>
      </trkpt>
      <trkpt lat="50.66781" lon="1.63561">
        <ele>43.6</ele>
        <time>2020-06-22T13:24:14Z</time>
      </trkpt>
      <trkpt lat="50.6678" lon="1.63562">
        <ele>43.6</ele>
        <time>2020-06-22T13:24:15Z</time>
      </trkpt>
      <trkpt lat="50.66784" lon="1.63561">
        <ele>43.5</ele>
        <time>2020-06-22T13:24:40Z</time>
      </trkpt>
      <trkpt lat="50.66784" lon="1.63562">
        <ele>43.5</ele>
        <time>2020-06-22T13:24:41Z</time>
      </trkpt>
      <trkpt lat="50.66785" lon="1.63563">
        <ele>43.5</ele>
        <time>2020-06-22T13:24:42Z</time>
      </trkpt>
      <trkpt lat="50.66785" lon="1.63564">
        <ele>43.5</ele>
        <time>2020-06-22T13:24:43Z</time>
      </trkpt>
      <trkpt lat="50.66786" lon="1.63565">
        <ele>43.5</ele>
        <time>2020-06-22T13:24:44Z</time>
      </trkpt>
      <trkpt lat="50.66786" lon="1.63565">
        <ele>43.5</ele>
        <time>2020-06-22T13:24:45Z</time>
      </trkpt>
      <trkpt lat="50.66786" lon="1.63565">
        <ele>43.5</ele>
        <time>2020-06-22T13:24:46Z</time>
      </trkpt>
      <trkpt lat="50.66786" lon="1.63565">
        <ele>43.5</ele>
        <time>2020-06-22T13:24:47Z</time>
      </trkpt>
      <trkpt lat="50.66786" lon="1.63564">
        <ele>43.5</ele>
        <time>2020-06-22T13:24:48Z</time>
      </trkpt>
      <trkpt lat="50.66786" lon="1.63563">
        <ele>43.4</ele>
        <time>2020-06-22T13:24:49Z</time>
      </trkpt>
      <trkpt lat="50.66786" lon="1.63562">
        <ele>43.4</ele>
        <time>2020-06-22T13:24:50Z</time>
      </trkpt>
      <trkpt lat="50.66785" lon="1.63562">
        <ele>43.4</ele>
        <time>2020-06-22T13:24:51Z</time>
      </trkpt>
      <trkpt lat="50.66785" lon="1.63561">
        <ele>43.5</ele>
        <time>2020-06-22T13:24:52Z</time>
      </trkpt>
      <trkpt lat="50.66785" lon="1.63561">
        <ele>43.5</ele>
        <time>2020-06-22T13:24:53Z</time>
      </trkpt>
      <trkpt lat="50.66784" lon="1.6356">
        <ele>43.5</ele>
        <time>2020-06-22T13:24:54Z</time>
      </trkpt>
      <trkpt lat="50.66784" lon="1.6356">
        <ele>43.5</ele>
        <time>2020-06-22T13:24:55Z</time>
      </trkpt>
      <trkpt lat="50.66773" lon="1.63561">
        <ele>43.9</ele>
        <time>2020-06-22T13:27:05Z</time>
      </trkpt>
      <trkpt lat="50.66771" lon="1.63561">
        <ele>44</ele>
        <time>2020-06-22T13:27:06Z</time>
      </trkpt>
      <trkpt lat="50.6677" lon="1.63561">
        <ele>44</ele>
        <time>2020-06-22T13:27:07Z</time>
      </trkpt>
      <trkpt lat="50.66769" lon="1.63559">
        <ele>44</ele>
        <time>2020-06-22T13:27:08Z</time>
      </trkpt>
      <trkpt lat="50.66768" lon="1.63558">
        <ele>44.1</ele>
        <time>2020-06-22T13:27:09Z</time>
      </trkpt>
      <trkpt lat="50.66766" lon="1.63556">
        <ele>44.1</ele>
        <time>2020-06-22T13:27:10Z</time>
      </trkpt>
      <trkpt lat="50.66766" lon="1.63555">
        <ele>44.2</ele>
        <time>2020-06-22T13:27:11Z</time>
      </trkpt>
      <trkpt lat="50.66765" lon="1.63555">
        <ele>44.1</ele>
        <time>2020-06-22T13:27:12Z</time>
      </trkpt>
      <trkpt lat="50.66764" lon="1.63555">
        <ele>44.2</ele>
        <time>2020-06-22T13:27:13Z</time>
      </trkpt>
      <trkpt lat="50.66762" lon="1.63555">
        <ele>44.3</ele>
        <time>2020-06-22T13:27:14Z</time>
      </trkpt>
      <trkpt lat="50.66761" lon="1.63555">
        <ele>44.3</ele>
        <time>2020-06-22T13:27:15Z</time>
      </trkpt>
      <trkpt lat="50.6676" lon="1.63555">
        <ele>44.4</ele>
        <time>2020-06-22T13:27:16Z</time>
      </trkpt>
      <trkpt lat="50.66759" lon="1.63555">
        <ele>44.4</ele>
        <time>2020-06-22T13:27:17Z</time>
      </trkpt>
      <trkpt lat="50.66759" lon="1.63555">
        <ele>44.4</ele>
        <time>2020-06-22T13:27:18Z</time>
      </trkpt>
      <trkpt lat="50.66759" lon="1.63555">
        <ele>44.4</ele>
        <time>2020-06-22T13:27:19Z</time>
      </trkpt>
      <trkpt lat="50.66759" lon="1.63554">
        <ele>44.4</ele>
        <time>2020-06-22T13:27:20Z</time>
      </trkpt>
      <trkpt lat="50.66759" lon="1.63554">
        <ele>44.4</ele>
        <time>2020-06-22T13:27:21Z</time>
      </trkpt>
      <trkpt lat="50.6676" lon="1.63555">
        <ele>44.4</ele>
        <time>2020-06-22T13:27:22Z</time>
      </trkpt>
      <trkpt lat="50.66761" lon="1.63556">
        <ele>44.4</ele>
        <time>2020-06-22T13:27:23Z</time>
      </trkpt>
      <trkpt lat="50.66761" lon="1.63556">
        <ele>44.3</ele>
        <time>2020-06-22T13:27:24Z</time>
      </trkpt>
      <trkpt lat="50.66761" lon="1.63556">
        <ele>44.3</ele>
        <time>2020-06-22T13:27:25Z</time>
      </trkpt>
      <trkpt lat="50.66761" lon="1.63557">
        <ele>44.3</ele>
        <time>2020-06-22T13:27:26Z</time>
      </trkpt>
      <trkpt lat="50.66762" lon="1.63557">
        <ele>44.3</ele>
        <time>2020-06-22T13:27:27Z</time>
      </trkpt>
      <trkpt lat="50.66761" lon="1.63557">
        <ele>44.3</ele>
        <time>2020-06-22T13:27:28Z</time>
      </trkpt>
      <trkpt lat="50.66762" lon="1.63557">
        <ele>44.3</ele>
        <time>2020-06-22T13:27:29Z</time>
      </trkpt>
      <trkpt lat="50.66762" lon="1.63557">
        <ele>44.3</ele>
        <time>2020-06-22T13:27:30Z</time>
      </trkpt>
      <trkpt lat="50.66762" lon="1.63558">
        <ele>44.3</ele>
        <time>2020-06-22T13:27:31Z</time>
      </trkpt>
      <trkpt lat="50.66763" lon="1.63558">
        <ele>44.3</ele>
        <time>2020-06-22T13:27:32Z</time>
      </trkpt>
      <trkpt lat="50.66763" lon="1.63558">
        <ele>44.3</ele>
        <time>2020-06-22T13:27:33Z</time>
      </trkpt>
      <trkpt lat="50.66763" lon="1.63558">
        <ele>44.3</ele>
        <time>2020-06-22T13:27:34Z</time>
      </trkpt>
      <trkpt lat="50.66763" lon="1.63558">
        <ele>44.3</ele>
        <time>2020-06-22T13:27:35Z</time>
      </trkpt>
      <trkpt lat="50.66764" lon="1.63558">
        <ele>44.2</ele>
        <time>2020-06-22T13:27:36Z</time>
      </trkpt>
      <trkpt lat="50.66764" lon="1.63558">
        <ele>44.2</ele>
        <time>2020-06-22T13:27:37Z</time>
      </trkpt>
      <trkpt lat="50.66764" lon="1.63558">
        <ele>44.2</ele>
        <time>2020-06-22T13:27:38Z</time>
      </trkpt>
      <trkpt lat="50.66765" lon="1.63558">
        <ele>44.2</ele>
        <time>2020-06-22T13:27:39Z</time>
      </trkpt>
      <trkpt lat="50.66765" lon="1.63558">
        <ele>44.2</ele>
        <time>2020-06-22T13:27:40Z</time>
      </trkpt>
      <trkpt lat="50.66765" lon="1.63558">
        <ele>44.2</ele>
        <time>2020-06-22T13:27:41Z</time>
      </trkpt>
      <trkpt lat="50.66765" lon="1.63558">
        <ele>44.2</ele>
        <time>2020-06-22T13:27:42Z</time>
      </trkpt>
      <trkpt lat="50.66766" lon="1.63559">
        <ele>44.2</ele>
        <time>2020-06-22T13:27:43Z</time>
      </trkpt>
      <trkpt lat="50.66766" lon="1.63559">
        <ele>44.2</ele>
        <time>2020-06-22T13:27:44Z</time>
      </trkpt>
      <trkpt lat="50.66766" lon="1.63559">
        <ele>44.2</ele>
        <time>2020-06-22T13:27:45Z</time>
      </trkpt>
      <trkpt lat="50.66766" lon="1.63559">
        <ele>44.2</ele>
        <time>2020-06-22T13:27:46Z</time>
      </trkpt>
      <trkpt lat="50.66766" lon="1.6356">
        <ele>44.2</ele>
        <time>2020-06-22T13:27:47Z</time>
      </trkpt>
      <trkpt lat="50.66766" lon="1.6356">
        <ele>44.2</ele>
        <time>2020-06-22T13:27:48Z</time>
      </trkpt>
      <trkpt lat="50.66766" lon="1.6356">
        <ele>44.1</ele>
        <time>2020-06-22T13:27:49Z</time>
      </trkpt>
      <trkpt lat="50.66766" lon="1.63559">
        <ele>44.2</ele>
        <time>2020-06-22T13:27:50Z</time>
      </trkpt>
      <trkpt lat="50.66766" lon="1.6356">
        <ele>44.2</ele>
        <time>2020-06-22T13:27:51Z</time>
      </trkpt>
      <trkpt lat="50.66766" lon="1.63559">
        <ele>44.2</ele>
        <time>2020-06-22T13:27:52Z</time>
      </trkpt>
      <trkpt lat="50.66766" lon="1.63559">
        <ele>44.2</ele>
        <time>2020-06-22T13:27:53Z</time>
      </trkpt>
      <trkpt lat="50.66766" lon="1.63559">
        <ele>44.2</ele>
        <time>2020-06-22T13:27:54Z</time>
      </trkpt>
      <trkpt lat="50.66766" lon="1.63559">
        <ele>44.1</ele>
        <time>2020-06-22T13:27:55Z</time>
      </trkpt>
      <trkpt lat="50.66766" lon="1.63559">
        <ele>44.1</ele>
        <time>2020-06-22T13:27:56Z</time>
      </trkpt>
      <trkpt lat="50.66767" lon="1.63561">
        <ele>44.1</ele>
        <time>2020-06-22T13:27:57Z</time>
      </trkpt>
      <trkpt lat="50.66767" lon="1.63563">
        <ele>44.1</ele>
        <time>2020-06-22T13:27:58Z</time>
      </trkpt>
      <trkpt lat="50.66768" lon="1.63563">
        <ele>44.2</ele>
        <time>2020-06-22T13:27:59Z</time>
      </trkpt>
      <trkpt lat="50.66768" lon="1.63564">
        <ele>44.2</ele>
        <time>2020-06-22T13:28:00Z</time>
      </trkpt>
      <trkpt lat="50.66769" lon="1.63565">
        <ele>44.1</ele>
        <time>2020-06-22T13:28:01Z</time>
      </trkpt>
      <trkpt lat="50.6677" lon="1.63566">
        <ele>44.1</ele>
        <time>2020-06-22T13:28:02Z</time>
      </trkpt>
      <trkpt lat="50.66769" lon="1.63566">
        <ele>44.1</ele>
        <time>2020-06-22T13:28:03Z</time>
      </trkpt>
      <trkpt lat="50.66769" lon="1.63566">
        <ele>44.2</ele>
        <time>2020-06-22T13:28:04Z</time>
      </trkpt>
      <trkpt lat="50.66769" lon="1.63566">
        <ele>44.2</ele>
        <time>2020-06-22T13:28:05Z</time>
      </trkpt>
      <trkpt lat="50.66769" lon="1.63565">
        <ele>44.2</ele>
        <time>2020-06-22T13:28:06Z</time>
      </trkpt>
      <trkpt lat="50.66769" lon="1.63565">
        <ele>44.2</ele>
        <time>2020-06-22T13:28:07Z</time>
      </trkpt>
      <trkpt lat="50.66769" lon="1.63565">
        <ele>44.2</ele>
        <time>2020-06-22T13:28:08Z</time>
      </trkpt>
      <trkpt lat="50.66769" lon="1.63564">
        <ele>44.2</ele>
        <time>2020-06-22T13:28:09Z</time>
      </trkpt>
      <trkpt lat="50.66769" lon="1.63564">
        <ele>44.2</ele>
        <time>2020-06-22T13:28:10Z</time>
      </trkpt>
      <trkpt lat="50.66769" lon="1.63565">
        <ele>44.2</ele>
        <time>2020-06-22T13:28:11Z</time>
      </trkpt>
      <trkpt lat="50.66769" lon="1.63565">
        <ele>44.1</ele>
        <time>2020-06-22T13:28:12Z</time>
      </trkpt>
      <trkpt lat="50.66769" lon="1.63565">
        <ele>44.1</ele>
        <time>2020-06-22T13:28:13Z</time>
      </trkpt>
      <trkpt lat="50.66769" lon="1.63556">
        <ele>43.9</ele>
        <time>2020-06-22T13:28:39Z</time>
      </trkpt>
      <trkpt lat="50.66769" lon="1.63556">
        <ele>43.9</ele>
        <time>2020-06-22T13:28:40Z</time>
      </trkpt>
      <trkpt lat="50.6677" lon="1.63556">
        <ele>43.9</ele>
        <time>2020-06-22T13:28:41Z</time>
      </trkpt>
      <trkpt lat="50.6677" lon="1.63555">
        <ele>43.9</ele>
        <time>2020-06-22T13:28:42Z</time>
      </trkpt>
      <trkpt lat="50.6677" lon="1.63555">
        <ele>43.9</ele>
        <time>2020-06-22T13:28:43Z</time>
      </trkpt>
      <trkpt lat="50.6677" lon="1.63555">
        <ele>43.9</ele>
        <time>2020-06-22T13:28:44Z</time>
      </trkpt>
      <trkpt lat="50.66769" lon="1.63554">
        <ele>44</ele>
        <time>2020-06-22T13:28:45Z</time>
      </trkpt>
      <trkpt lat="50.66769" lon="1.63554">
        <ele>43.9</ele>
        <time>2020-06-22T13:28:46Z</time>
      </trkpt>
      <trkpt lat="50.66769" lon="1.63554">
        <ele>43.9</ele>
        <time>2020-06-22T13:28:47Z</time>
      </trkpt>
      <trkpt lat="50.66769" lon="1.63553">
        <ele>43.9</ele>
        <time>2020-06-22T13:28:48Z</time>
      </trkpt>
      <trkpt lat="50.66769" lon="1.63553">
        <ele>43.9</ele>
        <time>2020-06-22T13:28:49Z</time>
      </trkpt>
      <trkpt lat="50.66769" lon="1.63553">
        <ele>43.9</ele>
        <time>2020-06-22T13:28:50Z</time>
      </trkpt>
      <trkpt lat="50.6677" lon="1.63552">
        <ele>43.9</ele>
        <time>2020-06-22T13:28:51Z</time>
      </trkpt>
      <trkpt lat="50.6677" lon="1.63553">
        <ele>43.9</ele>
        <time>2020-06-22T13:28:52Z</time>
      </trkpt>
      <trkpt lat="50.6677" lon="1.63553">
        <ele>43.9</ele>
        <time>2020-06-22T13:28:53Z</time>
      </trkpt>
      <trkpt lat="50.6677" lon="1.63554">
        <ele>43.9</ele>
        <time>2020-06-22T13:28:54Z</time>
      </trkpt>
      <trkpt lat="50.6677" lon="1.63555">
        <ele>43.9</ele>
        <time>2020-06-22T13:28:55Z</time>
      </trkpt>
      <trkpt lat="50.6677" lon="1.63555">
        <ele>43.9</ele>
        <time>2020-06-22T13:28:56Z</time>
      </trkpt>
      <trkpt lat="50.6677" lon="1.63555">
        <ele>43.9</ele>
        <time>2020-06-22T13:28:57Z</time>
      </trkpt>
      <trkpt lat="50.6677" lon="1.63555">
        <ele>43.9</ele>
        <time>2020-06-22T13:28:58Z</time>
      </trkpt>
      <trkpt lat="50.66769" lon="1.63555">
        <ele>43.9</ele>
        <time>2020-06-22T13:28:59Z</time>
      </trkpt>
      <trkpt lat="50.66768" lon="1.63554">
        <ele>44</ele>
        <time>2020-06-22T13:29:00Z</time>
      </trkpt>
      <trkpt lat="50.66768" lon="1.63554">
        <ele>44</ele>
        <time>2020-06-22T13:29:01Z</time>
      </trkpt>
      <trkpt lat="50.66768" lon="1.63554">
        <ele>44</ele>
        <time>2020-06-22T13:29:02Z</time>
      </trkpt>
      <trkpt lat="50.66768" lon="1.63554">
        <ele>44</ele>
        <time>2020-06-22T13:29:03Z</time>
      </trkpt>
      <trkpt lat="50.66767" lon="1.63554">
        <ele>44</ele>
        <time>2020-06-22T13:29:04Z</time>
      </trkpt>
      <trkpt lat="50.66766" lon="1.63556">
        <ele>44.1</ele>
        <time>2020-06-22T13:29:05Z</time>
      </trkpt>
      <trkpt lat="50.66766" lon="1.63556">
        <ele>44.2</ele>
        <time>2020-06-22T13:29:06Z</time>
      </trkpt>
      <trkpt lat="50.66766" lon="1.63557">
        <ele>44.2</ele>
        <time>2020-06-22T13:29:07Z</time>
      </trkpt>
      <trkpt lat="50.66766" lon="1.63557">
        <ele>44.2</ele>
        <time>2020-06-22T13:29:08Z</time>
      </trkpt>
      <trkpt lat="50.66765" lon="1.63558">
        <ele>44.2</ele>
        <time>2020-06-22T13:29:09Z</time>
      </trkpt>
      <trkpt lat="50.66766" lon="1.63558">
        <ele>44.2</ele>
        <time>2020-06-22T13:29:10Z</time>
      </trkpt>
      <trkpt lat="50.66766" lon="1.63559">
        <ele>44.2</ele>
        <time>2020-06-22T13:29:11Z</time>
      </trkpt>
      <trkpt lat="50.66766" lon="1.6356">
        <ele>44.2</ele>
        <time>2020-06-22T13:29:12Z</time>
      </trkpt>
      <trkpt lat="50.66766" lon="1.6356">
        <ele>44.2</ele>
        <time>2020-06-22T13:29:13Z</time>
      </trkpt>
      <trkpt lat="50.66766" lon="1.63561">
        <ele>44.2</ele>
        <time>2020-06-22T13:29:14Z</time>
      </trkpt>
      <trkpt lat="50.66766" lon="1.63561">
        <ele>44.2</ele>
        <time>2020-06-22T13:29:15Z</time>
      </trkpt>
      <trkpt lat="50.66766" lon="1.63561">
        <ele>44.2</ele>
        <time>2020-06-22T13:29:16Z</time>
      </trkpt>
      <trkpt lat="50.66766" lon="1.6356">
        <ele>44.2</ele>
        <time>2020-06-22T13:29:17Z</time>
      </trkpt>
      <trkpt lat="50.66767" lon="1.63558">
        <ele>44.1</ele>
        <time>2020-06-22T13:29:18Z</time>
      </trkpt>
      <trkpt lat="50.66767" lon="1.63558">
        <ele>44.1</ele>
        <time>2020-06-22T13:29:19Z</time>
      </trkpt>
      <trkpt lat="50.66767" lon="1.63557">
        <ele>44.1</ele>
        <time>2020-06-22T13:29:20Z</time>
      </trkpt>
      <trkpt lat="50.66768" lon="1.63557">
        <ele>44.1</ele>
        <time>2020-06-22T13:29:21Z</time>
      </trkpt>
      <trkpt lat="50.66769" lon="1.63556">
        <ele>44.1</ele>
        <time>2020-06-22T13:29:22Z</time>
      </trkpt>
      <trkpt lat="50.66769" lon="1.63557">
        <ele>43.9</ele>
        <time>2020-06-22T13:29:23Z</time>
      </trkpt>
      <trkpt lat="50.66769" lon="1.63557">
        <ele>43.9</ele>
        <time>2020-06-22T13:29:24Z</time>
      </trkpt>
      <trkpt lat="50.6677" lon="1.63557">
        <ele>43.9</ele>
        <time>2020-06-22T13:29:25Z</time>
      </trkpt>
      <trkpt lat="50.6677" lon="1.63557">
        <ele>43.9</ele>
        <time>2020-06-22T13:29:26Z</time>
      </trkpt>
      <trkpt lat="50.66771" lon="1.63557">
        <ele>43.9</ele>
        <time>2020-06-22T13:29:27Z</time>
      </trkpt>
      <trkpt lat="50.66771" lon="1.63558">
        <ele>43.9</ele>
        <time>2020-06-22T13:29:28Z</time>
      </trkpt>
      <trkpt lat="50.66771" lon="1.63558">
        <ele>43.9</ele>
        <time>2020-06-22T13:29:29Z</time>
      </trkpt>
      <trkpt lat="50.66771" lon="1.63558">
        <ele>43.9</ele>
        <time>2020-06-22T13:29:30Z</time>
      </trkpt>
      <trkpt lat="50.66772" lon="1.63557">
        <ele>43.8</ele>
        <time>2020-06-22T13:29:31Z</time>
      </trkpt>
      <trkpt lat="50.66772" lon="1.63556">
        <ele>43.8</ele>
        <time>2020-06-22T13:29:32Z</time>
      </trkpt>
      <trkpt lat="50.66773" lon="1.63556">
        <ele>43.8</ele>
        <time>2020-06-22T13:29:33Z</time>
      </trkpt>
      <trkpt lat="50.66773" lon="1.63556">
        <ele>43.8</ele>
        <time>2020-06-22T13:29:34Z</time>
      </trkpt>
      <trkpt lat="50.66773" lon="1.63557">
        <ele>43.8</ele>
        <time>2020-06-22T13:29:35Z</time>
      </trkpt>
      <trkpt lat="50.66773" lon="1.63556">
        <ele>43.8</ele>
        <time>2020-06-22T13:29:36Z</time>
      </trkpt>
      <trkpt lat="50.66773" lon="1.63556">
        <ele>43.8</ele>
        <time>2020-06-22T13:29:37Z</time>
      </trkpt>
      <trkpt lat="50.66773" lon="1.63555">
        <ele>43.8</ele>
        <time>2020-06-22T13:29:38Z</time>
      </trkpt>
      <trkpt lat="50.66773" lon="1.63557">
        <ele>43.8</ele>
        <time>2020-06-22T13:29:39Z</time>
      </trkpt>
      <trkpt lat="50.66773" lon="1.63558">
        <ele>43.8</ele>
        <time>2020-06-22T13:29:40Z</time>
      </trkpt>
      <trkpt lat="50.66773" lon="1.63559">
        <ele>43.8</ele>
        <time>2020-06-22T13:29:41Z</time>
      </trkpt>
      <trkpt lat="50.66772" lon="1.6356">
        <ele>43.9</ele>
        <time>2020-06-22T13:29:42Z</time>
      </trkpt>
      <trkpt lat="50.66772" lon="1.63561">
        <ele>43.9</ele>
        <time>2020-06-22T13:29:43Z</time>
      </trkpt>
      <trkpt lat="50.66771" lon="1.63562">
        <ele>44</ele>
        <time>2020-06-22T13:29:44Z</time>
      </trkpt>
      <trkpt lat="50.66771" lon="1.63563">
        <ele>44</ele>
        <time>2020-06-22T13:30:42Z</time>
      </trkpt>
      <trkpt lat="50.66771" lon="1.63564">
        <ele>44.1</ele>
        <time>2020-06-22T13:30:43Z</time>
      </trkpt>
      <trkpt lat="50.6677" lon="1.63565">
        <ele>44.1</ele>
        <time>2020-06-22T13:30:44Z</time>
      </trkpt>
      <trkpt lat="50.6677" lon="1.63566">
        <ele>44.1</ele>
        <time>2020-06-22T13:30:45Z</time>
      </trkpt>
      <trkpt lat="50.6677" lon="1.63566">
        <ele>44.1</ele>
        <time>2020-06-22T13:30:46Z</time>
      </trkpt>
      <trkpt lat="50.6677" lon="1.63565">
        <ele>44.1</ele>
        <time>2020-06-22T13:30:47Z</time>
      </trkpt>
      <trkpt lat="50.6677" lon="1.63564">
        <ele>44.1</ele>
        <time>2020-06-22T13:30:48Z</time>
      </trkpt>
      <trkpt lat="50.6677" lon="1.63564">
        <ele>44.1</ele>
        <time>2020-06-22T13:30:49Z</time>
      </trkpt>
      <trkpt lat="50.6677" lon="1.63564">
        <ele>44.1</ele>
        <time>2020-06-22T13:30:50Z</time>
      </trkpt>
      <trkpt lat="50.6677" lon="1.63565">
        <ele>44.1</ele>
        <time>2020-06-22T13:30:51Z</time>
      </trkpt>
      <trkpt lat="50.6677" lon="1.63564">
        <ele>44.1</ele>
        <time>2020-06-22T13:30:52Z</time>
      </trkpt>
      <trkpt lat="50.6677" lon="1.63563">
        <ele>44</ele>
        <time>2020-06-22T13:30:53Z</time>
      </trkpt>
      <trkpt lat="50.6677" lon="1.63563">
        <ele>44</ele>
        <time>2020-06-22T13:30:54Z</time>
      </trkpt>
      <trkpt lat="50.6677" lon="1.63563">
        <ele>44</ele>
        <time>2020-06-22T13:30:55Z</time>
      </trkpt>
      <trkpt lat="50.66771" lon="1.63563">
        <ele>44.1</ele>
        <time>2020-06-22T13:30:56Z</time>
      </trkpt>
      <trkpt lat="50.6677" lon="1.63564">
        <ele>44.1</ele>
        <time>2020-06-22T13:30:57Z</time>
      </trkpt>
      <trkpt lat="50.6677" lon="1.63565">
        <ele>44.1</ele>
        <time>2020-06-22T13:30:58Z</time>
      </trkpt>
      <trkpt lat="50.6677" lon="1.63566">
        <ele>44.1</ele>
        <time>2020-06-22T13:30:59Z</time>
      </trkpt>
      <trkpt lat="50.6677" lon="1.63567">
        <ele>44.1</ele>
        <time>2020-06-22T13:31:00Z</time>
      </trkpt>
      <trkpt lat="50.6677" lon="1.63569">
        <ele>44.2</ele>
        <time>2020-06-22T13:31:01Z</time>
      </trkpt>
      <trkpt lat="50.66769" lon="1.63569">
        <ele>44.2</ele>
        <time>2020-06-22T13:31:02Z</time>
      </trkpt>
      <trkpt lat="50.66769" lon="1.6357">
        <ele>44.2</ele>
        <time>2020-06-22T13:31:03Z</time>
      </trkpt>
      <trkpt lat="50.66769" lon="1.63572">
        <ele>44.3</ele>
        <time>2020-06-22T13:31:04Z</time>
      </trkpt>
      <trkpt lat="50.66768" lon="1.63572">
        <ele>44.5</ele>
        <time>2020-06-22T13:31:05Z</time>
      </trkpt>
      <trkpt lat="50.66768" lon="1.63571">
        <ele>44.3</ele>
        <time>2020-06-22T13:31:06Z</time>
      </trkpt>
      <trkpt lat="50.66768" lon="1.6357">
        <ele>44.3</ele>
        <time>2020-06-22T13:31:07Z</time>
      </trkpt>
      <trkpt lat="50.66768" lon="1.6357">
        <ele>44.3</ele>
        <time>2020-06-22T13:31:08Z</time>
      </trkpt>
      <trkpt lat="50.66768" lon="1.6357">
        <ele>44.3</ele>
        <time>2020-06-22T13:31:09Z</time>
      </trkpt>
      <trkpt lat="50.66768" lon="1.6357">
        <ele>44.3</ele>
        <time>2020-06-22T13:31:10Z</time>
      </trkpt>
      <trkpt lat="50.66767" lon="1.63568">
        <ele>44.3</ele>
        <time>2020-06-22T13:31:11Z</time>
      </trkpt>
      <trkpt lat="50.66767" lon="1.63567">
        <ele>44.2</ele>
        <time>2020-06-22T13:31:12Z</time>
      </trkpt>
      <trkpt lat="50.66767" lon="1.63566">
        <ele>44.2</ele>
        <time>2020-06-22T13:31:13Z</time>
      </trkpt>
      <trkpt lat="50.66766" lon="1.63563">
        <ele>44.3</ele>
        <time>2020-06-22T13:31:14Z</time>
      </trkpt>
      <trkpt lat="50.66766" lon="1.63563">
        <ele>44.3</ele>
        <time>2020-06-22T13:31:15Z</time>
      </trkpt>
      <trkpt lat="50.66766" lon="1.63564">
        <ele>44.3</ele>
        <time>2020-06-22T13:31:16Z</time>
      </trkpt>
      <trkpt lat="50.66765" lon="1.63564">
        <ele>44.3</ele>
        <time>2020-06-22T13:31:17Z</time>
      </trkpt>
      <trkpt lat="50.66765" lon="1.63565">
        <ele>44.3</ele>
        <time>2020-06-22T13:31:18Z</time>
      </trkpt>
      <trkpt lat="50.66765" lon="1.63566">
        <ele>44.3</ele>
        <time>2020-06-22T13:31:19Z</time>
      </trkpt>
      <trkpt lat="50.66765" lon="1.63567">
        <ele>44.3</ele>
        <time>2020-06-22T13:31:20Z</time>
      </trkpt>
      <trkpt lat="50.66764" lon="1.63567">
        <ele>44.3</ele>
        <time>2020-06-22T13:31:21Z</time>
      </trkpt>
      <trkpt lat="50.66764" lon="1.63568">
        <ele>44.3</ele>
        <time>2020-06-22T13:31:22Z</time>
      </trkpt>
      <trkpt lat="50.66764" lon="1.63567">
        <ele>44.3</ele>
        <time>2020-06-22T13:31:23Z</time>
      </trkpt>
      <trkpt lat="50.66764" lon="1.63565">
        <ele>44.3</ele>
        <time>2020-06-22T13:31:24Z</time>
      </trkpt>
      <trkpt lat="50.66764" lon="1.63565">
        <ele>44.3</ele>
        <time>2020-06-22T13:31:25Z</time>
      </trkpt>
      <trkpt lat="50.66765" lon="1.63564">
        <ele>44.3</ele>
        <time>2020-06-22T13:31:26Z</time>
      </trkpt>
      <trkpt lat="50.66764" lon="1.63566">
        <ele>44.3</ele>
        <time>2020-06-22T13:31:27Z</time>
      </trkpt>
      <trkpt lat="50.66765" lon="1.63564">
        <ele>44.3</ele>
        <time>2020-06-22T13:31:28Z</time>
      </trkpt>
      <trkpt lat="50.66767" lon="1.6356">
        <ele>44.1</ele>
        <time>2020-06-22T13:31:29Z</time>
      </trkpt>
      <trkpt lat="50.66768" lon="1.63559">
        <ele>44.1</ele>
        <time>2020-06-22T13:31:30Z</time>
      </trkpt>
      <trkpt lat="50.66769" lon="1.63557">
        <ele>44.1</ele>
        <time>2020-06-22T13:31:31Z</time>
      </trkpt>
      <trkpt lat="50.66769" lon="1.63557">
        <ele>44.1</ele>
        <time>2020-06-22T13:31:32Z</time>
      </trkpt>
      <trkpt lat="50.66769" lon="1.63557">
        <ele>44.1</ele>
        <time>2020-06-22T13:31:33Z</time>
      </trkpt>
      <trkpt lat="50.66769" lon="1.63557">
        <ele>43.9</ele>
        <time>2020-06-22T13:31:34Z</time>
      </trkpt>
      <trkpt lat="50.66769" lon="1.63557">
        <ele>43.9</ele>
        <time>2020-06-22T13:31:35Z</time>
      </trkpt>
      <trkpt lat="50.66769" lon="1.63557">
        <ele>43.9</ele>
        <time>2020-06-22T13:31:36Z</time>
      </trkpt>
      <trkpt lat="50.66769" lon="1.63557">
        <ele>43.9</ele>
        <time>2020-06-22T13:31:37Z</time>
      </trkpt>
      <trkpt lat="50.66769" lon="1.63557">
        <ele>43.9</ele>
        <time>2020-06-22T13:31:38Z</time>
      </trkpt>
      <trkpt lat="50.66771" lon="1.63563">
        <ele>44.1</ele>
        <time>2020-06-22T13:31:46Z</time>
      </trkpt>
      <trkpt lat="50.66772" lon="1.63564">
        <ele>44</ele>
        <time>2020-06-22T13:31:47Z</time>
      </trkpt>
      <trkpt lat="50.66772" lon="1.63563">
        <ele>44</ele>
        <time>2020-06-22T13:31:48Z</time>
      </trkpt>
      <trkpt lat="50.66772" lon="1.63564">
        <ele>44</ele>
        <time>2020-06-22T13:31:49Z</time>
      </trkpt>
      <trkpt lat="50.66773" lon="1.63566">
        <ele>44</ele>
        <time>2020-06-22T13:31:50Z</time>
      </trkpt>
      <trkpt lat="50.66773" lon="1.63566">
        <ele>44</ele>
        <time>2020-06-22T13:31:51Z</time>
      </trkpt>
      <trkpt lat="50.66773" lon="1.63567">
        <ele>44</ele>
        <time>2020-06-22T13:31:52Z</time>
      </trkpt>
      <trkpt lat="50.66773" lon="1.63566">
        <ele>44</ele>
        <time>2020-06-22T13:31:53Z</time>
      </trkpt>
      <trkpt lat="50.66773" lon="1.63566">
        <ele>44</ele>
        <time>2020-06-22T13:31:54Z</time>
      </trkpt>
      <trkpt lat="50.66773" lon="1.63567">
        <ele>44</ele>
        <time>2020-06-22T13:31:55Z</time>
      </trkpt>
      <trkpt lat="50.66773" lon="1.63567">
        <ele>44</ele>
        <time>2020-06-22T13:31:56Z</time>
      </trkpt>
      <trkpt lat="50.66774" lon="1.63567">
        <ele>44</ele>
        <time>2020-06-22T13:31:57Z</time>
      </trkpt>
      <trkpt lat="50.66774" lon="1.63567">
        <ele>44</ele>
        <time>2020-06-22T13:31:58Z</time>
      </trkpt>
      <trkpt lat="50.66773" lon="1.63567">
        <ele>44</ele>
        <time>2020-06-22T13:31:59Z</time>
      </trkpt>
      <trkpt lat="50.66772" lon="1.63567">
        <ele>44</ele>
        <time>2020-06-22T13:32:00Z</time>
      </trkpt>
      <trkpt lat="50.66772" lon="1.63568">
        <ele>44.2</ele>
        <time>2020-06-22T13:32:01Z</time>
      </trkpt>
      <trkpt lat="50.66771" lon="1.6357">
        <ele>44.2</ele>
        <time>2020-06-22T13:32:02Z</time>
      </trkpt>
      <trkpt lat="50.6677" lon="1.63571">
        <ele>44.2</ele>
        <time>2020-06-22T13:32:03Z</time>
      </trkpt>
      <trkpt lat="50.66768" lon="1.63573">
        <ele>44.5</ele>
        <time>2020-06-22T13:32:04Z</time>
      </trkpt>
      <trkpt lat="50.66767" lon="1.63573">
        <ele>44.5</ele>
        <time>2020-06-22T13:32:05Z</time>
      </trkpt>
      <trkpt lat="50.66765" lon="1.63574">
        <ele>44.6</ele>
        <time>2020-06-22T13:32:06Z</time>
      </trkpt>
      <trkpt lat="50.66762" lon="1.63574">
        <ele>44.7</ele>
        <time>2020-06-22T13:32:07Z</time>
      </trkpt>
      <trkpt lat="50.66761" lon="1.63574">
        <ele>44.7</ele>
        <time>2020-06-22T13:32:08Z</time>
      </trkpt>
      <trkpt lat="50.66759" lon="1.63575">
        <ele>44.8</ele>
        <time>2020-06-22T13:32:09Z</time>
      </trkpt>
      <trkpt lat="50.66758" lon="1.63576">
        <ele>44.8</ele>
        <time>2020-06-22T13:32:10Z</time>
      </trkpt>
      <trkpt lat="50.66757" lon="1.63577">
        <ele>45.1</ele>
        <time>2020-06-22T13:32:11Z</time>
      </trkpt>
      <trkpt lat="50.66755" lon="1.63576">
        <ele>45.2</ele>
        <time>2020-06-22T13:32:12Z</time>
      </trkpt>
      <trkpt lat="50.66752" lon="1.63577">
        <ele>45.3</ele>
        <time>2020-06-22T13:32:13Z</time>
      </trkpt>
      <trkpt lat="50.6675" lon="1.63577">
        <ele>45.3</ele>
        <time>2020-06-22T13:32:14Z</time>
      </trkpt>
      <trkpt lat="50.66747" lon="1.63577">
        <ele>45.4</ele>
        <time>2020-06-22T13:32:15Z</time>
      </trkpt>
      <trkpt lat="50.66743" lon="1.63576">
        <ele>45.4</ele>
        <time>2020-06-22T13:32:16Z</time>
      </trkpt>
      <trkpt lat="50.6674" lon="1.63574">
        <ele>45.5</ele>
        <time>2020-06-22T13:32:17Z</time>
      </trkpt>
      <trkpt lat="50.66739" lon="1.63573">
        <ele>45.5</ele>
        <time>2020-06-22T13:32:18Z</time>
      </trkpt>
      <trkpt lat="50.66738" lon="1.63571">
        <ele>45.6</ele>
        <time>2020-06-22T13:32:19Z</time>
      </trkpt>
      <trkpt lat="50.66737" lon="1.6357">
        <ele>45.6</ele>
        <time>2020-06-22T13:32:20Z</time>
      </trkpt>
      <trkpt lat="50.66736" lon="1.6357">
        <ele>45.7</ele>
        <time>2020-06-22T13:32:21Z</time>
      </trkpt>
      <trkpt lat="50.66735" lon="1.63569">
        <ele>45.7</ele>
        <time>2020-06-22T13:32:22Z</time>
      </trkpt>
      <trkpt lat="50.66735" lon="1.63569">
        <ele>45.7</ele>
        <time>2020-06-22T13:32:23Z</time>
      </trkpt>
      <trkpt lat="50.66736" lon="1.63568">
        <ele>45.7</ele>
        <time>2020-06-22T13:32:24Z</time>
      </trkpt>
      <trkpt lat="50.66736" lon="1.63567">
        <ele>45.6</ele>
        <time>2020-06-22T13:32:25Z</time>
      </trkpt>
      <trkpt lat="50.66737" lon="1.63566">
        <ele>45.5</ele>
        <time>2020-06-22T13:32:26Z</time>
      </trkpt>
      <trkpt lat="50.66738" lon="1.63566">
        <ele>45.5</ele>
        <time>2020-06-22T13:32:27Z</time>
      </trkpt>
      <trkpt lat="50.66738" lon="1.63565">
        <ele>45.5</ele>
        <time>2020-06-22T13:32:28Z</time>
      </trkpt>
      <trkpt lat="50.66738" lon="1.63565">
        <ele>45.5</ele>
        <time>2020-06-22T13:32:29Z</time>
      </trkpt>
      <trkpt lat="50.66739" lon="1.63565">
        <ele>45.4</ele>
        <time>2020-06-22T13:32:30Z</time>
      </trkpt>
      <trkpt lat="50.6674" lon="1.63565">
        <ele>45.4</ele>
        <time>2020-06-22T13:32:31Z</time>
      </trkpt>
      <trkpt lat="50.66741" lon="1.63565">
        <ele>45.4</ele>
        <time>2020-06-22T13:32:32Z</time>
      </trkpt>
      <trkpt lat="50.66741" lon="1.63565">
        <ele>45.4</ele>
        <time>2020-06-22T13:32:33Z</time>
      </trkpt>
      <trkpt lat="50.66741" lon="1.63565">
        <ele>45.4</ele>
        <time>2020-06-22T13:32:34Z</time>
      </trkpt>
      <trkpt lat="50.66741" lon="1.63565">
        <ele>45.4</ele>
        <time>2020-06-22T13:32:35Z</time>
      </trkpt>
      <trkpt lat="50.66741" lon="1.63565">
        <ele>45.4</ele>
        <time>2020-06-22T13:32:36Z</time>
      </trkpt>
      <trkpt lat="50.66741" lon="1.63565">
        <ele>45.4</ele>
        <time>2020-06-22T13:32:37Z</time>
      </trkpt>
      <trkpt lat="50.66742" lon="1.63564">
        <ele>45.4</ele>
        <time>2020-06-22T13:32:38Z</time>
      </trkpt>
      <trkpt lat="50.66743" lon="1.63565">
        <ele>45.3</ele>
        <time>2020-06-22T13:32:39Z</time>
      </trkpt>
      <trkpt lat="50.66743" lon="1.63565">
        <ele>45.3</ele>
        <time>2020-06-22T13:32:40Z</time>
      </trkpt>
      <trkpt lat="50.66743" lon="1.63564">
        <ele>45.3</ele>
        <time>2020-06-22T13:32:41Z</time>
      </trkpt>
      <trkpt lat="50.66743" lon="1.63564">
        <ele>45.3</ele>
        <time>2020-06-22T13:32:42Z</time>
      </trkpt>
      <trkpt lat="50.66742" lon="1.63563">
        <ele>45.3</ele>
        <time>2020-06-22T13:32:43Z</time>
      </trkpt>
      <trkpt lat="50.66743" lon="1.63563">
        <ele>45.3</ele>
        <time>2020-06-22T13:32:44Z</time>
      </trkpt>
      <trkpt lat="50.66743" lon="1.63562">
        <ele>45.3</ele>
        <time>2020-06-22T13:32:45Z</time>
      </trkpt>
      <trkpt lat="50.66742" lon="1.63562">
        <ele>45.3</ele>
        <time>2020-06-22T13:32:46Z</time>
      </trkpt>
      <trkpt lat="50.66743" lon="1.63562">
        <ele>45.3</ele>
        <time>2020-06-22T13:32:47Z</time>
      </trkpt>
      <trkpt lat="50.66743" lon="1.63561">
        <ele>45.3</ele>
        <time>2020-06-22T13:32:48Z</time>
      </trkpt>
      <trkpt lat="50.66744" lon="1.6356">
        <ele>45.3</ele>
        <time>2020-06-22T13:32:49Z</time>
      </trkpt>
      <trkpt lat="50.66745" lon="1.63559">
        <ele>45.1</ele>
        <time>2020-06-22T13:32:50Z</time>
      </trkpt>
      <trkpt lat="50.66745" lon="1.63558">
        <ele>45.1</ele>
        <time>2020-06-22T13:32:51Z</time>
      </trkpt>
      <trkpt lat="50.66745" lon="1.63557">
        <ele>45.1</ele>
        <time>2020-06-22T13:32:52Z</time>
      </trkpt>
      <trkpt lat="50.66746" lon="1.63556">
        <ele>45.1</ele>
        <time>2020-06-22T13:32:53Z</time>
      </trkpt>
      <trkpt lat="50.66747" lon="1.63555">
        <ele>45.1</ele>
        <time>2020-06-22T13:32:54Z</time>
      </trkpt>
      <trkpt lat="50.66747" lon="1.63553">
        <ele>45</ele>
        <time>2020-06-22T13:32:55Z</time>
      </trkpt>
      <trkpt lat="50.66748" lon="1.63551">
        <ele>45</ele>
        <time>2020-06-22T13:32:56Z</time>
      </trkpt>
      <trkpt lat="50.66749" lon="1.63551">
        <ele>45</ele>
        <time>2020-06-22T13:32:57Z</time>
      </trkpt>
      <trkpt lat="50.66749" lon="1.63551">
        <ele>45</ele>
        <time>2020-06-22T13:32:58Z</time>
      </trkpt>
      <trkpt lat="50.6675" lon="1.6355">
        <ele>45</ele>
        <time>2020-06-22T13:32:59Z</time>
      </trkpt>
      <trkpt lat="50.6675" lon="1.6355">
        <ele>44.8</ele>
        <time>2020-06-22T13:33:00Z</time>
      </trkpt>
      <trkpt lat="50.6675" lon="1.6355">
        <ele>44.8</ele>
        <time>2020-06-22T13:33:01Z</time>
      </trkpt>
      <trkpt lat="50.66751" lon="1.63548">
        <ele>44.8</ele>
        <time>2020-06-22T13:33:02Z</time>
      </trkpt>
      <trkpt lat="50.66751" lon="1.63547">
        <ele>44.8</ele>
        <time>2020-06-22T13:33:03Z</time>
      </trkpt>
      <trkpt lat="50.66751" lon="1.63548">
        <ele>44.8</ele>
        <time>2020-06-22T13:33:04Z</time>
      </trkpt>
      <trkpt lat="50.66751" lon="1.63548">
        <ele>44.8</ele>
        <time>2020-06-22T13:33:05Z</time>
      </trkpt>
      <trkpt lat="50.66751" lon="1.63549">
        <ele>44.8</ele>
        <time>2020-06-22T13:33:06Z</time>
      </trkpt>
      <trkpt lat="50.66751" lon="1.6355">
        <ele>44.8</ele>
        <time>2020-06-22T13:33:07Z</time>
      </trkpt>
      <trkpt lat="50.66751" lon="1.63551">
        <ele>44.8</ele>
        <time>2020-06-22T13:33:08Z</time>
      </trkpt>
      <trkpt lat="50.66751" lon="1.63552">
        <ele>44.8</ele>
        <time>2020-06-22T13:33:09Z</time>
      </trkpt>
      <trkpt lat="50.66751" lon="1.63554">
        <ele>44.8</ele>
        <time>2020-06-22T13:33:10Z</time>
      </trkpt>
      <trkpt lat="50.66752" lon="1.63554">
        <ele>44.8</ele>
        <time>2020-06-22T13:33:11Z</time>
      </trkpt>
      <trkpt lat="50.66752" lon="1.63555">
        <ele>44.8</ele>
        <time>2020-06-22T13:33:12Z</time>
      </trkpt>
      <trkpt lat="50.66752" lon="1.63557">
        <ele>44.8</ele>
        <time>2020-06-22T13:33:13Z</time>
      </trkpt>
      <trkpt lat="50.66765" lon="1.63566">
        <ele>44.3</ele>
        <time>2020-06-22T13:33:28Z</time>
      </trkpt>
      <trkpt lat="50.66766" lon="1.63567">
        <ele>44.3</ele>
        <time>2020-06-22T13:33:29Z</time>
      </trkpt>
      <trkpt lat="50.66767" lon="1.63567">
        <ele>44.2</ele>
        <time>2020-06-22T13:33:30Z</time>
      </trkpt>
      <trkpt lat="50.66767" lon="1.63567">
        <ele>44.2</ele>
        <time>2020-06-22T13:33:31Z</time>
      </trkpt>
      <trkpt lat="50.66768" lon="1.63566">
        <ele>44.2</ele>
        <time>2020-06-22T13:33:32Z</time>
      </trkpt>
      <trkpt lat="50.66769" lon="1.63566">
        <ele>44.1</ele>
        <time>2020-06-22T13:33:33Z</time>
      </trkpt>
      <trkpt lat="50.6677" lon="1.63566">
        <ele>44.1</ele>
        <time>2020-06-22T13:33:34Z</time>
      </trkpt>
      <trkpt lat="50.66771" lon="1.63565">
        <ele>44.1</ele>
        <time>2020-06-22T13:33:35Z</time>
      </trkpt>
      <trkpt lat="50.66772" lon="1.63565">
        <ele>44</ele>
        <time>2020-06-22T13:33:36Z</time>
      </trkpt>
      <trkpt lat="50.66773" lon="1.63565">
        <ele>44</ele>
        <time>2020-06-22T13:33:37Z</time>
      </trkpt>
      <trkpt lat="50.66774" lon="1.63565">
        <ele>44</ele>
        <time>2020-06-22T13:33:38Z</time>
      </trkpt>
      <trkpt lat="50.66775" lon="1.63565">
        <ele>43.9</ele>
        <time>2020-06-22T13:33:39Z</time>
      </trkpt>
      <trkpt lat="50.66776" lon="1.63565">
        <ele>43.9</ele>
        <time>2020-06-22T13:33:40Z</time>
      </trkpt>
      <trkpt lat="50.66777" lon="1.63564">
        <ele>43.9</ele>
        <time>2020-06-22T13:33:41Z</time>
      </trkpt>
      <trkpt lat="50.66778" lon="1.63565">
        <ele>43.8</ele>
        <time>2020-06-22T13:33:42Z</time>
      </trkpt>
      <trkpt lat="50.66779" lon="1.63565">
        <ele>43.8</ele>
        <time>2020-06-22T13:33:43Z</time>
      </trkpt>
      <trkpt lat="50.6678" lon="1.63565">
        <ele>43.8</ele>
        <time>2020-06-22T13:33:44Z</time>
      </trkpt>
      <trkpt lat="50.66781" lon="1.63566">
        <ele>43.7</ele>
        <time>2020-06-22T13:33:45Z</time>
      </trkpt>
      <trkpt lat="50.66782" lon="1.63566">
        <ele>43.7</ele>
        <time>2020-06-22T13:33:46Z</time>
      </trkpt>
      <trkpt lat="50.66783" lon="1.63567">
        <ele>43.6</ele>
        <time>2020-06-22T13:33:47Z</time>
      </trkpt>
      <trkpt lat="50.66784" lon="1.63568">
        <ele>43.7</ele>
        <time>2020-06-22T13:33:48Z</time>
      </trkpt>
      <trkpt lat="50.66784" lon="1.63568">
        <ele>43.7</ele>
        <time>2020-06-22T13:33:49Z</time>
      </trkpt>
      <trkpt lat="50.66785" lon="1.63568">
        <ele>43.7</ele>
        <time>2020-06-22T13:33:50Z</time>
      </trkpt>
      <trkpt lat="50.66785" lon="1.63568">
        <ele>43.6</ele>
        <time>2020-06-22T13:33:51Z</time>
      </trkpt>
      <trkpt lat="50.66786" lon="1.63568">
        <ele>43.6</ele>
        <time>2020-06-22T13:33:52Z</time>
      </trkpt>
      <trkpt lat="50.66786" lon="1.63569">
        <ele>43.6</ele>
        <time>2020-06-22T13:33:53Z</time>
      </trkpt>
      <trkpt lat="50.66786" lon="1.63568">
        <ele>43.6</ele>
        <time>2020-06-22T13:33:54Z</time>
      </trkpt>
      <trkpt lat="50.66787" lon="1.63567">
        <ele>43.5</ele>
        <time>2020-06-22T13:33:55Z</time>
      </trkpt>
      <trkpt lat="50.66787" lon="1.63565">
        <ele>43.5</ele>
        <time>2020-06-22T13:33:56Z</time>
      </trkpt>
      <trkpt lat="50.66787" lon="1.63563">
        <ele>43.4</ele>
        <time>2020-06-22T13:33:57Z</time>
      </trkpt>
      <trkpt lat="50.66787" lon="1.63557">
        <ele>43.3</ele>
        <time>2020-06-22T13:33:58Z</time>
      </trkpt>
      <trkpt lat="50.66787" lon="1.63554">
        <ele>43.2</ele>
        <time>2020-06-22T13:33:59Z</time>
      </trkpt>
      <trkpt lat="50.66786" lon="1.6355">
        <ele>43.2</ele>
        <time>2020-06-22T13:34:00Z</time>
      </trkpt>
      <trkpt lat="50.66786" lon="1.63549">
        <ele>43.2</ele>
        <time>2020-06-22T13:34:01Z</time>
      </trkpt>
      <trkpt lat="50.66785" lon="1.63546">
        <ele>43.2</ele>
        <time>2020-06-22T13:34:02Z</time>
      </trkpt>
      <trkpt lat="50.66786" lon="1.63546">
        <ele>43.1</ele>
        <time>2020-06-22T13:34:03Z</time>
      </trkpt>
      <trkpt lat="50.66786" lon="1.63546">
        <ele>43.2</ele>
        <time>2020-06-22T13:34:04Z</time>
      </trkpt>
      <trkpt lat="50.66785" lon="1.63547">
        <ele>43.2</ele>
        <time>2020-06-22T13:34:05Z</time>
      </trkpt>
      <trkpt lat="50.66785" lon="1.63547">
        <ele>43.3</ele>
        <time>2020-06-22T13:34:06Z</time>
      </trkpt>
      <trkpt lat="50.66785" lon="1.63548">
        <ele>43.3</ele>
        <time>2020-06-22T13:34:07Z</time>
      </trkpt>
      <trkpt lat="50.66785" lon="1.63549">
        <ele>43.3</ele>
        <time>2020-06-22T13:34:08Z</time>
      </trkpt>
      <trkpt lat="50.66785" lon="1.6355">
        <ele>43.3</ele>
        <time>2020-06-22T13:34:09Z</time>
      </trkpt>
      <trkpt lat="50.66785" lon="1.63552">
        <ele>43.3</ele>
        <time>2020-06-22T13:34:10Z</time>
      </trkpt>
      <trkpt lat="50.66785" lon="1.63553">
        <ele>43.3</ele>
        <time>2020-06-22T13:34:11Z</time>
      </trkpt>
      <trkpt lat="50.66785" lon="1.63554">
        <ele>43.3</ele>
        <time>2020-06-22T13:34:12Z</time>
      </trkpt>
      <trkpt lat="50.66785" lon="1.63554">
        <ele>43.3</ele>
        <time>2020-06-22T13:34:13Z</time>
      </trkpt>
      <trkpt lat="50.66785" lon="1.63554">
        <ele>43.3</ele>
        <time>2020-06-22T13:34:14Z</time>
      </trkpt>
      <trkpt lat="50.66785" lon="1.63554">
        <ele>43.3</ele>
        <time>2020-06-22T13:34:15Z</time>
      </trkpt>
      <trkpt lat="50.66785" lon="1.63554">
        <ele>43.3</ele>
        <time>2020-06-22T13:34:16Z</time>
      </trkpt>
      <trkpt lat="50.66785" lon="1.63554">
        <ele>43.3</ele>
        <time>2020-06-22T13:34:17Z</time>
      </trkpt>
      <trkpt lat="50.66785" lon="1.63555">
        <ele>43.4</ele>
        <time>2020-06-22T13:34:18Z</time>
      </trkpt>
      <trkpt lat="50.66784" lon="1.63556">
        <ele>43.4</ele>
        <time>2020-06-22T13:34:19Z</time>
      </trkpt>
      <trkpt lat="50.66783" lon="1.63557">
        <ele>43.4</ele>
        <time>2020-06-22T13:34:20Z</time>
      </trkpt>
      <trkpt lat="50.66783" lon="1.63558">
        <ele>43.4</ele>
        <time>2020-06-22T13:34:21Z</time>
      </trkpt>
      <trkpt lat="50.66783" lon="1.63558">
        <ele>43.4</ele>
        <time>2020-06-22T13:34:22Z</time>
      </trkpt>
      <trkpt lat="50.66779" lon="1.63566">
        <ele>43.8</ele>
        <time>2020-06-22T13:34:49Z</time>
      </trkpt>
      <trkpt lat="50.66779" lon="1.63566">
        <ele>43.8</ele>
        <time>2020-06-22T13:34:50Z</time>
      </trkpt>
      <trkpt lat="50.66779" lon="1.63566">
        <ele>43.8</ele>
        <time>2020-06-22T13:34:51Z</time>
      </trkpt>
      <trkpt lat="50.66779" lon="1.63566">
        <ele>43.8</ele>
        <time>2020-06-22T13:34:52Z</time>
      </trkpt>
      <trkpt lat="50.66779" lon="1.63567">
        <ele>43.8</ele>
        <time>2020-06-22T13:34:53Z</time>
      </trkpt>
      <trkpt lat="50.66779" lon="1.63568">
        <ele>43.9</ele>
        <time>2020-06-22T13:34:54Z</time>
      </trkpt>
      <trkpt lat="50.66779" lon="1.63568">
        <ele>43.8</ele>
        <time>2020-06-22T13:34:55Z</time>
      </trkpt>
      <trkpt lat="50.66779" lon="1.63567">
        <ele>43.8</ele>
        <time>2020-06-22T13:34:56Z</time>
      </trkpt>
      <trkpt lat="50.66779" lon="1.63566">
        <ele>43.8</ele>
        <time>2020-06-22T13:34:57Z</time>
      </trkpt>
      <trkpt lat="50.66779" lon="1.63566">
        <ele>43.8</ele>
        <time>2020-06-22T13:34:58Z</time>
      </trkpt>
      <trkpt lat="50.66779" lon="1.63567">
        <ele>43.8</ele>
        <time>2020-06-22T13:34:59Z</time>
      </trkpt>
      <trkpt lat="50.6678" lon="1.63567">
        <ele>43.8</ele>
        <time>2020-06-22T13:35:00Z</time>
      </trkpt>
      <trkpt lat="50.6678" lon="1.63567">
        <ele>43.8</ele>
        <time>2020-06-22T13:35:01Z</time>
      </trkpt>
      <trkpt lat="50.6678" lon="1.63567">
        <ele>43.7</ele>
        <time>2020-06-22T13:35:02Z</time>
      </trkpt>
      <trkpt lat="50.6678" lon="1.63567">
        <ele>43.7</ele>
        <time>2020-06-22T13:35:03Z</time>
      </trkpt>
      <trkpt lat="50.6678" lon="1.63567">
        <ele>43.7</ele>
        <time>2020-06-22T13:35:04Z</time>
      </trkpt>
      <trkpt lat="50.66781" lon="1.63567">
        <ele>43.7</ele>
        <time>2020-06-22T13:35:05Z</time>
      </trkpt>
      <trkpt lat="50.66781" lon="1.63567">
        <ele>43.7</ele>
        <time>2020-06-22T13:35:06Z</time>
      </trkpt>
      <trkpt lat="50.66781" lon="1.63567">
        <ele>43.7</ele>
        <time>2020-06-22T13:35:07Z</time>
      </trkpt>
      <trkpt lat="50.66781" lon="1.63567">
        <ele>43.7</ele>
        <time>2020-06-22T13:35:08Z</time>
      </trkpt>
      <trkpt lat="50.66781" lon="1.63567">
        <ele>43.7</ele>
        <time>2020-06-22T13:35:09Z</time>
      </trkpt>
      <trkpt lat="50.66781" lon="1.63567">
        <ele>43.7</ele>
        <time>2020-06-22T13:35:10Z</time>
      </trkpt>
      <trkpt lat="50.66782" lon="1.63566">
        <ele>43.6</ele>
        <time>2020-06-22T13:35:11Z</time>
      </trkpt>
      <trkpt lat="50.66782" lon="1.63566">
        <ele>43.6</ele>
        <time>2020-06-22T13:35:12Z</time>
      </trkpt>
      <trkpt lat="50.66782" lon="1.63566">
        <ele>43.6</ele>
        <time>2020-06-22T13:35:13Z</time>
      </trkpt>
      <trkpt lat="50.66782" lon="1.63565">
        <ele>43.6</ele>
        <time>2020-06-22T13:35:14Z</time>
      </trkpt>
      <trkpt lat="50.66788" lon="1.63562">
        <ele>43.3</ele>
        <time>2020-06-22T13:36:47Z</time>
      </trkpt>
      <trkpt lat="50.66788" lon="1.63562">
        <ele>43.3</ele>
        <time>2020-06-22T13:36:48Z</time>
      </trkpt>
      <trkpt lat="50.66788" lon="1.63561">
        <ele>43.3</ele>
        <time>2020-06-22T13:36:49Z</time>
      </trkpt>
      <trkpt lat="50.66788" lon="1.63561">
        <ele>43.3</ele>
        <time>2020-06-22T13:36:50Z</time>
      </trkpt>
      <trkpt lat="50.66787" lon="1.63561">
        <ele>43.3</ele>
        <time>2020-06-22T13:36:51Z</time>
      </trkpt>
      <trkpt lat="50.66788" lon="1.63561">
        <ele>43.3</ele>
        <time>2020-06-22T13:36:52Z</time>
      </trkpt>
      <trkpt lat="50.66788" lon="1.63561">
        <ele>43.3</ele>
        <time>2020-06-22T13:36:53Z</time>
      </trkpt>
      <trkpt lat="50.66788" lon="1.63561">
        <ele>43.3</ele>
        <time>2020-06-22T13:36:54Z</time>
      </trkpt>
      <trkpt lat="50.66787" lon="1.63561">
        <ele>43.3</ele>
        <time>2020-06-22T13:36:55Z</time>
      </trkpt>
      <trkpt lat="50.66787" lon="1.63561">
        <ele>43.3</ele>
        <time>2020-06-22T13:36:56Z</time>
      </trkpt>
      <trkpt lat="50.66787" lon="1.63561">
        <ele>43.3</ele>
        <time>2020-06-22T13:36:57Z</time>
      </trkpt>
      <trkpt lat="50.66787" lon="1.63562">
        <ele>43.3</ele>
        <time>2020-06-22T13:36:58Z</time>
      </trkpt>
      <trkpt lat="50.66786" lon="1.63562">
        <ele>43.3</ele>
        <time>2020-06-22T13:36:59Z</time>
      </trkpt>
      <trkpt lat="50.66786" lon="1.63563">
        <ele>43.3</ele>
        <time>2020-06-22T13:37:00Z</time>
      </trkpt>
      <trkpt lat="50.66786" lon="1.63563">
        <ele>43.3</ele>
        <time>2020-06-22T13:37:01Z</time>
      </trkpt>
      <trkpt lat="50.66786" lon="1.63563">
        <ele>43.3</ele>
        <time>2020-06-22T13:37:02Z</time>
      </trkpt>
      <trkpt lat="50.66786" lon="1.63562">
        <ele>43.3</ele>
        <time>2020-06-22T13:37:03Z</time>
      </trkpt>
      <trkpt lat="50.66786" lon="1.63561">
        <ele>43.3</ele>
        <time>2020-06-22T13:37:04Z</time>
      </trkpt>
      <trkpt lat="50.66787" lon="1.6356">
        <ele>43.3</ele>
        <time>2020-06-22T13:37:05Z</time>
      </trkpt>
      <trkpt lat="50.66787" lon="1.63558">
        <ele>43.2</ele>
        <time>2020-06-22T13:37:06Z</time>
      </trkpt>
      <trkpt lat="50.66788" lon="1.63557">
        <ele>43.2</ele>
        <time>2020-06-22T13:37:07Z</time>
      </trkpt>
      <trkpt lat="50.66788" lon="1.63555">
        <ele>43.1</ele>
        <time>2020-06-22T13:37:08Z</time>
      </trkpt>
      <trkpt lat="50.66789" lon="1.63554">
        <ele>43.1</ele>
        <time>2020-06-22T13:37:09Z</time>
      </trkpt>
      <trkpt lat="50.66789" lon="1.63553">
        <ele>43.1</ele>
        <time>2020-06-22T13:37:10Z</time>
      </trkpt>
      <trkpt lat="50.66789" lon="1.63553">
        <ele>43.1</ele>
        <time>2020-06-22T13:37:11Z</time>
      </trkpt>
      <trkpt lat="50.6679" lon="1.63553">
        <ele>43.1</ele>
        <time>2020-06-22T13:37:12Z</time>
      </trkpt>
      <trkpt lat="50.66789" lon="1.63553">
        <ele>43.1</ele>
        <time>2020-06-22T13:37:13Z</time>
      </trkpt>
      <trkpt lat="50.66789" lon="1.63554">
        <ele>43.1</ele>
        <time>2020-06-22T13:37:14Z</time>
      </trkpt>
      <trkpt lat="50.66788" lon="1.63555">
        <ele>43.1</ele>
        <time>2020-06-22T13:37:15Z</time>
      </trkpt>
      <trkpt lat="50.66788" lon="1.63556">
        <ele>43.1</ele>
        <time>2020-06-22T13:37:16Z</time>
      </trkpt>
      <trkpt lat="50.66788" lon="1.63557">
        <ele>43.1</ele>
        <time>2020-06-22T13:37:17Z</time>
      </trkpt>
      <trkpt lat="50.66789" lon="1.63557">
        <ele>43.1</ele>
        <time>2020-06-22T13:37:18Z</time>
      </trkpt>
      <trkpt lat="50.66789" lon="1.63557">
        <ele>43.1</ele>
        <time>2020-06-22T13:37:19Z</time>
      </trkpt>
      <trkpt lat="50.66789" lon="1.63556">
        <ele>43.1</ele>
        <time>2020-06-22T13:37:20Z</time>
      </trkpt>
      <trkpt lat="50.66789" lon="1.63556">
        <ele>43.1</ele>
        <time>2020-06-22T13:37:21Z</time>
      </trkpt>
      <trkpt lat="50.66789" lon="1.63555">
        <ele>43.1</ele>
        <time>2020-06-22T13:37:22Z</time>
      </trkpt>
      <trkpt lat="50.66789" lon="1.63555">
        <ele>43.1</ele>
        <time>2020-06-22T13:37:23Z</time>
      </trkpt>
      <trkpt lat="50.66788" lon="1.63555">
        <ele>43.1</ele>
        <time>2020-06-22T13:37:24Z</time>
      </trkpt>
      <trkpt lat="50.66788" lon="1.63555">
        <ele>43.1</ele>
        <time>2020-06-22T13:37:25Z</time>
      </trkpt>
      <trkpt lat="50.66788" lon="1.63555">
        <ele>43.1</ele>
        <time>2020-06-22T13:37:26Z</time>
      </trkpt>
      <trkpt lat="50.66788" lon="1.63555">
        <ele>43.1</ele>
        <time>2020-06-22T13:37:27Z</time>
      </trkpt>
      <trkpt lat="50.66788" lon="1.63555">
        <ele>43.2</ele>
        <time>2020-06-22T13:37:28Z</time>
      </trkpt>
      <trkpt lat="50.66788" lon="1.63555">
        <ele>43.2</ele>
        <time>2020-06-22T13:37:29Z</time>
      </trkpt>
      <trkpt lat="50.66787" lon="1.63555">
        <ele>43.2</ele>
        <time>2020-06-22T13:37:30Z</time>
      </trkpt>
      <trkpt lat="50.66787" lon="1.63555">
        <ele>43.2</ele>
        <time>2020-06-22T13:37:31Z</time>
      </trkpt>
      <trkpt lat="50.66787" lon="1.63555">
        <ele>43.2</ele>
        <time>2020-06-22T13:37:32Z</time>
      </trkpt>
      <trkpt lat="50.66787" lon="1.63555">
        <ele>43.2</ele>
        <time>2020-06-22T13:37:33Z</time>
      </trkpt>
      <trkpt lat="50.66789" lon="1.63548">
        <ele>43</ele>
        <time>2020-06-22T13:40:00Z</time>
      </trkpt>
      <trkpt lat="50.66789" lon="1.63549">
        <ele>43</ele>
        <time>2020-06-22T13:40:01Z</time>
      </trkpt>
      <trkpt lat="50.66789" lon="1.63549">
        <ele>43</ele>
        <time>2020-06-22T13:40:02Z</time>
      </trkpt>
      <trkpt lat="50.66789" lon="1.63549">
        <ele>43</ele>
        <time>2020-06-22T13:40:03Z</time>
      </trkpt>
      <trkpt lat="50.66789" lon="1.63549">
        <ele>43</ele>
        <time>2020-06-22T13:40:04Z</time>
      </trkpt>
      <trkpt lat="50.66789" lon="1.63549">
        <ele>43</ele>
        <time>2020-06-22T13:40:05Z</time>
      </trkpt>
      <trkpt lat="50.66789" lon="1.63549">
        <ele>43</ele>
        <time>2020-06-22T13:40:06Z</time>
      </trkpt>
      <trkpt lat="50.66789" lon="1.63549">
        <ele>42.9</ele>
        <time>2020-06-22T13:40:07Z</time>
      </trkpt>
      <trkpt lat="50.66789" lon="1.63549">
        <ele>42.9</ele>
        <time>2020-06-22T13:40:08Z</time>
      </trkpt>
      <trkpt lat="50.6679" lon="1.63549">
        <ele>42.9</ele>
        <time>2020-06-22T13:40:09Z</time>
      </trkpt>
      <trkpt lat="50.6679" lon="1.63549">
        <ele>42.9</ele>
        <time>2020-06-22T13:40:10Z</time>
      </trkpt>
      <trkpt lat="50.66789" lon="1.63549">
        <ele>42.9</ele>
        <time>2020-06-22T13:40:11Z</time>
      </trkpt>
      <trkpt lat="50.66788" lon="1.63549">
        <ele>42.9</ele>
        <time>2020-06-22T13:40:12Z</time>
      </trkpt>
      <trkpt lat="50.66788" lon="1.63549">
        <ele>42.9</ele>
        <time>2020-06-22T13:40:13Z</time>
      </trkpt>
      <trkpt lat="50.66788" lon="1.6355">
        <ele>43</ele>
        <time>2020-06-22T13:40:14Z</time>
      </trkpt>
      <trkpt lat="50.66788" lon="1.63549">
        <ele>43</ele>
        <time>2020-06-22T13:40:15Z</time>
      </trkpt>
      <trkpt lat="50.66788" lon="1.6355">
        <ele>42.9</ele>
        <time>2020-06-22T13:40:16Z</time>
      </trkpt>
      <trkpt lat="50.66788" lon="1.6355">
        <ele>42.9</ele>
        <time>2020-06-22T13:40:17Z</time>
      </trkpt>
      <trkpt lat="50.66788" lon="1.6355">
        <ele>42.9</ele>
        <time>2020-06-22T13:40:18Z</time>
      </trkpt>
      <trkpt lat="50.66788" lon="1.63554">
        <ele>42.9</ele>
        <time>2020-06-22T13:40:21Z</time>
      </trkpt>
      <trkpt lat="50.66787" lon="1.63557">
        <ele>43.1</ele>
        <time>2020-06-22T13:40:22Z</time>
      </trkpt>
      <trkpt lat="50.66786" lon="1.63559">
        <ele>43.1</ele>
        <time>2020-06-22T13:40:23Z</time>
      </trkpt>
      <trkpt lat="50.66785" lon="1.6356">
        <ele>43.2</ele>
        <time>2020-06-22T13:40:24Z</time>
      </trkpt>
      <trkpt lat="50.66784" lon="1.63559">
        <ele>43.2</ele>
        <time>2020-06-22T13:40:25Z</time>
      </trkpt>
      <trkpt lat="50.66784" lon="1.63559">
        <ele>43.2</ele>
        <time>2020-06-22T13:40:26Z</time>
      </trkpt>
      <trkpt lat="50.66783" lon="1.63558">
        <ele>43.2</ele>
        <time>2020-06-22T13:40:27Z</time>
      </trkpt>
      <trkpt lat="50.66783" lon="1.63558">
        <ele>43.2</ele>
        <time>2020-06-22T13:40:28Z</time>
      </trkpt>
      <trkpt lat="50.66783" lon="1.63558">
        <ele>43.2</ele>
        <time>2020-06-22T13:40:29Z</time>
      </trkpt>
      <trkpt lat="50.66783" lon="1.63558">
        <ele>43.2</ele>
        <time>2020-06-22T13:40:30Z</time>
      </trkpt>
      <trkpt lat="50.66783" lon="1.63558">
        <ele>43.2</ele>
        <time>2020-06-22T13:40:31Z</time>
      </trkpt>
      <trkpt lat="50.66783" lon="1.63557">
        <ele>43.2</ele>
        <time>2020-06-22T13:40:32Z</time>
      </trkpt>
      <trkpt lat="50.66782" lon="1.63557">
        <ele>43.3</ele>
        <time>2020-06-22T13:40:33Z</time>
      </trkpt>
      <trkpt lat="50.66782" lon="1.63557">
        <ele>43.3</ele>
        <time>2020-06-22T13:40:34Z</time>
      </trkpt>
      <trkpt lat="50.66781" lon="1.63557">
        <ele>43.3</ele>
        <time>2020-06-22T13:40:35Z</time>
      </trkpt>
      <trkpt lat="50.66781" lon="1.63558">
        <ele>43.3</ele>
        <time>2020-06-22T13:40:36Z</time>
      </trkpt>
      <trkpt lat="50.66781" lon="1.63557">
        <ele>43.3</ele>
        <time>2020-06-22T13:40:37Z</time>
      </trkpt>
      <trkpt lat="50.66781" lon="1.63557">
        <ele>43.3</ele>
        <time>2020-06-22T13:40:38Z</time>
      </trkpt>
      <trkpt lat="50.66781" lon="1.63557">
        <ele>43.3</ele>
        <time>2020-06-22T13:40:39Z</time>
      </trkpt>
      <trkpt lat="50.66781" lon="1.63557">
        <ele>43.3</ele>
        <time>2020-06-22T13:40:40Z</time>
      </trkpt>
      <trkpt lat="50.6678" lon="1.63558">
        <ele>43.3</ele>
        <time>2020-06-22T13:40:41Z</time>
      </trkpt>
      <trkpt lat="50.6678" lon="1.63558">
        <ele>43.3</ele>
        <time>2020-06-22T13:40:42Z</time>
      </trkpt>
      <trkpt lat="50.6678" lon="1.63558">
        <ele>43.3</ele>
        <time>2020-06-22T13:40:43Z</time>
      </trkpt>
      <trkpt lat="50.6678" lon="1.63559">
        <ele>43.3</ele>
        <time>2020-06-22T13:40:44Z</time>
      </trkpt>
      <trkpt lat="50.66779" lon="1.63557">
        <ele>43.4</ele>
        <time>2020-06-22T13:40:45Z</time>
      </trkpt>
      <trkpt lat="50.66779" lon="1.63555">
        <ele>43.4</ele>
        <time>2020-06-22T13:40:46Z</time>
      </trkpt>
      <trkpt lat="50.66779" lon="1.63554">
        <ele>43.3</ele>
        <time>2020-06-22T13:40:47Z</time>
      </trkpt>
      <trkpt lat="50.66778" lon="1.63553">
        <ele>43.3</ele>
        <time>2020-06-22T13:40:48Z</time>
      </trkpt>
      <trkpt lat="50.66778" lon="1.63552">
        <ele>43.3</ele>
        <time>2020-06-22T13:40:49Z</time>
      </trkpt>
      <trkpt lat="50.66778" lon="1.63551">
        <ele>43.3</ele>
        <time>2020-06-22T13:40:50Z</time>
      </trkpt>
      <trkpt lat="50.66777" lon="1.6355">
        <ele>43.2</ele>
        <time>2020-06-22T13:40:51Z</time>
      </trkpt>
      <trkpt lat="50.66777" lon="1.63548">
        <ele>43.2</ele>
        <time>2020-06-22T13:40:52Z</time>
      </trkpt>
      <trkpt lat="50.66777" lon="1.63547">
        <ele>43.4</ele>
        <time>2020-06-22T13:40:53Z</time>
      </trkpt>
      <trkpt lat="50.66777" lon="1.63547">
        <ele>43.4</ele>
        <time>2020-06-22T13:40:54Z</time>
      </trkpt>
      <trkpt lat="50.66776" lon="1.63547">
        <ele>43.4</ele>
        <time>2020-06-22T13:40:55Z</time>
      </trkpt>
      <trkpt lat="50.66777" lon="1.63548">
        <ele>43.4</ele>
        <time>2020-06-22T13:40:56Z</time>
      </trkpt>
      <trkpt lat="50.66777" lon="1.63548">
        <ele>43.4</ele>
        <time>2020-06-22T13:40:57Z</time>
      </trkpt>
      <trkpt lat="50.66777" lon="1.63548">
        <ele>43.4</ele>
        <time>2020-06-22T13:40:58Z</time>
      </trkpt>
      <trkpt lat="50.66777" lon="1.63548">
        <ele>43.4</ele>
        <time>2020-06-22T13:40:59Z</time>
      </trkpt>
      <trkpt lat="50.66776" lon="1.63547">
        <ele>43.4</ele>
        <time>2020-06-22T13:41:00Z</time>
      </trkpt>
      <trkpt lat="50.66776" lon="1.63547">
        <ele>43.4</ele>
        <time>2020-06-22T13:41:01Z</time>
      </trkpt>
      <trkpt lat="50.66776" lon="1.63546">
        <ele>43.4</ele>
        <time>2020-06-22T13:41:02Z</time>
      </trkpt>
      <trkpt lat="50.66776" lon="1.63546">
        <ele>43.4</ele>
        <time>2020-06-22T13:41:03Z</time>
      </trkpt>
      <trkpt lat="50.66775" lon="1.63546">
        <ele>43.3</ele>
        <time>2020-06-22T13:41:04Z</time>
      </trkpt>
      <trkpt lat="50.66775" lon="1.63546">
        <ele>43.3</ele>
        <time>2020-06-22T13:41:05Z</time>
      </trkpt>
      <trkpt lat="50.66775" lon="1.63546">
        <ele>43.3</ele>
        <time>2020-06-22T13:41:06Z</time>
      </trkpt>
      <trkpt lat="50.66775" lon="1.63546">
        <ele>43.3</ele>
        <time>2020-06-22T13:41:07Z</time>
      </trkpt>
      <trkpt lat="50.66775" lon="1.63546">
        <ele>43.4</ele>
        <time>2020-06-22T13:41:08Z</time>
      </trkpt>
      <trkpt lat="50.66775" lon="1.63546">
        <ele>43.4</ele>
        <time>2020-06-22T13:41:09Z</time>
      </trkpt>
      <trkpt lat="50.66775" lon="1.63546">
        <ele>43.4</ele>
        <time>2020-06-22T13:41:10Z</time>
      </trkpt>
      <trkpt lat="50.66775" lon="1.63547">
        <ele>43.4</ele>
        <time>2020-06-22T13:41:11Z</time>
      </trkpt>
      <trkpt lat="50.66775" lon="1.63548">
        <ele>43.4</ele>
        <time>2020-06-22T13:41:12Z</time>
      </trkpt>
      <trkpt lat="50.66774" lon="1.63548">
        <ele>43.5</ele>
        <time>2020-06-22T13:41:13Z</time>
      </trkpt>
      <trkpt lat="50.66775" lon="1.63549">
        <ele>43.4</ele>
        <time>2020-06-22T13:41:14Z</time>
      </trkpt>
      <trkpt lat="50.66775" lon="1.63549">
        <ele>43.4</ele>
        <time>2020-06-22T13:41:15Z</time>
      </trkpt>
      <trkpt lat="50.66775" lon="1.6355">
        <ele>43.4</ele>
        <time>2020-06-22T13:41:16Z</time>
      </trkpt>
      <trkpt lat="50.66775" lon="1.6355">
        <ele>43.4</ele>
        <time>2020-06-22T13:41:17Z</time>
      </trkpt>
      <trkpt lat="50.66776" lon="1.6355">
        <ele>43.4</ele>
        <time>2020-06-22T13:41:18Z</time>
      </trkpt>
      <trkpt lat="50.66775" lon="1.63549">
        <ele>43.4</ele>
        <time>2020-06-22T13:41:19Z</time>
      </trkpt>
      <trkpt lat="50.66775" lon="1.63549">
        <ele>43.4</ele>
        <time>2020-06-22T13:41:20Z</time>
      </trkpt>
      <trkpt lat="50.66774" lon="1.63549">
        <ele>43.5</ele>
        <time>2020-06-22T13:41:21Z</time>
      </trkpt>
      <trkpt lat="50.66773" lon="1.6355">
        <ele>43.5</ele>
        <time>2020-06-22T13:41:22Z</time>
      </trkpt>
      <trkpt lat="50.66774" lon="1.6355">
        <ele>43.5</ele>
        <time>2020-06-22T13:41:23Z</time>
      </trkpt>
      <trkpt lat="50.66774" lon="1.63552">
        <ele>43.5</ele>
        <time>2020-06-22T13:41:24Z</time>
      </trkpt>
      <trkpt lat="50.66774" lon="1.6355">
        <ele>43.5</ele>
        <time>2020-06-22T13:41:25Z</time>
      </trkpt>
      <trkpt lat="50.66774" lon="1.6355">
        <ele>43.5</ele>
        <time>2020-06-22T13:41:26Z</time>
      </trkpt>
      <trkpt lat="50.66774" lon="1.6355">
        <ele>43.5</ele>
        <time>2020-06-22T13:41:27Z</time>
      </trkpt>
      <trkpt lat="50.66774" lon="1.6355">
        <ele>43.5</ele>
        <time>2020-06-22T13:41:28Z</time>
      </trkpt>
      <trkpt lat="50.66775" lon="1.63552">
        <ele>43.4</ele>
        <time>2020-06-22T13:41:29Z</time>
      </trkpt>
      <trkpt lat="50.66776" lon="1.63553">
        <ele>43.4</ele>
        <time>2020-06-22T13:41:30Z</time>
      </trkpt>
      <trkpt lat="50.66776" lon="1.63553">
        <ele>43.4</ele>
        <time>2020-06-22T13:41:31Z</time>
      </trkpt>
      <trkpt lat="50.66777" lon="1.63554">
        <ele>43.4</ele>
        <time>2020-06-22T13:41:32Z</time>
      </trkpt>
      <trkpt lat="50.66777" lon="1.63554">
        <ele>43.4</ele>
        <time>2020-06-22T13:41:33Z</time>
      </trkpt>
      <trkpt lat="50.66777" lon="1.63554">
        <ele>43.4</ele>
        <time>2020-06-22T13:41:34Z</time>
      </trkpt>
      <trkpt lat="50.66777" lon="1.63554">
        <ele>43.4</ele>
        <time>2020-06-22T13:41:35Z</time>
      </trkpt>
      <trkpt lat="50.66777" lon="1.63554">
        <ele>43.4</ele>
        <time>2020-06-22T13:41:36Z</time>
      </trkpt>
      <trkpt lat="50.66776" lon="1.63554">
        <ele>43.4</ele>
        <time>2020-06-22T13:41:37Z</time>
      </trkpt>
      <trkpt lat="50.66775" lon="1.63553">
        <ele>43.4</ele>
        <time>2020-06-22T13:41:38Z</time>
      </trkpt>
      <trkpt lat="50.66775" lon="1.63553">
        <ele>43.4</ele>
        <time>2020-06-22T13:41:39Z</time>
      </trkpt>
      <trkpt lat="50.66774" lon="1.63553">
        <ele>43.4</ele>
        <time>2020-06-22T13:41:40Z</time>
      </trkpt>
      <trkpt lat="50.66775" lon="1.63553">
        <ele>43.4</ele>
        <time>2020-06-22T13:41:41Z</time>
      </trkpt>
      <trkpt lat="50.66775" lon="1.63553">
        <ele>43.4</ele>
        <time>2020-06-22T13:41:42Z</time>
      </trkpt>
      <trkpt lat="50.66775" lon="1.63553">
        <ele>43.4</ele>
        <time>2020-06-22T13:41:43Z</time>
      </trkpt>
      <trkpt lat="50.66775" lon="1.63553">
        <ele>43.4</ele>
        <time>2020-06-22T13:41:44Z</time>
      </trkpt>
      <trkpt lat="50.66775" lon="1.63553">
        <ele>43.4</ele>
        <time>2020-06-22T13:41:45Z</time>
      </trkpt>
      <trkpt lat="50.66774" lon="1.63553">
        <ele>43.4</ele>
        <time>2020-06-22T13:41:46Z</time>
      </trkpt>
      <trkpt lat="50.66774" lon="1.63553">
        <ele>43.5</ele>
        <time>2020-06-22T13:41:47Z</time>
      </trkpt>
      <trkpt lat="50.66774" lon="1.63553">
        <ele>43.5</ele>
        <time>2020-06-22T13:41:48Z</time>
      </trkpt>
      <trkpt lat="50.66773" lon="1.63553">
        <ele>43.5</ele>
        <time>2020-06-22T13:41:49Z</time>
      </trkpt>
      <trkpt lat="50.66773" lon="1.63552">
        <ele>43.5</ele>
        <time>2020-06-22T13:41:50Z</time>
      </trkpt>
      <trkpt lat="50.66772" lon="1.63551">
        <ele>43.5</ele>
        <time>2020-06-22T13:41:51Z</time>
      </trkpt>
      <trkpt lat="50.66772" lon="1.63552">
        <ele>43.5</ele>
        <time>2020-06-22T13:41:52Z</time>
      </trkpt>
      <trkpt lat="50.66771" lon="1.63551">
        <ele>43.6</ele>
        <time>2020-06-22T13:41:53Z</time>
      </trkpt>
      <trkpt lat="50.66771" lon="1.63551">
        <ele>43.6</ele>
        <time>2020-06-22T13:41:54Z</time>
      </trkpt>
      <trkpt lat="50.66771" lon="1.63551">
        <ele>43.6</ele>
        <time>2020-06-22T13:41:55Z</time>
      </trkpt>
      <trkpt lat="50.6677" lon="1.63551">
        <ele>43.6</ele>
        <time>2020-06-22T13:41:56Z</time>
      </trkpt>
      <trkpt lat="50.6677" lon="1.6355">
        <ele>43.6</ele>
        <time>2020-06-22T13:41:57Z</time>
      </trkpt>
      <trkpt lat="50.66769" lon="1.63549">
        <ele>43.6</ele>
        <time>2020-06-22T13:41:58Z</time>
      </trkpt>
      <trkpt lat="50.66769" lon="1.63547">
        <ele>43.7</ele>
        <time>2020-06-22T13:41:59Z</time>
      </trkpt>
      <trkpt lat="50.66768" lon="1.63546">
        <ele>43.7</ele>
        <time>2020-06-22T13:42:00Z</time>
      </trkpt>
      <trkpt lat="50.66767" lon="1.63544">
        <ele>43.7</ele>
        <time>2020-06-22T13:42:01Z</time>
      </trkpt>
      <trkpt lat="50.66767" lon="1.63544">
        <ele>43.7</ele>
        <time>2020-06-22T13:42:02Z</time>
      </trkpt>
      <trkpt lat="50.66766" lon="1.63543">
        <ele>43.8</ele>
        <time>2020-06-22T13:42:03Z</time>
      </trkpt>
      <trkpt lat="50.66765" lon="1.63543">
        <ele>43.8</ele>
        <time>2020-06-22T13:42:04Z</time>
      </trkpt>
      <trkpt lat="50.66765" lon="1.63542">
        <ele>43.8</ele>
        <time>2020-06-22T13:42:05Z</time>
      </trkpt>
      <trkpt lat="50.66762" lon="1.6354">
        <ele>44</ele>
        <time>2020-06-22T13:42:06Z</time>
      </trkpt>
      <trkpt lat="50.66762" lon="1.63539">
        <ele>44</ele>
        <time>2020-06-22T13:42:07Z</time>
      </trkpt>
      <trkpt lat="50.66761" lon="1.63537">
        <ele>44.2</ele>
        <time>2020-06-22T13:42:08Z</time>
      </trkpt>
      <trkpt lat="50.6676" lon="1.63536">
        <ele>44.2</ele>
        <time>2020-06-22T13:42:09Z</time>
      </trkpt>
      <trkpt lat="50.66759" lon="1.63535">
        <ele>44.2</ele>
        <time>2020-06-22T13:42:10Z</time>
      </trkpt>
      <trkpt lat="50.66758" lon="1.63533">
        <ele>44.2</ele>
        <time>2020-06-22T13:42:11Z</time>
      </trkpt>
      <trkpt lat="50.66758" lon="1.63533">
        <ele>44.2</ele>
        <time>2020-06-22T13:42:12Z</time>
      </trkpt>
      <trkpt lat="50.66759" lon="1.63533">
        <ele>44.2</ele>
        <time>2020-06-22T13:42:13Z</time>
      </trkpt>
      <trkpt lat="50.66758" lon="1.63532">
        <ele>44.2</ele>
        <time>2020-06-22T13:42:14Z</time>
      </trkpt>
      <trkpt lat="50.66758" lon="1.63531">
        <ele>44.4</ele>
        <time>2020-06-22T13:42:15Z</time>
      </trkpt>
      <trkpt lat="50.66758" lon="1.63531">
        <ele>44.4</ele>
        <time>2020-06-22T13:42:16Z</time>
      </trkpt>
      <trkpt lat="50.66758" lon="1.63531">
        <ele>44.2</ele>
        <time>2020-06-22T13:42:17Z</time>
      </trkpt>
      <trkpt lat="50.66758" lon="1.63531">
        <ele>44.2</ele>
        <time>2020-06-22T13:42:18Z</time>
      </trkpt>
      <trkpt lat="50.66759" lon="1.63532">
        <ele>44.2</ele>
        <time>2020-06-22T13:42:19Z</time>
      </trkpt>
      <trkpt lat="50.66759" lon="1.63532">
        <ele>44.2</ele>
        <time>2020-06-22T13:42:20Z</time>
      </trkpt>
      <trkpt lat="50.66759" lon="1.63532">
        <ele>44.2</ele>
        <time>2020-06-22T13:42:21Z</time>
      </trkpt>
      <trkpt lat="50.66759" lon="1.63533">
        <ele>44.2</ele>
        <time>2020-06-22T13:42:22Z</time>
      </trkpt>
      <trkpt lat="50.6676" lon="1.63534">
        <ele>44.2</ele>
        <time>2020-06-22T13:42:23Z</time>
      </trkpt>
      <trkpt lat="50.6676" lon="1.63535">
        <ele>44.2</ele>
        <time>2020-06-22T13:42:24Z</time>
      </trkpt>
      <trkpt lat="50.6676" lon="1.63535">
        <ele>44.2</ele>
        <time>2020-06-22T13:42:25Z</time>
      </trkpt>
      <trkpt lat="50.6676" lon="1.63535">
        <ele>44.2</ele>
        <time>2020-06-22T13:42:26Z</time>
      </trkpt>
      <trkpt lat="50.6676" lon="1.63535">
        <ele>44.2</ele>
        <time>2020-06-22T13:42:27Z</time>
      </trkpt>
      <trkpt lat="50.6676" lon="1.63535">
        <ele>44.2</ele>
        <time>2020-06-22T13:42:28Z</time>
      </trkpt>
      <trkpt lat="50.6676" lon="1.63535">
        <ele>44.2</ele>
        <time>2020-06-22T13:42:29Z</time>
      </trkpt>
      <trkpt lat="50.6676" lon="1.63535">
        <ele>44.2</ele>
        <time>2020-06-22T13:42:30Z</time>
      </trkpt>
      <trkpt lat="50.6676" lon="1.63535">
        <ele>44.2</ele>
        <time>2020-06-22T13:42:31Z</time>
      </trkpt>
      <trkpt lat="50.6676" lon="1.63535">
        <ele>44.2</ele>
        <time>2020-06-22T13:42:32Z</time>
      </trkpt>
      <trkpt lat="50.6676" lon="1.63535">
        <ele>44.2</ele>
        <time>2020-06-22T13:42:33Z</time>
      </trkpt>
      <trkpt lat="50.6676" lon="1.63535">
        <ele>44.2</ele>
        <time>2020-06-22T13:42:34Z</time>
      </trkpt>
      <trkpt lat="50.6676" lon="1.63535">
        <ele>44.2</ele>
        <time>2020-06-22T13:42:35Z</time>
      </trkpt>
      <trkpt lat="50.6676" lon="1.63535">
        <ele>44.2</ele>
        <time>2020-06-22T13:42:36Z</time>
      </trkpt>
      <trkpt lat="50.66774" lon="1.63563">
        <ele>43.6</ele>
        <time>2020-06-22T13:43:17Z</time>
      </trkpt>
      <trkpt lat="50.66776" lon="1.63565">
        <ele>43.6</ele>
        <time>2020-06-22T13:43:18Z</time>
      </trkpt>
      <trkpt lat="50.66777" lon="1.63566">
        <ele>43.6</ele>
        <time>2020-06-22T13:43:19Z</time>
      </trkpt>
      <trkpt lat="50.66777" lon="1.63565">
        <ele>43.5</ele>
        <time>2020-06-22T13:43:20Z</time>
      </trkpt>
      <trkpt lat="50.66777" lon="1.63564">
        <ele>43.5</ele>
        <time>2020-06-22T13:43:21Z</time>
      </trkpt>
      <trkpt lat="50.66778" lon="1.63563">
        <ele>43.4</ele>
        <time>2020-06-22T13:43:22Z</time>
      </trkpt>
      <trkpt lat="50.66779" lon="1.63563">
        <ele>43.5</ele>
        <time>2020-06-22T13:43:23Z</time>
      </trkpt>
      <trkpt lat="50.66779" lon="1.63564">
        <ele>43.5</ele>
        <time>2020-06-22T13:43:24Z</time>
      </trkpt>
      <trkpt lat="50.6678" lon="1.63566">
        <ele>43.4</ele>
        <time>2020-06-22T13:43:25Z</time>
      </trkpt>
      <trkpt lat="50.6678" lon="1.63566">
        <ele>43.4</ele>
        <time>2020-06-22T13:43:26Z</time>
      </trkpt>
      <trkpt lat="50.66781" lon="1.63566">
        <ele>43.4</ele>
        <time>2020-06-22T13:43:27Z</time>
      </trkpt>
      <trkpt lat="50.66781" lon="1.63566">
        <ele>43.4</ele>
        <time>2020-06-22T13:43:28Z</time>
      </trkpt>
      <trkpt lat="50.66781" lon="1.63565">
        <ele>43.4</ele>
        <time>2020-06-22T13:43:29Z</time>
      </trkpt>
      <trkpt lat="50.66781" lon="1.63565">
        <ele>43.4</ele>
        <time>2020-06-22T13:43:30Z</time>
      </trkpt>
      <trkpt lat="50.66781" lon="1.63564">
        <ele>43.4</ele>
        <time>2020-06-22T13:43:31Z</time>
      </trkpt>
      <trkpt lat="50.66781" lon="1.63564">
        <ele>43.4</ele>
        <time>2020-06-22T13:43:32Z</time>
      </trkpt>
      <trkpt lat="50.66781" lon="1.63564">
        <ele>43.4</ele>
        <time>2020-06-22T13:43:33Z</time>
      </trkpt>
      <trkpt lat="50.66781" lon="1.63563">
        <ele>43.3</ele>
        <time>2020-06-22T13:43:34Z</time>
      </trkpt>
      <trkpt lat="50.66781" lon="1.63562">
        <ele>43.3</ele>
        <time>2020-06-22T13:43:35Z</time>
      </trkpt>
      <trkpt lat="50.66782" lon="1.63561">
        <ele>43.3</ele>
        <time>2020-06-22T13:43:36Z</time>
      </trkpt>
      <trkpt lat="50.66782" lon="1.6356">
        <ele>43.3</ele>
        <time>2020-06-22T13:43:37Z</time>
      </trkpt>
      <trkpt lat="50.66781" lon="1.6356">
        <ele>43.3</ele>
        <time>2020-06-22T13:43:38Z</time>
      </trkpt>
      <trkpt lat="50.66781" lon="1.63559">
        <ele>43.3</ele>
        <time>2020-06-22T13:43:39Z</time>
      </trkpt>
      <trkpt lat="50.66781" lon="1.6356">
        <ele>43.3</ele>
        <time>2020-06-22T13:43:40Z</time>
      </trkpt>
      <trkpt lat="50.66781" lon="1.63557">
        <ele>43.3</ele>
        <time>2020-06-22T13:43:41Z</time>
      </trkpt>
      <trkpt lat="50.66781" lon="1.63556">
        <ele>43.3</ele>
        <time>2020-06-22T13:43:42Z</time>
      </trkpt>
      <trkpt lat="50.66779" lon="1.63557">
        <ele>43.4</ele>
        <time>2020-06-22T13:43:43Z</time>
      </trkpt>
      <trkpt lat="50.66779" lon="1.63559">
        <ele>43.4</ele>
        <time>2020-06-22T13:43:44Z</time>
      </trkpt>
      <trkpt lat="50.66779" lon="1.63561">
        <ele>43.4</ele>
        <time>2020-06-22T13:43:45Z</time>
      </trkpt>
      <trkpt lat="50.66779" lon="1.63563">
        <ele>43.4</ele>
        <time>2020-06-22T13:43:46Z</time>
      </trkpt>
      <trkpt lat="50.66778" lon="1.63564">
        <ele>43.5</ele>
        <time>2020-06-22T13:43:47Z</time>
      </trkpt>
      <trkpt lat="50.66778" lon="1.63566">
        <ele>43.5</ele>
        <time>2020-06-22T13:43:48Z</time>
      </trkpt>
      <trkpt lat="50.66778" lon="1.63569">
        <ele>43.6</ele>
        <time>2020-06-22T13:43:49Z</time>
      </trkpt>
      <trkpt lat="50.66778" lon="1.63572">
        <ele>43.8</ele>
        <time>2020-06-22T13:43:50Z</time>
      </trkpt>
      <trkpt lat="50.66777" lon="1.63576">
        <ele>43.9</ele>
        <time>2020-06-22T13:43:51Z</time>
      </trkpt>
      <trkpt lat="50.66777" lon="1.63578">
        <ele>44</ele>
        <time>2020-06-22T13:43:52Z</time>
      </trkpt>
      <trkpt lat="50.66776" lon="1.63582">
        <ele>44.2</ele>
        <time>2020-06-22T13:43:53Z</time>
      </trkpt>
      <trkpt lat="50.66776" lon="1.63583">
        <ele>44.2</ele>
        <time>2020-06-22T13:43:54Z</time>
      </trkpt>
      <trkpt lat="50.66776" lon="1.63584">
        <ele>44.2</ele>
        <time>2020-06-22T13:43:55Z</time>
      </trkpt>
      <trkpt lat="50.66775" lon="1.63585">
        <ele>44.4</ele>
        <time>2020-06-22T13:43:56Z</time>
      </trkpt>
      <trkpt lat="50.66774" lon="1.63586">
        <ele>44.5</ele>
        <time>2020-06-22T13:43:57Z</time>
      </trkpt>
      <trkpt lat="50.66774" lon="1.63587">
        <ele>44.5</ele>
        <time>2020-06-22T13:43:58Z</time>
      </trkpt>
      <trkpt lat="50.66774" lon="1.63588">
        <ele>44.5</ele>
        <time>2020-06-22T13:43:59Z</time>
      </trkpt>
      <trkpt lat="50.66773" lon="1.63589">
        <ele>44.5</ele>
        <time>2020-06-22T13:44:00Z</time>
      </trkpt>
      <trkpt lat="50.66773" lon="1.63589">
        <ele>44.7</ele>
        <time>2020-06-22T13:44:01Z</time>
      </trkpt>
      <trkpt lat="50.66773" lon="1.63589">
        <ele>44.5</ele>
        <time>2020-06-22T13:44:02Z</time>
      </trkpt>
      <trkpt lat="50.66772" lon="1.63589">
        <ele>44.7</ele>
        <time>2020-06-22T13:44:03Z</time>
      </trkpt>
      <trkpt lat="50.66772" lon="1.63591">
        <ele>44.7</ele>
        <time>2020-06-22T13:44:04Z</time>
      </trkpt>
      <trkpt lat="50.66772" lon="1.63591">
        <ele>44.7</ele>
        <time>2020-06-22T13:44:05Z</time>
      </trkpt>
      <trkpt lat="50.66772" lon="1.6359">
        <ele>44.7</ele>
        <time>2020-06-22T13:44:06Z</time>
      </trkpt>
      <trkpt lat="50.66772" lon="1.6359">
        <ele>44.8</ele>
        <time>2020-06-22T13:44:07Z</time>
      </trkpt>
      <trkpt lat="50.66771" lon="1.63589">
        <ele>44.8</ele>
        <time>2020-06-22T13:44:08Z</time>
      </trkpt>
      <trkpt lat="50.66771" lon="1.6359">
        <ele>44.8</ele>
        <time>2020-06-22T13:44:09Z</time>
      </trkpt>
      <trkpt lat="50.66771" lon="1.63589">
        <ele>44.8</ele>
        <time>2020-06-22T13:44:10Z</time>
      </trkpt>
      <trkpt lat="50.66771" lon="1.63589">
        <ele>44.6</ele>
        <time>2020-06-22T13:44:11Z</time>
      </trkpt>
      <trkpt lat="50.66771" lon="1.63589">
        <ele>44.6</ele>
        <time>2020-06-22T13:44:12Z</time>
      </trkpt>
      <trkpt lat="50.66771" lon="1.63588">
        <ele>44.6</ele>
        <time>2020-06-22T13:44:13Z</time>
      </trkpt>
      <trkpt lat="50.6677" lon="1.63587">
        <ele>44.6</ele>
        <time>2020-06-22T13:44:14Z</time>
      </trkpt>
      <trkpt lat="50.6677" lon="1.63585">
        <ele>44.6</ele>
        <time>2020-06-22T13:44:15Z</time>
      </trkpt>
      <trkpt lat="50.6677" lon="1.63584">
        <ele>44.4</ele>
        <time>2020-06-22T13:44:16Z</time>
      </trkpt>
      <trkpt lat="50.6677" lon="1.6358">
        <ele>44.3</ele>
        <time>2020-06-22T13:44:18Z</time>
      </trkpt>
      <trkpt lat="50.6677" lon="1.63577">
        <ele>44.3</ele>
        <time>2020-06-22T13:44:19Z</time>
      </trkpt>
      <trkpt lat="50.6677" lon="1.63574">
        <ele>44.1</ele>
        <time>2020-06-22T13:44:20Z</time>
      </trkpt>
      <trkpt lat="50.6677" lon="1.63573">
        <ele>44.1</ele>
        <time>2020-06-22T13:44:21Z</time>
      </trkpt>
      <trkpt lat="50.6677" lon="1.63572">
        <ele>44</ele>
        <time>2020-06-22T13:44:22Z</time>
      </trkpt>
      <trkpt lat="50.6677" lon="1.63571">
        <ele>44</ele>
        <time>2020-06-22T13:44:23Z</time>
      </trkpt>
      <trkpt lat="50.6677" lon="1.6357">
        <ele>44</ele>
        <time>2020-06-22T13:44:24Z</time>
      </trkpt>
      <trkpt lat="50.66771" lon="1.63569">
        <ele>44</ele>
        <time>2020-06-22T13:44:25Z</time>
      </trkpt>
      <trkpt lat="50.66771" lon="1.63566">
        <ele>43.9</ele>
        <time>2020-06-22T13:44:26Z</time>
      </trkpt>
      <trkpt lat="50.66771" lon="1.63564">
        <ele>43.9</ele>
        <time>2020-06-22T13:44:27Z</time>
      </trkpt>
      <trkpt lat="50.66772" lon="1.63562">
        <ele>43.7</ele>
        <time>2020-06-22T13:44:28Z</time>
      </trkpt>
      <trkpt lat="50.66772" lon="1.63562">
        <ele>43.7</ele>
        <time>2020-06-22T13:44:29Z</time>
      </trkpt>
      <trkpt lat="50.66772" lon="1.63562">
        <ele>43.7</ele>
        <time>2020-06-22T13:44:30Z</time>
      </trkpt>
      <trkpt lat="50.66771" lon="1.63561">
        <ele>43.8</ele>
        <time>2020-06-22T13:44:31Z</time>
      </trkpt>
      <trkpt lat="50.66771" lon="1.63561">
        <ele>43.8</ele>
        <time>2020-06-22T13:44:32Z</time>
      </trkpt>
      <trkpt lat="50.66772" lon="1.63562">
        <ele>43.7</ele>
        <time>2020-06-22T13:44:33Z</time>
      </trkpt>
      <trkpt lat="50.66772" lon="1.63561">
        <ele>43.8</ele>
        <time>2020-06-22T13:44:34Z</time>
      </trkpt>
      <trkpt lat="50.66772" lon="1.6356">
        <ele>43.7</ele>
        <time>2020-06-22T13:44:35Z</time>
      </trkpt>
      <trkpt lat="50.66771" lon="1.63559">
        <ele>43.8</ele>
        <time>2020-06-22T13:44:36Z</time>
      </trkpt>
      <trkpt lat="50.66772" lon="1.63559">
        <ele>43.7</ele>
        <time>2020-06-22T13:44:37Z</time>
      </trkpt>
      <trkpt lat="50.66772" lon="1.63559">
        <ele>43.6</ele>
        <time>2020-06-22T13:44:38Z</time>
      </trkpt>
      <trkpt lat="50.66772" lon="1.63559">
        <ele>43.7</ele>
        <time>2020-06-22T13:44:39Z</time>
      </trkpt>
      <trkpt lat="50.66772" lon="1.63561">
        <ele>43.7</ele>
        <time>2020-06-22T13:44:40Z</time>
      </trkpt>
      <trkpt lat="50.66772" lon="1.63562">
        <ele>43.7</ele>
        <time>2020-06-22T13:44:41Z</time>
      </trkpt>
      <trkpt lat="50.66772" lon="1.63563">
        <ele>43.7</ele>
        <time>2020-06-22T13:44:42Z</time>
      </trkpt>
      <trkpt lat="50.66771" lon="1.63564">
        <ele>43.9</ele>
        <time>2020-06-22T13:44:43Z</time>
      </trkpt>
      <trkpt lat="50.66771" lon="1.63563">
        <ele>43.8</ele>
        <time>2020-06-22T13:44:44Z</time>
      </trkpt>
      <trkpt lat="50.66771" lon="1.63563">
        <ele>43.8</ele>
        <time>2020-06-22T13:44:45Z</time>
      </trkpt>
      <trkpt lat="50.66771" lon="1.63561">
        <ele>43.8</ele>
        <time>2020-06-22T13:44:46Z</time>
      </trkpt>
      <trkpt lat="50.6677" lon="1.63561">
        <ele>43.8</ele>
        <time>2020-06-22T13:44:47Z</time>
      </trkpt>
      <trkpt lat="50.6677" lon="1.63561">
        <ele>43.8</ele>
        <time>2020-06-22T13:44:48Z</time>
      </trkpt>
      <trkpt lat="50.6677" lon="1.63562">
        <ele>43.8</ele>
        <time>2020-06-22T13:44:49Z</time>
      </trkpt>
      <trkpt lat="50.66769" lon="1.63562">
        <ele>43.8</ele>
        <time>2020-06-22T13:44:50Z</time>
      </trkpt>
      <trkpt lat="50.66769" lon="1.63562">
        <ele>43.8</ele>
        <time>2020-06-22T13:44:51Z</time>
      </trkpt>
      <trkpt lat="50.66769" lon="1.63562">
        <ele>43.8</ele>
        <time>2020-06-22T13:44:52Z</time>
      </trkpt>
      <trkpt lat="50.66768" lon="1.63563">
        <ele>43.9</ele>
        <time>2020-06-22T13:44:53Z</time>
      </trkpt>
      <trkpt lat="50.66767" lon="1.63563">
        <ele>43.9</ele>
        <time>2020-06-22T13:44:54Z</time>
      </trkpt>
      <trkpt lat="50.66767" lon="1.63564">
        <ele>44</ele>
        <time>2020-06-22T13:44:55Z</time>
      </trkpt>
      <trkpt lat="50.66767" lon="1.63565">
        <ele>44</ele>
        <time>2020-06-22T13:44:56Z</time>
      </trkpt>
      <trkpt lat="50.66767" lon="1.63565">
        <ele>44</ele>
        <time>2020-06-22T13:44:57Z</time>
      </trkpt>
      <trkpt lat="50.66766" lon="1.63565">
        <ele>44</ele>
        <time>2020-06-22T13:44:58Z</time>
      </trkpt>
      <trkpt lat="50.66766" lon="1.63565">
        <ele>44.1</ele>
        <time>2020-06-22T13:44:59Z</time>
      </trkpt>
      <trkpt lat="50.66766" lon="1.63565">
        <ele>44.1</ele>
        <time>2020-06-22T13:45:00Z</time>
      </trkpt>
      <trkpt lat="50.66766" lon="1.63565">
        <ele>44.1</ele>
        <time>2020-06-22T13:45:01Z</time>
      </trkpt>
      <trkpt lat="50.66765" lon="1.63565">
        <ele>44.1</ele>
        <time>2020-06-22T13:45:02Z</time>
      </trkpt>
      <trkpt lat="50.66765" lon="1.63565">
        <ele>44.1</ele>
        <time>2020-06-22T13:45:03Z</time>
      </trkpt>
      <trkpt lat="50.66765" lon="1.63564">
        <ele>44.1</ele>
        <time>2020-06-22T13:45:04Z</time>
      </trkpt>
      <trkpt lat="50.66765" lon="1.63564">
        <ele>44.1</ele>
        <time>2020-06-22T13:45:05Z</time>
      </trkpt>
      <trkpt lat="50.66764" lon="1.63564">
        <ele>44.1</ele>
        <time>2020-06-22T13:45:06Z</time>
      </trkpt>
      <trkpt lat="50.66764" lon="1.63564">
        <ele>44.1</ele>
        <time>2020-06-22T13:45:07Z</time>
      </trkpt>
      <trkpt lat="50.66764" lon="1.63564">
        <ele>44.1</ele>
        <time>2020-06-22T13:45:08Z</time>
      </trkpt>
      <trkpt lat="50.66764" lon="1.63564">
        <ele>44.1</ele>
        <time>2020-06-22T13:45:09Z</time>
      </trkpt>
      <trkpt lat="50.66763" lon="1.63564">
        <ele>44.2</ele>
        <time>2020-06-22T13:45:10Z</time>
      </trkpt>
      <trkpt lat="50.66763" lon="1.63563">
        <ele>44.2</ele>
        <time>2020-06-22T13:45:11Z</time>
      </trkpt>
      <trkpt lat="50.66762" lon="1.63562">
        <ele>44.1</ele>
        <time>2020-06-22T13:45:12Z</time>
      </trkpt>
      <trkpt lat="50.66761" lon="1.6356">
        <ele>44.1</ele>
        <time>2020-06-22T13:45:13Z</time>
      </trkpt>
      <trkpt lat="50.6676" lon="1.63559">
        <ele>44.2</ele>
        <time>2020-06-22T13:45:14Z</time>
      </trkpt>
      <trkpt lat="50.66759" lon="1.63558">
        <ele>44.2</ele>
        <time>2020-06-22T13:45:15Z</time>
      </trkpt>
      <trkpt lat="50.66759" lon="1.63557">
        <ele>44.2</ele>
        <time>2020-06-22T13:45:16Z</time>
      </trkpt>
      <trkpt lat="50.66758" lon="1.63556">
        <ele>44.2</ele>
        <time>2020-06-22T13:45:17Z</time>
      </trkpt>
      <trkpt lat="50.66758" lon="1.63556">
        <ele>44.3</ele>
        <time>2020-06-22T13:45:18Z</time>
      </trkpt>
      <trkpt lat="50.66757" lon="1.63557">
        <ele>44.3</ele>
        <time>2020-06-22T13:45:19Z</time>
      </trkpt>
      <trkpt lat="50.66757" lon="1.63557">
        <ele>44.3</ele>
        <time>2020-06-22T13:45:20Z</time>
      </trkpt>
      <trkpt lat="50.66757" lon="1.63558">
        <ele>44.3</ele>
        <time>2020-06-22T13:45:21Z</time>
      </trkpt>
      <trkpt lat="50.66757" lon="1.63558">
        <ele>44.3</ele>
        <time>2020-06-22T13:45:22Z</time>
      </trkpt>
      <trkpt lat="50.66756" lon="1.63558">
        <ele>44.3</ele>
        <time>2020-06-22T13:45:23Z</time>
      </trkpt>
      <trkpt lat="50.66756" lon="1.63558">
        <ele>44.3</ele>
        <time>2020-06-22T13:45:24Z</time>
      </trkpt>
      <trkpt lat="50.66756" lon="1.63557">
        <ele>44.3</ele>
        <time>2020-06-22T13:45:25Z</time>
      </trkpt>
      <trkpt lat="50.66756" lon="1.63556">
        <ele>44.3</ele>
        <time>2020-06-22T13:45:26Z</time>
      </trkpt>
      <trkpt lat="50.66756" lon="1.63554">
        <ele>44.3</ele>
        <time>2020-06-22T13:45:27Z</time>
      </trkpt>
      <trkpt lat="50.66756" lon="1.63552">
        <ele>44.3</ele>
        <time>2020-06-22T13:45:28Z</time>
      </trkpt>
      <trkpt lat="50.66756" lon="1.6355">
        <ele>44.3</ele>
        <time>2020-06-22T13:45:29Z</time>
      </trkpt>
      <trkpt lat="50.66756" lon="1.63549">
        <ele>44.3</ele>
        <time>2020-06-22T13:45:30Z</time>
      </trkpt>
      <trkpt lat="50.66756" lon="1.63548">
        <ele>44.3</ele>
        <time>2020-06-22T13:45:31Z</time>
      </trkpt>
      <trkpt lat="50.66756" lon="1.63548">
        <ele>44.3</ele>
        <time>2020-06-22T13:45:32Z</time>
      </trkpt>
      <trkpt lat="50.66755" lon="1.63547">
        <ele>44.4</ele>
        <time>2020-06-22T13:45:33Z</time>
      </trkpt>
      <trkpt lat="50.66754" lon="1.63546">
        <ele>44.4</ele>
        <time>2020-06-22T13:45:34Z</time>
      </trkpt>
      <trkpt lat="50.66753" lon="1.63545">
        <ele>44.4</ele>
        <time>2020-06-22T13:45:35Z</time>
      </trkpt>
      <trkpt lat="50.66753" lon="1.63543">
        <ele>44.4</ele>
        <time>2020-06-22T13:45:36Z</time>
      </trkpt>
      <trkpt lat="50.66752" lon="1.63541">
        <ele>44.6</ele>
        <time>2020-06-22T13:45:37Z</time>
      </trkpt>
      <trkpt lat="50.66751" lon="1.63539">
        <ele>44.6</ele>
        <time>2020-06-22T13:45:38Z</time>
      </trkpt>
      <trkpt lat="50.66751" lon="1.63536">
        <ele>44.7</ele>
        <time>2020-06-22T13:45:39Z</time>
      </trkpt>
      <trkpt lat="50.66751" lon="1.63535">
        <ele>44.7</ele>
        <time>2020-06-22T13:45:40Z</time>
      </trkpt>
      <trkpt lat="50.66751" lon="1.63533">
        <ele>44.7</ele>
        <time>2020-06-22T13:45:41Z</time>
      </trkpt>
      <trkpt lat="50.6675" lon="1.63532">
        <ele>44.7</ele>
        <time>2020-06-22T13:45:42Z</time>
      </trkpt>
      <trkpt lat="50.6675" lon="1.63532">
        <ele>44.7</ele>
        <time>2020-06-22T13:45:43Z</time>
      </trkpt>
      <trkpt lat="50.6675" lon="1.63532">
        <ele>44.7</ele>
        <time>2020-06-22T13:45:44Z</time>
      </trkpt>
      <trkpt lat="50.6675" lon="1.63533">
        <ele>44.7</ele>
        <time>2020-06-22T13:45:45Z</time>
      </trkpt>
      <trkpt lat="50.6675" lon="1.63533">
        <ele>44.9</ele>
        <time>2020-06-22T13:45:46Z</time>
      </trkpt>
      <trkpt lat="50.6675" lon="1.63534">
        <ele>44.8</ele>
        <time>2020-06-22T13:45:47Z</time>
      </trkpt>
      <trkpt lat="50.66749" lon="1.63534">
        <ele>44.8</ele>
        <time>2020-06-22T13:45:48Z</time>
      </trkpt>
      <trkpt lat="50.66749" lon="1.63535">
        <ele>44.8</ele>
        <time>2020-06-22T13:45:49Z</time>
      </trkpt>
      <trkpt lat="50.66749" lon="1.63535">
        <ele>44.8</ele>
        <time>2020-06-22T13:45:50Z</time>
      </trkpt>
      <trkpt lat="50.66749" lon="1.63536">
        <ele>44.8</ele>
        <time>2020-06-22T13:45:51Z</time>
      </trkpt>
      <trkpt lat="50.66749" lon="1.63536">
        <ele>44.8</ele>
        <time>2020-06-22T13:45:52Z</time>
      </trkpt>
      <trkpt lat="50.66749" lon="1.63537">
        <ele>44.8</ele>
        <time>2020-06-22T13:45:53Z</time>
      </trkpt>
      <trkpt lat="50.66749" lon="1.63537">
        <ele>44.8</ele>
        <time>2020-06-22T13:45:54Z</time>
      </trkpt>
      <trkpt lat="50.66748" lon="1.63538">
        <ele>44.8</ele>
        <time>2020-06-22T13:45:55Z</time>
      </trkpt>
      <trkpt lat="50.66748" lon="1.63538">
        <ele>44.8</ele>
        <time>2020-06-22T13:45:56Z</time>
      </trkpt>
      <trkpt lat="50.66748" lon="1.63539">
        <ele>44.8</ele>
        <time>2020-06-22T13:45:57Z</time>
      </trkpt>
      <trkpt lat="50.66748" lon="1.63539">
        <ele>44.8</ele>
        <time>2020-06-22T13:45:58Z</time>
      </trkpt>
      <trkpt lat="50.66748" lon="1.6354">
        <ele>44.8</ele>
        <time>2020-06-22T13:45:59Z</time>
      </trkpt>
      <trkpt lat="50.66748" lon="1.6354">
        <ele>44.8</ele>
        <time>2020-06-22T13:46:00Z</time>
      </trkpt>
      <trkpt lat="50.66747" lon="1.63541">
        <ele>44.8</ele>
        <time>2020-06-22T13:46:01Z</time>
      </trkpt>
      <trkpt lat="50.66747" lon="1.63541">
        <ele>44.8</ele>
        <time>2020-06-22T13:46:02Z</time>
      </trkpt>
      <trkpt lat="50.66747" lon="1.63542">
        <ele>44.8</ele>
        <time>2020-06-22T13:46:03Z</time>
      </trkpt>
      <trkpt lat="50.66747" lon="1.63542">
        <ele>44.9</ele>
        <time>2020-06-22T13:46:04Z</time>
      </trkpt>
      <trkpt lat="50.66747" lon="1.63542">
        <ele>44.9</ele>
        <time>2020-06-22T13:46:10Z</time>
      </trkpt>
      <trkpt lat="50.66747" lon="1.63543">
        <ele>44.9</ele>
        <time>2020-06-22T13:46:11Z</time>
      </trkpt>
      <trkpt lat="50.66746" lon="1.63544">
        <ele>44.9</ele>
        <time>2020-06-22T13:46:12Z</time>
      </trkpt>
      <trkpt lat="50.66745" lon="1.63545">
        <ele>44.9</ele>
        <time>2020-06-22T13:46:13Z</time>
      </trkpt>
      <trkpt lat="50.66745" lon="1.63547">
        <ele>44.9</ele>
        <time>2020-06-22T13:46:14Z</time>
      </trkpt>
      <trkpt lat="50.66745" lon="1.6355">
        <ele>44.9</ele>
        <time>2020-06-22T13:46:15Z</time>
      </trkpt>
      <trkpt lat="50.66745" lon="1.6355">
        <ele>44.9</ele>
        <time>2020-06-22T13:46:16Z</time>
      </trkpt>
      <trkpt lat="50.66745" lon="1.6355">
        <ele>44.9</ele>
        <time>2020-06-22T13:46:17Z</time>
      </trkpt>
      <trkpt lat="50.66745" lon="1.6355">
        <ele>44.9</ele>
        <time>2020-06-22T13:46:18Z</time>
      </trkpt>
      <trkpt lat="50.66746" lon="1.6355">
        <ele>44.9</ele>
        <time>2020-06-22T13:46:19Z</time>
      </trkpt>
      <trkpt lat="50.66746" lon="1.6355">
        <ele>44.9</ele>
        <time>2020-06-22T13:46:20Z</time>
      </trkpt>
      <trkpt lat="50.66746" lon="1.6355">
        <ele>44.9</ele>
        <time>2020-06-22T13:46:21Z</time>
      </trkpt>
      <trkpt lat="50.66746" lon="1.6355">
        <ele>44.9</ele>
        <time>2020-06-22T13:46:22Z</time>
      </trkpt>
      <trkpt lat="50.66746" lon="1.6355">
        <ele>44.9</ele>
        <time>2020-06-22T13:46:23Z</time>
      </trkpt>
      <trkpt lat="50.66746" lon="1.6355">
        <ele>44.9</ele>
        <time>2020-06-22T13:46:24Z</time>
      </trkpt>
      <trkpt lat="50.66746" lon="1.6355">
        <ele>44.9</ele>
        <time>2020-06-22T13:46:25Z</time>
      </trkpt>
      <trkpt lat="50.66747" lon="1.6355">
        <ele>44.9</ele>
        <time>2020-06-22T13:46:26Z</time>
      </trkpt>
      <trkpt lat="50.66747" lon="1.6355">
        <ele>44.9</ele>
        <time>2020-06-22T13:46:27Z</time>
      </trkpt>
      <trkpt lat="50.66747" lon="1.6355">
        <ele>44.9</ele>
        <time>2020-06-22T13:46:28Z</time>
      </trkpt>
      <trkpt lat="50.66747" lon="1.6355">
        <ele>44.9</ele>
        <time>2020-06-22T13:46:29Z</time>
      </trkpt>
      <trkpt lat="50.66747" lon="1.6355">
        <ele>44.7</ele>
        <time>2020-06-22T13:46:30Z</time>
      </trkpt>
      <trkpt lat="50.66747" lon="1.6355">
        <ele>44.7</ele>
        <time>2020-06-22T13:46:31Z</time>
      </trkpt>
      <trkpt lat="50.66747" lon="1.6355">
        <ele>44.7</ele>
        <time>2020-06-22T13:46:32Z</time>
      </trkpt>
      <trkpt lat="50.66748" lon="1.6355">
        <ele>44.7</ele>
        <time>2020-06-22T13:46:33Z</time>
      </trkpt>
      <trkpt lat="50.66748" lon="1.6355">
        <ele>44.7</ele>
        <time>2020-06-22T13:46:34Z</time>
      </trkpt>
      <trkpt lat="50.66748" lon="1.6355">
        <ele>44.7</ele>
        <time>2020-06-22T13:46:35Z</time>
      </trkpt>
      <trkpt lat="50.66748" lon="1.6355">
        <ele>44.7</ele>
        <time>2020-06-22T13:46:36Z</time>
      </trkpt>
      <trkpt lat="50.66748" lon="1.6355">
        <ele>44.7</ele>
        <time>2020-06-22T13:46:37Z</time>
      </trkpt>
      <trkpt lat="50.66748" lon="1.6355">
        <ele>44.7</ele>
        <time>2020-06-22T13:46:38Z</time>
      </trkpt>
      <trkpt lat="50.66748" lon="1.6355">
        <ele>44.7</ele>
        <time>2020-06-22T13:46:39Z</time>
      </trkpt>
      <trkpt lat="50.66749" lon="1.6355">
        <ele>44.7</ele>
        <time>2020-06-22T13:46:40Z</time>
      </trkpt>
      <trkpt lat="50.66749" lon="1.6355">
        <ele>44.7</ele>
        <time>2020-06-22T13:46:41Z</time>
      </trkpt>
      <trkpt lat="50.66749" lon="1.6355">
        <ele>44.7</ele>
        <time>2020-06-22T13:46:42Z</time>
      </trkpt>
      <trkpt lat="50.66749" lon="1.6355">
        <ele>44.7</ele>
        <time>2020-06-22T13:46:43Z</time>
      </trkpt>
      <trkpt lat="50.66749" lon="1.6355">
        <ele>44.7</ele>
        <time>2020-06-22T13:46:44Z</time>
      </trkpt>
      <trkpt lat="50.66751" lon="1.63551">
        <ele>44.6</ele>
        <time>2020-06-22T13:46:45Z</time>
      </trkpt>
      <trkpt lat="50.66752" lon="1.63552">
        <ele>44.6</ele>
        <time>2020-06-22T13:46:46Z</time>
      </trkpt>
      <trkpt lat="50.66752" lon="1.63554">
        <ele>44.6</ele>
        <time>2020-06-22T13:46:47Z</time>
      </trkpt>
      <trkpt lat="50.66752" lon="1.63554">
        <ele>44.6</ele>
        <time>2020-06-22T13:46:48Z</time>
      </trkpt>
      <trkpt lat="50.66753" lon="1.63553">
        <ele>44.4</ele>
        <time>2020-06-22T13:46:49Z</time>
      </trkpt>
      <trkpt lat="50.66753" lon="1.63554">
        <ele>44.4</ele>
        <time>2020-06-22T13:46:50Z</time>
      </trkpt>
      <trkpt lat="50.66752" lon="1.63554">
        <ele>44.6</ele>
        <time>2020-06-22T13:46:51Z</time>
      </trkpt>
      <trkpt lat="50.66751" lon="1.63554">
        <ele>44.6</ele>
        <time>2020-06-22T13:46:52Z</time>
      </trkpt>
      <trkpt lat="50.66749" lon="1.63554">
        <ele>44.7</ele>
        <time>2020-06-22T13:46:53Z</time>
      </trkpt>
      <trkpt lat="50.66746" lon="1.63554">
        <ele>44.9</ele>
        <time>2020-06-22T13:46:54Z</time>
      </trkpt>
      <trkpt lat="50.66742" lon="1.63552">
        <ele>45</ele>
        <time>2020-06-22T13:46:55Z</time>
      </trkpt>
      <trkpt lat="50.66741" lon="1.63551">
        <ele>45.1</ele>
        <time>2020-06-22T13:46:56Z</time>
      </trkpt>
      <trkpt lat="50.66738" lon="1.6355">
        <ele>45.3</ele>
        <time>2020-06-22T13:46:57Z</time>
      </trkpt>
      <trkpt lat="50.66735" lon="1.6355">
        <ele>45.4</ele>
        <time>2020-06-22T13:46:58Z</time>
      </trkpt>
      <trkpt lat="50.66732" lon="1.63552">
        <ele>45.5</ele>
        <time>2020-06-22T13:46:59Z</time>
      </trkpt>
      <trkpt lat="50.66731" lon="1.63552">
        <ele>45.5</ele>
        <time>2020-06-22T13:47:00Z</time>
      </trkpt>
      <trkpt lat="50.6673" lon="1.63554">
        <ele>45.6</ele>
        <time>2020-06-22T13:47:01Z</time>
      </trkpt>
      <trkpt lat="50.66729" lon="1.63555">
        <ele>45.6</ele>
        <time>2020-06-22T13:47:02Z</time>
      </trkpt>
      <trkpt lat="50.66728" lon="1.63556">
        <ele>45.6</ele>
        <time>2020-06-22T13:47:03Z</time>
      </trkpt>
      <trkpt lat="50.66727" lon="1.63557">
        <ele>45.7</ele>
        <time>2020-06-22T13:47:04Z</time>
      </trkpt>
      <trkpt lat="50.66726" lon="1.63559">
        <ele>45.7</ele>
        <time>2020-06-22T13:47:05Z</time>
      </trkpt>
      <trkpt lat="50.66724" lon="1.6356">
        <ele>45.8</ele>
        <time>2020-06-22T13:47:06Z</time>
      </trkpt>
      <trkpt lat="50.66722" lon="1.63563">
        <ele>45.9</ele>
        <time>2020-06-22T13:47:07Z</time>
      </trkpt>
      <trkpt lat="50.66721" lon="1.63563">
        <ele>45.9</ele>
        <time>2020-06-22T13:47:08Z</time>
      </trkpt>
      <trkpt lat="50.6672" lon="1.63564">
        <ele>45.8</ele>
        <time>2020-06-22T13:47:09Z</time>
      </trkpt>
      <trkpt lat="50.66717" lon="1.63563">
        <ele>46</ele>
        <time>2020-06-22T13:47:10Z</time>
      </trkpt>
      <trkpt lat="50.66717" lon="1.63562">
        <ele>46.1</ele>
        <time>2020-06-22T13:47:11Z</time>
      </trkpt>
      <trkpt lat="50.66717" lon="1.6356">
        <ele>46.1</ele>
        <time>2020-06-22T13:47:12Z</time>
      </trkpt>
      <trkpt lat="50.66715" lon="1.63559">
        <ele>46.1</ele>
        <time>2020-06-22T13:47:13Z</time>
      </trkpt>
      <trkpt lat="50.66714" lon="1.63558">
        <ele>46.3</ele>
        <time>2020-06-22T13:47:14Z</time>
      </trkpt>
      <trkpt lat="50.66713" lon="1.63557">
        <ele>46.3</ele>
        <time>2020-06-22T13:47:15Z</time>
      </trkpt>
      <trkpt lat="50.66712" lon="1.63555">
        <ele>46.3</ele>
        <time>2020-06-22T13:47:16Z</time>
      </trkpt>
      <trkpt lat="50.66711" lon="1.63554">
        <ele>46.5</ele>
        <time>2020-06-22T13:47:17Z</time>
      </trkpt>
      <trkpt lat="50.66713" lon="1.63551">
        <ele>46.3</ele>
        <time>2020-06-22T13:47:18Z</time>
      </trkpt>
      <trkpt lat="50.66714" lon="1.63549">
        <ele>46.4</ele>
        <time>2020-06-22T13:47:19Z</time>
      </trkpt>
      <trkpt lat="50.66717" lon="1.63547">
        <ele>46.3</ele>
        <time>2020-06-22T13:47:20Z</time>
      </trkpt>
      <trkpt lat="50.6672" lon="1.63545">
        <ele>46.3</ele>
        <time>2020-06-22T13:47:21Z</time>
      </trkpt>
      <trkpt lat="50.66721" lon="1.63545">
        <ele>46.1</ele>
        <time>2020-06-22T13:47:22Z</time>
      </trkpt>
      <trkpt lat="50.66721" lon="1.63544">
        <ele>46.1</ele>
        <time>2020-06-22T13:47:23Z</time>
      </trkpt>
      <trkpt lat="50.66721" lon="1.63544">
        <ele>46.1</ele>
        <time>2020-06-22T13:47:24Z</time>
      </trkpt>
      <trkpt lat="50.66721" lon="1.63544">
        <ele>46.1</ele>
        <time>2020-06-22T13:47:25Z</time>
      </trkpt>
      <trkpt lat="50.66722" lon="1.63544">
        <ele>46.1</ele>
        <time>2020-06-22T13:47:26Z</time>
      </trkpt>
      <trkpt lat="50.66722" lon="1.63544">
        <ele>46.1</ele>
        <time>2020-06-22T13:47:27Z</time>
      </trkpt>
      <trkpt lat="50.66722" lon="1.63543">
        <ele>46.1</ele>
        <time>2020-06-22T13:47:28Z</time>
      </trkpt>
      <trkpt lat="50.66722" lon="1.63543">
        <ele>46.1</ele>
        <time>2020-06-22T13:47:29Z</time>
      </trkpt>
      <trkpt lat="50.66722" lon="1.63543">
        <ele>46.1</ele>
        <time>2020-06-22T13:47:30Z</time>
      </trkpt>
      <trkpt lat="50.66722" lon="1.63543">
        <ele>46.1</ele>
        <time>2020-06-22T13:47:31Z</time>
      </trkpt>
      <trkpt lat="50.66724" lon="1.63542">
        <ele>46.1</ele>
        <time>2020-06-22T13:47:32Z</time>
      </trkpt>
      <trkpt lat="50.66723" lon="1.63542">
        <ele>46.1</ele>
        <time>2020-06-22T13:47:53Z</time>
      </trkpt>
      <trkpt lat="50.66722" lon="1.63543">
        <ele>46.1</ele>
        <time>2020-06-22T13:47:54Z</time>
      </trkpt>
      <trkpt lat="50.6672" lon="1.63544">
        <ele>46.1</ele>
        <time>2020-06-22T13:47:55Z</time>
      </trkpt>
      <trkpt lat="50.66719" lon="1.63546">
        <ele>46.3</ele>
        <time>2020-06-22T13:47:56Z</time>
      </trkpt>
      <trkpt lat="50.6672" lon="1.63546">
        <ele>46.3</ele>
        <time>2020-06-22T13:47:57Z</time>
      </trkpt>
      <trkpt lat="50.66719" lon="1.63546">
        <ele>46.2</ele>
        <time>2020-06-22T13:47:58Z</time>
      </trkpt>
      <trkpt lat="50.66719" lon="1.63547">
        <ele>46.2</ele>
        <time>2020-06-22T13:47:59Z</time>
      </trkpt>
      <trkpt lat="50.66719" lon="1.63546">
        <ele>46.2</ele>
        <time>2020-06-22T13:48:00Z</time>
      </trkpt>
      <trkpt lat="50.66719" lon="1.63547">
        <ele>46.2</ele>
        <time>2020-06-22T13:48:01Z</time>
      </trkpt>
      <trkpt lat="50.66719" lon="1.63546">
        <ele>46.2</ele>
        <time>2020-06-22T13:48:02Z</time>
      </trkpt>
      <trkpt lat="50.66719" lon="1.63546">
        <ele>46.2</ele>
        <time>2020-06-22T13:48:03Z</time>
      </trkpt>
      <trkpt lat="50.66719" lon="1.63546">
        <ele>46.3</ele>
        <time>2020-06-22T13:48:04Z</time>
      </trkpt>
      <trkpt lat="50.66718" lon="1.63546">
        <ele>46.2</ele>
        <time>2020-06-22T13:48:05Z</time>
      </trkpt>
      <trkpt lat="50.66718" lon="1.63547">
        <ele>46.2</ele>
        <time>2020-06-22T13:48:06Z</time>
      </trkpt>
      <trkpt lat="50.66718" lon="1.63546">
        <ele>46.3</ele>
        <time>2020-06-22T13:48:07Z</time>
      </trkpt>
      <trkpt lat="50.66718" lon="1.63544">
        <ele>46.3</ele>
        <time>2020-06-22T13:48:08Z</time>
      </trkpt>
      <trkpt lat="50.66718" lon="1.63543">
        <ele>46.3</ele>
        <time>2020-06-22T13:48:09Z</time>
      </trkpt>
      <trkpt lat="50.6672" lon="1.63542">
        <ele>46.4</ele>
        <time>2020-06-22T13:48:10Z</time>
      </trkpt>
      <trkpt lat="50.6672" lon="1.63541">
        <ele>46.2</ele>
        <time>2020-06-22T13:48:11Z</time>
      </trkpt>
      <trkpt lat="50.66721" lon="1.63541">
        <ele>46.2</ele>
        <time>2020-06-22T13:48:12Z</time>
      </trkpt>
      <trkpt lat="50.66721" lon="1.63541">
        <ele>46.2</ele>
        <time>2020-06-22T13:48:13Z</time>
      </trkpt>
      <trkpt lat="50.66721" lon="1.63542">
        <ele>46.2</ele>
        <time>2020-06-22T13:48:14Z</time>
      </trkpt>
      <trkpt lat="50.66721" lon="1.63542">
        <ele>46.1</ele>
        <time>2020-06-22T13:48:15Z</time>
      </trkpt>
      <trkpt lat="50.66722" lon="1.63543">
        <ele>46.1</ele>
        <time>2020-06-22T13:48:16Z</time>
      </trkpt>
      <trkpt lat="50.66722" lon="1.63543">
        <ele>46.1</ele>
        <time>2020-06-22T13:48:17Z</time>
      </trkpt>
      <trkpt lat="50.66722" lon="1.63542">
        <ele>46.1</ele>
        <time>2020-06-22T13:48:18Z</time>
      </trkpt>
      <trkpt lat="50.66722" lon="1.63542">
        <ele>46.1</ele>
        <time>2020-06-22T13:48:19Z</time>
      </trkpt>
      <trkpt lat="50.66722" lon="1.63543">
        <ele>46.1</ele>
        <time>2020-06-22T13:48:20Z</time>
      </trkpt>
      <trkpt lat="50.66722" lon="1.63543">
        <ele>46.1</ele>
        <time>2020-06-22T13:48:21Z</time>
      </trkpt>
      <trkpt lat="50.66722" lon="1.63543">
        <ele>46.1</ele>
        <time>2020-06-22T13:48:22Z</time>
      </trkpt>
      <trkpt lat="50.66723" lon="1.6354">
        <ele>46.1</ele>
        <time>2020-06-22T13:48:23Z</time>
      </trkpt>
      <trkpt lat="50.66723" lon="1.6354">
        <ele>46.1</ele>
        <time>2020-06-22T13:48:24Z</time>
      </trkpt>
      <trkpt lat="50.66724" lon="1.63539">
        <ele>46.1</ele>
        <time>2020-06-22T13:48:25Z</time>
      </trkpt>
      <trkpt lat="50.66724" lon="1.6354">
        <ele>46.1</ele>
        <time>2020-06-22T13:48:26Z</time>
      </trkpt>
      <trkpt lat="50.66724" lon="1.6354">
        <ele>46.1</ele>
        <time>2020-06-22T13:48:27Z</time>
      </trkpt>
      <trkpt lat="50.66725" lon="1.63541">
        <ele>46.1</ele>
        <time>2020-06-22T13:48:28Z</time>
      </trkpt>
      <trkpt lat="50.66726" lon="1.6354">
        <ele>46</ele>
        <time>2020-06-22T13:48:29Z</time>
      </trkpt>
      <trkpt lat="50.66728" lon="1.63539">
        <ele>46</ele>
        <time>2020-06-22T13:48:30Z</time>
      </trkpt>
      <trkpt lat="50.66728" lon="1.63539">
        <ele>46</ele>
        <time>2020-06-22T13:48:31Z</time>
      </trkpt>
      <trkpt lat="50.66728" lon="1.63539">
        <ele>46</ele>
        <time>2020-06-22T13:48:32Z</time>
      </trkpt>
      <trkpt lat="50.66728" lon="1.63539">
        <ele>45.8</ele>
        <time>2020-06-22T13:48:33Z</time>
      </trkpt>
      <trkpt lat="50.66728" lon="1.63538">
        <ele>45.8</ele>
        <time>2020-06-22T13:48:34Z</time>
      </trkpt>
      <trkpt lat="50.66728" lon="1.63537">
        <ele>45.9</ele>
        <time>2020-06-22T13:48:35Z</time>
      </trkpt>
      <trkpt lat="50.66729" lon="1.63536">
        <ele>45.9</ele>
        <time>2020-06-22T13:48:36Z</time>
      </trkpt>
      <trkpt lat="50.66729" lon="1.63536">
        <ele>45.9</ele>
        <time>2020-06-22T13:48:37Z</time>
      </trkpt>
      <trkpt lat="50.66729" lon="1.63535">
        <ele>45.9</ele>
        <time>2020-06-22T13:48:38Z</time>
      </trkpt>
      <trkpt lat="50.66729" lon="1.63535">
        <ele>45.9</ele>
        <time>2020-06-22T13:48:39Z</time>
      </trkpt>
      <trkpt lat="50.66729" lon="1.63535">
        <ele>45.9</ele>
        <time>2020-06-22T13:48:40Z</time>
      </trkpt>
      <trkpt lat="50.66729" lon="1.63536">
        <ele>45.9</ele>
        <time>2020-06-22T13:48:41Z</time>
      </trkpt>
      <trkpt lat="50.66729" lon="1.63537">
        <ele>45.9</ele>
        <time>2020-06-22T13:48:42Z</time>
      </trkpt>
      <trkpt lat="50.66729" lon="1.63536">
        <ele>45.9</ele>
        <time>2020-06-22T13:48:43Z</time>
      </trkpt>
      <trkpt lat="50.6673" lon="1.63537">
        <ele>45.9</ele>
        <time>2020-06-22T13:48:44Z</time>
      </trkpt>
      <trkpt lat="50.6673" lon="1.63538">
        <ele>45.9</ele>
        <time>2020-06-22T13:48:45Z</time>
      </trkpt>
      <trkpt lat="50.6673" lon="1.63538">
        <ele>45.9</ele>
        <time>2020-06-22T13:48:46Z</time>
      </trkpt>
      <trkpt lat="50.6673" lon="1.63537">
        <ele>45.9</ele>
        <time>2020-06-22T13:48:47Z</time>
      </trkpt>
      <trkpt lat="50.6673" lon="1.63537">
        <ele>45.9</ele>
        <time>2020-06-22T13:48:48Z</time>
      </trkpt>
      <trkpt lat="50.6673" lon="1.63537">
        <ele>45.9</ele>
        <time>2020-06-22T13:48:49Z</time>
      </trkpt>
      <trkpt lat="50.6673" lon="1.63537">
        <ele>45.9</ele>
        <time>2020-06-22T13:48:50Z</time>
      </trkpt>
      <trkpt lat="50.66731" lon="1.63538">
        <ele>45.7</ele>
        <time>2020-06-22T13:48:51Z</time>
      </trkpt>
      <trkpt lat="50.66732" lon="1.63539">
        <ele>45.7</ele>
        <time>2020-06-22T13:48:52Z</time>
      </trkpt>
      <trkpt lat="50.66733" lon="1.63539">
        <ele>45.7</ele>
        <time>2020-06-22T13:48:53Z</time>
      </trkpt>
      <trkpt lat="50.66734" lon="1.63539">
        <ele>45.5</ele>
        <time>2020-06-22T13:48:54Z</time>
      </trkpt>
      <trkpt lat="50.66734" lon="1.63539">
        <ele>45.5</ele>
        <time>2020-06-22T13:48:55Z</time>
      </trkpt>
      <trkpt lat="50.66743" lon="1.63533">
        <ele>45.2</ele>
        <time>2020-06-22T13:49:06Z</time>
      </trkpt>
      <trkpt lat="50.66744" lon="1.63533">
        <ele>45.3</ele>
        <time>2020-06-22T13:49:07Z</time>
      </trkpt>
      <trkpt lat="50.66746" lon="1.63533">
        <ele>45.1</ele>
        <time>2020-06-22T13:49:08Z</time>
      </trkpt>
      <trkpt lat="50.66746" lon="1.63533">
        <ele>45.1</ele>
        <time>2020-06-22T13:49:09Z</time>
      </trkpt>
      <trkpt lat="50.66746" lon="1.63533">
        <ele>45.1</ele>
        <time>2020-06-22T13:49:10Z</time>
      </trkpt>
      <trkpt lat="50.66747" lon="1.63534">
        <ele>45</ele>
        <time>2020-06-22T13:49:11Z</time>
      </trkpt>
      <trkpt lat="50.66747" lon="1.63534">
        <ele>45</ele>
        <time>2020-06-22T13:49:12Z</time>
      </trkpt>
      <trkpt lat="50.66747" lon="1.63534">
        <ele>45</ele>
        <time>2020-06-22T13:49:13Z</time>
      </trkpt>
      <trkpt lat="50.66747" lon="1.63533">
        <ele>45.1</ele>
        <time>2020-06-22T13:49:14Z</time>
      </trkpt>
      <trkpt lat="50.66748" lon="1.63534">
        <ele>44.8</ele>
        <time>2020-06-22T13:49:15Z</time>
      </trkpt>
      <trkpt lat="50.66749" lon="1.63534">
        <ele>44.8</ele>
        <time>2020-06-22T13:49:16Z</time>
      </trkpt>
      <trkpt lat="50.66749" lon="1.63535">
        <ele>44.8</ele>
        <time>2020-06-22T13:49:17Z</time>
      </trkpt>
      <trkpt lat="50.6675" lon="1.63537">
        <ele>44.8</ele>
        <time>2020-06-22T13:49:18Z</time>
      </trkpt>
      <trkpt lat="50.6675" lon="1.63538">
        <ele>44.8</ele>
        <time>2020-06-22T13:49:19Z</time>
      </trkpt>
      <trkpt lat="50.6675" lon="1.63539">
        <ele>44.6</ele>
        <time>2020-06-22T13:49:20Z</time>
      </trkpt>
      <trkpt lat="50.6675" lon="1.63539">
        <ele>44.6</ele>
        <time>2020-06-22T13:49:21Z</time>
      </trkpt>
      <trkpt lat="50.66749" lon="1.63539">
        <ele>44.8</ele>
        <time>2020-06-22T13:49:22Z</time>
      </trkpt>
      <trkpt lat="50.66749" lon="1.63538">
        <ele>44.8</ele>
        <time>2020-06-22T13:49:23Z</time>
      </trkpt>
      <trkpt lat="50.6675" lon="1.63538">
        <ele>44.8</ele>
        <time>2020-06-22T13:49:24Z</time>
      </trkpt>
      <trkpt lat="50.66749" lon="1.63537">
        <ele>44.8</ele>
        <time>2020-06-22T13:49:25Z</time>
      </trkpt>
      <trkpt lat="50.66749" lon="1.63537">
        <ele>44.8</ele>
        <time>2020-06-22T13:49:26Z</time>
      </trkpt>
      <trkpt lat="50.66749" lon="1.63537">
        <ele>44.8</ele>
        <time>2020-06-22T13:49:27Z</time>
      </trkpt>
      <trkpt lat="50.66748" lon="1.63538">
        <ele>44.8</ele>
        <time>2020-06-22T13:49:28Z</time>
      </trkpt>
      <trkpt lat="50.66748" lon="1.63538">
        <ele>44.8</ele>
        <time>2020-06-22T13:49:29Z</time>
      </trkpt>
      <trkpt lat="50.66748" lon="1.63538">
        <ele>44.8</ele>
        <time>2020-06-22T13:49:30Z</time>
      </trkpt>
      <trkpt lat="50.66747" lon="1.63537">
        <ele>45</ele>
        <time>2020-06-22T13:49:31Z</time>
      </trkpt>
      <trkpt lat="50.66746" lon="1.63537">
        <ele>45</ele>
        <time>2020-06-22T13:49:32Z</time>
      </trkpt>
      <trkpt lat="50.66746" lon="1.63536">
        <ele>45</ele>
        <time>2020-06-22T13:49:33Z</time>
      </trkpt>
      <trkpt lat="50.66746" lon="1.63536">
        <ele>45</ele>
        <time>2020-06-22T13:49:34Z</time>
      </trkpt>
      <trkpt lat="50.66746" lon="1.63535">
        <ele>45</ele>
        <time>2020-06-22T13:49:35Z</time>
      </trkpt>
      <trkpt lat="50.66745" lon="1.63535">
        <ele>45</ele>
        <time>2020-06-22T13:49:36Z</time>
      </trkpt>
      <trkpt lat="50.66745" lon="1.63534">
        <ele>45</ele>
        <time>2020-06-22T13:49:37Z</time>
      </trkpt>
      <trkpt lat="50.66745" lon="1.63534">
        <ele>45</ele>
        <time>2020-06-22T13:49:38Z</time>
      </trkpt>
      <trkpt lat="50.66744" lon="1.63533">
        <ele>45</ele>
        <time>2020-06-22T13:49:39Z</time>
      </trkpt>
      <trkpt lat="50.66744" lon="1.63533">
        <ele>45.3</ele>
        <time>2020-06-22T13:49:40Z</time>
      </trkpt>
      <trkpt lat="50.66743" lon="1.63532">
        <ele>45.3</ele>
        <time>2020-06-22T13:49:41Z</time>
      </trkpt>
      <trkpt lat="50.66741" lon="1.63531">
        <ele>45.4</ele>
        <time>2020-06-22T13:49:42Z</time>
      </trkpt>
      <trkpt lat="50.6674" lon="1.6353">
        <ele>45.4</ele>
        <time>2020-06-22T13:49:43Z</time>
      </trkpt>
      <trkpt lat="50.6674" lon="1.6353">
        <ele>45.4</ele>
        <time>2020-06-22T13:49:44Z</time>
      </trkpt>
      <trkpt lat="50.6674" lon="1.6353">
        <ele>45.4</ele>
        <time>2020-06-22T13:49:45Z</time>
      </trkpt>
      <trkpt lat="50.6674" lon="1.63532">
        <ele>45.4</ele>
        <time>2020-06-22T13:49:46Z</time>
      </trkpt>
      <trkpt lat="50.6674" lon="1.63532">
        <ele>45.4</ele>
        <time>2020-06-22T13:49:47Z</time>
      </trkpt>
      <trkpt lat="50.6674" lon="1.63532">
        <ele>45.4</ele>
        <time>2020-06-22T13:49:48Z</time>
      </trkpt>
      <trkpt lat="50.66739" lon="1.63531">
        <ele>45.4</ele>
        <time>2020-06-22T13:49:49Z</time>
      </trkpt>
      <trkpt lat="50.6674" lon="1.63531">
        <ele>45.4</ele>
        <time>2020-06-22T13:49:50Z</time>
      </trkpt>
      <trkpt lat="50.66739" lon="1.63529">
        <ele>45.4</ele>
        <time>2020-06-22T13:49:51Z</time>
      </trkpt>
      <trkpt lat="50.66739" lon="1.63528">
        <ele>45.6</ele>
        <time>2020-06-22T13:49:52Z</time>
      </trkpt>
      <trkpt lat="50.66739" lon="1.63527">
        <ele>45.7</ele>
        <time>2020-06-22T13:49:53Z</time>
      </trkpt>
      <trkpt lat="50.66738" lon="1.63526">
        <ele>45.7</ele>
        <time>2020-06-22T13:49:54Z</time>
      </trkpt>
      <trkpt lat="50.66738" lon="1.63525">
        <ele>45.7</ele>
        <time>2020-06-22T13:49:55Z</time>
      </trkpt>
      <trkpt lat="50.66739" lon="1.63525">
        <ele>45.9</ele>
        <time>2020-06-22T13:49:56Z</time>
      </trkpt>
      <trkpt lat="50.66739" lon="1.63524">
        <ele>45.9</ele>
        <time>2020-06-22T13:49:57Z</time>
      </trkpt>
      <trkpt lat="50.66739" lon="1.63524">
        <ele>45.7</ele>
        <time>2020-06-22T13:49:58Z</time>
      </trkpt>
      <trkpt lat="50.66739" lon="1.63523">
        <ele>45.7</ele>
        <time>2020-06-22T13:49:59Z</time>
      </trkpt>
      <trkpt lat="50.6674" lon="1.63524">
        <ele>45.7</ele>
        <time>2020-06-22T13:50:00Z</time>
      </trkpt>
      <trkpt lat="50.6674" lon="1.63524">
        <ele>45.7</ele>
        <time>2020-06-22T13:50:01Z</time>
      </trkpt>
      <trkpt lat="50.6674" lon="1.63524">
        <ele>45.7</ele>
        <time>2020-06-22T13:50:02Z</time>
      </trkpt>
      <trkpt lat="50.6674" lon="1.63525">
        <ele>45.6</ele>
        <time>2020-06-22T13:50:03Z</time>
      </trkpt>
      <trkpt lat="50.6674" lon="1.63525">
        <ele>45.6</ele>
        <time>2020-06-22T13:50:04Z</time>
      </trkpt>
      <trkpt lat="50.6674" lon="1.63526">
        <ele>45.6</ele>
        <time>2020-06-22T13:50:05Z</time>
      </trkpt>
      <trkpt lat="50.6674" lon="1.63526">
        <ele>45.6</ele>
        <time>2020-06-22T13:50:06Z</time>
      </trkpt>
      <trkpt lat="50.6674" lon="1.63526">
        <ele>45.6</ele>
        <time>2020-06-22T13:50:07Z</time>
      </trkpt>
      <trkpt lat="50.66741" lon="1.63527">
        <ele>45.6</ele>
        <time>2020-06-22T13:50:08Z</time>
      </trkpt>
      <trkpt lat="50.66741" lon="1.63527">
        <ele>45.6</ele>
        <time>2020-06-22T13:50:09Z</time>
      </trkpt>
      <trkpt lat="50.66741" lon="1.63527">
        <ele>45.6</ele>
        <time>2020-06-22T13:50:10Z</time>
      </trkpt>
      <trkpt lat="50.66741" lon="1.63528">
        <ele>45.6</ele>
        <time>2020-06-22T13:50:11Z</time>
      </trkpt>
      <trkpt lat="50.66741" lon="1.63528">
        <ele>45.6</ele>
        <time>2020-06-22T13:50:12Z</time>
      </trkpt>
      <trkpt lat="50.66741" lon="1.63528">
        <ele>45.6</ele>
        <time>2020-06-22T13:50:13Z</time>
      </trkpt>
      <trkpt lat="50.66741" lon="1.63529">
        <ele>45.6</ele>
        <time>2020-06-22T13:50:14Z</time>
      </trkpt>
      <trkpt lat="50.66743" lon="1.63534">
        <ele>45.2</ele>
        <time>2020-06-22T13:50:15Z</time>
      </trkpt>
      <trkpt lat="50.66743" lon="1.63535">
        <ele>45.2</ele>
        <time>2020-06-22T13:50:16Z</time>
      </trkpt>
      <trkpt lat="50.66744" lon="1.63536">
        <ele>45.2</ele>
        <time>2020-06-22T13:50:17Z</time>
      </trkpt>
      <trkpt lat="50.66745" lon="1.63537">
        <ele>45</ele>
        <time>2020-06-22T13:50:18Z</time>
      </trkpt>
      <trkpt lat="50.66745" lon="1.63537">
        <ele>45</ele>
        <time>2020-06-22T13:50:19Z</time>
      </trkpt>
      <trkpt lat="50.66745" lon="1.63537">
        <ele>45</ele>
        <time>2020-06-22T13:50:20Z</time>
      </trkpt>
      <trkpt lat="50.66745" lon="1.63537">
        <ele>45</ele>
        <time>2020-06-22T13:50:21Z</time>
      </trkpt>
      <trkpt lat="50.66745" lon="1.63537">
        <ele>45</ele>
        <time>2020-06-22T13:50:22Z</time>
      </trkpt>
      <trkpt lat="50.66745" lon="1.63537">
        <ele>45</ele>
        <time>2020-06-22T13:50:23Z</time>
      </trkpt>
      <trkpt lat="50.66745" lon="1.63537">
        <ele>45</ele>
        <time>2020-06-22T13:50:24Z</time>
      </trkpt>
      <trkpt lat="50.66773" lon="1.63565">
        <ele>43.7</ele>
        <time>2020-06-22T13:52:00Z</time>
      </trkpt>
      <trkpt lat="50.66773" lon="1.63564">
        <ele>43.7</ele>
        <time>2020-06-22T13:52:01Z</time>
      </trkpt>
      <trkpt lat="50.66773" lon="1.63565">
        <ele>43.7</ele>
        <time>2020-06-22T13:52:02Z</time>
      </trkpt>
      <trkpt lat="50.66774" lon="1.63566">
        <ele>43.7</ele>
        <time>2020-06-22T13:52:03Z</time>
      </trkpt>
      <trkpt lat="50.66774" lon="1.63566">
        <ele>43.7</ele>
        <time>2020-06-22T13:52:04Z</time>
      </trkpt>
      <trkpt lat="50.66774" lon="1.63567">
        <ele>43.7</ele>
        <time>2020-06-22T13:52:05Z</time>
      </trkpt>
      <trkpt lat="50.66774" lon="1.63567">
        <ele>43.6</ele>
        <time>2020-06-22T13:52:06Z</time>
      </trkpt>
      <trkpt lat="50.66774" lon="1.63567">
        <ele>43.7</ele>
        <time>2020-06-22T13:52:07Z</time>
      </trkpt>
      <trkpt lat="50.66774" lon="1.63567">
        <ele>43.6</ele>
        <time>2020-06-22T13:52:08Z</time>
      </trkpt>
      <trkpt lat="50.66774" lon="1.63567">
        <ele>43.6</ele>
        <time>2020-06-22T13:52:09Z</time>
      </trkpt>
      <trkpt lat="50.66774" lon="1.63566">
        <ele>43.7</ele>
        <time>2020-06-22T13:52:10Z</time>
      </trkpt>
      <trkpt lat="50.66774" lon="1.63566">
        <ele>43.7</ele>
        <time>2020-06-22T13:52:11Z</time>
      </trkpt>
      <trkpt lat="50.66773" lon="1.63565">
        <ele>43.7</ele>
        <time>2020-06-22T13:52:12Z</time>
      </trkpt>
      <trkpt lat="50.66773" lon="1.63564">
        <ele>43.7</ele>
        <time>2020-06-22T13:52:13Z</time>
      </trkpt>
      <trkpt lat="50.66772" lon="1.63562">
        <ele>43.8</ele>
        <time>2020-06-22T13:52:14Z</time>
      </trkpt>
      <trkpt lat="50.66769" lon="1.63559">
        <ele>43.9</ele>
        <time>2020-06-22T13:52:15Z</time>
      </trkpt>
      <trkpt lat="50.66768" lon="1.63559">
        <ele>43.8</ele>
        <time>2020-06-22T13:52:16Z</time>
      </trkpt>
      <trkpt lat="50.66766" lon="1.63557">
        <ele>43.9</ele>
        <time>2020-06-22T13:52:17Z</time>
      </trkpt>
      <trkpt lat="50.66765" lon="1.63558">
        <ele>43.9</ele>
        <time>2020-06-22T13:52:18Z</time>
      </trkpt>
      <trkpt lat="50.66763" lon="1.63557">
        <ele>44.1</ele>
        <time>2020-06-22T13:52:19Z</time>
      </trkpt>
      <trkpt lat="50.66761" lon="1.63557">
        <ele>44.1</ele>
        <time>2020-06-22T13:52:20Z</time>
      </trkpt>
      <trkpt lat="50.6676" lon="1.63557">
        <ele>44.2</ele>
        <time>2020-06-22T13:52:21Z</time>
      </trkpt>
      <trkpt lat="50.66758" lon="1.63555">
        <ele>44.2</ele>
        <time>2020-06-22T13:52:22Z</time>
      </trkpt>
      <trkpt lat="50.66755" lon="1.63552">
        <ele>44.4</ele>
        <time>2020-06-22T13:52:23Z</time>
      </trkpt>
      <trkpt lat="50.66754" lon="1.63551">
        <ele>44.4</ele>
        <time>2020-06-22T13:52:24Z</time>
      </trkpt>
      <trkpt lat="50.66751" lon="1.63548">
        <ele>44.6</ele>
        <time>2020-06-22T13:52:25Z</time>
      </trkpt>
      <trkpt lat="50.66748" lon="1.63546">
        <ele>44.7</ele>
        <time>2020-06-22T13:52:26Z</time>
      </trkpt>
      <trkpt lat="50.66746" lon="1.63543">
        <ele>44.9</ele>
        <time>2020-06-22T13:52:27Z</time>
      </trkpt>
      <trkpt lat="50.66744" lon="1.63539">
        <ele>45.1</ele>
        <time>2020-06-22T13:52:28Z</time>
      </trkpt>
      <trkpt lat="50.66743" lon="1.63538">
        <ele>45.1</ele>
        <time>2020-06-22T13:52:29Z</time>
      </trkpt>
      <trkpt lat="50.66744" lon="1.63535">
        <ele>45.2</ele>
        <time>2020-06-22T13:52:30Z</time>
      </trkpt>
      <trkpt lat="50.66745" lon="1.63534">
        <ele>45</ele>
        <time>2020-06-22T13:52:31Z</time>
      </trkpt>
      <trkpt lat="50.66745" lon="1.63533">
        <ele>45.1</ele>
        <time>2020-06-22T13:52:32Z</time>
      </trkpt>
      <trkpt lat="50.66746" lon="1.63531">
        <ele>45.1</ele>
        <time>2020-06-22T13:52:33Z</time>
      </trkpt>
      <trkpt lat="50.66745" lon="1.63528">
        <ele>45.2</ele>
        <time>2020-06-22T13:52:34Z</time>
      </trkpt>
      <trkpt lat="50.66745" lon="1.63524">
        <ele>45.3</ele>
        <time>2020-06-22T13:52:35Z</time>
      </trkpt>
      <trkpt lat="50.66744" lon="1.63523">
        <ele>45.5</ele>
        <time>2020-06-22T13:52:36Z</time>
      </trkpt>
      <trkpt lat="50.66744" lon="1.63519">
        <ele>45.7</ele>
        <time>2020-06-22T13:52:37Z</time>
      </trkpt>
      <trkpt lat="50.66744" lon="1.63517">
        <ele>45.7</ele>
        <time>2020-06-22T13:52:38Z</time>
      </trkpt>
      <trkpt lat="50.66743" lon="1.63512">
        <ele>45.9</ele>
        <time>2020-06-22T13:52:39Z</time>
      </trkpt>
      <trkpt lat="50.66743" lon="1.6351">
        <ele>46.2</ele>
        <time>2020-06-22T13:52:40Z</time>
      </trkpt>
      <trkpt lat="50.66743" lon="1.63508">
        <ele>46.2</ele>
        <time>2020-06-22T13:52:41Z</time>
      </trkpt>
      <trkpt lat="50.66744" lon="1.63505">
        <ele>46.5</ele>
        <time>2020-06-22T13:52:42Z</time>
      </trkpt>
      <trkpt lat="50.66743" lon="1.63503">
        <ele>46.5</ele>
        <time>2020-06-22T13:52:43Z</time>
      </trkpt>
      <trkpt lat="50.66744" lon="1.635">
        <ele>46.8</ele>
        <time>2020-06-22T13:52:44Z</time>
      </trkpt>
      <trkpt lat="50.66743" lon="1.63496">
        <ele>47.2</ele>
        <time>2020-06-22T13:52:45Z</time>
      </trkpt>
      <trkpt lat="50.66743" lon="1.63494">
        <ele>47.5</ele>
        <time>2020-06-22T13:52:46Z</time>
      </trkpt>
      <trkpt lat="50.66742" lon="1.63491">
        <ele>47.5</ele>
        <time>2020-06-22T13:52:47Z</time>
      </trkpt>
      <trkpt lat="50.66742" lon="1.63489">
        <ele>47.9</ele>
        <time>2020-06-22T13:52:48Z</time>
      </trkpt>
      <trkpt lat="50.66742" lon="1.63485">
        <ele>48.3</ele>
        <time>2020-06-22T13:52:49Z</time>
      </trkpt>
      <trkpt lat="50.66742" lon="1.63482">
        <ele>48.3</ele>
        <time>2020-06-22T13:52:50Z</time>
      </trkpt>
      <trkpt lat="50.66741" lon="1.63479">
        <ele>49</ele>
        <time>2020-06-22T13:52:51Z</time>
      </trkpt>
      <trkpt lat="50.66741" lon="1.63475">
        <ele>49.4</ele>
        <time>2020-06-22T13:52:52Z</time>
      </trkpt>
      <trkpt lat="50.66741" lon="1.63474">
        <ele>49.4</ele>
        <time>2020-06-22T13:52:53Z</time>
      </trkpt>
      <trkpt lat="50.6674" lon="1.63473">
        <ele>49.8</ele>
        <time>2020-06-22T13:52:54Z</time>
      </trkpt>
      <trkpt lat="50.6674" lon="1.6347">
        <ele>49.8</ele>
        <time>2020-06-22T13:52:55Z</time>
      </trkpt>
      <trkpt lat="50.6674" lon="1.63469">
        <ele>50.2</ele>
        <time>2020-06-22T13:52:56Z</time>
      </trkpt>
      <trkpt lat="50.66739" lon="1.63467">
        <ele>50.2</ele>
        <time>2020-06-22T13:52:57Z</time>
      </trkpt>
      <trkpt lat="50.66739" lon="1.6346">
        <ele>51.3</ele>
        <time>2020-06-22T13:52:58Z</time>
      </trkpt>
      <trkpt lat="50.66738" lon="1.63456">
        <ele>51.3</ele>
        <time>2020-06-22T13:52:59Z</time>
      </trkpt>
      <trkpt lat="50.66738" lon="1.63451">
        <ele>52.2</ele>
        <time>2020-06-22T13:53:00Z</time>
      </trkpt>
      <trkpt lat="50.66738" lon="1.63449">
        <ele>52.2</ele>
        <time>2020-06-22T13:53:01Z</time>
      </trkpt>
      <trkpt lat="50.66737" lon="1.63444">
        <ele>52.6</ele>
        <time>2020-06-22T13:53:02Z</time>
      </trkpt>
      <trkpt lat="50.66737" lon="1.63443">
        <ele>53.1</ele>
        <time>2020-06-22T13:53:03Z</time>
      </trkpt>
      <trkpt lat="50.66735" lon="1.63438">
        <ele>53.8</ele>
        <time>2020-06-22T13:53:04Z</time>
      </trkpt>
      <trkpt lat="50.66735" lon="1.63436">
        <ele>53.8</ele>
        <time>2020-06-22T13:53:05Z</time>
      </trkpt>
      <trkpt lat="50.66733" lon="1.63431">
        <ele>54.5</ele>
        <time>2020-06-22T13:53:06Z</time>
      </trkpt>
      <trkpt lat="50.66733" lon="1.63429">
        <ele>55</ele>
        <time>2020-06-22T13:53:07Z</time>
      </trkpt>
      <trkpt lat="50.66731" lon="1.63424">
        <ele>55.5</ele>
        <time>2020-06-22T13:53:08Z</time>
      </trkpt>
      <trkpt lat="50.66731" lon="1.63423">
        <ele>55.5</ele>
        <time>2020-06-22T13:53:09Z</time>
      </trkpt>
      <trkpt lat="50.6673" lon="1.63418">
        <ele>56.2</ele>
        <time>2020-06-22T13:53:10Z</time>
      </trkpt>
      <trkpt lat="50.6673" lon="1.63417">
        <ele>56.7</ele>
        <time>2020-06-22T13:53:11Z</time>
      </trkpt>
      <trkpt lat="50.6673" lon="1.63415">
        <ele>56.7</ele>
        <time>2020-06-22T13:53:12Z</time>
      </trkpt>
      <trkpt lat="50.66729" lon="1.63412">
        <ele>57.2</ele>
        <time>2020-06-22T13:53:13Z</time>
      </trkpt>
      <trkpt lat="50.66729" lon="1.63411">
        <ele>57.2</ele>
        <time>2020-06-22T13:53:14Z</time>
      </trkpt>
      <trkpt lat="50.66728" lon="1.63405">
        <ele>57.7</ele>
        <time>2020-06-22T13:53:15Z</time>
      </trkpt>
      <trkpt lat="50.66728" lon="1.63401">
        <ele>58.4</ele>
        <time>2020-06-22T13:53:16Z</time>
      </trkpt>
      <trkpt lat="50.66729" lon="1.63411">
        <ele>57.2</ele>
        <time>2020-06-22T13:53:17Z</time>
      </trkpt>
      <trkpt lat="50.6673" lon="1.6342">
        <ele>56.2</ele>
        <time>2020-06-22T13:53:18Z</time>
      </trkpt>
      <trkpt lat="50.66732" lon="1.6343">
        <ele>55</ele>
        <time>2020-06-22T13:53:19Z</time>
      </trkpt>
      <trkpt lat="50.66733" lon="1.6344">
        <ele>53.6</ele>
        <time>2020-06-22T13:53:20Z</time>
      </trkpt>
      <trkpt lat="50.66735" lon="1.63449">
        <ele>52.4</ele>
        <time>2020-06-22T13:53:21Z</time>
      </trkpt>
      <trkpt lat="50.66736" lon="1.63448">
        <ele>52.4</ele>
        <time>2020-06-22T13:53:22Z</time>
      </trkpt>
      <trkpt lat="50.66736" lon="1.6345">
        <ele>52.4</ele>
        <time>2020-06-22T13:53:23Z</time>
      </trkpt>
      <trkpt lat="50.66736" lon="1.63452">
        <ele>52</ele>
        <time>2020-06-22T13:53:24Z</time>
      </trkpt>
      <trkpt lat="50.66736" lon="1.63454">
        <ele>52</ele>
        <time>2020-06-22T13:53:25Z</time>
      </trkpt>
      <trkpt lat="50.66736" lon="1.63456">
        <ele>52</ele>
        <time>2020-06-22T13:53:26Z</time>
      </trkpt>
      <trkpt lat="50.66736" lon="1.63456">
        <ele>52</ele>
        <time>2020-06-22T13:53:27Z</time>
      </trkpt>
      <trkpt lat="50.66736" lon="1.63456">
        <ele>51.5</ele>
        <time>2020-06-22T13:53:28Z</time>
      </trkpt>
      <trkpt lat="50.66736" lon="1.63456">
        <ele>52</ele>
        <time>2020-06-22T13:53:29Z</time>
      </trkpt>
      <trkpt lat="50.66736" lon="1.63455">
        <ele>52</ele>
        <time>2020-06-22T13:53:30Z</time>
      </trkpt>
      <trkpt lat="50.66737" lon="1.63453">
        <ele>51.7</ele>
        <time>2020-06-22T13:53:31Z</time>
      </trkpt>
      <trkpt lat="50.66738" lon="1.63451">
        <ele>52.2</ele>
        <time>2020-06-22T13:53:32Z</time>
      </trkpt>
      <trkpt lat="50.66739" lon="1.6345">
        <ele>52.2</ele>
        <time>2020-06-22T13:53:33Z</time>
      </trkpt>
      <trkpt lat="50.66739" lon="1.63449">
        <ele>52.2</ele>
        <time>2020-06-22T13:53:34Z</time>
      </trkpt>
      <trkpt lat="50.66739" lon="1.63448">
        <ele>52.2</ele>
        <time>2020-06-22T13:53:35Z</time>
      </trkpt>
      <trkpt lat="50.66738" lon="1.63446">
        <ele>52.6</ele>
        <time>2020-06-22T13:53:36Z</time>
      </trkpt>
      <trkpt lat="50.66738" lon="1.63447">
        <ele>52.6</ele>
        <time>2020-06-22T13:53:37Z</time>
      </trkpt>
      <trkpt lat="50.66739" lon="1.63448">
        <ele>52.2</ele>
        <time>2020-06-22T13:53:38Z</time>
      </trkpt>
      <trkpt lat="50.66739" lon="1.6345">
        <ele>52.2</ele>
        <time>2020-06-22T13:53:39Z</time>
      </trkpt>
      <trkpt lat="50.66739" lon="1.63451">
        <ele>52.2</ele>
        <time>2020-06-22T13:53:40Z</time>
      </trkpt>
      <trkpt lat="50.66739" lon="1.63452">
        <ele>51.5</ele>
        <time>2020-06-22T13:53:41Z</time>
      </trkpt>
      <trkpt lat="50.66739" lon="1.63453">
        <ele>51.5</ele>
        <time>2020-06-22T13:53:42Z</time>
      </trkpt>
      <trkpt lat="50.6674" lon="1.63457">
        <ele>51</ele>
        <time>2020-06-22T13:53:43Z</time>
      </trkpt>
      <trkpt lat="50.6674" lon="1.63457">
        <ele>51</ele>
        <time>2020-06-22T13:53:44Z</time>
      </trkpt>
      <trkpt lat="50.6674" lon="1.63458">
        <ele>51</ele>
        <time>2020-06-22T13:53:45Z</time>
      </trkpt>
      <trkpt lat="50.6674" lon="1.63458">
        <ele>51</ele>
        <time>2020-06-22T13:53:46Z</time>
      </trkpt>
      <trkpt lat="50.6674" lon="1.63459">
        <ele>51</ele>
        <time>2020-06-22T13:53:47Z</time>
      </trkpt>
      <trkpt lat="50.6674" lon="1.63459">
        <ele>51</ele>
        <time>2020-06-22T13:53:48Z</time>
      </trkpt>
      <trkpt lat="50.6674" lon="1.6346">
        <ele>51</ele>
        <time>2020-06-22T13:53:49Z</time>
      </trkpt>
      <trkpt lat="50.6674" lon="1.6346">
        <ele>51</ele>
        <time>2020-06-22T13:53:50Z</time>
      </trkpt>
      <trkpt lat="50.66741" lon="1.63465">
        <ele>50.2</ele>
        <time>2020-06-22T13:53:51Z</time>
      </trkpt>
      <trkpt lat="50.66742" lon="1.63467">
        <ele>50.2</ele>
        <time>2020-06-22T13:53:52Z</time>
      </trkpt>
      <trkpt lat="50.66741" lon="1.63469">
        <ele>49.8</ele>
        <time>2020-06-22T13:53:53Z</time>
      </trkpt>
      <trkpt lat="50.66741" lon="1.6347">
        <ele>49.8</ele>
        <time>2020-06-22T13:53:54Z</time>
      </trkpt>
      <trkpt lat="50.66731" lon="1.63478">
        <ele>50</ele>
        <time>2020-06-22T13:54:06Z</time>
      </trkpt>
      <trkpt lat="50.6673" lon="1.63477">
        <ele>50.4</ele>
        <time>2020-06-22T13:54:07Z</time>
      </trkpt>
      <trkpt lat="50.66729" lon="1.63478">
        <ele>50</ele>
        <time>2020-06-22T13:54:08Z</time>
      </trkpt>
      <trkpt lat="50.66728" lon="1.63478">
        <ele>50.2</ele>
        <time>2020-06-22T13:54:09Z</time>
      </trkpt>
      <trkpt lat="50.66727" lon="1.6348">
        <ele>50.2</ele>
        <time>2020-06-22T13:54:10Z</time>
      </trkpt>
      <trkpt lat="50.66727" lon="1.6348">
        <ele>50.2</ele>
        <time>2020-06-22T13:54:11Z</time>
      </trkpt>
      <trkpt lat="50.66726" lon="1.63481">
        <ele>50.2</ele>
        <time>2020-06-22T13:54:12Z</time>
      </trkpt>
      <trkpt lat="50.66725" lon="1.63481">
        <ele>50.2</ele>
        <time>2020-06-22T13:54:13Z</time>
      </trkpt>
      <trkpt lat="50.66724" lon="1.63482">
        <ele>50</ele>
        <time>2020-06-22T13:54:14Z</time>
      </trkpt>
      <trkpt lat="50.66724" lon="1.63482">
        <ele>50</ele>
        <time>2020-06-22T13:54:15Z</time>
      </trkpt>
      <trkpt lat="50.66726" lon="1.63483">
        <ele>49.8</ele>
        <time>2020-06-22T13:54:16Z</time>
      </trkpt>
      <trkpt lat="50.66727" lon="1.63484">
        <ele>49.8</ele>
        <time>2020-06-22T13:54:17Z</time>
      </trkpt>
      <trkpt lat="50.66727" lon="1.63484">
        <ele>49.8</ele>
        <time>2020-06-22T13:54:18Z</time>
      </trkpt>
      <trkpt lat="50.66726" lon="1.63485">
        <ele>49.8</ele>
        <time>2020-06-22T13:54:19Z</time>
      </trkpt>
      <trkpt lat="50.66725" lon="1.63485">
        <ele>49.8</ele>
        <time>2020-06-22T13:54:20Z</time>
      </trkpt>
      <trkpt lat="50.66725" lon="1.6349">
        <ele>49.4</ele>
        <time>2020-06-22T13:54:21Z</time>
      </trkpt>
      <trkpt lat="50.66725" lon="1.63492">
        <ele>49.2</ele>
        <time>2020-06-22T13:54:22Z</time>
      </trkpt>
      <trkpt lat="50.66725" lon="1.63495">
        <ele>48.7</ele>
        <time>2020-06-22T13:54:23Z</time>
      </trkpt>
      <trkpt lat="50.66725" lon="1.63497">
        <ele>48.7</ele>
        <time>2020-06-22T13:54:24Z</time>
      </trkpt>
      <trkpt lat="50.66725" lon="1.63498">
        <ele>48.7</ele>
        <time>2020-06-22T13:54:25Z</time>
      </trkpt>
      <trkpt lat="50.66725" lon="1.63499">
        <ele>48.7</ele>
        <time>2020-06-22T13:54:26Z</time>
      </trkpt>
      <trkpt lat="50.66724" lon="1.63501">
        <ele>48.3</ele>
        <time>2020-06-22T13:54:27Z</time>
      </trkpt>
      <trkpt lat="50.66724" lon="1.635">
        <ele>48.3</ele>
        <time>2020-06-22T13:54:28Z</time>
      </trkpt>
      <trkpt lat="50.66725" lon="1.63499">
        <ele>48.3</ele>
        <time>2020-06-22T13:54:29Z</time>
      </trkpt>
      <trkpt lat="50.66725" lon="1.63497">
        <ele>48.7</ele>
        <time>2020-06-22T13:54:30Z</time>
      </trkpt>
      <trkpt lat="50.66726" lon="1.63497">
        <ele>48.5</ele>
        <time>2020-06-22T13:54:31Z</time>
      </trkpt>
      <trkpt lat="50.66726" lon="1.63496">
        <ele>48.5</ele>
        <time>2020-06-22T13:54:32Z</time>
      </trkpt>
      <trkpt lat="50.66726" lon="1.63495">
        <ele>48.5</ele>
        <time>2020-06-22T13:54:33Z</time>
      </trkpt>
      <trkpt lat="50.66727" lon="1.63493">
        <ele>49</ele>
        <time>2020-06-22T13:54:34Z</time>
      </trkpt>
      <trkpt lat="50.66727" lon="1.63491">
        <ele>49</ele>
        <time>2020-06-22T13:54:35Z</time>
      </trkpt>
      <trkpt lat="50.66727" lon="1.63491">
        <ele>49</ele>
        <time>2020-06-22T13:54:36Z</time>
      </trkpt>
      <trkpt lat="50.66728" lon="1.63492">
        <ele>49</ele>
        <time>2020-06-22T13:54:37Z</time>
      </trkpt>
      <trkpt lat="50.66728" lon="1.63493">
        <ele>49</ele>
        <time>2020-06-22T13:54:38Z</time>
      </trkpt>
      <trkpt lat="50.66728" lon="1.63494">
        <ele>49</ele>
        <time>2020-06-22T13:54:39Z</time>
      </trkpt>
      <trkpt lat="50.66728" lon="1.63495">
        <ele>48.7</ele>
        <time>2020-06-22T13:54:40Z</time>
      </trkpt>
      <trkpt lat="50.66729" lon="1.63495">
        <ele>48.3</ele>
        <time>2020-06-22T13:54:41Z</time>
      </trkpt>
      <trkpt lat="50.66729" lon="1.63496">
        <ele>48.3</ele>
        <time>2020-06-22T13:54:42Z</time>
      </trkpt>
      <trkpt lat="50.66729" lon="1.63499">
        <ele>48.3</ele>
        <time>2020-06-22T13:54:43Z</time>
      </trkpt>
      <trkpt lat="50.66729" lon="1.635">
        <ele>47.9</ele>
        <time>2020-06-22T13:54:44Z</time>
      </trkpt>
      <trkpt lat="50.66729" lon="1.63501">
        <ele>47.9</ele>
        <time>2020-06-22T13:54:45Z</time>
      </trkpt>
      <trkpt lat="50.66729" lon="1.63502">
        <ele>47.9</ele>
        <time>2020-06-22T13:54:46Z</time>
      </trkpt>
      <trkpt lat="50.66729" lon="1.63503">
        <ele>47.9</ele>
        <time>2020-06-22T13:54:47Z</time>
      </trkpt>
      <trkpt lat="50.66729" lon="1.63503">
        <ele>47.6</ele>
        <time>2020-06-22T13:54:48Z</time>
      </trkpt>
      <trkpt lat="50.66729" lon="1.63504">
        <ele>47.6</ele>
        <time>2020-06-22T13:54:49Z</time>
      </trkpt>
      <trkpt lat="50.66729" lon="1.63505">
        <ele>47.6</ele>
        <time>2020-06-22T13:54:50Z</time>
      </trkpt>
      <trkpt lat="50.66729" lon="1.63505">
        <ele>47.6</ele>
        <time>2020-06-22T13:54:51Z</time>
      </trkpt>
      <trkpt lat="50.66729" lon="1.63506">
        <ele>47.6</ele>
        <time>2020-06-22T13:54:52Z</time>
      </trkpt>
      <trkpt lat="50.66729" lon="1.63507">
        <ele>47.6</ele>
        <time>2020-06-22T13:54:53Z</time>
      </trkpt>
      <trkpt lat="50.66729" lon="1.63507">
        <ele>47.6</ele>
        <time>2020-06-22T13:54:54Z</time>
      </trkpt>
      <trkpt lat="50.66729" lon="1.63508">
        <ele>47.2</ele>
        <time>2020-06-22T13:54:55Z</time>
      </trkpt>
      <trkpt lat="50.66729" lon="1.63509">
        <ele>47.2</ele>
        <time>2020-06-22T13:54:56Z</time>
      </trkpt>
      <trkpt lat="50.66729" lon="1.63507">
        <ele>47.6</ele>
        <time>2020-06-22T13:54:57Z</time>
      </trkpt>
      <trkpt lat="50.6673" lon="1.63508">
        <ele>47.2</ele>
        <time>2020-06-22T13:54:58Z</time>
      </trkpt>
      <trkpt lat="50.6673" lon="1.63508">
        <ele>47.2</ele>
        <time>2020-06-22T13:54:59Z</time>
      </trkpt>
      <trkpt lat="50.6673" lon="1.63509">
        <ele>47.2</ele>
        <time>2020-06-22T13:55:00Z</time>
      </trkpt>
      <trkpt lat="50.6673" lon="1.63509">
        <ele>47.2</ele>
        <time>2020-06-22T13:55:01Z</time>
      </trkpt>
      <trkpt lat="50.6673" lon="1.6351">
        <ele>47.2</ele>
        <time>2020-06-22T13:55:02Z</time>
      </trkpt>
      <trkpt lat="50.6673" lon="1.63509">
        <ele>47.2</ele>
        <time>2020-06-22T13:55:03Z</time>
      </trkpt>
      <trkpt lat="50.6673" lon="1.63509">
        <ele>47.2</ele>
        <time>2020-06-22T13:55:04Z</time>
      </trkpt>
      <trkpt lat="50.6673" lon="1.63509">
        <ele>47.2</ele>
        <time>2020-06-22T13:55:05Z</time>
      </trkpt>
      <trkpt lat="50.6673" lon="1.63508">
        <ele>47.2</ele>
        <time>2020-06-22T13:55:06Z</time>
      </trkpt>
      <trkpt lat="50.6673" lon="1.63508">
        <ele>47.2</ele>
        <time>2020-06-22T13:55:07Z</time>
      </trkpt>
      <trkpt lat="50.6673" lon="1.63509">
        <ele>47.2</ele>
        <time>2020-06-22T13:55:08Z</time>
      </trkpt>
      <trkpt lat="50.66731" lon="1.63509">
        <ele>47.2</ele>
        <time>2020-06-22T13:55:09Z</time>
      </trkpt>
      <trkpt lat="50.66731" lon="1.63509">
        <ele>47</ele>
        <time>2020-06-22T13:55:10Z</time>
      </trkpt>
      <trkpt lat="50.66732" lon="1.63507">
        <ele>47.4</ele>
        <time>2020-06-22T13:55:11Z</time>
      </trkpt>
      <trkpt lat="50.66732" lon="1.63507">
        <ele>47.4</ele>
        <time>2020-06-22T13:55:12Z</time>
      </trkpt>
      <trkpt lat="50.66732" lon="1.63506">
        <ele>47.4</ele>
        <time>2020-06-22T13:55:13Z</time>
      </trkpt>
      <trkpt lat="50.66733" lon="1.63506">
        <ele>47.4</ele>
        <time>2020-06-22T13:55:14Z</time>
      </trkpt>
      <trkpt lat="50.66733" lon="1.63505">
        <ele>47.4</ele>
        <time>2020-06-22T13:55:15Z</time>
      </trkpt>
      <trkpt lat="50.66732" lon="1.63503">
        <ele>47.4</ele>
        <time>2020-06-22T13:55:16Z</time>
      </trkpt>
      <trkpt lat="50.66732" lon="1.63503">
        <ele>47.7</ele>
        <time>2020-06-22T13:55:17Z</time>
      </trkpt>
      <trkpt lat="50.66732" lon="1.63503">
        <ele>47.4</ele>
        <time>2020-06-22T13:55:18Z</time>
      </trkpt>
      <trkpt lat="50.66732" lon="1.63504">
        <ele>47.4</ele>
        <time>2020-06-22T13:55:19Z</time>
      </trkpt>
      <trkpt lat="50.66732" lon="1.63503">
        <ele>47.7</ele>
        <time>2020-06-22T13:55:20Z</time>
      </trkpt>
      <trkpt lat="50.66732" lon="1.63503">
        <ele>47.7</ele>
        <time>2020-06-22T13:55:21Z</time>
      </trkpt>
      <trkpt lat="50.66732" lon="1.63503">
        <ele>47.4</ele>
        <time>2020-06-22T13:55:22Z</time>
      </trkpt>
      <trkpt lat="50.66732" lon="1.63504">
        <ele>47.4</ele>
        <time>2020-06-22T13:55:23Z</time>
      </trkpt>
      <trkpt lat="50.66732" lon="1.63504">
        <ele>47.4</ele>
        <time>2020-06-22T13:55:24Z</time>
      </trkpt>
      <trkpt lat="50.66732" lon="1.63503">
        <ele>47.4</ele>
        <time>2020-06-22T13:55:25Z</time>
      </trkpt>
      <trkpt lat="50.66732" lon="1.63501">
        <ele>47.7</ele>
        <time>2020-06-22T13:56:52Z</time>
      </trkpt>
      <trkpt lat="50.66732" lon="1.635">
        <ele>47.7</ele>
        <time>2020-06-22T13:56:53Z</time>
      </trkpt>
      <trkpt lat="50.66732" lon="1.635">
        <ele>47.7</ele>
        <time>2020-06-22T13:56:54Z</time>
      </trkpt>
      <trkpt lat="50.66733" lon="1.63501">
        <ele>47.7</ele>
        <time>2020-06-22T13:56:55Z</time>
      </trkpt>
      <trkpt lat="50.66733" lon="1.635">
        <ele>47.7</ele>
        <time>2020-06-22T13:56:56Z</time>
      </trkpt>
      <trkpt lat="50.66733" lon="1.63501">
        <ele>47.7</ele>
        <time>2020-06-22T13:56:57Z</time>
      </trkpt>
      <trkpt lat="50.66733" lon="1.63501">
        <ele>47.7</ele>
        <time>2020-06-22T13:56:58Z</time>
      </trkpt>
      <trkpt lat="50.66733" lon="1.63501">
        <ele>47.7</ele>
        <time>2020-06-22T13:56:59Z</time>
      </trkpt>
      <trkpt lat="50.66732" lon="1.63501">
        <ele>47.7</ele>
        <time>2020-06-22T13:57:00Z</time>
      </trkpt>
      <trkpt lat="50.66732" lon="1.63502">
        <ele>47.7</ele>
        <time>2020-06-22T13:57:01Z</time>
      </trkpt>
      <trkpt lat="50.66733" lon="1.635">
        <ele>47.7</ele>
        <time>2020-06-22T13:57:02Z</time>
      </trkpt>
      <trkpt lat="50.66734" lon="1.63499">
        <ele>47.9</ele>
        <time>2020-06-22T13:57:03Z</time>
      </trkpt>
      <trkpt lat="50.66735" lon="1.63498">
        <ele>47.9</ele>
        <time>2020-06-22T13:57:04Z</time>
      </trkpt>
      <trkpt lat="50.66735" lon="1.63497">
        <ele>47.9</ele>
        <time>2020-06-22T13:57:05Z</time>
      </trkpt>
      <trkpt lat="50.66736" lon="1.63496">
        <ele>47.9</ele>
        <time>2020-06-22T13:57:06Z</time>
      </trkpt>
      <trkpt lat="50.66737" lon="1.63496">
        <ele>47.7</ele>
        <time>2020-06-22T13:57:07Z</time>
      </trkpt>
      <trkpt lat="50.66737" lon="1.63497">
        <ele>47.7</ele>
        <time>2020-06-22T13:57:08Z</time>
      </trkpt>
      <trkpt lat="50.66737" lon="1.63497">
        <ele>47.7</ele>
        <time>2020-06-22T13:57:09Z</time>
      </trkpt>
      <trkpt lat="50.66737" lon="1.63499">
        <ele>47.3</ele>
        <time>2020-06-22T13:57:10Z</time>
      </trkpt>
      <trkpt lat="50.66738" lon="1.63499">
        <ele>47.3</ele>
        <time>2020-06-22T13:57:11Z</time>
      </trkpt>
      <trkpt lat="50.66738" lon="1.63499">
        <ele>47.3</ele>
        <time>2020-06-22T13:57:12Z</time>
      </trkpt>
      <trkpt lat="50.66738" lon="1.63499">
        <ele>47.3</ele>
        <time>2020-06-22T13:57:13Z</time>
      </trkpt>
      <trkpt lat="50.66738" lon="1.63499">
        <ele>47.3</ele>
        <time>2020-06-22T13:57:14Z</time>
      </trkpt>
      <trkpt lat="50.66738" lon="1.63499">
        <ele>47.3</ele>
        <time>2020-06-22T13:57:15Z</time>
      </trkpt>
      <trkpt lat="50.66738" lon="1.63499">
        <ele>47.3</ele>
        <time>2020-06-22T13:57:16Z</time>
      </trkpt>
      <trkpt lat="50.66738" lon="1.63498">
        <ele>47.7</ele>
        <time>2020-06-22T13:57:17Z</time>
      </trkpt>
      <trkpt lat="50.66739" lon="1.63498">
        <ele>47.7</ele>
        <time>2020-06-22T13:57:18Z</time>
      </trkpt>
      <trkpt lat="50.66739" lon="1.63499">
        <ele>47.7</ele>
        <time>2020-06-22T13:57:19Z</time>
      </trkpt>
      <trkpt lat="50.66739" lon="1.63499">
        <ele>47.3</ele>
        <time>2020-06-22T13:57:20Z</time>
      </trkpt>
      <trkpt lat="50.66739" lon="1.63499">
        <ele>47.4</ele>
        <time>2020-06-22T13:57:21Z</time>
      </trkpt>
      <trkpt lat="50.6674" lon="1.63499">
        <ele>47.1</ele>
        <time>2020-06-22T13:57:22Z</time>
      </trkpt>
      <trkpt lat="50.6674" lon="1.63499">
        <ele>47.1</ele>
        <time>2020-06-22T13:57:23Z</time>
      </trkpt>
      <trkpt lat="50.66741" lon="1.635">
        <ele>47.1</ele>
        <time>2020-06-22T13:57:24Z</time>
      </trkpt>
      <trkpt lat="50.6674" lon="1.635">
        <ele>47.1</ele>
        <time>2020-06-22T13:57:25Z</time>
      </trkpt>
      <trkpt lat="50.66742" lon="1.63501">
        <ele>46.8</ele>
        <time>2020-06-22T13:57:26Z</time>
      </trkpt>
      <trkpt lat="50.66742" lon="1.63501">
        <ele>46.8</ele>
        <time>2020-06-22T13:57:27Z</time>
      </trkpt>
      <trkpt lat="50.66742" lon="1.63501">
        <ele>46.8</ele>
        <time>2020-06-22T13:57:28Z</time>
      </trkpt>
      <trkpt lat="50.66742" lon="1.635">
        <ele>46.8</ele>
        <time>2020-06-22T13:57:29Z</time>
      </trkpt>
      <trkpt lat="50.66742" lon="1.635">
        <ele>46.8</ele>
        <time>2020-06-22T13:57:30Z</time>
      </trkpt>
      <trkpt lat="50.66742" lon="1.63499">
        <ele>46.8</ele>
        <time>2020-06-22T13:57:31Z</time>
      </trkpt>
      <trkpt lat="50.66742" lon="1.63499">
        <ele>46.8</ele>
        <time>2020-06-22T13:57:32Z</time>
      </trkpt>
      <trkpt lat="50.66744" lon="1.63498">
        <ele>47.2</ele>
        <time>2020-06-22T13:57:33Z</time>
      </trkpt>
      <trkpt lat="50.66745" lon="1.63496">
        <ele>46.9</ele>
        <time>2020-06-22T13:57:34Z</time>
      </trkpt>
      <trkpt lat="50.66745" lon="1.63497">
        <ele>46.9</ele>
        <time>2020-06-22T13:57:35Z</time>
      </trkpt>
      <trkpt lat="50.66745" lon="1.63497">
        <ele>46.9</ele>
        <time>2020-06-22T13:57:36Z</time>
      </trkpt>
      <trkpt lat="50.66745" lon="1.63497">
        <ele>46.9</ele>
        <time>2020-06-22T13:57:37Z</time>
      </trkpt>
      <trkpt lat="50.66745" lon="1.63497">
        <ele>46.9</ele>
        <time>2020-06-22T13:57:38Z</time>
      </trkpt>
      <trkpt lat="50.66745" lon="1.63497">
        <ele>46.9</ele>
        <time>2020-06-22T13:57:39Z</time>
      </trkpt>
      <trkpt lat="50.66745" lon="1.63497">
        <ele>46.9</ele>
        <time>2020-06-22T13:57:40Z</time>
      </trkpt>
      <trkpt lat="50.66746" lon="1.63497">
        <ele>46.9</ele>
        <time>2020-06-22T13:57:41Z</time>
      </trkpt>
      <trkpt lat="50.66746" lon="1.63498">
        <ele>46.9</ele>
        <time>2020-06-22T13:57:42Z</time>
      </trkpt>
      <trkpt lat="50.66747" lon="1.63498">
        <ele>46.9</ele>
        <time>2020-06-22T13:57:43Z</time>
      </trkpt>
      <trkpt lat="50.66747" lon="1.63499">
        <ele>46.9</ele>
        <time>2020-06-22T13:57:44Z</time>
      </trkpt>
      <trkpt lat="50.66747" lon="1.63499">
        <ele>46.9</ele>
        <time>2020-06-22T13:57:45Z</time>
      </trkpt>
      <trkpt lat="50.66744" lon="1.63489">
        <ele>47.6</ele>
        <time>2020-06-22T13:57:56Z</time>
      </trkpt>
      <trkpt lat="50.66744" lon="1.63489">
        <ele>47.6</ele>
        <time>2020-06-22T13:57:57Z</time>
      </trkpt>
      <trkpt lat="50.66745" lon="1.63488">
        <ele>47.6</ele>
        <time>2020-06-22T13:57:58Z</time>
      </trkpt>
      <trkpt lat="50.66745" lon="1.63489">
        <ele>47.6</ele>
        <time>2020-06-22T13:57:59Z</time>
      </trkpt>
      <trkpt lat="50.66745" lon="1.6349">
        <ele>47.6</ele>
        <time>2020-06-22T13:58:00Z</time>
      </trkpt>
      <trkpt lat="50.66745" lon="1.6349">
        <ele>47.3</ele>
        <time>2020-06-22T13:58:01Z</time>
      </trkpt>
      <trkpt lat="50.66744" lon="1.63489">
        <ele>47.9</ele>
        <time>2020-06-22T13:58:02Z</time>
      </trkpt>
      <trkpt lat="50.66744" lon="1.63489">
        <ele>47.9</ele>
        <time>2020-06-22T13:58:03Z</time>
      </trkpt>
      <trkpt lat="50.66744" lon="1.63488">
        <ele>47.9</ele>
        <time>2020-06-22T13:58:04Z</time>
      </trkpt>
      <trkpt lat="50.66743" lon="1.63488">
        <ele>47.9</ele>
        <time>2020-06-22T13:58:05Z</time>
      </trkpt>
      <trkpt lat="50.66744" lon="1.63487">
        <ele>47.9</ele>
        <time>2020-06-22T13:58:06Z</time>
      </trkpt>
      <trkpt lat="50.66744" lon="1.63486">
        <ele>48.3</ele>
        <time>2020-06-22T13:58:07Z</time>
      </trkpt>
      <trkpt lat="50.66744" lon="1.63485">
        <ele>48.3</ele>
        <time>2020-06-22T13:58:08Z</time>
      </trkpt>
      <trkpt lat="50.66744" lon="1.63485">
        <ele>48.3</ele>
        <time>2020-06-22T13:58:09Z</time>
      </trkpt>
      <trkpt lat="50.66744" lon="1.63486">
        <ele>47.9</ele>
        <time>2020-06-22T13:58:10Z</time>
      </trkpt>
      <trkpt lat="50.66744" lon="1.63486">
        <ele>47.9</ele>
        <time>2020-06-22T13:58:11Z</time>
      </trkpt>
      <trkpt lat="50.66744" lon="1.63486">
        <ele>47.9</ele>
        <time>2020-06-22T13:58:12Z</time>
      </trkpt>
      <trkpt lat="50.66744" lon="1.63486">
        <ele>47.9</ele>
        <time>2020-06-22T13:58:13Z</time>
      </trkpt>
      <trkpt lat="50.66744" lon="1.63486">
        <ele>47.9</ele>
        <time>2020-06-22T13:58:14Z</time>
      </trkpt>
      <trkpt lat="50.66744" lon="1.63486">
        <ele>47.9</ele>
        <time>2020-06-22T13:58:15Z</time>
      </trkpt>
      <trkpt lat="50.66744" lon="1.63485">
        <ele>48.3</ele>
        <time>2020-06-22T13:58:16Z</time>
      </trkpt>
      <trkpt lat="50.66744" lon="1.63484">
        <ele>48</ele>
        <time>2020-06-22T13:58:17Z</time>
      </trkpt>
      <trkpt lat="50.66745" lon="1.63483">
        <ele>48</ele>
        <time>2020-06-22T13:58:18Z</time>
      </trkpt>
      <trkpt lat="50.66745" lon="1.63484">
        <ele>48</ele>
        <time>2020-06-22T13:58:19Z</time>
      </trkpt>
      <trkpt lat="50.66745" lon="1.63485">
        <ele>48</ele>
        <time>2020-06-22T13:58:20Z</time>
      </trkpt>
      <trkpt lat="50.66745" lon="1.63485">
        <ele>48</ele>
        <time>2020-06-22T13:58:21Z</time>
      </trkpt>
      <trkpt lat="50.66745" lon="1.63485">
        <ele>48</ele>
        <time>2020-06-22T13:58:22Z</time>
      </trkpt>
      <trkpt lat="50.6675" lon="1.63482">
        <ele>48.1</ele>
        <time>2020-06-22T13:58:36Z</time>
      </trkpt>
      <trkpt lat="50.6675" lon="1.63481">
        <ele>47.8</ele>
        <time>2020-06-22T13:58:37Z</time>
      </trkpt>
      <trkpt lat="50.66751" lon="1.6348">
        <ele>47.8</ele>
        <time>2020-06-22T13:58:38Z</time>
      </trkpt>
      <trkpt lat="50.66752" lon="1.63479">
        <ele>47.8</ele>
        <time>2020-06-22T13:58:39Z</time>
      </trkpt>
      <trkpt lat="50.66752" lon="1.63477">
        <ele>48.2</ele>
        <time>2020-06-22T13:58:40Z</time>
      </trkpt>
      <trkpt lat="50.66753" lon="1.63475">
        <ele>47.9</ele>
        <time>2020-06-22T13:58:41Z</time>
      </trkpt>
      <trkpt lat="50.66753" lon="1.63474">
        <ele>47.9</ele>
        <time>2020-06-22T13:58:42Z</time>
      </trkpt>
      <trkpt lat="50.66754" lon="1.63471">
        <ele>48.3</ele>
        <time>2020-06-22T13:58:43Z</time>
      </trkpt>
      <trkpt lat="50.66754" lon="1.63469">
        <ele>48.3</ele>
        <time>2020-06-22T13:58:44Z</time>
      </trkpt>
      <trkpt lat="50.66754" lon="1.63468">
        <ele>48.8</ele>
        <time>2020-06-22T13:58:45Z</time>
      </trkpt>
      <trkpt lat="50.66754" lon="1.63467">
        <ele>48.8</ele>
        <time>2020-06-22T13:58:46Z</time>
      </trkpt>
      <trkpt lat="50.66754" lon="1.63468">
        <ele>48.8</ele>
        <time>2020-06-22T13:58:47Z</time>
      </trkpt>
      <trkpt lat="50.66754" lon="1.63468">
        <ele>48.8</ele>
        <time>2020-06-22T13:58:48Z</time>
      </trkpt>
      <trkpt lat="50.66755" lon="1.63464">
        <ele>48.9</ele>
        <time>2020-06-22T13:58:49Z</time>
      </trkpt>
      <trkpt lat="50.66756" lon="1.63461">
        <ele>48.9</ele>
        <time>2020-06-22T13:58:50Z</time>
      </trkpt>
      <trkpt lat="50.66757" lon="1.63459">
        <ele>49.4</ele>
        <time>2020-06-22T13:58:51Z</time>
      </trkpt>
      <trkpt lat="50.66756" lon="1.63457">
        <ele>49.4</ele>
        <time>2020-06-22T13:58:52Z</time>
      </trkpt>
      <trkpt lat="50.66756" lon="1.63456">
        <ele>49.4</ele>
        <time>2020-06-22T13:58:53Z</time>
      </trkpt>
      <trkpt lat="50.66756" lon="1.63456">
        <ele>49.8</ele>
        <time>2020-06-22T13:58:54Z</time>
      </trkpt>
      <trkpt lat="50.66756" lon="1.63455">
        <ele>49.8</ele>
        <time>2020-06-22T13:58:55Z</time>
      </trkpt>
      <trkpt lat="50.66756" lon="1.63454">
        <ele>49.8</ele>
        <time>2020-06-22T13:58:56Z</time>
      </trkpt>
      <trkpt lat="50.66756" lon="1.63453">
        <ele>49.8</ele>
        <time>2020-06-22T13:58:57Z</time>
      </trkpt>
      <trkpt lat="50.66757" lon="1.6345">
        <ele>50.3</ele>
        <time>2020-06-22T13:58:58Z</time>
      </trkpt>
      <trkpt lat="50.66757" lon="1.6345">
        <ele>50.3</ele>
        <time>2020-06-22T13:58:59Z</time>
      </trkpt>
      <trkpt lat="50.66757" lon="1.63451">
        <ele>50.3</ele>
        <time>2020-06-22T13:59:00Z</time>
      </trkpt>
      <trkpt lat="50.66757" lon="1.63453">
        <ele>49.8</ele>
        <time>2020-06-22T13:59:01Z</time>
      </trkpt>
      <trkpt lat="50.66756" lon="1.63452">
        <ele>49.8</ele>
        <time>2020-06-22T13:59:02Z</time>
      </trkpt>
      <trkpt lat="50.66756" lon="1.63452">
        <ele>49.8</ele>
        <time>2020-06-22T13:59:03Z</time>
      </trkpt>
      <trkpt lat="50.66756" lon="1.63452">
        <ele>49.8</ele>
        <time>2020-06-22T13:59:04Z</time>
      </trkpt>
      <trkpt lat="50.66756" lon="1.63451">
        <ele>50.3</ele>
        <time>2020-06-22T13:59:05Z</time>
      </trkpt>
      <trkpt lat="50.66755" lon="1.63449">
        <ele>50.6</ele>
        <time>2020-06-22T13:59:06Z</time>
      </trkpt>
      <trkpt lat="50.66754" lon="1.63451">
        <ele>50.6</ele>
        <time>2020-06-22T13:59:07Z</time>
      </trkpt>
      <trkpt lat="50.66754" lon="1.63453">
        <ele>50.1</ele>
        <time>2020-06-22T13:59:08Z</time>
      </trkpt>
      <trkpt lat="50.66754" lon="1.63454">
        <ele>50.1</ele>
        <time>2020-06-22T13:59:09Z</time>
      </trkpt>
      <trkpt lat="50.66754" lon="1.63454">
        <ele>50.1</ele>
        <time>2020-06-22T13:59:10Z</time>
      </trkpt>
      <trkpt lat="50.66754" lon="1.63455">
        <ele>50.1</ele>
        <time>2020-06-22T13:59:11Z</time>
      </trkpt>
      <trkpt lat="50.66753" lon="1.63457">
        <ele>49.7</ele>
        <time>2020-06-22T13:59:12Z</time>
      </trkpt>
      <trkpt lat="50.66753" lon="1.6346">
        <ele>49.7</ele>
        <time>2020-06-22T13:59:13Z</time>
      </trkpt>
      <trkpt lat="50.66752" lon="1.63461">
        <ele>49.5</ele>
        <time>2020-06-22T13:59:14Z</time>
      </trkpt>
      <trkpt lat="50.66751" lon="1.63462">
        <ele>49.5</ele>
        <time>2020-06-22T13:59:15Z</time>
      </trkpt>
      <trkpt lat="50.66751" lon="1.63464">
        <ele>49.5</ele>
        <time>2020-06-22T13:59:16Z</time>
      </trkpt>
      <trkpt lat="50.66751" lon="1.63464">
        <ele>49.5</ele>
        <time>2020-06-22T13:59:17Z</time>
      </trkpt>
      <trkpt lat="50.6675" lon="1.63466">
        <ele>49.3</ele>
        <time>2020-06-22T13:59:18Z</time>
      </trkpt>
      <trkpt lat="50.66749" lon="1.63467">
        <ele>49.3</ele>
        <time>2020-06-22T13:59:19Z</time>
      </trkpt>
      <trkpt lat="50.66748" lon="1.63468">
        <ele>49.3</ele>
        <time>2020-06-22T13:59:20Z</time>
      </trkpt>
      <trkpt lat="50.66748" lon="1.63469">
        <ele>49.3</ele>
        <time>2020-06-22T13:59:21Z</time>
      </trkpt>
      <trkpt lat="50.66747" lon="1.6347">
        <ele>49.2</ele>
        <time>2020-06-22T13:59:22Z</time>
      </trkpt>
      <trkpt lat="50.66746" lon="1.63472">
        <ele>49.2</ele>
        <time>2020-06-22T13:59:23Z</time>
      </trkpt>
      <trkpt lat="50.66745" lon="1.63473">
        <ele>48.8</ele>
        <time>2020-06-22T13:59:24Z</time>
      </trkpt>
      <trkpt lat="50.66743" lon="1.63475">
        <ele>49.1</ele>
        <time>2020-06-22T13:59:25Z</time>
      </trkpt>
      <trkpt lat="50.66743" lon="1.63477">
        <ele>49.1</ele>
        <time>2020-06-22T13:59:26Z</time>
      </trkpt>
      <trkpt lat="50.66742" lon="1.63478">
        <ele>48.7</ele>
        <time>2020-06-22T13:59:27Z</time>
      </trkpt>
      <trkpt lat="50.66741" lon="1.6348">
        <ele>49</ele>
        <time>2020-06-22T13:59:28Z</time>
      </trkpt>
      <trkpt lat="50.66741" lon="1.63482">
        <ele>48.6</ele>
        <time>2020-06-22T13:59:29Z</time>
      </trkpt>
      <trkpt lat="50.66741" lon="1.63483">
        <ele>48.6</ele>
        <time>2020-06-22T13:59:30Z</time>
      </trkpt>
      <trkpt lat="50.66741" lon="1.63485">
        <ele>48.6</ele>
        <time>2020-06-22T13:59:31Z</time>
      </trkpt>
      <trkpt lat="50.66741" lon="1.63486">
        <ele>48.6</ele>
        <time>2020-06-22T13:59:32Z</time>
      </trkpt>
      <trkpt lat="50.6674" lon="1.63488">
        <ele>48.2</ele>
        <time>2020-06-22T13:59:33Z</time>
      </trkpt>
      <trkpt lat="50.6674" lon="1.63491">
        <ele>47.8</ele>
        <time>2020-06-22T13:59:34Z</time>
      </trkpt>
      <trkpt lat="50.6674" lon="1.63492">
        <ele>47.8</ele>
        <time>2020-06-22T13:59:35Z</time>
      </trkpt>
      <trkpt lat="50.6674" lon="1.63493">
        <ele>47.8</ele>
        <time>2020-06-22T13:59:36Z</time>
      </trkpt>
      <trkpt lat="50.66741" lon="1.63492">
        <ele>47.8</ele>
        <time>2020-06-22T13:59:37Z</time>
      </trkpt>
      <trkpt lat="50.66741" lon="1.63491">
        <ele>47.8</ele>
        <time>2020-06-22T13:59:38Z</time>
      </trkpt>
      <trkpt lat="50.66741" lon="1.6349">
        <ele>48.2</ele>
        <time>2020-06-22T13:59:39Z</time>
      </trkpt>
      <trkpt lat="50.66742" lon="1.63489">
        <ele>47.9</ele>
        <time>2020-06-22T13:59:40Z</time>
      </trkpt>
      <trkpt lat="50.66742" lon="1.63489">
        <ele>48.2</ele>
        <time>2020-06-22T13:59:41Z</time>
      </trkpt>
      <trkpt lat="50.66741" lon="1.6349">
        <ele>48.2</ele>
        <time>2020-06-22T13:59:42Z</time>
      </trkpt>
      <trkpt lat="50.66741" lon="1.6349">
        <ele>48.2</ele>
        <time>2020-06-22T13:59:43Z</time>
      </trkpt>
      <trkpt lat="50.66741" lon="1.63491">
        <ele>47.8</ele>
        <time>2020-06-22T13:59:44Z</time>
      </trkpt>
      <trkpt lat="50.6674" lon="1.63492">
        <ele>47.8</ele>
        <time>2020-06-22T13:59:45Z</time>
      </trkpt>
      <trkpt lat="50.66739" lon="1.63492">
        <ele>47.8</ele>
        <time>2020-06-22T13:59:46Z</time>
      </trkpt>
      <trkpt lat="50.66739" lon="1.63493">
        <ele>47.8</ele>
        <time>2020-06-22T13:59:47Z</time>
      </trkpt>
      <trkpt lat="50.66739" lon="1.63495">
        <ele>47.4</ele>
        <time>2020-06-22T13:59:48Z</time>
      </trkpt>
      <trkpt lat="50.6674" lon="1.63495">
        <ele>47.4</ele>
        <time>2020-06-22T13:59:49Z</time>
      </trkpt>
      <trkpt lat="50.66739" lon="1.63496">
        <ele>47.4</ele>
        <time>2020-06-22T13:59:50Z</time>
      </trkpt>
      <trkpt lat="50.6674" lon="1.63495">
        <ele>47.4</ele>
        <time>2020-06-22T13:59:51Z</time>
      </trkpt>
      <trkpt lat="50.6674" lon="1.63494">
        <ele>47.8</ele>
        <time>2020-06-22T13:59:52Z</time>
      </trkpt>
      <trkpt lat="50.6674" lon="1.63494">
        <ele>47.8</ele>
        <time>2020-06-22T13:59:53Z</time>
      </trkpt>
      <trkpt lat="50.6674" lon="1.63495">
        <ele>47.4</ele>
        <time>2020-06-22T13:59:54Z</time>
      </trkpt>
      <trkpt lat="50.6674" lon="1.63496">
        <ele>47.4</ele>
        <time>2020-06-22T13:59:55Z</time>
      </trkpt>
      <trkpt lat="50.6674" lon="1.63499">
        <ele>47.4</ele>
        <time>2020-06-22T13:59:56Z</time>
      </trkpt>
      <trkpt lat="50.6674" lon="1.63498">
        <ele>47.4</ele>
        <time>2020-06-22T13:59:57Z</time>
      </trkpt>
      <trkpt lat="50.6674" lon="1.63498">
        <ele>47.4</ele>
        <time>2020-06-22T13:59:58Z</time>
      </trkpt>
      <trkpt lat="50.6674" lon="1.63499">
        <ele>47.1</ele>
        <time>2020-06-22T13:59:59Z</time>
      </trkpt>
      <trkpt lat="50.66741" lon="1.63501">
        <ele>47.1</ele>
        <time>2020-06-22T14:00:00Z</time>
      </trkpt>
      <trkpt lat="50.66741" lon="1.63503">
        <ele>47.1</ele>
        <time>2020-06-22T14:00:01Z</time>
      </trkpt>
      <trkpt lat="50.66742" lon="1.63504">
        <ele>46.5</ele>
        <time>2020-06-22T14:00:02Z</time>
      </trkpt>
      <trkpt lat="50.66743" lon="1.63505">
        <ele>46.5</ele>
        <time>2020-06-22T14:00:03Z</time>
      </trkpt>
      <trkpt lat="50.66744" lon="1.63507">
        <ele>46.5</ele>
        <time>2020-06-22T14:00:04Z</time>
      </trkpt>
      <trkpt lat="50.66745" lon="1.63508">
        <ele>46</ele>
        <time>2020-06-22T14:00:05Z</time>
      </trkpt>
      <trkpt lat="50.66747" lon="1.63507">
        <ele>46.3</ele>
        <time>2020-06-22T14:00:06Z</time>
      </trkpt>
      <trkpt lat="50.66748" lon="1.63508">
        <ele>45.8</ele>
        <time>2020-06-22T14:00:07Z</time>
      </trkpt>
      <trkpt lat="50.66749" lon="1.63509">
        <ele>45.8</ele>
        <time>2020-06-22T14:00:08Z</time>
      </trkpt>
      <trkpt lat="50.66749" lon="1.6351">
        <ele>45.8</ele>
        <time>2020-06-22T14:00:09Z</time>
      </trkpt>
      <trkpt lat="50.66749" lon="1.63509">
        <ele>45.8</ele>
        <time>2020-06-22T14:00:10Z</time>
      </trkpt>
      <trkpt lat="50.66749" lon="1.63509">
        <ele>45.8</ele>
        <time>2020-06-22T14:00:11Z</time>
      </trkpt>
      <trkpt lat="50.66749" lon="1.63509">
        <ele>45.8</ele>
        <time>2020-06-22T14:00:12Z</time>
      </trkpt>
      <trkpt lat="50.66748" lon="1.63509">
        <ele>45.8</ele>
        <time>2020-06-22T14:00:13Z</time>
      </trkpt>
      <trkpt lat="50.66749" lon="1.6351">
        <ele>45.8</ele>
        <time>2020-06-22T14:00:14Z</time>
      </trkpt>
      <trkpt lat="50.66752" lon="1.63511">
        <ele>45.5</ele>
        <time>2020-06-22T14:00:15Z</time>
      </trkpt>
      <trkpt lat="50.66755" lon="1.63512">
        <ele>45.3</ele>
        <time>2020-06-22T14:00:16Z</time>
      </trkpt>
      <trkpt lat="50.66755" lon="1.63513">
        <ele>44.9</ele>
        <time>2020-06-22T14:00:17Z</time>
      </trkpt>
      <trkpt lat="50.66758" lon="1.63513">
        <ele>44.9</ele>
        <time>2020-06-22T14:00:18Z</time>
      </trkpt>
      <trkpt lat="50.66758" lon="1.63514">
        <ele>44.7</ele>
        <time>2020-06-22T14:00:19Z</time>
      </trkpt>
      <trkpt lat="50.66759" lon="1.63516">
        <ele>44.7</ele>
        <time>2020-06-22T14:00:20Z</time>
      </trkpt>
      <trkpt lat="50.66759" lon="1.63516">
        <ele>44.7</ele>
        <time>2020-06-22T14:00:21Z</time>
      </trkpt>
      <trkpt lat="50.66759" lon="1.63517">
        <ele>44.5</ele>
        <time>2020-06-22T14:00:22Z</time>
      </trkpt>
      <trkpt lat="50.66759" lon="1.63517">
        <ele>44.5</ele>
        <time>2020-06-22T14:00:23Z</time>
      </trkpt>
      <trkpt lat="50.66758" lon="1.63517">
        <ele>44.5</ele>
        <time>2020-06-22T14:00:24Z</time>
      </trkpt>
      <trkpt lat="50.66758" lon="1.63517">
        <ele>44.5</ele>
        <time>2020-06-22T14:00:25Z</time>
      </trkpt>
      <trkpt lat="50.66758" lon="1.63516">
        <ele>44.7</ele>
        <time>2020-06-22T14:00:26Z</time>
      </trkpt>
      <trkpt lat="50.66758" lon="1.63517">
        <ele>44.7</ele>
        <time>2020-06-22T14:00:27Z</time>
      </trkpt>
      <trkpt lat="50.66757" lon="1.63517">
        <ele>44.7</ele>
        <time>2020-06-22T14:00:28Z</time>
      </trkpt>
      <trkpt lat="50.66756" lon="1.63517">
        <ele>44.7</ele>
        <time>2020-06-22T14:00:29Z</time>
      </trkpt>
      <trkpt lat="50.66756" lon="1.63516">
        <ele>44.9</ele>
        <time>2020-06-22T14:00:30Z</time>
      </trkpt>
      <trkpt lat="50.66756" lon="1.63516">
        <ele>44.9</ele>
        <time>2020-06-22T14:00:31Z</time>
      </trkpt>
      <trkpt lat="50.66755" lon="1.63515">
        <ele>45.1</ele>
        <time>2020-06-22T14:00:32Z</time>
      </trkpt>
      <trkpt lat="50.66755" lon="1.63515">
        <ele>45.1</ele>
        <time>2020-06-22T14:00:33Z</time>
      </trkpt>
      <trkpt lat="50.66755" lon="1.63524">
        <ele>44.8</ele>
        <time>2020-06-22T14:00:41Z</time>
      </trkpt>
      <trkpt lat="50.66755" lon="1.63526">
        <ele>44.7</ele>
        <time>2020-06-22T14:00:42Z</time>
      </trkpt>
      <trkpt lat="50.66755" lon="1.63528">
        <ele>44.7</ele>
        <time>2020-06-22T14:00:43Z</time>
      </trkpt>
      <trkpt lat="50.66756" lon="1.63531">
        <ele>44.4</ele>
        <time>2020-06-22T14:00:44Z</time>
      </trkpt>
      <trkpt lat="50.66756" lon="1.63531">
        <ele>44.4</ele>
        <time>2020-06-22T14:00:45Z</time>
      </trkpt>
      <trkpt lat="50.66756" lon="1.6353">
        <ele>44.4</ele>
        <time>2020-06-22T14:00:46Z</time>
      </trkpt>
      <trkpt lat="50.66756" lon="1.63531">
        <ele>44.4</ele>
        <time>2020-06-22T14:00:47Z</time>
      </trkpt>
      <trkpt lat="50.66756" lon="1.63531">
        <ele>44.4</ele>
        <time>2020-06-22T14:00:48Z</time>
      </trkpt>
      <trkpt lat="50.66756" lon="1.63531">
        <ele>44.4</ele>
        <time>2020-06-22T14:00:49Z</time>
      </trkpt>
      <trkpt lat="50.66757" lon="1.63533">
        <ele>44.4</ele>
        <time>2020-06-22T14:00:50Z</time>
      </trkpt>
      <trkpt lat="50.66756" lon="1.63534">
        <ele>44.3</ele>
        <time>2020-06-22T14:00:51Z</time>
      </trkpt>
      <trkpt lat="50.66756" lon="1.63534">
        <ele>44.3</ele>
        <time>2020-06-22T14:00:52Z</time>
      </trkpt>
      <trkpt lat="50.66757" lon="1.63534">
        <ele>44.3</ele>
        <time>2020-06-22T14:00:53Z</time>
      </trkpt>
      <trkpt lat="50.66757" lon="1.63535">
        <ele>44.3</ele>
        <time>2020-06-22T14:00:54Z</time>
      </trkpt>
      <trkpt lat="50.66778" lon="1.63565">
        <ele>43.5</ele>
        <time>2020-06-22T14:34:16Z</time>
      </trkpt>
      <trkpt lat="50.66778" lon="1.63567">
        <ele>43.5</ele>
        <time>2020-06-22T14:34:17Z</time>
      </trkpt>
      <trkpt lat="50.66778" lon="1.63568">
        <ele>43.6</ele>
        <time>2020-06-22T14:34:18Z</time>
      </trkpt>
      <trkpt lat="50.66778" lon="1.63569">
        <ele>43.6</ele>
        <time>2020-06-22T14:34:19Z</time>
      </trkpt>
      <trkpt lat="50.66778" lon="1.6357">
        <ele>43.6</ele>
        <time>2020-06-22T14:34:20Z</time>
      </trkpt>
      <trkpt lat="50.66778" lon="1.6357">
        <ele>43.6</ele>
        <time>2020-06-22T14:34:21Z</time>
      </trkpt>
      <trkpt lat="50.66778" lon="1.6357">
        <ele>43.6</ele>
        <time>2020-06-22T14:34:22Z</time>
      </trkpt>
      <trkpt lat="50.66778" lon="1.6357">
        <ele>43.6</ele>
        <time>2020-06-22T14:34:23Z</time>
      </trkpt>
      <trkpt lat="50.66778" lon="1.6357">
        <ele>43.6</ele>
        <time>2020-06-22T14:34:24Z</time>
      </trkpt>
      <trkpt lat="50.66778" lon="1.6357">
        <ele>43.6</ele>
        <time>2020-06-22T14:34:25Z</time>
      </trkpt>
      <trkpt lat="50.66778" lon="1.6357">
        <ele>43.6</ele>
        <time>2020-06-22T14:34:26Z</time>
      </trkpt>
      <trkpt lat="50.66778" lon="1.6357">
        <ele>43.6</ele>
        <time>2020-06-22T14:34:27Z</time>
      </trkpt>
      <trkpt lat="50.66778" lon="1.6357">
        <ele>43.6</ele>
        <time>2020-06-22T14:34:28Z</time>
      </trkpt>
      <trkpt lat="50.66778" lon="1.6357">
        <ele>43.6</ele>
        <time>2020-06-22T14:34:29Z</time>
      </trkpt>
      <trkpt lat="50.66778" lon="1.6357">
        <ele>43.6</ele>
        <time>2020-06-22T14:34:30Z</time>
      </trkpt>
      <trkpt lat="50.66778" lon="1.6357">
        <ele>43.6</ele>
        <time>2020-06-22T14:34:31Z</time>
      </trkpt>
      <trkpt lat="50.66782" lon="1.63568">
        <ele>43.5</ele>
        <time>2020-06-22T16:34:42Z</time>
      </trkpt>
      <trkpt lat="50.66782" lon="1.63569">
        <ele>43.5</ele>
        <time>2020-06-22T16:34:43Z</time>
      </trkpt>
      <trkpt lat="50.66783" lon="1.63569">
        <ele>43.4</ele>
        <time>2020-06-22T16:34:44Z</time>
      </trkpt>
      <trkpt lat="50.66782" lon="1.63569">
        <ele>43.5</ele>
        <time>2020-06-22T16:34:45Z</time>
      </trkpt>
      <trkpt lat="50.66782" lon="1.63569">
        <ele>43.5</ele>
        <time>2020-06-22T16:34:46Z</time>
      </trkpt>
      <trkpt lat="50.66783" lon="1.63569">
        <ele>43.4</ele>
        <time>2020-06-22T16:34:47Z</time>
      </trkpt>
      <trkpt lat="50.66783" lon="1.63569">
        <ele>43.4</ele>
        <time>2020-06-22T16:34:48Z</time>
      </trkpt>
      <trkpt lat="50.66784" lon="1.63568">
        <ele>43.4</ele>
        <time>2020-06-22T16:34:49Z</time>
      </trkpt>
      <trkpt lat="50.66785" lon="1.63566">
        <ele>43.3</ele>
        <time>2020-06-22T16:34:50Z</time>
      </trkpt>
      <trkpt lat="50.66786" lon="1.63566">
        <ele>43.2</ele>
        <time>2020-06-22T16:34:51Z</time>
      </trkpt>
      <trkpt lat="50.66786" lon="1.63566">
        <ele>43.2</ele>
        <time>2020-06-22T16:34:52Z</time>
      </trkpt>
      <trkpt lat="50.66785" lon="1.63566">
        <ele>43.3</ele>
        <time>2020-06-22T16:34:53Z</time>
      </trkpt>
      <trkpt lat="50.66785" lon="1.63564">
        <ele>43.3</ele>
        <time>2020-06-22T16:34:54Z</time>
      </trkpt>
      <trkpt lat="50.66785" lon="1.63564">
        <ele>43.3</ele>
        <time>2020-06-22T16:34:55Z</time>
      </trkpt>
      <trkpt lat="50.66785" lon="1.63563">
        <ele>43.3</ele>
        <time>2020-06-22T16:34:56Z</time>
      </trkpt>
      <trkpt lat="50.66785" lon="1.63563">
        <ele>43.2</ele>
        <time>2020-06-22T16:34:57Z</time>
      </trkpt>
      <trkpt lat="50.66786" lon="1.63563">
        <ele>43.2</ele>
        <time>2020-06-22T16:34:58Z</time>
      </trkpt>
      <trkpt lat="50.66787" lon="1.63562">
        <ele>43.1</ele>
        <time>2020-06-22T16:34:59Z</time>
      </trkpt>
      <trkpt lat="50.66787" lon="1.6356">
        <ele>43.1</ele>
        <time>2020-06-22T16:35:00Z</time>
      </trkpt>
      <trkpt lat="50.66788" lon="1.6356">
        <ele>43.1</ele>
        <time>2020-06-22T16:35:01Z</time>
      </trkpt>
      <trkpt lat="50.66788" lon="1.6356">
        <ele>43.1</ele>
        <time>2020-06-22T16:35:02Z</time>
      </trkpt>
      <trkpt lat="50.66789" lon="1.6356">
        <ele>43.1</ele>
        <time>2020-06-22T16:35:03Z</time>
      </trkpt>
      <trkpt lat="50.66789" lon="1.6356">
        <ele>43.1</ele>
        <time>2020-06-22T16:35:04Z</time>
      </trkpt>
      <trkpt lat="50.66789" lon="1.6356">
        <ele>43.1</ele>
        <time>2020-06-22T16:35:05Z</time>
      </trkpt>
      <trkpt lat="50.66789" lon="1.6356">
        <ele>43.1</ele>
        <time>2020-06-22T16:35:06Z</time>
      </trkpt>
      <trkpt lat="50.66789" lon="1.6356">
        <ele>43.1</ele>
        <time>2020-06-22T16:35:07Z</time>
      </trkpt>
      <trkpt lat="50.668" lon="1.63563">
        <ele>42.8</ele>
        <time>2020-06-22T16:59:59Z</time>
      </trkpt>
      <trkpt lat="50.668" lon="1.63563">
        <ele>42.8</ele>
        <time>2020-06-22T17:00:00Z</time>
      </trkpt>
      <trkpt lat="50.66799" lon="1.63563">
        <ele>42.8</ele>
        <time>2020-06-22T17:00:01Z</time>
      </trkpt>
      <trkpt lat="50.66799" lon="1.63563">
        <ele>42.8</ele>
        <time>2020-06-22T17:00:02Z</time>
      </trkpt>
      <trkpt lat="50.66799" lon="1.63563">
        <ele>42.8</ele>
        <time>2020-06-22T17:00:03Z</time>
      </trkpt>
      <trkpt lat="50.66799" lon="1.63563">
        <ele>42.8</ele>
        <time>2020-06-22T17:00:04Z</time>
      </trkpt>
      <trkpt lat="50.668" lon="1.63562">
        <ele>42.8</ele>
        <time>2020-06-22T17:00:05Z</time>
      </trkpt>
      <trkpt lat="50.66801" lon="1.63561">
        <ele>42.8</ele>
        <time>2020-06-22T17:00:06Z</time>
      </trkpt>
      <trkpt lat="50.66801" lon="1.6356">
        <ele>42.8</ele>
        <time>2020-06-22T17:00:07Z</time>
      </trkpt>
      <trkpt lat="50.66801" lon="1.63561">
        <ele>42.8</ele>
        <time>2020-06-22T17:00:08Z</time>
      </trkpt>
      <trkpt lat="50.66801" lon="1.63561">
        <ele>42.8</ele>
        <time>2020-06-22T17:00:09Z</time>
      </trkpt>
      <trkpt lat="50.668" lon="1.6356">
        <ele>42.8</ele>
        <time>2020-06-22T17:00:10Z</time>
      </trkpt>
      <trkpt lat="50.66801" lon="1.6356">
        <ele>42.8</ele>
        <time>2020-06-22T17:00:11Z</time>
      </trkpt>
      <trkpt lat="50.668" lon="1.6356">
        <ele>42.8</ele>
        <time>2020-06-22T17:00:12Z</time>
      </trkpt>
      <trkpt lat="50.668" lon="1.6356">
        <ele>42.8</ele>
        <time>2020-06-22T17:00:13Z</time>
      </trkpt>
      <trkpt lat="50.668" lon="1.63561">
        <ele>42.8</ele>
        <time>2020-06-22T17:00:14Z</time>
      </trkpt>
      <trkpt lat="50.66799" lon="1.63562">
        <ele>42.8</ele>
        <time>2020-06-22T17:00:15Z</time>
      </trkpt>
      <trkpt lat="50.66799" lon="1.63561">
        <ele>42.8</ele>
        <time>2020-06-22T17:00:16Z</time>
      </trkpt>
      <trkpt lat="50.66799" lon="1.63562">
        <ele>42.9</ele>
        <time>2020-06-22T17:00:17Z</time>
      </trkpt>
      <trkpt lat="50.66798" lon="1.63561">
        <ele>42.9</ele>
        <time>2020-06-22T17:00:18Z</time>
      </trkpt>
      <trkpt lat="50.66797" lon="1.63562">
        <ele>42.9</ele>
        <time>2020-06-22T17:00:19Z</time>
      </trkpt>
      <trkpt lat="50.66796" lon="1.63562">
        <ele>42.9</ele>
        <time>2020-06-22T17:00:20Z</time>
      </trkpt>
      <trkpt lat="50.66795" lon="1.63561">
        <ele>42.9</ele>
        <time>2020-06-22T17:00:21Z</time>
      </trkpt>
      <trkpt lat="50.66794" lon="1.63561">
        <ele>42.9</ele>
        <time>2020-06-22T17:00:22Z</time>
      </trkpt>
      <trkpt lat="50.66793" lon="1.63562">
        <ele>43</ele>
        <time>2020-06-22T17:00:23Z</time>
      </trkpt>
      <trkpt lat="50.66792" lon="1.6356">
        <ele>43</ele>
        <time>2020-06-22T17:00:24Z</time>
      </trkpt>
      <trkpt lat="50.66791" lon="1.6356">
        <ele>43</ele>
        <time>2020-06-22T17:00:25Z</time>
      </trkpt>
      <trkpt lat="50.66791" lon="1.6356">
        <ele>43.1</ele>
        <time>2020-06-22T17:00:26Z</time>
      </trkpt>
      <trkpt lat="50.6679" lon="1.63559">
        <ele>43.1</ele>
        <time>2020-06-22T17:00:27Z</time>
      </trkpt>
      <trkpt lat="50.6679" lon="1.63559">
        <ele>43</ele>
        <time>2020-06-22T17:00:28Z</time>
      </trkpt>
      <trkpt lat="50.6679" lon="1.63559">
        <ele>43</ele>
        <time>2020-06-22T17:00:29Z</time>
      </trkpt>
      <trkpt lat="50.66789" lon="1.63558">
        <ele>43</ele>
        <time>2020-06-22T17:00:30Z</time>
      </trkpt>
      <trkpt lat="50.66789" lon="1.63558">
        <ele>43</ele>
        <time>2020-06-22T17:00:31Z</time>
      </trkpt>
      <trkpt lat="50.66788" lon="1.63558">
        <ele>43</ele>
        <time>2020-06-22T17:00:32Z</time>
      </trkpt>
      <trkpt lat="50.66787" lon="1.63557">
        <ele>43.1</ele>
        <time>2020-06-22T17:00:33Z</time>
      </trkpt>
      <trkpt lat="50.66786" lon="1.63556">
        <ele>43.1</ele>
        <time>2020-06-22T17:00:34Z</time>
      </trkpt>
      <trkpt lat="50.66785" lon="1.63556">
        <ele>43.1</ele>
        <time>2020-06-22T17:00:35Z</time>
      </trkpt>
      <trkpt lat="50.66785" lon="1.63555">
        <ele>43.2</ele>
        <time>2020-06-22T17:00:36Z</time>
      </trkpt>
      <trkpt lat="50.66785" lon="1.63555">
        <ele>43.2</ele>
        <time>2020-06-22T17:00:37Z</time>
      </trkpt>
      <trkpt lat="50.66784" lon="1.63555">
        <ele>43.2</ele>
        <time>2020-06-22T17:00:38Z</time>
      </trkpt>
      <trkpt lat="50.66784" lon="1.63555">
        <ele>43.1</ele>
        <time>2020-06-22T17:00:39Z</time>
      </trkpt>
      <trkpt lat="50.66783" lon="1.63553">
        <ele>43.1</ele>
        <time>2020-06-22T17:00:40Z</time>
      </trkpt>
      <trkpt lat="50.66782" lon="1.63554">
        <ele>43.2</ele>
        <time>2020-06-22T17:00:41Z</time>
      </trkpt>
      <trkpt lat="50.66781" lon="1.63555">
        <ele>43.3</ele>
        <time>2020-06-22T17:00:42Z</time>
      </trkpt>
      <trkpt lat="50.66781" lon="1.63556">
        <ele>43.3</ele>
        <time>2020-06-22T17:00:43Z</time>
      </trkpt>
      <trkpt lat="50.6678" lon="1.63556">
        <ele>43.4</ele>
        <time>2020-06-22T17:00:44Z</time>
      </trkpt>
      <trkpt lat="50.66779" lon="1.63557">
        <ele>43.4</ele>
        <time>2020-06-22T17:00:45Z</time>
      </trkpt>
      <trkpt lat="50.66778" lon="1.63557">
        <ele>43.4</ele>
        <time>2020-06-22T17:00:46Z</time>
      </trkpt>
      <trkpt lat="50.66778" lon="1.63557">
        <ele>43.4</ele>
        <time>2020-06-22T17:00:47Z</time>
      </trkpt>
      <trkpt lat="50.66777" lon="1.63557">
        <ele>43.5</ele>
        <time>2020-06-22T17:00:48Z</time>
      </trkpt>
      <trkpt lat="50.66776" lon="1.63558">
        <ele>43.5</ele>
        <time>2020-06-22T17:00:49Z</time>
      </trkpt>
      <trkpt lat="50.66776" lon="1.63557">
        <ele>43.5</ele>
        <time>2020-06-22T17:00:50Z</time>
      </trkpt>
      <trkpt lat="50.66776" lon="1.63557">
        <ele>43.5</ele>
        <time>2020-06-22T17:00:51Z</time>
      </trkpt>
      <trkpt lat="50.66776" lon="1.63557">
        <ele>43.5</ele>
        <time>2020-06-22T17:00:52Z</time>
      </trkpt>
      <trkpt lat="50.66776" lon="1.63557">
        <ele>43.5</ele>
        <time>2020-06-22T17:00:53Z</time>
      </trkpt>
      <trkpt lat="50.66777" lon="1.63556">
        <ele>43.5</ele>
        <time>2020-06-22T17:00:54Z</time>
      </trkpt>
      <trkpt lat="50.66777" lon="1.63556">
        <ele>43.5</ele>
        <time>2020-06-22T17:00:55Z</time>
      </trkpt>
      <trkpt lat="50.66777" lon="1.63556">
        <ele>43.4</ele>
        <time>2020-06-22T17:00:56Z</time>
      </trkpt>
      <trkpt lat="50.66778" lon="1.63556">
        <ele>43.4</ele>
        <time>2020-06-22T17:00:57Z</time>
      </trkpt>
      <trkpt lat="50.66778" lon="1.63556">
        <ele>43.4</ele>
        <time>2020-06-22T17:00:58Z</time>
      </trkpt>
      <trkpt lat="50.66779" lon="1.63555">
        <ele>43.4</ele>
        <time>2020-06-22T17:00:59Z</time>
      </trkpt>
      <trkpt lat="50.66779" lon="1.63555">
        <ele>43.4</ele>
        <time>2020-06-22T17:01:00Z</time>
      </trkpt>
      <trkpt lat="50.66779" lon="1.63555">
        <ele>43.4</ele>
        <time>2020-06-22T17:01:01Z</time>
      </trkpt>
      <trkpt lat="50.66796" lon="1.63415">
        <ele>51.5</ele>
        <time>2020-06-22T17:20:11Z</time>
      </trkpt>
      <trkpt lat="50.66797" lon="1.63412">
        <ele>51.9</ele>
        <time>2020-06-22T17:20:12Z</time>
      </trkpt>
      <trkpt lat="50.66798" lon="1.63411">
        <ele>51.9</ele>
        <time>2020-06-22T17:20:13Z</time>
      </trkpt>
      <trkpt lat="50.66795" lon="1.63414">
        <ele>51.5</ele>
        <time>2020-06-22T17:20:14Z</time>
      </trkpt>
      <trkpt lat="50.66793" lon="1.63417">
        <ele>51.7</ele>
        <time>2020-06-22T17:20:15Z</time>
      </trkpt>
      <trkpt lat="50.66793" lon="1.63416">
        <ele>51.7</ele>
        <time>2020-06-22T17:20:16Z</time>
      </trkpt>
      <trkpt lat="50.66793" lon="1.63415">
        <ele>51.7</ele>
        <time>2020-06-22T17:20:17Z</time>
      </trkpt>
      <trkpt lat="50.66795" lon="1.63413">
        <ele>52.1</ele>
        <time>2020-06-22T17:20:18Z</time>
      </trkpt>
      <trkpt lat="50.66796" lon="1.63411">
        <ele>52.1</ele>
        <time>2020-06-22T17:20:19Z</time>
      </trkpt>
      <trkpt lat="50.66797" lon="1.6341">
        <ele>51.9</ele>
        <time>2020-06-22T17:20:20Z</time>
      </trkpt>
      <trkpt lat="50.66799" lon="1.63405">
        <ele>52.4</ele>
        <time>2020-06-22T17:20:21Z</time>
      </trkpt>
      <trkpt lat="50.668" lon="1.63403">
        <ele>53.1</ele>
        <time>2020-06-22T17:20:22Z</time>
      </trkpt>
      <trkpt lat="50.668" lon="1.63402">
        <ele>53.1</ele>
        <time>2020-06-22T17:20:23Z</time>
      </trkpt>
      <trkpt lat="50.668" lon="1.63401">
        <ele>53.1</ele>
        <time>2020-06-22T17:20:24Z</time>
      </trkpt>
      <trkpt lat="50.668" lon="1.63399">
        <ele>53.8</ele>
        <time>2020-06-22T17:20:25Z</time>
      </trkpt>
      <trkpt lat="50.66799" lon="1.63399">
        <ele>53.8</ele>
        <time>2020-06-22T17:20:26Z</time>
      </trkpt>
      <trkpt lat="50.668" lon="1.634">
        <ele>53.8</ele>
        <time>2020-06-22T17:20:27Z</time>
      </trkpt>
      <trkpt lat="50.66801" lon="1.63403">
        <ele>53.1</ele>
        <time>2020-06-22T17:20:28Z</time>
      </trkpt>
      <trkpt lat="50.66802" lon="1.63406">
        <ele>52.3</ele>
        <time>2020-06-22T17:20:29Z</time>
      </trkpt>
      <trkpt lat="50.66803" lon="1.63409">
        <ele>51.6</ele>
        <time>2020-06-22T17:20:30Z</time>
      </trkpt>
      <trkpt lat="50.66804" lon="1.63412">
        <ele>51.6</ele>
        <time>2020-06-22T17:20:31Z</time>
      </trkpt>
      <trkpt lat="50.66805" lon="1.63415">
        <ele>50.8</ele>
        <time>2020-06-22T17:20:32Z</time>
      </trkpt>
      <trkpt lat="50.66806" lon="1.63418">
        <ele>50.1</ele>
        <time>2020-06-22T17:20:33Z</time>
      </trkpt>
      <trkpt lat="50.66807" lon="1.63421">
        <ele>49.9</ele>
        <time>2020-06-22T17:20:34Z</time>
      </trkpt>
      <trkpt lat="50.66808" lon="1.63424">
        <ele>49.3</ele>
        <time>2020-06-22T17:20:35Z</time>
      </trkpt>
      <trkpt lat="50.66809" lon="1.63427">
        <ele>48.6</ele>
        <time>2020-06-22T17:20:36Z</time>
      </trkpt>
      <trkpt lat="50.66811" lon="1.6343">
        <ele>48.5</ele>
        <time>2020-06-22T17:20:37Z</time>
      </trkpt>
      <trkpt lat="50.66812" lon="1.63433">
        <ele>47.8</ele>
        <time>2020-06-22T17:21:00Z</time>
      </trkpt>
      <trkpt lat="50.66813" lon="1.63436">
        <ele>47.1</ele>
        <time>2020-06-22T17:21:01Z</time>
      </trkpt>
      <trkpt lat="50.66814" lon="1.63439">
        <ele>47.1</ele>
        <time>2020-06-22T17:21:02Z</time>
      </trkpt>
      <trkpt lat="50.66815" lon="1.63442">
        <ele>46.5</ele>
        <time>2020-06-22T17:21:03Z</time>
      </trkpt>
      <trkpt lat="50.66816" lon="1.63445">
        <ele>45.8</ele>
        <time>2020-06-22T17:21:04Z</time>
      </trkpt>
      <trkpt lat="50.66817" lon="1.63448">
        <ele>45.3</ele>
        <time>2020-06-22T17:21:05Z</time>
      </trkpt>
      <trkpt lat="50.66818" lon="1.63451">
        <ele>45.2</ele>
        <time>2020-06-22T17:21:06Z</time>
      </trkpt>
      <trkpt lat="50.66819" lon="1.63453">
        <ele>44.7</ele>
        <time>2020-06-22T17:21:07Z</time>
      </trkpt>
      <trkpt lat="50.6682" lon="1.63456">
        <ele>44.3</ele>
        <time>2020-06-22T17:21:08Z</time>
      </trkpt>
      <trkpt lat="50.66821" lon="1.63459">
        <ele>44.2</ele>
        <time>2020-06-22T17:21:09Z</time>
      </trkpt>
      <trkpt lat="50.66823" lon="1.63462">
        <ele>43.8</ele>
        <time>2020-06-22T17:21:10Z</time>
      </trkpt>
      <trkpt lat="50.66824" lon="1.63465">
        <ele>43.5</ele>
        <time>2020-06-22T17:21:11Z</time>
      </trkpt>
      <trkpt lat="50.66825" lon="1.63468">
        <ele>43.5</ele>
        <time>2020-06-22T17:32:28Z</time>
      </trkpt>
      <trkpt lat="50.66826" lon="1.63471">
        <ele>43.2</ele>
        <time>2020-06-22T17:32:29Z</time>
      </trkpt>
      <trkpt lat="50.66827" lon="1.63474">
        <ele>42.9</ele>
        <time>2020-06-22T17:32:30Z</time>
      </trkpt>
      <trkpt lat="50.66826" lon="1.63475">
        <ele>42.9</ele>
        <time>2020-06-22T17:32:31Z</time>
      </trkpt>
      <trkpt lat="50.66826" lon="1.63474">
        <ele>42.9</ele>
        <time>2020-06-22T17:32:32Z</time>
      </trkpt>
      <trkpt lat="50.66825" lon="1.63471">
        <ele>43.2</ele>
        <time>2020-06-22T17:32:33Z</time>
      </trkpt>
      <trkpt lat="50.66825" lon="1.6347">
        <ele>43.2</ele>
        <time>2020-06-22T17:32:34Z</time>
      </trkpt>
      <trkpt lat="50.66823" lon="1.6347">
        <ele>43.2</ele>
        <time>2020-06-22T17:32:35Z</time>
      </trkpt>
      <trkpt lat="50.66821" lon="1.63469">
        <ele>43.2</ele>
        <time>2020-06-22T17:32:36Z</time>
      </trkpt>
      <trkpt lat="50.6682" lon="1.63467">
        <ele>43.5</ele>
        <time>2020-06-22T17:32:37Z</time>
      </trkpt>
      <trkpt lat="50.66819" lon="1.63466">
        <ele>43.5</ele>
        <time>2020-06-22T17:32:38Z</time>
      </trkpt>
      <trkpt lat="50.66819" lon="1.63464">
        <ele>43.9</ele>
        <time>2020-06-22T17:32:39Z</time>
      </trkpt>
      <trkpt lat="50.66816" lon="1.63465">
        <ele>43.5</ele>
        <time>2020-06-22T17:32:40Z</time>
      </trkpt>
      <trkpt lat="50.66814" lon="1.63466">
        <ele>43.6</ele>
        <time>2020-06-22T17:32:41Z</time>
      </trkpt>
      <trkpt lat="50.66813" lon="1.63465">
        <ele>43.6</ele>
        <time>2020-06-22T17:32:42Z</time>
      </trkpt>
      <trkpt lat="50.66812" lon="1.63464">
        <ele>44.1</ele>
        <time>2020-06-22T17:32:43Z</time>
      </trkpt>
      <trkpt lat="50.66812" lon="1.63463">
        <ele>44.1</ele>
        <time>2020-06-22T17:32:44Z</time>
      </trkpt>
      <trkpt lat="50.66812" lon="1.63462">
        <ele>44.1</ele>
        <time>2020-06-22T17:32:45Z</time>
      </trkpt>
      <trkpt lat="50.66811" lon="1.63462">
        <ele>44.1</ele>
        <time>2020-06-22T17:32:46Z</time>
      </trkpt>
      <trkpt lat="50.66811" lon="1.63461">
        <ele>44.1</ele>
        <time>2020-06-22T17:32:47Z</time>
      </trkpt>
      <trkpt lat="50.66809" lon="1.63462">
        <ele>44.2</ele>
        <time>2020-06-22T17:32:48Z</time>
      </trkpt>
      <trkpt lat="50.66808" lon="1.63464">
        <ele>44.2</ele>
        <time>2020-06-22T17:32:49Z</time>
      </trkpt>
      <trkpt lat="50.66807" lon="1.63466">
        <ele>43.9</ele>
        <time>2020-06-22T17:32:50Z</time>
      </trkpt>
      <trkpt lat="50.66805" lon="1.63468">
        <ele>43.9</ele>
        <time>2020-06-22T17:32:51Z</time>
      </trkpt>
      <trkpt lat="50.66804" lon="1.63469">
        <ele>43.7</ele>
        <time>2020-06-22T17:32:52Z</time>
      </trkpt>
      <trkpt lat="50.66803" lon="1.63465">
        <ele>44.1</ele>
        <time>2020-06-22T17:32:53Z</time>
      </trkpt>
      <trkpt lat="50.66802" lon="1.63463">
        <ele>44.5</ele>
        <time>2020-06-22T17:32:54Z</time>
      </trkpt>
      <trkpt lat="50.66802" lon="1.63463">
        <ele>44.5</ele>
        <time>2020-06-22T17:32:55Z</time>
      </trkpt>
      <trkpt lat="50.66802" lon="1.63461">
        <ele>44.5</ele>
        <time>2020-06-22T17:32:56Z</time>
      </trkpt>
      <trkpt lat="50.66802" lon="1.6346">
        <ele>44.9</ele>
        <time>2020-06-22T17:32:57Z</time>
      </trkpt>
      <trkpt lat="50.66803" lon="1.63459">
        <ele>44.9</ele>
        <time>2020-06-22T17:32:58Z</time>
      </trkpt>
      <trkpt lat="50.66802" lon="1.63461">
        <ele>44.5</ele>
        <time>2020-06-22T17:32:59Z</time>
      </trkpt>
      <trkpt lat="50.66802" lon="1.63462">
        <ele>44.5</ele>
        <time>2020-06-22T17:33:00Z</time>
      </trkpt>
      <trkpt lat="50.66801" lon="1.63464">
        <ele>44.6</ele>
        <time>2020-06-22T17:33:01Z</time>
      </trkpt>
      <trkpt lat="50.66801" lon="1.63465">
        <ele>44.2</ele>
        <time>2020-06-22T17:33:02Z</time>
      </trkpt>
      <trkpt lat="50.668" lon="1.63467">
        <ele>44.2</ele>
        <time>2020-06-22T17:33:03Z</time>
      </trkpt>
      <trkpt lat="50.668" lon="1.63469">
        <ele>44.2</ele>
        <time>2020-06-22T17:33:04Z</time>
      </trkpt>
      <trkpt lat="50.66799" lon="1.6347">
        <ele>43.9</ele>
        <time>2020-06-22T17:33:05Z</time>
      </trkpt>
      <trkpt lat="50.66799" lon="1.63472">
        <ele>43.9</ele>
        <time>2020-06-22T17:33:06Z</time>
      </trkpt>
      <trkpt lat="50.66798" lon="1.63474">
        <ele>43.7</ele>
        <time>2020-06-22T17:33:07Z</time>
      </trkpt>
      <trkpt lat="50.66797" lon="1.63477">
        <ele>43.7</ele>
        <time>2020-06-22T17:33:08Z</time>
      </trkpt>
      <trkpt lat="50.66796" lon="1.63479">
        <ele>43.6</ele>
        <time>2020-06-22T17:33:09Z</time>
      </trkpt>
      <trkpt lat="50.66794" lon="1.63483">
        <ele>43.3</ele>
        <time>2020-06-22T17:33:10Z</time>
      </trkpt>
      <trkpt lat="50.66794" lon="1.63485">
        <ele>43.3</ele>
        <time>2020-06-22T17:33:11Z</time>
      </trkpt>
      <trkpt lat="50.66794" lon="1.63485">
        <ele>43.3</ele>
        <time>2020-06-22T17:33:12Z</time>
      </trkpt>
      <trkpt lat="50.66794" lon="1.63484">
        <ele>43.3</ele>
        <time>2020-06-22T17:33:13Z</time>
      </trkpt>
      <trkpt lat="50.66793" lon="1.63483">
        <ele>43.5</ele>
        <time>2020-06-22T17:33:14Z</time>
      </trkpt>
      <trkpt lat="50.66793" lon="1.63481">
        <ele>43.8</ele>
        <time>2020-06-22T17:33:15Z</time>
      </trkpt>
      <trkpt lat="50.66793" lon="1.63481">
        <ele>43.8</ele>
        <time>2020-06-22T17:33:16Z</time>
      </trkpt>
      <trkpt lat="50.66793" lon="1.6348">
        <ele>43.8</ele>
        <time>2020-06-22T17:33:17Z</time>
      </trkpt>
      <trkpt lat="50.66793" lon="1.63482">
        <ele>43.8</ele>
        <time>2020-06-22T17:33:18Z</time>
      </trkpt>
      <trkpt lat="50.66792" lon="1.63482">
        <ele>43.5</ele>
        <time>2020-06-22T17:33:19Z</time>
      </trkpt>
      <trkpt lat="50.66792" lon="1.63483">
        <ele>43.5</ele>
        <time>2020-06-22T17:33:20Z</time>
      </trkpt>
      <trkpt lat="50.66792" lon="1.63482">
        <ele>43.5</ele>
        <time>2020-06-22T17:33:21Z</time>
      </trkpt>
      <trkpt lat="50.66792" lon="1.63482">
        <ele>43.5</ele>
        <time>2020-06-22T17:33:22Z</time>
      </trkpt>
      <trkpt lat="50.66792" lon="1.63483">
        <ele>43.5</ele>
        <time>2020-06-22T17:33:23Z</time>
      </trkpt>
      <trkpt lat="50.66792" lon="1.63483">
        <ele>43.5</ele>
        <time>2020-06-22T17:33:24Z</time>
      </trkpt>
      <trkpt lat="50.66791" lon="1.63485">
        <ele>43.5</ele>
        <time>2020-06-22T17:33:25Z</time>
      </trkpt>
      <trkpt lat="50.6679" lon="1.6349">
        <ele>43.4</ele>
        <time>2020-06-22T17:33:26Z</time>
      </trkpt>
      <trkpt lat="50.6679" lon="1.63495">
        <ele>43.1</ele>
        <time>2020-06-22T17:33:27Z</time>
      </trkpt>
      <trkpt lat="50.66789" lon="1.63496">
        <ele>43.1</ele>
        <time>2020-06-22T17:33:28Z</time>
      </trkpt>
      <trkpt lat="50.66789" lon="1.63497">
        <ele>43.1</ele>
        <time>2020-06-22T17:33:29Z</time>
      </trkpt>
      <trkpt lat="50.6679" lon="1.63497">
        <ele>43.1</ele>
        <time>2020-06-22T17:33:30Z</time>
      </trkpt>
      <trkpt lat="50.6679" lon="1.63497">
        <ele>43.1</ele>
        <time>2020-06-22T17:33:31Z</time>
      </trkpt>
      <trkpt lat="50.6679" lon="1.63497">
        <ele>43.1</ele>
        <time>2020-06-22T17:33:32Z</time>
      </trkpt>
      <trkpt lat="50.6679" lon="1.63498">
        <ele>43.1</ele>
        <time>2020-06-22T17:33:33Z</time>
      </trkpt>
      <trkpt lat="50.66791" lon="1.63498">
        <ele>42.9</ele>
        <time>2020-06-22T17:33:34Z</time>
      </trkpt>
      <trkpt lat="50.66791" lon="1.63498">
        <ele>42.9</ele>
        <time>2020-06-22T17:33:35Z</time>
      </trkpt>
      <trkpt lat="50.66791" lon="1.63498">
        <ele>42.9</ele>
        <time>2020-06-22T17:33:36Z</time>
      </trkpt>
      <trkpt lat="50.66791" lon="1.63499">
        <ele>42.9</ele>
        <time>2020-06-22T17:33:37Z</time>
      </trkpt>
      <trkpt lat="50.66792" lon="1.63499">
        <ele>42.9</ele>
        <time>2020-06-22T17:33:38Z</time>
      </trkpt>
      <trkpt lat="50.66792" lon="1.63499">
        <ele>42.8</ele>
        <time>2020-06-22T17:33:39Z</time>
      </trkpt>
      <trkpt lat="50.66792" lon="1.63499">
        <ele>42.8</ele>
        <time>2020-06-22T17:33:40Z</time>
      </trkpt>
      <trkpt lat="50.66793" lon="1.63499">
        <ele>42.8</ele>
        <time>2020-06-22T17:33:41Z</time>
      </trkpt>
      <trkpt lat="50.66793" lon="1.635">
        <ele>42.8</ele>
        <time>2020-06-22T17:33:42Z</time>
      </trkpt>
      <trkpt lat="50.66793" lon="1.635">
        <ele>42.8</ele>
        <time>2020-06-22T17:33:43Z</time>
      </trkpt>
      <trkpt lat="50.66794" lon="1.63499">
        <ele>42.6</ele>
        <time>2020-06-22T17:33:44Z</time>
      </trkpt>
      <trkpt lat="50.66795" lon="1.63499">
        <ele>42.8</ele>
        <time>2020-06-22T17:33:45Z</time>
      </trkpt>
      <trkpt lat="50.66782" lon="1.63523">
        <ele>43</ele>
        <time>2020-06-22T17:39:58Z</time>
      </trkpt>
      <trkpt lat="50.66791" lon="1.63524">
        <ele>43</ele>
        <time>2020-06-22T17:39:59Z</time>
      </trkpt>
      <trkpt lat="50.66789" lon="1.63522">
        <ele>43</ele>
        <time>2020-06-22T17:40:00Z</time>
      </trkpt>
      <trkpt lat="50.66793" lon="1.63522">
        <ele>43</ele>
        <time>2020-06-22T17:40:01Z</time>
      </trkpt>
      <trkpt lat="50.66794" lon="1.63527">
        <ele>43</ele>
        <time>2020-06-22T17:40:02Z</time>
      </trkpt>
      <trkpt lat="50.66792" lon="1.63522">
        <ele>43</ele>
        <time>2020-06-22T17:40:03Z</time>
      </trkpt>
      <trkpt lat="50.66791" lon="1.63522">
        <ele>43.1</ele>
        <time>2020-06-22T17:40:05Z</time>
      </trkpt>
      <trkpt lat="50.6679" lon="1.63519">
        <ele>43.1</ele>
        <time>2020-06-22T17:40:06Z</time>
      </trkpt>
      <trkpt lat="50.66789" lon="1.63516">
        <ele>43.1</ele>
        <time>2020-06-22T17:40:07Z</time>
      </trkpt>
      <trkpt lat="50.66789" lon="1.63515">
        <ele>43.1</ele>
        <time>2020-06-22T17:40:08Z</time>
      </trkpt>
      <trkpt lat="50.66789" lon="1.63516">
        <ele>43.1</ele>
        <time>2020-06-22T17:40:09Z</time>
      </trkpt>
      <trkpt lat="50.66788" lon="1.63516">
        <ele>43.1</ele>
        <time>2020-06-22T17:40:10Z</time>
      </trkpt>
      <trkpt lat="50.66788" lon="1.63516">
        <ele>43.1</ele>
        <time>2020-06-22T17:40:11Z</time>
      </trkpt>
      <trkpt lat="50.66788" lon="1.63517">
        <ele>43.1</ele>
        <time>2020-06-22T17:40:12Z</time>
      </trkpt>
      <trkpt lat="50.66787" lon="1.63518">
        <ele>43.1</ele>
        <time>2020-06-22T17:40:13Z</time>
      </trkpt>
      <trkpt lat="50.66787" lon="1.63518">
        <ele>43.1</ele>
        <time>2020-06-22T17:40:14Z</time>
      </trkpt>
      <trkpt lat="50.66802" lon="1.63526">
        <ele>43.3</ele>
        <time>2020-06-22T17:46:55Z</time>
      </trkpt>
      <trkpt lat="50.66803" lon="1.63525">
        <ele>43.4</ele>
        <time>2020-06-22T17:46:56Z</time>
      </trkpt>
      <trkpt lat="50.66804" lon="1.63525">
        <ele>43.4</ele>
        <time>2020-06-22T17:46:57Z</time>
      </trkpt>
      <trkpt lat="50.66805" lon="1.63524">
        <ele>43.4</ele>
        <time>2020-06-22T17:46:58Z</time>
      </trkpt>
      <trkpt lat="50.66806" lon="1.63523">
        <ele>43.4</ele>
        <time>2020-06-22T17:46:59Z</time>
      </trkpt>
      <trkpt lat="50.66806" lon="1.63523">
        <ele>43.4</ele>
        <time>2020-06-22T17:47:00Z</time>
      </trkpt>
      <trkpt lat="50.66807" lon="1.63523">
        <ele>43.4</ele>
        <time>2020-06-22T17:47:01Z</time>
      </trkpt>
      <trkpt lat="50.66808" lon="1.63522">
        <ele>43.4</ele>
        <time>2020-06-22T17:47:02Z</time>
      </trkpt>
      <trkpt lat="50.66808" lon="1.63522">
        <ele>43.4</ele>
        <time>2020-06-22T17:47:03Z</time>
      </trkpt>
      <trkpt lat="50.66809" lon="1.63522">
        <ele>43.4</ele>
        <time>2020-06-22T17:47:04Z</time>
      </trkpt>
      <trkpt lat="50.66809" lon="1.63521">
        <ele>43.5</ele>
        <time>2020-06-22T17:47:05Z</time>
      </trkpt>
      <trkpt lat="50.6681" lon="1.63521">
        <ele>43.5</ele>
        <time>2020-06-22T17:47:06Z</time>
      </trkpt>
      <trkpt lat="50.66811" lon="1.63521">
        <ele>43.5</ele>
        <time>2020-06-22T17:47:07Z</time>
      </trkpt>
      <trkpt lat="50.66811" lon="1.63521">
        <ele>43.5</ele>
        <time>2020-06-22T17:47:23Z</time>
      </trkpt>
      <trkpt lat="50.66812" lon="1.6352">
        <ele>43.5</ele>
        <time>2020-06-22T17:47:24Z</time>
      </trkpt>
      <trkpt lat="50.66813" lon="1.63518">
        <ele>43.5</ele>
        <time>2020-06-22T17:47:25Z</time>
      </trkpt>
      <trkpt lat="50.66814" lon="1.63517">
        <ele>43.5</ele>
        <time>2020-06-22T17:47:26Z</time>
      </trkpt>
      <trkpt lat="50.66815" lon="1.63515">
        <ele>43.6</ele>
        <time>2020-06-22T17:47:27Z</time>
      </trkpt>
      <trkpt lat="50.66816" lon="1.63514">
        <ele>43.6</ele>
        <time>2020-06-22T17:47:28Z</time>
      </trkpt>
      <trkpt lat="50.66819" lon="1.63516">
        <ele>43.7</ele>
        <time>2020-06-22T17:47:29Z</time>
      </trkpt>
      <trkpt lat="50.6682" lon="1.63517">
        <ele>43.7</ele>
        <time>2020-06-22T17:47:30Z</time>
      </trkpt>
      <trkpt lat="50.66823" lon="1.63519">
        <ele>43.7</ele>
        <time>2020-06-22T17:47:31Z</time>
      </trkpt>
      <trkpt lat="50.66824" lon="1.63519">
        <ele>43.7</ele>
        <time>2020-06-22T17:47:32Z</time>
      </trkpt>
      <trkpt lat="50.66827" lon="1.6352">
        <ele>43.8</ele>
        <time>2020-06-22T17:47:33Z</time>
      </trkpt>
      <trkpt lat="50.66831" lon="1.6352">
        <ele>43.9</ele>
        <time>2020-06-22T17:47:34Z</time>
      </trkpt>
      <trkpt lat="50.66834" lon="1.63521">
        <ele>43.9</ele>
        <time>2020-06-22T17:47:35Z</time>
      </trkpt>
      <trkpt lat="50.66838" lon="1.63522">
        <ele>44</ele>
        <time>2020-06-22T17:47:36Z</time>
      </trkpt>
      <trkpt lat="50.66843" lon="1.63523">
        <ele>44.1</ele>
        <time>2020-06-22T17:47:37Z</time>
      </trkpt>
      <trkpt lat="50.66848" lon="1.63524">
        <ele>44.2</ele>
        <time>2020-06-22T17:47:38Z</time>
      </trkpt>
      <trkpt lat="50.66851" lon="1.63525">
        <ele>44.2</ele>
        <time>2020-06-22T17:47:39Z</time>
      </trkpt>
      <trkpt lat="50.66856" lon="1.63525">
        <ele>44.3</ele>
        <time>2020-06-22T17:47:40Z</time>
      </trkpt>
      <trkpt lat="50.6686" lon="1.63526">
        <ele>44.4</ele>
        <time>2020-06-22T17:47:41Z</time>
      </trkpt>
      <trkpt lat="50.66865" lon="1.63526">
        <ele>44.5</ele>
        <time>2020-06-22T17:47:42Z</time>
      </trkpt>
      <trkpt lat="50.6687" lon="1.63526">
        <ele>44.6</ele>
        <time>2020-06-22T17:47:43Z</time>
      </trkpt>
      <trkpt lat="50.66874" lon="1.63526">
        <ele>44.7</ele>
        <time>2020-06-22T17:47:44Z</time>
      </trkpt>
      <trkpt lat="50.66879" lon="1.63527">
        <ele>44.8</ele>
        <time>2020-06-22T17:47:45Z</time>
      </trkpt>
      <trkpt lat="50.66884" lon="1.63527">
        <ele>44.9</ele>
        <time>2020-06-22T17:47:46Z</time>
      </trkpt>
      <trkpt lat="50.66887" lon="1.63529">
        <ele>45</ele>
        <time>2020-06-22T17:47:47Z</time>
      </trkpt>
      <trkpt lat="50.66892" lon="1.63531">
        <ele>45</ele>
        <time>2020-06-22T17:47:48Z</time>
      </trkpt>
      <trkpt lat="50.66896" lon="1.63533">
        <ele>45.1</ele>
        <time>2020-06-22T17:47:49Z</time>
      </trkpt>
      <trkpt lat="50.66901" lon="1.63534">
        <ele>45.1</ele>
        <time>2020-06-22T17:47:50Z</time>
      </trkpt>
      <trkpt lat="50.66905" lon="1.63535">
        <ele>45.1</ele>
        <time>2020-06-22T17:47:51Z</time>
      </trkpt>
      <trkpt lat="50.6691" lon="1.63537">
        <ele>45.1</ele>
        <time>2020-06-22T17:47:52Z</time>
      </trkpt>
      <trkpt lat="50.66914" lon="1.63539">
        <ele>45.1</ele>
        <time>2020-06-22T17:47:53Z</time>
      </trkpt>
      <trkpt lat="50.6692" lon="1.63541">
        <ele>45.1</ele>
        <time>2020-06-22T17:47:54Z</time>
      </trkpt>
      <trkpt lat="50.66925" lon="1.63542">
        <ele>45.1</ele>
        <time>2020-06-22T17:47:55Z</time>
      </trkpt>
      <trkpt lat="50.66929" lon="1.63544">
        <ele>45.1</ele>
        <time>2020-06-22T17:47:56Z</time>
      </trkpt>
      <trkpt lat="50.66935" lon="1.63544">
        <ele>45.1</ele>
        <time>2020-06-22T17:47:57Z</time>
      </trkpt>
      <trkpt lat="50.66941" lon="1.63546">
        <ele>45.1</ele>
        <time>2020-06-22T17:47:58Z</time>
      </trkpt>
      <trkpt lat="50.66946" lon="1.63548">
        <ele>45</ele>
        <time>2020-06-22T17:47:59Z</time>
      </trkpt>
      <trkpt lat="50.66951" lon="1.63549">
        <ele>45</ele>
        <time>2020-06-22T17:48:00Z</time>
      </trkpt>
      <trkpt lat="50.66957" lon="1.63551">
        <ele>45</ele>
        <time>2020-06-22T17:48:01Z</time>
      </trkpt>
      <trkpt lat="50.66962" lon="1.63552">
        <ele>44.9</ele>
        <time>2020-06-22T17:48:02Z</time>
      </trkpt>
      <trkpt lat="50.66966" lon="1.63554">
        <ele>44.9</ele>
        <time>2020-06-22T17:48:03Z</time>
      </trkpt>
      <trkpt lat="50.66971" lon="1.63556">
        <ele>44.8</ele>
        <time>2020-06-22T17:48:04Z</time>
      </trkpt>
      <trkpt lat="50.66975" lon="1.63556">
        <ele>44.7</ele>
        <time>2020-06-22T17:48:05Z</time>
      </trkpt>
      <trkpt lat="50.66979" lon="1.63558">
        <ele>44.7</ele>
        <time>2020-06-22T17:48:06Z</time>
      </trkpt>
      <trkpt lat="50.66984" lon="1.6356">
        <ele>44.6</ele>
        <time>2020-06-22T17:48:07Z</time>
      </trkpt>
      <trkpt lat="50.66988" lon="1.63563">
        <ele>44.6</ele>
        <time>2020-06-22T17:48:08Z</time>
      </trkpt>
      <trkpt lat="50.66992" lon="1.63565">
        <ele>44.5</ele>
        <time>2020-06-22T17:48:09Z</time>
      </trkpt>
      <trkpt lat="50.66996" lon="1.63569">
        <ele>44.4</ele>
        <time>2020-06-22T17:48:10Z</time>
      </trkpt>
      <trkpt lat="50.67001" lon="1.63572">
        <ele>44.3</ele>
        <time>2020-06-22T17:48:11Z</time>
      </trkpt>
      <trkpt lat="50.67006" lon="1.63575">
        <ele>44.2</ele>
        <time>2020-06-22T17:48:12Z</time>
      </trkpt>
      <trkpt lat="50.67011" lon="1.63577">
        <ele>44.1</ele>
        <time>2020-06-22T17:48:13Z</time>
      </trkpt>
      <trkpt lat="50.67016" lon="1.63582">
        <ele>44</ele>
        <time>2020-06-22T17:48:14Z</time>
      </trkpt>
      <trkpt lat="50.67021" lon="1.63585">
        <ele>43.8</ele>
        <time>2020-06-22T17:48:15Z</time>
      </trkpt>
      <trkpt lat="50.67026" lon="1.63589">
        <ele>43.7</ele>
        <time>2020-06-22T17:48:16Z</time>
      </trkpt>
      <trkpt lat="50.67031" lon="1.63593">
        <ele>43.5</ele>
        <time>2020-06-22T17:48:17Z</time>
      </trkpt>
      <trkpt lat="50.67036" lon="1.63597">
        <ele>43.4</ele>
        <time>2020-06-22T17:48:18Z</time>
      </trkpt>
      <trkpt lat="50.67042" lon="1.636">
        <ele>43.2</ele>
        <time>2020-06-22T17:48:19Z</time>
      </trkpt>
      <trkpt lat="50.67048" lon="1.63604">
        <ele>43</ele>
        <time>2020-06-22T17:48:20Z</time>
      </trkpt>
      <trkpt lat="50.67053" lon="1.63607">
        <ele>42.9</ele>
        <time>2020-06-22T17:48:21Z</time>
      </trkpt>
      <trkpt lat="50.67059" lon="1.6361">
        <ele>42.7</ele>
        <time>2020-06-22T17:48:22Z</time>
      </trkpt>
      <trkpt lat="50.67065" lon="1.63614">
        <ele>42.4</ele>
        <time>2020-06-22T17:48:23Z</time>
      </trkpt>
      <trkpt lat="50.67071" lon="1.63617">
        <ele>42.2</ele>
        <time>2020-06-22T17:48:24Z</time>
      </trkpt>
      <trkpt lat="50.67077" lon="1.6362">
        <ele>42</ele>
        <time>2020-06-22T17:48:25Z</time>
      </trkpt>
      <trkpt lat="50.67084" lon="1.63622">
        <ele>41.7</ele>
        <time>2020-06-22T17:48:26Z</time>
      </trkpt>
      <trkpt lat="50.67091" lon="1.63624">
        <ele>41.5</ele>
        <time>2020-06-22T17:48:27Z</time>
      </trkpt>
      <trkpt lat="50.67098" lon="1.63627">
        <ele>41.3</ele>
        <time>2020-06-22T17:48:28Z</time>
      </trkpt>
      <trkpt lat="50.67103" lon="1.63629">
        <ele>41.1</ele>
        <time>2020-06-22T17:48:29Z</time>
      </trkpt>
      <trkpt lat="50.6711" lon="1.63631">
        <ele>40.8</ele>
        <time>2020-06-22T17:48:30Z</time>
      </trkpt>
      <trkpt lat="50.67115" lon="1.63633">
        <ele>40.6</ele>
        <time>2020-06-22T17:48:31Z</time>
      </trkpt>
      <trkpt lat="50.67122" lon="1.63636">
        <ele>40.2</ele>
        <time>2020-06-22T17:48:32Z</time>
      </trkpt>
      <trkpt lat="50.67129" lon="1.63639">
        <ele>39.9</ele>
        <time>2020-06-22T17:48:33Z</time>
      </trkpt>
      <trkpt lat="50.67135" lon="1.63641">
        <ele>39.6</ele>
        <time>2020-06-22T17:48:34Z</time>
      </trkpt>
      <trkpt lat="50.67142" lon="1.63643">
        <ele>39.4</ele>
        <time>2020-06-22T17:48:35Z</time>
      </trkpt>
      <trkpt lat="50.6715" lon="1.63645">
        <ele>39.1</ele>
        <time>2020-06-22T17:48:36Z</time>
      </trkpt>
      <trkpt lat="50.67158" lon="1.63649">
        <ele>38.8</ele>
        <time>2020-06-22T17:48:37Z</time>
      </trkpt>
      <trkpt lat="50.67166" lon="1.6365">
        <ele>38.6</ele>
        <time>2020-06-22T17:48:38Z</time>
      </trkpt>
      <trkpt lat="50.67174" lon="1.63653">
        <ele>38.3</ele>
        <time>2020-06-22T17:48:39Z</time>
      </trkpt>
      <trkpt lat="50.67182" lon="1.63655">
        <ele>38.1</ele>
        <time>2020-06-22T17:48:40Z</time>
      </trkpt>
      <trkpt lat="50.67189" lon="1.63658">
        <ele>37.9</ele>
        <time>2020-06-22T17:48:41Z</time>
      </trkpt>
      <trkpt lat="50.67196" lon="1.63659">
        <ele>37.8</ele>
        <time>2020-06-22T17:48:42Z</time>
      </trkpt>
      <trkpt lat="50.67203" lon="1.63661">
        <ele>37.6</ele>
        <time>2020-06-22T17:48:43Z</time>
      </trkpt>
      <trkpt lat="50.67211" lon="1.63663">
        <ele>37.5</ele>
        <time>2020-06-22T17:48:44Z</time>
      </trkpt>
      <trkpt lat="50.67219" lon="1.63666">
        <ele>37.3</ele>
        <time>2020-06-22T17:48:45Z</time>
      </trkpt>
      <trkpt lat="50.67226" lon="1.63668">
        <ele>37.1</ele>
        <time>2020-06-22T17:48:46Z</time>
      </trkpt>
      <trkpt lat="50.67233" lon="1.63671">
        <ele>37</ele>
        <time>2020-06-22T17:48:47Z</time>
      </trkpt>
      <trkpt lat="50.67241" lon="1.63674">
        <ele>36.7</ele>
        <time>2020-06-22T17:48:48Z</time>
      </trkpt>
      <trkpt lat="50.67248" lon="1.63677">
        <ele>36.5</ele>
        <time>2020-06-22T17:48:49Z</time>
      </trkpt>
      <trkpt lat="50.67255" lon="1.63679">
        <ele>36.3</ele>
        <time>2020-06-22T17:48:50Z</time>
      </trkpt>
      <trkpt lat="50.67263" lon="1.63682">
        <ele>36.1</ele>
        <time>2020-06-22T17:48:51Z</time>
      </trkpt>
      <trkpt lat="50.6727" lon="1.63682">
        <ele>35.9</ele>
        <time>2020-06-22T17:48:52Z</time>
      </trkpt>
      <trkpt lat="50.67277" lon="1.63685">
        <ele>35.6</ele>
        <time>2020-06-22T17:48:53Z</time>
      </trkpt>
      <trkpt lat="50.67285" lon="1.63689">
        <ele>35.3</ele>
        <time>2020-06-22T17:48:54Z</time>
      </trkpt>
      <trkpt lat="50.67292" lon="1.63691">
        <ele>35</ele>
        <time>2020-06-22T17:48:55Z</time>
      </trkpt>
      <trkpt lat="50.67299" lon="1.63693">
        <ele>34.7</ele>
        <time>2020-06-22T17:48:56Z</time>
      </trkpt>
      <trkpt lat="50.67307" lon="1.63694">
        <ele>34.4</ele>
        <time>2020-06-22T17:48:57Z</time>
      </trkpt>
      <trkpt lat="50.67314" lon="1.63695">
        <ele>34.1</ele>
        <time>2020-06-22T17:48:58Z</time>
      </trkpt>
      <trkpt lat="50.67322" lon="1.63696">
        <ele>33.6</ele>
        <time>2020-06-22T17:48:59Z</time>
      </trkpt>
      <trkpt lat="50.67331" lon="1.63697">
        <ele>33.1</ele>
        <time>2020-06-22T17:49:00Z</time>
      </trkpt>
      <trkpt lat="50.67339" lon="1.63697">
        <ele>32.5</ele>
        <time>2020-06-22T17:49:01Z</time>
      </trkpt>
      <trkpt lat="50.67348" lon="1.63697">
        <ele>31.9</ele>
        <time>2020-06-22T17:49:02Z</time>
      </trkpt>
      <trkpt lat="50.67358" lon="1.63694">
        <ele>31.3</ele>
        <time>2020-06-22T17:49:03Z</time>
      </trkpt>
      <trkpt lat="50.67367" lon="1.63691">
        <ele>30.7</ele>
        <time>2020-06-22T17:49:04Z</time>
      </trkpt>
      <trkpt lat="50.67376" lon="1.63688">
        <ele>30.2</ele>
        <time>2020-06-22T17:49:05Z</time>
      </trkpt>
      <trkpt lat="50.67385" lon="1.63684">
        <ele>29.8</ele>
        <time>2020-06-22T17:49:06Z</time>
      </trkpt>
      <trkpt lat="50.67395" lon="1.63682">
        <ele>29.4</ele>
        <time>2020-06-22T17:49:07Z</time>
      </trkpt>
      <trkpt lat="50.67405" lon="1.63679">
        <ele>28.8</ele>
        <time>2020-06-22T17:49:08Z</time>
      </trkpt>
      <trkpt lat="50.67415" lon="1.63676">
        <ele>28</ele>
        <time>2020-06-22T17:49:09Z</time>
      </trkpt>
      <trkpt lat="50.67426" lon="1.63673">
        <ele>27</ele>
        <time>2020-06-22T17:49:10Z</time>
      </trkpt>
      <trkpt lat="50.67436" lon="1.6367">
        <ele>25.9</ele>
        <time>2020-06-22T17:49:11Z</time>
      </trkpt>
      <trkpt lat="50.67448" lon="1.63667">
        <ele>24.8</ele>
        <time>2020-06-22T17:49:12Z</time>
      </trkpt>
      <trkpt lat="50.67459" lon="1.63665">
        <ele>23.8</ele>
        <time>2020-06-22T17:49:13Z</time>
      </trkpt>
      <trkpt lat="50.67471" lon="1.63662">
        <ele>22.7</ele>
        <time>2020-06-22T17:49:14Z</time>
      </trkpt>
      <trkpt lat="50.67482" lon="1.63658">
        <ele>21.6</ele>
        <time>2020-06-22T17:49:15Z</time>
      </trkpt>
      <trkpt lat="50.67494" lon="1.63654">
        <ele>20.5</ele>
        <time>2020-06-22T17:49:16Z</time>
      </trkpt>
      <trkpt lat="50.67506" lon="1.63649">
        <ele>19.3</ele>
        <time>2020-06-22T17:49:17Z</time>
      </trkpt>
      <trkpt lat="50.67518" lon="1.63643">
        <ele>18</ele>
        <time>2020-06-22T17:49:18Z</time>
      </trkpt>
      <trkpt lat="50.6753" lon="1.63637">
        <ele>16.8</ele>
        <time>2020-06-22T17:49:19Z</time>
      </trkpt>
      <trkpt lat="50.67541" lon="1.63629">
        <ele>15.6</ele>
        <time>2020-06-22T17:49:20Z</time>
      </trkpt>
      <trkpt lat="50.67553" lon="1.63621">
        <ele>14.5</ele>
        <time>2020-06-22T17:49:21Z</time>
      </trkpt>
      <trkpt lat="50.67564" lon="1.63612">
        <ele>13.4</ele>
        <time>2020-06-22T17:49:22Z</time>
      </trkpt>
      <trkpt lat="50.67576" lon="1.63604">
        <ele>12.5</ele>
        <time>2020-06-22T17:49:23Z</time>
      </trkpt>
      <trkpt lat="50.67587" lon="1.63595">
        <ele>11.8</ele>
        <time>2020-06-22T17:49:24Z</time>
      </trkpt>
      <trkpt lat="50.67598" lon="1.63587">
        <ele>11.5</ele>
        <time>2020-06-22T17:49:25Z</time>
      </trkpt>
      <trkpt lat="50.67609" lon="1.63578">
        <ele>11.3</ele>
        <time>2020-06-22T17:49:26Z</time>
      </trkpt>
      <trkpt lat="50.67619" lon="1.63569">
        <ele>11.1</ele>
        <time>2020-06-22T17:49:27Z</time>
      </trkpt>
      <trkpt lat="50.67628" lon="1.6356">
        <ele>10.9</ele>
        <time>2020-06-22T17:49:28Z</time>
      </trkpt>
      <trkpt lat="50.67637" lon="1.63551">
        <ele>10.8</ele>
        <time>2020-06-22T17:49:29Z</time>
      </trkpt>
      <trkpt lat="50.67645" lon="1.63541">
        <ele>10.7</ele>
        <time>2020-06-22T17:49:30Z</time>
      </trkpt>
      <trkpt lat="50.67653" lon="1.63532">
        <ele>10.5</ele>
        <time>2020-06-22T17:49:31Z</time>
      </trkpt>
      <trkpt lat="50.67661" lon="1.63522">
        <ele>10.4</ele>
        <time>2020-06-22T17:49:32Z</time>
      </trkpt>
      <trkpt lat="50.67669" lon="1.63514">
        <ele>10.3</ele>
        <time>2020-06-22T17:49:33Z</time>
      </trkpt>
      <trkpt lat="50.67677" lon="1.63506">
        <ele>10.2</ele>
        <time>2020-06-22T17:49:34Z</time>
      </trkpt>
      <trkpt lat="50.67684" lon="1.63497">
        <ele>10.1</ele>
        <time>2020-06-22T17:49:35Z</time>
      </trkpt>
      <trkpt lat="50.67692" lon="1.63488">
        <ele>10</ele>
        <time>2020-06-22T17:49:36Z</time>
      </trkpt>
      <trkpt lat="50.677" lon="1.6348">
        <ele>9.9</ele>
        <time>2020-06-22T17:49:37Z</time>
      </trkpt>
      <trkpt lat="50.67707" lon="1.63472">
        <ele>9.9</ele>
        <time>2020-06-22T17:49:38Z</time>
      </trkpt>
      <trkpt lat="50.67715" lon="1.63465">
        <ele>9.8</ele>
        <time>2020-06-22T17:49:39Z</time>
      </trkpt>
      <trkpt lat="50.67723" lon="1.63457">
        <ele>9.8</ele>
        <time>2020-06-22T17:49:40Z</time>
      </trkpt>
      <trkpt lat="50.6773" lon="1.6345">
        <ele>9.8</ele>
        <time>2020-06-22T17:49:41Z</time>
      </trkpt>
      <trkpt lat="50.67737" lon="1.63443">
        <ele>9.8</ele>
        <time>2020-06-22T17:49:42Z</time>
      </trkpt>
      <trkpt lat="50.67744" lon="1.63436">
        <ele>9.9</ele>
        <time>2020-06-22T17:49:43Z</time>
      </trkpt>
      <trkpt lat="50.6775" lon="1.63429">
        <ele>9.9</ele>
        <time>2020-06-22T17:49:44Z</time>
      </trkpt>
      <trkpt lat="50.67757" lon="1.63423">
        <ele>9.9</ele>
        <time>2020-06-22T17:49:45Z</time>
      </trkpt>
      <trkpt lat="50.67763" lon="1.63417">
        <ele>9.9</ele>
        <time>2020-06-22T17:49:46Z</time>
      </trkpt>
      <trkpt lat="50.67769" lon="1.63411">
        <ele>9.8</ele>
        <time>2020-06-22T17:49:47Z</time>
      </trkpt>
      <trkpt lat="50.67775" lon="1.63405">
        <ele>9.8</ele>
        <time>2020-06-22T17:49:48Z</time>
      </trkpt>
      <trkpt lat="50.67781" lon="1.63399">
        <ele>9.8</ele>
        <time>2020-06-22T17:49:49Z</time>
      </trkpt>
      <trkpt lat="50.67786" lon="1.63393">
        <ele>9.8</ele>
        <time>2020-06-22T17:49:50Z</time>
      </trkpt>
      <trkpt lat="50.67792" lon="1.63389">
        <ele>9.9</ele>
        <time>2020-06-22T17:49:51Z</time>
      </trkpt>
      <trkpt lat="50.67799" lon="1.63388">
        <ele>9.9</ele>
        <time>2020-06-22T17:49:52Z</time>
      </trkpt>
      <trkpt lat="50.67805" lon="1.63386">
        <ele>9.9</ele>
        <time>2020-06-22T17:49:53Z</time>
      </trkpt>
      <trkpt lat="50.6781" lon="1.63385">
        <ele>10</ele>
        <time>2020-06-22T17:49:54Z</time>
      </trkpt>
      <trkpt lat="50.67814" lon="1.63383">
        <ele>10.1</ele>
        <time>2020-06-22T17:49:55Z</time>
      </trkpt>
      <trkpt lat="50.67818" lon="1.6338">
        <ele>10.2</ele>
        <time>2020-06-22T17:49:56Z</time>
      </trkpt>
      <trkpt lat="50.67822" lon="1.63378">
        <ele>10.2</ele>
        <time>2020-06-22T17:49:57Z</time>
      </trkpt>
      <trkpt lat="50.67827" lon="1.63374">
        <ele>10.3</ele>
        <time>2020-06-22T17:49:58Z</time>
      </trkpt>
      <trkpt lat="50.67831" lon="1.6337">
        <ele>10.4</ele>
        <time>2020-06-22T17:49:59Z</time>
      </trkpt>
      <trkpt lat="50.67836" lon="1.63365">
        <ele>10.5</ele>
        <time>2020-06-22T17:50:00Z</time>
      </trkpt>
      <trkpt lat="50.6784" lon="1.63362">
        <ele>10.7</ele>
        <time>2020-06-22T17:50:01Z</time>
      </trkpt>
      <trkpt lat="50.67845" lon="1.63358">
        <ele>10.9</ele>
        <time>2020-06-22T17:50:02Z</time>
      </trkpt>
      <trkpt lat="50.67851" lon="1.63357">
        <ele>11</ele>
        <time>2020-06-22T17:50:03Z</time>
      </trkpt>
      <trkpt lat="50.67856" lon="1.63354">
        <ele>11.2</ele>
        <time>2020-06-22T17:50:04Z</time>
      </trkpt>
      <trkpt lat="50.6786" lon="1.63351">
        <ele>11.4</ele>
        <time>2020-06-22T17:50:05Z</time>
      </trkpt>
      <trkpt lat="50.67865" lon="1.63348">
        <ele>11.6</ele>
        <time>2020-06-22T17:50:06Z</time>
      </trkpt>
      <trkpt lat="50.67869" lon="1.63346">
        <ele>11.8</ele>
        <time>2020-06-22T17:50:07Z</time>
      </trkpt>
      <trkpt lat="50.67873" lon="1.63345">
        <ele>12</ele>
        <time>2020-06-22T17:50:08Z</time>
      </trkpt>
      <trkpt lat="50.67877" lon="1.63343">
        <ele>12.2</ele>
        <time>2020-06-22T17:50:09Z</time>
      </trkpt>
      <trkpt lat="50.67881" lon="1.63342">
        <ele>12.4</ele>
        <time>2020-06-22T17:50:10Z</time>
      </trkpt>
      <trkpt lat="50.67885" lon="1.63342">
        <ele>12.5</ele>
        <time>2020-06-22T17:50:11Z</time>
      </trkpt>
      <trkpt lat="50.67889" lon="1.63342">
        <ele>12.6</ele>
        <time>2020-06-22T17:50:12Z</time>
      </trkpt>
      <trkpt lat="50.67892" lon="1.63341">
        <ele>12.7</ele>
        <time>2020-06-22T17:50:13Z</time>
      </trkpt>
      <trkpt lat="50.67896" lon="1.63341">
        <ele>12.8</ele>
        <time>2020-06-22T17:50:14Z</time>
      </trkpt>
      <trkpt lat="50.679" lon="1.63342">
        <ele>12.9</ele>
        <time>2020-06-22T17:50:15Z</time>
      </trkpt>
      <trkpt lat="50.67904" lon="1.63341">
        <ele>13</ele>
        <time>2020-06-22T17:50:16Z</time>
      </trkpt>
      <trkpt lat="50.67908" lon="1.6334">
        <ele>13.1</ele>
        <time>2020-06-22T17:50:17Z</time>
      </trkpt>
      <trkpt lat="50.67912" lon="1.63339">
        <ele>13.2</ele>
        <time>2020-06-22T17:50:18Z</time>
      </trkpt>
      <trkpt lat="50.67916" lon="1.63339">
        <ele>13.2</ele>
        <time>2020-06-22T17:50:19Z</time>
      </trkpt>
      <trkpt lat="50.6792" lon="1.63338">
        <ele>13.4</ele>
        <time>2020-06-22T17:50:20Z</time>
      </trkpt>
      <trkpt lat="50.67924" lon="1.63337">
        <ele>13.5</ele>
        <time>2020-06-22T17:50:21Z</time>
      </trkpt>
      <trkpt lat="50.67928" lon="1.63339">
        <ele>13.5</ele>
        <time>2020-06-22T17:50:22Z</time>
      </trkpt>
      <trkpt lat="50.67932" lon="1.63339">
        <ele>13.6</ele>
        <time>2020-06-22T17:50:23Z</time>
      </trkpt>
      <trkpt lat="50.67938" lon="1.63341">
        <ele>13.7</ele>
        <time>2020-06-22T17:50:24Z</time>
      </trkpt>
      <trkpt lat="50.67942" lon="1.63341">
        <ele>13.8</ele>
        <time>2020-06-22T17:50:25Z</time>
      </trkpt>
      <trkpt lat="50.67946" lon="1.63341">
        <ele>13.9</ele>
        <time>2020-06-22T17:50:26Z</time>
      </trkpt>
      <trkpt lat="50.67952" lon="1.63339">
        <ele>13.9</ele>
        <time>2020-06-22T17:50:27Z</time>
      </trkpt>
      <trkpt lat="50.67958" lon="1.63338">
        <ele>14</ele>
        <time>2020-06-22T17:50:28Z</time>
      </trkpt>
      <trkpt lat="50.67964" lon="1.63337">
        <ele>14</ele>
        <time>2020-06-22T17:50:29Z</time>
      </trkpt>
      <trkpt lat="50.67969" lon="1.63336">
        <ele>14.1</ele>
        <time>2020-06-22T17:50:30Z</time>
      </trkpt>
      <trkpt lat="50.67975" lon="1.63336">
        <ele>14.1</ele>
        <time>2020-06-22T17:50:31Z</time>
      </trkpt>
      <trkpt lat="50.67981" lon="1.63336">
        <ele>14.1</ele>
        <time>2020-06-22T17:50:32Z</time>
      </trkpt>
      <trkpt lat="50.67986" lon="1.63337">
        <ele>14.1</ele>
        <time>2020-06-22T17:50:33Z</time>
      </trkpt>
      <trkpt lat="50.67992" lon="1.63337">
        <ele>14.1</ele>
        <time>2020-06-22T17:50:34Z</time>
      </trkpt>
      <trkpt lat="50.67998" lon="1.63337">
        <ele>14.1</ele>
        <time>2020-06-22T17:50:35Z</time>
      </trkpt>
      <trkpt lat="50.68003" lon="1.63336">
        <ele>14.1</ele>
        <time>2020-06-22T17:50:36Z</time>
      </trkpt>
      <trkpt lat="50.6801" lon="1.63335">
        <ele>14</ele>
        <time>2020-06-22T17:50:37Z</time>
      </trkpt>
      <trkpt lat="50.68017" lon="1.63336">
        <ele>14</ele>
        <time>2020-06-22T17:50:38Z</time>
      </trkpt>
      <trkpt lat="50.68023" lon="1.63336">
        <ele>13.9</ele>
        <time>2020-06-22T17:50:39Z</time>
      </trkpt>
      <trkpt lat="50.68029" lon="1.63336">
        <ele>13.9</ele>
        <time>2020-06-22T17:50:40Z</time>
      </trkpt>
      <trkpt lat="50.68036" lon="1.63336">
        <ele>13.8</ele>
        <time>2020-06-22T17:50:41Z</time>
      </trkpt>
      <trkpt lat="50.68042" lon="1.63336">
        <ele>13.8</ele>
        <time>2020-06-22T17:50:42Z</time>
      </trkpt>
      <trkpt lat="50.6805" lon="1.63335">
        <ele>13.6</ele>
        <time>2020-06-22T17:50:43Z</time>
      </trkpt>
      <trkpt lat="50.68057" lon="1.63334">
        <ele>13.4</ele>
        <time>2020-06-22T17:50:44Z</time>
      </trkpt>
      <trkpt lat="50.68063" lon="1.63334">
        <ele>13.3</ele>
        <time>2020-06-22T17:50:45Z</time>
      </trkpt>
      <trkpt lat="50.68068" lon="1.63335">
        <ele>13.2</ele>
        <time>2020-06-22T17:50:46Z</time>
      </trkpt>
      <trkpt lat="50.68075" lon="1.63335">
        <ele>13.1</ele>
        <time>2020-06-22T17:50:47Z</time>
      </trkpt>
      <trkpt lat="50.68082" lon="1.63335">
        <ele>12.9</ele>
        <time>2020-06-22T17:50:48Z</time>
      </trkpt>
      <trkpt lat="50.68089" lon="1.63335">
        <ele>12.7</ele>
        <time>2020-06-22T17:50:49Z</time>
      </trkpt>
      <trkpt lat="50.68096" lon="1.63335">
        <ele>12.5</ele>
        <time>2020-06-22T17:50:50Z</time>
      </trkpt>
      <trkpt lat="50.68103" lon="1.63335">
        <ele>12.3</ele>
        <time>2020-06-22T17:50:51Z</time>
      </trkpt>
      <trkpt lat="50.68111" lon="1.63334">
        <ele>12.1</ele>
        <time>2020-06-22T17:50:52Z</time>
      </trkpt>
      <trkpt lat="50.68118" lon="1.63334">
        <ele>11.9</ele>
        <time>2020-06-22T17:50:53Z</time>
      </trkpt>
      <trkpt lat="50.68125" lon="1.63334">
        <ele>11.6</ele>
        <time>2020-06-22T17:50:54Z</time>
      </trkpt>
      <trkpt lat="50.68132" lon="1.63334">
        <ele>11.3</ele>
        <time>2020-06-22T17:50:55Z</time>
      </trkpt>
      <trkpt lat="50.6814" lon="1.63333">
        <ele>11.1</ele>
        <time>2020-06-22T17:50:56Z</time>
      </trkpt>
      <trkpt lat="50.68148" lon="1.63333">
        <ele>10.8</ele>
        <time>2020-06-22T17:50:57Z</time>
      </trkpt>
      <trkpt lat="50.68156" lon="1.63332">
        <ele>10.5</ele>
        <time>2020-06-22T17:50:58Z</time>
      </trkpt>
      <trkpt lat="50.68165" lon="1.63331">
        <ele>10.3</ele>
        <time>2020-06-22T17:50:59Z</time>
      </trkpt>
      <trkpt lat="50.68173" lon="1.63331">
        <ele>10</ele>
        <time>2020-06-22T17:51:00Z</time>
      </trkpt>
      <trkpt lat="50.68181" lon="1.63329">
        <ele>9.8</ele>
        <time>2020-06-22T17:51:01Z</time>
      </trkpt>
      <trkpt lat="50.6819" lon="1.63329">
        <ele>9.6</ele>
        <time>2020-06-22T17:51:02Z</time>
      </trkpt>
      <trkpt lat="50.68198" lon="1.63327">
        <ele>9.4</ele>
        <time>2020-06-22T17:51:03Z</time>
      </trkpt>
      <trkpt lat="50.68206" lon="1.63325">
        <ele>9.2</ele>
        <time>2020-06-22T17:51:04Z</time>
      </trkpt>
      <trkpt lat="50.68214" lon="1.63324">
        <ele>9</ele>
        <time>2020-06-22T17:51:05Z</time>
      </trkpt>
      <trkpt lat="50.68222" lon="1.63321">
        <ele>8.9</ele>
        <time>2020-06-22T17:51:06Z</time>
      </trkpt>
      <trkpt lat="50.68229" lon="1.63317">
        <ele>8.8</ele>
        <time>2020-06-22T17:51:07Z</time>
      </trkpt>
      <trkpt lat="50.68237" lon="1.63314">
        <ele>8.7</ele>
        <time>2020-06-22T17:51:08Z</time>
      </trkpt>
      <trkpt lat="50.68244" lon="1.63311">
        <ele>8.7</ele>
        <time>2020-06-22T17:51:09Z</time>
      </trkpt>
      <trkpt lat="50.68252" lon="1.63308">
        <ele>8.6</ele>
        <time>2020-06-22T17:51:10Z</time>
      </trkpt>
      <trkpt lat="50.68259" lon="1.63304">
        <ele>8.6</ele>
        <time>2020-06-22T17:51:11Z</time>
      </trkpt>
      <trkpt lat="50.68265" lon="1.63301">
        <ele>8.5</ele>
        <time>2020-06-22T17:51:12Z</time>
      </trkpt>
      <trkpt lat="50.68272" lon="1.63296">
        <ele>8.5</ele>
        <time>2020-06-22T17:51:13Z</time>
      </trkpt>
      <trkpt lat="50.68278" lon="1.63292">
        <ele>8.5</ele>
        <time>2020-06-22T17:51:14Z</time>
      </trkpt>
      <trkpt lat="50.68285" lon="1.63288">
        <ele>8.5</ele>
        <time>2020-06-22T17:51:15Z</time>
      </trkpt>
      <trkpt lat="50.68291" lon="1.63284">
        <ele>8.6</ele>
        <time>2020-06-22T17:51:16Z</time>
      </trkpt>
      <trkpt lat="50.68296" lon="1.6328">
        <ele>8.6</ele>
        <time>2020-06-22T17:51:17Z</time>
      </trkpt>
      <trkpt lat="50.68302" lon="1.63276">
        <ele>8.6</ele>
        <time>2020-06-22T17:51:18Z</time>
      </trkpt>
      <trkpt lat="50.68308" lon="1.63275">
        <ele>8.6</ele>
        <time>2020-06-22T17:51:19Z</time>
      </trkpt>
      <trkpt lat="50.68315" lon="1.63278">
        <ele>8.6</ele>
        <time>2020-06-22T17:51:20Z</time>
      </trkpt>
      <trkpt lat="50.68321" lon="1.63282">
        <ele>8.8</ele>
        <time>2020-06-22T17:51:21Z</time>
      </trkpt>
      <trkpt lat="50.68328" lon="1.63285">
        <ele>8.9</ele>
        <time>2020-06-22T17:51:22Z</time>
      </trkpt>
      <trkpt lat="50.68335" lon="1.63283">
        <ele>8.8</ele>
        <time>2020-06-22T17:51:23Z</time>
      </trkpt>
      <trkpt lat="50.68341" lon="1.63278">
        <ele>8.8</ele>
        <time>2020-06-22T17:51:24Z</time>
      </trkpt>
      <trkpt lat="50.68346" lon="1.63271">
        <ele>8.7</ele>
        <time>2020-06-22T17:51:25Z</time>
      </trkpt>
      <trkpt lat="50.6835" lon="1.63263">
        <ele>8.7</ele>
        <time>2020-06-22T17:51:26Z</time>
      </trkpt>
      <trkpt lat="50.68354" lon="1.63254">
        <ele>8.7</ele>
        <time>2020-06-22T17:51:27Z</time>
      </trkpt>
      <trkpt lat="50.68358" lon="1.63244">
        <ele>8.6</ele>
        <time>2020-06-22T17:51:28Z</time>
      </trkpt>
      <trkpt lat="50.68362" lon="1.63234">
        <ele>8.5</ele>
        <time>2020-06-22T17:51:29Z</time>
      </trkpt>
      <trkpt lat="50.68367" lon="1.63226">
        <ele>8.5</ele>
        <time>2020-06-22T17:51:30Z</time>
      </trkpt>
      <trkpt lat="50.68372" lon="1.63218">
        <ele>8.4</ele>
        <time>2020-06-22T17:51:31Z</time>
      </trkpt>
      <trkpt lat="50.68377" lon="1.6321">
        <ele>8.4</ele>
        <time>2020-06-22T17:51:32Z</time>
      </trkpt>
      <trkpt lat="50.68381" lon="1.63202">
        <ele>8.4</ele>
        <time>2020-06-22T17:51:33Z</time>
      </trkpt>
      <trkpt lat="50.68386" lon="1.63193">
        <ele>8.3</ele>
        <time>2020-06-22T17:51:34Z</time>
      </trkpt>
      <trkpt lat="50.6839" lon="1.63185">
        <ele>8.4</ele>
        <time>2020-06-22T17:51:35Z</time>
      </trkpt>
      <trkpt lat="50.68394" lon="1.63176">
        <ele>8.4</ele>
        <time>2020-06-22T17:51:36Z</time>
      </trkpt>
      <trkpt lat="50.68398" lon="1.63167">
        <ele>8.4</ele>
        <time>2020-06-22T17:51:37Z</time>
      </trkpt>
      <trkpt lat="50.68401" lon="1.63158">
        <ele>8.4</ele>
        <time>2020-06-22T17:51:38Z</time>
      </trkpt>
      <trkpt lat="50.68404" lon="1.63149">
        <ele>8.4</ele>
        <time>2020-06-22T17:51:39Z</time>
      </trkpt>
      <trkpt lat="50.68407" lon="1.6314">
        <ele>8.4</ele>
        <time>2020-06-22T17:51:40Z</time>
      </trkpt>
      <trkpt lat="50.6841" lon="1.63131">
        <ele>8.4</ele>
        <time>2020-06-22T17:51:41Z</time>
      </trkpt>
      <trkpt lat="50.68413" lon="1.63122">
        <ele>8.4</ele>
        <time>2020-06-22T17:51:42Z</time>
      </trkpt>
      <trkpt lat="50.68416" lon="1.63114">
        <ele>8.4</ele>
        <time>2020-06-22T17:51:43Z</time>
      </trkpt>
      <trkpt lat="50.68419" lon="1.63105">
        <ele>8.4</ele>
        <time>2020-06-22T17:51:44Z</time>
      </trkpt>
      <trkpt lat="50.68423" lon="1.63096">
        <ele>8.4</ele>
        <time>2020-06-22T17:51:45Z</time>
      </trkpt>
      <trkpt lat="50.68426" lon="1.63087">
        <ele>8.3</ele>
        <time>2020-06-22T17:51:46Z</time>
      </trkpt>
      <trkpt lat="50.68429" lon="1.63079">
        <ele>8.3</ele>
        <time>2020-06-22T17:51:47Z</time>
      </trkpt>
      <trkpt lat="50.68433" lon="1.6307">
        <ele>8.2</ele>
        <time>2020-06-22T17:51:48Z</time>
      </trkpt>
      <trkpt lat="50.68437" lon="1.63061">
        <ele>8.2</ele>
        <time>2020-06-22T17:51:49Z</time>
      </trkpt>
      <trkpt lat="50.6844" lon="1.63051">
        <ele>8.2</ele>
        <time>2020-06-22T17:51:50Z</time>
      </trkpt>
      <trkpt lat="50.68443" lon="1.63041">
        <ele>8.1</ele>
        <time>2020-06-22T17:51:51Z</time>
      </trkpt>
      <trkpt lat="50.68447" lon="1.63031">
        <ele>8.1</ele>
        <time>2020-06-22T17:51:52Z</time>
      </trkpt>
      <trkpt lat="50.6845" lon="1.63021">
        <ele>8.1</ele>
        <time>2020-06-22T17:51:53Z</time>
      </trkpt>
      <trkpt lat="50.68453" lon="1.63011">
        <ele>8</ele>
        <time>2020-06-22T17:51:54Z</time>
      </trkpt>
      <trkpt lat="50.68457" lon="1.63001">
        <ele>7.9</ele>
        <time>2020-06-22T17:51:55Z</time>
      </trkpt>
      <trkpt lat="50.6846" lon="1.62991">
        <ele>7.8</ele>
        <time>2020-06-22T17:51:56Z</time>
      </trkpt>
      <trkpt lat="50.68464" lon="1.62981">
        <ele>7.8</ele>
        <time>2020-06-22T17:51:57Z</time>
      </trkpt>
      <trkpt lat="50.68468" lon="1.62971">
        <ele>7.8</ele>
        <time>2020-06-22T17:51:58Z</time>
      </trkpt>
      <trkpt lat="50.68472" lon="1.62962">
        <ele>7.8</ele>
        <time>2020-06-22T17:51:59Z</time>
      </trkpt>
      <trkpt lat="50.68476" lon="1.62953">
        <ele>7.8</ele>
        <time>2020-06-22T17:52:00Z</time>
      </trkpt>
      <trkpt lat="50.6848" lon="1.62944">
        <ele>7.8</ele>
        <time>2020-06-22T17:52:01Z</time>
      </trkpt>
      <trkpt lat="50.68482" lon="1.62933">
        <ele>7.7</ele>
        <time>2020-06-22T17:52:02Z</time>
      </trkpt>
      <trkpt lat="50.68486" lon="1.62922">
        <ele>7.7</ele>
        <time>2020-06-22T17:52:03Z</time>
      </trkpt>
      <trkpt lat="50.68488" lon="1.62911">
        <ele>7.7</ele>
        <time>2020-06-22T17:52:04Z</time>
      </trkpt>
      <trkpt lat="50.68491" lon="1.62901">
        <ele>7.7</ele>
        <time>2020-06-22T17:52:05Z</time>
      </trkpt>
      <trkpt lat="50.68495" lon="1.62891">
        <ele>7.7</ele>
        <time>2020-06-22T17:52:06Z</time>
      </trkpt>
      <trkpt lat="50.68498" lon="1.6288">
        <ele>7.7</ele>
        <time>2020-06-22T17:52:07Z</time>
      </trkpt>
      <trkpt lat="50.68502" lon="1.62871">
        <ele>7.8</ele>
        <time>2020-06-22T17:52:08Z</time>
      </trkpt>
      <trkpt lat="50.68506" lon="1.62862">
        <ele>7.9</ele>
        <time>2020-06-22T17:52:09Z</time>
      </trkpt>
      <trkpt lat="50.68509" lon="1.62853">
        <ele>7.9</ele>
        <time>2020-06-22T17:52:10Z</time>
      </trkpt>
      <trkpt lat="50.68512" lon="1.62842">
        <ele>8</ele>
        <time>2020-06-22T17:52:11Z</time>
      </trkpt>
      <trkpt lat="50.68515" lon="1.62832">
        <ele>8.1</ele>
        <time>2020-06-22T17:52:12Z</time>
      </trkpt>
      <trkpt lat="50.68518" lon="1.62823">
        <ele>8.1</ele>
        <time>2020-06-22T17:52:13Z</time>
      </trkpt>
      <trkpt lat="50.68519" lon="1.62812">
        <ele>8.2</ele>
        <time>2020-06-22T17:52:14Z</time>
      </trkpt>
      <trkpt lat="50.68523" lon="1.62803">
        <ele>8.3</ele>
        <time>2020-06-22T17:52:15Z</time>
      </trkpt>
      <trkpt lat="50.68526" lon="1.62794">
        <ele>8.5</ele>
        <time>2020-06-22T17:52:16Z</time>
      </trkpt>
      <trkpt lat="50.68529" lon="1.62786">
        <ele>8.5</ele>
        <time>2020-06-22T17:52:17Z</time>
      </trkpt>
      <trkpt lat="50.68533" lon="1.62778">
        <ele>8.6</ele>
        <time>2020-06-22T17:52:18Z</time>
      </trkpt>
      <trkpt lat="50.68537" lon="1.6277">
        <ele>8.7</ele>
        <time>2020-06-22T17:52:19Z</time>
      </trkpt>
      <trkpt lat="50.68541" lon="1.62763">
        <ele>8.8</ele>
        <time>2020-06-22T17:52:20Z</time>
      </trkpt>
      <trkpt lat="50.68545" lon="1.62756">
        <ele>8.9</ele>
        <time>2020-06-22T17:52:21Z</time>
      </trkpt>
      <trkpt lat="50.6855" lon="1.62749">
        <ele>9</ele>
        <time>2020-06-22T17:52:22Z</time>
      </trkpt>
      <trkpt lat="50.68554" lon="1.62744">
        <ele>9</ele>
        <time>2020-06-22T17:52:23Z</time>
      </trkpt>
      <trkpt lat="50.6856" lon="1.62738">
        <ele>9.1</ele>
        <time>2020-06-22T17:52:24Z</time>
      </trkpt>
      <trkpt lat="50.68565" lon="1.62732">
        <ele>9.2</ele>
        <time>2020-06-22T17:52:25Z</time>
      </trkpt>
      <trkpt lat="50.68571" lon="1.62728">
        <ele>9.2</ele>
        <time>2020-06-22T17:52:26Z</time>
      </trkpt>
      <trkpt lat="50.68577" lon="1.62723">
        <ele>9.2</ele>
        <time>2020-06-22T17:52:27Z</time>
      </trkpt>
      <trkpt lat="50.68582" lon="1.62719">
        <ele>9.2</ele>
        <time>2020-06-22T17:52:28Z</time>
      </trkpt>
      <trkpt lat="50.68588" lon="1.62715">
        <ele>9.2</ele>
        <time>2020-06-22T17:52:29Z</time>
      </trkpt>
      <trkpt lat="50.68594" lon="1.62712">
        <ele>9.2</ele>
        <time>2020-06-22T17:52:30Z</time>
      </trkpt>
      <trkpt lat="50.686" lon="1.62709">
        <ele>9.2</ele>
        <time>2020-06-22T17:52:31Z</time>
      </trkpt>
      <trkpt lat="50.68605" lon="1.62707">
        <ele>9.2</ele>
        <time>2020-06-22T17:52:32Z</time>
      </trkpt>
      <trkpt lat="50.68609" lon="1.62705">
        <ele>9.1</ele>
        <time>2020-06-22T17:52:33Z</time>
      </trkpt>
      <trkpt lat="50.68614" lon="1.62702">
        <ele>9.1</ele>
        <time>2020-06-22T17:52:34Z</time>
      </trkpt>
      <trkpt lat="50.68621" lon="1.62697">
        <ele>9.1</ele>
        <time>2020-06-22T17:52:35Z</time>
      </trkpt>
      <trkpt lat="50.68625" lon="1.62692">
        <ele>9</ele>
        <time>2020-06-22T17:52:36Z</time>
      </trkpt>
      <trkpt lat="50.6863" lon="1.62687">
        <ele>9</ele>
        <time>2020-06-22T17:52:37Z</time>
      </trkpt>
      <trkpt lat="50.68636" lon="1.62684">
        <ele>8.9</ele>
        <time>2020-06-22T17:52:38Z</time>
      </trkpt>
      <trkpt lat="50.68642" lon="1.62682">
        <ele>8.9</ele>
        <time>2020-06-22T17:52:39Z</time>
      </trkpt>
      <trkpt lat="50.68649" lon="1.6268">
        <ele>8.8</ele>
        <time>2020-06-22T17:52:40Z</time>
      </trkpt>
      <trkpt lat="50.68655" lon="1.62676">
        <ele>8.8</ele>
        <time>2020-06-22T17:52:41Z</time>
      </trkpt>
      <trkpt lat="50.68659" lon="1.62675">
        <ele>8.7</ele>
        <time>2020-06-22T17:52:42Z</time>
      </trkpt>
      <trkpt lat="50.68665" lon="1.62673">
        <ele>8.7</ele>
        <time>2020-06-22T17:52:43Z</time>
      </trkpt>
      <trkpt lat="50.68671" lon="1.6267">
        <ele>8.6</ele>
        <time>2020-06-22T17:52:44Z</time>
      </trkpt>
      <trkpt lat="50.68677" lon="1.62668">
        <ele>8.6</ele>
        <time>2020-06-22T17:52:45Z</time>
      </trkpt>
      <trkpt lat="50.68684" lon="1.62666">
        <ele>8.5</ele>
        <time>2020-06-22T17:52:46Z</time>
      </trkpt>
      <trkpt lat="50.68692" lon="1.62662">
        <ele>8.3</ele>
        <time>2020-06-22T17:52:47Z</time>
      </trkpt>
      <trkpt lat="50.68697" lon="1.62659">
        <ele>8.3</ele>
        <time>2020-06-22T17:52:48Z</time>
      </trkpt>
      <trkpt lat="50.68704" lon="1.62655">
        <ele>8.2</ele>
        <time>2020-06-22T17:52:49Z</time>
      </trkpt>
      <trkpt lat="50.68711" lon="1.62651">
        <ele>8.1</ele>
        <time>2020-06-22T17:52:50Z</time>
      </trkpt>
      <trkpt lat="50.68716" lon="1.62648">
        <ele>8.1</ele>
        <time>2020-06-22T17:52:51Z</time>
      </trkpt>
      <trkpt lat="50.68723" lon="1.62644">
        <ele>8</ele>
        <time>2020-06-22T17:52:52Z</time>
      </trkpt>
      <trkpt lat="50.68729" lon="1.6264">
        <ele>8</ele>
        <time>2020-06-22T17:52:53Z</time>
      </trkpt>
      <trkpt lat="50.68737" lon="1.62637">
        <ele>8</ele>
        <time>2020-06-22T17:52:54Z</time>
      </trkpt>
      <trkpt lat="50.68744" lon="1.62633">
        <ele>8</ele>
        <time>2020-06-22T17:52:55Z</time>
      </trkpt>
      <trkpt lat="50.6875" lon="1.62629">
        <ele>7.9</ele>
        <time>2020-06-22T17:52:56Z</time>
      </trkpt>
      <trkpt lat="50.68756" lon="1.62624">
        <ele>7.9</ele>
        <time>2020-06-22T17:52:57Z</time>
      </trkpt>
      <trkpt lat="50.68762" lon="1.62619">
        <ele>7.9</ele>
        <time>2020-06-22T17:52:58Z</time>
      </trkpt>
      <trkpt lat="50.68768" lon="1.62613">
        <ele>7.9</ele>
        <time>2020-06-22T17:52:59Z</time>
      </trkpt>
      <trkpt lat="50.68774" lon="1.62607">
        <ele>7.8</ele>
        <time>2020-06-22T17:53:00Z</time>
      </trkpt>
      <trkpt lat="50.68781" lon="1.62601">
        <ele>7.8</ele>
        <time>2020-06-22T17:53:01Z</time>
      </trkpt>
      <trkpt lat="50.68787" lon="1.62595">
        <ele>7.9</ele>
        <time>2020-06-22T17:53:02Z</time>
      </trkpt>
      <trkpt lat="50.68793" lon="1.62588">
        <ele>7.9</ele>
        <time>2020-06-22T17:53:03Z</time>
      </trkpt>
      <trkpt lat="50.688" lon="1.62582">
        <ele>8</ele>
        <time>2020-06-22T17:53:04Z</time>
      </trkpt>
      <trkpt lat="50.68807" lon="1.62577">
        <ele>8</ele>
        <time>2020-06-22T17:53:05Z</time>
      </trkpt>
      <trkpt lat="50.68813" lon="1.62571">
        <ele>8</ele>
        <time>2020-06-22T17:53:06Z</time>
      </trkpt>
      <trkpt lat="50.6882" lon="1.62566">
        <ele>8</ele>
        <time>2020-06-22T17:53:07Z</time>
      </trkpt>
      <trkpt lat="50.68827" lon="1.6256">
        <ele>8</ele>
        <time>2020-06-22T17:53:08Z</time>
      </trkpt>
      <trkpt lat="50.68833" lon="1.62553">
        <ele>7.9</ele>
        <time>2020-06-22T17:53:09Z</time>
      </trkpt>
      <trkpt lat="50.6884" lon="1.62547">
        <ele>7.9</ele>
        <time>2020-06-22T17:53:10Z</time>
      </trkpt>
      <trkpt lat="50.68847" lon="1.6254">
        <ele>7.9</ele>
        <time>2020-06-22T17:53:11Z</time>
      </trkpt>
      <trkpt lat="50.68854" lon="1.62534">
        <ele>7.9</ele>
        <time>2020-06-22T17:53:12Z</time>
      </trkpt>
      <trkpt lat="50.6886" lon="1.62527">
        <ele>7.9</ele>
        <time>2020-06-22T17:53:13Z</time>
      </trkpt>
      <trkpt lat="50.68867" lon="1.62522">
        <ele>7.8</ele>
        <time>2020-06-22T17:53:14Z</time>
      </trkpt>
      <trkpt lat="50.68874" lon="1.62516">
        <ele>7.8</ele>
        <time>2020-06-22T17:53:15Z</time>
      </trkpt>
      <trkpt lat="50.68881" lon="1.62511">
        <ele>7.8</ele>
        <time>2020-06-22T17:53:16Z</time>
      </trkpt>
      <trkpt lat="50.68887" lon="1.62505">
        <ele>7.7</ele>
        <time>2020-06-22T17:53:17Z</time>
      </trkpt>
      <trkpt lat="50.68894" lon="1.62499">
        <ele>7.7</ele>
        <time>2020-06-22T17:53:18Z</time>
      </trkpt>
      <trkpt lat="50.689" lon="1.62493">
        <ele>7.6</ele>
        <time>2020-06-22T17:53:19Z</time>
      </trkpt>
      <trkpt lat="50.68907" lon="1.62487">
        <ele>7.6</ele>
        <time>2020-06-22T17:53:20Z</time>
      </trkpt>
      <trkpt lat="50.68913" lon="1.62482">
        <ele>7.6</ele>
        <time>2020-06-22T17:53:21Z</time>
      </trkpt>
      <trkpt lat="50.68919" lon="1.62475">
        <ele>7.5</ele>
        <time>2020-06-22T17:53:22Z</time>
      </trkpt>
      <trkpt lat="50.68926" lon="1.62469">
        <ele>7.5</ele>
        <time>2020-06-22T17:53:23Z</time>
      </trkpt>
      <trkpt lat="50.68932" lon="1.62464">
        <ele>7.5</ele>
        <time>2020-06-22T17:53:24Z</time>
      </trkpt>
      <trkpt lat="50.68939" lon="1.62459">
        <ele>7.5</ele>
        <time>2020-06-22T17:53:25Z</time>
      </trkpt>
      <trkpt lat="50.68946" lon="1.62454">
        <ele>7.5</ele>
        <time>2020-06-22T17:53:26Z</time>
      </trkpt>
      <trkpt lat="50.68952" lon="1.62448">
        <ele>7.5</ele>
        <time>2020-06-22T17:53:27Z</time>
      </trkpt>
      <trkpt lat="50.68958" lon="1.62441">
        <ele>7.4</ele>
        <time>2020-06-22T17:53:28Z</time>
      </trkpt>
      <trkpt lat="50.68963" lon="1.62435">
        <ele>7.4</ele>
        <time>2020-06-22T17:53:29Z</time>
      </trkpt>
      <trkpt lat="50.6897" lon="1.62429">
        <ele>7.4</ele>
        <time>2020-06-22T17:53:30Z</time>
      </trkpt>
      <trkpt lat="50.68976" lon="1.62424">
        <ele>7.4</ele>
        <time>2020-06-22T17:53:31Z</time>
      </trkpt>
      <trkpt lat="50.68983" lon="1.62419">
        <ele>7.4</ele>
        <time>2020-06-22T17:53:32Z</time>
      </trkpt>
      <trkpt lat="50.68989" lon="1.62414">
        <ele>7.4</ele>
        <time>2020-06-22T17:53:33Z</time>
      </trkpt>
      <trkpt lat="50.68995" lon="1.62409">
        <ele>7.4</ele>
        <time>2020-06-22T17:53:34Z</time>
      </trkpt>
      <trkpt lat="50.69002" lon="1.62404">
        <ele>7.4</ele>
        <time>2020-06-22T17:53:35Z</time>
      </trkpt>
      <trkpt lat="50.69008" lon="1.62399">
        <ele>7.4</ele>
        <time>2020-06-22T17:53:36Z</time>
      </trkpt>
      <trkpt lat="50.69014" lon="1.62393">
        <ele>7.5</ele>
        <time>2020-06-22T17:53:37Z</time>
      </trkpt>
      <trkpt lat="50.6902" lon="1.62388">
        <ele>7.5</ele>
        <time>2020-06-22T17:53:38Z</time>
      </trkpt>
      <trkpt lat="50.69026" lon="1.62383">
        <ele>7.5</ele>
        <time>2020-06-22T17:53:39Z</time>
      </trkpt>
      <trkpt lat="50.69032" lon="1.62378">
        <ele>7.6</ele>
        <time>2020-06-22T17:53:40Z</time>
      </trkpt>
      <trkpt lat="50.69039" lon="1.62373">
        <ele>7.6</ele>
        <time>2020-06-22T17:53:41Z</time>
      </trkpt>
      <trkpt lat="50.69044" lon="1.62367">
        <ele>7.7</ele>
        <time>2020-06-22T17:53:42Z</time>
      </trkpt>
      <trkpt lat="50.69051" lon="1.62362">
        <ele>7.7</ele>
        <time>2020-06-22T17:53:43Z</time>
      </trkpt>
      <trkpt lat="50.69057" lon="1.62358">
        <ele>7.8</ele>
        <time>2020-06-22T17:53:44Z</time>
      </trkpt>
      <trkpt lat="50.69063" lon="1.62352">
        <ele>7.9</ele>
        <time>2020-06-22T17:53:45Z</time>
      </trkpt>
      <trkpt lat="50.69069" lon="1.62347">
        <ele>8</ele>
        <time>2020-06-22T17:53:46Z</time>
      </trkpt>
      <trkpt lat="50.69074" lon="1.62341">
        <ele>8</ele>
        <time>2020-06-22T17:53:47Z</time>
      </trkpt>
      <trkpt lat="50.69079" lon="1.62335">
        <ele>8</ele>
        <time>2020-06-22T17:53:48Z</time>
      </trkpt>
      <trkpt lat="50.69083" lon="1.62328">
        <ele>8</ele>
        <time>2020-06-22T17:53:49Z</time>
      </trkpt>
      <trkpt lat="50.69088" lon="1.6232">
        <ele>8</ele>
        <time>2020-06-22T17:53:50Z</time>
      </trkpt>
      <trkpt lat="50.69092" lon="1.62313">
        <ele>8</ele>
        <time>2020-06-22T17:53:51Z</time>
      </trkpt>
      <trkpt lat="50.69096" lon="1.62305">
        <ele>8</ele>
        <time>2020-06-22T17:53:52Z</time>
      </trkpt>
      <trkpt lat="50.691" lon="1.62297">
        <ele>8</ele>
        <time>2020-06-22T17:53:53Z</time>
      </trkpt>
      <trkpt lat="50.69102" lon="1.62288">
        <ele>7.9</ele>
        <time>2020-06-22T17:53:54Z</time>
      </trkpt>
      <trkpt lat="50.69106" lon="1.6228">
        <ele>7.9</ele>
        <time>2020-06-22T17:53:55Z</time>
      </trkpt>
      <trkpt lat="50.69109" lon="1.62271">
        <ele>7.8</ele>
        <time>2020-06-22T17:53:56Z</time>
      </trkpt>
      <trkpt lat="50.69112" lon="1.62262">
        <ele>7.8</ele>
        <time>2020-06-22T17:53:57Z</time>
      </trkpt>
      <trkpt lat="50.69115" lon="1.62253">
        <ele>7.8</ele>
        <time>2020-06-22T17:53:58Z</time>
      </trkpt>
      <trkpt lat="50.69118" lon="1.62244">
        <ele>7.7</ele>
        <time>2020-06-22T17:53:59Z</time>
      </trkpt>
      <trkpt lat="50.69122" lon="1.62235">
        <ele>7.7</ele>
        <time>2020-06-22T17:54:00Z</time>
      </trkpt>
      <trkpt lat="50.69125" lon="1.62225">
        <ele>7.7</ele>
        <time>2020-06-22T17:54:01Z</time>
      </trkpt>
      <trkpt lat="50.6913" lon="1.62216">
        <ele>7.7</ele>
        <time>2020-06-22T17:54:02Z</time>
      </trkpt>
      <trkpt lat="50.69133" lon="1.62207">
        <ele>7.7</ele>
        <time>2020-06-22T17:54:03Z</time>
      </trkpt>
      <trkpt lat="50.69137" lon="1.62199">
        <ele>7.7</ele>
        <time>2020-06-22T17:54:04Z</time>
      </trkpt>
      <trkpt lat="50.6914" lon="1.62191">
        <ele>7.6</ele>
        <time>2020-06-22T17:54:05Z</time>
      </trkpt>
      <trkpt lat="50.69144" lon="1.62183">
        <ele>7.6</ele>
        <time>2020-06-22T17:54:06Z</time>
      </trkpt>
      <trkpt lat="50.69147" lon="1.62176">
        <ele>7.6</ele>
        <time>2020-06-22T17:54:07Z</time>
      </trkpt>
      <trkpt lat="50.6915" lon="1.6217">
        <ele>7.6</ele>
        <time>2020-06-22T17:54:08Z</time>
      </trkpt>
      <trkpt lat="50.69153" lon="1.62163">
        <ele>7.5</ele>
        <time>2020-06-22T17:54:09Z</time>
      </trkpt>
      <trkpt lat="50.69156" lon="1.62156">
        <ele>7.5</ele>
        <time>2020-06-22T17:54:10Z</time>
      </trkpt>
      <trkpt lat="50.69159" lon="1.62149">
        <ele>7.5</ele>
        <time>2020-06-22T17:54:11Z</time>
      </trkpt>
      <trkpt lat="50.69161" lon="1.62142">
        <ele>7.5</ele>
        <time>2020-06-22T17:54:12Z</time>
      </trkpt>
      <trkpt lat="50.69164" lon="1.62136">
        <ele>7.5</ele>
        <time>2020-06-22T17:54:13Z</time>
      </trkpt>
      <trkpt lat="50.69167" lon="1.62129">
        <ele>7.5</ele>
        <time>2020-06-22T17:54:14Z</time>
      </trkpt>
      <trkpt lat="50.6917" lon="1.62123">
        <ele>7.5</ele>
        <time>2020-06-22T17:54:15Z</time>
      </trkpt>
      <trkpt lat="50.69172" lon="1.62117">
        <ele>7.4</ele>
        <time>2020-06-22T17:54:16Z</time>
      </trkpt>
      <trkpt lat="50.69175" lon="1.6211">
        <ele>7.4</ele>
        <time>2020-06-22T17:54:17Z</time>
      </trkpt>
      <trkpt lat="50.69178" lon="1.62102">
        <ele>7.4</ele>
        <time>2020-06-22T17:54:18Z</time>
      </trkpt>
      <trkpt lat="50.69181" lon="1.62094">
        <ele>7.4</ele>
        <time>2020-06-22T17:54:19Z</time>
      </trkpt>
      <trkpt lat="50.69184" lon="1.62087">
        <ele>7.4</ele>
        <time>2020-06-22T17:54:20Z</time>
      </trkpt>
      <trkpt lat="50.69187" lon="1.6208">
        <ele>7.4</ele>
        <time>2020-06-22T17:54:21Z</time>
      </trkpt>
      <trkpt lat="50.69189" lon="1.62074">
        <ele>7.4</ele>
        <time>2020-06-22T17:54:22Z</time>
      </trkpt>
      <trkpt lat="50.69192" lon="1.62067">
        <ele>7.4</ele>
        <time>2020-06-22T17:54:23Z</time>
      </trkpt>
      <trkpt lat="50.69194" lon="1.62058">
        <ele>7.4</ele>
        <time>2020-06-22T17:54:24Z</time>
      </trkpt>
      <trkpt lat="50.69197" lon="1.62053">
        <ele>7.4</ele>
        <time>2020-06-22T17:54:25Z</time>
      </trkpt>
      <trkpt lat="50.692" lon="1.62046">
        <ele>7.4</ele>
        <time>2020-06-22T17:54:26Z</time>
      </trkpt>
      <trkpt lat="50.69203" lon="1.6204">
        <ele>7.4</ele>
        <time>2020-06-22T17:54:27Z</time>
      </trkpt>
      <trkpt lat="50.69206" lon="1.62034">
        <ele>7.4</ele>
        <time>2020-06-22T17:54:28Z</time>
      </trkpt>
      <trkpt lat="50.69209" lon="1.62026">
        <ele>7.4</ele>
        <time>2020-06-22T17:54:29Z</time>
      </trkpt>
      <trkpt lat="50.69212" lon="1.62019">
        <ele>7.5</ele>
        <time>2020-06-22T17:54:30Z</time>
      </trkpt>
      <trkpt lat="50.69215" lon="1.62011">
        <ele>7.5</ele>
        <time>2020-06-22T17:54:31Z</time>
      </trkpt>
      <trkpt lat="50.69217" lon="1.62005">
        <ele>7.6</ele>
        <time>2020-06-22T17:54:32Z</time>
      </trkpt>
      <trkpt lat="50.6922" lon="1.61998">
        <ele>7.6</ele>
        <time>2020-06-22T17:54:33Z</time>
      </trkpt>
      <trkpt lat="50.69222" lon="1.61992">
        <ele>7.7</ele>
        <time>2020-06-22T17:54:34Z</time>
      </trkpt>
      <trkpt lat="50.69225" lon="1.61985">
        <ele>7.7</ele>
        <time>2020-06-22T17:54:35Z</time>
      </trkpt>
      <trkpt lat="50.69228" lon="1.61979">
        <ele>7.8</ele>
        <time>2020-06-22T17:54:36Z</time>
      </trkpt>
      <trkpt lat="50.69231" lon="1.61972">
        <ele>7.9</ele>
        <time>2020-06-22T17:54:37Z</time>
      </trkpt>
      <trkpt lat="50.69234" lon="1.61965">
        <ele>8</ele>
        <time>2020-06-22T17:54:38Z</time>
      </trkpt>
      <trkpt lat="50.69237" lon="1.61959">
        <ele>8.1</ele>
        <time>2020-06-22T17:54:39Z</time>
      </trkpt>
      <trkpt lat="50.69239" lon="1.6195">
        <ele>8.1</ele>
        <time>2020-06-22T17:54:40Z</time>
      </trkpt>
      <trkpt lat="50.69241" lon="1.61944">
        <ele>8.2</ele>
        <time>2020-06-22T17:54:41Z</time>
      </trkpt>
      <trkpt lat="50.69244" lon="1.61938">
        <ele>8.3</ele>
        <time>2020-06-22T17:54:42Z</time>
      </trkpt>
      <trkpt lat="50.69246" lon="1.61932">
        <ele>8.4</ele>
        <time>2020-06-22T17:54:43Z</time>
      </trkpt>
      <trkpt lat="50.69248" lon="1.61926">
        <ele>8.5</ele>
        <time>2020-06-22T17:54:44Z</time>
      </trkpt>
      <trkpt lat="50.6925" lon="1.61921">
        <ele>8.6</ele>
        <time>2020-06-22T17:54:45Z</time>
      </trkpt>
      <trkpt lat="50.69253" lon="1.61916">
        <ele>8.7</ele>
        <time>2020-06-22T17:54:46Z</time>
      </trkpt>
      <trkpt lat="50.69256" lon="1.6191">
        <ele>8.9</ele>
        <time>2020-06-22T17:54:47Z</time>
      </trkpt>
      <trkpt lat="50.69259" lon="1.61904">
        <ele>9.1</ele>
        <time>2020-06-22T17:54:48Z</time>
      </trkpt>
      <trkpt lat="50.69262" lon="1.61897">
        <ele>9.3</ele>
        <time>2020-06-22T17:54:49Z</time>
      </trkpt>
      <trkpt lat="50.69264" lon="1.61892">
        <ele>9.5</ele>
        <time>2020-06-22T17:54:50Z</time>
      </trkpt>
      <trkpt lat="50.69266" lon="1.61887">
        <ele>9.7</ele>
        <time>2020-06-22T17:54:51Z</time>
      </trkpt>
      <trkpt lat="50.69269" lon="1.61882">
        <ele>10</ele>
        <time>2020-06-22T17:54:52Z</time>
      </trkpt>
      <trkpt lat="50.69271" lon="1.61877">
        <ele>10.2</ele>
        <time>2020-06-22T17:54:53Z</time>
      </trkpt>
      <trkpt lat="50.69273" lon="1.61873">
        <ele>10.5</ele>
        <time>2020-06-22T17:54:54Z</time>
      </trkpt>
      <trkpt lat="50.69275" lon="1.61868">
        <ele>10.8</ele>
        <time>2020-06-22T17:54:55Z</time>
      </trkpt>
      <trkpt lat="50.69276" lon="1.61866">
        <ele>10.9</ele>
        <time>2020-06-22T17:54:56Z</time>
      </trkpt>
      <trkpt lat="50.69278" lon="1.61862">
        <ele>11.1</ele>
        <time>2020-06-22T17:54:57Z</time>
      </trkpt>
      <trkpt lat="50.69279" lon="1.61858">
        <ele>11.3</ele>
        <time>2020-06-22T17:54:58Z</time>
      </trkpt>
      <trkpt lat="50.69282" lon="1.61853">
        <ele>11.6</ele>
        <time>2020-06-22T17:54:59Z</time>
      </trkpt>
      <trkpt lat="50.69283" lon="1.6185">
        <ele>11.8</ele>
        <time>2020-06-22T17:55:00Z</time>
      </trkpt>
      <trkpt lat="50.69285" lon="1.61845">
        <ele>12.1</ele>
        <time>2020-06-22T17:55:01Z</time>
      </trkpt>
      <trkpt lat="50.69287" lon="1.61841">
        <ele>12.3</ele>
        <time>2020-06-22T17:55:02Z</time>
      </trkpt>
      <trkpt lat="50.6929" lon="1.61835">
        <ele>12.7</ele>
        <time>2020-06-22T17:55:03Z</time>
      </trkpt>
      <trkpt lat="50.69291" lon="1.6183">
        <ele>13</ele>
        <time>2020-06-22T17:55:04Z</time>
      </trkpt>
      <trkpt lat="50.69293" lon="1.61824">
        <ele>13.3</ele>
        <time>2020-06-22T17:55:05Z</time>
      </trkpt>
      <trkpt lat="50.69294" lon="1.61822">
        <ele>13.4</ele>
        <time>2020-06-22T17:55:06Z</time>
      </trkpt>
      <trkpt lat="50.69296" lon="1.61816">
        <ele>13.8</ele>
        <time>2020-06-22T17:55:07Z</time>
      </trkpt>
      <trkpt lat="50.69299" lon="1.6181">
        <ele>14.1</ele>
        <time>2020-06-22T17:55:08Z</time>
      </trkpt>
      <trkpt lat="50.69302" lon="1.61804">
        <ele>14.5</ele>
        <time>2020-06-22T17:55:09Z</time>
      </trkpt>
      <trkpt lat="50.69305" lon="1.61798">
        <ele>14.9</ele>
        <time>2020-06-22T17:55:10Z</time>
      </trkpt>
      <trkpt lat="50.69307" lon="1.61794">
        <ele>15.2</ele>
        <time>2020-06-22T17:55:11Z</time>
      </trkpt>
      <trkpt lat="50.69309" lon="1.61788">
        <ele>15.5</ele>
        <time>2020-06-22T17:55:12Z</time>
      </trkpt>
      <trkpt lat="50.69311" lon="1.61783">
        <ele>15.8</ele>
        <time>2020-06-22T17:55:13Z</time>
      </trkpt>
      <trkpt lat="50.69313" lon="1.61778">
        <ele>16.2</ele>
        <time>2020-06-22T17:55:14Z</time>
      </trkpt>
      <trkpt lat="50.69315" lon="1.61772">
        <ele>16.5</ele>
        <time>2020-06-22T17:55:15Z</time>
      </trkpt>
      <trkpt lat="50.69318" lon="1.61765">
        <ele>16.9</ele>
        <time>2020-06-22T17:55:16Z</time>
      </trkpt>
      <trkpt lat="50.6932" lon="1.6176">
        <ele>17.2</ele>
        <time>2020-06-22T17:55:17Z</time>
      </trkpt>
      <trkpt lat="50.69323" lon="1.61754">
        <ele>17.6</ele>
        <time>2020-06-22T17:55:18Z</time>
      </trkpt>
      <trkpt lat="50.69325" lon="1.6175">
        <ele>18</ele>
        <time>2020-06-22T17:55:19Z</time>
      </trkpt>
      <trkpt lat="50.69328" lon="1.61744">
        <ele>18.3</ele>
        <time>2020-06-22T17:55:20Z</time>
      </trkpt>
      <trkpt lat="50.6933" lon="1.61739">
        <ele>18.6</ele>
        <time>2020-06-22T17:55:21Z</time>
      </trkpt>
      <trkpt lat="50.69332" lon="1.61733">
        <ele>19</ele>
        <time>2020-06-22T17:55:22Z</time>
      </trkpt>
      <trkpt lat="50.69334" lon="1.61727">
        <ele>19.4</ele>
        <time>2020-06-22T17:55:23Z</time>
      </trkpt>
      <trkpt lat="50.69337" lon="1.61722">
        <ele>19.8</ele>
        <time>2020-06-22T17:55:24Z</time>
      </trkpt>
      <trkpt lat="50.69339" lon="1.61715">
        <ele>20.2</ele>
        <time>2020-06-22T17:55:25Z</time>
      </trkpt>
      <trkpt lat="50.69341" lon="1.61711">
        <ele>20.5</ele>
        <time>2020-06-22T17:55:26Z</time>
      </trkpt>
      <trkpt lat="50.69344" lon="1.61704">
        <ele>20.9</ele>
        <time>2020-06-22T17:55:27Z</time>
      </trkpt>
      <trkpt lat="50.69346" lon="1.61698">
        <ele>21.3</ele>
        <time>2020-06-22T17:55:28Z</time>
      </trkpt>
      <trkpt lat="50.69348" lon="1.61692">
        <ele>21.6</ele>
        <time>2020-06-22T17:55:29Z</time>
      </trkpt>
      <trkpt lat="50.69351" lon="1.61684">
        <ele>22.1</ele>
        <time>2020-06-22T17:55:30Z</time>
      </trkpt>
      <trkpt lat="50.69353" lon="1.61679">
        <ele>22.3</ele>
        <time>2020-06-22T17:55:31Z</time>
      </trkpt>
      <trkpt lat="50.69354" lon="1.61674">
        <ele>22.6</ele>
        <time>2020-06-22T17:55:32Z</time>
      </trkpt>
      <trkpt lat="50.69356" lon="1.61668">
        <ele>23</ele>
        <time>2020-06-22T17:55:33Z</time>
      </trkpt>
      <trkpt lat="50.69357" lon="1.61662">
        <ele>23.4</ele>
        <time>2020-06-22T17:55:34Z</time>
      </trkpt>
      <trkpt lat="50.69359" lon="1.61657">
        <ele>23.7</ele>
        <time>2020-06-22T17:55:35Z</time>
      </trkpt>
      <trkpt lat="50.69361" lon="1.61653">
        <ele>24.1</ele>
        <time>2020-06-22T17:55:36Z</time>
      </trkpt>
      <trkpt lat="50.69363" lon="1.61648">
        <ele>24.4</ele>
        <time>2020-06-22T17:55:37Z</time>
      </trkpt>
      <trkpt lat="50.69363" lon="1.61646">
        <ele>24.5</ele>
        <time>2020-06-22T17:55:38Z</time>
      </trkpt>
      <trkpt lat="50.69364" lon="1.61639">
        <ele>25</ele>
        <time>2020-06-22T17:55:39Z</time>
      </trkpt>
      <trkpt lat="50.69366" lon="1.61634">
        <ele>25.4</ele>
        <time>2020-06-22T17:55:40Z</time>
      </trkpt>
      <trkpt lat="50.69366" lon="1.61632">
        <ele>25.5</ele>
        <time>2020-06-22T17:55:41Z</time>
      </trkpt>
      <trkpt lat="50.69367" lon="1.61628">
        <ele>25.8</ele>
        <time>2020-06-22T17:55:42Z</time>
      </trkpt>
      <trkpt lat="50.69368" lon="1.61626">
        <ele>25.9</ele>
        <time>2020-06-22T17:55:43Z</time>
      </trkpt>
      <trkpt lat="50.69369" lon="1.61621">
        <ele>26.3</ele>
        <time>2020-06-22T17:55:44Z</time>
      </trkpt>
      <trkpt lat="50.69372" lon="1.61618">
        <ele>26.6</ele>
        <time>2020-06-22T17:55:45Z</time>
      </trkpt>
      <trkpt lat="50.69373" lon="1.61615">
        <ele>26.8</ele>
        <time>2020-06-22T17:55:46Z</time>
      </trkpt>
      <trkpt lat="50.69374" lon="1.61613">
        <ele>26.9</ele>
        <time>2020-06-22T17:55:47Z</time>
      </trkpt>
      <trkpt lat="50.69377" lon="1.61609">
        <ele>27.3</ele>
        <time>2020-06-22T17:55:48Z</time>
      </trkpt>
      <trkpt lat="50.69378" lon="1.61608">
        <ele>27.4</ele>
        <time>2020-06-22T17:55:49Z</time>
      </trkpt>
      <trkpt lat="50.69379" lon="1.61603">
        <ele>27.7</ele>
        <time>2020-06-22T17:55:50Z</time>
      </trkpt>
      <trkpt lat="50.69381" lon="1.61599">
        <ele>28</ele>
        <time>2020-06-22T17:55:51Z</time>
      </trkpt>
      <trkpt lat="50.69383" lon="1.61594">
        <ele>28.4</ele>
        <time>2020-06-22T17:55:52Z</time>
      </trkpt>
      <trkpt lat="50.69383" lon="1.61592">
        <ele>28.5</ele>
        <time>2020-06-22T17:55:53Z</time>
      </trkpt>
      <trkpt lat="50.69385" lon="1.61587">
        <ele>28.9</ele>
        <time>2020-06-22T17:55:54Z</time>
      </trkpt>
      <trkpt lat="50.69386" lon="1.61586">
        <ele>29</ele>
        <time>2020-06-22T17:55:55Z</time>
      </trkpt>
      <trkpt lat="50.69387" lon="1.61582">
        <ele>29.2</ele>
        <time>2020-06-22T17:55:56Z</time>
      </trkpt>
      <trkpt lat="50.69389" lon="1.61579">
        <ele>29.5</ele>
        <time>2020-06-22T17:55:57Z</time>
      </trkpt>
      <trkpt lat="50.6939" lon="1.61578">
        <ele>29.6</ele>
        <time>2020-06-22T17:55:58Z</time>
      </trkpt>
      <trkpt lat="50.69391" lon="1.61576">
        <ele>29.7</ele>
        <time>2020-06-22T17:55:59Z</time>
      </trkpt>
      <trkpt lat="50.69392" lon="1.61575">
        <ele>29.8</ele>
        <time>2020-06-22T17:56:00Z</time>
      </trkpt>
      <trkpt lat="50.69394" lon="1.61569">
        <ele>30.1</ele>
        <time>2020-06-22T17:56:01Z</time>
      </trkpt>
      <trkpt lat="50.69394" lon="1.61567">
        <ele>30.3</ele>
        <time>2020-06-22T17:56:02Z</time>
      </trkpt>
      <trkpt lat="50.69396" lon="1.61563">
        <ele>30.5</ele>
        <time>2020-06-22T17:56:03Z</time>
      </trkpt>
      <trkpt lat="50.69398" lon="1.61559">
        <ele>30.8</ele>
        <time>2020-06-22T17:56:04Z</time>
      </trkpt>
      <trkpt lat="50.69398" lon="1.61555">
        <ele>31</ele>
        <time>2020-06-22T17:56:05Z</time>
      </trkpt>
      <trkpt lat="50.69399" lon="1.61553">
        <ele>31.2</ele>
        <time>2020-06-22T17:56:06Z</time>
      </trkpt>
      <trkpt lat="50.69401" lon="1.61549">
        <ele>31.4</ele>
        <time>2020-06-22T17:56:07Z</time>
      </trkpt>
      <trkpt lat="50.69402" lon="1.61545">
        <ele>31.7</ele>
        <time>2020-06-22T17:56:08Z</time>
      </trkpt>
      <trkpt lat="50.69405" lon="1.61539">
        <ele>32</ele>
        <time>2020-06-22T17:56:09Z</time>
      </trkpt>
      <trkpt lat="50.69406" lon="1.61537">
        <ele>32.2</ele>
        <time>2020-06-22T17:56:10Z</time>
      </trkpt>
      <trkpt lat="50.69407" lon="1.61532">
        <ele>32.4</ele>
        <time>2020-06-22T17:56:11Z</time>
      </trkpt>
      <trkpt lat="50.69409" lon="1.61528">
        <ele>32.7</ele>
        <time>2020-06-22T17:56:12Z</time>
      </trkpt>
      <trkpt lat="50.69411" lon="1.61524">
        <ele>32.9</ele>
        <time>2020-06-22T17:56:13Z</time>
      </trkpt>
      <trkpt lat="50.69412" lon="1.61523">
        <ele>33</ele>
        <time>2020-06-22T17:56:14Z</time>
      </trkpt>
      <trkpt lat="50.69413" lon="1.61519">
        <ele>33.3</ele>
        <time>2020-06-22T17:56:15Z</time>
      </trkpt>
      <trkpt lat="50.69415" lon="1.61515">
        <ele>33.5</ele>
        <time>2020-06-22T17:56:16Z</time>
      </trkpt>
      <trkpt lat="50.69417" lon="1.61511">
        <ele>33.7</ele>
        <time>2020-06-22T17:56:17Z</time>
      </trkpt>
      <trkpt lat="50.69419" lon="1.61507">
        <ele>34</ele>
        <time>2020-06-22T17:56:18Z</time>
      </trkpt>
      <trkpt lat="50.6942" lon="1.61506">
        <ele>34.1</ele>
        <time>2020-06-22T17:56:19Z</time>
      </trkpt>
      <trkpt lat="50.69422" lon="1.61503">
        <ele>34.3</ele>
        <time>2020-06-22T17:56:20Z</time>
      </trkpt>
      <trkpt lat="50.69423" lon="1.61501">
        <ele>34.4</ele>
        <time>2020-06-22T17:56:21Z</time>
      </trkpt>
      <trkpt lat="50.69425" lon="1.61498">
        <ele>34.7</ele>
        <time>2020-06-22T17:56:22Z</time>
      </trkpt>
      <trkpt lat="50.69427" lon="1.61494">
        <ele>34.9</ele>
        <time>2020-06-22T17:56:23Z</time>
      </trkpt>
      <trkpt lat="50.69429" lon="1.61491">
        <ele>35.2</ele>
        <time>2020-06-22T17:56:24Z</time>
      </trkpt>
      <trkpt lat="50.69431" lon="1.61487">
        <ele>35.4</ele>
        <time>2020-06-22T17:56:25Z</time>
      </trkpt>
      <trkpt lat="50.69432" lon="1.61485">
        <ele>35.5</ele>
        <time>2020-06-22T17:56:26Z</time>
      </trkpt>
      <trkpt lat="50.69435" lon="1.61483">
        <ele>35.7</ele>
        <time>2020-06-22T17:56:27Z</time>
      </trkpt>
      <trkpt lat="50.69438" lon="1.6148">
        <ele>35.9</ele>
        <time>2020-06-22T17:56:28Z</time>
      </trkpt>
      <trkpt lat="50.69439" lon="1.61479">
        <ele>35.9</ele>
        <time>2020-06-22T17:56:29Z</time>
      </trkpt>
      <trkpt lat="50.69441" lon="1.61476">
        <ele>36.1</ele>
        <time>2020-06-22T17:56:30Z</time>
      </trkpt>
      <trkpt lat="50.69443" lon="1.61475">
        <ele>36.1</ele>
        <time>2020-06-22T17:56:31Z</time>
      </trkpt>
      <trkpt lat="50.69446" lon="1.61472">
        <ele>36.3</ele>
        <time>2020-06-22T17:56:32Z</time>
      </trkpt>
      <trkpt lat="50.6945" lon="1.61468">
        <ele>36.5</ele>
        <time>2020-06-22T17:56:33Z</time>
      </trkpt>
      <trkpt lat="50.69453" lon="1.61463">
        <ele>36.7</ele>
        <time>2020-06-22T17:56:34Z</time>
      </trkpt>
      <trkpt lat="50.69456" lon="1.6146">
        <ele>36.8</ele>
        <time>2020-06-22T17:56:35Z</time>
      </trkpt>
      <trkpt lat="50.69459" lon="1.61457">
        <ele>36.9</ele>
        <time>2020-06-22T17:56:36Z</time>
      </trkpt>
      <trkpt lat="50.69463" lon="1.61454">
        <ele>37</ele>
        <time>2020-06-22T17:56:37Z</time>
      </trkpt>
      <trkpt lat="50.69466" lon="1.61453">
        <ele>37.1</ele>
        <time>2020-06-22T17:56:38Z</time>
      </trkpt>
      <trkpt lat="50.6947" lon="1.61451">
        <ele>37.1</ele>
        <time>2020-06-22T17:56:39Z</time>
      </trkpt>
      <trkpt lat="50.69473" lon="1.61449">
        <ele>37.1</ele>
        <time>2020-06-22T17:56:40Z</time>
      </trkpt>
      <trkpt lat="50.69476" lon="1.61448">
        <ele>37.2</ele>
        <time>2020-06-22T17:56:41Z</time>
      </trkpt>
      <trkpt lat="50.6948" lon="1.61447">
        <ele>37.2</ele>
        <time>2020-06-22T17:56:42Z</time>
      </trkpt>
      <trkpt lat="50.69483" lon="1.61446">
        <ele>37.2</ele>
        <time>2020-06-22T17:56:43Z</time>
      </trkpt>
      <trkpt lat="50.69487" lon="1.61445">
        <ele>37.2</ele>
        <time>2020-06-22T17:56:44Z</time>
      </trkpt>
      <trkpt lat="50.69491" lon="1.61444">
        <ele>37.3</ele>
        <time>2020-06-22T17:56:45Z</time>
      </trkpt>
      <trkpt lat="50.69494" lon="1.61443">
        <ele>37.3</ele>
        <time>2020-06-22T17:56:46Z</time>
      </trkpt>
      <trkpt lat="50.69498" lon="1.61442">
        <ele>37.4</ele>
        <time>2020-06-22T17:56:47Z</time>
      </trkpt>
      <trkpt lat="50.69501" lon="1.61442">
        <ele>37.4</ele>
        <time>2020-06-22T17:56:48Z</time>
      </trkpt>
      <trkpt lat="50.69503" lon="1.61442">
        <ele>37.4</ele>
        <time>2020-06-22T17:56:49Z</time>
      </trkpt>
      <trkpt lat="50.69506" lon="1.61442">
        <ele>37.5</ele>
        <time>2020-06-22T17:56:50Z</time>
      </trkpt>
      <trkpt lat="50.6951" lon="1.61441">
        <ele>37.5</ele>
        <time>2020-06-22T17:56:51Z</time>
      </trkpt>
      <trkpt lat="50.69514" lon="1.6144">
        <ele>37.6</ele>
        <time>2020-06-22T17:56:52Z</time>
      </trkpt>
      <trkpt lat="50.69517" lon="1.61439">
        <ele>37.6</ele>
        <time>2020-06-22T17:56:53Z</time>
      </trkpt>
      <trkpt lat="50.6952" lon="1.61439">
        <ele>37.6</ele>
        <time>2020-06-22T17:56:54Z</time>
      </trkpt>
      <trkpt lat="50.69524" lon="1.61439">
        <ele>37.6</ele>
        <time>2020-06-22T17:56:55Z</time>
      </trkpt>
      <trkpt lat="50.69527" lon="1.61438">
        <ele>37.6</ele>
        <time>2020-06-22T17:56:56Z</time>
      </trkpt>
      <trkpt lat="50.69533" lon="1.61437">
        <ele>37.6</ele>
        <time>2020-06-22T17:56:57Z</time>
      </trkpt>
      <trkpt lat="50.69537" lon="1.61436">
        <ele>37.6</ele>
        <time>2020-06-22T17:56:58Z</time>
      </trkpt>
      <trkpt lat="50.69542" lon="1.61433">
        <ele>37.5</ele>
        <time>2020-06-22T17:56:59Z</time>
      </trkpt>
      <trkpt lat="50.69545" lon="1.61435">
        <ele>37.5</ele>
        <time>2020-06-22T17:57:00Z</time>
      </trkpt>
      <trkpt lat="50.69548" lon="1.61433">
        <ele>37.3</ele>
        <time>2020-06-22T17:57:01Z</time>
      </trkpt>
      <trkpt lat="50.69552" lon="1.61433">
        <ele>37.3</ele>
        <time>2020-06-22T17:57:02Z</time>
      </trkpt>
      <trkpt lat="50.69556" lon="1.61433">
        <ele>37.2</ele>
        <time>2020-06-22T17:57:03Z</time>
      </trkpt>
      <trkpt lat="50.6956" lon="1.61432">
        <ele>37.1</ele>
        <time>2020-06-22T17:57:04Z</time>
      </trkpt>
      <trkpt lat="50.69561" lon="1.61431">
        <ele>37.1</ele>
        <time>2020-06-22T17:57:05Z</time>
      </trkpt>
      <trkpt lat="50.69566" lon="1.6143">
        <ele>37</ele>
        <time>2020-06-22T17:57:06Z</time>
      </trkpt>
      <trkpt lat="50.69571" lon="1.61427">
        <ele>36.8</ele>
        <time>2020-06-22T17:57:07Z</time>
      </trkpt>
      <trkpt lat="50.69576" lon="1.61424">
        <ele>36.7</ele>
        <time>2020-06-22T17:57:08Z</time>
      </trkpt>
      <trkpt lat="50.69582" lon="1.61422">
        <ele>36.7</ele>
        <time>2020-06-22T17:57:09Z</time>
      </trkpt>
      <trkpt lat="50.69588" lon="1.61423">
        <ele>36.7</ele>
        <time>2020-06-22T17:57:10Z</time>
      </trkpt>
      <trkpt lat="50.69592" lon="1.61425">
        <ele>36.7</ele>
        <time>2020-06-22T17:57:11Z</time>
      </trkpt>
      <trkpt lat="50.69598" lon="1.61427">
        <ele>36.8</ele>
        <time>2020-06-22T17:57:12Z</time>
      </trkpt>
      <trkpt lat="50.69603" lon="1.61428">
        <ele>36.8</ele>
        <time>2020-06-22T17:57:13Z</time>
      </trkpt>
      <trkpt lat="50.69607" lon="1.61427">
        <ele>36.9</ele>
        <time>2020-06-22T17:57:14Z</time>
      </trkpt>
      <trkpt lat="50.69611" lon="1.61425">
        <ele>36.9</ele>
        <time>2020-06-22T17:57:15Z</time>
      </trkpt>
      <trkpt lat="50.69616" lon="1.61424">
        <ele>37</ele>
        <time>2020-06-22T17:57:16Z</time>
      </trkpt>
      <trkpt lat="50.69621" lon="1.61424">
        <ele>37</ele>
        <time>2020-06-22T17:57:17Z</time>
      </trkpt>
      <trkpt lat="50.69624" lon="1.61424">
        <ele>37</ele>
        <time>2020-06-22T17:57:18Z</time>
      </trkpt>
      <trkpt lat="50.69629" lon="1.61423">
        <ele>37</ele>
        <time>2020-06-22T17:57:19Z</time>
      </trkpt>
      <trkpt lat="50.69633" lon="1.61422">
        <ele>37.1</ele>
        <time>2020-06-22T17:57:20Z</time>
      </trkpt>
      <trkpt lat="50.69636" lon="1.61422">
        <ele>37.1</ele>
        <time>2020-06-22T17:57:21Z</time>
      </trkpt>
      <trkpt lat="50.69639" lon="1.61419">
        <ele>37.1</ele>
        <time>2020-06-22T17:57:22Z</time>
      </trkpt>
      <trkpt lat="50.69641" lon="1.61418">
        <ele>37.1</ele>
        <time>2020-06-22T17:57:23Z</time>
      </trkpt>
      <trkpt lat="50.69644" lon="1.61417">
        <ele>37.2</ele>
        <time>2020-06-22T17:57:24Z</time>
      </trkpt>
      <trkpt lat="50.69648" lon="1.61415">
        <ele>37.2</ele>
        <time>2020-06-22T17:57:25Z</time>
      </trkpt>
      <trkpt lat="50.69652" lon="1.61413">
        <ele>37.2</ele>
        <time>2020-06-22T17:57:26Z</time>
      </trkpt>
      <trkpt lat="50.69656" lon="1.61411">
        <ele>37.2</ele>
        <time>2020-06-22T17:57:27Z</time>
      </trkpt>
      <trkpt lat="50.69659" lon="1.61408">
        <ele>37.2</ele>
        <time>2020-06-22T17:57:28Z</time>
      </trkpt>
      <trkpt lat="50.69664" lon="1.61406">
        <ele>37.2</ele>
        <time>2020-06-22T17:57:29Z</time>
      </trkpt>
      <trkpt lat="50.69669" lon="1.61403">
        <ele>37.1</ele>
        <time>2020-06-22T17:57:30Z</time>
      </trkpt>
      <trkpt lat="50.69675" lon="1.61401">
        <ele>37</ele>
        <time>2020-06-22T17:57:31Z</time>
      </trkpt>
      <trkpt lat="50.6968" lon="1.61399">
        <ele>36.9</ele>
        <time>2020-06-22T17:57:32Z</time>
      </trkpt>
      <trkpt lat="50.69684" lon="1.61397">
        <ele>36.9</ele>
        <time>2020-06-22T17:57:33Z</time>
      </trkpt>
      <trkpt lat="50.69689" lon="1.61395">
        <ele>36.6</ele>
        <time>2020-06-22T17:57:34Z</time>
      </trkpt>
      <trkpt lat="50.69694" lon="1.61393">
        <ele>36.5</ele>
        <time>2020-06-22T17:57:35Z</time>
      </trkpt>
      <trkpt lat="50.69697" lon="1.6139">
        <ele>36.3</ele>
        <time>2020-06-22T17:57:36Z</time>
      </trkpt>
      <trkpt lat="50.69702" lon="1.61388">
        <ele>36.1</ele>
        <time>2020-06-22T17:57:37Z</time>
      </trkpt>
      <trkpt lat="50.69707" lon="1.61385">
        <ele>35.9</ele>
        <time>2020-06-22T17:57:38Z</time>
      </trkpt>
      <trkpt lat="50.69713" lon="1.61382">
        <ele>35.5</ele>
        <time>2020-06-22T17:57:39Z</time>
      </trkpt>
      <trkpt lat="50.69719" lon="1.61379">
        <ele>35.1</ele>
        <time>2020-06-22T17:57:40Z</time>
      </trkpt>
      <trkpt lat="50.69725" lon="1.61375">
        <ele>34.7</ele>
        <time>2020-06-22T17:57:41Z</time>
      </trkpt>
      <trkpt lat="50.69731" lon="1.61371">
        <ele>34.3</ele>
        <time>2020-06-22T17:57:42Z</time>
      </trkpt>
      <trkpt lat="50.69737" lon="1.61367">
        <ele>33.7</ele>
        <time>2020-06-22T17:57:43Z</time>
      </trkpt>
      <trkpt lat="50.69745" lon="1.61362">
        <ele>33.1</ele>
        <time>2020-06-22T17:57:44Z</time>
      </trkpt>
      <trkpt lat="50.69753" lon="1.61358">
        <ele>32.4</ele>
        <time>2020-06-22T17:57:45Z</time>
      </trkpt>
      <trkpt lat="50.69762" lon="1.61355">
        <ele>31.5</ele>
        <time>2020-06-22T17:57:46Z</time>
      </trkpt>
      <trkpt lat="50.69771" lon="1.61351">
        <ele>30.8</ele>
        <time>2020-06-22T17:57:47Z</time>
      </trkpt>
      <trkpt lat="50.6978" lon="1.61347">
        <ele>30</ele>
        <time>2020-06-22T17:57:48Z</time>
      </trkpt>
      <trkpt lat="50.69788" lon="1.61344">
        <ele>29.3</ele>
        <time>2020-06-22T17:57:49Z</time>
      </trkpt>
      <trkpt lat="50.69797" lon="1.61341">
        <ele>28.5</ele>
        <time>2020-06-22T17:57:50Z</time>
      </trkpt>
      <trkpt lat="50.69805" lon="1.6134">
        <ele>27.9</ele>
        <time>2020-06-22T17:57:51Z</time>
      </trkpt>
      <trkpt lat="50.69813" lon="1.61338">
        <ele>27.2</ele>
        <time>2020-06-22T17:57:52Z</time>
      </trkpt>
      <trkpt lat="50.69822" lon="1.61337">
        <ele>26.5</ele>
        <time>2020-06-22T17:57:53Z</time>
      </trkpt>
      <trkpt lat="50.69831" lon="1.61335">
        <ele>25.7</ele>
        <time>2020-06-22T17:57:54Z</time>
      </trkpt>
      <trkpt lat="50.6984" lon="1.61332">
        <ele>24.8</ele>
        <time>2020-06-22T17:57:55Z</time>
      </trkpt>
      <trkpt lat="50.69849" lon="1.6133">
        <ele>24</ele>
        <time>2020-06-22T17:57:56Z</time>
      </trkpt>
      <trkpt lat="50.69859" lon="1.61327">
        <ele>23.1</ele>
        <time>2020-06-22T17:57:57Z</time>
      </trkpt>
      <trkpt lat="50.69869" lon="1.61325">
        <ele>22.3</ele>
        <time>2020-06-22T17:57:58Z</time>
      </trkpt>
      <trkpt lat="50.69879" lon="1.61323">
        <ele>22</ele>
        <time>2020-06-22T17:57:59Z</time>
      </trkpt>
      <trkpt lat="50.69888" lon="1.61321">
        <ele>22</ele>
        <time>2020-06-22T17:58:00Z</time>
      </trkpt>
      <trkpt lat="50.69905" lon="1.61317">
        <ele>22.1</ele>
        <time>2020-06-22T17:58:01Z</time>
      </trkpt>
      <trkpt lat="50.69911" lon="1.61315">
        <ele>22.3</ele>
        <time>2020-06-22T17:58:02Z</time>
      </trkpt>
      <trkpt lat="50.69917" lon="1.61313">
        <ele>22.4</ele>
        <time>2020-06-22T17:58:03Z</time>
      </trkpt>
      <trkpt lat="50.69926" lon="1.61312">
        <ele>22.6</ele>
        <time>2020-06-22T17:58:04Z</time>
      </trkpt>
      <trkpt lat="50.69934" lon="1.61311">
        <ele>22.7</ele>
        <time>2020-06-22T17:58:05Z</time>
      </trkpt>
      <trkpt lat="50.69941" lon="1.6131">
        <ele>22.9</ele>
        <time>2020-06-22T17:58:06Z</time>
      </trkpt>
      <trkpt lat="50.69949" lon="1.61313">
        <ele>23</ele>
        <time>2020-06-22T17:58:07Z</time>
      </trkpt>
      <trkpt lat="50.69955" lon="1.61313">
        <ele>23.2</ele>
        <time>2020-06-22T17:58:08Z</time>
      </trkpt>
      <trkpt lat="50.69961" lon="1.61313">
        <ele>23.2</ele>
        <time>2020-06-22T17:58:09Z</time>
      </trkpt>
      <trkpt lat="50.69967" lon="1.61314">
        <ele>23.3</ele>
        <time>2020-06-22T17:58:10Z</time>
      </trkpt>
      <trkpt lat="50.69973" lon="1.61315">
        <ele>23.4</ele>
        <time>2020-06-22T17:58:11Z</time>
      </trkpt>
      <trkpt lat="50.69978" lon="1.61317">
        <ele>23.5</ele>
        <time>2020-06-22T17:58:12Z</time>
      </trkpt>
      <trkpt lat="50.69984" lon="1.61319">
        <ele>23.5</ele>
        <time>2020-06-22T17:58:13Z</time>
      </trkpt>
      <trkpt lat="50.69989" lon="1.6132">
        <ele>23.6</ele>
        <time>2020-06-22T17:58:14Z</time>
      </trkpt>
      <trkpt lat="50.69994" lon="1.61323">
        <ele>23.7</ele>
        <time>2020-06-22T17:58:15Z</time>
      </trkpt>
      <trkpt lat="50.7" lon="1.61324">
        <ele>23.8</ele>
        <time>2020-06-22T17:58:16Z</time>
      </trkpt>
      <trkpt lat="50.70005" lon="1.61324">
        <ele>23.9</ele>
        <time>2020-06-22T17:58:17Z</time>
      </trkpt>
      <trkpt lat="50.7001" lon="1.61325">
        <ele>23.9</ele>
        <time>2020-06-22T17:58:18Z</time>
      </trkpt>
      <trkpt lat="50.70014" lon="1.61326">
        <ele>23.9</ele>
        <time>2020-06-22T17:58:19Z</time>
      </trkpt>
      <trkpt lat="50.70018" lon="1.61327">
        <ele>23.9</ele>
        <time>2020-06-22T17:58:20Z</time>
      </trkpt>
      <trkpt lat="50.70023" lon="1.61328">
        <ele>23.9</ele>
        <time>2020-06-22T17:58:21Z</time>
      </trkpt>
      <trkpt lat="50.70027" lon="1.61329">
        <ele>23.8</ele>
        <time>2020-06-22T17:58:22Z</time>
      </trkpt>
      <trkpt lat="50.70032" lon="1.61329">
        <ele>23.7</ele>
        <time>2020-06-22T17:58:23Z</time>
      </trkpt>
      <trkpt lat="50.70038" lon="1.61328">
        <ele>23.6</ele>
        <time>2020-06-22T17:58:24Z</time>
      </trkpt>
      <trkpt lat="50.70044" lon="1.61326">
        <ele>23.5</ele>
        <time>2020-06-22T17:58:25Z</time>
      </trkpt>
      <trkpt lat="50.7005" lon="1.61325">
        <ele>23.4</ele>
        <time>2020-06-22T17:58:26Z</time>
      </trkpt>
      <trkpt lat="50.70056" lon="1.61324">
        <ele>23.2</ele>
        <time>2020-06-22T17:58:27Z</time>
      </trkpt>
      <trkpt lat="50.70063" lon="1.61324">
        <ele>23.1</ele>
        <time>2020-06-22T17:58:28Z</time>
      </trkpt>
      <trkpt lat="50.7007" lon="1.61322">
        <ele>22.8</ele>
        <time>2020-06-22T17:58:29Z</time>
      </trkpt>
      <trkpt lat="50.70078" lon="1.61321">
        <ele>22.6</ele>
        <time>2020-06-22T17:58:30Z</time>
      </trkpt>
      <trkpt lat="50.70085" lon="1.6132">
        <ele>22.4</ele>
        <time>2020-06-22T17:58:31Z</time>
      </trkpt>
      <trkpt lat="50.70092" lon="1.6132">
        <ele>22.2</ele>
        <time>2020-06-22T17:58:32Z</time>
      </trkpt>
      <trkpt lat="50.70099" lon="1.6132">
        <ele>22.1</ele>
        <time>2020-06-22T17:58:33Z</time>
      </trkpt>
      <trkpt lat="50.70106" lon="1.6132">
        <ele>21.9</ele>
        <time>2020-06-22T17:58:34Z</time>
      </trkpt>
      <trkpt lat="50.70113" lon="1.61318">
        <ele>21.8</ele>
        <time>2020-06-22T17:58:35Z</time>
      </trkpt>
      <trkpt lat="50.7012" lon="1.61316">
        <ele>21.7</ele>
        <time>2020-06-22T17:58:36Z</time>
      </trkpt>
      <trkpt lat="50.70126" lon="1.61315">
        <ele>21.5</ele>
        <time>2020-06-22T17:58:37Z</time>
      </trkpt>
      <trkpt lat="50.70133" lon="1.61312">
        <ele>21.4</ele>
        <time>2020-06-22T17:58:38Z</time>
      </trkpt>
      <trkpt lat="50.70139" lon="1.61311">
        <ele>21.3</ele>
        <time>2020-06-22T17:58:39Z</time>
      </trkpt>
      <trkpt lat="50.70146" lon="1.61308">
        <ele>21.1</ele>
        <time>2020-06-22T17:58:40Z</time>
      </trkpt>
      <trkpt lat="50.70151" lon="1.61306">
        <ele>21</ele>
        <time>2020-06-22T17:58:41Z</time>
      </trkpt>
      <trkpt lat="50.70156" lon="1.61301">
        <ele>20.9</ele>
        <time>2020-06-22T17:58:42Z</time>
      </trkpt>
      <trkpt lat="50.70162" lon="1.613">
        <ele>20.8</ele>
        <time>2020-06-22T17:58:43Z</time>
      </trkpt>
      <trkpt lat="50.70167" lon="1.61299">
        <ele>20.7</ele>
        <time>2020-06-22T17:58:44Z</time>
      </trkpt>
      <trkpt lat="50.70173" lon="1.61299">
        <ele>20.6</ele>
        <time>2020-06-22T17:58:45Z</time>
      </trkpt>
      <trkpt lat="50.7018" lon="1.61299">
        <ele>20.5</ele>
        <time>2020-06-22T17:58:46Z</time>
      </trkpt>
      <trkpt lat="50.70187" lon="1.61302">
        <ele>20.4</ele>
        <time>2020-06-22T17:58:47Z</time>
      </trkpt>
      <trkpt lat="50.70194" lon="1.61304">
        <ele>20.3</ele>
        <time>2020-06-22T17:58:48Z</time>
      </trkpt>
      <trkpt lat="50.70201" lon="1.61306">
        <ele>20.1</ele>
        <time>2020-06-22T17:58:49Z</time>
      </trkpt>
      <trkpt lat="50.70207" lon="1.61307">
        <ele>20</ele>
        <time>2020-06-22T17:58:50Z</time>
      </trkpt>
      <trkpt lat="50.70212" lon="1.61308">
        <ele>19.9</ele>
        <time>2020-06-22T17:58:51Z</time>
      </trkpt>
      <trkpt lat="50.70218" lon="1.61309">
        <ele>19.7</ele>
        <time>2020-06-22T17:58:52Z</time>
      </trkpt>
      <trkpt lat="50.70225" lon="1.61312">
        <ele>19.5</ele>
        <time>2020-06-22T17:58:53Z</time>
      </trkpt>
      <trkpt lat="50.7023" lon="1.61314">
        <ele>19.4</ele>
        <time>2020-06-22T17:58:54Z</time>
      </trkpt>
      <trkpt lat="50.70236" lon="1.61316">
        <ele>19.2</ele>
        <time>2020-06-22T17:58:55Z</time>
      </trkpt>
      <trkpt lat="50.70241" lon="1.61318">
        <ele>19.1</ele>
        <time>2020-06-22T17:58:56Z</time>
      </trkpt>
      <trkpt lat="50.70246" lon="1.6132">
        <ele>18.9</ele>
        <time>2020-06-22T17:58:57Z</time>
      </trkpt>
      <trkpt lat="50.70251" lon="1.61322">
        <ele>18.7</ele>
        <time>2020-06-22T17:58:58Z</time>
      </trkpt>
      <trkpt lat="50.70257" lon="1.61325">
        <ele>18.5</ele>
        <time>2020-06-22T17:58:59Z</time>
      </trkpt>
      <trkpt lat="50.70262" lon="1.61327">
        <ele>18.3</ele>
        <time>2020-06-22T17:59:00Z</time>
      </trkpt>
      <trkpt lat="50.70268" lon="1.6133">
        <ele>18.1</ele>
        <time>2020-06-22T17:59:01Z</time>
      </trkpt>
      <trkpt lat="50.70273" lon="1.61332">
        <ele>17.9</ele>
        <time>2020-06-22T17:59:02Z</time>
      </trkpt>
      <trkpt lat="50.70279" lon="1.61334">
        <ele>17.7</ele>
        <time>2020-06-22T17:59:03Z</time>
      </trkpt>
      <trkpt lat="50.70285" lon="1.61334">
        <ele>17.5</ele>
        <time>2020-06-22T17:59:04Z</time>
      </trkpt>
      <trkpt lat="50.70291" lon="1.61337">
        <ele>17.2</ele>
        <time>2020-06-22T17:59:05Z</time>
      </trkpt>
      <trkpt lat="50.70297" lon="1.61339">
        <ele>17</ele>
        <time>2020-06-22T17:59:06Z</time>
      </trkpt>
      <trkpt lat="50.70303" lon="1.61342">
        <ele>16.7</ele>
        <time>2020-06-22T17:59:07Z</time>
      </trkpt>
      <trkpt lat="50.70308" lon="1.61343">
        <ele>16.5</ele>
        <time>2020-06-22T17:59:08Z</time>
      </trkpt>
      <trkpt lat="50.70314" lon="1.61344">
        <ele>16.2</ele>
        <time>2020-06-22T17:59:09Z</time>
      </trkpt>
      <trkpt lat="50.7032" lon="1.61346">
        <ele>16</ele>
        <time>2020-06-22T17:59:10Z</time>
      </trkpt>
      <trkpt lat="50.70325" lon="1.61348">
        <ele>15.7</ele>
        <time>2020-06-22T17:59:11Z</time>
      </trkpt>
      <trkpt lat="50.7033" lon="1.61349">
        <ele>15.5</ele>
        <time>2020-06-22T17:59:12Z</time>
      </trkpt>
      <trkpt lat="50.70335" lon="1.6135">
        <ele>15.2</ele>
        <time>2020-06-22T17:59:13Z</time>
      </trkpt>
      <trkpt lat="50.70339" lon="1.61349">
        <ele>15</ele>
        <time>2020-06-22T17:59:14Z</time>
      </trkpt>
      <trkpt lat="50.70341" lon="1.61347">
        <ele>14.8</ele>
        <time>2020-06-22T17:59:15Z</time>
      </trkpt>
      <trkpt lat="50.70344" lon="1.61346">
        <ele>14.2</ele>
        <time>2020-06-22T17:59:16Z</time>
      </trkpt>
      <trkpt lat="50.70348" lon="1.61348">
        <ele>14.2</ele>
        <time>2020-06-22T17:59:17Z</time>
      </trkpt>
      <trkpt lat="50.70349" lon="1.61349">
        <ele>14.2</ele>
        <time>2020-06-22T17:59:18Z</time>
      </trkpt>
      <trkpt lat="50.70352" lon="1.61351">
        <ele>14.3</ele>
        <time>2020-06-22T17:59:19Z</time>
      </trkpt>
      <trkpt lat="50.70355" lon="1.61354">
        <ele>14.2</ele>
        <time>2020-06-22T17:59:20Z</time>
      </trkpt>
      <trkpt lat="50.70358" lon="1.61357">
        <ele>14.1</ele>
        <time>2020-06-22T17:59:21Z</time>
      </trkpt>
      <trkpt lat="50.70361" lon="1.61361">
        <ele>13.9</ele>
        <time>2020-06-22T17:59:22Z</time>
      </trkpt>
      <trkpt lat="50.70364" lon="1.61364">
        <ele>13.8</ele>
        <time>2020-06-22T17:59:23Z</time>
      </trkpt>
      <trkpt lat="50.70368" lon="1.61368">
        <ele>13.6</ele>
        <time>2020-06-22T17:59:24Z</time>
      </trkpt>
      <trkpt lat="50.70373" lon="1.61372">
        <ele>13.3</ele>
        <time>2020-06-22T17:59:25Z</time>
      </trkpt>
      <trkpt lat="50.70378" lon="1.61375">
        <ele>13</ele>
        <time>2020-06-22T17:59:26Z</time>
      </trkpt>
      <trkpt lat="50.70385" lon="1.61377">
        <ele>12.6</ele>
        <time>2020-06-22T17:59:27Z</time>
      </trkpt>
      <trkpt lat="50.70391" lon="1.6138">
        <ele>12.2</ele>
        <time>2020-06-22T17:59:28Z</time>
      </trkpt>
      <trkpt lat="50.70398" lon="1.61383">
        <ele>11.7</ele>
        <time>2020-06-22T17:59:29Z</time>
      </trkpt>
      <trkpt lat="50.70406" lon="1.61383">
        <ele>11.2</ele>
        <time>2020-06-22T17:59:30Z</time>
      </trkpt>
      <trkpt lat="50.70413" lon="1.61385">
        <ele>10.7</ele>
        <time>2020-06-22T17:59:31Z</time>
      </trkpt>
      <trkpt lat="50.70421" lon="1.61386">
        <ele>10.2</ele>
        <time>2020-06-22T17:59:32Z</time>
      </trkpt>
      <trkpt lat="50.70429" lon="1.61386">
        <ele>9.7</ele>
        <time>2020-06-22T17:59:33Z</time>
      </trkpt>
      <trkpt lat="50.70438" lon="1.61386">
        <ele>8.8</ele>
        <time>2020-06-22T17:59:34Z</time>
      </trkpt>
      <trkpt lat="50.70447" lon="1.61385">
        <ele>8.9</ele>
        <time>2020-06-22T17:59:35Z</time>
      </trkpt>
      <trkpt lat="50.70455" lon="1.61382">
        <ele>9.2</ele>
        <time>2020-06-22T17:59:36Z</time>
      </trkpt>
      <trkpt lat="50.70463" lon="1.61379">
        <ele>8.8</ele>
        <time>2020-06-22T17:59:37Z</time>
      </trkpt>
      <trkpt lat="50.70471" lon="1.61377">
        <ele>8.5</ele>
        <time>2020-06-22T17:59:38Z</time>
      </trkpt>
      <trkpt lat="50.70479" lon="1.61373">
        <ele>8.1</ele>
        <time>2020-06-22T17:59:39Z</time>
      </trkpt>
      <trkpt lat="50.70487" lon="1.6137">
        <ele>7.5</ele>
        <time>2020-06-22T17:59:40Z</time>
      </trkpt>
      <trkpt lat="50.70494" lon="1.61365">
        <ele>7.5</ele>
        <time>2020-06-22T17:59:41Z</time>
      </trkpt>
      <trkpt lat="50.70501" lon="1.61363">
        <ele>8.2</ele>
        <time>2020-06-22T17:59:42Z</time>
      </trkpt>
      <trkpt lat="50.70507" lon="1.61363">
        <ele>8.2</ele>
        <time>2020-06-22T17:59:43Z</time>
      </trkpt>
      <trkpt lat="50.70513" lon="1.61367">
        <ele>8.8</ele>
        <time>2020-06-22T17:59:44Z</time>
      </trkpt>
      <trkpt lat="50.70518" lon="1.61372">
        <ele>8.9</ele>
        <time>2020-06-22T17:59:45Z</time>
      </trkpt>
      <trkpt lat="50.70522" lon="1.61377">
        <ele>8.9</ele>
        <time>2020-06-22T17:59:46Z</time>
      </trkpt>
      <trkpt lat="50.70527" lon="1.6138">
        <ele>9.2</ele>
        <time>2020-06-22T17:59:47Z</time>
      </trkpt>
      <trkpt lat="50.70532" lon="1.61381">
        <ele>9.3</ele>
        <time>2020-06-22T17:59:48Z</time>
      </trkpt>
      <trkpt lat="50.70538" lon="1.61379">
        <ele>9.4</ele>
        <time>2020-06-22T17:59:49Z</time>
      </trkpt>
      <trkpt lat="50.70543" lon="1.61375">
        <ele>9.5</ele>
        <time>2020-06-22T17:59:50Z</time>
      </trkpt>
      <trkpt lat="50.70546" lon="1.61369">
        <ele>9.5</ele>
        <time>2020-06-22T17:59:51Z</time>
      </trkpt>
      <trkpt lat="50.7055" lon="1.61362">
        <ele>9.5</ele>
        <time>2020-06-22T17:59:52Z</time>
      </trkpt>
      <trkpt lat="50.70552" lon="1.61354">
        <ele>9.4</ele>
        <time>2020-06-22T17:59:53Z</time>
      </trkpt>
      <trkpt lat="50.70555" lon="1.61347">
        <ele>9.3</ele>
        <time>2020-06-22T17:59:54Z</time>
      </trkpt>
      <trkpt lat="50.70559" lon="1.6134">
        <ele>9.2</ele>
        <time>2020-06-22T17:59:55Z</time>
      </trkpt>
      <trkpt lat="50.70564" lon="1.61335">
        <ele>9.1</ele>
        <time>2020-06-22T17:59:56Z</time>
      </trkpt>
      <trkpt lat="50.7057" lon="1.61332">
        <ele>9</ele>
        <time>2020-06-22T17:59:57Z</time>
      </trkpt>
      <trkpt lat="50.70575" lon="1.6133">
        <ele>8.9</ele>
        <time>2020-06-22T17:59:58Z</time>
      </trkpt>
      <trkpt lat="50.70581" lon="1.61327">
        <ele>8.8</ele>
        <time>2020-06-22T17:59:59Z</time>
      </trkpt>
      <trkpt lat="50.70585" lon="1.61323">
        <ele>8.6</ele>
        <time>2020-06-22T18:00:00Z</time>
      </trkpt>
      <trkpt lat="50.70591" lon="1.6132">
        <ele>8.5</ele>
        <time>2020-06-22T18:00:01Z</time>
      </trkpt>
      <trkpt lat="50.70596" lon="1.61317">
        <ele>8.4</ele>
        <time>2020-06-22T18:00:02Z</time>
      </trkpt>
      <trkpt lat="50.70602" lon="1.61314">
        <ele>8.4</ele>
        <time>2020-06-22T18:00:03Z</time>
      </trkpt>
      <trkpt lat="50.70606" lon="1.6131">
        <ele>8.4</ele>
        <time>2020-06-22T18:00:04Z</time>
      </trkpt>
      <trkpt lat="50.70611" lon="1.61305">
        <ele>8.4</ele>
        <time>2020-06-22T18:00:05Z</time>
      </trkpt>
      <trkpt lat="50.70616" lon="1.613">
        <ele>8.4</ele>
        <time>2020-06-22T18:00:06Z</time>
      </trkpt>
      <trkpt lat="50.7062" lon="1.61294">
        <ele>8.4</ele>
        <time>2020-06-22T18:00:07Z</time>
      </trkpt>
      <trkpt lat="50.70625" lon="1.6129">
        <ele>8.4</ele>
        <time>2020-06-22T18:00:08Z</time>
      </trkpt>
      <trkpt lat="50.7063" lon="1.61286">
        <ele>8.3</ele>
        <time>2020-06-22T18:00:09Z</time>
      </trkpt>
      <trkpt lat="50.70634" lon="1.61281">
        <ele>8.3</ele>
        <time>2020-06-22T18:00:10Z</time>
      </trkpt>
      <trkpt lat="50.70638" lon="1.61276">
        <ele>8.3</ele>
        <time>2020-06-22T18:00:11Z</time>
      </trkpt>
      <trkpt lat="50.70643" lon="1.61271">
        <ele>8.3</ele>
        <time>2020-06-22T18:00:12Z</time>
      </trkpt>
      <trkpt lat="50.70648" lon="1.61267">
        <ele>8.3</ele>
        <time>2020-06-22T18:00:13Z</time>
      </trkpt>
      <trkpt lat="50.70651" lon="1.61262">
        <ele>8.4</ele>
        <time>2020-06-22T18:00:14Z</time>
      </trkpt>
      <trkpt lat="50.70655" lon="1.61257">
        <ele>8.3</ele>
        <time>2020-06-22T18:00:15Z</time>
      </trkpt>
      <trkpt lat="50.70659" lon="1.61251">
        <ele>8.3</ele>
        <time>2020-06-22T18:00:16Z</time>
      </trkpt>
      <trkpt lat="50.70663" lon="1.61246">
        <ele>8.1</ele>
        <time>2020-06-22T18:00:17Z</time>
      </trkpt>
      <trkpt lat="50.70668" lon="1.61242">
        <ele>8</ele>
        <time>2020-06-22T18:00:18Z</time>
      </trkpt>
      <trkpt lat="50.70673" lon="1.61236">
        <ele>7.9</ele>
        <time>2020-06-22T18:00:19Z</time>
      </trkpt>
      <trkpt lat="50.70678" lon="1.6123">
        <ele>7.8</ele>
        <time>2020-06-22T18:00:20Z</time>
      </trkpt>
      <trkpt lat="50.70682" lon="1.61225">
        <ele>7.8</ele>
        <time>2020-06-22T18:00:21Z</time>
      </trkpt>
      <trkpt lat="50.70686" lon="1.6122">
        <ele>7.8</ele>
        <time>2020-06-22T18:00:22Z</time>
      </trkpt>
      <trkpt lat="50.7069" lon="1.61215">
        <ele>7.7</ele>
        <time>2020-06-22T18:00:23Z</time>
      </trkpt>
      <trkpt lat="50.70695" lon="1.6121">
        <ele>7.7</ele>
        <time>2020-06-22T18:00:24Z</time>
      </trkpt>
      <trkpt lat="50.70699" lon="1.61206">
        <ele>7.7</ele>
        <time>2020-06-22T18:00:25Z</time>
      </trkpt>
      <trkpt lat="50.70704" lon="1.61202">
        <ele>7.7</ele>
        <time>2020-06-22T18:00:26Z</time>
      </trkpt>
      <trkpt lat="50.70708" lon="1.61197">
        <ele>7.7</ele>
        <time>2020-06-22T18:00:27Z</time>
      </trkpt>
      <trkpt lat="50.70713" lon="1.61193">
        <ele>7.6</ele>
        <time>2020-06-22T18:00:28Z</time>
      </trkpt>
      <trkpt lat="50.70717" lon="1.61187">
        <ele>7.6</ele>
        <time>2020-06-22T18:00:29Z</time>
      </trkpt>
      <trkpt lat="50.70721" lon="1.61182">
        <ele>7.6</ele>
        <time>2020-06-22T18:00:30Z</time>
      </trkpt>
      <trkpt lat="50.70725" lon="1.61177">
        <ele>7.5</ele>
        <time>2020-06-22T18:00:31Z</time>
      </trkpt>
      <trkpt lat="50.70729" lon="1.61172">
        <ele>7.5</ele>
        <time>2020-06-22T18:00:32Z</time>
      </trkpt>
      <trkpt lat="50.70734" lon="1.61168">
        <ele>7.4</ele>
        <time>2020-06-22T18:00:33Z</time>
      </trkpt>
      <trkpt lat="50.70738" lon="1.61162">
        <ele>7.4</ele>
        <time>2020-06-22T18:00:34Z</time>
      </trkpt>
      <trkpt lat="50.70742" lon="1.61157">
        <ele>7.3</ele>
        <time>2020-06-22T18:00:35Z</time>
      </trkpt>
      <trkpt lat="50.70746" lon="1.61152">
        <ele>7.3</ele>
        <time>2020-06-22T18:00:36Z</time>
      </trkpt>
      <trkpt lat="50.70751" lon="1.61148">
        <ele>7.2</ele>
        <time>2020-06-22T18:00:37Z</time>
      </trkpt>
      <trkpt lat="50.70755" lon="1.61143">
        <ele>7.2</ele>
        <time>2020-06-22T18:00:38Z</time>
      </trkpt>
      <trkpt lat="50.70759" lon="1.61139">
        <ele>7.2</ele>
        <time>2020-06-22T18:00:39Z</time>
      </trkpt>
      <trkpt lat="50.70764" lon="1.61135">
        <ele>7.1</ele>
        <time>2020-06-22T18:00:40Z</time>
      </trkpt>
      <trkpt lat="50.70768" lon="1.61131">
        <ele>7.1</ele>
        <time>2020-06-22T18:00:41Z</time>
      </trkpt>
      <trkpt lat="50.70773" lon="1.61127">
        <ele>7.1</ele>
        <time>2020-06-22T18:00:42Z</time>
      </trkpt>
      <trkpt lat="50.70778" lon="1.61122">
        <ele>7.1</ele>
        <time>2020-06-22T18:00:43Z</time>
      </trkpt>
      <trkpt lat="50.70782" lon="1.61116">
        <ele>7.1</ele>
        <time>2020-06-22T18:00:44Z</time>
      </trkpt>
      <trkpt lat="50.70787" lon="1.61111">
        <ele>7.1</ele>
        <time>2020-06-22T18:00:45Z</time>
      </trkpt>
      <trkpt lat="50.70791" lon="1.61104">
        <ele>7.1</ele>
        <time>2020-06-22T18:00:46Z</time>
      </trkpt>
      <trkpt lat="50.70796" lon="1.61099">
        <ele>7.1</ele>
        <time>2020-06-22T18:00:47Z</time>
      </trkpt>
      <trkpt lat="50.70801" lon="1.61094">
        <ele>7.1</ele>
        <time>2020-06-22T18:00:48Z</time>
      </trkpt>
      <trkpt lat="50.70805" lon="1.61089">
        <ele>7.1</ele>
        <time>2020-06-22T18:00:49Z</time>
      </trkpt>
      <trkpt lat="50.7081" lon="1.61084">
        <ele>7.1</ele>
        <time>2020-06-22T18:00:50Z</time>
      </trkpt>
      <trkpt lat="50.70814" lon="1.6108">
        <ele>7.1</ele>
        <time>2020-06-22T18:00:51Z</time>
      </trkpt>
      <trkpt lat="50.70819" lon="1.61074">
        <ele>7.1</ele>
        <time>2020-06-22T18:00:52Z</time>
      </trkpt>
      <trkpt lat="50.70823" lon="1.6107">
        <ele>7.1</ele>
        <time>2020-06-22T18:00:53Z</time>
      </trkpt>
      <trkpt lat="50.70827" lon="1.61065">
        <ele>7.1</ele>
        <time>2020-06-22T18:00:54Z</time>
      </trkpt>
      <trkpt lat="50.70831" lon="1.61061">
        <ele>7</ele>
        <time>2020-06-22T18:00:55Z</time>
      </trkpt>
      <trkpt lat="50.70835" lon="1.61058">
        <ele>7</ele>
        <time>2020-06-22T18:00:56Z</time>
      </trkpt>
      <trkpt lat="50.70839" lon="1.61055">
        <ele>7</ele>
        <time>2020-06-22T18:00:57Z</time>
      </trkpt>
      <trkpt lat="50.70844" lon="1.61052">
        <ele>7</ele>
        <time>2020-06-22T18:00:58Z</time>
      </trkpt>
      <trkpt lat="50.70849" lon="1.61049">
        <ele>7</ele>
        <time>2020-06-22T18:00:59Z</time>
      </trkpt>
      <trkpt lat="50.70853" lon="1.61045">
        <ele>7</ele>
        <time>2020-06-22T18:01:00Z</time>
      </trkpt>
      <trkpt lat="50.70858" lon="1.6104">
        <ele>7</ele>
        <time>2020-06-22T18:01:01Z</time>
      </trkpt>
      <trkpt lat="50.70862" lon="1.61035">
        <ele>7</ele>
        <time>2020-06-22T18:01:02Z</time>
      </trkpt>
      <trkpt lat="50.70867" lon="1.6103">
        <ele>6.9</ele>
        <time>2020-06-22T18:01:03Z</time>
      </trkpt>
      <trkpt lat="50.70872" lon="1.61025">
        <ele>6.9</ele>
        <time>2020-06-22T18:01:04Z</time>
      </trkpt>
      <trkpt lat="50.70876" lon="1.6102">
        <ele>6.9</ele>
        <time>2020-06-22T18:01:05Z</time>
      </trkpt>
      <trkpt lat="50.70882" lon="1.61017">
        <ele>6.8</ele>
        <time>2020-06-22T18:01:06Z</time>
      </trkpt>
      <trkpt lat="50.70887" lon="1.61013">
        <ele>6.8</ele>
        <time>2020-06-22T18:01:07Z</time>
      </trkpt>
      <trkpt lat="50.70892" lon="1.61009">
        <ele>6.7</ele>
        <time>2020-06-22T18:01:08Z</time>
      </trkpt>
      <trkpt lat="50.70897" lon="1.61005">
        <ele>6.7</ele>
        <time>2020-06-22T18:01:09Z</time>
      </trkpt>
      <trkpt lat="50.70902" lon="1.61001">
        <ele>6.7</ele>
        <time>2020-06-22T18:01:10Z</time>
      </trkpt>
      <trkpt lat="50.70908" lon="1.60997">
        <ele>6.6</ele>
        <time>2020-06-22T18:01:11Z</time>
      </trkpt>
      <trkpt lat="50.70914" lon="1.60994">
        <ele>6.6</ele>
        <time>2020-06-22T18:01:12Z</time>
      </trkpt>
      <trkpt lat="50.70919" lon="1.6099">
        <ele>6.6</ele>
        <time>2020-06-22T18:01:13Z</time>
      </trkpt>
      <trkpt lat="50.70924" lon="1.60984">
        <ele>6.5</ele>
        <time>2020-06-22T18:01:14Z</time>
      </trkpt>
      <trkpt lat="50.7093" lon="1.60979">
        <ele>6.5</ele>
        <time>2020-06-22T18:01:15Z</time>
      </trkpt>
      <trkpt lat="50.70936" lon="1.60974">
        <ele>6.5</ele>
        <time>2020-06-22T18:01:16Z</time>
      </trkpt>
      <trkpt lat="50.70941" lon="1.60969">
        <ele>6.4</ele>
        <time>2020-06-22T18:01:17Z</time>
      </trkpt>
      <trkpt lat="50.70947" lon="1.60965">
        <ele>6.4</ele>
        <time>2020-06-22T18:01:18Z</time>
      </trkpt>
      <trkpt lat="50.70953" lon="1.60961">
        <ele>6.4</ele>
        <time>2020-06-22T18:01:19Z</time>
      </trkpt>
      <trkpt lat="50.7096" lon="1.60957">
        <ele>6.3</ele>
        <time>2020-06-22T18:01:20Z</time>
      </trkpt>
      <trkpt lat="50.70966" lon="1.60953">
        <ele>6.3</ele>
        <time>2020-06-22T18:01:21Z</time>
      </trkpt>
      <trkpt lat="50.70972" lon="1.60949">
        <ele>6.2</ele>
        <time>2020-06-22T18:01:22Z</time>
      </trkpt>
      <trkpt lat="50.70978" lon="1.60945">
        <ele>6.2</ele>
        <time>2020-06-22T18:01:23Z</time>
      </trkpt>
      <trkpt lat="50.70984" lon="1.60941">
        <ele>6.2</ele>
        <time>2020-06-22T18:01:24Z</time>
      </trkpt>
      <trkpt lat="50.7099" lon="1.60936">
        <ele>6.1</ele>
        <time>2020-06-22T18:01:25Z</time>
      </trkpt>
      <trkpt lat="50.70996" lon="1.60932">
        <ele>6.1</ele>
        <time>2020-06-22T18:01:26Z</time>
      </trkpt>
      <trkpt lat="50.71002" lon="1.60928">
        <ele>6.1</ele>
        <time>2020-06-22T18:01:27Z</time>
      </trkpt>
      <trkpt lat="50.71008" lon="1.60924">
        <ele>6.1</ele>
        <time>2020-06-22T18:01:28Z</time>
      </trkpt>
      <trkpt lat="50.71014" lon="1.6092">
        <ele>6.1</ele>
        <time>2020-06-22T18:01:29Z</time>
      </trkpt>
      <trkpt lat="50.7102" lon="1.60916">
        <ele>6.2</ele>
        <time>2020-06-22T18:01:30Z</time>
      </trkpt>
      <trkpt lat="50.71026" lon="1.60912">
        <ele>6.1</ele>
        <time>2020-06-22T18:01:31Z</time>
      </trkpt>
      <trkpt lat="50.71032" lon="1.60908">
        <ele>6.1</ele>
        <time>2020-06-22T18:01:32Z</time>
      </trkpt>
      <trkpt lat="50.71038" lon="1.60905">
        <ele>6</ele>
        <time>2020-06-22T18:01:33Z</time>
      </trkpt>
      <trkpt lat="50.71045" lon="1.60903">
        <ele>6</ele>
        <time>2020-06-22T18:01:34Z</time>
      </trkpt>
      <trkpt lat="50.71052" lon="1.60902">
        <ele>6</ele>
        <time>2020-06-22T18:01:35Z</time>
      </trkpt>
      <trkpt lat="50.71058" lon="1.60899">
        <ele>6</ele>
        <time>2020-06-22T18:01:36Z</time>
      </trkpt>
      <trkpt lat="50.71065" lon="1.60895">
        <ele>6</ele>
        <time>2020-06-22T18:01:37Z</time>
      </trkpt>
      <trkpt lat="50.71072" lon="1.60892">
        <ele>6</ele>
        <time>2020-06-22T18:01:38Z</time>
      </trkpt>
      <trkpt lat="50.71078" lon="1.60888">
        <ele>6</ele>
        <time>2020-06-22T18:01:39Z</time>
      </trkpt>
      <trkpt lat="50.71084" lon="1.60885">
        <ele>6</ele>
        <time>2020-06-22T18:01:40Z</time>
      </trkpt>
      <trkpt lat="50.71091" lon="1.60883">
        <ele>6</ele>
        <time>2020-06-22T18:01:41Z</time>
      </trkpt>
      <trkpt lat="50.71097" lon="1.6088">
        <ele>5.9</ele>
        <time>2020-06-22T18:01:42Z</time>
      </trkpt>
      <trkpt lat="50.71104" lon="1.60877">
        <ele>5.9</ele>
        <time>2020-06-22T18:01:43Z</time>
      </trkpt>
      <trkpt lat="50.71111" lon="1.60874">
        <ele>5.9</ele>
        <time>2020-06-22T18:01:44Z</time>
      </trkpt>
      <trkpt lat="50.71118" lon="1.60871">
        <ele>5.9</ele>
        <time>2020-06-22T18:01:45Z</time>
      </trkpt>
      <trkpt lat="50.71125" lon="1.60869">
        <ele>5.9</ele>
        <time>2020-06-22T18:01:46Z</time>
      </trkpt>
      <trkpt lat="50.71132" lon="1.60866">
        <ele>5.9</ele>
        <time>2020-06-22T18:01:47Z</time>
      </trkpt>
      <trkpt lat="50.71139" lon="1.60863">
        <ele>5.9</ele>
        <time>2020-06-22T18:01:48Z</time>
      </trkpt>
      <trkpt lat="50.71145" lon="1.60859">
        <ele>5.9</ele>
        <time>2020-06-22T18:01:49Z</time>
      </trkpt>
      <trkpt lat="50.71152" lon="1.60856">
        <ele>5.9</ele>
        <time>2020-06-22T18:01:50Z</time>
      </trkpt>
      <trkpt lat="50.71158" lon="1.60853">
        <ele>5.8</ele>
        <time>2020-06-22T18:01:51Z</time>
      </trkpt>
      <trkpt lat="50.71165" lon="1.6085">
        <ele>5.8</ele>
        <time>2020-06-22T18:01:52Z</time>
      </trkpt>
      <trkpt lat="50.71171" lon="1.60845">
        <ele>5.8</ele>
        <time>2020-06-22T18:01:53Z</time>
      </trkpt>
      <trkpt lat="50.71178" lon="1.60841">
        <ele>5.8</ele>
        <time>2020-06-22T18:01:54Z</time>
      </trkpt>
      <trkpt lat="50.71184" lon="1.60837">
        <ele>5.8</ele>
        <time>2020-06-22T18:01:56Z</time>
      </trkpt>
      <trkpt lat="50.7119" lon="1.60833">
        <ele>5.8</ele>
        <time>2020-06-22T18:01:57Z</time>
      </trkpt>
      <trkpt lat="50.71196" lon="1.60828">
        <ele>5.8</ele>
        <time>2020-06-22T18:01:58Z</time>
      </trkpt>
      <trkpt lat="50.71202" lon="1.60823">
        <ele>5.8</ele>
        <time>2020-06-22T18:01:59Z</time>
      </trkpt>
      <trkpt lat="50.71208" lon="1.60819">
        <ele>5.7</ele>
        <time>2020-06-22T18:02:00Z</time>
      </trkpt>
      <trkpt lat="50.71214" lon="1.60816">
        <ele>5.7</ele>
        <time>2020-06-22T18:02:01Z</time>
      </trkpt>
      <trkpt lat="50.7122" lon="1.60812">
        <ele>5.7</ele>
        <time>2020-06-22T18:02:02Z</time>
      </trkpt>
      <trkpt lat="50.71227" lon="1.60807">
        <ele>5.7</ele>
        <time>2020-06-22T18:02:03Z</time>
      </trkpt>
      <trkpt lat="50.71233" lon="1.60803">
        <ele>5.6</ele>
        <time>2020-06-22T18:02:04Z</time>
      </trkpt>
      <trkpt lat="50.7124" lon="1.60799">
        <ele>5.6</ele>
        <time>2020-06-22T18:02:05Z</time>
      </trkpt>
      <trkpt lat="50.71247" lon="1.60797">
        <ele>5.6</ele>
        <time>2020-06-22T18:02:06Z</time>
      </trkpt>
      <trkpt lat="50.71254" lon="1.60797">
        <ele>5.6</ele>
        <time>2020-06-22T18:02:07Z</time>
      </trkpt>
      <trkpt lat="50.71261" lon="1.60795">
        <ele>5.6</ele>
        <time>2020-06-22T18:02:08Z</time>
      </trkpt>
      <trkpt lat="50.71268" lon="1.60792">
        <ele>5.5</ele>
        <time>2020-06-22T18:02:09Z</time>
      </trkpt>
      <trkpt lat="50.71275" lon="1.60789">
        <ele>5.5</ele>
        <time>2020-06-22T18:02:10Z</time>
      </trkpt>
      <trkpt lat="50.71282" lon="1.60786">
        <ele>5.6</ele>
        <time>2020-06-22T18:02:11Z</time>
      </trkpt>
      <trkpt lat="50.71288" lon="1.60782">
        <ele>5.6</ele>
        <time>2020-06-22T18:02:12Z</time>
      </trkpt>
      <trkpt lat="50.71295" lon="1.6078">
        <ele>5.7</ele>
        <time>2020-06-22T18:02:13Z</time>
      </trkpt>
      <trkpt lat="50.71302" lon="1.60777">
        <ele>5.7</ele>
        <time>2020-06-22T18:02:14Z</time>
      </trkpt>
      <trkpt lat="50.71309" lon="1.60777">
        <ele>5.7</ele>
        <time>2020-06-22T18:02:15Z</time>
      </trkpt>
      <trkpt lat="50.71316" lon="1.60776">
        <ele>5.7</ele>
        <time>2020-06-22T18:02:16Z</time>
      </trkpt>
      <trkpt lat="50.71323" lon="1.60776">
        <ele>5.8</ele>
        <time>2020-06-22T18:02:17Z</time>
      </trkpt>
      <trkpt lat="50.7133" lon="1.60773">
        <ele>5.9</ele>
        <time>2020-06-22T18:02:18Z</time>
      </trkpt>
      <trkpt lat="50.71338" lon="1.60769">
        <ele>6.1</ele>
        <time>2020-06-22T18:02:19Z</time>
      </trkpt>
      <trkpt lat="50.71345" lon="1.60766">
        <ele>6.3</ele>
        <time>2020-06-22T18:02:20Z</time>
      </trkpt>
      <trkpt lat="50.71353" lon="1.60763">
        <ele>6.7</ele>
        <time>2020-06-22T18:02:21Z</time>
      </trkpt>
      <trkpt lat="50.7136" lon="1.60759">
        <ele>7.1</ele>
        <time>2020-06-22T18:02:22Z</time>
      </trkpt>
      <trkpt lat="50.71367" lon="1.60757">
        <ele>7.5</ele>
        <time>2020-06-22T18:02:23Z</time>
      </trkpt>
      <trkpt lat="50.71374" lon="1.60755">
        <ele>7.9</ele>
        <time>2020-06-22T18:02:24Z</time>
      </trkpt>
      <trkpt lat="50.7138" lon="1.60751">
        <ele>8.3</ele>
        <time>2020-06-22T18:02:25Z</time>
      </trkpt>
      <trkpt lat="50.71385" lon="1.60748">
        <ele>8.7</ele>
        <time>2020-06-22T18:02:26Z</time>
      </trkpt>
      <trkpt lat="50.71391" lon="1.60746">
        <ele>9.1</ele>
        <time>2020-06-22T18:02:27Z</time>
      </trkpt>
      <trkpt lat="50.71397" lon="1.60744">
        <ele>9.5</ele>
        <time>2020-06-22T18:02:28Z</time>
      </trkpt>
      <trkpt lat="50.71402" lon="1.60743">
        <ele>9.8</ele>
        <time>2020-06-22T18:02:29Z</time>
      </trkpt>
      <trkpt lat="50.71407" lon="1.60742">
        <ele>10.1</ele>
        <time>2020-06-22T18:02:30Z</time>
      </trkpt>
      <trkpt lat="50.71412" lon="1.60741">
        <ele>10.4</ele>
        <time>2020-06-22T18:02:31Z</time>
      </trkpt>
      <trkpt lat="50.71416" lon="1.60739">
        <ele>10.7</ele>
        <time>2020-06-22T18:02:32Z</time>
      </trkpt>
      <trkpt lat="50.7142" lon="1.60738">
        <ele>10.8</ele>
        <time>2020-06-22T18:02:33Z</time>
      </trkpt>
      <trkpt lat="50.71423" lon="1.60737">
        <ele>11</ele>
        <time>2020-06-22T18:02:34Z</time>
      </trkpt>
      <trkpt lat="50.71426" lon="1.60736">
        <ele>11</ele>
        <time>2020-06-22T18:02:35Z</time>
      </trkpt>
      <trkpt lat="50.71428" lon="1.60735">
        <ele>11.1</ele>
        <time>2020-06-22T18:02:36Z</time>
      </trkpt>
      <trkpt lat="50.71432" lon="1.60736">
        <ele>11.2</ele>
        <time>2020-06-22T18:02:37Z</time>
      </trkpt>
      <trkpt lat="50.71433" lon="1.60736">
        <ele>11.2</ele>
        <time>2020-06-22T18:02:38Z</time>
      </trkpt>
      <trkpt lat="50.71436" lon="1.60738">
        <ele>11.2</ele>
        <time>2020-06-22T18:02:39Z</time>
      </trkpt>
      <trkpt lat="50.71438" lon="1.60741">
        <ele>11.2</ele>
        <time>2020-06-22T18:02:40Z</time>
      </trkpt>
      <trkpt lat="50.71439" lon="1.60742">
        <ele>11.2</ele>
        <time>2020-06-22T18:02:41Z</time>
      </trkpt>
      <trkpt lat="50.71441" lon="1.60746">
        <ele>11.2</ele>
        <time>2020-06-22T18:02:42Z</time>
      </trkpt>
      <trkpt lat="50.71442" lon="1.60751">
        <ele>11.2</ele>
        <time>2020-06-22T18:02:43Z</time>
      </trkpt>
      <trkpt lat="50.71443" lon="1.60757">
        <ele>11.2</ele>
        <time>2020-06-22T18:02:44Z</time>
      </trkpt>
      <trkpt lat="50.71443" lon="1.60759">
        <ele>11.2</ele>
        <time>2020-06-22T18:02:45Z</time>
      </trkpt>
      <trkpt lat="50.71444" lon="1.60765">
        <ele>11.2</ele>
        <time>2020-06-22T18:02:46Z</time>
      </trkpt>
      <trkpt lat="50.71445" lon="1.60766">
        <ele>11.2</ele>
        <time>2020-06-22T18:02:47Z</time>
      </trkpt>
      <trkpt lat="50.71446" lon="1.60771">
        <ele>11.1</ele>
        <time>2020-06-22T18:02:48Z</time>
      </trkpt>
      <trkpt lat="50.71447" lon="1.60776">
        <ele>11</ele>
        <time>2020-06-22T18:02:49Z</time>
      </trkpt>
      <trkpt lat="50.7145" lon="1.60787">
        <ele>10.9</ele>
        <time>2020-06-22T18:02:50Z</time>
      </trkpt>
      <trkpt lat="50.71452" lon="1.60793">
        <ele>10.7</ele>
        <time>2020-06-22T18:02:51Z</time>
      </trkpt>
      <trkpt lat="50.71454" lon="1.608">
        <ele>10.6</ele>
        <time>2020-06-22T18:02:52Z</time>
      </trkpt>
      <trkpt lat="50.71458" lon="1.60807">
        <ele>10.4</ele>
        <time>2020-06-22T18:02:53Z</time>
      </trkpt>
      <trkpt lat="50.71461" lon="1.60813">
        <ele>10.3</ele>
        <time>2020-06-22T18:02:54Z</time>
      </trkpt>
      <trkpt lat="50.71464" lon="1.6082">
        <ele>10.1</ele>
        <time>2020-06-22T18:02:55Z</time>
      </trkpt>
      <trkpt lat="50.71468" lon="1.60827">
        <ele>10</ele>
        <time>2020-06-22T18:02:56Z</time>
      </trkpt>
      <trkpt lat="50.71471" lon="1.60833">
        <ele>9.8</ele>
        <time>2020-06-22T18:02:57Z</time>
      </trkpt>
      <trkpt lat="50.71474" lon="1.60838">
        <ele>9.7</ele>
        <time>2020-06-22T18:02:58Z</time>
      </trkpt>
      <trkpt lat="50.71477" lon="1.60842">
        <ele>9.6</ele>
        <time>2020-06-22T18:02:59Z</time>
      </trkpt>
      <trkpt lat="50.71479" lon="1.60846">
        <ele>9.5</ele>
        <time>2020-06-22T18:03:00Z</time>
      </trkpt>
      <trkpt lat="50.71482" lon="1.60849">
        <ele>9.4</ele>
        <time>2020-06-22T18:03:01Z</time>
      </trkpt>
      <trkpt lat="50.71484" lon="1.60853">
        <ele>9.3</ele>
        <time>2020-06-22T18:03:02Z</time>
      </trkpt>
      <trkpt lat="50.71487" lon="1.60857">
        <ele>9.2</ele>
        <time>2020-06-22T18:03:03Z</time>
      </trkpt>
      <trkpt lat="50.7149" lon="1.60861">
        <ele>9.1</ele>
        <time>2020-06-22T18:03:04Z</time>
      </trkpt>
      <trkpt lat="50.71491" lon="1.60862">
        <ele>9.1</ele>
        <time>2020-06-22T18:03:05Z</time>
      </trkpt>
      <trkpt lat="50.71494" lon="1.60865">
        <ele>9.1</ele>
        <time>2020-06-22T18:03:06Z</time>
      </trkpt>
      <trkpt lat="50.71497" lon="1.60868">
        <ele>8.9</ele>
        <time>2020-06-22T18:03:07Z</time>
      </trkpt>
      <trkpt lat="50.71499" lon="1.60872">
        <ele>8.9</ele>
        <time>2020-06-22T18:03:08Z</time>
      </trkpt>
      <trkpt lat="50.71502" lon="1.60869">
        <ele>8.9</ele>
        <time>2020-06-22T18:03:09Z</time>
      </trkpt>
      <trkpt lat="50.71503" lon="1.60867">
        <ele>8.8</ele>
        <time>2020-06-22T18:03:10Z</time>
      </trkpt>
      <trkpt lat="50.71501" lon="1.60863">
        <ele>8.8</ele>
        <time>2020-06-22T18:03:11Z</time>
      </trkpt>
      <trkpt lat="50.715" lon="1.60862">
        <ele>8.8</ele>
        <time>2020-06-22T18:03:12Z</time>
      </trkpt>
      <trkpt lat="50.71498" lon="1.60859">
        <ele>8.8</ele>
        <time>2020-06-22T18:03:13Z</time>
      </trkpt>
      <trkpt lat="50.71494" lon="1.60855">
        <ele>8.7</ele>
        <time>2020-06-22T18:03:14Z</time>
      </trkpt>
      <trkpt lat="50.7149" lon="1.6085">
        <ele>8.5</ele>
        <time>2020-06-22T18:03:15Z</time>
      </trkpt>
      <trkpt lat="50.71486" lon="1.60846">
        <ele>8.6</ele>
        <time>2020-06-22T18:03:16Z</time>
      </trkpt>
      <trkpt lat="50.71482" lon="1.60838">
        <ele>8.7</ele>
        <time>2020-06-22T18:03:17Z</time>
      </trkpt>
      <trkpt lat="50.71478" lon="1.60831">
        <ele>8.8</ele>
        <time>2020-06-22T18:03:18Z</time>
      </trkpt>
      <trkpt lat="50.71474" lon="1.60822">
        <ele>8.9</ele>
        <time>2020-06-22T18:03:19Z</time>
      </trkpt>
      <trkpt lat="50.71469" lon="1.60815">
        <ele>9.1</ele>
        <time>2020-06-22T18:03:20Z</time>
      </trkpt>
      <trkpt lat="50.71466" lon="1.60809">
        <ele>9.3</ele>
        <time>2020-06-22T18:03:21Z</time>
      </trkpt>
      <trkpt lat="50.71463" lon="1.60802">
        <ele>9.5</ele>
        <time>2020-06-22T18:03:22Z</time>
      </trkpt>
      <trkpt lat="50.7146" lon="1.60794">
        <ele>9.7</ele>
        <time>2020-06-22T18:03:23Z</time>
      </trkpt>
      <trkpt lat="50.71458" lon="1.60788">
        <ele>9.9</ele>
        <time>2020-06-22T18:03:24Z</time>
      </trkpt>
      <trkpt lat="50.71455" lon="1.60781">
        <ele>10.2</ele>
        <time>2020-06-22T18:03:25Z</time>
      </trkpt>
      <trkpt lat="50.71453" lon="1.60775">
        <ele>10.4</ele>
        <time>2020-06-22T18:03:26Z</time>
      </trkpt>
      <trkpt lat="50.71452" lon="1.60769">
        <ele>10.5</ele>
        <time>2020-06-22T18:03:27Z</time>
      </trkpt>
      <trkpt lat="50.7145" lon="1.60764">
        <ele>10.7</ele>
        <time>2020-06-22T18:03:28Z</time>
      </trkpt>
      <trkpt lat="50.71449" lon="1.60759">
        <ele>10.8</ele>
        <time>2020-06-22T18:03:29Z</time>
      </trkpt>
      <trkpt lat="50.71449" lon="1.60755">
        <ele>10.9</ele>
        <time>2020-06-22T18:03:30Z</time>
      </trkpt>
      <trkpt lat="50.71448" lon="1.60751">
        <ele>11</ele>
        <time>2020-06-22T18:03:31Z</time>
      </trkpt>
      <trkpt lat="50.71449" lon="1.60744">
        <ele>11.1</ele>
        <time>2020-06-22T18:03:32Z</time>
      </trkpt>
      <trkpt lat="50.71452" lon="1.60739">
        <ele>11.2</ele>
        <time>2020-06-22T18:03:33Z</time>
      </trkpt>
      <trkpt lat="50.71452" lon="1.60735">
        <ele>11.2</ele>
        <time>2020-06-22T18:03:34Z</time>
      </trkpt>
      <trkpt lat="50.71454" lon="1.60731">
        <ele>11.1</ele>
        <time>2020-06-22T18:03:35Z</time>
      </trkpt>
      <trkpt lat="50.71455" lon="1.60729">
        <ele>11.1</ele>
        <time>2020-06-22T18:03:36Z</time>
      </trkpt>
      <trkpt lat="50.71456" lon="1.60724">
        <ele>11.1</ele>
        <time>2020-06-22T18:03:37Z</time>
      </trkpt>
      <trkpt lat="50.71458" lon="1.6072">
        <ele>11</ele>
        <time>2020-06-22T18:03:38Z</time>
      </trkpt>
      <trkpt lat="50.7146" lon="1.60716">
        <ele>11</ele>
        <time>2020-06-22T18:03:39Z</time>
      </trkpt>
      <trkpt lat="50.71462" lon="1.60712">
        <ele>10.9</ele>
        <time>2020-06-22T18:03:40Z</time>
      </trkpt>
      <trkpt lat="50.71466" lon="1.60709">
        <ele>10.8</ele>
        <time>2020-06-22T18:03:41Z</time>
      </trkpt>
      <trkpt lat="50.71469" lon="1.60707">
        <ele>10.6</ele>
        <time>2020-06-22T18:03:42Z</time>
      </trkpt>
      <trkpt lat="50.71473" lon="1.60704">
        <ele>10.4</ele>
        <time>2020-06-22T18:03:43Z</time>
      </trkpt>
      <trkpt lat="50.71478" lon="1.60702">
        <ele>10.2</ele>
        <time>2020-06-22T18:03:44Z</time>
      </trkpt>
      <trkpt lat="50.71483" lon="1.607">
        <ele>9.9</ele>
        <time>2020-06-22T18:03:45Z</time>
      </trkpt>
      <trkpt lat="50.71488" lon="1.60697">
        <ele>9.6</ele>
        <time>2020-06-22T18:03:46Z</time>
      </trkpt>
      <trkpt lat="50.71493" lon="1.60694">
        <ele>9.2</ele>
        <time>2020-06-22T18:03:47Z</time>
      </trkpt>
      <trkpt lat="50.71499" lon="1.60691">
        <ele>8.8</ele>
        <time>2020-06-22T18:03:48Z</time>
      </trkpt>
      <trkpt lat="50.71504" lon="1.60687">
        <ele>8.4</ele>
        <time>2020-06-22T18:03:49Z</time>
      </trkpt>
      <trkpt lat="50.71511" lon="1.60685">
        <ele>8</ele>
        <time>2020-06-22T18:03:50Z</time>
      </trkpt>
      <trkpt lat="50.71518" lon="1.60684">
        <ele>7.6</ele>
        <time>2020-06-22T18:03:51Z</time>
      </trkpt>
      <trkpt lat="50.71524" lon="1.6068">
        <ele>7.2</ele>
        <time>2020-06-22T18:03:52Z</time>
      </trkpt>
      <trkpt lat="50.71532" lon="1.60677">
        <ele>6.9</ele>
        <time>2020-06-22T18:03:53Z</time>
      </trkpt>
      <trkpt lat="50.71539" lon="1.60674">
        <ele>6.6</ele>
        <time>2020-06-22T18:03:54Z</time>
      </trkpt>
      <trkpt lat="50.71545" lon="1.60671">
        <ele>6.4</ele>
        <time>2020-06-22T18:03:55Z</time>
      </trkpt>
      <trkpt lat="50.71552" lon="1.60668">
        <ele>6.3</ele>
        <time>2020-06-22T18:03:56Z</time>
      </trkpt>
      <trkpt lat="50.71559" lon="1.60665">
        <ele>6.1</ele>
        <time>2020-06-22T18:03:57Z</time>
      </trkpt>
      <trkpt lat="50.71565" lon="1.60662">
        <ele>6</ele>
        <time>2020-06-22T18:03:58Z</time>
      </trkpt>
      <trkpt lat="50.71571" lon="1.60657">
        <ele>6</ele>
        <time>2020-06-22T18:03:59Z</time>
      </trkpt>
      <trkpt lat="50.71576" lon="1.60653">
        <ele>5.9</ele>
        <time>2020-06-22T18:04:00Z</time>
      </trkpt>
      <trkpt lat="50.71581" lon="1.60648">
        <ele>5.9</ele>
        <time>2020-06-22T18:04:01Z</time>
      </trkpt>
      <trkpt lat="50.71586" lon="1.60644">
        <ele>5.8</ele>
        <time>2020-06-22T18:04:02Z</time>
      </trkpt>
      <trkpt lat="50.71592" lon="1.60641">
        <ele>5.8</ele>
        <time>2020-06-22T18:04:03Z</time>
      </trkpt>
      <trkpt lat="50.71597" lon="1.60638">
        <ele>5.8</ele>
        <time>2020-06-22T18:04:04Z</time>
      </trkpt>
      <trkpt lat="50.71602" lon="1.60633">
        <ele>5.8</ele>
        <time>2020-06-22T18:04:05Z</time>
      </trkpt>
      <trkpt lat="50.71606" lon="1.60629">
        <ele>5.9</ele>
        <time>2020-06-22T18:04:06Z</time>
      </trkpt>
      <trkpt lat="50.71611" lon="1.60624">
        <ele>5.9</ele>
        <time>2020-06-22T18:04:07Z</time>
      </trkpt>
      <trkpt lat="50.71617" lon="1.60623">
        <ele>6</ele>
        <time>2020-06-22T18:04:08Z</time>
      </trkpt>
      <trkpt lat="50.71622" lon="1.6062">
        <ele>6</ele>
        <time>2020-06-22T18:04:09Z</time>
      </trkpt>
      <trkpt lat="50.71627" lon="1.60617">
        <ele>5.9</ele>
        <time>2020-06-22T18:04:10Z</time>
      </trkpt>
      <trkpt lat="50.71633" lon="1.60613">
        <ele>5.9</ele>
        <time>2020-06-22T18:04:11Z</time>
      </trkpt>
      <trkpt lat="50.71638" lon="1.6061">
        <ele>5.9</ele>
        <time>2020-06-22T18:04:12Z</time>
      </trkpt>
      <trkpt lat="50.71644" lon="1.60605">
        <ele>5.9</ele>
        <time>2020-06-22T18:04:13Z</time>
      </trkpt>
      <trkpt lat="50.71649" lon="1.606">
        <ele>5.9</ele>
        <time>2020-06-22T18:04:14Z</time>
      </trkpt>
      <trkpt lat="50.71655" lon="1.60596">
        <ele>5.9</ele>
        <time>2020-06-22T18:04:15Z</time>
      </trkpt>
      <trkpt lat="50.71661" lon="1.60593">
        <ele>5.9</ele>
        <time>2020-06-22T18:04:16Z</time>
      </trkpt>
      <trkpt lat="50.71667" lon="1.6059">
        <ele>5.9</ele>
        <time>2020-06-22T18:04:17Z</time>
      </trkpt>
      <trkpt lat="50.71673" lon="1.60587">
        <ele>5.9</ele>
        <time>2020-06-22T18:04:18Z</time>
      </trkpt>
      <trkpt lat="50.71679" lon="1.60584">
        <ele>5.9</ele>
        <time>2020-06-22T18:04:19Z</time>
      </trkpt>
      <trkpt lat="50.71685" lon="1.60581">
        <ele>5.9</ele>
        <time>2020-06-22T18:04:20Z</time>
      </trkpt>
      <trkpt lat="50.71692" lon="1.60579">
        <ele>5.9</ele>
        <time>2020-06-22T18:04:21Z</time>
      </trkpt>
      <trkpt lat="50.71698" lon="1.60576">
        <ele>6</ele>
        <time>2020-06-22T18:04:22Z</time>
      </trkpt>
      <trkpt lat="50.71704" lon="1.60573">
        <ele>6</ele>
        <time>2020-06-22T18:04:23Z</time>
      </trkpt>
      <trkpt lat="50.7171" lon="1.6057">
        <ele>6</ele>
        <time>2020-06-22T18:04:24Z</time>
      </trkpt>
      <trkpt lat="50.71716" lon="1.60567">
        <ele>6</ele>
        <time>2020-06-22T18:04:25Z</time>
      </trkpt>
      <trkpt lat="50.71722" lon="1.60564">
        <ele>6.1</ele>
        <time>2020-06-22T18:04:26Z</time>
      </trkpt>
      <trkpt lat="50.71728" lon="1.60561">
        <ele>6.1</ele>
        <time>2020-06-22T18:04:27Z</time>
      </trkpt>
      <trkpt lat="50.71734" lon="1.60557">
        <ele>6.1</ele>
        <time>2020-06-22T18:04:28Z</time>
      </trkpt>
      <trkpt lat="50.7174" lon="1.60554">
        <ele>6.2</ele>
        <time>2020-06-22T18:04:29Z</time>
      </trkpt>
      <trkpt lat="50.71747" lon="1.60552">
        <ele>6.2</ele>
        <time>2020-06-22T18:04:30Z</time>
      </trkpt>
      <trkpt lat="50.71753" lon="1.60549">
        <ele>6.2</ele>
        <time>2020-06-22T18:04:31Z</time>
      </trkpt>
      <trkpt lat="50.71759" lon="1.60546">
        <ele>6.2</ele>
        <time>2020-06-22T18:04:32Z</time>
      </trkpt>
      <trkpt lat="50.71765" lon="1.60542">
        <ele>6.1</ele>
        <time>2020-06-22T18:04:33Z</time>
      </trkpt>
      <trkpt lat="50.71772" lon="1.6054">
        <ele>6.1</ele>
        <time>2020-06-22T18:04:34Z</time>
      </trkpt>
      <trkpt lat="50.71778" lon="1.60536">
        <ele>6.1</ele>
        <time>2020-06-22T18:04:35Z</time>
      </trkpt>
      <trkpt lat="50.71785" lon="1.60534">
        <ele>6.1</ele>
        <time>2020-06-22T18:04:36Z</time>
      </trkpt>
      <trkpt lat="50.71792" lon="1.60531">
        <ele>6.1</ele>
        <time>2020-06-22T18:04:37Z</time>
      </trkpt>
      <trkpt lat="50.71799" lon="1.60528">
        <ele>6</ele>
        <time>2020-06-22T18:04:38Z</time>
      </trkpt>
      <trkpt lat="50.71806" lon="1.60524">
        <ele>6</ele>
        <time>2020-06-22T18:04:39Z</time>
      </trkpt>
      <trkpt lat="50.71813" lon="1.6052">
        <ele>5.9</ele>
        <time>2020-06-22T18:04:40Z</time>
      </trkpt>
      <trkpt lat="50.71819" lon="1.60517">
        <ele>5.9</ele>
        <time>2020-06-22T18:04:41Z</time>
      </trkpt>
      <trkpt lat="50.71826" lon="1.60513">
        <ele>5.9</ele>
        <time>2020-06-22T18:04:42Z</time>
      </trkpt>
      <trkpt lat="50.71833" lon="1.60509">
        <ele>5.8</ele>
        <time>2020-06-22T18:04:43Z</time>
      </trkpt>
      <trkpt lat="50.7184" lon="1.60506">
        <ele>5.8</ele>
        <time>2020-06-22T18:04:44Z</time>
      </trkpt>
      <trkpt lat="50.71847" lon="1.60503">
        <ele>5.8</ele>
        <time>2020-06-22T18:04:45Z</time>
      </trkpt>
      <trkpt lat="50.71854" lon="1.605">
        <ele>5.9</ele>
        <time>2020-06-22T18:04:46Z</time>
      </trkpt>
      <trkpt lat="50.71861" lon="1.60497">
        <ele>5.9</ele>
        <time>2020-06-22T18:04:47Z</time>
      </trkpt>
      <trkpt lat="50.71867" lon="1.60494">
        <ele>5.8</ele>
        <time>2020-06-22T18:04:48Z</time>
      </trkpt>
      <trkpt lat="50.71873" lon="1.6049">
        <ele>5.8</ele>
        <time>2020-06-22T18:04:49Z</time>
      </trkpt>
      <trkpt lat="50.7188" lon="1.60488">
        <ele>5.8</ele>
        <time>2020-06-22T18:04:50Z</time>
      </trkpt>
      <trkpt lat="50.71886" lon="1.60488">
        <ele>5.8</ele>
        <time>2020-06-22T18:04:51Z</time>
      </trkpt>
      <trkpt lat="50.71893" lon="1.60491">
        <ele>5.8</ele>
        <time>2020-06-22T18:04:52Z</time>
      </trkpt>
      <trkpt lat="50.71899" lon="1.60495">
        <ele>5.8</ele>
        <time>2020-06-22T18:04:53Z</time>
      </trkpt>
      <trkpt lat="50.71906" lon="1.60495">
        <ele>6.4</ele>
        <time>2020-06-22T18:04:54Z</time>
      </trkpt>
      <trkpt lat="50.71911" lon="1.60491">
        <ele>6.5</ele>
        <time>2020-06-22T18:04:55Z</time>
      </trkpt>
      <trkpt lat="50.71915" lon="1.60484">
        <ele>6.4</ele>
        <time>2020-06-22T18:04:56Z</time>
      </trkpt>
      <trkpt lat="50.71917" lon="1.60476">
        <ele>6.3</ele>
        <time>2020-06-22T18:04:57Z</time>
      </trkpt>
      <trkpt lat="50.7192" lon="1.60468">
        <ele>6.3</ele>
        <time>2020-06-22T18:04:58Z</time>
      </trkpt>
      <trkpt lat="50.71925" lon="1.60462">
        <ele>6.2</ele>
        <time>2020-06-22T18:04:59Z</time>
      </trkpt>
      <trkpt lat="50.71931" lon="1.60456">
        <ele>6.2</ele>
        <time>2020-06-22T18:05:00Z</time>
      </trkpt>
      <trkpt lat="50.71936" lon="1.60453">
        <ele>6.1</ele>
        <time>2020-06-22T18:05:01Z</time>
      </trkpt>
      <trkpt lat="50.71942" lon="1.60449">
        <ele>6.1</ele>
        <time>2020-06-22T18:05:02Z</time>
      </trkpt>
      <trkpt lat="50.71948" lon="1.60446">
        <ele>6.1</ele>
        <time>2020-06-22T18:05:03Z</time>
      </trkpt>
      <trkpt lat="50.71955" lon="1.60442">
        <ele>6.1</ele>
        <time>2020-06-22T18:05:04Z</time>
      </trkpt>
      <trkpt lat="50.71962" lon="1.60438">
        <ele>6</ele>
        <time>2020-06-22T18:05:05Z</time>
      </trkpt>
      <trkpt lat="50.71968" lon="1.60435">
        <ele>6</ele>
        <time>2020-06-22T18:05:06Z</time>
      </trkpt>
      <trkpt lat="50.71974" lon="1.60432">
        <ele>6</ele>
        <time>2020-06-22T18:05:07Z</time>
      </trkpt>
      <trkpt lat="50.71979" lon="1.60429">
        <ele>6</ele>
        <time>2020-06-22T18:05:08Z</time>
      </trkpt>
      <trkpt lat="50.71986" lon="1.60425">
        <ele>6.1</ele>
        <time>2020-06-22T18:05:09Z</time>
      </trkpt>
      <trkpt lat="50.71992" lon="1.60421">
        <ele>6.2</ele>
        <time>2020-06-22T18:05:10Z</time>
      </trkpt>
      <trkpt lat="50.71998" lon="1.60417">
        <ele>6.2</ele>
        <time>2020-06-22T18:05:11Z</time>
      </trkpt>
      <trkpt lat="50.72004" lon="1.60412">
        <ele>6.3</ele>
        <time>2020-06-22T18:05:12Z</time>
      </trkpt>
      <trkpt lat="50.72011" lon="1.60408">
        <ele>6.3</ele>
        <time>2020-06-22T18:05:13Z</time>
      </trkpt>
      <trkpt lat="50.72016" lon="1.60403">
        <ele>6.3</ele>
        <time>2020-06-22T18:05:14Z</time>
      </trkpt>
      <trkpt lat="50.72022" lon="1.60399">
        <ele>6.3</ele>
        <time>2020-06-22T18:05:15Z</time>
      </trkpt>
      <trkpt lat="50.72028" lon="1.60394">
        <ele>6.3</ele>
        <time>2020-06-22T18:05:16Z</time>
      </trkpt>
      <trkpt lat="50.72034" lon="1.60391">
        <ele>6.3</ele>
        <time>2020-06-22T18:05:17Z</time>
      </trkpt>
      <trkpt lat="50.7204" lon="1.60387">
        <ele>6.4</ele>
        <time>2020-06-22T18:05:18Z</time>
      </trkpt>
      <trkpt lat="50.72046" lon="1.60382">
        <ele>6.4</ele>
        <time>2020-06-22T18:05:19Z</time>
      </trkpt>
      <trkpt lat="50.72052" lon="1.60378">
        <ele>6.4</ele>
        <time>2020-06-22T18:05:20Z</time>
      </trkpt>
      <trkpt lat="50.72058" lon="1.60373">
        <ele>6.5</ele>
        <time>2020-06-22T18:05:21Z</time>
      </trkpt>
      <trkpt lat="50.72064" lon="1.60369">
        <ele>6.5</ele>
        <time>2020-06-22T18:05:22Z</time>
      </trkpt>
      <trkpt lat="50.7207" lon="1.60365">
        <ele>6.5</ele>
        <time>2020-06-22T18:05:23Z</time>
      </trkpt>
      <trkpt lat="50.72075" lon="1.60361">
        <ele>6.5</ele>
        <time>2020-06-22T18:05:24Z</time>
      </trkpt>
      <trkpt lat="50.72081" lon="1.60356">
        <ele>6.5</ele>
        <time>2020-06-22T18:05:25Z</time>
      </trkpt>
      <trkpt lat="50.72086" lon="1.60352">
        <ele>6.6</ele>
        <time>2020-06-22T18:05:26Z</time>
      </trkpt>
      <trkpt lat="50.72092" lon="1.60348">
        <ele>6.6</ele>
        <time>2020-06-22T18:05:27Z</time>
      </trkpt>
      <trkpt lat="50.72098" lon="1.60344">
        <ele>6.6</ele>
        <time>2020-06-22T18:05:28Z</time>
      </trkpt>
      <trkpt lat="50.72104" lon="1.60339">
        <ele>6.6</ele>
        <time>2020-06-22T18:05:29Z</time>
      </trkpt>
      <trkpt lat="50.7211" lon="1.60334">
        <ele>6.7</ele>
        <time>2020-06-22T18:05:30Z</time>
      </trkpt>
      <trkpt lat="50.72115" lon="1.60331">
        <ele>6.8</ele>
        <time>2020-06-22T18:05:31Z</time>
      </trkpt>
      <trkpt lat="50.72119" lon="1.60328">
        <ele>6.8</ele>
        <time>2020-06-22T18:05:32Z</time>
      </trkpt>
      <trkpt lat="50.72125" lon="1.60323">
        <ele>6.9</ele>
        <time>2020-06-22T18:05:33Z</time>
      </trkpt>
      <trkpt lat="50.72129" lon="1.60319">
        <ele>6.9</ele>
        <time>2020-06-22T18:05:34Z</time>
      </trkpt>
      <trkpt lat="50.72133" lon="1.60314">
        <ele>6.9</ele>
        <time>2020-06-22T18:05:35Z</time>
      </trkpt>
      <trkpt lat="50.72135" lon="1.6031">
        <ele>7</ele>
        <time>2020-06-22T18:05:36Z</time>
      </trkpt>
      <trkpt lat="50.72138" lon="1.60306">
        <ele>7</ele>
        <time>2020-06-22T18:05:37Z</time>
      </trkpt>
      <trkpt lat="50.72141" lon="1.60303">
        <ele>7.1</ele>
        <time>2020-06-22T18:05:38Z</time>
      </trkpt>
      <trkpt lat="50.72144" lon="1.60301">
        <ele>7.1</ele>
        <time>2020-06-22T18:05:39Z</time>
      </trkpt>
      <trkpt lat="50.72148" lon="1.60297">
        <ele>7.1</ele>
        <time>2020-06-22T18:05:40Z</time>
      </trkpt>
      <trkpt lat="50.72151" lon="1.60296">
        <ele>7.1</ele>
        <time>2020-06-22T18:05:41Z</time>
      </trkpt>
      <trkpt lat="50.72152" lon="1.60296">
        <ele>7.1</ele>
        <time>2020-06-22T18:05:42Z</time>
      </trkpt>
      <trkpt lat="50.72155" lon="1.60294">
        <ele>7.2</ele>
        <time>2020-06-22T18:05:43Z</time>
      </trkpt>
      <trkpt lat="50.72157" lon="1.60293">
        <ele>7.2</ele>
        <time>2020-06-22T18:05:44Z</time>
      </trkpt>
      <trkpt lat="50.72159" lon="1.6029">
        <ele>7.2</ele>
        <time>2020-06-22T18:05:45Z</time>
      </trkpt>
      <trkpt lat="50.72162" lon="1.60286">
        <ele>7.2</ele>
        <time>2020-06-22T18:05:46Z</time>
      </trkpt>
      <trkpt lat="50.72165" lon="1.60283">
        <ele>7.3</ele>
        <time>2020-06-22T18:05:47Z</time>
      </trkpt>
      <trkpt lat="50.72168" lon="1.6028">
        <ele>7.3</ele>
        <time>2020-06-22T18:05:48Z</time>
      </trkpt>
      <trkpt lat="50.72172" lon="1.60278">
        <ele>7.3</ele>
        <time>2020-06-22T18:05:49Z</time>
      </trkpt>
      <trkpt lat="50.72176" lon="1.60274">
        <ele>7.2</ele>
        <time>2020-06-22T18:05:50Z</time>
      </trkpt>
      <trkpt lat="50.72181" lon="1.60271">
        <ele>7.1</ele>
        <time>2020-06-22T18:05:51Z</time>
      </trkpt>
      <trkpt lat="50.72185" lon="1.60267">
        <ele>7.1</ele>
        <time>2020-06-22T18:05:52Z</time>
      </trkpt>
      <trkpt lat="50.72191" lon="1.60264">
        <ele>6.9</ele>
        <time>2020-06-22T18:05:53Z</time>
      </trkpt>
      <trkpt lat="50.72195" lon="1.6026">
        <ele>6.9</ele>
        <time>2020-06-22T18:05:54Z</time>
      </trkpt>
      <trkpt lat="50.72201" lon="1.60257">
        <ele>6.8</ele>
        <time>2020-06-22T18:05:55Z</time>
      </trkpt>
      <trkpt lat="50.72206" lon="1.60254">
        <ele>6.8</ele>
        <time>2020-06-22T18:05:56Z</time>
      </trkpt>
      <trkpt lat="50.72212" lon="1.60251">
        <ele>6.7</ele>
        <time>2020-06-22T18:05:57Z</time>
      </trkpt>
      <trkpt lat="50.72217" lon="1.60247">
        <ele>6.7</ele>
        <time>2020-06-22T18:05:58Z</time>
      </trkpt>
      <trkpt lat="50.72224" lon="1.60243">
        <ele>6.6</ele>
        <time>2020-06-22T18:05:59Z</time>
      </trkpt>
      <trkpt lat="50.72229" lon="1.60239">
        <ele>6.6</ele>
        <time>2020-06-22T18:06:00Z</time>
      </trkpt>
      <trkpt lat="50.72235" lon="1.60238">
        <ele>6.6</ele>
        <time>2020-06-22T18:06:01Z</time>
      </trkpt>
      <trkpt lat="50.72242" lon="1.60233">
        <ele>6.6</ele>
        <time>2020-06-22T18:06:02Z</time>
      </trkpt>
      <trkpt lat="50.72248" lon="1.60228">
        <ele>6.6</ele>
        <time>2020-06-22T18:06:03Z</time>
      </trkpt>
      <trkpt lat="50.72253" lon="1.60223">
        <ele>6.6</ele>
        <time>2020-06-22T18:06:04Z</time>
      </trkpt>
      <trkpt lat="50.72259" lon="1.60219">
        <ele>6.5</ele>
        <time>2020-06-22T18:06:05Z</time>
      </trkpt>
      <trkpt lat="50.72264" lon="1.60217">
        <ele>6.5</ele>
        <time>2020-06-22T18:06:06Z</time>
      </trkpt>
      <trkpt lat="50.7227" lon="1.60214">
        <ele>6.5</ele>
        <time>2020-06-22T18:06:07Z</time>
      </trkpt>
      <trkpt lat="50.72276" lon="1.60211">
        <ele>6.5</ele>
        <time>2020-06-22T18:06:08Z</time>
      </trkpt>
      <trkpt lat="50.72281" lon="1.60207">
        <ele>6.7</ele>
        <time>2020-06-22T18:06:09Z</time>
      </trkpt>
      <trkpt lat="50.72286" lon="1.60205">
        <ele>6.6</ele>
        <time>2020-06-22T18:06:10Z</time>
      </trkpt>
      <trkpt lat="50.72293" lon="1.60201">
        <ele>6.5</ele>
        <time>2020-06-22T18:06:11Z</time>
      </trkpt>
      <trkpt lat="50.72299" lon="1.60198">
        <ele>6.5</ele>
        <time>2020-06-22T18:06:12Z</time>
      </trkpt>
      <trkpt lat="50.72306" lon="1.60196">
        <ele>6.7</ele>
        <time>2020-06-22T18:06:13Z</time>
      </trkpt>
      <trkpt lat="50.72312" lon="1.60194">
        <ele>6.7</ele>
        <time>2020-06-22T18:06:14Z</time>
      </trkpt>
      <trkpt lat="50.72317" lon="1.60194">
        <ele>6.7</ele>
        <time>2020-06-22T18:06:15Z</time>
      </trkpt>
      <trkpt lat="50.72324" lon="1.60191">
        <ele>6.7</ele>
        <time>2020-06-22T18:06:16Z</time>
      </trkpt>
      <trkpt lat="50.72329" lon="1.6019">
        <ele>6.8</ele>
        <time>2020-06-22T18:06:17Z</time>
      </trkpt>
      <trkpt lat="50.72334" lon="1.60189">
        <ele>6.9</ele>
        <time>2020-06-22T18:06:18Z</time>
      </trkpt>
      <trkpt lat="50.7234" lon="1.60189">
        <ele>6.9</ele>
        <time>2020-06-22T18:06:19Z</time>
      </trkpt>
      <trkpt lat="50.72346" lon="1.60188">
        <ele>7</ele>
        <time>2020-06-22T18:06:20Z</time>
      </trkpt>
      <trkpt lat="50.72351" lon="1.60187">
        <ele>7</ele>
        <time>2020-06-22T18:06:21Z</time>
      </trkpt>
      <trkpt lat="50.72356" lon="1.60186">
        <ele>7.1</ele>
        <time>2020-06-22T18:06:22Z</time>
      </trkpt>
      <trkpt lat="50.72361" lon="1.60185">
        <ele>7.1</ele>
        <time>2020-06-22T18:06:23Z</time>
      </trkpt>
      <trkpt lat="50.72367" lon="1.60184">
        <ele>7.2</ele>
        <time>2020-06-22T18:06:24Z</time>
      </trkpt>
      <trkpt lat="50.72373" lon="1.60183">
        <ele>7.2</ele>
        <time>2020-06-22T18:06:25Z</time>
      </trkpt>
      <trkpt lat="50.72378" lon="1.60182">
        <ele>7.1</ele>
        <time>2020-06-22T18:06:26Z</time>
      </trkpt>
      <trkpt lat="50.72384" lon="1.6018">
        <ele>7.1</ele>
        <time>2020-06-22T18:06:27Z</time>
      </trkpt>
      <trkpt lat="50.7239" lon="1.60179">
        <ele>7.1</ele>
        <time>2020-06-22T18:06:28Z</time>
      </trkpt>
      <trkpt lat="50.72396" lon="1.60178">
        <ele>7</ele>
        <time>2020-06-22T18:06:29Z</time>
      </trkpt>
      <trkpt lat="50.72402" lon="1.60177">
        <ele>6.9</ele>
        <time>2020-06-22T18:06:30Z</time>
      </trkpt>
      <trkpt lat="50.72407" lon="1.60176">
        <ele>6.9</ele>
        <time>2020-06-22T18:06:31Z</time>
      </trkpt>
      <trkpt lat="50.72413" lon="1.60176">
        <ele>6.8</ele>
        <time>2020-06-22T18:06:32Z</time>
      </trkpt>
      <trkpt lat="50.72419" lon="1.60175">
        <ele>6.8</ele>
        <time>2020-06-22T18:06:33Z</time>
      </trkpt>
      <trkpt lat="50.72424" lon="1.60173">
        <ele>6.7</ele>
        <time>2020-06-22T18:06:34Z</time>
      </trkpt>
      <trkpt lat="50.72431" lon="1.60171">
        <ele>6.7</ele>
        <time>2020-06-22T18:06:35Z</time>
      </trkpt>
      <trkpt lat="50.72436" lon="1.6017">
        <ele>6.6</ele>
        <time>2020-06-22T18:06:36Z</time>
      </trkpt>
      <trkpt lat="50.72441" lon="1.60168">
        <ele>6.6</ele>
        <time>2020-06-22T18:06:37Z</time>
      </trkpt>
      <trkpt lat="50.72446" lon="1.60169">
        <ele>6.6</ele>
        <time>2020-06-22T18:06:38Z</time>
      </trkpt>
      <trkpt lat="50.72448" lon="1.60169">
        <ele>6.6</ele>
        <time>2020-06-22T18:06:39Z</time>
      </trkpt>
      <trkpt lat="50.72451" lon="1.60171">
        <ele>7.3</ele>
        <time>2020-06-22T18:06:40Z</time>
      </trkpt>
      <trkpt lat="50.72454" lon="1.60173">
        <ele>7.3</ele>
        <time>2020-06-22T18:06:41Z</time>
      </trkpt>
      <trkpt lat="50.72457" lon="1.60177">
        <ele>7.3</ele>
        <time>2020-06-22T18:06:42Z</time>
      </trkpt>
      <trkpt lat="50.7246" lon="1.6018">
        <ele>7.3</ele>
        <time>2020-06-22T18:06:43Z</time>
      </trkpt>
      <trkpt lat="50.72461" lon="1.60182">
        <ele>7.3</ele>
        <time>2020-06-22T18:06:44Z</time>
      </trkpt>
      <trkpt lat="50.72462" lon="1.60187">
        <ele>7.3</ele>
        <time>2020-06-22T18:06:45Z</time>
      </trkpt>
      <trkpt lat="50.72462" lon="1.60188">
        <ele>7.3</ele>
        <time>2020-06-22T18:06:46Z</time>
      </trkpt>
      <trkpt lat="50.72463" lon="1.60189">
        <ele>7.3</ele>
        <time>2020-06-22T18:06:47Z</time>
      </trkpt>
      <trkpt lat="50.72464" lon="1.60189">
        <ele>7.3</ele>
        <time>2020-06-22T18:06:48Z</time>
      </trkpt>
      <trkpt lat="50.72464" lon="1.60188">
        <ele>7.3</ele>
        <time>2020-06-22T18:06:49Z</time>
      </trkpt>
      <trkpt lat="50.72465" lon="1.60187">
        <ele>7.3</ele>
        <time>2020-06-22T18:06:50Z</time>
      </trkpt>
      <trkpt lat="50.72464" lon="1.60187">
        <ele>7.3</ele>
        <time>2020-06-22T18:06:51Z</time>
      </trkpt>
      <trkpt lat="50.72464" lon="1.60187">
        <ele>7.3</ele>
        <time>2020-06-22T18:06:52Z</time>
      </trkpt>
      <trkpt lat="50.72464" lon="1.60187">
        <ele>7.3</ele>
        <time>2020-06-22T18:06:53Z</time>
      </trkpt>
      <trkpt lat="50.72464" lon="1.60187">
        <ele>7.3</ele>
        <time>2020-06-22T18:06:54Z</time>
      </trkpt>
      <trkpt lat="50.72464" lon="1.60187">
        <ele>7.3</ele>
        <time>2020-06-22T18:06:55Z</time>
      </trkpt>
      <trkpt lat="50.72465" lon="1.60187">
        <ele>7.3</ele>
        <time>2020-06-22T18:06:56Z</time>
      </trkpt>
      <trkpt lat="50.72468" lon="1.60192">
        <ele>7.4</ele>
        <time>2020-06-22T18:07:02Z</time>
      </trkpt>
      <trkpt lat="50.7247" lon="1.60194">
        <ele>7.5</ele>
        <time>2020-06-22T18:07:03Z</time>
      </trkpt>
      <trkpt lat="50.72472" lon="1.60198">
        <ele>7.6</ele>
        <time>2020-06-22T18:07:04Z</time>
      </trkpt>
      <trkpt lat="50.72473" lon="1.60199">
        <ele>7.7</ele>
        <time>2020-06-22T18:07:05Z</time>
      </trkpt>
      <trkpt lat="50.72474" lon="1.60203">
        <ele>7.8</ele>
        <time>2020-06-22T18:07:06Z</time>
      </trkpt>
      <trkpt lat="50.72477" lon="1.60207">
        <ele>8</ele>
        <time>2020-06-22T18:07:07Z</time>
      </trkpt>
      <trkpt lat="50.72479" lon="1.60211">
        <ele>8.1</ele>
        <time>2020-06-22T18:07:08Z</time>
      </trkpt>
      <trkpt lat="50.72481" lon="1.60214">
        <ele>8.3</ele>
        <time>2020-06-22T18:07:09Z</time>
      </trkpt>
      <trkpt lat="50.72483" lon="1.60218">
        <ele>8.4</ele>
        <time>2020-06-22T18:07:10Z</time>
      </trkpt>
      <trkpt lat="50.72484" lon="1.6022">
        <ele>8.5</ele>
        <time>2020-06-22T18:07:11Z</time>
      </trkpt>
      <trkpt lat="50.72487" lon="1.60224">
        <ele>8.6</ele>
        <time>2020-06-22T18:07:12Z</time>
      </trkpt>
      <trkpt lat="50.7249" lon="1.60228">
        <ele>8.8</ele>
        <time>2020-06-22T18:07:13Z</time>
      </trkpt>
      <trkpt lat="50.72492" lon="1.60233">
        <ele>9</ele>
        <time>2020-06-22T18:07:14Z</time>
      </trkpt>
      <trkpt lat="50.72495" lon="1.60238">
        <ele>9.2</ele>
        <time>2020-06-22T18:07:15Z</time>
      </trkpt>
      <trkpt lat="50.72497" lon="1.60245">
        <ele>9.3</ele>
        <time>2020-06-22T18:07:16Z</time>
      </trkpt>
      <trkpt lat="50.725" lon="1.6025">
        <ele>9.3</ele>
        <time>2020-06-22T18:07:17Z</time>
      </trkpt>
      <trkpt lat="50.72504" lon="1.60256">
        <ele>9.3</ele>
        <time>2020-06-22T18:07:18Z</time>
      </trkpt>
      <trkpt lat="50.72508" lon="1.60263">
        <ele>9.3</ele>
        <time>2020-06-22T18:07:19Z</time>
      </trkpt>
      <trkpt lat="50.72512" lon="1.6027">
        <ele>9.3</ele>
        <time>2020-06-22T18:07:20Z</time>
      </trkpt>
      <trkpt lat="50.72516" lon="1.60278">
        <ele>9.4</ele>
        <time>2020-06-22T18:07:21Z</time>
      </trkpt>
      <trkpt lat="50.7252" lon="1.60284">
        <ele>9.4</ele>
        <time>2020-06-22T18:07:22Z</time>
      </trkpt>
      <trkpt lat="50.72523" lon="1.60291">
        <ele>9.5</ele>
        <time>2020-06-22T18:07:23Z</time>
      </trkpt>
      <trkpt lat="50.72526" lon="1.60299">
        <ele>9.6</ele>
        <time>2020-06-22T18:07:24Z</time>
      </trkpt>
      <trkpt lat="50.72529" lon="1.60306">
        <ele>9.7</ele>
        <time>2020-06-22T18:07:25Z</time>
      </trkpt>
      <trkpt lat="50.72534" lon="1.60311">
        <ele>9.7</ele>
        <time>2020-06-22T18:07:26Z</time>
      </trkpt>
      <trkpt lat="50.72537" lon="1.60318">
        <ele>9.8</ele>
        <time>2020-06-22T18:07:27Z</time>
      </trkpt>
      <trkpt lat="50.7254" lon="1.60325">
        <ele>9.9</ele>
        <time>2020-06-22T18:07:28Z</time>
      </trkpt>
      <trkpt lat="50.72543" lon="1.6033">
        <ele>10</ele>
        <time>2020-06-22T18:07:29Z</time>
      </trkpt>
      <trkpt lat="50.72545" lon="1.60334">
        <ele>10</ele>
        <time>2020-06-22T18:07:30Z</time>
      </trkpt>
      <trkpt lat="50.72547" lon="1.60338">
        <ele>10.1</ele>
        <time>2020-06-22T18:07:31Z</time>
      </trkpt>
      <trkpt lat="50.7255" lon="1.60343">
        <ele>10.2</ele>
        <time>2020-06-22T18:07:32Z</time>
      </trkpt>
      <trkpt lat="50.72552" lon="1.60348">
        <ele>10.2</ele>
        <time>2020-06-22T18:07:33Z</time>
      </trkpt>
      <trkpt lat="50.72554" lon="1.60353">
        <ele>10.3</ele>
        <time>2020-06-22T18:07:34Z</time>
      </trkpt>
      <trkpt lat="50.72557" lon="1.60355">
        <ele>10.4</ele>
        <time>2020-06-22T18:07:35Z</time>
      </trkpt>
      <trkpt lat="50.72561" lon="1.60354">
        <ele>10.6</ele>
        <time>2020-06-22T18:07:36Z</time>
      </trkpt>
      <trkpt lat="50.72564" lon="1.6035">
        <ele>10.7</ele>
        <time>2020-06-22T18:07:37Z</time>
      </trkpt>
      <trkpt lat="50.72567" lon="1.60346">
        <ele>10.9</ele>
        <time>2020-06-22T18:07:38Z</time>
      </trkpt>
      <trkpt lat="50.72569" lon="1.60343">
        <ele>11</ele>
        <time>2020-06-22T18:07:39Z</time>
      </trkpt>
      <trkpt lat="50.7257" lon="1.60341">
        <ele>11</ele>
        <time>2020-06-22T18:07:40Z</time>
      </trkpt>
      <trkpt lat="50.72571" lon="1.60339">
        <ele>11.1</ele>
        <time>2020-06-22T18:07:41Z</time>
      </trkpt>
      <trkpt lat="50.72574" lon="1.60334">
        <ele>11.3</ele>
        <time>2020-06-22T18:07:42Z</time>
      </trkpt>
      <trkpt lat="50.72575" lon="1.60332">
        <ele>11.4</ele>
        <time>2020-06-22T18:07:43Z</time>
      </trkpt>
      <trkpt lat="50.72577" lon="1.60328">
        <ele>11.5</ele>
        <time>2020-06-22T18:07:44Z</time>
      </trkpt>
      <trkpt lat="50.7258" lon="1.60323">
        <ele>11.7</ele>
        <time>2020-06-22T18:07:45Z</time>
      </trkpt>
      <trkpt lat="50.72579" lon="1.60318">
        <ele>11.8</ele>
        <time>2020-06-22T18:07:46Z</time>
      </trkpt>
      <trkpt lat="50.72581" lon="1.60314">
        <ele>11.9</ele>
        <time>2020-06-22T18:07:47Z</time>
      </trkpt>
      <trkpt lat="50.72584" lon="1.6031">
        <ele>12.1</ele>
        <time>2020-06-22T18:07:48Z</time>
      </trkpt>
      <trkpt lat="50.72587" lon="1.60306">
        <ele>12.2</ele>
        <time>2020-06-22T18:07:49Z</time>
      </trkpt>
      <trkpt lat="50.7259" lon="1.60302">
        <ele>12.4</ele>
        <time>2020-06-22T18:07:50Z</time>
      </trkpt>
      <trkpt lat="50.72592" lon="1.60298">
        <ele>12.5</ele>
        <time>2020-06-22T18:07:51Z</time>
      </trkpt>
      <trkpt lat="50.72595" lon="1.60294">
        <ele>12.6</ele>
        <time>2020-06-22T18:07:52Z</time>
      </trkpt>
      <trkpt lat="50.72596" lon="1.60292">
        <ele>12.7</ele>
        <time>2020-06-22T18:07:53Z</time>
      </trkpt>
      <trkpt lat="50.726" lon="1.6029">
        <ele>12.8</ele>
        <time>2020-06-22T18:07:54Z</time>
      </trkpt>
      <trkpt lat="50.72602" lon="1.6029">
        <ele>12.9</ele>
        <time>2020-06-22T18:07:55Z</time>
      </trkpt>
      <trkpt lat="50.72608" lon="1.60297">
        <ele>13.1</ele>
        <time>2020-06-22T18:07:56Z</time>
      </trkpt>
      <trkpt lat="50.72611" lon="1.60296">
        <ele>13.2</ele>
        <time>2020-06-22T18:07:57Z</time>
      </trkpt>
      <trkpt lat="50.72612" lon="1.60296">
        <ele>13.2</ele>
        <time>2020-06-22T18:07:58Z</time>
      </trkpt>
      <trkpt lat="50.72615" lon="1.60295">
        <ele>13.6</ele>
        <time>2020-06-22T18:07:59Z</time>
      </trkpt>
      <trkpt lat="50.72618" lon="1.603">
        <ele>14.1</ele>
        <time>2020-06-22T18:08:00Z</time>
      </trkpt>
      <trkpt lat="50.72622" lon="1.60298">
        <ele>14.6</ele>
        <time>2020-06-22T18:08:01Z</time>
      </trkpt>
      <trkpt lat="50.72624" lon="1.60296">
        <ele>14.8</ele>
        <time>2020-06-22T18:08:02Z</time>
      </trkpt>
      <trkpt lat="50.72627" lon="1.60295">
        <ele>15.1</ele>
        <time>2020-06-22T18:08:03Z</time>
      </trkpt>
      <trkpt lat="50.72629" lon="1.60293">
        <ele>15.4</ele>
        <time>2020-06-22T18:08:04Z</time>
      </trkpt>
      <trkpt lat="50.72633" lon="1.60292">
        <ele>15.8</ele>
        <time>2020-06-22T18:08:05Z</time>
      </trkpt>
      <trkpt lat="50.72635" lon="1.60291">
        <ele>15.9</ele>
        <time>2020-06-22T18:08:06Z</time>
      </trkpt>
      <trkpt lat="50.72638" lon="1.6029">
        <ele>16.2</ele>
        <time>2020-06-22T18:08:07Z</time>
      </trkpt>
      <trkpt lat="50.72642" lon="1.60292">
        <ele>16.7</ele>
        <time>2020-06-22T18:08:08Z</time>
      </trkpt>
      <trkpt lat="50.72644" lon="1.60294">
        <ele>16.9</ele>
        <time>2020-06-22T18:08:09Z</time>
      </trkpt>
      <trkpt lat="50.72648" lon="1.60296">
        <ele>17.3</ele>
        <time>2020-06-22T18:08:10Z</time>
      </trkpt>
      <trkpt lat="50.72651" lon="1.60297">
        <ele>17.6</ele>
        <time>2020-06-22T18:08:11Z</time>
      </trkpt>
      <trkpt lat="50.72654" lon="1.60296">
        <ele>18.2</ele>
        <time>2020-06-22T18:08:12Z</time>
      </trkpt>
      <trkpt lat="50.72657" lon="1.60295">
        <ele>18.6</ele>
        <time>2020-06-22T18:08:13Z</time>
      </trkpt>
      <trkpt lat="50.72658" lon="1.60294">
        <ele>18.7</ele>
        <time>2020-06-22T18:08:14Z</time>
      </trkpt>
      <trkpt lat="50.72661" lon="1.60292">
        <ele>19</ele>
        <time>2020-06-22T18:08:15Z</time>
      </trkpt>
      <trkpt lat="50.72661" lon="1.60291">
        <ele>19.2</ele>
        <time>2020-06-22T18:08:16Z</time>
      </trkpt>
      <trkpt lat="50.72664" lon="1.6029">
        <ele>19.9</ele>
        <time>2020-06-22T18:08:17Z</time>
      </trkpt>
      <trkpt lat="50.72665" lon="1.60289">
        <ele>19.9</ele>
        <time>2020-06-22T18:08:18Z</time>
      </trkpt>
      <trkpt lat="50.72668" lon="1.60287">
        <ele>20</ele>
        <time>2020-06-22T18:08:19Z</time>
      </trkpt>
      <trkpt lat="50.72671" lon="1.60285">
        <ele>20.1</ele>
        <time>2020-06-22T18:08:20Z</time>
      </trkpt>
      <trkpt lat="50.72673" lon="1.60283">
        <ele>20.2</ele>
        <time>2020-06-22T18:08:21Z</time>
      </trkpt>
      <trkpt lat="50.72676" lon="1.60282">
        <ele>20.5</ele>
        <time>2020-06-22T18:08:22Z</time>
      </trkpt>
      <trkpt lat="50.7268" lon="1.60282">
        <ele>21</ele>
        <time>2020-06-22T18:08:23Z</time>
      </trkpt>
      <trkpt lat="50.72681" lon="1.60281">
        <ele>21.1</ele>
        <time>2020-06-22T18:08:24Z</time>
      </trkpt>
      <trkpt lat="50.72684" lon="1.60279">
        <ele>21.5</ele>
        <time>2020-06-22T18:08:25Z</time>
      </trkpt>
      <trkpt lat="50.72686" lon="1.60278">
        <ele>21.7</ele>
        <time>2020-06-22T18:08:26Z</time>
      </trkpt>
      <trkpt lat="50.7269" lon="1.60278">
        <ele>22.1</ele>
        <time>2020-06-22T18:08:27Z</time>
      </trkpt>
      <trkpt lat="50.72693" lon="1.60275">
        <ele>22.5</ele>
        <time>2020-06-22T18:08:28Z</time>
      </trkpt>
      <trkpt lat="50.72694" lon="1.60274">
        <ele>22.7</ele>
        <time>2020-06-22T18:08:29Z</time>
      </trkpt>
      <trkpt lat="50.72697" lon="1.60273">
        <ele>23</ele>
        <time>2020-06-22T18:08:30Z</time>
      </trkpt>
      <trkpt lat="50.72699" lon="1.60273">
        <ele>23.2</ele>
        <time>2020-06-22T18:08:31Z</time>
      </trkpt>
      <trkpt lat="50.72704" lon="1.60277">
        <ele>23.8</ele>
        <time>2020-06-22T18:08:32Z</time>
      </trkpt>
      <trkpt lat="50.72709" lon="1.60279">
        <ele>24.3</ele>
        <time>2020-06-22T18:08:33Z</time>
      </trkpt>
      <trkpt lat="50.72712" lon="1.6028">
        <ele>24.6</ele>
        <time>2020-06-22T18:08:34Z</time>
      </trkpt>
      <trkpt lat="50.72713" lon="1.60281">
        <ele>24.8</ele>
        <time>2020-06-22T18:08:35Z</time>
      </trkpt>
      <trkpt lat="50.72716" lon="1.60282">
        <ele>25.2</ele>
        <time>2020-06-22T18:08:36Z</time>
      </trkpt>
      <trkpt lat="50.72716" lon="1.60282">
        <ele>25.2</ele>
        <time>2020-06-22T18:08:37Z</time>
      </trkpt>
      <trkpt lat="50.72719" lon="1.6028">
        <ele>25.5</ele>
        <time>2020-06-22T18:08:38Z</time>
      </trkpt>
      <trkpt lat="50.72722" lon="1.60277">
        <ele>25.8</ele>
        <time>2020-06-22T18:08:39Z</time>
      </trkpt>
      <trkpt lat="50.72723" lon="1.60276">
        <ele>25.9</ele>
        <time>2020-06-22T18:08:40Z</time>
      </trkpt>
      <trkpt lat="50.72726" lon="1.60275">
        <ele>26.2</ele>
        <time>2020-06-22T18:08:41Z</time>
      </trkpt>
      <trkpt lat="50.72727" lon="1.60275">
        <ele>26.3</ele>
        <time>2020-06-22T18:08:42Z</time>
      </trkpt>
      <trkpt lat="50.7273" lon="1.60274">
        <ele>26.5</ele>
        <time>2020-06-22T18:08:43Z</time>
      </trkpt>
      <trkpt lat="50.72731" lon="1.60273">
        <ele>26.6</ele>
        <time>2020-06-22T18:08:44Z</time>
      </trkpt>
      <trkpt lat="50.72734" lon="1.60272">
        <ele>26.9</ele>
        <time>2020-06-22T18:08:45Z</time>
      </trkpt>
      <trkpt lat="50.72736" lon="1.60272">
        <ele>27</ele>
        <time>2020-06-22T18:08:46Z</time>
      </trkpt>
      <trkpt lat="50.72739" lon="1.60272">
        <ele>27.4</ele>
        <time>2020-06-22T18:08:47Z</time>
      </trkpt>
      <trkpt lat="50.72742" lon="1.6027">
        <ele>27.7</ele>
        <time>2020-06-22T18:08:48Z</time>
      </trkpt>
      <trkpt lat="50.72743" lon="1.6027">
        <ele>27.8</ele>
        <time>2020-06-22T18:08:49Z</time>
      </trkpt>
      <trkpt lat="50.72746" lon="1.60266">
        <ele>28.1</ele>
        <time>2020-06-22T18:08:50Z</time>
      </trkpt>
      <trkpt lat="50.72747" lon="1.60265">
        <ele>28.2</ele>
        <time>2020-06-22T18:08:51Z</time>
      </trkpt>
      <trkpt lat="50.72749" lon="1.60262">
        <ele>28.4</ele>
        <time>2020-06-22T18:08:52Z</time>
      </trkpt>
      <trkpt lat="50.72752" lon="1.60261">
        <ele>28.7</ele>
        <time>2020-06-22T18:08:53Z</time>
      </trkpt>
      <trkpt lat="50.72755" lon="1.60259">
        <ele>29</ele>
        <time>2020-06-22T18:08:54Z</time>
      </trkpt>
      <trkpt lat="50.72758" lon="1.60256">
        <ele>29.3</ele>
        <time>2020-06-22T18:08:55Z</time>
      </trkpt>
      <trkpt lat="50.72759" lon="1.60255">
        <ele>29.4</ele>
        <time>2020-06-22T18:08:56Z</time>
      </trkpt>
      <trkpt lat="50.72762" lon="1.60252">
        <ele>29.7</ele>
        <time>2020-06-22T18:08:57Z</time>
      </trkpt>
      <trkpt lat="50.72765" lon="1.60248">
        <ele>30</ele>
        <time>2020-06-22T18:08:58Z</time>
      </trkpt>
      <trkpt lat="50.72766" lon="1.60246">
        <ele>30.1</ele>
        <time>2020-06-22T18:08:59Z</time>
      </trkpt>
      <trkpt lat="50.72768" lon="1.60244">
        <ele>30.3</ele>
        <time>2020-06-22T18:09:00Z</time>
      </trkpt>
      <trkpt lat="50.72771" lon="1.60242">
        <ele>30.6</ele>
        <time>2020-06-22T18:09:01Z</time>
      </trkpt>
      <trkpt lat="50.72774" lon="1.60238">
        <ele>30.9</ele>
        <time>2020-06-22T18:09:02Z</time>
      </trkpt>
      <trkpt lat="50.72775" lon="1.60237">
        <ele>31</ele>
        <time>2020-06-22T18:09:03Z</time>
      </trkpt>
      <trkpt lat="50.72777" lon="1.60234">
        <ele>31.3</ele>
        <time>2020-06-22T18:09:04Z</time>
      </trkpt>
      <trkpt lat="50.7278" lon="1.6023">
        <ele>31.6</ele>
        <time>2020-06-22T18:09:05Z</time>
      </trkpt>
      <trkpt lat="50.72782" lon="1.60228">
        <ele>31.9</ele>
        <time>2020-06-22T18:09:06Z</time>
      </trkpt>
      <trkpt lat="50.72785" lon="1.60225">
        <ele>32.1</ele>
        <time>2020-06-22T18:09:07Z</time>
      </trkpt>
      <trkpt lat="50.72788" lon="1.60224">
        <ele>32.4</ele>
        <time>2020-06-22T18:09:08Z</time>
      </trkpt>
      <trkpt lat="50.7279" lon="1.6022">
        <ele>32.6</ele>
        <time>2020-06-22T18:09:09Z</time>
      </trkpt>
      <trkpt lat="50.72793" lon="1.60219">
        <ele>32.8</ele>
        <time>2020-06-22T18:09:10Z</time>
      </trkpt>
      <trkpt lat="50.72794" lon="1.60218">
        <ele>32.9</ele>
        <time>2020-06-22T18:09:11Z</time>
      </trkpt>
      <trkpt lat="50.72797" lon="1.60216">
        <ele>33.2</ele>
        <time>2020-06-22T18:09:12Z</time>
      </trkpt>
      <trkpt lat="50.72799" lon="1.60215">
        <ele>33.4</ele>
        <time>2020-06-22T18:09:13Z</time>
      </trkpt>
      <trkpt lat="50.72802" lon="1.60212">
        <ele>33.6</ele>
        <time>2020-06-22T18:09:14Z</time>
      </trkpt>
      <trkpt lat="50.72803" lon="1.60211">
        <ele>33.7</ele>
        <time>2020-06-22T18:09:15Z</time>
      </trkpt>
      <trkpt lat="50.72806" lon="1.60209">
        <ele>34</ele>
        <time>2020-06-22T18:09:16Z</time>
      </trkpt>
      <trkpt lat="50.72809" lon="1.60207">
        <ele>34.2</ele>
        <time>2020-06-22T18:09:17Z</time>
      </trkpt>
      <trkpt lat="50.72813" lon="1.60205">
        <ele>34.6</ele>
        <time>2020-06-22T18:09:18Z</time>
      </trkpt>
      <trkpt lat="50.72814" lon="1.60205">
        <ele>34.7</ele>
        <time>2020-06-22T18:09:19Z</time>
      </trkpt>
      <trkpt lat="50.72817" lon="1.60202">
        <ele>35</ele>
        <time>2020-06-22T18:09:20Z</time>
      </trkpt>
      <trkpt lat="50.72819" lon="1.60201">
        <ele>35.1</ele>
        <time>2020-06-22T18:09:21Z</time>
      </trkpt>
      <trkpt lat="50.72822" lon="1.60199">
        <ele>35.4</ele>
        <time>2020-06-22T18:09:22Z</time>
      </trkpt>
      <trkpt lat="50.72825" lon="1.60196">
        <ele>35.7</ele>
        <time>2020-06-22T18:09:23Z</time>
      </trkpt>
      <trkpt lat="50.72826" lon="1.60195">
        <ele>35.7</ele>
        <time>2020-06-22T18:09:24Z</time>
      </trkpt>
      <trkpt lat="50.72829" lon="1.60192">
        <ele>36</ele>
        <time>2020-06-22T18:09:25Z</time>
      </trkpt>
      <trkpt lat="50.7283" lon="1.6019">
        <ele>36.2</ele>
        <time>2020-06-22T18:09:26Z</time>
      </trkpt>
      <trkpt lat="50.72834" lon="1.60189">
        <ele>36.5</ele>
        <time>2020-06-22T18:09:27Z</time>
      </trkpt>
      <trkpt lat="50.72836" lon="1.60188">
        <ele>36.6</ele>
        <time>2020-06-22T18:09:28Z</time>
      </trkpt>
      <trkpt lat="50.72839" lon="1.60189">
        <ele>36.8</ele>
        <time>2020-06-22T18:09:29Z</time>
      </trkpt>
      <trkpt lat="50.72842" lon="1.60188">
        <ele>37.2</ele>
        <time>2020-06-22T18:09:30Z</time>
      </trkpt>
      <trkpt lat="50.72844" lon="1.60188">
        <ele>37.3</ele>
        <time>2020-06-22T18:09:31Z</time>
      </trkpt>
      <trkpt lat="50.72848" lon="1.60187">
        <ele>37.6</ele>
        <time>2020-06-22T18:09:32Z</time>
      </trkpt>
      <trkpt lat="50.72849" lon="1.60186">
        <ele>37.7</ele>
        <time>2020-06-22T18:09:33Z</time>
      </trkpt>
      <trkpt lat="50.72852" lon="1.60185">
        <ele>37.9</ele>
        <time>2020-06-22T18:09:34Z</time>
      </trkpt>
      <trkpt lat="50.72856" lon="1.60184">
        <ele>38.2</ele>
        <time>2020-06-22T18:09:35Z</time>
      </trkpt>
      <trkpt lat="50.72857" lon="1.60184">
        <ele>38.4</ele>
        <time>2020-06-22T18:09:36Z</time>
      </trkpt>
      <trkpt lat="50.7286" lon="1.60182">
        <ele>38.7</ele>
        <time>2020-06-22T18:09:37Z</time>
      </trkpt>
      <trkpt lat="50.72864" lon="1.60182">
        <ele>39</ele>
        <time>2020-06-22T18:09:38Z</time>
      </trkpt>
      <trkpt lat="50.72867" lon="1.6018">
        <ele>39.3</ele>
        <time>2020-06-22T18:09:39Z</time>
      </trkpt>
      <trkpt lat="50.7287" lon="1.60179">
        <ele>39.6</ele>
        <time>2020-06-22T18:09:40Z</time>
      </trkpt>
      <trkpt lat="50.72873" lon="1.60176">
        <ele>40.1</ele>
        <time>2020-06-22T18:09:41Z</time>
      </trkpt>
      <trkpt lat="50.72874" lon="1.60175">
        <ele>40.2</ele>
        <time>2020-06-22T18:09:42Z</time>
      </trkpt>
      <trkpt lat="50.72878" lon="1.60173">
        <ele>40.5</ele>
        <time>2020-06-22T18:09:43Z</time>
      </trkpt>
      <trkpt lat="50.72879" lon="1.60173">
        <ele>40.5</ele>
        <time>2020-06-22T18:09:44Z</time>
      </trkpt>
      <trkpt lat="50.72882" lon="1.60172">
        <ele>40.7</ele>
        <time>2020-06-22T18:09:45Z</time>
      </trkpt>
      <trkpt lat="50.72886" lon="1.60173">
        <ele>41</ele>
        <time>2020-06-22T18:09:46Z</time>
      </trkpt>
      <trkpt lat="50.7289" lon="1.60176">
        <ele>41.3</ele>
        <time>2020-06-22T18:09:47Z</time>
      </trkpt>
      <trkpt lat="50.72894" lon="1.6018">
        <ele>41.6</ele>
        <time>2020-06-22T18:09:48Z</time>
      </trkpt>
      <trkpt lat="50.72896" lon="1.60181">
        <ele>41.8</ele>
        <time>2020-06-22T18:09:49Z</time>
      </trkpt>
      <trkpt lat="50.729" lon="1.60179">
        <ele>42.3</ele>
        <time>2020-06-22T18:09:50Z</time>
      </trkpt>
      <trkpt lat="50.72901" lon="1.60178">
        <ele>42.5</ele>
        <time>2020-06-22T18:09:51Z</time>
      </trkpt>
      <trkpt lat="50.72904" lon="1.60176">
        <ele>42.9</ele>
        <time>2020-06-22T18:09:52Z</time>
      </trkpt>
      <trkpt lat="50.72905" lon="1.60176">
        <ele>43</ele>
        <time>2020-06-22T18:09:53Z</time>
      </trkpt>
      <trkpt lat="50.72909" lon="1.60174">
        <ele>43.4</ele>
        <time>2020-06-22T18:09:54Z</time>
      </trkpt>
      <trkpt lat="50.7291" lon="1.60173">
        <ele>43.5</ele>
        <time>2020-06-22T18:09:55Z</time>
      </trkpt>
      <trkpt lat="50.72913" lon="1.6017">
        <ele>43.9</ele>
        <time>2020-06-22T18:09:56Z</time>
      </trkpt>
      <trkpt lat="50.72915" lon="1.60169">
        <ele>44.2</ele>
        <time>2020-06-22T18:09:57Z</time>
      </trkpt>
      <trkpt lat="50.72918" lon="1.60167">
        <ele>44.5</ele>
        <time>2020-06-22T18:09:58Z</time>
      </trkpt>
      <trkpt lat="50.7292" lon="1.60166">
        <ele>44.7</ele>
        <time>2020-06-22T18:09:59Z</time>
      </trkpt>
      <trkpt lat="50.72922" lon="1.60163">
        <ele>45</ele>
        <time>2020-06-22T18:10:00Z</time>
      </trkpt>
      <trkpt lat="50.72925" lon="1.6016">
        <ele>45.3</ele>
        <time>2020-06-22T18:10:01Z</time>
      </trkpt>
      <trkpt lat="50.72926" lon="1.6016">
        <ele>45.4</ele>
        <time>2020-06-22T18:10:02Z</time>
      </trkpt>
      <trkpt lat="50.72928" lon="1.60157">
        <ele>45.8</ele>
        <time>2020-06-22T18:10:03Z</time>
      </trkpt>
      <trkpt lat="50.72931" lon="1.60154">
        <ele>46.1</ele>
        <time>2020-06-22T18:10:04Z</time>
      </trkpt>
      <trkpt lat="50.72932" lon="1.60153">
        <ele>46.2</ele>
        <time>2020-06-22T18:10:05Z</time>
      </trkpt>
      <trkpt lat="50.72934" lon="1.60153">
        <ele>46.6</ele>
        <time>2020-06-22T18:10:06Z</time>
      </trkpt>
      <trkpt lat="50.72935" lon="1.60152">
        <ele>46.7</ele>
        <time>2020-06-22T18:10:07Z</time>
      </trkpt>
      <trkpt lat="50.72938" lon="1.60151">
        <ele>47</ele>
        <time>2020-06-22T18:10:08Z</time>
      </trkpt>
      <trkpt lat="50.7294" lon="1.6015">
        <ele>47.2</ele>
        <time>2020-06-22T18:10:09Z</time>
      </trkpt>
      <trkpt lat="50.72943" lon="1.60148">
        <ele>47.6</ele>
        <time>2020-06-22T18:10:10Z</time>
      </trkpt>
      <trkpt lat="50.72946" lon="1.60147">
        <ele>48</ele>
        <time>2020-06-22T18:10:11Z</time>
      </trkpt>
      <trkpt lat="50.72947" lon="1.60147">
        <ele>48.1</ele>
        <time>2020-06-22T18:10:12Z</time>
      </trkpt>
      <trkpt lat="50.7295" lon="1.60147">
        <ele>48.5</ele>
        <time>2020-06-22T18:10:13Z</time>
      </trkpt>
      <trkpt lat="50.72951" lon="1.60148">
        <ele>48.6</ele>
        <time>2020-06-22T18:10:14Z</time>
      </trkpt>
      <trkpt lat="50.72955" lon="1.60156">
        <ele>49.5</ele>
        <time>2020-06-22T18:10:15Z</time>
      </trkpt>
      <trkpt lat="50.72957" lon="1.60156">
        <ele>49.7</ele>
        <time>2020-06-22T18:10:16Z</time>
      </trkpt>
      <trkpt lat="50.72959" lon="1.60157">
        <ele>49.9</ele>
        <time>2020-06-22T18:10:17Z</time>
      </trkpt>
      <trkpt lat="50.72963" lon="1.60155">
        <ele>50.4</ele>
        <time>2020-06-22T18:10:18Z</time>
      </trkpt>
      <trkpt lat="50.72964" lon="1.60154">
        <ele>50.5</ele>
        <time>2020-06-22T18:10:19Z</time>
      </trkpt>
      <trkpt lat="50.72967" lon="1.60151">
        <ele>50.9</ele>
        <time>2020-06-22T18:10:20Z</time>
      </trkpt>
      <trkpt lat="50.7297" lon="1.60149">
        <ele>51.2</ele>
        <time>2020-06-22T18:10:21Z</time>
      </trkpt>
      <trkpt lat="50.72973" lon="1.60146">
        <ele>51.6</ele>
        <time>2020-06-22T18:10:22Z</time>
      </trkpt>
      <trkpt lat="50.72976" lon="1.60145">
        <ele>51.9</ele>
        <time>2020-06-22T18:10:23Z</time>
      </trkpt>
      <trkpt lat="50.72977" lon="1.60145">
        <ele>52</ele>
        <time>2020-06-22T18:10:24Z</time>
      </trkpt>
      <trkpt lat="50.72981" lon="1.60145">
        <ele>52.4</ele>
        <time>2020-06-22T18:10:25Z</time>
      </trkpt>
      <trkpt lat="50.72982" lon="1.60145">
        <ele>52.5</ele>
        <time>2020-06-22T18:10:26Z</time>
      </trkpt>
      <trkpt lat="50.72986" lon="1.60145">
        <ele>52.9</ele>
        <time>2020-06-22T18:10:27Z</time>
      </trkpt>
      <trkpt lat="50.72988" lon="1.60145">
        <ele>53.1</ele>
        <time>2020-06-22T18:10:28Z</time>
      </trkpt>
      <trkpt lat="50.72992" lon="1.60145">
        <ele>53.6</ele>
        <time>2020-06-22T18:10:29Z</time>
      </trkpt>
      <trkpt lat="50.72994" lon="1.60145">
        <ele>53.7</ele>
        <time>2020-06-22T18:10:30Z</time>
      </trkpt>
      <trkpt lat="50.72998" lon="1.60144">
        <ele>54.6</ele>
        <time>2020-06-22T18:10:31Z</time>
      </trkpt>
      <trkpt lat="50.73001" lon="1.60142">
        <ele>55</ele>
        <time>2020-06-22T18:10:32Z</time>
      </trkpt>
      <trkpt lat="50.73002" lon="1.60142">
        <ele>55.1</ele>
        <time>2020-06-22T18:10:33Z</time>
      </trkpt>
      <trkpt lat="50.73005" lon="1.60142">
        <ele>55.6</ele>
        <time>2020-06-22T18:10:34Z</time>
      </trkpt>
      <trkpt lat="50.73006" lon="1.60142">
        <ele>55.7</ele>
        <time>2020-06-22T18:10:35Z</time>
      </trkpt>
      <trkpt lat="50.7301" lon="1.60142">
        <ele>56.3</ele>
        <time>2020-06-22T18:10:36Z</time>
      </trkpt>
      <trkpt lat="50.73012" lon="1.60142">
        <ele>56.5</ele>
        <time>2020-06-22T18:10:37Z</time>
      </trkpt>
      <trkpt lat="50.73015" lon="1.60143">
        <ele>56.9</ele>
        <time>2020-06-22T18:10:38Z</time>
      </trkpt>
      <trkpt lat="50.73017" lon="1.60144">
        <ele>57.1</ele>
        <time>2020-06-22T18:10:39Z</time>
      </trkpt>
      <trkpt lat="50.73019" lon="1.60144">
        <ele>57.4</ele>
        <time>2020-06-22T18:10:40Z</time>
      </trkpt>
      <trkpt lat="50.7302" lon="1.60144">
        <ele>57.5</ele>
        <time>2020-06-22T18:10:41Z</time>
      </trkpt>
      <trkpt lat="50.73021" lon="1.60144">
        <ele>57.7</ele>
        <time>2020-06-22T18:10:42Z</time>
      </trkpt>
      <trkpt lat="50.73025" lon="1.60143">
        <ele>58.1</ele>
        <time>2020-06-22T18:10:43Z</time>
      </trkpt>
      <trkpt lat="50.73026" lon="1.60143">
        <ele>58.2</ele>
        <time>2020-06-22T18:10:44Z</time>
      </trkpt>
      <trkpt lat="50.73028" lon="1.60143">
        <ele>58.4</ele>
        <time>2020-06-22T18:10:45Z</time>
      </trkpt>
      <trkpt lat="50.73029" lon="1.60143">
        <ele>58.6</ele>
        <time>2020-06-22T18:10:46Z</time>
      </trkpt>
      <trkpt lat="50.73032" lon="1.60142">
        <ele>58.9</ele>
        <time>2020-06-22T18:10:47Z</time>
      </trkpt>
      <trkpt lat="50.73036" lon="1.60141">
        <ele>59.5</ele>
        <time>2020-06-22T18:10:48Z</time>
      </trkpt>
      <trkpt lat="50.73038" lon="1.60141">
        <ele>59.7</ele>
        <time>2020-06-22T18:10:49Z</time>
      </trkpt>
      <trkpt lat="50.7304" lon="1.6014">
        <ele>60</ele>
        <time>2020-06-22T18:10:50Z</time>
      </trkpt>
      <trkpt lat="50.73044" lon="1.60139">
        <ele>60.4</ele>
        <time>2020-06-22T18:10:51Z</time>
      </trkpt>
      <trkpt lat="50.73044" lon="1.6014">
        <ele>60.5</ele>
        <time>2020-06-22T18:10:52Z</time>
      </trkpt>
      <trkpt lat="50.73047" lon="1.60139">
        <ele>60.8</ele>
        <time>2020-06-22T18:10:53Z</time>
      </trkpt>
      <trkpt lat="50.73048" lon="1.60138">
        <ele>60.9</ele>
        <time>2020-06-22T18:10:54Z</time>
      </trkpt>
      <trkpt lat="50.73051" lon="1.60139">
        <ele>61.1</ele>
        <time>2020-06-22T18:10:55Z</time>
      </trkpt>
      <trkpt lat="50.73052" lon="1.6014">
        <ele>61.2</ele>
        <time>2020-06-22T18:10:56Z</time>
      </trkpt>
      <trkpt lat="50.73054" lon="1.60138">
        <ele>61.4</ele>
        <time>2020-06-22T18:10:57Z</time>
      </trkpt>
      <trkpt lat="50.73055" lon="1.60138">
        <ele>61.5</ele>
        <time>2020-06-22T18:10:58Z</time>
      </trkpt>
      <trkpt lat="50.73058" lon="1.60138">
        <ele>61.8</ele>
        <time>2020-06-22T18:10:59Z</time>
      </trkpt>
      <trkpt lat="50.73059" lon="1.60137">
        <ele>61.9</ele>
        <time>2020-06-22T18:11:00Z</time>
      </trkpt>
      <trkpt lat="50.73061" lon="1.60137">
        <ele>62.2</ele>
        <time>2020-06-22T18:11:01Z</time>
      </trkpt>
      <trkpt lat="50.73063" lon="1.60138">
        <ele>62.3</ele>
        <time>2020-06-22T18:11:02Z</time>
      </trkpt>
      <trkpt lat="50.73066" lon="1.60138">
        <ele>62.6</ele>
        <time>2020-06-22T18:11:03Z</time>
      </trkpt>
      <trkpt lat="50.73067" lon="1.60138">
        <ele>62.7</ele>
        <time>2020-06-22T18:11:04Z</time>
      </trkpt>
      <trkpt lat="50.7307" lon="1.60138">
        <ele>63</ele>
        <time>2020-06-22T18:11:05Z</time>
      </trkpt>
      <trkpt lat="50.73071" lon="1.60138">
        <ele>63</ele>
        <time>2020-06-22T18:11:06Z</time>
      </trkpt>
      <trkpt lat="50.73074" lon="1.60137">
        <ele>63.3</ele>
        <time>2020-06-22T18:11:07Z</time>
      </trkpt>
      <trkpt lat="50.73078" lon="1.60138">
        <ele>63.6</ele>
        <time>2020-06-22T18:11:08Z</time>
      </trkpt>
      <trkpt lat="50.73081" lon="1.60139">
        <ele>63.8</ele>
        <time>2020-06-22T18:11:09Z</time>
      </trkpt>
      <trkpt lat="50.73084" lon="1.60138">
        <ele>64</ele>
        <time>2020-06-22T18:11:10Z</time>
      </trkpt>
      <trkpt lat="50.73088" lon="1.60137">
        <ele>64.3</ele>
        <time>2020-06-22T18:11:11Z</time>
      </trkpt>
      <trkpt lat="50.73092" lon="1.60137">
        <ele>64.5</ele>
        <time>2020-06-22T18:11:12Z</time>
      </trkpt>
      <trkpt lat="50.73095" lon="1.60137">
        <ele>64.6</ele>
        <time>2020-06-22T18:11:13Z</time>
      </trkpt>
      <trkpt lat="50.73098" lon="1.60136">
        <ele>64.8</ele>
        <time>2020-06-22T18:11:14Z</time>
      </trkpt>
      <trkpt lat="50.731" lon="1.60136">
        <ele>64.9</ele>
        <time>2020-06-22T18:11:15Z</time>
      </trkpt>
      <trkpt lat="50.73103" lon="1.60136">
        <ele>65</ele>
        <time>2020-06-22T18:11:16Z</time>
      </trkpt>
      <trkpt lat="50.73103" lon="1.60136">
        <ele>65</ele>
        <time>2020-06-22T18:11:17Z</time>
      </trkpt>
      <trkpt lat="50.73107" lon="1.60135">
        <ele>65.1</ele>
        <time>2020-06-22T18:11:18Z</time>
      </trkpt>
      <trkpt lat="50.73108" lon="1.60134">
        <ele>65.1</ele>
        <time>2020-06-22T18:11:19Z</time>
      </trkpt>
      <trkpt lat="50.73111" lon="1.60134">
        <ele>65.1</ele>
        <time>2020-06-22T18:11:20Z</time>
      </trkpt>
      <trkpt lat="50.73114" lon="1.60132">
        <ele>65.2</ele>
        <time>2020-06-22T18:11:21Z</time>
      </trkpt>
      <trkpt lat="50.73118" lon="1.60131">
        <ele>65.2</ele>
        <time>2020-06-22T18:11:22Z</time>
      </trkpt>
      <trkpt lat="50.73119" lon="1.60129">
        <ele>65.2</ele>
        <time>2020-06-22T18:11:23Z</time>
      </trkpt>
      <trkpt lat="50.73122" lon="1.60128">
        <ele>65.2</ele>
        <time>2020-06-22T18:11:24Z</time>
      </trkpt>
      <trkpt lat="50.73124" lon="1.60128">
        <ele>65.3</ele>
        <time>2020-06-22T18:11:25Z</time>
      </trkpt>
      <trkpt lat="50.73127" lon="1.60126">
        <ele>65.3</ele>
        <time>2020-06-22T18:11:26Z</time>
      </trkpt>
      <trkpt lat="50.73128" lon="1.60126">
        <ele>65.3</ele>
        <time>2020-06-22T18:11:27Z</time>
      </trkpt>
      <trkpt lat="50.73132" lon="1.60125">
        <ele>65.4</ele>
        <time>2020-06-22T18:11:28Z</time>
      </trkpt>
      <trkpt lat="50.73133" lon="1.60124">
        <ele>65.4</ele>
        <time>2020-06-22T18:11:29Z</time>
      </trkpt>
      <trkpt lat="50.73136" lon="1.60122">
        <ele>65.5</ele>
        <time>2020-06-22T18:11:30Z</time>
      </trkpt>
      <trkpt lat="50.73139" lon="1.6012">
        <ele>65.5</ele>
        <time>2020-06-22T18:11:31Z</time>
      </trkpt>
      <trkpt lat="50.7314" lon="1.60119">
        <ele>65.5</ele>
        <time>2020-06-22T18:11:32Z</time>
      </trkpt>
      <trkpt lat="50.73143" lon="1.60116">
        <ele>65.5</ele>
        <time>2020-06-22T18:11:33Z</time>
      </trkpt>
      <trkpt lat="50.73145" lon="1.60114">
        <ele>65.6</ele>
        <time>2020-06-22T18:11:34Z</time>
      </trkpt>
      <trkpt lat="50.73148" lon="1.60114">
        <ele>65.6</ele>
        <time>2020-06-22T18:11:35Z</time>
      </trkpt>
      <trkpt lat="50.73151" lon="1.60111">
        <ele>65.6</ele>
        <time>2020-06-22T18:11:36Z</time>
      </trkpt>
      <trkpt lat="50.73154" lon="1.60108">
        <ele>65.6</ele>
        <time>2020-06-22T18:11:37Z</time>
      </trkpt>
      <trkpt lat="50.73157" lon="1.60105">
        <ele>65.6</ele>
        <time>2020-06-22T18:11:38Z</time>
      </trkpt>
      <trkpt lat="50.73161" lon="1.60104">
        <ele>65.6</ele>
        <time>2020-06-22T18:11:39Z</time>
      </trkpt>
      <trkpt lat="50.73164" lon="1.60101">
        <ele>65.6</ele>
        <time>2020-06-22T18:11:40Z</time>
      </trkpt>
      <trkpt lat="50.73168" lon="1.60099">
        <ele>65.7</ele>
        <time>2020-06-22T18:11:41Z</time>
      </trkpt>
      <trkpt lat="50.73171" lon="1.60096">
        <ele>65.7</ele>
        <time>2020-06-22T18:11:42Z</time>
      </trkpt>
      <trkpt lat="50.73175" lon="1.60095">
        <ele>65.7</ele>
        <time>2020-06-22T18:11:43Z</time>
      </trkpt>
      <trkpt lat="50.73178" lon="1.60092">
        <ele>65.7</ele>
        <time>2020-06-22T18:11:44Z</time>
      </trkpt>
      <trkpt lat="50.73181" lon="1.6009">
        <ele>65.7</ele>
        <time>2020-06-22T18:11:45Z</time>
      </trkpt>
      <trkpt lat="50.73185" lon="1.60088">
        <ele>65.7</ele>
        <time>2020-06-22T18:11:46Z</time>
      </trkpt>
      <trkpt lat="50.73187" lon="1.60086">
        <ele>65.7</ele>
        <time>2020-06-22T18:11:47Z</time>
      </trkpt>
      <trkpt lat="50.73191" lon="1.60083">
        <ele>65.8</ele>
        <time>2020-06-22T18:11:48Z</time>
      </trkpt>
      <trkpt lat="50.73195" lon="1.6008">
        <ele>65.8</ele>
        <time>2020-06-22T18:11:49Z</time>
      </trkpt>
      <trkpt lat="50.73199" lon="1.60076">
        <ele>65.8</ele>
        <time>2020-06-22T18:11:50Z</time>
      </trkpt>
      <trkpt lat="50.73203" lon="1.60074">
        <ele>65.8</ele>
        <time>2020-06-22T18:11:51Z</time>
      </trkpt>
      <trkpt lat="50.73208" lon="1.60071">
        <ele>65.8</ele>
        <time>2020-06-22T18:11:52Z</time>
      </trkpt>
      <trkpt lat="50.73212" lon="1.60068">
        <ele>65.9</ele>
        <time>2020-06-22T18:11:53Z</time>
      </trkpt>
      <trkpt lat="50.73216" lon="1.60066">
        <ele>65.9</ele>
        <time>2020-06-22T18:11:54Z</time>
      </trkpt>
      <trkpt lat="50.73219" lon="1.60064">
        <ele>65.9</ele>
        <time>2020-06-22T18:11:55Z</time>
      </trkpt>
      <trkpt lat="50.73223" lon="1.60062">
        <ele>65.9</ele>
        <time>2020-06-22T18:11:56Z</time>
      </trkpt>
      <trkpt lat="50.73227" lon="1.60059">
        <ele>66</ele>
        <time>2020-06-22T18:11:57Z</time>
      </trkpt>
      <trkpt lat="50.73231" lon="1.60057">
        <ele>66</ele>
        <time>2020-06-22T18:11:58Z</time>
      </trkpt>
      <trkpt lat="50.73235" lon="1.60055">
        <ele>66.1</ele>
        <time>2020-06-22T18:11:59Z</time>
      </trkpt>
      <trkpt lat="50.73238" lon="1.60052">
        <ele>66.1</ele>
        <time>2020-06-22T18:12:00Z</time>
      </trkpt>
      <trkpt lat="50.73242" lon="1.60051">
        <ele>66.2</ele>
        <time>2020-06-22T18:12:01Z</time>
      </trkpt>
      <trkpt lat="50.73246" lon="1.60048">
        <ele>66.2</ele>
        <time>2020-06-22T18:12:02Z</time>
      </trkpt>
      <trkpt lat="50.7325" lon="1.60046">
        <ele>66.3</ele>
        <time>2020-06-22T18:12:03Z</time>
      </trkpt>
      <trkpt lat="50.73254" lon="1.60045">
        <ele>66.3</ele>
        <time>2020-06-22T18:12:04Z</time>
      </trkpt>
      <trkpt lat="50.73259" lon="1.60047">
        <ele>66.4</ele>
        <time>2020-06-22T18:12:05Z</time>
      </trkpt>
      <trkpt lat="50.73262" lon="1.60047">
        <ele>66.3</ele>
        <time>2020-06-22T18:12:06Z</time>
      </trkpt>
      <trkpt lat="50.73264" lon="1.60043">
        <ele>66.2</ele>
        <time>2020-06-22T18:12:07Z</time>
      </trkpt>
      <trkpt lat="50.73267" lon="1.60039">
        <ele>66.1</ele>
        <time>2020-06-22T18:12:08Z</time>
      </trkpt>
      <trkpt lat="50.7327" lon="1.60035">
        <ele>66</ele>
        <time>2020-06-22T18:12:09Z</time>
      </trkpt>
      <trkpt lat="50.73274" lon="1.6003">
        <ele>65.9</ele>
        <time>2020-06-22T18:12:10Z</time>
      </trkpt>
      <trkpt lat="50.73279" lon="1.60027">
        <ele>65.7</ele>
        <time>2020-06-22T18:12:11Z</time>
      </trkpt>
      <trkpt lat="50.73284" lon="1.60025">
        <ele>65.6</ele>
        <time>2020-06-22T18:12:12Z</time>
      </trkpt>
      <trkpt lat="50.73288" lon="1.60022">
        <ele>65.5</ele>
        <time>2020-06-22T18:12:13Z</time>
      </trkpt>
      <trkpt lat="50.73292" lon="1.6002">
        <ele>65.4</ele>
        <time>2020-06-22T18:12:14Z</time>
      </trkpt>
      <trkpt lat="50.73296" lon="1.60018">
        <ele>65.3</ele>
        <time>2020-06-22T18:12:15Z</time>
      </trkpt>
      <trkpt lat="50.733" lon="1.60013">
        <ele>65.2</ele>
        <time>2020-06-22T18:12:16Z</time>
      </trkpt>
      <trkpt lat="50.73304" lon="1.60008">
        <ele>65.1</ele>
        <time>2020-06-22T18:12:17Z</time>
      </trkpt>
      <trkpt lat="50.73309" lon="1.60006">
        <ele>65</ele>
        <time>2020-06-22T18:12:18Z</time>
      </trkpt>
      <trkpt lat="50.73312" lon="1.60003">
        <ele>64.9</ele>
        <time>2020-06-22T18:12:19Z</time>
      </trkpt>
      <trkpt lat="50.73316" lon="1.6">
        <ele>64.9</ele>
        <time>2020-06-22T18:12:20Z</time>
      </trkpt>
      <trkpt lat="50.7332" lon="1.59998">
        <ele>64.9</ele>
        <time>2020-06-22T18:12:21Z</time>
      </trkpt>
      <trkpt lat="50.73324" lon="1.59995">
        <ele>64.9</ele>
        <time>2020-06-22T18:12:22Z</time>
      </trkpt>
      <trkpt lat="50.73329" lon="1.59994">
        <ele>64.9</ele>
        <time>2020-06-22T18:12:23Z</time>
      </trkpt>
      <trkpt lat="50.73333" lon="1.59991">
        <ele>64.8</ele>
        <time>2020-06-22T18:12:24Z</time>
      </trkpt>
      <trkpt lat="50.73337" lon="1.59987">
        <ele>64.8</ele>
        <time>2020-06-22T18:12:25Z</time>
      </trkpt>
      <trkpt lat="50.73341" lon="1.59984">
        <ele>64.8</ele>
        <time>2020-06-22T18:12:26Z</time>
      </trkpt>
      <trkpt lat="50.73345" lon="1.5998">
        <ele>64.7</ele>
        <time>2020-06-22T18:12:27Z</time>
      </trkpt>
      <trkpt lat="50.7335" lon="1.59977">
        <ele>64.6</ele>
        <time>2020-06-22T18:12:28Z</time>
      </trkpt>
      <trkpt lat="50.73354" lon="1.59973">
        <ele>64.5</ele>
        <time>2020-06-22T18:12:29Z</time>
      </trkpt>
      <trkpt lat="50.73358" lon="1.5997">
        <ele>64.4</ele>
        <time>2020-06-22T18:12:30Z</time>
      </trkpt>
      <trkpt lat="50.73362" lon="1.59967">
        <ele>64.3</ele>
        <time>2020-06-22T18:12:31Z</time>
      </trkpt>
      <trkpt lat="50.73366" lon="1.59964">
        <ele>64.1</ele>
        <time>2020-06-22T18:12:32Z</time>
      </trkpt>
      <trkpt lat="50.7337" lon="1.59961">
        <ele>64</ele>
        <time>2020-06-22T18:12:33Z</time>
      </trkpt>
      <trkpt lat="50.73374" lon="1.59958">
        <ele>63.9</ele>
        <time>2020-06-22T18:12:34Z</time>
      </trkpt>
      <trkpt lat="50.73378" lon="1.59955">
        <ele>63.8</ele>
        <time>2020-06-22T18:12:35Z</time>
      </trkpt>
      <trkpt lat="50.73382" lon="1.59951">
        <ele>63.7</ele>
        <time>2020-06-22T18:12:36Z</time>
      </trkpt>
      <trkpt lat="50.73387" lon="1.59948">
        <ele>63.5</ele>
        <time>2020-06-22T18:12:37Z</time>
      </trkpt>
      <trkpt lat="50.73391" lon="1.59944">
        <ele>63.4</ele>
        <time>2020-06-22T18:12:38Z</time>
      </trkpt>
      <trkpt lat="50.73395" lon="1.5994">
        <ele>63.3</ele>
        <time>2020-06-22T18:12:39Z</time>
      </trkpt>
      <trkpt lat="50.734" lon="1.59935">
        <ele>63.1</ele>
        <time>2020-06-22T18:12:40Z</time>
      </trkpt>
      <trkpt lat="50.73405" lon="1.59933">
        <ele>62.9</ele>
        <time>2020-06-22T18:12:41Z</time>
      </trkpt>
      <trkpt lat="50.7341" lon="1.59931">
        <ele>62.8</ele>
        <time>2020-06-22T18:12:42Z</time>
      </trkpt>
      <trkpt lat="50.73415" lon="1.59929">
        <ele>62.6</ele>
        <time>2020-06-22T18:12:43Z</time>
      </trkpt>
      <trkpt lat="50.7342" lon="1.59927">
        <ele>62.4</ele>
        <time>2020-06-22T18:12:44Z</time>
      </trkpt>
      <trkpt lat="50.73425" lon="1.59924">
        <ele>62.2</ele>
        <time>2020-06-22T18:12:45Z</time>
      </trkpt>
      <trkpt lat="50.7343" lon="1.59922">
        <ele>62.1</ele>
        <time>2020-06-22T18:12:46Z</time>
      </trkpt>
      <trkpt lat="50.73435" lon="1.5992">
        <ele>61.9</ele>
        <time>2020-06-22T18:12:47Z</time>
      </trkpt>
      <trkpt lat="50.73441" lon="1.59918">
        <ele>61.6</ele>
        <time>2020-06-22T18:12:48Z</time>
      </trkpt>
      <trkpt lat="50.73446" lon="1.59915">
        <ele>61.4</ele>
        <time>2020-06-22T18:12:49Z</time>
      </trkpt>
      <trkpt lat="50.73452" lon="1.59913">
        <ele>61.1</ele>
        <time>2020-06-22T18:12:50Z</time>
      </trkpt>
      <trkpt lat="50.73458" lon="1.59911">
        <ele>60.9</ele>
        <time>2020-06-22T18:12:51Z</time>
      </trkpt>
      <trkpt lat="50.73464" lon="1.5991">
        <ele>60.7</ele>
        <time>2020-06-22T18:12:52Z</time>
      </trkpt>
      <trkpt lat="50.7347" lon="1.59907">
        <ele>60.6</ele>
        <time>2020-06-22T18:12:53Z</time>
      </trkpt>
      <trkpt lat="50.73476" lon="1.59905">
        <ele>60.4</ele>
        <time>2020-06-22T18:12:54Z</time>
      </trkpt>
      <trkpt lat="50.73481" lon="1.59903">
        <ele>60.3</ele>
        <time>2020-06-22T18:12:55Z</time>
      </trkpt>
      <trkpt lat="50.73486" lon="1.599">
        <ele>60.1</ele>
        <time>2020-06-22T18:12:56Z</time>
      </trkpt>
      <trkpt lat="50.73491" lon="1.599">
        <ele>59.9</ele>
        <time>2020-06-22T18:12:57Z</time>
      </trkpt>
      <trkpt lat="50.73496" lon="1.59897">
        <ele>59.8</ele>
        <time>2020-06-22T18:12:58Z</time>
      </trkpt>
      <trkpt lat="50.735" lon="1.59895">
        <ele>59.6</ele>
        <time>2020-06-22T18:12:59Z</time>
      </trkpt>
      <trkpt lat="50.73505" lon="1.59893">
        <ele>59.3</ele>
        <time>2020-06-22T18:13:00Z</time>
      </trkpt>
      <trkpt lat="50.7351" lon="1.5989">
        <ele>59.1</ele>
        <time>2020-06-22T18:13:01Z</time>
      </trkpt>
      <trkpt lat="50.73515" lon="1.59887">
        <ele>58.9</ele>
        <time>2020-06-22T18:13:02Z</time>
      </trkpt>
      <trkpt lat="50.7352" lon="1.59885">
        <ele>58.6</ele>
        <time>2020-06-22T18:13:03Z</time>
      </trkpt>
      <trkpt lat="50.73526" lon="1.59883">
        <ele>58.3</ele>
        <time>2020-06-22T18:13:04Z</time>
      </trkpt>
      <trkpt lat="50.73533" lon="1.59879">
        <ele>57.9</ele>
        <time>2020-06-22T18:13:05Z</time>
      </trkpt>
      <trkpt lat="50.73539" lon="1.59876">
        <ele>57.6</ele>
        <time>2020-06-22T18:13:06Z</time>
      </trkpt>
      <trkpt lat="50.73546" lon="1.59873">
        <ele>57.2</ele>
        <time>2020-06-22T18:13:07Z</time>
      </trkpt>
      <trkpt lat="50.73552" lon="1.5987">
        <ele>56.8</ele>
        <time>2020-06-22T18:13:08Z</time>
      </trkpt>
      <trkpt lat="50.73558" lon="1.59867">
        <ele>56.5</ele>
        <time>2020-06-22T18:13:09Z</time>
      </trkpt>
      <trkpt lat="50.73564" lon="1.59864">
        <ele>56</ele>
        <time>2020-06-22T18:13:10Z</time>
      </trkpt>
      <trkpt lat="50.73571" lon="1.5986">
        <ele>55.5</ele>
        <time>2020-06-22T18:13:11Z</time>
      </trkpt>
      <trkpt lat="50.73578" lon="1.59858">
        <ele>54.8</ele>
        <time>2020-06-22T18:13:12Z</time>
      </trkpt>
      <trkpt lat="50.73584" lon="1.59856">
        <ele>54</ele>
        <time>2020-06-22T18:13:13Z</time>
      </trkpt>
      <trkpt lat="50.73591" lon="1.59853">
        <ele>53.2</ele>
        <time>2020-06-22T18:13:14Z</time>
      </trkpt>
      <trkpt lat="50.73599" lon="1.5985">
        <ele>52.2</ele>
        <time>2020-06-22T18:13:15Z</time>
      </trkpt>
      <trkpt lat="50.73607" lon="1.59846">
        <ele>51.2</ele>
        <time>2020-06-22T18:13:16Z</time>
      </trkpt>
      <trkpt lat="50.73616" lon="1.59843">
        <ele>50.3</ele>
        <time>2020-06-22T18:13:17Z</time>
      </trkpt>
      <trkpt lat="50.73624" lon="1.59838">
        <ele>49.2</ele>
        <time>2020-06-22T18:13:18Z</time>
      </trkpt>
      <trkpt lat="50.73634" lon="1.59833">
        <ele>48.1</ele>
        <time>2020-06-22T18:13:19Z</time>
      </trkpt>
      <trkpt lat="50.73643" lon="1.59829">
        <ele>47</ele>
        <time>2020-06-22T18:13:20Z</time>
      </trkpt>
      <trkpt lat="50.73653" lon="1.59824">
        <ele>45.8</ele>
        <time>2020-06-22T18:13:21Z</time>
      </trkpt>
      <trkpt lat="50.73663" lon="1.59819">
        <ele>44.6</ele>
        <time>2020-06-22T18:13:22Z</time>
      </trkpt>
      <trkpt lat="50.73673" lon="1.59815">
        <ele>43.4</ele>
        <time>2020-06-22T18:13:23Z</time>
      </trkpt>
      <trkpt lat="50.73684" lon="1.59811">
        <ele>42.1</ele>
        <time>2020-06-22T18:13:24Z</time>
      </trkpt>
      <trkpt lat="50.73694" lon="1.59806">
        <ele>41</ele>
        <time>2020-06-22T18:13:25Z</time>
      </trkpt>
      <trkpt lat="50.73703" lon="1.59799">
        <ele>39.9</ele>
        <time>2020-06-22T18:13:26Z</time>
      </trkpt>
      <trkpt lat="50.73712" lon="1.59792">
        <ele>38.8</ele>
        <time>2020-06-22T18:13:27Z</time>
      </trkpt>
      <trkpt lat="50.7372" lon="1.59785">
        <ele>37.7</ele>
        <time>2020-06-22T18:13:28Z</time>
      </trkpt>
      <trkpt lat="50.73729" lon="1.5978">
        <ele>36.7</ele>
        <time>2020-06-22T18:13:29Z</time>
      </trkpt>
      <trkpt lat="50.73738" lon="1.59775">
        <ele>35.6</ele>
        <time>2020-06-22T18:13:30Z</time>
      </trkpt>
      <trkpt lat="50.73747" lon="1.5977">
        <ele>34.7</ele>
        <time>2020-06-22T18:13:31Z</time>
      </trkpt>
      <trkpt lat="50.73756" lon="1.59766">
        <ele>33.8</ele>
        <time>2020-06-22T18:13:32Z</time>
      </trkpt>
      <trkpt lat="50.73765" lon="1.59763">
        <ele>33</ele>
        <time>2020-06-22T18:13:33Z</time>
      </trkpt>
      <trkpt lat="50.73774" lon="1.5976">
        <ele>32.3</ele>
        <time>2020-06-22T18:13:34Z</time>
      </trkpt>
      <trkpt lat="50.73783" lon="1.59757">
        <ele>31.6</ele>
        <time>2020-06-22T18:13:35Z</time>
      </trkpt>
      <trkpt lat="50.73791" lon="1.59756">
        <ele>31.1</ele>
        <time>2020-06-22T18:13:36Z</time>
      </trkpt>
      <trkpt lat="50.73799" lon="1.59756">
        <ele>30.6</ele>
        <time>2020-06-22T18:13:37Z</time>
      </trkpt>
      <trkpt lat="50.73808" lon="1.59755">
        <ele>30.1</ele>
        <time>2020-06-22T18:13:38Z</time>
      </trkpt>
      <trkpt lat="50.73816" lon="1.59754">
        <ele>29.7</ele>
        <time>2020-06-22T18:13:39Z</time>
      </trkpt>
      <trkpt lat="50.73824" lon="1.59752">
        <ele>29.2</ele>
        <time>2020-06-22T18:13:40Z</time>
      </trkpt>
      <trkpt lat="50.73832" lon="1.59751">
        <ele>28.8</ele>
        <time>2020-06-22T18:13:41Z</time>
      </trkpt>
      <trkpt lat="50.7384" lon="1.5975">
        <ele>28.3</ele>
        <time>2020-06-22T18:13:42Z</time>
      </trkpt>
      <trkpt lat="50.73848" lon="1.5975">
        <ele>27.8</ele>
        <time>2020-06-22T18:13:43Z</time>
      </trkpt>
      <trkpt lat="50.73856" lon="1.5975">
        <ele>27.3</ele>
        <time>2020-06-22T18:13:44Z</time>
      </trkpt>
      <trkpt lat="50.73863" lon="1.59746">
        <ele>26.9</ele>
        <time>2020-06-22T18:13:45Z</time>
      </trkpt>
      <trkpt lat="50.73871" lon="1.59744">
        <ele>26.4</ele>
        <time>2020-06-22T18:13:46Z</time>
      </trkpt>
      <trkpt lat="50.73879" lon="1.59741">
        <ele>25.8</ele>
        <time>2020-06-22T18:13:47Z</time>
      </trkpt>
      <trkpt lat="50.73886" lon="1.59738">
        <ele>25.4</ele>
        <time>2020-06-22T18:13:48Z</time>
      </trkpt>
      <trkpt lat="50.73893" lon="1.59736">
        <ele>25.1</ele>
        <time>2020-06-22T18:13:49Z</time>
      </trkpt>
      <trkpt lat="50.739" lon="1.59731">
        <ele>24.7</ele>
        <time>2020-06-22T18:13:50Z</time>
      </trkpt>
      <trkpt lat="50.73907" lon="1.59727">
        <ele>24.4</ele>
        <time>2020-06-22T18:13:51Z</time>
      </trkpt>
      <trkpt lat="50.73914" lon="1.59721">
        <ele>24</ele>
        <time>2020-06-22T18:13:52Z</time>
      </trkpt>
      <trkpt lat="50.73921" lon="1.59714">
        <ele>23.7</ele>
        <time>2020-06-22T18:13:53Z</time>
      </trkpt>
      <trkpt lat="50.73928" lon="1.59708">
        <ele>23.3</ele>
        <time>2020-06-22T18:13:54Z</time>
      </trkpt>
      <trkpt lat="50.73934" lon="1.597">
        <ele>23</ele>
        <time>2020-06-22T18:13:55Z</time>
      </trkpt>
      <trkpt lat="50.73941" lon="1.59692">
        <ele>22.7</ele>
        <time>2020-06-22T18:13:56Z</time>
      </trkpt>
      <trkpt lat="50.73948" lon="1.59685">
        <ele>22.3</ele>
        <time>2020-06-22T18:13:57Z</time>
      </trkpt>
      <trkpt lat="50.73954" lon="1.59677">
        <ele>22.1</ele>
        <time>2020-06-22T18:13:58Z</time>
      </trkpt>
      <trkpt lat="50.7396" lon="1.59669">
        <ele>21.9</ele>
        <time>2020-06-22T18:13:59Z</time>
      </trkpt>
      <trkpt lat="50.73967" lon="1.59661">
        <ele>21.7</ele>
        <time>2020-06-22T18:14:00Z</time>
      </trkpt>
      <trkpt lat="50.73973" lon="1.59653">
        <ele>21.5</ele>
        <time>2020-06-22T18:14:01Z</time>
      </trkpt>
      <trkpt lat="50.7398" lon="1.59646">
        <ele>21.3</ele>
        <time>2020-06-22T18:14:02Z</time>
      </trkpt>
      <trkpt lat="50.73987" lon="1.59639">
        <ele>21</ele>
        <time>2020-06-22T18:14:03Z</time>
      </trkpt>
      <trkpt lat="50.73993" lon="1.59631">
        <ele>20.7</ele>
        <time>2020-06-22T18:14:04Z</time>
      </trkpt>
      <trkpt lat="50.73999" lon="1.59623">
        <ele>20.5</ele>
        <time>2020-06-22T18:14:05Z</time>
      </trkpt>
      <trkpt lat="50.74005" lon="1.59615">
        <ele>20.2</ele>
        <time>2020-06-22T18:14:06Z</time>
      </trkpt>
      <trkpt lat="50.74011" lon="1.59606">
        <ele>19.9</ele>
        <time>2020-06-22T18:14:07Z</time>
      </trkpt>
      <trkpt lat="50.74018" lon="1.59599">
        <ele>19.6</ele>
        <time>2020-06-22T18:14:08Z</time>
      </trkpt>
      <trkpt lat="50.74023" lon="1.5959">
        <ele>19.3</ele>
        <time>2020-06-22T18:14:09Z</time>
      </trkpt>
      <trkpt lat="50.74029" lon="1.59581">
        <ele>19.1</ele>
        <time>2020-06-22T18:14:10Z</time>
      </trkpt>
      <trkpt lat="50.74035" lon="1.59573">
        <ele>19</ele>
        <time>2020-06-22T18:14:11Z</time>
      </trkpt>
      <trkpt lat="50.7404" lon="1.59566">
        <ele>18.9</ele>
        <time>2020-06-22T18:14:12Z</time>
      </trkpt>
      <trkpt lat="50.74046" lon="1.59559">
        <ele>19</ele>
        <time>2020-06-22T18:14:13Z</time>
      </trkpt>
      <trkpt lat="50.74051" lon="1.59553">
        <ele>19</ele>
        <time>2020-06-22T18:14:14Z</time>
      </trkpt>
      <trkpt lat="50.74057" lon="1.59548">
        <ele>19.5</ele>
        <time>2020-06-22T18:14:15Z</time>
      </trkpt>
      <trkpt lat="50.74063" lon="1.59549">
        <ele>19.8</ele>
        <time>2020-06-22T18:14:16Z</time>
      </trkpt>
      <trkpt lat="50.74069" lon="1.59552">
        <ele>20.1</ele>
        <time>2020-06-22T18:14:17Z</time>
      </trkpt>
      <trkpt lat="50.74073" lon="1.59556">
        <ele>20.9</ele>
        <time>2020-06-22T18:14:18Z</time>
      </trkpt>
      <trkpt lat="50.74078" lon="1.5956">
        <ele>20.9</ele>
        <time>2020-06-22T18:14:19Z</time>
      </trkpt>
      <trkpt lat="50.74082" lon="1.59563">
        <ele>21.9</ele>
        <time>2020-06-22T18:14:20Z</time>
      </trkpt>
      <trkpt lat="50.74086" lon="1.59567">
        <ele>22.2</ele>
        <time>2020-06-22T18:14:21Z</time>
      </trkpt>
      <trkpt lat="50.7409" lon="1.5957">
        <ele>22.5</ele>
        <time>2020-06-22T18:14:22Z</time>
      </trkpt>
      <trkpt lat="50.74094" lon="1.59573">
        <ele>22.8</ele>
        <time>2020-06-22T18:14:23Z</time>
      </trkpt>
      <trkpt lat="50.74097" lon="1.59576">
        <ele>23</ele>
        <time>2020-06-22T18:14:24Z</time>
      </trkpt>
      <trkpt lat="50.74099" lon="1.59579">
        <ele>23.2</ele>
        <time>2020-06-22T18:14:25Z</time>
      </trkpt>
      <trkpt lat="50.74103" lon="1.59579">
        <ele>23.5</ele>
        <time>2020-06-22T18:14:26Z</time>
      </trkpt>
      <trkpt lat="50.74106" lon="1.59581">
        <ele>23.7</ele>
        <time>2020-06-22T18:14:27Z</time>
      </trkpt>
      <trkpt lat="50.74109" lon="1.59585">
        <ele>23.9</ele>
        <time>2020-06-22T18:14:28Z</time>
      </trkpt>
      <trkpt lat="50.74112" lon="1.59587">
        <ele>24.2</ele>
        <time>2020-06-22T18:14:29Z</time>
      </trkpt>
      <trkpt lat="50.74115" lon="1.5959">
        <ele>24.4</ele>
        <time>2020-06-22T18:14:30Z</time>
      </trkpt>
      <trkpt lat="50.74118" lon="1.59593">
        <ele>24.7</ele>
        <time>2020-06-22T18:14:31Z</time>
      </trkpt>
      <trkpt lat="50.74121" lon="1.59596">
        <ele>25</ele>
        <time>2020-06-22T18:14:32Z</time>
      </trkpt>
      <trkpt lat="50.74124" lon="1.59599">
        <ele>25.2</ele>
        <time>2020-06-22T18:14:33Z</time>
      </trkpt>
      <trkpt lat="50.74127" lon="1.59601">
        <ele>25.5</ele>
        <time>2020-06-22T18:14:34Z</time>
      </trkpt>
      <trkpt lat="50.74131" lon="1.59602">
        <ele>25.7</ele>
        <time>2020-06-22T18:14:35Z</time>
      </trkpt>
      <trkpt lat="50.74134" lon="1.59604">
        <ele>26</ele>
        <time>2020-06-22T18:14:36Z</time>
      </trkpt>
      <trkpt lat="50.74137" lon="1.59606">
        <ele>26.2</ele>
        <time>2020-06-22T18:14:37Z</time>
      </trkpt>
      <trkpt lat="50.74141" lon="1.59608">
        <ele>26.5</ele>
        <time>2020-06-22T18:14:38Z</time>
      </trkpt>
      <trkpt lat="50.74144" lon="1.5961">
        <ele>26.7</ele>
        <time>2020-06-22T18:14:39Z</time>
      </trkpt>
      <trkpt lat="50.74147" lon="1.59613">
        <ele>26.9</ele>
        <time>2020-06-22T18:14:40Z</time>
      </trkpt>
      <trkpt lat="50.74149" lon="1.59616">
        <ele>27.1</ele>
        <time>2020-06-22T18:14:41Z</time>
      </trkpt>
      <trkpt lat="50.74151" lon="1.59619">
        <ele>27.3</ele>
        <time>2020-06-22T18:14:42Z</time>
      </trkpt>
      <trkpt lat="50.74154" lon="1.59622">
        <ele>27.5</ele>
        <time>2020-06-22T18:14:43Z</time>
      </trkpt>
      <trkpt lat="50.74157" lon="1.59625">
        <ele>27.7</ele>
        <time>2020-06-22T18:14:44Z</time>
      </trkpt>
      <trkpt lat="50.74162" lon="1.59628">
        <ele>28</ele>
        <time>2020-06-22T18:14:45Z</time>
      </trkpt>
      <trkpt lat="50.74165" lon="1.5963">
        <ele>28.2</ele>
        <time>2020-06-22T18:14:46Z</time>
      </trkpt>
      <trkpt lat="50.74168" lon="1.59633">
        <ele>28.4</ele>
        <time>2020-06-22T18:14:47Z</time>
      </trkpt>
      <trkpt lat="50.74171" lon="1.59637">
        <ele>28.7</ele>
        <time>2020-06-22T18:14:48Z</time>
      </trkpt>
      <trkpt lat="50.74173" lon="1.59638">
        <ele>28.8</ele>
        <time>2020-06-22T18:14:49Z</time>
      </trkpt>
      <trkpt lat="50.74175" lon="1.59641">
        <ele>29</ele>
        <time>2020-06-22T18:14:50Z</time>
      </trkpt>
      <trkpt lat="50.74179" lon="1.59643">
        <ele>29.2</ele>
        <time>2020-06-22T18:14:51Z</time>
      </trkpt>
      <trkpt lat="50.74182" lon="1.59646">
        <ele>29.4</ele>
        <time>2020-06-22T18:14:52Z</time>
      </trkpt>
      <trkpt lat="50.74185" lon="1.59649">
        <ele>29.7</ele>
        <time>2020-06-22T18:14:53Z</time>
      </trkpt>
      <trkpt lat="50.74188" lon="1.59651">
        <ele>29.9</ele>
        <time>2020-06-22T18:14:54Z</time>
      </trkpt>
      <trkpt lat="50.74192" lon="1.59653">
        <ele>30.1</ele>
        <time>2020-06-22T18:14:55Z</time>
      </trkpt>
      <trkpt lat="50.74196" lon="1.59655">
        <ele>30.3</ele>
        <time>2020-06-22T18:14:56Z</time>
      </trkpt>
      <trkpt lat="50.74199" lon="1.59657">
        <ele>30.5</ele>
        <time>2020-06-22T18:14:57Z</time>
      </trkpt>
      <trkpt lat="50.74202" lon="1.59659">
        <ele>30.7</ele>
        <time>2020-06-22T18:14:58Z</time>
      </trkpt>
      <trkpt lat="50.74206" lon="1.59662">
        <ele>30.9</ele>
        <time>2020-06-22T18:14:59Z</time>
      </trkpt>
      <trkpt lat="50.74209" lon="1.59665">
        <ele>31.1</ele>
        <time>2020-06-22T18:15:00Z</time>
      </trkpt>
      <trkpt lat="50.74212" lon="1.59667">
        <ele>31.3</ele>
        <time>2020-06-22T18:15:01Z</time>
      </trkpt>
      <trkpt lat="50.74216" lon="1.59669">
        <ele>31.6</ele>
        <time>2020-06-22T18:15:02Z</time>
      </trkpt>
      <trkpt lat="50.74219" lon="1.59672">
        <ele>31.8</ele>
        <time>2020-06-22T18:15:03Z</time>
      </trkpt>
      <trkpt lat="50.74223" lon="1.59675">
        <ele>32</ele>
        <time>2020-06-22T18:15:04Z</time>
      </trkpt>
      <trkpt lat="50.74226" lon="1.59678">
        <ele>32.2</ele>
        <time>2020-06-22T18:15:05Z</time>
      </trkpt>
      <trkpt lat="50.74229" lon="1.5968">
        <ele>32.4</ele>
        <time>2020-06-22T18:15:06Z</time>
      </trkpt>
      <trkpt lat="50.74233" lon="1.59683">
        <ele>32.6</ele>
        <time>2020-06-22T18:15:07Z</time>
      </trkpt>
      <trkpt lat="50.74237" lon="1.59685">
        <ele>32.8</ele>
        <time>2020-06-22T18:15:08Z</time>
      </trkpt>
      <trkpt lat="50.74238" lon="1.59686">
        <ele>32.9</ele>
        <time>2020-06-22T18:15:09Z</time>
      </trkpt>
      <trkpt lat="50.74241" lon="1.59689">
        <ele>33.1</ele>
        <time>2020-06-22T18:15:10Z</time>
      </trkpt>
      <trkpt lat="50.74243" lon="1.5969">
        <ele>33.2</ele>
        <time>2020-06-22T18:15:11Z</time>
      </trkpt>
      <trkpt lat="50.74246" lon="1.59692">
        <ele>33.4</ele>
        <time>2020-06-22T18:15:12Z</time>
      </trkpt>
      <trkpt lat="50.74249" lon="1.59695">
        <ele>33.6</ele>
        <time>2020-06-22T18:15:13Z</time>
      </trkpt>
      <trkpt lat="50.74253" lon="1.59698">
        <ele>33.8</ele>
        <time>2020-06-22T18:15:14Z</time>
      </trkpt>
      <trkpt lat="50.74256" lon="1.597">
        <ele>34</ele>
        <time>2020-06-22T18:15:15Z</time>
      </trkpt>
      <trkpt lat="50.74259" lon="1.59702">
        <ele>34.1</ele>
        <time>2020-06-22T18:15:16Z</time>
      </trkpt>
      <trkpt lat="50.74263" lon="1.59704">
        <ele>34.3</ele>
        <time>2020-06-22T18:15:17Z</time>
      </trkpt>
      <trkpt lat="50.74265" lon="1.59705">
        <ele>34.5</ele>
        <time>2020-06-22T18:15:18Z</time>
      </trkpt>
      <trkpt lat="50.74268" lon="1.59707">
        <ele>34.6</ele>
        <time>2020-06-22T18:15:19Z</time>
      </trkpt>
      <trkpt lat="50.74272" lon="1.59709">
        <ele>34.8</ele>
        <time>2020-06-22T18:15:20Z</time>
      </trkpt>
      <trkpt lat="50.74273" lon="1.5971">
        <ele>34.9</ele>
        <time>2020-06-22T18:15:21Z</time>
      </trkpt>
      <trkpt lat="50.74277" lon="1.59711">
        <ele>35.1</ele>
        <time>2020-06-22T18:15:22Z</time>
      </trkpt>
      <trkpt lat="50.74279" lon="1.59712">
        <ele>35.3</ele>
        <time>2020-06-22T18:15:23Z</time>
      </trkpt>
      <trkpt lat="50.74283" lon="1.59713">
        <ele>35.5</ele>
        <time>2020-06-22T18:15:24Z</time>
      </trkpt>
      <trkpt lat="50.74287" lon="1.59715">
        <ele>35.7</ele>
        <time>2020-06-22T18:15:25Z</time>
      </trkpt>
      <trkpt lat="50.7429" lon="1.59717">
        <ele>35.9</ele>
        <time>2020-06-22T18:15:26Z</time>
      </trkpt>
      <trkpt lat="50.74294" lon="1.59719">
        <ele>36</ele>
        <time>2020-06-22T18:15:27Z</time>
      </trkpt>
      <trkpt lat="50.74297" lon="1.59721">
        <ele>36.2</ele>
        <time>2020-06-22T18:15:28Z</time>
      </trkpt>
      <trkpt lat="50.743" lon="1.59723">
        <ele>36.3</ele>
        <time>2020-06-22T18:15:29Z</time>
      </trkpt>
      <trkpt lat="50.74303" lon="1.59725">
        <ele>36.5</ele>
        <time>2020-06-22T18:15:30Z</time>
      </trkpt>
      <trkpt lat="50.74306" lon="1.59727">
        <ele>36.7</ele>
        <time>2020-06-22T18:15:31Z</time>
      </trkpt>
      <trkpt lat="50.7431" lon="1.59729">
        <ele>36.9</ele>
        <time>2020-06-22T18:15:32Z</time>
      </trkpt>
      <trkpt lat="50.74314" lon="1.59731">
        <ele>37.1</ele>
        <time>2020-06-22T18:15:33Z</time>
      </trkpt>
      <trkpt lat="50.74317" lon="1.59733">
        <ele>37.3</ele>
        <time>2020-06-22T18:15:34Z</time>
      </trkpt>
      <trkpt lat="50.7432" lon="1.59735">
        <ele>37.5</ele>
        <time>2020-06-22T18:15:35Z</time>
      </trkpt>
      <trkpt lat="50.74323" lon="1.59737">
        <ele>37.7</ele>
        <time>2020-06-22T18:15:36Z</time>
      </trkpt>
      <trkpt lat="50.74326" lon="1.59738">
        <ele>37.9</ele>
        <time>2020-06-22T18:15:37Z</time>
      </trkpt>
      <trkpt lat="50.74329" lon="1.59739">
        <ele>38</ele>
        <time>2020-06-22T18:15:38Z</time>
      </trkpt>
      <trkpt lat="50.74332" lon="1.5974">
        <ele>38.2</ele>
        <time>2020-06-22T18:15:39Z</time>
      </trkpt>
      <trkpt lat="50.74335" lon="1.5974">
        <ele>38.4</ele>
        <time>2020-06-22T18:15:40Z</time>
      </trkpt>
      <trkpt lat="50.74338" lon="1.59742">
        <ele>38.6</ele>
        <time>2020-06-22T18:15:41Z</time>
      </trkpt>
      <trkpt lat="50.74341" lon="1.59744">
        <ele>38.7</ele>
        <time>2020-06-22T18:15:42Z</time>
      </trkpt>
      <trkpt lat="50.74346" lon="1.59745">
        <ele>39</ele>
        <time>2020-06-22T18:15:43Z</time>
      </trkpt>
      <trkpt lat="50.74347" lon="1.59746">
        <ele>39.1</ele>
        <time>2020-06-22T18:15:44Z</time>
      </trkpt>
      <trkpt lat="50.7435" lon="1.59747">
        <ele>39.3</ele>
        <time>2020-06-22T18:15:45Z</time>
      </trkpt>
      <trkpt lat="50.74354" lon="1.5975">
        <ele>39.4</ele>
        <time>2020-06-22T18:15:46Z</time>
      </trkpt>
      <trkpt lat="50.74356" lon="1.59751">
        <ele>39.6</ele>
        <time>2020-06-22T18:15:47Z</time>
      </trkpt>
      <trkpt lat="50.7436" lon="1.59752">
        <ele>39.8</ele>
        <time>2020-06-22T18:15:48Z</time>
      </trkpt>
      <trkpt lat="50.74363" lon="1.59753">
        <ele>40</ele>
        <time>2020-06-22T18:15:49Z</time>
      </trkpt>
      <trkpt lat="50.74366" lon="1.59753">
        <ele>40.1</ele>
        <time>2020-06-22T18:15:50Z</time>
      </trkpt>
      <trkpt lat="50.74369" lon="1.59754">
        <ele>40.3</ele>
        <time>2020-06-22T18:15:51Z</time>
      </trkpt>
      <trkpt lat="50.74372" lon="1.59755">
        <ele>40.4</ele>
        <time>2020-06-22T18:15:52Z</time>
      </trkpt>
      <trkpt lat="50.74375" lon="1.59756">
        <ele>40.6</ele>
        <time>2020-06-22T18:15:53Z</time>
      </trkpt>
      <trkpt lat="50.74378" lon="1.59758">
        <ele>40.8</ele>
        <time>2020-06-22T18:15:54Z</time>
      </trkpt>
      <trkpt lat="50.74382" lon="1.59759">
        <ele>41</ele>
        <time>2020-06-22T18:15:55Z</time>
      </trkpt>
      <trkpt lat="50.74385" lon="1.59759">
        <ele>41.2</ele>
        <time>2020-06-22T18:15:56Z</time>
      </trkpt>
      <trkpt lat="50.74388" lon="1.59761">
        <ele>41.3</ele>
        <time>2020-06-22T18:15:57Z</time>
      </trkpt>
      <trkpt lat="50.74391" lon="1.59762">
        <ele>41.5</ele>
        <time>2020-06-22T18:15:58Z</time>
      </trkpt>
      <trkpt lat="50.74395" lon="1.59764">
        <ele>41.7</ele>
        <time>2020-06-22T18:15:59Z</time>
      </trkpt>
      <trkpt lat="50.74399" lon="1.59765">
        <ele>41.9</ele>
        <time>2020-06-22T18:16:00Z</time>
      </trkpt>
      <trkpt lat="50.74403" lon="1.59766">
        <ele>42.1</ele>
        <time>2020-06-22T18:16:01Z</time>
      </trkpt>
      <trkpt lat="50.74407" lon="1.59768">
        <ele>42.4</ele>
        <time>2020-06-22T18:16:02Z</time>
      </trkpt>
      <trkpt lat="50.7441" lon="1.5977">
        <ele>42.5</ele>
        <time>2020-06-22T18:16:03Z</time>
      </trkpt>
      <trkpt lat="50.74414" lon="1.59772">
        <ele>42.7</ele>
        <time>2020-06-22T18:16:04Z</time>
      </trkpt>
      <trkpt lat="50.74417" lon="1.59772">
        <ele>42.9</ele>
        <time>2020-06-22T18:16:05Z</time>
      </trkpt>
      <trkpt lat="50.74421" lon="1.59774">
        <ele>43.1</ele>
        <time>2020-06-22T18:16:06Z</time>
      </trkpt>
      <trkpt lat="50.74425" lon="1.59774">
        <ele>43.3</ele>
        <time>2020-06-22T18:16:07Z</time>
      </trkpt>
      <trkpt lat="50.74429" lon="1.59775">
        <ele>43.5</ele>
        <time>2020-06-22T18:16:08Z</time>
      </trkpt>
      <trkpt lat="50.74431" lon="1.59775">
        <ele>43.6</ele>
        <time>2020-06-22T18:16:09Z</time>
      </trkpt>
      <trkpt lat="50.74434" lon="1.59774">
        <ele>43.8</ele>
        <time>2020-06-22T18:16:10Z</time>
      </trkpt>
      <trkpt lat="50.74438" lon="1.59775">
        <ele>44</ele>
        <time>2020-06-22T18:16:11Z</time>
      </trkpt>
      <trkpt lat="50.74441" lon="1.59775">
        <ele>44.1</ele>
        <time>2020-06-22T18:16:12Z</time>
      </trkpt>
      <trkpt lat="50.74443" lon="1.59777">
        <ele>44.3</ele>
        <time>2020-06-22T18:16:13Z</time>
      </trkpt>
      <trkpt lat="50.74447" lon="1.59779">
        <ele>44.5</ele>
        <time>2020-06-22T18:16:14Z</time>
      </trkpt>
      <trkpt lat="50.74449" lon="1.5978">
        <ele>44.6</ele>
        <time>2020-06-22T18:16:15Z</time>
      </trkpt>
      <trkpt lat="50.74452" lon="1.59782">
        <ele>44.8</ele>
        <time>2020-06-22T18:16:16Z</time>
      </trkpt>
      <trkpt lat="50.74456" lon="1.59783">
        <ele>45</ele>
        <time>2020-06-22T18:16:17Z</time>
      </trkpt>
      <trkpt lat="50.7446" lon="1.59783">
        <ele>45.4</ele>
        <time>2020-06-22T18:16:18Z</time>
      </trkpt>
      <trkpt lat="50.74462" lon="1.59783">
        <ele>45.6</ele>
        <time>2020-06-22T18:16:19Z</time>
      </trkpt>
      <trkpt lat="50.74466" lon="1.59784">
        <ele>45.7</ele>
        <time>2020-06-22T18:16:20Z</time>
      </trkpt>
      <trkpt lat="50.74469" lon="1.59784">
        <ele>45.9</ele>
        <time>2020-06-22T18:16:21Z</time>
      </trkpt>
      <trkpt lat="50.74472" lon="1.59784">
        <ele>46.1</ele>
        <time>2020-06-22T18:16:22Z</time>
      </trkpt>
      <trkpt lat="50.74476" lon="1.59785">
        <ele>46.3</ele>
        <time>2020-06-22T18:16:23Z</time>
      </trkpt>
      <trkpt lat="50.74479" lon="1.59786">
        <ele>46.5</ele>
        <time>2020-06-22T18:16:24Z</time>
      </trkpt>
      <trkpt lat="50.74483" lon="1.59787">
        <ele>46.7</ele>
        <time>2020-06-22T18:16:25Z</time>
      </trkpt>
      <trkpt lat="50.74486" lon="1.59787">
        <ele>46.9</ele>
        <time>2020-06-22T18:16:26Z</time>
      </trkpt>
      <trkpt lat="50.74489" lon="1.59789">
        <ele>47.1</ele>
        <time>2020-06-22T18:16:27Z</time>
      </trkpt>
      <trkpt lat="50.74493" lon="1.59789">
        <ele>47.2</ele>
        <time>2020-06-22T18:16:28Z</time>
      </trkpt>
      <trkpt lat="50.74497" lon="1.5979">
        <ele>47.4</ele>
        <time>2020-06-22T18:16:29Z</time>
      </trkpt>
      <trkpt lat="50.74502" lon="1.5979">
        <ele>47.6</ele>
        <time>2020-06-22T18:16:30Z</time>
      </trkpt>
      <trkpt lat="50.74506" lon="1.59791">
        <ele>47.8</ele>
        <time>2020-06-22T18:16:31Z</time>
      </trkpt>
      <trkpt lat="50.74507" lon="1.59792">
        <ele>47.9</ele>
        <time>2020-06-22T18:16:32Z</time>
      </trkpt>
      <trkpt lat="50.7451" lon="1.59792">
        <ele>48</ele>
        <time>2020-06-22T18:16:33Z</time>
      </trkpt>
      <trkpt lat="50.74513" lon="1.59793">
        <ele>48.2</ele>
        <time>2020-06-22T18:16:34Z</time>
      </trkpt>
      <trkpt lat="50.74516" lon="1.59794">
        <ele>48.3</ele>
        <time>2020-06-22T18:16:35Z</time>
      </trkpt>
      <trkpt lat="50.74519" lon="1.59794">
        <ele>48.5</ele>
        <time>2020-06-22T18:16:36Z</time>
      </trkpt>
      <trkpt lat="50.74522" lon="1.59794">
        <ele>48.6</ele>
        <time>2020-06-22T18:16:37Z</time>
      </trkpt>
      <trkpt lat="50.74525" lon="1.59794">
        <ele>48.8</ele>
        <time>2020-06-22T18:16:38Z</time>
      </trkpt>
      <trkpt lat="50.74528" lon="1.59795">
        <ele>48.9</ele>
        <time>2020-06-22T18:16:39Z</time>
      </trkpt>
      <trkpt lat="50.74531" lon="1.59795">
        <ele>49.1</ele>
        <time>2020-06-22T18:16:40Z</time>
      </trkpt>
      <trkpt lat="50.74535" lon="1.59795">
        <ele>49.2</ele>
        <time>2020-06-22T18:16:41Z</time>
      </trkpt>
      <trkpt lat="50.74538" lon="1.59795">
        <ele>49.4</ele>
        <time>2020-06-22T18:16:42Z</time>
      </trkpt>
      <trkpt lat="50.74541" lon="1.59795">
        <ele>49.5</ele>
        <time>2020-06-22T18:16:43Z</time>
      </trkpt>
      <trkpt lat="50.74544" lon="1.59795">
        <ele>49.7</ele>
        <time>2020-06-22T18:16:44Z</time>
      </trkpt>
      <trkpt lat="50.74547" lon="1.59796">
        <ele>49.8</ele>
        <time>2020-06-22T18:16:45Z</time>
      </trkpt>
      <trkpt lat="50.7455" lon="1.59797">
        <ele>49.9</ele>
        <time>2020-06-22T18:16:46Z</time>
      </trkpt>
      <trkpt lat="50.74554" lon="1.59799">
        <ele>50.1</ele>
        <time>2020-06-22T18:16:47Z</time>
      </trkpt>
      <trkpt lat="50.74557" lon="1.59799">
        <ele>50.2</ele>
        <time>2020-06-22T18:16:48Z</time>
      </trkpt>
      <trkpt lat="50.7456" lon="1.598">
        <ele>50.4</ele>
        <time>2020-06-22T18:16:49Z</time>
      </trkpt>
      <trkpt lat="50.74563" lon="1.59801">
        <ele>50.5</ele>
        <time>2020-06-22T18:16:50Z</time>
      </trkpt>
      <trkpt lat="50.74567" lon="1.59801">
        <ele>50.6</ele>
        <time>2020-06-22T18:16:51Z</time>
      </trkpt>
      <trkpt lat="50.7457" lon="1.59802">
        <ele>50.8</ele>
        <time>2020-06-22T18:16:52Z</time>
      </trkpt>
      <trkpt lat="50.74573" lon="1.59803">
        <ele>50.9</ele>
        <time>2020-06-22T18:16:53Z</time>
      </trkpt>
      <trkpt lat="50.74576" lon="1.59801">
        <ele>51</ele>
        <time>2020-06-22T18:16:54Z</time>
      </trkpt>
      <trkpt lat="50.7458" lon="1.59802">
        <ele>51.2</ele>
        <time>2020-06-22T18:16:55Z</time>
      </trkpt>
      <trkpt lat="50.74585" lon="1.59804">
        <ele>51.3</ele>
        <time>2020-06-22T18:16:56Z</time>
      </trkpt>
      <trkpt lat="50.74589" lon="1.59805">
        <ele>51.5</ele>
        <time>2020-06-22T18:16:57Z</time>
      </trkpt>
      <trkpt lat="50.74594" lon="1.59806">
        <ele>51.7</ele>
        <time>2020-06-22T18:16:58Z</time>
      </trkpt>
      <trkpt lat="50.74598" lon="1.59807">
        <ele>51.8</ele>
        <time>2020-06-22T18:16:59Z</time>
      </trkpt>
      <trkpt lat="50.74602" lon="1.59808">
        <ele>51.9</ele>
        <time>2020-06-22T18:17:00Z</time>
      </trkpt>
      <trkpt lat="50.74605" lon="1.59808">
        <ele>52</ele>
        <time>2020-06-22T18:17:01Z</time>
      </trkpt>
      <trkpt lat="50.7461" lon="1.59809">
        <ele>52.1</ele>
        <time>2020-06-22T18:17:02Z</time>
      </trkpt>
      <trkpt lat="50.74615" lon="1.59809">
        <ele>52.2</ele>
        <time>2020-06-22T18:17:03Z</time>
      </trkpt>
      <trkpt lat="50.74619" lon="1.5981">
        <ele>52.4</ele>
        <time>2020-06-22T18:17:04Z</time>
      </trkpt>
      <trkpt lat="50.74624" lon="1.59811">
        <ele>52.5</ele>
        <time>2020-06-22T18:17:05Z</time>
      </trkpt>
      <trkpt lat="50.74628" lon="1.59813">
        <ele>52.6</ele>
        <time>2020-06-22T18:17:06Z</time>
      </trkpt>
      <trkpt lat="50.74632" lon="1.59814">
        <ele>52.7</ele>
        <time>2020-06-22T18:17:07Z</time>
      </trkpt>
      <trkpt lat="50.74636" lon="1.59814">
        <ele>52.8</ele>
        <time>2020-06-22T18:17:08Z</time>
      </trkpt>
      <trkpt lat="50.74641" lon="1.59815">
        <ele>52.9</ele>
        <time>2020-06-22T18:17:09Z</time>
      </trkpt>
      <trkpt lat="50.74645" lon="1.59815">
        <ele>52.9</ele>
        <time>2020-06-22T18:17:10Z</time>
      </trkpt>
      <trkpt lat="50.74649" lon="1.59815">
        <ele>53</ele>
        <time>2020-06-22T18:17:11Z</time>
      </trkpt>
      <trkpt lat="50.74653" lon="1.59815">
        <ele>53.1</ele>
        <time>2020-06-22T18:17:12Z</time>
      </trkpt>
      <trkpt lat="50.74658" lon="1.59816">
        <ele>53.1</ele>
        <time>2020-06-22T18:17:13Z</time>
      </trkpt>
      <trkpt lat="50.74662" lon="1.59817">
        <ele>53.2</ele>
        <time>2020-06-22T18:17:14Z</time>
      </trkpt>
      <trkpt lat="50.74667" lon="1.59817">
        <ele>53.2</ele>
        <time>2020-06-22T18:17:15Z</time>
      </trkpt>
      <trkpt lat="50.74672" lon="1.59817">
        <ele>53.3</ele>
        <time>2020-06-22T18:17:16Z</time>
      </trkpt>
      <trkpt lat="50.74677" lon="1.59818">
        <ele>53.4</ele>
        <time>2020-06-22T18:17:17Z</time>
      </trkpt>
      <trkpt lat="50.74682" lon="1.59819">
        <ele>53.4</ele>
        <time>2020-06-22T18:17:18Z</time>
      </trkpt>
      <trkpt lat="50.74687" lon="1.5982">
        <ele>53.5</ele>
        <time>2020-06-22T18:17:19Z</time>
      </trkpt>
      <trkpt lat="50.74692" lon="1.59821">
        <ele>53.5</ele>
        <time>2020-06-22T18:17:20Z</time>
      </trkpt>
      <trkpt lat="50.74697" lon="1.59823">
        <ele>53.6</ele>
        <time>2020-06-22T18:17:21Z</time>
      </trkpt>
      <trkpt lat="50.74701" lon="1.59822">
        <ele>53.6</ele>
        <time>2020-06-22T18:17:22Z</time>
      </trkpt>
      <trkpt lat="50.74705" lon="1.59824">
        <ele>53.7</ele>
        <time>2020-06-22T18:17:23Z</time>
      </trkpt>
      <trkpt lat="50.74709" lon="1.59825">
        <ele>53.7</ele>
        <time>2020-06-22T18:17:24Z</time>
      </trkpt>
      <trkpt lat="50.74713" lon="1.59825">
        <ele>53.7</ele>
        <time>2020-06-22T18:17:25Z</time>
      </trkpt>
      <trkpt lat="50.74718" lon="1.59826">
        <ele>53.7</ele>
        <time>2020-06-22T18:17:26Z</time>
      </trkpt>
      <trkpt lat="50.74723" lon="1.59827">
        <ele>53.8</ele>
        <time>2020-06-22T18:17:27Z</time>
      </trkpt>
      <trkpt lat="50.74728" lon="1.59828">
        <ele>53.8</ele>
        <time>2020-06-22T18:17:28Z</time>
      </trkpt>
      <trkpt lat="50.74732" lon="1.59829">
        <ele>53.9</ele>
        <time>2020-06-22T18:17:29Z</time>
      </trkpt>
      <trkpt lat="50.74737" lon="1.5983">
        <ele>53.9</ele>
        <time>2020-06-22T18:17:30Z</time>
      </trkpt>
      <trkpt lat="50.74741" lon="1.59831">
        <ele>53.9</ele>
        <time>2020-06-22T18:17:31Z</time>
      </trkpt>
      <trkpt lat="50.74746" lon="1.59832">
        <ele>54</ele>
        <time>2020-06-22T18:17:32Z</time>
      </trkpt>
      <trkpt lat="50.7475" lon="1.59833">
        <ele>54.1</ele>
        <time>2020-06-22T18:17:33Z</time>
      </trkpt>
      <trkpt lat="50.74754" lon="1.59834">
        <ele>54.2</ele>
        <time>2020-06-22T18:17:34Z</time>
      </trkpt>
      <trkpt lat="50.74759" lon="1.59835">
        <ele>54.3</ele>
        <time>2020-06-22T18:17:35Z</time>
      </trkpt>
      <trkpt lat="50.74764" lon="1.59837">
        <ele>54.4</ele>
        <time>2020-06-22T18:17:36Z</time>
      </trkpt>
      <trkpt lat="50.74769" lon="1.59838">
        <ele>54.5</ele>
        <time>2020-06-22T18:17:37Z</time>
      </trkpt>
      <trkpt lat="50.74773" lon="1.59839">
        <ele>54.6</ele>
        <time>2020-06-22T18:17:38Z</time>
      </trkpt>
      <trkpt lat="50.74778" lon="1.5984">
        <ele>54.7</ele>
        <time>2020-06-22T18:17:39Z</time>
      </trkpt>
      <trkpt lat="50.74782" lon="1.59842">
        <ele>54.8</ele>
        <time>2020-06-22T18:17:40Z</time>
      </trkpt>
      <trkpt lat="50.74785" lon="1.59844">
        <ele>54.8</ele>
        <time>2020-06-22T18:17:41Z</time>
      </trkpt>
      <trkpt lat="50.74789" lon="1.59848">
        <ele>54.9</ele>
        <time>2020-06-22T18:17:42Z</time>
      </trkpt>
      <trkpt lat="50.74791" lon="1.59854">
        <ele>55</ele>
        <time>2020-06-22T18:17:43Z</time>
      </trkpt>
      <trkpt lat="50.74793" lon="1.5986">
        <ele>55.1</ele>
        <time>2020-06-22T18:17:44Z</time>
      </trkpt>
      <trkpt lat="50.74795" lon="1.59867">
        <ele>55.2</ele>
        <time>2020-06-22T18:17:45Z</time>
      </trkpt>
      <trkpt lat="50.74796" lon="1.59874">
        <ele>55.3</ele>
        <time>2020-06-22T18:17:46Z</time>
      </trkpt>
      <trkpt lat="50.74798" lon="1.5988">
        <ele>55.5</ele>
        <time>2020-06-22T18:17:47Z</time>
      </trkpt>
      <trkpt lat="50.74799" lon="1.59886">
        <ele>55.6</ele>
        <time>2020-06-22T18:17:48Z</time>
      </trkpt>
      <trkpt lat="50.74801" lon="1.5989">
        <ele>55.7</ele>
        <time>2020-06-22T18:17:49Z</time>
      </trkpt>
      <trkpt lat="50.74803" lon="1.59895">
        <ele>55.8</ele>
        <time>2020-06-22T18:17:50Z</time>
      </trkpt>
      <trkpt lat="50.74805" lon="1.59899">
        <ele>55.9</ele>
        <time>2020-06-22T18:17:51Z</time>
      </trkpt>
      <trkpt lat="50.74807" lon="1.59903">
        <ele>56</ele>
        <time>2020-06-22T18:17:52Z</time>
      </trkpt>
      <trkpt lat="50.7481" lon="1.59906">
        <ele>56.2</ele>
        <time>2020-06-22T18:17:53Z</time>
      </trkpt>
      <trkpt lat="50.74812" lon="1.59909">
        <ele>56.3</ele>
        <time>2020-06-22T18:17:54Z</time>
      </trkpt>
      <trkpt lat="50.74815" lon="1.59913">
        <ele>56.4</ele>
        <time>2020-06-22T18:17:55Z</time>
      </trkpt>
      <trkpt lat="50.74817" lon="1.59918">
        <ele>56.5</ele>
        <time>2020-06-22T18:17:56Z</time>
      </trkpt>
      <trkpt lat="50.74819" lon="1.59919">
        <ele>56.5</ele>
        <time>2020-06-22T18:17:57Z</time>
      </trkpt>
      <trkpt lat="50.74822" lon="1.59919">
        <ele>56.6</ele>
        <time>2020-06-22T18:17:58Z</time>
      </trkpt>
      <trkpt lat="50.74824" lon="1.5992">
        <ele>56.7</ele>
        <time>2020-06-22T18:17:59Z</time>
      </trkpt>
      <trkpt lat="50.74827" lon="1.59921">
        <ele>56.8</ele>
        <time>2020-06-22T18:18:00Z</time>
      </trkpt>
      <trkpt lat="50.7483" lon="1.59922">
        <ele>56.8</ele>
        <time>2020-06-22T18:18:01Z</time>
      </trkpt>
      <trkpt lat="50.74833" lon="1.59923">
        <ele>56.8</ele>
        <time>2020-06-22T18:18:02Z</time>
      </trkpt>
      <trkpt lat="50.74836" lon="1.59922">
        <ele>56.7</ele>
        <time>2020-06-22T18:18:03Z</time>
      </trkpt>
      <trkpt lat="50.74837" lon="1.59918">
        <ele>56.7</ele>
        <time>2020-06-22T18:18:04Z</time>
      </trkpt>
      <trkpt lat="50.74838" lon="1.59914">
        <ele>56.7</ele>
        <time>2020-06-22T18:18:05Z</time>
      </trkpt>
      <trkpt lat="50.74839" lon="1.59909">
        <ele>56.7</ele>
        <time>2020-06-22T18:18:06Z</time>
      </trkpt>
      <trkpt lat="50.74842" lon="1.59904">
        <ele>56.6</ele>
        <time>2020-06-22T18:18:07Z</time>
      </trkpt>
      <trkpt lat="50.74844" lon="1.59899">
        <ele>56.6</ele>
        <time>2020-06-22T18:18:08Z</time>
      </trkpt>
      <trkpt lat="50.74847" lon="1.59894">
        <ele>56.6</ele>
        <time>2020-06-22T18:18:09Z</time>
      </trkpt>
      <trkpt lat="50.74848" lon="1.59888">
        <ele>56.5</ele>
        <time>2020-06-22T18:18:10Z</time>
      </trkpt>
      <trkpt lat="50.74851" lon="1.59884">
        <ele>56.5</ele>
        <time>2020-06-22T18:18:11Z</time>
      </trkpt>
      <trkpt lat="50.74853" lon="1.5988">
        <ele>56.5</ele>
        <time>2020-06-22T18:18:12Z</time>
      </trkpt>
      <trkpt lat="50.74855" lon="1.59876">
        <ele>56.5</ele>
        <time>2020-06-22T18:18:13Z</time>
      </trkpt>
      <trkpt lat="50.74859" lon="1.59876">
        <ele>56.4</ele>
        <time>2020-06-22T18:18:14Z</time>
      </trkpt>
      <trkpt lat="50.74863" lon="1.59875">
        <ele>56.3</ele>
        <time>2020-06-22T18:18:15Z</time>
      </trkpt>
      <trkpt lat="50.74868" lon="1.59874">
        <ele>56.2</ele>
        <time>2020-06-22T18:18:16Z</time>
      </trkpt>
      <trkpt lat="50.74872" lon="1.59875">
        <ele>56.1</ele>
        <time>2020-06-22T18:18:17Z</time>
      </trkpt>
      <trkpt lat="50.74877" lon="1.59877">
        <ele>56.1</ele>
        <time>2020-06-22T18:18:18Z</time>
      </trkpt>
      <trkpt lat="50.74881" lon="1.59879">
        <ele>56</ele>
        <time>2020-06-22T18:18:19Z</time>
      </trkpt>
      <trkpt lat="50.74885" lon="1.59881">
        <ele>56</ele>
        <time>2020-06-22T18:18:20Z</time>
      </trkpt>
      <trkpt lat="50.74888" lon="1.59882">
        <ele>56</ele>
        <time>2020-06-22T18:18:21Z</time>
      </trkpt>
      <trkpt lat="50.74892" lon="1.59884">
        <ele>56</ele>
        <time>2020-06-22T18:18:22Z</time>
      </trkpt>
      <trkpt lat="50.74896" lon="1.59887">
        <ele>56</ele>
        <time>2020-06-22T18:18:23Z</time>
      </trkpt>
      <trkpt lat="50.74899" lon="1.5989">
        <ele>56</ele>
        <time>2020-06-22T18:18:24Z</time>
      </trkpt>
      <trkpt lat="50.74903" lon="1.59893">
        <ele>56.1</ele>
        <time>2020-06-22T18:18:25Z</time>
      </trkpt>
      <trkpt lat="50.74906" lon="1.59897">
        <ele>56.1</ele>
        <time>2020-06-22T18:18:26Z</time>
      </trkpt>
      <trkpt lat="50.7491" lon="1.599">
        <ele>56.2</ele>
        <time>2020-06-22T18:18:27Z</time>
      </trkpt>
      <trkpt lat="50.74913" lon="1.59905">
        <ele>56.2</ele>
        <time>2020-06-22T18:18:28Z</time>
      </trkpt>
      <trkpt lat="50.74917" lon="1.59908">
        <ele>56.3</ele>
        <time>2020-06-22T18:18:29Z</time>
      </trkpt>
      <trkpt lat="50.74921" lon="1.59912">
        <ele>56.4</ele>
        <time>2020-06-22T18:18:30Z</time>
      </trkpt>
      <trkpt lat="50.74925" lon="1.59916">
        <ele>56.4</ele>
        <time>2020-06-22T18:18:31Z</time>
      </trkpt>
      <trkpt lat="50.74928" lon="1.5992">
        <ele>56.5</ele>
        <time>2020-06-22T18:18:32Z</time>
      </trkpt>
      <trkpt lat="50.74932" lon="1.59924">
        <ele>56.6</ele>
        <time>2020-06-22T18:18:33Z</time>
      </trkpt>
      <trkpt lat="50.74936" lon="1.59928">
        <ele>56.6</ele>
        <time>2020-06-22T18:18:34Z</time>
      </trkpt>
      <trkpt lat="50.7494" lon="1.59932">
        <ele>56.7</ele>
        <time>2020-06-22T18:18:35Z</time>
      </trkpt>
      <trkpt lat="50.74943" lon="1.59936">
        <ele>56.7</ele>
        <time>2020-06-22T18:18:36Z</time>
      </trkpt>
      <trkpt lat="50.74948" lon="1.5994">
        <ele>56.8</ele>
        <time>2020-06-22T18:18:37Z</time>
      </trkpt>
      <trkpt lat="50.74951" lon="1.59945">
        <ele>56.8</ele>
        <time>2020-06-22T18:18:38Z</time>
      </trkpt>
      <trkpt lat="50.74954" lon="1.59948">
        <ele>56.9</ele>
        <time>2020-06-22T18:18:39Z</time>
      </trkpt>
      <trkpt lat="50.74958" lon="1.59951">
        <ele>56.9</ele>
        <time>2020-06-22T18:18:40Z</time>
      </trkpt>
      <trkpt lat="50.74961" lon="1.59956">
        <ele>57</ele>
        <time>2020-06-22T18:18:41Z</time>
      </trkpt>
      <trkpt lat="50.74964" lon="1.59961">
        <ele>57.1</ele>
        <time>2020-06-22T18:18:42Z</time>
      </trkpt>
      <trkpt lat="50.74967" lon="1.59966">
        <ele>57.1</ele>
        <time>2020-06-22T18:18:43Z</time>
      </trkpt>
      <trkpt lat="50.74971" lon="1.59972">
        <ele>57.2</ele>
        <time>2020-06-22T18:18:44Z</time>
      </trkpt>
      <trkpt lat="50.74975" lon="1.59977">
        <ele>57.2</ele>
        <time>2020-06-22T18:18:45Z</time>
      </trkpt>
      <trkpt lat="50.74978" lon="1.59983">
        <ele>57.3</ele>
        <time>2020-06-22T18:18:46Z</time>
      </trkpt>
      <trkpt lat="50.74982" lon="1.5999">
        <ele>57.3</ele>
        <time>2020-06-22T18:18:47Z</time>
      </trkpt>
      <trkpt lat="50.74985" lon="1.59996">
        <ele>57.3</ele>
        <time>2020-06-22T18:18:48Z</time>
      </trkpt>
      <trkpt lat="50.74989" lon="1.60003">
        <ele>57.3</ele>
        <time>2020-06-22T18:18:49Z</time>
      </trkpt>
      <trkpt lat="50.74994" lon="1.60009">
        <ele>57.4</ele>
        <time>2020-06-22T18:18:50Z</time>
      </trkpt>
      <trkpt lat="50.74998" lon="1.60015">
        <ele>57.4</ele>
        <time>2020-06-22T18:18:51Z</time>
      </trkpt>
      <trkpt lat="50.75002" lon="1.6002">
        <ele>57.4</ele>
        <time>2020-06-22T18:18:52Z</time>
      </trkpt>
      <trkpt lat="50.75005" lon="1.60025">
        <ele>57.4</ele>
        <time>2020-06-22T18:18:53Z</time>
      </trkpt>
      <trkpt lat="50.75009" lon="1.60031">
        <ele>57.4</ele>
        <time>2020-06-22T18:18:54Z</time>
      </trkpt>
      <trkpt lat="50.75013" lon="1.60036">
        <ele>57.4</ele>
        <time>2020-06-22T18:18:55Z</time>
      </trkpt>
      <trkpt lat="50.75016" lon="1.60044">
        <ele>57.3</ele>
        <time>2020-06-22T18:18:56Z</time>
      </trkpt>
      <trkpt lat="50.7502" lon="1.6005">
        <ele>57.3</ele>
        <time>2020-06-22T18:18:57Z</time>
      </trkpt>
      <trkpt lat="50.75022" lon="1.60055">
        <ele>57.2</ele>
        <time>2020-06-22T18:18:58Z</time>
      </trkpt>
      <trkpt lat="50.75026" lon="1.60059">
        <ele>57.2</ele>
        <time>2020-06-22T18:18:59Z</time>
      </trkpt>
      <trkpt lat="50.7503" lon="1.60063">
        <ele>57.1</ele>
        <time>2020-06-22T18:19:00Z</time>
      </trkpt>
      <trkpt lat="50.75035" lon="1.60068">
        <ele>57</ele>
        <time>2020-06-22T18:19:01Z</time>
      </trkpt>
      <trkpt lat="50.75039" lon="1.60072">
        <ele>56.9</ele>
        <time>2020-06-22T18:19:02Z</time>
      </trkpt>
      <trkpt lat="50.75044" lon="1.60078">
        <ele>56.8</ele>
        <time>2020-06-22T18:19:03Z</time>
      </trkpt>
      <trkpt lat="50.75049" lon="1.60083">
        <ele>56.7</ele>
        <time>2020-06-22T18:19:04Z</time>
      </trkpt>
      <trkpt lat="50.75053" lon="1.60087">
        <ele>56.6</ele>
        <time>2020-06-22T18:19:05Z</time>
      </trkpt>
      <trkpt lat="50.75058" lon="1.60091">
        <ele>56.4</ele>
        <time>2020-06-22T18:19:06Z</time>
      </trkpt>
      <trkpt lat="50.75063" lon="1.60093">
        <ele>56.3</ele>
        <time>2020-06-22T18:19:07Z</time>
      </trkpt>
      <trkpt lat="50.75068" lon="1.60097">
        <ele>56.2</ele>
        <time>2020-06-22T18:19:08Z</time>
      </trkpt>
      <trkpt lat="50.75073" lon="1.60101">
        <ele>56</ele>
        <time>2020-06-22T18:19:09Z</time>
      </trkpt>
      <trkpt lat="50.75079" lon="1.60104">
        <ele>55.7</ele>
        <time>2020-06-22T18:19:10Z</time>
      </trkpt>
      <trkpt lat="50.75085" lon="1.60109">
        <ele>55.5</ele>
        <time>2020-06-22T18:19:11Z</time>
      </trkpt>
      <trkpt lat="50.7509" lon="1.60114">
        <ele>55.3</ele>
        <time>2020-06-22T18:19:12Z</time>
      </trkpt>
      <trkpt lat="50.75095" lon="1.60116">
        <ele>55.1</ele>
        <time>2020-06-22T18:19:13Z</time>
      </trkpt>
      <trkpt lat="50.75101" lon="1.60121">
        <ele>54.8</ele>
        <time>2020-06-22T18:19:14Z</time>
      </trkpt>
      <trkpt lat="50.75107" lon="1.60125">
        <ele>54.6</ele>
        <time>2020-06-22T18:19:15Z</time>
      </trkpt>
      <trkpt lat="50.75112" lon="1.60129">
        <ele>54.3</ele>
        <time>2020-06-22T18:19:16Z</time>
      </trkpt>
      <trkpt lat="50.75119" lon="1.60132">
        <ele>54</ele>
        <time>2020-06-22T18:19:17Z</time>
      </trkpt>
      <trkpt lat="50.75126" lon="1.60136">
        <ele>53.7</ele>
        <time>2020-06-22T18:19:18Z</time>
      </trkpt>
      <trkpt lat="50.75131" lon="1.60141">
        <ele>53.4</ele>
        <time>2020-06-22T18:19:19Z</time>
      </trkpt>
      <trkpt lat="50.75138" lon="1.60146">
        <ele>53.1</ele>
        <time>2020-06-22T18:19:20Z</time>
      </trkpt>
      <trkpt lat="50.75144" lon="1.6015">
        <ele>52.8</ele>
        <time>2020-06-22T18:19:21Z</time>
      </trkpt>
      <trkpt lat="50.75151" lon="1.60154">
        <ele>52.5</ele>
        <time>2020-06-22T18:19:22Z</time>
      </trkpt>
      <trkpt lat="50.75158" lon="1.60159">
        <ele>52.1</ele>
        <time>2020-06-22T18:19:23Z</time>
      </trkpt>
      <trkpt lat="50.75165" lon="1.60164">
        <ele>51.8</ele>
        <time>2020-06-22T18:19:24Z</time>
      </trkpt>
      <trkpt lat="50.75172" lon="1.60168">
        <ele>51.4</ele>
        <time>2020-06-22T18:19:25Z</time>
      </trkpt>
      <trkpt lat="50.7518" lon="1.60173">
        <ele>51.1</ele>
        <time>2020-06-22T18:19:26Z</time>
      </trkpt>
      <trkpt lat="50.75187" lon="1.60177">
        <ele>50.8</ele>
        <time>2020-06-22T18:19:27Z</time>
      </trkpt>
      <trkpt lat="50.75194" lon="1.60182">
        <ele>50.4</ele>
        <time>2020-06-22T18:19:28Z</time>
      </trkpt>
      <trkpt lat="50.75201" lon="1.60186">
        <ele>50</ele>
        <time>2020-06-22T18:19:29Z</time>
      </trkpt>
      <trkpt lat="50.75208" lon="1.60191">
        <ele>49.6</ele>
        <time>2020-06-22T18:19:30Z</time>
      </trkpt>
      <trkpt lat="50.75216" lon="1.60195">
        <ele>49.3</ele>
        <time>2020-06-22T18:19:31Z</time>
      </trkpt>
      <trkpt lat="50.75224" lon="1.602">
        <ele>49</ele>
        <time>2020-06-22T18:19:32Z</time>
      </trkpt>
      <trkpt lat="50.75231" lon="1.60204">
        <ele>48.7</ele>
        <time>2020-06-22T18:19:33Z</time>
      </trkpt>
      <trkpt lat="50.75239" lon="1.60209">
        <ele>48.4</ele>
        <time>2020-06-22T18:19:34Z</time>
      </trkpt>
      <trkpt lat="50.75247" lon="1.60214">
        <ele>48.1</ele>
        <time>2020-06-22T18:19:35Z</time>
      </trkpt>
      <trkpt lat="50.75254" lon="1.60219">
        <ele>47.8</ele>
        <time>2020-06-22T18:19:36Z</time>
      </trkpt>
      <trkpt lat="50.75262" lon="1.60224">
        <ele>47.4</ele>
        <time>2020-06-22T18:19:37Z</time>
      </trkpt>
      <trkpt lat="50.7527" lon="1.60229">
        <ele>47.1</ele>
        <time>2020-06-22T18:19:38Z</time>
      </trkpt>
      <trkpt lat="50.75278" lon="1.60234">
        <ele>46.8</ele>
        <time>2020-06-22T18:19:39Z</time>
      </trkpt>
      <trkpt lat="50.75286" lon="1.60239">
        <ele>46.4</ele>
        <time>2020-06-22T18:19:40Z</time>
      </trkpt>
      <trkpt lat="50.75294" lon="1.60244">
        <ele>46.1</ele>
        <time>2020-06-22T18:19:41Z</time>
      </trkpt>
      <trkpt lat="50.75303" lon="1.6025">
        <ele>45.7</ele>
        <time>2020-06-22T18:19:42Z</time>
      </trkpt>
      <trkpt lat="50.75311" lon="1.60256">
        <ele>45.3</ele>
        <time>2020-06-22T18:19:43Z</time>
      </trkpt>
      <trkpt lat="50.75319" lon="1.60262">
        <ele>45</ele>
        <time>2020-06-22T18:19:44Z</time>
      </trkpt>
      <trkpt lat="50.75328" lon="1.60267">
        <ele>44.6</ele>
        <time>2020-06-22T18:19:45Z</time>
      </trkpt>
      <trkpt lat="50.75337" lon="1.60271">
        <ele>44.3</ele>
        <time>2020-06-22T18:19:46Z</time>
      </trkpt>
      <trkpt lat="50.75346" lon="1.60277">
        <ele>43.9</ele>
        <time>2020-06-22T18:19:47Z</time>
      </trkpt>
      <trkpt lat="50.75355" lon="1.60283">
        <ele>43.5</ele>
        <time>2020-06-22T18:19:48Z</time>
      </trkpt>
      <trkpt lat="50.75365" lon="1.6029">
        <ele>43.1</ele>
        <time>2020-06-22T18:19:49Z</time>
      </trkpt>
      <trkpt lat="50.75374" lon="1.60296">
        <ele>42.8</ele>
        <time>2020-06-22T18:19:50Z</time>
      </trkpt>
      <trkpt lat="50.75383" lon="1.60303">
        <ele>42.4</ele>
        <time>2020-06-22T18:19:51Z</time>
      </trkpt>
      <trkpt lat="50.75393" lon="1.60309">
        <ele>42</ele>
        <time>2020-06-22T18:19:52Z</time>
      </trkpt>
      <trkpt lat="50.75403" lon="1.60315">
        <ele>41.6</ele>
        <time>2020-06-22T18:19:53Z</time>
      </trkpt>
      <trkpt lat="50.75413" lon="1.60321">
        <ele>41.1</ele>
        <time>2020-06-22T18:19:54Z</time>
      </trkpt>
      <trkpt lat="50.75422" lon="1.60327">
        <ele>40.6</ele>
        <time>2020-06-22T18:19:55Z</time>
      </trkpt>
      <trkpt lat="50.75432" lon="1.60333">
        <ele>40</ele>
        <time>2020-06-22T18:19:56Z</time>
      </trkpt>
      <trkpt lat="50.75442" lon="1.60339">
        <ele>39.6</ele>
        <time>2020-06-22T18:19:57Z</time>
      </trkpt>
      <trkpt lat="50.75452" lon="1.60345">
        <ele>39</ele>
        <time>2020-06-22T18:19:58Z</time>
      </trkpt>
      <trkpt lat="50.75462" lon="1.60351">
        <ele>38.5</ele>
        <time>2020-06-22T18:19:59Z</time>
      </trkpt>
      <trkpt lat="50.75471" lon="1.60357">
        <ele>38</ele>
        <time>2020-06-22T18:20:00Z</time>
      </trkpt>
      <trkpt lat="50.7548" lon="1.60363">
        <ele>37.6</ele>
        <time>2020-06-22T18:20:01Z</time>
      </trkpt>
      <trkpt lat="50.75489" lon="1.60369">
        <ele>37.2</ele>
        <time>2020-06-22T18:20:02Z</time>
      </trkpt>
      <trkpt lat="50.75497" lon="1.60374">
        <ele>36.8</ele>
        <time>2020-06-22T18:20:03Z</time>
      </trkpt>
      <trkpt lat="50.75504" lon="1.6038">
        <ele>36.5</ele>
        <time>2020-06-22T18:20:04Z</time>
      </trkpt>
      <trkpt lat="50.75511" lon="1.60385">
        <ele>36.2</ele>
        <time>2020-06-22T18:20:05Z</time>
      </trkpt>
      <trkpt lat="50.75517" lon="1.6039">
        <ele>36</ele>
        <time>2020-06-22T18:20:06Z</time>
      </trkpt>
      <trkpt lat="50.75523" lon="1.60395">
        <ele>35.7</ele>
        <time>2020-06-22T18:20:07Z</time>
      </trkpt>
      <trkpt lat="50.75528" lon="1.60398">
        <ele>35.3</ele>
        <time>2020-06-22T18:20:08Z</time>
      </trkpt>
      <trkpt lat="50.75532" lon="1.60402">
        <ele>34.8</ele>
        <time>2020-06-22T18:20:09Z</time>
      </trkpt>
      <trkpt lat="50.75534" lon="1.60407">
        <ele>34.9</ele>
        <time>2020-06-22T18:20:10Z</time>
      </trkpt>
      <trkpt lat="50.75535" lon="1.60413">
        <ele>34.9</ele>
        <time>2020-06-22T18:20:11Z</time>
      </trkpt>
      <trkpt lat="50.75537" lon="1.60417">
        <ele>34.9</ele>
        <time>2020-06-22T18:20:12Z</time>
      </trkpt>
      <trkpt lat="50.7554" lon="1.60419">
        <ele>34.7</ele>
        <time>2020-06-22T18:20:13Z</time>
      </trkpt>
      <trkpt lat="50.75543" lon="1.60421">
        <ele>34.7</ele>
        <time>2020-06-22T18:20:14Z</time>
      </trkpt>
      <trkpt lat="50.75547" lon="1.60423">
        <ele>34.7</ele>
        <time>2020-06-22T18:20:15Z</time>
      </trkpt>
      <trkpt lat="50.75551" lon="1.60425">
        <ele>33.7</ele>
        <time>2020-06-22T18:20:16Z</time>
      </trkpt>
      <trkpt lat="50.75554" lon="1.60428">
        <ele>33.5</ele>
        <time>2020-06-22T18:20:17Z</time>
      </trkpt>
      <trkpt lat="50.75558" lon="1.60431">
        <ele>33.2</ele>
        <time>2020-06-22T18:20:18Z</time>
      </trkpt>
      <trkpt lat="50.75563" lon="1.60434">
        <ele>32.8</ele>
        <time>2020-06-22T18:20:19Z</time>
      </trkpt>
      <trkpt lat="50.75567" lon="1.60435">
        <ele>32.5</ele>
        <time>2020-06-22T18:20:20Z</time>
      </trkpt>
      <trkpt lat="50.75572" lon="1.60434">
        <ele>32.1</ele>
        <time>2020-06-22T18:20:21Z</time>
      </trkpt>
      <trkpt lat="50.75578" lon="1.60433">
        <ele>31.7</ele>
        <time>2020-06-22T18:20:22Z</time>
      </trkpt>
      <trkpt lat="50.75583" lon="1.60436">
        <ele>31.4</ele>
        <time>2020-06-22T18:20:23Z</time>
      </trkpt>
      <trkpt lat="50.75588" lon="1.60439">
        <ele>31</ele>
        <time>2020-06-22T18:20:24Z</time>
      </trkpt>
      <trkpt lat="50.75594" lon="1.60442">
        <ele>30.6</ele>
        <time>2020-06-22T18:20:25Z</time>
      </trkpt>
      <trkpt lat="50.75599" lon="1.60443">
        <ele>30.3</ele>
        <time>2020-06-22T18:20:26Z</time>
      </trkpt>
      <trkpt lat="50.75605" lon="1.60447">
        <ele>29.9</ele>
        <time>2020-06-22T18:20:27Z</time>
      </trkpt>
      <trkpt lat="50.7561" lon="1.6045">
        <ele>29.5</ele>
        <time>2020-06-22T18:20:28Z</time>
      </trkpt>
      <trkpt lat="50.75616" lon="1.60454">
        <ele>29.2</ele>
        <time>2020-06-22T18:20:29Z</time>
      </trkpt>
      <trkpt lat="50.75623" lon="1.60459">
        <ele>28.8</ele>
        <time>2020-06-22T18:20:30Z</time>
      </trkpt>
      <trkpt lat="50.75629" lon="1.60462">
        <ele>28.4</ele>
        <time>2020-06-22T18:20:31Z</time>
      </trkpt>
      <trkpt lat="50.75635" lon="1.60466">
        <ele>28</ele>
        <time>2020-06-22T18:20:32Z</time>
      </trkpt>
      <trkpt lat="50.75642" lon="1.6047">
        <ele>27.6</ele>
        <time>2020-06-22T18:20:33Z</time>
      </trkpt>
      <trkpt lat="50.75649" lon="1.60474">
        <ele>27.2</ele>
        <time>2020-06-22T18:20:34Z</time>
      </trkpt>
      <trkpt lat="50.75656" lon="1.60479">
        <ele>26.8</ele>
        <time>2020-06-22T18:20:35Z</time>
      </trkpt>
      <trkpt lat="50.75663" lon="1.60484">
        <ele>26.3</ele>
        <time>2020-06-22T18:20:36Z</time>
      </trkpt>
      <trkpt lat="50.75671" lon="1.60489">
        <ele>25.9</ele>
        <time>2020-06-22T18:20:37Z</time>
      </trkpt>
      <trkpt lat="50.75678" lon="1.60493">
        <ele>25.6</ele>
        <time>2020-06-22T18:20:38Z</time>
      </trkpt>
      <trkpt lat="50.75686" lon="1.60498">
        <ele>25.2</ele>
        <time>2020-06-22T18:20:39Z</time>
      </trkpt>
      <trkpt lat="50.75693" lon="1.60503">
        <ele>24.9</ele>
        <time>2020-06-22T18:20:40Z</time>
      </trkpt>
      <trkpt lat="50.75701" lon="1.60508">
        <ele>24.5</ele>
        <time>2020-06-22T18:20:41Z</time>
      </trkpt>
      <trkpt lat="50.75709" lon="1.60513">
        <ele>24.2</ele>
        <time>2020-06-22T18:20:42Z</time>
      </trkpt>
      <trkpt lat="50.75716" lon="1.60517">
        <ele>23.9</ele>
        <time>2020-06-22T18:20:43Z</time>
      </trkpt>
      <trkpt lat="50.75724" lon="1.60522">
        <ele>23.6</ele>
        <time>2020-06-22T18:20:44Z</time>
      </trkpt>
      <trkpt lat="50.75732" lon="1.60527">
        <ele>23.3</ele>
        <time>2020-06-22T18:20:45Z</time>
      </trkpt>
      <trkpt lat="50.7574" lon="1.60532">
        <ele>23</ele>
        <time>2020-06-22T18:20:46Z</time>
      </trkpt>
      <trkpt lat="50.75748" lon="1.60538">
        <ele>22.8</ele>
        <time>2020-06-22T18:20:47Z</time>
      </trkpt>
      <trkpt lat="50.75755" lon="1.60543">
        <ele>22.7</ele>
        <time>2020-06-22T18:20:48Z</time>
      </trkpt>
      <trkpt lat="50.75762" lon="1.60547">
        <ele>22.6</ele>
        <time>2020-06-22T18:20:49Z</time>
      </trkpt>
      <trkpt lat="50.75769" lon="1.60552">
        <ele>22.5</ele>
        <time>2020-06-22T18:20:50Z</time>
      </trkpt>
      <trkpt lat="50.75776" lon="1.60556">
        <ele>22.4</ele>
        <time>2020-06-22T18:20:51Z</time>
      </trkpt>
      <trkpt lat="50.75783" lon="1.6056">
        <ele>22.4</ele>
        <time>2020-06-22T18:20:52Z</time>
      </trkpt>
      <trkpt lat="50.7579" lon="1.60564">
        <ele>22.4</ele>
        <time>2020-06-22T18:20:53Z</time>
      </trkpt>
      <trkpt lat="50.75797" lon="1.60568">
        <ele>22.4</ele>
        <time>2020-06-22T18:20:54Z</time>
      </trkpt>
      <trkpt lat="50.75804" lon="1.60572">
        <ele>22.4</ele>
        <time>2020-06-22T18:20:55Z</time>
      </trkpt>
      <trkpt lat="50.75811" lon="1.60575">
        <ele>22.4</ele>
        <time>2020-06-22T18:20:56Z</time>
      </trkpt>
      <trkpt lat="50.75819" lon="1.60578">
        <ele>22.4</ele>
        <time>2020-06-22T18:20:57Z</time>
      </trkpt>
      <trkpt lat="50.75826" lon="1.60582">
        <ele>22.4</ele>
        <time>2020-06-22T18:20:58Z</time>
      </trkpt>
      <trkpt lat="50.75833" lon="1.60585">
        <ele>22.4</ele>
        <time>2020-06-22T18:20:59Z</time>
      </trkpt>
      <trkpt lat="50.7584" lon="1.60587">
        <ele>22.5</ele>
        <time>2020-06-22T18:21:00Z</time>
      </trkpt>
      <trkpt lat="50.75847" lon="1.60589">
        <ele>22.5</ele>
        <time>2020-06-22T18:21:01Z</time>
      </trkpt>
      <trkpt lat="50.75854" lon="1.60592">
        <ele>22.6</ele>
        <time>2020-06-22T18:21:02Z</time>
      </trkpt>
      <trkpt lat="50.75861" lon="1.60594">
        <ele>22.6</ele>
        <time>2020-06-22T18:21:03Z</time>
      </trkpt>
      <trkpt lat="50.75868" lon="1.60597">
        <ele>22.7</ele>
        <time>2020-06-22T18:21:04Z</time>
      </trkpt>
      <trkpt lat="50.75875" lon="1.606">
        <ele>22.7</ele>
        <time>2020-06-22T18:21:05Z</time>
      </trkpt>
      <trkpt lat="50.75882" lon="1.60602">
        <ele>22.8</ele>
        <time>2020-06-22T18:21:06Z</time>
      </trkpt>
      <trkpt lat="50.75889" lon="1.60605">
        <ele>22.8</ele>
        <time>2020-06-22T18:21:07Z</time>
      </trkpt>
      <trkpt lat="50.75896" lon="1.60607">
        <ele>22.9</ele>
        <time>2020-06-22T18:21:08Z</time>
      </trkpt>
      <trkpt lat="50.75903" lon="1.60608">
        <ele>22.9</ele>
        <time>2020-06-22T18:21:09Z</time>
      </trkpt>
      <trkpt lat="50.7591" lon="1.60609">
        <ele>22.9</ele>
        <time>2020-06-22T18:21:10Z</time>
      </trkpt>
      <trkpt lat="50.75918" lon="1.6061">
        <ele>23</ele>
        <time>2020-06-22T18:21:11Z</time>
      </trkpt>
      <trkpt lat="50.75925" lon="1.6061">
        <ele>23</ele>
        <time>2020-06-22T18:21:12Z</time>
      </trkpt>
      <trkpt lat="50.75932" lon="1.60611">
        <ele>23</ele>
        <time>2020-06-22T18:21:13Z</time>
      </trkpt>
      <trkpt lat="50.75938" lon="1.60611">
        <ele>23</ele>
        <time>2020-06-22T18:21:14Z</time>
      </trkpt>
      <trkpt lat="50.75945" lon="1.60612">
        <ele>23</ele>
        <time>2020-06-22T18:21:15Z</time>
      </trkpt>
      <trkpt lat="50.75951" lon="1.60614">
        <ele>23</ele>
        <time>2020-06-22T18:21:16Z</time>
      </trkpt>
      <trkpt lat="50.75958" lon="1.60614">
        <ele>23</ele>
        <time>2020-06-22T18:21:17Z</time>
      </trkpt>
      <trkpt lat="50.75965" lon="1.60615">
        <ele>23</ele>
        <time>2020-06-22T18:21:18Z</time>
      </trkpt>
      <trkpt lat="50.75971" lon="1.60616">
        <ele>22.9</ele>
        <time>2020-06-22T18:21:19Z</time>
      </trkpt>
      <trkpt lat="50.75978" lon="1.60616">
        <ele>22.9</ele>
        <time>2020-06-22T18:21:20Z</time>
      </trkpt>
      <trkpt lat="50.75985" lon="1.60617">
        <ele>22.9</ele>
        <time>2020-06-22T18:21:21Z</time>
      </trkpt>
      <trkpt lat="50.75992" lon="1.60617">
        <ele>23</ele>
        <time>2020-06-22T18:21:22Z</time>
      </trkpt>
      <trkpt lat="50.75998" lon="1.60617">
        <ele>23</ele>
        <time>2020-06-22T18:21:23Z</time>
      </trkpt>
      <trkpt lat="50.76005" lon="1.60618">
        <ele>23.1</ele>
        <time>2020-06-22T18:21:24Z</time>
      </trkpt>
      <trkpt lat="50.76012" lon="1.60619">
        <ele>23.1</ele>
        <time>2020-06-22T18:21:25Z</time>
      </trkpt>
      <trkpt lat="50.76018" lon="1.60619">
        <ele>23.1</ele>
        <time>2020-06-22T18:21:26Z</time>
      </trkpt>
      <trkpt lat="50.76025" lon="1.60621">
        <ele>23.2</ele>
        <time>2020-06-22T18:21:27Z</time>
      </trkpt>
      <trkpt lat="50.76031" lon="1.60621">
        <ele>23.2</ele>
        <time>2020-06-22T18:21:28Z</time>
      </trkpt>
      <trkpt lat="50.76037" lon="1.60621">
        <ele>23.2</ele>
        <time>2020-06-22T18:21:29Z</time>
      </trkpt>
      <trkpt lat="50.76043" lon="1.60621">
        <ele>23.2</ele>
        <time>2020-06-22T18:21:30Z</time>
      </trkpt>
      <trkpt lat="50.76049" lon="1.60623">
        <ele>23.2</ele>
        <time>2020-06-22T18:21:31Z</time>
      </trkpt>
      <trkpt lat="50.76054" lon="1.60625">
        <ele>23.2</ele>
        <time>2020-06-22T18:21:32Z</time>
      </trkpt>
      <trkpt lat="50.7606" lon="1.60627">
        <ele>23.2</ele>
        <time>2020-06-22T18:21:33Z</time>
      </trkpt>
      <trkpt lat="50.76066" lon="1.60628">
        <ele>23.2</ele>
        <time>2020-06-22T18:21:34Z</time>
      </trkpt>
      <trkpt lat="50.76071" lon="1.60628">
        <ele>23.2</ele>
        <time>2020-06-22T18:21:35Z</time>
      </trkpt>
      <trkpt lat="50.76076" lon="1.6063">
        <ele>23.2</ele>
        <time>2020-06-22T18:21:36Z</time>
      </trkpt>
      <trkpt lat="50.76081" lon="1.60631">
        <ele>23.2</ele>
        <time>2020-06-22T18:21:37Z</time>
      </trkpt>
      <trkpt lat="50.76085" lon="1.60633">
        <ele>23.2</ele>
        <time>2020-06-22T18:21:38Z</time>
      </trkpt>
      <trkpt lat="50.76089" lon="1.60635">
        <ele>23.2</ele>
        <time>2020-06-22T18:21:39Z</time>
      </trkpt>
      <trkpt lat="50.76093" lon="1.60636">
        <ele>23.2</ele>
        <time>2020-06-22T18:21:40Z</time>
      </trkpt>
      <trkpt lat="50.76096" lon="1.60637">
        <ele>23.2</ele>
        <time>2020-06-22T18:21:41Z</time>
      </trkpt>
      <trkpt lat="50.76099" lon="1.60639">
        <ele>23.2</ele>
        <time>2020-06-22T18:21:42Z</time>
      </trkpt>
      <trkpt lat="50.76102" lon="1.60639">
        <ele>23.2</ele>
        <time>2020-06-22T18:21:43Z</time>
      </trkpt>
      <trkpt lat="50.76105" lon="1.6064">
        <ele>23.2</ele>
        <time>2020-06-22T18:21:44Z</time>
      </trkpt>
      <trkpt lat="50.76107" lon="1.60641">
        <ele>23.1</ele>
        <time>2020-06-22T18:21:45Z</time>
      </trkpt>
      <trkpt lat="50.76112" lon="1.6064">
        <ele>23</ele>
        <time>2020-06-22T18:21:46Z</time>
      </trkpt>
      <trkpt lat="50.76113" lon="1.6064">
        <ele>23</ele>
        <time>2020-06-22T18:21:47Z</time>
      </trkpt>
      <trkpt lat="50.76116" lon="1.60637">
        <ele>22.9</ele>
        <time>2020-06-22T18:21:48Z</time>
      </trkpt>
      <trkpt lat="50.7612" lon="1.60636">
        <ele>22.7</ele>
        <time>2020-06-22T18:21:49Z</time>
      </trkpt>
      <trkpt lat="50.76123" lon="1.60637">
        <ele>22.6</ele>
        <time>2020-06-22T18:21:50Z</time>
      </trkpt>
      <trkpt lat="50.76127" lon="1.60638">
        <ele>22.4</ele>
        <time>2020-06-22T18:21:51Z</time>
      </trkpt>
      <trkpt lat="50.76131" lon="1.60641">
        <ele>22.3</ele>
        <time>2020-06-22T18:21:52Z</time>
      </trkpt>
      <trkpt lat="50.76135" lon="1.60642">
        <ele>22.1</ele>
        <time>2020-06-22T18:21:53Z</time>
      </trkpt>
      <trkpt lat="50.76139" lon="1.60645">
        <ele>21.9</ele>
        <time>2020-06-22T18:21:54Z</time>
      </trkpt>
      <trkpt lat="50.76143" lon="1.60648">
        <ele>21.6</ele>
        <time>2020-06-22T18:21:55Z</time>
      </trkpt>
      <trkpt lat="50.76148" lon="1.60652">
        <ele>21.3</ele>
        <time>2020-06-22T18:21:56Z</time>
      </trkpt>
      <trkpt lat="50.76153" lon="1.60656">
        <ele>22.3</ele>
        <time>2020-06-22T18:21:57Z</time>
      </trkpt>
      <trkpt lat="50.76158" lon="1.60662">
        <ele>21.8</ele>
        <time>2020-06-22T18:21:58Z</time>
      </trkpt>
      <trkpt lat="50.76164" lon="1.60667">
        <ele>21.4</ele>
        <time>2020-06-22T18:21:59Z</time>
      </trkpt>
      <trkpt lat="50.76169" lon="1.60671">
        <ele>20.9</ele>
        <time>2020-06-22T18:22:00Z</time>
      </trkpt>
      <trkpt lat="50.76176" lon="1.60675">
        <ele>20.4</ele>
        <time>2020-06-22T18:22:01Z</time>
      </trkpt>
      <trkpt lat="50.76183" lon="1.60678">
        <ele>19.9</ele>
        <time>2020-06-22T18:22:02Z</time>
      </trkpt>
      <trkpt lat="50.7619" lon="1.60681">
        <ele>19.4</ele>
        <time>2020-06-22T18:22:03Z</time>
      </trkpt>
      <trkpt lat="50.76197" lon="1.60684">
        <ele>18.8</ele>
        <time>2020-06-22T18:22:04Z</time>
      </trkpt>
      <trkpt lat="50.76205" lon="1.60689">
        <ele>18.2</ele>
        <time>2020-06-22T18:22:05Z</time>
      </trkpt>
      <trkpt lat="50.76212" lon="1.60692">
        <ele>17.6</ele>
        <time>2020-06-22T18:22:06Z</time>
      </trkpt>
      <trkpt lat="50.7622" lon="1.60697">
        <ele>17</ele>
        <time>2020-06-22T18:22:07Z</time>
      </trkpt>
      <trkpt lat="50.76228" lon="1.607">
        <ele>16.5</ele>
        <time>2020-06-22T18:22:08Z</time>
      </trkpt>
      <trkpt lat="50.76236" lon="1.60704">
        <ele>15.9</ele>
        <time>2020-06-22T18:22:09Z</time>
      </trkpt>
      <trkpt lat="50.76244" lon="1.60708">
        <ele>15.4</ele>
        <time>2020-06-22T18:22:10Z</time>
      </trkpt>
      <trkpt lat="50.76253" lon="1.60712">
        <ele>14.8</ele>
        <time>2020-06-22T18:22:11Z</time>
      </trkpt>
      <trkpt lat="50.76262" lon="1.60716">
        <ele>14.3</ele>
        <time>2020-06-22T18:22:12Z</time>
      </trkpt>
      <trkpt lat="50.7627" lon="1.60721">
        <ele>13.7</ele>
        <time>2020-06-22T18:22:13Z</time>
      </trkpt>
      <trkpt lat="50.76279" lon="1.60724">
        <ele>13.1</ele>
        <time>2020-06-22T18:22:14Z</time>
      </trkpt>
      <trkpt lat="50.76288" lon="1.60728">
        <ele>12.5</ele>
        <time>2020-06-22T18:22:15Z</time>
      </trkpt>
      <trkpt lat="50.76297" lon="1.60731">
        <ele>11.9</ele>
        <time>2020-06-22T18:22:16Z</time>
      </trkpt>
      <trkpt lat="50.76306" lon="1.60735">
        <ele>11.4</ele>
        <time>2020-06-22T18:22:17Z</time>
      </trkpt>
      <trkpt lat="50.76315" lon="1.60739">
        <ele>11</ele>
        <time>2020-06-22T18:22:18Z</time>
      </trkpt>
      <trkpt lat="50.76324" lon="1.60744">
        <ele>10.5</ele>
        <time>2020-06-22T18:22:19Z</time>
      </trkpt>
      <trkpt lat="50.76333" lon="1.60748">
        <ele>10.1</ele>
        <time>2020-06-22T18:22:20Z</time>
      </trkpt>
      <trkpt lat="50.76342" lon="1.60753">
        <ele>9.7</ele>
        <time>2020-06-22T18:22:21Z</time>
      </trkpt>
      <trkpt lat="50.76352" lon="1.60758">
        <ele>9.3</ele>
        <time>2020-06-22T18:22:22Z</time>
      </trkpt>
      <trkpt lat="50.76361" lon="1.60762">
        <ele>9</ele>
        <time>2020-06-22T18:22:23Z</time>
      </trkpt>
      <trkpt lat="50.7637" lon="1.60767">
        <ele>8.6</ele>
        <time>2020-06-22T18:22:24Z</time>
      </trkpt>
      <trkpt lat="50.7638" lon="1.60772">
        <ele>8.6</ele>
        <time>2020-06-22T18:22:25Z</time>
      </trkpt>
      <trkpt lat="50.76388" lon="1.60777">
        <ele>8.5</ele>
        <time>2020-06-22T18:22:26Z</time>
      </trkpt>
      <trkpt lat="50.76397" lon="1.60781">
        <ele>8.5</ele>
        <time>2020-06-22T18:22:27Z</time>
      </trkpt>
      <trkpt lat="50.76406" lon="1.60785">
        <ele>8.5</ele>
        <time>2020-06-22T18:22:28Z</time>
      </trkpt>
      <trkpt lat="50.76414" lon="1.6079">
        <ele>8.5</ele>
        <time>2020-06-22T18:22:29Z</time>
      </trkpt>
      <trkpt lat="50.76422" lon="1.60794">
        <ele>8.6</ele>
        <time>2020-06-22T18:22:30Z</time>
      </trkpt>
      <trkpt lat="50.7643" lon="1.60799">
        <ele>8.8</ele>
        <time>2020-06-22T18:22:31Z</time>
      </trkpt>
      <trkpt lat="50.76438" lon="1.60804">
        <ele>9</ele>
        <time>2020-06-22T18:22:32Z</time>
      </trkpt>
      <trkpt lat="50.76444" lon="1.6081">
        <ele>9.3</ele>
        <time>2020-06-22T18:22:33Z</time>
      </trkpt>
      <trkpt lat="50.7645" lon="1.60816">
        <ele>9.6</ele>
        <time>2020-06-22T18:22:34Z</time>
      </trkpt>
      <trkpt lat="50.76456" lon="1.60822">
        <ele>10</ele>
        <time>2020-06-22T18:22:35Z</time>
      </trkpt>
      <trkpt lat="50.76461" lon="1.60827">
        <ele>9.9</ele>
        <time>2020-06-22T18:22:36Z</time>
      </trkpt>
      <trkpt lat="50.76467" lon="1.60832">
        <ele>9.8</ele>
        <time>2020-06-22T18:22:37Z</time>
      </trkpt>
      <trkpt lat="50.76471" lon="1.60837">
        <ele>9.8</ele>
        <time>2020-06-22T18:22:38Z</time>
      </trkpt>
      <trkpt lat="50.76475" lon="1.60843">
        <ele>9.6</ele>
        <time>2020-06-22T18:22:39Z</time>
      </trkpt>
      <trkpt lat="50.76479" lon="1.60846">
        <ele>9.7</ele>
        <time>2020-06-22T18:22:40Z</time>
      </trkpt>
      <trkpt lat="50.76484" lon="1.60851">
        <ele>9.7</ele>
        <time>2020-06-22T18:22:41Z</time>
      </trkpt>
      <trkpt lat="50.76488" lon="1.60856">
        <ele>9.7</ele>
        <time>2020-06-22T18:22:42Z</time>
      </trkpt>
      <trkpt lat="50.76491" lon="1.60863">
        <ele>9.8</ele>
        <time>2020-06-22T18:22:43Z</time>
      </trkpt>
      <trkpt lat="50.76495" lon="1.60867">
        <ele>9.9</ele>
        <time>2020-06-22T18:22:44Z</time>
      </trkpt>
      <trkpt lat="50.765" lon="1.60872">
        <ele>9.9</ele>
        <time>2020-06-22T18:22:45Z</time>
      </trkpt>
      <trkpt lat="50.76503" lon="1.60878">
        <ele>10</ele>
        <time>2020-06-22T18:22:46Z</time>
      </trkpt>
      <trkpt lat="50.76508" lon="1.60883">
        <ele>10.1</ele>
        <time>2020-06-22T18:22:47Z</time>
      </trkpt>
      <trkpt lat="50.76511" lon="1.60889">
        <ele>10.2</ele>
        <time>2020-06-22T18:22:48Z</time>
      </trkpt>
      <trkpt lat="50.76515" lon="1.60894">
        <ele>10.3</ele>
        <time>2020-06-22T18:22:49Z</time>
      </trkpt>
      <trkpt lat="50.76517" lon="1.60901">
        <ele>10.4</ele>
        <time>2020-06-22T18:22:50Z</time>
      </trkpt>
      <trkpt lat="50.7652" lon="1.60907">
        <ele>11.3</ele>
        <time>2020-06-22T18:22:51Z</time>
      </trkpt>
      <trkpt lat="50.76523" lon="1.60911">
        <ele>11.4</ele>
        <time>2020-06-22T18:22:52Z</time>
      </trkpt>
      <trkpt lat="50.76527" lon="1.60915">
        <ele>11.4</ele>
        <time>2020-06-22T18:22:53Z</time>
      </trkpt>
      <trkpt lat="50.7653" lon="1.6092">
        <ele>11.5</ele>
        <time>2020-06-22T18:22:54Z</time>
      </trkpt>
      <trkpt lat="50.76534" lon="1.60925">
        <ele>11.5</ele>
        <time>2020-06-22T18:22:55Z</time>
      </trkpt>
      <trkpt lat="50.76538" lon="1.6093">
        <ele>11.6</ele>
        <time>2020-06-22T18:22:56Z</time>
      </trkpt>
      <trkpt lat="50.76542" lon="1.60936">
        <ele>11.7</ele>
        <time>2020-06-22T18:22:57Z</time>
      </trkpt>
      <trkpt lat="50.76545" lon="1.60942">
        <ele>11.7</ele>
        <time>2020-06-22T18:22:58Z</time>
      </trkpt>
      <trkpt lat="50.76548" lon="1.60948">
        <ele>11.8</ele>
        <time>2020-06-22T18:22:59Z</time>
      </trkpt>
      <trkpt lat="50.76551" lon="1.60953">
        <ele>11.8</ele>
        <time>2020-06-22T18:23:00Z</time>
      </trkpt>
      <trkpt lat="50.76554" lon="1.60959">
        <ele>11.8</ele>
        <time>2020-06-22T18:23:01Z</time>
      </trkpt>
      <trkpt lat="50.76557" lon="1.60964">
        <ele>11.8</ele>
        <time>2020-06-22T18:23:02Z</time>
      </trkpt>
      <trkpt lat="50.7656" lon="1.60969">
        <ele>11.8</ele>
        <time>2020-06-22T18:23:03Z</time>
      </trkpt>
      <trkpt lat="50.76564" lon="1.60974">
        <ele>11.8</ele>
        <time>2020-06-22T18:23:04Z</time>
      </trkpt>
      <trkpt lat="50.76566" lon="1.6098">
        <ele>11.8</ele>
        <time>2020-06-22T18:23:05Z</time>
      </trkpt>
      <trkpt lat="50.76569" lon="1.60985">
        <ele>11.8</ele>
        <time>2020-06-22T18:23:06Z</time>
      </trkpt>
      <trkpt lat="50.76572" lon="1.60991">
        <ele>11.8</ele>
        <time>2020-06-22T18:23:07Z</time>
      </trkpt>
      <trkpt lat="50.76574" lon="1.60996">
        <ele>11.8</ele>
        <time>2020-06-22T18:23:08Z</time>
      </trkpt>
      <trkpt lat="50.76577" lon="1.61001">
        <ele>11.8</ele>
        <time>2020-06-22T18:23:09Z</time>
      </trkpt>
      <trkpt lat="50.7658" lon="1.61006">
        <ele>11.8</ele>
        <time>2020-06-22T18:23:10Z</time>
      </trkpt>
      <trkpt lat="50.76584" lon="1.61011">
        <ele>11.8</ele>
        <time>2020-06-22T18:23:11Z</time>
      </trkpt>
      <trkpt lat="50.76588" lon="1.61016">
        <ele>11.8</ele>
        <time>2020-06-22T18:23:12Z</time>
      </trkpt>
      <trkpt lat="50.76592" lon="1.6102">
        <ele>11.8</ele>
        <time>2020-06-22T18:23:13Z</time>
      </trkpt>
      <trkpt lat="50.76595" lon="1.61023">
        <ele>11.8</ele>
        <time>2020-06-22T18:23:14Z</time>
      </trkpt>
      <trkpt lat="50.76598" lon="1.61026">
        <ele>11.8</ele>
        <time>2020-06-22T18:23:15Z</time>
      </trkpt>
      <trkpt lat="50.76602" lon="1.61029">
        <ele>11.8</ele>
        <time>2020-06-22T18:23:16Z</time>
      </trkpt>
      <trkpt lat="50.76606" lon="1.61031">
        <ele>11.8</ele>
        <time>2020-06-22T18:23:17Z</time>
      </trkpt>
      <trkpt lat="50.76609" lon="1.61034">
        <ele>11.7</ele>
        <time>2020-06-22T18:23:18Z</time>
      </trkpt>
      <trkpt lat="50.76612" lon="1.61036">
        <ele>11.7</ele>
        <time>2020-06-22T18:23:19Z</time>
      </trkpt>
      <trkpt lat="50.76615" lon="1.61039">
        <ele>11.7</ele>
        <time>2020-06-22T18:23:20Z</time>
      </trkpt>
      <trkpt lat="50.76617" lon="1.61042">
        <ele>11.7</ele>
        <time>2020-06-22T18:23:21Z</time>
      </trkpt>
      <trkpt lat="50.7662" lon="1.61045">
        <ele>11.7</ele>
        <time>2020-06-22T18:23:22Z</time>
      </trkpt>
      <trkpt lat="50.76621" lon="1.61046">
        <ele>11.7</ele>
        <time>2020-06-22T18:23:23Z</time>
      </trkpt>
      <trkpt lat="50.76624" lon="1.6105">
        <ele>11.7</ele>
        <time>2020-06-22T18:23:24Z</time>
      </trkpt>
      <trkpt lat="50.76624" lon="1.61051">
        <ele>11.7</ele>
        <time>2020-06-22T18:23:25Z</time>
      </trkpt>
      <trkpt lat="50.76625" lon="1.61053">
        <ele>11.7</ele>
        <time>2020-06-22T18:23:26Z</time>
      </trkpt>
      <trkpt lat="50.76626" lon="1.61055">
        <ele>11.7</ele>
        <time>2020-06-22T18:23:27Z</time>
      </trkpt>
      <trkpt lat="50.76628" lon="1.6106">
        <ele>11.7</ele>
        <time>2020-06-22T18:23:28Z</time>
      </trkpt>
      <trkpt lat="50.76627" lon="1.61062">
        <ele>11.7</ele>
        <time>2020-06-22T18:23:29Z</time>
      </trkpt>
      <trkpt lat="50.76626" lon="1.61066">
        <ele>11.7</ele>
        <time>2020-06-22T18:23:30Z</time>
      </trkpt>
      <trkpt lat="50.76625" lon="1.61072">
        <ele>11.7</ele>
        <time>2020-06-22T18:23:31Z</time>
      </trkpt>
      <trkpt lat="50.76625" lon="1.61073">
        <ele>11.7</ele>
        <time>2020-06-22T18:23:32Z</time>
      </trkpt>
      <trkpt lat="50.76626" lon="1.61075">
        <ele>11.7</ele>
        <time>2020-06-22T18:23:33Z</time>
      </trkpt>
      <trkpt lat="50.76627" lon="1.61077">
        <ele>11.6</ele>
        <time>2020-06-22T18:23:34Z</time>
      </trkpt>
      <trkpt lat="50.76629" lon="1.6108">
        <ele>11.6</ele>
        <time>2020-06-22T18:23:35Z</time>
      </trkpt>
      <trkpt lat="50.7663" lon="1.6108">
        <ele>11.6</ele>
        <time>2020-06-22T18:23:36Z</time>
      </trkpt>
      <trkpt lat="50.76633" lon="1.61084">
        <ele>11.5</ele>
        <time>2020-06-22T18:23:37Z</time>
      </trkpt>
      <trkpt lat="50.76634" lon="1.61086">
        <ele>11.5</ele>
        <time>2020-06-22T18:23:38Z</time>
      </trkpt>
      <trkpt lat="50.76637" lon="1.61089">
        <ele>11.4</ele>
        <time>2020-06-22T18:23:39Z</time>
      </trkpt>
      <trkpt lat="50.76639" lon="1.61092">
        <ele>11.3</ele>
        <time>2020-06-22T18:23:40Z</time>
      </trkpt>
      <trkpt lat="50.76642" lon="1.61094">
        <ele>11.2</ele>
        <time>2020-06-22T18:23:41Z</time>
      </trkpt>
      <trkpt lat="50.76645" lon="1.61096">
        <ele>11.1</ele>
        <time>2020-06-22T18:23:42Z</time>
      </trkpt>
      <trkpt lat="50.76648" lon="1.61097">
        <ele>11</ele>
        <time>2020-06-22T18:23:43Z</time>
      </trkpt>
      <trkpt lat="50.76652" lon="1.61099">
        <ele>10.8</ele>
        <time>2020-06-22T18:23:44Z</time>
      </trkpt>
      <trkpt lat="50.76655" lon="1.61098">
        <ele>10.7</ele>
        <time>2020-06-22T18:23:45Z</time>
      </trkpt>
      <trkpt lat="50.76658" lon="1.611">
        <ele>10.5</ele>
        <time>2020-06-22T18:23:46Z</time>
      </trkpt>
      <trkpt lat="50.76661" lon="1.61101">
        <ele>10.4</ele>
        <time>2020-06-22T18:23:47Z</time>
      </trkpt>
      <trkpt lat="50.76663" lon="1.61104">
        <ele>10.2</ele>
        <time>2020-06-22T18:23:48Z</time>
      </trkpt>
      <trkpt lat="50.76666" lon="1.61107">
        <ele>10</ele>
        <time>2020-06-22T18:23:49Z</time>
      </trkpt>
      <trkpt lat="50.76669" lon="1.61113">
        <ele>9.9</ele>
        <time>2020-06-22T18:23:50Z</time>
      </trkpt>
      <trkpt lat="50.76671" lon="1.61114">
        <ele>9.8</ele>
        <time>2020-06-22T18:23:51Z</time>
      </trkpt>
      <trkpt lat="50.76675" lon="1.61116">
        <ele>9.8</ele>
        <time>2020-06-22T18:23:52Z</time>
      </trkpt>
      <trkpt lat="50.76678" lon="1.61121">
        <ele>9.6</ele>
        <time>2020-06-22T18:23:53Z</time>
      </trkpt>
      <trkpt lat="50.76683" lon="1.61124">
        <ele>9.5</ele>
        <time>2020-06-22T18:23:54Z</time>
      </trkpt>
      <trkpt lat="50.76688" lon="1.61127">
        <ele>9.3</ele>
        <time>2020-06-22T18:23:55Z</time>
      </trkpt>
      <trkpt lat="50.76692" lon="1.61131">
        <ele>9.1</ele>
        <time>2020-06-22T18:23:56Z</time>
      </trkpt>
      <trkpt lat="50.76697" lon="1.61134">
        <ele>9</ele>
        <time>2020-06-22T18:23:57Z</time>
      </trkpt>
      <trkpt lat="50.76701" lon="1.61138">
        <ele>8.9</ele>
        <time>2020-06-22T18:23:58Z</time>
      </trkpt>
      <trkpt lat="50.76706" lon="1.61139">
        <ele>8.9</ele>
        <time>2020-06-22T18:23:59Z</time>
      </trkpt>
      <trkpt lat="50.76711" lon="1.6114">
        <ele>8.8</ele>
        <time>2020-06-22T18:24:00Z</time>
      </trkpt>
      <trkpt lat="50.76716" lon="1.6114">
        <ele>8.6</ele>
        <time>2020-06-22T18:24:01Z</time>
      </trkpt>
      <trkpt lat="50.76721" lon="1.61142">
        <ele>8.5</ele>
        <time>2020-06-22T18:24:02Z</time>
      </trkpt>
      <trkpt lat="50.76727" lon="1.61143">
        <ele>8.3</ele>
        <time>2020-06-22T18:24:03Z</time>
      </trkpt>
      <trkpt lat="50.76732" lon="1.61144">
        <ele>8.2</ele>
        <time>2020-06-22T18:24:04Z</time>
      </trkpt>
      <trkpt lat="50.76737" lon="1.61144">
        <ele>8</ele>
        <time>2020-06-22T18:24:05Z</time>
      </trkpt>
      <trkpt lat="50.76743" lon="1.61144">
        <ele>7.9</ele>
        <time>2020-06-22T18:24:06Z</time>
      </trkpt>
      <trkpt lat="50.76748" lon="1.61144">
        <ele>7.7</ele>
        <time>2020-06-22T18:24:07Z</time>
      </trkpt>
      <trkpt lat="50.76754" lon="1.61143">
        <ele>7.7</ele>
        <time>2020-06-22T18:24:08Z</time>
      </trkpt>
      <trkpt lat="50.76759" lon="1.61142">
        <ele>7.7</ele>
        <time>2020-06-22T18:24:09Z</time>
      </trkpt>
      <trkpt lat="50.76765" lon="1.61141">
        <ele>7.7</ele>
        <time>2020-06-22T18:24:10Z</time>
      </trkpt>
      <trkpt lat="50.76771" lon="1.61141">
        <ele>7.7</ele>
        <time>2020-06-22T18:24:11Z</time>
      </trkpt>
      <trkpt lat="50.76777" lon="1.61142">
        <ele>7.8</ele>
        <time>2020-06-22T18:24:12Z</time>
      </trkpt>
      <trkpt lat="50.76782" lon="1.61143">
        <ele>7.8</ele>
        <time>2020-06-22T18:24:13Z</time>
      </trkpt>
      <trkpt lat="50.76787" lon="1.61144">
        <ele>7.8</ele>
        <time>2020-06-22T18:24:14Z</time>
      </trkpt>
      <trkpt lat="50.76792" lon="1.61144">
        <ele>7.9</ele>
        <time>2020-06-22T18:24:15Z</time>
      </trkpt>
      <trkpt lat="50.76797" lon="1.61144">
        <ele>7.9</ele>
        <time>2020-06-22T18:24:16Z</time>
      </trkpt>
      <trkpt lat="50.76802" lon="1.61144">
        <ele>7.9</ele>
        <time>2020-06-22T18:24:17Z</time>
      </trkpt>
      <trkpt lat="50.76806" lon="1.61143">
        <ele>8</ele>
        <time>2020-06-22T18:24:18Z</time>
      </trkpt>
      <trkpt lat="50.76811" lon="1.61144">
        <ele>8</ele>
        <time>2020-06-22T18:24:19Z</time>
      </trkpt>
      <trkpt lat="50.76815" lon="1.61144">
        <ele>8</ele>
        <time>2020-06-22T18:24:20Z</time>
      </trkpt>
      <trkpt lat="50.7682" lon="1.61145">
        <ele>8</ele>
        <time>2020-06-22T18:24:21Z</time>
      </trkpt>
      <trkpt lat="50.76824" lon="1.61144">
        <ele>8</ele>
        <time>2020-06-22T18:24:22Z</time>
      </trkpt>
      <trkpt lat="50.76829" lon="1.61144">
        <ele>8</ele>
        <time>2020-06-22T18:24:23Z</time>
      </trkpt>
      <trkpt lat="50.76833" lon="1.61143">
        <ele>8</ele>
        <time>2020-06-22T18:24:24Z</time>
      </trkpt>
      <trkpt lat="50.76838" lon="1.61143">
        <ele>8</ele>
        <time>2020-06-22T18:24:25Z</time>
      </trkpt>
      <trkpt lat="50.76842" lon="1.61144">
        <ele>8.1</ele>
        <time>2020-06-22T18:24:26Z</time>
      </trkpt>
      <trkpt lat="50.76846" lon="1.61144">
        <ele>8.1</ele>
        <time>2020-06-22T18:24:27Z</time>
      </trkpt>
      <trkpt lat="50.7685" lon="1.61144">
        <ele>8.1</ele>
        <time>2020-06-22T18:24:28Z</time>
      </trkpt>
      <trkpt lat="50.76854" lon="1.61144">
        <ele>8.1</ele>
        <time>2020-06-22T18:24:29Z</time>
      </trkpt>
      <trkpt lat="50.76859" lon="1.61143">
        <ele>8.1</ele>
        <time>2020-06-22T18:24:30Z</time>
      </trkpt>
      <trkpt lat="50.76863" lon="1.61144">
        <ele>8.1</ele>
        <time>2020-06-22T18:24:31Z</time>
      </trkpt>
      <trkpt lat="50.76868" lon="1.61144">
        <ele>8.2</ele>
        <time>2020-06-22T18:24:32Z</time>
      </trkpt>
      <trkpt lat="50.76872" lon="1.61145">
        <ele>8.2</ele>
        <time>2020-06-22T18:24:33Z</time>
      </trkpt>
      <trkpt lat="50.76877" lon="1.61145">
        <ele>8.2</ele>
        <time>2020-06-22T18:24:34Z</time>
      </trkpt>
      <trkpt lat="50.76881" lon="1.61147">
        <ele>8.2</ele>
        <time>2020-06-22T18:24:35Z</time>
      </trkpt>
      <trkpt lat="50.76885" lon="1.61151">
        <ele>8.2</ele>
        <time>2020-06-22T18:24:36Z</time>
      </trkpt>
      <trkpt lat="50.7689" lon="1.61153">
        <ele>8.2</ele>
        <time>2020-06-22T18:24:37Z</time>
      </trkpt>
      <trkpt lat="50.76894" lon="1.61153">
        <ele>8.2</ele>
        <time>2020-06-22T18:24:38Z</time>
      </trkpt>
      <trkpt lat="50.76898" lon="1.61156">
        <ele>8.2</ele>
        <time>2020-06-22T18:24:39Z</time>
      </trkpt>
      <trkpt lat="50.76902" lon="1.61156">
        <ele>8.2</ele>
        <time>2020-06-22T18:24:40Z</time>
      </trkpt>
      <trkpt lat="50.76906" lon="1.61155">
        <ele>8.2</ele>
        <time>2020-06-22T18:24:41Z</time>
      </trkpt>
      <trkpt lat="50.7691" lon="1.61154">
        <ele>8.1</ele>
        <time>2020-06-22T18:24:42Z</time>
      </trkpt>
      <trkpt lat="50.76914" lon="1.61153">
        <ele>8.1</ele>
        <time>2020-06-22T18:24:43Z</time>
      </trkpt>
      <trkpt lat="50.76919" lon="1.61154">
        <ele>8</ele>
        <time>2020-06-22T18:24:44Z</time>
      </trkpt>
      <trkpt lat="50.76923" lon="1.61155">
        <ele>8</ele>
        <time>2020-06-22T18:24:45Z</time>
      </trkpt>
      <trkpt lat="50.76927" lon="1.61154">
        <ele>7.9</ele>
        <time>2020-06-22T18:24:46Z</time>
      </trkpt>
      <trkpt lat="50.76931" lon="1.61156">
        <ele>7.8</ele>
        <time>2020-06-22T18:24:47Z</time>
      </trkpt>
      <trkpt lat="50.76935" lon="1.61154">
        <ele>7.8</ele>
        <time>2020-06-22T18:24:48Z</time>
      </trkpt>
      <trkpt lat="50.7694" lon="1.61152">
        <ele>7.7</ele>
        <time>2020-06-22T18:24:49Z</time>
      </trkpt>
      <trkpt lat="50.76944" lon="1.61151">
        <ele>7.7</ele>
        <time>2020-06-22T18:24:50Z</time>
      </trkpt>
      <trkpt lat="50.76948" lon="1.61152">
        <ele>7.7</ele>
        <time>2020-06-22T18:24:51Z</time>
      </trkpt>
      <trkpt lat="50.76952" lon="1.61153">
        <ele>7.6</ele>
        <time>2020-06-22T18:24:52Z</time>
      </trkpt>
      <trkpt lat="50.76955" lon="1.61161">
        <ele>7.6</ele>
        <time>2020-06-22T18:24:53Z</time>
      </trkpt>
      <trkpt lat="50.76958" lon="1.61165">
        <ele>7.5</ele>
        <time>2020-06-22T18:24:54Z</time>
      </trkpt>
      <trkpt lat="50.76962" lon="1.61165">
        <ele>7.5</ele>
        <time>2020-06-22T18:24:55Z</time>
      </trkpt>
      <trkpt lat="50.76966" lon="1.61166">
        <ele>7.5</ele>
        <time>2020-06-22T18:24:56Z</time>
      </trkpt>
      <trkpt lat="50.76969" lon="1.61168">
        <ele>7.5</ele>
        <time>2020-06-22T18:24:57Z</time>
      </trkpt>
      <trkpt lat="50.76973" lon="1.61171">
        <ele>7.4</ele>
        <time>2020-06-22T18:24:58Z</time>
      </trkpt>
      <trkpt lat="50.76977" lon="1.61173">
        <ele>7.4</ele>
        <time>2020-06-22T18:24:59Z</time>
      </trkpt>
      <trkpt lat="50.7698" lon="1.61175">
        <ele>7.4</ele>
        <time>2020-06-22T18:25:00Z</time>
      </trkpt>
      <trkpt lat="50.76984" lon="1.61176">
        <ele>7.3</ele>
        <time>2020-06-22T18:25:01Z</time>
      </trkpt>
      <trkpt lat="50.76988" lon="1.61176">
        <ele>7.4</ele>
        <time>2020-06-22T18:25:02Z</time>
      </trkpt>
      <trkpt lat="50.76992" lon="1.61176">
        <ele>7.4</ele>
        <time>2020-06-22T18:25:03Z</time>
      </trkpt>
      <trkpt lat="50.76995" lon="1.61177">
        <ele>7.5</ele>
        <time>2020-06-22T18:25:04Z</time>
      </trkpt>
      <trkpt lat="50.76999" lon="1.61178">
        <ele>7.5</ele>
        <time>2020-06-22T18:25:05Z</time>
      </trkpt>
      <trkpt lat="50.77002" lon="1.61177">
        <ele>7.5</ele>
        <time>2020-06-22T18:25:06Z</time>
      </trkpt>
      <trkpt lat="50.77006" lon="1.61176">
        <ele>7.6</ele>
        <time>2020-06-22T18:25:07Z</time>
      </trkpt>
      <trkpt lat="50.7701" lon="1.61175">
        <ele>7.7</ele>
        <time>2020-06-22T18:25:08Z</time>
      </trkpt>
      <trkpt lat="50.77013" lon="1.61174">
        <ele>7.7</ele>
        <time>2020-06-22T18:25:09Z</time>
      </trkpt>
      <trkpt lat="50.77016" lon="1.61174">
        <ele>7.7</ele>
        <time>2020-06-22T18:25:10Z</time>
      </trkpt>
      <trkpt lat="50.7702" lon="1.61174">
        <ele>7.7</ele>
        <time>2020-06-22T18:25:11Z</time>
      </trkpt>
      <trkpt lat="50.77023" lon="1.61173">
        <ele>7.7</ele>
        <time>2020-06-22T18:25:12Z</time>
      </trkpt>
      <trkpt lat="50.77026" lon="1.61173">
        <ele>7.7</ele>
        <time>2020-06-22T18:25:13Z</time>
      </trkpt>
      <trkpt lat="50.77029" lon="1.61173">
        <ele>7.7</ele>
        <time>2020-06-22T18:25:14Z</time>
      </trkpt>
      <trkpt lat="50.77033" lon="1.61174">
        <ele>7.7</ele>
        <time>2020-06-22T18:25:15Z</time>
      </trkpt>
      <trkpt lat="50.77036" lon="1.61176">
        <ele>7.7</ele>
        <time>2020-06-22T18:25:16Z</time>
      </trkpt>
      <trkpt lat="50.7704" lon="1.61178">
        <ele>7.7</ele>
        <time>2020-06-22T18:25:17Z</time>
      </trkpt>
      <trkpt lat="50.77044" lon="1.61178">
        <ele>7.7</ele>
        <time>2020-06-22T18:25:18Z</time>
      </trkpt>
      <trkpt lat="50.77048" lon="1.61178">
        <ele>7.7</ele>
        <time>2020-06-22T18:25:19Z</time>
      </trkpt>
      <trkpt lat="50.77052" lon="1.61179">
        <ele>7.8</ele>
        <time>2020-06-22T18:25:20Z</time>
      </trkpt>
      <trkpt lat="50.77055" lon="1.6118">
        <ele>7.9</ele>
        <time>2020-06-22T18:25:21Z</time>
      </trkpt>
      <trkpt lat="50.77058" lon="1.61181">
        <ele>8</ele>
        <time>2020-06-22T18:25:22Z</time>
      </trkpt>
      <trkpt lat="50.77061" lon="1.61182">
        <ele>8.1</ele>
        <time>2020-06-22T18:25:23Z</time>
      </trkpt>
      <trkpt lat="50.77064" lon="1.61183">
        <ele>8.2</ele>
        <time>2020-06-22T18:25:24Z</time>
      </trkpt>
      <trkpt lat="50.77067" lon="1.61186">
        <ele>8.3</ele>
        <time>2020-06-22T18:25:25Z</time>
      </trkpt>
      <trkpt lat="50.7707" lon="1.61188">
        <ele>8.4</ele>
        <time>2020-06-22T18:25:26Z</time>
      </trkpt>
      <trkpt lat="50.77073" lon="1.61188">
        <ele>8.5</ele>
        <time>2020-06-22T18:25:27Z</time>
      </trkpt>
      <trkpt lat="50.77077" lon="1.61189">
        <ele>8.6</ele>
        <time>2020-06-22T18:25:28Z</time>
      </trkpt>
      <trkpt lat="50.7708" lon="1.61189">
        <ele>8.8</ele>
        <time>2020-06-22T18:25:29Z</time>
      </trkpt>
      <trkpt lat="50.77083" lon="1.6119">
        <ele>9</ele>
        <time>2020-06-22T18:25:30Z</time>
      </trkpt>
      <trkpt lat="50.77086" lon="1.6119">
        <ele>9.1</ele>
        <time>2020-06-22T18:25:31Z</time>
      </trkpt>
      <trkpt lat="50.77089" lon="1.61192">
        <ele>9.3</ele>
        <time>2020-06-22T18:25:32Z</time>
      </trkpt>
      <trkpt lat="50.77093" lon="1.61192">
        <ele>9.5</ele>
        <time>2020-06-22T18:25:33Z</time>
      </trkpt>
      <trkpt lat="50.77096" lon="1.61193">
        <ele>9.7</ele>
        <time>2020-06-22T18:25:34Z</time>
      </trkpt>
      <trkpt lat="50.771" lon="1.61194">
        <ele>9.9</ele>
        <time>2020-06-22T18:25:35Z</time>
      </trkpt>
      <trkpt lat="50.77103" lon="1.61196">
        <ele>10.1</ele>
        <time>2020-06-22T18:25:36Z</time>
      </trkpt>
      <trkpt lat="50.77107" lon="1.61197">
        <ele>10.4</ele>
        <time>2020-06-22T18:25:37Z</time>
      </trkpt>
      <trkpt lat="50.77111" lon="1.61199">
        <ele>10.6</ele>
        <time>2020-06-22T18:25:38Z</time>
      </trkpt>
      <trkpt lat="50.77115" lon="1.61201">
        <ele>10.9</ele>
        <time>2020-06-22T18:25:39Z</time>
      </trkpt>
      <trkpt lat="50.77119" lon="1.61203">
        <ele>11.2</ele>
        <time>2020-06-22T18:25:40Z</time>
      </trkpt>
      <trkpt lat="50.77123" lon="1.61205">
        <ele>11.4</ele>
        <time>2020-06-22T18:25:41Z</time>
      </trkpt>
      <trkpt lat="50.77126" lon="1.61206">
        <ele>11.7</ele>
        <time>2020-06-22T18:25:42Z</time>
      </trkpt>
      <trkpt lat="50.7713" lon="1.61206">
        <ele>11.8</ele>
        <time>2020-06-22T18:25:43Z</time>
      </trkpt>
      <trkpt lat="50.77133" lon="1.61207">
        <ele>12.1</ele>
        <time>2020-06-22T18:25:44Z</time>
      </trkpt>
      <trkpt lat="50.77139" lon="1.6121">
        <ele>12.4</ele>
        <time>2020-06-22T18:25:45Z</time>
      </trkpt>
      <trkpt lat="50.77144" lon="1.61213">
        <ele>12.7</ele>
        <time>2020-06-22T18:25:46Z</time>
      </trkpt>
      <trkpt lat="50.77146" lon="1.61214">
        <ele>12.9</ele>
        <time>2020-06-22T18:25:47Z</time>
      </trkpt>
      <trkpt lat="50.77149" lon="1.61216">
        <ele>13.1</ele>
        <time>2020-06-22T18:25:48Z</time>
      </trkpt>
      <trkpt lat="50.77153" lon="1.61219">
        <ele>13.3</ele>
        <time>2020-06-22T18:25:49Z</time>
      </trkpt>
      <trkpt lat="50.77155" lon="1.6122">
        <ele>13.5</ele>
        <time>2020-06-22T18:25:50Z</time>
      </trkpt>
      <trkpt lat="50.77158" lon="1.61222">
        <ele>13.7</ele>
        <time>2020-06-22T18:25:51Z</time>
      </trkpt>
      <trkpt lat="50.77162" lon="1.61224">
        <ele>13.9</ele>
        <time>2020-06-22T18:25:52Z</time>
      </trkpt>
      <trkpt lat="50.77165" lon="1.61225">
        <ele>14.2</ele>
        <time>2020-06-22T18:25:53Z</time>
      </trkpt>
      <trkpt lat="50.77169" lon="1.61226">
        <ele>14.4</ele>
        <time>2020-06-22T18:25:54Z</time>
      </trkpt>
      <trkpt lat="50.77173" lon="1.61227">
        <ele>14.6</ele>
        <time>2020-06-22T18:25:55Z</time>
      </trkpt>
      <trkpt lat="50.77176" lon="1.61227">
        <ele>14.9</ele>
        <time>2020-06-22T18:25:56Z</time>
      </trkpt>
      <trkpt lat="50.77179" lon="1.61227">
        <ele>15</ele>
        <time>2020-06-22T18:25:57Z</time>
      </trkpt>
      <trkpt lat="50.77182" lon="1.61226">
        <ele>15.1</ele>
        <time>2020-06-22T18:25:58Z</time>
      </trkpt>
      <trkpt lat="50.77186" lon="1.61225">
        <ele>15.2</ele>
        <time>2020-06-22T18:25:59Z</time>
      </trkpt>
      <trkpt lat="50.77189" lon="1.61223">
        <ele>15.3</ele>
        <time>2020-06-22T18:26:00Z</time>
      </trkpt>
      <trkpt lat="50.77192" lon="1.61223">
        <ele>15.4</ele>
        <time>2020-06-22T18:26:01Z</time>
      </trkpt>
      <trkpt lat="50.77194" lon="1.61223">
        <ele>15.4</ele>
        <time>2020-06-22T18:26:02Z</time>
      </trkpt>
      <trkpt lat="50.77197" lon="1.61221">
        <ele>15.6</ele>
        <time>2020-06-22T18:26:03Z</time>
      </trkpt>
      <trkpt lat="50.77201" lon="1.61219">
        <ele>15.6</ele>
        <time>2020-06-22T18:26:04Z</time>
      </trkpt>
      <trkpt lat="50.77206" lon="1.61215">
        <ele>15.7</ele>
        <time>2020-06-22T18:26:05Z</time>
      </trkpt>
      <trkpt lat="50.7721" lon="1.61211">
        <ele>15.8</ele>
        <time>2020-06-22T18:26:06Z</time>
      </trkpt>
      <trkpt lat="50.77213" lon="1.61208">
        <ele>15.9</ele>
        <time>2020-06-22T18:26:07Z</time>
      </trkpt>
      <trkpt lat="50.77217" lon="1.61204">
        <ele>16.1</ele>
        <time>2020-06-22T18:26:08Z</time>
      </trkpt>
      <trkpt lat="50.7722" lon="1.61201">
        <ele>16.2</ele>
        <time>2020-06-22T18:26:09Z</time>
      </trkpt>
      <trkpt lat="50.77224" lon="1.61198">
        <ele>16.4</ele>
        <time>2020-06-22T18:26:10Z</time>
      </trkpt>
      <trkpt lat="50.77227" lon="1.61196">
        <ele>16.5</ele>
        <time>2020-06-22T18:26:11Z</time>
      </trkpt>
      <trkpt lat="50.7723" lon="1.61193">
        <ele>16.7</ele>
        <time>2020-06-22T18:26:12Z</time>
      </trkpt>
      <trkpt lat="50.77234" lon="1.6119">
        <ele>16.9</ele>
        <time>2020-06-22T18:26:13Z</time>
      </trkpt>
      <trkpt lat="50.77238" lon="1.61186">
        <ele>17.2</ele>
        <time>2020-06-22T18:26:14Z</time>
      </trkpt>
      <trkpt lat="50.77241" lon="1.61183">
        <ele>17.4</ele>
        <time>2020-06-22T18:26:15Z</time>
      </trkpt>
      <trkpt lat="50.77244" lon="1.6118">
        <ele>17.6</ele>
        <time>2020-06-22T18:26:16Z</time>
      </trkpt>
      <trkpt lat="50.77247" lon="1.61178">
        <ele>17.7</ele>
        <time>2020-06-22T18:26:17Z</time>
      </trkpt>
      <trkpt lat="50.77249" lon="1.61176">
        <ele>17.9</ele>
        <time>2020-06-22T18:26:18Z</time>
      </trkpt>
      <trkpt lat="50.77252" lon="1.61174">
        <ele>18.1</ele>
        <time>2020-06-22T18:26:19Z</time>
      </trkpt>
      <trkpt lat="50.77255" lon="1.61172">
        <ele>18.3</ele>
        <time>2020-06-22T18:26:20Z</time>
      </trkpt>
      <trkpt lat="50.77258" lon="1.6117">
        <ele>18.5</ele>
        <time>2020-06-22T18:26:21Z</time>
      </trkpt>
      <trkpt lat="50.77261" lon="1.6117">
        <ele>18.6</ele>
        <time>2020-06-22T18:26:22Z</time>
      </trkpt>
      <trkpt lat="50.77264" lon="1.61169">
        <ele>18.8</ele>
        <time>2020-06-22T18:26:23Z</time>
      </trkpt>
      <trkpt lat="50.77268" lon="1.61167">
        <ele>19.1</ele>
        <time>2020-06-22T18:26:24Z</time>
      </trkpt>
      <trkpt lat="50.77273" lon="1.61166">
        <ele>19.4</ele>
        <time>2020-06-22T18:26:25Z</time>
      </trkpt>
      <trkpt lat="50.77277" lon="1.61164">
        <ele>19.6</ele>
        <time>2020-06-22T18:26:26Z</time>
      </trkpt>
      <trkpt lat="50.7728" lon="1.61163">
        <ele>19.7</ele>
        <time>2020-06-22T18:26:27Z</time>
      </trkpt>
      <trkpt lat="50.77284" lon="1.61162">
        <ele>19.9</ele>
        <time>2020-06-22T18:26:28Z</time>
      </trkpt>
      <trkpt lat="50.77288" lon="1.61162">
        <ele>20.1</ele>
        <time>2020-06-22T18:26:29Z</time>
      </trkpt>
      <trkpt lat="50.77291" lon="1.61162">
        <ele>20.3</ele>
        <time>2020-06-22T18:26:30Z</time>
      </trkpt>
      <trkpt lat="50.77294" lon="1.61163">
        <ele>20.4</ele>
        <time>2020-06-22T18:26:31Z</time>
      </trkpt>
      <trkpt lat="50.77297" lon="1.61164">
        <ele>20.6</ele>
        <time>2020-06-22T18:26:32Z</time>
      </trkpt>
      <trkpt lat="50.77301" lon="1.61167">
        <ele>20.7</ele>
        <time>2020-06-22T18:26:33Z</time>
      </trkpt>
      <trkpt lat="50.77304" lon="1.61169">
        <ele>20.9</ele>
        <time>2020-06-22T18:26:34Z</time>
      </trkpt>
      <trkpt lat="50.77307" lon="1.61173">
        <ele>21.1</ele>
        <time>2020-06-22T18:26:35Z</time>
      </trkpt>
      <trkpt lat="50.77309" lon="1.61176">
        <ele>21.2</ele>
        <time>2020-06-22T18:26:36Z</time>
      </trkpt>
      <trkpt lat="50.77313" lon="1.61179">
        <ele>21.4</ele>
        <time>2020-06-22T18:26:37Z</time>
      </trkpt>
      <trkpt lat="50.77315" lon="1.61183">
        <ele>21.6</ele>
        <time>2020-06-22T18:26:38Z</time>
      </trkpt>
      <trkpt lat="50.77318" lon="1.61185">
        <ele>21.7</ele>
        <time>2020-06-22T18:26:39Z</time>
      </trkpt>
      <trkpt lat="50.77319" lon="1.61191">
        <ele>21.9</ele>
        <time>2020-06-22T18:26:40Z</time>
      </trkpt>
      <trkpt lat="50.77319" lon="1.61194">
        <ele>22</ele>
        <time>2020-06-22T18:26:41Z</time>
      </trkpt>
      <trkpt lat="50.77322" lon="1.61198">
        <ele>22.1</ele>
        <time>2020-06-22T18:26:42Z</time>
      </trkpt>
      <trkpt lat="50.77324" lon="1.61201">
        <ele>22.3</ele>
        <time>2020-06-22T18:26:43Z</time>
      </trkpt>
      <trkpt lat="50.77327" lon="1.61206">
        <ele>22.5</ele>
        <time>2020-06-22T18:26:44Z</time>
      </trkpt>
      <trkpt lat="50.77328" lon="1.6121">
        <ele>22.7</ele>
        <time>2020-06-22T18:26:45Z</time>
      </trkpt>
      <trkpt lat="50.77331" lon="1.61213">
        <ele>22.8</ele>
        <time>2020-06-22T18:26:46Z</time>
      </trkpt>
      <trkpt lat="50.77333" lon="1.61216">
        <ele>23</ele>
        <time>2020-06-22T18:26:47Z</time>
      </trkpt>
      <trkpt lat="50.77335" lon="1.6122">
        <ele>23.2</ele>
        <time>2020-06-22T18:26:48Z</time>
      </trkpt>
      <trkpt lat="50.77338" lon="1.61224">
        <ele>23.4</ele>
        <time>2020-06-22T18:26:49Z</time>
      </trkpt>
      <trkpt lat="50.77342" lon="1.61227">
        <ele>23.6</ele>
        <time>2020-06-22T18:26:50Z</time>
      </trkpt>
      <trkpt lat="50.77343" lon="1.61229">
        <ele>23.7</ele>
        <time>2020-06-22T18:26:51Z</time>
      </trkpt>
      <trkpt lat="50.77346" lon="1.61233">
        <ele>23.9</ele>
        <time>2020-06-22T18:26:52Z</time>
      </trkpt>
      <trkpt lat="50.77349" lon="1.61236">
        <ele>24.2</ele>
        <time>2020-06-22T18:26:53Z</time>
      </trkpt>
      <trkpt lat="50.77352" lon="1.61238">
        <ele>24.3</ele>
        <time>2020-06-22T18:26:54Z</time>
      </trkpt>
      <trkpt lat="50.77354" lon="1.61239">
        <ele>24.4</ele>
        <time>2020-06-22T18:26:55Z</time>
      </trkpt>
      <trkpt lat="50.77357" lon="1.61239">
        <ele>24.5</ele>
        <time>2020-06-22T18:26:56Z</time>
      </trkpt>
      <trkpt lat="50.77361" lon="1.61239">
        <ele>24.6</ele>
        <time>2020-06-22T18:26:57Z</time>
      </trkpt>
      <trkpt lat="50.77365" lon="1.61239">
        <ele>24.8</ele>
        <time>2020-06-22T18:26:58Z</time>
      </trkpt>
      <trkpt lat="50.7737" lon="1.61239">
        <ele>24.9</ele>
        <time>2020-06-22T18:26:59Z</time>
      </trkpt>
      <trkpt lat="50.77374" lon="1.61239">
        <ele>25</ele>
        <time>2020-06-22T18:27:00Z</time>
      </trkpt>
      <trkpt lat="50.77378" lon="1.61239">
        <ele>25.1</ele>
        <time>2020-06-22T18:27:01Z</time>
      </trkpt>
      <trkpt lat="50.77382" lon="1.61238">
        <ele>25.2</ele>
        <time>2020-06-22T18:27:02Z</time>
      </trkpt>
      <trkpt lat="50.77387" lon="1.61237">
        <ele>25.3</ele>
        <time>2020-06-22T18:27:03Z</time>
      </trkpt>
      <trkpt lat="50.7739" lon="1.61235">
        <ele>25.4</ele>
        <time>2020-06-22T18:27:04Z</time>
      </trkpt>
      <trkpt lat="50.77395" lon="1.61232">
        <ele>25.6</ele>
        <time>2020-06-22T18:27:05Z</time>
      </trkpt>
      <trkpt lat="50.77398" lon="1.61231">
        <ele>25.6</ele>
        <time>2020-06-22T18:27:06Z</time>
      </trkpt>
      <trkpt lat="50.77402" lon="1.61228">
        <ele>25.7</ele>
        <time>2020-06-22T18:27:07Z</time>
      </trkpt>
      <trkpt lat="50.77406" lon="1.61226">
        <ele>25.8</ele>
        <time>2020-06-22T18:27:08Z</time>
      </trkpt>
      <trkpt lat="50.77411" lon="1.61224">
        <ele>25.9</ele>
        <time>2020-06-22T18:27:09Z</time>
      </trkpt>
      <trkpt lat="50.77413" lon="1.61222">
        <ele>26</ele>
        <time>2020-06-22T18:27:10Z</time>
      </trkpt>
      <trkpt lat="50.77417" lon="1.61219">
        <ele>26.1</ele>
        <time>2020-06-22T18:27:11Z</time>
      </trkpt>
      <trkpt lat="50.7742" lon="1.61217">
        <ele>26.2</ele>
        <time>2020-06-22T18:27:12Z</time>
      </trkpt>
      <trkpt lat="50.77424" lon="1.61215">
        <ele>26.3</ele>
        <time>2020-06-22T18:27:13Z</time>
      </trkpt>
      <trkpt lat="50.77428" lon="1.61213">
        <ele>26.4</ele>
        <time>2020-06-22T18:27:14Z</time>
      </trkpt>
      <trkpt lat="50.77432" lon="1.61211">
        <ele>26.6</ele>
        <time>2020-06-22T18:27:15Z</time>
      </trkpt>
      <trkpt lat="50.77436" lon="1.61209">
        <ele>26.7</ele>
        <time>2020-06-22T18:27:16Z</time>
      </trkpt>
      <trkpt lat="50.7744" lon="1.61207">
        <ele>26.8</ele>
        <time>2020-06-22T18:27:17Z</time>
      </trkpt>
      <trkpt lat="50.77443" lon="1.61205">
        <ele>26.8</ele>
        <time>2020-06-22T18:27:18Z</time>
      </trkpt>
      <trkpt lat="50.77447" lon="1.61203">
        <ele>26.9</ele>
        <time>2020-06-22T18:27:19Z</time>
      </trkpt>
      <trkpt lat="50.77451" lon="1.612">
        <ele>27</ele>
        <time>2020-06-22T18:27:20Z</time>
      </trkpt>
      <trkpt lat="50.77454" lon="1.61199">
        <ele>27</ele>
        <time>2020-06-22T18:27:21Z</time>
      </trkpt>
      <trkpt lat="50.77458" lon="1.61197">
        <ele>27.1</ele>
        <time>2020-06-22T18:27:22Z</time>
      </trkpt>
      <trkpt lat="50.77462" lon="1.61195">
        <ele>27.2</ele>
        <time>2020-06-22T18:27:23Z</time>
      </trkpt>
      <trkpt lat="50.77466" lon="1.61193">
        <ele>27.3</ele>
        <time>2020-06-22T18:27:24Z</time>
      </trkpt>
      <trkpt lat="50.7747" lon="1.61191">
        <ele>27.4</ele>
        <time>2020-06-22T18:27:25Z</time>
      </trkpt>
      <trkpt lat="50.77473" lon="1.61188">
        <ele>27.5</ele>
        <time>2020-06-22T18:27:26Z</time>
      </trkpt>
      <trkpt lat="50.77477" lon="1.61186">
        <ele>27.7</ele>
        <time>2020-06-22T18:27:27Z</time>
      </trkpt>
      <trkpt lat="50.77481" lon="1.61184">
        <ele>27.8</ele>
        <time>2020-06-22T18:27:28Z</time>
      </trkpt>
      <trkpt lat="50.77485" lon="1.61183">
        <ele>27.9</ele>
        <time>2020-06-22T18:27:29Z</time>
      </trkpt>
      <trkpt lat="50.77488" lon="1.61182">
        <ele>28</ele>
        <time>2020-06-22T18:27:30Z</time>
      </trkpt>
      <trkpt lat="50.77492" lon="1.61179">
        <ele>28.1</ele>
        <time>2020-06-22T18:27:31Z</time>
      </trkpt>
      <trkpt lat="50.77496" lon="1.61176">
        <ele>28.2</ele>
        <time>2020-06-22T18:27:32Z</time>
      </trkpt>
      <trkpt lat="50.775" lon="1.61174">
        <ele>28.3</ele>
        <time>2020-06-22T18:27:33Z</time>
      </trkpt>
      <trkpt lat="50.77504" lon="1.61172">
        <ele>28.4</ele>
        <time>2020-06-22T18:27:34Z</time>
      </trkpt>
      <trkpt lat="50.77507" lon="1.6117">
        <ele>28.5</ele>
        <time>2020-06-22T18:27:35Z</time>
      </trkpt>
      <trkpt lat="50.77511" lon="1.61166">
        <ele>28.7</ele>
        <time>2020-06-22T18:27:36Z</time>
      </trkpt>
      <trkpt lat="50.77512" lon="1.61165">
        <ele>28.7</ele>
        <time>2020-06-22T18:27:37Z</time>
      </trkpt>
      <trkpt lat="50.77516" lon="1.61162">
        <ele>28.8</ele>
        <time>2020-06-22T18:27:38Z</time>
      </trkpt>
      <trkpt lat="50.77519" lon="1.61159">
        <ele>28.9</ele>
        <time>2020-06-22T18:27:39Z</time>
      </trkpt>
      <trkpt lat="50.77523" lon="1.61158">
        <ele>29</ele>
        <time>2020-06-22T18:27:40Z</time>
      </trkpt>
      <trkpt lat="50.77527" lon="1.61155">
        <ele>29.1</ele>
        <time>2020-06-22T18:27:41Z</time>
      </trkpt>
      <trkpt lat="50.77529" lon="1.61152">
        <ele>29.1</ele>
        <time>2020-06-22T18:27:42Z</time>
      </trkpt>
      <trkpt lat="50.77532" lon="1.6115">
        <ele>29.2</ele>
        <time>2020-06-22T18:27:43Z</time>
      </trkpt>
      <trkpt lat="50.77537" lon="1.61148">
        <ele>29.3</ele>
        <time>2020-06-22T18:27:44Z</time>
      </trkpt>
      <trkpt lat="50.77541" lon="1.61145">
        <ele>29.3</ele>
        <time>2020-06-22T18:27:45Z</time>
      </trkpt>
      <trkpt lat="50.77545" lon="1.61145">
        <ele>29.4</ele>
        <time>2020-06-22T18:27:46Z</time>
      </trkpt>
      <trkpt lat="50.77549" lon="1.61143">
        <ele>29.5</ele>
        <time>2020-06-22T18:27:47Z</time>
      </trkpt>
      <trkpt lat="50.77554" lon="1.61142">
        <ele>29.6</ele>
        <time>2020-06-22T18:27:48Z</time>
      </trkpt>
      <trkpt lat="50.77559" lon="1.61142">
        <ele>29.7</ele>
        <time>2020-06-22T18:27:49Z</time>
      </trkpt>
      <trkpt lat="50.77563" lon="1.61141">
        <ele>29.8</ele>
        <time>2020-06-22T18:27:50Z</time>
      </trkpt>
      <trkpt lat="50.77567" lon="1.6114">
        <ele>29.9</ele>
        <time>2020-06-22T18:27:51Z</time>
      </trkpt>
      <trkpt lat="50.77571" lon="1.61141">
        <ele>29.9</ele>
        <time>2020-06-22T18:27:52Z</time>
      </trkpt>
      <trkpt lat="50.77575" lon="1.61142">
        <ele>30</ele>
        <time>2020-06-22T18:27:53Z</time>
      </trkpt>
      <trkpt lat="50.77579" lon="1.61144">
        <ele>30.1</ele>
        <time>2020-06-22T18:27:54Z</time>
      </trkpt>
      <trkpt lat="50.77583" lon="1.61145">
        <ele>30.2</ele>
        <time>2020-06-22T18:27:55Z</time>
      </trkpt>
      <trkpt lat="50.77587" lon="1.61149">
        <ele>30.3</ele>
        <time>2020-06-22T18:27:56Z</time>
      </trkpt>
      <trkpt lat="50.7759" lon="1.61152">
        <ele>30.5</ele>
        <time>2020-06-22T18:27:57Z</time>
      </trkpt>
      <trkpt lat="50.77594" lon="1.61154">
        <ele>30.8</ele>
        <time>2020-06-22T18:27:58Z</time>
      </trkpt>
      <trkpt lat="50.77598" lon="1.61158">
        <ele>31</ele>
        <time>2020-06-22T18:27:59Z</time>
      </trkpt>
      <trkpt lat="50.77602" lon="1.61162">
        <ele>31.2</ele>
        <time>2020-06-22T18:28:00Z</time>
      </trkpt>
      <trkpt lat="50.77605" lon="1.61166">
        <ele>31.5</ele>
        <time>2020-06-22T18:28:01Z</time>
      </trkpt>
      <trkpt lat="50.77608" lon="1.61169">
        <ele>31.7</ele>
        <time>2020-06-22T18:28:02Z</time>
      </trkpt>
      <trkpt lat="50.7761" lon="1.61172">
        <ele>31.8</ele>
        <time>2020-06-22T18:28:03Z</time>
      </trkpt>
      <trkpt lat="50.77613" lon="1.61175">
        <ele>32</ele>
        <time>2020-06-22T18:28:04Z</time>
      </trkpt>
      <trkpt lat="50.77616" lon="1.6118">
        <ele>32.2</ele>
        <time>2020-06-22T18:28:05Z</time>
      </trkpt>
      <trkpt lat="50.77618" lon="1.61183">
        <ele>32.4</ele>
        <time>2020-06-22T18:28:06Z</time>
      </trkpt>
      <trkpt lat="50.7762" lon="1.61187">
        <ele>32.6</ele>
        <time>2020-06-22T18:28:07Z</time>
      </trkpt>
      <trkpt lat="50.77623" lon="1.61193">
        <ele>32.9</ele>
        <time>2020-06-22T18:28:08Z</time>
      </trkpt>
      <trkpt lat="50.77625" lon="1.61197">
        <ele>33.1</ele>
        <time>2020-06-22T18:28:09Z</time>
      </trkpt>
      <trkpt lat="50.77627" lon="1.61202">
        <ele>33.4</ele>
        <time>2020-06-22T18:28:10Z</time>
      </trkpt>
      <trkpt lat="50.77629" lon="1.61207">
        <ele>33.6</ele>
        <time>2020-06-22T18:28:11Z</time>
      </trkpt>
      <trkpt lat="50.7763" lon="1.61208">
        <ele>33.7</ele>
        <time>2020-06-22T18:28:12Z</time>
      </trkpt>
      <trkpt lat="50.77632" lon="1.61212">
        <ele>33.9</ele>
        <time>2020-06-22T18:28:13Z</time>
      </trkpt>
      <trkpt lat="50.77635" lon="1.61216">
        <ele>34.2</ele>
        <time>2020-06-22T18:28:14Z</time>
      </trkpt>
      <trkpt lat="50.77636" lon="1.61218">
        <ele>34.4</ele>
        <time>2020-06-22T18:28:15Z</time>
      </trkpt>
      <trkpt lat="50.77638" lon="1.61222">
        <ele>34.7</ele>
        <time>2020-06-22T18:28:16Z</time>
      </trkpt>
      <trkpt lat="50.77639" lon="1.61223">
        <ele>34.8</ele>
        <time>2020-06-22T18:28:17Z</time>
      </trkpt>
      <trkpt lat="50.7764" lon="1.61227">
        <ele>35</ele>
        <time>2020-06-22T18:28:18Z</time>
      </trkpt>
      <trkpt lat="50.77643" lon="1.61231">
        <ele>35.4</ele>
        <time>2020-06-22T18:28:19Z</time>
      </trkpt>
      <trkpt lat="50.77645" lon="1.61234">
        <ele>35.6</ele>
        <time>2020-06-22T18:28:20Z</time>
      </trkpt>
      <trkpt lat="50.77648" lon="1.61238">
        <ele>35.9</ele>
        <time>2020-06-22T18:28:21Z</time>
      </trkpt>
      <trkpt lat="50.77649" lon="1.61242">
        <ele>36.2</ele>
        <time>2020-06-22T18:28:22Z</time>
      </trkpt>
      <trkpt lat="50.77652" lon="1.61245">
        <ele>36.4</ele>
        <time>2020-06-22T18:28:23Z</time>
      </trkpt>
      <trkpt lat="50.77655" lon="1.6125">
        <ele>36.8</ele>
        <time>2020-06-22T18:28:24Z</time>
      </trkpt>
      <trkpt lat="50.77658" lon="1.61253">
        <ele>37</ele>
        <time>2020-06-22T18:28:25Z</time>
      </trkpt>
      <trkpt lat="50.77661" lon="1.61256">
        <ele>37.3</ele>
        <time>2020-06-22T18:28:26Z</time>
      </trkpt>
      <trkpt lat="50.77665" lon="1.61258">
        <ele>37.6</ele>
        <time>2020-06-22T18:28:27Z</time>
      </trkpt>
      <trkpt lat="50.77666" lon="1.61259">
        <ele>37.7</ele>
        <time>2020-06-22T18:28:28Z</time>
      </trkpt>
      <trkpt lat="50.77669" lon="1.6126">
        <ele>37.9</ele>
        <time>2020-06-22T18:28:29Z</time>
      </trkpt>
      <trkpt lat="50.77672" lon="1.61261">
        <ele>38.1</ele>
        <time>2020-06-22T18:28:30Z</time>
      </trkpt>
      <trkpt lat="50.77677" lon="1.61261">
        <ele>38.4</ele>
        <time>2020-06-22T18:28:31Z</time>
      </trkpt>
      <trkpt lat="50.77678" lon="1.61262">
        <ele>38.5</ele>
        <time>2020-06-22T18:28:32Z</time>
      </trkpt>
      <trkpt lat="50.77682" lon="1.61263">
        <ele>38.8</ele>
        <time>2020-06-22T18:28:33Z</time>
      </trkpt>
      <trkpt lat="50.77684" lon="1.61263">
        <ele>38.9</ele>
        <time>2020-06-22T18:28:34Z</time>
      </trkpt>
      <trkpt lat="50.77688" lon="1.61264">
        <ele>39.1</ele>
        <time>2020-06-22T18:28:35Z</time>
      </trkpt>
      <trkpt lat="50.77691" lon="1.61265">
        <ele>39.3</ele>
        <time>2020-06-22T18:28:36Z</time>
      </trkpt>
      <trkpt lat="50.77694" lon="1.61265">
        <ele>39.5</ele>
        <time>2020-06-22T18:28:37Z</time>
      </trkpt>
      <trkpt lat="50.77698" lon="1.61264">
        <ele>39.8</ele>
        <time>2020-06-22T18:28:38Z</time>
      </trkpt>
      <trkpt lat="50.77701" lon="1.61263">
        <ele>40</ele>
        <time>2020-06-22T18:28:39Z</time>
      </trkpt>
      <trkpt lat="50.77704" lon="1.61262">
        <ele>40.2</ele>
        <time>2020-06-22T18:28:40Z</time>
      </trkpt>
      <trkpt lat="50.77708" lon="1.6126">
        <ele>40.4</ele>
        <time>2020-06-22T18:28:41Z</time>
      </trkpt>
      <trkpt lat="50.77711" lon="1.61256">
        <ele>40.7</ele>
        <time>2020-06-22T18:28:42Z</time>
      </trkpt>
      <trkpt lat="50.77715" lon="1.61252">
        <ele>40.9</ele>
        <time>2020-06-22T18:28:43Z</time>
      </trkpt>
      <trkpt lat="50.77718" lon="1.61248">
        <ele>41.1</ele>
        <time>2020-06-22T18:28:44Z</time>
      </trkpt>
      <trkpt lat="50.7772" lon="1.61244">
        <ele>41.3</ele>
        <time>2020-06-22T18:28:45Z</time>
      </trkpt>
      <trkpt lat="50.77722" lon="1.6124">
        <ele>41.5</ele>
        <time>2020-06-22T18:28:46Z</time>
      </trkpt>
      <trkpt lat="50.77724" lon="1.61236">
        <ele>41.7</ele>
        <time>2020-06-22T18:28:47Z</time>
      </trkpt>
      <trkpt lat="50.77726" lon="1.61231">
        <ele>41.9</ele>
        <time>2020-06-22T18:28:48Z</time>
      </trkpt>
      <trkpt lat="50.77728" lon="1.61226">
        <ele>42.1</ele>
        <time>2020-06-22T18:28:49Z</time>
      </trkpt>
      <trkpt lat="50.77729" lon="1.6122">
        <ele>42.3</ele>
        <time>2020-06-22T18:28:50Z</time>
      </trkpt>
      <trkpt lat="50.7773" lon="1.61214">
        <ele>42.6</ele>
        <time>2020-06-22T18:28:51Z</time>
      </trkpt>
      <trkpt lat="50.77732" lon="1.61207">
        <ele>42.6</ele>
        <time>2020-06-22T18:28:52Z</time>
      </trkpt>
      <trkpt lat="50.77733" lon="1.61201">
        <ele>42.7</ele>
        <time>2020-06-22T18:28:53Z</time>
      </trkpt>
      <trkpt lat="50.77734" lon="1.61196">
        <ele>42.8</ele>
        <time>2020-06-22T18:28:54Z</time>
      </trkpt>
      <trkpt lat="50.77736" lon="1.6119">
        <ele>42.8</ele>
        <time>2020-06-22T18:28:55Z</time>
      </trkpt>
      <trkpt lat="50.77737" lon="1.61184">
        <ele>42.9</ele>
        <time>2020-06-22T18:28:56Z</time>
      </trkpt>
      <trkpt lat="50.77739" lon="1.61178">
        <ele>43</ele>
        <time>2020-06-22T18:28:57Z</time>
      </trkpt>
      <trkpt lat="50.77741" lon="1.61171">
        <ele>43</ele>
        <time>2020-06-22T18:28:58Z</time>
      </trkpt>
      <trkpt lat="50.77742" lon="1.61162">
        <ele>43.1</ele>
        <time>2020-06-22T18:28:59Z</time>
      </trkpt>
      <trkpt lat="50.77742" lon="1.61155">
        <ele>43.1</ele>
        <time>2020-06-22T18:29:00Z</time>
      </trkpt>
      <trkpt lat="50.77743" lon="1.6115">
        <ele>43.2</ele>
        <time>2020-06-22T18:29:01Z</time>
      </trkpt>
      <trkpt lat="50.77743" lon="1.61145">
        <ele>43.2</ele>
        <time>2020-06-22T18:29:02Z</time>
      </trkpt>
      <trkpt lat="50.77743" lon="1.61139">
        <ele>43.2</ele>
        <time>2020-06-22T18:29:03Z</time>
      </trkpt>
      <trkpt lat="50.77744" lon="1.61135">
        <ele>43.3</ele>
        <time>2020-06-22T18:29:04Z</time>
      </trkpt>
      <trkpt lat="50.77745" lon="1.6113">
        <ele>43.3</ele>
        <time>2020-06-22T18:29:05Z</time>
      </trkpt>
      <trkpt lat="50.77745" lon="1.61124">
        <ele>43.3</ele>
        <time>2020-06-22T18:29:06Z</time>
      </trkpt>
      <trkpt lat="50.77748" lon="1.6112">
        <ele>43.3</ele>
        <time>2020-06-22T18:29:07Z</time>
      </trkpt>
      <trkpt lat="50.77752" lon="1.61119">
        <ele>43.3</ele>
        <time>2020-06-22T18:29:08Z</time>
      </trkpt>
      <trkpt lat="50.77756" lon="1.61119">
        <ele>43.4</ele>
        <time>2020-06-22T18:29:09Z</time>
      </trkpt>
      <trkpt lat="50.77761" lon="1.61116">
        <ele>43.4</ele>
        <time>2020-06-22T18:29:10Z</time>
      </trkpt>
      <trkpt lat="50.77765" lon="1.61113">
        <ele>43.5</ele>
        <time>2020-06-22T18:29:11Z</time>
      </trkpt>
      <trkpt lat="50.77769" lon="1.61109">
        <ele>43.6</ele>
        <time>2020-06-22T18:29:12Z</time>
      </trkpt>
      <trkpt lat="50.77772" lon="1.61103">
        <ele>43.9</ele>
        <time>2020-06-22T18:29:13Z</time>
      </trkpt>
      <trkpt lat="50.77775" lon="1.61097">
        <ele>43.8</ele>
        <time>2020-06-22T18:29:14Z</time>
      </trkpt>
      <trkpt lat="50.77777" lon="1.61091">
        <ele>43.7</ele>
        <time>2020-06-22T18:29:15Z</time>
      </trkpt>
      <trkpt lat="50.77779" lon="1.61086">
        <ele>43.5</ele>
        <time>2020-06-22T18:29:16Z</time>
      </trkpt>
      <trkpt lat="50.77782" lon="1.61081">
        <ele>43.4</ele>
        <time>2020-06-22T18:29:17Z</time>
      </trkpt>
      <trkpt lat="50.77786" lon="1.61079">
        <ele>43.3</ele>
        <time>2020-06-22T18:29:18Z</time>
      </trkpt>
      <trkpt lat="50.77789" lon="1.61075">
        <ele>43.3</ele>
        <time>2020-06-22T18:29:19Z</time>
      </trkpt>
      <trkpt lat="50.77793" lon="1.61071">
        <ele>43.2</ele>
        <time>2020-06-22T18:29:20Z</time>
      </trkpt>
      <trkpt lat="50.77798" lon="1.61068">
        <ele>43.1</ele>
        <time>2020-06-22T18:29:21Z</time>
      </trkpt>
      <trkpt lat="50.77803" lon="1.61065">
        <ele>42.9</ele>
        <time>2020-06-22T18:29:22Z</time>
      </trkpt>
      <trkpt lat="50.7781" lon="1.61059">
        <ele>42.8</ele>
        <time>2020-06-22T18:29:23Z</time>
      </trkpt>
      <trkpt lat="50.77814" lon="1.61057">
        <ele>42.7</ele>
        <time>2020-06-22T18:29:24Z</time>
      </trkpt>
      <trkpt lat="50.77818" lon="1.61053">
        <ele>42.7</ele>
        <time>2020-06-22T18:29:25Z</time>
      </trkpt>
      <trkpt lat="50.77822" lon="1.6105">
        <ele>42.7</ele>
        <time>2020-06-22T18:29:26Z</time>
      </trkpt>
      <trkpt lat="50.77826" lon="1.61047">
        <ele>42.6</ele>
        <time>2020-06-22T18:29:27Z</time>
      </trkpt>
      <trkpt lat="50.7783" lon="1.61042">
        <ele>42.6</ele>
        <time>2020-06-22T18:29:28Z</time>
      </trkpt>
      <trkpt lat="50.77832" lon="1.61041">
        <ele>42.5</ele>
        <time>2020-06-22T18:29:29Z</time>
      </trkpt>
      <trkpt lat="50.77836" lon="1.61038">
        <ele>42.5</ele>
        <time>2020-06-22T18:29:30Z</time>
      </trkpt>
      <trkpt lat="50.7784" lon="1.61035">
        <ele>42.4</ele>
        <time>2020-06-22T18:29:31Z</time>
      </trkpt>
      <trkpt lat="50.77844" lon="1.61032">
        <ele>42.3</ele>
        <time>2020-06-22T18:29:32Z</time>
      </trkpt>
      <trkpt lat="50.77849" lon="1.61029">
        <ele>42.3</ele>
        <time>2020-06-22T18:29:33Z</time>
      </trkpt>
      <trkpt lat="50.77854" lon="1.61025">
        <ele>42.1</ele>
        <time>2020-06-22T18:29:34Z</time>
      </trkpt>
      <trkpt lat="50.77858" lon="1.61021">
        <ele>42</ele>
        <time>2020-06-22T18:29:35Z</time>
      </trkpt>
      <trkpt lat="50.77863" lon="1.61017">
        <ele>41.8</ele>
        <time>2020-06-22T18:29:36Z</time>
      </trkpt>
      <trkpt lat="50.77868" lon="1.61013">
        <ele>41.7</ele>
        <time>2020-06-22T18:29:37Z</time>
      </trkpt>
      <trkpt lat="50.77872" lon="1.61009">
        <ele>41.5</ele>
        <time>2020-06-22T18:29:38Z</time>
      </trkpt>
      <trkpt lat="50.77875" lon="1.61004">
        <ele>41.4</ele>
        <time>2020-06-22T18:29:39Z</time>
      </trkpt>
      <trkpt lat="50.7788" lon="1.61">
        <ele>41.2</ele>
        <time>2020-06-22T18:29:40Z</time>
      </trkpt>
      <trkpt lat="50.77885" lon="1.60995">
        <ele>40.9</ele>
        <time>2020-06-22T18:29:41Z</time>
      </trkpt>
      <trkpt lat="50.7789" lon="1.60991">
        <ele>40.6</ele>
        <time>2020-06-22T18:29:42Z</time>
      </trkpt>
      <trkpt lat="50.77896" lon="1.60987">
        <ele>40.1</ele>
        <time>2020-06-22T18:29:43Z</time>
      </trkpt>
      <trkpt lat="50.779" lon="1.60982">
        <ele>40</ele>
        <time>2020-06-22T18:29:44Z</time>
      </trkpt>
      <trkpt lat="50.77905" lon="1.60977">
        <ele>39.6</ele>
        <time>2020-06-22T18:29:45Z</time>
      </trkpt>
      <trkpt lat="50.77911" lon="1.60972">
        <ele>39.2</ele>
        <time>2020-06-22T18:29:46Z</time>
      </trkpt>
      <trkpt lat="50.77916" lon="1.60967">
        <ele>38.9</ele>
        <time>2020-06-22T18:29:47Z</time>
      </trkpt>
      <trkpt lat="50.77922" lon="1.60961">
        <ele>38.5</ele>
        <time>2020-06-22T18:29:48Z</time>
      </trkpt>
      <trkpt lat="50.77928" lon="1.60956">
        <ele>38.1</ele>
        <time>2020-06-22T18:29:49Z</time>
      </trkpt>
      <trkpt lat="50.77935" lon="1.6095">
        <ele>37.7</ele>
        <time>2020-06-22T18:29:50Z</time>
      </trkpt>
      <trkpt lat="50.77941" lon="1.60945">
        <ele>37.2</ele>
        <time>2020-06-22T18:29:51Z</time>
      </trkpt>
      <trkpt lat="50.77948" lon="1.60938">
        <ele>36.7</ele>
        <time>2020-06-22T18:29:52Z</time>
      </trkpt>
      <trkpt lat="50.77955" lon="1.60932">
        <ele>36.1</ele>
        <time>2020-06-22T18:29:53Z</time>
      </trkpt>
      <trkpt lat="50.77963" lon="1.60927">
        <ele>35.4</ele>
        <time>2020-06-22T18:29:54Z</time>
      </trkpt>
      <trkpt lat="50.77971" lon="1.60923">
        <ele>34.7</ele>
        <time>2020-06-22T18:29:55Z</time>
      </trkpt>
      <trkpt lat="50.77979" lon="1.6092">
        <ele>34</ele>
        <time>2020-06-22T18:29:56Z</time>
      </trkpt>
      <trkpt lat="50.77988" lon="1.60919">
        <ele>33.2</ele>
        <time>2020-06-22T18:29:57Z</time>
      </trkpt>
      <trkpt lat="50.77998" lon="1.60918">
        <ele>32.3</ele>
        <time>2020-06-22T18:29:58Z</time>
      </trkpt>
      <trkpt lat="50.78008" lon="1.60917">
        <ele>31.5</ele>
        <time>2020-06-22T18:29:59Z</time>
      </trkpt>
      <trkpt lat="50.78018" lon="1.60917">
        <ele>30.6</ele>
        <time>2020-06-22T18:30:00Z</time>
      </trkpt>
      <trkpt lat="50.78029" lon="1.60918">
        <ele>29.8</ele>
        <time>2020-06-22T18:30:01Z</time>
      </trkpt>
      <trkpt lat="50.7804" lon="1.60918">
        <ele>29</ele>
        <time>2020-06-22T18:30:02Z</time>
      </trkpt>
      <trkpt lat="50.78051" lon="1.60918">
        <ele>28.5</ele>
        <time>2020-06-22T18:30:03Z</time>
      </trkpt>
      <trkpt lat="50.78062" lon="1.60918">
        <ele>27.9</ele>
        <time>2020-06-22T18:30:04Z</time>
      </trkpt>
      <trkpt lat="50.78073" lon="1.60918">
        <ele>27.4</ele>
        <time>2020-06-22T18:30:05Z</time>
      </trkpt>
      <trkpt lat="50.78084" lon="1.60917">
        <ele>26.9</ele>
        <time>2020-06-22T18:30:06Z</time>
      </trkpt>
      <trkpt lat="50.78094" lon="1.60917">
        <ele>26.6</ele>
        <time>2020-06-22T18:30:07Z</time>
      </trkpt>
      <trkpt lat="50.78105" lon="1.60916">
        <ele>26.3</ele>
        <time>2020-06-22T18:30:08Z</time>
      </trkpt>
      <trkpt lat="50.78116" lon="1.60917">
        <ele>26.1</ele>
        <time>2020-06-22T18:30:09Z</time>
      </trkpt>
      <trkpt lat="50.78126" lon="1.60916">
        <ele>26</ele>
        <time>2020-06-22T18:30:10Z</time>
      </trkpt>
      <trkpt lat="50.78136" lon="1.60916">
        <ele>25.9</ele>
        <time>2020-06-22T18:30:11Z</time>
      </trkpt>
      <trkpt lat="50.78145" lon="1.60915">
        <ele>25.7</ele>
        <time>2020-06-22T18:30:12Z</time>
      </trkpt>
      <trkpt lat="50.78155" lon="1.60913">
        <ele>25.6</ele>
        <time>2020-06-22T18:30:13Z</time>
      </trkpt>
      <trkpt lat="50.78164" lon="1.60911">
        <ele>25.5</ele>
        <time>2020-06-22T18:30:14Z</time>
      </trkpt>
      <trkpt lat="50.78174" lon="1.60909">
        <ele>25.3</ele>
        <time>2020-06-22T18:30:15Z</time>
      </trkpt>
      <trkpt lat="50.78182" lon="1.60907">
        <ele>25.2</ele>
        <time>2020-06-22T18:30:16Z</time>
      </trkpt>
      <trkpt lat="50.78191" lon="1.60904">
        <ele>25.1</ele>
        <time>2020-06-22T18:30:17Z</time>
      </trkpt>
      <trkpt lat="50.78199" lon="1.60901">
        <ele>25</ele>
        <time>2020-06-22T18:30:18Z</time>
      </trkpt>
      <trkpt lat="50.78207" lon="1.60898">
        <ele>24.9</ele>
        <time>2020-06-22T18:30:19Z</time>
      </trkpt>
      <trkpt lat="50.78215" lon="1.60895">
        <ele>24.8</ele>
        <time>2020-06-22T18:30:20Z</time>
      </trkpt>
      <trkpt lat="50.78223" lon="1.60892">
        <ele>24.7</ele>
        <time>2020-06-22T18:30:21Z</time>
      </trkpt>
      <trkpt lat="50.7823" lon="1.60889">
        <ele>24.7</ele>
        <time>2020-06-22T18:30:22Z</time>
      </trkpt>
      <trkpt lat="50.78237" lon="1.60885">
        <ele>24.6</ele>
        <time>2020-06-22T18:30:23Z</time>
      </trkpt>
      <trkpt lat="50.78244" lon="1.60883">
        <ele>24.5</ele>
        <time>2020-06-22T18:30:24Z</time>
      </trkpt>
      <trkpt lat="50.78251" lon="1.60881">
        <ele>24.5</ele>
        <time>2020-06-22T18:30:25Z</time>
      </trkpt>
      <trkpt lat="50.78258" lon="1.60878">
        <ele>24.4</ele>
        <time>2020-06-22T18:30:26Z</time>
      </trkpt>
      <trkpt lat="50.78264" lon="1.60876">
        <ele>24.4</ele>
        <time>2020-06-22T18:30:27Z</time>
      </trkpt>
      <trkpt lat="50.7827" lon="1.60873">
        <ele>24.3</ele>
        <time>2020-06-22T18:30:28Z</time>
      </trkpt>
      <trkpt lat="50.78277" lon="1.6087">
        <ele>24.2</ele>
        <time>2020-06-22T18:30:29Z</time>
      </trkpt>
      <trkpt lat="50.78283" lon="1.60866">
        <ele>24.2</ele>
        <time>2020-06-22T18:30:30Z</time>
      </trkpt>
      <trkpt lat="50.78289" lon="1.60863">
        <ele>24.1</ele>
        <time>2020-06-22T18:30:31Z</time>
      </trkpt>
      <trkpt lat="50.78294" lon="1.6086">
        <ele>24</ele>
        <time>2020-06-22T18:30:32Z</time>
      </trkpt>
      <trkpt lat="50.783" lon="1.60856">
        <ele>23.9</ele>
        <time>2020-06-22T18:30:33Z</time>
      </trkpt>
      <trkpt lat="50.78305" lon="1.6085">
        <ele>23.8</ele>
        <time>2020-06-22T18:30:34Z</time>
      </trkpt>
      <trkpt lat="50.7831" lon="1.60844">
        <ele>23.7</ele>
        <time>2020-06-22T18:30:35Z</time>
      </trkpt>
      <trkpt lat="50.78315" lon="1.60839">
        <ele>23.6</ele>
        <time>2020-06-22T18:30:36Z</time>
      </trkpt>
      <trkpt lat="50.7832" lon="1.60833">
        <ele>23.5</ele>
        <time>2020-06-22T18:30:37Z</time>
      </trkpt>
      <trkpt lat="50.78324" lon="1.60826">
        <ele>23.4</ele>
        <time>2020-06-22T18:30:38Z</time>
      </trkpt>
      <trkpt lat="50.78328" lon="1.60819">
        <ele>23.4</ele>
        <time>2020-06-22T18:30:39Z</time>
      </trkpt>
      <trkpt lat="50.78332" lon="1.60812">
        <ele>23.4</ele>
        <time>2020-06-22T18:30:40Z</time>
      </trkpt>
      <trkpt lat="50.78336" lon="1.60806">
        <ele>23.3</ele>
        <time>2020-06-22T18:30:41Z</time>
      </trkpt>
      <trkpt lat="50.7834" lon="1.60799">
        <ele>23.2</ele>
        <time>2020-06-22T18:30:42Z</time>
      </trkpt>
      <trkpt lat="50.78344" lon="1.60792">
        <ele>23.2</ele>
        <time>2020-06-22T18:30:43Z</time>
      </trkpt>
      <trkpt lat="50.78348" lon="1.60786">
        <ele>23.1</ele>
        <time>2020-06-22T18:30:44Z</time>
      </trkpt>
      <trkpt lat="50.78352" lon="1.60779">
        <ele>23</ele>
        <time>2020-06-22T18:30:45Z</time>
      </trkpt>
      <trkpt lat="50.78356" lon="1.60773">
        <ele>22.9</ele>
        <time>2020-06-22T18:30:46Z</time>
      </trkpt>
      <trkpt lat="50.7836" lon="1.60766">
        <ele>22.9</ele>
        <time>2020-06-22T18:30:47Z</time>
      </trkpt>
      <trkpt lat="50.78363" lon="1.60758">
        <ele>22.8</ele>
        <time>2020-06-22T18:30:48Z</time>
      </trkpt>
      <trkpt lat="50.78367" lon="1.60751">
        <ele>22.8</ele>
        <time>2020-06-22T18:30:49Z</time>
      </trkpt>
      <trkpt lat="50.78371" lon="1.60744">
        <ele>22.8</ele>
        <time>2020-06-22T18:30:50Z</time>
      </trkpt>
      <trkpt lat="50.78376" lon="1.60736">
        <ele>22.6</ele>
        <time>2020-06-22T18:30:51Z</time>
      </trkpt>
      <trkpt lat="50.7838" lon="1.60728">
        <ele>22.5</ele>
        <time>2020-06-22T18:30:52Z</time>
      </trkpt>
      <trkpt lat="50.78384" lon="1.60721">
        <ele>22.3</ele>
        <time>2020-06-22T18:30:53Z</time>
      </trkpt>
      <trkpt lat="50.78389" lon="1.60713">
        <ele>22.2</ele>
        <time>2020-06-22T18:30:54Z</time>
      </trkpt>
      <trkpt lat="50.78393" lon="1.60705">
        <ele>22</ele>
        <time>2020-06-22T18:30:55Z</time>
      </trkpt>
      <trkpt lat="50.78398" lon="1.60697">
        <ele>21.9</ele>
        <time>2020-06-22T18:30:56Z</time>
      </trkpt>
      <trkpt lat="50.78402" lon="1.60689">
        <ele>21.7</ele>
        <time>2020-06-22T18:30:57Z</time>
      </trkpt>
      <trkpt lat="50.78406" lon="1.60681">
        <ele>21.5</ele>
        <time>2020-06-22T18:30:58Z</time>
      </trkpt>
      <trkpt lat="50.78411" lon="1.60673">
        <ele>21.3</ele>
        <time>2020-06-22T18:30:59Z</time>
      </trkpt>
      <trkpt lat="50.78415" lon="1.60665">
        <ele>21.2</ele>
        <time>2020-06-22T18:31:00Z</time>
      </trkpt>
      <trkpt lat="50.7842" lon="1.60657">
        <ele>21</ele>
        <time>2020-06-22T18:31:01Z</time>
      </trkpt>
      <trkpt lat="50.78425" lon="1.60649">
        <ele>20.8</ele>
        <time>2020-06-22T18:31:02Z</time>
      </trkpt>
      <trkpt lat="50.78429" lon="1.60642">
        <ele>20.7</ele>
        <time>2020-06-22T18:31:03Z</time>
      </trkpt>
      <trkpt lat="50.78434" lon="1.60634">
        <ele>20.5</ele>
        <time>2020-06-22T18:31:04Z</time>
      </trkpt>
      <trkpt lat="50.78439" lon="1.60627">
        <ele>20.4</ele>
        <time>2020-06-22T18:31:05Z</time>
      </trkpt>
      <trkpt lat="50.78444" lon="1.6062">
        <ele>20.2</ele>
        <time>2020-06-22T18:31:06Z</time>
      </trkpt>
      <trkpt lat="50.7845" lon="1.60614">
        <ele>20</ele>
        <time>2020-06-22T18:31:07Z</time>
      </trkpt>
      <trkpt lat="50.78455" lon="1.60607">
        <ele>19.8</ele>
        <time>2020-06-22T18:31:08Z</time>
      </trkpt>
      <trkpt lat="50.78461" lon="1.60601">
        <ele>19.6</ele>
        <time>2020-06-22T18:31:09Z</time>
      </trkpt>
      <trkpt lat="50.78466" lon="1.60594">
        <ele>19.4</ele>
        <time>2020-06-22T18:31:10Z</time>
      </trkpt>
      <trkpt lat="50.78471" lon="1.60588">
        <ele>19.2</ele>
        <time>2020-06-22T18:31:11Z</time>
      </trkpt>
      <trkpt lat="50.78477" lon="1.60582">
        <ele>19</ele>
        <time>2020-06-22T18:31:12Z</time>
      </trkpt>
      <trkpt lat="50.78483" lon="1.60576">
        <ele>18.8</ele>
        <time>2020-06-22T18:31:13Z</time>
      </trkpt>
      <trkpt lat="50.78489" lon="1.60571">
        <ele>18.6</ele>
        <time>2020-06-22T18:31:14Z</time>
      </trkpt>
      <trkpt lat="50.78495" lon="1.60566">
        <ele>18.4</ele>
        <time>2020-06-22T18:31:15Z</time>
      </trkpt>
      <trkpt lat="50.78501" lon="1.60562">
        <ele>18.2</ele>
        <time>2020-06-22T18:31:16Z</time>
      </trkpt>
      <trkpt lat="50.78508" lon="1.60558">
        <ele>18</ele>
        <time>2020-06-22T18:31:17Z</time>
      </trkpt>
      <trkpt lat="50.78514" lon="1.60554">
        <ele>17.8</ele>
        <time>2020-06-22T18:31:18Z</time>
      </trkpt>
      <trkpt lat="50.7852" lon="1.6055">
        <ele>17.6</ele>
        <time>2020-06-22T18:31:19Z</time>
      </trkpt>
      <trkpt lat="50.78527" lon="1.60547">
        <ele>17.4</ele>
        <time>2020-06-22T18:31:20Z</time>
      </trkpt>
      <trkpt lat="50.78534" lon="1.60544">
        <ele>17.2</ele>
        <time>2020-06-22T18:31:21Z</time>
      </trkpt>
      <trkpt lat="50.7854" lon="1.60542">
        <ele>17</ele>
        <time>2020-06-22T18:31:22Z</time>
      </trkpt>
      <trkpt lat="50.78547" lon="1.6054">
        <ele>16.7</ele>
        <time>2020-06-22T18:31:23Z</time>
      </trkpt>
      <trkpt lat="50.78554" lon="1.60538">
        <ele>16.6</ele>
        <time>2020-06-22T18:31:24Z</time>
      </trkpt>
      <trkpt lat="50.78561" lon="1.60535">
        <ele>16.4</ele>
        <time>2020-06-22T18:31:25Z</time>
      </trkpt>
      <trkpt lat="50.78568" lon="1.60534">
        <ele>16.2</ele>
        <time>2020-06-22T18:31:26Z</time>
      </trkpt>
      <trkpt lat="50.78575" lon="1.60534">
        <ele>16</ele>
        <time>2020-06-22T18:31:27Z</time>
      </trkpt>
      <trkpt lat="50.78582" lon="1.60533">
        <ele>15.8</ele>
        <time>2020-06-22T18:31:28Z</time>
      </trkpt>
      <trkpt lat="50.78589" lon="1.60533">
        <ele>15.6</ele>
        <time>2020-06-22T18:31:29Z</time>
      </trkpt>
      <trkpt lat="50.78596" lon="1.60533">
        <ele>15.4</ele>
        <time>2020-06-22T18:31:30Z</time>
      </trkpt>
      <trkpt lat="50.78603" lon="1.60534">
        <ele>15.2</ele>
        <time>2020-06-22T18:31:31Z</time>
      </trkpt>
      <trkpt lat="50.7861" lon="1.60534">
        <ele>15.1</ele>
        <time>2020-06-22T18:31:32Z</time>
      </trkpt>
      <trkpt lat="50.78617" lon="1.60535">
        <ele>14.9</ele>
        <time>2020-06-22T18:31:33Z</time>
      </trkpt>
      <trkpt lat="50.78624" lon="1.60537">
        <ele>14.7</ele>
        <time>2020-06-22T18:31:34Z</time>
      </trkpt>
      <trkpt lat="50.78631" lon="1.60539">
        <ele>14.5</ele>
        <time>2020-06-22T18:31:35Z</time>
      </trkpt>
      <trkpt lat="50.78637" lon="1.6054">
        <ele>14.3</ele>
        <time>2020-06-22T18:31:36Z</time>
      </trkpt>
      <trkpt lat="50.78644" lon="1.60541">
        <ele>14.1</ele>
        <time>2020-06-22T18:31:37Z</time>
      </trkpt>
      <trkpt lat="50.78651" lon="1.60543">
        <ele>13.9</ele>
        <time>2020-06-22T18:31:38Z</time>
      </trkpt>
      <trkpt lat="50.78658" lon="1.60545">
        <ele>13.8</ele>
        <time>2020-06-22T18:31:39Z</time>
      </trkpt>
      <trkpt lat="50.78665" lon="1.60546">
        <ele>13.6</ele>
        <time>2020-06-22T18:31:40Z</time>
      </trkpt>
      <trkpt lat="50.78672" lon="1.60548">
        <ele>13.5</ele>
        <time>2020-06-22T18:31:41Z</time>
      </trkpt>
      <trkpt lat="50.78678" lon="1.60552">
        <ele>13.4</ele>
        <time>2020-06-22T18:31:42Z</time>
      </trkpt>
      <trkpt lat="50.78684" lon="1.60556">
        <ele>13.3</ele>
        <time>2020-06-22T18:31:43Z</time>
      </trkpt>
      <trkpt lat="50.7869" lon="1.60562">
        <ele>13.3</ele>
        <time>2020-06-22T18:31:44Z</time>
      </trkpt>
      <trkpt lat="50.78695" lon="1.6057">
        <ele>13.2</ele>
        <time>2020-06-22T18:31:45Z</time>
      </trkpt>
      <trkpt lat="50.78699" lon="1.60578">
        <ele>13.2</ele>
        <time>2020-06-22T18:31:46Z</time>
      </trkpt>
      <trkpt lat="50.78703" lon="1.60586">
        <ele>13.2</ele>
        <time>2020-06-22T18:31:47Z</time>
      </trkpt>
      <trkpt lat="50.78706" lon="1.60594">
        <ele>13.2</ele>
        <time>2020-06-22T18:31:48Z</time>
      </trkpt>
      <trkpt lat="50.78708" lon="1.60604">
        <ele>13.1</ele>
        <time>2020-06-22T18:31:49Z</time>
      </trkpt>
      <trkpt lat="50.7871" lon="1.60613">
        <ele>13.1</ele>
        <time>2020-06-22T18:31:50Z</time>
      </trkpt>
      <trkpt lat="50.78712" lon="1.60622">
        <ele>13</ele>
        <time>2020-06-22T18:31:51Z</time>
      </trkpt>
      <trkpt lat="50.78714" lon="1.60631">
        <ele>13</ele>
        <time>2020-06-22T18:31:52Z</time>
      </trkpt>
      <trkpt lat="50.78715" lon="1.6064">
        <ele>12.9</ele>
        <time>2020-06-22T18:31:53Z</time>
      </trkpt>
      <trkpt lat="50.78716" lon="1.60649">
        <ele>12.8</ele>
        <time>2020-06-22T18:31:54Z</time>
      </trkpt>
      <trkpt lat="50.78717" lon="1.60658">
        <ele>12.8</ele>
        <time>2020-06-22T18:31:55Z</time>
      </trkpt>
      <trkpt lat="50.78719" lon="1.60666">
        <ele>12.7</ele>
        <time>2020-06-22T18:31:56Z</time>
      </trkpt>
      <trkpt lat="50.78721" lon="1.60674">
        <ele>12.7</ele>
        <time>2020-06-22T18:31:57Z</time>
      </trkpt>
      <trkpt lat="50.78723" lon="1.60683">
        <ele>12.7</ele>
        <time>2020-06-22T18:31:58Z</time>
      </trkpt>
      <trkpt lat="50.78724" lon="1.60691">
        <ele>12.6</ele>
        <time>2020-06-22T18:31:59Z</time>
      </trkpt>
      <trkpt lat="50.78726" lon="1.60699">
        <ele>12.6</ele>
        <time>2020-06-22T18:32:00Z</time>
      </trkpt>
      <trkpt lat="50.78728" lon="1.60708">
        <ele>12.6</ele>
        <time>2020-06-22T18:32:01Z</time>
      </trkpt>
      <trkpt lat="50.7873" lon="1.60717">
        <ele>12.5</ele>
        <time>2020-06-22T18:32:02Z</time>
      </trkpt>
      <trkpt lat="50.78732" lon="1.60726">
        <ele>12.5</ele>
        <time>2020-06-22T18:32:03Z</time>
      </trkpt>
      <trkpt lat="50.78735" lon="1.60734">
        <ele>12.5</ele>
        <time>2020-06-22T18:32:04Z</time>
      </trkpt>
      <trkpt lat="50.78739" lon="1.60743">
        <ele>12.4</ele>
        <time>2020-06-22T18:32:05Z</time>
      </trkpt>
      <trkpt lat="50.78743" lon="1.6075">
        <ele>12.3</ele>
        <time>2020-06-22T18:32:06Z</time>
      </trkpt>
      <trkpt lat="50.78747" lon="1.60758">
        <ele>12.3</ele>
        <time>2020-06-22T18:32:07Z</time>
      </trkpt>
      <trkpt lat="50.78753" lon="1.60765">
        <ele>12.2</ele>
        <time>2020-06-22T18:32:08Z</time>
      </trkpt>
      <trkpt lat="50.78758" lon="1.6077">
        <ele>12.2</ele>
        <time>2020-06-22T18:32:09Z</time>
      </trkpt>
      <trkpt lat="50.78764" lon="1.60776">
        <ele>12.1</ele>
        <time>2020-06-22T18:32:10Z</time>
      </trkpt>
      <trkpt lat="50.7877" lon="1.60781">
        <ele>12</ele>
        <time>2020-06-22T18:32:11Z</time>
      </trkpt>
      <trkpt lat="50.78776" lon="1.60787">
        <ele>12</ele>
        <time>2020-06-22T18:32:12Z</time>
      </trkpt>
      <trkpt lat="50.78782" lon="1.60792">
        <ele>11.9</ele>
        <time>2020-06-22T18:32:13Z</time>
      </trkpt>
      <trkpt lat="50.78788" lon="1.60797">
        <ele>11.9</ele>
        <time>2020-06-22T18:32:14Z</time>
      </trkpt>
      <trkpt lat="50.78794" lon="1.60802">
        <ele>11.9</ele>
        <time>2020-06-22T18:32:15Z</time>
      </trkpt>
      <trkpt lat="50.788" lon="1.60807">
        <ele>11.8</ele>
        <time>2020-06-22T18:32:16Z</time>
      </trkpt>
      <trkpt lat="50.78806" lon="1.60812">
        <ele>11.8</ele>
        <time>2020-06-22T18:32:17Z</time>
      </trkpt>
      <trkpt lat="50.78812" lon="1.60817">
        <ele>11.8</ele>
        <time>2020-06-22T18:32:18Z</time>
      </trkpt>
      <trkpt lat="50.78818" lon="1.60822">
        <ele>11.8</ele>
        <time>2020-06-22T18:32:19Z</time>
      </trkpt>
      <trkpt lat="50.78824" lon="1.60827">
        <ele>11.8</ele>
        <time>2020-06-22T18:32:20Z</time>
      </trkpt>
      <trkpt lat="50.7883" lon="1.60832">
        <ele>11.9</ele>
        <time>2020-06-22T18:32:21Z</time>
      </trkpt>
      <trkpt lat="50.78836" lon="1.60838">
        <ele>11.9</ele>
        <time>2020-06-22T18:32:22Z</time>
      </trkpt>
      <trkpt lat="50.78841" lon="1.60843">
        <ele>11.9</ele>
        <time>2020-06-22T18:32:23Z</time>
      </trkpt>
      <trkpt lat="50.78847" lon="1.60848">
        <ele>11.9</ele>
        <time>2020-06-22T18:32:24Z</time>
      </trkpt>
      <trkpt lat="50.78853" lon="1.60853">
        <ele>12</ele>
        <time>2020-06-22T18:32:25Z</time>
      </trkpt>
      <trkpt lat="50.78859" lon="1.60858">
        <ele>12</ele>
        <time>2020-06-22T18:32:26Z</time>
      </trkpt>
      <trkpt lat="50.78865" lon="1.60863">
        <ele>12</ele>
        <time>2020-06-22T18:32:27Z</time>
      </trkpt>
      <trkpt lat="50.7887" lon="1.60868">
        <ele>12.1</ele>
        <time>2020-06-22T18:32:28Z</time>
      </trkpt>
      <trkpt lat="50.78876" lon="1.60874">
        <ele>12.1</ele>
        <time>2020-06-22T18:32:29Z</time>
      </trkpt>
      <trkpt lat="50.78882" lon="1.60879">
        <ele>12.1</ele>
        <time>2020-06-22T18:32:30Z</time>
      </trkpt>
      <trkpt lat="50.78888" lon="1.60884">
        <ele>12.1</ele>
        <time>2020-06-22T18:32:31Z</time>
      </trkpt>
      <trkpt lat="50.78893" lon="1.6089">
        <ele>12.2</ele>
        <time>2020-06-22T18:32:32Z</time>
      </trkpt>
      <trkpt lat="50.78899" lon="1.60895">
        <ele>12.2</ele>
        <time>2020-06-22T18:32:33Z</time>
      </trkpt>
      <trkpt lat="50.78904" lon="1.609">
        <ele>12.2</ele>
        <time>2020-06-22T18:32:34Z</time>
      </trkpt>
      <trkpt lat="50.7891" lon="1.60906">
        <ele>12.3</ele>
        <time>2020-06-22T18:32:35Z</time>
      </trkpt>
      <trkpt lat="50.78915" lon="1.60911">
        <ele>12.3</ele>
        <time>2020-06-22T18:32:36Z</time>
      </trkpt>
      <trkpt lat="50.78921" lon="1.60916">
        <ele>12.3</ele>
        <time>2020-06-22T18:32:37Z</time>
      </trkpt>
      <trkpt lat="50.78927" lon="1.60921">
        <ele>12.3</ele>
        <time>2020-06-22T18:32:38Z</time>
      </trkpt>
      <trkpt lat="50.78932" lon="1.60926">
        <ele>12.3</ele>
        <time>2020-06-22T18:32:39Z</time>
      </trkpt>
      <trkpt lat="50.78937" lon="1.60931">
        <ele>12.3</ele>
        <time>2020-06-22T18:32:40Z</time>
      </trkpt>
      <trkpt lat="50.78943" lon="1.60936">
        <ele>12.4</ele>
        <time>2020-06-22T18:32:41Z</time>
      </trkpt>
      <trkpt lat="50.78948" lon="1.60941">
        <ele>12.4</ele>
        <time>2020-06-22T18:32:42Z</time>
      </trkpt>
      <trkpt lat="50.78954" lon="1.60947">
        <ele>12.4</ele>
        <time>2020-06-22T18:32:43Z</time>
      </trkpt>
      <trkpt lat="50.78959" lon="1.60952">
        <ele>12.5</ele>
        <time>2020-06-22T18:32:44Z</time>
      </trkpt>
      <trkpt lat="50.78965" lon="1.60958">
        <ele>12.6</ele>
        <time>2020-06-22T18:32:45Z</time>
      </trkpt>
      <trkpt lat="50.78971" lon="1.60964">
        <ele>12.7</ele>
        <time>2020-06-22T18:32:46Z</time>
      </trkpt>
      <trkpt lat="50.78977" lon="1.6097">
        <ele>12.6</ele>
        <time>2020-06-22T18:32:47Z</time>
      </trkpt>
      <trkpt lat="50.78983" lon="1.60975">
        <ele>12.5</ele>
        <time>2020-06-22T18:32:48Z</time>
      </trkpt>
      <trkpt lat="50.78988" lon="1.6098">
        <ele>12.5</ele>
        <time>2020-06-22T18:32:49Z</time>
      </trkpt>
      <trkpt lat="50.78994" lon="1.60985">
        <ele>12.5</ele>
        <time>2020-06-22T18:32:50Z</time>
      </trkpt>
      <trkpt lat="50.79" lon="1.60991">
        <ele>12.4</ele>
        <time>2020-06-22T18:32:51Z</time>
      </trkpt>
      <trkpt lat="50.79006" lon="1.60996">
        <ele>12.4</ele>
        <time>2020-06-22T18:32:52Z</time>
      </trkpt>
      <trkpt lat="50.79012" lon="1.61001">
        <ele>12.4</ele>
        <time>2020-06-22T18:32:53Z</time>
      </trkpt>
      <trkpt lat="50.79018" lon="1.61005">
        <ele>12.5</ele>
        <time>2020-06-22T18:32:54Z</time>
      </trkpt>
      <trkpt lat="50.79024" lon="1.6101">
        <ele>12.6</ele>
        <time>2020-06-22T18:32:55Z</time>
      </trkpt>
      <trkpt lat="50.79031" lon="1.61013">
        <ele>12.7</ele>
        <time>2020-06-22T18:32:56Z</time>
      </trkpt>
      <trkpt lat="50.79037" lon="1.61017">
        <ele>12.8</ele>
        <time>2020-06-22T18:32:57Z</time>
      </trkpt>
      <trkpt lat="50.79044" lon="1.61019">
        <ele>13</ele>
        <time>2020-06-22T18:32:58Z</time>
      </trkpt>
      <trkpt lat="50.7905" lon="1.6102">
        <ele>13.2</ele>
        <time>2020-06-22T18:32:59Z</time>
      </trkpt>
      <trkpt lat="50.79057" lon="1.61022">
        <ele>13.4</ele>
        <time>2020-06-22T18:33:00Z</time>
      </trkpt>
      <trkpt lat="50.79063" lon="1.61023">
        <ele>13.6</ele>
        <time>2020-06-22T18:33:01Z</time>
      </trkpt>
      <trkpt lat="50.79069" lon="1.61024">
        <ele>13.8</ele>
        <time>2020-06-22T18:33:02Z</time>
      </trkpt>
      <trkpt lat="50.79076" lon="1.61025">
        <ele>14</ele>
        <time>2020-06-22T18:33:03Z</time>
      </trkpt>
      <trkpt lat="50.79082" lon="1.61026">
        <ele>14.2</ele>
        <time>2020-06-22T18:33:04Z</time>
      </trkpt>
      <trkpt lat="50.79089" lon="1.61026">
        <ele>14.5</ele>
        <time>2020-06-22T18:33:05Z</time>
      </trkpt>
      <trkpt lat="50.79095" lon="1.61027">
        <ele>14.8</ele>
        <time>2020-06-22T18:33:06Z</time>
      </trkpt>
      <trkpt lat="50.79101" lon="1.61028">
        <ele>14.8</ele>
        <time>2020-06-22T18:33:07Z</time>
      </trkpt>
      <trkpt lat="50.79107" lon="1.61029">
        <ele>14.9</ele>
        <time>2020-06-22T18:33:08Z</time>
      </trkpt>
      <trkpt lat="50.79113" lon="1.61031">
        <ele>15.2</ele>
        <time>2020-06-22T18:33:09Z</time>
      </trkpt>
      <trkpt lat="50.79118" lon="1.61032">
        <ele>15.5</ele>
        <time>2020-06-22T18:33:10Z</time>
      </trkpt>
      <trkpt lat="50.79124" lon="1.61033">
        <ele>15.8</ele>
        <time>2020-06-22T18:33:11Z</time>
      </trkpt>
      <trkpt lat="50.7913" lon="1.61033">
        <ele>16.1</ele>
        <time>2020-06-22T18:33:12Z</time>
      </trkpt>
      <trkpt lat="50.79135" lon="1.61034">
        <ele>16.3</ele>
        <time>2020-06-22T18:33:13Z</time>
      </trkpt>
      <trkpt lat="50.79141" lon="1.61034">
        <ele>16.6</ele>
        <time>2020-06-22T18:33:14Z</time>
      </trkpt>
      <trkpt lat="50.79146" lon="1.61035">
        <ele>16.9</ele>
        <time>2020-06-22T18:33:15Z</time>
      </trkpt>
      <trkpt lat="50.79151" lon="1.61036">
        <ele>17.2</ele>
        <time>2020-06-22T18:33:16Z</time>
      </trkpt>
      <trkpt lat="50.79155" lon="1.61037">
        <ele>17.5</ele>
        <time>2020-06-22T18:33:17Z</time>
      </trkpt>
      <trkpt lat="50.7916" lon="1.61038">
        <ele>17.8</ele>
        <time>2020-06-22T18:33:18Z</time>
      </trkpt>
      <trkpt lat="50.79165" lon="1.61039">
        <ele>18.1</ele>
        <time>2020-06-22T18:33:19Z</time>
      </trkpt>
      <trkpt lat="50.79169" lon="1.6104">
        <ele>18.4</ele>
        <time>2020-06-22T18:33:20Z</time>
      </trkpt>
      <trkpt lat="50.79174" lon="1.61041">
        <ele>18.7</ele>
        <time>2020-06-22T18:33:21Z</time>
      </trkpt>
      <trkpt lat="50.79178" lon="1.61042">
        <ele>19</ele>
        <time>2020-06-22T18:33:22Z</time>
      </trkpt>
      <trkpt lat="50.79182" lon="1.61043">
        <ele>19.3</ele>
        <time>2020-06-22T18:33:23Z</time>
      </trkpt>
      <trkpt lat="50.79186" lon="1.61043">
        <ele>19.5</ele>
        <time>2020-06-22T18:33:24Z</time>
      </trkpt>
      <trkpt lat="50.7919" lon="1.61044">
        <ele>19.8</ele>
        <time>2020-06-22T18:33:25Z</time>
      </trkpt>
      <trkpt lat="50.79193" lon="1.61045">
        <ele>20</ele>
        <time>2020-06-22T18:33:26Z</time>
      </trkpt>
      <trkpt lat="50.79197" lon="1.61046">
        <ele>20.2</ele>
        <time>2020-06-22T18:33:27Z</time>
      </trkpt>
      <trkpt lat="50.792" lon="1.61047">
        <ele>20.4</ele>
        <time>2020-06-22T18:33:28Z</time>
      </trkpt>
      <trkpt lat="50.79204" lon="1.61049">
        <ele>20.7</ele>
        <time>2020-06-22T18:33:29Z</time>
      </trkpt>
      <trkpt lat="50.79207" lon="1.61051">
        <ele>20.9</ele>
        <time>2020-06-22T18:33:30Z</time>
      </trkpt>
      <trkpt lat="50.79211" lon="1.61053">
        <ele>21.1</ele>
        <time>2020-06-22T18:33:31Z</time>
      </trkpt>
      <trkpt lat="50.79214" lon="1.61055">
        <ele>21.4</ele>
        <time>2020-06-22T18:33:32Z</time>
      </trkpt>
      <trkpt lat="50.79218" lon="1.61058">
        <ele>21.6</ele>
        <time>2020-06-22T18:33:33Z</time>
      </trkpt>
      <trkpt lat="50.79221" lon="1.61061">
        <ele>21.8</ele>
        <time>2020-06-22T18:33:34Z</time>
      </trkpt>
      <trkpt lat="50.79224" lon="1.61063">
        <ele>21.9</ele>
        <time>2020-06-22T18:33:35Z</time>
      </trkpt>
      <trkpt lat="50.79229" lon="1.61067">
        <ele>22.1</ele>
        <time>2020-06-22T18:33:36Z</time>
      </trkpt>
      <trkpt lat="50.79232" lon="1.61071">
        <ele>22.2</ele>
        <time>2020-06-22T18:33:37Z</time>
      </trkpt>
      <trkpt lat="50.79235" lon="1.61074">
        <ele>22.6</ele>
        <time>2020-06-22T18:33:38Z</time>
      </trkpt>
      <trkpt lat="50.79238" lon="1.61079">
        <ele>22.9</ele>
        <time>2020-06-22T18:33:39Z</time>
      </trkpt>
      <trkpt lat="50.79242" lon="1.61084">
        <ele>23</ele>
        <time>2020-06-22T18:33:40Z</time>
      </trkpt>
      <trkpt lat="50.79245" lon="1.61089">
        <ele>23.2</ele>
        <time>2020-06-22T18:33:41Z</time>
      </trkpt>
      <trkpt lat="50.79249" lon="1.61094">
        <ele>23.3</ele>
        <time>2020-06-22T18:33:42Z</time>
      </trkpt>
      <trkpt lat="50.79251" lon="1.61098">
        <ele>23.4</ele>
        <time>2020-06-22T18:33:43Z</time>
      </trkpt>
      <trkpt lat="50.79254" lon="1.61104">
        <ele>23.6</ele>
        <time>2020-06-22T18:33:44Z</time>
      </trkpt>
      <trkpt lat="50.79257" lon="1.6111">
        <ele>23.7</ele>
        <time>2020-06-22T18:33:45Z</time>
      </trkpt>
      <trkpt lat="50.7926" lon="1.61116">
        <ele>23.7</ele>
        <time>2020-06-22T18:33:46Z</time>
      </trkpt>
      <trkpt lat="50.79263" lon="1.61122">
        <ele>23.8</ele>
        <time>2020-06-22T18:33:47Z</time>
      </trkpt>
      <trkpt lat="50.79266" lon="1.61129">
        <ele>23.9</ele>
        <time>2020-06-22T18:33:48Z</time>
      </trkpt>
      <trkpt lat="50.79269" lon="1.61137">
        <ele>23.9</ele>
        <time>2020-06-22T18:33:49Z</time>
      </trkpt>
      <trkpt lat="50.79272" lon="1.61144">
        <ele>23.9</ele>
        <time>2020-06-22T18:33:50Z</time>
      </trkpt>
      <trkpt lat="50.79275" lon="1.61153">
        <ele>23.9</ele>
        <time>2020-06-22T18:33:51Z</time>
      </trkpt>
      <trkpt lat="50.79278" lon="1.61161">
        <ele>23.9</ele>
        <time>2020-06-22T18:33:52Z</time>
      </trkpt>
      <trkpt lat="50.79281" lon="1.6117">
        <ele>23.8</ele>
        <time>2020-06-22T18:33:53Z</time>
      </trkpt>
      <trkpt lat="50.79283" lon="1.61178">
        <ele>23.7</ele>
        <time>2020-06-22T18:33:54Z</time>
      </trkpt>
      <trkpt lat="50.79285" lon="1.61184">
        <ele>23.7</ele>
        <time>2020-06-22T18:33:55Z</time>
      </trkpt>
      <trkpt lat="50.79287" lon="1.61192">
        <ele>23.6</ele>
        <time>2020-06-22T18:33:56Z</time>
      </trkpt>
      <trkpt lat="50.7929" lon="1.612">
        <ele>23.5</ele>
        <time>2020-06-22T18:33:57Z</time>
      </trkpt>
      <trkpt lat="50.79293" lon="1.61208">
        <ele>23.4</ele>
        <time>2020-06-22T18:33:58Z</time>
      </trkpt>
      <trkpt lat="50.79297" lon="1.61217">
        <ele>23.2</ele>
        <time>2020-06-22T18:33:59Z</time>
      </trkpt>
      <trkpt lat="50.79301" lon="1.61225">
        <ele>23</ele>
        <time>2020-06-22T18:34:00Z</time>
      </trkpt>
      <trkpt lat="50.79307" lon="1.61232">
        <ele>22.7</ele>
        <time>2020-06-22T18:34:01Z</time>
      </trkpt>
      <trkpt lat="50.79312" lon="1.61238">
        <ele>22.4</ele>
        <time>2020-06-22T18:34:02Z</time>
      </trkpt>
      <trkpt lat="50.79319" lon="1.61242">
        <ele>22.1</ele>
        <time>2020-06-22T18:34:03Z</time>
      </trkpt>
      <trkpt lat="50.79326" lon="1.61244">
        <ele>21.6</ele>
        <time>2020-06-22T18:34:04Z</time>
      </trkpt>
      <trkpt lat="50.79334" lon="1.61246">
        <ele>21.1</ele>
        <time>2020-06-22T18:34:05Z</time>
      </trkpt>
      <trkpt lat="50.79342" lon="1.61247">
        <ele>20.5</ele>
        <time>2020-06-22T18:34:06Z</time>
      </trkpt>
      <trkpt lat="50.79351" lon="1.61247">
        <ele>19.9</ele>
        <time>2020-06-22T18:34:07Z</time>
      </trkpt>
      <trkpt lat="50.7936" lon="1.61247">
        <ele>19.3</ele>
        <time>2020-06-22T18:34:08Z</time>
      </trkpt>
      <trkpt lat="50.79369" lon="1.61247">
        <ele>18.6</ele>
        <time>2020-06-22T18:34:09Z</time>
      </trkpt>
      <trkpt lat="50.79379" lon="1.61248">
        <ele>18</ele>
        <time>2020-06-22T18:34:10Z</time>
      </trkpt>
      <trkpt lat="50.79388" lon="1.61248">
        <ele>17.3</ele>
        <time>2020-06-22T18:34:11Z</time>
      </trkpt>
      <trkpt lat="50.79398" lon="1.61249">
        <ele>16.6</ele>
        <time>2020-06-22T18:34:12Z</time>
      </trkpt>
      <trkpt lat="50.79408" lon="1.61249">
        <ele>15.9</ele>
        <time>2020-06-22T18:34:13Z</time>
      </trkpt>
      <trkpt lat="50.79418" lon="1.6125">
        <ele>15.2</ele>
        <time>2020-06-22T18:34:14Z</time>
      </trkpt>
      <trkpt lat="50.79428" lon="1.6125">
        <ele>14.6</ele>
        <time>2020-06-22T18:34:15Z</time>
      </trkpt>
      <trkpt lat="50.79438" lon="1.61251">
        <ele>14</ele>
        <time>2020-06-22T18:34:16Z</time>
      </trkpt>
      <trkpt lat="50.79449" lon="1.61252">
        <ele>13.3</ele>
        <time>2020-06-22T18:34:17Z</time>
      </trkpt>
      <trkpt lat="50.79459" lon="1.61253">
        <ele>12.6</ele>
        <time>2020-06-22T18:34:18Z</time>
      </trkpt>
      <trkpt lat="50.7947" lon="1.61253">
        <ele>11.9</ele>
        <time>2020-06-22T18:34:19Z</time>
      </trkpt>
      <trkpt lat="50.7948" lon="1.61254">
        <ele>11.3</ele>
        <time>2020-06-22T18:34:20Z</time>
      </trkpt>
      <trkpt lat="50.7949" lon="1.61254">
        <ele>10.5</ele>
        <time>2020-06-22T18:34:21Z</time>
      </trkpt>
      <trkpt lat="50.79501" lon="1.61255">
        <ele>9.8</ele>
        <time>2020-06-22T18:34:22Z</time>
      </trkpt>
      <trkpt lat="50.79511" lon="1.61256">
        <ele>9.2</ele>
        <time>2020-06-22T18:34:23Z</time>
      </trkpt>
      <trkpt lat="50.79522" lon="1.61257">
        <ele>8.6</ele>
        <time>2020-06-22T18:34:24Z</time>
      </trkpt>
      <trkpt lat="50.79532" lon="1.61258">
        <ele>8.1</ele>
        <time>2020-06-22T18:34:25Z</time>
      </trkpt>
      <trkpt lat="50.79542" lon="1.61258">
        <ele>7.7</ele>
        <time>2020-06-22T18:34:26Z</time>
      </trkpt>
      <trkpt lat="50.79552" lon="1.61259">
        <ele>7.4</ele>
        <time>2020-06-22T18:34:27Z</time>
      </trkpt>
      <trkpt lat="50.79562" lon="1.61259">
        <ele>7.2</ele>
        <time>2020-06-22T18:34:28Z</time>
      </trkpt>
      <trkpt lat="50.79572" lon="1.6126">
        <ele>7</ele>
        <time>2020-06-22T18:34:29Z</time>
      </trkpt>
      <trkpt lat="50.79581" lon="1.6126">
        <ele>6.9</ele>
        <time>2020-06-22T18:34:30Z</time>
      </trkpt>
      <trkpt lat="50.7959" lon="1.61261">
        <ele>6.8</ele>
        <time>2020-06-22T18:34:31Z</time>
      </trkpt>
      <trkpt lat="50.79599" lon="1.61262">
        <ele>6.8</ele>
        <time>2020-06-22T18:34:32Z</time>
      </trkpt>
      <trkpt lat="50.79607" lon="1.61262">
        <ele>6.8</ele>
        <time>2020-06-22T18:34:33Z</time>
      </trkpt>
      <trkpt lat="50.79616" lon="1.61263">
        <ele>6.8</ele>
        <time>2020-06-22T18:34:34Z</time>
      </trkpt>
      <trkpt lat="50.79624" lon="1.61264">
        <ele>6.8</ele>
        <time>2020-06-22T18:34:35Z</time>
      </trkpt>
      <trkpt lat="50.79631" lon="1.61264">
        <ele>6.9</ele>
        <time>2020-06-22T18:34:36Z</time>
      </trkpt>
      <trkpt lat="50.79638" lon="1.61265">
        <ele>7</ele>
        <time>2020-06-22T18:34:37Z</time>
      </trkpt>
      <trkpt lat="50.79645" lon="1.61266">
        <ele>7.1</ele>
        <time>2020-06-22T18:34:38Z</time>
      </trkpt>
      <trkpt lat="50.79652" lon="1.61266">
        <ele>7.2</ele>
        <time>2020-06-22T18:34:39Z</time>
      </trkpt>
      <trkpt lat="50.79659" lon="1.61267">
        <ele>7.3</ele>
        <time>2020-06-22T18:34:40Z</time>
      </trkpt>
      <trkpt lat="50.79665" lon="1.61268">
        <ele>7.4</ele>
        <time>2020-06-22T18:34:41Z</time>
      </trkpt>
      <trkpt lat="50.79672" lon="1.61269">
        <ele>7.5</ele>
        <time>2020-06-22T18:34:42Z</time>
      </trkpt>
      <trkpt lat="50.79678" lon="1.6127">
        <ele>7.5</ele>
        <time>2020-06-22T18:34:43Z</time>
      </trkpt>
      <trkpt lat="50.79685" lon="1.61271">
        <ele>7.6</ele>
        <time>2020-06-22T18:34:44Z</time>
      </trkpt>
      <trkpt lat="50.79692" lon="1.61273">
        <ele>7.6</ele>
        <time>2020-06-22T18:34:45Z</time>
      </trkpt>
      <trkpt lat="50.79698" lon="1.61275">
        <ele>7.6</ele>
        <time>2020-06-22T18:34:46Z</time>
      </trkpt>
      <trkpt lat="50.79704" lon="1.6128">
        <ele>7.6</ele>
        <time>2020-06-22T18:34:47Z</time>
      </trkpt>
      <trkpt lat="50.7971" lon="1.61284">
        <ele>7.6</ele>
        <time>2020-06-22T18:34:48Z</time>
      </trkpt>
      <trkpt lat="50.79716" lon="1.61288">
        <ele>7.6</ele>
        <time>2020-06-22T18:34:49Z</time>
      </trkpt>
      <trkpt lat="50.79722" lon="1.61292">
        <ele>7.5</ele>
        <time>2020-06-22T18:34:50Z</time>
      </trkpt>
      <trkpt lat="50.79728" lon="1.61298">
        <ele>7.5</ele>
        <time>2020-06-22T18:34:51Z</time>
      </trkpt>
      <trkpt lat="50.79734" lon="1.61304">
        <ele>7.4</ele>
        <time>2020-06-22T18:34:52Z</time>
      </trkpt>
      <trkpt lat="50.79739" lon="1.61311">
        <ele>7.3</ele>
        <time>2020-06-22T18:34:53Z</time>
      </trkpt>
      <trkpt lat="50.79745" lon="1.61319">
        <ele>7.3</ele>
        <time>2020-06-22T18:34:54Z</time>
      </trkpt>
      <trkpt lat="50.7975" lon="1.61327">
        <ele>7.2</ele>
        <time>2020-06-22T18:34:55Z</time>
      </trkpt>
      <trkpt lat="50.79754" lon="1.61336">
        <ele>7.2</ele>
        <time>2020-06-22T18:34:56Z</time>
      </trkpt>
      <trkpt lat="50.7976" lon="1.61343">
        <ele>7.1</ele>
        <time>2020-06-22T18:34:57Z</time>
      </trkpt>
      <trkpt lat="50.79765" lon="1.61352">
        <ele>7.1</ele>
        <time>2020-06-22T18:34:58Z</time>
      </trkpt>
      <trkpt lat="50.7977" lon="1.6136">
        <ele>7.1</ele>
        <time>2020-06-22T18:34:59Z</time>
      </trkpt>
      <trkpt lat="50.79775" lon="1.61369">
        <ele>7</ele>
        <time>2020-06-22T18:35:00Z</time>
      </trkpt>
      <trkpt lat="50.7978" lon="1.61377">
        <ele>7</ele>
        <time>2020-06-22T18:35:01Z</time>
      </trkpt>
      <trkpt lat="50.79785" lon="1.61385">
        <ele>7</ele>
        <time>2020-06-22T18:35:02Z</time>
      </trkpt>
      <trkpt lat="50.7979" lon="1.61393">
        <ele>7</ele>
        <time>2020-06-22T18:35:03Z</time>
      </trkpt>
      <trkpt lat="50.79796" lon="1.614">
        <ele>7</ele>
        <time>2020-06-22T18:35:04Z</time>
      </trkpt>
      <trkpt lat="50.79802" lon="1.61406">
        <ele>6.9</ele>
        <time>2020-06-22T18:35:05Z</time>
      </trkpt>
      <trkpt lat="50.79808" lon="1.61412">
        <ele>6.9</ele>
        <time>2020-06-22T18:35:06Z</time>
      </trkpt>
      <trkpt lat="50.79814" lon="1.61418">
        <ele>6.8</ele>
        <time>2020-06-22T18:35:07Z</time>
      </trkpt>
      <trkpt lat="50.7982" lon="1.61424">
        <ele>6.8</ele>
        <time>2020-06-22T18:35:08Z</time>
      </trkpt>
      <trkpt lat="50.79827" lon="1.6143">
        <ele>6.8</ele>
        <time>2020-06-22T18:35:09Z</time>
      </trkpt>
      <trkpt lat="50.79833" lon="1.61435">
        <ele>6.8</ele>
        <time>2020-06-22T18:35:10Z</time>
      </trkpt>
      <trkpt lat="50.7984" lon="1.6144">
        <ele>6.8</ele>
        <time>2020-06-22T18:35:11Z</time>
      </trkpt>
      <trkpt lat="50.79846" lon="1.61446">
        <ele>6.8</ele>
        <time>2020-06-22T18:35:12Z</time>
      </trkpt>
      <trkpt lat="50.79853" lon="1.6145">
        <ele>6.8</ele>
        <time>2020-06-22T18:35:13Z</time>
      </trkpt>
      <trkpt lat="50.7986" lon="1.61455">
        <ele>6.8</ele>
        <time>2020-06-22T18:35:14Z</time>
      </trkpt>
      <trkpt lat="50.79866" lon="1.6146">
        <ele>6.9</ele>
        <time>2020-06-22T18:35:15Z</time>
      </trkpt>
      <trkpt lat="50.79873" lon="1.61466">
        <ele>6.9</ele>
        <time>2020-06-22T18:35:16Z</time>
      </trkpt>
      <trkpt lat="50.79879" lon="1.61471">
        <ele>6.9</ele>
        <time>2020-06-22T18:35:17Z</time>
      </trkpt>
      <trkpt lat="50.79886" lon="1.61476">
        <ele>6.9</ele>
        <time>2020-06-22T18:35:18Z</time>
      </trkpt>
      <trkpt lat="50.79892" lon="1.61481">
        <ele>6.9</ele>
        <time>2020-06-22T18:35:19Z</time>
      </trkpt>
      <trkpt lat="50.79898" lon="1.61487">
        <ele>6.9</ele>
        <time>2020-06-22T18:35:20Z</time>
      </trkpt>
      <trkpt lat="50.79904" lon="1.61492">
        <ele>7</ele>
        <time>2020-06-22T18:35:21Z</time>
      </trkpt>
      <trkpt lat="50.79911" lon="1.61496">
        <ele>7</ele>
        <time>2020-06-22T18:35:22Z</time>
      </trkpt>
      <trkpt lat="50.79917" lon="1.61501">
        <ele>7</ele>
        <time>2020-06-22T18:35:23Z</time>
      </trkpt>
      <trkpt lat="50.79923" lon="1.61507">
        <ele>7</ele>
        <time>2020-06-22T18:35:24Z</time>
      </trkpt>
      <trkpt lat="50.79929" lon="1.61512">
        <ele>7</ele>
        <time>2020-06-22T18:35:25Z</time>
      </trkpt>
      <trkpt lat="50.79936" lon="1.61518">
        <ele>7</ele>
        <time>2020-06-22T18:35:26Z</time>
      </trkpt>
      <trkpt lat="50.79942" lon="1.61524">
        <ele>7</ele>
        <time>2020-06-22T18:35:27Z</time>
      </trkpt>
      <trkpt lat="50.79949" lon="1.61529">
        <ele>7.1</ele>
        <time>2020-06-22T18:35:28Z</time>
      </trkpt>
      <trkpt lat="50.79955" lon="1.61534">
        <ele>7.1</ele>
        <time>2020-06-22T18:35:29Z</time>
      </trkpt>
      <trkpt lat="50.79961" lon="1.61539">
        <ele>7.2</ele>
        <time>2020-06-22T18:35:30Z</time>
      </trkpt>
      <trkpt lat="50.79967" lon="1.61543">
        <ele>7.2</ele>
        <time>2020-06-22T18:35:31Z</time>
      </trkpt>
      <trkpt lat="50.79973" lon="1.61548">
        <ele>7.3</ele>
        <time>2020-06-22T18:35:32Z</time>
      </trkpt>
      <trkpt lat="50.79979" lon="1.61553">
        <ele>7.4</ele>
        <time>2020-06-22T18:35:33Z</time>
      </trkpt>
      <trkpt lat="50.79984" lon="1.61557">
        <ele>7.5</ele>
        <time>2020-06-22T18:35:34Z</time>
      </trkpt>
      <trkpt lat="50.7999" lon="1.61562">
        <ele>7.5</ele>
        <time>2020-06-22T18:35:35Z</time>
      </trkpt>
      <trkpt lat="50.79996" lon="1.61567">
        <ele>7.7</ele>
        <time>2020-06-22T18:35:36Z</time>
      </trkpt>
      <trkpt lat="50.80001" lon="1.61572">
        <ele>7.8</ele>
        <time>2020-06-22T18:35:37Z</time>
      </trkpt>
      <trkpt lat="50.80007" lon="1.61577">
        <ele>8</ele>
        <time>2020-06-22T18:35:38Z</time>
      </trkpt>
      <trkpt lat="50.80013" lon="1.61582">
        <ele>8.1</ele>
        <time>2020-06-22T18:35:39Z</time>
      </trkpt>
      <trkpt lat="50.80019" lon="1.61587">
        <ele>8.2</ele>
        <time>2020-06-22T18:35:40Z</time>
      </trkpt>
      <trkpt lat="50.80025" lon="1.6159">
        <ele>8.1</ele>
        <time>2020-06-22T18:35:41Z</time>
      </trkpt>
      <trkpt lat="50.8003" lon="1.61594">
        <ele>8.1</ele>
        <time>2020-06-22T18:35:42Z</time>
      </trkpt>
      <trkpt lat="50.80036" lon="1.61596">
        <ele>8</ele>
        <time>2020-06-22T18:35:43Z</time>
      </trkpt>
      <trkpt lat="50.80042" lon="1.61597">
        <ele>8</ele>
        <time>2020-06-22T18:35:44Z</time>
      </trkpt>
      <trkpt lat="50.80049" lon="1.61598">
        <ele>7.9</ele>
        <time>2020-06-22T18:35:45Z</time>
      </trkpt>
      <trkpt lat="50.80055" lon="1.61599">
        <ele>7.9</ele>
        <time>2020-06-22T18:35:46Z</time>
      </trkpt>
      <trkpt lat="50.80062" lon="1.61599">
        <ele>7.9</ele>
        <time>2020-06-22T18:35:47Z</time>
      </trkpt>
      <trkpt lat="50.80068" lon="1.61598">
        <ele>7.8</ele>
        <time>2020-06-22T18:35:48Z</time>
      </trkpt>
      <trkpt lat="50.80075" lon="1.61595">
        <ele>7.8</ele>
        <time>2020-06-22T18:35:49Z</time>
      </trkpt>
      <trkpt lat="50.80081" lon="1.6159">
        <ele>7.8</ele>
        <time>2020-06-22T18:35:50Z</time>
      </trkpt>
      <trkpt lat="50.80086" lon="1.61583">
        <ele>7.7</ele>
        <time>2020-06-22T18:35:51Z</time>
      </trkpt>
      <trkpt lat="50.80092" lon="1.61576">
        <ele>7.7</ele>
        <time>2020-06-22T18:35:52Z</time>
      </trkpt>
      <trkpt lat="50.80098" lon="1.6157">
        <ele>7.7</ele>
        <time>2020-06-22T18:35:53Z</time>
      </trkpt>
      <trkpt lat="50.80104" lon="1.61564">
        <ele>7.6</ele>
        <time>2020-06-22T18:35:54Z</time>
      </trkpt>
      <trkpt lat="50.8011" lon="1.61557">
        <ele>7.6</ele>
        <time>2020-06-22T18:35:55Z</time>
      </trkpt>
      <trkpt lat="50.80116" lon="1.6155">
        <ele>7.5</ele>
        <time>2020-06-22T18:35:56Z</time>
      </trkpt>
      <trkpt lat="50.80122" lon="1.61543">
        <ele>7.5</ele>
        <time>2020-06-22T18:35:57Z</time>
      </trkpt>
      <trkpt lat="50.80129" lon="1.61537">
        <ele>7.5</ele>
        <time>2020-06-22T18:35:58Z</time>
      </trkpt>
      <trkpt lat="50.80135" lon="1.61531">
        <ele>7.5</ele>
        <time>2020-06-22T18:35:59Z</time>
      </trkpt>
      <trkpt lat="50.8014" lon="1.61525">
        <ele>7.6</ele>
        <time>2020-06-22T18:36:00Z</time>
      </trkpt>
      <trkpt lat="50.80146" lon="1.61519">
        <ele>7.6</ele>
        <time>2020-06-22T18:36:01Z</time>
      </trkpt>
      <trkpt lat="50.80152" lon="1.61513">
        <ele>7.7</ele>
        <time>2020-06-22T18:36:02Z</time>
      </trkpt>
      <trkpt lat="50.80157" lon="1.61507">
        <ele>7.8</ele>
        <time>2020-06-22T18:36:03Z</time>
      </trkpt>
      <trkpt lat="50.80163" lon="1.61502">
        <ele>7.9</ele>
        <time>2020-06-22T18:36:04Z</time>
      </trkpt>
      <trkpt lat="50.80169" lon="1.61497">
        <ele>8</ele>
        <time>2020-06-22T18:36:05Z</time>
      </trkpt>
      <trkpt lat="50.80174" lon="1.61491">
        <ele>8.1</ele>
        <time>2020-06-22T18:36:06Z</time>
      </trkpt>
      <trkpt lat="50.80178" lon="1.61486">
        <ele>8.2</ele>
        <time>2020-06-22T18:36:07Z</time>
      </trkpt>
      <trkpt lat="50.80183" lon="1.6148">
        <ele>8.3</ele>
        <time>2020-06-22T18:36:08Z</time>
      </trkpt>
      <trkpt lat="50.80188" lon="1.61475">
        <ele>8.4</ele>
        <time>2020-06-22T18:36:09Z</time>
      </trkpt>
      <trkpt lat="50.80193" lon="1.6147">
        <ele>8.5</ele>
        <time>2020-06-22T18:36:10Z</time>
      </trkpt>
      <trkpt lat="50.80198" lon="1.61465">
        <ele>8.6</ele>
        <time>2020-06-22T18:36:11Z</time>
      </trkpt>
      <trkpt lat="50.80203" lon="1.61462">
        <ele>8.6</ele>
        <time>2020-06-22T18:36:12Z</time>
      </trkpt>
      <trkpt lat="50.80209" lon="1.61457">
        <ele>8.8</ele>
        <time>2020-06-22T18:36:13Z</time>
      </trkpt>
      <trkpt lat="50.80214" lon="1.61454">
        <ele>8.9</ele>
        <time>2020-06-22T18:36:14Z</time>
      </trkpt>
      <trkpt lat="50.8022" lon="1.6145">
        <ele>9</ele>
        <time>2020-06-22T18:36:15Z</time>
      </trkpt>
      <trkpt lat="50.80226" lon="1.61449">
        <ele>9.1</ele>
        <time>2020-06-22T18:36:16Z</time>
      </trkpt>
      <trkpt lat="50.80233" lon="1.61448">
        <ele>9.3</ele>
        <time>2020-06-22T18:36:17Z</time>
      </trkpt>
      <trkpt lat="50.80239" lon="1.61448">
        <ele>9.3</ele>
        <time>2020-06-22T18:36:18Z</time>
      </trkpt>
      <trkpt lat="50.80245" lon="1.6145">
        <ele>9.4</ele>
        <time>2020-06-22T18:36:19Z</time>
      </trkpt>
      <trkpt lat="50.80251" lon="1.61452">
        <ele>9.6</ele>
        <time>2020-06-22T18:36:20Z</time>
      </trkpt>
      <trkpt lat="50.80258" lon="1.61453">
        <ele>9.7</ele>
        <time>2020-06-22T18:36:21Z</time>
      </trkpt>
      <trkpt lat="50.80264" lon="1.61455">
        <ele>9.8</ele>
        <time>2020-06-22T18:36:22Z</time>
      </trkpt>
      <trkpt lat="50.8027" lon="1.61457">
        <ele>9.9</ele>
        <time>2020-06-22T18:36:23Z</time>
      </trkpt>
      <trkpt lat="50.80276" lon="1.61459">
        <ele>9.9</ele>
        <time>2020-06-22T18:36:24Z</time>
      </trkpt>
      <trkpt lat="50.80281" lon="1.61461">
        <ele>10</ele>
        <time>2020-06-22T18:36:25Z</time>
      </trkpt>
      <trkpt lat="50.80287" lon="1.61463">
        <ele>10.1</ele>
        <time>2020-06-22T18:36:26Z</time>
      </trkpt>
      <trkpt lat="50.80291" lon="1.61465">
        <ele>10.2</ele>
        <time>2020-06-22T18:36:27Z</time>
      </trkpt>
      <trkpt lat="50.80297" lon="1.61467">
        <ele>10.4</ele>
        <time>2020-06-22T18:36:28Z</time>
      </trkpt>
      <trkpt lat="50.80302" lon="1.61468">
        <ele>10.5</ele>
        <time>2020-06-22T18:36:29Z</time>
      </trkpt>
      <trkpt lat="50.80309" lon="1.6147">
        <ele>10.8</ele>
        <time>2020-06-22T18:36:30Z</time>
      </trkpt>
      <trkpt lat="50.80315" lon="1.61472">
        <ele>11</ele>
        <time>2020-06-22T18:36:31Z</time>
      </trkpt>
      <trkpt lat="50.80319" lon="1.61474">
        <ele>11.1</ele>
        <time>2020-06-22T18:36:32Z</time>
      </trkpt>
      <trkpt lat="50.80323" lon="1.61477">
        <ele>11.2</ele>
        <time>2020-06-22T18:36:33Z</time>
      </trkpt>
      <trkpt lat="50.80329" lon="1.61479">
        <ele>11.3</ele>
        <time>2020-06-22T18:36:34Z</time>
      </trkpt>
      <trkpt lat="50.80334" lon="1.61482">
        <ele>11.3</ele>
        <time>2020-06-22T18:36:35Z</time>
      </trkpt>
      <trkpt lat="50.8034" lon="1.61485">
        <ele>11.6</ele>
        <time>2020-06-22T18:36:36Z</time>
      </trkpt>
      <trkpt lat="50.80345" lon="1.61487">
        <ele>11.8</ele>
        <time>2020-06-22T18:36:37Z</time>
      </trkpt>
      <trkpt lat="50.8035" lon="1.6149">
        <ele>11.9</ele>
        <time>2020-06-22T18:36:38Z</time>
      </trkpt>
      <trkpt lat="50.80355" lon="1.61493">
        <ele>12.2</ele>
        <time>2020-06-22T18:36:39Z</time>
      </trkpt>
      <trkpt lat="50.8036" lon="1.61496">
        <ele>12.3</ele>
        <time>2020-06-22T18:36:40Z</time>
      </trkpt>
      <trkpt lat="50.80363" lon="1.61499">
        <ele>12.3</ele>
        <time>2020-06-22T18:36:41Z</time>
      </trkpt>
      <trkpt lat="50.80367" lon="1.61499">
        <ele>12.5</ele>
        <time>2020-06-22T18:36:42Z</time>
      </trkpt>
      <trkpt lat="50.8037" lon="1.61501">
        <ele>12.6</ele>
        <time>2020-06-22T18:36:43Z</time>
      </trkpt>
      <trkpt lat="50.80374" lon="1.61503">
        <ele>12.8</ele>
        <time>2020-06-22T18:36:44Z</time>
      </trkpt>
      <trkpt lat="50.80378" lon="1.61505">
        <ele>13.1</ele>
        <time>2020-06-22T18:36:45Z</time>
      </trkpt>
      <trkpt lat="50.80382" lon="1.61508">
        <ele>13.3</ele>
        <time>2020-06-22T18:36:46Z</time>
      </trkpt>
      <trkpt lat="50.80386" lon="1.61512">
        <ele>13.5</ele>
        <time>2020-06-22T18:36:47Z</time>
      </trkpt>
      <trkpt lat="50.80389" lon="1.61515">
        <ele>13.7</ele>
        <time>2020-06-22T18:36:48Z</time>
      </trkpt>
      <trkpt lat="50.80392" lon="1.61518">
        <ele>13.9</ele>
        <time>2020-06-22T18:36:49Z</time>
      </trkpt>
      <trkpt lat="50.80396" lon="1.61524">
        <ele>14.1</ele>
        <time>2020-06-22T18:36:50Z</time>
      </trkpt>
      <trkpt lat="50.80398" lon="1.61529">
        <ele>14.3</ele>
        <time>2020-06-22T18:36:51Z</time>
      </trkpt>
      <trkpt lat="50.80401" lon="1.61536">
        <ele>14.6</ele>
        <time>2020-06-22T18:36:52Z</time>
      </trkpt>
      <trkpt lat="50.80404" lon="1.61541">
        <ele>14.8</ele>
        <time>2020-06-22T18:36:53Z</time>
      </trkpt>
      <trkpt lat="50.80406" lon="1.61546">
        <ele>15</ele>
        <time>2020-06-22T18:36:54Z</time>
      </trkpt>
      <trkpt lat="50.80409" lon="1.61552">
        <ele>15.3</ele>
        <time>2020-06-22T18:36:55Z</time>
      </trkpt>
      <trkpt lat="50.80412" lon="1.61559">
        <ele>15.5</ele>
        <time>2020-06-22T18:36:56Z</time>
      </trkpt>
      <trkpt lat="50.80415" lon="1.61565">
        <ele>15.7</ele>
        <time>2020-06-22T18:36:57Z</time>
      </trkpt>
      <trkpt lat="50.80418" lon="1.6157">
        <ele>15.9</ele>
        <time>2020-06-22T18:36:58Z</time>
      </trkpt>
      <trkpt lat="50.80421" lon="1.61575">
        <ele>16.1</ele>
        <time>2020-06-22T18:36:59Z</time>
      </trkpt>
      <trkpt lat="50.80423" lon="1.61578">
        <ele>16.2</ele>
        <time>2020-06-22T18:37:00Z</time>
      </trkpt>
      <trkpt lat="50.80427" lon="1.61582">
        <ele>16.4</ele>
        <time>2020-06-22T18:37:01Z</time>
      </trkpt>
      <trkpt lat="50.80428" lon="1.61585">
        <ele>16.5</ele>
        <time>2020-06-22T18:37:02Z</time>
      </trkpt>
      <trkpt lat="50.80431" lon="1.6159">
        <ele>16.6</ele>
        <time>2020-06-22T18:37:03Z</time>
      </trkpt>
      <trkpt lat="50.80433" lon="1.61593">
        <ele>16.8</ele>
        <time>2020-06-22T18:37:04Z</time>
      </trkpt>
      <trkpt lat="50.80435" lon="1.61597">
        <ele>16.9</ele>
        <time>2020-06-22T18:37:05Z</time>
      </trkpt>
      <trkpt lat="50.80438" lon="1.61602">
        <ele>17</ele>
        <time>2020-06-22T18:37:06Z</time>
      </trkpt>
      <trkpt lat="50.8044" lon="1.61607">
        <ele>17.2</ele>
        <time>2020-06-22T18:37:07Z</time>
      </trkpt>
      <trkpt lat="50.80442" lon="1.61611">
        <ele>17.3</ele>
        <time>2020-06-22T18:37:08Z</time>
      </trkpt>
      <trkpt lat="50.80445" lon="1.61615">
        <ele>17.5</ele>
        <time>2020-06-22T18:37:09Z</time>
      </trkpt>
      <trkpt lat="50.80449" lon="1.6162">
        <ele>17.6</ele>
        <time>2020-06-22T18:37:10Z</time>
      </trkpt>
      <trkpt lat="50.80452" lon="1.61625">
        <ele>17.8</ele>
        <time>2020-06-22T18:37:11Z</time>
      </trkpt>
      <trkpt lat="50.80455" lon="1.6163">
        <ele>18</ele>
        <time>2020-06-22T18:37:12Z</time>
      </trkpt>
      <trkpt lat="50.80459" lon="1.61633">
        <ele>18.1</ele>
        <time>2020-06-22T18:37:13Z</time>
      </trkpt>
      <trkpt lat="50.80462" lon="1.61638">
        <ele>18.2</ele>
        <time>2020-06-22T18:37:14Z</time>
      </trkpt>
      <trkpt lat="50.80465" lon="1.61642">
        <ele>18.3</ele>
        <time>2020-06-22T18:37:15Z</time>
      </trkpt>
      <trkpt lat="50.80467" lon="1.61646">
        <ele>18.4</ele>
        <time>2020-06-22T18:37:16Z</time>
      </trkpt>
      <trkpt lat="50.8047" lon="1.61651">
        <ele>18.4</ele>
        <time>2020-06-22T18:37:17Z</time>
      </trkpt>
      <trkpt lat="50.80473" lon="1.61655">
        <ele>18.5</ele>
        <time>2020-06-22T18:37:18Z</time>
      </trkpt>
      <trkpt lat="50.80476" lon="1.61661">
        <ele>18.5</ele>
        <time>2020-06-22T18:37:19Z</time>
      </trkpt>
      <trkpt lat="50.8048" lon="1.61665">
        <ele>18.7</ele>
        <time>2020-06-22T18:37:20Z</time>
      </trkpt>
      <trkpt lat="50.80483" lon="1.6167">
        <ele>18.7</ele>
        <time>2020-06-22T18:37:21Z</time>
      </trkpt>
      <trkpt lat="50.80487" lon="1.61676">
        <ele>18.8</ele>
        <time>2020-06-22T18:37:22Z</time>
      </trkpt>
      <trkpt lat="50.80491" lon="1.61681">
        <ele>19</ele>
        <time>2020-06-22T18:37:23Z</time>
      </trkpt>
      <trkpt lat="50.80495" lon="1.61687">
        <ele>19.1</ele>
        <time>2020-06-22T18:37:24Z</time>
      </trkpt>
      <trkpt lat="50.805" lon="1.61692">
        <ele>19.2</ele>
        <time>2020-06-22T18:37:25Z</time>
      </trkpt>
      <trkpt lat="50.80505" lon="1.61696">
        <ele>19.3</ele>
        <time>2020-06-22T18:37:26Z</time>
      </trkpt>
      <trkpt lat="50.80511" lon="1.61698">
        <ele>19.4</ele>
        <time>2020-06-22T18:37:27Z</time>
      </trkpt>
      <trkpt lat="50.80516" lon="1.61698">
        <ele>19.4</ele>
        <time>2020-06-22T18:37:28Z</time>
      </trkpt>
      <trkpt lat="50.8052" lon="1.61699">
        <ele>19.5</ele>
        <time>2020-06-22T18:37:29Z</time>
      </trkpt>
      <trkpt lat="50.80525" lon="1.61699">
        <ele>19.5</ele>
        <time>2020-06-22T18:37:30Z</time>
      </trkpt>
      <trkpt lat="50.8053" lon="1.61699">
        <ele>19.6</ele>
        <time>2020-06-22T18:37:31Z</time>
      </trkpt>
      <trkpt lat="50.80535" lon="1.617">
        <ele>19.7</ele>
        <time>2020-06-22T18:37:32Z</time>
      </trkpt>
      <trkpt lat="50.8054" lon="1.61699">
        <ele>19.7</ele>
        <time>2020-06-22T18:37:33Z</time>
      </trkpt>
      <trkpt lat="50.80544" lon="1.61698">
        <ele>19.8</ele>
        <time>2020-06-22T18:37:34Z</time>
      </trkpt>
      <trkpt lat="50.80548" lon="1.61695">
        <ele>19.8</ele>
        <time>2020-06-22T18:37:35Z</time>
      </trkpt>
      <trkpt lat="50.80553" lon="1.61691">
        <ele>19.9</ele>
        <time>2020-06-22T18:37:36Z</time>
      </trkpt>
      <trkpt lat="50.80557" lon="1.61686">
        <ele>20</ele>
        <time>2020-06-22T18:37:37Z</time>
      </trkpt>
      <trkpt lat="50.80561" lon="1.61681">
        <ele>20.1</ele>
        <time>2020-06-22T18:37:38Z</time>
      </trkpt>
      <trkpt lat="50.80565" lon="1.61677">
        <ele>20.2</ele>
        <time>2020-06-22T18:37:39Z</time>
      </trkpt>
      <trkpt lat="50.80568" lon="1.61672">
        <ele>20.3</ele>
        <time>2020-06-22T18:37:40Z</time>
      </trkpt>
      <trkpt lat="50.80571" lon="1.61667">
        <ele>20.4</ele>
        <time>2020-06-22T18:37:41Z</time>
      </trkpt>
      <trkpt lat="50.80575" lon="1.61661">
        <ele>20.5</ele>
        <time>2020-06-22T18:37:42Z</time>
      </trkpt>
      <trkpt lat="50.80577" lon="1.61655">
        <ele>20.6</ele>
        <time>2020-06-22T18:37:43Z</time>
      </trkpt>
      <trkpt lat="50.80579" lon="1.61648">
        <ele>20.7</ele>
        <time>2020-06-22T18:37:44Z</time>
      </trkpt>
      <trkpt lat="50.80582" lon="1.61641">
        <ele>20.8</ele>
        <time>2020-06-22T18:37:45Z</time>
      </trkpt>
      <trkpt lat="50.80584" lon="1.61633">
        <ele>20.9</ele>
        <time>2020-06-22T18:37:46Z</time>
      </trkpt>
      <trkpt lat="50.80586" lon="1.61625">
        <ele>21.1</ele>
        <time>2020-06-22T18:37:47Z</time>
      </trkpt>
      <trkpt lat="50.80587" lon="1.61615">
        <ele>21.2</ele>
        <time>2020-06-22T18:37:48Z</time>
      </trkpt>
      <trkpt lat="50.80587" lon="1.61607">
        <ele>21.4</ele>
        <time>2020-06-22T18:37:49Z</time>
      </trkpt>
      <trkpt lat="50.80588" lon="1.61598">
        <ele>21.5</ele>
        <time>2020-06-22T18:37:50Z</time>
      </trkpt>
      <trkpt lat="50.80589" lon="1.6159">
        <ele>21.6</ele>
        <time>2020-06-22T18:37:51Z</time>
      </trkpt>
      <trkpt lat="50.8059" lon="1.61583">
        <ele>21.7</ele>
        <time>2020-06-22T18:37:52Z</time>
      </trkpt>
      <trkpt lat="50.80592" lon="1.61577">
        <ele>22</ele>
        <time>2020-06-22T18:37:53Z</time>
      </trkpt>
      <trkpt lat="50.80594" lon="1.61571">
        <ele>22.1</ele>
        <time>2020-06-22T18:37:54Z</time>
      </trkpt>
      <trkpt lat="50.80596" lon="1.61564">
        <ele>22.3</ele>
        <time>2020-06-22T18:37:55Z</time>
      </trkpt>
      <trkpt lat="50.80599" lon="1.61557">
        <ele>22.5</ele>
        <time>2020-06-22T18:37:56Z</time>
      </trkpt>
      <trkpt lat="50.80602" lon="1.6155">
        <ele>22.7</ele>
        <time>2020-06-22T18:37:57Z</time>
      </trkpt>
      <trkpt lat="50.80604" lon="1.61545">
        <ele>23</ele>
        <time>2020-06-22T18:37:58Z</time>
      </trkpt>
      <trkpt lat="50.80607" lon="1.61539">
        <ele>23</ele>
        <time>2020-06-22T18:37:59Z</time>
      </trkpt>
      <trkpt lat="50.8061" lon="1.61534">
        <ele>23.1</ele>
        <time>2020-06-22T18:38:00Z</time>
      </trkpt>
      <trkpt lat="50.80614" lon="1.61529">
        <ele>23.2</ele>
        <time>2020-06-22T18:38:01Z</time>
      </trkpt>
      <trkpt lat="50.80618" lon="1.61525">
        <ele>23.2</ele>
        <time>2020-06-22T18:38:02Z</time>
      </trkpt>
      <trkpt lat="50.80623" lon="1.61519">
        <ele>23.3</ele>
        <time>2020-06-22T18:38:03Z</time>
      </trkpt>
      <trkpt lat="50.80626" lon="1.61514">
        <ele>23.4</ele>
        <time>2020-06-22T18:38:04Z</time>
      </trkpt>
      <trkpt lat="50.8063" lon="1.61509">
        <ele>23.5</ele>
        <time>2020-06-22T18:38:05Z</time>
      </trkpt>
      <trkpt lat="50.80634" lon="1.61505">
        <ele>23.6</ele>
        <time>2020-06-22T18:38:06Z</time>
      </trkpt>
      <trkpt lat="50.80639" lon="1.615">
        <ele>23.6</ele>
        <time>2020-06-22T18:38:07Z</time>
      </trkpt>
      <trkpt lat="50.80643" lon="1.61494">
        <ele>23.7</ele>
        <time>2020-06-22T18:38:08Z</time>
      </trkpt>
      <trkpt lat="50.80647" lon="1.61489">
        <ele>23.9</ele>
        <time>2020-06-22T18:38:09Z</time>
      </trkpt>
      <trkpt lat="50.80653" lon="1.61484">
        <ele>24</ele>
        <time>2020-06-22T18:38:10Z</time>
      </trkpt>
      <trkpt lat="50.80659" lon="1.61477">
        <ele>24.2</ele>
        <time>2020-06-22T18:38:11Z</time>
      </trkpt>
      <trkpt lat="50.80665" lon="1.61471">
        <ele>24.3</ele>
        <time>2020-06-22T18:38:12Z</time>
      </trkpt>
      <trkpt lat="50.8067" lon="1.61465">
        <ele>24.4</ele>
        <time>2020-06-22T18:38:13Z</time>
      </trkpt>
      <trkpt lat="50.80673" lon="1.61461">
        <ele>24.5</ele>
        <time>2020-06-22T18:38:14Z</time>
      </trkpt>
      <trkpt lat="50.80678" lon="1.61456">
        <ele>24.6</ele>
        <time>2020-06-22T18:38:15Z</time>
      </trkpt>
      <trkpt lat="50.80682" lon="1.61451">
        <ele>24.7</ele>
        <time>2020-06-22T18:38:16Z</time>
      </trkpt>
      <trkpt lat="50.80687" lon="1.61446">
        <ele>24.9</ele>
        <time>2020-06-22T18:38:17Z</time>
      </trkpt>
      <trkpt lat="50.80692" lon="1.61441">
        <ele>25.1</ele>
        <time>2020-06-22T18:38:18Z</time>
      </trkpt>
      <trkpt lat="50.80697" lon="1.61436">
        <ele>25.2</ele>
        <time>2020-06-22T18:38:19Z</time>
      </trkpt>
      <trkpt lat="50.80701" lon="1.61431">
        <ele>25.4</ele>
        <time>2020-06-22T18:38:20Z</time>
      </trkpt>
      <trkpt lat="50.80706" lon="1.61426">
        <ele>25.6</ele>
        <time>2020-06-22T18:38:21Z</time>
      </trkpt>
      <trkpt lat="50.80711" lon="1.6142">
        <ele>25.8</ele>
        <time>2020-06-22T18:38:22Z</time>
      </trkpt>
      <trkpt lat="50.80716" lon="1.61414">
        <ele>26.1</ele>
        <time>2020-06-22T18:38:23Z</time>
      </trkpt>
      <trkpt lat="50.80719" lon="1.61409">
        <ele>26.3</ele>
        <time>2020-06-22T18:38:24Z</time>
      </trkpt>
      <trkpt lat="50.80725" lon="1.61401">
        <ele>26.6</ele>
        <time>2020-06-22T18:38:25Z</time>
      </trkpt>
      <trkpt lat="50.80728" lon="1.61397">
        <ele>26.8</ele>
        <time>2020-06-22T18:38:26Z</time>
      </trkpt>
      <trkpt lat="50.80731" lon="1.61392">
        <ele>26.9</ele>
        <time>2020-06-22T18:38:27Z</time>
      </trkpt>
      <trkpt lat="50.80735" lon="1.61386">
        <ele>27.2</ele>
        <time>2020-06-22T18:38:28Z</time>
      </trkpt>
      <trkpt lat="50.80738" lon="1.61382">
        <ele>27.3</ele>
        <time>2020-06-22T18:38:29Z</time>
      </trkpt>
      <trkpt lat="50.80741" lon="1.61378">
        <ele>27.5</ele>
        <time>2020-06-22T18:38:30Z</time>
      </trkpt>
      <trkpt lat="50.80744" lon="1.61373">
        <ele>27.7</ele>
        <time>2020-06-22T18:38:31Z</time>
      </trkpt>
      <trkpt lat="50.80747" lon="1.61369">
        <ele>27.8</ele>
        <time>2020-06-22T18:38:32Z</time>
      </trkpt>
      <trkpt lat="50.8075" lon="1.61365">
        <ele>28</ele>
        <time>2020-06-22T18:38:33Z</time>
      </trkpt>
      <trkpt lat="50.80753" lon="1.61361">
        <ele>28.1</ele>
        <time>2020-06-22T18:38:34Z</time>
      </trkpt>
      <trkpt lat="50.80756" lon="1.61356">
        <ele>28.3</ele>
        <time>2020-06-22T18:38:35Z</time>
      </trkpt>
      <trkpt lat="50.8076" lon="1.61351">
        <ele>28.5</ele>
        <time>2020-06-22T18:38:36Z</time>
      </trkpt>
      <trkpt lat="50.80763" lon="1.61346">
        <ele>28.7</ele>
        <time>2020-06-22T18:38:37Z</time>
      </trkpt>
      <trkpt lat="50.80767" lon="1.61341">
        <ele>28.8</ele>
        <time>2020-06-22T18:38:38Z</time>
      </trkpt>
      <trkpt lat="50.80771" lon="1.61336">
        <ele>29</ele>
        <time>2020-06-22T18:38:39Z</time>
      </trkpt>
      <trkpt lat="50.80774" lon="1.61331">
        <ele>29.1</ele>
        <time>2020-06-22T18:38:40Z</time>
      </trkpt>
      <trkpt lat="50.80778" lon="1.61326">
        <ele>29.2</ele>
        <time>2020-06-22T18:38:41Z</time>
      </trkpt>
      <trkpt lat="50.80783" lon="1.61321">
        <ele>29.3</ele>
        <time>2020-06-22T18:38:42Z</time>
      </trkpt>
      <trkpt lat="50.80787" lon="1.61316">
        <ele>29.3</ele>
        <time>2020-06-22T18:38:43Z</time>
      </trkpt>
      <trkpt lat="50.8079" lon="1.61311">
        <ele>29.4</ele>
        <time>2020-06-22T18:38:44Z</time>
      </trkpt>
      <trkpt lat="50.80794" lon="1.61306">
        <ele>29.4</ele>
        <time>2020-06-22T18:38:45Z</time>
      </trkpt>
      <trkpt lat="50.80797" lon="1.613">
        <ele>29.5</ele>
        <time>2020-06-22T18:38:46Z</time>
      </trkpt>
      <trkpt lat="50.80801" lon="1.61293">
        <ele>29.6</ele>
        <time>2020-06-22T18:38:47Z</time>
      </trkpt>
      <trkpt lat="50.80805" lon="1.61288">
        <ele>29.7</ele>
        <time>2020-06-22T18:38:48Z</time>
      </trkpt>
      <trkpt lat="50.80809" lon="1.6128">
        <ele>29.8</ele>
        <time>2020-06-22T18:38:49Z</time>
      </trkpt>
      <trkpt lat="50.80813" lon="1.61273">
        <ele>29.9</ele>
        <time>2020-06-22T18:38:50Z</time>
      </trkpt>
      <trkpt lat="50.80815" lon="1.61267">
        <ele>29.9</ele>
        <time>2020-06-22T18:38:51Z</time>
      </trkpt>
      <trkpt lat="50.80819" lon="1.61261">
        <ele>30</ele>
        <time>2020-06-22T18:38:52Z</time>
      </trkpt>
      <trkpt lat="50.80823" lon="1.61253">
        <ele>30</ele>
        <time>2020-06-22T18:38:53Z</time>
      </trkpt>
      <trkpt lat="50.80826" lon="1.61246">
        <ele>30.1</ele>
        <time>2020-06-22T18:38:54Z</time>
      </trkpt>
      <trkpt lat="50.8083" lon="1.61239">
        <ele>30.1</ele>
        <time>2020-06-22T18:38:55Z</time>
      </trkpt>
      <trkpt lat="50.80834" lon="1.61233">
        <ele>30.2</ele>
        <time>2020-06-22T18:38:56Z</time>
      </trkpt>
      <trkpt lat="50.80837" lon="1.61226">
        <ele>30.2</ele>
        <time>2020-06-22T18:38:57Z</time>
      </trkpt>
      <trkpt lat="50.8084" lon="1.61219">
        <ele>30.2</ele>
        <time>2020-06-22T18:38:58Z</time>
      </trkpt>
      <trkpt lat="50.80843" lon="1.61212">
        <ele>30.3</ele>
        <time>2020-06-22T18:38:59Z</time>
      </trkpt>
      <trkpt lat="50.80848" lon="1.61203">
        <ele>30.3</ele>
        <time>2020-06-22T18:39:00Z</time>
      </trkpt>
      <trkpt lat="50.80851" lon="1.61197">
        <ele>30.3</ele>
        <time>2020-06-22T18:39:01Z</time>
      </trkpt>
      <trkpt lat="50.80854" lon="1.6119">
        <ele>30.3</ele>
        <time>2020-06-22T18:39:02Z</time>
      </trkpt>
      <trkpt lat="50.80858" lon="1.61183">
        <ele>30.3</ele>
        <time>2020-06-22T18:39:03Z</time>
      </trkpt>
      <trkpt lat="50.80862" lon="1.61175">
        <ele>30.3</ele>
        <time>2020-06-22T18:39:04Z</time>
      </trkpt>
      <trkpt lat="50.80865" lon="1.61169">
        <ele>30.3</ele>
        <time>2020-06-22T18:39:05Z</time>
      </trkpt>
      <trkpt lat="50.80869" lon="1.61161">
        <ele>30.3</ele>
        <time>2020-06-22T18:39:06Z</time>
      </trkpt>
      <trkpt lat="50.80872" lon="1.61154">
        <ele>30.3</ele>
        <time>2020-06-22T18:39:07Z</time>
      </trkpt>
      <trkpt lat="50.80876" lon="1.61147">
        <ele>30.2</ele>
        <time>2020-06-22T18:39:08Z</time>
      </trkpt>
      <trkpt lat="50.80879" lon="1.6114">
        <ele>30.2</ele>
        <time>2020-06-22T18:39:09Z</time>
      </trkpt>
      <trkpt lat="50.80883" lon="1.61132">
        <ele>30.2</ele>
        <time>2020-06-22T18:39:10Z</time>
      </trkpt>
      <trkpt lat="50.80887" lon="1.61123">
        <ele>30.2</ele>
        <time>2020-06-22T18:39:11Z</time>
      </trkpt>
      <trkpt lat="50.8089" lon="1.61116">
        <ele>30.1</ele>
        <time>2020-06-22T18:39:12Z</time>
      </trkpt>
      <trkpt lat="50.80894" lon="1.61108">
        <ele>30.1</ele>
        <time>2020-06-22T18:39:13Z</time>
      </trkpt>
      <trkpt lat="50.80898" lon="1.61101">
        <ele>30.1</ele>
        <time>2020-06-22T18:39:14Z</time>
      </trkpt>
      <trkpt lat="50.80902" lon="1.61094">
        <ele>30</ele>
        <time>2020-06-22T18:39:15Z</time>
      </trkpt>
      <trkpt lat="50.80906" lon="1.61088">
        <ele>30</ele>
        <time>2020-06-22T18:39:16Z</time>
      </trkpt>
      <trkpt lat="50.8091" lon="1.6108">
        <ele>30</ele>
        <time>2020-06-22T18:39:17Z</time>
      </trkpt>
      <trkpt lat="50.80914" lon="1.61072">
        <ele>30</ele>
        <time>2020-06-22T18:39:18Z</time>
      </trkpt>
      <trkpt lat="50.80918" lon="1.61066">
        <ele>29.9</ele>
        <time>2020-06-22T18:39:19Z</time>
      </trkpt>
      <trkpt lat="50.80922" lon="1.61058">
        <ele>29.9</ele>
        <time>2020-06-22T18:39:20Z</time>
      </trkpt>
      <trkpt lat="50.80926" lon="1.6105">
        <ele>29.9</ele>
        <time>2020-06-22T18:39:21Z</time>
      </trkpt>
      <trkpt lat="50.8093" lon="1.61043">
        <ele>29.9</ele>
        <time>2020-06-22T18:39:22Z</time>
      </trkpt>
      <trkpt lat="50.80935" lon="1.61036">
        <ele>29.9</ele>
        <time>2020-06-22T18:39:23Z</time>
      </trkpt>
      <trkpt lat="50.8094" lon="1.61028">
        <ele>29.8</ele>
        <time>2020-06-22T18:39:24Z</time>
      </trkpt>
      <trkpt lat="50.80945" lon="1.61022">
        <ele>29.8</ele>
        <time>2020-06-22T18:39:25Z</time>
      </trkpt>
      <trkpt lat="50.8095" lon="1.61015">
        <ele>29.8</ele>
        <time>2020-06-22T18:39:26Z</time>
      </trkpt>
      <trkpt lat="50.80956" lon="1.61007">
        <ele>29.9</ele>
        <time>2020-06-22T18:39:27Z</time>
      </trkpt>
      <trkpt lat="50.80961" lon="1.61001">
        <ele>29.9</ele>
        <time>2020-06-22T18:39:28Z</time>
      </trkpt>
      <trkpt lat="50.80966" lon="1.60994">
        <ele>29.9</ele>
        <time>2020-06-22T18:39:29Z</time>
      </trkpt>
      <trkpt lat="50.80971" lon="1.60986">
        <ele>30</ele>
        <time>2020-06-22T18:39:30Z</time>
      </trkpt>
      <trkpt lat="50.80976" lon="1.60979">
        <ele>30.1</ele>
        <time>2020-06-22T18:39:31Z</time>
      </trkpt>
      <trkpt lat="50.80981" lon="1.60972">
        <ele>30.1</ele>
        <time>2020-06-22T18:39:32Z</time>
      </trkpt>
      <trkpt lat="50.80985" lon="1.60964">
        <ele>30.2</ele>
        <time>2020-06-22T18:39:33Z</time>
      </trkpt>
      <trkpt lat="50.8099" lon="1.60956">
        <ele>30.3</ele>
        <time>2020-06-22T18:39:34Z</time>
      </trkpt>
      <trkpt lat="50.80994" lon="1.60949">
        <ele>30.4</ele>
        <time>2020-06-22T18:39:35Z</time>
      </trkpt>
      <trkpt lat="50.80999" lon="1.60941">
        <ele>30.6</ele>
        <time>2020-06-22T18:39:36Z</time>
      </trkpt>
      <trkpt lat="50.81004" lon="1.60933">
        <ele>30.7</ele>
        <time>2020-06-22T18:39:37Z</time>
      </trkpt>
      <trkpt lat="50.81009" lon="1.60927">
        <ele>30.9</ele>
        <time>2020-06-22T18:39:38Z</time>
      </trkpt>
      <trkpt lat="50.81015" lon="1.60919">
        <ele>31</ele>
        <time>2020-06-22T18:39:39Z</time>
      </trkpt>
      <trkpt lat="50.81019" lon="1.60911">
        <ele>31.2</ele>
        <time>2020-06-22T18:39:40Z</time>
      </trkpt>
      <trkpt lat="50.81024" lon="1.60904">
        <ele>31.3</ele>
        <time>2020-06-22T18:39:41Z</time>
      </trkpt>
      <trkpt lat="50.81028" lon="1.60897">
        <ele>31.4</ele>
        <time>2020-06-22T18:39:42Z</time>
      </trkpt>
      <trkpt lat="50.81032" lon="1.60891">
        <ele>31.6</ele>
        <time>2020-06-22T18:39:43Z</time>
      </trkpt>
      <trkpt lat="50.81036" lon="1.60883">
        <ele>31.7</ele>
        <time>2020-06-22T18:39:44Z</time>
      </trkpt>
      <trkpt lat="50.81039" lon="1.60877">
        <ele>31.7</ele>
        <time>2020-06-22T18:39:45Z</time>
      </trkpt>
      <trkpt lat="50.81042" lon="1.60872">
        <ele>31.8</ele>
        <time>2020-06-22T18:39:46Z</time>
      </trkpt>
      <trkpt lat="50.81045" lon="1.60866">
        <ele>31.8</ele>
        <time>2020-06-22T18:39:47Z</time>
      </trkpt>
      <trkpt lat="50.81049" lon="1.6086">
        <ele>31.8</ele>
        <time>2020-06-22T18:39:48Z</time>
      </trkpt>
      <trkpt lat="50.81053" lon="1.60854">
        <ele>31.8</ele>
        <time>2020-06-22T18:39:49Z</time>
      </trkpt>
      <trkpt lat="50.81057" lon="1.6085">
        <ele>31.8</ele>
        <time>2020-06-22T18:39:50Z</time>
      </trkpt>
      <trkpt lat="50.81061" lon="1.60843">
        <ele>31.7</ele>
        <time>2020-06-22T18:39:51Z</time>
      </trkpt>
      <trkpt lat="50.81066" lon="1.60837">
        <ele>31.7</ele>
        <time>2020-06-22T18:39:52Z</time>
      </trkpt>
      <trkpt lat="50.8107" lon="1.6083">
        <ele>31.6</ele>
        <time>2020-06-22T18:39:53Z</time>
      </trkpt>
      <trkpt lat="50.81075" lon="1.60824">
        <ele>31.5</ele>
        <time>2020-06-22T18:39:54Z</time>
      </trkpt>
      <trkpt lat="50.81079" lon="1.60819">
        <ele>31.4</ele>
        <time>2020-06-22T18:39:55Z</time>
      </trkpt>
      <trkpt lat="50.81084" lon="1.60812">
        <ele>31.3</ele>
        <time>2020-06-22T18:39:56Z</time>
      </trkpt>
      <trkpt lat="50.8109" lon="1.60804">
        <ele>31.2</ele>
        <time>2020-06-22T18:39:57Z</time>
      </trkpt>
      <trkpt lat="50.81094" lon="1.60799">
        <ele>31.2</ele>
        <time>2020-06-22T18:39:58Z</time>
      </trkpt>
      <trkpt lat="50.811" lon="1.60793">
        <ele>31.1</ele>
        <time>2020-06-22T18:39:59Z</time>
      </trkpt>
      <trkpt lat="50.81105" lon="1.60788">
        <ele>31</ele>
        <time>2020-06-22T18:40:00Z</time>
      </trkpt>
      <trkpt lat="50.8111" lon="1.60782">
        <ele>31</ele>
        <time>2020-06-22T18:40:01Z</time>
      </trkpt>
      <trkpt lat="50.81115" lon="1.60775">
        <ele>30.9</ele>
        <time>2020-06-22T18:40:02Z</time>
      </trkpt>
      <trkpt lat="50.81119" lon="1.60769">
        <ele>30.9</ele>
        <time>2020-06-22T18:40:03Z</time>
      </trkpt>
      <trkpt lat="50.81123" lon="1.60762">
        <ele>30.8</ele>
        <time>2020-06-22T18:40:04Z</time>
      </trkpt>
      <trkpt lat="50.81128" lon="1.60756">
        <ele>30.7</ele>
        <time>2020-06-22T18:40:05Z</time>
      </trkpt>
      <trkpt lat="50.81131" lon="1.60749">
        <ele>30.7</ele>
        <time>2020-06-22T18:40:06Z</time>
      </trkpt>
      <trkpt lat="50.81135" lon="1.60745">
        <ele>30.7</ele>
        <time>2020-06-22T18:40:07Z</time>
      </trkpt>
      <trkpt lat="50.8114" lon="1.60742">
        <ele>30.7</ele>
        <time>2020-06-22T18:40:08Z</time>
      </trkpt>
      <trkpt lat="50.81143" lon="1.60739">
        <ele>30.7</ele>
        <time>2020-06-22T18:40:09Z</time>
      </trkpt>
      <trkpt lat="50.81147" lon="1.60737">
        <ele>30.7</ele>
        <time>2020-06-22T18:40:10Z</time>
      </trkpt>
      <trkpt lat="50.8115" lon="1.60734">
        <ele>30.6</ele>
        <time>2020-06-22T18:40:11Z</time>
      </trkpt>
      <trkpt lat="50.81153" lon="1.60732">
        <ele>30.6</ele>
        <time>2020-06-22T18:40:12Z</time>
      </trkpt>
      <trkpt lat="50.81155" lon="1.60729">
        <ele>30.6</ele>
        <time>2020-06-22T18:40:13Z</time>
      </trkpt>
      <trkpt lat="50.81158" lon="1.60726">
        <ele>30.5</ele>
        <time>2020-06-22T18:40:14Z</time>
      </trkpt>
      <trkpt lat="50.8116" lon="1.60725">
        <ele>30.5</ele>
        <time>2020-06-22T18:40:15Z</time>
      </trkpt>
      <trkpt lat="50.81163" lon="1.60723">
        <ele>30.5</ele>
        <time>2020-06-22T18:40:16Z</time>
      </trkpt>
      <trkpt lat="50.81166" lon="1.60721">
        <ele>30.4</ele>
        <time>2020-06-22T18:40:17Z</time>
      </trkpt>
      <trkpt lat="50.8117" lon="1.60717">
        <ele>30.4</ele>
        <time>2020-06-22T18:40:18Z</time>
      </trkpt>
      <trkpt lat="50.81173" lon="1.60714">
        <ele>30.3</ele>
        <time>2020-06-22T18:40:19Z</time>
      </trkpt>
      <trkpt lat="50.81176" lon="1.60711">
        <ele>30.3</ele>
        <time>2020-06-22T18:40:20Z</time>
      </trkpt>
      <trkpt lat="50.8118" lon="1.60706">
        <ele>30.3</ele>
        <time>2020-06-22T18:40:21Z</time>
      </trkpt>
      <trkpt lat="50.81184" lon="1.60703">
        <ele>30.2</ele>
        <time>2020-06-22T18:40:22Z</time>
      </trkpt>
      <trkpt lat="50.81187" lon="1.607">
        <ele>30.2</ele>
        <time>2020-06-22T18:40:23Z</time>
      </trkpt>
      <trkpt lat="50.81191" lon="1.60698">
        <ele>30.2</ele>
        <time>2020-06-22T18:40:24Z</time>
      </trkpt>
      <trkpt lat="50.81195" lon="1.60694">
        <ele>30.1</ele>
        <time>2020-06-22T18:40:25Z</time>
      </trkpt>
      <trkpt lat="50.81201" lon="1.6069">
        <ele>30</ele>
        <time>2020-06-22T18:40:26Z</time>
      </trkpt>
      <trkpt lat="50.81205" lon="1.60687">
        <ele>30</ele>
        <time>2020-06-22T18:40:27Z</time>
      </trkpt>
      <trkpt lat="50.81208" lon="1.60684">
        <ele>30</ele>
        <time>2020-06-22T18:40:28Z</time>
      </trkpt>
      <trkpt lat="50.81211" lon="1.60681">
        <ele>29.9</ele>
        <time>2020-06-22T18:40:29Z</time>
      </trkpt>
      <trkpt lat="50.81216" lon="1.60678">
        <ele>29.8</ele>
        <time>2020-06-22T18:40:30Z</time>
      </trkpt>
      <trkpt lat="50.8122" lon="1.60675">
        <ele>29.8</ele>
        <time>2020-06-22T18:40:31Z</time>
      </trkpt>
      <trkpt lat="50.81223" lon="1.60671">
        <ele>29.7</ele>
        <time>2020-06-22T18:40:32Z</time>
      </trkpt>
      <trkpt lat="50.81227" lon="1.60667">
        <ele>29.6</ele>
        <time>2020-06-22T18:40:33Z</time>
      </trkpt>
      <trkpt lat="50.81231" lon="1.60663">
        <ele>29.6</ele>
        <time>2020-06-22T18:40:34Z</time>
      </trkpt>
      <trkpt lat="50.81235" lon="1.60658">
        <ele>29.4</ele>
        <time>2020-06-22T18:40:35Z</time>
      </trkpt>
      <trkpt lat="50.81239" lon="1.60653">
        <ele>29.3</ele>
        <time>2020-06-22T18:40:36Z</time>
      </trkpt>
      <trkpt lat="50.81244" lon="1.60649">
        <ele>29.2</ele>
        <time>2020-06-22T18:40:37Z</time>
      </trkpt>
      <trkpt lat="50.81248" lon="1.60645">
        <ele>29.1</ele>
        <time>2020-06-22T18:40:38Z</time>
      </trkpt>
      <trkpt lat="50.81251" lon="1.60642">
        <ele>28.9</ele>
        <time>2020-06-22T18:40:39Z</time>
      </trkpt>
      <trkpt lat="50.81255" lon="1.60638">
        <ele>28.8</ele>
        <time>2020-06-22T18:40:40Z</time>
      </trkpt>
      <trkpt lat="50.8126" lon="1.60633">
        <ele>28.6</ele>
        <time>2020-06-22T18:40:41Z</time>
      </trkpt>
      <trkpt lat="50.81265" lon="1.60627">
        <ele>28.4</ele>
        <time>2020-06-22T18:40:42Z</time>
      </trkpt>
      <trkpt lat="50.8127" lon="1.60622">
        <ele>28.2</ele>
        <time>2020-06-22T18:40:43Z</time>
      </trkpt>
      <trkpt lat="50.81276" lon="1.60616">
        <ele>28</ele>
        <time>2020-06-22T18:40:44Z</time>
      </trkpt>
      <trkpt lat="50.81281" lon="1.60611">
        <ele>27.8</ele>
        <time>2020-06-22T18:40:45Z</time>
      </trkpt>
      <trkpt lat="50.81287" lon="1.60606">
        <ele>27.5</ele>
        <time>2020-06-22T18:40:46Z</time>
      </trkpt>
      <trkpt lat="50.81292" lon="1.60601">
        <ele>27.3</ele>
        <time>2020-06-22T18:40:47Z</time>
      </trkpt>
      <trkpt lat="50.81298" lon="1.60596">
        <ele>27</ele>
        <time>2020-06-22T18:40:48Z</time>
      </trkpt>
      <trkpt lat="50.81304" lon="1.60591">
        <ele>26.8</ele>
        <time>2020-06-22T18:40:49Z</time>
      </trkpt>
      <trkpt lat="50.8131" lon="1.60586">
        <ele>26.5</ele>
        <time>2020-06-22T18:40:50Z</time>
      </trkpt>
      <trkpt lat="50.81316" lon="1.60581">
        <ele>26.3</ele>
        <time>2020-06-22T18:40:51Z</time>
      </trkpt>
      <trkpt lat="50.81322" lon="1.60576">
        <ele>26</ele>
        <time>2020-06-22T18:40:52Z</time>
      </trkpt>
      <trkpt lat="50.81327" lon="1.60572">
        <ele>25.8</ele>
        <time>2020-06-22T18:40:53Z</time>
      </trkpt>
      <trkpt lat="50.81333" lon="1.60566">
        <ele>25.6</ele>
        <time>2020-06-22T18:40:54Z</time>
      </trkpt>
      <trkpt lat="50.81339" lon="1.60561">
        <ele>25.4</ele>
        <time>2020-06-22T18:40:55Z</time>
      </trkpt>
      <trkpt lat="50.81345" lon="1.60556">
        <ele>25.2</ele>
        <time>2020-06-22T18:40:56Z</time>
      </trkpt>
      <trkpt lat="50.8135" lon="1.60551">
        <ele>25</ele>
        <time>2020-06-22T18:40:57Z</time>
      </trkpt>
      <trkpt lat="50.81356" lon="1.60547">
        <ele>24.7</ele>
        <time>2020-06-22T18:40:58Z</time>
      </trkpt>
      <trkpt lat="50.81363" lon="1.60541">
        <ele>24.5</ele>
        <time>2020-06-22T18:40:59Z</time>
      </trkpt>
      <trkpt lat="50.81368" lon="1.60536">
        <ele>24.3</ele>
        <time>2020-06-22T18:41:00Z</time>
      </trkpt>
      <trkpt lat="50.81373" lon="1.6053">
        <ele>24.1</ele>
        <time>2020-06-22T18:41:01Z</time>
      </trkpt>
      <trkpt lat="50.81379" lon="1.60524">
        <ele>23.9</ele>
        <time>2020-06-22T18:41:02Z</time>
      </trkpt>
      <trkpt lat="50.81385" lon="1.60518">
        <ele>23.7</ele>
        <time>2020-06-22T18:41:03Z</time>
      </trkpt>
      <trkpt lat="50.81391" lon="1.60512">
        <ele>23.6</ele>
        <time>2020-06-22T18:41:04Z</time>
      </trkpt>
      <trkpt lat="50.81398" lon="1.60507">
        <ele>23.4</ele>
        <time>2020-06-22T18:41:05Z</time>
      </trkpt>
      <trkpt lat="50.81404" lon="1.60501">
        <ele>23.2</ele>
        <time>2020-06-22T18:41:06Z</time>
      </trkpt>
      <trkpt lat="50.81411" lon="1.60496">
        <ele>23.1</ele>
        <time>2020-06-22T18:41:07Z</time>
      </trkpt>
      <trkpt lat="50.81417" lon="1.6049">
        <ele>23</ele>
        <time>2020-06-22T18:41:08Z</time>
      </trkpt>
      <trkpt lat="50.81423" lon="1.60485">
        <ele>22.9</ele>
        <time>2020-06-22T18:41:09Z</time>
      </trkpt>
      <trkpt lat="50.81429" lon="1.60479">
        <ele>22.9</ele>
        <time>2020-06-22T18:41:10Z</time>
      </trkpt>
      <trkpt lat="50.81436" lon="1.60474">
        <ele>22.8</ele>
        <time>2020-06-22T18:41:11Z</time>
      </trkpt>
      <trkpt lat="50.81442" lon="1.60468">
        <ele>22.7</ele>
        <time>2020-06-22T18:41:12Z</time>
      </trkpt>
      <trkpt lat="50.81448" lon="1.60462">
        <ele>22.6</ele>
        <time>2020-06-22T18:41:13Z</time>
      </trkpt>
      <trkpt lat="50.81454" lon="1.60455">
        <ele>22.5</ele>
        <time>2020-06-22T18:41:14Z</time>
      </trkpt>
      <trkpt lat="50.8146" lon="1.60449">
        <ele>22.4</ele>
        <time>2020-06-22T18:41:15Z</time>
      </trkpt>
      <trkpt lat="50.81466" lon="1.60443">
        <ele>22.4</ele>
        <time>2020-06-22T18:41:16Z</time>
      </trkpt>
      <trkpt lat="50.81473" lon="1.60438">
        <ele>22.3</ele>
        <time>2020-06-22T18:41:17Z</time>
      </trkpt>
      <trkpt lat="50.81479" lon="1.60432">
        <ele>22.3</ele>
        <time>2020-06-22T18:41:18Z</time>
      </trkpt>
      <trkpt lat="50.81485" lon="1.60426">
        <ele>22.2</ele>
        <time>2020-06-22T18:41:19Z</time>
      </trkpt>
      <trkpt lat="50.81492" lon="1.60422">
        <ele>22.1</ele>
        <time>2020-06-22T18:41:20Z</time>
      </trkpt>
      <trkpt lat="50.81498" lon="1.60416">
        <ele>22.1</ele>
        <time>2020-06-22T18:41:21Z</time>
      </trkpt>
      <trkpt lat="50.81504" lon="1.60411">
        <ele>22</ele>
        <time>2020-06-22T18:41:22Z</time>
      </trkpt>
      <trkpt lat="50.81511" lon="1.60404">
        <ele>21.8</ele>
        <time>2020-06-22T18:41:23Z</time>
      </trkpt>
      <trkpt lat="50.81517" lon="1.60398">
        <ele>21.6</ele>
        <time>2020-06-22T18:41:24Z</time>
      </trkpt>
      <trkpt lat="50.81523" lon="1.60393">
        <ele>21.4</ele>
        <time>2020-06-22T18:41:25Z</time>
      </trkpt>
      <trkpt lat="50.81528" lon="1.60387">
        <ele>21.2</ele>
        <time>2020-06-22T18:41:26Z</time>
      </trkpt>
      <trkpt lat="50.81534" lon="1.60381">
        <ele>21.1</ele>
        <time>2020-06-22T18:41:27Z</time>
      </trkpt>
      <trkpt lat="50.8154" lon="1.60376">
        <ele>21</ele>
        <time>2020-06-22T18:41:28Z</time>
      </trkpt>
      <trkpt lat="50.81546" lon="1.6037">
        <ele>20.9</ele>
        <time>2020-06-22T18:41:29Z</time>
      </trkpt>
      <trkpt lat="50.81552" lon="1.60365">
        <ele>20.9</ele>
        <time>2020-06-22T18:41:30Z</time>
      </trkpt>
      <trkpt lat="50.81558" lon="1.6036">
        <ele>20.8</ele>
        <time>2020-06-22T18:41:31Z</time>
      </trkpt>
      <trkpt lat="50.81563" lon="1.60354">
        <ele>20.7</ele>
        <time>2020-06-22T18:41:32Z</time>
      </trkpt>
      <trkpt lat="50.81569" lon="1.60348">
        <ele>20.7</ele>
        <time>2020-06-22T18:41:33Z</time>
      </trkpt>
      <trkpt lat="50.81575" lon="1.60343">
        <ele>20.6</ele>
        <time>2020-06-22T18:41:34Z</time>
      </trkpt>
      <trkpt lat="50.81581" lon="1.60338">
        <ele>20.5</ele>
        <time>2020-06-22T18:41:35Z</time>
      </trkpt>
      <trkpt lat="50.81587" lon="1.60332">
        <ele>20.5</ele>
        <time>2020-06-22T18:41:36Z</time>
      </trkpt>
      <trkpt lat="50.81593" lon="1.60327">
        <ele>20.4</ele>
        <time>2020-06-22T18:41:37Z</time>
      </trkpt>
      <trkpt lat="50.81599" lon="1.60322">
        <ele>20.4</ele>
        <time>2020-06-22T18:41:38Z</time>
      </trkpt>
      <trkpt lat="50.81605" lon="1.60316">
        <ele>20.3</ele>
        <time>2020-06-22T18:41:39Z</time>
      </trkpt>
      <trkpt lat="50.8161" lon="1.6031">
        <ele>20.3</ele>
        <time>2020-06-22T18:41:40Z</time>
      </trkpt>
      <trkpt lat="50.81616" lon="1.60305">
        <ele>20.3</ele>
        <time>2020-06-22T18:41:41Z</time>
      </trkpt>
      <trkpt lat="50.81622" lon="1.60299">
        <ele>20.3</ele>
        <time>2020-06-22T18:41:42Z</time>
      </trkpt>
      <trkpt lat="50.81628" lon="1.60294">
        <ele>20.3</ele>
        <time>2020-06-22T18:41:43Z</time>
      </trkpt>
      <trkpt lat="50.81633" lon="1.60288">
        <ele>20.3</ele>
        <time>2020-06-22T18:41:44Z</time>
      </trkpt>
      <trkpt lat="50.81638" lon="1.60281">
        <ele>20.2</ele>
        <time>2020-06-22T18:41:45Z</time>
      </trkpt>
      <trkpt lat="50.81643" lon="1.60275">
        <ele>20.2</ele>
        <time>2020-06-22T18:41:46Z</time>
      </trkpt>
      <trkpt lat="50.81648" lon="1.60268">
        <ele>20.1</ele>
        <time>2020-06-22T18:41:47Z</time>
      </trkpt>
      <trkpt lat="50.81653" lon="1.60261">
        <ele>20.1</ele>
        <time>2020-06-22T18:41:48Z</time>
      </trkpt>
      <trkpt lat="50.81658" lon="1.60254">
        <ele>20.1</ele>
        <time>2020-06-22T18:41:49Z</time>
      </trkpt>
      <trkpt lat="50.81663" lon="1.60247">
        <ele>20.1</ele>
        <time>2020-06-22T18:41:50Z</time>
      </trkpt>
      <trkpt lat="50.81667" lon="1.60239">
        <ele>20</ele>
        <time>2020-06-22T18:41:51Z</time>
      </trkpt>
      <trkpt lat="50.81672" lon="1.60231">
        <ele>20</ele>
        <time>2020-06-22T18:41:52Z</time>
      </trkpt>
      <trkpt lat="50.81675" lon="1.60223">
        <ele>20</ele>
        <time>2020-06-22T18:41:53Z</time>
      </trkpt>
      <trkpt lat="50.81679" lon="1.60215">
        <ele>20</ele>
        <time>2020-06-22T18:41:54Z</time>
      </trkpt>
      <trkpt lat="50.81683" lon="1.60207">
        <ele>20</ele>
        <time>2020-06-22T18:41:55Z</time>
      </trkpt>
      <trkpt lat="50.81687" lon="1.60198">
        <ele>20</ele>
        <time>2020-06-22T18:41:56Z</time>
      </trkpt>
      <trkpt lat="50.81691" lon="1.6019">
        <ele>20</ele>
        <time>2020-06-22T18:41:57Z</time>
      </trkpt>
      <trkpt lat="50.81695" lon="1.60182">
        <ele>19.9</ele>
        <time>2020-06-22T18:41:58Z</time>
      </trkpt>
      <trkpt lat="50.81699" lon="1.60174">
        <ele>19.9</ele>
        <time>2020-06-22T18:41:59Z</time>
      </trkpt>
      <trkpt lat="50.81703" lon="1.60166">
        <ele>19.8</ele>
        <time>2020-06-22T18:42:00Z</time>
      </trkpt>
      <trkpt lat="50.81707" lon="1.60157">
        <ele>19.8</ele>
        <time>2020-06-22T18:42:01Z</time>
      </trkpt>
      <trkpt lat="50.81711" lon="1.60148">
        <ele>19.7</ele>
        <time>2020-06-22T18:42:02Z</time>
      </trkpt>
      <trkpt lat="50.81714" lon="1.60139">
        <ele>19.7</ele>
        <time>2020-06-22T18:42:03Z</time>
      </trkpt>
      <trkpt lat="50.81718" lon="1.6013">
        <ele>19.7</ele>
        <time>2020-06-22T18:42:04Z</time>
      </trkpt>
      <trkpt lat="50.81722" lon="1.60121">
        <ele>19.6</ele>
        <time>2020-06-22T18:42:05Z</time>
      </trkpt>
      <trkpt lat="50.81725" lon="1.60113">
        <ele>19.6</ele>
        <time>2020-06-22T18:42:06Z</time>
      </trkpt>
      <trkpt lat="50.81729" lon="1.60105">
        <ele>19.5</ele>
        <time>2020-06-22T18:42:07Z</time>
      </trkpt>
      <trkpt lat="50.81733" lon="1.60097">
        <ele>19.4</ele>
        <time>2020-06-22T18:42:08Z</time>
      </trkpt>
      <trkpt lat="50.81737" lon="1.60089">
        <ele>19.3</ele>
        <time>2020-06-22T18:42:09Z</time>
      </trkpt>
      <trkpt lat="50.8174" lon="1.60081">
        <ele>19.2</ele>
        <time>2020-06-22T18:42:10Z</time>
      </trkpt>
      <trkpt lat="50.81744" lon="1.60074">
        <ele>19.2</ele>
        <time>2020-06-22T18:42:11Z</time>
      </trkpt>
      <trkpt lat="50.81748" lon="1.60067">
        <ele>19.2</ele>
        <time>2020-06-22T18:42:12Z</time>
      </trkpt>
      <trkpt lat="50.81751" lon="1.60059">
        <ele>19.1</ele>
        <time>2020-06-22T18:42:13Z</time>
      </trkpt>
      <trkpt lat="50.81755" lon="1.60053">
        <ele>19.1</ele>
        <time>2020-06-22T18:42:14Z</time>
      </trkpt>
      <trkpt lat="50.81758" lon="1.60046">
        <ele>19.1</ele>
        <time>2020-06-22T18:42:15Z</time>
      </trkpt>
      <trkpt lat="50.81761" lon="1.60039">
        <ele>19</ele>
        <time>2020-06-22T18:42:16Z</time>
      </trkpt>
      <trkpt lat="50.81765" lon="1.60033">
        <ele>19</ele>
        <time>2020-06-22T18:42:17Z</time>
      </trkpt>
      <trkpt lat="50.81768" lon="1.60026">
        <ele>19</ele>
        <time>2020-06-22T18:42:18Z</time>
      </trkpt>
      <trkpt lat="50.81771" lon="1.60019">
        <ele>19</ele>
        <time>2020-06-22T18:42:19Z</time>
      </trkpt>
      <trkpt lat="50.81775" lon="1.60013">
        <ele>18.9</ele>
        <time>2020-06-22T18:42:20Z</time>
      </trkpt>
      <trkpt lat="50.81778" lon="1.60006">
        <ele>18.9</ele>
        <time>2020-06-22T18:42:21Z</time>
      </trkpt>
      <trkpt lat="50.81781" lon="1.59999">
        <ele>18.9</ele>
        <time>2020-06-22T18:42:22Z</time>
      </trkpt>
      <trkpt lat="50.81784" lon="1.59991">
        <ele>18.8</ele>
        <time>2020-06-22T18:42:23Z</time>
      </trkpt>
      <trkpt lat="50.81787" lon="1.59983">
        <ele>18.8</ele>
        <time>2020-06-22T18:42:24Z</time>
      </trkpt>
      <trkpt lat="50.8179" lon="1.59976">
        <ele>18.7</ele>
        <time>2020-06-22T18:42:25Z</time>
      </trkpt>
      <trkpt lat="50.81794" lon="1.59968">
        <ele>18.7</ele>
        <time>2020-06-22T18:42:26Z</time>
      </trkpt>
      <trkpt lat="50.81797" lon="1.59961">
        <ele>18.7</ele>
        <time>2020-06-22T18:42:27Z</time>
      </trkpt>
      <trkpt lat="50.818" lon="1.59953">
        <ele>18.7</ele>
        <time>2020-06-22T18:42:28Z</time>
      </trkpt>
      <trkpt lat="50.81803" lon="1.59945">
        <ele>18.6</ele>
        <time>2020-06-22T18:42:29Z</time>
      </trkpt>
      <trkpt lat="50.81807" lon="1.59938">
        <ele>18.5</ele>
        <time>2020-06-22T18:42:30Z</time>
      </trkpt>
      <trkpt lat="50.81811" lon="1.59931">
        <ele>18.4</ele>
        <time>2020-06-22T18:42:31Z</time>
      </trkpt>
      <trkpt lat="50.81815" lon="1.59924">
        <ele>18.3</ele>
        <time>2020-06-22T18:42:32Z</time>
      </trkpt>
      <trkpt lat="50.81819" lon="1.59916">
        <ele>18.2</ele>
        <time>2020-06-22T18:42:33Z</time>
      </trkpt>
      <trkpt lat="50.81823" lon="1.59909">
        <ele>18.1</ele>
        <time>2020-06-22T18:42:34Z</time>
      </trkpt>
      <trkpt lat="50.81828" lon="1.59902">
        <ele>18</ele>
        <time>2020-06-22T18:42:35Z</time>
      </trkpt>
      <trkpt lat="50.81832" lon="1.59895">
        <ele>17.9</ele>
        <time>2020-06-22T18:42:36Z</time>
      </trkpt>
      <trkpt lat="50.81836" lon="1.59887">
        <ele>17.9</ele>
        <time>2020-06-22T18:42:37Z</time>
      </trkpt>
      <trkpt lat="50.81841" lon="1.59879">
        <ele>17.8</ele>
        <time>2020-06-22T18:42:38Z</time>
      </trkpt>
      <trkpt lat="50.81845" lon="1.59872">
        <ele>17.7</ele>
        <time>2020-06-22T18:42:39Z</time>
      </trkpt>
      <trkpt lat="50.8185" lon="1.59864">
        <ele>17.6</ele>
        <time>2020-06-22T18:42:40Z</time>
      </trkpt>
      <trkpt lat="50.81855" lon="1.59857">
        <ele>17.5</ele>
        <time>2020-06-22T18:42:41Z</time>
      </trkpt>
      <trkpt lat="50.8186" lon="1.5985">
        <ele>17.3</ele>
        <time>2020-06-22T18:42:42Z</time>
      </trkpt>
      <trkpt lat="50.81865" lon="1.59842">
        <ele>17.2</ele>
        <time>2020-06-22T18:42:43Z</time>
      </trkpt>
      <trkpt lat="50.8187" lon="1.59834">
        <ele>17.1</ele>
        <time>2020-06-22T18:42:44Z</time>
      </trkpt>
      <trkpt lat="50.81874" lon="1.59826">
        <ele>16.9</ele>
        <time>2020-06-22T18:42:45Z</time>
      </trkpt>
      <trkpt lat="50.81879" lon="1.59819">
        <ele>16.8</ele>
        <time>2020-06-22T18:42:46Z</time>
      </trkpt>
      <trkpt lat="50.81883" lon="1.59811">
        <ele>16.6</ele>
        <time>2020-06-22T18:42:47Z</time>
      </trkpt>
      <trkpt lat="50.81888" lon="1.59803">
        <ele>16.5</ele>
        <time>2020-06-22T18:42:48Z</time>
      </trkpt>
      <trkpt lat="50.81892" lon="1.59796">
        <ele>16.4</ele>
        <time>2020-06-22T18:42:49Z</time>
      </trkpt>
      <trkpt lat="50.81897" lon="1.59789">
        <ele>16.2</ele>
        <time>2020-06-22T18:42:50Z</time>
      </trkpt>
      <trkpt lat="50.81902" lon="1.59782">
        <ele>16.1</ele>
        <time>2020-06-22T18:42:51Z</time>
      </trkpt>
      <trkpt lat="50.81906" lon="1.59774">
        <ele>16</ele>
        <time>2020-06-22T18:42:52Z</time>
      </trkpt>
      <trkpt lat="50.81911" lon="1.59767">
        <ele>15.8</ele>
        <time>2020-06-22T18:42:53Z</time>
      </trkpt>
      <trkpt lat="50.81915" lon="1.5976">
        <ele>15.7</ele>
        <time>2020-06-22T18:42:54Z</time>
      </trkpt>
      <trkpt lat="50.8192" lon="1.59752">
        <ele>15.6</ele>
        <time>2020-06-22T18:42:55Z</time>
      </trkpt>
      <trkpt lat="50.81924" lon="1.59744">
        <ele>15.4</ele>
        <time>2020-06-22T18:42:56Z</time>
      </trkpt>
      <trkpt lat="50.81929" lon="1.59737">
        <ele>15.3</ele>
        <time>2020-06-22T18:42:57Z</time>
      </trkpt>
      <trkpt lat="50.81933" lon="1.5973">
        <ele>15.2</ele>
        <time>2020-06-22T18:42:58Z</time>
      </trkpt>
      <trkpt lat="50.81938" lon="1.59723">
        <ele>15.1</ele>
        <time>2020-06-22T18:42:59Z</time>
      </trkpt>
      <trkpt lat="50.81943" lon="1.59716">
        <ele>14.9</ele>
        <time>2020-06-22T18:43:00Z</time>
      </trkpt>
      <trkpt lat="50.81947" lon="1.5971">
        <ele>14.9</ele>
        <time>2020-06-22T18:43:01Z</time>
      </trkpt>
      <trkpt lat="50.81952" lon="1.59703">
        <ele>14.8</ele>
        <time>2020-06-22T18:43:02Z</time>
      </trkpt>
      <trkpt lat="50.81956" lon="1.59697">
        <ele>14.6</ele>
        <time>2020-06-22T18:43:03Z</time>
      </trkpt>
      <trkpt lat="50.81961" lon="1.5969">
        <ele>14.4</ele>
        <time>2020-06-22T18:43:04Z</time>
      </trkpt>
      <trkpt lat="50.81965" lon="1.59683">
        <ele>14.2</ele>
        <time>2020-06-22T18:43:05Z</time>
      </trkpt>
      <trkpt lat="50.81969" lon="1.59676">
        <ele>14</ele>
        <time>2020-06-22T18:43:06Z</time>
      </trkpt>
      <trkpt lat="50.81973" lon="1.59668">
        <ele>13.8</ele>
        <time>2020-06-22T18:43:07Z</time>
      </trkpt>
      <trkpt lat="50.81978" lon="1.59661">
        <ele>13.5</ele>
        <time>2020-06-22T18:43:08Z</time>
      </trkpt>
      <trkpt lat="50.81982" lon="1.59654">
        <ele>13.1</ele>
        <time>2020-06-22T18:43:09Z</time>
      </trkpt>
      <trkpt lat="50.81987" lon="1.59647">
        <ele>12.8</ele>
        <time>2020-06-22T18:43:10Z</time>
      </trkpt>
      <trkpt lat="50.81993" lon="1.59641">
        <ele>12.4</ele>
        <time>2020-06-22T18:43:11Z</time>
      </trkpt>
      <trkpt lat="50.81998" lon="1.59633">
        <ele>11.9</ele>
        <time>2020-06-22T18:43:12Z</time>
      </trkpt>
      <trkpt lat="50.82003" lon="1.59626">
        <ele>11.4</ele>
        <time>2020-06-22T18:43:13Z</time>
      </trkpt>
      <trkpt lat="50.82009" lon="1.59619">
        <ele>10.9</ele>
        <time>2020-06-22T18:43:14Z</time>
      </trkpt>
      <trkpt lat="50.82015" lon="1.59611">
        <ele>10.3</ele>
        <time>2020-06-22T18:43:15Z</time>
      </trkpt>
      <trkpt lat="50.82022" lon="1.59604">
        <ele>9.6</ele>
        <time>2020-06-22T18:43:16Z</time>
      </trkpt>
      <trkpt lat="50.82029" lon="1.59597">
        <ele>8.3</ele>
        <time>2020-06-22T18:43:17Z</time>
      </trkpt>
      <trkpt lat="50.82037" lon="1.59589">
        <ele>7.7</ele>
        <time>2020-06-22T18:43:18Z</time>
      </trkpt>
      <trkpt lat="50.82045" lon="1.59582">
        <ele>7.5</ele>
        <time>2020-06-22T18:43:19Z</time>
      </trkpt>
      <trkpt lat="50.82053" lon="1.59576">
        <ele>7.3</ele>
        <time>2020-06-22T18:43:20Z</time>
      </trkpt>
      <trkpt lat="50.82062" lon="1.59569">
        <ele>7.3</ele>
        <time>2020-06-22T18:43:21Z</time>
      </trkpt>
      <trkpt lat="50.8207" lon="1.59562">
        <ele>7.2</ele>
        <time>2020-06-22T18:43:22Z</time>
      </trkpt>
      <trkpt lat="50.82079" lon="1.59556">
        <ele>6.9</ele>
        <time>2020-06-22T18:43:23Z</time>
      </trkpt>
      <trkpt lat="50.82085" lon="1.59547">
        <ele>6.6</ele>
        <time>2020-06-22T18:43:24Z</time>
      </trkpt>
      <trkpt lat="50.82092" lon="1.59537">
        <ele>6.4</ele>
        <time>2020-06-22T18:43:25Z</time>
      </trkpt>
      <trkpt lat="50.82097" lon="1.59528">
        <ele>6.2</ele>
        <time>2020-06-22T18:43:26Z</time>
      </trkpt>
      <trkpt lat="50.82104" lon="1.59519">
        <ele>6</ele>
        <time>2020-06-22T18:43:27Z</time>
      </trkpt>
      <trkpt lat="50.8211" lon="1.5951">
        <ele>5.9</ele>
        <time>2020-06-22T18:43:28Z</time>
      </trkpt>
      <trkpt lat="50.82115" lon="1.59501">
        <ele>5.8</ele>
        <time>2020-06-22T18:43:29Z</time>
      </trkpt>
      <trkpt lat="50.82121" lon="1.59494">
        <ele>5.7</ele>
        <time>2020-06-22T18:43:30Z</time>
      </trkpt>
      <trkpt lat="50.82126" lon="1.59485">
        <ele>5.6</ele>
        <time>2020-06-22T18:43:31Z</time>
      </trkpt>
      <trkpt lat="50.82131" lon="1.59477">
        <ele>5.6</ele>
        <time>2020-06-22T18:43:32Z</time>
      </trkpt>
      <trkpt lat="50.82136" lon="1.59469">
        <ele>5.6</ele>
        <time>2020-06-22T18:43:33Z</time>
      </trkpt>
      <trkpt lat="50.82141" lon="1.59462">
        <ele>5.6</ele>
        <time>2020-06-22T18:43:34Z</time>
      </trkpt>
      <trkpt lat="50.82146" lon="1.59455">
        <ele>5.6</ele>
        <time>2020-06-22T18:43:35Z</time>
      </trkpt>
      <trkpt lat="50.82151" lon="1.59449">
        <ele>5.6</ele>
        <time>2020-06-22T18:43:36Z</time>
      </trkpt>
      <trkpt lat="50.82157" lon="1.59443">
        <ele>5.7</ele>
        <time>2020-06-22T18:43:37Z</time>
      </trkpt>
      <trkpt lat="50.82162" lon="1.59437">
        <ele>5.8</ele>
        <time>2020-06-22T18:43:38Z</time>
      </trkpt>
      <trkpt lat="50.82168" lon="1.59434">
        <ele>5.9</ele>
        <time>2020-06-22T18:43:39Z</time>
      </trkpt>
      <trkpt lat="50.82175" lon="1.59432">
        <ele>6</ele>
        <time>2020-06-22T18:43:40Z</time>
      </trkpt>
      <trkpt lat="50.8218" lon="1.59429">
        <ele>6.1</ele>
        <time>2020-06-22T18:43:41Z</time>
      </trkpt>
      <trkpt lat="50.82186" lon="1.59425">
        <ele>6.3</ele>
        <time>2020-06-22T18:43:42Z</time>
      </trkpt>
      <trkpt lat="50.82191" lon="1.59419">
        <ele>6.4</ele>
        <time>2020-06-22T18:43:43Z</time>
      </trkpt>
      <trkpt lat="50.82197" lon="1.59414">
        <ele>6.6</ele>
        <time>2020-06-22T18:43:44Z</time>
      </trkpt>
      <trkpt lat="50.82202" lon="1.59411">
        <ele>6.7</ele>
        <time>2020-06-22T18:43:45Z</time>
      </trkpt>
      <trkpt lat="50.82208" lon="1.59407">
        <ele>6.9</ele>
        <time>2020-06-22T18:43:46Z</time>
      </trkpt>
      <trkpt lat="50.82214" lon="1.59404">
        <ele>7</ele>
        <time>2020-06-22T18:43:47Z</time>
      </trkpt>
      <trkpt lat="50.82219" lon="1.594">
        <ele>7.1</ele>
        <time>2020-06-22T18:43:48Z</time>
      </trkpt>
      <trkpt lat="50.82224" lon="1.59395">
        <ele>7.3</ele>
        <time>2020-06-22T18:43:49Z</time>
      </trkpt>
      <trkpt lat="50.82229" lon="1.59393">
        <ele>7.4</ele>
        <time>2020-06-22T18:43:50Z</time>
      </trkpt>
      <trkpt lat="50.82234" lon="1.59391">
        <ele>7.6</ele>
        <time>2020-06-22T18:43:51Z</time>
      </trkpt>
      <trkpt lat="50.82238" lon="1.59387">
        <ele>7.8</ele>
        <time>2020-06-22T18:43:52Z</time>
      </trkpt>
      <trkpt lat="50.82243" lon="1.59384">
        <ele>8</ele>
        <time>2020-06-22T18:43:53Z</time>
      </trkpt>
      <trkpt lat="50.82248" lon="1.59381">
        <ele>8.2</ele>
        <time>2020-06-22T18:43:54Z</time>
      </trkpt>
      <trkpt lat="50.82252" lon="1.59378">
        <ele>8.4</ele>
        <time>2020-06-22T18:43:55Z</time>
      </trkpt>
      <trkpt lat="50.82257" lon="1.59374">
        <ele>8.6</ele>
        <time>2020-06-22T18:43:56Z</time>
      </trkpt>
      <trkpt lat="50.82263" lon="1.59371">
        <ele>8.8</ele>
        <time>2020-06-22T18:43:57Z</time>
      </trkpt>
      <trkpt lat="50.82268" lon="1.59368">
        <ele>9</ele>
        <time>2020-06-22T18:43:58Z</time>
      </trkpt>
      <trkpt lat="50.82274" lon="1.59366">
        <ele>9.2</ele>
        <time>2020-06-22T18:43:59Z</time>
      </trkpt>
      <trkpt lat="50.82279" lon="1.59363">
        <ele>9.4</ele>
        <time>2020-06-22T18:44:00Z</time>
      </trkpt>
      <trkpt lat="50.82284" lon="1.5936">
        <ele>9.6</ele>
        <time>2020-06-22T18:44:01Z</time>
      </trkpt>
      <trkpt lat="50.82288" lon="1.59357">
        <ele>9.8</ele>
        <time>2020-06-22T18:44:02Z</time>
      </trkpt>
      <trkpt lat="50.82293" lon="1.59353">
        <ele>10</ele>
        <time>2020-06-22T18:44:03Z</time>
      </trkpt>
      <trkpt lat="50.82298" lon="1.59349">
        <ele>10.2</ele>
        <time>2020-06-22T18:44:04Z</time>
      </trkpt>
      <trkpt lat="50.82304" lon="1.59345">
        <ele>10.4</ele>
        <time>2020-06-22T18:44:05Z</time>
      </trkpt>
      <trkpt lat="50.82309" lon="1.59341">
        <ele>10.6</ele>
        <time>2020-06-22T18:44:06Z</time>
      </trkpt>
      <trkpt lat="50.82314" lon="1.59336">
        <ele>10.8</ele>
        <time>2020-06-22T18:44:07Z</time>
      </trkpt>
      <trkpt lat="50.82319" lon="1.59332">
        <ele>10.9</ele>
        <time>2020-06-22T18:44:08Z</time>
      </trkpt>
      <trkpt lat="50.82324" lon="1.59329">
        <ele>11</ele>
        <time>2020-06-22T18:44:09Z</time>
      </trkpt>
      <trkpt lat="50.82329" lon="1.59325">
        <ele>11.1</ele>
        <time>2020-06-22T18:44:10Z</time>
      </trkpt>
      <trkpt lat="50.82334" lon="1.59321">
        <ele>11.1</ele>
        <time>2020-06-22T18:44:11Z</time>
      </trkpt>
      <trkpt lat="50.82338" lon="1.59318">
        <ele>11.2</ele>
        <time>2020-06-22T18:44:12Z</time>
      </trkpt>
      <trkpt lat="50.82343" lon="1.59314">
        <ele>11.3</ele>
        <time>2020-06-22T18:44:13Z</time>
      </trkpt>
      <trkpt lat="50.82348" lon="1.59311">
        <ele>11.3</ele>
        <time>2020-06-22T18:44:14Z</time>
      </trkpt>
      <trkpt lat="50.82351" lon="1.59307">
        <ele>11.4</ele>
        <time>2020-06-22T18:44:15Z</time>
      </trkpt>
      <trkpt lat="50.82356" lon="1.59304">
        <ele>11.5</ele>
        <time>2020-06-22T18:44:16Z</time>
      </trkpt>
      <trkpt lat="50.82361" lon="1.593">
        <ele>11.6</ele>
        <time>2020-06-22T18:44:17Z</time>
      </trkpt>
      <trkpt lat="50.82366" lon="1.59296">
        <ele>11.8</ele>
        <time>2020-06-22T18:44:18Z</time>
      </trkpt>
      <trkpt lat="50.82371" lon="1.59292">
        <ele>11.9</ele>
        <time>2020-06-22T18:44:19Z</time>
      </trkpt>
      <trkpt lat="50.82376" lon="1.59291">
        <ele>12</ele>
        <time>2020-06-22T18:44:20Z</time>
      </trkpt>
      <trkpt lat="50.8238" lon="1.59288">
        <ele>12.1</ele>
        <time>2020-06-22T18:44:21Z</time>
      </trkpt>
      <trkpt lat="50.82385" lon="1.59285">
        <ele>12.2</ele>
        <time>2020-06-22T18:44:22Z</time>
      </trkpt>
      <trkpt lat="50.82388" lon="1.59285">
        <ele>12.3</ele>
        <time>2020-06-22T18:44:23Z</time>
      </trkpt>
      <trkpt lat="50.82392" lon="1.59284">
        <ele>12.3</ele>
        <time>2020-06-22T18:44:24Z</time>
      </trkpt>
      <trkpt lat="50.82396" lon="1.59282">
        <ele>12.4</ele>
        <time>2020-06-22T18:44:25Z</time>
      </trkpt>
      <trkpt lat="50.824" lon="1.59282">
        <ele>12.4</ele>
        <time>2020-06-22T18:44:26Z</time>
      </trkpt>
      <trkpt lat="50.82403" lon="1.59286">
        <ele>12.4</ele>
        <time>2020-06-22T18:44:27Z</time>
      </trkpt>
      <trkpt lat="50.82405" lon="1.59293">
        <ele>12.5</ele>
        <time>2020-06-22T18:44:28Z</time>
      </trkpt>
      <trkpt lat="50.82407" lon="1.59303">
        <ele>12.5</ele>
        <time>2020-06-22T18:44:29Z</time>
      </trkpt>
      <trkpt lat="50.82408" lon="1.59314">
        <ele>12.5</ele>
        <time>2020-06-22T18:44:30Z</time>
      </trkpt>
      <trkpt lat="50.82409" lon="1.5932">
        <ele>12.5</ele>
        <time>2020-06-22T18:44:31Z</time>
      </trkpt>
      <trkpt lat="50.8241" lon="1.59327">
        <ele>12.5</ele>
        <time>2020-06-22T18:44:32Z</time>
      </trkpt>
      <trkpt lat="50.82411" lon="1.59333">
        <ele>12.7</ele>
        <time>2020-06-22T18:44:33Z</time>
      </trkpt>
      <trkpt lat="50.82412" lon="1.59341">
        <ele>12.7</ele>
        <time>2020-06-22T18:44:34Z</time>
      </trkpt>
      <trkpt lat="50.82413" lon="1.59346">
        <ele>12.8</ele>
        <time>2020-06-22T18:44:35Z</time>
      </trkpt>
      <trkpt lat="50.82417" lon="1.5935">
        <ele>12.8</ele>
        <time>2020-06-22T18:44:36Z</time>
      </trkpt>
      <trkpt lat="50.82421" lon="1.59352">
        <ele>12.9</ele>
        <time>2020-06-22T18:44:37Z</time>
      </trkpt>
      <trkpt lat="50.82425" lon="1.59352">
        <ele>12.9</ele>
        <time>2020-06-22T18:44:38Z</time>
      </trkpt>
      <trkpt lat="50.82429" lon="1.59353">
        <ele>13</ele>
        <time>2020-06-22T18:44:39Z</time>
      </trkpt>
      <trkpt lat="50.82435" lon="1.59352">
        <ele>13</ele>
        <time>2020-06-22T18:44:40Z</time>
      </trkpt>
      <trkpt lat="50.82439" lon="1.59351">
        <ele>13</ele>
        <time>2020-06-22T18:44:41Z</time>
      </trkpt>
      <trkpt lat="50.82443" lon="1.59348">
        <ele>13.1</ele>
        <time>2020-06-22T18:44:42Z</time>
      </trkpt>
      <trkpt lat="50.82448" lon="1.59344">
        <ele>13.1</ele>
        <time>2020-06-22T18:44:43Z</time>
      </trkpt>
      <trkpt lat="50.82451" lon="1.59339">
        <ele>13.1</ele>
        <time>2020-06-22T18:44:44Z</time>
      </trkpt>
      <trkpt lat="50.82455" lon="1.59334">
        <ele>13</ele>
        <time>2020-06-22T18:44:45Z</time>
      </trkpt>
      <trkpt lat="50.82458" lon="1.59331">
        <ele>13</ele>
        <time>2020-06-22T18:44:46Z</time>
      </trkpt>
      <trkpt lat="50.82462" lon="1.59326">
        <ele>12.9</ele>
        <time>2020-06-22T18:44:47Z</time>
      </trkpt>
      <trkpt lat="50.82466" lon="1.59321">
        <ele>12.8</ele>
        <time>2020-06-22T18:44:48Z</time>
      </trkpt>
      <trkpt lat="50.8247" lon="1.59317">
        <ele>12.7</ele>
        <time>2020-06-22T18:44:49Z</time>
      </trkpt>
      <trkpt lat="50.82475" lon="1.59312">
        <ele>12.7</ele>
        <time>2020-06-22T18:44:50Z</time>
      </trkpt>
      <trkpt lat="50.82481" lon="1.59308">
        <ele>12.6</ele>
        <time>2020-06-22T18:44:51Z</time>
      </trkpt>
      <trkpt lat="50.82486" lon="1.59303">
        <ele>12.5</ele>
        <time>2020-06-22T18:44:52Z</time>
      </trkpt>
      <trkpt lat="50.82491" lon="1.59299">
        <ele>12.5</ele>
        <time>2020-06-22T18:44:53Z</time>
      </trkpt>
      <trkpt lat="50.82495" lon="1.59294">
        <ele>12.5</ele>
        <time>2020-06-22T18:44:54Z</time>
      </trkpt>
      <trkpt lat="50.825" lon="1.59291">
        <ele>12.6</ele>
        <time>2020-06-22T18:44:55Z</time>
      </trkpt>
      <trkpt lat="50.82504" lon="1.59288">
        <ele>12.6</ele>
        <time>2020-06-22T18:44:56Z</time>
      </trkpt>
      <trkpt lat="50.82509" lon="1.59286">
        <ele>12.6</ele>
        <time>2020-06-22T18:44:57Z</time>
      </trkpt>
      <trkpt lat="50.82514" lon="1.59282">
        <ele>12.7</ele>
        <time>2020-06-22T18:44:58Z</time>
      </trkpt>
      <trkpt lat="50.82519" lon="1.59278">
        <ele>12.8</ele>
        <time>2020-06-22T18:44:59Z</time>
      </trkpt>
      <trkpt lat="50.82524" lon="1.59275">
        <ele>12.8</ele>
        <time>2020-06-22T18:45:00Z</time>
      </trkpt>
      <trkpt lat="50.8253" lon="1.5927">
        <ele>12.9</ele>
        <time>2020-06-22T18:45:01Z</time>
      </trkpt>
      <trkpt lat="50.82535" lon="1.59267">
        <ele>12.9</ele>
        <time>2020-06-22T18:45:02Z</time>
      </trkpt>
      <trkpt lat="50.82541" lon="1.59265">
        <ele>13</ele>
        <time>2020-06-22T18:45:03Z</time>
      </trkpt>
      <trkpt lat="50.82546" lon="1.59261">
        <ele>13</ele>
        <time>2020-06-22T18:45:04Z</time>
      </trkpt>
      <trkpt lat="50.82552" lon="1.59257">
        <ele>13.1</ele>
        <time>2020-06-22T18:45:05Z</time>
      </trkpt>
      <trkpt lat="50.82557" lon="1.59254">
        <ele>13.2</ele>
        <time>2020-06-22T18:45:06Z</time>
      </trkpt>
      <trkpt lat="50.82562" lon="1.5925">
        <ele>13.3</ele>
        <time>2020-06-22T18:45:07Z</time>
      </trkpt>
      <trkpt lat="50.82566" lon="1.59247">
        <ele>13.3</ele>
        <time>2020-06-22T18:45:08Z</time>
      </trkpt>
      <trkpt lat="50.82571" lon="1.59243">
        <ele>13.5</ele>
        <time>2020-06-22T18:45:09Z</time>
      </trkpt>
      <trkpt lat="50.82577" lon="1.59239">
        <ele>13.7</ele>
        <time>2020-06-22T18:45:10Z</time>
      </trkpt>
      <trkpt lat="50.82582" lon="1.59236">
        <ele>13.8</ele>
        <time>2020-06-22T18:45:11Z</time>
      </trkpt>
      <trkpt lat="50.82587" lon="1.59234">
        <ele>13.9</ele>
        <time>2020-06-22T18:45:12Z</time>
      </trkpt>
      <trkpt lat="50.82591" lon="1.59234">
        <ele>14</ele>
        <time>2020-06-22T18:45:13Z</time>
      </trkpt>
      <trkpt lat="50.82596" lon="1.59233">
        <ele>14.2</ele>
        <time>2020-06-22T18:45:14Z</time>
      </trkpt>
      <trkpt lat="50.82602" lon="1.59234">
        <ele>14.5</ele>
        <time>2020-06-22T18:45:15Z</time>
      </trkpt>
      <trkpt lat="50.82606" lon="1.59236">
        <ele>14.7</ele>
        <time>2020-06-22T18:45:16Z</time>
      </trkpt>
      <trkpt lat="50.82611" lon="1.59239">
        <ele>14.9</ele>
        <time>2020-06-22T18:45:17Z</time>
      </trkpt>
      <trkpt lat="50.82616" lon="1.59242">
        <ele>15.2</ele>
        <time>2020-06-22T18:45:18Z</time>
      </trkpt>
      <trkpt lat="50.8262" lon="1.59245">
        <ele>15.4</ele>
        <time>2020-06-22T18:45:19Z</time>
      </trkpt>
      <trkpt lat="50.82625" lon="1.59248">
        <ele>15.7</ele>
        <time>2020-06-22T18:45:20Z</time>
      </trkpt>
      <trkpt lat="50.82629" lon="1.59253">
        <ele>15.9</ele>
        <time>2020-06-22T18:45:21Z</time>
      </trkpt>
      <trkpt lat="50.82634" lon="1.59259">
        <ele>16.1</ele>
        <time>2020-06-22T18:45:22Z</time>
      </trkpt>
      <trkpt lat="50.82638" lon="1.59264">
        <ele>16.4</ele>
        <time>2020-06-22T18:45:23Z</time>
      </trkpt>
      <trkpt lat="50.82644" lon="1.59269">
        <ele>16.6</ele>
        <time>2020-06-22T18:45:24Z</time>
      </trkpt>
      <trkpt lat="50.82649" lon="1.59272">
        <ele>16.9</ele>
        <time>2020-06-22T18:45:25Z</time>
      </trkpt>
      <trkpt lat="50.82654" lon="1.59276">
        <ele>17.1</ele>
        <time>2020-06-22T18:45:26Z</time>
      </trkpt>
      <trkpt lat="50.8266" lon="1.59279">
        <ele>17.4</ele>
        <time>2020-06-22T18:45:27Z</time>
      </trkpt>
      <trkpt lat="50.82667" lon="1.59283">
        <ele>17.7</ele>
        <time>2020-06-22T18:45:28Z</time>
      </trkpt>
      <trkpt lat="50.82672" lon="1.59285">
        <ele>17.9</ele>
        <time>2020-06-22T18:45:29Z</time>
      </trkpt>
      <trkpt lat="50.82677" lon="1.59286">
        <ele>18.1</ele>
        <time>2020-06-22T18:45:30Z</time>
      </trkpt>
      <trkpt lat="50.82683" lon="1.59288">
        <ele>18.3</ele>
        <time>2020-06-22T18:45:31Z</time>
      </trkpt>
      <trkpt lat="50.82688" lon="1.59288">
        <ele>18.4</ele>
        <time>2020-06-22T18:45:32Z</time>
      </trkpt>
      <trkpt lat="50.82692" lon="1.59288">
        <ele>18.5</ele>
        <time>2020-06-22T18:45:33Z</time>
      </trkpt>
      <trkpt lat="50.82697" lon="1.59288">
        <ele>18.5</ele>
        <time>2020-06-22T18:45:34Z</time>
      </trkpt>
      <trkpt lat="50.82702" lon="1.59289">
        <ele>18.6</ele>
        <time>2020-06-22T18:45:35Z</time>
      </trkpt>
      <trkpt lat="50.82707" lon="1.59288">
        <ele>18.7</ele>
        <time>2020-06-22T18:45:36Z</time>
      </trkpt>
      <trkpt lat="50.82711" lon="1.59288">
        <ele>18.7</ele>
        <time>2020-06-22T18:45:37Z</time>
      </trkpt>
      <trkpt lat="50.82715" lon="1.59288">
        <ele>18.8</ele>
        <time>2020-06-22T18:45:38Z</time>
      </trkpt>
      <trkpt lat="50.82719" lon="1.59288">
        <ele>18.8</ele>
        <time>2020-06-22T18:45:39Z</time>
      </trkpt>
      <trkpt lat="50.82724" lon="1.59287">
        <ele>18.9</ele>
        <time>2020-06-22T18:45:40Z</time>
      </trkpt>
      <trkpt lat="50.82728" lon="1.59285">
        <ele>18.9</ele>
        <time>2020-06-22T18:45:41Z</time>
      </trkpt>
      <trkpt lat="50.82732" lon="1.59282">
        <ele>18.9</ele>
        <time>2020-06-22T18:45:42Z</time>
      </trkpt>
      <trkpt lat="50.82736" lon="1.59279">
        <ele>18.9</ele>
        <time>2020-06-22T18:45:43Z</time>
      </trkpt>
      <trkpt lat="50.8274" lon="1.59277">
        <ele>18.9</ele>
        <time>2020-06-22T18:45:44Z</time>
      </trkpt>
      <trkpt lat="50.82744" lon="1.59276">
        <ele>19</ele>
        <time>2020-06-22T18:45:45Z</time>
      </trkpt>
      <trkpt lat="50.82747" lon="1.59274">
        <ele>19</ele>
        <time>2020-06-22T18:45:46Z</time>
      </trkpt>
      <trkpt lat="50.82751" lon="1.59271">
        <ele>19</ele>
        <time>2020-06-22T18:45:47Z</time>
      </trkpt>
      <trkpt lat="50.82754" lon="1.59267">
        <ele>19</ele>
        <time>2020-06-22T18:45:48Z</time>
      </trkpt>
      <trkpt lat="50.82758" lon="1.59264">
        <ele>19</ele>
        <time>2020-06-22T18:45:49Z</time>
      </trkpt>
      <trkpt lat="50.82761" lon="1.59262">
        <ele>18.9</ele>
        <time>2020-06-22T18:45:50Z</time>
      </trkpt>
      <trkpt lat="50.82765" lon="1.5926">
        <ele>18.9</ele>
        <time>2020-06-22T18:45:51Z</time>
      </trkpt>
      <trkpt lat="50.82769" lon="1.59256">
        <ele>18.8</ele>
        <time>2020-06-22T18:45:52Z</time>
      </trkpt>
      <trkpt lat="50.82773" lon="1.59254">
        <ele>18.8</ele>
        <time>2020-06-22T18:45:53Z</time>
      </trkpt>
      <trkpt lat="50.82777" lon="1.5925">
        <ele>18.7</ele>
        <time>2020-06-22T18:45:54Z</time>
      </trkpt>
      <trkpt lat="50.82782" lon="1.59247">
        <ele>18.6</ele>
        <time>2020-06-22T18:45:55Z</time>
      </trkpt>
      <trkpt lat="50.82786" lon="1.59244">
        <ele>18.5</ele>
        <time>2020-06-22T18:45:56Z</time>
      </trkpt>
      <trkpt lat="50.8279" lon="1.5924">
        <ele>18.4</ele>
        <time>2020-06-22T18:45:57Z</time>
      </trkpt>
      <trkpt lat="50.82794" lon="1.59237">
        <ele>18.2</ele>
        <time>2020-06-22T18:45:58Z</time>
      </trkpt>
      <trkpt lat="50.82799" lon="1.59234">
        <ele>18.1</ele>
        <time>2020-06-22T18:45:59Z</time>
      </trkpt>
      <trkpt lat="50.82803" lon="1.5923">
        <ele>17.9</ele>
        <time>2020-06-22T18:46:00Z</time>
      </trkpt>
      <trkpt lat="50.82808" lon="1.59226">
        <ele>17.4</ele>
        <time>2020-06-22T18:46:01Z</time>
      </trkpt>
      <trkpt lat="50.82813" lon="1.59223">
        <ele>17.2</ele>
        <time>2020-06-22T18:46:02Z</time>
      </trkpt>
      <trkpt lat="50.82819" lon="1.59217">
        <ele>16.8</ele>
        <time>2020-06-22T18:46:03Z</time>
      </trkpt>
      <trkpt lat="50.82824" lon="1.59214">
        <ele>16.6</ele>
        <time>2020-06-22T18:46:04Z</time>
      </trkpt>
      <trkpt lat="50.8283" lon="1.5921">
        <ele>16.2</ele>
        <time>2020-06-22T18:46:05Z</time>
      </trkpt>
      <trkpt lat="50.82836" lon="1.59206">
        <ele>15.9</ele>
        <time>2020-06-22T18:46:06Z</time>
      </trkpt>
      <trkpt lat="50.82842" lon="1.59201">
        <ele>15.5</ele>
        <time>2020-06-22T18:46:07Z</time>
      </trkpt>
      <trkpt lat="50.82848" lon="1.59197">
        <ele>15.1</ele>
        <time>2020-06-22T18:46:08Z</time>
      </trkpt>
      <trkpt lat="50.82854" lon="1.59192">
        <ele>14.7</ele>
        <time>2020-06-22T18:46:09Z</time>
      </trkpt>
      <trkpt lat="50.82861" lon="1.59186">
        <ele>14.3</ele>
        <time>2020-06-22T18:46:10Z</time>
      </trkpt>
      <trkpt lat="50.82868" lon="1.5918">
        <ele>13.9</ele>
        <time>2020-06-22T18:46:11Z</time>
      </trkpt>
      <trkpt lat="50.82875" lon="1.59176">
        <ele>13.4</ele>
        <time>2020-06-22T18:46:12Z</time>
      </trkpt>
      <trkpt lat="50.82882" lon="1.5917">
        <ele>13</ele>
        <time>2020-06-22T18:46:13Z</time>
      </trkpt>
      <trkpt lat="50.82889" lon="1.59165">
        <ele>12.5</ele>
        <time>2020-06-22T18:46:14Z</time>
      </trkpt>
      <trkpt lat="50.82898" lon="1.59162">
        <ele>12</ele>
        <time>2020-06-22T18:46:15Z</time>
      </trkpt>
      <trkpt lat="50.82906" lon="1.59159">
        <ele>11.5</ele>
        <time>2020-06-22T18:46:16Z</time>
      </trkpt>
      <trkpt lat="50.82914" lon="1.59157">
        <ele>11.1</ele>
        <time>2020-06-22T18:46:17Z</time>
      </trkpt>
      <trkpt lat="50.82923" lon="1.59156">
        <ele>10.6</ele>
        <time>2020-06-22T18:46:18Z</time>
      </trkpt>
      <trkpt lat="50.82931" lon="1.59157">
        <ele>10.3</ele>
        <time>2020-06-22T18:46:19Z</time>
      </trkpt>
      <trkpt lat="50.82939" lon="1.59159">
        <ele>10</ele>
        <time>2020-06-22T18:46:20Z</time>
      </trkpt>
      <trkpt lat="50.82946" lon="1.59161">
        <ele>9.9</ele>
        <time>2020-06-22T18:46:21Z</time>
      </trkpt>
      <trkpt lat="50.82954" lon="1.59164">
        <ele>9.9</ele>
        <time>2020-06-22T18:46:22Z</time>
      </trkpt>
      <trkpt lat="50.82961" lon="1.59166">
        <ele>9.9</ele>
        <time>2020-06-22T18:46:23Z</time>
      </trkpt>
      <trkpt lat="50.82968" lon="1.59169">
        <ele>9.9</ele>
        <time>2020-06-22T18:46:24Z</time>
      </trkpt>
      <trkpt lat="50.82974" lon="1.59172">
        <ele>10</ele>
        <time>2020-06-22T18:46:25Z</time>
      </trkpt>
      <trkpt lat="50.82979" lon="1.59176">
        <ele>10.2</ele>
        <time>2020-06-22T18:46:26Z</time>
      </trkpt>
      <trkpt lat="50.82985" lon="1.59179">
        <ele>10.3</ele>
        <time>2020-06-22T18:46:27Z</time>
      </trkpt>
      <trkpt lat="50.82991" lon="1.59182">
        <ele>10.6</ele>
        <time>2020-06-22T18:46:28Z</time>
      </trkpt>
      <trkpt lat="50.82996" lon="1.59187">
        <ele>10.8</ele>
        <time>2020-06-22T18:46:29Z</time>
      </trkpt>
      <trkpt lat="50.83001" lon="1.5919">
        <ele>11.1</ele>
        <time>2020-06-22T18:46:30Z</time>
      </trkpt>
      <trkpt lat="50.83007" lon="1.59194">
        <ele>11.3</ele>
        <time>2020-06-22T18:46:31Z</time>
      </trkpt>
      <trkpt lat="50.83012" lon="1.59198">
        <ele>11.6</ele>
        <time>2020-06-22T18:46:32Z</time>
      </trkpt>
      <trkpt lat="50.83017" lon="1.592">
        <ele>11.8</ele>
        <time>2020-06-22T18:46:33Z</time>
      </trkpt>
      <trkpt lat="50.83022" lon="1.59203">
        <ele>12.1</ele>
        <time>2020-06-22T18:46:34Z</time>
      </trkpt>
      <trkpt lat="50.83027" lon="1.59207">
        <ele>12.3</ele>
        <time>2020-06-22T18:46:35Z</time>
      </trkpt>
      <trkpt lat="50.83031" lon="1.5921">
        <ele>12.5</ele>
        <time>2020-06-22T18:46:36Z</time>
      </trkpt>
      <trkpt lat="50.83036" lon="1.59212">
        <ele>12.7</ele>
        <time>2020-06-22T18:46:37Z</time>
      </trkpt>
      <trkpt lat="50.83041" lon="1.59216">
        <ele>12.9</ele>
        <time>2020-06-22T18:46:38Z</time>
      </trkpt>
      <trkpt lat="50.83045" lon="1.59219">
        <ele>13.1</ele>
        <time>2020-06-22T18:46:39Z</time>
      </trkpt>
      <trkpt lat="50.8305" lon="1.59221">
        <ele>13.3</ele>
        <time>2020-06-22T18:46:40Z</time>
      </trkpt>
      <trkpt lat="50.83054" lon="1.59224">
        <ele>13.5</ele>
        <time>2020-06-22T18:46:41Z</time>
      </trkpt>
      <trkpt lat="50.83058" lon="1.59229">
        <ele>13.7</ele>
        <time>2020-06-22T18:46:42Z</time>
      </trkpt>
      <trkpt lat="50.83063" lon="1.59233">
        <ele>13.8</ele>
        <time>2020-06-22T18:46:43Z</time>
      </trkpt>
      <trkpt lat="50.83067" lon="1.59237">
        <ele>14</ele>
        <time>2020-06-22T18:46:44Z</time>
      </trkpt>
      <trkpt lat="50.83071" lon="1.59241">
        <ele>14.2</ele>
        <time>2020-06-22T18:46:45Z</time>
      </trkpt>
      <trkpt lat="50.83076" lon="1.59243">
        <ele>14.4</ele>
        <time>2020-06-22T18:46:46Z</time>
      </trkpt>
      <trkpt lat="50.8308" lon="1.59247">
        <ele>14.6</ele>
        <time>2020-06-22T18:46:47Z</time>
      </trkpt>
      <trkpt lat="50.83085" lon="1.59249">
        <ele>14.8</ele>
        <time>2020-06-22T18:46:48Z</time>
      </trkpt>
      <trkpt lat="50.83089" lon="1.59252">
        <ele>14.9</ele>
        <time>2020-06-22T18:46:49Z</time>
      </trkpt>
      <trkpt lat="50.83093" lon="1.59255">
        <ele>15.1</ele>
        <time>2020-06-22T18:46:50Z</time>
      </trkpt>
      <trkpt lat="50.83098" lon="1.59258">
        <ele>15.3</ele>
        <time>2020-06-22T18:46:51Z</time>
      </trkpt>
      <trkpt lat="50.83102" lon="1.59261">
        <ele>15.4</ele>
        <time>2020-06-22T18:46:52Z</time>
      </trkpt>
      <trkpt lat="50.83106" lon="1.59264">
        <ele>15.5</ele>
        <time>2020-06-22T18:46:53Z</time>
      </trkpt>
      <trkpt lat="50.83111" lon="1.59268">
        <ele>15.7</ele>
        <time>2020-06-22T18:46:54Z</time>
      </trkpt>
      <trkpt lat="50.83116" lon="1.5927">
        <ele>15.8</ele>
        <time>2020-06-22T18:46:55Z</time>
      </trkpt>
      <trkpt lat="50.83121" lon="1.59273">
        <ele>16</ele>
        <time>2020-06-22T18:46:56Z</time>
      </trkpt>
      <trkpt lat="50.83126" lon="1.59276">
        <ele>16.2</ele>
        <time>2020-06-22T18:46:57Z</time>
      </trkpt>
      <trkpt lat="50.83131" lon="1.59279">
        <ele>16.4</ele>
        <time>2020-06-22T18:46:58Z</time>
      </trkpt>
      <trkpt lat="50.83136" lon="1.59283">
        <ele>16.7</ele>
        <time>2020-06-22T18:46:59Z</time>
      </trkpt>
      <trkpt lat="50.83141" lon="1.59286">
        <ele>16.9</ele>
        <time>2020-06-22T18:47:00Z</time>
      </trkpt>
      <trkpt lat="50.83145" lon="1.59289">
        <ele>17.1</ele>
        <time>2020-06-22T18:47:01Z</time>
      </trkpt>
      <trkpt lat="50.8315" lon="1.59291">
        <ele>17.3</ele>
        <time>2020-06-22T18:47:02Z</time>
      </trkpt>
      <trkpt lat="50.83155" lon="1.59294">
        <ele>17.5</ele>
        <time>2020-06-22T18:47:03Z</time>
      </trkpt>
      <trkpt lat="50.8316" lon="1.59298">
        <ele>17.7</ele>
        <time>2020-06-22T18:47:04Z</time>
      </trkpt>
      <trkpt lat="50.83165" lon="1.59302">
        <ele>18</ele>
        <time>2020-06-22T18:47:05Z</time>
      </trkpt>
      <trkpt lat="50.8317" lon="1.59305">
        <ele>18.2</ele>
        <time>2020-06-22T18:47:06Z</time>
      </trkpt>
      <trkpt lat="50.83175" lon="1.59309">
        <ele>18.4</ele>
        <time>2020-06-22T18:47:07Z</time>
      </trkpt>
      <trkpt lat="50.8318" lon="1.59311">
        <ele>18.7</ele>
        <time>2020-06-22T18:47:08Z</time>
      </trkpt>
      <trkpt lat="50.83184" lon="1.59313">
        <ele>18.9</ele>
        <time>2020-06-22T18:47:09Z</time>
      </trkpt>
      <trkpt lat="50.83189" lon="1.59317">
        <ele>19.2</ele>
        <time>2020-06-22T18:47:10Z</time>
      </trkpt>
      <trkpt lat="50.83194" lon="1.59321">
        <ele>19.5</ele>
        <time>2020-06-22T18:47:11Z</time>
      </trkpt>
      <trkpt lat="50.83198" lon="1.59324">
        <ele>19.7</ele>
        <time>2020-06-22T18:47:12Z</time>
      </trkpt>
      <trkpt lat="50.83203" lon="1.59327">
        <ele>20</ele>
        <time>2020-06-22T18:47:13Z</time>
      </trkpt>
      <trkpt lat="50.83207" lon="1.59331">
        <ele>20.3</ele>
        <time>2020-06-22T18:47:14Z</time>
      </trkpt>
      <trkpt lat="50.8321" lon="1.59334">
        <ele>20.5</ele>
        <time>2020-06-22T18:47:15Z</time>
      </trkpt>
      <trkpt lat="50.83216" lon="1.59337">
        <ele>20.7</ele>
        <time>2020-06-22T18:47:16Z</time>
      </trkpt>
      <trkpt lat="50.8322" lon="1.59339">
        <ele>21</ele>
        <time>2020-06-22T18:47:17Z</time>
      </trkpt>
      <trkpt lat="50.83225" lon="1.59343">
        <ele>21.2</ele>
        <time>2020-06-22T18:47:18Z</time>
      </trkpt>
      <trkpt lat="50.83229" lon="1.59346">
        <ele>21.5</ele>
        <time>2020-06-22T18:47:19Z</time>
      </trkpt>
      <trkpt lat="50.83234" lon="1.5935">
        <ele>21.8</ele>
        <time>2020-06-22T18:47:20Z</time>
      </trkpt>
      <trkpt lat="50.83238" lon="1.59354">
        <ele>22.1</ele>
        <time>2020-06-22T18:47:21Z</time>
      </trkpt>
      <trkpt lat="50.83242" lon="1.59356">
        <ele>22.4</ele>
        <time>2020-06-22T18:47:22Z</time>
      </trkpt>
      <trkpt lat="50.83247" lon="1.59359">
        <ele>22.6</ele>
        <time>2020-06-22T18:47:23Z</time>
      </trkpt>
      <trkpt lat="50.83251" lon="1.59362">
        <ele>22.9</ele>
        <time>2020-06-22T18:47:24Z</time>
      </trkpt>
      <trkpt lat="50.83256" lon="1.59364">
        <ele>23.1</ele>
        <time>2020-06-22T18:47:25Z</time>
      </trkpt>
      <trkpt lat="50.83259" lon="1.59366">
        <ele>23.4</ele>
        <time>2020-06-22T18:47:26Z</time>
      </trkpt>
      <trkpt lat="50.83263" lon="1.59368">
        <ele>23.6</ele>
        <time>2020-06-22T18:47:27Z</time>
      </trkpt>
      <trkpt lat="50.83267" lon="1.5937">
        <ele>23.8</ele>
        <time>2020-06-22T18:47:28Z</time>
      </trkpt>
      <trkpt lat="50.8327" lon="1.59373">
        <ele>24</ele>
        <time>2020-06-22T18:47:29Z</time>
      </trkpt>
      <trkpt lat="50.83274" lon="1.59375">
        <ele>24.2</ele>
        <time>2020-06-22T18:47:30Z</time>
      </trkpt>
      <trkpt lat="50.83279" lon="1.59377">
        <ele>24.5</ele>
        <time>2020-06-22T18:47:31Z</time>
      </trkpt>
      <trkpt lat="50.83283" lon="1.5938">
        <ele>24.8</ele>
        <time>2020-06-22T18:47:32Z</time>
      </trkpt>
      <trkpt lat="50.83287" lon="1.59383">
        <ele>25</ele>
        <time>2020-06-22T18:47:33Z</time>
      </trkpt>
      <trkpt lat="50.83291" lon="1.59385">
        <ele>25.2</ele>
        <time>2020-06-22T18:47:34Z</time>
      </trkpt>
      <trkpt lat="50.83296" lon="1.59387">
        <ele>25.5</ele>
        <time>2020-06-22T18:47:35Z</time>
      </trkpt>
      <trkpt lat="50.83301" lon="1.5939">
        <ele>25.8</ele>
        <time>2020-06-22T18:47:36Z</time>
      </trkpt>
      <trkpt lat="50.83306" lon="1.59393">
        <ele>26.1</ele>
        <time>2020-06-22T18:47:37Z</time>
      </trkpt>
      <trkpt lat="50.83311" lon="1.59395">
        <ele>26.4</ele>
        <time>2020-06-22T18:47:38Z</time>
      </trkpt>
      <trkpt lat="50.83315" lon="1.59397">
        <ele>26.6</ele>
        <time>2020-06-22T18:47:39Z</time>
      </trkpt>
      <trkpt lat="50.83319" lon="1.59398">
        <ele>26.9</ele>
        <time>2020-06-22T18:47:40Z</time>
      </trkpt>
      <trkpt lat="50.83324" lon="1.594">
        <ele>27.2</ele>
        <time>2020-06-22T18:47:41Z</time>
      </trkpt>
      <trkpt lat="50.83328" lon="1.59401">
        <ele>27.4</ele>
        <time>2020-06-22T18:47:42Z</time>
      </trkpt>
      <trkpt lat="50.83332" lon="1.59402">
        <ele>27.6</ele>
        <time>2020-06-22T18:47:43Z</time>
      </trkpt>
      <trkpt lat="50.83336" lon="1.59403">
        <ele>27.9</ele>
        <time>2020-06-22T18:47:44Z</time>
      </trkpt>
      <trkpt lat="50.8334" lon="1.59405">
        <ele>28.1</ele>
        <time>2020-06-22T18:47:45Z</time>
      </trkpt>
      <trkpt lat="50.83344" lon="1.59406">
        <ele>28.3</ele>
        <time>2020-06-22T18:47:46Z</time>
      </trkpt>
      <trkpt lat="50.83348" lon="1.59408">
        <ele>28.5</ele>
        <time>2020-06-22T18:47:47Z</time>
      </trkpt>
      <trkpt lat="50.83352" lon="1.5941">
        <ele>28.7</ele>
        <time>2020-06-22T18:47:48Z</time>
      </trkpt>
      <trkpt lat="50.83356" lon="1.5941">
        <ele>28.9</ele>
        <time>2020-06-22T18:47:49Z</time>
      </trkpt>
      <trkpt lat="50.8336" lon="1.59411">
        <ele>29.2</ele>
        <time>2020-06-22T18:47:50Z</time>
      </trkpt>
      <trkpt lat="50.83364" lon="1.59411">
        <ele>29.4</ele>
        <time>2020-06-22T18:47:51Z</time>
      </trkpt>
      <trkpt lat="50.83368" lon="1.59412">
        <ele>29.6</ele>
        <time>2020-06-22T18:47:52Z</time>
      </trkpt>
      <trkpt lat="50.83372" lon="1.59413">
        <ele>29.8</ele>
        <time>2020-06-22T18:47:53Z</time>
      </trkpt>
      <trkpt lat="50.83377" lon="1.59414">
        <ele>30</ele>
        <time>2020-06-22T18:47:54Z</time>
      </trkpt>
      <trkpt lat="50.83381" lon="1.59415">
        <ele>30.2</ele>
        <time>2020-06-22T18:47:55Z</time>
      </trkpt>
      <trkpt lat="50.83385" lon="1.59416">
        <ele>30.4</ele>
        <time>2020-06-22T18:47:56Z</time>
      </trkpt>
      <trkpt lat="50.83389" lon="1.59418">
        <ele>30.6</ele>
        <time>2020-06-22T18:47:57Z</time>
      </trkpt>
      <trkpt lat="50.83393" lon="1.59419">
        <ele>30.9</ele>
        <time>2020-06-22T18:47:58Z</time>
      </trkpt>
      <trkpt lat="50.83397" lon="1.5942">
        <ele>31.1</ele>
        <time>2020-06-22T18:47:59Z</time>
      </trkpt>
      <trkpt lat="50.83401" lon="1.59421">
        <ele>31.3</ele>
        <time>2020-06-22T18:48:00Z</time>
      </trkpt>
      <trkpt lat="50.83405" lon="1.59422">
        <ele>31.5</ele>
        <time>2020-06-22T18:48:01Z</time>
      </trkpt>
      <trkpt lat="50.83408" lon="1.59423">
        <ele>31.7</ele>
        <time>2020-06-22T18:48:02Z</time>
      </trkpt>
      <trkpt lat="50.83412" lon="1.59425">
        <ele>31.9</ele>
        <time>2020-06-22T18:48:03Z</time>
      </trkpt>
      <trkpt lat="50.83416" lon="1.59427">
        <ele>32.1</ele>
        <time>2020-06-22T18:48:04Z</time>
      </trkpt>
      <trkpt lat="50.8342" lon="1.59428">
        <ele>32.4</ele>
        <time>2020-06-22T18:48:05Z</time>
      </trkpt>
      <trkpt lat="50.83424" lon="1.59428">
        <ele>32.6</ele>
        <time>2020-06-22T18:48:06Z</time>
      </trkpt>
      <trkpt lat="50.83428" lon="1.59429">
        <ele>32.8</ele>
        <time>2020-06-22T18:48:07Z</time>
      </trkpt>
      <trkpt lat="50.83431" lon="1.59431">
        <ele>33</ele>
        <time>2020-06-22T18:48:08Z</time>
      </trkpt>
      <trkpt lat="50.83436" lon="1.59432">
        <ele>33.2</ele>
        <time>2020-06-22T18:48:09Z</time>
      </trkpt>
      <trkpt lat="50.83439" lon="1.59433">
        <ele>33.4</ele>
        <time>2020-06-22T18:48:10Z</time>
      </trkpt>
      <trkpt lat="50.83443" lon="1.59435">
        <ele>33.6</ele>
        <time>2020-06-22T18:48:11Z</time>
      </trkpt>
      <trkpt lat="50.83446" lon="1.59437">
        <ele>33.7</ele>
        <time>2020-06-22T18:48:12Z</time>
      </trkpt>
      <trkpt lat="50.8345" lon="1.59439">
        <ele>33.9</ele>
        <time>2020-06-22T18:48:13Z</time>
      </trkpt>
      <trkpt lat="50.83453" lon="1.5944">
        <ele>34.1</ele>
        <time>2020-06-22T18:48:14Z</time>
      </trkpt>
      <trkpt lat="50.83457" lon="1.59442">
        <ele>34.3</ele>
        <time>2020-06-22T18:48:15Z</time>
      </trkpt>
      <trkpt lat="50.8346" lon="1.59442">
        <ele>34.4</ele>
        <time>2020-06-22T18:48:16Z</time>
      </trkpt>
      <trkpt lat="50.83463" lon="1.59444">
        <ele>34.6</ele>
        <time>2020-06-22T18:48:17Z</time>
      </trkpt>
      <trkpt lat="50.83467" lon="1.59445">
        <ele>34.8</ele>
        <time>2020-06-22T18:48:18Z</time>
      </trkpt>
      <trkpt lat="50.8347" lon="1.59447">
        <ele>34.9</ele>
        <time>2020-06-22T18:48:19Z</time>
      </trkpt>
      <trkpt lat="50.83474" lon="1.59447">
        <ele>35.1</ele>
        <time>2020-06-22T18:48:20Z</time>
      </trkpt>
      <trkpt lat="50.83478" lon="1.59448">
        <ele>35.3</ele>
        <time>2020-06-22T18:48:21Z</time>
      </trkpt>
      <trkpt lat="50.83482" lon="1.5945">
        <ele>35.5</ele>
        <time>2020-06-22T18:48:22Z</time>
      </trkpt>
      <trkpt lat="50.83486" lon="1.59452">
        <ele>35.7</ele>
        <time>2020-06-22T18:48:23Z</time>
      </trkpt>
      <trkpt lat="50.8349" lon="1.59454">
        <ele>36</ele>
        <time>2020-06-22T18:48:24Z</time>
      </trkpt>
      <trkpt lat="50.83494" lon="1.59455">
        <ele>36.1</ele>
        <time>2020-06-22T18:48:25Z</time>
      </trkpt>
      <trkpt lat="50.83498" lon="1.59456">
        <ele>36.3</ele>
        <time>2020-06-22T18:48:26Z</time>
      </trkpt>
      <trkpt lat="50.83502" lon="1.59458">
        <ele>36.5</ele>
        <time>2020-06-22T18:48:27Z</time>
      </trkpt>
      <trkpt lat="50.83506" lon="1.5946">
        <ele>36.7</ele>
        <time>2020-06-22T18:48:28Z</time>
      </trkpt>
      <trkpt lat="50.83511" lon="1.59462">
        <ele>37</ele>
        <time>2020-06-22T18:48:29Z</time>
      </trkpt>
      <trkpt lat="50.83515" lon="1.59464">
        <ele>37.2</ele>
        <time>2020-06-22T18:48:30Z</time>
      </trkpt>
      <trkpt lat="50.83519" lon="1.59467">
        <ele>37.3</ele>
        <time>2020-06-22T18:48:31Z</time>
      </trkpt>
      <trkpt lat="50.83523" lon="1.59468">
        <ele>37.5</ele>
        <time>2020-06-22T18:48:32Z</time>
      </trkpt>
      <trkpt lat="50.83528" lon="1.59469">
        <ele>37.7</ele>
        <time>2020-06-22T18:48:33Z</time>
      </trkpt>
      <trkpt lat="50.83533" lon="1.5947">
        <ele>37.9</ele>
        <time>2020-06-22T18:48:34Z</time>
      </trkpt>
      <trkpt lat="50.83537" lon="1.59472">
        <ele>38.1</ele>
        <time>2020-06-22T18:48:35Z</time>
      </trkpt>
      <trkpt lat="50.83542" lon="1.59473">
        <ele>38.3</ele>
        <time>2020-06-22T18:48:36Z</time>
      </trkpt>
      <trkpt lat="50.83547" lon="1.59475">
        <ele>38.4</ele>
        <time>2020-06-22T18:48:37Z</time>
      </trkpt>
      <trkpt lat="50.83551" lon="1.59477">
        <ele>38.6</ele>
        <time>2020-06-22T18:48:38Z</time>
      </trkpt>
      <trkpt lat="50.83556" lon="1.59479">
        <ele>38.8</ele>
        <time>2020-06-22T18:48:39Z</time>
      </trkpt>
      <trkpt lat="50.83561" lon="1.59481">
        <ele>39</ele>
        <time>2020-06-22T18:48:40Z</time>
      </trkpt>
      <trkpt lat="50.83565" lon="1.59483">
        <ele>39.1</ele>
        <time>2020-06-22T18:48:41Z</time>
      </trkpt>
      <trkpt lat="50.83569" lon="1.59485">
        <ele>39.3</ele>
        <time>2020-06-22T18:48:42Z</time>
      </trkpt>
      <trkpt lat="50.83573" lon="1.59488">
        <ele>39.5</ele>
        <time>2020-06-22T18:48:43Z</time>
      </trkpt>
      <trkpt lat="50.83578" lon="1.5949">
        <ele>39.7</ele>
        <time>2020-06-22T18:48:44Z</time>
      </trkpt>
      <trkpt lat="50.83582" lon="1.59491">
        <ele>39.8</ele>
        <time>2020-06-22T18:48:45Z</time>
      </trkpt>
      <trkpt lat="50.83586" lon="1.59493">
        <ele>40</ele>
        <time>2020-06-22T18:48:46Z</time>
      </trkpt>
      <trkpt lat="50.83591" lon="1.59494">
        <ele>40.2</ele>
        <time>2020-06-22T18:48:47Z</time>
      </trkpt>
      <trkpt lat="50.83595" lon="1.59495">
        <ele>40.4</ele>
        <time>2020-06-22T18:48:48Z</time>
      </trkpt>
      <trkpt lat="50.83598" lon="1.59497">
        <ele>40.5</ele>
        <time>2020-06-22T18:48:49Z</time>
      </trkpt>
      <trkpt lat="50.83603" lon="1.59499">
        <ele>40.7</ele>
        <time>2020-06-22T18:48:50Z</time>
      </trkpt>
      <trkpt lat="50.83608" lon="1.59501">
        <ele>40.9</ele>
        <time>2020-06-22T18:48:51Z</time>
      </trkpt>
      <trkpt lat="50.83611" lon="1.59504">
        <ele>41</ele>
        <time>2020-06-22T18:48:52Z</time>
      </trkpt>
      <trkpt lat="50.83615" lon="1.59506">
        <ele>41.2</ele>
        <time>2020-06-22T18:48:53Z</time>
      </trkpt>
      <trkpt lat="50.83619" lon="1.59508">
        <ele>41.3</ele>
        <time>2020-06-22T18:48:54Z</time>
      </trkpt>
      <trkpt lat="50.83623" lon="1.59508">
        <ele>41.4</ele>
        <time>2020-06-22T18:48:55Z</time>
      </trkpt>
      <trkpt lat="50.83628" lon="1.5951">
        <ele>41.6</ele>
        <time>2020-06-22T18:48:56Z</time>
      </trkpt>
      <trkpt lat="50.83633" lon="1.59513">
        <ele>41.7</ele>
        <time>2020-06-22T18:48:57Z</time>
      </trkpt>
      <trkpt lat="50.83637" lon="1.59514">
        <ele>41.9</ele>
        <time>2020-06-22T18:48:58Z</time>
      </trkpt>
      <trkpt lat="50.83642" lon="1.59516">
        <ele>42</ele>
        <time>2020-06-22T18:48:59Z</time>
      </trkpt>
      <trkpt lat="50.83646" lon="1.59518">
        <ele>42.1</ele>
        <time>2020-06-22T18:49:00Z</time>
      </trkpt>
      <trkpt lat="50.8365" lon="1.59519">
        <ele>42.2</ele>
        <time>2020-06-22T18:49:01Z</time>
      </trkpt>
      <trkpt lat="50.83654" lon="1.59521">
        <ele>42.2</ele>
        <time>2020-06-22T18:49:02Z</time>
      </trkpt>
      <trkpt lat="50.83658" lon="1.59523">
        <ele>42.3</ele>
        <time>2020-06-22T18:49:03Z</time>
      </trkpt>
      <trkpt lat="50.83662" lon="1.59525">
        <ele>42.4</ele>
        <time>2020-06-22T18:49:04Z</time>
      </trkpt>
      <trkpt lat="50.83665" lon="1.59527">
        <ele>42.4</ele>
        <time>2020-06-22T18:49:05Z</time>
      </trkpt>
      <trkpt lat="50.83669" lon="1.59528">
        <ele>42.5</ele>
        <time>2020-06-22T18:49:06Z</time>
      </trkpt>
      <trkpt lat="50.83673" lon="1.59529">
        <ele>42.6</ele>
        <time>2020-06-22T18:49:07Z</time>
      </trkpt>
      <trkpt lat="50.83678" lon="1.59531">
        <ele>42.7</ele>
        <time>2020-06-22T18:49:08Z</time>
      </trkpt>
      <trkpt lat="50.83682" lon="1.59533">
        <ele>42.8</ele>
        <time>2020-06-22T18:49:09Z</time>
      </trkpt>
      <trkpt lat="50.83687" lon="1.59536">
        <ele>42.9</ele>
        <time>2020-06-22T18:49:10Z</time>
      </trkpt>
      <trkpt lat="50.83693" lon="1.59537">
        <ele>43</ele>
        <time>2020-06-22T18:49:11Z</time>
      </trkpt>
      <trkpt lat="50.83699" lon="1.5954">
        <ele>43.1</ele>
        <time>2020-06-22T18:49:12Z</time>
      </trkpt>
      <trkpt lat="50.83704" lon="1.59542">
        <ele>43.1</ele>
        <time>2020-06-22T18:49:13Z</time>
      </trkpt>
      <trkpt lat="50.83708" lon="1.59545">
        <ele>43.2</ele>
        <time>2020-06-22T18:49:14Z</time>
      </trkpt>
      <trkpt lat="50.83713" lon="1.59547">
        <ele>43.2</ele>
        <time>2020-06-22T18:49:15Z</time>
      </trkpt>
      <trkpt lat="50.83718" lon="1.59549">
        <ele>43.3</ele>
        <time>2020-06-22T18:49:16Z</time>
      </trkpt>
      <trkpt lat="50.83723" lon="1.59552">
        <ele>43.4</ele>
        <time>2020-06-22T18:49:17Z</time>
      </trkpt>
      <trkpt lat="50.83728" lon="1.59554">
        <ele>43.5</ele>
        <time>2020-06-22T18:49:18Z</time>
      </trkpt>
      <trkpt lat="50.83733" lon="1.59556">
        <ele>43.6</ele>
        <time>2020-06-22T18:49:19Z</time>
      </trkpt>
      <trkpt lat="50.83739" lon="1.59559">
        <ele>43.7</ele>
        <time>2020-06-22T18:49:20Z</time>
      </trkpt>
      <trkpt lat="50.83744" lon="1.59561">
        <ele>43.8</ele>
        <time>2020-06-22T18:49:21Z</time>
      </trkpt>
      <trkpt lat="50.83749" lon="1.59563">
        <ele>43.9</ele>
        <time>2020-06-22T18:49:22Z</time>
      </trkpt>
      <trkpt lat="50.83754" lon="1.59564">
        <ele>44</ele>
        <time>2020-06-22T18:49:23Z</time>
      </trkpt>
      <trkpt lat="50.83759" lon="1.59566">
        <ele>44.1</ele>
        <time>2020-06-22T18:49:24Z</time>
      </trkpt>
      <trkpt lat="50.83765" lon="1.59568">
        <ele>44.2</ele>
        <time>2020-06-22T18:49:25Z</time>
      </trkpt>
      <trkpt lat="50.83769" lon="1.5957">
        <ele>44.3</ele>
        <time>2020-06-22T18:49:26Z</time>
      </trkpt>
      <trkpt lat="50.83774" lon="1.59573">
        <ele>44.4</ele>
        <time>2020-06-22T18:49:27Z</time>
      </trkpt>
      <trkpt lat="50.83779" lon="1.59576">
        <ele>44.4</ele>
        <time>2020-06-22T18:49:28Z</time>
      </trkpt>
      <trkpt lat="50.83783" lon="1.5958">
        <ele>44.5</ele>
        <time>2020-06-22T18:49:29Z</time>
      </trkpt>
      <trkpt lat="50.83787" lon="1.59585">
        <ele>44.6</ele>
        <time>2020-06-22T18:49:30Z</time>
      </trkpt>
      <trkpt lat="50.83791" lon="1.5959">
        <ele>44.8</ele>
        <time>2020-06-22T18:49:31Z</time>
      </trkpt>
      <trkpt lat="50.83794" lon="1.59594">
        <ele>44.9</ele>
        <time>2020-06-22T18:49:32Z</time>
      </trkpt>
      <trkpt lat="50.83796" lon="1.596">
        <ele>45.1</ele>
        <time>2020-06-22T18:49:33Z</time>
      </trkpt>
      <trkpt lat="50.83799" lon="1.59605">
        <ele>45.2</ele>
        <time>2020-06-22T18:49:34Z</time>
      </trkpt>
      <trkpt lat="50.83803" lon="1.59611">
        <ele>45.5</ele>
        <time>2020-06-22T18:49:35Z</time>
      </trkpt>
      <trkpt lat="50.83807" lon="1.59617">
        <ele>45.7</ele>
        <time>2020-06-22T18:49:36Z</time>
      </trkpt>
      <trkpt lat="50.83811" lon="1.59623">
        <ele>45.9</ele>
        <time>2020-06-22T18:49:37Z</time>
      </trkpt>
      <trkpt lat="50.83814" lon="1.59629">
        <ele>46.1</ele>
        <time>2020-06-22T18:49:38Z</time>
      </trkpt>
      <trkpt lat="50.83816" lon="1.59635">
        <ele>46.3</ele>
        <time>2020-06-22T18:49:39Z</time>
      </trkpt>
      <trkpt lat="50.83819" lon="1.59641">
        <ele>46.5</ele>
        <time>2020-06-22T18:49:40Z</time>
      </trkpt>
      <trkpt lat="50.83822" lon="1.59649">
        <ele>46.7</ele>
        <time>2020-06-22T18:49:41Z</time>
      </trkpt>
      <trkpt lat="50.83824" lon="1.59655">
        <ele>46.9</ele>
        <time>2020-06-22T18:49:42Z</time>
      </trkpt>
      <trkpt lat="50.83827" lon="1.59661">
        <ele>47.1</ele>
        <time>2020-06-22T18:49:43Z</time>
      </trkpt>
      <trkpt lat="50.8383" lon="1.59667">
        <ele>47.3</ele>
        <time>2020-06-22T18:49:44Z</time>
      </trkpt>
      <trkpt lat="50.83832" lon="1.59674">
        <ele>47.5</ele>
        <time>2020-06-22T18:49:45Z</time>
      </trkpt>
      <trkpt lat="50.83835" lon="1.5968">
        <ele>47.7</ele>
        <time>2020-06-22T18:49:46Z</time>
      </trkpt>
      <trkpt lat="50.83837" lon="1.59685">
        <ele>47.9</ele>
        <time>2020-06-22T18:49:47Z</time>
      </trkpt>
      <trkpt lat="50.8384" lon="1.59692">
        <ele>48.2</ele>
        <time>2020-06-22T18:49:48Z</time>
      </trkpt>
      <trkpt lat="50.83842" lon="1.597">
        <ele>48.4</ele>
        <time>2020-06-22T18:49:49Z</time>
      </trkpt>
      <trkpt lat="50.83846" lon="1.59707">
        <ele>48.7</ele>
        <time>2020-06-22T18:49:50Z</time>
      </trkpt>
      <trkpt lat="50.83849" lon="1.59713">
        <ele>49</ele>
        <time>2020-06-22T18:49:51Z</time>
      </trkpt>
      <trkpt lat="50.83853" lon="1.59721">
        <ele>49.3</ele>
        <time>2020-06-22T18:49:52Z</time>
      </trkpt>
      <trkpt lat="50.83856" lon="1.59729">
        <ele>49.6</ele>
        <time>2020-06-22T18:49:53Z</time>
      </trkpt>
      <trkpt lat="50.83859" lon="1.59736">
        <ele>49.8</ele>
        <time>2020-06-22T18:49:54Z</time>
      </trkpt>
      <trkpt lat="50.83862" lon="1.59742">
        <ele>50.1</ele>
        <time>2020-06-22T18:49:55Z</time>
      </trkpt>
      <trkpt lat="50.83864" lon="1.59749">
        <ele>50.3</ele>
        <time>2020-06-22T18:49:56Z</time>
      </trkpt>
      <trkpt lat="50.83867" lon="1.59755">
        <ele>50.5</ele>
        <time>2020-06-22T18:49:57Z</time>
      </trkpt>
      <trkpt lat="50.83869" lon="1.59761">
        <ele>50.8</ele>
        <time>2020-06-22T18:49:58Z</time>
      </trkpt>
      <trkpt lat="50.83872" lon="1.59767">
        <ele>51</ele>
        <time>2020-06-22T18:49:59Z</time>
      </trkpt>
      <trkpt lat="50.83875" lon="1.59774">
        <ele>51.3</ele>
        <time>2020-06-22T18:50:00Z</time>
      </trkpt>
      <trkpt lat="50.83877" lon="1.59781">
        <ele>51.5</ele>
        <time>2020-06-22T18:50:01Z</time>
      </trkpt>
      <trkpt lat="50.83879" lon="1.59788">
        <ele>51.7</ele>
        <time>2020-06-22T18:50:02Z</time>
      </trkpt>
      <trkpt lat="50.83882" lon="1.59794">
        <ele>52</ele>
        <time>2020-06-22T18:50:03Z</time>
      </trkpt>
      <trkpt lat="50.83885" lon="1.598">
        <ele>52.2</ele>
        <time>2020-06-22T18:50:04Z</time>
      </trkpt>
      <trkpt lat="50.83887" lon="1.59806">
        <ele>52.4</ele>
        <time>2020-06-22T18:50:05Z</time>
      </trkpt>
      <trkpt lat="50.8389" lon="1.59812">
        <ele>52.5</ele>
        <time>2020-06-22T18:50:06Z</time>
      </trkpt>
      <trkpt lat="50.83892" lon="1.59817">
        <ele>52.7</ele>
        <time>2020-06-22T18:50:07Z</time>
      </trkpt>
      <trkpt lat="50.83895" lon="1.59822">
        <ele>52.7</ele>
        <time>2020-06-22T18:50:08Z</time>
      </trkpt>
      <trkpt lat="50.83897" lon="1.59826">
        <ele>52.6</ele>
        <time>2020-06-22T18:50:09Z</time>
      </trkpt>
      <trkpt lat="50.83899" lon="1.5983">
        <ele>52.6</ele>
        <time>2020-06-22T18:50:10Z</time>
      </trkpt>
      <trkpt lat="50.839" lon="1.59832">
        <ele>52.6</ele>
        <time>2020-06-22T18:50:11Z</time>
      </trkpt>
      <trkpt lat="50.83901" lon="1.59834">
        <ele>52.6</ele>
        <time>2020-06-22T18:50:12Z</time>
      </trkpt>
      <trkpt lat="50.83901" lon="1.59837">
        <ele>52.6</ele>
        <time>2020-06-22T18:50:13Z</time>
      </trkpt>
      <trkpt lat="50.83902" lon="1.59839">
        <ele>52.6</ele>
        <time>2020-06-22T18:50:14Z</time>
      </trkpt>
      <trkpt lat="50.83903" lon="1.5984">
        <ele>52.6</ele>
        <time>2020-06-22T18:50:15Z</time>
      </trkpt>
      <trkpt lat="50.83904" lon="1.59842">
        <ele>52.6</ele>
        <time>2020-06-22T18:50:16Z</time>
      </trkpt>
      <trkpt lat="50.83905" lon="1.59843">
        <ele>52.6</ele>
        <time>2020-06-22T18:50:17Z</time>
      </trkpt>
      <trkpt lat="50.83907" lon="1.59841">
        <ele>52.6</ele>
        <time>2020-06-22T18:50:18Z</time>
      </trkpt>
      <trkpt lat="50.83907" lon="1.59838">
        <ele>52.6</ele>
        <time>2020-06-22T18:50:19Z</time>
      </trkpt>
      <trkpt lat="50.83907" lon="1.59836">
        <ele>52.6</ele>
        <time>2020-06-22T18:50:20Z</time>
      </trkpt>
      <trkpt lat="50.83906" lon="1.59832">
        <ele>52.6</ele>
        <time>2020-06-22T18:50:21Z</time>
      </trkpt>
      <trkpt lat="50.83905" lon="1.5983">
        <ele>52.6</ele>
        <time>2020-06-22T18:50:22Z</time>
      </trkpt>
      <trkpt lat="50.83906" lon="1.59825">
        <ele>52.6</ele>
        <time>2020-06-22T18:50:23Z</time>
      </trkpt>
      <trkpt lat="50.83906" lon="1.59823">
        <ele>52.6</ele>
        <time>2020-06-22T18:50:24Z</time>
      </trkpt>
      <trkpt lat="50.83906" lon="1.59819">
        <ele>52.6</ele>
        <time>2020-06-22T18:50:25Z</time>
      </trkpt>
      <trkpt lat="50.83906" lon="1.59818">
        <ele>52.6</ele>
        <time>2020-06-22T18:50:26Z</time>
      </trkpt>
      <trkpt lat="50.83906" lon="1.59816">
        <ele>52.6</ele>
        <time>2020-06-22T18:50:27Z</time>
      </trkpt>
      <trkpt lat="50.83906" lon="1.59816">
        <ele>52.6</ele>
        <time>2020-06-22T18:50:28Z</time>
      </trkpt>
      <trkpt lat="50.83906" lon="1.59816">
        <ele>52.6</ele>
        <time>2020-06-22T18:50:29Z</time>
      </trkpt>
      <trkpt lat="50.83906" lon="1.59816">
        <ele>52.6</ele>
        <time>2020-06-22T18:50:30Z</time>
      </trkpt>
      <trkpt lat="50.83905" lon="1.59816">
        <ele>52.6</ele>
        <time>2020-06-22T18:50:31Z</time>
      </trkpt>
      <trkpt lat="50.83905" lon="1.59816">
        <ele>52.6</ele>
        <time>2020-06-22T18:50:32Z</time>
      </trkpt>
      <trkpt lat="50.83906" lon="1.59816">
        <ele>52.6</ele>
        <time>2020-06-22T18:50:33Z</time>
      </trkpt>
      <trkpt lat="50.83906" lon="1.59815">
        <ele>52.6</ele>
        <time>2020-06-22T18:50:34Z</time>
      </trkpt>
      <trkpt lat="50.83906" lon="1.59815">
        <ele>52.6</ele>
        <time>2020-06-22T18:50:35Z</time>
      </trkpt>
      <trkpt lat="50.83906" lon="1.59815">
        <ele>52.6</ele>
        <time>2020-06-22T18:50:36Z</time>
      </trkpt>
      <trkpt lat="50.83906" lon="1.59815">
        <ele>52.6</ele>
        <time>2020-06-22T18:50:37Z</time>
      </trkpt>
      <trkpt lat="50.8391" lon="1.59816">
        <ele>52.6</ele>
        <time>2020-06-22T18:52:20Z</time>
      </trkpt>
      <trkpt lat="50.83912" lon="1.59818">
        <ele>52.6</ele>
        <time>2020-06-22T18:52:21Z</time>
      </trkpt>
      <trkpt lat="50.83914" lon="1.5982">
        <ele>52.6</ele>
        <time>2020-06-22T18:52:22Z</time>
      </trkpt>
      <trkpt lat="50.83915" lon="1.5982">
        <ele>52.6</ele>
        <time>2020-06-22T18:52:23Z</time>
      </trkpt>
      <trkpt lat="50.83918" lon="1.59819">
        <ele>52.5</ele>
        <time>2020-06-22T18:52:24Z</time>
      </trkpt>
      <trkpt lat="50.83919" lon="1.59818">
        <ele>52.5</ele>
        <time>2020-06-22T18:52:25Z</time>
      </trkpt>
      <trkpt lat="50.83922" lon="1.59817">
        <ele>52.5</ele>
        <time>2020-06-22T18:52:26Z</time>
      </trkpt>
      <trkpt lat="50.83923" lon="1.59816">
        <ele>52.5</ele>
        <time>2020-06-22T18:52:27Z</time>
      </trkpt>
      <trkpt lat="50.83926" lon="1.59814">
        <ele>52.6</ele>
        <time>2020-06-22T18:52:28Z</time>
      </trkpt>
      <trkpt lat="50.83927" lon="1.59814">
        <ele>52.6</ele>
        <time>2020-06-22T18:52:29Z</time>
      </trkpt>
      <trkpt lat="50.8393" lon="1.59812">
        <ele>52.6</ele>
        <time>2020-06-22T18:52:30Z</time>
      </trkpt>
      <trkpt lat="50.83931" lon="1.59811">
        <ele>52.6</ele>
        <time>2020-06-22T18:52:31Z</time>
      </trkpt>
      <trkpt lat="50.83933" lon="1.59811">
        <ele>52.6</ele>
        <time>2020-06-22T18:52:32Z</time>
      </trkpt>
      <trkpt lat="50.83934" lon="1.59811">
        <ele>52.6</ele>
        <time>2020-06-22T18:52:33Z</time>
      </trkpt>
      <trkpt lat="50.83936" lon="1.59809">
        <ele>52.7</ele>
        <time>2020-06-22T18:52:34Z</time>
      </trkpt>
      <trkpt lat="50.83937" lon="1.59808">
        <ele>52.7</ele>
        <time>2020-06-22T18:52:35Z</time>
      </trkpt>
      <trkpt lat="50.83938" lon="1.59808">
        <ele>52.7</ele>
        <time>2020-06-22T18:52:36Z</time>
      </trkpt>
      <trkpt lat="50.83941" lon="1.59804">
        <ele>52.7</ele>
        <time>2020-06-22T18:52:37Z</time>
      </trkpt>
      <trkpt lat="50.83944" lon="1.598">
        <ele>52.8</ele>
        <time>2020-06-22T18:52:38Z</time>
      </trkpt>
      <trkpt lat="50.83946" lon="1.59799">
        <ele>52.8</ele>
        <time>2020-06-22T18:52:39Z</time>
      </trkpt>
      <trkpt lat="50.83949" lon="1.59794">
        <ele>52.8</ele>
        <time>2020-06-22T18:52:40Z</time>
      </trkpt>
      <trkpt lat="50.83949" lon="1.59793">
        <ele>52.9</ele>
        <time>2020-06-22T18:52:41Z</time>
      </trkpt>
      <trkpt lat="50.83951" lon="1.5979">
        <ele>52.9</ele>
        <time>2020-06-22T18:52:42Z</time>
      </trkpt>
      <trkpt lat="50.83951" lon="1.59788">
        <ele>52.9</ele>
        <time>2020-06-22T18:52:43Z</time>
      </trkpt>
      <trkpt lat="50.83954" lon="1.59785">
        <ele>52.9</ele>
        <time>2020-06-22T18:52:44Z</time>
      </trkpt>
      <trkpt lat="50.83955" lon="1.59784">
        <ele>52.9</ele>
        <time>2020-06-22T18:52:45Z</time>
      </trkpt>
      <trkpt lat="50.83958" lon="1.5978">
        <ele>53</ele>
        <time>2020-06-22T18:52:46Z</time>
      </trkpt>
      <trkpt lat="50.83959" lon="1.59779">
        <ele>53</ele>
        <time>2020-06-22T18:52:47Z</time>
      </trkpt>
      <trkpt lat="50.83961" lon="1.59775">
        <ele>53</ele>
        <time>2020-06-22T18:52:48Z</time>
      </trkpt>
      <trkpt lat="50.83964" lon="1.59773">
        <ele>53.1</ele>
        <time>2020-06-22T18:52:49Z</time>
      </trkpt>
      <trkpt lat="50.83968" lon="1.59772">
        <ele>53.1</ele>
        <time>2020-06-22T18:52:50Z</time>
      </trkpt>
      <trkpt lat="50.83971" lon="1.59771">
        <ele>53.2</ele>
        <time>2020-06-22T18:52:51Z</time>
      </trkpt>
      <trkpt lat="50.83974" lon="1.59771">
        <ele>53.2</ele>
        <time>2020-06-22T18:52:52Z</time>
      </trkpt>
      <trkpt lat="50.83978" lon="1.5977">
        <ele>53.3</ele>
        <time>2020-06-22T18:52:53Z</time>
      </trkpt>
      <trkpt lat="50.83981" lon="1.59771">
        <ele>53.4</ele>
        <time>2020-06-22T18:52:54Z</time>
      </trkpt>
      <trkpt lat="50.83984" lon="1.59772">
        <ele>53.5</ele>
        <time>2020-06-22T18:52:55Z</time>
      </trkpt>
      <trkpt lat="50.83988" lon="1.59774">
        <ele>53.7</ele>
        <time>2020-06-22T18:52:56Z</time>
      </trkpt>
      <trkpt lat="50.83992" lon="1.59777">
        <ele>53.8</ele>
        <time>2020-06-22T18:52:57Z</time>
      </trkpt>
      <trkpt lat="50.83996" lon="1.59781">
        <ele>54</ele>
        <time>2020-06-22T18:52:58Z</time>
      </trkpt>
      <trkpt lat="50.83999" lon="1.59784">
        <ele>54.2</ele>
        <time>2020-06-22T18:52:59Z</time>
      </trkpt>
      <trkpt lat="50.84003" lon="1.59787">
        <ele>54.3</ele>
        <time>2020-06-22T18:53:00Z</time>
      </trkpt>
      <trkpt lat="50.84006" lon="1.59791">
        <ele>54.4</ele>
        <time>2020-06-22T18:53:01Z</time>
      </trkpt>
      <trkpt lat="50.84009" lon="1.59794">
        <ele>54.6</ele>
        <time>2020-06-22T18:53:02Z</time>
      </trkpt>
      <trkpt lat="50.84012" lon="1.59796">
        <ele>54.7</ele>
        <time>2020-06-22T18:53:03Z</time>
      </trkpt>
      <trkpt lat="50.84016" lon="1.59798">
        <ele>54.8</ele>
        <time>2020-06-22T18:53:04Z</time>
      </trkpt>
      <trkpt lat="50.84019" lon="1.59802">
        <ele>55</ele>
        <time>2020-06-22T18:53:05Z</time>
      </trkpt>
      <trkpt lat="50.84022" lon="1.59805">
        <ele>55.1</ele>
        <time>2020-06-22T18:53:06Z</time>
      </trkpt>
      <trkpt lat="50.84024" lon="1.59807">
        <ele>55.3</ele>
        <time>2020-06-22T18:53:07Z</time>
      </trkpt>
      <trkpt lat="50.84027" lon="1.59807">
        <ele>55.4</ele>
        <time>2020-06-22T18:53:08Z</time>
      </trkpt>
      <trkpt lat="50.84031" lon="1.59808">
        <ele>55.6</ele>
        <time>2020-06-22T18:53:09Z</time>
      </trkpt>
      <trkpt lat="50.84036" lon="1.59808">
        <ele>55.8</ele>
        <time>2020-06-22T18:53:10Z</time>
      </trkpt>
      <trkpt lat="50.84041" lon="1.59809">
        <ele>56.1</ele>
        <time>2020-06-22T18:53:11Z</time>
      </trkpt>
      <trkpt lat="50.84046" lon="1.59813">
        <ele>56.3</ele>
        <time>2020-06-22T18:53:12Z</time>
      </trkpt>
      <trkpt lat="50.8405" lon="1.59815">
        <ele>56.6</ele>
        <time>2020-06-22T18:53:13Z</time>
      </trkpt>
      <trkpt lat="50.84054" lon="1.59815">
        <ele>56.7</ele>
        <time>2020-06-22T18:53:14Z</time>
      </trkpt>
      <trkpt lat="50.84059" lon="1.59816">
        <ele>56.9</ele>
        <time>2020-06-22T18:53:15Z</time>
      </trkpt>
      <trkpt lat="50.84063" lon="1.59816">
        <ele>57</ele>
        <time>2020-06-22T18:53:16Z</time>
      </trkpt>
      <trkpt lat="50.84067" lon="1.59817">
        <ele>57.1</ele>
        <time>2020-06-22T18:53:17Z</time>
      </trkpt>
      <trkpt lat="50.84071" lon="1.59817">
        <ele>57.2</ele>
        <time>2020-06-22T18:53:18Z</time>
      </trkpt>
      <trkpt lat="50.84075" lon="1.59817">
        <ele>57.3</ele>
        <time>2020-06-22T18:53:19Z</time>
      </trkpt>
      <trkpt lat="50.84078" lon="1.59819">
        <ele>57.4</ele>
        <time>2020-06-22T18:53:20Z</time>
      </trkpt>
      <trkpt lat="50.84083" lon="1.5982">
        <ele>57.4</ele>
        <time>2020-06-22T18:53:21Z</time>
      </trkpt>
      <trkpt lat="50.84086" lon="1.5982">
        <ele>57.4</ele>
        <time>2020-06-22T18:53:22Z</time>
      </trkpt>
      <trkpt lat="50.84089" lon="1.5982">
        <ele>57.4</ele>
        <time>2020-06-22T18:53:23Z</time>
      </trkpt>
      <trkpt lat="50.84093" lon="1.59818">
        <ele>57.4</ele>
        <time>2020-06-22T18:53:24Z</time>
      </trkpt>
      <trkpt lat="50.84096" lon="1.59817">
        <ele>57.4</ele>
        <time>2020-06-22T18:53:25Z</time>
      </trkpt>
      <trkpt lat="50.841" lon="1.59816">
        <ele>57.4</ele>
        <time>2020-06-22T18:53:26Z</time>
      </trkpt>
      <trkpt lat="50.84103" lon="1.59815">
        <ele>57.4</ele>
        <time>2020-06-22T18:53:27Z</time>
      </trkpt>
      <trkpt lat="50.84107" lon="1.59814">
        <ele>57.3</ele>
        <time>2020-06-22T18:53:28Z</time>
      </trkpt>
      <trkpt lat="50.84112" lon="1.59813">
        <ele>57.3</ele>
        <time>2020-06-22T18:53:29Z</time>
      </trkpt>
      <trkpt lat="50.84116" lon="1.59813">
        <ele>57.3</ele>
        <time>2020-06-22T18:53:30Z</time>
      </trkpt>
      <trkpt lat="50.84121" lon="1.59813">
        <ele>57.2</ele>
        <time>2020-06-22T18:53:31Z</time>
      </trkpt>
      <trkpt lat="50.84126" lon="1.59812">
        <ele>57.1</ele>
        <time>2020-06-22T18:53:32Z</time>
      </trkpt>
      <trkpt lat="50.84131" lon="1.59811">
        <ele>57</ele>
        <time>2020-06-22T18:53:33Z</time>
      </trkpt>
      <trkpt lat="50.84136" lon="1.5981">
        <ele>56.9</ele>
        <time>2020-06-22T18:53:34Z</time>
      </trkpt>
      <trkpt lat="50.84142" lon="1.59809">
        <ele>56.9</ele>
        <time>2020-06-22T18:53:35Z</time>
      </trkpt>
      <trkpt lat="50.84147" lon="1.59807">
        <ele>56.8</ele>
        <time>2020-06-22T18:53:36Z</time>
      </trkpt>
      <trkpt lat="50.84152" lon="1.59806">
        <ele>56.7</ele>
        <time>2020-06-22T18:53:37Z</time>
      </trkpt>
      <trkpt lat="50.84157" lon="1.59807">
        <ele>56.7</ele>
        <time>2020-06-22T18:53:38Z</time>
      </trkpt>
      <trkpt lat="50.84163" lon="1.59806">
        <ele>56.6</ele>
        <time>2020-06-22T18:53:39Z</time>
      </trkpt>
      <trkpt lat="50.84168" lon="1.59804">
        <ele>56.6</ele>
        <time>2020-06-22T18:53:40Z</time>
      </trkpt>
      <trkpt lat="50.84172" lon="1.59801">
        <ele>56.5</ele>
        <time>2020-06-22T18:53:41Z</time>
      </trkpt>
      <trkpt lat="50.84176" lon="1.59798">
        <ele>56.5</ele>
        <time>2020-06-22T18:53:42Z</time>
      </trkpt>
      <trkpt lat="50.84181" lon="1.59796">
        <ele>56.4</ele>
        <time>2020-06-22T18:53:43Z</time>
      </trkpt>
      <trkpt lat="50.84186" lon="1.59796">
        <ele>56.4</ele>
        <time>2020-06-22T18:53:44Z</time>
      </trkpt>
      <trkpt lat="50.84191" lon="1.59794">
        <ele>56.3</ele>
        <time>2020-06-22T18:53:45Z</time>
      </trkpt>
      <trkpt lat="50.84196" lon="1.59793">
        <ele>56.3</ele>
        <time>2020-06-22T18:53:46Z</time>
      </trkpt>
      <trkpt lat="50.84201" lon="1.59792">
        <ele>56.3</ele>
        <time>2020-06-22T18:53:47Z</time>
      </trkpt>
      <trkpt lat="50.84205" lon="1.5979">
        <ele>56.2</ele>
        <time>2020-06-22T18:53:48Z</time>
      </trkpt>
      <trkpt lat="50.84209" lon="1.59788">
        <ele>56.2</ele>
        <time>2020-06-22T18:53:49Z</time>
      </trkpt>
      <trkpt lat="50.84214" lon="1.59786">
        <ele>56.1</ele>
        <time>2020-06-22T18:53:50Z</time>
      </trkpt>
      <trkpt lat="50.84218" lon="1.59787">
        <ele>56.1</ele>
        <time>2020-06-22T18:53:51Z</time>
      </trkpt>
      <trkpt lat="50.84222" lon="1.59785">
        <ele>56</ele>
        <time>2020-06-22T18:53:52Z</time>
      </trkpt>
      <trkpt lat="50.84227" lon="1.59783">
        <ele>55.9</ele>
        <time>2020-06-22T18:53:53Z</time>
      </trkpt>
      <trkpt lat="50.84231" lon="1.59782">
        <ele>55.8</ele>
        <time>2020-06-22T18:53:54Z</time>
      </trkpt>
      <trkpt lat="50.84235" lon="1.5978">
        <ele>55.8</ele>
        <time>2020-06-22T18:53:55Z</time>
      </trkpt>
      <trkpt lat="50.84239" lon="1.59779">
        <ele>55.7</ele>
        <time>2020-06-22T18:53:56Z</time>
      </trkpt>
      <trkpt lat="50.84244" lon="1.59776">
        <ele>55.6</ele>
        <time>2020-06-22T18:53:57Z</time>
      </trkpt>
      <trkpt lat="50.84248" lon="1.59775">
        <ele>55.5</ele>
        <time>2020-06-22T18:53:58Z</time>
      </trkpt>
      <trkpt lat="50.84252" lon="1.59772">
        <ele>55.4</ele>
        <time>2020-06-22T18:53:59Z</time>
      </trkpt>
      <trkpt lat="50.84257" lon="1.59769">
        <ele>55.4</ele>
        <time>2020-06-22T18:54:00Z</time>
      </trkpt>
      <trkpt lat="50.84262" lon="1.59767">
        <ele>55.3</ele>
        <time>2020-06-22T18:54:01Z</time>
      </trkpt>
      <trkpt lat="50.84267" lon="1.59764">
        <ele>55.2</ele>
        <time>2020-06-22T18:54:02Z</time>
      </trkpt>
      <trkpt lat="50.84272" lon="1.59764">
        <ele>55.1</ele>
        <time>2020-06-22T18:54:03Z</time>
      </trkpt>
      <trkpt lat="50.84276" lon="1.59763">
        <ele>55</ele>
        <time>2020-06-22T18:54:04Z</time>
      </trkpt>
      <trkpt lat="50.8428" lon="1.5976">
        <ele>55</ele>
        <time>2020-06-22T18:54:05Z</time>
      </trkpt>
      <trkpt lat="50.84285" lon="1.5976">
        <ele>54.9</ele>
        <time>2020-06-22T18:54:06Z</time>
      </trkpt>
      <trkpt lat="50.8429" lon="1.59759">
        <ele>54.8</ele>
        <time>2020-06-22T18:54:07Z</time>
      </trkpt>
      <trkpt lat="50.84293" lon="1.59758">
        <ele>54.6</ele>
        <time>2020-06-22T18:54:08Z</time>
      </trkpt>
      <trkpt lat="50.84298" lon="1.59756">
        <ele>54.5</ele>
        <time>2020-06-22T18:54:09Z</time>
      </trkpt>
      <trkpt lat="50.84302" lon="1.59754">
        <ele>54.3</ele>
        <time>2020-06-22T18:54:10Z</time>
      </trkpt>
      <trkpt lat="50.84307" lon="1.59752">
        <ele>54.1</ele>
        <time>2020-06-22T18:54:11Z</time>
      </trkpt>
      <trkpt lat="50.84312" lon="1.59749">
        <ele>53.9</ele>
        <time>2020-06-22T18:54:12Z</time>
      </trkpt>
      <trkpt lat="50.84318" lon="1.59746">
        <ele>53.6</ele>
        <time>2020-06-22T18:54:13Z</time>
      </trkpt>
      <trkpt lat="50.84324" lon="1.59745">
        <ele>53.3</ele>
        <time>2020-06-22T18:54:14Z</time>
      </trkpt>
      <trkpt lat="50.8433" lon="1.59742">
        <ele>53.1</ele>
        <time>2020-06-22T18:54:15Z</time>
      </trkpt>
      <trkpt lat="50.84336" lon="1.5974">
        <ele>52.9</ele>
        <time>2020-06-22T18:54:16Z</time>
      </trkpt>
      <trkpt lat="50.84342" lon="1.59738">
        <ele>52.7</ele>
        <time>2020-06-22T18:54:17Z</time>
      </trkpt>
      <trkpt lat="50.84348" lon="1.59738">
        <ele>52.4</ele>
        <time>2020-06-22T18:54:18Z</time>
      </trkpt>
      <trkpt lat="50.84354" lon="1.59736">
        <ele>52.2</ele>
        <time>2020-06-22T18:54:19Z</time>
      </trkpt>
      <trkpt lat="50.8436" lon="1.59734">
        <ele>51.9</ele>
        <time>2020-06-22T18:54:20Z</time>
      </trkpt>
      <trkpt lat="50.84367" lon="1.59732">
        <ele>51.6</ele>
        <time>2020-06-22T18:54:21Z</time>
      </trkpt>
      <trkpt lat="50.84373" lon="1.5973">
        <ele>51.4</ele>
        <time>2020-06-22T18:54:22Z</time>
      </trkpt>
      <trkpt lat="50.8438" lon="1.59728">
        <ele>51.1</ele>
        <time>2020-06-22T18:54:23Z</time>
      </trkpt>
      <trkpt lat="50.84386" lon="1.59726">
        <ele>50.9</ele>
        <time>2020-06-22T18:54:24Z</time>
      </trkpt>
      <trkpt lat="50.84392" lon="1.59724">
        <ele>50.7</ele>
        <time>2020-06-22T18:54:25Z</time>
      </trkpt>
      <trkpt lat="50.84398" lon="1.59722">
        <ele>50.5</ele>
        <time>2020-06-22T18:54:26Z</time>
      </trkpt>
      <trkpt lat="50.84404" lon="1.59721">
        <ele>50.2</ele>
        <time>2020-06-22T18:54:27Z</time>
      </trkpt>
      <trkpt lat="50.8441" lon="1.5972">
        <ele>49.9</ele>
        <time>2020-06-22T18:54:28Z</time>
      </trkpt>
      <trkpt lat="50.84416" lon="1.59719">
        <ele>50</ele>
        <time>2020-06-22T18:54:29Z</time>
      </trkpt>
      <trkpt lat="50.84422" lon="1.59719">
        <ele>50.1</ele>
        <time>2020-06-22T18:54:30Z</time>
      </trkpt>
      <trkpt lat="50.84429" lon="1.59719">
        <ele>50.1</ele>
        <time>2020-06-22T18:54:31Z</time>
      </trkpt>
      <trkpt lat="50.84435" lon="1.5972">
        <ele>50</ele>
        <time>2020-06-22T18:54:32Z</time>
      </trkpt>
      <trkpt lat="50.84441" lon="1.59721">
        <ele>50</ele>
        <time>2020-06-22T18:54:33Z</time>
      </trkpt>
      <trkpt lat="50.84446" lon="1.59722">
        <ele>50</ele>
        <time>2020-06-22T18:54:34Z</time>
      </trkpt>
      <trkpt lat="50.84452" lon="1.59723">
        <ele>49.9</ele>
        <time>2020-06-22T18:54:35Z</time>
      </trkpt>
      <trkpt lat="50.84457" lon="1.59726">
        <ele>49.9</ele>
        <time>2020-06-22T18:54:36Z</time>
      </trkpt>
      <trkpt lat="50.84463" lon="1.59727">
        <ele>50</ele>
        <time>2020-06-22T18:54:37Z</time>
      </trkpt>
      <trkpt lat="50.84467" lon="1.59729">
        <ele>50</ele>
        <time>2020-06-22T18:54:38Z</time>
      </trkpt>
      <trkpt lat="50.84472" lon="1.59732">
        <ele>50</ele>
        <time>2020-06-22T18:54:39Z</time>
      </trkpt>
      <trkpt lat="50.84477" lon="1.59736">
        <ele>50.1</ele>
        <time>2020-06-22T18:54:40Z</time>
      </trkpt>
      <trkpt lat="50.84483" lon="1.59739">
        <ele>50.3</ele>
        <time>2020-06-22T18:54:41Z</time>
      </trkpt>
      <trkpt lat="50.84489" lon="1.59742">
        <ele>50.5</ele>
        <time>2020-06-22T18:54:42Z</time>
      </trkpt>
      <trkpt lat="50.84495" lon="1.59743">
        <ele>50.8</ele>
        <time>2020-06-22T18:54:43Z</time>
      </trkpt>
      <trkpt lat="50.84501" lon="1.59742">
        <ele>51</ele>
        <time>2020-06-22T18:54:44Z</time>
      </trkpt>
      <trkpt lat="50.84507" lon="1.5974">
        <ele>51.3</ele>
        <time>2020-06-22T18:54:45Z</time>
      </trkpt>
      <trkpt lat="50.84511" lon="1.59737">
        <ele>51.6</ele>
        <time>2020-06-22T18:54:46Z</time>
      </trkpt>
      <trkpt lat="50.84516" lon="1.59734">
        <ele>51.9</ele>
        <time>2020-06-22T18:54:47Z</time>
      </trkpt>
      <trkpt lat="50.84522" lon="1.59731">
        <ele>52.2</ele>
        <time>2020-06-22T18:54:48Z</time>
      </trkpt>
      <trkpt lat="50.84527" lon="1.59729">
        <ele>52.5</ele>
        <time>2020-06-22T18:54:49Z</time>
      </trkpt>
      <trkpt lat="50.84531" lon="1.59726">
        <ele>52.7</ele>
        <time>2020-06-22T18:54:50Z</time>
      </trkpt>
      <trkpt lat="50.84536" lon="1.59724">
        <ele>52.9</ele>
        <time>2020-06-22T18:54:51Z</time>
      </trkpt>
      <trkpt lat="50.8454" lon="1.59721">
        <ele>53.1</ele>
        <time>2020-06-22T18:54:52Z</time>
      </trkpt>
      <trkpt lat="50.84542" lon="1.59719">
        <ele>53.2</ele>
        <time>2020-06-22T18:54:53Z</time>
      </trkpt>
      <trkpt lat="50.84546" lon="1.59716">
        <ele>53.4</ele>
        <time>2020-06-22T18:54:54Z</time>
      </trkpt>
      <trkpt lat="50.84549" lon="1.59714">
        <ele>53.5</ele>
        <time>2020-06-22T18:54:55Z</time>
      </trkpt>
      <trkpt lat="50.84556" lon="1.59713">
        <ele>53.7</ele>
        <time>2020-06-22T18:54:56Z</time>
      </trkpt>
      <trkpt lat="50.8456" lon="1.59712">
        <ele>53.8</ele>
        <time>2020-06-22T18:54:57Z</time>
      </trkpt>
      <trkpt lat="50.84564" lon="1.5971">
        <ele>53.9</ele>
        <time>2020-06-22T18:54:58Z</time>
      </trkpt>
      <trkpt lat="50.84569" lon="1.59707">
        <ele>54</ele>
        <time>2020-06-22T18:54:59Z</time>
      </trkpt>
      <trkpt lat="50.84574" lon="1.59705">
        <ele>54.1</ele>
        <time>2020-06-22T18:55:00Z</time>
      </trkpt>
      <trkpt lat="50.84578" lon="1.59703">
        <ele>54.2</ele>
        <time>2020-06-22T18:55:01Z</time>
      </trkpt>
      <trkpt lat="50.84584" lon="1.59701">
        <ele>54.3</ele>
        <time>2020-06-22T18:55:02Z</time>
      </trkpt>
      <trkpt lat="50.84589" lon="1.59698">
        <ele>54.5</ele>
        <time>2020-06-22T18:55:03Z</time>
      </trkpt>
      <trkpt lat="50.84594" lon="1.59696">
        <ele>54.5</ele>
        <time>2020-06-22T18:55:04Z</time>
      </trkpt>
      <trkpt lat="50.84599" lon="1.59693">
        <ele>54.6</ele>
        <time>2020-06-22T18:55:05Z</time>
      </trkpt>
      <trkpt lat="50.84604" lon="1.59693">
        <ele>54.7</ele>
        <time>2020-06-22T18:55:06Z</time>
      </trkpt>
      <trkpt lat="50.84609" lon="1.59692">
        <ele>54.8</ele>
        <time>2020-06-22T18:55:07Z</time>
      </trkpt>
      <trkpt lat="50.84613" lon="1.59691">
        <ele>54.9</ele>
        <time>2020-06-22T18:55:08Z</time>
      </trkpt>
      <trkpt lat="50.84617" lon="1.59689">
        <ele>55</ele>
        <time>2020-06-22T18:55:09Z</time>
      </trkpt>
      <trkpt lat="50.84622" lon="1.59687">
        <ele>55.1</ele>
        <time>2020-06-22T18:55:10Z</time>
      </trkpt>
      <trkpt lat="50.84627" lon="1.59685">
        <ele>55.2</ele>
        <time>2020-06-22T18:55:11Z</time>
      </trkpt>
      <trkpt lat="50.84631" lon="1.59683">
        <ele>55.3</ele>
        <time>2020-06-22T18:55:12Z</time>
      </trkpt>
      <trkpt lat="50.84635" lon="1.5968">
        <ele>55.4</ele>
        <time>2020-06-22T18:55:13Z</time>
      </trkpt>
      <trkpt lat="50.8464" lon="1.59677">
        <ele>55.5</ele>
        <time>2020-06-22T18:55:14Z</time>
      </trkpt>
      <trkpt lat="50.84644" lon="1.59675">
        <ele>55.5</ele>
        <time>2020-06-22T18:55:15Z</time>
      </trkpt>
      <trkpt lat="50.84648" lon="1.59675">
        <ele>55.6</ele>
        <time>2020-06-22T18:55:16Z</time>
      </trkpt>
      <trkpt lat="50.84652" lon="1.59674">
        <ele>55.7</ele>
        <time>2020-06-22T18:55:17Z</time>
      </trkpt>
      <trkpt lat="50.84656" lon="1.59674">
        <ele>55.7</ele>
        <time>2020-06-22T18:55:18Z</time>
      </trkpt>
      <trkpt lat="50.84659" lon="1.59675">
        <ele>55.8</ele>
        <time>2020-06-22T18:55:19Z</time>
      </trkpt>
      <trkpt lat="50.84661" lon="1.59675">
        <ele>55.8</ele>
        <time>2020-06-22T18:55:20Z</time>
      </trkpt>
      <trkpt lat="50.84664" lon="1.59676">
        <ele>55.8</ele>
        <time>2020-06-22T18:55:21Z</time>
      </trkpt>
      <trkpt lat="50.84665" lon="1.59676">
        <ele>55.8</ele>
        <time>2020-06-22T18:55:22Z</time>
      </trkpt>
      <trkpt lat="50.84668" lon="1.59676">
        <ele>55.8</ele>
        <time>2020-06-22T18:55:23Z</time>
      </trkpt>
      <trkpt lat="50.84673" lon="1.59676">
        <ele>55.8</ele>
        <time>2020-06-22T18:55:24Z</time>
      </trkpt>
      <trkpt lat="50.84674" lon="1.59677">
        <ele>55.8</ele>
        <time>2020-06-22T18:55:25Z</time>
      </trkpt>
      <trkpt lat="50.84678" lon="1.59678">
        <ele>55.8</ele>
        <time>2020-06-22T18:55:26Z</time>
      </trkpt>
      <trkpt lat="50.84681" lon="1.5968">
        <ele>55.8</ele>
        <time>2020-06-22T18:55:27Z</time>
      </trkpt>
      <trkpt lat="50.84685" lon="1.59681">
        <ele>55.8</ele>
        <time>2020-06-22T18:55:28Z</time>
      </trkpt>
      <trkpt lat="50.84689" lon="1.5968">
        <ele>55.7</ele>
        <time>2020-06-22T18:55:29Z</time>
      </trkpt>
      <trkpt lat="50.84693" lon="1.59681">
        <ele>55.7</ele>
        <time>2020-06-22T18:55:30Z</time>
      </trkpt>
      <trkpt lat="50.84698" lon="1.59682">
        <ele>55.6</ele>
        <time>2020-06-22T18:55:31Z</time>
      </trkpt>
      <trkpt lat="50.84702" lon="1.59682">
        <ele>55.6</ele>
        <time>2020-06-22T18:55:32Z</time>
      </trkpt>
      <trkpt lat="50.84706" lon="1.59684">
        <ele>55.6</ele>
        <time>2020-06-22T18:55:33Z</time>
      </trkpt>
      <trkpt lat="50.8471" lon="1.59684">
        <ele>55.6</ele>
        <time>2020-06-22T18:55:34Z</time>
      </trkpt>
      <trkpt lat="50.84714" lon="1.59685">
        <ele>55.6</ele>
        <time>2020-06-22T18:55:35Z</time>
      </trkpt>
      <trkpt lat="50.84717" lon="1.59686">
        <ele>55.6</ele>
        <time>2020-06-22T18:55:36Z</time>
      </trkpt>
      <trkpt lat="50.84722" lon="1.59686">
        <ele>55.6</ele>
        <time>2020-06-22T18:55:37Z</time>
      </trkpt>
      <trkpt lat="50.84727" lon="1.59686">
        <ele>55.6</ele>
        <time>2020-06-22T18:55:38Z</time>
      </trkpt>
      <trkpt lat="50.84732" lon="1.59687">
        <ele>55.5</ele>
        <time>2020-06-22T18:55:39Z</time>
      </trkpt>
      <trkpt lat="50.84736" lon="1.59688">
        <ele>55.5</ele>
        <time>2020-06-22T18:55:40Z</time>
      </trkpt>
      <trkpt lat="50.84741" lon="1.59688">
        <ele>55.5</ele>
        <time>2020-06-22T18:55:41Z</time>
      </trkpt>
      <trkpt lat="50.84746" lon="1.59689">
        <ele>55.4</ele>
        <time>2020-06-22T18:55:42Z</time>
      </trkpt>
      <trkpt lat="50.8475" lon="1.59689">
        <ele>55.4</ele>
        <time>2020-06-22T18:55:43Z</time>
      </trkpt>
      <trkpt lat="50.84755" lon="1.59689">
        <ele>55.4</ele>
        <time>2020-06-22T18:55:44Z</time>
      </trkpt>
      <trkpt lat="50.8476" lon="1.59689">
        <ele>55.3</ele>
        <time>2020-06-22T18:55:45Z</time>
      </trkpt>
      <trkpt lat="50.84764" lon="1.59689">
        <ele>55.3</ele>
        <time>2020-06-22T18:55:46Z</time>
      </trkpt>
      <trkpt lat="50.84768" lon="1.5969">
        <ele>55.3</ele>
        <time>2020-06-22T18:55:47Z</time>
      </trkpt>
      <trkpt lat="50.84772" lon="1.5969">
        <ele>55.3</ele>
        <time>2020-06-22T18:55:48Z</time>
      </trkpt>
      <trkpt lat="50.84775" lon="1.59691">
        <ele>55.2</ele>
        <time>2020-06-22T18:55:49Z</time>
      </trkpt>
      <trkpt lat="50.8478" lon="1.59691">
        <ele>55.2</ele>
        <time>2020-06-22T18:55:50Z</time>
      </trkpt>
      <trkpt lat="50.84785" lon="1.59692">
        <ele>55.1</ele>
        <time>2020-06-22T18:55:51Z</time>
      </trkpt>
      <trkpt lat="50.8479" lon="1.59693">
        <ele>55.1</ele>
        <time>2020-06-22T18:55:52Z</time>
      </trkpt>
      <trkpt lat="50.84795" lon="1.59694">
        <ele>55</ele>
        <time>2020-06-22T18:55:53Z</time>
      </trkpt>
      <trkpt lat="50.84799" lon="1.59694">
        <ele>55</ele>
        <time>2020-06-22T18:55:54Z</time>
      </trkpt>
      <trkpt lat="50.84805" lon="1.59693">
        <ele>54.9</ele>
        <time>2020-06-22T18:55:55Z</time>
      </trkpt>
      <trkpt lat="50.84811" lon="1.59691">
        <ele>54.9</ele>
        <time>2020-06-22T18:55:56Z</time>
      </trkpt>
      <trkpt lat="50.84815" lon="1.59687">
        <ele>54.8</ele>
        <time>2020-06-22T18:55:57Z</time>
      </trkpt>
      <trkpt lat="50.8482" lon="1.59682">
        <ele>54.8</ele>
        <time>2020-06-22T18:55:58Z</time>
      </trkpt>
      <trkpt lat="50.84825" lon="1.59677">
        <ele>54.7</ele>
        <time>2020-06-22T18:55:59Z</time>
      </trkpt>
      <trkpt lat="50.84829" lon="1.59673">
        <ele>54.6</ele>
        <time>2020-06-22T18:56:00Z</time>
      </trkpt>
      <trkpt lat="50.84834" lon="1.59671">
        <ele>54.5</ele>
        <time>2020-06-22T18:56:01Z</time>
      </trkpt>
      <trkpt lat="50.84838" lon="1.59667">
        <ele>54.5</ele>
        <time>2020-06-22T18:56:02Z</time>
      </trkpt>
      <trkpt lat="50.84841" lon="1.59663">
        <ele>54.4</ele>
        <time>2020-06-22T18:56:03Z</time>
      </trkpt>
      <trkpt lat="50.84845" lon="1.59659">
        <ele>54.3</ele>
        <time>2020-06-22T18:56:04Z</time>
      </trkpt>
      <trkpt lat="50.84848" lon="1.59656">
        <ele>54.2</ele>
        <time>2020-06-22T18:56:05Z</time>
      </trkpt>
      <trkpt lat="50.84852" lon="1.59652">
        <ele>54.1</ele>
        <time>2020-06-22T18:56:06Z</time>
      </trkpt>
      <trkpt lat="50.84856" lon="1.5965">
        <ele>54.1</ele>
        <time>2020-06-22T18:56:07Z</time>
      </trkpt>
      <trkpt lat="50.8486" lon="1.59648">
        <ele>54</ele>
        <time>2020-06-22T18:56:08Z</time>
      </trkpt>
      <trkpt lat="50.84865" lon="1.59647">
        <ele>54</ele>
        <time>2020-06-22T18:56:09Z</time>
      </trkpt>
      <trkpt lat="50.84869" lon="1.59646">
        <ele>53.9</ele>
        <time>2020-06-22T18:56:10Z</time>
      </trkpt>
      <trkpt lat="50.84874" lon="1.59645">
        <ele>53.9</ele>
        <time>2020-06-22T18:56:11Z</time>
      </trkpt>
      <trkpt lat="50.84878" lon="1.59644">
        <ele>53.8</ele>
        <time>2020-06-22T18:56:12Z</time>
      </trkpt>
      <trkpt lat="50.84882" lon="1.59641">
        <ele>53.8</ele>
        <time>2020-06-22T18:56:13Z</time>
      </trkpt>
      <trkpt lat="50.84887" lon="1.59642">
        <ele>53.7</ele>
        <time>2020-06-22T18:56:14Z</time>
      </trkpt>
      <trkpt lat="50.84892" lon="1.59643">
        <ele>53.6</ele>
        <time>2020-06-22T18:56:15Z</time>
      </trkpt>
      <trkpt lat="50.84896" lon="1.59641">
        <ele>53.5</ele>
        <time>2020-06-22T18:56:16Z</time>
      </trkpt>
      <trkpt lat="50.849" lon="1.59641">
        <ele>53.4</ele>
        <time>2020-06-22T18:56:17Z</time>
      </trkpt>
      <trkpt lat="50.84904" lon="1.59641">
        <ele>53.3</ele>
        <time>2020-06-22T18:56:18Z</time>
      </trkpt>
      <trkpt lat="50.84909" lon="1.5964">
        <ele>53.2</ele>
        <time>2020-06-22T18:56:19Z</time>
      </trkpt>
      <trkpt lat="50.84913" lon="1.59639">
        <ele>53</ele>
        <time>2020-06-22T18:56:20Z</time>
      </trkpt>
      <trkpt lat="50.84918" lon="1.59638">
        <ele>52.9</ele>
        <time>2020-06-22T18:56:21Z</time>
      </trkpt>
      <trkpt lat="50.84923" lon="1.59639">
        <ele>52.8</ele>
        <time>2020-06-22T18:56:22Z</time>
      </trkpt>
      <trkpt lat="50.84928" lon="1.59639">
        <ele>52.7</ele>
        <time>2020-06-22T18:56:23Z</time>
      </trkpt>
      <trkpt lat="50.84933" lon="1.59638">
        <ele>52.7</ele>
        <time>2020-06-22T18:56:24Z</time>
      </trkpt>
      <trkpt lat="50.84938" lon="1.59638">
        <ele>52.6</ele>
        <time>2020-06-22T18:56:25Z</time>
      </trkpt>
      <trkpt lat="50.84944" lon="1.59636">
        <ele>52.5</ele>
        <time>2020-06-22T18:56:26Z</time>
      </trkpt>
      <trkpt lat="50.8495" lon="1.59633">
        <ele>52.4</ele>
        <time>2020-06-22T18:56:27Z</time>
      </trkpt>
      <trkpt lat="50.84955" lon="1.59632">
        <ele>52.3</ele>
        <time>2020-06-22T18:56:28Z</time>
      </trkpt>
      <trkpt lat="50.84961" lon="1.59631">
        <ele>52.2</ele>
        <time>2020-06-22T18:56:29Z</time>
      </trkpt>
      <trkpt lat="50.84967" lon="1.5963">
        <ele>52.1</ele>
        <time>2020-06-22T18:56:30Z</time>
      </trkpt>
      <trkpt lat="50.84973" lon="1.59629">
        <ele>52</ele>
        <time>2020-06-22T18:56:31Z</time>
      </trkpt>
      <trkpt lat="50.84978" lon="1.59627">
        <ele>52</ele>
        <time>2020-06-22T18:56:32Z</time>
      </trkpt>
      <trkpt lat="50.84984" lon="1.59624">
        <ele>52</ele>
        <time>2020-06-22T18:56:33Z</time>
      </trkpt>
      <trkpt lat="50.8499" lon="1.5962">
        <ele>51.9</ele>
        <time>2020-06-22T18:56:34Z</time>
      </trkpt>
      <trkpt lat="50.84996" lon="1.59616">
        <ele>51.8</ele>
        <time>2020-06-22T18:56:35Z</time>
      </trkpt>
      <trkpt lat="50.85002" lon="1.59613">
        <ele>51.8</ele>
        <time>2020-06-22T18:56:36Z</time>
      </trkpt>
      <trkpt lat="50.85007" lon="1.5961">
        <ele>51.7</ele>
        <time>2020-06-22T18:56:37Z</time>
      </trkpt>
      <trkpt lat="50.85013" lon="1.59607">
        <ele>51.6</ele>
        <time>2020-06-22T18:56:38Z</time>
      </trkpt>
      <trkpt lat="50.85018" lon="1.59605">
        <ele>51.6</ele>
        <time>2020-06-22T18:56:39Z</time>
      </trkpt>
      <trkpt lat="50.85025" lon="1.59603">
        <ele>51.5</ele>
        <time>2020-06-22T18:56:40Z</time>
      </trkpt>
      <trkpt lat="50.8503" lon="1.59601">
        <ele>51.5</ele>
        <time>2020-06-22T18:56:41Z</time>
      </trkpt>
      <trkpt lat="50.85036" lon="1.59597">
        <ele>51.4</ele>
        <time>2020-06-22T18:56:42Z</time>
      </trkpt>
      <trkpt lat="50.85042" lon="1.59595">
        <ele>51.4</ele>
        <time>2020-06-22T18:56:43Z</time>
      </trkpt>
      <trkpt lat="50.85048" lon="1.59591">
        <ele>51.3</ele>
        <time>2020-06-22T18:56:44Z</time>
      </trkpt>
      <trkpt lat="50.85054" lon="1.59588">
        <ele>51.2</ele>
        <time>2020-06-22T18:56:45Z</time>
      </trkpt>
      <trkpt lat="50.85061" lon="1.59584">
        <ele>51.1</ele>
        <time>2020-06-22T18:56:46Z</time>
      </trkpt>
      <trkpt lat="50.85067" lon="1.59581">
        <ele>51</ele>
        <time>2020-06-22T18:56:47Z</time>
      </trkpt>
      <trkpt lat="50.85072" lon="1.5958">
        <ele>50.9</ele>
        <time>2020-06-22T18:56:48Z</time>
      </trkpt>
      <trkpt lat="50.85078" lon="1.59578">
        <ele>50.8</ele>
        <time>2020-06-22T18:56:49Z</time>
      </trkpt>
      <trkpt lat="50.85085" lon="1.59576">
        <ele>50.8</ele>
        <time>2020-06-22T18:56:50Z</time>
      </trkpt>
      <trkpt lat="50.85091" lon="1.59574">
        <ele>50.7</ele>
        <time>2020-06-22T18:56:51Z</time>
      </trkpt>
      <trkpt lat="50.85097" lon="1.59572">
        <ele>50.6</ele>
        <time>2020-06-22T18:56:52Z</time>
      </trkpt>
      <trkpt lat="50.85103" lon="1.59569">
        <ele>50.5</ele>
        <time>2020-06-22T18:56:53Z</time>
      </trkpt>
      <trkpt lat="50.8511" lon="1.59566">
        <ele>50.5</ele>
        <time>2020-06-22T18:56:54Z</time>
      </trkpt>
      <trkpt lat="50.85116" lon="1.59562">
        <ele>50.4</ele>
        <time>2020-06-22T18:56:55Z</time>
      </trkpt>
      <trkpt lat="50.85121" lon="1.59559">
        <ele>50.4</ele>
        <time>2020-06-22T18:56:56Z</time>
      </trkpt>
      <trkpt lat="50.85127" lon="1.59556">
        <ele>50.3</ele>
        <time>2020-06-22T18:56:57Z</time>
      </trkpt>
      <trkpt lat="50.85132" lon="1.59554">
        <ele>50.3</ele>
        <time>2020-06-22T18:56:58Z</time>
      </trkpt>
      <trkpt lat="50.85138" lon="1.59552">
        <ele>50.3</ele>
        <time>2020-06-22T18:56:59Z</time>
      </trkpt>
      <trkpt lat="50.85142" lon="1.59549">
        <ele>50.3</ele>
        <time>2020-06-22T18:57:00Z</time>
      </trkpt>
      <trkpt lat="50.85146" lon="1.59545">
        <ele>50.3</ele>
        <time>2020-06-22T18:57:01Z</time>
      </trkpt>
      <trkpt lat="50.8515" lon="1.59544">
        <ele>50.3</ele>
        <time>2020-06-22T18:57:02Z</time>
      </trkpt>
      <trkpt lat="50.85153" lon="1.59542">
        <ele>50.3</ele>
        <time>2020-06-22T18:57:03Z</time>
      </trkpt>
      <trkpt lat="50.85158" lon="1.59539">
        <ele>50.2</ele>
        <time>2020-06-22T18:57:04Z</time>
      </trkpt>
      <trkpt lat="50.85162" lon="1.59538">
        <ele>50.2</ele>
        <time>2020-06-22T18:57:05Z</time>
      </trkpt>
      <trkpt lat="50.85165" lon="1.59537">
        <ele>50.1</ele>
        <time>2020-06-22T18:57:06Z</time>
      </trkpt>
      <trkpt lat="50.85168" lon="1.59537">
        <ele>50.1</ele>
        <time>2020-06-22T18:57:07Z</time>
      </trkpt>
      <trkpt lat="50.85169" lon="1.59536">
        <ele>50</ele>
        <time>2020-06-22T18:57:08Z</time>
      </trkpt>
      <trkpt lat="50.85171" lon="1.59535">
        <ele>50</ele>
        <time>2020-06-22T18:57:09Z</time>
      </trkpt>
      <trkpt lat="50.85172" lon="1.59533">
        <ele>50</ele>
        <time>2020-06-22T18:57:10Z</time>
      </trkpt>
      <trkpt lat="50.85171" lon="1.59533">
        <ele>50</ele>
        <time>2020-06-22T18:57:11Z</time>
      </trkpt>
      <trkpt lat="50.85171" lon="1.59534">
        <ele>50</ele>
        <time>2020-06-22T18:57:12Z</time>
      </trkpt>
      <trkpt lat="50.85171" lon="1.59533">
        <ele>50</ele>
        <time>2020-06-22T18:57:13Z</time>
      </trkpt>
      <trkpt lat="50.8517" lon="1.59534">
        <ele>49.9</ele>
        <time>2020-06-22T18:57:14Z</time>
      </trkpt>
      <trkpt lat="50.85169" lon="1.59535">
        <ele>49.9</ele>
        <time>2020-06-22T18:57:15Z</time>
      </trkpt>
      <trkpt lat="50.85169" lon="1.59535">
        <ele>49.9</ele>
        <time>2020-06-22T18:57:16Z</time>
      </trkpt>
      <trkpt lat="50.85168" lon="1.59535">
        <ele>49.9</ele>
        <time>2020-06-22T18:57:17Z</time>
      </trkpt>
      <trkpt lat="50.85169" lon="1.59535">
        <ele>49.9</ele>
        <time>2020-06-22T18:57:18Z</time>
      </trkpt>
      <trkpt lat="50.85168" lon="1.59535">
        <ele>49.9</ele>
        <time>2020-06-22T18:57:19Z</time>
      </trkpt>
      <trkpt lat="50.85168" lon="1.59535">
        <ele>49.9</ele>
        <time>2020-06-22T18:57:20Z</time>
      </trkpt>
      <trkpt lat="50.85169" lon="1.59535">
        <ele>49.9</ele>
        <time>2020-06-22T18:57:21Z</time>
      </trkpt>
      <trkpt lat="50.85171" lon="1.59535">
        <ele>49.8</ele>
        <time>2020-06-22T18:57:22Z</time>
      </trkpt>
      <trkpt lat="50.85173" lon="1.59535">
        <ele>49.8</ele>
        <time>2020-06-22T18:57:23Z</time>
      </trkpt>
      <trkpt lat="50.85175" lon="1.59534">
        <ele>49.8</ele>
        <time>2020-06-22T18:57:28Z</time>
      </trkpt>
      <trkpt lat="50.85177" lon="1.59534">
        <ele>49.7</ele>
        <time>2020-06-22T18:57:29Z</time>
      </trkpt>
      <trkpt lat="50.85181" lon="1.59533">
        <ele>49.7</ele>
        <time>2020-06-22T18:57:30Z</time>
      </trkpt>
      <trkpt lat="50.85185" lon="1.5953">
        <ele>49.7</ele>
        <time>2020-06-22T18:57:31Z</time>
      </trkpt>
      <trkpt lat="50.85189" lon="1.59527">
        <ele>49.7</ele>
        <time>2020-06-22T18:57:32Z</time>
      </trkpt>
      <trkpt lat="50.85193" lon="1.59524">
        <ele>49.7</ele>
        <time>2020-06-22T18:57:33Z</time>
      </trkpt>
      <trkpt lat="50.85196" lon="1.59521">
        <ele>49.7</ele>
        <time>2020-06-22T18:57:34Z</time>
      </trkpt>
      <trkpt lat="50.85199" lon="1.59518">
        <ele>49.7</ele>
        <time>2020-06-22T18:57:35Z</time>
      </trkpt>
      <trkpt lat="50.85202" lon="1.59514">
        <ele>49.7</ele>
        <time>2020-06-22T18:57:36Z</time>
      </trkpt>
      <trkpt lat="50.85205" lon="1.59513">
        <ele>49.7</ele>
        <time>2020-06-22T18:57:37Z</time>
      </trkpt>
      <trkpt lat="50.85208" lon="1.59511">
        <ele>49.7</ele>
        <time>2020-06-22T18:57:38Z</time>
      </trkpt>
      <trkpt lat="50.85212" lon="1.59509">
        <ele>49.7</ele>
        <time>2020-06-22T18:57:39Z</time>
      </trkpt>
      <trkpt lat="50.85216" lon="1.59506">
        <ele>49.6</ele>
        <time>2020-06-22T18:57:40Z</time>
      </trkpt>
      <trkpt lat="50.8522" lon="1.59502">
        <ele>49.6</ele>
        <time>2020-06-22T18:57:41Z</time>
      </trkpt>
      <trkpt lat="50.85223" lon="1.59499">
        <ele>49.5</ele>
        <time>2020-06-22T18:57:42Z</time>
      </trkpt>
      <trkpt lat="50.85226" lon="1.59497">
        <ele>49.5</ele>
        <time>2020-06-22T18:57:43Z</time>
      </trkpt>
      <trkpt lat="50.8523" lon="1.59495">
        <ele>49.5</ele>
        <time>2020-06-22T18:57:44Z</time>
      </trkpt>
      <trkpt lat="50.85235" lon="1.59495">
        <ele>49.4</ele>
        <time>2020-06-22T18:57:45Z</time>
      </trkpt>
      <trkpt lat="50.85239" lon="1.59495">
        <ele>49.4</ele>
        <time>2020-06-22T18:57:46Z</time>
      </trkpt>
      <trkpt lat="50.85242" lon="1.59493">
        <ele>49.4</ele>
        <time>2020-06-22T18:57:47Z</time>
      </trkpt>
      <trkpt lat="50.85244" lon="1.59489">
        <ele>49.4</ele>
        <time>2020-06-22T18:57:48Z</time>
      </trkpt>
      <trkpt lat="50.85247" lon="1.59486">
        <ele>49.3</ele>
        <time>2020-06-22T18:57:49Z</time>
      </trkpt>
      <trkpt lat="50.8525" lon="1.59483">
        <ele>49.3</ele>
        <time>2020-06-22T18:57:50Z</time>
      </trkpt>
      <trkpt lat="50.85253" lon="1.59482">
        <ele>49.3</ele>
        <time>2020-06-22T18:57:51Z</time>
      </trkpt>
      <trkpt lat="50.85256" lon="1.5948">
        <ele>49.3</ele>
        <time>2020-06-22T18:57:52Z</time>
      </trkpt>
      <trkpt lat="50.8526" lon="1.59479">
        <ele>49.3</ele>
        <time>2020-06-22T18:57:53Z</time>
      </trkpt>
      <trkpt lat="50.85263" lon="1.59478">
        <ele>49.3</ele>
        <time>2020-06-22T18:57:54Z</time>
      </trkpt>
      <trkpt lat="50.85266" lon="1.59475">
        <ele>49.2</ele>
        <time>2020-06-22T18:57:55Z</time>
      </trkpt>
      <trkpt lat="50.85269" lon="1.59472">
        <ele>49.2</ele>
        <time>2020-06-22T18:57:56Z</time>
      </trkpt>
      <trkpt lat="50.85272" lon="1.5947">
        <ele>49.2</ele>
        <time>2020-06-22T18:57:57Z</time>
      </trkpt>
      <trkpt lat="50.85276" lon="1.59468">
        <ele>49.2</ele>
        <time>2020-06-22T18:57:58Z</time>
      </trkpt>
      <trkpt lat="50.85279" lon="1.59465">
        <ele>49.2</ele>
        <time>2020-06-22T18:57:59Z</time>
      </trkpt>
      <trkpt lat="50.8528" lon="1.59464">
        <ele>49.2</ele>
        <time>2020-06-22T18:58:00Z</time>
      </trkpt>
      <trkpt lat="50.85283" lon="1.5946">
        <ele>49.2</ele>
        <time>2020-06-22T18:58:01Z</time>
      </trkpt>
      <trkpt lat="50.85285" lon="1.59457">
        <ele>49.1</ele>
        <time>2020-06-22T18:58:02Z</time>
      </trkpt>
      <trkpt lat="50.85287" lon="1.59453">
        <ele>49.1</ele>
        <time>2020-06-22T18:58:03Z</time>
      </trkpt>
      <trkpt lat="50.85289" lon="1.59448">
        <ele>49.1</ele>
        <time>2020-06-22T18:58:04Z</time>
      </trkpt>
      <trkpt lat="50.85291" lon="1.59445">
        <ele>49</ele>
        <time>2020-06-22T18:58:05Z</time>
      </trkpt>
      <trkpt lat="50.85295" lon="1.59443">
        <ele>48.9</ele>
        <time>2020-06-22T18:58:06Z</time>
      </trkpt>
      <trkpt lat="50.85297" lon="1.59444">
        <ele>48.9</ele>
        <time>2020-06-22T18:58:07Z</time>
      </trkpt>
      <trkpt lat="50.853" lon="1.59442">
        <ele>48.8</ele>
        <time>2020-06-22T18:58:08Z</time>
      </trkpt>
      <trkpt lat="50.85303" lon="1.59441">
        <ele>48.8</ele>
        <time>2020-06-22T18:58:09Z</time>
      </trkpt>
      <trkpt lat="50.85304" lon="1.59441">
        <ele>48.8</ele>
        <time>2020-06-22T18:58:10Z</time>
      </trkpt>
      <trkpt lat="50.85306" lon="1.59441">
        <ele>48.7</ele>
        <time>2020-06-22T18:58:11Z</time>
      </trkpt>
      <trkpt lat="50.85306" lon="1.59441">
        <ele>48.7</ele>
        <time>2020-06-22T18:58:12Z</time>
      </trkpt>
      <trkpt lat="50.85306" lon="1.5944">
        <ele>48.7</ele>
        <time>2020-06-22T18:58:13Z</time>
      </trkpt>
      <trkpt lat="50.85307" lon="1.59439">
        <ele>48.7</ele>
        <time>2020-06-22T18:58:14Z</time>
      </trkpt>
      <trkpt lat="50.85307" lon="1.59439">
        <ele>48.7</ele>
        <time>2020-06-22T18:58:15Z</time>
      </trkpt>
      <trkpt lat="50.85308" lon="1.59438">
        <ele>48.7</ele>
        <time>2020-06-22T18:58:16Z</time>
      </trkpt>
      <trkpt lat="50.85308" lon="1.59437">
        <ele>48.7</ele>
        <time>2020-06-22T18:58:17Z</time>
      </trkpt>
      <trkpt lat="50.85308" lon="1.59437">
        <ele>48.6</ele>
        <time>2020-06-22T18:58:18Z</time>
      </trkpt>
      <trkpt lat="50.85309" lon="1.59436">
        <ele>48.6</ele>
        <time>2020-06-22T18:58:19Z</time>
      </trkpt>
      <trkpt lat="50.85309" lon="1.59435">
        <ele>48.6</ele>
        <time>2020-06-22T18:58:20Z</time>
      </trkpt>
      <trkpt lat="50.8531" lon="1.59435">
        <ele>48.6</ele>
        <time>2020-06-22T18:58:21Z</time>
      </trkpt>
      <trkpt lat="50.8531" lon="1.59434">
        <ele>48.6</ele>
        <time>2020-06-22T18:58:53Z</time>
      </trkpt>
      <trkpt lat="50.85311" lon="1.59434">
        <ele>48.6</ele>
        <time>2020-06-22T18:58:54Z</time>
      </trkpt>
      <trkpt lat="50.85312" lon="1.59432">
        <ele>48.6</ele>
        <time>2020-06-22T18:58:55Z</time>
      </trkpt>
      <trkpt lat="50.85313" lon="1.5943">
        <ele>48.5</ele>
        <time>2020-06-22T18:58:56Z</time>
      </trkpt>
      <trkpt lat="50.85315" lon="1.59426">
        <ele>48.5</ele>
        <time>2020-06-22T18:58:57Z</time>
      </trkpt>
      <trkpt lat="50.85315" lon="1.59425">
        <ele>48.4</ele>
        <time>2020-06-22T18:58:58Z</time>
      </trkpt>
      <trkpt lat="50.85317" lon="1.5942">
        <ele>48.4</ele>
        <time>2020-06-22T18:58:59Z</time>
      </trkpt>
      <trkpt lat="50.85317" lon="1.59419">
        <ele>48.4</ele>
        <time>2020-06-22T18:59:00Z</time>
      </trkpt>
      <trkpt lat="50.8532" lon="1.59414">
        <ele>48.3</ele>
        <time>2020-06-22T18:59:01Z</time>
      </trkpt>
      <trkpt lat="50.85321" lon="1.59412">
        <ele>48.3</ele>
        <time>2020-06-22T18:59:02Z</time>
      </trkpt>
      <trkpt lat="50.85323" lon="1.59408">
        <ele>48.2</ele>
        <time>2020-06-22T18:59:03Z</time>
      </trkpt>
      <trkpt lat="50.85324" lon="1.59408">
        <ele>48.2</ele>
        <time>2020-06-22T18:59:04Z</time>
      </trkpt>
      <trkpt lat="50.85327" lon="1.59405">
        <ele>48.1</ele>
        <time>2020-06-22T18:59:05Z</time>
      </trkpt>
      <trkpt lat="50.8533" lon="1.59402">
        <ele>48</ele>
        <time>2020-06-22T18:59:06Z</time>
      </trkpt>
      <trkpt lat="50.85332" lon="1.594">
        <ele>48</ele>
        <time>2020-06-22T18:59:07Z</time>
      </trkpt>
      <trkpt lat="50.85335" lon="1.59398">
        <ele>47.9</ele>
        <time>2020-06-22T18:59:08Z</time>
      </trkpt>
      <trkpt lat="50.85338" lon="1.59397">
        <ele>47.9</ele>
        <time>2020-06-22T18:59:09Z</time>
      </trkpt>
      <trkpt lat="50.85341" lon="1.59396">
        <ele>47.8</ele>
        <time>2020-06-22T18:59:10Z</time>
      </trkpt>
      <trkpt lat="50.85344" lon="1.59395">
        <ele>47.8</ele>
        <time>2020-06-22T18:59:11Z</time>
      </trkpt>
      <trkpt lat="50.85348" lon="1.59392">
        <ele>47.7</ele>
        <time>2020-06-22T18:59:12Z</time>
      </trkpt>
      <trkpt lat="50.85349" lon="1.59392">
        <ele>47.7</ele>
        <time>2020-06-22T18:59:13Z</time>
      </trkpt>
      <trkpt lat="50.85353" lon="1.5939">
        <ele>47.6</ele>
        <time>2020-06-22T18:59:14Z</time>
      </trkpt>
      <trkpt lat="50.85356" lon="1.59387">
        <ele>47.6</ele>
        <time>2020-06-22T18:59:15Z</time>
      </trkpt>
      <trkpt lat="50.85359" lon="1.59384">
        <ele>47.5</ele>
        <time>2020-06-22T18:59:16Z</time>
      </trkpt>
      <trkpt lat="50.85362" lon="1.59382">
        <ele>47.5</ele>
        <time>2020-06-22T18:59:17Z</time>
      </trkpt>
      <trkpt lat="50.85364" lon="1.59379">
        <ele>47.4</ele>
        <time>2020-06-22T18:59:18Z</time>
      </trkpt>
      <trkpt lat="50.85368" lon="1.59375">
        <ele>47.4</ele>
        <time>2020-06-22T18:59:19Z</time>
      </trkpt>
      <trkpt lat="50.85369" lon="1.59373">
        <ele>47.3</ele>
        <time>2020-06-22T18:59:20Z</time>
      </trkpt>
      <trkpt lat="50.85371" lon="1.5937">
        <ele>47.3</ele>
        <time>2020-06-22T18:59:21Z</time>
      </trkpt>
      <trkpt lat="50.85373" lon="1.59367">
        <ele>47.3</ele>
        <time>2020-06-22T18:59:22Z</time>
      </trkpt>
      <trkpt lat="50.85375" lon="1.59364">
        <ele>47.2</ele>
        <time>2020-06-22T18:59:23Z</time>
      </trkpt>
      <trkpt lat="50.85378" lon="1.59363">
        <ele>47.2</ele>
        <time>2020-06-22T18:59:24Z</time>
      </trkpt>
      <trkpt lat="50.85383" lon="1.59361">
        <ele>47.1</ele>
        <time>2020-06-22T18:59:25Z</time>
      </trkpt>
      <trkpt lat="50.85385" lon="1.5936">
        <ele>47.1</ele>
        <time>2020-06-22T18:59:26Z</time>
      </trkpt>
      <trkpt lat="50.85387" lon="1.59354">
        <ele>46.9</ele>
        <time>2020-06-22T18:59:27Z</time>
      </trkpt>
      <trkpt lat="50.85391" lon="1.59348">
        <ele>46.9</ele>
        <time>2020-06-22T18:59:28Z</time>
      </trkpt>
      <trkpt lat="50.85395" lon="1.59343">
        <ele>46.8</ele>
        <time>2020-06-22T18:59:29Z</time>
      </trkpt>
      <trkpt lat="50.85399" lon="1.59339">
        <ele>46.7</ele>
        <time>2020-06-22T18:59:30Z</time>
      </trkpt>
      <trkpt lat="50.854" lon="1.59334">
        <ele>46.7</ele>
        <time>2020-06-22T18:59:31Z</time>
      </trkpt>
      <trkpt lat="50.85404" lon="1.59331">
        <ele>46.6</ele>
        <time>2020-06-22T18:59:32Z</time>
      </trkpt>
      <trkpt lat="50.85406" lon="1.59327">
        <ele>46.6</ele>
        <time>2020-06-22T18:59:33Z</time>
      </trkpt>
      <trkpt lat="50.85409" lon="1.5932">
        <ele>46.6</ele>
        <time>2020-06-22T18:59:34Z</time>
      </trkpt>
      <trkpt lat="50.85412" lon="1.59316">
        <ele>46.5</ele>
        <time>2020-06-22T18:59:35Z</time>
      </trkpt>
      <trkpt lat="50.85414" lon="1.59313">
        <ele>46.5</ele>
        <time>2020-06-22T18:59:36Z</time>
      </trkpt>
      <trkpt lat="50.85416" lon="1.5931">
        <ele>46.5</ele>
        <time>2020-06-22T18:59:37Z</time>
      </trkpt>
      <trkpt lat="50.85419" lon="1.59307">
        <ele>46.5</ele>
        <time>2020-06-22T18:59:38Z</time>
      </trkpt>
      <trkpt lat="50.85421" lon="1.59304">
        <ele>46.5</ele>
        <time>2020-06-22T18:59:39Z</time>
      </trkpt>
      <trkpt lat="50.85424" lon="1.59299">
        <ele>46.5</ele>
        <time>2020-06-22T18:59:40Z</time>
      </trkpt>
      <trkpt lat="50.85426" lon="1.59295">
        <ele>46.5</ele>
        <time>2020-06-22T18:59:41Z</time>
      </trkpt>
      <trkpt lat="50.85429" lon="1.59291">
        <ele>46.5</ele>
        <time>2020-06-22T18:59:42Z</time>
      </trkpt>
      <trkpt lat="50.85433" lon="1.59286">
        <ele>46.5</ele>
        <time>2020-06-22T18:59:43Z</time>
      </trkpt>
      <trkpt lat="50.85436" lon="1.59281">
        <ele>46.5</ele>
        <time>2020-06-22T18:59:44Z</time>
      </trkpt>
      <trkpt lat="50.85439" lon="1.59277">
        <ele>46.5</ele>
        <time>2020-06-22T18:59:45Z</time>
      </trkpt>
      <trkpt lat="50.85442" lon="1.59273">
        <ele>46.5</ele>
        <time>2020-06-22T18:59:46Z</time>
      </trkpt>
      <trkpt lat="50.85445" lon="1.59269">
        <ele>46.5</ele>
        <time>2020-06-22T18:59:47Z</time>
      </trkpt>
      <trkpt lat="50.85449" lon="1.59265">
        <ele>46.5</ele>
        <time>2020-06-22T18:59:48Z</time>
      </trkpt>
      <trkpt lat="50.85453" lon="1.59261">
        <ele>46.5</ele>
        <time>2020-06-22T18:59:49Z</time>
      </trkpt>
      <trkpt lat="50.85457" lon="1.59257">
        <ele>46.5</ele>
        <time>2020-06-22T18:59:50Z</time>
      </trkpt>
      <trkpt lat="50.85463" lon="1.59251">
        <ele>46.5</ele>
        <time>2020-06-22T18:59:51Z</time>
      </trkpt>
      <trkpt lat="50.85465" lon="1.5925">
        <ele>46.5</ele>
        <time>2020-06-22T18:59:52Z</time>
      </trkpt>
      <trkpt lat="50.85469" lon="1.59246">
        <ele>46.5</ele>
        <time>2020-06-22T18:59:53Z</time>
      </trkpt>
      <trkpt lat="50.85474" lon="1.59243">
        <ele>46.5</ele>
        <time>2020-06-22T18:59:54Z</time>
      </trkpt>
      <trkpt lat="50.85479" lon="1.5924">
        <ele>46.5</ele>
        <time>2020-06-22T18:59:55Z</time>
      </trkpt>
      <trkpt lat="50.85481" lon="1.59239">
        <ele>46.5</ele>
        <time>2020-06-22T18:59:56Z</time>
      </trkpt>
      <trkpt lat="50.85486" lon="1.59237">
        <ele>46.5</ele>
        <time>2020-06-22T18:59:57Z</time>
      </trkpt>
      <trkpt lat="50.8549" lon="1.59234">
        <ele>46.5</ele>
        <time>2020-06-22T18:59:58Z</time>
      </trkpt>
      <trkpt lat="50.85497" lon="1.59232">
        <ele>46.4</ele>
        <time>2020-06-22T18:59:59Z</time>
      </trkpt>
      <trkpt lat="50.85499" lon="1.59231">
        <ele>46.3</ele>
        <time>2020-06-22T19:00:00Z</time>
      </trkpt>
      <trkpt lat="50.85505" lon="1.5923">
        <ele>46.3</ele>
        <time>2020-06-22T19:00:01Z</time>
      </trkpt>
      <trkpt lat="50.8551" lon="1.59229">
        <ele>46.2</ele>
        <time>2020-06-22T19:00:02Z</time>
      </trkpt>
      <trkpt lat="50.85516" lon="1.59228">
        <ele>46.1</ele>
        <time>2020-06-22T19:00:03Z</time>
      </trkpt>
      <trkpt lat="50.85522" lon="1.59228">
        <ele>46</ele>
        <time>2020-06-22T19:00:04Z</time>
      </trkpt>
      <trkpt lat="50.85528" lon="1.59229">
        <ele>45.9</ele>
        <time>2020-06-22T19:00:05Z</time>
      </trkpt>
      <trkpt lat="50.85534" lon="1.59229">
        <ele>45.8</ele>
        <time>2020-06-22T19:00:06Z</time>
      </trkpt>
      <trkpt lat="50.8554" lon="1.59229">
        <ele>45.7</ele>
        <time>2020-06-22T19:00:07Z</time>
      </trkpt>
      <trkpt lat="50.85545" lon="1.59229">
        <ele>45.7</ele>
        <time>2020-06-22T19:00:08Z</time>
      </trkpt>
      <trkpt lat="50.85551" lon="1.59229">
        <ele>45.6</ele>
        <time>2020-06-22T19:00:09Z</time>
      </trkpt>
      <trkpt lat="50.85557" lon="1.5923">
        <ele>45.5</ele>
        <time>2020-06-22T19:00:10Z</time>
      </trkpt>
      <trkpt lat="50.85562" lon="1.5923">
        <ele>45.5</ele>
        <time>2020-06-22T19:00:11Z</time>
      </trkpt>
      <trkpt lat="50.85568" lon="1.59231">
        <ele>45.4</ele>
        <time>2020-06-22T19:00:12Z</time>
      </trkpt>
      <trkpt lat="50.85573" lon="1.59231">
        <ele>45.4</ele>
        <time>2020-06-22T19:00:13Z</time>
      </trkpt>
      <trkpt lat="50.85579" lon="1.59231">
        <ele>45.4</ele>
        <time>2020-06-22T19:00:14Z</time>
      </trkpt>
      <trkpt lat="50.85585" lon="1.59227">
        <ele>45.4</ele>
        <time>2020-06-22T19:00:15Z</time>
      </trkpt>
      <trkpt lat="50.85592" lon="1.59226">
        <ele>45.3</ele>
        <time>2020-06-22T19:00:16Z</time>
      </trkpt>
      <trkpt lat="50.85598" lon="1.59226">
        <ele>45.3</ele>
        <time>2020-06-22T19:00:17Z</time>
      </trkpt>
      <trkpt lat="50.85603" lon="1.59226">
        <ele>45.3</ele>
        <time>2020-06-22T19:00:18Z</time>
      </trkpt>
      <trkpt lat="50.85609" lon="1.59228">
        <ele>45.2</ele>
        <time>2020-06-22T19:00:19Z</time>
      </trkpt>
      <trkpt lat="50.85616" lon="1.59231">
        <ele>45.2</ele>
        <time>2020-06-22T19:00:20Z</time>
      </trkpt>
      <trkpt lat="50.85622" lon="1.59233">
        <ele>45.1</ele>
        <time>2020-06-22T19:00:21Z</time>
      </trkpt>
      <trkpt lat="50.85628" lon="1.59234">
        <ele>45.1</ele>
        <time>2020-06-22T19:00:22Z</time>
      </trkpt>
      <trkpt lat="50.85633" lon="1.59236">
        <ele>45</ele>
        <time>2020-06-22T19:00:23Z</time>
      </trkpt>
      <trkpt lat="50.85639" lon="1.59236">
        <ele>45</ele>
        <time>2020-06-22T19:00:24Z</time>
      </trkpt>
      <trkpt lat="50.85644" lon="1.59238">
        <ele>45</ele>
        <time>2020-06-22T19:00:25Z</time>
      </trkpt>
      <trkpt lat="50.8565" lon="1.59239">
        <ele>44.9</ele>
        <time>2020-06-22T19:00:26Z</time>
      </trkpt>
      <trkpt lat="50.85654" lon="1.59241">
        <ele>44.9</ele>
        <time>2020-06-22T19:00:27Z</time>
      </trkpt>
      <trkpt lat="50.8566" lon="1.59242">
        <ele>44.8</ele>
        <time>2020-06-22T19:00:28Z</time>
      </trkpt>
      <trkpt lat="50.85665" lon="1.59243">
        <ele>44.8</ele>
        <time>2020-06-22T19:00:29Z</time>
      </trkpt>
      <trkpt lat="50.85671" lon="1.59244">
        <ele>44.7</ele>
        <time>2020-06-22T19:00:30Z</time>
      </trkpt>
      <trkpt lat="50.85676" lon="1.59244">
        <ele>44.7</ele>
        <time>2020-06-22T19:00:31Z</time>
      </trkpt>
      <trkpt lat="50.8568" lon="1.59244">
        <ele>44.7</ele>
        <time>2020-06-22T19:00:32Z</time>
      </trkpt>
      <trkpt lat="50.85685" lon="1.59244">
        <ele>44.7</ele>
        <time>2020-06-22T19:00:33Z</time>
      </trkpt>
      <trkpt lat="50.85691" lon="1.59244">
        <ele>44.8</ele>
        <time>2020-06-22T19:00:34Z</time>
      </trkpt>
      <trkpt lat="50.85696" lon="1.59244">
        <ele>44.8</ele>
        <time>2020-06-22T19:00:35Z</time>
      </trkpt>
      <trkpt lat="50.85702" lon="1.59244">
        <ele>44.8</ele>
        <time>2020-06-22T19:00:36Z</time>
      </trkpt>
      <trkpt lat="50.85707" lon="1.59244">
        <ele>44.8</ele>
        <time>2020-06-22T19:00:37Z</time>
      </trkpt>
      <trkpt lat="50.85713" lon="1.59245">
        <ele>44.8</ele>
        <time>2020-06-22T19:00:38Z</time>
      </trkpt>
      <trkpt lat="50.85718" lon="1.59245">
        <ele>44.8</ele>
        <time>2020-06-22T19:00:39Z</time>
      </trkpt>
      <trkpt lat="50.85724" lon="1.59244">
        <ele>44.8</ele>
        <time>2020-06-22T19:00:40Z</time>
      </trkpt>
      <trkpt lat="50.8573" lon="1.59245">
        <ele>44.9</ele>
        <time>2020-06-22T19:00:41Z</time>
      </trkpt>
      <trkpt lat="50.85736" lon="1.59245">
        <ele>45</ele>
        <time>2020-06-22T19:00:42Z</time>
      </trkpt>
      <trkpt lat="50.85741" lon="1.59244">
        <ele>45</ele>
        <time>2020-06-22T19:00:43Z</time>
      </trkpt>
      <trkpt lat="50.85748" lon="1.59244">
        <ele>45.1</ele>
        <time>2020-06-22T19:00:44Z</time>
      </trkpt>
      <trkpt lat="50.85753" lon="1.59244">
        <ele>45.1</ele>
        <time>2020-06-22T19:00:45Z</time>
      </trkpt>
      <trkpt lat="50.85758" lon="1.59243">
        <ele>45.1</ele>
        <time>2020-06-22T19:00:46Z</time>
      </trkpt>
      <trkpt lat="50.85764" lon="1.59242">
        <ele>45.2</ele>
        <time>2020-06-22T19:00:47Z</time>
      </trkpt>
      <trkpt lat="50.85769" lon="1.59241">
        <ele>45.3</ele>
        <time>2020-06-22T19:00:48Z</time>
      </trkpt>
      <trkpt lat="50.85775" lon="1.59239">
        <ele>45.4</ele>
        <time>2020-06-22T19:00:49Z</time>
      </trkpt>
      <trkpt lat="50.8578" lon="1.59238">
        <ele>45.6</ele>
        <time>2020-06-22T19:00:50Z</time>
      </trkpt>
      <trkpt lat="50.85785" lon="1.59236">
        <ele>45.7</ele>
        <time>2020-06-22T19:00:51Z</time>
      </trkpt>
      <trkpt lat="50.85788" lon="1.59234">
        <ele>45.8</ele>
        <time>2020-06-22T19:00:52Z</time>
      </trkpt>
      <trkpt lat="50.85792" lon="1.59234">
        <ele>45.8</ele>
        <time>2020-06-22T19:00:53Z</time>
      </trkpt>
      <trkpt lat="50.85796" lon="1.59233">
        <ele>45.8</ele>
        <time>2020-06-22T19:00:54Z</time>
      </trkpt>
      <trkpt lat="50.858" lon="1.59231">
        <ele>45.9</ele>
        <time>2020-06-22T19:00:55Z</time>
      </trkpt>
      <trkpt lat="50.85803" lon="1.5923">
        <ele>45.9</ele>
        <time>2020-06-22T19:00:56Z</time>
      </trkpt>
      <trkpt lat="50.85807" lon="1.5923">
        <ele>46</ele>
        <time>2020-06-22T19:00:57Z</time>
      </trkpt>
      <trkpt lat="50.85811" lon="1.5923">
        <ele>46</ele>
        <time>2020-06-22T19:00:58Z</time>
      </trkpt>
      <trkpt lat="50.85814" lon="1.59229">
        <ele>46</ele>
        <time>2020-06-22T19:00:59Z</time>
      </trkpt>
      <trkpt lat="50.85818" lon="1.59229">
        <ele>46.1</ele>
        <time>2020-06-22T19:01:00Z</time>
      </trkpt>
      <trkpt lat="50.8582" lon="1.59226">
        <ele>46.2</ele>
        <time>2020-06-22T19:01:01Z</time>
      </trkpt>
      <trkpt lat="50.85823" lon="1.59225">
        <ele>46.2</ele>
        <time>2020-06-22T19:01:02Z</time>
      </trkpt>
      <trkpt lat="50.85826" lon="1.59226">
        <ele>46.3</ele>
        <time>2020-06-22T19:01:03Z</time>
      </trkpt>
      <trkpt lat="50.8583" lon="1.59226">
        <ele>46.4</ele>
        <time>2020-06-22T19:01:04Z</time>
      </trkpt>
      <trkpt lat="50.85831" lon="1.59226">
        <ele>46.5</ele>
        <time>2020-06-22T19:01:05Z</time>
      </trkpt>
      <trkpt lat="50.85835" lon="1.59226">
        <ele>46.6</ele>
        <time>2020-06-22T19:01:06Z</time>
      </trkpt>
      <trkpt lat="50.85837" lon="1.59226">
        <ele>46.6</ele>
        <time>2020-06-22T19:01:07Z</time>
      </trkpt>
      <trkpt lat="50.8584" lon="1.59226">
        <ele>46.7</ele>
        <time>2020-06-22T19:01:08Z</time>
      </trkpt>
      <trkpt lat="50.85842" lon="1.59225">
        <ele>46.8</ele>
        <time>2020-06-22T19:01:09Z</time>
      </trkpt>
      <trkpt lat="50.85846" lon="1.59224">
        <ele>46.9</ele>
        <time>2020-06-22T19:01:10Z</time>
      </trkpt>
      <trkpt lat="50.85847" lon="1.59223">
        <ele>47</ele>
        <time>2020-06-22T19:01:11Z</time>
      </trkpt>
      <trkpt lat="50.85851" lon="1.59222">
        <ele>47.1</ele>
        <time>2020-06-22T19:01:12Z</time>
      </trkpt>
      <trkpt lat="50.85855" lon="1.59222">
        <ele>47.2</ele>
        <time>2020-06-22T19:01:13Z</time>
      </trkpt>
      <trkpt lat="50.85859" lon="1.5922">
        <ele>47.4</ele>
        <time>2020-06-22T19:01:14Z</time>
      </trkpt>
      <trkpt lat="50.85864" lon="1.59219">
        <ele>47.5</ele>
        <time>2020-06-22T19:01:15Z</time>
      </trkpt>
      <trkpt lat="50.85869" lon="1.5922">
        <ele>47.7</ele>
        <time>2020-06-22T19:01:16Z</time>
      </trkpt>
      <trkpt lat="50.85873" lon="1.5922">
        <ele>47.8</ele>
        <time>2020-06-22T19:01:17Z</time>
      </trkpt>
      <trkpt lat="50.85878" lon="1.5922">
        <ele>47.9</ele>
        <time>2020-06-22T19:01:18Z</time>
      </trkpt>
      <trkpt lat="50.85883" lon="1.59221">
        <ele>48.2</ele>
        <time>2020-06-22T19:01:19Z</time>
      </trkpt>
      <trkpt lat="50.85888" lon="1.5922">
        <ele>48.3</ele>
        <time>2020-06-22T19:01:20Z</time>
      </trkpt>
      <trkpt lat="50.85894" lon="1.5922">
        <ele>48.4</ele>
        <time>2020-06-22T19:01:21Z</time>
      </trkpt>
      <trkpt lat="50.85899" lon="1.5922">
        <ele>48.6</ele>
        <time>2020-06-22T19:01:22Z</time>
      </trkpt>
      <trkpt lat="50.85903" lon="1.5922">
        <ele>48.7</ele>
        <time>2020-06-22T19:01:23Z</time>
      </trkpt>
      <trkpt lat="50.85909" lon="1.5922">
        <ele>48.9</ele>
        <time>2020-06-22T19:01:24Z</time>
      </trkpt>
      <trkpt lat="50.85913" lon="1.59221">
        <ele>49</ele>
        <time>2020-06-22T19:01:25Z</time>
      </trkpt>
      <trkpt lat="50.85918" lon="1.59221">
        <ele>49.1</ele>
        <time>2020-06-22T19:01:26Z</time>
      </trkpt>
      <trkpt lat="50.85923" lon="1.59221">
        <ele>49.3</ele>
        <time>2020-06-22T19:01:27Z</time>
      </trkpt>
      <trkpt lat="50.85928" lon="1.5922">
        <ele>49.5</ele>
        <time>2020-06-22T19:01:28Z</time>
      </trkpt>
      <trkpt lat="50.85933" lon="1.5922">
        <ele>49.6</ele>
        <time>2020-06-22T19:01:29Z</time>
      </trkpt>
      <trkpt lat="50.85938" lon="1.5922">
        <ele>49.7</ele>
        <time>2020-06-22T19:01:30Z</time>
      </trkpt>
      <trkpt lat="50.85944" lon="1.59221">
        <ele>49.9</ele>
        <time>2020-06-22T19:01:31Z</time>
      </trkpt>
      <trkpt lat="50.85949" lon="1.59221">
        <ele>50</ele>
        <time>2020-06-22T19:01:32Z</time>
      </trkpt>
      <trkpt lat="50.85954" lon="1.59221">
        <ele>50.1</ele>
        <time>2020-06-22T19:01:33Z</time>
      </trkpt>
      <trkpt lat="50.85959" lon="1.59221">
        <ele>50.2</ele>
        <time>2020-06-22T19:01:34Z</time>
      </trkpt>
      <trkpt lat="50.85964" lon="1.59221">
        <ele>50.4</ele>
        <time>2020-06-22T19:01:35Z</time>
      </trkpt>
      <trkpt lat="50.85969" lon="1.59221">
        <ele>50.5</ele>
        <time>2020-06-22T19:01:36Z</time>
      </trkpt>
      <trkpt lat="50.85974" lon="1.59221">
        <ele>50.6</ele>
        <time>2020-06-22T19:01:37Z</time>
      </trkpt>
      <trkpt lat="50.85979" lon="1.59222">
        <ele>50.6</ele>
        <time>2020-06-22T19:01:38Z</time>
      </trkpt>
      <trkpt lat="50.85984" lon="1.59222">
        <ele>50.7</ele>
        <time>2020-06-22T19:01:39Z</time>
      </trkpt>
      <trkpt lat="50.85987" lon="1.59221">
        <ele>50.8</ele>
        <time>2020-06-22T19:01:40Z</time>
      </trkpt>
      <trkpt lat="50.85992" lon="1.5922">
        <ele>50.9</ele>
        <time>2020-06-22T19:01:41Z</time>
      </trkpt>
      <trkpt lat="50.85997" lon="1.5922">
        <ele>51</ele>
        <time>2020-06-22T19:01:42Z</time>
      </trkpt>
      <trkpt lat="50.86002" lon="1.59221">
        <ele>51.1</ele>
        <time>2020-06-22T19:01:43Z</time>
      </trkpt>
      <trkpt lat="50.86007" lon="1.59221">
        <ele>51.2</ele>
        <time>2020-06-22T19:01:44Z</time>
      </trkpt>
      <trkpt lat="50.86011" lon="1.59222">
        <ele>51.3</ele>
        <time>2020-06-22T19:01:45Z</time>
      </trkpt>
      <trkpt lat="50.86016" lon="1.59224">
        <ele>51.4</ele>
        <time>2020-06-22T19:01:46Z</time>
      </trkpt>
      <trkpt lat="50.86021" lon="1.59225">
        <ele>51.5</ele>
        <time>2020-06-22T19:01:47Z</time>
      </trkpt>
      <trkpt lat="50.86026" lon="1.59225">
        <ele>51.5</ele>
        <time>2020-06-22T19:01:48Z</time>
      </trkpt>
      <trkpt lat="50.86031" lon="1.59225">
        <ele>51.6</ele>
        <time>2020-06-22T19:01:49Z</time>
      </trkpt>
      <trkpt lat="50.86036" lon="1.59224">
        <ele>51.7</ele>
        <time>2020-06-22T19:01:50Z</time>
      </trkpt>
      <trkpt lat="50.8604" lon="1.59224">
        <ele>51.7</ele>
        <time>2020-06-22T19:01:51Z</time>
      </trkpt>
      <trkpt lat="50.86045" lon="1.59224">
        <ele>51.7</ele>
        <time>2020-06-22T19:01:52Z</time>
      </trkpt>
      <trkpt lat="50.86048" lon="1.59224">
        <ele>51.8</ele>
        <time>2020-06-22T19:01:53Z</time>
      </trkpt>
      <trkpt lat="50.86052" lon="1.59224">
        <ele>51.8</ele>
        <time>2020-06-22T19:01:54Z</time>
      </trkpt>
      <trkpt lat="50.86056" lon="1.59223">
        <ele>51.8</ele>
        <time>2020-06-22T19:01:55Z</time>
      </trkpt>
      <trkpt lat="50.86061" lon="1.59223">
        <ele>51.9</ele>
        <time>2020-06-22T19:01:56Z</time>
      </trkpt>
      <trkpt lat="50.86065" lon="1.59222">
        <ele>51.9</ele>
        <time>2020-06-22T19:01:57Z</time>
      </trkpt>
      <trkpt lat="50.86069" lon="1.59221">
        <ele>51.9</ele>
        <time>2020-06-22T19:01:58Z</time>
      </trkpt>
      <trkpt lat="50.86073" lon="1.5922">
        <ele>51.9</ele>
        <time>2020-06-22T19:01:59Z</time>
      </trkpt>
      <trkpt lat="50.86077" lon="1.59221">
        <ele>51.9</ele>
        <time>2020-06-22T19:02:00Z</time>
      </trkpt>
      <trkpt lat="50.86081" lon="1.59221">
        <ele>52</ele>
        <time>2020-06-22T19:02:01Z</time>
      </trkpt>
      <trkpt lat="50.86085" lon="1.59222">
        <ele>52</ele>
        <time>2020-06-22T19:02:02Z</time>
      </trkpt>
      <trkpt lat="50.86089" lon="1.59222">
        <ele>52</ele>
        <time>2020-06-22T19:02:03Z</time>
      </trkpt>
      <trkpt lat="50.86093" lon="1.59223">
        <ele>52</ele>
        <time>2020-06-22T19:02:04Z</time>
      </trkpt>
      <trkpt lat="50.86097" lon="1.59222">
        <ele>52</ele>
        <time>2020-06-22T19:02:05Z</time>
      </trkpt>
      <trkpt lat="50.86102" lon="1.59221">
        <ele>52</ele>
        <time>2020-06-22T19:02:06Z</time>
      </trkpt>
      <trkpt lat="50.86106" lon="1.5922">
        <ele>52</ele>
        <time>2020-06-22T19:02:07Z</time>
      </trkpt>
      <trkpt lat="50.8611" lon="1.59219">
        <ele>52</ele>
        <time>2020-06-22T19:02:08Z</time>
      </trkpt>
      <trkpt lat="50.86115" lon="1.59218">
        <ele>52</ele>
        <time>2020-06-22T19:02:09Z</time>
      </trkpt>
      <trkpt lat="50.86119" lon="1.59217">
        <ele>51.9</ele>
        <time>2020-06-22T19:02:10Z</time>
      </trkpt>
      <trkpt lat="50.86124" lon="1.59215">
        <ele>51.8</ele>
        <time>2020-06-22T19:02:11Z</time>
      </trkpt>
      <trkpt lat="50.86129" lon="1.59213">
        <ele>51.8</ele>
        <time>2020-06-22T19:02:12Z</time>
      </trkpt>
      <trkpt lat="50.86133" lon="1.5921">
        <ele>51.7</ele>
        <time>2020-06-22T19:02:13Z</time>
      </trkpt>
      <trkpt lat="50.86137" lon="1.59207">
        <ele>51.6</ele>
        <time>2020-06-22T19:02:14Z</time>
      </trkpt>
      <trkpt lat="50.86142" lon="1.59203">
        <ele>51.4</ele>
        <time>2020-06-22T19:02:15Z</time>
      </trkpt>
      <trkpt lat="50.86146" lon="1.592">
        <ele>51.3</ele>
        <time>2020-06-22T19:02:16Z</time>
      </trkpt>
      <trkpt lat="50.86151" lon="1.59198">
        <ele>51.1</ele>
        <time>2020-06-22T19:02:17Z</time>
      </trkpt>
      <trkpt lat="50.86155" lon="1.59196">
        <ele>50.9</ele>
        <time>2020-06-22T19:02:18Z</time>
      </trkpt>
      <trkpt lat="50.86161" lon="1.59191">
        <ele>50.6</ele>
        <time>2020-06-22T19:02:19Z</time>
      </trkpt>
      <trkpt lat="50.86166" lon="1.59187">
        <ele>50.4</ele>
        <time>2020-06-22T19:02:20Z</time>
      </trkpt>
      <trkpt lat="50.86171" lon="1.59183">
        <ele>50.1</ele>
        <time>2020-06-22T19:02:21Z</time>
      </trkpt>
      <trkpt lat="50.86176" lon="1.5918">
        <ele>49.8</ele>
        <time>2020-06-22T19:02:22Z</time>
      </trkpt>
      <trkpt lat="50.86181" lon="1.59175">
        <ele>49.5</ele>
        <time>2020-06-22T19:02:23Z</time>
      </trkpt>
      <trkpt lat="50.86187" lon="1.59173">
        <ele>49.2</ele>
        <time>2020-06-22T19:02:24Z</time>
      </trkpt>
      <trkpt lat="50.86193" lon="1.59171">
        <ele>48.8</ele>
        <time>2020-06-22T19:02:25Z</time>
      </trkpt>
      <trkpt lat="50.86199" lon="1.59168">
        <ele>48.5</ele>
        <time>2020-06-22T19:02:26Z</time>
      </trkpt>
      <trkpt lat="50.86205" lon="1.59166">
        <ele>48.1</ele>
        <time>2020-06-22T19:02:27Z</time>
      </trkpt>
      <trkpt lat="50.86212" lon="1.59164">
        <ele>47.6</ele>
        <time>2020-06-22T19:02:28Z</time>
      </trkpt>
      <trkpt lat="50.8622" lon="1.59162">
        <ele>47.2</ele>
        <time>2020-06-22T19:02:29Z</time>
      </trkpt>
      <trkpt lat="50.8623" lon="1.59158">
        <ele>46.5</ele>
        <time>2020-06-22T19:02:30Z</time>
      </trkpt>
      <trkpt lat="50.86233" lon="1.59157">
        <ele>46.3</ele>
        <time>2020-06-22T19:02:31Z</time>
      </trkpt>
      <trkpt lat="50.86239" lon="1.59156">
        <ele>46</ele>
        <time>2020-06-22T19:02:32Z</time>
      </trkpt>
      <trkpt lat="50.86246" lon="1.59154">
        <ele>45.6</ele>
        <time>2020-06-22T19:02:33Z</time>
      </trkpt>
      <trkpt lat="50.86252" lon="1.59153">
        <ele>45.3</ele>
        <time>2020-06-22T19:02:34Z</time>
      </trkpt>
      <trkpt lat="50.86259" lon="1.59151">
        <ele>44.9</ele>
        <time>2020-06-22T19:02:35Z</time>
      </trkpt>
      <trkpt lat="50.86265" lon="1.5915">
        <ele>44.6</ele>
        <time>2020-06-22T19:02:36Z</time>
      </trkpt>
      <trkpt lat="50.86271" lon="1.59149">
        <ele>44.2</ele>
        <time>2020-06-22T19:02:37Z</time>
      </trkpt>
      <trkpt lat="50.8628" lon="1.5915">
        <ele>43.8</ele>
        <time>2020-06-22T19:02:38Z</time>
      </trkpt>
      <trkpt lat="50.86283" lon="1.59151">
        <ele>43.6</ele>
        <time>2020-06-22T19:02:39Z</time>
      </trkpt>
      <trkpt lat="50.86289" lon="1.59154">
        <ele>43.3</ele>
        <time>2020-06-22T19:02:40Z</time>
      </trkpt>
      <trkpt lat="50.86296" lon="1.59158">
        <ele>42.9</ele>
        <time>2020-06-22T19:02:41Z</time>
      </trkpt>
      <trkpt lat="50.86304" lon="1.59163">
        <ele>42.5</ele>
        <time>2020-06-22T19:02:42Z</time>
      </trkpt>
      <trkpt lat="50.8631" lon="1.59167">
        <ele>42.1</ele>
        <time>2020-06-22T19:02:43Z</time>
      </trkpt>
      <trkpt lat="50.86316" lon="1.59171">
        <ele>41.7</ele>
        <time>2020-06-22T19:02:44Z</time>
      </trkpt>
      <trkpt lat="50.86322" lon="1.59175">
        <ele>41.4</ele>
        <time>2020-06-22T19:02:45Z</time>
      </trkpt>
      <trkpt lat="50.86328" lon="1.59179">
        <ele>40.9</ele>
        <time>2020-06-22T19:02:46Z</time>
      </trkpt>
      <trkpt lat="50.86334" lon="1.59182">
        <ele>40.5</ele>
        <time>2020-06-22T19:02:47Z</time>
      </trkpt>
      <trkpt lat="50.86342" lon="1.59185">
        <ele>40.1</ele>
        <time>2020-06-22T19:02:48Z</time>
      </trkpt>
      <trkpt lat="50.8635" lon="1.59185">
        <ele>39.6</ele>
        <time>2020-06-22T19:02:49Z</time>
      </trkpt>
      <trkpt lat="50.86357" lon="1.59185">
        <ele>39.3</ele>
        <time>2020-06-22T19:02:50Z</time>
      </trkpt>
      <trkpt lat="50.86365" lon="1.59184">
        <ele>39.1</ele>
        <time>2020-06-22T19:02:51Z</time>
      </trkpt>
      <trkpt lat="50.86372" lon="1.59178">
        <ele>38.8</ele>
        <time>2020-06-22T19:02:52Z</time>
      </trkpt>
      <trkpt lat="50.8638" lon="1.59172">
        <ele>38.5</ele>
        <time>2020-06-22T19:02:53Z</time>
      </trkpt>
      <trkpt lat="50.86391" lon="1.59175">
        <ele>38.1</ele>
        <time>2020-06-22T19:02:54Z</time>
      </trkpt>
      <trkpt lat="50.86396" lon="1.59167">
        <ele>37.9</ele>
        <time>2020-06-22T19:02:55Z</time>
      </trkpt>
      <trkpt lat="50.86401" lon="1.59156">
        <ele>37.6</ele>
        <time>2020-06-22T19:02:56Z</time>
      </trkpt>
      <trkpt lat="50.86401" lon="1.59147">
        <ele>37.4</ele>
        <time>2020-06-22T19:02:57Z</time>
      </trkpt>
      <trkpt lat="50.86403" lon="1.59135">
        <ele>37.2</ele>
        <time>2020-06-22T19:02:58Z</time>
      </trkpt>
      <trkpt lat="50.86406" lon="1.59124">
        <ele>37.1</ele>
        <time>2020-06-22T19:02:59Z</time>
      </trkpt>
      <trkpt lat="50.86409" lon="1.59112">
        <ele>36.9</ele>
        <time>2020-06-22T19:03:00Z</time>
      </trkpt>
      <trkpt lat="50.86412" lon="1.59098">
        <ele>37.1</ele>
        <time>2020-06-22T19:03:01Z</time>
      </trkpt>
      <trkpt lat="50.86415" lon="1.59087">
        <ele>37.2</ele>
        <time>2020-06-22T19:03:02Z</time>
      </trkpt>
      <trkpt lat="50.86418" lon="1.59076">
        <ele>37.4</ele>
        <time>2020-06-22T19:03:03Z</time>
      </trkpt>
      <trkpt lat="50.86421" lon="1.59067">
        <ele>37.7</ele>
        <time>2020-06-22T19:03:04Z</time>
      </trkpt>
      <trkpt lat="50.86423" lon="1.59057">
        <ele>37.9</ele>
        <time>2020-06-22T19:03:05Z</time>
      </trkpt>
      <trkpt lat="50.86425" lon="1.59049">
        <ele>38.2</ele>
        <time>2020-06-22T19:03:06Z</time>
      </trkpt>
      <trkpt lat="50.86428" lon="1.59043">
        <ele>38.4</ele>
        <time>2020-06-22T19:03:07Z</time>
      </trkpt>
      <trkpt lat="50.86431" lon="1.59038">
        <ele>38.5</ele>
        <time>2020-06-22T19:03:08Z</time>
      </trkpt>
      <trkpt lat="50.86435" lon="1.59036">
        <ele>38.6</ele>
        <time>2020-06-22T19:03:09Z</time>
      </trkpt>
      <trkpt lat="50.8644" lon="1.59035">
        <ele>38.8</ele>
        <time>2020-06-22T19:03:10Z</time>
      </trkpt>
      <trkpt lat="50.86445" lon="1.59033">
        <ele>39.1</ele>
        <time>2020-06-22T19:03:11Z</time>
      </trkpt>
      <trkpt lat="50.86449" lon="1.59031">
        <ele>39.3</ele>
        <time>2020-06-22T19:03:12Z</time>
      </trkpt>
      <trkpt lat="50.86453" lon="1.5903">
        <ele>39.6</ele>
        <time>2020-06-22T19:03:13Z</time>
      </trkpt>
      <trkpt lat="50.86457" lon="1.59031">
        <ele>39.8</ele>
        <time>2020-06-22T19:03:14Z</time>
      </trkpt>
      <trkpt lat="50.86461" lon="1.59032">
        <ele>40</ele>
        <time>2020-06-22T19:03:15Z</time>
      </trkpt>
      <trkpt lat="50.86464" lon="1.59032">
        <ele>40.2</ele>
        <time>2020-06-22T19:03:16Z</time>
      </trkpt>
      <trkpt lat="50.86469" lon="1.59032">
        <ele>40.5</ele>
        <time>2020-06-22T19:03:17Z</time>
      </trkpt>
      <trkpt lat="50.86473" lon="1.59034">
        <ele>40.7</ele>
        <time>2020-06-22T19:03:18Z</time>
      </trkpt>
      <trkpt lat="50.86476" lon="1.59035">
        <ele>40.9</ele>
        <time>2020-06-22T19:03:19Z</time>
      </trkpt>
      <trkpt lat="50.8648" lon="1.59035">
        <ele>41.1</ele>
        <time>2020-06-22T19:03:20Z</time>
      </trkpt>
      <trkpt lat="50.86483" lon="1.59036">
        <ele>41.2</ele>
        <time>2020-06-22T19:03:21Z</time>
      </trkpt>
      <trkpt lat="50.86486" lon="1.59036">
        <ele>41.4</ele>
        <time>2020-06-22T19:03:22Z</time>
      </trkpt>
      <trkpt lat="50.8649" lon="1.59034">
        <ele>41.5</ele>
        <time>2020-06-22T19:03:23Z</time>
      </trkpt>
      <trkpt lat="50.86493" lon="1.59032">
        <ele>41.7</ele>
        <time>2020-06-22T19:03:24Z</time>
      </trkpt>
      <trkpt lat="50.86497" lon="1.59031">
        <ele>41.8</ele>
        <time>2020-06-22T19:03:25Z</time>
      </trkpt>
      <trkpt lat="50.865" lon="1.59031">
        <ele>41.8</ele>
        <time>2020-06-22T19:03:26Z</time>
      </trkpt>
      <trkpt lat="50.86503" lon="1.59029">
        <ele>41.9</ele>
        <time>2020-06-22T19:03:27Z</time>
      </trkpt>
      <trkpt lat="50.86505" lon="1.59028">
        <ele>41.9</ele>
        <time>2020-06-22T19:03:28Z</time>
      </trkpt>
      <trkpt lat="50.86508" lon="1.59027">
        <ele>42</ele>
        <time>2020-06-22T19:03:29Z</time>
      </trkpt>
      <trkpt lat="50.86509" lon="1.59026">
        <ele>42</ele>
        <time>2020-06-22T19:03:30Z</time>
      </trkpt>
      <trkpt lat="50.86512" lon="1.59026">
        <ele>42.1</ele>
        <time>2020-06-22T19:03:31Z</time>
      </trkpt>
      <trkpt lat="50.86513" lon="1.59025">
        <ele>42.1</ele>
        <time>2020-06-22T19:03:32Z</time>
      </trkpt>
      <trkpt lat="50.86516" lon="1.59024">
        <ele>42</ele>
        <time>2020-06-22T19:03:33Z</time>
      </trkpt>
      <trkpt lat="50.86517" lon="1.59023">
        <ele>42</ele>
        <time>2020-06-22T19:03:34Z</time>
      </trkpt>
      <trkpt lat="50.86518" lon="1.59022">
        <ele>42</ele>
        <time>2020-06-22T19:03:35Z</time>
      </trkpt>
      <trkpt lat="50.86518" lon="1.59022">
        <ele>42</ele>
        <time>2020-06-22T19:03:36Z</time>
      </trkpt>
      <trkpt lat="50.8652" lon="1.59021">
        <ele>42</ele>
        <time>2020-06-22T19:03:37Z</time>
      </trkpt>
      <trkpt lat="50.86522" lon="1.59019">
        <ele>42</ele>
        <time>2020-06-22T19:03:38Z</time>
      </trkpt>
      <trkpt lat="50.86523" lon="1.59017">
        <ele>42</ele>
        <time>2020-06-22T19:03:39Z</time>
      </trkpt>
      <trkpt lat="50.86524" lon="1.59016">
        <ele>41.9</ele>
        <time>2020-06-22T19:03:40Z</time>
      </trkpt>
      <trkpt lat="50.86525" lon="1.59015">
        <ele>41.9</ele>
        <time>2020-06-22T19:03:41Z</time>
      </trkpt>
      <trkpt lat="50.86528" lon="1.59013">
        <ele>41.9</ele>
        <time>2020-06-22T19:03:42Z</time>
      </trkpt>
      <trkpt lat="50.86529" lon="1.59013">
        <ele>41.9</ele>
        <time>2020-06-22T19:03:43Z</time>
      </trkpt>
      <trkpt lat="50.86532" lon="1.59012">
        <ele>41.6</ele>
        <time>2020-06-22T19:03:44Z</time>
      </trkpt>
      <trkpt lat="50.86534" lon="1.59012">
        <ele>41.5</ele>
        <time>2020-06-22T19:03:45Z</time>
      </trkpt>
      <trkpt lat="50.86537" lon="1.5901">
        <ele>41.3</ele>
        <time>2020-06-22T19:03:46Z</time>
      </trkpt>
      <trkpt lat="50.86541" lon="1.59008">
        <ele>41.2</ele>
        <time>2020-06-22T19:03:47Z</time>
      </trkpt>
      <trkpt lat="50.86543" lon="1.59007">
        <ele>41</ele>
        <time>2020-06-22T19:03:48Z</time>
      </trkpt>
      <trkpt lat="50.86546" lon="1.59004">
        <ele>40.8</ele>
        <time>2020-06-22T19:03:49Z</time>
      </trkpt>
      <trkpt lat="50.86551" lon="1.59003">
        <ele>40.4</ele>
        <time>2020-06-22T19:03:50Z</time>
      </trkpt>
      <trkpt lat="50.86555" lon="1.59">
        <ele>40.1</ele>
        <time>2020-06-22T19:03:51Z</time>
      </trkpt>
      <trkpt lat="50.86558" lon="1.58998">
        <ele>39.9</ele>
        <time>2020-06-22T19:03:52Z</time>
      </trkpt>
      <trkpt lat="50.86563" lon="1.58995">
        <ele>39.5</ele>
        <time>2020-06-22T19:03:53Z</time>
      </trkpt>
      <trkpt lat="50.86568" lon="1.58992">
        <ele>39.1</ele>
        <time>2020-06-22T19:03:54Z</time>
      </trkpt>
      <trkpt lat="50.86574" lon="1.58989">
        <ele>38.6</ele>
        <time>2020-06-22T19:03:55Z</time>
      </trkpt>
      <trkpt lat="50.8658" lon="1.58988">
        <ele>38.1</ele>
        <time>2020-06-22T19:03:56Z</time>
      </trkpt>
      <trkpt lat="50.86586" lon="1.58985">
        <ele>37.6</ele>
        <time>2020-06-22T19:03:57Z</time>
      </trkpt>
      <trkpt lat="50.86594" lon="1.58981">
        <ele>36.9</ele>
        <time>2020-06-22T19:03:58Z</time>
      </trkpt>
      <trkpt lat="50.86601" lon="1.58977">
        <ele>36.3</ele>
        <time>2020-06-22T19:03:59Z</time>
      </trkpt>
      <trkpt lat="50.86608" lon="1.58973">
        <ele>35.5</ele>
        <time>2020-06-22T19:04:00Z</time>
      </trkpt>
      <trkpt lat="50.86616" lon="1.58969">
        <ele>34.8</ele>
        <time>2020-06-22T19:04:01Z</time>
      </trkpt>
      <trkpt lat="50.86625" lon="1.58965">
        <ele>34</ele>
        <time>2020-06-22T19:04:02Z</time>
      </trkpt>
      <trkpt lat="50.86633" lon="1.58961">
        <ele>33.3</ele>
        <time>2020-06-22T19:04:03Z</time>
      </trkpt>
      <trkpt lat="50.86642" lon="1.58956">
        <ele>32.5</ele>
        <time>2020-06-22T19:04:04Z</time>
      </trkpt>
      <trkpt lat="50.86651" lon="1.58952">
        <ele>31.5</ele>
        <time>2020-06-22T19:04:05Z</time>
      </trkpt>
      <trkpt lat="50.86661" lon="1.58947">
        <ele>30.5</ele>
        <time>2020-06-22T19:04:06Z</time>
      </trkpt>
      <trkpt lat="50.8667" lon="1.58941">
        <ele>29.5</ele>
        <time>2020-06-22T19:04:07Z</time>
      </trkpt>
      <trkpt lat="50.8668" lon="1.58936">
        <ele>28.5</ele>
        <time>2020-06-22T19:04:08Z</time>
      </trkpt>
      <trkpt lat="50.8669" lon="1.58929">
        <ele>27.6</ele>
        <time>2020-06-22T19:04:09Z</time>
      </trkpt>
      <trkpt lat="50.86699" lon="1.58919">
        <ele>26.8</ele>
        <time>2020-06-22T19:04:10Z</time>
      </trkpt>
      <trkpt lat="50.86707" lon="1.58908">
        <ele>26.2</ele>
        <time>2020-06-22T19:04:11Z</time>
      </trkpt>
      <trkpt lat="50.86715" lon="1.58894">
        <ele>25.8</ele>
        <time>2020-06-22T19:04:12Z</time>
      </trkpt>
      <trkpt lat="50.86723" lon="1.58881">
        <ele>25.7</ele>
        <time>2020-06-22T19:04:13Z</time>
      </trkpt>
      <trkpt lat="50.86731" lon="1.58868">
        <ele>25.7</ele>
        <time>2020-06-22T19:04:14Z</time>
      </trkpt>
      <trkpt lat="50.86738" lon="1.58856">
        <ele>25.8</ele>
        <time>2020-06-22T19:04:15Z</time>
      </trkpt>
      <trkpt lat="50.86745" lon="1.58844">
        <ele>25.9</ele>
        <time>2020-06-22T19:04:16Z</time>
      </trkpt>
      <trkpt lat="50.86751" lon="1.58833">
        <ele>26.3</ele>
        <time>2020-06-22T19:04:17Z</time>
      </trkpt>
      <trkpt lat="50.86758" lon="1.58823">
        <ele>26.6</ele>
        <time>2020-06-22T19:04:18Z</time>
      </trkpt>
      <trkpt lat="50.86764" lon="1.58815">
        <ele>27.1</ele>
        <time>2020-06-22T19:04:19Z</time>
      </trkpt>
      <trkpt lat="50.86769" lon="1.58806">
        <ele>27.5</ele>
        <time>2020-06-22T19:04:20Z</time>
      </trkpt>
      <trkpt lat="50.86773" lon="1.58798">
        <ele>28</ele>
        <time>2020-06-22T19:04:21Z</time>
      </trkpt>
      <trkpt lat="50.86777" lon="1.58791">
        <ele>28.5</ele>
        <time>2020-06-22T19:04:22Z</time>
      </trkpt>
      <trkpt lat="50.86781" lon="1.58784">
        <ele>29</ele>
        <time>2020-06-22T19:04:23Z</time>
      </trkpt>
      <trkpt lat="50.86784" lon="1.58777">
        <ele>29.4</ele>
        <time>2020-06-22T19:04:24Z</time>
      </trkpt>
      <trkpt lat="50.86786" lon="1.58771">
        <ele>29.8</ele>
        <time>2020-06-22T19:04:25Z</time>
      </trkpt>
      <trkpt lat="50.86789" lon="1.58766">
        <ele>30.1</ele>
        <time>2020-06-22T19:04:26Z</time>
      </trkpt>
      <trkpt lat="50.86791" lon="1.5876">
        <ele>30.4</ele>
        <time>2020-06-22T19:04:27Z</time>
      </trkpt>
      <trkpt lat="50.86793" lon="1.58754">
        <ele>30.7</ele>
        <time>2020-06-22T19:04:28Z</time>
      </trkpt>
      <trkpt lat="50.86793" lon="1.58749">
        <ele>30.9</ele>
        <time>2020-06-22T19:04:29Z</time>
      </trkpt>
      <trkpt lat="50.86792" lon="1.58743">
        <ele>31.4</ele>
        <time>2020-06-22T19:04:30Z</time>
      </trkpt>
      <trkpt lat="50.86792" lon="1.58738">
        <ele>31.6</ele>
        <time>2020-06-22T19:04:31Z</time>
      </trkpt>
      <trkpt lat="50.8679" lon="1.58733">
        <ele>31.9</ele>
        <time>2020-06-22T19:04:32Z</time>
      </trkpt>
      <trkpt lat="50.86787" lon="1.58729">
        <ele>32.1</ele>
        <time>2020-06-22T19:04:33Z</time>
      </trkpt>
      <trkpt lat="50.86783" lon="1.58726">
        <ele>32.4</ele>
        <time>2020-06-22T19:04:34Z</time>
      </trkpt>
      <trkpt lat="50.8678" lon="1.58721">
        <ele>32.7</ele>
        <time>2020-06-22T19:04:35Z</time>
      </trkpt>
      <trkpt lat="50.86777" lon="1.58716">
        <ele>33</ele>
        <time>2020-06-22T19:04:36Z</time>
      </trkpt>
      <trkpt lat="50.86774" lon="1.58712">
        <ele>33.3</ele>
        <time>2020-06-22T19:04:37Z</time>
      </trkpt>
      <trkpt lat="50.8677" lon="1.58708">
        <ele>33.5</ele>
        <time>2020-06-22T19:04:38Z</time>
      </trkpt>
      <trkpt lat="50.86767" lon="1.58703">
        <ele>33.8</ele>
        <time>2020-06-22T19:04:39Z</time>
      </trkpt>
      <trkpt lat="50.86763" lon="1.58697">
        <ele>34.2</ele>
        <time>2020-06-22T19:04:40Z</time>
      </trkpt>
      <trkpt lat="50.8676" lon="1.5869">
        <ele>34.6</ele>
        <time>2020-06-22T19:04:41Z</time>
      </trkpt>
      <trkpt lat="50.86757" lon="1.58684">
        <ele>34.9</ele>
        <time>2020-06-22T19:04:42Z</time>
      </trkpt>
      <trkpt lat="50.86755" lon="1.58677">
        <ele>35.3</ele>
        <time>2020-06-22T19:04:43Z</time>
      </trkpt>
      <trkpt lat="50.86753" lon="1.58671">
        <ele>35.6</ele>
        <time>2020-06-22T19:04:44Z</time>
      </trkpt>
      <trkpt lat="50.86751" lon="1.58665">
        <ele>35.9</ele>
        <time>2020-06-22T19:04:45Z</time>
      </trkpt>
      <trkpt lat="50.86749" lon="1.58659">
        <ele>36.3</ele>
        <time>2020-06-22T19:04:46Z</time>
      </trkpt>
      <trkpt lat="50.86747" lon="1.58654">
        <ele>36.5</ele>
        <time>2020-06-22T19:04:47Z</time>
      </trkpt>
      <trkpt lat="50.86747" lon="1.58648">
        <ele>36.8</ele>
        <time>2020-06-22T19:04:48Z</time>
      </trkpt>
      <trkpt lat="50.86747" lon="1.58644">
        <ele>37.1</ele>
        <time>2020-06-22T19:04:49Z</time>
      </trkpt>
      <trkpt lat="50.86748" lon="1.58638">
        <ele>37.4</ele>
        <time>2020-06-22T19:04:50Z</time>
      </trkpt>
      <trkpt lat="50.86751" lon="1.58633">
        <ele>37.6</ele>
        <time>2020-06-22T19:04:51Z</time>
      </trkpt>
      <trkpt lat="50.86754" lon="1.58629">
        <ele>37.9</ele>
        <time>2020-06-22T19:04:52Z</time>
      </trkpt>
      <trkpt lat="50.86756" lon="1.58627">
        <ele>38.1</ele>
        <time>2020-06-22T19:04:53Z</time>
      </trkpt>
      <trkpt lat="50.86759" lon="1.58625">
        <ele>38.3</ele>
        <time>2020-06-22T19:04:54Z</time>
      </trkpt>
      <trkpt lat="50.86761" lon="1.58623">
        <ele>38.4</ele>
        <time>2020-06-22T19:04:55Z</time>
      </trkpt>
      <trkpt lat="50.86764" lon="1.58624">
        <ele>38.7</ele>
        <time>2020-06-22T19:04:56Z</time>
      </trkpt>
      <trkpt lat="50.86768" lon="1.58623">
        <ele>38.9</ele>
        <time>2020-06-22T19:04:57Z</time>
      </trkpt>
      <trkpt lat="50.86772" lon="1.58623">
        <ele>39.2</ele>
        <time>2020-06-22T19:04:58Z</time>
      </trkpt>
      <trkpt lat="50.86774" lon="1.58624">
        <ele>39.4</ele>
        <time>2020-06-22T19:04:59Z</time>
      </trkpt>
      <trkpt lat="50.86778" lon="1.58626">
        <ele>39.7</ele>
        <time>2020-06-22T19:05:00Z</time>
      </trkpt>
      <trkpt lat="50.86782" lon="1.58627">
        <ele>40</ele>
        <time>2020-06-22T19:05:01Z</time>
      </trkpt>
      <trkpt lat="50.86785" lon="1.58629">
        <ele>40.2</ele>
        <time>2020-06-22T19:05:02Z</time>
      </trkpt>
      <trkpt lat="50.86787" lon="1.58631">
        <ele>40.4</ele>
        <time>2020-06-22T19:05:03Z</time>
      </trkpt>
      <trkpt lat="50.8679" lon="1.58636">
        <ele>40.6</ele>
        <time>2020-06-22T19:05:04Z</time>
      </trkpt>
      <trkpt lat="50.86791" lon="1.58641">
        <ele>40.9</ele>
        <time>2020-06-22T19:05:05Z</time>
      </trkpt>
      <trkpt lat="50.86793" lon="1.58646">
        <ele>41.1</ele>
        <time>2020-06-22T19:05:06Z</time>
      </trkpt>
      <trkpt lat="50.86795" lon="1.58652">
        <ele>41.4</ele>
        <time>2020-06-22T19:05:07Z</time>
      </trkpt>
      <trkpt lat="50.86798" lon="1.58656">
        <ele>41.6</ele>
        <time>2020-06-22T19:05:08Z</time>
      </trkpt>
      <trkpt lat="50.86802" lon="1.58659">
        <ele>41.9</ele>
        <time>2020-06-22T19:05:09Z</time>
      </trkpt>
      <trkpt lat="50.86804" lon="1.58662">
        <ele>42</ele>
        <time>2020-06-22T19:05:10Z</time>
      </trkpt>
      <trkpt lat="50.86807" lon="1.58665">
        <ele>42.2</ele>
        <time>2020-06-22T19:05:11Z</time>
      </trkpt>
      <trkpt lat="50.86809" lon="1.58667">
        <ele>42.4</ele>
        <time>2020-06-22T19:05:12Z</time>
      </trkpt>
      <trkpt lat="50.86813" lon="1.5867">
        <ele>42.6</ele>
        <time>2020-06-22T19:05:13Z</time>
      </trkpt>
      <trkpt lat="50.86815" lon="1.58672">
        <ele>42.7</ele>
        <time>2020-06-22T19:05:14Z</time>
      </trkpt>
      <trkpt lat="50.86819" lon="1.58674">
        <ele>42.9</ele>
        <time>2020-06-22T19:05:15Z</time>
      </trkpt>
      <trkpt lat="50.86821" lon="1.58676">
        <ele>43</ele>
        <time>2020-06-22T19:05:16Z</time>
      </trkpt>
      <trkpt lat="50.86824" lon="1.58679">
        <ele>43.2</ele>
        <time>2020-06-22T19:05:17Z</time>
      </trkpt>
      <trkpt lat="50.86827" lon="1.5868">
        <ele>43.3</ele>
        <time>2020-06-22T19:05:18Z</time>
      </trkpt>
      <trkpt lat="50.86829" lon="1.58681">
        <ele>43.3</ele>
        <time>2020-06-22T19:05:19Z</time>
      </trkpt>
      <trkpt lat="50.86833" lon="1.58683">
        <ele>43.3</ele>
        <time>2020-06-22T19:05:20Z</time>
      </trkpt>
      <trkpt lat="50.86836" lon="1.58685">
        <ele>43.4</ele>
        <time>2020-06-22T19:05:21Z</time>
      </trkpt>
      <trkpt lat="50.8684" lon="1.58686">
        <ele>43.4</ele>
        <time>2020-06-22T19:05:22Z</time>
      </trkpt>
      <trkpt lat="50.86844" lon="1.58688">
        <ele>43.5</ele>
        <time>2020-06-22T19:05:23Z</time>
      </trkpt>
      <trkpt lat="50.86848" lon="1.58691">
        <ele>43.6</ele>
        <time>2020-06-22T19:05:24Z</time>
      </trkpt>
      <trkpt lat="50.86852" lon="1.58694">
        <ele>43.6</ele>
        <time>2020-06-22T19:05:25Z</time>
      </trkpt>
      <trkpt lat="50.86854" lon="1.58695">
        <ele>43.6</ele>
        <time>2020-06-22T19:05:26Z</time>
      </trkpt>
      <trkpt lat="50.86857" lon="1.58699">
        <ele>43.6</ele>
        <time>2020-06-22T19:05:27Z</time>
      </trkpt>
      <trkpt lat="50.86861" lon="1.58702">
        <ele>43.6</ele>
        <time>2020-06-22T19:05:28Z</time>
      </trkpt>
      <trkpt lat="50.86864" lon="1.58704">
        <ele>43.6</ele>
        <time>2020-06-22T19:05:29Z</time>
      </trkpt>
      <trkpt lat="50.86867" lon="1.58706">
        <ele>43.7</ele>
        <time>2020-06-22T19:05:30Z</time>
      </trkpt>
      <trkpt lat="50.86872" lon="1.58708">
        <ele>43.6</ele>
        <time>2020-06-22T19:05:31Z</time>
      </trkpt>
      <trkpt lat="50.86875" lon="1.5871">
        <ele>43.6</ele>
        <time>2020-06-22T19:05:32Z</time>
      </trkpt>
      <trkpt lat="50.86879" lon="1.58713">
        <ele>43.6</ele>
        <time>2020-06-22T19:05:33Z</time>
      </trkpt>
      <trkpt lat="50.86883" lon="1.58717">
        <ele>43.6</ele>
        <time>2020-06-22T19:05:34Z</time>
      </trkpt>
      <trkpt lat="50.86886" lon="1.58719">
        <ele>43.5</ele>
        <time>2020-06-22T19:05:35Z</time>
      </trkpt>
      <trkpt lat="50.8689" lon="1.5872">
        <ele>43.5</ele>
        <time>2020-06-22T19:05:36Z</time>
      </trkpt>
      <trkpt lat="50.86894" lon="1.58721">
        <ele>43.5</ele>
        <time>2020-06-22T19:05:37Z</time>
      </trkpt>
      <trkpt lat="50.86896" lon="1.58721">
        <ele>43.5</ele>
        <time>2020-06-22T19:05:38Z</time>
      </trkpt>
      <trkpt lat="50.86898" lon="1.58722">
        <ele>43.4</ele>
        <time>2020-06-22T19:05:39Z</time>
      </trkpt>
      <trkpt lat="50.86899" lon="1.58721">
        <ele>43.4</ele>
        <time>2020-06-22T19:05:40Z</time>
      </trkpt>
      <trkpt lat="50.86901" lon="1.58722">
        <ele>43.4</ele>
        <time>2020-06-22T19:05:41Z</time>
      </trkpt>
      <trkpt lat="50.86902" lon="1.58721">
        <ele>43.4</ele>
        <time>2020-06-22T19:05:42Z</time>
      </trkpt>
      <trkpt lat="50.86902" lon="1.58721">
        <ele>43.4</ele>
        <time>2020-06-22T19:05:43Z</time>
      </trkpt>
      <trkpt lat="50.86902" lon="1.58721">
        <ele>43.4</ele>
        <time>2020-06-22T19:05:44Z</time>
      </trkpt>
      <trkpt lat="50.86902" lon="1.58722">
        <ele>43.4</ele>
        <time>2020-06-22T19:05:45Z</time>
      </trkpt>
      <trkpt lat="50.86903" lon="1.58721">
        <ele>43.4</ele>
        <time>2020-06-22T19:05:46Z</time>
      </trkpt>
      <trkpt lat="50.86903" lon="1.5872">
        <ele>43.4</ele>
        <time>2020-06-22T19:05:47Z</time>
      </trkpt>
      <trkpt lat="50.86903" lon="1.58721">
        <ele>43.4</ele>
        <time>2020-06-22T19:05:48Z</time>
      </trkpt>
      <trkpt lat="50.86903" lon="1.5872">
        <ele>43.4</ele>
        <time>2020-06-22T19:05:49Z</time>
      </trkpt>
      <trkpt lat="50.86903" lon="1.5872">
        <ele>43.4</ele>
        <time>2020-06-22T19:05:50Z</time>
      </trkpt>
      <trkpt lat="50.86903" lon="1.5872">
        <ele>43.4</ele>
        <time>2020-06-22T19:05:51Z</time>
      </trkpt>
      <trkpt lat="50.86903" lon="1.5872">
        <ele>43.4</ele>
        <time>2020-06-22T19:05:52Z</time>
      </trkpt>
      <trkpt lat="50.86903" lon="1.58718">
        <ele>43.4</ele>
        <time>2020-06-22T19:05:53Z</time>
      </trkpt>
      <trkpt lat="50.86903" lon="1.58717">
        <ele>43.4</ele>
        <time>2020-06-22T19:05:54Z</time>
      </trkpt>
      <trkpt lat="50.86902" lon="1.58719">
        <ele>43.3</ele>
        <time>2020-06-22T19:05:55Z</time>
      </trkpt>
      <trkpt lat="50.86902" lon="1.58719">
        <ele>43.3</ele>
        <time>2020-06-22T19:05:56Z</time>
      </trkpt>
      <trkpt lat="50.86902" lon="1.58718">
        <ele>43.3</ele>
        <time>2020-06-22T19:05:57Z</time>
      </trkpt>
      <trkpt lat="50.86902" lon="1.58717">
        <ele>43.3</ele>
        <time>2020-06-22T19:05:58Z</time>
      </trkpt>
      <trkpt lat="50.86902" lon="1.58717">
        <ele>43.3</ele>
        <time>2020-06-22T19:05:59Z</time>
      </trkpt>
      <trkpt lat="50.86907" lon="1.58722">
        <ele>43.2</ele>
        <time>2020-06-22T19:07:07Z</time>
      </trkpt>
      <trkpt lat="50.86908" lon="1.58724">
        <ele>43.2</ele>
        <time>2020-06-22T19:07:08Z</time>
      </trkpt>
      <trkpt lat="50.86909" lon="1.58725">
        <ele>43.2</ele>
        <time>2020-06-22T19:07:09Z</time>
      </trkpt>
      <trkpt lat="50.86911" lon="1.58727">
        <ele>43.2</ele>
        <time>2020-06-22T19:07:10Z</time>
      </trkpt>
      <trkpt lat="50.86911" lon="1.58728">
        <ele>43.2</ele>
        <time>2020-06-22T19:07:11Z</time>
      </trkpt>
      <trkpt lat="50.86912" lon="1.58729">
        <ele>43.1</ele>
        <time>2020-06-22T19:07:12Z</time>
      </trkpt>
      <trkpt lat="50.86915" lon="1.58731">
        <ele>43.1</ele>
        <time>2020-06-22T19:07:13Z</time>
      </trkpt>
      <trkpt lat="50.86916" lon="1.58731">
        <ele>43.1</ele>
        <time>2020-06-22T19:07:14Z</time>
      </trkpt>
      <trkpt lat="50.86919" lon="1.5873">
        <ele>43</ele>
        <time>2020-06-22T19:07:15Z</time>
      </trkpt>
      <trkpt lat="50.8692" lon="1.5873">
        <ele>43</ele>
        <time>2020-06-22T19:07:16Z</time>
      </trkpt>
      <trkpt lat="50.86922" lon="1.5873">
        <ele>43</ele>
        <time>2020-06-22T19:07:17Z</time>
      </trkpt>
      <trkpt lat="50.86923" lon="1.58729">
        <ele>43</ele>
        <time>2020-06-22T19:07:18Z</time>
      </trkpt>
      <trkpt lat="50.86924" lon="1.58728">
        <ele>43</ele>
        <time>2020-06-22T19:07:19Z</time>
      </trkpt>
      <trkpt lat="50.86926" lon="1.58729">
        <ele>42.9</ele>
        <time>2020-06-22T19:07:20Z</time>
      </trkpt>
      <trkpt lat="50.86928" lon="1.5873">
        <ele>42.9</ele>
        <time>2020-06-22T19:07:21Z</time>
      </trkpt>
      <trkpt lat="50.86929" lon="1.58732">
        <ele>42.9</ele>
        <time>2020-06-22T19:07:22Z</time>
      </trkpt>
      <trkpt lat="50.8693" lon="1.58733">
        <ele>42.9</ele>
        <time>2020-06-22T19:07:23Z</time>
      </trkpt>
      <trkpt lat="50.86931" lon="1.58733">
        <ele>42.9</ele>
        <time>2020-06-22T19:07:24Z</time>
      </trkpt>
      <trkpt lat="50.86932" lon="1.58733">
        <ele>42.9</ele>
        <time>2020-06-22T19:07:25Z</time>
      </trkpt>
      <trkpt lat="50.86933" lon="1.58733">
        <ele>42.8</ele>
        <time>2020-06-22T19:07:26Z</time>
      </trkpt>
      <trkpt lat="50.86934" lon="1.58733">
        <ele>42.8</ele>
        <time>2020-06-22T19:07:27Z</time>
      </trkpt>
      <trkpt lat="50.86936" lon="1.58732">
        <ele>42.8</ele>
        <time>2020-06-22T19:07:28Z</time>
      </trkpt>
      <trkpt lat="50.86937" lon="1.58731">
        <ele>42.8</ele>
        <time>2020-06-22T19:07:29Z</time>
      </trkpt>
      <trkpt lat="50.86939" lon="1.58731">
        <ele>42.8</ele>
        <time>2020-06-22T19:07:30Z</time>
      </trkpt>
      <trkpt lat="50.8694" lon="1.5873">
        <ele>42.7</ele>
        <time>2020-06-22T19:07:31Z</time>
      </trkpt>
      <trkpt lat="50.86941" lon="1.58729">
        <ele>42.7</ele>
        <time>2020-06-22T19:07:32Z</time>
      </trkpt>
      <trkpt lat="50.86942" lon="1.58728">
        <ele>42.7</ele>
        <time>2020-06-22T19:07:33Z</time>
      </trkpt>
      <trkpt lat="50.86943" lon="1.58728">
        <ele>42.7</ele>
        <time>2020-06-22T19:07:34Z</time>
      </trkpt>
      <trkpt lat="50.86943" lon="1.58727">
        <ele>42.7</ele>
        <time>2020-06-22T19:07:35Z</time>
      </trkpt>
      <trkpt lat="50.86944" lon="1.58727">
        <ele>42.7</ele>
        <time>2020-06-22T19:07:36Z</time>
      </trkpt>
      <trkpt lat="50.86945" lon="1.58725">
        <ele>42.7</ele>
        <time>2020-06-22T19:07:37Z</time>
      </trkpt>
      <trkpt lat="50.86946" lon="1.58724">
        <ele>42.7</ele>
        <time>2020-06-22T19:07:38Z</time>
      </trkpt>
      <trkpt lat="50.86946" lon="1.58722">
        <ele>42.6</ele>
        <time>2020-06-22T19:07:39Z</time>
      </trkpt>
      <trkpt lat="50.86946" lon="1.58721">
        <ele>42.6</ele>
        <time>2020-06-22T19:07:40Z</time>
      </trkpt>
      <trkpt lat="50.86947" lon="1.58721">
        <ele>42.6</ele>
        <time>2020-06-22T19:07:41Z</time>
      </trkpt>
      <trkpt lat="50.86948" lon="1.5872">
        <ele>42.6</ele>
        <time>2020-06-22T19:07:42Z</time>
      </trkpt>
      <trkpt lat="50.86949" lon="1.58719">
        <ele>42.6</ele>
        <time>2020-06-22T19:07:43Z</time>
      </trkpt>
      <trkpt lat="50.8695" lon="1.58717">
        <ele>42.6</ele>
        <time>2020-06-22T19:07:44Z</time>
      </trkpt>
      <trkpt lat="50.86951" lon="1.58715">
        <ele>42.6</ele>
        <time>2020-06-22T19:07:45Z</time>
      </trkpt>
      <trkpt lat="50.86951" lon="1.58714">
        <ele>42.5</ele>
        <time>2020-06-22T19:07:46Z</time>
      </trkpt>
      <trkpt lat="50.86952" lon="1.58712">
        <ele>42.5</ele>
        <time>2020-06-22T19:07:47Z</time>
      </trkpt>
      <trkpt lat="50.86953" lon="1.58711">
        <ele>42.5</ele>
        <time>2020-06-22T19:07:48Z</time>
      </trkpt>
      <trkpt lat="50.86954" lon="1.5871">
        <ele>42.5</ele>
        <time>2020-06-22T19:07:49Z</time>
      </trkpt>
      <trkpt lat="50.86955" lon="1.58707">
        <ele>42.5</ele>
        <time>2020-06-22T19:07:50Z</time>
      </trkpt>
      <trkpt lat="50.86955" lon="1.58706">
        <ele>42.5</ele>
        <time>2020-06-22T19:07:51Z</time>
      </trkpt>
      <trkpt lat="50.86956" lon="1.58704">
        <ele>42.5</ele>
        <time>2020-06-22T19:07:52Z</time>
      </trkpt>
      <trkpt lat="50.86956" lon="1.58704">
        <ele>42.5</ele>
        <time>2020-06-22T19:07:53Z</time>
      </trkpt>
      <trkpt lat="50.86957" lon="1.58701">
        <ele>42.4</ele>
        <time>2020-06-22T19:07:54Z</time>
      </trkpt>
      <trkpt lat="50.86958" lon="1.587">
        <ele>42.4</ele>
        <time>2020-06-22T19:07:55Z</time>
      </trkpt>
      <trkpt lat="50.86958" lon="1.587">
        <ele>42.4</ele>
        <time>2020-06-22T19:07:56Z</time>
      </trkpt>
      <trkpt lat="50.86958" lon="1.58701">
        <ele>42.4</ele>
        <time>2020-06-22T19:07:57Z</time>
      </trkpt>
      <trkpt lat="50.86958" lon="1.587">
        <ele>42.4</ele>
        <time>2020-06-22T19:07:58Z</time>
      </trkpt>
      <trkpt lat="50.86959" lon="1.58699">
        <ele>42.4</ele>
        <time>2020-06-22T19:07:59Z</time>
      </trkpt>
      <trkpt lat="50.86959" lon="1.58697">
        <ele>42.4</ele>
        <time>2020-06-22T19:08:00Z</time>
      </trkpt>
      <trkpt lat="50.8696" lon="1.58694">
        <ele>42.4</ele>
        <time>2020-06-22T19:08:01Z</time>
      </trkpt>
      <trkpt lat="50.86961" lon="1.58693">
        <ele>42.4</ele>
        <time>2020-06-22T19:08:02Z</time>
      </trkpt>
      <trkpt lat="50.86961" lon="1.58692">
        <ele>42.3</ele>
        <time>2020-06-22T19:08:03Z</time>
      </trkpt>
      <trkpt lat="50.86962" lon="1.5869">
        <ele>42.3</ele>
        <time>2020-06-22T19:08:04Z</time>
      </trkpt>
      <trkpt lat="50.86963" lon="1.58687">
        <ele>42.3</ele>
        <time>2020-06-22T19:08:05Z</time>
      </trkpt>
      <trkpt lat="50.86964" lon="1.58686">
        <ele>42.3</ele>
        <time>2020-06-22T19:08:06Z</time>
      </trkpt>
      <trkpt lat="50.86965" lon="1.58684">
        <ele>42.3</ele>
        <time>2020-06-22T19:08:07Z</time>
      </trkpt>
      <trkpt lat="50.86966" lon="1.58682">
        <ele>42.3</ele>
        <time>2020-06-22T19:08:08Z</time>
      </trkpt>
      <trkpt lat="50.86967" lon="1.5868">
        <ele>42.2</ele>
        <time>2020-06-22T19:08:09Z</time>
      </trkpt>
      <trkpt lat="50.86968" lon="1.58677">
        <ele>42.2</ele>
        <time>2020-06-22T19:08:10Z</time>
      </trkpt>
      <trkpt lat="50.86968" lon="1.58674">
        <ele>42.2</ele>
        <time>2020-06-22T19:08:11Z</time>
      </trkpt>
      <trkpt lat="50.86969" lon="1.58673">
        <ele>42.2</ele>
        <time>2020-06-22T19:08:12Z</time>
      </trkpt>
      <trkpt lat="50.8697" lon="1.58672">
        <ele>42.2</ele>
        <time>2020-06-22T19:08:13Z</time>
      </trkpt>
      <trkpt lat="50.86972" lon="1.5867">
        <ele>42.2</ele>
        <time>2020-06-22T19:08:14Z</time>
      </trkpt>
      <trkpt lat="50.86973" lon="1.58669">
        <ele>42.1</ele>
        <time>2020-06-22T19:08:15Z</time>
      </trkpt>
      <trkpt lat="50.86974" lon="1.58667">
        <ele>42.1</ele>
        <time>2020-06-22T19:08:16Z</time>
      </trkpt>
      <trkpt lat="50.86975" lon="1.58665">
        <ele>42.1</ele>
        <time>2020-06-22T19:08:17Z</time>
      </trkpt>
      <trkpt lat="50.86976" lon="1.58664">
        <ele>42.1</ele>
        <time>2020-06-22T19:08:18Z</time>
      </trkpt>
      <trkpt lat="50.86977" lon="1.58662">
        <ele>42.1</ele>
        <time>2020-06-22T19:08:19Z</time>
      </trkpt>
      <trkpt lat="50.86978" lon="1.5866">
        <ele>42.1</ele>
        <time>2020-06-22T19:08:20Z</time>
      </trkpt>
      <trkpt lat="50.86979" lon="1.58658">
        <ele>42.1</ele>
        <time>2020-06-22T19:08:21Z</time>
      </trkpt>
      <trkpt lat="50.86979" lon="1.58657">
        <ele>42.1</ele>
        <time>2020-06-22T19:08:22Z</time>
      </trkpt>
      <trkpt lat="50.86979" lon="1.58656">
        <ele>42.1</ele>
        <time>2020-06-22T19:08:23Z</time>
      </trkpt>
      <trkpt lat="50.8698" lon="1.58654">
        <ele>42.1</ele>
        <time>2020-06-22T19:08:24Z</time>
      </trkpt>
      <trkpt lat="50.8698" lon="1.58652">
        <ele>42.1</ele>
        <time>2020-06-22T19:08:25Z</time>
      </trkpt>
      <trkpt lat="50.8698" lon="1.58651">
        <ele>42.1</ele>
        <time>2020-06-22T19:08:26Z</time>
      </trkpt>
      <trkpt lat="50.8698" lon="1.5865">
        <ele>42.1</ele>
        <time>2020-06-22T19:08:27Z</time>
      </trkpt>
      <trkpt lat="50.8698" lon="1.58647">
        <ele>42.1</ele>
        <time>2020-06-22T19:08:28Z</time>
      </trkpt>
      <trkpt lat="50.86979" lon="1.58643">
        <ele>42.1</ele>
        <time>2020-06-22T19:08:29Z</time>
      </trkpt>
      <trkpt lat="50.86979" lon="1.58642">
        <ele>42.1</ele>
        <time>2020-06-22T19:08:30Z</time>
      </trkpt>
      <trkpt lat="50.86977" lon="1.58639">
        <ele>42.1</ele>
        <time>2020-06-22T19:08:31Z</time>
      </trkpt>
      <trkpt lat="50.86976" lon="1.58638">
        <ele>42.1</ele>
        <time>2020-06-22T19:08:32Z</time>
      </trkpt>
      <trkpt lat="50.86975" lon="1.58636">
        <ele>42.2</ele>
        <time>2020-06-22T19:08:33Z</time>
      </trkpt>
      <trkpt lat="50.86974" lon="1.58634">
        <ele>42.2</ele>
        <time>2020-06-22T19:08:34Z</time>
      </trkpt>
      <trkpt lat="50.86972" lon="1.58631">
        <ele>42.2</ele>
        <time>2020-06-22T19:08:35Z</time>
      </trkpt>
      <trkpt lat="50.86971" lon="1.58631">
        <ele>42.2</ele>
        <time>2020-06-22T19:08:36Z</time>
      </trkpt>
      <trkpt lat="50.8697" lon="1.5863">
        <ele>42.2</ele>
        <time>2020-06-22T19:08:37Z</time>
      </trkpt>
      <trkpt lat="50.86968" lon="1.5863">
        <ele>42.2</ele>
        <time>2020-06-22T19:08:38Z</time>
      </trkpt>
      <trkpt lat="50.86967" lon="1.58631">
        <ele>42.2</ele>
        <time>2020-06-22T19:08:39Z</time>
      </trkpt>
      <trkpt lat="50.86965" lon="1.58632">
        <ele>42.2</ele>
        <time>2020-06-22T19:08:40Z</time>
      </trkpt>
      <trkpt lat="50.86964" lon="1.58634">
        <ele>42.2</ele>
        <time>2020-06-22T19:08:41Z</time>
      </trkpt>
      <trkpt lat="50.86962" lon="1.58634">
        <ele>42.2</ele>
        <time>2020-06-22T19:08:42Z</time>
      </trkpt>
      <trkpt lat="50.86961" lon="1.58635">
        <ele>42.2</ele>
        <time>2020-06-22T19:08:43Z</time>
      </trkpt>
      <trkpt lat="50.8696" lon="1.58637">
        <ele>42.2</ele>
        <time>2020-06-22T19:08:44Z</time>
      </trkpt>
      <trkpt lat="50.8696" lon="1.58638">
        <ele>42.2</ele>
        <time>2020-06-22T19:08:45Z</time>
      </trkpt>
      <trkpt lat="50.86959" lon="1.58638">
        <ele>42.2</ele>
        <time>2020-06-22T19:08:46Z</time>
      </trkpt>
      <trkpt lat="50.86958" lon="1.58638">
        <ele>42.2</ele>
        <time>2020-06-22T19:08:47Z</time>
      </trkpt>
      <trkpt lat="50.86958" lon="1.58639">
        <ele>42.2</ele>
        <time>2020-06-22T19:08:48Z</time>
      </trkpt>
      <trkpt lat="50.86958" lon="1.58641">
        <ele>42.2</ele>
        <time>2020-06-22T19:08:49Z</time>
      </trkpt>
      <trkpt lat="50.86958" lon="1.58641">
        <ele>42.2</ele>
        <time>2020-06-22T19:08:50Z</time>
      </trkpt>
      <trkpt lat="50.86957" lon="1.58643">
        <ele>42.2</ele>
        <time>2020-06-22T19:08:51Z</time>
      </trkpt>
      <trkpt lat="50.86957" lon="1.58646">
        <ele>42.2</ele>
        <time>2020-06-22T19:08:52Z</time>
      </trkpt>
      <trkpt lat="50.86956" lon="1.58649">
        <ele>42.2</ele>
        <time>2020-06-22T19:08:53Z</time>
      </trkpt>
      <trkpt lat="50.86955" lon="1.5865">
        <ele>42.2</ele>
        <time>2020-06-22T19:08:54Z</time>
      </trkpt>
      <trkpt lat="50.86955" lon="1.58651">
        <ele>42.2</ele>
        <time>2020-06-22T19:08:55Z</time>
      </trkpt>
      <trkpt lat="50.86954" lon="1.58653">
        <ele>42.2</ele>
        <time>2020-06-22T19:08:56Z</time>
      </trkpt>
      <trkpt lat="50.86953" lon="1.58655">
        <ele>42.2</ele>
        <time>2020-06-22T19:08:57Z</time>
      </trkpt>
      <trkpt lat="50.86953" lon="1.58658">
        <ele>42.2</ele>
        <time>2020-06-22T19:08:58Z</time>
      </trkpt>
      <trkpt lat="50.86952" lon="1.5866">
        <ele>42.3</ele>
        <time>2020-06-22T19:08:59Z</time>
      </trkpt>
      <trkpt lat="50.86952" lon="1.58661">
        <ele>42.3</ele>
        <time>2020-06-22T19:09:00Z</time>
      </trkpt>
      <trkpt lat="50.86951" lon="1.58663">
        <ele>42.3</ele>
        <time>2020-06-22T19:09:01Z</time>
      </trkpt>
      <trkpt lat="50.86951" lon="1.58664">
        <ele>42.3</ele>
        <time>2020-06-22T19:09:02Z</time>
      </trkpt>
      <trkpt lat="50.8695" lon="1.58666">
        <ele>42.3</ele>
        <time>2020-06-22T19:09:03Z</time>
      </trkpt>
      <trkpt lat="50.8695" lon="1.58668">
        <ele>42.3</ele>
        <time>2020-06-22T19:09:04Z</time>
      </trkpt>
      <trkpt lat="50.86949" lon="1.58669">
        <ele>42.3</ele>
        <time>2020-06-22T19:09:05Z</time>
      </trkpt>
      <trkpt lat="50.86948" lon="1.5867">
        <ele>42.3</ele>
        <time>2020-06-22T19:09:06Z</time>
      </trkpt>
      <trkpt lat="50.86948" lon="1.5867">
        <ele>42.3</ele>
        <time>2020-06-22T19:09:07Z</time>
      </trkpt>
      <trkpt lat="50.86948" lon="1.58671">
        <ele>42.3</ele>
        <time>2020-06-22T19:09:08Z</time>
      </trkpt>
      <trkpt lat="50.86947" lon="1.58673">
        <ele>42.4</ele>
        <time>2020-06-22T19:09:09Z</time>
      </trkpt>
      <trkpt lat="50.86946" lon="1.58674">
        <ele>42.4</ele>
        <time>2020-06-22T19:09:10Z</time>
      </trkpt>
      <trkpt lat="50.86946" lon="1.58675">
        <ele>42.4</ele>
        <time>2020-06-22T19:09:11Z</time>
      </trkpt>
      <trkpt lat="50.86946" lon="1.58677">
        <ele>42.4</ele>
        <time>2020-06-22T19:09:12Z</time>
      </trkpt>
      <trkpt lat="50.86945" lon="1.58678">
        <ele>42.4</ele>
        <time>2020-06-22T19:09:13Z</time>
      </trkpt>
      <trkpt lat="50.86945" lon="1.58679">
        <ele>42.4</ele>
        <time>2020-06-22T19:09:14Z</time>
      </trkpt>
      <trkpt lat="50.86944" lon="1.58682">
        <ele>42.5</ele>
        <time>2020-06-22T19:09:15Z</time>
      </trkpt>
      <trkpt lat="50.86944" lon="1.58683">
        <ele>42.5</ele>
        <time>2020-06-22T19:09:16Z</time>
      </trkpt>
      <trkpt lat="50.86944" lon="1.58684">
        <ele>42.5</ele>
        <time>2020-06-22T19:09:17Z</time>
      </trkpt>
      <trkpt lat="50.86944" lon="1.58685">
        <ele>42.5</ele>
        <time>2020-06-22T19:09:18Z</time>
      </trkpt>
      <trkpt lat="50.86944" lon="1.58685">
        <ele>42.5</ele>
        <time>2020-06-22T19:09:19Z</time>
      </trkpt>
      <trkpt lat="50.86943" lon="1.58685">
        <ele>42.5</ele>
        <time>2020-06-22T19:09:20Z</time>
      </trkpt>
      <trkpt lat="50.86944" lon="1.58686">
        <ele>42.5</ele>
        <time>2020-06-22T19:09:21Z</time>
      </trkpt>
      <trkpt lat="50.86944" lon="1.58687">
        <ele>42.5</ele>
        <time>2020-06-22T19:09:22Z</time>
      </trkpt>
      <trkpt lat="50.86944" lon="1.58688">
        <ele>42.5</ele>
        <time>2020-06-22T19:09:23Z</time>
      </trkpt>
      <trkpt lat="50.86944" lon="1.58689">
        <ele>42.5</ele>
        <time>2020-06-22T19:09:24Z</time>
      </trkpt>
      <trkpt lat="50.86944" lon="1.58691">
        <ele>42.5</ele>
        <time>2020-06-22T19:09:25Z</time>
      </trkpt>
      <trkpt lat="50.86944" lon="1.58693">
        <ele>42.6</ele>
        <time>2020-06-22T19:09:26Z</time>
      </trkpt>
      <trkpt lat="50.86944" lon="1.58696">
        <ele>42.6</ele>
        <time>2020-06-22T19:09:27Z</time>
      </trkpt>
      <trkpt lat="50.86944" lon="1.58697">
        <ele>42.6</ele>
        <time>2020-06-22T19:09:28Z</time>
      </trkpt>
      <trkpt lat="50.86944" lon="1.58698">
        <ele>42.7</ele>
        <time>2020-06-22T19:09:29Z</time>
      </trkpt>
      <trkpt lat="50.86944" lon="1.58701">
        <ele>42.8</ele>
        <time>2020-06-22T19:09:30Z</time>
      </trkpt>
      <trkpt lat="50.86943" lon="1.58703">
        <ele>42.8</ele>
        <time>2020-06-22T19:09:31Z</time>
      </trkpt>
      <trkpt lat="50.86942" lon="1.58705">
        <ele>42.8</ele>
        <time>2020-06-22T19:09:32Z</time>
      </trkpt>
      <trkpt lat="50.86941" lon="1.58706">
        <ele>42.8</ele>
        <time>2020-06-22T19:09:33Z</time>
      </trkpt>
      <trkpt lat="50.86939" lon="1.58706">
        <ele>42.8</ele>
        <time>2020-06-22T19:09:34Z</time>
      </trkpt>
      <trkpt lat="50.86939" lon="1.58705">
        <ele>42.8</ele>
        <time>2020-06-22T19:09:35Z</time>
      </trkpt>
      <trkpt lat="50.86938" lon="1.58704">
        <ele>42.9</ele>
        <time>2020-06-22T19:09:36Z</time>
      </trkpt>
      <trkpt lat="50.86937" lon="1.58702">
        <ele>42.9</ele>
        <time>2020-06-22T19:09:37Z</time>
      </trkpt>
      <trkpt lat="50.86936" lon="1.58699">
        <ele>42.9</ele>
        <time>2020-06-22T19:09:38Z</time>
      </trkpt>
      <trkpt lat="50.86936" lon="1.58696">
        <ele>42.9</ele>
        <time>2020-06-22T19:09:39Z</time>
      </trkpt>
      <trkpt lat="50.86935" lon="1.58694">
        <ele>43</ele>
        <time>2020-06-22T19:09:40Z</time>
      </trkpt>
      <trkpt lat="50.86935" lon="1.58692">
        <ele>43</ele>
        <time>2020-06-22T19:09:41Z</time>
      </trkpt>
      <trkpt lat="50.86935" lon="1.58691">
        <ele>43</ele>
        <time>2020-06-22T19:09:42Z</time>
      </trkpt>
      <trkpt lat="50.86935" lon="1.58689">
        <ele>43</ele>
        <time>2020-06-22T19:09:43Z</time>
      </trkpt>
      <trkpt lat="50.86936" lon="1.58686">
        <ele>43</ele>
        <time>2020-06-22T19:09:44Z</time>
      </trkpt>
      <trkpt lat="50.86936" lon="1.58685">
        <ele>43</ele>
        <time>2020-06-22T19:09:45Z</time>
      </trkpt>
      <trkpt lat="50.86936" lon="1.58683">
        <ele>43</ele>
        <time>2020-06-22T19:09:46Z</time>
      </trkpt>
      <trkpt lat="50.86937" lon="1.58681">
        <ele>43.1</ele>
        <time>2020-06-22T19:09:47Z</time>
      </trkpt>
      <trkpt lat="50.86938" lon="1.5868">
        <ele>43.1</ele>
        <time>2020-06-22T19:09:48Z</time>
      </trkpt>
      <trkpt lat="50.86938" lon="1.58679">
        <ele>43.1</ele>
        <time>2020-06-22T19:09:49Z</time>
      </trkpt>
      <trkpt lat="50.86939" lon="1.58675">
        <ele>43.1</ele>
        <time>2020-06-22T19:09:50Z</time>
      </trkpt>
      <trkpt lat="50.8694" lon="1.58674">
        <ele>43.1</ele>
        <time>2020-06-22T19:09:51Z</time>
      </trkpt>
      <trkpt lat="50.8694" lon="1.58672">
        <ele>43.1</ele>
        <time>2020-06-22T19:09:52Z</time>
      </trkpt>
      <trkpt lat="50.8694" lon="1.58671">
        <ele>43.1</ele>
        <time>2020-06-22T19:09:53Z</time>
      </trkpt>
      <trkpt lat="50.86941" lon="1.5867">
        <ele>43.1</ele>
        <time>2020-06-22T19:09:54Z</time>
      </trkpt>
      <trkpt lat="50.86942" lon="1.5867">
        <ele>43.1</ele>
        <time>2020-06-22T19:09:55Z</time>
      </trkpt>
      <trkpt lat="50.86942" lon="1.58669">
        <ele>43.1</ele>
        <time>2020-06-22T19:09:56Z</time>
      </trkpt>
      <trkpt lat="50.86943" lon="1.58668">
        <ele>43.1</ele>
        <time>2020-06-22T19:09:57Z</time>
      </trkpt>
      <trkpt lat="50.86943" lon="1.58666">
        <ele>43.1</ele>
        <time>2020-06-22T19:09:58Z</time>
      </trkpt>
      <trkpt lat="50.86944" lon="1.58665">
        <ele>43.1</ele>
        <time>2020-06-22T19:09:59Z</time>
      </trkpt>
      <trkpt lat="50.86944" lon="1.58664">
        <ele>43.1</ele>
        <time>2020-06-22T19:10:00Z</time>
      </trkpt>
      <trkpt lat="50.86945" lon="1.58662">
        <ele>43.2</ele>
        <time>2020-06-22T19:10:01Z</time>
      </trkpt>
      <trkpt lat="50.86946" lon="1.5866">
        <ele>43.2</ele>
        <time>2020-06-22T19:10:02Z</time>
      </trkpt>
      <trkpt lat="50.86946" lon="1.58659">
        <ele>43.2</ele>
        <time>2020-06-22T19:10:03Z</time>
      </trkpt>
      <trkpt lat="50.86947" lon="1.58657">
        <ele>43.2</ele>
        <time>2020-06-22T19:10:04Z</time>
      </trkpt>
      <trkpt lat="50.86947" lon="1.58656">
        <ele>43.2</ele>
        <time>2020-06-22T19:10:05Z</time>
      </trkpt>
      <trkpt lat="50.86948" lon="1.58655">
        <ele>43.2</ele>
        <time>2020-06-22T19:10:06Z</time>
      </trkpt>
      <trkpt lat="50.86948" lon="1.58653">
        <ele>43.2</ele>
        <time>2020-06-22T19:10:07Z</time>
      </trkpt>
      <trkpt lat="50.86949" lon="1.58652">
        <ele>43.2</ele>
        <time>2020-06-22T19:10:08Z</time>
      </trkpt>
      <trkpt lat="50.8695" lon="1.5865">
        <ele>43.2</ele>
        <time>2020-06-22T19:10:09Z</time>
      </trkpt>
      <trkpt lat="50.8695" lon="1.58649">
        <ele>43.2</ele>
        <time>2020-06-22T19:10:10Z</time>
      </trkpt>
      <trkpt lat="50.86951" lon="1.58647">
        <ele>43.3</ele>
        <time>2020-06-22T19:10:11Z</time>
      </trkpt>
      <trkpt lat="50.86951" lon="1.58645">
        <ele>43.3</ele>
        <time>2020-06-22T19:10:12Z</time>
      </trkpt>
      <trkpt lat="50.86952" lon="1.58642">
        <ele>43.3</ele>
        <time>2020-06-22T19:10:13Z</time>
      </trkpt>
      <trkpt lat="50.86953" lon="1.5864">
        <ele>43.3</ele>
        <time>2020-06-22T19:10:14Z</time>
      </trkpt>
      <trkpt lat="50.86953" lon="1.5864">
        <ele>43.3</ele>
        <time>2020-06-22T19:10:15Z</time>
      </trkpt>
      <trkpt lat="50.86954" lon="1.58638">
        <ele>43.4</ele>
        <time>2020-06-22T19:10:16Z</time>
      </trkpt>
      <trkpt lat="50.86954" lon="1.58636">
        <ele>43.4</ele>
        <time>2020-06-22T19:10:17Z</time>
      </trkpt>
      <trkpt lat="50.86954" lon="1.58633">
        <ele>43.4</ele>
        <time>2020-06-22T19:10:18Z</time>
      </trkpt>
      <trkpt lat="50.86954" lon="1.58631">
        <ele>43.4</ele>
        <time>2020-06-22T19:10:19Z</time>
      </trkpt>
      <trkpt lat="50.86954" lon="1.58628">
        <ele>43.5</ele>
        <time>2020-06-22T19:10:20Z</time>
      </trkpt>
      <trkpt lat="50.86953" lon="1.58625">
        <ele>43.5</ele>
        <time>2020-06-22T19:10:21Z</time>
      </trkpt>
      <trkpt lat="50.86953" lon="1.58623">
        <ele>43.5</ele>
        <time>2020-06-22T19:10:22Z</time>
      </trkpt>
      <trkpt lat="50.86952" lon="1.58622">
        <ele>43.6</ele>
        <time>2020-06-22T19:10:23Z</time>
      </trkpt>
      <trkpt lat="50.86953" lon="1.5862">
        <ele>43.6</ele>
        <time>2020-06-22T19:10:24Z</time>
      </trkpt>
      <trkpt lat="50.86953" lon="1.58618">
        <ele>43.6</ele>
        <time>2020-06-22T19:10:25Z</time>
      </trkpt>
      <trkpt lat="50.86953" lon="1.58615">
        <ele>43.6</ele>
        <time>2020-06-22T19:10:26Z</time>
      </trkpt>
      <trkpt lat="50.86953" lon="1.58613">
        <ele>43.6</ele>
        <time>2020-06-22T19:10:27Z</time>
      </trkpt>
      <trkpt lat="50.86953" lon="1.58612">
        <ele>43.6</ele>
        <time>2020-06-22T19:10:28Z</time>
      </trkpt>
      <trkpt lat="50.86953" lon="1.5861">
        <ele>43.6</ele>
        <time>2020-06-22T19:10:29Z</time>
      </trkpt>
      <trkpt lat="50.86953" lon="1.58607">
        <ele>43.7</ele>
        <time>2020-06-22T19:10:30Z</time>
      </trkpt>
      <trkpt lat="50.86953" lon="1.58604">
        <ele>43.7</ele>
        <time>2020-06-22T19:10:31Z</time>
      </trkpt>
      <trkpt lat="50.86953" lon="1.58602">
        <ele>43.7</ele>
        <time>2020-06-22T19:10:32Z</time>
      </trkpt>
      <trkpt lat="50.86953" lon="1.58601">
        <ele>43.7</ele>
        <time>2020-06-22T19:10:33Z</time>
      </trkpt>
      <trkpt lat="50.86953" lon="1.58599">
        <ele>43.7</ele>
        <time>2020-06-22T19:10:34Z</time>
      </trkpt>
      <trkpt lat="50.86953" lon="1.58598">
        <ele>43.7</ele>
        <time>2020-06-22T19:10:35Z</time>
      </trkpt>
      <trkpt lat="50.86954" lon="1.58598">
        <ele>43.7</ele>
        <time>2020-06-22T19:10:36Z</time>
      </trkpt>
      <trkpt lat="50.86954" lon="1.58598">
        <ele>43.7</ele>
        <time>2020-06-22T19:10:37Z</time>
      </trkpt>
      <trkpt lat="50.86955" lon="1.58598">
        <ele>43.7</ele>
        <time>2020-06-22T19:10:38Z</time>
      </trkpt>
      <trkpt lat="50.86955" lon="1.58598">
        <ele>43.7</ele>
        <time>2020-06-22T19:10:39Z</time>
      </trkpt>
      <trkpt lat="50.86955" lon="1.58598">
        <ele>43.7</ele>
        <time>2020-06-22T19:10:40Z</time>
      </trkpt>
      <trkpt lat="50.86955" lon="1.58598">
        <ele>43.7</ele>
        <time>2020-06-22T19:10:41Z</time>
      </trkpt>
      <trkpt lat="50.86955" lon="1.58598">
        <ele>43.7</ele>
        <time>2020-06-22T19:10:42Z</time>
      </trkpt>
      <trkpt lat="50.86956" lon="1.58597">
        <ele>43.7</ele>
        <time>2020-06-22T19:10:43Z</time>
      </trkpt>
      <trkpt lat="50.86957" lon="1.58595">
        <ele>43.7</ele>
        <time>2020-06-22T19:10:44Z</time>
      </trkpt>
      <trkpt lat="50.86957" lon="1.58593">
        <ele>43.7</ele>
        <time>2020-06-22T19:10:45Z</time>
      </trkpt>
      <trkpt lat="50.86957" lon="1.58592">
        <ele>43.7</ele>
        <time>2020-06-22T19:10:46Z</time>
      </trkpt>
      <trkpt lat="50.86958" lon="1.5859">
        <ele>43.7</ele>
        <time>2020-06-22T19:10:47Z</time>
      </trkpt>
      <trkpt lat="50.86959" lon="1.58588">
        <ele>43.7</ele>
        <time>2020-06-22T19:10:48Z</time>
      </trkpt>
      <trkpt lat="50.86959" lon="1.58587">
        <ele>43.7</ele>
        <time>2020-06-22T19:10:49Z</time>
      </trkpt>
      <trkpt lat="50.86958" lon="1.58584">
        <ele>43.7</ele>
        <time>2020-06-22T19:10:50Z</time>
      </trkpt>
      <trkpt lat="50.86958" lon="1.58583">
        <ele>43.7</ele>
        <time>2020-06-22T19:10:51Z</time>
      </trkpt>
      <trkpt lat="50.86958" lon="1.58581">
        <ele>43.7</ele>
        <time>2020-06-22T19:10:52Z</time>
      </trkpt>
      <trkpt lat="50.86958" lon="1.5858">
        <ele>43.6</ele>
        <time>2020-06-22T19:10:53Z</time>
      </trkpt>
      <trkpt lat="50.86958" lon="1.58578">
        <ele>43.6</ele>
        <time>2020-06-22T19:10:54Z</time>
      </trkpt>
      <trkpt lat="50.86959" lon="1.58577">
        <ele>43.6</ele>
        <time>2020-06-22T19:10:55Z</time>
      </trkpt>
      <trkpt lat="50.8696" lon="1.58576">
        <ele>43.6</ele>
        <time>2020-06-22T19:10:56Z</time>
      </trkpt>
      <trkpt lat="50.86961" lon="1.58575">
        <ele>43.6</ele>
        <time>2020-06-22T19:10:57Z</time>
      </trkpt>
      <trkpt lat="50.86961" lon="1.58573">
        <ele>43.6</ele>
        <time>2020-06-22T19:10:58Z</time>
      </trkpt>
      <trkpt lat="50.86962" lon="1.58571">
        <ele>43.6</ele>
        <time>2020-06-22T19:10:59Z</time>
      </trkpt>
      <trkpt lat="50.86963" lon="1.5857">
        <ele>43.5</ele>
        <time>2020-06-22T19:11:00Z</time>
      </trkpt>
      <trkpt lat="50.86964" lon="1.5857">
        <ele>43.5</ele>
        <time>2020-06-22T19:11:01Z</time>
      </trkpt>
      <trkpt lat="50.86965" lon="1.58569">
        <ele>43.5</ele>
        <time>2020-06-22T19:11:02Z</time>
      </trkpt>
      <trkpt lat="50.86966" lon="1.58568">
        <ele>43.5</ele>
        <time>2020-06-22T19:11:03Z</time>
      </trkpt>
      <trkpt lat="50.86967" lon="1.58567">
        <ele>43.5</ele>
        <time>2020-06-22T19:11:04Z</time>
      </trkpt>
      <trkpt lat="50.86968" lon="1.58566">
        <ele>43.4</ele>
        <time>2020-06-22T19:11:05Z</time>
      </trkpt>
      <trkpt lat="50.86969" lon="1.58565">
        <ele>43.4</ele>
        <time>2020-06-22T19:11:06Z</time>
      </trkpt>
      <trkpt lat="50.8697" lon="1.58565">
        <ele>43.4</ele>
        <time>2020-06-22T19:11:07Z</time>
      </trkpt>
      <trkpt lat="50.8697" lon="1.58565">
        <ele>43.4</ele>
        <time>2020-06-22T19:11:08Z</time>
      </trkpt>
      <trkpt lat="50.86972" lon="1.58565">
        <ele>43.4</ele>
        <time>2020-06-22T19:11:09Z</time>
      </trkpt>
      <trkpt lat="50.86973" lon="1.58565">
        <ele>43.3</ele>
        <time>2020-06-22T19:11:10Z</time>
      </trkpt>
      <trkpt lat="50.86974" lon="1.58564">
        <ele>43.3</ele>
        <time>2020-06-22T19:11:11Z</time>
      </trkpt>
      <trkpt lat="50.86975" lon="1.58564">
        <ele>43.3</ele>
        <time>2020-06-22T19:11:12Z</time>
      </trkpt>
      <trkpt lat="50.86976" lon="1.58563">
        <ele>43.3</ele>
        <time>2020-06-22T19:11:13Z</time>
      </trkpt>
      <trkpt lat="50.86976" lon="1.58563">
        <ele>43.3</ele>
        <time>2020-06-22T19:11:14Z</time>
      </trkpt>
      <trkpt lat="50.86976" lon="1.58562">
        <ele>43.3</ele>
        <time>2020-06-22T19:11:15Z</time>
      </trkpt>
      <trkpt lat="50.86977" lon="1.58561">
        <ele>43.2</ele>
        <time>2020-06-22T19:11:16Z</time>
      </trkpt>
      <trkpt lat="50.86977" lon="1.58559">
        <ele>43.2</ele>
        <time>2020-06-22T19:11:17Z</time>
      </trkpt>
      <trkpt lat="50.86978" lon="1.58556">
        <ele>43.2</ele>
        <time>2020-06-22T19:11:18Z</time>
      </trkpt>
      <trkpt lat="50.86979" lon="1.58555">
        <ele>43.2</ele>
        <time>2020-06-22T19:11:19Z</time>
      </trkpt>
      <trkpt lat="50.86979" lon="1.58554">
        <ele>43.1</ele>
        <time>2020-06-22T19:11:20Z</time>
      </trkpt>
      <trkpt lat="50.8698" lon="1.58552">
        <ele>43.1</ele>
        <time>2020-06-22T19:11:21Z</time>
      </trkpt>
      <trkpt lat="50.86981" lon="1.58551">
        <ele>43.1</ele>
        <time>2020-06-22T19:11:22Z</time>
      </trkpt>
      <trkpt lat="50.86981" lon="1.5855">
        <ele>43.1</ele>
        <time>2020-06-22T19:11:23Z</time>
      </trkpt>
      <trkpt lat="50.86981" lon="1.58549">
        <ele>43.1</ele>
        <time>2020-06-22T19:11:24Z</time>
      </trkpt>
      <trkpt lat="50.86982" lon="1.58547">
        <ele>43</ele>
        <time>2020-06-22T19:11:25Z</time>
      </trkpt>
      <trkpt lat="50.86981" lon="1.58546">
        <ele>43</ele>
        <time>2020-06-22T19:11:26Z</time>
      </trkpt>
      <trkpt lat="50.86981" lon="1.58545">
        <ele>43</ele>
        <time>2020-06-22T19:11:27Z</time>
      </trkpt>
      <trkpt lat="50.8698" lon="1.58544">
        <ele>43</ele>
        <time>2020-06-22T19:11:28Z</time>
      </trkpt>
      <trkpt lat="50.8698" lon="1.58543">
        <ele>43</ele>
        <time>2020-06-22T19:11:29Z</time>
      </trkpt>
      <trkpt lat="50.8698" lon="1.58542">
        <ele>43</ele>
        <time>2020-06-22T19:11:30Z</time>
      </trkpt>
      <trkpt lat="50.8698" lon="1.58542">
        <ele>43</ele>
        <time>2020-06-22T19:11:31Z</time>
      </trkpt>
      <trkpt lat="50.8698" lon="1.58542">
        <ele>43</ele>
        <time>2020-06-22T19:11:32Z</time>
      </trkpt>
      <trkpt lat="50.8698" lon="1.58542">
        <ele>43</ele>
        <time>2020-06-22T19:11:33Z</time>
      </trkpt>
      <trkpt lat="50.8698" lon="1.58542">
        <ele>43</ele>
        <time>2020-06-22T19:11:34Z</time>
      </trkpt>
      <trkpt lat="50.8698" lon="1.58541">
        <ele>43</ele>
        <time>2020-06-22T19:11:35Z</time>
      </trkpt>
      <trkpt lat="50.8698" lon="1.58541">
        <ele>43</ele>
        <time>2020-06-22T19:11:36Z</time>
      </trkpt>
      <trkpt lat="50.86981" lon="1.5854">
        <ele>42.9</ele>
        <time>2020-06-22T19:11:37Z</time>
      </trkpt>
      <trkpt lat="50.86981" lon="1.5854">
        <ele>42.9</ele>
        <time>2020-06-22T19:11:38Z</time>
      </trkpt>
      <trkpt lat="50.8698" lon="1.58539">
        <ele>42.9</ele>
        <time>2020-06-22T19:11:39Z</time>
      </trkpt>
      <trkpt lat="50.86979" lon="1.58531">
        <ele>42.8</ele>
        <time>2020-06-22T19:11:45Z</time>
      </trkpt>
      <trkpt lat="50.86979" lon="1.5853">
        <ele>42.7</ele>
        <time>2020-06-22T19:11:46Z</time>
      </trkpt>
      <trkpt lat="50.86978" lon="1.58529">
        <ele>42.7</ele>
        <time>2020-06-22T19:11:47Z</time>
      </trkpt>
      <trkpt lat="50.86977" lon="1.58527">
        <ele>42.7</ele>
        <time>2020-06-22T19:11:48Z</time>
      </trkpt>
      <trkpt lat="50.86976" lon="1.58526">
        <ele>42.6</ele>
        <time>2020-06-22T19:11:49Z</time>
      </trkpt>
      <trkpt lat="50.86976" lon="1.58525">
        <ele>42.6</ele>
        <time>2020-06-22T19:11:50Z</time>
      </trkpt>
      <trkpt lat="50.86976" lon="1.58521">
        <ele>42.6</ele>
        <time>2020-06-22T19:11:51Z</time>
      </trkpt>
      <trkpt lat="50.86976" lon="1.5852">
        <ele>42.5</ele>
        <time>2020-06-22T19:11:52Z</time>
      </trkpt>
      <trkpt lat="50.86976" lon="1.58518">
        <ele>42.5</ele>
        <time>2020-06-22T19:11:53Z</time>
      </trkpt>
      <trkpt lat="50.86976" lon="1.58516">
        <ele>42.5</ele>
        <time>2020-06-22T19:11:54Z</time>
      </trkpt>
      <trkpt lat="50.86976" lon="1.58513">
        <ele>42.4</ele>
        <time>2020-06-22T19:11:55Z</time>
      </trkpt>
      <trkpt lat="50.86976" lon="1.58511">
        <ele>42.4</ele>
        <time>2020-06-22T19:11:56Z</time>
      </trkpt>
      <trkpt lat="50.86977" lon="1.58509">
        <ele>42.3</ele>
        <time>2020-06-22T19:11:57Z</time>
      </trkpt>
      <trkpt lat="50.86977" lon="1.58507">
        <ele>42.3</ele>
        <time>2020-06-22T19:11:58Z</time>
      </trkpt>
      <trkpt lat="50.86978" lon="1.58506">
        <ele>42.3</ele>
        <time>2020-06-22T19:11:59Z</time>
      </trkpt>
      <trkpt lat="50.86978" lon="1.58505">
        <ele>42.2</ele>
        <time>2020-06-22T19:12:00Z</time>
      </trkpt>
      <trkpt lat="50.86978" lon="1.58502">
        <ele>42.2</ele>
        <time>2020-06-22T19:12:01Z</time>
      </trkpt>
      <trkpt lat="50.86979" lon="1.585">
        <ele>42.1</ele>
        <time>2020-06-22T19:12:02Z</time>
      </trkpt>
      <trkpt lat="50.86979" lon="1.58499">
        <ele>42.1</ele>
        <time>2020-06-22T19:12:03Z</time>
      </trkpt>
      <trkpt lat="50.8698" lon="1.58497">
        <ele>42.1</ele>
        <time>2020-06-22T19:12:04Z</time>
      </trkpt>
      <trkpt lat="50.8698" lon="1.58494">
        <ele>42</ele>
        <time>2020-06-22T19:12:05Z</time>
      </trkpt>
      <trkpt lat="50.86981" lon="1.58491">
        <ele>41.9</ele>
        <time>2020-06-22T19:12:06Z</time>
      </trkpt>
      <trkpt lat="50.86982" lon="1.5849">
        <ele>41.9</ele>
        <time>2020-06-22T19:12:07Z</time>
      </trkpt>
      <trkpt lat="50.86982" lon="1.58489">
        <ele>41.9</ele>
        <time>2020-06-22T19:12:08Z</time>
      </trkpt>
      <trkpt lat="50.86983" lon="1.58486">
        <ele>41.8</ele>
        <time>2020-06-22T19:12:09Z</time>
      </trkpt>
      <trkpt lat="50.86984" lon="1.58485">
        <ele>41.8</ele>
        <time>2020-06-22T19:12:10Z</time>
      </trkpt>
      <trkpt lat="50.86984" lon="1.58483">
        <ele>41.8</ele>
        <time>2020-06-22T19:12:11Z</time>
      </trkpt>
      <trkpt lat="50.86985" lon="1.5848">
        <ele>41.7</ele>
        <time>2020-06-22T19:12:12Z</time>
      </trkpt>
      <trkpt lat="50.86985" lon="1.58479">
        <ele>41.7</ele>
        <time>2020-06-22T19:12:13Z</time>
      </trkpt>
      <trkpt lat="50.86986" lon="1.58478">
        <ele>41.6</ele>
        <time>2020-06-22T19:12:14Z</time>
      </trkpt>
      <trkpt lat="50.86986" lon="1.58476">
        <ele>41.6</ele>
        <time>2020-06-22T19:12:15Z</time>
      </trkpt>
      <trkpt lat="50.86987" lon="1.58474">
        <ele>41.6</ele>
        <time>2020-06-22T19:12:16Z</time>
      </trkpt>
      <trkpt lat="50.86988" lon="1.58473">
        <ele>41.5</ele>
        <time>2020-06-22T19:12:17Z</time>
      </trkpt>
      <trkpt lat="50.86989" lon="1.5847">
        <ele>41.5</ele>
        <time>2020-06-22T19:12:18Z</time>
      </trkpt>
      <trkpt lat="50.86989" lon="1.58469">
        <ele>41.4</ele>
        <time>2020-06-22T19:12:19Z</time>
      </trkpt>
      <trkpt lat="50.86989" lon="1.58467">
        <ele>41.4</ele>
        <time>2020-06-22T19:12:20Z</time>
      </trkpt>
      <trkpt lat="50.86989" lon="1.58466">
        <ele>41.4</ele>
        <time>2020-06-22T19:12:21Z</time>
      </trkpt>
      <trkpt lat="50.86989" lon="1.58464">
        <ele>41.4</ele>
        <time>2020-06-22T19:12:22Z</time>
      </trkpt>
      <trkpt lat="50.86989" lon="1.58462">
        <ele>41.3</ele>
        <time>2020-06-22T19:12:23Z</time>
      </trkpt>
      <trkpt lat="50.8699" lon="1.58459">
        <ele>41.3</ele>
        <time>2020-06-22T19:12:24Z</time>
      </trkpt>
      <trkpt lat="50.8699" lon="1.58458">
        <ele>41.3</ele>
        <time>2020-06-22T19:12:25Z</time>
      </trkpt>
      <trkpt lat="50.8699" lon="1.58456">
        <ele>41.3</ele>
        <time>2020-06-22T19:12:26Z</time>
      </trkpt>
      <trkpt lat="50.86991" lon="1.58455">
        <ele>41.2</ele>
        <time>2020-06-22T19:12:27Z</time>
      </trkpt>
      <trkpt lat="50.86991" lon="1.58453">
        <ele>41.2</ele>
        <time>2020-06-22T19:12:28Z</time>
      </trkpt>
      <trkpt lat="50.86992" lon="1.58451">
        <ele>41.2</ele>
        <time>2020-06-22T19:12:29Z</time>
      </trkpt>
      <trkpt lat="50.86992" lon="1.58449">
        <ele>41.2</ele>
        <time>2020-06-22T19:12:30Z</time>
      </trkpt>
      <trkpt lat="50.86992" lon="1.58446">
        <ele>41.1</ele>
        <time>2020-06-22T19:12:31Z</time>
      </trkpt>
      <trkpt lat="50.86992" lon="1.58444">
        <ele>41.1</ele>
        <time>2020-06-22T19:12:32Z</time>
      </trkpt>
      <trkpt lat="50.86993" lon="1.58441">
        <ele>41.1</ele>
        <time>2020-06-22T19:12:33Z</time>
      </trkpt>
      <trkpt lat="50.86994" lon="1.58439">
        <ele>41.1</ele>
        <time>2020-06-22T19:12:34Z</time>
      </trkpt>
      <trkpt lat="50.86994" lon="1.58437">
        <ele>41</ele>
        <time>2020-06-22T19:12:35Z</time>
      </trkpt>
      <trkpt lat="50.86995" lon="1.58435">
        <ele>41</ele>
        <time>2020-06-22T19:12:36Z</time>
      </trkpt>
      <trkpt lat="50.86996" lon="1.58433">
        <ele>41</ele>
        <time>2020-06-22T19:12:37Z</time>
      </trkpt>
      <trkpt lat="50.86996" lon="1.58431">
        <ele>41</ele>
        <time>2020-06-22T19:12:38Z</time>
      </trkpt>
      <trkpt lat="50.86997" lon="1.58429">
        <ele>41</ele>
        <time>2020-06-22T19:12:39Z</time>
      </trkpt>
      <trkpt lat="50.86997" lon="1.58427">
        <ele>41</ele>
        <time>2020-06-22T19:12:40Z</time>
      </trkpt>
      <trkpt lat="50.86998" lon="1.58424">
        <ele>41</ele>
        <time>2020-06-22T19:12:41Z</time>
      </trkpt>
      <trkpt lat="50.86998" lon="1.58422">
        <ele>40.9</ele>
        <time>2020-06-22T19:12:42Z</time>
      </trkpt>
      <trkpt lat="50.86999" lon="1.5842">
        <ele>40.9</ele>
        <time>2020-06-22T19:12:43Z</time>
      </trkpt>
      <trkpt lat="50.87" lon="1.58418">
        <ele>40.9</ele>
        <time>2020-06-22T19:12:44Z</time>
      </trkpt>
      <trkpt lat="50.87" lon="1.58416">
        <ele>40.9</ele>
        <time>2020-06-22T19:12:45Z</time>
      </trkpt>
      <trkpt lat="50.87001" lon="1.58413">
        <ele>40.9</ele>
        <time>2020-06-22T19:12:46Z</time>
      </trkpt>
      <trkpt lat="50.87002" lon="1.58412">
        <ele>40.9</ele>
        <time>2020-06-22T19:12:47Z</time>
      </trkpt>
      <trkpt lat="50.87002" lon="1.58411">
        <ele>41</ele>
        <time>2020-06-22T19:12:48Z</time>
      </trkpt>
      <trkpt lat="50.87003" lon="1.58409">
        <ele>41</ele>
        <time>2020-06-22T19:12:49Z</time>
      </trkpt>
      <trkpt lat="50.87003" lon="1.58406">
        <ele>41</ele>
        <time>2020-06-22T19:12:50Z</time>
      </trkpt>
      <trkpt lat="50.87004" lon="1.58404">
        <ele>41</ele>
        <time>2020-06-22T19:12:51Z</time>
      </trkpt>
      <trkpt lat="50.87005" lon="1.58402">
        <ele>41</ele>
        <time>2020-06-22T19:12:52Z</time>
      </trkpt>
      <trkpt lat="50.87005" lon="1.58401">
        <ele>41.1</ele>
        <time>2020-06-22T19:12:53Z</time>
      </trkpt>
      <trkpt lat="50.87005" lon="1.584">
        <ele>41.1</ele>
        <time>2020-06-22T19:12:54Z</time>
      </trkpt>
      <trkpt lat="50.87006" lon="1.58399">
        <ele>41.1</ele>
        <time>2020-06-22T19:12:55Z</time>
      </trkpt>
      <trkpt lat="50.87007" lon="1.58398">
        <ele>41.1</ele>
        <time>2020-06-22T19:12:56Z</time>
      </trkpt>
      <trkpt lat="50.87007" lon="1.58397">
        <ele>41.1</ele>
        <time>2020-06-22T19:12:57Z</time>
      </trkpt>
      <trkpt lat="50.87009" lon="1.58394">
        <ele>41.1</ele>
        <time>2020-06-22T19:12:58Z</time>
      </trkpt>
      <trkpt lat="50.87009" lon="1.58392">
        <ele>41.2</ele>
        <time>2020-06-22T19:12:59Z</time>
      </trkpt>
      <trkpt lat="50.87009" lon="1.58391">
        <ele>41.2</ele>
        <time>2020-06-22T19:13:00Z</time>
      </trkpt>
      <trkpt lat="50.8701" lon="1.58389">
        <ele>41.2</ele>
        <time>2020-06-22T19:13:01Z</time>
      </trkpt>
      <trkpt lat="50.87011" lon="1.58387">
        <ele>41.2</ele>
        <time>2020-06-22T19:13:02Z</time>
      </trkpt>
      <trkpt lat="50.87012" lon="1.58384">
        <ele>41.2</ele>
        <time>2020-06-22T19:13:03Z</time>
      </trkpt>
      <trkpt lat="50.87013" lon="1.58383">
        <ele>41.2</ele>
        <time>2020-06-22T19:13:04Z</time>
      </trkpt>
      <trkpt lat="50.87013" lon="1.58381">
        <ele>41.2</ele>
        <time>2020-06-22T19:13:05Z</time>
      </trkpt>
      <trkpt lat="50.87014" lon="1.58379">
        <ele>41.3</ele>
        <time>2020-06-22T19:13:06Z</time>
      </trkpt>
      <trkpt lat="50.87015" lon="1.58377">
        <ele>41.3</ele>
        <time>2020-06-22T19:13:07Z</time>
      </trkpt>
      <trkpt lat="50.87016" lon="1.58375">
        <ele>41.3</ele>
        <time>2020-06-22T19:13:08Z</time>
      </trkpt>
      <trkpt lat="50.87016" lon="1.58373">
        <ele>41.3</ele>
        <time>2020-06-22T19:13:09Z</time>
      </trkpt>
      <trkpt lat="50.87017" lon="1.58372">
        <ele>41.3</ele>
        <time>2020-06-22T19:13:10Z</time>
      </trkpt>
      <trkpt lat="50.87017" lon="1.58371">
        <ele>41.3</ele>
        <time>2020-06-22T19:13:11Z</time>
      </trkpt>
      <trkpt lat="50.87018" lon="1.58368">
        <ele>41.3</ele>
        <time>2020-06-22T19:13:12Z</time>
      </trkpt>
      <trkpt lat="50.87019" lon="1.58367">
        <ele>41.3</ele>
        <time>2020-06-22T19:13:13Z</time>
      </trkpt>
      <trkpt lat="50.8702" lon="1.58366">
        <ele>41.4</ele>
        <time>2020-06-22T19:13:14Z</time>
      </trkpt>
      <trkpt lat="50.8702" lon="1.58364">
        <ele>41.4</ele>
        <time>2020-06-22T19:13:15Z</time>
      </trkpt>
      <trkpt lat="50.87021" lon="1.58363">
        <ele>41.4</ele>
        <time>2020-06-22T19:13:16Z</time>
      </trkpt>
      <trkpt lat="50.87022" lon="1.5836">
        <ele>41.4</ele>
        <time>2020-06-22T19:13:17Z</time>
      </trkpt>
      <trkpt lat="50.87022" lon="1.58358">
        <ele>41.4</ele>
        <time>2020-06-22T19:13:18Z</time>
      </trkpt>
      <trkpt lat="50.87022" lon="1.58357">
        <ele>41.4</ele>
        <time>2020-06-22T19:13:19Z</time>
      </trkpt>
      <trkpt lat="50.87022" lon="1.58355">
        <ele>41.4</ele>
        <time>2020-06-22T19:13:20Z</time>
      </trkpt>
      <trkpt lat="50.87023" lon="1.58352">
        <ele>41.5</ele>
        <time>2020-06-22T19:13:21Z</time>
      </trkpt>
      <trkpt lat="50.87024" lon="1.58349">
        <ele>41.5</ele>
        <time>2020-06-22T19:13:22Z</time>
      </trkpt>
      <trkpt lat="50.87024" lon="1.58348">
        <ele>41.5</ele>
        <time>2020-06-22T19:13:23Z</time>
      </trkpt>
      <trkpt lat="50.87024" lon="1.58347">
        <ele>41.5</ele>
        <time>2020-06-22T19:13:24Z</time>
      </trkpt>
      <trkpt lat="50.87025" lon="1.58344">
        <ele>41.5</ele>
        <time>2020-06-22T19:13:25Z</time>
      </trkpt>
      <trkpt lat="50.87026" lon="1.58343">
        <ele>41.5</ele>
        <time>2020-06-22T19:13:26Z</time>
      </trkpt>
      <trkpt lat="50.87027" lon="1.58342">
        <ele>41.5</ele>
        <time>2020-06-22T19:13:27Z</time>
      </trkpt>
      <trkpt lat="50.87028" lon="1.58341">
        <ele>41.6</ele>
        <time>2020-06-22T19:13:28Z</time>
      </trkpt>
      <trkpt lat="50.87029" lon="1.5834">
        <ele>41.6</ele>
        <time>2020-06-22T19:13:29Z</time>
      </trkpt>
      <trkpt lat="50.8703" lon="1.58339">
        <ele>41.6</ele>
        <time>2020-06-22T19:13:30Z</time>
      </trkpt>
      <trkpt lat="50.87031" lon="1.58338">
        <ele>41.6</ele>
        <time>2020-06-22T19:13:31Z</time>
      </trkpt>
      <trkpt lat="50.87032" lon="1.58336">
        <ele>41.6</ele>
        <time>2020-06-22T19:13:32Z</time>
      </trkpt>
      <trkpt lat="50.87034" lon="1.58334">
        <ele>41.6</ele>
        <time>2020-06-22T19:13:33Z</time>
      </trkpt>
      <trkpt lat="50.87035" lon="1.58333">
        <ele>41.6</ele>
        <time>2020-06-22T19:13:34Z</time>
      </trkpt>
      <trkpt lat="50.87035" lon="1.58333">
        <ele>41.6</ele>
        <time>2020-06-22T19:13:35Z</time>
      </trkpt>
      <trkpt lat="50.87037" lon="1.58331">
        <ele>41.6</ele>
        <time>2020-06-22T19:13:36Z</time>
      </trkpt>
      <trkpt lat="50.87038" lon="1.5833">
        <ele>41.6</ele>
        <time>2020-06-22T19:13:37Z</time>
      </trkpt>
      <trkpt lat="50.8704" lon="1.58328">
        <ele>41.6</ele>
        <time>2020-06-22T19:13:38Z</time>
      </trkpt>
      <trkpt lat="50.8704" lon="1.58327">
        <ele>41.6</ele>
        <time>2020-06-22T19:13:39Z</time>
      </trkpt>
      <trkpt lat="50.87041" lon="1.58327">
        <ele>41.6</ele>
        <time>2020-06-22T19:13:40Z</time>
      </trkpt>
      <trkpt lat="50.87042" lon="1.58326">
        <ele>41.6</ele>
        <time>2020-06-22T19:13:41Z</time>
      </trkpt>
      <trkpt lat="50.87043" lon="1.58327">
        <ele>41.6</ele>
        <time>2020-06-22T19:13:42Z</time>
      </trkpt>
      <trkpt lat="50.87044" lon="1.58327">
        <ele>41.6</ele>
        <time>2020-06-22T19:13:43Z</time>
      </trkpt>
      <trkpt lat="50.87045" lon="1.58328">
        <ele>41.6</ele>
        <time>2020-06-22T19:13:44Z</time>
      </trkpt>
      <trkpt lat="50.87046" lon="1.58329">
        <ele>41.6</ele>
        <time>2020-06-22T19:13:45Z</time>
      </trkpt>
      <trkpt lat="50.87047" lon="1.5833">
        <ele>41.6</ele>
        <time>2020-06-22T19:13:46Z</time>
      </trkpt>
      <trkpt lat="50.87047" lon="1.58331">
        <ele>41.6</ele>
        <time>2020-06-22T19:13:47Z</time>
      </trkpt>
      <trkpt lat="50.87047" lon="1.58331">
        <ele>41.6</ele>
        <time>2020-06-22T19:13:48Z</time>
      </trkpt>
      <trkpt lat="50.87047" lon="1.58331">
        <ele>41.6</ele>
        <time>2020-06-22T19:13:49Z</time>
      </trkpt>
      <trkpt lat="50.87047" lon="1.58332">
        <ele>41.6</ele>
        <time>2020-06-22T19:13:50Z</time>
      </trkpt>
      <trkpt lat="50.87048" lon="1.58332">
        <ele>41.6</ele>
        <time>2020-06-22T19:13:51Z</time>
      </trkpt>
      <trkpt lat="50.87048" lon="1.58332">
        <ele>41.6</ele>
        <time>2020-06-22T19:13:52Z</time>
      </trkpt>
      <trkpt lat="50.87049" lon="1.58331">
        <ele>41.6</ele>
        <time>2020-06-22T19:13:53Z</time>
      </trkpt>
      <trkpt lat="50.87049" lon="1.58331">
        <ele>41.6</ele>
        <time>2020-06-22T19:13:54Z</time>
      </trkpt>
      <trkpt lat="50.8705" lon="1.58331">
        <ele>41.6</ele>
        <time>2020-06-22T19:13:55Z</time>
      </trkpt>
      <trkpt lat="50.8705" lon="1.58331">
        <ele>41.6</ele>
        <time>2020-06-22T19:13:56Z</time>
      </trkpt>
      <trkpt lat="50.8705" lon="1.58332">
        <ele>41.6</ele>
        <time>2020-06-22T19:13:57Z</time>
      </trkpt>
      <trkpt lat="50.8705" lon="1.58332">
        <ele>41.6</ele>
        <time>2020-06-22T19:13:58Z</time>
      </trkpt>
      <trkpt lat="50.87051" lon="1.58332">
        <ele>41.6</ele>
        <time>2020-06-22T19:13:59Z</time>
      </trkpt>
      <trkpt lat="50.87051" lon="1.58332">
        <ele>41.6</ele>
        <time>2020-06-22T19:14:00Z</time>
      </trkpt>
      <trkpt lat="50.87051" lon="1.58332">
        <ele>41.6</ele>
        <time>2020-06-22T19:14:01Z</time>
      </trkpt>
      <trkpt lat="50.87052" lon="1.58331">
        <ele>41.6</ele>
        <time>2020-06-22T19:14:02Z</time>
      </trkpt>
      <trkpt lat="50.87052" lon="1.58332">
        <ele>41.6</ele>
        <time>2020-06-22T19:14:03Z</time>
      </trkpt>
      <trkpt lat="50.87053" lon="1.58333">
        <ele>41.6</ele>
        <time>2020-06-22T19:14:04Z</time>
      </trkpt>
      <trkpt lat="50.87053" lon="1.58333">
        <ele>41.6</ele>
        <time>2020-06-22T19:14:05Z</time>
      </trkpt>
      <trkpt lat="50.87053" lon="1.58333">
        <ele>41.6</ele>
        <time>2020-06-22T19:14:06Z</time>
      </trkpt>
      <trkpt lat="50.87054" lon="1.58332">
        <ele>41.6</ele>
        <time>2020-06-22T19:14:07Z</time>
      </trkpt>
      <trkpt lat="50.87054" lon="1.58332">
        <ele>41.6</ele>
        <time>2020-06-22T19:14:08Z</time>
      </trkpt>
      <trkpt lat="50.87054" lon="1.58332">
        <ele>41.6</ele>
        <time>2020-06-22T19:14:09Z</time>
      </trkpt>
      <trkpt lat="50.87054" lon="1.58332">
        <ele>41.6</ele>
        <time>2020-06-22T19:14:10Z</time>
      </trkpt>
      <trkpt lat="50.87054" lon="1.58331">
        <ele>41.6</ele>
        <time>2020-06-22T19:14:11Z</time>
      </trkpt>
      <trkpt lat="50.87054" lon="1.58331">
        <ele>41.6</ele>
        <time>2020-06-22T19:14:12Z</time>
      </trkpt>
      <trkpt lat="50.87054" lon="1.58332">
        <ele>41.6</ele>
        <time>2020-06-22T19:14:13Z</time>
      </trkpt>
      <trkpt lat="50.87054" lon="1.58331">
        <ele>41.6</ele>
        <time>2020-06-22T19:14:14Z</time>
      </trkpt>
      <trkpt lat="50.87055" lon="1.58331">
        <ele>41.6</ele>
        <time>2020-06-22T19:14:15Z</time>
      </trkpt>
      <trkpt lat="50.87056" lon="1.58331">
        <ele>41.6</ele>
        <time>2020-06-22T19:14:16Z</time>
      </trkpt>
      <trkpt lat="50.87057" lon="1.58331">
        <ele>41.6</ele>
        <time>2020-06-22T19:14:17Z</time>
      </trkpt>
      <trkpt lat="50.87058" lon="1.5833">
        <ele>41.6</ele>
        <time>2020-06-22T19:14:31Z</time>
      </trkpt>
      <trkpt lat="50.87058" lon="1.5833">
        <ele>41.6</ele>
        <time>2020-06-22T19:14:32Z</time>
      </trkpt>
      <trkpt lat="50.87059" lon="1.5833">
        <ele>41.5</ele>
        <time>2020-06-22T19:14:33Z</time>
      </trkpt>
      <trkpt lat="50.8706" lon="1.5833">
        <ele>41.5</ele>
        <time>2020-06-22T19:14:34Z</time>
      </trkpt>
      <trkpt lat="50.87061" lon="1.58329">
        <ele>41.5</ele>
        <time>2020-06-22T19:14:35Z</time>
      </trkpt>
      <trkpt lat="50.87062" lon="1.58329">
        <ele>41.5</ele>
        <time>2020-06-22T19:14:36Z</time>
      </trkpt>
      <trkpt lat="50.87062" lon="1.58329">
        <ele>41.5</ele>
        <time>2020-06-22T19:14:37Z</time>
      </trkpt>
      <trkpt lat="50.87063" lon="1.58329">
        <ele>41.5</ele>
        <time>2020-06-22T19:14:38Z</time>
      </trkpt>
      <trkpt lat="50.87064" lon="1.58328">
        <ele>41.5</ele>
        <time>2020-06-22T19:14:39Z</time>
      </trkpt>
      <trkpt lat="50.87065" lon="1.58328">
        <ele>41.5</ele>
        <time>2020-06-22T19:14:40Z</time>
      </trkpt>
      <trkpt lat="50.87066" lon="1.58328">
        <ele>41.5</ele>
        <time>2020-06-22T19:14:41Z</time>
      </trkpt>
      <trkpt lat="50.87067" lon="1.58328">
        <ele>41.4</ele>
        <time>2020-06-22T19:14:42Z</time>
      </trkpt>
      <trkpt lat="50.87067" lon="1.58327">
        <ele>41.4</ele>
        <time>2020-06-22T19:16:18Z</time>
      </trkpt>
      <trkpt lat="50.87068" lon="1.58327">
        <ele>41.4</ele>
        <time>2020-06-22T19:16:19Z</time>
      </trkpt>
      <trkpt lat="50.87069" lon="1.58325">
        <ele>41.4</ele>
        <time>2020-06-22T19:16:20Z</time>
      </trkpt>
      <trkpt lat="50.87071" lon="1.58323">
        <ele>41.4</ele>
        <time>2020-06-22T19:16:21Z</time>
      </trkpt>
      <trkpt lat="50.87071" lon="1.58321">
        <ele>41.3</ele>
        <time>2020-06-22T19:16:22Z</time>
      </trkpt>
      <trkpt lat="50.87072" lon="1.58319">
        <ele>41.3</ele>
        <time>2020-06-22T19:16:23Z</time>
      </trkpt>
      <trkpt lat="50.87073" lon="1.58317">
        <ele>41.3</ele>
        <time>2020-06-22T19:16:24Z</time>
      </trkpt>
      <trkpt lat="50.87073" lon="1.58316">
        <ele>41.2</ele>
        <time>2020-06-22T19:16:25Z</time>
      </trkpt>
      <trkpt lat="50.87073" lon="1.58314">
        <ele>41.2</ele>
        <time>2020-06-22T19:16:26Z</time>
      </trkpt>
      <trkpt lat="50.87074" lon="1.58314">
        <ele>41.2</ele>
        <time>2020-06-22T19:16:27Z</time>
      </trkpt>
      <trkpt lat="50.87074" lon="1.58313">
        <ele>41.2</ele>
        <time>2020-06-22T19:16:28Z</time>
      </trkpt>
      <trkpt lat="50.87074" lon="1.58312">
        <ele>41.2</ele>
        <time>2020-06-22T19:16:29Z</time>
      </trkpt>
      <trkpt lat="50.87074" lon="1.5831">
        <ele>41.2</ele>
        <time>2020-06-22T19:16:30Z</time>
      </trkpt>
      <trkpt lat="50.87074" lon="1.58307">
        <ele>41.1</ele>
        <time>2020-06-22T19:16:31Z</time>
      </trkpt>
      <trkpt lat="50.87074" lon="1.58305">
        <ele>41.1</ele>
        <time>2020-06-22T19:16:32Z</time>
      </trkpt>
      <trkpt lat="50.87074" lon="1.58303">
        <ele>41</ele>
        <time>2020-06-22T19:16:33Z</time>
      </trkpt>
      <trkpt lat="50.87074" lon="1.58302">
        <ele>41</ele>
        <time>2020-06-22T19:16:34Z</time>
      </trkpt>
      <trkpt lat="50.87075" lon="1.58301">
        <ele>41</ele>
        <time>2020-06-22T19:16:35Z</time>
      </trkpt>
      <trkpt lat="50.87075" lon="1.58299">
        <ele>41</ele>
        <time>2020-06-22T19:16:36Z</time>
      </trkpt>
      <trkpt lat="50.87075" lon="1.58297">
        <ele>40.9</ele>
        <time>2020-06-22T19:16:37Z</time>
      </trkpt>
      <trkpt lat="50.87076" lon="1.58295">
        <ele>40.9</ele>
        <time>2020-06-22T19:16:38Z</time>
      </trkpt>
      <trkpt lat="50.87077" lon="1.58295">
        <ele>40.9</ele>
        <time>2020-06-22T19:16:39Z</time>
      </trkpt>
      <trkpt lat="50.87077" lon="1.58294">
        <ele>40.8</ele>
        <time>2020-06-22T19:16:40Z</time>
      </trkpt>
      <trkpt lat="50.87078" lon="1.58293">
        <ele>40.8</ele>
        <time>2020-06-22T19:16:41Z</time>
      </trkpt>
      <trkpt lat="50.87079" lon="1.58293">
        <ele>40.8</ele>
        <time>2020-06-22T19:16:42Z</time>
      </trkpt>
      <trkpt lat="50.8708" lon="1.58293">
        <ele>40.8</ele>
        <time>2020-06-22T19:16:43Z</time>
      </trkpt>
      <trkpt lat="50.8708" lon="1.58293">
        <ele>40.7</ele>
        <time>2020-06-22T19:16:44Z</time>
      </trkpt>
      <trkpt lat="50.87081" lon="1.58293">
        <ele>40.7</ele>
        <time>2020-06-22T19:16:45Z</time>
      </trkpt>
      <trkpt lat="50.87081" lon="1.58294">
        <ele>40.7</ele>
        <time>2020-06-22T19:16:46Z</time>
      </trkpt>
      <trkpt lat="50.87082" lon="1.58294">
        <ele>40.7</ele>
        <time>2020-06-22T19:16:47Z</time>
      </trkpt>
      <trkpt lat="50.87083" lon="1.58294">
        <ele>40.7</ele>
        <time>2020-06-22T19:16:48Z</time>
      </trkpt>
      <trkpt lat="50.87084" lon="1.58292">
        <ele>40.6</ele>
        <time>2020-06-22T19:16:49Z</time>
      </trkpt>
      <trkpt lat="50.87084" lon="1.58289">
        <ele>40.6</ele>
        <time>2020-06-22T19:16:50Z</time>
      </trkpt>
      <trkpt lat="50.87084" lon="1.58288">
        <ele>40.5</ele>
        <time>2020-06-22T19:16:51Z</time>
      </trkpt>
      <trkpt lat="50.87083" lon="1.58287">
        <ele>40.5</ele>
        <time>2020-06-22T19:16:52Z</time>
      </trkpt>
      <trkpt lat="50.87083" lon="1.58285">
        <ele>40.5</ele>
        <time>2020-06-22T19:16:53Z</time>
      </trkpt>
      <trkpt lat="50.87083" lon="1.58283">
        <ele>40.4</ele>
        <time>2020-06-22T19:16:54Z</time>
      </trkpt>
      <trkpt lat="50.87083" lon="1.58282">
        <ele>40.4</ele>
        <time>2020-06-22T19:16:55Z</time>
      </trkpt>
      <trkpt lat="50.87082" lon="1.5828">
        <ele>40.4</ele>
        <time>2020-06-22T19:16:56Z</time>
      </trkpt>
      <trkpt lat="50.87082" lon="1.58279">
        <ele>40.3</ele>
        <time>2020-06-22T19:16:57Z</time>
      </trkpt>
      <trkpt lat="50.8708" lon="1.58277">
        <ele>40.3</ele>
        <time>2020-06-22T19:16:58Z</time>
      </trkpt>
      <trkpt lat="50.87079" lon="1.58275">
        <ele>40.2</ele>
        <time>2020-06-22T19:16:59Z</time>
      </trkpt>
      <trkpt lat="50.87078" lon="1.58274">
        <ele>40.2</ele>
        <time>2020-06-22T19:17:00Z</time>
      </trkpt>
      <trkpt lat="50.87078" lon="1.58272">
        <ele>40.2</ele>
        <time>2020-06-22T19:17:01Z</time>
      </trkpt>
      <trkpt lat="50.87077" lon="1.58271">
        <ele>40.1</ele>
        <time>2020-06-22T19:17:02Z</time>
      </trkpt>
      <trkpt lat="50.87076" lon="1.58269">
        <ele>40.1</ele>
        <time>2020-06-22T19:17:03Z</time>
      </trkpt>
      <trkpt lat="50.87075" lon="1.58268">
        <ele>40.1</ele>
        <time>2020-06-22T19:17:04Z</time>
      </trkpt>
      <trkpt lat="50.87076" lon="1.58269">
        <ele>40.1</ele>
        <time>2020-06-22T19:17:05Z</time>
      </trkpt>
      <trkpt lat="50.87077" lon="1.5827">
        <ele>40</ele>
        <time>2020-06-22T19:17:06Z</time>
      </trkpt>
      <trkpt lat="50.87077" lon="1.58271">
        <ele>40</ele>
        <time>2020-06-22T19:17:07Z</time>
      </trkpt>
      <trkpt lat="50.87078" lon="1.58272">
        <ele>40</ele>
        <time>2020-06-22T19:17:08Z</time>
      </trkpt>
      <trkpt lat="50.87079" lon="1.58273">
        <ele>40</ele>
        <time>2020-06-22T19:17:09Z</time>
      </trkpt>
      <trkpt lat="50.87081" lon="1.58277">
        <ele>39.9</ele>
        <time>2020-06-22T19:17:10Z</time>
      </trkpt>
      <trkpt lat="50.87083" lon="1.58281">
        <ele>39.9</ele>
        <time>2020-06-22T19:17:11Z</time>
      </trkpt>
      <trkpt lat="50.87084" lon="1.58282">
        <ele>39.9</ele>
        <time>2020-06-22T19:17:12Z</time>
      </trkpt>
      <trkpt lat="50.87087" lon="1.58285">
        <ele>39.8</ele>
        <time>2020-06-22T19:17:13Z</time>
      </trkpt>
      <trkpt lat="50.87089" lon="1.58285">
        <ele>39.8</ele>
        <time>2020-06-22T19:17:14Z</time>
      </trkpt>
      <trkpt lat="50.87092" lon="1.58286">
        <ele>39.8</ele>
        <time>2020-06-22T19:17:15Z</time>
      </trkpt>
      <trkpt lat="50.87092" lon="1.58287">
        <ele>39.8</ele>
        <time>2020-06-22T19:17:16Z</time>
      </trkpt>
      <trkpt lat="50.87094" lon="1.58287">
        <ele>39.8</ele>
        <time>2020-06-22T19:17:17Z</time>
      </trkpt>
      <trkpt lat="50.87095" lon="1.58288">
        <ele>39.8</ele>
        <time>2020-06-22T19:17:18Z</time>
      </trkpt>
      <trkpt lat="50.87096" lon="1.58287">
        <ele>39.8</ele>
        <time>2020-06-22T19:17:19Z</time>
      </trkpt>
      <trkpt lat="50.87097" lon="1.58287">
        <ele>39.8</ele>
        <time>2020-06-22T19:17:20Z</time>
      </trkpt>
      <trkpt lat="50.87098" lon="1.58287">
        <ele>39.8</ele>
        <time>2020-06-22T19:17:21Z</time>
      </trkpt>
      <trkpt lat="50.871" lon="1.58287">
        <ele>39.8</ele>
        <time>2020-06-22T19:17:22Z</time>
      </trkpt>
      <trkpt lat="50.871" lon="1.58288">
        <ele>39.8</ele>
        <time>2020-06-22T19:17:23Z</time>
      </trkpt>
      <trkpt lat="50.871" lon="1.58288">
        <ele>39.8</ele>
        <time>2020-06-22T19:17:24Z</time>
      </trkpt>
      <trkpt lat="50.87101" lon="1.58289">
        <ele>39.8</ele>
        <time>2020-06-22T19:17:25Z</time>
      </trkpt>
      <trkpt lat="50.87102" lon="1.58289">
        <ele>39.8</ele>
        <time>2020-06-22T19:17:26Z</time>
      </trkpt>
      <trkpt lat="50.87102" lon="1.58289">
        <ele>39.8</ele>
        <time>2020-06-22T19:17:27Z</time>
      </trkpt>
      <trkpt lat="50.87102" lon="1.58289">
        <ele>39.8</ele>
        <time>2020-06-22T19:17:28Z</time>
      </trkpt>
      <trkpt lat="50.87103" lon="1.58289">
        <ele>39.8</ele>
        <time>2020-06-22T19:17:29Z</time>
      </trkpt>
      <trkpt lat="50.87103" lon="1.58289">
        <ele>39.8</ele>
        <time>2020-06-22T19:17:30Z</time>
      </trkpt>
      <trkpt lat="50.87103" lon="1.58289">
        <ele>39.8</ele>
        <time>2020-06-22T19:17:31Z</time>
      </trkpt>
      <trkpt lat="50.87103" lon="1.58289">
        <ele>39.8</ele>
        <time>2020-06-22T19:17:32Z</time>
      </trkpt>
      <trkpt lat="50.87103" lon="1.58289">
        <ele>39.8</ele>
        <time>2020-06-22T19:17:33Z</time>
      </trkpt>
      <trkpt lat="50.87104" lon="1.58289">
        <ele>39.8</ele>
        <time>2020-06-22T19:17:34Z</time>
      </trkpt>
      <trkpt lat="50.87104" lon="1.5829">
        <ele>39.8</ele>
        <time>2020-06-22T19:17:35Z</time>
      </trkpt>
      <trkpt lat="50.87105" lon="1.5829">
        <ele>39.8</ele>
        <time>2020-06-22T19:17:36Z</time>
      </trkpt>
      <trkpt lat="50.87101" lon="1.58279">
        <ele>39.8</ele>
        <time>2020-06-22T19:20:24Z</time>
      </trkpt>
      <trkpt lat="50.87102" lon="1.5828">
        <ele>39.8</ele>
        <time>2020-06-22T19:20:25Z</time>
      </trkpt>
      <trkpt lat="50.87102" lon="1.5828">
        <ele>39.8</ele>
        <time>2020-06-22T19:20:26Z</time>
      </trkpt>
      <trkpt lat="50.87102" lon="1.5828">
        <ele>39.8</ele>
        <time>2020-06-22T19:20:27Z</time>
      </trkpt>
      <trkpt lat="50.87103" lon="1.58279">
        <ele>39.8</ele>
        <time>2020-06-22T19:20:28Z</time>
      </trkpt>
      <trkpt lat="50.87103" lon="1.58279">
        <ele>39.8</ele>
        <time>2020-06-22T19:20:29Z</time>
      </trkpt>
      <trkpt lat="50.87104" lon="1.58279">
        <ele>39.8</ele>
        <time>2020-06-22T19:20:30Z</time>
      </trkpt>
      <trkpt lat="50.87104" lon="1.58279">
        <ele>39.8</ele>
        <time>2020-06-22T19:20:31Z</time>
      </trkpt>
      <trkpt lat="50.87104" lon="1.58279">
        <ele>39.8</ele>
        <time>2020-06-22T19:20:32Z</time>
      </trkpt>
      <trkpt lat="50.87105" lon="1.58277">
        <ele>39.8</ele>
        <time>2020-06-22T19:20:33Z</time>
      </trkpt>
      <trkpt lat="50.87106" lon="1.58277">
        <ele>39.8</ele>
        <time>2020-06-22T19:20:34Z</time>
      </trkpt>
      <trkpt lat="50.87105" lon="1.58277">
        <ele>39.8</ele>
        <time>2020-06-22T19:20:35Z</time>
      </trkpt>
      <trkpt lat="50.87104" lon="1.58278">
        <ele>39.8</ele>
        <time>2020-06-22T19:20:36Z</time>
      </trkpt>
      <trkpt lat="50.87105" lon="1.58277">
        <ele>39.8</ele>
        <time>2020-06-22T19:20:37Z</time>
      </trkpt>
      <trkpt lat="50.87104" lon="1.58277">
        <ele>39.8</ele>
        <time>2020-06-22T19:20:38Z</time>
      </trkpt>
      <trkpt lat="50.87105" lon="1.58277">
        <ele>39.8</ele>
        <time>2020-06-22T19:20:39Z</time>
      </trkpt>
      <trkpt lat="50.87105" lon="1.58278">
        <ele>39.8</ele>
        <time>2020-06-22T19:20:40Z</time>
      </trkpt>
      <trkpt lat="50.87104" lon="1.58278">
        <ele>39.8</ele>
        <time>2020-06-22T19:20:41Z</time>
      </trkpt>
      <trkpt lat="50.87104" lon="1.58278">
        <ele>39.8</ele>
        <time>2020-06-22T19:20:42Z</time>
      </trkpt>
      <trkpt lat="50.87105" lon="1.58278">
        <ele>39.8</ele>
        <time>2020-06-22T19:20:43Z</time>
      </trkpt>
      <trkpt lat="50.87105" lon="1.58278">
        <ele>39.8</ele>
        <time>2020-06-22T19:20:44Z</time>
      </trkpt>
      <trkpt lat="50.87105" lon="1.58278">
        <ele>39.8</ele>
        <time>2020-06-22T19:20:45Z</time>
      </trkpt>
      <trkpt lat="50.87105" lon="1.58278">
        <ele>39.8</ele>
        <time>2020-06-22T19:20:46Z</time>
      </trkpt>
      <trkpt lat="50.87105" lon="1.58278">
        <ele>39.8</ele>
        <time>2020-06-22T19:20:47Z</time>
      </trkpt>
      <trkpt lat="50.87105" lon="1.58278">
        <ele>39.8</ele>
        <time>2020-06-22T19:20:48Z</time>
      </trkpt>
      <trkpt lat="50.87104" lon="1.58278">
        <ele>39.8</ele>
        <time>2020-06-22T19:20:49Z</time>
      </trkpt>
      <trkpt lat="50.87104" lon="1.58277">
        <ele>39.8</ele>
        <time>2020-06-22T19:20:50Z</time>
      </trkpt>
      <trkpt lat="50.87104" lon="1.58277">
        <ele>39.8</ele>
        <time>2020-06-22T19:20:51Z</time>
      </trkpt>
      <trkpt lat="50.87103" lon="1.58278">
        <ele>39.8</ele>
        <time>2020-06-22T19:20:52Z</time>
      </trkpt>
      <trkpt lat="50.87103" lon="1.58277">
        <ele>39.8</ele>
        <time>2020-06-22T19:20:53Z</time>
      </trkpt>
      <trkpt lat="50.8708" lon="1.58273">
        <ele>40.2</ele>
        <time>2020-06-22T19:23:12Z</time>
      </trkpt>
      <trkpt lat="50.87079" lon="1.58273">
        <ele>40.2</ele>
        <time>2020-06-22T19:23:13Z</time>
      </trkpt>
      <trkpt lat="50.87079" lon="1.58272">
        <ele>40.2</ele>
        <time>2020-06-22T19:23:14Z</time>
      </trkpt>
      <trkpt lat="50.87079" lon="1.58272">
        <ele>40.2</ele>
        <time>2020-06-22T19:23:15Z</time>
      </trkpt>
      <trkpt lat="50.87079" lon="1.58271">
        <ele>40.2</ele>
        <time>2020-06-22T19:23:16Z</time>
      </trkpt>
      <trkpt lat="50.87079" lon="1.58271">
        <ele>40.2</ele>
        <time>2020-06-22T19:23:17Z</time>
      </trkpt>
      <trkpt lat="50.87078" lon="1.5827">
        <ele>40.2</ele>
        <time>2020-06-22T19:23:18Z</time>
      </trkpt>
      <trkpt lat="50.87077" lon="1.5827">
        <ele>40.3</ele>
        <time>2020-06-22T19:23:19Z</time>
      </trkpt>
      <trkpt lat="50.87077" lon="1.5827">
        <ele>40.3</ele>
        <time>2020-06-22T19:23:20Z</time>
      </trkpt>
      <trkpt lat="50.87076" lon="1.58269">
        <ele>40.3</ele>
        <time>2020-06-22T19:23:21Z</time>
      </trkpt>
      <trkpt lat="50.87075" lon="1.58269">
        <ele>40.3</ele>
        <time>2020-06-22T19:23:22Z</time>
      </trkpt>
      <trkpt lat="50.87074" lon="1.58269">
        <ele>40.4</ele>
        <time>2020-06-22T19:23:23Z</time>
      </trkpt>
      <trkpt lat="50.87073" lon="1.58269">
        <ele>40.4</ele>
        <time>2020-06-22T19:23:24Z</time>
      </trkpt>
      <trkpt lat="50.87072" lon="1.58268">
        <ele>40.4</ele>
        <time>2020-06-22T19:23:25Z</time>
      </trkpt>
      <trkpt lat="50.8707" lon="1.58269">
        <ele>40.5</ele>
        <time>2020-06-22T19:23:26Z</time>
      </trkpt>
      <trkpt lat="50.8707" lon="1.58269">
        <ele>40.5</ele>
        <time>2020-06-22T19:23:27Z</time>
      </trkpt>
      <trkpt lat="50.87069" lon="1.58269">
        <ele>40.5</ele>
        <time>2020-06-22T19:23:28Z</time>
      </trkpt>
      <trkpt lat="50.87069" lon="1.58268">
        <ele>40.5</ele>
        <time>2020-06-22T19:23:29Z</time>
      </trkpt>
      <trkpt lat="50.87068" lon="1.58268">
        <ele>40.6</ele>
        <time>2020-06-22T19:23:30Z</time>
      </trkpt>
      <trkpt lat="50.87066" lon="1.58269">
        <ele>40.6</ele>
        <time>2020-06-22T19:23:31Z</time>
      </trkpt>
      <trkpt lat="50.87065" lon="1.5827">
        <ele>40.7</ele>
        <time>2020-06-22T19:23:32Z</time>
      </trkpt>
      <trkpt lat="50.87063" lon="1.58267">
        <ele>40.7</ele>
        <time>2020-06-22T19:23:33Z</time>
      </trkpt>
      <trkpt lat="50.87062" lon="1.58264">
        <ele>40.8</ele>
        <time>2020-06-22T19:23:34Z</time>
      </trkpt>
      <trkpt lat="50.87061" lon="1.58262">
        <ele>40.9</ele>
        <time>2020-06-22T19:23:35Z</time>
      </trkpt>
      <trkpt lat="50.8706" lon="1.58259">
        <ele>41</ele>
        <time>2020-06-22T19:23:36Z</time>
      </trkpt>
      <trkpt lat="50.87059" lon="1.58256">
        <ele>41</ele>
        <time>2020-06-22T19:23:37Z</time>
      </trkpt>
      <trkpt lat="50.87057" lon="1.58254">
        <ele>41.1</ele>
        <time>2020-06-22T19:23:38Z</time>
      </trkpt>
      <trkpt lat="50.87056" lon="1.58251">
        <ele>41.2</ele>
        <time>2020-06-22T19:23:39Z</time>
      </trkpt>
      <trkpt lat="50.87055" lon="1.58249">
        <ele>41.3</ele>
        <time>2020-06-22T19:23:40Z</time>
      </trkpt>
      <trkpt lat="50.87054" lon="1.58246">
        <ele>41.3</ele>
        <time>2020-06-22T19:23:41Z</time>
      </trkpt>
      <trkpt lat="50.87052" lon="1.58243">
        <ele>41.4</ele>
        <time>2020-06-22T19:23:42Z</time>
      </trkpt>
      <trkpt lat="50.87051" lon="1.58241">
        <ele>41.4</ele>
        <time>2020-06-22T19:23:43Z</time>
      </trkpt>
      <trkpt lat="50.8705" lon="1.58238">
        <ele>41.5</ele>
        <time>2020-06-22T19:24:20Z</time>
      </trkpt>
      <trkpt lat="50.87049" lon="1.58235">
        <ele>40.3</ele>
        <time>2020-06-22T19:24:21Z</time>
      </trkpt>
      <trkpt lat="50.87048" lon="1.58233">
        <ele>39.7</ele>
        <time>2020-06-22T19:24:22Z</time>
      </trkpt>
      <trkpt lat="50.87046" lon="1.5823">
        <ele>39</ele>
        <time>2020-06-22T19:24:23Z</time>
      </trkpt>
      <trkpt lat="50.87045" lon="1.58227">
        <ele>38.3</ele>
        <time>2020-06-22T19:24:24Z</time>
      </trkpt>
      <trkpt lat="50.87043" lon="1.58226">
        <ele>37.7</ele>
        <time>2020-06-22T19:24:25Z</time>
      </trkpt>
      <trkpt lat="50.87043" lon="1.58224">
        <ele>37.4</ele>
        <time>2020-06-22T19:24:26Z</time>
      </trkpt>
      <trkpt lat="50.87043" lon="1.58224">
        <ele>37.3</ele>
        <time>2020-06-22T19:24:27Z</time>
      </trkpt>
      <trkpt lat="50.87042" lon="1.58222">
        <ele>36.7</ele>
        <time>2020-06-22T19:24:28Z</time>
      </trkpt>
      <trkpt lat="50.87041" lon="1.5822">
        <ele>36.2</ele>
        <time>2020-06-22T19:24:29Z</time>
      </trkpt>
      <trkpt lat="50.8704" lon="1.5822">
        <ele>36</ele>
        <time>2020-06-22T19:24:30Z</time>
      </trkpt>
      <trkpt lat="50.87039" lon="1.58219">
        <ele>35.7</ele>
        <time>2020-06-22T19:24:31Z</time>
      </trkpt>
      <trkpt lat="50.87039" lon="1.58218">
        <ele>35.5</ele>
        <time>2020-06-22T19:24:32Z</time>
      </trkpt>
      <trkpt lat="50.87039" lon="1.58218">
        <ele>35.4</ele>
        <time>2020-06-22T19:24:33Z</time>
      </trkpt>
      <trkpt lat="50.87038" lon="1.58218">
        <ele>35.3</ele>
        <time>2020-06-22T19:24:34Z</time>
      </trkpt>
      <trkpt lat="50.87038" lon="1.58218">
        <ele>35.3</ele>
        <time>2020-06-22T19:24:35Z</time>
      </trkpt>
      <trkpt lat="50.87038" lon="1.58218">
        <ele>35.3</ele>
        <time>2020-06-22T19:24:36Z</time>
      </trkpt>
      <trkpt lat="50.87038" lon="1.58218">
        <ele>35.3</ele>
        <time>2020-06-22T19:24:37Z</time>
      </trkpt>
      <trkpt lat="50.87038" lon="1.58217">
        <ele>35.1</ele>
        <time>2020-06-22T19:24:38Z</time>
      </trkpt>
      <trkpt lat="50.87037" lon="1.58216">
        <ele>34.7</ele>
        <time>2020-06-22T19:24:39Z</time>
      </trkpt>
      <trkpt lat="50.87037" lon="1.58214">
        <ele>34.4</ele>
        <time>2020-06-22T19:24:40Z</time>
      </trkpt>
      <trkpt lat="50.87037" lon="1.58214">
        <ele>34.4</ele>
        <time>2020-06-22T19:24:41Z</time>
      </trkpt>
      <trkpt lat="50.87037" lon="1.58214">
        <ele>34.4</ele>
        <time>2020-06-22T19:24:42Z</time>
      </trkpt>
      <trkpt lat="50.87037" lon="1.58214">
        <ele>34.3</ele>
        <time>2020-06-22T19:24:43Z</time>
      </trkpt>
      <trkpt lat="50.87037" lon="1.58214">
        <ele>34.3</ele>
        <time>2020-06-22T19:24:44Z</time>
      </trkpt>
      <trkpt lat="50.87037" lon="1.58214">
        <ele>34.3</ele>
        <time>2020-06-22T19:24:45Z</time>
      </trkpt>
      <trkpt lat="50.87037" lon="1.58214">
        <ele>34.3</ele>
        <time>2020-06-22T19:24:46Z</time>
      </trkpt>
      <trkpt lat="50.87037" lon="1.58214">
        <ele>34.3</ele>
        <time>2020-06-22T19:24:47Z</time>
      </trkpt>
      <trkpt lat="50.87037" lon="1.58214">
        <ele>34.2</ele>
        <time>2020-06-22T19:24:48Z</time>
      </trkpt>
      <trkpt lat="50.87037" lon="1.58214">
        <ele>34.2</ele>
        <time>2020-06-22T19:24:49Z</time>
      </trkpt>
      <trkpt lat="50.87036" lon="1.58201">
        <ele>31.6</ele>
        <time>2020-06-22T19:25:13Z</time>
      </trkpt>
      <trkpt lat="50.87036" lon="1.582">
        <ele>31.3</ele>
        <time>2020-06-22T19:25:14Z</time>
      </trkpt>
      <trkpt lat="50.87036" lon="1.58199">
        <ele>31.1</ele>
        <time>2020-06-22T19:25:15Z</time>
      </trkpt>
      <trkpt lat="50.87036" lon="1.58198">
        <ele>30.9</ele>
        <time>2020-06-22T19:25:16Z</time>
      </trkpt>
      <trkpt lat="50.87035" lon="1.58198">
        <ele>30.8</ele>
        <time>2020-06-22T19:25:17Z</time>
      </trkpt>
      <trkpt lat="50.87035" lon="1.58198">
        <ele>30.7</ele>
        <time>2020-06-22T19:25:18Z</time>
      </trkpt>
      <trkpt lat="50.87035" lon="1.58198">
        <ele>30.5</ele>
        <time>2020-06-22T19:25:19Z</time>
      </trkpt>
      <trkpt lat="50.87035" lon="1.582">
        <ele>30.3</ele>
        <time>2020-06-22T19:25:20Z</time>
      </trkpt>
      <trkpt lat="50.87035" lon="1.58201">
        <ele>30</ele>
        <time>2020-06-22T19:25:21Z</time>
      </trkpt>
      <trkpt lat="50.87034" lon="1.58202">
        <ele>29.7</ele>
        <time>2020-06-22T19:25:22Z</time>
      </trkpt>
      <trkpt lat="50.87034" lon="1.58202">
        <ele>29.7</ele>
        <time>2020-06-22T19:25:23Z</time>
      </trkpt>
      <trkpt lat="50.87034" lon="1.58202">
        <ele>29.7</ele>
        <time>2020-06-22T19:25:24Z</time>
      </trkpt>
      <trkpt lat="50.87034" lon="1.58203">
        <ele>29.6</ele>
        <time>2020-06-22T19:25:25Z</time>
      </trkpt>
      <trkpt lat="50.87034" lon="1.58203">
        <ele>29.6</ele>
        <time>2020-06-22T19:25:26Z</time>
      </trkpt>
      <trkpt lat="50.87034" lon="1.58203">
        <ele>29.6</ele>
        <time>2020-06-22T19:25:27Z</time>
      </trkpt>
      <trkpt lat="50.87034" lon="1.58203">
        <ele>29.6</ele>
        <time>2020-06-22T19:25:28Z</time>
      </trkpt>
      <trkpt lat="50.87038" lon="1.5822">
        <ele>34.4</ele>
        <time>2020-06-22T19:27:46Z</time>
      </trkpt>
      <trkpt lat="50.87038" lon="1.5822">
        <ele>34.5</ele>
        <time>2020-06-22T19:27:47Z</time>
      </trkpt>
      <trkpt lat="50.87037" lon="1.58219">
        <ele>34.6</ele>
        <time>2020-06-22T19:27:48Z</time>
      </trkpt>
      <trkpt lat="50.87036" lon="1.58218">
        <ele>34.7</ele>
        <time>2020-06-22T19:27:49Z</time>
      </trkpt>
      <trkpt lat="50.87035" lon="1.58217">
        <ele>34.8</ele>
        <time>2020-06-22T19:27:50Z</time>
      </trkpt>
      <trkpt lat="50.87035" lon="1.58217">
        <ele>34.9</ele>
        <time>2020-06-22T19:27:51Z</time>
      </trkpt>
      <trkpt lat="50.87034" lon="1.58216">
        <ele>34.9</ele>
        <time>2020-06-22T19:27:52Z</time>
      </trkpt>
      <trkpt lat="50.87034" lon="1.58217">
        <ele>35</ele>
        <time>2020-06-22T19:27:53Z</time>
      </trkpt>
      <trkpt lat="50.87034" lon="1.58217">
        <ele>35</ele>
        <time>2020-06-22T19:27:54Z</time>
      </trkpt>
      <trkpt lat="50.87033" lon="1.58218">
        <ele>35.1</ele>
        <time>2020-06-22T19:27:55Z</time>
      </trkpt>
      <trkpt lat="50.87033" lon="1.58218">
        <ele>35.1</ele>
        <time>2020-06-22T19:27:56Z</time>
      </trkpt>
      <trkpt lat="50.87033" lon="1.58218">
        <ele>35.1</ele>
        <time>2020-06-22T19:27:57Z</time>
      </trkpt>
      <trkpt lat="50.87033" lon="1.58218">
        <ele>35.1</ele>
        <time>2020-06-22T19:27:58Z</time>
      </trkpt>
      <trkpt lat="50.87033" lon="1.58217">
        <ele>35.2</ele>
        <time>2020-06-22T19:27:59Z</time>
      </trkpt>
      <trkpt lat="50.87032" lon="1.58217">
        <ele>35.2</ele>
        <time>2020-06-22T19:28:00Z</time>
      </trkpt>
      <trkpt lat="50.87032" lon="1.58217">
        <ele>35.2</ele>
        <time>2020-06-22T19:28:01Z</time>
      </trkpt>
      <trkpt lat="50.87032" lon="1.58218">
        <ele>35.2</ele>
        <time>2020-06-22T19:28:02Z</time>
      </trkpt>
      <trkpt lat="50.87032" lon="1.58218">
        <ele>35.3</ele>
        <time>2020-06-22T19:28:03Z</time>
      </trkpt>
      <trkpt lat="50.87032" lon="1.58218">
        <ele>35.4</ele>
        <time>2020-06-22T19:28:04Z</time>
      </trkpt>
      <trkpt lat="50.87031" lon="1.58219">
        <ele>35.4</ele>
        <time>2020-06-22T19:28:05Z</time>
      </trkpt>
      <trkpt lat="50.87031" lon="1.58221">
        <ele>35.5</ele>
        <time>2020-06-22T19:28:06Z</time>
      </trkpt>
      <trkpt lat="50.87031" lon="1.58223">
        <ele>35.7</ele>
        <time>2020-06-22T19:28:07Z</time>
      </trkpt>
      <trkpt lat="50.87031" lon="1.58225">
        <ele>35.8</ele>
        <time>2020-06-22T19:28:08Z</time>
      </trkpt>
      <trkpt lat="50.87031" lon="1.58226">
        <ele>35.9</ele>
        <time>2020-06-22T19:28:09Z</time>
      </trkpt>
      <trkpt lat="50.87031" lon="1.58227">
        <ele>36</ele>
        <time>2020-06-22T19:28:10Z</time>
      </trkpt>
      <trkpt lat="50.87031" lon="1.5823">
        <ele>36.2</ele>
        <time>2020-06-22T19:28:11Z</time>
      </trkpt>
      <trkpt lat="50.87031" lon="1.58233">
        <ele>36.4</ele>
        <time>2020-06-22T19:28:12Z</time>
      </trkpt>
      <trkpt lat="50.8703" lon="1.58234">
        <ele>36.4</ele>
        <time>2020-06-22T19:28:13Z</time>
      </trkpt>
      <trkpt lat="50.8703" lon="1.58235">
        <ele>36.5</ele>
        <time>2020-06-22T19:28:14Z</time>
      </trkpt>
      <trkpt lat="50.8703" lon="1.58235">
        <ele>36.5</ele>
        <time>2020-06-22T19:28:15Z</time>
      </trkpt>
      <trkpt lat="50.8703" lon="1.58236">
        <ele>36.6</ele>
        <time>2020-06-22T19:28:16Z</time>
      </trkpt>
      <trkpt lat="50.87029" lon="1.58237">
        <ele>36.7</ele>
        <time>2020-06-22T19:28:17Z</time>
      </trkpt>
      <trkpt lat="50.87029" lon="1.58238">
        <ele>36.7</ele>
        <time>2020-06-22T19:28:18Z</time>
      </trkpt>
      <trkpt lat="50.8703" lon="1.58238">
        <ele>36.7</ele>
        <time>2020-06-22T19:28:19Z</time>
      </trkpt>
      <trkpt lat="50.87029" lon="1.58238">
        <ele>36.8</ele>
        <time>2020-06-22T19:28:20Z</time>
      </trkpt>
      <trkpt lat="50.8703" lon="1.58238">
        <ele>36.8</ele>
        <time>2020-06-22T19:28:21Z</time>
      </trkpt>
      <trkpt lat="50.8703" lon="1.58238">
        <ele>36.8</ele>
        <time>2020-06-22T19:28:22Z</time>
      </trkpt>
      <trkpt lat="50.87029" lon="1.58239">
        <ele>36.9</ele>
        <time>2020-06-22T19:28:23Z</time>
      </trkpt>
      <trkpt lat="50.87029" lon="1.5824">
        <ele>37</ele>
        <time>2020-06-22T19:28:24Z</time>
      </trkpt>
      <trkpt lat="50.87029" lon="1.58241">
        <ele>37</ele>
        <time>2020-06-22T19:28:25Z</time>
      </trkpt>
      <trkpt lat="50.87029" lon="1.58241">
        <ele>37</ele>
        <time>2020-06-22T19:28:26Z</time>
      </trkpt>
      <trkpt lat="50.87029" lon="1.58241">
        <ele>37</ele>
        <time>2020-06-22T19:28:27Z</time>
      </trkpt>
      <trkpt lat="50.87029" lon="1.58241">
        <ele>37.1</ele>
        <time>2020-06-22T19:28:28Z</time>
      </trkpt>
      <trkpt lat="50.8703" lon="1.58241">
        <ele>37.1</ele>
        <time>2020-06-22T19:28:29Z</time>
      </trkpt>
      <trkpt lat="50.8703" lon="1.58242">
        <ele>37.2</ele>
        <time>2020-06-22T19:28:30Z</time>
      </trkpt>
      <trkpt lat="50.8703" lon="1.58243">
        <ele>37.2</ele>
        <time>2020-06-22T19:28:31Z</time>
      </trkpt>
      <trkpt lat="50.8703" lon="1.58244">
        <ele>37.3</ele>
        <time>2020-06-22T19:28:32Z</time>
      </trkpt>
      <trkpt lat="50.8703" lon="1.58245">
        <ele>37.4</ele>
        <time>2020-06-22T19:28:33Z</time>
      </trkpt>
      <trkpt lat="50.8703" lon="1.58246">
        <ele>37.4</ele>
        <time>2020-06-22T19:28:34Z</time>
      </trkpt>
      <trkpt lat="50.87029" lon="1.58245">
        <ele>37.5</ele>
        <time>2020-06-22T19:28:35Z</time>
      </trkpt>
      <trkpt lat="50.87029" lon="1.58245">
        <ele>37.5</ele>
        <time>2020-06-22T19:28:36Z</time>
      </trkpt>
      <trkpt lat="50.8703" lon="1.58245">
        <ele>37.5</ele>
        <time>2020-06-22T19:28:37Z</time>
      </trkpt>
      <trkpt lat="50.8703" lon="1.58246">
        <ele>37.5</ele>
        <time>2020-06-22T19:28:38Z</time>
      </trkpt>
      <trkpt lat="50.8703" lon="1.58246">
        <ele>37.6</ele>
        <time>2020-06-22T19:28:39Z</time>
      </trkpt>
      <trkpt lat="50.8703" lon="1.58246">
        <ele>37.6</ele>
        <time>2020-06-22T19:28:40Z</time>
      </trkpt>
      <trkpt lat="50.8703" lon="1.58247">
        <ele>37.7</ele>
        <time>2020-06-22T19:28:41Z</time>
      </trkpt>
      <trkpt lat="50.8703" lon="1.58248">
        <ele>37.8</ele>
        <time>2020-06-22T19:28:42Z</time>
      </trkpt>
      <trkpt lat="50.8703" lon="1.58249">
        <ele>37.8</ele>
        <time>2020-06-22T19:28:43Z</time>
      </trkpt>
      <trkpt lat="50.87029" lon="1.5825">
        <ele>37.9</ele>
        <time>2020-06-22T19:28:44Z</time>
      </trkpt>
      <trkpt lat="50.87029" lon="1.58251">
        <ele>38</ele>
        <time>2020-06-22T19:28:45Z</time>
      </trkpt>
      <trkpt lat="50.87029" lon="1.58252">
        <ele>38</ele>
        <time>2020-06-22T19:28:46Z</time>
      </trkpt>
      <trkpt lat="50.87029" lon="1.58253">
        <ele>38.1</ele>
        <time>2020-06-22T19:28:47Z</time>
      </trkpt>
      <trkpt lat="50.87029" lon="1.58253">
        <ele>38.1</ele>
        <time>2020-06-22T19:28:48Z</time>
      </trkpt>
      <trkpt lat="50.87029" lon="1.58254">
        <ele>38.2</ele>
        <time>2020-06-22T19:28:49Z</time>
      </trkpt>
      <trkpt lat="50.87029" lon="1.58254">
        <ele>38.2</ele>
        <time>2020-06-22T19:28:50Z</time>
      </trkpt>
      <trkpt lat="50.87029" lon="1.58255">
        <ele>38.3</ele>
        <time>2020-06-22T19:28:51Z</time>
      </trkpt>
      <trkpt lat="50.87029" lon="1.58255">
        <ele>38.3</ele>
        <time>2020-06-22T19:28:52Z</time>
      </trkpt>
      <trkpt lat="50.87029" lon="1.58255">
        <ele>38.3</ele>
        <time>2020-06-22T19:28:53Z</time>
      </trkpt>
      <trkpt lat="50.8703" lon="1.58256">
        <ele>38.4</ele>
        <time>2020-06-22T19:28:54Z</time>
      </trkpt>
      <trkpt lat="50.8703" lon="1.58256">
        <ele>38.4</ele>
        <time>2020-06-22T19:28:55Z</time>
      </trkpt>
      <trkpt lat="50.8703" lon="1.58256">
        <ele>38.5</ele>
        <time>2020-06-22T19:28:56Z</time>
      </trkpt>
      <trkpt lat="50.87031" lon="1.58257">
        <ele>38.5</ele>
        <time>2020-06-22T19:28:57Z</time>
      </trkpt>
      <trkpt lat="50.87031" lon="1.58258">
        <ele>38.6</ele>
        <time>2020-06-22T19:28:58Z</time>
      </trkpt>
      <trkpt lat="50.87031" lon="1.58259">
        <ele>38.6</ele>
        <time>2020-06-22T19:28:59Z</time>
      </trkpt>
      <trkpt lat="50.87031" lon="1.58259">
        <ele>38.7</ele>
        <time>2020-06-22T19:29:00Z</time>
      </trkpt>
      <trkpt lat="50.87031" lon="1.5826">
        <ele>38.7</ele>
        <time>2020-06-22T19:29:01Z</time>
      </trkpt>
      <trkpt lat="50.87031" lon="1.58261">
        <ele>38.8</ele>
        <time>2020-06-22T19:29:02Z</time>
      </trkpt>
      <trkpt lat="50.87031" lon="1.58262">
        <ele>38.9</ele>
        <time>2020-06-22T19:29:03Z</time>
      </trkpt>
      <trkpt lat="50.87031" lon="1.58263">
        <ele>38.9</ele>
        <time>2020-06-22T19:29:04Z</time>
      </trkpt>
      <trkpt lat="50.87031" lon="1.58263">
        <ele>39</ele>
        <time>2020-06-22T19:29:05Z</time>
      </trkpt>
      <trkpt lat="50.87032" lon="1.58264">
        <ele>39</ele>
        <time>2020-06-22T19:29:06Z</time>
      </trkpt>
      <trkpt lat="50.87032" lon="1.58265">
        <ele>39.1</ele>
        <time>2020-06-22T19:29:07Z</time>
      </trkpt>
      <trkpt lat="50.87032" lon="1.58266">
        <ele>39.2</ele>
        <time>2020-06-22T19:29:08Z</time>
      </trkpt>
      <trkpt lat="50.87032" lon="1.58267">
        <ele>39.2</ele>
        <time>2020-06-22T19:29:09Z</time>
      </trkpt>
      <trkpt lat="50.87032" lon="1.58269">
        <ele>39.3</ele>
        <time>2020-06-22T19:29:10Z</time>
      </trkpt>
      <trkpt lat="50.87033" lon="1.5827">
        <ele>39.4</ele>
        <time>2020-06-22T19:29:11Z</time>
      </trkpt>
      <trkpt lat="50.87033" lon="1.58271">
        <ele>39.5</ele>
        <time>2020-06-22T19:29:12Z</time>
      </trkpt>
      <trkpt lat="50.87033" lon="1.58273">
        <ele>39.7</ele>
        <time>2020-06-22T19:29:13Z</time>
      </trkpt>
      <trkpt lat="50.87035" lon="1.58273">
        <ele>39.9</ele>
        <time>2020-06-22T19:29:14Z</time>
      </trkpt>
      <trkpt lat="50.87036" lon="1.58272">
        <ele>40</ele>
        <time>2020-06-22T19:29:15Z</time>
      </trkpt>
      <trkpt lat="50.87037" lon="1.58271">
        <ele>40.1</ele>
        <time>2020-06-22T19:29:16Z</time>
      </trkpt>
      <trkpt lat="50.87039" lon="1.58269">
        <ele>40.4</ele>
        <time>2020-06-22T19:29:17Z</time>
      </trkpt>
      <trkpt lat="50.87039" lon="1.58269">
        <ele>40.4</ele>
        <time>2020-06-22T19:29:18Z</time>
      </trkpt>
      <trkpt lat="50.87039" lon="1.58269">
        <ele>40.4</ele>
        <time>2020-06-22T19:29:19Z</time>
      </trkpt>
      <trkpt lat="50.87039" lon="1.58267">
        <ele>40.6</ele>
        <time>2020-06-22T19:29:20Z</time>
      </trkpt>
      <trkpt lat="50.87039" lon="1.58266">
        <ele>40.7</ele>
        <time>2020-06-22T19:29:21Z</time>
      </trkpt>
      <trkpt lat="50.87038" lon="1.58264">
        <ele>40.8</ele>
        <time>2020-06-22T19:29:22Z</time>
      </trkpt>
      <trkpt lat="50.87038" lon="1.58264">
        <ele>40.8</ele>
        <time>2020-06-22T19:29:23Z</time>
      </trkpt>
      <trkpt lat="50.87038" lon="1.58263">
        <ele>40.9</ele>
        <time>2020-06-22T19:29:24Z</time>
      </trkpt>
      <trkpt lat="50.87039" lon="1.58263">
        <ele>40.9</ele>
        <time>2020-06-22T19:29:25Z</time>
      </trkpt>
      <trkpt lat="50.87038" lon="1.58263">
        <ele>41</ele>
        <time>2020-06-22T19:29:26Z</time>
      </trkpt>
      <trkpt lat="50.87038" lon="1.58261">
        <ele>41.1</ele>
        <time>2020-06-22T19:29:27Z</time>
      </trkpt>
      <trkpt lat="50.87039" lon="1.58258">
        <ele>41.3</ele>
        <time>2020-06-22T19:29:28Z</time>
      </trkpt>
      <trkpt lat="50.87039" lon="1.58256">
        <ele>41.4</ele>
        <time>2020-06-22T19:29:29Z</time>
      </trkpt>
      <trkpt lat="50.87038" lon="1.58253">
        <ele>41.6</ele>
        <time>2020-06-22T19:29:30Z</time>
      </trkpt>
      <trkpt lat="50.87038" lon="1.58247">
        <ele>41.6</ele>
        <time>2020-06-22T19:29:31Z</time>
      </trkpt>
      <trkpt lat="50.87038" lon="1.58245">
        <ele>41.6</ele>
        <time>2020-06-22T19:29:32Z</time>
      </trkpt>
      <trkpt lat="50.87038" lon="1.58245">
        <ele>41.6</ele>
        <time>2020-06-22T19:29:33Z</time>
      </trkpt>
      <trkpt lat="50.87038" lon="1.58245">
        <ele>41.6</ele>
        <time>2020-06-22T19:29:34Z</time>
      </trkpt>
      <trkpt lat="50.87037" lon="1.58244">
        <ele>41.6</ele>
        <time>2020-06-22T19:29:35Z</time>
      </trkpt>
      <trkpt lat="50.87036" lon="1.58244">
        <ele>41.6</ele>
        <time>2020-06-22T19:29:36Z</time>
      </trkpt>
      <trkpt lat="50.87036" lon="1.58243">
        <ele>41.6</ele>
        <time>2020-06-22T19:29:37Z</time>
      </trkpt>
      <trkpt lat="50.87035" lon="1.58242">
        <ele>41.7</ele>
        <time>2020-06-22T19:29:38Z</time>
      </trkpt>
      <trkpt lat="50.87034" lon="1.5824">
        <ele>41.7</ele>
        <time>2020-06-22T19:29:39Z</time>
      </trkpt>
      <trkpt lat="50.87034" lon="1.58239">
        <ele>41.7</ele>
        <time>2020-06-22T19:29:40Z</time>
      </trkpt>
      <trkpt lat="50.87033" lon="1.58238">
        <ele>41.7</ele>
        <time>2020-06-22T19:29:41Z</time>
      </trkpt>
      <trkpt lat="50.87032" lon="1.58237">
        <ele>41.7</ele>
        <time>2020-06-22T19:29:42Z</time>
      </trkpt>
      <trkpt lat="50.87032" lon="1.58237">
        <ele>41.7</ele>
        <time>2020-06-22T19:29:43Z</time>
      </trkpt>
      <trkpt lat="50.8703" lon="1.58236">
        <ele>41.7</ele>
        <time>2020-06-22T19:29:44Z</time>
      </trkpt>
      <trkpt lat="50.87029" lon="1.58235">
        <ele>41.7</ele>
        <time>2020-06-22T19:29:45Z</time>
      </trkpt>
      <trkpt lat="50.87028" lon="1.58234">
        <ele>41.7</ele>
        <time>2020-06-22T19:29:46Z</time>
      </trkpt>
      <trkpt lat="50.87027" lon="1.58233">
        <ele>41.7</ele>
        <time>2020-06-22T19:29:47Z</time>
      </trkpt>
      <trkpt lat="50.87026" lon="1.58233">
        <ele>41.8</ele>
        <time>2020-06-22T19:29:48Z</time>
      </trkpt>
      <trkpt lat="50.87025" lon="1.58232">
        <ele>41.9</ele>
        <time>2020-06-22T19:29:49Z</time>
      </trkpt>
      <trkpt lat="50.87024" lon="1.58232">
        <ele>41.9</ele>
        <time>2020-06-22T19:29:50Z</time>
      </trkpt>
      <trkpt lat="50.87023" lon="1.58231">
        <ele>41.9</ele>
        <time>2020-06-22T19:29:51Z</time>
      </trkpt>
      <trkpt lat="50.87022" lon="1.58231">
        <ele>41.9</ele>
        <time>2020-06-22T19:29:52Z</time>
      </trkpt>
      <trkpt lat="50.87021" lon="1.58231">
        <ele>42</ele>
        <time>2020-06-22T19:29:53Z</time>
      </trkpt>
      <trkpt lat="50.8702" lon="1.58231">
        <ele>42</ele>
        <time>2020-06-22T19:29:54Z</time>
      </trkpt>
      <trkpt lat="50.87019" lon="1.58231">
        <ele>42</ele>
        <time>2020-06-22T19:29:55Z</time>
      </trkpt>
      <trkpt lat="50.87018" lon="1.5823">
        <ele>42</ele>
        <time>2020-06-22T19:29:56Z</time>
      </trkpt>
      <trkpt lat="50.87016" lon="1.5823">
        <ele>42.1</ele>
        <time>2020-06-22T19:29:57Z</time>
      </trkpt>
      <trkpt lat="50.87015" lon="1.5823">
        <ele>42.1</ele>
        <time>2020-06-22T19:29:58Z</time>
      </trkpt>
      <trkpt lat="50.87014" lon="1.5823">
        <ele>42.2</ele>
        <time>2020-06-22T19:29:59Z</time>
      </trkpt>
      <trkpt lat="50.87013" lon="1.5823">
        <ele>42.2</ele>
        <time>2020-06-22T19:30:00Z</time>
      </trkpt>
      <trkpt lat="50.87012" lon="1.5823">
        <ele>42.2</ele>
        <time>2020-06-22T19:30:01Z</time>
      </trkpt>
      <trkpt lat="50.8701" lon="1.5823">
        <ele>42.3</ele>
        <time>2020-06-22T19:30:02Z</time>
      </trkpt>
      <trkpt lat="50.87009" lon="1.5823">
        <ele>42.3</ele>
        <time>2020-06-22T19:30:03Z</time>
      </trkpt>
      <trkpt lat="50.87009" lon="1.5823">
        <ele>42.4</ele>
        <time>2020-06-22T19:30:04Z</time>
      </trkpt>
      <trkpt lat="50.87008" lon="1.58231">
        <ele>42.4</ele>
        <time>2020-06-22T19:30:05Z</time>
      </trkpt>
      <trkpt lat="50.87007" lon="1.58231">
        <ele>42.4</ele>
        <time>2020-06-22T19:30:06Z</time>
      </trkpt>
      <trkpt lat="50.87006" lon="1.58231">
        <ele>42.5</ele>
        <time>2020-06-22T19:30:07Z</time>
      </trkpt>
      <trkpt lat="50.87005" lon="1.58231">
        <ele>42.5</ele>
        <time>2020-06-22T19:30:08Z</time>
      </trkpt>
      <trkpt lat="50.87004" lon="1.58232">
        <ele>42.5</ele>
        <time>2020-06-22T19:30:09Z</time>
      </trkpt>
      <trkpt lat="50.87004" lon="1.58232">
        <ele>42.5</ele>
        <time>2020-06-22T19:30:10Z</time>
      </trkpt>
      <trkpt lat="50.87003" lon="1.58233">
        <ele>42.6</ele>
        <time>2020-06-22T19:30:11Z</time>
      </trkpt>
      <trkpt lat="50.87002" lon="1.58234">
        <ele>42.6</ele>
        <time>2020-06-22T19:30:12Z</time>
      </trkpt>
      <trkpt lat="50.87001" lon="1.58235">
        <ele>42.6</ele>
        <time>2020-06-22T19:30:13Z</time>
      </trkpt>
      <trkpt lat="50.87001" lon="1.58236">
        <ele>42.7</ele>
        <time>2020-06-22T19:30:14Z</time>
      </trkpt>
      <trkpt lat="50.87" lon="1.58238">
        <ele>42.7</ele>
        <time>2020-06-22T19:30:15Z</time>
      </trkpt>
      <trkpt lat="50.87" lon="1.58239">
        <ele>42.7</ele>
        <time>2020-06-22T19:30:16Z</time>
      </trkpt>
      <trkpt lat="50.87" lon="1.5824">
        <ele>42.8</ele>
        <time>2020-06-22T19:30:17Z</time>
      </trkpt>
      <trkpt lat="50.86999" lon="1.58241">
        <ele>42.8</ele>
        <time>2020-06-22T19:30:18Z</time>
      </trkpt>
      <trkpt lat="50.86999" lon="1.58243">
        <ele>42.8</ele>
        <time>2020-06-22T19:30:19Z</time>
      </trkpt>
      <trkpt lat="50.86998" lon="1.58245">
        <ele>42.9</ele>
        <time>2020-06-22T19:30:20Z</time>
      </trkpt>
      <trkpt lat="50.86998" lon="1.58246">
        <ele>42.9</ele>
        <time>2020-06-22T19:30:21Z</time>
      </trkpt>
      <trkpt lat="50.86997" lon="1.58247">
        <ele>42.9</ele>
        <time>2020-06-22T19:30:22Z</time>
      </trkpt>
      <trkpt lat="50.86996" lon="1.5825">
        <ele>43</ele>
        <time>2020-06-22T19:30:23Z</time>
      </trkpt>
      <trkpt lat="50.86996" lon="1.58251">
        <ele>43</ele>
        <time>2020-06-22T19:30:24Z</time>
      </trkpt>
      <trkpt lat="50.86995" lon="1.58252">
        <ele>43</ele>
        <time>2020-06-22T19:30:25Z</time>
      </trkpt>
      <trkpt lat="50.86994" lon="1.58254">
        <ele>43.1</ele>
        <time>2020-06-22T19:30:26Z</time>
      </trkpt>
      <trkpt lat="50.86994" lon="1.58255">
        <ele>43.1</ele>
        <time>2020-06-22T19:30:27Z</time>
      </trkpt>
      <trkpt lat="50.86993" lon="1.58256">
        <ele>43.1</ele>
        <time>2020-06-22T19:30:28Z</time>
      </trkpt>
      <trkpt lat="50.86993" lon="1.58257">
        <ele>43.2</ele>
        <time>2020-06-22T19:30:29Z</time>
      </trkpt>
      <trkpt lat="50.86993" lon="1.58258">
        <ele>43.2</ele>
        <time>2020-06-22T19:30:30Z</time>
      </trkpt>
      <trkpt lat="50.86992" lon="1.58259">
        <ele>43.2</ele>
        <time>2020-06-22T19:30:31Z</time>
      </trkpt>
      <trkpt lat="50.86992" lon="1.58261">
        <ele>43.3</ele>
        <time>2020-06-22T19:30:32Z</time>
      </trkpt>
      <trkpt lat="50.86992" lon="1.58263">
        <ele>43.3</ele>
        <time>2020-06-22T19:30:33Z</time>
      </trkpt>
      <trkpt lat="50.86991" lon="1.58264">
        <ele>43.4</ele>
        <time>2020-06-22T19:30:34Z</time>
      </trkpt>
      <trkpt lat="50.86991" lon="1.58266">
        <ele>43.4</ele>
        <time>2020-06-22T19:30:35Z</time>
      </trkpt>
      <trkpt lat="50.8699" lon="1.58268">
        <ele>43.4</ele>
        <time>2020-06-22T19:30:36Z</time>
      </trkpt>
      <trkpt lat="50.8699" lon="1.58269">
        <ele>43.5</ele>
        <time>2020-06-22T19:30:37Z</time>
      </trkpt>
      <trkpt lat="50.86989" lon="1.5827">
        <ele>43.5</ele>
        <time>2020-06-22T19:30:38Z</time>
      </trkpt>
      <trkpt lat="50.86988" lon="1.58272">
        <ele>43.6</ele>
        <time>2020-06-22T19:30:39Z</time>
      </trkpt>
      <trkpt lat="50.86988" lon="1.58272">
        <ele>43.6</ele>
        <time>2020-06-22T19:30:40Z</time>
      </trkpt>
      <trkpt lat="50.86987" lon="1.58273">
        <ele>43.6</ele>
        <time>2020-06-22T19:30:41Z</time>
      </trkpt>
      <trkpt lat="50.86986" lon="1.58274">
        <ele>43.7</ele>
        <time>2020-06-22T19:30:42Z</time>
      </trkpt>
      <trkpt lat="50.86986" lon="1.58275">
        <ele>43.7</ele>
        <time>2020-06-22T19:30:43Z</time>
      </trkpt>
      <trkpt lat="50.86986" lon="1.58277">
        <ele>43.7</ele>
        <time>2020-06-22T19:30:44Z</time>
      </trkpt>
      <trkpt lat="50.86985" lon="1.58278">
        <ele>43.7</ele>
        <time>2020-06-22T19:30:45Z</time>
      </trkpt>
      <trkpt lat="50.86985" lon="1.5828">
        <ele>43.8</ele>
        <time>2020-06-22T19:30:46Z</time>
      </trkpt>
      <trkpt lat="50.86985" lon="1.5828">
        <ele>43.8</ele>
        <time>2020-06-22T19:30:47Z</time>
      </trkpt>
      <trkpt lat="50.86985" lon="1.5828">
        <ele>43.8</ele>
        <time>2020-06-22T19:30:48Z</time>
      </trkpt>
      <trkpt lat="50.86985" lon="1.5828">
        <ele>43.8</ele>
        <time>2020-06-22T19:30:49Z</time>
      </trkpt>
      <trkpt lat="50.86984" lon="1.58281">
        <ele>43.8</ele>
        <time>2020-06-22T19:30:50Z</time>
      </trkpt>
      <trkpt lat="50.86984" lon="1.58282">
        <ele>43.8</ele>
        <time>2020-06-22T19:30:51Z</time>
      </trkpt>
      <trkpt lat="50.86983" lon="1.58282">
        <ele>43.8</ele>
        <time>2020-06-22T19:30:52Z</time>
      </trkpt>
      <trkpt lat="50.86983" lon="1.58284">
        <ele>43.9</ele>
        <time>2020-06-22T19:30:53Z</time>
      </trkpt>
      <trkpt lat="50.86983" lon="1.58285">
        <ele>43.9</ele>
        <time>2020-06-22T19:30:54Z</time>
      </trkpt>
      <trkpt lat="50.86982" lon="1.58287">
        <ele>43.9</ele>
        <time>2020-06-22T19:30:55Z</time>
      </trkpt>
      <trkpt lat="50.86982" lon="1.58289">
        <ele>44</ele>
        <time>2020-06-22T19:30:56Z</time>
      </trkpt>
      <trkpt lat="50.86981" lon="1.58291">
        <ele>44</ele>
        <time>2020-06-22T19:30:57Z</time>
      </trkpt>
      <trkpt lat="50.86981" lon="1.58292">
        <ele>44</ele>
        <time>2020-06-22T19:30:58Z</time>
      </trkpt>
      <trkpt lat="50.86981" lon="1.58293">
        <ele>44</ele>
        <time>2020-06-22T19:30:59Z</time>
      </trkpt>
      <trkpt lat="50.8698" lon="1.58295">
        <ele>44</ele>
        <time>2020-06-22T19:31:00Z</time>
      </trkpt>
      <trkpt lat="50.8698" lon="1.58298">
        <ele>44.1</ele>
        <time>2020-06-22T19:31:01Z</time>
      </trkpt>
      <trkpt lat="50.8698" lon="1.583">
        <ele>44.1</ele>
        <time>2020-06-22T19:31:02Z</time>
      </trkpt>
      <trkpt lat="50.86979" lon="1.58302">
        <ele>44.1</ele>
        <time>2020-06-22T19:31:03Z</time>
      </trkpt>
      <trkpt lat="50.86979" lon="1.58303">
        <ele>44.1</ele>
        <time>2020-06-22T19:31:04Z</time>
      </trkpt>
      <trkpt lat="50.86979" lon="1.58305">
        <ele>44.1</ele>
        <time>2020-06-22T19:31:05Z</time>
      </trkpt>
      <trkpt lat="50.86979" lon="1.58306">
        <ele>44.1</ele>
        <time>2020-06-22T19:31:06Z</time>
      </trkpt>
      <trkpt lat="50.86978" lon="1.58307">
        <ele>44.1</ele>
        <time>2020-06-22T19:31:07Z</time>
      </trkpt>
      <trkpt lat="50.86978" lon="1.58308">
        <ele>44.1</ele>
        <time>2020-06-22T19:31:08Z</time>
      </trkpt>
      <trkpt lat="50.86978" lon="1.58309">
        <ele>44.1</ele>
        <time>2020-06-22T19:31:09Z</time>
      </trkpt>
      <trkpt lat="50.86978" lon="1.58311">
        <ele>44.1</ele>
        <time>2020-06-22T19:31:10Z</time>
      </trkpt>
      <trkpt lat="50.86978" lon="1.58311">
        <ele>44.1</ele>
        <time>2020-06-22T19:31:11Z</time>
      </trkpt>
      <trkpt lat="50.86978" lon="1.58313">
        <ele>44.1</ele>
        <time>2020-06-22T19:31:12Z</time>
      </trkpt>
      <trkpt lat="50.86977" lon="1.58315">
        <ele>44.1</ele>
        <time>2020-06-22T19:31:13Z</time>
      </trkpt>
      <trkpt lat="50.86977" lon="1.58318">
        <ele>44</ele>
        <time>2020-06-22T19:31:14Z</time>
      </trkpt>
      <trkpt lat="50.86977" lon="1.5832">
        <ele>44</ele>
        <time>2020-06-22T19:31:15Z</time>
      </trkpt>
      <trkpt lat="50.86977" lon="1.58321">
        <ele>44</ele>
        <time>2020-06-22T19:31:16Z</time>
      </trkpt>
      <trkpt lat="50.86977" lon="1.58322">
        <ele>44</ele>
        <time>2020-06-22T19:31:17Z</time>
      </trkpt>
      <trkpt lat="50.86977" lon="1.58324">
        <ele>44</ele>
        <time>2020-06-22T19:31:18Z</time>
      </trkpt>
      <trkpt lat="50.86978" lon="1.58325">
        <ele>44</ele>
        <time>2020-06-22T19:31:19Z</time>
      </trkpt>
      <trkpt lat="50.86978" lon="1.58325">
        <ele>44</ele>
        <time>2020-06-22T19:31:20Z</time>
      </trkpt>
      <trkpt lat="50.86978" lon="1.58328">
        <ele>43.9</ele>
        <time>2020-06-22T19:31:21Z</time>
      </trkpt>
      <trkpt lat="50.86978" lon="1.5833">
        <ele>43.9</ele>
        <time>2020-06-22T19:31:22Z</time>
      </trkpt>
      <trkpt lat="50.86978" lon="1.58331">
        <ele>43.9</ele>
        <time>2020-06-22T19:31:23Z</time>
      </trkpt>
      <trkpt lat="50.86978" lon="1.58331">
        <ele>43.9</ele>
        <time>2020-06-22T19:31:24Z</time>
      </trkpt>
      <trkpt lat="50.86978" lon="1.58331">
        <ele>43.9</ele>
        <time>2020-06-22T19:31:25Z</time>
      </trkpt>
      <trkpt lat="50.86978" lon="1.58331">
        <ele>43.9</ele>
        <time>2020-06-22T19:31:26Z</time>
      </trkpt>
      <trkpt lat="50.86978" lon="1.58332">
        <ele>43.9</ele>
        <time>2020-06-22T19:31:27Z</time>
      </trkpt>
      <trkpt lat="50.86978" lon="1.58333">
        <ele>43.8</ele>
        <time>2020-06-22T19:31:28Z</time>
      </trkpt>
      <trkpt lat="50.86978" lon="1.58334">
        <ele>43.8</ele>
        <time>2020-06-22T19:31:29Z</time>
      </trkpt>
      <trkpt lat="50.86978" lon="1.58334">
        <ele>43.8</ele>
        <time>2020-06-22T19:31:30Z</time>
      </trkpt>
      <trkpt lat="50.86979" lon="1.58335">
        <ele>43.8</ele>
        <time>2020-06-22T19:31:31Z</time>
      </trkpt>
      <trkpt lat="50.86979" lon="1.58337">
        <ele>43.8</ele>
        <time>2020-06-22T19:31:32Z</time>
      </trkpt>
      <trkpt lat="50.8698" lon="1.58338">
        <ele>43.8</ele>
        <time>2020-06-22T19:31:33Z</time>
      </trkpt>
      <trkpt lat="50.86981" lon="1.58339">
        <ele>43.8</ele>
        <time>2020-06-22T19:31:34Z</time>
      </trkpt>
      <trkpt lat="50.86981" lon="1.5834">
        <ele>43.7</ele>
        <time>2020-06-22T19:31:35Z</time>
      </trkpt>
      <trkpt lat="50.86982" lon="1.58342">
        <ele>43.7</ele>
        <time>2020-06-22T19:31:36Z</time>
      </trkpt>
      <trkpt lat="50.86982" lon="1.58344">
        <ele>43.7</ele>
        <time>2020-06-22T19:31:37Z</time>
      </trkpt>
      <trkpt lat="50.86982" lon="1.58345">
        <ele>43.7</ele>
        <time>2020-06-22T19:31:38Z</time>
      </trkpt>
      <trkpt lat="50.86983" lon="1.58345">
        <ele>43.7</ele>
        <time>2020-06-22T19:31:39Z</time>
      </trkpt>
      <trkpt lat="50.86983" lon="1.58346">
        <ele>43.6</ele>
        <time>2020-06-22T19:31:40Z</time>
      </trkpt>
      <trkpt lat="50.86983" lon="1.58348">
        <ele>43.6</ele>
        <time>2020-06-22T19:31:41Z</time>
      </trkpt>
      <trkpt lat="50.86984" lon="1.5835">
        <ele>43.4</ele>
        <time>2020-06-22T19:31:42Z</time>
      </trkpt>
      <trkpt lat="50.86984" lon="1.58351">
        <ele>43.4</ele>
        <time>2020-06-22T19:31:43Z</time>
      </trkpt>
      <trkpt lat="50.86985" lon="1.58352">
        <ele>43.3</ele>
        <time>2020-06-22T19:31:44Z</time>
      </trkpt>
      <trkpt lat="50.86986" lon="1.58354">
        <ele>43.3</ele>
        <time>2020-06-22T19:31:45Z</time>
      </trkpt>
      <trkpt lat="50.86987" lon="1.58355">
        <ele>43.2</ele>
        <time>2020-06-22T19:31:46Z</time>
      </trkpt>
      <trkpt lat="50.86987" lon="1.58357">
        <ele>43.1</ele>
        <time>2020-06-22T19:31:47Z</time>
      </trkpt>
      <trkpt lat="50.86987" lon="1.58358">
        <ele>43.1</ele>
        <time>2020-06-22T19:31:48Z</time>
      </trkpt>
      <trkpt lat="50.86987" lon="1.5836">
        <ele>43</ele>
        <time>2020-06-22T19:31:49Z</time>
      </trkpt>
      <trkpt lat="50.86988" lon="1.58361">
        <ele>42.9</ele>
        <time>2020-06-22T19:31:50Z</time>
      </trkpt>
      <trkpt lat="50.86988" lon="1.58362">
        <ele>42.9</ele>
        <time>2020-06-22T19:31:51Z</time>
      </trkpt>
      <trkpt lat="50.86989" lon="1.58364">
        <ele>42.8</ele>
        <time>2020-06-22T19:31:52Z</time>
      </trkpt>
      <trkpt lat="50.8699" lon="1.58365">
        <ele>42.7</ele>
        <time>2020-06-22T19:31:53Z</time>
      </trkpt>
      <trkpt lat="50.86991" lon="1.58368">
        <ele>42.6</ele>
        <time>2020-06-22T19:31:54Z</time>
      </trkpt>
      <trkpt lat="50.86991" lon="1.58369">
        <ele>42.5</ele>
        <time>2020-06-22T19:31:55Z</time>
      </trkpt>
      <trkpt lat="50.86992" lon="1.58371">
        <ele>42.4</ele>
        <time>2020-06-22T19:31:56Z</time>
      </trkpt>
      <trkpt lat="50.86993" lon="1.58373">
        <ele>42.3</ele>
        <time>2020-06-22T19:31:57Z</time>
      </trkpt>
      <trkpt lat="50.86994" lon="1.58375">
        <ele>42.2</ele>
        <time>2020-06-22T19:31:58Z</time>
      </trkpt>
      <trkpt lat="50.86995" lon="1.58377">
        <ele>42.1</ele>
        <time>2020-06-22T19:31:59Z</time>
      </trkpt>
      <trkpt lat="50.86996" lon="1.58378">
        <ele>42</ele>
        <time>2020-06-22T19:32:00Z</time>
      </trkpt>
      <trkpt lat="50.86996" lon="1.58381">
        <ele>41.9</ele>
        <time>2020-06-22T19:32:01Z</time>
      </trkpt>
      <trkpt lat="50.86997" lon="1.58382">
        <ele>41.8</ele>
        <time>2020-06-22T19:32:02Z</time>
      </trkpt>
      <trkpt lat="50.86998" lon="1.58383">
        <ele>41.7</ele>
        <time>2020-06-22T19:32:03Z</time>
      </trkpt>
      <trkpt lat="50.86998" lon="1.58384">
        <ele>41.7</ele>
        <time>2020-06-22T19:32:04Z</time>
      </trkpt>
      <trkpt lat="50.86999" lon="1.58385">
        <ele>41.6</ele>
        <time>2020-06-22T19:32:05Z</time>
      </trkpt>
      <trkpt lat="50.86998" lon="1.58386">
        <ele>41.6</ele>
        <time>2020-06-22T19:32:06Z</time>
      </trkpt>
      <trkpt lat="50.86998" lon="1.58387">
        <ele>41.5</ele>
        <time>2020-06-22T19:32:07Z</time>
      </trkpt>
      <trkpt lat="50.86998" lon="1.58389">
        <ele>41.5</ele>
        <time>2020-06-22T19:32:08Z</time>
      </trkpt>
      <trkpt lat="50.86998" lon="1.5839">
        <ele>41.4</ele>
        <time>2020-06-22T19:32:09Z</time>
      </trkpt>
      <trkpt lat="50.86998" lon="1.58392">
        <ele>41.4</ele>
        <time>2020-06-22T19:32:10Z</time>
      </trkpt>
      <trkpt lat="50.86998" lon="1.58393">
        <ele>41.3</ele>
        <time>2020-06-22T19:32:11Z</time>
      </trkpt>
      <trkpt lat="50.86998" lon="1.58396">
        <ele>41</ele>
        <time>2020-06-22T19:32:12Z</time>
      </trkpt>
      <trkpt lat="50.86997" lon="1.58399">
        <ele>40.9</ele>
        <time>2020-06-22T19:32:13Z</time>
      </trkpt>
      <trkpt lat="50.86996" lon="1.58401">
        <ele>40.9</ele>
        <time>2020-06-22T19:32:14Z</time>
      </trkpt>
      <trkpt lat="50.86996" lon="1.58403">
        <ele>40.9</ele>
        <time>2020-06-22T19:32:15Z</time>
      </trkpt>
      <trkpt lat="50.86996" lon="1.58404">
        <ele>40.9</ele>
        <time>2020-06-22T19:32:16Z</time>
      </trkpt>
      <trkpt lat="50.86995" lon="1.58406">
        <ele>40.9</ele>
        <time>2020-06-22T19:32:17Z</time>
      </trkpt>
      <trkpt lat="50.86994" lon="1.58408">
        <ele>40.9</ele>
        <time>2020-06-22T19:32:18Z</time>
      </trkpt>
      <trkpt lat="50.86993" lon="1.58409">
        <ele>40.9</ele>
        <time>2020-06-22T19:32:19Z</time>
      </trkpt>
      <trkpt lat="50.86993" lon="1.58411">
        <ele>40.9</ele>
        <time>2020-06-22T19:32:20Z</time>
      </trkpt>
      <trkpt lat="50.86992" lon="1.58414">
        <ele>41</ele>
        <time>2020-06-22T19:32:21Z</time>
      </trkpt>
      <trkpt lat="50.86992" lon="1.58417">
        <ele>41</ele>
        <time>2020-06-22T19:32:22Z</time>
      </trkpt>
      <trkpt lat="50.86991" lon="1.58419">
        <ele>41</ele>
        <time>2020-06-22T19:32:23Z</time>
      </trkpt>
      <trkpt lat="50.86991" lon="1.58421">
        <ele>41</ele>
        <time>2020-06-22T19:32:24Z</time>
      </trkpt>
      <trkpt lat="50.86991" lon="1.58426">
        <ele>41</ele>
        <time>2020-06-22T19:32:25Z</time>
      </trkpt>
      <trkpt lat="50.86991" lon="1.58428">
        <ele>41.1</ele>
        <time>2020-06-22T19:32:26Z</time>
      </trkpt>
      <trkpt lat="50.86992" lon="1.58433">
        <ele>41.1</ele>
        <time>2020-06-22T19:32:27Z</time>
      </trkpt>
      <trkpt lat="50.86991" lon="1.58434">
        <ele>41.1</ele>
        <time>2020-06-22T19:32:28Z</time>
      </trkpt>
      <trkpt lat="50.86991" lon="1.58439">
        <ele>41.1</ele>
        <time>2020-06-22T19:32:29Z</time>
      </trkpt>
      <trkpt lat="50.86992" lon="1.58443">
        <ele>41.2</ele>
        <time>2020-06-22T19:32:30Z</time>
      </trkpt>
      <trkpt lat="50.86992" lon="1.58445">
        <ele>41.2</ele>
        <time>2020-06-22T19:32:31Z</time>
      </trkpt>
      <trkpt lat="50.86992" lon="1.58447">
        <ele>41.2</ele>
        <time>2020-06-22T19:32:32Z</time>
      </trkpt>
      <trkpt lat="50.86992" lon="1.58449">
        <ele>41.3</ele>
        <time>2020-06-22T19:32:33Z</time>
      </trkpt>
      <trkpt lat="50.86991" lon="1.58452">
        <ele>41.3</ele>
        <time>2020-06-22T19:32:34Z</time>
      </trkpt>
      <trkpt lat="50.86992" lon="1.58452">
        <ele>41.3</ele>
        <time>2020-06-22T19:32:35Z</time>
      </trkpt>
      <trkpt lat="50.86992" lon="1.58451">
        <ele>41.3</ele>
        <time>2020-06-22T19:32:36Z</time>
      </trkpt>
      <trkpt lat="50.86992" lon="1.58452">
        <ele>41.3</ele>
        <time>2020-06-22T19:32:37Z</time>
      </trkpt>
      <trkpt lat="50.86992" lon="1.58452">
        <ele>41.3</ele>
        <time>2020-06-22T19:32:38Z</time>
      </trkpt>
      <trkpt lat="50.86992" lon="1.58452">
        <ele>41.3</ele>
        <time>2020-06-22T19:32:39Z</time>
      </trkpt>
      <trkpt lat="50.86992" lon="1.58452">
        <ele>41.3</ele>
        <time>2020-06-22T19:32:40Z</time>
      </trkpt>
      <trkpt lat="50.86992" lon="1.58452">
        <ele>41.3</ele>
        <time>2020-06-22T19:32:41Z</time>
      </trkpt>
      <trkpt lat="50.86992" lon="1.58452">
        <ele>41.3</ele>
        <time>2020-06-22T19:32:42Z</time>
      </trkpt>
      <trkpt lat="50.86992" lon="1.58452">
        <ele>41.3</ele>
        <time>2020-06-22T19:32:43Z</time>
      </trkpt>
      <trkpt lat="50.86992" lon="1.58452">
        <ele>41.3</ele>
        <time>2020-06-22T19:32:44Z</time>
      </trkpt>
      <trkpt lat="50.86992" lon="1.58452">
        <ele>41.4</ele>
        <time>2020-06-22T19:32:45Z</time>
      </trkpt>
      <trkpt lat="50.86992" lon="1.58453">
        <ele>41.4</ele>
        <time>2020-06-22T19:32:46Z</time>
      </trkpt>
      <trkpt lat="50.86992" lon="1.58455">
        <ele>41.4</ele>
        <time>2020-06-22T19:32:47Z</time>
      </trkpt>
      <trkpt lat="50.86991" lon="1.58457">
        <ele>41.4</ele>
        <time>2020-06-22T19:32:48Z</time>
      </trkpt>
      <trkpt lat="50.8699" lon="1.58459">
        <ele>41.5</ele>
        <time>2020-06-22T19:32:49Z</time>
      </trkpt>
      <trkpt lat="50.86989" lon="1.58461">
        <ele>41.5</ele>
        <time>2020-06-22T19:32:50Z</time>
      </trkpt>
      <trkpt lat="50.86989" lon="1.58464">
        <ele>41.6</ele>
        <time>2020-06-22T19:32:51Z</time>
      </trkpt>
      <trkpt lat="50.86988" lon="1.58465">
        <ele>41.6</ele>
        <time>2020-06-22T19:32:52Z</time>
      </trkpt>
      <trkpt lat="50.86988" lon="1.58467">
        <ele>41.6</ele>
        <time>2020-06-22T19:32:53Z</time>
      </trkpt>
      <trkpt lat="50.86987" lon="1.58471">
        <ele>41.7</ele>
        <time>2020-06-22T19:32:54Z</time>
      </trkpt>
      <trkpt lat="50.86987" lon="1.58472">
        <ele>41.7</ele>
        <time>2020-06-22T19:32:55Z</time>
      </trkpt>
      <trkpt lat="50.86986" lon="1.58473">
        <ele>41.8</ele>
        <time>2020-06-22T19:32:56Z</time>
      </trkpt>
      <trkpt lat="50.86985" lon="1.58476">
        <ele>41.8</ele>
        <time>2020-06-22T19:32:57Z</time>
      </trkpt>
      <trkpt lat="50.86985" lon="1.58478">
        <ele>41.9</ele>
        <time>2020-06-22T19:32:58Z</time>
      </trkpt>
      <trkpt lat="50.86985" lon="1.5848">
        <ele>41.9</ele>
        <time>2020-06-22T19:32:59Z</time>
      </trkpt>
      <trkpt lat="50.86984" lon="1.58481">
        <ele>41.9</ele>
        <time>2020-06-22T19:33:00Z</time>
      </trkpt>
      <trkpt lat="50.86985" lon="1.58483">
        <ele>41.9</ele>
        <time>2020-06-22T19:33:01Z</time>
      </trkpt>
      <trkpt lat="50.86984" lon="1.58484">
        <ele>42</ele>
        <time>2020-06-22T19:33:02Z</time>
      </trkpt>
      <trkpt lat="50.86984" lon="1.58487">
        <ele>42</ele>
        <time>2020-06-22T19:33:03Z</time>
      </trkpt>
      <trkpt lat="50.86984" lon="1.58489">
        <ele>42.1</ele>
        <time>2020-06-22T19:33:04Z</time>
      </trkpt>
      <trkpt lat="50.86984" lon="1.58491">
        <ele>42.1</ele>
        <time>2020-06-22T19:33:05Z</time>
      </trkpt>
      <trkpt lat="50.86984" lon="1.58493">
        <ele>42.1</ele>
        <time>2020-06-22T19:33:06Z</time>
      </trkpt>
      <trkpt lat="50.86984" lon="1.58494">
        <ele>42.2</ele>
        <time>2020-06-22T19:33:07Z</time>
      </trkpt>
      <trkpt lat="50.86984" lon="1.58495">
        <ele>42.2</ele>
        <time>2020-06-22T19:33:08Z</time>
      </trkpt>
      <trkpt lat="50.86983" lon="1.58497">
        <ele>42.2</ele>
        <time>2020-06-22T19:33:09Z</time>
      </trkpt>
      <trkpt lat="50.86983" lon="1.58499">
        <ele>42.2</ele>
        <time>2020-06-22T19:33:10Z</time>
      </trkpt>
      <trkpt lat="50.86983" lon="1.58501">
        <ele>42.3</ele>
        <time>2020-06-22T19:33:11Z</time>
      </trkpt>
      <trkpt lat="50.86983" lon="1.58502">
        <ele>42.3</ele>
        <time>2020-06-22T19:33:12Z</time>
      </trkpt>
      <trkpt lat="50.86983" lon="1.58504">
        <ele>42.3</ele>
        <time>2020-06-22T19:33:13Z</time>
      </trkpt>
      <trkpt lat="50.86983" lon="1.58506">
        <ele>42.4</ele>
        <time>2020-06-22T19:33:14Z</time>
      </trkpt>
      <trkpt lat="50.86983" lon="1.58508">
        <ele>42.4</ele>
        <time>2020-06-22T19:33:15Z</time>
      </trkpt>
      <trkpt lat="50.86983" lon="1.58511">
        <ele>42.5</ele>
        <time>2020-06-22T19:33:16Z</time>
      </trkpt>
      <trkpt lat="50.86983" lon="1.58513">
        <ele>42.5</ele>
        <time>2020-06-22T19:33:17Z</time>
      </trkpt>
      <trkpt lat="50.86983" lon="1.58515">
        <ele>42.6</ele>
        <time>2020-06-22T19:33:18Z</time>
      </trkpt>
      <trkpt lat="50.86983" lon="1.58517">
        <ele>42.6</ele>
        <time>2020-06-22T19:33:19Z</time>
      </trkpt>
      <trkpt lat="50.86983" lon="1.5852">
        <ele>42.6</ele>
        <time>2020-06-22T19:33:20Z</time>
      </trkpt>
      <trkpt lat="50.86983" lon="1.58522">
        <ele>42.7</ele>
        <time>2020-06-22T19:33:21Z</time>
      </trkpt>
      <trkpt lat="50.86983" lon="1.58523">
        <ele>42.7</ele>
        <time>2020-06-22T19:33:22Z</time>
      </trkpt>
      <trkpt lat="50.86984" lon="1.58524">
        <ele>42.7</ele>
        <time>2020-06-22T19:33:23Z</time>
      </trkpt>
      <trkpt lat="50.86984" lon="1.58527">
        <ele>42.7</ele>
        <time>2020-06-22T19:33:24Z</time>
      </trkpt>
      <trkpt lat="50.86984" lon="1.58528">
        <ele>42.8</ele>
        <time>2020-06-22T19:33:25Z</time>
      </trkpt>
      <trkpt lat="50.86984" lon="1.5853">
        <ele>42.8</ele>
        <time>2020-06-22T19:33:26Z</time>
      </trkpt>
      <trkpt lat="50.86984" lon="1.58532">
        <ele>42.8</ele>
        <time>2020-06-22T19:33:27Z</time>
      </trkpt>
      <trkpt lat="50.86984" lon="1.58534">
        <ele>42.9</ele>
        <time>2020-06-22T19:33:28Z</time>
      </trkpt>
      <trkpt lat="50.86984" lon="1.58537">
        <ele>42.9</ele>
        <time>2020-06-22T19:33:29Z</time>
      </trkpt>
      <trkpt lat="50.86984" lon="1.58539">
        <ele>42.9</ele>
        <time>2020-06-22T19:33:30Z</time>
      </trkpt>
      <trkpt lat="50.86984" lon="1.5854">
        <ele>43</ele>
        <time>2020-06-22T19:33:31Z</time>
      </trkpt>
      <trkpt lat="50.86984" lon="1.58543">
        <ele>43</ele>
        <time>2020-06-22T19:33:32Z</time>
      </trkpt>
      <trkpt lat="50.86984" lon="1.58544">
        <ele>43</ele>
        <time>2020-06-22T19:33:33Z</time>
      </trkpt>
      <trkpt lat="50.86984" lon="1.58546">
        <ele>43</ele>
        <time>2020-06-22T19:33:34Z</time>
      </trkpt>
      <trkpt lat="50.86984" lon="1.58547">
        <ele>43</ele>
        <time>2020-06-22T19:33:35Z</time>
      </trkpt>
      <trkpt lat="50.86983" lon="1.58549">
        <ele>43.1</ele>
        <time>2020-06-22T19:33:36Z</time>
      </trkpt>
      <trkpt lat="50.86983" lon="1.58551">
        <ele>43.1</ele>
        <time>2020-06-22T19:33:37Z</time>
      </trkpt>
      <trkpt lat="50.86982" lon="1.58552">
        <ele>43.1</ele>
        <time>2020-06-22T19:33:38Z</time>
      </trkpt>
      <trkpt lat="50.86982" lon="1.58554">
        <ele>43.1</ele>
        <time>2020-06-22T19:33:39Z</time>
      </trkpt>
      <trkpt lat="50.86982" lon="1.58556">
        <ele>43.1</ele>
        <time>2020-06-22T19:33:40Z</time>
      </trkpt>
      <trkpt lat="50.86981" lon="1.58557">
        <ele>43.2</ele>
        <time>2020-06-22T19:33:41Z</time>
      </trkpt>
      <trkpt lat="50.8698" lon="1.58558">
        <ele>43.2</ele>
        <time>2020-06-22T19:33:42Z</time>
      </trkpt>
      <trkpt lat="50.86979" lon="1.5856">
        <ele>43.2</ele>
        <time>2020-06-22T19:33:43Z</time>
      </trkpt>
      <trkpt lat="50.86977" lon="1.58561">
        <ele>43.3</ele>
        <time>2020-06-22T19:33:44Z</time>
      </trkpt>
      <trkpt lat="50.86976" lon="1.58561">
        <ele>43.3</ele>
        <time>2020-06-22T19:33:45Z</time>
      </trkpt>
      <trkpt lat="50.86976" lon="1.58562">
        <ele>43.3</ele>
        <time>2020-06-22T19:33:46Z</time>
      </trkpt>
      <trkpt lat="50.86974" lon="1.58563">
        <ele>43.3</ele>
        <time>2020-06-22T19:33:47Z</time>
      </trkpt>
      <trkpt lat="50.86973" lon="1.58564">
        <ele>43.3</ele>
        <time>2020-06-22T19:33:48Z</time>
      </trkpt>
      <trkpt lat="50.86972" lon="1.58564">
        <ele>43.4</ele>
        <time>2020-06-22T19:33:49Z</time>
      </trkpt>
      <trkpt lat="50.8697" lon="1.58565">
        <ele>43.4</ele>
        <time>2020-06-22T19:33:50Z</time>
      </trkpt>
      <trkpt lat="50.86969" lon="1.58566">
        <ele>43.4</ele>
        <time>2020-06-22T19:33:51Z</time>
      </trkpt>
      <trkpt lat="50.86968" lon="1.58568">
        <ele>43.5</ele>
        <time>2020-06-22T19:33:52Z</time>
      </trkpt>
      <trkpt lat="50.86967" lon="1.5857">
        <ele>43.5</ele>
        <time>2020-06-22T19:33:53Z</time>
      </trkpt>
      <trkpt lat="50.86966" lon="1.5857">
        <ele>43.5</ele>
        <time>2020-06-22T19:33:54Z</time>
      </trkpt>
      <trkpt lat="50.86966" lon="1.58571">
        <ele>43.5</ele>
        <time>2020-06-22T19:33:55Z</time>
      </trkpt>
      <trkpt lat="50.86967" lon="1.58571">
        <ele>43.5</ele>
        <time>2020-06-22T19:33:56Z</time>
      </trkpt>
      <trkpt lat="50.86967" lon="1.58571">
        <ele>43.5</ele>
        <time>2020-06-22T19:33:57Z</time>
      </trkpt>
      <trkpt lat="50.86967" lon="1.58571">
        <ele>43.5</ele>
        <time>2020-06-22T19:33:58Z</time>
      </trkpt>
      <trkpt lat="50.86967" lon="1.58571">
        <ele>43.5</ele>
        <time>2020-06-22T19:33:59Z</time>
      </trkpt>
      <trkpt lat="50.86967" lon="1.58571">
        <ele>43.5</ele>
        <time>2020-06-22T19:34:00Z</time>
      </trkpt>
      <trkpt lat="50.86966" lon="1.58571">
        <ele>43.5</ele>
        <time>2020-06-22T19:34:01Z</time>
      </trkpt>
      <trkpt lat="50.86966" lon="1.58572">
        <ele>43.5</ele>
        <time>2020-06-22T19:34:02Z</time>
      </trkpt>
      <trkpt lat="50.86965" lon="1.58574">
        <ele>43.5</ele>
        <time>2020-06-22T19:34:03Z</time>
      </trkpt>
      <trkpt lat="50.86964" lon="1.58575">
        <ele>43.6</ele>
        <time>2020-06-22T19:34:04Z</time>
      </trkpt>
      <trkpt lat="50.86963" lon="1.58575">
        <ele>43.6</ele>
        <time>2020-06-22T19:34:05Z</time>
      </trkpt>
      <trkpt lat="50.86962" lon="1.58576">
        <ele>43.6</ele>
        <time>2020-06-22T19:34:06Z</time>
      </trkpt>
      <trkpt lat="50.86962" lon="1.58578">
        <ele>43.6</ele>
        <time>2020-06-22T19:34:07Z</time>
      </trkpt>
      <trkpt lat="50.86961" lon="1.58578">
        <ele>43.6</ele>
        <time>2020-06-22T19:34:08Z</time>
      </trkpt>
      <trkpt lat="50.8696" lon="1.5858">
        <ele>43.6</ele>
        <time>2020-06-22T19:34:09Z</time>
      </trkpt>
      <trkpt lat="50.8696" lon="1.5858">
        <ele>43.6</ele>
        <time>2020-06-22T19:34:10Z</time>
      </trkpt>
      <trkpt lat="50.86959" lon="1.5858">
        <ele>43.6</ele>
        <time>2020-06-22T19:34:11Z</time>
      </trkpt>
      <trkpt lat="50.86959" lon="1.5858">
        <ele>43.6</ele>
        <time>2020-06-22T19:34:12Z</time>
      </trkpt>
      <trkpt lat="50.86959" lon="1.5858">
        <ele>43.6</ele>
        <time>2020-06-22T19:34:13Z</time>
      </trkpt>
      <trkpt lat="50.86959" lon="1.5858">
        <ele>43.6</ele>
        <time>2020-06-22T19:34:14Z</time>
      </trkpt>
      <trkpt lat="50.86959" lon="1.5858">
        <ele>43.6</ele>
        <time>2020-06-22T19:34:15Z</time>
      </trkpt>
      <trkpt lat="50.86959" lon="1.5858">
        <ele>43.6</ele>
        <time>2020-06-22T19:34:16Z</time>
      </trkpt>
      <trkpt lat="50.86959" lon="1.58581">
        <ele>43.6</ele>
        <time>2020-06-22T19:34:17Z</time>
      </trkpt>
      <trkpt lat="50.86959" lon="1.58582">
        <ele>43.7</ele>
        <time>2020-06-22T19:34:18Z</time>
      </trkpt>
      <trkpt lat="50.86959" lon="1.58584">
        <ele>43.7</ele>
        <time>2020-06-22T19:34:19Z</time>
      </trkpt>
      <trkpt lat="50.86959" lon="1.58585">
        <ele>43.7</ele>
        <time>2020-06-22T19:34:20Z</time>
      </trkpt>
      <trkpt lat="50.86959" lon="1.58587">
        <ele>43.7</ele>
        <time>2020-06-22T19:34:21Z</time>
      </trkpt>
      <trkpt lat="50.86959" lon="1.58588">
        <ele>43.7</ele>
        <time>2020-06-22T19:34:22Z</time>
      </trkpt>
      <trkpt lat="50.86959" lon="1.58589">
        <ele>43.7</ele>
        <time>2020-06-22T19:34:23Z</time>
      </trkpt>
      <trkpt lat="50.86958" lon="1.5859">
        <ele>43.7</ele>
        <time>2020-06-22T19:34:24Z</time>
      </trkpt>
      <trkpt lat="50.86958" lon="1.58592">
        <ele>43.7</ele>
        <time>2020-06-22T19:34:25Z</time>
      </trkpt>
      <trkpt lat="50.86958" lon="1.58593">
        <ele>43.7</ele>
        <time>2020-06-22T19:34:26Z</time>
      </trkpt>
      <trkpt lat="50.86959" lon="1.58594">
        <ele>43.7</ele>
        <time>2020-06-22T19:34:27Z</time>
      </trkpt>
      <trkpt lat="50.86959" lon="1.58596">
        <ele>43.7</ele>
        <time>2020-06-22T19:34:28Z</time>
      </trkpt>
      <trkpt lat="50.86959" lon="1.58597">
        <ele>43.7</ele>
        <time>2020-06-22T19:34:29Z</time>
      </trkpt>
      <trkpt lat="50.86959" lon="1.58598">
        <ele>43.7</ele>
        <time>2020-06-22T19:34:30Z</time>
      </trkpt>
      <trkpt lat="50.86958" lon="1.586">
        <ele>43.7</ele>
        <time>2020-06-22T19:34:31Z</time>
      </trkpt>
      <trkpt lat="50.86957" lon="1.58601">
        <ele>43.7</ele>
        <time>2020-06-22T19:34:32Z</time>
      </trkpt>
      <trkpt lat="50.86957" lon="1.58602">
        <ele>43.7</ele>
        <time>2020-06-22T19:34:33Z</time>
      </trkpt>
      <trkpt lat="50.86956" lon="1.58604">
        <ele>43.7</ele>
        <time>2020-06-22T19:34:34Z</time>
      </trkpt>
      <trkpt lat="50.86955" lon="1.58606">
        <ele>43.7</ele>
        <time>2020-06-22T19:34:35Z</time>
      </trkpt>
      <trkpt lat="50.86955" lon="1.58607">
        <ele>43.7</ele>
        <time>2020-06-22T19:34:36Z</time>
      </trkpt>
      <trkpt lat="50.86955" lon="1.58608">
        <ele>43.7</ele>
        <time>2020-06-22T19:34:37Z</time>
      </trkpt>
      <trkpt lat="50.86955" lon="1.5861">
        <ele>43.7</ele>
        <time>2020-06-22T19:34:38Z</time>
      </trkpt>
      <trkpt lat="50.86955" lon="1.58612">
        <ele>43.6</ele>
        <time>2020-06-22T19:34:39Z</time>
      </trkpt>
      <trkpt lat="50.86956" lon="1.58613">
        <ele>43.6</ele>
        <time>2020-06-22T19:34:40Z</time>
      </trkpt>
      <trkpt lat="50.86956" lon="1.58614">
        <ele>43.6</ele>
        <time>2020-06-22T19:34:41Z</time>
      </trkpt>
      <trkpt lat="50.86956" lon="1.58615">
        <ele>43.6</ele>
        <time>2020-06-22T19:34:42Z</time>
      </trkpt>
      <trkpt lat="50.86956" lon="1.58615">
        <ele>43.6</ele>
        <time>2020-06-22T19:34:43Z</time>
      </trkpt>
      <trkpt lat="50.86956" lon="1.58616">
        <ele>43.6</ele>
        <time>2020-06-22T19:34:44Z</time>
      </trkpt>
      <trkpt lat="50.86956" lon="1.58617">
        <ele>43.6</ele>
        <time>2020-06-22T19:34:45Z</time>
      </trkpt>
      <trkpt lat="50.86955" lon="1.58618">
        <ele>43.6</ele>
        <time>2020-06-22T19:34:46Z</time>
      </trkpt>
      <trkpt lat="50.86955" lon="1.58619">
        <ele>43.6</ele>
        <time>2020-06-22T19:34:47Z</time>
      </trkpt>
      <trkpt lat="50.86954" lon="1.5862">
        <ele>43.6</ele>
        <time>2020-06-22T19:34:48Z</time>
      </trkpt>
      <trkpt lat="50.86954" lon="1.58621">
        <ele>43.6</ele>
        <time>2020-06-22T19:34:49Z</time>
      </trkpt>
      <trkpt lat="50.86954" lon="1.58622">
        <ele>43.6</ele>
        <time>2020-06-22T19:34:50Z</time>
      </trkpt>
      <trkpt lat="50.86955" lon="1.58623">
        <ele>43.5</ele>
        <time>2020-06-22T19:34:51Z</time>
      </trkpt>
      <trkpt lat="50.86955" lon="1.58623">
        <ele>43.5</ele>
        <time>2020-06-22T19:34:52Z</time>
      </trkpt>
      <trkpt lat="50.86955" lon="1.58623">
        <ele>43.5</ele>
        <time>2020-06-22T19:34:53Z</time>
      </trkpt>
      <trkpt lat="50.86955" lon="1.58623">
        <ele>43.5</ele>
        <time>2020-06-22T19:34:54Z</time>
      </trkpt>
      <trkpt lat="50.86955" lon="1.58623">
        <ele>43.5</ele>
        <time>2020-06-22T19:34:55Z</time>
      </trkpt>
      <trkpt lat="50.86955" lon="1.58623">
        <ele>43.5</ele>
        <time>2020-06-22T19:34:56Z</time>
      </trkpt>
      <trkpt lat="50.86954" lon="1.58624">
        <ele>43.5</ele>
        <time>2020-06-22T19:34:57Z</time>
      </trkpt>
      <trkpt lat="50.86954" lon="1.58625">
        <ele>43.5</ele>
        <time>2020-06-22T19:34:58Z</time>
      </trkpt>
      <trkpt lat="50.86955" lon="1.58626">
        <ele>43.5</ele>
        <time>2020-06-22T19:34:59Z</time>
      </trkpt>
      <trkpt lat="50.86955" lon="1.58628">
        <ele>43.5</ele>
        <time>2020-06-22T19:35:00Z</time>
      </trkpt>
      <trkpt lat="50.86955" lon="1.58629">
        <ele>43.5</ele>
        <time>2020-06-22T19:35:01Z</time>
      </trkpt>
      <trkpt lat="50.86955" lon="1.58631">
        <ele>43.5</ele>
        <time>2020-06-22T19:35:02Z</time>
      </trkpt>
      <trkpt lat="50.86954" lon="1.58632">
        <ele>43.4</ele>
        <time>2020-06-22T19:35:03Z</time>
      </trkpt>
      <trkpt lat="50.86954" lon="1.58633">
        <ele>43.4</ele>
        <time>2020-06-22T19:35:04Z</time>
      </trkpt>
      <trkpt lat="50.86954" lon="1.58634">
        <ele>43.4</ele>
        <time>2020-06-22T19:35:05Z</time>
      </trkpt>
      <trkpt lat="50.86954" lon="1.58635">
        <ele>43.4</ele>
        <time>2020-06-22T19:35:06Z</time>
      </trkpt>
      <trkpt lat="50.86953" lon="1.58637">
        <ele>43.4</ele>
        <time>2020-06-22T19:35:07Z</time>
      </trkpt>
      <trkpt lat="50.86953" lon="1.58638">
        <ele>43.4</ele>
        <time>2020-06-22T19:35:08Z</time>
      </trkpt>
      <trkpt lat="50.86952" lon="1.58639">
        <ele>43.3</ele>
        <time>2020-06-22T19:35:09Z</time>
      </trkpt>
      <trkpt lat="50.86952" lon="1.58642">
        <ele>43.3</ele>
        <time>2020-06-22T19:35:10Z</time>
      </trkpt>
      <trkpt lat="50.86951" lon="1.58643">
        <ele>43.3</ele>
        <time>2020-06-22T19:35:11Z</time>
      </trkpt>
      <trkpt lat="50.8695" lon="1.58646">
        <ele>43.3</ele>
        <time>2020-06-22T19:35:12Z</time>
      </trkpt>
      <trkpt lat="50.86949" lon="1.58647">
        <ele>43.3</ele>
        <time>2020-06-22T19:35:13Z</time>
      </trkpt>
      <trkpt lat="50.86949" lon="1.58647">
        <ele>43.3</ele>
        <time>2020-06-22T19:35:14Z</time>
      </trkpt>
      <trkpt lat="50.86949" lon="1.58648">
        <ele>43.2</ele>
        <time>2020-06-22T19:35:15Z</time>
      </trkpt>
      <trkpt lat="50.86948" lon="1.5865">
        <ele>43.2</ele>
        <time>2020-06-22T19:35:16Z</time>
      </trkpt>
      <trkpt lat="50.86948" lon="1.58652">
        <ele>43.2</ele>
        <time>2020-06-22T19:35:17Z</time>
      </trkpt>
      <trkpt lat="50.86947" lon="1.58653">
        <ele>43.2</ele>
        <time>2020-06-22T19:35:18Z</time>
      </trkpt>
      <trkpt lat="50.86947" lon="1.58655">
        <ele>43.2</ele>
        <time>2020-06-22T19:35:19Z</time>
      </trkpt>
      <trkpt lat="50.86946" lon="1.58657">
        <ele>43.2</ele>
        <time>2020-06-22T19:35:20Z</time>
      </trkpt>
      <trkpt lat="50.86946" lon="1.58658">
        <ele>43.2</ele>
        <time>2020-06-22T19:35:21Z</time>
      </trkpt>
      <trkpt lat="50.86946" lon="1.58659">
        <ele>43.2</ele>
        <time>2020-06-22T19:35:22Z</time>
      </trkpt>
      <trkpt lat="50.86945" lon="1.5866">
        <ele>43.2</ele>
        <time>2020-06-22T19:35:23Z</time>
      </trkpt>
      <trkpt lat="50.86945" lon="1.58661">
        <ele>43.2</ele>
        <time>2020-06-22T19:35:24Z</time>
      </trkpt>
      <trkpt lat="50.86945" lon="1.58663">
        <ele>43.2</ele>
        <time>2020-06-22T19:35:25Z</time>
      </trkpt>
      <trkpt lat="50.86945" lon="1.58664">
        <ele>43.1</ele>
        <time>2020-06-22T19:35:26Z</time>
      </trkpt>
      <trkpt lat="50.86944" lon="1.58665">
        <ele>43.1</ele>
        <time>2020-06-22T19:35:27Z</time>
      </trkpt>
      <trkpt lat="50.86943" lon="1.58667">
        <ele>43.1</ele>
        <time>2020-06-22T19:35:28Z</time>
      </trkpt>
      <trkpt lat="50.86942" lon="1.58668">
        <ele>43.1</ele>
        <time>2020-06-22T19:35:29Z</time>
      </trkpt>
      <trkpt lat="50.86943" lon="1.58669">
        <ele>43.1</ele>
        <time>2020-06-22T19:35:30Z</time>
      </trkpt>
      <trkpt lat="50.86942" lon="1.5867">
        <ele>43.1</ele>
        <time>2020-06-22T19:35:31Z</time>
      </trkpt>
      <trkpt lat="50.86942" lon="1.58671">
        <ele>43.1</ele>
        <time>2020-06-22T19:35:32Z</time>
      </trkpt>
      <trkpt lat="50.86942" lon="1.58672">
        <ele>43.1</ele>
        <time>2020-06-22T19:35:33Z</time>
      </trkpt>
      <trkpt lat="50.86941" lon="1.58673">
        <ele>43.1</ele>
        <time>2020-06-22T19:35:34Z</time>
      </trkpt>
      <trkpt lat="50.86941" lon="1.58672">
        <ele>43.1</ele>
        <time>2020-06-22T19:35:35Z</time>
      </trkpt>
      <trkpt lat="50.86941" lon="1.58673">
        <ele>43.1</ele>
        <time>2020-06-22T19:35:36Z</time>
      </trkpt>
      <trkpt lat="50.86941" lon="1.58673">
        <ele>43.1</ele>
        <time>2020-06-22T19:35:37Z</time>
      </trkpt>
      <trkpt lat="50.86941" lon="1.58673">
        <ele>43.1</ele>
        <time>2020-06-22T19:35:38Z</time>
      </trkpt>
      <trkpt lat="50.8694" lon="1.58673">
        <ele>43.1</ele>
        <time>2020-06-22T19:35:39Z</time>
      </trkpt>
      <trkpt lat="50.8694" lon="1.58673">
        <ele>43.1</ele>
        <time>2020-06-22T19:35:40Z</time>
      </trkpt>
      <trkpt lat="50.8694" lon="1.58674">
        <ele>43.1</ele>
        <time>2020-06-22T19:35:41Z</time>
      </trkpt>
      <trkpt lat="50.8694" lon="1.58675">
        <ele>43.1</ele>
        <time>2020-06-22T19:35:42Z</time>
      </trkpt>
      <trkpt lat="50.8694" lon="1.58676">
        <ele>43.1</ele>
        <time>2020-06-22T19:35:43Z</time>
      </trkpt>
      <trkpt lat="50.86939" lon="1.58677">
        <ele>43.1</ele>
        <time>2020-06-22T19:35:44Z</time>
      </trkpt>
      <trkpt lat="50.86939" lon="1.58679">
        <ele>43.1</ele>
        <time>2020-06-22T19:35:45Z</time>
      </trkpt>
      <trkpt lat="50.86939" lon="1.5868">
        <ele>43.1</ele>
        <time>2020-06-22T19:35:46Z</time>
      </trkpt>
      <trkpt lat="50.86938" lon="1.58682">
        <ele>43.1</ele>
        <time>2020-06-22T19:35:47Z</time>
      </trkpt>
      <trkpt lat="50.86938" lon="1.58683">
        <ele>43.1</ele>
        <time>2020-06-22T19:35:48Z</time>
      </trkpt>
      <trkpt lat="50.86937" lon="1.58685">
        <ele>43</ele>
        <time>2020-06-22T19:35:49Z</time>
      </trkpt>
      <trkpt lat="50.86936" lon="1.58686">
        <ele>43</ele>
        <time>2020-06-22T19:35:50Z</time>
      </trkpt>
      <trkpt lat="50.86936" lon="1.58688">
        <ele>43</ele>
        <time>2020-06-22T19:35:51Z</time>
      </trkpt>
      <trkpt lat="50.86935" lon="1.58689">
        <ele>43</ele>
        <time>2020-06-22T19:35:52Z</time>
      </trkpt>
      <trkpt lat="50.86934" lon="1.58691">
        <ele>43</ele>
        <time>2020-06-22T19:35:53Z</time>
      </trkpt>
      <trkpt lat="50.86934" lon="1.58692">
        <ele>43</ele>
        <time>2020-06-22T19:35:54Z</time>
      </trkpt>
      <trkpt lat="50.86934" lon="1.58693">
        <ele>42.9</ele>
        <time>2020-06-22T19:35:55Z</time>
      </trkpt>
      <trkpt lat="50.86933" lon="1.58695">
        <ele>42.9</ele>
        <time>2020-06-22T19:35:56Z</time>
      </trkpt>
      <trkpt lat="50.86933" lon="1.58697">
        <ele>42.9</ele>
        <time>2020-06-22T19:35:57Z</time>
      </trkpt>
      <trkpt lat="50.86934" lon="1.587">
        <ele>42.9</ele>
        <time>2020-06-22T19:35:58Z</time>
      </trkpt>
      <trkpt lat="50.86934" lon="1.58702">
        <ele>42.9</ele>
        <time>2020-06-22T19:35:59Z</time>
      </trkpt>
      <trkpt lat="50.86935" lon="1.58705">
        <ele>42.7</ele>
        <time>2020-06-22T19:36:00Z</time>
      </trkpt>
      <trkpt lat="50.86935" lon="1.58706">
        <ele>42.7</ele>
        <time>2020-06-22T19:36:01Z</time>
      </trkpt>
      <trkpt lat="50.86935" lon="1.58707">
        <ele>42.7</ele>
        <time>2020-06-22T19:36:02Z</time>
      </trkpt>
      <trkpt lat="50.86936" lon="1.58708">
        <ele>42.7</ele>
        <time>2020-06-22T19:36:03Z</time>
      </trkpt>
      <trkpt lat="50.86936" lon="1.5871">
        <ele>42.7</ele>
        <time>2020-06-22T19:36:04Z</time>
      </trkpt>
      <trkpt lat="50.86937" lon="1.58711">
        <ele>42.7</ele>
        <time>2020-06-22T19:36:05Z</time>
      </trkpt>
      <trkpt lat="50.86937" lon="1.58712">
        <ele>42.7</ele>
        <time>2020-06-22T19:36:06Z</time>
      </trkpt>
      <trkpt lat="50.86938" lon="1.58713">
        <ele>42.8</ele>
        <time>2020-06-22T19:36:07Z</time>
      </trkpt>
      <trkpt lat="50.86938" lon="1.58715">
        <ele>42.8</ele>
        <time>2020-06-22T19:36:08Z</time>
      </trkpt>
      <trkpt lat="50.86939" lon="1.58717">
        <ele>42.8</ele>
        <time>2020-06-22T19:36:09Z</time>
      </trkpt>
      <trkpt lat="50.86939" lon="1.58718">
        <ele>42.8</ele>
        <time>2020-06-22T19:36:10Z</time>
      </trkpt>
      <trkpt lat="50.86939" lon="1.58719">
        <ele>42.8</ele>
        <time>2020-06-22T19:36:11Z</time>
      </trkpt>
      <trkpt lat="50.86939" lon="1.5872">
        <ele>42.8</ele>
        <time>2020-06-22T19:36:12Z</time>
      </trkpt>
      <trkpt lat="50.86939" lon="1.58722">
        <ele>42.8</ele>
        <time>2020-06-22T19:36:13Z</time>
      </trkpt>
      <trkpt lat="50.86938" lon="1.58723">
        <ele>42.8</ele>
        <time>2020-06-22T19:36:14Z</time>
      </trkpt>
      <trkpt lat="50.86937" lon="1.58724">
        <ele>42.8</ele>
        <time>2020-06-22T19:36:15Z</time>
      </trkpt>
      <trkpt lat="50.86935" lon="1.58726">
        <ele>42.8</ele>
        <time>2020-06-22T19:36:16Z</time>
      </trkpt>
      <trkpt lat="50.86935" lon="1.58726">
        <ele>42.8</ele>
        <time>2020-06-22T19:36:17Z</time>
      </trkpt>
      <trkpt lat="50.86934" lon="1.58727">
        <ele>42.8</ele>
        <time>2020-06-22T19:36:18Z</time>
      </trkpt>
      <trkpt lat="50.86933" lon="1.58727">
        <ele>42.8</ele>
        <time>2020-06-22T19:36:19Z</time>
      </trkpt>
      <trkpt lat="50.86931" lon="1.58727">
        <ele>42.9</ele>
        <time>2020-06-22T19:36:20Z</time>
      </trkpt>
      <trkpt lat="50.86931" lon="1.58727">
        <ele>42.9</ele>
        <time>2020-06-22T19:36:21Z</time>
      </trkpt>
      <trkpt lat="50.86929" lon="1.58728">
        <ele>42.9</ele>
        <time>2020-06-22T19:36:22Z</time>
      </trkpt>
      <trkpt lat="50.86928" lon="1.58729">
        <ele>42.9</ele>
        <time>2020-06-22T19:36:23Z</time>
      </trkpt>
      <trkpt lat="50.86928" lon="1.58729">
        <ele>42.9</ele>
        <time>2020-06-22T19:36:24Z</time>
      </trkpt>
      <trkpt lat="50.86926" lon="1.58728">
        <ele>43</ele>
        <time>2020-06-22T19:36:25Z</time>
      </trkpt>
      <trkpt lat="50.86925" lon="1.58728">
        <ele>43</ele>
        <time>2020-06-22T19:36:26Z</time>
      </trkpt>
      <trkpt lat="50.86924" lon="1.58728">
        <ele>43</ele>
        <time>2020-06-22T19:36:27Z</time>
      </trkpt>
      <trkpt lat="50.86922" lon="1.58728">
        <ele>43</ele>
        <time>2020-06-22T19:36:28Z</time>
      </trkpt>
      <trkpt lat="50.86921" lon="1.58727">
        <ele>43</ele>
        <time>2020-06-22T19:36:29Z</time>
      </trkpt>
      <trkpt lat="50.86919" lon="1.58727">
        <ele>43.1</ele>
        <time>2020-06-22T19:36:30Z</time>
      </trkpt>
      <trkpt lat="50.86918" lon="1.58727">
        <ele>43.1</ele>
        <time>2020-06-22T19:36:31Z</time>
      </trkpt>
      <trkpt lat="50.86917" lon="1.58727">
        <ele>43.1</ele>
        <time>2020-06-22T19:36:32Z</time>
      </trkpt>
      <trkpt lat="50.86915" lon="1.58726">
        <ele>43.1</ele>
        <time>2020-06-22T19:36:33Z</time>
      </trkpt>
      <trkpt lat="50.86914" lon="1.58726">
        <ele>43.2</ele>
        <time>2020-06-22T19:36:34Z</time>
      </trkpt>
      <trkpt lat="50.86913" lon="1.58726">
        <ele>43.2</ele>
        <time>2020-06-22T19:36:35Z</time>
      </trkpt>
      <trkpt lat="50.86911" lon="1.58726">
        <ele>43.2</ele>
        <time>2020-06-22T19:36:36Z</time>
      </trkpt>
      <trkpt lat="50.8691" lon="1.58726">
        <ele>43.2</ele>
        <time>2020-06-22T19:36:37Z</time>
      </trkpt>
      <trkpt lat="50.8691" lon="1.58726">
        <ele>43.2</ele>
        <time>2020-06-22T19:36:38Z</time>
      </trkpt>
      <trkpt lat="50.86908" lon="1.58725">
        <ele>43.3</ele>
        <time>2020-06-22T19:36:39Z</time>
      </trkpt>
      <trkpt lat="50.86907" lon="1.58726">
        <ele>43.3</ele>
        <time>2020-06-22T19:36:40Z</time>
      </trkpt>
      <trkpt lat="50.86906" lon="1.58725">
        <ele>43.3</ele>
        <time>2020-06-22T19:36:41Z</time>
      </trkpt>
      <trkpt lat="50.86906" lon="1.58725">
        <ele>43.3</ele>
        <time>2020-06-22T19:36:42Z</time>
      </trkpt>
      <trkpt lat="50.86906" lon="1.58725">
        <ele>43.3</ele>
        <time>2020-06-22T19:36:43Z</time>
      </trkpt>
      <trkpt lat="50.86905" lon="1.58724">
        <ele>43.3</ele>
        <time>2020-06-22T19:36:44Z</time>
      </trkpt>
      <trkpt lat="50.86904" lon="1.58724">
        <ele>43.3</ele>
        <time>2020-06-22T19:36:45Z</time>
      </trkpt>
      <trkpt lat="50.86904" lon="1.58724">
        <ele>43.3</ele>
        <time>2020-06-22T19:36:46Z</time>
      </trkpt>
      <trkpt lat="50.86903" lon="1.58723">
        <ele>43.3</ele>
        <time>2020-06-22T19:36:47Z</time>
      </trkpt>
      <trkpt lat="50.86903" lon="1.58722">
        <ele>43.4</ele>
        <time>2020-06-22T19:36:48Z</time>
      </trkpt>
      <trkpt lat="50.86902" lon="1.58722">
        <ele>43.4</ele>
        <time>2020-06-22T19:36:49Z</time>
      </trkpt>
      <trkpt lat="50.86902" lon="1.58721">
        <ele>43.4</ele>
        <time>2020-06-22T19:36:50Z</time>
      </trkpt>
      <trkpt lat="50.86902" lon="1.58719">
        <ele>43.4</ele>
        <time>2020-06-22T19:36:51Z</time>
      </trkpt>
      <trkpt lat="50.86902" lon="1.58719">
        <ele>43.4</ele>
        <time>2020-06-22T19:36:52Z</time>
      </trkpt>
      <trkpt lat="50.86902" lon="1.58718">
        <ele>43.4</ele>
        <time>2020-06-22T19:36:53Z</time>
      </trkpt>
      <trkpt lat="50.86902" lon="1.58718">
        <ele>43.4</ele>
        <time>2020-06-22T19:36:54Z</time>
      </trkpt>
      <trkpt lat="50.86902" lon="1.58718">
        <ele>43.4</ele>
        <time>2020-06-22T19:36:55Z</time>
      </trkpt>
      <trkpt lat="50.86901" lon="1.58718">
        <ele>43.4</ele>
        <time>2020-06-22T19:36:56Z</time>
      </trkpt>
      <trkpt lat="50.86901" lon="1.58718">
        <ele>43.4</ele>
        <time>2020-06-22T19:36:57Z</time>
      </trkpt>
      <trkpt lat="50.86901" lon="1.58718">
        <ele>43.4</ele>
        <time>2020-06-22T19:36:58Z</time>
      </trkpt>
      <trkpt lat="50.86901" lon="1.58717">
        <ele>43.4</ele>
        <time>2020-06-22T19:36:59Z</time>
      </trkpt>
      <trkpt lat="50.86901" lon="1.58717">
        <ele>43.4</ele>
        <time>2020-06-22T19:37:00Z</time>
      </trkpt>
      <trkpt lat="50.86901" lon="1.58718">
        <ele>43.4</ele>
        <time>2020-06-22T19:37:01Z</time>
      </trkpt>
      <trkpt lat="50.86901" lon="1.58718">
        <ele>43.4</ele>
        <time>2020-06-22T19:37:02Z</time>
      </trkpt>
      <trkpt lat="50.86901" lon="1.58718">
        <ele>43.4</ele>
        <time>2020-06-22T19:37:03Z</time>
      </trkpt>
      <trkpt lat="50.86901" lon="1.58718">
        <ele>43.4</ele>
        <time>2020-06-22T19:37:04Z</time>
      </trkpt>
      <trkpt lat="50.86901" lon="1.58718">
        <ele>43.4</ele>
        <time>2020-06-22T19:37:05Z</time>
      </trkpt>
      <trkpt lat="50.86901" lon="1.58717">
        <ele>43.4</ele>
        <time>2020-06-22T19:37:06Z</time>
      </trkpt>
      <trkpt lat="50.86901" lon="1.58717">
        <ele>43.4</ele>
        <time>2020-06-22T19:37:07Z</time>
      </trkpt>
      <trkpt lat="50.86901" lon="1.58717">
        <ele>43.4</ele>
        <time>2020-06-22T19:37:08Z</time>
      </trkpt>
      <trkpt lat="50.86901" lon="1.58717">
        <ele>43.4</ele>
        <time>2020-06-22T19:37:09Z</time>
      </trkpt>
      <trkpt lat="50.86901" lon="1.58718">
        <ele>43.4</ele>
        <time>2020-06-22T19:37:10Z</time>
      </trkpt>
      <trkpt lat="50.86895" lon="1.58717">
        <ele>43.5</ele>
        <time>2020-06-22T19:42:25Z</time>
      </trkpt>
      <trkpt lat="50.86893" lon="1.58717">
        <ele>43.5</ele>
        <time>2020-06-22T19:42:26Z</time>
      </trkpt>
      <trkpt lat="50.86891" lon="1.58716">
        <ele>43.5</ele>
        <time>2020-06-22T19:42:27Z</time>
      </trkpt>
      <trkpt lat="50.86887" lon="1.58713">
        <ele>43.6</ele>
        <time>2020-06-22T19:42:28Z</time>
      </trkpt>
      <trkpt lat="50.86884" lon="1.58709">
        <ele>43.6</ele>
        <time>2020-06-22T19:42:29Z</time>
      </trkpt>
      <trkpt lat="50.86879" lon="1.58707">
        <ele>43.6</ele>
        <time>2020-06-22T19:42:30Z</time>
      </trkpt>
      <trkpt lat="50.86875" lon="1.58704">
        <ele>43.6</ele>
        <time>2020-06-22T19:42:31Z</time>
      </trkpt>
      <trkpt lat="50.86871" lon="1.58703">
        <ele>43.6</ele>
        <time>2020-06-22T19:42:32Z</time>
      </trkpt>
      <trkpt lat="50.8687" lon="1.58703">
        <ele>43.7</ele>
        <time>2020-06-22T19:42:33Z</time>
      </trkpt>
      <trkpt lat="50.86867" lon="1.58701">
        <ele>43.7</ele>
        <time>2020-06-22T19:42:34Z</time>
      </trkpt>
      <trkpt lat="50.86864" lon="1.58699">
        <ele>43.6</ele>
        <time>2020-06-22T19:42:35Z</time>
      </trkpt>
      <trkpt lat="50.8686" lon="1.58698">
        <ele>43.6</ele>
        <time>2020-06-22T19:42:36Z</time>
      </trkpt>
      <trkpt lat="50.86856" lon="1.58696">
        <ele>43.6</ele>
        <time>2020-06-22T19:42:37Z</time>
      </trkpt>
      <trkpt lat="50.86853" lon="1.58694">
        <ele>43.6</ele>
        <time>2020-06-22T19:42:38Z</time>
      </trkpt>
      <trkpt lat="50.86849" lon="1.58692">
        <ele>43.5</ele>
        <time>2020-06-22T19:42:39Z</time>
      </trkpt>
      <trkpt lat="50.86845" lon="1.5869">
        <ele>43.5</ele>
        <time>2020-06-22T19:42:40Z</time>
      </trkpt>
      <trkpt lat="50.86842" lon="1.58687">
        <ele>43.4</ele>
        <time>2020-06-22T19:42:41Z</time>
      </trkpt>
      <trkpt lat="50.86839" lon="1.58685">
        <ele>43.4</ele>
        <time>2020-06-22T19:42:42Z</time>
      </trkpt>
      <trkpt lat="50.86835" lon="1.58683">
        <ele>43.4</ele>
        <time>2020-06-22T19:42:43Z</time>
      </trkpt>
      <trkpt lat="50.86831" lon="1.5868">
        <ele>43.3</ele>
        <time>2020-06-22T19:42:44Z</time>
      </trkpt>
      <trkpt lat="50.86827" lon="1.58677">
        <ele>43.3</ele>
        <time>2020-06-22T19:42:45Z</time>
      </trkpt>
      <trkpt lat="50.86824" lon="1.58674">
        <ele>43.2</ele>
        <time>2020-06-22T19:42:46Z</time>
      </trkpt>
      <trkpt lat="50.86819" lon="1.5867">
        <ele>42.9</ele>
        <time>2020-06-22T19:42:47Z</time>
      </trkpt>
      <trkpt lat="50.86815" lon="1.58665">
        <ele>42.6</ele>
        <time>2020-06-22T19:42:48Z</time>
      </trkpt>
      <trkpt lat="50.86811" lon="1.58662">
        <ele>42.3</ele>
        <time>2020-06-22T19:42:49Z</time>
      </trkpt>
      <trkpt lat="50.86806" lon="1.58658">
        <ele>42.1</ele>
        <time>2020-06-22T19:42:50Z</time>
      </trkpt>
      <trkpt lat="50.86802" lon="1.58654">
        <ele>41.7</ele>
        <time>2020-06-22T19:42:51Z</time>
      </trkpt>
      <trkpt lat="50.86796" lon="1.5865">
        <ele>41.4</ele>
        <time>2020-06-22T19:42:52Z</time>
      </trkpt>
      <trkpt lat="50.86791" lon="1.58645">
        <ele>41</ele>
        <time>2020-06-22T19:42:53Z</time>
      </trkpt>
      <trkpt lat="50.86788" lon="1.58638">
        <ele>40.6</ele>
        <time>2020-06-22T19:42:54Z</time>
      </trkpt>
      <trkpt lat="50.86783" lon="1.5863">
        <ele>40.1</ele>
        <time>2020-06-22T19:42:55Z</time>
      </trkpt>
      <trkpt lat="50.86777" lon="1.58624">
        <ele>39.6</ele>
        <time>2020-06-22T19:42:56Z</time>
      </trkpt>
      <trkpt lat="50.86769" lon="1.5862">
        <ele>39.1</ele>
        <time>2020-06-22T19:42:57Z</time>
      </trkpt>
      <trkpt lat="50.86761" lon="1.58624">
        <ele>38.4</ele>
        <time>2020-06-22T19:42:58Z</time>
      </trkpt>
      <trkpt lat="50.86754" lon="1.58631">
        <ele>37.8</ele>
        <time>2020-06-22T19:42:59Z</time>
      </trkpt>
      <trkpt lat="50.8675" lon="1.58642">
        <ele>37.2</ele>
        <time>2020-06-22T19:43:00Z</time>
      </trkpt>
      <trkpt lat="50.86747" lon="1.58654">
        <ele>36.5</ele>
        <time>2020-06-22T19:43:01Z</time>
      </trkpt>
      <trkpt lat="50.86748" lon="1.58667">
        <ele>35.8</ele>
        <time>2020-06-22T19:43:02Z</time>
      </trkpt>
      <trkpt lat="50.86752" lon="1.58678">
        <ele>35.2</ele>
        <time>2020-06-22T19:43:03Z</time>
      </trkpt>
      <trkpt lat="50.86757" lon="1.58689">
        <ele>34.5</ele>
        <time>2020-06-22T19:43:04Z</time>
      </trkpt>
      <trkpt lat="50.86762" lon="1.58699">
        <ele>33.9</ele>
        <time>2020-06-22T19:43:05Z</time>
      </trkpt>
      <trkpt lat="50.86767" lon="1.5871">
        <ele>33.3</ele>
        <time>2020-06-22T19:43:06Z</time>
      </trkpt>
      <trkpt lat="50.86772" lon="1.58721">
        <ele>32.7</ele>
        <time>2020-06-22T19:43:07Z</time>
      </trkpt>
      <trkpt lat="50.86778" lon="1.58732">
        <ele>32</ele>
        <time>2020-06-22T19:43:08Z</time>
      </trkpt>
      <trkpt lat="50.86781" lon="1.58746">
        <ele>31.4</ele>
        <time>2020-06-22T19:43:09Z</time>
      </trkpt>
      <trkpt lat="50.86783" lon="1.5876">
        <ele>30.7</ele>
        <time>2020-06-22T19:43:10Z</time>
      </trkpt>
      <trkpt lat="50.86781" lon="1.58774">
        <ele>30.1</ele>
        <time>2020-06-22T19:43:11Z</time>
      </trkpt>
      <trkpt lat="50.86776" lon="1.58786">
        <ele>29.3</ele>
        <time>2020-06-22T19:43:12Z</time>
      </trkpt>
      <trkpt lat="50.86771" lon="1.58798">
        <ele>28.5</ele>
        <time>2020-06-22T19:43:13Z</time>
      </trkpt>
      <trkpt lat="50.86764" lon="1.58809">
        <ele>27.7</ele>
        <time>2020-06-22T19:43:14Z</time>
      </trkpt>
      <trkpt lat="50.86757" lon="1.5882">
        <ele>27</ele>
        <time>2020-06-22T19:43:15Z</time>
      </trkpt>
      <trkpt lat="50.86751" lon="1.58832">
        <ele>26.5</ele>
        <time>2020-06-22T19:43:16Z</time>
      </trkpt>
      <trkpt lat="50.86744" lon="1.58843">
        <ele>26.1</ele>
        <time>2020-06-22T19:43:17Z</time>
      </trkpt>
      <trkpt lat="50.86737" lon="1.58854">
        <ele>25.8</ele>
        <time>2020-06-22T19:43:18Z</time>
      </trkpt>
      <trkpt lat="50.86731" lon="1.58865">
        <ele>25.7</ele>
        <time>2020-06-22T19:43:19Z</time>
      </trkpt>
      <trkpt lat="50.86724" lon="1.58876">
        <ele>25.7</ele>
        <time>2020-06-22T19:43:20Z</time>
      </trkpt>
      <trkpt lat="50.86718" lon="1.58886">
        <ele>25.7</ele>
        <time>2020-06-22T19:43:21Z</time>
      </trkpt>
      <trkpt lat="50.86713" lon="1.58895">
        <ele>25.8</ele>
        <time>2020-06-22T19:43:22Z</time>
      </trkpt>
      <trkpt lat="50.86708" lon="1.58904">
        <ele>26.1</ele>
        <time>2020-06-22T19:43:23Z</time>
      </trkpt>
      <trkpt lat="50.86703" lon="1.58911">
        <ele>26.4</ele>
        <time>2020-06-22T19:43:24Z</time>
      </trkpt>
      <trkpt lat="50.86698" lon="1.58918">
        <ele>27.1</ele>
        <time>2020-06-22T19:43:25Z</time>
      </trkpt>
      <trkpt lat="50.86693" lon="1.58923">
        <ele>27.5</ele>
        <time>2020-06-22T19:43:26Z</time>
      </trkpt>
      <trkpt lat="50.86688" lon="1.58927">
        <ele>27.9</ele>
        <time>2020-06-22T19:43:27Z</time>
      </trkpt>
      <trkpt lat="50.86684" lon="1.58931">
        <ele>28.3</ele>
        <time>2020-06-22T19:43:28Z</time>
      </trkpt>
      <trkpt lat="50.86679" lon="1.58934">
        <ele>28.7</ele>
        <time>2020-06-22T19:43:29Z</time>
      </trkpt>
      <trkpt lat="50.86675" lon="1.58937">
        <ele>29.1</ele>
        <time>2020-06-22T19:43:30Z</time>
      </trkpt>
      <trkpt lat="50.86671" lon="1.58939">
        <ele>29.4</ele>
        <time>2020-06-22T19:43:31Z</time>
      </trkpt>
      <trkpt lat="50.86668" lon="1.58942">
        <ele>29.6</ele>
        <time>2020-06-22T19:43:32Z</time>
      </trkpt>
      <trkpt lat="50.86665" lon="1.58944">
        <ele>29.9</ele>
        <time>2020-06-22T19:43:33Z</time>
      </trkpt>
      <trkpt lat="50.86661" lon="1.58946">
        <ele>30.2</ele>
        <time>2020-06-22T19:43:34Z</time>
      </trkpt>
      <trkpt lat="50.8666" lon="1.58946">
        <ele>30.3</ele>
        <time>2020-06-22T19:43:35Z</time>
      </trkpt>
      <trkpt lat="50.86659" lon="1.58947">
        <ele>30.4</ele>
        <time>2020-06-22T19:43:36Z</time>
      </trkpt>
      <trkpt lat="50.86657" lon="1.58948">
        <ele>30.6</ele>
        <time>2020-06-22T19:43:37Z</time>
      </trkpt>
      <trkpt lat="50.86656" lon="1.58949">
        <ele>30.7</ele>
        <time>2020-06-22T19:43:38Z</time>
      </trkpt>
      <trkpt lat="50.86655" lon="1.58951">
        <ele>30.8</ele>
        <time>2020-06-22T19:43:39Z</time>
      </trkpt>
      <trkpt lat="50.86656" lon="1.58952">
        <ele>30.8</ele>
        <time>2020-06-22T19:43:40Z</time>
      </trkpt>
      <trkpt lat="50.86656" lon="1.58953">
        <ele>30.9</ele>
        <time>2020-06-22T19:43:41Z</time>
      </trkpt>
      <trkpt lat="50.86658" lon="1.58953">
        <ele>31.1</ele>
        <time>2020-06-22T19:43:42Z</time>
      </trkpt>
      <trkpt lat="50.86661" lon="1.58951">
        <ele>31.3</ele>
        <time>2020-06-22T19:43:43Z</time>
      </trkpt>
      <trkpt lat="50.86663" lon="1.58949">
        <ele>31.6</ele>
        <time>2020-06-22T19:43:44Z</time>
      </trkpt>
      <trkpt lat="50.86663" lon="1.58946">
        <ele>31.7</ele>
        <time>2020-06-22T19:43:45Z</time>
      </trkpt>
      <trkpt lat="50.86663" lon="1.58944">
        <ele>31.8</ele>
        <time>2020-06-22T19:43:46Z</time>
      </trkpt>
      <trkpt lat="50.86663" lon="1.58943">
        <ele>31.8</ele>
        <time>2020-06-22T19:43:47Z</time>
      </trkpt>
      <trkpt lat="50.86663" lon="1.58943">
        <ele>31.9</ele>
        <time>2020-06-22T19:43:48Z</time>
      </trkpt>
      <trkpt lat="50.86664" lon="1.58942">
        <ele>31.9</ele>
        <time>2020-06-22T19:43:49Z</time>
      </trkpt>
      <trkpt lat="50.86664" lon="1.58942">
        <ele>31.9</ele>
        <time>2020-06-22T19:43:50Z</time>
      </trkpt>
      <trkpt lat="50.86664" lon="1.58942">
        <ele>32</ele>
        <time>2020-06-22T19:43:51Z</time>
      </trkpt>
      <trkpt lat="50.86663" lon="1.58943">
        <ele>32</ele>
        <time>2020-06-22T19:43:52Z</time>
      </trkpt>
      <trkpt lat="50.86663" lon="1.58944">
        <ele>32.1</ele>
        <time>2020-06-22T19:43:53Z</time>
      </trkpt>
      <trkpt lat="50.86663" lon="1.58943">
        <ele>32.1</ele>
        <time>2020-06-22T19:43:54Z</time>
      </trkpt>
      <trkpt lat="50.86662" lon="1.58944">
        <ele>32.1</ele>
        <time>2020-06-22T19:43:55Z</time>
      </trkpt>
      <trkpt lat="50.86662" lon="1.58944">
        <ele>32.2</ele>
        <time>2020-06-22T19:43:56Z</time>
      </trkpt>
      <trkpt lat="50.86662" lon="1.58945">
        <ele>32.2</ele>
        <time>2020-06-22T19:43:57Z</time>
      </trkpt>
      <trkpt lat="50.86662" lon="1.58944">
        <ele>32.2</ele>
        <time>2020-06-22T19:43:58Z</time>
      </trkpt>
      <trkpt lat="50.86661" lon="1.58945">
        <ele>32.3</ele>
        <time>2020-06-22T19:43:59Z</time>
      </trkpt>
      <trkpt lat="50.86662" lon="1.58945">
        <ele>32.3</ele>
        <time>2020-06-22T19:44:00Z</time>
      </trkpt>
      <trkpt lat="50.86662" lon="1.58944">
        <ele>32.3</ele>
        <time>2020-06-22T19:44:01Z</time>
      </trkpt>
      <trkpt lat="50.86658" lon="1.58944">
        <ele>32.6</ele>
        <time>2020-06-22T19:44:15Z</time>
      </trkpt>
      <trkpt lat="50.86657" lon="1.58944">
        <ele>32.7</ele>
        <time>2020-06-22T19:44:16Z</time>
      </trkpt>
      <trkpt lat="50.86656" lon="1.58945">
        <ele>32.8</ele>
        <time>2020-06-22T19:44:17Z</time>
      </trkpt>
      <trkpt lat="50.86655" lon="1.58947">
        <ele>32.9</ele>
        <time>2020-06-22T19:44:18Z</time>
      </trkpt>
      <trkpt lat="50.86655" lon="1.58947">
        <ele>33</ele>
        <time>2020-06-22T19:44:19Z</time>
      </trkpt>
      <trkpt lat="50.86654" lon="1.58948">
        <ele>33</ele>
        <time>2020-06-22T19:44:20Z</time>
      </trkpt>
      <trkpt lat="50.86653" lon="1.58948">
        <ele>33.1</ele>
        <time>2020-06-22T19:44:21Z</time>
      </trkpt>
      <trkpt lat="50.86651" lon="1.5895">
        <ele>33.2</ele>
        <time>2020-06-22T19:44:22Z</time>
      </trkpt>
      <trkpt lat="50.8665" lon="1.5895">
        <ele>33.3</ele>
        <time>2020-06-22T19:44:23Z</time>
      </trkpt>
      <trkpt lat="50.86649" lon="1.58951">
        <ele>33.4</ele>
        <time>2020-06-22T19:44:24Z</time>
      </trkpt>
      <trkpt lat="50.86648" lon="1.58953">
        <ele>33.5</ele>
        <time>2020-06-22T19:44:25Z</time>
      </trkpt>
      <trkpt lat="50.86647" lon="1.58954">
        <ele>33.6</ele>
        <time>2020-06-22T19:44:26Z</time>
      </trkpt>
      <trkpt lat="50.86644" lon="1.58955">
        <ele>33.8</ele>
        <time>2020-06-22T19:44:27Z</time>
      </trkpt>
      <trkpt lat="50.86643" lon="1.58955">
        <ele>33.9</ele>
        <time>2020-06-22T19:44:28Z</time>
      </trkpt>
      <trkpt lat="50.8664" lon="1.58956">
        <ele>34.1</ele>
        <time>2020-06-22T19:44:29Z</time>
      </trkpt>
      <trkpt lat="50.86639" lon="1.58956">
        <ele>34.2</ele>
        <time>2020-06-22T19:44:30Z</time>
      </trkpt>
      <trkpt lat="50.86636" lon="1.58958">
        <ele>34.4</ele>
        <time>2020-06-22T19:44:31Z</time>
      </trkpt>
      <trkpt lat="50.86634" lon="1.58958">
        <ele>34.5</ele>
        <time>2020-06-22T19:44:32Z</time>
      </trkpt>
      <trkpt lat="50.86632" lon="1.5896">
        <ele>34.7</ele>
        <time>2020-06-22T19:44:33Z</time>
      </trkpt>
      <trkpt lat="50.86629" lon="1.58962">
        <ele>34.9</ele>
        <time>2020-06-22T19:44:34Z</time>
      </trkpt>
      <trkpt lat="50.86626" lon="1.58963">
        <ele>35.1</ele>
        <time>2020-06-22T19:44:35Z</time>
      </trkpt>
      <trkpt lat="50.86623" lon="1.58964">
        <ele>35.4</ele>
        <time>2020-06-22T19:44:36Z</time>
      </trkpt>
      <trkpt lat="50.8662" lon="1.58966">
        <ele>35.6</ele>
        <time>2020-06-22T19:44:37Z</time>
      </trkpt>
      <trkpt lat="50.86617" lon="1.58967">
        <ele>35.9</ele>
        <time>2020-06-22T19:44:38Z</time>
      </trkpt>
      <trkpt lat="50.86615" lon="1.58968">
        <ele>36</ele>
        <time>2020-06-22T19:44:39Z</time>
      </trkpt>
      <trkpt lat="50.86613" lon="1.5897">
        <ele>36.2</ele>
        <time>2020-06-22T19:44:40Z</time>
      </trkpt>
      <trkpt lat="50.86609" lon="1.58971">
        <ele>36.5</ele>
        <time>2020-06-22T19:44:41Z</time>
      </trkpt>
      <trkpt lat="50.86606" lon="1.58972">
        <ele>36.7</ele>
        <time>2020-06-22T19:44:42Z</time>
      </trkpt>
      <trkpt lat="50.86603" lon="1.58974">
        <ele>36.9</ele>
        <time>2020-06-22T19:44:43Z</time>
      </trkpt>
      <trkpt lat="50.866" lon="1.58976">
        <ele>37.2</ele>
        <time>2020-06-22T19:44:44Z</time>
      </trkpt>
      <trkpt lat="50.86597" lon="1.58978">
        <ele>37.4</ele>
        <time>2020-06-22T19:44:45Z</time>
      </trkpt>
      <trkpt lat="50.86594" lon="1.58979">
        <ele>37.6</ele>
        <time>2020-06-22T19:44:46Z</time>
      </trkpt>
      <trkpt lat="50.86591" lon="1.5898">
        <ele>37.8</ele>
        <time>2020-06-22T19:44:47Z</time>
      </trkpt>
      <trkpt lat="50.86587" lon="1.58983">
        <ele>38.1</ele>
        <time>2020-06-22T19:44:48Z</time>
      </trkpt>
      <trkpt lat="50.86586" lon="1.58984">
        <ele>38.2</ele>
        <time>2020-06-22T19:44:49Z</time>
      </trkpt>
      <trkpt lat="50.86582" lon="1.58985">
        <ele>38.4</ele>
        <time>2020-06-22T19:44:50Z</time>
      </trkpt>
      <trkpt lat="50.86579" lon="1.58986">
        <ele>38.6</ele>
        <time>2020-06-22T19:44:51Z</time>
      </trkpt>
      <trkpt lat="50.86576" lon="1.58987">
        <ele>38.8</ele>
        <time>2020-06-22T19:44:52Z</time>
      </trkpt>
      <trkpt lat="50.86573" lon="1.58988">
        <ele>39</ele>
        <time>2020-06-22T19:44:53Z</time>
      </trkpt>
      <trkpt lat="50.8657" lon="1.58991">
        <ele>39.3</ele>
        <time>2020-06-22T19:44:54Z</time>
      </trkpt>
      <trkpt lat="50.86567" lon="1.58992">
        <ele>39.4</ele>
        <time>2020-06-22T19:44:55Z</time>
      </trkpt>
      <trkpt lat="50.86565" lon="1.58995">
        <ele>39.6</ele>
        <time>2020-06-22T19:44:56Z</time>
      </trkpt>
      <trkpt lat="50.86561" lon="1.58996">
        <ele>39.9</ele>
        <time>2020-06-22T19:44:57Z</time>
      </trkpt>
      <trkpt lat="50.8656" lon="1.58997">
        <ele>39.9</ele>
        <time>2020-06-22T19:44:58Z</time>
      </trkpt>
      <trkpt lat="50.86557" lon="1.58998">
        <ele>40.1</ele>
        <time>2020-06-22T19:44:59Z</time>
      </trkpt>
      <trkpt lat="50.86554" lon="1.59">
        <ele>40.3</ele>
        <time>2020-06-22T19:45:00Z</time>
      </trkpt>
      <trkpt lat="50.86551" lon="1.59002">
        <ele>40.5</ele>
        <time>2020-06-22T19:45:01Z</time>
      </trkpt>
      <trkpt lat="50.86548" lon="1.59004">
        <ele>40.6</ele>
        <time>2020-06-22T19:45:02Z</time>
      </trkpt>
      <trkpt lat="50.86545" lon="1.59004">
        <ele>40.8</ele>
        <time>2020-06-22T19:45:03Z</time>
      </trkpt>
      <trkpt lat="50.86542" lon="1.59006">
        <ele>41</ele>
        <time>2020-06-22T19:45:04Z</time>
      </trkpt>
      <trkpt lat="50.86538" lon="1.59008">
        <ele>41.2</ele>
        <time>2020-06-22T19:45:05Z</time>
      </trkpt>
      <trkpt lat="50.86535" lon="1.59009">
        <ele>41.4</ele>
        <time>2020-06-22T19:45:06Z</time>
      </trkpt>
      <trkpt lat="50.86531" lon="1.5901">
        <ele>41.6</ele>
        <time>2020-06-22T19:45:07Z</time>
      </trkpt>
      <trkpt lat="50.86528" lon="1.59012">
        <ele>41.7</ele>
        <time>2020-06-22T19:45:08Z</time>
      </trkpt>
      <trkpt lat="50.86525" lon="1.59014">
        <ele>41.9</ele>
        <time>2020-06-22T19:45:09Z</time>
      </trkpt>
      <trkpt lat="50.86522" lon="1.59016">
        <ele>42</ele>
        <time>2020-06-22T19:45:10Z</time>
      </trkpt>
      <trkpt lat="50.8652" lon="1.59017">
        <ele>42</ele>
        <time>2020-06-22T19:45:11Z</time>
      </trkpt>
      <trkpt lat="50.86517" lon="1.59018">
        <ele>42</ele>
        <time>2020-06-22T19:45:12Z</time>
      </trkpt>
      <trkpt lat="50.86515" lon="1.59018">
        <ele>42</ele>
        <time>2020-06-22T19:45:13Z</time>
      </trkpt>
      <trkpt lat="50.86513" lon="1.5902">
        <ele>42.1</ele>
        <time>2020-06-22T19:45:14Z</time>
      </trkpt>
      <trkpt lat="50.8651" lon="1.59023">
        <ele>42</ele>
        <time>2020-06-22T19:45:15Z</time>
      </trkpt>
      <trkpt lat="50.86509" lon="1.59023">
        <ele>42</ele>
        <time>2020-06-22T19:45:16Z</time>
      </trkpt>
      <trkpt lat="50.86506" lon="1.59025">
        <ele>41.9</ele>
        <time>2020-06-22T19:45:17Z</time>
      </trkpt>
      <trkpt lat="50.86504" lon="1.59026">
        <ele>41.9</ele>
        <time>2020-06-22T19:45:18Z</time>
      </trkpt>
      <trkpt lat="50.86501" lon="1.59027">
        <ele>41.8</ele>
        <time>2020-06-22T19:45:19Z</time>
      </trkpt>
      <trkpt lat="50.86499" lon="1.59027">
        <ele>41.8</ele>
        <time>2020-06-22T19:45:20Z</time>
      </trkpt>
      <trkpt lat="50.86497" lon="1.59028">
        <ele>41.7</ele>
        <time>2020-06-22T19:45:21Z</time>
      </trkpt>
      <trkpt lat="50.86494" lon="1.5903">
        <ele>41.7</ele>
        <time>2020-06-22T19:45:22Z</time>
      </trkpt>
      <trkpt lat="50.86491" lon="1.59031">
        <ele>41.5</ele>
        <time>2020-06-22T19:45:23Z</time>
      </trkpt>
      <trkpt lat="50.86487" lon="1.59032">
        <ele>41.4</ele>
        <time>2020-06-22T19:45:24Z</time>
      </trkpt>
      <trkpt lat="50.86484" lon="1.59034">
        <ele>41.2</ele>
        <time>2020-06-22T19:45:25Z</time>
      </trkpt>
      <trkpt lat="50.8648" lon="1.59035">
        <ele>41</ele>
        <time>2020-06-22T19:45:26Z</time>
      </trkpt>
      <trkpt lat="50.86476" lon="1.59036">
        <ele>40.8</ele>
        <time>2020-06-22T19:45:27Z</time>
      </trkpt>
      <trkpt lat="50.86473" lon="1.59035">
        <ele>40.7</ele>
        <time>2020-06-22T19:45:28Z</time>
      </trkpt>
      <trkpt lat="50.8647" lon="1.59033">
        <ele>40.5</ele>
        <time>2020-06-22T19:45:29Z</time>
      </trkpt>
      <trkpt lat="50.86467" lon="1.59031">
        <ele>40.3</ele>
        <time>2020-06-22T19:45:30Z</time>
      </trkpt>
      <trkpt lat="50.86464" lon="1.5903">
        <ele>40.1</ele>
        <time>2020-06-22T19:45:31Z</time>
      </trkpt>
      <trkpt lat="50.8646" lon="1.5903">
        <ele>39.9</ele>
        <time>2020-06-22T19:45:32Z</time>
      </trkpt>
      <trkpt lat="50.86456" lon="1.5903">
        <ele>39.6</ele>
        <time>2020-06-22T19:45:33Z</time>
      </trkpt>
      <trkpt lat="50.86453" lon="1.5903">
        <ele>39.4</ele>
        <time>2020-06-22T19:45:34Z</time>
      </trkpt>
      <trkpt lat="50.86448" lon="1.59029">
        <ele>39.1</ele>
        <time>2020-06-22T19:45:35Z</time>
      </trkpt>
      <trkpt lat="50.86444" lon="1.59029">
        <ele>38.9</ele>
        <time>2020-06-22T19:45:36Z</time>
      </trkpt>
      <trkpt lat="50.8644" lon="1.59029">
        <ele>38.7</ele>
        <time>2020-06-22T19:45:37Z</time>
      </trkpt>
      <trkpt lat="50.86434" lon="1.59031">
        <ele>38.5</ele>
        <time>2020-06-22T19:45:38Z</time>
      </trkpt>
      <trkpt lat="50.86429" lon="1.59036">
        <ele>38.3</ele>
        <time>2020-06-22T19:45:39Z</time>
      </trkpt>
      <trkpt lat="50.86425" lon="1.59043">
        <ele>38.2</ele>
        <time>2020-06-22T19:45:40Z</time>
      </trkpt>
      <trkpt lat="50.86421" lon="1.59051">
        <ele>38</ele>
        <time>2020-06-22T19:45:41Z</time>
      </trkpt>
      <trkpt lat="50.86418" lon="1.59059">
        <ele>37.7</ele>
        <time>2020-06-22T19:45:42Z</time>
      </trkpt>
      <trkpt lat="50.86414" lon="1.5907">
        <ele>37.5</ele>
        <time>2020-06-22T19:45:43Z</time>
      </trkpt>
      <trkpt lat="50.86411" lon="1.59081">
        <ele>37.3</ele>
        <time>2020-06-22T19:45:44Z</time>
      </trkpt>
      <trkpt lat="50.86408" lon="1.59091">
        <ele>37.1</ele>
        <time>2020-06-22T19:45:45Z</time>
      </trkpt>
      <trkpt lat="50.86405" lon="1.591">
        <ele>37</ele>
        <time>2020-06-22T19:45:46Z</time>
      </trkpt>
      <trkpt lat="50.86402" lon="1.59109">
        <ele>37</ele>
        <time>2020-06-22T19:45:47Z</time>
      </trkpt>
      <trkpt lat="50.86398" lon="1.59118">
        <ele>37.1</ele>
        <time>2020-06-22T19:45:48Z</time>
      </trkpt>
      <trkpt lat="50.86396" lon="1.59127">
        <ele>37.3</ele>
        <time>2020-06-22T19:45:49Z</time>
      </trkpt>
      <trkpt lat="50.86393" lon="1.59134">
        <ele>37.4</ele>
        <time>2020-06-22T19:45:50Z</time>
      </trkpt>
      <trkpt lat="50.8639" lon="1.59143">
        <ele>37.7</ele>
        <time>2020-06-22T19:45:51Z</time>
      </trkpt>
      <trkpt lat="50.86388" lon="1.59152">
        <ele>37.9</ele>
        <time>2020-06-22T19:45:52Z</time>
      </trkpt>
      <trkpt lat="50.86385" lon="1.59159">
        <ele>38.1</ele>
        <time>2020-06-22T19:45:53Z</time>
      </trkpt>
      <trkpt lat="50.86383" lon="1.59165">
        <ele>38.3</ele>
        <time>2020-06-22T19:45:54Z</time>
      </trkpt>
      <trkpt lat="50.8638" lon="1.59172">
        <ele>38.5</ele>
        <time>2020-06-22T19:45:55Z</time>
      </trkpt>
      <trkpt lat="50.86376" lon="1.59178">
        <ele>38.7</ele>
        <time>2020-06-22T19:45:56Z</time>
      </trkpt>
      <trkpt lat="50.86373" lon="1.59182">
        <ele>38.8</ele>
        <time>2020-06-22T19:45:57Z</time>
      </trkpt>
      <trkpt lat="50.8637" lon="1.59186">
        <ele>38.9</ele>
        <time>2020-06-22T19:45:58Z</time>
      </trkpt>
      <trkpt lat="50.86365" lon="1.59189">
        <ele>39.1</ele>
        <time>2020-06-22T19:45:59Z</time>
      </trkpt>
      <trkpt lat="50.86359" lon="1.59191">
        <ele>39.3</ele>
        <time>2020-06-22T19:46:00Z</time>
      </trkpt>
      <trkpt lat="50.86353" lon="1.59192">
        <ele>39.5</ele>
        <time>2020-06-22T19:46:01Z</time>
      </trkpt>
      <trkpt lat="50.86349" lon="1.59191">
        <ele>39.7</ele>
        <time>2020-06-22T19:46:02Z</time>
      </trkpt>
      <trkpt lat="50.86344" lon="1.59192">
        <ele>39.9</ele>
        <time>2020-06-22T19:46:03Z</time>
      </trkpt>
      <trkpt lat="50.86339" lon="1.59192">
        <ele>40.2</ele>
        <time>2020-06-22T19:46:04Z</time>
      </trkpt>
      <trkpt lat="50.86334" lon="1.5919">
        <ele>40.5</ele>
        <time>2020-06-22T19:46:05Z</time>
      </trkpt>
      <trkpt lat="50.86329" lon="1.59187">
        <ele>40.8</ele>
        <time>2020-06-22T19:46:06Z</time>
      </trkpt>
      <trkpt lat="50.86324" lon="1.59184">
        <ele>41.1</ele>
        <time>2020-06-22T19:46:07Z</time>
      </trkpt>
      <trkpt lat="50.8632" lon="1.5918">
        <ele>41.4</ele>
        <time>2020-06-22T19:46:08Z</time>
      </trkpt>
      <trkpt lat="50.86316" lon="1.59176">
        <ele>41.7</ele>
        <time>2020-06-22T19:46:09Z</time>
      </trkpt>
      <trkpt lat="50.86311" lon="1.59173">
        <ele>42</ele>
        <time>2020-06-22T19:46:10Z</time>
      </trkpt>
      <trkpt lat="50.86307" lon="1.59169">
        <ele>42.3</ele>
        <time>2020-06-22T19:46:11Z</time>
      </trkpt>
      <trkpt lat="50.86303" lon="1.59167">
        <ele>42.5</ele>
        <time>2020-06-22T19:46:12Z</time>
      </trkpt>
      <trkpt lat="50.86299" lon="1.59165">
        <ele>42.8</ele>
        <time>2020-06-22T19:46:13Z</time>
      </trkpt>
      <trkpt lat="50.86294" lon="1.59162">
        <ele>43</ele>
        <time>2020-06-22T19:46:14Z</time>
      </trkpt>
      <trkpt lat="50.86288" lon="1.59159">
        <ele>43.3</ele>
        <time>2020-06-22T19:46:15Z</time>
      </trkpt>
      <trkpt lat="50.86284" lon="1.59157">
        <ele>43.6</ele>
        <time>2020-06-22T19:46:16Z</time>
      </trkpt>
      <trkpt lat="50.8628" lon="1.59156">
        <ele>43.8</ele>
        <time>2020-06-22T19:46:17Z</time>
      </trkpt>
      <trkpt lat="50.86275" lon="1.59154">
        <ele>44</ele>
        <time>2020-06-22T19:46:18Z</time>
      </trkpt>
      <trkpt lat="50.86271" lon="1.59152">
        <ele>44.3</ele>
        <time>2020-06-22T19:46:19Z</time>
      </trkpt>
      <trkpt lat="50.86266" lon="1.59152">
        <ele>44.5</ele>
        <time>2020-06-22T19:46:20Z</time>
      </trkpt>
      <trkpt lat="50.86261" lon="1.59152">
        <ele>44.8</ele>
        <time>2020-06-22T19:46:21Z</time>
      </trkpt>
      <trkpt lat="50.86256" lon="1.59152">
        <ele>45.1</ele>
        <time>2020-06-22T19:46:22Z</time>
      </trkpt>
      <trkpt lat="50.8625" lon="1.59151">
        <ele>45.4</ele>
        <time>2020-06-22T19:46:23Z</time>
      </trkpt>
      <trkpt lat="50.86245" lon="1.5915">
        <ele>45.6</ele>
        <time>2020-06-22T19:46:24Z</time>
      </trkpt>
      <trkpt lat="50.8624" lon="1.59151">
        <ele>45.9</ele>
        <time>2020-06-22T19:46:25Z</time>
      </trkpt>
      <trkpt lat="50.86235" lon="1.59153">
        <ele>46.2</ele>
        <time>2020-06-22T19:46:26Z</time>
      </trkpt>
      <trkpt lat="50.8623" lon="1.59153">
        <ele>46.5</ele>
        <time>2020-06-22T19:46:27Z</time>
      </trkpt>
      <trkpt lat="50.86225" lon="1.59153">
        <ele>46.8</ele>
        <time>2020-06-22T19:46:28Z</time>
      </trkpt>
      <trkpt lat="50.86221" lon="1.59154">
        <ele>47.1</ele>
        <time>2020-06-22T19:46:29Z</time>
      </trkpt>
      <trkpt lat="50.86216" lon="1.59155">
        <ele>47.4</ele>
        <time>2020-06-22T19:46:30Z</time>
      </trkpt>
      <trkpt lat="50.86211" lon="1.59156">
        <ele>47.7</ele>
        <time>2020-06-22T19:46:31Z</time>
      </trkpt>
      <trkpt lat="50.86206" lon="1.59158">
        <ele>48</ele>
        <time>2020-06-22T19:46:32Z</time>
      </trkpt>
      <trkpt lat="50.86201" lon="1.59159">
        <ele>48.3</ele>
        <time>2020-06-22T19:46:33Z</time>
      </trkpt>
      <trkpt lat="50.86197" lon="1.59161">
        <ele>48.5</ele>
        <time>2020-06-22T19:46:34Z</time>
      </trkpt>
      <trkpt lat="50.86193" lon="1.59163">
        <ele>48.8</ele>
        <time>2020-06-22T19:46:35Z</time>
      </trkpt>
      <trkpt lat="50.8619" lon="1.59165">
        <ele>49</ele>
        <time>2020-06-22T19:46:36Z</time>
      </trkpt>
      <trkpt lat="50.86186" lon="1.59166">
        <ele>49.2</ele>
        <time>2020-06-22T19:46:37Z</time>
      </trkpt>
      <trkpt lat="50.86182" lon="1.59168">
        <ele>49.5</ele>
        <time>2020-06-22T19:46:38Z</time>
      </trkpt>
      <trkpt lat="50.86179" lon="1.5917">
        <ele>49.6</ele>
        <time>2020-06-22T19:46:39Z</time>
      </trkpt>
      <trkpt lat="50.86175" lon="1.59172">
        <ele>49.9</ele>
        <time>2020-06-22T19:46:40Z</time>
      </trkpt>
      <trkpt lat="50.86171" lon="1.59174">
        <ele>50.1</ele>
        <time>2020-06-22T19:46:41Z</time>
      </trkpt>
      <trkpt lat="50.86167" lon="1.59176">
        <ele>50.3</ele>
        <time>2020-06-22T19:46:42Z</time>
      </trkpt>
      <trkpt lat="50.86164" lon="1.59179">
        <ele>50.4</ele>
        <time>2020-06-22T19:46:43Z</time>
      </trkpt>
      <trkpt lat="50.8616" lon="1.59182">
        <ele>50.6</ele>
        <time>2020-06-22T19:46:44Z</time>
      </trkpt>
      <trkpt lat="50.86156" lon="1.59186">
        <ele>50.8</ele>
        <time>2020-06-22T19:46:45Z</time>
      </trkpt>
      <trkpt lat="50.86152" lon="1.59188">
        <ele>51</ele>
        <time>2020-06-22T19:46:46Z</time>
      </trkpt>
      <trkpt lat="50.86148" lon="1.5919">
        <ele>51.2</ele>
        <time>2020-06-22T19:46:47Z</time>
      </trkpt>
      <trkpt lat="50.86144" lon="1.59194">
        <ele>51.3</ele>
        <time>2020-06-22T19:46:48Z</time>
      </trkpt>
      <trkpt lat="50.8614" lon="1.59198">
        <ele>51.5</ele>
        <time>2020-06-22T19:46:49Z</time>
      </trkpt>
      <trkpt lat="50.86135" lon="1.59203">
        <ele>51.6</ele>
        <time>2020-06-22T19:46:50Z</time>
      </trkpt>
      <trkpt lat="50.86131" lon="1.59206">
        <ele>51.7</ele>
        <time>2020-06-22T19:46:51Z</time>
      </trkpt>
      <trkpt lat="50.86126" lon="1.59209">
        <ele>51.8</ele>
        <time>2020-06-22T19:46:52Z</time>
      </trkpt>
      <trkpt lat="50.86121" lon="1.59212">
        <ele>51.9</ele>
        <time>2020-06-22T19:46:53Z</time>
      </trkpt>
      <trkpt lat="50.86117" lon="1.59215">
        <ele>51.9</ele>
        <time>2020-06-22T19:46:54Z</time>
      </trkpt>
      <trkpt lat="50.86112" lon="1.59217">
        <ele>52</ele>
        <time>2020-06-22T19:46:55Z</time>
      </trkpt>
      <trkpt lat="50.86107" lon="1.59219">
        <ele>52</ele>
        <time>2020-06-22T19:46:56Z</time>
      </trkpt>
      <trkpt lat="50.86102" lon="1.5922">
        <ele>52</ele>
        <time>2020-06-22T19:46:57Z</time>
      </trkpt>
      <trkpt lat="50.86096" lon="1.5922">
        <ele>52</ele>
        <time>2020-06-22T19:46:58Z</time>
      </trkpt>
      <trkpt lat="50.86091" lon="1.5922">
        <ele>52</ele>
        <time>2020-06-22T19:46:59Z</time>
      </trkpt>
      <trkpt lat="50.86086" lon="1.5922">
        <ele>52</ele>
        <time>2020-06-22T19:47:00Z</time>
      </trkpt>
      <trkpt lat="50.86081" lon="1.59222">
        <ele>52</ele>
        <time>2020-06-22T19:47:01Z</time>
      </trkpt>
      <trkpt lat="50.86076" lon="1.59223">
        <ele>52</ele>
        <time>2020-06-22T19:47:02Z</time>
      </trkpt>
      <trkpt lat="50.8607" lon="1.59223">
        <ele>51.9</ele>
        <time>2020-06-22T19:47:03Z</time>
      </trkpt>
      <trkpt lat="50.86065" lon="1.59223">
        <ele>51.9</ele>
        <time>2020-06-22T19:47:04Z</time>
      </trkpt>
      <trkpt lat="50.8606" lon="1.59223">
        <ele>51.9</ele>
        <time>2020-06-22T19:47:05Z</time>
      </trkpt>
      <trkpt lat="50.86054" lon="1.59222">
        <ele>51.9</ele>
        <time>2020-06-22T19:47:06Z</time>
      </trkpt>
      <trkpt lat="50.86049" lon="1.59222">
        <ele>51.8</ele>
        <time>2020-06-22T19:47:07Z</time>
      </trkpt>
      <trkpt lat="50.86044" lon="1.59221">
        <ele>51.8</ele>
        <time>2020-06-22T19:47:08Z</time>
      </trkpt>
      <trkpt lat="50.8604" lon="1.59221">
        <ele>51.7</ele>
        <time>2020-06-22T19:47:09Z</time>
      </trkpt>
      <trkpt lat="50.86035" lon="1.5922">
        <ele>51.7</ele>
        <time>2020-06-22T19:47:10Z</time>
      </trkpt>
      <trkpt lat="50.8603" lon="1.59219">
        <ele>51.6</ele>
        <time>2020-06-22T19:47:11Z</time>
      </trkpt>
      <trkpt lat="50.86025" lon="1.5922">
        <ele>51.6</ele>
        <time>2020-06-22T19:47:12Z</time>
      </trkpt>
      <trkpt lat="50.8602" lon="1.5922">
        <ele>51.5</ele>
        <time>2020-06-22T19:47:13Z</time>
      </trkpt>
      <trkpt lat="50.86014" lon="1.59219">
        <ele>51.4</ele>
        <time>2020-06-22T19:47:14Z</time>
      </trkpt>
      <trkpt lat="50.86008" lon="1.59218">
        <ele>51.3</ele>
        <time>2020-06-22T19:47:15Z</time>
      </trkpt>
      <trkpt lat="50.86003" lon="1.59218">
        <ele>51.2</ele>
        <time>2020-06-22T19:47:16Z</time>
      </trkpt>
      <trkpt lat="50.85998" lon="1.59219">
        <ele>51.1</ele>
        <time>2020-06-22T19:47:17Z</time>
      </trkpt>
      <trkpt lat="50.85992" lon="1.59218">
        <ele>51</ele>
        <time>2020-06-22T19:47:18Z</time>
      </trkpt>
      <trkpt lat="50.85986" lon="1.59219">
        <ele>50.9</ele>
        <time>2020-06-22T19:47:19Z</time>
      </trkpt>
      <trkpt lat="50.8598" lon="1.59218">
        <ele>50.7</ele>
        <time>2020-06-22T19:47:20Z</time>
      </trkpt>
      <trkpt lat="50.85974" lon="1.59219">
        <ele>50.6</ele>
        <time>2020-06-22T19:47:21Z</time>
      </trkpt>
      <trkpt lat="50.85968" lon="1.59218">
        <ele>50.5</ele>
        <time>2020-06-22T19:47:22Z</time>
      </trkpt>
      <trkpt lat="50.85962" lon="1.59219">
        <ele>50.4</ele>
        <time>2020-06-22T19:47:23Z</time>
      </trkpt>
      <trkpt lat="50.85957" lon="1.59218">
        <ele>50.3</ele>
        <time>2020-06-22T19:47:24Z</time>
      </trkpt>
      <trkpt lat="50.85951" lon="1.59219">
        <ele>50.2</ele>
        <time>2020-06-22T19:47:25Z</time>
      </trkpt>
      <trkpt lat="50.85945" lon="1.59219">
        <ele>50</ele>
        <time>2020-06-22T19:47:26Z</time>
      </trkpt>
      <trkpt lat="50.85939" lon="1.59219">
        <ele>49.9</ele>
        <time>2020-06-22T19:47:27Z</time>
      </trkpt>
      <trkpt lat="50.85932" lon="1.59218">
        <ele>49.7</ele>
        <time>2020-06-22T19:47:28Z</time>
      </trkpt>
      <trkpt lat="50.85925" lon="1.59218">
        <ele>49.5</ele>
        <time>2020-06-22T19:47:29Z</time>
      </trkpt>
      <trkpt lat="50.85919" lon="1.59218">
        <ele>49.3</ele>
        <time>2020-06-22T19:47:30Z</time>
      </trkpt>
      <trkpt lat="50.85913" lon="1.59217">
        <ele>49.1</ele>
        <time>2020-06-22T19:47:31Z</time>
      </trkpt>
      <trkpt lat="50.85907" lon="1.59219">
        <ele>48.8</ele>
        <time>2020-06-22T19:47:32Z</time>
      </trkpt>
      <trkpt lat="50.85901" lon="1.5922">
        <ele>48.7</ele>
        <time>2020-06-22T19:47:33Z</time>
      </trkpt>
      <trkpt lat="50.85896" lon="1.59221">
        <ele>48.5</ele>
        <time>2020-06-22T19:47:34Z</time>
      </trkpt>
      <trkpt lat="50.8589" lon="1.59221">
        <ele>48.4</ele>
        <time>2020-06-22T19:47:35Z</time>
      </trkpt>
      <trkpt lat="50.85884" lon="1.59221">
        <ele>48.2</ele>
        <time>2020-06-22T19:47:36Z</time>
      </trkpt>
      <trkpt lat="50.85877" lon="1.59222">
        <ele>48</ele>
        <time>2020-06-22T19:47:37Z</time>
      </trkpt>
      <trkpt lat="50.85871" lon="1.59222">
        <ele>47.8</ele>
        <time>2020-06-22T19:47:38Z</time>
      </trkpt>
      <trkpt lat="50.85865" lon="1.59223">
        <ele>47.6</ele>
        <time>2020-06-22T19:47:39Z</time>
      </trkpt>
      <trkpt lat="50.85859" lon="1.59222">
        <ele>47.4</ele>
        <time>2020-06-22T19:47:40Z</time>
      </trkpt>
      <trkpt lat="50.85853" lon="1.59221">
        <ele>47.2</ele>
        <time>2020-06-22T19:47:41Z</time>
      </trkpt>
      <trkpt lat="50.85846" lon="1.5922">
        <ele>47</ele>
        <time>2020-06-22T19:47:42Z</time>
      </trkpt>
      <trkpt lat="50.85841" lon="1.5922">
        <ele>46.8</ele>
        <time>2020-06-22T19:47:43Z</time>
      </trkpt>
      <trkpt lat="50.85834" lon="1.59221">
        <ele>46.6</ele>
        <time>2020-06-22T19:47:44Z</time>
      </trkpt>
      <trkpt lat="50.85827" lon="1.59222">
        <ele>46.4</ele>
        <time>2020-06-22T19:47:45Z</time>
      </trkpt>
      <trkpt lat="50.8582" lon="1.59224">
        <ele>46.2</ele>
        <time>2020-06-22T19:47:46Z</time>
      </trkpt>
      <trkpt lat="50.85812" lon="1.59226">
        <ele>46</ele>
        <time>2020-06-22T19:47:47Z</time>
      </trkpt>
      <trkpt lat="50.85806" lon="1.59228">
        <ele>45.9</ele>
        <time>2020-06-22T19:47:48Z</time>
      </trkpt>
      <trkpt lat="50.85798" lon="1.59229">
        <ele>45.9</ele>
        <time>2020-06-22T19:47:49Z</time>
      </trkpt>
      <trkpt lat="50.85791" lon="1.59231">
        <ele>45.8</ele>
        <time>2020-06-22T19:47:50Z</time>
      </trkpt>
      <trkpt lat="50.85784" lon="1.59233">
        <ele>45.7</ele>
        <time>2020-06-22T19:47:51Z</time>
      </trkpt>
      <trkpt lat="50.85777" lon="1.59235">
        <ele>45.5</ele>
        <time>2020-06-22T19:47:52Z</time>
      </trkpt>
      <trkpt lat="50.8577" lon="1.59236">
        <ele>45.3</ele>
        <time>2020-06-22T19:47:53Z</time>
      </trkpt>
      <trkpt lat="50.85763" lon="1.59237">
        <ele>45.2</ele>
        <time>2020-06-22T19:47:54Z</time>
      </trkpt>
      <trkpt lat="50.85755" lon="1.59239">
        <ele>45.1</ele>
        <time>2020-06-22T19:47:55Z</time>
      </trkpt>
      <trkpt lat="50.85747" lon="1.59239">
        <ele>45.1</ele>
        <time>2020-06-22T19:47:56Z</time>
      </trkpt>
      <trkpt lat="50.8574" lon="1.59239">
        <ele>45</ele>
        <time>2020-06-22T19:47:57Z</time>
      </trkpt>
      <trkpt lat="50.85733" lon="1.5924">
        <ele>44.9</ele>
        <time>2020-06-22T19:47:58Z</time>
      </trkpt>
      <trkpt lat="50.85725" lon="1.59241">
        <ele>44.9</ele>
        <time>2020-06-22T19:47:59Z</time>
      </trkpt>
      <trkpt lat="50.85718" lon="1.5924">
        <ele>44.8</ele>
        <time>2020-06-22T19:48:00Z</time>
      </trkpt>
      <trkpt lat="50.85711" lon="1.5924">
        <ele>44.8</ele>
        <time>2020-06-22T19:48:01Z</time>
      </trkpt>
      <trkpt lat="50.85704" lon="1.5924">
        <ele>44.8</ele>
        <time>2020-06-22T19:48:02Z</time>
      </trkpt>
      <trkpt lat="50.85697" lon="1.5924">
        <ele>44.8</ele>
        <time>2020-06-22T19:48:03Z</time>
      </trkpt>
      <trkpt lat="50.8569" lon="1.59239">
        <ele>44.8</ele>
        <time>2020-06-22T19:48:04Z</time>
      </trkpt>
      <trkpt lat="50.85683" lon="1.59239">
        <ele>44.7</ele>
        <time>2020-06-22T19:48:05Z</time>
      </trkpt>
      <trkpt lat="50.85676" lon="1.59239">
        <ele>44.7</ele>
        <time>2020-06-22T19:48:06Z</time>
      </trkpt>
      <trkpt lat="50.85669" lon="1.59239">
        <ele>44.8</ele>
        <time>2020-06-22T19:48:07Z</time>
      </trkpt>
      <trkpt lat="50.85662" lon="1.59239">
        <ele>44.8</ele>
        <time>2020-06-22T19:48:08Z</time>
      </trkpt>
      <trkpt lat="50.85655" lon="1.59239">
        <ele>44.8</ele>
        <time>2020-06-22T19:48:09Z</time>
      </trkpt>
      <trkpt lat="50.85648" lon="1.59238">
        <ele>44.9</ele>
        <time>2020-06-22T19:48:10Z</time>
      </trkpt>
      <trkpt lat="50.85641" lon="1.59236">
        <ele>45</ele>
        <time>2020-06-22T19:48:11Z</time>
      </trkpt>
      <trkpt lat="50.85634" lon="1.59234">
        <ele>45</ele>
        <time>2020-06-22T19:48:12Z</time>
      </trkpt>
      <trkpt lat="50.85628" lon="1.59233">
        <ele>45.1</ele>
        <time>2020-06-22T19:48:13Z</time>
      </trkpt>
      <trkpt lat="50.85621" lon="1.59232">
        <ele>45.1</ele>
        <time>2020-06-22T19:48:14Z</time>
      </trkpt>
      <trkpt lat="50.85614" lon="1.5923">
        <ele>45.2</ele>
        <time>2020-06-22T19:48:15Z</time>
      </trkpt>
      <trkpt lat="50.85608" lon="1.59229">
        <ele>45.2</ele>
        <time>2020-06-22T19:48:16Z</time>
      </trkpt>
      <trkpt lat="50.85602" lon="1.59229">
        <ele>45.3</ele>
        <time>2020-06-22T19:48:17Z</time>
      </trkpt>
      <trkpt lat="50.85595" lon="1.59228">
        <ele>45.3</ele>
        <time>2020-06-22T19:48:18Z</time>
      </trkpt>
      <trkpt lat="50.85589" lon="1.59228">
        <ele>45.3</ele>
        <time>2020-06-22T19:48:19Z</time>
      </trkpt>
      <trkpt lat="50.85582" lon="1.59227">
        <ele>45.4</ele>
        <time>2020-06-22T19:48:20Z</time>
      </trkpt>
      <trkpt lat="50.85576" lon="1.59227">
        <ele>45.4</ele>
        <time>2020-06-22T19:48:21Z</time>
      </trkpt>
      <trkpt lat="50.8557" lon="1.59227">
        <ele>45.4</ele>
        <time>2020-06-22T19:48:22Z</time>
      </trkpt>
      <trkpt lat="50.85563" lon="1.59227">
        <ele>45.5</ele>
        <time>2020-06-22T19:48:23Z</time>
      </trkpt>
      <trkpt lat="50.85557" lon="1.59227">
        <ele>45.5</ele>
        <time>2020-06-22T19:48:24Z</time>
      </trkpt>
      <trkpt lat="50.85551" lon="1.59227">
        <ele>45.6</ele>
        <time>2020-06-22T19:48:25Z</time>
      </trkpt>
      <trkpt lat="50.85544" lon="1.59228">
        <ele>45.7</ele>
        <time>2020-06-22T19:48:26Z</time>
      </trkpt>
      <trkpt lat="50.85538" lon="1.59228">
        <ele>45.8</ele>
        <time>2020-06-22T19:48:27Z</time>
      </trkpt>
      <trkpt lat="50.85532" lon="1.59229">
        <ele>45.8</ele>
        <time>2020-06-22T19:48:28Z</time>
      </trkpt>
      <trkpt lat="50.85526" lon="1.59229">
        <ele>45.9</ele>
        <time>2020-06-22T19:48:29Z</time>
      </trkpt>
      <trkpt lat="50.8552" lon="1.59228">
        <ele>46</ele>
        <time>2020-06-22T19:48:30Z</time>
      </trkpt>
      <trkpt lat="50.85514" lon="1.59228">
        <ele>46.1</ele>
        <time>2020-06-22T19:48:31Z</time>
      </trkpt>
      <trkpt lat="50.85508" lon="1.59228">
        <ele>46.2</ele>
        <time>2020-06-22T19:48:32Z</time>
      </trkpt>
      <trkpt lat="50.85503" lon="1.59228">
        <ele>46.3</ele>
        <time>2020-06-22T19:48:33Z</time>
      </trkpt>
      <trkpt lat="50.85498" lon="1.59227">
        <ele>46.3</ele>
        <time>2020-06-22T19:48:34Z</time>
      </trkpt>
      <trkpt lat="50.85495" lon="1.59228">
        <ele>46.4</ele>
        <time>2020-06-22T19:48:35Z</time>
      </trkpt>
      <trkpt lat="50.8549" lon="1.59228">
        <ele>46.5</ele>
        <time>2020-06-22T19:48:36Z</time>
      </trkpt>
      <trkpt lat="50.85485" lon="1.59229">
        <ele>46.5</ele>
        <time>2020-06-22T19:48:37Z</time>
      </trkpt>
      <trkpt lat="50.8548" lon="1.59232">
        <ele>46.5</ele>
        <time>2020-06-22T19:48:38Z</time>
      </trkpt>
      <trkpt lat="50.85475" lon="1.59234">
        <ele>46.5</ele>
        <time>2020-06-22T19:48:39Z</time>
      </trkpt>
      <trkpt lat="50.85469" lon="1.59237">
        <ele>46.5</ele>
        <time>2020-06-22T19:48:40Z</time>
      </trkpt>
      <trkpt lat="50.85464" lon="1.59241">
        <ele>46.5</ele>
        <time>2020-06-22T19:48:41Z</time>
      </trkpt>
      <trkpt lat="50.85458" lon="1.59246">
        <ele>46.5</ele>
        <time>2020-06-22T19:48:42Z</time>
      </trkpt>
      <trkpt lat="50.85453" lon="1.59252">
        <ele>46.5</ele>
        <time>2020-06-22T19:48:43Z</time>
      </trkpt>
      <trkpt lat="50.8545" lon="1.59259">
        <ele>46.5</ele>
        <time>2020-06-22T19:48:44Z</time>
      </trkpt>
      <trkpt lat="50.85446" lon="1.59263">
        <ele>46.5</ele>
        <time>2020-06-22T19:48:45Z</time>
      </trkpt>
      <trkpt lat="50.85442" lon="1.59268">
        <ele>46.5</ele>
        <time>2020-06-22T19:48:46Z</time>
      </trkpt>
      <trkpt lat="50.85438" lon="1.59274">
        <ele>46.5</ele>
        <time>2020-06-22T19:48:47Z</time>
      </trkpt>
      <trkpt lat="50.85435" lon="1.5928">
        <ele>46.5</ele>
        <time>2020-06-22T19:48:48Z</time>
      </trkpt>
      <trkpt lat="50.85431" lon="1.59286">
        <ele>46.5</ele>
        <time>2020-06-22T19:48:49Z</time>
      </trkpt>
      <trkpt lat="50.85427" lon="1.59291">
        <ele>46.5</ele>
        <time>2020-06-22T19:48:50Z</time>
      </trkpt>
      <trkpt lat="50.85424" lon="1.59296">
        <ele>46.5</ele>
        <time>2020-06-22T19:48:51Z</time>
      </trkpt>
      <trkpt lat="50.8542" lon="1.59302">
        <ele>46.5</ele>
        <time>2020-06-22T19:48:52Z</time>
      </trkpt>
      <trkpt lat="50.85416" lon="1.59306">
        <ele>46.5</ele>
        <time>2020-06-22T19:48:53Z</time>
      </trkpt>
      <trkpt lat="50.85413" lon="1.59312">
        <ele>46.5</ele>
        <time>2020-06-22T19:48:54Z</time>
      </trkpt>
      <trkpt lat="50.85409" lon="1.59318">
        <ele>46.6</ele>
        <time>2020-06-22T19:48:55Z</time>
      </trkpt>
      <trkpt lat="50.85406" lon="1.59324">
        <ele>46.6</ele>
        <time>2020-06-22T19:48:56Z</time>
      </trkpt>
      <trkpt lat="50.85402" lon="1.59329">
        <ele>46.7</ele>
        <time>2020-06-22T19:48:57Z</time>
      </trkpt>
      <trkpt lat="50.85398" lon="1.59334">
        <ele>46.7</ele>
        <time>2020-06-22T19:48:58Z</time>
      </trkpt>
      <trkpt lat="50.85394" lon="1.5934">
        <ele>46.8</ele>
        <time>2020-06-22T19:48:59Z</time>
      </trkpt>
      <trkpt lat="50.85391" lon="1.59345">
        <ele>46.9</ele>
        <time>2020-06-22T19:49:00Z</time>
      </trkpt>
      <trkpt lat="50.85387" lon="1.5935">
        <ele>46.9</ele>
        <time>2020-06-22T19:49:01Z</time>
      </trkpt>
      <trkpt lat="50.85383" lon="1.59355">
        <ele>47</ele>
        <time>2020-06-22T19:49:02Z</time>
      </trkpt>
      <trkpt lat="50.85379" lon="1.59361">
        <ele>47.2</ele>
        <time>2020-06-22T19:49:03Z</time>
      </trkpt>
      <trkpt lat="50.85373" lon="1.59367">
        <ele>47.3</ele>
        <time>2020-06-22T19:49:04Z</time>
      </trkpt>
      <trkpt lat="50.85368" lon="1.59372">
        <ele>47.4</ele>
        <time>2020-06-22T19:49:05Z</time>
      </trkpt>
      <trkpt lat="50.85363" lon="1.59377">
        <ele>47.4</ele>
        <time>2020-06-22T19:49:06Z</time>
      </trkpt>
      <trkpt lat="50.85358" lon="1.59383">
        <ele>47.5</ele>
        <time>2020-06-22T19:49:07Z</time>
      </trkpt>
      <trkpt lat="50.85352" lon="1.59388">
        <ele>47.6</ele>
        <time>2020-06-22T19:49:08Z</time>
      </trkpt>
      <trkpt lat="50.8535" lon="1.59391">
        <ele>47.7</ele>
        <time>2020-06-22T19:49:09Z</time>
      </trkpt>
      <trkpt lat="50.85346" lon="1.59395">
        <ele>47.8</ele>
        <time>2020-06-22T19:49:10Z</time>
      </trkpt>
      <trkpt lat="50.85341" lon="1.59401">
        <ele>47.9</ele>
        <time>2020-06-22T19:49:11Z</time>
      </trkpt>
      <trkpt lat="50.85334" lon="1.59406">
        <ele>48</ele>
        <time>2020-06-22T19:49:12Z</time>
      </trkpt>
      <trkpt lat="50.85329" lon="1.5941">
        <ele>48.1</ele>
        <time>2020-06-22T19:49:13Z</time>
      </trkpt>
      <trkpt lat="50.85323" lon="1.59415">
        <ele>48.3</ele>
        <time>2020-06-22T19:49:14Z</time>
      </trkpt>
      <trkpt lat="50.85318" lon="1.5942">
        <ele>48.4</ele>
        <time>2020-06-22T19:49:15Z</time>
      </trkpt>
      <trkpt lat="50.85313" lon="1.59425">
        <ele>48.5</ele>
        <time>2020-06-22T19:49:16Z</time>
      </trkpt>
      <trkpt lat="50.85307" lon="1.59431">
        <ele>48.6</ele>
        <time>2020-06-22T19:49:17Z</time>
      </trkpt>
      <trkpt lat="50.85303" lon="1.59436">
        <ele>48.7</ele>
        <time>2020-06-22T19:49:18Z</time>
      </trkpt>
      <trkpt lat="50.85299" lon="1.5944">
        <ele>48.8</ele>
        <time>2020-06-22T19:49:19Z</time>
      </trkpt>
      <trkpt lat="50.85294" lon="1.59444">
        <ele>48.9</ele>
        <time>2020-06-22T19:49:20Z</time>
      </trkpt>
      <trkpt lat="50.8529" lon="1.59449">
        <ele>49</ele>
        <time>2020-06-22T19:49:21Z</time>
      </trkpt>
      <trkpt lat="50.85287" lon="1.59454">
        <ele>49.1</ele>
        <time>2020-06-22T19:49:22Z</time>
      </trkpt>
      <trkpt lat="50.85285" lon="1.59457">
        <ele>49.1</ele>
        <time>2020-06-22T19:49:23Z</time>
      </trkpt>
      <trkpt lat="50.85282" lon="1.59462">
        <ele>49.2</ele>
        <time>2020-06-22T19:49:24Z</time>
      </trkpt>
      <trkpt lat="50.85281" lon="1.59468">
        <ele>49.3</ele>
        <time>2020-06-22T19:49:25Z</time>
      </trkpt>
      <trkpt lat="50.8528" lon="1.59474">
        <ele>49.3</ele>
        <time>2020-06-22T19:49:26Z</time>
      </trkpt>
      <trkpt lat="50.8528" lon="1.59478">
        <ele>49.3</ele>
        <time>2020-06-22T19:49:27Z</time>
      </trkpt>
      <trkpt lat="50.8528" lon="1.59483">
        <ele>49.3</ele>
        <time>2020-06-22T19:49:28Z</time>
      </trkpt>
      <trkpt lat="50.85281" lon="1.59489">
        <ele>49.1</ele>
        <time>2020-06-22T19:49:29Z</time>
      </trkpt>
      <trkpt lat="50.85282" lon="1.59492">
        <ele>49.1</ele>
        <time>2020-06-22T19:49:30Z</time>
      </trkpt>
      <trkpt lat="50.85283" lon="1.59497">
        <ele>49.1</ele>
        <time>2020-06-22T19:49:31Z</time>
      </trkpt>
      <trkpt lat="50.85284" lon="1.59505">
        <ele>49</ele>
        <time>2020-06-22T19:49:32Z</time>
      </trkpt>
      <trkpt lat="50.85285" lon="1.59513">
        <ele>48.9</ele>
        <time>2020-06-22T19:49:33Z</time>
      </trkpt>
      <trkpt lat="50.85286" lon="1.59518">
        <ele>48.9</ele>
        <time>2020-06-22T19:49:34Z</time>
      </trkpt>
      <trkpt lat="50.85287" lon="1.59527">
        <ele>49</ele>
        <time>2020-06-22T19:49:35Z</time>
      </trkpt>
      <trkpt lat="50.85289" lon="1.59534">
        <ele>49</ele>
        <time>2020-06-22T19:49:36Z</time>
      </trkpt>
      <trkpt lat="50.85289" lon="1.59539">
        <ele>49.1</ele>
        <time>2020-06-22T19:49:37Z</time>
      </trkpt>
      <trkpt lat="50.8529" lon="1.59547">
        <ele>49.2</ele>
        <time>2020-06-22T19:49:38Z</time>
      </trkpt>
      <trkpt lat="50.85291" lon="1.59554">
        <ele>49.4</ele>
        <time>2020-06-22T19:49:39Z</time>
      </trkpt>
      <trkpt lat="50.85292" lon="1.59562">
        <ele>49.5</ele>
        <time>2020-06-22T19:49:40Z</time>
      </trkpt>
      <trkpt lat="50.85293" lon="1.59569">
        <ele>49.7</ele>
        <time>2020-06-22T19:49:41Z</time>
      </trkpt>
      <trkpt lat="50.85293" lon="1.59576">
        <ele>49.7</ele>
        <time>2020-06-22T19:49:42Z</time>
      </trkpt>
      <trkpt lat="50.85294" lon="1.59583">
        <ele>49.7</ele>
        <time>2020-06-22T19:49:43Z</time>
      </trkpt>
      <trkpt lat="50.85294" lon="1.5959">
        <ele>49.8</ele>
        <time>2020-06-22T19:49:44Z</time>
      </trkpt>
      <trkpt lat="50.85294" lon="1.59597">
        <ele>49.8</ele>
        <time>2020-06-22T19:49:45Z</time>
      </trkpt>
      <trkpt lat="50.85295" lon="1.59607">
        <ele>49.9</ele>
        <time>2020-06-22T19:49:46Z</time>
      </trkpt>
      <trkpt lat="50.85295" lon="1.59615">
        <ele>50</ele>
        <time>2020-06-22T19:49:47Z</time>
      </trkpt>
      <trkpt lat="50.85295" lon="1.5962">
        <ele>50</ele>
        <time>2020-06-22T19:49:48Z</time>
      </trkpt>
      <trkpt lat="50.85295" lon="1.59629">
        <ele>50.1</ele>
        <time>2020-06-22T19:49:49Z</time>
      </trkpt>
      <trkpt lat="50.85295" lon="1.59637">
        <ele>50.1</ele>
        <time>2020-06-22T19:49:50Z</time>
      </trkpt>
      <trkpt lat="50.85296" lon="1.59646">
        <ele>50.2</ele>
        <time>2020-06-22T19:49:51Z</time>
      </trkpt>
      <trkpt lat="50.85297" lon="1.59654">
        <ele>50.2</ele>
        <time>2020-06-22T19:49:52Z</time>
      </trkpt>
      <trkpt lat="50.85297" lon="1.59661">
        <ele>50.3</ele>
        <time>2020-06-22T19:49:53Z</time>
      </trkpt>
      <trkpt lat="50.85297" lon="1.59669">
        <ele>50.4</ele>
        <time>2020-06-22T19:49:54Z</time>
      </trkpt>
      <trkpt lat="50.85297" lon="1.59677">
        <ele>50.5</ele>
        <time>2020-06-22T19:49:55Z</time>
      </trkpt>
      <trkpt lat="50.85296" lon="1.59683">
        <ele>50.5</ele>
        <time>2020-06-22T19:49:56Z</time>
      </trkpt>
      <trkpt lat="50.85295" lon="1.59692">
        <ele>50.6</ele>
        <time>2020-06-22T19:49:57Z</time>
      </trkpt>
      <trkpt lat="50.85293" lon="1.597">
        <ele>50.7</ele>
        <time>2020-06-22T19:49:58Z</time>
      </trkpt>
      <trkpt lat="50.85293" lon="1.59709">
        <ele>50.9</ele>
        <time>2020-06-22T19:49:59Z</time>
      </trkpt>
      <trkpt lat="50.85292" lon="1.59717">
        <ele>51</ele>
        <time>2020-06-22T19:50:00Z</time>
      </trkpt>
      <trkpt lat="50.85291" lon="1.59724">
        <ele>51.1</ele>
        <time>2020-06-22T19:50:01Z</time>
      </trkpt>
      <trkpt lat="50.85289" lon="1.59733">
        <ele>51.2</ele>
        <time>2020-06-22T19:50:02Z</time>
      </trkpt>
      <trkpt lat="50.85289" lon="1.5974">
        <ele>51.3</ele>
        <time>2020-06-22T19:50:03Z</time>
      </trkpt>
      <trkpt lat="50.85288" lon="1.59748">
        <ele>51.4</ele>
        <time>2020-06-22T19:50:04Z</time>
      </trkpt>
      <trkpt lat="50.85288" lon="1.59756">
        <ele>51.5</ele>
        <time>2020-06-22T19:50:05Z</time>
      </trkpt>
      <trkpt lat="50.85287" lon="1.59765">
        <ele>51.6</ele>
        <time>2020-06-22T19:50:06Z</time>
      </trkpt>
      <trkpt lat="50.85286" lon="1.59773">
        <ele>51.7</ele>
        <time>2020-06-22T19:50:07Z</time>
      </trkpt>
      <trkpt lat="50.85285" lon="1.59782">
        <ele>51.8</ele>
        <time>2020-06-22T19:50:08Z</time>
      </trkpt>
      <trkpt lat="50.85284" lon="1.59791">
        <ele>51.9</ele>
        <time>2020-06-22T19:50:09Z</time>
      </trkpt>
      <trkpt lat="50.85284" lon="1.598">
        <ele>52</ele>
        <time>2020-06-22T19:50:10Z</time>
      </trkpt>
      <trkpt lat="50.85283" lon="1.59808">
        <ele>52</ele>
        <time>2020-06-22T19:50:11Z</time>
      </trkpt>
      <trkpt lat="50.85282" lon="1.59816">
        <ele>52</ele>
        <time>2020-06-22T19:50:12Z</time>
      </trkpt>
      <trkpt lat="50.85281" lon="1.59824">
        <ele>52</ele>
        <time>2020-06-22T19:50:13Z</time>
      </trkpt>
      <trkpt lat="50.85281" lon="1.59833">
        <ele>52</ele>
        <time>2020-06-22T19:50:14Z</time>
      </trkpt>
      <trkpt lat="50.85281" lon="1.59842">
        <ele>52.1</ele>
        <time>2020-06-22T19:50:15Z</time>
      </trkpt>
      <trkpt lat="50.85281" lon="1.59851">
        <ele>52.1</ele>
        <time>2020-06-22T19:50:16Z</time>
      </trkpt>
      <trkpt lat="50.85282" lon="1.5986">
        <ele>52.2</ele>
        <time>2020-06-22T19:50:17Z</time>
      </trkpt>
      <trkpt lat="50.85282" lon="1.59869">
        <ele>52.3</ele>
        <time>2020-06-22T19:50:18Z</time>
      </trkpt>
      <trkpt lat="50.85282" lon="1.59879">
        <ele>52.3</ele>
        <time>2020-06-22T19:50:19Z</time>
      </trkpt>
      <trkpt lat="50.85283" lon="1.59887">
        <ele>52.4</ele>
        <time>2020-06-22T19:50:20Z</time>
      </trkpt>
      <trkpt lat="50.85283" lon="1.59896">
        <ele>52.4</ele>
        <time>2020-06-22T19:50:21Z</time>
      </trkpt>
      <trkpt lat="50.85283" lon="1.59904">
        <ele>52.5</ele>
        <time>2020-06-22T19:50:22Z</time>
      </trkpt>
      <trkpt lat="50.85284" lon="1.59914">
        <ele>52.5</ele>
        <time>2020-06-22T19:50:23Z</time>
      </trkpt>
      <trkpt lat="50.85284" lon="1.59923">
        <ele>52.5</ele>
        <time>2020-06-22T19:50:24Z</time>
      </trkpt>
      <trkpt lat="50.85285" lon="1.59933">
        <ele>52.5</ele>
        <time>2020-06-22T19:50:25Z</time>
      </trkpt>
      <trkpt lat="50.85285" lon="1.59943">
        <ele>52.4</ele>
        <time>2020-06-22T19:50:26Z</time>
      </trkpt>
      <trkpt lat="50.85286" lon="1.59953">
        <ele>52.4</ele>
        <time>2020-06-22T19:50:27Z</time>
      </trkpt>
      <trkpt lat="50.85286" lon="1.59962">
        <ele>52.3</ele>
        <time>2020-06-22T19:50:28Z</time>
      </trkpt>
      <trkpt lat="50.85286" lon="1.59972">
        <ele>52.3</ele>
        <time>2020-06-22T19:50:29Z</time>
      </trkpt>
      <trkpt lat="50.85287" lon="1.59984">
        <ele>52.2</ele>
        <time>2020-06-22T19:50:30Z</time>
      </trkpt>
      <trkpt lat="50.85287" lon="1.59994">
        <ele>52.2</ele>
        <time>2020-06-22T19:50:31Z</time>
      </trkpt>
      <trkpt lat="50.85287" lon="1.60005">
        <ele>52.1</ele>
        <time>2020-06-22T19:50:32Z</time>
      </trkpt>
      <trkpt lat="50.85287" lon="1.60016">
        <ele>52.1</ele>
        <time>2020-06-22T19:50:33Z</time>
      </trkpt>
      <trkpt lat="50.85287" lon="1.60026">
        <ele>52.1</ele>
        <time>2020-06-22T19:50:34Z</time>
      </trkpt>
      <trkpt lat="50.85288" lon="1.60036">
        <ele>52</ele>
        <time>2020-06-22T19:50:35Z</time>
      </trkpt>
      <trkpt lat="50.85288" lon="1.60047">
        <ele>52</ele>
        <time>2020-06-22T19:50:36Z</time>
      </trkpt>
      <trkpt lat="50.85289" lon="1.60057">
        <ele>52</ele>
        <time>2020-06-22T19:50:37Z</time>
      </trkpt>
      <trkpt lat="50.85289" lon="1.60068">
        <ele>52</ele>
        <time>2020-06-22T19:50:38Z</time>
      </trkpt>
      <trkpt lat="50.85291" lon="1.60078">
        <ele>51.9</ele>
        <time>2020-06-22T19:50:39Z</time>
      </trkpt>
      <trkpt lat="50.85291" lon="1.60089">
        <ele>51.8</ele>
        <time>2020-06-22T19:50:40Z</time>
      </trkpt>
      <trkpt lat="50.85292" lon="1.601">
        <ele>51.8</ele>
        <time>2020-06-22T19:50:41Z</time>
      </trkpt>
      <trkpt lat="50.85293" lon="1.60111">
        <ele>51.8</ele>
        <time>2020-06-22T19:50:42Z</time>
      </trkpt>
      <trkpt lat="50.85293" lon="1.60122">
        <ele>51.9</ele>
        <time>2020-06-22T19:50:43Z</time>
      </trkpt>
      <trkpt lat="50.85293" lon="1.60134">
        <ele>52</ele>
        <time>2020-06-22T19:50:44Z</time>
      </trkpt>
      <trkpt lat="50.85294" lon="1.60145">
        <ele>52</ele>
        <time>2020-06-22T19:50:45Z</time>
      </trkpt>
      <trkpt lat="50.85293" lon="1.60156">
        <ele>51.9</ele>
        <time>2020-06-22T19:50:46Z</time>
      </trkpt>
      <trkpt lat="50.85294" lon="1.60167">
        <ele>51.9</ele>
        <time>2020-06-22T19:50:47Z</time>
      </trkpt>
      <trkpt lat="50.85294" lon="1.60178">
        <ele>51.9</ele>
        <time>2020-06-22T19:50:48Z</time>
      </trkpt>
      <trkpt lat="50.85295" lon="1.60189">
        <ele>51.9</ele>
        <time>2020-06-22T19:50:49Z</time>
      </trkpt>
      <trkpt lat="50.85296" lon="1.602">
        <ele>51.9</ele>
        <time>2020-06-22T19:50:50Z</time>
      </trkpt>
      <trkpt lat="50.85296" lon="1.60211">
        <ele>51.9</ele>
        <time>2020-06-22T19:50:51Z</time>
      </trkpt>
      <trkpt lat="50.85297" lon="1.60222">
        <ele>51.8</ele>
        <time>2020-06-22T19:50:52Z</time>
      </trkpt>
      <trkpt lat="50.85297" lon="1.60233">
        <ele>51.8</ele>
        <time>2020-06-22T19:50:53Z</time>
      </trkpt>
      <trkpt lat="50.85297" lon="1.60245">
        <ele>51.8</ele>
        <time>2020-06-22T19:50:54Z</time>
      </trkpt>
      <trkpt lat="50.85298" lon="1.60256">
        <ele>51.8</ele>
        <time>2020-06-22T19:50:55Z</time>
      </trkpt>
      <trkpt lat="50.85298" lon="1.60267">
        <ele>51.8</ele>
        <time>2020-06-22T19:50:56Z</time>
      </trkpt>
      <trkpt lat="50.85299" lon="1.60279">
        <ele>51.8</ele>
        <time>2020-06-22T19:50:57Z</time>
      </trkpt>
      <trkpt lat="50.85299" lon="1.6029">
        <ele>51.8</ele>
        <time>2020-06-22T19:50:58Z</time>
      </trkpt>
      <trkpt lat="50.85299" lon="1.603">
        <ele>51.9</ele>
        <time>2020-06-22T19:50:59Z</time>
      </trkpt>
      <trkpt lat="50.85299" lon="1.60311">
        <ele>51.9</ele>
        <time>2020-06-22T19:51:00Z</time>
      </trkpt>
      <trkpt lat="50.853" lon="1.60321">
        <ele>51.8</ele>
        <time>2020-06-22T19:51:01Z</time>
      </trkpt>
      <trkpt lat="50.853" lon="1.60331">
        <ele>51.7</ele>
        <time>2020-06-22T19:51:02Z</time>
      </trkpt>
      <trkpt lat="50.85299" lon="1.60341">
        <ele>51.6</ele>
        <time>2020-06-22T19:51:03Z</time>
      </trkpt>
      <trkpt lat="50.85299" lon="1.6035">
        <ele>51.6</ele>
        <time>2020-06-22T19:51:04Z</time>
      </trkpt>
      <trkpt lat="50.85298" lon="1.6036">
        <ele>51.5</ele>
        <time>2020-06-22T19:51:05Z</time>
      </trkpt>
      <trkpt lat="50.85298" lon="1.60369">
        <ele>51.4</ele>
        <time>2020-06-22T19:51:06Z</time>
      </trkpt>
      <trkpt lat="50.85297" lon="1.60379">
        <ele>51.4</ele>
        <time>2020-06-22T19:51:07Z</time>
      </trkpt>
      <trkpt lat="50.85296" lon="1.60388">
        <ele>51.3</ele>
        <time>2020-06-22T19:51:08Z</time>
      </trkpt>
      <trkpt lat="50.85294" lon="1.60397">
        <ele>51.3</ele>
        <time>2020-06-22T19:51:09Z</time>
      </trkpt>
      <trkpt lat="50.85293" lon="1.60406">
        <ele>51.2</ele>
        <time>2020-06-22T19:51:10Z</time>
      </trkpt>
      <trkpt lat="50.85292" lon="1.60415">
        <ele>51.1</ele>
        <time>2020-06-22T19:51:11Z</time>
      </trkpt>
      <trkpt lat="50.85292" lon="1.60424">
        <ele>51.1</ele>
        <time>2020-06-22T19:51:12Z</time>
      </trkpt>
      <trkpt lat="50.85291" lon="1.60433">
        <ele>51.1</ele>
        <time>2020-06-22T19:51:13Z</time>
      </trkpt>
      <trkpt lat="50.8529" lon="1.60441">
        <ele>51.1</ele>
        <time>2020-06-22T19:51:14Z</time>
      </trkpt>
      <trkpt lat="50.85289" lon="1.60449">
        <ele>51.1</ele>
        <time>2020-06-22T19:51:15Z</time>
      </trkpt>
      <trkpt lat="50.85288" lon="1.60457">
        <ele>51.1</ele>
        <time>2020-06-22T19:51:16Z</time>
      </trkpt>
      <trkpt lat="50.85287" lon="1.60463">
        <ele>51.1</ele>
        <time>2020-06-22T19:51:17Z</time>
      </trkpt>
      <trkpt lat="50.85286" lon="1.6047">
        <ele>51.1</ele>
        <time>2020-06-22T19:51:18Z</time>
      </trkpt>
      <trkpt lat="50.85285" lon="1.60478">
        <ele>51.1</ele>
        <time>2020-06-22T19:51:19Z</time>
      </trkpt>
      <trkpt lat="50.85284" lon="1.60486">
        <ele>51.1</ele>
        <time>2020-06-22T19:51:20Z</time>
      </trkpt>
      <trkpt lat="50.85282" lon="1.60494">
        <ele>51.1</ele>
        <time>2020-06-22T19:51:21Z</time>
      </trkpt>
      <trkpt lat="50.85281" lon="1.60502">
        <ele>51.2</ele>
        <time>2020-06-22T19:51:22Z</time>
      </trkpt>
      <trkpt lat="50.85279" lon="1.60509">
        <ele>51.2</ele>
        <time>2020-06-22T19:51:23Z</time>
      </trkpt>
      <trkpt lat="50.85277" lon="1.60516">
        <ele>51.3</ele>
        <time>2020-06-22T19:51:24Z</time>
      </trkpt>
      <trkpt lat="50.85276" lon="1.60522">
        <ele>51.4</ele>
        <time>2020-06-22T19:51:25Z</time>
      </trkpt>
      <trkpt lat="50.85275" lon="1.60528">
        <ele>51.4</ele>
        <time>2020-06-22T19:51:26Z</time>
      </trkpt>
      <trkpt lat="50.85273" lon="1.60533">
        <ele>51.4</ele>
        <time>2020-06-22T19:51:27Z</time>
      </trkpt>
      <trkpt lat="50.85272" lon="1.60535">
        <ele>51.4</ele>
        <time>2020-06-22T19:51:28Z</time>
      </trkpt>
      <trkpt lat="50.85271" lon="1.60541">
        <ele>51.4</ele>
        <time>2020-06-22T19:51:29Z</time>
      </trkpt>
      <trkpt lat="50.85269" lon="1.6055">
        <ele>51.5</ele>
        <time>2020-06-22T19:51:30Z</time>
      </trkpt>
      <trkpt lat="50.85268" lon="1.60558">
        <ele>51.6</ele>
        <time>2020-06-22T19:51:31Z</time>
      </trkpt>
      <trkpt lat="50.85266" lon="1.60565">
        <ele>51.7</ele>
        <time>2020-06-22T19:51:32Z</time>
      </trkpt>
      <trkpt lat="50.85265" lon="1.6057">
        <ele>51.7</ele>
        <time>2020-06-22T19:51:33Z</time>
      </trkpt>
      <trkpt lat="50.85263" lon="1.60576">
        <ele>51.8</ele>
        <time>2020-06-22T19:51:34Z</time>
      </trkpt>
      <trkpt lat="50.85263" lon="1.60584">
        <ele>51.9</ele>
        <time>2020-06-22T19:51:35Z</time>
      </trkpt>
      <trkpt lat="50.85261" lon="1.60591">
        <ele>52</ele>
        <time>2020-06-22T19:51:36Z</time>
      </trkpt>
      <trkpt lat="50.8526" lon="1.60601">
        <ele>52.2</ele>
        <time>2020-06-22T19:51:37Z</time>
      </trkpt>
      <trkpt lat="50.85258" lon="1.60608">
        <ele>52.3</ele>
        <time>2020-06-22T19:51:38Z</time>
      </trkpt>
      <trkpt lat="50.85256" lon="1.60614">
        <ele>52.4</ele>
        <time>2020-06-22T19:51:39Z</time>
      </trkpt>
      <trkpt lat="50.85255" lon="1.60618">
        <ele>52.4</ele>
        <time>2020-06-22T19:51:40Z</time>
      </trkpt>
      <trkpt lat="50.85253" lon="1.60625">
        <ele>52.5</ele>
        <time>2020-06-22T19:51:41Z</time>
      </trkpt>
      <trkpt lat="50.85251" lon="1.60632">
        <ele>52.6</ele>
        <time>2020-06-22T19:51:42Z</time>
      </trkpt>
      <trkpt lat="50.8525" lon="1.60637">
        <ele>52.7</ele>
        <time>2020-06-22T19:51:43Z</time>
      </trkpt>
      <trkpt lat="50.85248" lon="1.60644">
        <ele>52.8</ele>
        <time>2020-06-22T19:51:44Z</time>
      </trkpt>
      <trkpt lat="50.85247" lon="1.60651">
        <ele>52.9</ele>
        <time>2020-06-22T19:51:45Z</time>
      </trkpt>
      <trkpt lat="50.85245" lon="1.60657">
        <ele>53.1</ele>
        <time>2020-06-22T19:51:46Z</time>
      </trkpt>
      <trkpt lat="50.85242" lon="1.60663">
        <ele>53.2</ele>
        <time>2020-06-22T19:51:47Z</time>
      </trkpt>
      <trkpt lat="50.8524" lon="1.60669">
        <ele>53.4</ele>
        <time>2020-06-22T19:51:48Z</time>
      </trkpt>
      <trkpt lat="50.85238" lon="1.60675">
        <ele>53.6</ele>
        <time>2020-06-22T19:51:49Z</time>
      </trkpt>
      <trkpt lat="50.85236" lon="1.60682">
        <ele>53.8</ele>
        <time>2020-06-22T19:51:50Z</time>
      </trkpt>
      <trkpt lat="50.85234" lon="1.60688">
        <ele>54</ele>
        <time>2020-06-22T19:51:51Z</time>
      </trkpt>
      <trkpt lat="50.85232" lon="1.60692">
        <ele>54.1</ele>
        <time>2020-06-22T19:51:52Z</time>
      </trkpt>
      <trkpt lat="50.85231" lon="1.60698">
        <ele>54.2</ele>
        <time>2020-06-22T19:51:53Z</time>
      </trkpt>
      <trkpt lat="50.85229" lon="1.60703">
        <ele>54.3</ele>
        <time>2020-06-22T19:51:54Z</time>
      </trkpt>
      <trkpt lat="50.85227" lon="1.60709">
        <ele>54.4</ele>
        <time>2020-06-22T19:51:55Z</time>
      </trkpt>
      <trkpt lat="50.85226" lon="1.60715">
        <ele>54.5</ele>
        <time>2020-06-22T19:51:56Z</time>
      </trkpt>
      <trkpt lat="50.85224" lon="1.60722">
        <ele>54.6</ele>
        <time>2020-06-22T19:51:57Z</time>
      </trkpt>
      <trkpt lat="50.85223" lon="1.60727">
        <ele>54.7</ele>
        <time>2020-06-22T19:51:58Z</time>
      </trkpt>
      <trkpt lat="50.85221" lon="1.60733">
        <ele>54.9</ele>
        <time>2020-06-22T19:51:59Z</time>
      </trkpt>
      <trkpt lat="50.85219" lon="1.6074">
        <ele>55</ele>
        <time>2020-06-22T19:52:00Z</time>
      </trkpt>
      <trkpt lat="50.85218" lon="1.60745">
        <ele>55.1</ele>
        <time>2020-06-22T19:52:01Z</time>
      </trkpt>
      <trkpt lat="50.85216" lon="1.60754">
        <ele>55.3</ele>
        <time>2020-06-22T19:52:02Z</time>
      </trkpt>
      <trkpt lat="50.85213" lon="1.6076">
        <ele>55.4</ele>
        <time>2020-06-22T19:52:03Z</time>
      </trkpt>
      <trkpt lat="50.85212" lon="1.60767">
        <ele>55.5</ele>
        <time>2020-06-22T19:52:04Z</time>
      </trkpt>
      <trkpt lat="50.8521" lon="1.60773">
        <ele>55.5</ele>
        <time>2020-06-22T19:52:05Z</time>
      </trkpt>
      <trkpt lat="50.85208" lon="1.6078">
        <ele>55.6</ele>
        <time>2020-06-22T19:52:06Z</time>
      </trkpt>
      <trkpt lat="50.85207" lon="1.60785">
        <ele>55.7</ele>
        <time>2020-06-22T19:52:07Z</time>
      </trkpt>
      <trkpt lat="50.85204" lon="1.60791">
        <ele>55.9</ele>
        <time>2020-06-22T19:52:08Z</time>
      </trkpt>
      <trkpt lat="50.85203" lon="1.60798">
        <ele>56</ele>
        <time>2020-06-22T19:52:09Z</time>
      </trkpt>
      <trkpt lat="50.852" lon="1.60806">
        <ele>56.2</ele>
        <time>2020-06-22T19:52:10Z</time>
      </trkpt>
      <trkpt lat="50.85198" lon="1.60813">
        <ele>56.3</ele>
        <time>2020-06-22T19:52:11Z</time>
      </trkpt>
      <trkpt lat="50.85196" lon="1.60821">
        <ele>56.4</ele>
        <time>2020-06-22T19:52:12Z</time>
      </trkpt>
      <trkpt lat="50.85193" lon="1.60828">
        <ele>56.6</ele>
        <time>2020-06-22T19:52:13Z</time>
      </trkpt>
      <trkpt lat="50.85191" lon="1.60835">
        <ele>56.6</ele>
        <time>2020-06-22T19:52:14Z</time>
      </trkpt>
      <trkpt lat="50.85188" lon="1.60842">
        <ele>56.6</ele>
        <time>2020-06-22T19:52:15Z</time>
      </trkpt>
      <trkpt lat="50.85185" lon="1.60848">
        <ele>56.5</ele>
        <time>2020-06-22T19:52:16Z</time>
      </trkpt>
      <trkpt lat="50.85183" lon="1.60856">
        <ele>56.4</ele>
        <time>2020-06-22T19:52:17Z</time>
      </trkpt>
      <trkpt lat="50.8518" lon="1.60862">
        <ele>56.5</ele>
        <time>2020-06-22T19:52:18Z</time>
      </trkpt>
      <trkpt lat="50.85178" lon="1.6087">
        <ele>56.6</ele>
        <time>2020-06-22T19:52:19Z</time>
      </trkpt>
      <trkpt lat="50.85176" lon="1.60877">
        <ele>56.7</ele>
        <time>2020-06-22T19:52:20Z</time>
      </trkpt>
      <trkpt lat="50.85175" lon="1.60884">
        <ele>56.8</ele>
        <time>2020-06-22T19:52:21Z</time>
      </trkpt>
      <trkpt lat="50.85173" lon="1.6089">
        <ele>56.9</ele>
        <time>2020-06-22T19:52:22Z</time>
      </trkpt>
      <trkpt lat="50.85171" lon="1.60897">
        <ele>57</ele>
        <time>2020-06-22T19:52:23Z</time>
      </trkpt>
      <trkpt lat="50.85169" lon="1.60903">
        <ele>57.2</ele>
        <time>2020-06-22T19:52:24Z</time>
      </trkpt>
      <trkpt lat="50.85167" lon="1.6091">
        <ele>57.3</ele>
        <time>2020-06-22T19:52:25Z</time>
      </trkpt>
      <trkpt lat="50.85166" lon="1.60915">
        <ele>57.4</ele>
        <time>2020-06-22T19:52:26Z</time>
      </trkpt>
      <trkpt lat="50.85165" lon="1.60922">
        <ele>57.5</ele>
        <time>2020-06-22T19:52:27Z</time>
      </trkpt>
      <trkpt lat="50.85163" lon="1.60929">
        <ele>57.7</ele>
        <time>2020-06-22T19:52:28Z</time>
      </trkpt>
      <trkpt lat="50.85163" lon="1.60935">
        <ele>57.8</ele>
        <time>2020-06-22T19:52:29Z</time>
      </trkpt>
      <trkpt lat="50.85162" lon="1.60941">
        <ele>57.9</ele>
        <time>2020-06-22T19:52:30Z</time>
      </trkpt>
      <trkpt lat="50.85161" lon="1.60947">
        <ele>58</ele>
        <time>2020-06-22T19:52:31Z</time>
      </trkpt>
      <trkpt lat="50.85159" lon="1.60953">
        <ele>58.1</ele>
        <time>2020-06-22T19:52:32Z</time>
      </trkpt>
      <trkpt lat="50.85157" lon="1.60958">
        <ele>58.2</ele>
        <time>2020-06-22T19:52:33Z</time>
      </trkpt>
      <trkpt lat="50.85156" lon="1.60962">
        <ele>58.3</ele>
        <time>2020-06-22T19:52:34Z</time>
      </trkpt>
      <trkpt lat="50.85153" lon="1.60969">
        <ele>58.5</ele>
        <time>2020-06-22T19:52:35Z</time>
      </trkpt>
      <trkpt lat="50.85151" lon="1.60975">
        <ele>58.7</ele>
        <time>2020-06-22T19:52:36Z</time>
      </trkpt>
      <trkpt lat="50.85149" lon="1.6098">
        <ele>58.9</ele>
        <time>2020-06-22T19:52:37Z</time>
      </trkpt>
      <trkpt lat="50.85146" lon="1.60985">
        <ele>59.1</ele>
        <time>2020-06-22T19:52:38Z</time>
      </trkpt>
      <trkpt lat="50.85144" lon="1.6099">
        <ele>59.2</ele>
        <time>2020-06-22T19:52:39Z</time>
      </trkpt>
      <trkpt lat="50.85141" lon="1.60993">
        <ele>59.4</ele>
        <time>2020-06-22T19:52:40Z</time>
      </trkpt>
      <trkpt lat="50.85137" lon="1.60996">
        <ele>59.6</ele>
        <time>2020-06-22T19:52:41Z</time>
      </trkpt>
      <trkpt lat="50.85133" lon="1.60998">
        <ele>59.7</ele>
        <time>2020-06-22T19:52:42Z</time>
      </trkpt>
      <trkpt lat="50.85129" lon="1.61004">
        <ele>59.9</ele>
        <time>2020-06-22T19:52:43Z</time>
      </trkpt>
      <trkpt lat="50.85126" lon="1.61009">
        <ele>60.1</ele>
        <time>2020-06-22T19:52:44Z</time>
      </trkpt>
      <trkpt lat="50.85123" lon="1.61013">
        <ele>60.3</ele>
        <time>2020-06-22T19:52:45Z</time>
      </trkpt>
      <trkpt lat="50.85121" lon="1.61018">
        <ele>60.4</ele>
        <time>2020-06-22T19:52:46Z</time>
      </trkpt>
      <trkpt lat="50.85118" lon="1.61021">
        <ele>60.5</ele>
        <time>2020-06-22T19:52:47Z</time>
      </trkpt>
      <trkpt lat="50.85114" lon="1.61025">
        <ele>60.7</ele>
        <time>2020-06-22T19:52:48Z</time>
      </trkpt>
      <trkpt lat="50.85111" lon="1.61028">
        <ele>60.9</ele>
        <time>2020-06-22T19:52:49Z</time>
      </trkpt>
      <trkpt lat="50.85108" lon="1.61033">
        <ele>61</ele>
        <time>2020-06-22T19:52:50Z</time>
      </trkpt>
      <trkpt lat="50.85107" lon="1.61035">
        <ele>61.1</ele>
        <time>2020-06-22T19:52:51Z</time>
      </trkpt>
      <trkpt lat="50.85104" lon="1.61038">
        <ele>61.2</ele>
        <time>2020-06-22T19:52:52Z</time>
      </trkpt>
      <trkpt lat="50.85102" lon="1.61041">
        <ele>61.3</ele>
        <time>2020-06-22T19:52:53Z</time>
      </trkpt>
      <trkpt lat="50.85099" lon="1.61045">
        <ele>61.5</ele>
        <time>2020-06-22T19:52:54Z</time>
      </trkpt>
      <trkpt lat="50.85098" lon="1.61047">
        <ele>61.5</ele>
        <time>2020-06-22T19:52:55Z</time>
      </trkpt>
      <trkpt lat="50.85094" lon="1.61051">
        <ele>61.7</ele>
        <time>2020-06-22T19:52:56Z</time>
      </trkpt>
      <trkpt lat="50.85092" lon="1.61055">
        <ele>61.8</ele>
        <time>2020-06-22T19:52:57Z</time>
      </trkpt>
      <trkpt lat="50.85088" lon="1.6106">
        <ele>62</ele>
        <time>2020-06-22T19:52:58Z</time>
      </trkpt>
      <trkpt lat="50.85086" lon="1.61062">
        <ele>62.1</ele>
        <time>2020-06-22T19:52:59Z</time>
      </trkpt>
      <trkpt lat="50.85083" lon="1.61066">
        <ele>62.2</ele>
        <time>2020-06-22T19:53:00Z</time>
      </trkpt>
      <trkpt lat="50.85081" lon="1.61069">
        <ele>62.4</ele>
        <time>2020-06-22T19:53:01Z</time>
      </trkpt>
      <trkpt lat="50.85078" lon="1.61073">
        <ele>62.5</ele>
        <time>2020-06-22T19:53:02Z</time>
      </trkpt>
      <trkpt lat="50.85075" lon="1.61077">
        <ele>62.7</ele>
        <time>2020-06-22T19:53:03Z</time>
      </trkpt>
      <trkpt lat="50.85073" lon="1.61081">
        <ele>62.7</ele>
        <time>2020-06-22T19:53:04Z</time>
      </trkpt>
      <trkpt lat="50.85072" lon="1.61082">
        <ele>62.8</ele>
        <time>2020-06-22T19:53:05Z</time>
      </trkpt>
      <trkpt lat="50.85073" lon="1.61087">
        <ele>62.9</ele>
        <time>2020-06-22T19:53:06Z</time>
      </trkpt>
      <trkpt lat="50.85075" lon="1.61091">
        <ele>62.8</ele>
        <time>2020-06-22T19:53:07Z</time>
      </trkpt>
      <trkpt lat="50.85078" lon="1.61094">
        <ele>62.8</ele>
        <time>2020-06-22T19:53:08Z</time>
      </trkpt>
      <trkpt lat="50.85082" lon="1.61098">
        <ele>62.7</ele>
        <time>2020-06-22T19:53:09Z</time>
      </trkpt>
      <trkpt lat="50.85086" lon="1.611">
        <ele>62.7</ele>
        <time>2020-06-22T19:53:10Z</time>
      </trkpt>
      <trkpt lat="50.8509" lon="1.61103">
        <ele>62.6</ele>
        <time>2020-06-22T19:53:11Z</time>
      </trkpt>
      <trkpt lat="50.85094" lon="1.61107">
        <ele>62.5</ele>
        <time>2020-06-22T19:53:12Z</time>
      </trkpt>
      <trkpt lat="50.85098" lon="1.61111">
        <ele>62.5</ele>
        <time>2020-06-22T19:53:13Z</time>
      </trkpt>
      <trkpt lat="50.85101" lon="1.61115">
        <ele>62.4</ele>
        <time>2020-06-22T19:53:14Z</time>
      </trkpt>
      <trkpt lat="50.85104" lon="1.6112">
        <ele>62.3</ele>
        <time>2020-06-22T19:53:15Z</time>
      </trkpt>
      <trkpt lat="50.85107" lon="1.61124">
        <ele>62.3</ele>
        <time>2020-06-22T19:53:16Z</time>
      </trkpt>
      <trkpt lat="50.85111" lon="1.6113">
        <ele>62.2</ele>
        <time>2020-06-22T19:53:17Z</time>
      </trkpt>
      <trkpt lat="50.85114" lon="1.61134">
        <ele>62.1</ele>
        <time>2020-06-22T19:53:18Z</time>
      </trkpt>
      <trkpt lat="50.85119" lon="1.61139">
        <ele>62.1</ele>
        <time>2020-06-22T19:53:19Z</time>
      </trkpt>
      <trkpt lat="50.85123" lon="1.61145">
        <ele>62</ele>
        <time>2020-06-22T19:53:20Z</time>
      </trkpt>
      <trkpt lat="50.85127" lon="1.6115">
        <ele>62</ele>
        <time>2020-06-22T19:53:21Z</time>
      </trkpt>
      <trkpt lat="50.85132" lon="1.61156">
        <ele>61.9</ele>
        <time>2020-06-22T19:53:22Z</time>
      </trkpt>
      <trkpt lat="50.85136" lon="1.61162">
        <ele>62</ele>
        <time>2020-06-22T19:53:23Z</time>
      </trkpt>
      <trkpt lat="50.8514" lon="1.61169">
        <ele>62</ele>
        <time>2020-06-22T19:53:24Z</time>
      </trkpt>
      <trkpt lat="50.85144" lon="1.61175">
        <ele>62</ele>
        <time>2020-06-22T19:53:25Z</time>
      </trkpt>
      <trkpt lat="50.85148" lon="1.6118">
        <ele>62</ele>
        <time>2020-06-22T19:53:26Z</time>
      </trkpt>
      <trkpt lat="50.85152" lon="1.61186">
        <ele>62.1</ele>
        <time>2020-06-22T19:53:27Z</time>
      </trkpt>
      <trkpt lat="50.85156" lon="1.61192">
        <ele>61.9</ele>
        <time>2020-06-22T19:53:28Z</time>
      </trkpt>
      <trkpt lat="50.85161" lon="1.61199">
        <ele>61.7</ele>
        <time>2020-06-22T19:53:29Z</time>
      </trkpt>
      <trkpt lat="50.85164" lon="1.61203">
        <ele>61.6</ele>
        <time>2020-06-22T19:53:30Z</time>
      </trkpt>
      <trkpt lat="50.85169" lon="1.61209">
        <ele>61.4</ele>
        <time>2020-06-22T19:53:31Z</time>
      </trkpt>
      <trkpt lat="50.85174" lon="1.61216">
        <ele>61.3</ele>
        <time>2020-06-22T19:53:32Z</time>
      </trkpt>
      <trkpt lat="50.85179" lon="1.61222">
        <ele>61.1</ele>
        <time>2020-06-22T19:53:33Z</time>
      </trkpt>
      <trkpt lat="50.85183" lon="1.61227">
        <ele>61</ele>
        <time>2020-06-22T19:53:34Z</time>
      </trkpt>
      <trkpt lat="50.85188" lon="1.61234">
        <ele>60.7</ele>
        <time>2020-06-22T19:53:35Z</time>
      </trkpt>
      <trkpt lat="50.85193" lon="1.6124">
        <ele>60.6</ele>
        <time>2020-06-22T19:53:36Z</time>
      </trkpt>
      <trkpt lat="50.85199" lon="1.61248">
        <ele>60.5</ele>
        <time>2020-06-22T19:53:37Z</time>
      </trkpt>
      <trkpt lat="50.85202" lon="1.61255">
        <ele>60.4</ele>
        <time>2020-06-22T19:53:38Z</time>
      </trkpt>
      <trkpt lat="50.85207" lon="1.61261">
        <ele>60.4</ele>
        <time>2020-06-22T19:53:39Z</time>
      </trkpt>
      <trkpt lat="50.85212" lon="1.61267">
        <ele>60.3</ele>
        <time>2020-06-22T19:53:40Z</time>
      </trkpt>
      <trkpt lat="50.85217" lon="1.61273">
        <ele>60.2</ele>
        <time>2020-06-22T19:53:41Z</time>
      </trkpt>
      <trkpt lat="50.85221" lon="1.61277">
        <ele>60.1</ele>
        <time>2020-06-22T19:53:42Z</time>
      </trkpt>
      <trkpt lat="50.85226" lon="1.61283">
        <ele>60</ele>
        <time>2020-06-22T19:53:43Z</time>
      </trkpt>
      <trkpt lat="50.8523" lon="1.6129">
        <ele>59.9</ele>
        <time>2020-06-22T19:53:44Z</time>
      </trkpt>
      <trkpt lat="50.85235" lon="1.61297">
        <ele>59.9</ele>
        <time>2020-06-22T19:53:45Z</time>
      </trkpt>
      <trkpt lat="50.85239" lon="1.61303">
        <ele>59.8</ele>
        <time>2020-06-22T19:53:46Z</time>
      </trkpt>
      <trkpt lat="50.85244" lon="1.61308">
        <ele>59.7</ele>
        <time>2020-06-22T19:53:47Z</time>
      </trkpt>
      <trkpt lat="50.8525" lon="1.61314">
        <ele>59.5</ele>
        <time>2020-06-22T19:53:48Z</time>
      </trkpt>
      <trkpt lat="50.85257" lon="1.61319">
        <ele>59.4</ele>
        <time>2020-06-22T19:53:49Z</time>
      </trkpt>
      <trkpt lat="50.85264" lon="1.61323">
        <ele>59.3</ele>
        <time>2020-06-22T19:53:50Z</time>
      </trkpt>
      <trkpt lat="50.85269" lon="1.61327">
        <ele>59.1</ele>
        <time>2020-06-22T19:53:51Z</time>
      </trkpt>
      <trkpt lat="50.85275" lon="1.61333">
        <ele>59</ele>
        <time>2020-06-22T19:53:52Z</time>
      </trkpt>
      <trkpt lat="50.8528" lon="1.61337">
        <ele>58.9</ele>
        <time>2020-06-22T19:53:53Z</time>
      </trkpt>
      <trkpt lat="50.85285" lon="1.61343">
        <ele>58.7</ele>
        <time>2020-06-22T19:53:54Z</time>
      </trkpt>
      <trkpt lat="50.85291" lon="1.61348">
        <ele>58.6</ele>
        <time>2020-06-22T19:53:55Z</time>
      </trkpt>
      <trkpt lat="50.85295" lon="1.61353">
        <ele>58.5</ele>
        <time>2020-06-22T19:53:56Z</time>
      </trkpt>
      <trkpt lat="50.85301" lon="1.61359">
        <ele>58.4</ele>
        <time>2020-06-22T19:53:57Z</time>
      </trkpt>
      <trkpt lat="50.85305" lon="1.61363">
        <ele>58.3</ele>
        <time>2020-06-22T19:53:58Z</time>
      </trkpt>
      <trkpt lat="50.85309" lon="1.61367">
        <ele>58.3</ele>
        <time>2020-06-22T19:53:59Z</time>
      </trkpt>
      <trkpt lat="50.85314" lon="1.61372">
        <ele>58.2</ele>
        <time>2020-06-22T19:54:00Z</time>
      </trkpt>
      <trkpt lat="50.85319" lon="1.61376">
        <ele>58.1</ele>
        <time>2020-06-22T19:54:01Z</time>
      </trkpt>
      <trkpt lat="50.85323" lon="1.61381">
        <ele>58</ele>
        <time>2020-06-22T19:54:02Z</time>
      </trkpt>
      <trkpt lat="50.85328" lon="1.61386">
        <ele>58</ele>
        <time>2020-06-22T19:54:03Z</time>
      </trkpt>
      <trkpt lat="50.85333" lon="1.61391">
        <ele>57.9</ele>
        <time>2020-06-22T19:54:04Z</time>
      </trkpt>
      <trkpt lat="50.85338" lon="1.61395">
        <ele>57.9</ele>
        <time>2020-06-22T19:54:05Z</time>
      </trkpt>
      <trkpt lat="50.85342" lon="1.614">
        <ele>57.8</ele>
        <time>2020-06-22T19:54:06Z</time>
      </trkpt>
      <trkpt lat="50.85346" lon="1.61402">
        <ele>57.8</ele>
        <time>2020-06-22T19:54:07Z</time>
      </trkpt>
      <trkpt lat="50.85349" lon="1.614">
        <ele>57.4</ele>
        <time>2020-06-22T19:54:08Z</time>
      </trkpt>
      <trkpt lat="50.85351" lon="1.61399">
        <ele>57.3</ele>
        <time>2020-06-22T19:54:09Z</time>
      </trkpt>
      <trkpt lat="50.8535" lon="1.61393">
        <ele>57.2</ele>
        <time>2020-06-22T19:54:10Z</time>
      </trkpt>
      <trkpt lat="50.85348" lon="1.61389">
        <ele>57.4</ele>
        <time>2020-06-22T19:54:11Z</time>
      </trkpt>
      <trkpt lat="50.85347" lon="1.61388">
        <ele>57.4</ele>
        <time>2020-06-22T19:54:12Z</time>
      </trkpt>
      <trkpt lat="50.85343" lon="1.61384">
        <ele>57.5</ele>
        <time>2020-06-22T19:54:13Z</time>
      </trkpt>
      <trkpt lat="50.85338" lon="1.6138">
        <ele>57.6</ele>
        <time>2020-06-22T19:54:14Z</time>
      </trkpt>
      <trkpt lat="50.85331" lon="1.61375">
        <ele>57.7</ele>
        <time>2020-06-22T19:54:15Z</time>
      </trkpt>
      <trkpt lat="50.85325" lon="1.6137">
        <ele>57.8</ele>
        <time>2020-06-22T19:54:16Z</time>
      </trkpt>
      <trkpt lat="50.8532" lon="1.61368">
        <ele>57.9</ele>
        <time>2020-06-22T19:54:17Z</time>
      </trkpt>
      <trkpt lat="50.85314" lon="1.61364">
        <ele>57.9</ele>
        <time>2020-06-22T19:54:18Z</time>
      </trkpt>
      <trkpt lat="50.85309" lon="1.6136">
        <ele>58</ele>
        <time>2020-06-22T19:54:19Z</time>
      </trkpt>
      <trkpt lat="50.85304" lon="1.61356">
        <ele>58.1</ele>
        <time>2020-06-22T19:54:20Z</time>
      </trkpt>
      <trkpt lat="50.853" lon="1.61352">
        <ele>58.2</ele>
        <time>2020-06-22T19:54:21Z</time>
      </trkpt>
      <trkpt lat="50.85295" lon="1.61345">
        <ele>58.3</ele>
        <time>2020-06-22T19:54:22Z</time>
      </trkpt>
      <trkpt lat="50.8529" lon="1.61339">
        <ele>58.4</ele>
        <time>2020-06-22T19:54:23Z</time>
      </trkpt>
      <trkpt lat="50.85286" lon="1.61336">
        <ele>58.5</ele>
        <time>2020-06-22T19:54:24Z</time>
      </trkpt>
      <trkpt lat="50.85281" lon="1.61333">
        <ele>58.6</ele>
        <time>2020-06-22T19:54:25Z</time>
      </trkpt>
      <trkpt lat="50.85277" lon="1.61329">
        <ele>58.8</ele>
        <time>2020-06-22T19:54:26Z</time>
      </trkpt>
      <trkpt lat="50.85272" lon="1.61323">
        <ele>58.9</ele>
        <time>2020-06-22T19:54:27Z</time>
      </trkpt>
      <trkpt lat="50.85268" lon="1.61319">
        <ele>59</ele>
        <time>2020-06-22T19:54:28Z</time>
      </trkpt>
      <trkpt lat="50.85264" lon="1.61315">
        <ele>59.1</ele>
        <time>2020-06-22T19:54:29Z</time>
      </trkpt>
      <trkpt lat="50.85259" lon="1.61309">
        <ele>59.2</ele>
        <time>2020-06-22T19:54:30Z</time>
      </trkpt>
      <trkpt lat="50.85255" lon="1.61304">
        <ele>59.2</ele>
        <time>2020-06-22T19:54:31Z</time>
      </trkpt>
      <trkpt lat="50.8525" lon="1.61299">
        <ele>59.3</ele>
        <time>2020-06-22T19:54:32Z</time>
      </trkpt>
      <trkpt lat="50.85245" lon="1.61294">
        <ele>59.4</ele>
        <time>2020-06-22T19:54:33Z</time>
      </trkpt>
      <trkpt lat="50.8524" lon="1.61289">
        <ele>59.6</ele>
        <time>2020-06-22T19:54:34Z</time>
      </trkpt>
      <trkpt lat="50.85235" lon="1.61283">
        <ele>59.7</ele>
        <time>2020-06-22T19:54:35Z</time>
      </trkpt>
      <trkpt lat="50.8523" lon="1.61279">
        <ele>59.9</ele>
        <time>2020-06-22T19:54:36Z</time>
      </trkpt>
      <trkpt lat="50.85226" lon="1.61275">
        <ele>60</ele>
        <time>2020-06-22T19:54:37Z</time>
      </trkpt>
      <trkpt lat="50.85221" lon="1.6127">
        <ele>60.1</ele>
        <time>2020-06-22T19:54:38Z</time>
      </trkpt>
      <trkpt lat="50.85217" lon="1.61265">
        <ele>60.2</ele>
        <time>2020-06-22T19:54:39Z</time>
      </trkpt>
      <trkpt lat="50.85212" lon="1.61261">
        <ele>60.3</ele>
        <time>2020-06-22T19:54:40Z</time>
      </trkpt>
      <trkpt lat="50.85208" lon="1.61257">
        <ele>60.4</ele>
        <time>2020-06-22T19:54:41Z</time>
      </trkpt>
      <trkpt lat="50.85204" lon="1.61252">
        <ele>60.5</ele>
        <time>2020-06-22T19:54:42Z</time>
      </trkpt>
      <trkpt lat="50.852" lon="1.61246">
        <ele>60.6</ele>
        <time>2020-06-22T19:54:43Z</time>
      </trkpt>
      <trkpt lat="50.85197" lon="1.61242">
        <ele>60.6</ele>
        <time>2020-06-22T19:54:44Z</time>
      </trkpt>
      <trkpt lat="50.85194" lon="1.6124">
        <ele>60.7</ele>
        <time>2020-06-22T19:54:45Z</time>
      </trkpt>
      <trkpt lat="50.8519" lon="1.61243">
        <ele>60.7</ele>
        <time>2020-06-22T19:54:46Z</time>
      </trkpt>
      <trkpt lat="50.85187" lon="1.61249">
        <ele>60.8</ele>
        <time>2020-06-22T19:54:47Z</time>
      </trkpt>
      <trkpt lat="50.85185" lon="1.61255">
        <ele>60.8</ele>
        <time>2020-06-22T19:54:48Z</time>
      </trkpt>
      <trkpt lat="50.85182" lon="1.61261">
        <ele>60.8</ele>
        <time>2020-06-22T19:54:49Z</time>
      </trkpt>
      <trkpt lat="50.8518" lon="1.61265">
        <ele>60.8</ele>
        <time>2020-06-22T19:54:50Z</time>
      </trkpt>
      <trkpt lat="50.85178" lon="1.6127">
        <ele>60.8</ele>
        <time>2020-06-22T19:54:51Z</time>
      </trkpt>
      <trkpt lat="50.85176" lon="1.61272">
        <ele>60.7</ele>
        <time>2020-06-22T19:54:52Z</time>
      </trkpt>
      <trkpt lat="50.85174" lon="1.61278">
        <ele>60.7</ele>
        <time>2020-06-22T19:54:53Z</time>
      </trkpt>
      <trkpt lat="50.85172" lon="1.61283">
        <ele>60.7</ele>
        <time>2020-06-22T19:54:54Z</time>
      </trkpt>
      <trkpt lat="50.85169" lon="1.61289">
        <ele>60.7</ele>
        <time>2020-06-22T19:54:55Z</time>
      </trkpt>
      <trkpt lat="50.85167" lon="1.61296">
        <ele>60.8</ele>
        <time>2020-06-22T19:54:56Z</time>
      </trkpt>
      <trkpt lat="50.85164" lon="1.61301">
        <ele>60.8</ele>
        <time>2020-06-22T19:54:57Z</time>
      </trkpt>
      <trkpt lat="50.85163" lon="1.61306">
        <ele>60.8</ele>
        <time>2020-06-22T19:54:58Z</time>
      </trkpt>
      <trkpt lat="50.85163" lon="1.61313">
        <ele>60.8</ele>
        <time>2020-06-22T19:54:59Z</time>
      </trkpt>
      <trkpt lat="50.85163" lon="1.61317">
        <ele>60.8</ele>
        <time>2020-06-22T19:55:00Z</time>
      </trkpt>
      <trkpt lat="50.85166" lon="1.61325">
        <ele>60.8</ele>
        <time>2020-06-22T19:55:01Z</time>
      </trkpt>
      <trkpt lat="50.85169" lon="1.61329">
        <ele>60.8</ele>
        <time>2020-06-22T19:55:02Z</time>
      </trkpt>
      <trkpt lat="50.85172" lon="1.61335">
        <ele>60.7</ele>
        <time>2020-06-22T19:55:03Z</time>
      </trkpt>
      <trkpt lat="50.85176" lon="1.6134">
        <ele>60.7</ele>
        <time>2020-06-22T19:55:04Z</time>
      </trkpt>
      <trkpt lat="50.8518" lon="1.61345">
        <ele>60.7</ele>
        <time>2020-06-22T19:55:05Z</time>
      </trkpt>
      <trkpt lat="50.85183" lon="1.61349">
        <ele>60.6</ele>
        <time>2020-06-22T19:55:06Z</time>
      </trkpt>
      <trkpt lat="50.85187" lon="1.61354">
        <ele>60.6</ele>
        <time>2020-06-22T19:55:07Z</time>
      </trkpt>
      <trkpt lat="50.8519" lon="1.61358">
        <ele>60.5</ele>
        <time>2020-06-22T19:55:08Z</time>
      </trkpt>
      <trkpt lat="50.85195" lon="1.61361">
        <ele>60.5</ele>
        <time>2020-06-22T19:55:09Z</time>
      </trkpt>
      <trkpt lat="50.85199" lon="1.61365">
        <ele>60.4</ele>
        <time>2020-06-22T19:55:10Z</time>
      </trkpt>
      <trkpt lat="50.85204" lon="1.61369">
        <ele>60.4</ele>
        <time>2020-06-22T19:55:11Z</time>
      </trkpt>
      <trkpt lat="50.85208" lon="1.61372">
        <ele>60.3</ele>
        <time>2020-06-22T19:55:12Z</time>
      </trkpt>
      <trkpt lat="50.85214" lon="1.61377">
        <ele>60.2</ele>
        <time>2020-06-22T19:55:13Z</time>
      </trkpt>
      <trkpt lat="50.85217" lon="1.61381">
        <ele>60.1</ele>
        <time>2020-06-22T19:55:14Z</time>
      </trkpt>
      <trkpt lat="50.85222" lon="1.61385">
        <ele>60</ele>
        <time>2020-06-22T19:55:15Z</time>
      </trkpt>
      <trkpt lat="50.85225" lon="1.61388">
        <ele>59.9</ele>
        <time>2020-06-22T19:55:16Z</time>
      </trkpt>
      <trkpt lat="50.85229" lon="1.61392">
        <ele>59.9</ele>
        <time>2020-06-22T19:55:17Z</time>
      </trkpt>
      <trkpt lat="50.85233" lon="1.61397">
        <ele>59.8</ele>
        <time>2020-06-22T19:55:18Z</time>
      </trkpt>
      <trkpt lat="50.85236" lon="1.61402">
        <ele>59.7</ele>
        <time>2020-06-22T19:55:19Z</time>
      </trkpt>
      <trkpt lat="50.85239" lon="1.61409">
        <ele>59.5</ele>
        <time>2020-06-22T19:55:20Z</time>
      </trkpt>
      <trkpt lat="50.85239" lon="1.61419">
        <ele>59.3</ele>
        <time>2020-06-22T19:55:21Z</time>
      </trkpt>
      <trkpt lat="50.85238" lon="1.61428">
        <ele>59.1</ele>
        <time>2020-06-22T19:55:22Z</time>
      </trkpt>
      <trkpt lat="50.85237" lon="1.61436">
        <ele>58.8</ele>
        <time>2020-06-22T19:55:23Z</time>
      </trkpt>
      <trkpt lat="50.85236" lon="1.61445">
        <ele>58.5</ele>
        <time>2020-06-22T19:55:24Z</time>
      </trkpt>
      <trkpt lat="50.85235" lon="1.61455">
        <ele>58.1</ele>
        <time>2020-06-22T19:55:25Z</time>
      </trkpt>
      <trkpt lat="50.85234" lon="1.61465">
        <ele>57.7</ele>
        <time>2020-06-22T19:55:26Z</time>
      </trkpt>
      <trkpt lat="50.85231" lon="1.61476">
        <ele>57.1</ele>
        <time>2020-06-22T19:55:27Z</time>
      </trkpt>
      <trkpt lat="50.85229" lon="1.61487">
        <ele>56.6</ele>
        <time>2020-06-22T19:55:28Z</time>
      </trkpt>
      <trkpt lat="50.85228" lon="1.61498">
        <ele>56</ele>
        <time>2020-06-22T19:55:29Z</time>
      </trkpt>
      <trkpt lat="50.85227" lon="1.61512">
        <ele>55.3</ele>
        <time>2020-06-22T19:55:30Z</time>
      </trkpt>
      <trkpt lat="50.85226" lon="1.61524">
        <ele>54.7</ele>
        <time>2020-06-22T19:55:31Z</time>
      </trkpt>
      <trkpt lat="50.85225" lon="1.61538">
        <ele>53.8</ele>
        <time>2020-06-22T19:55:32Z</time>
      </trkpt>
      <trkpt lat="50.85223" lon="1.61548">
        <ele>53.1</ele>
        <time>2020-06-22T19:55:33Z</time>
      </trkpt>
      <trkpt lat="50.85222" lon="1.61557">
        <ele>52.5</ele>
        <time>2020-06-22T19:55:34Z</time>
      </trkpt>
      <trkpt lat="50.85221" lon="1.61563">
        <ele>52</ele>
        <time>2020-06-22T19:55:35Z</time>
      </trkpt>
      <trkpt lat="50.8522" lon="1.6157">
        <ele>51.2</ele>
        <time>2020-06-22T19:55:36Z</time>
      </trkpt>
      <trkpt lat="50.85219" lon="1.61577">
        <ele>50.7</ele>
        <time>2020-06-22T19:55:37Z</time>
      </trkpt>
      <trkpt lat="50.85217" lon="1.61586">
        <ele>49.7</ele>
        <time>2020-06-22T19:55:38Z</time>
      </trkpt>
      <trkpt lat="50.85214" lon="1.61598">
        <ele>48.5</ele>
        <time>2020-06-22T19:55:39Z</time>
      </trkpt>
      <trkpt lat="50.85212" lon="1.6161">
        <ele>47.2</ele>
        <time>2020-06-22T19:55:40Z</time>
      </trkpt>
      <trkpt lat="50.8521" lon="1.61624">
        <ele>45.7</ele>
        <time>2020-06-22T19:55:41Z</time>
      </trkpt>
      <trkpt lat="50.8521" lon="1.61643">
        <ele>44.2</ele>
        <time>2020-06-22T19:55:42Z</time>
      </trkpt>
      <trkpt lat="50.85208" lon="1.6166">
        <ele>42.9</ele>
        <time>2020-06-22T19:55:43Z</time>
      </trkpt>
      <trkpt lat="50.85207" lon="1.61684">
        <ele>41.8</ele>
        <time>2020-06-22T19:55:44Z</time>
      </trkpt>
      <trkpt lat="50.85206" lon="1.61703">
        <ele>41.4</ele>
        <time>2020-06-22T19:55:45Z</time>
      </trkpt>
      <trkpt lat="50.85206" lon="1.6172">
        <ele>41.4</ele>
        <time>2020-06-22T19:55:46Z</time>
      </trkpt>
      <trkpt lat="50.85206" lon="1.61735">
        <ele>41.6</ele>
        <time>2020-06-22T19:55:47Z</time>
      </trkpt>
      <trkpt lat="50.85208" lon="1.61748">
        <ele>41.9</ele>
        <time>2020-06-22T19:55:48Z</time>
      </trkpt>
      <trkpt lat="50.85212" lon="1.61759">
        <ele>42.3</ele>
        <time>2020-06-22T19:55:49Z</time>
      </trkpt>
      <trkpt lat="50.85217" lon="1.61765">
        <ele>42.8</ele>
        <time>2020-06-22T19:55:50Z</time>
      </trkpt>
      <trkpt lat="50.85223" lon="1.61771">
        <ele>43.4</ele>
        <time>2020-06-22T19:55:51Z</time>
      </trkpt>
      <trkpt lat="50.85226" lon="1.61777">
        <ele>44</ele>
        <time>2020-06-22T19:55:52Z</time>
      </trkpt>
      <trkpt lat="50.85229" lon="1.61784">
        <ele>44.5</ele>
        <time>2020-06-22T19:55:53Z</time>
      </trkpt>
      <trkpt lat="50.8523" lon="1.61789">
        <ele>45</ele>
        <time>2020-06-22T19:55:54Z</time>
      </trkpt>
      <trkpt lat="50.8523" lon="1.61795">
        <ele>45.4</ele>
        <time>2020-06-22T19:55:55Z</time>
      </trkpt>
      <trkpt lat="50.85231" lon="1.618">
        <ele>45.8</ele>
        <time>2020-06-22T19:55:56Z</time>
      </trkpt>
      <trkpt lat="50.85231" lon="1.61805">
        <ele>46.1</ele>
        <time>2020-06-22T19:55:57Z</time>
      </trkpt>
      <trkpt lat="50.85231" lon="1.6181">
        <ele>46.6</ele>
        <time>2020-06-22T19:55:58Z</time>
      </trkpt>
      <trkpt lat="50.8523" lon="1.61811">
        <ele>46.7</ele>
        <time>2020-06-22T19:55:59Z</time>
      </trkpt>
      <trkpt lat="50.85229" lon="1.61816">
        <ele>47</ele>
        <time>2020-06-22T19:56:00Z</time>
      </trkpt>
      <trkpt lat="50.85229" lon="1.61817">
        <ele>47.2</ele>
        <time>2020-06-22T19:56:01Z</time>
      </trkpt>
      <trkpt lat="50.85229" lon="1.61823">
        <ele>47.7</ele>
        <time>2020-06-22T19:56:02Z</time>
      </trkpt>
      <trkpt lat="50.85229" lon="1.61825">
        <ele>47.8</ele>
        <time>2020-06-22T19:56:03Z</time>
      </trkpt>
      <trkpt lat="50.85228" lon="1.61831">
        <ele>48.3</ele>
        <time>2020-06-22T19:56:04Z</time>
      </trkpt>
      <trkpt lat="50.85227" lon="1.61833">
        <ele>48.5</ele>
        <time>2020-06-22T19:56:05Z</time>
      </trkpt>
      <trkpt lat="50.85227" lon="1.61838">
        <ele>48.9</ele>
        <time>2020-06-22T19:56:06Z</time>
      </trkpt>
      <trkpt lat="50.85226" lon="1.6184">
        <ele>49.1</ele>
        <time>2020-06-22T19:56:07Z</time>
      </trkpt>
      <trkpt lat="50.85225" lon="1.61845">
        <ele>49.5</ele>
        <time>2020-06-22T19:56:08Z</time>
      </trkpt>
      <trkpt lat="50.85224" lon="1.61847">
        <ele>49.7</ele>
        <time>2020-06-22T19:56:09Z</time>
      </trkpt>
      <trkpt lat="50.85223" lon="1.61851">
        <ele>50.1</ele>
        <time>2020-06-22T19:56:10Z</time>
      </trkpt>
      <trkpt lat="50.85223" lon="1.61853">
        <ele>50.2</ele>
        <time>2020-06-22T19:56:11Z</time>
      </trkpt>
      <trkpt lat="50.85222" lon="1.61858">
        <ele>50.6</ele>
        <time>2020-06-22T19:56:12Z</time>
      </trkpt>
      <trkpt lat="50.85222" lon="1.6186">
        <ele>50.8</ele>
        <time>2020-06-22T19:56:13Z</time>
      </trkpt>
      <trkpt lat="50.85222" lon="1.61866">
        <ele>51.3</ele>
        <time>2020-06-22T19:56:14Z</time>
      </trkpt>
      <trkpt lat="50.85221" lon="1.61868">
        <ele>51.5</ele>
        <time>2020-06-22T19:56:15Z</time>
      </trkpt>
      <trkpt lat="50.8522" lon="1.61873">
        <ele>51.9</ele>
        <time>2020-06-22T19:56:16Z</time>
      </trkpt>
      <trkpt lat="50.8522" lon="1.61875">
        <ele>52</ele>
        <time>2020-06-22T19:56:17Z</time>
      </trkpt>
      <trkpt lat="50.85219" lon="1.61881">
        <ele>52.5</ele>
        <time>2020-06-22T19:56:18Z</time>
      </trkpt>
      <trkpt lat="50.85219" lon="1.61883">
        <ele>52.6</ele>
        <time>2020-06-22T19:56:19Z</time>
      </trkpt>
      <trkpt lat="50.85218" lon="1.61887">
        <ele>53</ele>
        <time>2020-06-22T19:56:20Z</time>
      </trkpt>
      <trkpt lat="50.85216" lon="1.61893">
        <ele>53.4</ele>
        <time>2020-06-22T19:56:21Z</time>
      </trkpt>
      <trkpt lat="50.85216" lon="1.61894">
        <ele>53.5</ele>
        <time>2020-06-22T19:56:22Z</time>
      </trkpt>
      <trkpt lat="50.85215" lon="1.61899">
        <ele>53.8</ele>
        <time>2020-06-22T19:56:23Z</time>
      </trkpt>
      <trkpt lat="50.85214" lon="1.61903">
        <ele>54.1</ele>
        <time>2020-06-22T19:56:24Z</time>
      </trkpt>
      <trkpt lat="50.85212" lon="1.61907">
        <ele>54.4</ele>
        <time>2020-06-22T19:56:25Z</time>
      </trkpt>
      <trkpt lat="50.85211" lon="1.61912">
        <ele>54.8</ele>
        <time>2020-06-22T19:56:26Z</time>
      </trkpt>
      <trkpt lat="50.85209" lon="1.61918">
        <ele>55.1</ele>
        <time>2020-06-22T19:56:27Z</time>
      </trkpt>
      <trkpt lat="50.85208" lon="1.6192">
        <ele>55.3</ele>
        <time>2020-06-22T19:56:28Z</time>
      </trkpt>
      <trkpt lat="50.85207" lon="1.61925">
        <ele>55.6</ele>
        <time>2020-06-22T19:56:29Z</time>
      </trkpt>
      <trkpt lat="50.85205" lon="1.61929">
        <ele>55.8</ele>
        <time>2020-06-22T19:56:30Z</time>
      </trkpt>
      <trkpt lat="50.85204" lon="1.61934">
        <ele>56.1</ele>
        <time>2020-06-22T19:56:31Z</time>
      </trkpt>
      <trkpt lat="50.85202" lon="1.61937">
        <ele>56.2</ele>
        <time>2020-06-22T19:56:32Z</time>
      </trkpt>
      <trkpt lat="50.85201" lon="1.61943">
        <ele>56.5</ele>
        <time>2020-06-22T19:56:33Z</time>
      </trkpt>
      <trkpt lat="50.852" lon="1.61944">
        <ele>56.5</ele>
        <time>2020-06-22T19:56:34Z</time>
      </trkpt>
      <trkpt lat="50.85199" lon="1.6195">
        <ele>56.8</ele>
        <time>2020-06-22T19:56:35Z</time>
      </trkpt>
      <trkpt lat="50.85198" lon="1.61952">
        <ele>56.8</ele>
        <time>2020-06-22T19:56:36Z</time>
      </trkpt>
      <trkpt lat="50.85197" lon="1.61957">
        <ele>57</ele>
        <time>2020-06-22T19:56:37Z</time>
      </trkpt>
      <trkpt lat="50.85196" lon="1.61959">
        <ele>57.1</ele>
        <time>2020-06-22T19:56:38Z</time>
      </trkpt>
      <trkpt lat="50.85195" lon="1.61963">
        <ele>57.3</ele>
        <time>2020-06-22T19:56:39Z</time>
      </trkpt>
      <trkpt lat="50.85195" lon="1.6197">
        <ele>57.4</ele>
        <time>2020-06-22T19:56:40Z</time>
      </trkpt>
      <trkpt lat="50.85194" lon="1.61972">
        <ele>57.5</ele>
        <time>2020-06-22T19:56:41Z</time>
      </trkpt>
      <trkpt lat="50.85194" lon="1.61976">
        <ele>57.6</ele>
        <time>2020-06-22T19:56:42Z</time>
      </trkpt>
      <trkpt lat="50.85194" lon="1.61981">
        <ele>57.8</ele>
        <time>2020-06-22T19:56:43Z</time>
      </trkpt>
      <trkpt lat="50.85193" lon="1.61985">
        <ele>57.9</ele>
        <time>2020-06-22T19:56:44Z</time>
      </trkpt>
      <trkpt lat="50.85193" lon="1.61989">
        <ele>58.1</ele>
        <time>2020-06-22T19:56:45Z</time>
      </trkpt>
      <trkpt lat="50.85193" lon="1.61994">
        <ele>58.2</ele>
        <time>2020-06-22T19:56:46Z</time>
      </trkpt>
      <trkpt lat="50.85193" lon="1.61999">
        <ele>58.3</ele>
        <time>2020-06-22T19:56:47Z</time>
      </trkpt>
      <trkpt lat="50.85192" lon="1.62004">
        <ele>58.5</ele>
        <time>2020-06-22T19:56:48Z</time>
      </trkpt>
      <trkpt lat="50.85192" lon="1.62008">
        <ele>58.6</ele>
        <time>2020-06-22T19:56:49Z</time>
      </trkpt>
      <trkpt lat="50.8519" lon="1.62015">
        <ele>58.8</ele>
        <time>2020-06-22T19:56:50Z</time>
      </trkpt>
      <trkpt lat="50.8519" lon="1.62017">
        <ele>58.9</ele>
        <time>2020-06-22T19:56:51Z</time>
      </trkpt>
      <trkpt lat="50.8519" lon="1.62022">
        <ele>59.1</ele>
        <time>2020-06-22T19:56:52Z</time>
      </trkpt>
      <trkpt lat="50.85189" lon="1.62027">
        <ele>59.2</ele>
        <time>2020-06-22T19:56:53Z</time>
      </trkpt>
      <trkpt lat="50.85189" lon="1.62032">
        <ele>59.3</ele>
        <time>2020-06-22T19:56:54Z</time>
      </trkpt>
      <trkpt lat="50.85188" lon="1.62037">
        <ele>59.5</ele>
        <time>2020-06-22T19:56:55Z</time>
      </trkpt>
      <trkpt lat="50.85188" lon="1.62042">
        <ele>59.6</ele>
        <time>2020-06-22T19:56:56Z</time>
      </trkpt>
      <trkpt lat="50.85187" lon="1.62047">
        <ele>59.8</ele>
        <time>2020-06-22T19:56:57Z</time>
      </trkpt>
      <trkpt lat="50.85187" lon="1.62052">
        <ele>59.9</ele>
        <time>2020-06-22T19:56:58Z</time>
      </trkpt>
      <trkpt lat="50.85187" lon="1.62057">
        <ele>60.1</ele>
        <time>2020-06-22T19:56:59Z</time>
      </trkpt>
      <trkpt lat="50.85186" lon="1.62062">
        <ele>60.2</ele>
        <time>2020-06-22T19:57:00Z</time>
      </trkpt>
      <trkpt lat="50.85185" lon="1.62066">
        <ele>60.3</ele>
        <time>2020-06-22T19:57:01Z</time>
      </trkpt>
      <trkpt lat="50.85185" lon="1.62071">
        <ele>60.5</ele>
        <time>2020-06-22T19:57:02Z</time>
      </trkpt>
      <trkpt lat="50.85184" lon="1.62076">
        <ele>60.6</ele>
        <time>2020-06-22T19:57:03Z</time>
      </trkpt>
      <trkpt lat="50.85183" lon="1.62081">
        <ele>60.7</ele>
        <time>2020-06-22T19:57:04Z</time>
      </trkpt>
      <trkpt lat="50.85183" lon="1.62085">
        <ele>60.9</ele>
        <time>2020-06-22T19:57:05Z</time>
      </trkpt>
      <trkpt lat="50.85183" lon="1.6209">
        <ele>61</ele>
        <time>2020-06-22T19:57:06Z</time>
      </trkpt>
      <trkpt lat="50.85182" lon="1.62096">
        <ele>61.2</ele>
        <time>2020-06-22T19:57:07Z</time>
      </trkpt>
      <trkpt lat="50.85182" lon="1.62101">
        <ele>61.3</ele>
        <time>2020-06-22T19:57:08Z</time>
      </trkpt>
      <trkpt lat="50.85181" lon="1.62107">
        <ele>61.5</ele>
        <time>2020-06-22T19:57:09Z</time>
      </trkpt>
      <trkpt lat="50.8518" lon="1.62112">
        <ele>61.6</ele>
        <time>2020-06-22T19:57:10Z</time>
      </trkpt>
      <trkpt lat="50.8518" lon="1.62117">
        <ele>61.8</ele>
        <time>2020-06-22T19:57:11Z</time>
      </trkpt>
      <trkpt lat="50.8518" lon="1.62122">
        <ele>61.9</ele>
        <time>2020-06-22T19:57:12Z</time>
      </trkpt>
      <trkpt lat="50.85179" lon="1.62127">
        <ele>62.1</ele>
        <time>2020-06-22T19:57:13Z</time>
      </trkpt>
      <trkpt lat="50.85178" lon="1.62132">
        <ele>62.3</ele>
        <time>2020-06-22T19:57:14Z</time>
      </trkpt>
      <trkpt lat="50.85178" lon="1.62138">
        <ele>62.5</ele>
        <time>2020-06-22T19:57:15Z</time>
      </trkpt>
      <trkpt lat="50.85177" lon="1.62143">
        <ele>62.6</ele>
        <time>2020-06-22T19:57:16Z</time>
      </trkpt>
      <trkpt lat="50.85176" lon="1.62149">
        <ele>62.8</ele>
        <time>2020-06-22T19:57:17Z</time>
      </trkpt>
      <trkpt lat="50.85176" lon="1.62155">
        <ele>63</ele>
        <time>2020-06-22T19:57:18Z</time>
      </trkpt>
      <trkpt lat="50.85175" lon="1.6216">
        <ele>63.2</ele>
        <time>2020-06-22T19:57:19Z</time>
      </trkpt>
      <trkpt lat="50.85174" lon="1.62166">
        <ele>63.4</ele>
        <time>2020-06-22T19:57:20Z</time>
      </trkpt>
      <trkpt lat="50.85173" lon="1.62172">
        <ele>63.6</ele>
        <time>2020-06-22T19:57:21Z</time>
      </trkpt>
      <trkpt lat="50.85172" lon="1.62178">
        <ele>63.8</ele>
        <time>2020-06-22T19:57:22Z</time>
      </trkpt>
      <trkpt lat="50.85171" lon="1.62184">
        <ele>64</ele>
        <time>2020-06-22T19:57:23Z</time>
      </trkpt>
      <trkpt lat="50.8517" lon="1.62189">
        <ele>64.2</ele>
        <time>2020-06-22T19:57:24Z</time>
      </trkpt>
      <trkpt lat="50.85168" lon="1.62194">
        <ele>64.4</ele>
        <time>2020-06-22T19:57:25Z</time>
      </trkpt>
      <trkpt lat="50.85167" lon="1.62199">
        <ele>64.6</ele>
        <time>2020-06-22T19:57:26Z</time>
      </trkpt>
      <trkpt lat="50.85165" lon="1.62204">
        <ele>64.8</ele>
        <time>2020-06-22T19:57:27Z</time>
      </trkpt>
      <trkpt lat="50.85164" lon="1.62209">
        <ele>65</ele>
        <time>2020-06-22T19:57:28Z</time>
      </trkpt>
      <trkpt lat="50.85162" lon="1.62215">
        <ele>65.2</ele>
        <time>2020-06-22T19:57:29Z</time>
      </trkpt>
      <trkpt lat="50.85161" lon="1.6222">
        <ele>65.3</ele>
        <time>2020-06-22T19:57:30Z</time>
      </trkpt>
      <trkpt lat="50.8516" lon="1.62225">
        <ele>65.5</ele>
        <time>2020-06-22T19:57:31Z</time>
      </trkpt>
      <trkpt lat="50.85158" lon="1.62231">
        <ele>65.6</ele>
        <time>2020-06-22T19:57:32Z</time>
      </trkpt>
      <trkpt lat="50.85157" lon="1.62236">
        <ele>65.8</ele>
        <time>2020-06-22T19:57:33Z</time>
      </trkpt>
      <trkpt lat="50.85156" lon="1.62242">
        <ele>65.9</ele>
        <time>2020-06-22T19:57:34Z</time>
      </trkpt>
      <trkpt lat="50.85154" lon="1.62247">
        <ele>66.1</ele>
        <time>2020-06-22T19:57:35Z</time>
      </trkpt>
      <trkpt lat="50.85153" lon="1.62252">
        <ele>66.2</ele>
        <time>2020-06-22T19:57:36Z</time>
      </trkpt>
      <trkpt lat="50.85152" lon="1.62258">
        <ele>66.4</ele>
        <time>2020-06-22T19:57:37Z</time>
      </trkpt>
      <trkpt lat="50.8515" lon="1.62262">
        <ele>66.6</ele>
        <time>2020-06-22T19:57:38Z</time>
      </trkpt>
      <trkpt lat="50.85149" lon="1.62268">
        <ele>66.8</ele>
        <time>2020-06-22T19:57:39Z</time>
      </trkpt>
      <trkpt lat="50.85147" lon="1.62274">
        <ele>67</ele>
        <time>2020-06-22T19:57:40Z</time>
      </trkpt>
      <trkpt lat="50.85146" lon="1.6228">
        <ele>67.2</ele>
        <time>2020-06-22T19:57:41Z</time>
      </trkpt>
      <trkpt lat="50.85145" lon="1.62285">
        <ele>67.4</ele>
        <time>2020-06-22T19:57:42Z</time>
      </trkpt>
      <trkpt lat="50.85143" lon="1.62291">
        <ele>67.6</ele>
        <time>2020-06-22T19:57:43Z</time>
      </trkpt>
      <trkpt lat="50.85142" lon="1.62296">
        <ele>67.7</ele>
        <time>2020-06-22T19:57:44Z</time>
      </trkpt>
      <trkpt lat="50.8514" lon="1.62301">
        <ele>67.9</ele>
        <time>2020-06-22T19:57:45Z</time>
      </trkpt>
      <trkpt lat="50.85139" lon="1.62305">
        <ele>68.1</ele>
        <time>2020-06-22T19:57:46Z</time>
      </trkpt>
      <trkpt lat="50.85138" lon="1.6231">
        <ele>68.2</ele>
        <time>2020-06-22T19:57:47Z</time>
      </trkpt>
      <trkpt lat="50.85136" lon="1.62315">
        <ele>68.4</ele>
        <time>2020-06-22T19:57:48Z</time>
      </trkpt>
      <trkpt lat="50.85135" lon="1.6232">
        <ele>68.5</ele>
        <time>2020-06-22T19:57:49Z</time>
      </trkpt>
      <trkpt lat="50.85134" lon="1.62326">
        <ele>68.7</ele>
        <time>2020-06-22T19:57:50Z</time>
      </trkpt>
      <trkpt lat="50.85133" lon="1.62331">
        <ele>68.8</ele>
        <time>2020-06-22T19:57:51Z</time>
      </trkpt>
      <trkpt lat="50.85131" lon="1.62336">
        <ele>69</ele>
        <time>2020-06-22T19:57:52Z</time>
      </trkpt>
      <trkpt lat="50.8513" lon="1.62341">
        <ele>69.1</ele>
        <time>2020-06-22T19:57:53Z</time>
      </trkpt>
      <trkpt lat="50.85129" lon="1.62347">
        <ele>69.2</ele>
        <time>2020-06-22T19:57:54Z</time>
      </trkpt>
      <trkpt lat="50.85128" lon="1.62352">
        <ele>69.4</ele>
        <time>2020-06-22T19:57:55Z</time>
      </trkpt>
      <trkpt lat="50.85126" lon="1.62358">
        <ele>69.5</ele>
        <time>2020-06-22T19:57:56Z</time>
      </trkpt>
      <trkpt lat="50.85124" lon="1.62363">
        <ele>69.7</ele>
        <time>2020-06-22T19:57:57Z</time>
      </trkpt>
      <trkpt lat="50.85123" lon="1.62369">
        <ele>69.9</ele>
        <time>2020-06-22T19:57:58Z</time>
      </trkpt>
      <trkpt lat="50.85121" lon="1.62375">
        <ele>70</ele>
        <time>2020-06-22T19:57:59Z</time>
      </trkpt>
      <trkpt lat="50.8512" lon="1.62381">
        <ele>70.2</ele>
        <time>2020-06-22T19:58:00Z</time>
      </trkpt>
      <trkpt lat="50.85118" lon="1.62386">
        <ele>70.3</ele>
        <time>2020-06-22T19:58:01Z</time>
      </trkpt>
      <trkpt lat="50.85117" lon="1.62391">
        <ele>70.5</ele>
        <time>2020-06-22T19:58:02Z</time>
      </trkpt>
      <trkpt lat="50.85116" lon="1.62396">
        <ele>70.6</ele>
        <time>2020-06-22T19:58:03Z</time>
      </trkpt>
      <trkpt lat="50.85115" lon="1.62402">
        <ele>70.8</ele>
        <time>2020-06-22T19:58:04Z</time>
      </trkpt>
      <trkpt lat="50.85114" lon="1.62406">
        <ele>70.9</ele>
        <time>2020-06-22T19:58:05Z</time>
      </trkpt>
      <trkpt lat="50.85113" lon="1.62411">
        <ele>71</ele>
        <time>2020-06-22T19:58:06Z</time>
      </trkpt>
      <trkpt lat="50.85111" lon="1.62416">
        <ele>71.2</ele>
        <time>2020-06-22T19:58:07Z</time>
      </trkpt>
      <trkpt lat="50.8511" lon="1.62421">
        <ele>71.3</ele>
        <time>2020-06-22T19:58:08Z</time>
      </trkpt>
      <trkpt lat="50.85109" lon="1.62425">
        <ele>71.5</ele>
        <time>2020-06-22T19:58:09Z</time>
      </trkpt>
      <trkpt lat="50.85108" lon="1.6243">
        <ele>71.6</ele>
        <time>2020-06-22T19:58:10Z</time>
      </trkpt>
      <trkpt lat="50.85107" lon="1.62435">
        <ele>71.8</ele>
        <time>2020-06-22T19:58:11Z</time>
      </trkpt>
      <trkpt lat="50.85106" lon="1.62439">
        <ele>71.9</ele>
        <time>2020-06-22T19:58:12Z</time>
      </trkpt>
      <trkpt lat="50.85106" lon="1.62445">
        <ele>72.1</ele>
        <time>2020-06-22T19:58:13Z</time>
      </trkpt>
      <trkpt lat="50.85106" lon="1.62447">
        <ele>72.1</ele>
        <time>2020-06-22T19:58:14Z</time>
      </trkpt>
      <trkpt lat="50.85105" lon="1.6245">
        <ele>72.2</ele>
        <time>2020-06-22T19:58:15Z</time>
      </trkpt>
      <trkpt lat="50.85105" lon="1.62452">
        <ele>72.3</ele>
        <time>2020-06-22T19:58:16Z</time>
      </trkpt>
      <trkpt lat="50.85104" lon="1.62455">
        <ele>72.3</ele>
        <time>2020-06-22T19:58:17Z</time>
      </trkpt>
      <trkpt lat="50.85104" lon="1.62457">
        <ele>72.4</ele>
        <time>2020-06-22T19:58:18Z</time>
      </trkpt>
      <trkpt lat="50.85104" lon="1.62458">
        <ele>72.4</ele>
        <time>2020-06-22T19:58:19Z</time>
      </trkpt>
      <trkpt lat="50.85104" lon="1.62461">
        <ele>72.5</ele>
        <time>2020-06-22T19:58:20Z</time>
      </trkpt>
      <trkpt lat="50.85104" lon="1.62462">
        <ele>72.5</ele>
        <time>2020-06-22T19:58:21Z</time>
      </trkpt>
      <trkpt lat="50.85104" lon="1.62463">
        <ele>72.5</ele>
        <time>2020-06-22T19:58:22Z</time>
      </trkpt>
      <trkpt lat="50.85104" lon="1.62463">
        <ele>72.5</ele>
        <time>2020-06-22T19:58:23Z</time>
      </trkpt>
      <trkpt lat="50.85104" lon="1.62464">
        <ele>72.6</ele>
        <time>2020-06-22T19:58:24Z</time>
      </trkpt>
      <trkpt lat="50.85104" lon="1.62465">
        <ele>72.6</ele>
        <time>2020-06-22T19:58:25Z</time>
      </trkpt>
      <trkpt lat="50.85104" lon="1.62465">
        <ele>72.6</ele>
        <time>2020-06-22T19:58:26Z</time>
      </trkpt>
      <trkpt lat="50.85104" lon="1.62466">
        <ele>72.6</ele>
        <time>2020-06-22T19:58:27Z</time>
      </trkpt>
      <trkpt lat="50.85104" lon="1.62467">
        <ele>72.6</ele>
        <time>2020-06-22T19:58:28Z</time>
      </trkpt>
      <trkpt lat="50.85104" lon="1.62467">
        <ele>72.6</ele>
        <time>2020-06-22T19:58:29Z</time>
      </trkpt>
      <trkpt lat="50.85104" lon="1.62468">
        <ele>72.7</ele>
        <time>2020-06-22T19:58:30Z</time>
      </trkpt>
      <trkpt lat="50.85105" lon="1.62469">
        <ele>72.7</ele>
        <time>2020-06-22T19:58:31Z</time>
      </trkpt>
      <trkpt lat="50.85105" lon="1.62469">
        <ele>72.7</ele>
        <time>2020-06-22T19:58:32Z</time>
      </trkpt>
      <trkpt lat="50.85105" lon="1.6247">
        <ele>72.7</ele>
        <time>2020-06-22T19:58:33Z</time>
      </trkpt>
      <trkpt lat="50.85105" lon="1.62471">
        <ele>72.7</ele>
        <time>2020-06-22T19:58:34Z</time>
      </trkpt>
      <trkpt lat="50.85105" lon="1.62471">
        <ele>72.7</ele>
        <time>2020-06-22T19:58:35Z</time>
      </trkpt>
      <trkpt lat="50.85105" lon="1.62472">
        <ele>72.8</ele>
        <time>2020-06-22T19:58:36Z</time>
      </trkpt>
      <trkpt lat="50.85105" lon="1.62473">
        <ele>72.8</ele>
        <time>2020-06-22T19:58:37Z</time>
      </trkpt>
      <trkpt lat="50.85105" lon="1.62473">
        <ele>72.8</ele>
        <time>2020-06-22T19:58:38Z</time>
      </trkpt>
      <trkpt lat="50.85105" lon="1.62474">
        <ele>72.8</ele>
        <time>2020-06-22T19:59:20Z</time>
      </trkpt>
      <trkpt lat="50.85105" lon="1.62475">
        <ele>72.8</ele>
        <time>2020-06-22T19:59:21Z</time>
      </trkpt>
      <trkpt lat="50.85104" lon="1.6248">
        <ele>73</ele>
        <time>2020-06-22T19:59:22Z</time>
      </trkpt>
      <trkpt lat="50.85105" lon="1.62485">
        <ele>73.1</ele>
        <time>2020-06-22T19:59:23Z</time>
      </trkpt>
      <trkpt lat="50.85105" lon="1.62487">
        <ele>73.2</ele>
        <time>2020-06-22T19:59:24Z</time>
      </trkpt>
      <trkpt lat="50.85105" lon="1.62492">
        <ele>73.3</ele>
        <time>2020-06-22T19:59:25Z</time>
      </trkpt>
      <trkpt lat="50.85105" lon="1.62498">
        <ele>73.5</ele>
        <time>2020-06-22T19:59:26Z</time>
      </trkpt>
      <trkpt lat="50.85106" lon="1.62504">
        <ele>73.7</ele>
        <time>2020-06-22T19:59:27Z</time>
      </trkpt>
      <trkpt lat="50.85105" lon="1.62511">
        <ele>73.9</ele>
        <time>2020-06-22T19:59:28Z</time>
      </trkpt>
      <trkpt lat="50.85105" lon="1.62516">
        <ele>74</ele>
        <time>2020-06-22T19:59:29Z</time>
      </trkpt>
      <trkpt lat="50.85105" lon="1.62522">
        <ele>74.2</ele>
        <time>2020-06-22T19:59:30Z</time>
      </trkpt>
      <trkpt lat="50.85105" lon="1.62527">
        <ele>74.3</ele>
        <time>2020-06-22T19:59:31Z</time>
      </trkpt>
      <trkpt lat="50.85104" lon="1.62533">
        <ele>74.5</ele>
        <time>2020-06-22T19:59:32Z</time>
      </trkpt>
      <trkpt lat="50.85104" lon="1.62539">
        <ele>74.6</ele>
        <time>2020-06-22T19:59:33Z</time>
      </trkpt>
      <trkpt lat="50.85105" lon="1.62544">
        <ele>74.8</ele>
        <time>2020-06-22T19:59:34Z</time>
      </trkpt>
      <trkpt lat="50.85104" lon="1.62549">
        <ele>74.9</ele>
        <time>2020-06-22T19:59:35Z</time>
      </trkpt>
      <trkpt lat="50.85104" lon="1.62553">
        <ele>75.1</ele>
        <time>2020-06-22T19:59:36Z</time>
      </trkpt>
      <trkpt lat="50.85102" lon="1.62559">
        <ele>75.3</ele>
        <time>2020-06-22T19:59:37Z</time>
      </trkpt>
      <trkpt lat="50.85101" lon="1.62564">
        <ele>75.4</ele>
        <time>2020-06-22T19:59:38Z</time>
      </trkpt>
      <trkpt lat="50.851" lon="1.62569">
        <ele>75.6</ele>
        <time>2020-06-22T19:59:39Z</time>
      </trkpt>
      <trkpt lat="50.85099" lon="1.62575">
        <ele>75.8</ele>
        <time>2020-06-22T19:59:40Z</time>
      </trkpt>
      <trkpt lat="50.85099" lon="1.62581">
        <ele>75.9</ele>
        <time>2020-06-22T19:59:41Z</time>
      </trkpt>
      <trkpt lat="50.85098" lon="1.62587">
        <ele>76.1</ele>
        <time>2020-06-22T19:59:42Z</time>
      </trkpt>
      <trkpt lat="50.85098" lon="1.62593">
        <ele>76.3</ele>
        <time>2020-06-22T19:59:43Z</time>
      </trkpt>
      <trkpt lat="50.85099" lon="1.62598">
        <ele>76.4</ele>
        <time>2020-06-22T19:59:44Z</time>
      </trkpt>
      <trkpt lat="50.85099" lon="1.62604">
        <ele>76.5</ele>
        <time>2020-06-22T19:59:45Z</time>
      </trkpt>
      <trkpt lat="50.85099" lon="1.62609">
        <ele>76.7</ele>
        <time>2020-06-22T19:59:46Z</time>
      </trkpt>
      <trkpt lat="50.85099" lon="1.62615">
        <ele>76.8</ele>
        <time>2020-06-22T19:59:47Z</time>
      </trkpt>
      <trkpt lat="50.85099" lon="1.62621">
        <ele>77</ele>
        <time>2020-06-22T19:59:48Z</time>
      </trkpt>
      <trkpt lat="50.85099" lon="1.62627">
        <ele>77.1</ele>
        <time>2020-06-22T19:59:49Z</time>
      </trkpt>
      <trkpt lat="50.85099" lon="1.62632">
        <ele>77.2</ele>
        <time>2020-06-22T19:59:50Z</time>
      </trkpt>
      <trkpt lat="50.85099" lon="1.62638">
        <ele>77.4</ele>
        <time>2020-06-22T19:59:51Z</time>
      </trkpt>
      <trkpt lat="50.85098" lon="1.62643">
        <ele>77.6</ele>
        <time>2020-06-22T19:59:52Z</time>
      </trkpt>
      <trkpt lat="50.85098" lon="1.62648">
        <ele>77.7</ele>
        <time>2020-06-22T19:59:53Z</time>
      </trkpt>
      <trkpt lat="50.85098" lon="1.62653">
        <ele>77.8</ele>
        <time>2020-06-22T19:59:54Z</time>
      </trkpt>
      <trkpt lat="50.85099" lon="1.62659">
        <ele>78</ele>
        <time>2020-06-22T19:59:55Z</time>
      </trkpt>
      <trkpt lat="50.85099" lon="1.62666">
        <ele>78.2</ele>
        <time>2020-06-22T19:59:56Z</time>
      </trkpt>
      <trkpt lat="50.85099" lon="1.62672">
        <ele>78.4</ele>
        <time>2020-06-22T19:59:57Z</time>
      </trkpt>
      <trkpt lat="50.85099" lon="1.62677">
        <ele>78.5</ele>
        <time>2020-06-22T19:59:58Z</time>
      </trkpt>
      <trkpt lat="50.85101" lon="1.62684">
        <ele>78.7</ele>
        <time>2020-06-22T19:59:59Z</time>
      </trkpt>
      <trkpt lat="50.85101" lon="1.6269">
        <ele>78.9</ele>
        <time>2020-06-22T20:00:00Z</time>
      </trkpt>
      <trkpt lat="50.85101" lon="1.62697">
        <ele>79</ele>
        <time>2020-06-22T20:00:01Z</time>
      </trkpt>
      <trkpt lat="50.85101" lon="1.62703">
        <ele>79.2</ele>
        <time>2020-06-22T20:00:02Z</time>
      </trkpt>
      <trkpt lat="50.85102" lon="1.6271">
        <ele>79.3</ele>
        <time>2020-06-22T20:00:03Z</time>
      </trkpt>
      <trkpt lat="50.85101" lon="1.62716">
        <ele>79.5</ele>
        <time>2020-06-22T20:00:04Z</time>
      </trkpt>
      <trkpt lat="50.85101" lon="1.62722">
        <ele>79.6</ele>
        <time>2020-06-22T20:00:05Z</time>
      </trkpt>
      <trkpt lat="50.85101" lon="1.62728">
        <ele>79.7</ele>
        <time>2020-06-22T20:00:06Z</time>
      </trkpt>
      <trkpt lat="50.85101" lon="1.62736">
        <ele>79.8</ele>
        <time>2020-06-22T20:00:07Z</time>
      </trkpt>
      <trkpt lat="50.85101" lon="1.62743">
        <ele>79.9</ele>
        <time>2020-06-22T20:00:08Z</time>
      </trkpt>
      <trkpt lat="50.85101" lon="1.6275">
        <ele>80.1</ele>
        <time>2020-06-22T20:00:09Z</time>
      </trkpt>
      <trkpt lat="50.85101" lon="1.62756">
        <ele>80.2</ele>
        <time>2020-06-22T20:00:10Z</time>
      </trkpt>
      <trkpt lat="50.851" lon="1.62763">
        <ele>80.3</ele>
        <time>2020-06-22T20:00:11Z</time>
      </trkpt>
      <trkpt lat="50.851" lon="1.62769">
        <ele>80.4</ele>
        <time>2020-06-22T20:00:12Z</time>
      </trkpt>
      <trkpt lat="50.851" lon="1.62776">
        <ele>80.5</ele>
        <time>2020-06-22T20:00:13Z</time>
      </trkpt>
      <trkpt lat="50.85101" lon="1.62782">
        <ele>80.6</ele>
        <time>2020-06-22T20:00:14Z</time>
      </trkpt>
      <trkpt lat="50.85101" lon="1.62788">
        <ele>80.7</ele>
        <time>2020-06-22T20:00:15Z</time>
      </trkpt>
      <trkpt lat="50.85101" lon="1.62795">
        <ele>80.9</ele>
        <time>2020-06-22T20:00:16Z</time>
      </trkpt>
      <trkpt lat="50.85101" lon="1.62801">
        <ele>80.9</ele>
        <time>2020-06-22T20:00:17Z</time>
      </trkpt>
      <trkpt lat="50.85101" lon="1.62808">
        <ele>81</ele>
        <time>2020-06-22T20:00:18Z</time>
      </trkpt>
      <trkpt lat="50.85101" lon="1.62815">
        <ele>81.1</ele>
        <time>2020-06-22T20:00:19Z</time>
      </trkpt>
      <trkpt lat="50.85101" lon="1.62822">
        <ele>81.2</ele>
        <time>2020-06-22T20:00:20Z</time>
      </trkpt>
      <trkpt lat="50.851" lon="1.62829">
        <ele>81.2</ele>
        <time>2020-06-22T20:00:21Z</time>
      </trkpt>
      <trkpt lat="50.851" lon="1.62837">
        <ele>81.3</ele>
        <time>2020-06-22T20:00:22Z</time>
      </trkpt>
      <trkpt lat="50.85099" lon="1.62844">
        <ele>81.4</ele>
        <time>2020-06-22T20:00:23Z</time>
      </trkpt>
      <trkpt lat="50.85099" lon="1.62851">
        <ele>81.5</ele>
        <time>2020-06-22T20:00:24Z</time>
      </trkpt>
      <trkpt lat="50.85099" lon="1.62859">
        <ele>81.7</ele>
        <time>2020-06-22T20:00:25Z</time>
      </trkpt>
      <trkpt lat="50.85098" lon="1.62865">
        <ele>81.8</ele>
        <time>2020-06-22T20:00:26Z</time>
      </trkpt>
      <trkpt lat="50.85098" lon="1.62872">
        <ele>81.9</ele>
        <time>2020-06-22T20:00:27Z</time>
      </trkpt>
      <trkpt lat="50.85098" lon="1.62879">
        <ele>82</ele>
        <time>2020-06-22T20:00:28Z</time>
      </trkpt>
      <trkpt lat="50.85098" lon="1.62885">
        <ele>82</ele>
        <time>2020-06-22T20:00:29Z</time>
      </trkpt>
      <trkpt lat="50.85098" lon="1.62892">
        <ele>82.1</ele>
        <time>2020-06-22T20:00:30Z</time>
      </trkpt>
      <trkpt lat="50.85098" lon="1.62899">
        <ele>82.2</ele>
        <time>2020-06-22T20:00:31Z</time>
      </trkpt>
      <trkpt lat="50.85097" lon="1.62905">
        <ele>82.3</ele>
        <time>2020-06-22T20:00:32Z</time>
      </trkpt>
      <trkpt lat="50.85097" lon="1.62911">
        <ele>82.3</ele>
        <time>2020-06-22T20:00:33Z</time>
      </trkpt>
      <trkpt lat="50.85097" lon="1.62917">
        <ele>82.4</ele>
        <time>2020-06-22T20:00:34Z</time>
      </trkpt>
      <trkpt lat="50.85097" lon="1.62924">
        <ele>82.5</ele>
        <time>2020-06-22T20:00:35Z</time>
      </trkpt>
      <trkpt lat="50.85097" lon="1.62931">
        <ele>82.5</ele>
        <time>2020-06-22T20:00:36Z</time>
      </trkpt>
      <trkpt lat="50.85097" lon="1.62939">
        <ele>82.6</ele>
        <time>2020-06-22T20:00:37Z</time>
      </trkpt>
      <trkpt lat="50.85097" lon="1.62946">
        <ele>82.6</ele>
        <time>2020-06-22T20:00:38Z</time>
      </trkpt>
      <trkpt lat="50.85097" lon="1.62952">
        <ele>82.6</ele>
        <time>2020-06-22T20:00:39Z</time>
      </trkpt>
      <trkpt lat="50.85096" lon="1.62959">
        <ele>82.6</ele>
        <time>2020-06-22T20:00:40Z</time>
      </trkpt>
      <trkpt lat="50.85096" lon="1.62965">
        <ele>82.6</ele>
        <time>2020-06-22T20:00:41Z</time>
      </trkpt>
      <trkpt lat="50.85096" lon="1.62972">
        <ele>82.6</ele>
        <time>2020-06-22T20:00:42Z</time>
      </trkpt>
      <trkpt lat="50.85097" lon="1.62979">
        <ele>82.6</ele>
        <time>2020-06-22T20:00:43Z</time>
      </trkpt>
      <trkpt lat="50.85097" lon="1.62987">
        <ele>82.5</ele>
        <time>2020-06-22T20:00:44Z</time>
      </trkpt>
      <trkpt lat="50.85095" lon="1.62993">
        <ele>82.5</ele>
        <time>2020-06-22T20:00:45Z</time>
      </trkpt>
      <trkpt lat="50.85096" lon="1.63">
        <ele>82.5</ele>
        <time>2020-06-22T20:00:46Z</time>
      </trkpt>
      <trkpt lat="50.85096" lon="1.63007">
        <ele>82.4</ele>
        <time>2020-06-22T20:00:47Z</time>
      </trkpt>
      <trkpt lat="50.85097" lon="1.63015">
        <ele>82.3</ele>
        <time>2020-06-22T20:00:48Z</time>
      </trkpt>
      <trkpt lat="50.85096" lon="1.63022">
        <ele>82.3</ele>
        <time>2020-06-22T20:00:49Z</time>
      </trkpt>
      <trkpt lat="50.85096" lon="1.63031">
        <ele>82.2</ele>
        <time>2020-06-22T20:00:50Z</time>
      </trkpt>
      <trkpt lat="50.85096" lon="1.63038">
        <ele>82.2</ele>
        <time>2020-06-22T20:00:51Z</time>
      </trkpt>
      <trkpt lat="50.85097" lon="1.63045">
        <ele>82.1</ele>
        <time>2020-06-22T20:00:52Z</time>
      </trkpt>
      <trkpt lat="50.85097" lon="1.63053">
        <ele>82</ele>
        <time>2020-06-22T20:00:53Z</time>
      </trkpt>
      <trkpt lat="50.85096" lon="1.6306">
        <ele>81.8</ele>
        <time>2020-06-22T20:00:54Z</time>
      </trkpt>
      <trkpt lat="50.85096" lon="1.63069">
        <ele>81.6</ele>
        <time>2020-06-22T20:00:55Z</time>
      </trkpt>
      <trkpt lat="50.85096" lon="1.63077">
        <ele>81.4</ele>
        <time>2020-06-22T20:00:56Z</time>
      </trkpt>
      <trkpt lat="50.85097" lon="1.63086">
        <ele>81.1</ele>
        <time>2020-06-22T20:00:57Z</time>
      </trkpt>
      <trkpt lat="50.85096" lon="1.63095">
        <ele>80.7</ele>
        <time>2020-06-22T20:00:58Z</time>
      </trkpt>
      <trkpt lat="50.85095" lon="1.63104">
        <ele>80.4</ele>
        <time>2020-06-22T20:00:59Z</time>
      </trkpt>
      <trkpt lat="50.85095" lon="1.63113">
        <ele>80</ele>
        <time>2020-06-22T20:01:00Z</time>
      </trkpt>
      <trkpt lat="50.85095" lon="1.63124">
        <ele>79.6</ele>
        <time>2020-06-22T20:01:01Z</time>
      </trkpt>
      <trkpt lat="50.85094" lon="1.63133">
        <ele>79.1</ele>
        <time>2020-06-22T20:01:02Z</time>
      </trkpt>
      <trkpt lat="50.85093" lon="1.63143">
        <ele>78.6</ele>
        <time>2020-06-22T20:01:03Z</time>
      </trkpt>
      <trkpt lat="50.85092" lon="1.63154">
        <ele>78</ele>
        <time>2020-06-22T20:01:04Z</time>
      </trkpt>
      <trkpt lat="50.8509" lon="1.63165">
        <ele>77.3</ele>
        <time>2020-06-22T20:01:05Z</time>
      </trkpt>
      <trkpt lat="50.85086" lon="1.63179">
        <ele>76.3</ele>
        <time>2020-06-22T20:01:06Z</time>
      </trkpt>
      <trkpt lat="50.8508" lon="1.63191">
        <ele>75.3</ele>
        <time>2020-06-22T20:01:07Z</time>
      </trkpt>
      <trkpt lat="50.85075" lon="1.63203">
        <ele>74.4</ele>
        <time>2020-06-22T20:01:08Z</time>
      </trkpt>
      <trkpt lat="50.8507" lon="1.63218">
        <ele>73.5</ele>
        <time>2020-06-22T20:01:09Z</time>
      </trkpt>
      <trkpt lat="50.85066" lon="1.63234">
        <ele>72.6</ele>
        <time>2020-06-22T20:01:10Z</time>
      </trkpt>
      <trkpt lat="50.85064" lon="1.6325">
        <ele>72</ele>
        <time>2020-06-22T20:01:11Z</time>
      </trkpt>
      <trkpt lat="50.85063" lon="1.63267">
        <ele>71.5</ele>
        <time>2020-06-22T20:01:12Z</time>
      </trkpt>
      <trkpt lat="50.85065" lon="1.63283">
        <ele>71.2</ele>
        <time>2020-06-22T20:01:13Z</time>
      </trkpt>
      <trkpt lat="50.85067" lon="1.63299">
        <ele>71</ele>
        <time>2020-06-22T20:01:14Z</time>
      </trkpt>
      <trkpt lat="50.85069" lon="1.63314">
        <ele>70.9</ele>
        <time>2020-06-22T20:01:15Z</time>
      </trkpt>
      <trkpt lat="50.85072" lon="1.63328">
        <ele>70.8</ele>
        <time>2020-06-22T20:01:16Z</time>
      </trkpt>
      <trkpt lat="50.85074" lon="1.63341">
        <ele>70.9</ele>
        <time>2020-06-22T20:01:17Z</time>
      </trkpt>
      <trkpt lat="50.85076" lon="1.63354">
        <ele>71</ele>
        <time>2020-06-22T20:01:18Z</time>
      </trkpt>
      <trkpt lat="50.85078" lon="1.63366">
        <ele>71.3</ele>
        <time>2020-06-22T20:01:19Z</time>
      </trkpt>
      <trkpt lat="50.8508" lon="1.63377">
        <ele>71.5</ele>
        <time>2020-06-22T20:01:20Z</time>
      </trkpt>
      <trkpt lat="50.85081" lon="1.63387">
        <ele>71.7</ele>
        <time>2020-06-22T20:01:21Z</time>
      </trkpt>
      <trkpt lat="50.8508" lon="1.63396">
        <ele>71.9</ele>
        <time>2020-06-22T20:01:22Z</time>
      </trkpt>
      <trkpt lat="50.85078" lon="1.63404">
        <ele>72.1</ele>
        <time>2020-06-22T20:01:23Z</time>
      </trkpt>
      <trkpt lat="50.85075" lon="1.63412">
        <ele>72.2</ele>
        <time>2020-06-22T20:01:24Z</time>
      </trkpt>
      <trkpt lat="50.85073" lon="1.63419">
        <ele>72.4</ele>
        <time>2020-06-22T20:01:25Z</time>
      </trkpt>
      <trkpt lat="50.85072" lon="1.63427">
        <ele>72.5</ele>
        <time>2020-06-22T20:01:26Z</time>
      </trkpt>
      <trkpt lat="50.85069" lon="1.63433">
        <ele>72.6</ele>
        <time>2020-06-22T20:01:27Z</time>
      </trkpt>
      <trkpt lat="50.85067" lon="1.6344">
        <ele>72.8</ele>
        <time>2020-06-22T20:01:28Z</time>
      </trkpt>
      <trkpt lat="50.85065" lon="1.63447">
        <ele>72.9</ele>
        <time>2020-06-22T20:01:29Z</time>
      </trkpt>
      <trkpt lat="50.85062" lon="1.63452">
        <ele>72.9</ele>
        <time>2020-06-22T20:01:30Z</time>
      </trkpt>
      <trkpt lat="50.8506" lon="1.63457">
        <ele>73</ele>
        <time>2020-06-22T20:01:31Z</time>
      </trkpt>
      <trkpt lat="50.85056" lon="1.63461">
        <ele>73.1</ele>
        <time>2020-06-22T20:01:32Z</time>
      </trkpt>
      <trkpt lat="50.85053" lon="1.63466">
        <ele>73.2</ele>
        <time>2020-06-22T20:01:33Z</time>
      </trkpt>
      <trkpt lat="50.85051" lon="1.63472">
        <ele>73.3</ele>
        <time>2020-06-22T20:01:34Z</time>
      </trkpt>
      <trkpt lat="50.85048" lon="1.63477">
        <ele>73.3</ele>
        <time>2020-06-22T20:01:35Z</time>
      </trkpt>
      <trkpt lat="50.85045" lon="1.63482">
        <ele>73.4</ele>
        <time>2020-06-22T20:01:36Z</time>
      </trkpt>
      <trkpt lat="50.85042" lon="1.63486">
        <ele>73.4</ele>
        <time>2020-06-22T20:01:37Z</time>
      </trkpt>
      <trkpt lat="50.85039" lon="1.63491">
        <ele>73.4</ele>
        <time>2020-06-22T20:01:38Z</time>
      </trkpt>
      <trkpt lat="50.85037" lon="1.63496">
        <ele>73.4</ele>
        <time>2020-06-22T20:01:39Z</time>
      </trkpt>
      <trkpt lat="50.85035" lon="1.63502">
        <ele>73.3</ele>
        <time>2020-06-22T20:01:40Z</time>
      </trkpt>
      <trkpt lat="50.85032" lon="1.63508">
        <ele>73.3</ele>
        <time>2020-06-22T20:01:41Z</time>
      </trkpt>
      <trkpt lat="50.85029" lon="1.63514">
        <ele>73.2</ele>
        <time>2020-06-22T20:01:42Z</time>
      </trkpt>
      <trkpt lat="50.85028" lon="1.63522">
        <ele>72.7</ele>
        <time>2020-06-22T20:01:43Z</time>
      </trkpt>
      <trkpt lat="50.85027" lon="1.6353">
        <ele>72.4</ele>
        <time>2020-06-22T20:01:44Z</time>
      </trkpt>
      <trkpt lat="50.85029" lon="1.63539">
        <ele>72.1</ele>
        <time>2020-06-22T20:01:45Z</time>
      </trkpt>
      <trkpt lat="50.85032" lon="1.63547">
        <ele>71.7</ele>
        <time>2020-06-22T20:01:46Z</time>
      </trkpt>
      <trkpt lat="50.85036" lon="1.63554">
        <ele>71.4</ele>
        <time>2020-06-22T20:01:47Z</time>
      </trkpt>
      <trkpt lat="50.85039" lon="1.63562">
        <ele>71.1</ele>
        <time>2020-06-22T20:01:48Z</time>
      </trkpt>
      <trkpt lat="50.85042" lon="1.63571">
        <ele>70.7</ele>
        <time>2020-06-22T20:01:49Z</time>
      </trkpt>
      <trkpt lat="50.85045" lon="1.63581">
        <ele>70.4</ele>
        <time>2020-06-22T20:01:50Z</time>
      </trkpt>
      <trkpt lat="50.85047" lon="1.63591">
        <ele>70.1</ele>
        <time>2020-06-22T20:01:51Z</time>
      </trkpt>
      <trkpt lat="50.8505" lon="1.63602">
        <ele>69.7</ele>
        <time>2020-06-22T20:01:52Z</time>
      </trkpt>
      <trkpt lat="50.85052" lon="1.63613">
        <ele>69.4</ele>
        <time>2020-06-22T20:01:53Z</time>
      </trkpt>
      <trkpt lat="50.85056" lon="1.63623">
        <ele>69</ele>
        <time>2020-06-22T20:01:54Z</time>
      </trkpt>
      <trkpt lat="50.85059" lon="1.63634">
        <ele>68.5</ele>
        <time>2020-06-22T20:01:55Z</time>
      </trkpt>
      <trkpt lat="50.85063" lon="1.63644">
        <ele>68</ele>
        <time>2020-06-22T20:01:56Z</time>
      </trkpt>
      <trkpt lat="50.85067" lon="1.63654">
        <ele>67.4</ele>
        <time>2020-06-22T20:01:57Z</time>
      </trkpt>
      <trkpt lat="50.85072" lon="1.63663">
        <ele>66.8</ele>
        <time>2020-06-22T20:01:58Z</time>
      </trkpt>
      <trkpt lat="50.85078" lon="1.63671">
        <ele>66</ele>
        <time>2020-06-22T20:01:59Z</time>
      </trkpt>
      <trkpt lat="50.85084" lon="1.63679">
        <ele>65.2</ele>
        <time>2020-06-22T20:02:00Z</time>
      </trkpt>
      <trkpt lat="50.8509" lon="1.63686">
        <ele>64.3</ele>
        <time>2020-06-22T20:02:01Z</time>
      </trkpt>
      <trkpt lat="50.85096" lon="1.63693">
        <ele>63.3</ele>
        <time>2020-06-22T20:02:02Z</time>
      </trkpt>
      <trkpt lat="50.851" lon="1.63703">
        <ele>62.4</ele>
        <time>2020-06-22T20:02:03Z</time>
      </trkpt>
      <trkpt lat="50.85103" lon="1.63716">
        <ele>61.4</ele>
        <time>2020-06-22T20:02:04Z</time>
      </trkpt>
      <trkpt lat="50.85105" lon="1.63731">
        <ele>60.4</ele>
        <time>2020-06-22T20:02:05Z</time>
      </trkpt>
      <trkpt lat="50.85105" lon="1.63746">
        <ele>59.5</ele>
        <time>2020-06-22T20:02:06Z</time>
      </trkpt>
      <trkpt lat="50.85106" lon="1.63761">
        <ele>58.9</ele>
        <time>2020-06-22T20:02:07Z</time>
      </trkpt>
      <trkpt lat="50.85106" lon="1.63776">
        <ele>58.3</ele>
        <time>2020-06-22T20:02:08Z</time>
      </trkpt>
      <trkpt lat="50.85105" lon="1.63791">
        <ele>57.7</ele>
        <time>2020-06-22T20:02:09Z</time>
      </trkpt>
      <trkpt lat="50.85104" lon="1.63805">
        <ele>57.1</ele>
        <time>2020-06-22T20:02:10Z</time>
      </trkpt>
      <trkpt lat="50.85103" lon="1.6382">
        <ele>56.4</ele>
        <time>2020-06-22T20:02:11Z</time>
      </trkpt>
      <trkpt lat="50.85103" lon="1.63835">
        <ele>55.7</ele>
        <time>2020-06-22T20:02:12Z</time>
      </trkpt>
      <trkpt lat="50.85103" lon="1.6385">
        <ele>54.9</ele>
        <time>2020-06-22T20:02:13Z</time>
      </trkpt>
      <trkpt lat="50.85105" lon="1.63865">
        <ele>54.1</ele>
        <time>2020-06-22T20:02:14Z</time>
      </trkpt>
      <trkpt lat="50.85108" lon="1.6388">
        <ele>53.3</ele>
        <time>2020-06-22T20:02:15Z</time>
      </trkpt>
      <trkpt lat="50.85111" lon="1.63894">
        <ele>52.7</ele>
        <time>2020-06-22T20:02:16Z</time>
      </trkpt>
      <trkpt lat="50.85114" lon="1.63909">
        <ele>52.2</ele>
        <time>2020-06-22T20:02:17Z</time>
      </trkpt>
      <trkpt lat="50.85117" lon="1.63924">
        <ele>51.7</ele>
        <time>2020-06-22T20:02:18Z</time>
      </trkpt>
      <trkpt lat="50.85119" lon="1.63937">
        <ele>51.5</ele>
        <time>2020-06-22T20:02:19Z</time>
      </trkpt>
      <trkpt lat="50.85122" lon="1.6395">
        <ele>51.3</ele>
        <time>2020-06-22T20:02:20Z</time>
      </trkpt>
      <trkpt lat="50.85121" lon="1.63963">
        <ele>51.1</ele>
        <time>2020-06-22T20:02:21Z</time>
      </trkpt>
      <trkpt lat="50.85121" lon="1.63977">
        <ele>51</ele>
        <time>2020-06-22T20:02:22Z</time>
      </trkpt>
      <trkpt lat="50.85122" lon="1.63989">
        <ele>50.8</ele>
        <time>2020-06-22T20:02:23Z</time>
      </trkpt>
      <trkpt lat="50.85124" lon="1.64">
        <ele>50.8</ele>
        <time>2020-06-22T20:02:24Z</time>
      </trkpt>
      <trkpt lat="50.85128" lon="1.64009">
        <ele>50.8</ele>
        <time>2020-06-22T20:02:25Z</time>
      </trkpt>
      <trkpt lat="50.85132" lon="1.64017">
        <ele>50.9</ele>
        <time>2020-06-22T20:02:26Z</time>
      </trkpt>
      <trkpt lat="50.85137" lon="1.64022">
        <ele>51</ele>
        <time>2020-06-22T20:02:27Z</time>
      </trkpt>
      <trkpt lat="50.85141" lon="1.64028">
        <ele>51.2</ele>
        <time>2020-06-22T20:02:28Z</time>
      </trkpt>
      <trkpt lat="50.85145" lon="1.64035">
        <ele>51.4</ele>
        <time>2020-06-22T20:02:29Z</time>
      </trkpt>
      <trkpt lat="50.85149" lon="1.64042">
        <ele>51.5</ele>
        <time>2020-06-22T20:02:30Z</time>
      </trkpt>
      <trkpt lat="50.85152" lon="1.64049">
        <ele>51.7</ele>
        <time>2020-06-22T20:02:31Z</time>
      </trkpt>
      <trkpt lat="50.85156" lon="1.64057">
        <ele>51.9</ele>
        <time>2020-06-22T20:02:32Z</time>
      </trkpt>
      <trkpt lat="50.85159" lon="1.64065">
        <ele>52.1</ele>
        <time>2020-06-22T20:02:33Z</time>
      </trkpt>
      <trkpt lat="50.85163" lon="1.64073">
        <ele>52.4</ele>
        <time>2020-06-22T20:02:34Z</time>
      </trkpt>
      <trkpt lat="50.85166" lon="1.64081">
        <ele>52.7</ele>
        <time>2020-06-22T20:02:35Z</time>
      </trkpt>
      <trkpt lat="50.85169" lon="1.64089">
        <ele>52.9</ele>
        <time>2020-06-22T20:02:36Z</time>
      </trkpt>
      <trkpt lat="50.85172" lon="1.64097">
        <ele>53.3</ele>
        <time>2020-06-22T20:02:37Z</time>
      </trkpt>
      <trkpt lat="50.85174" lon="1.64105">
        <ele>53.6</ele>
        <time>2020-06-22T20:02:38Z</time>
      </trkpt>
      <trkpt lat="50.85178" lon="1.64112">
        <ele>54</ele>
        <time>2020-06-22T20:02:39Z</time>
      </trkpt>
      <trkpt lat="50.85179" lon="1.6412">
        <ele>54.4</ele>
        <time>2020-06-22T20:02:40Z</time>
      </trkpt>
      <trkpt lat="50.85181" lon="1.64128">
        <ele>54.8</ele>
        <time>2020-06-22T20:02:41Z</time>
      </trkpt>
      <trkpt lat="50.85182" lon="1.64136">
        <ele>55.2</ele>
        <time>2020-06-22T20:02:42Z</time>
      </trkpt>
      <trkpt lat="50.85183" lon="1.64144">
        <ele>55.7</ele>
        <time>2020-06-22T20:02:43Z</time>
      </trkpt>
      <trkpt lat="50.85184" lon="1.64152">
        <ele>56.2</ele>
        <time>2020-06-22T20:02:44Z</time>
      </trkpt>
      <trkpt lat="50.85185" lon="1.64161">
        <ele>56.7</ele>
        <time>2020-06-22T20:02:45Z</time>
      </trkpt>
      <trkpt lat="50.85187" lon="1.64168">
        <ele>57.1</ele>
        <time>2020-06-22T20:02:46Z</time>
      </trkpt>
      <trkpt lat="50.85189" lon="1.64176">
        <ele>57.5</ele>
        <time>2020-06-22T20:02:47Z</time>
      </trkpt>
      <trkpt lat="50.85189" lon="1.64183">
        <ele>57.8</ele>
        <time>2020-06-22T20:02:48Z</time>
      </trkpt>
      <trkpt lat="50.8519" lon="1.6419">
        <ele>58.2</ele>
        <time>2020-06-22T20:02:49Z</time>
      </trkpt>
      <trkpt lat="50.85191" lon="1.64196">
        <ele>58.5</ele>
        <time>2020-06-22T20:02:50Z</time>
      </trkpt>
      <trkpt lat="50.85193" lon="1.64202">
        <ele>58.8</ele>
        <time>2020-06-22T20:02:51Z</time>
      </trkpt>
      <trkpt lat="50.85193" lon="1.64209">
        <ele>59.1</ele>
        <time>2020-06-22T20:02:52Z</time>
      </trkpt>
      <trkpt lat="50.85194" lon="1.64214">
        <ele>59.3</ele>
        <time>2020-06-22T20:02:53Z</time>
      </trkpt>
      <trkpt lat="50.85194" lon="1.64219">
        <ele>59.5</ele>
        <time>2020-06-22T20:02:54Z</time>
      </trkpt>
      <trkpt lat="50.85195" lon="1.64225">
        <ele>59.7</ele>
        <time>2020-06-22T20:02:55Z</time>
      </trkpt>
      <trkpt lat="50.85196" lon="1.6423">
        <ele>59.9</ele>
        <time>2020-06-22T20:02:56Z</time>
      </trkpt>
      <trkpt lat="50.85196" lon="1.64236">
        <ele>60.1</ele>
        <time>2020-06-22T20:02:57Z</time>
      </trkpt>
      <trkpt lat="50.85197" lon="1.64244">
        <ele>60.3</ele>
        <time>2020-06-22T20:02:58Z</time>
      </trkpt>
      <trkpt lat="50.85199" lon="1.6425">
        <ele>60.5</ele>
        <time>2020-06-22T20:02:59Z</time>
      </trkpt>
      <trkpt lat="50.852" lon="1.64257">
        <ele>60.7</ele>
        <time>2020-06-22T20:03:00Z</time>
      </trkpt>
      <trkpt lat="50.85201" lon="1.64262">
        <ele>60.8</ele>
        <time>2020-06-22T20:03:01Z</time>
      </trkpt>
      <trkpt lat="50.85202" lon="1.64268">
        <ele>60.9</ele>
        <time>2020-06-22T20:03:02Z</time>
      </trkpt>
      <trkpt lat="50.85203" lon="1.64273">
        <ele>61</ele>
        <time>2020-06-22T20:03:03Z</time>
      </trkpt>
      <trkpt lat="50.85204" lon="1.6428">
        <ele>61.2</ele>
        <time>2020-06-22T20:03:04Z</time>
      </trkpt>
      <trkpt lat="50.85205" lon="1.64287">
        <ele>61.3</ele>
        <time>2020-06-22T20:03:05Z</time>
      </trkpt>
      <trkpt lat="50.85205" lon="1.64294">
        <ele>61.3</ele>
        <time>2020-06-22T20:03:06Z</time>
      </trkpt>
      <trkpt lat="50.85206" lon="1.643">
        <ele>61.4</ele>
        <time>2020-06-22T20:03:07Z</time>
      </trkpt>
      <trkpt lat="50.85207" lon="1.64307">
        <ele>61.5</ele>
        <time>2020-06-22T20:03:08Z</time>
      </trkpt>
      <trkpt lat="50.85208" lon="1.64314">
        <ele>61.5</ele>
        <time>2020-06-22T20:03:09Z</time>
      </trkpt>
      <trkpt lat="50.85209" lon="1.64322">
        <ele>61.6</ele>
        <time>2020-06-22T20:03:10Z</time>
      </trkpt>
      <trkpt lat="50.8521" lon="1.64329">
        <ele>61.7</ele>
        <time>2020-06-22T20:03:11Z</time>
      </trkpt>
      <trkpt lat="50.85211" lon="1.64336">
        <ele>61.7</ele>
        <time>2020-06-22T20:03:12Z</time>
      </trkpt>
      <trkpt lat="50.85213" lon="1.64343">
        <ele>61.8</ele>
        <time>2020-06-22T20:03:13Z</time>
      </trkpt>
      <trkpt lat="50.85215" lon="1.64351">
        <ele>61.9</ele>
        <time>2020-06-22T20:03:14Z</time>
      </trkpt>
      <trkpt lat="50.85217" lon="1.64358">
        <ele>62</ele>
        <time>2020-06-22T20:03:15Z</time>
      </trkpt>
      <trkpt lat="50.8522" lon="1.64366">
        <ele>62</ele>
        <time>2020-06-22T20:03:16Z</time>
      </trkpt>
      <trkpt lat="50.85223" lon="1.64373">
        <ele>62</ele>
        <time>2020-06-22T20:03:17Z</time>
      </trkpt>
      <trkpt lat="50.85225" lon="1.64381">
        <ele>62</ele>
        <time>2020-06-22T20:03:18Z</time>
      </trkpt>
      <trkpt lat="50.85228" lon="1.64391">
        <ele>62.1</ele>
        <time>2020-06-22T20:03:19Z</time>
      </trkpt>
      <trkpt lat="50.85231" lon="1.644">
        <ele>62.1</ele>
        <time>2020-06-22T20:03:20Z</time>
      </trkpt>
      <trkpt lat="50.85233" lon="1.64409">
        <ele>62.2</ele>
        <time>2020-06-22T20:03:21Z</time>
      </trkpt>
      <trkpt lat="50.85235" lon="1.64418">
        <ele>62.2</ele>
        <time>2020-06-22T20:03:22Z</time>
      </trkpt>
      <trkpt lat="50.85237" lon="1.64426">
        <ele>62.2</ele>
        <time>2020-06-22T20:03:23Z</time>
      </trkpt>
      <trkpt lat="50.85241" lon="1.64431">
        <ele>62.2</ele>
        <time>2020-06-22T20:03:24Z</time>
      </trkpt>
      <trkpt lat="50.85245" lon="1.64438">
        <ele>62.2</ele>
        <time>2020-06-22T20:03:25Z</time>
      </trkpt>
      <trkpt lat="50.8525" lon="1.64447">
        <ele>62.2</ele>
        <time>2020-06-22T20:03:26Z</time>
      </trkpt>
      <trkpt lat="50.85254" lon="1.64452">
        <ele>62.2</ele>
        <time>2020-06-22T20:03:27Z</time>
      </trkpt>
      <trkpt lat="50.85258" lon="1.64459">
        <ele>62.2</ele>
        <time>2020-06-22T20:03:28Z</time>
      </trkpt>
      <trkpt lat="50.85262" lon="1.64466">
        <ele>62.2</ele>
        <time>2020-06-22T20:03:29Z</time>
      </trkpt>
      <trkpt lat="50.85266" lon="1.64472">
        <ele>62.2</ele>
        <time>2020-06-22T20:03:30Z</time>
      </trkpt>
      <trkpt lat="50.8527" lon="1.64477">
        <ele>62.3</ele>
        <time>2020-06-22T20:03:31Z</time>
      </trkpt>
      <trkpt lat="50.85274" lon="1.64484">
        <ele>62.3</ele>
        <time>2020-06-22T20:03:32Z</time>
      </trkpt>
      <trkpt lat="50.85278" lon="1.64491">
        <ele>62.3</ele>
        <time>2020-06-22T20:03:33Z</time>
      </trkpt>
      <trkpt lat="50.85283" lon="1.64497">
        <ele>62.4</ele>
        <time>2020-06-22T20:03:34Z</time>
      </trkpt>
      <trkpt lat="50.85287" lon="1.64504">
        <ele>62.4</ele>
        <time>2020-06-22T20:03:35Z</time>
      </trkpt>
      <trkpt lat="50.85291" lon="1.64511">
        <ele>62.5</ele>
        <time>2020-06-22T20:03:36Z</time>
      </trkpt>
      <trkpt lat="50.85295" lon="1.64518">
        <ele>62.5</ele>
        <time>2020-06-22T20:03:37Z</time>
      </trkpt>
      <trkpt lat="50.85299" lon="1.64526">
        <ele>62.5</ele>
        <time>2020-06-22T20:03:38Z</time>
      </trkpt>
      <trkpt lat="50.85303" lon="1.64533">
        <ele>62.5</ele>
        <time>2020-06-22T20:03:39Z</time>
      </trkpt>
      <trkpt lat="50.85306" lon="1.64541">
        <ele>62.5</ele>
        <time>2020-06-22T20:03:40Z</time>
      </trkpt>
      <trkpt lat="50.8531" lon="1.64548">
        <ele>62.6</ele>
        <time>2020-06-22T20:03:41Z</time>
      </trkpt>
      <trkpt lat="50.85314" lon="1.64555">
        <ele>62.6</ele>
        <time>2020-06-22T20:03:42Z</time>
      </trkpt>
      <trkpt lat="50.85317" lon="1.6456">
        <ele>62.6</ele>
        <time>2020-06-22T20:03:43Z</time>
      </trkpt>
      <trkpt lat="50.8532" lon="1.64565">
        <ele>62.6</ele>
        <time>2020-06-22T20:03:44Z</time>
      </trkpt>
      <trkpt lat="50.85325" lon="1.64571">
        <ele>62.6</ele>
        <time>2020-06-22T20:03:45Z</time>
      </trkpt>
      <trkpt lat="50.85328" lon="1.64578">
        <ele>62.7</ele>
        <time>2020-06-22T20:03:46Z</time>
      </trkpt>
      <trkpt lat="50.85332" lon="1.64585">
        <ele>62.7</ele>
        <time>2020-06-22T20:03:47Z</time>
      </trkpt>
      <trkpt lat="50.85336" lon="1.64592">
        <ele>62.8</ele>
        <time>2020-06-22T20:03:48Z</time>
      </trkpt>
      <trkpt lat="50.8534" lon="1.64599">
        <ele>62.9</ele>
        <time>2020-06-22T20:03:49Z</time>
      </trkpt>
      <trkpt lat="50.85343" lon="1.64601">
        <ele>62.9</ele>
        <time>2020-06-22T20:03:50Z</time>
      </trkpt>
      <trkpt lat="50.85347" lon="1.64607">
        <ele>63</ele>
        <time>2020-06-22T20:03:51Z</time>
      </trkpt>
      <trkpt lat="50.85351" lon="1.64613">
        <ele>63.1</ele>
        <time>2020-06-22T20:03:52Z</time>
      </trkpt>
      <trkpt lat="50.85355" lon="1.64618">
        <ele>63.3</ele>
        <time>2020-06-22T20:03:53Z</time>
      </trkpt>
      <trkpt lat="50.85359" lon="1.64624">
        <ele>63.4</ele>
        <time>2020-06-22T20:03:54Z</time>
      </trkpt>
      <trkpt lat="50.85362" lon="1.64629">
        <ele>63.5</ele>
        <time>2020-06-22T20:03:55Z</time>
      </trkpt>
      <trkpt lat="50.85366" lon="1.64635">
        <ele>63.6</ele>
        <time>2020-06-22T20:03:56Z</time>
      </trkpt>
      <trkpt lat="50.8537" lon="1.6464">
        <ele>63.7</ele>
        <time>2020-06-22T20:03:57Z</time>
      </trkpt>
      <trkpt lat="50.85373" lon="1.64645">
        <ele>63.9</ele>
        <time>2020-06-22T20:03:58Z</time>
      </trkpt>
      <trkpt lat="50.85377" lon="1.6465">
        <ele>64</ele>
        <time>2020-06-22T20:03:59Z</time>
      </trkpt>
      <trkpt lat="50.8538" lon="1.64655">
        <ele>64.2</ele>
        <time>2020-06-22T20:04:00Z</time>
      </trkpt>
      <trkpt lat="50.85384" lon="1.64661">
        <ele>64.4</ele>
        <time>2020-06-22T20:04:01Z</time>
      </trkpt>
      <trkpt lat="50.85387" lon="1.64668">
        <ele>64.7</ele>
        <time>2020-06-22T20:04:02Z</time>
      </trkpt>
      <trkpt lat="50.8539" lon="1.64671">
        <ele>64.8</ele>
        <time>2020-06-22T20:04:03Z</time>
      </trkpt>
      <trkpt lat="50.85393" lon="1.64674">
        <ele>65</ele>
        <time>2020-06-22T20:04:04Z</time>
      </trkpt>
      <trkpt lat="50.85397" lon="1.64678">
        <ele>65.2</ele>
        <time>2020-06-22T20:04:05Z</time>
      </trkpt>
      <trkpt lat="50.854" lon="1.64684">
        <ele>65.4</ele>
        <time>2020-06-22T20:04:06Z</time>
      </trkpt>
      <trkpt lat="50.85404" lon="1.6469">
        <ele>65.7</ele>
        <time>2020-06-22T20:04:07Z</time>
      </trkpt>
      <trkpt lat="50.85407" lon="1.64696">
        <ele>65.9</ele>
        <time>2020-06-22T20:04:08Z</time>
      </trkpt>
      <trkpt lat="50.8541" lon="1.64701">
        <ele>66.1</ele>
        <time>2020-06-22T20:04:09Z</time>
      </trkpt>
      <trkpt lat="50.85413" lon="1.64707">
        <ele>66.3</ele>
        <time>2020-06-22T20:04:10Z</time>
      </trkpt>
      <trkpt lat="50.85417" lon="1.64712">
        <ele>66.4</ele>
        <time>2020-06-22T20:04:11Z</time>
      </trkpt>
      <trkpt lat="50.8542" lon="1.64719">
        <ele>66.6</ele>
        <time>2020-06-22T20:04:12Z</time>
      </trkpt>
      <trkpt lat="50.85424" lon="1.64726">
        <ele>66.8</ele>
        <time>2020-06-22T20:04:13Z</time>
      </trkpt>
      <trkpt lat="50.85427" lon="1.64731">
        <ele>67</ele>
        <time>2020-06-22T20:04:14Z</time>
      </trkpt>
      <trkpt lat="50.8543" lon="1.64738">
        <ele>67.2</ele>
        <time>2020-06-22T20:04:15Z</time>
      </trkpt>
      <trkpt lat="50.85434" lon="1.64746">
        <ele>67.5</ele>
        <time>2020-06-22T20:04:16Z</time>
      </trkpt>
      <trkpt lat="50.85438" lon="1.64752">
        <ele>67.8</ele>
        <time>2020-06-22T20:04:17Z</time>
      </trkpt>
      <trkpt lat="50.85441" lon="1.64759">
        <ele>68</ele>
        <time>2020-06-22T20:04:18Z</time>
      </trkpt>
      <trkpt lat="50.85444" lon="1.64764">
        <ele>68.3</ele>
        <time>2020-06-22T20:04:19Z</time>
      </trkpt>
      <trkpt lat="50.85448" lon="1.64769">
        <ele>68.6</ele>
        <time>2020-06-22T20:04:20Z</time>
      </trkpt>
      <trkpt lat="50.85451" lon="1.64775">
        <ele>68.9</ele>
        <time>2020-06-22T20:04:21Z</time>
      </trkpt>
      <trkpt lat="50.85455" lon="1.64781">
        <ele>69.2</ele>
        <time>2020-06-22T20:04:22Z</time>
      </trkpt>
      <trkpt lat="50.85458" lon="1.64787">
        <ele>69.6</ele>
        <time>2020-06-22T20:04:23Z</time>
      </trkpt>
      <trkpt lat="50.85462" lon="1.64792">
        <ele>70</ele>
        <time>2020-06-22T20:04:24Z</time>
      </trkpt>
      <trkpt lat="50.85465" lon="1.64798">
        <ele>70.4</ele>
        <time>2020-06-22T20:04:25Z</time>
      </trkpt>
      <trkpt lat="50.85468" lon="1.64803">
        <ele>70.7</ele>
        <time>2020-06-22T20:04:26Z</time>
      </trkpt>
      <trkpt lat="50.85472" lon="1.64807">
        <ele>71</ele>
        <time>2020-06-22T20:04:27Z</time>
      </trkpt>
      <trkpt lat="50.85473" lon="1.64809">
        <ele>71.2</ele>
        <time>2020-06-22T20:04:28Z</time>
      </trkpt>
      <trkpt lat="50.85476" lon="1.64813">
        <ele>71.4</ele>
        <time>2020-06-22T20:04:29Z</time>
      </trkpt>
      <trkpt lat="50.85479" lon="1.64817">
        <ele>71.7</ele>
        <time>2020-06-22T20:04:30Z</time>
      </trkpt>
      <trkpt lat="50.85482" lon="1.64821">
        <ele>72</ele>
        <time>2020-06-22T20:04:31Z</time>
      </trkpt>
      <trkpt lat="50.85486" lon="1.64826">
        <ele>72.3</ele>
        <time>2020-06-22T20:04:32Z</time>
      </trkpt>
      <trkpt lat="50.8549" lon="1.64829">
        <ele>72.6</ele>
        <time>2020-06-22T20:04:33Z</time>
      </trkpt>
      <trkpt lat="50.85494" lon="1.64834">
        <ele>72.9</ele>
        <time>2020-06-22T20:04:34Z</time>
      </trkpt>
      <trkpt lat="50.85497" lon="1.64838">
        <ele>73.2</ele>
        <time>2020-06-22T20:04:35Z</time>
      </trkpt>
      <trkpt lat="50.85501" lon="1.64841">
        <ele>73.4</ele>
        <time>2020-06-22T20:04:36Z</time>
      </trkpt>
      <trkpt lat="50.85504" lon="1.64846">
        <ele>73.7</ele>
        <time>2020-06-22T20:04:37Z</time>
      </trkpt>
      <trkpt lat="50.85509" lon="1.64851">
        <ele>74</ele>
        <time>2020-06-22T20:04:38Z</time>
      </trkpt>
      <trkpt lat="50.85514" lon="1.64857">
        <ele>74.4</ele>
        <time>2020-06-22T20:04:39Z</time>
      </trkpt>
      <trkpt lat="50.85518" lon="1.64863">
        <ele>74.7</ele>
        <time>2020-06-22T20:04:40Z</time>
      </trkpt>
      <trkpt lat="50.85523" lon="1.64868">
        <ele>75</ele>
        <time>2020-06-22T20:04:41Z</time>
      </trkpt>
      <trkpt lat="50.85528" lon="1.64873">
        <ele>75.3</ele>
        <time>2020-06-22T20:04:42Z</time>
      </trkpt>
      <trkpt lat="50.85533" lon="1.64878">
        <ele>75.7</ele>
        <time>2020-06-22T20:04:43Z</time>
      </trkpt>
      <trkpt lat="50.85537" lon="1.64883">
        <ele>76</ele>
        <time>2020-06-22T20:04:44Z</time>
      </trkpt>
      <trkpt lat="50.85541" lon="1.64887">
        <ele>76.2</ele>
        <time>2020-06-22T20:04:45Z</time>
      </trkpt>
      <trkpt lat="50.85545" lon="1.64892">
        <ele>76.4</ele>
        <time>2020-06-22T20:04:46Z</time>
      </trkpt>
      <trkpt lat="50.8555" lon="1.64898">
        <ele>76.7</ele>
        <time>2020-06-22T20:04:47Z</time>
      </trkpt>
      <trkpt lat="50.85554" lon="1.64903">
        <ele>77</ele>
        <time>2020-06-22T20:04:48Z</time>
      </trkpt>
      <trkpt lat="50.85558" lon="1.64908">
        <ele>77.4</ele>
        <time>2020-06-22T20:04:49Z</time>
      </trkpt>
      <trkpt lat="50.85562" lon="1.64913">
        <ele>77.6</ele>
        <time>2020-06-22T20:04:50Z</time>
      </trkpt>
      <trkpt lat="50.85566" lon="1.64917">
        <ele>77.9</ele>
        <time>2020-06-22T20:04:51Z</time>
      </trkpt>
      <trkpt lat="50.85569" lon="1.64922">
        <ele>78.2</ele>
        <time>2020-06-22T20:04:52Z</time>
      </trkpt>
      <trkpt lat="50.85572" lon="1.64926">
        <ele>78.4</ele>
        <time>2020-06-22T20:04:53Z</time>
      </trkpt>
      <trkpt lat="50.85575" lon="1.64929">
        <ele>78.5</ele>
        <time>2020-06-22T20:04:54Z</time>
      </trkpt>
      <trkpt lat="50.85578" lon="1.64932">
        <ele>78.7</ele>
        <time>2020-06-22T20:04:55Z</time>
      </trkpt>
      <trkpt lat="50.85581" lon="1.64935">
        <ele>78.9</ele>
        <time>2020-06-22T20:04:56Z</time>
      </trkpt>
      <trkpt lat="50.85584" lon="1.64938">
        <ele>79</ele>
        <time>2020-06-22T20:04:57Z</time>
      </trkpt>
      <trkpt lat="50.85587" lon="1.64942">
        <ele>79.1</ele>
        <time>2020-06-22T20:04:58Z</time>
      </trkpt>
      <trkpt lat="50.8559" lon="1.64947">
        <ele>79.3</ele>
        <time>2020-06-22T20:04:59Z</time>
      </trkpt>
      <trkpt lat="50.85594" lon="1.64952">
        <ele>79.4</ele>
        <time>2020-06-22T20:05:00Z</time>
      </trkpt>
      <trkpt lat="50.85598" lon="1.64955">
        <ele>79.6</ele>
        <time>2020-06-22T20:05:01Z</time>
      </trkpt>
      <trkpt lat="50.85601" lon="1.64959">
        <ele>79.7</ele>
        <time>2020-06-22T20:05:02Z</time>
      </trkpt>
      <trkpt lat="50.85605" lon="1.64964">
        <ele>79.8</ele>
        <time>2020-06-22T20:05:03Z</time>
      </trkpt>
      <trkpt lat="50.85608" lon="1.64967">
        <ele>79.9</ele>
        <time>2020-06-22T20:05:04Z</time>
      </trkpt>
      <trkpt lat="50.85611" lon="1.64971">
        <ele>79.9</ele>
        <time>2020-06-22T20:05:05Z</time>
      </trkpt>
      <trkpt lat="50.85614" lon="1.64974">
        <ele>80</ele>
        <time>2020-06-22T20:05:06Z</time>
      </trkpt>
      <trkpt lat="50.85616" lon="1.64977">
        <ele>80.1</ele>
        <time>2020-06-22T20:05:07Z</time>
      </trkpt>
      <trkpt lat="50.85619" lon="1.64982">
        <ele>80.1</ele>
        <time>2020-06-22T20:05:08Z</time>
      </trkpt>
      <trkpt lat="50.85622" lon="1.64985">
        <ele>80.1</ele>
        <time>2020-06-22T20:05:09Z</time>
      </trkpt>
      <trkpt lat="50.85624" lon="1.6499">
        <ele>80.2</ele>
        <time>2020-06-22T20:05:10Z</time>
      </trkpt>
      <trkpt lat="50.85627" lon="1.64993">
        <ele>80.2</ele>
        <time>2020-06-22T20:05:11Z</time>
      </trkpt>
      <trkpt lat="50.85629" lon="1.64998">
        <ele>80.2</ele>
        <time>2020-06-22T20:05:12Z</time>
      </trkpt>
      <trkpt lat="50.85632" lon="1.65002">
        <ele>80.3</ele>
        <time>2020-06-22T20:05:13Z</time>
      </trkpt>
      <trkpt lat="50.85635" lon="1.65005">
        <ele>80.3</ele>
        <time>2020-06-22T20:05:14Z</time>
      </trkpt>
      <trkpt lat="50.85638" lon="1.65011">
        <ele>80.3</ele>
        <time>2020-06-22T20:05:15Z</time>
      </trkpt>
      <trkpt lat="50.8564" lon="1.65015">
        <ele>80.3</ele>
        <time>2020-06-22T20:05:16Z</time>
      </trkpt>
      <trkpt lat="50.85643" lon="1.65019">
        <ele>80.3</ele>
        <time>2020-06-22T20:05:17Z</time>
      </trkpt>
      <trkpt lat="50.85646" lon="1.65024">
        <ele>80.2</ele>
        <time>2020-06-22T20:05:18Z</time>
      </trkpt>
      <trkpt lat="50.85649" lon="1.65028">
        <ele>80.2</ele>
        <time>2020-06-22T20:05:19Z</time>
      </trkpt>
      <trkpt lat="50.85652" lon="1.65033">
        <ele>80.2</ele>
        <time>2020-06-22T20:05:20Z</time>
      </trkpt>
      <trkpt lat="50.85654" lon="1.65038">
        <ele>80.1</ele>
        <time>2020-06-22T20:05:21Z</time>
      </trkpt>
      <trkpt lat="50.85656" lon="1.65042">
        <ele>80.1</ele>
        <time>2020-06-22T20:05:22Z</time>
      </trkpt>
      <trkpt lat="50.85659" lon="1.65046">
        <ele>80</ele>
        <time>2020-06-22T20:05:23Z</time>
      </trkpt>
      <trkpt lat="50.85661" lon="1.65052">
        <ele>79.9</ele>
        <time>2020-06-22T20:05:24Z</time>
      </trkpt>
      <trkpt lat="50.85663" lon="1.65057">
        <ele>79.8</ele>
        <time>2020-06-22T20:05:25Z</time>
      </trkpt>
      <trkpt lat="50.85664" lon="1.65064">
        <ele>79.7</ele>
        <time>2020-06-22T20:05:26Z</time>
      </trkpt>
      <trkpt lat="50.85667" lon="1.65069">
        <ele>79.6</ele>
        <time>2020-06-22T20:05:27Z</time>
      </trkpt>
      <trkpt lat="50.8567" lon="1.65074">
        <ele>79.5</ele>
        <time>2020-06-22T20:05:28Z</time>
      </trkpt>
      <trkpt lat="50.85672" lon="1.65079">
        <ele>79.3</ele>
        <time>2020-06-22T20:05:29Z</time>
      </trkpt>
      <trkpt lat="50.85675" lon="1.65084">
        <ele>79.2</ele>
        <time>2020-06-22T20:05:30Z</time>
      </trkpt>
      <trkpt lat="50.85677" lon="1.65088">
        <ele>79.1</ele>
        <time>2020-06-22T20:05:31Z</time>
      </trkpt>
      <trkpt lat="50.85678" lon="1.65091">
        <ele>79.1</ele>
        <time>2020-06-22T20:05:32Z</time>
      </trkpt>
      <trkpt lat="50.85678" lon="1.65091">
        <ele>79.1</ele>
        <time>2020-06-22T20:05:33Z</time>
      </trkpt>
      <trkpt lat="50.85679" lon="1.65091">
        <ele>79</ele>
        <time>2020-06-22T20:05:34Z</time>
      </trkpt>
      <trkpt lat="50.85679" lon="1.65092">
        <ele>79</ele>
        <time>2020-06-22T20:05:35Z</time>
      </trkpt>
      <trkpt lat="50.85679" lon="1.65092">
        <ele>79</ele>
        <time>2020-06-22T20:05:36Z</time>
      </trkpt>
      <trkpt lat="50.85679" lon="1.65093">
        <ele>79</ele>
        <time>2020-06-22T20:05:37Z</time>
      </trkpt>
      <trkpt lat="50.8568" lon="1.65093">
        <ele>79</ele>
        <time>2020-06-22T20:05:38Z</time>
      </trkpt>
      <trkpt lat="50.8568" lon="1.65094">
        <ele>79</ele>
        <time>2020-06-22T20:05:39Z</time>
      </trkpt>
      <trkpt lat="50.8568" lon="1.65094">
        <ele>79</ele>
        <time>2020-06-22T20:05:40Z</time>
      </trkpt>
      <trkpt lat="50.85681" lon="1.65095">
        <ele>79</ele>
        <time>2020-06-22T20:05:41Z</time>
      </trkpt>
      <trkpt lat="50.85681" lon="1.65095">
        <ele>78.9</ele>
        <time>2020-06-22T20:05:42Z</time>
      </trkpt>
      <trkpt lat="50.85681" lon="1.65095">
        <ele>78.9</ele>
        <time>2020-06-22T20:05:43Z</time>
      </trkpt>
      <trkpt lat="50.85681" lon="1.65096">
        <ele>78.9</ele>
        <time>2020-06-22T20:05:44Z</time>
      </trkpt>
      <trkpt lat="50.85682" lon="1.65096">
        <ele>78.9</ele>
        <time>2020-06-22T20:05:45Z</time>
      </trkpt>
      <trkpt lat="50.85682" lon="1.65097">
        <ele>78.9</ele>
        <time>2020-06-22T20:06:46Z</time>
      </trkpt>
      <trkpt lat="50.85682" lon="1.65097">
        <ele>78.9</ele>
        <time>2020-06-22T20:06:47Z</time>
      </trkpt>
      <trkpt lat="50.85684" lon="1.65104">
        <ele>78.7</ele>
        <time>2020-06-22T20:06:48Z</time>
      </trkpt>
      <trkpt lat="50.85686" lon="1.65109">
        <ele>78.6</ele>
        <time>2020-06-22T20:06:49Z</time>
      </trkpt>
      <trkpt lat="50.85688" lon="1.65115">
        <ele>78.5</ele>
        <time>2020-06-22T20:06:50Z</time>
      </trkpt>
      <trkpt lat="50.8569" lon="1.65121">
        <ele>78.3</ele>
        <time>2020-06-22T20:06:51Z</time>
      </trkpt>
      <trkpt lat="50.85692" lon="1.65127">
        <ele>78.2</ele>
        <time>2020-06-22T20:06:52Z</time>
      </trkpt>
      <trkpt lat="50.85695" lon="1.65134">
        <ele>78</ele>
        <time>2020-06-22T20:06:53Z</time>
      </trkpt>
      <trkpt lat="50.85698" lon="1.65141">
        <ele>77.8</ele>
        <time>2020-06-22T20:06:54Z</time>
      </trkpt>
      <trkpt lat="50.85702" lon="1.65149">
        <ele>77.6</ele>
        <time>2020-06-22T20:06:55Z</time>
      </trkpt>
      <trkpt lat="50.85706" lon="1.65157">
        <ele>77.4</ele>
        <time>2020-06-22T20:06:56Z</time>
      </trkpt>
      <trkpt lat="50.8571" lon="1.65165">
        <ele>77.1</ele>
        <time>2020-06-22T20:06:57Z</time>
      </trkpt>
      <trkpt lat="50.85714" lon="1.65173">
        <ele>76.8</ele>
        <time>2020-06-22T20:06:58Z</time>
      </trkpt>
      <trkpt lat="50.85718" lon="1.6518">
        <ele>76.4</ele>
        <time>2020-06-22T20:06:59Z</time>
      </trkpt>
      <trkpt lat="50.85723" lon="1.65188">
        <ele>75.8</ele>
        <time>2020-06-22T20:07:00Z</time>
      </trkpt>
      <trkpt lat="50.8573" lon="1.65194">
        <ele>75.1</ele>
        <time>2020-06-22T20:07:01Z</time>
      </trkpt>
      <trkpt lat="50.85738" lon="1.652">
        <ele>74.4</ele>
        <time>2020-06-22T20:07:02Z</time>
      </trkpt>
      <trkpt lat="50.85746" lon="1.65206">
        <ele>73.6</ele>
        <time>2020-06-22T20:07:03Z</time>
      </trkpt>
      <trkpt lat="50.85754" lon="1.65212">
        <ele>72.8</ele>
        <time>2020-06-22T20:07:04Z</time>
      </trkpt>
      <trkpt lat="50.85763" lon="1.65217">
        <ele>72</ele>
        <time>2020-06-22T20:07:05Z</time>
      </trkpt>
      <trkpt lat="50.85771" lon="1.65223">
        <ele>71.2</ele>
        <time>2020-06-22T20:07:06Z</time>
      </trkpt>
      <trkpt lat="50.8578" lon="1.65229">
        <ele>70.3</ele>
        <time>2020-06-22T20:07:07Z</time>
      </trkpt>
      <trkpt lat="50.8579" lon="1.65236">
        <ele>69.4</ele>
        <time>2020-06-22T20:07:08Z</time>
      </trkpt>
      <trkpt lat="50.85799" lon="1.65243">
        <ele>68.6</ele>
        <time>2020-06-22T20:07:09Z</time>
      </trkpt>
      <trkpt lat="50.85808" lon="1.6525">
        <ele>67.9</ele>
        <time>2020-06-22T20:07:10Z</time>
      </trkpt>
      <trkpt lat="50.85817" lon="1.65256">
        <ele>67.2</ele>
        <time>2020-06-22T20:07:11Z</time>
      </trkpt>
      <trkpt lat="50.85826" lon="1.65263">
        <ele>66.5</ele>
        <time>2020-06-22T20:07:12Z</time>
      </trkpt>
      <trkpt lat="50.85833" lon="1.6527">
        <ele>65.8</ele>
        <time>2020-06-22T20:07:13Z</time>
      </trkpt>
      <trkpt lat="50.85839" lon="1.65279">
        <ele>65.2</ele>
        <time>2020-06-22T20:07:14Z</time>
      </trkpt>
      <trkpt lat="50.85845" lon="1.6529">
        <ele>64.5</ele>
        <time>2020-06-22T20:07:15Z</time>
      </trkpt>
      <trkpt lat="50.85849" lon="1.65301">
        <ele>63.9</ele>
        <time>2020-06-22T20:07:16Z</time>
      </trkpt>
      <trkpt lat="50.85853" lon="1.65313">
        <ele>63.3</ele>
        <time>2020-06-22T20:07:17Z</time>
      </trkpt>
      <trkpt lat="50.85857" lon="1.65325">
        <ele>62.7</ele>
        <time>2020-06-22T20:07:18Z</time>
      </trkpt>
      <trkpt lat="50.8586" lon="1.65337">
        <ele>62</ele>
        <time>2020-06-22T20:07:19Z</time>
      </trkpt>
      <trkpt lat="50.85864" lon="1.6535">
        <ele>61.4</ele>
        <time>2020-06-22T20:07:20Z</time>
      </trkpt>
      <trkpt lat="50.85867" lon="1.65363">
        <ele>60.7</ele>
        <time>2020-06-22T20:07:21Z</time>
      </trkpt>
      <trkpt lat="50.85872" lon="1.65374">
        <ele>60.1</ele>
        <time>2020-06-22T20:07:22Z</time>
      </trkpt>
      <trkpt lat="50.85876" lon="1.65386">
        <ele>59.4</ele>
        <time>2020-06-22T20:07:23Z</time>
      </trkpt>
      <trkpt lat="50.85881" lon="1.65398">
        <ele>58.7</ele>
        <time>2020-06-22T20:07:24Z</time>
      </trkpt>
      <trkpt lat="50.85886" lon="1.6541">
        <ele>57.9</ele>
        <time>2020-06-22T20:07:25Z</time>
      </trkpt>
      <trkpt lat="50.85892" lon="1.65423">
        <ele>57.1</ele>
        <time>2020-06-22T20:07:26Z</time>
      </trkpt>
      <trkpt lat="50.85898" lon="1.65435">
        <ele>56.3</ele>
        <time>2020-06-22T20:07:27Z</time>
      </trkpt>
      <trkpt lat="50.85903" lon="1.65447">
        <ele>55.5</ele>
        <time>2020-06-22T20:07:28Z</time>
      </trkpt>
      <trkpt lat="50.85909" lon="1.65459">
        <ele>54.7</ele>
        <time>2020-06-22T20:07:29Z</time>
      </trkpt>
      <trkpt lat="50.85915" lon="1.65472">
        <ele>53.9</ele>
        <time>2020-06-22T20:07:30Z</time>
      </trkpt>
      <trkpt lat="50.8592" lon="1.65485">
        <ele>53.1</ele>
        <time>2020-06-22T20:07:31Z</time>
      </trkpt>
      <trkpt lat="50.85926" lon="1.65496">
        <ele>52.3</ele>
        <time>2020-06-22T20:07:32Z</time>
      </trkpt>
      <trkpt lat="50.85933" lon="1.65508">
        <ele>51.5</ele>
        <time>2020-06-22T20:07:33Z</time>
      </trkpt>
      <trkpt lat="50.85939" lon="1.65519">
        <ele>50.8</ele>
        <time>2020-06-22T20:07:34Z</time>
      </trkpt>
      <trkpt lat="50.85947" lon="1.65529">
        <ele>50.1</ele>
        <time>2020-06-22T20:07:35Z</time>
      </trkpt>
      <trkpt lat="50.85954" lon="1.65539">
        <ele>49.4</ele>
        <time>2020-06-22T20:07:36Z</time>
      </trkpt>
      <trkpt lat="50.85961" lon="1.65549">
        <ele>48.8</ele>
        <time>2020-06-22T20:07:37Z</time>
      </trkpt>
      <trkpt lat="50.85967" lon="1.65558">
        <ele>48.3</ele>
        <time>2020-06-22T20:07:38Z</time>
      </trkpt>
      <trkpt lat="50.85974" lon="1.65566">
        <ele>47.9</ele>
        <time>2020-06-22T20:07:39Z</time>
      </trkpt>
      <trkpt lat="50.8598" lon="1.65574">
        <ele>47.6</ele>
        <time>2020-06-22T20:07:40Z</time>
      </trkpt>
      <trkpt lat="50.85986" lon="1.65583">
        <ele>47.4</ele>
        <time>2020-06-22T20:07:41Z</time>
      </trkpt>
      <trkpt lat="50.85992" lon="1.6559">
        <ele>47.1</ele>
        <time>2020-06-22T20:07:42Z</time>
      </trkpt>
      <trkpt lat="50.85998" lon="1.65597">
        <ele>46.9</ele>
        <time>2020-06-22T20:07:43Z</time>
      </trkpt>
      <trkpt lat="50.86002" lon="1.65602">
        <ele>46.8</ele>
        <time>2020-06-22T20:07:44Z</time>
      </trkpt>
      <trkpt lat="50.86005" lon="1.65607">
        <ele>46.7</ele>
        <time>2020-06-22T20:07:45Z</time>
      </trkpt>
      <trkpt lat="50.86008" lon="1.65611">
        <ele>46.5</ele>
        <time>2020-06-22T20:07:46Z</time>
      </trkpt>
      <trkpt lat="50.86011" lon="1.65614">
        <ele>46.4</ele>
        <time>2020-06-22T20:07:47Z</time>
      </trkpt>
      <trkpt lat="50.86013" lon="1.65616">
        <ele>46.2</ele>
        <time>2020-06-22T20:07:48Z</time>
      </trkpt>
      <trkpt lat="50.86013" lon="1.65616">
        <ele>46.2</ele>
        <time>2020-06-22T20:07:49Z</time>
      </trkpt>
      <trkpt lat="50.86013" lon="1.65618">
        <ele>46.2</ele>
        <time>2020-06-22T20:07:50Z</time>
      </trkpt>
      <trkpt lat="50.86014" lon="1.65619">
        <ele>46.1</ele>
        <time>2020-06-22T20:07:51Z</time>
      </trkpt>
      <trkpt lat="50.86015" lon="1.6562">
        <ele>46</ele>
        <time>2020-06-22T20:07:52Z</time>
      </trkpt>
      <trkpt lat="50.86015" lon="1.65622">
        <ele>45.6</ele>
        <time>2020-06-22T20:07:53Z</time>
      </trkpt>
      <trkpt lat="50.86016" lon="1.65623">
        <ele>45.5</ele>
        <time>2020-06-22T20:07:54Z</time>
      </trkpt>
      <trkpt lat="50.86017" lon="1.65625">
        <ele>45.4</ele>
        <time>2020-06-22T20:07:55Z</time>
      </trkpt>
      <trkpt lat="50.86017" lon="1.65626">
        <ele>45.3</ele>
        <time>2020-06-22T20:07:56Z</time>
      </trkpt>
      <trkpt lat="50.86018" lon="1.65628">
        <ele>45.2</ele>
        <time>2020-06-22T20:07:57Z</time>
      </trkpt>
      <trkpt lat="50.86019" lon="1.65629">
        <ele>45.1</ele>
        <time>2020-06-22T20:07:58Z</time>
      </trkpt>
      <trkpt lat="50.86019" lon="1.6563">
        <ele>45.1</ele>
        <time>2020-06-22T20:07:59Z</time>
      </trkpt>
      <trkpt lat="50.8602" lon="1.65632">
        <ele>45</ele>
        <time>2020-06-22T20:08:38Z</time>
      </trkpt>
      <trkpt lat="50.8602" lon="1.65633">
        <ele>44.9</ele>
        <time>2020-06-22T20:08:39Z</time>
      </trkpt>
      <trkpt lat="50.86024" lon="1.6564">
        <ele>44.4</ele>
        <time>2020-06-22T20:08:40Z</time>
      </trkpt>
      <trkpt lat="50.86027" lon="1.65647">
        <ele>43.9</ele>
        <time>2020-06-22T20:08:41Z</time>
      </trkpt>
      <trkpt lat="50.86031" lon="1.65653">
        <ele>43.4</ele>
        <time>2020-06-22T20:08:42Z</time>
      </trkpt>
      <trkpt lat="50.86036" lon="1.6566">
        <ele>42.9</ele>
        <time>2020-06-22T20:08:43Z</time>
      </trkpt>
      <trkpt lat="50.86041" lon="1.65665">
        <ele>42.4</ele>
        <time>2020-06-22T20:08:44Z</time>
      </trkpt>
      <trkpt lat="50.86046" lon="1.65672">
        <ele>41.8</ele>
        <time>2020-06-22T20:08:45Z</time>
      </trkpt>
      <trkpt lat="50.86052" lon="1.65679">
        <ele>41.3</ele>
        <time>2020-06-22T20:08:46Z</time>
      </trkpt>
      <trkpt lat="50.86058" lon="1.65686">
        <ele>40.8</ele>
        <time>2020-06-22T20:08:47Z</time>
      </trkpt>
      <trkpt lat="50.86065" lon="1.65694">
        <ele>40.3</ele>
        <time>2020-06-22T20:08:48Z</time>
      </trkpt>
      <trkpt lat="50.86073" lon="1.657">
        <ele>39.9</ele>
        <time>2020-06-22T20:08:49Z</time>
      </trkpt>
      <trkpt lat="50.86079" lon="1.65708">
        <ele>39.4</ele>
        <time>2020-06-22T20:08:50Z</time>
      </trkpt>
      <trkpt lat="50.86086" lon="1.65715">
        <ele>39</ele>
        <time>2020-06-22T20:08:51Z</time>
      </trkpt>
      <trkpt lat="50.86093" lon="1.65722">
        <ele>38.6</ele>
        <time>2020-06-22T20:08:52Z</time>
      </trkpt>
      <trkpt lat="50.861" lon="1.65729">
        <ele>38.2</ele>
        <time>2020-06-22T20:08:53Z</time>
      </trkpt>
      <trkpt lat="50.86108" lon="1.65735">
        <ele>37.8</ele>
        <time>2020-06-22T20:08:54Z</time>
      </trkpt>
      <trkpt lat="50.86115" lon="1.65742">
        <ele>37.5</ele>
        <time>2020-06-22T20:08:55Z</time>
      </trkpt>
      <trkpt lat="50.86123" lon="1.65748">
        <ele>37.1</ele>
        <time>2020-06-22T20:08:56Z</time>
      </trkpt>
      <trkpt lat="50.8613" lon="1.65755">
        <ele>36.7</ele>
        <time>2020-06-22T20:08:57Z</time>
      </trkpt>
      <trkpt lat="50.86137" lon="1.65762">
        <ele>36.4</ele>
        <time>2020-06-22T20:08:58Z</time>
      </trkpt>
      <trkpt lat="50.86144" lon="1.65769">
        <ele>36.1</ele>
        <time>2020-06-22T20:08:59Z</time>
      </trkpt>
      <trkpt lat="50.86152" lon="1.65777">
        <ele>35.7</ele>
        <time>2020-06-22T20:09:00Z</time>
      </trkpt>
      <trkpt lat="50.86159" lon="1.65784">
        <ele>35.4</ele>
        <time>2020-06-22T20:09:01Z</time>
      </trkpt>
      <trkpt lat="50.86167" lon="1.65791">
        <ele>35.1</ele>
        <time>2020-06-22T20:09:02Z</time>
      </trkpt>
      <trkpt lat="50.86175" lon="1.65799">
        <ele>34.9</ele>
        <time>2020-06-22T20:09:03Z</time>
      </trkpt>
      <trkpt lat="50.86183" lon="1.65806">
        <ele>34.6</ele>
        <time>2020-06-22T20:09:04Z</time>
      </trkpt>
      <trkpt lat="50.86191" lon="1.65813">
        <ele>34.4</ele>
        <time>2020-06-22T20:09:05Z</time>
      </trkpt>
      <trkpt lat="50.86199" lon="1.65819">
        <ele>34.2</ele>
        <time>2020-06-22T20:09:06Z</time>
      </trkpt>
      <trkpt lat="50.86207" lon="1.65825">
        <ele>34</ele>
        <time>2020-06-22T20:09:07Z</time>
      </trkpt>
      <trkpt lat="50.86216" lon="1.65831">
        <ele>33.8</ele>
        <time>2020-06-22T20:09:08Z</time>
      </trkpt>
      <trkpt lat="50.86224" lon="1.65838">
        <ele>33.5</ele>
        <time>2020-06-22T20:09:09Z</time>
      </trkpt>
      <trkpt lat="50.86233" lon="1.65843">
        <ele>33.3</ele>
        <time>2020-06-22T20:09:10Z</time>
      </trkpt>
      <trkpt lat="50.86241" lon="1.65849">
        <ele>33.1</ele>
        <time>2020-06-22T20:09:11Z</time>
      </trkpt>
      <trkpt lat="50.8625" lon="1.65855">
        <ele>33</ele>
        <time>2020-06-22T20:09:12Z</time>
      </trkpt>
      <trkpt lat="50.86259" lon="1.65861">
        <ele>32.8</ele>
        <time>2020-06-22T20:09:13Z</time>
      </trkpt>
      <trkpt lat="50.86267" lon="1.65867">
        <ele>32.6</ele>
        <time>2020-06-22T20:09:14Z</time>
      </trkpt>
      <trkpt lat="50.86276" lon="1.65873">
        <ele>32.4</ele>
        <time>2020-06-22T20:09:15Z</time>
      </trkpt>
      <trkpt lat="50.86284" lon="1.65879">
        <ele>32.2</ele>
        <time>2020-06-22T20:09:16Z</time>
      </trkpt>
      <trkpt lat="50.86293" lon="1.65884">
        <ele>32</ele>
        <time>2020-06-22T20:09:17Z</time>
      </trkpt>
      <trkpt lat="50.86302" lon="1.6589">
        <ele>31.8</ele>
        <time>2020-06-22T20:09:18Z</time>
      </trkpt>
      <trkpt lat="50.8631" lon="1.65896">
        <ele>31.6</ele>
        <time>2020-06-22T20:09:19Z</time>
      </trkpt>
      <trkpt lat="50.86318" lon="1.65902">
        <ele>31.4</ele>
        <time>2020-06-22T20:09:20Z</time>
      </trkpt>
      <trkpt lat="50.86327" lon="1.65909">
        <ele>31.2</ele>
        <time>2020-06-22T20:09:21Z</time>
      </trkpt>
      <trkpt lat="50.86335" lon="1.65915">
        <ele>31.1</ele>
        <time>2020-06-22T20:09:22Z</time>
      </trkpt>
      <trkpt lat="50.86343" lon="1.65921">
        <ele>31</ele>
        <time>2020-06-22T20:09:23Z</time>
      </trkpt>
      <trkpt lat="50.86351" lon="1.65928">
        <ele>30.9</ele>
        <time>2020-06-22T20:09:24Z</time>
      </trkpt>
      <trkpt lat="50.86359" lon="1.65935">
        <ele>30.8</ele>
        <time>2020-06-22T20:09:25Z</time>
      </trkpt>
      <trkpt lat="50.86367" lon="1.65942">
        <ele>30.7</ele>
        <time>2020-06-22T20:09:26Z</time>
      </trkpt>
      <trkpt lat="50.86375" lon="1.65949">
        <ele>30.6</ele>
        <time>2020-06-22T20:09:27Z</time>
      </trkpt>
      <trkpt lat="50.86382" lon="1.65956">
        <ele>30.5</ele>
        <time>2020-06-22T20:09:28Z</time>
      </trkpt>
      <trkpt lat="50.86389" lon="1.65963">
        <ele>30.4</ele>
        <time>2020-06-22T20:09:29Z</time>
      </trkpt>
      <trkpt lat="50.86397" lon="1.6597">
        <ele>30.3</ele>
        <time>2020-06-22T20:09:30Z</time>
      </trkpt>
      <trkpt lat="50.86404" lon="1.65978">
        <ele>30.2</ele>
        <time>2020-06-22T20:09:31Z</time>
      </trkpt>
      <trkpt lat="50.86411" lon="1.65986">
        <ele>30.1</ele>
        <time>2020-06-22T20:09:32Z</time>
      </trkpt>
      <trkpt lat="50.86418" lon="1.65993">
        <ele>30</ele>
        <time>2020-06-22T20:09:33Z</time>
      </trkpt>
      <trkpt lat="50.86425" lon="1.66002">
        <ele>29.9</ele>
        <time>2020-06-22T20:09:34Z</time>
      </trkpt>
      <trkpt lat="50.86432" lon="1.6601">
        <ele>29.8</ele>
        <time>2020-06-22T20:09:35Z</time>
      </trkpt>
      <trkpt lat="50.86438" lon="1.66018">
        <ele>29.7</ele>
        <time>2020-06-22T20:09:36Z</time>
      </trkpt>
      <trkpt lat="50.86445" lon="1.66025">
        <ele>29.6</ele>
        <time>2020-06-22T20:09:37Z</time>
      </trkpt>
      <trkpt lat="50.86452" lon="1.66033">
        <ele>29.5</ele>
        <time>2020-06-22T20:09:38Z</time>
      </trkpt>
      <trkpt lat="50.86458" lon="1.66041">
        <ele>29.4</ele>
        <time>2020-06-22T20:09:39Z</time>
      </trkpt>
      <trkpt lat="50.86465" lon="1.6605">
        <ele>29.3</ele>
        <time>2020-06-22T20:09:40Z</time>
      </trkpt>
      <trkpt lat="50.86471" lon="1.66058">
        <ele>29.2</ele>
        <time>2020-06-22T20:09:41Z</time>
      </trkpt>
      <trkpt lat="50.86478" lon="1.66066">
        <ele>29.1</ele>
        <time>2020-06-22T20:09:42Z</time>
      </trkpt>
      <trkpt lat="50.86484" lon="1.66073">
        <ele>29.1</ele>
        <time>2020-06-22T20:09:43Z</time>
      </trkpt>
      <trkpt lat="50.8649" lon="1.6608">
        <ele>29</ele>
        <time>2020-06-22T20:09:44Z</time>
      </trkpt>
      <trkpt lat="50.86497" lon="1.66087">
        <ele>29</ele>
        <time>2020-06-22T20:09:45Z</time>
      </trkpt>
      <trkpt lat="50.86502" lon="1.66094">
        <ele>29</ele>
        <time>2020-06-22T20:09:46Z</time>
      </trkpt>
      <trkpt lat="50.86508" lon="1.66102">
        <ele>28.9</ele>
        <time>2020-06-22T20:09:47Z</time>
      </trkpt>
      <trkpt lat="50.86513" lon="1.66109">
        <ele>28.8</ele>
        <time>2020-06-22T20:09:48Z</time>
      </trkpt>
      <trkpt lat="50.86519" lon="1.66115">
        <ele>28.8</ele>
        <time>2020-06-22T20:09:49Z</time>
      </trkpt>
      <trkpt lat="50.86523" lon="1.66122">
        <ele>28.7</ele>
        <time>2020-06-22T20:09:50Z</time>
      </trkpt>
      <trkpt lat="50.86528" lon="1.6613">
        <ele>28.7</ele>
        <time>2020-06-22T20:09:51Z</time>
      </trkpt>
      <trkpt lat="50.86532" lon="1.66138">
        <ele>28.7</ele>
        <time>2020-06-22T20:09:52Z</time>
      </trkpt>
      <trkpt lat="50.86536" lon="1.66145">
        <ele>28.6</ele>
        <time>2020-06-22T20:09:53Z</time>
      </trkpt>
      <trkpt lat="50.86539" lon="1.66153">
        <ele>28.6</ele>
        <time>2020-06-22T20:09:54Z</time>
      </trkpt>
      <trkpt lat="50.86542" lon="1.66162">
        <ele>28.6</ele>
        <time>2020-06-22T20:09:55Z</time>
      </trkpt>
      <trkpt lat="50.86545" lon="1.6617">
        <ele>28.6</ele>
        <time>2020-06-22T20:09:56Z</time>
      </trkpt>
      <trkpt lat="50.86547" lon="1.66179">
        <ele>28.6</ele>
        <time>2020-06-22T20:09:57Z</time>
      </trkpt>
      <trkpt lat="50.86549" lon="1.66188">
        <ele>28.5</ele>
        <time>2020-06-22T20:09:58Z</time>
      </trkpt>
      <trkpt lat="50.86551" lon="1.66196">
        <ele>28.5</ele>
        <time>2020-06-22T20:09:59Z</time>
      </trkpt>
      <trkpt lat="50.86553" lon="1.66204">
        <ele>28.5</ele>
        <time>2020-06-22T20:10:00Z</time>
      </trkpt>
      <trkpt lat="50.86555" lon="1.66212">
        <ele>28.5</ele>
        <time>2020-06-22T20:10:01Z</time>
      </trkpt>
      <trkpt lat="50.86556" lon="1.66219">
        <ele>28.5</ele>
        <time>2020-06-22T20:10:02Z</time>
      </trkpt>
      <trkpt lat="50.86558" lon="1.66226">
        <ele>28.5</ele>
        <time>2020-06-22T20:10:03Z</time>
      </trkpt>
      <trkpt lat="50.86559" lon="1.66233">
        <ele>28.5</ele>
        <time>2020-06-22T20:10:04Z</time>
      </trkpt>
      <trkpt lat="50.86561" lon="1.6624">
        <ele>28.5</ele>
        <time>2020-06-22T20:10:05Z</time>
      </trkpt>
      <trkpt lat="50.86562" lon="1.66247">
        <ele>28.5</ele>
        <time>2020-06-22T20:10:06Z</time>
      </trkpt>
      <trkpt lat="50.86563" lon="1.66253">
        <ele>28.5</ele>
        <time>2020-06-22T20:10:07Z</time>
      </trkpt>
      <trkpt lat="50.86565" lon="1.6626">
        <ele>28.6</ele>
        <time>2020-06-22T20:10:08Z</time>
      </trkpt>
      <trkpt lat="50.86566" lon="1.66265">
        <ele>28.6</ele>
        <time>2020-06-22T20:10:09Z</time>
      </trkpt>
      <trkpt lat="50.86567" lon="1.6627">
        <ele>28.6</ele>
        <time>2020-06-22T20:10:10Z</time>
      </trkpt>
      <trkpt lat="50.86569" lon="1.66275">
        <ele>28.6</ele>
        <time>2020-06-22T20:10:11Z</time>
      </trkpt>
      <trkpt lat="50.86569" lon="1.66277">
        <ele>28.6</ele>
        <time>2020-06-22T20:10:12Z</time>
      </trkpt>
      <trkpt lat="50.86569" lon="1.66279">
        <ele>28.6</ele>
        <time>2020-06-22T20:10:13Z</time>
      </trkpt>
      <trkpt lat="50.8657" lon="1.66281">
        <ele>28.6</ele>
        <time>2020-06-22T20:10:14Z</time>
      </trkpt>
      <trkpt lat="50.86571" lon="1.66285">
        <ele>28.6</ele>
        <time>2020-06-22T20:10:15Z</time>
      </trkpt>
      <trkpt lat="50.86571" lon="1.66287">
        <ele>28.6</ele>
        <time>2020-06-22T20:10:16Z</time>
      </trkpt>
      <trkpt lat="50.86572" lon="1.66292">
        <ele>28.6</ele>
        <time>2020-06-22T20:10:17Z</time>
      </trkpt>
      <trkpt lat="50.86572" lon="1.66294">
        <ele>28.6</ele>
        <time>2020-06-22T20:10:18Z</time>
      </trkpt>
      <trkpt lat="50.86574" lon="1.663">
        <ele>28.6</ele>
        <time>2020-06-22T20:10:19Z</time>
      </trkpt>
      <trkpt lat="50.86574" lon="1.66302">
        <ele>28.6</ele>
        <time>2020-06-22T20:10:20Z</time>
      </trkpt>
      <trkpt lat="50.86575" lon="1.66306">
        <ele>28.6</ele>
        <time>2020-06-22T20:10:21Z</time>
      </trkpt>
      <trkpt lat="50.86577" lon="1.6631">
        <ele>28.6</ele>
        <time>2020-06-22T20:10:22Z</time>
      </trkpt>
      <trkpt lat="50.86577" lon="1.66315">
        <ele>28.6</ele>
        <time>2020-06-22T20:10:23Z</time>
      </trkpt>
      <trkpt lat="50.86579" lon="1.66319">
        <ele>28.6</ele>
        <time>2020-06-22T20:10:24Z</time>
      </trkpt>
      <trkpt lat="50.86581" lon="1.66324">
        <ele>28.7</ele>
        <time>2020-06-22T20:10:25Z</time>
      </trkpt>
      <trkpt lat="50.86583" lon="1.66329">
        <ele>28.7</ele>
        <time>2020-06-22T20:10:26Z</time>
      </trkpt>
      <trkpt lat="50.86583" lon="1.66335">
        <ele>28.7</ele>
        <time>2020-06-22T20:10:27Z</time>
      </trkpt>
      <trkpt lat="50.86584" lon="1.66341">
        <ele>28.8</ele>
        <time>2020-06-22T20:10:28Z</time>
      </trkpt>
      <trkpt lat="50.86585" lon="1.66348">
        <ele>28.8</ele>
        <time>2020-06-22T20:10:29Z</time>
      </trkpt>
      <trkpt lat="50.86586" lon="1.66354">
        <ele>28.9</ele>
        <time>2020-06-22T20:10:30Z</time>
      </trkpt>
      <trkpt lat="50.86588" lon="1.6636">
        <ele>28.9</ele>
        <time>2020-06-22T20:10:31Z</time>
      </trkpt>
      <trkpt lat="50.8659" lon="1.66367">
        <ele>29</ele>
        <time>2020-06-22T20:10:32Z</time>
      </trkpt>
      <trkpt lat="50.86591" lon="1.66375">
        <ele>29.1</ele>
        <time>2020-06-22T20:10:33Z</time>
      </trkpt>
      <trkpt lat="50.86592" lon="1.66382">
        <ele>29.1</ele>
        <time>2020-06-22T20:10:34Z</time>
      </trkpt>
      <trkpt lat="50.86593" lon="1.6639">
        <ele>29.2</ele>
        <time>2020-06-22T20:10:35Z</time>
      </trkpt>
      <trkpt lat="50.86595" lon="1.66398">
        <ele>29.2</ele>
        <time>2020-06-22T20:10:36Z</time>
      </trkpt>
      <trkpt lat="50.86597" lon="1.66405">
        <ele>29.3</ele>
        <time>2020-06-22T20:10:37Z</time>
      </trkpt>
      <trkpt lat="50.86599" lon="1.66412">
        <ele>29.4</ele>
        <time>2020-06-22T20:10:38Z</time>
      </trkpt>
      <trkpt lat="50.866" lon="1.66419">
        <ele>29.4</ele>
        <time>2020-06-22T20:10:39Z</time>
      </trkpt>
      <trkpt lat="50.86602" lon="1.66427">
        <ele>29.5</ele>
        <time>2020-06-22T20:10:40Z</time>
      </trkpt>
      <trkpt lat="50.86604" lon="1.66433">
        <ele>29.5</ele>
        <time>2020-06-22T20:10:41Z</time>
      </trkpt>
      <trkpt lat="50.86606" lon="1.66441">
        <ele>29.6</ele>
        <time>2020-06-22T20:10:42Z</time>
      </trkpt>
      <trkpt lat="50.86608" lon="1.66448">
        <ele>29.6</ele>
        <time>2020-06-22T20:10:43Z</time>
      </trkpt>
      <trkpt lat="50.86611" lon="1.66456">
        <ele>29.7</ele>
        <time>2020-06-22T20:10:44Z</time>
      </trkpt>
      <trkpt lat="50.86613" lon="1.66463">
        <ele>29.8</ele>
        <time>2020-06-22T20:10:45Z</time>
      </trkpt>
      <trkpt lat="50.86615" lon="1.66471">
        <ele>29.8</ele>
        <time>2020-06-22T20:10:46Z</time>
      </trkpt>
      <trkpt lat="50.86617" lon="1.66479">
        <ele>29.9</ele>
        <time>2020-06-22T20:10:47Z</time>
      </trkpt>
      <trkpt lat="50.86619" lon="1.66486">
        <ele>30</ele>
        <time>2020-06-22T20:10:48Z</time>
      </trkpt>
      <trkpt lat="50.86621" lon="1.66494">
        <ele>30.1</ele>
        <time>2020-06-22T20:10:49Z</time>
      </trkpt>
      <trkpt lat="50.86623" lon="1.66502">
        <ele>30.2</ele>
        <time>2020-06-22T20:10:50Z</time>
      </trkpt>
      <trkpt lat="50.86626" lon="1.66509">
        <ele>30.3</ele>
        <time>2020-06-22T20:10:51Z</time>
      </trkpt>
      <trkpt lat="50.86629" lon="1.66518">
        <ele>30.4</ele>
        <time>2020-06-22T20:10:52Z</time>
      </trkpt>
      <trkpt lat="50.86632" lon="1.66526">
        <ele>30.5</ele>
        <time>2020-06-22T20:10:53Z</time>
      </trkpt>
      <trkpt lat="50.86635" lon="1.66534">
        <ele>30.6</ele>
        <time>2020-06-22T20:10:54Z</time>
      </trkpt>
      <trkpt lat="50.86637" lon="1.66541">
        <ele>30.6</ele>
        <time>2020-06-22T20:10:55Z</time>
      </trkpt>
      <trkpt lat="50.8664" lon="1.66549">
        <ele>30.7</ele>
        <time>2020-06-22T20:10:56Z</time>
      </trkpt>
      <trkpt lat="50.86643" lon="1.66557">
        <ele>30.8</ele>
        <time>2020-06-22T20:10:57Z</time>
      </trkpt>
      <trkpt lat="50.86645" lon="1.66565">
        <ele>30.9</ele>
        <time>2020-06-22T20:10:58Z</time>
      </trkpt>
      <trkpt lat="50.86648" lon="1.66574">
        <ele>31</ele>
        <time>2020-06-22T20:10:59Z</time>
      </trkpt>
      <trkpt lat="50.86652" lon="1.66582">
        <ele>31.1</ele>
        <time>2020-06-22T20:11:00Z</time>
      </trkpt>
      <trkpt lat="50.86656" lon="1.6659">
        <ele>31.1</ele>
        <time>2020-06-22T20:11:01Z</time>
      </trkpt>
      <trkpt lat="50.86659" lon="1.66598">
        <ele>31.1</ele>
        <time>2020-06-22T20:11:02Z</time>
      </trkpt>
      <trkpt lat="50.86663" lon="1.66606">
        <ele>31.1</ele>
        <time>2020-06-22T20:11:03Z</time>
      </trkpt>
      <trkpt lat="50.86666" lon="1.66614">
        <ele>31.2</ele>
        <time>2020-06-22T20:11:04Z</time>
      </trkpt>
      <trkpt lat="50.86669" lon="1.66621">
        <ele>31.2</ele>
        <time>2020-06-22T20:11:05Z</time>
      </trkpt>
      <trkpt lat="50.86672" lon="1.66627">
        <ele>31.1</ele>
        <time>2020-06-22T20:11:06Z</time>
      </trkpt>
      <trkpt lat="50.86674" lon="1.66632">
        <ele>31.1</ele>
        <time>2020-06-22T20:11:07Z</time>
      </trkpt>
      <trkpt lat="50.86677" lon="1.6664">
        <ele>31</ele>
        <time>2020-06-22T20:11:08Z</time>
      </trkpt>
      <trkpt lat="50.8668" lon="1.66647">
        <ele>31</ele>
        <time>2020-06-22T20:11:09Z</time>
      </trkpt>
      <trkpt lat="50.86683" lon="1.66654">
        <ele>30.9</ele>
        <time>2020-06-22T20:11:10Z</time>
      </trkpt>
      <trkpt lat="50.86686" lon="1.66662">
        <ele>30.9</ele>
        <time>2020-06-22T20:11:11Z</time>
      </trkpt>
      <trkpt lat="50.86689" lon="1.66668">
        <ele>30.8</ele>
        <time>2020-06-22T20:11:12Z</time>
      </trkpt>
      <trkpt lat="50.8669" lon="1.66674">
        <ele>30.8</ele>
        <time>2020-06-22T20:11:13Z</time>
      </trkpt>
      <trkpt lat="50.86692" lon="1.6668">
        <ele>30.7</ele>
        <time>2020-06-22T20:11:14Z</time>
      </trkpt>
      <trkpt lat="50.86694" lon="1.66687">
        <ele>30.7</ele>
        <time>2020-06-22T20:11:15Z</time>
      </trkpt>
      <trkpt lat="50.86696" lon="1.66694">
        <ele>30.7</ele>
        <time>2020-06-22T20:11:16Z</time>
      </trkpt>
      <trkpt lat="50.86698" lon="1.66703">
        <ele>30.6</ele>
        <time>2020-06-22T20:11:17Z</time>
      </trkpt>
      <trkpt lat="50.86701" lon="1.66709">
        <ele>30.5</ele>
        <time>2020-06-22T20:11:18Z</time>
      </trkpt>
      <trkpt lat="50.86702" lon="1.66718">
        <ele>30.5</ele>
        <time>2020-06-22T20:11:19Z</time>
      </trkpt>
      <trkpt lat="50.86704" lon="1.66726">
        <ele>30.4</ele>
        <time>2020-06-22T20:11:20Z</time>
      </trkpt>
      <trkpt lat="50.86704" lon="1.66733">
        <ele>30.4</ele>
        <time>2020-06-22T20:11:21Z</time>
      </trkpt>
      <trkpt lat="50.86706" lon="1.6674">
        <ele>30.3</ele>
        <time>2020-06-22T20:11:22Z</time>
      </trkpt>
      <trkpt lat="50.86707" lon="1.66747">
        <ele>30.3</ele>
        <time>2020-06-22T20:11:23Z</time>
      </trkpt>
      <trkpt lat="50.86709" lon="1.66753">
        <ele>30.3</ele>
        <time>2020-06-22T20:11:24Z</time>
      </trkpt>
      <trkpt lat="50.86711" lon="1.66759">
        <ele>30.3</ele>
        <time>2020-06-22T20:11:25Z</time>
      </trkpt>
      <trkpt lat="50.86712" lon="1.66767">
        <ele>30.2</ele>
        <time>2020-06-22T20:11:26Z</time>
      </trkpt>
      <trkpt lat="50.86713" lon="1.66776">
        <ele>30.2</ele>
        <time>2020-06-22T20:11:27Z</time>
      </trkpt>
      <trkpt lat="50.86714" lon="1.66782">
        <ele>30.2</ele>
        <time>2020-06-22T20:11:28Z</time>
      </trkpt>
      <trkpt lat="50.86714" lon="1.66791">
        <ele>30.2</ele>
        <time>2020-06-22T20:11:29Z</time>
      </trkpt>
      <trkpt lat="50.86715" lon="1.66798">
        <ele>30.1</ele>
        <time>2020-06-22T20:11:30Z</time>
      </trkpt>
      <trkpt lat="50.86715" lon="1.66804">
        <ele>30.1</ele>
        <time>2020-06-22T20:11:31Z</time>
      </trkpt>
      <trkpt lat="50.86715" lon="1.66811">
        <ele>30.1</ele>
        <time>2020-06-22T20:11:32Z</time>
      </trkpt>
      <trkpt lat="50.86714" lon="1.66819">
        <ele>30</ele>
        <time>2020-06-22T20:11:33Z</time>
      </trkpt>
      <trkpt lat="50.86713" lon="1.66826">
        <ele>30</ele>
        <time>2020-06-22T20:11:34Z</time>
      </trkpt>
      <trkpt lat="50.86712" lon="1.66835">
        <ele>30</ele>
        <time>2020-06-22T20:11:35Z</time>
      </trkpt>
      <trkpt lat="50.86711" lon="1.66843">
        <ele>30</ele>
        <time>2020-06-22T20:11:36Z</time>
      </trkpt>
      <trkpt lat="50.8671" lon="1.66852">
        <ele>29.9</ele>
        <time>2020-06-22T20:11:37Z</time>
      </trkpt>
      <trkpt lat="50.8671" lon="1.66861">
        <ele>29.9</ele>
        <time>2020-06-22T20:11:38Z</time>
      </trkpt>
      <trkpt lat="50.86709" lon="1.66868">
        <ele>29.9</ele>
        <time>2020-06-22T20:11:39Z</time>
      </trkpt>
      <trkpt lat="50.86708" lon="1.66875">
        <ele>29.9</ele>
        <time>2020-06-22T20:11:40Z</time>
      </trkpt>
      <trkpt lat="50.86707" lon="1.66883">
        <ele>29.9</ele>
        <time>2020-06-22T20:11:41Z</time>
      </trkpt>
      <trkpt lat="50.86707" lon="1.66891">
        <ele>29.8</ele>
        <time>2020-06-22T20:11:42Z</time>
      </trkpt>
      <trkpt lat="50.86706" lon="1.66899">
        <ele>29.8</ele>
        <time>2020-06-22T20:11:43Z</time>
      </trkpt>
      <trkpt lat="50.86705" lon="1.66908">
        <ele>29.8</ele>
        <time>2020-06-22T20:11:44Z</time>
      </trkpt>
      <trkpt lat="50.86704" lon="1.66918">
        <ele>29.8</ele>
        <time>2020-06-22T20:11:45Z</time>
      </trkpt>
      <trkpt lat="50.86704" lon="1.66927">
        <ele>29.8</ele>
        <time>2020-06-22T20:11:46Z</time>
      </trkpt>
      <trkpt lat="50.86704" lon="1.66935">
        <ele>29.8</ele>
        <time>2020-06-22T20:11:47Z</time>
      </trkpt>
      <trkpt lat="50.86703" lon="1.66945">
        <ele>29.8</ele>
        <time>2020-06-22T20:11:48Z</time>
      </trkpt>
      <trkpt lat="50.86702" lon="1.66954">
        <ele>29.8</ele>
        <time>2020-06-22T20:11:49Z</time>
      </trkpt>
      <trkpt lat="50.86701" lon="1.66963">
        <ele>29.8</ele>
        <time>2020-06-22T20:11:50Z</time>
      </trkpt>
      <trkpt lat="50.867" lon="1.66972">
        <ele>29.9</ele>
        <time>2020-06-22T20:11:51Z</time>
      </trkpt>
      <trkpt lat="50.867" lon="1.66981">
        <ele>29.9</ele>
        <time>2020-06-22T20:11:52Z</time>
      </trkpt>
      <trkpt lat="50.86698" lon="1.6699">
        <ele>30</ele>
        <time>2020-06-22T20:11:53Z</time>
      </trkpt>
      <trkpt lat="50.86698" lon="1.66999">
        <ele>30</ele>
        <time>2020-06-22T20:11:54Z</time>
      </trkpt>
      <trkpt lat="50.86698" lon="1.67008">
        <ele>30.1</ele>
        <time>2020-06-22T20:11:55Z</time>
      </trkpt>
      <trkpt lat="50.86697" lon="1.67017">
        <ele>30.1</ele>
        <time>2020-06-22T20:11:56Z</time>
      </trkpt>
      <trkpt lat="50.86697" lon="1.67026">
        <ele>30.2</ele>
        <time>2020-06-22T20:11:57Z</time>
      </trkpt>
      <trkpt lat="50.86696" lon="1.67033">
        <ele>30.2</ele>
        <time>2020-06-22T20:11:58Z</time>
      </trkpt>
      <trkpt lat="50.86696" lon="1.67042">
        <ele>30.3</ele>
        <time>2020-06-22T20:11:59Z</time>
      </trkpt>
      <trkpt lat="50.86695" lon="1.67049">
        <ele>30.3</ele>
        <time>2020-06-22T20:12:00Z</time>
      </trkpt>
      <trkpt lat="50.86695" lon="1.67058">
        <ele>30.4</ele>
        <time>2020-06-22T20:12:01Z</time>
      </trkpt>
      <trkpt lat="50.86695" lon="1.67066">
        <ele>30.5</ele>
        <time>2020-06-22T20:12:02Z</time>
      </trkpt>
      <trkpt lat="50.86695" lon="1.67073">
        <ele>30.6</ele>
        <time>2020-06-22T20:12:03Z</time>
      </trkpt>
      <trkpt lat="50.86694" lon="1.67079">
        <ele>30.7</ele>
        <time>2020-06-22T20:12:04Z</time>
      </trkpt>
      <trkpt lat="50.86694" lon="1.67084">
        <ele>30.8</ele>
        <time>2020-06-22T20:12:05Z</time>
      </trkpt>
      <trkpt lat="50.86693" lon="1.6709">
        <ele>30.9</ele>
        <time>2020-06-22T20:12:06Z</time>
      </trkpt>
      <trkpt lat="50.86693" lon="1.67096">
        <ele>31</ele>
        <time>2020-06-22T20:12:07Z</time>
      </trkpt>
      <trkpt lat="50.86693" lon="1.67101">
        <ele>31.1</ele>
        <time>2020-06-22T20:12:08Z</time>
      </trkpt>
      <trkpt lat="50.86692" lon="1.67106">
        <ele>31.2</ele>
        <time>2020-06-22T20:12:09Z</time>
      </trkpt>
      <trkpt lat="50.86691" lon="1.6711">
        <ele>31.3</ele>
        <time>2020-06-22T20:12:10Z</time>
      </trkpt>
      <trkpt lat="50.8669" lon="1.67116">
        <ele>31.4</ele>
        <time>2020-06-22T20:12:11Z</time>
      </trkpt>
      <trkpt lat="50.86687" lon="1.67119">
        <ele>31.4</ele>
        <time>2020-06-22T20:12:12Z</time>
      </trkpt>
      <trkpt lat="50.86685" lon="1.67122">
        <ele>31.4</ele>
        <time>2020-06-22T20:12:13Z</time>
      </trkpt>
      <trkpt lat="50.8668" lon="1.67124">
        <ele>31.4</ele>
        <time>2020-06-22T20:12:14Z</time>
      </trkpt>
      <trkpt lat="50.86676" lon="1.67124">
        <ele>31.3</ele>
        <time>2020-06-22T20:12:15Z</time>
      </trkpt>
      <trkpt lat="50.86671" lon="1.67124">
        <ele>31.3</ele>
        <time>2020-06-22T20:12:16Z</time>
      </trkpt>
      <trkpt lat="50.86666" lon="1.67124">
        <ele>31.2</ele>
        <time>2020-06-22T20:12:17Z</time>
      </trkpt>
      <trkpt lat="50.86661" lon="1.67125">
        <ele>31.2</ele>
        <time>2020-06-22T20:12:18Z</time>
      </trkpt>
      <trkpt lat="50.86658" lon="1.67126">
        <ele>31.2</ele>
        <time>2020-06-22T20:12:19Z</time>
      </trkpt>
      <trkpt lat="50.86653" lon="1.67127">
        <ele>31.1</ele>
        <time>2020-06-22T20:12:20Z</time>
      </trkpt>
      <trkpt lat="50.86648" lon="1.67128">
        <ele>31.1</ele>
        <time>2020-06-22T20:12:21Z</time>
      </trkpt>
      <trkpt lat="50.86643" lon="1.6713">
        <ele>31</ele>
        <time>2020-06-22T20:12:22Z</time>
      </trkpt>
      <trkpt lat="50.86637" lon="1.67132">
        <ele>31</ele>
        <time>2020-06-22T20:12:23Z</time>
      </trkpt>
      <trkpt lat="50.86632" lon="1.67134">
        <ele>31</ele>
        <time>2020-06-22T20:12:24Z</time>
      </trkpt>
      <trkpt lat="50.86627" lon="1.67135">
        <ele>30.9</ele>
        <time>2020-06-22T20:12:25Z</time>
      </trkpt>
      <trkpt lat="50.86621" lon="1.67137">
        <ele>30.9</ele>
        <time>2020-06-22T20:12:26Z</time>
      </trkpt>
      <trkpt lat="50.86616" lon="1.67139">
        <ele>30.9</ele>
        <time>2020-06-22T20:12:27Z</time>
      </trkpt>
      <trkpt lat="50.8661" lon="1.67141">
        <ele>30.9</ele>
        <time>2020-06-22T20:12:28Z</time>
      </trkpt>
      <trkpt lat="50.86604" lon="1.67142">
        <ele>30.9</ele>
        <time>2020-06-22T20:12:29Z</time>
      </trkpt>
      <trkpt lat="50.86597" lon="1.67145">
        <ele>30.9</ele>
        <time>2020-06-22T20:12:30Z</time>
      </trkpt>
      <trkpt lat="50.86591" lon="1.67147">
        <ele>30.8</ele>
        <time>2020-06-22T20:12:31Z</time>
      </trkpt>
      <trkpt lat="50.86584" lon="1.67149">
        <ele>30.8</ele>
        <time>2020-06-22T20:12:32Z</time>
      </trkpt>
      <trkpt lat="50.86578" lon="1.67151">
        <ele>30.7</ele>
        <time>2020-06-22T20:12:33Z</time>
      </trkpt>
      <trkpt lat="50.86572" lon="1.67153">
        <ele>30.7</ele>
        <time>2020-06-22T20:12:34Z</time>
      </trkpt>
      <trkpt lat="50.86567" lon="1.67155">
        <ele>30.6</ele>
        <time>2020-06-22T20:12:35Z</time>
      </trkpt>
      <trkpt lat="50.86561" lon="1.67158">
        <ele>30.6</ele>
        <time>2020-06-22T20:12:36Z</time>
      </trkpt>
      <trkpt lat="50.86555" lon="1.6716">
        <ele>30.6</ele>
        <time>2020-06-22T20:12:37Z</time>
      </trkpt>
      <trkpt lat="50.86548" lon="1.67162">
        <ele>30.6</ele>
        <time>2020-06-22T20:12:38Z</time>
      </trkpt>
      <trkpt lat="50.86542" lon="1.67165">
        <ele>30.6</ele>
        <time>2020-06-22T20:12:39Z</time>
      </trkpt>
      <trkpt lat="50.86536" lon="1.67167">
        <ele>30.6</ele>
        <time>2020-06-22T20:12:40Z</time>
      </trkpt>
      <trkpt lat="50.8653" lon="1.67171">
        <ele>30.6</ele>
        <time>2020-06-22T20:12:41Z</time>
      </trkpt>
      <trkpt lat="50.86524" lon="1.67173">
        <ele>30.6</ele>
        <time>2020-06-22T20:12:42Z</time>
      </trkpt>
      <trkpt lat="50.86518" lon="1.67176">
        <ele>30.6</ele>
        <time>2020-06-22T20:12:43Z</time>
      </trkpt>
      <trkpt lat="50.86512" lon="1.67179">
        <ele>30.6</ele>
        <time>2020-06-22T20:12:44Z</time>
      </trkpt>
      <trkpt lat="50.86506" lon="1.67181">
        <ele>30.6</ele>
        <time>2020-06-22T20:12:45Z</time>
      </trkpt>
      <trkpt lat="50.86501" lon="1.67185">
        <ele>30.6</ele>
        <time>2020-06-22T20:12:46Z</time>
      </trkpt>
      <trkpt lat="50.86494" lon="1.67187">
        <ele>30.7</ele>
        <time>2020-06-22T20:12:47Z</time>
      </trkpt>
      <trkpt lat="50.86488" lon="1.67188">
        <ele>30.7</ele>
        <time>2020-06-22T20:12:48Z</time>
      </trkpt>
      <trkpt lat="50.86482" lon="1.67191">
        <ele>30.7</ele>
        <time>2020-06-22T20:12:49Z</time>
      </trkpt>
      <trkpt lat="50.86476" lon="1.67193">
        <ele>30.8</ele>
        <time>2020-06-22T20:12:50Z</time>
      </trkpt>
      <trkpt lat="50.8647" lon="1.67195">
        <ele>30.8</ele>
        <time>2020-06-22T20:12:51Z</time>
      </trkpt>
      <trkpt lat="50.86466" lon="1.67196">
        <ele>30.9</ele>
        <time>2020-06-22T20:12:52Z</time>
      </trkpt>
      <trkpt lat="50.8646" lon="1.67199">
        <ele>30.9</ele>
        <time>2020-06-22T20:12:53Z</time>
      </trkpt>
      <trkpt lat="50.86454" lon="1.67203">
        <ele>31</ele>
        <time>2020-06-22T20:12:54Z</time>
      </trkpt>
      <trkpt lat="50.86448" lon="1.67205">
        <ele>31.1</ele>
        <time>2020-06-22T20:12:55Z</time>
      </trkpt>
      <trkpt lat="50.86441" lon="1.67208">
        <ele>31.2</ele>
        <time>2020-06-22T20:12:56Z</time>
      </trkpt>
      <trkpt lat="50.86435" lon="1.67211">
        <ele>31.3</ele>
        <time>2020-06-22T20:12:57Z</time>
      </trkpt>
      <trkpt lat="50.86431" lon="1.67213">
        <ele>31.4</ele>
        <time>2020-06-22T20:12:58Z</time>
      </trkpt>
      <trkpt lat="50.86425" lon="1.67216">
        <ele>31.5</ele>
        <time>2020-06-22T20:12:59Z</time>
      </trkpt>
      <trkpt lat="50.86421" lon="1.67218">
        <ele>31.6</ele>
        <time>2020-06-22T20:13:00Z</time>
      </trkpt>
      <trkpt lat="50.86416" lon="1.6722">
        <ele>31.7</ele>
        <time>2020-06-22T20:13:01Z</time>
      </trkpt>
      <trkpt lat="50.86411" lon="1.67223">
        <ele>31.8</ele>
        <time>2020-06-22T20:13:02Z</time>
      </trkpt>
      <trkpt lat="50.86407" lon="1.67226">
        <ele>31.9</ele>
        <time>2020-06-22T20:13:03Z</time>
      </trkpt>
      <trkpt lat="50.86402" lon="1.67228">
        <ele>32</ele>
        <time>2020-06-22T20:13:04Z</time>
      </trkpt>
      <trkpt lat="50.86397" lon="1.67231">
        <ele>32.1</ele>
        <time>2020-06-22T20:13:05Z</time>
      </trkpt>
      <trkpt lat="50.86393" lon="1.67234">
        <ele>32.2</ele>
        <time>2020-06-22T20:13:06Z</time>
      </trkpt>
      <trkpt lat="50.86388" lon="1.67237">
        <ele>32.3</ele>
        <time>2020-06-22T20:13:07Z</time>
      </trkpt>
      <trkpt lat="50.86382" lon="1.67241">
        <ele>32.4</ele>
        <time>2020-06-22T20:13:08Z</time>
      </trkpt>
      <trkpt lat="50.86377" lon="1.67244">
        <ele>32.5</ele>
        <time>2020-06-22T20:13:09Z</time>
      </trkpt>
      <trkpt lat="50.86373" lon="1.67249">
        <ele>32.6</ele>
        <time>2020-06-22T20:13:10Z</time>
      </trkpt>
      <trkpt lat="50.86367" lon="1.67252">
        <ele>32.6</ele>
        <time>2020-06-22T20:13:11Z</time>
      </trkpt>
      <trkpt lat="50.86362" lon="1.67254">
        <ele>32.7</ele>
        <time>2020-06-22T20:13:12Z</time>
      </trkpt>
      <trkpt lat="50.86357" lon="1.67258">
        <ele>32.8</ele>
        <time>2020-06-22T20:13:13Z</time>
      </trkpt>
      <trkpt lat="50.86352" lon="1.67262">
        <ele>32.9</ele>
        <time>2020-06-22T20:13:14Z</time>
      </trkpt>
      <trkpt lat="50.86347" lon="1.67265">
        <ele>32.9</ele>
        <time>2020-06-22T20:13:15Z</time>
      </trkpt>
      <trkpt lat="50.86342" lon="1.67268">
        <ele>33</ele>
        <time>2020-06-22T20:13:16Z</time>
      </trkpt>
      <trkpt lat="50.86337" lon="1.67272">
        <ele>33</ele>
        <time>2020-06-22T20:13:17Z</time>
      </trkpt>
      <trkpt lat="50.86333" lon="1.67275">
        <ele>33</ele>
        <time>2020-06-22T20:13:18Z</time>
      </trkpt>
      <trkpt lat="50.86328" lon="1.67278">
        <ele>33</ele>
        <time>2020-06-22T20:13:19Z</time>
      </trkpt>
      <trkpt lat="50.86323" lon="1.67281">
        <ele>33</ele>
        <time>2020-06-22T20:13:20Z</time>
      </trkpt>
      <trkpt lat="50.86319" lon="1.67285">
        <ele>33</ele>
        <time>2020-06-22T20:13:21Z</time>
      </trkpt>
      <trkpt lat="50.86315" lon="1.67287">
        <ele>32.9</ele>
        <time>2020-06-22T20:13:22Z</time>
      </trkpt>
      <trkpt lat="50.86309" lon="1.67292">
        <ele>32.8</ele>
        <time>2020-06-22T20:13:23Z</time>
      </trkpt>
      <trkpt lat="50.86303" lon="1.67297">
        <ele>32.7</ele>
        <time>2020-06-22T20:13:24Z</time>
      </trkpt>
      <trkpt lat="50.86297" lon="1.67302">
        <ele>32.5</ele>
        <time>2020-06-22T20:13:25Z</time>
      </trkpt>
      <trkpt lat="50.8629" lon="1.67307">
        <ele>32.4</ele>
        <time>2020-06-22T20:13:26Z</time>
      </trkpt>
      <trkpt lat="50.86282" lon="1.67312">
        <ele>32.2</ele>
        <time>2020-06-22T20:13:27Z</time>
      </trkpt>
      <trkpt lat="50.86275" lon="1.67316">
        <ele>32</ele>
        <time>2020-06-22T20:13:28Z</time>
      </trkpt>
      <trkpt lat="50.86269" lon="1.6732">
        <ele>31.9</ele>
        <time>2020-06-22T20:13:29Z</time>
      </trkpt>
      <trkpt lat="50.86263" lon="1.67324">
        <ele>31.7</ele>
        <time>2020-06-22T20:13:30Z</time>
      </trkpt>
      <trkpt lat="50.86256" lon="1.67327">
        <ele>31.6</ele>
        <time>2020-06-22T20:13:31Z</time>
      </trkpt>
      <trkpt lat="50.8625" lon="1.6733">
        <ele>31.5</ele>
        <time>2020-06-22T20:13:32Z</time>
      </trkpt>
      <trkpt lat="50.86244" lon="1.67333">
        <ele>31.4</ele>
        <time>2020-06-22T20:13:33Z</time>
      </trkpt>
      <trkpt lat="50.86239" lon="1.67335">
        <ele>31.4</ele>
        <time>2020-06-22T20:13:34Z</time>
      </trkpt>
      <trkpt lat="50.86233" lon="1.67337">
        <ele>31.3</ele>
        <time>2020-06-22T20:13:35Z</time>
      </trkpt>
      <trkpt lat="50.86227" lon="1.67338">
        <ele>31.2</ele>
        <time>2020-06-22T20:13:36Z</time>
      </trkpt>
      <trkpt lat="50.8622" lon="1.6734">
        <ele>31.2</ele>
        <time>2020-06-22T20:13:37Z</time>
      </trkpt>
      <trkpt lat="50.86214" lon="1.67341">
        <ele>31.1</ele>
        <time>2020-06-22T20:13:38Z</time>
      </trkpt>
      <trkpt lat="50.86207" lon="1.67342">
        <ele>31.1</ele>
        <time>2020-06-22T20:13:39Z</time>
      </trkpt>
      <trkpt lat="50.862" lon="1.67341">
        <ele>31.1</ele>
        <time>2020-06-22T20:13:40Z</time>
      </trkpt>
      <trkpt lat="50.86194" lon="1.67342">
        <ele>31.1</ele>
        <time>2020-06-22T20:13:41Z</time>
      </trkpt>
      <trkpt lat="50.86187" lon="1.67342">
        <ele>30.9</ele>
        <time>2020-06-22T20:13:42Z</time>
      </trkpt>
      <trkpt lat="50.86181" lon="1.67342">
        <ele>30.7</ele>
        <time>2020-06-22T20:13:43Z</time>
      </trkpt>
      <trkpt lat="50.86175" lon="1.67341">
        <ele>30.6</ele>
        <time>2020-06-22T20:13:44Z</time>
      </trkpt>
      <trkpt lat="50.86168" lon="1.67342">
        <ele>30.5</ele>
        <time>2020-06-22T20:13:45Z</time>
      </trkpt>
      <trkpt lat="50.86163" lon="1.67342">
        <ele>30.4</ele>
        <time>2020-06-22T20:13:46Z</time>
      </trkpt>
      <trkpt lat="50.86157" lon="1.67342">
        <ele>30.3</ele>
        <time>2020-06-22T20:13:47Z</time>
      </trkpt>
      <trkpt lat="50.86152" lon="1.67343">
        <ele>30.3</ele>
        <time>2020-06-22T20:13:48Z</time>
      </trkpt>
      <trkpt lat="50.86146" lon="1.67344">
        <ele>30.3</ele>
        <time>2020-06-22T20:13:49Z</time>
      </trkpt>
      <trkpt lat="50.86141" lon="1.67345">
        <ele>30.2</ele>
        <time>2020-06-22T20:13:50Z</time>
      </trkpt>
      <trkpt lat="50.86135" lon="1.67346">
        <ele>30.2</ele>
        <time>2020-06-22T20:13:51Z</time>
      </trkpt>
      <trkpt lat="50.86129" lon="1.67348">
        <ele>30.2</ele>
        <time>2020-06-22T20:13:52Z</time>
      </trkpt>
      <trkpt lat="50.86124" lon="1.6735">
        <ele>30.2</ele>
        <time>2020-06-22T20:13:53Z</time>
      </trkpt>
      <trkpt lat="50.86117" lon="1.67352">
        <ele>30.2</ele>
        <time>2020-06-22T20:13:54Z</time>
      </trkpt>
      <trkpt lat="50.86112" lon="1.67355">
        <ele>30.2</ele>
        <time>2020-06-22T20:13:55Z</time>
      </trkpt>
      <trkpt lat="50.86106" lon="1.67359">
        <ele>30.2</ele>
        <time>2020-06-22T20:13:56Z</time>
      </trkpt>
      <trkpt lat="50.86099" lon="1.67359">
        <ele>30.2</ele>
        <time>2020-06-22T20:13:57Z</time>
      </trkpt>
      <trkpt lat="50.86093" lon="1.67362">
        <ele>30.2</ele>
        <time>2020-06-22T20:13:58Z</time>
      </trkpt>
      <trkpt lat="50.86087" lon="1.67365">
        <ele>30.2</ele>
        <time>2020-06-22T20:13:59Z</time>
      </trkpt>
      <trkpt lat="50.86081" lon="1.67368">
        <ele>30.2</ele>
        <time>2020-06-22T20:14:00Z</time>
      </trkpt>
      <trkpt lat="50.86075" lon="1.67372">
        <ele>30.2</ele>
        <time>2020-06-22T20:14:01Z</time>
      </trkpt>
      <trkpt lat="50.86069" lon="1.67375">
        <ele>30.2</ele>
        <time>2020-06-22T20:14:02Z</time>
      </trkpt>
      <trkpt lat="50.86063" lon="1.67378">
        <ele>30.2</ele>
        <time>2020-06-22T20:14:03Z</time>
      </trkpt>
      <trkpt lat="50.86056" lon="1.67381">
        <ele>30.2</ele>
        <time>2020-06-22T20:14:04Z</time>
      </trkpt>
      <trkpt lat="50.8605" lon="1.67385">
        <ele>30.2</ele>
        <time>2020-06-22T20:14:05Z</time>
      </trkpt>
      <trkpt lat="50.86044" lon="1.67387">
        <ele>30.1</ele>
        <time>2020-06-22T20:14:06Z</time>
      </trkpt>
      <trkpt lat="50.86038" lon="1.6739">
        <ele>30.1</ele>
        <time>2020-06-22T20:14:07Z</time>
      </trkpt>
      <trkpt lat="50.86031" lon="1.67393">
        <ele>30.1</ele>
        <time>2020-06-22T20:14:08Z</time>
      </trkpt>
      <trkpt lat="50.86025" lon="1.67396">
        <ele>30.2</ele>
        <time>2020-06-22T20:14:09Z</time>
      </trkpt>
      <trkpt lat="50.86019" lon="1.67399">
        <ele>30.2</ele>
        <time>2020-06-22T20:14:10Z</time>
      </trkpt>
      <trkpt lat="50.86013" lon="1.67402">
        <ele>30.2</ele>
        <time>2020-06-22T20:14:11Z</time>
      </trkpt>
      <trkpt lat="50.86008" lon="1.67405">
        <ele>30.2</ele>
        <time>2020-06-22T20:14:12Z</time>
      </trkpt>
      <trkpt lat="50.86002" lon="1.67408">
        <ele>30.2</ele>
        <time>2020-06-22T20:14:13Z</time>
      </trkpt>
      <trkpt lat="50.85996" lon="1.67411">
        <ele>30.2</ele>
        <time>2020-06-22T20:14:14Z</time>
      </trkpt>
      <trkpt lat="50.8599" lon="1.67414">
        <ele>30.3</ele>
        <time>2020-06-22T20:14:15Z</time>
      </trkpt>
      <trkpt lat="50.85983" lon="1.67416">
        <ele>30.3</ele>
        <time>2020-06-22T20:14:16Z</time>
      </trkpt>
      <trkpt lat="50.85978" lon="1.67419">
        <ele>30.3</ele>
        <time>2020-06-22T20:14:17Z</time>
      </trkpt>
      <trkpt lat="50.85972" lon="1.67421">
        <ele>30.3</ele>
        <time>2020-06-22T20:14:18Z</time>
      </trkpt>
      <trkpt lat="50.85966" lon="1.67424">
        <ele>30.3</ele>
        <time>2020-06-22T20:14:19Z</time>
      </trkpt>
      <trkpt lat="50.8596" lon="1.67427">
        <ele>30.4</ele>
        <time>2020-06-22T20:14:20Z</time>
      </trkpt>
      <trkpt lat="50.85953" lon="1.67429">
        <ele>30.4</ele>
        <time>2020-06-22T20:14:21Z</time>
      </trkpt>
      <trkpt lat="50.85947" lon="1.67432">
        <ele>30.4</ele>
        <time>2020-06-22T20:14:22Z</time>
      </trkpt>
      <trkpt lat="50.85942" lon="1.67434">
        <ele>30.4</ele>
        <time>2020-06-22T20:14:23Z</time>
      </trkpt>
      <trkpt lat="50.85936" lon="1.67436">
        <ele>30.4</ele>
        <time>2020-06-22T20:14:24Z</time>
      </trkpt>
      <trkpt lat="50.85931" lon="1.67438">
        <ele>30.3</ele>
        <time>2020-06-22T20:14:25Z</time>
      </trkpt>
      <trkpt lat="50.85927" lon="1.6744">
        <ele>30.3</ele>
        <time>2020-06-22T20:14:26Z</time>
      </trkpt>
      <trkpt lat="50.85922" lon="1.67442">
        <ele>30.3</ele>
        <time>2020-06-22T20:14:27Z</time>
      </trkpt>
      <trkpt lat="50.85917" lon="1.67444">
        <ele>30.4</ele>
        <time>2020-06-22T20:14:28Z</time>
      </trkpt>
      <trkpt lat="50.85912" lon="1.67446">
        <ele>30.4</ele>
        <time>2020-06-22T20:14:29Z</time>
      </trkpt>
      <trkpt lat="50.85907" lon="1.67448">
        <ele>30.4</ele>
        <time>2020-06-22T20:14:30Z</time>
      </trkpt>
      <trkpt lat="50.85902" lon="1.67449">
        <ele>30.5</ele>
        <time>2020-06-22T20:14:31Z</time>
      </trkpt>
      <trkpt lat="50.85897" lon="1.6745">
        <ele>30.5</ele>
        <time>2020-06-22T20:14:32Z</time>
      </trkpt>
      <trkpt lat="50.8589" lon="1.67451">
        <ele>30.5</ele>
        <time>2020-06-22T20:14:33Z</time>
      </trkpt>
      <trkpt lat="50.85884" lon="1.67454">
        <ele>30.6</ele>
        <time>2020-06-22T20:14:34Z</time>
      </trkpt>
      <trkpt lat="50.85879" lon="1.67455">
        <ele>30.6</ele>
        <time>2020-06-22T20:14:35Z</time>
      </trkpt>
      <trkpt lat="50.85873" lon="1.67456">
        <ele>30.7</ele>
        <time>2020-06-22T20:14:36Z</time>
      </trkpt>
      <trkpt lat="50.85868" lon="1.67457">
        <ele>30.7</ele>
        <time>2020-06-22T20:14:37Z</time>
      </trkpt>
      <trkpt lat="50.85862" lon="1.67458">
        <ele>30.8</ele>
        <time>2020-06-22T20:14:38Z</time>
      </trkpt>
      <trkpt lat="50.85859" lon="1.6746">
        <ele>30.8</ele>
        <time>2020-06-22T20:14:39Z</time>
      </trkpt>
      <trkpt lat="50.85852" lon="1.67462">
        <ele>30.9</ele>
        <time>2020-06-22T20:14:40Z</time>
      </trkpt>
      <trkpt lat="50.85846" lon="1.67465">
        <ele>31</ele>
        <time>2020-06-22T20:14:41Z</time>
      </trkpt>
      <trkpt lat="50.85841" lon="1.67468">
        <ele>31.1</ele>
        <time>2020-06-22T20:14:42Z</time>
      </trkpt>
      <trkpt lat="50.85835" lon="1.6747">
        <ele>31.2</ele>
        <time>2020-06-22T20:14:43Z</time>
      </trkpt>
      <trkpt lat="50.8583" lon="1.67472">
        <ele>31.3</ele>
        <time>2020-06-22T20:14:44Z</time>
      </trkpt>
      <trkpt lat="50.85824" lon="1.67475">
        <ele>31.5</ele>
        <time>2020-06-22T20:14:45Z</time>
      </trkpt>
      <trkpt lat="50.85817" lon="1.67478">
        <ele>31.8</ele>
        <time>2020-06-22T20:14:46Z</time>
      </trkpt>
      <trkpt lat="50.8581" lon="1.67482">
        <ele>32.1</ele>
        <time>2020-06-22T20:14:47Z</time>
      </trkpt>
      <trkpt lat="50.85804" lon="1.67486">
        <ele>32.4</ele>
        <time>2020-06-22T20:14:48Z</time>
      </trkpt>
      <trkpt lat="50.85799" lon="1.67489">
        <ele>32.6</ele>
        <time>2020-06-22T20:14:49Z</time>
      </trkpt>
      <trkpt lat="50.85793" lon="1.67494">
        <ele>32.9</ele>
        <time>2020-06-22T20:14:50Z</time>
      </trkpt>
      <trkpt lat="50.85788" lon="1.67498">
        <ele>33.2</ele>
        <time>2020-06-22T20:14:51Z</time>
      </trkpt>
      <trkpt lat="50.85783" lon="1.67503">
        <ele>33.4</ele>
        <time>2020-06-22T20:14:52Z</time>
      </trkpt>
      <trkpt lat="50.85779" lon="1.67507">
        <ele>33.6</ele>
        <time>2020-06-22T20:14:53Z</time>
      </trkpt>
      <trkpt lat="50.85774" lon="1.67511">
        <ele>33.7</ele>
        <time>2020-06-22T20:14:54Z</time>
      </trkpt>
      <trkpt lat="50.8577" lon="1.67515">
        <ele>33.8</ele>
        <time>2020-06-22T20:14:55Z</time>
      </trkpt>
      <trkpt lat="50.85766" lon="1.67521">
        <ele>34</ele>
        <time>2020-06-22T20:14:56Z</time>
      </trkpt>
      <trkpt lat="50.85761" lon="1.67526">
        <ele>34.1</ele>
        <time>2020-06-22T20:14:57Z</time>
      </trkpt>
      <trkpt lat="50.85757" lon="1.6753">
        <ele>34.2</ele>
        <time>2020-06-22T20:14:58Z</time>
      </trkpt>
      <trkpt lat="50.85753" lon="1.67533">
        <ele>34.2</ele>
        <time>2020-06-22T20:14:59Z</time>
      </trkpt>
      <trkpt lat="50.8575" lon="1.67535">
        <ele>34.3</ele>
        <time>2020-06-22T20:15:00Z</time>
      </trkpt>
      <trkpt lat="50.85745" lon="1.67538">
        <ele>34.3</ele>
        <time>2020-06-22T20:15:01Z</time>
      </trkpt>
      <trkpt lat="50.85742" lon="1.67539">
        <ele>34.3</ele>
        <time>2020-06-22T20:15:02Z</time>
      </trkpt>
      <trkpt lat="50.85738" lon="1.67542">
        <ele>34.3</ele>
        <time>2020-06-22T20:15:03Z</time>
      </trkpt>
      <trkpt lat="50.85734" lon="1.67545">
        <ele>34.2</ele>
        <time>2020-06-22T20:15:04Z</time>
      </trkpt>
      <trkpt lat="50.8573" lon="1.67549">
        <ele>34.1</ele>
        <time>2020-06-22T20:15:05Z</time>
      </trkpt>
      <trkpt lat="50.85727" lon="1.67552">
        <ele>34</ele>
        <time>2020-06-22T20:15:06Z</time>
      </trkpt>
      <trkpt lat="50.85723" lon="1.67554">
        <ele>33.9</ele>
        <time>2020-06-22T20:15:07Z</time>
      </trkpt>
      <trkpt lat="50.85717" lon="1.67559">
        <ele>33.7</ele>
        <time>2020-06-22T20:15:08Z</time>
      </trkpt>
      <trkpt lat="50.85713" lon="1.67559">
        <ele>33.6</ele>
        <time>2020-06-22T20:15:09Z</time>
      </trkpt>
      <trkpt lat="50.85708" lon="1.6756">
        <ele>33.3</ele>
        <time>2020-06-22T20:15:10Z</time>
      </trkpt>
      <trkpt lat="50.85703" lon="1.67561">
        <ele>33.1</ele>
        <time>2020-06-22T20:15:11Z</time>
      </trkpt>
      <trkpt lat="50.85697" lon="1.67562">
        <ele>32.8</ele>
        <time>2020-06-22T20:15:12Z</time>
      </trkpt>
      <trkpt lat="50.85691" lon="1.67563">
        <ele>32.5</ele>
        <time>2020-06-22T20:15:13Z</time>
      </trkpt>
      <trkpt lat="50.85686" lon="1.67564">
        <ele>32.2</ele>
        <time>2020-06-22T20:15:14Z</time>
      </trkpt>
      <trkpt lat="50.85681" lon="1.67565">
        <ele>31.9</ele>
        <time>2020-06-22T20:15:15Z</time>
      </trkpt>
      <trkpt lat="50.85675" lon="1.67566">
        <ele>31.6</ele>
        <time>2020-06-22T20:15:16Z</time>
      </trkpt>
      <trkpt lat="50.85669" lon="1.67567">
        <ele>31.4</ele>
        <time>2020-06-22T20:15:17Z</time>
      </trkpt>
      <trkpt lat="50.85664" lon="1.67566">
        <ele>31.1</ele>
        <time>2020-06-22T20:15:18Z</time>
      </trkpt>
      <trkpt lat="50.85658" lon="1.67566">
        <ele>31</ele>
        <time>2020-06-22T20:15:19Z</time>
      </trkpt>
      <trkpt lat="50.85652" lon="1.67567">
        <ele>30.8</ele>
        <time>2020-06-22T20:15:20Z</time>
      </trkpt>
      <trkpt lat="50.85646" lon="1.67569">
        <ele>30.6</ele>
        <time>2020-06-22T20:15:21Z</time>
      </trkpt>
      <trkpt lat="50.85641" lon="1.67572">
        <ele>30.3</ele>
        <time>2020-06-22T20:15:22Z</time>
      </trkpt>
      <trkpt lat="50.85637" lon="1.67578">
        <ele>30.1</ele>
        <time>2020-06-22T20:15:23Z</time>
      </trkpt>
      <trkpt lat="50.85635" lon="1.67585">
        <ele>30</ele>
        <time>2020-06-22T20:15:24Z</time>
      </trkpt>
      <trkpt lat="50.85635" lon="1.6759">
        <ele>29.9</ele>
        <time>2020-06-22T20:15:25Z</time>
      </trkpt>
      <trkpt lat="50.85636" lon="1.67591">
        <ele>29.8</ele>
        <time>2020-06-22T20:15:26Z</time>
      </trkpt>
      <trkpt lat="50.85635" lon="1.67593">
        <ele>29.8</ele>
        <time>2020-06-22T20:15:27Z</time>
      </trkpt>
      <trkpt lat="50.85636" lon="1.67594">
        <ele>29.8</ele>
        <time>2020-06-22T20:15:28Z</time>
      </trkpt>
      <trkpt lat="50.85637" lon="1.67593">
        <ele>29.8</ele>
        <time>2020-06-22T20:15:29Z</time>
      </trkpt>
      <trkpt lat="50.85637" lon="1.67593">
        <ele>29.8</ele>
        <time>2020-06-22T20:15:30Z</time>
      </trkpt>
      <trkpt lat="50.85638" lon="1.67592">
        <ele>29.7</ele>
        <time>2020-06-22T20:15:31Z</time>
      </trkpt>
      <trkpt lat="50.85638" lon="1.67592">
        <ele>29.7</ele>
        <time>2020-06-22T20:15:32Z</time>
      </trkpt>
      <trkpt lat="50.85638" lon="1.67592">
        <ele>29.7</ele>
        <time>2020-06-22T20:15:33Z</time>
      </trkpt>
      <trkpt lat="50.85638" lon="1.67596">
        <ele>29.7</ele>
        <time>2020-06-22T20:15:34Z</time>
      </trkpt>
      <trkpt lat="50.85639" lon="1.67597">
        <ele>29.7</ele>
        <time>2020-06-22T20:15:35Z</time>
      </trkpt>
      <trkpt lat="50.85641" lon="1.67603">
        <ele>29.6</ele>
        <time>2020-06-22T20:15:36Z</time>
      </trkpt>
      <trkpt lat="50.85641" lon="1.67606">
        <ele>29.6</ele>
        <time>2020-06-22T20:15:37Z</time>
      </trkpt>
      <trkpt lat="50.85641" lon="1.67613">
        <ele>29.5</ele>
        <time>2020-06-22T20:15:38Z</time>
      </trkpt>
      <trkpt lat="50.85643" lon="1.67617">
        <ele>29.5</ele>
        <time>2020-06-22T20:15:39Z</time>
      </trkpt>
      <trkpt lat="50.85644" lon="1.67622">
        <ele>29.5</ele>
        <time>2020-06-22T20:15:40Z</time>
      </trkpt>
      <trkpt lat="50.85646" lon="1.67628">
        <ele>29.5</ele>
        <time>2020-06-22T20:15:41Z</time>
      </trkpt>
      <trkpt lat="50.85648" lon="1.67634">
        <ele>29.5</ele>
        <time>2020-06-22T20:15:42Z</time>
      </trkpt>
      <trkpt lat="50.85649" lon="1.67638">
        <ele>29.5</ele>
        <time>2020-06-22T20:15:43Z</time>
      </trkpt>
      <trkpt lat="50.8565" lon="1.67644">
        <ele>29.5</ele>
        <time>2020-06-22T20:15:44Z</time>
      </trkpt>
      <trkpt lat="50.85651" lon="1.67646">
        <ele>29.5</ele>
        <time>2020-06-22T20:15:45Z</time>
      </trkpt>
      <trkpt lat="50.85652" lon="1.67652">
        <ele>29.5</ele>
        <time>2020-06-22T20:15:46Z</time>
      </trkpt>
      <trkpt lat="50.85652" lon="1.67658">
        <ele>29.5</ele>
        <time>2020-06-22T20:15:47Z</time>
      </trkpt>
      <trkpt lat="50.85653" lon="1.67664">
        <ele>29.5</ele>
        <time>2020-06-22T20:15:48Z</time>
      </trkpt>
      <trkpt lat="50.85655" lon="1.67671">
        <ele>29.5</ele>
        <time>2020-06-22T20:15:49Z</time>
      </trkpt>
      <trkpt lat="50.85656" lon="1.67678">
        <ele>29.5</ele>
        <time>2020-06-22T20:15:50Z</time>
      </trkpt>
      <trkpt lat="50.85656" lon="1.67684">
        <ele>29.5</ele>
        <time>2020-06-22T20:15:51Z</time>
      </trkpt>
      <trkpt lat="50.85657" lon="1.67691">
        <ele>29.5</ele>
        <time>2020-06-22T20:15:52Z</time>
      </trkpt>
      <trkpt lat="50.85658" lon="1.67698">
        <ele>29.5</ele>
        <time>2020-06-22T20:15:53Z</time>
      </trkpt>
      <trkpt lat="50.8566" lon="1.67704">
        <ele>29.5</ele>
        <time>2020-06-22T20:15:54Z</time>
      </trkpt>
      <trkpt lat="50.85662" lon="1.67711">
        <ele>29.6</ele>
        <time>2020-06-22T20:15:55Z</time>
      </trkpt>
      <trkpt lat="50.85663" lon="1.67719">
        <ele>29.6</ele>
        <time>2020-06-22T20:15:56Z</time>
      </trkpt>
      <trkpt lat="50.85664" lon="1.67725">
        <ele>29.7</ele>
        <time>2020-06-22T20:15:57Z</time>
      </trkpt>
      <trkpt lat="50.85666" lon="1.67733">
        <ele>29.7</ele>
        <time>2020-06-22T20:15:58Z</time>
      </trkpt>
      <trkpt lat="50.85667" lon="1.67741">
        <ele>29.8</ele>
        <time>2020-06-22T20:15:59Z</time>
      </trkpt>
      <trkpt lat="50.85669" lon="1.67748">
        <ele>29.8</ele>
        <time>2020-06-22T20:16:00Z</time>
      </trkpt>
      <trkpt lat="50.85672" lon="1.67756">
        <ele>29.8</ele>
        <time>2020-06-22T20:16:01Z</time>
      </trkpt>
      <trkpt lat="50.85674" lon="1.67762">
        <ele>29.9</ele>
        <time>2020-06-22T20:16:02Z</time>
      </trkpt>
      <trkpt lat="50.85676" lon="1.67768">
        <ele>29.9</ele>
        <time>2020-06-22T20:16:03Z</time>
      </trkpt>
      <trkpt lat="50.85678" lon="1.67774">
        <ele>30</ele>
        <time>2020-06-22T20:16:04Z</time>
      </trkpt>
      <trkpt lat="50.85681" lon="1.67782">
        <ele>30</ele>
        <time>2020-06-22T20:16:05Z</time>
      </trkpt>
      <trkpt lat="50.85683" lon="1.67789">
        <ele>30.1</ele>
        <time>2020-06-22T20:16:06Z</time>
      </trkpt>
      <trkpt lat="50.85686" lon="1.67796">
        <ele>30.2</ele>
        <time>2020-06-22T20:16:07Z</time>
      </trkpt>
      <trkpt lat="50.85688" lon="1.67801">
        <ele>30.3</ele>
        <time>2020-06-22T20:16:08Z</time>
      </trkpt>
      <trkpt lat="50.85692" lon="1.67807">
        <ele>30.4</ele>
        <time>2020-06-22T20:16:09Z</time>
      </trkpt>
      <trkpt lat="50.85694" lon="1.67813">
        <ele>30.5</ele>
        <time>2020-06-22T20:16:10Z</time>
      </trkpt>
      <trkpt lat="50.85697" lon="1.67819">
        <ele>30.6</ele>
        <time>2020-06-22T20:16:11Z</time>
      </trkpt>
      <trkpt lat="50.857" lon="1.67825">
        <ele>30.8</ele>
        <time>2020-06-22T20:16:12Z</time>
      </trkpt>
      <trkpt lat="50.85703" lon="1.67832">
        <ele>30.9</ele>
        <time>2020-06-22T20:16:13Z</time>
      </trkpt>
      <trkpt lat="50.85706" lon="1.67836">
        <ele>31</ele>
        <time>2020-06-22T20:16:14Z</time>
      </trkpt>
      <trkpt lat="50.85708" lon="1.67841">
        <ele>31.1</ele>
        <time>2020-06-22T20:16:15Z</time>
      </trkpt>
      <trkpt lat="50.8571" lon="1.67848">
        <ele>31.3</ele>
        <time>2020-06-22T20:16:16Z</time>
      </trkpt>
      <trkpt lat="50.85712" lon="1.67855">
        <ele>31.5</ele>
        <time>2020-06-22T20:16:17Z</time>
      </trkpt>
      <trkpt lat="50.85714" lon="1.67862">
        <ele>31.7</ele>
        <time>2020-06-22T20:16:18Z</time>
      </trkpt>
      <trkpt lat="50.85716" lon="1.67868">
        <ele>31.9</ele>
        <time>2020-06-22T20:16:19Z</time>
      </trkpt>
      <trkpt lat="50.85719" lon="1.67873">
        <ele>32</ele>
        <time>2020-06-22T20:16:20Z</time>
      </trkpt>
      <trkpt lat="50.85721" lon="1.6788">
        <ele>32.2</ele>
        <time>2020-06-22T20:16:21Z</time>
      </trkpt>
      <trkpt lat="50.85722" lon="1.67888">
        <ele>32.4</ele>
        <time>2020-06-22T20:16:22Z</time>
      </trkpt>
      <trkpt lat="50.85724" lon="1.67893">
        <ele>32.6</ele>
        <time>2020-06-22T20:16:23Z</time>
      </trkpt>
      <trkpt lat="50.85725" lon="1.67898">
        <ele>32.7</ele>
        <time>2020-06-22T20:16:24Z</time>
      </trkpt>
      <trkpt lat="50.85726" lon="1.67904">
        <ele>32.9</ele>
        <time>2020-06-22T20:16:25Z</time>
      </trkpt>
      <trkpt lat="50.85727" lon="1.67911">
        <ele>33</ele>
        <time>2020-06-22T20:16:26Z</time>
      </trkpt>
      <trkpt lat="50.85728" lon="1.67917">
        <ele>33.2</ele>
        <time>2020-06-22T20:16:27Z</time>
      </trkpt>
      <trkpt lat="50.85729" lon="1.67922">
        <ele>33.4</ele>
        <time>2020-06-22T20:16:28Z</time>
      </trkpt>
      <trkpt lat="50.85728" lon="1.6793">
        <ele>33.5</ele>
        <time>2020-06-22T20:16:29Z</time>
      </trkpt>
      <trkpt lat="50.85729" lon="1.67939">
        <ele>33.7</ele>
        <time>2020-06-22T20:16:30Z</time>
      </trkpt>
      <trkpt lat="50.8573" lon="1.67945">
        <ele>33.9</ele>
        <time>2020-06-22T20:16:31Z</time>
      </trkpt>
      <trkpt lat="50.85731" lon="1.67952">
        <ele>34.1</ele>
        <time>2020-06-22T20:16:32Z</time>
      </trkpt>
      <trkpt lat="50.85731" lon="1.67959">
        <ele>34.2</ele>
        <time>2020-06-22T20:16:33Z</time>
      </trkpt>
      <trkpt lat="50.85732" lon="1.67966">
        <ele>34.3</ele>
        <time>2020-06-22T20:16:34Z</time>
      </trkpt>
      <trkpt lat="50.85733" lon="1.67972">
        <ele>34.4</ele>
        <time>2020-06-22T20:16:35Z</time>
      </trkpt>
      <trkpt lat="50.85734" lon="1.67977">
        <ele>34.5</ele>
        <time>2020-06-22T20:16:36Z</time>
      </trkpt>
      <trkpt lat="50.85734" lon="1.67986">
        <ele>34.6</ele>
        <time>2020-06-22T20:16:37Z</time>
      </trkpt>
      <trkpt lat="50.85735" lon="1.67992">
        <ele>34.7</ele>
        <time>2020-06-22T20:16:38Z</time>
      </trkpt>
      <trkpt lat="50.85735" lon="1.67998">
        <ele>34.8</ele>
        <time>2020-06-22T20:16:39Z</time>
      </trkpt>
      <trkpt lat="50.85736" lon="1.68005">
        <ele>34.9</ele>
        <time>2020-06-22T20:16:40Z</time>
      </trkpt>
      <trkpt lat="50.85737" lon="1.6801">
        <ele>35</ele>
        <time>2020-06-22T20:16:41Z</time>
      </trkpt>
      <trkpt lat="50.85738" lon="1.68018">
        <ele>35.1</ele>
        <time>2020-06-22T20:16:42Z</time>
      </trkpt>
      <trkpt lat="50.85738" lon="1.68025">
        <ele>35.2</ele>
        <time>2020-06-22T20:16:43Z</time>
      </trkpt>
      <trkpt lat="50.85738" lon="1.68031">
        <ele>35.3</ele>
        <time>2020-06-22T20:16:44Z</time>
      </trkpt>
      <trkpt lat="50.85739" lon="1.6804">
        <ele>35.4</ele>
        <time>2020-06-22T20:16:45Z</time>
      </trkpt>
      <trkpt lat="50.8574" lon="1.68047">
        <ele>35.5</ele>
        <time>2020-06-22T20:16:46Z</time>
      </trkpt>
      <trkpt lat="50.85741" lon="1.68056">
        <ele>35.6</ele>
        <time>2020-06-22T20:16:47Z</time>
      </trkpt>
      <trkpt lat="50.85741" lon="1.68062">
        <ele>35.7</ele>
        <time>2020-06-22T20:16:48Z</time>
      </trkpt>
      <trkpt lat="50.85741" lon="1.68069">
        <ele>35.8</ele>
        <time>2020-06-22T20:16:49Z</time>
      </trkpt>
      <trkpt lat="50.85742" lon="1.68077">
        <ele>35.9</ele>
        <time>2020-06-22T20:16:50Z</time>
      </trkpt>
      <trkpt lat="50.85743" lon="1.68085">
        <ele>36</ele>
        <time>2020-06-22T20:16:51Z</time>
      </trkpt>
      <trkpt lat="50.85744" lon="1.6809">
        <ele>36.1</ele>
        <time>2020-06-22T20:16:52Z</time>
      </trkpt>
      <trkpt lat="50.85745" lon="1.68097">
        <ele>36.2</ele>
        <time>2020-06-22T20:16:53Z</time>
      </trkpt>
      <trkpt lat="50.85746" lon="1.68103">
        <ele>36.3</ele>
        <time>2020-06-22T20:16:54Z</time>
      </trkpt>
      <trkpt lat="50.85747" lon="1.6811">
        <ele>36.4</ele>
        <time>2020-06-22T20:16:55Z</time>
      </trkpt>
      <trkpt lat="50.85748" lon="1.68119">
        <ele>36.6</ele>
        <time>2020-06-22T20:16:56Z</time>
      </trkpt>
      <trkpt lat="50.85749" lon="1.68126">
        <ele>36.6</ele>
        <time>2020-06-22T20:16:57Z</time>
      </trkpt>
      <trkpt lat="50.85751" lon="1.68134">
        <ele>36.7</ele>
        <time>2020-06-22T20:16:58Z</time>
      </trkpt>
      <trkpt lat="50.85752" lon="1.68142">
        <ele>36.8</ele>
        <time>2020-06-22T20:16:59Z</time>
      </trkpt>
      <trkpt lat="50.85753" lon="1.68148">
        <ele>36.9</ele>
        <time>2020-06-22T20:17:00Z</time>
      </trkpt>
      <trkpt lat="50.85754" lon="1.68156">
        <ele>37</ele>
        <time>2020-06-22T20:17:01Z</time>
      </trkpt>
      <trkpt lat="50.85755" lon="1.68164">
        <ele>37.1</ele>
        <time>2020-06-22T20:17:02Z</time>
      </trkpt>
      <trkpt lat="50.85755" lon="1.6817">
        <ele>37.2</ele>
        <time>2020-06-22T20:17:03Z</time>
      </trkpt>
      <trkpt lat="50.85756" lon="1.68179">
        <ele>37.3</ele>
        <time>2020-06-22T20:17:04Z</time>
      </trkpt>
      <trkpt lat="50.85757" lon="1.68183">
        <ele>37.3</ele>
        <time>2020-06-22T20:17:05Z</time>
      </trkpt>
      <trkpt lat="50.85758" lon="1.68191">
        <ele>37.4</ele>
        <time>2020-06-22T20:17:06Z</time>
      </trkpt>
      <trkpt lat="50.85759" lon="1.682">
        <ele>37.5</ele>
        <time>2020-06-22T20:17:07Z</time>
      </trkpt>
      <trkpt lat="50.85759" lon="1.68207">
        <ele>37.5</ele>
        <time>2020-06-22T20:17:08Z</time>
      </trkpt>
      <trkpt lat="50.8576" lon="1.68213">
        <ele>37.6</ele>
        <time>2020-06-22T20:17:09Z</time>
      </trkpt>
      <trkpt lat="50.85761" lon="1.6822">
        <ele>37.7</ele>
        <time>2020-06-22T20:17:10Z</time>
      </trkpt>
      <trkpt lat="50.85763" lon="1.68227">
        <ele>37.8</ele>
        <time>2020-06-22T20:17:11Z</time>
      </trkpt>
      <trkpt lat="50.85764" lon="1.68236">
        <ele>37.9</ele>
        <time>2020-06-22T20:17:12Z</time>
      </trkpt>
      <trkpt lat="50.85763" lon="1.68245">
        <ele>38</ele>
        <time>2020-06-22T20:17:13Z</time>
      </trkpt>
      <trkpt lat="50.85764" lon="1.68253">
        <ele>38.1</ele>
        <time>2020-06-22T20:17:14Z</time>
      </trkpt>
      <trkpt lat="50.85766" lon="1.68262">
        <ele>38.2</ele>
        <time>2020-06-22T20:17:15Z</time>
      </trkpt>
      <trkpt lat="50.85767" lon="1.68268">
        <ele>38.3</ele>
        <time>2020-06-22T20:17:16Z</time>
      </trkpt>
      <trkpt lat="50.85768" lon="1.68275">
        <ele>38.3</ele>
        <time>2020-06-22T20:17:17Z</time>
      </trkpt>
      <trkpt lat="50.85769" lon="1.68283">
        <ele>38.5</ele>
        <time>2020-06-22T20:17:18Z</time>
      </trkpt>
      <trkpt lat="50.8577" lon="1.6829">
        <ele>38.6</ele>
        <time>2020-06-22T20:17:19Z</time>
      </trkpt>
      <trkpt lat="50.85772" lon="1.68298">
        <ele>38.7</ele>
        <time>2020-06-22T20:17:20Z</time>
      </trkpt>
      <trkpt lat="50.85773" lon="1.68307">
        <ele>38.9</ele>
        <time>2020-06-22T20:17:21Z</time>
      </trkpt>
      <trkpt lat="50.85774" lon="1.68314">
        <ele>39</ele>
        <time>2020-06-22T20:17:22Z</time>
      </trkpt>
      <trkpt lat="50.85775" lon="1.6832">
        <ele>39.1</ele>
        <time>2020-06-22T20:17:23Z</time>
      </trkpt>
      <trkpt lat="50.85776" lon="1.68328">
        <ele>39.2</ele>
        <time>2020-06-22T20:17:24Z</time>
      </trkpt>
      <trkpt lat="50.85777" lon="1.68336">
        <ele>39.3</ele>
        <time>2020-06-22T20:17:25Z</time>
      </trkpt>
      <trkpt lat="50.85778" lon="1.68343">
        <ele>39.5</ele>
        <time>2020-06-22T20:17:26Z</time>
      </trkpt>
      <trkpt lat="50.85779" lon="1.6835">
        <ele>39.6</ele>
        <time>2020-06-22T20:17:27Z</time>
      </trkpt>
      <trkpt lat="50.8578" lon="1.68358">
        <ele>39.7</ele>
        <time>2020-06-22T20:17:28Z</time>
      </trkpt>
      <trkpt lat="50.8578" lon="1.68365">
        <ele>39.9</ele>
        <time>2020-06-22T20:17:29Z</time>
      </trkpt>
      <trkpt lat="50.85781" lon="1.68373">
        <ele>40</ele>
        <time>2020-06-22T20:17:30Z</time>
      </trkpt>
      <trkpt lat="50.85783" lon="1.68381">
        <ele>40.1</ele>
        <time>2020-06-22T20:17:31Z</time>
      </trkpt>
      <trkpt lat="50.85784" lon="1.6839">
        <ele>40.3</ele>
        <time>2020-06-22T20:17:32Z</time>
      </trkpt>
      <trkpt lat="50.85783" lon="1.68396">
        <ele>40.4</ele>
        <time>2020-06-22T20:17:33Z</time>
      </trkpt>
      <trkpt lat="50.85784" lon="1.68404">
        <ele>40.6</ele>
        <time>2020-06-22T20:17:34Z</time>
      </trkpt>
      <trkpt lat="50.85783" lon="1.68412">
        <ele>40.7</ele>
        <time>2020-06-22T20:17:35Z</time>
      </trkpt>
      <trkpt lat="50.85784" lon="1.68418">
        <ele>40.9</ele>
        <time>2020-06-22T20:17:36Z</time>
      </trkpt>
      <trkpt lat="50.85784" lon="1.68425">
        <ele>41</ele>
        <time>2020-06-22T20:17:37Z</time>
      </trkpt>
      <trkpt lat="50.85785" lon="1.68432">
        <ele>41.2</ele>
        <time>2020-06-22T20:17:38Z</time>
      </trkpt>
      <trkpt lat="50.85785" lon="1.68439">
        <ele>41.4</ele>
        <time>2020-06-22T20:17:39Z</time>
      </trkpt>
      <trkpt lat="50.85786" lon="1.68445">
        <ele>41.5</ele>
        <time>2020-06-22T20:17:40Z</time>
      </trkpt>
      <trkpt lat="50.85787" lon="1.68453">
        <ele>41.7</ele>
        <time>2020-06-22T20:17:41Z</time>
      </trkpt>
      <trkpt lat="50.85788" lon="1.68461">
        <ele>41.9</ele>
        <time>2020-06-22T20:17:42Z</time>
      </trkpt>
      <trkpt lat="50.85789" lon="1.68469">
        <ele>42.1</ele>
        <time>2020-06-22T20:17:43Z</time>
      </trkpt>
      <trkpt lat="50.8579" lon="1.68474">
        <ele>42.3</ele>
        <time>2020-06-22T20:17:44Z</time>
      </trkpt>
      <trkpt lat="50.8579" lon="1.6848">
        <ele>42.4</ele>
        <time>2020-06-22T20:17:45Z</time>
      </trkpt>
      <trkpt lat="50.85791" lon="1.68485">
        <ele>42.6</ele>
        <time>2020-06-22T20:17:46Z</time>
      </trkpt>
      <trkpt lat="50.85792" lon="1.68491">
        <ele>42.8</ele>
        <time>2020-06-22T20:17:47Z</time>
      </trkpt>
      <trkpt lat="50.85792" lon="1.68499">
        <ele>43</ele>
        <time>2020-06-22T20:17:48Z</time>
      </trkpt>
      <trkpt lat="50.85791" lon="1.68506">
        <ele>43.3</ele>
        <time>2020-06-22T20:17:49Z</time>
      </trkpt>
      <trkpt lat="50.85791" lon="1.68513">
        <ele>43.5</ele>
        <time>2020-06-22T20:17:50Z</time>
      </trkpt>
      <trkpt lat="50.85792" lon="1.68519">
        <ele>43.7</ele>
        <time>2020-06-22T20:17:51Z</time>
      </trkpt>
      <trkpt lat="50.85791" lon="1.68525">
        <ele>43.9</ele>
        <time>2020-06-22T20:17:52Z</time>
      </trkpt>
      <trkpt lat="50.85791" lon="1.68531">
        <ele>44</ele>
        <time>2020-06-22T20:17:53Z</time>
      </trkpt>
      <trkpt lat="50.85792" lon="1.68536">
        <ele>44.2</ele>
        <time>2020-06-22T20:17:54Z</time>
      </trkpt>
      <trkpt lat="50.85793" lon="1.6854">
        <ele>44.2</ele>
        <time>2020-06-22T20:17:55Z</time>
      </trkpt>
      <trkpt lat="50.85794" lon="1.68545">
        <ele>44.3</ele>
        <time>2020-06-22T20:17:56Z</time>
      </trkpt>
      <trkpt lat="50.85793" lon="1.68551">
        <ele>44.4</ele>
        <time>2020-06-22T20:17:57Z</time>
      </trkpt>
      <trkpt lat="50.85793" lon="1.68553">
        <ele>44.4</ele>
        <time>2020-06-22T20:17:58Z</time>
      </trkpt>
      <trkpt lat="50.85794" lon="1.68558">
        <ele>44.5</ele>
        <time>2020-06-22T20:17:59Z</time>
      </trkpt>
      <trkpt lat="50.85794" lon="1.68559">
        <ele>44.5</ele>
        <time>2020-06-22T20:18:00Z</time>
      </trkpt>
      <trkpt lat="50.85794" lon="1.68564">
        <ele>44.6</ele>
        <time>2020-06-22T20:18:01Z</time>
      </trkpt>
      <trkpt lat="50.85794" lon="1.68565">
        <ele>44.6</ele>
        <time>2020-06-22T20:18:02Z</time>
      </trkpt>
      <trkpt lat="50.85794" lon="1.68565">
        <ele>44.6</ele>
        <time>2020-06-22T20:18:03Z</time>
      </trkpt>
      <trkpt lat="50.85794" lon="1.68563">
        <ele>44.6</ele>
        <time>2020-06-22T20:18:04Z</time>
      </trkpt>
      <trkpt lat="50.85794" lon="1.68561">
        <ele>44.6</ele>
        <time>2020-06-22T20:18:05Z</time>
      </trkpt>
      <trkpt lat="50.85795" lon="1.6856">
        <ele>44.6</ele>
        <time>2020-06-22T20:18:06Z</time>
      </trkpt>
      <trkpt lat="50.85795" lon="1.68559">
        <ele>44.7</ele>
        <time>2020-06-22T20:18:07Z</time>
      </trkpt>
      <trkpt lat="50.85795" lon="1.68559">
        <ele>44.7</ele>
        <time>2020-06-22T20:18:08Z</time>
      </trkpt>
      <trkpt lat="50.85795" lon="1.68559">
        <ele>44.7</ele>
        <time>2020-06-22T20:18:09Z</time>
      </trkpt>
      <trkpt lat="50.85794" lon="1.68559">
        <ele>44.7</ele>
        <time>2020-06-22T20:18:10Z</time>
      </trkpt>
      <trkpt lat="50.85794" lon="1.68559">
        <ele>44.7</ele>
        <time>2020-06-22T20:18:11Z</time>
      </trkpt>
      <trkpt lat="50.85794" lon="1.68559">
        <ele>44.7</ele>
        <time>2020-06-22T20:18:12Z</time>
      </trkpt>
      <trkpt lat="50.85794" lon="1.68559">
        <ele>44.7</ele>
        <time>2020-06-22T20:18:13Z</time>
      </trkpt>
      <trkpt lat="50.85794" lon="1.68559">
        <ele>44.7</ele>
        <time>2020-06-22T20:18:14Z</time>
      </trkpt>
      <trkpt lat="50.85798" lon="1.68558">
        <ele>44.8</ele>
        <time>2020-06-22T20:18:49Z</time>
      </trkpt>
      <trkpt lat="50.85798" lon="1.68556">
        <ele>44.8</ele>
        <time>2020-06-22T20:18:50Z</time>
      </trkpt>
      <trkpt lat="50.85797" lon="1.68554">
        <ele>44.8</ele>
        <time>2020-06-22T20:18:51Z</time>
      </trkpt>
      <trkpt lat="50.85796" lon="1.68552">
        <ele>44.9</ele>
        <time>2020-06-22T20:18:52Z</time>
      </trkpt>
      <trkpt lat="50.85796" lon="1.68553">
        <ele>44.9</ele>
        <time>2020-06-22T20:18:53Z</time>
      </trkpt>
      <trkpt lat="50.85796" lon="1.68555">
        <ele>44.9</ele>
        <time>2020-06-22T20:18:54Z</time>
      </trkpt>
      <trkpt lat="50.85796" lon="1.68557">
        <ele>44.9</ele>
        <time>2020-06-22T20:18:55Z</time>
      </trkpt>
      <trkpt lat="50.85796" lon="1.68558">
        <ele>44.9</ele>
        <time>2020-06-22T20:18:56Z</time>
      </trkpt>
      <trkpt lat="50.85797" lon="1.6856">
        <ele>45</ele>
        <time>2020-06-22T20:18:57Z</time>
      </trkpt>
      <trkpt lat="50.85797" lon="1.68559">
        <ele>45</ele>
        <time>2020-06-22T20:18:58Z</time>
      </trkpt>
      <trkpt lat="50.85797" lon="1.6856">
        <ele>45</ele>
        <time>2020-06-22T20:18:59Z</time>
      </trkpt>
      <trkpt lat="50.85797" lon="1.68561">
        <ele>45</ele>
        <time>2020-06-22T20:19:00Z</time>
      </trkpt>
      <trkpt lat="50.85797" lon="1.68563">
        <ele>45</ele>
        <time>2020-06-22T20:19:01Z</time>
      </trkpt>
      <trkpt lat="50.85798" lon="1.68566">
        <ele>45.1</ele>
        <time>2020-06-22T20:19:02Z</time>
      </trkpt>
      <trkpt lat="50.85798" lon="1.68567">
        <ele>45.1</ele>
        <time>2020-06-22T20:19:03Z</time>
      </trkpt>
      <trkpt lat="50.85799" lon="1.68568">
        <ele>45.1</ele>
        <time>2020-06-22T20:19:04Z</time>
      </trkpt>
      <trkpt lat="50.85799" lon="1.68569">
        <ele>45.1</ele>
        <time>2020-06-22T20:19:05Z</time>
      </trkpt>
      <trkpt lat="50.858" lon="1.68569">
        <ele>45.1</ele>
        <time>2020-06-22T20:19:06Z</time>
      </trkpt>
      <trkpt lat="50.858" lon="1.6857">
        <ele>45.1</ele>
        <time>2020-06-22T20:19:07Z</time>
      </trkpt>
      <trkpt lat="50.858" lon="1.68572">
        <ele>45.2</ele>
        <time>2020-06-22T20:19:08Z</time>
      </trkpt>
      <trkpt lat="50.85801" lon="1.68573">
        <ele>45.2</ele>
        <time>2020-06-22T20:19:09Z</time>
      </trkpt>
      <trkpt lat="50.85802" lon="1.68575">
        <ele>45.2</ele>
        <time>2020-06-22T20:19:10Z</time>
      </trkpt>
      <trkpt lat="50.85803" lon="1.68576">
        <ele>45.3</ele>
        <time>2020-06-22T20:19:11Z</time>
      </trkpt>
      <trkpt lat="50.85805" lon="1.68581">
        <ele>45.3</ele>
        <time>2020-06-22T20:19:12Z</time>
      </trkpt>
      <trkpt lat="50.85806" lon="1.68582">
        <ele>45.4</ele>
        <time>2020-06-22T20:19:13Z</time>
      </trkpt>
      <trkpt lat="50.85808" lon="1.68586">
        <ele>45.4</ele>
        <time>2020-06-22T20:19:14Z</time>
      </trkpt>
      <trkpt lat="50.8581" lon="1.68589">
        <ele>45.5</ele>
        <time>2020-06-22T20:19:15Z</time>
      </trkpt>
      <trkpt lat="50.85811" lon="1.68594">
        <ele>45.6</ele>
        <time>2020-06-22T20:19:16Z</time>
      </trkpt>
      <trkpt lat="50.85814" lon="1.68599">
        <ele>45.6</ele>
        <time>2020-06-22T20:19:17Z</time>
      </trkpt>
      <trkpt lat="50.85817" lon="1.68603">
        <ele>45.7</ele>
        <time>2020-06-22T20:19:18Z</time>
      </trkpt>
      <trkpt lat="50.8582" lon="1.68607">
        <ele>45.8</ele>
        <time>2020-06-22T20:19:19Z</time>
      </trkpt>
      <trkpt lat="50.85824" lon="1.68612">
        <ele>45.9</ele>
        <time>2020-06-22T20:19:20Z</time>
      </trkpt>
      <trkpt lat="50.85827" lon="1.68617">
        <ele>46</ele>
        <time>2020-06-22T20:19:21Z</time>
      </trkpt>
      <trkpt lat="50.8583" lon="1.68622">
        <ele>46</ele>
        <time>2020-06-22T20:19:22Z</time>
      </trkpt>
      <trkpt lat="50.85832" lon="1.68628">
        <ele>46.1</ele>
        <time>2020-06-22T20:19:23Z</time>
      </trkpt>
      <trkpt lat="50.85835" lon="1.68634">
        <ele>46.2</ele>
        <time>2020-06-22T20:19:24Z</time>
      </trkpt>
      <trkpt lat="50.85838" lon="1.68641">
        <ele>46.2</ele>
        <time>2020-06-22T20:19:25Z</time>
      </trkpt>
      <trkpt lat="50.85841" lon="1.68647">
        <ele>46.3</ele>
        <time>2020-06-22T20:19:26Z</time>
      </trkpt>
      <trkpt lat="50.85844" lon="1.68654">
        <ele>46.4</ele>
        <time>2020-06-22T20:19:27Z</time>
      </trkpt>
      <trkpt lat="50.85847" lon="1.6866">
        <ele>46.5</ele>
        <time>2020-06-22T20:19:28Z</time>
      </trkpt>
      <trkpt lat="50.85851" lon="1.68666">
        <ele>46.5</ele>
        <time>2020-06-22T20:19:29Z</time>
      </trkpt>
      <trkpt lat="50.85854" lon="1.68671">
        <ele>46.6</ele>
        <time>2020-06-22T20:19:30Z</time>
      </trkpt>
      <trkpt lat="50.85858" lon="1.68676">
        <ele>46.7</ele>
        <time>2020-06-22T20:19:31Z</time>
      </trkpt>
      <trkpt lat="50.85861" lon="1.68682">
        <ele>46.7</ele>
        <time>2020-06-22T20:19:32Z</time>
      </trkpt>
      <trkpt lat="50.85864" lon="1.68687">
        <ele>46.8</ele>
        <time>2020-06-22T20:19:33Z</time>
      </trkpt>
      <trkpt lat="50.85868" lon="1.68693">
        <ele>46.8</ele>
        <time>2020-06-22T20:19:34Z</time>
      </trkpt>
      <trkpt lat="50.85871" lon="1.68698">
        <ele>46.9</ele>
        <time>2020-06-22T20:19:35Z</time>
      </trkpt>
      <trkpt lat="50.85874" lon="1.68704">
        <ele>47</ele>
        <time>2020-06-22T20:19:36Z</time>
      </trkpt>
      <trkpt lat="50.85877" lon="1.6871">
        <ele>46.9</ele>
        <time>2020-06-22T20:19:37Z</time>
      </trkpt>
      <trkpt lat="50.85881" lon="1.68716">
        <ele>46.9</ele>
        <time>2020-06-22T20:19:38Z</time>
      </trkpt>
      <trkpt lat="50.85884" lon="1.68722">
        <ele>46.9</ele>
        <time>2020-06-22T20:19:39Z</time>
      </trkpt>
      <trkpt lat="50.85887" lon="1.68727">
        <ele>46.9</ele>
        <time>2020-06-22T20:19:40Z</time>
      </trkpt>
      <trkpt lat="50.8589" lon="1.68731">
        <ele>47</ele>
        <time>2020-06-22T20:19:41Z</time>
      </trkpt>
      <trkpt lat="50.85893" lon="1.68736">
        <ele>47</ele>
        <time>2020-06-22T20:19:42Z</time>
      </trkpt>
      <trkpt lat="50.85896" lon="1.68741">
        <ele>47</ele>
        <time>2020-06-22T20:19:43Z</time>
      </trkpt>
      <trkpt lat="50.85899" lon="1.68747">
        <ele>47</ele>
        <time>2020-06-22T20:19:44Z</time>
      </trkpt>
      <trkpt lat="50.85903" lon="1.68751">
        <ele>47.1</ele>
        <time>2020-06-22T20:19:45Z</time>
      </trkpt>
      <trkpt lat="50.85906" lon="1.68757">
        <ele>47.1</ele>
        <time>2020-06-22T20:19:46Z</time>
      </trkpt>
      <trkpt lat="50.85909" lon="1.68762">
        <ele>47.2</ele>
        <time>2020-06-22T20:19:47Z</time>
      </trkpt>
      <trkpt lat="50.85912" lon="1.68768">
        <ele>47.2</ele>
        <time>2020-06-22T20:19:48Z</time>
      </trkpt>
      <trkpt lat="50.85915" lon="1.68774">
        <ele>47.3</ele>
        <time>2020-06-22T20:19:49Z</time>
      </trkpt>
      <trkpt lat="50.85919" lon="1.68779">
        <ele>47.3</ele>
        <time>2020-06-22T20:19:50Z</time>
      </trkpt>
      <trkpt lat="50.85922" lon="1.68785">
        <ele>47.4</ele>
        <time>2020-06-22T20:19:51Z</time>
      </trkpt>
      <trkpt lat="50.85925" lon="1.6879">
        <ele>47.4</ele>
        <time>2020-06-22T20:19:52Z</time>
      </trkpt>
      <trkpt lat="50.85928" lon="1.68796">
        <ele>47.5</ele>
        <time>2020-06-22T20:19:53Z</time>
      </trkpt>
      <trkpt lat="50.85931" lon="1.68801">
        <ele>47.5</ele>
        <time>2020-06-22T20:19:54Z</time>
      </trkpt>
      <trkpt lat="50.85934" lon="1.68805">
        <ele>47.5</ele>
        <time>2020-06-22T20:19:55Z</time>
      </trkpt>
      <trkpt lat="50.85938" lon="1.68811">
        <ele>47.6</ele>
        <time>2020-06-22T20:19:56Z</time>
      </trkpt>
      <trkpt lat="50.85941" lon="1.68815">
        <ele>47.6</ele>
        <time>2020-06-22T20:19:57Z</time>
      </trkpt>
      <trkpt lat="50.85945" lon="1.68821">
        <ele>47.7</ele>
        <time>2020-06-22T20:19:58Z</time>
      </trkpt>
      <trkpt lat="50.85948" lon="1.68826">
        <ele>47.7</ele>
        <time>2020-06-22T20:19:59Z</time>
      </trkpt>
      <trkpt lat="50.85951" lon="1.6883">
        <ele>47.7</ele>
        <time>2020-06-22T20:20:00Z</time>
      </trkpt>
      <trkpt lat="50.85955" lon="1.68835">
        <ele>47.8</ele>
        <time>2020-06-22T20:20:01Z</time>
      </trkpt>
      <trkpt lat="50.85959" lon="1.6884">
        <ele>47.8</ele>
        <time>2020-06-22T20:20:02Z</time>
      </trkpt>
      <trkpt lat="50.85962" lon="1.68845">
        <ele>47.9</ele>
        <time>2020-06-22T20:20:03Z</time>
      </trkpt>
      <trkpt lat="50.85965" lon="1.6885">
        <ele>48</ele>
        <time>2020-06-22T20:20:04Z</time>
      </trkpt>
      <trkpt lat="50.85968" lon="1.68856">
        <ele>48</ele>
        <time>2020-06-22T20:20:05Z</time>
      </trkpt>
      <trkpt lat="50.85972" lon="1.68862">
        <ele>48.1</ele>
        <time>2020-06-22T20:20:06Z</time>
      </trkpt>
      <trkpt lat="50.85974" lon="1.68867">
        <ele>48.1</ele>
        <time>2020-06-22T20:20:07Z</time>
      </trkpt>
      <trkpt lat="50.85977" lon="1.68871">
        <ele>48.2</ele>
        <time>2020-06-22T20:20:08Z</time>
      </trkpt>
      <trkpt lat="50.85978" lon="1.68878">
        <ele>48.2</ele>
        <time>2020-06-22T20:20:09Z</time>
      </trkpt>
      <trkpt lat="50.85981" lon="1.68883">
        <ele>48.3</ele>
        <time>2020-06-22T20:20:10Z</time>
      </trkpt>
      <trkpt lat="50.85984" lon="1.68888">
        <ele>48.3</ele>
        <time>2020-06-22T20:20:11Z</time>
      </trkpt>
      <trkpt lat="50.85987" lon="1.68894">
        <ele>48.4</ele>
        <time>2020-06-22T20:20:12Z</time>
      </trkpt>
      <trkpt lat="50.8599" lon="1.689">
        <ele>48.4</ele>
        <time>2020-06-22T20:20:13Z</time>
      </trkpt>
      <trkpt lat="50.85994" lon="1.68905">
        <ele>48.5</ele>
        <time>2020-06-22T20:20:14Z</time>
      </trkpt>
      <trkpt lat="50.85996" lon="1.68911">
        <ele>48.5</ele>
        <time>2020-06-22T20:20:15Z</time>
      </trkpt>
      <trkpt lat="50.85999" lon="1.68917">
        <ele>48.6</ele>
        <time>2020-06-22T20:20:16Z</time>
      </trkpt>
      <trkpt lat="50.86001" lon="1.68923">
        <ele>48.7</ele>
        <time>2020-06-22T20:20:17Z</time>
      </trkpt>
      <trkpt lat="50.86004" lon="1.68928">
        <ele>48.8</ele>
        <time>2020-06-22T20:20:18Z</time>
      </trkpt>
      <trkpt lat="50.86007" lon="1.68932">
        <ele>48.8</ele>
        <time>2020-06-22T20:20:19Z</time>
      </trkpt>
      <trkpt lat="50.8601" lon="1.68936">
        <ele>48.9</ele>
        <time>2020-06-22T20:20:20Z</time>
      </trkpt>
      <trkpt lat="50.86013" lon="1.68941">
        <ele>49</ele>
        <time>2020-06-22T20:20:21Z</time>
      </trkpt>
      <trkpt lat="50.86016" lon="1.68947">
        <ele>49.1</ele>
        <time>2020-06-22T20:20:22Z</time>
      </trkpt>
      <trkpt lat="50.86018" lon="1.68952">
        <ele>49.2</ele>
        <time>2020-06-22T20:20:23Z</time>
      </trkpt>
      <trkpt lat="50.86021" lon="1.68956">
        <ele>49.3</ele>
        <time>2020-06-22T20:20:24Z</time>
      </trkpt>
      <trkpt lat="50.86023" lon="1.68961">
        <ele>49.3</ele>
        <time>2020-06-22T20:20:25Z</time>
      </trkpt>
      <trkpt lat="50.86025" lon="1.68966">
        <ele>49.4</ele>
        <time>2020-06-22T20:20:26Z</time>
      </trkpt>
      <trkpt lat="50.86028" lon="1.68971">
        <ele>49.6</ele>
        <time>2020-06-22T20:20:27Z</time>
      </trkpt>
      <trkpt lat="50.8603" lon="1.68977">
        <ele>49.7</ele>
        <time>2020-06-22T20:20:28Z</time>
      </trkpt>
      <trkpt lat="50.86033" lon="1.68981">
        <ele>49.9</ele>
        <time>2020-06-22T20:20:29Z</time>
      </trkpt>
      <trkpt lat="50.86035" lon="1.68987">
        <ele>50.1</ele>
        <time>2020-06-22T20:20:30Z</time>
      </trkpt>
      <trkpt lat="50.86037" lon="1.68994">
        <ele>50.1</ele>
        <time>2020-06-22T20:20:31Z</time>
      </trkpt>
      <trkpt lat="50.86039" lon="1.68998">
        <ele>50.1</ele>
        <time>2020-06-22T20:20:32Z</time>
      </trkpt>
      <trkpt lat="50.86042" lon="1.69004">
        <ele>50.2</ele>
        <time>2020-06-22T20:20:33Z</time>
      </trkpt>
      <trkpt lat="50.86044" lon="1.6901">
        <ele>50.2</ele>
        <time>2020-06-22T20:20:34Z</time>
      </trkpt>
      <trkpt lat="50.86047" lon="1.69017">
        <ele>50.3</ele>
        <time>2020-06-22T20:20:35Z</time>
      </trkpt>
      <trkpt lat="50.8605" lon="1.69023">
        <ele>50.4</ele>
        <time>2020-06-22T20:20:36Z</time>
      </trkpt>
      <trkpt lat="50.86053" lon="1.69029">
        <ele>50.5</ele>
        <time>2020-06-22T20:20:37Z</time>
      </trkpt>
      <trkpt lat="50.86056" lon="1.69035">
        <ele>50.6</ele>
        <time>2020-06-22T20:20:38Z</time>
      </trkpt>
      <trkpt lat="50.86059" lon="1.6904">
        <ele>50.8</ele>
        <time>2020-06-22T20:20:39Z</time>
      </trkpt>
      <trkpt lat="50.86063" lon="1.69045">
        <ele>50.9</ele>
        <time>2020-06-22T20:20:40Z</time>
      </trkpt>
      <trkpt lat="50.86066" lon="1.69051">
        <ele>51.1</ele>
        <time>2020-06-22T20:20:41Z</time>
      </trkpt>
      <trkpt lat="50.86069" lon="1.69056">
        <ele>51.3</ele>
        <time>2020-06-22T20:20:42Z</time>
      </trkpt>
      <trkpt lat="50.86072" lon="1.69061">
        <ele>51.5</ele>
        <time>2020-06-22T20:20:43Z</time>
      </trkpt>
      <trkpt lat="50.86075" lon="1.69068">
        <ele>51.7</ele>
        <time>2020-06-22T20:20:44Z</time>
      </trkpt>
      <trkpt lat="50.86078" lon="1.69073">
        <ele>51.9</ele>
        <time>2020-06-22T20:20:45Z</time>
      </trkpt>
      <trkpt lat="50.86082" lon="1.69078">
        <ele>52.1</ele>
        <time>2020-06-22T20:20:46Z</time>
      </trkpt>
      <trkpt lat="50.86085" lon="1.69084">
        <ele>52.3</ele>
        <time>2020-06-22T20:20:47Z</time>
      </trkpt>
      <trkpt lat="50.86088" lon="1.69088">
        <ele>52.5</ele>
        <time>2020-06-22T20:20:48Z</time>
      </trkpt>
      <trkpt lat="50.86091" lon="1.69094">
        <ele>52.7</ele>
        <time>2020-06-22T20:20:49Z</time>
      </trkpt>
      <trkpt lat="50.86094" lon="1.69099">
        <ele>52.9</ele>
        <time>2020-06-22T20:20:50Z</time>
      </trkpt>
      <trkpt lat="50.86096" lon="1.69105">
        <ele>53.1</ele>
        <time>2020-06-22T20:20:51Z</time>
      </trkpt>
      <trkpt lat="50.86099" lon="1.69109">
        <ele>53.3</ele>
        <time>2020-06-22T20:20:52Z</time>
      </trkpt>
      <trkpt lat="50.86101" lon="1.69115">
        <ele>53.5</ele>
        <time>2020-06-22T20:20:53Z</time>
      </trkpt>
      <trkpt lat="50.86104" lon="1.69122">
        <ele>53.8</ele>
        <time>2020-06-22T20:20:54Z</time>
      </trkpt>
      <trkpt lat="50.86106" lon="1.69128">
        <ele>54</ele>
        <time>2020-06-22T20:20:55Z</time>
      </trkpt>
      <trkpt lat="50.86108" lon="1.69134">
        <ele>54.3</ele>
        <time>2020-06-22T20:20:56Z</time>
      </trkpt>
      <trkpt lat="50.86112" lon="1.69141">
        <ele>54.7</ele>
        <time>2020-06-22T20:20:57Z</time>
      </trkpt>
      <trkpt lat="50.86115" lon="1.69149">
        <ele>55.1</ele>
        <time>2020-06-22T20:20:58Z</time>
      </trkpt>
      <trkpt lat="50.86118" lon="1.69157">
        <ele>55.5</ele>
        <time>2020-06-22T20:20:59Z</time>
      </trkpt>
      <trkpt lat="50.8612" lon="1.69165">
        <ele>55.9</ele>
        <time>2020-06-22T20:21:00Z</time>
      </trkpt>
      <trkpt lat="50.86122" lon="1.69173">
        <ele>56.4</ele>
        <time>2020-06-22T20:21:01Z</time>
      </trkpt>
      <trkpt lat="50.86125" lon="1.69181">
        <ele>57</ele>
        <time>2020-06-22T20:21:02Z</time>
      </trkpt>
      <trkpt lat="50.86126" lon="1.69187">
        <ele>57.5</ele>
        <time>2020-06-22T20:21:03Z</time>
      </trkpt>
      <trkpt lat="50.86127" lon="1.69193">
        <ele>58</ele>
        <time>2020-06-22T20:21:04Z</time>
      </trkpt>
      <trkpt lat="50.86126" lon="1.69199">
        <ele>58.3</ele>
        <time>2020-06-22T20:21:05Z</time>
      </trkpt>
      <trkpt lat="50.86126" lon="1.69204">
        <ele>58.7</ele>
        <time>2020-06-22T20:21:06Z</time>
      </trkpt>
      <trkpt lat="50.86125" lon="1.6921">
        <ele>59.2</ele>
        <time>2020-06-22T20:21:07Z</time>
      </trkpt>
      <trkpt lat="50.86125" lon="1.69213">
        <ele>59.3</ele>
        <time>2020-06-22T20:21:08Z</time>
      </trkpt>
      <trkpt lat="50.86125" lon="1.69217">
        <ele>59.7</ele>
        <time>2020-06-22T20:21:09Z</time>
      </trkpt>
      <trkpt lat="50.86125" lon="1.69223">
        <ele>60.1</ele>
        <time>2020-06-22T20:21:10Z</time>
      </trkpt>
      <trkpt lat="50.86126" lon="1.69225">
        <ele>60.3</ele>
        <time>2020-06-22T20:21:11Z</time>
      </trkpt>
      <trkpt lat="50.86126" lon="1.6923">
        <ele>60.8</ele>
        <time>2020-06-22T20:21:12Z</time>
      </trkpt>
      <trkpt lat="50.86127" lon="1.69234">
        <ele>60.9</ele>
        <time>2020-06-22T20:21:13Z</time>
      </trkpt>
      <trkpt lat="50.86126" lon="1.69239">
        <ele>61</ele>
        <time>2020-06-22T20:21:14Z</time>
      </trkpt>
      <trkpt lat="50.86126" lon="1.69244">
        <ele>61.1</ele>
        <time>2020-06-22T20:21:15Z</time>
      </trkpt>
      <trkpt lat="50.86125" lon="1.6925">
        <ele>61.2</ele>
        <time>2020-06-22T20:21:16Z</time>
      </trkpt>
      <trkpt lat="50.86126" lon="1.69256">
        <ele>61.3</ele>
        <time>2020-06-22T20:21:17Z</time>
      </trkpt>
      <trkpt lat="50.86126" lon="1.69259">
        <ele>61.4</ele>
        <time>2020-06-22T20:21:18Z</time>
      </trkpt>
      <trkpt lat="50.86125" lon="1.69264">
        <ele>61.9</ele>
        <time>2020-06-22T20:21:19Z</time>
      </trkpt>
      <trkpt lat="50.86124" lon="1.6927">
        <ele>62.2</ele>
        <time>2020-06-22T20:21:20Z</time>
      </trkpt>
      <trkpt lat="50.86124" lon="1.69275">
        <ele>62.5</ele>
        <time>2020-06-22T20:21:21Z</time>
      </trkpt>
      <trkpt lat="50.86125" lon="1.6928">
        <ele>62.7</ele>
        <time>2020-06-22T20:21:22Z</time>
      </trkpt>
      <trkpt lat="50.86125" lon="1.69284">
        <ele>63</ele>
        <time>2020-06-22T20:21:23Z</time>
      </trkpt>
      <trkpt lat="50.86125" lon="1.69291">
        <ele>63.3</ele>
        <time>2020-06-22T20:21:24Z</time>
      </trkpt>
      <trkpt lat="50.86125" lon="1.69296">
        <ele>63.6</ele>
        <time>2020-06-22T20:21:25Z</time>
      </trkpt>
      <trkpt lat="50.86125" lon="1.69298">
        <ele>63.6</ele>
        <time>2020-06-22T20:21:26Z</time>
      </trkpt>
      <trkpt lat="50.86126" lon="1.693">
        <ele>64.2</ele>
        <time>2020-06-22T20:21:27Z</time>
      </trkpt>
      <trkpt lat="50.86128" lon="1.69302">
        <ele>64.3</ele>
        <time>2020-06-22T20:21:28Z</time>
      </trkpt>
      <trkpt lat="50.86129" lon="1.69307">
        <ele>64.3</ele>
        <time>2020-06-22T20:21:29Z</time>
      </trkpt>
      <trkpt lat="50.86129" lon="1.69309">
        <ele>64.3</ele>
        <time>2020-06-22T20:21:30Z</time>
      </trkpt>
      <trkpt lat="50.8613" lon="1.69315">
        <ele>64.5</ele>
        <time>2020-06-22T20:21:31Z</time>
      </trkpt>
      <trkpt lat="50.8613" lon="1.69317">
        <ele>64.6</ele>
        <time>2020-06-22T20:21:32Z</time>
      </trkpt>
      <trkpt lat="50.86132" lon="1.69322">
        <ele>64.8</ele>
        <time>2020-06-22T20:21:33Z</time>
      </trkpt>
      <trkpt lat="50.86133" lon="1.69326">
        <ele>65</ele>
        <time>2020-06-22T20:21:34Z</time>
      </trkpt>
      <trkpt lat="50.86136" lon="1.69331">
        <ele>65.2</ele>
        <time>2020-06-22T20:21:35Z</time>
      </trkpt>
      <trkpt lat="50.86137" lon="1.69335">
        <ele>65.4</ele>
        <time>2020-06-22T20:21:36Z</time>
      </trkpt>
      <trkpt lat="50.8614" lon="1.69339">
        <ele>65.6</ele>
        <time>2020-06-22T20:21:37Z</time>
      </trkpt>
      <trkpt lat="50.86142" lon="1.69342">
        <ele>65.8</ele>
        <time>2020-06-22T20:21:38Z</time>
      </trkpt>
      <trkpt lat="50.86146" lon="1.69347">
        <ele>66.1</ele>
        <time>2020-06-22T20:21:39Z</time>
      </trkpt>
      <trkpt lat="50.86148" lon="1.6935">
        <ele>66.2</ele>
        <time>2020-06-22T20:21:40Z</time>
      </trkpt>
      <trkpt lat="50.8615" lon="1.69353">
        <ele>66.4</ele>
        <time>2020-06-22T20:21:41Z</time>
      </trkpt>
      <trkpt lat="50.86153" lon="1.69358">
        <ele>66.5</ele>
        <time>2020-06-22T20:21:42Z</time>
      </trkpt>
      <trkpt lat="50.86153" lon="1.69359">
        <ele>66.6</ele>
        <time>2020-06-22T20:21:43Z</time>
      </trkpt>
      <trkpt lat="50.86156" lon="1.69365">
        <ele>66.8</ele>
        <time>2020-06-22T20:21:44Z</time>
      </trkpt>
      <trkpt lat="50.86156" lon="1.69367">
        <ele>66.9</ele>
        <time>2020-06-22T20:21:45Z</time>
      </trkpt>
      <trkpt lat="50.86158" lon="1.6937">
        <ele>67</ele>
        <time>2020-06-22T20:21:46Z</time>
      </trkpt>
      <trkpt lat="50.86161" lon="1.69375">
        <ele>67.1</ele>
        <time>2020-06-22T20:21:47Z</time>
      </trkpt>
      <trkpt lat="50.86162" lon="1.69376">
        <ele>67.2</ele>
        <time>2020-06-22T20:21:48Z</time>
      </trkpt>
      <trkpt lat="50.86165" lon="1.69379">
        <ele>67.3</ele>
        <time>2020-06-22T20:21:49Z</time>
      </trkpt>
      <trkpt lat="50.86166" lon="1.6938">
        <ele>67.4</ele>
        <time>2020-06-22T20:21:50Z</time>
      </trkpt>
      <trkpt lat="50.86169" lon="1.69384">
        <ele>67.5</ele>
        <time>2020-06-22T20:21:51Z</time>
      </trkpt>
      <trkpt lat="50.86169" lon="1.69384">
        <ele>67.6</ele>
        <time>2020-06-22T20:21:52Z</time>
      </trkpt>
      <trkpt lat="50.86171" lon="1.69386">
        <ele>67.6</ele>
        <time>2020-06-22T20:21:53Z</time>
      </trkpt>
      <trkpt lat="50.86173" lon="1.69387">
        <ele>67.7</ele>
        <time>2020-06-22T20:21:54Z</time>
      </trkpt>
      <trkpt lat="50.86175" lon="1.69389">
        <ele>67.8</ele>
        <time>2020-06-22T20:21:55Z</time>
      </trkpt>
      <trkpt lat="50.86176" lon="1.6939">
        <ele>67.8</ele>
        <time>2020-06-22T20:21:56Z</time>
      </trkpt>
      <trkpt lat="50.86179" lon="1.69393">
        <ele>67.9</ele>
        <time>2020-06-22T20:21:57Z</time>
      </trkpt>
      <trkpt lat="50.8618" lon="1.69394">
        <ele>68</ele>
        <time>2020-06-22T20:21:58Z</time>
      </trkpt>
      <trkpt lat="50.86182" lon="1.69397">
        <ele>68.1</ele>
        <time>2020-06-22T20:21:59Z</time>
      </trkpt>
      <trkpt lat="50.86185" lon="1.694">
        <ele>68.1</ele>
        <time>2020-06-22T20:22:00Z</time>
      </trkpt>
      <trkpt lat="50.86188" lon="1.69403">
        <ele>68.2</ele>
        <time>2020-06-22T20:22:01Z</time>
      </trkpt>
      <trkpt lat="50.86191" lon="1.69406">
        <ele>68.3</ele>
        <time>2020-06-22T20:22:02Z</time>
      </trkpt>
      <trkpt lat="50.86194" lon="1.69409">
        <ele>68.4</ele>
        <time>2020-06-22T20:22:03Z</time>
      </trkpt>
      <trkpt lat="50.86197" lon="1.69412">
        <ele>68.5</ele>
        <time>2020-06-22T20:22:04Z</time>
      </trkpt>
      <trkpt lat="50.862" lon="1.69416">
        <ele>68.5</ele>
        <time>2020-06-22T20:22:05Z</time>
      </trkpt>
      <trkpt lat="50.86202" lon="1.69419">
        <ele>68.6</ele>
        <time>2020-06-22T20:22:06Z</time>
      </trkpt>
      <trkpt lat="50.86204" lon="1.69423">
        <ele>68.7</ele>
        <time>2020-06-22T20:22:07Z</time>
      </trkpt>
      <trkpt lat="50.86207" lon="1.69426">
        <ele>68.8</ele>
        <time>2020-06-22T20:22:08Z</time>
      </trkpt>
      <trkpt lat="50.86209" lon="1.69432">
        <ele>68.9</ele>
        <time>2020-06-22T20:22:09Z</time>
      </trkpt>
      <trkpt lat="50.86211" lon="1.69437">
        <ele>68.9</ele>
        <time>2020-06-22T20:22:10Z</time>
      </trkpt>
      <trkpt lat="50.86214" lon="1.69443">
        <ele>69</ele>
        <time>2020-06-22T20:22:11Z</time>
      </trkpt>
      <trkpt lat="50.86217" lon="1.69449">
        <ele>69.1</ele>
        <time>2020-06-22T20:22:12Z</time>
      </trkpt>
      <trkpt lat="50.86219" lon="1.69454">
        <ele>69.2</ele>
        <time>2020-06-22T20:22:13Z</time>
      </trkpt>
      <trkpt lat="50.86221" lon="1.69458">
        <ele>69.2</ele>
        <time>2020-06-22T20:22:14Z</time>
      </trkpt>
      <trkpt lat="50.86224" lon="1.69462">
        <ele>69.2</ele>
        <time>2020-06-22T20:22:15Z</time>
      </trkpt>
      <trkpt lat="50.86226" lon="1.69466">
        <ele>69.2</ele>
        <time>2020-06-22T20:22:16Z</time>
      </trkpt>
      <trkpt lat="50.86228" lon="1.69471">
        <ele>69.2</ele>
        <time>2020-06-22T20:22:17Z</time>
      </trkpt>
      <trkpt lat="50.86229" lon="1.69476">
        <ele>69.2</ele>
        <time>2020-06-22T20:22:18Z</time>
      </trkpt>
      <trkpt lat="50.8623" lon="1.69481">
        <ele>69.2</ele>
        <time>2020-06-22T20:22:19Z</time>
      </trkpt>
      <trkpt lat="50.86231" lon="1.69486">
        <ele>69.1</ele>
        <time>2020-06-22T20:22:20Z</time>
      </trkpt>
      <trkpt lat="50.86233" lon="1.69491">
        <ele>69.1</ele>
        <time>2020-06-22T20:22:21Z</time>
      </trkpt>
      <trkpt lat="50.86234" lon="1.69497">
        <ele>69</ele>
        <time>2020-06-22T20:22:22Z</time>
      </trkpt>
      <trkpt lat="50.86235" lon="1.69503">
        <ele>68.9</ele>
        <time>2020-06-22T20:22:23Z</time>
      </trkpt>
      <trkpt lat="50.86237" lon="1.69508">
        <ele>68.8</ele>
        <time>2020-06-22T20:22:24Z</time>
      </trkpt>
      <trkpt lat="50.86238" lon="1.69514">
        <ele>68.7</ele>
        <time>2020-06-22T20:22:25Z</time>
      </trkpt>
      <trkpt lat="50.8624" lon="1.6952">
        <ele>68.6</ele>
        <time>2020-06-22T20:22:26Z</time>
      </trkpt>
      <trkpt lat="50.86241" lon="1.69527">
        <ele>68.4</ele>
        <time>2020-06-22T20:22:27Z</time>
      </trkpt>
      <trkpt lat="50.86243" lon="1.69534">
        <ele>68.3</ele>
        <time>2020-06-22T20:22:28Z</time>
      </trkpt>
      <trkpt lat="50.86245" lon="1.69541">
        <ele>68.1</ele>
        <time>2020-06-22T20:22:29Z</time>
      </trkpt>
      <trkpt lat="50.86247" lon="1.69548">
        <ele>67.8</ele>
        <time>2020-06-22T20:22:30Z</time>
      </trkpt>
      <trkpt lat="50.86248" lon="1.69555">
        <ele>67.5</ele>
        <time>2020-06-22T20:22:31Z</time>
      </trkpt>
      <trkpt lat="50.8625" lon="1.69563">
        <ele>67.3</ele>
        <time>2020-06-22T20:22:32Z</time>
      </trkpt>
      <trkpt lat="50.86251" lon="1.6957">
        <ele>67.2</ele>
        <time>2020-06-22T20:22:33Z</time>
      </trkpt>
      <trkpt lat="50.86251" lon="1.69577">
        <ele>67.1</ele>
        <time>2020-06-22T20:22:34Z</time>
      </trkpt>
      <trkpt lat="50.86251" lon="1.69585">
        <ele>67</ele>
        <time>2020-06-22T20:22:35Z</time>
      </trkpt>
      <trkpt lat="50.86251" lon="1.69593">
        <ele>66.9</ele>
        <time>2020-06-22T20:22:36Z</time>
      </trkpt>
      <trkpt lat="50.86251" lon="1.69602">
        <ele>66.7</ele>
        <time>2020-06-22T20:22:37Z</time>
      </trkpt>
      <trkpt lat="50.86251" lon="1.69611">
        <ele>66.5</ele>
        <time>2020-06-22T20:22:38Z</time>
      </trkpt>
      <trkpt lat="50.8625" lon="1.69621">
        <ele>66.4</ele>
        <time>2020-06-22T20:22:39Z</time>
      </trkpt>
      <trkpt lat="50.8625" lon="1.6963">
        <ele>66.4</ele>
        <time>2020-06-22T20:22:40Z</time>
      </trkpt>
      <trkpt lat="50.8625" lon="1.69639">
        <ele>66.3</ele>
        <time>2020-06-22T20:22:41Z</time>
      </trkpt>
      <trkpt lat="50.86249" lon="1.69647">
        <ele>66.1</ele>
        <time>2020-06-22T20:22:42Z</time>
      </trkpt>
      <trkpt lat="50.86249" lon="1.69656">
        <ele>65.9</ele>
        <time>2020-06-22T20:22:43Z</time>
      </trkpt>
      <trkpt lat="50.86249" lon="1.69666">
        <ele>65.7</ele>
        <time>2020-06-22T20:22:44Z</time>
      </trkpt>
      <trkpt lat="50.8625" lon="1.69675">
        <ele>65.5</ele>
        <time>2020-06-22T20:22:45Z</time>
      </trkpt>
      <trkpt lat="50.8625" lon="1.69684">
        <ele>65.3</ele>
        <time>2020-06-22T20:22:46Z</time>
      </trkpt>
      <trkpt lat="50.86251" lon="1.69693">
        <ele>65.2</ele>
        <time>2020-06-22T20:22:47Z</time>
      </trkpt>
      <trkpt lat="50.86252" lon="1.69703">
        <ele>65.1</ele>
        <time>2020-06-22T20:22:48Z</time>
      </trkpt>
      <trkpt lat="50.86252" lon="1.69712">
        <ele>65</ele>
        <time>2020-06-22T20:22:49Z</time>
      </trkpt>
      <trkpt lat="50.86253" lon="1.69722">
        <ele>64.9</ele>
        <time>2020-06-22T20:22:50Z</time>
      </trkpt>
      <trkpt lat="50.86253" lon="1.69732">
        <ele>64.8</ele>
        <time>2020-06-22T20:22:51Z</time>
      </trkpt>
      <trkpt lat="50.86254" lon="1.69741">
        <ele>64.8</ele>
        <time>2020-06-22T20:22:52Z</time>
      </trkpt>
      <trkpt lat="50.86254" lon="1.6975">
        <ele>64.7</ele>
        <time>2020-06-22T20:22:53Z</time>
      </trkpt>
      <trkpt lat="50.86254" lon="1.69758">
        <ele>64.7</ele>
        <time>2020-06-22T20:22:54Z</time>
      </trkpt>
      <trkpt lat="50.86255" lon="1.69767">
        <ele>64.7</ele>
        <time>2020-06-22T20:22:55Z</time>
      </trkpt>
      <trkpt lat="50.86255" lon="1.69774">
        <ele>64.7</ele>
        <time>2020-06-22T20:22:56Z</time>
      </trkpt>
      <trkpt lat="50.86254" lon="1.69781">
        <ele>64.7</ele>
        <time>2020-06-22T20:22:57Z</time>
      </trkpt>
      <trkpt lat="50.86252" lon="1.69788">
        <ele>64.7</ele>
        <time>2020-06-22T20:22:58Z</time>
      </trkpt>
      <trkpt lat="50.86251" lon="1.69796">
        <ele>64.7</ele>
        <time>2020-06-22T20:22:59Z</time>
      </trkpt>
      <trkpt lat="50.86252" lon="1.69803">
        <ele>64.7</ele>
        <time>2020-06-22T20:23:00Z</time>
      </trkpt>
      <trkpt lat="50.86252" lon="1.69811">
        <ele>64.7</ele>
        <time>2020-06-22T20:23:01Z</time>
      </trkpt>
      <trkpt lat="50.86252" lon="1.6982">
        <ele>64.7</ele>
        <time>2020-06-22T20:23:02Z</time>
      </trkpt>
      <trkpt lat="50.86253" lon="1.69829">
        <ele>64.7</ele>
        <time>2020-06-22T20:23:03Z</time>
      </trkpt>
      <trkpt lat="50.86254" lon="1.69836">
        <ele>64.8</ele>
        <time>2020-06-22T20:23:04Z</time>
      </trkpt>
      <trkpt lat="50.86255" lon="1.69843">
        <ele>64.8</ele>
        <time>2020-06-22T20:23:05Z</time>
      </trkpt>
      <trkpt lat="50.86256" lon="1.69851">
        <ele>64.8</ele>
        <time>2020-06-22T20:23:06Z</time>
      </trkpt>
      <trkpt lat="50.86258" lon="1.69856">
        <ele>64.9</ele>
        <time>2020-06-22T20:23:07Z</time>
      </trkpt>
      <trkpt lat="50.86258" lon="1.69863">
        <ele>64.9</ele>
        <time>2020-06-22T20:23:08Z</time>
      </trkpt>
      <trkpt lat="50.8626" lon="1.6987">
        <ele>65</ele>
        <time>2020-06-22T20:23:09Z</time>
      </trkpt>
      <trkpt lat="50.86261" lon="1.69878">
        <ele>65.1</ele>
        <time>2020-06-22T20:23:10Z</time>
      </trkpt>
      <trkpt lat="50.86262" lon="1.69887">
        <ele>65.2</ele>
        <time>2020-06-22T20:23:11Z</time>
      </trkpt>
      <trkpt lat="50.86263" lon="1.69895">
        <ele>65.3</ele>
        <time>2020-06-22T20:23:12Z</time>
      </trkpt>
      <trkpt lat="50.86265" lon="1.69903">
        <ele>65.4</ele>
        <time>2020-06-22T20:23:13Z</time>
      </trkpt>
      <trkpt lat="50.86266" lon="1.69911">
        <ele>65.5</ele>
        <time>2020-06-22T20:23:14Z</time>
      </trkpt>
      <trkpt lat="50.86267" lon="1.6992">
        <ele>65.6</ele>
        <time>2020-06-22T20:23:15Z</time>
      </trkpt>
      <trkpt lat="50.86267" lon="1.69927">
        <ele>65.7</ele>
        <time>2020-06-22T20:23:16Z</time>
      </trkpt>
      <trkpt lat="50.86267" lon="1.69934">
        <ele>65.8</ele>
        <time>2020-06-22T20:23:17Z</time>
      </trkpt>
      <trkpt lat="50.86268" lon="1.69942">
        <ele>65.9</ele>
        <time>2020-06-22T20:23:18Z</time>
      </trkpt>
      <trkpt lat="50.86269" lon="1.6995">
        <ele>66</ele>
        <time>2020-06-22T20:23:19Z</time>
      </trkpt>
      <trkpt lat="50.8627" lon="1.69957">
        <ele>66.1</ele>
        <time>2020-06-22T20:23:20Z</time>
      </trkpt>
      <trkpt lat="50.8627" lon="1.69965">
        <ele>66.2</ele>
        <time>2020-06-22T20:23:21Z</time>
      </trkpt>
      <trkpt lat="50.86271" lon="1.69972">
        <ele>66.4</ele>
        <time>2020-06-22T20:23:22Z</time>
      </trkpt>
      <trkpt lat="50.86271" lon="1.6998">
        <ele>66.5</ele>
        <time>2020-06-22T20:23:23Z</time>
      </trkpt>
      <trkpt lat="50.86272" lon="1.69987">
        <ele>66.7</ele>
        <time>2020-06-22T20:23:24Z</time>
      </trkpt>
      <trkpt lat="50.86272" lon="1.69994">
        <ele>66.9</ele>
        <time>2020-06-22T20:23:25Z</time>
      </trkpt>
      <trkpt lat="50.86273" lon="1.70001">
        <ele>67</ele>
        <time>2020-06-22T20:23:26Z</time>
      </trkpt>
      <trkpt lat="50.86274" lon="1.70008">
        <ele>67.1</ele>
        <time>2020-06-22T20:23:27Z</time>
      </trkpt>
      <trkpt lat="50.86275" lon="1.70015">
        <ele>67.3</ele>
        <time>2020-06-22T20:23:28Z</time>
      </trkpt>
      <trkpt lat="50.86276" lon="1.70022">
        <ele>67.4</ele>
        <time>2020-06-22T20:23:29Z</time>
      </trkpt>
      <trkpt lat="50.86277" lon="1.70029">
        <ele>67.6</ele>
        <time>2020-06-22T20:23:30Z</time>
      </trkpt>
      <trkpt lat="50.86278" lon="1.70035">
        <ele>67.8</ele>
        <time>2020-06-22T20:23:31Z</time>
      </trkpt>
      <trkpt lat="50.8628" lon="1.70042">
        <ele>67.9</ele>
        <time>2020-06-22T20:23:32Z</time>
      </trkpt>
      <trkpt lat="50.8628" lon="1.70048">
        <ele>68.1</ele>
        <time>2020-06-22T20:23:33Z</time>
      </trkpt>
      <trkpt lat="50.86281" lon="1.70054">
        <ele>68.3</ele>
        <time>2020-06-22T20:23:34Z</time>
      </trkpt>
      <trkpt lat="50.8628" lon="1.70062">
        <ele>68.5</ele>
        <time>2020-06-22T20:23:35Z</time>
      </trkpt>
      <trkpt lat="50.8628" lon="1.70068">
        <ele>68.6</ele>
        <time>2020-06-22T20:23:36Z</time>
      </trkpt>
      <trkpt lat="50.8628" lon="1.70074">
        <ele>68.8</ele>
        <time>2020-06-22T20:23:37Z</time>
      </trkpt>
      <trkpt lat="50.86281" lon="1.7008">
        <ele>69</ele>
        <time>2020-06-22T20:23:38Z</time>
      </trkpt>
      <trkpt lat="50.86281" lon="1.70087">
        <ele>69.2</ele>
        <time>2020-06-22T20:23:39Z</time>
      </trkpt>
      <trkpt lat="50.86281" lon="1.70093">
        <ele>69.4</ele>
        <time>2020-06-22T20:23:40Z</time>
      </trkpt>
      <trkpt lat="50.86282" lon="1.70099">
        <ele>69.6</ele>
        <time>2020-06-22T20:23:41Z</time>
      </trkpt>
      <trkpt lat="50.86282" lon="1.70104">
        <ele>69.8</ele>
        <time>2020-06-22T20:23:42Z</time>
      </trkpt>
      <trkpt lat="50.86282" lon="1.70109">
        <ele>70.1</ele>
        <time>2020-06-22T20:23:43Z</time>
      </trkpt>
      <trkpt lat="50.86281" lon="1.70115">
        <ele>70.3</ele>
        <time>2020-06-22T20:23:44Z</time>
      </trkpt>
      <trkpt lat="50.86281" lon="1.70121">
        <ele>70.5</ele>
        <time>2020-06-22T20:23:45Z</time>
      </trkpt>
      <trkpt lat="50.86281" lon="1.70126">
        <ele>70.8</ele>
        <time>2020-06-22T20:23:46Z</time>
      </trkpt>
      <trkpt lat="50.86281" lon="1.70132">
        <ele>71.1</ele>
        <time>2020-06-22T20:23:47Z</time>
      </trkpt>
      <trkpt lat="50.86281" lon="1.70137">
        <ele>71.3</ele>
        <time>2020-06-22T20:23:48Z</time>
      </trkpt>
      <trkpt lat="50.86281" lon="1.70141">
        <ele>71.5</ele>
        <time>2020-06-22T20:23:49Z</time>
      </trkpt>
      <trkpt lat="50.86282" lon="1.70147">
        <ele>71.8</ele>
        <time>2020-06-22T20:23:50Z</time>
      </trkpt>
      <trkpt lat="50.86282" lon="1.70149">
        <ele>71.8</ele>
        <time>2020-06-22T20:23:51Z</time>
      </trkpt>
      <trkpt lat="50.86283" lon="1.70154">
        <ele>72</ele>
        <time>2020-06-22T20:23:52Z</time>
      </trkpt>
      <trkpt lat="50.86284" lon="1.70159">
        <ele>72.3</ele>
        <time>2020-06-22T20:23:53Z</time>
      </trkpt>
      <trkpt lat="50.86284" lon="1.70161">
        <ele>72.4</ele>
        <time>2020-06-22T20:23:54Z</time>
      </trkpt>
      <trkpt lat="50.86285" lon="1.70167">
        <ele>72.7</ele>
        <time>2020-06-22T20:23:55Z</time>
      </trkpt>
      <trkpt lat="50.86285" lon="1.70169">
        <ele>72.8</ele>
        <time>2020-06-22T20:23:56Z</time>
      </trkpt>
      <trkpt lat="50.86285" lon="1.70174">
        <ele>73</ele>
        <time>2020-06-22T20:23:57Z</time>
      </trkpt>
      <trkpt lat="50.86285" lon="1.70175">
        <ele>73.1</ele>
        <time>2020-06-22T20:23:58Z</time>
      </trkpt>
      <trkpt lat="50.86286" lon="1.70178">
        <ele>73.2</ele>
        <time>2020-06-22T20:23:59Z</time>
      </trkpt>
      <trkpt lat="50.86286" lon="1.7018">
        <ele>73.3</ele>
        <time>2020-06-22T20:24:00Z</time>
      </trkpt>
      <trkpt lat="50.86286" lon="1.70183">
        <ele>73.5</ele>
        <time>2020-06-22T20:24:01Z</time>
      </trkpt>
      <trkpt lat="50.86286" lon="1.70185">
        <ele>73.6</ele>
        <time>2020-06-22T20:24:02Z</time>
      </trkpt>
      <trkpt lat="50.86286" lon="1.70188">
        <ele>73.7</ele>
        <time>2020-06-22T20:24:03Z</time>
      </trkpt>
      <trkpt lat="50.86286" lon="1.7019">
        <ele>73.8</ele>
        <time>2020-06-22T20:24:04Z</time>
      </trkpt>
      <trkpt lat="50.86285" lon="1.70191">
        <ele>73.9</ele>
        <time>2020-06-22T20:24:05Z</time>
      </trkpt>
      <trkpt lat="50.86284" lon="1.70194">
        <ele>74.1</ele>
        <time>2020-06-22T20:24:06Z</time>
      </trkpt>
      <trkpt lat="50.86284" lon="1.70195">
        <ele>74.2</ele>
        <time>2020-06-22T20:24:07Z</time>
      </trkpt>
      <trkpt lat="50.86283" lon="1.70196">
        <ele>74.3</ele>
        <time>2020-06-22T20:24:08Z</time>
      </trkpt>
      <trkpt lat="50.86282" lon="1.702">
        <ele>74.5</ele>
        <time>2020-06-22T20:24:09Z</time>
      </trkpt>
      <trkpt lat="50.86281" lon="1.70201">
        <ele>74.6</ele>
        <time>2020-06-22T20:24:10Z</time>
      </trkpt>
      <trkpt lat="50.8628" lon="1.70204">
        <ele>74.8</ele>
        <time>2020-06-22T20:24:11Z</time>
      </trkpt>
      <trkpt lat="50.86279" lon="1.70206">
        <ele>74.9</ele>
        <time>2020-06-22T20:24:12Z</time>
      </trkpt>
      <trkpt lat="50.86278" lon="1.70208">
        <ele>75.1</ele>
        <time>2020-06-22T20:24:13Z</time>
      </trkpt>
      <trkpt lat="50.86277" lon="1.7021">
        <ele>75.2</ele>
        <time>2020-06-22T20:24:14Z</time>
      </trkpt>
      <trkpt lat="50.86277" lon="1.70211">
        <ele>75.3</ele>
        <time>2020-06-22T20:24:15Z</time>
      </trkpt>
      <trkpt lat="50.86277" lon="1.70214">
        <ele>75.4</ele>
        <time>2020-06-22T20:24:16Z</time>
      </trkpt>
      <trkpt lat="50.86278" lon="1.70215">
        <ele>75.5</ele>
        <time>2020-06-22T20:24:17Z</time>
      </trkpt>
      <trkpt lat="50.86279" lon="1.70216">
        <ele>76.3</ele>
        <time>2020-06-22T20:24:18Z</time>
      </trkpt>
      <trkpt lat="50.86281" lon="1.70222">
        <ele>76.6</ele>
        <time>2020-06-22T20:24:19Z</time>
      </trkpt>
      <trkpt lat="50.86281" lon="1.70225">
        <ele>76.6</ele>
        <time>2020-06-22T20:24:20Z</time>
      </trkpt>
      <trkpt lat="50.86282" lon="1.70229">
        <ele>76.8</ele>
        <time>2020-06-22T20:24:21Z</time>
      </trkpt>
      <trkpt lat="50.86283" lon="1.70234">
        <ele>77</ele>
        <time>2020-06-22T20:24:22Z</time>
      </trkpt>
      <trkpt lat="50.86283" lon="1.70236">
        <ele>77</ele>
        <time>2020-06-22T20:24:23Z</time>
      </trkpt>
      <trkpt lat="50.86285" lon="1.70241">
        <ele>77.2</ele>
        <time>2020-06-22T20:24:24Z</time>
      </trkpt>
      <trkpt lat="50.86285" lon="1.70242">
        <ele>77.3</ele>
        <time>2020-06-22T20:24:25Z</time>
      </trkpt>
      <trkpt lat="50.86286" lon="1.70244">
        <ele>77.3</ele>
        <time>2020-06-22T20:24:26Z</time>
      </trkpt>
      <trkpt lat="50.86287" lon="1.70247">
        <ele>77.4</ele>
        <time>2020-06-22T20:24:27Z</time>
      </trkpt>
      <trkpt lat="50.8629" lon="1.70249">
        <ele>77.5</ele>
        <time>2020-06-22T20:24:28Z</time>
      </trkpt>
      <trkpt lat="50.86291" lon="1.70249">
        <ele>77.6</ele>
        <time>2020-06-22T20:24:29Z</time>
      </trkpt>
      <trkpt lat="50.86293" lon="1.70252">
        <ele>77.7</ele>
        <time>2020-06-22T20:24:30Z</time>
      </trkpt>
      <trkpt lat="50.86295" lon="1.70256">
        <ele>77.8</ele>
        <time>2020-06-22T20:24:31Z</time>
      </trkpt>
      <trkpt lat="50.86299" lon="1.70259">
        <ele>78</ele>
        <time>2020-06-22T20:24:32Z</time>
      </trkpt>
      <trkpt lat="50.863" lon="1.7026">
        <ele>78.1</ele>
        <time>2020-06-22T20:24:33Z</time>
      </trkpt>
      <trkpt lat="50.86302" lon="1.70262">
        <ele>78.2</ele>
        <time>2020-06-22T20:24:34Z</time>
      </trkpt>
      <trkpt lat="50.86305" lon="1.70265">
        <ele>78.3</ele>
        <time>2020-06-22T20:24:35Z</time>
      </trkpt>
      <trkpt lat="50.86307" lon="1.70268">
        <ele>78.5</ele>
        <time>2020-06-22T20:24:36Z</time>
      </trkpt>
      <trkpt lat="50.8631" lon="1.70271">
        <ele>78.6</ele>
        <time>2020-06-22T20:24:37Z</time>
      </trkpt>
      <trkpt lat="50.86313" lon="1.70276">
        <ele>78.8</ele>
        <time>2020-06-22T20:24:38Z</time>
      </trkpt>
      <trkpt lat="50.86315" lon="1.70279">
        <ele>78.9</ele>
        <time>2020-06-22T20:24:39Z</time>
      </trkpt>
      <trkpt lat="50.86317" lon="1.70283">
        <ele>79.1</ele>
        <time>2020-06-22T20:24:40Z</time>
      </trkpt>
      <trkpt lat="50.8632" lon="1.70287">
        <ele>79.3</ele>
        <time>2020-06-22T20:24:41Z</time>
      </trkpt>
      <trkpt lat="50.86322" lon="1.7029">
        <ele>79.4</ele>
        <time>2020-06-22T20:24:42Z</time>
      </trkpt>
      <trkpt lat="50.86325" lon="1.70293">
        <ele>79.5</ele>
        <time>2020-06-22T20:24:43Z</time>
      </trkpt>
      <trkpt lat="50.86327" lon="1.70297">
        <ele>79.7</ele>
        <time>2020-06-22T20:24:44Z</time>
      </trkpt>
      <trkpt lat="50.86328" lon="1.70299">
        <ele>79.7</ele>
        <time>2020-06-22T20:24:45Z</time>
      </trkpt>
      <trkpt lat="50.86331" lon="1.70302">
        <ele>79.9</ele>
        <time>2020-06-22T20:24:46Z</time>
      </trkpt>
      <trkpt lat="50.86333" lon="1.70305">
        <ele>80</ele>
        <time>2020-06-22T20:24:47Z</time>
      </trkpt>
      <trkpt lat="50.86336" lon="1.70309">
        <ele>80.2</ele>
        <time>2020-06-22T20:24:48Z</time>
      </trkpt>
      <trkpt lat="50.86337" lon="1.7031">
        <ele>80.2</ele>
        <time>2020-06-22T20:24:49Z</time>
      </trkpt>
      <trkpt lat="50.8634" lon="1.70313">
        <ele>80.4</ele>
        <time>2020-06-22T20:24:50Z</time>
      </trkpt>
      <trkpt lat="50.86342" lon="1.70316">
        <ele>80.5</ele>
        <time>2020-06-22T20:24:51Z</time>
      </trkpt>
      <trkpt lat="50.86345" lon="1.7032">
        <ele>80.7</ele>
        <time>2020-06-22T20:24:52Z</time>
      </trkpt>
      <trkpt lat="50.86347" lon="1.70324">
        <ele>80.8</ele>
        <time>2020-06-22T20:24:53Z</time>
      </trkpt>
      <trkpt lat="50.86349" lon="1.70328">
        <ele>81</ele>
        <time>2020-06-22T20:24:54Z</time>
      </trkpt>
      <trkpt lat="50.86352" lon="1.70333">
        <ele>81.2</ele>
        <time>2020-06-22T20:24:55Z</time>
      </trkpt>
      <trkpt lat="50.86354" lon="1.70337">
        <ele>81.4</ele>
        <time>2020-06-22T20:24:56Z</time>
      </trkpt>
      <trkpt lat="50.86356" lon="1.70341">
        <ele>81.5</ele>
        <time>2020-06-22T20:24:57Z</time>
      </trkpt>
      <trkpt lat="50.86358" lon="1.70347">
        <ele>81.8</ele>
        <time>2020-06-22T20:24:58Z</time>
      </trkpt>
      <trkpt lat="50.86359" lon="1.70349">
        <ele>81.9</ele>
        <time>2020-06-22T20:24:59Z</time>
      </trkpt>
      <trkpt lat="50.8636" lon="1.70353">
        <ele>82.1</ele>
        <time>2020-06-22T20:25:00Z</time>
      </trkpt>
      <trkpt lat="50.86362" lon="1.70358">
        <ele>82.3</ele>
        <time>2020-06-22T20:25:01Z</time>
      </trkpt>
      <trkpt lat="50.86363" lon="1.70359">
        <ele>82.3</ele>
        <time>2020-06-22T20:25:02Z</time>
      </trkpt>
      <trkpt lat="50.86365" lon="1.70364">
        <ele>82.6</ele>
        <time>2020-06-22T20:25:03Z</time>
      </trkpt>
      <trkpt lat="50.86366" lon="1.70366">
        <ele>82.7</ele>
        <time>2020-06-22T20:25:04Z</time>
      </trkpt>
      <trkpt lat="50.86367" lon="1.7037">
        <ele>82.9</ele>
        <time>2020-06-22T20:25:05Z</time>
      </trkpt>
      <trkpt lat="50.8637" lon="1.70374">
        <ele>83.1</ele>
        <time>2020-06-22T20:25:06Z</time>
      </trkpt>
      <trkpt lat="50.8637" lon="1.70376">
        <ele>83.2</ele>
        <time>2020-06-22T20:25:07Z</time>
      </trkpt>
      <trkpt lat="50.86372" lon="1.70379">
        <ele>83.4</ele>
        <time>2020-06-22T20:25:08Z</time>
      </trkpt>
      <trkpt lat="50.86373" lon="1.7038">
        <ele>83.4</ele>
        <time>2020-06-22T20:25:09Z</time>
      </trkpt>
      <trkpt lat="50.86375" lon="1.70385">
        <ele>83.6</ele>
        <time>2020-06-22T20:25:10Z</time>
      </trkpt>
      <trkpt lat="50.86375" lon="1.70387">
        <ele>83.7</ele>
        <time>2020-06-22T20:25:11Z</time>
      </trkpt>
      <trkpt lat="50.86376" lon="1.70392">
        <ele>83.9</ele>
        <time>2020-06-22T20:25:12Z</time>
      </trkpt>
      <trkpt lat="50.86376" lon="1.70393">
        <ele>83.9</ele>
        <time>2020-06-22T20:25:13Z</time>
      </trkpt>
      <trkpt lat="50.86377" lon="1.70398">
        <ele>84.1</ele>
        <time>2020-06-22T20:25:14Z</time>
      </trkpt>
      <trkpt lat="50.86377" lon="1.704">
        <ele>84.2</ele>
        <time>2020-06-22T20:25:15Z</time>
      </trkpt>
      <trkpt lat="50.86378" lon="1.70404">
        <ele>84.4</ele>
        <time>2020-06-22T20:25:16Z</time>
      </trkpt>
      <trkpt lat="50.8638" lon="1.70409">
        <ele>84.6</ele>
        <time>2020-06-22T20:25:17Z</time>
      </trkpt>
      <trkpt lat="50.8638" lon="1.70411">
        <ele>84.7</ele>
        <time>2020-06-22T20:25:18Z</time>
      </trkpt>
      <trkpt lat="50.86381" lon="1.70415">
        <ele>84.8</ele>
        <time>2020-06-22T20:25:19Z</time>
      </trkpt>
      <trkpt lat="50.86381" lon="1.70422">
        <ele>85.1</ele>
        <time>2020-06-22T20:25:20Z</time>
      </trkpt>
      <trkpt lat="50.8638" lon="1.70429">
        <ele>85.4</ele>
        <time>2020-06-22T20:25:21Z</time>
      </trkpt>
      <trkpt lat="50.8638" lon="1.70434">
        <ele>85.6</ele>
        <time>2020-06-22T20:25:22Z</time>
      </trkpt>
      <trkpt lat="50.8638" lon="1.70436">
        <ele>85.7</ele>
        <time>2020-06-22T20:25:23Z</time>
      </trkpt>
      <trkpt lat="50.86381" lon="1.70438">
        <ele>85.8</ele>
        <time>2020-06-22T20:25:24Z</time>
      </trkpt>
      <trkpt lat="50.86381" lon="1.70441">
        <ele>85.9</ele>
        <time>2020-06-22T20:25:25Z</time>
      </trkpt>
      <trkpt lat="50.86383" lon="1.70444">
        <ele>86.1</ele>
        <time>2020-06-22T20:25:26Z</time>
      </trkpt>
      <trkpt lat="50.86383" lon="1.70446">
        <ele>86.1</ele>
        <time>2020-06-22T20:25:27Z</time>
      </trkpt>
      <trkpt lat="50.86383" lon="1.70451">
        <ele>86.3</ele>
        <time>2020-06-22T20:25:28Z</time>
      </trkpt>
      <trkpt lat="50.86383" lon="1.70453">
        <ele>86.4</ele>
        <time>2020-06-22T20:25:29Z</time>
      </trkpt>
      <trkpt lat="50.86384" lon="1.70458">
        <ele>86.7</ele>
        <time>2020-06-22T20:25:30Z</time>
      </trkpt>
      <trkpt lat="50.86384" lon="1.7046">
        <ele>86.7</ele>
        <time>2020-06-22T20:25:31Z</time>
      </trkpt>
      <trkpt lat="50.86385" lon="1.70465">
        <ele>87</ele>
        <time>2020-06-22T20:25:32Z</time>
      </trkpt>
      <trkpt lat="50.86385" lon="1.70467">
        <ele>87</ele>
        <time>2020-06-22T20:25:33Z</time>
      </trkpt>
      <trkpt lat="50.86386" lon="1.7047">
        <ele>87.2</ele>
        <time>2020-06-22T20:25:34Z</time>
      </trkpt>
      <trkpt lat="50.86387" lon="1.70472">
        <ele>87.3</ele>
        <time>2020-06-22T20:25:35Z</time>
      </trkpt>
      <trkpt lat="50.86388" lon="1.70475">
        <ele>87.4</ele>
        <time>2020-06-22T20:25:36Z</time>
      </trkpt>
      <trkpt lat="50.86388" lon="1.70477">
        <ele>87.5</ele>
        <time>2020-06-22T20:25:37Z</time>
      </trkpt>
      <trkpt lat="50.86387" lon="1.7048">
        <ele>87.7</ele>
        <time>2020-06-22T20:25:38Z</time>
      </trkpt>
      <trkpt lat="50.86388" lon="1.70483">
        <ele>87.8</ele>
        <time>2020-06-22T20:25:39Z</time>
      </trkpt>
      <trkpt lat="50.86389" lon="1.70486">
        <ele>87.9</ele>
        <time>2020-06-22T20:25:40Z</time>
      </trkpt>
      <trkpt lat="50.86389" lon="1.70488">
        <ele>88</ele>
        <time>2020-06-22T20:25:41Z</time>
      </trkpt>
      <trkpt lat="50.8639" lon="1.7049">
        <ele>88.1</ele>
        <time>2020-06-22T20:25:42Z</time>
      </trkpt>
      <trkpt lat="50.86391" lon="1.70493">
        <ele>88.3</ele>
        <time>2020-06-22T20:25:43Z</time>
      </trkpt>
      <trkpt lat="50.86391" lon="1.70495">
        <ele>88.4</ele>
        <time>2020-06-22T20:25:44Z</time>
      </trkpt>
      <trkpt lat="50.86392" lon="1.70498">
        <ele>88.5</ele>
        <time>2020-06-22T20:25:45Z</time>
      </trkpt>
      <trkpt lat="50.86393" lon="1.70502">
        <ele>88.7</ele>
        <time>2020-06-22T20:25:46Z</time>
      </trkpt>
      <trkpt lat="50.86393" lon="1.70504">
        <ele>88.8</ele>
        <time>2020-06-22T20:25:47Z</time>
      </trkpt>
      <trkpt lat="50.86395" lon="1.70508">
        <ele>89</ele>
        <time>2020-06-22T20:25:48Z</time>
      </trkpt>
      <trkpt lat="50.86395" lon="1.70509">
        <ele>89</ele>
        <time>2020-06-22T20:25:49Z</time>
      </trkpt>
      <trkpt lat="50.86397" lon="1.70513">
        <ele>89.2</ele>
        <time>2020-06-22T20:25:50Z</time>
      </trkpt>
      <trkpt lat="50.86397" lon="1.70515">
        <ele>89.3</ele>
        <time>2020-06-22T20:25:51Z</time>
      </trkpt>
      <trkpt lat="50.86399" lon="1.70519">
        <ele>89.5</ele>
        <time>2020-06-22T20:25:52Z</time>
      </trkpt>
      <trkpt lat="50.86401" lon="1.70522">
        <ele>89.7</ele>
        <time>2020-06-22T20:25:53Z</time>
      </trkpt>
      <trkpt lat="50.86401" lon="1.70524">
        <ele>89.8</ele>
        <time>2020-06-22T20:25:54Z</time>
      </trkpt>
      <trkpt lat="50.86402" lon="1.70527">
        <ele>89.9</ele>
        <time>2020-06-22T20:25:55Z</time>
      </trkpt>
      <trkpt lat="50.86403" lon="1.70529">
        <ele>90</ele>
        <time>2020-06-22T20:25:56Z</time>
      </trkpt>
      <trkpt lat="50.86403" lon="1.70534">
        <ele>90.2</ele>
        <time>2020-06-22T20:25:57Z</time>
      </trkpt>
      <trkpt lat="50.86403" lon="1.70536">
        <ele>90.3</ele>
        <time>2020-06-22T20:25:58Z</time>
      </trkpt>
      <trkpt lat="50.86404" lon="1.70538">
        <ele>90.4</ele>
        <time>2020-06-22T20:25:59Z</time>
      </trkpt>
      <trkpt lat="50.86405" lon="1.7054">
        <ele>90.5</ele>
        <time>2020-06-22T20:26:00Z</time>
      </trkpt>
      <trkpt lat="50.86406" lon="1.70545">
        <ele>90.7</ele>
        <time>2020-06-22T20:26:01Z</time>
      </trkpt>
      <trkpt lat="50.86407" lon="1.70546">
        <ele>90.8</ele>
        <time>2020-06-22T20:26:02Z</time>
      </trkpt>
      <trkpt lat="50.86407" lon="1.70548">
        <ele>90.9</ele>
        <time>2020-06-22T20:26:03Z</time>
      </trkpt>
      <trkpt lat="50.86408" lon="1.70551">
        <ele>91</ele>
        <time>2020-06-22T20:26:04Z</time>
      </trkpt>
      <trkpt lat="50.8641" lon="1.70555">
        <ele>91.2</ele>
        <time>2020-06-22T20:26:05Z</time>
      </trkpt>
      <trkpt lat="50.8641" lon="1.70556">
        <ele>91.2</ele>
        <time>2020-06-22T20:26:06Z</time>
      </trkpt>
      <trkpt lat="50.86411" lon="1.70557">
        <ele>91.3</ele>
        <time>2020-06-22T20:26:07Z</time>
      </trkpt>
      <trkpt lat="50.86412" lon="1.70558">
        <ele>91.4</ele>
        <time>2020-06-22T20:26:08Z</time>
      </trkpt>
      <trkpt lat="50.86414" lon="1.70561">
        <ele>91.6</ele>
        <time>2020-06-22T20:26:09Z</time>
      </trkpt>
      <trkpt lat="50.86414" lon="1.70563">
        <ele>91.6</ele>
        <time>2020-06-22T20:26:10Z</time>
      </trkpt>
      <trkpt lat="50.86415" lon="1.70565">
        <ele>91.8</ele>
        <time>2020-06-22T20:26:11Z</time>
      </trkpt>
      <trkpt lat="50.86415" lon="1.70567">
        <ele>91.8</ele>
        <time>2020-06-22T20:26:12Z</time>
      </trkpt>
      <trkpt lat="50.86416" lon="1.70569">
        <ele>91.9</ele>
        <time>2020-06-22T20:26:13Z</time>
      </trkpt>
      <trkpt lat="50.86416" lon="1.7057">
        <ele>92</ele>
        <time>2020-06-22T20:26:14Z</time>
      </trkpt>
      <trkpt lat="50.86417" lon="1.70572">
        <ele>92.1</ele>
        <time>2020-06-22T20:26:15Z</time>
      </trkpt>
      <trkpt lat="50.86418" lon="1.70574">
        <ele>92.2</ele>
        <time>2020-06-22T20:26:16Z</time>
      </trkpt>
      <trkpt lat="50.86418" lon="1.70576">
        <ele>92.3</ele>
        <time>2020-06-22T20:26:17Z</time>
      </trkpt>
      <trkpt lat="50.86419" lon="1.70577">
        <ele>92.3</ele>
        <time>2020-06-22T20:26:18Z</time>
      </trkpt>
      <trkpt lat="50.8642" lon="1.70579">
        <ele>92.4</ele>
        <time>2020-06-22T20:26:19Z</time>
      </trkpt>
      <trkpt lat="50.86421" lon="1.70581">
        <ele>92.5</ele>
        <time>2020-06-22T20:26:20Z</time>
      </trkpt>
      <trkpt lat="50.86422" lon="1.70582">
        <ele>92.6</ele>
        <time>2020-06-22T20:26:21Z</time>
      </trkpt>
      <trkpt lat="50.86423" lon="1.70583">
        <ele>92.7</ele>
        <time>2020-06-22T20:26:22Z</time>
      </trkpt>
      <trkpt lat="50.86423" lon="1.70584">
        <ele>92.8</ele>
        <time>2020-06-22T20:26:23Z</time>
      </trkpt>
      <trkpt lat="50.86424" lon="1.70586">
        <ele>92.9</ele>
        <time>2020-06-22T20:26:24Z</time>
      </trkpt>
      <trkpt lat="50.86425" lon="1.70592">
        <ele>93.1</ele>
        <time>2020-06-22T20:26:25Z</time>
      </trkpt>
      <trkpt lat="50.86425" lon="1.70594">
        <ele>93.2</ele>
        <time>2020-06-22T20:26:26Z</time>
      </trkpt>
      <trkpt lat="50.86426" lon="1.70596">
        <ele>93.3</ele>
        <time>2020-06-22T20:26:27Z</time>
      </trkpt>
      <trkpt lat="50.86427" lon="1.70598">
        <ele>93.4</ele>
        <time>2020-06-22T20:26:28Z</time>
      </trkpt>
      <trkpt lat="50.86428" lon="1.706">
        <ele>93.5</ele>
        <time>2020-06-22T20:26:29Z</time>
      </trkpt>
      <trkpt lat="50.86429" lon="1.70601">
        <ele>93.6</ele>
        <time>2020-06-22T20:26:30Z</time>
      </trkpt>
      <trkpt lat="50.86429" lon="1.70602">
        <ele>93.7</ele>
        <time>2020-06-22T20:26:31Z</time>
      </trkpt>
      <trkpt lat="50.8643" lon="1.70605">
        <ele>93.8</ele>
        <time>2020-06-22T20:26:32Z</time>
      </trkpt>
      <trkpt lat="50.8643" lon="1.70608">
        <ele>93.9</ele>
        <time>2020-06-22T20:26:33Z</time>
      </trkpt>
      <trkpt lat="50.86431" lon="1.70612">
        <ele>94.1</ele>
        <time>2020-06-22T20:26:34Z</time>
      </trkpt>
      <trkpt lat="50.86431" lon="1.70614">
        <ele>94.2</ele>
        <time>2020-06-22T20:26:35Z</time>
      </trkpt>
      <trkpt lat="50.86432" lon="1.70619">
        <ele>94.4</ele>
        <time>2020-06-22T20:26:36Z</time>
      </trkpt>
      <trkpt lat="50.86432" lon="1.70621">
        <ele>94.4</ele>
        <time>2020-06-22T20:26:37Z</time>
      </trkpt>
      <trkpt lat="50.86433" lon="1.70627">
        <ele>94.7</ele>
        <time>2020-06-22T20:26:38Z</time>
      </trkpt>
      <trkpt lat="50.86433" lon="1.70633">
        <ele>94.9</ele>
        <time>2020-06-22T20:26:39Z</time>
      </trkpt>
      <trkpt lat="50.86433" lon="1.70635">
        <ele>95</ele>
        <time>2020-06-22T20:26:40Z</time>
      </trkpt>
      <trkpt lat="50.86434" lon="1.70637">
        <ele>95.1</ele>
        <time>2020-06-22T20:26:41Z</time>
      </trkpt>
      <trkpt lat="50.86433" lon="1.7064">
        <ele>95.2</ele>
        <time>2020-06-22T20:26:42Z</time>
      </trkpt>
      <trkpt lat="50.86434" lon="1.70644">
        <ele>95.3</ele>
        <time>2020-06-22T20:26:43Z</time>
      </trkpt>
      <trkpt lat="50.86434" lon="1.70645">
        <ele>95.6</ele>
        <time>2020-06-22T20:26:44Z</time>
      </trkpt>
      <trkpt lat="50.86434" lon="1.70647">
        <ele>95.7</ele>
        <time>2020-06-22T20:26:45Z</time>
      </trkpt>
      <trkpt lat="50.86434" lon="1.70652">
        <ele>95.8</ele>
        <time>2020-06-22T20:26:46Z</time>
      </trkpt>
      <trkpt lat="50.86433" lon="1.70654">
        <ele>95.8</ele>
        <time>2020-06-22T20:26:47Z</time>
      </trkpt>
      <trkpt lat="50.86433" lon="1.70658">
        <ele>95.9</ele>
        <time>2020-06-22T20:26:48Z</time>
      </trkpt>
      <trkpt lat="50.86432" lon="1.70662">
        <ele>95.9</ele>
        <time>2020-06-22T20:26:49Z</time>
      </trkpt>
      <trkpt lat="50.8643" lon="1.70667">
        <ele>96</ele>
        <time>2020-06-22T20:26:50Z</time>
      </trkpt>
      <trkpt lat="50.8643" lon="1.70668">
        <ele>96</ele>
        <time>2020-06-22T20:26:51Z</time>
      </trkpt>
      <trkpt lat="50.86429" lon="1.70674">
        <ele>96</ele>
        <time>2020-06-22T20:26:52Z</time>
      </trkpt>
      <trkpt lat="50.86428" lon="1.70675">
        <ele>96.1</ele>
        <time>2020-06-22T20:26:53Z</time>
      </trkpt>
      <trkpt lat="50.86427" lon="1.7068">
        <ele>96.1</ele>
        <time>2020-06-22T20:26:54Z</time>
      </trkpt>
      <trkpt lat="50.86426" lon="1.70682">
        <ele>96.1</ele>
        <time>2020-06-22T20:26:55Z</time>
      </trkpt>
      <trkpt lat="50.86424" lon="1.70686">
        <ele>96.1</ele>
        <time>2020-06-22T20:26:56Z</time>
      </trkpt>
      <trkpt lat="50.86423" lon="1.70687">
        <ele>96.1</ele>
        <time>2020-06-22T20:26:57Z</time>
      </trkpt>
      <trkpt lat="50.86421" lon="1.70692">
        <ele>96.1</ele>
        <time>2020-06-22T20:26:58Z</time>
      </trkpt>
      <trkpt lat="50.8642" lon="1.70694">
        <ele>96.1</ele>
        <time>2020-06-22T20:26:59Z</time>
      </trkpt>
      <trkpt lat="50.86418" lon="1.70697">
        <ele>96.1</ele>
        <time>2020-06-22T20:27:00Z</time>
      </trkpt>
      <trkpt lat="50.86416" lon="1.70701">
        <ele>96.1</ele>
        <time>2020-06-22T20:27:01Z</time>
      </trkpt>
      <trkpt lat="50.86413" lon="1.70704">
        <ele>96</ele>
        <time>2020-06-22T20:27:02Z</time>
      </trkpt>
      <trkpt lat="50.8641" lon="1.70708">
        <ele>95.9</ele>
        <time>2020-06-22T20:27:03Z</time>
      </trkpt>
      <trkpt lat="50.86406" lon="1.70712">
        <ele>95.7</ele>
        <time>2020-06-22T20:27:04Z</time>
      </trkpt>
      <trkpt lat="50.86402" lon="1.70717">
        <ele>95.6</ele>
        <time>2020-06-22T20:27:05Z</time>
      </trkpt>
      <trkpt lat="50.86398" lon="1.70722">
        <ele>95.3</ele>
        <time>2020-06-22T20:27:06Z</time>
      </trkpt>
      <trkpt lat="50.86394" lon="1.70727">
        <ele>95.1</ele>
        <time>2020-06-22T20:27:07Z</time>
      </trkpt>
      <trkpt lat="50.8639" lon="1.70733">
        <ele>94.8</ele>
        <time>2020-06-22T20:27:08Z</time>
      </trkpt>
      <trkpt lat="50.86386" lon="1.7074">
        <ele>94.5</ele>
        <time>2020-06-22T20:27:09Z</time>
      </trkpt>
      <trkpt lat="50.86382" lon="1.70745">
        <ele>94.2</ele>
        <time>2020-06-22T20:27:10Z</time>
      </trkpt>
      <trkpt lat="50.86378" lon="1.70752">
        <ele>93.8</ele>
        <time>2020-06-22T20:27:11Z</time>
      </trkpt>
      <trkpt lat="50.86373" lon="1.70758">
        <ele>93.5</ele>
        <time>2020-06-22T20:27:12Z</time>
      </trkpt>
      <trkpt lat="50.86368" lon="1.70765">
        <ele>93.1</ele>
        <time>2020-06-22T20:27:13Z</time>
      </trkpt>
      <trkpt lat="50.86364" lon="1.70772">
        <ele>92.7</ele>
        <time>2020-06-22T20:27:14Z</time>
      </trkpt>
      <trkpt lat="50.86358" lon="1.7078">
        <ele>92.3</ele>
        <time>2020-06-22T20:27:15Z</time>
      </trkpt>
      <trkpt lat="50.86353" lon="1.70787">
        <ele>91.8</ele>
        <time>2020-06-22T20:27:16Z</time>
      </trkpt>
      <trkpt lat="50.86347" lon="1.70795">
        <ele>91.3</ele>
        <time>2020-06-22T20:27:17Z</time>
      </trkpt>
      <trkpt lat="50.86341" lon="1.70803">
        <ele>90.9</ele>
        <time>2020-06-22T20:27:18Z</time>
      </trkpt>
      <trkpt lat="50.86335" lon="1.70813">
        <ele>90.4</ele>
        <time>2020-06-22T20:27:19Z</time>
      </trkpt>
      <trkpt lat="50.86329" lon="1.70822">
        <ele>89.9</ele>
        <time>2020-06-22T20:27:20Z</time>
      </trkpt>
      <trkpt lat="50.86322" lon="1.70832">
        <ele>89.4</ele>
        <time>2020-06-22T20:27:21Z</time>
      </trkpt>
      <trkpt lat="50.86317" lon="1.7084">
        <ele>89</ele>
        <time>2020-06-22T20:27:22Z</time>
      </trkpt>
      <trkpt lat="50.86311" lon="1.70851">
        <ele>88.5</ele>
        <time>2020-06-22T20:27:23Z</time>
      </trkpt>
      <trkpt lat="50.86305" lon="1.70861">
        <ele>88.2</ele>
        <time>2020-06-22T20:27:24Z</time>
      </trkpt>
      <trkpt lat="50.863" lon="1.70871">
        <ele>87.8</ele>
        <time>2020-06-22T20:27:25Z</time>
      </trkpt>
      <trkpt lat="50.86295" lon="1.70881">
        <ele>87.5</ele>
        <time>2020-06-22T20:27:26Z</time>
      </trkpt>
      <trkpt lat="50.86289" lon="1.70889">
        <ele>87.2</ele>
        <time>2020-06-22T20:27:27Z</time>
      </trkpt>
      <trkpt lat="50.86283" lon="1.70897">
        <ele>87</ele>
        <time>2020-06-22T20:27:28Z</time>
      </trkpt>
      <trkpt lat="50.86278" lon="1.70907">
        <ele>86.8</ele>
        <time>2020-06-22T20:27:29Z</time>
      </trkpt>
      <trkpt lat="50.86273" lon="1.70915">
        <ele>86.6</ele>
        <time>2020-06-22T20:27:30Z</time>
      </trkpt>
      <trkpt lat="50.86267" lon="1.70923">
        <ele>86.5</ele>
        <time>2020-06-22T20:27:31Z</time>
      </trkpt>
      <trkpt lat="50.86262" lon="1.70932">
        <ele>86.4</ele>
        <time>2020-06-22T20:27:32Z</time>
      </trkpt>
      <trkpt lat="50.86257" lon="1.7094">
        <ele>86.2</ele>
        <time>2020-06-22T20:27:33Z</time>
      </trkpt>
      <trkpt lat="50.86252" lon="1.70948">
        <ele>86.1</ele>
        <time>2020-06-22T20:27:34Z</time>
      </trkpt>
      <trkpt lat="50.86247" lon="1.70956">
        <ele>86</ele>
        <time>2020-06-22T20:27:35Z</time>
      </trkpt>
      <trkpt lat="50.86242" lon="1.70963">
        <ele>85.9</ele>
        <time>2020-06-22T20:27:36Z</time>
      </trkpt>
      <trkpt lat="50.86237" lon="1.70971">
        <ele>85.9</ele>
        <time>2020-06-22T20:27:37Z</time>
      </trkpt>
      <trkpt lat="50.86232" lon="1.70979">
        <ele>85.9</ele>
        <time>2020-06-22T20:27:38Z</time>
      </trkpt>
      <trkpt lat="50.86228" lon="1.70986">
        <ele>85.9</ele>
        <time>2020-06-22T20:27:39Z</time>
      </trkpt>
      <trkpt lat="50.86224" lon="1.70993">
        <ele>86</ele>
        <time>2020-06-22T20:27:40Z</time>
      </trkpt>
      <trkpt lat="50.8622" lon="1.71">
        <ele>86</ele>
        <time>2020-06-22T20:27:41Z</time>
      </trkpt>
      <trkpt lat="50.86216" lon="1.71007">
        <ele>86</ele>
        <time>2020-06-22T20:27:42Z</time>
      </trkpt>
      <trkpt lat="50.86213" lon="1.71015">
        <ele>86</ele>
        <time>2020-06-22T20:27:43Z</time>
      </trkpt>
      <trkpt lat="50.8621" lon="1.71021">
        <ele>86</ele>
        <time>2020-06-22T20:27:44Z</time>
      </trkpt>
      <trkpt lat="50.86207" lon="1.71028">
        <ele>86.1</ele>
        <time>2020-06-22T20:27:45Z</time>
      </trkpt>
      <trkpt lat="50.86202" lon="1.71033">
        <ele>86.2</ele>
        <time>2020-06-22T20:27:46Z</time>
      </trkpt>
      <trkpt lat="50.86198" lon="1.71038">
        <ele>86.3</ele>
        <time>2020-06-22T20:27:47Z</time>
      </trkpt>
      <trkpt lat="50.86193" lon="1.71043">
        <ele>86.4</ele>
        <time>2020-06-22T20:27:48Z</time>
      </trkpt>
      <trkpt lat="50.86189" lon="1.71051">
        <ele>86.6</ele>
        <time>2020-06-22T20:27:49Z</time>
      </trkpt>
      <trkpt lat="50.86185" lon="1.71058">
        <ele>86.9</ele>
        <time>2020-06-22T20:27:50Z</time>
      </trkpt>
      <trkpt lat="50.8618" lon="1.71065">
        <ele>87.1</ele>
        <time>2020-06-22T20:27:51Z</time>
      </trkpt>
      <trkpt lat="50.86176" lon="1.71072">
        <ele>87.4</ele>
        <time>2020-06-22T20:27:52Z</time>
      </trkpt>
      <trkpt lat="50.86171" lon="1.71079">
        <ele>87.7</ele>
        <time>2020-06-22T20:27:53Z</time>
      </trkpt>
      <trkpt lat="50.86166" lon="1.71087">
        <ele>88</ele>
        <time>2020-06-22T20:27:54Z</time>
      </trkpt>
      <trkpt lat="50.86162" lon="1.71095">
        <ele>88.4</ele>
        <time>2020-06-22T20:27:55Z</time>
      </trkpt>
      <trkpt lat="50.86157" lon="1.71102">
        <ele>88.7</ele>
        <time>2020-06-22T20:27:56Z</time>
      </trkpt>
      <trkpt lat="50.86152" lon="1.7111">
        <ele>89.1</ele>
        <time>2020-06-22T20:27:57Z</time>
      </trkpt>
      <trkpt lat="50.86148" lon="1.71117">
        <ele>89.5</ele>
        <time>2020-06-22T20:27:58Z</time>
      </trkpt>
      <trkpt lat="50.86145" lon="1.71124">
        <ele>89.9</ele>
        <time>2020-06-22T20:27:59Z</time>
      </trkpt>
      <trkpt lat="50.86141" lon="1.71131">
        <ele>90.3</ele>
        <time>2020-06-22T20:28:00Z</time>
      </trkpt>
      <trkpt lat="50.86137" lon="1.71138">
        <ele>90.7</ele>
        <time>2020-06-22T20:28:01Z</time>
      </trkpt>
      <trkpt lat="50.86134" lon="1.71144">
        <ele>91.2</ele>
        <time>2020-06-22T20:28:02Z</time>
      </trkpt>
      <trkpt lat="50.8613" lon="1.7115">
        <ele>91.6</ele>
        <time>2020-06-22T20:28:03Z</time>
      </trkpt>
      <trkpt lat="50.86126" lon="1.71154">
        <ele>92</ele>
        <time>2020-06-22T20:28:04Z</time>
      </trkpt>
      <trkpt lat="50.86123" lon="1.71159">
        <ele>92.3</ele>
        <time>2020-06-22T20:28:05Z</time>
      </trkpt>
      <trkpt lat="50.8612" lon="1.71164">
        <ele>92.6</ele>
        <time>2020-06-22T20:28:06Z</time>
      </trkpt>
      <trkpt lat="50.86118" lon="1.71168">
        <ele>92.9</ele>
        <time>2020-06-22T20:28:07Z</time>
      </trkpt>
      <trkpt lat="50.86115" lon="1.71172">
        <ele>93.2</ele>
        <time>2020-06-22T20:28:08Z</time>
      </trkpt>
      <trkpt lat="50.86113" lon="1.71176">
        <ele>93.5</ele>
        <time>2020-06-22T20:28:09Z</time>
      </trkpt>
      <trkpt lat="50.86111" lon="1.7118">
        <ele>93.7</ele>
        <time>2020-06-22T20:28:10Z</time>
      </trkpt>
      <trkpt lat="50.86109" lon="1.71183">
        <ele>94</ele>
        <time>2020-06-22T20:28:11Z</time>
      </trkpt>
      <trkpt lat="50.86106" lon="1.71188">
        <ele>94.3</ele>
        <time>2020-06-22T20:28:12Z</time>
      </trkpt>
      <trkpt lat="50.86104" lon="1.71191">
        <ele>94.5</ele>
        <time>2020-06-22T20:28:13Z</time>
      </trkpt>
      <trkpt lat="50.86102" lon="1.71195">
        <ele>94.8</ele>
        <time>2020-06-22T20:28:14Z</time>
      </trkpt>
      <trkpt lat="50.861" lon="1.71198">
        <ele>95.1</ele>
        <time>2020-06-22T20:28:15Z</time>
      </trkpt>
      <trkpt lat="50.86097" lon="1.71202">
        <ele>95.4</ele>
        <time>2020-06-22T20:28:16Z</time>
      </trkpt>
      <trkpt lat="50.86094" lon="1.71206">
        <ele>95.7</ele>
        <time>2020-06-22T20:28:17Z</time>
      </trkpt>
      <trkpt lat="50.8609" lon="1.71209">
        <ele>96.1</ele>
        <time>2020-06-22T20:28:18Z</time>
      </trkpt>
      <trkpt lat="50.86086" lon="1.71212">
        <ele>96.5</ele>
        <time>2020-06-22T20:28:19Z</time>
      </trkpt>
      <trkpt lat="50.86083" lon="1.71215">
        <ele>96.8</ele>
        <time>2020-06-22T20:28:20Z</time>
      </trkpt>
      <trkpt lat="50.8608" lon="1.7122">
        <ele>97.1</ele>
        <time>2020-06-22T20:28:21Z</time>
      </trkpt>
      <trkpt lat="50.86079" lon="1.71222">
        <ele>97.2</ele>
        <time>2020-06-22T20:28:22Z</time>
      </trkpt>
      <trkpt lat="50.86076" lon="1.71226">
        <ele>97.5</ele>
        <time>2020-06-22T20:28:23Z</time>
      </trkpt>
      <trkpt lat="50.86075" lon="1.71228">
        <ele>97.7</ele>
        <time>2020-06-22T20:28:24Z</time>
      </trkpt>
      <trkpt lat="50.86072" lon="1.71232">
        <ele>98</ele>
        <time>2020-06-22T20:28:25Z</time>
      </trkpt>
      <trkpt lat="50.8607" lon="1.71237">
        <ele>98.2</ele>
        <time>2020-06-22T20:28:26Z</time>
      </trkpt>
      <trkpt lat="50.86067" lon="1.7124">
        <ele>98.5</ele>
        <time>2020-06-22T20:28:27Z</time>
      </trkpt>
      <trkpt lat="50.86065" lon="1.71245">
        <ele>98.7</ele>
        <time>2020-06-22T20:28:28Z</time>
      </trkpt>
      <trkpt lat="50.86064" lon="1.71247">
        <ele>98.8</ele>
        <time>2020-06-22T20:28:29Z</time>
      </trkpt>
      <trkpt lat="50.86062" lon="1.7125">
        <ele>99</ele>
        <time>2020-06-22T20:28:30Z</time>
      </trkpt>
      <trkpt lat="50.86059" lon="1.71254">
        <ele>99.2</ele>
        <time>2020-06-22T20:28:31Z</time>
      </trkpt>
      <trkpt lat="50.86057" lon="1.71257">
        <ele>99.4</ele>
        <time>2020-06-22T20:28:32Z</time>
      </trkpt>
      <trkpt lat="50.86053" lon="1.71262">
        <ele>99.6</ele>
        <time>2020-06-22T20:28:33Z</time>
      </trkpt>
      <trkpt lat="50.8605" lon="1.71265">
        <ele>99.8</ele>
        <time>2020-06-22T20:28:34Z</time>
      </trkpt>
      <trkpt lat="50.86047" lon="1.71268">
        <ele>99.9</ele>
        <time>2020-06-22T20:28:35Z</time>
      </trkpt>
      <trkpt lat="50.86045" lon="1.71271">
        <ele>99.9</ele>
        <time>2020-06-22T20:28:36Z</time>
      </trkpt>
      <trkpt lat="50.86042" lon="1.71274">
        <ele>100</ele>
        <time>2020-06-22T20:28:37Z</time>
      </trkpt>
      <trkpt lat="50.86039" lon="1.71277">
        <ele>100</ele>
        <time>2020-06-22T20:28:38Z</time>
      </trkpt>
      <trkpt lat="50.86036" lon="1.71281">
        <ele>100</ele>
        <time>2020-06-22T20:28:39Z</time>
      </trkpt>
      <trkpt lat="50.86035" lon="1.71282">
        <ele>100</ele>
        <time>2020-06-22T20:28:40Z</time>
      </trkpt>
      <trkpt lat="50.86033" lon="1.71285">
        <ele>100</ele>
        <time>2020-06-22T20:28:41Z</time>
      </trkpt>
      <trkpt lat="50.8603" lon="1.71288">
        <ele>100</ele>
        <time>2020-06-22T20:28:42Z</time>
      </trkpt>
      <trkpt lat="50.86028" lon="1.71292">
        <ele>99.9</ele>
        <time>2020-06-22T20:28:43Z</time>
      </trkpt>
      <trkpt lat="50.86025" lon="1.71297">
        <ele>99.9</ele>
        <time>2020-06-22T20:28:44Z</time>
      </trkpt>
      <trkpt lat="50.86024" lon="1.71299">
        <ele>99.8</ele>
        <time>2020-06-22T20:28:45Z</time>
      </trkpt>
      <trkpt lat="50.86022" lon="1.71303">
        <ele>99.7</ele>
        <time>2020-06-22T20:28:46Z</time>
      </trkpt>
      <trkpt lat="50.86019" lon="1.71307">
        <ele>99.6</ele>
        <time>2020-06-22T20:28:47Z</time>
      </trkpt>
      <trkpt lat="50.86016" lon="1.71312">
        <ele>99.4</ele>
        <time>2020-06-22T20:28:48Z</time>
      </trkpt>
      <trkpt lat="50.86013" lon="1.71317">
        <ele>99.2</ele>
        <time>2020-06-22T20:28:49Z</time>
      </trkpt>
      <trkpt lat="50.86012" lon="1.71319">
        <ele>99.1</ele>
        <time>2020-06-22T20:28:50Z</time>
      </trkpt>
      <trkpt lat="50.86009" lon="1.71325">
        <ele>98.9</ele>
        <time>2020-06-22T20:28:51Z</time>
      </trkpt>
      <trkpt lat="50.86006" lon="1.71331">
        <ele>98.6</ele>
        <time>2020-06-22T20:28:52Z</time>
      </trkpt>
      <trkpt lat="50.86004" lon="1.71336">
        <ele>98.4</ele>
        <time>2020-06-22T20:28:53Z</time>
      </trkpt>
      <trkpt lat="50.86001" lon="1.7134">
        <ele>98.1</ele>
        <time>2020-06-22T20:28:54Z</time>
      </trkpt>
      <trkpt lat="50.85997" lon="1.71347">
        <ele>97.7</ele>
        <time>2020-06-22T20:28:55Z</time>
      </trkpt>
      <trkpt lat="50.85993" lon="1.71355">
        <ele>97.3</ele>
        <time>2020-06-22T20:28:56Z</time>
      </trkpt>
      <trkpt lat="50.85989" lon="1.71361">
        <ele>96.9</ele>
        <time>2020-06-22T20:28:57Z</time>
      </trkpt>
      <trkpt lat="50.85985" lon="1.71369">
        <ele>96.5</ele>
        <time>2020-06-22T20:28:58Z</time>
      </trkpt>
      <trkpt lat="50.85979" lon="1.71377">
        <ele>96</ele>
        <time>2020-06-22T20:28:59Z</time>
      </trkpt>
      <trkpt lat="50.85975" lon="1.71385">
        <ele>95.5</ele>
        <time>2020-06-22T20:29:00Z</time>
      </trkpt>
      <trkpt lat="50.8597" lon="1.71393">
        <ele>95</ele>
        <time>2020-06-22T20:29:01Z</time>
      </trkpt>
      <trkpt lat="50.85966" lon="1.71403">
        <ele>94.4</ele>
        <time>2020-06-22T20:29:02Z</time>
      </trkpt>
      <trkpt lat="50.85962" lon="1.71413">
        <ele>93.9</ele>
        <time>2020-06-22T20:29:03Z</time>
      </trkpt>
      <trkpt lat="50.85959" lon="1.71424">
        <ele>93.3</ele>
        <time>2020-06-22T20:29:04Z</time>
      </trkpt>
      <trkpt lat="50.85955" lon="1.71437">
        <ele>92.7</ele>
        <time>2020-06-22T20:29:05Z</time>
      </trkpt>
      <trkpt lat="50.85953" lon="1.7145">
        <ele>92.2</ele>
        <time>2020-06-22T20:29:06Z</time>
      </trkpt>
      <trkpt lat="50.85951" lon="1.71463">
        <ele>91.7</ele>
        <time>2020-06-22T20:29:07Z</time>
      </trkpt>
      <trkpt lat="50.85948" lon="1.71477">
        <ele>91.1</ele>
        <time>2020-06-22T20:29:08Z</time>
      </trkpt>
      <trkpt lat="50.85946" lon="1.7149">
        <ele>90.6</ele>
        <time>2020-06-22T20:29:09Z</time>
      </trkpt>
      <trkpt lat="50.85943" lon="1.71503">
        <ele>90.2</ele>
        <time>2020-06-22T20:29:10Z</time>
      </trkpt>
      <trkpt lat="50.85941" lon="1.71516">
        <ele>89.7</ele>
        <time>2020-06-22T20:29:11Z</time>
      </trkpt>
      <trkpt lat="50.85938" lon="1.7153">
        <ele>89.4</ele>
        <time>2020-06-22T20:29:12Z</time>
      </trkpt>
      <trkpt lat="50.85935" lon="1.71543">
        <ele>89</ele>
        <time>2020-06-22T20:29:13Z</time>
      </trkpt>
      <trkpt lat="50.85932" lon="1.71556">
        <ele>88.7</ele>
        <time>2020-06-22T20:29:14Z</time>
      </trkpt>
      <trkpt lat="50.85929" lon="1.71569">
        <ele>88.5</ele>
        <time>2020-06-22T20:29:15Z</time>
      </trkpt>
      <trkpt lat="50.85927" lon="1.71581">
        <ele>88.3</ele>
        <time>2020-06-22T20:29:16Z</time>
      </trkpt>
      <trkpt lat="50.85924" lon="1.71594">
        <ele>88.1</ele>
        <time>2020-06-22T20:29:17Z</time>
      </trkpt>
      <trkpt lat="50.85922" lon="1.71606">
        <ele>88</ele>
        <time>2020-06-22T20:29:18Z</time>
      </trkpt>
      <trkpt lat="50.85919" lon="1.71618">
        <ele>87.9</ele>
        <time>2020-06-22T20:29:19Z</time>
      </trkpt>
      <trkpt lat="50.85917" lon="1.71629">
        <ele>88</ele>
        <time>2020-06-22T20:29:20Z</time>
      </trkpt>
      <trkpt lat="50.85915" lon="1.71641">
        <ele>88.1</ele>
        <time>2020-06-22T20:29:21Z</time>
      </trkpt>
      <trkpt lat="50.85913" lon="1.71651">
        <ele>88.2</ele>
        <time>2020-06-22T20:29:22Z</time>
      </trkpt>
      <trkpt lat="50.85911" lon="1.71661">
        <ele>88.4</ele>
        <time>2020-06-22T20:29:23Z</time>
      </trkpt>
      <trkpt lat="50.85909" lon="1.71671">
        <ele>88.5</ele>
        <time>2020-06-22T20:29:24Z</time>
      </trkpt>
      <trkpt lat="50.85907" lon="1.7168">
        <ele>88.7</ele>
        <time>2020-06-22T20:29:25Z</time>
      </trkpt>
      <trkpt lat="50.85906" lon="1.7169">
        <ele>88.9</ele>
        <time>2020-06-22T20:29:26Z</time>
      </trkpt>
      <trkpt lat="50.85904" lon="1.71699">
        <ele>89.1</ele>
        <time>2020-06-22T20:29:27Z</time>
      </trkpt>
      <trkpt lat="50.85901" lon="1.71707">
        <ele>89.3</ele>
        <time>2020-06-22T20:29:28Z</time>
      </trkpt>
      <trkpt lat="50.85899" lon="1.71716">
        <ele>89.6</ele>
        <time>2020-06-22T20:29:29Z</time>
      </trkpt>
      <trkpt lat="50.85897" lon="1.71725">
        <ele>89.8</ele>
        <time>2020-06-22T20:29:30Z</time>
      </trkpt>
      <trkpt lat="50.85894" lon="1.71733">
        <ele>90.1</ele>
        <time>2020-06-22T20:29:31Z</time>
      </trkpt>
      <trkpt lat="50.85892" lon="1.71743">
        <ele>90.3</ele>
        <time>2020-06-22T20:29:32Z</time>
      </trkpt>
      <trkpt lat="50.85891" lon="1.71752">
        <ele>90.6</ele>
        <time>2020-06-22T20:29:33Z</time>
      </trkpt>
      <trkpt lat="50.85889" lon="1.71761">
        <ele>90.8</ele>
        <time>2020-06-22T20:29:34Z</time>
      </trkpt>
      <trkpt lat="50.85886" lon="1.71769">
        <ele>91.1</ele>
        <time>2020-06-22T20:29:35Z</time>
      </trkpt>
      <trkpt lat="50.85883" lon="1.71777">
        <ele>91.4</ele>
        <time>2020-06-22T20:29:36Z</time>
      </trkpt>
      <trkpt lat="50.8588" lon="1.71785">
        <ele>91.6</ele>
        <time>2020-06-22T20:29:37Z</time>
      </trkpt>
      <trkpt lat="50.85878" lon="1.71792">
        <ele>91.8</ele>
        <time>2020-06-22T20:29:38Z</time>
      </trkpt>
      <trkpt lat="50.85876" lon="1.71799">
        <ele>92</ele>
        <time>2020-06-22T20:29:39Z</time>
      </trkpt>
      <trkpt lat="50.85873" lon="1.71805">
        <ele>92.1</ele>
        <time>2020-06-22T20:29:40Z</time>
      </trkpt>
      <trkpt lat="50.85871" lon="1.71811">
        <ele>92.2</ele>
        <time>2020-06-22T20:29:41Z</time>
      </trkpt>
      <trkpt lat="50.8587" lon="1.71818">
        <ele>92.3</ele>
        <time>2020-06-22T20:29:42Z</time>
      </trkpt>
      <trkpt lat="50.85868" lon="1.71822">
        <ele>92.4</ele>
        <time>2020-06-22T20:29:43Z</time>
      </trkpt>
      <trkpt lat="50.85866" lon="1.71828">
        <ele>92.5</ele>
        <time>2020-06-22T20:29:44Z</time>
      </trkpt>
      <trkpt lat="50.85864" lon="1.71834">
        <ele>92.6</ele>
        <time>2020-06-22T20:29:45Z</time>
      </trkpt>
      <trkpt lat="50.85863" lon="1.71842">
        <ele>92.8</ele>
        <time>2020-06-22T20:29:46Z</time>
      </trkpt>
      <trkpt lat="50.85861" lon="1.71849">
        <ele>92.9</ele>
        <time>2020-06-22T20:29:47Z</time>
      </trkpt>
      <trkpt lat="50.8586" lon="1.71855">
        <ele>93</ele>
        <time>2020-06-22T20:29:48Z</time>
      </trkpt>
      <trkpt lat="50.85859" lon="1.71862">
        <ele>93.1</ele>
        <time>2020-06-22T20:29:49Z</time>
      </trkpt>
      <trkpt lat="50.85858" lon="1.71871">
        <ele>93.2</ele>
        <time>2020-06-22T20:29:50Z</time>
      </trkpt>
      <trkpt lat="50.85857" lon="1.71879">
        <ele>93.3</ele>
        <time>2020-06-22T20:29:51Z</time>
      </trkpt>
      <trkpt lat="50.85856" lon="1.71888">
        <ele>93.4</ele>
        <time>2020-06-22T20:29:52Z</time>
      </trkpt>
      <trkpt lat="50.85854" lon="1.71897">
        <ele>93.5</ele>
        <time>2020-06-22T20:29:53Z</time>
      </trkpt>
      <trkpt lat="50.85854" lon="1.71903">
        <ele>93.5</ele>
        <time>2020-06-22T20:29:54Z</time>
      </trkpt>
      <trkpt lat="50.85853" lon="1.71909">
        <ele>93.6</ele>
        <time>2020-06-22T20:29:55Z</time>
      </trkpt>
      <trkpt lat="50.85853" lon="1.71916">
        <ele>93.6</ele>
        <time>2020-06-22T20:29:56Z</time>
      </trkpt>
      <trkpt lat="50.85852" lon="1.71922">
        <ele>93.7</ele>
        <time>2020-06-22T20:29:57Z</time>
      </trkpt>
      <trkpt lat="50.85852" lon="1.71929">
        <ele>93.7</ele>
        <time>2020-06-22T20:29:58Z</time>
      </trkpt>
      <trkpt lat="50.85852" lon="1.71935">
        <ele>93.6</ele>
        <time>2020-06-22T20:29:59Z</time>
      </trkpt>
      <trkpt lat="50.85852" lon="1.71939">
        <ele>93.6</ele>
        <time>2020-06-22T20:30:00Z</time>
      </trkpt>
      <trkpt lat="50.85853" lon="1.71944">
        <ele>93.6</ele>
        <time>2020-06-22T20:30:01Z</time>
      </trkpt>
      <trkpt lat="50.85853" lon="1.71946">
        <ele>93.6</ele>
        <time>2020-06-22T20:30:02Z</time>
      </trkpt>
      <trkpt lat="50.85854" lon="1.71951">
        <ele>93.7</ele>
        <time>2020-06-22T20:30:03Z</time>
      </trkpt>
      <trkpt lat="50.85855" lon="1.71953">
        <ele>93.8</ele>
        <time>2020-06-22T20:30:04Z</time>
      </trkpt>
      <trkpt lat="50.85857" lon="1.71956">
        <ele>93.8</ele>
        <time>2020-06-22T20:30:05Z</time>
      </trkpt>
      <trkpt lat="50.85858" lon="1.71958">
        <ele>93.9</ele>
        <time>2020-06-22T20:30:06Z</time>
      </trkpt>
      <trkpt lat="50.8586" lon="1.71961">
        <ele>93.9</ele>
        <time>2020-06-22T20:30:07Z</time>
      </trkpt>
      <trkpt lat="50.85861" lon="1.71966">
        <ele>93.9</ele>
        <time>2020-06-22T20:30:08Z</time>
      </trkpt>
      <trkpt lat="50.85862" lon="1.71967">
        <ele>94</ele>
        <time>2020-06-22T20:30:09Z</time>
      </trkpt>
      <trkpt lat="50.85863" lon="1.71971">
        <ele>94</ele>
        <time>2020-06-22T20:30:10Z</time>
      </trkpt>
      <trkpt lat="50.85866" lon="1.71976">
        <ele>94</ele>
        <time>2020-06-22T20:30:11Z</time>
      </trkpt>
      <trkpt lat="50.85868" lon="1.71982">
        <ele>94.1</ele>
        <time>2020-06-22T20:30:12Z</time>
      </trkpt>
      <trkpt lat="50.8587" lon="1.71989">
        <ele>94.1</ele>
        <time>2020-06-22T20:30:13Z</time>
      </trkpt>
      <trkpt lat="50.85872" lon="1.71995">
        <ele>94.2</ele>
        <time>2020-06-22T20:30:14Z</time>
      </trkpt>
      <trkpt lat="50.85873" lon="1.72002">
        <ele>94.2</ele>
        <time>2020-06-22T20:30:15Z</time>
      </trkpt>
      <trkpt lat="50.85875" lon="1.7201">
        <ele>94.2</ele>
        <time>2020-06-22T20:30:16Z</time>
      </trkpt>
      <trkpt lat="50.85876" lon="1.72016">
        <ele>94.2</ele>
        <time>2020-06-22T20:30:17Z</time>
      </trkpt>
      <trkpt lat="50.85877" lon="1.72025">
        <ele>94.2</ele>
        <time>2020-06-22T20:30:18Z</time>
      </trkpt>
      <trkpt lat="50.85879" lon="1.72031">
        <ele>94.2</ele>
        <time>2020-06-22T20:30:19Z</time>
      </trkpt>
      <trkpt lat="50.8588" lon="1.7204">
        <ele>94.2</ele>
        <time>2020-06-22T20:30:20Z</time>
      </trkpt>
      <trkpt lat="50.85882" lon="1.72047">
        <ele>94.2</ele>
        <time>2020-06-22T20:30:21Z</time>
      </trkpt>
      <trkpt lat="50.85883" lon="1.72058">
        <ele>94.3</ele>
        <time>2020-06-22T20:30:22Z</time>
      </trkpt>
      <trkpt lat="50.85884" lon="1.72067">
        <ele>94.4</ele>
        <time>2020-06-22T20:30:23Z</time>
      </trkpt>
      <trkpt lat="50.85886" lon="1.72076">
        <ele>94.6</ele>
        <time>2020-06-22T20:30:24Z</time>
      </trkpt>
      <trkpt lat="50.85887" lon="1.72085">
        <ele>94.7</ele>
        <time>2020-06-22T20:30:25Z</time>
      </trkpt>
      <trkpt lat="50.85886" lon="1.72094">
        <ele>94.8</ele>
        <time>2020-06-22T20:30:26Z</time>
      </trkpt>
      <trkpt lat="50.85886" lon="1.72102">
        <ele>94.9</ele>
        <time>2020-06-22T20:30:27Z</time>
      </trkpt>
      <trkpt lat="50.85886" lon="1.7211">
        <ele>95</ele>
        <time>2020-06-22T20:30:28Z</time>
      </trkpt>
      <trkpt lat="50.85885" lon="1.72117">
        <ele>95.1</ele>
        <time>2020-06-22T20:30:29Z</time>
      </trkpt>
      <trkpt lat="50.85884" lon="1.72125">
        <ele>95.2</ele>
        <time>2020-06-22T20:30:30Z</time>
      </trkpt>
      <trkpt lat="50.85884" lon="1.72134">
        <ele>95.3</ele>
        <time>2020-06-22T20:30:31Z</time>
      </trkpt>
      <trkpt lat="50.85883" lon="1.7214">
        <ele>95.4</ele>
        <time>2020-06-22T20:30:32Z</time>
      </trkpt>
      <trkpt lat="50.85882" lon="1.72148">
        <ele>95.4</ele>
        <time>2020-06-22T20:30:33Z</time>
      </trkpt>
      <trkpt lat="50.85881" lon="1.72154">
        <ele>95.4</ele>
        <time>2020-06-22T20:30:34Z</time>
      </trkpt>
      <trkpt lat="50.85879" lon="1.72161">
        <ele>95.4</ele>
        <time>2020-06-22T20:30:35Z</time>
      </trkpt>
      <trkpt lat="50.85877" lon="1.72168">
        <ele>95.4</ele>
        <time>2020-06-22T20:30:36Z</time>
      </trkpt>
      <trkpt lat="50.85874" lon="1.72175">
        <ele>95.4</ele>
        <time>2020-06-22T20:30:37Z</time>
      </trkpt>
      <trkpt lat="50.85872" lon="1.72177">
        <ele>95.4</ele>
        <time>2020-06-22T20:30:38Z</time>
      </trkpt>
      <trkpt lat="50.85869" lon="1.72179">
        <ele>95.5</ele>
        <time>2020-06-22T20:30:39Z</time>
      </trkpt>
      <trkpt lat="50.85865" lon="1.7218">
        <ele>95.4</ele>
        <time>2020-06-22T20:30:40Z</time>
      </trkpt>
      <trkpt lat="50.85862" lon="1.72181">
        <ele>95.2</ele>
        <time>2020-06-22T20:30:41Z</time>
      </trkpt>
      <trkpt lat="50.85859" lon="1.72183">
        <ele>95</ele>
        <time>2020-06-22T20:30:42Z</time>
      </trkpt>
      <trkpt lat="50.85856" lon="1.72185">
        <ele>94.8</ele>
        <time>2020-06-22T20:30:43Z</time>
      </trkpt>
      <trkpt lat="50.85852" lon="1.72186">
        <ele>94.5</ele>
        <time>2020-06-22T20:30:44Z</time>
      </trkpt>
      <trkpt lat="50.8585" lon="1.72185">
        <ele>94.4</ele>
        <time>2020-06-22T20:30:45Z</time>
      </trkpt>
      <trkpt lat="50.85848" lon="1.72189">
        <ele>94.1</ele>
        <time>2020-06-22T20:30:46Z</time>
      </trkpt>
      <trkpt lat="50.85847" lon="1.7219">
        <ele>94</ele>
        <time>2020-06-22T20:30:47Z</time>
      </trkpt>
      <trkpt lat="50.85844" lon="1.72195">
        <ele>93.7</ele>
        <time>2020-06-22T20:30:48Z</time>
      </trkpt>
      <trkpt lat="50.85843" lon="1.72197">
        <ele>93.6</ele>
        <time>2020-06-22T20:30:49Z</time>
      </trkpt>
      <trkpt lat="50.8584" lon="1.72202">
        <ele>93.3</ele>
        <time>2020-06-22T20:30:50Z</time>
      </trkpt>
      <trkpt lat="50.85837" lon="1.72205">
        <ele>93</ele>
        <time>2020-06-22T20:30:51Z</time>
      </trkpt>
      <trkpt lat="50.85835" lon="1.7221">
        <ele>92.7</ele>
        <time>2020-06-22T20:30:52Z</time>
      </trkpt>
      <trkpt lat="50.85833" lon="1.72216">
        <ele>92.4</ele>
        <time>2020-06-22T20:30:53Z</time>
      </trkpt>
      <trkpt lat="50.8583" lon="1.72223">
        <ele>92</ele>
        <time>2020-06-22T20:30:54Z</time>
      </trkpt>
      <trkpt lat="50.85827" lon="1.7223">
        <ele>91.6</ele>
        <time>2020-06-22T20:30:55Z</time>
      </trkpt>
      <trkpt lat="50.85823" lon="1.72239">
        <ele>91.1</ele>
        <time>2020-06-22T20:30:56Z</time>
      </trkpt>
      <trkpt lat="50.8582" lon="1.72249">
        <ele>90.7</ele>
        <time>2020-06-22T20:30:57Z</time>
      </trkpt>
      <trkpt lat="50.85816" lon="1.7226">
        <ele>90.2</ele>
        <time>2020-06-22T20:30:58Z</time>
      </trkpt>
      <trkpt lat="50.85813" lon="1.72271">
        <ele>89.8</ele>
        <time>2020-06-22T20:30:59Z</time>
      </trkpt>
      <trkpt lat="50.85809" lon="1.72282">
        <ele>89.5</ele>
        <time>2020-06-22T20:31:00Z</time>
      </trkpt>
      <trkpt lat="50.85807" lon="1.72292">
        <ele>89.2</ele>
        <time>2020-06-22T20:31:01Z</time>
      </trkpt>
      <trkpt lat="50.85804" lon="1.72303">
        <ele>89</ele>
        <time>2020-06-22T20:31:02Z</time>
      </trkpt>
      <trkpt lat="50.85801" lon="1.72314">
        <ele>88.9</ele>
        <time>2020-06-22T20:31:03Z</time>
      </trkpt>
      <trkpt lat="50.85799" lon="1.72325">
        <ele>88.8</ele>
        <time>2020-06-22T20:31:04Z</time>
      </trkpt>
      <trkpt lat="50.85797" lon="1.72335">
        <ele>88.7</ele>
        <time>2020-06-22T20:31:05Z</time>
      </trkpt>
      <trkpt lat="50.85795" lon="1.72345">
        <ele>88.7</ele>
        <time>2020-06-22T20:31:06Z</time>
      </trkpt>
      <trkpt lat="50.85793" lon="1.72354">
        <ele>88.7</ele>
        <time>2020-06-22T20:31:07Z</time>
      </trkpt>
      <trkpt lat="50.85791" lon="1.72362">
        <ele>88.8</ele>
        <time>2020-06-22T20:31:08Z</time>
      </trkpt>
      <trkpt lat="50.85789" lon="1.72369">
        <ele>88.9</ele>
        <time>2020-06-22T20:31:09Z</time>
      </trkpt>
      <trkpt lat="50.85787" lon="1.72377">
        <ele>88.9</ele>
        <time>2020-06-22T20:31:10Z</time>
      </trkpt>
      <trkpt lat="50.85785" lon="1.72384">
        <ele>89</ele>
        <time>2020-06-22T20:31:11Z</time>
      </trkpt>
      <trkpt lat="50.85783" lon="1.72391">
        <ele>89</ele>
        <time>2020-06-22T20:31:12Z</time>
      </trkpt>
      <trkpt lat="50.85781" lon="1.72397">
        <ele>89.1</ele>
        <time>2020-06-22T20:31:13Z</time>
      </trkpt>
      <trkpt lat="50.8578" lon="1.72403">
        <ele>89.1</ele>
        <time>2020-06-22T20:31:14Z</time>
      </trkpt>
      <trkpt lat="50.85778" lon="1.72409">
        <ele>89.2</ele>
        <time>2020-06-22T20:31:15Z</time>
      </trkpt>
      <trkpt lat="50.85777" lon="1.72416">
        <ele>89.3</ele>
        <time>2020-06-22T20:31:16Z</time>
      </trkpt>
      <trkpt lat="50.85775" lon="1.72422">
        <ele>89.4</ele>
        <time>2020-06-22T20:31:17Z</time>
      </trkpt>
      <trkpt lat="50.85773" lon="1.72428">
        <ele>89.5</ele>
        <time>2020-06-22T20:31:18Z</time>
      </trkpt>
      <trkpt lat="50.8577" lon="1.72433">
        <ele>89.6</ele>
        <time>2020-06-22T20:31:19Z</time>
      </trkpt>
      <trkpt lat="50.85767" lon="1.72438">
        <ele>89.7</ele>
        <time>2020-06-22T20:31:20Z</time>
      </trkpt>
      <trkpt lat="50.85764" lon="1.72443">
        <ele>89.8</ele>
        <time>2020-06-22T20:31:21Z</time>
      </trkpt>
      <trkpt lat="50.85762" lon="1.72448">
        <ele>90</ele>
        <time>2020-06-22T20:31:22Z</time>
      </trkpt>
      <trkpt lat="50.85759" lon="1.72455">
        <ele>90.1</ele>
        <time>2020-06-22T20:31:23Z</time>
      </trkpt>
      <trkpt lat="50.85757" lon="1.72462">
        <ele>90.2</ele>
        <time>2020-06-22T20:31:24Z</time>
      </trkpt>
      <trkpt lat="50.85754" lon="1.72469">
        <ele>90.4</ele>
        <time>2020-06-22T20:31:25Z</time>
      </trkpt>
      <trkpt lat="50.85752" lon="1.72476">
        <ele>90.5</ele>
        <time>2020-06-22T20:31:26Z</time>
      </trkpt>
      <trkpt lat="50.8575" lon="1.72483">
        <ele>90.7</ele>
        <time>2020-06-22T20:31:27Z</time>
      </trkpt>
      <trkpt lat="50.85748" lon="1.72491">
        <ele>90.8</ele>
        <time>2020-06-22T20:31:28Z</time>
      </trkpt>
      <trkpt lat="50.85745" lon="1.72497">
        <ele>91</ele>
        <time>2020-06-22T20:31:29Z</time>
      </trkpt>
      <trkpt lat="50.85743" lon="1.72503">
        <ele>91.2</ele>
        <time>2020-06-22T20:31:30Z</time>
      </trkpt>
      <trkpt lat="50.8574" lon="1.72509">
        <ele>91.4</ele>
        <time>2020-06-22T20:31:31Z</time>
      </trkpt>
      <trkpt lat="50.85737" lon="1.72515">
        <ele>91.6</ele>
        <time>2020-06-22T20:31:32Z</time>
      </trkpt>
      <trkpt lat="50.85734" lon="1.72521">
        <ele>91.9</ele>
        <time>2020-06-22T20:31:33Z</time>
      </trkpt>
      <trkpt lat="50.85732" lon="1.72527">
        <ele>92.1</ele>
        <time>2020-06-22T20:31:34Z</time>
      </trkpt>
      <trkpt lat="50.8573" lon="1.72532">
        <ele>92.4</ele>
        <time>2020-06-22T20:31:35Z</time>
      </trkpt>
      <trkpt lat="50.85727" lon="1.72538">
        <ele>92.7</ele>
        <time>2020-06-22T20:31:36Z</time>
      </trkpt>
      <trkpt lat="50.85725" lon="1.72543">
        <ele>93</ele>
        <time>2020-06-22T20:31:37Z</time>
      </trkpt>
      <trkpt lat="50.85723" lon="1.72548">
        <ele>93.2</ele>
        <time>2020-06-22T20:31:38Z</time>
      </trkpt>
      <trkpt lat="50.85722" lon="1.72552">
        <ele>93.5</ele>
        <time>2020-06-22T20:31:39Z</time>
      </trkpt>
      <trkpt lat="50.85721" lon="1.72556">
        <ele>93.7</ele>
        <time>2020-06-22T20:31:40Z</time>
      </trkpt>
      <trkpt lat="50.85719" lon="1.72561">
        <ele>94</ele>
        <time>2020-06-22T20:31:41Z</time>
      </trkpt>
      <trkpt lat="50.85719" lon="1.72565">
        <ele>94.2</ele>
        <time>2020-06-22T20:31:42Z</time>
      </trkpt>
      <trkpt lat="50.85718" lon="1.72568">
        <ele>94.5</ele>
        <time>2020-06-22T20:31:43Z</time>
      </trkpt>
      <trkpt lat="50.85716" lon="1.72572">
        <ele>94.7</ele>
        <time>2020-06-22T20:31:44Z</time>
      </trkpt>
      <trkpt lat="50.85714" lon="1.72577">
        <ele>95.1</ele>
        <time>2020-06-22T20:31:45Z</time>
      </trkpt>
      <trkpt lat="50.85713" lon="1.7258">
        <ele>95.3</ele>
        <time>2020-06-22T20:31:46Z</time>
      </trkpt>
      <trkpt lat="50.85712" lon="1.72583">
        <ele>95.5</ele>
        <time>2020-06-22T20:31:47Z</time>
      </trkpt>
      <trkpt lat="50.8571" lon="1.72587">
        <ele>95.8</ele>
        <time>2020-06-22T20:31:48Z</time>
      </trkpt>
      <trkpt lat="50.85709" lon="1.72591">
        <ele>96.1</ele>
        <time>2020-06-22T20:31:49Z</time>
      </trkpt>
      <trkpt lat="50.85708" lon="1.72596">
        <ele>96.4</ele>
        <time>2020-06-22T20:31:50Z</time>
      </trkpt>
      <trkpt lat="50.85707" lon="1.72601">
        <ele>96.8</ele>
        <time>2020-06-22T20:31:51Z</time>
      </trkpt>
      <trkpt lat="50.85705" lon="1.72605">
        <ele>97.1</ele>
        <time>2020-06-22T20:31:52Z</time>
      </trkpt>
      <trkpt lat="50.85703" lon="1.7261">
        <ele>97.5</ele>
        <time>2020-06-22T20:31:53Z</time>
      </trkpt>
      <trkpt lat="50.85703" lon="1.72611">
        <ele>97.6</ele>
        <time>2020-06-22T20:31:54Z</time>
      </trkpt>
      <trkpt lat="50.85701" lon="1.72615">
        <ele>98</ele>
        <time>2020-06-22T20:31:55Z</time>
      </trkpt>
      <trkpt lat="50.857" lon="1.72616">
        <ele>98.1</ele>
        <time>2020-06-22T20:31:56Z</time>
      </trkpt>
      <trkpt lat="50.85697" lon="1.7262">
        <ele>98.5</ele>
        <time>2020-06-22T20:31:57Z</time>
      </trkpt>
      <trkpt lat="50.85695" lon="1.72624">
        <ele>98.8</ele>
        <time>2020-06-22T20:31:58Z</time>
      </trkpt>
      <trkpt lat="50.85693" lon="1.72627">
        <ele>99.2</ele>
        <time>2020-06-22T20:31:59Z</time>
      </trkpt>
      <trkpt lat="50.85691" lon="1.7263">
        <ele>99.5</ele>
        <time>2020-06-22T20:32:00Z</time>
      </trkpt>
      <trkpt lat="50.85689" lon="1.72634">
        <ele>99.8</ele>
        <time>2020-06-22T20:32:01Z</time>
      </trkpt>
      <trkpt lat="50.85688" lon="1.72638">
        <ele>100.1</ele>
        <time>2020-06-22T20:32:02Z</time>
      </trkpt>
      <trkpt lat="50.85687" lon="1.7264">
        <ele>100.2</ele>
        <time>2020-06-22T20:32:03Z</time>
      </trkpt>
      <trkpt lat="50.85685" lon="1.72644">
        <ele>100.6</ele>
        <time>2020-06-22T20:32:04Z</time>
      </trkpt>
      <trkpt lat="50.85684" lon="1.72645">
        <ele>100.7</ele>
        <time>2020-06-22T20:32:05Z</time>
      </trkpt>
      <trkpt lat="50.85683" lon="1.72648">
        <ele>101</ele>
        <time>2020-06-22T20:32:06Z</time>
      </trkpt>
      <trkpt lat="50.85682" lon="1.72649">
        <ele>101.1</ele>
        <time>2020-06-22T20:32:07Z</time>
      </trkpt>
      <trkpt lat="50.8568" lon="1.72651">
        <ele>101.4</ele>
        <time>2020-06-22T20:32:08Z</time>
      </trkpt>
      <trkpt lat="50.85679" lon="1.72652">
        <ele>101.5</ele>
        <time>2020-06-22T20:32:09Z</time>
      </trkpt>
      <trkpt lat="50.85679" lon="1.72653">
        <ele>101.6</ele>
        <time>2020-06-22T20:32:10Z</time>
      </trkpt>
      <trkpt lat="50.85678" lon="1.72656">
        <ele>101.8</ele>
        <time>2020-06-22T20:32:11Z</time>
      </trkpt>
      <trkpt lat="50.85677" lon="1.72658">
        <ele>102</ele>
        <time>2020-06-22T20:32:12Z</time>
      </trkpt>
      <trkpt lat="50.85676" lon="1.72663">
        <ele>102.4</ele>
        <time>2020-06-22T20:32:13Z</time>
      </trkpt>
      <trkpt lat="50.85675" lon="1.72665">
        <ele>102.5</ele>
        <time>2020-06-22T20:32:14Z</time>
      </trkpt>
      <trkpt lat="50.85674" lon="1.7267">
        <ele>103</ele>
        <time>2020-06-22T20:32:15Z</time>
      </trkpt>
      <trkpt lat="50.85673" lon="1.72671">
        <ele>103.1</ele>
        <time>2020-06-22T20:32:16Z</time>
      </trkpt>
      <trkpt lat="50.85671" lon="1.72675">
        <ele>103.5</ele>
        <time>2020-06-22T20:32:17Z</time>
      </trkpt>
      <trkpt lat="50.8567" lon="1.72676">
        <ele>103.7</ele>
        <time>2020-06-22T20:32:18Z</time>
      </trkpt>
      <trkpt lat="50.85667" lon="1.72679">
        <ele>104</ele>
        <time>2020-06-22T20:32:19Z</time>
      </trkpt>
      <trkpt lat="50.85665" lon="1.72683">
        <ele>104.5</ele>
        <time>2020-06-22T20:32:20Z</time>
      </trkpt>
      <trkpt lat="50.85664" lon="1.72684">
        <ele>104.6</ele>
        <time>2020-06-22T20:32:21Z</time>
      </trkpt>
      <trkpt lat="50.85661" lon="1.72687">
        <ele>105</ele>
        <time>2020-06-22T20:32:22Z</time>
      </trkpt>
      <trkpt lat="50.85659" lon="1.7269">
        <ele>105.3</ele>
        <time>2020-06-22T20:32:23Z</time>
      </trkpt>
      <trkpt lat="50.85658" lon="1.72693">
        <ele>105.7</ele>
        <time>2020-06-22T20:32:24Z</time>
      </trkpt>
      <trkpt lat="50.85656" lon="1.72697">
        <ele>106.1</ele>
        <time>2020-06-22T20:32:25Z</time>
      </trkpt>
      <trkpt lat="50.85655" lon="1.72701">
        <ele>106.4</ele>
        <time>2020-06-22T20:32:26Z</time>
      </trkpt>
      <trkpt lat="50.85652" lon="1.72706">
        <ele>107</ele>
        <time>2020-06-22T20:32:27Z</time>
      </trkpt>
      <trkpt lat="50.85651" lon="1.72708">
        <ele>107.2</ele>
        <time>2020-06-22T20:32:28Z</time>
      </trkpt>
      <trkpt lat="50.85649" lon="1.72712">
        <ele>107.7</ele>
        <time>2020-06-22T20:32:29Z</time>
      </trkpt>
      <trkpt lat="50.85646" lon="1.72717">
        <ele>108.2</ele>
        <time>2020-06-22T20:32:30Z</time>
      </trkpt>
      <trkpt lat="50.85644" lon="1.72721">
        <ele>108.6</ele>
        <time>2020-06-22T20:32:31Z</time>
      </trkpt>
      <trkpt lat="50.85642" lon="1.72725">
        <ele>109</ele>
        <time>2020-06-22T20:32:32Z</time>
      </trkpt>
      <trkpt lat="50.8564" lon="1.72729">
        <ele>109.5</ele>
        <time>2020-06-22T20:32:33Z</time>
      </trkpt>
      <trkpt lat="50.85639" lon="1.7273">
        <ele>109.6</ele>
        <time>2020-06-22T20:32:34Z</time>
      </trkpt>
      <trkpt lat="50.85637" lon="1.72734">
        <ele>110</ele>
        <time>2020-06-22T20:32:35Z</time>
      </trkpt>
      <trkpt lat="50.85637" lon="1.72735">
        <ele>110.1</ele>
        <time>2020-06-22T20:32:36Z</time>
      </trkpt>
      <trkpt lat="50.85634" lon="1.7274">
        <ele>110.6</ele>
        <time>2020-06-22T20:32:37Z</time>
      </trkpt>
      <trkpt lat="50.85633" lon="1.72741">
        <ele>110.8</ele>
        <time>2020-06-22T20:32:38Z</time>
      </trkpt>
      <trkpt lat="50.85631" lon="1.72746">
        <ele>111.2</ele>
        <time>2020-06-22T20:32:39Z</time>
      </trkpt>
      <trkpt lat="50.8563" lon="1.72747">
        <ele>111.4</ele>
        <time>2020-06-22T20:32:40Z</time>
      </trkpt>
      <trkpt lat="50.85627" lon="1.72751">
        <ele>111.8</ele>
        <time>2020-06-22T20:32:41Z</time>
      </trkpt>
      <trkpt lat="50.85626" lon="1.72753">
        <ele>112</ele>
        <time>2020-06-22T20:32:42Z</time>
      </trkpt>
      <trkpt lat="50.85624" lon="1.72756">
        <ele>112.4</ele>
        <time>2020-06-22T20:32:43Z</time>
      </trkpt>
      <trkpt lat="50.85623" lon="1.72757">
        <ele>112.5</ele>
        <time>2020-06-22T20:32:44Z</time>
      </trkpt>
      <trkpt lat="50.85621" lon="1.72761">
        <ele>112.8</ele>
        <time>2020-06-22T20:32:45Z</time>
      </trkpt>
      <trkpt lat="50.8562" lon="1.72762">
        <ele>112.9</ele>
        <time>2020-06-22T20:32:46Z</time>
      </trkpt>
      <trkpt lat="50.85618" lon="1.72765">
        <ele>113.2</ele>
        <time>2020-06-22T20:32:47Z</time>
      </trkpt>
      <trkpt lat="50.85617" lon="1.72766">
        <ele>113.3</ele>
        <time>2020-06-22T20:32:48Z</time>
      </trkpt>
      <trkpt lat="50.85614" lon="1.72771">
        <ele>113.6</ele>
        <time>2020-06-22T20:32:49Z</time>
      </trkpt>
      <trkpt lat="50.85614" lon="1.72772">
        <ele>113.7</ele>
        <time>2020-06-22T20:32:50Z</time>
      </trkpt>
      <trkpt lat="50.85611" lon="1.72776">
        <ele>114.1</ele>
        <time>2020-06-22T20:32:51Z</time>
      </trkpt>
      <trkpt lat="50.8561" lon="1.72778">
        <ele>114.1</ele>
        <time>2020-06-22T20:32:52Z</time>
      </trkpt>
      <trkpt lat="50.85608" lon="1.72781">
        <ele>114.4</ele>
        <time>2020-06-22T20:32:53Z</time>
      </trkpt>
      <trkpt lat="50.85607" lon="1.72784">
        <ele>114.5</ele>
        <time>2020-06-22T20:32:54Z</time>
      </trkpt>
      <trkpt lat="50.85605" lon="1.72787">
        <ele>114.7</ele>
        <time>2020-06-22T20:32:55Z</time>
      </trkpt>
      <trkpt lat="50.85602" lon="1.72791">
        <ele>114.9</ele>
        <time>2020-06-22T20:32:56Z</time>
      </trkpt>
      <trkpt lat="50.85601" lon="1.72792">
        <ele>114.9</ele>
        <time>2020-06-22T20:32:57Z</time>
      </trkpt>
      <trkpt lat="50.85599" lon="1.72797">
        <ele>115.1</ele>
        <time>2020-06-22T20:32:58Z</time>
      </trkpt>
      <trkpt lat="50.85598" lon="1.72798">
        <ele>115.2</ele>
        <time>2020-06-22T20:32:59Z</time>
      </trkpt>
      <trkpt lat="50.85596" lon="1.72803">
        <ele>115.3</ele>
        <time>2020-06-22T20:33:00Z</time>
      </trkpt>
      <trkpt lat="50.85596" lon="1.72804">
        <ele>115.3</ele>
        <time>2020-06-22T20:33:01Z</time>
      </trkpt>
      <trkpt lat="50.85596" lon="1.72809">
        <ele>115.4</ele>
        <time>2020-06-22T20:33:02Z</time>
      </trkpt>
      <trkpt lat="50.85597" lon="1.7281">
        <ele>115.4</ele>
        <time>2020-06-22T20:33:03Z</time>
      </trkpt>
      <trkpt lat="50.856" lon="1.72815">
        <ele>115.5</ele>
        <time>2020-06-22T20:33:04Z</time>
      </trkpt>
      <trkpt lat="50.85601" lon="1.72817">
        <ele>116.1</ele>
        <time>2020-06-22T20:33:05Z</time>
      </trkpt>
      <trkpt lat="50.85603" lon="1.72821">
        <ele>116.2</ele>
        <time>2020-06-22T20:33:06Z</time>
      </trkpt>
      <trkpt lat="50.85605" lon="1.72825">
        <ele>116.4</ele>
        <time>2020-06-22T20:33:07Z</time>
      </trkpt>
      <trkpt lat="50.85607" lon="1.7283">
        <ele>116.6</ele>
        <time>2020-06-22T20:33:08Z</time>
      </trkpt>
      <trkpt lat="50.85608" lon="1.72832">
        <ele>116.7</ele>
        <time>2020-06-22T20:33:09Z</time>
      </trkpt>
      <trkpt lat="50.8561" lon="1.72835">
        <ele>116.9</ele>
        <time>2020-06-22T20:33:10Z</time>
      </trkpt>
      <trkpt lat="50.85612" lon="1.72838">
        <ele>117</ele>
        <time>2020-06-22T20:33:11Z</time>
      </trkpt>
      <trkpt lat="50.85615" lon="1.72841">
        <ele>117.2</ele>
        <time>2020-06-22T20:33:12Z</time>
      </trkpt>
      <trkpt lat="50.85618" lon="1.72843">
        <ele>117.4</ele>
        <time>2020-06-22T20:33:13Z</time>
      </trkpt>
      <trkpt lat="50.85621" lon="1.72845">
        <ele>117.6</ele>
        <time>2020-06-22T20:33:14Z</time>
      </trkpt>
      <trkpt lat="50.85624" lon="1.72847">
        <ele>117.8</ele>
        <time>2020-06-22T20:33:15Z</time>
      </trkpt>
      <trkpt lat="50.85627" lon="1.72851">
        <ele>117.9</ele>
        <time>2020-06-22T20:33:16Z</time>
      </trkpt>
      <trkpt lat="50.8563" lon="1.72853">
        <ele>118.1</ele>
        <time>2020-06-22T20:33:17Z</time>
      </trkpt>
      <trkpt lat="50.85633" lon="1.72855">
        <ele>118.3</ele>
        <time>2020-06-22T20:33:18Z</time>
      </trkpt>
      <trkpt lat="50.85637" lon="1.72858">
        <ele>118.6</ele>
        <time>2020-06-22T20:33:19Z</time>
      </trkpt>
      <trkpt lat="50.85641" lon="1.72861">
        <ele>118.8</ele>
        <time>2020-06-22T20:33:20Z</time>
      </trkpt>
      <trkpt lat="50.85644" lon="1.72864">
        <ele>119.1</ele>
        <time>2020-06-22T20:33:21Z</time>
      </trkpt>
      <trkpt lat="50.85647" lon="1.72867">
        <ele>119.3</ele>
        <time>2020-06-22T20:33:22Z</time>
      </trkpt>
      <trkpt lat="50.8565" lon="1.72869">
        <ele>119.4</ele>
        <time>2020-06-22T20:33:23Z</time>
      </trkpt>
      <trkpt lat="50.85652" lon="1.72872">
        <ele>119.6</ele>
        <time>2020-06-22T20:33:24Z</time>
      </trkpt>
      <trkpt lat="50.85655" lon="1.72874">
        <ele>119.8</ele>
        <time>2020-06-22T20:33:25Z</time>
      </trkpt>
      <trkpt lat="50.85658" lon="1.72876">
        <ele>120</ele>
        <time>2020-06-22T20:33:26Z</time>
      </trkpt>
      <trkpt lat="50.85661" lon="1.72878">
        <ele>120.3</ele>
        <time>2020-06-22T20:33:27Z</time>
      </trkpt>
      <trkpt lat="50.85664" lon="1.72881">
        <ele>120.5</ele>
        <time>2020-06-22T20:33:28Z</time>
      </trkpt>
      <trkpt lat="50.85666" lon="1.72883">
        <ele>120.7</ele>
        <time>2020-06-22T20:33:29Z</time>
      </trkpt>
      <trkpt lat="50.85668" lon="1.72886">
        <ele>120.9</ele>
        <time>2020-06-22T20:33:30Z</time>
      </trkpt>
      <trkpt lat="50.85672" lon="1.72888">
        <ele>121.1</ele>
        <time>2020-06-22T20:33:31Z</time>
      </trkpt>
      <trkpt lat="50.85675" lon="1.72891">
        <ele>121.3</ele>
        <time>2020-06-22T20:33:32Z</time>
      </trkpt>
      <trkpt lat="50.85678" lon="1.72893">
        <ele>121.6</ele>
        <time>2020-06-22T20:33:33Z</time>
      </trkpt>
      <trkpt lat="50.85681" lon="1.72896">
        <ele>121.7</ele>
        <time>2020-06-22T20:33:34Z</time>
      </trkpt>
      <trkpt lat="50.85684" lon="1.72898">
        <ele>121.9</ele>
        <time>2020-06-22T20:33:35Z</time>
      </trkpt>
      <trkpt lat="50.85687" lon="1.72901">
        <ele>122.1</ele>
        <time>2020-06-22T20:33:36Z</time>
      </trkpt>
      <trkpt lat="50.85689" lon="1.72904">
        <ele>122.3</ele>
        <time>2020-06-22T20:33:37Z</time>
      </trkpt>
      <trkpt lat="50.85691" lon="1.72907">
        <ele>122.5</ele>
        <time>2020-06-22T20:33:38Z</time>
      </trkpt>
      <trkpt lat="50.85694" lon="1.72909">
        <ele>122.7</ele>
        <time>2020-06-22T20:33:39Z</time>
      </trkpt>
      <trkpt lat="50.85697" lon="1.72911">
        <ele>122.9</ele>
        <time>2020-06-22T20:33:40Z</time>
      </trkpt>
      <trkpt lat="50.85701" lon="1.72914">
        <ele>123.1</ele>
        <time>2020-06-22T20:33:41Z</time>
      </trkpt>
      <trkpt lat="50.85702" lon="1.72916">
        <ele>123.2</ele>
        <time>2020-06-22T20:33:42Z</time>
      </trkpt>
      <trkpt lat="50.85704" lon="1.72919">
        <ele>123.3</ele>
        <time>2020-06-22T20:33:43Z</time>
      </trkpt>
      <trkpt lat="50.85706" lon="1.72922">
        <ele>123.5</ele>
        <time>2020-06-22T20:33:44Z</time>
      </trkpt>
      <trkpt lat="50.85709" lon="1.72925">
        <ele>123.6</ele>
        <time>2020-06-22T20:33:45Z</time>
      </trkpt>
      <trkpt lat="50.85711" lon="1.72928">
        <ele>123.8</ele>
        <time>2020-06-22T20:33:46Z</time>
      </trkpt>
      <trkpt lat="50.85714" lon="1.72931">
        <ele>124</ele>
        <time>2020-06-22T20:33:47Z</time>
      </trkpt>
      <trkpt lat="50.85717" lon="1.72934">
        <ele>124.2</ele>
        <time>2020-06-22T20:33:48Z</time>
      </trkpt>
      <trkpt lat="50.85721" lon="1.72936">
        <ele>124.3</ele>
        <time>2020-06-22T20:33:49Z</time>
      </trkpt>
      <trkpt lat="50.85723" lon="1.72939">
        <ele>124.5</ele>
        <time>2020-06-22T20:33:50Z</time>
      </trkpt>
      <trkpt lat="50.85725" lon="1.72942">
        <ele>124.6</ele>
        <time>2020-06-22T20:33:51Z</time>
      </trkpt>
      <trkpt lat="50.85728" lon="1.72945">
        <ele>124.8</ele>
        <time>2020-06-22T20:33:52Z</time>
      </trkpt>
      <trkpt lat="50.85731" lon="1.72948">
        <ele>124.9</ele>
        <time>2020-06-22T20:33:53Z</time>
      </trkpt>
      <trkpt lat="50.85733" lon="1.72951">
        <ele>125.1</ele>
        <time>2020-06-22T20:33:54Z</time>
      </trkpt>
      <trkpt lat="50.85736" lon="1.72954">
        <ele>125.2</ele>
        <time>2020-06-22T20:33:55Z</time>
      </trkpt>
      <trkpt lat="50.85738" lon="1.72957">
        <ele>125.3</ele>
        <time>2020-06-22T20:33:56Z</time>
      </trkpt>
      <trkpt lat="50.8574" lon="1.7296">
        <ele>125.5</ele>
        <time>2020-06-22T20:33:57Z</time>
      </trkpt>
      <trkpt lat="50.85742" lon="1.72964">
        <ele>125.6</ele>
        <time>2020-06-22T20:33:58Z</time>
      </trkpt>
      <trkpt lat="50.85744" lon="1.72968">
        <ele>125.8</ele>
        <time>2020-06-22T20:33:59Z</time>
      </trkpt>
      <trkpt lat="50.85747" lon="1.72973">
        <ele>125.9</ele>
        <time>2020-06-22T20:34:00Z</time>
      </trkpt>
      <trkpt lat="50.8575" lon="1.72976">
        <ele>126.1</ele>
        <time>2020-06-22T20:34:01Z</time>
      </trkpt>
      <trkpt lat="50.85753" lon="1.7298">
        <ele>126.2</ele>
        <time>2020-06-22T20:34:02Z</time>
      </trkpt>
      <trkpt lat="50.85755" lon="1.72984">
        <ele>126.3</ele>
        <time>2020-06-22T20:34:03Z</time>
      </trkpt>
      <trkpt lat="50.85757" lon="1.72987">
        <ele>126.5</ele>
        <time>2020-06-22T20:34:04Z</time>
      </trkpt>
      <trkpt lat="50.8576" lon="1.72991">
        <ele>126.6</ele>
        <time>2020-06-22T20:34:05Z</time>
      </trkpt>
      <trkpt lat="50.85762" lon="1.72995">
        <ele>126.7</ele>
        <time>2020-06-22T20:34:06Z</time>
      </trkpt>
      <trkpt lat="50.85765" lon="1.72998">
        <ele>126.8</ele>
        <time>2020-06-22T20:34:07Z</time>
      </trkpt>
      <trkpt lat="50.85767" lon="1.73002">
        <ele>126.9</ele>
        <time>2020-06-22T20:34:08Z</time>
      </trkpt>
      <trkpt lat="50.85768" lon="1.73006">
        <ele>127</ele>
        <time>2020-06-22T20:34:09Z</time>
      </trkpt>
      <trkpt lat="50.85771" lon="1.73011">
        <ele>127.1</ele>
        <time>2020-06-22T20:34:10Z</time>
      </trkpt>
      <trkpt lat="50.85774" lon="1.73016">
        <ele>127.2</ele>
        <time>2020-06-22T20:34:11Z</time>
      </trkpt>
      <trkpt lat="50.85776" lon="1.73021">
        <ele>127.4</ele>
        <time>2020-06-22T20:34:12Z</time>
      </trkpt>
      <trkpt lat="50.85779" lon="1.73026">
        <ele>127.5</ele>
        <time>2020-06-22T20:34:13Z</time>
      </trkpt>
      <trkpt lat="50.85782" lon="1.73031">
        <ele>127.6</ele>
        <time>2020-06-22T20:34:14Z</time>
      </trkpt>
      <trkpt lat="50.85784" lon="1.73036">
        <ele>127.7</ele>
        <time>2020-06-22T20:34:15Z</time>
      </trkpt>
      <trkpt lat="50.85787" lon="1.73041">
        <ele>127.9</ele>
        <time>2020-06-22T20:34:16Z</time>
      </trkpt>
      <trkpt lat="50.85789" lon="1.73046">
        <ele>128</ele>
        <time>2020-06-22T20:34:17Z</time>
      </trkpt>
      <trkpt lat="50.85792" lon="1.7305">
        <ele>128.1</ele>
        <time>2020-06-22T20:34:18Z</time>
      </trkpt>
      <trkpt lat="50.85795" lon="1.73054">
        <ele>128.3</ele>
        <time>2020-06-22T20:34:19Z</time>
      </trkpt>
      <trkpt lat="50.85797" lon="1.73059">
        <ele>128.4</ele>
        <time>2020-06-22T20:34:20Z</time>
      </trkpt>
      <trkpt lat="50.858" lon="1.73063">
        <ele>128.5</ele>
        <time>2020-06-22T20:34:21Z</time>
      </trkpt>
      <trkpt lat="50.85803" lon="1.73068">
        <ele>128.7</ele>
        <time>2020-06-22T20:34:22Z</time>
      </trkpt>
      <trkpt lat="50.85806" lon="1.73074">
        <ele>128.8</ele>
        <time>2020-06-22T20:34:23Z</time>
      </trkpt>
      <trkpt lat="50.85808" lon="1.73077">
        <ele>128.9</ele>
        <time>2020-06-22T20:34:24Z</time>
      </trkpt>
      <trkpt lat="50.8581" lon="1.73081">
        <ele>129</ele>
        <time>2020-06-22T20:34:25Z</time>
      </trkpt>
      <trkpt lat="50.85812" lon="1.73085">
        <ele>129.1</ele>
        <time>2020-06-22T20:34:26Z</time>
      </trkpt>
      <trkpt lat="50.85814" lon="1.73089">
        <ele>129.2</ele>
        <time>2020-06-22T20:34:27Z</time>
      </trkpt>
      <trkpt lat="50.85816" lon="1.73094">
        <ele>129.3</ele>
        <time>2020-06-22T20:34:28Z</time>
      </trkpt>
      <trkpt lat="50.85818" lon="1.73099">
        <ele>129.4</ele>
        <time>2020-06-22T20:34:29Z</time>
      </trkpt>
      <trkpt lat="50.8582" lon="1.73104">
        <ele>129.6</ele>
        <time>2020-06-22T20:34:30Z</time>
      </trkpt>
      <trkpt lat="50.85823" lon="1.73108">
        <ele>129.7</ele>
        <time>2020-06-22T20:34:31Z</time>
      </trkpt>
      <trkpt lat="50.85826" lon="1.73112">
        <ele>129.9</ele>
        <time>2020-06-22T20:34:32Z</time>
      </trkpt>
      <trkpt lat="50.85829" lon="1.73116">
        <ele>130</ele>
        <time>2020-06-22T20:34:33Z</time>
      </trkpt>
      <trkpt lat="50.85832" lon="1.7312">
        <ele>130.2</ele>
        <time>2020-06-22T20:34:34Z</time>
      </trkpt>
      <trkpt lat="50.85835" lon="1.73125">
        <ele>130.3</ele>
        <time>2020-06-22T20:34:35Z</time>
      </trkpt>
      <trkpt lat="50.85838" lon="1.73128">
        <ele>130.5</ele>
        <time>2020-06-22T20:34:36Z</time>
      </trkpt>
      <trkpt lat="50.85841" lon="1.73131">
        <ele>130.6</ele>
        <time>2020-06-22T20:34:37Z</time>
      </trkpt>
      <trkpt lat="50.85844" lon="1.73134">
        <ele>130.8</ele>
        <time>2020-06-22T20:34:38Z</time>
      </trkpt>
      <trkpt lat="50.85847" lon="1.73138">
        <ele>130.9</ele>
        <time>2020-06-22T20:34:39Z</time>
      </trkpt>
      <trkpt lat="50.85851" lon="1.73141">
        <ele>131.1</ele>
        <time>2020-06-22T20:34:40Z</time>
      </trkpt>
      <trkpt lat="50.85854" lon="1.73144">
        <ele>131.3</ele>
        <time>2020-06-22T20:34:41Z</time>
      </trkpt>
      <trkpt lat="50.85857" lon="1.73148">
        <ele>131.5</ele>
        <time>2020-06-22T20:34:42Z</time>
      </trkpt>
      <trkpt lat="50.8586" lon="1.73152">
        <ele>131.7</ele>
        <time>2020-06-22T20:34:43Z</time>
      </trkpt>
      <trkpt lat="50.85863" lon="1.73156">
        <ele>131.9</ele>
        <time>2020-06-22T20:34:44Z</time>
      </trkpt>
      <trkpt lat="50.85866" lon="1.73158">
        <ele>132.1</ele>
        <time>2020-06-22T20:34:45Z</time>
      </trkpt>
      <trkpt lat="50.8587" lon="1.73162">
        <ele>132.4</ele>
        <time>2020-06-22T20:34:46Z</time>
      </trkpt>
      <trkpt lat="50.85873" lon="1.73165">
        <ele>132.6</ele>
        <time>2020-06-22T20:34:47Z</time>
      </trkpt>
      <trkpt lat="50.85876" lon="1.73168">
        <ele>132.8</ele>
        <time>2020-06-22T20:34:48Z</time>
      </trkpt>
      <trkpt lat="50.85879" lon="1.73171">
        <ele>133.1</ele>
        <time>2020-06-22T20:34:49Z</time>
      </trkpt>
      <trkpt lat="50.85883" lon="1.73173">
        <ele>133.3</ele>
        <time>2020-06-22T20:34:50Z</time>
      </trkpt>
      <trkpt lat="50.85887" lon="1.73173">
        <ele>133.6</ele>
        <time>2020-06-22T20:34:51Z</time>
      </trkpt>
      <trkpt lat="50.85891" lon="1.73176">
        <ele>133.9</ele>
        <time>2020-06-22T20:34:52Z</time>
      </trkpt>
      <trkpt lat="50.85894" lon="1.73178">
        <ele>134.1</ele>
        <time>2020-06-22T20:34:53Z</time>
      </trkpt>
      <trkpt lat="50.85898" lon="1.7318">
        <ele>134.4</ele>
        <time>2020-06-22T20:34:54Z</time>
      </trkpt>
      <trkpt lat="50.85901" lon="1.73182">
        <ele>134.6</ele>
        <time>2020-06-22T20:34:55Z</time>
      </trkpt>
      <trkpt lat="50.85905" lon="1.73184">
        <ele>134.9</ele>
        <time>2020-06-22T20:34:56Z</time>
      </trkpt>
      <trkpt lat="50.85908" lon="1.73186">
        <ele>135.2</ele>
        <time>2020-06-22T20:34:57Z</time>
      </trkpt>
      <trkpt lat="50.85912" lon="1.73187">
        <ele>135.5</ele>
        <time>2020-06-22T20:34:58Z</time>
      </trkpt>
      <trkpt lat="50.85916" lon="1.73189">
        <ele>135.8</ele>
        <time>2020-06-22T20:34:59Z</time>
      </trkpt>
      <trkpt lat="50.85918" lon="1.73192">
        <ele>136.1</ele>
        <time>2020-06-22T20:35:00Z</time>
      </trkpt>
      <trkpt lat="50.85921" lon="1.73195">
        <ele>136.4</ele>
        <time>2020-06-22T20:35:01Z</time>
      </trkpt>
      <trkpt lat="50.85924" lon="1.73199">
        <ele>136.7</ele>
        <time>2020-06-22T20:35:02Z</time>
      </trkpt>
      <trkpt lat="50.85927" lon="1.73202">
        <ele>137</ele>
        <time>2020-06-22T20:35:03Z</time>
      </trkpt>
      <trkpt lat="50.8593" lon="1.73203">
        <ele>137.2</ele>
        <time>2020-06-22T20:35:04Z</time>
      </trkpt>
      <trkpt lat="50.85934" lon="1.73205">
        <ele>137.5</ele>
        <time>2020-06-22T20:35:05Z</time>
      </trkpt>
      <trkpt lat="50.85937" lon="1.73206">
        <ele>137.8</ele>
        <time>2020-06-22T20:35:06Z</time>
      </trkpt>
      <trkpt lat="50.85941" lon="1.73207">
        <ele>138.1</ele>
        <time>2020-06-22T20:35:07Z</time>
      </trkpt>
      <trkpt lat="50.85945" lon="1.73207">
        <ele>138.4</ele>
        <time>2020-06-22T20:35:08Z</time>
      </trkpt>
      <trkpt lat="50.85948" lon="1.73208">
        <ele>138.7</ele>
        <time>2020-06-22T20:35:09Z</time>
      </trkpt>
      <trkpt lat="50.85951" lon="1.73208">
        <ele>138.9</ele>
        <time>2020-06-22T20:35:10Z</time>
      </trkpt>
      <trkpt lat="50.85955" lon="1.73209">
        <ele>139.3</ele>
        <time>2020-06-22T20:35:11Z</time>
      </trkpt>
      <trkpt lat="50.85957" lon="1.7321">
        <ele>139.4</ele>
        <time>2020-06-22T20:35:12Z</time>
      </trkpt>
      <trkpt lat="50.85961" lon="1.73211">
        <ele>139.7</ele>
        <time>2020-06-22T20:35:13Z</time>
      </trkpt>
      <trkpt lat="50.85964" lon="1.73211">
        <ele>139.9</ele>
        <time>2020-06-22T20:35:14Z</time>
      </trkpt>
      <trkpt lat="50.85967" lon="1.73211">
        <ele>140.1</ele>
        <time>2020-06-22T20:35:15Z</time>
      </trkpt>
      <trkpt lat="50.85971" lon="1.73212">
        <ele>140.4</ele>
        <time>2020-06-22T20:35:16Z</time>
      </trkpt>
      <trkpt lat="50.85974" lon="1.73213">
        <ele>140.8</ele>
        <time>2020-06-22T20:35:17Z</time>
      </trkpt>
      <trkpt lat="50.85978" lon="1.73213">
        <ele>141.1</ele>
        <time>2020-06-22T20:35:18Z</time>
      </trkpt>
      <trkpt lat="50.85981" lon="1.73214">
        <ele>141.4</ele>
        <time>2020-06-22T20:35:19Z</time>
      </trkpt>
      <trkpt lat="50.85984" lon="1.73214">
        <ele>141.7</ele>
        <time>2020-06-22T20:35:20Z</time>
      </trkpt>
      <trkpt lat="50.85988" lon="1.73213">
        <ele>142</ele>
        <time>2020-06-22T20:35:21Z</time>
      </trkpt>
      <trkpt lat="50.85991" lon="1.73211">
        <ele>142.3</ele>
        <time>2020-06-22T20:35:22Z</time>
      </trkpt>
      <trkpt lat="50.85994" lon="1.73209">
        <ele>142.5</ele>
        <time>2020-06-22T20:35:23Z</time>
      </trkpt>
      <trkpt lat="50.85998" lon="1.7321">
        <ele>142.8</ele>
        <time>2020-06-22T20:35:24Z</time>
      </trkpt>
      <trkpt lat="50.86001" lon="1.73209">
        <ele>143.1</ele>
        <time>2020-06-22T20:35:25Z</time>
      </trkpt>
      <trkpt lat="50.86004" lon="1.73209">
        <ele>143.3</ele>
        <time>2020-06-22T20:35:26Z</time>
      </trkpt>
      <trkpt lat="50.86008" lon="1.73208">
        <ele>143.7</ele>
        <time>2020-06-22T20:35:27Z</time>
      </trkpt>
      <trkpt lat="50.86012" lon="1.73207">
        <ele>144</ele>
        <time>2020-06-22T20:35:28Z</time>
      </trkpt>
      <trkpt lat="50.86015" lon="1.73206">
        <ele>144.3</ele>
        <time>2020-06-22T20:35:29Z</time>
      </trkpt>
      <trkpt lat="50.86018" lon="1.73205">
        <ele>144.6</ele>
        <time>2020-06-22T20:35:30Z</time>
      </trkpt>
      <trkpt lat="50.86021" lon="1.73204">
        <ele>144.8</ele>
        <time>2020-06-22T20:35:31Z</time>
      </trkpt>
      <trkpt lat="50.86024" lon="1.73203">
        <ele>145</ele>
        <time>2020-06-22T20:35:32Z</time>
      </trkpt>
      <trkpt lat="50.86028" lon="1.73201">
        <ele>145.3</ele>
        <time>2020-06-22T20:35:33Z</time>
      </trkpt>
      <trkpt lat="50.86031" lon="1.732">
        <ele>145.6</ele>
        <time>2020-06-22T20:35:34Z</time>
      </trkpt>
      <trkpt lat="50.86034" lon="1.73199">
        <ele>145.9</ele>
        <time>2020-06-22T20:35:35Z</time>
      </trkpt>
      <trkpt lat="50.86036" lon="1.73199">
        <ele>146.1</ele>
        <time>2020-06-22T20:35:36Z</time>
      </trkpt>
      <trkpt lat="50.8604" lon="1.73197">
        <ele>146.4</ele>
        <time>2020-06-22T20:35:37Z</time>
      </trkpt>
      <trkpt lat="50.86043" lon="1.73196">
        <ele>146.7</ele>
        <time>2020-06-22T20:35:38Z</time>
      </trkpt>
      <trkpt lat="50.86046" lon="1.73196">
        <ele>147</ele>
        <time>2020-06-22T20:35:39Z</time>
      </trkpt>
      <trkpt lat="50.86049" lon="1.73195">
        <ele>147.2</ele>
        <time>2020-06-22T20:35:40Z</time>
      </trkpt>
      <trkpt lat="50.86052" lon="1.73193">
        <ele>147.5</ele>
        <time>2020-06-22T20:35:41Z</time>
      </trkpt>
      <trkpt lat="50.86056" lon="1.73192">
        <ele>147.9</ele>
        <time>2020-06-22T20:35:42Z</time>
      </trkpt>
      <trkpt lat="50.8606" lon="1.73191">
        <ele>148.2</ele>
        <time>2020-06-22T20:35:43Z</time>
      </trkpt>
      <trkpt lat="50.86063" lon="1.73189">
        <ele>148.5</ele>
        <time>2020-06-22T20:35:44Z</time>
      </trkpt>
      <trkpt lat="50.86067" lon="1.73187">
        <ele>148.8</ele>
        <time>2020-06-22T20:35:45Z</time>
      </trkpt>
      <trkpt lat="50.8607" lon="1.73186">
        <ele>149</ele>
        <time>2020-06-22T20:35:46Z</time>
      </trkpt>
      <trkpt lat="50.86072" lon="1.73183">
        <ele>149.3</ele>
        <time>2020-06-22T20:35:47Z</time>
      </trkpt>
      <trkpt lat="50.86075" lon="1.73181">
        <ele>149.6</ele>
        <time>2020-06-22T20:35:48Z</time>
      </trkpt>
      <trkpt lat="50.86079" lon="1.7318">
        <ele>149.8</ele>
        <time>2020-06-22T20:35:49Z</time>
      </trkpt>
      <trkpt lat="50.86082" lon="1.73178">
        <ele>150.1</ele>
        <time>2020-06-22T20:35:50Z</time>
      </trkpt>
      <trkpt lat="50.86086" lon="1.73176">
        <ele>150.4</ele>
        <time>2020-06-22T20:35:51Z</time>
      </trkpt>
      <trkpt lat="50.86088" lon="1.73175">
        <ele>150.5</ele>
        <time>2020-06-22T20:35:52Z</time>
      </trkpt>
      <trkpt lat="50.86092" lon="1.73174">
        <ele>150.8</ele>
        <time>2020-06-22T20:35:53Z</time>
      </trkpt>
      <trkpt lat="50.86094" lon="1.73174">
        <ele>150.8</ele>
        <time>2020-06-22T20:35:54Z</time>
      </trkpt>
      <trkpt lat="50.86097" lon="1.73173">
        <ele>151</ele>
        <time>2020-06-22T20:35:55Z</time>
      </trkpt>
      <trkpt lat="50.861" lon="1.73173">
        <ele>151.1</ele>
        <time>2020-06-22T20:35:56Z</time>
      </trkpt>
      <trkpt lat="50.86103" lon="1.73172">
        <ele>151.2</ele>
        <time>2020-06-22T20:35:57Z</time>
      </trkpt>
      <trkpt lat="50.86106" lon="1.73171">
        <ele>151.4</ele>
        <time>2020-06-22T20:35:58Z</time>
      </trkpt>
      <trkpt lat="50.8611" lon="1.7317">
        <ele>151.5</ele>
        <time>2020-06-22T20:35:59Z</time>
      </trkpt>
      <trkpt lat="50.86113" lon="1.73168">
        <ele>151.7</ele>
        <time>2020-06-22T20:36:00Z</time>
      </trkpt>
      <trkpt lat="50.86116" lon="1.73166">
        <ele>151.8</ele>
        <time>2020-06-22T20:36:01Z</time>
      </trkpt>
      <trkpt lat="50.8612" lon="1.73166">
        <ele>152</ele>
        <time>2020-06-22T20:36:02Z</time>
      </trkpt>
      <trkpt lat="50.86123" lon="1.73164">
        <ele>152.1</ele>
        <time>2020-06-22T20:36:03Z</time>
      </trkpt>
      <trkpt lat="50.86127" lon="1.73164">
        <ele>152.2</ele>
        <time>2020-06-22T20:36:04Z</time>
      </trkpt>
      <trkpt lat="50.86131" lon="1.73164">
        <ele>152.4</ele>
        <time>2020-06-22T20:36:05Z</time>
      </trkpt>
      <trkpt lat="50.86134" lon="1.73164">
        <ele>152.5</ele>
        <time>2020-06-22T20:36:06Z</time>
      </trkpt>
      <trkpt lat="50.86137" lon="1.73163">
        <ele>152.5</ele>
        <time>2020-06-22T20:36:07Z</time>
      </trkpt>
      <trkpt lat="50.8614" lon="1.73162">
        <ele>152.6</ele>
        <time>2020-06-22T20:36:08Z</time>
      </trkpt>
      <trkpt lat="50.86143" lon="1.73162">
        <ele>152.7</ele>
        <time>2020-06-22T20:36:09Z</time>
      </trkpt>
      <trkpt lat="50.86147" lon="1.73163">
        <ele>152.7</ele>
        <time>2020-06-22T20:36:10Z</time>
      </trkpt>
      <trkpt lat="50.8615" lon="1.73164">
        <ele>152.8</ele>
        <time>2020-06-22T20:36:11Z</time>
      </trkpt>
      <trkpt lat="50.86153" lon="1.73164">
        <ele>152.8</ele>
        <time>2020-06-22T20:36:12Z</time>
      </trkpt>
      <trkpt lat="50.86157" lon="1.73165">
        <ele>152.8</ele>
        <time>2020-06-22T20:36:13Z</time>
      </trkpt>
      <trkpt lat="50.8616" lon="1.73166">
        <ele>152.8</ele>
        <time>2020-06-22T20:36:14Z</time>
      </trkpt>
      <trkpt lat="50.86164" lon="1.73166">
        <ele>152.9</ele>
        <time>2020-06-22T20:36:15Z</time>
      </trkpt>
      <trkpt lat="50.86168" lon="1.73167">
        <ele>152.9</ele>
        <time>2020-06-22T20:36:16Z</time>
      </trkpt>
      <trkpt lat="50.86171" lon="1.73167">
        <ele>152.9</ele>
        <time>2020-06-22T20:36:17Z</time>
      </trkpt>
      <trkpt lat="50.86175" lon="1.73169">
        <ele>152.8</ele>
        <time>2020-06-22T20:36:18Z</time>
      </trkpt>
      <trkpt lat="50.86178" lon="1.73171">
        <ele>152.8</ele>
        <time>2020-06-22T20:36:19Z</time>
      </trkpt>
      <trkpt lat="50.8618" lon="1.73173">
        <ele>152.8</ele>
        <time>2020-06-22T20:36:20Z</time>
      </trkpt>
      <trkpt lat="50.86184" lon="1.73176">
        <ele>152.7</ele>
        <time>2020-06-22T20:36:21Z</time>
      </trkpt>
      <trkpt lat="50.86187" lon="1.73178">
        <ele>152.7</ele>
        <time>2020-06-22T20:36:22Z</time>
      </trkpt>
      <trkpt lat="50.8619" lon="1.73181">
        <ele>152.6</ele>
        <time>2020-06-22T20:36:23Z</time>
      </trkpt>
      <trkpt lat="50.86194" lon="1.73183">
        <ele>152.5</ele>
        <time>2020-06-22T20:36:24Z</time>
      </trkpt>
      <trkpt lat="50.86198" lon="1.73186">
        <ele>152.5</ele>
        <time>2020-06-22T20:36:25Z</time>
      </trkpt>
      <trkpt lat="50.86202" lon="1.73189">
        <ele>152.4</ele>
        <time>2020-06-22T20:36:26Z</time>
      </trkpt>
      <trkpt lat="50.86206" lon="1.73191">
        <ele>152.3</ele>
        <time>2020-06-22T20:36:27Z</time>
      </trkpt>
      <trkpt lat="50.86209" lon="1.73195">
        <ele>152.2</ele>
        <time>2020-06-22T20:36:28Z</time>
      </trkpt>
      <trkpt lat="50.86212" lon="1.73199">
        <ele>152.2</ele>
        <time>2020-06-22T20:36:29Z</time>
      </trkpt>
      <trkpt lat="50.86216" lon="1.73203">
        <ele>152.1</ele>
        <time>2020-06-22T20:36:30Z</time>
      </trkpt>
      <trkpt lat="50.86219" lon="1.73208">
        <ele>152</ele>
        <time>2020-06-22T20:36:31Z</time>
      </trkpt>
      <trkpt lat="50.86223" lon="1.73212">
        <ele>151.9</ele>
        <time>2020-06-22T20:36:32Z</time>
      </trkpt>
      <trkpt lat="50.86227" lon="1.73216">
        <ele>151.8</ele>
        <time>2020-06-22T20:36:33Z</time>
      </trkpt>
      <trkpt lat="50.8623" lon="1.73222">
        <ele>151.7</ele>
        <time>2020-06-22T20:36:34Z</time>
      </trkpt>
      <trkpt lat="50.86233" lon="1.73227">
        <ele>151.6</ele>
        <time>2020-06-22T20:36:35Z</time>
      </trkpt>
      <trkpt lat="50.86237" lon="1.73232">
        <ele>151.5</ele>
        <time>2020-06-22T20:36:36Z</time>
      </trkpt>
      <trkpt lat="50.8624" lon="1.73237">
        <ele>151.5</ele>
        <time>2020-06-22T20:36:37Z</time>
      </trkpt>
      <trkpt lat="50.86243" lon="1.73243">
        <ele>151.4</ele>
        <time>2020-06-22T20:36:38Z</time>
      </trkpt>
      <trkpt lat="50.86246" lon="1.73249">
        <ele>151.3</ele>
        <time>2020-06-22T20:36:39Z</time>
      </trkpt>
      <trkpt lat="50.86249" lon="1.73255">
        <ele>151.2</ele>
        <time>2020-06-22T20:36:40Z</time>
      </trkpt>
      <trkpt lat="50.86252" lon="1.73262">
        <ele>151</ele>
        <time>2020-06-22T20:36:41Z</time>
      </trkpt>
      <trkpt lat="50.86255" lon="1.73267">
        <ele>150.9</ele>
        <time>2020-06-22T20:36:42Z</time>
      </trkpt>
      <trkpt lat="50.86259" lon="1.73273">
        <ele>150.8</ele>
        <time>2020-06-22T20:36:43Z</time>
      </trkpt>
      <trkpt lat="50.86262" lon="1.73279">
        <ele>150.7</ele>
        <time>2020-06-22T20:36:44Z</time>
      </trkpt>
      <trkpt lat="50.86264" lon="1.73285">
        <ele>150.6</ele>
        <time>2020-06-22T20:36:45Z</time>
      </trkpt>
      <trkpt lat="50.86266" lon="1.73293">
        <ele>150.5</ele>
        <time>2020-06-22T20:36:46Z</time>
      </trkpt>
      <trkpt lat="50.86269" lon="1.733">
        <ele>150.4</ele>
        <time>2020-06-22T20:36:47Z</time>
      </trkpt>
      <trkpt lat="50.86271" lon="1.73306">
        <ele>150.3</ele>
        <time>2020-06-22T20:36:48Z</time>
      </trkpt>
      <trkpt lat="50.86272" lon="1.73314">
        <ele>150.2</ele>
        <time>2020-06-22T20:36:49Z</time>
      </trkpt>
      <trkpt lat="50.86273" lon="1.73322">
        <ele>150.1</ele>
        <time>2020-06-22T20:36:50Z</time>
      </trkpt>
      <trkpt lat="50.86273" lon="1.73328">
        <ele>150</ele>
        <time>2020-06-22T20:36:51Z</time>
      </trkpt>
      <trkpt lat="50.86273" lon="1.73337">
        <ele>149.9</ele>
        <time>2020-06-22T20:36:52Z</time>
      </trkpt>
      <trkpt lat="50.86274" lon="1.73345">
        <ele>149.8</ele>
        <time>2020-06-22T20:36:53Z</time>
      </trkpt>
      <trkpt lat="50.86274" lon="1.73354">
        <ele>149.7</ele>
        <time>2020-06-22T20:36:54Z</time>
      </trkpt>
      <trkpt lat="50.86275" lon="1.73362">
        <ele>149.6</ele>
        <time>2020-06-22T20:36:55Z</time>
      </trkpt>
      <trkpt lat="50.86276" lon="1.7337">
        <ele>149.5</ele>
        <time>2020-06-22T20:36:56Z</time>
      </trkpt>
      <trkpt lat="50.86277" lon="1.73379">
        <ele>149.4</ele>
        <time>2020-06-22T20:36:57Z</time>
      </trkpt>
      <trkpt lat="50.86278" lon="1.73387">
        <ele>149.3</ele>
        <time>2020-06-22T20:36:58Z</time>
      </trkpt>
      <trkpt lat="50.86278" lon="1.73395">
        <ele>149.2</ele>
        <time>2020-06-22T20:36:59Z</time>
      </trkpt>
      <trkpt lat="50.86279" lon="1.73403">
        <ele>149.1</ele>
        <time>2020-06-22T20:37:00Z</time>
      </trkpt>
      <trkpt lat="50.86279" lon="1.73411">
        <ele>149</ele>
        <time>2020-06-22T20:37:01Z</time>
      </trkpt>
      <trkpt lat="50.86279" lon="1.73419">
        <ele>148.9</ele>
        <time>2020-06-22T20:37:02Z</time>
      </trkpt>
      <trkpt lat="50.8628" lon="1.73427">
        <ele>148.7</ele>
        <time>2020-06-22T20:37:03Z</time>
      </trkpt>
      <trkpt lat="50.8628" lon="1.73435">
        <ele>148.6</ele>
        <time>2020-06-22T20:37:04Z</time>
      </trkpt>
      <trkpt lat="50.86281" lon="1.73443">
        <ele>148.4</ele>
        <time>2020-06-22T20:37:05Z</time>
      </trkpt>
      <trkpt lat="50.86282" lon="1.73451">
        <ele>148.3</ele>
        <time>2020-06-22T20:37:06Z</time>
      </trkpt>
      <trkpt lat="50.86282" lon="1.73459">
        <ele>148</ele>
        <time>2020-06-22T20:37:07Z</time>
      </trkpt>
      <trkpt lat="50.86283" lon="1.73467">
        <ele>147.8</ele>
        <time>2020-06-22T20:37:08Z</time>
      </trkpt>
      <trkpt lat="50.86284" lon="1.73476">
        <ele>147.8</ele>
        <time>2020-06-22T20:37:09Z</time>
      </trkpt>
      <trkpt lat="50.86284" lon="1.73484">
        <ele>147.8</ele>
        <time>2020-06-22T20:37:10Z</time>
      </trkpt>
      <trkpt lat="50.86285" lon="1.73492">
        <ele>147.4</ele>
        <time>2020-06-22T20:37:11Z</time>
      </trkpt>
      <trkpt lat="50.86285" lon="1.735">
        <ele>147.2</ele>
        <time>2020-06-22T20:37:12Z</time>
      </trkpt>
      <trkpt lat="50.86285" lon="1.73508">
        <ele>147</ele>
        <time>2020-06-22T20:37:13Z</time>
      </trkpt>
      <trkpt lat="50.86285" lon="1.73516">
        <ele>146.8</ele>
        <time>2020-06-22T20:37:14Z</time>
      </trkpt>
      <trkpt lat="50.86285" lon="1.73525">
        <ele>146.5</ele>
        <time>2020-06-22T20:37:15Z</time>
      </trkpt>
      <trkpt lat="50.86285" lon="1.73534">
        <ele>146.3</ele>
        <time>2020-06-22T20:37:16Z</time>
      </trkpt>
      <trkpt lat="50.86286" lon="1.73543">
        <ele>146.1</ele>
        <time>2020-06-22T20:37:17Z</time>
      </trkpt>
      <trkpt lat="50.86286" lon="1.73552">
        <ele>145.9</ele>
        <time>2020-06-22T20:37:18Z</time>
      </trkpt>
      <trkpt lat="50.86287" lon="1.7356">
        <ele>145.6</ele>
        <time>2020-06-22T20:37:19Z</time>
      </trkpt>
      <trkpt lat="50.86288" lon="1.7357">
        <ele>145.3</ele>
        <time>2020-06-22T20:37:20Z</time>
      </trkpt>
      <trkpt lat="50.86289" lon="1.7358">
        <ele>145</ele>
        <time>2020-06-22T20:37:21Z</time>
      </trkpt>
      <trkpt lat="50.86289" lon="1.73591">
        <ele>144.6</ele>
        <time>2020-06-22T20:37:22Z</time>
      </trkpt>
      <trkpt lat="50.86289" lon="1.73601">
        <ele>144.4</ele>
        <time>2020-06-22T20:37:23Z</time>
      </trkpt>
      <trkpt lat="50.8629" lon="1.73612">
        <ele>144.1</ele>
        <time>2020-06-22T20:37:24Z</time>
      </trkpt>
      <trkpt lat="50.8629" lon="1.73623">
        <ele>143.8</ele>
        <time>2020-06-22T20:37:25Z</time>
      </trkpt>
      <trkpt lat="50.86291" lon="1.73634">
        <ele>143.5</ele>
        <time>2020-06-22T20:37:26Z</time>
      </trkpt>
      <trkpt lat="50.86291" lon="1.73645">
        <ele>143.3</ele>
        <time>2020-06-22T20:37:27Z</time>
      </trkpt>
      <trkpt lat="50.86291" lon="1.73657">
        <ele>143</ele>
        <time>2020-06-22T20:37:28Z</time>
      </trkpt>
      <trkpt lat="50.86293" lon="1.73667">
        <ele>142.7</ele>
        <time>2020-06-22T20:37:29Z</time>
      </trkpt>
      <trkpt lat="50.86294" lon="1.73678">
        <ele>142.5</ele>
        <time>2020-06-22T20:37:30Z</time>
      </trkpt>
      <trkpt lat="50.86296" lon="1.73689">
        <ele>142.2</ele>
        <time>2020-06-22T20:37:31Z</time>
      </trkpt>
      <trkpt lat="50.86299" lon="1.73701">
        <ele>142</ele>
        <time>2020-06-22T20:37:32Z</time>
      </trkpt>
      <trkpt lat="50.86301" lon="1.73712">
        <ele>141.7</ele>
        <time>2020-06-22T20:37:33Z</time>
      </trkpt>
      <trkpt lat="50.86304" lon="1.73723">
        <ele>141.4</ele>
        <time>2020-06-22T20:37:34Z</time>
      </trkpt>
      <trkpt lat="50.86308" lon="1.73734">
        <ele>141.2</ele>
        <time>2020-06-22T20:37:35Z</time>
      </trkpt>
      <trkpt lat="50.86311" lon="1.73744">
        <ele>141</ele>
        <time>2020-06-22T20:37:36Z</time>
      </trkpt>
      <trkpt lat="50.86315" lon="1.73753">
        <ele>140.8</ele>
        <time>2020-06-22T20:37:37Z</time>
      </trkpt>
      <trkpt lat="50.86319" lon="1.73762">
        <ele>140.6</ele>
        <time>2020-06-22T20:37:38Z</time>
      </trkpt>
      <trkpt lat="50.86324" lon="1.7377">
        <ele>140.5</ele>
        <time>2020-06-22T20:37:39Z</time>
      </trkpt>
      <trkpt lat="50.86329" lon="1.73778">
        <ele>140.3</ele>
        <time>2020-06-22T20:37:40Z</time>
      </trkpt>
      <trkpt lat="50.86334" lon="1.73786">
        <ele>140.2</ele>
        <time>2020-06-22T20:37:41Z</time>
      </trkpt>
      <trkpt lat="50.86339" lon="1.73793">
        <ele>140</ele>
        <time>2020-06-22T20:37:42Z</time>
      </trkpt>
      <trkpt lat="50.86344" lon="1.738">
        <ele>139.9</ele>
        <time>2020-06-22T20:37:43Z</time>
      </trkpt>
      <trkpt lat="50.8635" lon="1.73807">
        <ele>139.8</ele>
        <time>2020-06-22T20:37:44Z</time>
      </trkpt>
      <trkpt lat="50.86355" lon="1.73813">
        <ele>139.8</ele>
        <time>2020-06-22T20:37:45Z</time>
      </trkpt>
      <trkpt lat="50.86361" lon="1.73819">
        <ele>139.8</ele>
        <time>2020-06-22T20:37:46Z</time>
      </trkpt>
      <trkpt lat="50.86367" lon="1.73823">
        <ele>139.7</ele>
        <time>2020-06-22T20:37:47Z</time>
      </trkpt>
      <trkpt lat="50.86373" lon="1.73828">
        <ele>139.7</ele>
        <time>2020-06-22T20:37:48Z</time>
      </trkpt>
      <trkpt lat="50.86379" lon="1.73833">
        <ele>139.6</ele>
        <time>2020-06-22T20:37:49Z</time>
      </trkpt>
      <trkpt lat="50.86385" lon="1.73837">
        <ele>139.6</ele>
        <time>2020-06-22T20:37:50Z</time>
      </trkpt>
      <trkpt lat="50.86391" lon="1.73841">
        <ele>139.5</ele>
        <time>2020-06-22T20:37:51Z</time>
      </trkpt>
      <trkpt lat="50.86397" lon="1.73845">
        <ele>139.5</ele>
        <time>2020-06-22T20:37:52Z</time>
      </trkpt>
      <trkpt lat="50.86403" lon="1.73849">
        <ele>139.4</ele>
        <time>2020-06-22T20:37:53Z</time>
      </trkpt>
      <trkpt lat="50.86409" lon="1.73852">
        <ele>139.4</ele>
        <time>2020-06-22T20:37:54Z</time>
      </trkpt>
      <trkpt lat="50.86415" lon="1.73855">
        <ele>139.4</ele>
        <time>2020-06-22T20:37:55Z</time>
      </trkpt>
      <trkpt lat="50.86422" lon="1.73857">
        <ele>139.3</ele>
        <time>2020-06-22T20:37:56Z</time>
      </trkpt>
      <trkpt lat="50.86428" lon="1.73862">
        <ele>139.3</ele>
        <time>2020-06-22T20:37:57Z</time>
      </trkpt>
      <trkpt lat="50.86434" lon="1.73864">
        <ele>139.3</ele>
        <time>2020-06-22T20:37:58Z</time>
      </trkpt>
      <trkpt lat="50.8644" lon="1.73868">
        <ele>139.3</ele>
        <time>2020-06-22T20:37:59Z</time>
      </trkpt>
      <trkpt lat="50.86446" lon="1.73872">
        <ele>139.3</ele>
        <time>2020-06-22T20:38:00Z</time>
      </trkpt>
      <trkpt lat="50.86453" lon="1.73875">
        <ele>139.2</ele>
        <time>2020-06-22T20:38:01Z</time>
      </trkpt>
      <trkpt lat="50.86459" lon="1.73879">
        <ele>139.1</ele>
        <time>2020-06-22T20:38:02Z</time>
      </trkpt>
      <trkpt lat="50.86465" lon="1.73883">
        <ele>139</ele>
        <time>2020-06-22T20:38:03Z</time>
      </trkpt>
      <trkpt lat="50.86471" lon="1.73886">
        <ele>139</ele>
        <time>2020-06-22T20:38:04Z</time>
      </trkpt>
      <trkpt lat="50.86477" lon="1.73889">
        <ele>138.9</ele>
        <time>2020-06-22T20:38:05Z</time>
      </trkpt>
      <trkpt lat="50.86483" lon="1.73892">
        <ele>138.8</ele>
        <time>2020-06-22T20:38:06Z</time>
      </trkpt>
      <trkpt lat="50.8649" lon="1.73895">
        <ele>138.6</ele>
        <time>2020-06-22T20:38:07Z</time>
      </trkpt>
      <trkpt lat="50.86496" lon="1.73897">
        <ele>138.5</ele>
        <time>2020-06-22T20:38:08Z</time>
      </trkpt>
      <trkpt lat="50.86502" lon="1.739">
        <ele>138.4</ele>
        <time>2020-06-22T20:38:09Z</time>
      </trkpt>
      <trkpt lat="50.86508" lon="1.73903">
        <ele>138.2</ele>
        <time>2020-06-22T20:38:10Z</time>
      </trkpt>
      <trkpt lat="50.86514" lon="1.73907">
        <ele>138.1</ele>
        <time>2020-06-22T20:38:11Z</time>
      </trkpt>
      <trkpt lat="50.86521" lon="1.7391">
        <ele>137.8</ele>
        <time>2020-06-22T20:38:12Z</time>
      </trkpt>
      <trkpt lat="50.86527" lon="1.73913">
        <ele>137.6</ele>
        <time>2020-06-22T20:38:13Z</time>
      </trkpt>
      <trkpt lat="50.86534" lon="1.73916">
        <ele>137.4</ele>
        <time>2020-06-22T20:38:14Z</time>
      </trkpt>
      <trkpt lat="50.8654" lon="1.7392">
        <ele>137.2</ele>
        <time>2020-06-22T20:38:15Z</time>
      </trkpt>
      <trkpt lat="50.86547" lon="1.73924">
        <ele>136.9</ele>
        <time>2020-06-22T20:38:16Z</time>
      </trkpt>
      <trkpt lat="50.86553" lon="1.73927">
        <ele>136.7</ele>
        <time>2020-06-22T20:38:17Z</time>
      </trkpt>
      <trkpt lat="50.8656" lon="1.7393">
        <ele>136.4</ele>
        <time>2020-06-22T20:38:18Z</time>
      </trkpt>
      <trkpt lat="50.86567" lon="1.73934">
        <ele>136.1</ele>
        <time>2020-06-22T20:38:19Z</time>
      </trkpt>
      <trkpt lat="50.86574" lon="1.73938">
        <ele>135.8</ele>
        <time>2020-06-22T20:38:20Z</time>
      </trkpt>
      <trkpt lat="50.86581" lon="1.73941">
        <ele>135.5</ele>
        <time>2020-06-22T20:38:21Z</time>
      </trkpt>
      <trkpt lat="50.86588" lon="1.73945">
        <ele>135.2</ele>
        <time>2020-06-22T20:38:22Z</time>
      </trkpt>
      <trkpt lat="50.86595" lon="1.73949">
        <ele>135</ele>
        <time>2020-06-22T20:38:23Z</time>
      </trkpt>
      <trkpt lat="50.86602" lon="1.73954">
        <ele>134.7</ele>
        <time>2020-06-22T20:38:24Z</time>
      </trkpt>
      <trkpt lat="50.86609" lon="1.73959">
        <ele>134.5</ele>
        <time>2020-06-22T20:38:25Z</time>
      </trkpt>
      <trkpt lat="50.86616" lon="1.73964">
        <ele>134.2</ele>
        <time>2020-06-22T20:38:26Z</time>
      </trkpt>
      <trkpt lat="50.86623" lon="1.73969">
        <ele>134</ele>
        <time>2020-06-22T20:38:27Z</time>
      </trkpt>
      <trkpt lat="50.8663" lon="1.73973">
        <ele>133.8</ele>
        <time>2020-06-22T20:38:28Z</time>
      </trkpt>
      <trkpt lat="50.86638" lon="1.73977">
        <ele>133.5</ele>
        <time>2020-06-22T20:38:29Z</time>
      </trkpt>
      <trkpt lat="50.86645" lon="1.73981">
        <ele>133.3</ele>
        <time>2020-06-22T20:38:30Z</time>
      </trkpt>
      <trkpt lat="50.86653" lon="1.73985">
        <ele>133</ele>
        <time>2020-06-22T20:38:31Z</time>
      </trkpt>
      <trkpt lat="50.86661" lon="1.73989">
        <ele>132.7</ele>
        <time>2020-06-22T20:38:32Z</time>
      </trkpt>
      <trkpt lat="50.86668" lon="1.73994">
        <ele>132.4</ele>
        <time>2020-06-22T20:38:33Z</time>
      </trkpt>
      <trkpt lat="50.86676" lon="1.73999">
        <ele>132.1</ele>
        <time>2020-06-22T20:38:34Z</time>
      </trkpt>
      <trkpt lat="50.86683" lon="1.74003">
        <ele>131.9</ele>
        <time>2020-06-22T20:38:35Z</time>
      </trkpt>
      <trkpt lat="50.86691" lon="1.74007">
        <ele>131.6</ele>
        <time>2020-06-22T20:38:36Z</time>
      </trkpt>
      <trkpt lat="50.86699" lon="1.74011">
        <ele>131.2</ele>
        <time>2020-06-22T20:38:37Z</time>
      </trkpt>
      <trkpt lat="50.86707" lon="1.74015">
        <ele>130.9</ele>
        <time>2020-06-22T20:38:38Z</time>
      </trkpt>
      <trkpt lat="50.86715" lon="1.74019">
        <ele>130.6</ele>
        <time>2020-06-22T20:38:39Z</time>
      </trkpt>
      <trkpt lat="50.86723" lon="1.74023">
        <ele>130.3</ele>
        <time>2020-06-22T20:38:40Z</time>
      </trkpt>
      <trkpt lat="50.8673" lon="1.74028">
        <ele>130</ele>
        <time>2020-06-22T20:38:41Z</time>
      </trkpt>
      <trkpt lat="50.86738" lon="1.74033">
        <ele>129.7</ele>
        <time>2020-06-22T20:38:42Z</time>
      </trkpt>
      <trkpt lat="50.86746" lon="1.74038">
        <ele>129.3</ele>
        <time>2020-06-22T20:38:43Z</time>
      </trkpt>
      <trkpt lat="50.86754" lon="1.74043">
        <ele>129</ele>
        <time>2020-06-22T20:38:44Z</time>
      </trkpt>
      <trkpt lat="50.86762" lon="1.74048">
        <ele>128.7</ele>
        <time>2020-06-22T20:38:45Z</time>
      </trkpt>
      <trkpt lat="50.8677" lon="1.74053">
        <ele>128.4</ele>
        <time>2020-06-22T20:38:46Z</time>
      </trkpt>
      <trkpt lat="50.86778" lon="1.74057">
        <ele>128</ele>
        <time>2020-06-22T20:38:47Z</time>
      </trkpt>
      <trkpt lat="50.86786" lon="1.74062">
        <ele>127.7</ele>
        <time>2020-06-22T20:38:48Z</time>
      </trkpt>
      <trkpt lat="50.86794" lon="1.74067">
        <ele>127.3</ele>
        <time>2020-06-22T20:38:49Z</time>
      </trkpt>
      <trkpt lat="50.86803" lon="1.74072">
        <ele>127</ele>
        <time>2020-06-22T20:38:50Z</time>
      </trkpt>
      <trkpt lat="50.86811" lon="1.74076">
        <ele>126.6</ele>
        <time>2020-06-22T20:38:51Z</time>
      </trkpt>
      <trkpt lat="50.86819" lon="1.7408">
        <ele>126.2</ele>
        <time>2020-06-22T20:38:52Z</time>
      </trkpt>
      <trkpt lat="50.86828" lon="1.74084">
        <ele>125.9</ele>
        <time>2020-06-22T20:38:53Z</time>
      </trkpt>
      <trkpt lat="50.86836" lon="1.74089">
        <ele>125.6</ele>
        <time>2020-06-22T20:38:54Z</time>
      </trkpt>
      <trkpt lat="50.86844" lon="1.74093">
        <ele>125.2</ele>
        <time>2020-06-22T20:38:55Z</time>
      </trkpt>
      <trkpt lat="50.86853" lon="1.74098">
        <ele>124.8</ele>
        <time>2020-06-22T20:38:56Z</time>
      </trkpt>
      <trkpt lat="50.86861" lon="1.74102">
        <ele>124.4</ele>
        <time>2020-06-22T20:38:57Z</time>
      </trkpt>
      <trkpt lat="50.8687" lon="1.74108">
        <ele>124.1</ele>
        <time>2020-06-22T20:38:58Z</time>
      </trkpt>
      <trkpt lat="50.86878" lon="1.74112">
        <ele>123.7</ele>
        <time>2020-06-22T20:38:59Z</time>
      </trkpt>
      <trkpt lat="50.86887" lon="1.74117">
        <ele>123.4</ele>
        <time>2020-06-22T20:39:00Z</time>
      </trkpt>
      <trkpt lat="50.86895" lon="1.74121">
        <ele>123.1</ele>
        <time>2020-06-22T20:39:01Z</time>
      </trkpt>
      <trkpt lat="50.86904" lon="1.74125">
        <ele>122.7</ele>
        <time>2020-06-22T20:39:02Z</time>
      </trkpt>
      <trkpt lat="50.86912" lon="1.7413">
        <ele>122.4</ele>
        <time>2020-06-22T20:39:03Z</time>
      </trkpt>
      <trkpt lat="50.86921" lon="1.74135">
        <ele>121.9</ele>
        <time>2020-06-22T20:39:04Z</time>
      </trkpt>
      <trkpt lat="50.8693" lon="1.74139">
        <ele>121.5</ele>
        <time>2020-06-22T20:39:05Z</time>
      </trkpt>
      <trkpt lat="50.86938" lon="1.74144">
        <ele>121.1</ele>
        <time>2020-06-22T20:39:06Z</time>
      </trkpt>
      <trkpt lat="50.86947" lon="1.7415">
        <ele>120.7</ele>
        <time>2020-06-22T20:39:07Z</time>
      </trkpt>
      <trkpt lat="50.86955" lon="1.74155">
        <ele>120.3</ele>
        <time>2020-06-22T20:39:08Z</time>
      </trkpt>
      <trkpt lat="50.86964" lon="1.74161">
        <ele>120</ele>
        <time>2020-06-22T20:39:09Z</time>
      </trkpt>
      <trkpt lat="50.86972" lon="1.74166">
        <ele>119.6</ele>
        <time>2020-06-22T20:39:10Z</time>
      </trkpt>
      <trkpt lat="50.86981" lon="1.74171">
        <ele>119.3</ele>
        <time>2020-06-22T20:39:11Z</time>
      </trkpt>
      <trkpt lat="50.86989" lon="1.74177">
        <ele>119</ele>
        <time>2020-06-22T20:39:12Z</time>
      </trkpt>
      <trkpt lat="50.86998" lon="1.74181">
        <ele>118.7</ele>
        <time>2020-06-22T20:39:13Z</time>
      </trkpt>
      <trkpt lat="50.87007" lon="1.74186">
        <ele>118.3</ele>
        <time>2020-06-22T20:39:14Z</time>
      </trkpt>
      <trkpt lat="50.87016" lon="1.74191">
        <ele>118</ele>
        <time>2020-06-22T20:39:15Z</time>
      </trkpt>
      <trkpt lat="50.87024" lon="1.74195">
        <ele>117.7</ele>
        <time>2020-06-22T20:39:16Z</time>
      </trkpt>
      <trkpt lat="50.87033" lon="1.742">
        <ele>117.4</ele>
        <time>2020-06-22T20:39:17Z</time>
      </trkpt>
      <trkpt lat="50.87041" lon="1.74206">
        <ele>117</ele>
        <time>2020-06-22T20:39:18Z</time>
      </trkpt>
      <trkpt lat="50.8705" lon="1.74211">
        <ele>116.7</ele>
        <time>2020-06-22T20:39:19Z</time>
      </trkpt>
      <trkpt lat="50.87059" lon="1.74217">
        <ele>116.3</ele>
        <time>2020-06-22T20:39:20Z</time>
      </trkpt>
      <trkpt lat="50.87068" lon="1.74221">
        <ele>115.9</ele>
        <time>2020-06-22T20:39:21Z</time>
      </trkpt>
      <trkpt lat="50.87076" lon="1.74226">
        <ele>115.6</ele>
        <time>2020-06-22T20:39:22Z</time>
      </trkpt>
      <trkpt lat="50.87085" lon="1.74231">
        <ele>115.3</ele>
        <time>2020-06-22T20:39:23Z</time>
      </trkpt>
      <trkpt lat="50.87094" lon="1.74236">
        <ele>115</ele>
        <time>2020-06-22T20:39:24Z</time>
      </trkpt>
      <trkpt lat="50.87103" lon="1.74242">
        <ele>114.8</ele>
        <time>2020-06-22T20:39:25Z</time>
      </trkpt>
      <trkpt lat="50.87111" lon="1.74246">
        <ele>114.4</ele>
        <time>2020-06-22T20:39:26Z</time>
      </trkpt>
      <trkpt lat="50.8712" lon="1.74251">
        <ele>114.1</ele>
        <time>2020-06-22T20:39:27Z</time>
      </trkpt>
      <trkpt lat="50.87128" lon="1.74256">
        <ele>113.8</ele>
        <time>2020-06-22T20:39:28Z</time>
      </trkpt>
      <trkpt lat="50.87137" lon="1.74261">
        <ele>113.5</ele>
        <time>2020-06-22T20:39:29Z</time>
      </trkpt>
      <trkpt lat="50.87145" lon="1.74265">
        <ele>113.1</ele>
        <time>2020-06-22T20:39:30Z</time>
      </trkpt>
      <trkpt lat="50.87154" lon="1.7427">
        <ele>112.8</ele>
        <time>2020-06-22T20:39:31Z</time>
      </trkpt>
      <trkpt lat="50.87162" lon="1.74274">
        <ele>112.5</ele>
        <time>2020-06-22T20:39:32Z</time>
      </trkpt>
      <trkpt lat="50.87171" lon="1.7428">
        <ele>112.1</ele>
        <time>2020-06-22T20:39:33Z</time>
      </trkpt>
      <trkpt lat="50.8718" lon="1.74285">
        <ele>111.8</ele>
        <time>2020-06-22T20:39:34Z</time>
      </trkpt>
      <trkpt lat="50.87188" lon="1.7429">
        <ele>111.4</ele>
        <time>2020-06-22T20:39:35Z</time>
      </trkpt>
      <trkpt lat="50.87197" lon="1.74295">
        <ele>111</ele>
        <time>2020-06-22T20:39:36Z</time>
      </trkpt>
      <trkpt lat="50.87206" lon="1.743">
        <ele>110.6</ele>
        <time>2020-06-22T20:39:37Z</time>
      </trkpt>
      <trkpt lat="50.87214" lon="1.74304">
        <ele>110.2</ele>
        <time>2020-06-22T20:39:38Z</time>
      </trkpt>
      <trkpt lat="50.87223" lon="1.74309">
        <ele>109.8</ele>
        <time>2020-06-22T20:39:39Z</time>
      </trkpt>
      <trkpt lat="50.87232" lon="1.74314">
        <ele>109.4</ele>
        <time>2020-06-22T20:39:40Z</time>
      </trkpt>
      <trkpt lat="50.8724" lon="1.74318">
        <ele>109.1</ele>
        <time>2020-06-22T20:39:41Z</time>
      </trkpt>
      <trkpt lat="50.87249" lon="1.74323">
        <ele>108.7</ele>
        <time>2020-06-22T20:39:42Z</time>
      </trkpt>
      <trkpt lat="50.87258" lon="1.74328">
        <ele>108.5</ele>
        <time>2020-06-22T20:39:43Z</time>
      </trkpt>
      <trkpt lat="50.87266" lon="1.74333">
        <ele>108.2</ele>
        <time>2020-06-22T20:39:44Z</time>
      </trkpt>
      <trkpt lat="50.87275" lon="1.74338">
        <ele>108.1</ele>
        <time>2020-06-22T20:39:45Z</time>
      </trkpt>
      <trkpt lat="50.87283" lon="1.74342">
        <ele>107.9</ele>
        <time>2020-06-22T20:39:46Z</time>
      </trkpt>
      <trkpt lat="50.87291" lon="1.74347">
        <ele>107.9</ele>
        <time>2020-06-22T20:39:47Z</time>
      </trkpt>
      <trkpt lat="50.87299" lon="1.74351">
        <ele>107.9</ele>
        <time>2020-06-22T20:39:48Z</time>
      </trkpt>
      <trkpt lat="50.87307" lon="1.74356">
        <ele>108</ele>
        <time>2020-06-22T20:39:49Z</time>
      </trkpt>
      <trkpt lat="50.87314" lon="1.7436">
        <ele>108</ele>
        <time>2020-06-22T20:39:50Z</time>
      </trkpt>
      <trkpt lat="50.87322" lon="1.74363">
        <ele>108.2</ele>
        <time>2020-06-22T20:39:51Z</time>
      </trkpt>
      <trkpt lat="50.87329" lon="1.74367">
        <ele>108.3</ele>
        <time>2020-06-22T20:39:52Z</time>
      </trkpt>
      <trkpt lat="50.87335" lon="1.74371">
        <ele>108.4</ele>
        <time>2020-06-22T20:39:53Z</time>
      </trkpt>
      <trkpt lat="50.87342" lon="1.74375">
        <ele>108.6</ele>
        <time>2020-06-22T20:39:54Z</time>
      </trkpt>
      <trkpt lat="50.87348" lon="1.74378">
        <ele>108.7</ele>
        <time>2020-06-22T20:39:55Z</time>
      </trkpt>
      <trkpt lat="50.87354" lon="1.74382">
        <ele>108.9</ele>
        <time>2020-06-22T20:39:56Z</time>
      </trkpt>
      <trkpt lat="50.87361" lon="1.74384">
        <ele>109.1</ele>
        <time>2020-06-22T20:39:57Z</time>
      </trkpt>
      <trkpt lat="50.87368" lon="1.74387">
        <ele>109.3</ele>
        <time>2020-06-22T20:39:58Z</time>
      </trkpt>
      <trkpt lat="50.87374" lon="1.74391">
        <ele>109.6</ele>
        <time>2020-06-22T20:39:59Z</time>
      </trkpt>
      <trkpt lat="50.8738" lon="1.74394">
        <ele>109.9</ele>
        <time>2020-06-22T20:40:00Z</time>
      </trkpt>
      <trkpt lat="50.87387" lon="1.74397">
        <ele>110.2</ele>
        <time>2020-06-22T20:40:01Z</time>
      </trkpt>
      <trkpt lat="50.87393" lon="1.744">
        <ele>110.6</ele>
        <time>2020-06-22T20:40:02Z</time>
      </trkpt>
      <trkpt lat="50.87399" lon="1.74404">
        <ele>111.1</ele>
        <time>2020-06-22T20:40:03Z</time>
      </trkpt>
      <trkpt lat="50.87405" lon="1.74407">
        <ele>111.6</ele>
        <time>2020-06-22T20:40:04Z</time>
      </trkpt>
      <trkpt lat="50.8741" lon="1.74411">
        <ele>112.1</ele>
        <time>2020-06-22T20:40:05Z</time>
      </trkpt>
      <trkpt lat="50.87416" lon="1.74414">
        <ele>112.6</ele>
        <time>2020-06-22T20:40:06Z</time>
      </trkpt>
      <trkpt lat="50.87421" lon="1.74418">
        <ele>113.1</ele>
        <time>2020-06-22T20:40:07Z</time>
      </trkpt>
      <trkpt lat="50.87427" lon="1.7442">
        <ele>113.6</ele>
        <time>2020-06-22T20:40:08Z</time>
      </trkpt>
      <trkpt lat="50.87432" lon="1.74423">
        <ele>114.1</ele>
        <time>2020-06-22T20:40:09Z</time>
      </trkpt>
      <trkpt lat="50.87437" lon="1.74426">
        <ele>114.6</ele>
        <time>2020-06-22T20:40:10Z</time>
      </trkpt>
      <trkpt lat="50.87441" lon="1.74429">
        <ele>115</ele>
        <time>2020-06-22T20:40:11Z</time>
      </trkpt>
      <trkpt lat="50.87446" lon="1.74432">
        <ele>115.3</ele>
        <time>2020-06-22T20:40:12Z</time>
      </trkpt>
      <trkpt lat="50.8745" lon="1.74433">
        <ele>115.7</ele>
        <time>2020-06-22T20:40:13Z</time>
      </trkpt>
      <trkpt lat="50.87454" lon="1.74435">
        <ele>116</ele>
        <time>2020-06-22T20:40:14Z</time>
      </trkpt>
      <trkpt lat="50.87458" lon="1.74436">
        <ele>116.6</ele>
        <time>2020-06-22T20:40:15Z</time>
      </trkpt>
      <trkpt lat="50.87462" lon="1.74438">
        <ele>116.5</ele>
        <time>2020-06-22T20:40:16Z</time>
      </trkpt>
      <trkpt lat="50.87465" lon="1.74438">
        <ele>116.5</ele>
        <time>2020-06-22T20:40:17Z</time>
      </trkpt>
      <trkpt lat="50.87468" lon="1.74438">
        <ele>116.6</ele>
        <time>2020-06-22T20:40:18Z</time>
      </trkpt>
      <trkpt lat="50.87471" lon="1.7444">
        <ele>116.7</ele>
        <time>2020-06-22T20:40:19Z</time>
      </trkpt>
      <trkpt lat="50.87474" lon="1.74441">
        <ele>116.8</ele>
        <time>2020-06-22T20:40:20Z</time>
      </trkpt>
      <trkpt lat="50.87478" lon="1.74444">
        <ele>116.9</ele>
        <time>2020-06-22T20:40:21Z</time>
      </trkpt>
      <trkpt lat="50.8748" lon="1.74445">
        <ele>117</ele>
        <time>2020-06-22T20:40:22Z</time>
      </trkpt>
      <trkpt lat="50.87484" lon="1.74446">
        <ele>117.2</ele>
        <time>2020-06-22T20:40:23Z</time>
      </trkpt>
      <trkpt lat="50.87488" lon="1.74448">
        <ele>117.3</ele>
        <time>2020-06-22T20:40:24Z</time>
      </trkpt>
      <trkpt lat="50.87492" lon="1.7445">
        <ele>117.5</ele>
        <time>2020-06-22T20:40:25Z</time>
      </trkpt>
      <trkpt lat="50.87495" lon="1.74452">
        <ele>117.7</ele>
        <time>2020-06-22T20:40:26Z</time>
      </trkpt>
      <trkpt lat="50.87499" lon="1.74454">
        <ele>117.8</ele>
        <time>2020-06-22T20:40:27Z</time>
      </trkpt>
      <trkpt lat="50.87503" lon="1.74457">
        <ele>118</ele>
        <time>2020-06-22T20:40:28Z</time>
      </trkpt>
      <trkpt lat="50.87506" lon="1.74457">
        <ele>118.1</ele>
        <time>2020-06-22T20:40:29Z</time>
      </trkpt>
      <trkpt lat="50.87509" lon="1.74459">
        <ele>118.3</ele>
        <time>2020-06-22T20:40:30Z</time>
      </trkpt>
      <trkpt lat="50.87513" lon="1.74461">
        <ele>118.4</ele>
        <time>2020-06-22T20:40:31Z</time>
      </trkpt>
      <trkpt lat="50.87517" lon="1.74463">
        <ele>118.6</ele>
        <time>2020-06-22T20:40:32Z</time>
      </trkpt>
      <trkpt lat="50.87519" lon="1.74468">
        <ele>118.7</ele>
        <time>2020-06-22T20:40:33Z</time>
      </trkpt>
      <trkpt lat="50.8752" lon="1.74469">
        <ele>118.8</ele>
        <time>2020-06-22T20:40:34Z</time>
      </trkpt>
      <trkpt lat="50.87525" lon="1.74471">
        <ele>119</ele>
        <time>2020-06-22T20:40:35Z</time>
      </trkpt>
      <trkpt lat="50.87529" lon="1.74473">
        <ele>119.2</ele>
        <time>2020-06-22T20:40:36Z</time>
      </trkpt>
      <trkpt lat="50.87532" lon="1.74473">
        <ele>119.3</ele>
        <time>2020-06-22T20:40:37Z</time>
      </trkpt>
      <trkpt lat="50.87533" lon="1.74473">
        <ele>119.3</ele>
        <time>2020-06-22T20:40:38Z</time>
      </trkpt>
      <trkpt lat="50.87536" lon="1.74474">
        <ele>119.4</ele>
        <time>2020-06-22T20:40:39Z</time>
      </trkpt>
      <trkpt lat="50.87537" lon="1.74475">
        <ele>119.5</ele>
        <time>2020-06-22T20:40:40Z</time>
      </trkpt>
      <trkpt lat="50.87537" lon="1.74477">
        <ele>119.5</ele>
        <time>2020-06-22T20:40:41Z</time>
      </trkpt>
      <trkpt lat="50.87538" lon="1.74479">
        <ele>119.5</ele>
        <time>2020-06-22T20:40:42Z</time>
      </trkpt>
      <trkpt lat="50.8754" lon="1.74482">
        <ele>119.4</ele>
        <time>2020-06-22T20:40:43Z</time>
      </trkpt>
      <trkpt lat="50.87543" lon="1.74485">
        <ele>119.3</ele>
        <time>2020-06-22T20:40:44Z</time>
      </trkpt>
      <trkpt lat="50.87543" lon="1.74486">
        <ele>119.3</ele>
        <time>2020-06-22T20:40:45Z</time>
      </trkpt>
      <trkpt lat="50.87544" lon="1.74489">
        <ele>119.2</ele>
        <time>2020-06-22T20:40:46Z</time>
      </trkpt>
      <trkpt lat="50.87544" lon="1.74491">
        <ele>119.2</ele>
        <time>2020-06-22T20:40:47Z</time>
      </trkpt>
      <trkpt lat="50.87544" lon="1.74493">
        <ele>119.1</ele>
        <time>2020-06-22T20:40:48Z</time>
      </trkpt>
      <trkpt lat="50.87543" lon="1.74498">
        <ele>119</ele>
        <time>2020-06-22T20:40:49Z</time>
      </trkpt>
      <trkpt lat="50.87543" lon="1.74504">
        <ele>118.9</ele>
        <time>2020-06-22T20:40:50Z</time>
      </trkpt>
      <trkpt lat="50.87543" lon="1.7451">
        <ele>118.7</ele>
        <time>2020-06-22T20:40:51Z</time>
      </trkpt>
      <trkpt lat="50.87544" lon="1.74515">
        <ele>118.5</ele>
        <time>2020-06-22T20:40:52Z</time>
      </trkpt>
      <trkpt lat="50.87544" lon="1.74521">
        <ele>118.4</ele>
        <time>2020-06-22T20:40:53Z</time>
      </trkpt>
      <trkpt lat="50.87545" lon="1.74528">
        <ele>118.3</ele>
        <time>2020-06-22T20:40:54Z</time>
      </trkpt>
      <trkpt lat="50.87546" lon="1.74535">
        <ele>118.2</ele>
        <time>2020-06-22T20:40:55Z</time>
      </trkpt>
      <trkpt lat="50.87547" lon="1.74541">
        <ele>118.1</ele>
        <time>2020-06-22T20:40:56Z</time>
      </trkpt>
      <trkpt lat="50.87547" lon="1.74547">
        <ele>118.1</ele>
        <time>2020-06-22T20:40:57Z</time>
      </trkpt>
      <trkpt lat="50.87547" lon="1.74556">
        <ele>117.9</ele>
        <time>2020-06-22T20:40:58Z</time>
      </trkpt>
      <trkpt lat="50.87547" lon="1.74564">
        <ele>117.8</ele>
        <time>2020-06-22T20:40:59Z</time>
      </trkpt>
      <trkpt lat="50.87548" lon="1.74572">
        <ele>117.7</ele>
        <time>2020-06-22T20:41:00Z</time>
      </trkpt>
      <trkpt lat="50.87549" lon="1.74581">
        <ele>117.6</ele>
        <time>2020-06-22T20:41:01Z</time>
      </trkpt>
      <trkpt lat="50.8755" lon="1.7459">
        <ele>117.3</ele>
        <time>2020-06-22T20:41:02Z</time>
      </trkpt>
      <trkpt lat="50.87551" lon="1.746">
        <ele>117.2</ele>
        <time>2020-06-22T20:41:03Z</time>
      </trkpt>
      <trkpt lat="50.87552" lon="1.74611">
        <ele>117.1</ele>
        <time>2020-06-22T20:41:04Z</time>
      </trkpt>
      <trkpt lat="50.87552" lon="1.74622">
        <ele>117.1</ele>
        <time>2020-06-22T20:41:05Z</time>
      </trkpt>
      <trkpt lat="50.87552" lon="1.74634">
        <ele>116.9</ele>
        <time>2020-06-22T20:41:06Z</time>
      </trkpt>
      <trkpt lat="50.87554" lon="1.74645">
        <ele>116.8</ele>
        <time>2020-06-22T20:41:07Z</time>
      </trkpt>
      <trkpt lat="50.87554" lon="1.74655">
        <ele>116.7</ele>
        <time>2020-06-22T20:41:08Z</time>
      </trkpt>
      <trkpt lat="50.87555" lon="1.74665">
        <ele>116.6</ele>
        <time>2020-06-22T20:41:09Z</time>
      </trkpt>
      <trkpt lat="50.87556" lon="1.74676">
        <ele>116.4</ele>
        <time>2020-06-22T20:41:10Z</time>
      </trkpt>
      <trkpt lat="50.87557" lon="1.74686">
        <ele>116.4</ele>
        <time>2020-06-22T20:41:11Z</time>
      </trkpt>
      <trkpt lat="50.87558" lon="1.74698">
        <ele>116.3</ele>
        <time>2020-06-22T20:41:12Z</time>
      </trkpt>
      <trkpt lat="50.87558" lon="1.74709">
        <ele>116.2</ele>
        <time>2020-06-22T20:41:13Z</time>
      </trkpt>
      <trkpt lat="50.87559" lon="1.7472">
        <ele>116.1</ele>
        <time>2020-06-22T20:41:14Z</time>
      </trkpt>
      <trkpt lat="50.87559" lon="1.74732">
        <ele>116.1</ele>
        <time>2020-06-22T20:41:15Z</time>
      </trkpt>
      <trkpt lat="50.87559" lon="1.74744">
        <ele>116.1</ele>
        <time>2020-06-22T20:41:16Z</time>
      </trkpt>
      <trkpt lat="50.87559" lon="1.74755">
        <ele>116.1</ele>
        <time>2020-06-22T20:41:17Z</time>
      </trkpt>
      <trkpt lat="50.87559" lon="1.74766">
        <ele>116.2</ele>
        <time>2020-06-22T20:41:18Z</time>
      </trkpt>
      <trkpt lat="50.8756" lon="1.74776">
        <ele>116.3</ele>
        <time>2020-06-22T20:41:19Z</time>
      </trkpt>
      <trkpt lat="50.8756" lon="1.74787">
        <ele>116.4</ele>
        <time>2020-06-22T20:41:20Z</time>
      </trkpt>
      <trkpt lat="50.8756" lon="1.74798">
        <ele>116.6</ele>
        <time>2020-06-22T20:41:21Z</time>
      </trkpt>
      <trkpt lat="50.87561" lon="1.74808">
        <ele>116.7</ele>
        <time>2020-06-22T20:41:22Z</time>
      </trkpt>
      <trkpt lat="50.87561" lon="1.74818">
        <ele>116.9</ele>
        <time>2020-06-22T20:41:23Z</time>
      </trkpt>
      <trkpt lat="50.87562" lon="1.74827">
        <ele>117.1</ele>
        <time>2020-06-22T20:41:24Z</time>
      </trkpt>
      <trkpt lat="50.87563" lon="1.74837">
        <ele>117.3</ele>
        <time>2020-06-22T20:41:25Z</time>
      </trkpt>
      <trkpt lat="50.87564" lon="1.74845">
        <ele>117.5</ele>
        <time>2020-06-22T20:41:26Z</time>
      </trkpt>
      <trkpt lat="50.87564" lon="1.74854">
        <ele>117.7</ele>
        <time>2020-06-22T20:41:27Z</time>
      </trkpt>
      <trkpt lat="50.87565" lon="1.74863">
        <ele>117.9</ele>
        <time>2020-06-22T20:41:28Z</time>
      </trkpt>
      <trkpt lat="50.87565" lon="1.74871">
        <ele>118</ele>
        <time>2020-06-22T20:41:29Z</time>
      </trkpt>
      <trkpt lat="50.87567" lon="1.74879">
        <ele>118.1</ele>
        <time>2020-06-22T20:41:30Z</time>
      </trkpt>
      <trkpt lat="50.87568" lon="1.74887">
        <ele>118.1</ele>
        <time>2020-06-22T20:41:31Z</time>
      </trkpt>
      <trkpt lat="50.87568" lon="1.74894">
        <ele>118.2</ele>
        <time>2020-06-22T20:41:32Z</time>
      </trkpt>
      <trkpt lat="50.87569" lon="1.74901">
        <ele>118.2</ele>
        <time>2020-06-22T20:41:33Z</time>
      </trkpt>
      <trkpt lat="50.8757" lon="1.74908">
        <ele>118.2</ele>
        <time>2020-06-22T20:41:34Z</time>
      </trkpt>
      <trkpt lat="50.87571" lon="1.74915">
        <ele>118.2</ele>
        <time>2020-06-22T20:41:35Z</time>
      </trkpt>
      <trkpt lat="50.87572" lon="1.74921">
        <ele>118.3</ele>
        <time>2020-06-22T20:41:36Z</time>
      </trkpt>
      <trkpt lat="50.87573" lon="1.74928">
        <ele>118.3</ele>
        <time>2020-06-22T20:41:37Z</time>
      </trkpt>
      <trkpt lat="50.87574" lon="1.74934">
        <ele>118.3</ele>
        <time>2020-06-22T20:41:38Z</time>
      </trkpt>
      <trkpt lat="50.87576" lon="1.7494">
        <ele>118.2</ele>
        <time>2020-06-22T20:41:39Z</time>
      </trkpt>
      <trkpt lat="50.87578" lon="1.74946">
        <ele>118.2</ele>
        <time>2020-06-22T20:41:40Z</time>
      </trkpt>
      <trkpt lat="50.87579" lon="1.74951">
        <ele>118.2</ele>
        <time>2020-06-22T20:41:41Z</time>
      </trkpt>
      <trkpt lat="50.87579" lon="1.74957">
        <ele>118.2</ele>
        <time>2020-06-22T20:41:42Z</time>
      </trkpt>
      <trkpt lat="50.87579" lon="1.7496">
        <ele>118.2</ele>
        <time>2020-06-22T20:41:43Z</time>
      </trkpt>
      <trkpt lat="50.87579" lon="1.74965">
        <ele>118.1</ele>
        <time>2020-06-22T20:41:44Z</time>
      </trkpt>
      <trkpt lat="50.87579" lon="1.74971">
        <ele>118.1</ele>
        <time>2020-06-22T20:41:45Z</time>
      </trkpt>
      <trkpt lat="50.8758" lon="1.74976">
        <ele>118</ele>
        <time>2020-06-22T20:41:46Z</time>
      </trkpt>
      <trkpt lat="50.87581" lon="1.74982">
        <ele>118.1</ele>
        <time>2020-06-22T20:41:47Z</time>
      </trkpt>
      <trkpt lat="50.87581" lon="1.74987">
        <ele>118.1</ele>
        <time>2020-06-22T20:41:48Z</time>
      </trkpt>
      <trkpt lat="50.87582" lon="1.74993">
        <ele>118.1</ele>
        <time>2020-06-22T20:41:49Z</time>
      </trkpt>
      <trkpt lat="50.87583" lon="1.75001">
        <ele>118</ele>
        <time>2020-06-22T20:41:50Z</time>
      </trkpt>
      <trkpt lat="50.87584" lon="1.75008">
        <ele>118</ele>
        <time>2020-06-22T20:41:51Z</time>
      </trkpt>
      <trkpt lat="50.87585" lon="1.75015">
        <ele>118</ele>
        <time>2020-06-22T20:41:52Z</time>
      </trkpt>
      <trkpt lat="50.87587" lon="1.75021">
        <ele>117.9</ele>
        <time>2020-06-22T20:41:53Z</time>
      </trkpt>
      <trkpt lat="50.87588" lon="1.7503">
        <ele>117.8</ele>
        <time>2020-06-22T20:41:54Z</time>
      </trkpt>
      <trkpt lat="50.87589" lon="1.75039">
        <ele>117.7</ele>
        <time>2020-06-22T20:41:55Z</time>
      </trkpt>
      <trkpt lat="50.87591" lon="1.75048">
        <ele>117.6</ele>
        <time>2020-06-22T20:41:56Z</time>
      </trkpt>
      <trkpt lat="50.87591" lon="1.75057">
        <ele>117.5</ele>
        <time>2020-06-22T20:41:57Z</time>
      </trkpt>
      <trkpt lat="50.87593" lon="1.75065">
        <ele>117.3</ele>
        <time>2020-06-22T20:41:58Z</time>
      </trkpt>
      <trkpt lat="50.87593" lon="1.75073">
        <ele>117.2</ele>
        <time>2020-06-22T20:41:59Z</time>
      </trkpt>
      <trkpt lat="50.87594" lon="1.75084">
        <ele>117.1</ele>
        <time>2020-06-22T20:42:00Z</time>
      </trkpt>
      <trkpt lat="50.87596" lon="1.7509">
        <ele>117</ele>
        <time>2020-06-22T20:42:01Z</time>
      </trkpt>
      <trkpt lat="50.87598" lon="1.75097">
        <ele>116.8</ele>
        <time>2020-06-22T20:42:02Z</time>
      </trkpt>
      <trkpt lat="50.876" lon="1.75107">
        <ele>116.7</ele>
        <time>2020-06-22T20:42:03Z</time>
      </trkpt>
      <trkpt lat="50.87603" lon="1.75118">
        <ele>116.6</ele>
        <time>2020-06-22T20:42:04Z</time>
      </trkpt>
      <trkpt lat="50.87606" lon="1.75129">
        <ele>116.5</ele>
        <time>2020-06-22T20:42:05Z</time>
      </trkpt>
      <trkpt lat="50.87608" lon="1.75138">
        <ele>116.4</ele>
        <time>2020-06-22T20:42:06Z</time>
      </trkpt>
      <trkpt lat="50.87611" lon="1.75146">
        <ele>116.3</ele>
        <time>2020-06-22T20:42:07Z</time>
      </trkpt>
      <trkpt lat="50.87614" lon="1.75156">
        <ele>116.3</ele>
        <time>2020-06-22T20:42:08Z</time>
      </trkpt>
      <trkpt lat="50.87616" lon="1.75166">
        <ele>116.3</ele>
        <time>2020-06-22T20:42:09Z</time>
      </trkpt>
      <trkpt lat="50.87619" lon="1.75174">
        <ele>116.3</ele>
        <time>2020-06-22T20:42:10Z</time>
      </trkpt>
      <trkpt lat="50.87621" lon="1.75183">
        <ele>116.3</ele>
        <time>2020-06-22T20:42:11Z</time>
      </trkpt>
      <trkpt lat="50.87624" lon="1.75192">
        <ele>116.2</ele>
        <time>2020-06-22T20:42:12Z</time>
      </trkpt>
      <trkpt lat="50.87626" lon="1.752">
        <ele>116.3</ele>
        <time>2020-06-22T20:42:13Z</time>
      </trkpt>
      <trkpt lat="50.87628" lon="1.7521">
        <ele>116.3</ele>
        <time>2020-06-22T20:42:14Z</time>
      </trkpt>
      <trkpt lat="50.87631" lon="1.75219">
        <ele>116.4</ele>
        <time>2020-06-22T20:42:15Z</time>
      </trkpt>
      <trkpt lat="50.87634" lon="1.75228">
        <ele>116.5</ele>
        <time>2020-06-22T20:42:16Z</time>
      </trkpt>
      <trkpt lat="50.87637" lon="1.75237">
        <ele>116.6</ele>
        <time>2020-06-22T20:42:17Z</time>
      </trkpt>
      <trkpt lat="50.87639" lon="1.75245">
        <ele>116.7</ele>
        <time>2020-06-22T20:42:18Z</time>
      </trkpt>
      <trkpt lat="50.87641" lon="1.75255">
        <ele>116.8</ele>
        <time>2020-06-22T20:42:19Z</time>
      </trkpt>
      <trkpt lat="50.87644" lon="1.75265">
        <ele>116.9</ele>
        <time>2020-06-22T20:42:20Z</time>
      </trkpt>
      <trkpt lat="50.87647" lon="1.75274">
        <ele>117</ele>
        <time>2020-06-22T20:42:21Z</time>
      </trkpt>
      <trkpt lat="50.87649" lon="1.75283">
        <ele>117.1</ele>
        <time>2020-06-22T20:42:22Z</time>
      </trkpt>
      <trkpt lat="50.87652" lon="1.75293">
        <ele>117.2</ele>
        <time>2020-06-22T20:42:23Z</time>
      </trkpt>
      <trkpt lat="50.87655" lon="1.75302">
        <ele>117.2</ele>
        <time>2020-06-22T20:42:24Z</time>
      </trkpt>
      <trkpt lat="50.87657" lon="1.75312">
        <ele>117.3</ele>
        <time>2020-06-22T20:42:25Z</time>
      </trkpt>
      <trkpt lat="50.8766" lon="1.75322">
        <ele>117.4</ele>
        <time>2020-06-22T20:42:26Z</time>
      </trkpt>
      <trkpt lat="50.87663" lon="1.75331">
        <ele>117.4</ele>
        <time>2020-06-22T20:42:27Z</time>
      </trkpt>
      <trkpt lat="50.87665" lon="1.75341">
        <ele>117.4</ele>
        <time>2020-06-22T20:42:28Z</time>
      </trkpt>
      <trkpt lat="50.87667" lon="1.75351">
        <ele>117.4</ele>
        <time>2020-06-22T20:42:29Z</time>
      </trkpt>
      <trkpt lat="50.87668" lon="1.75361">
        <ele>117.5</ele>
        <time>2020-06-22T20:42:30Z</time>
      </trkpt>
      <trkpt lat="50.8767" lon="1.75371">
        <ele>117.6</ele>
        <time>2020-06-22T20:42:31Z</time>
      </trkpt>
      <trkpt lat="50.87672" lon="1.75379">
        <ele>117.7</ele>
        <time>2020-06-22T20:42:32Z</time>
      </trkpt>
      <trkpt lat="50.87673" lon="1.75389">
        <ele>117.8</ele>
        <time>2020-06-22T20:42:33Z</time>
      </trkpt>
      <trkpt lat="50.87674" lon="1.75399">
        <ele>117.9</ele>
        <time>2020-06-22T20:42:34Z</time>
      </trkpt>
      <trkpt lat="50.87675" lon="1.75407">
        <ele>118</ele>
        <time>2020-06-22T20:42:35Z</time>
      </trkpt>
      <trkpt lat="50.87677" lon="1.75415">
        <ele>118</ele>
        <time>2020-06-22T20:42:36Z</time>
      </trkpt>
      <trkpt lat="50.87679" lon="1.75425">
        <ele>118.1</ele>
        <time>2020-06-22T20:42:37Z</time>
      </trkpt>
      <trkpt lat="50.8768" lon="1.75434">
        <ele>118.2</ele>
        <time>2020-06-22T20:42:38Z</time>
      </trkpt>
      <trkpt lat="50.87683" lon="1.75442">
        <ele>118.3</ele>
        <time>2020-06-22T20:42:39Z</time>
      </trkpt>
      <trkpt lat="50.87685" lon="1.75451">
        <ele>118.3</ele>
        <time>2020-06-22T20:42:40Z</time>
      </trkpt>
      <trkpt lat="50.87687" lon="1.7546">
        <ele>118.4</ele>
        <time>2020-06-22T20:42:41Z</time>
      </trkpt>
      <trkpt lat="50.87689" lon="1.75467">
        <ele>118.4</ele>
        <time>2020-06-22T20:42:42Z</time>
      </trkpt>
      <trkpt lat="50.8769" lon="1.75474">
        <ele>118.4</ele>
        <time>2020-06-22T20:42:43Z</time>
      </trkpt>
      <trkpt lat="50.87692" lon="1.75484">
        <ele>118.5</ele>
        <time>2020-06-22T20:42:44Z</time>
      </trkpt>
      <trkpt lat="50.87694" lon="1.75491">
        <ele>118.5</ele>
        <time>2020-06-22T20:42:45Z</time>
      </trkpt>
      <trkpt lat="50.87696" lon="1.75499">
        <ele>118.6</ele>
        <time>2020-06-22T20:42:46Z</time>
      </trkpt>
      <trkpt lat="50.87699" lon="1.75508">
        <ele>118.7</ele>
        <time>2020-06-22T20:42:47Z</time>
      </trkpt>
      <trkpt lat="50.87702" lon="1.75519">
        <ele>118.8</ele>
        <time>2020-06-22T20:42:48Z</time>
      </trkpt>
      <trkpt lat="50.87704" lon="1.75528">
        <ele>118.9</ele>
        <time>2020-06-22T20:42:49Z</time>
      </trkpt>
      <trkpt lat="50.87705" lon="1.75537">
        <ele>119</ele>
        <time>2020-06-22T20:42:50Z</time>
      </trkpt>
      <trkpt lat="50.87706" lon="1.75545">
        <ele>119.1</ele>
        <time>2020-06-22T20:42:51Z</time>
      </trkpt>
      <trkpt lat="50.87707" lon="1.75553">
        <ele>119.3</ele>
        <time>2020-06-22T20:42:52Z</time>
      </trkpt>
      <trkpt lat="50.87709" lon="1.75563">
        <ele>119.4</ele>
        <time>2020-06-22T20:42:53Z</time>
      </trkpt>
      <trkpt lat="50.87709" lon="1.75573">
        <ele>119.6</ele>
        <time>2020-06-22T20:42:54Z</time>
      </trkpt>
      <trkpt lat="50.8771" lon="1.75581">
        <ele>119.7</ele>
        <time>2020-06-22T20:42:55Z</time>
      </trkpt>
      <trkpt lat="50.87712" lon="1.75591">
        <ele>119.9</ele>
        <time>2020-06-22T20:42:56Z</time>
      </trkpt>
      <trkpt lat="50.87713" lon="1.75601">
        <ele>120.1</ele>
        <time>2020-06-22T20:42:57Z</time>
      </trkpt>
      <trkpt lat="50.87715" lon="1.7561">
        <ele>120.3</ele>
        <time>2020-06-22T20:42:58Z</time>
      </trkpt>
      <trkpt lat="50.87716" lon="1.7562">
        <ele>120.4</ele>
        <time>2020-06-22T20:42:59Z</time>
      </trkpt>
      <trkpt lat="50.87719" lon="1.75631">
        <ele>120.6</ele>
        <time>2020-06-22T20:43:00Z</time>
      </trkpt>
      <trkpt lat="50.87721" lon="1.7564">
        <ele>120.7</ele>
        <time>2020-06-22T20:43:01Z</time>
      </trkpt>
      <trkpt lat="50.87723" lon="1.75649">
        <ele>120.8</ele>
        <time>2020-06-22T20:43:02Z</time>
      </trkpt>
      <trkpt lat="50.87725" lon="1.75659">
        <ele>121</ele>
        <time>2020-06-22T20:43:03Z</time>
      </trkpt>
      <trkpt lat="50.87727" lon="1.75669">
        <ele>121.1</ele>
        <time>2020-06-22T20:43:04Z</time>
      </trkpt>
      <trkpt lat="50.87728" lon="1.75677">
        <ele>121.2</ele>
        <time>2020-06-22T20:43:05Z</time>
      </trkpt>
      <trkpt lat="50.87729" lon="1.75686">
        <ele>121.3</ele>
        <time>2020-06-22T20:43:06Z</time>
      </trkpt>
      <trkpt lat="50.87731" lon="1.75695">
        <ele>121.4</ele>
        <time>2020-06-22T20:43:07Z</time>
      </trkpt>
      <trkpt lat="50.87733" lon="1.75703">
        <ele>121.5</ele>
        <time>2020-06-22T20:43:08Z</time>
      </trkpt>
      <trkpt lat="50.87734" lon="1.7571">
        <ele>121.5</ele>
        <time>2020-06-22T20:43:09Z</time>
      </trkpt>
      <trkpt lat="50.87736" lon="1.75718">
        <ele>121.6</ele>
        <time>2020-06-22T20:43:10Z</time>
      </trkpt>
      <trkpt lat="50.87737" lon="1.75727">
        <ele>121.6</ele>
        <time>2020-06-22T20:43:11Z</time>
      </trkpt>
      <trkpt lat="50.87738" lon="1.75736">
        <ele>121.7</ele>
        <time>2020-06-22T20:43:12Z</time>
      </trkpt>
      <trkpt lat="50.8774" lon="1.75745">
        <ele>121.7</ele>
        <time>2020-06-22T20:43:13Z</time>
      </trkpt>
      <trkpt lat="50.87741" lon="1.75754">
        <ele>121.8</ele>
        <time>2020-06-22T20:43:14Z</time>
      </trkpt>
      <trkpt lat="50.87743" lon="1.75763">
        <ele>121.8</ele>
        <time>2020-06-22T20:43:15Z</time>
      </trkpt>
      <trkpt lat="50.87744" lon="1.75772">
        <ele>121.9</ele>
        <time>2020-06-22T20:43:16Z</time>
      </trkpt>
      <trkpt lat="50.87746" lon="1.75779">
        <ele>122</ele>
        <time>2020-06-22T20:43:17Z</time>
      </trkpt>
      <trkpt lat="50.87747" lon="1.75789">
        <ele>122</ele>
        <time>2020-06-22T20:43:18Z</time>
      </trkpt>
      <trkpt lat="50.87748" lon="1.75797">
        <ele>122.1</ele>
        <time>2020-06-22T20:43:19Z</time>
      </trkpt>
      <trkpt lat="50.87749" lon="1.75804">
        <ele>122.1</ele>
        <time>2020-06-22T20:43:20Z</time>
      </trkpt>
      <trkpt lat="50.8775" lon="1.75813">
        <ele>122.2</ele>
        <time>2020-06-22T20:43:21Z</time>
      </trkpt>
      <trkpt lat="50.87752" lon="1.75822">
        <ele>122.2</ele>
        <time>2020-06-22T20:43:22Z</time>
      </trkpt>
      <trkpt lat="50.87754" lon="1.7583">
        <ele>122.3</ele>
        <time>2020-06-22T20:43:23Z</time>
      </trkpt>
      <trkpt lat="50.87755" lon="1.7584">
        <ele>122.3</ele>
        <time>2020-06-22T20:43:24Z</time>
      </trkpt>
      <trkpt lat="50.87757" lon="1.75849">
        <ele>122.4</ele>
        <time>2020-06-22T20:43:25Z</time>
      </trkpt>
      <trkpt lat="50.87759" lon="1.75859">
        <ele>122.4</ele>
        <time>2020-06-22T20:43:26Z</time>
      </trkpt>
      <trkpt lat="50.87761" lon="1.75867">
        <ele>122.4</ele>
        <time>2020-06-22T20:43:27Z</time>
      </trkpt>
      <trkpt lat="50.87763" lon="1.75874">
        <ele>122.5</ele>
        <time>2020-06-22T20:43:28Z</time>
      </trkpt>
      <trkpt lat="50.87764" lon="1.75883">
        <ele>122.5</ele>
        <time>2020-06-22T20:43:29Z</time>
      </trkpt>
      <trkpt lat="50.87765" lon="1.75891">
        <ele>122.5</ele>
        <time>2020-06-22T20:43:30Z</time>
      </trkpt>
      <trkpt lat="50.87766" lon="1.75899">
        <ele>122.6</ele>
        <time>2020-06-22T20:43:31Z</time>
      </trkpt>
      <trkpt lat="50.87767" lon="1.7591">
        <ele>122.6</ele>
        <time>2020-06-22T20:43:32Z</time>
      </trkpt>
      <trkpt lat="50.87767" lon="1.7592">
        <ele>122.7</ele>
        <time>2020-06-22T20:43:33Z</time>
      </trkpt>
      <trkpt lat="50.87767" lon="1.7593">
        <ele>122.7</ele>
        <time>2020-06-22T20:43:34Z</time>
      </trkpt>
      <trkpt lat="50.87768" lon="1.7594">
        <ele>122.7</ele>
        <time>2020-06-22T20:43:35Z</time>
      </trkpt>
      <trkpt lat="50.87768" lon="1.7595">
        <ele>122.7</ele>
        <time>2020-06-22T20:43:36Z</time>
      </trkpt>
      <trkpt lat="50.87769" lon="1.75959">
        <ele>122.7</ele>
        <time>2020-06-22T20:43:37Z</time>
      </trkpt>
      <trkpt lat="50.8777" lon="1.75969">
        <ele>122.7</ele>
        <time>2020-06-22T20:43:38Z</time>
      </trkpt>
      <trkpt lat="50.87771" lon="1.75977">
        <ele>122.7</ele>
        <time>2020-06-22T20:43:39Z</time>
      </trkpt>
      <trkpt lat="50.87771" lon="1.75984">
        <ele>122.7</ele>
        <time>2020-06-22T20:43:40Z</time>
      </trkpt>
      <trkpt lat="50.87772" lon="1.75992">
        <ele>122.6</ele>
        <time>2020-06-22T20:43:41Z</time>
      </trkpt>
      <trkpt lat="50.87774" lon="1.75999">
        <ele>122.6</ele>
        <time>2020-06-22T20:43:42Z</time>
      </trkpt>
      <trkpt lat="50.87775" lon="1.76008">
        <ele>122.5</ele>
        <time>2020-06-22T20:43:43Z</time>
      </trkpt>
      <trkpt lat="50.87775" lon="1.76017">
        <ele>122.4</ele>
        <time>2020-06-22T20:43:44Z</time>
      </trkpt>
      <trkpt lat="50.87776" lon="1.76024">
        <ele>122.4</ele>
        <time>2020-06-22T20:43:45Z</time>
      </trkpt>
      <trkpt lat="50.87776" lon="1.76033">
        <ele>122.3</ele>
        <time>2020-06-22T20:43:46Z</time>
      </trkpt>
      <trkpt lat="50.87776" lon="1.7604">
        <ele>122.3</ele>
        <time>2020-06-22T20:43:47Z</time>
      </trkpt>
      <trkpt lat="50.87776" lon="1.76049">
        <ele>122.2</ele>
        <time>2020-06-22T20:43:48Z</time>
      </trkpt>
      <trkpt lat="50.87774" lon="1.76057">
        <ele>122.2</ele>
        <time>2020-06-22T20:43:49Z</time>
      </trkpt>
      <trkpt lat="50.87775" lon="1.76065">
        <ele>122.1</ele>
        <time>2020-06-22T20:43:50Z</time>
      </trkpt>
      <trkpt lat="50.87775" lon="1.76071">
        <ele>122.1</ele>
        <time>2020-06-22T20:43:51Z</time>
      </trkpt>
      <trkpt lat="50.87776" lon="1.76077">
        <ele>122</ele>
        <time>2020-06-22T20:43:52Z</time>
      </trkpt>
      <trkpt lat="50.87776" lon="1.76082">
        <ele>122.1</ele>
        <time>2020-06-22T20:43:53Z</time>
      </trkpt>
      <trkpt lat="50.87778" lon="1.76086">
        <ele>122.1</ele>
        <time>2020-06-22T20:43:54Z</time>
      </trkpt>
      <trkpt lat="50.87777" lon="1.76087">
        <ele>122.1</ele>
        <time>2020-06-22T20:43:55Z</time>
      </trkpt>
      <trkpt lat="50.87778" lon="1.76088">
        <ele>122.1</ele>
        <time>2020-06-22T20:43:56Z</time>
      </trkpt>
      <trkpt lat="50.87779" lon="1.76088">
        <ele>122.1</ele>
        <time>2020-06-22T20:43:57Z</time>
      </trkpt>
      <trkpt lat="50.8778" lon="1.76089">
        <ele>122.1</ele>
        <time>2020-06-22T20:43:58Z</time>
      </trkpt>
      <trkpt lat="50.87782" lon="1.76094">
        <ele>122.1</ele>
        <time>2020-06-22T20:43:59Z</time>
      </trkpt>
      <trkpt lat="50.87783" lon="1.76096">
        <ele>122</ele>
        <time>2020-06-22T20:44:00Z</time>
      </trkpt>
      <trkpt lat="50.87785" lon="1.76098">
        <ele>122</ele>
        <time>2020-06-22T20:44:01Z</time>
      </trkpt>
      <trkpt lat="50.87786" lon="1.76099">
        <ele>122</ele>
        <time>2020-06-22T20:44:02Z</time>
      </trkpt>
      <trkpt lat="50.87785" lon="1.76097">
        <ele>122</ele>
        <time>2020-06-22T20:44:03Z</time>
      </trkpt>
      <trkpt lat="50.87785" lon="1.76096">
        <ele>122</ele>
        <time>2020-06-22T20:44:04Z</time>
      </trkpt>
      <trkpt lat="50.87786" lon="1.76094">
        <ele>121.9</ele>
        <time>2020-06-22T20:44:05Z</time>
      </trkpt>
      <trkpt lat="50.87786" lon="1.76092">
        <ele>121.9</ele>
        <time>2020-06-22T20:44:06Z</time>
      </trkpt>
      <trkpt lat="50.87786" lon="1.7609">
        <ele>121.9</ele>
        <time>2020-06-22T20:44:07Z</time>
      </trkpt>
      <trkpt lat="50.87787" lon="1.76088">
        <ele>121.9</ele>
        <time>2020-06-22T20:44:08Z</time>
      </trkpt>
      <trkpt lat="50.87787" lon="1.76086">
        <ele>121.9</ele>
        <time>2020-06-22T20:44:09Z</time>
      </trkpt>
      <trkpt lat="50.87787" lon="1.76084">
        <ele>121.8</ele>
        <time>2020-06-22T20:44:10Z</time>
      </trkpt>
      <trkpt lat="50.87787" lon="1.76082">
        <ele>121.8</ele>
        <time>2020-06-22T20:44:11Z</time>
      </trkpt>
      <trkpt lat="50.87788" lon="1.7608">
        <ele>121.8</ele>
        <time>2020-06-22T20:44:12Z</time>
      </trkpt>
      <trkpt lat="50.87788" lon="1.76078">
        <ele>121.8</ele>
        <time>2020-06-22T20:44:13Z</time>
      </trkpt>
      <trkpt lat="50.87788" lon="1.76077">
        <ele>121.7</ele>
        <time>2020-06-22T20:46:09Z</time>
      </trkpt>
      <trkpt lat="50.87788" lon="1.76075">
        <ele>121.7</ele>
        <time>2020-06-22T20:46:10Z</time>
      </trkpt>
      <trkpt lat="50.87792" lon="1.76071">
        <ele>121.6</ele>
        <time>2020-06-22T20:46:11Z</time>
      </trkpt>
      <trkpt lat="50.87796" lon="1.76067">
        <ele>121.6</ele>
        <time>2020-06-22T20:46:12Z</time>
      </trkpt>
      <trkpt lat="50.87799" lon="1.76063">
        <ele>121.5</ele>
        <time>2020-06-22T20:46:13Z</time>
      </trkpt>
      <trkpt lat="50.87802" lon="1.76059">
        <ele>121.4</ele>
        <time>2020-06-22T20:46:14Z</time>
      </trkpt>
      <trkpt lat="50.87804" lon="1.76055">
        <ele>121.4</ele>
        <time>2020-06-22T20:46:15Z</time>
      </trkpt>
      <trkpt lat="50.87807" lon="1.7605">
        <ele>121.3</ele>
        <time>2020-06-22T20:46:16Z</time>
      </trkpt>
      <trkpt lat="50.8781" lon="1.76044">
        <ele>121.2</ele>
        <time>2020-06-22T20:46:17Z</time>
      </trkpt>
      <trkpt lat="50.87813" lon="1.7604">
        <ele>121.1</ele>
        <time>2020-06-22T20:46:18Z</time>
      </trkpt>
      <trkpt lat="50.87816" lon="1.76036">
        <ele>121.1</ele>
        <time>2020-06-22T20:46:19Z</time>
      </trkpt>
      <trkpt lat="50.87819" lon="1.76031">
        <ele>121</ele>
        <time>2020-06-22T20:46:20Z</time>
      </trkpt>
      <trkpt lat="50.87823" lon="1.76028">
        <ele>120.9</ele>
        <time>2020-06-22T20:46:21Z</time>
      </trkpt>
      <trkpt lat="50.87827" lon="1.76023">
        <ele>120.9</ele>
        <time>2020-06-22T20:46:22Z</time>
      </trkpt>
      <trkpt lat="50.8783" lon="1.7602">
        <ele>120.8</ele>
        <time>2020-06-22T20:46:23Z</time>
      </trkpt>
      <trkpt lat="50.87835" lon="1.76024">
        <ele>120.6</ele>
        <time>2020-06-22T20:46:24Z</time>
      </trkpt>
      <trkpt lat="50.87839" lon="1.76031">
        <ele>120.4</ele>
        <time>2020-06-22T20:46:25Z</time>
      </trkpt>
      <trkpt lat="50.8784" lon="1.76038">
        <ele>120.2</ele>
        <time>2020-06-22T20:46:26Z</time>
      </trkpt>
      <trkpt lat="50.87842" lon="1.76047">
        <ele>120</ele>
        <time>2020-06-22T20:46:27Z</time>
      </trkpt>
      <trkpt lat="50.87843" lon="1.76055">
        <ele>119.8</ele>
        <time>2020-06-22T20:46:28Z</time>
      </trkpt>
      <trkpt lat="50.87845" lon="1.76063">
        <ele>119.6</ele>
        <time>2020-06-22T20:46:29Z</time>
      </trkpt>
      <trkpt lat="50.87846" lon="1.76071">
        <ele>119.4</ele>
        <time>2020-06-22T20:46:30Z</time>
      </trkpt>
      <trkpt lat="50.87848" lon="1.76079">
        <ele>119.1</ele>
        <time>2020-06-22T20:46:31Z</time>
      </trkpt>
      <trkpt lat="50.87851" lon="1.76086">
        <ele>118.9</ele>
        <time>2020-06-22T20:46:32Z</time>
      </trkpt>
      <trkpt lat="50.87853" lon="1.76094">
        <ele>118.7</ele>
        <time>2020-06-22T20:46:33Z</time>
      </trkpt>
      <trkpt lat="50.87856" lon="1.76102">
        <ele>118.5</ele>
        <time>2020-06-22T20:46:34Z</time>
      </trkpt>
      <trkpt lat="50.87859" lon="1.7611">
        <ele>118.2</ele>
        <time>2020-06-22T20:46:35Z</time>
      </trkpt>
      <trkpt lat="50.87862" lon="1.76118">
        <ele>118</ele>
        <time>2020-06-22T20:46:36Z</time>
      </trkpt>
      <trkpt lat="50.87865" lon="1.76125">
        <ele>117.8</ele>
        <time>2020-06-22T20:46:37Z</time>
      </trkpt>
      <trkpt lat="50.87868" lon="1.76134">
        <ele>117.5</ele>
        <time>2020-06-22T20:46:38Z</time>
      </trkpt>
      <trkpt lat="50.87873" lon="1.76142">
        <ele>117.2</ele>
        <time>2020-06-22T20:46:39Z</time>
      </trkpt>
      <trkpt lat="50.87876" lon="1.7615">
        <ele>116.9</ele>
        <time>2020-06-22T20:46:40Z</time>
      </trkpt>
      <trkpt lat="50.87881" lon="1.76158">
        <ele>116.6</ele>
        <time>2020-06-22T20:46:41Z</time>
      </trkpt>
      <trkpt lat="50.87886" lon="1.76166">
        <ele>116.2</ele>
        <time>2020-06-22T20:46:42Z</time>
      </trkpt>
      <trkpt lat="50.87892" lon="1.76174">
        <ele>115.9</ele>
        <time>2020-06-22T20:46:43Z</time>
      </trkpt>
      <trkpt lat="50.87897" lon="1.76181">
        <ele>115.6</ele>
        <time>2020-06-22T20:46:44Z</time>
      </trkpt>
      <trkpt lat="50.87903" lon="1.76189">
        <ele>115.3</ele>
        <time>2020-06-22T20:46:45Z</time>
      </trkpt>
      <trkpt lat="50.87908" lon="1.76197">
        <ele>115</ele>
        <time>2020-06-22T20:46:46Z</time>
      </trkpt>
      <trkpt lat="50.87914" lon="1.76205">
        <ele>114.6</ele>
        <time>2020-06-22T20:46:47Z</time>
      </trkpt>
      <trkpt lat="50.8792" lon="1.76213">
        <ele>114.3</ele>
        <time>2020-06-22T20:46:48Z</time>
      </trkpt>
      <trkpt lat="50.87927" lon="1.76221">
        <ele>113.9</ele>
        <time>2020-06-22T20:46:49Z</time>
      </trkpt>
      <trkpt lat="50.87933" lon="1.7623">
        <ele>113.5</ele>
        <time>2020-06-22T20:46:50Z</time>
      </trkpt>
      <trkpt lat="50.87939" lon="1.76238">
        <ele>113.1</ele>
        <time>2020-06-22T20:46:51Z</time>
      </trkpt>
      <trkpt lat="50.87946" lon="1.76247">
        <ele>112.8</ele>
        <time>2020-06-22T20:46:52Z</time>
      </trkpt>
      <trkpt lat="50.87952" lon="1.76257">
        <ele>112.4</ele>
        <time>2020-06-22T20:46:53Z</time>
      </trkpt>
      <trkpt lat="50.87958" lon="1.76266">
        <ele>112</ele>
        <time>2020-06-22T20:46:54Z</time>
      </trkpt>
      <trkpt lat="50.87964" lon="1.76276">
        <ele>111.7</ele>
        <time>2020-06-22T20:46:55Z</time>
      </trkpt>
      <trkpt lat="50.8797" lon="1.76286">
        <ele>111.3</ele>
        <time>2020-06-22T20:46:56Z</time>
      </trkpt>
      <trkpt lat="50.87976" lon="1.76296">
        <ele>111</ele>
        <time>2020-06-22T20:46:57Z</time>
      </trkpt>
      <trkpt lat="50.87982" lon="1.76306">
        <ele>110.7</ele>
        <time>2020-06-22T20:46:58Z</time>
      </trkpt>
      <trkpt lat="50.87988" lon="1.76315">
        <ele>110.3</ele>
        <time>2020-06-22T20:46:59Z</time>
      </trkpt>
      <trkpt lat="50.87995" lon="1.76325">
        <ele>110</ele>
        <time>2020-06-22T20:47:00Z</time>
      </trkpt>
      <trkpt lat="50.88001" lon="1.76335">
        <ele>109.7</ele>
        <time>2020-06-22T20:47:01Z</time>
      </trkpt>
      <trkpt lat="50.88007" lon="1.76345">
        <ele>109.4</ele>
        <time>2020-06-22T20:47:02Z</time>
      </trkpt>
      <trkpt lat="50.88014" lon="1.76355">
        <ele>109</ele>
        <time>2020-06-22T20:47:03Z</time>
      </trkpt>
      <trkpt lat="50.8802" lon="1.76364">
        <ele>108.7</ele>
        <time>2020-06-22T20:47:04Z</time>
      </trkpt>
      <trkpt lat="50.88026" lon="1.76374">
        <ele>108.3</ele>
        <time>2020-06-22T20:47:05Z</time>
      </trkpt>
      <trkpt lat="50.88032" lon="1.76384">
        <ele>107.9</ele>
        <time>2020-06-22T20:47:06Z</time>
      </trkpt>
      <trkpt lat="50.88039" lon="1.76393">
        <ele>107.5</ele>
        <time>2020-06-22T20:47:07Z</time>
      </trkpt>
      <trkpt lat="50.88045" lon="1.76402">
        <ele>107.2</ele>
        <time>2020-06-22T20:47:08Z</time>
      </trkpt>
      <trkpt lat="50.88052" lon="1.76411">
        <ele>106.8</ele>
        <time>2020-06-22T20:47:09Z</time>
      </trkpt>
      <trkpt lat="50.88059" lon="1.76419">
        <ele>106.5</ele>
        <time>2020-06-22T20:47:10Z</time>
      </trkpt>
      <trkpt lat="50.88066" lon="1.76428">
        <ele>106</ele>
        <time>2020-06-22T20:47:11Z</time>
      </trkpt>
      <trkpt lat="50.88073" lon="1.76436">
        <ele>105.6</ele>
        <time>2020-06-22T20:47:12Z</time>
      </trkpt>
      <trkpt lat="50.88081" lon="1.76444">
        <ele>105.2</ele>
        <time>2020-06-22T20:47:13Z</time>
      </trkpt>
      <trkpt lat="50.88089" lon="1.76452">
        <ele>104.8</ele>
        <time>2020-06-22T20:47:14Z</time>
      </trkpt>
      <trkpt lat="50.88096" lon="1.76462">
        <ele>104.3</ele>
        <time>2020-06-22T20:47:15Z</time>
      </trkpt>
      <trkpt lat="50.88104" lon="1.76471">
        <ele>103.9</ele>
        <time>2020-06-22T20:47:16Z</time>
      </trkpt>
      <trkpt lat="50.88111" lon="1.7648">
        <ele>103.4</ele>
        <time>2020-06-22T20:47:17Z</time>
      </trkpt>
      <trkpt lat="50.88119" lon="1.76489">
        <ele>102.9</ele>
        <time>2020-06-22T20:47:18Z</time>
      </trkpt>
      <trkpt lat="50.88127" lon="1.76498">
        <ele>102.4</ele>
        <time>2020-06-22T20:47:19Z</time>
      </trkpt>
      <trkpt lat="50.88134" lon="1.76507">
        <ele>101.9</ele>
        <time>2020-06-22T20:47:20Z</time>
      </trkpt>
      <trkpt lat="50.88142" lon="1.76517">
        <ele>101.4</ele>
        <time>2020-06-22T20:47:21Z</time>
      </trkpt>
      <trkpt lat="50.88149" lon="1.76527">
        <ele>100.9</ele>
        <time>2020-06-22T20:47:22Z</time>
      </trkpt>
      <trkpt lat="50.88156" lon="1.76537">
        <ele>100.3</ele>
        <time>2020-06-22T20:47:23Z</time>
      </trkpt>
      <trkpt lat="50.88164" lon="1.76548">
        <ele>99.7</ele>
        <time>2020-06-22T20:47:24Z</time>
      </trkpt>
      <trkpt lat="50.88171" lon="1.76558">
        <ele>99.1</ele>
        <time>2020-06-22T20:47:25Z</time>
      </trkpt>
      <trkpt lat="50.88179" lon="1.76568">
        <ele>98.5</ele>
        <time>2020-06-22T20:47:26Z</time>
      </trkpt>
      <trkpt lat="50.88187" lon="1.76579">
        <ele>98</ele>
        <time>2020-06-22T20:47:27Z</time>
      </trkpt>
      <trkpt lat="50.88194" lon="1.76591">
        <ele>97.4</ele>
        <time>2020-06-22T20:47:28Z</time>
      </trkpt>
      <trkpt lat="50.88202" lon="1.76602">
        <ele>96.8</ele>
        <time>2020-06-22T20:47:29Z</time>
      </trkpt>
      <trkpt lat="50.88209" lon="1.76614">
        <ele>96.2</ele>
        <time>2020-06-22T20:47:30Z</time>
      </trkpt>
      <trkpt lat="50.88217" lon="1.76625">
        <ele>95.7</ele>
        <time>2020-06-22T20:47:31Z</time>
      </trkpt>
      <trkpt lat="50.88224" lon="1.76637">
        <ele>95.2</ele>
        <time>2020-06-22T20:47:32Z</time>
      </trkpt>
      <trkpt lat="50.88232" lon="1.76648">
        <ele>94.6</ele>
        <time>2020-06-22T20:47:33Z</time>
      </trkpt>
      <trkpt lat="50.8824" lon="1.76659">
        <ele>94.1</ele>
        <time>2020-06-22T20:47:34Z</time>
      </trkpt>
      <trkpt lat="50.88249" lon="1.7667">
        <ele>93.6</ele>
        <time>2020-06-22T20:47:35Z</time>
      </trkpt>
      <trkpt lat="50.88257" lon="1.76681">
        <ele>93.1</ele>
        <time>2020-06-22T20:47:36Z</time>
      </trkpt>
      <trkpt lat="50.88265" lon="1.76692">
        <ele>92.7</ele>
        <time>2020-06-22T20:47:37Z</time>
      </trkpt>
      <trkpt lat="50.88273" lon="1.76702">
        <ele>92.1</ele>
        <time>2020-06-22T20:47:38Z</time>
      </trkpt>
      <trkpt lat="50.88281" lon="1.76713">
        <ele>91.6</ele>
        <time>2020-06-22T20:47:39Z</time>
      </trkpt>
      <trkpt lat="50.88289" lon="1.76724">
        <ele>91.2</ele>
        <time>2020-06-22T20:47:40Z</time>
      </trkpt>
      <trkpt lat="50.88297" lon="1.76733">
        <ele>90.7</ele>
        <time>2020-06-22T20:47:41Z</time>
      </trkpt>
      <trkpt lat="50.88305" lon="1.76744">
        <ele>90.3</ele>
        <time>2020-06-22T20:47:42Z</time>
      </trkpt>
      <trkpt lat="50.88313" lon="1.76754">
        <ele>89.9</ele>
        <time>2020-06-22T20:47:43Z</time>
      </trkpt>
      <trkpt lat="50.88321" lon="1.76765">
        <ele>89.5</ele>
        <time>2020-06-22T20:47:44Z</time>
      </trkpt>
      <trkpt lat="50.88329" lon="1.76775">
        <ele>89.1</ele>
        <time>2020-06-22T20:47:45Z</time>
      </trkpt>
      <trkpt lat="50.88337" lon="1.76785">
        <ele>88.7</ele>
        <time>2020-06-22T20:47:46Z</time>
      </trkpt>
      <trkpt lat="50.88346" lon="1.76794">
        <ele>88.3</ele>
        <time>2020-06-22T20:47:47Z</time>
      </trkpt>
      <trkpt lat="50.88354" lon="1.76804">
        <ele>87.9</ele>
        <time>2020-06-22T20:47:48Z</time>
      </trkpt>
      <trkpt lat="50.88362" lon="1.76813">
        <ele>87.6</ele>
        <time>2020-06-22T20:47:49Z</time>
      </trkpt>
      <trkpt lat="50.8837" lon="1.76822">
        <ele>87.2</ele>
        <time>2020-06-22T20:47:50Z</time>
      </trkpt>
      <trkpt lat="50.88378" lon="1.76831">
        <ele>86.7</ele>
        <time>2020-06-22T20:47:51Z</time>
      </trkpt>
      <trkpt lat="50.88386" lon="1.76839">
        <ele>86.3</ele>
        <time>2020-06-22T20:47:52Z</time>
      </trkpt>
      <trkpt lat="50.88394" lon="1.76847">
        <ele>85.9</ele>
        <time>2020-06-22T20:47:53Z</time>
      </trkpt>
      <trkpt lat="50.88403" lon="1.76853">
        <ele>85.5</ele>
        <time>2020-06-22T20:47:54Z</time>
      </trkpt>
      <trkpt lat="50.88412" lon="1.7686">
        <ele>85.1</ele>
        <time>2020-06-22T20:47:55Z</time>
      </trkpt>
      <trkpt lat="50.8842" lon="1.76867">
        <ele>84.7</ele>
        <time>2020-06-22T20:47:56Z</time>
      </trkpt>
      <trkpt lat="50.88428" lon="1.76874">
        <ele>84.2</ele>
        <time>2020-06-22T20:47:57Z</time>
      </trkpt>
      <trkpt lat="50.88437" lon="1.7688">
        <ele>83.8</ele>
        <time>2020-06-22T20:47:58Z</time>
      </trkpt>
      <trkpt lat="50.88445" lon="1.76886">
        <ele>83.5</ele>
        <time>2020-06-22T20:47:59Z</time>
      </trkpt>
      <trkpt lat="50.88454" lon="1.76891">
        <ele>83.2</ele>
        <time>2020-06-22T20:48:00Z</time>
      </trkpt>
      <trkpt lat="50.88462" lon="1.76896">
        <ele>82.8</ele>
        <time>2020-06-22T20:48:01Z</time>
      </trkpt>
      <trkpt lat="50.8847" lon="1.76902">
        <ele>82.5</ele>
        <time>2020-06-22T20:48:02Z</time>
      </trkpt>
      <trkpt lat="50.88478" lon="1.76909">
        <ele>82.2</ele>
        <time>2020-06-22T20:48:03Z</time>
      </trkpt>
      <trkpt lat="50.88486" lon="1.76917">
        <ele>81.8</ele>
        <time>2020-06-22T20:48:04Z</time>
      </trkpt>
      <trkpt lat="50.88493" lon="1.76924">
        <ele>81.4</ele>
        <time>2020-06-22T20:48:05Z</time>
      </trkpt>
      <trkpt lat="50.88501" lon="1.76932">
        <ele>81.1</ele>
        <time>2020-06-22T20:48:06Z</time>
      </trkpt>
      <trkpt lat="50.88508" lon="1.76939">
        <ele>80.7</ele>
        <time>2020-06-22T20:48:07Z</time>
      </trkpt>
      <trkpt lat="50.88515" lon="1.76947">
        <ele>80.4</ele>
        <time>2020-06-22T20:48:08Z</time>
      </trkpt>
      <trkpt lat="50.88522" lon="1.76955">
        <ele>80.1</ele>
        <time>2020-06-22T20:48:09Z</time>
      </trkpt>
      <trkpt lat="50.88529" lon="1.76963">
        <ele>79.8</ele>
        <time>2020-06-22T20:48:10Z</time>
      </trkpt>
      <trkpt lat="50.88537" lon="1.7697">
        <ele>79.4</ele>
        <time>2020-06-22T20:48:11Z</time>
      </trkpt>
      <trkpt lat="50.88544" lon="1.76978">
        <ele>79.1</ele>
        <time>2020-06-22T20:48:12Z</time>
      </trkpt>
      <trkpt lat="50.88551" lon="1.76985">
        <ele>78.8</ele>
        <time>2020-06-22T20:48:13Z</time>
      </trkpt>
      <trkpt lat="50.88558" lon="1.76993">
        <ele>78.5</ele>
        <time>2020-06-22T20:48:14Z</time>
      </trkpt>
      <trkpt lat="50.88566" lon="1.77001">
        <ele>78.1</ele>
        <time>2020-06-22T20:48:15Z</time>
      </trkpt>
      <trkpt lat="50.88573" lon="1.7701">
        <ele>77.7</ele>
        <time>2020-06-22T20:48:16Z</time>
      </trkpt>
      <trkpt lat="50.88581" lon="1.77017">
        <ele>77.3</ele>
        <time>2020-06-22T20:48:17Z</time>
      </trkpt>
      <trkpt lat="50.88588" lon="1.77025">
        <ele>77</ele>
        <time>2020-06-22T20:48:18Z</time>
      </trkpt>
      <trkpt lat="50.88595" lon="1.77031">
        <ele>76.7</ele>
        <time>2020-06-22T20:48:19Z</time>
      </trkpt>
      <trkpt lat="50.88602" lon="1.77039">
        <ele>76.3</ele>
        <time>2020-06-22T20:48:20Z</time>
      </trkpt>
      <trkpt lat="50.88609" lon="1.77046">
        <ele>75.9</ele>
        <time>2020-06-22T20:48:21Z</time>
      </trkpt>
      <trkpt lat="50.88617" lon="1.77053">
        <ele>75.6</ele>
        <time>2020-06-22T20:48:22Z</time>
      </trkpt>
      <trkpt lat="50.88624" lon="1.77061">
        <ele>75.2</ele>
        <time>2020-06-22T20:48:23Z</time>
      </trkpt>
      <trkpt lat="50.88631" lon="1.77071">
        <ele>74.8</ele>
        <time>2020-06-22T20:48:24Z</time>
      </trkpt>
      <trkpt lat="50.88638" lon="1.7708">
        <ele>74.4</ele>
        <time>2020-06-22T20:48:25Z</time>
      </trkpt>
      <trkpt lat="50.88644" lon="1.77091">
        <ele>74</ele>
        <time>2020-06-22T20:48:26Z</time>
      </trkpt>
      <trkpt lat="50.8865" lon="1.77101">
        <ele>73.6</ele>
        <time>2020-06-22T20:48:27Z</time>
      </trkpt>
      <trkpt lat="50.88657" lon="1.77109">
        <ele>73.2</ele>
        <time>2020-06-22T20:48:28Z</time>
      </trkpt>
      <trkpt lat="50.88663" lon="1.77119">
        <ele>72.9</ele>
        <time>2020-06-22T20:48:29Z</time>
      </trkpt>
      <trkpt lat="50.8867" lon="1.77127">
        <ele>72.6</ele>
        <time>2020-06-22T20:48:30Z</time>
      </trkpt>
      <trkpt lat="50.88676" lon="1.77136">
        <ele>72.3</ele>
        <time>2020-06-22T20:48:31Z</time>
      </trkpt>
      <trkpt lat="50.88683" lon="1.77145">
        <ele>72</ele>
        <time>2020-06-22T20:48:32Z</time>
      </trkpt>
      <trkpt lat="50.88689" lon="1.77153">
        <ele>71.8</ele>
        <time>2020-06-22T20:48:33Z</time>
      </trkpt>
      <trkpt lat="50.88695" lon="1.77162">
        <ele>71.5</ele>
        <time>2020-06-22T20:48:34Z</time>
      </trkpt>
      <trkpt lat="50.88701" lon="1.7717">
        <ele>71.2</ele>
        <time>2020-06-22T20:48:35Z</time>
      </trkpt>
      <trkpt lat="50.88708" lon="1.77179">
        <ele>70.9</ele>
        <time>2020-06-22T20:48:36Z</time>
      </trkpt>
      <trkpt lat="50.88714" lon="1.77187">
        <ele>70.6</ele>
        <time>2020-06-22T20:48:37Z</time>
      </trkpt>
      <trkpt lat="50.8872" lon="1.77196">
        <ele>70.2</ele>
        <time>2020-06-22T20:48:38Z</time>
      </trkpt>
      <trkpt lat="50.88727" lon="1.77205">
        <ele>69.9</ele>
        <time>2020-06-22T20:48:39Z</time>
      </trkpt>
      <trkpt lat="50.88733" lon="1.77213">
        <ele>69.5</ele>
        <time>2020-06-22T20:48:40Z</time>
      </trkpt>
      <trkpt lat="50.8874" lon="1.77223">
        <ele>69.1</ele>
        <time>2020-06-22T20:48:41Z</time>
      </trkpt>
      <trkpt lat="50.88747" lon="1.77231">
        <ele>68.7</ele>
        <time>2020-06-22T20:48:42Z</time>
      </trkpt>
      <trkpt lat="50.88753" lon="1.77239">
        <ele>68.4</ele>
        <time>2020-06-22T20:48:43Z</time>
      </trkpt>
      <trkpt lat="50.88759" lon="1.77247">
        <ele>68.3</ele>
        <time>2020-06-22T20:48:44Z</time>
      </trkpt>
      <trkpt lat="50.88765" lon="1.77254">
        <ele>68.2</ele>
        <time>2020-06-22T20:48:45Z</time>
      </trkpt>
      <trkpt lat="50.8877" lon="1.7726">
        <ele>68.1</ele>
        <time>2020-06-22T20:48:46Z</time>
      </trkpt>
      <trkpt lat="50.88775" lon="1.77266">
        <ele>68</ele>
        <time>2020-06-22T20:48:47Z</time>
      </trkpt>
      <trkpt lat="50.88779" lon="1.77271">
        <ele>67.9</ele>
        <time>2020-06-22T20:48:48Z</time>
      </trkpt>
      <trkpt lat="50.88784" lon="1.77275">
        <ele>67.8</ele>
        <time>2020-06-22T20:48:49Z</time>
      </trkpt>
      <trkpt lat="50.88788" lon="1.77279">
        <ele>67.5</ele>
        <time>2020-06-22T20:48:50Z</time>
      </trkpt>
      <trkpt lat="50.88794" lon="1.77282">
        <ele>67.2</ele>
        <time>2020-06-22T20:48:51Z</time>
      </trkpt>
      <trkpt lat="50.88799" lon="1.77285">
        <ele>66.9</ele>
        <time>2020-06-22T20:48:52Z</time>
      </trkpt>
      <trkpt lat="50.88804" lon="1.77288">
        <ele>66.6</ele>
        <time>2020-06-22T20:48:53Z</time>
      </trkpt>
      <trkpt lat="50.88809" lon="1.77293">
        <ele>66.4</ele>
        <time>2020-06-22T20:48:54Z</time>
      </trkpt>
      <trkpt lat="50.88814" lon="1.77298">
        <ele>66.1</ele>
        <time>2020-06-22T20:48:55Z</time>
      </trkpt>
      <trkpt lat="50.88818" lon="1.77304">
        <ele>65.9</ele>
        <time>2020-06-22T20:48:56Z</time>
      </trkpt>
      <trkpt lat="50.88823" lon="1.77311">
        <ele>65.6</ele>
        <time>2020-06-22T20:48:57Z</time>
      </trkpt>
      <trkpt lat="50.88827" lon="1.77317">
        <ele>65.5</ele>
        <time>2020-06-22T20:48:58Z</time>
      </trkpt>
      <trkpt lat="50.88832" lon="1.77324">
        <ele>65.3</ele>
        <time>2020-06-22T20:48:59Z</time>
      </trkpt>
      <trkpt lat="50.88836" lon="1.77332">
        <ele>65.2</ele>
        <time>2020-06-22T20:49:00Z</time>
      </trkpt>
      <trkpt lat="50.88841" lon="1.77341">
        <ele>65</ele>
        <time>2020-06-22T20:49:01Z</time>
      </trkpt>
      <trkpt lat="50.88846" lon="1.77349">
        <ele>64.9</ele>
        <time>2020-06-22T20:49:02Z</time>
      </trkpt>
      <trkpt lat="50.88851" lon="1.77357">
        <ele>64.8</ele>
        <time>2020-06-22T20:49:03Z</time>
      </trkpt>
      <trkpt lat="50.88856" lon="1.77365">
        <ele>64.6</ele>
        <time>2020-06-22T20:49:04Z</time>
      </trkpt>
      <trkpt lat="50.88861" lon="1.77374">
        <ele>64.5</ele>
        <time>2020-06-22T20:49:05Z</time>
      </trkpt>
      <trkpt lat="50.88867" lon="1.77382">
        <ele>64.4</ele>
        <time>2020-06-22T20:49:06Z</time>
      </trkpt>
      <trkpt lat="50.88872" lon="1.7739">
        <ele>64.3</ele>
        <time>2020-06-22T20:49:07Z</time>
      </trkpt>
      <trkpt lat="50.88877" lon="1.77398">
        <ele>64.2</ele>
        <time>2020-06-22T20:49:08Z</time>
      </trkpt>
      <trkpt lat="50.88882" lon="1.77405">
        <ele>64.1</ele>
        <time>2020-06-22T20:49:09Z</time>
      </trkpt>
      <trkpt lat="50.88887" lon="1.77413">
        <ele>64</ele>
        <time>2020-06-22T20:49:10Z</time>
      </trkpt>
      <trkpt lat="50.88892" lon="1.77419">
        <ele>64</ele>
        <time>2020-06-22T20:49:11Z</time>
      </trkpt>
      <trkpt lat="50.88897" lon="1.77425">
        <ele>63.9</ele>
        <time>2020-06-22T20:49:12Z</time>
      </trkpt>
      <trkpt lat="50.88903" lon="1.7743">
        <ele>63.8</ele>
        <time>2020-06-22T20:49:13Z</time>
      </trkpt>
      <trkpt lat="50.88909" lon="1.77434">
        <ele>63.7</ele>
        <time>2020-06-22T20:49:14Z</time>
      </trkpt>
      <trkpt lat="50.88915" lon="1.77437">
        <ele>63.6</ele>
        <time>2020-06-22T20:49:15Z</time>
      </trkpt>
      <trkpt lat="50.88922" lon="1.77439">
        <ele>63.5</ele>
        <time>2020-06-22T20:49:16Z</time>
      </trkpt>
      <trkpt lat="50.88928" lon="1.77441">
        <ele>63.5</ele>
        <time>2020-06-22T20:49:17Z</time>
      </trkpt>
      <trkpt lat="50.88934" lon="1.77442">
        <ele>63.4</ele>
        <time>2020-06-22T20:49:18Z</time>
      </trkpt>
      <trkpt lat="50.88941" lon="1.77444">
        <ele>63.4</ele>
        <time>2020-06-22T20:49:19Z</time>
      </trkpt>
      <trkpt lat="50.88947" lon="1.77444">
        <ele>63.4</ele>
        <time>2020-06-22T20:49:20Z</time>
      </trkpt>
      <trkpt lat="50.88953" lon="1.77443">
        <ele>63.4</ele>
        <time>2020-06-22T20:49:21Z</time>
      </trkpt>
      <trkpt lat="50.88959" lon="1.77442">
        <ele>63.4</ele>
        <time>2020-06-22T20:49:22Z</time>
      </trkpt>
      <trkpt lat="50.88964" lon="1.77441">
        <ele>63.4</ele>
        <time>2020-06-22T20:49:23Z</time>
      </trkpt>
      <trkpt lat="50.88969" lon="1.77441">
        <ele>63.5</ele>
        <time>2020-06-22T20:49:24Z</time>
      </trkpt>
      <trkpt lat="50.88974" lon="1.77443">
        <ele>63.5</ele>
        <time>2020-06-22T20:49:25Z</time>
      </trkpt>
      <trkpt lat="50.88979" lon="1.77447">
        <ele>63.5</ele>
        <time>2020-06-22T20:49:26Z</time>
      </trkpt>
      <trkpt lat="50.88984" lon="1.77452">
        <ele>63.6</ele>
        <time>2020-06-22T20:49:27Z</time>
      </trkpt>
      <trkpt lat="50.88989" lon="1.77456">
        <ele>63.6</ele>
        <time>2020-06-22T20:49:28Z</time>
      </trkpt>
      <trkpt lat="50.88992" lon="1.77462">
        <ele>63.7</ele>
        <time>2020-06-22T20:49:29Z</time>
      </trkpt>
      <trkpt lat="50.88996" lon="1.77469">
        <ele>63.7</ele>
        <time>2020-06-22T20:49:30Z</time>
      </trkpt>
      <trkpt lat="50.88997" lon="1.77478">
        <ele>63.6</ele>
        <time>2020-06-22T20:49:31Z</time>
      </trkpt>
      <trkpt lat="50.88997" lon="1.77487">
        <ele>63.5</ele>
        <time>2020-06-22T20:49:32Z</time>
      </trkpt>
      <trkpt lat="50.88998" lon="1.77496">
        <ele>63.5</ele>
        <time>2020-06-22T20:49:33Z</time>
      </trkpt>
      <trkpt lat="50.88998" lon="1.77505">
        <ele>63.4</ele>
        <time>2020-06-22T20:49:34Z</time>
      </trkpt>
      <trkpt lat="50.88999" lon="1.77514">
        <ele>63.3</ele>
        <time>2020-06-22T20:49:35Z</time>
      </trkpt>
      <trkpt lat="50.88999" lon="1.77523">
        <ele>63.3</ele>
        <time>2020-06-22T20:49:36Z</time>
      </trkpt>
      <trkpt lat="50.88998" lon="1.77531">
        <ele>63.2</ele>
        <time>2020-06-22T20:49:37Z</time>
      </trkpt>
      <trkpt lat="50.88997" lon="1.7754">
        <ele>63.2</ele>
        <time>2020-06-22T20:49:38Z</time>
      </trkpt>
      <trkpt lat="50.88995" lon="1.77548">
        <ele>63.2</ele>
        <time>2020-06-22T20:49:39Z</time>
      </trkpt>
      <trkpt lat="50.88992" lon="1.77556">
        <ele>63.2</ele>
        <time>2020-06-22T20:49:40Z</time>
      </trkpt>
      <trkpt lat="50.88989" lon="1.77564">
        <ele>63.2</ele>
        <time>2020-06-22T20:49:41Z</time>
      </trkpt>
      <trkpt lat="50.88987" lon="1.77573">
        <ele>63.3</ele>
        <time>2020-06-22T20:49:42Z</time>
      </trkpt>
      <trkpt lat="50.88983" lon="1.7758">
        <ele>63.3</ele>
        <time>2020-06-22T20:49:43Z</time>
      </trkpt>
      <trkpt lat="50.88979" lon="1.77588">
        <ele>63.4</ele>
        <time>2020-06-22T20:49:44Z</time>
      </trkpt>
      <trkpt lat="50.88977" lon="1.77595">
        <ele>63.5</ele>
        <time>2020-06-22T20:49:45Z</time>
      </trkpt>
      <trkpt lat="50.88974" lon="1.77602">
        <ele>63.6</ele>
        <time>2020-06-22T20:49:46Z</time>
      </trkpt>
      <trkpt lat="50.88972" lon="1.77609">
        <ele>63.7</ele>
        <time>2020-06-22T20:49:47Z</time>
      </trkpt>
      <trkpt lat="50.8897" lon="1.77616">
        <ele>63.8</ele>
        <time>2020-06-22T20:49:48Z</time>
      </trkpt>
      <trkpt lat="50.88968" lon="1.77623">
        <ele>64</ele>
        <time>2020-06-22T20:49:49Z</time>
      </trkpt>
      <trkpt lat="50.88965" lon="1.77629">
        <ele>64.2</ele>
        <time>2020-06-22T20:49:50Z</time>
      </trkpt>
      <trkpt lat="50.88963" lon="1.77635">
        <ele>64.3</ele>
        <time>2020-06-22T20:49:51Z</time>
      </trkpt>
      <trkpt lat="50.8896" lon="1.77642">
        <ele>64.6</ele>
        <time>2020-06-22T20:49:52Z</time>
      </trkpt>
      <trkpt lat="50.88957" lon="1.77648">
        <ele>64.8</ele>
        <time>2020-06-22T20:49:53Z</time>
      </trkpt>
      <trkpt lat="50.88954" lon="1.77655">
        <ele>65.1</ele>
        <time>2020-06-22T20:49:54Z</time>
      </trkpt>
      <trkpt lat="50.8895" lon="1.77663">
        <ele>65.4</ele>
        <time>2020-06-22T20:49:55Z</time>
      </trkpt>
      <trkpt lat="50.88945" lon="1.77669">
        <ele>65.8</ele>
        <time>2020-06-22T20:49:56Z</time>
      </trkpt>
      <trkpt lat="50.88939" lon="1.77675">
        <ele>66.2</ele>
        <time>2020-06-22T20:49:57Z</time>
      </trkpt>
      <trkpt lat="50.88935" lon="1.77681">
        <ele>66.6</ele>
        <time>2020-06-22T20:49:58Z</time>
      </trkpt>
      <trkpt lat="50.8893" lon="1.77687">
        <ele>67</ele>
        <time>2020-06-22T20:49:59Z</time>
      </trkpt>
      <trkpt lat="50.88926" lon="1.77693">
        <ele>67.4</ele>
        <time>2020-06-22T20:50:00Z</time>
      </trkpt>
      <trkpt lat="50.88922" lon="1.777">
        <ele>67.9</ele>
        <time>2020-06-22T20:50:01Z</time>
      </trkpt>
      <trkpt lat="50.88918" lon="1.77707">
        <ele>68.3</ele>
        <time>2020-06-22T20:50:02Z</time>
      </trkpt>
      <trkpt lat="50.88914" lon="1.77714">
        <ele>68.6</ele>
        <time>2020-06-22T20:50:03Z</time>
      </trkpt>
      <trkpt lat="50.88911" lon="1.77721">
        <ele>69</ele>
        <time>2020-06-22T20:50:04Z</time>
      </trkpt>
      <trkpt lat="50.88908" lon="1.77728">
        <ele>69.3</ele>
        <time>2020-06-22T20:50:05Z</time>
      </trkpt>
      <trkpt lat="50.88904" lon="1.77734">
        <ele>69.6</ele>
        <time>2020-06-22T20:50:06Z</time>
      </trkpt>
      <trkpt lat="50.88902" lon="1.77738">
        <ele>69.8</ele>
        <time>2020-06-22T20:50:07Z</time>
      </trkpt>
      <trkpt lat="50.889" lon="1.77745">
        <ele>70.1</ele>
        <time>2020-06-22T20:50:08Z</time>
      </trkpt>
      <trkpt lat="50.88898" lon="1.77753">
        <ele>70.3</ele>
        <time>2020-06-22T20:50:09Z</time>
      </trkpt>
      <trkpt lat="50.88897" lon="1.7776">
        <ele>70.6</ele>
        <time>2020-06-22T20:50:10Z</time>
      </trkpt>
      <trkpt lat="50.88895" lon="1.77769">
        <ele>70.8</ele>
        <time>2020-06-22T20:50:11Z</time>
      </trkpt>
      <trkpt lat="50.88894" lon="1.77777">
        <ele>71.1</ele>
        <time>2020-06-22T20:50:12Z</time>
      </trkpt>
      <trkpt lat="50.88893" lon="1.77785">
        <ele>71.3</ele>
        <time>2020-06-22T20:50:13Z</time>
      </trkpt>
      <trkpt lat="50.88892" lon="1.77793">
        <ele>71.6</ele>
        <time>2020-06-22T20:50:14Z</time>
      </trkpt>
      <trkpt lat="50.88891" lon="1.778">
        <ele>71.7</ele>
        <time>2020-06-22T20:50:15Z</time>
      </trkpt>
      <trkpt lat="50.8889" lon="1.77806">
        <ele>71.9</ele>
        <time>2020-06-22T20:50:16Z</time>
      </trkpt>
      <trkpt lat="50.88889" lon="1.77812">
        <ele>72.1</ele>
        <time>2020-06-22T20:50:17Z</time>
      </trkpt>
      <trkpt lat="50.88889" lon="1.77815">
        <ele>72.1</ele>
        <time>2020-06-22T20:50:18Z</time>
      </trkpt>
      <trkpt lat="50.88889" lon="1.7782">
        <ele>72.2</ele>
        <time>2020-06-22T20:50:19Z</time>
      </trkpt>
      <trkpt lat="50.88888" lon="1.77825">
        <ele>72.4</ele>
        <time>2020-06-22T20:50:20Z</time>
      </trkpt>
      <trkpt lat="50.88887" lon="1.77831">
        <ele>72.5</ele>
        <time>2020-06-22T20:50:21Z</time>
      </trkpt>
      <trkpt lat="50.88885" lon="1.77837">
        <ele>72.7</ele>
        <time>2020-06-22T20:50:22Z</time>
      </trkpt>
      <trkpt lat="50.88884" lon="1.77843">
        <ele>72.8</ele>
        <time>2020-06-22T20:50:23Z</time>
      </trkpt>
      <trkpt lat="50.88883" lon="1.77849">
        <ele>72.9</ele>
        <time>2020-06-22T20:50:24Z</time>
      </trkpt>
      <trkpt lat="50.88882" lon="1.77856">
        <ele>73.1</ele>
        <time>2020-06-22T20:50:25Z</time>
      </trkpt>
      <trkpt lat="50.88881" lon="1.77862">
        <ele>73.2</ele>
        <time>2020-06-22T20:50:26Z</time>
      </trkpt>
      <trkpt lat="50.8888" lon="1.77866">
        <ele>73.3</ele>
        <time>2020-06-22T20:50:27Z</time>
      </trkpt>
      <trkpt lat="50.88879" lon="1.77873">
        <ele>73.5</ele>
        <time>2020-06-22T20:50:28Z</time>
      </trkpt>
      <trkpt lat="50.88877" lon="1.77879">
        <ele>73.6</ele>
        <time>2020-06-22T20:50:29Z</time>
      </trkpt>
      <trkpt lat="50.88875" lon="1.77887">
        <ele>73.8</ele>
        <time>2020-06-22T20:50:30Z</time>
      </trkpt>
      <trkpt lat="50.88874" lon="1.77893">
        <ele>73.9</ele>
        <time>2020-06-22T20:50:31Z</time>
      </trkpt>
      <trkpt lat="50.88872" lon="1.779">
        <ele>74.1</ele>
        <time>2020-06-22T20:50:32Z</time>
      </trkpt>
      <trkpt lat="50.8887" lon="1.77906">
        <ele>74.2</ele>
        <time>2020-06-22T20:50:33Z</time>
      </trkpt>
      <trkpt lat="50.88867" lon="1.77913">
        <ele>74.4</ele>
        <time>2020-06-22T20:50:34Z</time>
      </trkpt>
      <trkpt lat="50.88865" lon="1.77919">
        <ele>74.6</ele>
        <time>2020-06-22T20:50:35Z</time>
      </trkpt>
      <trkpt lat="50.88863" lon="1.77925">
        <ele>74.8</ele>
        <time>2020-06-22T20:50:36Z</time>
      </trkpt>
      <trkpt lat="50.88861" lon="1.77931">
        <ele>74.9</ele>
        <time>2020-06-22T20:50:37Z</time>
      </trkpt>
      <trkpt lat="50.88859" lon="1.77938">
        <ele>75.1</ele>
        <time>2020-06-22T20:50:38Z</time>
      </trkpt>
      <trkpt lat="50.88857" lon="1.77946">
        <ele>75.3</ele>
        <time>2020-06-22T20:50:39Z</time>
      </trkpt>
      <trkpt lat="50.88855" lon="1.77953">
        <ele>75.5</ele>
        <time>2020-06-22T20:50:40Z</time>
      </trkpt>
      <trkpt lat="50.88854" lon="1.77959">
        <ele>75.7</ele>
        <time>2020-06-22T20:50:41Z</time>
      </trkpt>
      <trkpt lat="50.88853" lon="1.77966">
        <ele>75.9</ele>
        <time>2020-06-22T20:50:42Z</time>
      </trkpt>
      <trkpt lat="50.88851" lon="1.77972">
        <ele>76.1</ele>
        <time>2020-06-22T20:50:43Z</time>
      </trkpt>
      <trkpt lat="50.8885" lon="1.77979">
        <ele>76.3</ele>
        <time>2020-06-22T20:50:44Z</time>
      </trkpt>
      <trkpt lat="50.88848" lon="1.77985">
        <ele>76.5</ele>
        <time>2020-06-22T20:50:45Z</time>
      </trkpt>
      <trkpt lat="50.88846" lon="1.77991">
        <ele>76.6</ele>
        <time>2020-06-22T20:50:46Z</time>
      </trkpt>
      <trkpt lat="50.88844" lon="1.77997">
        <ele>76.8</ele>
        <time>2020-06-22T20:50:47Z</time>
      </trkpt>
      <trkpt lat="50.88843" lon="1.78004">
        <ele>77</ele>
        <time>2020-06-22T20:50:48Z</time>
      </trkpt>
      <trkpt lat="50.88841" lon="1.78011">
        <ele>77.2</ele>
        <time>2020-06-22T20:50:49Z</time>
      </trkpt>
      <trkpt lat="50.8884" lon="1.78015">
        <ele>77.4</ele>
        <time>2020-06-22T20:50:50Z</time>
      </trkpt>
      <trkpt lat="50.88838" lon="1.78021">
        <ele>77.6</ele>
        <time>2020-06-22T20:50:51Z</time>
      </trkpt>
      <trkpt lat="50.88837" lon="1.78028">
        <ele>77.8</ele>
        <time>2020-06-22T20:50:52Z</time>
      </trkpt>
      <trkpt lat="50.88835" lon="1.78035">
        <ele>77.9</ele>
        <time>2020-06-22T20:50:53Z</time>
      </trkpt>
      <trkpt lat="50.88834" lon="1.78043">
        <ele>78.1</ele>
        <time>2020-06-22T20:50:54Z</time>
      </trkpt>
      <trkpt lat="50.88833" lon="1.78047">
        <ele>78.2</ele>
        <time>2020-06-22T20:50:55Z</time>
      </trkpt>
      <trkpt lat="50.88831" lon="1.78053">
        <ele>78.4</ele>
        <time>2020-06-22T20:50:56Z</time>
      </trkpt>
      <trkpt lat="50.88829" lon="1.78057">
        <ele>78.4</ele>
        <time>2020-06-22T20:50:57Z</time>
      </trkpt>
      <trkpt lat="50.88827" lon="1.78063">
        <ele>78.5</ele>
        <time>2020-06-22T20:50:58Z</time>
      </trkpt>
      <trkpt lat="50.88825" lon="1.7807">
        <ele>78.6</ele>
        <time>2020-06-22T20:50:59Z</time>
      </trkpt>
      <trkpt lat="50.88824" lon="1.78076">
        <ele>78.7</ele>
        <time>2020-06-22T20:51:00Z</time>
      </trkpt>
      <trkpt lat="50.88823" lon="1.78078">
        <ele>78.7</ele>
        <time>2020-06-22T20:51:01Z</time>
      </trkpt>
      <trkpt lat="50.88822" lon="1.78085">
        <ele>78.8</ele>
        <time>2020-06-22T20:51:02Z</time>
      </trkpt>
      <trkpt lat="50.88821" lon="1.78088">
        <ele>78.8</ele>
        <time>2020-06-22T20:51:03Z</time>
      </trkpt>
      <trkpt lat="50.8882" lon="1.78093">
        <ele>78.8</ele>
        <time>2020-06-22T20:51:04Z</time>
      </trkpt>
      <trkpt lat="50.88819" lon="1.78098">
        <ele>78.8</ele>
        <time>2020-06-22T20:51:05Z</time>
      </trkpt>
      <trkpt lat="50.88819" lon="1.781">
        <ele>78.8</ele>
        <time>2020-06-22T20:51:06Z</time>
      </trkpt>
      <trkpt lat="50.88816" lon="1.78106">
        <ele>78.7</ele>
        <time>2020-06-22T20:51:07Z</time>
      </trkpt>
      <trkpt lat="50.88814" lon="1.78111">
        <ele>78.7</ele>
        <time>2020-06-22T20:51:08Z</time>
      </trkpt>
      <trkpt lat="50.88813" lon="1.78114">
        <ele>78.6</ele>
        <time>2020-06-22T20:51:09Z</time>
      </trkpt>
      <trkpt lat="50.88813" lon="1.78116">
        <ele>78.6</ele>
        <time>2020-06-22T20:51:10Z</time>
      </trkpt>
      <trkpt lat="50.88811" lon="1.7812">
        <ele>78.5</ele>
        <time>2020-06-22T20:51:11Z</time>
      </trkpt>
      <trkpt lat="50.8881" lon="1.78125">
        <ele>78.4</ele>
        <time>2020-06-22T20:51:12Z</time>
      </trkpt>
      <trkpt lat="50.88811" lon="1.78131">
        <ele>78.3</ele>
        <time>2020-06-22T20:51:13Z</time>
      </trkpt>
      <trkpt lat="50.88811" lon="1.78134">
        <ele>78.3</ele>
        <time>2020-06-22T20:51:14Z</time>
      </trkpt>
      <trkpt lat="50.88812" lon="1.78137">
        <ele>78.2</ele>
        <time>2020-06-22T20:51:15Z</time>
      </trkpt>
      <trkpt lat="50.88812" lon="1.78138">
        <ele>78.2</ele>
        <time>2020-06-22T20:51:16Z</time>
      </trkpt>
      <trkpt lat="50.88813" lon="1.78139">
        <ele>78.2</ele>
        <time>2020-06-22T20:51:17Z</time>
      </trkpt>
      <trkpt lat="50.88813" lon="1.78139">
        <ele>78.2</ele>
        <time>2020-06-22T20:51:18Z</time>
      </trkpt>
      <trkpt lat="50.88813" lon="1.78139">
        <ele>78.2</ele>
        <time>2020-06-22T20:51:19Z</time>
      </trkpt>
      <trkpt lat="50.88814" lon="1.78138">
        <ele>78.2</ele>
        <time>2020-06-22T20:51:20Z</time>
      </trkpt>
      <trkpt lat="50.88814" lon="1.78138">
        <ele>78.2</ele>
        <time>2020-06-22T20:51:21Z</time>
      </trkpt>
      <trkpt lat="50.88815" lon="1.78138">
        <ele>78.2</ele>
        <time>2020-06-22T20:51:22Z</time>
      </trkpt>
      <trkpt lat="50.88815" lon="1.78138">
        <ele>78.2</ele>
        <time>2020-06-22T20:51:23Z</time>
      </trkpt>
      <trkpt lat="50.88815" lon="1.78139">
        <ele>78.2</ele>
        <time>2020-06-22T20:51:24Z</time>
      </trkpt>
      <trkpt lat="50.88815" lon="1.7814">
        <ele>78.1</ele>
        <time>2020-06-22T20:51:25Z</time>
      </trkpt>
      <trkpt lat="50.88815" lon="1.7814">
        <ele>78.1</ele>
        <time>2020-06-22T20:51:26Z</time>
      </trkpt>
      <trkpt lat="50.88815" lon="1.7814">
        <ele>78.1</ele>
        <time>2020-06-22T20:51:27Z</time>
      </trkpt>
      <trkpt lat="50.88821" lon="1.7815">
        <ele>77.9</ele>
        <time>2020-06-22T20:53:53Z</time>
      </trkpt>
      <trkpt lat="50.88822" lon="1.78153">
        <ele>77.9</ele>
        <time>2020-06-22T20:53:54Z</time>
      </trkpt>
      <trkpt lat="50.88824" lon="1.78156">
        <ele>77.8</ele>
        <time>2020-06-22T20:53:55Z</time>
      </trkpt>
      <trkpt lat="50.88825" lon="1.78158">
        <ele>77.7</ele>
        <time>2020-06-22T20:53:56Z</time>
      </trkpt>
      <trkpt lat="50.88828" lon="1.78159">
        <ele>77.7</ele>
        <time>2020-06-22T20:53:57Z</time>
      </trkpt>
      <trkpt lat="50.88829" lon="1.78163">
        <ele>77.6</ele>
        <time>2020-06-22T20:53:58Z</time>
      </trkpt>
      <trkpt lat="50.88831" lon="1.78166">
        <ele>77.5</ele>
        <time>2020-06-22T20:53:59Z</time>
      </trkpt>
      <trkpt lat="50.88834" lon="1.78168">
        <ele>77.4</ele>
        <time>2020-06-22T20:54:00Z</time>
      </trkpt>
      <trkpt lat="50.88837" lon="1.78171">
        <ele>77.3</ele>
        <time>2020-06-22T20:54:01Z</time>
      </trkpt>
      <trkpt lat="50.88839" lon="1.78174">
        <ele>77.2</ele>
        <time>2020-06-22T20:54:02Z</time>
      </trkpt>
      <trkpt lat="50.88841" lon="1.78177">
        <ele>77.1</ele>
        <time>2020-06-22T20:54:03Z</time>
      </trkpt>
      <trkpt lat="50.88844" lon="1.78181">
        <ele>77</ele>
        <time>2020-06-22T20:54:04Z</time>
      </trkpt>
      <trkpt lat="50.88846" lon="1.78183">
        <ele>76.9</ele>
        <time>2020-06-22T20:54:05Z</time>
      </trkpt>
      <trkpt lat="50.88849" lon="1.78186">
        <ele>76.8</ele>
        <time>2020-06-22T20:54:06Z</time>
      </trkpt>
      <trkpt lat="50.88851" lon="1.7819">
        <ele>76.7</ele>
        <time>2020-06-22T20:54:07Z</time>
      </trkpt>
      <trkpt lat="50.88854" lon="1.78193">
        <ele>76.7</ele>
        <time>2020-06-22T20:54:08Z</time>
      </trkpt>
      <trkpt lat="50.88857" lon="1.78196">
        <ele>76.6</ele>
        <time>2020-06-22T20:54:09Z</time>
      </trkpt>
      <trkpt lat="50.8886" lon="1.78199">
        <ele>76.5</ele>
        <time>2020-06-22T20:54:10Z</time>
      </trkpt>
      <trkpt lat="50.88863" lon="1.78203">
        <ele>76.4</ele>
        <time>2020-06-22T20:54:11Z</time>
      </trkpt>
      <trkpt lat="50.88865" lon="1.78207">
        <ele>76.3</ele>
        <time>2020-06-22T20:54:12Z</time>
      </trkpt>
      <trkpt lat="50.88868" lon="1.78211">
        <ele>76.2</ele>
        <time>2020-06-22T20:54:13Z</time>
      </trkpt>
      <trkpt lat="50.88871" lon="1.78215">
        <ele>76.1</ele>
        <time>2020-06-22T20:54:14Z</time>
      </trkpt>
      <trkpt lat="50.88874" lon="1.78219">
        <ele>76</ele>
        <time>2020-06-22T20:54:15Z</time>
      </trkpt>
      <trkpt lat="50.88877" lon="1.78222">
        <ele>75.9</ele>
        <time>2020-06-22T20:54:16Z</time>
      </trkpt>
      <trkpt lat="50.8888" lon="1.78227">
        <ele>75.8</ele>
        <time>2020-06-22T20:54:17Z</time>
      </trkpt>
      <trkpt lat="50.88884" lon="1.78231">
        <ele>75.7</ele>
        <time>2020-06-22T20:54:18Z</time>
      </trkpt>
      <trkpt lat="50.88887" lon="1.78235">
        <ele>75.6</ele>
        <time>2020-06-22T20:54:19Z</time>
      </trkpt>
      <trkpt lat="50.8889" lon="1.7824">
        <ele>75.5</ele>
        <time>2020-06-22T20:54:20Z</time>
      </trkpt>
      <trkpt lat="50.88894" lon="1.78244">
        <ele>75.4</ele>
        <time>2020-06-22T20:54:21Z</time>
      </trkpt>
      <trkpt lat="50.88898" lon="1.78248">
        <ele>75.2</ele>
        <time>2020-06-22T20:54:22Z</time>
      </trkpt>
      <trkpt lat="50.88901" lon="1.78253">
        <ele>75.1</ele>
        <time>2020-06-22T20:54:23Z</time>
      </trkpt>
      <trkpt lat="50.88905" lon="1.78258">
        <ele>75</ele>
        <time>2020-06-22T20:54:24Z</time>
      </trkpt>
      <trkpt lat="50.88909" lon="1.78263">
        <ele>74.8</ele>
        <time>2020-06-22T20:54:25Z</time>
      </trkpt>
      <trkpt lat="50.88913" lon="1.78268">
        <ele>74.7</ele>
        <time>2020-06-22T20:54:26Z</time>
      </trkpt>
      <trkpt lat="50.88916" lon="1.78273">
        <ele>74.6</ele>
        <time>2020-06-22T20:54:27Z</time>
      </trkpt>
      <trkpt lat="50.8892" lon="1.78277">
        <ele>74.5</ele>
        <time>2020-06-22T20:54:28Z</time>
      </trkpt>
      <trkpt lat="50.88923" lon="1.78282">
        <ele>74.3</ele>
        <time>2020-06-22T20:54:29Z</time>
      </trkpt>
      <trkpt lat="50.88927" lon="1.78288">
        <ele>74.2</ele>
        <time>2020-06-22T20:54:30Z</time>
      </trkpt>
      <trkpt lat="50.8893" lon="1.78293">
        <ele>74.1</ele>
        <time>2020-06-22T20:54:31Z</time>
      </trkpt>
      <trkpt lat="50.88934" lon="1.78299">
        <ele>73.9</ele>
        <time>2020-06-22T20:54:32Z</time>
      </trkpt>
      <trkpt lat="50.88938" lon="1.78304">
        <ele>73.8</ele>
        <time>2020-06-22T20:54:33Z</time>
      </trkpt>
      <trkpt lat="50.88942" lon="1.78308">
        <ele>73.7</ele>
        <time>2020-06-22T20:54:34Z</time>
      </trkpt>
      <trkpt lat="50.88947" lon="1.78314">
        <ele>73.5</ele>
        <time>2020-06-22T20:54:35Z</time>
      </trkpt>
      <trkpt lat="50.88951" lon="1.78319">
        <ele>73.3</ele>
        <time>2020-06-22T20:54:36Z</time>
      </trkpt>
      <trkpt lat="50.88955" lon="1.78325">
        <ele>73.2</ele>
        <time>2020-06-22T20:54:37Z</time>
      </trkpt>
      <trkpt lat="50.88959" lon="1.78331">
        <ele>73</ele>
        <time>2020-06-22T20:54:38Z</time>
      </trkpt>
      <trkpt lat="50.88964" lon="1.78337">
        <ele>72.9</ele>
        <time>2020-06-22T20:54:39Z</time>
      </trkpt>
      <trkpt lat="50.88968" lon="1.78343">
        <ele>72.7</ele>
        <time>2020-06-22T20:54:40Z</time>
      </trkpt>
      <trkpt lat="50.88972" lon="1.78349">
        <ele>72.6</ele>
        <time>2020-06-22T20:54:41Z</time>
      </trkpt>
      <trkpt lat="50.88977" lon="1.78354">
        <ele>72.5</ele>
        <time>2020-06-22T20:54:42Z</time>
      </trkpt>
      <trkpt lat="50.88982" lon="1.7836">
        <ele>72.3</ele>
        <time>2020-06-22T20:54:43Z</time>
      </trkpt>
      <trkpt lat="50.88987" lon="1.78365">
        <ele>72.2</ele>
        <time>2020-06-22T20:54:44Z</time>
      </trkpt>
      <trkpt lat="50.88991" lon="1.78371">
        <ele>72.1</ele>
        <time>2020-06-22T20:54:45Z</time>
      </trkpt>
      <trkpt lat="50.88995" lon="1.78377">
        <ele>71.9</ele>
        <time>2020-06-22T20:54:46Z</time>
      </trkpt>
      <trkpt lat="50.88999" lon="1.78384">
        <ele>71.8</ele>
        <time>2020-06-22T20:54:47Z</time>
      </trkpt>
      <trkpt lat="50.89003" lon="1.7839">
        <ele>71.7</ele>
        <time>2020-06-22T20:54:48Z</time>
      </trkpt>
      <trkpt lat="50.89008" lon="1.78397">
        <ele>71.5</ele>
        <time>2020-06-22T20:54:49Z</time>
      </trkpt>
      <trkpt lat="50.89013" lon="1.78403">
        <ele>71.4</ele>
        <time>2020-06-22T20:54:50Z</time>
      </trkpt>
      <trkpt lat="50.89018" lon="1.78409">
        <ele>71.3</ele>
        <time>2020-06-22T20:54:51Z</time>
      </trkpt>
      <trkpt lat="50.89022" lon="1.78415">
        <ele>71.1</ele>
        <time>2020-06-22T20:54:52Z</time>
      </trkpt>
      <trkpt lat="50.89027" lon="1.78421">
        <ele>71</ele>
        <time>2020-06-22T20:54:53Z</time>
      </trkpt>
      <trkpt lat="50.89031" lon="1.78427">
        <ele>70.9</ele>
        <time>2020-06-22T20:54:54Z</time>
      </trkpt>
      <trkpt lat="50.89035" lon="1.78433">
        <ele>70.7</ele>
        <time>2020-06-22T20:54:55Z</time>
      </trkpt>
      <trkpt lat="50.89039" lon="1.7844">
        <ele>70.6</ele>
        <time>2020-06-22T20:54:56Z</time>
      </trkpt>
      <trkpt lat="50.89043" lon="1.78446">
        <ele>70.4</ele>
        <time>2020-06-22T20:54:57Z</time>
      </trkpt>
      <trkpt lat="50.89048" lon="1.78452">
        <ele>70.3</ele>
        <time>2020-06-22T20:54:58Z</time>
      </trkpt>
      <trkpt lat="50.89052" lon="1.78458">
        <ele>70.2</ele>
        <time>2020-06-22T20:54:59Z</time>
      </trkpt>
      <trkpt lat="50.89056" lon="1.78464">
        <ele>70.1</ele>
        <time>2020-06-22T20:55:00Z</time>
      </trkpt>
      <trkpt lat="50.89061" lon="1.78469">
        <ele>69.9</ele>
        <time>2020-06-22T20:55:01Z</time>
      </trkpt>
      <trkpt lat="50.89066" lon="1.78474">
        <ele>69.8</ele>
        <time>2020-06-22T20:55:02Z</time>
      </trkpt>
      <trkpt lat="50.89072" lon="1.78479">
        <ele>69.6</ele>
        <time>2020-06-22T20:55:03Z</time>
      </trkpt>
      <trkpt lat="50.89077" lon="1.78485">
        <ele>69.5</ele>
        <time>2020-06-22T20:55:04Z</time>
      </trkpt>
      <trkpt lat="50.89081" lon="1.78492">
        <ele>69.3</ele>
        <time>2020-06-22T20:55:05Z</time>
      </trkpt>
      <trkpt lat="50.89085" lon="1.78499">
        <ele>69.1</ele>
        <time>2020-06-22T20:55:06Z</time>
      </trkpt>
      <trkpt lat="50.89089" lon="1.78507">
        <ele>68.9</ele>
        <time>2020-06-22T20:55:07Z</time>
      </trkpt>
      <trkpt lat="50.89094" lon="1.78513">
        <ele>68.7</ele>
        <time>2020-06-22T20:55:08Z</time>
      </trkpt>
      <trkpt lat="50.89098" lon="1.7852">
        <ele>68.5</ele>
        <time>2020-06-22T20:55:09Z</time>
      </trkpt>
      <trkpt lat="50.89103" lon="1.78527">
        <ele>68.2</ele>
        <time>2020-06-22T20:55:10Z</time>
      </trkpt>
      <trkpt lat="50.89108" lon="1.78533">
        <ele>68</ele>
        <time>2020-06-22T20:55:11Z</time>
      </trkpt>
      <trkpt lat="50.89112" lon="1.78541">
        <ele>67.8</ele>
        <time>2020-06-22T20:55:12Z</time>
      </trkpt>
      <trkpt lat="50.89117" lon="1.78548">
        <ele>67.5</ele>
        <time>2020-06-22T20:55:13Z</time>
      </trkpt>
      <trkpt lat="50.89121" lon="1.78556">
        <ele>67.2</ele>
        <time>2020-06-22T20:55:14Z</time>
      </trkpt>
      <trkpt lat="50.89126" lon="1.78564">
        <ele>66.9</ele>
        <time>2020-06-22T20:55:15Z</time>
      </trkpt>
      <trkpt lat="50.89131" lon="1.78573">
        <ele>66.7</ele>
        <time>2020-06-22T20:55:16Z</time>
      </trkpt>
      <trkpt lat="50.89136" lon="1.7858">
        <ele>66.4</ele>
        <time>2020-06-22T20:55:17Z</time>
      </trkpt>
      <trkpt lat="50.89141" lon="1.78588">
        <ele>66.2</ele>
        <time>2020-06-22T20:55:18Z</time>
      </trkpt>
      <trkpt lat="50.89146" lon="1.78596">
        <ele>65.9</ele>
        <time>2020-06-22T20:55:19Z</time>
      </trkpt>
      <trkpt lat="50.89151" lon="1.78604">
        <ele>65.7</ele>
        <time>2020-06-22T20:55:20Z</time>
      </trkpt>
      <trkpt lat="50.89157" lon="1.78612">
        <ele>65.4</ele>
        <time>2020-06-22T20:55:21Z</time>
      </trkpt>
      <trkpt lat="50.89162" lon="1.7862">
        <ele>65.2</ele>
        <time>2020-06-22T20:55:22Z</time>
      </trkpt>
      <trkpt lat="50.89168" lon="1.78627">
        <ele>64.9</ele>
        <time>2020-06-22T20:55:23Z</time>
      </trkpt>
      <trkpt lat="50.89174" lon="1.78635">
        <ele>64.7</ele>
        <time>2020-06-22T20:55:24Z</time>
      </trkpt>
      <trkpt lat="50.8918" lon="1.78643">
        <ele>64.5</ele>
        <time>2020-06-22T20:55:25Z</time>
      </trkpt>
      <trkpt lat="50.89185" lon="1.78651">
        <ele>64.2</ele>
        <time>2020-06-22T20:55:26Z</time>
      </trkpt>
      <trkpt lat="50.89191" lon="1.78659">
        <ele>64</ele>
        <time>2020-06-22T20:55:27Z</time>
      </trkpt>
      <trkpt lat="50.89197" lon="1.78667">
        <ele>63.8</ele>
        <time>2020-06-22T20:55:28Z</time>
      </trkpt>
      <trkpt lat="50.89203" lon="1.78675">
        <ele>63.6</ele>
        <time>2020-06-22T20:55:29Z</time>
      </trkpt>
      <trkpt lat="50.89208" lon="1.78683">
        <ele>63.3</ele>
        <time>2020-06-22T20:55:30Z</time>
      </trkpt>
      <trkpt lat="50.89214" lon="1.78691">
        <ele>63.1</ele>
        <time>2020-06-22T20:55:31Z</time>
      </trkpt>
      <trkpt lat="50.89221" lon="1.78698">
        <ele>62.9</ele>
        <time>2020-06-22T20:55:32Z</time>
      </trkpt>
      <trkpt lat="50.89226" lon="1.78706">
        <ele>62.7</ele>
        <time>2020-06-22T20:55:33Z</time>
      </trkpt>
      <trkpt lat="50.89232" lon="1.78713">
        <ele>62.5</ele>
        <time>2020-06-22T20:55:34Z</time>
      </trkpt>
      <trkpt lat="50.89238" lon="1.78721">
        <ele>62.3</ele>
        <time>2020-06-22T20:55:35Z</time>
      </trkpt>
      <trkpt lat="50.89244" lon="1.78728">
        <ele>62.1</ele>
        <time>2020-06-22T20:55:36Z</time>
      </trkpt>
      <trkpt lat="50.8925" lon="1.78736">
        <ele>61.9</ele>
        <time>2020-06-22T20:55:37Z</time>
      </trkpt>
      <trkpt lat="50.89256" lon="1.78743">
        <ele>61.7</ele>
        <time>2020-06-22T20:55:38Z</time>
      </trkpt>
      <trkpt lat="50.89262" lon="1.7875">
        <ele>61.4</ele>
        <time>2020-06-22T20:55:39Z</time>
      </trkpt>
      <trkpt lat="50.89269" lon="1.78757">
        <ele>61.2</ele>
        <time>2020-06-22T20:55:40Z</time>
      </trkpt>
      <trkpt lat="50.89275" lon="1.78764">
        <ele>61</ele>
        <time>2020-06-22T20:55:41Z</time>
      </trkpt>
      <trkpt lat="50.89281" lon="1.7877">
        <ele>60.8</ele>
        <time>2020-06-22T20:55:42Z</time>
      </trkpt>
      <trkpt lat="50.89288" lon="1.78776">
        <ele>60.5</ele>
        <time>2020-06-22T20:55:43Z</time>
      </trkpt>
      <trkpt lat="50.89295" lon="1.78781">
        <ele>60.3</ele>
        <time>2020-06-22T20:55:44Z</time>
      </trkpt>
      <trkpt lat="50.89302" lon="1.78787">
        <ele>60</ele>
        <time>2020-06-22T20:55:45Z</time>
      </trkpt>
      <trkpt lat="50.89309" lon="1.78792">
        <ele>59.8</ele>
        <time>2020-06-22T20:55:46Z</time>
      </trkpt>
      <trkpt lat="50.89315" lon="1.78797">
        <ele>59.6</ele>
        <time>2020-06-22T20:55:47Z</time>
      </trkpt>
      <trkpt lat="50.89322" lon="1.78803">
        <ele>59.3</ele>
        <time>2020-06-22T20:55:48Z</time>
      </trkpt>
      <trkpt lat="50.89329" lon="1.78808">
        <ele>59.1</ele>
        <time>2020-06-22T20:55:49Z</time>
      </trkpt>
      <trkpt lat="50.89336" lon="1.78814">
        <ele>58.9</ele>
        <time>2020-06-22T20:55:50Z</time>
      </trkpt>
      <trkpt lat="50.89342" lon="1.7882">
        <ele>58.7</ele>
        <time>2020-06-22T20:55:51Z</time>
      </trkpt>
      <trkpt lat="50.89349" lon="1.78826">
        <ele>58.5</ele>
        <time>2020-06-22T20:55:52Z</time>
      </trkpt>
      <trkpt lat="50.89356" lon="1.78832">
        <ele>58.3</ele>
        <time>2020-06-22T20:55:53Z</time>
      </trkpt>
      <trkpt lat="50.89362" lon="1.78837">
        <ele>58.1</ele>
        <time>2020-06-22T20:55:54Z</time>
      </trkpt>
      <trkpt lat="50.89369" lon="1.78843">
        <ele>57.9</ele>
        <time>2020-06-22T20:55:55Z</time>
      </trkpt>
      <trkpt lat="50.89376" lon="1.78848">
        <ele>57.6</ele>
        <time>2020-06-22T20:55:56Z</time>
      </trkpt>
      <trkpt lat="50.89382" lon="1.78854">
        <ele>57.3</ele>
        <time>2020-06-22T20:55:57Z</time>
      </trkpt>
      <trkpt lat="50.89389" lon="1.7886">
        <ele>57.1</ele>
        <time>2020-06-22T20:55:58Z</time>
      </trkpt>
      <trkpt lat="50.89395" lon="1.78867">
        <ele>56.8</ele>
        <time>2020-06-22T20:55:59Z</time>
      </trkpt>
      <trkpt lat="50.89402" lon="1.78873">
        <ele>56.7</ele>
        <time>2020-06-22T20:56:00Z</time>
      </trkpt>
      <trkpt lat="50.89408" lon="1.7888">
        <ele>56.5</ele>
        <time>2020-06-22T20:56:01Z</time>
      </trkpt>
      <trkpt lat="50.89414" lon="1.78886">
        <ele>56.3</ele>
        <time>2020-06-22T20:56:02Z</time>
      </trkpt>
      <trkpt lat="50.8942" lon="1.78893">
        <ele>56.2</ele>
        <time>2020-06-22T20:56:03Z</time>
      </trkpt>
      <trkpt lat="50.89426" lon="1.78901">
        <ele>56</ele>
        <time>2020-06-22T20:56:04Z</time>
      </trkpt>
      <trkpt lat="50.89432" lon="1.78908">
        <ele>55.9</ele>
        <time>2020-06-22T20:56:05Z</time>
      </trkpt>
      <trkpt lat="50.89438" lon="1.78916">
        <ele>55.7</ele>
        <time>2020-06-22T20:56:06Z</time>
      </trkpt>
      <trkpt lat="50.89444" lon="1.78923">
        <ele>55.6</ele>
        <time>2020-06-22T20:56:07Z</time>
      </trkpt>
      <trkpt lat="50.89449" lon="1.7893">
        <ele>55.4</ele>
        <time>2020-06-22T20:56:08Z</time>
      </trkpt>
      <trkpt lat="50.89454" lon="1.78938">
        <ele>55.2</ele>
        <time>2020-06-22T20:56:09Z</time>
      </trkpt>
      <trkpt lat="50.8946" lon="1.78945">
        <ele>55.1</ele>
        <time>2020-06-22T20:56:10Z</time>
      </trkpt>
      <trkpt lat="50.89466" lon="1.78953">
        <ele>54.9</ele>
        <time>2020-06-22T20:56:11Z</time>
      </trkpt>
      <trkpt lat="50.89472" lon="1.7896">
        <ele>54.7</ele>
        <time>2020-06-22T20:56:12Z</time>
      </trkpt>
      <trkpt lat="50.89477" lon="1.78968">
        <ele>54.5</ele>
        <time>2020-06-22T20:56:13Z</time>
      </trkpt>
      <trkpt lat="50.89482" lon="1.78976">
        <ele>54.4</ele>
        <time>2020-06-22T20:56:14Z</time>
      </trkpt>
      <trkpt lat="50.89487" lon="1.78984">
        <ele>54.2</ele>
        <time>2020-06-22T20:56:15Z</time>
      </trkpt>
      <trkpt lat="50.89492" lon="1.78992">
        <ele>54</ele>
        <time>2020-06-22T20:56:16Z</time>
      </trkpt>
      <trkpt lat="50.89498" lon="1.79">
        <ele>53.8</ele>
        <time>2020-06-22T20:56:17Z</time>
      </trkpt>
      <trkpt lat="50.89503" lon="1.79008">
        <ele>53.6</ele>
        <time>2020-06-22T20:56:18Z</time>
      </trkpt>
      <trkpt lat="50.89508" lon="1.79016">
        <ele>53.5</ele>
        <time>2020-06-22T20:56:19Z</time>
      </trkpt>
      <trkpt lat="50.89514" lon="1.79024">
        <ele>53.3</ele>
        <time>2020-06-22T20:56:20Z</time>
      </trkpt>
      <trkpt lat="50.89519" lon="1.79031">
        <ele>53.1</ele>
        <time>2020-06-22T20:56:21Z</time>
      </trkpt>
      <trkpt lat="50.89525" lon="1.79039">
        <ele>52.9</ele>
        <time>2020-06-22T20:56:22Z</time>
      </trkpt>
      <trkpt lat="50.8953" lon="1.79046">
        <ele>52.8</ele>
        <time>2020-06-22T20:56:23Z</time>
      </trkpt>
      <trkpt lat="50.89536" lon="1.79052">
        <ele>52.7</ele>
        <time>2020-06-22T20:56:24Z</time>
      </trkpt>
      <trkpt lat="50.89542" lon="1.79058">
        <ele>52.5</ele>
        <time>2020-06-22T20:56:25Z</time>
      </trkpt>
      <trkpt lat="50.89548" lon="1.79064">
        <ele>52.3</ele>
        <time>2020-06-22T20:56:26Z</time>
      </trkpt>
      <trkpt lat="50.89554" lon="1.79069">
        <ele>52.1</ele>
        <time>2020-06-22T20:56:27Z</time>
      </trkpt>
      <trkpt lat="50.8956" lon="1.79075">
        <ele>51.9</ele>
        <time>2020-06-22T20:56:28Z</time>
      </trkpt>
      <trkpt lat="50.89566" lon="1.7908">
        <ele>51.7</ele>
        <time>2020-06-22T20:56:29Z</time>
      </trkpt>
      <trkpt lat="50.89573" lon="1.79086">
        <ele>51.5</ele>
        <time>2020-06-22T20:56:30Z</time>
      </trkpt>
      <trkpt lat="50.89579" lon="1.79091">
        <ele>51.2</ele>
        <time>2020-06-22T20:56:31Z</time>
      </trkpt>
      <trkpt lat="50.89585" lon="1.79096">
        <ele>51</ele>
        <time>2020-06-22T20:56:32Z</time>
      </trkpt>
      <trkpt lat="50.89591" lon="1.79102">
        <ele>50.7</ele>
        <time>2020-06-22T20:56:33Z</time>
      </trkpt>
      <trkpt lat="50.89598" lon="1.79108">
        <ele>50.4</ele>
        <time>2020-06-22T20:56:34Z</time>
      </trkpt>
      <trkpt lat="50.89604" lon="1.79114">
        <ele>50.1</ele>
        <time>2020-06-22T20:56:35Z</time>
      </trkpt>
      <trkpt lat="50.8961" lon="1.7912">
        <ele>49.8</ele>
        <time>2020-06-22T20:56:36Z</time>
      </trkpt>
      <trkpt lat="50.89617" lon="1.79127">
        <ele>49.5</ele>
        <time>2020-06-22T20:56:37Z</time>
      </trkpt>
      <trkpt lat="50.89623" lon="1.79133">
        <ele>49.2</ele>
        <time>2020-06-22T20:56:38Z</time>
      </trkpt>
      <trkpt lat="50.89629" lon="1.7914">
        <ele>48.9</ele>
        <time>2020-06-22T20:56:39Z</time>
      </trkpt>
      <trkpt lat="50.89636" lon="1.79146">
        <ele>48.6</ele>
        <time>2020-06-22T20:56:40Z</time>
      </trkpt>
      <trkpt lat="50.89643" lon="1.79152">
        <ele>48.3</ele>
        <time>2020-06-22T20:56:41Z</time>
      </trkpt>
      <trkpt lat="50.89649" lon="1.79158">
        <ele>48</ele>
        <time>2020-06-22T20:56:42Z</time>
      </trkpt>
      <trkpt lat="50.89656" lon="1.79164">
        <ele>47.6</ele>
        <time>2020-06-22T20:56:43Z</time>
      </trkpt>
      <trkpt lat="50.89662" lon="1.7917">
        <ele>47.3</ele>
        <time>2020-06-22T20:56:44Z</time>
      </trkpt>
      <trkpt lat="50.89669" lon="1.79176">
        <ele>47</ele>
        <time>2020-06-22T20:56:45Z</time>
      </trkpt>
      <trkpt lat="50.89675" lon="1.79182">
        <ele>46.7</ele>
        <time>2020-06-22T20:56:46Z</time>
      </trkpt>
      <trkpt lat="50.89681" lon="1.79187">
        <ele>46.4</ele>
        <time>2020-06-22T20:56:47Z</time>
      </trkpt>
      <trkpt lat="50.89687" lon="1.79192">
        <ele>46</ele>
        <time>2020-06-22T20:56:48Z</time>
      </trkpt>
      <trkpt lat="50.89694" lon="1.79197">
        <ele>45.7</ele>
        <time>2020-06-22T20:56:49Z</time>
      </trkpt>
      <trkpt lat="50.89701" lon="1.79199">
        <ele>45.4</ele>
        <time>2020-06-22T20:56:50Z</time>
      </trkpt>
      <trkpt lat="50.89708" lon="1.79202">
        <ele>45.1</ele>
        <time>2020-06-22T20:56:51Z</time>
      </trkpt>
      <trkpt lat="50.89715" lon="1.79205">
        <ele>44.7</ele>
        <time>2020-06-22T20:56:52Z</time>
      </trkpt>
      <trkpt lat="50.89722" lon="1.79207">
        <ele>44.4</ele>
        <time>2020-06-22T20:56:53Z</time>
      </trkpt>
      <trkpt lat="50.8973" lon="1.79209">
        <ele>44</ele>
        <time>2020-06-22T20:56:54Z</time>
      </trkpt>
      <trkpt lat="50.89737" lon="1.79211">
        <ele>43.6</ele>
        <time>2020-06-22T20:56:55Z</time>
      </trkpt>
      <trkpt lat="50.89745" lon="1.79214">
        <ele>43.1</ele>
        <time>2020-06-22T20:56:56Z</time>
      </trkpt>
      <trkpt lat="50.89753" lon="1.79218">
        <ele>42.7</ele>
        <time>2020-06-22T20:56:57Z</time>
      </trkpt>
      <trkpt lat="50.8976" lon="1.7922">
        <ele>42.3</ele>
        <time>2020-06-22T20:56:58Z</time>
      </trkpt>
      <trkpt lat="50.89768" lon="1.79223">
        <ele>41.9</ele>
        <time>2020-06-22T20:56:59Z</time>
      </trkpt>
      <trkpt lat="50.89775" lon="1.79226">
        <ele>41.6</ele>
        <time>2020-06-22T20:57:00Z</time>
      </trkpt>
      <trkpt lat="50.89783" lon="1.79229">
        <ele>41.4</ele>
        <time>2020-06-22T20:57:01Z</time>
      </trkpt>
      <trkpt lat="50.8979" lon="1.79233">
        <ele>41.2</ele>
        <time>2020-06-22T20:57:02Z</time>
      </trkpt>
      <trkpt lat="50.89797" lon="1.79236">
        <ele>41</ele>
        <time>2020-06-22T20:57:03Z</time>
      </trkpt>
      <trkpt lat="50.89804" lon="1.79241">
        <ele>40.8</ele>
        <time>2020-06-22T20:57:04Z</time>
      </trkpt>
      <trkpt lat="50.89811" lon="1.79247">
        <ele>40.6</ele>
        <time>2020-06-22T20:57:05Z</time>
      </trkpt>
      <trkpt lat="50.89817" lon="1.79254">
        <ele>40.5</ele>
        <time>2020-06-22T20:57:06Z</time>
      </trkpt>
      <trkpt lat="50.89822" lon="1.79261">
        <ele>40.4</ele>
        <time>2020-06-22T20:57:07Z</time>
      </trkpt>
      <trkpt lat="50.89827" lon="1.7927">
        <ele>40.4</ele>
        <time>2020-06-22T20:57:08Z</time>
      </trkpt>
      <trkpt lat="50.89832" lon="1.79277">
        <ele>40.4</ele>
        <time>2020-06-22T20:57:09Z</time>
      </trkpt>
      <trkpt lat="50.89838" lon="1.79284">
        <ele>40.4</ele>
        <time>2020-06-22T20:57:10Z</time>
      </trkpt>
      <trkpt lat="50.89843" lon="1.79291">
        <ele>40.4</ele>
        <time>2020-06-22T20:57:11Z</time>
      </trkpt>
      <trkpt lat="50.89847" lon="1.793">
        <ele>40.4</ele>
        <time>2020-06-22T20:57:12Z</time>
      </trkpt>
      <trkpt lat="50.89852" lon="1.79307">
        <ele>40.5</ele>
        <time>2020-06-22T20:57:13Z</time>
      </trkpt>
      <trkpt lat="50.89857" lon="1.79314">
        <ele>40.5</ele>
        <time>2020-06-22T20:57:14Z</time>
      </trkpt>
      <trkpt lat="50.89861" lon="1.79321">
        <ele>40.5</ele>
        <time>2020-06-22T20:57:15Z</time>
      </trkpt>
      <trkpt lat="50.89865" lon="1.79329">
        <ele>40.5</ele>
        <time>2020-06-22T20:57:16Z</time>
      </trkpt>
      <trkpt lat="50.8987" lon="1.79337">
        <ele>40.5</ele>
        <time>2020-06-22T20:57:17Z</time>
      </trkpt>
      <trkpt lat="50.89874" lon="1.79344">
        <ele>40.6</ele>
        <time>2020-06-22T20:57:18Z</time>
      </trkpt>
      <trkpt lat="50.89879" lon="1.79351">
        <ele>40.6</ele>
        <time>2020-06-22T20:57:19Z</time>
      </trkpt>
      <trkpt lat="50.89883" lon="1.79358">
        <ele>40.6</ele>
        <time>2020-06-22T20:57:20Z</time>
      </trkpt>
      <trkpt lat="50.89887" lon="1.79365">
        <ele>40.7</ele>
        <time>2020-06-22T20:57:21Z</time>
      </trkpt>
      <trkpt lat="50.89891" lon="1.79371">
        <ele>40.7</ele>
        <time>2020-06-22T20:57:22Z</time>
      </trkpt>
      <trkpt lat="50.89895" lon="1.79378">
        <ele>40.7</ele>
        <time>2020-06-22T20:57:23Z</time>
      </trkpt>
      <trkpt lat="50.899" lon="1.79384">
        <ele>40.7</ele>
        <time>2020-06-22T20:57:24Z</time>
      </trkpt>
      <trkpt lat="50.89903" lon="1.7939">
        <ele>40.7</ele>
        <time>2020-06-22T20:57:25Z</time>
      </trkpt>
      <trkpt lat="50.89907" lon="1.79396">
        <ele>40.6</ele>
        <time>2020-06-22T20:57:26Z</time>
      </trkpt>
      <trkpt lat="50.89911" lon="1.79403">
        <ele>40.6</ele>
        <time>2020-06-22T20:57:27Z</time>
      </trkpt>
      <trkpt lat="50.89915" lon="1.79409">
        <ele>40.6</ele>
        <time>2020-06-22T20:57:28Z</time>
      </trkpt>
      <trkpt lat="50.89918" lon="1.79416">
        <ele>40.5</ele>
        <time>2020-06-22T20:57:29Z</time>
      </trkpt>
      <trkpt lat="50.89922" lon="1.79423">
        <ele>40.4</ele>
        <time>2020-06-22T20:57:30Z</time>
      </trkpt>
      <trkpt lat="50.89925" lon="1.79429">
        <ele>40.3</ele>
        <time>2020-06-22T20:57:31Z</time>
      </trkpt>
      <trkpt lat="50.89929" lon="1.79434">
        <ele>40.3</ele>
        <time>2020-06-22T20:57:32Z</time>
      </trkpt>
      <trkpt lat="50.89933" lon="1.79439">
        <ele>40.2</ele>
        <time>2020-06-22T20:57:33Z</time>
      </trkpt>
      <trkpt lat="50.89937" lon="1.79443">
        <ele>40.2</ele>
        <time>2020-06-22T20:57:34Z</time>
      </trkpt>
      <trkpt lat="50.89941" lon="1.79448">
        <ele>40.1</ele>
        <time>2020-06-22T20:57:35Z</time>
      </trkpt>
      <trkpt lat="50.89944" lon="1.79454">
        <ele>40</ele>
        <time>2020-06-22T20:57:36Z</time>
      </trkpt>
      <trkpt lat="50.89947" lon="1.79459">
        <ele>40</ele>
        <time>2020-06-22T20:57:37Z</time>
      </trkpt>
      <trkpt lat="50.89951" lon="1.79465">
        <ele>39.9</ele>
        <time>2020-06-22T20:57:38Z</time>
      </trkpt>
      <trkpt lat="50.89954" lon="1.7947">
        <ele>39.8</ele>
        <time>2020-06-22T20:57:39Z</time>
      </trkpt>
      <trkpt lat="50.89957" lon="1.79475">
        <ele>39.7</ele>
        <time>2020-06-22T20:57:40Z</time>
      </trkpt>
      <trkpt lat="50.89961" lon="1.7948">
        <ele>39.6</ele>
        <time>2020-06-22T20:57:41Z</time>
      </trkpt>
      <trkpt lat="50.89965" lon="1.79486">
        <ele>39.5</ele>
        <time>2020-06-22T20:57:42Z</time>
      </trkpt>
      <trkpt lat="50.89969" lon="1.79491">
        <ele>39.4</ele>
        <time>2020-06-22T20:57:43Z</time>
      </trkpt>
      <trkpt lat="50.89974" lon="1.79496">
        <ele>39.3</ele>
        <time>2020-06-22T20:57:44Z</time>
      </trkpt>
      <trkpt lat="50.89978" lon="1.79501">
        <ele>39.2</ele>
        <time>2020-06-22T20:57:45Z</time>
      </trkpt>
      <trkpt lat="50.89981" lon="1.79507">
        <ele>39.1</ele>
        <time>2020-06-22T20:57:46Z</time>
      </trkpt>
      <trkpt lat="50.89986" lon="1.79511">
        <ele>39</ele>
        <time>2020-06-22T20:57:47Z</time>
      </trkpt>
      <trkpt lat="50.89991" lon="1.79515">
        <ele>38.9</ele>
        <time>2020-06-22T20:57:48Z</time>
      </trkpt>
      <trkpt lat="50.89995" lon="1.7952">
        <ele>38.8</ele>
        <time>2020-06-22T20:57:49Z</time>
      </trkpt>
      <trkpt lat="50.89998" lon="1.79527">
        <ele>38.7</ele>
        <time>2020-06-22T20:57:50Z</time>
      </trkpt>
      <trkpt lat="50.90002" lon="1.79533">
        <ele>38.6</ele>
        <time>2020-06-22T20:57:51Z</time>
      </trkpt>
      <trkpt lat="50.90005" lon="1.7954">
        <ele>38.5</ele>
        <time>2020-06-22T20:57:52Z</time>
      </trkpt>
      <trkpt lat="50.90009" lon="1.79546">
        <ele>38.3</ele>
        <time>2020-06-22T20:57:53Z</time>
      </trkpt>
      <trkpt lat="50.90014" lon="1.79551">
        <ele>38.2</ele>
        <time>2020-06-22T20:57:54Z</time>
      </trkpt>
      <trkpt lat="50.90018" lon="1.79556">
        <ele>38.1</ele>
        <time>2020-06-22T20:57:55Z</time>
      </trkpt>
      <trkpt lat="50.90022" lon="1.79562">
        <ele>37.9</ele>
        <time>2020-06-22T20:57:56Z</time>
      </trkpt>
      <trkpt lat="50.90025" lon="1.79569">
        <ele>37.7</ele>
        <time>2020-06-22T20:57:57Z</time>
      </trkpt>
      <trkpt lat="50.90029" lon="1.79575">
        <ele>37.5</ele>
        <time>2020-06-22T20:57:58Z</time>
      </trkpt>
      <trkpt lat="50.90033" lon="1.79582">
        <ele>37.2</ele>
        <time>2020-06-22T20:57:59Z</time>
      </trkpt>
      <trkpt lat="50.90036" lon="1.79589">
        <ele>37</ele>
        <time>2020-06-22T20:58:00Z</time>
      </trkpt>
      <trkpt lat="50.9004" lon="1.79596">
        <ele>36.7</ele>
        <time>2020-06-22T20:58:01Z</time>
      </trkpt>
      <trkpt lat="50.90043" lon="1.79603">
        <ele>36.5</ele>
        <time>2020-06-22T20:58:02Z</time>
      </trkpt>
      <trkpt lat="50.90047" lon="1.79609">
        <ele>36.2</ele>
        <time>2020-06-22T20:58:03Z</time>
      </trkpt>
      <trkpt lat="50.9005" lon="1.79616">
        <ele>36</ele>
        <time>2020-06-22T20:58:04Z</time>
      </trkpt>
      <trkpt lat="50.90053" lon="1.79624">
        <ele>35.8</ele>
        <time>2020-06-22T20:58:05Z</time>
      </trkpt>
      <trkpt lat="50.90057" lon="1.7963">
        <ele>35.6</ele>
        <time>2020-06-22T20:58:06Z</time>
      </trkpt>
      <trkpt lat="50.90061" lon="1.79636">
        <ele>35.3</ele>
        <time>2020-06-22T20:58:07Z</time>
      </trkpt>
      <trkpt lat="50.90065" lon="1.79643">
        <ele>35.1</ele>
        <time>2020-06-22T20:58:08Z</time>
      </trkpt>
      <trkpt lat="50.9007" lon="1.79649">
        <ele>34.9</ele>
        <time>2020-06-22T20:58:09Z</time>
      </trkpt>
      <trkpt lat="50.90075" lon="1.79656">
        <ele>34.6</ele>
        <time>2020-06-22T20:58:10Z</time>
      </trkpt>
      <trkpt lat="50.9008" lon="1.79663">
        <ele>34.3</ele>
        <time>2020-06-22T20:58:11Z</time>
      </trkpt>
      <trkpt lat="50.90086" lon="1.7967">
        <ele>34</ele>
        <time>2020-06-22T20:58:12Z</time>
      </trkpt>
      <trkpt lat="50.90092" lon="1.79677">
        <ele>33.6</ele>
        <time>2020-06-22T20:58:13Z</time>
      </trkpt>
      <trkpt lat="50.90097" lon="1.79686">
        <ele>33.3</ele>
        <time>2020-06-22T20:58:14Z</time>
      </trkpt>
      <trkpt lat="50.90102" lon="1.79695">
        <ele>33</ele>
        <time>2020-06-22T20:58:15Z</time>
      </trkpt>
      <trkpt lat="50.90108" lon="1.79704">
        <ele>32.6</ele>
        <time>2020-06-22T20:58:16Z</time>
      </trkpt>
      <trkpt lat="50.90114" lon="1.79712">
        <ele>32.3</ele>
        <time>2020-06-22T20:58:17Z</time>
      </trkpt>
      <trkpt lat="50.90119" lon="1.79722">
        <ele>31.9</ele>
        <time>2020-06-22T20:58:18Z</time>
      </trkpt>
      <trkpt lat="50.90124" lon="1.79731">
        <ele>31.5</ele>
        <time>2020-06-22T20:58:19Z</time>
      </trkpt>
      <trkpt lat="50.9013" lon="1.79741">
        <ele>31.1</ele>
        <time>2020-06-22T20:58:20Z</time>
      </trkpt>
      <trkpt lat="50.90136" lon="1.7975">
        <ele>30.7</ele>
        <time>2020-06-22T20:58:21Z</time>
      </trkpt>
      <trkpt lat="50.90141" lon="1.7976">
        <ele>30.3</ele>
        <time>2020-06-22T20:58:22Z</time>
      </trkpt>
      <trkpt lat="50.90147" lon="1.79769">
        <ele>29.9</ele>
        <time>2020-06-22T20:58:23Z</time>
      </trkpt>
      <trkpt lat="50.90153" lon="1.79779">
        <ele>29.5</ele>
        <time>2020-06-22T20:58:24Z</time>
      </trkpt>
      <trkpt lat="50.90158" lon="1.79789">
        <ele>29.1</ele>
        <time>2020-06-22T20:58:25Z</time>
      </trkpt>
      <trkpt lat="50.90164" lon="1.79797">
        <ele>28.7</ele>
        <time>2020-06-22T20:58:26Z</time>
      </trkpt>
      <trkpt lat="50.9017" lon="1.79805">
        <ele>28.4</ele>
        <time>2020-06-22T20:58:27Z</time>
      </trkpt>
      <trkpt lat="50.90177" lon="1.79813">
        <ele>28</ele>
        <time>2020-06-22T20:58:28Z</time>
      </trkpt>
      <trkpt lat="50.90183" lon="1.7982">
        <ele>27.7</ele>
        <time>2020-06-22T20:58:29Z</time>
      </trkpt>
      <trkpt lat="50.90189" lon="1.79827">
        <ele>27.4</ele>
        <time>2020-06-22T20:58:30Z</time>
      </trkpt>
      <trkpt lat="50.90195" lon="1.79834">
        <ele>27</ele>
        <time>2020-06-22T20:58:31Z</time>
      </trkpt>
      <trkpt lat="50.90201" lon="1.79841">
        <ele>26.7</ele>
        <time>2020-06-22T20:58:32Z</time>
      </trkpt>
      <trkpt lat="50.90207" lon="1.79848">
        <ele>26.4</ele>
        <time>2020-06-22T20:58:33Z</time>
      </trkpt>
      <trkpt lat="50.90213" lon="1.79855">
        <ele>26.1</ele>
        <time>2020-06-22T20:58:34Z</time>
      </trkpt>
      <trkpt lat="50.90219" lon="1.79862">
        <ele>25.8</ele>
        <time>2020-06-22T20:58:35Z</time>
      </trkpt>
      <trkpt lat="50.90224" lon="1.79869">
        <ele>25.6</ele>
        <time>2020-06-22T20:58:36Z</time>
      </trkpt>
      <trkpt lat="50.9023" lon="1.79876">
        <ele>25.3</ele>
        <time>2020-06-22T20:58:37Z</time>
      </trkpt>
      <trkpt lat="50.90236" lon="1.79883">
        <ele>25</ele>
        <time>2020-06-22T20:58:38Z</time>
      </trkpt>
      <trkpt lat="50.90241" lon="1.79891">
        <ele>24.8</ele>
        <time>2020-06-22T20:58:39Z</time>
      </trkpt>
      <trkpt lat="50.90247" lon="1.79899">
        <ele>24.5</ele>
        <time>2020-06-22T20:58:40Z</time>
      </trkpt>
      <trkpt lat="50.90252" lon="1.79906">
        <ele>24.2</ele>
        <time>2020-06-22T20:58:41Z</time>
      </trkpt>
      <trkpt lat="50.90258" lon="1.79914">
        <ele>24</ele>
        <time>2020-06-22T20:58:42Z</time>
      </trkpt>
      <trkpt lat="50.90263" lon="1.79923">
        <ele>23.8</ele>
        <time>2020-06-22T20:58:43Z</time>
      </trkpt>
      <trkpt lat="50.90268" lon="1.79931">
        <ele>23.5</ele>
        <time>2020-06-22T20:58:44Z</time>
      </trkpt>
      <trkpt lat="50.90273" lon="1.79939">
        <ele>23.3</ele>
        <time>2020-06-22T20:58:45Z</time>
      </trkpt>
      <trkpt lat="50.90279" lon="1.79947">
        <ele>23.1</ele>
        <time>2020-06-22T20:58:46Z</time>
      </trkpt>
      <trkpt lat="50.90284" lon="1.79955">
        <ele>22.8</ele>
        <time>2020-06-22T20:58:47Z</time>
      </trkpt>
      <trkpt lat="50.90289" lon="1.79963">
        <ele>22.6</ele>
        <time>2020-06-22T20:58:48Z</time>
      </trkpt>
      <trkpt lat="50.90295" lon="1.79971">
        <ele>22.3</ele>
        <time>2020-06-22T20:58:49Z</time>
      </trkpt>
      <trkpt lat="50.903" lon="1.79979">
        <ele>22.1</ele>
        <time>2020-06-22T20:58:50Z</time>
      </trkpt>
      <trkpt lat="50.90305" lon="1.79988">
        <ele>21.8</ele>
        <time>2020-06-22T20:58:51Z</time>
      </trkpt>
      <trkpt lat="50.9031" lon="1.79997">
        <ele>21.5</ele>
        <time>2020-06-22T20:58:52Z</time>
      </trkpt>
      <trkpt lat="50.90315" lon="1.80005">
        <ele>21.3</ele>
        <time>2020-06-22T20:58:53Z</time>
      </trkpt>
      <trkpt lat="50.9032" lon="1.80014">
        <ele>21.1</ele>
        <time>2020-06-22T20:58:54Z</time>
      </trkpt>
      <trkpt lat="50.90325" lon="1.80022">
        <ele>20.8</ele>
        <time>2020-06-22T20:58:55Z</time>
      </trkpt>
      <trkpt lat="50.9033" lon="1.8003">
        <ele>20.6</ele>
        <time>2020-06-22T20:58:56Z</time>
      </trkpt>
      <trkpt lat="50.90335" lon="1.80038">
        <ele>20.3</ele>
        <time>2020-06-22T20:58:57Z</time>
      </trkpt>
      <trkpt lat="50.90341" lon="1.80045">
        <ele>20.1</ele>
        <time>2020-06-22T20:58:58Z</time>
      </trkpt>
      <trkpt lat="50.90346" lon="1.80053">
        <ele>19.8</ele>
        <time>2020-06-22T20:58:59Z</time>
      </trkpt>
      <trkpt lat="50.90352" lon="1.80061">
        <ele>19.6</ele>
        <time>2020-06-22T20:59:00Z</time>
      </trkpt>
      <trkpt lat="50.90357" lon="1.80069">
        <ele>19.3</ele>
        <time>2020-06-22T20:59:01Z</time>
      </trkpt>
      <trkpt lat="50.90363" lon="1.80076">
        <ele>19.1</ele>
        <time>2020-06-22T20:59:02Z</time>
      </trkpt>
      <trkpt lat="50.90369" lon="1.80082">
        <ele>18.8</ele>
        <time>2020-06-22T20:59:03Z</time>
      </trkpt>
      <trkpt lat="50.90375" lon="1.80089">
        <ele>18.6</ele>
        <time>2020-06-22T20:59:04Z</time>
      </trkpt>
      <trkpt lat="50.90381" lon="1.80094">
        <ele>18.3</ele>
        <time>2020-06-22T20:59:05Z</time>
      </trkpt>
      <trkpt lat="50.90388" lon="1.80099">
        <ele>18.1</ele>
        <time>2020-06-22T20:59:06Z</time>
      </trkpt>
      <trkpt lat="50.90394" lon="1.80104">
        <ele>17.8</ele>
        <time>2020-06-22T20:59:07Z</time>
      </trkpt>
      <trkpt lat="50.90401" lon="1.80109">
        <ele>17.6</ele>
        <time>2020-06-22T20:59:08Z</time>
      </trkpt>
      <trkpt lat="50.90407" lon="1.80114">
        <ele>17.4</ele>
        <time>2020-06-22T20:59:09Z</time>
      </trkpt>
      <trkpt lat="50.90414" lon="1.80119">
        <ele>17.2</ele>
        <time>2020-06-22T20:59:10Z</time>
      </trkpt>
      <trkpt lat="50.9042" lon="1.80124">
        <ele>17</ele>
        <time>2020-06-22T20:59:11Z</time>
      </trkpt>
      <trkpt lat="50.90426" lon="1.80129">
        <ele>16.8</ele>
        <time>2020-06-22T20:59:12Z</time>
      </trkpt>
      <trkpt lat="50.90433" lon="1.80134">
        <ele>16.6</ele>
        <time>2020-06-22T20:59:13Z</time>
      </trkpt>
      <trkpt lat="50.90439" lon="1.80139">
        <ele>16.4</ele>
        <time>2020-06-22T20:59:14Z</time>
      </trkpt>
      <trkpt lat="50.90446" lon="1.80143">
        <ele>16.2</ele>
        <time>2020-06-22T20:59:15Z</time>
      </trkpt>
      <trkpt lat="50.90452" lon="1.80147">
        <ele>16</ele>
        <time>2020-06-22T20:59:16Z</time>
      </trkpt>
      <trkpt lat="50.90459" lon="1.80151">
        <ele>15.7</ele>
        <time>2020-06-22T20:59:17Z</time>
      </trkpt>
      <trkpt lat="50.90465" lon="1.80155">
        <ele>15.5</ele>
        <time>2020-06-22T20:59:18Z</time>
      </trkpt>
      <trkpt lat="50.90471" lon="1.80159">
        <ele>15.3</ele>
        <time>2020-06-22T20:59:19Z</time>
      </trkpt>
      <trkpt lat="50.90477" lon="1.80163">
        <ele>15.1</ele>
        <time>2020-06-22T20:59:20Z</time>
      </trkpt>
      <trkpt lat="50.90484" lon="1.80167">
        <ele>14.9</ele>
        <time>2020-06-22T20:59:21Z</time>
      </trkpt>
      <trkpt lat="50.90489" lon="1.80172">
        <ele>14.6</ele>
        <time>2020-06-22T20:59:22Z</time>
      </trkpt>
      <trkpt lat="50.90496" lon="1.80177">
        <ele>14.4</ele>
        <time>2020-06-22T20:59:23Z</time>
      </trkpt>
      <trkpt lat="50.90502" lon="1.80181">
        <ele>14.2</ele>
        <time>2020-06-22T20:59:24Z</time>
      </trkpt>
      <trkpt lat="50.90508" lon="1.80187">
        <ele>14</ele>
        <time>2020-06-22T20:59:25Z</time>
      </trkpt>
      <trkpt lat="50.90513" lon="1.80193">
        <ele>13.8</ele>
        <time>2020-06-22T20:59:26Z</time>
      </trkpt>
      <trkpt lat="50.90519" lon="1.802">
        <ele>13.7</ele>
        <time>2020-06-22T20:59:27Z</time>
      </trkpt>
      <trkpt lat="50.90524" lon="1.80207">
        <ele>13.5</ele>
        <time>2020-06-22T20:59:28Z</time>
      </trkpt>
      <trkpt lat="50.90529" lon="1.80214">
        <ele>13.4</ele>
        <time>2020-06-22T20:59:29Z</time>
      </trkpt>
      <trkpt lat="50.90535" lon="1.80221">
        <ele>13.3</ele>
        <time>2020-06-22T20:59:30Z</time>
      </trkpt>
      <trkpt lat="50.9054" lon="1.80227">
        <ele>13.2</ele>
        <time>2020-06-22T20:59:31Z</time>
      </trkpt>
      <trkpt lat="50.90546" lon="1.80234">
        <ele>13.1</ele>
        <time>2020-06-22T20:59:32Z</time>
      </trkpt>
      <trkpt lat="50.90551" lon="1.80241">
        <ele>13</ele>
        <time>2020-06-22T20:59:33Z</time>
      </trkpt>
      <trkpt lat="50.90556" lon="1.80248">
        <ele>12.9</ele>
        <time>2020-06-22T20:59:34Z</time>
      </trkpt>
      <trkpt lat="50.90561" lon="1.80255">
        <ele>12.9</ele>
        <time>2020-06-22T20:59:35Z</time>
      </trkpt>
      <trkpt lat="50.90566" lon="1.80262">
        <ele>12.9</ele>
        <time>2020-06-22T20:59:36Z</time>
      </trkpt>
      <trkpt lat="50.90571" lon="1.80269">
        <ele>12.9</ele>
        <time>2020-06-22T20:59:37Z</time>
      </trkpt>
      <trkpt lat="50.90576" lon="1.80276">
        <ele>12.9</ele>
        <time>2020-06-22T20:59:38Z</time>
      </trkpt>
      <trkpt lat="50.9058" lon="1.80283">
        <ele>13</ele>
        <time>2020-06-22T20:59:39Z</time>
      </trkpt>
      <trkpt lat="50.90584" lon="1.80291">
        <ele>13</ele>
        <time>2020-06-22T20:59:40Z</time>
      </trkpt>
      <trkpt lat="50.90589" lon="1.80297">
        <ele>13.1</ele>
        <time>2020-06-22T20:59:41Z</time>
      </trkpt>
      <trkpt lat="50.90594" lon="1.80304">
        <ele>13.3</ele>
        <time>2020-06-22T20:59:42Z</time>
      </trkpt>
      <trkpt lat="50.90598" lon="1.80311">
        <ele>13.4</ele>
        <time>2020-06-22T20:59:43Z</time>
      </trkpt>
      <trkpt lat="50.90601" lon="1.80319">
        <ele>13.4</ele>
        <time>2020-06-22T20:59:44Z</time>
      </trkpt>
      <trkpt lat="50.90605" lon="1.80326">
        <ele>13.5</ele>
        <time>2020-06-22T20:59:45Z</time>
      </trkpt>
      <trkpt lat="50.90608" lon="1.80334">
        <ele>13.6</ele>
        <time>2020-06-22T20:59:46Z</time>
      </trkpt>
      <trkpt lat="50.90611" lon="1.80342">
        <ele>13.6</ele>
        <time>2020-06-22T20:59:47Z</time>
      </trkpt>
      <trkpt lat="50.90614" lon="1.8035">
        <ele>13.7</ele>
        <time>2020-06-22T20:59:48Z</time>
      </trkpt>
      <trkpt lat="50.90617" lon="1.80357">
        <ele>13.8</ele>
        <time>2020-06-22T20:59:49Z</time>
      </trkpt>
      <trkpt lat="50.90621" lon="1.80364">
        <ele>13.9</ele>
        <time>2020-06-22T20:59:50Z</time>
      </trkpt>
      <trkpt lat="50.90623" lon="1.80371">
        <ele>13.9</ele>
        <time>2020-06-22T20:59:51Z</time>
      </trkpt>
      <trkpt lat="50.90624" lon="1.80379">
        <ele>14</ele>
        <time>2020-06-22T20:59:52Z</time>
      </trkpt>
      <trkpt lat="50.90627" lon="1.80386">
        <ele>14.1</ele>
        <time>2020-06-22T20:59:53Z</time>
      </trkpt>
      <trkpt lat="50.90629" lon="1.80394">
        <ele>14.2</ele>
        <time>2020-06-22T20:59:54Z</time>
      </trkpt>
      <trkpt lat="50.90631" lon="1.80401">
        <ele>14.2</ele>
        <time>2020-06-22T20:59:55Z</time>
      </trkpt>
      <trkpt lat="50.90633" lon="1.80409">
        <ele>14.2</ele>
        <time>2020-06-22T20:59:56Z</time>
      </trkpt>
      <trkpt lat="50.90635" lon="1.80416">
        <ele>14.2</ele>
        <time>2020-06-22T20:59:57Z</time>
      </trkpt>
      <trkpt lat="50.90636" lon="1.80424">
        <ele>14.2</ele>
        <time>2020-06-22T20:59:58Z</time>
      </trkpt>
      <trkpt lat="50.90638" lon="1.80432">
        <ele>14.2</ele>
        <time>2020-06-22T20:59:59Z</time>
      </trkpt>
      <trkpt lat="50.9064" lon="1.8044">
        <ele>14.2</ele>
        <time>2020-06-22T21:00:00Z</time>
      </trkpt>
      <trkpt lat="50.90642" lon="1.80447">
        <ele>14.2</ele>
        <time>2020-06-22T21:00:01Z</time>
      </trkpt>
      <trkpt lat="50.90643" lon="1.80453">
        <ele>14.1</ele>
        <time>2020-06-22T21:00:02Z</time>
      </trkpt>
      <trkpt lat="50.90645" lon="1.80459">
        <ele>14.1</ele>
        <time>2020-06-22T21:00:03Z</time>
      </trkpt>
      <trkpt lat="50.90645" lon="1.80466">
        <ele>14</ele>
        <time>2020-06-22T21:00:04Z</time>
      </trkpt>
      <trkpt lat="50.90645" lon="1.80472">
        <ele>13.9</ele>
        <time>2020-06-22T21:00:05Z</time>
      </trkpt>
      <trkpt lat="50.90646" lon="1.80478">
        <ele>13.8</ele>
        <time>2020-06-22T21:00:06Z</time>
      </trkpt>
      <trkpt lat="50.90647" lon="1.80483">
        <ele>13.7</ele>
        <time>2020-06-22T21:00:07Z</time>
      </trkpt>
      <trkpt lat="50.90647" lon="1.80489">
        <ele>13.7</ele>
        <time>2020-06-22T21:00:08Z</time>
      </trkpt>
      <trkpt lat="50.90647" lon="1.80495">
        <ele>13.6</ele>
        <time>2020-06-22T21:00:09Z</time>
      </trkpt>
      <trkpt lat="50.90648" lon="1.80501">
        <ele>13.5</ele>
        <time>2020-06-22T21:00:10Z</time>
      </trkpt>
      <trkpt lat="50.90648" lon="1.80508">
        <ele>13.4</ele>
        <time>2020-06-22T21:00:11Z</time>
      </trkpt>
      <trkpt lat="50.90648" lon="1.80514">
        <ele>13.4</ele>
        <time>2020-06-22T21:00:12Z</time>
      </trkpt>
      <trkpt lat="50.90648" lon="1.8052">
        <ele>13.3</ele>
        <time>2020-06-22T21:00:13Z</time>
      </trkpt>
      <trkpt lat="50.90648" lon="1.80527">
        <ele>13.3</ele>
        <time>2020-06-22T21:00:14Z</time>
      </trkpt>
      <trkpt lat="50.90649" lon="1.80534">
        <ele>13.2</ele>
        <time>2020-06-22T21:00:15Z</time>
      </trkpt>
      <trkpt lat="50.9065" lon="1.80541">
        <ele>13.2</ele>
        <time>2020-06-22T21:00:16Z</time>
      </trkpt>
      <trkpt lat="50.90651" lon="1.80548">
        <ele>13.2</ele>
        <time>2020-06-22T21:00:17Z</time>
      </trkpt>
      <trkpt lat="50.90652" lon="1.80556">
        <ele>13.1</ele>
        <time>2020-06-22T21:00:18Z</time>
      </trkpt>
      <trkpt lat="50.90653" lon="1.80563">
        <ele>13.1</ele>
        <time>2020-06-22T21:00:19Z</time>
      </trkpt>
      <trkpt lat="50.90654" lon="1.8057">
        <ele>13.1</ele>
        <time>2020-06-22T21:00:20Z</time>
      </trkpt>
      <trkpt lat="50.90655" lon="1.80577">
        <ele>13.1</ele>
        <time>2020-06-22T21:00:21Z</time>
      </trkpt>
      <trkpt lat="50.90656" lon="1.80584">
        <ele>13.1</ele>
        <time>2020-06-22T21:00:22Z</time>
      </trkpt>
      <trkpt lat="50.90657" lon="1.80591">
        <ele>13.1</ele>
        <time>2020-06-22T21:00:23Z</time>
      </trkpt>
      <trkpt lat="50.90658" lon="1.80599">
        <ele>13.1</ele>
        <time>2020-06-22T21:00:24Z</time>
      </trkpt>
      <trkpt lat="50.90657" lon="1.80606">
        <ele>13.1</ele>
        <time>2020-06-22T21:00:25Z</time>
      </trkpt>
      <trkpt lat="50.90658" lon="1.80613">
        <ele>13.1</ele>
        <time>2020-06-22T21:00:26Z</time>
      </trkpt>
      <trkpt lat="50.90658" lon="1.80621">
        <ele>13.1</ele>
        <time>2020-06-22T21:00:27Z</time>
      </trkpt>
      <trkpt lat="50.90659" lon="1.80628">
        <ele>13.1</ele>
        <time>2020-06-22T21:00:28Z</time>
      </trkpt>
      <trkpt lat="50.90659" lon="1.80636">
        <ele>13.1</ele>
        <time>2020-06-22T21:00:29Z</time>
      </trkpt>
      <trkpt lat="50.90658" lon="1.80644">
        <ele>13.1</ele>
        <time>2020-06-22T21:00:30Z</time>
      </trkpt>
      <trkpt lat="50.90658" lon="1.80652">
        <ele>13.1</ele>
        <time>2020-06-22T21:00:31Z</time>
      </trkpt>
      <trkpt lat="50.90658" lon="1.80659">
        <ele>13.1</ele>
        <time>2020-06-22T21:00:32Z</time>
      </trkpt>
      <trkpt lat="50.90657" lon="1.80667">
        <ele>13.2</ele>
        <time>2020-06-22T21:00:33Z</time>
      </trkpt>
      <trkpt lat="50.90655" lon="1.80674">
        <ele>13.4</ele>
        <time>2020-06-22T21:00:34Z</time>
      </trkpt>
      <trkpt lat="50.90652" lon="1.8068">
        <ele>13.7</ele>
        <time>2020-06-22T21:00:35Z</time>
      </trkpt>
      <trkpt lat="50.9065" lon="1.80687">
        <ele>13.7</ele>
        <time>2020-06-22T21:00:36Z</time>
      </trkpt>
      <trkpt lat="50.90648" lon="1.80693">
        <ele>13.7</ele>
        <time>2020-06-22T21:00:37Z</time>
      </trkpt>
      <trkpt lat="50.90648" lon="1.807">
        <ele>13.7</ele>
        <time>2020-06-22T21:00:38Z</time>
      </trkpt>
      <trkpt lat="50.90648" lon="1.80707">
        <ele>13.7</ele>
        <time>2020-06-22T21:00:39Z</time>
      </trkpt>
      <trkpt lat="50.90649" lon="1.80713">
        <ele>13.7</ele>
        <time>2020-06-22T21:00:40Z</time>
      </trkpt>
      <trkpt lat="50.90652" lon="1.80718">
        <ele>13.7</ele>
        <time>2020-06-22T21:00:41Z</time>
      </trkpt>
      <trkpt lat="50.90656" lon="1.80722">
        <ele>13.6</ele>
        <time>2020-06-22T21:00:42Z</time>
      </trkpt>
      <trkpt lat="50.9066" lon="1.80725">
        <ele>13.6</ele>
        <time>2020-06-22T21:00:43Z</time>
      </trkpt>
      <trkpt lat="50.90665" lon="1.80728">
        <ele>14.3</ele>
        <time>2020-06-22T21:00:44Z</time>
      </trkpt>
      <trkpt lat="50.90668" lon="1.80733">
        <ele>14.1</ele>
        <time>2020-06-22T21:00:45Z</time>
      </trkpt>
      <trkpt lat="50.90672" lon="1.80738">
        <ele>14</ele>
        <time>2020-06-22T21:00:46Z</time>
      </trkpt>
      <trkpt lat="50.90675" lon="1.80744">
        <ele>13.8</ele>
        <time>2020-06-22T21:00:47Z</time>
      </trkpt>
      <trkpt lat="50.90679" lon="1.80748">
        <ele>13.6</ele>
        <time>2020-06-22T21:00:48Z</time>
      </trkpt>
      <trkpt lat="50.90682" lon="1.80754">
        <ele>13.5</ele>
        <time>2020-06-22T21:00:49Z</time>
      </trkpt>
      <trkpt lat="50.90683" lon="1.80761">
        <ele>13.4</ele>
        <time>2020-06-22T21:00:50Z</time>
      </trkpt>
      <trkpt lat="50.90685" lon="1.80768">
        <ele>13.2</ele>
        <time>2020-06-22T21:00:51Z</time>
      </trkpt>
      <trkpt lat="50.90688" lon="1.80775">
        <ele>13.1</ele>
        <time>2020-06-22T21:00:52Z</time>
      </trkpt>
      <trkpt lat="50.9069" lon="1.80781">
        <ele>12.9</ele>
        <time>2020-06-22T21:00:53Z</time>
      </trkpt>
      <trkpt lat="50.90693" lon="1.80787">
        <ele>12.8</ele>
        <time>2020-06-22T21:00:54Z</time>
      </trkpt>
      <trkpt lat="50.90695" lon="1.80795">
        <ele>12.9</ele>
        <time>2020-06-22T21:00:55Z</time>
      </trkpt>
      <trkpt lat="50.90697" lon="1.80803">
        <ele>12.9</ele>
        <time>2020-06-22T21:00:56Z</time>
      </trkpt>
      <trkpt lat="50.90698" lon="1.8081">
        <ele>13</ele>
        <time>2020-06-22T21:00:57Z</time>
      </trkpt>
      <trkpt lat="50.907" lon="1.80817">
        <ele>13</ele>
        <time>2020-06-22T21:00:58Z</time>
      </trkpt>
      <trkpt lat="50.90702" lon="1.80824">
        <ele>13.1</ele>
        <time>2020-06-22T21:00:59Z</time>
      </trkpt>
      <trkpt lat="50.90705" lon="1.80829">
        <ele>13.2</ele>
        <time>2020-06-22T21:01:00Z</time>
      </trkpt>
      <trkpt lat="50.90706" lon="1.80837">
        <ele>13.3</ele>
        <time>2020-06-22T21:01:01Z</time>
      </trkpt>
      <trkpt lat="50.90707" lon="1.80845">
        <ele>13.3</ele>
        <time>2020-06-22T21:01:02Z</time>
      </trkpt>
      <trkpt lat="50.90709" lon="1.80852">
        <ele>13.4</ele>
        <time>2020-06-22T21:01:03Z</time>
      </trkpt>
      <trkpt lat="50.90711" lon="1.8086">
        <ele>13.5</ele>
        <time>2020-06-22T21:01:04Z</time>
      </trkpt>
      <trkpt lat="50.90713" lon="1.80868">
        <ele>13.6</ele>
        <time>2020-06-22T21:01:05Z</time>
      </trkpt>
      <trkpt lat="50.90716" lon="1.80877">
        <ele>13.7</ele>
        <time>2020-06-22T21:01:06Z</time>
      </trkpt>
      <trkpt lat="50.90718" lon="1.80885">
        <ele>13.8</ele>
        <time>2020-06-22T21:01:07Z</time>
      </trkpt>
      <trkpt lat="50.90721" lon="1.80892">
        <ele>13.9</ele>
        <time>2020-06-22T21:01:08Z</time>
      </trkpt>
      <trkpt lat="50.90724" lon="1.809">
        <ele>13.9</ele>
        <time>2020-06-22T21:01:09Z</time>
      </trkpt>
      <trkpt lat="50.90726" lon="1.80908">
        <ele>14</ele>
        <time>2020-06-22T21:01:10Z</time>
      </trkpt>
      <trkpt lat="50.90728" lon="1.80916">
        <ele>14.1</ele>
        <time>2020-06-22T21:01:11Z</time>
      </trkpt>
      <trkpt lat="50.90731" lon="1.80923">
        <ele>14.1</ele>
        <time>2020-06-22T21:01:12Z</time>
      </trkpt>
      <trkpt lat="50.90732" lon="1.80931">
        <ele>14.2</ele>
        <time>2020-06-22T21:01:13Z</time>
      </trkpt>
      <trkpt lat="50.90734" lon="1.80939">
        <ele>14.3</ele>
        <time>2020-06-22T21:01:14Z</time>
      </trkpt>
      <trkpt lat="50.90737" lon="1.80946">
        <ele>14.4</ele>
        <time>2020-06-22T21:01:15Z</time>
      </trkpt>
      <trkpt lat="50.90739" lon="1.80953">
        <ele>14.5</ele>
        <time>2020-06-22T21:01:16Z</time>
      </trkpt>
      <trkpt lat="50.90741" lon="1.80959">
        <ele>14.6</ele>
        <time>2020-06-22T21:01:17Z</time>
      </trkpt>
      <trkpt lat="50.90741" lon="1.80966">
        <ele>14.7</ele>
        <time>2020-06-22T21:01:18Z</time>
      </trkpt>
      <trkpt lat="50.90743" lon="1.80971">
        <ele>14.8</ele>
        <time>2020-06-22T21:01:19Z</time>
      </trkpt>
      <trkpt lat="50.90745" lon="1.80977">
        <ele>14.8</ele>
        <time>2020-06-22T21:01:20Z</time>
      </trkpt>
      <trkpt lat="50.90746" lon="1.80983">
        <ele>14.9</ele>
        <time>2020-06-22T21:01:21Z</time>
      </trkpt>
      <trkpt lat="50.90748" lon="1.80989">
        <ele>15</ele>
        <time>2020-06-22T21:01:22Z</time>
      </trkpt>
      <trkpt lat="50.90749" lon="1.80995">
        <ele>15.2</ele>
        <time>2020-06-22T21:01:23Z</time>
      </trkpt>
      <trkpt lat="50.9075" lon="1.81002">
        <ele>15.3</ele>
        <time>2020-06-22T21:01:24Z</time>
      </trkpt>
      <trkpt lat="50.90751" lon="1.81007">
        <ele>15.4</ele>
        <time>2020-06-22T21:01:25Z</time>
      </trkpt>
      <trkpt lat="50.90753" lon="1.81012">
        <ele>15.5</ele>
        <time>2020-06-22T21:01:26Z</time>
      </trkpt>
      <trkpt lat="50.90755" lon="1.81017">
        <ele>15.6</ele>
        <time>2020-06-22T21:01:27Z</time>
      </trkpt>
      <trkpt lat="50.90756" lon="1.81022">
        <ele>15.7</ele>
        <time>2020-06-22T21:01:28Z</time>
      </trkpt>
      <trkpt lat="50.90758" lon="1.81027">
        <ele>15.8</ele>
        <time>2020-06-22T21:01:29Z</time>
      </trkpt>
      <trkpt lat="50.90758" lon="1.81032">
        <ele>15.9</ele>
        <time>2020-06-22T21:01:30Z</time>
      </trkpt>
      <trkpt lat="50.9076" lon="1.81037">
        <ele>16</ele>
        <time>2020-06-22T21:01:31Z</time>
      </trkpt>
      <trkpt lat="50.90762" lon="1.81041">
        <ele>16.1</ele>
        <time>2020-06-22T21:01:32Z</time>
      </trkpt>
      <trkpt lat="50.90763" lon="1.81044">
        <ele>16.2</ele>
        <time>2020-06-22T21:01:33Z</time>
      </trkpt>
      <trkpt lat="50.90766" lon="1.81047">
        <ele>16.3</ele>
        <time>2020-06-22T21:01:34Z</time>
      </trkpt>
      <trkpt lat="50.90769" lon="1.81049">
        <ele>15.9</ele>
        <time>2020-06-22T21:01:35Z</time>
      </trkpt>
      <trkpt lat="50.90771" lon="1.81051">
        <ele>15.8</ele>
        <time>2020-06-22T21:01:36Z</time>
      </trkpt>
      <trkpt lat="50.90774" lon="1.81052">
        <ele>15.7</ele>
        <time>2020-06-22T21:01:37Z</time>
      </trkpt>
      <trkpt lat="50.90778" lon="1.81051">
        <ele>15.6</ele>
        <time>2020-06-22T21:01:38Z</time>
      </trkpt>
      <trkpt lat="50.90781" lon="1.81049">
        <ele>15.5</ele>
        <time>2020-06-22T21:01:39Z</time>
      </trkpt>
      <trkpt lat="50.90784" lon="1.81045">
        <ele>15.4</ele>
        <time>2020-06-22T21:01:40Z</time>
      </trkpt>
      <trkpt lat="50.90786" lon="1.81043">
        <ele>15.2</ele>
        <time>2020-06-22T21:01:41Z</time>
      </trkpt>
      <trkpt lat="50.90789" lon="1.81043">
        <ele>15.1</ele>
        <time>2020-06-22T21:01:42Z</time>
      </trkpt>
      <trkpt lat="50.90792" lon="1.81041">
        <ele>15</ele>
        <time>2020-06-22T21:01:43Z</time>
      </trkpt>
      <trkpt lat="50.90796" lon="1.8104">
        <ele>14.8</ele>
        <time>2020-06-22T21:01:44Z</time>
      </trkpt>
      <trkpt lat="50.90799" lon="1.81039">
        <ele>14.7</ele>
        <time>2020-06-22T21:01:45Z</time>
      </trkpt>
      <trkpt lat="50.90803" lon="1.81038">
        <ele>14.5</ele>
        <time>2020-06-22T21:01:46Z</time>
      </trkpt>
      <trkpt lat="50.90806" lon="1.81036">
        <ele>14.4</ele>
        <time>2020-06-22T21:01:47Z</time>
      </trkpt>
      <trkpt lat="50.9081" lon="1.81034">
        <ele>14.4</ele>
        <time>2020-06-22T21:01:48Z</time>
      </trkpt>
      <trkpt lat="50.90814" lon="1.81032">
        <ele>14.3</ele>
        <time>2020-06-22T21:01:49Z</time>
      </trkpt>
      <trkpt lat="50.90818" lon="1.81031">
        <ele>14.2</ele>
        <time>2020-06-22T21:01:50Z</time>
      </trkpt>
      <trkpt lat="50.90822" lon="1.81031">
        <ele>14.1</ele>
        <time>2020-06-22T21:01:51Z</time>
      </trkpt>
      <trkpt lat="50.90827" lon="1.81032">
        <ele>14</ele>
        <time>2020-06-22T21:01:52Z</time>
      </trkpt>
      <trkpt lat="50.90832" lon="1.81033">
        <ele>13.9</ele>
        <time>2020-06-22T21:01:53Z</time>
      </trkpt>
      <trkpt lat="50.90837" lon="1.81034">
        <ele>13.7</ele>
        <time>2020-06-22T21:01:54Z</time>
      </trkpt>
      <trkpt lat="50.90842" lon="1.81035">
        <ele>13.5</ele>
        <time>2020-06-22T21:01:55Z</time>
      </trkpt>
      <trkpt lat="50.90847" lon="1.81037">
        <ele>13.4</ele>
        <time>2020-06-22T21:01:56Z</time>
      </trkpt>
      <trkpt lat="50.90852" lon="1.81037">
        <ele>13.2</ele>
        <time>2020-06-22T21:01:57Z</time>
      </trkpt>
      <trkpt lat="50.90857" lon="1.81037">
        <ele>13</ele>
        <time>2020-06-22T21:01:58Z</time>
      </trkpt>
      <trkpt lat="50.90863" lon="1.81038">
        <ele>12.9</ele>
        <time>2020-06-22T21:01:59Z</time>
      </trkpt>
      <trkpt lat="50.9087" lon="1.81039">
        <ele>12.7</ele>
        <time>2020-06-22T21:02:00Z</time>
      </trkpt>
      <trkpt lat="50.90877" lon="1.8104">
        <ele>12.5</ele>
        <time>2020-06-22T21:02:01Z</time>
      </trkpt>
      <trkpt lat="50.90883" lon="1.81041">
        <ele>12.4</ele>
        <time>2020-06-22T21:02:02Z</time>
      </trkpt>
      <trkpt lat="50.90891" lon="1.81043">
        <ele>12.3</ele>
        <time>2020-06-22T21:02:03Z</time>
      </trkpt>
      <trkpt lat="50.90897" lon="1.81044">
        <ele>12.3</ele>
        <time>2020-06-22T21:02:04Z</time>
      </trkpt>
      <trkpt lat="50.90904" lon="1.81047">
        <ele>12.2</ele>
        <time>2020-06-22T21:02:05Z</time>
      </trkpt>
      <trkpt lat="50.9091" lon="1.81048">
        <ele>12.1</ele>
        <time>2020-06-22T21:02:06Z</time>
      </trkpt>
      <trkpt lat="50.90916" lon="1.81049">
        <ele>12.1</ele>
        <time>2020-06-22T21:02:07Z</time>
      </trkpt>
      <trkpt lat="50.90922" lon="1.8105">
        <ele>12</ele>
        <time>2020-06-22T21:02:08Z</time>
      </trkpt>
      <trkpt lat="50.90928" lon="1.8105">
        <ele>12</ele>
        <time>2020-06-22T21:02:09Z</time>
      </trkpt>
      <trkpt lat="50.90933" lon="1.8105">
        <ele>12</ele>
        <time>2020-06-22T21:02:10Z</time>
      </trkpt>
      <trkpt lat="50.90939" lon="1.8105">
        <ele>12</ele>
        <time>2020-06-22T21:02:11Z</time>
      </trkpt>
      <trkpt lat="50.90944" lon="1.81052">
        <ele>12</ele>
        <time>2020-06-22T21:02:12Z</time>
      </trkpt>
      <trkpt lat="50.9095" lon="1.81054">
        <ele>12</ele>
        <time>2020-06-22T21:02:13Z</time>
      </trkpt>
      <trkpt lat="50.90956" lon="1.81056">
        <ele>12</ele>
        <time>2020-06-22T21:02:14Z</time>
      </trkpt>
      <trkpt lat="50.90962" lon="1.81056">
        <ele>11.9</ele>
        <time>2020-06-22T21:02:15Z</time>
      </trkpt>
      <trkpt lat="50.90968" lon="1.81056">
        <ele>11.9</ele>
        <time>2020-06-22T21:02:16Z</time>
      </trkpt>
      <trkpt lat="50.90973" lon="1.81056">
        <ele>12</ele>
        <time>2020-06-22T21:02:17Z</time>
      </trkpt>
      <trkpt lat="50.90979" lon="1.81058">
        <ele>12</ele>
        <time>2020-06-22T21:02:18Z</time>
      </trkpt>
      <trkpt lat="50.90985" lon="1.8106">
        <ele>12.1</ele>
        <time>2020-06-22T21:02:19Z</time>
      </trkpt>
      <trkpt lat="50.9099" lon="1.81061">
        <ele>12.1</ele>
        <time>2020-06-22T21:02:20Z</time>
      </trkpt>
      <trkpt lat="50.90996" lon="1.81063">
        <ele>12.2</ele>
        <time>2020-06-22T21:02:21Z</time>
      </trkpt>
      <trkpt lat="50.91002" lon="1.81064">
        <ele>12.3</ele>
        <time>2020-06-22T21:02:22Z</time>
      </trkpt>
      <trkpt lat="50.91008" lon="1.81065">
        <ele>12.4</ele>
        <time>2020-06-22T21:02:23Z</time>
      </trkpt>
      <trkpt lat="50.91014" lon="1.81067">
        <ele>12.4</ele>
        <time>2020-06-22T21:02:24Z</time>
      </trkpt>
      <trkpt lat="50.91019" lon="1.8107">
        <ele>12.5</ele>
        <time>2020-06-22T21:02:25Z</time>
      </trkpt>
      <trkpt lat="50.91025" lon="1.81072">
        <ele>12.6</ele>
        <time>2020-06-22T21:02:26Z</time>
      </trkpt>
      <trkpt lat="50.9103" lon="1.81073">
        <ele>12.7</ele>
        <time>2020-06-22T21:02:27Z</time>
      </trkpt>
      <trkpt lat="50.91035" lon="1.81076">
        <ele>12.8</ele>
        <time>2020-06-22T21:02:28Z</time>
      </trkpt>
      <trkpt lat="50.91039" lon="1.8108">
        <ele>12.8</ele>
        <time>2020-06-22T21:02:29Z</time>
      </trkpt>
      <trkpt lat="50.91044" lon="1.81085">
        <ele>12.9</ele>
        <time>2020-06-22T21:02:30Z</time>
      </trkpt>
      <trkpt lat="50.91049" lon="1.8109">
        <ele>12.9</ele>
        <time>2020-06-22T21:02:31Z</time>
      </trkpt>
      <trkpt lat="50.91054" lon="1.81094">
        <ele>12.9</ele>
        <time>2020-06-22T21:02:32Z</time>
      </trkpt>
      <trkpt lat="50.91059" lon="1.81099">
        <ele>13</ele>
        <time>2020-06-22T21:02:33Z</time>
      </trkpt>
      <trkpt lat="50.91063" lon="1.81103">
        <ele>13</ele>
        <time>2020-06-22T21:02:34Z</time>
      </trkpt>
      <trkpt lat="50.91068" lon="1.81109">
        <ele>13</ele>
        <time>2020-06-22T21:02:35Z</time>
      </trkpt>
      <trkpt lat="50.91073" lon="1.81114">
        <ele>13</ele>
        <time>2020-06-22T21:02:36Z</time>
      </trkpt>
      <trkpt lat="50.91077" lon="1.81119">
        <ele>13</ele>
        <time>2020-06-22T21:02:37Z</time>
      </trkpt>
      <trkpt lat="50.9108" lon="1.81125">
        <ele>13</ele>
        <time>2020-06-22T21:02:38Z</time>
      </trkpt>
      <trkpt lat="50.91083" lon="1.81132">
        <ele>13</ele>
        <time>2020-06-22T21:02:39Z</time>
      </trkpt>
      <trkpt lat="50.91087" lon="1.81138">
        <ele>12.9</ele>
        <time>2020-06-22T21:02:40Z</time>
      </trkpt>
      <trkpt lat="50.91091" lon="1.81144">
        <ele>12.8</ele>
        <time>2020-06-22T21:02:41Z</time>
      </trkpt>
      <trkpt lat="50.91094" lon="1.8115">
        <ele>12.8</ele>
        <time>2020-06-22T21:02:42Z</time>
      </trkpt>
      <trkpt lat="50.91095" lon="1.81158">
        <ele>12.7</ele>
        <time>2020-06-22T21:02:43Z</time>
      </trkpt>
      <trkpt lat="50.91098" lon="1.81165">
        <ele>12.6</ele>
        <time>2020-06-22T21:02:44Z</time>
      </trkpt>
      <trkpt lat="50.911" lon="1.81172">
        <ele>12.6</ele>
        <time>2020-06-22T21:02:45Z</time>
      </trkpt>
      <trkpt lat="50.91104" lon="1.81177">
        <ele>12.5</ele>
        <time>2020-06-22T21:02:46Z</time>
      </trkpt>
      <trkpt lat="50.91107" lon="1.81184">
        <ele>12.4</ele>
        <time>2020-06-22T21:02:47Z</time>
      </trkpt>
      <trkpt lat="50.9111" lon="1.81191">
        <ele>12.3</ele>
        <time>2020-06-22T21:02:48Z</time>
      </trkpt>
      <trkpt lat="50.91112" lon="1.81198">
        <ele>12.2</ele>
        <time>2020-06-22T21:02:49Z</time>
      </trkpt>
      <trkpt lat="50.91115" lon="1.81205">
        <ele>12.2</ele>
        <time>2020-06-22T21:02:50Z</time>
      </trkpt>
      <trkpt lat="50.91118" lon="1.81212">
        <ele>12.1</ele>
        <time>2020-06-22T21:02:51Z</time>
      </trkpt>
      <trkpt lat="50.9112" lon="1.81218">
        <ele>12</ele>
        <time>2020-06-22T21:02:52Z</time>
      </trkpt>
      <trkpt lat="50.91124" lon="1.81224">
        <ele>11.9</ele>
        <time>2020-06-22T21:02:53Z</time>
      </trkpt>
      <trkpt lat="50.91127" lon="1.8123">
        <ele>11.9</ele>
        <time>2020-06-22T21:02:54Z</time>
      </trkpt>
      <trkpt lat="50.9113" lon="1.81235">
        <ele>11.8</ele>
        <time>2020-06-22T21:02:55Z</time>
      </trkpt>
      <trkpt lat="50.91132" lon="1.81241">
        <ele>11.8</ele>
        <time>2020-06-22T21:02:56Z</time>
      </trkpt>
      <trkpt lat="50.91136" lon="1.81247">
        <ele>11.7</ele>
        <time>2020-06-22T21:02:57Z</time>
      </trkpt>
      <trkpt lat="50.91139" lon="1.81252">
        <ele>11.7</ele>
        <time>2020-06-22T21:02:58Z</time>
      </trkpt>
      <trkpt lat="50.91142" lon="1.81258">
        <ele>11.6</ele>
        <time>2020-06-22T21:02:59Z</time>
      </trkpt>
      <trkpt lat="50.91146" lon="1.81265">
        <ele>11.6</ele>
        <time>2020-06-22T21:03:00Z</time>
      </trkpt>
      <trkpt lat="50.91149" lon="1.81272">
        <ele>11.6</ele>
        <time>2020-06-22T21:03:01Z</time>
      </trkpt>
      <trkpt lat="50.91153" lon="1.81279">
        <ele>11.5</ele>
        <time>2020-06-22T21:03:02Z</time>
      </trkpt>
      <trkpt lat="50.91157" lon="1.81284">
        <ele>11.5</ele>
        <time>2020-06-22T21:03:03Z</time>
      </trkpt>
      <trkpt lat="50.91161" lon="1.81291">
        <ele>11.5</ele>
        <time>2020-06-22T21:03:04Z</time>
      </trkpt>
      <trkpt lat="50.91165" lon="1.81298">
        <ele>11.5</ele>
        <time>2020-06-22T21:03:05Z</time>
      </trkpt>
      <trkpt lat="50.91168" lon="1.81304">
        <ele>11.5</ele>
        <time>2020-06-22T21:03:06Z</time>
      </trkpt>
      <trkpt lat="50.91171" lon="1.81311">
        <ele>11.5</ele>
        <time>2020-06-22T21:03:07Z</time>
      </trkpt>
      <trkpt lat="50.91174" lon="1.81318">
        <ele>11.5</ele>
        <time>2020-06-22T21:03:08Z</time>
      </trkpt>
      <trkpt lat="50.91179" lon="1.81324">
        <ele>11.5</ele>
        <time>2020-06-22T21:03:09Z</time>
      </trkpt>
      <trkpt lat="50.91183" lon="1.8133">
        <ele>11.5</ele>
        <time>2020-06-22T21:03:10Z</time>
      </trkpt>
      <trkpt lat="50.91187" lon="1.81335">
        <ele>11.5</ele>
        <time>2020-06-22T21:03:11Z</time>
      </trkpt>
      <trkpt lat="50.9119" lon="1.81342">
        <ele>11.5</ele>
        <time>2020-06-22T21:03:12Z</time>
      </trkpt>
      <trkpt lat="50.91194" lon="1.81347">
        <ele>11.5</ele>
        <time>2020-06-22T21:03:13Z</time>
      </trkpt>
      <trkpt lat="50.91197" lon="1.81352">
        <ele>11.6</ele>
        <time>2020-06-22T21:03:14Z</time>
      </trkpt>
      <trkpt lat="50.91201" lon="1.81356">
        <ele>11.6</ele>
        <time>2020-06-22T21:03:15Z</time>
      </trkpt>
      <trkpt lat="50.91206" lon="1.81361">
        <ele>11.7</ele>
        <time>2020-06-22T21:03:16Z</time>
      </trkpt>
      <trkpt lat="50.91211" lon="1.81364">
        <ele>11.7</ele>
        <time>2020-06-22T21:03:17Z</time>
      </trkpt>
      <trkpt lat="50.91216" lon="1.81368">
        <ele>11.8</ele>
        <time>2020-06-22T21:03:18Z</time>
      </trkpt>
      <trkpt lat="50.9122" lon="1.81372">
        <ele>11.8</ele>
        <time>2020-06-22T21:03:19Z</time>
      </trkpt>
      <trkpt lat="50.91225" lon="1.81375">
        <ele>11.9</ele>
        <time>2020-06-22T21:03:20Z</time>
      </trkpt>
      <trkpt lat="50.9123" lon="1.81378">
        <ele>12</ele>
        <time>2020-06-22T21:03:21Z</time>
      </trkpt>
      <trkpt lat="50.91234" lon="1.8138">
        <ele>12</ele>
        <time>2020-06-22T21:03:22Z</time>
      </trkpt>
      <trkpt lat="50.91239" lon="1.81384">
        <ele>12</ele>
        <time>2020-06-22T21:03:23Z</time>
      </trkpt>
      <trkpt lat="50.91242" lon="1.81389">
        <ele>12</ele>
        <time>2020-06-22T21:03:24Z</time>
      </trkpt>
      <trkpt lat="50.91247" lon="1.81393">
        <ele>12</ele>
        <time>2020-06-22T21:03:25Z</time>
      </trkpt>
      <trkpt lat="50.91251" lon="1.81396">
        <ele>12</ele>
        <time>2020-06-22T21:03:26Z</time>
      </trkpt>
      <trkpt lat="50.91255" lon="1.814">
        <ele>12</ele>
        <time>2020-06-22T21:03:27Z</time>
      </trkpt>
      <trkpt lat="50.9126" lon="1.81403">
        <ele>11.9</ele>
        <time>2020-06-22T21:03:28Z</time>
      </trkpt>
      <trkpt lat="50.91263" lon="1.81406">
        <ele>11.8</ele>
        <time>2020-06-22T21:03:29Z</time>
      </trkpt>
      <trkpt lat="50.91266" lon="1.81411">
        <ele>11.7</ele>
        <time>2020-06-22T21:03:30Z</time>
      </trkpt>
      <trkpt lat="50.91269" lon="1.81416">
        <ele>11.6</ele>
        <time>2020-06-22T21:03:31Z</time>
      </trkpt>
      <trkpt lat="50.91271" lon="1.81421">
        <ele>11.5</ele>
        <time>2020-06-22T21:03:32Z</time>
      </trkpt>
      <trkpt lat="50.91273" lon="1.81426">
        <ele>11.4</ele>
        <time>2020-06-22T21:03:33Z</time>
      </trkpt>
      <trkpt lat="50.91275" lon="1.81431">
        <ele>11.3</ele>
        <time>2020-06-22T21:03:34Z</time>
      </trkpt>
      <trkpt lat="50.91278" lon="1.81437">
        <ele>11.2</ele>
        <time>2020-06-22T21:03:35Z</time>
      </trkpt>
      <trkpt lat="50.91281" lon="1.81442">
        <ele>11</ele>
        <time>2020-06-22T21:03:36Z</time>
      </trkpt>
      <trkpt lat="50.91284" lon="1.81447">
        <ele>10.9</ele>
        <time>2020-06-22T21:03:37Z</time>
      </trkpt>
      <trkpt lat="50.91287" lon="1.81453">
        <ele>10.7</ele>
        <time>2020-06-22T21:03:38Z</time>
      </trkpt>
      <trkpt lat="50.9129" lon="1.81459">
        <ele>10.5</ele>
        <time>2020-06-22T21:03:39Z</time>
      </trkpt>
      <trkpt lat="50.91292" lon="1.81466">
        <ele>10.3</ele>
        <time>2020-06-22T21:03:40Z</time>
      </trkpt>
      <trkpt lat="50.91295" lon="1.81474">
        <ele>10.1</ele>
        <time>2020-06-22T21:03:41Z</time>
      </trkpt>
      <trkpt lat="50.91298" lon="1.8148">
        <ele>9.8</ele>
        <time>2020-06-22T21:03:42Z</time>
      </trkpt>
      <trkpt lat="50.913" lon="1.81488">
        <ele>9.5</ele>
        <time>2020-06-22T21:03:43Z</time>
      </trkpt>
      <trkpt lat="50.91302" lon="1.81498">
        <ele>9.1</ele>
        <time>2020-06-22T21:03:44Z</time>
      </trkpt>
      <trkpt lat="50.91298" lon="1.81508">
        <ele>8.7</ele>
        <time>2020-06-22T21:03:45Z</time>
      </trkpt>
      <trkpt lat="50.91297" lon="1.81518">
        <ele>8.4</ele>
        <time>2020-06-22T21:03:46Z</time>
      </trkpt>
      <trkpt lat="50.91295" lon="1.81528">
        <ele>8</ele>
        <time>2020-06-22T21:03:47Z</time>
      </trkpt>
      <trkpt lat="50.91294" lon="1.81538">
        <ele>7.7</ele>
        <time>2020-06-22T21:03:48Z</time>
      </trkpt>
      <trkpt lat="50.91292" lon="1.81548">
        <ele>7.4</ele>
        <time>2020-06-22T21:03:49Z</time>
      </trkpt>
      <trkpt lat="50.9129" lon="1.81558">
        <ele>7.1</ele>
        <time>2020-06-22T21:03:50Z</time>
      </trkpt>
      <trkpt lat="50.91288" lon="1.81567">
        <ele>6.8</ele>
        <time>2020-06-22T21:03:51Z</time>
      </trkpt>
      <trkpt lat="50.91285" lon="1.81576">
        <ele>6.7</ele>
        <time>2020-06-22T21:03:52Z</time>
      </trkpt>
      <trkpt lat="50.91281" lon="1.81584">
        <ele>6.6</ele>
        <time>2020-06-22T21:03:53Z</time>
      </trkpt>
      <trkpt lat="50.91278" lon="1.81592">
        <ele>6.4</ele>
        <time>2020-06-22T21:03:54Z</time>
      </trkpt>
      <trkpt lat="50.91275" lon="1.81599">
        <ele>6.3</ele>
        <time>2020-06-22T21:03:55Z</time>
      </trkpt>
      <trkpt lat="50.91275" lon="1.81606">
        <ele>6.2</ele>
        <time>2020-06-22T21:03:56Z</time>
      </trkpt>
      <trkpt lat="50.91275" lon="1.81613">
        <ele>6.1</ele>
        <time>2020-06-22T21:03:57Z</time>
      </trkpt>
      <trkpt lat="50.91278" lon="1.81619">
        <ele>6.1</ele>
        <time>2020-06-22T21:03:58Z</time>
      </trkpt>
      <trkpt lat="50.91281" lon="1.81627">
        <ele>6</ele>
        <time>2020-06-22T21:03:59Z</time>
      </trkpt>
      <trkpt lat="50.91285" lon="1.81634">
        <ele>6</ele>
        <time>2020-06-22T21:04:00Z</time>
      </trkpt>
      <trkpt lat="50.91288" lon="1.81641">
        <ele>6</ele>
        <time>2020-06-22T21:04:01Z</time>
      </trkpt>
      <trkpt lat="50.91292" lon="1.81649">
        <ele>5.9</ele>
        <time>2020-06-22T21:04:02Z</time>
      </trkpt>
      <trkpt lat="50.91295" lon="1.81657">
        <ele>5.9</ele>
        <time>2020-06-22T21:04:03Z</time>
      </trkpt>
      <trkpt lat="50.91298" lon="1.81664">
        <ele>5.9</ele>
        <time>2020-06-22T21:04:04Z</time>
      </trkpt>
      <trkpt lat="50.91301" lon="1.81672">
        <ele>5.9</ele>
        <time>2020-06-22T21:04:05Z</time>
      </trkpt>
      <trkpt lat="50.91303" lon="1.81678">
        <ele>5.8</ele>
        <time>2020-06-22T21:04:06Z</time>
      </trkpt>
      <trkpt lat="50.91306" lon="1.81685">
        <ele>5.7</ele>
        <time>2020-06-22T21:04:07Z</time>
      </trkpt>
      <trkpt lat="50.91309" lon="1.81692">
        <ele>5.6</ele>
        <time>2020-06-22T21:04:08Z</time>
      </trkpt>
      <trkpt lat="50.91311" lon="1.817">
        <ele>5.5</ele>
        <time>2020-06-22T21:04:09Z</time>
      </trkpt>
      <trkpt lat="50.91312" lon="1.81709">
        <ele>5.4</ele>
        <time>2020-06-22T21:04:10Z</time>
      </trkpt>
      <trkpt lat="50.91314" lon="1.81718">
        <ele>5.4</ele>
        <time>2020-06-22T21:04:11Z</time>
      </trkpt>
      <trkpt lat="50.91317" lon="1.81725">
        <ele>5.3</ele>
        <time>2020-06-22T21:04:12Z</time>
      </trkpt>
      <trkpt lat="50.9132" lon="1.81733">
        <ele>5.3</ele>
        <time>2020-06-22T21:04:13Z</time>
      </trkpt>
      <trkpt lat="50.91323" lon="1.81739">
        <ele>5.2</ele>
        <time>2020-06-22T21:04:14Z</time>
      </trkpt>
      <trkpt lat="50.91326" lon="1.81746">
        <ele>5.2</ele>
        <time>2020-06-22T21:04:15Z</time>
      </trkpt>
      <trkpt lat="50.91327" lon="1.81753">
        <ele>5.1</ele>
        <time>2020-06-22T21:04:16Z</time>
      </trkpt>
      <trkpt lat="50.91329" lon="1.81759">
        <ele>5.1</ele>
        <time>2020-06-22T21:04:17Z</time>
      </trkpt>
      <trkpt lat="50.91331" lon="1.81766">
        <ele>5.1</ele>
        <time>2020-06-22T21:04:18Z</time>
      </trkpt>
      <trkpt lat="50.91333" lon="1.81773">
        <ele>5</ele>
        <time>2020-06-22T21:04:19Z</time>
      </trkpt>
      <trkpt lat="50.91335" lon="1.81781">
        <ele>5</ele>
        <time>2020-06-22T21:04:20Z</time>
      </trkpt>
      <trkpt lat="50.91337" lon="1.81788">
        <ele>4.9</ele>
        <time>2020-06-22T21:04:21Z</time>
      </trkpt>
      <trkpt lat="50.91339" lon="1.81796">
        <ele>4.9</ele>
        <time>2020-06-22T21:04:22Z</time>
      </trkpt>
      <trkpt lat="50.91342" lon="1.81803">
        <ele>4.9</ele>
        <time>2020-06-22T21:04:23Z</time>
      </trkpt>
      <trkpt lat="50.91344" lon="1.8181">
        <ele>4.9</ele>
        <time>2020-06-22T21:04:24Z</time>
      </trkpt>
      <trkpt lat="50.91346" lon="1.81818">
        <ele>4.8</ele>
        <time>2020-06-22T21:04:25Z</time>
      </trkpt>
      <trkpt lat="50.91348" lon="1.81825">
        <ele>4.8</ele>
        <time>2020-06-22T21:04:26Z</time>
      </trkpt>
      <trkpt lat="50.9135" lon="1.81834">
        <ele>4.8</ele>
        <time>2020-06-22T21:04:27Z</time>
      </trkpt>
      <trkpt lat="50.91352" lon="1.81842">
        <ele>4.8</ele>
        <time>2020-06-22T21:04:28Z</time>
      </trkpt>
      <trkpt lat="50.91355" lon="1.81849">
        <ele>4.8</ele>
        <time>2020-06-22T21:04:29Z</time>
      </trkpt>
      <trkpt lat="50.91358" lon="1.81857">
        <ele>4.8</ele>
        <time>2020-06-22T21:04:30Z</time>
      </trkpt>
      <trkpt lat="50.91359" lon="1.81865">
        <ele>4.8</ele>
        <time>2020-06-22T21:04:31Z</time>
      </trkpt>
      <trkpt lat="50.91362" lon="1.81873">
        <ele>4.8</ele>
        <time>2020-06-22T21:04:32Z</time>
      </trkpt>
      <trkpt lat="50.91364" lon="1.81881">
        <ele>4.7</ele>
        <time>2020-06-22T21:04:33Z</time>
      </trkpt>
      <trkpt lat="50.91366" lon="1.8189">
        <ele>4.7</ele>
        <time>2020-06-22T21:04:34Z</time>
      </trkpt>
      <trkpt lat="50.91368" lon="1.81898">
        <ele>4.7</ele>
        <time>2020-06-22T21:04:35Z</time>
      </trkpt>
      <trkpt lat="50.9137" lon="1.81906">
        <ele>4.6</ele>
        <time>2020-06-22T21:04:36Z</time>
      </trkpt>
      <trkpt lat="50.91373" lon="1.81913">
        <ele>4.6</ele>
        <time>2020-06-22T21:04:37Z</time>
      </trkpt>
      <trkpt lat="50.91375" lon="1.81921">
        <ele>4.5</ele>
        <time>2020-06-22T21:04:38Z</time>
      </trkpt>
      <trkpt lat="50.91378" lon="1.81927">
        <ele>4.5</ele>
        <time>2020-06-22T21:04:39Z</time>
      </trkpt>
      <trkpt lat="50.91381" lon="1.81934">
        <ele>4.5</ele>
        <time>2020-06-22T21:04:40Z</time>
      </trkpt>
      <trkpt lat="50.91384" lon="1.81941">
        <ele>4.5</ele>
        <time>2020-06-22T21:04:41Z</time>
      </trkpt>
      <trkpt lat="50.91388" lon="1.81947">
        <ele>4.4</ele>
        <time>2020-06-22T21:04:42Z</time>
      </trkpt>
      <trkpt lat="50.91393" lon="1.81954">
        <ele>4.4</ele>
        <time>2020-06-22T21:04:43Z</time>
      </trkpt>
      <trkpt lat="50.91397" lon="1.8196">
        <ele>4.4</ele>
        <time>2020-06-22T21:04:44Z</time>
      </trkpt>
      <trkpt lat="50.91401" lon="1.81966">
        <ele>4.3</ele>
        <time>2020-06-22T21:04:45Z</time>
      </trkpt>
      <trkpt lat="50.91406" lon="1.81972">
        <ele>4.3</ele>
        <time>2020-06-22T21:04:46Z</time>
      </trkpt>
      <trkpt lat="50.9141" lon="1.81978">
        <ele>4.3</ele>
        <time>2020-06-22T21:04:47Z</time>
      </trkpt>
      <trkpt lat="50.91414" lon="1.81984">
        <ele>4.3</ele>
        <time>2020-06-22T21:04:48Z</time>
      </trkpt>
      <trkpt lat="50.91417" lon="1.8199">
        <ele>4.3</ele>
        <time>2020-06-22T21:04:49Z</time>
      </trkpt>
      <trkpt lat="50.91421" lon="1.81997">
        <ele>4.3</ele>
        <time>2020-06-22T21:04:50Z</time>
      </trkpt>
      <trkpt lat="50.91425" lon="1.82003">
        <ele>4.3</ele>
        <time>2020-06-22T21:04:51Z</time>
      </trkpt>
      <trkpt lat="50.91428" lon="1.8201">
        <ele>4.3</ele>
        <time>2020-06-22T21:04:52Z</time>
      </trkpt>
      <trkpt lat="50.91432" lon="1.82017">
        <ele>4.3</ele>
        <time>2020-06-22T21:04:53Z</time>
      </trkpt>
      <trkpt lat="50.91435" lon="1.82024">
        <ele>4.3</ele>
        <time>2020-06-22T21:04:54Z</time>
      </trkpt>
      <trkpt lat="50.91439" lon="1.82031">
        <ele>4.3</ele>
        <time>2020-06-22T21:04:55Z</time>
      </trkpt>
      <trkpt lat="50.91443" lon="1.82037">
        <ele>4.3</ele>
        <time>2020-06-22T21:04:56Z</time>
      </trkpt>
      <trkpt lat="50.91447" lon="1.82044">
        <ele>4.3</ele>
        <time>2020-06-22T21:04:57Z</time>
      </trkpt>
      <trkpt lat="50.91451" lon="1.8205">
        <ele>4.3</ele>
        <time>2020-06-22T21:04:58Z</time>
      </trkpt>
      <trkpt lat="50.91455" lon="1.82056">
        <ele>4.2</ele>
        <time>2020-06-22T21:04:59Z</time>
      </trkpt>
      <trkpt lat="50.91459" lon="1.82062">
        <ele>4.2</ele>
        <time>2020-06-22T21:05:00Z</time>
      </trkpt>
      <trkpt lat="50.91462" lon="1.82069">
        <ele>4.1</ele>
        <time>2020-06-22T21:05:01Z</time>
      </trkpt>
      <trkpt lat="50.91466" lon="1.82077">
        <ele>4.1</ele>
        <time>2020-06-22T21:05:02Z</time>
      </trkpt>
      <trkpt lat="50.9147" lon="1.82083">
        <ele>4</ele>
        <time>2020-06-22T21:05:03Z</time>
      </trkpt>
      <trkpt lat="50.91474" lon="1.8209">
        <ele>4</ele>
        <time>2020-06-22T21:05:04Z</time>
      </trkpt>
      <trkpt lat="50.91478" lon="1.82096">
        <ele>3.9</ele>
        <time>2020-06-22T21:05:05Z</time>
      </trkpt>
      <trkpt lat="50.91482" lon="1.82103">
        <ele>3.9</ele>
        <time>2020-06-22T21:05:06Z</time>
      </trkpt>
      <trkpt lat="50.91487" lon="1.82109">
        <ele>3.8</ele>
        <time>2020-06-22T21:05:07Z</time>
      </trkpt>
      <trkpt lat="50.91491" lon="1.82115">
        <ele>3.8</ele>
        <time>2020-06-22T21:05:08Z</time>
      </trkpt>
      <trkpt lat="50.91495" lon="1.82122">
        <ele>3.8</ele>
        <time>2020-06-22T21:05:09Z</time>
      </trkpt>
      <trkpt lat="50.915" lon="1.82128">
        <ele>3.7</ele>
        <time>2020-06-22T21:05:10Z</time>
      </trkpt>
      <trkpt lat="50.91504" lon="1.82134">
        <ele>3.7</ele>
        <time>2020-06-22T21:05:11Z</time>
      </trkpt>
      <trkpt lat="50.91508" lon="1.8214">
        <ele>3.7</ele>
        <time>2020-06-22T21:05:12Z</time>
      </trkpt>
      <trkpt lat="50.91511" lon="1.82147">
        <ele>3.6</ele>
        <time>2020-06-22T21:05:13Z</time>
      </trkpt>
      <trkpt lat="50.91515" lon="1.82154">
        <ele>3.6</ele>
        <time>2020-06-22T21:05:14Z</time>
      </trkpt>
      <trkpt lat="50.9152" lon="1.8216">
        <ele>3.6</ele>
        <time>2020-06-22T21:05:15Z</time>
      </trkpt>
      <trkpt lat="50.91524" lon="1.82166">
        <ele>3.6</ele>
        <time>2020-06-22T21:05:16Z</time>
      </trkpt>
      <trkpt lat="50.91529" lon="1.82172">
        <ele>3.5</ele>
        <time>2020-06-22T21:05:17Z</time>
      </trkpt>
      <trkpt lat="50.91532" lon="1.82178">
        <ele>3.5</ele>
        <time>2020-06-22T21:05:18Z</time>
      </trkpt>
      <trkpt lat="50.91536" lon="1.82184">
        <ele>3.5</ele>
        <time>2020-06-22T21:05:19Z</time>
      </trkpt>
      <trkpt lat="50.91541" lon="1.82189">
        <ele>3.5</ele>
        <time>2020-06-22T21:05:20Z</time>
      </trkpt>
      <trkpt lat="50.91546" lon="1.82195">
        <ele>3.5</ele>
        <time>2020-06-22T21:05:21Z</time>
      </trkpt>
      <trkpt lat="50.91551" lon="1.82201">
        <ele>3.5</ele>
        <time>2020-06-22T21:05:22Z</time>
      </trkpt>
      <trkpt lat="50.91556" lon="1.82205">
        <ele>3.4</ele>
        <time>2020-06-22T21:05:23Z</time>
      </trkpt>
      <trkpt lat="50.91561" lon="1.82211">
        <ele>3.4</ele>
        <time>2020-06-22T21:05:24Z</time>
      </trkpt>
      <trkpt lat="50.91566" lon="1.82217">
        <ele>3.4</ele>
        <time>2020-06-22T21:05:25Z</time>
      </trkpt>
      <trkpt lat="50.91571" lon="1.82222">
        <ele>3.5</ele>
        <time>2020-06-22T21:05:26Z</time>
      </trkpt>
      <trkpt lat="50.91575" lon="1.82228">
        <ele>3.5</ele>
        <time>2020-06-22T21:05:27Z</time>
      </trkpt>
      <trkpt lat="50.9158" lon="1.82234">
        <ele>3.5</ele>
        <time>2020-06-22T21:05:28Z</time>
      </trkpt>
      <trkpt lat="50.91584" lon="1.82241">
        <ele>3.5</ele>
        <time>2020-06-22T21:05:29Z</time>
      </trkpt>
      <trkpt lat="50.91589" lon="1.82246">
        <ele>3.5</ele>
        <time>2020-06-22T21:05:30Z</time>
      </trkpt>
      <trkpt lat="50.91594" lon="1.82251">
        <ele>3.5</ele>
        <time>2020-06-22T21:05:31Z</time>
      </trkpt>
      <trkpt lat="50.91598" lon="1.82258">
        <ele>3.5</ele>
        <time>2020-06-22T21:05:32Z</time>
      </trkpt>
      <trkpt lat="50.91602" lon="1.82263">
        <ele>3.5</ele>
        <time>2020-06-22T21:05:33Z</time>
      </trkpt>
      <trkpt lat="50.91607" lon="1.82267">
        <ele>3.4</ele>
        <time>2020-06-22T21:05:34Z</time>
      </trkpt>
      <trkpt lat="50.91612" lon="1.82272">
        <ele>3.4</ele>
        <time>2020-06-22T21:05:35Z</time>
      </trkpt>
      <trkpt lat="50.91616" lon="1.82277">
        <ele>3.4</ele>
        <time>2020-06-22T21:05:36Z</time>
      </trkpt>
      <trkpt lat="50.9162" lon="1.82282">
        <ele>3.3</ele>
        <time>2020-06-22T21:05:37Z</time>
      </trkpt>
      <trkpt lat="50.91624" lon="1.82288">
        <ele>3.3</ele>
        <time>2020-06-22T21:05:38Z</time>
      </trkpt>
      <trkpt lat="50.91627" lon="1.82294">
        <ele>3.3</ele>
        <time>2020-06-22T21:05:39Z</time>
      </trkpt>
      <trkpt lat="50.91631" lon="1.82301">
        <ele>3.3</ele>
        <time>2020-06-22T21:05:40Z</time>
      </trkpt>
      <trkpt lat="50.91634" lon="1.82308">
        <ele>3.3</ele>
        <time>2020-06-22T21:05:41Z</time>
      </trkpt>
      <trkpt lat="50.91638" lon="1.82315">
        <ele>3.3</ele>
        <time>2020-06-22T21:05:42Z</time>
      </trkpt>
      <trkpt lat="50.9164" lon="1.82324">
        <ele>3.2</ele>
        <time>2020-06-22T21:05:43Z</time>
      </trkpt>
      <trkpt lat="50.91643" lon="1.82332">
        <ele>3.2</ele>
        <time>2020-06-22T21:05:44Z</time>
      </trkpt>
      <trkpt lat="50.91645" lon="1.82341">
        <ele>3.2</ele>
        <time>2020-06-22T21:05:45Z</time>
      </trkpt>
      <trkpt lat="50.91648" lon="1.82348">
        <ele>3.2</ele>
        <time>2020-06-22T21:05:46Z</time>
      </trkpt>
      <trkpt lat="50.91651" lon="1.82355">
        <ele>3.2</ele>
        <time>2020-06-22T21:05:47Z</time>
      </trkpt>
      <trkpt lat="50.91655" lon="1.82362">
        <ele>3.2</ele>
        <time>2020-06-22T21:05:48Z</time>
      </trkpt>
      <trkpt lat="50.91658" lon="1.82369">
        <ele>3.2</ele>
        <time>2020-06-22T21:05:49Z</time>
      </trkpt>
      <trkpt lat="50.91661" lon="1.82376">
        <ele>3.1</ele>
        <time>2020-06-22T21:05:50Z</time>
      </trkpt>
      <trkpt lat="50.91665" lon="1.82382">
        <ele>3.1</ele>
        <time>2020-06-22T21:05:51Z</time>
      </trkpt>
      <trkpt lat="50.91668" lon="1.82389">
        <ele>3.1</ele>
        <time>2020-06-22T21:05:52Z</time>
      </trkpt>
      <trkpt lat="50.91671" lon="1.82396">
        <ele>3.1</ele>
        <time>2020-06-22T21:05:53Z</time>
      </trkpt>
      <trkpt lat="50.91675" lon="1.82403">
        <ele>3.1</ele>
        <time>2020-06-22T21:05:54Z</time>
      </trkpt>
      <trkpt lat="50.91679" lon="1.82409">
        <ele>3.1</ele>
        <time>2020-06-22T21:05:55Z</time>
      </trkpt>
      <trkpt lat="50.91683" lon="1.82414">
        <ele>3.1</ele>
        <time>2020-06-22T21:05:56Z</time>
      </trkpt>
      <trkpt lat="50.91687" lon="1.82418">
        <ele>3</ele>
        <time>2020-06-22T21:05:57Z</time>
      </trkpt>
      <trkpt lat="50.91691" lon="1.8242">
        <ele>3</ele>
        <time>2020-06-22T21:05:58Z</time>
      </trkpt>
      <trkpt lat="50.91696" lon="1.82419">
        <ele>2.9</ele>
        <time>2020-06-22T21:05:59Z</time>
      </trkpt>
      <trkpt lat="50.91701" lon="1.82418">
        <ele>2.9</ele>
        <time>2020-06-22T21:06:00Z</time>
      </trkpt>
      <trkpt lat="50.91706" lon="1.82416">
        <ele>2.8</ele>
        <time>2020-06-22T21:06:01Z</time>
      </trkpt>
      <trkpt lat="50.91711" lon="1.82413">
        <ele>2.7</ele>
        <time>2020-06-22T21:06:02Z</time>
      </trkpt>
      <trkpt lat="50.91716" lon="1.82411">
        <ele>2.7</ele>
        <time>2020-06-22T21:06:03Z</time>
      </trkpt>
      <trkpt lat="50.91721" lon="1.82409">
        <ele>2.7</ele>
        <time>2020-06-22T21:06:04Z</time>
      </trkpt>
      <trkpt lat="50.91726" lon="1.82408">
        <ele>2.7</ele>
        <time>2020-06-22T21:06:05Z</time>
      </trkpt>
      <trkpt lat="50.91731" lon="1.82408">
        <ele>2.8</ele>
        <time>2020-06-22T21:06:06Z</time>
      </trkpt>
      <trkpt lat="50.91737" lon="1.82407">
        <ele>2.8</ele>
        <time>2020-06-22T21:06:07Z</time>
      </trkpt>
      <trkpt lat="50.91742" lon="1.82411">
        <ele>2.8</ele>
        <time>2020-06-22T21:06:08Z</time>
      </trkpt>
      <trkpt lat="50.91746" lon="1.82416">
        <ele>2.8</ele>
        <time>2020-06-22T21:06:09Z</time>
      </trkpt>
      <trkpt lat="50.9175" lon="1.82422">
        <ele>2.8</ele>
        <time>2020-06-22T21:06:10Z</time>
      </trkpt>
      <trkpt lat="50.91754" lon="1.82428">
        <ele>2.8</ele>
        <time>2020-06-22T21:06:11Z</time>
      </trkpt>
      <trkpt lat="50.91757" lon="1.82436">
        <ele>2.8</ele>
        <time>2020-06-22T21:06:12Z</time>
      </trkpt>
      <trkpt lat="50.9176" lon="1.82444">
        <ele>2.8</ele>
        <time>2020-06-22T21:06:13Z</time>
      </trkpt>
      <trkpt lat="50.91764" lon="1.8245">
        <ele>2.8</ele>
        <time>2020-06-22T21:06:14Z</time>
      </trkpt>
      <trkpt lat="50.91767" lon="1.82457">
        <ele>2.7</ele>
        <time>2020-06-22T21:06:15Z</time>
      </trkpt>
      <trkpt lat="50.91771" lon="1.82464">
        <ele>2.7</ele>
        <time>2020-06-22T21:06:16Z</time>
      </trkpt>
      <trkpt lat="50.91775" lon="1.8247">
        <ele>2.7</ele>
        <time>2020-06-22T21:06:17Z</time>
      </trkpt>
      <trkpt lat="50.9178" lon="1.82477">
        <ele>2.7</ele>
        <time>2020-06-22T21:06:18Z</time>
      </trkpt>
      <trkpt lat="50.91783" lon="1.82484">
        <ele>2.7</ele>
        <time>2020-06-22T21:06:19Z</time>
      </trkpt>
      <trkpt lat="50.91786" lon="1.82492">
        <ele>2.7</ele>
        <time>2020-06-22T21:06:20Z</time>
      </trkpt>
      <trkpt lat="50.91789" lon="1.82499">
        <ele>2.7</ele>
        <time>2020-06-22T21:06:21Z</time>
      </trkpt>
      <trkpt lat="50.91793" lon="1.82507">
        <ele>2.7</ele>
        <time>2020-06-22T21:06:22Z</time>
      </trkpt>
      <trkpt lat="50.91796" lon="1.82515">
        <ele>2.6</ele>
        <time>2020-06-22T21:06:23Z</time>
      </trkpt>
      <trkpt lat="50.91799" lon="1.82523">
        <ele>2.6</ele>
        <time>2020-06-22T21:06:24Z</time>
      </trkpt>
      <trkpt lat="50.91803" lon="1.82531">
        <ele>2.6</ele>
        <time>2020-06-22T21:06:25Z</time>
      </trkpt>
      <trkpt lat="50.91807" lon="1.82539">
        <ele>2.6</ele>
        <time>2020-06-22T21:06:26Z</time>
      </trkpt>
      <trkpt lat="50.91812" lon="1.82546">
        <ele>2.5</ele>
        <time>2020-06-22T21:06:27Z</time>
      </trkpt>
      <trkpt lat="50.91816" lon="1.82553">
        <ele>2.5</ele>
        <time>2020-06-22T21:06:28Z</time>
      </trkpt>
      <trkpt lat="50.9182" lon="1.82559">
        <ele>2.5</ele>
        <time>2020-06-22T21:06:29Z</time>
      </trkpt>
      <trkpt lat="50.91825" lon="1.82566">
        <ele>2.5</ele>
        <time>2020-06-22T21:06:30Z</time>
      </trkpt>
      <trkpt lat="50.91829" lon="1.82573">
        <ele>2.5</ele>
        <time>2020-06-22T21:06:31Z</time>
      </trkpt>
      <trkpt lat="50.91832" lon="1.82581">
        <ele>2.6</ele>
        <time>2020-06-22T21:06:32Z</time>
      </trkpt>
      <trkpt lat="50.91835" lon="1.82589">
        <ele>2.6</ele>
        <time>2020-06-22T21:06:33Z</time>
      </trkpt>
      <trkpt lat="50.91838" lon="1.82597">
        <ele>2.6</ele>
        <time>2020-06-22T21:06:34Z</time>
      </trkpt>
      <trkpt lat="50.91842" lon="1.82605">
        <ele>2.7</ele>
        <time>2020-06-22T21:06:35Z</time>
      </trkpt>
      <trkpt lat="50.91846" lon="1.82612">
        <ele>2.7</ele>
        <time>2020-06-22T21:06:36Z</time>
      </trkpt>
      <trkpt lat="50.91851" lon="1.82618">
        <ele>2.8</ele>
        <time>2020-06-22T21:06:37Z</time>
      </trkpt>
      <trkpt lat="50.91856" lon="1.82623">
        <ele>2.9</ele>
        <time>2020-06-22T21:06:38Z</time>
      </trkpt>
      <trkpt lat="50.9186" lon="1.82629">
        <ele>2.9</ele>
        <time>2020-06-22T21:06:39Z</time>
      </trkpt>
      <trkpt lat="50.91864" lon="1.82635">
        <ele>2.9</ele>
        <time>2020-06-22T21:06:40Z</time>
      </trkpt>
      <trkpt lat="50.91868" lon="1.82641">
        <ele>3</ele>
        <time>2020-06-22T21:06:41Z</time>
      </trkpt>
      <trkpt lat="50.91873" lon="1.82647">
        <ele>3</ele>
        <time>2020-06-22T21:06:42Z</time>
      </trkpt>
      <trkpt lat="50.91878" lon="1.82652">
        <ele>2.9</ele>
        <time>2020-06-22T21:06:43Z</time>
      </trkpt>
      <trkpt lat="50.91882" lon="1.82657">
        <ele>2.9</ele>
        <time>2020-06-22T21:06:44Z</time>
      </trkpt>
      <trkpt lat="50.91887" lon="1.82663">
        <ele>2.8</ele>
        <time>2020-06-22T21:06:45Z</time>
      </trkpt>
      <trkpt lat="50.91892" lon="1.82669">
        <ele>2.8</ele>
        <time>2020-06-22T21:06:46Z</time>
      </trkpt>
      <trkpt lat="50.91897" lon="1.82675">
        <ele>2.6</ele>
        <time>2020-06-22T21:06:47Z</time>
      </trkpt>
      <trkpt lat="50.91903" lon="1.8268">
        <ele>2.5</ele>
        <time>2020-06-22T21:06:48Z</time>
      </trkpt>
      <trkpt lat="50.9191" lon="1.82684">
        <ele>2.4</ele>
        <time>2020-06-22T21:06:49Z</time>
      </trkpt>
      <trkpt lat="50.91916" lon="1.8269">
        <ele>2.2</ele>
        <time>2020-06-22T21:06:50Z</time>
      </trkpt>
      <trkpt lat="50.91922" lon="1.82696">
        <ele>2.1</ele>
        <time>2020-06-22T21:06:51Z</time>
      </trkpt>
      <trkpt lat="50.91929" lon="1.82703">
        <ele>2.1</ele>
        <time>2020-06-22T21:06:52Z</time>
      </trkpt>
      <trkpt lat="50.91935" lon="1.8271">
        <ele>2</ele>
        <time>2020-06-22T21:06:53Z</time>
      </trkpt>
      <trkpt lat="50.91941" lon="1.82716">
        <ele>1.9</ele>
        <time>2020-06-22T21:06:54Z</time>
      </trkpt>
      <trkpt lat="50.91947" lon="1.82722">
        <ele>1.8</ele>
        <time>2020-06-22T21:06:55Z</time>
      </trkpt>
      <trkpt lat="50.91953" lon="1.82729">
        <ele>1.7</ele>
        <time>2020-06-22T21:06:56Z</time>
      </trkpt>
      <trkpt lat="50.91959" lon="1.82735">
        <ele>1.6</ele>
        <time>2020-06-22T21:06:57Z</time>
      </trkpt>
      <trkpt lat="50.91966" lon="1.82741">
        <ele>1.5</ele>
        <time>2020-06-22T21:06:58Z</time>
      </trkpt>
      <trkpt lat="50.91972" lon="1.82748">
        <ele>1.4</ele>
        <time>2020-06-22T21:06:59Z</time>
      </trkpt>
      <trkpt lat="50.91978" lon="1.82754">
        <ele>1.3</ele>
        <time>2020-06-22T21:07:00Z</time>
      </trkpt>
      <trkpt lat="50.91985" lon="1.8276">
        <ele>1.3</ele>
        <time>2020-06-22T21:07:01Z</time>
      </trkpt>
      <trkpt lat="50.91991" lon="1.82766">
        <ele>1.2</ele>
        <time>2020-06-22T21:07:02Z</time>
      </trkpt>
      <trkpt lat="50.91997" lon="1.82772">
        <ele>1.1</ele>
        <time>2020-06-22T21:07:03Z</time>
      </trkpt>
      <trkpt lat="50.92003" lon="1.82779">
        <ele>1.1</ele>
        <time>2020-06-22T21:07:04Z</time>
      </trkpt>
      <trkpt lat="50.92009" lon="1.82786">
        <ele>1</ele>
        <time>2020-06-22T21:07:05Z</time>
      </trkpt>
      <trkpt lat="50.92014" lon="1.82793">
        <ele>1</ele>
        <time>2020-06-22T21:07:06Z</time>
      </trkpt>
      <trkpt lat="50.9202" lon="1.828">
        <ele>1</ele>
        <time>2020-06-22T21:07:07Z</time>
      </trkpt>
      <trkpt lat="50.92026" lon="1.82806">
        <ele>0.9</ele>
        <time>2020-06-22T21:07:08Z</time>
      </trkpt>
      <trkpt lat="50.92032" lon="1.82813">
        <ele>0.9</ele>
        <time>2020-06-22T21:07:09Z</time>
      </trkpt>
      <trkpt lat="50.92038" lon="1.82818">
        <ele>0.9</ele>
        <time>2020-06-22T21:07:10Z</time>
      </trkpt>
      <trkpt lat="50.92044" lon="1.82824">
        <ele>0.9</ele>
        <time>2020-06-22T21:07:11Z</time>
      </trkpt>
      <trkpt lat="50.92049" lon="1.82829">
        <ele>0.9</ele>
        <time>2020-06-22T21:07:12Z</time>
      </trkpt>
      <trkpt lat="50.92055" lon="1.82835">
        <ele>0.9</ele>
        <time>2020-06-22T21:07:13Z</time>
      </trkpt>
      <trkpt lat="50.92059" lon="1.82841">
        <ele>0.9</ele>
        <time>2020-06-22T21:07:14Z</time>
      </trkpt>
      <trkpt lat="50.92065" lon="1.82846">
        <ele>0.9</ele>
        <time>2020-06-22T21:07:15Z</time>
      </trkpt>
      <trkpt lat="50.9207" lon="1.82853">
        <ele>1</ele>
        <time>2020-06-22T21:07:16Z</time>
      </trkpt>
      <trkpt lat="50.92075" lon="1.82859">
        <ele>1</ele>
        <time>2020-06-22T21:07:17Z</time>
      </trkpt>
      <trkpt lat="50.9208" lon="1.82863">
        <ele>1</ele>
        <time>2020-06-22T21:07:18Z</time>
      </trkpt>
      <trkpt lat="50.92085" lon="1.82868">
        <ele>1</ele>
        <time>2020-06-22T21:07:19Z</time>
      </trkpt>
      <trkpt lat="50.9209" lon="1.82873">
        <ele>1</ele>
        <time>2020-06-22T21:07:20Z</time>
      </trkpt>
      <trkpt lat="50.92095" lon="1.82879">
        <ele>1</ele>
        <time>2020-06-22T21:07:21Z</time>
      </trkpt>
      <trkpt lat="50.921" lon="1.82884">
        <ele>0.9</ele>
        <time>2020-06-22T21:07:22Z</time>
      </trkpt>
      <trkpt lat="50.92104" lon="1.8289">
        <ele>0.9</ele>
        <time>2020-06-22T21:07:23Z</time>
      </trkpt>
      <trkpt lat="50.92109" lon="1.82897">
        <ele>0.8</ele>
        <time>2020-06-22T21:07:24Z</time>
      </trkpt>
      <trkpt lat="50.92114" lon="1.82903">
        <ele>0.8</ele>
        <time>2020-06-22T21:07:25Z</time>
      </trkpt>
      <trkpt lat="50.92118" lon="1.82908">
        <ele>0.7</ele>
        <time>2020-06-22T21:07:26Z</time>
      </trkpt>
      <trkpt lat="50.92123" lon="1.82915">
        <ele>0.7</ele>
        <time>2020-06-22T21:07:27Z</time>
      </trkpt>
      <trkpt lat="50.92128" lon="1.82922">
        <ele>0.7</ele>
        <time>2020-06-22T21:07:28Z</time>
      </trkpt>
      <trkpt lat="50.92133" lon="1.82927">
        <ele>0.7</ele>
        <time>2020-06-22T21:07:29Z</time>
      </trkpt>
      <trkpt lat="50.92137" lon="1.82933">
        <ele>0.7</ele>
        <time>2020-06-22T21:07:30Z</time>
      </trkpt>
      <trkpt lat="50.92142" lon="1.8294">
        <ele>0.7</ele>
        <time>2020-06-22T21:07:31Z</time>
      </trkpt>
      <trkpt lat="50.92146" lon="1.82947">
        <ele>0.7</ele>
        <time>2020-06-22T21:07:32Z</time>
      </trkpt>
      <trkpt lat="50.92151" lon="1.82954">
        <ele>0.7</ele>
        <time>2020-06-22T21:07:33Z</time>
      </trkpt>
      <trkpt lat="50.92156" lon="1.8296">
        <ele>0.7</ele>
        <time>2020-06-22T21:07:34Z</time>
      </trkpt>
      <trkpt lat="50.92161" lon="1.82965">
        <ele>0.7</ele>
        <time>2020-06-22T21:07:35Z</time>
      </trkpt>
      <trkpt lat="50.92166" lon="1.82971">
        <ele>0.7</ele>
        <time>2020-06-22T21:07:36Z</time>
      </trkpt>
      <trkpt lat="50.9217" lon="1.82977">
        <ele>0.8</ele>
        <time>2020-06-22T21:07:37Z</time>
      </trkpt>
      <trkpt lat="50.92175" lon="1.82983">
        <ele>0.7</ele>
        <time>2020-06-22T21:07:38Z</time>
      </trkpt>
      <trkpt lat="50.92179" lon="1.82989">
        <ele>0.7</ele>
        <time>2020-06-22T21:07:39Z</time>
      </trkpt>
      <trkpt lat="50.92183" lon="1.82995">
        <ele>0.6</ele>
        <time>2020-06-22T21:07:40Z</time>
      </trkpt>
      <trkpt lat="50.92188" lon="1.83002">
        <ele>0.6</ele>
        <time>2020-06-22T21:07:41Z</time>
      </trkpt>
      <trkpt lat="50.92192" lon="1.83009">
        <ele>0.5</ele>
        <time>2020-06-22T21:07:42Z</time>
      </trkpt>
      <trkpt lat="50.92196" lon="1.83016">
        <ele>0.5</ele>
        <time>2020-06-22T21:07:43Z</time>
      </trkpt>
      <trkpt lat="50.92198" lon="1.83026">
        <ele>0.4</ele>
        <time>2020-06-22T21:07:44Z</time>
      </trkpt>
      <trkpt lat="50.92201" lon="1.83034">
        <ele>0.4</ele>
        <time>2020-06-22T21:07:45Z</time>
      </trkpt>
      <trkpt lat="50.92203" lon="1.83044">
        <ele>0.3</ele>
        <time>2020-06-22T21:07:46Z</time>
      </trkpt>
      <trkpt lat="50.92204" lon="1.83053">
        <ele>0.3</ele>
        <time>2020-06-22T21:07:47Z</time>
      </trkpt>
      <trkpt lat="50.92205" lon="1.83064">
        <ele>0.2</ele>
        <time>2020-06-22T21:07:48Z</time>
      </trkpt>
      <trkpt lat="50.92206" lon="1.83074">
        <ele>0.2</ele>
        <time>2020-06-22T21:07:49Z</time>
      </trkpt>
      <trkpt lat="50.92208" lon="1.83083">
        <ele>0.2</ele>
        <time>2020-06-22T21:07:50Z</time>
      </trkpt>
      <trkpt lat="50.9221" lon="1.83093">
        <ele>0.1</ele>
        <time>2020-06-22T21:07:51Z</time>
      </trkpt>
      <trkpt lat="50.92211" lon="1.83103">
        <ele>0.1</ele>
        <time>2020-06-22T21:07:52Z</time>
      </trkpt>
      <trkpt lat="50.92213" lon="1.83112">
        <ele>0.1</ele>
        <time>2020-06-22T21:07:53Z</time>
      </trkpt>
      <trkpt lat="50.92215" lon="1.83121">
        <ele>0.1</ele>
        <time>2020-06-22T21:07:54Z</time>
      </trkpt>
      <trkpt lat="50.92218" lon="1.83128">
        <ele>0.1</ele>
        <time>2020-06-22T21:07:55Z</time>
      </trkpt>
      <trkpt lat="50.92221" lon="1.83136">
        <ele>0.1</ele>
        <time>2020-06-22T21:07:56Z</time>
      </trkpt>
      <trkpt lat="50.92223" lon="1.83144">
        <ele>0.1</ele>
        <time>2020-06-22T21:07:57Z</time>
      </trkpt>
      <trkpt lat="50.92224" lon="1.83153">
        <time>2020-06-22T21:07:58Z</time>
      </trkpt>
      <trkpt lat="50.92225" lon="1.83162">
        <time>2020-06-22T21:07:59Z</time>
      </trkpt>
      <trkpt lat="50.92227" lon="1.83171">
        <ele>1</ele>
        <time>2020-06-22T21:08:00Z</time>
      </trkpt>
      <trkpt lat="50.92229" lon="1.83181">
        <ele>1</ele>
        <time>2020-06-22T21:08:01Z</time>
      </trkpt>
      <trkpt lat="50.92232" lon="1.8319">
        <ele>-0.1</ele>
        <time>2020-06-22T21:08:02Z</time>
      </trkpt>
      <trkpt lat="50.92234" lon="1.83199">
        <ele>-0.1</ele>
        <time>2020-06-22T21:08:03Z</time>
      </trkpt>
      <trkpt lat="50.92235" lon="1.83209">
        <ele>-0.2</ele>
        <time>2020-06-22T21:08:04Z</time>
      </trkpt>
      <trkpt lat="50.92236" lon="1.83218">
        <ele>-0.2</ele>
        <time>2020-06-22T21:08:05Z</time>
      </trkpt>
      <trkpt lat="50.92238" lon="1.83228">
        <ele>-0.2</ele>
        <time>2020-06-22T21:08:06Z</time>
      </trkpt>
      <trkpt lat="50.92239" lon="1.83237">
        <ele>-0.2</ele>
        <time>2020-06-22T21:08:07Z</time>
      </trkpt>
      <trkpt lat="50.92241" lon="1.83246">
        <ele>-0.2</ele>
        <time>2020-06-22T21:08:08Z</time>
      </trkpt>
      <trkpt lat="50.92242" lon="1.83256">
        <ele>-0.2</ele>
        <time>2020-06-22T21:08:09Z</time>
      </trkpt>
      <trkpt lat="50.92244" lon="1.83266">
        <ele>-0.2</ele>
        <time>2020-06-22T21:08:10Z</time>
      </trkpt>
      <trkpt lat="50.92246" lon="1.83275">
        <ele>-0.2</ele>
        <time>2020-06-22T21:08:11Z</time>
      </trkpt>
      <trkpt lat="50.92248" lon="1.83284">
        <ele>-0.2</ele>
        <time>2020-06-22T21:08:12Z</time>
      </trkpt>
      <trkpt lat="50.9225" lon="1.83292">
        <ele>-0.1</ele>
        <time>2020-06-22T21:08:13Z</time>
      </trkpt>
      <trkpt lat="50.92253" lon="1.83301">
        <ele>1</ele>
        <time>2020-06-22T21:08:14Z</time>
      </trkpt>
      <trkpt lat="50.92255" lon="1.83309">
        <ele>1</ele>
        <time>2020-06-22T21:08:15Z</time>
      </trkpt>
      <trkpt lat="50.92258" lon="1.83318">
        <ele>0.1</ele>
        <time>2020-06-22T21:08:16Z</time>
      </trkpt>
      <trkpt lat="50.92262" lon="1.83325">
        <ele>0.1</ele>
        <time>2020-06-22T21:08:17Z</time>
      </trkpt>
      <trkpt lat="50.92266" lon="1.83333">
        <ele>0.1</ele>
        <time>2020-06-22T21:08:18Z</time>
      </trkpt>
      <trkpt lat="50.92269" lon="1.83341">
        <ele>0.1</ele>
        <time>2020-06-22T21:08:19Z</time>
      </trkpt>
      <trkpt lat="50.92272" lon="1.83349">
        <ele>0.1</ele>
        <time>2020-06-22T21:08:20Z</time>
      </trkpt>
      <trkpt lat="50.92276" lon="1.83356">
        <ele>0.1</ele>
        <time>2020-06-22T21:08:21Z</time>
      </trkpt>
      <trkpt lat="50.9228" lon="1.83364">
        <ele>0.2</ele>
        <time>2020-06-22T21:08:22Z</time>
      </trkpt>
      <trkpt lat="50.92283" lon="1.83372">
        <ele>0.2</ele>
        <time>2020-06-22T21:08:23Z</time>
      </trkpt>
      <trkpt lat="50.92287" lon="1.83379">
        <ele>0.2</ele>
        <time>2020-06-22T21:08:24Z</time>
      </trkpt>
      <trkpt lat="50.9229" lon="1.83387">
        <ele>0.2</ele>
        <time>2020-06-22T21:08:25Z</time>
      </trkpt>
      <trkpt lat="50.92294" lon="1.83395">
        <ele>0.2</ele>
        <time>2020-06-22T21:08:26Z</time>
      </trkpt>
      <trkpt lat="50.92298" lon="1.83403">
        <ele>0.1</ele>
        <time>2020-06-22T21:08:27Z</time>
      </trkpt>
      <trkpt lat="50.92301" lon="1.83411">
        <ele>0.1</ele>
        <time>2020-06-22T21:08:28Z</time>
      </trkpt>
      <trkpt lat="50.92306" lon="1.83419">
        <ele>0.1</ele>
        <time>2020-06-22T21:08:29Z</time>
      </trkpt>
      <trkpt lat="50.92309" lon="1.83427">
        <ele>0.1</ele>
        <time>2020-06-22T21:08:30Z</time>
      </trkpt>
      <trkpt lat="50.92312" lon="1.83435">
        <ele>0.1</ele>
        <time>2020-06-22T21:08:31Z</time>
      </trkpt>
      <trkpt lat="50.92316" lon="1.83442">
        <ele>0.2</ele>
        <time>2020-06-22T21:08:32Z</time>
      </trkpt>
      <trkpt lat="50.92318" lon="1.83451">
        <ele>0.2</ele>
        <time>2020-06-22T21:08:33Z</time>
      </trkpt>
      <trkpt lat="50.92321" lon="1.83459">
        <ele>0.3</ele>
        <time>2020-06-22T21:08:34Z</time>
      </trkpt>
      <trkpt lat="50.92324" lon="1.83468">
        <ele>0.3</ele>
        <time>2020-06-22T21:08:35Z</time>
      </trkpt>
      <trkpt lat="50.92327" lon="1.83476">
        <ele>0.3</ele>
        <time>2020-06-22T21:08:36Z</time>
      </trkpt>
      <trkpt lat="50.92331" lon="1.83483">
        <ele>0.3</ele>
        <time>2020-06-22T21:08:37Z</time>
      </trkpt>
      <trkpt lat="50.92336" lon="1.8349">
        <ele>0.4</ele>
        <time>2020-06-22T21:08:38Z</time>
      </trkpt>
      <trkpt lat="50.9234" lon="1.83497">
        <ele>0.4</ele>
        <time>2020-06-22T21:08:39Z</time>
      </trkpt>
      <trkpt lat="50.92345" lon="1.83506">
        <ele>0.4</ele>
        <time>2020-06-22T21:08:40Z</time>
      </trkpt>
      <trkpt lat="50.92348" lon="1.83513">
        <ele>0.4</ele>
        <time>2020-06-22T21:08:41Z</time>
      </trkpt>
      <trkpt lat="50.9235" lon="1.8352">
        <ele>0.5</ele>
        <time>2020-06-22T21:08:42Z</time>
      </trkpt>
      <trkpt lat="50.92354" lon="1.83527">
        <ele>0.5</ele>
        <time>2020-06-22T21:08:43Z</time>
      </trkpt>
      <trkpt lat="50.92357" lon="1.83533">
        <ele>0.5</ele>
        <time>2020-06-22T21:08:44Z</time>
      </trkpt>
      <trkpt lat="50.9236" lon="1.83541">
        <ele>0.5</ele>
        <time>2020-06-22T21:08:45Z</time>
      </trkpt>
      <trkpt lat="50.92363" lon="1.83547">
        <ele>0.6</ele>
        <time>2020-06-22T21:08:46Z</time>
      </trkpt>
      <trkpt lat="50.92366" lon="1.83554">
        <ele>0.6</ele>
        <time>2020-06-22T21:08:47Z</time>
      </trkpt>
      <trkpt lat="50.9237" lon="1.8356">
        <ele>0.7</ele>
        <time>2020-06-22T21:08:48Z</time>
      </trkpt>
      <trkpt lat="50.92373" lon="1.83566">
        <ele>0.8</ele>
        <time>2020-06-22T21:08:49Z</time>
      </trkpt>
      <trkpt lat="50.92376" lon="1.83572">
        <ele>0.8</ele>
        <time>2020-06-22T21:08:50Z</time>
      </trkpt>
      <trkpt lat="50.92377" lon="1.83578">
        <ele>0.9</ele>
        <time>2020-06-22T21:08:51Z</time>
      </trkpt>
      <trkpt lat="50.9238" lon="1.83579">
        <ele>0.9</ele>
        <time>2020-06-22T21:08:52Z</time>
      </trkpt>
      <trkpt lat="50.92384" lon="1.83579">
        <ele>0.9</ele>
        <time>2020-06-22T21:08:53Z</time>
      </trkpt>
      <trkpt lat="50.92388" lon="1.83575">
        <ele>0.9</ele>
        <time>2020-06-22T21:08:54Z</time>
      </trkpt>
      <trkpt lat="50.92393" lon="1.8357">
        <ele>0.9</ele>
        <time>2020-06-22T21:08:55Z</time>
      </trkpt>
      <trkpt lat="50.92397" lon="1.83567">
        <ele>0.8</ele>
        <time>2020-06-22T21:08:56Z</time>
      </trkpt>
      <trkpt lat="50.92402" lon="1.83562">
        <ele>0.8</ele>
        <time>2020-06-22T21:08:57Z</time>
      </trkpt>
      <trkpt lat="50.92406" lon="1.83557">
        <ele>0.7</ele>
        <time>2020-06-22T21:08:58Z</time>
      </trkpt>
      <trkpt lat="50.92411" lon="1.83552">
        <ele>0.7</ele>
        <time>2020-06-22T21:08:59Z</time>
      </trkpt>
      <trkpt lat="50.92416" lon="1.83547">
        <ele>0.6</ele>
        <time>2020-06-22T21:09:00Z</time>
      </trkpt>
      <trkpt lat="50.9242" lon="1.83544">
        <ele>0.6</ele>
        <time>2020-06-22T21:09:01Z</time>
      </trkpt>
      <trkpt lat="50.92425" lon="1.8354">
        <ele>0.6</ele>
        <time>2020-06-22T21:09:02Z</time>
      </trkpt>
      <trkpt lat="50.92429" lon="1.83536">
        <ele>0.6</ele>
        <time>2020-06-22T21:09:03Z</time>
      </trkpt>
      <trkpt lat="50.92435" lon="1.83531">
        <ele>0.6</ele>
        <time>2020-06-22T21:09:04Z</time>
      </trkpt>
      <trkpt lat="50.92439" lon="1.83525">
        <ele>0.6</ele>
        <time>2020-06-22T21:09:05Z</time>
      </trkpt>
      <trkpt lat="50.92443" lon="1.8352">
        <ele>0.6</ele>
        <time>2020-06-22T21:09:06Z</time>
      </trkpt>
      <trkpt lat="50.92449" lon="1.83514">
        <ele>0.7</ele>
        <time>2020-06-22T21:09:07Z</time>
      </trkpt>
      <trkpt lat="50.92453" lon="1.8351">
        <ele>0.7</ele>
        <time>2020-06-22T21:09:08Z</time>
      </trkpt>
      <trkpt lat="50.92457" lon="1.83506">
        <ele>0.7</ele>
        <time>2020-06-22T21:09:09Z</time>
      </trkpt>
      <trkpt lat="50.92461" lon="1.83503">
        <ele>0.7</ele>
        <time>2020-06-22T21:09:10Z</time>
      </trkpt>
      <trkpt lat="50.92466" lon="1.83498">
        <ele>0.7</ele>
        <time>2020-06-22T21:09:11Z</time>
      </trkpt>
      <trkpt lat="50.92471" lon="1.83495">
        <ele>0.7</ele>
        <time>2020-06-22T21:09:12Z</time>
      </trkpt>
      <trkpt lat="50.92475" lon="1.8349">
        <ele>0.7</ele>
        <time>2020-06-22T21:09:13Z</time>
      </trkpt>
      <trkpt lat="50.9248" lon="1.83487">
        <ele>0.8</ele>
        <time>2020-06-22T21:09:14Z</time>
      </trkpt>
      <trkpt lat="50.92486" lon="1.83482">
        <ele>0.8</ele>
        <time>2020-06-22T21:09:15Z</time>
      </trkpt>
      <trkpt lat="50.92491" lon="1.83475">
        <ele>0.9</ele>
        <time>2020-06-22T21:09:16Z</time>
      </trkpt>
      <trkpt lat="50.92496" lon="1.8347">
        <ele>1</ele>
        <time>2020-06-22T21:09:17Z</time>
      </trkpt>
      <trkpt lat="50.925" lon="1.83467">
        <ele>1.1</ele>
        <time>2020-06-22T21:09:18Z</time>
      </trkpt>
      <trkpt lat="50.92505" lon="1.83462">
        <ele>1.1</ele>
        <time>2020-06-22T21:09:19Z</time>
      </trkpt>
      <trkpt lat="50.92509" lon="1.83458">
        <ele>1.1</ele>
        <time>2020-06-22T21:09:20Z</time>
      </trkpt>
      <trkpt lat="50.92514" lon="1.83453">
        <ele>1.1</ele>
        <time>2020-06-22T21:09:21Z</time>
      </trkpt>
      <trkpt lat="50.92518" lon="1.83448">
        <ele>1.1</ele>
        <time>2020-06-22T21:09:22Z</time>
      </trkpt>
      <trkpt lat="50.92523" lon="1.83444">
        <ele>1</ele>
        <time>2020-06-22T21:09:23Z</time>
      </trkpt>
      <trkpt lat="50.92527" lon="1.8344">
        <ele>0.9</ele>
        <time>2020-06-22T21:09:24Z</time>
      </trkpt>
      <trkpt lat="50.92531" lon="1.83435">
        <ele>0.9</ele>
        <time>2020-06-22T21:09:25Z</time>
      </trkpt>
      <trkpt lat="50.92537" lon="1.8343">
        <ele>0.8</ele>
        <time>2020-06-22T21:09:26Z</time>
      </trkpt>
      <trkpt lat="50.92543" lon="1.83424">
        <ele>0.8</ele>
        <time>2020-06-22T21:09:27Z</time>
      </trkpt>
      <trkpt lat="50.92547" lon="1.83418">
        <ele>0.8</ele>
        <time>2020-06-22T21:09:28Z</time>
      </trkpt>
      <trkpt lat="50.92552" lon="1.83413">
        <ele>0.9</ele>
        <time>2020-06-22T21:09:29Z</time>
      </trkpt>
      <trkpt lat="50.92558" lon="1.83409">
        <ele>0.9</ele>
        <time>2020-06-22T21:09:30Z</time>
      </trkpt>
      <trkpt lat="50.92563" lon="1.83403">
        <ele>0.9</ele>
        <time>2020-06-22T21:09:31Z</time>
      </trkpt>
      <trkpt lat="50.92567" lon="1.83398">
        <ele>1</ele>
        <time>2020-06-22T21:09:32Z</time>
      </trkpt>
      <trkpt lat="50.92572" lon="1.83393">
        <ele>1</ele>
        <time>2020-06-22T21:09:33Z</time>
      </trkpt>
      <trkpt lat="50.92577" lon="1.83388">
        <ele>1.1</ele>
        <time>2020-06-22T21:09:34Z</time>
      </trkpt>
      <trkpt lat="50.92581" lon="1.83386">
        <ele>1.1</ele>
        <time>2020-06-22T21:09:35Z</time>
      </trkpt>
      <trkpt lat="50.92585" lon="1.83382">
        <ele>1.1</ele>
        <time>2020-06-22T21:09:36Z</time>
      </trkpt>
      <trkpt lat="50.92589" lon="1.83377">
        <ele>1.1</ele>
        <time>2020-06-22T21:09:37Z</time>
      </trkpt>
      <trkpt lat="50.92592" lon="1.83374">
        <ele>1.1</ele>
        <time>2020-06-22T21:09:38Z</time>
      </trkpt>
      <trkpt lat="50.92597" lon="1.83371">
        <ele>1.2</ele>
        <time>2020-06-22T21:09:39Z</time>
      </trkpt>
      <trkpt lat="50.926" lon="1.83369">
        <ele>1.1</ele>
        <time>2020-06-22T21:09:40Z</time>
      </trkpt>
      <trkpt lat="50.92604" lon="1.83367">
        <ele>1.1</ele>
        <time>2020-06-22T21:09:41Z</time>
      </trkpt>
      <trkpt lat="50.92608" lon="1.83366">
        <ele>1.1</ele>
        <time>2020-06-22T21:09:42Z</time>
      </trkpt>
      <trkpt lat="50.92611" lon="1.83368">
        <ele>1</ele>
        <time>2020-06-22T21:09:43Z</time>
      </trkpt>
      <trkpt lat="50.92612" lon="1.83375">
        <ele>1</ele>
        <time>2020-06-22T21:09:44Z</time>
      </trkpt>
      <trkpt lat="50.92616" lon="1.83383">
        <ele>0.9</ele>
        <time>2020-06-22T21:09:45Z</time>
      </trkpt>
      <trkpt lat="50.9262" lon="1.83391">
        <ele>0.8</ele>
        <time>2020-06-22T21:09:46Z</time>
      </trkpt>
      <trkpt lat="50.92623" lon="1.83399">
        <ele>0.7</ele>
        <time>2020-06-22T21:09:47Z</time>
      </trkpt>
      <trkpt lat="50.92627" lon="1.83406">
        <ele>0.6</ele>
        <time>2020-06-22T21:09:48Z</time>
      </trkpt>
      <trkpt lat="50.9263" lon="1.83413">
        <ele>0.6</ele>
        <time>2020-06-22T21:09:49Z</time>
      </trkpt>
      <trkpt lat="50.92634" lon="1.8342">
        <ele>0.5</ele>
        <time>2020-06-22T21:09:50Z</time>
      </trkpt>
      <trkpt lat="50.92638" lon="1.83427">
        <ele>0.5</ele>
        <time>2020-06-22T21:09:51Z</time>
      </trkpt>
      <trkpt lat="50.92641" lon="1.83434">
        <ele>0.4</ele>
        <time>2020-06-22T21:09:52Z</time>
      </trkpt>
      <trkpt lat="50.92644" lon="1.83441">
        <ele>0.4</ele>
        <time>2020-06-22T21:09:53Z</time>
      </trkpt>
      <trkpt lat="50.92647" lon="1.83447">
        <ele>0.4</ele>
        <time>2020-06-22T21:09:54Z</time>
      </trkpt>
      <trkpt lat="50.9265" lon="1.83453">
        <ele>0.4</ele>
        <time>2020-06-22T21:09:55Z</time>
      </trkpt>
      <trkpt lat="50.92655" lon="1.83459">
        <ele>0.4</ele>
        <time>2020-06-22T21:09:56Z</time>
      </trkpt>
      <trkpt lat="50.92658" lon="1.83463">
        <ele>0.4</ele>
        <time>2020-06-22T21:09:57Z</time>
      </trkpt>
      <trkpt lat="50.9266" lon="1.83468">
        <ele>0.4</ele>
        <time>2020-06-22T21:09:58Z</time>
      </trkpt>
      <trkpt lat="50.92663" lon="1.83473">
        <ele>0.4</ele>
        <time>2020-06-22T21:09:59Z</time>
      </trkpt>
      <trkpt lat="50.92666" lon="1.83479">
        <ele>0.4</ele>
        <time>2020-06-22T21:10:00Z</time>
      </trkpt>
      <trkpt lat="50.92668" lon="1.83484">
        <ele>0.4</ele>
        <time>2020-06-22T21:10:01Z</time>
      </trkpt>
      <trkpt lat="50.92671" lon="1.83491">
        <ele>0.4</ele>
        <time>2020-06-22T21:10:02Z</time>
      </trkpt>
      <trkpt lat="50.92676" lon="1.83498">
        <ele>0.3</ele>
        <time>2020-06-22T21:10:03Z</time>
      </trkpt>
      <trkpt lat="50.92678" lon="1.83505">
        <ele>0.3</ele>
        <time>2020-06-22T21:10:04Z</time>
      </trkpt>
      <trkpt lat="50.92681" lon="1.83511">
        <ele>0.3</ele>
        <time>2020-06-22T21:10:05Z</time>
      </trkpt>
      <trkpt lat="50.92685" lon="1.83518">
        <ele>0.3</ele>
        <time>2020-06-22T21:10:06Z</time>
      </trkpt>
      <trkpt lat="50.92688" lon="1.83525">
        <ele>0.3</ele>
        <time>2020-06-22T21:10:07Z</time>
      </trkpt>
      <trkpt lat="50.92691" lon="1.83532">
        <ele>0.3</ele>
        <time>2020-06-22T21:10:08Z</time>
      </trkpt>
      <trkpt lat="50.92693" lon="1.83536">
        <ele>0.2</ele>
        <time>2020-06-22T21:10:09Z</time>
      </trkpt>
      <trkpt lat="50.92694" lon="1.83544">
        <ele>0.2</ele>
        <time>2020-06-22T21:10:10Z</time>
      </trkpt>
      <trkpt lat="50.92697" lon="1.83552">
        <ele>0.2</ele>
        <time>2020-06-22T21:10:11Z</time>
      </trkpt>
      <trkpt lat="50.927" lon="1.8356">
        <ele>0.2</ele>
        <time>2020-06-22T21:10:12Z</time>
      </trkpt>
      <trkpt lat="50.92704" lon="1.83568">
        <ele>0.2</ele>
        <time>2020-06-22T21:10:13Z</time>
      </trkpt>
      <trkpt lat="50.92707" lon="1.83574">
        <ele>0.2</ele>
        <time>2020-06-22T21:10:14Z</time>
      </trkpt>
      <trkpt lat="50.9271" lon="1.83581">
        <ele>0.2</ele>
        <time>2020-06-22T21:10:15Z</time>
      </trkpt>
      <trkpt lat="50.92713" lon="1.83587">
        <ele>0.2</ele>
        <time>2020-06-22T21:10:16Z</time>
      </trkpt>
      <trkpt lat="50.92716" lon="1.83592">
        <ele>0.2</ele>
        <time>2020-06-22T21:10:17Z</time>
      </trkpt>
      <trkpt lat="50.9272" lon="1.83599">
        <ele>0.1</ele>
        <time>2020-06-22T21:10:18Z</time>
      </trkpt>
      <trkpt lat="50.92723" lon="1.83605">
        <ele>0.1</ele>
        <time>2020-06-22T21:10:19Z</time>
      </trkpt>
      <trkpt lat="50.92727" lon="1.83611">
        <ele>0.1</ele>
        <time>2020-06-22T21:10:20Z</time>
      </trkpt>
      <trkpt lat="50.9273" lon="1.83618">
        <ele>0.1</ele>
        <time>2020-06-22T21:10:21Z</time>
      </trkpt>
      <trkpt lat="50.92733" lon="1.83626">
        <ele>0.1</ele>
        <time>2020-06-22T21:10:22Z</time>
      </trkpt>
      <trkpt lat="50.92737" lon="1.83632">
        <ele>0.1</ele>
        <time>2020-06-22T21:10:23Z</time>
      </trkpt>
      <trkpt lat="50.9274" lon="1.8364">
        <ele>0.1</ele>
        <time>2020-06-22T21:10:24Z</time>
      </trkpt>
      <trkpt lat="50.92743" lon="1.83646">
        <ele>0.1</ele>
        <time>2020-06-22T21:10:25Z</time>
      </trkpt>
      <trkpt lat="50.92746" lon="1.83653">
        <ele>0.1</ele>
        <time>2020-06-22T21:10:26Z</time>
      </trkpt>
      <trkpt lat="50.92749" lon="1.83658">
        <ele>0.1</ele>
        <time>2020-06-22T21:10:27Z</time>
      </trkpt>
      <trkpt lat="50.92752" lon="1.83664">
        <ele>0.1</ele>
        <time>2020-06-22T21:10:28Z</time>
      </trkpt>
      <trkpt lat="50.92754" lon="1.83667">
        <ele>0.1</ele>
        <time>2020-06-22T21:10:29Z</time>
      </trkpt>
      <trkpt lat="50.92757" lon="1.83674">
        <ele>0.1</ele>
        <time>2020-06-22T21:10:30Z</time>
      </trkpt>
      <trkpt lat="50.92759" lon="1.8368">
        <ele>0.1</ele>
        <time>2020-06-22T21:10:31Z</time>
      </trkpt>
      <trkpt lat="50.92764" lon="1.83687">
        <ele>0.1</ele>
        <time>2020-06-22T21:10:32Z</time>
      </trkpt>
      <trkpt lat="50.92767" lon="1.83694">
        <ele>0.1</ele>
        <time>2020-06-22T21:10:33Z</time>
      </trkpt>
      <trkpt lat="50.9277" lon="1.837">
        <ele>0.1</ele>
        <time>2020-06-22T21:10:34Z</time>
      </trkpt>
      <trkpt lat="50.92774" lon="1.83708">
        <ele>0.2</ele>
        <time>2020-06-22T21:10:35Z</time>
      </trkpt>
      <trkpt lat="50.92777" lon="1.83715">
        <ele>0.2</ele>
        <time>2020-06-22T21:10:36Z</time>
      </trkpt>
      <trkpt lat="50.9278" lon="1.83722">
        <ele>0.2</ele>
        <time>2020-06-22T21:10:37Z</time>
      </trkpt>
      <trkpt lat="50.92785" lon="1.8373">
        <ele>0.2</ele>
        <time>2020-06-22T21:10:38Z</time>
      </trkpt>
      <trkpt lat="50.92786" lon="1.83738">
        <ele>0.2</ele>
        <time>2020-06-22T21:10:39Z</time>
      </trkpt>
      <trkpt lat="50.92788" lon="1.83744">
        <ele>0.2</ele>
        <time>2020-06-22T21:10:40Z</time>
      </trkpt>
      <trkpt lat="50.92792" lon="1.83752">
        <ele>0.2</ele>
        <time>2020-06-22T21:10:41Z</time>
      </trkpt>
      <trkpt lat="50.92795" lon="1.83759">
        <ele>0.2</ele>
        <time>2020-06-22T21:10:42Z</time>
      </trkpt>
      <trkpt lat="50.92798" lon="1.83765">
        <ele>0.2</ele>
        <time>2020-06-22T21:10:43Z</time>
      </trkpt>
      <trkpt lat="50.92801" lon="1.83768">
        <ele>0.2</ele>
        <time>2020-06-22T21:10:44Z</time>
      </trkpt>
      <trkpt lat="50.92805" lon="1.83773">
        <ele>0.2</ele>
        <time>2020-06-22T21:10:45Z</time>
      </trkpt>
      <trkpt lat="50.92808" lon="1.83779">
        <ele>0.2</ele>
        <time>2020-06-22T21:10:46Z</time>
      </trkpt>
      <trkpt lat="50.92811" lon="1.83785">
        <ele>0.2</ele>
        <time>2020-06-22T21:10:47Z</time>
      </trkpt>
      <trkpt lat="50.92815" lon="1.83793">
        <ele>0.2</ele>
        <time>2020-06-22T21:10:48Z</time>
      </trkpt>
      <trkpt lat="50.92819" lon="1.838">
        <ele>0.2</ele>
        <time>2020-06-22T21:10:49Z</time>
      </trkpt>
      <trkpt lat="50.92821" lon="1.83806">
        <ele>0.2</ele>
        <time>2020-06-22T21:10:50Z</time>
      </trkpt>
      <trkpt lat="50.92825" lon="1.83814">
        <ele>0.2</ele>
        <time>2020-06-22T21:10:51Z</time>
      </trkpt>
      <trkpt lat="50.92829" lon="1.83822">
        <ele>0.2</ele>
        <time>2020-06-22T21:10:52Z</time>
      </trkpt>
      <trkpt lat="50.92832" lon="1.8383">
        <ele>0.2</ele>
        <time>2020-06-22T21:10:53Z</time>
      </trkpt>
      <trkpt lat="50.92835" lon="1.83837">
        <ele>0.2</ele>
        <time>2020-06-22T21:10:54Z</time>
      </trkpt>
      <trkpt lat="50.92839" lon="1.83844">
        <ele>0.2</ele>
        <time>2020-06-22T21:10:55Z</time>
      </trkpt>
      <trkpt lat="50.92843" lon="1.8385">
        <ele>0.2</ele>
        <time>2020-06-22T21:10:56Z</time>
      </trkpt>
      <trkpt lat="50.92846" lon="1.83857">
        <ele>0.3</ele>
        <time>2020-06-22T21:10:57Z</time>
      </trkpt>
      <trkpt lat="50.9285" lon="1.83865">
        <ele>0.3</ele>
        <time>2020-06-22T21:10:58Z</time>
      </trkpt>
      <trkpt lat="50.92853" lon="1.83872">
        <ele>0.3</ele>
        <time>2020-06-22T21:10:59Z</time>
      </trkpt>
      <trkpt lat="50.92856" lon="1.83879">
        <ele>0.3</ele>
        <time>2020-06-22T21:11:00Z</time>
      </trkpt>
      <trkpt lat="50.9286" lon="1.83887">
        <ele>0.3</ele>
        <time>2020-06-22T21:11:01Z</time>
      </trkpt>
      <trkpt lat="50.92863" lon="1.83893">
        <ele>0.3</ele>
        <time>2020-06-22T21:11:02Z</time>
      </trkpt>
      <trkpt lat="50.92865" lon="1.83899">
        <ele>0.3</ele>
        <time>2020-06-22T21:11:03Z</time>
      </trkpt>
      <trkpt lat="50.92869" lon="1.83906">
        <ele>0.3</ele>
        <time>2020-06-22T21:11:04Z</time>
      </trkpt>
      <trkpt lat="50.92873" lon="1.83913">
        <ele>0.3</ele>
        <time>2020-06-22T21:11:05Z</time>
      </trkpt>
      <trkpt lat="50.92876" lon="1.83921">
        <ele>0.3</ele>
        <time>2020-06-22T21:11:06Z</time>
      </trkpt>
      <trkpt lat="50.9288" lon="1.83928">
        <ele>0.3</ele>
        <time>2020-06-22T21:11:07Z</time>
      </trkpt>
      <trkpt lat="50.92883" lon="1.83935">
        <ele>0.3</ele>
        <time>2020-06-22T21:11:08Z</time>
      </trkpt>
      <trkpt lat="50.92886" lon="1.83945">
        <ele>0.3</ele>
        <time>2020-06-22T21:11:09Z</time>
      </trkpt>
      <trkpt lat="50.9289" lon="1.83952">
        <ele>0.3</ele>
        <time>2020-06-22T21:11:10Z</time>
      </trkpt>
      <trkpt lat="50.92893" lon="1.8396">
        <ele>0.4</ele>
        <time>2020-06-22T21:11:11Z</time>
      </trkpt>
      <trkpt lat="50.92897" lon="1.83967">
        <ele>0.4</ele>
        <time>2020-06-22T21:11:12Z</time>
      </trkpt>
      <trkpt lat="50.92899" lon="1.83972">
        <ele>0.4</ele>
        <time>2020-06-22T21:11:13Z</time>
      </trkpt>
      <trkpt lat="50.92903" lon="1.83979">
        <ele>0.4</ele>
        <time>2020-06-22T21:11:14Z</time>
      </trkpt>
      <trkpt lat="50.92905" lon="1.83983">
        <ele>0.4</ele>
        <time>2020-06-22T21:11:15Z</time>
      </trkpt>
      <trkpt lat="50.92907" lon="1.83989">
        <ele>0.4</ele>
        <time>2020-06-22T21:11:16Z</time>
      </trkpt>
      <trkpt lat="50.92911" lon="1.83993">
        <ele>0.4</ele>
        <time>2020-06-22T21:11:17Z</time>
      </trkpt>
      <trkpt lat="50.92914" lon="1.83999">
        <ele>0.5</ele>
        <time>2020-06-22T21:11:18Z</time>
      </trkpt>
      <trkpt lat="50.92919" lon="1.84008">
        <ele>0.5</ele>
        <time>2020-06-22T21:11:19Z</time>
      </trkpt>
      <trkpt lat="50.92922" lon="1.84014">
        <ele>0.5</ele>
        <time>2020-06-22T21:11:20Z</time>
      </trkpt>
      <trkpt lat="50.92925" lon="1.84021">
        <ele>0.5</ele>
        <time>2020-06-22T21:11:21Z</time>
      </trkpt>
      <trkpt lat="50.92929" lon="1.84028">
        <ele>0.5</ele>
        <time>2020-06-22T21:11:22Z</time>
      </trkpt>
      <trkpt lat="50.92932" lon="1.84034">
        <ele>0.5</ele>
        <time>2020-06-22T21:11:23Z</time>
      </trkpt>
      <trkpt lat="50.92935" lon="1.84041">
        <ele>0.6</ele>
        <time>2020-06-22T21:11:24Z</time>
      </trkpt>
      <trkpt lat="50.92939" lon="1.84048">
        <ele>0.6</ele>
        <time>2020-06-22T21:11:25Z</time>
      </trkpt>
      <trkpt lat="50.92942" lon="1.84052">
        <ele>0.6</ele>
        <time>2020-06-22T21:11:26Z</time>
      </trkpt>
      <trkpt lat="50.92945" lon="1.84059">
        <ele>0.7</ele>
        <time>2020-06-22T21:11:27Z</time>
      </trkpt>
      <trkpt lat="50.92949" lon="1.84066">
        <ele>0.8</ele>
        <time>2020-06-22T21:11:28Z</time>
      </trkpt>
      <trkpt lat="50.92952" lon="1.84073">
        <ele>0.8</ele>
        <time>2020-06-22T21:11:29Z</time>
      </trkpt>
      <trkpt lat="50.92956" lon="1.84079">
        <ele>0.9</ele>
        <time>2020-06-22T21:11:30Z</time>
      </trkpt>
      <trkpt lat="50.92959" lon="1.84086">
        <ele>1</ele>
        <time>2020-06-22T21:11:31Z</time>
      </trkpt>
      <trkpt lat="50.92962" lon="1.84094">
        <ele>1.1</ele>
        <time>2020-06-22T21:11:32Z</time>
      </trkpt>
      <trkpt lat="50.92965" lon="1.84101">
        <ele>1.2</ele>
        <time>2020-06-22T21:11:33Z</time>
      </trkpt>
      <trkpt lat="50.92968" lon="1.84107">
        <ele>1.4</ele>
        <time>2020-06-22T21:11:34Z</time>
      </trkpt>
      <trkpt lat="50.92971" lon="1.84113">
        <ele>1.5</ele>
        <time>2020-06-22T21:11:35Z</time>
      </trkpt>
      <trkpt lat="50.92974" lon="1.84119">
        <ele>1.7</ele>
        <time>2020-06-22T21:11:36Z</time>
      </trkpt>
      <trkpt lat="50.92977" lon="1.84125">
        <ele>1.7</ele>
        <time>2020-06-22T21:11:37Z</time>
      </trkpt>
      <trkpt lat="50.9298" lon="1.84131">
        <ele>1.7</ele>
        <time>2020-06-22T21:11:38Z</time>
      </trkpt>
      <trkpt lat="50.92983" lon="1.84138">
        <ele>1.7</ele>
        <time>2020-06-22T21:11:39Z</time>
      </trkpt>
      <trkpt lat="50.92986" lon="1.84144">
        <ele>1.6</ele>
        <time>2020-06-22T21:11:40Z</time>
      </trkpt>
      <trkpt lat="50.9299" lon="1.84151">
        <ele>1.5</ele>
        <time>2020-06-22T21:11:41Z</time>
      </trkpt>
      <trkpt lat="50.92992" lon="1.84157">
        <ele>1.5</ele>
        <time>2020-06-22T21:11:42Z</time>
      </trkpt>
      <trkpt lat="50.92995" lon="1.84164">
        <ele>1.3</ele>
        <time>2020-06-22T21:11:43Z</time>
      </trkpt>
      <trkpt lat="50.92997" lon="1.8417">
        <ele>1.3</ele>
        <time>2020-06-22T21:11:44Z</time>
      </trkpt>
      <trkpt lat="50.93001" lon="1.84176">
        <ele>1.2</ele>
        <time>2020-06-22T21:11:45Z</time>
      </trkpt>
      <trkpt lat="50.93004" lon="1.84181">
        <ele>1.2</ele>
        <time>2020-06-22T21:11:46Z</time>
      </trkpt>
      <trkpt lat="50.93007" lon="1.84188">
        <ele>1.2</ele>
        <time>2020-06-22T21:11:47Z</time>
      </trkpt>
      <trkpt lat="50.9301" lon="1.84195">
        <ele>1.2</ele>
        <time>2020-06-22T21:11:48Z</time>
      </trkpt>
      <trkpt lat="50.93014" lon="1.84202">
        <ele>1.2</ele>
        <time>2020-06-22T21:11:49Z</time>
      </trkpt>
      <trkpt lat="50.93017" lon="1.8421">
        <ele>1.1</ele>
        <time>2020-06-22T21:11:50Z</time>
      </trkpt>
      <trkpt lat="50.93019" lon="1.84217">
        <ele>1.1</ele>
        <time>2020-06-22T21:11:51Z</time>
      </trkpt>
      <trkpt lat="50.93022" lon="1.84225">
        <ele>1.1</ele>
        <time>2020-06-22T21:11:52Z</time>
      </trkpt>
      <trkpt lat="50.93025" lon="1.84232">
        <ele>1.2</ele>
        <time>2020-06-22T21:11:53Z</time>
      </trkpt>
      <trkpt lat="50.93027" lon="1.84239">
        <ele>1.2</ele>
        <time>2020-06-22T21:11:54Z</time>
      </trkpt>
      <trkpt lat="50.9303" lon="1.84247">
        <ele>1.2</ele>
        <time>2020-06-22T21:11:55Z</time>
      </trkpt>
      <trkpt lat="50.93032" lon="1.84255">
        <ele>1.1</ele>
        <time>2020-06-22T21:11:56Z</time>
      </trkpt>
      <trkpt lat="50.93035" lon="1.84263">
        <ele>1.1</ele>
        <time>2020-06-22T21:11:57Z</time>
      </trkpt>
      <trkpt lat="50.93036" lon="1.84271">
        <ele>1.1</ele>
        <time>2020-06-22T21:11:58Z</time>
      </trkpt>
      <trkpt lat="50.93038" lon="1.84279">
        <ele>1.1</ele>
        <time>2020-06-22T21:11:59Z</time>
      </trkpt>
      <trkpt lat="50.93041" lon="1.84287">
        <ele>1</ele>
        <time>2020-06-22T21:12:00Z</time>
      </trkpt>
      <trkpt lat="50.93043" lon="1.84295">
        <ele>1</ele>
        <time>2020-06-22T21:12:01Z</time>
      </trkpt>
      <trkpt lat="50.93045" lon="1.84303">
        <ele>1</ele>
        <time>2020-06-22T21:12:02Z</time>
      </trkpt>
      <trkpt lat="50.93047" lon="1.84312">
        <ele>0.9</ele>
        <time>2020-06-22T21:12:03Z</time>
      </trkpt>
      <trkpt lat="50.93049" lon="1.8432">
        <ele>0.9</ele>
        <time>2020-06-22T21:12:04Z</time>
      </trkpt>
      <trkpt lat="50.93051" lon="1.84329">
        <ele>0.9</ele>
        <time>2020-06-22T21:12:05Z</time>
      </trkpt>
      <trkpt lat="50.93053" lon="1.84338">
        <ele>0.9</ele>
        <time>2020-06-22T21:12:06Z</time>
      </trkpt>
      <trkpt lat="50.93055" lon="1.84346">
        <ele>0.9</ele>
        <time>2020-06-22T21:12:07Z</time>
      </trkpt>
      <trkpt lat="50.93057" lon="1.84355">
        <ele>0.9</ele>
        <time>2020-06-22T21:12:08Z</time>
      </trkpt>
      <trkpt lat="50.93059" lon="1.84364">
        <ele>0.9</ele>
        <time>2020-06-22T21:12:09Z</time>
      </trkpt>
      <trkpt lat="50.93062" lon="1.84375">
        <ele>1</ele>
        <time>2020-06-22T21:12:10Z</time>
      </trkpt>
      <trkpt lat="50.93063" lon="1.84384">
        <ele>1</ele>
        <time>2020-06-22T21:12:11Z</time>
      </trkpt>
      <trkpt lat="50.93064" lon="1.84393">
        <ele>1</ele>
        <time>2020-06-22T21:12:12Z</time>
      </trkpt>
      <trkpt lat="50.93066" lon="1.84403">
        <ele>1</ele>
        <time>2020-06-22T21:12:13Z</time>
      </trkpt>
      <trkpt lat="50.93067" lon="1.8441">
        <ele>1</ele>
        <time>2020-06-22T21:12:14Z</time>
      </trkpt>
      <trkpt lat="50.93068" lon="1.84416">
        <ele>1</ele>
        <time>2020-06-22T21:12:15Z</time>
      </trkpt>
      <trkpt lat="50.93069" lon="1.84423">
        <ele>1</ele>
        <time>2020-06-22T21:12:16Z</time>
      </trkpt>
      <trkpt lat="50.9307" lon="1.84431">
        <ele>1</ele>
        <time>2020-06-22T21:12:17Z</time>
      </trkpt>
      <trkpt lat="50.93072" lon="1.84442">
        <ele>1</ele>
        <time>2020-06-22T21:12:18Z</time>
      </trkpt>
      <trkpt lat="50.93073" lon="1.84452">
        <ele>1</ele>
        <time>2020-06-22T21:12:19Z</time>
      </trkpt>
      <trkpt lat="50.93075" lon="1.8446">
        <ele>1</ele>
        <time>2020-06-22T21:12:20Z</time>
      </trkpt>
      <trkpt lat="50.93079" lon="1.84466">
        <ele>1</ele>
        <time>2020-06-22T21:12:21Z</time>
      </trkpt>
      <trkpt lat="50.9308" lon="1.84472">
        <ele>1</ele>
        <time>2020-06-22T21:12:22Z</time>
      </trkpt>
      <trkpt lat="50.93082" lon="1.84482">
        <ele>1</ele>
        <time>2020-06-22T21:12:23Z</time>
      </trkpt>
      <trkpt lat="50.93084" lon="1.8449">
        <ele>0.9</ele>
        <time>2020-06-22T21:12:24Z</time>
      </trkpt>
      <trkpt lat="50.93086" lon="1.84499">
        <ele>0.9</ele>
        <time>2020-06-22T21:12:25Z</time>
      </trkpt>
      <trkpt lat="50.93089" lon="1.84507">
        <ele>0.9</ele>
        <time>2020-06-22T21:12:26Z</time>
      </trkpt>
      <trkpt lat="50.93091" lon="1.84515">
        <ele>0.9</ele>
        <time>2020-06-22T21:12:27Z</time>
      </trkpt>
      <trkpt lat="50.93094" lon="1.84522">
        <ele>0.9</ele>
        <time>2020-06-22T21:12:28Z</time>
      </trkpt>
      <trkpt lat="50.93096" lon="1.84529">
        <ele>0.9</ele>
        <time>2020-06-22T21:12:29Z</time>
      </trkpt>
      <trkpt lat="50.93099" lon="1.84535">
        <ele>1</ele>
        <time>2020-06-22T21:12:30Z</time>
      </trkpt>
      <trkpt lat="50.93103" lon="1.84542">
        <ele>1</ele>
        <time>2020-06-22T21:12:31Z</time>
      </trkpt>
      <trkpt lat="50.93107" lon="1.8455">
        <ele>1.1</ele>
        <time>2020-06-22T21:12:32Z</time>
      </trkpt>
      <trkpt lat="50.9311" lon="1.84557">
        <ele>1.1</ele>
        <time>2020-06-22T21:12:33Z</time>
      </trkpt>
      <trkpt lat="50.93113" lon="1.84562">
        <ele>1.2</ele>
        <time>2020-06-22T21:12:34Z</time>
      </trkpt>
      <trkpt lat="50.93115" lon="1.84568">
        <ele>1</ele>
        <time>2020-06-22T21:12:35Z</time>
      </trkpt>
      <trkpt lat="50.93119" lon="1.84576">
        <ele>0.9</ele>
        <time>2020-06-22T21:12:36Z</time>
      </trkpt>
      <trkpt lat="50.93123" lon="1.84584">
        <ele>0.9</ele>
        <time>2020-06-22T21:12:37Z</time>
      </trkpt>
      <trkpt lat="50.93128" lon="1.84592">
        <ele>0.9</ele>
        <time>2020-06-22T21:12:38Z</time>
      </trkpt>
      <trkpt lat="50.93132" lon="1.84598">
        <ele>0.9</ele>
        <time>2020-06-22T21:12:39Z</time>
      </trkpt>
      <trkpt lat="50.93135" lon="1.84605">
        <ele>0.9</ele>
        <time>2020-06-22T21:12:40Z</time>
      </trkpt>
      <trkpt lat="50.93138" lon="1.84612">
        <ele>0.9</ele>
        <time>2020-06-22T21:12:41Z</time>
      </trkpt>
      <trkpt lat="50.93141" lon="1.84617">
        <ele>0.9</ele>
        <time>2020-06-22T21:12:42Z</time>
      </trkpt>
      <trkpt lat="50.93143" lon="1.84621">
        <ele>0.9</ele>
        <time>2020-06-22T21:12:43Z</time>
      </trkpt>
      <trkpt lat="50.93145" lon="1.84627">
        <ele>0.8</ele>
        <time>2020-06-22T21:12:44Z</time>
      </trkpt>
      <trkpt lat="50.93148" lon="1.84635">
        <ele>0.8</ele>
        <time>2020-06-22T21:12:45Z</time>
      </trkpt>
      <trkpt lat="50.93151" lon="1.8464">
        <ele>0.8</ele>
        <time>2020-06-22T21:12:46Z</time>
      </trkpt>
      <trkpt lat="50.93155" lon="1.84647">
        <ele>0.8</ele>
        <time>2020-06-22T21:12:47Z</time>
      </trkpt>
      <trkpt lat="50.93159" lon="1.84656">
        <ele>0.8</ele>
        <time>2020-06-22T21:12:48Z</time>
      </trkpt>
      <trkpt lat="50.93163" lon="1.84662">
        <ele>0.8</ele>
        <time>2020-06-22T21:12:49Z</time>
      </trkpt>
      <trkpt lat="50.93165" lon="1.84668">
        <ele>0.8</ele>
        <time>2020-06-22T21:12:50Z</time>
      </trkpt>
      <trkpt lat="50.93168" lon="1.84673">
        <ele>0.8</ele>
        <time>2020-06-22T21:12:51Z</time>
      </trkpt>
      <trkpt lat="50.93172" lon="1.84681">
        <ele>0.8</ele>
        <time>2020-06-22T21:12:52Z</time>
      </trkpt>
      <trkpt lat="50.93176" lon="1.84687">
        <ele>0.8</ele>
        <time>2020-06-22T21:12:53Z</time>
      </trkpt>
      <trkpt lat="50.93179" lon="1.84695">
        <ele>0.9</ele>
        <time>2020-06-22T21:12:54Z</time>
      </trkpt>
      <trkpt lat="50.93182" lon="1.84702">
        <ele>0.9</ele>
        <time>2020-06-22T21:12:55Z</time>
      </trkpt>
      <trkpt lat="50.93186" lon="1.84708">
        <ele>0.9</ele>
        <time>2020-06-22T21:12:56Z</time>
      </trkpt>
      <trkpt lat="50.93189" lon="1.84715">
        <ele>0.9</ele>
        <time>2020-06-22T21:12:57Z</time>
      </trkpt>
      <trkpt lat="50.93191" lon="1.8472">
        <ele>0.9</ele>
        <time>2020-06-22T21:12:58Z</time>
      </trkpt>
      <trkpt lat="50.93196" lon="1.84726">
        <ele>0.9</ele>
        <time>2020-06-22T21:12:59Z</time>
      </trkpt>
      <trkpt lat="50.93199" lon="1.84733">
        <ele>0.9</ele>
        <time>2020-06-22T21:13:00Z</time>
      </trkpt>
      <trkpt lat="50.93203" lon="1.84739">
        <ele>0.9</ele>
        <time>2020-06-22T21:13:01Z</time>
      </trkpt>
      <trkpt lat="50.93206" lon="1.84744">
        <ele>0.9</ele>
        <time>2020-06-22T21:13:02Z</time>
      </trkpt>
      <trkpt lat="50.93209" lon="1.84749">
        <ele>0.9</ele>
        <time>2020-06-22T21:13:03Z</time>
      </trkpt>
      <trkpt lat="50.93213" lon="1.84756">
        <ele>1</ele>
        <time>2020-06-22T21:13:04Z</time>
      </trkpt>
      <trkpt lat="50.93216" lon="1.84762">
        <ele>1</ele>
        <time>2020-06-22T21:13:05Z</time>
      </trkpt>
      <trkpt lat="50.93219" lon="1.84767">
        <ele>1</ele>
        <time>2020-06-22T21:13:06Z</time>
      </trkpt>
      <trkpt lat="50.93224" lon="1.84772">
        <ele>1</ele>
        <time>2020-06-22T21:13:07Z</time>
      </trkpt>
      <trkpt lat="50.93228" lon="1.84778">
        <ele>1</ele>
        <time>2020-06-22T21:13:08Z</time>
      </trkpt>
      <trkpt lat="50.93232" lon="1.84785">
        <ele>1</ele>
        <time>2020-06-22T21:13:09Z</time>
      </trkpt>
      <trkpt lat="50.93236" lon="1.84792">
        <ele>1</ele>
        <time>2020-06-22T21:13:10Z</time>
      </trkpt>
      <trkpt lat="50.93238" lon="1.84798">
        <ele>1</ele>
        <time>2020-06-22T21:13:11Z</time>
      </trkpt>
      <trkpt lat="50.93242" lon="1.84803">
        <ele>1</ele>
        <time>2020-06-22T21:13:12Z</time>
      </trkpt>
      <trkpt lat="50.93245" lon="1.84808">
        <ele>1.1</ele>
        <time>2020-06-22T21:13:13Z</time>
      </trkpt>
      <trkpt lat="50.93249" lon="1.84813">
        <ele>1.1</ele>
        <time>2020-06-22T21:13:14Z</time>
      </trkpt>
      <trkpt lat="50.93252" lon="1.84817">
        <ele>1.1</ele>
        <time>2020-06-22T21:13:15Z</time>
      </trkpt>
      <trkpt lat="50.93256" lon="1.84823">
        <ele>1.1</ele>
        <time>2020-06-22T21:13:16Z</time>
      </trkpt>
      <trkpt lat="50.9326" lon="1.84828">
        <ele>1.1</ele>
        <time>2020-06-22T21:13:17Z</time>
      </trkpt>
      <trkpt lat="50.93264" lon="1.84834">
        <ele>1.1</ele>
        <time>2020-06-22T21:13:18Z</time>
      </trkpt>
      <trkpt lat="50.93269" lon="1.8484">
        <ele>1.1</ele>
        <time>2020-06-22T21:13:19Z</time>
      </trkpt>
      <trkpt lat="50.93274" lon="1.84845">
        <ele>1.1</ele>
        <time>2020-06-22T21:13:20Z</time>
      </trkpt>
      <trkpt lat="50.93278" lon="1.8485">
        <ele>1.1</ele>
        <time>2020-06-22T21:13:21Z</time>
      </trkpt>
      <trkpt lat="50.93283" lon="1.84853">
        <ele>1</ele>
        <time>2020-06-22T21:13:22Z</time>
      </trkpt>
      <trkpt lat="50.93287" lon="1.84857">
        <ele>1</ele>
        <time>2020-06-22T21:13:23Z</time>
      </trkpt>
      <trkpt lat="50.93292" lon="1.84862">
        <ele>1</ele>
        <time>2020-06-22T21:13:24Z</time>
      </trkpt>
      <trkpt lat="50.93295" lon="1.84866">
        <ele>1</ele>
        <time>2020-06-22T21:13:25Z</time>
      </trkpt>
      <trkpt lat="50.93299" lon="1.84871">
        <ele>1</ele>
        <time>2020-06-22T21:13:26Z</time>
      </trkpt>
      <trkpt lat="50.93303" lon="1.84875">
        <ele>0.9</ele>
        <time>2020-06-22T21:13:27Z</time>
      </trkpt>
      <trkpt lat="50.93307" lon="1.8488">
        <ele>0.9</ele>
        <time>2020-06-22T21:13:28Z</time>
      </trkpt>
      <trkpt lat="50.93313" lon="1.84886">
        <ele>0.9</ele>
        <time>2020-06-22T21:13:29Z</time>
      </trkpt>
      <trkpt lat="50.93317" lon="1.8489">
        <ele>0.9</ele>
        <time>2020-06-22T21:13:30Z</time>
      </trkpt>
      <trkpt lat="50.93322" lon="1.84894">
        <ele>1</ele>
        <time>2020-06-22T21:13:31Z</time>
      </trkpt>
      <trkpt lat="50.93328" lon="1.84897">
        <ele>1</ele>
        <time>2020-06-22T21:13:32Z</time>
      </trkpt>
      <trkpt lat="50.93331" lon="1.84902">
        <ele>1</ele>
        <time>2020-06-22T21:13:33Z</time>
      </trkpt>
      <trkpt lat="50.93337" lon="1.84906">
        <ele>1</ele>
        <time>2020-06-22T21:13:34Z</time>
      </trkpt>
      <trkpt lat="50.93342" lon="1.8491">
        <ele>1.1</ele>
        <time>2020-06-22T21:13:35Z</time>
      </trkpt>
      <trkpt lat="50.93347" lon="1.84914">
        <ele>1.1</ele>
        <time>2020-06-22T21:13:36Z</time>
      </trkpt>
      <trkpt lat="50.93351" lon="1.84917">
        <ele>1.1</ele>
        <time>2020-06-22T21:13:37Z</time>
      </trkpt>
      <trkpt lat="50.93356" lon="1.84921">
        <ele>1.1</ele>
        <time>2020-06-22T21:13:38Z</time>
      </trkpt>
      <trkpt lat="50.93361" lon="1.84924">
        <ele>1.1</ele>
        <time>2020-06-22T21:13:39Z</time>
      </trkpt>
      <trkpt lat="50.93364" lon="1.84928">
        <ele>1.1</ele>
        <time>2020-06-22T21:13:40Z</time>
      </trkpt>
      <trkpt lat="50.9337" lon="1.84933">
        <ele>1.1</ele>
        <time>2020-06-22T21:13:41Z</time>
      </trkpt>
      <trkpt lat="50.93374" lon="1.84937">
        <ele>1.2</ele>
        <time>2020-06-22T21:13:42Z</time>
      </trkpt>
      <trkpt lat="50.93379" lon="1.84941">
        <ele>1.2</ele>
        <time>2020-06-22T21:13:43Z</time>
      </trkpt>
      <trkpt lat="50.93383" lon="1.84945">
        <ele>1.2</ele>
        <time>2020-06-22T21:13:44Z</time>
      </trkpt>
      <trkpt lat="50.93387" lon="1.84949">
        <ele>1.3</ele>
        <time>2020-06-22T21:13:45Z</time>
      </trkpt>
      <trkpt lat="50.93392" lon="1.84954">
        <ele>1.3</ele>
        <time>2020-06-22T21:13:46Z</time>
      </trkpt>
      <trkpt lat="50.93397" lon="1.84959">
        <ele>1.3</ele>
        <time>2020-06-22T21:13:47Z</time>
      </trkpt>
      <trkpt lat="50.93402" lon="1.84963">
        <ele>1.4</ele>
        <time>2020-06-22T21:13:48Z</time>
      </trkpt>
      <trkpt lat="50.93406" lon="1.84967">
        <ele>1.4</ele>
        <time>2020-06-22T21:13:49Z</time>
      </trkpt>
      <trkpt lat="50.9341" lon="1.8497">
        <ele>1.4</ele>
        <time>2020-06-22T21:13:50Z</time>
      </trkpt>
      <trkpt lat="50.93415" lon="1.84972">
        <ele>1.4</ele>
        <time>2020-06-22T21:13:51Z</time>
      </trkpt>
      <trkpt lat="50.93419" lon="1.84975">
        <ele>1.4</ele>
        <time>2020-06-22T21:13:52Z</time>
      </trkpt>
      <trkpt lat="50.93423" lon="1.84978">
        <ele>1.4</ele>
        <time>2020-06-22T21:13:53Z</time>
      </trkpt>
      <trkpt lat="50.93427" lon="1.84981">
        <ele>1.4</ele>
        <time>2020-06-22T21:13:54Z</time>
      </trkpt>
      <trkpt lat="50.93431" lon="1.84985">
        <ele>1.4</ele>
        <time>2020-06-22T21:13:55Z</time>
      </trkpt>
      <trkpt lat="50.93435" lon="1.84988">
        <ele>1.4</ele>
        <time>2020-06-22T21:13:56Z</time>
      </trkpt>
      <trkpt lat="50.93439" lon="1.84993">
        <ele>1.4</ele>
        <time>2020-06-22T21:13:57Z</time>
      </trkpt>
      <trkpt lat="50.93443" lon="1.84997">
        <ele>1.4</ele>
        <time>2020-06-22T21:13:58Z</time>
      </trkpt>
      <trkpt lat="50.93446" lon="1.85001">
        <ele>1.4</ele>
        <time>2020-06-22T21:13:59Z</time>
      </trkpt>
      <trkpt lat="50.9345" lon="1.85004">
        <ele>1.4</ele>
        <time>2020-06-22T21:14:00Z</time>
      </trkpt>
      <trkpt lat="50.93452" lon="1.85006">
        <ele>1.4</ele>
        <time>2020-06-22T21:14:01Z</time>
      </trkpt>
      <trkpt lat="50.93457" lon="1.8501">
        <ele>1.4</ele>
        <time>2020-06-22T21:14:02Z</time>
      </trkpt>
      <trkpt lat="50.93461" lon="1.85012">
        <ele>1.4</ele>
        <time>2020-06-22T21:14:03Z</time>
      </trkpt>
      <trkpt lat="50.93466" lon="1.85016">
        <ele>1.4</ele>
        <time>2020-06-22T21:14:04Z</time>
      </trkpt>
      <trkpt lat="50.93469" lon="1.8502">
        <ele>1.4</ele>
        <time>2020-06-22T21:14:05Z</time>
      </trkpt>
      <trkpt lat="50.93472" lon="1.85022">
        <ele>1.4</ele>
        <time>2020-06-22T21:14:06Z</time>
      </trkpt>
      <trkpt lat="50.93476" lon="1.85025">
        <ele>1.5</ele>
        <time>2020-06-22T21:14:07Z</time>
      </trkpt>
      <trkpt lat="50.9348" lon="1.85029">
        <ele>1.5</ele>
        <time>2020-06-22T21:14:08Z</time>
      </trkpt>
      <trkpt lat="50.93484" lon="1.85034">
        <ele>1.5</ele>
        <time>2020-06-22T21:14:09Z</time>
      </trkpt>
      <trkpt lat="50.93488" lon="1.85037">
        <ele>1.5</ele>
        <time>2020-06-22T21:14:10Z</time>
      </trkpt>
      <trkpt lat="50.93493" lon="1.8504">
        <ele>1.5</ele>
        <time>2020-06-22T21:14:11Z</time>
      </trkpt>
      <trkpt lat="50.93498" lon="1.85041">
        <ele>1.6</ele>
        <time>2020-06-22T21:14:12Z</time>
      </trkpt>
      <trkpt lat="50.93503" lon="1.8504">
        <ele>1.5</ele>
        <time>2020-06-22T21:14:13Z</time>
      </trkpt>
      <trkpt lat="50.93505" lon="1.8504">
        <ele>1.5</ele>
        <time>2020-06-22T21:14:14Z</time>
      </trkpt>
      <trkpt lat="50.93509" lon="1.8504">
        <ele>1.5</ele>
        <time>2020-06-22T21:14:15Z</time>
      </trkpt>
      <trkpt lat="50.93514" lon="1.85039">
        <ele>1.5</ele>
        <time>2020-06-22T21:14:16Z</time>
      </trkpt>
      <trkpt lat="50.93517" lon="1.85038">
        <ele>1.4</ele>
        <time>2020-06-22T21:14:17Z</time>
      </trkpt>
      <trkpt lat="50.9352" lon="1.85037">
        <ele>1.4</ele>
        <time>2020-06-22T21:14:18Z</time>
      </trkpt>
      <trkpt lat="50.93523" lon="1.85037">
        <ele>1.4</ele>
        <time>2020-06-22T21:14:19Z</time>
      </trkpt>
      <trkpt lat="50.93526" lon="1.85038">
        <ele>1.4</ele>
        <time>2020-06-22T21:14:20Z</time>
      </trkpt>
      <trkpt lat="50.93529" lon="1.85043">
        <ele>1.4</ele>
        <time>2020-06-22T21:14:21Z</time>
      </trkpt>
      <trkpt lat="50.93531" lon="1.85052">
        <ele>1.3</ele>
        <time>2020-06-22T21:14:22Z</time>
      </trkpt>
      <trkpt lat="50.93531" lon="1.85058">
        <ele>1.3</ele>
        <time>2020-06-22T21:14:23Z</time>
      </trkpt>
      <trkpt lat="50.93533" lon="1.85067">
        <ele>1.3</ele>
        <time>2020-06-22T21:14:24Z</time>
      </trkpt>
      <trkpt lat="50.93534" lon="1.85072">
        <ele>1.3</ele>
        <time>2020-06-22T21:14:25Z</time>
      </trkpt>
      <trkpt lat="50.93535" lon="1.85079">
        <ele>1.3</ele>
        <time>2020-06-22T21:14:26Z</time>
      </trkpt>
      <trkpt lat="50.93536" lon="1.85086">
        <ele>1.3</ele>
        <time>2020-06-22T21:14:27Z</time>
      </trkpt>
      <trkpt lat="50.93537" lon="1.85092">
        <ele>1.3</ele>
        <time>2020-06-22T21:14:28Z</time>
      </trkpt>
      <trkpt lat="50.93537" lon="1.85098">
        <ele>1.3</ele>
        <time>2020-06-22T21:14:29Z</time>
      </trkpt>
      <trkpt lat="50.93538" lon="1.85103">
        <ele>1.3</ele>
        <time>2020-06-22T21:14:30Z</time>
      </trkpt>
      <trkpt lat="50.93539" lon="1.85107">
        <ele>1.3</ele>
        <time>2020-06-22T21:14:31Z</time>
      </trkpt>
      <trkpt lat="50.9354" lon="1.85113">
        <ele>1.4</ele>
        <time>2020-06-22T21:14:32Z</time>
      </trkpt>
      <trkpt lat="50.93539" lon="1.85119">
        <ele>1.4</ele>
        <time>2020-06-22T21:14:33Z</time>
      </trkpt>
      <trkpt lat="50.93539" lon="1.85123">
        <ele>1.4</ele>
        <time>2020-06-22T21:14:34Z</time>
      </trkpt>
      <trkpt lat="50.93538" lon="1.85129">
        <ele>1.5</ele>
        <time>2020-06-22T21:14:35Z</time>
      </trkpt>
      <trkpt lat="50.93537" lon="1.85131">
        <ele>1.5</ele>
        <time>2020-06-22T21:14:36Z</time>
      </trkpt>
      <trkpt lat="50.93535" lon="1.85135">
        <ele>1.5</ele>
        <time>2020-06-22T21:14:37Z</time>
      </trkpt>
      <trkpt lat="50.93535" lon="1.85137">
        <ele>1.5</ele>
        <time>2020-06-22T21:14:38Z</time>
      </trkpt>
      <trkpt lat="50.93534" lon="1.85142">
        <ele>1.5</ele>
        <time>2020-06-22T21:14:39Z</time>
      </trkpt>
      <trkpt lat="50.93533" lon="1.85146">
        <ele>1.6</ele>
        <time>2020-06-22T21:14:40Z</time>
      </trkpt>
      <trkpt lat="50.93532" lon="1.85151">
        <ele>1.6</ele>
        <time>2020-06-22T21:14:41Z</time>
      </trkpt>
      <trkpt lat="50.93532" lon="1.85156">
        <ele>1.6</ele>
        <time>2020-06-22T21:14:42Z</time>
      </trkpt>
      <trkpt lat="50.93531" lon="1.85158">
        <ele>1.6</ele>
        <time>2020-06-22T21:14:43Z</time>
      </trkpt>
      <trkpt lat="50.9353" lon="1.85162">
        <ele>1.7</ele>
        <time>2020-06-22T21:14:44Z</time>
      </trkpt>
      <trkpt lat="50.9353" lon="1.85168">
        <ele>1.7</ele>
        <time>2020-06-22T21:14:45Z</time>
      </trkpt>
      <trkpt lat="50.93529" lon="1.85171">
        <ele>1.7</ele>
        <time>2020-06-22T21:14:46Z</time>
      </trkpt>
      <trkpt lat="50.93528" lon="1.85176">
        <ele>1.7</ele>
        <time>2020-06-22T21:14:47Z</time>
      </trkpt>
      <trkpt lat="50.93527" lon="1.85181">
        <ele>1.7</ele>
        <time>2020-06-22T21:14:48Z</time>
      </trkpt>
      <trkpt lat="50.93525" lon="1.85186">
        <ele>1.8</ele>
        <time>2020-06-22T21:14:49Z</time>
      </trkpt>
      <trkpt lat="50.93523" lon="1.85193">
        <ele>1.8</ele>
        <time>2020-06-22T21:14:50Z</time>
      </trkpt>
      <trkpt lat="50.93522" lon="1.85199">
        <ele>1.8</ele>
        <time>2020-06-22T21:14:51Z</time>
      </trkpt>
      <trkpt lat="50.93521" lon="1.85205">
        <ele>1.8</ele>
        <time>2020-06-22T21:14:52Z</time>
      </trkpt>
      <trkpt lat="50.9352" lon="1.85211">
        <ele>1.8</ele>
        <time>2020-06-22T21:14:53Z</time>
      </trkpt>
      <trkpt lat="50.93519" lon="1.85218">
        <ele>1.9</ele>
        <time>2020-06-22T21:14:54Z</time>
      </trkpt>
      <trkpt lat="50.93518" lon="1.85224">
        <ele>1.9</ele>
        <time>2020-06-22T21:14:55Z</time>
      </trkpt>
      <trkpt lat="50.93517" lon="1.8523">
        <ele>1.9</ele>
        <time>2020-06-22T21:14:56Z</time>
      </trkpt>
      <trkpt lat="50.93516" lon="1.85236">
        <ele>1.9</ele>
        <time>2020-06-22T21:14:57Z</time>
      </trkpt>
      <trkpt lat="50.93514" lon="1.85243">
        <ele>1.9</ele>
        <time>2020-06-22T21:14:58Z</time>
      </trkpt>
      <trkpt lat="50.93513" lon="1.85249">
        <ele>2</ele>
        <time>2020-06-22T21:14:59Z</time>
      </trkpt>
      <trkpt lat="50.93512" lon="1.85256">
        <ele>2</ele>
        <time>2020-06-22T21:15:00Z</time>
      </trkpt>
      <trkpt lat="50.93511" lon="1.85263">
        <ele>2</ele>
        <time>2020-06-22T21:15:01Z</time>
      </trkpt>
      <trkpt lat="50.9351" lon="1.85269">
        <ele>2</ele>
        <time>2020-06-22T21:15:02Z</time>
      </trkpt>
      <trkpt lat="50.93507" lon="1.85277">
        <ele>2</ele>
        <time>2020-06-22T21:15:03Z</time>
      </trkpt>
      <trkpt lat="50.93506" lon="1.85282">
        <ele>2.1</ele>
        <time>2020-06-22T21:15:04Z</time>
      </trkpt>
      <trkpt lat="50.93505" lon="1.85287">
        <ele>2.1</ele>
        <time>2020-06-22T21:15:05Z</time>
      </trkpt>
      <trkpt lat="50.93504" lon="1.85293">
        <ele>2.1</ele>
        <time>2020-06-22T21:15:06Z</time>
      </trkpt>
      <trkpt lat="50.93503" lon="1.85299">
        <ele>2</ele>
        <time>2020-06-22T21:15:07Z</time>
      </trkpt>
      <trkpt lat="50.93502" lon="1.85304">
        <ele>2</ele>
        <time>2020-06-22T21:15:08Z</time>
      </trkpt>
      <trkpt lat="50.93502" lon="1.8531">
        <ele>2</ele>
        <time>2020-06-22T21:15:09Z</time>
      </trkpt>
      <trkpt lat="50.93502" lon="1.85316">
        <ele>2</ele>
        <time>2020-06-22T21:15:10Z</time>
      </trkpt>
      <trkpt lat="50.935" lon="1.8532">
        <ele>2</ele>
        <time>2020-06-22T21:15:11Z</time>
      </trkpt>
      <trkpt lat="50.93497" lon="1.85326">
        <ele>2</ele>
        <time>2020-06-22T21:15:12Z</time>
      </trkpt>
      <trkpt lat="50.93496" lon="1.85331">
        <ele>2</ele>
        <time>2020-06-22T21:15:13Z</time>
      </trkpt>
      <trkpt lat="50.93496" lon="1.85337">
        <ele>2</ele>
        <time>2020-06-22T21:15:14Z</time>
      </trkpt>
      <trkpt lat="50.93495" lon="1.85343">
        <ele>2</ele>
        <time>2020-06-22T21:15:15Z</time>
      </trkpt>
      <trkpt lat="50.93495" lon="1.85349">
        <ele>2</ele>
        <time>2020-06-22T21:15:16Z</time>
      </trkpt>
      <trkpt lat="50.93494" lon="1.85356">
        <ele>2</ele>
        <time>2020-06-22T21:15:17Z</time>
      </trkpt>
      <trkpt lat="50.93493" lon="1.85361">
        <ele>2</ele>
        <time>2020-06-22T21:15:18Z</time>
      </trkpt>
      <trkpt lat="50.93492" lon="1.85367">
        <ele>2</ele>
        <time>2020-06-22T21:15:19Z</time>
      </trkpt>
      <trkpt lat="50.9349" lon="1.85374">
        <ele>2</ele>
        <time>2020-06-22T21:15:20Z</time>
      </trkpt>
      <trkpt lat="50.93489" lon="1.85381">
        <ele>2</ele>
        <time>2020-06-22T21:15:21Z</time>
      </trkpt>
      <trkpt lat="50.93487" lon="1.85387">
        <ele>2.1</ele>
        <time>2020-06-22T21:15:22Z</time>
      </trkpt>
      <trkpt lat="50.93486" lon="1.85394">
        <ele>2.1</ele>
        <time>2020-06-22T21:15:23Z</time>
      </trkpt>
      <trkpt lat="50.93485" lon="1.85401">
        <ele>2.1</ele>
        <time>2020-06-22T21:15:24Z</time>
      </trkpt>
      <trkpt lat="50.93484" lon="1.85407">
        <ele>2.1</ele>
        <time>2020-06-22T21:15:25Z</time>
      </trkpt>
      <trkpt lat="50.93483" lon="1.85414">
        <ele>2.1</ele>
        <time>2020-06-22T21:15:26Z</time>
      </trkpt>
      <trkpt lat="50.93481" lon="1.8542">
        <ele>2.1</ele>
        <time>2020-06-22T21:15:27Z</time>
      </trkpt>
      <trkpt lat="50.9348" lon="1.85427">
        <ele>2.1</ele>
        <time>2020-06-22T21:15:28Z</time>
      </trkpt>
      <trkpt lat="50.93479" lon="1.85433">
        <ele>2.1</ele>
        <time>2020-06-22T21:15:29Z</time>
      </trkpt>
      <trkpt lat="50.93479" lon="1.85439">
        <ele>2.1</ele>
        <time>2020-06-22T21:15:30Z</time>
      </trkpt>
      <trkpt lat="50.93478" lon="1.85445">
        <ele>2.1</ele>
        <time>2020-06-22T21:15:31Z</time>
      </trkpt>
      <trkpt lat="50.93477" lon="1.85451">
        <ele>2.2</ele>
        <time>2020-06-22T21:15:32Z</time>
      </trkpt>
      <trkpt lat="50.93477" lon="1.85458">
        <ele>2.2</ele>
        <time>2020-06-22T21:15:33Z</time>
      </trkpt>
      <trkpt lat="50.93476" lon="1.85462">
        <ele>2.2</ele>
        <time>2020-06-22T21:15:34Z</time>
      </trkpt>
      <trkpt lat="50.93472" lon="1.85469">
        <ele>2.1</ele>
        <time>2020-06-22T21:15:35Z</time>
      </trkpt>
      <trkpt lat="50.93471" lon="1.85474">
        <ele>2.1</ele>
        <time>2020-06-22T21:15:36Z</time>
      </trkpt>
      <trkpt lat="50.93471" lon="1.85479">
        <ele>2.1</ele>
        <time>2020-06-22T21:15:37Z</time>
      </trkpt>
      <trkpt lat="50.93474" lon="1.85484">
        <ele>2</ele>
        <time>2020-06-22T21:15:38Z</time>
      </trkpt>
      <trkpt lat="50.93475" lon="1.85486">
        <ele>2</ele>
        <time>2020-06-22T21:15:39Z</time>
      </trkpt>
      <trkpt lat="50.93479" lon="1.85489">
        <ele>2</ele>
        <time>2020-06-22T21:15:40Z</time>
      </trkpt>
      <trkpt lat="50.93484" lon="1.8549">
        <ele>2</ele>
        <time>2020-06-22T21:15:41Z</time>
      </trkpt>
      <trkpt lat="50.93489" lon="1.85487">
        <ele>2.1</ele>
        <time>2020-06-22T21:15:42Z</time>
      </trkpt>
      <trkpt lat="50.93493" lon="1.85481">
        <ele>2.2</ele>
        <time>2020-06-22T21:15:43Z</time>
      </trkpt>
      <trkpt lat="50.93498" lon="1.85477">
        <ele>2.3</ele>
        <time>2020-06-22T21:15:44Z</time>
      </trkpt>
      <trkpt lat="50.93502" lon="1.85473">
        <ele>2.4</ele>
        <time>2020-06-22T21:15:45Z</time>
      </trkpt>
      <trkpt lat="50.93505" lon="1.85471">
        <ele>2.5</ele>
        <time>2020-06-22T21:15:46Z</time>
      </trkpt>
      <trkpt lat="50.9351" lon="1.85467">
        <ele>2.6</ele>
        <time>2020-06-22T21:15:47Z</time>
      </trkpt>
      <trkpt lat="50.93514" lon="1.85463">
        <ele>2.7</ele>
        <time>2020-06-22T21:15:48Z</time>
      </trkpt>
      <trkpt lat="50.93519" lon="1.8546">
        <ele>2.9</ele>
        <time>2020-06-22T21:15:49Z</time>
      </trkpt>
      <trkpt lat="50.93523" lon="1.85456">
        <ele>3.1</ele>
        <time>2020-06-22T21:15:50Z</time>
      </trkpt>
      <trkpt lat="50.93527" lon="1.85451">
        <ele>3.2</ele>
        <time>2020-06-22T21:15:51Z</time>
      </trkpt>
      <trkpt lat="50.93531" lon="1.85447">
        <ele>3.5</ele>
        <time>2020-06-22T21:15:52Z</time>
      </trkpt>
      <trkpt lat="50.93536" lon="1.85442">
        <ele>3.7</ele>
        <time>2020-06-22T21:15:53Z</time>
      </trkpt>
      <trkpt lat="50.9354" lon="1.85437">
        <ele>3.9</ele>
        <time>2020-06-22T21:15:54Z</time>
      </trkpt>
      <trkpt lat="50.93544" lon="1.85434">
        <ele>4.1</ele>
        <time>2020-06-22T21:15:55Z</time>
      </trkpt>
      <trkpt lat="50.9355" lon="1.85429">
        <ele>4.3</ele>
        <time>2020-06-22T21:15:56Z</time>
      </trkpt>
      <trkpt lat="50.93554" lon="1.85425">
        <ele>4.5</ele>
        <time>2020-06-22T21:15:57Z</time>
      </trkpt>
      <trkpt lat="50.93558" lon="1.85421">
        <ele>4.7</ele>
        <time>2020-06-22T21:15:58Z</time>
      </trkpt>
      <trkpt lat="50.93562" lon="1.85416">
        <ele>4.9</ele>
        <time>2020-06-22T21:15:59Z</time>
      </trkpt>
      <trkpt lat="50.93567" lon="1.85412">
        <ele>5.1</ele>
        <time>2020-06-22T21:16:00Z</time>
      </trkpt>
      <trkpt lat="50.93571" lon="1.85408">
        <ele>5.3</ele>
        <time>2020-06-22T21:16:01Z</time>
      </trkpt>
      <trkpt lat="50.93576" lon="1.85404">
        <ele>5.5</ele>
        <time>2020-06-22T21:16:02Z</time>
      </trkpt>
      <trkpt lat="50.9358" lon="1.85399">
        <ele>5.7</ele>
        <time>2020-06-22T21:16:03Z</time>
      </trkpt>
      <trkpt lat="50.93584" lon="1.85394">
        <ele>5.9</ele>
        <time>2020-06-22T21:16:04Z</time>
      </trkpt>
      <trkpt lat="50.93587" lon="1.8539">
        <ele>6.1</ele>
        <time>2020-06-22T21:16:05Z</time>
      </trkpt>
      <trkpt lat="50.93591" lon="1.85385">
        <ele>6.3</ele>
        <time>2020-06-22T21:16:06Z</time>
      </trkpt>
      <trkpt lat="50.93594" lon="1.85379">
        <ele>6.5</ele>
        <time>2020-06-22T21:16:07Z</time>
      </trkpt>
      <trkpt lat="50.93598" lon="1.85374">
        <ele>6.7</ele>
        <time>2020-06-22T21:16:08Z</time>
      </trkpt>
      <trkpt lat="50.93601" lon="1.85369">
        <ele>6.9</ele>
        <time>2020-06-22T21:16:09Z</time>
      </trkpt>
      <trkpt lat="50.93604" lon="1.85365">
        <ele>7</ele>
        <time>2020-06-22T21:16:10Z</time>
      </trkpt>
      <trkpt lat="50.93607" lon="1.8536">
        <ele>7.2</ele>
        <time>2020-06-22T21:16:11Z</time>
      </trkpt>
      <trkpt lat="50.93611" lon="1.85355">
        <ele>7.3</ele>
        <time>2020-06-22T21:16:12Z</time>
      </trkpt>
      <trkpt lat="50.93613" lon="1.85351">
        <ele>7.4</ele>
        <time>2020-06-22T21:16:13Z</time>
      </trkpt>
      <trkpt lat="50.93616" lon="1.85346">
        <ele>7.5</ele>
        <time>2020-06-22T21:16:14Z</time>
      </trkpt>
      <trkpt lat="50.93619" lon="1.85342">
        <ele>7.6</ele>
        <time>2020-06-22T21:16:15Z</time>
      </trkpt>
      <trkpt lat="50.93621" lon="1.85338">
        <ele>7.8</ele>
        <time>2020-06-22T21:16:16Z</time>
      </trkpt>
      <trkpt lat="50.93623" lon="1.85334">
        <ele>7.9</ele>
        <time>2020-06-22T21:16:17Z</time>
      </trkpt>
      <trkpt lat="50.93625" lon="1.85329">
        <ele>8</ele>
        <time>2020-06-22T21:16:18Z</time>
      </trkpt>
      <trkpt lat="50.93625" lon="1.85326">
        <ele>8.1</ele>
        <time>2020-06-22T21:16:19Z</time>
      </trkpt>
      <trkpt lat="50.93627" lon="1.85322">
        <ele>8.2</ele>
        <time>2020-06-22T21:16:20Z</time>
      </trkpt>
      <trkpt lat="50.93629" lon="1.85317">
        <ele>8.3</ele>
        <time>2020-06-22T21:16:21Z</time>
      </trkpt>
      <trkpt lat="50.93631" lon="1.85312">
        <ele>8.4</ele>
        <time>2020-06-22T21:16:22Z</time>
      </trkpt>
      <trkpt lat="50.93632" lon="1.85307">
        <ele>8.4</ele>
        <time>2020-06-22T21:16:23Z</time>
      </trkpt>
      <trkpt lat="50.93634" lon="1.85302">
        <ele>8.5</ele>
        <time>2020-06-22T21:16:24Z</time>
      </trkpt>
      <trkpt lat="50.93636" lon="1.85295">
        <ele>8.6</ele>
        <time>2020-06-22T21:16:25Z</time>
      </trkpt>
      <trkpt lat="50.93638" lon="1.8529">
        <ele>8.7</ele>
        <time>2020-06-22T21:16:26Z</time>
      </trkpt>
      <trkpt lat="50.9364" lon="1.85283">
        <ele>9</ele>
        <time>2020-06-22T21:16:27Z</time>
      </trkpt>
      <trkpt lat="50.9364" lon="1.85277">
        <ele>9</ele>
        <time>2020-06-22T21:16:28Z</time>
      </trkpt>
      <trkpt lat="50.93641" lon="1.8527">
        <ele>9.1</ele>
        <time>2020-06-22T21:16:29Z</time>
      </trkpt>
      <trkpt lat="50.93642" lon="1.85263">
        <ele>9.1</ele>
        <time>2020-06-22T21:16:30Z</time>
      </trkpt>
      <trkpt lat="50.93643" lon="1.85256">
        <ele>9.1</ele>
        <time>2020-06-22T21:16:31Z</time>
      </trkpt>
      <trkpt lat="50.93643" lon="1.85249">
        <ele>9</ele>
        <time>2020-06-22T21:16:32Z</time>
      </trkpt>
      <trkpt lat="50.93645" lon="1.85242">
        <ele>9</ele>
        <time>2020-06-22T21:16:33Z</time>
      </trkpt>
      <trkpt lat="50.93645" lon="1.85235">
        <ele>9</ele>
        <time>2020-06-22T21:16:34Z</time>
      </trkpt>
      <trkpt lat="50.93646" lon="1.85228">
        <ele>8.9</ele>
        <time>2020-06-22T21:16:35Z</time>
      </trkpt>
      <trkpt lat="50.93646" lon="1.8522">
        <ele>8.9</ele>
        <time>2020-06-22T21:16:36Z</time>
      </trkpt>
      <trkpt lat="50.93646" lon="1.85213">
        <ele>8.8</ele>
        <time>2020-06-22T21:16:37Z</time>
      </trkpt>
      <trkpt lat="50.93645" lon="1.85204">
        <ele>8.6</ele>
        <time>2020-06-22T21:16:38Z</time>
      </trkpt>
      <trkpt lat="50.93645" lon="1.85196">
        <ele>8.5</ele>
        <time>2020-06-22T21:16:39Z</time>
      </trkpt>
      <trkpt lat="50.93645" lon="1.85187">
        <ele>8.3</ele>
        <time>2020-06-22T21:16:40Z</time>
      </trkpt>
      <trkpt lat="50.93644" lon="1.85178">
        <ele>8</ele>
        <time>2020-06-22T21:16:41Z</time>
      </trkpt>
      <trkpt lat="50.93643" lon="1.85168">
        <ele>7.7</ele>
        <time>2020-06-22T21:16:42Z</time>
      </trkpt>
      <trkpt lat="50.9364" lon="1.85157">
        <ele>7.3</ele>
        <time>2020-06-22T21:16:43Z</time>
      </trkpt>
      <trkpt lat="50.93636" lon="1.85146">
        <ele>6.9</ele>
        <time>2020-06-22T21:16:44Z</time>
      </trkpt>
      <trkpt lat="50.93634" lon="1.85135">
        <ele>6.5</ele>
        <time>2020-06-22T21:16:45Z</time>
      </trkpt>
      <trkpt lat="50.93632" lon="1.85126">
        <ele>6.2</ele>
        <time>2020-06-22T21:16:46Z</time>
      </trkpt>
      <trkpt lat="50.9363" lon="1.85116">
        <ele>5.8</ele>
        <time>2020-06-22T21:16:47Z</time>
      </trkpt>
      <trkpt lat="50.93628" lon="1.85107">
        <ele>5.5</ele>
        <time>2020-06-22T21:16:48Z</time>
      </trkpt>
      <trkpt lat="50.93627" lon="1.85097">
        <ele>5.2</ele>
        <time>2020-06-22T21:16:49Z</time>
      </trkpt>
      <trkpt lat="50.93626" lon="1.85085">
        <ele>4.8</ele>
        <time>2020-06-22T21:16:50Z</time>
      </trkpt>
      <trkpt lat="50.93625" lon="1.85072">
        <ele>4.4</ele>
        <time>2020-06-22T21:16:51Z</time>
      </trkpt>
      <trkpt lat="50.93626" lon="1.85059">
        <ele>4</ele>
        <time>2020-06-22T21:16:52Z</time>
      </trkpt>
      <trkpt lat="50.93629" lon="1.85048">
        <ele>3.6</ele>
        <time>2020-06-22T21:16:53Z</time>
      </trkpt>
      <trkpt lat="50.93634" lon="1.85037">
        <ele>3.2</ele>
        <time>2020-06-22T21:16:54Z</time>
      </trkpt>
      <trkpt lat="50.9364" lon="1.85028">
        <ele>2.9</ele>
        <time>2020-06-22T21:16:55Z</time>
      </trkpt>
      <trkpt lat="50.93647" lon="1.85023">
        <ele>2.7</ele>
        <time>2020-06-22T21:16:56Z</time>
      </trkpt>
      <trkpt lat="50.93654" lon="1.8502">
        <ele>2.4</ele>
        <time>2020-06-22T21:16:57Z</time>
      </trkpt>
      <trkpt lat="50.9366" lon="1.85018">
        <ele>2.3</ele>
        <time>2020-06-22T21:16:58Z</time>
      </trkpt>
      <trkpt lat="50.93666" lon="1.85017">
        <ele>2.1</ele>
        <time>2020-06-22T21:16:59Z</time>
      </trkpt>
      <trkpt lat="50.93674" lon="1.85016">
        <ele>1.8</ele>
        <time>2020-06-22T21:17:00Z</time>
      </trkpt>
      <trkpt lat="50.9368" lon="1.85019">
        <ele>1.7</ele>
        <time>2020-06-22T21:17:01Z</time>
      </trkpt>
      <trkpt lat="50.93685" lon="1.85021">
        <ele>1.6</ele>
        <time>2020-06-22T21:17:02Z</time>
      </trkpt>
      <trkpt lat="50.93691" lon="1.85028">
        <ele>1.6</ele>
        <time>2020-06-22T21:17:03Z</time>
      </trkpt>
      <trkpt lat="50.93694" lon="1.85037">
        <ele>1.6</ele>
        <time>2020-06-22T21:17:04Z</time>
      </trkpt>
      <trkpt lat="50.93697" lon="1.85045">
        <ele>1.7</ele>
        <time>2020-06-22T21:17:05Z</time>
      </trkpt>
      <trkpt lat="50.937" lon="1.85054">
        <ele>1.9</ele>
        <time>2020-06-22T21:17:06Z</time>
      </trkpt>
      <trkpt lat="50.93703" lon="1.85063">
        <ele>2.1</ele>
        <time>2020-06-22T21:17:07Z</time>
      </trkpt>
      <trkpt lat="50.93704" lon="1.85074">
        <ele>2.4</ele>
        <time>2020-06-22T21:17:08Z</time>
      </trkpt>
      <trkpt lat="50.93707" lon="1.85083">
        <ele>2.6</ele>
        <time>2020-06-22T21:17:09Z</time>
      </trkpt>
      <trkpt lat="50.93709" lon="1.85092">
        <ele>2.9</ele>
        <time>2020-06-22T21:17:10Z</time>
      </trkpt>
      <trkpt lat="50.93712" lon="1.851">
        <ele>3.2</ele>
        <time>2020-06-22T21:17:11Z</time>
      </trkpt>
      <trkpt lat="50.93713" lon="1.85109">
        <ele>3.4</ele>
        <time>2020-06-22T21:17:12Z</time>
      </trkpt>
      <trkpt lat="50.93715" lon="1.85117">
        <ele>3.7</ele>
        <time>2020-06-22T21:17:13Z</time>
      </trkpt>
      <trkpt lat="50.93717" lon="1.85125">
        <ele>4</ele>
        <time>2020-06-22T21:17:14Z</time>
      </trkpt>
      <trkpt lat="50.93719" lon="1.85131">
        <ele>4.2</ele>
        <time>2020-06-22T21:17:15Z</time>
      </trkpt>
      <trkpt lat="50.93721" lon="1.85137">
        <ele>4.7</ele>
        <time>2020-06-22T21:17:16Z</time>
      </trkpt>
      <trkpt lat="50.93723" lon="1.85146">
        <ele>5.2</ele>
        <time>2020-06-22T21:17:17Z</time>
      </trkpt>
      <trkpt lat="50.93725" lon="1.85154">
        <ele>5.6</ele>
        <time>2020-06-22T21:17:18Z</time>
      </trkpt>
      <trkpt lat="50.93726" lon="1.85165">
        <ele>6.1</ele>
        <time>2020-06-22T21:17:19Z</time>
      </trkpt>
      <trkpt lat="50.93728" lon="1.85172">
        <ele>6.5</ele>
        <time>2020-06-22T21:17:20Z</time>
      </trkpt>
      <trkpt lat="50.9373" lon="1.85179">
        <ele>6.9</ele>
        <time>2020-06-22T21:17:21Z</time>
      </trkpt>
      <trkpt lat="50.93731" lon="1.85187">
        <ele>7.3</ele>
        <time>2020-06-22T21:17:22Z</time>
      </trkpt>
      <trkpt lat="50.93733" lon="1.85193">
        <ele>7.7</ele>
        <time>2020-06-22T21:17:23Z</time>
      </trkpt>
      <trkpt lat="50.93734" lon="1.85198">
        <ele>8</ele>
        <time>2020-06-22T21:17:24Z</time>
      </trkpt>
      <trkpt lat="50.93735" lon="1.85205">
        <ele>8.3</ele>
        <time>2020-06-22T21:17:25Z</time>
      </trkpt>
      <trkpt lat="50.93736" lon="1.85208">
        <ele>8.5</ele>
        <time>2020-06-22T21:17:26Z</time>
      </trkpt>
      <trkpt lat="50.93737" lon="1.85213">
        <ele>8.7</ele>
        <time>2020-06-22T21:17:27Z</time>
      </trkpt>
      <trkpt lat="50.93737" lon="1.85215">
        <ele>8.7</ele>
        <time>2020-06-22T21:17:28Z</time>
      </trkpt>
      <trkpt lat="50.93737" lon="1.8522">
        <ele>8.7</ele>
        <time>2020-06-22T21:17:29Z</time>
      </trkpt>
      <trkpt lat="50.93738" lon="1.85223">
        <ele>8.7</ele>
        <time>2020-06-22T21:17:30Z</time>
      </trkpt>
      <trkpt lat="50.93738" lon="1.85228">
        <ele>8.6</ele>
        <time>2020-06-22T21:17:31Z</time>
      </trkpt>
      <trkpt lat="50.93738" lon="1.85234">
        <ele>8.6</ele>
        <time>2020-06-22T21:17:32Z</time>
      </trkpt>
      <trkpt lat="50.93739" lon="1.85236">
        <ele>8.6</ele>
        <time>2020-06-22T21:17:33Z</time>
      </trkpt>
      <trkpt lat="50.9374" lon="1.8524">
        <ele>8.6</ele>
        <time>2020-06-22T21:17:34Z</time>
      </trkpt>
      <trkpt lat="50.93741" lon="1.85245">
        <ele>8.6</ele>
        <time>2020-06-22T21:17:35Z</time>
      </trkpt>
      <trkpt lat="50.93742" lon="1.8525">
        <ele>8.6</ele>
        <time>2020-06-22T21:17:36Z</time>
      </trkpt>
      <trkpt lat="50.93742" lon="1.85251">
        <ele>8.6</ele>
        <time>2020-06-22T21:17:37Z</time>
      </trkpt>
      <trkpt lat="50.93743" lon="1.85256">
        <ele>8.6</ele>
        <time>2020-06-22T21:17:38Z</time>
      </trkpt>
      <trkpt lat="50.93744" lon="1.85261">
        <ele>8.6</ele>
        <time>2020-06-22T21:17:39Z</time>
      </trkpt>
      <trkpt lat="50.93745" lon="1.85263">
        <ele>8.6</ele>
        <time>2020-06-22T21:17:40Z</time>
      </trkpt>
      <trkpt lat="50.93746" lon="1.85269">
        <ele>8.6</ele>
        <time>2020-06-22T21:17:41Z</time>
      </trkpt>
      <trkpt lat="50.93746" lon="1.85271">
        <ele>8.6</ele>
        <time>2020-06-22T21:17:42Z</time>
      </trkpt>
      <trkpt lat="50.93746" lon="1.85275">
        <ele>8.5</ele>
        <time>2020-06-22T21:17:43Z</time>
      </trkpt>
      <trkpt lat="50.93746" lon="1.85281">
        <ele>8.5</ele>
        <time>2020-06-22T21:17:44Z</time>
      </trkpt>
      <trkpt lat="50.93747" lon="1.85289">
        <ele>8.4</ele>
        <time>2020-06-22T21:17:45Z</time>
      </trkpt>
      <trkpt lat="50.93747" lon="1.85297">
        <ele>8.2</ele>
        <time>2020-06-22T21:17:46Z</time>
      </trkpt>
      <trkpt lat="50.93747" lon="1.85305">
        <ele>8.1</ele>
        <time>2020-06-22T21:17:47Z</time>
      </trkpt>
      <trkpt lat="50.93748" lon="1.85313">
        <ele>7.9</ele>
        <time>2020-06-22T21:17:48Z</time>
      </trkpt>
      <trkpt lat="50.93749" lon="1.8532">
        <ele>7.7</ele>
        <time>2020-06-22T21:17:49Z</time>
      </trkpt>
      <trkpt lat="50.93751" lon="1.8533">
        <ele>7.4</ele>
        <time>2020-06-22T21:17:50Z</time>
      </trkpt>
      <trkpt lat="50.93752" lon="1.85341">
        <ele>7.1</ele>
        <time>2020-06-22T21:17:51Z</time>
      </trkpt>
      <trkpt lat="50.93754" lon="1.8535">
        <ele>6.8</ele>
        <time>2020-06-22T21:17:52Z</time>
      </trkpt>
      <trkpt lat="50.93756" lon="1.85361">
        <ele>6.4</ele>
        <time>2020-06-22T21:17:53Z</time>
      </trkpt>
      <trkpt lat="50.93757" lon="1.8537">
        <ele>6.1</ele>
        <time>2020-06-22T21:17:54Z</time>
      </trkpt>
      <trkpt lat="50.93758" lon="1.85381">
        <ele>5.8</ele>
        <time>2020-06-22T21:17:55Z</time>
      </trkpt>
      <trkpt lat="50.93759" lon="1.85392">
        <ele>5.4</ele>
        <time>2020-06-22T21:17:56Z</time>
      </trkpt>
      <trkpt lat="50.93761" lon="1.85404">
        <ele>5.2</ele>
        <time>2020-06-22T21:17:57Z</time>
      </trkpt>
      <trkpt lat="50.93761" lon="1.85413">
        <ele>5</ele>
        <time>2020-06-22T21:17:58Z</time>
      </trkpt>
      <trkpt lat="50.93762" lon="1.85423">
        <ele>4.8</ele>
        <time>2020-06-22T21:17:59Z</time>
      </trkpt>
      <trkpt lat="50.93763" lon="1.85433">
        <ele>4.7</ele>
        <time>2020-06-22T21:18:00Z</time>
      </trkpt>
      <trkpt lat="50.93763" lon="1.85442">
        <ele>4.5</ele>
        <time>2020-06-22T21:18:01Z</time>
      </trkpt>
      <trkpt lat="50.93762" lon="1.85451">
        <ele>4.3</ele>
        <time>2020-06-22T21:18:02Z</time>
      </trkpt>
      <trkpt lat="50.93762" lon="1.85458">
        <ele>4.2</ele>
        <time>2020-06-22T21:18:03Z</time>
      </trkpt>
      <trkpt lat="50.93761" lon="1.85466">
        <ele>4</ele>
        <time>2020-06-22T21:18:04Z</time>
      </trkpt>
      <trkpt lat="50.93761" lon="1.85475">
        <ele>3.8</ele>
        <time>2020-06-22T21:18:05Z</time>
      </trkpt>
      <trkpt lat="50.93764" lon="1.85484">
        <ele>3.7</ele>
        <time>2020-06-22T21:18:06Z</time>
      </trkpt>
      <trkpt lat="50.93769" lon="1.85487">
        <ele>3.5</ele>
        <time>2020-06-22T21:18:07Z</time>
      </trkpt>
      <trkpt lat="50.93776" lon="1.85488">
        <ele>3.3</ele>
        <time>2020-06-22T21:18:08Z</time>
      </trkpt>
      <trkpt lat="50.93782" lon="1.85484">
        <ele>3.1</ele>
        <time>2020-06-22T21:18:09Z</time>
      </trkpt>
      <trkpt lat="50.93787" lon="1.85479">
        <ele>3.8</ele>
        <time>2020-06-22T21:18:10Z</time>
      </trkpt>
      <trkpt lat="50.93792" lon="1.85475">
        <ele>3.7</ele>
        <time>2020-06-22T21:18:11Z</time>
      </trkpt>
      <trkpt lat="50.93797" lon="1.85472">
        <ele>3.6</ele>
        <time>2020-06-22T21:18:12Z</time>
      </trkpt>
      <trkpt lat="50.93802" lon="1.85471">
        <ele>3.5</ele>
        <time>2020-06-22T21:18:13Z</time>
      </trkpt>
      <trkpt lat="50.93808" lon="1.8547">
        <ele>3.4</ele>
        <time>2020-06-22T21:18:14Z</time>
      </trkpt>
      <trkpt lat="50.93814" lon="1.8547">
        <ele>3.3</ele>
        <time>2020-06-22T21:18:15Z</time>
      </trkpt>
      <trkpt lat="50.93817" lon="1.8547">
        <ele>3.3</ele>
        <time>2020-06-22T21:18:16Z</time>
      </trkpt>
      <trkpt lat="50.93823" lon="1.8547">
        <ele>3.2</ele>
        <time>2020-06-22T21:18:17Z</time>
      </trkpt>
      <trkpt lat="50.9383" lon="1.85471">
        <ele>3.2</ele>
        <time>2020-06-22T21:18:18Z</time>
      </trkpt>
      <trkpt lat="50.93836" lon="1.85472">
        <ele>3.2</ele>
        <time>2020-06-22T21:18:19Z</time>
      </trkpt>
      <trkpt lat="50.93842" lon="1.85473">
        <ele>3.2</ele>
        <time>2020-06-22T21:18:20Z</time>
      </trkpt>
      <trkpt lat="50.93848" lon="1.85472">
        <ele>3.1</ele>
        <time>2020-06-22T21:18:21Z</time>
      </trkpt>
      <trkpt lat="50.93854" lon="1.85472">
        <ele>3.1</ele>
        <time>2020-06-22T21:18:22Z</time>
      </trkpt>
      <trkpt lat="50.93859" lon="1.85474">
        <ele>3.1</ele>
        <time>2020-06-22T21:18:23Z</time>
      </trkpt>
      <trkpt lat="50.93864" lon="1.85475">
        <ele>3.1</ele>
        <time>2020-06-22T21:18:24Z</time>
      </trkpt>
      <trkpt lat="50.9387" lon="1.85474">
        <ele>3.2</ele>
        <time>2020-06-22T21:18:25Z</time>
      </trkpt>
      <trkpt lat="50.93875" lon="1.85473">
        <ele>3.2</ele>
        <time>2020-06-22T21:18:26Z</time>
      </trkpt>
      <trkpt lat="50.93881" lon="1.85472">
        <ele>3.2</ele>
        <time>2020-06-22T21:18:27Z</time>
      </trkpt>
      <trkpt lat="50.93887" lon="1.85471">
        <ele>3.2</ele>
        <time>2020-06-22T21:18:28Z</time>
      </trkpt>
      <trkpt lat="50.93892" lon="1.85471">
        <ele>3.2</ele>
        <time>2020-06-22T21:18:29Z</time>
      </trkpt>
      <trkpt lat="50.93898" lon="1.8547">
        <ele>3.3</ele>
        <time>2020-06-22T21:18:30Z</time>
      </trkpt>
      <trkpt lat="50.93904" lon="1.85469">
        <ele>3.3</ele>
        <time>2020-06-22T21:18:31Z</time>
      </trkpt>
      <trkpt lat="50.93912" lon="1.8547">
        <ele>3.4</ele>
        <time>2020-06-22T21:18:32Z</time>
      </trkpt>
      <trkpt lat="50.93918" lon="1.8547">
        <ele>3.3</ele>
        <time>2020-06-22T21:18:33Z</time>
      </trkpt>
      <trkpt lat="50.93924" lon="1.85469">
        <ele>3.3</ele>
        <time>2020-06-22T21:18:34Z</time>
      </trkpt>
      <trkpt lat="50.93929" lon="1.85468">
        <ele>3.3</ele>
        <time>2020-06-22T21:18:35Z</time>
      </trkpt>
      <trkpt lat="50.93936" lon="1.85468">
        <ele>3.3</ele>
        <time>2020-06-22T21:18:36Z</time>
      </trkpt>
      <trkpt lat="50.93941" lon="1.85468">
        <ele>3.3</ele>
        <time>2020-06-22T21:18:37Z</time>
      </trkpt>
      <trkpt lat="50.93947" lon="1.85468">
        <ele>3.2</ele>
        <time>2020-06-22T21:18:38Z</time>
      </trkpt>
      <trkpt lat="50.93954" lon="1.85468">
        <ele>3.2</ele>
        <time>2020-06-22T21:18:39Z</time>
      </trkpt>
      <trkpt lat="50.9396" lon="1.85468">
        <ele>3.2</ele>
        <time>2020-06-22T21:18:40Z</time>
      </trkpt>
      <trkpt lat="50.93965" lon="1.85469">
        <ele>3.2</ele>
        <time>2020-06-22T21:18:41Z</time>
      </trkpt>
      <trkpt lat="50.9397" lon="1.85471">
        <ele>3.2</ele>
        <time>2020-06-22T21:18:42Z</time>
      </trkpt>
      <trkpt lat="50.93975" lon="1.85472">
        <ele>3.2</ele>
        <time>2020-06-22T21:18:43Z</time>
      </trkpt>
      <trkpt lat="50.93981" lon="1.85472">
        <ele>3.2</ele>
        <time>2020-06-22T21:18:44Z</time>
      </trkpt>
      <trkpt lat="50.93986" lon="1.85471">
        <ele>3.3</ele>
        <time>2020-06-22T21:18:45Z</time>
      </trkpt>
      <trkpt lat="50.93991" lon="1.85471">
        <ele>3.3</ele>
        <time>2020-06-22T21:18:46Z</time>
      </trkpt>
      <trkpt lat="50.93997" lon="1.8547">
        <ele>3.4</ele>
        <time>2020-06-22T21:18:47Z</time>
      </trkpt>
      <trkpt lat="50.94004" lon="1.85469">
        <ele>3.5</ele>
        <time>2020-06-22T21:18:48Z</time>
      </trkpt>
      <trkpt lat="50.9401" lon="1.85469">
        <ele>3.4</ele>
        <time>2020-06-22T21:18:49Z</time>
      </trkpt>
      <trkpt lat="50.94016" lon="1.85467">
        <ele>3.4</ele>
        <time>2020-06-22T21:18:50Z</time>
      </trkpt>
      <trkpt lat="50.94021" lon="1.85466">
        <ele>3.4</ele>
        <time>2020-06-22T21:18:51Z</time>
      </trkpt>
      <trkpt lat="50.94026" lon="1.85466">
        <ele>3.4</ele>
        <time>2020-06-22T21:18:52Z</time>
      </trkpt>
      <trkpt lat="50.94031" lon="1.85465">
        <ele>3.4</ele>
        <time>2020-06-22T21:18:53Z</time>
      </trkpt>
      <trkpt lat="50.94037" lon="1.85464">
        <ele>3.4</ele>
        <time>2020-06-22T21:18:54Z</time>
      </trkpt>
      <trkpt lat="50.94043" lon="1.85462">
        <ele>3.5</ele>
        <time>2020-06-22T21:18:55Z</time>
      </trkpt>
      <trkpt lat="50.94048" lon="1.85463">
        <ele>3.5</ele>
        <time>2020-06-22T21:18:56Z</time>
      </trkpt>
      <trkpt lat="50.94056" lon="1.85464">
        <ele>3.5</ele>
        <time>2020-06-22T21:18:57Z</time>
      </trkpt>
      <trkpt lat="50.94062" lon="1.85464">
        <ele>3.6</ele>
        <time>2020-06-22T21:18:58Z</time>
      </trkpt>
      <trkpt lat="50.94068" lon="1.85464">
        <ele>3.6</ele>
        <time>2020-06-22T21:18:59Z</time>
      </trkpt>
      <trkpt lat="50.94075" lon="1.85461">
        <ele>3.7</ele>
        <time>2020-06-22T21:19:00Z</time>
      </trkpt>
      <trkpt lat="50.9408" lon="1.85461">
        <ele>3.7</ele>
        <time>2020-06-22T21:19:01Z</time>
      </trkpt>
      <trkpt lat="50.94085" lon="1.85461">
        <ele>3.7</ele>
        <time>2020-06-22T21:19:02Z</time>
      </trkpt>
      <trkpt lat="50.94091" lon="1.85461">
        <ele>3.7</ele>
        <time>2020-06-22T21:19:03Z</time>
      </trkpt>
      <trkpt lat="50.94097" lon="1.85462">
        <ele>3.7</ele>
        <time>2020-06-22T21:19:04Z</time>
      </trkpt>
      <trkpt lat="50.94102" lon="1.85463">
        <ele>3.7</ele>
        <time>2020-06-22T21:19:05Z</time>
      </trkpt>
      <trkpt lat="50.94107" lon="1.85464">
        <ele>3.7</ele>
        <time>2020-06-22T21:19:06Z</time>
      </trkpt>
      <trkpt lat="50.94114" lon="1.85463">
        <ele>3.8</ele>
        <time>2020-06-22T21:19:07Z</time>
      </trkpt>
      <trkpt lat="50.94123" lon="1.85465">
        <ele>3.8</ele>
        <time>2020-06-22T21:19:08Z</time>
      </trkpt>
      <trkpt lat="50.94129" lon="1.85464">
        <ele>3.8</ele>
        <time>2020-06-22T21:19:09Z</time>
      </trkpt>
      <trkpt lat="50.94135" lon="1.85463">
        <ele>3.8</ele>
        <time>2020-06-22T21:19:10Z</time>
      </trkpt>
      <trkpt lat="50.94141" lon="1.85461">
        <ele>3.9</ele>
        <time>2020-06-22T21:19:11Z</time>
      </trkpt>
      <trkpt lat="50.94147" lon="1.85461">
        <ele>3.9</ele>
        <time>2020-06-22T21:19:12Z</time>
      </trkpt>
      <trkpt lat="50.94153" lon="1.85461">
        <ele>3.9</ele>
        <time>2020-06-22T21:19:13Z</time>
      </trkpt>
      <trkpt lat="50.94158" lon="1.8546">
        <ele>3.9</ele>
        <time>2020-06-22T21:19:14Z</time>
      </trkpt>
      <trkpt lat="50.94164" lon="1.8546">
        <ele>3.9</ele>
        <time>2020-06-22T21:19:15Z</time>
      </trkpt>
      <trkpt lat="50.94169" lon="1.85458">
        <ele>4</ele>
        <time>2020-06-22T21:19:16Z</time>
      </trkpt>
      <trkpt lat="50.94176" lon="1.85458">
        <ele>4</ele>
        <time>2020-06-22T21:19:17Z</time>
      </trkpt>
      <trkpt lat="50.94184" lon="1.85458">
        <ele>4.1</ele>
        <time>2020-06-22T21:19:18Z</time>
      </trkpt>
      <trkpt lat="50.94191" lon="1.85457">
        <ele>4.1</ele>
        <time>2020-06-22T21:19:19Z</time>
      </trkpt>
      <trkpt lat="50.94197" lon="1.85456">
        <ele>4.1</ele>
        <time>2020-06-22T21:19:20Z</time>
      </trkpt>
      <trkpt lat="50.94203" lon="1.85457">
        <ele>4.1</ele>
        <time>2020-06-22T21:19:21Z</time>
      </trkpt>
      <trkpt lat="50.9421" lon="1.85455">
        <ele>4.2</ele>
        <time>2020-06-22T21:19:22Z</time>
      </trkpt>
      <trkpt lat="50.94217" lon="1.85455">
        <ele>4.2</ele>
        <time>2020-06-22T21:19:23Z</time>
      </trkpt>
      <trkpt lat="50.94223" lon="1.85455">
        <ele>4.2</ele>
        <time>2020-06-22T21:19:24Z</time>
      </trkpt>
      <trkpt lat="50.94229" lon="1.85455">
        <ele>4.3</ele>
        <time>2020-06-22T21:19:25Z</time>
      </trkpt>
      <trkpt lat="50.94236" lon="1.85454">
        <ele>4.3</ele>
        <time>2020-06-22T21:19:26Z</time>
      </trkpt>
      <trkpt lat="50.94244" lon="1.85453">
        <ele>4.3</ele>
        <time>2020-06-22T21:19:27Z</time>
      </trkpt>
      <trkpt lat="50.94251" lon="1.85452">
        <ele>4.3</ele>
        <time>2020-06-22T21:19:28Z</time>
      </trkpt>
      <trkpt lat="50.94255" lon="1.85451">
        <ele>4.3</ele>
        <time>2020-06-22T21:19:29Z</time>
      </trkpt>
      <trkpt lat="50.94261" lon="1.8545">
        <ele>4.3</ele>
        <time>2020-06-22T21:19:30Z</time>
      </trkpt>
      <trkpt lat="50.94266" lon="1.85448">
        <ele>4.3</ele>
        <time>2020-06-22T21:19:31Z</time>
      </trkpt>
      <trkpt lat="50.94272" lon="1.85447">
        <ele>4.4</ele>
        <time>2020-06-22T21:19:32Z</time>
      </trkpt>
      <trkpt lat="50.94277" lon="1.85447">
        <ele>4.4</ele>
        <time>2020-06-22T21:19:33Z</time>
      </trkpt>
      <trkpt lat="50.94286" lon="1.85451">
        <ele>4.5</ele>
        <time>2020-06-22T21:19:34Z</time>
      </trkpt>
      <trkpt lat="50.94293" lon="1.85453">
        <ele>4.6</ele>
        <time>2020-06-22T21:19:35Z</time>
      </trkpt>
      <trkpt lat="50.94301" lon="1.85454">
        <ele>4.7</ele>
        <time>2020-06-22T21:19:36Z</time>
      </trkpt>
      <trkpt lat="50.94306" lon="1.85454">
        <ele>4.7</ele>
        <time>2020-06-22T21:19:37Z</time>
      </trkpt>
      <trkpt lat="50.94312" lon="1.85453">
        <ele>4.8</ele>
        <time>2020-06-22T21:19:38Z</time>
      </trkpt>
      <trkpt lat="50.94317" lon="1.85452">
        <ele>4.8</ele>
        <time>2020-06-22T21:19:39Z</time>
      </trkpt>
      <trkpt lat="50.94323" lon="1.85452">
        <ele>4.9</ele>
        <time>2020-06-22T21:19:40Z</time>
      </trkpt>
      <trkpt lat="50.94329" lon="1.85451">
        <ele>4.9</ele>
        <time>2020-06-22T21:19:41Z</time>
      </trkpt>
      <trkpt lat="50.94336" lon="1.85453">
        <ele>4.9</ele>
        <time>2020-06-22T21:19:42Z</time>
      </trkpt>
      <trkpt lat="50.94342" lon="1.85455">
        <ele>4.9</ele>
        <time>2020-06-22T21:19:43Z</time>
      </trkpt>
      <trkpt lat="50.94348" lon="1.85454">
        <ele>4.9</ele>
        <time>2020-06-22T21:19:44Z</time>
      </trkpt>
      <trkpt lat="50.94352" lon="1.85452">
        <ele>5</ele>
        <time>2020-06-22T21:19:45Z</time>
      </trkpt>
      <trkpt lat="50.94359" lon="1.85451">
        <ele>5.1</ele>
        <time>2020-06-22T21:19:46Z</time>
      </trkpt>
      <trkpt lat="50.94366" lon="1.85449">
        <ele>5.1</ele>
        <time>2020-06-22T21:19:47Z</time>
      </trkpt>
      <trkpt lat="50.94372" lon="1.85448">
        <ele>5.2</ele>
        <time>2020-06-22T21:19:48Z</time>
      </trkpt>
      <trkpt lat="50.94379" lon="1.85447">
        <ele>5.2</ele>
        <time>2020-06-22T21:19:49Z</time>
      </trkpt>
      <trkpt lat="50.94385" lon="1.85446">
        <ele>5.2</ele>
        <time>2020-06-22T21:19:50Z</time>
      </trkpt>
      <trkpt lat="50.94389" lon="1.85444">
        <ele>5.3</ele>
        <time>2020-06-22T21:19:51Z</time>
      </trkpt>
      <trkpt lat="50.94398" lon="1.85448">
        <ele>5.3</ele>
        <time>2020-06-22T21:19:52Z</time>
      </trkpt>
      <trkpt lat="50.94405" lon="1.85449">
        <ele>5.4</ele>
        <time>2020-06-22T21:19:53Z</time>
      </trkpt>
      <trkpt lat="50.94411" lon="1.85449">
        <ele>5.4</ele>
        <time>2020-06-22T21:19:54Z</time>
      </trkpt>
      <trkpt lat="50.94416" lon="1.85448">
        <ele>5.4</ele>
        <time>2020-06-22T21:19:55Z</time>
      </trkpt>
      <trkpt lat="50.94422" lon="1.85447">
        <ele>5.4</ele>
        <time>2020-06-22T21:19:56Z</time>
      </trkpt>
      <trkpt lat="50.94427" lon="1.85445">
        <ele>5.5</ele>
        <time>2020-06-22T21:19:57Z</time>
      </trkpt>
      <trkpt lat="50.94433" lon="1.85443">
        <ele>5.5</ele>
        <time>2020-06-22T21:19:58Z</time>
      </trkpt>
      <trkpt lat="50.94438" lon="1.85443">
        <ele>5.5</ele>
        <time>2020-06-22T21:19:59Z</time>
      </trkpt>
      <trkpt lat="50.94443" lon="1.85443">
        <ele>5.5</ele>
        <time>2020-06-22T21:20:00Z</time>
      </trkpt>
      <trkpt lat="50.9445" lon="1.85446">
        <ele>5.6</ele>
        <time>2020-06-22T21:20:01Z</time>
      </trkpt>
      <trkpt lat="50.94455" lon="1.85448">
        <ele>5.6</ele>
        <time>2020-06-22T21:20:02Z</time>
      </trkpt>
      <trkpt lat="50.9446" lon="1.85448">
        <ele>5.6</ele>
        <time>2020-06-22T21:20:03Z</time>
      </trkpt>
      <trkpt lat="50.94466" lon="1.85448">
        <ele>5.6</ele>
        <time>2020-06-22T21:20:04Z</time>
      </trkpt>
      <trkpt lat="50.94472" lon="1.85448">
        <ele>5.6</ele>
        <time>2020-06-22T21:20:05Z</time>
      </trkpt>
      <trkpt lat="50.94477" lon="1.85448">
        <ele>5.6</ele>
        <time>2020-06-22T21:20:06Z</time>
      </trkpt>
      <trkpt lat="50.94481" lon="1.85448">
        <ele>5.6</ele>
        <time>2020-06-22T21:20:07Z</time>
      </trkpt>
      <trkpt lat="50.94486" lon="1.85448">
        <ele>5.6</ele>
        <time>2020-06-22T21:20:08Z</time>
      </trkpt>
      <trkpt lat="50.9449" lon="1.85449">
        <ele>5.6</ele>
        <time>2020-06-22T21:20:09Z</time>
      </trkpt>
      <trkpt lat="50.94494" lon="1.85449">
        <ele>5.7</ele>
        <time>2020-06-22T21:20:10Z</time>
      </trkpt>
      <trkpt lat="50.94498" lon="1.8545">
        <ele>5.7</ele>
        <time>2020-06-22T21:20:11Z</time>
      </trkpt>
      <trkpt lat="50.94502" lon="1.85452">
        <ele>5.7</ele>
        <time>2020-06-22T21:20:12Z</time>
      </trkpt>
      <trkpt lat="50.94506" lon="1.85452">
        <ele>5.7</ele>
        <time>2020-06-22T21:20:13Z</time>
      </trkpt>
      <trkpt lat="50.9451" lon="1.85452">
        <ele>5.7</ele>
        <time>2020-06-22T21:20:14Z</time>
      </trkpt>
      <trkpt lat="50.94514" lon="1.85451">
        <ele>5.8</ele>
        <time>2020-06-22T21:20:15Z</time>
      </trkpt>
      <trkpt lat="50.94516" lon="1.85451">
        <ele>5.8</ele>
        <time>2020-06-22T21:20:16Z</time>
      </trkpt>
      <trkpt lat="50.94521" lon="1.85451">
        <ele>5.8</ele>
        <time>2020-06-22T21:20:17Z</time>
      </trkpt>
      <trkpt lat="50.94525" lon="1.85451">
        <ele>5.8</ele>
        <time>2020-06-22T21:20:18Z</time>
      </trkpt>
      <trkpt lat="50.94528" lon="1.85449">
        <ele>5.8</ele>
        <time>2020-06-22T21:20:19Z</time>
      </trkpt>
      <trkpt lat="50.94532" lon="1.85442">
        <ele>5.8</ele>
        <time>2020-06-22T21:20:20Z</time>
      </trkpt>
      <trkpt lat="50.94535" lon="1.85435">
        <ele>5.7</ele>
        <time>2020-06-22T21:20:21Z</time>
      </trkpt>
      <trkpt lat="50.94538" lon="1.85429">
        <ele>5.8</ele>
        <time>2020-06-22T21:20:22Z</time>
      </trkpt>
      <trkpt lat="50.94541" lon="1.85426">
        <ele>5.9</ele>
        <time>2020-06-22T21:20:23Z</time>
      </trkpt>
      <trkpt lat="50.94544" lon="1.85421">
        <ele>6</ele>
        <time>2020-06-22T21:20:24Z</time>
      </trkpt>
      <trkpt lat="50.94548" lon="1.85416">
        <ele>6</ele>
        <time>2020-06-22T21:20:25Z</time>
      </trkpt>
      <trkpt lat="50.94553" lon="1.8541">
        <ele>6.1</ele>
        <time>2020-06-22T21:20:26Z</time>
      </trkpt>
      <trkpt lat="50.94557" lon="1.85406">
        <ele>6.1</ele>
        <time>2020-06-22T21:20:27Z</time>
      </trkpt>
      <trkpt lat="50.9456" lon="1.85402">
        <ele>6.1</ele>
        <time>2020-06-22T21:20:28Z</time>
      </trkpt>
      <trkpt lat="50.94564" lon="1.854">
        <ele>6.1</ele>
        <time>2020-06-22T21:20:29Z</time>
      </trkpt>
      <trkpt lat="50.94568" lon="1.85397">
        <ele>6.1</ele>
        <time>2020-06-22T21:20:30Z</time>
      </trkpt>
      <trkpt lat="50.94574" lon="1.85398">
        <ele>6.1</ele>
        <time>2020-06-22T21:20:31Z</time>
      </trkpt>
      <trkpt lat="50.94579" lon="1.85397">
        <ele>6.1</ele>
        <time>2020-06-22T21:20:32Z</time>
      </trkpt>
      <trkpt lat="50.94583" lon="1.85395">
        <ele>6</ele>
        <time>2020-06-22T21:20:33Z</time>
      </trkpt>
      <trkpt lat="50.94586" lon="1.85393">
        <ele>6</ele>
        <time>2020-06-22T21:20:34Z</time>
      </trkpt>
      <trkpt lat="50.9459" lon="1.85391">
        <ele>6</ele>
        <time>2020-06-22T21:20:35Z</time>
      </trkpt>
      <trkpt lat="50.94592" lon="1.85391">
        <ele>6</ele>
        <time>2020-06-22T21:20:36Z</time>
      </trkpt>
      <trkpt lat="50.94597" lon="1.85391">
        <ele>5.9</ele>
        <time>2020-06-22T21:20:37Z</time>
      </trkpt>
      <trkpt lat="50.94601" lon="1.85392">
        <ele>5.9</ele>
        <time>2020-06-22T21:20:38Z</time>
      </trkpt>
      <trkpt lat="50.94606" lon="1.85392">
        <ele>5.9</ele>
        <time>2020-06-22T21:20:39Z</time>
      </trkpt>
      <trkpt lat="50.94611" lon="1.85392">
        <ele>5.9</ele>
        <time>2020-06-22T21:20:40Z</time>
      </trkpt>
      <trkpt lat="50.94615" lon="1.85391">
        <ele>5.9</ele>
        <time>2020-06-22T21:20:41Z</time>
      </trkpt>
      <trkpt lat="50.9462" lon="1.85391">
        <ele>5.9</ele>
        <time>2020-06-22T21:20:42Z</time>
      </trkpt>
      <trkpt lat="50.94624" lon="1.85392">
        <ele>5.9</ele>
        <time>2020-06-22T21:20:43Z</time>
      </trkpt>
      <trkpt lat="50.94629" lon="1.85394">
        <ele>5.9</ele>
        <time>2020-06-22T21:20:44Z</time>
      </trkpt>
      <trkpt lat="50.94633" lon="1.85394">
        <ele>5.9</ele>
        <time>2020-06-22T21:20:45Z</time>
      </trkpt>
      <trkpt lat="50.94637" lon="1.85393">
        <ele>5.9</ele>
        <time>2020-06-22T21:20:46Z</time>
      </trkpt>
      <trkpt lat="50.94642" lon="1.85394">
        <ele>6</ele>
        <time>2020-06-22T21:20:47Z</time>
      </trkpt>
      <trkpt lat="50.94647" lon="1.85395">
        <ele>6</ele>
        <time>2020-06-22T21:20:48Z</time>
      </trkpt>
      <trkpt lat="50.94653" lon="1.85396">
        <ele>6</ele>
        <time>2020-06-22T21:20:49Z</time>
      </trkpt>
      <trkpt lat="50.94658" lon="1.85396">
        <ele>6</ele>
        <time>2020-06-22T21:20:50Z</time>
      </trkpt>
      <trkpt lat="50.94662" lon="1.85397">
        <ele>6</ele>
        <time>2020-06-22T21:20:51Z</time>
      </trkpt>
      <trkpt lat="50.94666" lon="1.85397">
        <ele>6</ele>
        <time>2020-06-22T21:20:52Z</time>
      </trkpt>
      <trkpt lat="50.94671" lon="1.85399">
        <ele>6</ele>
        <time>2020-06-22T21:20:53Z</time>
      </trkpt>
      <trkpt lat="50.94675" lon="1.854">
        <ele>6</ele>
        <time>2020-06-22T21:20:54Z</time>
      </trkpt>
      <trkpt lat="50.94678" lon="1.854">
        <ele>6.1</ele>
        <time>2020-06-22T21:20:55Z</time>
      </trkpt>
      <trkpt lat="50.94682" lon="1.854">
        <ele>6.1</ele>
        <time>2020-06-22T21:20:56Z</time>
      </trkpt>
      <trkpt lat="50.94686" lon="1.85401">
        <ele>6.1</ele>
        <time>2020-06-22T21:20:57Z</time>
      </trkpt>
      <trkpt lat="50.94691" lon="1.854">
        <ele>6.1</ele>
        <time>2020-06-22T21:20:58Z</time>
      </trkpt>
      <trkpt lat="50.94695" lon="1.854">
        <ele>6.1</ele>
        <time>2020-06-22T21:20:59Z</time>
      </trkpt>
      <trkpt lat="50.94701" lon="1.854">
        <ele>6.1</ele>
        <time>2020-06-22T21:21:00Z</time>
      </trkpt>
      <trkpt lat="50.94706" lon="1.854">
        <ele>6.2</ele>
        <time>2020-06-22T21:21:01Z</time>
      </trkpt>
      <trkpt lat="50.94712" lon="1.854">
        <ele>6.3</ele>
        <time>2020-06-22T21:21:02Z</time>
      </trkpt>
      <trkpt lat="50.94717" lon="1.85401">
        <ele>6.4</ele>
        <time>2020-06-22T21:21:03Z</time>
      </trkpt>
      <trkpt lat="50.94722" lon="1.85403">
        <ele>6.4</ele>
        <time>2020-06-22T21:21:04Z</time>
      </trkpt>
      <trkpt lat="50.94727" lon="1.85405">
        <ele>6.5</ele>
        <time>2020-06-22T21:21:05Z</time>
      </trkpt>
      <trkpt lat="50.94732" lon="1.85407">
        <ele>6.5</ele>
        <time>2020-06-22T21:21:06Z</time>
      </trkpt>
      <trkpt lat="50.94737" lon="1.85408">
        <ele>6.6</ele>
        <time>2020-06-22T21:21:07Z</time>
      </trkpt>
      <trkpt lat="50.94742" lon="1.85409">
        <ele>6.6</ele>
        <time>2020-06-22T21:21:08Z</time>
      </trkpt>
      <trkpt lat="50.94748" lon="1.85411">
        <ele>6.6</ele>
        <time>2020-06-22T21:21:09Z</time>
      </trkpt>
      <trkpt lat="50.94754" lon="1.85412">
        <ele>6.3</ele>
        <time>2020-06-22T21:21:10Z</time>
      </trkpt>
      <trkpt lat="50.94758" lon="1.85413">
        <ele>6.1</ele>
        <time>2020-06-22T21:21:11Z</time>
      </trkpt>
      <trkpt lat="50.94762" lon="1.85414">
        <ele>5.8</ele>
        <time>2020-06-22T21:21:12Z</time>
      </trkpt>
      <trkpt lat="50.94763" lon="1.85415">
        <ele>5.8</ele>
        <time>2020-06-22T21:21:13Z</time>
      </trkpt>
      <trkpt lat="50.94765" lon="1.85415">
        <ele>5.8</ele>
        <time>2020-06-22T21:21:14Z</time>
      </trkpt>
      <trkpt lat="50.94765" lon="1.85415">
        <ele>5.8</ele>
        <time>2020-06-22T21:21:15Z</time>
      </trkpt>
      <trkpt lat="50.94764" lon="1.85415">
        <ele>5.7</ele>
        <time>2020-06-22T21:21:16Z</time>
      </trkpt>
      <trkpt lat="50.94765" lon="1.85416">
        <ele>5.7</ele>
        <time>2020-06-22T21:21:17Z</time>
      </trkpt>
      <trkpt lat="50.94766" lon="1.85417">
        <ele>5.7</ele>
        <time>2020-06-22T21:21:18Z</time>
      </trkpt>
      <trkpt lat="50.94767" lon="1.85417">
        <ele>5.7</ele>
        <time>2020-06-22T21:21:19Z</time>
      </trkpt>
      <trkpt lat="50.94769" lon="1.85416">
        <ele>5.6</ele>
        <time>2020-06-22T21:21:20Z</time>
      </trkpt>
      <trkpt lat="50.9477" lon="1.85416">
        <ele>5.6</ele>
        <time>2020-06-22T21:21:21Z</time>
      </trkpt>
      <trkpt lat="50.94774" lon="1.85416">
        <ele>5.7</ele>
        <time>2020-06-22T21:21:22Z</time>
      </trkpt>
      <trkpt lat="50.94776" lon="1.85415">
        <ele>5.7</ele>
        <time>2020-06-22T21:21:23Z</time>
      </trkpt>
      <trkpt lat="50.94782" lon="1.85415">
        <ele>5.7</ele>
        <time>2020-06-22T21:21:24Z</time>
      </trkpt>
      <trkpt lat="50.94786" lon="1.85417">
        <ele>5.7</ele>
        <time>2020-06-22T21:21:25Z</time>
      </trkpt>
      <trkpt lat="50.94789" lon="1.85418">
        <ele>5.7</ele>
        <time>2020-06-22T21:21:26Z</time>
      </trkpt>
      <trkpt lat="50.94793" lon="1.85418">
        <ele>5.7</ele>
        <time>2020-06-22T21:21:27Z</time>
      </trkpt>
      <trkpt lat="50.94798" lon="1.85417">
        <ele>5.7</ele>
        <time>2020-06-22T21:21:28Z</time>
      </trkpt>
      <trkpt lat="50.94802" lon="1.85418">
        <ele>5.7</ele>
        <time>2020-06-22T21:21:29Z</time>
      </trkpt>
      <trkpt lat="50.94807" lon="1.85418">
        <ele>5.7</ele>
        <time>2020-06-22T21:21:30Z</time>
      </trkpt>
      <trkpt lat="50.94812" lon="1.85418">
        <ele>5.6</ele>
        <time>2020-06-22T21:21:31Z</time>
      </trkpt>
      <trkpt lat="50.94815" lon="1.85419">
        <ele>5.6</ele>
        <time>2020-06-22T21:21:32Z</time>
      </trkpt>
      <trkpt lat="50.9482" lon="1.85417">
        <ele>5.6</ele>
        <time>2020-06-22T21:21:33Z</time>
      </trkpt>
      <trkpt lat="50.94823" lon="1.85416">
        <ele>5.6</ele>
        <time>2020-06-22T21:21:34Z</time>
      </trkpt>
      <trkpt lat="50.94826" lon="1.85416">
        <ele>5.6</ele>
        <time>2020-06-22T21:21:35Z</time>
      </trkpt>
      <trkpt lat="50.9483" lon="1.85417">
        <ele>5.6</ele>
        <time>2020-06-22T21:21:36Z</time>
      </trkpt>
      <trkpt lat="50.94834" lon="1.85419">
        <ele>5.6</ele>
        <time>2020-06-22T21:21:37Z</time>
      </trkpt>
      <trkpt lat="50.9484" lon="1.8542">
        <ele>5.6</ele>
        <time>2020-06-22T21:21:38Z</time>
      </trkpt>
      <trkpt lat="50.94845" lon="1.85419">
        <ele>5.6</ele>
        <time>2020-06-22T21:21:39Z</time>
      </trkpt>
      <trkpt lat="50.94851" lon="1.85419">
        <ele>5.6</ele>
        <time>2020-06-22T21:21:40Z</time>
      </trkpt>
      <trkpt lat="50.94857" lon="1.85419">
        <ele>5.5</ele>
        <time>2020-06-22T21:21:41Z</time>
      </trkpt>
      <trkpt lat="50.94862" lon="1.8542">
        <ele>5.5</ele>
        <time>2020-06-22T21:21:42Z</time>
      </trkpt>
      <trkpt lat="50.94869" lon="1.8542">
        <ele>5.4</ele>
        <time>2020-06-22T21:21:43Z</time>
      </trkpt>
      <trkpt lat="50.94875" lon="1.85421">
        <ele>5.4</ele>
        <time>2020-06-22T21:21:44Z</time>
      </trkpt>
      <trkpt lat="50.9488" lon="1.85422">
        <ele>5.4</ele>
        <time>2020-06-22T21:21:45Z</time>
      </trkpt>
      <trkpt lat="50.94886" lon="1.85423">
        <ele>5.3</ele>
        <time>2020-06-22T21:21:46Z</time>
      </trkpt>
      <trkpt lat="50.9489" lon="1.85424">
        <ele>5.3</ele>
        <time>2020-06-22T21:21:47Z</time>
      </trkpt>
      <trkpt lat="50.94895" lon="1.85424">
        <ele>5.3</ele>
        <time>2020-06-22T21:21:48Z</time>
      </trkpt>
      <trkpt lat="50.94901" lon="1.85423">
        <ele>5.3</ele>
        <time>2020-06-22T21:21:49Z</time>
      </trkpt>
      <trkpt lat="50.94906" lon="1.85423">
        <ele>5.2</ele>
        <time>2020-06-22T21:21:50Z</time>
      </trkpt>
      <trkpt lat="50.94913" lon="1.85426">
        <ele>5.2</ele>
        <time>2020-06-22T21:21:51Z</time>
      </trkpt>
      <trkpt lat="50.94918" lon="1.85426">
        <ele>5.2</ele>
        <time>2020-06-22T21:21:52Z</time>
      </trkpt>
      <trkpt lat="50.94921" lon="1.85425">
        <ele>5.2</ele>
        <time>2020-06-22T21:21:53Z</time>
      </trkpt>
      <trkpt lat="50.94925" lon="1.85425">
        <ele>5.2</ele>
        <time>2020-06-22T21:21:54Z</time>
      </trkpt>
      <trkpt lat="50.94929" lon="1.85425">
        <ele>5.2</ele>
        <time>2020-06-22T21:21:55Z</time>
      </trkpt>
      <trkpt lat="50.94934" lon="1.85424">
        <ele>5.2</ele>
        <time>2020-06-22T21:21:56Z</time>
      </trkpt>
      <trkpt lat="50.94938" lon="1.85423">
        <ele>5.2</ele>
        <time>2020-06-22T21:21:57Z</time>
      </trkpt>
      <trkpt lat="50.94943" lon="1.85422">
        <ele>5.3</ele>
        <time>2020-06-22T21:21:58Z</time>
      </trkpt>
      <trkpt lat="50.94949" lon="1.8542">
        <ele>5.3</ele>
        <time>2020-06-22T21:21:59Z</time>
      </trkpt>
      <trkpt lat="50.94954" lon="1.85417">
        <ele>5.3</ele>
        <time>2020-06-22T21:22:00Z</time>
      </trkpt>
      <trkpt lat="50.94961" lon="1.85418">
        <ele>5.3</ele>
        <time>2020-06-22T21:22:01Z</time>
      </trkpt>
      <trkpt lat="50.94967" lon="1.85419">
        <ele>5.4</ele>
        <time>2020-06-22T21:22:02Z</time>
      </trkpt>
      <trkpt lat="50.94971" lon="1.85419">
        <ele>5.4</ele>
        <time>2020-06-22T21:22:03Z</time>
      </trkpt>
      <trkpt lat="50.94975" lon="1.85418">
        <ele>5.4</ele>
        <time>2020-06-22T21:22:04Z</time>
      </trkpt>
      <trkpt lat="50.9498" lon="1.85418">
        <ele>5.4</ele>
        <time>2020-06-22T21:22:05Z</time>
      </trkpt>
      <trkpt lat="50.94985" lon="1.85417">
        <ele>5.4</ele>
        <time>2020-06-22T21:22:06Z</time>
      </trkpt>
      <trkpt lat="50.9499" lon="1.85417">
        <ele>5.4</ele>
        <time>2020-06-22T21:22:07Z</time>
      </trkpt>
      <trkpt lat="50.94996" lon="1.85418">
        <ele>5.3</ele>
        <time>2020-06-22T21:22:08Z</time>
      </trkpt>
      <trkpt lat="50.95003" lon="1.8542">
        <ele>5.3</ele>
        <time>2020-06-22T21:22:09Z</time>
      </trkpt>
      <trkpt lat="50.95009" lon="1.8542">
        <ele>5.3</ele>
        <time>2020-06-22T21:22:10Z</time>
      </trkpt>
      <trkpt lat="50.95012" lon="1.8542">
        <ele>5.2</ele>
        <time>2020-06-22T21:22:11Z</time>
      </trkpt>
      <trkpt lat="50.95018" lon="1.85419">
        <ele>5.2</ele>
        <time>2020-06-22T21:22:12Z</time>
      </trkpt>
      <trkpt lat="50.95023" lon="1.85418">
        <ele>5.1</ele>
        <time>2020-06-22T21:22:13Z</time>
      </trkpt>
      <trkpt lat="50.95029" lon="1.85416">
        <ele>5</ele>
        <time>2020-06-22T21:22:14Z</time>
      </trkpt>
      <trkpt lat="50.95035" lon="1.85413">
        <ele>4.9</ele>
        <time>2020-06-22T21:22:15Z</time>
      </trkpt>
      <trkpt lat="50.95041" lon="1.85411">
        <ele>4.8</ele>
        <time>2020-06-22T21:22:16Z</time>
      </trkpt>
      <trkpt lat="50.95047" lon="1.85409">
        <ele>4.8</ele>
        <time>2020-06-22T21:22:17Z</time>
      </trkpt>
      <trkpt lat="50.95053" lon="1.85406">
        <ele>4.7</ele>
        <time>2020-06-22T21:22:18Z</time>
      </trkpt>
      <trkpt lat="50.95059" lon="1.85404">
        <ele>4.6</ele>
        <time>2020-06-22T21:22:19Z</time>
      </trkpt>
      <trkpt lat="50.95068" lon="1.85407">
        <ele>4.6</ele>
        <time>2020-06-22T21:22:20Z</time>
      </trkpt>
      <trkpt lat="50.95074" lon="1.85405">
        <ele>4.6</ele>
        <time>2020-06-22T21:22:21Z</time>
      </trkpt>
      <trkpt lat="50.95079" lon="1.85402">
        <ele>4.5</ele>
        <time>2020-06-22T21:22:22Z</time>
      </trkpt>
      <trkpt lat="50.95084" lon="1.85399">
        <ele>4.5</ele>
        <time>2020-06-22T21:22:23Z</time>
      </trkpt>
      <trkpt lat="50.9509" lon="1.85396">
        <ele>4.5</ele>
        <time>2020-06-22T21:22:24Z</time>
      </trkpt>
      <trkpt lat="50.95096" lon="1.85392">
        <ele>4.5</ele>
        <time>2020-06-22T21:22:25Z</time>
      </trkpt>
      <trkpt lat="50.951" lon="1.85391">
        <ele>4.5</ele>
        <time>2020-06-22T21:22:26Z</time>
      </trkpt>
      <trkpt lat="50.95106" lon="1.85387">
        <ele>4.5</ele>
        <time>2020-06-22T21:22:27Z</time>
      </trkpt>
      <trkpt lat="50.95112" lon="1.85384">
        <ele>4.5</ele>
        <time>2020-06-22T21:22:28Z</time>
      </trkpt>
      <trkpt lat="50.95118" lon="1.8538">
        <ele>4.6</ele>
        <time>2020-06-22T21:22:29Z</time>
      </trkpt>
      <trkpt lat="50.95123" lon="1.85382">
        <ele>4.6</ele>
        <time>2020-06-22T21:22:30Z</time>
      </trkpt>
      <trkpt lat="50.95129" lon="1.8538">
        <ele>4.7</ele>
        <time>2020-06-22T21:22:31Z</time>
      </trkpt>
      <trkpt lat="50.95134" lon="1.85378">
        <ele>4.8</ele>
        <time>2020-06-22T21:22:32Z</time>
      </trkpt>
      <trkpt lat="50.95139" lon="1.85376">
        <ele>4.9</ele>
        <time>2020-06-22T21:22:33Z</time>
      </trkpt>
      <trkpt lat="50.95144" lon="1.85373">
        <ele>4.9</ele>
        <time>2020-06-22T21:22:34Z</time>
      </trkpt>
      <trkpt lat="50.95148" lon="1.85372">
        <ele>5</ele>
        <time>2020-06-22T21:22:35Z</time>
      </trkpt>
      <trkpt lat="50.95153" lon="1.85371">
        <ele>5</ele>
        <time>2020-06-22T21:22:36Z</time>
      </trkpt>
      <trkpt lat="50.95156" lon="1.8537">
        <ele>5.1</ele>
        <time>2020-06-22T21:22:37Z</time>
      </trkpt>
      <trkpt lat="50.9516" lon="1.8537">
        <ele>5.1</ele>
        <time>2020-06-22T21:22:38Z</time>
      </trkpt>
      <trkpt lat="50.95162" lon="1.85368">
        <ele>5.1</ele>
        <time>2020-06-22T21:22:39Z</time>
      </trkpt>
      <trkpt lat="50.95163" lon="1.85367">
        <ele>5.1</ele>
        <time>2020-06-22T21:22:40Z</time>
      </trkpt>
      <trkpt lat="50.95165" lon="1.85365">
        <ele>5.2</ele>
        <time>2020-06-22T21:22:41Z</time>
      </trkpt>
      <trkpt lat="50.95168" lon="1.85363">
        <ele>5.2</ele>
        <time>2020-06-22T21:22:42Z</time>
      </trkpt>
      <trkpt lat="50.9517" lon="1.85364">
        <ele>5.2</ele>
        <time>2020-06-22T21:22:43Z</time>
      </trkpt>
      <trkpt lat="50.95172" lon="1.85362">
        <ele>5.2</ele>
        <time>2020-06-22T21:22:44Z</time>
      </trkpt>
      <trkpt lat="50.95176" lon="1.85361">
        <ele>5.2</ele>
        <time>2020-06-22T21:22:45Z</time>
      </trkpt>
      <trkpt lat="50.95177" lon="1.8536">
        <ele>5.2</ele>
        <time>2020-06-22T21:22:46Z</time>
      </trkpt>
      <trkpt lat="50.9518" lon="1.85358">
        <ele>5.4</ele>
        <time>2020-06-22T21:22:47Z</time>
      </trkpt>
      <trkpt lat="50.95184" lon="1.85355">
        <ele>5.4</ele>
        <time>2020-06-22T21:22:48Z</time>
      </trkpt>
      <trkpt lat="50.95188" lon="1.85349">
        <ele>5.4</ele>
        <time>2020-06-22T21:22:49Z</time>
      </trkpt>
      <trkpt lat="50.95193" lon="1.85341">
        <ele>5.4</ele>
        <time>2020-06-22T21:22:50Z</time>
      </trkpt>
      <trkpt lat="50.95197" lon="1.85335">
        <ele>5.5</ele>
        <time>2020-06-22T21:22:51Z</time>
      </trkpt>
      <trkpt lat="50.95202" lon="1.85329">
        <ele>5.6</ele>
        <time>2020-06-22T21:22:52Z</time>
      </trkpt>
      <trkpt lat="50.95207" lon="1.85325">
        <ele>5.7</ele>
        <time>2020-06-22T21:22:53Z</time>
      </trkpt>
      <trkpt lat="50.95212" lon="1.8532">
        <ele>5.8</ele>
        <time>2020-06-22T21:22:54Z</time>
      </trkpt>
      <trkpt lat="50.95216" lon="1.85315">
        <ele>5.9</ele>
        <time>2020-06-22T21:22:55Z</time>
      </trkpt>
      <trkpt lat="50.9522" lon="1.85309">
        <ele>5.9</ele>
        <time>2020-06-22T21:22:56Z</time>
      </trkpt>
      <trkpt lat="50.95224" lon="1.85304">
        <ele>6</ele>
        <time>2020-06-22T21:22:57Z</time>
      </trkpt>
      <trkpt lat="50.95229" lon="1.85299">
        <ele>6.1</ele>
        <time>2020-06-22T21:22:58Z</time>
      </trkpt>
      <trkpt lat="50.95234" lon="1.85293">
        <ele>6.2</ele>
        <time>2020-06-22T21:22:59Z</time>
      </trkpt>
      <trkpt lat="50.95238" lon="1.85288">
        <ele>6.3</ele>
        <time>2020-06-22T21:23:00Z</time>
      </trkpt>
      <trkpt lat="50.95242" lon="1.85283">
        <ele>6.4</ele>
        <time>2020-06-22T21:23:01Z</time>
      </trkpt>
      <trkpt lat="50.95245" lon="1.8528">
        <ele>6.4</ele>
        <time>2020-06-22T21:23:02Z</time>
      </trkpt>
      <trkpt lat="50.95248" lon="1.85276">
        <ele>6.5</ele>
        <time>2020-06-22T21:23:03Z</time>
      </trkpt>
      <trkpt lat="50.95251" lon="1.85271">
        <ele>6.6</ele>
        <time>2020-06-22T21:23:04Z</time>
      </trkpt>
      <trkpt lat="50.95255" lon="1.85267">
        <ele>6.8</ele>
        <time>2020-06-22T21:23:05Z</time>
      </trkpt>
      <trkpt lat="50.95259" lon="1.85262">
        <ele>6.9</ele>
        <time>2020-06-22T21:23:06Z</time>
      </trkpt>
      <trkpt lat="50.95262" lon="1.85258">
        <ele>7</ele>
        <time>2020-06-22T21:23:07Z</time>
      </trkpt>
      <trkpt lat="50.95265" lon="1.85255">
        <ele>7.1</ele>
        <time>2020-06-22T21:23:08Z</time>
      </trkpt>
      <trkpt lat="50.95269" lon="1.85251">
        <ele>7.2</ele>
        <time>2020-06-22T21:23:09Z</time>
      </trkpt>
      <trkpt lat="50.95272" lon="1.85249">
        <ele>7.3</ele>
        <time>2020-06-22T21:23:10Z</time>
      </trkpt>
      <trkpt lat="50.95276" lon="1.85248">
        <ele>7.4</ele>
        <time>2020-06-22T21:23:11Z</time>
      </trkpt>
      <trkpt lat="50.95279" lon="1.85251">
        <ele>7.4</ele>
        <time>2020-06-22T21:23:12Z</time>
      </trkpt>
      <trkpt lat="50.95283" lon="1.85254">
        <ele>7.5</ele>
        <time>2020-06-22T21:23:13Z</time>
      </trkpt>
      <trkpt lat="50.95284" lon="1.85254">
        <ele>7.5</ele>
        <time>2020-06-22T21:23:14Z</time>
      </trkpt>
      <trkpt lat="50.95287" lon="1.85255">
        <ele>7.5</ele>
        <time>2020-06-22T21:23:15Z</time>
      </trkpt>
      <trkpt lat="50.9529" lon="1.85256">
        <ele>7.5</ele>
        <time>2020-06-22T21:23:16Z</time>
      </trkpt>
      <trkpt lat="50.95292" lon="1.85257">
        <ele>7.5</ele>
        <time>2020-06-22T21:23:17Z</time>
      </trkpt>
      <trkpt lat="50.95295" lon="1.85258">
        <ele>7.5</ele>
        <time>2020-06-22T21:23:18Z</time>
      </trkpt>
      <trkpt lat="50.95298" lon="1.8526">
        <ele>7.4</ele>
        <time>2020-06-22T21:23:19Z</time>
      </trkpt>
      <trkpt lat="50.95301" lon="1.85264">
        <ele>7.4</ele>
        <time>2020-06-22T21:23:20Z</time>
      </trkpt>
      <trkpt lat="50.95301" lon="1.85265">
        <ele>7.4</ele>
        <time>2020-06-22T21:23:21Z</time>
      </trkpt>
      <trkpt lat="50.95303" lon="1.85268">
        <ele>7.3</ele>
        <time>2020-06-22T21:23:22Z</time>
      </trkpt>
      <trkpt lat="50.95304" lon="1.85273">
        <ele>7.3</ele>
        <time>2020-06-22T21:23:23Z</time>
      </trkpt>
      <trkpt lat="50.95305" lon="1.8528">
        <ele>7.2</ele>
        <time>2020-06-22T21:23:24Z</time>
      </trkpt>
      <trkpt lat="50.95305" lon="1.85287">
        <ele>7.1</ele>
        <time>2020-06-22T21:23:25Z</time>
      </trkpt>
      <trkpt lat="50.95307" lon="1.85292">
        <ele>7.1</ele>
        <time>2020-06-22T21:23:26Z</time>
      </trkpt>
      <trkpt lat="50.95307" lon="1.85299">
        <ele>7</ele>
        <time>2020-06-22T21:23:27Z</time>
      </trkpt>
      <trkpt lat="50.95308" lon="1.85306">
        <ele>7</ele>
        <time>2020-06-22T21:23:28Z</time>
      </trkpt>
      <trkpt lat="50.95309" lon="1.85311">
        <ele>6.9</ele>
        <time>2020-06-22T21:23:29Z</time>
      </trkpt>
      <trkpt lat="50.9531" lon="1.85316">
        <ele>6.9</ele>
        <time>2020-06-22T21:23:30Z</time>
      </trkpt>
      <trkpt lat="50.9531" lon="1.85322">
        <ele>6.8</ele>
        <time>2020-06-22T21:23:31Z</time>
      </trkpt>
      <trkpt lat="50.95311" lon="1.85328">
        <ele>6.8</ele>
        <time>2020-06-22T21:23:32Z</time>
      </trkpt>
      <trkpt lat="50.95311" lon="1.85334">
        <ele>6.7</ele>
        <time>2020-06-22T21:23:33Z</time>
      </trkpt>
      <trkpt lat="50.95313" lon="1.8534">
        <ele>6.7</ele>
        <time>2020-06-22T21:23:34Z</time>
      </trkpt>
      <trkpt lat="50.95314" lon="1.85345">
        <ele>6.6</ele>
        <time>2020-06-22T21:23:35Z</time>
      </trkpt>
      <trkpt lat="50.95316" lon="1.8535">
        <ele>6.6</ele>
        <time>2020-06-22T21:23:36Z</time>
      </trkpt>
      <trkpt lat="50.95316" lon="1.85355">
        <ele>6.5</ele>
        <time>2020-06-22T21:23:37Z</time>
      </trkpt>
      <trkpt lat="50.95318" lon="1.85362">
        <ele>6.5</ele>
        <time>2020-06-22T21:23:38Z</time>
      </trkpt>
      <trkpt lat="50.95319" lon="1.85365">
        <ele>6.5</ele>
        <time>2020-06-22T21:23:39Z</time>
      </trkpt>
      <trkpt lat="50.9532" lon="1.85371">
        <ele>6.5</ele>
        <time>2020-06-22T21:23:40Z</time>
      </trkpt>
      <trkpt lat="50.95319" lon="1.85377">
        <ele>6.5</ele>
        <time>2020-06-22T21:23:41Z</time>
      </trkpt>
      <trkpt lat="50.95319" lon="1.85382">
        <ele>6.5</ele>
        <time>2020-06-22T21:23:42Z</time>
      </trkpt>
      <trkpt lat="50.9532" lon="1.85388">
        <ele>6.5</ele>
        <time>2020-06-22T21:23:43Z</time>
      </trkpt>
      <trkpt lat="50.95321" lon="1.85393">
        <ele>6.4</ele>
        <time>2020-06-22T21:23:44Z</time>
      </trkpt>
      <trkpt lat="50.95323" lon="1.85398">
        <ele>6.4</ele>
        <time>2020-06-22T21:23:45Z</time>
      </trkpt>
      <trkpt lat="50.95324" lon="1.85404">
        <ele>6.4</ele>
        <time>2020-06-22T21:23:46Z</time>
      </trkpt>
      <trkpt lat="50.95325" lon="1.8541">
        <ele>6.4</ele>
        <time>2020-06-22T21:23:47Z</time>
      </trkpt>
      <trkpt lat="50.95327" lon="1.85415">
        <ele>6.4</ele>
        <time>2020-06-22T21:23:48Z</time>
      </trkpt>
      <trkpt lat="50.95329" lon="1.85421">
        <ele>6.4</ele>
        <time>2020-06-22T21:23:49Z</time>
      </trkpt>
      <trkpt lat="50.95331" lon="1.85426">
        <ele>6.3</ele>
        <time>2020-06-22T21:23:50Z</time>
      </trkpt>
      <trkpt lat="50.95333" lon="1.85432">
        <ele>6.3</ele>
        <time>2020-06-22T21:23:51Z</time>
      </trkpt>
      <trkpt lat="50.95336" lon="1.85439">
        <ele>6.3</ele>
        <time>2020-06-22T21:23:52Z</time>
      </trkpt>
      <trkpt lat="50.95338" lon="1.85445">
        <ele>6.2</ele>
        <time>2020-06-22T21:23:53Z</time>
      </trkpt>
      <trkpt lat="50.95341" lon="1.85453">
        <ele>6.2</ele>
        <time>2020-06-22T21:23:54Z</time>
      </trkpt>
      <trkpt lat="50.95342" lon="1.85461">
        <ele>6.2</ele>
        <time>2020-06-22T21:23:55Z</time>
      </trkpt>
      <trkpt lat="50.95345" lon="1.85469">
        <ele>6.2</ele>
        <time>2020-06-22T21:23:56Z</time>
      </trkpt>
      <trkpt lat="50.95346" lon="1.85476">
        <ele>6.2</ele>
        <time>2020-06-22T21:23:57Z</time>
      </trkpt>
      <trkpt lat="50.95348" lon="1.85484">
        <ele>6.1</ele>
        <time>2020-06-22T21:23:58Z</time>
      </trkpt>
      <trkpt lat="50.95349" lon="1.85492">
        <ele>6.1</ele>
        <time>2020-06-22T21:23:59Z</time>
      </trkpt>
      <trkpt lat="50.95352" lon="1.85498">
        <ele>6.1</ele>
        <time>2020-06-22T21:24:00Z</time>
      </trkpt>
      <trkpt lat="50.95354" lon="1.85505">
        <ele>6.1</ele>
        <time>2020-06-22T21:24:01Z</time>
      </trkpt>
      <trkpt lat="50.95356" lon="1.85511">
        <ele>6.1</ele>
        <time>2020-06-22T21:24:02Z</time>
      </trkpt>
      <trkpt lat="50.95357" lon="1.85517">
        <ele>6.1</ele>
        <time>2020-06-22T21:24:03Z</time>
      </trkpt>
      <trkpt lat="50.95359" lon="1.85524">
        <ele>6.1</ele>
        <time>2020-06-22T21:24:04Z</time>
      </trkpt>
      <trkpt lat="50.95362" lon="1.8553">
        <ele>6.1</ele>
        <time>2020-06-22T21:24:05Z</time>
      </trkpt>
      <trkpt lat="50.95365" lon="1.85536">
        <ele>6.1</ele>
        <time>2020-06-22T21:24:06Z</time>
      </trkpt>
      <trkpt lat="50.95368" lon="1.85542">
        <ele>6.1</ele>
        <time>2020-06-22T21:24:07Z</time>
      </trkpt>
      <trkpt lat="50.9537" lon="1.85549">
        <ele>6</ele>
        <time>2020-06-22T21:24:08Z</time>
      </trkpt>
      <trkpt lat="50.95372" lon="1.85556">
        <ele>6</ele>
        <time>2020-06-22T21:24:09Z</time>
      </trkpt>
      <trkpt lat="50.95375" lon="1.85562">
        <ele>6</ele>
        <time>2020-06-22T21:24:10Z</time>
      </trkpt>
      <trkpt lat="50.95377" lon="1.8557">
        <ele>6</ele>
        <time>2020-06-22T21:24:11Z</time>
      </trkpt>
      <trkpt lat="50.95378" lon="1.85577">
        <ele>6</ele>
        <time>2020-06-22T21:24:12Z</time>
      </trkpt>
      <trkpt lat="50.95375" lon="1.85583">
        <ele>6</ele>
        <time>2020-06-22T21:24:13Z</time>
      </trkpt>
      <trkpt lat="50.95374" lon="1.85589">
        <ele>5.9</ele>
        <time>2020-06-22T21:24:14Z</time>
      </trkpt>
      <trkpt lat="50.95373" lon="1.85595">
        <ele>6</ele>
        <time>2020-06-22T21:24:15Z</time>
      </trkpt>
      <trkpt lat="50.95373" lon="1.856">
        <ele>6</ele>
        <time>2020-06-22T21:24:16Z</time>
      </trkpt>
      <trkpt lat="50.95374" lon="1.85605">
        <ele>5.9</ele>
        <time>2020-06-22T21:24:17Z</time>
      </trkpt>
      <trkpt lat="50.95375" lon="1.8561">
        <ele>5.7</ele>
        <time>2020-06-22T21:24:18Z</time>
      </trkpt>
      <trkpt lat="50.95375" lon="1.85616">
        <ele>5.5</ele>
        <time>2020-06-22T21:24:19Z</time>
      </trkpt>
      <trkpt lat="50.95376" lon="1.85621">
        <ele>5.3</ele>
        <time>2020-06-22T21:24:20Z</time>
      </trkpt>
      <trkpt lat="50.95377" lon="1.85627">
        <ele>5</ele>
        <time>2020-06-22T21:24:21Z</time>
      </trkpt>
      <trkpt lat="50.95378" lon="1.85633">
        <ele>4.8</ele>
        <time>2020-06-22T21:24:22Z</time>
      </trkpt>
      <trkpt lat="50.95379" lon="1.85639">
        <ele>4.7</ele>
        <time>2020-06-22T21:24:23Z</time>
      </trkpt>
      <trkpt lat="50.9538" lon="1.85646">
        <ele>4.7</ele>
        <time>2020-06-22T21:24:24Z</time>
      </trkpt>
      <trkpt lat="50.95382" lon="1.85652">
        <ele>4.7</ele>
        <time>2020-06-22T21:24:25Z</time>
      </trkpt>
      <trkpt lat="50.95382" lon="1.85658">
        <ele>4.7</ele>
        <time>2020-06-22T21:24:26Z</time>
      </trkpt>
      <trkpt lat="50.95384" lon="1.85664">
        <ele>4.6</ele>
        <time>2020-06-22T21:24:27Z</time>
      </trkpt>
      <trkpt lat="50.95385" lon="1.85668">
        <ele>4.6</ele>
        <time>2020-06-22T21:24:28Z</time>
      </trkpt>
      <trkpt lat="50.95387" lon="1.85672">
        <ele>4.6</ele>
        <time>2020-06-22T21:24:29Z</time>
      </trkpt>
      <trkpt lat="50.95388" lon="1.85677">
        <ele>4.6</ele>
        <time>2020-06-22T21:24:30Z</time>
      </trkpt>
      <trkpt lat="50.9539" lon="1.8568">
        <ele>4.6</ele>
        <time>2020-06-22T21:24:31Z</time>
      </trkpt>
      <trkpt lat="50.95393" lon="1.85683">
        <ele>4.6</ele>
        <time>2020-06-22T21:24:32Z</time>
      </trkpt>
      <trkpt lat="50.95395" lon="1.85686">
        <ele>4.5</ele>
        <time>2020-06-22T21:24:33Z</time>
      </trkpt>
      <trkpt lat="50.95397" lon="1.85691">
        <ele>4.5</ele>
        <time>2020-06-22T21:24:34Z</time>
      </trkpt>
      <trkpt lat="50.95398" lon="1.85692">
        <ele>4.5</ele>
        <time>2020-06-22T21:24:35Z</time>
      </trkpt>
      <trkpt lat="50.95401" lon="1.85696">
        <ele>4.5</ele>
        <time>2020-06-22T21:24:36Z</time>
      </trkpt>
      <trkpt lat="50.95403" lon="1.85699">
        <ele>4.5</ele>
        <time>2020-06-22T21:24:37Z</time>
      </trkpt>
      <trkpt lat="50.95405" lon="1.85702">
        <ele>4.5</ele>
        <time>2020-06-22T21:24:38Z</time>
      </trkpt>
      <trkpt lat="50.95408" lon="1.85705">
        <ele>4.5</ele>
        <time>2020-06-22T21:24:39Z</time>
      </trkpt>
      <trkpt lat="50.95409" lon="1.8571">
        <ele>4.4</ele>
        <time>2020-06-22T21:24:40Z</time>
      </trkpt>
      <trkpt lat="50.95412" lon="1.85714">
        <ele>4.4</ele>
        <time>2020-06-22T21:24:41Z</time>
      </trkpt>
      <trkpt lat="50.95413" lon="1.85719">
        <ele>4.4</ele>
        <time>2020-06-22T21:24:42Z</time>
      </trkpt>
      <trkpt lat="50.95415" lon="1.85722">
        <ele>6</ele>
        <time>2020-06-22T21:24:43Z</time>
      </trkpt>
      <trkpt lat="50.95417" lon="1.85726">
        <ele>6.2</ele>
        <time>2020-06-22T21:24:44Z</time>
      </trkpt>
      <trkpt lat="50.95419" lon="1.85731">
        <ele>6.4</ele>
        <time>2020-06-22T21:24:45Z</time>
      </trkpt>
      <trkpt lat="50.9542" lon="1.85733">
        <ele>6.5</ele>
        <time>2020-06-22T21:24:46Z</time>
      </trkpt>
      <trkpt lat="50.95422" lon="1.85736">
        <ele>6.4</ele>
        <time>2020-06-22T21:24:47Z</time>
      </trkpt>
      <trkpt lat="50.95425" lon="1.8574">
        <ele>6.5</ele>
        <time>2020-06-22T21:24:48Z</time>
      </trkpt>
      <trkpt lat="50.95428" lon="1.85746">
        <ele>6.5</ele>
        <time>2020-06-22T21:24:49Z</time>
      </trkpt>
      <trkpt lat="50.95429" lon="1.85752">
        <ele>6.5</ele>
        <time>2020-06-22T21:24:50Z</time>
      </trkpt>
      <trkpt lat="50.9543" lon="1.85759">
        <ele>6.5</ele>
        <time>2020-06-22T21:24:51Z</time>
      </trkpt>
      <trkpt lat="50.95431" lon="1.85767">
        <ele>6.5</ele>
        <time>2020-06-22T21:24:52Z</time>
      </trkpt>
      <trkpt lat="50.95433" lon="1.85774">
        <ele>6.5</ele>
        <time>2020-06-22T21:24:53Z</time>
      </trkpt>
      <trkpt lat="50.95435" lon="1.85782">
        <ele>6.5</ele>
        <time>2020-06-22T21:24:54Z</time>
      </trkpt>
      <trkpt lat="50.95437" lon="1.85789">
        <ele>6.4</ele>
        <time>2020-06-22T21:24:55Z</time>
      </trkpt>
      <trkpt lat="50.95439" lon="1.85796">
        <ele>6.4</ele>
        <time>2020-06-22T21:24:56Z</time>
      </trkpt>
      <trkpt lat="50.95441" lon="1.85804">
        <ele>6.4</ele>
        <time>2020-06-22T21:24:57Z</time>
      </trkpt>
      <trkpt lat="50.95442" lon="1.85812">
        <ele>6.4</ele>
        <time>2020-06-22T21:24:58Z</time>
      </trkpt>
      <trkpt lat="50.95444" lon="1.8582">
        <ele>6.4</ele>
        <time>2020-06-22T21:24:59Z</time>
      </trkpt>
      <trkpt lat="50.95445" lon="1.85829">
        <ele>6.4</ele>
        <time>2020-06-22T21:25:00Z</time>
      </trkpt>
      <trkpt lat="50.95447" lon="1.85837">
        <ele>6.4</ele>
        <time>2020-06-22T21:25:01Z</time>
      </trkpt>
      <trkpt lat="50.95448" lon="1.85846">
        <ele>6.4</ele>
        <time>2020-06-22T21:25:02Z</time>
      </trkpt>
      <trkpt lat="50.95448" lon="1.85856">
        <ele>6.4</ele>
        <time>2020-06-22T21:25:03Z</time>
      </trkpt>
      <trkpt lat="50.9545" lon="1.85865">
        <ele>6.4</ele>
        <time>2020-06-22T21:25:04Z</time>
      </trkpt>
      <trkpt lat="50.95451" lon="1.85874">
        <ele>6.4</ele>
        <time>2020-06-22T21:25:05Z</time>
      </trkpt>
      <trkpt lat="50.95453" lon="1.85884">
        <ele>6.4</ele>
        <time>2020-06-22T21:25:06Z</time>
      </trkpt>
      <trkpt lat="50.95454" lon="1.85894">
        <ele>6.4</ele>
        <time>2020-06-22T21:25:07Z</time>
      </trkpt>
      <trkpt lat="50.95455" lon="1.85906">
        <ele>6.4</ele>
        <time>2020-06-22T21:25:08Z</time>
      </trkpt>
      <trkpt lat="50.95457" lon="1.85915">
        <ele>6.4</ele>
        <time>2020-06-22T21:25:09Z</time>
      </trkpt>
      <trkpt lat="50.95459" lon="1.85923">
        <ele>6.4</ele>
        <time>2020-06-22T21:25:10Z</time>
      </trkpt>
      <trkpt lat="50.9546" lon="1.8593">
        <ele>6.5</ele>
        <time>2020-06-22T21:25:11Z</time>
      </trkpt>
      <trkpt lat="50.95462" lon="1.8594">
        <ele>6.5</ele>
        <time>2020-06-22T21:25:12Z</time>
      </trkpt>
      <trkpt lat="50.95462" lon="1.85948">
        <ele>6.5</ele>
        <time>2020-06-22T21:25:13Z</time>
      </trkpt>
      <trkpt lat="50.95463" lon="1.85956">
        <ele>6.6</ele>
        <time>2020-06-22T21:25:14Z</time>
      </trkpt>
      <trkpt lat="50.95464" lon="1.85964">
        <ele>6.6</ele>
        <time>2020-06-22T21:25:15Z</time>
      </trkpt>
      <trkpt lat="50.95466" lon="1.85972">
        <ele>6.6</ele>
        <time>2020-06-22T21:25:16Z</time>
      </trkpt>
      <trkpt lat="50.95467" lon="1.85979">
        <ele>6.6</ele>
        <time>2020-06-22T21:25:17Z</time>
      </trkpt>
      <trkpt lat="50.95468" lon="1.85985">
        <ele>6.6</ele>
        <time>2020-06-22T21:25:18Z</time>
      </trkpt>
      <trkpt lat="50.9547" lon="1.85992">
        <ele>6.5</ele>
        <time>2020-06-22T21:25:19Z</time>
      </trkpt>
      <trkpt lat="50.95472" lon="1.86">
        <ele>6.4</ele>
        <time>2020-06-22T21:25:20Z</time>
      </trkpt>
      <trkpt lat="50.95475" lon="1.86008">
        <ele>6.4</ele>
        <time>2020-06-22T21:25:21Z</time>
      </trkpt>
      <trkpt lat="50.95476" lon="1.86019">
        <ele>6.3</ele>
        <time>2020-06-22T21:25:22Z</time>
      </trkpt>
      <trkpt lat="50.95478" lon="1.86028">
        <ele>6.2</ele>
        <time>2020-06-22T21:25:23Z</time>
      </trkpt>
      <trkpt lat="50.9548" lon="1.86036">
        <ele>6.1</ele>
        <time>2020-06-22T21:25:24Z</time>
      </trkpt>
      <trkpt lat="50.95482" lon="1.86043">
        <ele>6.1</ele>
        <time>2020-06-22T21:25:25Z</time>
      </trkpt>
      <trkpt lat="50.95485" lon="1.86055">
        <ele>6</ele>
        <time>2020-06-22T21:25:26Z</time>
      </trkpt>
      <trkpt lat="50.95486" lon="1.8606">
        <ele>5.9</ele>
        <time>2020-06-22T21:25:27Z</time>
      </trkpt>
      <trkpt lat="50.95488" lon="1.86069">
        <ele>5.8</ele>
        <time>2020-06-22T21:25:28Z</time>
      </trkpt>
      <trkpt lat="50.9549" lon="1.86077">
        <ele>5.8</ele>
        <time>2020-06-22T21:25:29Z</time>
      </trkpt>
      <trkpt lat="50.95493" lon="1.86086">
        <ele>5.7</ele>
        <time>2020-06-22T21:25:30Z</time>
      </trkpt>
      <trkpt lat="50.95495" lon="1.86094">
        <ele>5.7</ele>
        <time>2020-06-22T21:25:31Z</time>
      </trkpt>
      <trkpt lat="50.95498" lon="1.86102">
        <ele>5.6</ele>
        <time>2020-06-22T21:25:32Z</time>
      </trkpt>
      <trkpt lat="50.955" lon="1.86111">
        <ele>5.6</ele>
        <time>2020-06-22T21:25:33Z</time>
      </trkpt>
      <trkpt lat="50.95503" lon="1.86116">
        <ele>5.6</ele>
        <time>2020-06-22T21:25:34Z</time>
      </trkpt>
      <trkpt lat="50.95505" lon="1.86126">
        <ele>5.6</ele>
        <time>2020-06-22T21:25:35Z</time>
      </trkpt>
      <trkpt lat="50.95507" lon="1.86136">
        <ele>5.6</ele>
        <time>2020-06-22T21:25:36Z</time>
      </trkpt>
      <trkpt lat="50.95508" lon="1.86142">
        <ele>5.6</ele>
        <time>2020-06-22T21:25:37Z</time>
      </trkpt>
      <trkpt lat="50.95509" lon="1.86149">
        <ele>5.6</ele>
        <time>2020-06-22T21:25:38Z</time>
      </trkpt>
      <trkpt lat="50.95511" lon="1.86157">
        <ele>5.5</ele>
        <time>2020-06-22T21:25:39Z</time>
      </trkpt>
      <trkpt lat="50.95513" lon="1.86164">
        <ele>5.5</ele>
        <time>2020-06-22T21:25:40Z</time>
      </trkpt>
      <trkpt lat="50.95515" lon="1.86174">
        <ele>5.5</ele>
        <time>2020-06-22T21:25:41Z</time>
      </trkpt>
      <trkpt lat="50.95517" lon="1.86181">
        <ele>5.5</ele>
        <time>2020-06-22T21:25:42Z</time>
      </trkpt>
      <trkpt lat="50.95519" lon="1.86188">
        <ele>5.5</ele>
        <time>2020-06-22T21:25:43Z</time>
      </trkpt>
      <trkpt lat="50.95521" lon="1.86196">
        <ele>5.4</ele>
        <time>2020-06-22T21:25:44Z</time>
      </trkpt>
      <trkpt lat="50.95524" lon="1.86205">
        <ele>5.4</ele>
        <time>2020-06-22T21:25:45Z</time>
      </trkpt>
      <trkpt lat="50.95526" lon="1.86213">
        <ele>5.4</ele>
        <time>2020-06-22T21:25:46Z</time>
      </trkpt>
      <trkpt lat="50.9553" lon="1.86224">
        <ele>5.3</ele>
        <time>2020-06-22T21:25:47Z</time>
      </trkpt>
      <trkpt lat="50.95531" lon="1.86235">
        <ele>5.3</ele>
        <time>2020-06-22T21:25:48Z</time>
      </trkpt>
      <trkpt lat="50.95534" lon="1.86245">
        <ele>5.3</ele>
        <time>2020-06-22T21:25:49Z</time>
      </trkpt>
      <trkpt lat="50.95536" lon="1.86255">
        <ele>5.3</ele>
        <time>2020-06-22T21:25:50Z</time>
      </trkpt>
      <trkpt lat="50.95538" lon="1.86265">
        <ele>5.3</ele>
        <time>2020-06-22T21:25:51Z</time>
      </trkpt>
      <trkpt lat="50.95541" lon="1.86273">
        <ele>5.3</ele>
        <time>2020-06-22T21:25:52Z</time>
      </trkpt>
      <trkpt lat="50.95544" lon="1.86282">
        <ele>5.3</ele>
        <time>2020-06-22T21:25:53Z</time>
      </trkpt>
      <trkpt lat="50.95546" lon="1.86293">
        <ele>5.3</ele>
        <time>2020-06-22T21:25:54Z</time>
      </trkpt>
      <trkpt lat="50.95547" lon="1.86301">
        <ele>5.3</ele>
        <time>2020-06-22T21:25:55Z</time>
      </trkpt>
      <trkpt lat="50.95548" lon="1.86312">
        <ele>5.3</ele>
        <time>2020-06-22T21:25:56Z</time>
      </trkpt>
      <trkpt lat="50.9555" lon="1.86323">
        <ele>5.2</ele>
        <time>2020-06-22T21:25:57Z</time>
      </trkpt>
      <trkpt lat="50.95551" lon="1.86332">
        <ele>5.2</ele>
        <time>2020-06-22T21:25:58Z</time>
      </trkpt>
      <trkpt lat="50.95553" lon="1.86338">
        <ele>5.2</ele>
        <time>2020-06-22T21:25:59Z</time>
      </trkpt>
      <trkpt lat="50.95554" lon="1.86345">
        <ele>5.1</ele>
        <time>2020-06-22T21:26:00Z</time>
      </trkpt>
      <trkpt lat="50.95556" lon="1.86352">
        <ele>5.1</ele>
        <time>2020-06-22T21:26:01Z</time>
      </trkpt>
      <trkpt lat="50.95557" lon="1.8636">
        <ele>5.1</ele>
        <time>2020-06-22T21:26:02Z</time>
      </trkpt>
      <trkpt lat="50.95559" lon="1.86367">
        <ele>5</ele>
        <time>2020-06-22T21:26:03Z</time>
      </trkpt>
      <trkpt lat="50.95562" lon="1.86375">
        <ele>5</ele>
        <time>2020-06-22T21:26:04Z</time>
      </trkpt>
      <trkpt lat="50.95564" lon="1.86383">
        <ele>5</ele>
        <time>2020-06-22T21:26:05Z</time>
      </trkpt>
      <trkpt lat="50.95567" lon="1.86394">
        <ele>5</ele>
        <time>2020-06-22T21:26:06Z</time>
      </trkpt>
      <trkpt lat="50.95569" lon="1.86404">
        <ele>4.9</ele>
        <time>2020-06-22T21:26:07Z</time>
      </trkpt>
      <trkpt lat="50.95571" lon="1.86412">
        <ele>4.9</ele>
        <time>2020-06-22T21:26:08Z</time>
      </trkpt>
      <trkpt lat="50.95572" lon="1.86422">
        <ele>4.8</ele>
        <time>2020-06-22T21:26:09Z</time>
      </trkpt>
      <trkpt lat="50.95574" lon="1.8643">
        <ele>4.7</ele>
        <time>2020-06-22T21:26:10Z</time>
      </trkpt>
      <trkpt lat="50.95576" lon="1.86439">
        <ele>4.6</ele>
        <time>2020-06-22T21:26:11Z</time>
      </trkpt>
      <trkpt lat="50.95578" lon="1.86447">
        <ele>4.5</ele>
        <time>2020-06-22T21:26:12Z</time>
      </trkpt>
      <trkpt lat="50.95579" lon="1.86456">
        <ele>4.4</ele>
        <time>2020-06-22T21:26:13Z</time>
      </trkpt>
      <trkpt lat="50.9558" lon="1.86465">
        <ele>4.3</ele>
        <time>2020-06-22T21:26:14Z</time>
      </trkpt>
      <trkpt lat="50.95582" lon="1.86474">
        <ele>4.2</ele>
        <time>2020-06-22T21:26:15Z</time>
      </trkpt>
      <trkpt lat="50.95584" lon="1.86483">
        <ele>4.1</ele>
        <time>2020-06-22T21:26:16Z</time>
      </trkpt>
      <trkpt lat="50.95587" lon="1.86491">
        <ele>4</ele>
        <time>2020-06-22T21:26:17Z</time>
      </trkpt>
      <trkpt lat="50.95589" lon="1.865">
        <ele>3.9</ele>
        <time>2020-06-22T21:26:18Z</time>
      </trkpt>
      <trkpt lat="50.9559" lon="1.8651">
        <ele>3.8</ele>
        <time>2020-06-22T21:26:19Z</time>
      </trkpt>
      <trkpt lat="50.95593" lon="1.86519">
        <ele>3.7</ele>
        <time>2020-06-22T21:26:20Z</time>
      </trkpt>
      <trkpt lat="50.95594" lon="1.86531">
        <ele>3.6</ele>
        <time>2020-06-22T21:26:21Z</time>
      </trkpt>
      <trkpt lat="50.95596" lon="1.86541">
        <ele>3.5</ele>
        <time>2020-06-22T21:26:22Z</time>
      </trkpt>
      <trkpt lat="50.95598" lon="1.86551">
        <ele>3.5</ele>
        <time>2020-06-22T21:26:23Z</time>
      </trkpt>
      <trkpt lat="50.956" lon="1.86558">
        <ele>3.5</ele>
        <time>2020-06-22T21:26:24Z</time>
      </trkpt>
      <trkpt lat="50.95602" lon="1.86567">
        <ele>3.4</ele>
        <time>2020-06-22T21:26:25Z</time>
      </trkpt>
      <trkpt lat="50.95604" lon="1.86578">
        <ele>3.4</ele>
        <time>2020-06-22T21:26:26Z</time>
      </trkpt>
      <trkpt lat="50.95605" lon="1.86589">
        <ele>3.4</ele>
        <time>2020-06-22T21:26:27Z</time>
      </trkpt>
      <trkpt lat="50.95608" lon="1.86599">
        <ele>3.3</ele>
        <time>2020-06-22T21:26:28Z</time>
      </trkpt>
      <trkpt lat="50.9561" lon="1.8661">
        <ele>3.3</ele>
        <time>2020-06-22T21:26:29Z</time>
      </trkpt>
      <trkpt lat="50.95612" lon="1.86619">
        <ele>3.2</ele>
        <time>2020-06-22T21:26:30Z</time>
      </trkpt>
      <trkpt lat="50.95613" lon="1.86628">
        <ele>3.2</ele>
        <time>2020-06-22T21:26:31Z</time>
      </trkpt>
      <trkpt lat="50.95616" lon="1.86639">
        <ele>3.2</ele>
        <time>2020-06-22T21:26:32Z</time>
      </trkpt>
      <trkpt lat="50.95619" lon="1.86649">
        <ele>3.1</ele>
        <time>2020-06-22T21:26:33Z</time>
      </trkpt>
      <trkpt lat="50.95622" lon="1.86658">
        <ele>3.1</ele>
        <time>2020-06-22T21:26:34Z</time>
      </trkpt>
      <trkpt lat="50.95623" lon="1.86666">
        <ele>3.1</ele>
        <time>2020-06-22T21:26:35Z</time>
      </trkpt>
      <trkpt lat="50.95625" lon="1.86676">
        <ele>3</ele>
        <time>2020-06-22T21:26:36Z</time>
      </trkpt>
      <trkpt lat="50.95629" lon="1.86686">
        <ele>3</ele>
        <time>2020-06-22T21:26:37Z</time>
      </trkpt>
      <trkpt lat="50.95631" lon="1.86697">
        <ele>3</ele>
        <time>2020-06-22T21:26:38Z</time>
      </trkpt>
      <trkpt lat="50.95632" lon="1.86708">
        <ele>3</ele>
        <time>2020-06-22T21:26:39Z</time>
      </trkpt>
      <trkpt lat="50.95633" lon="1.86716">
        <ele>3</ele>
        <time>2020-06-22T21:26:40Z</time>
      </trkpt>
      <trkpt lat="50.95634" lon="1.86725">
        <ele>3</ele>
        <time>2020-06-22T21:26:41Z</time>
      </trkpt>
      <trkpt lat="50.95636" lon="1.86734">
        <ele>3</ele>
        <time>2020-06-22T21:26:42Z</time>
      </trkpt>
      <trkpt lat="50.95639" lon="1.86744">
        <ele>3</ele>
        <time>2020-06-22T21:26:43Z</time>
      </trkpt>
      <trkpt lat="50.95641" lon="1.86754">
        <ele>3</ele>
        <time>2020-06-22T21:26:44Z</time>
      </trkpt>
      <trkpt lat="50.95642" lon="1.86762">
        <ele>3.1</ele>
        <time>2020-06-22T21:26:45Z</time>
      </trkpt>
      <trkpt lat="50.95644" lon="1.86771">
        <ele>3.1</ele>
        <time>2020-06-22T21:26:46Z</time>
      </trkpt>
      <trkpt lat="50.95645" lon="1.86781">
        <ele>3.1</ele>
        <time>2020-06-22T21:26:47Z</time>
      </trkpt>
      <trkpt lat="50.95646" lon="1.8679">
        <ele>3.1</ele>
        <time>2020-06-22T21:26:48Z</time>
      </trkpt>
      <trkpt lat="50.95648" lon="1.86798">
        <ele>3.1</ele>
        <time>2020-06-22T21:26:49Z</time>
      </trkpt>
      <trkpt lat="50.9565" lon="1.86808">
        <ele>3.1</ele>
        <time>2020-06-22T21:26:50Z</time>
      </trkpt>
      <trkpt lat="50.95652" lon="1.86817">
        <ele>3.1</ele>
        <time>2020-06-22T21:26:51Z</time>
      </trkpt>
      <trkpt lat="50.95654" lon="1.86828">
        <ele>3.1</ele>
        <time>2020-06-22T21:26:52Z</time>
      </trkpt>
      <trkpt lat="50.95656" lon="1.86839">
        <ele>3</ele>
        <time>2020-06-22T21:26:53Z</time>
      </trkpt>
      <trkpt lat="50.95658" lon="1.8685">
        <ele>3</ele>
        <time>2020-06-22T21:26:54Z</time>
      </trkpt>
      <trkpt lat="50.95659" lon="1.8686">
        <ele>3</ele>
        <time>2020-06-22T21:26:55Z</time>
      </trkpt>
      <trkpt lat="50.95661" lon="1.86869">
        <ele>3</ele>
        <time>2020-06-22T21:26:56Z</time>
      </trkpt>
      <trkpt lat="50.95663" lon="1.86879">
        <ele>3</ele>
        <time>2020-06-22T21:26:57Z</time>
      </trkpt>
      <trkpt lat="50.95664" lon="1.86888">
        <ele>3.1</ele>
        <time>2020-06-22T21:26:58Z</time>
      </trkpt>
      <trkpt lat="50.95664" lon="1.86897">
        <ele>3.1</ele>
        <time>2020-06-22T21:26:59Z</time>
      </trkpt>
      <trkpt lat="50.95666" lon="1.86908">
        <ele>3.2</ele>
        <time>2020-06-22T21:27:00Z</time>
      </trkpt>
      <trkpt lat="50.95668" lon="1.86917">
        <ele>3.2</ele>
        <time>2020-06-22T21:27:01Z</time>
      </trkpt>
      <trkpt lat="50.9567" lon="1.86927">
        <ele>3.3</ele>
        <time>2020-06-22T21:27:02Z</time>
      </trkpt>
      <trkpt lat="50.95671" lon="1.86934">
        <ele>3.3</ele>
        <time>2020-06-22T21:27:03Z</time>
      </trkpt>
      <trkpt lat="50.95673" lon="1.86941">
        <ele>3.4</ele>
        <time>2020-06-22T21:27:04Z</time>
      </trkpt>
      <trkpt lat="50.95675" lon="1.86948">
        <ele>3.4</ele>
        <time>2020-06-22T21:27:05Z</time>
      </trkpt>
      <trkpt lat="50.95677" lon="1.86957">
        <ele>3.3</ele>
        <time>2020-06-22T21:27:06Z</time>
      </trkpt>
      <trkpt lat="50.9568" lon="1.86967">
        <ele>3.3</ele>
        <time>2020-06-22T21:27:07Z</time>
      </trkpt>
      <trkpt lat="50.95682" lon="1.86979">
        <ele>3.3</ele>
        <time>2020-06-22T21:27:08Z</time>
      </trkpt>
      <trkpt lat="50.95684" lon="1.86985">
        <ele>3.2</ele>
        <time>2020-06-22T21:27:09Z</time>
      </trkpt>
      <trkpt lat="50.95687" lon="1.86995">
        <ele>3.2</ele>
        <time>2020-06-22T21:27:10Z</time>
      </trkpt>
      <trkpt lat="50.95689" lon="1.87004">
        <ele>3.2</ele>
        <time>2020-06-22T21:27:11Z</time>
      </trkpt>
      <trkpt lat="50.95692" lon="1.87014">
        <ele>3.2</ele>
        <time>2020-06-22T21:27:12Z</time>
      </trkpt>
      <trkpt lat="50.95695" lon="1.87026">
        <ele>3.2</ele>
        <time>2020-06-22T21:27:13Z</time>
      </trkpt>
      <trkpt lat="50.95697" lon="1.87036">
        <ele>3.2</ele>
        <time>2020-06-22T21:27:14Z</time>
      </trkpt>
      <trkpt lat="50.95699" lon="1.87047">
        <ele>3.2</ele>
        <time>2020-06-22T21:27:15Z</time>
      </trkpt>
      <trkpt lat="50.95701" lon="1.87056">
        <ele>3.1</ele>
        <time>2020-06-22T21:27:16Z</time>
      </trkpt>
      <trkpt lat="50.95701" lon="1.87065">
        <ele>3.1</ele>
        <time>2020-06-22T21:27:17Z</time>
      </trkpt>
      <trkpt lat="50.95703" lon="1.87074">
        <ele>3</ele>
        <time>2020-06-22T21:27:18Z</time>
      </trkpt>
      <trkpt lat="50.95705" lon="1.87082">
        <ele>3</ele>
        <time>2020-06-22T21:27:19Z</time>
      </trkpt>
      <trkpt lat="50.95706" lon="1.8709">
        <ele>2.9</ele>
        <time>2020-06-22T21:27:20Z</time>
      </trkpt>
      <trkpt lat="50.95708" lon="1.87099">
        <ele>2.9</ele>
        <time>2020-06-22T21:27:21Z</time>
      </trkpt>
      <trkpt lat="50.95709" lon="1.87105">
        <ele>2.8</ele>
        <time>2020-06-22T21:27:22Z</time>
      </trkpt>
      <trkpt lat="50.95712" lon="1.87113">
        <ele>2.8</ele>
        <time>2020-06-22T21:27:23Z</time>
      </trkpt>
      <trkpt lat="50.95714" lon="1.87119">
        <ele>2.8</ele>
        <time>2020-06-22T21:27:24Z</time>
      </trkpt>
      <trkpt lat="50.95717" lon="1.87128">
        <ele>2.7</ele>
        <time>2020-06-22T21:27:25Z</time>
      </trkpt>
      <trkpt lat="50.95718" lon="1.87133">
        <ele>2.7</ele>
        <time>2020-06-22T21:27:26Z</time>
      </trkpt>
      <trkpt lat="50.95721" lon="1.87144">
        <ele>2.7</ele>
        <time>2020-06-22T21:27:27Z</time>
      </trkpt>
      <trkpt lat="50.95723" lon="1.87154">
        <ele>2.6</ele>
        <time>2020-06-22T21:27:28Z</time>
      </trkpt>
      <trkpt lat="50.95725" lon="1.87163">
        <ele>2.6</ele>
        <time>2020-06-22T21:27:29Z</time>
      </trkpt>
      <trkpt lat="50.95729" lon="1.87171">
        <ele>2.6</ele>
        <time>2020-06-22T21:27:30Z</time>
      </trkpt>
      <trkpt lat="50.95731" lon="1.87181">
        <ele>2.6</ele>
        <time>2020-06-22T21:27:31Z</time>
      </trkpt>
      <trkpt lat="50.95731" lon="1.87189">
        <ele>2.5</ele>
        <time>2020-06-22T21:27:32Z</time>
      </trkpt>
      <trkpt lat="50.95733" lon="1.87197">
        <ele>2.5</ele>
        <time>2020-06-22T21:27:33Z</time>
      </trkpt>
      <trkpt lat="50.95736" lon="1.87207">
        <ele>2.5</ele>
        <time>2020-06-22T21:27:34Z</time>
      </trkpt>
      <trkpt lat="50.9574" lon="1.87218">
        <ele>2.5</ele>
        <time>2020-06-22T21:27:35Z</time>
      </trkpt>
      <trkpt lat="50.95742" lon="1.87227">
        <ele>2.5</ele>
        <time>2020-06-22T21:27:36Z</time>
      </trkpt>
      <trkpt lat="50.95744" lon="1.87236">
        <ele>2.5</ele>
        <time>2020-06-22T21:27:37Z</time>
      </trkpt>
      <trkpt lat="50.95747" lon="1.87245">
        <ele>2.5</ele>
        <time>2020-06-22T21:27:38Z</time>
      </trkpt>
      <trkpt lat="50.95749" lon="1.87254">
        <ele>2.5</ele>
        <time>2020-06-22T21:27:39Z</time>
      </trkpt>
      <trkpt lat="50.9575" lon="1.87261">
        <ele>2.5</ele>
        <time>2020-06-22T21:27:40Z</time>
      </trkpt>
      <trkpt lat="50.9575" lon="1.87271">
        <ele>2.5</ele>
        <time>2020-06-22T21:27:41Z</time>
      </trkpt>
      <trkpt lat="50.95752" lon="1.87281">
        <ele>2.5</ele>
        <time>2020-06-22T21:27:42Z</time>
      </trkpt>
      <trkpt lat="50.95754" lon="1.87289">
        <ele>2.5</ele>
        <time>2020-06-22T21:27:43Z</time>
      </trkpt>
      <trkpt lat="50.95757" lon="1.87299">
        <ele>2.5</ele>
        <time>2020-06-22T21:27:44Z</time>
      </trkpt>
      <trkpt lat="50.95759" lon="1.87308">
        <ele>2.5</ele>
        <time>2020-06-22T21:27:45Z</time>
      </trkpt>
      <trkpt lat="50.95761" lon="1.87318">
        <ele>2.5</ele>
        <time>2020-06-22T21:27:46Z</time>
      </trkpt>
      <trkpt lat="50.95763" lon="1.87329">
        <ele>2.6</ele>
        <time>2020-06-22T21:27:47Z</time>
      </trkpt>
      <trkpt lat="50.95764" lon="1.87339">
        <ele>2.6</ele>
        <time>2020-06-22T21:27:48Z</time>
      </trkpt>
      <trkpt lat="50.95767" lon="1.87347">
        <ele>2.6</ele>
        <time>2020-06-22T21:27:49Z</time>
      </trkpt>
      <trkpt lat="50.95768" lon="1.87357">
        <ele>2.6</ele>
        <time>2020-06-22T21:27:50Z</time>
      </trkpt>
      <trkpt lat="50.9577" lon="1.87365">
        <ele>2.6</ele>
        <time>2020-06-22T21:27:51Z</time>
      </trkpt>
      <trkpt lat="50.95772" lon="1.87373">
        <ele>2.7</ele>
        <time>2020-06-22T21:27:52Z</time>
      </trkpt>
      <trkpt lat="50.95774" lon="1.87382">
        <ele>2.7</ele>
        <time>2020-06-22T21:27:53Z</time>
      </trkpt>
      <trkpt lat="50.95776" lon="1.87391">
        <ele>2.7</ele>
        <time>2020-06-22T21:27:54Z</time>
      </trkpt>
      <trkpt lat="50.95778" lon="1.87399">
        <ele>2.8</ele>
        <time>2020-06-22T21:27:55Z</time>
      </trkpt>
      <trkpt lat="50.95779" lon="1.87406">
        <ele>2.8</ele>
        <time>2020-06-22T21:27:56Z</time>
      </trkpt>
      <trkpt lat="50.9578" lon="1.87413">
        <ele>2.9</ele>
        <time>2020-06-22T21:27:57Z</time>
      </trkpt>
      <trkpt lat="50.95781" lon="1.87418">
        <ele>2.9</ele>
        <time>2020-06-22T21:27:58Z</time>
      </trkpt>
      <trkpt lat="50.95783" lon="1.87424">
        <ele>3</ele>
        <time>2020-06-22T21:27:59Z</time>
      </trkpt>
      <trkpt lat="50.95784" lon="1.8743">
        <ele>3.1</ele>
        <time>2020-06-22T21:28:00Z</time>
      </trkpt>
      <trkpt lat="50.95785" lon="1.87436">
        <ele>3.1</ele>
        <time>2020-06-22T21:28:01Z</time>
      </trkpt>
      <trkpt lat="50.95786" lon="1.87444">
        <ele>3.2</ele>
        <time>2020-06-22T21:28:02Z</time>
      </trkpt>
      <trkpt lat="50.95787" lon="1.87449">
        <ele>3.3</ele>
        <time>2020-06-22T21:28:03Z</time>
      </trkpt>
      <trkpt lat="50.95789" lon="1.87455">
        <ele>3.4</ele>
        <time>2020-06-22T21:28:04Z</time>
      </trkpt>
      <trkpt lat="50.9579" lon="1.8746">
        <ele>3.4</ele>
        <time>2020-06-22T21:28:05Z</time>
      </trkpt>
      <trkpt lat="50.95791" lon="1.87465">
        <ele>3.5</ele>
        <time>2020-06-22T21:28:06Z</time>
      </trkpt>
      <trkpt lat="50.95792" lon="1.87471">
        <ele>3.5</ele>
        <time>2020-06-22T21:28:07Z</time>
      </trkpt>
      <trkpt lat="50.95793" lon="1.87476">
        <ele>3.6</ele>
        <time>2020-06-22T21:28:08Z</time>
      </trkpt>
      <trkpt lat="50.95796" lon="1.8748">
        <ele>3.8</ele>
        <time>2020-06-22T21:28:09Z</time>
      </trkpt>
      <trkpt lat="50.95799" lon="1.87483">
        <ele>3.9</ele>
        <time>2020-06-22T21:28:10Z</time>
      </trkpt>
      <trkpt lat="50.95802" lon="1.87483">
        <ele>4</ele>
        <time>2020-06-22T21:28:11Z</time>
      </trkpt>
      <trkpt lat="50.95807" lon="1.87483">
        <ele>4.1</ele>
        <time>2020-06-22T21:28:12Z</time>
      </trkpt>
      <trkpt lat="50.95811" lon="1.87482">
        <ele>4.2</ele>
        <time>2020-06-22T21:28:13Z</time>
      </trkpt>
      <trkpt lat="50.95815" lon="1.8748">
        <ele>4.2</ele>
        <time>2020-06-22T21:28:14Z</time>
      </trkpt>
      <trkpt lat="50.95819" lon="1.87479">
        <ele>4.2</ele>
        <time>2020-06-22T21:28:15Z</time>
      </trkpt>
      <trkpt lat="50.95824" lon="1.87477">
        <ele>4.2</ele>
        <time>2020-06-22T21:28:16Z</time>
      </trkpt>
      <trkpt lat="50.95829" lon="1.87475">
        <ele>4.2</ele>
        <time>2020-06-22T21:28:17Z</time>
      </trkpt>
      <trkpt lat="50.95834" lon="1.87474">
        <ele>4.1</ele>
        <time>2020-06-22T21:28:18Z</time>
      </trkpt>
      <trkpt lat="50.95838" lon="1.87472">
        <ele>4.1</ele>
        <time>2020-06-22T21:28:19Z</time>
      </trkpt>
      <trkpt lat="50.95839" lon="1.87472">
        <ele>4.1</ele>
        <time>2020-06-22T21:28:20Z</time>
      </trkpt>
      <trkpt lat="50.95845" lon="1.8747">
        <ele>4.1</ele>
        <time>2020-06-22T21:28:21Z</time>
      </trkpt>
      <trkpt lat="50.95848" lon="1.87468">
        <ele>4.1</ele>
        <time>2020-06-22T21:28:22Z</time>
      </trkpt>
      <trkpt lat="50.95852" lon="1.87466">
        <ele>4.1</ele>
        <time>2020-06-22T21:28:23Z</time>
      </trkpt>
      <trkpt lat="50.95856" lon="1.87464">
        <ele>4.1</ele>
        <time>2020-06-22T21:28:24Z</time>
      </trkpt>
      <trkpt lat="50.95861" lon="1.87462">
        <ele>4.1</ele>
        <time>2020-06-22T21:28:25Z</time>
      </trkpt>
      <trkpt lat="50.95865" lon="1.87461">
        <ele>4.1</ele>
        <time>2020-06-22T21:28:26Z</time>
      </trkpt>
      <trkpt lat="50.9587" lon="1.87459">
        <ele>4.1</ele>
        <time>2020-06-22T21:28:27Z</time>
      </trkpt>
      <trkpt lat="50.95875" lon="1.87458">
        <ele>4.1</ele>
        <time>2020-06-22T21:28:28Z</time>
      </trkpt>
      <trkpt lat="50.95879" lon="1.87457">
        <ele>4.1</ele>
        <time>2020-06-22T21:28:29Z</time>
      </trkpt>
      <trkpt lat="50.95885" lon="1.87456">
        <ele>4.1</ele>
        <time>2020-06-22T21:28:30Z</time>
      </trkpt>
      <trkpt lat="50.9589" lon="1.87455">
        <ele>4.1</ele>
        <time>2020-06-22T21:28:31Z</time>
      </trkpt>
      <trkpt lat="50.95893" lon="1.87455">
        <ele>4.1</ele>
        <time>2020-06-22T21:28:32Z</time>
      </trkpt>
      <trkpt lat="50.95898" lon="1.87454">
        <ele>4.1</ele>
        <time>2020-06-22T21:28:33Z</time>
      </trkpt>
      <trkpt lat="50.95903" lon="1.87453">
        <ele>4.1</ele>
        <time>2020-06-22T21:28:34Z</time>
      </trkpt>
      <trkpt lat="50.95906" lon="1.87452">
        <ele>4</ele>
        <time>2020-06-22T21:28:35Z</time>
      </trkpt>
      <trkpt lat="50.95911" lon="1.87453">
        <ele>3.8</ele>
        <time>2020-06-22T21:28:36Z</time>
      </trkpt>
      <trkpt lat="50.95914" lon="1.87452">
        <ele>3.8</ele>
        <time>2020-06-22T21:28:37Z</time>
      </trkpt>
      <trkpt lat="50.95919" lon="1.87451">
        <ele>3.8</ele>
        <time>2020-06-22T21:28:38Z</time>
      </trkpt>
      <trkpt lat="50.95921" lon="1.87451">
        <ele>3.7</ele>
        <time>2020-06-22T21:28:39Z</time>
      </trkpt>
      <trkpt lat="50.95925" lon="1.8745">
        <ele>3.7</ele>
        <time>2020-06-22T21:28:40Z</time>
      </trkpt>
      <trkpt lat="50.95928" lon="1.87449">
        <ele>3.7</ele>
        <time>2020-06-22T21:28:41Z</time>
      </trkpt>
      <trkpt lat="50.95931" lon="1.87449">
        <ele>3.7</ele>
        <time>2020-06-22T21:28:42Z</time>
      </trkpt>
      <trkpt lat="50.95932" lon="1.87448">
        <ele>3.7</ele>
        <time>2020-06-22T21:28:43Z</time>
      </trkpt>
      <trkpt lat="50.95936" lon="1.87446">
        <ele>3.7</ele>
        <time>2020-06-22T21:28:44Z</time>
      </trkpt>
      <trkpt lat="50.95939" lon="1.87445">
        <ele>3.7</ele>
        <time>2020-06-22T21:28:45Z</time>
      </trkpt>
      <trkpt lat="50.95943" lon="1.87444">
        <ele>3.7</ele>
        <time>2020-06-22T21:28:46Z</time>
      </trkpt>
      <trkpt lat="50.95947" lon="1.87444">
        <ele>3.7</ele>
        <time>2020-06-22T21:28:47Z</time>
      </trkpt>
      <trkpt lat="50.9595" lon="1.87442">
        <ele>3.7</ele>
        <time>2020-06-22T21:28:48Z</time>
      </trkpt>
      <trkpt lat="50.95951" lon="1.87441">
        <ele>3.7</ele>
        <time>2020-06-22T21:28:49Z</time>
      </trkpt>
      <trkpt lat="50.95955" lon="1.87438">
        <ele>3.7</ele>
        <time>2020-06-22T21:28:50Z</time>
      </trkpt>
      <trkpt lat="50.95957" lon="1.87438">
        <ele>3.7</ele>
        <time>2020-06-22T21:28:51Z</time>
      </trkpt>
      <trkpt lat="50.95958" lon="1.87437">
        <ele>3.7</ele>
        <time>2020-06-22T21:28:52Z</time>
      </trkpt>
      <trkpt lat="50.9596" lon="1.87437">
        <ele>3.8</ele>
        <time>2020-06-22T21:28:53Z</time>
      </trkpt>
      <trkpt lat="50.95961" lon="1.87438">
        <ele>3.8</ele>
        <time>2020-06-22T21:28:54Z</time>
      </trkpt>
      <trkpt lat="50.95965" lon="1.87439">
        <ele>3.8</ele>
        <time>2020-06-22T21:28:55Z</time>
      </trkpt>
      <trkpt lat="50.95966" lon="1.87439">
        <ele>3.8</ele>
        <time>2020-06-22T21:28:56Z</time>
      </trkpt>
      <trkpt lat="50.95968" lon="1.87439">
        <ele>3.8</ele>
        <time>2020-06-22T21:28:57Z</time>
      </trkpt>
      <trkpt lat="50.95969" lon="1.87437">
        <ele>3.8</ele>
        <time>2020-06-22T21:28:58Z</time>
      </trkpt>
      <trkpt lat="50.95968" lon="1.87435">
        <ele>3.7</ele>
        <time>2020-06-22T21:28:59Z</time>
      </trkpt>
      <trkpt lat="50.95967" lon="1.87435">
        <ele>3.7</ele>
        <time>2020-06-22T21:29:00Z</time>
      </trkpt>
      <trkpt lat="50.95966" lon="1.87435">
        <ele>3.7</ele>
        <time>2020-06-22T21:29:01Z</time>
      </trkpt>
      <trkpt lat="50.95965" lon="1.87435">
        <ele>3.7</ele>
        <time>2020-06-22T21:29:02Z</time>
      </trkpt>
      <trkpt lat="50.95961" lon="1.87436">
        <ele>3.7</ele>
        <time>2020-06-22T21:29:03Z</time>
      </trkpt>
      <trkpt lat="50.95956" lon="1.87438">
        <ele>3.7</ele>
        <time>2020-06-22T21:29:04Z</time>
      </trkpt>
      <trkpt lat="50.95952" lon="1.87439">
        <ele>3.7</ele>
        <time>2020-06-22T21:29:05Z</time>
      </trkpt>
      <trkpt lat="50.95947" lon="1.8744">
        <ele>3.7</ele>
        <time>2020-06-22T21:29:06Z</time>
      </trkpt>
      <trkpt lat="50.95943" lon="1.87441">
        <ele>3.7</ele>
        <time>2020-06-22T21:29:07Z</time>
      </trkpt>
      <trkpt lat="50.95938" lon="1.87441">
        <ele>3.7</ele>
        <time>2020-06-22T21:29:08Z</time>
      </trkpt>
      <trkpt lat="50.95933" lon="1.87442">
        <ele>3.7</ele>
        <time>2020-06-22T21:29:09Z</time>
      </trkpt>
      <trkpt lat="50.9593" lon="1.87443">
        <ele>3.7</ele>
        <time>2020-06-22T21:29:10Z</time>
      </trkpt>
      <trkpt lat="50.95925" lon="1.87444">
        <ele>3.7</ele>
        <time>2020-06-22T21:29:11Z</time>
      </trkpt>
      <trkpt lat="50.95921" lon="1.87447">
        <ele>3.8</ele>
        <time>2020-06-22T21:29:12Z</time>
      </trkpt>
      <trkpt lat="50.95916" lon="1.87447">
        <ele>3.8</ele>
        <time>2020-06-22T21:29:13Z</time>
      </trkpt>
      <trkpt lat="50.95912" lon="1.87448">
        <ele>3.8</ele>
        <time>2020-06-22T21:29:14Z</time>
      </trkpt>
      <trkpt lat="50.95908" lon="1.8745">
        <ele>3.9</ele>
        <time>2020-06-22T21:29:15Z</time>
      </trkpt>
      <trkpt lat="50.95903" lon="1.87451">
        <ele>4</ele>
        <time>2020-06-22T21:29:16Z</time>
      </trkpt>
      <trkpt lat="50.95899" lon="1.87452">
        <ele>4.1</ele>
        <time>2020-06-22T21:29:17Z</time>
      </trkpt>
      <trkpt lat="50.95894" lon="1.87454">
        <ele>4.1</ele>
        <time>2020-06-22T21:29:18Z</time>
      </trkpt>
      <trkpt lat="50.9589" lon="1.87455">
        <ele>4.1</ele>
        <time>2020-06-22T21:29:19Z</time>
      </trkpt>
      <trkpt lat="50.95885" lon="1.87456">
        <ele>4.1</ele>
        <time>2020-06-22T21:29:20Z</time>
      </trkpt>
      <trkpt lat="50.9588" lon="1.87457">
        <ele>4.1</ele>
        <time>2020-06-22T21:29:21Z</time>
      </trkpt>
      <trkpt lat="50.95875" lon="1.87458">
        <ele>4.1</ele>
        <time>2020-06-22T21:29:22Z</time>
      </trkpt>
      <trkpt lat="50.9587" lon="1.87458">
        <ele>4.1</ele>
        <time>2020-06-22T21:29:23Z</time>
      </trkpt>
      <trkpt lat="50.95865" lon="1.8746">
        <ele>4.1</ele>
        <time>2020-06-22T21:29:24Z</time>
      </trkpt>
      <trkpt lat="50.9586" lon="1.87462">
        <ele>4.1</ele>
        <time>2020-06-22T21:29:25Z</time>
      </trkpt>
      <trkpt lat="50.95856" lon="1.87466">
        <ele>4.1</ele>
        <time>2020-06-22T21:29:26Z</time>
      </trkpt>
      <trkpt lat="50.95852" lon="1.87468">
        <ele>4.1</ele>
        <time>2020-06-22T21:29:27Z</time>
      </trkpt>
      <trkpt lat="50.95848" lon="1.87468">
        <ele>4.1</ele>
        <time>2020-06-22T21:29:28Z</time>
      </trkpt>
      <trkpt lat="50.95843" lon="1.87469">
        <ele>4.1</ele>
        <time>2020-06-22T21:29:29Z</time>
      </trkpt>
      <trkpt lat="50.95839" lon="1.8747">
        <ele>4.1</ele>
        <time>2020-06-22T21:29:30Z</time>
      </trkpt>
      <trkpt lat="50.95836" lon="1.87472">
        <ele>4.1</ele>
        <time>2020-06-22T21:29:31Z</time>
      </trkpt>
      <trkpt lat="50.95831" lon="1.87474">
        <ele>4.1</ele>
        <time>2020-06-22T21:29:32Z</time>
      </trkpt>
      <trkpt lat="50.95827" lon="1.87474">
        <ele>4.2</ele>
        <time>2020-06-22T21:29:33Z</time>
      </trkpt>
      <trkpt lat="50.95825" lon="1.87474">
        <ele>4.2</ele>
        <time>2020-06-22T21:29:34Z</time>
      </trkpt>
      <trkpt lat="50.95822" lon="1.87475">
        <ele>4.2</ele>
        <time>2020-06-22T21:29:35Z</time>
      </trkpt>
      <trkpt lat="50.95818" lon="1.87476">
        <ele>4.2</ele>
        <time>2020-06-22T21:29:36Z</time>
      </trkpt>
      <trkpt lat="50.95816" lon="1.87477">
        <ele>4.2</ele>
        <time>2020-06-22T21:29:37Z</time>
      </trkpt>
      <trkpt lat="50.95812" lon="1.87478">
        <ele>4.2</ele>
        <time>2020-06-22T21:29:38Z</time>
      </trkpt>
      <trkpt lat="50.9581" lon="1.87478">
        <ele>4.2</ele>
        <time>2020-06-22T21:29:39Z</time>
      </trkpt>
      <trkpt lat="50.95805" lon="1.8748">
        <ele>4.1</ele>
        <time>2020-06-22T21:29:40Z</time>
      </trkpt>
      <trkpt lat="50.95802" lon="1.87481">
        <ele>4.1</ele>
        <time>2020-06-22T21:29:41Z</time>
      </trkpt>
      <trkpt lat="50.958" lon="1.87484">
        <ele>4</ele>
        <time>2020-06-22T21:29:42Z</time>
      </trkpt>
      <trkpt lat="50.95796" lon="1.87488">
        <ele>3.9</ele>
        <time>2020-06-22T21:29:43Z</time>
      </trkpt>
      <trkpt lat="50.95795" lon="1.8749">
        <ele>3.9</ele>
        <time>2020-06-22T21:29:44Z</time>
      </trkpt>
      <trkpt lat="50.95795" lon="1.87496">
        <ele>3.7</ele>
        <time>2020-06-22T21:29:45Z</time>
      </trkpt>
      <trkpt lat="50.95795" lon="1.87502">
        <ele>3.8</ele>
        <time>2020-06-22T21:29:46Z</time>
      </trkpt>
      <trkpt lat="50.95795" lon="1.87509">
        <ele>3.8</ele>
        <time>2020-06-22T21:29:47Z</time>
      </trkpt>
      <trkpt lat="50.95795" lon="1.87515">
        <ele>3.8</ele>
        <time>2020-06-22T21:29:48Z</time>
      </trkpt>
      <trkpt lat="50.95796" lon="1.87522">
        <ele>3.8</ele>
        <time>2020-06-22T21:29:49Z</time>
      </trkpt>
      <trkpt lat="50.95798" lon="1.87529">
        <ele>3.8</ele>
        <time>2020-06-22T21:29:50Z</time>
      </trkpt>
      <trkpt lat="50.95798" lon="1.87533">
        <ele>3.9</ele>
        <time>2020-06-22T21:29:51Z</time>
      </trkpt>
      <trkpt lat="50.958" lon="1.87539">
        <ele>3.9</ele>
        <time>2020-06-22T21:29:52Z</time>
      </trkpt>
      <trkpt lat="50.958" lon="1.87543">
        <ele>3.9</ele>
        <time>2020-06-22T21:29:53Z</time>
      </trkpt>
      <trkpt lat="50.958" lon="1.87548">
        <ele>3.9</ele>
        <time>2020-06-22T21:29:54Z</time>
      </trkpt>
      <trkpt lat="50.95801" lon="1.87553">
        <ele>3.9</ele>
        <time>2020-06-22T21:29:55Z</time>
      </trkpt>
      <trkpt lat="50.95802" lon="1.87557">
        <ele>3.9</ele>
        <time>2020-06-22T21:29:56Z</time>
      </trkpt>
      <trkpt lat="50.95804" lon="1.87563">
        <ele>3.9</ele>
        <time>2020-06-22T21:29:57Z</time>
      </trkpt>
      <trkpt lat="50.95804" lon="1.87565">
        <ele>3.9</ele>
        <time>2020-06-22T21:29:58Z</time>
      </trkpt>
      <trkpt lat="50.95808" lon="1.87567">
        <ele>3.8</ele>
        <time>2020-06-22T21:29:59Z</time>
      </trkpt>
      <trkpt lat="50.95813" lon="1.87569">
        <ele>3.8</ele>
        <time>2020-06-22T21:30:00Z</time>
      </trkpt>
      <trkpt lat="50.95816" lon="1.87571">
        <ele>3.8</ele>
        <time>2020-06-22T21:30:01Z</time>
      </trkpt>
      <trkpt lat="50.9582" lon="1.87573">
        <ele>3.7</ele>
        <time>2020-06-22T21:30:02Z</time>
      </trkpt>
      <trkpt lat="50.95823" lon="1.87574">
        <ele>3.7</ele>
        <time>2020-06-22T21:30:03Z</time>
      </trkpt>
      <trkpt lat="50.95827" lon="1.87577">
        <ele>3.6</ele>
        <time>2020-06-22T21:30:04Z</time>
      </trkpt>
      <trkpt lat="50.95828" lon="1.87578">
        <ele>3.6</ele>
        <time>2020-06-22T21:30:05Z</time>
      </trkpt>
      <trkpt lat="50.95832" lon="1.8758">
        <ele>3.5</ele>
        <time>2020-06-22T21:30:06Z</time>
      </trkpt>
      <trkpt lat="50.95836" lon="1.87582">
        <ele>3.4</ele>
        <time>2020-06-22T21:30:07Z</time>
      </trkpt>
      <trkpt lat="50.9584" lon="1.87583">
        <ele>3.4</ele>
        <time>2020-06-22T21:30:08Z</time>
      </trkpt>
      <trkpt lat="50.95844" lon="1.87587">
        <ele>3.3</ele>
        <time>2020-06-22T21:30:09Z</time>
      </trkpt>
      <trkpt lat="50.95848" lon="1.8759">
        <ele>3.3</ele>
        <time>2020-06-22T21:30:10Z</time>
      </trkpt>
      <trkpt lat="50.95852" lon="1.87593">
        <ele>3.3</ele>
        <time>2020-06-22T21:30:11Z</time>
      </trkpt>
      <trkpt lat="50.95856" lon="1.87596">
        <ele>3.2</ele>
        <time>2020-06-22T21:30:12Z</time>
      </trkpt>
      <trkpt lat="50.9586" lon="1.87599">
        <ele>3.2</ele>
        <time>2020-06-22T21:30:13Z</time>
      </trkpt>
      <trkpt lat="50.95864" lon="1.87601">
        <ele>3.2</ele>
        <time>2020-06-22T21:30:14Z</time>
      </trkpt>
      <trkpt lat="50.95867" lon="1.87604">
        <ele>3.2</ele>
        <time>2020-06-22T21:30:15Z</time>
      </trkpt>
      <trkpt lat="50.95872" lon="1.87607">
        <ele>3.2</ele>
        <time>2020-06-22T21:30:16Z</time>
      </trkpt>
      <trkpt lat="50.95875" lon="1.87609">
        <ele>3.2</ele>
        <time>2020-06-22T21:30:17Z</time>
      </trkpt>
      <trkpt lat="50.95879" lon="1.87612">
        <ele>3.2</ele>
        <time>2020-06-22T21:30:18Z</time>
      </trkpt>
      <trkpt lat="50.95883" lon="1.87616">
        <ele>3.2</ele>
        <time>2020-06-22T21:30:19Z</time>
      </trkpt>
      <trkpt lat="50.95889" lon="1.87619">
        <ele>3.2</ele>
        <time>2020-06-22T21:30:20Z</time>
      </trkpt>
      <trkpt lat="50.95895" lon="1.87621">
        <ele>3.2</ele>
        <time>2020-06-22T21:30:21Z</time>
      </trkpt>
      <trkpt lat="50.959" lon="1.87622">
        <ele>3.2</ele>
        <time>2020-06-22T21:30:22Z</time>
      </trkpt>
      <trkpt lat="50.95905" lon="1.87621">
        <ele>3.2</ele>
        <time>2020-06-22T21:30:23Z</time>
      </trkpt>
      <trkpt lat="50.9591" lon="1.87622">
        <ele>3.2</ele>
        <time>2020-06-22T21:30:24Z</time>
      </trkpt>
      <trkpt lat="50.95915" lon="1.87622">
        <ele>3.2</ele>
        <time>2020-06-22T21:30:25Z</time>
      </trkpt>
      <trkpt lat="50.95919" lon="1.87622">
        <ele>3.2</ele>
        <time>2020-06-22T21:30:26Z</time>
      </trkpt>
      <trkpt lat="50.95924" lon="1.87622">
        <ele>3.2</ele>
        <time>2020-06-22T21:30:27Z</time>
      </trkpt>
      <trkpt lat="50.95928" lon="1.87622">
        <ele>3.2</ele>
        <time>2020-06-22T21:30:28Z</time>
      </trkpt>
      <trkpt lat="50.95932" lon="1.87621">
        <ele>3.2</ele>
        <time>2020-06-22T21:30:29Z</time>
      </trkpt>
      <trkpt lat="50.95936" lon="1.87622">
        <ele>3.2</ele>
        <time>2020-06-22T21:30:30Z</time>
      </trkpt>
      <trkpt lat="50.9594" lon="1.87624">
        <ele>3.2</ele>
        <time>2020-06-22T21:30:31Z</time>
      </trkpt>
      <trkpt lat="50.95944" lon="1.87624">
        <ele>3.2</ele>
        <time>2020-06-22T21:30:32Z</time>
      </trkpt>
      <trkpt lat="50.95949" lon="1.87624">
        <ele>3.2</ele>
        <time>2020-06-22T21:30:33Z</time>
      </trkpt>
      <trkpt lat="50.95954" lon="1.87625">
        <ele>3.2</ele>
        <time>2020-06-22T21:30:34Z</time>
      </trkpt>
      <trkpt lat="50.9596" lon="1.87626">
        <ele>3.2</ele>
        <time>2020-06-22T21:30:35Z</time>
      </trkpt>
      <trkpt lat="50.95965" lon="1.87626">
        <ele>3.2</ele>
        <time>2020-06-22T21:30:36Z</time>
      </trkpt>
      <trkpt lat="50.95971" lon="1.87627">
        <ele>3.2</ele>
        <time>2020-06-22T21:30:37Z</time>
      </trkpt>
      <trkpt lat="50.95976" lon="1.87627">
        <ele>3.2</ele>
        <time>2020-06-22T21:30:38Z</time>
      </trkpt>
      <trkpt lat="50.95979" lon="1.87627">
        <ele>3.2</ele>
        <time>2020-06-22T21:30:39Z</time>
      </trkpt>
      <trkpt lat="50.95985" lon="1.87626">
        <ele>3.2</ele>
        <time>2020-06-22T21:30:40Z</time>
      </trkpt>
      <trkpt lat="50.9599" lon="1.87624">
        <ele>3.2</ele>
        <time>2020-06-22T21:30:41Z</time>
      </trkpt>
      <trkpt lat="50.95995" lon="1.87622">
        <ele>3.2</ele>
        <time>2020-06-22T21:30:42Z</time>
      </trkpt>
      <trkpt lat="50.96" lon="1.87619">
        <ele>3.2</ele>
        <time>2020-06-22T21:30:43Z</time>
      </trkpt>
      <trkpt lat="50.96005" lon="1.87616">
        <ele>3.2</ele>
        <time>2020-06-22T21:30:44Z</time>
      </trkpt>
      <trkpt lat="50.96009" lon="1.87614">
        <ele>3.2</ele>
        <time>2020-06-22T21:30:45Z</time>
      </trkpt>
      <trkpt lat="50.96013" lon="1.87612">
        <ele>3.2</ele>
        <time>2020-06-22T21:30:46Z</time>
      </trkpt>
      <trkpt lat="50.96018" lon="1.87608">
        <ele>3.2</ele>
        <time>2020-06-22T21:30:47Z</time>
      </trkpt>
      <trkpt lat="50.96023" lon="1.87603">
        <ele>3.2</ele>
        <time>2020-06-22T21:30:48Z</time>
      </trkpt>
      <trkpt lat="50.96028" lon="1.87601">
        <ele>3.2</ele>
        <time>2020-06-22T21:30:49Z</time>
      </trkpt>
      <trkpt lat="50.96033" lon="1.87599">
        <ele>3.2</ele>
        <time>2020-06-22T21:30:50Z</time>
      </trkpt>
      <trkpt lat="50.96039" lon="1.87596">
        <ele>3.2</ele>
        <time>2020-06-22T21:30:51Z</time>
      </trkpt>
      <trkpt lat="50.96046" lon="1.87592">
        <ele>3.2</ele>
        <time>2020-06-22T21:30:52Z</time>
      </trkpt>
      <trkpt lat="50.9605" lon="1.87589">
        <ele>3.2</ele>
        <time>2020-06-22T21:30:53Z</time>
      </trkpt>
      <trkpt lat="50.96053" lon="1.87586">
        <ele>3.2</ele>
        <time>2020-06-22T21:30:54Z</time>
      </trkpt>
      <trkpt lat="50.96058" lon="1.87583">
        <ele>3.2</ele>
        <time>2020-06-22T21:30:55Z</time>
      </trkpt>
      <trkpt lat="50.96062" lon="1.8758">
        <ele>3.2</ele>
        <time>2020-06-22T21:30:56Z</time>
      </trkpt>
      <trkpt lat="50.96067" lon="1.87578">
        <ele>3.2</ele>
        <time>2020-06-22T21:30:57Z</time>
      </trkpt>
      <trkpt lat="50.96071" lon="1.87576">
        <ele>3.2</ele>
        <time>2020-06-22T21:30:58Z</time>
      </trkpt>
      <trkpt lat="50.96075" lon="1.87573">
        <ele>3.2</ele>
        <time>2020-06-22T21:30:59Z</time>
      </trkpt>
      <trkpt lat="50.96079" lon="1.87571">
        <ele>3.2</ele>
        <time>2020-06-22T21:31:00Z</time>
      </trkpt>
      <trkpt lat="50.96082" lon="1.87569">
        <ele>3.2</ele>
        <time>2020-06-22T21:31:01Z</time>
      </trkpt>
      <trkpt lat="50.96086" lon="1.87567">
        <ele>3.3</ele>
        <time>2020-06-22T21:31:02Z</time>
      </trkpt>
      <trkpt lat="50.96091" lon="1.87564">
        <ele>3.3</ele>
        <time>2020-06-22T21:31:03Z</time>
      </trkpt>
      <trkpt lat="50.96095" lon="1.87562">
        <ele>3.3</ele>
        <time>2020-06-22T21:31:04Z</time>
      </trkpt>
      <trkpt lat="50.96099" lon="1.87561">
        <ele>3.4</ele>
        <time>2020-06-22T21:31:05Z</time>
      </trkpt>
      <trkpt lat="50.96103" lon="1.8756">
        <ele>3.4</ele>
        <time>2020-06-22T21:31:06Z</time>
      </trkpt>
      <trkpt lat="50.96107" lon="1.87561">
        <ele>3.4</ele>
        <time>2020-06-22T21:31:07Z</time>
      </trkpt>
      <trkpt lat="50.96111" lon="1.87565">
        <ele>3.4</ele>
        <time>2020-06-22T21:31:08Z</time>
      </trkpt>
      <trkpt lat="50.96114" lon="1.87569">
        <ele>3.4</ele>
        <time>2020-06-22T21:31:09Z</time>
      </trkpt>
      <trkpt lat="50.96116" lon="1.87574">
        <ele>3.4</ele>
        <time>2020-06-22T21:31:10Z</time>
      </trkpt>
      <trkpt lat="50.96118" lon="1.8758">
        <ele>3.3</ele>
        <time>2020-06-22T21:31:11Z</time>
      </trkpt>
      <trkpt lat="50.9612" lon="1.87586">
        <ele>3.3</ele>
        <time>2020-06-22T21:31:12Z</time>
      </trkpt>
      <trkpt lat="50.96121" lon="1.87595">
        <ele>3.3</ele>
        <time>2020-06-22T21:31:13Z</time>
      </trkpt>
      <trkpt lat="50.96123" lon="1.87602">
        <ele>3.3</ele>
        <time>2020-06-22T21:31:14Z</time>
      </trkpt>
      <trkpt lat="50.96124" lon="1.87609">
        <ele>3.3</ele>
        <time>2020-06-22T21:31:15Z</time>
      </trkpt>
      <trkpt lat="50.96124" lon="1.87617">
        <ele>3.2</ele>
        <time>2020-06-22T21:31:16Z</time>
      </trkpt>
      <trkpt lat="50.96124" lon="1.87625">
        <ele>3.2</ele>
        <time>2020-06-22T21:31:17Z</time>
      </trkpt>
      <trkpt lat="50.96126" lon="1.87633">
        <ele>3.2</ele>
        <time>2020-06-22T21:31:18Z</time>
      </trkpt>
      <trkpt lat="50.96127" lon="1.87642">
        <ele>3.2</ele>
        <time>2020-06-22T21:31:19Z</time>
      </trkpt>
      <trkpt lat="50.96129" lon="1.87649">
        <ele>3.2</ele>
        <time>2020-06-22T21:31:20Z</time>
      </trkpt>
      <trkpt lat="50.96129" lon="1.87657">
        <ele>3.2</ele>
        <time>2020-06-22T21:31:21Z</time>
      </trkpt>
      <trkpt lat="50.96129" lon="1.87665">
        <ele>3.2</ele>
        <time>2020-06-22T21:31:22Z</time>
      </trkpt>
      <trkpt lat="50.96131" lon="1.87673">
        <ele>3.2</ele>
        <time>2020-06-22T21:31:23Z</time>
      </trkpt>
      <trkpt lat="50.96132" lon="1.87681">
        <ele>3.2</ele>
        <time>2020-06-22T21:31:24Z</time>
      </trkpt>
      <trkpt lat="50.96134" lon="1.87689">
        <ele>3.2</ele>
        <time>2020-06-22T21:31:25Z</time>
      </trkpt>
      <trkpt lat="50.96137" lon="1.87697">
        <ele>3.2</ele>
        <time>2020-06-22T21:31:26Z</time>
      </trkpt>
      <trkpt lat="50.96138" lon="1.87705">
        <ele>3.2</ele>
        <time>2020-06-22T21:31:27Z</time>
      </trkpt>
      <trkpt lat="50.96139" lon="1.87714">
        <ele>3.1</ele>
        <time>2020-06-22T21:31:28Z</time>
      </trkpt>
      <trkpt lat="50.9614" lon="1.87723">
        <ele>3.1</ele>
        <time>2020-06-22T21:31:29Z</time>
      </trkpt>
      <trkpt lat="50.96142" lon="1.87731">
        <ele>3.1</ele>
        <time>2020-06-22T21:31:30Z</time>
      </trkpt>
      <trkpt lat="50.96143" lon="1.8774">
        <ele>3.1</ele>
        <time>2020-06-22T21:31:31Z</time>
      </trkpt>
      <trkpt lat="50.96145" lon="1.87749">
        <ele>3.1</ele>
        <time>2020-06-22T21:31:32Z</time>
      </trkpt>
      <trkpt lat="50.96146" lon="1.87757">
        <ele>3.1</ele>
        <time>2020-06-22T21:31:33Z</time>
      </trkpt>
      <trkpt lat="50.96148" lon="1.87766">
        <ele>3.2</ele>
        <time>2020-06-22T21:31:34Z</time>
      </trkpt>
      <trkpt lat="50.9615" lon="1.87774">
        <ele>3.2</ele>
        <time>2020-06-22T21:31:35Z</time>
      </trkpt>
      <trkpt lat="50.96151" lon="1.87783">
        <ele>3.2</ele>
        <time>2020-06-22T21:31:36Z</time>
      </trkpt>
      <trkpt lat="50.96153" lon="1.87792">
        <ele>3.2</ele>
        <time>2020-06-22T21:31:37Z</time>
      </trkpt>
      <trkpt lat="50.96154" lon="1.878">
        <ele>3.2</ele>
        <time>2020-06-22T21:31:38Z</time>
      </trkpt>
      <trkpt lat="50.96156" lon="1.87809">
        <ele>3.2</ele>
        <time>2020-06-22T21:31:39Z</time>
      </trkpt>
      <trkpt lat="50.96158" lon="1.87817">
        <ele>3.1</ele>
        <time>2020-06-22T21:31:40Z</time>
      </trkpt>
      <trkpt lat="50.9616" lon="1.87826">
        <ele>3.1</ele>
        <time>2020-06-22T21:31:41Z</time>
      </trkpt>
      <trkpt lat="50.96161" lon="1.87835">
        <ele>3.1</ele>
        <time>2020-06-22T21:31:42Z</time>
      </trkpt>
      <trkpt lat="50.96163" lon="1.87844">
        <ele>3.1</ele>
        <time>2020-06-22T21:31:43Z</time>
      </trkpt>
      <trkpt lat="50.96164" lon="1.87853">
        <ele>3.1</ele>
        <time>2020-06-22T21:31:44Z</time>
      </trkpt>
      <trkpt lat="50.96165" lon="1.87861">
        <ele>3.1</ele>
        <time>2020-06-22T21:31:45Z</time>
      </trkpt>
      <trkpt lat="50.96167" lon="1.8787">
        <ele>3.1</ele>
        <time>2020-06-22T21:31:46Z</time>
      </trkpt>
      <trkpt lat="50.96169" lon="1.87879">
        <ele>3.1</ele>
        <time>2020-06-22T21:31:47Z</time>
      </trkpt>
      <trkpt lat="50.96172" lon="1.87887">
        <ele>3</ele>
        <time>2020-06-22T21:31:48Z</time>
      </trkpt>
      <trkpt lat="50.96174" lon="1.87896">
        <ele>3</ele>
        <time>2020-06-22T21:31:49Z</time>
      </trkpt>
      <trkpt lat="50.96176" lon="1.87906">
        <ele>3</ele>
        <time>2020-06-22T21:31:50Z</time>
      </trkpt>
      <trkpt lat="50.96177" lon="1.87915">
        <ele>3</ele>
        <time>2020-06-22T21:31:51Z</time>
      </trkpt>
      <trkpt lat="50.96177" lon="1.87925">
        <ele>3</ele>
        <time>2020-06-22T21:31:52Z</time>
      </trkpt>
      <trkpt lat="50.96178" lon="1.87934">
        <ele>3</ele>
        <time>2020-06-22T21:31:53Z</time>
      </trkpt>
      <trkpt lat="50.9618" lon="1.87944">
        <ele>3</ele>
        <time>2020-06-22T21:31:54Z</time>
      </trkpt>
      <trkpt lat="50.96182" lon="1.87952">
        <ele>3</ele>
        <time>2020-06-22T21:31:55Z</time>
      </trkpt>
      <trkpt lat="50.96184" lon="1.87961">
        <ele>3</ele>
        <time>2020-06-22T21:31:56Z</time>
      </trkpt>
      <trkpt lat="50.96185" lon="1.8797">
        <ele>3</ele>
        <time>2020-06-22T21:31:57Z</time>
      </trkpt>
      <trkpt lat="50.96187" lon="1.87979">
        <ele>2.9</ele>
        <time>2020-06-22T21:31:58Z</time>
      </trkpt>
      <trkpt lat="50.96188" lon="1.87988">
        <ele>2.9</ele>
        <time>2020-06-22T21:31:59Z</time>
      </trkpt>
      <trkpt lat="50.9619" lon="1.87996">
        <ele>2.9</ele>
        <time>2020-06-22T21:32:00Z</time>
      </trkpt>
      <trkpt lat="50.96191" lon="1.88004">
        <ele>2.9</ele>
        <time>2020-06-22T21:32:01Z</time>
      </trkpt>
      <trkpt lat="50.96192" lon="1.88012">
        <ele>2.9</ele>
        <time>2020-06-22T21:32:02Z</time>
      </trkpt>
      <trkpt lat="50.96194" lon="1.88019">
        <ele>2.9</ele>
        <time>2020-06-22T21:32:03Z</time>
      </trkpt>
      <trkpt lat="50.96195" lon="1.88026">
        <ele>2.9</ele>
        <time>2020-06-22T21:32:04Z</time>
      </trkpt>
      <trkpt lat="50.96197" lon="1.88033">
        <ele>2.8</ele>
        <time>2020-06-22T21:32:05Z</time>
      </trkpt>
      <trkpt lat="50.96198" lon="1.8804">
        <ele>2.8</ele>
        <time>2020-06-22T21:32:06Z</time>
      </trkpt>
      <trkpt lat="50.962" lon="1.88047">
        <ele>2.8</ele>
        <time>2020-06-22T21:32:07Z</time>
      </trkpt>
      <trkpt lat="50.96202" lon="1.88054">
        <ele>2.8</ele>
        <time>2020-06-22T21:32:08Z</time>
      </trkpt>
      <trkpt lat="50.96204" lon="1.88061">
        <ele>2.8</ele>
        <time>2020-06-22T21:32:09Z</time>
      </trkpt>
      <trkpt lat="50.96206" lon="1.88069">
        <ele>2.9</ele>
        <time>2020-06-22T21:32:10Z</time>
      </trkpt>
      <trkpt lat="50.96208" lon="1.88078">
        <ele>2.9</ele>
        <time>2020-06-22T21:32:11Z</time>
      </trkpt>
      <trkpt lat="50.96208" lon="1.88087">
        <ele>2.9</ele>
        <time>2020-06-22T21:32:12Z</time>
      </trkpt>
      <trkpt lat="50.9621" lon="1.88097">
        <ele>3</ele>
        <time>2020-06-22T21:32:13Z</time>
      </trkpt>
      <trkpt lat="50.96211" lon="1.88106">
        <ele>3</ele>
        <time>2020-06-22T21:32:14Z</time>
      </trkpt>
      <trkpt lat="50.96212" lon="1.88115">
        <ele>3</ele>
        <time>2020-06-22T21:32:15Z</time>
      </trkpt>
      <trkpt lat="50.96214" lon="1.88124">
        <ele>2.9</ele>
        <time>2020-06-22T21:32:16Z</time>
      </trkpt>
      <trkpt lat="50.96216" lon="1.88132">
        <ele>2.9</ele>
        <time>2020-06-22T21:32:17Z</time>
      </trkpt>
      <trkpt lat="50.96217" lon="1.88141">
        <ele>2.9</ele>
        <time>2020-06-22T21:32:18Z</time>
      </trkpt>
      <trkpt lat="50.96219" lon="1.88149">
        <ele>2.8</ele>
        <time>2020-06-22T21:32:19Z</time>
      </trkpt>
      <trkpt lat="50.9622" lon="1.88159">
        <ele>2.8</ele>
        <time>2020-06-22T21:32:20Z</time>
      </trkpt>
      <trkpt lat="50.96221" lon="1.88168">
        <ele>2.7</ele>
        <time>2020-06-22T21:32:21Z</time>
      </trkpt>
      <trkpt lat="50.96223" lon="1.88175">
        <ele>2.7</ele>
        <time>2020-06-22T21:32:22Z</time>
      </trkpt>
      <trkpt lat="50.96225" lon="1.88183">
        <ele>2.7</ele>
        <time>2020-06-22T21:32:23Z</time>
      </trkpt>
      <trkpt lat="50.96228" lon="1.88191">
        <ele>2.7</ele>
        <time>2020-06-22T21:32:24Z</time>
      </trkpt>
      <trkpt lat="50.9623" lon="1.88198">
        <ele>2.7</ele>
        <time>2020-06-22T21:32:25Z</time>
      </trkpt>
      <trkpt lat="50.96231" lon="1.88206">
        <ele>2.8</ele>
        <time>2020-06-22T21:32:26Z</time>
      </trkpt>
      <trkpt lat="50.96233" lon="1.88213">
        <ele>2.8</ele>
        <time>2020-06-22T21:32:27Z</time>
      </trkpt>
      <trkpt lat="50.96235" lon="1.88221">
        <ele>2.9</ele>
        <time>2020-06-22T21:32:28Z</time>
      </trkpt>
      <trkpt lat="50.96236" lon="1.8823">
        <ele>3</ele>
        <time>2020-06-22T21:32:29Z</time>
      </trkpt>
      <trkpt lat="50.96238" lon="1.88239">
        <ele>3</ele>
        <time>2020-06-22T21:32:30Z</time>
      </trkpt>
      <trkpt lat="50.96237" lon="1.88248">
        <ele>3</ele>
        <time>2020-06-22T21:32:31Z</time>
      </trkpt>
      <trkpt lat="50.96237" lon="1.88257">
        <ele>3</ele>
        <time>2020-06-22T21:32:32Z</time>
      </trkpt>
      <trkpt lat="50.96235" lon="1.88266">
        <ele>3</ele>
        <time>2020-06-22T21:32:33Z</time>
      </trkpt>
      <trkpt lat="50.96234" lon="1.88275">
        <ele>3</ele>
        <time>2020-06-22T21:32:34Z</time>
      </trkpt>
      <trkpt lat="50.96234" lon="1.88284">
        <ele>3</ele>
        <time>2020-06-22T21:32:35Z</time>
      </trkpt>
      <trkpt lat="50.96233" lon="1.88293">
        <ele>3</ele>
        <time>2020-06-22T21:32:36Z</time>
      </trkpt>
      <trkpt lat="50.96233" lon="1.88301">
        <ele>2.9</ele>
        <time>2020-06-22T21:32:37Z</time>
      </trkpt>
      <trkpt lat="50.96232" lon="1.8831">
        <ele>2.9</ele>
        <time>2020-06-22T21:32:38Z</time>
      </trkpt>
      <trkpt lat="50.96231" lon="1.88319">
        <ele>2.9</ele>
        <time>2020-06-22T21:32:39Z</time>
      </trkpt>
      <trkpt lat="50.9623" lon="1.88327">
        <ele>2.9</ele>
        <time>2020-06-22T21:32:40Z</time>
      </trkpt>
      <trkpt lat="50.96229" lon="1.88337">
        <ele>3</ele>
        <time>2020-06-22T21:32:41Z</time>
      </trkpt>
      <trkpt lat="50.96228" lon="1.88346">
        <ele>3</ele>
        <time>2020-06-22T21:32:42Z</time>
      </trkpt>
      <trkpt lat="50.96228" lon="1.88355">
        <ele>3</ele>
        <time>2020-06-22T21:32:43Z</time>
      </trkpt>
      <trkpt lat="50.96228" lon="1.88364">
        <ele>3</ele>
        <time>2020-06-22T21:32:44Z</time>
      </trkpt>
      <trkpt lat="50.96229" lon="1.88374">
        <ele>3</ele>
        <time>2020-06-22T21:32:45Z</time>
      </trkpt>
      <trkpt lat="50.9623" lon="1.88383">
        <ele>3</ele>
        <time>2020-06-22T21:32:46Z</time>
      </trkpt>
      <trkpt lat="50.96231" lon="1.88392">
        <ele>3</ele>
        <time>2020-06-22T21:32:47Z</time>
      </trkpt>
      <trkpt lat="50.96233" lon="1.884">
        <ele>3.1</ele>
        <time>2020-06-22T21:32:48Z</time>
      </trkpt>
      <trkpt lat="50.96235" lon="1.88409">
        <ele>3.1</ele>
        <time>2020-06-22T21:32:49Z</time>
      </trkpt>
      <trkpt lat="50.96236" lon="1.88417">
        <ele>3.1</ele>
        <time>2020-06-22T21:32:50Z</time>
      </trkpt>
      <trkpt lat="50.96238" lon="1.88426">
        <ele>3.1</ele>
        <time>2020-06-22T21:32:51Z</time>
      </trkpt>
      <trkpt lat="50.9624" lon="1.88435">
        <ele>3.1</ele>
        <time>2020-06-22T21:32:52Z</time>
      </trkpt>
      <trkpt lat="50.96242" lon="1.88443">
        <ele>3.1</ele>
        <time>2020-06-22T21:32:53Z</time>
      </trkpt>
      <trkpt lat="50.96243" lon="1.88452">
        <ele>3.2</ele>
        <time>2020-06-22T21:32:54Z</time>
      </trkpt>
      <trkpt lat="50.96245" lon="1.88461">
        <ele>3.2</ele>
        <time>2020-06-22T21:32:55Z</time>
      </trkpt>
      <trkpt lat="50.96247" lon="1.8847">
        <ele>3.2</ele>
        <time>2020-06-22T21:32:56Z</time>
      </trkpt>
      <trkpt lat="50.96248" lon="1.88479">
        <ele>3.3</ele>
        <time>2020-06-22T21:32:57Z</time>
      </trkpt>
      <trkpt lat="50.96249" lon="1.88488">
        <ele>3.3</ele>
        <time>2020-06-22T21:32:58Z</time>
      </trkpt>
      <trkpt lat="50.9625" lon="1.88497">
        <ele>3.3</ele>
        <time>2020-06-22T21:32:59Z</time>
      </trkpt>
      <trkpt lat="50.96251" lon="1.88506">
        <ele>3.4</ele>
        <time>2020-06-22T21:33:00Z</time>
      </trkpt>
      <trkpt lat="50.96252" lon="1.88515">
        <ele>3.5</ele>
        <time>2020-06-22T21:33:01Z</time>
      </trkpt>
      <trkpt lat="50.96254" lon="1.88524">
        <ele>3.5</ele>
        <time>2020-06-22T21:33:02Z</time>
      </trkpt>
      <trkpt lat="50.96254" lon="1.88534">
        <ele>3.5</ele>
        <time>2020-06-22T21:33:03Z</time>
      </trkpt>
      <trkpt lat="50.96254" lon="1.88543">
        <ele>3.5</ele>
        <time>2020-06-22T21:33:04Z</time>
      </trkpt>
      <trkpt lat="50.96254" lon="1.88553">
        <ele>3.5</ele>
        <time>2020-06-22T21:33:05Z</time>
      </trkpt>
      <trkpt lat="50.96254" lon="1.88562">
        <ele>3.5</ele>
        <time>2020-06-22T21:33:06Z</time>
      </trkpt>
      <trkpt lat="50.96256" lon="1.88571">
        <ele>3.5</ele>
        <time>2020-06-22T21:33:07Z</time>
      </trkpt>
      <trkpt lat="50.96258" lon="1.8858">
        <ele>3.5</ele>
        <time>2020-06-22T21:33:08Z</time>
      </trkpt>
      <trkpt lat="50.96259" lon="1.88589">
        <ele>3.5</ele>
        <time>2020-06-22T21:33:09Z</time>
      </trkpt>
      <trkpt lat="50.9626" lon="1.88598">
        <ele>3.5</ele>
        <time>2020-06-22T21:33:10Z</time>
      </trkpt>
      <trkpt lat="50.96261" lon="1.88607">
        <ele>3.6</ele>
        <time>2020-06-22T21:33:11Z</time>
      </trkpt>
      <trkpt lat="50.96261" lon="1.88617">
        <ele>3.6</ele>
        <time>2020-06-22T21:33:12Z</time>
      </trkpt>
      <trkpt lat="50.96262" lon="1.88626">
        <ele>3.6</ele>
        <time>2020-06-22T21:33:13Z</time>
      </trkpt>
      <trkpt lat="50.96263" lon="1.88635">
        <ele>3.5</ele>
        <time>2020-06-22T21:33:14Z</time>
      </trkpt>
      <trkpt lat="50.96264" lon="1.88644">
        <ele>3.5</ele>
        <time>2020-06-22T21:33:15Z</time>
      </trkpt>
      <trkpt lat="50.96265" lon="1.88652">
        <ele>3.5</ele>
        <time>2020-06-22T21:33:16Z</time>
      </trkpt>
      <trkpt lat="50.96266" lon="1.8866">
        <ele>3.5</ele>
        <time>2020-06-22T21:33:17Z</time>
      </trkpt>
      <trkpt lat="50.96268" lon="1.88668">
        <ele>3.5</ele>
        <time>2020-06-22T21:33:18Z</time>
      </trkpt>
      <trkpt lat="50.96271" lon="1.88677">
        <ele>3.5</ele>
        <time>2020-06-22T21:33:19Z</time>
      </trkpt>
      <trkpt lat="50.96273" lon="1.88685">
        <ele>3.4</ele>
        <time>2020-06-22T21:33:20Z</time>
      </trkpt>
      <trkpt lat="50.96274" lon="1.88694">
        <ele>3.4</ele>
        <time>2020-06-22T21:33:21Z</time>
      </trkpt>
      <trkpt lat="50.96276" lon="1.88704">
        <ele>3.4</ele>
        <time>2020-06-22T21:33:22Z</time>
      </trkpt>
      <trkpt lat="50.96278" lon="1.88713">
        <ele>3.3</ele>
        <time>2020-06-22T21:33:23Z</time>
      </trkpt>
      <trkpt lat="50.9628" lon="1.88722">
        <ele>3.3</ele>
        <time>2020-06-22T21:33:24Z</time>
      </trkpt>
      <trkpt lat="50.96281" lon="1.88731">
        <ele>3.3</ele>
        <time>2020-06-22T21:33:25Z</time>
      </trkpt>
      <trkpt lat="50.96283" lon="1.8874">
        <ele>3.2</ele>
        <time>2020-06-22T21:33:26Z</time>
      </trkpt>
      <trkpt lat="50.96284" lon="1.88749">
        <ele>3.2</ele>
        <time>2020-06-22T21:33:27Z</time>
      </trkpt>
      <trkpt lat="50.96284" lon="1.88759">
        <ele>3.1</ele>
        <time>2020-06-22T21:33:28Z</time>
      </trkpt>
      <trkpt lat="50.96286" lon="1.88768">
        <ele>3.1</ele>
        <time>2020-06-22T21:33:29Z</time>
      </trkpt>
      <trkpt lat="50.96287" lon="1.88776">
        <ele>3.1</ele>
        <time>2020-06-22T21:33:30Z</time>
      </trkpt>
      <trkpt lat="50.96289" lon="1.88785">
        <ele>3.1</ele>
        <time>2020-06-22T21:33:31Z</time>
      </trkpt>
      <trkpt lat="50.96291" lon="1.88793">
        <ele>3.1</ele>
        <time>2020-06-22T21:33:32Z</time>
      </trkpt>
      <trkpt lat="50.96293" lon="1.88802">
        <ele>3.1</ele>
        <time>2020-06-22T21:33:33Z</time>
      </trkpt>
      <trkpt lat="50.96295" lon="1.88812">
        <ele>3.2</ele>
        <time>2020-06-22T21:33:34Z</time>
      </trkpt>
      <trkpt lat="50.96298" lon="1.88823">
        <ele>3.2</ele>
        <time>2020-06-22T21:33:35Z</time>
      </trkpt>
      <trkpt lat="50.963" lon="1.88835">
        <ele>3.2</ele>
        <time>2020-06-22T21:33:36Z</time>
      </trkpt>
      <trkpt lat="50.96301" lon="1.88846">
        <ele>3.2</ele>
        <time>2020-06-22T21:33:37Z</time>
      </trkpt>
      <trkpt lat="50.96303" lon="1.88856">
        <ele>3.2</ele>
        <time>2020-06-22T21:33:38Z</time>
      </trkpt>
      <trkpt lat="50.96303" lon="1.88865">
        <ele>3.3</ele>
        <time>2020-06-22T21:33:39Z</time>
      </trkpt>
      <trkpt lat="50.96304" lon="1.88875">
        <ele>3.3</ele>
        <time>2020-06-22T21:33:40Z</time>
      </trkpt>
      <trkpt lat="50.96305" lon="1.88884">
        <ele>3.3</ele>
        <time>2020-06-22T21:33:41Z</time>
      </trkpt>
      <trkpt lat="50.96307" lon="1.88894">
        <ele>3.4</ele>
        <time>2020-06-22T21:33:42Z</time>
      </trkpt>
      <trkpt lat="50.96309" lon="1.88903">
        <ele>3.5</ele>
        <time>2020-06-22T21:33:43Z</time>
      </trkpt>
      <trkpt lat="50.96311" lon="1.88912">
        <ele>3.5</ele>
        <time>2020-06-22T21:33:44Z</time>
      </trkpt>
      <trkpt lat="50.96313" lon="1.88919">
        <ele>3.6</ele>
        <time>2020-06-22T21:33:45Z</time>
      </trkpt>
      <trkpt lat="50.96315" lon="1.88927">
        <ele>3.6</ele>
        <time>2020-06-22T21:33:46Z</time>
      </trkpt>
      <trkpt lat="50.96316" lon="1.88938">
        <ele>3.6</ele>
        <time>2020-06-22T21:33:47Z</time>
      </trkpt>
      <trkpt lat="50.96317" lon="1.88946">
        <ele>3.6</ele>
        <time>2020-06-22T21:33:48Z</time>
      </trkpt>
      <trkpt lat="50.96318" lon="1.88957">
        <ele>3.6</ele>
        <time>2020-06-22T21:33:49Z</time>
      </trkpt>
      <trkpt lat="50.9632" lon="1.88966">
        <ele>3.6</ele>
        <time>2020-06-22T21:33:50Z</time>
      </trkpt>
      <trkpt lat="50.96321" lon="1.88974">
        <ele>3.6</ele>
        <time>2020-06-22T21:33:51Z</time>
      </trkpt>
      <trkpt lat="50.96324" lon="1.88982">
        <ele>3.6</ele>
        <time>2020-06-22T21:33:52Z</time>
      </trkpt>
      <trkpt lat="50.96326" lon="1.88991">
        <ele>3.6</ele>
        <time>2020-06-22T21:33:53Z</time>
      </trkpt>
      <trkpt lat="50.96327" lon="1.89001">
        <ele>3.6</ele>
        <time>2020-06-22T21:33:54Z</time>
      </trkpt>
      <trkpt lat="50.96329" lon="1.89012">
        <ele>3.6</ele>
        <time>2020-06-22T21:33:55Z</time>
      </trkpt>
      <trkpt lat="50.9633" lon="1.89021">
        <ele>3.6</ele>
        <time>2020-06-22T21:33:56Z</time>
      </trkpt>
      <trkpt lat="50.96332" lon="1.89031">
        <ele>3.5</ele>
        <time>2020-06-22T21:33:57Z</time>
      </trkpt>
      <trkpt lat="50.96334" lon="1.8904">
        <ele>3.5</ele>
        <time>2020-06-22T21:33:58Z</time>
      </trkpt>
      <trkpt lat="50.96336" lon="1.89048">
        <ele>3.6</ele>
        <time>2020-06-22T21:33:59Z</time>
      </trkpt>
      <trkpt lat="50.96338" lon="1.89057">
        <ele>3.6</ele>
        <time>2020-06-22T21:34:00Z</time>
      </trkpt>
      <trkpt lat="50.9634" lon="1.89065">
        <ele>3.6</ele>
        <time>2020-06-22T21:34:01Z</time>
      </trkpt>
      <trkpt lat="50.96342" lon="1.89074">
        <ele>3.6</ele>
        <time>2020-06-22T21:34:02Z</time>
      </trkpt>
      <trkpt lat="50.96344" lon="1.89082">
        <ele>3.6</ele>
        <time>2020-06-22T21:34:03Z</time>
      </trkpt>
      <trkpt lat="50.96345" lon="1.8909">
        <ele>3.6</ele>
        <time>2020-06-22T21:34:04Z</time>
      </trkpt>
      <trkpt lat="50.96347" lon="1.89099">
        <ele>3.7</ele>
        <time>2020-06-22T21:34:05Z</time>
      </trkpt>
      <trkpt lat="50.96349" lon="1.89109">
        <ele>3.7</ele>
        <time>2020-06-22T21:34:06Z</time>
      </trkpt>
      <trkpt lat="50.96352" lon="1.89118">
        <ele>3.7</ele>
        <time>2020-06-22T21:34:07Z</time>
      </trkpt>
      <trkpt lat="50.96353" lon="1.89127">
        <ele>3.7</ele>
        <time>2020-06-22T21:34:08Z</time>
      </trkpt>
      <trkpt lat="50.96356" lon="1.89136">
        <ele>3.7</ele>
        <time>2020-06-22T21:34:09Z</time>
      </trkpt>
      <trkpt lat="50.96359" lon="1.89146">
        <ele>3.7</ele>
        <time>2020-06-22T21:34:10Z</time>
      </trkpt>
      <trkpt lat="50.96361" lon="1.89156">
        <ele>3.7</ele>
        <time>2020-06-22T21:34:11Z</time>
      </trkpt>
      <trkpt lat="50.96363" lon="1.89164">
        <ele>3.7</ele>
        <time>2020-06-22T21:34:12Z</time>
      </trkpt>
      <trkpt lat="50.96365" lon="1.89173">
        <ele>3.7</ele>
        <time>2020-06-22T21:34:13Z</time>
      </trkpt>
      <trkpt lat="50.96367" lon="1.89182">
        <ele>3.7</ele>
        <time>2020-06-22T21:34:14Z</time>
      </trkpt>
      <trkpt lat="50.96369" lon="1.89191">
        <ele>3.6</ele>
        <time>2020-06-22T21:34:15Z</time>
      </trkpt>
      <trkpt lat="50.96371" lon="1.89202">
        <ele>3.6</ele>
        <time>2020-06-22T21:34:16Z</time>
      </trkpt>
      <trkpt lat="50.96372" lon="1.89212">
        <ele>3.6</ele>
        <time>2020-06-22T21:34:17Z</time>
      </trkpt>
      <trkpt lat="50.96374" lon="1.89221">
        <ele>3.5</ele>
        <time>2020-06-22T21:34:18Z</time>
      </trkpt>
      <trkpt lat="50.96376" lon="1.89233">
        <ele>3.5</ele>
        <time>2020-06-22T21:34:19Z</time>
      </trkpt>
      <trkpt lat="50.96378" lon="1.89244">
        <ele>3.5</ele>
        <time>2020-06-22T21:34:20Z</time>
      </trkpt>
      <trkpt lat="50.96379" lon="1.89251">
        <ele>3.5</ele>
        <time>2020-06-22T21:34:21Z</time>
      </trkpt>
      <trkpt lat="50.96381" lon="1.89261">
        <ele>3.5</ele>
        <time>2020-06-22T21:34:22Z</time>
      </trkpt>
      <trkpt lat="50.96382" lon="1.8927">
        <ele>3.4</ele>
        <time>2020-06-22T21:34:23Z</time>
      </trkpt>
      <trkpt lat="50.96383" lon="1.89279">
        <ele>3.4</ele>
        <time>2020-06-22T21:34:24Z</time>
      </trkpt>
      <trkpt lat="50.96385" lon="1.89287">
        <ele>3.4</ele>
        <time>2020-06-22T21:34:25Z</time>
      </trkpt>
      <trkpt lat="50.96386" lon="1.89298">
        <ele>3.4</ele>
        <time>2020-06-22T21:34:26Z</time>
      </trkpt>
      <trkpt lat="50.96388" lon="1.89308">
        <ele>3.4</ele>
        <time>2020-06-22T21:34:27Z</time>
      </trkpt>
      <trkpt lat="50.96389" lon="1.89317">
        <ele>3.4</ele>
        <time>2020-06-22T21:34:28Z</time>
      </trkpt>
      <trkpt lat="50.96391" lon="1.89327">
        <ele>3.3</ele>
        <time>2020-06-22T21:34:29Z</time>
      </trkpt>
      <trkpt lat="50.96392" lon="1.89337">
        <ele>3.3</ele>
        <time>2020-06-22T21:34:30Z</time>
      </trkpt>
      <trkpt lat="50.96393" lon="1.89347">
        <ele>3.3</ele>
        <time>2020-06-22T21:34:31Z</time>
      </trkpt>
      <trkpt lat="50.96394" lon="1.89358">
        <ele>3.2</ele>
        <time>2020-06-22T21:34:32Z</time>
      </trkpt>
      <trkpt lat="50.96396" lon="1.89368">
        <ele>3.2</ele>
        <time>2020-06-22T21:34:33Z</time>
      </trkpt>
      <trkpt lat="50.96397" lon="1.89377">
        <ele>3.2</ele>
        <time>2020-06-22T21:34:34Z</time>
      </trkpt>
      <trkpt lat="50.96399" lon="1.89386">
        <ele>3.2</ele>
        <time>2020-06-22T21:34:35Z</time>
      </trkpt>
      <trkpt lat="50.964" lon="1.89395">
        <ele>3.2</ele>
        <time>2020-06-22T21:34:36Z</time>
      </trkpt>
      <trkpt lat="50.96401" lon="1.89405">
        <ele>3.3</ele>
        <time>2020-06-22T21:34:37Z</time>
      </trkpt>
      <trkpt lat="50.96403" lon="1.89414">
        <ele>3.3</ele>
        <time>2020-06-22T21:34:38Z</time>
      </trkpt>
      <trkpt lat="50.96405" lon="1.89424">
        <ele>3.3</ele>
        <time>2020-06-22T21:34:39Z</time>
      </trkpt>
      <trkpt lat="50.96406" lon="1.89434">
        <ele>3.3</ele>
        <time>2020-06-22T21:34:40Z</time>
      </trkpt>
      <trkpt lat="50.96408" lon="1.89443">
        <ele>3.3</ele>
        <time>2020-06-22T21:34:41Z</time>
      </trkpt>
      <trkpt lat="50.9641" lon="1.89454">
        <ele>3.3</ele>
        <time>2020-06-22T21:34:42Z</time>
      </trkpt>
      <trkpt lat="50.96411" lon="1.89464">
        <ele>3.3</ele>
        <time>2020-06-22T21:34:43Z</time>
      </trkpt>
      <trkpt lat="50.96412" lon="1.89474">
        <ele>3.3</ele>
        <time>2020-06-22T21:34:44Z</time>
      </trkpt>
      <trkpt lat="50.96413" lon="1.89483">
        <ele>3.3</ele>
        <time>2020-06-22T21:34:45Z</time>
      </trkpt>
      <trkpt lat="50.96415" lon="1.89494">
        <ele>3.3</ele>
        <time>2020-06-22T21:34:46Z</time>
      </trkpt>
      <trkpt lat="50.96416" lon="1.89504">
        <ele>3.3</ele>
        <time>2020-06-22T21:34:47Z</time>
      </trkpt>
      <trkpt lat="50.96417" lon="1.89513">
        <ele>3.3</ele>
        <time>2020-06-22T21:34:48Z</time>
      </trkpt>
      <trkpt lat="50.96419" lon="1.89522">
        <ele>3.3</ele>
        <time>2020-06-22T21:34:49Z</time>
      </trkpt>
      <trkpt lat="50.96421" lon="1.89532">
        <ele>3.3</ele>
        <time>2020-06-22T21:34:50Z</time>
      </trkpt>
      <trkpt lat="50.96422" lon="1.89541">
        <ele>3.4</ele>
        <time>2020-06-22T21:34:51Z</time>
      </trkpt>
      <trkpt lat="50.96424" lon="1.89551">
        <ele>3.4</ele>
        <time>2020-06-22T21:34:52Z</time>
      </trkpt>
      <trkpt lat="50.96425" lon="1.89561">
        <ele>3.5</ele>
        <time>2020-06-22T21:34:53Z</time>
      </trkpt>
      <trkpt lat="50.96426" lon="1.8957">
        <ele>3.5</ele>
        <time>2020-06-22T21:34:54Z</time>
      </trkpt>
      <trkpt lat="50.96428" lon="1.89578">
        <ele>3.6</ele>
        <time>2020-06-22T21:34:55Z</time>
      </trkpt>
      <trkpt lat="50.96429" lon="1.89588">
        <ele>3.5</ele>
        <time>2020-06-22T21:34:56Z</time>
      </trkpt>
      <trkpt lat="50.9643" lon="1.89596">
        <ele>3.5</ele>
        <time>2020-06-22T21:34:57Z</time>
      </trkpt>
      <trkpt lat="50.96431" lon="1.89606">
        <ele>3.4</ele>
        <time>2020-06-22T21:34:58Z</time>
      </trkpt>
      <trkpt lat="50.96431" lon="1.89617">
        <ele>3.4</ele>
        <time>2020-06-22T21:34:59Z</time>
      </trkpt>
      <trkpt lat="50.96433" lon="1.89625">
        <ele>3.4</ele>
        <time>2020-06-22T21:35:00Z</time>
      </trkpt>
      <trkpt lat="50.96435" lon="1.89634">
        <ele>3.4</ele>
        <time>2020-06-22T21:35:01Z</time>
      </trkpt>
      <trkpt lat="50.96436" lon="1.89644">
        <ele>3.4</ele>
        <time>2020-06-22T21:35:02Z</time>
      </trkpt>
      <trkpt lat="50.96438" lon="1.89652">
        <ele>3.4</ele>
        <time>2020-06-22T21:35:03Z</time>
      </trkpt>
      <trkpt lat="50.96439" lon="1.89661">
        <ele>3.4</ele>
        <time>2020-06-22T21:35:04Z</time>
      </trkpt>
      <trkpt lat="50.96441" lon="1.89671">
        <ele>3.4</ele>
        <time>2020-06-22T21:35:05Z</time>
      </trkpt>
      <trkpt lat="50.96442" lon="1.8968">
        <ele>3.4</ele>
        <time>2020-06-22T21:35:06Z</time>
      </trkpt>
      <trkpt lat="50.96443" lon="1.89689">
        <ele>3.4</ele>
        <time>2020-06-22T21:35:07Z</time>
      </trkpt>
      <trkpt lat="50.96444" lon="1.89699">
        <ele>3.3</ele>
        <time>2020-06-22T21:35:08Z</time>
      </trkpt>
      <trkpt lat="50.96445" lon="1.89709">
        <ele>3.3</ele>
        <time>2020-06-22T21:35:09Z</time>
      </trkpt>
      <trkpt lat="50.96446" lon="1.89721">
        <ele>3.3</ele>
        <time>2020-06-22T21:35:10Z</time>
      </trkpt>
      <trkpt lat="50.96448" lon="1.89731">
        <ele>3.2</ele>
        <time>2020-06-22T21:35:11Z</time>
      </trkpt>
      <trkpt lat="50.96448" lon="1.8974">
        <ele>3.2</ele>
        <time>2020-06-22T21:35:12Z</time>
      </trkpt>
      <trkpt lat="50.9645" lon="1.89751">
        <ele>3.2</ele>
        <time>2020-06-22T21:35:13Z</time>
      </trkpt>
      <trkpt lat="50.96451" lon="1.8976">
        <ele>3.2</ele>
        <time>2020-06-22T21:35:14Z</time>
      </trkpt>
      <trkpt lat="50.96452" lon="1.89769">
        <ele>3.1</ele>
        <time>2020-06-22T21:35:15Z</time>
      </trkpt>
      <trkpt lat="50.96453" lon="1.89778">
        <ele>3.1</ele>
        <time>2020-06-22T21:35:16Z</time>
      </trkpt>
      <trkpt lat="50.96454" lon="1.89787">
        <ele>3.1</ele>
        <time>2020-06-22T21:35:17Z</time>
      </trkpt>
      <trkpt lat="50.96455" lon="1.89796">
        <ele>3.1</ele>
        <time>2020-06-22T21:35:18Z</time>
      </trkpt>
      <trkpt lat="50.96457" lon="1.89805">
        <ele>3</ele>
        <time>2020-06-22T21:35:19Z</time>
      </trkpt>
      <trkpt lat="50.96458" lon="1.89818">
        <ele>3</ele>
        <time>2020-06-22T21:35:20Z</time>
      </trkpt>
      <trkpt lat="50.96459" lon="1.89827">
        <ele>2.9</ele>
        <time>2020-06-22T21:35:21Z</time>
      </trkpt>
      <trkpt lat="50.9646" lon="1.89835">
        <ele>2.9</ele>
        <time>2020-06-22T21:35:22Z</time>
      </trkpt>
      <trkpt lat="50.96459" lon="1.89844">
        <ele>2.9</ele>
        <time>2020-06-22T21:35:23Z</time>
      </trkpt>
      <trkpt lat="50.9646" lon="1.89853">
        <ele>2.9</ele>
        <time>2020-06-22T21:35:24Z</time>
      </trkpt>
      <trkpt lat="50.96461" lon="1.89863">
        <ele>2.9</ele>
        <time>2020-06-22T21:35:25Z</time>
      </trkpt>
      <trkpt lat="50.96462" lon="1.89872">
        <ele>2.9</ele>
        <time>2020-06-22T21:35:26Z</time>
      </trkpt>
      <trkpt lat="50.96464" lon="1.89882">
        <ele>2.9</ele>
        <time>2020-06-22T21:35:27Z</time>
      </trkpt>
      <trkpt lat="50.96465" lon="1.8989">
        <ele>2.9</ele>
        <time>2020-06-22T21:35:28Z</time>
      </trkpt>
      <trkpt lat="50.96466" lon="1.89902">
        <ele>2.9</ele>
        <time>2020-06-22T21:35:29Z</time>
      </trkpt>
      <trkpt lat="50.96467" lon="1.89911">
        <ele>2.9</ele>
        <time>2020-06-22T21:35:30Z</time>
      </trkpt>
      <trkpt lat="50.96468" lon="1.89921">
        <ele>2.9</ele>
        <time>2020-06-22T21:35:31Z</time>
      </trkpt>
      <trkpt lat="50.96469" lon="1.8993">
        <ele>2.9</ele>
        <time>2020-06-22T21:35:32Z</time>
      </trkpt>
      <trkpt lat="50.96469" lon="1.89939">
        <ele>2.9</ele>
        <time>2020-06-22T21:35:33Z</time>
      </trkpt>
      <trkpt lat="50.9647" lon="1.89948">
        <ele>2.9</ele>
        <time>2020-06-22T21:35:34Z</time>
      </trkpt>
      <trkpt lat="50.96469" lon="1.89956">
        <ele>2.9</ele>
        <time>2020-06-22T21:35:35Z</time>
      </trkpt>
      <trkpt lat="50.96469" lon="1.89969">
        <ele>3</ele>
        <time>2020-06-22T21:35:36Z</time>
      </trkpt>
      <trkpt lat="50.96469" lon="1.89978">
        <ele>2.9</ele>
        <time>2020-06-22T21:35:37Z</time>
      </trkpt>
      <trkpt lat="50.9647" lon="1.89989">
        <ele>2.8</ele>
        <time>2020-06-22T21:35:38Z</time>
      </trkpt>
      <trkpt lat="50.96471" lon="1.89999">
        <ele>2.8</ele>
        <time>2020-06-22T21:35:39Z</time>
      </trkpt>
      <trkpt lat="50.96471" lon="1.90008">
        <ele>2.8</ele>
        <time>2020-06-22T21:35:40Z</time>
      </trkpt>
      <trkpt lat="50.96472" lon="1.90016">
        <ele>2.7</ele>
        <time>2020-06-22T21:35:41Z</time>
      </trkpt>
      <trkpt lat="50.96472" lon="1.90025">
        <ele>2.7</ele>
        <time>2020-06-22T21:35:42Z</time>
      </trkpt>
      <trkpt lat="50.96473" lon="1.90036">
        <ele>2.7</ele>
        <time>2020-06-22T21:35:43Z</time>
      </trkpt>
      <trkpt lat="50.96473" lon="1.90048">
        <ele>2.6</ele>
        <time>2020-06-22T21:35:44Z</time>
      </trkpt>
      <trkpt lat="50.96473" lon="1.90056">
        <ele>2.6</ele>
        <time>2020-06-22T21:35:45Z</time>
      </trkpt>
      <trkpt lat="50.96474" lon="1.90064">
        <ele>2.6</ele>
        <time>2020-06-22T21:35:46Z</time>
      </trkpt>
      <trkpt lat="50.96475" lon="1.90073">
        <ele>2.7</ele>
        <time>2020-06-22T21:35:47Z</time>
      </trkpt>
      <trkpt lat="50.96476" lon="1.90083">
        <ele>2.7</ele>
        <time>2020-06-22T21:35:48Z</time>
      </trkpt>
      <trkpt lat="50.96478" lon="1.90092">
        <ele>2.8</ele>
        <time>2020-06-22T21:35:49Z</time>
      </trkpt>
      <trkpt lat="50.9648" lon="1.901">
        <ele>2.8</ele>
        <time>2020-06-22T21:35:50Z</time>
      </trkpt>
      <trkpt lat="50.96482" lon="1.90109">
        <ele>2.9</ele>
        <time>2020-06-22T21:35:51Z</time>
      </trkpt>
      <trkpt lat="50.96483" lon="1.90119">
        <ele>3</ele>
        <time>2020-06-22T21:35:52Z</time>
      </trkpt>
      <trkpt lat="50.96484" lon="1.90128">
        <ele>3.1</ele>
        <time>2020-06-22T21:35:53Z</time>
      </trkpt>
      <trkpt lat="50.96486" lon="1.90136">
        <ele>3.2</ele>
        <time>2020-06-22T21:35:54Z</time>
      </trkpt>
      <trkpt lat="50.96487" lon="1.90145">
        <ele>3.4</ele>
        <time>2020-06-22T21:35:55Z</time>
      </trkpt>
      <trkpt lat="50.96489" lon="1.90155">
        <ele>3.6</ele>
        <time>2020-06-22T21:35:56Z</time>
      </trkpt>
      <trkpt lat="50.96491" lon="1.9016">
        <ele>3.7</ele>
        <time>2020-06-22T21:35:57Z</time>
      </trkpt>
      <trkpt lat="50.96494" lon="1.90169">
        <ele>3.9</ele>
        <time>2020-06-22T21:35:58Z</time>
      </trkpt>
      <trkpt lat="50.96496" lon="1.90178">
        <ele>4.1</ele>
        <time>2020-06-22T21:35:59Z</time>
      </trkpt>
      <trkpt lat="50.96499" lon="1.90187">
        <ele>4.4</ele>
        <time>2020-06-22T21:36:00Z</time>
      </trkpt>
      <trkpt lat="50.96501" lon="1.90197">
        <ele>4.7</ele>
        <time>2020-06-22T21:36:01Z</time>
      </trkpt>
      <trkpt lat="50.96504" lon="1.90205">
        <ele>4.9</ele>
        <time>2020-06-22T21:36:02Z</time>
      </trkpt>
      <trkpt lat="50.96506" lon="1.90212">
        <ele>5.2</ele>
        <time>2020-06-22T21:36:03Z</time>
      </trkpt>
      <trkpt lat="50.96508" lon="1.90222">
        <ele>5.5</ele>
        <time>2020-06-22T21:36:04Z</time>
      </trkpt>
      <trkpt lat="50.96509" lon="1.9023">
        <ele>5.8</ele>
        <time>2020-06-22T21:36:05Z</time>
      </trkpt>
      <trkpt lat="50.96511" lon="1.90238">
        <ele>6.1</ele>
        <time>2020-06-22T21:36:06Z</time>
      </trkpt>
      <trkpt lat="50.96513" lon="1.90246">
        <ele>6.4</ele>
        <time>2020-06-22T21:36:07Z</time>
      </trkpt>
      <trkpt lat="50.96515" lon="1.90254">
        <ele>6.6</ele>
        <time>2020-06-22T21:36:08Z</time>
      </trkpt>
      <trkpt lat="50.96518" lon="1.90262">
        <ele>6.9</ele>
        <time>2020-06-22T21:36:09Z</time>
      </trkpt>
      <trkpt lat="50.9652" lon="1.90269">
        <ele>7.1</ele>
        <time>2020-06-22T21:36:10Z</time>
      </trkpt>
      <trkpt lat="50.96522" lon="1.90276">
        <ele>7.4</ele>
        <time>2020-06-22T21:36:11Z</time>
      </trkpt>
      <trkpt lat="50.96523" lon="1.90282">
        <ele>7.5</ele>
        <time>2020-06-22T21:36:12Z</time>
      </trkpt>
      <trkpt lat="50.96524" lon="1.90289">
        <ele>7.7</ele>
        <time>2020-06-22T21:36:13Z</time>
      </trkpt>
      <trkpt lat="50.96524" lon="1.90295">
        <ele>7.8</ele>
        <time>2020-06-22T21:36:14Z</time>
      </trkpt>
      <trkpt lat="50.96525" lon="1.903">
        <ele>7.9</ele>
        <time>2020-06-22T21:36:15Z</time>
      </trkpt>
      <trkpt lat="50.96526" lon="1.90306">
        <ele>8</ele>
        <time>2020-06-22T21:36:16Z</time>
      </trkpt>
      <trkpt lat="50.96527" lon="1.9031">
        <ele>8.1</ele>
        <time>2020-06-22T21:36:17Z</time>
      </trkpt>
      <trkpt lat="50.96528" lon="1.90312">
        <ele>8.1</ele>
        <time>2020-06-22T21:36:18Z</time>
      </trkpt>
      <trkpt lat="50.96528" lon="1.90317">
        <ele>8.2</ele>
        <time>2020-06-22T21:36:19Z</time>
      </trkpt>
      <trkpt lat="50.96529" lon="1.90323">
        <ele>8.2</ele>
        <time>2020-06-22T21:36:20Z</time>
      </trkpt>
      <trkpt lat="50.9653" lon="1.90328">
        <ele>8.3</ele>
        <time>2020-06-22T21:36:21Z</time>
      </trkpt>
      <trkpt lat="50.96531" lon="1.90334">
        <ele>8.3</ele>
        <time>2020-06-22T21:36:22Z</time>
      </trkpt>
      <trkpt lat="50.96531" lon="1.9034">
        <ele>8.4</ele>
        <time>2020-06-22T21:36:23Z</time>
      </trkpt>
      <trkpt lat="50.96531" lon="1.90346">
        <ele>8.4</ele>
        <time>2020-06-22T21:36:24Z</time>
      </trkpt>
      <trkpt lat="50.96531" lon="1.9035">
        <ele>8.4</ele>
        <time>2020-06-22T21:36:25Z</time>
      </trkpt>
      <trkpt lat="50.96531" lon="1.90355">
        <ele>8.4</ele>
        <time>2020-06-22T21:36:26Z</time>
      </trkpt>
      <trkpt lat="50.96531" lon="1.90362">
        <ele>8.4</ele>
        <time>2020-06-22T21:36:27Z</time>
      </trkpt>
      <trkpt lat="50.96531" lon="1.90366">
        <ele>8.4</ele>
        <time>2020-06-22T21:36:28Z</time>
      </trkpt>
      <trkpt lat="50.96532" lon="1.90372">
        <ele>8.4</ele>
        <time>2020-06-22T21:36:29Z</time>
      </trkpt>
      <trkpt lat="50.96534" lon="1.90375">
        <ele>8.4</ele>
        <time>2020-06-22T21:36:30Z</time>
      </trkpt>
      <trkpt lat="50.96534" lon="1.90379">
        <ele>8.4</ele>
        <time>2020-06-22T21:36:31Z</time>
      </trkpt>
      <trkpt lat="50.96535" lon="1.90384">
        <ele>8.4</ele>
        <time>2020-06-22T21:36:32Z</time>
      </trkpt>
      <trkpt lat="50.96535" lon="1.90392">
        <ele>8.4</ele>
        <time>2020-06-22T21:36:33Z</time>
      </trkpt>
      <trkpt lat="50.96536" lon="1.90396">
        <ele>8.4</ele>
        <time>2020-06-22T21:36:34Z</time>
      </trkpt>
      <trkpt lat="50.96537" lon="1.90402">
        <ele>8.3</ele>
        <time>2020-06-22T21:36:35Z</time>
      </trkpt>
      <trkpt lat="50.96538" lon="1.90408">
        <ele>8.3</ele>
        <time>2020-06-22T21:36:36Z</time>
      </trkpt>
      <trkpt lat="50.96538" lon="1.90413">
        <ele>8.2</ele>
        <time>2020-06-22T21:36:37Z</time>
      </trkpt>
      <trkpt lat="50.96539" lon="1.90418">
        <ele>8.2</ele>
        <time>2020-06-22T21:36:38Z</time>
      </trkpt>
      <trkpt lat="50.9654" lon="1.90424">
        <ele>8.1</ele>
        <time>2020-06-22T21:36:39Z</time>
      </trkpt>
      <trkpt lat="50.96541" lon="1.90429">
        <ele>8.1</ele>
        <time>2020-06-22T21:36:40Z</time>
      </trkpt>
      <trkpt lat="50.96541" lon="1.90435">
        <ele>8</ele>
        <time>2020-06-22T21:36:41Z</time>
      </trkpt>
      <trkpt lat="50.96541" lon="1.9044">
        <ele>7.9</ele>
        <time>2020-06-22T21:36:42Z</time>
      </trkpt>
      <trkpt lat="50.96542" lon="1.90446">
        <ele>7.8</ele>
        <time>2020-06-22T21:36:43Z</time>
      </trkpt>
      <trkpt lat="50.96542" lon="1.90453">
        <ele>7.6</ele>
        <time>2020-06-22T21:36:44Z</time>
      </trkpt>
      <trkpt lat="50.96543" lon="1.9046">
        <ele>7.5</ele>
        <time>2020-06-22T21:36:45Z</time>
      </trkpt>
      <trkpt lat="50.96543" lon="1.90467">
        <ele>7.3</ele>
        <time>2020-06-22T21:36:46Z</time>
      </trkpt>
      <trkpt lat="50.96543" lon="1.90475">
        <ele>7.1</ele>
        <time>2020-06-22T21:36:47Z</time>
      </trkpt>
      <trkpt lat="50.96543" lon="1.90483">
        <ele>6.9</ele>
        <time>2020-06-22T21:36:48Z</time>
      </trkpt>
      <trkpt lat="50.96543" lon="1.90491">
        <ele>6.6</ele>
        <time>2020-06-22T21:36:49Z</time>
      </trkpt>
      <trkpt lat="50.96543" lon="1.905">
        <ele>6.4</ele>
        <time>2020-06-22T21:36:50Z</time>
      </trkpt>
      <trkpt lat="50.96543" lon="1.90509">
        <ele>6.1</ele>
        <time>2020-06-22T21:36:51Z</time>
      </trkpt>
      <trkpt lat="50.96543" lon="1.90519">
        <ele>5.8</ele>
        <time>2020-06-22T21:36:52Z</time>
      </trkpt>
      <trkpt lat="50.96543" lon="1.90529">
        <ele>5.5</ele>
        <time>2020-06-22T21:36:53Z</time>
      </trkpt>
      <trkpt lat="50.96542" lon="1.9054">
        <ele>5.2</ele>
        <time>2020-06-22T21:36:54Z</time>
      </trkpt>
      <trkpt lat="50.96542" lon="1.90551">
        <ele>4.8</ele>
        <time>2020-06-22T21:36:55Z</time>
      </trkpt>
      <trkpt lat="50.96541" lon="1.90562">
        <ele>4.5</ele>
        <time>2020-06-22T21:36:56Z</time>
      </trkpt>
      <trkpt lat="50.96541" lon="1.90573">
        <ele>4.3</ele>
        <time>2020-06-22T21:36:57Z</time>
      </trkpt>
      <trkpt lat="50.9654" lon="1.90584">
        <ele>4.1</ele>
        <time>2020-06-22T21:36:58Z</time>
      </trkpt>
      <trkpt lat="50.9654" lon="1.90595">
        <ele>4</ele>
        <time>2020-06-22T21:36:59Z</time>
      </trkpt>
      <trkpt lat="50.96539" lon="1.90606">
        <ele>3.8</ele>
        <time>2020-06-22T21:37:00Z</time>
      </trkpt>
      <trkpt lat="50.96539" lon="1.90617">
        <ele>3.7</ele>
        <time>2020-06-22T21:37:01Z</time>
      </trkpt>
      <trkpt lat="50.96538" lon="1.90628">
        <ele>3.6</ele>
        <time>2020-06-22T21:37:02Z</time>
      </trkpt>
      <trkpt lat="50.96539" lon="1.90639">
        <ele>3.5</ele>
        <time>2020-06-22T21:37:03Z</time>
      </trkpt>
      <trkpt lat="50.96539" lon="1.90649">
        <ele>3.5</ele>
        <time>2020-06-22T21:37:04Z</time>
      </trkpt>
      <trkpt lat="50.9654" lon="1.90659">
        <ele>3.5</ele>
        <time>2020-06-22T21:37:05Z</time>
      </trkpt>
      <trkpt lat="50.96541" lon="1.90669">
        <ele>3.5</ele>
        <time>2020-06-22T21:37:06Z</time>
      </trkpt>
      <trkpt lat="50.96543" lon="1.90678">
        <ele>3.5</ele>
        <time>2020-06-22T21:37:07Z</time>
      </trkpt>
      <trkpt lat="50.96545" lon="1.90687">
        <ele>3.5</ele>
        <time>2020-06-22T21:37:08Z</time>
      </trkpt>
      <trkpt lat="50.96545" lon="1.90696">
        <ele>3.5</ele>
        <time>2020-06-22T21:37:09Z</time>
      </trkpt>
      <trkpt lat="50.96547" lon="1.90705">
        <ele>3.5</ele>
        <time>2020-06-22T21:37:10Z</time>
      </trkpt>
      <trkpt lat="50.96548" lon="1.90713">
        <ele>3.5</ele>
        <time>2020-06-22T21:37:11Z</time>
      </trkpt>
      <trkpt lat="50.96549" lon="1.90721">
        <ele>3.5</ele>
        <time>2020-06-22T21:37:12Z</time>
      </trkpt>
      <trkpt lat="50.96551" lon="1.90728">
        <ele>3.5</ele>
        <time>2020-06-22T21:37:13Z</time>
      </trkpt>
      <trkpt lat="50.96551" lon="1.90736">
        <ele>3.4</ele>
        <time>2020-06-22T21:37:14Z</time>
      </trkpt>
      <trkpt lat="50.96552" lon="1.90744">
        <ele>3.4</ele>
        <time>2020-06-22T21:37:15Z</time>
      </trkpt>
      <trkpt lat="50.96553" lon="1.90752">
        <ele>3.4</ele>
        <time>2020-06-22T21:37:16Z</time>
      </trkpt>
      <trkpt lat="50.96554" lon="1.90759">
        <ele>3.4</ele>
        <time>2020-06-22T21:37:17Z</time>
      </trkpt>
      <trkpt lat="50.96556" lon="1.90767">
        <ele>3.4</ele>
        <time>2020-06-22T21:37:18Z</time>
      </trkpt>
      <trkpt lat="50.96557" lon="1.90775">
        <ele>3.4</ele>
        <time>2020-06-22T21:37:19Z</time>
      </trkpt>
      <trkpt lat="50.96558" lon="1.90784">
        <ele>3.3</ele>
        <time>2020-06-22T21:37:20Z</time>
      </trkpt>
      <trkpt lat="50.96559" lon="1.90792">
        <ele>3.3</ele>
        <time>2020-06-22T21:37:21Z</time>
      </trkpt>
      <trkpt lat="50.96561" lon="1.90801">
        <ele>3.3</ele>
        <time>2020-06-22T21:37:22Z</time>
      </trkpt>
      <trkpt lat="50.96562" lon="1.90809">
        <ele>3.3</ele>
        <time>2020-06-22T21:37:23Z</time>
      </trkpt>
      <trkpt lat="50.96563" lon="1.90818">
        <ele>3.2</ele>
        <time>2020-06-22T21:37:24Z</time>
      </trkpt>
      <trkpt lat="50.96564" lon="1.90827">
        <ele>3.2</ele>
        <time>2020-06-22T21:37:25Z</time>
      </trkpt>
      <trkpt lat="50.96566" lon="1.90836">
        <ele>3.2</ele>
        <time>2020-06-22T21:37:26Z</time>
      </trkpt>
      <trkpt lat="50.96567" lon="1.90845">
        <ele>3.2</ele>
        <time>2020-06-22T21:37:27Z</time>
      </trkpt>
      <trkpt lat="50.96568" lon="1.90854">
        <ele>3.1</ele>
        <time>2020-06-22T21:37:28Z</time>
      </trkpt>
      <trkpt lat="50.96569" lon="1.90863">
        <ele>3.1</ele>
        <time>2020-06-22T21:37:29Z</time>
      </trkpt>
      <trkpt lat="50.96571" lon="1.90872">
        <ele>3.1</ele>
        <time>2020-06-22T21:37:30Z</time>
      </trkpt>
      <trkpt lat="50.96572" lon="1.9088">
        <ele>3.1</ele>
        <time>2020-06-22T21:37:31Z</time>
      </trkpt>
      <trkpt lat="50.96573" lon="1.9089">
        <ele>3.1</ele>
        <time>2020-06-22T21:37:32Z</time>
      </trkpt>
      <trkpt lat="50.96574" lon="1.90898">
        <ele>3.1</ele>
        <time>2020-06-22T21:37:33Z</time>
      </trkpt>
      <trkpt lat="50.96575" lon="1.90909">
        <ele>3.2</ele>
        <time>2020-06-22T21:37:34Z</time>
      </trkpt>
      <trkpt lat="50.96576" lon="1.90917">
        <ele>3.2</ele>
        <time>2020-06-22T21:37:35Z</time>
      </trkpt>
      <trkpt lat="50.96577" lon="1.90927">
        <ele>3.3</ele>
        <time>2020-06-22T21:37:36Z</time>
      </trkpt>
      <trkpt lat="50.96578" lon="1.90935">
        <ele>3.3</ele>
        <time>2020-06-22T21:37:37Z</time>
      </trkpt>
      <trkpt lat="50.96579" lon="1.90943">
        <ele>3.3</ele>
        <time>2020-06-22T21:37:38Z</time>
      </trkpt>
      <trkpt lat="50.9658" lon="1.90949">
        <ele>3.3</ele>
        <time>2020-06-22T21:37:39Z</time>
      </trkpt>
      <trkpt lat="50.96582" lon="1.90956">
        <ele>3.3</ele>
        <time>2020-06-22T21:37:40Z</time>
      </trkpt>
      <trkpt lat="50.96582" lon="1.90962">
        <ele>3.3</ele>
        <time>2020-06-22T21:37:41Z</time>
      </trkpt>
      <trkpt lat="50.96583" lon="1.9097">
        <ele>3.3</ele>
        <time>2020-06-22T21:37:42Z</time>
      </trkpt>
      <trkpt lat="50.96584" lon="1.90981">
        <ele>3.2</ele>
        <time>2020-06-22T21:37:43Z</time>
      </trkpt>
      <trkpt lat="50.96585" lon="1.90989">
        <ele>3.2</ele>
        <time>2020-06-22T21:37:44Z</time>
      </trkpt>
      <trkpt lat="50.96586" lon="1.90999">
        <ele>3.2</ele>
        <time>2020-06-22T21:37:45Z</time>
      </trkpt>
      <trkpt lat="50.96586" lon="1.91007">
        <ele>3.2</ele>
        <time>2020-06-22T21:37:46Z</time>
      </trkpt>
      <trkpt lat="50.96587" lon="1.91018">
        <ele>3.3</ele>
        <time>2020-06-22T21:37:47Z</time>
      </trkpt>
      <trkpt lat="50.96587" lon="1.91028">
        <ele>3.3</ele>
        <time>2020-06-22T21:37:48Z</time>
      </trkpt>
      <trkpt lat="50.96588" lon="1.91038">
        <ele>3.3</ele>
        <time>2020-06-22T21:37:49Z</time>
      </trkpt>
      <trkpt lat="50.96588" lon="1.91049">
        <ele>3.3</ele>
        <time>2020-06-22T21:37:50Z</time>
      </trkpt>
      <trkpt lat="50.96589" lon="1.9106">
        <ele>3.3</ele>
        <time>2020-06-22T21:37:51Z</time>
      </trkpt>
      <trkpt lat="50.96589" lon="1.9107">
        <ele>3.4</ele>
        <time>2020-06-22T21:37:52Z</time>
      </trkpt>
      <trkpt lat="50.96589" lon="1.91081">
        <ele>3.4</ele>
        <time>2020-06-22T21:37:53Z</time>
      </trkpt>
      <trkpt lat="50.96589" lon="1.9109">
        <ele>3.4</ele>
        <time>2020-06-22T21:37:54Z</time>
      </trkpt>
      <trkpt lat="50.9659" lon="1.911">
        <ele>3.4</ele>
        <time>2020-06-22T21:37:55Z</time>
      </trkpt>
      <trkpt lat="50.9659" lon="1.91111">
        <ele>3.3</ele>
        <time>2020-06-22T21:37:56Z</time>
      </trkpt>
      <trkpt lat="50.9659" lon="1.91121">
        <ele>3.3</ele>
        <time>2020-06-22T21:37:57Z</time>
      </trkpt>
      <trkpt lat="50.9659" lon="1.9113">
        <ele>3.3</ele>
        <time>2020-06-22T21:37:58Z</time>
      </trkpt>
      <trkpt lat="50.9659" lon="1.91139">
        <ele>3.3</ele>
        <time>2020-06-22T21:37:59Z</time>
      </trkpt>
      <trkpt lat="50.9659" lon="1.91148">
        <ele>3.3</ele>
        <time>2020-06-22T21:38:00Z</time>
      </trkpt>
      <trkpt lat="50.96591" lon="1.91156">
        <ele>3.3</ele>
        <time>2020-06-22T21:38:01Z</time>
      </trkpt>
      <trkpt lat="50.96593" lon="1.91167">
        <ele>3.3</ele>
        <time>2020-06-22T21:38:02Z</time>
      </trkpt>
      <trkpt lat="50.96594" lon="1.91176">
        <ele>3.3</ele>
        <time>2020-06-22T21:38:03Z</time>
      </trkpt>
      <trkpt lat="50.96595" lon="1.91188">
        <ele>3.4</ele>
        <time>2020-06-22T21:38:04Z</time>
      </trkpt>
      <trkpt lat="50.96597" lon="1.91197">
        <ele>3.4</ele>
        <time>2020-06-22T21:38:05Z</time>
      </trkpt>
      <trkpt lat="50.96598" lon="1.91206">
        <ele>3.4</ele>
        <time>2020-06-22T21:38:06Z</time>
      </trkpt>
      <trkpt lat="50.96599" lon="1.91216">
        <ele>3.4</ele>
        <time>2020-06-22T21:38:07Z</time>
      </trkpt>
      <trkpt lat="50.96599" lon="1.91224">
        <ele>3.4</ele>
        <time>2020-06-22T21:38:08Z</time>
      </trkpt>
      <trkpt lat="50.966" lon="1.91233">
        <ele>3.4</ele>
        <time>2020-06-22T21:38:09Z</time>
      </trkpt>
      <trkpt lat="50.96601" lon="1.91243">
        <ele>3.4</ele>
        <time>2020-06-22T21:38:10Z</time>
      </trkpt>
      <trkpt lat="50.96603" lon="1.91252">
        <ele>3.4</ele>
        <time>2020-06-22T21:38:11Z</time>
      </trkpt>
      <trkpt lat="50.96604" lon="1.91261">
        <ele>3.4</ele>
        <time>2020-06-22T21:38:12Z</time>
      </trkpt>
      <trkpt lat="50.96605" lon="1.9127">
        <ele>3.4</ele>
        <time>2020-06-22T21:38:13Z</time>
      </trkpt>
      <trkpt lat="50.96606" lon="1.9128">
        <ele>3.4</ele>
        <time>2020-06-22T21:38:14Z</time>
      </trkpt>
      <trkpt lat="50.96607" lon="1.91288">
        <ele>3.4</ele>
        <time>2020-06-22T21:38:15Z</time>
      </trkpt>
      <trkpt lat="50.96608" lon="1.91298">
        <ele>3.4</ele>
        <time>2020-06-22T21:38:16Z</time>
      </trkpt>
      <trkpt lat="50.96608" lon="1.91308">
        <ele>3.4</ele>
        <time>2020-06-22T21:38:17Z</time>
      </trkpt>
      <trkpt lat="50.96609" lon="1.91318">
        <ele>3.4</ele>
        <time>2020-06-22T21:38:18Z</time>
      </trkpt>
      <trkpt lat="50.9661" lon="1.91327">
        <ele>3.4</ele>
        <time>2020-06-22T21:38:19Z</time>
      </trkpt>
      <trkpt lat="50.96612" lon="1.91337">
        <ele>3.4</ele>
        <time>2020-06-22T21:38:20Z</time>
      </trkpt>
      <trkpt lat="50.96612" lon="1.91346">
        <ele>3.4</ele>
        <time>2020-06-22T21:38:21Z</time>
      </trkpt>
      <trkpt lat="50.96613" lon="1.91355">
        <ele>3.4</ele>
        <time>2020-06-22T21:38:22Z</time>
      </trkpt>
      <trkpt lat="50.96614" lon="1.91365">
        <ele>3.3</ele>
        <time>2020-06-22T21:38:23Z</time>
      </trkpt>
      <trkpt lat="50.96615" lon="1.91374">
        <ele>3.3</ele>
        <time>2020-06-22T21:38:24Z</time>
      </trkpt>
      <trkpt lat="50.96616" lon="1.91386">
        <ele>3.4</ele>
        <time>2020-06-22T21:38:25Z</time>
      </trkpt>
      <trkpt lat="50.96618" lon="1.91395">
        <ele>3.4</ele>
        <time>2020-06-22T21:38:26Z</time>
      </trkpt>
      <trkpt lat="50.96618" lon="1.91404">
        <ele>3.3</ele>
        <time>2020-06-22T21:38:27Z</time>
      </trkpt>
      <trkpt lat="50.9662" lon="1.91414">
        <ele>3.3</ele>
        <time>2020-06-22T21:38:28Z</time>
      </trkpt>
      <trkpt lat="50.96621" lon="1.91424">
        <ele>3.3</ele>
        <time>2020-06-22T21:38:29Z</time>
      </trkpt>
      <trkpt lat="50.96622" lon="1.91435">
        <ele>3.3</ele>
        <time>2020-06-22T21:38:30Z</time>
      </trkpt>
      <trkpt lat="50.96623" lon="1.91443">
        <ele>3.3</ele>
        <time>2020-06-22T21:38:31Z</time>
      </trkpt>
      <trkpt lat="50.96625" lon="1.91454">
        <ele>3.3</ele>
        <time>2020-06-22T21:38:32Z</time>
      </trkpt>
      <trkpt lat="50.96626" lon="1.91466">
        <ele>3.3</ele>
        <time>2020-06-22T21:38:33Z</time>
      </trkpt>
      <trkpt lat="50.96627" lon="1.91477">
        <ele>3.3</ele>
        <time>2020-06-22T21:38:34Z</time>
      </trkpt>
      <trkpt lat="50.96628" lon="1.91489">
        <ele>3.3</ele>
        <time>2020-06-22T21:38:35Z</time>
      </trkpt>
      <trkpt lat="50.96629" lon="1.915">
        <ele>3.4</ele>
        <time>2020-06-22T21:38:36Z</time>
      </trkpt>
      <trkpt lat="50.9663" lon="1.91512">
        <ele>3.4</ele>
        <time>2020-06-22T21:38:37Z</time>
      </trkpt>
      <trkpt lat="50.96631" lon="1.91521">
        <ele>3.4</ele>
        <time>2020-06-22T21:38:38Z</time>
      </trkpt>
      <trkpt lat="50.96632" lon="1.91532">
        <ele>3.4</ele>
        <time>2020-06-22T21:38:39Z</time>
      </trkpt>
      <trkpt lat="50.96633" lon="1.91542">
        <ele>3.4</ele>
        <time>2020-06-22T21:38:40Z</time>
      </trkpt>
      <trkpt lat="50.96634" lon="1.91553">
        <ele>3.3</ele>
        <time>2020-06-22T21:38:41Z</time>
      </trkpt>
      <trkpt lat="50.96635" lon="1.91563">
        <ele>3.3</ele>
        <time>2020-06-22T21:38:42Z</time>
      </trkpt>
      <trkpt lat="50.96637" lon="1.91575">
        <ele>3.3</ele>
        <time>2020-06-22T21:38:43Z</time>
      </trkpt>
      <trkpt lat="50.96637" lon="1.91586">
        <ele>3.3</ele>
        <time>2020-06-22T21:38:44Z</time>
      </trkpt>
      <trkpt lat="50.96639" lon="1.91596">
        <ele>3.4</ele>
        <time>2020-06-22T21:38:45Z</time>
      </trkpt>
      <trkpt lat="50.9664" lon="1.91607">
        <ele>3.4</ele>
        <time>2020-06-22T21:38:46Z</time>
      </trkpt>
      <trkpt lat="50.96642" lon="1.91616">
        <ele>3.5</ele>
        <time>2020-06-22T21:38:47Z</time>
      </trkpt>
      <trkpt lat="50.96643" lon="1.91628">
        <ele>3.5</ele>
        <time>2020-06-22T21:38:48Z</time>
      </trkpt>
      <trkpt lat="50.96645" lon="1.91638">
        <ele>3.5</ele>
        <time>2020-06-22T21:38:49Z</time>
      </trkpt>
      <trkpt lat="50.96645" lon="1.91649">
        <ele>3.5</ele>
        <time>2020-06-22T21:38:50Z</time>
      </trkpt>
      <trkpt lat="50.96646" lon="1.91658">
        <ele>3.5</ele>
        <time>2020-06-22T21:38:51Z</time>
      </trkpt>
      <trkpt lat="50.96648" lon="1.91669">
        <ele>3.5</ele>
        <time>2020-06-22T21:38:52Z</time>
      </trkpt>
      <trkpt lat="50.96649" lon="1.9168">
        <ele>3.5</ele>
        <time>2020-06-22T21:38:53Z</time>
      </trkpt>
      <trkpt lat="50.9665" lon="1.91691">
        <ele>3.5</ele>
        <time>2020-06-22T21:38:54Z</time>
      </trkpt>
      <trkpt lat="50.96652" lon="1.91702">
        <ele>3.5</ele>
        <time>2020-06-22T21:38:55Z</time>
      </trkpt>
      <trkpt lat="50.96653" lon="1.91712">
        <ele>3.5</ele>
        <time>2020-06-22T21:38:56Z</time>
      </trkpt>
      <trkpt lat="50.96653" lon="1.91723">
        <ele>3.5</ele>
        <time>2020-06-22T21:38:57Z</time>
      </trkpt>
      <trkpt lat="50.96655" lon="1.91735">
        <ele>3.5</ele>
        <time>2020-06-22T21:38:58Z</time>
      </trkpt>
      <trkpt lat="50.96656" lon="1.91746">
        <ele>3.5</ele>
        <time>2020-06-22T21:38:59Z</time>
      </trkpt>
      <trkpt lat="50.96657" lon="1.91758">
        <ele>3.5</ele>
        <time>2020-06-22T21:39:00Z</time>
      </trkpt>
      <trkpt lat="50.96659" lon="1.91769">
        <ele>3.5</ele>
        <time>2020-06-22T21:39:01Z</time>
      </trkpt>
      <trkpt lat="50.9666" lon="1.91781">
        <ele>3.6</ele>
        <time>2020-06-22T21:39:02Z</time>
      </trkpt>
      <trkpt lat="50.96661" lon="1.91792">
        <ele>3.6</ele>
        <time>2020-06-22T21:39:03Z</time>
      </trkpt>
      <trkpt lat="50.96663" lon="1.91803">
        <ele>3.6</ele>
        <time>2020-06-22T21:39:04Z</time>
      </trkpt>
      <trkpt lat="50.96663" lon="1.91814">
        <ele>3.6</ele>
        <time>2020-06-22T21:39:05Z</time>
      </trkpt>
      <trkpt lat="50.96664" lon="1.91826">
        <ele>3.6</ele>
        <time>2020-06-22T21:39:06Z</time>
      </trkpt>
      <trkpt lat="50.96665" lon="1.91837">
        <ele>3.6</ele>
        <time>2020-06-22T21:39:07Z</time>
      </trkpt>
      <trkpt lat="50.96666" lon="1.91848">
        <ele>3.6</ele>
        <time>2020-06-22T21:39:08Z</time>
      </trkpt>
      <trkpt lat="50.96667" lon="1.9186">
        <ele>3.6</ele>
        <time>2020-06-22T21:39:09Z</time>
      </trkpt>
      <trkpt lat="50.96668" lon="1.91871">
        <ele>3.6</ele>
        <time>2020-06-22T21:39:10Z</time>
      </trkpt>
      <trkpt lat="50.96669" lon="1.91882">
        <ele>3.5</ele>
        <time>2020-06-22T21:39:11Z</time>
      </trkpt>
      <trkpt lat="50.96669" lon="1.91893">
        <ele>3.5</ele>
        <time>2020-06-22T21:39:12Z</time>
      </trkpt>
      <trkpt lat="50.9667" lon="1.91905">
        <ele>3.5</ele>
        <time>2020-06-22T21:39:13Z</time>
      </trkpt>
      <trkpt lat="50.9667" lon="1.91916">
        <ele>3.5</ele>
        <time>2020-06-22T21:39:14Z</time>
      </trkpt>
      <trkpt lat="50.96671" lon="1.91927">
        <ele>3.5</ele>
        <time>2020-06-22T21:39:15Z</time>
      </trkpt>
      <trkpt lat="50.96671" lon="1.91938">
        <ele>3.5</ele>
        <time>2020-06-22T21:39:16Z</time>
      </trkpt>
      <trkpt lat="50.96672" lon="1.91948">
        <ele>3.5</ele>
        <time>2020-06-22T21:39:17Z</time>
      </trkpt>
      <trkpt lat="50.96674" lon="1.91959">
        <ele>3.5</ele>
        <time>2020-06-22T21:39:18Z</time>
      </trkpt>
      <trkpt lat="50.96674" lon="1.9197">
        <ele>3.5</ele>
        <time>2020-06-22T21:39:19Z</time>
      </trkpt>
      <trkpt lat="50.96674" lon="1.9198">
        <ele>3.5</ele>
        <time>2020-06-22T21:39:20Z</time>
      </trkpt>
      <trkpt lat="50.96674" lon="1.91991">
        <ele>3.5</ele>
        <time>2020-06-22T21:39:21Z</time>
      </trkpt>
      <trkpt lat="50.96674" lon="1.92002">
        <ele>3.5</ele>
        <time>2020-06-22T21:39:22Z</time>
      </trkpt>
      <trkpt lat="50.96674" lon="1.92012">
        <ele>3.4</ele>
        <time>2020-06-22T21:39:23Z</time>
      </trkpt>
      <trkpt lat="50.96674" lon="1.92023">
        <ele>3.4</ele>
        <time>2020-06-22T21:39:24Z</time>
      </trkpt>
      <trkpt lat="50.96674" lon="1.92033">
        <ele>3.4</ele>
        <time>2020-06-22T21:39:25Z</time>
      </trkpt>
      <trkpt lat="50.96675" lon="1.92044">
        <ele>3.5</ele>
        <time>2020-06-22T21:39:26Z</time>
      </trkpt>
      <trkpt lat="50.96676" lon="1.92055">
        <ele>3.5</ele>
        <time>2020-06-22T21:39:27Z</time>
      </trkpt>
      <trkpt lat="50.96677" lon="1.92066">
        <ele>3.5</ele>
        <time>2020-06-22T21:39:28Z</time>
      </trkpt>
      <trkpt lat="50.96678" lon="1.92076">
        <ele>3.5</ele>
        <time>2020-06-22T21:39:29Z</time>
      </trkpt>
      <trkpt lat="50.96679" lon="1.92087">
        <ele>3.5</ele>
        <time>2020-06-22T21:39:30Z</time>
      </trkpt>
      <trkpt lat="50.9668" lon="1.92097">
        <ele>3.5</ele>
        <time>2020-06-22T21:39:31Z</time>
      </trkpt>
      <trkpt lat="50.9668" lon="1.92108">
        <ele>3.6</ele>
        <time>2020-06-22T21:39:32Z</time>
      </trkpt>
      <trkpt lat="50.96681" lon="1.92118">
        <ele>3.6</ele>
        <time>2020-06-22T21:39:33Z</time>
      </trkpt>
      <trkpt lat="50.96681" lon="1.92129">
        <ele>3.6</ele>
        <time>2020-06-22T21:39:34Z</time>
      </trkpt>
      <trkpt lat="50.96682" lon="1.92139">
        <ele>3.6</ele>
        <time>2020-06-22T21:39:35Z</time>
      </trkpt>
      <trkpt lat="50.96682" lon="1.92149">
        <ele>3.6</ele>
        <time>2020-06-22T21:39:36Z</time>
      </trkpt>
      <trkpt lat="50.96683" lon="1.92159">
        <ele>3.6</ele>
        <time>2020-06-22T21:39:37Z</time>
      </trkpt>
      <trkpt lat="50.96684" lon="1.92169">
        <ele>3.6</ele>
        <time>2020-06-22T21:39:38Z</time>
      </trkpt>
      <trkpt lat="50.96685" lon="1.92179">
        <ele>3.6</ele>
        <time>2020-06-22T21:39:39Z</time>
      </trkpt>
      <trkpt lat="50.96686" lon="1.92189">
        <ele>3.6</ele>
        <time>2020-06-22T21:39:40Z</time>
      </trkpt>
      <trkpt lat="50.96687" lon="1.922">
        <ele>3.7</ele>
        <time>2020-06-22T21:39:41Z</time>
      </trkpt>
      <trkpt lat="50.96687" lon="1.9221">
        <ele>3.7</ele>
        <time>2020-06-22T21:39:42Z</time>
      </trkpt>
      <trkpt lat="50.96688" lon="1.9222">
        <ele>3.8</ele>
        <time>2020-06-22T21:39:43Z</time>
      </trkpt>
      <trkpt lat="50.96689" lon="1.9223">
        <ele>3.7</ele>
        <time>2020-06-22T21:39:44Z</time>
      </trkpt>
      <trkpt lat="50.96689" lon="1.9224">
        <ele>3.6</ele>
        <time>2020-06-22T21:39:45Z</time>
      </trkpt>
      <trkpt lat="50.9669" lon="1.92251">
        <ele>3.6</ele>
        <time>2020-06-22T21:39:46Z</time>
      </trkpt>
      <trkpt lat="50.96691" lon="1.9226">
        <ele>3.5</ele>
        <time>2020-06-22T21:39:47Z</time>
      </trkpt>
      <trkpt lat="50.96691" lon="1.92271">
        <ele>3.5</ele>
        <time>2020-06-22T21:39:48Z</time>
      </trkpt>
      <trkpt lat="50.96692" lon="1.9228">
        <ele>3.5</ele>
        <time>2020-06-22T21:39:49Z</time>
      </trkpt>
      <trkpt lat="50.96693" lon="1.9229">
        <ele>3.4</ele>
        <time>2020-06-22T21:39:50Z</time>
      </trkpt>
      <trkpt lat="50.96693" lon="1.92299">
        <ele>3.4</ele>
        <time>2020-06-22T21:39:51Z</time>
      </trkpt>
      <trkpt lat="50.96694" lon="1.92308">
        <ele>3.4</ele>
        <time>2020-06-22T21:39:52Z</time>
      </trkpt>
      <trkpt lat="50.96695" lon="1.92317">
        <ele>3.4</ele>
        <time>2020-06-22T21:39:53Z</time>
      </trkpt>
      <trkpt lat="50.96695" lon="1.92326">
        <ele>3.4</ele>
        <time>2020-06-22T21:39:54Z</time>
      </trkpt>
      <trkpt lat="50.96695" lon="1.92335">
        <ele>3.5</ele>
        <time>2020-06-22T21:39:55Z</time>
      </trkpt>
      <trkpt lat="50.96696" lon="1.92343">
        <ele>3.5</ele>
        <time>2020-06-22T21:39:56Z</time>
      </trkpt>
      <trkpt lat="50.96697" lon="1.9235">
        <ele>3.5</ele>
        <time>2020-06-22T21:39:57Z</time>
      </trkpt>
      <trkpt lat="50.96697" lon="1.92357">
        <ele>3.5</ele>
        <time>2020-06-22T21:39:58Z</time>
      </trkpt>
      <trkpt lat="50.96698" lon="1.92364">
        <ele>3.6</ele>
        <time>2020-06-22T21:39:59Z</time>
      </trkpt>
      <trkpt lat="50.96698" lon="1.92371">
        <ele>3.6</ele>
        <time>2020-06-22T21:40:00Z</time>
      </trkpt>
      <trkpt lat="50.96697" lon="1.92378">
        <ele>3.6</ele>
        <time>2020-06-22T21:40:01Z</time>
      </trkpt>
      <trkpt lat="50.96697" lon="1.92385">
        <ele>3.6</ele>
        <time>2020-06-22T21:40:02Z</time>
      </trkpt>
      <trkpt lat="50.96698" lon="1.92391">
        <ele>3.5</ele>
        <time>2020-06-22T21:40:03Z</time>
      </trkpt>
      <trkpt lat="50.96699" lon="1.92398">
        <ele>3.5</ele>
        <time>2020-06-22T21:40:04Z</time>
      </trkpt>
      <trkpt lat="50.967" lon="1.92405">
        <ele>3.5</ele>
        <time>2020-06-22T21:40:05Z</time>
      </trkpt>
      <trkpt lat="50.967" lon="1.92412">
        <ele>3.5</ele>
        <time>2020-06-22T21:40:06Z</time>
      </trkpt>
      <trkpt lat="50.96702" lon="1.92419">
        <ele>3.5</ele>
        <time>2020-06-22T21:40:07Z</time>
      </trkpt>
      <trkpt lat="50.96704" lon="1.92426">
        <ele>3.5</ele>
        <time>2020-06-22T21:40:08Z</time>
      </trkpt>
      <trkpt lat="50.96706" lon="1.92434">
        <ele>3.5</ele>
        <time>2020-06-22T21:40:09Z</time>
      </trkpt>
      <trkpt lat="50.96705" lon="1.92442">
        <ele>3.5</ele>
        <time>2020-06-22T21:40:10Z</time>
      </trkpt>
      <trkpt lat="50.96706" lon="1.92451">
        <ele>3.5</ele>
        <time>2020-06-22T21:40:11Z</time>
      </trkpt>
      <trkpt lat="50.96708" lon="1.92459">
        <ele>3.5</ele>
        <time>2020-06-22T21:40:12Z</time>
      </trkpt>
      <trkpt lat="50.9671" lon="1.92467">
        <ele>3.4</ele>
        <time>2020-06-22T21:40:13Z</time>
      </trkpt>
      <trkpt lat="50.96712" lon="1.92475">
        <ele>3.4</ele>
        <time>2020-06-22T21:40:14Z</time>
      </trkpt>
      <trkpt lat="50.96713" lon="1.92484">
        <ele>3.4</ele>
        <time>2020-06-22T21:40:15Z</time>
      </trkpt>
      <trkpt lat="50.96715" lon="1.92492">
        <ele>3.4</ele>
        <time>2020-06-22T21:40:16Z</time>
      </trkpt>
      <trkpt lat="50.96715" lon="1.92501">
        <ele>3.4</ele>
        <time>2020-06-22T21:40:17Z</time>
      </trkpt>
      <trkpt lat="50.96715" lon="1.92509">
        <ele>3.4</ele>
        <time>2020-06-22T21:40:18Z</time>
      </trkpt>
      <trkpt lat="50.96716" lon="1.92518">
        <ele>3.4</ele>
        <time>2020-06-22T21:40:19Z</time>
      </trkpt>
      <trkpt lat="50.96718" lon="1.92526">
        <ele>3.5</ele>
        <time>2020-06-22T21:40:20Z</time>
      </trkpt>
      <trkpt lat="50.96719" lon="1.92534">
        <ele>3.5</ele>
        <time>2020-06-22T21:40:21Z</time>
      </trkpt>
      <trkpt lat="50.96721" lon="1.92541">
        <ele>3.5</ele>
        <time>2020-06-22T21:40:22Z</time>
      </trkpt>
      <trkpt lat="50.96722" lon="1.92549">
        <ele>3.5</ele>
        <time>2020-06-22T21:40:23Z</time>
      </trkpt>
      <trkpt lat="50.96723" lon="1.92558">
        <ele>3.6</ele>
        <time>2020-06-22T21:40:24Z</time>
      </trkpt>
      <trkpt lat="50.96723" lon="1.92567">
        <ele>3.6</ele>
        <time>2020-06-22T21:40:25Z</time>
      </trkpt>
      <trkpt lat="50.96723" lon="1.92577">
        <ele>3.7</ele>
        <time>2020-06-22T21:40:26Z</time>
      </trkpt>
      <trkpt lat="50.96724" lon="1.92586">
        <ele>3.7</ele>
        <time>2020-06-22T21:40:27Z</time>
      </trkpt>
      <trkpt lat="50.96725" lon="1.92596">
        <ele>3.7</ele>
        <time>2020-06-22T21:40:28Z</time>
      </trkpt>
      <trkpt lat="50.96724" lon="1.92605">
        <ele>3.7</ele>
        <time>2020-06-22T21:40:29Z</time>
      </trkpt>
      <trkpt lat="50.96723" lon="1.92613">
        <ele>3.7</ele>
        <time>2020-06-22T21:40:30Z</time>
      </trkpt>
      <trkpt lat="50.96721" lon="1.92622">
        <ele>3.7</ele>
        <time>2020-06-22T21:40:31Z</time>
      </trkpt>
      <trkpt lat="50.96721" lon="1.92631">
        <ele>3.7</ele>
        <time>2020-06-22T21:40:32Z</time>
      </trkpt>
      <trkpt lat="50.9672" lon="1.9264">
        <ele>3.6</ele>
        <time>2020-06-22T21:40:33Z</time>
      </trkpt>
      <trkpt lat="50.96719" lon="1.9265">
        <ele>3.6</ele>
        <time>2020-06-22T21:40:34Z</time>
      </trkpt>
      <trkpt lat="50.96719" lon="1.92659">
        <ele>3.6</ele>
        <time>2020-06-22T21:40:35Z</time>
      </trkpt>
      <trkpt lat="50.96719" lon="1.92668">
        <ele>3.6</ele>
        <time>2020-06-22T21:40:36Z</time>
      </trkpt>
      <trkpt lat="50.96717" lon="1.92677">
        <ele>3.6</ele>
        <time>2020-06-22T21:40:37Z</time>
      </trkpt>
      <trkpt lat="50.96715" lon="1.92686">
        <ele>3.6</ele>
        <time>2020-06-22T21:40:38Z</time>
      </trkpt>
      <trkpt lat="50.96714" lon="1.92696">
        <ele>3.6</ele>
        <time>2020-06-22T21:40:39Z</time>
      </trkpt>
      <trkpt lat="50.96713" lon="1.92706">
        <ele>3.6</ele>
        <time>2020-06-22T21:40:40Z</time>
      </trkpt>
      <trkpt lat="50.96713" lon="1.92717">
        <ele>3.5</ele>
        <time>2020-06-22T21:40:41Z</time>
      </trkpt>
      <trkpt lat="50.96712" lon="1.92728">
        <ele>3.5</ele>
        <time>2020-06-22T21:40:42Z</time>
      </trkpt>
      <trkpt lat="50.96711" lon="1.92738">
        <ele>3.5</ele>
        <time>2020-06-22T21:40:43Z</time>
      </trkpt>
      <trkpt lat="50.96711" lon="1.92749">
        <ele>3.5</ele>
        <time>2020-06-22T21:40:44Z</time>
      </trkpt>
      <trkpt lat="50.96712" lon="1.92759">
        <ele>3.5</ele>
        <time>2020-06-22T21:40:45Z</time>
      </trkpt>
      <trkpt lat="50.96712" lon="1.92769">
        <ele>3.5</ele>
        <time>2020-06-22T21:40:46Z</time>
      </trkpt>
      <trkpt lat="50.96712" lon="1.92778">
        <ele>3.6</ele>
        <time>2020-06-22T21:40:47Z</time>
      </trkpt>
      <trkpt lat="50.96713" lon="1.92788">
        <ele>3.6</ele>
        <time>2020-06-22T21:40:48Z</time>
      </trkpt>
      <trkpt lat="50.96713" lon="1.92795">
        <ele>3.6</ele>
        <time>2020-06-22T21:40:49Z</time>
      </trkpt>
      <trkpt lat="50.96714" lon="1.92804">
        <ele>3.5</ele>
        <time>2020-06-22T21:40:50Z</time>
      </trkpt>
      <trkpt lat="50.96715" lon="1.92815">
        <ele>3.4</ele>
        <time>2020-06-22T21:40:51Z</time>
      </trkpt>
      <trkpt lat="50.96716" lon="1.92822">
        <ele>3.4</ele>
        <time>2020-06-22T21:40:52Z</time>
      </trkpt>
      <trkpt lat="50.96716" lon="1.92832">
        <ele>3.4</ele>
        <time>2020-06-22T21:40:53Z</time>
      </trkpt>
      <trkpt lat="50.96717" lon="1.92842">
        <ele>3.4</ele>
        <time>2020-06-22T21:40:54Z</time>
      </trkpt>
      <trkpt lat="50.96717" lon="1.92853">
        <ele>3.3</ele>
        <time>2020-06-22T21:40:55Z</time>
      </trkpt>
      <trkpt lat="50.96718" lon="1.92861">
        <ele>3.3</ele>
        <time>2020-06-22T21:40:56Z</time>
      </trkpt>
      <trkpt lat="50.96716" lon="1.9287">
        <ele>3.3</ele>
        <time>2020-06-22T21:40:57Z</time>
      </trkpt>
      <trkpt lat="50.96715" lon="1.92878">
        <ele>3.3</ele>
        <time>2020-06-22T21:40:58Z</time>
      </trkpt>
      <trkpt lat="50.96714" lon="1.92886">
        <ele>3.3</ele>
        <time>2020-06-22T21:40:59Z</time>
      </trkpt>
      <trkpt lat="50.96713" lon="1.92895">
        <ele>3.3</ele>
        <time>2020-06-22T21:41:00Z</time>
      </trkpt>
      <trkpt lat="50.96712" lon="1.92905">
        <ele>3.4</ele>
        <time>2020-06-22T21:41:01Z</time>
      </trkpt>
      <trkpt lat="50.96711" lon="1.92914">
        <ele>3.4</ele>
        <time>2020-06-22T21:41:02Z</time>
      </trkpt>
      <trkpt lat="50.9671" lon="1.92922">
        <ele>3.4</ele>
        <time>2020-06-22T21:41:03Z</time>
      </trkpt>
      <trkpt lat="50.96709" lon="1.9293">
        <ele>3.4</ele>
        <time>2020-06-22T21:41:04Z</time>
      </trkpt>
      <trkpt lat="50.96708" lon="1.92938">
        <ele>3.5</ele>
        <time>2020-06-22T21:41:05Z</time>
      </trkpt>
      <trkpt lat="50.96706" lon="1.92947">
        <ele>3.5</ele>
        <time>2020-06-22T21:41:06Z</time>
      </trkpt>
      <trkpt lat="50.96705" lon="1.92956">
        <ele>3.5</ele>
        <time>2020-06-22T21:41:07Z</time>
      </trkpt>
      <trkpt lat="50.96703" lon="1.92965">
        <ele>3.5</ele>
        <time>2020-06-22T21:41:08Z</time>
      </trkpt>
      <trkpt lat="50.96702" lon="1.92974">
        <ele>3.5</ele>
        <time>2020-06-22T21:41:09Z</time>
      </trkpt>
      <trkpt lat="50.96701" lon="1.92983">
        <ele>3.5</ele>
        <time>2020-06-22T21:41:10Z</time>
      </trkpt>
      <trkpt lat="50.96701" lon="1.92991">
        <ele>3.6</ele>
        <time>2020-06-22T21:41:11Z</time>
      </trkpt>
      <trkpt lat="50.967" lon="1.92998">
        <ele>3.6</ele>
        <time>2020-06-22T21:41:12Z</time>
      </trkpt>
      <trkpt lat="50.96699" lon="1.93008">
        <ele>3.7</ele>
        <time>2020-06-22T21:41:13Z</time>
      </trkpt>
      <trkpt lat="50.96699" lon="1.93019">
        <ele>3.7</ele>
        <time>2020-06-22T21:41:14Z</time>
      </trkpt>
      <trkpt lat="50.96699" lon="1.93029">
        <ele>3.7</ele>
        <time>2020-06-22T21:41:15Z</time>
      </trkpt>
      <trkpt lat="50.96699" lon="1.93039">
        <ele>3.6</ele>
        <time>2020-06-22T21:41:16Z</time>
      </trkpt>
      <trkpt lat="50.967" lon="1.93049">
        <ele>3.6</ele>
        <time>2020-06-22T21:41:17Z</time>
      </trkpt>
      <trkpt lat="50.967" lon="1.93059">
        <ele>3.6</ele>
        <time>2020-06-22T21:41:18Z</time>
      </trkpt>
      <trkpt lat="50.96701" lon="1.93069">
        <ele>3.5</ele>
        <time>2020-06-22T21:41:19Z</time>
      </trkpt>
      <trkpt lat="50.96702" lon="1.93079">
        <ele>3.5</ele>
        <time>2020-06-22T21:41:20Z</time>
      </trkpt>
      <trkpt lat="50.96703" lon="1.93087">
        <ele>3.5</ele>
        <time>2020-06-22T21:41:21Z</time>
      </trkpt>
      <trkpt lat="50.96704" lon="1.93097">
        <ele>3.5</ele>
        <time>2020-06-22T21:41:22Z</time>
      </trkpt>
      <trkpt lat="50.96706" lon="1.93103">
        <ele>3.5</ele>
        <time>2020-06-22T21:41:23Z</time>
      </trkpt>
      <trkpt lat="50.96708" lon="1.93115">
        <ele>3.4</ele>
        <time>2020-06-22T21:41:24Z</time>
      </trkpt>
      <trkpt lat="50.96711" lon="1.93123">
        <ele>3.4</ele>
        <time>2020-06-22T21:41:25Z</time>
      </trkpt>
      <trkpt lat="50.96714" lon="1.93132">
        <ele>3.4</ele>
        <time>2020-06-22T21:41:26Z</time>
      </trkpt>
      <trkpt lat="50.96716" lon="1.93143">
        <ele>3.4</ele>
        <time>2020-06-22T21:41:27Z</time>
      </trkpt>
      <trkpt lat="50.96718" lon="1.9315">
        <ele>3.4</ele>
        <time>2020-06-22T21:41:28Z</time>
      </trkpt>
      <trkpt lat="50.96719" lon="1.93158">
        <ele>3.4</ele>
        <time>2020-06-22T21:41:29Z</time>
      </trkpt>
      <trkpt lat="50.96721" lon="1.93167">
        <ele>3.4</ele>
        <time>2020-06-22T21:41:30Z</time>
      </trkpt>
      <trkpt lat="50.96722" lon="1.93176">
        <ele>3.5</ele>
        <time>2020-06-22T21:41:31Z</time>
      </trkpt>
      <trkpt lat="50.96724" lon="1.93185">
        <ele>3.5</ele>
        <time>2020-06-22T21:41:32Z</time>
      </trkpt>
      <trkpt lat="50.96726" lon="1.93195">
        <ele>3.6</ele>
        <time>2020-06-22T21:41:33Z</time>
      </trkpt>
      <trkpt lat="50.96728" lon="1.93203">
        <ele>3.6</ele>
        <time>2020-06-22T21:41:34Z</time>
      </trkpt>
      <trkpt lat="50.96729" lon="1.93211">
        <ele>3.6</ele>
        <time>2020-06-22T21:41:35Z</time>
      </trkpt>
      <trkpt lat="50.96731" lon="1.93218">
        <ele>3.6</ele>
        <time>2020-06-22T21:41:36Z</time>
      </trkpt>
      <trkpt lat="50.96733" lon="1.93226">
        <ele>3.6</ele>
        <time>2020-06-22T21:41:37Z</time>
      </trkpt>
      <trkpt lat="50.96734" lon="1.93234">
        <ele>3.6</ele>
        <time>2020-06-22T21:41:38Z</time>
      </trkpt>
      <trkpt lat="50.96735" lon="1.93242">
        <ele>3.6</ele>
        <time>2020-06-22T21:41:39Z</time>
      </trkpt>
      <trkpt lat="50.96737" lon="1.9325">
        <ele>3.6</ele>
        <time>2020-06-22T21:41:40Z</time>
      </trkpt>
      <trkpt lat="50.96738" lon="1.9326">
        <ele>3.5</ele>
        <time>2020-06-22T21:41:41Z</time>
      </trkpt>
      <trkpt lat="50.9674" lon="1.9327">
        <ele>3.4</ele>
        <time>2020-06-22T21:41:42Z</time>
      </trkpt>
      <trkpt lat="50.96741" lon="1.93279">
        <ele>3.3</ele>
        <time>2020-06-22T21:41:43Z</time>
      </trkpt>
      <trkpt lat="50.96744" lon="1.93288">
        <ele>3.3</ele>
        <time>2020-06-22T21:41:44Z</time>
      </trkpt>
      <trkpt lat="50.96746" lon="1.93295">
        <ele>3.3</ele>
        <time>2020-06-22T21:41:45Z</time>
      </trkpt>
      <trkpt lat="50.96748" lon="1.93302">
        <ele>3.2</ele>
        <time>2020-06-22T21:41:46Z</time>
      </trkpt>
      <trkpt lat="50.96749" lon="1.93312">
        <ele>3.2</ele>
        <time>2020-06-22T21:41:47Z</time>
      </trkpt>
      <trkpt lat="50.96752" lon="1.93321">
        <ele>3.2</ele>
        <time>2020-06-22T21:41:48Z</time>
      </trkpt>
      <trkpt lat="50.96753" lon="1.9333">
        <ele>3.2</ele>
        <time>2020-06-22T21:41:49Z</time>
      </trkpt>
      <trkpt lat="50.96755" lon="1.93342">
        <ele>3.2</ele>
        <time>2020-06-22T21:41:50Z</time>
      </trkpt>
      <trkpt lat="50.96756" lon="1.93351">
        <ele>3.3</ele>
        <time>2020-06-22T21:41:51Z</time>
      </trkpt>
      <trkpt lat="50.96758" lon="1.93361">
        <ele>3.4</ele>
        <time>2020-06-22T21:41:52Z</time>
      </trkpt>
      <trkpt lat="50.9676" lon="1.93372">
        <ele>3.5</ele>
        <time>2020-06-22T21:41:53Z</time>
      </trkpt>
      <trkpt lat="50.96761" lon="1.93384">
        <ele>3.6</ele>
        <time>2020-06-22T21:41:54Z</time>
      </trkpt>
      <trkpt lat="50.96763" lon="1.93394">
        <ele>3.5</ele>
        <time>2020-06-22T21:41:55Z</time>
      </trkpt>
      <trkpt lat="50.96765" lon="1.93404">
        <ele>3.5</ele>
        <time>2020-06-22T21:41:56Z</time>
      </trkpt>
      <trkpt lat="50.96766" lon="1.93415">
        <ele>3.5</ele>
        <time>2020-06-22T21:41:57Z</time>
      </trkpt>
      <trkpt lat="50.96767" lon="1.93426">
        <ele>3.5</ele>
        <time>2020-06-22T21:41:58Z</time>
      </trkpt>
      <trkpt lat="50.96768" lon="1.93435">
        <ele>3.5</ele>
        <time>2020-06-22T21:41:59Z</time>
      </trkpt>
      <trkpt lat="50.9677" lon="1.93444">
        <ele>3.5</ele>
        <time>2020-06-22T21:42:00Z</time>
      </trkpt>
      <trkpt lat="50.96771" lon="1.93454">
        <ele>3.5</ele>
        <time>2020-06-22T21:42:01Z</time>
      </trkpt>
      <trkpt lat="50.96772" lon="1.93463">
        <ele>3.5</ele>
        <time>2020-06-22T21:42:02Z</time>
      </trkpt>
      <trkpt lat="50.96774" lon="1.93472">
        <ele>3.5</ele>
        <time>2020-06-22T21:42:03Z</time>
      </trkpt>
      <trkpt lat="50.96775" lon="1.93482">
        <ele>3.6</ele>
        <time>2020-06-22T21:42:04Z</time>
      </trkpt>
      <trkpt lat="50.96775" lon="1.93492">
        <ele>3.6</ele>
        <time>2020-06-22T21:42:05Z</time>
      </trkpt>
      <trkpt lat="50.96776" lon="1.935">
        <ele>3.6</ele>
        <time>2020-06-22T21:42:06Z</time>
      </trkpt>
      <trkpt lat="50.96776" lon="1.9351">
        <ele>3.7</ele>
        <time>2020-06-22T21:42:07Z</time>
      </trkpt>
      <trkpt lat="50.96776" lon="1.9352">
        <ele>3.7</ele>
        <time>2020-06-22T21:42:08Z</time>
      </trkpt>
      <trkpt lat="50.96776" lon="1.9353">
        <ele>3.7</ele>
        <time>2020-06-22T21:42:09Z</time>
      </trkpt>
      <trkpt lat="50.96776" lon="1.9354">
        <ele>3.7</ele>
        <time>2020-06-22T21:42:10Z</time>
      </trkpt>
      <trkpt lat="50.96776" lon="1.9355">
        <ele>3.7</ele>
        <time>2020-06-22T21:42:11Z</time>
      </trkpt>
      <trkpt lat="50.96776" lon="1.93558">
        <ele>3.7</ele>
        <time>2020-06-22T21:42:12Z</time>
      </trkpt>
      <trkpt lat="50.96777" lon="1.93568">
        <ele>3.7</ele>
        <time>2020-06-22T21:42:13Z</time>
      </trkpt>
      <trkpt lat="50.96776" lon="1.93577">
        <ele>3.7</ele>
        <time>2020-06-22T21:42:14Z</time>
      </trkpt>
      <trkpt lat="50.96776" lon="1.93586">
        <ele>3.7</ele>
        <time>2020-06-22T21:42:15Z</time>
      </trkpt>
      <trkpt lat="50.96775" lon="1.93594">
        <ele>3.7</ele>
        <time>2020-06-22T21:42:16Z</time>
      </trkpt>
      <trkpt lat="50.96775" lon="1.93603">
        <ele>3.7</ele>
        <time>2020-06-22T21:42:17Z</time>
      </trkpt>
      <trkpt lat="50.96774" lon="1.93612">
        <ele>3.7</ele>
        <time>2020-06-22T21:42:18Z</time>
      </trkpt>
      <trkpt lat="50.96773" lon="1.93622">
        <ele>3.7</ele>
        <time>2020-06-22T21:42:19Z</time>
      </trkpt>
      <trkpt lat="50.96773" lon="1.93631">
        <ele>3.7</ele>
        <time>2020-06-22T21:42:20Z</time>
      </trkpt>
      <trkpt lat="50.96774" lon="1.9364">
        <ele>3.7</ele>
        <time>2020-06-22T21:42:21Z</time>
      </trkpt>
      <trkpt lat="50.96774" lon="1.93652">
        <ele>3.7</ele>
        <time>2020-06-22T21:42:22Z</time>
      </trkpt>
      <trkpt lat="50.96774" lon="1.93662">
        <ele>3.7</ele>
        <time>2020-06-22T21:42:23Z</time>
      </trkpt>
      <trkpt lat="50.96775" lon="1.93674">
        <ele>3.7</ele>
        <time>2020-06-22T21:42:24Z</time>
      </trkpt>
      <trkpt lat="50.96776" lon="1.93685">
        <ele>3.7</ele>
        <time>2020-06-22T21:42:25Z</time>
      </trkpt>
      <trkpt lat="50.96777" lon="1.93696">
        <ele>3.7</ele>
        <time>2020-06-22T21:42:26Z</time>
      </trkpt>
      <trkpt lat="50.96778" lon="1.93707">
        <ele>3.7</ele>
        <time>2020-06-22T21:42:27Z</time>
      </trkpt>
      <trkpt lat="50.96778" lon="1.93716">
        <ele>3.7</ele>
        <time>2020-06-22T21:42:28Z</time>
      </trkpt>
      <trkpt lat="50.9678" lon="1.93725">
        <ele>3.7</ele>
        <time>2020-06-22T21:42:29Z</time>
      </trkpt>
      <trkpt lat="50.9678" lon="1.93735">
        <ele>3.7</ele>
        <time>2020-06-22T21:42:30Z</time>
      </trkpt>
      <trkpt lat="50.96781" lon="1.93745">
        <ele>3.7</ele>
        <time>2020-06-22T21:42:31Z</time>
      </trkpt>
      <trkpt lat="50.96782" lon="1.93755">
        <ele>3.6</ele>
        <time>2020-06-22T21:42:32Z</time>
      </trkpt>
      <trkpt lat="50.96783" lon="1.93766">
        <ele>3.5</ele>
        <time>2020-06-22T21:42:33Z</time>
      </trkpt>
      <trkpt lat="50.96784" lon="1.93776">
        <ele>3.5</ele>
        <time>2020-06-22T21:42:34Z</time>
      </trkpt>
      <trkpt lat="50.96785" lon="1.93786">
        <ele>3.5</ele>
        <time>2020-06-22T21:42:35Z</time>
      </trkpt>
      <trkpt lat="50.96785" lon="1.93795">
        <ele>3.5</ele>
        <time>2020-06-22T21:42:36Z</time>
      </trkpt>
      <trkpt lat="50.96786" lon="1.93805">
        <ele>3.5</ele>
        <time>2020-06-22T21:42:37Z</time>
      </trkpt>
      <trkpt lat="50.96787" lon="1.93815">
        <ele>3.5</ele>
        <time>2020-06-22T21:42:38Z</time>
      </trkpt>
      <trkpt lat="50.96788" lon="1.93824">
        <ele>3.5</ele>
        <time>2020-06-22T21:42:39Z</time>
      </trkpt>
      <trkpt lat="50.96789" lon="1.93833">
        <ele>3.5</ele>
        <time>2020-06-22T21:42:40Z</time>
      </trkpt>
      <trkpt lat="50.9679" lon="1.93843">
        <ele>3.5</ele>
        <time>2020-06-22T21:42:41Z</time>
      </trkpt>
      <trkpt lat="50.96791" lon="1.93852">
        <ele>3.5</ele>
        <time>2020-06-22T21:42:42Z</time>
      </trkpt>
      <trkpt lat="50.96792" lon="1.93861">
        <ele>3.6</ele>
        <time>2020-06-22T21:42:43Z</time>
      </trkpt>
      <trkpt lat="50.96794" lon="1.93872">
        <ele>3.6</ele>
        <time>2020-06-22T21:42:44Z</time>
      </trkpt>
      <trkpt lat="50.96796" lon="1.93879">
        <ele>3.7</ele>
        <time>2020-06-22T21:42:45Z</time>
      </trkpt>
      <trkpt lat="50.96799" lon="1.9389">
        <ele>3.8</ele>
        <time>2020-06-22T21:42:46Z</time>
      </trkpt>
      <trkpt lat="50.96801" lon="1.939">
        <ele>3.8</ele>
        <time>2020-06-22T21:42:47Z</time>
      </trkpt>
      <trkpt lat="50.96803" lon="1.93909">
        <ele>3.8</ele>
        <time>2020-06-22T21:42:48Z</time>
      </trkpt>
      <trkpt lat="50.96805" lon="1.93918">
        <ele>3.8</ele>
        <time>2020-06-22T21:42:49Z</time>
      </trkpt>
      <trkpt lat="50.96807" lon="1.93925">
        <ele>3.9</ele>
        <time>2020-06-22T21:42:50Z</time>
      </trkpt>
      <trkpt lat="50.96809" lon="1.93935">
        <ele>3.9</ele>
        <time>2020-06-22T21:42:51Z</time>
      </trkpt>
      <trkpt lat="50.96811" lon="1.93944">
        <ele>4</ele>
        <time>2020-06-22T21:42:52Z</time>
      </trkpt>
      <trkpt lat="50.96813" lon="1.93953">
        <ele>4.1</ele>
        <time>2020-06-22T21:42:53Z</time>
      </trkpt>
      <trkpt lat="50.96815" lon="1.93963">
        <ele>4.1</ele>
        <time>2020-06-22T21:42:54Z</time>
      </trkpt>
      <trkpt lat="50.96816" lon="1.93971">
        <ele>4.2</ele>
        <time>2020-06-22T21:42:55Z</time>
      </trkpt>
      <trkpt lat="50.96818" lon="1.93979">
        <ele>4.2</ele>
        <time>2020-06-22T21:42:56Z</time>
      </trkpt>
      <trkpt lat="50.96819" lon="1.93989">
        <ele>4.3</ele>
        <time>2020-06-22T21:42:57Z</time>
      </trkpt>
      <trkpt lat="50.9682" lon="1.93999">
        <ele>4.4</ele>
        <time>2020-06-22T21:42:58Z</time>
      </trkpt>
      <trkpt lat="50.96822" lon="1.94009">
        <ele>4.5</ele>
        <time>2020-06-22T21:42:59Z</time>
      </trkpt>
      <trkpt lat="50.96823" lon="1.94019">
        <ele>4.5</ele>
        <time>2020-06-22T21:43:00Z</time>
      </trkpt>
      <trkpt lat="50.96825" lon="1.94028">
        <ele>4.5</ele>
        <time>2020-06-22T21:43:01Z</time>
      </trkpt>
      <trkpt lat="50.96827" lon="1.94039">
        <ele>4.6</ele>
        <time>2020-06-22T21:43:02Z</time>
      </trkpt>
      <trkpt lat="50.96828" lon="1.94045">
        <ele>4.6</ele>
        <time>2020-06-22T21:43:03Z</time>
      </trkpt>
      <trkpt lat="50.96829" lon="1.94052">
        <ele>4.6</ele>
        <time>2020-06-22T21:43:04Z</time>
      </trkpt>
      <trkpt lat="50.96831" lon="1.9406">
        <ele>4.7</ele>
        <time>2020-06-22T21:43:05Z</time>
      </trkpt>
      <trkpt lat="50.96833" lon="1.94069">
        <ele>4.7</ele>
        <time>2020-06-22T21:43:06Z</time>
      </trkpt>
      <trkpt lat="50.96835" lon="1.94077">
        <ele>4.8</ele>
        <time>2020-06-22T21:43:07Z</time>
      </trkpt>
      <trkpt lat="50.96837" lon="1.94086">
        <ele>4.9</ele>
        <time>2020-06-22T21:43:08Z</time>
      </trkpt>
      <trkpt lat="50.96838" lon="1.94095">
        <ele>4.9</ele>
        <time>2020-06-22T21:43:09Z</time>
      </trkpt>
      <trkpt lat="50.9684" lon="1.94104">
        <ele>4.9</ele>
        <time>2020-06-22T21:43:10Z</time>
      </trkpt>
      <trkpt lat="50.96841" lon="1.94115">
        <ele>4.9</ele>
        <time>2020-06-22T21:43:11Z</time>
      </trkpt>
      <trkpt lat="50.96842" lon="1.94126">
        <ele>4.9</ele>
        <time>2020-06-22T21:43:12Z</time>
      </trkpt>
      <trkpt lat="50.96844" lon="1.94134">
        <ele>5</ele>
        <time>2020-06-22T21:43:13Z</time>
      </trkpt>
      <trkpt lat="50.96845" lon="1.94143">
        <ele>5</ele>
        <time>2020-06-22T21:43:14Z</time>
      </trkpt>
      <trkpt lat="50.96846" lon="1.94151">
        <ele>5</ele>
        <time>2020-06-22T21:43:15Z</time>
      </trkpt>
      <trkpt lat="50.96847" lon="1.94161">
        <ele>5.1</ele>
        <time>2020-06-22T21:43:16Z</time>
      </trkpt>
      <trkpt lat="50.96847" lon="1.9417">
        <ele>5.1</ele>
        <time>2020-06-22T21:43:17Z</time>
      </trkpt>
      <trkpt lat="50.96848" lon="1.9418">
        <ele>5.1</ele>
        <time>2020-06-22T21:43:18Z</time>
      </trkpt>
      <trkpt lat="50.96848" lon="1.94189">
        <ele>5.2</ele>
        <time>2020-06-22T21:43:19Z</time>
      </trkpt>
      <trkpt lat="50.96847" lon="1.94198">
        <ele>5.2</ele>
        <time>2020-06-22T21:43:20Z</time>
      </trkpt>
      <trkpt lat="50.96849" lon="1.94208">
        <ele>5.2</ele>
        <time>2020-06-22T21:43:21Z</time>
      </trkpt>
      <trkpt lat="50.96849" lon="1.94214">
        <ele>5.2</ele>
        <time>2020-06-22T21:43:22Z</time>
      </trkpt>
      <trkpt lat="50.9685" lon="1.94221">
        <ele>5.2</ele>
        <time>2020-06-22T21:43:23Z</time>
      </trkpt>
      <trkpt lat="50.96851" lon="1.9423">
        <ele>5.3</ele>
        <time>2020-06-22T21:43:24Z</time>
      </trkpt>
      <trkpt lat="50.96851" lon="1.94239">
        <ele>5.3</ele>
        <time>2020-06-22T21:43:25Z</time>
      </trkpt>
      <trkpt lat="50.96851" lon="1.94247">
        <ele>5.3</ele>
        <time>2020-06-22T21:43:26Z</time>
      </trkpt>
      <trkpt lat="50.96851" lon="1.94255">
        <ele>5.4</ele>
        <time>2020-06-22T21:43:27Z</time>
      </trkpt>
      <trkpt lat="50.96851" lon="1.94261">
        <ele>5.4</ele>
        <time>2020-06-22T21:43:28Z</time>
      </trkpt>
      <trkpt lat="50.96852" lon="1.94268">
        <ele>5.5</ele>
        <time>2020-06-22T21:43:29Z</time>
      </trkpt>
      <trkpt lat="50.96855" lon="1.94275">
        <ele>5.5</ele>
        <time>2020-06-22T21:43:30Z</time>
      </trkpt>
      <trkpt lat="50.9686" lon="1.94277">
        <ele>5.5</ele>
        <time>2020-06-22T21:43:31Z</time>
      </trkpt>
      <trkpt lat="50.96865" lon="1.94278">
        <ele>5.4</ele>
        <time>2020-06-22T21:43:32Z</time>
      </trkpt>
      <trkpt lat="50.9687" lon="1.94278">
        <ele>5.4</ele>
        <time>2020-06-22T21:43:33Z</time>
      </trkpt>
      <trkpt lat="50.96875" lon="1.94277">
        <ele>5.4</ele>
        <time>2020-06-22T21:43:34Z</time>
      </trkpt>
      <trkpt lat="50.9688" lon="1.94277">
        <ele>5.3</ele>
        <time>2020-06-22T21:43:35Z</time>
      </trkpt>
      <trkpt lat="50.96885" lon="1.94277">
        <ele>5.2</ele>
        <time>2020-06-22T21:43:36Z</time>
      </trkpt>
      <trkpt lat="50.96891" lon="1.94276">
        <ele>5.2</ele>
        <time>2020-06-22T21:43:37Z</time>
      </trkpt>
      <trkpt lat="50.96897" lon="1.94276">
        <ele>5.1</ele>
        <time>2020-06-22T21:43:38Z</time>
      </trkpt>
      <trkpt lat="50.96903" lon="1.94277">
        <ele>5</ele>
        <time>2020-06-22T21:43:39Z</time>
      </trkpt>
      <trkpt lat="50.96909" lon="1.94277">
        <ele>4.9</ele>
        <time>2020-06-22T21:43:40Z</time>
      </trkpt>
      <trkpt lat="50.96915" lon="1.94278">
        <ele>4.8</ele>
        <time>2020-06-22T21:43:41Z</time>
      </trkpt>
      <trkpt lat="50.96921" lon="1.94279">
        <ele>4.7</ele>
        <time>2020-06-22T21:43:42Z</time>
      </trkpt>
      <trkpt lat="50.96927" lon="1.9428">
        <ele>4.6</ele>
        <time>2020-06-22T21:43:43Z</time>
      </trkpt>
      <trkpt lat="50.96933" lon="1.9428">
        <ele>4.6</ele>
        <time>2020-06-22T21:43:44Z</time>
      </trkpt>
      <trkpt lat="50.96938" lon="1.9428">
        <ele>4.5</ele>
        <time>2020-06-22T21:43:45Z</time>
      </trkpt>
      <trkpt lat="50.96943" lon="1.94281">
        <ele>4.4</ele>
        <time>2020-06-22T21:43:46Z</time>
      </trkpt>
      <trkpt lat="50.96948" lon="1.94281">
        <ele>4.3</ele>
        <time>2020-06-22T21:43:47Z</time>
      </trkpt>
      <trkpt lat="50.96953" lon="1.9428">
        <ele>4.2</ele>
        <time>2020-06-22T21:43:48Z</time>
      </trkpt>
      <trkpt lat="50.96959" lon="1.9428">
        <ele>4.1</ele>
        <time>2020-06-22T21:43:49Z</time>
      </trkpt>
      <trkpt lat="50.96965" lon="1.94281">
        <ele>4</ele>
        <time>2020-06-22T21:43:50Z</time>
      </trkpt>
      <trkpt lat="50.96971" lon="1.94282">
        <ele>3.9</ele>
        <time>2020-06-22T21:43:51Z</time>
      </trkpt>
      <trkpt lat="50.96978" lon="1.94283">
        <ele>3.8</ele>
        <time>2020-06-22T21:43:52Z</time>
      </trkpt>
      <trkpt lat="50.96984" lon="1.94285">
        <ele>3.8</ele>
        <time>2020-06-22T21:43:53Z</time>
      </trkpt>
      <trkpt lat="50.96991" lon="1.94286">
        <ele>3.7</ele>
        <time>2020-06-22T21:43:54Z</time>
      </trkpt>
      <trkpt lat="50.96998" lon="1.94287">
        <ele>3.6</ele>
        <time>2020-06-22T21:43:55Z</time>
      </trkpt>
      <trkpt lat="50.97004" lon="1.94288">
        <ele>3.6</ele>
        <time>2020-06-22T21:43:56Z</time>
      </trkpt>
      <trkpt lat="50.9701" lon="1.94289">
        <ele>3.5</ele>
        <time>2020-06-22T21:43:57Z</time>
      </trkpt>
      <trkpt lat="50.97016" lon="1.94291">
        <ele>3.5</ele>
        <time>2020-06-22T21:43:58Z</time>
      </trkpt>
      <trkpt lat="50.97022" lon="1.94292">
        <ele>3.5</ele>
        <time>2020-06-22T21:43:59Z</time>
      </trkpt>
      <trkpt lat="50.97029" lon="1.94292">
        <ele>3.5</ele>
        <time>2020-06-22T21:44:00Z</time>
      </trkpt>
      <trkpt lat="50.97036" lon="1.94292">
        <ele>3.4</ele>
        <time>2020-06-22T21:44:01Z</time>
      </trkpt>
      <trkpt lat="50.97043" lon="1.94292">
        <ele>3.4</ele>
        <time>2020-06-22T21:44:02Z</time>
      </trkpt>
      <trkpt lat="50.97049" lon="1.94293">
        <ele>3.4</ele>
        <time>2020-06-22T21:44:03Z</time>
      </trkpt>
      <trkpt lat="50.97056" lon="1.94293">
        <ele>3.4</ele>
        <time>2020-06-22T21:44:04Z</time>
      </trkpt>
      <trkpt lat="50.97062" lon="1.94294">
        <ele>3.4</ele>
        <time>2020-06-22T21:44:05Z</time>
      </trkpt>
      <trkpt lat="50.97068" lon="1.94296">
        <ele>3.4</ele>
        <time>2020-06-22T21:44:06Z</time>
      </trkpt>
      <trkpt lat="50.97075" lon="1.94299">
        <ele>3.4</ele>
        <time>2020-06-22T21:44:07Z</time>
      </trkpt>
      <trkpt lat="50.97081" lon="1.94301">
        <ele>3.3</ele>
        <time>2020-06-22T21:44:08Z</time>
      </trkpt>
      <trkpt lat="50.97088" lon="1.94303">
        <ele>3.3</ele>
        <time>2020-06-22T21:44:09Z</time>
      </trkpt>
      <trkpt lat="50.97094" lon="1.94304">
        <ele>3.3</ele>
        <time>2020-06-22T21:44:10Z</time>
      </trkpt>
      <trkpt lat="50.971" lon="1.94307">
        <ele>3.2</ele>
        <time>2020-06-22T21:44:11Z</time>
      </trkpt>
      <trkpt lat="50.97106" lon="1.94311">
        <ele>3.2</ele>
        <time>2020-06-22T21:44:12Z</time>
      </trkpt>
      <trkpt lat="50.97112" lon="1.94316">
        <ele>3.2</ele>
        <time>2020-06-22T21:44:13Z</time>
      </trkpt>
      <trkpt lat="50.97117" lon="1.94321">
        <ele>3.2</ele>
        <time>2020-06-22T21:44:14Z</time>
      </trkpt>
      <trkpt lat="50.97123" lon="1.94326">
        <ele>3.2</ele>
        <time>2020-06-22T21:44:15Z</time>
      </trkpt>
      <trkpt lat="50.9713" lon="1.94331">
        <ele>3.2</ele>
        <time>2020-06-22T21:44:16Z</time>
      </trkpt>
      <trkpt lat="50.97135" lon="1.94337">
        <ele>3.2</ele>
        <time>2020-06-22T21:44:17Z</time>
      </trkpt>
      <trkpt lat="50.97141" lon="1.94344">
        <ele>3.2</ele>
        <time>2020-06-22T21:44:18Z</time>
      </trkpt>
      <trkpt lat="50.97146" lon="1.94351">
        <ele>3.2</ele>
        <time>2020-06-22T21:44:19Z</time>
      </trkpt>
      <trkpt lat="50.97151" lon="1.94358">
        <ele>3.2</ele>
        <time>2020-06-22T21:44:20Z</time>
      </trkpt>
      <trkpt lat="50.97155" lon="1.94365">
        <ele>3.2</ele>
        <time>2020-06-22T21:44:21Z</time>
      </trkpt>
      <trkpt lat="50.97159" lon="1.94373">
        <ele>3.3</ele>
        <time>2020-06-22T21:44:22Z</time>
      </trkpt>
      <trkpt lat="50.97163" lon="1.94381">
        <ele>3.3</ele>
        <time>2020-06-22T21:44:23Z</time>
      </trkpt>
      <trkpt lat="50.97167" lon="1.94389">
        <ele>3.3</ele>
        <time>2020-06-22T21:44:24Z</time>
      </trkpt>
      <trkpt lat="50.9717" lon="1.94397">
        <ele>3.3</ele>
        <time>2020-06-22T21:44:25Z</time>
      </trkpt>
      <trkpt lat="50.97175" lon="1.94404">
        <ele>3.3</ele>
        <time>2020-06-22T21:44:26Z</time>
      </trkpt>
      <trkpt lat="50.97179" lon="1.94412">
        <ele>3.2</ele>
        <time>2020-06-22T21:44:27Z</time>
      </trkpt>
      <trkpt lat="50.97184" lon="1.94421">
        <ele>3.2</ele>
        <time>2020-06-22T21:44:28Z</time>
      </trkpt>
      <trkpt lat="50.97189" lon="1.9443">
        <ele>3.2</ele>
        <time>2020-06-22T21:44:29Z</time>
      </trkpt>
      <trkpt lat="50.97194" lon="1.94437">
        <ele>3.2</ele>
        <time>2020-06-22T21:44:30Z</time>
      </trkpt>
      <trkpt lat="50.97199" lon="1.94442">
        <ele>3.1</ele>
        <time>2020-06-22T21:44:31Z</time>
      </trkpt>
      <trkpt lat="50.97204" lon="1.94449">
        <ele>3.1</ele>
        <time>2020-06-22T21:44:32Z</time>
      </trkpt>
      <trkpt lat="50.97209" lon="1.94456">
        <ele>3.1</ele>
        <time>2020-06-22T21:44:33Z</time>
      </trkpt>
      <trkpt lat="50.97214" lon="1.94463">
        <ele>3.1</ele>
        <time>2020-06-22T21:44:34Z</time>
      </trkpt>
      <trkpt lat="50.97219" lon="1.9447">
        <ele>3.1</ele>
        <time>2020-06-22T21:44:35Z</time>
      </trkpt>
      <trkpt lat="50.97223" lon="1.94478">
        <ele>3.1</ele>
        <time>2020-06-22T21:44:36Z</time>
      </trkpt>
      <trkpt lat="50.97228" lon="1.94485">
        <ele>3.2</ele>
        <time>2020-06-22T21:44:37Z</time>
      </trkpt>
      <trkpt lat="50.97233" lon="1.94492">
        <ele>3.2</ele>
        <time>2020-06-22T21:44:38Z</time>
      </trkpt>
      <trkpt lat="50.97237" lon="1.94498">
        <ele>3.2</ele>
        <time>2020-06-22T21:44:39Z</time>
      </trkpt>
      <trkpt lat="50.97243" lon="1.94505">
        <ele>3.2</ele>
        <time>2020-06-22T21:44:40Z</time>
      </trkpt>
      <trkpt lat="50.97247" lon="1.94512">
        <ele>3.3</ele>
        <time>2020-06-22T21:44:41Z</time>
      </trkpt>
      <trkpt lat="50.97251" lon="1.94519">
        <ele>3.3</ele>
        <time>2020-06-22T21:44:42Z</time>
      </trkpt>
      <trkpt lat="50.97255" lon="1.94526">
        <ele>3.3</ele>
        <time>2020-06-22T21:44:43Z</time>
      </trkpt>
      <trkpt lat="50.9726" lon="1.94533">
        <ele>3.3</ele>
        <time>2020-06-22T21:44:44Z</time>
      </trkpt>
      <trkpt lat="50.97264" lon="1.94541">
        <ele>3.3</ele>
        <time>2020-06-22T21:44:45Z</time>
      </trkpt>
      <trkpt lat="50.97268" lon="1.94549">
        <ele>3.3</ele>
        <time>2020-06-22T21:44:46Z</time>
      </trkpt>
      <trkpt lat="50.97271" lon="1.94557">
        <ele>3.3</ele>
        <time>2020-06-22T21:44:47Z</time>
      </trkpt>
      <trkpt lat="50.97275" lon="1.94566">
        <ele>3.3</ele>
        <time>2020-06-22T21:44:48Z</time>
      </trkpt>
      <trkpt lat="50.97279" lon="1.94574">
        <ele>3.4</ele>
        <time>2020-06-22T21:44:49Z</time>
      </trkpt>
      <trkpt lat="50.97282" lon="1.94583">
        <ele>3.4</ele>
        <time>2020-06-22T21:44:50Z</time>
      </trkpt>
      <trkpt lat="50.97285" lon="1.94591">
        <ele>3.4</ele>
        <time>2020-06-22T21:44:51Z</time>
      </trkpt>
      <trkpt lat="50.97289" lon="1.94599">
        <ele>3.4</ele>
        <time>2020-06-22T21:44:52Z</time>
      </trkpt>
      <trkpt lat="50.97292" lon="1.94607">
        <ele>3.5</ele>
        <time>2020-06-22T21:44:53Z</time>
      </trkpt>
      <trkpt lat="50.97296" lon="1.94616">
        <ele>3.5</ele>
        <time>2020-06-22T21:44:54Z</time>
      </trkpt>
      <trkpt lat="50.973" lon="1.94623">
        <ele>3.5</ele>
        <time>2020-06-22T21:44:55Z</time>
      </trkpt>
      <trkpt lat="50.97304" lon="1.94631">
        <ele>3.5</ele>
        <time>2020-06-22T21:44:56Z</time>
      </trkpt>
      <trkpt lat="50.97308" lon="1.94639">
        <ele>3.5</ele>
        <time>2020-06-22T21:44:57Z</time>
      </trkpt>
      <trkpt lat="50.97312" lon="1.94648">
        <ele>3.5</ele>
        <time>2020-06-22T21:44:58Z</time>
      </trkpt>
      <trkpt lat="50.97316" lon="1.94657">
        <ele>3.5</ele>
        <time>2020-06-22T21:44:59Z</time>
      </trkpt>
      <trkpt lat="50.97319" lon="1.94665">
        <ele>3.5</ele>
        <time>2020-06-22T21:45:00Z</time>
      </trkpt>
      <trkpt lat="50.97322" lon="1.94673">
        <ele>3.5</ele>
        <time>2020-06-22T21:45:01Z</time>
      </trkpt>
      <trkpt lat="50.97326" lon="1.94681">
        <ele>3.5</ele>
        <time>2020-06-22T21:45:02Z</time>
      </trkpt>
      <trkpt lat="50.97331" lon="1.9469">
        <ele>3.6</ele>
        <time>2020-06-22T21:45:03Z</time>
      </trkpt>
      <trkpt lat="50.97336" lon="1.94699">
        <ele>3.7</ele>
        <time>2020-06-22T21:45:04Z</time>
      </trkpt>
      <trkpt lat="50.9734" lon="1.94705">
        <ele>3.7</ele>
        <time>2020-06-22T21:45:05Z</time>
      </trkpt>
      <trkpt lat="50.97345" lon="1.9471">
        <ele>3.7</ele>
        <time>2020-06-22T21:45:06Z</time>
      </trkpt>
      <trkpt lat="50.97351" lon="1.94715">
        <ele>3.8</ele>
        <time>2020-06-22T21:45:07Z</time>
      </trkpt>
      <trkpt lat="50.97357" lon="1.94715">
        <ele>3.8</ele>
        <time>2020-06-22T21:45:08Z</time>
      </trkpt>
      <trkpt lat="50.97363" lon="1.94713">
        <ele>3.8</ele>
        <time>2020-06-22T21:45:09Z</time>
      </trkpt>
      <trkpt lat="50.97369" lon="1.94711">
        <ele>3.8</ele>
        <time>2020-06-22T21:45:10Z</time>
      </trkpt>
      <trkpt lat="50.97376" lon="1.9471">
        <ele>3.9</ele>
        <time>2020-06-22T21:45:11Z</time>
      </trkpt>
      <trkpt lat="50.97383" lon="1.94709">
        <ele>3.9</ele>
        <time>2020-06-22T21:45:12Z</time>
      </trkpt>
      <trkpt lat="50.97388" lon="1.94707">
        <ele>3.9</ele>
        <time>2020-06-22T21:45:13Z</time>
      </trkpt>
      <trkpt lat="50.97393" lon="1.94705">
        <ele>3.9</ele>
        <time>2020-06-22T21:45:14Z</time>
      </trkpt>
      <trkpt lat="50.97399" lon="1.94703">
        <ele>3.8</ele>
        <time>2020-06-22T21:45:15Z</time>
      </trkpt>
      <trkpt lat="50.97404" lon="1.947">
        <ele>3.8</ele>
        <time>2020-06-22T21:45:16Z</time>
      </trkpt>
      <trkpt lat="50.9741" lon="1.94698">
        <ele>3.8</ele>
        <time>2020-06-22T21:45:17Z</time>
      </trkpt>
      <trkpt lat="50.97414" lon="1.94696">
        <ele>3.7</ele>
        <time>2020-06-22T21:45:18Z</time>
      </trkpt>
      <trkpt lat="50.97418" lon="1.94694">
        <ele>3.7</ele>
        <time>2020-06-22T21:45:19Z</time>
      </trkpt>
      <trkpt lat="50.97421" lon="1.94693">
        <ele>3.7</ele>
        <time>2020-06-22T21:45:20Z</time>
      </trkpt>
      <trkpt lat="50.97426" lon="1.94693">
        <ele>3.7</ele>
        <time>2020-06-22T21:45:21Z</time>
      </trkpt>
      <trkpt lat="50.97431" lon="1.94694">
        <ele>3.6</ele>
        <time>2020-06-22T21:45:22Z</time>
      </trkpt>
      <trkpt lat="50.97437" lon="1.94696">
        <ele>3.6</ele>
        <time>2020-06-22T21:45:23Z</time>
      </trkpt>
      <trkpt lat="50.97444" lon="1.94698">
        <ele>3.5</ele>
        <time>2020-06-22T21:45:24Z</time>
      </trkpt>
      <trkpt lat="50.97451" lon="1.94701">
        <ele>3.4</ele>
        <time>2020-06-22T21:45:25Z</time>
      </trkpt>
      <trkpt lat="50.9746" lon="1.94705">
        <ele>3.4</ele>
        <time>2020-06-22T21:45:26Z</time>
      </trkpt>
      <trkpt lat="50.97466" lon="1.94708">
        <ele>3.4</ele>
        <time>2020-06-22T21:45:27Z</time>
      </trkpt>
      <trkpt lat="50.97471" lon="1.94711">
        <ele>3.5</ele>
        <time>2020-06-22T21:45:28Z</time>
      </trkpt>
      <trkpt lat="50.97475" lon="1.94714">
        <ele>3.5</ele>
        <time>2020-06-22T21:45:29Z</time>
      </trkpt>
      <trkpt lat="50.9748" lon="1.9472">
        <ele>3.6</ele>
        <time>2020-06-22T21:45:30Z</time>
      </trkpt>
      <trkpt lat="50.97484" lon="1.94729">
        <ele>3.7</ele>
        <time>2020-06-22T21:45:31Z</time>
      </trkpt>
      <trkpt lat="50.97488" lon="1.94737">
        <ele>3.9</ele>
        <time>2020-06-22T21:45:32Z</time>
      </trkpt>
      <trkpt lat="50.97493" lon="1.94744">
        <ele>4</ele>
        <time>2020-06-22T21:45:33Z</time>
      </trkpt>
      <trkpt lat="50.97496" lon="1.9475">
        <ele>4</ele>
        <time>2020-06-22T21:45:34Z</time>
      </trkpt>
      <trkpt lat="50.975" lon="1.94757">
        <ele>4.1</ele>
        <time>2020-06-22T21:45:35Z</time>
      </trkpt>
      <trkpt lat="50.97505" lon="1.94764">
        <ele>4.2</ele>
        <time>2020-06-22T21:45:36Z</time>
      </trkpt>
      <trkpt lat="50.97508" lon="1.94771">
        <ele>4.2</ele>
        <time>2020-06-22T21:45:37Z</time>
      </trkpt>
      <trkpt lat="50.97512" lon="1.94778">
        <ele>4.2</ele>
        <time>2020-06-22T21:45:38Z</time>
      </trkpt>
      <trkpt lat="50.97515" lon="1.94786">
        <ele>4.2</ele>
        <time>2020-06-22T21:45:39Z</time>
      </trkpt>
      <trkpt lat="50.97519" lon="1.94794">
        <ele>4.2</ele>
        <time>2020-06-22T21:45:40Z</time>
      </trkpt>
      <trkpt lat="50.97523" lon="1.94801">
        <ele>4.2</ele>
        <time>2020-06-22T21:45:41Z</time>
      </trkpt>
      <trkpt lat="50.97527" lon="1.94808">
        <ele>4.2</ele>
        <time>2020-06-22T21:45:42Z</time>
      </trkpt>
      <trkpt lat="50.97531" lon="1.94817">
        <ele>4.3</ele>
        <time>2020-06-22T21:45:43Z</time>
      </trkpt>
      <trkpt lat="50.97535" lon="1.94824">
        <ele>4.3</ele>
        <time>2020-06-22T21:45:44Z</time>
      </trkpt>
      <trkpt lat="50.97538" lon="1.94832">
        <ele>4.3</ele>
        <time>2020-06-22T21:45:45Z</time>
      </trkpt>
      <trkpt lat="50.97541" lon="1.9484">
        <ele>4.2</ele>
        <time>2020-06-22T21:45:46Z</time>
      </trkpt>
      <trkpt lat="50.97543" lon="1.94848">
        <ele>4.2</ele>
        <time>2020-06-22T21:45:47Z</time>
      </trkpt>
      <trkpt lat="50.97545" lon="1.94855">
        <ele>4.1</ele>
        <time>2020-06-22T21:45:48Z</time>
      </trkpt>
      <trkpt lat="50.97548" lon="1.94862">
        <ele>4.1</ele>
        <time>2020-06-22T21:45:49Z</time>
      </trkpt>
      <trkpt lat="50.9755" lon="1.9487">
        <ele>4</ele>
        <time>2020-06-22T21:45:50Z</time>
      </trkpt>
      <trkpt lat="50.97553" lon="1.94878">
        <ele>3.9</ele>
        <time>2020-06-22T21:45:51Z</time>
      </trkpt>
      <trkpt lat="50.97556" lon="1.94886">
        <ele>3.9</ele>
        <time>2020-06-22T21:45:52Z</time>
      </trkpt>
      <trkpt lat="50.9756" lon="1.94893">
        <ele>3.8</ele>
        <time>2020-06-22T21:45:53Z</time>
      </trkpt>
      <trkpt lat="50.97563" lon="1.949">
        <ele>3.8</ele>
        <time>2020-06-22T21:45:54Z</time>
      </trkpt>
      <trkpt lat="50.97567" lon="1.94906">
        <ele>3.8</ele>
        <time>2020-06-22T21:45:55Z</time>
      </trkpt>
      <trkpt lat="50.9757" lon="1.94912">
        <ele>3.7</ele>
        <time>2020-06-22T21:45:56Z</time>
      </trkpt>
      <trkpt lat="50.97574" lon="1.94918">
        <ele>3.7</ele>
        <time>2020-06-22T21:45:57Z</time>
      </trkpt>
      <trkpt lat="50.97577" lon="1.94923">
        <ele>3.7</ele>
        <time>2020-06-22T21:45:58Z</time>
      </trkpt>
      <trkpt lat="50.9758" lon="1.94927">
        <ele>3.7</ele>
        <time>2020-06-22T21:45:59Z</time>
      </trkpt>
      <trkpt lat="50.97584" lon="1.94932">
        <ele>3.7</ele>
        <time>2020-06-22T21:46:00Z</time>
      </trkpt>
      <trkpt lat="50.97587" lon="1.94937">
        <ele>3.7</ele>
        <time>2020-06-22T21:46:01Z</time>
      </trkpt>
      <trkpt lat="50.97591" lon="1.94941">
        <ele>3.7</ele>
        <time>2020-06-22T21:46:02Z</time>
      </trkpt>
      <trkpt lat="50.97598" lon="1.94945">
        <ele>3.7</ele>
        <time>2020-06-22T21:46:03Z</time>
      </trkpt>
      <trkpt lat="50.97602" lon="1.9495">
        <ele>3.7</ele>
        <time>2020-06-22T21:46:04Z</time>
      </trkpt>
      <trkpt lat="50.97608" lon="1.94956">
        <ele>3.6</ele>
        <time>2020-06-22T21:46:05Z</time>
      </trkpt>
      <trkpt lat="50.97614" lon="1.94961">
        <ele>3.6</ele>
        <time>2020-06-22T21:46:06Z</time>
      </trkpt>
      <trkpt lat="50.97618" lon="1.94966">
        <ele>3.6</ele>
        <time>2020-06-22T21:46:07Z</time>
      </trkpt>
      <trkpt lat="50.97623" lon="1.94972">
        <ele>3.6</ele>
        <time>2020-06-22T21:46:08Z</time>
      </trkpt>
      <trkpt lat="50.97627" lon="1.94978">
        <ele>3.6</ele>
        <time>2020-06-22T21:46:09Z</time>
      </trkpt>
      <trkpt lat="50.97632" lon="1.94985">
        <ele>3.6</ele>
        <time>2020-06-22T21:46:10Z</time>
      </trkpt>
      <trkpt lat="50.97638" lon="1.94993">
        <ele>3.6</ele>
        <time>2020-06-22T21:46:11Z</time>
      </trkpt>
      <trkpt lat="50.97641" lon="1.95001">
        <ele>3.6</ele>
        <time>2020-06-22T21:46:12Z</time>
      </trkpt>
      <trkpt lat="50.97644" lon="1.9501">
        <ele>3.6</ele>
        <time>2020-06-22T21:46:13Z</time>
      </trkpt>
      <trkpt lat="50.97647" lon="1.9502">
        <ele>3.6</ele>
        <time>2020-06-22T21:46:14Z</time>
      </trkpt>
      <trkpt lat="50.9765" lon="1.95028">
        <ele>3.6</ele>
        <time>2020-06-22T21:46:15Z</time>
      </trkpt>
      <trkpt lat="50.97652" lon="1.95037">
        <ele>3.6</ele>
        <time>2020-06-22T21:46:16Z</time>
      </trkpt>
      <trkpt lat="50.97655" lon="1.95045">
        <ele>3.7</ele>
        <time>2020-06-22T21:46:17Z</time>
      </trkpt>
      <trkpt lat="50.97656" lon="1.95053">
        <ele>3.6</ele>
        <time>2020-06-22T21:46:18Z</time>
      </trkpt>
      <trkpt lat="50.97658" lon="1.95064">
        <ele>3.6</ele>
        <time>2020-06-22T21:46:19Z</time>
      </trkpt>
      <trkpt lat="50.9766" lon="1.95068">
        <ele>3.6</ele>
        <time>2020-06-22T21:46:20Z</time>
      </trkpt>
      <trkpt lat="50.97663" lon="1.95078">
        <ele>3.6</ele>
        <time>2020-06-22T21:46:21Z</time>
      </trkpt>
      <trkpt lat="50.97666" lon="1.95086">
        <ele>3.6</ele>
        <time>2020-06-22T21:46:22Z</time>
      </trkpt>
      <trkpt lat="50.97668" lon="1.95095">
        <ele>3.6</ele>
        <time>2020-06-22T21:46:23Z</time>
      </trkpt>
      <trkpt lat="50.97671" lon="1.95102">
        <ele>3.6</ele>
        <time>2020-06-22T21:46:24Z</time>
      </trkpt>
      <trkpt lat="50.97673" lon="1.95113">
        <ele>3.6</ele>
        <time>2020-06-22T21:46:25Z</time>
      </trkpt>
      <trkpt lat="50.97677" lon="1.95122">
        <ele>3.6</ele>
        <time>2020-06-22T21:46:26Z</time>
      </trkpt>
      <trkpt lat="50.9768" lon="1.9513">
        <ele>3.5</ele>
        <time>2020-06-22T21:46:27Z</time>
      </trkpt>
      <trkpt lat="50.97684" lon="1.95139">
        <ele>3.5</ele>
        <time>2020-06-22T21:46:28Z</time>
      </trkpt>
      <trkpt lat="50.97687" lon="1.95147">
        <ele>3.5</ele>
        <time>2020-06-22T21:46:29Z</time>
      </trkpt>
      <trkpt lat="50.97689" lon="1.95155">
        <ele>3.5</ele>
        <time>2020-06-22T21:46:30Z</time>
      </trkpt>
      <trkpt lat="50.97693" lon="1.95162">
        <ele>3.5</ele>
        <time>2020-06-22T21:46:31Z</time>
      </trkpt>
      <trkpt lat="50.97696" lon="1.95168">
        <ele>3.5</ele>
        <time>2020-06-22T21:46:32Z</time>
      </trkpt>
      <trkpt lat="50.97699" lon="1.95175">
        <ele>3.5</ele>
        <time>2020-06-22T21:46:33Z</time>
      </trkpt>
      <trkpt lat="50.97702" lon="1.95182">
        <ele>3.5</ele>
        <time>2020-06-22T21:46:34Z</time>
      </trkpt>
      <trkpt lat="50.97706" lon="1.95189">
        <ele>3.5</ele>
        <time>2020-06-22T21:46:35Z</time>
      </trkpt>
      <trkpt lat="50.9771" lon="1.95195">
        <ele>3.5</ele>
        <time>2020-06-22T21:46:36Z</time>
      </trkpt>
      <trkpt lat="50.97713" lon="1.95202">
        <ele>3.5</ele>
        <time>2020-06-22T21:46:37Z</time>
      </trkpt>
      <trkpt lat="50.97716" lon="1.95207">
        <ele>3.5</ele>
        <time>2020-06-22T21:46:38Z</time>
      </trkpt>
      <trkpt lat="50.97719" lon="1.95211">
        <ele>3.5</ele>
        <time>2020-06-22T21:46:39Z</time>
      </trkpt>
      <trkpt lat="50.97722" lon="1.95217">
        <ele>3.5</ele>
        <time>2020-06-22T21:46:40Z</time>
      </trkpt>
      <trkpt lat="50.97725" lon="1.95223">
        <ele>3.5</ele>
        <time>2020-06-22T21:46:41Z</time>
      </trkpt>
      <trkpt lat="50.97728" lon="1.95229">
        <ele>3.5</ele>
        <time>2020-06-22T21:46:42Z</time>
      </trkpt>
      <trkpt lat="50.97731" lon="1.95236">
        <ele>3.5</ele>
        <time>2020-06-22T21:46:43Z</time>
      </trkpt>
      <trkpt lat="50.97735" lon="1.95243">
        <ele>3.5</ele>
        <time>2020-06-22T21:46:44Z</time>
      </trkpt>
      <trkpt lat="50.97739" lon="1.95248">
        <ele>3.5</ele>
        <time>2020-06-22T21:46:45Z</time>
      </trkpt>
      <trkpt lat="50.97743" lon="1.95255">
        <ele>3.5</ele>
        <time>2020-06-22T21:46:46Z</time>
      </trkpt>
      <trkpt lat="50.97746" lon="1.9526">
        <ele>3.5</ele>
        <time>2020-06-22T21:46:47Z</time>
      </trkpt>
      <trkpt lat="50.9775" lon="1.95266">
        <ele>3.5</ele>
        <time>2020-06-22T21:46:48Z</time>
      </trkpt>
      <trkpt lat="50.97753" lon="1.95271">
        <ele>3.6</ele>
        <time>2020-06-22T21:46:49Z</time>
      </trkpt>
      <trkpt lat="50.97757" lon="1.95277">
        <ele>3.6</ele>
        <time>2020-06-22T21:46:50Z</time>
      </trkpt>
      <trkpt lat="50.97761" lon="1.95284">
        <ele>3.6</ele>
        <time>2020-06-22T21:46:51Z</time>
      </trkpt>
      <trkpt lat="50.97765" lon="1.9529">
        <ele>3.6</ele>
        <time>2020-06-22T21:46:52Z</time>
      </trkpt>
      <trkpt lat="50.9777" lon="1.95297">
        <ele>3.6</ele>
        <time>2020-06-22T21:46:53Z</time>
      </trkpt>
      <trkpt lat="50.97775" lon="1.95303">
        <ele>3.6</ele>
        <time>2020-06-22T21:46:54Z</time>
      </trkpt>
      <trkpt lat="50.97779" lon="1.9531">
        <ele>3.6</ele>
        <time>2020-06-22T21:46:55Z</time>
      </trkpt>
      <trkpt lat="50.97783" lon="1.95316">
        <ele>3.6</ele>
        <time>2020-06-22T21:46:56Z</time>
      </trkpt>
      <trkpt lat="50.97787" lon="1.95322">
        <ele>3.6</ele>
        <time>2020-06-22T21:46:57Z</time>
      </trkpt>
      <trkpt lat="50.97791" lon="1.95328">
        <ele>3.6</ele>
        <time>2020-06-22T21:46:58Z</time>
      </trkpt>
      <trkpt lat="50.97794" lon="1.95333">
        <ele>3.6</ele>
        <time>2020-06-22T21:46:59Z</time>
      </trkpt>
      <trkpt lat="50.97799" lon="1.95341">
        <ele>3.6</ele>
        <time>2020-06-22T21:47:00Z</time>
      </trkpt>
      <trkpt lat="50.97804" lon="1.95347">
        <ele>3.6</ele>
        <time>2020-06-22T21:47:01Z</time>
      </trkpt>
      <trkpt lat="50.97808" lon="1.95354">
        <ele>3.6</ele>
        <time>2020-06-22T21:47:02Z</time>
      </trkpt>
      <trkpt lat="50.97811" lon="1.95359">
        <ele>3.6</ele>
        <time>2020-06-22T21:47:03Z</time>
      </trkpt>
      <trkpt lat="50.97815" lon="1.95364">
        <ele>3.5</ele>
        <time>2020-06-22T21:47:04Z</time>
      </trkpt>
      <trkpt lat="50.97818" lon="1.95368">
        <ele>3.5</ele>
        <time>2020-06-22T21:47:05Z</time>
      </trkpt>
      <trkpt lat="50.97821" lon="1.95372">
        <ele>3.5</ele>
        <time>2020-06-22T21:47:06Z</time>
      </trkpt>
      <trkpt lat="50.97824" lon="1.95377">
        <ele>3.5</ele>
        <time>2020-06-22T21:47:07Z</time>
      </trkpt>
      <trkpt lat="50.97826" lon="1.95381">
        <ele>3.5</ele>
        <time>2020-06-22T21:47:08Z</time>
      </trkpt>
      <trkpt lat="50.97829" lon="1.95386">
        <ele>3.5</ele>
        <time>2020-06-22T21:47:09Z</time>
      </trkpt>
      <trkpt lat="50.97831" lon="1.95391">
        <ele>3.4</ele>
        <time>2020-06-22T21:47:10Z</time>
      </trkpt>
      <trkpt lat="50.97834" lon="1.95396">
        <ele>3.4</ele>
        <time>2020-06-22T21:47:11Z</time>
      </trkpt>
      <trkpt lat="50.97837" lon="1.95401">
        <ele>3.4</ele>
        <time>2020-06-22T21:47:12Z</time>
      </trkpt>
      <trkpt lat="50.9784" lon="1.95405">
        <ele>3.4</ele>
        <time>2020-06-22T21:47:13Z</time>
      </trkpt>
      <trkpt lat="50.97843" lon="1.9541">
        <ele>3.4</ele>
        <time>2020-06-22T21:47:14Z</time>
      </trkpt>
      <trkpt lat="50.97846" lon="1.95414">
        <ele>3.4</ele>
        <time>2020-06-22T21:47:15Z</time>
      </trkpt>
      <trkpt lat="50.97849" lon="1.95419">
        <ele>3.4</ele>
        <time>2020-06-22T21:47:16Z</time>
      </trkpt>
      <trkpt lat="50.97852" lon="1.95423">
        <ele>3.4</ele>
        <time>2020-06-22T21:47:17Z</time>
      </trkpt>
      <trkpt lat="50.97855" lon="1.95429">
        <ele>3.4</ele>
        <time>2020-06-22T21:47:18Z</time>
      </trkpt>
      <trkpt lat="50.97858" lon="1.95434">
        <ele>3.4</ele>
        <time>2020-06-22T21:47:19Z</time>
      </trkpt>
      <trkpt lat="50.97862" lon="1.95439">
        <ele>3.4</ele>
        <time>2020-06-22T21:47:20Z</time>
      </trkpt>
      <trkpt lat="50.97866" lon="1.95443">
        <ele>3.4</ele>
        <time>2020-06-22T21:47:21Z</time>
      </trkpt>
      <trkpt lat="50.9787" lon="1.95448">
        <ele>3.4</ele>
        <time>2020-06-22T21:47:22Z</time>
      </trkpt>
      <trkpt lat="50.97873" lon="1.95453">
        <ele>3.4</ele>
        <time>2020-06-22T21:47:23Z</time>
      </trkpt>
      <trkpt lat="50.97877" lon="1.95459">
        <ele>3.4</ele>
        <time>2020-06-22T21:47:24Z</time>
      </trkpt>
      <trkpt lat="50.9788" lon="1.95465">
        <ele>3.4</ele>
        <time>2020-06-22T21:47:25Z</time>
      </trkpt>
      <trkpt lat="50.97883" lon="1.95472">
        <ele>3.3</ele>
        <time>2020-06-22T21:47:26Z</time>
      </trkpt>
      <trkpt lat="50.97885" lon="1.95478">
        <ele>3.3</ele>
        <time>2020-06-22T21:47:27Z</time>
      </trkpt>
      <trkpt lat="50.97888" lon="1.95483">
        <ele>3.3</ele>
        <time>2020-06-22T21:47:28Z</time>
      </trkpt>
      <trkpt lat="50.97892" lon="1.95488">
        <ele>3.3</ele>
        <time>2020-06-22T21:47:29Z</time>
      </trkpt>
      <trkpt lat="50.97895" lon="1.95493">
        <ele>3.3</ele>
        <time>2020-06-22T21:47:30Z</time>
      </trkpt>
      <trkpt lat="50.97898" lon="1.95498">
        <ele>3.4</ele>
        <time>2020-06-22T21:47:31Z</time>
      </trkpt>
      <trkpt lat="50.97901" lon="1.95504">
        <ele>3.4</ele>
        <time>2020-06-22T21:47:32Z</time>
      </trkpt>
      <trkpt lat="50.97905" lon="1.95509">
        <ele>3.4</ele>
        <time>2020-06-22T21:47:33Z</time>
      </trkpt>
      <trkpt lat="50.97909" lon="1.95514">
        <ele>3.4</ele>
        <time>2020-06-22T21:47:34Z</time>
      </trkpt>
      <trkpt lat="50.97912" lon="1.9552">
        <ele>3.4</ele>
        <time>2020-06-22T21:47:35Z</time>
      </trkpt>
      <trkpt lat="50.97914" lon="1.95527">
        <ele>3.4</ele>
        <time>2020-06-22T21:47:36Z</time>
      </trkpt>
      <trkpt lat="50.97917" lon="1.95534">
        <ele>3.4</ele>
        <time>2020-06-22T21:47:37Z</time>
      </trkpt>
      <trkpt lat="50.9792" lon="1.9554">
        <ele>3.4</ele>
        <time>2020-06-22T21:47:38Z</time>
      </trkpt>
      <trkpt lat="50.97924" lon="1.95545">
        <ele>3.4</ele>
        <time>2020-06-22T21:47:39Z</time>
      </trkpt>
      <trkpt lat="50.97928" lon="1.95551">
        <ele>3.3</ele>
        <time>2020-06-22T21:47:40Z</time>
      </trkpt>
      <trkpt lat="50.97932" lon="1.95556">
        <ele>3.3</ele>
        <time>2020-06-22T21:47:41Z</time>
      </trkpt>
      <trkpt lat="50.97936" lon="1.95562">
        <ele>3.3</ele>
        <time>2020-06-22T21:47:42Z</time>
      </trkpt>
      <trkpt lat="50.9794" lon="1.95568">
        <ele>3.3</ele>
        <time>2020-06-22T21:47:43Z</time>
      </trkpt>
      <trkpt lat="50.97943" lon="1.95575">
        <ele>3.3</ele>
        <time>2020-06-22T21:47:44Z</time>
      </trkpt>
      <trkpt lat="50.97946" lon="1.95583">
        <ele>3.3</ele>
        <time>2020-06-22T21:47:45Z</time>
      </trkpt>
      <trkpt lat="50.97949" lon="1.95591">
        <ele>3.3</ele>
        <time>2020-06-22T21:47:46Z</time>
      </trkpt>
      <trkpt lat="50.97951" lon="1.95599">
        <ele>3.3</ele>
        <time>2020-06-22T21:47:47Z</time>
      </trkpt>
      <trkpt lat="50.97953" lon="1.95608">
        <ele>3.3</ele>
        <time>2020-06-22T21:47:48Z</time>
      </trkpt>
      <trkpt lat="50.97957" lon="1.95615">
        <ele>3.3</ele>
        <time>2020-06-22T21:47:49Z</time>
      </trkpt>
      <trkpt lat="50.97958" lon="1.95624">
        <ele>3.3</ele>
        <time>2020-06-22T21:47:50Z</time>
      </trkpt>
      <trkpt lat="50.9796" lon="1.95632">
        <ele>3.3</ele>
        <time>2020-06-22T21:47:51Z</time>
      </trkpt>
      <trkpt lat="50.97961" lon="1.95641">
        <ele>3.3</ele>
        <time>2020-06-22T21:47:52Z</time>
      </trkpt>
      <trkpt lat="50.97964" lon="1.95649">
        <ele>3.3</ele>
        <time>2020-06-22T21:47:53Z</time>
      </trkpt>
      <trkpt lat="50.97965" lon="1.95657">
        <ele>3.3</ele>
        <time>2020-06-22T21:47:54Z</time>
      </trkpt>
      <trkpt lat="50.97967" lon="1.95666">
        <ele>3.3</ele>
        <time>2020-06-22T21:47:55Z</time>
      </trkpt>
      <trkpt lat="50.97969" lon="1.95675">
        <ele>3.3</ele>
        <time>2020-06-22T21:47:56Z</time>
      </trkpt>
      <trkpt lat="50.97971" lon="1.95683">
        <ele>3.4</ele>
        <time>2020-06-22T21:47:57Z</time>
      </trkpt>
      <trkpt lat="50.97973" lon="1.95692">
        <ele>3.4</ele>
        <time>2020-06-22T21:47:58Z</time>
      </trkpt>
      <trkpt lat="50.97974" lon="1.95701">
        <ele>3.4</ele>
        <time>2020-06-22T21:47:59Z</time>
      </trkpt>
      <trkpt lat="50.97975" lon="1.9571">
        <ele>3.4</ele>
        <time>2020-06-22T21:48:00Z</time>
      </trkpt>
      <trkpt lat="50.97977" lon="1.95719">
        <ele>3.4</ele>
        <time>2020-06-22T21:48:01Z</time>
      </trkpt>
      <trkpt lat="50.97976" lon="1.95729">
        <ele>3.4</ele>
        <time>2020-06-22T21:48:02Z</time>
      </trkpt>
      <trkpt lat="50.97977" lon="1.95738">
        <ele>3.4</ele>
        <time>2020-06-22T21:48:03Z</time>
      </trkpt>
      <trkpt lat="50.97978" lon="1.95747">
        <ele>3.4</ele>
        <time>2020-06-22T21:48:04Z</time>
      </trkpt>
      <trkpt lat="50.9798" lon="1.95757">
        <ele>3.4</ele>
        <time>2020-06-22T21:48:05Z</time>
      </trkpt>
      <trkpt lat="50.97981" lon="1.95767">
        <ele>3.5</ele>
        <time>2020-06-22T21:48:06Z</time>
      </trkpt>
      <trkpt lat="50.97983" lon="1.95777">
        <ele>3.5</ele>
        <time>2020-06-22T21:48:07Z</time>
      </trkpt>
      <trkpt lat="50.97985" lon="1.95786">
        <ele>3.5</ele>
        <time>2020-06-22T21:48:08Z</time>
      </trkpt>
      <trkpt lat="50.97986" lon="1.95795">
        <ele>3.4</ele>
        <time>2020-06-22T21:48:09Z</time>
      </trkpt>
      <trkpt lat="50.97988" lon="1.95805">
        <ele>3.4</ele>
        <time>2020-06-22T21:48:10Z</time>
      </trkpt>
      <trkpt lat="50.97989" lon="1.95814">
        <ele>3.4</ele>
        <time>2020-06-22T21:48:11Z</time>
      </trkpt>
      <trkpt lat="50.97992" lon="1.95824">
        <ele>3.4</ele>
        <time>2020-06-22T21:48:12Z</time>
      </trkpt>
      <trkpt lat="50.97994" lon="1.95834">
        <ele>3.4</ele>
        <time>2020-06-22T21:48:13Z</time>
      </trkpt>
      <trkpt lat="50.97996" lon="1.95844">
        <ele>3.3</ele>
        <time>2020-06-22T21:48:14Z</time>
      </trkpt>
      <trkpt lat="50.97998" lon="1.95855">
        <ele>3.3</ele>
        <time>2020-06-22T21:48:15Z</time>
      </trkpt>
      <trkpt lat="50.97999" lon="1.95866">
        <ele>3.3</ele>
        <time>2020-06-22T21:48:16Z</time>
      </trkpt>
      <trkpt lat="50.98002" lon="1.95877">
        <ele>3.3</ele>
        <time>2020-06-22T21:48:17Z</time>
      </trkpt>
      <trkpt lat="50.98003" lon="1.95887">
        <ele>3.3</ele>
        <time>2020-06-22T21:48:18Z</time>
      </trkpt>
      <trkpt lat="50.98005" lon="1.95897">
        <ele>3.3</ele>
        <time>2020-06-22T21:48:19Z</time>
      </trkpt>
      <trkpt lat="50.98007" lon="1.95906">
        <ele>3.4</ele>
        <time>2020-06-22T21:48:20Z</time>
      </trkpt>
      <trkpt lat="50.98008" lon="1.95916">
        <ele>3.4</ele>
        <time>2020-06-22T21:48:21Z</time>
      </trkpt>
      <trkpt lat="50.9801" lon="1.95926">
        <ele>3.4</ele>
        <time>2020-06-22T21:48:22Z</time>
      </trkpt>
      <trkpt lat="50.98012" lon="1.95937">
        <ele>3.4</ele>
        <time>2020-06-22T21:48:23Z</time>
      </trkpt>
      <trkpt lat="50.98014" lon="1.95947">
        <ele>3.4</ele>
        <time>2020-06-22T21:48:24Z</time>
      </trkpt>
      <trkpt lat="50.98016" lon="1.95957">
        <ele>3.3</ele>
        <time>2020-06-22T21:48:25Z</time>
      </trkpt>
      <trkpt lat="50.98017" lon="1.95967">
        <ele>3.3</ele>
        <time>2020-06-22T21:48:26Z</time>
      </trkpt>
      <trkpt lat="50.98018" lon="1.95976">
        <ele>3.3</ele>
        <time>2020-06-22T21:48:27Z</time>
      </trkpt>
      <trkpt lat="50.98019" lon="1.95987">
        <ele>3.2</ele>
        <time>2020-06-22T21:48:28Z</time>
      </trkpt>
      <trkpt lat="50.98019" lon="1.95998">
        <ele>3.2</ele>
        <time>2020-06-22T21:48:29Z</time>
      </trkpt>
      <trkpt lat="50.98019" lon="1.96009">
        <ele>3.3</ele>
        <time>2020-06-22T21:48:30Z</time>
      </trkpt>
      <trkpt lat="50.98019" lon="1.96019">
        <ele>3.3</ele>
        <time>2020-06-22T21:48:31Z</time>
      </trkpt>
      <trkpt lat="50.98019" lon="1.96029">
        <ele>3.3</ele>
        <time>2020-06-22T21:48:32Z</time>
      </trkpt>
      <trkpt lat="50.98018" lon="1.96039">
        <ele>3.3</ele>
        <time>2020-06-22T21:48:33Z</time>
      </trkpt>
      <trkpt lat="50.98018" lon="1.9605">
        <ele>3.3</ele>
        <time>2020-06-22T21:48:34Z</time>
      </trkpt>
      <trkpt lat="50.98017" lon="1.96061">
        <ele>3.4</ele>
        <time>2020-06-22T21:48:35Z</time>
      </trkpt>
      <trkpt lat="50.98017" lon="1.96072">
        <ele>3.4</ele>
        <time>2020-06-22T21:48:36Z</time>
      </trkpt>
      <trkpt lat="50.98018" lon="1.96082">
        <ele>3.4</ele>
        <time>2020-06-22T21:48:37Z</time>
      </trkpt>
      <trkpt lat="50.98017" lon="1.96093">
        <ele>3.4</ele>
        <time>2020-06-22T21:48:38Z</time>
      </trkpt>
      <trkpt lat="50.98018" lon="1.96103">
        <ele>3.4</ele>
        <time>2020-06-22T21:48:39Z</time>
      </trkpt>
      <trkpt lat="50.98019" lon="1.96113">
        <ele>3.4</ele>
        <time>2020-06-22T21:48:40Z</time>
      </trkpt>
      <trkpt lat="50.98019" lon="1.96123">
        <ele>3.4</ele>
        <time>2020-06-22T21:48:41Z</time>
      </trkpt>
      <trkpt lat="50.98019" lon="1.96134">
        <ele>3.4</ele>
        <time>2020-06-22T21:48:42Z</time>
      </trkpt>
      <trkpt lat="50.9802" lon="1.96144">
        <ele>3.4</ele>
        <time>2020-06-22T21:48:43Z</time>
      </trkpt>
      <trkpt lat="50.9802" lon="1.96155">
        <ele>3.4</ele>
        <time>2020-06-22T21:48:44Z</time>
      </trkpt>
      <trkpt lat="50.98021" lon="1.96165">
        <ele>3.4</ele>
        <time>2020-06-22T21:48:45Z</time>
      </trkpt>
      <trkpt lat="50.98023" lon="1.96175">
        <ele>3.4</ele>
        <time>2020-06-22T21:48:46Z</time>
      </trkpt>
      <trkpt lat="50.98025" lon="1.96184">
        <ele>3.4</ele>
        <time>2020-06-22T21:48:47Z</time>
      </trkpt>
      <trkpt lat="50.98026" lon="1.96194">
        <ele>3.4</ele>
        <time>2020-06-22T21:48:48Z</time>
      </trkpt>
      <trkpt lat="50.98028" lon="1.96204">
        <ele>3.5</ele>
        <time>2020-06-22T21:48:49Z</time>
      </trkpt>
      <trkpt lat="50.9803" lon="1.96214">
        <ele>3.5</ele>
        <time>2020-06-22T21:48:50Z</time>
      </trkpt>
      <trkpt lat="50.98031" lon="1.96224">
        <ele>3.5</ele>
        <time>2020-06-22T21:48:51Z</time>
      </trkpt>
      <trkpt lat="50.98033" lon="1.96233">
        <ele>3.5</ele>
        <time>2020-06-22T21:48:52Z</time>
      </trkpt>
      <trkpt lat="50.98036" lon="1.96243">
        <ele>3.5</ele>
        <time>2020-06-22T21:48:53Z</time>
      </trkpt>
      <trkpt lat="50.98039" lon="1.96252">
        <ele>3.5</ele>
        <time>2020-06-22T21:48:54Z</time>
      </trkpt>
      <trkpt lat="50.98041" lon="1.96261">
        <ele>3.5</ele>
        <time>2020-06-22T21:48:55Z</time>
      </trkpt>
      <trkpt lat="50.98044" lon="1.96271">
        <ele>3.6</ele>
        <time>2020-06-22T21:48:56Z</time>
      </trkpt>
      <trkpt lat="50.98046" lon="1.9628">
        <ele>3.5</ele>
        <time>2020-06-22T21:48:57Z</time>
      </trkpt>
      <trkpt lat="50.98048" lon="1.9629">
        <ele>3.5</ele>
        <time>2020-06-22T21:48:58Z</time>
      </trkpt>
      <trkpt lat="50.9805" lon="1.96299">
        <ele>3.6</ele>
        <time>2020-06-22T21:48:59Z</time>
      </trkpt>
      <trkpt lat="50.98053" lon="1.96309">
        <ele>3.6</ele>
        <time>2020-06-22T21:49:00Z</time>
      </trkpt>
      <trkpt lat="50.98055" lon="1.96318">
        <ele>3.6</ele>
        <time>2020-06-22T21:49:01Z</time>
      </trkpt>
      <trkpt lat="50.98058" lon="1.96326">
        <ele>3.6</ele>
        <time>2020-06-22T21:49:02Z</time>
      </trkpt>
      <trkpt lat="50.98061" lon="1.96335">
        <ele>3.6</ele>
        <time>2020-06-22T21:49:03Z</time>
      </trkpt>
      <trkpt lat="50.98063" lon="1.96344">
        <ele>3.6</ele>
        <time>2020-06-22T21:49:04Z</time>
      </trkpt>
      <trkpt lat="50.98065" lon="1.96352">
        <ele>3.6</ele>
        <time>2020-06-22T21:49:05Z</time>
      </trkpt>
      <trkpt lat="50.98067" lon="1.9636">
        <ele>3.6</ele>
        <time>2020-06-22T21:49:06Z</time>
      </trkpt>
      <trkpt lat="50.98069" lon="1.96368">
        <ele>3.6</ele>
        <time>2020-06-22T21:49:07Z</time>
      </trkpt>
      <trkpt lat="50.9807" lon="1.96376">
        <ele>3.6</ele>
        <time>2020-06-22T21:49:08Z</time>
      </trkpt>
      <trkpt lat="50.98071" lon="1.96384">
        <ele>3.6</ele>
        <time>2020-06-22T21:49:09Z</time>
      </trkpt>
      <trkpt lat="50.98073" lon="1.96392">
        <ele>3.5</ele>
        <time>2020-06-22T21:49:10Z</time>
      </trkpt>
      <trkpt lat="50.98074" lon="1.964">
        <ele>3.5</ele>
        <time>2020-06-22T21:49:11Z</time>
      </trkpt>
      <trkpt lat="50.98075" lon="1.96409">
        <ele>3.5</ele>
        <time>2020-06-22T21:49:12Z</time>
      </trkpt>
      <trkpt lat="50.98078" lon="1.96418">
        <ele>3.5</ele>
        <time>2020-06-22T21:49:13Z</time>
      </trkpt>
      <trkpt lat="50.9808" lon="1.96427">
        <ele>3.5</ele>
        <time>2020-06-22T21:49:14Z</time>
      </trkpt>
      <trkpt lat="50.98083" lon="1.96435">
        <ele>3.5</ele>
        <time>2020-06-22T21:49:15Z</time>
      </trkpt>
      <trkpt lat="50.98086" lon="1.96444">
        <ele>3.5</ele>
        <time>2020-06-22T21:49:16Z</time>
      </trkpt>
      <trkpt lat="50.98089" lon="1.96452">
        <ele>3.5</ele>
        <time>2020-06-22T21:49:17Z</time>
      </trkpt>
      <trkpt lat="50.98093" lon="1.9646">
        <ele>3.5</ele>
        <time>2020-06-22T21:49:18Z</time>
      </trkpt>
      <trkpt lat="50.98097" lon="1.96467">
        <ele>3.4</ele>
        <time>2020-06-22T21:49:19Z</time>
      </trkpt>
      <trkpt lat="50.98102" lon="1.96474">
        <ele>3.4</ele>
        <time>2020-06-22T21:49:20Z</time>
      </trkpt>
      <trkpt lat="50.98106" lon="1.96481">
        <ele>3.4</ele>
        <time>2020-06-22T21:49:21Z</time>
      </trkpt>
      <trkpt lat="50.9811" lon="1.96488">
        <ele>3.4</ele>
        <time>2020-06-22T21:49:22Z</time>
      </trkpt>
      <trkpt lat="50.98113" lon="1.96496">
        <ele>3.4</ele>
        <time>2020-06-22T21:49:23Z</time>
      </trkpt>
      <trkpt lat="50.98118" lon="1.96503">
        <ele>3.4</ele>
        <time>2020-06-22T21:49:24Z</time>
      </trkpt>
      <trkpt lat="50.98123" lon="1.9651">
        <ele>3.4</ele>
        <time>2020-06-22T21:49:25Z</time>
      </trkpt>
      <trkpt lat="50.98128" lon="1.96517">
        <ele>3.4</ele>
        <time>2020-06-22T21:49:26Z</time>
      </trkpt>
      <trkpt lat="50.98133" lon="1.96524">
        <ele>3.4</ele>
        <time>2020-06-22T21:49:27Z</time>
      </trkpt>
      <trkpt lat="50.98137" lon="1.96532">
        <ele>3.3</ele>
        <time>2020-06-22T21:49:28Z</time>
      </trkpt>
      <trkpt lat="50.98142" lon="1.96541">
        <ele>3.3</ele>
        <time>2020-06-22T21:49:29Z</time>
      </trkpt>
      <trkpt lat="50.98147" lon="1.96551">
        <ele>3.3</ele>
        <time>2020-06-22T21:49:30Z</time>
      </trkpt>
      <trkpt lat="50.9815" lon="1.96559">
        <ele>3.3</ele>
        <time>2020-06-22T21:49:31Z</time>
      </trkpt>
      <trkpt lat="50.98154" lon="1.96565">
        <ele>3.3</ele>
        <time>2020-06-22T21:49:32Z</time>
      </trkpt>
      <trkpt lat="50.98158" lon="1.96574">
        <ele>3.3</ele>
        <time>2020-06-22T21:49:33Z</time>
      </trkpt>
      <trkpt lat="50.98162" lon="1.96582">
        <ele>3.3</ele>
        <time>2020-06-22T21:49:34Z</time>
      </trkpt>
      <trkpt lat="50.98166" lon="1.96589">
        <ele>3.3</ele>
        <time>2020-06-22T21:49:35Z</time>
      </trkpt>
      <trkpt lat="50.9817" lon="1.96596">
        <ele>3.2</ele>
        <time>2020-06-22T21:49:36Z</time>
      </trkpt>
      <trkpt lat="50.98173" lon="1.96604">
        <ele>3.2</ele>
        <time>2020-06-22T21:49:37Z</time>
      </trkpt>
      <trkpt lat="50.98177" lon="1.96612">
        <ele>3.2</ele>
        <time>2020-06-22T21:49:38Z</time>
      </trkpt>
      <trkpt lat="50.98181" lon="1.96619">
        <ele>3.2</ele>
        <time>2020-06-22T21:49:39Z</time>
      </trkpt>
      <trkpt lat="50.98185" lon="1.96626">
        <ele>3.2</ele>
        <time>2020-06-22T21:49:40Z</time>
      </trkpt>
      <trkpt lat="50.98189" lon="1.96635">
        <ele>3.2</ele>
        <time>2020-06-22T21:49:41Z</time>
      </trkpt>
      <trkpt lat="50.98193" lon="1.96643">
        <ele>3.2</ele>
        <time>2020-06-22T21:49:42Z</time>
      </trkpt>
      <trkpt lat="50.98198" lon="1.96651">
        <ele>3.2</ele>
        <time>2020-06-22T21:49:43Z</time>
      </trkpt>
      <trkpt lat="50.98201" lon="1.96658">
        <ele>3.2</ele>
        <time>2020-06-22T21:49:44Z</time>
      </trkpt>
      <trkpt lat="50.98205" lon="1.96666">
        <ele>3.3</ele>
        <time>2020-06-22T21:49:45Z</time>
      </trkpt>
      <trkpt lat="50.98209" lon="1.96673">
        <ele>3.3</ele>
        <time>2020-06-22T21:49:46Z</time>
      </trkpt>
      <trkpt lat="50.98213" lon="1.96681">
        <ele>3.3</ele>
        <time>2020-06-22T21:49:47Z</time>
      </trkpt>
      <trkpt lat="50.98217" lon="1.96689">
        <ele>3.4</ele>
        <time>2020-06-22T21:49:48Z</time>
      </trkpt>
      <trkpt lat="50.98222" lon="1.96698">
        <ele>3.4</ele>
        <time>2020-06-22T21:49:49Z</time>
      </trkpt>
      <trkpt lat="50.98226" lon="1.96706">
        <ele>3.4</ele>
        <time>2020-06-22T21:49:50Z</time>
      </trkpt>
      <trkpt lat="50.98231" lon="1.96714">
        <ele>3.3</ele>
        <time>2020-06-22T21:49:51Z</time>
      </trkpt>
      <trkpt lat="50.98235" lon="1.96722">
        <ele>3.3</ele>
        <time>2020-06-22T21:49:52Z</time>
      </trkpt>
      <trkpt lat="50.98239" lon="1.9673">
        <ele>3.3</ele>
        <time>2020-06-22T21:49:53Z</time>
      </trkpt>
      <trkpt lat="50.98243" lon="1.96737">
        <ele>3.3</ele>
        <time>2020-06-22T21:49:54Z</time>
      </trkpt>
      <trkpt lat="50.98247" lon="1.96742">
        <ele>3.3</ele>
        <time>2020-06-22T21:49:55Z</time>
      </trkpt>
      <trkpt lat="50.98251" lon="1.96748">
        <ele>3.3</ele>
        <time>2020-06-22T21:49:56Z</time>
      </trkpt>
      <trkpt lat="50.98254" lon="1.96755">
        <ele>3.3</ele>
        <time>2020-06-22T21:49:57Z</time>
      </trkpt>
      <trkpt lat="50.98259" lon="1.96763">
        <ele>3.3</ele>
        <time>2020-06-22T21:49:58Z</time>
      </trkpt>
      <trkpt lat="50.9826" lon="1.96769">
        <ele>3.3</ele>
        <time>2020-06-22T21:49:59Z</time>
      </trkpt>
      <trkpt lat="50.98265" lon="1.96777">
        <ele>3.3</ele>
        <time>2020-06-22T21:50:00Z</time>
      </trkpt>
      <trkpt lat="50.98269" lon="1.96783">
        <ele>3.3</ele>
        <time>2020-06-22T21:50:01Z</time>
      </trkpt>
      <trkpt lat="50.98273" lon="1.96791">
        <ele>3.3</ele>
        <time>2020-06-22T21:50:02Z</time>
      </trkpt>
      <trkpt lat="50.98276" lon="1.96799">
        <ele>3.3</ele>
        <time>2020-06-22T21:50:03Z</time>
      </trkpt>
      <trkpt lat="50.98279" lon="1.96807">
        <ele>3.3</ele>
        <time>2020-06-22T21:50:04Z</time>
      </trkpt>
      <trkpt lat="50.98282" lon="1.96815">
        <ele>3.4</ele>
        <time>2020-06-22T21:50:05Z</time>
      </trkpt>
      <trkpt lat="50.98284" lon="1.96823">
        <ele>3.4</ele>
        <time>2020-06-22T21:50:06Z</time>
      </trkpt>
      <trkpt lat="50.98286" lon="1.96829">
        <ele>3.4</ele>
        <time>2020-06-22T21:50:07Z</time>
      </trkpt>
      <trkpt lat="50.98289" lon="1.96837">
        <ele>3.4</ele>
        <time>2020-06-22T21:50:08Z</time>
      </trkpt>
      <trkpt lat="50.9829" lon="1.96843">
        <ele>3.4</ele>
        <time>2020-06-22T21:50:09Z</time>
      </trkpt>
      <trkpt lat="50.98292" lon="1.96848">
        <ele>3.4</ele>
        <time>2020-06-22T21:50:10Z</time>
      </trkpt>
      <trkpt lat="50.98294" lon="1.96853">
        <ele>3.4</ele>
        <time>2020-06-22T21:50:11Z</time>
      </trkpt>
      <trkpt lat="50.98296" lon="1.96858">
        <ele>3.4</ele>
        <time>2020-06-22T21:50:12Z</time>
      </trkpt>
      <trkpt lat="50.98298" lon="1.96862">
        <ele>3.4</ele>
        <time>2020-06-22T21:50:13Z</time>
      </trkpt>
      <trkpt lat="50.983" lon="1.96867">
        <ele>3.4</ele>
        <time>2020-06-22T21:50:14Z</time>
      </trkpt>
      <trkpt lat="50.98302" lon="1.96872">
        <ele>3.4</ele>
        <time>2020-06-22T21:50:15Z</time>
      </trkpt>
      <trkpt lat="50.98305" lon="1.96879">
        <ele>3.5</ele>
        <time>2020-06-22T21:50:16Z</time>
      </trkpt>
      <trkpt lat="50.98307" lon="1.96885">
        <ele>3.5</ele>
        <time>2020-06-22T21:50:17Z</time>
      </trkpt>
      <trkpt lat="50.9831" lon="1.9689">
        <ele>3.5</ele>
        <time>2020-06-22T21:50:18Z</time>
      </trkpt>
      <trkpt lat="50.98312" lon="1.96896">
        <ele>3.5</ele>
        <time>2020-06-22T21:50:19Z</time>
      </trkpt>
      <trkpt lat="50.98316" lon="1.96902">
        <ele>3.5</ele>
        <time>2020-06-22T21:50:20Z</time>
      </trkpt>
      <trkpt lat="50.98319" lon="1.96907">
        <ele>3.5</ele>
        <time>2020-06-22T21:50:21Z</time>
      </trkpt>
      <trkpt lat="50.98322" lon="1.9691">
        <ele>3.5</ele>
        <time>2020-06-22T21:50:22Z</time>
      </trkpt>
      <trkpt lat="50.98325" lon="1.96917">
        <ele>3.5</ele>
        <time>2020-06-22T21:50:23Z</time>
      </trkpt>
      <trkpt lat="50.98329" lon="1.96922">
        <ele>3.6</ele>
        <time>2020-06-22T21:50:24Z</time>
      </trkpt>
      <trkpt lat="50.98333" lon="1.96929">
        <ele>3.6</ele>
        <time>2020-06-22T21:50:25Z</time>
      </trkpt>
      <trkpt lat="50.98336" lon="1.96935">
        <ele>3.6</ele>
        <time>2020-06-22T21:50:26Z</time>
      </trkpt>
      <trkpt lat="50.98339" lon="1.96941">
        <ele>3.6</ele>
        <time>2020-06-22T21:50:27Z</time>
      </trkpt>
      <trkpt lat="50.98343" lon="1.96949">
        <ele>3.6</ele>
        <time>2020-06-22T21:50:28Z</time>
      </trkpt>
      <trkpt lat="50.98346" lon="1.96955">
        <ele>3.6</ele>
        <time>2020-06-22T21:50:29Z</time>
      </trkpt>
      <trkpt lat="50.98348" lon="1.96959">
        <ele>3.6</ele>
        <time>2020-06-22T21:50:30Z</time>
      </trkpt>
      <trkpt lat="50.98351" lon="1.96966">
        <ele>3.6</ele>
        <time>2020-06-22T21:50:31Z</time>
      </trkpt>
      <trkpt lat="50.98355" lon="1.96973">
        <ele>3.6</ele>
        <time>2020-06-22T21:50:32Z</time>
      </trkpt>
      <trkpt lat="50.98358" lon="1.9698">
        <ele>3.6</ele>
        <time>2020-06-22T21:50:33Z</time>
      </trkpt>
      <trkpt lat="50.98361" lon="1.96988">
        <ele>3.6</ele>
        <time>2020-06-22T21:50:34Z</time>
      </trkpt>
      <trkpt lat="50.98364" lon="1.96994">
        <ele>3.6</ele>
        <time>2020-06-22T21:50:35Z</time>
      </trkpt>
      <trkpt lat="50.98366" lon="1.97001">
        <ele>3.6</ele>
        <time>2020-06-22T21:50:36Z</time>
      </trkpt>
      <trkpt lat="50.98369" lon="1.9701">
        <ele>3.6</ele>
        <time>2020-06-22T21:50:37Z</time>
      </trkpt>
      <trkpt lat="50.98372" lon="1.97017">
        <ele>3.6</ele>
        <time>2020-06-22T21:50:38Z</time>
      </trkpt>
      <trkpt lat="50.98375" lon="1.97025">
        <ele>3.6</ele>
        <time>2020-06-22T21:50:39Z</time>
      </trkpt>
      <trkpt lat="50.98376" lon="1.97032">
        <ele>3.6</ele>
        <time>2020-06-22T21:50:40Z</time>
      </trkpt>
      <trkpt lat="50.98378" lon="1.97041">
        <ele>3.6</ele>
        <time>2020-06-22T21:50:41Z</time>
      </trkpt>
      <trkpt lat="50.98381" lon="1.97049">
        <ele>3.6</ele>
        <time>2020-06-22T21:50:42Z</time>
      </trkpt>
      <trkpt lat="50.98383" lon="1.97058">
        <ele>3.6</ele>
        <time>2020-06-22T21:50:43Z</time>
      </trkpt>
      <trkpt lat="50.98386" lon="1.97066">
        <ele>3.6</ele>
        <time>2020-06-22T21:50:44Z</time>
      </trkpt>
      <trkpt lat="50.98388" lon="1.97073">
        <ele>3.5</ele>
        <time>2020-06-22T21:50:45Z</time>
      </trkpt>
      <trkpt lat="50.98391" lon="1.97081">
        <ele>3.5</ele>
        <time>2020-06-22T21:50:46Z</time>
      </trkpt>
      <trkpt lat="50.98394" lon="1.9709">
        <ele>3.5</ele>
        <time>2020-06-22T21:50:47Z</time>
      </trkpt>
      <trkpt lat="50.98396" lon="1.97096">
        <ele>3.5</ele>
        <time>2020-06-22T21:50:48Z</time>
      </trkpt>
      <trkpt lat="50.98399" lon="1.97106">
        <ele>3.5</ele>
        <time>2020-06-22T21:50:49Z</time>
      </trkpt>
      <trkpt lat="50.98402" lon="1.97116">
        <ele>3.5</ele>
        <time>2020-06-22T21:50:50Z</time>
      </trkpt>
      <trkpt lat="50.98405" lon="1.97123">
        <ele>3.5</ele>
        <time>2020-06-22T21:50:51Z</time>
      </trkpt>
      <trkpt lat="50.98407" lon="1.97128">
        <ele>3.5</ele>
        <time>2020-06-22T21:50:52Z</time>
      </trkpt>
      <trkpt lat="50.9841" lon="1.97137">
        <ele>3.5</ele>
        <time>2020-06-22T21:50:53Z</time>
      </trkpt>
      <trkpt lat="50.98412" lon="1.97145">
        <ele>3.5</ele>
        <time>2020-06-22T21:50:54Z</time>
      </trkpt>
      <trkpt lat="50.98415" lon="1.97151">
        <ele>3.5</ele>
        <time>2020-06-22T21:50:55Z</time>
      </trkpt>
      <trkpt lat="50.98418" lon="1.97161">
        <ele>3.5</ele>
        <time>2020-06-22T21:50:56Z</time>
      </trkpt>
      <trkpt lat="50.98421" lon="1.97167">
        <ele>3.5</ele>
        <time>2020-06-22T21:50:57Z</time>
      </trkpt>
      <trkpt lat="50.98424" lon="1.97174">
        <ele>3.5</ele>
        <time>2020-06-22T21:50:58Z</time>
      </trkpt>
      <trkpt lat="50.98427" lon="1.97182">
        <ele>3.4</ele>
        <time>2020-06-22T21:50:59Z</time>
      </trkpt>
      <trkpt lat="50.9843" lon="1.97188">
        <ele>3.4</ele>
        <time>2020-06-22T21:51:00Z</time>
      </trkpt>
      <trkpt lat="50.98433" lon="1.97194">
        <ele>3.4</ele>
        <time>2020-06-22T21:51:01Z</time>
      </trkpt>
      <trkpt lat="50.98436" lon="1.97202">
        <ele>3.4</ele>
        <time>2020-06-22T21:51:02Z</time>
      </trkpt>
      <trkpt lat="50.98439" lon="1.97209">
        <ele>3.4</ele>
        <time>2020-06-22T21:51:03Z</time>
      </trkpt>
      <trkpt lat="50.98442" lon="1.97214">
        <ele>3.4</ele>
        <time>2020-06-22T21:51:04Z</time>
      </trkpt>
      <trkpt lat="50.98445" lon="1.9722">
        <ele>3.4</ele>
        <time>2020-06-22T21:51:05Z</time>
      </trkpt>
      <trkpt lat="50.98448" lon="1.97228">
        <ele>3.4</ele>
        <time>2020-06-22T21:51:06Z</time>
      </trkpt>
      <trkpt lat="50.98451" lon="1.97233">
        <ele>3.4</ele>
        <time>2020-06-22T21:51:07Z</time>
      </trkpt>
      <trkpt lat="50.98454" lon="1.97237">
        <ele>3.4</ele>
        <time>2020-06-22T21:51:08Z</time>
      </trkpt>
      <trkpt lat="50.98456" lon="1.97242">
        <ele>3.4</ele>
        <time>2020-06-22T21:51:09Z</time>
      </trkpt>
      <trkpt lat="50.9846" lon="1.97248">
        <ele>3.3</ele>
        <time>2020-06-22T21:51:10Z</time>
      </trkpt>
      <trkpt lat="50.98464" lon="1.97254">
        <ele>3.3</ele>
        <time>2020-06-22T21:51:11Z</time>
      </trkpt>
      <trkpt lat="50.98467" lon="1.97258">
        <ele>3.3</ele>
        <time>2020-06-22T21:51:12Z</time>
      </trkpt>
      <trkpt lat="50.98471" lon="1.97264">
        <ele>3.3</ele>
        <time>2020-06-22T21:51:13Z</time>
      </trkpt>
      <trkpt lat="50.98475" lon="1.97271">
        <ele>3.3</ele>
        <time>2020-06-22T21:51:14Z</time>
      </trkpt>
      <trkpt lat="50.98479" lon="1.97277">
        <ele>3.3</ele>
        <time>2020-06-22T21:51:15Z</time>
      </trkpt>
      <trkpt lat="50.98483" lon="1.97282">
        <ele>3.4</ele>
        <time>2020-06-22T21:51:16Z</time>
      </trkpt>
      <trkpt lat="50.98487" lon="1.97287">
        <ele>3.4</ele>
        <time>2020-06-22T21:51:17Z</time>
      </trkpt>
      <trkpt lat="50.98491" lon="1.97292">
        <ele>3.4</ele>
        <time>2020-06-22T21:51:18Z</time>
      </trkpt>
      <trkpt lat="50.98494" lon="1.97297">
        <ele>3.4</ele>
        <time>2020-06-22T21:51:19Z</time>
      </trkpt>
      <trkpt lat="50.98498" lon="1.97303">
        <ele>3.4</ele>
        <time>2020-06-22T21:51:20Z</time>
      </trkpt>
      <trkpt lat="50.98501" lon="1.97309">
        <ele>3.4</ele>
        <time>2020-06-22T21:51:21Z</time>
      </trkpt>
      <trkpt lat="50.98504" lon="1.97316">
        <ele>3.4</ele>
        <time>2020-06-22T21:51:22Z</time>
      </trkpt>
      <trkpt lat="50.98508" lon="1.97324">
        <ele>3.4</ele>
        <time>2020-06-22T21:51:23Z</time>
      </trkpt>
      <trkpt lat="50.9851" lon="1.97332">
        <ele>3.3</ele>
        <time>2020-06-22T21:51:24Z</time>
      </trkpt>
      <trkpt lat="50.98513" lon="1.97341">
        <ele>3.3</ele>
        <time>2020-06-22T21:51:25Z</time>
      </trkpt>
      <trkpt lat="50.98515" lon="1.97351">
        <ele>3.3</ele>
        <time>2020-06-22T21:51:26Z</time>
      </trkpt>
      <trkpt lat="50.98517" lon="1.97359">
        <ele>3.3</ele>
        <time>2020-06-22T21:51:27Z</time>
      </trkpt>
      <trkpt lat="50.98519" lon="1.97368">
        <ele>3.3</ele>
        <time>2020-06-22T21:51:28Z</time>
      </trkpt>
      <trkpt lat="50.98522" lon="1.97374">
        <ele>3.3</ele>
        <time>2020-06-22T21:51:29Z</time>
      </trkpt>
      <trkpt lat="50.98524" lon="1.9738">
        <ele>3.4</ele>
        <time>2020-06-22T21:51:30Z</time>
      </trkpt>
      <trkpt lat="50.98527" lon="1.97388">
        <ele>3.4</ele>
        <time>2020-06-22T21:51:31Z</time>
      </trkpt>
      <trkpt lat="50.9853" lon="1.97395">
        <ele>3.4</ele>
        <time>2020-06-22T21:51:32Z</time>
      </trkpt>
      <trkpt lat="50.98533" lon="1.97403">
        <ele>3.4</ele>
        <time>2020-06-22T21:51:33Z</time>
      </trkpt>
      <trkpt lat="50.98536" lon="1.97411">
        <ele>3.4</ele>
        <time>2020-06-22T21:51:34Z</time>
      </trkpt>
      <trkpt lat="50.98538" lon="1.9742">
        <ele>3.4</ele>
        <time>2020-06-22T21:51:35Z</time>
      </trkpt>
      <trkpt lat="50.9854" lon="1.97428">
        <ele>3.4</ele>
        <time>2020-06-22T21:51:36Z</time>
      </trkpt>
      <trkpt lat="50.98542" lon="1.97435">
        <ele>3.4</ele>
        <time>2020-06-22T21:51:37Z</time>
      </trkpt>
      <trkpt lat="50.98545" lon="1.97443">
        <ele>3.4</ele>
        <time>2020-06-22T21:51:38Z</time>
      </trkpt>
      <trkpt lat="50.98547" lon="1.97454">
        <ele>3.4</ele>
        <time>2020-06-22T21:51:39Z</time>
      </trkpt>
      <trkpt lat="50.9855" lon="1.97462">
        <ele>3.5</ele>
        <time>2020-06-22T21:51:40Z</time>
      </trkpt>
      <trkpt lat="50.98552" lon="1.97468">
        <ele>3.5</ele>
        <time>2020-06-22T21:51:41Z</time>
      </trkpt>
      <trkpt lat="50.98554" lon="1.97477">
        <ele>3.5</ele>
        <time>2020-06-22T21:51:42Z</time>
      </trkpt>
      <trkpt lat="50.98557" lon="1.97485">
        <ele>3.5</ele>
        <time>2020-06-22T21:51:43Z</time>
      </trkpt>
      <trkpt lat="50.98558" lon="1.97492">
        <ele>3.5</ele>
        <time>2020-06-22T21:51:44Z</time>
      </trkpt>
      <trkpt lat="50.98561" lon="1.97501">
        <ele>3.5</ele>
        <time>2020-06-22T21:51:45Z</time>
      </trkpt>
      <trkpt lat="50.98563" lon="1.9751">
        <ele>3.5</ele>
        <time>2020-06-22T21:51:46Z</time>
      </trkpt>
      <trkpt lat="50.98567" lon="1.97518">
        <ele>3.4</ele>
        <time>2020-06-22T21:51:47Z</time>
      </trkpt>
      <trkpt lat="50.98569" lon="1.97526">
        <ele>3.4</ele>
        <time>2020-06-22T21:51:48Z</time>
      </trkpt>
      <trkpt lat="50.98572" lon="1.97534">
        <ele>3.4</ele>
        <time>2020-06-22T21:51:49Z</time>
      </trkpt>
      <trkpt lat="50.98575" lon="1.97545">
        <ele>3.4</ele>
        <time>2020-06-22T21:51:50Z</time>
      </trkpt>
      <trkpt lat="50.98577" lon="1.97553">
        <ele>3.4</ele>
        <time>2020-06-22T21:51:51Z</time>
      </trkpt>
      <trkpt lat="50.9858" lon="1.97561">
        <ele>3.4</ele>
        <time>2020-06-22T21:51:52Z</time>
      </trkpt>
      <trkpt lat="50.98582" lon="1.97571">
        <ele>3.4</ele>
        <time>2020-06-22T21:51:53Z</time>
      </trkpt>
      <trkpt lat="50.98584" lon="1.9758">
        <ele>3.4</ele>
        <time>2020-06-22T21:51:54Z</time>
      </trkpt>
      <trkpt lat="50.98587" lon="1.97587">
        <ele>3.4</ele>
        <time>2020-06-22T21:51:55Z</time>
      </trkpt>
      <trkpt lat="50.98589" lon="1.97595">
        <ele>3.4</ele>
        <time>2020-06-22T21:51:56Z</time>
      </trkpt>
      <trkpt lat="50.9859" lon="1.97604">
        <ele>3.4</ele>
        <time>2020-06-22T21:51:57Z</time>
      </trkpt>
      <trkpt lat="50.98592" lon="1.97613">
        <ele>3.4</ele>
        <time>2020-06-22T21:51:58Z</time>
      </trkpt>
      <trkpt lat="50.98594" lon="1.9762">
        <ele>3.4</ele>
        <time>2020-06-22T21:51:59Z</time>
      </trkpt>
      <trkpt lat="50.98595" lon="1.97632">
        <ele>3.4</ele>
        <time>2020-06-22T21:52:00Z</time>
      </trkpt>
      <trkpt lat="50.98598" lon="1.97641">
        <ele>3.4</ele>
        <time>2020-06-22T21:52:01Z</time>
      </trkpt>
      <trkpt lat="50.98599" lon="1.97648">
        <ele>3.4</ele>
        <time>2020-06-22T21:52:02Z</time>
      </trkpt>
      <trkpt lat="50.98601" lon="1.97656">
        <ele>3.4</ele>
        <time>2020-06-22T21:52:03Z</time>
      </trkpt>
      <trkpt lat="50.98603" lon="1.97663">
        <ele>3.5</ele>
        <time>2020-06-22T21:52:04Z</time>
      </trkpt>
      <trkpt lat="50.98604" lon="1.97671">
        <ele>3.5</ele>
        <time>2020-06-22T21:52:05Z</time>
      </trkpt>
      <trkpt lat="50.98605" lon="1.97678">
        <ele>3.5</ele>
        <time>2020-06-22T21:52:06Z</time>
      </trkpt>
      <trkpt lat="50.98606" lon="1.97685">
        <ele>3.5</ele>
        <time>2020-06-22T21:52:07Z</time>
      </trkpt>
      <trkpt lat="50.98607" lon="1.9769">
        <ele>3.5</ele>
        <time>2020-06-22T21:52:08Z</time>
      </trkpt>
      <trkpt lat="50.98608" lon="1.97696">
        <ele>3.5</ele>
        <time>2020-06-22T21:52:09Z</time>
      </trkpt>
      <trkpt lat="50.9861" lon="1.97701">
        <ele>3.5</ele>
        <time>2020-06-22T21:52:10Z</time>
      </trkpt>
      <trkpt lat="50.9861" lon="1.97707">
        <ele>3.5</ele>
        <time>2020-06-22T21:52:11Z</time>
      </trkpt>
      <trkpt lat="50.98611" lon="1.97712">
        <ele>3.5</ele>
        <time>2020-06-22T21:52:12Z</time>
      </trkpt>
      <trkpt lat="50.98612" lon="1.97718">
        <ele>3.5</ele>
        <time>2020-06-22T21:52:13Z</time>
      </trkpt>
      <trkpt lat="50.98613" lon="1.97723">
        <ele>3.5</ele>
        <time>2020-06-22T21:52:14Z</time>
      </trkpt>
      <trkpt lat="50.98614" lon="1.97729">
        <ele>3.5</ele>
        <time>2020-06-22T21:52:15Z</time>
      </trkpt>
      <trkpt lat="50.98615" lon="1.97734">
        <ele>3.5</ele>
        <time>2020-06-22T21:52:16Z</time>
      </trkpt>
      <trkpt lat="50.98615" lon="1.97739">
        <ele>3.5</ele>
        <time>2020-06-22T21:52:17Z</time>
      </trkpt>
      <trkpt lat="50.98616" lon="1.97744">
        <ele>3.4</ele>
        <time>2020-06-22T21:52:18Z</time>
      </trkpt>
      <trkpt lat="50.98617" lon="1.97751">
        <ele>3.4</ele>
        <time>2020-06-22T21:52:19Z</time>
      </trkpt>
      <trkpt lat="50.98619" lon="1.97757">
        <ele>3.4</ele>
        <time>2020-06-22T21:52:20Z</time>
      </trkpt>
      <trkpt lat="50.98621" lon="1.97763">
        <ele>3.4</ele>
        <time>2020-06-22T21:52:21Z</time>
      </trkpt>
      <trkpt lat="50.98623" lon="1.97769">
        <ele>3.3</ele>
        <time>2020-06-22T21:52:22Z</time>
      </trkpt>
      <trkpt lat="50.98624" lon="1.97774">
        <ele>3.3</ele>
        <time>2020-06-22T21:52:23Z</time>
      </trkpt>
      <trkpt lat="50.98627" lon="1.97779">
        <ele>3.3</ele>
        <time>2020-06-22T21:52:24Z</time>
      </trkpt>
      <trkpt lat="50.98628" lon="1.97785">
        <ele>3.3</ele>
        <time>2020-06-22T21:52:25Z</time>
      </trkpt>
      <trkpt lat="50.9863" lon="1.97789">
        <ele>3.2</ele>
        <time>2020-06-22T21:52:26Z</time>
      </trkpt>
      <trkpt lat="50.98632" lon="1.97797">
        <ele>3.2</ele>
        <time>2020-06-22T21:52:27Z</time>
      </trkpt>
      <trkpt lat="50.98633" lon="1.97803">
        <ele>3.2</ele>
        <time>2020-06-22T21:52:28Z</time>
      </trkpt>
      <trkpt lat="50.98635" lon="1.97808">
        <ele>3.2</ele>
        <time>2020-06-22T21:52:29Z</time>
      </trkpt>
      <trkpt lat="50.98636" lon="1.97814">
        <ele>3.2</ele>
        <time>2020-06-22T21:52:30Z</time>
      </trkpt>
      <trkpt lat="50.98637" lon="1.97819">
        <ele>3.3</ele>
        <time>2020-06-22T21:52:31Z</time>
      </trkpt>
      <trkpt lat="50.98638" lon="1.97824">
        <ele>3.3</ele>
        <time>2020-06-22T21:52:32Z</time>
      </trkpt>
      <trkpt lat="50.98639" lon="1.97829">
        <ele>3.3</ele>
        <time>2020-06-22T21:52:33Z</time>
      </trkpt>
      <trkpt lat="50.98639" lon="1.97834">
        <ele>3.3</ele>
        <time>2020-06-22T21:52:34Z</time>
      </trkpt>
      <trkpt lat="50.98641" lon="1.97842">
        <ele>3.3</ele>
        <time>2020-06-22T21:52:35Z</time>
      </trkpt>
      <trkpt lat="50.98642" lon="1.97848">
        <ele>3.3</ele>
        <time>2020-06-22T21:52:36Z</time>
      </trkpt>
      <trkpt lat="50.98643" lon="1.97854">
        <ele>3.3</ele>
        <time>2020-06-22T21:52:37Z</time>
      </trkpt>
      <trkpt lat="50.98645" lon="1.9786">
        <ele>3.3</ele>
        <time>2020-06-22T21:52:38Z</time>
      </trkpt>
      <trkpt lat="50.98646" lon="1.97867">
        <ele>3.3</ele>
        <time>2020-06-22T21:52:39Z</time>
      </trkpt>
      <trkpt lat="50.98647" lon="1.97872">
        <ele>3.3</ele>
        <time>2020-06-22T21:52:40Z</time>
      </trkpt>
      <trkpt lat="50.98648" lon="1.97879">
        <ele>3.3</ele>
        <time>2020-06-22T21:52:41Z</time>
      </trkpt>
      <trkpt lat="50.98649" lon="1.97883">
        <ele>3.3</ele>
        <time>2020-06-22T21:52:42Z</time>
      </trkpt>
      <trkpt lat="50.98651" lon="1.97889">
        <ele>3.3</ele>
        <time>2020-06-22T21:52:43Z</time>
      </trkpt>
      <trkpt lat="50.98652" lon="1.97894">
        <ele>3.3</ele>
        <time>2020-06-22T21:52:44Z</time>
      </trkpt>
      <trkpt lat="50.98654" lon="1.97901">
        <ele>3.3</ele>
        <time>2020-06-22T21:52:45Z</time>
      </trkpt>
      <trkpt lat="50.98655" lon="1.97906">
        <ele>3.3</ele>
        <time>2020-06-22T21:52:46Z</time>
      </trkpt>
      <trkpt lat="50.98656" lon="1.97913">
        <ele>3.3</ele>
        <time>2020-06-22T21:52:47Z</time>
      </trkpt>
      <trkpt lat="50.98658" lon="1.97919">
        <ele>3.3</ele>
        <time>2020-06-22T21:52:48Z</time>
      </trkpt>
      <trkpt lat="50.9866" lon="1.97926">
        <ele>3.3</ele>
        <time>2020-06-22T21:52:49Z</time>
      </trkpt>
      <trkpt lat="50.98662" lon="1.97934">
        <ele>3.3</ele>
        <time>2020-06-22T21:52:50Z</time>
      </trkpt>
      <trkpt lat="50.98663" lon="1.9794">
        <ele>3.3</ele>
        <time>2020-06-22T21:52:51Z</time>
      </trkpt>
      <trkpt lat="50.98664" lon="1.97946">
        <ele>3.3</ele>
        <time>2020-06-22T21:52:52Z</time>
      </trkpt>
      <trkpt lat="50.98665" lon="1.97952">
        <ele>3.3</ele>
        <time>2020-06-22T21:52:53Z</time>
      </trkpt>
      <trkpt lat="50.98667" lon="1.97958">
        <ele>3.3</ele>
        <time>2020-06-22T21:52:54Z</time>
      </trkpt>
      <trkpt lat="50.98668" lon="1.97964">
        <ele>3.4</ele>
        <time>2020-06-22T21:52:55Z</time>
      </trkpt>
      <trkpt lat="50.9867" lon="1.9797">
        <ele>3.4</ele>
        <time>2020-06-22T21:52:56Z</time>
      </trkpt>
      <trkpt lat="50.98671" lon="1.97972">
        <ele>3.3</ele>
        <time>2020-06-22T21:52:57Z</time>
      </trkpt>
      <trkpt lat="50.98672" lon="1.97978">
        <ele>3.3</ele>
        <time>2020-06-22T21:52:58Z</time>
      </trkpt>
      <trkpt lat="50.98673" lon="1.97983">
        <ele>3.3</ele>
        <time>2020-06-22T21:52:59Z</time>
      </trkpt>
      <trkpt lat="50.98675" lon="1.97988">
        <ele>3.3</ele>
        <time>2020-06-22T21:53:00Z</time>
      </trkpt>
      <trkpt lat="50.98676" lon="1.97992">
        <ele>3.3</ele>
        <time>2020-06-22T21:53:01Z</time>
      </trkpt>
      <trkpt lat="50.98678" lon="1.97997">
        <ele>3.3</ele>
        <time>2020-06-22T21:53:02Z</time>
      </trkpt>
      <trkpt lat="50.9868" lon="1.98004">
        <ele>3.3</ele>
        <time>2020-06-22T21:53:03Z</time>
      </trkpt>
      <trkpt lat="50.98682" lon="1.98011">
        <ele>3.3</ele>
        <time>2020-06-22T21:53:04Z</time>
      </trkpt>
      <trkpt lat="50.98684" lon="1.98017">
        <ele>3.2</ele>
        <time>2020-06-22T21:53:05Z</time>
      </trkpt>
      <trkpt lat="50.98686" lon="1.98023">
        <ele>3.2</ele>
        <time>2020-06-22T21:53:06Z</time>
      </trkpt>
      <trkpt lat="50.98688" lon="1.98029">
        <ele>3.2</ele>
        <time>2020-06-22T21:53:07Z</time>
      </trkpt>
      <trkpt lat="50.98691" lon="1.98036">
        <ele>3.2</ele>
        <time>2020-06-22T21:53:08Z</time>
      </trkpt>
      <trkpt lat="50.98693" lon="1.98043">
        <ele>3.2</ele>
        <time>2020-06-22T21:53:09Z</time>
      </trkpt>
      <trkpt lat="50.98695" lon="1.98049">
        <ele>3.2</ele>
        <time>2020-06-22T21:53:10Z</time>
      </trkpt>
      <trkpt lat="50.98698" lon="1.98057">
        <ele>3.2</ele>
        <time>2020-06-22T21:53:11Z</time>
      </trkpt>
      <trkpt lat="50.98701" lon="1.98064">
        <ele>3.2</ele>
        <time>2020-06-22T21:53:12Z</time>
      </trkpt>
      <trkpt lat="50.98704" lon="1.9807">
        <ele>3.2</ele>
        <time>2020-06-22T21:53:13Z</time>
      </trkpt>
      <trkpt lat="50.98708" lon="1.98077">
        <ele>3.2</ele>
        <time>2020-06-22T21:53:14Z</time>
      </trkpt>
      <trkpt lat="50.98712" lon="1.98082">
        <ele>3.2</ele>
        <time>2020-06-22T21:53:15Z</time>
      </trkpt>
      <trkpt lat="50.98716" lon="1.98087">
        <ele>3.2</ele>
        <time>2020-06-22T21:53:16Z</time>
      </trkpt>
      <trkpt lat="50.98718" lon="1.98093">
        <ele>3.2</ele>
        <time>2020-06-22T21:53:17Z</time>
      </trkpt>
      <trkpt lat="50.98723" lon="1.981">
        <ele>3.2</ele>
        <time>2020-06-22T21:53:18Z</time>
      </trkpt>
      <trkpt lat="50.98726" lon="1.98106">
        <ele>3.2</ele>
        <time>2020-06-22T21:53:19Z</time>
      </trkpt>
      <trkpt lat="50.98731" lon="1.98112">
        <ele>3.2</ele>
        <time>2020-06-22T21:53:20Z</time>
      </trkpt>
      <trkpt lat="50.98735" lon="1.98118">
        <ele>3.2</ele>
        <time>2020-06-22T21:53:21Z</time>
      </trkpt>
      <trkpt lat="50.98739" lon="1.98123">
        <ele>3.2</ele>
        <time>2020-06-22T21:53:22Z</time>
      </trkpt>
      <trkpt lat="50.98743" lon="1.9813">
        <ele>3.2</ele>
        <time>2020-06-22T21:53:23Z</time>
      </trkpt>
      <trkpt lat="50.98748" lon="1.98137">
        <ele>3.2</ele>
        <time>2020-06-22T21:53:24Z</time>
      </trkpt>
      <trkpt lat="50.98752" lon="1.98144">
        <ele>3.2</ele>
        <time>2020-06-22T21:53:25Z</time>
      </trkpt>
      <trkpt lat="50.98756" lon="1.98151">
        <ele>3.2</ele>
        <time>2020-06-22T21:53:26Z</time>
      </trkpt>
      <trkpt lat="50.9876" lon="1.98158">
        <ele>3.2</ele>
        <time>2020-06-22T21:53:27Z</time>
      </trkpt>
      <trkpt lat="50.98765" lon="1.98164">
        <ele>3.2</ele>
        <time>2020-06-22T21:53:28Z</time>
      </trkpt>
      <trkpt lat="50.98769" lon="1.98171">
        <ele>3.2</ele>
        <time>2020-06-22T21:53:29Z</time>
      </trkpt>
      <trkpt lat="50.98773" lon="1.98178">
        <ele>3.2</ele>
        <time>2020-06-22T21:53:30Z</time>
      </trkpt>
      <trkpt lat="50.98776" lon="1.98185">
        <ele>3.2</ele>
        <time>2020-06-22T21:53:31Z</time>
      </trkpt>
      <trkpt lat="50.9878" lon="1.98192">
        <ele>3.2</ele>
        <time>2020-06-22T21:53:32Z</time>
      </trkpt>
      <trkpt lat="50.98784" lon="1.98198">
        <ele>3.2</ele>
        <time>2020-06-22T21:53:33Z</time>
      </trkpt>
      <trkpt lat="50.98786" lon="1.98205">
        <ele>3.2</ele>
        <time>2020-06-22T21:53:34Z</time>
      </trkpt>
      <trkpt lat="50.98788" lon="1.98213">
        <ele>3.2</ele>
        <time>2020-06-22T21:53:35Z</time>
      </trkpt>
      <trkpt lat="50.98791" lon="1.9822">
        <ele>3.2</ele>
        <time>2020-06-22T21:53:36Z</time>
      </trkpt>
      <trkpt lat="50.98794" lon="1.98227">
        <ele>3.2</ele>
        <time>2020-06-22T21:53:37Z</time>
      </trkpt>
      <trkpt lat="50.98798" lon="1.98233">
        <ele>3.2</ele>
        <time>2020-06-22T21:53:38Z</time>
      </trkpt>
      <trkpt lat="50.98801" lon="1.98238">
        <ele>3.2</ele>
        <time>2020-06-22T21:53:39Z</time>
      </trkpt>
      <trkpt lat="50.98805" lon="1.98245">
        <ele>3.2</ele>
        <time>2020-06-22T21:53:40Z</time>
      </trkpt>
      <trkpt lat="50.98808" lon="1.98252">
        <ele>3.2</ele>
        <time>2020-06-22T21:53:41Z</time>
      </trkpt>
      <trkpt lat="50.98812" lon="1.9826">
        <ele>3.2</ele>
        <time>2020-06-22T21:53:42Z</time>
      </trkpt>
      <trkpt lat="50.98815" lon="1.98268">
        <ele>3.2</ele>
        <time>2020-06-22T21:53:43Z</time>
      </trkpt>
      <trkpt lat="50.98818" lon="1.98276">
        <ele>3.2</ele>
        <time>2020-06-22T21:53:44Z</time>
      </trkpt>
      <trkpt lat="50.98821" lon="1.98283">
        <ele>3.2</ele>
        <time>2020-06-22T21:53:45Z</time>
      </trkpt>
      <trkpt lat="50.98823" lon="1.98291">
        <ele>3.2</ele>
        <time>2020-06-22T21:53:46Z</time>
      </trkpt>
      <trkpt lat="50.98826" lon="1.98299">
        <ele>3.3</ele>
        <time>2020-06-22T21:53:47Z</time>
      </trkpt>
      <trkpt lat="50.9883" lon="1.98306">
        <ele>3.3</ele>
        <time>2020-06-22T21:53:48Z</time>
      </trkpt>
      <trkpt lat="50.98834" lon="1.98312">
        <ele>3.3</ele>
        <time>2020-06-22T21:53:49Z</time>
      </trkpt>
      <trkpt lat="50.98837" lon="1.9832">
        <ele>3.3</ele>
        <time>2020-06-22T21:53:50Z</time>
      </trkpt>
      <trkpt lat="50.98841" lon="1.98327">
        <ele>3.3</ele>
        <time>2020-06-22T21:53:51Z</time>
      </trkpt>
      <trkpt lat="50.98844" lon="1.98335">
        <ele>3.3</ele>
        <time>2020-06-22T21:53:52Z</time>
      </trkpt>
      <trkpt lat="50.98847" lon="1.98343">
        <ele>3.3</ele>
        <time>2020-06-22T21:53:53Z</time>
      </trkpt>
      <trkpt lat="50.9885" lon="1.98351">
        <ele>3.2</ele>
        <time>2020-06-22T21:53:54Z</time>
      </trkpt>
      <trkpt lat="50.98853" lon="1.98359">
        <ele>3.2</ele>
        <time>2020-06-22T21:53:55Z</time>
      </trkpt>
      <trkpt lat="50.98856" lon="1.98367">
        <ele>3.2</ele>
        <time>2020-06-22T21:53:56Z</time>
      </trkpt>
      <trkpt lat="50.9886" lon="1.98374">
        <ele>3.2</ele>
        <time>2020-06-22T21:53:57Z</time>
      </trkpt>
      <trkpt lat="50.98863" lon="1.98383">
        <ele>3.2</ele>
        <time>2020-06-22T21:53:58Z</time>
      </trkpt>
      <trkpt lat="50.98867" lon="1.98392">
        <ele>3.2</ele>
        <time>2020-06-22T21:53:59Z</time>
      </trkpt>
      <trkpt lat="50.98869" lon="1.984">
        <ele>3.2</ele>
        <time>2020-06-22T21:54:00Z</time>
      </trkpt>
      <trkpt lat="50.98872" lon="1.98409">
        <ele>3.2</ele>
        <time>2020-06-22T21:54:01Z</time>
      </trkpt>
      <trkpt lat="50.98875" lon="1.98418">
        <ele>3.2</ele>
        <time>2020-06-22T21:54:02Z</time>
      </trkpt>
      <trkpt lat="50.98878" lon="1.98427">
        <ele>3.2</ele>
        <time>2020-06-22T21:54:03Z</time>
      </trkpt>
      <trkpt lat="50.98881" lon="1.98436">
        <ele>3.2</ele>
        <time>2020-06-22T21:54:04Z</time>
      </trkpt>
      <trkpt lat="50.98884" lon="1.98444">
        <ele>3.2</ele>
        <time>2020-06-22T21:54:05Z</time>
      </trkpt>
      <trkpt lat="50.98887" lon="1.98454">
        <ele>3.2</ele>
        <time>2020-06-22T21:54:06Z</time>
      </trkpt>
      <trkpt lat="50.98889" lon="1.98463">
        <ele>3.2</ele>
        <time>2020-06-22T21:54:07Z</time>
      </trkpt>
      <trkpt lat="50.98891" lon="1.9847">
        <ele>3.2</ele>
        <time>2020-06-22T21:54:08Z</time>
      </trkpt>
      <trkpt lat="50.98893" lon="1.98478">
        <ele>3.2</ele>
        <time>2020-06-22T21:54:09Z</time>
      </trkpt>
      <trkpt lat="50.98896" lon="1.98485">
        <ele>3.2</ele>
        <time>2020-06-22T21:54:10Z</time>
      </trkpt>
      <trkpt lat="50.98897" lon="1.98491">
        <ele>3.2</ele>
        <time>2020-06-22T21:54:11Z</time>
      </trkpt>
      <trkpt lat="50.98899" lon="1.98499">
        <ele>3.2</ele>
        <time>2020-06-22T21:54:12Z</time>
      </trkpt>
      <trkpt lat="50.98902" lon="1.98509">
        <ele>3.2</ele>
        <time>2020-06-22T21:54:13Z</time>
      </trkpt>
      <trkpt lat="50.98904" lon="1.98517">
        <ele>3.2</ele>
        <time>2020-06-22T21:54:14Z</time>
      </trkpt>
      <trkpt lat="50.98906" lon="1.98527">
        <ele>3.3</ele>
        <time>2020-06-22T21:54:15Z</time>
      </trkpt>
      <trkpt lat="50.98908" lon="1.98538">
        <ele>3.3</ele>
        <time>2020-06-22T21:54:16Z</time>
      </trkpt>
      <trkpt lat="50.98911" lon="1.98548">
        <ele>3.3</ele>
        <time>2020-06-22T21:54:17Z</time>
      </trkpt>
      <trkpt lat="50.98914" lon="1.98556">
        <ele>3.3</ele>
        <time>2020-06-22T21:54:18Z</time>
      </trkpt>
      <trkpt lat="50.98916" lon="1.98564">
        <ele>3.3</ele>
        <time>2020-06-22T21:54:19Z</time>
      </trkpt>
      <trkpt lat="50.98918" lon="1.98573">
        <ele>3.3</ele>
        <time>2020-06-22T21:54:20Z</time>
      </trkpt>
      <trkpt lat="50.9892" lon="1.98583">
        <ele>3.3</ele>
        <time>2020-06-22T21:54:21Z</time>
      </trkpt>
      <trkpt lat="50.98923" lon="1.9859">
        <ele>3.3</ele>
        <time>2020-06-22T21:54:22Z</time>
      </trkpt>
      <trkpt lat="50.98924" lon="1.98598">
        <ele>3.3</ele>
        <time>2020-06-22T21:54:23Z</time>
      </trkpt>
      <trkpt lat="50.98926" lon="1.98607">
        <ele>3.3</ele>
        <time>2020-06-22T21:54:24Z</time>
      </trkpt>
      <trkpt lat="50.98928" lon="1.98614">
        <ele>3.3</ele>
        <time>2020-06-22T21:54:25Z</time>
      </trkpt>
      <trkpt lat="50.9893" lon="1.98623">
        <ele>3.3</ele>
        <time>2020-06-22T21:54:26Z</time>
      </trkpt>
      <trkpt lat="50.98931" lon="1.98631">
        <ele>3.3</ele>
        <time>2020-06-22T21:54:27Z</time>
      </trkpt>
      <trkpt lat="50.98934" lon="1.9864">
        <ele>3.3</ele>
        <time>2020-06-22T21:54:28Z</time>
      </trkpt>
      <trkpt lat="50.98935" lon="1.98651">
        <ele>3.3</ele>
        <time>2020-06-22T21:54:29Z</time>
      </trkpt>
      <trkpt lat="50.98938" lon="1.98661">
        <ele>3.2</ele>
        <time>2020-06-22T21:54:30Z</time>
      </trkpt>
      <trkpt lat="50.9894" lon="1.9867">
        <ele>3.2</ele>
        <time>2020-06-22T21:54:31Z</time>
      </trkpt>
      <trkpt lat="50.98942" lon="1.98679">
        <ele>3.2</ele>
        <time>2020-06-22T21:54:32Z</time>
      </trkpt>
      <trkpt lat="50.98943" lon="1.98688">
        <ele>3.2</ele>
        <time>2020-06-22T21:54:33Z</time>
      </trkpt>
      <trkpt lat="50.98945" lon="1.98697">
        <ele>3.2</ele>
        <time>2020-06-22T21:54:34Z</time>
      </trkpt>
      <trkpt lat="50.98945" lon="1.98706">
        <ele>3.2</ele>
        <time>2020-06-22T21:54:35Z</time>
      </trkpt>
      <trkpt lat="50.98947" lon="1.98716">
        <ele>3.3</ele>
        <time>2020-06-22T21:54:36Z</time>
      </trkpt>
      <trkpt lat="50.98948" lon="1.98726">
        <ele>3.3</ele>
        <time>2020-06-22T21:54:37Z</time>
      </trkpt>
      <trkpt lat="50.98949" lon="1.98736">
        <ele>3.3</ele>
        <time>2020-06-22T21:54:38Z</time>
      </trkpt>
      <trkpt lat="50.9895" lon="1.98745">
        <ele>3.3</ele>
        <time>2020-06-22T21:54:39Z</time>
      </trkpt>
      <trkpt lat="50.98952" lon="1.98753">
        <ele>3.4</ele>
        <time>2020-06-22T21:54:40Z</time>
      </trkpt>
      <trkpt lat="50.98953" lon="1.98762">
        <ele>3.4</ele>
        <time>2020-06-22T21:54:41Z</time>
      </trkpt>
      <trkpt lat="50.98955" lon="1.98771">
        <ele>3.4</ele>
        <time>2020-06-22T21:54:42Z</time>
      </trkpt>
      <trkpt lat="50.98956" lon="1.98781">
        <ele>3.3</ele>
        <time>2020-06-22T21:54:43Z</time>
      </trkpt>
      <trkpt lat="50.98957" lon="1.98791">
        <ele>3.3</ele>
        <time>2020-06-22T21:54:44Z</time>
      </trkpt>
      <trkpt lat="50.98958" lon="1.98801">
        <ele>3.3</ele>
        <time>2020-06-22T21:54:45Z</time>
      </trkpt>
      <trkpt lat="50.9896" lon="1.9881">
        <ele>3.3</ele>
        <time>2020-06-22T21:54:46Z</time>
      </trkpt>
      <trkpt lat="50.98961" lon="1.9882">
        <ele>3.3</ele>
        <time>2020-06-22T21:54:47Z</time>
      </trkpt>
      <trkpt lat="50.98962" lon="1.98828">
        <ele>3.3</ele>
        <time>2020-06-22T21:54:48Z</time>
      </trkpt>
      <trkpt lat="50.98963" lon="1.98838">
        <ele>3.4</ele>
        <time>2020-06-22T21:54:49Z</time>
      </trkpt>
      <trkpt lat="50.98963" lon="1.98848">
        <ele>3.4</ele>
        <time>2020-06-22T21:54:50Z</time>
      </trkpt>
      <trkpt lat="50.98965" lon="1.9886">
        <ele>3.4</ele>
        <time>2020-06-22T21:54:51Z</time>
      </trkpt>
      <trkpt lat="50.98965" lon="1.98871">
        <ele>3.4</ele>
        <time>2020-06-22T21:54:52Z</time>
      </trkpt>
      <trkpt lat="50.98966" lon="1.98881">
        <ele>3.4</ele>
        <time>2020-06-22T21:54:53Z</time>
      </trkpt>
      <trkpt lat="50.98966" lon="1.98891">
        <ele>3.4</ele>
        <time>2020-06-22T21:54:54Z</time>
      </trkpt>
      <trkpt lat="50.98966" lon="1.98901">
        <ele>3.4</ele>
        <time>2020-06-22T21:54:55Z</time>
      </trkpt>
      <trkpt lat="50.98967" lon="1.9891">
        <ele>3.4</ele>
        <time>2020-06-22T21:54:56Z</time>
      </trkpt>
      <trkpt lat="50.98967" lon="1.98921">
        <ele>3.4</ele>
        <time>2020-06-22T21:54:57Z</time>
      </trkpt>
      <trkpt lat="50.98967" lon="1.98932">
        <ele>3.4</ele>
        <time>2020-06-22T21:54:58Z</time>
      </trkpt>
      <trkpt lat="50.98968" lon="1.9894">
        <ele>3.4</ele>
        <time>2020-06-22T21:54:59Z</time>
      </trkpt>
      <trkpt lat="50.98967" lon="1.9895">
        <ele>3.3</ele>
        <time>2020-06-22T21:55:00Z</time>
      </trkpt>
      <trkpt lat="50.98968" lon="1.98961">
        <ele>3.3</ele>
        <time>2020-06-22T21:55:01Z</time>
      </trkpt>
      <trkpt lat="50.98968" lon="1.9897">
        <ele>3.3</ele>
        <time>2020-06-22T21:55:02Z</time>
      </trkpt>
      <trkpt lat="50.98969" lon="1.98978">
        <ele>3.3</ele>
        <time>2020-06-22T21:55:03Z</time>
      </trkpt>
      <trkpt lat="50.98969" lon="1.98988">
        <ele>3.3</ele>
        <time>2020-06-22T21:55:04Z</time>
      </trkpt>
      <trkpt lat="50.9897" lon="1.98998">
        <ele>3.3</ele>
        <time>2020-06-22T21:55:05Z</time>
      </trkpt>
      <trkpt lat="50.9897" lon="1.99008">
        <ele>3.3</ele>
        <time>2020-06-22T21:55:06Z</time>
      </trkpt>
      <trkpt lat="50.98971" lon="1.99018">
        <ele>3.3</ele>
        <time>2020-06-22T21:55:07Z</time>
      </trkpt>
      <trkpt lat="50.98972" lon="1.99029">
        <ele>3.3</ele>
        <time>2020-06-22T21:55:08Z</time>
      </trkpt>
      <trkpt lat="50.98972" lon="1.99038">
        <ele>3.3</ele>
        <time>2020-06-22T21:55:09Z</time>
      </trkpt>
      <trkpt lat="50.98973" lon="1.99048">
        <ele>3.3</ele>
        <time>2020-06-22T21:55:10Z</time>
      </trkpt>
      <trkpt lat="50.98973" lon="1.99056">
        <ele>3.3</ele>
        <time>2020-06-22T21:55:11Z</time>
      </trkpt>
      <trkpt lat="50.98974" lon="1.99065">
        <ele>3.3</ele>
        <time>2020-06-22T21:55:12Z</time>
      </trkpt>
      <trkpt lat="50.98975" lon="1.99075">
        <ele>3.3</ele>
        <time>2020-06-22T21:55:13Z</time>
      </trkpt>
      <trkpt lat="50.98977" lon="1.99082">
        <ele>3.3</ele>
        <time>2020-06-22T21:55:14Z</time>
      </trkpt>
      <trkpt lat="50.98978" lon="1.99093">
        <ele>3.3</ele>
        <time>2020-06-22T21:55:15Z</time>
      </trkpt>
      <trkpt lat="50.98979" lon="1.99102">
        <ele>3.3</ele>
        <time>2020-06-22T21:55:16Z</time>
      </trkpt>
      <trkpt lat="50.98981" lon="1.99111">
        <ele>3.3</ele>
        <time>2020-06-22T21:55:17Z</time>
      </trkpt>
      <trkpt lat="50.98983" lon="1.99119">
        <ele>3.3</ele>
        <time>2020-06-22T21:55:18Z</time>
      </trkpt>
      <trkpt lat="50.98986" lon="1.99127">
        <ele>3.2</ele>
        <time>2020-06-22T21:55:19Z</time>
      </trkpt>
      <trkpt lat="50.98989" lon="1.99136">
        <ele>3.2</ele>
        <time>2020-06-22T21:55:20Z</time>
      </trkpt>
      <trkpt lat="50.98992" lon="1.99145">
        <ele>3.3</ele>
        <time>2020-06-22T21:55:21Z</time>
      </trkpt>
      <trkpt lat="50.98994" lon="1.99152">
        <ele>3.3</ele>
        <time>2020-06-22T21:55:22Z</time>
      </trkpt>
      <trkpt lat="50.98997" lon="1.99162">
        <ele>3.3</ele>
        <time>2020-06-22T21:55:23Z</time>
      </trkpt>
      <trkpt lat="50.98999" lon="1.99171">
        <ele>3.3</ele>
        <time>2020-06-22T21:55:24Z</time>
      </trkpt>
      <trkpt lat="50.99001" lon="1.99178">
        <ele>3.3</ele>
        <time>2020-06-22T21:55:25Z</time>
      </trkpt>
      <trkpt lat="50.99003" lon="1.99187">
        <ele>3.3</ele>
        <time>2020-06-22T21:55:26Z</time>
      </trkpt>
      <trkpt lat="50.99005" lon="1.99195">
        <ele>3.3</ele>
        <time>2020-06-22T21:55:27Z</time>
      </trkpt>
      <trkpt lat="50.99007" lon="1.99204">
        <ele>3.2</ele>
        <time>2020-06-22T21:55:28Z</time>
      </trkpt>
      <trkpt lat="50.9901" lon="1.99213">
        <ele>3.2</ele>
        <time>2020-06-22T21:55:29Z</time>
      </trkpt>
      <trkpt lat="50.99012" lon="1.99223">
        <ele>3.2</ele>
        <time>2020-06-22T21:55:30Z</time>
      </trkpt>
      <trkpt lat="50.99014" lon="1.99232">
        <ele>3.2</ele>
        <time>2020-06-22T21:55:31Z</time>
      </trkpt>
      <trkpt lat="50.99016" lon="1.99241">
        <ele>3.2</ele>
        <time>2020-06-22T21:55:32Z</time>
      </trkpt>
      <trkpt lat="50.99019" lon="1.9925">
        <ele>3.2</ele>
        <time>2020-06-22T21:55:33Z</time>
      </trkpt>
      <trkpt lat="50.99022" lon="1.99258">
        <ele>3.2</ele>
        <time>2020-06-22T21:55:34Z</time>
      </trkpt>
      <trkpt lat="50.99024" lon="1.99268">
        <ele>3.2</ele>
        <time>2020-06-22T21:55:35Z</time>
      </trkpt>
      <trkpt lat="50.99027" lon="1.99275">
        <ele>3.2</ele>
        <time>2020-06-22T21:55:36Z</time>
      </trkpt>
      <trkpt lat="50.99029" lon="1.99283">
        <ele>3.2</ele>
        <time>2020-06-22T21:55:37Z</time>
      </trkpt>
      <trkpt lat="50.99032" lon="1.99292">
        <ele>3.2</ele>
        <time>2020-06-22T21:55:38Z</time>
      </trkpt>
      <trkpt lat="50.99035" lon="1.993">
        <ele>3.2</ele>
        <time>2020-06-22T21:55:39Z</time>
      </trkpt>
      <trkpt lat="50.99038" lon="1.99312">
        <ele>3.2</ele>
        <time>2020-06-22T21:55:40Z</time>
      </trkpt>
      <trkpt lat="50.99042" lon="1.99321">
        <ele>3.1</ele>
        <time>2020-06-22T21:55:41Z</time>
      </trkpt>
      <trkpt lat="50.99045" lon="1.99329">
        <ele>3.1</ele>
        <time>2020-06-22T21:55:42Z</time>
      </trkpt>
      <trkpt lat="50.99049" lon="1.99338">
        <ele>3.1</ele>
        <time>2020-06-22T21:55:43Z</time>
      </trkpt>
      <trkpt lat="50.99052" lon="1.99347">
        <ele>3.1</ele>
        <time>2020-06-22T21:55:44Z</time>
      </trkpt>
      <trkpt lat="50.99054" lon="1.99354">
        <ele>3.2</ele>
        <time>2020-06-22T21:55:45Z</time>
      </trkpt>
      <trkpt lat="50.99055" lon="1.99361">
        <ele>3.2</ele>
        <time>2020-06-22T21:55:46Z</time>
      </trkpt>
      <trkpt lat="50.99057" lon="1.99369">
        <ele>3.2</ele>
        <time>2020-06-22T21:55:47Z</time>
      </trkpt>
      <trkpt lat="50.99058" lon="1.99378">
        <ele>3.2</ele>
        <time>2020-06-22T21:55:48Z</time>
      </trkpt>
      <trkpt lat="50.99057" lon="1.99385">
        <ele>3.3</ele>
        <time>2020-06-22T21:55:49Z</time>
      </trkpt>
      <trkpt lat="50.99057" lon="1.99393">
        <ele>3.3</ele>
        <time>2020-06-22T21:55:50Z</time>
      </trkpt>
      <trkpt lat="50.99057" lon="1.99402">
        <ele>3.4</ele>
        <time>2020-06-22T21:55:51Z</time>
      </trkpt>
      <trkpt lat="50.99057" lon="1.99411">
        <ele>3.4</ele>
        <time>2020-06-22T21:55:52Z</time>
      </trkpt>
      <trkpt lat="50.99057" lon="1.99418">
        <ele>3.5</ele>
        <time>2020-06-22T21:55:53Z</time>
      </trkpt>
      <trkpt lat="50.99057" lon="1.99426">
        <ele>3.5</ele>
        <time>2020-06-22T21:55:54Z</time>
      </trkpt>
      <trkpt lat="50.99057" lon="1.99432">
        <ele>3.5</ele>
        <time>2020-06-22T21:55:55Z</time>
      </trkpt>
      <trkpt lat="50.99058" lon="1.9944">
        <ele>3.6</ele>
        <time>2020-06-22T21:55:56Z</time>
      </trkpt>
      <trkpt lat="50.99059" lon="1.9945">
        <ele>3.7</ele>
        <time>2020-06-22T21:55:57Z</time>
      </trkpt>
      <trkpt lat="50.9906" lon="1.99459">
        <ele>3.7</ele>
        <time>2020-06-22T21:55:58Z</time>
      </trkpt>
      <trkpt lat="50.99061" lon="1.99468">
        <ele>3.8</ele>
        <time>2020-06-22T21:55:59Z</time>
      </trkpt>
      <trkpt lat="50.99062" lon="1.99476">
        <ele>3.8</ele>
        <time>2020-06-22T21:56:00Z</time>
      </trkpt>
      <trkpt lat="50.99063" lon="1.99484">
        <ele>3.8</ele>
        <time>2020-06-22T21:56:01Z</time>
      </trkpt>
      <trkpt lat="50.99064" lon="1.99489">
        <ele>3.8</ele>
        <time>2020-06-22T21:56:02Z</time>
      </trkpt>
      <trkpt lat="50.99065" lon="1.99499">
        <ele>3.8</ele>
        <time>2020-06-22T21:56:03Z</time>
      </trkpt>
      <trkpt lat="50.99066" lon="1.9951">
        <ele>3.8</ele>
        <time>2020-06-22T21:56:04Z</time>
      </trkpt>
      <trkpt lat="50.99067" lon="1.99518">
        <ele>3.9</ele>
        <time>2020-06-22T21:56:05Z</time>
      </trkpt>
      <trkpt lat="50.99069" lon="1.99525">
        <ele>3.9</ele>
        <time>2020-06-22T21:56:06Z</time>
      </trkpt>
      <trkpt lat="50.99068" lon="1.99531">
        <ele>3.9</ele>
        <time>2020-06-22T21:56:07Z</time>
      </trkpt>
      <trkpt lat="50.99068" lon="1.99538">
        <ele>3.9</ele>
        <time>2020-06-22T21:56:08Z</time>
      </trkpt>
      <trkpt lat="50.9907" lon="1.99548">
        <ele>3.9</ele>
        <time>2020-06-22T21:56:09Z</time>
      </trkpt>
      <trkpt lat="50.99071" lon="1.99556">
        <ele>3.9</ele>
        <time>2020-06-22T21:56:10Z</time>
      </trkpt>
      <trkpt lat="50.99072" lon="1.99564">
        <ele>3.9</ele>
        <time>2020-06-22T21:56:11Z</time>
      </trkpt>
      <trkpt lat="50.99074" lon="1.99572">
        <ele>3.9</ele>
        <time>2020-06-22T21:56:12Z</time>
      </trkpt>
      <trkpt lat="50.99076" lon="1.99579">
        <ele>3.9</ele>
        <time>2020-06-22T21:56:13Z</time>
      </trkpt>
      <trkpt lat="50.99078" lon="1.99586">
        <ele>3.9</ele>
        <time>2020-06-22T21:56:14Z</time>
      </trkpt>
      <trkpt lat="50.99081" lon="1.99593">
        <ele>3.8</ele>
        <time>2020-06-22T21:56:15Z</time>
      </trkpt>
      <trkpt lat="50.99082" lon="1.99599">
        <ele>3.8</ele>
        <time>2020-06-22T21:56:16Z</time>
      </trkpt>
      <trkpt lat="50.99084" lon="1.99607">
        <ele>3.8</ele>
        <time>2020-06-22T21:56:17Z</time>
      </trkpt>
      <trkpt lat="50.99087" lon="1.99612">
        <ele>3.8</ele>
        <time>2020-06-22T21:56:18Z</time>
      </trkpt>
      <trkpt lat="50.9909" lon="1.9962">
        <ele>3.7</ele>
        <time>2020-06-22T21:56:19Z</time>
      </trkpt>
      <trkpt lat="50.99092" lon="1.99626">
        <ele>3.7</ele>
        <time>2020-06-22T21:56:20Z</time>
      </trkpt>
      <trkpt lat="50.99094" lon="1.99634">
        <ele>3.7</ele>
        <time>2020-06-22T21:56:21Z</time>
      </trkpt>
      <trkpt lat="50.99097" lon="1.99643">
        <ele>3.6</ele>
        <time>2020-06-22T21:56:22Z</time>
      </trkpt>
      <trkpt lat="50.99098" lon="1.99651">
        <ele>3.6</ele>
        <time>2020-06-22T21:56:23Z</time>
      </trkpt>
      <trkpt lat="50.99101" lon="1.9966">
        <ele>3.5</ele>
        <time>2020-06-22T21:56:24Z</time>
      </trkpt>
      <trkpt lat="50.99103" lon="1.99668">
        <ele>3.5</ele>
        <time>2020-06-22T21:56:25Z</time>
      </trkpt>
      <trkpt lat="50.99105" lon="1.99674">
        <ele>3.4</ele>
        <time>2020-06-22T21:56:26Z</time>
      </trkpt>
      <trkpt lat="50.99107" lon="1.99679">
        <ele>3.4</ele>
        <time>2020-06-22T21:56:27Z</time>
      </trkpt>
      <trkpt lat="50.9911" lon="1.99689">
        <ele>3.4</ele>
        <time>2020-06-22T21:56:28Z</time>
      </trkpt>
      <trkpt lat="50.99112" lon="1.99699">
        <ele>3.4</ele>
        <time>2020-06-22T21:56:29Z</time>
      </trkpt>
      <trkpt lat="50.99115" lon="1.99707">
        <ele>3.4</ele>
        <time>2020-06-22T21:56:30Z</time>
      </trkpt>
      <trkpt lat="50.99117" lon="1.99716">
        <ele>3.4</ele>
        <time>2020-06-22T21:56:31Z</time>
      </trkpt>
      <trkpt lat="50.99118" lon="1.99726">
        <ele>3.4</ele>
        <time>2020-06-22T21:56:32Z</time>
      </trkpt>
      <trkpt lat="50.99121" lon="1.99736">
        <ele>3.3</ele>
        <time>2020-06-22T21:56:33Z</time>
      </trkpt>
      <trkpt lat="50.99123" lon="1.99745">
        <ele>3.3</ele>
        <time>2020-06-22T21:56:34Z</time>
      </trkpt>
      <trkpt lat="50.99125" lon="1.99752">
        <ele>3.3</ele>
        <time>2020-06-22T21:56:35Z</time>
      </trkpt>
      <trkpt lat="50.99127" lon="1.99759">
        <ele>3.3</ele>
        <time>2020-06-22T21:56:36Z</time>
      </trkpt>
      <trkpt lat="50.9913" lon="1.99769">
        <ele>3.3</ele>
        <time>2020-06-22T21:56:37Z</time>
      </trkpt>
      <trkpt lat="50.99132" lon="1.99776">
        <ele>3.3</ele>
        <time>2020-06-22T21:56:38Z</time>
      </trkpt>
      <trkpt lat="50.99134" lon="1.99784">
        <ele>3.3</ele>
        <time>2020-06-22T21:56:39Z</time>
      </trkpt>
      <trkpt lat="50.99136" lon="1.99793">
        <ele>3.3</ele>
        <time>2020-06-22T21:56:40Z</time>
      </trkpt>
      <trkpt lat="50.99139" lon="1.99801">
        <ele>3.3</ele>
        <time>2020-06-22T21:56:41Z</time>
      </trkpt>
      <trkpt lat="50.99142" lon="1.99809">
        <ele>3.3</ele>
        <time>2020-06-22T21:56:42Z</time>
      </trkpt>
      <trkpt lat="50.99144" lon="1.99818">
        <ele>3.3</ele>
        <time>2020-06-22T21:56:43Z</time>
      </trkpt>
      <trkpt lat="50.99146" lon="1.99826">
        <ele>3.3</ele>
        <time>2020-06-22T21:56:44Z</time>
      </trkpt>
      <trkpt lat="50.99149" lon="1.99833">
        <ele>3.3</ele>
        <time>2020-06-22T21:56:45Z</time>
      </trkpt>
      <trkpt lat="50.99152" lon="1.99841">
        <ele>3.3</ele>
        <time>2020-06-22T21:56:46Z</time>
      </trkpt>
      <trkpt lat="50.99154" lon="1.99848">
        <ele>3.3</ele>
        <time>2020-06-22T21:56:47Z</time>
      </trkpt>
      <trkpt lat="50.99155" lon="1.99854">
        <ele>3.3</ele>
        <time>2020-06-22T21:56:48Z</time>
      </trkpt>
      <trkpt lat="50.99157" lon="1.99859">
        <ele>3.3</ele>
        <time>2020-06-22T21:56:49Z</time>
      </trkpt>
      <trkpt lat="50.99159" lon="1.99868">
        <ele>3.3</ele>
        <time>2020-06-22T21:56:50Z</time>
      </trkpt>
      <trkpt lat="50.99161" lon="1.99874">
        <ele>3.3</ele>
        <time>2020-06-22T21:56:51Z</time>
      </trkpt>
      <trkpt lat="50.99163" lon="1.99881">
        <ele>3.3</ele>
        <time>2020-06-22T21:56:52Z</time>
      </trkpt>
      <trkpt lat="50.99165" lon="1.99887">
        <ele>3.3</ele>
        <time>2020-06-22T21:56:53Z</time>
      </trkpt>
      <trkpt lat="50.99166" lon="1.99893">
        <ele>3.3</ele>
        <time>2020-06-22T21:56:54Z</time>
      </trkpt>
      <trkpt lat="50.99169" lon="1.99899">
        <ele>3.3</ele>
        <time>2020-06-22T21:56:55Z</time>
      </trkpt>
      <trkpt lat="50.99171" lon="1.99907">
        <ele>3.3</ele>
        <time>2020-06-22T21:56:56Z</time>
      </trkpt>
      <trkpt lat="50.99174" lon="1.99914">
        <ele>3.3</ele>
        <time>2020-06-22T21:56:57Z</time>
      </trkpt>
      <trkpt lat="50.99176" lon="1.99921">
        <ele>3.3</ele>
        <time>2020-06-22T21:56:58Z</time>
      </trkpt>
      <trkpt lat="50.99179" lon="1.99929">
        <ele>3.4</ele>
        <time>2020-06-22T21:56:59Z</time>
      </trkpt>
      <trkpt lat="50.99181" lon="1.99938">
        <ele>3.4</ele>
        <time>2020-06-22T21:57:00Z</time>
      </trkpt>
      <trkpt lat="50.99183" lon="1.99946">
        <ele>3.4</ele>
        <time>2020-06-22T21:57:01Z</time>
      </trkpt>
      <trkpt lat="50.99184" lon="1.99953">
        <ele>3.4</ele>
        <time>2020-06-22T21:57:02Z</time>
      </trkpt>
      <trkpt lat="50.99186" lon="1.99961">
        <ele>3.4</ele>
        <time>2020-06-22T21:57:03Z</time>
      </trkpt>
      <trkpt lat="50.99188" lon="1.99968">
        <ele>3.5</ele>
        <time>2020-06-22T21:57:04Z</time>
      </trkpt>
      <trkpt lat="50.99189" lon="1.99977">
        <ele>3.5</ele>
        <time>2020-06-22T21:57:05Z</time>
      </trkpt>
      <trkpt lat="50.9919" lon="1.99985">
        <ele>3.5</ele>
        <time>2020-06-22T21:57:06Z</time>
      </trkpt>
      <trkpt lat="50.99191" lon="1.9999">
        <ele>3.5</ele>
        <time>2020-06-22T21:57:07Z</time>
      </trkpt>
      <trkpt lat="50.99192" lon="1.99998">
        <ele>3.5</ele>
        <time>2020-06-22T21:57:08Z</time>
      </trkpt>
      <trkpt lat="50.99193" lon="2.00004">
        <ele>3.5</ele>
        <time>2020-06-22T21:57:09Z</time>
      </trkpt>
      <trkpt lat="50.99194" lon="2.0001">
        <ele>3.5</ele>
        <time>2020-06-22T21:57:10Z</time>
      </trkpt>
      <trkpt lat="50.99194" lon="2.00014">
        <ele>3.5</ele>
        <time>2020-06-22T21:57:11Z</time>
      </trkpt>
      <trkpt lat="50.99194" lon="2.00016">
        <ele>3.6</ele>
        <time>2020-06-22T21:57:12Z</time>
      </trkpt>
      <trkpt lat="50.99195" lon="2.00021">
        <ele>3.6</ele>
        <time>2020-06-22T21:57:13Z</time>
      </trkpt>
      <trkpt lat="50.99194" lon="2.00025">
        <ele>3.6</ele>
        <time>2020-06-22T21:57:14Z</time>
      </trkpt>
      <trkpt lat="50.99192" lon="2.00029">
        <ele>3.6</ele>
        <time>2020-06-22T21:57:15Z</time>
      </trkpt>
      <trkpt lat="50.99189" lon="2.00032">
        <ele>3.7</ele>
        <time>2020-06-22T21:57:16Z</time>
      </trkpt>
      <trkpt lat="50.99186" lon="2.00035">
        <ele>3.7</ele>
        <time>2020-06-22T21:57:17Z</time>
      </trkpt>
      <trkpt lat="50.99184" lon="2.00039">
        <ele>3.7</ele>
        <time>2020-06-22T21:57:18Z</time>
      </trkpt>
      <trkpt lat="50.99182" lon="2.00042">
        <ele>3.7</ele>
        <time>2020-06-22T21:57:19Z</time>
      </trkpt>
      <trkpt lat="50.99179" lon="2.00046">
        <ele>3.7</ele>
        <time>2020-06-22T21:57:20Z</time>
      </trkpt>
      <trkpt lat="50.99176" lon="2.0005">
        <ele>3.7</ele>
        <time>2020-06-22T21:57:21Z</time>
      </trkpt>
      <trkpt lat="50.9917" lon="2.00058">
        <ele>3.7</ele>
        <time>2020-06-22T21:57:22Z</time>
      </trkpt>
      <trkpt lat="50.99164" lon="2.00063">
        <ele>3.7</ele>
        <time>2020-06-22T21:57:23Z</time>
      </trkpt>
      <trkpt lat="50.99161" lon="2.00068">
        <ele>3.7</ele>
        <time>2020-06-22T21:57:24Z</time>
      </trkpt>
      <trkpt lat="50.99159" lon="2.00074">
        <ele>3.7</ele>
        <time>2020-06-22T21:57:25Z</time>
      </trkpt>
      <trkpt lat="50.99155" lon="2.00078">
        <ele>3.7</ele>
        <time>2020-06-22T21:57:26Z</time>
      </trkpt>
      <trkpt lat="50.99152" lon="2.00082">
        <ele>3.7</ele>
        <time>2020-06-22T21:57:27Z</time>
      </trkpt>
      <trkpt lat="50.99148" lon="2.00084">
        <ele>3.7</ele>
        <time>2020-06-22T21:57:28Z</time>
      </trkpt>
      <trkpt lat="50.99145" lon="2.00087">
        <ele>3.7</ele>
        <time>2020-06-22T21:57:29Z</time>
      </trkpt>
      <trkpt lat="50.9914" lon="2.00088">
        <ele>3.7</ele>
        <time>2020-06-22T21:57:30Z</time>
      </trkpt>
      <trkpt lat="50.99135" lon="2.0009">
        <ele>3.6</ele>
        <time>2020-06-22T21:57:31Z</time>
      </trkpt>
      <trkpt lat="50.9913" lon="2.00092">
        <ele>3.6</ele>
        <time>2020-06-22T21:57:32Z</time>
      </trkpt>
      <trkpt lat="50.99124" lon="2.00095">
        <ele>3.6</ele>
        <time>2020-06-22T21:57:33Z</time>
      </trkpt>
      <trkpt lat="50.99121" lon="2.00099">
        <ele>3.6</ele>
        <time>2020-06-22T21:57:34Z</time>
      </trkpt>
      <trkpt lat="50.99118" lon="2.00103">
        <ele>3.6</ele>
        <time>2020-06-22T21:57:35Z</time>
      </trkpt>
      <trkpt lat="50.99117" lon="2.00109">
        <ele>3.5</ele>
        <time>2020-06-22T21:57:36Z</time>
      </trkpt>
      <trkpt lat="50.99117" lon="2.00116">
        <ele>3.5</ele>
        <time>2020-06-22T21:57:37Z</time>
      </trkpt>
      <trkpt lat="50.99116" lon="2.00121">
        <ele>3.5</ele>
        <time>2020-06-22T21:57:38Z</time>
      </trkpt>
      <trkpt lat="50.99117" lon="2.00127">
        <ele>3.5</ele>
        <time>2020-06-22T21:57:39Z</time>
      </trkpt>
      <trkpt lat="50.99118" lon="2.00132">
        <ele>3.5</ele>
        <time>2020-06-22T21:57:40Z</time>
      </trkpt>
      <trkpt lat="50.99118" lon="2.00138">
        <ele>3.5</ele>
        <time>2020-06-22T21:57:41Z</time>
      </trkpt>
      <trkpt lat="50.9912" lon="2.00143">
        <ele>3.5</ele>
        <time>2020-06-22T21:57:42Z</time>
      </trkpt>
      <trkpt lat="50.99121" lon="2.00148">
        <ele>3.5</ele>
        <time>2020-06-22T21:57:43Z</time>
      </trkpt>
      <trkpt lat="50.99121" lon="2.00153">
        <ele>3.5</ele>
        <time>2020-06-22T21:57:44Z</time>
      </trkpt>
      <trkpt lat="50.99121" lon="2.00157">
        <ele>3.5</ele>
        <time>2020-06-22T21:57:45Z</time>
      </trkpt>
      <trkpt lat="50.99122" lon="2.00163">
        <ele>3.5</ele>
        <time>2020-06-22T21:57:46Z</time>
      </trkpt>
      <trkpt lat="50.99123" lon="2.00165">
        <ele>3.5</ele>
        <time>2020-06-22T21:57:47Z</time>
      </trkpt>
      <trkpt lat="50.99124" lon="2.0017">
        <ele>3.5</ele>
        <time>2020-06-22T21:57:48Z</time>
      </trkpt>
      <trkpt lat="50.99124" lon="2.00174">
        <ele>3.5</ele>
        <time>2020-06-22T21:57:49Z</time>
      </trkpt>
      <trkpt lat="50.99125" lon="2.00179">
        <ele>3.5</ele>
        <time>2020-06-22T21:57:50Z</time>
      </trkpt>
      <trkpt lat="50.99126" lon="2.00184">
        <ele>3.5</ele>
        <time>2020-06-22T21:57:51Z</time>
      </trkpt>
      <trkpt lat="50.99127" lon="2.0019">
        <ele>3.5</ele>
        <time>2020-06-22T21:57:52Z</time>
      </trkpt>
      <trkpt lat="50.99128" lon="2.00196">
        <ele>3.4</ele>
        <time>2020-06-22T21:57:53Z</time>
      </trkpt>
      <trkpt lat="50.99128" lon="2.00202">
        <ele>3.4</ele>
        <time>2020-06-22T21:57:54Z</time>
      </trkpt>
      <trkpt lat="50.99128" lon="2.00208">
        <ele>3.4</ele>
        <time>2020-06-22T21:57:55Z</time>
      </trkpt>
      <trkpt lat="50.99128" lon="2.00213">
        <ele>3.4</ele>
        <time>2020-06-22T21:57:56Z</time>
      </trkpt>
      <trkpt lat="50.99127" lon="2.00219">
        <ele>3.4</ele>
        <time>2020-06-22T21:57:57Z</time>
      </trkpt>
      <trkpt lat="50.99126" lon="2.00223">
        <ele>3.4</ele>
        <time>2020-06-22T21:57:58Z</time>
      </trkpt>
      <trkpt lat="50.99127" lon="2.00228">
        <ele>3.4</ele>
        <time>2020-06-22T21:57:59Z</time>
      </trkpt>
      <trkpt lat="50.99127" lon="2.00234">
        <ele>3.4</ele>
        <time>2020-06-22T21:58:00Z</time>
      </trkpt>
      <trkpt lat="50.99127" lon="2.00239">
        <ele>3.4</ele>
        <time>2020-06-22T21:58:01Z</time>
      </trkpt>
      <trkpt lat="50.99129" lon="2.00243">
        <ele>3.4</ele>
        <time>2020-06-22T21:58:02Z</time>
      </trkpt>
      <trkpt lat="50.99129" lon="2.00247">
        <ele>3.4</ele>
        <time>2020-06-22T21:58:03Z</time>
      </trkpt>
      <trkpt lat="50.99128" lon="2.00252">
        <ele>3.4</ele>
        <time>2020-06-22T21:58:04Z</time>
      </trkpt>
      <trkpt lat="50.99129" lon="2.00257">
        <ele>3.4</ele>
        <time>2020-06-22T21:58:05Z</time>
      </trkpt>
      <trkpt lat="50.99128" lon="2.00263">
        <ele>3.4</ele>
        <time>2020-06-22T21:58:06Z</time>
      </trkpt>
      <trkpt lat="50.99129" lon="2.00268">
        <ele>3.5</ele>
        <time>2020-06-22T21:58:07Z</time>
      </trkpt>
      <trkpt lat="50.9913" lon="2.00274">
        <ele>3.5</ele>
        <time>2020-06-22T21:58:08Z</time>
      </trkpt>
      <trkpt lat="50.9913" lon="2.0028">
        <ele>3.5</ele>
        <time>2020-06-22T21:58:09Z</time>
      </trkpt>
      <trkpt lat="50.99132" lon="2.00286">
        <ele>3.5</ele>
        <time>2020-06-22T21:58:10Z</time>
      </trkpt>
      <trkpt lat="50.99131" lon="2.00291">
        <ele>3.5</ele>
        <time>2020-06-22T21:58:11Z</time>
      </trkpt>
      <trkpt lat="50.99131" lon="2.00296">
        <ele>3.5</ele>
        <time>2020-06-22T21:58:12Z</time>
      </trkpt>
      <trkpt lat="50.99131" lon="2.00301">
        <ele>3.5</ele>
        <time>2020-06-22T21:58:13Z</time>
      </trkpt>
      <trkpt lat="50.99131" lon="2.00305">
        <ele>3.5</ele>
        <time>2020-06-22T21:58:14Z</time>
      </trkpt>
      <trkpt lat="50.99132" lon="2.0031">
        <ele>3.5</ele>
        <time>2020-06-22T21:58:15Z</time>
      </trkpt>
      <trkpt lat="50.99133" lon="2.00315">
        <ele>3.5</ele>
        <time>2020-06-22T21:58:16Z</time>
      </trkpt>
      <trkpt lat="50.99133" lon="2.00321">
        <ele>3.5</ele>
        <time>2020-06-22T21:58:17Z</time>
      </trkpt>
      <trkpt lat="50.99134" lon="2.00323">
        <ele>3.5</ele>
        <time>2020-06-22T21:58:18Z</time>
      </trkpt>
      <trkpt lat="50.99136" lon="2.00327">
        <ele>3.5</ele>
        <time>2020-06-22T21:58:19Z</time>
      </trkpt>
      <trkpt lat="50.99136" lon="2.00329">
        <ele>3.5</ele>
        <time>2020-06-22T21:58:20Z</time>
      </trkpt>
      <trkpt lat="50.99137" lon="2.00335">
        <ele>3.5</ele>
        <time>2020-06-22T21:58:21Z</time>
      </trkpt>
      <trkpt lat="50.99137" lon="2.00337">
        <ele>3.5</ele>
        <time>2020-06-22T21:58:22Z</time>
      </trkpt>
      <trkpt lat="50.99138" lon="2.00342">
        <ele>3.5</ele>
        <time>2020-06-22T21:58:23Z</time>
      </trkpt>
      <trkpt lat="50.99138" lon="2.00344">
        <ele>3.5</ele>
        <time>2020-06-22T21:58:24Z</time>
      </trkpt>
      <trkpt lat="50.99138" lon="2.00349">
        <ele>3.5</ele>
        <time>2020-06-22T21:58:25Z</time>
      </trkpt>
      <trkpt lat="50.99139" lon="2.00352">
        <ele>3.5</ele>
        <time>2020-06-22T21:58:26Z</time>
      </trkpt>
      <trkpt lat="50.99139" lon="2.00357">
        <ele>3.5</ele>
        <time>2020-06-22T21:58:27Z</time>
      </trkpt>
      <trkpt lat="50.9914" lon="2.00362">
        <ele>3.5</ele>
        <time>2020-06-22T21:58:28Z</time>
      </trkpt>
      <trkpt lat="50.9914" lon="2.00368">
        <ele>3.5</ele>
        <time>2020-06-22T21:58:29Z</time>
      </trkpt>
      <trkpt lat="50.9914" lon="2.00369">
        <ele>3.5</ele>
        <time>2020-06-22T21:58:30Z</time>
      </trkpt>
      <trkpt lat="50.99139" lon="2.00376">
        <ele>3.5</ele>
        <time>2020-06-22T21:58:31Z</time>
      </trkpt>
      <trkpt lat="50.99139" lon="2.00378">
        <ele>3.5</ele>
        <time>2020-06-22T21:58:32Z</time>
      </trkpt>
      <trkpt lat="50.99139" lon="2.00383">
        <ele>3.6</ele>
        <time>2020-06-22T21:58:33Z</time>
      </trkpt>
      <trkpt lat="50.99139" lon="2.00388">
        <ele>3.6</ele>
        <time>2020-06-22T21:58:34Z</time>
      </trkpt>
      <trkpt lat="50.99139" lon="2.00394">
        <ele>3.6</ele>
        <time>2020-06-22T21:58:35Z</time>
      </trkpt>
      <trkpt lat="50.99138" lon="2.00399">
        <ele>3.6</ele>
        <time>2020-06-22T21:58:36Z</time>
      </trkpt>
      <trkpt lat="50.99137" lon="2.00404">
        <ele>3.6</ele>
        <time>2020-06-22T21:58:37Z</time>
      </trkpt>
      <trkpt lat="50.99137" lon="2.0041">
        <ele>3.6</ele>
        <time>2020-06-22T21:58:38Z</time>
      </trkpt>
      <trkpt lat="50.99137" lon="2.00415">
        <ele>3.7</ele>
        <time>2020-06-22T21:58:39Z</time>
      </trkpt>
      <trkpt lat="50.99138" lon="2.00421">
        <ele>3.7</ele>
        <time>2020-06-22T21:58:40Z</time>
      </trkpt>
      <trkpt lat="50.9914" lon="2.00428">
        <ele>3.7</ele>
        <time>2020-06-22T21:58:41Z</time>
      </trkpt>
      <trkpt lat="50.9914" lon="2.00434">
        <ele>3.7</ele>
        <time>2020-06-22T21:58:42Z</time>
      </trkpt>
      <trkpt lat="50.99141" lon="2.00439">
        <ele>3.7</ele>
        <time>2020-06-22T21:58:43Z</time>
      </trkpt>
      <trkpt lat="50.99141" lon="2.00441">
        <ele>3.7</ele>
        <time>2020-06-22T21:58:44Z</time>
      </trkpt>
      <trkpt lat="50.99142" lon="2.00445">
        <ele>3.7</ele>
        <time>2020-06-22T21:58:45Z</time>
      </trkpt>
      <trkpt lat="50.99142" lon="2.00451">
        <ele>3.7</ele>
        <time>2020-06-22T21:58:46Z</time>
      </trkpt>
      <trkpt lat="50.99142" lon="2.00453">
        <ele>3.7</ele>
        <time>2020-06-22T21:58:47Z</time>
      </trkpt>
      <trkpt lat="50.99143" lon="2.00458">
        <ele>3.8</ele>
        <time>2020-06-22T21:58:48Z</time>
      </trkpt>
      <trkpt lat="50.99143" lon="2.00464">
        <ele>3.8</ele>
        <time>2020-06-22T21:58:49Z</time>
      </trkpt>
      <trkpt lat="50.99143" lon="2.00469">
        <ele>3.8</ele>
        <time>2020-06-22T21:58:50Z</time>
      </trkpt>
      <trkpt lat="50.99143" lon="2.00475">
        <ele>3.8</ele>
        <time>2020-06-22T21:58:51Z</time>
      </trkpt>
      <trkpt lat="50.99144" lon="2.00481">
        <ele>3.8</ele>
        <time>2020-06-22T21:58:52Z</time>
      </trkpt>
      <trkpt lat="50.99145" lon="2.00486">
        <ele>3.8</ele>
        <time>2020-06-22T21:58:53Z</time>
      </trkpt>
      <trkpt lat="50.99147" lon="2.00495">
        <ele>3.8</ele>
        <time>2020-06-22T21:58:54Z</time>
      </trkpt>
      <trkpt lat="50.99147" lon="2.00498">
        <ele>3.8</ele>
        <time>2020-06-22T21:58:55Z</time>
      </trkpt>
      <trkpt lat="50.99148" lon="2.00506">
        <ele>3.8</ele>
        <time>2020-06-22T21:58:56Z</time>
      </trkpt>
      <trkpt lat="50.99149" lon="2.00512">
        <ele>3.8</ele>
        <time>2020-06-22T21:58:57Z</time>
      </trkpt>
      <trkpt lat="50.9915" lon="2.00516">
        <ele>3.8</ele>
        <time>2020-06-22T21:58:58Z</time>
      </trkpt>
      <trkpt lat="50.99151" lon="2.00521">
        <ele>3.8</ele>
        <time>2020-06-22T21:58:59Z</time>
      </trkpt>
      <trkpt lat="50.99152" lon="2.00527">
        <ele>3.8</ele>
        <time>2020-06-22T21:59:00Z</time>
      </trkpt>
      <trkpt lat="50.99153" lon="2.00532">
        <ele>3.8</ele>
        <time>2020-06-22T21:59:01Z</time>
      </trkpt>
      <trkpt lat="50.99153" lon="2.00536">
        <ele>3.8</ele>
        <time>2020-06-22T21:59:02Z</time>
      </trkpt>
      <trkpt lat="50.99154" lon="2.0054">
        <ele>3.8</ele>
        <time>2020-06-22T21:59:03Z</time>
      </trkpt>
      <trkpt lat="50.99155" lon="2.00548">
        <ele>3.8</ele>
        <time>2020-06-22T21:59:04Z</time>
      </trkpt>
      <trkpt lat="50.99155" lon="2.00551">
        <ele>3.9</ele>
        <time>2020-06-22T21:59:05Z</time>
      </trkpt>
      <trkpt lat="50.99155" lon="2.00556">
        <ele>3.9</ele>
        <time>2020-06-22T21:59:06Z</time>
      </trkpt>
      <trkpt lat="50.99156" lon="2.00561">
        <ele>3.9</ele>
        <time>2020-06-22T21:59:07Z</time>
      </trkpt>
      <trkpt lat="50.99157" lon="2.00567">
        <ele>3.9</ele>
        <time>2020-06-22T21:59:08Z</time>
      </trkpt>
      <trkpt lat="50.99158" lon="2.00574">
        <ele>3.9</ele>
        <time>2020-06-22T21:59:09Z</time>
      </trkpt>
      <trkpt lat="50.9916" lon="2.00585">
        <ele>3.8</ele>
        <time>2020-06-22T21:59:10Z</time>
      </trkpt>
      <trkpt lat="50.99162" lon="2.00596">
        <ele>3.8</ele>
        <time>2020-06-22T21:59:11Z</time>
      </trkpt>
      <trkpt lat="50.99163" lon="2.00604">
        <ele>3.9</ele>
        <time>2020-06-22T21:59:12Z</time>
      </trkpt>
      <trkpt lat="50.99164" lon="2.00611">
        <ele>3.9</ele>
        <time>2020-06-22T21:59:13Z</time>
      </trkpt>
      <trkpt lat="50.99165" lon="2.00616">
        <ele>3.9</ele>
        <time>2020-06-22T21:59:14Z</time>
      </trkpt>
      <trkpt lat="50.99166" lon="2.00621">
        <ele>3.9</ele>
        <time>2020-06-22T21:59:15Z</time>
      </trkpt>
      <trkpt lat="50.99167" lon="2.00628">
        <ele>3.9</ele>
        <time>2020-06-22T21:59:16Z</time>
      </trkpt>
      <trkpt lat="50.99168" lon="2.00633">
        <ele>3.9</ele>
        <time>2020-06-22T21:59:17Z</time>
      </trkpt>
      <trkpt lat="50.99167" lon="2.0064">
        <ele>3.9</ele>
        <time>2020-06-22T21:59:18Z</time>
      </trkpt>
      <trkpt lat="50.99167" lon="2.00647">
        <ele>3.9</ele>
        <time>2020-06-22T21:59:19Z</time>
      </trkpt>
      <trkpt lat="50.99169" lon="2.00653">
        <ele>4</ele>
        <time>2020-06-22T21:59:20Z</time>
      </trkpt>
      <trkpt lat="50.99169" lon="2.00658">
        <ele>4</ele>
        <time>2020-06-22T21:59:21Z</time>
      </trkpt>
      <trkpt lat="50.9917" lon="2.00664">
        <ele>4</ele>
        <time>2020-06-22T21:59:22Z</time>
      </trkpt>
      <trkpt lat="50.99171" lon="2.00672">
        <ele>4</ele>
        <time>2020-06-22T21:59:23Z</time>
      </trkpt>
      <trkpt lat="50.99172" lon="2.00678">
        <ele>4</ele>
        <time>2020-06-22T21:59:24Z</time>
      </trkpt>
      <trkpt lat="50.99172" lon="2.00685">
        <ele>4</ele>
        <time>2020-06-22T21:59:25Z</time>
      </trkpt>
      <trkpt lat="50.99172" lon="2.00691">
        <ele>4</ele>
        <time>2020-06-22T21:59:26Z</time>
      </trkpt>
      <trkpt lat="50.99173" lon="2.00697">
        <ele>4</ele>
        <time>2020-06-22T21:59:27Z</time>
      </trkpt>
      <trkpt lat="50.99174" lon="2.00703">
        <ele>4</ele>
        <time>2020-06-22T21:59:28Z</time>
      </trkpt>
      <trkpt lat="50.99174" lon="2.00708">
        <ele>4</ele>
        <time>2020-06-22T21:59:29Z</time>
      </trkpt>
      <trkpt lat="50.99175" lon="2.00715">
        <ele>4</ele>
        <time>2020-06-22T21:59:30Z</time>
      </trkpt>
      <trkpt lat="50.99176" lon="2.0072">
        <ele>4</ele>
        <time>2020-06-22T21:59:31Z</time>
      </trkpt>
      <trkpt lat="50.99177" lon="2.00727">
        <ele>4</ele>
        <time>2020-06-22T21:59:32Z</time>
      </trkpt>
      <trkpt lat="50.99178" lon="2.00733">
        <ele>4</ele>
        <time>2020-06-22T21:59:33Z</time>
      </trkpt>
      <trkpt lat="50.99179" lon="2.0074">
        <ele>4</ele>
        <time>2020-06-22T21:59:34Z</time>
      </trkpt>
      <trkpt lat="50.9918" lon="2.00745">
        <ele>4</ele>
        <time>2020-06-22T21:59:35Z</time>
      </trkpt>
      <trkpt lat="50.9918" lon="2.00746">
        <ele>4</ele>
        <time>2020-06-22T21:59:36Z</time>
      </trkpt>
      <trkpt lat="50.99181" lon="2.00753">
        <ele>4</ele>
        <time>2020-06-22T21:59:37Z</time>
      </trkpt>
      <trkpt lat="50.99182" lon="2.00758">
        <ele>4</ele>
        <time>2020-06-22T21:59:38Z</time>
      </trkpt>
      <trkpt lat="50.99184" lon="2.00765">
        <ele>4</ele>
        <time>2020-06-22T21:59:39Z</time>
      </trkpt>
      <trkpt lat="50.99186" lon="2.00771">
        <ele>4</ele>
        <time>2020-06-22T21:59:40Z</time>
      </trkpt>
      <trkpt lat="50.99187" lon="2.00776">
        <ele>4.1</ele>
        <time>2020-06-22T21:59:41Z</time>
      </trkpt>
      <trkpt lat="50.99188" lon="2.00782">
        <ele>4.1</ele>
        <time>2020-06-22T21:59:42Z</time>
      </trkpt>
      <trkpt lat="50.99189" lon="2.00791">
        <ele>4.1</ele>
        <time>2020-06-22T21:59:43Z</time>
      </trkpt>
      <trkpt lat="50.9919" lon="2.00797">
        <ele>4.1</ele>
        <time>2020-06-22T21:59:44Z</time>
      </trkpt>
      <trkpt lat="50.99191" lon="2.00805">
        <ele>4.1</ele>
        <time>2020-06-22T21:59:45Z</time>
      </trkpt>
      <trkpt lat="50.99191" lon="2.00811">
        <ele>4.1</ele>
        <time>2020-06-22T21:59:46Z</time>
      </trkpt>
      <trkpt lat="50.9919" lon="2.00819">
        <ele>4.1</ele>
        <time>2020-06-22T21:59:47Z</time>
      </trkpt>
      <trkpt lat="50.99189" lon="2.00823">
        <ele>4.1</ele>
        <time>2020-06-22T21:59:48Z</time>
      </trkpt>
      <trkpt lat="50.9919" lon="2.00831">
        <ele>4.1</ele>
        <time>2020-06-22T21:59:49Z</time>
      </trkpt>
      <trkpt lat="50.99191" lon="2.00838">
        <ele>4.1</ele>
        <time>2020-06-22T21:59:50Z</time>
      </trkpt>
      <trkpt lat="50.99191" lon="2.00843">
        <ele>4.1</ele>
        <time>2020-06-22T21:59:51Z</time>
      </trkpt>
      <trkpt lat="50.99192" lon="2.00848">
        <ele>4.1</ele>
        <time>2020-06-22T21:59:52Z</time>
      </trkpt>
      <trkpt lat="50.99193" lon="2.00857">
        <ele>4.1</ele>
        <time>2020-06-22T21:59:53Z</time>
      </trkpt>
      <trkpt lat="50.99194" lon="2.00863">
        <ele>4.1</ele>
        <time>2020-06-22T21:59:54Z</time>
      </trkpt>
      <trkpt lat="50.99195" lon="2.00869">
        <ele>4.1</ele>
        <time>2020-06-22T21:59:55Z</time>
      </trkpt>
      <trkpt lat="50.99196" lon="2.00875">
        <ele>4.1</ele>
        <time>2020-06-22T21:59:56Z</time>
      </trkpt>
      <trkpt lat="50.99197" lon="2.00882">
        <ele>4.2</ele>
        <time>2020-06-22T21:59:57Z</time>
      </trkpt>
      <trkpt lat="50.99198" lon="2.00889">
        <ele>4.1</ele>
        <time>2020-06-22T21:59:58Z</time>
      </trkpt>
      <trkpt lat="50.992" lon="2.00897">
        <ele>4.1</ele>
        <time>2020-06-22T21:59:59Z</time>
      </trkpt>
      <trkpt lat="50.99201" lon="2.00904">
        <ele>4.1</ele>
        <time>2020-06-22T22:00:00Z</time>
      </trkpt>
      <trkpt lat="50.99203" lon="2.00911">
        <ele>4.1</ele>
        <time>2020-06-22T22:00:01Z</time>
      </trkpt>
      <trkpt lat="50.99205" lon="2.00918">
        <ele>4.1</ele>
        <time>2020-06-22T22:00:02Z</time>
      </trkpt>
      <trkpt lat="50.99206" lon="2.00925">
        <ele>4.1</ele>
        <time>2020-06-22T22:00:03Z</time>
      </trkpt>
      <trkpt lat="50.99207" lon="2.00931">
        <ele>4.1</ele>
        <time>2020-06-22T22:00:04Z</time>
      </trkpt>
      <trkpt lat="50.99208" lon="2.00939">
        <ele>4.1</ele>
        <time>2020-06-22T22:00:05Z</time>
      </trkpt>
      <trkpt lat="50.99209" lon="2.00947">
        <ele>4.1</ele>
        <time>2020-06-22T22:00:06Z</time>
      </trkpt>
      <trkpt lat="50.9921" lon="2.00953">
        <ele>4.1</ele>
        <time>2020-06-22T22:00:07Z</time>
      </trkpt>
      <trkpt lat="50.99211" lon="2.00959">
        <ele>4.1</ele>
        <time>2020-06-22T22:00:08Z</time>
      </trkpt>
      <trkpt lat="50.99212" lon="2.00966">
        <ele>4.1</ele>
        <time>2020-06-22T22:00:09Z</time>
      </trkpt>
      <trkpt lat="50.99213" lon="2.00972">
        <ele>4</ele>
        <time>2020-06-22T22:00:10Z</time>
      </trkpt>
      <trkpt lat="50.99213" lon="2.00978">
        <ele>4</ele>
        <time>2020-06-22T22:00:11Z</time>
      </trkpt>
      <trkpt lat="50.99214" lon="2.00986">
        <ele>4.1</ele>
        <time>2020-06-22T22:00:12Z</time>
      </trkpt>
      <trkpt lat="50.99215" lon="2.00993">
        <ele>4.1</ele>
        <time>2020-06-22T22:00:13Z</time>
      </trkpt>
      <trkpt lat="50.99217" lon="2.01">
        <ele>4.1</ele>
        <time>2020-06-22T22:00:14Z</time>
      </trkpt>
      <trkpt lat="50.99218" lon="2.01007">
        <ele>4.1</ele>
        <time>2020-06-22T22:00:15Z</time>
      </trkpt>
      <trkpt lat="50.99219" lon="2.01014">
        <ele>4.1</ele>
        <time>2020-06-22T22:00:16Z</time>
      </trkpt>
      <trkpt lat="50.9922" lon="2.0102">
        <ele>4.1</ele>
        <time>2020-06-22T22:00:17Z</time>
      </trkpt>
      <trkpt lat="50.99221" lon="2.01025">
        <ele>4.1</ele>
        <time>2020-06-22T22:00:18Z</time>
      </trkpt>
      <trkpt lat="50.99222" lon="2.01031">
        <ele>4.1</ele>
        <time>2020-06-22T22:00:19Z</time>
      </trkpt>
      <trkpt lat="50.99222" lon="2.01032">
        <ele>4.1</ele>
        <time>2020-06-22T22:00:20Z</time>
      </trkpt>
      <trkpt lat="50.99222" lon="2.01035">
        <ele>4.1</ele>
        <time>2020-06-22T22:00:21Z</time>
      </trkpt>
      <trkpt lat="50.99222" lon="2.01038">
        <ele>4.1</ele>
        <time>2020-06-22T22:00:22Z</time>
      </trkpt>
      <trkpt lat="50.99221" lon="2.01037">
        <ele>4.1</ele>
        <time>2020-06-22T22:00:23Z</time>
      </trkpt>
      <trkpt lat="50.99222" lon="2.01038">
        <ele>4.1</ele>
        <time>2020-06-22T22:00:24Z</time>
      </trkpt>
      <trkpt lat="50.99221" lon="2.0104">
        <ele>4.2</ele>
        <time>2020-06-22T22:00:25Z</time>
      </trkpt>
      <trkpt lat="50.99221" lon="2.0104">
        <ele>4.2</ele>
        <time>2020-06-22T22:00:26Z</time>
      </trkpt>
      <trkpt lat="50.9922" lon="2.0104">
        <ele>4.2</ele>
        <time>2020-06-22T22:00:27Z</time>
      </trkpt>
      <trkpt lat="50.9922" lon="2.01041">
        <ele>4.2</ele>
        <time>2020-06-22T22:00:28Z</time>
      </trkpt>
      <trkpt lat="50.9922" lon="2.01041">
        <ele>4.2</ele>
        <time>2020-06-22T22:00:29Z</time>
      </trkpt>
      <trkpt lat="50.99221" lon="2.01041">
        <ele>4.2</ele>
        <time>2020-06-22T22:00:30Z</time>
      </trkpt>
      <trkpt lat="50.99221" lon="2.01041">
        <ele>4.2</ele>
        <time>2020-06-22T22:00:31Z</time>
      </trkpt>
      <trkpt lat="50.99219" lon="2.01042">
        <ele>4.2</ele>
        <time>2020-06-22T22:00:32Z</time>
      </trkpt>
      <trkpt lat="50.99217" lon="2.01043">
        <ele>4.2</ele>
        <time>2020-06-22T22:00:33Z</time>
      </trkpt>
      <trkpt lat="50.99216" lon="2.01044">
        <ele>4.2</ele>
        <time>2020-06-22T22:01:20Z</time>
      </trkpt>
      <trkpt lat="50.99214" lon="2.01045">
        <ele>4.2</ele>
        <time>2020-06-22T22:01:21Z</time>
      </trkpt>
      <trkpt lat="50.99212" lon="2.01046">
        <ele>4.2</ele>
        <time>2020-06-22T22:01:22Z</time>
      </trkpt>
      <trkpt lat="50.99211" lon="2.01047">
        <ele>4.2</ele>
        <time>2020-06-22T22:01:23Z</time>
      </trkpt>
      <trkpt lat="50.99211" lon="2.01048">
        <ele>4.2</ele>
        <time>2020-06-22T22:01:24Z</time>
      </trkpt>
      <trkpt lat="50.99211" lon="2.01047">
        <ele>4.2</ele>
        <time>2020-06-22T22:01:25Z</time>
      </trkpt>
      <trkpt lat="50.9921" lon="2.01048">
        <ele>4.2</ele>
        <time>2020-06-22T22:01:26Z</time>
      </trkpt>
      <trkpt lat="50.9921" lon="2.01048">
        <ele>4.2</ele>
        <time>2020-06-22T22:01:27Z</time>
      </trkpt>
      <trkpt lat="50.9921" lon="2.01048">
        <ele>4.2</ele>
        <time>2020-06-22T22:01:28Z</time>
      </trkpt>
      <trkpt lat="50.9921" lon="2.01048">
        <ele>4.2</ele>
        <time>2020-06-22T22:01:29Z</time>
      </trkpt>
      <trkpt lat="50.9921" lon="2.01048">
        <ele>4.2</ele>
        <time>2020-06-22T22:01:30Z</time>
      </trkpt>
      <trkpt lat="50.9921" lon="2.0105">
        <ele>4.2</ele>
        <time>2020-06-22T22:01:31Z</time>
      </trkpt>
      <trkpt lat="50.99211" lon="2.01051">
        <ele>4.2</ele>
        <time>2020-06-22T22:01:32Z</time>
      </trkpt>
      <trkpt lat="50.99211" lon="2.0105">
        <ele>4.2</ele>
        <time>2020-06-22T22:01:33Z</time>
      </trkpt>
      <trkpt lat="50.9921" lon="2.01047">
        <ele>4.2</ele>
        <time>2020-06-22T22:01:34Z</time>
      </trkpt>
      <trkpt lat="50.99211" lon="2.01046">
        <ele>4.2</ele>
        <time>2020-06-22T22:01:35Z</time>
      </trkpt>
      <trkpt lat="50.99211" lon="2.01045">
        <ele>4.2</ele>
        <time>2020-06-22T22:01:36Z</time>
      </trkpt>
      <trkpt lat="50.99212" lon="2.01044">
        <ele>4.2</ele>
        <time>2020-06-22T22:01:37Z</time>
      </trkpt>
      <trkpt lat="50.99213" lon="2.01045">
        <ele>4.2</ele>
        <time>2020-06-22T22:01:38Z</time>
      </trkpt>
      <trkpt lat="50.99214" lon="2.01045">
        <ele>4.2</ele>
        <time>2020-06-22T22:01:39Z</time>
      </trkpt>
      <trkpt lat="50.99215" lon="2.01045">
        <ele>4.2</ele>
        <time>2020-06-22T22:01:40Z</time>
      </trkpt>
      <trkpt lat="50.99215" lon="2.01045">
        <ele>4.2</ele>
        <time>2020-06-22T22:01:41Z</time>
      </trkpt>
      <trkpt lat="50.99216" lon="2.01046">
        <ele>4.2</ele>
        <time>2020-06-22T22:01:42Z</time>
      </trkpt>
      <trkpt lat="50.99217" lon="2.01046">
        <ele>4.2</ele>
        <time>2020-06-22T22:01:43Z</time>
      </trkpt>
      <trkpt lat="50.99217" lon="2.01046">
        <ele>4.2</ele>
        <time>2020-06-22T22:01:44Z</time>
      </trkpt>
      <trkpt lat="50.99217" lon="2.01046">
        <ele>4.2</ele>
        <time>2020-06-22T22:01:45Z</time>
      </trkpt>
      <trkpt lat="50.99217" lon="2.01047">
        <ele>4.2</ele>
        <time>2020-06-22T22:01:46Z</time>
      </trkpt>
      <trkpt lat="50.99216" lon="2.01047">
        <ele>4.2</ele>
        <time>2020-06-22T22:01:47Z</time>
      </trkpt>
      <trkpt lat="50.99217" lon="2.01048">
        <ele>4.2</ele>
        <time>2020-06-22T22:01:48Z</time>
      </trkpt>
      <trkpt lat="50.99217" lon="2.01048">
        <ele>4.2</ele>
        <time>2020-06-22T22:01:49Z</time>
      </trkpt>
      <trkpt lat="50.99217" lon="2.01048">
        <ele>4.2</ele>
        <time>2020-06-22T22:01:50Z</time>
      </trkpt>
      <trkpt lat="50.99217" lon="2.01048">
        <ele>4.2</ele>
        <time>2020-06-22T22:01:51Z</time>
      </trkpt>
    </trkseg>
  </trk>
  <trk>
    <name><![CDATA[T19]]></name>
    <trkseg>
      <trkpt lat="50.99238" lon="2.01103">
        <ele>4.2</ele>
        <time>2020-06-23T08:49:24Z</time>
      </trkpt>
      <trkpt lat="50.99244" lon="2.01077">
        <ele>4.4</ele>
        <time>2020-06-23T08:49:25Z</time>
      </trkpt>
      <trkpt lat="50.99249" lon="2.01076">
        <ele>4.4</ele>
        <time>2020-06-23T08:49:26Z</time>
      </trkpt>
      <trkpt lat="50.99252" lon="2.01081">
        <ele>4.5</ele>
        <time>2020-06-23T08:49:27Z</time>
      </trkpt>
      <trkpt lat="50.99255" lon="2.0108">
        <ele>4.5</ele>
        <time>2020-06-23T08:49:29Z</time>
      </trkpt>
      <trkpt lat="50.99262" lon="2.01079">
        <ele>4.6</ele>
        <time>2020-06-23T08:51:06Z</time>
      </trkpt>
      <trkpt lat="50.99263" lon="2.01077">
        <ele>4.6</ele>
        <time>2020-06-23T08:51:07Z</time>
      </trkpt>
      <trkpt lat="50.99263" lon="2.01078">
        <ele>4.6</ele>
        <time>2020-06-23T08:51:08Z</time>
      </trkpt>
      <trkpt lat="50.99263" lon="2.01077">
        <ele>4.7</ele>
        <time>2020-06-23T08:51:09Z</time>
      </trkpt>
      <trkpt lat="50.99264" lon="2.01076">
        <ele>4.7</ele>
        <time>2020-06-23T08:51:10Z</time>
      </trkpt>
      <trkpt lat="50.99264" lon="2.01076">
        <ele>4.7</ele>
        <time>2020-06-23T08:51:11Z</time>
      </trkpt>
      <trkpt lat="50.99264" lon="2.01075">
        <ele>4.7</ele>
        <time>2020-06-23T08:51:12Z</time>
      </trkpt>
      <trkpt lat="50.99264" lon="2.01073">
        <ele>4.7</ele>
        <time>2020-06-23T08:51:13Z</time>
      </trkpt>
      <trkpt lat="50.99265" lon="2.01072">
        <ele>4.7</ele>
        <time>2020-06-23T08:51:14Z</time>
      </trkpt>
      <trkpt lat="50.99265" lon="2.0107">
        <ele>4.7</ele>
        <time>2020-06-23T08:51:15Z</time>
      </trkpt>
      <trkpt lat="50.99264" lon="2.01069">
        <ele>4.7</ele>
        <time>2020-06-23T08:51:16Z</time>
      </trkpt>
      <trkpt lat="50.99265" lon="2.01067">
        <ele>4.7</ele>
        <time>2020-06-23T08:51:17Z</time>
      </trkpt>
      <trkpt lat="50.99264" lon="2.01066">
        <ele>4.7</ele>
        <time>2020-06-23T08:51:18Z</time>
      </trkpt>
      <trkpt lat="50.99264" lon="2.01064">
        <ele>4.7</ele>
        <time>2020-06-23T08:51:19Z</time>
      </trkpt>
      <trkpt lat="50.99264" lon="2.01063">
        <ele>4.7</ele>
        <time>2020-06-23T08:51:20Z</time>
      </trkpt>
      <trkpt lat="50.99265" lon="2.01062">
        <ele>4.7</ele>
        <time>2020-06-23T08:51:21Z</time>
      </trkpt>
      <trkpt lat="50.99265" lon="2.01061">
        <ele>4.7</ele>
        <time>2020-06-23T08:51:22Z</time>
      </trkpt>
      <trkpt lat="50.99265" lon="2.01059">
        <ele>4.7</ele>
        <time>2020-06-23T08:51:23Z</time>
      </trkpt>
      <trkpt lat="50.99265" lon="2.01058">
        <ele>4.7</ele>
        <time>2020-06-23T08:51:24Z</time>
      </trkpt>
      <trkpt lat="50.99266" lon="2.01056">
        <ele>4.7</ele>
        <time>2020-06-23T08:51:25Z</time>
      </trkpt>
      <trkpt lat="50.99266" lon="2.01054">
        <ele>4.7</ele>
        <time>2020-06-23T08:51:26Z</time>
      </trkpt>
      <trkpt lat="50.99266" lon="2.01053">
        <ele>4.6</ele>
        <time>2020-06-23T08:51:27Z</time>
      </trkpt>
      <trkpt lat="50.99267" lon="2.01052">
        <ele>4.6</ele>
        <time>2020-06-23T08:51:28Z</time>
      </trkpt>
      <trkpt lat="50.99267" lon="2.0105">
        <ele>4.6</ele>
        <time>2020-06-23T08:51:29Z</time>
      </trkpt>
      <trkpt lat="50.99267" lon="2.01049">
        <ele>4.6</ele>
        <time>2020-06-23T08:51:30Z</time>
      </trkpt>
      <trkpt lat="50.99267" lon="2.01048">
        <ele>4.6</ele>
        <time>2020-06-23T08:51:31Z</time>
      </trkpt>
      <trkpt lat="50.99268" lon="2.01046">
        <ele>4.6</ele>
        <time>2020-06-23T08:51:32Z</time>
      </trkpt>
      <trkpt lat="50.99268" lon="2.01045">
        <ele>4.6</ele>
        <time>2020-06-23T08:51:33Z</time>
      </trkpt>
      <trkpt lat="50.99267" lon="2.01044">
        <ele>4.6</ele>
        <time>2020-06-23T08:51:34Z</time>
      </trkpt>
      <trkpt lat="50.99267" lon="2.01043">
        <ele>4.6</ele>
        <time>2020-06-23T08:51:35Z</time>
      </trkpt>
      <trkpt lat="50.99267" lon="2.01041">
        <ele>4.6</ele>
        <time>2020-06-23T08:51:36Z</time>
      </trkpt>
      <trkpt lat="50.99267" lon="2.0104">
        <ele>4.6</ele>
        <time>2020-06-23T08:51:37Z</time>
      </trkpt>
      <trkpt lat="50.99266" lon="2.01039">
        <ele>4.6</ele>
        <time>2020-06-23T08:51:38Z</time>
      </trkpt>
      <trkpt lat="50.99265" lon="2.01037">
        <ele>4.6</ele>
        <time>2020-06-23T08:51:39Z</time>
      </trkpt>
      <trkpt lat="50.99265" lon="2.01037">
        <ele>4.6</ele>
        <time>2020-06-23T08:51:40Z</time>
      </trkpt>
      <trkpt lat="50.99264" lon="2.01037">
        <ele>4.5</ele>
        <time>2020-06-23T08:51:41Z</time>
      </trkpt>
      <trkpt lat="50.99263" lon="2.01036">
        <ele>4.5</ele>
        <time>2020-06-23T08:51:42Z</time>
      </trkpt>
      <trkpt lat="50.99261" lon="2.01036">
        <ele>4.5</ele>
        <time>2020-06-23T08:51:43Z</time>
      </trkpt>
      <trkpt lat="50.9926" lon="2.01036">
        <ele>4.5</ele>
        <time>2020-06-23T08:51:44Z</time>
      </trkpt>
      <trkpt lat="50.99259" lon="2.01035">
        <ele>4.5</ele>
        <time>2020-06-23T08:51:45Z</time>
      </trkpt>
      <trkpt lat="50.99258" lon="2.01034">
        <ele>4.5</ele>
        <time>2020-06-23T08:51:46Z</time>
      </trkpt>
      <trkpt lat="50.99257" lon="2.01034">
        <ele>4.5</ele>
        <time>2020-06-23T08:51:47Z</time>
      </trkpt>
      <trkpt lat="50.99256" lon="2.01034">
        <ele>4.5</ele>
        <time>2020-06-23T08:51:48Z</time>
      </trkpt>
      <trkpt lat="50.99254" lon="2.01034">
        <ele>4.5</ele>
        <time>2020-06-23T08:51:49Z</time>
      </trkpt>
      <trkpt lat="50.99253" lon="2.01033">
        <ele>4.5</ele>
        <time>2020-06-23T08:51:50Z</time>
      </trkpt>
      <trkpt lat="50.99252" lon="2.01033">
        <ele>4.4</ele>
        <time>2020-06-23T08:51:51Z</time>
      </trkpt>
      <trkpt lat="50.99251" lon="2.01033">
        <ele>4.4</ele>
        <time>2020-06-23T08:51:52Z</time>
      </trkpt>
      <trkpt lat="50.99249" lon="2.01032">
        <ele>4.4</ele>
        <time>2020-06-23T08:51:53Z</time>
      </trkpt>
      <trkpt lat="50.99248" lon="2.01031">
        <ele>4.4</ele>
        <time>2020-06-23T08:51:54Z</time>
      </trkpt>
      <trkpt lat="50.99247" lon="2.01031">
        <ele>4.4</ele>
        <time>2020-06-23T08:51:55Z</time>
      </trkpt>
      <trkpt lat="50.99247" lon="2.01031">
        <ele>4.4</ele>
        <time>2020-06-23T08:51:56Z</time>
      </trkpt>
      <trkpt lat="50.99245" lon="2.01031">
        <ele>4.4</ele>
        <time>2020-06-23T08:51:57Z</time>
      </trkpt>
      <trkpt lat="50.99245" lon="2.0103">
        <ele>4.4</ele>
        <time>2020-06-23T08:51:58Z</time>
      </trkpt>
      <trkpt lat="50.99244" lon="2.0103">
        <ele>4.4</ele>
        <time>2020-06-23T08:51:59Z</time>
      </trkpt>
      <trkpt lat="50.99243" lon="2.0103">
        <ele>4.4</ele>
        <time>2020-06-23T08:52:00Z</time>
      </trkpt>
      <trkpt lat="50.99241" lon="2.0103">
        <ele>4.4</ele>
        <time>2020-06-23T08:52:01Z</time>
      </trkpt>
      <trkpt lat="50.9924" lon="2.0103">
        <ele>4.3</ele>
        <time>2020-06-23T08:52:02Z</time>
      </trkpt>
      <trkpt lat="50.99238" lon="2.0103">
        <ele>4.3</ele>
        <time>2020-06-23T08:52:03Z</time>
      </trkpt>
      <trkpt lat="50.99237" lon="2.0103">
        <ele>4.3</ele>
        <time>2020-06-23T08:52:04Z</time>
      </trkpt>
      <trkpt lat="50.99236" lon="2.0103">
        <ele>4.3</ele>
        <time>2020-06-23T08:52:05Z</time>
      </trkpt>
      <trkpt lat="50.99236" lon="2.01029">
        <ele>4.3</ele>
        <time>2020-06-23T08:52:06Z</time>
      </trkpt>
      <trkpt lat="50.99234" lon="2.01029">
        <ele>4.3</ele>
        <time>2020-06-23T08:52:07Z</time>
      </trkpt>
      <trkpt lat="50.99233" lon="2.0103">
        <ele>4.3</ele>
        <time>2020-06-23T08:52:08Z</time>
      </trkpt>
      <trkpt lat="50.99232" lon="2.0103">
        <ele>4.3</ele>
        <time>2020-06-23T08:52:09Z</time>
      </trkpt>
      <trkpt lat="50.99231" lon="2.0103">
        <ele>4.3</ele>
        <time>2020-06-23T08:52:10Z</time>
      </trkpt>
      <trkpt lat="50.99231" lon="2.01031">
        <ele>4.3</ele>
        <time>2020-06-23T08:52:11Z</time>
      </trkpt>
      <trkpt lat="50.99231" lon="2.01031">
        <ele>4.3</ele>
        <time>2020-06-23T08:52:12Z</time>
      </trkpt>
      <trkpt lat="50.99231" lon="2.01032">
        <ele>4.3</ele>
        <time>2020-06-23T08:52:13Z</time>
      </trkpt>
      <trkpt lat="50.99231" lon="2.01032">
        <ele>4.3</ele>
        <time>2020-06-23T08:52:14Z</time>
      </trkpt>
      <trkpt lat="50.99231" lon="2.01032">
        <ele>4.3</ele>
        <time>2020-06-23T08:52:15Z</time>
      </trkpt>
      <trkpt lat="50.99231" lon="2.01032">
        <ele>4.3</ele>
        <time>2020-06-23T08:52:16Z</time>
      </trkpt>
      <trkpt lat="50.9923" lon="2.01032">
        <ele>4.3</ele>
        <time>2020-06-23T08:52:17Z</time>
      </trkpt>
      <trkpt lat="50.99229" lon="2.01032">
        <ele>4.2</ele>
        <time>2020-06-23T08:52:18Z</time>
      </trkpt>
      <trkpt lat="50.99227" lon="2.01032">
        <ele>4.2</ele>
        <time>2020-06-23T08:52:19Z</time>
      </trkpt>
      <trkpt lat="50.99225" lon="2.01033">
        <ele>4.2</ele>
        <time>2020-06-23T08:52:20Z</time>
      </trkpt>
      <trkpt lat="50.99224" lon="2.01034">
        <ele>4.2</ele>
        <time>2020-06-23T08:52:21Z</time>
      </trkpt>
      <trkpt lat="50.99224" lon="2.01034">
        <ele>4.2</ele>
        <time>2020-06-23T08:52:22Z</time>
      </trkpt>
      <trkpt lat="50.99223" lon="2.01034">
        <ele>4.2</ele>
        <time>2020-06-23T08:52:23Z</time>
      </trkpt>
      <trkpt lat="50.99223" lon="2.01034">
        <ele>4.2</ele>
        <time>2020-06-23T08:52:24Z</time>
      </trkpt>
      <trkpt lat="50.99223" lon="2.01034">
        <ele>4.2</ele>
        <time>2020-06-23T08:52:25Z</time>
      </trkpt>
      <trkpt lat="50.99222" lon="2.01033">
        <ele>4.2</ele>
        <time>2020-06-23T08:52:26Z</time>
      </trkpt>
      <trkpt lat="50.9922" lon="2.01034">
        <ele>4.2</ele>
        <time>2020-06-23T08:52:27Z</time>
      </trkpt>
      <trkpt lat="50.99219" lon="2.01036">
        <ele>4.2</ele>
        <time>2020-06-23T08:52:28Z</time>
      </trkpt>
      <trkpt lat="50.99219" lon="2.01037">
        <ele>4.2</ele>
        <time>2020-06-23T08:52:29Z</time>
      </trkpt>
      <trkpt lat="50.99219" lon="2.01038">
        <ele>4.2</ele>
        <time>2020-06-23T08:52:30Z</time>
      </trkpt>
      <trkpt lat="50.99219" lon="2.01038">
        <ele>4.2</ele>
        <time>2020-06-23T08:52:31Z</time>
      </trkpt>
      <trkpt lat="50.9922" lon="2.0104">
        <ele>4.2</ele>
        <time>2020-06-23T08:52:32Z</time>
      </trkpt>
      <trkpt lat="50.9922" lon="2.0104">
        <ele>4.2</ele>
        <time>2020-06-23T08:52:33Z</time>
      </trkpt>
      <trkpt lat="50.9922" lon="2.0104">
        <ele>4.2</ele>
        <time>2020-06-23T08:52:34Z</time>
      </trkpt>
      <trkpt lat="50.9922" lon="2.0104">
        <ele>4.2</ele>
        <time>2020-06-23T08:52:35Z</time>
      </trkpt>
      <trkpt lat="50.9922" lon="2.01043">
        <ele>4.2</ele>
        <time>2020-06-23T08:52:36Z</time>
      </trkpt>
      <trkpt lat="50.99221" lon="2.01045">
        <ele>4.2</ele>
        <time>2020-06-23T08:52:37Z</time>
      </trkpt>
      <trkpt lat="50.99221" lon="2.01048">
        <ele>4.2</ele>
        <time>2020-06-23T08:52:38Z</time>
      </trkpt>
      <trkpt lat="50.99221" lon="2.0105">
        <ele>4.2</ele>
        <time>2020-06-23T08:52:39Z</time>
      </trkpt>
      <trkpt lat="50.99221" lon="2.01053">
        <ele>4.2</ele>
        <time>2020-06-23T08:52:40Z</time>
      </trkpt>
      <trkpt lat="50.99221" lon="2.01055">
        <ele>4.2</ele>
        <time>2020-06-23T08:54:33Z</time>
      </trkpt>
      <trkpt lat="50.99221" lon="2.01058">
        <ele>4.2</ele>
        <time>2020-06-23T08:54:34Z</time>
      </trkpt>
      <trkpt lat="50.99222" lon="2.01062">
        <ele>4.2</ele>
        <time>2020-06-23T08:54:35Z</time>
      </trkpt>
      <trkpt lat="50.99222" lon="2.01067">
        <ele>4.2</ele>
        <time>2020-06-23T08:54:36Z</time>
      </trkpt>
      <trkpt lat="50.99223" lon="2.01071">
        <ele>4.2</ele>
        <time>2020-06-23T08:54:37Z</time>
      </trkpt>
      <trkpt lat="50.99223" lon="2.01075">
        <ele>4.2</ele>
        <time>2020-06-23T08:54:38Z</time>
      </trkpt>
      <trkpt lat="50.99224" lon="2.01081">
        <ele>4.2</ele>
        <time>2020-06-23T08:54:39Z</time>
      </trkpt>
      <trkpt lat="50.99225" lon="2.01086">
        <ele>4.2</ele>
        <time>2020-06-23T08:54:40Z</time>
      </trkpt>
      <trkpt lat="50.99227" lon="2.01091">
        <ele>4.2</ele>
        <time>2020-06-23T08:54:41Z</time>
      </trkpt>
      <trkpt lat="50.99227" lon="2.01097">
        <ele>4.2</ele>
        <time>2020-06-23T08:54:42Z</time>
      </trkpt>
      <trkpt lat="50.99228" lon="2.01102">
        <ele>4.2</ele>
        <time>2020-06-23T08:54:43Z</time>
      </trkpt>
      <trkpt lat="50.99228" lon="2.01108">
        <ele>4.2</ele>
        <time>2020-06-23T08:54:44Z</time>
      </trkpt>
      <trkpt lat="50.99228" lon="2.01114">
        <ele>4.2</ele>
        <time>2020-06-23T08:54:45Z</time>
      </trkpt>
      <trkpt lat="50.99229" lon="2.0112">
        <ele>4.2</ele>
        <time>2020-06-23T08:54:46Z</time>
      </trkpt>
      <trkpt lat="50.9923" lon="2.01127">
        <ele>4.2</ele>
        <time>2020-06-23T08:54:47Z</time>
      </trkpt>
      <trkpt lat="50.99231" lon="2.01134">
        <ele>4.2</ele>
        <time>2020-06-23T08:54:48Z</time>
      </trkpt>
      <trkpt lat="50.99232" lon="2.01142">
        <ele>4.2</ele>
        <time>2020-06-23T08:54:49Z</time>
      </trkpt>
      <trkpt lat="50.99233" lon="2.01149">
        <ele>4.1</ele>
        <time>2020-06-23T08:54:50Z</time>
      </trkpt>
      <trkpt lat="50.99234" lon="2.01156">
        <ele>4.1</ele>
        <time>2020-06-23T08:54:51Z</time>
      </trkpt>
      <trkpt lat="50.99235" lon="2.01163">
        <ele>4.1</ele>
        <time>2020-06-23T08:54:52Z</time>
      </trkpt>
      <trkpt lat="50.99236" lon="2.0117">
        <ele>4.2</ele>
        <time>2020-06-23T08:54:53Z</time>
      </trkpt>
      <trkpt lat="50.99238" lon="2.01177">
        <ele>4.2</ele>
        <time>2020-06-23T08:54:54Z</time>
      </trkpt>
      <trkpt lat="50.99239" lon="2.01185">
        <ele>4.2</ele>
        <time>2020-06-23T08:54:55Z</time>
      </trkpt>
      <trkpt lat="50.9924" lon="2.01192">
        <ele>4.2</ele>
        <time>2020-06-23T08:54:56Z</time>
      </trkpt>
      <trkpt lat="50.99241" lon="2.012">
        <ele>4.2</ele>
        <time>2020-06-23T08:54:57Z</time>
      </trkpt>
      <trkpt lat="50.99242" lon="2.01207">
        <ele>4.3</ele>
        <time>2020-06-23T08:54:58Z</time>
      </trkpt>
      <trkpt lat="50.99243" lon="2.01214">
        <ele>4.3</ele>
        <time>2020-06-23T08:54:59Z</time>
      </trkpt>
      <trkpt lat="50.99244" lon="2.01221">
        <ele>4.3</ele>
        <time>2020-06-23T08:55:00Z</time>
      </trkpt>
      <trkpt lat="50.99245" lon="2.01228">
        <ele>4.3</ele>
        <time>2020-06-23T08:55:01Z</time>
      </trkpt>
      <trkpt lat="50.99246" lon="2.01236">
        <ele>4.3</ele>
        <time>2020-06-23T08:55:02Z</time>
      </trkpt>
      <trkpt lat="50.99246" lon="2.01243">
        <ele>4.3</ele>
        <time>2020-06-23T08:55:03Z</time>
      </trkpt>
      <trkpt lat="50.99247" lon="2.01251">
        <ele>4.3</ele>
        <time>2020-06-23T08:55:04Z</time>
      </trkpt>
      <trkpt lat="50.99248" lon="2.01259">
        <ele>4.3</ele>
        <time>2020-06-23T08:55:05Z</time>
      </trkpt>
      <trkpt lat="50.99249" lon="2.01267">
        <ele>4.3</ele>
        <time>2020-06-23T08:55:06Z</time>
      </trkpt>
      <trkpt lat="50.99249" lon="2.01275">
        <ele>4.2</ele>
        <time>2020-06-23T08:55:07Z</time>
      </trkpt>
      <trkpt lat="50.9925" lon="2.01283">
        <ele>4.2</ele>
        <time>2020-06-23T08:55:08Z</time>
      </trkpt>
      <trkpt lat="50.99251" lon="2.01292">
        <ele>4.2</ele>
        <time>2020-06-23T08:55:09Z</time>
      </trkpt>
      <trkpt lat="50.99251" lon="2.013">
        <ele>4.2</ele>
        <time>2020-06-23T08:55:10Z</time>
      </trkpt>
      <trkpt lat="50.99252" lon="2.01307">
        <ele>4.2</ele>
        <time>2020-06-23T08:55:11Z</time>
      </trkpt>
      <trkpt lat="50.99252" lon="2.01314">
        <ele>4.2</ele>
        <time>2020-06-23T08:55:12Z</time>
      </trkpt>
      <trkpt lat="50.99252" lon="2.01322">
        <ele>4.2</ele>
        <time>2020-06-23T08:55:13Z</time>
      </trkpt>
      <trkpt lat="50.99253" lon="2.0133">
        <ele>4.2</ele>
        <time>2020-06-23T08:55:14Z</time>
      </trkpt>
      <trkpt lat="50.99252" lon="2.01338">
        <ele>4.2</ele>
        <time>2020-06-23T08:55:15Z</time>
      </trkpt>
      <trkpt lat="50.99253" lon="2.01346">
        <ele>4.1</ele>
        <time>2020-06-23T08:55:16Z</time>
      </trkpt>
      <trkpt lat="50.99254" lon="2.01354">
        <ele>4.1</ele>
        <time>2020-06-23T08:55:17Z</time>
      </trkpt>
      <trkpt lat="50.99255" lon="2.01362">
        <ele>4.1</ele>
        <time>2020-06-23T08:55:18Z</time>
      </trkpt>
      <trkpt lat="50.99255" lon="2.01371">
        <ele>4.1</ele>
        <time>2020-06-23T08:55:19Z</time>
      </trkpt>
      <trkpt lat="50.99256" lon="2.01379">
        <ele>4</ele>
        <time>2020-06-23T08:55:20Z</time>
      </trkpt>
      <trkpt lat="50.99256" lon="2.01388">
        <ele>4</ele>
        <time>2020-06-23T08:55:21Z</time>
      </trkpt>
      <trkpt lat="50.99257" lon="2.01396">
        <ele>4</ele>
        <time>2020-06-23T08:55:22Z</time>
      </trkpt>
      <trkpt lat="50.99258" lon="2.01404">
        <ele>4</ele>
        <time>2020-06-23T08:55:23Z</time>
      </trkpt>
      <trkpt lat="50.99258" lon="2.01412">
        <ele>4</ele>
        <time>2020-06-23T08:55:24Z</time>
      </trkpt>
      <trkpt lat="50.99259" lon="2.0142">
        <ele>4.1</ele>
        <time>2020-06-23T08:55:25Z</time>
      </trkpt>
      <trkpt lat="50.9926" lon="2.01429">
        <ele>4.1</ele>
        <time>2020-06-23T08:55:26Z</time>
      </trkpt>
      <trkpt lat="50.9926" lon="2.01437">
        <ele>4.1</ele>
        <time>2020-06-23T08:55:27Z</time>
      </trkpt>
      <trkpt lat="50.9926" lon="2.01445">
        <ele>4.1</ele>
        <time>2020-06-23T08:55:28Z</time>
      </trkpt>
      <trkpt lat="50.99259" lon="2.01454">
        <ele>4</ele>
        <time>2020-06-23T08:55:29Z</time>
      </trkpt>
      <trkpt lat="50.99259" lon="2.01462">
        <ele>4</ele>
        <time>2020-06-23T08:55:30Z</time>
      </trkpt>
      <trkpt lat="50.99259" lon="2.0147">
        <ele>4</ele>
        <time>2020-06-23T08:55:31Z</time>
      </trkpt>
      <trkpt lat="50.99259" lon="2.01479">
        <ele>3.9</ele>
        <time>2020-06-23T08:55:32Z</time>
      </trkpt>
      <trkpt lat="50.99259" lon="2.01487">
        <ele>3.9</ele>
        <time>2020-06-23T08:55:33Z</time>
      </trkpt>
      <trkpt lat="50.99259" lon="2.01495">
        <ele>3.9</ele>
        <time>2020-06-23T08:55:34Z</time>
      </trkpt>
      <trkpt lat="50.99259" lon="2.01504">
        <ele>3.9</ele>
        <time>2020-06-23T08:55:35Z</time>
      </trkpt>
      <trkpt lat="50.9926" lon="2.01512">
        <ele>3.9</ele>
        <time>2020-06-23T08:55:36Z</time>
      </trkpt>
      <trkpt lat="50.99259" lon="2.01522">
        <ele>3.9</ele>
        <time>2020-06-23T08:55:37Z</time>
      </trkpt>
      <trkpt lat="50.9926" lon="2.01529">
        <ele>3.9</ele>
        <time>2020-06-23T08:55:38Z</time>
      </trkpt>
      <trkpt lat="50.9926" lon="2.01537">
        <ele>3.9</ele>
        <time>2020-06-23T08:55:39Z</time>
      </trkpt>
      <trkpt lat="50.9926" lon="2.01545">
        <ele>3.9</ele>
        <time>2020-06-23T08:55:40Z</time>
      </trkpt>
      <trkpt lat="50.9926" lon="2.01553">
        <ele>3.9</ele>
        <time>2020-06-23T08:55:41Z</time>
      </trkpt>
      <trkpt lat="50.9926" lon="2.01562">
        <ele>3.8</ele>
        <time>2020-06-23T08:55:42Z</time>
      </trkpt>
      <trkpt lat="50.99261" lon="2.01569">
        <ele>3.8</ele>
        <time>2020-06-23T08:55:43Z</time>
      </trkpt>
      <trkpt lat="50.99261" lon="2.01577">
        <ele>3.8</ele>
        <time>2020-06-23T08:55:44Z</time>
      </trkpt>
      <trkpt lat="50.99261" lon="2.01584">
        <ele>3.8</ele>
        <time>2020-06-23T08:55:45Z</time>
      </trkpt>
      <trkpt lat="50.99262" lon="2.01591">
        <ele>3.7</ele>
        <time>2020-06-23T08:55:46Z</time>
      </trkpt>
      <trkpt lat="50.99262" lon="2.01599">
        <ele>3.7</ele>
        <time>2020-06-23T08:55:47Z</time>
      </trkpt>
      <trkpt lat="50.99262" lon="2.01606">
        <ele>3.7</ele>
        <time>2020-06-23T08:55:48Z</time>
      </trkpt>
      <trkpt lat="50.99263" lon="2.01614">
        <ele>3.7</ele>
        <time>2020-06-23T08:55:49Z</time>
      </trkpt>
      <trkpt lat="50.99263" lon="2.01622">
        <ele>3.7</ele>
        <time>2020-06-23T08:55:50Z</time>
      </trkpt>
      <trkpt lat="50.99264" lon="2.01631">
        <ele>3.7</ele>
        <time>2020-06-23T08:55:51Z</time>
      </trkpt>
      <trkpt lat="50.99264" lon="2.01639">
        <ele>3.7</ele>
        <time>2020-06-23T08:55:52Z</time>
      </trkpt>
      <trkpt lat="50.99264" lon="2.01647">
        <ele>3.7</ele>
        <time>2020-06-23T08:55:53Z</time>
      </trkpt>
      <trkpt lat="50.99264" lon="2.01655">
        <ele>3.7</ele>
        <time>2020-06-23T08:55:54Z</time>
      </trkpt>
      <trkpt lat="50.99265" lon="2.01663">
        <ele>3.7</ele>
        <time>2020-06-23T08:55:55Z</time>
      </trkpt>
      <trkpt lat="50.99265" lon="2.01671">
        <ele>3.7</ele>
        <time>2020-06-23T08:55:56Z</time>
      </trkpt>
      <trkpt lat="50.99266" lon="2.01679">
        <ele>3.7</ele>
        <time>2020-06-23T08:55:57Z</time>
      </trkpt>
      <trkpt lat="50.99268" lon="2.01687">
        <ele>3.7</ele>
        <time>2020-06-23T08:55:58Z</time>
      </trkpt>
      <trkpt lat="50.99269" lon="2.01694">
        <ele>3.6</ele>
        <time>2020-06-23T08:55:59Z</time>
      </trkpt>
      <trkpt lat="50.99269" lon="2.01701">
        <ele>3.6</ele>
        <time>2020-06-23T08:56:00Z</time>
      </trkpt>
      <trkpt lat="50.99269" lon="2.01707">
        <ele>3.6</ele>
        <time>2020-06-23T08:56:01Z</time>
      </trkpt>
      <trkpt lat="50.99269" lon="2.01714">
        <ele>3.7</ele>
        <time>2020-06-23T08:56:02Z</time>
      </trkpt>
      <trkpt lat="50.9927" lon="2.01721">
        <ele>3.7</ele>
        <time>2020-06-23T08:56:03Z</time>
      </trkpt>
      <trkpt lat="50.99271" lon="2.01728">
        <ele>3.7</ele>
        <time>2020-06-23T08:56:04Z</time>
      </trkpt>
      <trkpt lat="50.99271" lon="2.01735">
        <ele>3.7</ele>
        <time>2020-06-23T08:56:05Z</time>
      </trkpt>
      <trkpt lat="50.99271" lon="2.01743">
        <ele>3.8</ele>
        <time>2020-06-23T08:56:06Z</time>
      </trkpt>
      <trkpt lat="50.99271" lon="2.0175">
        <ele>3.8</ele>
        <time>2020-06-23T08:56:07Z</time>
      </trkpt>
      <trkpt lat="50.99272" lon="2.01758">
        <ele>3.8</ele>
        <time>2020-06-23T08:56:08Z</time>
      </trkpt>
      <trkpt lat="50.99272" lon="2.01765">
        <ele>3.7</ele>
        <time>2020-06-23T08:56:09Z</time>
      </trkpt>
      <trkpt lat="50.99273" lon="2.01772">
        <ele>3.7</ele>
        <time>2020-06-23T08:56:10Z</time>
      </trkpt>
      <trkpt lat="50.99274" lon="2.01779">
        <ele>3.6</ele>
        <time>2020-06-23T08:56:11Z</time>
      </trkpt>
      <trkpt lat="50.99275" lon="2.01787">
        <ele>3.6</ele>
        <time>2020-06-23T08:56:12Z</time>
      </trkpt>
      <trkpt lat="50.99275" lon="2.01794">
        <ele>3.6</ele>
        <time>2020-06-23T08:56:13Z</time>
      </trkpt>
      <trkpt lat="50.99275" lon="2.01802">
        <ele>3.6</ele>
        <time>2020-06-23T08:56:14Z</time>
      </trkpt>
      <trkpt lat="50.99276" lon="2.01811">
        <ele>3.6</ele>
        <time>2020-06-23T08:56:15Z</time>
      </trkpt>
      <trkpt lat="50.99277" lon="2.01818">
        <ele>3.7</ele>
        <time>2020-06-23T08:56:16Z</time>
      </trkpt>
      <trkpt lat="50.99277" lon="2.01821">
        <ele>3.7</ele>
        <time>2020-06-23T08:56:17Z</time>
      </trkpt>
      <trkpt lat="50.99277" lon="2.01828">
        <ele>3.7</ele>
        <time>2020-06-23T08:56:18Z</time>
      </trkpt>
      <trkpt lat="50.99277" lon="2.01835">
        <ele>3.7</ele>
        <time>2020-06-23T08:56:19Z</time>
      </trkpt>
      <trkpt lat="50.99277" lon="2.01843">
        <ele>3.7</ele>
        <time>2020-06-23T08:56:20Z</time>
      </trkpt>
      <trkpt lat="50.99278" lon="2.01851">
        <ele>3.7</ele>
        <time>2020-06-23T08:56:21Z</time>
      </trkpt>
      <trkpt lat="50.99278" lon="2.01859">
        <ele>3.7</ele>
        <time>2020-06-23T08:56:22Z</time>
      </trkpt>
      <trkpt lat="50.99278" lon="2.01867">
        <ele>3.6</ele>
        <time>2020-06-23T08:56:23Z</time>
      </trkpt>
      <trkpt lat="50.99277" lon="2.01875">
        <ele>3.6</ele>
        <time>2020-06-23T08:56:24Z</time>
      </trkpt>
      <trkpt lat="50.99277" lon="2.01883">
        <ele>3.6</ele>
        <time>2020-06-23T08:56:25Z</time>
      </trkpt>
      <trkpt lat="50.99276" lon="2.01892">
        <ele>3.6</ele>
        <time>2020-06-23T08:56:26Z</time>
      </trkpt>
      <trkpt lat="50.99275" lon="2.019">
        <ele>3.6</ele>
        <time>2020-06-23T08:56:27Z</time>
      </trkpt>
      <trkpt lat="50.99275" lon="2.01909">
        <ele>3.6</ele>
        <time>2020-06-23T08:56:28Z</time>
      </trkpt>
      <trkpt lat="50.99274" lon="2.01917">
        <ele>3.6</ele>
        <time>2020-06-23T08:56:29Z</time>
      </trkpt>
      <trkpt lat="50.99275" lon="2.01926">
        <ele>3.6</ele>
        <time>2020-06-23T08:56:30Z</time>
      </trkpt>
      <trkpt lat="50.99275" lon="2.01935">
        <ele>3.6</ele>
        <time>2020-06-23T08:56:31Z</time>
      </trkpt>
      <trkpt lat="50.99274" lon="2.01943">
        <ele>3.6</ele>
        <time>2020-06-23T08:56:32Z</time>
      </trkpt>
      <trkpt lat="50.99274" lon="2.0195">
        <ele>3.7</ele>
        <time>2020-06-23T08:56:33Z</time>
      </trkpt>
      <trkpt lat="50.99274" lon="2.01959">
        <ele>3.7</ele>
        <time>2020-06-23T08:56:34Z</time>
      </trkpt>
      <trkpt lat="50.99273" lon="2.01966">
        <ele>3.7</ele>
        <time>2020-06-23T08:56:35Z</time>
      </trkpt>
      <trkpt lat="50.99273" lon="2.01974">
        <ele>3.7</ele>
        <time>2020-06-23T08:56:36Z</time>
      </trkpt>
      <trkpt lat="50.99274" lon="2.01983">
        <ele>3.7</ele>
        <time>2020-06-23T08:56:37Z</time>
      </trkpt>
      <trkpt lat="50.99274" lon="2.01991">
        <ele>3.7</ele>
        <time>2020-06-23T08:56:38Z</time>
      </trkpt>
      <trkpt lat="50.99274" lon="2.02">
        <ele>3.6</ele>
        <time>2020-06-23T08:56:39Z</time>
      </trkpt>
      <trkpt lat="50.99273" lon="2.02009">
        <ele>3.6</ele>
        <time>2020-06-23T08:56:40Z</time>
      </trkpt>
      <trkpt lat="50.99273" lon="2.02017">
        <ele>3.5</ele>
        <time>2020-06-23T08:56:41Z</time>
      </trkpt>
      <trkpt lat="50.99272" lon="2.02025">
        <ele>3.5</ele>
        <time>2020-06-23T08:56:42Z</time>
      </trkpt>
      <trkpt lat="50.99272" lon="2.02034">
        <ele>3.4</ele>
        <time>2020-06-23T08:56:43Z</time>
      </trkpt>
      <trkpt lat="50.99271" lon="2.02041">
        <ele>3.4</ele>
        <time>2020-06-23T08:56:44Z</time>
      </trkpt>
      <trkpt lat="50.9927" lon="2.0205">
        <ele>3.3</ele>
        <time>2020-06-23T08:56:45Z</time>
      </trkpt>
      <trkpt lat="50.99268" lon="2.02058">
        <ele>3.3</ele>
        <time>2020-06-23T08:56:46Z</time>
      </trkpt>
      <trkpt lat="50.99267" lon="2.02066">
        <ele>3.3</ele>
        <time>2020-06-23T08:56:47Z</time>
      </trkpt>
      <trkpt lat="50.99266" lon="2.02075">
        <ele>3.3</ele>
        <time>2020-06-23T08:56:48Z</time>
      </trkpt>
      <trkpt lat="50.99264" lon="2.02083">
        <ele>3.3</ele>
        <time>2020-06-23T08:56:49Z</time>
      </trkpt>
      <trkpt lat="50.99263" lon="2.02091">
        <ele>3.3</ele>
        <time>2020-06-23T08:56:50Z</time>
      </trkpt>
      <trkpt lat="50.99261" lon="2.02099">
        <ele>3.3</ele>
        <time>2020-06-23T08:56:51Z</time>
      </trkpt>
      <trkpt lat="50.9926" lon="2.02107">
        <ele>3.3</ele>
        <time>2020-06-23T08:56:52Z</time>
      </trkpt>
      <trkpt lat="50.99259" lon="2.02114">
        <ele>3.2</ele>
        <time>2020-06-23T08:56:53Z</time>
      </trkpt>
      <trkpt lat="50.99258" lon="2.02121">
        <ele>3.2</ele>
        <time>2020-06-23T08:56:54Z</time>
      </trkpt>
      <trkpt lat="50.99257" lon="2.02128">
        <ele>3.2</ele>
        <time>2020-06-23T08:56:55Z</time>
      </trkpt>
      <trkpt lat="50.99255" lon="2.02135">
        <ele>3.3</ele>
        <time>2020-06-23T08:56:56Z</time>
      </trkpt>
      <trkpt lat="50.99253" lon="2.02142">
        <ele>3.3</ele>
        <time>2020-06-23T08:56:57Z</time>
      </trkpt>
      <trkpt lat="50.99251" lon="2.02149">
        <ele>3.3</ele>
        <time>2020-06-23T08:56:58Z</time>
      </trkpt>
      <trkpt lat="50.99248" lon="2.02156">
        <ele>3.2</ele>
        <time>2020-06-23T08:56:59Z</time>
      </trkpt>
      <trkpt lat="50.99245" lon="2.02162">
        <ele>3.2</ele>
        <time>2020-06-23T08:57:00Z</time>
      </trkpt>
      <trkpt lat="50.99242" lon="2.02168">
        <ele>3.2</ele>
        <time>2020-06-23T08:57:01Z</time>
      </trkpt>
      <trkpt lat="50.99238" lon="2.02173">
        <ele>3.1</ele>
        <time>2020-06-23T08:57:02Z</time>
      </trkpt>
      <trkpt lat="50.99235" lon="2.02179">
        <ele>3.1</ele>
        <time>2020-06-23T08:57:03Z</time>
      </trkpt>
      <trkpt lat="50.99232" lon="2.02186">
        <ele>3</ele>
        <time>2020-06-23T08:57:04Z</time>
      </trkpt>
      <trkpt lat="50.99229" lon="2.02192">
        <ele>3</ele>
        <time>2020-06-23T08:57:05Z</time>
      </trkpt>
      <trkpt lat="50.99224" lon="2.02196">
        <ele>3</ele>
        <time>2020-06-23T08:57:06Z</time>
      </trkpt>
      <trkpt lat="50.9922" lon="2.02199">
        <ele>3</ele>
        <time>2020-06-23T08:57:07Z</time>
      </trkpt>
      <trkpt lat="50.99215" lon="2.02202">
        <ele>3</ele>
        <time>2020-06-23T08:57:08Z</time>
      </trkpt>
      <trkpt lat="50.99209" lon="2.02203">
        <ele>2.9</ele>
        <time>2020-06-23T08:57:09Z</time>
      </trkpt>
      <trkpt lat="50.99203" lon="2.02204">
        <ele>2.9</ele>
        <time>2020-06-23T08:57:10Z</time>
      </trkpt>
      <trkpt lat="50.99198" lon="2.02205">
        <ele>2.8</ele>
        <time>2020-06-23T08:57:11Z</time>
      </trkpt>
      <trkpt lat="50.99193" lon="2.02206">
        <ele>2.8</ele>
        <time>2020-06-23T08:57:12Z</time>
      </trkpt>
      <trkpt lat="50.99188" lon="2.02208">
        <ele>2.8</ele>
        <time>2020-06-23T08:57:13Z</time>
      </trkpt>
      <trkpt lat="50.99183" lon="2.02209">
        <ele>2.8</ele>
        <time>2020-06-23T08:57:14Z</time>
      </trkpt>
      <trkpt lat="50.99178" lon="2.02211">
        <ele>2.8</ele>
        <time>2020-06-23T08:57:15Z</time>
      </trkpt>
      <trkpt lat="50.99174" lon="2.02213">
        <ele>2.8</ele>
        <time>2020-06-23T08:57:16Z</time>
      </trkpt>
      <trkpt lat="50.99169" lon="2.02213">
        <ele>2.8</ele>
        <time>2020-06-23T08:57:17Z</time>
      </trkpt>
      <trkpt lat="50.99166" lon="2.02214">
        <ele>2.8</ele>
        <time>2020-06-23T08:57:18Z</time>
      </trkpt>
      <trkpt lat="50.99162" lon="2.02214">
        <ele>2.8</ele>
        <time>2020-06-23T08:57:19Z</time>
      </trkpt>
      <trkpt lat="50.99158" lon="2.02214">
        <ele>2.8</ele>
        <time>2020-06-23T08:57:20Z</time>
      </trkpt>
      <trkpt lat="50.99153" lon="2.02213">
        <ele>2.8</ele>
        <time>2020-06-23T08:57:21Z</time>
      </trkpt>
      <trkpt lat="50.99147" lon="2.02212">
        <ele>2.8</ele>
        <time>2020-06-23T08:57:22Z</time>
      </trkpt>
      <trkpt lat="50.99143" lon="2.0221">
        <ele>2.8</ele>
        <time>2020-06-23T08:57:23Z</time>
      </trkpt>
      <trkpt lat="50.99138" lon="2.02209">
        <ele>2.8</ele>
        <time>2020-06-23T08:57:24Z</time>
      </trkpt>
      <trkpt lat="50.99134" lon="2.02207">
        <ele>2.8</ele>
        <time>2020-06-23T08:57:25Z</time>
      </trkpt>
      <trkpt lat="50.9913" lon="2.02205">
        <ele>2.8</ele>
        <time>2020-06-23T08:57:26Z</time>
      </trkpt>
      <trkpt lat="50.99125" lon="2.02202">
        <ele>2.7</ele>
        <time>2020-06-23T08:57:27Z</time>
      </trkpt>
      <trkpt lat="50.9912" lon="2.022">
        <ele>2.7</ele>
        <time>2020-06-23T08:57:28Z</time>
      </trkpt>
      <trkpt lat="50.99116" lon="2.02197">
        <ele>2.7</ele>
        <time>2020-06-23T08:57:29Z</time>
      </trkpt>
      <trkpt lat="50.99111" lon="2.02194">
        <ele>2.7</ele>
        <time>2020-06-23T08:57:30Z</time>
      </trkpt>
      <trkpt lat="50.99106" lon="2.02192">
        <ele>2.8</ele>
        <time>2020-06-23T08:57:31Z</time>
      </trkpt>
      <trkpt lat="50.99102" lon="2.0219">
        <ele>2.8</ele>
        <time>2020-06-23T08:57:32Z</time>
      </trkpt>
      <trkpt lat="50.99097" lon="2.02187">
        <ele>2.8</ele>
        <time>2020-06-23T08:57:33Z</time>
      </trkpt>
      <trkpt lat="50.99092" lon="2.02185">
        <ele>2.8</ele>
        <time>2020-06-23T08:57:34Z</time>
      </trkpt>
      <trkpt lat="50.99087" lon="2.02184">
        <ele>2.8</ele>
        <time>2020-06-23T08:57:35Z</time>
      </trkpt>
      <trkpt lat="50.99083" lon="2.02183">
        <ele>2.8</ele>
        <time>2020-06-23T08:57:36Z</time>
      </trkpt>
      <trkpt lat="50.99078" lon="2.02182">
        <ele>2.8</ele>
        <time>2020-06-23T08:57:37Z</time>
      </trkpt>
      <trkpt lat="50.99073" lon="2.02183">
        <ele>2.8</ele>
        <time>2020-06-23T08:57:38Z</time>
      </trkpt>
      <trkpt lat="50.99068" lon="2.02184">
        <ele>2.8</ele>
        <time>2020-06-23T08:57:39Z</time>
      </trkpt>
      <trkpt lat="50.99062" lon="2.02185">
        <ele>2.8</ele>
        <time>2020-06-23T08:57:40Z</time>
      </trkpt>
      <trkpt lat="50.99056" lon="2.02185">
        <ele>2.8</ele>
        <time>2020-06-23T08:57:41Z</time>
      </trkpt>
      <trkpt lat="50.99051" lon="2.02186">
        <ele>2.7</ele>
        <time>2020-06-23T08:57:42Z</time>
      </trkpt>
      <trkpt lat="50.99046" lon="2.02188">
        <ele>2.7</ele>
        <time>2020-06-23T08:57:43Z</time>
      </trkpt>
      <trkpt lat="50.99041" lon="2.02189">
        <ele>2.7</ele>
        <time>2020-06-23T08:57:44Z</time>
      </trkpt>
      <trkpt lat="50.99037" lon="2.0219">
        <ele>2.7</ele>
        <time>2020-06-23T08:57:45Z</time>
      </trkpt>
      <trkpt lat="50.99032" lon="2.0219">
        <ele>2.7</ele>
        <time>2020-06-23T08:57:46Z</time>
      </trkpt>
      <trkpt lat="50.99028" lon="2.02192">
        <ele>2.7</ele>
        <time>2020-06-23T08:57:47Z</time>
      </trkpt>
      <trkpt lat="50.99023" lon="2.02193">
        <ele>2.7</ele>
        <time>2020-06-23T08:57:48Z</time>
      </trkpt>
      <trkpt lat="50.99018" lon="2.02193">
        <ele>2.6</ele>
        <time>2020-06-23T08:57:49Z</time>
      </trkpt>
      <trkpt lat="50.99013" lon="2.02195">
        <ele>2.6</ele>
        <time>2020-06-23T08:57:50Z</time>
      </trkpt>
      <trkpt lat="50.99008" lon="2.02196">
        <ele>2.6</ele>
        <time>2020-06-23T08:57:51Z</time>
      </trkpt>
      <trkpt lat="50.99002" lon="2.02198">
        <ele>2.6</ele>
        <time>2020-06-23T08:57:52Z</time>
      </trkpt>
      <trkpt lat="50.98997" lon="2.02199">
        <ele>2.6</ele>
        <time>2020-06-23T08:57:53Z</time>
      </trkpt>
      <trkpt lat="50.98992" lon="2.022">
        <ele>2.6</ele>
        <time>2020-06-23T08:57:54Z</time>
      </trkpt>
      <trkpt lat="50.98988" lon="2.02201">
        <ele>2.5</ele>
        <time>2020-06-23T08:57:55Z</time>
      </trkpt>
      <trkpt lat="50.98983" lon="2.02201">
        <ele>2.5</ele>
        <time>2020-06-23T08:57:56Z</time>
      </trkpt>
      <trkpt lat="50.98978" lon="2.02202">
        <ele>2.5</ele>
        <time>2020-06-23T08:57:57Z</time>
      </trkpt>
      <trkpt lat="50.98972" lon="2.02203">
        <ele>2.5</ele>
        <time>2020-06-23T08:57:58Z</time>
      </trkpt>
      <trkpt lat="50.98967" lon="2.02203">
        <ele>2.5</ele>
        <time>2020-06-23T08:57:59Z</time>
      </trkpt>
      <trkpt lat="50.98961" lon="2.02204">
        <ele>2.4</ele>
        <time>2020-06-23T08:58:00Z</time>
      </trkpt>
      <trkpt lat="50.98956" lon="2.02205">
        <ele>2.4</ele>
        <time>2020-06-23T08:58:01Z</time>
      </trkpt>
      <trkpt lat="50.9895" lon="2.02207">
        <ele>2.4</ele>
        <time>2020-06-23T08:58:02Z</time>
      </trkpt>
      <trkpt lat="50.98944" lon="2.02208">
        <ele>2.3</ele>
        <time>2020-06-23T08:58:03Z</time>
      </trkpt>
      <trkpt lat="50.98939" lon="2.02209">
        <ele>2.3</ele>
        <time>2020-06-23T08:58:04Z</time>
      </trkpt>
      <trkpt lat="50.98934" lon="2.0221">
        <ele>2.3</ele>
        <time>2020-06-23T08:58:05Z</time>
      </trkpt>
      <trkpt lat="50.98929" lon="2.02211">
        <ele>2.3</ele>
        <time>2020-06-23T08:58:06Z</time>
      </trkpt>
      <trkpt lat="50.98924" lon="2.02213">
        <ele>2.3</ele>
        <time>2020-06-23T08:58:07Z</time>
      </trkpt>
      <trkpt lat="50.98919" lon="2.02214">
        <ele>2.2</ele>
        <time>2020-06-23T08:58:08Z</time>
      </trkpt>
      <trkpt lat="50.98913" lon="2.02215">
        <ele>2.2</ele>
        <time>2020-06-23T08:58:09Z</time>
      </trkpt>
      <trkpt lat="50.98907" lon="2.02217">
        <ele>2.2</ele>
        <time>2020-06-23T08:58:10Z</time>
      </trkpt>
      <trkpt lat="50.98901" lon="2.02218">
        <ele>2.2</ele>
        <time>2020-06-23T08:58:11Z</time>
      </trkpt>
      <trkpt lat="50.98895" lon="2.02219">
        <ele>2.1</ele>
        <time>2020-06-23T08:58:12Z</time>
      </trkpt>
      <trkpt lat="50.9889" lon="2.0222">
        <ele>2.1</ele>
        <time>2020-06-23T08:58:13Z</time>
      </trkpt>
      <trkpt lat="50.98885" lon="2.02221">
        <ele>2.1</ele>
        <time>2020-06-23T08:58:14Z</time>
      </trkpt>
      <trkpt lat="50.98881" lon="2.02223">
        <ele>2.1</ele>
        <time>2020-06-23T08:58:15Z</time>
      </trkpt>
      <trkpt lat="50.98877" lon="2.02225">
        <ele>2.1</ele>
        <time>2020-06-23T08:58:16Z</time>
      </trkpt>
      <trkpt lat="50.98872" lon="2.02226">
        <ele>2.1</ele>
        <time>2020-06-23T08:58:17Z</time>
      </trkpt>
      <trkpt lat="50.98866" lon="2.02227">
        <ele>2.1</ele>
        <time>2020-06-23T08:58:18Z</time>
      </trkpt>
      <trkpt lat="50.9886" lon="2.02227">
        <ele>2.1</ele>
        <time>2020-06-23T08:58:19Z</time>
      </trkpt>
      <trkpt lat="50.98855" lon="2.02229">
        <ele>2.1</ele>
        <time>2020-06-23T08:58:20Z</time>
      </trkpt>
      <trkpt lat="50.98849" lon="2.02229">
        <ele>2</ele>
        <time>2020-06-23T08:58:21Z</time>
      </trkpt>
      <trkpt lat="50.98845" lon="2.0223">
        <ele>2</ele>
        <time>2020-06-23T08:58:22Z</time>
      </trkpt>
      <trkpt lat="50.9884" lon="2.02231">
        <ele>2</ele>
        <time>2020-06-23T08:58:23Z</time>
      </trkpt>
      <trkpt lat="50.98835" lon="2.02232">
        <ele>2</ele>
        <time>2020-06-23T08:58:24Z</time>
      </trkpt>
      <trkpt lat="50.9883" lon="2.02233">
        <ele>2.1</ele>
        <time>2020-06-23T08:58:25Z</time>
      </trkpt>
      <trkpt lat="50.98824" lon="2.02234">
        <ele>2.1</ele>
        <time>2020-06-23T08:58:26Z</time>
      </trkpt>
      <trkpt lat="50.98819" lon="2.02236">
        <ele>2.1</ele>
        <time>2020-06-23T08:58:27Z</time>
      </trkpt>
      <trkpt lat="50.98814" lon="2.02237">
        <ele>2.1</ele>
        <time>2020-06-23T08:58:28Z</time>
      </trkpt>
      <trkpt lat="50.98809" lon="2.02238">
        <ele>2.2</ele>
        <time>2020-06-23T08:58:29Z</time>
      </trkpt>
      <trkpt lat="50.98804" lon="2.02239">
        <ele>2.2</ele>
        <time>2020-06-23T08:58:30Z</time>
      </trkpt>
      <trkpt lat="50.98798" lon="2.0224">
        <ele>2.2</ele>
        <time>2020-06-23T08:58:31Z</time>
      </trkpt>
      <trkpt lat="50.98793" lon="2.02241">
        <ele>2.2</ele>
        <time>2020-06-23T08:58:32Z</time>
      </trkpt>
      <trkpt lat="50.98788" lon="2.02243">
        <ele>2.2</ele>
        <time>2020-06-23T08:58:33Z</time>
      </trkpt>
      <trkpt lat="50.98783" lon="2.02244">
        <ele>2.2</ele>
        <time>2020-06-23T08:58:34Z</time>
      </trkpt>
      <trkpt lat="50.98778" lon="2.02245">
        <ele>2.3</ele>
        <time>2020-06-23T08:58:35Z</time>
      </trkpt>
      <trkpt lat="50.98773" lon="2.02246">
        <ele>2.3</ele>
        <time>2020-06-23T08:58:36Z</time>
      </trkpt>
      <trkpt lat="50.98767" lon="2.02248">
        <ele>2.3</ele>
        <time>2020-06-23T08:58:37Z</time>
      </trkpt>
      <trkpt lat="50.98763" lon="2.02249">
        <ele>2.4</ele>
        <time>2020-06-23T08:58:38Z</time>
      </trkpt>
      <trkpt lat="50.98758" lon="2.02251">
        <ele>2.4</ele>
        <time>2020-06-23T08:58:39Z</time>
      </trkpt>
      <trkpt lat="50.98753" lon="2.02252">
        <ele>2.5</ele>
        <time>2020-06-23T08:58:40Z</time>
      </trkpt>
      <trkpt lat="50.98748" lon="2.02252">
        <ele>2.5</ele>
        <time>2020-06-23T08:58:41Z</time>
      </trkpt>
      <trkpt lat="50.98743" lon="2.02253">
        <ele>2.5</ele>
        <time>2020-06-23T08:58:42Z</time>
      </trkpt>
      <trkpt lat="50.98739" lon="2.02255">
        <ele>2.6</ele>
        <time>2020-06-23T08:58:43Z</time>
      </trkpt>
      <trkpt lat="50.98735" lon="2.02256">
        <ele>2.6</ele>
        <time>2020-06-23T08:58:44Z</time>
      </trkpt>
      <trkpt lat="50.98732" lon="2.02258">
        <ele>2.6</ele>
        <time>2020-06-23T08:58:45Z</time>
      </trkpt>
      <trkpt lat="50.98729" lon="2.02258">
        <ele>2.6</ele>
        <time>2020-06-23T08:58:46Z</time>
      </trkpt>
      <trkpt lat="50.98725" lon="2.02259">
        <ele>2.7</ele>
        <time>2020-06-23T08:58:47Z</time>
      </trkpt>
      <trkpt lat="50.98721" lon="2.0226">
        <ele>2.7</ele>
        <time>2020-06-23T08:58:48Z</time>
      </trkpt>
      <trkpt lat="50.98717" lon="2.0226">
        <ele>2.8</ele>
        <time>2020-06-23T08:58:49Z</time>
      </trkpt>
      <trkpt lat="50.98712" lon="2.0226">
        <ele>2.8</ele>
        <time>2020-06-23T08:58:50Z</time>
      </trkpt>
      <trkpt lat="50.98708" lon="2.0226">
        <ele>2.9</ele>
        <time>2020-06-23T08:58:51Z</time>
      </trkpt>
      <trkpt lat="50.98704" lon="2.0226">
        <ele>2.9</ele>
        <time>2020-06-23T08:58:52Z</time>
      </trkpt>
      <trkpt lat="50.98701" lon="2.02262">
        <ele>3</ele>
        <time>2020-06-23T08:58:53Z</time>
      </trkpt>
      <trkpt lat="50.98697" lon="2.02263">
        <ele>3</ele>
        <time>2020-06-23T08:58:54Z</time>
      </trkpt>
      <trkpt lat="50.98693" lon="2.02264">
        <ele>3.1</ele>
        <time>2020-06-23T08:58:55Z</time>
      </trkpt>
      <trkpt lat="50.9869" lon="2.02265">
        <ele>3</ele>
        <time>2020-06-23T08:58:56Z</time>
      </trkpt>
      <trkpt lat="50.98688" lon="2.0227">
        <ele>2.9</ele>
        <time>2020-06-23T08:58:57Z</time>
      </trkpt>
      <trkpt lat="50.98687" lon="2.02273">
        <ele>2.9</ele>
        <time>2020-06-23T08:58:58Z</time>
      </trkpt>
      <trkpt lat="50.98686" lon="2.02279">
        <ele>2.8</ele>
        <time>2020-06-23T08:58:59Z</time>
      </trkpt>
      <trkpt lat="50.98686" lon="2.02284">
        <ele>2.7</ele>
        <time>2020-06-23T08:59:00Z</time>
      </trkpt>
      <trkpt lat="50.98686" lon="2.02289">
        <ele>2.7</ele>
        <time>2020-06-23T08:59:01Z</time>
      </trkpt>
      <trkpt lat="50.98686" lon="2.02295">
        <ele>2.6</ele>
        <time>2020-06-23T08:59:02Z</time>
      </trkpt>
      <trkpt lat="50.98685" lon="2.023">
        <ele>2.6</ele>
        <time>2020-06-23T08:59:03Z</time>
      </trkpt>
      <trkpt lat="50.98684" lon="2.02306">
        <ele>2.5</ele>
        <time>2020-06-23T08:59:04Z</time>
      </trkpt>
      <trkpt lat="50.98683" lon="2.02313">
        <ele>2.5</ele>
        <time>2020-06-23T08:59:05Z</time>
      </trkpt>
      <trkpt lat="50.9868" lon="2.02319">
        <ele>2.5</ele>
        <time>2020-06-23T08:59:06Z</time>
      </trkpt>
      <trkpt lat="50.98678" lon="2.02326">
        <ele>2.5</ele>
        <time>2020-06-23T08:59:07Z</time>
      </trkpt>
      <trkpt lat="50.98677" lon="2.02334">
        <ele>2.5</ele>
        <time>2020-06-23T08:59:08Z</time>
      </trkpt>
      <trkpt lat="50.98676" lon="2.02342">
        <ele>2.5</ele>
        <time>2020-06-23T08:59:09Z</time>
      </trkpt>
      <trkpt lat="50.98675" lon="2.0235">
        <ele>2.5</ele>
        <time>2020-06-23T08:59:10Z</time>
      </trkpt>
      <trkpt lat="50.98674" lon="2.02358">
        <ele>2.5</ele>
        <time>2020-06-23T08:59:11Z</time>
      </trkpt>
      <trkpt lat="50.98673" lon="2.02367">
        <ele>2.5</ele>
        <time>2020-06-23T08:59:12Z</time>
      </trkpt>
      <trkpt lat="50.98673" lon="2.02375">
        <ele>2.5</ele>
        <time>2020-06-23T08:59:13Z</time>
      </trkpt>
      <trkpt lat="50.9867" lon="2.02384">
        <ele>2.5</ele>
        <time>2020-06-23T08:59:14Z</time>
      </trkpt>
      <trkpt lat="50.9867" lon="2.02394">
        <ele>2.6</ele>
        <time>2020-06-23T08:59:15Z</time>
      </trkpt>
      <trkpt lat="50.98669" lon="2.02401">
        <ele>2.6</ele>
        <time>2020-06-23T08:59:16Z</time>
      </trkpt>
      <trkpt lat="50.98669" lon="2.02409">
        <ele>2.6</ele>
        <time>2020-06-23T08:59:17Z</time>
      </trkpt>
      <trkpt lat="50.98669" lon="2.02417">
        <ele>2.6</ele>
        <time>2020-06-23T08:59:18Z</time>
      </trkpt>
      <trkpt lat="50.98668" lon="2.02425">
        <ele>2.6</ele>
        <time>2020-06-23T08:59:19Z</time>
      </trkpt>
      <trkpt lat="50.98668" lon="2.02433">
        <ele>2.6</ele>
        <time>2020-06-23T08:59:20Z</time>
      </trkpt>
      <trkpt lat="50.98667" lon="2.02442">
        <ele>2.6</ele>
        <time>2020-06-23T08:59:21Z</time>
      </trkpt>
      <trkpt lat="50.98666" lon="2.0245">
        <ele>2.6</ele>
        <time>2020-06-23T08:59:22Z</time>
      </trkpt>
      <trkpt lat="50.98666" lon="2.02459">
        <ele>2.6</ele>
        <time>2020-06-23T08:59:23Z</time>
      </trkpt>
      <trkpt lat="50.98665" lon="2.02467">
        <ele>2.5</ele>
        <time>2020-06-23T08:59:24Z</time>
      </trkpt>
      <trkpt lat="50.98664" lon="2.02476">
        <ele>2.5</ele>
        <time>2020-06-23T08:59:25Z</time>
      </trkpt>
      <trkpt lat="50.98663" lon="2.02484">
        <ele>2.5</ele>
        <time>2020-06-23T08:59:26Z</time>
      </trkpt>
      <trkpt lat="50.98663" lon="2.02494">
        <ele>2.5</ele>
        <time>2020-06-23T08:59:27Z</time>
      </trkpt>
      <trkpt lat="50.98661" lon="2.02502">
        <ele>2.5</ele>
        <time>2020-06-23T08:59:28Z</time>
      </trkpt>
      <trkpt lat="50.9866" lon="2.0251">
        <ele>2.5</ele>
        <time>2020-06-23T08:59:29Z</time>
      </trkpt>
      <trkpt lat="50.98659" lon="2.02519">
        <ele>2.5</ele>
        <time>2020-06-23T08:59:30Z</time>
      </trkpt>
      <trkpt lat="50.98658" lon="2.02527">
        <ele>2.5</ele>
        <time>2020-06-23T08:59:31Z</time>
      </trkpt>
      <trkpt lat="50.98657" lon="2.02534">
        <ele>2.5</ele>
        <time>2020-06-23T08:59:32Z</time>
      </trkpt>
      <trkpt lat="50.98655" lon="2.02542">
        <ele>2.5</ele>
        <time>2020-06-23T08:59:33Z</time>
      </trkpt>
      <trkpt lat="50.98654" lon="2.0255">
        <ele>2.5</ele>
        <time>2020-06-23T08:59:34Z</time>
      </trkpt>
      <trkpt lat="50.98652" lon="2.02558">
        <ele>2.5</ele>
        <time>2020-06-23T08:59:35Z</time>
      </trkpt>
      <trkpt lat="50.98652" lon="2.02566">
        <ele>2.6</ele>
        <time>2020-06-23T08:59:36Z</time>
      </trkpt>
      <trkpt lat="50.98651" lon="2.02575">
        <ele>2.6</ele>
        <time>2020-06-23T08:59:37Z</time>
      </trkpt>
      <trkpt lat="50.9865" lon="2.02583">
        <ele>2.6</ele>
        <time>2020-06-23T08:59:38Z</time>
      </trkpt>
      <trkpt lat="50.9865" lon="2.0259">
        <ele>2.6</ele>
        <time>2020-06-23T08:59:39Z</time>
      </trkpt>
      <trkpt lat="50.98649" lon="2.02598">
        <ele>2.7</ele>
        <time>2020-06-23T08:59:40Z</time>
      </trkpt>
      <trkpt lat="50.98648" lon="2.02605">
        <ele>2.7</ele>
        <time>2020-06-23T08:59:41Z</time>
      </trkpt>
      <trkpt lat="50.98647" lon="2.02614">
        <ele>2.7</ele>
        <time>2020-06-23T08:59:42Z</time>
      </trkpt>
      <trkpt lat="50.98646" lon="2.02622">
        <ele>2.7</ele>
        <time>2020-06-23T08:59:43Z</time>
      </trkpt>
      <trkpt lat="50.98645" lon="2.02631">
        <ele>2.8</ele>
        <time>2020-06-23T08:59:44Z</time>
      </trkpt>
      <trkpt lat="50.98644" lon="2.02641">
        <ele>2.9</ele>
        <time>2020-06-23T08:59:45Z</time>
      </trkpt>
      <trkpt lat="50.98644" lon="2.0265">
        <ele>2.9</ele>
        <time>2020-06-23T08:59:46Z</time>
      </trkpt>
      <trkpt lat="50.98643" lon="2.02658">
        <ele>3</ele>
        <time>2020-06-23T08:59:47Z</time>
      </trkpt>
      <trkpt lat="50.98642" lon="2.02667">
        <ele>3.1</ele>
        <time>2020-06-23T08:59:48Z</time>
      </trkpt>
      <trkpt lat="50.98642" lon="2.02674">
        <ele>3.2</ele>
        <time>2020-06-23T08:59:49Z</time>
      </trkpt>
      <trkpt lat="50.98643" lon="2.02682">
        <ele>3.2</ele>
        <time>2020-06-23T08:59:50Z</time>
      </trkpt>
      <trkpt lat="50.98644" lon="2.0269">
        <ele>3.2</ele>
        <time>2020-06-23T08:59:51Z</time>
      </trkpt>
      <trkpt lat="50.98645" lon="2.02698">
        <ele>3.2</ele>
        <time>2020-06-23T08:59:52Z</time>
      </trkpt>
      <trkpt lat="50.98646" lon="2.02707">
        <ele>3.2</ele>
        <time>2020-06-23T08:59:53Z</time>
      </trkpt>
      <trkpt lat="50.98647" lon="2.02715">
        <ele>3.2</ele>
        <time>2020-06-23T08:59:54Z</time>
      </trkpt>
      <trkpt lat="50.98648" lon="2.02724">
        <ele>3.2</ele>
        <time>2020-06-23T08:59:55Z</time>
      </trkpt>
      <trkpt lat="50.98648" lon="2.02732">
        <ele>3.2</ele>
        <time>2020-06-23T08:59:56Z</time>
      </trkpt>
      <trkpt lat="50.98648" lon="2.02741">
        <ele>3.3</ele>
        <time>2020-06-23T08:59:57Z</time>
      </trkpt>
      <trkpt lat="50.98649" lon="2.0275">
        <ele>3.3</ele>
        <time>2020-06-23T08:59:58Z</time>
      </trkpt>
      <trkpt lat="50.98649" lon="2.0276">
        <ele>3.3</ele>
        <time>2020-06-23T08:59:59Z</time>
      </trkpt>
      <trkpt lat="50.9865" lon="2.02769">
        <ele>3.3</ele>
        <time>2020-06-23T09:00:00Z</time>
      </trkpt>
      <trkpt lat="50.98652" lon="2.02778">
        <ele>3.3</ele>
        <time>2020-06-23T09:00:01Z</time>
      </trkpt>
      <trkpt lat="50.98653" lon="2.02787">
        <ele>3.4</ele>
        <time>2020-06-23T09:00:02Z</time>
      </trkpt>
      <trkpt lat="50.98654" lon="2.02797">
        <ele>3.4</ele>
        <time>2020-06-23T09:00:03Z</time>
      </trkpt>
      <trkpt lat="50.98655" lon="2.02806">
        <ele>3.5</ele>
        <time>2020-06-23T09:00:04Z</time>
      </trkpt>
      <trkpt lat="50.98655" lon="2.02815">
        <ele>3.5</ele>
        <time>2020-06-23T09:00:05Z</time>
      </trkpt>
      <trkpt lat="50.98656" lon="2.02825">
        <ele>3.5</ele>
        <time>2020-06-23T09:00:06Z</time>
      </trkpt>
      <trkpt lat="50.98657" lon="2.02834">
        <ele>3.6</ele>
        <time>2020-06-23T09:00:07Z</time>
      </trkpt>
      <trkpt lat="50.98657" lon="2.02843">
        <ele>3.6</ele>
        <time>2020-06-23T09:00:08Z</time>
      </trkpt>
      <trkpt lat="50.98658" lon="2.02851">
        <ele>3.6</ele>
        <time>2020-06-23T09:00:09Z</time>
      </trkpt>
      <trkpt lat="50.98659" lon="2.0286">
        <ele>3.6</ele>
        <time>2020-06-23T09:00:10Z</time>
      </trkpt>
      <trkpt lat="50.98659" lon="2.02869">
        <ele>3.6</ele>
        <time>2020-06-23T09:00:11Z</time>
      </trkpt>
      <trkpt lat="50.9866" lon="2.02877">
        <ele>3.6</ele>
        <time>2020-06-23T09:00:12Z</time>
      </trkpt>
      <trkpt lat="50.9866" lon="2.02886">
        <ele>3.7</ele>
        <time>2020-06-23T09:00:13Z</time>
      </trkpt>
      <trkpt lat="50.98661" lon="2.02895">
        <ele>3.7</ele>
        <time>2020-06-23T09:00:14Z</time>
      </trkpt>
      <trkpt lat="50.98661" lon="2.02904">
        <ele>3.7</ele>
        <time>2020-06-23T09:00:15Z</time>
      </trkpt>
      <trkpt lat="50.98662" lon="2.02912">
        <ele>3.7</ele>
        <time>2020-06-23T09:00:16Z</time>
      </trkpt>
      <trkpt lat="50.98663" lon="2.02921">
        <ele>3.7</ele>
        <time>2020-06-23T09:00:17Z</time>
      </trkpt>
      <trkpt lat="50.98663" lon="2.0293">
        <ele>3.7</ele>
        <time>2020-06-23T09:00:18Z</time>
      </trkpt>
      <trkpt lat="50.98664" lon="2.02938">
        <ele>3.7</ele>
        <time>2020-06-23T09:00:19Z</time>
      </trkpt>
      <trkpt lat="50.98665" lon="2.02947">
        <ele>3.7</ele>
        <time>2020-06-23T09:00:20Z</time>
      </trkpt>
      <trkpt lat="50.98666" lon="2.02956">
        <ele>3.7</ele>
        <time>2020-06-23T09:00:21Z</time>
      </trkpt>
      <trkpt lat="50.98667" lon="2.02964">
        <ele>3.7</ele>
        <time>2020-06-23T09:00:22Z</time>
      </trkpt>
      <trkpt lat="50.98668" lon="2.02974">
        <ele>3.7</ele>
        <time>2020-06-23T09:00:23Z</time>
      </trkpt>
      <trkpt lat="50.98668" lon="2.02983">
        <ele>3.7</ele>
        <time>2020-06-23T09:00:24Z</time>
      </trkpt>
      <trkpt lat="50.98668" lon="2.02993">
        <ele>3.7</ele>
        <time>2020-06-23T09:00:25Z</time>
      </trkpt>
      <trkpt lat="50.98668" lon="2.03003">
        <ele>3.7</ele>
        <time>2020-06-23T09:00:26Z</time>
      </trkpt>
      <trkpt lat="50.98669" lon="2.03012">
        <ele>3.7</ele>
        <time>2020-06-23T09:00:27Z</time>
      </trkpt>
      <trkpt lat="50.98669" lon="2.03022">
        <ele>3.7</ele>
        <time>2020-06-23T09:00:28Z</time>
      </trkpt>
      <trkpt lat="50.9867" lon="2.03031">
        <ele>3.6</ele>
        <time>2020-06-23T09:00:29Z</time>
      </trkpt>
      <trkpt lat="50.9867" lon="2.0304">
        <ele>3.6</ele>
        <time>2020-06-23T09:00:30Z</time>
      </trkpt>
      <trkpt lat="50.98671" lon="2.0305">
        <ele>3.6</ele>
        <time>2020-06-23T09:00:31Z</time>
      </trkpt>
      <trkpt lat="50.98673" lon="2.0306">
        <ele>3.6</ele>
        <time>2020-06-23T09:00:32Z</time>
      </trkpt>
      <trkpt lat="50.98674" lon="2.03069">
        <ele>3.5</ele>
        <time>2020-06-23T09:00:33Z</time>
      </trkpt>
      <trkpt lat="50.98676" lon="2.03079">
        <ele>3.5</ele>
        <time>2020-06-23T09:00:34Z</time>
      </trkpt>
      <trkpt lat="50.98677" lon="2.03087">
        <ele>3.5</ele>
        <time>2020-06-23T09:00:35Z</time>
      </trkpt>
      <trkpt lat="50.98679" lon="2.03096">
        <ele>3.5</ele>
        <time>2020-06-23T09:00:36Z</time>
      </trkpt>
      <trkpt lat="50.98681" lon="2.03106">
        <ele>3.5</ele>
        <time>2020-06-23T09:00:37Z</time>
      </trkpt>
      <trkpt lat="50.98682" lon="2.03116">
        <ele>3.4</ele>
        <time>2020-06-23T09:00:38Z</time>
      </trkpt>
      <trkpt lat="50.98684" lon="2.03126">
        <ele>3.4</ele>
        <time>2020-06-23T09:00:39Z</time>
      </trkpt>
      <trkpt lat="50.98686" lon="2.03136">
        <ele>3.3</ele>
        <time>2020-06-23T09:00:40Z</time>
      </trkpt>
      <trkpt lat="50.98688" lon="2.03145">
        <ele>3.3</ele>
        <time>2020-06-23T09:00:41Z</time>
      </trkpt>
      <trkpt lat="50.9869" lon="2.03154">
        <ele>3.3</ele>
        <time>2020-06-23T09:00:42Z</time>
      </trkpt>
      <trkpt lat="50.98691" lon="2.03163">
        <ele>3.2</ele>
        <time>2020-06-23T09:00:43Z</time>
      </trkpt>
      <trkpt lat="50.98692" lon="2.03171">
        <ele>3.2</ele>
        <time>2020-06-23T09:00:44Z</time>
      </trkpt>
      <trkpt lat="50.98694" lon="2.03179">
        <ele>3.2</ele>
        <time>2020-06-23T09:00:45Z</time>
      </trkpt>
      <trkpt lat="50.98696" lon="2.03189">
        <ele>3.1</ele>
        <time>2020-06-23T09:00:46Z</time>
      </trkpt>
      <trkpt lat="50.98698" lon="2.03197">
        <ele>3.1</ele>
        <time>2020-06-23T09:00:47Z</time>
      </trkpt>
      <trkpt lat="50.987" lon="2.03207">
        <ele>3.1</ele>
        <time>2020-06-23T09:00:48Z</time>
      </trkpt>
      <trkpt lat="50.98701" lon="2.03215">
        <ele>3</ele>
        <time>2020-06-23T09:00:49Z</time>
      </trkpt>
      <trkpt lat="50.98703" lon="2.03224">
        <ele>3</ele>
        <time>2020-06-23T09:00:50Z</time>
      </trkpt>
      <trkpt lat="50.98706" lon="2.03234">
        <ele>3</ele>
        <time>2020-06-23T09:00:51Z</time>
      </trkpt>
      <trkpt lat="50.98707" lon="2.03243">
        <ele>2.9</ele>
        <time>2020-06-23T09:00:52Z</time>
      </trkpt>
      <trkpt lat="50.98709" lon="2.03252">
        <ele>2.9</ele>
        <time>2020-06-23T09:00:53Z</time>
      </trkpt>
      <trkpt lat="50.9871" lon="2.03262">
        <ele>2.9</ele>
        <time>2020-06-23T09:00:54Z</time>
      </trkpt>
      <trkpt lat="50.98712" lon="2.03271">
        <ele>2.9</ele>
        <time>2020-06-23T09:00:55Z</time>
      </trkpt>
      <trkpt lat="50.98714" lon="2.03281">
        <ele>2.9</ele>
        <time>2020-06-23T09:00:56Z</time>
      </trkpt>
      <trkpt lat="50.98716" lon="2.03289">
        <ele>2.9</ele>
        <time>2020-06-23T09:00:57Z</time>
      </trkpt>
      <trkpt lat="50.98718" lon="2.03298">
        <ele>2.9</ele>
        <time>2020-06-23T09:00:58Z</time>
      </trkpt>
      <trkpt lat="50.9872" lon="2.03306">
        <ele>2.9</ele>
        <time>2020-06-23T09:00:59Z</time>
      </trkpt>
      <trkpt lat="50.98722" lon="2.03315">
        <ele>2.9</ele>
        <time>2020-06-23T09:01:00Z</time>
      </trkpt>
      <trkpt lat="50.98724" lon="2.03324">
        <ele>2.9</ele>
        <time>2020-06-23T09:01:01Z</time>
      </trkpt>
      <trkpt lat="50.98726" lon="2.03334">
        <ele>2.9</ele>
        <time>2020-06-23T09:01:02Z</time>
      </trkpt>
      <trkpt lat="50.98727" lon="2.03344">
        <ele>2.9</ele>
        <time>2020-06-23T09:01:03Z</time>
      </trkpt>
      <trkpt lat="50.98729" lon="2.03353">
        <ele>2.9</ele>
        <time>2020-06-23T09:01:04Z</time>
      </trkpt>
      <trkpt lat="50.9873" lon="2.03363">
        <ele>2.9</ele>
        <time>2020-06-23T09:01:05Z</time>
      </trkpt>
      <trkpt lat="50.9873" lon="2.03371">
        <ele>2.9</ele>
        <time>2020-06-23T09:01:06Z</time>
      </trkpt>
      <trkpt lat="50.98731" lon="2.03381">
        <ele>3</ele>
        <time>2020-06-23T09:01:07Z</time>
      </trkpt>
      <trkpt lat="50.98731" lon="2.0339">
        <ele>3</ele>
        <time>2020-06-23T09:01:08Z</time>
      </trkpt>
      <trkpt lat="50.98732" lon="2.03399">
        <ele>3</ele>
        <time>2020-06-23T09:01:09Z</time>
      </trkpt>
      <trkpt lat="50.98732" lon="2.03409">
        <ele>3</ele>
        <time>2020-06-23T09:01:10Z</time>
      </trkpt>
      <trkpt lat="50.98733" lon="2.03419">
        <ele>3</ele>
        <time>2020-06-23T09:01:11Z</time>
      </trkpt>
      <trkpt lat="50.98732" lon="2.03429">
        <ele>3</ele>
        <time>2020-06-23T09:01:12Z</time>
      </trkpt>
      <trkpt lat="50.98732" lon="2.03439">
        <ele>3</ele>
        <time>2020-06-23T09:01:13Z</time>
      </trkpt>
      <trkpt lat="50.98732" lon="2.03449">
        <ele>3</ele>
        <time>2020-06-23T09:01:14Z</time>
      </trkpt>
      <trkpt lat="50.98732" lon="2.03459">
        <ele>3.1</ele>
        <time>2020-06-23T09:01:15Z</time>
      </trkpt>
      <trkpt lat="50.98732" lon="2.03468">
        <ele>3.1</ele>
        <time>2020-06-23T09:01:16Z</time>
      </trkpt>
      <trkpt lat="50.98733" lon="2.03477">
        <ele>3.2</ele>
        <time>2020-06-23T09:01:17Z</time>
      </trkpt>
      <trkpt lat="50.98734" lon="2.03486">
        <ele>3.2</ele>
        <time>2020-06-23T09:01:18Z</time>
      </trkpt>
      <trkpt lat="50.98733" lon="2.03495">
        <ele>3.4</ele>
        <time>2020-06-23T09:01:19Z</time>
      </trkpt>
      <trkpt lat="50.98733" lon="2.03504">
        <ele>3.2</ele>
        <time>2020-06-23T09:01:20Z</time>
      </trkpt>
      <trkpt lat="50.98734" lon="2.03514">
        <ele>3.1</ele>
        <time>2020-06-23T09:01:21Z</time>
      </trkpt>
      <trkpt lat="50.98734" lon="2.03524">
        <ele>3</ele>
        <time>2020-06-23T09:01:22Z</time>
      </trkpt>
      <trkpt lat="50.98733" lon="2.03534">
        <ele>3</ele>
        <time>2020-06-23T09:01:23Z</time>
      </trkpt>
      <trkpt lat="50.98733" lon="2.03543">
        <ele>2.9</ele>
        <time>2020-06-23T09:01:24Z</time>
      </trkpt>
      <trkpt lat="50.98733" lon="2.03553">
        <ele>2.9</ele>
        <time>2020-06-23T09:01:25Z</time>
      </trkpt>
      <trkpt lat="50.98733" lon="2.03561">
        <ele>2.9</ele>
        <time>2020-06-23T09:01:26Z</time>
      </trkpt>
      <trkpt lat="50.98733" lon="2.0357">
        <ele>2.9</ele>
        <time>2020-06-23T09:01:27Z</time>
      </trkpt>
      <trkpt lat="50.98733" lon="2.0358">
        <ele>2.9</ele>
        <time>2020-06-23T09:01:28Z</time>
      </trkpt>
      <trkpt lat="50.98733" lon="2.0359">
        <ele>2.9</ele>
        <time>2020-06-23T09:01:29Z</time>
      </trkpt>
      <trkpt lat="50.98732" lon="2.03598">
        <ele>3</ele>
        <time>2020-06-23T09:01:30Z</time>
      </trkpt>
      <trkpt lat="50.98732" lon="2.03606">
        <ele>3</ele>
        <time>2020-06-23T09:01:31Z</time>
      </trkpt>
      <trkpt lat="50.98732" lon="2.03614">
        <ele>3</ele>
        <time>2020-06-23T09:01:32Z</time>
      </trkpt>
      <trkpt lat="50.98732" lon="2.03621">
        <ele>3</ele>
        <time>2020-06-23T09:01:33Z</time>
      </trkpt>
      <trkpt lat="50.98732" lon="2.03631">
        <ele>3</ele>
        <time>2020-06-23T09:01:34Z</time>
      </trkpt>
      <trkpt lat="50.98731" lon="2.03638">
        <ele>3</ele>
        <time>2020-06-23T09:01:35Z</time>
      </trkpt>
      <trkpt lat="50.98732" lon="2.03646">
        <ele>3.1</ele>
        <time>2020-06-23T09:01:36Z</time>
      </trkpt>
      <trkpt lat="50.98732" lon="2.03653">
        <ele>3.1</ele>
        <time>2020-06-23T09:01:37Z</time>
      </trkpt>
      <trkpt lat="50.98733" lon="2.0366">
        <ele>3.1</ele>
        <time>2020-06-23T09:01:38Z</time>
      </trkpt>
      <trkpt lat="50.98733" lon="2.03668">
        <ele>3.1</ele>
        <time>2020-06-23T09:01:39Z</time>
      </trkpt>
      <trkpt lat="50.98733" lon="2.03677">
        <ele>3.1</ele>
        <time>2020-06-23T09:01:40Z</time>
      </trkpt>
      <trkpt lat="50.98734" lon="2.03685">
        <ele>3.1</ele>
        <time>2020-06-23T09:01:41Z</time>
      </trkpt>
      <trkpt lat="50.98734" lon="2.03694">
        <ele>3.2</ele>
        <time>2020-06-23T09:01:42Z</time>
      </trkpt>
      <trkpt lat="50.98734" lon="2.03702">
        <ele>3.2</ele>
        <time>2020-06-23T09:01:43Z</time>
      </trkpt>
      <trkpt lat="50.98734" lon="2.0371">
        <ele>3.2</ele>
        <time>2020-06-23T09:01:44Z</time>
      </trkpt>
      <trkpt lat="50.98734" lon="2.03716">
        <ele>3.2</ele>
        <time>2020-06-23T09:01:45Z</time>
      </trkpt>
      <trkpt lat="50.98735" lon="2.03724">
        <ele>3.2</ele>
        <time>2020-06-23T09:01:46Z</time>
      </trkpt>
      <trkpt lat="50.98736" lon="2.03731">
        <ele>3</ele>
        <time>2020-06-23T09:01:47Z</time>
      </trkpt>
      <trkpt lat="50.98737" lon="2.03739">
        <ele>2.9</ele>
        <time>2020-06-23T09:01:48Z</time>
      </trkpt>
      <trkpt lat="50.98738" lon="2.03746">
        <ele>2.8</ele>
        <time>2020-06-23T09:01:49Z</time>
      </trkpt>
      <trkpt lat="50.98738" lon="2.0376">
        <ele>2.7</ele>
        <time>2020-06-23T09:01:50Z</time>
      </trkpt>
      <trkpt lat="50.9874" lon="2.0377">
        <ele>2.7</ele>
        <time>2020-06-23T09:01:51Z</time>
      </trkpt>
      <trkpt lat="50.98741" lon="2.03779">
        <ele>2.6</ele>
        <time>2020-06-23T09:01:52Z</time>
      </trkpt>
      <trkpt lat="50.98743" lon="2.0379">
        <ele>2.6</ele>
        <time>2020-06-23T09:01:53Z</time>
      </trkpt>
      <trkpt lat="50.98743" lon="2.038">
        <ele>2.6</ele>
        <time>2020-06-23T09:01:54Z</time>
      </trkpt>
      <trkpt lat="50.98744" lon="2.0381">
        <ele>2.6</ele>
        <time>2020-06-23T09:01:55Z</time>
      </trkpt>
      <trkpt lat="50.98746" lon="2.03821">
        <ele>2.5</ele>
        <time>2020-06-23T09:01:56Z</time>
      </trkpt>
      <trkpt lat="50.98747" lon="2.0383">
        <ele>2.5</ele>
        <time>2020-06-23T09:01:57Z</time>
      </trkpt>
      <trkpt lat="50.98749" lon="2.03838">
        <ele>2.5</ele>
        <time>2020-06-23T09:01:58Z</time>
      </trkpt>
      <trkpt lat="50.9875" lon="2.03847">
        <ele>2.5</ele>
        <time>2020-06-23T09:01:59Z</time>
      </trkpt>
      <trkpt lat="50.9875" lon="2.03853">
        <ele>2.5</ele>
        <time>2020-06-23T09:02:00Z</time>
      </trkpt>
      <trkpt lat="50.98752" lon="2.03861">
        <ele>2.5</ele>
        <time>2020-06-23T09:02:01Z</time>
      </trkpt>
      <trkpt lat="50.98752" lon="2.0387">
        <ele>2.5</ele>
        <time>2020-06-23T09:02:02Z</time>
      </trkpt>
      <trkpt lat="50.98753" lon="2.03879">
        <ele>2.5</ele>
        <time>2020-06-23T09:02:03Z</time>
      </trkpt>
      <trkpt lat="50.98753" lon="2.03887">
        <ele>2.6</ele>
        <time>2020-06-23T09:02:04Z</time>
      </trkpt>
      <trkpt lat="50.98753" lon="2.03896">
        <ele>2.7</ele>
        <time>2020-06-23T09:02:05Z</time>
      </trkpt>
      <trkpt lat="50.98753" lon="2.03904">
        <ele>2.8</ele>
        <time>2020-06-23T09:02:06Z</time>
      </trkpt>
      <trkpt lat="50.98753" lon="2.03913">
        <ele>2.8</ele>
        <time>2020-06-23T09:02:07Z</time>
      </trkpt>
      <trkpt lat="50.98752" lon="2.03921">
        <ele>2.7</ele>
        <time>2020-06-23T09:02:08Z</time>
      </trkpt>
      <trkpt lat="50.9875" lon="2.03931">
        <ele>2.7</ele>
        <time>2020-06-23T09:02:09Z</time>
      </trkpt>
      <trkpt lat="50.98748" lon="2.03939">
        <ele>2.7</ele>
        <time>2020-06-23T09:02:10Z</time>
      </trkpt>
      <trkpt lat="50.98746" lon="2.03947">
        <ele>2.7</ele>
        <time>2020-06-23T09:02:11Z</time>
      </trkpt>
      <trkpt lat="50.98745" lon="2.03953">
        <ele>2.7</ele>
        <time>2020-06-23T09:02:12Z</time>
      </trkpt>
      <trkpt lat="50.98743" lon="2.0396">
        <ele>2.7</ele>
        <time>2020-06-23T09:02:13Z</time>
      </trkpt>
      <trkpt lat="50.9874" lon="2.03968">
        <ele>2.7</ele>
        <time>2020-06-23T09:02:14Z</time>
      </trkpt>
      <trkpt lat="50.98739" lon="2.03975">
        <ele>2.8</ele>
        <time>2020-06-23T09:02:15Z</time>
      </trkpt>
      <trkpt lat="50.98739" lon="2.03984">
        <ele>2.8</ele>
        <time>2020-06-23T09:02:16Z</time>
      </trkpt>
      <trkpt lat="50.98738" lon="2.03992">
        <ele>2.8</ele>
        <time>2020-06-23T09:02:17Z</time>
      </trkpt>
      <trkpt lat="50.98738" lon="2.04001">
        <ele>2.8</ele>
        <time>2020-06-23T09:02:18Z</time>
      </trkpt>
      <trkpt lat="50.98738" lon="2.04009">
        <ele>2.8</ele>
        <time>2020-06-23T09:02:19Z</time>
      </trkpt>
      <trkpt lat="50.98738" lon="2.04017">
        <ele>2.9</ele>
        <time>2020-06-23T09:02:20Z</time>
      </trkpt>
      <trkpt lat="50.98737" lon="2.04024">
        <ele>2.9</ele>
        <time>2020-06-23T09:02:21Z</time>
      </trkpt>
      <trkpt lat="50.98737" lon="2.04032">
        <ele>2.9</ele>
        <time>2020-06-23T09:02:22Z</time>
      </trkpt>
      <trkpt lat="50.98737" lon="2.0404">
        <ele>2.9</ele>
        <time>2020-06-23T09:02:23Z</time>
      </trkpt>
      <trkpt lat="50.98738" lon="2.04049">
        <ele>2.9</ele>
        <time>2020-06-23T09:02:24Z</time>
      </trkpt>
      <trkpt lat="50.98738" lon="2.04056">
        <ele>2.9</ele>
        <time>2020-06-23T09:02:25Z</time>
      </trkpt>
      <trkpt lat="50.98738" lon="2.04064">
        <ele>2.9</ele>
        <time>2020-06-23T09:02:26Z</time>
      </trkpt>
      <trkpt lat="50.98737" lon="2.04072">
        <ele>2.9</ele>
        <time>2020-06-23T09:02:27Z</time>
      </trkpt>
      <trkpt lat="50.98737" lon="2.04079">
        <ele>2.9</ele>
        <time>2020-06-23T09:02:28Z</time>
      </trkpt>
      <trkpt lat="50.98738" lon="2.04087">
        <ele>2.9</ele>
        <time>2020-06-23T09:02:29Z</time>
      </trkpt>
      <trkpt lat="50.98737" lon="2.04095">
        <ele>2.9</ele>
        <time>2020-06-23T09:02:30Z</time>
      </trkpt>
      <trkpt lat="50.98737" lon="2.04105">
        <ele>2.9</ele>
        <time>2020-06-23T09:02:31Z</time>
      </trkpt>
      <trkpt lat="50.98737" lon="2.04114">
        <ele>2.9</ele>
        <time>2020-06-23T09:02:32Z</time>
      </trkpt>
      <trkpt lat="50.98736" lon="2.04124">
        <ele>2.9</ele>
        <time>2020-06-23T09:02:33Z</time>
      </trkpt>
      <trkpt lat="50.98737" lon="2.04133">
        <ele>3</ele>
        <time>2020-06-23T09:02:34Z</time>
      </trkpt>
      <trkpt lat="50.98738" lon="2.04143">
        <ele>3</ele>
        <time>2020-06-23T09:02:35Z</time>
      </trkpt>
      <trkpt lat="50.98738" lon="2.04153">
        <ele>3.1</ele>
        <time>2020-06-23T09:02:36Z</time>
      </trkpt>
      <trkpt lat="50.98737" lon="2.04162">
        <ele>3.1</ele>
        <time>2020-06-23T09:02:37Z</time>
      </trkpt>
      <trkpt lat="50.98737" lon="2.04171">
        <ele>3.1</ele>
        <time>2020-06-23T09:02:38Z</time>
      </trkpt>
      <trkpt lat="50.98737" lon="2.04183">
        <ele>3.1</ele>
        <time>2020-06-23T09:02:39Z</time>
      </trkpt>
      <trkpt lat="50.98737" lon="2.04193">
        <ele>3.1</ele>
        <time>2020-06-23T09:02:40Z</time>
      </trkpt>
      <trkpt lat="50.98736" lon="2.04203">
        <ele>3.1</ele>
        <time>2020-06-23T09:02:41Z</time>
      </trkpt>
      <trkpt lat="50.98736" lon="2.04212">
        <ele>3.2</ele>
        <time>2020-06-23T09:02:42Z</time>
      </trkpt>
      <trkpt lat="50.98736" lon="2.0422">
        <ele>3.2</ele>
        <time>2020-06-23T09:02:43Z</time>
      </trkpt>
      <trkpt lat="50.98737" lon="2.04229">
        <ele>3.2</ele>
        <time>2020-06-23T09:02:44Z</time>
      </trkpt>
      <trkpt lat="50.98737" lon="2.04236">
        <ele>3.2</ele>
        <time>2020-06-23T09:02:45Z</time>
      </trkpt>
      <trkpt lat="50.98737" lon="2.04244">
        <ele>3.2</ele>
        <time>2020-06-23T09:02:46Z</time>
      </trkpt>
      <trkpt lat="50.98736" lon="2.04252">
        <ele>3.2</ele>
        <time>2020-06-23T09:02:47Z</time>
      </trkpt>
      <trkpt lat="50.98737" lon="2.04263">
        <ele>3.2</ele>
        <time>2020-06-23T09:02:48Z</time>
      </trkpt>
      <trkpt lat="50.98736" lon="2.04271">
        <ele>3.2</ele>
        <time>2020-06-23T09:02:49Z</time>
      </trkpt>
      <trkpt lat="50.98736" lon="2.04279">
        <ele>3.2</ele>
        <time>2020-06-23T09:02:50Z</time>
      </trkpt>
      <trkpt lat="50.98735" lon="2.04286">
        <ele>3.3</ele>
        <time>2020-06-23T09:02:51Z</time>
      </trkpt>
      <trkpt lat="50.98735" lon="2.04294">
        <ele>3.3</ele>
        <time>2020-06-23T09:02:52Z</time>
      </trkpt>
      <trkpt lat="50.98734" lon="2.04301">
        <ele>3.3</ele>
        <time>2020-06-23T09:02:53Z</time>
      </trkpt>
      <trkpt lat="50.98734" lon="2.0431">
        <ele>3.3</ele>
        <time>2020-06-23T09:02:54Z</time>
      </trkpt>
      <trkpt lat="50.98734" lon="2.04319">
        <ele>3.3</ele>
        <time>2020-06-23T09:02:55Z</time>
      </trkpt>
      <trkpt lat="50.98735" lon="2.0433">
        <ele>3.3</ele>
        <time>2020-06-23T09:02:56Z</time>
      </trkpt>
      <trkpt lat="50.98735" lon="2.04341">
        <ele>3.3</ele>
        <time>2020-06-23T09:02:57Z</time>
      </trkpt>
      <trkpt lat="50.98735" lon="2.0435">
        <ele>3.2</ele>
        <time>2020-06-23T09:02:58Z</time>
      </trkpt>
      <trkpt lat="50.98735" lon="2.04359">
        <ele>3.2</ele>
        <time>2020-06-23T09:02:59Z</time>
      </trkpt>
      <trkpt lat="50.98736" lon="2.04369">
        <ele>3.2</ele>
        <time>2020-06-23T09:03:00Z</time>
      </trkpt>
      <trkpt lat="50.98736" lon="2.0438">
        <ele>3.3</ele>
        <time>2020-06-23T09:03:01Z</time>
      </trkpt>
      <trkpt lat="50.98736" lon="2.04391">
        <ele>3.3</ele>
        <time>2020-06-23T09:03:02Z</time>
      </trkpt>
      <trkpt lat="50.98735" lon="2.04401">
        <ele>3.3</ele>
        <time>2020-06-23T09:03:03Z</time>
      </trkpt>
      <trkpt lat="50.98735" lon="2.04412">
        <ele>3.2</ele>
        <time>2020-06-23T09:03:04Z</time>
      </trkpt>
      <trkpt lat="50.98735" lon="2.04422">
        <ele>3.2</ele>
        <time>2020-06-23T09:03:05Z</time>
      </trkpt>
      <trkpt lat="50.98734" lon="2.04432">
        <ele>3.2</ele>
        <time>2020-06-23T09:03:06Z</time>
      </trkpt>
      <trkpt lat="50.98734" lon="2.04445">
        <ele>3.2</ele>
        <time>2020-06-23T09:03:07Z</time>
      </trkpt>
      <trkpt lat="50.98734" lon="2.04458">
        <ele>3.2</ele>
        <time>2020-06-23T09:03:08Z</time>
      </trkpt>
      <trkpt lat="50.98734" lon="2.04469">
        <ele>3.2</ele>
        <time>2020-06-23T09:03:09Z</time>
      </trkpt>
      <trkpt lat="50.98734" lon="2.0448">
        <ele>3.2</ele>
        <time>2020-06-23T09:03:10Z</time>
      </trkpt>
      <trkpt lat="50.98734" lon="2.04491">
        <ele>3.2</ele>
        <time>2020-06-23T09:03:11Z</time>
      </trkpt>
      <trkpt lat="50.98734" lon="2.045">
        <ele>3.2</ele>
        <time>2020-06-23T09:03:12Z</time>
      </trkpt>
      <trkpt lat="50.98734" lon="2.04509">
        <ele>3.2</ele>
        <time>2020-06-23T09:03:13Z</time>
      </trkpt>
      <trkpt lat="50.98734" lon="2.04517">
        <ele>3.2</ele>
        <time>2020-06-23T09:03:14Z</time>
      </trkpt>
      <trkpt lat="50.98734" lon="2.04525">
        <ele>3.3</ele>
        <time>2020-06-23T09:03:15Z</time>
      </trkpt>
      <trkpt lat="50.98735" lon="2.04535">
        <ele>3.3</ele>
        <time>2020-06-23T09:03:16Z</time>
      </trkpt>
      <trkpt lat="50.98735" lon="2.04543">
        <ele>3.3</ele>
        <time>2020-06-23T09:03:17Z</time>
      </trkpt>
      <trkpt lat="50.98735" lon="2.04553">
        <ele>3.3</ele>
        <time>2020-06-23T09:03:18Z</time>
      </trkpt>
      <trkpt lat="50.98734" lon="2.0456">
        <ele>3.3</ele>
        <time>2020-06-23T09:03:19Z</time>
      </trkpt>
      <trkpt lat="50.98733" lon="2.04569">
        <ele>3.2</ele>
        <time>2020-06-23T09:03:20Z</time>
      </trkpt>
      <trkpt lat="50.98733" lon="2.04579">
        <ele>3.2</ele>
        <time>2020-06-23T09:03:21Z</time>
      </trkpt>
      <trkpt lat="50.98733" lon="2.04587">
        <ele>3.2</ele>
        <time>2020-06-23T09:03:22Z</time>
      </trkpt>
      <trkpt lat="50.98733" lon="2.04597">
        <ele>3.2</ele>
        <time>2020-06-23T09:03:23Z</time>
      </trkpt>
      <trkpt lat="50.98733" lon="2.04605">
        <ele>3.2</ele>
        <time>2020-06-23T09:03:24Z</time>
      </trkpt>
      <trkpt lat="50.98733" lon="2.0461">
        <ele>3.2</ele>
        <time>2020-06-23T09:03:25Z</time>
      </trkpt>
      <trkpt lat="50.98733" lon="2.04616">
        <ele>3.2</ele>
        <time>2020-06-23T09:03:26Z</time>
      </trkpt>
      <trkpt lat="50.98733" lon="2.04625">
        <ele>3.2</ele>
        <time>2020-06-23T09:03:27Z</time>
      </trkpt>
      <trkpt lat="50.98733" lon="2.04633">
        <ele>3.2</ele>
        <time>2020-06-23T09:03:28Z</time>
      </trkpt>
      <trkpt lat="50.98733" lon="2.04643">
        <ele>3.2</ele>
        <time>2020-06-23T09:03:29Z</time>
      </trkpt>
      <trkpt lat="50.98732" lon="2.04653">
        <ele>3.2</ele>
        <time>2020-06-23T09:03:30Z</time>
      </trkpt>
      <trkpt lat="50.98731" lon="2.04662">
        <ele>3.2</ele>
        <time>2020-06-23T09:03:31Z</time>
      </trkpt>
      <trkpt lat="50.9873" lon="2.04671">
        <ele>3.2</ele>
        <time>2020-06-23T09:03:32Z</time>
      </trkpt>
      <trkpt lat="50.98729" lon="2.04679">
        <ele>3.2</ele>
        <time>2020-06-23T09:03:33Z</time>
      </trkpt>
      <trkpt lat="50.98729" lon="2.04687">
        <ele>3.2</ele>
        <time>2020-06-23T09:03:34Z</time>
      </trkpt>
      <trkpt lat="50.98728" lon="2.04696">
        <ele>3.2</ele>
        <time>2020-06-23T09:03:35Z</time>
      </trkpt>
      <trkpt lat="50.98729" lon="2.04706">
        <ele>3.2</ele>
        <time>2020-06-23T09:03:36Z</time>
      </trkpt>
      <trkpt lat="50.98728" lon="2.04715">
        <ele>3.3</ele>
        <time>2020-06-23T09:03:37Z</time>
      </trkpt>
      <trkpt lat="50.98728" lon="2.04727">
        <ele>3.3</ele>
        <time>2020-06-23T09:03:38Z</time>
      </trkpt>
      <trkpt lat="50.98728" lon="2.04738">
        <ele>3.3</ele>
        <time>2020-06-23T09:03:39Z</time>
      </trkpt>
      <trkpt lat="50.98728" lon="2.04747">
        <ele>3.3</ele>
        <time>2020-06-23T09:03:40Z</time>
      </trkpt>
      <trkpt lat="50.98728" lon="2.04757">
        <ele>3.3</ele>
        <time>2020-06-23T09:03:41Z</time>
      </trkpt>
      <trkpt lat="50.98729" lon="2.04767">
        <ele>3.3</ele>
        <time>2020-06-23T09:03:42Z</time>
      </trkpt>
      <trkpt lat="50.98729" lon="2.04775">
        <ele>3.3</ele>
        <time>2020-06-23T09:03:43Z</time>
      </trkpt>
      <trkpt lat="50.9873" lon="2.04786">
        <ele>3.3</ele>
        <time>2020-06-23T09:03:44Z</time>
      </trkpt>
      <trkpt lat="50.98729" lon="2.04794">
        <ele>3.2</ele>
        <time>2020-06-23T09:03:45Z</time>
      </trkpt>
      <trkpt lat="50.98729" lon="2.04805">
        <ele>3.2</ele>
        <time>2020-06-23T09:03:46Z</time>
      </trkpt>
      <trkpt lat="50.98729" lon="2.04816">
        <ele>3.1</ele>
        <time>2020-06-23T09:03:47Z</time>
      </trkpt>
      <trkpt lat="50.98729" lon="2.04827">
        <ele>3</ele>
        <time>2020-06-23T09:03:48Z</time>
      </trkpt>
      <trkpt lat="50.98728" lon="2.04837">
        <ele>3</ele>
        <time>2020-06-23T09:03:49Z</time>
      </trkpt>
      <trkpt lat="50.98728" lon="2.04847">
        <ele>2.9</ele>
        <time>2020-06-23T09:03:50Z</time>
      </trkpt>
      <trkpt lat="50.98727" lon="2.04857">
        <ele>2.9</ele>
        <time>2020-06-23T09:03:51Z</time>
      </trkpt>
      <trkpt lat="50.98727" lon="2.04867">
        <ele>2.9</ele>
        <time>2020-06-23T09:03:52Z</time>
      </trkpt>
      <trkpt lat="50.98728" lon="2.04875">
        <ele>2.9</ele>
        <time>2020-06-23T09:03:53Z</time>
      </trkpt>
      <trkpt lat="50.98728" lon="2.04886">
        <ele>2.9</ele>
        <time>2020-06-23T09:03:54Z</time>
      </trkpt>
      <trkpt lat="50.98728" lon="2.04894">
        <ele>2.9</ele>
        <time>2020-06-23T09:03:55Z</time>
      </trkpt>
      <trkpt lat="50.98728" lon="2.04902">
        <ele>2.9</ele>
        <time>2020-06-23T09:03:56Z</time>
      </trkpt>
      <trkpt lat="50.98728" lon="2.0491">
        <ele>2.9</ele>
        <time>2020-06-23T09:03:57Z</time>
      </trkpt>
      <trkpt lat="50.98728" lon="2.04919">
        <ele>2.9</ele>
        <time>2020-06-23T09:03:58Z</time>
      </trkpt>
      <trkpt lat="50.98728" lon="2.0493">
        <ele>2.9</ele>
        <time>2020-06-23T09:03:59Z</time>
      </trkpt>
      <trkpt lat="50.98728" lon="2.0494">
        <ele>2.9</ele>
        <time>2020-06-23T09:04:00Z</time>
      </trkpt>
      <trkpt lat="50.98728" lon="2.04951">
        <ele>2.9</ele>
        <time>2020-06-23T09:04:01Z</time>
      </trkpt>
      <trkpt lat="50.98728" lon="2.04962">
        <ele>2.9</ele>
        <time>2020-06-23T09:04:02Z</time>
      </trkpt>
      <trkpt lat="50.98728" lon="2.04971">
        <ele>2.9</ele>
        <time>2020-06-23T09:04:03Z</time>
      </trkpt>
      <trkpt lat="50.98727" lon="2.04982">
        <ele>2.9</ele>
        <time>2020-06-23T09:04:04Z</time>
      </trkpt>
      <trkpt lat="50.98727" lon="2.04991">
        <ele>2.8</ele>
        <time>2020-06-23T09:04:05Z</time>
      </trkpt>
      <trkpt lat="50.98727" lon="2.05003">
        <ele>2.8</ele>
        <time>2020-06-23T09:04:06Z</time>
      </trkpt>
      <trkpt lat="50.98727" lon="2.05014">
        <ele>2.8</ele>
        <time>2020-06-23T09:04:07Z</time>
      </trkpt>
      <trkpt lat="50.98727" lon="2.05025">
        <ele>2.8</ele>
        <time>2020-06-23T09:04:08Z</time>
      </trkpt>
      <trkpt lat="50.98727" lon="2.05036">
        <ele>2.9</ele>
        <time>2020-06-23T09:04:09Z</time>
      </trkpt>
      <trkpt lat="50.98727" lon="2.05046">
        <ele>2.9</ele>
        <time>2020-06-23T09:04:10Z</time>
      </trkpt>
      <trkpt lat="50.98727" lon="2.05056">
        <ele>2.9</ele>
        <time>2020-06-23T09:04:11Z</time>
      </trkpt>
      <trkpt lat="50.98726" lon="2.05067">
        <ele>2.9</ele>
        <time>2020-06-23T09:04:12Z</time>
      </trkpt>
      <trkpt lat="50.98725" lon="2.05079">
        <ele>2.9</ele>
        <time>2020-06-23T09:04:13Z</time>
      </trkpt>
      <trkpt lat="50.98725" lon="2.0509">
        <ele>2.9</ele>
        <time>2020-06-23T09:04:14Z</time>
      </trkpt>
      <trkpt lat="50.98724" lon="2.05101">
        <ele>2.9</ele>
        <time>2020-06-23T09:04:15Z</time>
      </trkpt>
      <trkpt lat="50.98723" lon="2.05111">
        <ele>2.9</ele>
        <time>2020-06-23T09:04:16Z</time>
      </trkpt>
      <trkpt lat="50.98723" lon="2.05122">
        <ele>2.8</ele>
        <time>2020-06-23T09:04:17Z</time>
      </trkpt>
      <trkpt lat="50.98722" lon="2.05134">
        <ele>2.8</ele>
        <time>2020-06-23T09:04:18Z</time>
      </trkpt>
      <trkpt lat="50.98722" lon="2.05145">
        <ele>2.8</ele>
        <time>2020-06-23T09:04:19Z</time>
      </trkpt>
      <trkpt lat="50.98721" lon="2.05156">
        <ele>2.8</ele>
        <time>2020-06-23T09:04:20Z</time>
      </trkpt>
      <trkpt lat="50.9872" lon="2.05166">
        <ele>2.8</ele>
        <time>2020-06-23T09:04:21Z</time>
      </trkpt>
      <trkpt lat="50.9872" lon="2.05175">
        <ele>2.9</ele>
        <time>2020-06-23T09:04:22Z</time>
      </trkpt>
      <trkpt lat="50.98721" lon="2.05184">
        <ele>2.9</ele>
        <time>2020-06-23T09:04:23Z</time>
      </trkpt>
      <trkpt lat="50.9872" lon="2.05194">
        <ele>2.9</ele>
        <time>2020-06-23T09:04:24Z</time>
      </trkpt>
      <trkpt lat="50.98719" lon="2.05204">
        <ele>2.9</ele>
        <time>2020-06-23T09:04:25Z</time>
      </trkpt>
      <trkpt lat="50.98719" lon="2.05214">
        <ele>2.9</ele>
        <time>2020-06-23T09:04:26Z</time>
      </trkpt>
      <trkpt lat="50.98718" lon="2.05224">
        <ele>2.9</ele>
        <time>2020-06-23T09:04:27Z</time>
      </trkpt>
      <trkpt lat="50.98718" lon="2.05234">
        <ele>2.9</ele>
        <time>2020-06-23T09:04:28Z</time>
      </trkpt>
      <trkpt lat="50.98719" lon="2.05247">
        <ele>2.8</ele>
        <time>2020-06-23T09:04:29Z</time>
      </trkpt>
      <trkpt lat="50.98719" lon="2.05258">
        <ele>2.8</ele>
        <time>2020-06-23T09:04:30Z</time>
      </trkpt>
      <trkpt lat="50.98719" lon="2.05268">
        <ele>2.8</ele>
        <time>2020-06-23T09:04:31Z</time>
      </trkpt>
      <trkpt lat="50.98719" lon="2.0528">
        <ele>2.8</ele>
        <time>2020-06-23T09:04:32Z</time>
      </trkpt>
      <trkpt lat="50.98718" lon="2.0529">
        <ele>2.7</ele>
        <time>2020-06-23T09:04:33Z</time>
      </trkpt>
      <trkpt lat="50.98717" lon="2.05299">
        <ele>2.7</ele>
        <time>2020-06-23T09:04:34Z</time>
      </trkpt>
      <trkpt lat="50.98717" lon="2.0531">
        <ele>2.7</ele>
        <time>2020-06-23T09:04:35Z</time>
      </trkpt>
      <trkpt lat="50.98716" lon="2.05321">
        <ele>2.7</ele>
        <time>2020-06-23T09:04:36Z</time>
      </trkpt>
      <trkpt lat="50.98716" lon="2.05331">
        <ele>2.7</ele>
        <time>2020-06-23T09:04:37Z</time>
      </trkpt>
      <trkpt lat="50.98716" lon="2.05341">
        <ele>2.7</ele>
        <time>2020-06-23T09:04:38Z</time>
      </trkpt>
      <trkpt lat="50.98715" lon="2.05352">
        <ele>2.7</ele>
        <time>2020-06-23T09:04:39Z</time>
      </trkpt>
      <trkpt lat="50.98715" lon="2.05363">
        <ele>2.7</ele>
        <time>2020-06-23T09:04:40Z</time>
      </trkpt>
      <trkpt lat="50.98714" lon="2.05373">
        <ele>2.6</ele>
        <time>2020-06-23T09:04:41Z</time>
      </trkpt>
      <trkpt lat="50.98714" lon="2.05383">
        <ele>2.6</ele>
        <time>2020-06-23T09:04:42Z</time>
      </trkpt>
      <trkpt lat="50.98714" lon="2.05394">
        <ele>2.6</ele>
        <time>2020-06-23T09:04:43Z</time>
      </trkpt>
      <trkpt lat="50.98714" lon="2.05405">
        <ele>2.6</ele>
        <time>2020-06-23T09:04:44Z</time>
      </trkpt>
      <trkpt lat="50.98714" lon="2.05416">
        <ele>2.6</ele>
        <time>2020-06-23T09:04:45Z</time>
      </trkpt>
      <trkpt lat="50.98714" lon="2.05427">
        <ele>2.6</ele>
        <time>2020-06-23T09:04:46Z</time>
      </trkpt>
      <trkpt lat="50.98714" lon="2.05438">
        <ele>2.6</ele>
        <time>2020-06-23T09:04:47Z</time>
      </trkpt>
      <trkpt lat="50.98714" lon="2.05448">
        <ele>2.6</ele>
        <time>2020-06-23T09:04:48Z</time>
      </trkpt>
      <trkpt lat="50.98714" lon="2.0546">
        <ele>2.6</ele>
        <time>2020-06-23T09:04:49Z</time>
      </trkpt>
      <trkpt lat="50.98714" lon="2.05469">
        <ele>2.6</ele>
        <time>2020-06-23T09:04:50Z</time>
      </trkpt>
      <trkpt lat="50.98714" lon="2.05477">
        <ele>2.6</ele>
        <time>2020-06-23T09:04:51Z</time>
      </trkpt>
      <trkpt lat="50.98713" lon="2.05488">
        <ele>2.6</ele>
        <time>2020-06-23T09:04:52Z</time>
      </trkpt>
      <trkpt lat="50.98713" lon="2.05499">
        <ele>2.6</ele>
        <time>2020-06-23T09:04:53Z</time>
      </trkpt>
      <trkpt lat="50.98713" lon="2.05509">
        <ele>2.6</ele>
        <time>2020-06-23T09:04:54Z</time>
      </trkpt>
      <trkpt lat="50.98713" lon="2.0552">
        <ele>2.6</ele>
        <time>2020-06-23T09:04:55Z</time>
      </trkpt>
      <trkpt lat="50.98712" lon="2.0553">
        <ele>2.6</ele>
        <time>2020-06-23T09:04:56Z</time>
      </trkpt>
      <trkpt lat="50.98712" lon="2.05542">
        <ele>2.6</ele>
        <time>2020-06-23T09:04:57Z</time>
      </trkpt>
      <trkpt lat="50.98712" lon="2.05552">
        <ele>2.6</ele>
        <time>2020-06-23T09:04:58Z</time>
      </trkpt>
      <trkpt lat="50.98712" lon="2.05563">
        <ele>2.6</ele>
        <time>2020-06-23T09:04:59Z</time>
      </trkpt>
      <trkpt lat="50.98712" lon="2.0557">
        <ele>2.6</ele>
        <time>2020-06-23T09:05:00Z</time>
      </trkpt>
      <trkpt lat="50.98711" lon="2.05578">
        <ele>2.5</ele>
        <time>2020-06-23T09:05:01Z</time>
      </trkpt>
      <trkpt lat="50.9871" lon="2.0559">
        <ele>2.5</ele>
        <time>2020-06-23T09:05:02Z</time>
      </trkpt>
      <trkpt lat="50.9871" lon="2.05599">
        <ele>2.5</ele>
        <time>2020-06-23T09:05:03Z</time>
      </trkpt>
      <trkpt lat="50.98709" lon="2.0561">
        <ele>2.5</ele>
        <time>2020-06-23T09:05:04Z</time>
      </trkpt>
      <trkpt lat="50.98708" lon="2.05623">
        <ele>2.5</ele>
        <time>2020-06-23T09:05:05Z</time>
      </trkpt>
      <trkpt lat="50.98707" lon="2.05631">
        <ele>2.6</ele>
        <time>2020-06-23T09:05:06Z</time>
      </trkpt>
      <trkpt lat="50.98707" lon="2.05641">
        <ele>2.6</ele>
        <time>2020-06-23T09:05:07Z</time>
      </trkpt>
      <trkpt lat="50.98705" lon="2.05652">
        <ele>2.6</ele>
        <time>2020-06-23T09:05:08Z</time>
      </trkpt>
      <trkpt lat="50.98704" lon="2.05663">
        <ele>2.6</ele>
        <time>2020-06-23T09:05:09Z</time>
      </trkpt>
      <trkpt lat="50.98703" lon="2.05674">
        <ele>2.6</ele>
        <time>2020-06-23T09:05:10Z</time>
      </trkpt>
      <trkpt lat="50.98702" lon="2.05684">
        <ele>2.7</ele>
        <time>2020-06-23T09:05:11Z</time>
      </trkpt>
      <trkpt lat="50.98701" lon="2.05694">
        <ele>2.7</ele>
        <time>2020-06-23T09:05:12Z</time>
      </trkpt>
      <trkpt lat="50.987" lon="2.05704">
        <ele>2.7</ele>
        <time>2020-06-23T09:05:13Z</time>
      </trkpt>
      <trkpt lat="50.98699" lon="2.05713">
        <ele>2.8</ele>
        <time>2020-06-23T09:05:14Z</time>
      </trkpt>
      <trkpt lat="50.98698" lon="2.05724">
        <ele>2.9</ele>
        <time>2020-06-23T09:05:15Z</time>
      </trkpt>
      <trkpt lat="50.98696" lon="2.05734">
        <ele>2.7</ele>
        <time>2020-06-23T09:05:16Z</time>
      </trkpt>
      <trkpt lat="50.98695" lon="2.05744">
        <ele>2.6</ele>
        <time>2020-06-23T09:05:17Z</time>
      </trkpt>
      <trkpt lat="50.98694" lon="2.05753">
        <ele>2.5</ele>
        <time>2020-06-23T09:05:18Z</time>
      </trkpt>
      <trkpt lat="50.98693" lon="2.05764">
        <ele>2.5</ele>
        <time>2020-06-23T09:05:19Z</time>
      </trkpt>
      <trkpt lat="50.98692" lon="2.05773">
        <ele>2.5</ele>
        <time>2020-06-23T09:05:20Z</time>
      </trkpt>
      <trkpt lat="50.98691" lon="2.05783">
        <ele>2.5</ele>
        <time>2020-06-23T09:05:21Z</time>
      </trkpt>
      <trkpt lat="50.9869" lon="2.05792">
        <ele>2.5</ele>
        <time>2020-06-23T09:05:22Z</time>
      </trkpt>
      <trkpt lat="50.9869" lon="2.05802">
        <ele>2.6</ele>
        <time>2020-06-23T09:05:23Z</time>
      </trkpt>
      <trkpt lat="50.9869" lon="2.05813">
        <ele>2.6</ele>
        <time>2020-06-23T09:05:24Z</time>
      </trkpt>
      <trkpt lat="50.9869" lon="2.05825">
        <ele>2.6</ele>
        <time>2020-06-23T09:05:25Z</time>
      </trkpt>
      <trkpt lat="50.9869" lon="2.05833">
        <ele>2.7</ele>
        <time>2020-06-23T09:05:26Z</time>
      </trkpt>
      <trkpt lat="50.98689" lon="2.05844">
        <ele>2.7</ele>
        <time>2020-06-23T09:05:27Z</time>
      </trkpt>
      <trkpt lat="50.98689" lon="2.05855">
        <ele>2.7</ele>
        <time>2020-06-23T09:05:28Z</time>
      </trkpt>
      <trkpt lat="50.98688" lon="2.05867">
        <ele>2.7</ele>
        <time>2020-06-23T09:05:29Z</time>
      </trkpt>
      <trkpt lat="50.98688" lon="2.05876">
        <ele>2.7</ele>
        <time>2020-06-23T09:05:30Z</time>
      </trkpt>
      <trkpt lat="50.98688" lon="2.05885">
        <ele>2.7</ele>
        <time>2020-06-23T09:05:31Z</time>
      </trkpt>
      <trkpt lat="50.98688" lon="2.05896">
        <ele>2.8</ele>
        <time>2020-06-23T09:05:32Z</time>
      </trkpt>
      <trkpt lat="50.98688" lon="2.05907">
        <ele>2.8</ele>
        <time>2020-06-23T09:05:33Z</time>
      </trkpt>
      <trkpt lat="50.98689" lon="2.05918">
        <ele>2.8</ele>
        <time>2020-06-23T09:05:34Z</time>
      </trkpt>
      <trkpt lat="50.98689" lon="2.05929">
        <ele>2.8</ele>
        <time>2020-06-23T09:05:35Z</time>
      </trkpt>
      <trkpt lat="50.98689" lon="2.05939">
        <ele>2.8</ele>
        <time>2020-06-23T09:05:36Z</time>
      </trkpt>
      <trkpt lat="50.98689" lon="2.0595">
        <ele>2.8</ele>
        <time>2020-06-23T09:05:37Z</time>
      </trkpt>
      <trkpt lat="50.9869" lon="2.05959">
        <ele>2.8</ele>
        <time>2020-06-23T09:05:38Z</time>
      </trkpt>
      <trkpt lat="50.9869" lon="2.05969">
        <ele>2.8</ele>
        <time>2020-06-23T09:05:39Z</time>
      </trkpt>
      <trkpt lat="50.9869" lon="2.05979">
        <ele>2.8</ele>
        <time>2020-06-23T09:05:40Z</time>
      </trkpt>
      <trkpt lat="50.98691" lon="2.0599">
        <ele>2.8</ele>
        <time>2020-06-23T09:05:41Z</time>
      </trkpt>
      <trkpt lat="50.98691" lon="2.06">
        <ele>2.9</ele>
        <time>2020-06-23T09:05:42Z</time>
      </trkpt>
      <trkpt lat="50.98691" lon="2.0601">
        <ele>2.9</ele>
        <time>2020-06-23T09:05:43Z</time>
      </trkpt>
      <trkpt lat="50.98691" lon="2.06021">
        <ele>2.9</ele>
        <time>2020-06-23T09:05:44Z</time>
      </trkpt>
      <trkpt lat="50.9869" lon="2.06032">
        <ele>2.9</ele>
        <time>2020-06-23T09:05:45Z</time>
      </trkpt>
      <trkpt lat="50.9869" lon="2.06042">
        <ele>2.9</ele>
        <time>2020-06-23T09:05:46Z</time>
      </trkpt>
      <trkpt lat="50.9869" lon="2.06051">
        <ele>2.9</ele>
        <time>2020-06-23T09:05:47Z</time>
      </trkpt>
      <trkpt lat="50.9869" lon="2.06062">
        <ele>2.9</ele>
        <time>2020-06-23T09:05:48Z</time>
      </trkpt>
      <trkpt lat="50.98689" lon="2.06073">
        <ele>3</ele>
        <time>2020-06-23T09:05:49Z</time>
      </trkpt>
      <trkpt lat="50.9869" lon="2.06084">
        <ele>3</ele>
        <time>2020-06-23T09:05:50Z</time>
      </trkpt>
      <trkpt lat="50.9869" lon="2.06095">
        <ele>3</ele>
        <time>2020-06-23T09:05:51Z</time>
      </trkpt>
      <trkpt lat="50.98689" lon="2.06105">
        <ele>3</ele>
        <time>2020-06-23T09:05:52Z</time>
      </trkpt>
      <trkpt lat="50.9869" lon="2.06116">
        <ele>3</ele>
        <time>2020-06-23T09:05:53Z</time>
      </trkpt>
      <trkpt lat="50.9869" lon="2.06126">
        <ele>3</ele>
        <time>2020-06-23T09:05:54Z</time>
      </trkpt>
      <trkpt lat="50.9869" lon="2.06137">
        <ele>3</ele>
        <time>2020-06-23T09:05:55Z</time>
      </trkpt>
      <trkpt lat="50.98689" lon="2.06147">
        <ele>3</ele>
        <time>2020-06-23T09:05:56Z</time>
      </trkpt>
      <trkpt lat="50.98688" lon="2.06157">
        <ele>3</ele>
        <time>2020-06-23T09:05:57Z</time>
      </trkpt>
      <trkpt lat="50.98688" lon="2.06168">
        <ele>3.1</ele>
        <time>2020-06-23T09:05:58Z</time>
      </trkpt>
      <trkpt lat="50.98688" lon="2.06179">
        <ele>3.1</ele>
        <time>2020-06-23T09:05:59Z</time>
      </trkpt>
      <trkpt lat="50.98689" lon="2.0619">
        <ele>3.1</ele>
        <time>2020-06-23T09:06:00Z</time>
      </trkpt>
      <trkpt lat="50.9869" lon="2.06201">
        <ele>3.1</ele>
        <time>2020-06-23T09:06:01Z</time>
      </trkpt>
      <trkpt lat="50.98691" lon="2.06212">
        <ele>3.2</ele>
        <time>2020-06-23T09:06:02Z</time>
      </trkpt>
      <trkpt lat="50.98692" lon="2.06222">
        <ele>3.2</ele>
        <time>2020-06-23T09:06:03Z</time>
      </trkpt>
      <trkpt lat="50.98693" lon="2.06233">
        <ele>3.2</ele>
        <time>2020-06-23T09:06:04Z</time>
      </trkpt>
      <trkpt lat="50.98694" lon="2.06244">
        <ele>3.2</ele>
        <time>2020-06-23T09:06:05Z</time>
      </trkpt>
      <trkpt lat="50.98695" lon="2.06256">
        <ele>3.1</ele>
        <time>2020-06-23T09:06:06Z</time>
      </trkpt>
      <trkpt lat="50.98696" lon="2.06267">
        <ele>3.1</ele>
        <time>2020-06-23T09:06:07Z</time>
      </trkpt>
      <trkpt lat="50.98697" lon="2.06277">
        <ele>3.1</ele>
        <time>2020-06-23T09:06:08Z</time>
      </trkpt>
      <trkpt lat="50.98699" lon="2.06288">
        <ele>3</ele>
        <time>2020-06-23T09:06:09Z</time>
      </trkpt>
      <trkpt lat="50.987" lon="2.06299">
        <ele>3</ele>
        <time>2020-06-23T09:06:10Z</time>
      </trkpt>
      <trkpt lat="50.98701" lon="2.0631">
        <ele>2.9</ele>
        <time>2020-06-23T09:06:11Z</time>
      </trkpt>
      <trkpt lat="50.98702" lon="2.06321">
        <ele>2.9</ele>
        <time>2020-06-23T09:06:12Z</time>
      </trkpt>
      <trkpt lat="50.98703" lon="2.06331">
        <ele>2.9</ele>
        <time>2020-06-23T09:06:13Z</time>
      </trkpt>
      <trkpt lat="50.98703" lon="2.06342">
        <ele>2.9</ele>
        <time>2020-06-23T09:06:14Z</time>
      </trkpt>
      <trkpt lat="50.98704" lon="2.06353">
        <ele>2.9</ele>
        <time>2020-06-23T09:06:15Z</time>
      </trkpt>
      <trkpt lat="50.98704" lon="2.06364">
        <ele>2.8</ele>
        <time>2020-06-23T09:06:16Z</time>
      </trkpt>
      <trkpt lat="50.98704" lon="2.06374">
        <ele>2.8</ele>
        <time>2020-06-23T09:06:17Z</time>
      </trkpt>
      <trkpt lat="50.98703" lon="2.06386">
        <ele>2.8</ele>
        <time>2020-06-23T09:06:18Z</time>
      </trkpt>
      <trkpt lat="50.98702" lon="2.06397">
        <ele>2.8</ele>
        <time>2020-06-23T09:06:19Z</time>
      </trkpt>
      <trkpt lat="50.987" lon="2.06408">
        <ele>2.7</ele>
        <time>2020-06-23T09:06:20Z</time>
      </trkpt>
      <trkpt lat="50.98699" lon="2.06418">
        <ele>2.7</ele>
        <time>2020-06-23T09:06:21Z</time>
      </trkpt>
      <trkpt lat="50.98698" lon="2.06429">
        <ele>2.7</ele>
        <time>2020-06-23T09:06:22Z</time>
      </trkpt>
      <trkpt lat="50.98697" lon="2.0644">
        <ele>2.7</ele>
        <time>2020-06-23T09:06:23Z</time>
      </trkpt>
      <trkpt lat="50.98697" lon="2.0645">
        <ele>2.7</ele>
        <time>2020-06-23T09:06:24Z</time>
      </trkpt>
      <trkpt lat="50.98697" lon="2.06461">
        <ele>2.6</ele>
        <time>2020-06-23T09:06:25Z</time>
      </trkpt>
      <trkpt lat="50.98695" lon="2.06471">
        <ele>2.6</ele>
        <time>2020-06-23T09:06:26Z</time>
      </trkpt>
      <trkpt lat="50.98694" lon="2.06481">
        <ele>2.6</ele>
        <time>2020-06-23T09:06:27Z</time>
      </trkpt>
      <trkpt lat="50.98693" lon="2.06492">
        <ele>2.5</ele>
        <time>2020-06-23T09:06:28Z</time>
      </trkpt>
      <trkpt lat="50.98692" lon="2.06501">
        <ele>2.5</ele>
        <time>2020-06-23T09:06:29Z</time>
      </trkpt>
      <trkpt lat="50.98691" lon="2.06511">
        <ele>2.4</ele>
        <time>2020-06-23T09:06:30Z</time>
      </trkpt>
      <trkpt lat="50.98691" lon="2.06521">
        <ele>2.4</ele>
        <time>2020-06-23T09:06:31Z</time>
      </trkpt>
      <trkpt lat="50.98691" lon="2.06531">
        <ele>2.3</ele>
        <time>2020-06-23T09:06:32Z</time>
      </trkpt>
      <trkpt lat="50.98691" lon="2.0654">
        <ele>2.2</ele>
        <time>2020-06-23T09:06:33Z</time>
      </trkpt>
      <trkpt lat="50.98691" lon="2.06549">
        <ele>2.2</ele>
        <time>2020-06-23T09:06:34Z</time>
      </trkpt>
      <trkpt lat="50.98692" lon="2.06559">
        <ele>2.2</ele>
        <time>2020-06-23T09:06:35Z</time>
      </trkpt>
      <trkpt lat="50.98693" lon="2.06569">
        <ele>2.2</ele>
        <time>2020-06-23T09:06:36Z</time>
      </trkpt>
      <trkpt lat="50.98693" lon="2.06579">
        <ele>2.1</ele>
        <time>2020-06-23T09:06:37Z</time>
      </trkpt>
      <trkpt lat="50.98693" lon="2.0659">
        <ele>2.1</ele>
        <time>2020-06-23T09:06:38Z</time>
      </trkpt>
      <trkpt lat="50.98693" lon="2.066">
        <ele>2.1</ele>
        <time>2020-06-23T09:06:39Z</time>
      </trkpt>
      <trkpt lat="50.98694" lon="2.0661">
        <ele>2.1</ele>
        <time>2020-06-23T09:06:40Z</time>
      </trkpt>
      <trkpt lat="50.98694" lon="2.0662">
        <ele>2.1</ele>
        <time>2020-06-23T09:06:41Z</time>
      </trkpt>
      <trkpt lat="50.98695" lon="2.0663">
        <ele>2.1</ele>
        <time>2020-06-23T09:06:42Z</time>
      </trkpt>
      <trkpt lat="50.98696" lon="2.0664">
        <ele>2.1</ele>
        <time>2020-06-23T09:06:43Z</time>
      </trkpt>
      <trkpt lat="50.98698" lon="2.0665">
        <ele>2.1</ele>
        <time>2020-06-23T09:06:44Z</time>
      </trkpt>
      <trkpt lat="50.98698" lon="2.06659">
        <ele>2.1</ele>
        <time>2020-06-23T09:06:45Z</time>
      </trkpt>
      <trkpt lat="50.98699" lon="2.06669">
        <ele>2.1</ele>
        <time>2020-06-23T09:06:46Z</time>
      </trkpt>
      <trkpt lat="50.987" lon="2.06679">
        <ele>2.1</ele>
        <time>2020-06-23T09:06:47Z</time>
      </trkpt>
      <trkpt lat="50.987" lon="2.06689">
        <ele>2.1</ele>
        <time>2020-06-23T09:06:48Z</time>
      </trkpt>
      <trkpt lat="50.987" lon="2.06699">
        <ele>2.2</ele>
        <time>2020-06-23T09:06:49Z</time>
      </trkpt>
      <trkpt lat="50.98701" lon="2.06709">
        <ele>2.2</ele>
        <time>2020-06-23T09:06:50Z</time>
      </trkpt>
      <trkpt lat="50.98702" lon="2.06719">
        <ele>2.2</ele>
        <time>2020-06-23T09:06:51Z</time>
      </trkpt>
      <trkpt lat="50.98704" lon="2.06729">
        <ele>2.1</ele>
        <time>2020-06-23T09:06:52Z</time>
      </trkpt>
      <trkpt lat="50.98705" lon="2.06739">
        <ele>2.1</ele>
        <time>2020-06-23T09:06:53Z</time>
      </trkpt>
      <trkpt lat="50.98706" lon="2.0675">
        <ele>2.1</ele>
        <time>2020-06-23T09:06:54Z</time>
      </trkpt>
      <trkpt lat="50.98708" lon="2.06761">
        <ele>2.1</ele>
        <time>2020-06-23T09:06:55Z</time>
      </trkpt>
      <trkpt lat="50.98709" lon="2.06772">
        <ele>2.1</ele>
        <time>2020-06-23T09:06:56Z</time>
      </trkpt>
      <trkpt lat="50.98709" lon="2.06783">
        <ele>2</ele>
        <time>2020-06-23T09:06:57Z</time>
      </trkpt>
      <trkpt lat="50.9871" lon="2.06794">
        <ele>2</ele>
        <time>2020-06-23T09:06:58Z</time>
      </trkpt>
      <trkpt lat="50.9871" lon="2.06804">
        <ele>2</ele>
        <time>2020-06-23T09:06:59Z</time>
      </trkpt>
      <trkpt lat="50.98711" lon="2.06815">
        <ele>2</ele>
        <time>2020-06-23T09:07:00Z</time>
      </trkpt>
      <trkpt lat="50.98711" lon="2.06826">
        <ele>2</ele>
        <time>2020-06-23T09:07:01Z</time>
      </trkpt>
      <trkpt lat="50.98712" lon="2.06837">
        <ele>2</ele>
        <time>2020-06-23T09:07:02Z</time>
      </trkpt>
      <trkpt lat="50.98712" lon="2.06848">
        <ele>2</ele>
        <time>2020-06-23T09:07:03Z</time>
      </trkpt>
      <trkpt lat="50.98712" lon="2.06858">
        <ele>2</ele>
        <time>2020-06-23T09:07:04Z</time>
      </trkpt>
      <trkpt lat="50.98713" lon="2.06869">
        <ele>2</ele>
        <time>2020-06-23T09:07:05Z</time>
      </trkpt>
      <trkpt lat="50.98713" lon="2.0688">
        <ele>2</ele>
        <time>2020-06-23T09:07:06Z</time>
      </trkpt>
      <trkpt lat="50.98714" lon="2.06891">
        <ele>2</ele>
        <time>2020-06-23T09:07:07Z</time>
      </trkpt>
      <trkpt lat="50.98715" lon="2.06903">
        <ele>2</ele>
        <time>2020-06-23T09:07:08Z</time>
      </trkpt>
      <trkpt lat="50.98716" lon="2.06913">
        <ele>2</ele>
        <time>2020-06-23T09:07:09Z</time>
      </trkpt>
      <trkpt lat="50.98717" lon="2.06924">
        <ele>2</ele>
        <time>2020-06-23T09:07:10Z</time>
      </trkpt>
      <trkpt lat="50.98717" lon="2.06935">
        <ele>2</ele>
        <time>2020-06-23T09:07:11Z</time>
      </trkpt>
      <trkpt lat="50.98718" lon="2.06946">
        <ele>2</ele>
        <time>2020-06-23T09:07:12Z</time>
      </trkpt>
      <trkpt lat="50.98718" lon="2.06958">
        <ele>2</ele>
        <time>2020-06-23T09:07:13Z</time>
      </trkpt>
      <trkpt lat="50.98719" lon="2.06969">
        <ele>2</ele>
        <time>2020-06-23T09:07:14Z</time>
      </trkpt>
      <trkpt lat="50.9872" lon="2.0698">
        <ele>2</ele>
        <time>2020-06-23T09:07:15Z</time>
      </trkpt>
      <trkpt lat="50.98721" lon="2.06991">
        <ele>2</ele>
        <time>2020-06-23T09:07:16Z</time>
      </trkpt>
      <trkpt lat="50.98721" lon="2.07002">
        <ele>2</ele>
        <time>2020-06-23T09:07:17Z</time>
      </trkpt>
      <trkpt lat="50.98722" lon="2.07013">
        <ele>2</ele>
        <time>2020-06-23T09:07:18Z</time>
      </trkpt>
      <trkpt lat="50.98722" lon="2.07024">
        <ele>2</ele>
        <time>2020-06-23T09:07:19Z</time>
      </trkpt>
      <trkpt lat="50.98723" lon="2.07035">
        <ele>1.9</ele>
        <time>2020-06-23T09:07:20Z</time>
      </trkpt>
      <trkpt lat="50.98723" lon="2.07046">
        <ele>1.9</ele>
        <time>2020-06-23T09:07:21Z</time>
      </trkpt>
      <trkpt lat="50.98724" lon="2.07057">
        <ele>1.9</ele>
        <time>2020-06-23T09:07:22Z</time>
      </trkpt>
      <trkpt lat="50.98725" lon="2.07068">
        <ele>1.9</ele>
        <time>2020-06-23T09:07:23Z</time>
      </trkpt>
      <trkpt lat="50.98726" lon="2.07078">
        <ele>1.9</ele>
        <time>2020-06-23T09:07:24Z</time>
      </trkpt>
      <trkpt lat="50.98727" lon="2.07089">
        <ele>1.9</ele>
        <time>2020-06-23T09:07:25Z</time>
      </trkpt>
      <trkpt lat="50.98727" lon="2.071">
        <ele>1.9</ele>
        <time>2020-06-23T09:07:26Z</time>
      </trkpt>
      <trkpt lat="50.98728" lon="2.0711">
        <ele>1.9</ele>
        <time>2020-06-23T09:07:27Z</time>
      </trkpt>
      <trkpt lat="50.98729" lon="2.07121">
        <ele>1.9</ele>
        <time>2020-06-23T09:07:28Z</time>
      </trkpt>
      <trkpt lat="50.9873" lon="2.07132">
        <ele>1.9</ele>
        <time>2020-06-23T09:07:29Z</time>
      </trkpt>
      <trkpt lat="50.9873" lon="2.07143">
        <ele>1.9</ele>
        <time>2020-06-23T09:07:30Z</time>
      </trkpt>
      <trkpt lat="50.98731" lon="2.07154">
        <ele>1.9</ele>
        <time>2020-06-23T09:07:31Z</time>
      </trkpt>
      <trkpt lat="50.98733" lon="2.07164">
        <ele>1.9</ele>
        <time>2020-06-23T09:07:32Z</time>
      </trkpt>
      <trkpt lat="50.98734" lon="2.07175">
        <ele>1.9</ele>
        <time>2020-06-23T09:07:33Z</time>
      </trkpt>
      <trkpt lat="50.98735" lon="2.07186">
        <ele>2</ele>
        <time>2020-06-23T09:07:34Z</time>
      </trkpt>
      <trkpt lat="50.98737" lon="2.07196">
        <ele>2</ele>
        <time>2020-06-23T09:07:35Z</time>
      </trkpt>
      <trkpt lat="50.98739" lon="2.07207">
        <ele>2.1</ele>
        <time>2020-06-23T09:07:36Z</time>
      </trkpt>
      <trkpt lat="50.98741" lon="2.07217">
        <ele>2.1</ele>
        <time>2020-06-23T09:07:37Z</time>
      </trkpt>
      <trkpt lat="50.98743" lon="2.07228">
        <ele>2.1</ele>
        <time>2020-06-23T09:07:38Z</time>
      </trkpt>
      <trkpt lat="50.98744" lon="2.07238">
        <ele>2.1</ele>
        <time>2020-06-23T09:07:39Z</time>
      </trkpt>
      <trkpt lat="50.98746" lon="2.07249">
        <ele>2.1</ele>
        <time>2020-06-23T09:07:40Z</time>
      </trkpt>
      <trkpt lat="50.98748" lon="2.0726">
        <ele>2.1</ele>
        <time>2020-06-23T09:07:41Z</time>
      </trkpt>
      <trkpt lat="50.9875" lon="2.0727">
        <ele>2.1</ele>
        <time>2020-06-23T09:07:42Z</time>
      </trkpt>
      <trkpt lat="50.98751" lon="2.07281">
        <ele>2.1</ele>
        <time>2020-06-23T09:07:43Z</time>
      </trkpt>
      <trkpt lat="50.98753" lon="2.07292">
        <ele>2.1</ele>
        <time>2020-06-23T09:07:44Z</time>
      </trkpt>
      <trkpt lat="50.98754" lon="2.07302">
        <ele>2.1</ele>
        <time>2020-06-23T09:07:45Z</time>
      </trkpt>
      <trkpt lat="50.98756" lon="2.07312">
        <ele>2.1</ele>
        <time>2020-06-23T09:07:46Z</time>
      </trkpt>
      <trkpt lat="50.98757" lon="2.07322">
        <ele>2.1</ele>
        <time>2020-06-23T09:07:47Z</time>
      </trkpt>
      <trkpt lat="50.98759" lon="2.07333">
        <ele>2</ele>
        <time>2020-06-23T09:07:48Z</time>
      </trkpt>
      <trkpt lat="50.9876" lon="2.07343">
        <ele>2</ele>
        <time>2020-06-23T09:07:49Z</time>
      </trkpt>
      <trkpt lat="50.98762" lon="2.07354">
        <ele>1.9</ele>
        <time>2020-06-23T09:07:50Z</time>
      </trkpt>
      <trkpt lat="50.98763" lon="2.07364">
        <ele>1.9</ele>
        <time>2020-06-23T09:07:51Z</time>
      </trkpt>
      <trkpt lat="50.98765" lon="2.07375">
        <ele>1.8</ele>
        <time>2020-06-23T09:07:52Z</time>
      </trkpt>
      <trkpt lat="50.98766" lon="2.07385">
        <ele>1.8</ele>
        <time>2020-06-23T09:07:53Z</time>
      </trkpt>
      <trkpt lat="50.98768" lon="2.07396">
        <ele>1.8</ele>
        <time>2020-06-23T09:07:54Z</time>
      </trkpt>
      <trkpt lat="50.9877" lon="2.07406">
        <ele>1.8</ele>
        <time>2020-06-23T09:07:55Z</time>
      </trkpt>
      <trkpt lat="50.98773" lon="2.07416">
        <ele>1.9</ele>
        <time>2020-06-23T09:07:56Z</time>
      </trkpt>
      <trkpt lat="50.98774" lon="2.07426">
        <ele>1.9</ele>
        <time>2020-06-23T09:07:57Z</time>
      </trkpt>
      <trkpt lat="50.98776" lon="2.07437">
        <ele>2</ele>
        <time>2020-06-23T09:07:58Z</time>
      </trkpt>
      <trkpt lat="50.98777" lon="2.07448">
        <ele>2.1</ele>
        <time>2020-06-23T09:07:59Z</time>
      </trkpt>
      <trkpt lat="50.98779" lon="2.07459">
        <ele>2.1</ele>
        <time>2020-06-23T09:08:00Z</time>
      </trkpt>
      <trkpt lat="50.9878" lon="2.07469">
        <ele>2.2</ele>
        <time>2020-06-23T09:08:01Z</time>
      </trkpt>
      <trkpt lat="50.98782" lon="2.07479">
        <ele>2.2</ele>
        <time>2020-06-23T09:08:02Z</time>
      </trkpt>
      <trkpt lat="50.98784" lon="2.07489">
        <ele>2.2</ele>
        <time>2020-06-23T09:08:03Z</time>
      </trkpt>
      <trkpt lat="50.98786" lon="2.07499">
        <ele>2.2</ele>
        <time>2020-06-23T09:08:04Z</time>
      </trkpt>
      <trkpt lat="50.98788" lon="2.07509">
        <ele>2.2</ele>
        <time>2020-06-23T09:08:05Z</time>
      </trkpt>
      <trkpt lat="50.9879" lon="2.07519">
        <ele>2.2</ele>
        <time>2020-06-23T09:08:06Z</time>
      </trkpt>
      <trkpt lat="50.98792" lon="2.07529">
        <ele>2.2</ele>
        <time>2020-06-23T09:08:07Z</time>
      </trkpt>
      <trkpt lat="50.98793" lon="2.0754">
        <ele>2.2</ele>
        <time>2020-06-23T09:08:08Z</time>
      </trkpt>
      <trkpt lat="50.98794" lon="2.0755">
        <ele>2.2</ele>
        <time>2020-06-23T09:08:09Z</time>
      </trkpt>
      <trkpt lat="50.98796" lon="2.0756">
        <ele>2.2</ele>
        <time>2020-06-23T09:08:10Z</time>
      </trkpt>
      <trkpt lat="50.98798" lon="2.0757">
        <ele>2.2</ele>
        <time>2020-06-23T09:08:11Z</time>
      </trkpt>
      <trkpt lat="50.98799" lon="2.07581">
        <ele>2.2</ele>
        <time>2020-06-23T09:08:12Z</time>
      </trkpt>
      <trkpt lat="50.988" lon="2.07591">
        <ele>2.2</ele>
        <time>2020-06-23T09:08:13Z</time>
      </trkpt>
      <trkpt lat="50.98802" lon="2.07601">
        <ele>2.2</ele>
        <time>2020-06-23T09:08:14Z</time>
      </trkpt>
      <trkpt lat="50.98803" lon="2.07612">
        <ele>2.2</ele>
        <time>2020-06-23T09:08:15Z</time>
      </trkpt>
      <trkpt lat="50.98803" lon="2.07623">
        <ele>2.2</ele>
        <time>2020-06-23T09:08:16Z</time>
      </trkpt>
      <trkpt lat="50.98805" lon="2.07632">
        <ele>2.2</ele>
        <time>2020-06-23T09:08:17Z</time>
      </trkpt>
      <trkpt lat="50.98806" lon="2.07643">
        <ele>2.1</ele>
        <time>2020-06-23T09:08:18Z</time>
      </trkpt>
      <trkpt lat="50.98808" lon="2.07653">
        <ele>2.1</ele>
        <time>2020-06-23T09:08:19Z</time>
      </trkpt>
      <trkpt lat="50.98809" lon="2.07664">
        <ele>2</ele>
        <time>2020-06-23T09:08:20Z</time>
      </trkpt>
      <trkpt lat="50.9881" lon="2.07674">
        <ele>2</ele>
        <time>2020-06-23T09:08:21Z</time>
      </trkpt>
      <trkpt lat="50.98811" lon="2.07685">
        <ele>2</ele>
        <time>2020-06-23T09:08:22Z</time>
      </trkpt>
      <trkpt lat="50.98813" lon="2.07695">
        <ele>2</ele>
        <time>2020-06-23T09:08:23Z</time>
      </trkpt>
      <trkpt lat="50.98815" lon="2.07705">
        <ele>2.1</ele>
        <time>2020-06-23T09:08:24Z</time>
      </trkpt>
      <trkpt lat="50.98817" lon="2.07715">
        <ele>2.1</ele>
        <time>2020-06-23T09:08:25Z</time>
      </trkpt>
      <trkpt lat="50.98818" lon="2.07725">
        <ele>2.1</ele>
        <time>2020-06-23T09:08:26Z</time>
      </trkpt>
      <trkpt lat="50.9882" lon="2.07735">
        <ele>2.1</ele>
        <time>2020-06-23T09:08:27Z</time>
      </trkpt>
      <trkpt lat="50.98821" lon="2.07745">
        <ele>2.1</ele>
        <time>2020-06-23T09:08:28Z</time>
      </trkpt>
      <trkpt lat="50.98822" lon="2.07755">
        <ele>2.1</ele>
        <time>2020-06-23T09:08:29Z</time>
      </trkpt>
      <trkpt lat="50.98822" lon="2.07765">
        <ele>2.1</ele>
        <time>2020-06-23T09:08:30Z</time>
      </trkpt>
      <trkpt lat="50.98823" lon="2.07774">
        <ele>2.2</ele>
        <time>2020-06-23T09:08:31Z</time>
      </trkpt>
      <trkpt lat="50.98822" lon="2.07784">
        <ele>2.2</ele>
        <time>2020-06-23T09:08:32Z</time>
      </trkpt>
      <trkpt lat="50.98822" lon="2.07794">
        <ele>2.2</ele>
        <time>2020-06-23T09:08:33Z</time>
      </trkpt>
      <trkpt lat="50.98821" lon="2.07804">
        <ele>2.2</ele>
        <time>2020-06-23T09:08:34Z</time>
      </trkpt>
      <trkpt lat="50.9882" lon="2.07814">
        <ele>2.2</ele>
        <time>2020-06-23T09:08:35Z</time>
      </trkpt>
      <trkpt lat="50.98819" lon="2.07824">
        <ele>2.3</ele>
        <time>2020-06-23T09:08:36Z</time>
      </trkpt>
      <trkpt lat="50.98817" lon="2.07835">
        <ele>2.3</ele>
        <time>2020-06-23T09:08:37Z</time>
      </trkpt>
      <trkpt lat="50.98817" lon="2.07845">
        <ele>2.4</ele>
        <time>2020-06-23T09:08:38Z</time>
      </trkpt>
      <trkpt lat="50.98816" lon="2.07855">
        <ele>2.4</ele>
        <time>2020-06-23T09:08:39Z</time>
      </trkpt>
      <trkpt lat="50.98816" lon="2.07864">
        <ele>2.5</ele>
        <time>2020-06-23T09:08:40Z</time>
      </trkpt>
      <trkpt lat="50.98815" lon="2.07874">
        <ele>2.5</ele>
        <time>2020-06-23T09:08:41Z</time>
      </trkpt>
      <trkpt lat="50.98813" lon="2.07885">
        <ele>2.5</ele>
        <time>2020-06-23T09:08:42Z</time>
      </trkpt>
      <trkpt lat="50.9881" lon="2.07895">
        <ele>2.5</ele>
        <time>2020-06-23T09:08:43Z</time>
      </trkpt>
      <trkpt lat="50.98807" lon="2.07906">
        <ele>2.5</ele>
        <time>2020-06-23T09:08:44Z</time>
      </trkpt>
      <trkpt lat="50.98806" lon="2.07917">
        <ele>2.5</ele>
        <time>2020-06-23T09:08:45Z</time>
      </trkpt>
      <trkpt lat="50.98806" lon="2.07929">
        <ele>2.5</ele>
        <time>2020-06-23T09:08:46Z</time>
      </trkpt>
      <trkpt lat="50.98805" lon="2.07941">
        <ele>2.5</ele>
        <time>2020-06-23T09:08:47Z</time>
      </trkpt>
      <trkpt lat="50.98806" lon="2.07954">
        <ele>2.5</ele>
        <time>2020-06-23T09:08:48Z</time>
      </trkpt>
      <trkpt lat="50.98805" lon="2.07965">
        <ele>2.5</ele>
        <time>2020-06-23T09:08:49Z</time>
      </trkpt>
      <trkpt lat="50.98806" lon="2.07976">
        <ele>2.5</ele>
        <time>2020-06-23T09:08:50Z</time>
      </trkpt>
      <trkpt lat="50.98808" lon="2.07987">
        <ele>2.5</ele>
        <time>2020-06-23T09:08:51Z</time>
      </trkpt>
      <trkpt lat="50.98809" lon="2.07999">
        <ele>2.5</ele>
        <time>2020-06-23T09:08:52Z</time>
      </trkpt>
      <trkpt lat="50.9881" lon="2.08009">
        <ele>2.5</ele>
        <time>2020-06-23T09:08:53Z</time>
      </trkpt>
      <trkpt lat="50.98812" lon="2.08019">
        <ele>2.5</ele>
        <time>2020-06-23T09:08:54Z</time>
      </trkpt>
      <trkpt lat="50.98813" lon="2.08029">
        <ele>2.6</ele>
        <time>2020-06-23T09:08:55Z</time>
      </trkpt>
      <trkpt lat="50.98814" lon="2.0804">
        <ele>2.6</ele>
        <time>2020-06-23T09:08:56Z</time>
      </trkpt>
      <trkpt lat="50.98816" lon="2.0805">
        <ele>2.6</ele>
        <time>2020-06-23T09:08:57Z</time>
      </trkpt>
      <trkpt lat="50.98817" lon="2.08061">
        <ele>2.6</ele>
        <time>2020-06-23T09:08:58Z</time>
      </trkpt>
      <trkpt lat="50.98819" lon="2.08071">
        <ele>2.6</ele>
        <time>2020-06-23T09:08:59Z</time>
      </trkpt>
      <trkpt lat="50.98821" lon="2.08081">
        <ele>2.6</ele>
        <time>2020-06-23T09:09:00Z</time>
      </trkpt>
      <trkpt lat="50.98822" lon="2.08092">
        <ele>2.6</ele>
        <time>2020-06-23T09:09:01Z</time>
      </trkpt>
      <trkpt lat="50.98823" lon="2.08103">
        <ele>2.7</ele>
        <time>2020-06-23T09:09:02Z</time>
      </trkpt>
      <trkpt lat="50.98824" lon="2.08113">
        <ele>2.7</ele>
        <time>2020-06-23T09:09:03Z</time>
      </trkpt>
      <trkpt lat="50.98825" lon="2.08124">
        <ele>2.7</ele>
        <time>2020-06-23T09:09:04Z</time>
      </trkpt>
      <trkpt lat="50.98826" lon="2.08135">
        <ele>2.6</ele>
        <time>2020-06-23T09:09:05Z</time>
      </trkpt>
      <trkpt lat="50.98827" lon="2.08145">
        <ele>2.6</ele>
        <time>2020-06-23T09:09:06Z</time>
      </trkpt>
      <trkpt lat="50.98828" lon="2.08155">
        <ele>2.6</ele>
        <time>2020-06-23T09:09:07Z</time>
      </trkpt>
      <trkpt lat="50.98829" lon="2.08166">
        <ele>2.6</ele>
        <time>2020-06-23T09:09:08Z</time>
      </trkpt>
      <trkpt lat="50.9883" lon="2.08177">
        <ele>2.6</ele>
        <time>2020-06-23T09:09:09Z</time>
      </trkpt>
      <trkpt lat="50.98831" lon="2.08187">
        <ele>2.6</ele>
        <time>2020-06-23T09:09:10Z</time>
      </trkpt>
      <trkpt lat="50.98833" lon="2.08198">
        <ele>2.5</ele>
        <time>2020-06-23T09:09:11Z</time>
      </trkpt>
      <trkpt lat="50.98834" lon="2.08208">
        <ele>2.5</ele>
        <time>2020-06-23T09:09:12Z</time>
      </trkpt>
      <trkpt lat="50.98836" lon="2.08219">
        <ele>2.4</ele>
        <time>2020-06-23T09:09:13Z</time>
      </trkpt>
      <trkpt lat="50.98836" lon="2.0823">
        <ele>2.4</ele>
        <time>2020-06-23T09:09:14Z</time>
      </trkpt>
      <trkpt lat="50.98837" lon="2.0824">
        <ele>2.4</ele>
        <time>2020-06-23T09:09:15Z</time>
      </trkpt>
      <trkpt lat="50.98838" lon="2.08251">
        <ele>2.4</ele>
        <time>2020-06-23T09:09:16Z</time>
      </trkpt>
      <trkpt lat="50.9884" lon="2.08262">
        <ele>2.4</ele>
        <time>2020-06-23T09:09:17Z</time>
      </trkpt>
      <trkpt lat="50.98841" lon="2.08272">
        <ele>2.4</ele>
        <time>2020-06-23T09:09:18Z</time>
      </trkpt>
      <trkpt lat="50.98842" lon="2.08283">
        <ele>2.3</ele>
        <time>2020-06-23T09:09:19Z</time>
      </trkpt>
      <trkpt lat="50.98844" lon="2.08293">
        <ele>2.3</ele>
        <time>2020-06-23T09:09:20Z</time>
      </trkpt>
      <trkpt lat="50.98845" lon="2.08304">
        <ele>2.3</ele>
        <time>2020-06-23T09:09:21Z</time>
      </trkpt>
      <trkpt lat="50.98845" lon="2.08315">
        <ele>2.4</ele>
        <time>2020-06-23T09:09:22Z</time>
      </trkpt>
      <trkpt lat="50.98845" lon="2.08326">
        <ele>2.4</ele>
        <time>2020-06-23T09:09:23Z</time>
      </trkpt>
      <trkpt lat="50.98847" lon="2.08336">
        <ele>2.4</ele>
        <time>2020-06-23T09:09:24Z</time>
      </trkpt>
      <trkpt lat="50.98847" lon="2.08346">
        <ele>2.4</ele>
        <time>2020-06-23T09:09:25Z</time>
      </trkpt>
      <trkpt lat="50.98848" lon="2.08357">
        <ele>2.4</ele>
        <time>2020-06-23T09:09:26Z</time>
      </trkpt>
      <trkpt lat="50.98849" lon="2.08368">
        <ele>2.4</ele>
        <time>2020-06-23T09:09:27Z</time>
      </trkpt>
      <trkpt lat="50.9885" lon="2.08378">
        <ele>2.5</ele>
        <time>2020-06-23T09:09:28Z</time>
      </trkpt>
      <trkpt lat="50.98851" lon="2.08389">
        <ele>2.5</ele>
        <time>2020-06-23T09:09:29Z</time>
      </trkpt>
      <trkpt lat="50.98853" lon="2.08399">
        <ele>2.5</ele>
        <time>2020-06-23T09:09:30Z</time>
      </trkpt>
      <trkpt lat="50.98855" lon="2.0841">
        <ele>2.5</ele>
        <time>2020-06-23T09:09:31Z</time>
      </trkpt>
      <trkpt lat="50.98856" lon="2.08421">
        <ele>2.4</ele>
        <time>2020-06-23T09:09:32Z</time>
      </trkpt>
      <trkpt lat="50.98858" lon="2.08431">
        <ele>2.4</ele>
        <time>2020-06-23T09:09:33Z</time>
      </trkpt>
      <trkpt lat="50.9886" lon="2.0844">
        <ele>2.4</ele>
        <time>2020-06-23T09:09:34Z</time>
      </trkpt>
      <trkpt lat="50.98861" lon="2.08451">
        <ele>2.5</ele>
        <time>2020-06-23T09:09:35Z</time>
      </trkpt>
      <trkpt lat="50.98863" lon="2.08461">
        <ele>2.5</ele>
        <time>2020-06-23T09:09:36Z</time>
      </trkpt>
      <trkpt lat="50.98865" lon="2.08471">
        <ele>2.5</ele>
        <time>2020-06-23T09:09:37Z</time>
      </trkpt>
      <trkpt lat="50.98867" lon="2.08481">
        <ele>2.5</ele>
        <time>2020-06-23T09:09:38Z</time>
      </trkpt>
      <trkpt lat="50.98869" lon="2.08492">
        <ele>2.4</ele>
        <time>2020-06-23T09:09:39Z</time>
      </trkpt>
      <trkpt lat="50.98871" lon="2.08501">
        <ele>2.4</ele>
        <time>2020-06-23T09:09:40Z</time>
      </trkpt>
      <trkpt lat="50.98873" lon="2.08511">
        <ele>2.3</ele>
        <time>2020-06-23T09:09:41Z</time>
      </trkpt>
      <trkpt lat="50.98875" lon="2.08521">
        <ele>2.2</ele>
        <time>2020-06-23T09:09:42Z</time>
      </trkpt>
      <trkpt lat="50.98877" lon="2.08531">
        <ele>2.2</ele>
        <time>2020-06-23T09:09:43Z</time>
      </trkpt>
      <trkpt lat="50.98879" lon="2.0854">
        <ele>2.1</ele>
        <time>2020-06-23T09:09:44Z</time>
      </trkpt>
      <trkpt lat="50.98881" lon="2.0855">
        <ele>2.1</ele>
        <time>2020-06-23T09:09:45Z</time>
      </trkpt>
      <trkpt lat="50.98882" lon="2.08559">
        <ele>2</ele>
        <time>2020-06-23T09:09:46Z</time>
      </trkpt>
      <trkpt lat="50.98884" lon="2.08568">
        <ele>2</ele>
        <time>2020-06-23T09:09:47Z</time>
      </trkpt>
      <trkpt lat="50.98887" lon="2.08577">
        <ele>2</ele>
        <time>2020-06-23T09:09:48Z</time>
      </trkpt>
      <trkpt lat="50.98889" lon="2.08585">
        <ele>2</ele>
        <time>2020-06-23T09:09:49Z</time>
      </trkpt>
      <trkpt lat="50.98891" lon="2.08594">
        <ele>2</ele>
        <time>2020-06-23T09:09:50Z</time>
      </trkpt>
      <trkpt lat="50.98892" lon="2.08602">
        <ele>2</ele>
        <time>2020-06-23T09:09:51Z</time>
      </trkpt>
      <trkpt lat="50.98894" lon="2.08611">
        <ele>2</ele>
        <time>2020-06-23T09:09:52Z</time>
      </trkpt>
      <trkpt lat="50.98896" lon="2.0862">
        <ele>2</ele>
        <time>2020-06-23T09:09:53Z</time>
      </trkpt>
      <trkpt lat="50.98898" lon="2.08629">
        <ele>2</ele>
        <time>2020-06-23T09:09:54Z</time>
      </trkpt>
      <trkpt lat="50.98901" lon="2.08638">
        <ele>2</ele>
        <time>2020-06-23T09:09:55Z</time>
      </trkpt>
      <trkpt lat="50.98903" lon="2.08648">
        <ele>2.1</ele>
        <time>2020-06-23T09:09:56Z</time>
      </trkpt>
      <trkpt lat="50.98905" lon="2.08658">
        <ele>2.1</ele>
        <time>2020-06-23T09:09:57Z</time>
      </trkpt>
      <trkpt lat="50.98907" lon="2.08668">
        <ele>2</ele>
        <time>2020-06-23T09:09:58Z</time>
      </trkpt>
      <trkpt lat="50.98911" lon="2.08678">
        <ele>2</ele>
        <time>2020-06-23T09:09:59Z</time>
      </trkpt>
      <trkpt lat="50.98914" lon="2.08688">
        <ele>2</ele>
        <time>2020-06-23T09:10:00Z</time>
      </trkpt>
      <trkpt lat="50.98917" lon="2.08698">
        <ele>2</ele>
        <time>2020-06-23T09:10:01Z</time>
      </trkpt>
      <trkpt lat="50.98919" lon="2.08709">
        <ele>1.9</ele>
        <time>2020-06-23T09:10:02Z</time>
      </trkpt>
      <trkpt lat="50.98921" lon="2.08719">
        <ele>1.9</ele>
        <time>2020-06-23T09:10:03Z</time>
      </trkpt>
      <trkpt lat="50.98924" lon="2.0873">
        <ele>1.8</ele>
        <time>2020-06-23T09:10:04Z</time>
      </trkpt>
      <trkpt lat="50.98926" lon="2.08741">
        <ele>1.7</ele>
        <time>2020-06-23T09:10:05Z</time>
      </trkpt>
      <trkpt lat="50.98929" lon="2.08752">
        <ele>1.7</ele>
        <time>2020-06-23T09:10:06Z</time>
      </trkpt>
      <trkpt lat="50.98932" lon="2.08763">
        <ele>1.6</ele>
        <time>2020-06-23T09:10:07Z</time>
      </trkpt>
      <trkpt lat="50.98935" lon="2.08774">
        <ele>1.6</ele>
        <time>2020-06-23T09:10:08Z</time>
      </trkpt>
      <trkpt lat="50.98938" lon="2.08785">
        <ele>1.6</ele>
        <time>2020-06-23T09:10:09Z</time>
      </trkpt>
      <trkpt lat="50.98941" lon="2.08796">
        <ele>1.6</ele>
        <time>2020-06-23T09:10:10Z</time>
      </trkpt>
      <trkpt lat="50.98944" lon="2.08806">
        <ele>1.6</ele>
        <time>2020-06-23T09:10:11Z</time>
      </trkpt>
      <trkpt lat="50.98947" lon="2.08815">
        <ele>1.6</ele>
        <time>2020-06-23T09:10:12Z</time>
      </trkpt>
      <trkpt lat="50.9895" lon="2.08825">
        <ele>1.6</ele>
        <time>2020-06-23T09:10:13Z</time>
      </trkpt>
      <trkpt lat="50.98954" lon="2.08834">
        <ele>1.7</ele>
        <time>2020-06-23T09:10:14Z</time>
      </trkpt>
      <trkpt lat="50.98957" lon="2.08843">
        <ele>1.7</ele>
        <time>2020-06-23T09:10:15Z</time>
      </trkpt>
      <trkpt lat="50.9896" lon="2.08852">
        <ele>1.7</ele>
        <time>2020-06-23T09:10:16Z</time>
      </trkpt>
      <trkpt lat="50.98962" lon="2.08862">
        <ele>1.8</ele>
        <time>2020-06-23T09:10:17Z</time>
      </trkpt>
      <trkpt lat="50.98965" lon="2.08872">
        <ele>1.8</ele>
        <time>2020-06-23T09:10:18Z</time>
      </trkpt>
      <trkpt lat="50.98967" lon="2.08882">
        <ele>1.9</ele>
        <time>2020-06-23T09:10:19Z</time>
      </trkpt>
      <trkpt lat="50.98969" lon="2.08891">
        <ele>1.9</ele>
        <time>2020-06-23T09:10:20Z</time>
      </trkpt>
      <trkpt lat="50.98972" lon="2.089">
        <ele>1.8</ele>
        <time>2020-06-23T09:10:21Z</time>
      </trkpt>
      <trkpt lat="50.98975" lon="2.0891">
        <ele>1.8</ele>
        <time>2020-06-23T09:10:22Z</time>
      </trkpt>
      <trkpt lat="50.98977" lon="2.08921">
        <ele>1.8</ele>
        <time>2020-06-23T09:10:23Z</time>
      </trkpt>
      <trkpt lat="50.9898" lon="2.0893">
        <ele>1.8</ele>
        <time>2020-06-23T09:10:24Z</time>
      </trkpt>
      <trkpt lat="50.98982" lon="2.08939">
        <ele>1.8</ele>
        <time>2020-06-23T09:10:25Z</time>
      </trkpt>
      <trkpt lat="50.98984" lon="2.08949">
        <ele>1.8</ele>
        <time>2020-06-23T09:10:26Z</time>
      </trkpt>
      <trkpt lat="50.98987" lon="2.08959">
        <ele>1.8</ele>
        <time>2020-06-23T09:10:27Z</time>
      </trkpt>
      <trkpt lat="50.98989" lon="2.08969">
        <ele>1.8</ele>
        <time>2020-06-23T09:10:28Z</time>
      </trkpt>
      <trkpt lat="50.98992" lon="2.08979">
        <ele>1.8</ele>
        <time>2020-06-23T09:10:29Z</time>
      </trkpt>
      <trkpt lat="50.98994" lon="2.08989">
        <ele>1.9</ele>
        <time>2020-06-23T09:10:30Z</time>
      </trkpt>
      <trkpt lat="50.98995" lon="2.09">
        <ele>1.9</ele>
        <time>2020-06-23T09:10:31Z</time>
      </trkpt>
      <trkpt lat="50.98997" lon="2.0901">
        <ele>1.9</ele>
        <time>2020-06-23T09:10:32Z</time>
      </trkpt>
      <trkpt lat="50.98999" lon="2.0902">
        <ele>2</ele>
        <time>2020-06-23T09:10:33Z</time>
      </trkpt>
      <trkpt lat="50.99001" lon="2.09031">
        <ele>2</ele>
        <time>2020-06-23T09:10:34Z</time>
      </trkpt>
      <trkpt lat="50.99003" lon="2.09041">
        <ele>2</ele>
        <time>2020-06-23T09:10:35Z</time>
      </trkpt>
      <trkpt lat="50.99005" lon="2.09051">
        <ele>2</ele>
        <time>2020-06-23T09:10:36Z</time>
      </trkpt>
      <trkpt lat="50.99006" lon="2.09061">
        <ele>2</ele>
        <time>2020-06-23T09:10:37Z</time>
      </trkpt>
      <trkpt lat="50.99008" lon="2.09071">
        <ele>2</ele>
        <time>2020-06-23T09:10:38Z</time>
      </trkpt>
      <trkpt lat="50.99009" lon="2.09081">
        <ele>2</ele>
        <time>2020-06-23T09:10:39Z</time>
      </trkpt>
      <trkpt lat="50.9901" lon="2.09091">
        <ele>2</ele>
        <time>2020-06-23T09:10:40Z</time>
      </trkpt>
      <trkpt lat="50.99012" lon="2.09101">
        <ele>2</ele>
        <time>2020-06-23T09:10:41Z</time>
      </trkpt>
      <trkpt lat="50.99013" lon="2.09111">
        <ele>2</ele>
        <time>2020-06-23T09:10:42Z</time>
      </trkpt>
      <trkpt lat="50.99015" lon="2.09121">
        <ele>2</ele>
        <time>2020-06-23T09:10:43Z</time>
      </trkpt>
      <trkpt lat="50.99016" lon="2.09132">
        <ele>2</ele>
        <time>2020-06-23T09:10:44Z</time>
      </trkpt>
      <trkpt lat="50.99017" lon="2.09142">
        <ele>2</ele>
        <time>2020-06-23T09:10:45Z</time>
      </trkpt>
      <trkpt lat="50.99019" lon="2.09152">
        <ele>2</ele>
        <time>2020-06-23T09:10:46Z</time>
      </trkpt>
      <trkpt lat="50.99021" lon="2.09162">
        <ele>2</ele>
        <time>2020-06-23T09:10:47Z</time>
      </trkpt>
      <trkpt lat="50.99023" lon="2.09174">
        <ele>2.1</ele>
        <time>2020-06-23T09:10:48Z</time>
      </trkpt>
      <trkpt lat="50.99025" lon="2.09183">
        <ele>2.1</ele>
        <time>2020-06-23T09:10:49Z</time>
      </trkpt>
      <trkpt lat="50.99027" lon="2.09193">
        <ele>2.1</ele>
        <time>2020-06-23T09:10:50Z</time>
      </trkpt>
      <trkpt lat="50.99029" lon="2.09203">
        <ele>2.1</ele>
        <time>2020-06-23T09:10:51Z</time>
      </trkpt>
      <trkpt lat="50.99031" lon="2.09215">
        <ele>2.1</ele>
        <time>2020-06-23T09:10:52Z</time>
      </trkpt>
      <trkpt lat="50.99033" lon="2.09225">
        <ele>2.1</ele>
        <time>2020-06-23T09:10:53Z</time>
      </trkpt>
      <trkpt lat="50.99034" lon="2.09235">
        <ele>2.1</ele>
        <time>2020-06-23T09:10:54Z</time>
      </trkpt>
      <trkpt lat="50.99037" lon="2.09247">
        <ele>2.1</ele>
        <time>2020-06-23T09:10:55Z</time>
      </trkpt>
      <trkpt lat="50.99038" lon="2.09257">
        <ele>2.1</ele>
        <time>2020-06-23T09:10:56Z</time>
      </trkpt>
      <trkpt lat="50.9904" lon="2.09267">
        <ele>2.1</ele>
        <time>2020-06-23T09:10:57Z</time>
      </trkpt>
      <trkpt lat="50.99042" lon="2.09279">
        <ele>2.1</ele>
        <time>2020-06-23T09:10:58Z</time>
      </trkpt>
      <trkpt lat="50.99044" lon="2.09291">
        <ele>2</ele>
        <time>2020-06-23T09:10:59Z</time>
      </trkpt>
      <trkpt lat="50.99045" lon="2.09301">
        <ele>2</ele>
        <time>2020-06-23T09:11:00Z</time>
      </trkpt>
      <trkpt lat="50.99046" lon="2.09311">
        <ele>1.9</ele>
        <time>2020-06-23T09:11:01Z</time>
      </trkpt>
      <trkpt lat="50.99048" lon="2.0932">
        <ele>1.9</ele>
        <time>2020-06-23T09:11:02Z</time>
      </trkpt>
      <trkpt lat="50.9905" lon="2.09331">
        <ele>1.9</ele>
        <time>2020-06-23T09:11:03Z</time>
      </trkpt>
      <trkpt lat="50.99052" lon="2.09341">
        <ele>2</ele>
        <time>2020-06-23T09:11:04Z</time>
      </trkpt>
      <trkpt lat="50.99054" lon="2.09351">
        <ele>2.1</ele>
        <time>2020-06-23T09:11:05Z</time>
      </trkpt>
      <trkpt lat="50.99056" lon="2.09361">
        <ele>2.1</ele>
        <time>2020-06-23T09:11:06Z</time>
      </trkpt>
      <trkpt lat="50.99058" lon="2.09372">
        <ele>2.1</ele>
        <time>2020-06-23T09:11:07Z</time>
      </trkpt>
      <trkpt lat="50.99059" lon="2.09381">
        <ele>2.1</ele>
        <time>2020-06-23T09:11:08Z</time>
      </trkpt>
      <trkpt lat="50.9906" lon="2.09391">
        <ele>2.1</ele>
        <time>2020-06-23T09:11:09Z</time>
      </trkpt>
      <trkpt lat="50.99062" lon="2.09401">
        <ele>2.1</ele>
        <time>2020-06-23T09:11:10Z</time>
      </trkpt>
      <trkpt lat="50.99064" lon="2.09411">
        <ele>2.1</ele>
        <time>2020-06-23T09:11:11Z</time>
      </trkpt>
      <trkpt lat="50.99066" lon="2.09423">
        <ele>2.1</ele>
        <time>2020-06-23T09:11:12Z</time>
      </trkpt>
      <trkpt lat="50.99068" lon="2.09433">
        <ele>2.1</ele>
        <time>2020-06-23T09:11:13Z</time>
      </trkpt>
      <trkpt lat="50.99069" lon="2.09443">
        <ele>2.1</ele>
        <time>2020-06-23T09:11:14Z</time>
      </trkpt>
      <trkpt lat="50.99069" lon="2.09452">
        <ele>2.1</ele>
        <time>2020-06-23T09:11:15Z</time>
      </trkpt>
      <trkpt lat="50.99071" lon="2.09461">
        <ele>2.1</ele>
        <time>2020-06-23T09:11:16Z</time>
      </trkpt>
      <trkpt lat="50.99071" lon="2.0947">
        <ele>2.1</ele>
        <time>2020-06-23T09:11:17Z</time>
      </trkpt>
      <trkpt lat="50.99073" lon="2.0948">
        <ele>2.1</ele>
        <time>2020-06-23T09:11:18Z</time>
      </trkpt>
      <trkpt lat="50.99075" lon="2.09491">
        <ele>2</ele>
        <time>2020-06-23T09:11:19Z</time>
      </trkpt>
      <trkpt lat="50.99077" lon="2.09502">
        <ele>2</ele>
        <time>2020-06-23T09:11:20Z</time>
      </trkpt>
      <trkpt lat="50.99079" lon="2.09514">
        <ele>2</ele>
        <time>2020-06-23T09:11:21Z</time>
      </trkpt>
      <trkpt lat="50.99081" lon="2.09525">
        <ele>2</ele>
        <time>2020-06-23T09:11:22Z</time>
      </trkpt>
      <trkpt lat="50.99083" lon="2.09537">
        <ele>2</ele>
        <time>2020-06-23T09:11:23Z</time>
      </trkpt>
      <trkpt lat="50.99084" lon="2.09547">
        <ele>2</ele>
        <time>2020-06-23T09:11:24Z</time>
      </trkpt>
      <trkpt lat="50.99086" lon="2.09558">
        <ele>2.1</ele>
        <time>2020-06-23T09:11:25Z</time>
      </trkpt>
      <trkpt lat="50.99088" lon="2.09568">
        <ele>2.1</ele>
        <time>2020-06-23T09:11:26Z</time>
      </trkpt>
      <trkpt lat="50.99089" lon="2.09578">
        <ele>2.1</ele>
        <time>2020-06-23T09:11:27Z</time>
      </trkpt>
      <trkpt lat="50.99091" lon="2.09588">
        <ele>2</ele>
        <time>2020-06-23T09:11:28Z</time>
      </trkpt>
      <trkpt lat="50.99093" lon="2.09598">
        <ele>2</ele>
        <time>2020-06-23T09:11:29Z</time>
      </trkpt>
      <trkpt lat="50.99094" lon="2.09608">
        <ele>2</ele>
        <time>2020-06-23T09:11:30Z</time>
      </trkpt>
      <trkpt lat="50.99095" lon="2.09617">
        <ele>2</ele>
        <time>2020-06-23T09:11:31Z</time>
      </trkpt>
      <trkpt lat="50.99097" lon="2.09628">
        <ele>2</ele>
        <time>2020-06-23T09:11:32Z</time>
      </trkpt>
      <trkpt lat="50.99099" lon="2.09639">
        <ele>2.1</ele>
        <time>2020-06-23T09:11:33Z</time>
      </trkpt>
      <trkpt lat="50.991" lon="2.09649">
        <ele>2</ele>
        <time>2020-06-23T09:11:34Z</time>
      </trkpt>
      <trkpt lat="50.991" lon="2.0966">
        <ele>2</ele>
        <time>2020-06-23T09:11:35Z</time>
      </trkpt>
      <trkpt lat="50.99101" lon="2.0967">
        <ele>2</ele>
        <time>2020-06-23T09:11:36Z</time>
      </trkpt>
      <trkpt lat="50.99101" lon="2.09681">
        <ele>2</ele>
        <time>2020-06-23T09:11:37Z</time>
      </trkpt>
      <trkpt lat="50.99101" lon="2.09691">
        <ele>2.1</ele>
        <time>2020-06-23T09:11:38Z</time>
      </trkpt>
      <trkpt lat="50.99101" lon="2.09701">
        <ele>2.1</ele>
        <time>2020-06-23T09:11:39Z</time>
      </trkpt>
      <trkpt lat="50.99101" lon="2.09712">
        <ele>2.1</ele>
        <time>2020-06-23T09:11:40Z</time>
      </trkpt>
      <trkpt lat="50.99102" lon="2.09722">
        <ele>2.1</ele>
        <time>2020-06-23T09:11:41Z</time>
      </trkpt>
      <trkpt lat="50.99102" lon="2.09732">
        <ele>2.1</ele>
        <time>2020-06-23T09:11:42Z</time>
      </trkpt>
      <trkpt lat="50.99101" lon="2.09742">
        <ele>2.1</ele>
        <time>2020-06-23T09:11:43Z</time>
      </trkpt>
      <trkpt lat="50.99101" lon="2.09752">
        <ele>2.1</ele>
        <time>2020-06-23T09:11:44Z</time>
      </trkpt>
      <trkpt lat="50.99101" lon="2.09762">
        <ele>2.2</ele>
        <time>2020-06-23T09:11:45Z</time>
      </trkpt>
      <trkpt lat="50.991" lon="2.09773">
        <ele>2.2</ele>
        <time>2020-06-23T09:11:46Z</time>
      </trkpt>
      <trkpt lat="50.99099" lon="2.09783">
        <ele>2.3</ele>
        <time>2020-06-23T09:11:47Z</time>
      </trkpt>
      <trkpt lat="50.99098" lon="2.09792">
        <ele>2.4</ele>
        <time>2020-06-23T09:11:48Z</time>
      </trkpt>
      <trkpt lat="50.99097" lon="2.09802">
        <ele>2.4</ele>
        <time>2020-06-23T09:11:49Z</time>
      </trkpt>
      <trkpt lat="50.99096" lon="2.09812">
        <ele>2.4</ele>
        <time>2020-06-23T09:11:50Z</time>
      </trkpt>
      <trkpt lat="50.99095" lon="2.09823">
        <ele>2.5</ele>
        <time>2020-06-23T09:11:51Z</time>
      </trkpt>
      <trkpt lat="50.99093" lon="2.09833">
        <ele>2.5</ele>
        <time>2020-06-23T09:11:52Z</time>
      </trkpt>
      <trkpt lat="50.99092" lon="2.09843">
        <ele>2.5</ele>
        <time>2020-06-23T09:11:53Z</time>
      </trkpt>
      <trkpt lat="50.99091" lon="2.09853">
        <ele>2.4</ele>
        <time>2020-06-23T09:11:54Z</time>
      </trkpt>
      <trkpt lat="50.99089" lon="2.09863">
        <ele>2.4</ele>
        <time>2020-06-23T09:11:55Z</time>
      </trkpt>
      <trkpt lat="50.99088" lon="2.09872">
        <ele>2.4</ele>
        <time>2020-06-23T09:11:56Z</time>
      </trkpt>
      <trkpt lat="50.99086" lon="2.09882">
        <ele>2.5</ele>
        <time>2020-06-23T09:11:57Z</time>
      </trkpt>
      <trkpt lat="50.99084" lon="2.09893">
        <ele>2.5</ele>
        <time>2020-06-23T09:11:58Z</time>
      </trkpt>
      <trkpt lat="50.99082" lon="2.09904">
        <ele>2.5</ele>
        <time>2020-06-23T09:11:59Z</time>
      </trkpt>
      <trkpt lat="50.99079" lon="2.09915">
        <ele>2.5</ele>
        <time>2020-06-23T09:12:00Z</time>
      </trkpt>
      <trkpt lat="50.99077" lon="2.09925">
        <ele>2.5</ele>
        <time>2020-06-23T09:12:01Z</time>
      </trkpt>
      <trkpt lat="50.99075" lon="2.09932">
        <ele>2.5</ele>
        <time>2020-06-23T09:12:02Z</time>
      </trkpt>
      <trkpt lat="50.99073" lon="2.09941">
        <ele>2.5</ele>
        <time>2020-06-23T09:12:03Z</time>
      </trkpt>
      <trkpt lat="50.9907" lon="2.0995">
        <ele>2.5</ele>
        <time>2020-06-23T09:12:04Z</time>
      </trkpt>
      <trkpt lat="50.99068" lon="2.09959">
        <ele>2.5</ele>
        <time>2020-06-23T09:12:05Z</time>
      </trkpt>
      <trkpt lat="50.99066" lon="2.09967">
        <ele>2.5</ele>
        <time>2020-06-23T09:12:06Z</time>
      </trkpt>
      <trkpt lat="50.99064" lon="2.09976">
        <ele>2.5</ele>
        <time>2020-06-23T09:12:07Z</time>
      </trkpt>
      <trkpt lat="50.99063" lon="2.09984">
        <ele>2.5</ele>
        <time>2020-06-23T09:12:08Z</time>
      </trkpt>
      <trkpt lat="50.99061" lon="2.09993">
        <ele>2.5</ele>
        <time>2020-06-23T09:12:09Z</time>
      </trkpt>
      <trkpt lat="50.99059" lon="2.10003">
        <ele>2.5</ele>
        <time>2020-06-23T09:12:10Z</time>
      </trkpt>
      <trkpt lat="50.99056" lon="2.10013">
        <ele>2.5</ele>
        <time>2020-06-23T09:12:11Z</time>
      </trkpt>
      <trkpt lat="50.99054" lon="2.10022">
        <ele>2.5</ele>
        <time>2020-06-23T09:12:12Z</time>
      </trkpt>
      <trkpt lat="50.99052" lon="2.10033">
        <ele>2.5</ele>
        <time>2020-06-23T09:12:13Z</time>
      </trkpt>
      <trkpt lat="50.99049" lon="2.10043">
        <ele>2.5</ele>
        <time>2020-06-23T09:12:14Z</time>
      </trkpt>
      <trkpt lat="50.99047" lon="2.10053">
        <ele>2.5</ele>
        <time>2020-06-23T09:12:15Z</time>
      </trkpt>
      <trkpt lat="50.99043" lon="2.10063">
        <ele>2.5</ele>
        <time>2020-06-23T09:12:16Z</time>
      </trkpt>
      <trkpt lat="50.99041" lon="2.10073">
        <ele>2.5</ele>
        <time>2020-06-23T09:12:17Z</time>
      </trkpt>
      <trkpt lat="50.99038" lon="2.10083">
        <ele>2.6</ele>
        <time>2020-06-23T09:12:18Z</time>
      </trkpt>
      <trkpt lat="50.99035" lon="2.10094">
        <ele>2.6</ele>
        <time>2020-06-23T09:12:19Z</time>
      </trkpt>
      <trkpt lat="50.99031" lon="2.10103">
        <ele>2.6</ele>
        <time>2020-06-23T09:12:20Z</time>
      </trkpt>
      <trkpt lat="50.99028" lon="2.10112">
        <ele>2.6</ele>
        <time>2020-06-23T09:12:21Z</time>
      </trkpt>
      <trkpt lat="50.99025" lon="2.10122">
        <ele>2.6</ele>
        <time>2020-06-23T09:12:22Z</time>
      </trkpt>
      <trkpt lat="50.99021" lon="2.10132">
        <ele>2.6</ele>
        <time>2020-06-23T09:12:23Z</time>
      </trkpt>
      <trkpt lat="50.99017" lon="2.10141">
        <ele>2.6</ele>
        <time>2020-06-23T09:12:24Z</time>
      </trkpt>
      <trkpt lat="50.99013" lon="2.1015">
        <ele>2.6</ele>
        <time>2020-06-23T09:12:25Z</time>
      </trkpt>
      <trkpt lat="50.99009" lon="2.10159">
        <ele>2.6</ele>
        <time>2020-06-23T09:12:26Z</time>
      </trkpt>
      <trkpt lat="50.99005" lon="2.10168">
        <ele>2.6</ele>
        <time>2020-06-23T09:12:27Z</time>
      </trkpt>
      <trkpt lat="50.99002" lon="2.10177">
        <ele>2.6</ele>
        <time>2020-06-23T09:12:28Z</time>
      </trkpt>
      <trkpt lat="50.98999" lon="2.10186">
        <ele>2.6</ele>
        <time>2020-06-23T09:12:29Z</time>
      </trkpt>
      <trkpt lat="50.98995" lon="2.10195">
        <ele>2.6</ele>
        <time>2020-06-23T09:12:30Z</time>
      </trkpt>
      <trkpt lat="50.98993" lon="2.10205">
        <ele>2.6</ele>
        <time>2020-06-23T09:12:31Z</time>
      </trkpt>
      <trkpt lat="50.9899" lon="2.10215">
        <ele>2.6</ele>
        <time>2020-06-23T09:12:32Z</time>
      </trkpt>
      <trkpt lat="50.98988" lon="2.10224">
        <ele>2.6</ele>
        <time>2020-06-23T09:12:33Z</time>
      </trkpt>
      <trkpt lat="50.98986" lon="2.10234">
        <ele>2.6</ele>
        <time>2020-06-23T09:12:34Z</time>
      </trkpt>
      <trkpt lat="50.98984" lon="2.10244">
        <ele>2.5</ele>
        <time>2020-06-23T09:12:35Z</time>
      </trkpt>
      <trkpt lat="50.98981" lon="2.10254">
        <ele>2.5</ele>
        <time>2020-06-23T09:12:36Z</time>
      </trkpt>
      <trkpt lat="50.9898" lon="2.10264">
        <ele>2.5</ele>
        <time>2020-06-23T09:12:37Z</time>
      </trkpt>
      <trkpt lat="50.98979" lon="2.10275">
        <ele>2.5</ele>
        <time>2020-06-23T09:12:38Z</time>
      </trkpt>
      <trkpt lat="50.98978" lon="2.10285">
        <ele>2.5</ele>
        <time>2020-06-23T09:12:39Z</time>
      </trkpt>
      <trkpt lat="50.98976" lon="2.10296">
        <ele>2.5</ele>
        <time>2020-06-23T09:12:40Z</time>
      </trkpt>
      <trkpt lat="50.98974" lon="2.10306">
        <ele>2.5</ele>
        <time>2020-06-23T09:12:41Z</time>
      </trkpt>
      <trkpt lat="50.98972" lon="2.10316">
        <ele>2.4</ele>
        <time>2020-06-23T09:12:42Z</time>
      </trkpt>
      <trkpt lat="50.9897" lon="2.10327">
        <ele>2.5</ele>
        <time>2020-06-23T09:12:43Z</time>
      </trkpt>
      <trkpt lat="50.98969" lon="2.10337">
        <ele>2.5</ele>
        <time>2020-06-23T09:12:44Z</time>
      </trkpt>
      <trkpt lat="50.98967" lon="2.10348">
        <ele>2.5</ele>
        <time>2020-06-23T09:12:45Z</time>
      </trkpt>
      <trkpt lat="50.98966" lon="2.10358">
        <ele>2.5</ele>
        <time>2020-06-23T09:12:46Z</time>
      </trkpt>
      <trkpt lat="50.98964" lon="2.10369">
        <ele>2.5</ele>
        <time>2020-06-23T09:12:47Z</time>
      </trkpt>
      <trkpt lat="50.98963" lon="2.10379">
        <ele>2.5</ele>
        <time>2020-06-23T09:12:48Z</time>
      </trkpt>
      <trkpt lat="50.98962" lon="2.10389">
        <ele>2.5</ele>
        <time>2020-06-23T09:12:49Z</time>
      </trkpt>
      <trkpt lat="50.98961" lon="2.104">
        <ele>2.5</ele>
        <time>2020-06-23T09:12:50Z</time>
      </trkpt>
      <trkpt lat="50.9896" lon="2.1041">
        <ele>2.5</ele>
        <time>2020-06-23T09:12:51Z</time>
      </trkpt>
      <trkpt lat="50.98959" lon="2.1042">
        <ele>2.5</ele>
        <time>2020-06-23T09:12:52Z</time>
      </trkpt>
      <trkpt lat="50.98957" lon="2.10431">
        <ele>2.5</ele>
        <time>2020-06-23T09:12:53Z</time>
      </trkpt>
      <trkpt lat="50.98956" lon="2.10441">
        <ele>2.5</ele>
        <time>2020-06-23T09:12:54Z</time>
      </trkpt>
      <trkpt lat="50.98955" lon="2.10452">
        <ele>2.4</ele>
        <time>2020-06-23T09:12:55Z</time>
      </trkpt>
      <trkpt lat="50.98953" lon="2.10462">
        <ele>2.4</ele>
        <time>2020-06-23T09:12:56Z</time>
      </trkpt>
      <trkpt lat="50.98951" lon="2.10472">
        <ele>2.4</ele>
        <time>2020-06-23T09:12:57Z</time>
      </trkpt>
      <trkpt lat="50.98949" lon="2.10483">
        <ele>2.4</ele>
        <time>2020-06-23T09:12:58Z</time>
      </trkpt>
      <trkpt lat="50.98948" lon="2.10493">
        <ele>2.4</ele>
        <time>2020-06-23T09:12:59Z</time>
      </trkpt>
      <trkpt lat="50.98946" lon="2.10504">
        <ele>2.4</ele>
        <time>2020-06-23T09:13:00Z</time>
      </trkpt>
      <trkpt lat="50.98945" lon="2.10514">
        <ele>2.4</ele>
        <time>2020-06-23T09:13:01Z</time>
      </trkpt>
      <trkpt lat="50.98943" lon="2.10525">
        <ele>2.4</ele>
        <time>2020-06-23T09:13:02Z</time>
      </trkpt>
      <trkpt lat="50.98941" lon="2.10535">
        <ele>2.4</ele>
        <time>2020-06-23T09:13:03Z</time>
      </trkpt>
      <trkpt lat="50.98939" lon="2.10545">
        <ele>2.4</ele>
        <time>2020-06-23T09:13:04Z</time>
      </trkpt>
      <trkpt lat="50.98938" lon="2.10555">
        <ele>2.4</ele>
        <time>2020-06-23T09:13:05Z</time>
      </trkpt>
      <trkpt lat="50.98936" lon="2.10565">
        <ele>2.4</ele>
        <time>2020-06-23T09:13:06Z</time>
      </trkpt>
      <trkpt lat="50.98934" lon="2.10574">
        <ele>2.4</ele>
        <time>2020-06-23T09:13:07Z</time>
      </trkpt>
      <trkpt lat="50.98931" lon="2.10583">
        <ele>2.5</ele>
        <time>2020-06-23T09:13:08Z</time>
      </trkpt>
      <trkpt lat="50.98929" lon="2.10593">
        <ele>2.5</ele>
        <time>2020-06-23T09:13:09Z</time>
      </trkpt>
      <trkpt lat="50.98928" lon="2.10603">
        <ele>2.5</ele>
        <time>2020-06-23T09:13:10Z</time>
      </trkpt>
      <trkpt lat="50.98925" lon="2.10614">
        <ele>2.6</ele>
        <time>2020-06-23T09:13:11Z</time>
      </trkpt>
      <trkpt lat="50.98924" lon="2.10624">
        <ele>2.6</ele>
        <time>2020-06-23T09:13:12Z</time>
      </trkpt>
      <trkpt lat="50.98923" lon="2.10634">
        <ele>2.6</ele>
        <time>2020-06-23T09:13:13Z</time>
      </trkpt>
      <trkpt lat="50.98921" lon="2.10644">
        <ele>2.6</ele>
        <time>2020-06-23T09:13:14Z</time>
      </trkpt>
      <trkpt lat="50.98919" lon="2.10654">
        <ele>2.6</ele>
        <time>2020-06-23T09:13:15Z</time>
      </trkpt>
      <trkpt lat="50.98917" lon="2.10665">
        <ele>2.5</ele>
        <time>2020-06-23T09:13:16Z</time>
      </trkpt>
      <trkpt lat="50.98915" lon="2.10675">
        <ele>2.5</ele>
        <time>2020-06-23T09:13:17Z</time>
      </trkpt>
      <trkpt lat="50.98913" lon="2.10685">
        <ele>2.5</ele>
        <time>2020-06-23T09:13:18Z</time>
      </trkpt>
      <trkpt lat="50.98911" lon="2.10694">
        <ele>2.5</ele>
        <time>2020-06-23T09:13:19Z</time>
      </trkpt>
      <trkpt lat="50.9891" lon="2.10704">
        <ele>2.5</ele>
        <time>2020-06-23T09:13:20Z</time>
      </trkpt>
      <trkpt lat="50.98907" lon="2.10713">
        <ele>2.4</ele>
        <time>2020-06-23T09:13:21Z</time>
      </trkpt>
      <trkpt lat="50.98905" lon="2.10723">
        <ele>2.4</ele>
        <time>2020-06-23T09:13:22Z</time>
      </trkpt>
      <trkpt lat="50.98902" lon="2.10733">
        <ele>2.4</ele>
        <time>2020-06-23T09:13:23Z</time>
      </trkpt>
      <trkpt lat="50.989" lon="2.10743">
        <ele>2.5</ele>
        <time>2020-06-23T09:13:24Z</time>
      </trkpt>
      <trkpt lat="50.98898" lon="2.10754">
        <ele>2.5</ele>
        <time>2020-06-23T09:13:25Z</time>
      </trkpt>
      <trkpt lat="50.98896" lon="2.10764">
        <ele>2.4</ele>
        <time>2020-06-23T09:13:26Z</time>
      </trkpt>
      <trkpt lat="50.98895" lon="2.10775">
        <ele>2.4</ele>
        <time>2020-06-23T09:13:27Z</time>
      </trkpt>
      <trkpt lat="50.98893" lon="2.10786">
        <ele>2.3</ele>
        <time>2020-06-23T09:13:28Z</time>
      </trkpt>
      <trkpt lat="50.98892" lon="2.10797">
        <ele>2.3</ele>
        <time>2020-06-23T09:13:29Z</time>
      </trkpt>
      <trkpt lat="50.98891" lon="2.10807">
        <ele>2.3</ele>
        <time>2020-06-23T09:13:30Z</time>
      </trkpt>
      <trkpt lat="50.98889" lon="2.10818">
        <ele>2.2</ele>
        <time>2020-06-23T09:13:31Z</time>
      </trkpt>
      <trkpt lat="50.98886" lon="2.10828">
        <ele>2.2</ele>
        <time>2020-06-23T09:13:32Z</time>
      </trkpt>
      <trkpt lat="50.98885" lon="2.10838">
        <ele>2.2</ele>
        <time>2020-06-23T09:13:33Z</time>
      </trkpt>
      <trkpt lat="50.98883" lon="2.10848">
        <ele>2.2</ele>
        <time>2020-06-23T09:13:34Z</time>
      </trkpt>
      <trkpt lat="50.98881" lon="2.10857">
        <ele>2.2</ele>
        <time>2020-06-23T09:13:35Z</time>
      </trkpt>
      <trkpt lat="50.98879" lon="2.10867">
        <ele>2.2</ele>
        <time>2020-06-23T09:13:36Z</time>
      </trkpt>
      <trkpt lat="50.98877" lon="2.10877">
        <ele>2.2</ele>
        <time>2020-06-23T09:13:37Z</time>
      </trkpt>
      <trkpt lat="50.98874" lon="2.10887">
        <ele>2.3</ele>
        <time>2020-06-23T09:13:38Z</time>
      </trkpt>
      <trkpt lat="50.98872" lon="2.10896">
        <ele>2.3</ele>
        <time>2020-06-23T09:13:39Z</time>
      </trkpt>
      <trkpt lat="50.9887" lon="2.10906">
        <ele>2.3</ele>
        <time>2020-06-23T09:13:40Z</time>
      </trkpt>
      <trkpt lat="50.98868" lon="2.10916">
        <ele>2.3</ele>
        <time>2020-06-23T09:13:41Z</time>
      </trkpt>
      <trkpt lat="50.98866" lon="2.10926">
        <ele>2.4</ele>
        <time>2020-06-23T09:13:42Z</time>
      </trkpt>
      <trkpt lat="50.98864" lon="2.10936">
        <ele>2.4</ele>
        <time>2020-06-23T09:13:43Z</time>
      </trkpt>
      <trkpt lat="50.98862" lon="2.10945">
        <ele>2.5</ele>
        <time>2020-06-23T09:13:44Z</time>
      </trkpt>
      <trkpt lat="50.9886" lon="2.10954">
        <ele>2.6</ele>
        <time>2020-06-23T09:13:45Z</time>
      </trkpt>
      <trkpt lat="50.98858" lon="2.10964">
        <ele>2.6</ele>
        <time>2020-06-23T09:13:46Z</time>
      </trkpt>
      <trkpt lat="50.98856" lon="2.10973">
        <ele>2.7</ele>
        <time>2020-06-23T09:13:47Z</time>
      </trkpt>
      <trkpt lat="50.98855" lon="2.10982">
        <ele>2.7</ele>
        <time>2020-06-23T09:13:48Z</time>
      </trkpt>
      <trkpt lat="50.98854" lon="2.10991">
        <ele>2.8</ele>
        <time>2020-06-23T09:13:49Z</time>
      </trkpt>
      <trkpt lat="50.98852" lon="2.10999">
        <ele>2.8</ele>
        <time>2020-06-23T09:13:50Z</time>
      </trkpt>
      <trkpt lat="50.9885" lon="2.11007">
        <ele>2.8</ele>
        <time>2020-06-23T09:13:51Z</time>
      </trkpt>
      <trkpt lat="50.98849" lon="2.11014">
        <ele>2.9</ele>
        <time>2020-06-23T09:13:52Z</time>
      </trkpt>
      <trkpt lat="50.98848" lon="2.11022">
        <ele>2.9</ele>
        <time>2020-06-23T09:13:53Z</time>
      </trkpt>
      <trkpt lat="50.98846" lon="2.11029">
        <ele>3</ele>
        <time>2020-06-23T09:13:54Z</time>
      </trkpt>
      <trkpt lat="50.98845" lon="2.11036">
        <ele>3.1</ele>
        <time>2020-06-23T09:13:55Z</time>
      </trkpt>
      <trkpt lat="50.98843" lon="2.11042">
        <ele>3.1</ele>
        <time>2020-06-23T09:13:56Z</time>
      </trkpt>
      <trkpt lat="50.98842" lon="2.11048">
        <ele>3.2</ele>
        <time>2020-06-23T09:13:57Z</time>
      </trkpt>
      <trkpt lat="50.9884" lon="2.11052">
        <ele>3.3</ele>
        <time>2020-06-23T09:13:58Z</time>
      </trkpt>
      <trkpt lat="50.98839" lon="2.11057">
        <ele>3.5</ele>
        <time>2020-06-23T09:13:59Z</time>
      </trkpt>
      <trkpt lat="50.98839" lon="2.11059">
        <ele>3.5</ele>
        <time>2020-06-23T09:14:00Z</time>
      </trkpt>
      <trkpt lat="50.98838" lon="2.11061">
        <ele>3.5</ele>
        <time>2020-06-23T09:14:01Z</time>
      </trkpt>
      <trkpt lat="50.98839" lon="2.11063">
        <ele>3.5</ele>
        <time>2020-06-23T09:14:02Z</time>
      </trkpt>
      <trkpt lat="50.98839" lon="2.11064">
        <ele>3.5</ele>
        <time>2020-06-23T09:14:03Z</time>
      </trkpt>
      <trkpt lat="50.98836" lon="2.11067">
        <ele>3.5</ele>
        <time>2020-06-23T09:14:04Z</time>
      </trkpt>
      <trkpt lat="50.98836" lon="2.11068">
        <ele>3.5</ele>
        <time>2020-06-23T09:14:05Z</time>
      </trkpt>
      <trkpt lat="50.98835" lon="2.11073">
        <ele>3.5</ele>
        <time>2020-06-23T09:14:06Z</time>
      </trkpt>
      <trkpt lat="50.98835" lon="2.11075">
        <ele>3.4</ele>
        <time>2020-06-23T09:14:07Z</time>
      </trkpt>
      <trkpt lat="50.98834" lon="2.1108">
        <ele>3.4</ele>
        <time>2020-06-23T09:14:08Z</time>
      </trkpt>
      <trkpt lat="50.98834" lon="2.11087">
        <ele>3.3</ele>
        <time>2020-06-23T09:14:09Z</time>
      </trkpt>
      <trkpt lat="50.98835" lon="2.11094">
        <ele>3.2</ele>
        <time>2020-06-23T09:14:10Z</time>
      </trkpt>
      <trkpt lat="50.98836" lon="2.11102">
        <ele>3.1</ele>
        <time>2020-06-23T09:14:11Z</time>
      </trkpt>
      <trkpt lat="50.98837" lon="2.1111">
        <ele>2.9</ele>
        <time>2020-06-23T09:14:12Z</time>
      </trkpt>
      <trkpt lat="50.98839" lon="2.11117">
        <ele>2.8</ele>
        <time>2020-06-23T09:14:13Z</time>
      </trkpt>
      <trkpt lat="50.9884" lon="2.11124">
        <ele>2.7</ele>
        <time>2020-06-23T09:14:14Z</time>
      </trkpt>
      <trkpt lat="50.98841" lon="2.11131">
        <ele>2.6</ele>
        <time>2020-06-23T09:14:15Z</time>
      </trkpt>
      <trkpt lat="50.98845" lon="2.11137">
        <ele>2.5</ele>
        <time>2020-06-23T09:14:16Z</time>
      </trkpt>
      <trkpt lat="50.98848" lon="2.11143">
        <ele>2.4</ele>
        <time>2020-06-23T09:14:17Z</time>
      </trkpt>
      <trkpt lat="50.98851" lon="2.11149">
        <ele>2.4</ele>
        <time>2020-06-23T09:14:18Z</time>
      </trkpt>
      <trkpt lat="50.98853" lon="2.11156">
        <ele>2.3</ele>
        <time>2020-06-23T09:14:19Z</time>
      </trkpt>
      <trkpt lat="50.98855" lon="2.11162">
        <ele>2.3</ele>
        <time>2020-06-23T09:14:20Z</time>
      </trkpt>
      <trkpt lat="50.98858" lon="2.11169">
        <ele>2.3</ele>
        <time>2020-06-23T09:14:21Z</time>
      </trkpt>
      <trkpt lat="50.9886" lon="2.11175">
        <ele>2.3</ele>
        <time>2020-06-23T09:14:22Z</time>
      </trkpt>
      <trkpt lat="50.98863" lon="2.11181">
        <ele>2.3</ele>
        <time>2020-06-23T09:14:23Z</time>
      </trkpt>
      <trkpt lat="50.98866" lon="2.11187">
        <ele>2.3</ele>
        <time>2020-06-23T09:14:24Z</time>
      </trkpt>
      <trkpt lat="50.98868" lon="2.11193">
        <ele>2.2</ele>
        <time>2020-06-23T09:14:25Z</time>
      </trkpt>
      <trkpt lat="50.98871" lon="2.11198">
        <ele>2.2</ele>
        <time>2020-06-23T09:14:26Z</time>
      </trkpt>
      <trkpt lat="50.98874" lon="2.11202">
        <ele>2.2</ele>
        <time>2020-06-23T09:14:27Z</time>
      </trkpt>
      <trkpt lat="50.98877" lon="2.11207">
        <ele>2.2</ele>
        <time>2020-06-23T09:14:28Z</time>
      </trkpt>
      <trkpt lat="50.9888" lon="2.11211">
        <ele>2.2</ele>
        <time>2020-06-23T09:14:29Z</time>
      </trkpt>
      <trkpt lat="50.98882" lon="2.11216">
        <ele>2.2</ele>
        <time>2020-06-23T09:14:30Z</time>
      </trkpt>
      <trkpt lat="50.98884" lon="2.11221">
        <ele>2.2</ele>
        <time>2020-06-23T09:14:31Z</time>
      </trkpt>
      <trkpt lat="50.98886" lon="2.11226">
        <ele>2.3</ele>
        <time>2020-06-23T09:14:32Z</time>
      </trkpt>
      <trkpt lat="50.98889" lon="2.1123">
        <ele>2.3</ele>
        <time>2020-06-23T09:14:33Z</time>
      </trkpt>
      <trkpt lat="50.98891" lon="2.11235">
        <ele>2.4</ele>
        <time>2020-06-23T09:14:34Z</time>
      </trkpt>
      <trkpt lat="50.98893" lon="2.1124">
        <ele>2.4</ele>
        <time>2020-06-23T09:14:35Z</time>
      </trkpt>
      <trkpt lat="50.98895" lon="2.11244">
        <ele>2.5</ele>
        <time>2020-06-23T09:14:36Z</time>
      </trkpt>
      <trkpt lat="50.98897" lon="2.11248">
        <ele>2.5</ele>
        <time>2020-06-23T09:14:37Z</time>
      </trkpt>
      <trkpt lat="50.989" lon="2.11253">
        <ele>2.6</ele>
        <time>2020-06-23T09:14:38Z</time>
      </trkpt>
      <trkpt lat="50.98902" lon="2.11259">
        <ele>2.6</ele>
        <time>2020-06-23T09:14:39Z</time>
      </trkpt>
      <trkpt lat="50.98904" lon="2.11264">
        <ele>2.7</ele>
        <time>2020-06-23T09:14:40Z</time>
      </trkpt>
      <trkpt lat="50.98906" lon="2.11269">
        <ele>2.7</ele>
        <time>2020-06-23T09:14:41Z</time>
      </trkpt>
      <trkpt lat="50.98909" lon="2.11273">
        <ele>2.8</ele>
        <time>2020-06-23T09:14:42Z</time>
      </trkpt>
      <trkpt lat="50.98912" lon="2.11278">
        <ele>2.8</ele>
        <time>2020-06-23T09:14:43Z</time>
      </trkpt>
      <trkpt lat="50.98915" lon="2.1128">
        <ele>2.9</ele>
        <time>2020-06-23T09:14:44Z</time>
      </trkpt>
      <trkpt lat="50.98918" lon="2.11281">
        <ele>2.9</ele>
        <time>2020-06-23T09:14:45Z</time>
      </trkpt>
      <trkpt lat="50.98921" lon="2.11282">
        <ele>2.9</ele>
        <time>2020-06-23T09:14:46Z</time>
      </trkpt>
      <trkpt lat="50.98925" lon="2.1128">
        <ele>2.9</ele>
        <time>2020-06-23T09:14:47Z</time>
      </trkpt>
      <trkpt lat="50.98928" lon="2.1128">
        <ele>2.9</ele>
        <time>2020-06-23T09:14:48Z</time>
      </trkpt>
      <trkpt lat="50.98932" lon="2.11278">
        <ele>2.9</ele>
        <time>2020-06-23T09:14:49Z</time>
      </trkpt>
      <trkpt lat="50.98935" lon="2.11277">
        <ele>2.9</ele>
        <time>2020-06-23T09:14:50Z</time>
      </trkpt>
      <trkpt lat="50.98938" lon="2.11274">
        <ele>2.8</ele>
        <time>2020-06-23T09:14:51Z</time>
      </trkpt>
      <trkpt lat="50.98939" lon="2.11274">
        <ele>2.8</ele>
        <time>2020-06-23T09:14:52Z</time>
      </trkpt>
      <trkpt lat="50.9894" lon="2.11273">
        <ele>2.8</ele>
        <time>2020-06-23T09:14:53Z</time>
      </trkpt>
      <trkpt lat="50.9894" lon="2.11271">
        <ele>2.8</ele>
        <time>2020-06-23T09:14:54Z</time>
      </trkpt>
      <trkpt lat="50.98941" lon="2.11269">
        <ele>2.8</ele>
        <time>2020-06-23T09:14:55Z</time>
      </trkpt>
      <trkpt lat="50.98941" lon="2.11262">
        <ele>2.9</ele>
        <time>2020-06-23T09:14:56Z</time>
      </trkpt>
      <trkpt lat="50.98941" lon="2.1126">
        <ele>2.9</ele>
        <time>2020-06-23T09:14:57Z</time>
      </trkpt>
      <trkpt lat="50.9894" lon="2.11254">
        <ele>2.9</ele>
        <time>2020-06-23T09:14:58Z</time>
      </trkpt>
      <trkpt lat="50.98939" lon="2.11248">
        <ele>2.9</ele>
        <time>2020-06-23T09:14:59Z</time>
      </trkpt>
      <trkpt lat="50.98938" lon="2.11243">
        <ele>2.9</ele>
        <time>2020-06-23T09:15:00Z</time>
      </trkpt>
      <trkpt lat="50.98937" lon="2.11238">
        <ele>2.9</ele>
        <time>2020-06-23T09:15:01Z</time>
      </trkpt>
      <trkpt lat="50.98934" lon="2.11233">
        <ele>2.9</ele>
        <time>2020-06-23T09:15:02Z</time>
      </trkpt>
      <trkpt lat="50.98934" lon="2.11232">
        <ele>2.9</ele>
        <time>2020-06-23T09:15:03Z</time>
      </trkpt>
      <trkpt lat="50.98932" lon="2.11227">
        <ele>2.9</ele>
        <time>2020-06-23T09:15:04Z</time>
      </trkpt>
      <trkpt lat="50.98931" lon="2.11225">
        <ele>2.9</ele>
        <time>2020-06-23T09:15:05Z</time>
      </trkpt>
      <trkpt lat="50.98929" lon="2.11222">
        <ele>2.9</ele>
        <time>2020-06-23T09:15:06Z</time>
      </trkpt>
      <trkpt lat="50.98928" lon="2.11222">
        <ele>2.9</ele>
        <time>2020-06-23T09:15:07Z</time>
      </trkpt>
      <trkpt lat="50.98927" lon="2.1122">
        <ele>2.9</ele>
        <time>2020-06-23T09:15:08Z</time>
      </trkpt>
      <trkpt lat="50.98926" lon="2.11217">
        <ele>2.9</ele>
        <time>2020-06-23T09:15:09Z</time>
      </trkpt>
      <trkpt lat="50.98925" lon="2.11213">
        <ele>2.9</ele>
        <time>2020-06-23T09:15:10Z</time>
      </trkpt>
      <trkpt lat="50.98925" lon="2.11211">
        <ele>2.9</ele>
        <time>2020-06-23T09:15:11Z</time>
      </trkpt>
      <trkpt lat="50.98923" lon="2.11206">
        <ele>2.9</ele>
        <time>2020-06-23T09:15:12Z</time>
      </trkpt>
      <trkpt lat="50.98922" lon="2.11204">
        <ele>2.9</ele>
        <time>2020-06-23T09:15:13Z</time>
      </trkpt>
      <trkpt lat="50.98921" lon="2.11198">
        <ele>2.8</ele>
        <time>2020-06-23T09:15:14Z</time>
      </trkpt>
      <trkpt lat="50.9892" lon="2.11196">
        <ele>2.8</ele>
        <time>2020-06-23T09:15:15Z</time>
      </trkpt>
      <trkpt lat="50.9892" lon="2.11192">
        <ele>2.8</ele>
        <time>2020-06-23T09:15:16Z</time>
      </trkpt>
      <trkpt lat="50.98919" lon="2.11187">
        <ele>2.8</ele>
        <time>2020-06-23T09:15:17Z</time>
      </trkpt>
      <trkpt lat="50.98919" lon="2.11185">
        <ele>2.8</ele>
        <time>2020-06-23T09:15:18Z</time>
      </trkpt>
      <trkpt lat="50.98918" lon="2.1118">
        <ele>2.7</ele>
        <time>2020-06-23T09:15:19Z</time>
      </trkpt>
      <trkpt lat="50.98918" lon="2.11178">
        <ele>2.7</ele>
        <time>2020-06-23T09:15:20Z</time>
      </trkpt>
      <trkpt lat="50.98917" lon="2.11172">
        <ele>2.7</ele>
        <time>2020-06-23T09:15:21Z</time>
      </trkpt>
      <trkpt lat="50.98917" lon="2.1117">
        <ele>2.6</ele>
        <time>2020-06-23T09:15:22Z</time>
      </trkpt>
      <trkpt lat="50.98917" lon="2.11165">
        <ele>2.6</ele>
        <time>2020-06-23T09:15:23Z</time>
      </trkpt>
      <trkpt lat="50.98916" lon="2.11163">
        <ele>2.5</ele>
        <time>2020-06-23T09:15:24Z</time>
      </trkpt>
      <trkpt lat="50.98914" lon="2.11158">
        <ele>2.5</ele>
        <time>2020-06-23T09:15:25Z</time>
      </trkpt>
      <trkpt lat="50.98914" lon="2.11156">
        <ele>2.5</ele>
        <time>2020-06-23T09:15:26Z</time>
      </trkpt>
      <trkpt lat="50.98913" lon="2.11152">
        <ele>2.4</ele>
        <time>2020-06-23T09:15:27Z</time>
      </trkpt>
      <trkpt lat="50.98913" lon="2.1115">
        <ele>2.4</ele>
        <time>2020-06-23T09:15:28Z</time>
      </trkpt>
      <trkpt lat="50.98913" lon="2.11145">
        <ele>2.4</ele>
        <time>2020-06-23T09:15:29Z</time>
      </trkpt>
      <trkpt lat="50.98913" lon="2.11143">
        <ele>2.4</ele>
        <time>2020-06-23T09:15:30Z</time>
      </trkpt>
      <trkpt lat="50.98913" lon="2.11138">
        <ele>2.2</ele>
        <time>2020-06-23T09:15:31Z</time>
      </trkpt>
      <trkpt lat="50.98912" lon="2.11133">
        <ele>2.1</ele>
        <time>2020-06-23T09:15:32Z</time>
      </trkpt>
      <trkpt lat="50.98912" lon="2.11131">
        <ele>2.1</ele>
        <time>2020-06-23T09:15:33Z</time>
      </trkpt>
      <trkpt lat="50.98911" lon="2.11128">
        <ele>2.1</ele>
        <time>2020-06-23T09:15:34Z</time>
      </trkpt>
      <trkpt lat="50.98911" lon="2.11126">
        <ele>2.1</ele>
        <time>2020-06-23T09:15:35Z</time>
      </trkpt>
      <trkpt lat="50.98911" lon="2.11125">
        <ele>2.1</ele>
        <time>2020-06-23T09:15:36Z</time>
      </trkpt>
      <trkpt lat="50.98911" lon="2.11122">
        <ele>2</ele>
        <time>2020-06-23T09:15:37Z</time>
      </trkpt>
      <trkpt lat="50.9891" lon="2.1112">
        <ele>1.9</ele>
        <time>2020-06-23T09:15:38Z</time>
      </trkpt>
      <trkpt lat="50.9891" lon="2.11117">
        <ele>1.9</ele>
        <time>2020-06-23T09:15:39Z</time>
      </trkpt>
      <trkpt lat="50.98911" lon="2.11116">
        <ele>1.9</ele>
        <time>2020-06-23T09:15:40Z</time>
      </trkpt>
      <trkpt lat="50.98911" lon="2.11114">
        <ele>1.9</ele>
        <time>2020-06-23T09:15:41Z</time>
      </trkpt>
      <trkpt lat="50.98913" lon="2.11112">
        <ele>1.8</ele>
        <time>2020-06-23T09:15:42Z</time>
      </trkpt>
      <trkpt lat="50.98914" lon="2.11111">
        <ele>1.8</ele>
        <time>2020-06-23T09:15:43Z</time>
      </trkpt>
      <trkpt lat="50.98916" lon="2.1111">
        <ele>1.8</ele>
        <time>2020-06-23T09:15:44Z</time>
      </trkpt>
      <trkpt lat="50.98916" lon="2.1111">
        <ele>1.8</ele>
        <time>2020-06-23T09:15:45Z</time>
      </trkpt>
      <trkpt lat="50.98917" lon="2.11109">
        <ele>1.8</ele>
        <time>2020-06-23T09:15:46Z</time>
      </trkpt>
      <trkpt lat="50.98917" lon="2.11109">
        <ele>1.8</ele>
        <time>2020-06-23T09:15:47Z</time>
      </trkpt>
      <trkpt lat="50.98917" lon="2.11108">
        <ele>1.8</ele>
        <time>2020-06-23T09:15:48Z</time>
      </trkpt>
      <trkpt lat="50.98917" lon="2.11107">
        <ele>1.8</ele>
        <time>2020-06-23T09:15:49Z</time>
      </trkpt>
      <trkpt lat="50.98916" lon="2.11107">
        <ele>1.8</ele>
        <time>2020-06-23T09:15:50Z</time>
      </trkpt>
      <trkpt lat="50.98918" lon="2.11107">
        <ele>1.8</ele>
        <time>2020-06-23T09:15:51Z</time>
      </trkpt>
      <trkpt lat="50.98919" lon="2.11106">
        <ele>1.8</ele>
        <time>2020-06-23T09:15:52Z</time>
      </trkpt>
      <trkpt lat="50.98919" lon="2.11106">
        <ele>1.8</ele>
        <time>2020-06-23T09:15:53Z</time>
      </trkpt>
      <trkpt lat="50.98918" lon="2.11106">
        <ele>1.8</ele>
        <time>2020-06-23T09:15:54Z</time>
      </trkpt>
      <trkpt lat="50.98919" lon="2.11106">
        <ele>1.8</ele>
        <time>2020-06-23T09:15:55Z</time>
      </trkpt>
      <trkpt lat="50.98918" lon="2.11106">
        <ele>1.8</ele>
        <time>2020-06-23T09:15:56Z</time>
      </trkpt>
      <trkpt lat="50.98918" lon="2.11105">
        <ele>1.8</ele>
        <time>2020-06-23T09:15:57Z</time>
      </trkpt>
      <trkpt lat="50.98918" lon="2.11105">
        <ele>1.8</ele>
        <time>2020-06-23T09:15:58Z</time>
      </trkpt>
      <trkpt lat="50.98918" lon="2.11106">
        <ele>1.8</ele>
        <time>2020-06-23T09:15:59Z</time>
      </trkpt>
      <trkpt lat="50.98918" lon="2.11106">
        <ele>1.8</ele>
        <time>2020-06-23T09:16:00Z</time>
      </trkpt>
      <trkpt lat="50.98918" lon="2.11101">
        <ele>1.7</ele>
        <time>2020-06-23T09:16:09Z</time>
      </trkpt>
      <trkpt lat="50.98917" lon="2.11099">
        <ele>1.7</ele>
        <time>2020-06-23T09:16:10Z</time>
      </trkpt>
      <trkpt lat="50.98917" lon="2.11098">
        <ele>1.7</ele>
        <time>2020-06-23T09:16:11Z</time>
      </trkpt>
      <trkpt lat="50.98917" lon="2.11098">
        <ele>1.7</ele>
        <time>2020-06-23T09:16:12Z</time>
      </trkpt>
      <trkpt lat="50.98915" lon="2.11097">
        <ele>1.7</ele>
        <time>2020-06-23T09:16:13Z</time>
      </trkpt>
      <trkpt lat="50.98914" lon="2.11097">
        <ele>1.7</ele>
        <time>2020-06-23T09:16:14Z</time>
      </trkpt>
      <trkpt lat="50.98913" lon="2.11096">
        <ele>1.7</ele>
        <time>2020-06-23T09:16:15Z</time>
      </trkpt>
      <trkpt lat="50.98912" lon="2.11095">
        <ele>1.7</ele>
        <time>2020-06-23T09:16:16Z</time>
      </trkpt>
      <trkpt lat="50.98911" lon="2.11095">
        <ele>1.7</ele>
        <time>2020-06-23T09:16:17Z</time>
      </trkpt>
      <trkpt lat="50.9891" lon="2.11094">
        <ele>1.7</ele>
        <time>2020-06-23T09:16:18Z</time>
      </trkpt>
      <trkpt lat="50.98909" lon="2.11094">
        <ele>1.7</ele>
        <time>2020-06-23T09:16:19Z</time>
      </trkpt>
      <trkpt lat="50.98907" lon="2.11093">
        <ele>1.7</ele>
        <time>2020-06-23T09:16:20Z</time>
      </trkpt>
      <trkpt lat="50.98906" lon="2.11092">
        <ele>1.7</ele>
        <time>2020-06-23T09:16:21Z</time>
      </trkpt>
      <trkpt lat="50.98905" lon="2.11092">
        <ele>1.7</ele>
        <time>2020-06-23T09:29:10Z</time>
      </trkpt>
      <trkpt lat="50.98904" lon="2.11091">
        <ele>1.7</ele>
        <time>2020-06-23T09:29:11Z</time>
      </trkpt>
      <trkpt lat="50.98903" lon="2.11091">
        <ele>1.7</ele>
        <time>2020-06-23T09:29:12Z</time>
      </trkpt>
      <trkpt lat="50.98903" lon="2.11096">
        <ele>1.6</ele>
        <time>2020-06-23T09:29:13Z</time>
      </trkpt>
      <trkpt lat="50.98903" lon="2.11097">
        <ele>1.6</ele>
        <time>2020-06-23T09:29:14Z</time>
      </trkpt>
      <trkpt lat="50.98904" lon="2.11103">
        <ele>1.7</ele>
        <time>2020-06-23T09:29:15Z</time>
      </trkpt>
      <trkpt lat="50.98904" lon="2.11105">
        <ele>1.7</ele>
        <time>2020-06-23T09:29:16Z</time>
      </trkpt>
      <trkpt lat="50.98905" lon="2.11109">
        <ele>1.8</ele>
        <time>2020-06-23T09:29:17Z</time>
      </trkpt>
      <trkpt lat="50.98907" lon="2.11114">
        <ele>1.9</ele>
        <time>2020-06-23T09:29:18Z</time>
      </trkpt>
      <trkpt lat="50.98907" lon="2.1112">
        <ele>1.9</ele>
        <time>2020-06-23T09:29:19Z</time>
      </trkpt>
      <trkpt lat="50.98907" lon="2.11125">
        <ele>2</ele>
        <time>2020-06-23T09:29:20Z</time>
      </trkpt>
      <trkpt lat="50.98908" lon="2.1113">
        <ele>2.1</ele>
        <time>2020-06-23T09:29:21Z</time>
      </trkpt>
      <trkpt lat="50.98909" lon="2.11135">
        <ele>2.1</ele>
        <time>2020-06-23T09:29:22Z</time>
      </trkpt>
      <trkpt lat="50.98909" lon="2.11141">
        <ele>2.2</ele>
        <time>2020-06-23T09:29:23Z</time>
      </trkpt>
      <trkpt lat="50.9891" lon="2.11146">
        <ele>2.4</ele>
        <time>2020-06-23T09:29:24Z</time>
      </trkpt>
      <trkpt lat="50.98909" lon="2.11151">
        <ele>2.4</ele>
        <time>2020-06-23T09:29:25Z</time>
      </trkpt>
      <trkpt lat="50.9891" lon="2.11157">
        <ele>2.5</ele>
        <time>2020-06-23T09:29:26Z</time>
      </trkpt>
      <trkpt lat="50.98909" lon="2.11162">
        <ele>2.5</ele>
        <time>2020-06-23T09:29:27Z</time>
      </trkpt>
      <trkpt lat="50.98909" lon="2.11167">
        <ele>2.6</ele>
        <time>2020-06-23T09:29:28Z</time>
      </trkpt>
      <trkpt lat="50.98908" lon="2.11172">
        <ele>2.6</ele>
        <time>2020-06-23T09:29:29Z</time>
      </trkpt>
      <trkpt lat="50.98907" lon="2.11178">
        <ele>2.7</ele>
        <time>2020-06-23T09:29:30Z</time>
      </trkpt>
      <trkpt lat="50.98906" lon="2.11183">
        <ele>2.7</ele>
        <time>2020-06-23T09:29:31Z</time>
      </trkpt>
      <trkpt lat="50.98907" lon="2.11189">
        <ele>2.8</ele>
        <time>2020-06-23T09:29:32Z</time>
      </trkpt>
      <trkpt lat="50.98907" lon="2.11194">
        <ele>2.8</ele>
        <time>2020-06-23T09:29:33Z</time>
      </trkpt>
      <trkpt lat="50.98907" lon="2.11199">
        <ele>2.8</ele>
        <time>2020-06-23T09:29:34Z</time>
      </trkpt>
      <trkpt lat="50.98908" lon="2.11205">
        <ele>2.9</ele>
        <time>2020-06-23T09:29:35Z</time>
      </trkpt>
      <trkpt lat="50.98909" lon="2.1121">
        <ele>2.9</ele>
        <time>2020-06-23T09:29:36Z</time>
      </trkpt>
      <trkpt lat="50.98911" lon="2.11214">
        <ele>2.9</ele>
        <time>2020-06-23T09:29:37Z</time>
      </trkpt>
      <trkpt lat="50.98913" lon="2.11217">
        <ele>2.9</ele>
        <time>2020-06-23T09:29:38Z</time>
      </trkpt>
      <trkpt lat="50.98915" lon="2.1122">
        <ele>2.9</ele>
        <time>2020-06-23T09:29:39Z</time>
      </trkpt>
      <trkpt lat="50.98917" lon="2.11224">
        <ele>2.9</ele>
        <time>2020-06-23T09:29:40Z</time>
      </trkpt>
      <trkpt lat="50.98919" lon="2.11229">
        <ele>2.9</ele>
        <time>2020-06-23T09:29:41Z</time>
      </trkpt>
      <trkpt lat="50.98921" lon="2.11234">
        <ele>2.9</ele>
        <time>2020-06-23T09:29:42Z</time>
      </trkpt>
      <trkpt lat="50.98922" lon="2.11239">
        <ele>2.9</ele>
        <time>2020-06-23T09:29:43Z</time>
      </trkpt>
      <trkpt lat="50.98923" lon="2.11243">
        <ele>2.9</ele>
        <time>2020-06-23T09:29:44Z</time>
      </trkpt>
      <trkpt lat="50.98925" lon="2.11248">
        <ele>2.9</ele>
        <time>2020-06-23T09:29:45Z</time>
      </trkpt>
      <trkpt lat="50.98927" lon="2.11253">
        <ele>2.9</ele>
        <time>2020-06-23T09:29:46Z</time>
      </trkpt>
      <trkpt lat="50.98928" lon="2.11257">
        <ele>2.9</ele>
        <time>2020-06-23T09:29:47Z</time>
      </trkpt>
      <trkpt lat="50.9893" lon="2.1126">
        <ele>2.9</ele>
        <time>2020-06-23T09:29:48Z</time>
      </trkpt>
      <trkpt lat="50.98932" lon="2.11263">
        <ele>2.9</ele>
        <time>2020-06-23T09:29:49Z</time>
      </trkpt>
      <trkpt lat="50.98934" lon="2.11267">
        <ele>2.9</ele>
        <time>2020-06-23T09:29:50Z</time>
      </trkpt>
      <trkpt lat="50.98935" lon="2.11268">
        <ele>2.9</ele>
        <time>2020-06-23T09:29:51Z</time>
      </trkpt>
      <trkpt lat="50.98938" lon="2.11269">
        <ele>2.9</ele>
        <time>2020-06-23T09:29:52Z</time>
      </trkpt>
      <trkpt lat="50.98939" lon="2.1127">
        <ele>2.9</ele>
        <time>2020-06-23T09:29:53Z</time>
      </trkpt>
      <trkpt lat="50.98942" lon="2.11272">
        <ele>2.9</ele>
        <time>2020-06-23T09:29:54Z</time>
      </trkpt>
      <trkpt lat="50.98943" lon="2.11273">
        <ele>2.8</ele>
        <time>2020-06-23T09:29:55Z</time>
      </trkpt>
      <trkpt lat="50.98945" lon="2.11274">
        <ele>2.8</ele>
        <time>2020-06-23T09:29:56Z</time>
      </trkpt>
      <trkpt lat="50.98946" lon="2.11275">
        <ele>2.8</ele>
        <time>2020-06-23T09:29:57Z</time>
      </trkpt>
      <trkpt lat="50.98947" lon="2.11276">
        <ele>2.8</ele>
        <time>2020-06-23T09:29:58Z</time>
      </trkpt>
      <trkpt lat="50.98947" lon="2.11276">
        <ele>2.8</ele>
        <time>2020-06-23T09:29:59Z</time>
      </trkpt>
      <trkpt lat="50.98947" lon="2.11277">
        <ele>2.8</ele>
        <time>2020-06-23T09:30:00Z</time>
      </trkpt>
      <trkpt lat="50.98947" lon="2.11278">
        <ele>2.8</ele>
        <time>2020-06-23T09:30:01Z</time>
      </trkpt>
      <trkpt lat="50.98948" lon="2.11277">
        <ele>2.8</ele>
        <time>2020-06-23T09:30:02Z</time>
      </trkpt>
      <trkpt lat="50.98948" lon="2.11277">
        <ele>2.8</ele>
        <time>2020-06-23T09:30:03Z</time>
      </trkpt>
      <trkpt lat="50.98948" lon="2.11278">
        <ele>2.8</ele>
        <time>2020-06-23T09:30:04Z</time>
      </trkpt>
      <trkpt lat="50.98947" lon="2.11279">
        <ele>2.8</ele>
        <time>2020-06-23T09:30:05Z</time>
      </trkpt>
      <trkpt lat="50.98947" lon="2.1128">
        <ele>2.8</ele>
        <time>2020-06-23T09:30:06Z</time>
      </trkpt>
      <trkpt lat="50.98946" lon="2.1128">
        <ele>2.8</ele>
        <time>2020-06-23T09:30:07Z</time>
      </trkpt>
      <trkpt lat="50.98944" lon="2.1128">
        <ele>2.8</ele>
        <time>2020-06-23T09:30:08Z</time>
      </trkpt>
      <trkpt lat="50.98943" lon="2.11282">
        <ele>2.8</ele>
        <time>2020-06-23T09:30:09Z</time>
      </trkpt>
      <trkpt lat="50.98943" lon="2.11283">
        <ele>2.8</ele>
        <time>2020-06-23T09:30:10Z</time>
      </trkpt>
      <trkpt lat="50.98943" lon="2.11285">
        <ele>2.8</ele>
        <time>2020-06-23T09:30:11Z</time>
      </trkpt>
      <trkpt lat="50.98943" lon="2.11286">
        <ele>2.8</ele>
        <time>2020-06-23T09:30:12Z</time>
      </trkpt>
      <trkpt lat="50.98942" lon="2.11288">
        <ele>2.8</ele>
        <time>2020-06-23T09:30:13Z</time>
      </trkpt>
      <trkpt lat="50.98942" lon="2.11289">
        <ele>2.8</ele>
        <time>2020-06-23T09:30:14Z</time>
      </trkpt>
      <trkpt lat="50.98941" lon="2.1129">
        <ele>2.8</ele>
        <time>2020-06-23T09:30:15Z</time>
      </trkpt>
      <trkpt lat="50.98941" lon="2.1129">
        <ele>2.8</ele>
        <time>2020-06-23T09:30:16Z</time>
      </trkpt>
      <trkpt lat="50.98941" lon="2.1129">
        <ele>2.8</ele>
        <time>2020-06-23T09:30:17Z</time>
      </trkpt>
      <trkpt lat="50.98941" lon="2.11291">
        <ele>2.8</ele>
        <time>2020-06-23T09:30:18Z</time>
      </trkpt>
      <trkpt lat="50.98942" lon="2.11292">
        <ele>2.8</ele>
        <time>2020-06-23T09:30:19Z</time>
      </trkpt>
      <trkpt lat="50.98941" lon="2.11291">
        <ele>2.8</ele>
        <time>2020-06-23T09:30:20Z</time>
      </trkpt>
      <trkpt lat="50.98941" lon="2.1129">
        <ele>2.8</ele>
        <time>2020-06-23T09:30:21Z</time>
      </trkpt>
      <trkpt lat="50.98941" lon="2.11289">
        <ele>2.8</ele>
        <time>2020-06-23T09:30:22Z</time>
      </trkpt>
      <trkpt lat="50.9894" lon="2.11287">
        <ele>2.8</ele>
        <time>2020-06-23T09:30:23Z</time>
      </trkpt>
      <trkpt lat="50.9894" lon="2.11287">
        <ele>2.8</ele>
        <time>2020-06-23T09:30:24Z</time>
      </trkpt>
      <trkpt lat="50.9894" lon="2.11286">
        <ele>2.8</ele>
        <time>2020-06-23T09:30:25Z</time>
      </trkpt>
      <trkpt lat="50.98941" lon="2.11291">
        <ele>2.8</ele>
        <time>2020-06-23T09:30:26Z</time>
      </trkpt>
      <trkpt lat="50.98943" lon="2.11298">
        <ele>2.8</ele>
        <time>2020-06-23T09:58:23Z</time>
      </trkpt>
      <trkpt lat="50.98945" lon="2.11304">
        <ele>2.8</ele>
        <time>2020-06-23T09:58:24Z</time>
      </trkpt>
      <trkpt lat="50.98947" lon="2.11311">
        <ele>2.8</ele>
        <time>2020-06-23T09:58:25Z</time>
      </trkpt>
      <trkpt lat="50.9895" lon="2.11317">
        <ele>2.8</ele>
        <time>2020-06-23T09:58:26Z</time>
      </trkpt>
      <trkpt lat="50.9895" lon="2.11315">
        <ele>2.8</ele>
        <time>2020-06-23T09:58:27Z</time>
      </trkpt>
      <trkpt lat="50.98951" lon="2.11314">
        <ele>2.8</ele>
        <time>2020-06-23T09:58:28Z</time>
      </trkpt>
      <trkpt lat="50.98951" lon="2.11313">
        <ele>2.8</ele>
        <time>2020-06-23T09:58:29Z</time>
      </trkpt>
      <trkpt lat="50.98951" lon="2.11312">
        <ele>2.8</ele>
        <time>2020-06-23T09:58:30Z</time>
      </trkpt>
      <trkpt lat="50.98952" lon="2.11309">
        <ele>2.8</ele>
        <time>2020-06-23T09:58:31Z</time>
      </trkpt>
      <trkpt lat="50.98951" lon="2.11307">
        <ele>2.8</ele>
        <time>2020-06-23T09:58:32Z</time>
      </trkpt>
      <trkpt lat="50.98949" lon="2.11304">
        <ele>2.9</ele>
        <time>2020-06-23T09:58:33Z</time>
      </trkpt>
      <trkpt lat="50.98946" lon="2.11304">
        <ele>2.9</ele>
        <time>2020-06-23T09:58:34Z</time>
      </trkpt>
      <trkpt lat="50.98943" lon="2.11303">
        <ele>2.9</ele>
        <time>2020-06-23T09:58:35Z</time>
      </trkpt>
      <trkpt lat="50.9894" lon="2.11302">
        <ele>2.9</ele>
        <time>2020-06-23T09:58:36Z</time>
      </trkpt>
      <trkpt lat="50.98936" lon="2.11301">
        <ele>2.9</ele>
        <time>2020-06-23T09:58:37Z</time>
      </trkpt>
      <trkpt lat="50.98933" lon="2.11302">
        <ele>2.9</ele>
        <time>2020-06-23T09:58:38Z</time>
      </trkpt>
      <trkpt lat="50.9893" lon="2.11302">
        <ele>2.9</ele>
        <time>2020-06-23T09:58:39Z</time>
      </trkpt>
      <trkpt lat="50.98927" lon="2.113">
        <ele>2.9</ele>
        <time>2020-06-23T09:58:40Z</time>
      </trkpt>
      <trkpt lat="50.98924" lon="2.11299">
        <ele>2.9</ele>
        <time>2020-06-23T09:58:41Z</time>
      </trkpt>
      <trkpt lat="50.98922" lon="2.11294">
        <ele>2.9</ele>
        <time>2020-06-23T09:58:42Z</time>
      </trkpt>
      <trkpt lat="50.98918" lon="2.11291">
        <ele>2.9</ele>
        <time>2020-06-23T09:58:43Z</time>
      </trkpt>
      <trkpt lat="50.98916" lon="2.11284">
        <ele>2.9</ele>
        <time>2020-06-23T09:58:44Z</time>
      </trkpt>
      <trkpt lat="50.98914" lon="2.11278">
        <ele>2.8</ele>
        <time>2020-06-23T09:58:45Z</time>
      </trkpt>
      <trkpt lat="50.98912" lon="2.1127">
        <ele>2.8</ele>
        <time>2020-06-23T09:58:46Z</time>
      </trkpt>
      <trkpt lat="50.9891" lon="2.11259">
        <ele>2.7</ele>
        <time>2020-06-23T09:58:47Z</time>
      </trkpt>
      <trkpt lat="50.98907" lon="2.11249">
        <ele>2.6</ele>
        <time>2020-06-23T09:58:48Z</time>
      </trkpt>
      <trkpt lat="50.98904" lon="2.11241">
        <ele>2.5</ele>
        <time>2020-06-23T09:58:49Z</time>
      </trkpt>
      <trkpt lat="50.989" lon="2.11232">
        <ele>2.4</ele>
        <time>2020-06-23T09:58:50Z</time>
      </trkpt>
      <trkpt lat="50.98895" lon="2.1122">
        <ele>2.3</ele>
        <time>2020-06-23T09:58:51Z</time>
      </trkpt>
      <trkpt lat="50.98891" lon="2.11211">
        <ele>2.2</ele>
        <time>2020-06-23T09:58:52Z</time>
      </trkpt>
      <trkpt lat="50.98887" lon="2.11203">
        <ele>2.2</ele>
        <time>2020-06-23T09:58:53Z</time>
      </trkpt>
      <trkpt lat="50.98883" lon="2.11196">
        <ele>2.2</ele>
        <time>2020-06-23T09:58:54Z</time>
      </trkpt>
      <trkpt lat="50.98879" lon="2.11187">
        <ele>2.2</ele>
        <time>2020-06-23T09:58:55Z</time>
      </trkpt>
      <trkpt lat="50.98876" lon="2.1118">
        <ele>2.3</ele>
        <time>2020-06-23T09:58:56Z</time>
      </trkpt>
      <trkpt lat="50.98872" lon="2.11172">
        <ele>2.3</ele>
        <time>2020-06-23T09:58:57Z</time>
      </trkpt>
      <trkpt lat="50.98868" lon="2.11163">
        <ele>2.3</ele>
        <time>2020-06-23T09:58:58Z</time>
      </trkpt>
      <trkpt lat="50.98864" lon="2.11154">
        <ele>2.3</ele>
        <time>2020-06-23T09:58:59Z</time>
      </trkpt>
      <trkpt lat="50.9886" lon="2.11146">
        <ele>2.4</ele>
        <time>2020-06-23T09:59:00Z</time>
      </trkpt>
      <trkpt lat="50.98857" lon="2.1114">
        <ele>2.4</ele>
        <time>2020-06-23T09:59:01Z</time>
      </trkpt>
      <trkpt lat="50.98854" lon="2.11134">
        <ele>2.5</ele>
        <time>2020-06-23T09:59:02Z</time>
      </trkpt>
      <trkpt lat="50.98852" lon="2.11129">
        <ele>2.6</ele>
        <time>2020-06-23T09:59:03Z</time>
      </trkpt>
      <trkpt lat="50.9885" lon="2.11123">
        <ele>2.7</ele>
        <time>2020-06-23T09:59:04Z</time>
      </trkpt>
      <trkpt lat="50.98847" lon="2.11116">
        <ele>2.8</ele>
        <time>2020-06-23T09:59:05Z</time>
      </trkpt>
      <trkpt lat="50.98845" lon="2.11111">
        <ele>2.9</ele>
        <time>2020-06-23T09:59:06Z</time>
      </trkpt>
      <trkpt lat="50.98844" lon="2.11106">
        <ele>3</ele>
        <time>2020-06-23T09:59:07Z</time>
      </trkpt>
      <trkpt lat="50.98843" lon="2.11103">
        <ele>3.1</ele>
        <time>2020-06-23T09:59:08Z</time>
      </trkpt>
      <trkpt lat="50.98843" lon="2.11102">
        <ele>3.1</ele>
        <time>2020-06-23T09:59:09Z</time>
      </trkpt>
      <trkpt lat="50.98843" lon="2.11101">
        <ele>3.1</ele>
        <time>2020-06-23T09:59:10Z</time>
      </trkpt>
      <trkpt lat="50.98843" lon="2.111">
        <ele>3.1</ele>
        <time>2020-06-23T09:59:11Z</time>
      </trkpt>
      <trkpt lat="50.98843" lon="2.11097">
        <ele>3.2</ele>
        <time>2020-06-23T09:59:12Z</time>
      </trkpt>
      <trkpt lat="50.98843" lon="2.11094">
        <ele>3.2</ele>
        <time>2020-06-23T09:59:13Z</time>
      </trkpt>
      <trkpt lat="50.98843" lon="2.1109">
        <ele>3.3</ele>
        <time>2020-06-23T09:59:14Z</time>
      </trkpt>
      <trkpt lat="50.98843" lon="2.11088">
        <ele>3.3</ele>
        <time>2020-06-23T09:59:15Z</time>
      </trkpt>
      <trkpt lat="50.98844" lon="2.11086">
        <ele>3.4</ele>
        <time>2020-06-23T09:59:16Z</time>
      </trkpt>
      <trkpt lat="50.98844" lon="2.11084">
        <ele>3.4</ele>
        <time>2020-06-23T09:59:17Z</time>
      </trkpt>
      <trkpt lat="50.98845" lon="2.11083">
        <ele>3.4</ele>
        <time>2020-06-23T09:59:18Z</time>
      </trkpt>
      <trkpt lat="50.98845" lon="2.11081">
        <ele>3.4</ele>
        <time>2020-06-23T09:59:19Z</time>
      </trkpt>
      <trkpt lat="50.98845" lon="2.1108">
        <ele>3.4</ele>
        <time>2020-06-23T09:59:20Z</time>
      </trkpt>
      <trkpt lat="50.98845" lon="2.11079">
        <ele>3.4</ele>
        <time>2020-06-23T09:59:21Z</time>
      </trkpt>
      <trkpt lat="50.98845" lon="2.11076">
        <ele>3.5</ele>
        <time>2020-06-23T09:59:22Z</time>
      </trkpt>
      <trkpt lat="50.98845" lon="2.11075">
        <ele>3.5</ele>
        <time>2020-06-23T09:59:23Z</time>
      </trkpt>
      <trkpt lat="50.98845" lon="2.11074">
        <ele>3.5</ele>
        <time>2020-06-23T09:59:24Z</time>
      </trkpt>
      <trkpt lat="50.98845" lon="2.11073">
        <ele>3.4</ele>
        <time>2020-06-23T09:59:25Z</time>
      </trkpt>
      <trkpt lat="50.98845" lon="2.11071">
        <ele>3.4</ele>
        <time>2020-06-23T09:59:26Z</time>
      </trkpt>
      <trkpt lat="50.98843" lon="2.11069">
        <ele>3.4</ele>
        <time>2020-06-23T09:59:27Z</time>
      </trkpt>
      <trkpt lat="50.98841" lon="2.11067">
        <ele>3.4</ele>
        <time>2020-06-23T09:59:28Z</time>
      </trkpt>
      <trkpt lat="50.98836" lon="2.11067">
        <ele>3.3</ele>
        <time>2020-06-23T09:59:29Z</time>
      </trkpt>
      <trkpt lat="50.98831" lon="2.11067">
        <ele>3.2</ele>
        <time>2020-06-23T09:59:30Z</time>
      </trkpt>
      <trkpt lat="50.98825" lon="2.11067">
        <ele>3.1</ele>
        <time>2020-06-23T09:59:31Z</time>
      </trkpt>
      <trkpt lat="50.9882" lon="2.11068">
        <ele>3.1</ele>
        <time>2020-06-23T09:59:32Z</time>
      </trkpt>
      <trkpt lat="50.98815" lon="2.11068">
        <ele>3.1</ele>
        <time>2020-06-23T09:59:33Z</time>
      </trkpt>
      <trkpt lat="50.98812" lon="2.11068">
        <ele>3</ele>
        <time>2020-06-23T09:59:34Z</time>
      </trkpt>
      <trkpt lat="50.98807" lon="2.11069">
        <ele>3</ele>
        <time>2020-06-23T09:59:35Z</time>
      </trkpt>
      <trkpt lat="50.98802" lon="2.1107">
        <ele>3</ele>
        <time>2020-06-23T09:59:36Z</time>
      </trkpt>
      <trkpt lat="50.98799" lon="2.11071">
        <ele>3.1</ele>
        <time>2020-06-23T09:59:37Z</time>
      </trkpt>
      <trkpt lat="50.98795" lon="2.11073">
        <ele>3.1</ele>
        <time>2020-06-23T09:59:38Z</time>
      </trkpt>
      <trkpt lat="50.98791" lon="2.11074">
        <ele>3.1</ele>
        <time>2020-06-23T09:59:39Z</time>
      </trkpt>
      <trkpt lat="50.98787" lon="2.11075">
        <ele>3.1</ele>
        <time>2020-06-23T09:59:40Z</time>
      </trkpt>
      <trkpt lat="50.98783" lon="2.11075">
        <ele>3.2</ele>
        <time>2020-06-23T09:59:41Z</time>
      </trkpt>
      <trkpt lat="50.98779" lon="2.11076">
        <ele>3.2</ele>
        <time>2020-06-23T09:59:42Z</time>
      </trkpt>
      <trkpt lat="50.98775" lon="2.11076">
        <ele>3.3</ele>
        <time>2020-06-23T09:59:43Z</time>
      </trkpt>
      <trkpt lat="50.98771" lon="2.11076">
        <ele>3.4</ele>
        <time>2020-06-23T09:59:44Z</time>
      </trkpt>
      <trkpt lat="50.98767" lon="2.11076">
        <ele>3.4</ele>
        <time>2020-06-23T09:59:45Z</time>
      </trkpt>
      <trkpt lat="50.98762" lon="2.11074">
        <ele>3.5</ele>
        <time>2020-06-23T09:59:46Z</time>
      </trkpt>
      <trkpt lat="50.98756" lon="2.11072">
        <ele>3.5</ele>
        <time>2020-06-23T09:59:47Z</time>
      </trkpt>
      <trkpt lat="50.9875" lon="2.11071">
        <ele>3.5</ele>
        <time>2020-06-23T09:59:48Z</time>
      </trkpt>
      <trkpt lat="50.98745" lon="2.11071">
        <ele>3.6</ele>
        <time>2020-06-23T09:59:49Z</time>
      </trkpt>
      <trkpt lat="50.98741" lon="2.11072">
        <ele>3.6</ele>
        <time>2020-06-23T09:59:50Z</time>
      </trkpt>
      <trkpt lat="50.98738" lon="2.11077">
        <ele>3.6</ele>
        <time>2020-06-23T09:59:51Z</time>
      </trkpt>
      <trkpt lat="50.98738" lon="2.11086">
        <ele>3.6</ele>
        <time>2020-06-23T09:59:52Z</time>
      </trkpt>
      <trkpt lat="50.98738" lon="2.11094">
        <ele>3.8</ele>
        <time>2020-06-23T09:59:53Z</time>
      </trkpt>
      <trkpt lat="50.98738" lon="2.11102">
        <ele>3.8</ele>
        <time>2020-06-23T09:59:54Z</time>
      </trkpt>
      <trkpt lat="50.98739" lon="2.11111">
        <ele>3.7</ele>
        <time>2020-06-23T09:59:55Z</time>
      </trkpt>
      <trkpt lat="50.9874" lon="2.11121">
        <ele>3.7</ele>
        <time>2020-06-23T09:59:56Z</time>
      </trkpt>
      <trkpt lat="50.98739" lon="2.11129">
        <ele>3.6</ele>
        <time>2020-06-23T09:59:57Z</time>
      </trkpt>
      <trkpt lat="50.98739" lon="2.11138">
        <ele>3.6</ele>
        <time>2020-06-23T09:59:58Z</time>
      </trkpt>
      <trkpt lat="50.98737" lon="2.11146">
        <ele>3.5</ele>
        <time>2020-06-23T09:59:59Z</time>
      </trkpt>
      <trkpt lat="50.98735" lon="2.11155">
        <ele>3.5</ele>
        <time>2020-06-23T10:00:00Z</time>
      </trkpt>
      <trkpt lat="50.98732" lon="2.11163">
        <ele>3.5</ele>
        <time>2020-06-23T10:00:01Z</time>
      </trkpt>
      <trkpt lat="50.98731" lon="2.11172">
        <ele>3.4</ele>
        <time>2020-06-23T10:00:02Z</time>
      </trkpt>
      <trkpt lat="50.98729" lon="2.11181">
        <ele>3.4</ele>
        <time>2020-06-23T10:00:03Z</time>
      </trkpt>
      <trkpt lat="50.98727" lon="2.1119">
        <ele>3.4</ele>
        <time>2020-06-23T10:00:04Z</time>
      </trkpt>
      <trkpt lat="50.98725" lon="2.11199">
        <ele>3.5</ele>
        <time>2020-06-23T10:00:05Z</time>
      </trkpt>
      <trkpt lat="50.98722" lon="2.11208">
        <ele>3.5</ele>
        <time>2020-06-23T10:00:06Z</time>
      </trkpt>
      <trkpt lat="50.98719" lon="2.11216">
        <ele>3.5</ele>
        <time>2020-06-23T10:00:07Z</time>
      </trkpt>
      <trkpt lat="50.98716" lon="2.11226">
        <ele>3.5</ele>
        <time>2020-06-23T10:00:08Z</time>
      </trkpt>
      <trkpt lat="50.98713" lon="2.11235">
        <ele>3.5</ele>
        <time>2020-06-23T10:00:09Z</time>
      </trkpt>
      <trkpt lat="50.9871" lon="2.11245">
        <ele>3.6</ele>
        <time>2020-06-23T10:00:10Z</time>
      </trkpt>
      <trkpt lat="50.98707" lon="2.11254">
        <ele>3.6</ele>
        <time>2020-06-23T10:00:11Z</time>
      </trkpt>
      <trkpt lat="50.98704" lon="2.11263">
        <ele>3.6</ele>
        <time>2020-06-23T10:00:12Z</time>
      </trkpt>
      <trkpt lat="50.98701" lon="2.11272">
        <ele>3.6</ele>
        <time>2020-06-23T10:00:13Z</time>
      </trkpt>
      <trkpt lat="50.98698" lon="2.1128">
        <ele>3.6</ele>
        <time>2020-06-23T10:00:14Z</time>
      </trkpt>
      <trkpt lat="50.98696" lon="2.11289">
        <ele>3.6</ele>
        <time>2020-06-23T10:00:15Z</time>
      </trkpt>
      <trkpt lat="50.98693" lon="2.11297">
        <ele>3.6</ele>
        <time>2020-06-23T10:00:16Z</time>
      </trkpt>
      <trkpt lat="50.9869" lon="2.11306">
        <ele>3.7</ele>
        <time>2020-06-23T10:00:17Z</time>
      </trkpt>
      <trkpt lat="50.98687" lon="2.11315">
        <ele>3.7</ele>
        <time>2020-06-23T10:00:18Z</time>
      </trkpt>
      <trkpt lat="50.98684" lon="2.11324">
        <ele>3.6</ele>
        <time>2020-06-23T10:00:19Z</time>
      </trkpt>
      <trkpt lat="50.98681" lon="2.11333">
        <ele>3.6</ele>
        <time>2020-06-23T10:00:20Z</time>
      </trkpt>
      <trkpt lat="50.98678" lon="2.11342">
        <ele>3.5</ele>
        <time>2020-06-23T10:00:21Z</time>
      </trkpt>
      <trkpt lat="50.98675" lon="2.11351">
        <ele>3.5</ele>
        <time>2020-06-23T10:00:22Z</time>
      </trkpt>
      <trkpt lat="50.98671" lon="2.11362">
        <ele>3.5</ele>
        <time>2020-06-23T10:00:23Z</time>
      </trkpt>
      <trkpt lat="50.98669" lon="2.11371">
        <ele>3.5</ele>
        <time>2020-06-23T10:00:24Z</time>
      </trkpt>
      <trkpt lat="50.98666" lon="2.11379">
        <ele>3.5</ele>
        <time>2020-06-23T10:00:25Z</time>
      </trkpt>
      <trkpt lat="50.98663" lon="2.11388">
        <ele>3.6</ele>
        <time>2020-06-23T10:00:26Z</time>
      </trkpt>
      <trkpt lat="50.9866" lon="2.11397">
        <ele>3.6</ele>
        <time>2020-06-23T10:00:27Z</time>
      </trkpt>
      <trkpt lat="50.98657" lon="2.11405">
        <ele>3.6</ele>
        <time>2020-06-23T10:00:28Z</time>
      </trkpt>
      <trkpt lat="50.98654" lon="2.11415">
        <ele>3.6</ele>
        <time>2020-06-23T10:00:29Z</time>
      </trkpt>
      <trkpt lat="50.98651" lon="2.11425">
        <ele>3.6</ele>
        <time>2020-06-23T10:00:30Z</time>
      </trkpt>
      <trkpt lat="50.98646" lon="2.11436">
        <ele>3.7</ele>
        <time>2020-06-23T10:00:31Z</time>
      </trkpt>
      <trkpt lat="50.98643" lon="2.11445">
        <ele>3.7</ele>
        <time>2020-06-23T10:00:32Z</time>
      </trkpt>
      <trkpt lat="50.9864" lon="2.11455">
        <ele>3.7</ele>
        <time>2020-06-23T10:00:33Z</time>
      </trkpt>
      <trkpt lat="50.98637" lon="2.11464">
        <ele>3.7</ele>
        <time>2020-06-23T10:00:34Z</time>
      </trkpt>
      <trkpt lat="50.98635" lon="2.11473">
        <ele>3.7</ele>
        <time>2020-06-23T10:00:35Z</time>
      </trkpt>
      <trkpt lat="50.98632" lon="2.11483">
        <ele>3.6</ele>
        <time>2020-06-23T10:00:36Z</time>
      </trkpt>
      <trkpt lat="50.98629" lon="2.11492">
        <ele>3.6</ele>
        <time>2020-06-23T10:00:37Z</time>
      </trkpt>
      <trkpt lat="50.98626" lon="2.11502">
        <ele>3.5</ele>
        <time>2020-06-23T10:00:38Z</time>
      </trkpt>
      <trkpt lat="50.98623" lon="2.1151">
        <ele>3.5</ele>
        <time>2020-06-23T10:00:39Z</time>
      </trkpt>
      <trkpt lat="50.9862" lon="2.1152">
        <ele>3.5</ele>
        <time>2020-06-23T10:00:40Z</time>
      </trkpt>
      <trkpt lat="50.98618" lon="2.11529">
        <ele>3.6</ele>
        <time>2020-06-23T10:00:41Z</time>
      </trkpt>
      <trkpt lat="50.98617" lon="2.11538">
        <ele>3.6</ele>
        <time>2020-06-23T10:00:42Z</time>
      </trkpt>
      <trkpt lat="50.98615" lon="2.11548">
        <ele>3.6</ele>
        <time>2020-06-23T10:00:43Z</time>
      </trkpt>
      <trkpt lat="50.98614" lon="2.11556">
        <ele>3.6</ele>
        <time>2020-06-23T10:00:44Z</time>
      </trkpt>
      <trkpt lat="50.98613" lon="2.11565">
        <ele>3.6</ele>
        <time>2020-06-23T10:00:45Z</time>
      </trkpt>
      <trkpt lat="50.98612" lon="2.11574">
        <ele>3.6</ele>
        <time>2020-06-23T10:00:46Z</time>
      </trkpt>
      <trkpt lat="50.98611" lon="2.11584">
        <ele>3.6</ele>
        <time>2020-06-23T10:00:47Z</time>
      </trkpt>
      <trkpt lat="50.98609" lon="2.11592">
        <ele>3.5</ele>
        <time>2020-06-23T10:00:48Z</time>
      </trkpt>
      <trkpt lat="50.98608" lon="2.11601">
        <ele>3.5</ele>
        <time>2020-06-23T10:00:49Z</time>
      </trkpt>
      <trkpt lat="50.98606" lon="2.11609">
        <ele>3.5</ele>
        <time>2020-06-23T10:00:50Z</time>
      </trkpt>
      <trkpt lat="50.98605" lon="2.11617">
        <ele>3.4</ele>
        <time>2020-06-23T10:00:51Z</time>
      </trkpt>
      <trkpt lat="50.98604" lon="2.11627">
        <ele>3.4</ele>
        <time>2020-06-23T10:00:52Z</time>
      </trkpt>
      <trkpt lat="50.98602" lon="2.11635">
        <ele>3.4</ele>
        <time>2020-06-23T10:00:53Z</time>
      </trkpt>
      <trkpt lat="50.98601" lon="2.11643">
        <ele>3.4</ele>
        <time>2020-06-23T10:00:54Z</time>
      </trkpt>
      <trkpt lat="50.986" lon="2.11652">
        <ele>3.4</ele>
        <time>2020-06-23T10:00:55Z</time>
      </trkpt>
      <trkpt lat="50.98599" lon="2.11662">
        <ele>3.4</ele>
        <time>2020-06-23T10:00:56Z</time>
      </trkpt>
      <trkpt lat="50.98597" lon="2.11673">
        <ele>3.4</ele>
        <time>2020-06-23T10:00:57Z</time>
      </trkpt>
      <trkpt lat="50.98596" lon="2.11683">
        <ele>3.5</ele>
        <time>2020-06-23T10:00:58Z</time>
      </trkpt>
      <trkpt lat="50.98595" lon="2.11694">
        <ele>3.5</ele>
        <time>2020-06-23T10:00:59Z</time>
      </trkpt>
      <trkpt lat="50.98594" lon="2.11704">
        <ele>3.5</ele>
        <time>2020-06-23T10:01:00Z</time>
      </trkpt>
      <trkpt lat="50.98594" lon="2.11713">
        <ele>3.5</ele>
        <time>2020-06-23T10:01:01Z</time>
      </trkpt>
      <trkpt lat="50.98593" lon="2.11723">
        <ele>3.6</ele>
        <time>2020-06-23T10:01:02Z</time>
      </trkpt>
      <trkpt lat="50.98593" lon="2.11732">
        <ele>3.6</ele>
        <time>2020-06-23T10:01:03Z</time>
      </trkpt>
      <trkpt lat="50.98592" lon="2.11742">
        <ele>3.6</ele>
        <time>2020-06-23T10:01:04Z</time>
      </trkpt>
      <trkpt lat="50.98591" lon="2.11751">
        <ele>3.6</ele>
        <time>2020-06-23T10:01:05Z</time>
      </trkpt>
      <trkpt lat="50.9859" lon="2.1176">
        <ele>3.7</ele>
        <time>2020-06-23T10:01:06Z</time>
      </trkpt>
      <trkpt lat="50.98588" lon="2.11769">
        <ele>3.8</ele>
        <time>2020-06-23T10:01:07Z</time>
      </trkpt>
      <trkpt lat="50.98586" lon="2.11778">
        <ele>3.8</ele>
        <time>2020-06-23T10:01:08Z</time>
      </trkpt>
      <trkpt lat="50.98584" lon="2.11786">
        <ele>3.9</ele>
        <time>2020-06-23T10:01:09Z</time>
      </trkpt>
      <trkpt lat="50.9858" lon="2.11794">
        <ele>3.9</ele>
        <time>2020-06-23T10:01:10Z</time>
      </trkpt>
      <trkpt lat="50.98575" lon="2.11799">
        <ele>4</ele>
        <time>2020-06-23T10:01:11Z</time>
      </trkpt>
      <trkpt lat="50.98569" lon="2.11802">
        <ele>4</ele>
        <time>2020-06-23T10:01:12Z</time>
      </trkpt>
      <trkpt lat="50.98562" lon="2.11801">
        <ele>3.9</ele>
        <time>2020-06-23T10:01:13Z</time>
      </trkpt>
      <trkpt lat="50.98555" lon="2.11799">
        <ele>3.8</ele>
        <time>2020-06-23T10:01:14Z</time>
      </trkpt>
      <trkpt lat="50.98549" lon="2.11796">
        <ele>3.7</ele>
        <time>2020-06-23T10:01:15Z</time>
      </trkpt>
      <trkpt lat="50.98544" lon="2.11791">
        <ele>3.6</ele>
        <time>2020-06-23T10:01:16Z</time>
      </trkpt>
      <trkpt lat="50.98538" lon="2.11785">
        <ele>3.6</ele>
        <time>2020-06-23T10:01:17Z</time>
      </trkpt>
      <trkpt lat="50.98532" lon="2.11781">
        <ele>3.6</ele>
        <time>2020-06-23T10:01:18Z</time>
      </trkpt>
      <trkpt lat="50.98527" lon="2.11777">
        <ele>3.6</ele>
        <time>2020-06-23T10:01:19Z</time>
      </trkpt>
      <trkpt lat="50.98521" lon="2.11773">
        <ele>3.6</ele>
        <time>2020-06-23T10:01:20Z</time>
      </trkpt>
      <trkpt lat="50.98516" lon="2.11769">
        <ele>3.6</ele>
        <time>2020-06-23T10:01:21Z</time>
      </trkpt>
      <trkpt lat="50.9851" lon="2.11764">
        <ele>3.7</ele>
        <time>2020-06-23T10:01:22Z</time>
      </trkpt>
      <trkpt lat="50.98504" lon="2.11759">
        <ele>3.7</ele>
        <time>2020-06-23T10:01:23Z</time>
      </trkpt>
      <trkpt lat="50.98498" lon="2.11755">
        <ele>3.7</ele>
        <time>2020-06-23T10:01:24Z</time>
      </trkpt>
      <trkpt lat="50.98493" lon="2.11751">
        <ele>3.7</ele>
        <time>2020-06-23T10:01:25Z</time>
      </trkpt>
      <trkpt lat="50.98487" lon="2.11747">
        <ele>3.7</ele>
        <time>2020-06-23T10:01:26Z</time>
      </trkpt>
      <trkpt lat="50.98481" lon="2.11743">
        <ele>3.7</ele>
        <time>2020-06-23T10:01:27Z</time>
      </trkpt>
      <trkpt lat="50.98476" lon="2.11739">
        <ele>3.7</ele>
        <time>2020-06-23T10:01:28Z</time>
      </trkpt>
      <trkpt lat="50.9847" lon="2.11736">
        <ele>3.7</ele>
        <time>2020-06-23T10:01:29Z</time>
      </trkpt>
      <trkpt lat="50.98465" lon="2.11734">
        <ele>3.7</ele>
        <time>2020-06-23T10:01:30Z</time>
      </trkpt>
      <trkpt lat="50.98459" lon="2.11729">
        <ele>3.7</ele>
        <time>2020-06-23T10:01:31Z</time>
      </trkpt>
      <trkpt lat="50.98454" lon="2.11725">
        <ele>3.8</ele>
        <time>2020-06-23T10:01:32Z</time>
      </trkpt>
      <trkpt lat="50.98448" lon="2.11721">
        <ele>3.8</ele>
        <time>2020-06-23T10:01:33Z</time>
      </trkpt>
      <trkpt lat="50.98443" lon="2.11718">
        <ele>3.9</ele>
        <time>2020-06-23T10:01:34Z</time>
      </trkpt>
      <trkpt lat="50.98437" lon="2.11715">
        <ele>3.9</ele>
        <time>2020-06-23T10:01:35Z</time>
      </trkpt>
      <trkpt lat="50.98431" lon="2.11711">
        <ele>4</ele>
        <time>2020-06-23T10:01:36Z</time>
      </trkpt>
      <trkpt lat="50.98425" lon="2.11707">
        <ele>4.1</ele>
        <time>2020-06-23T10:01:37Z</time>
      </trkpt>
      <trkpt lat="50.98418" lon="2.11702">
        <ele>4.1</ele>
        <time>2020-06-23T10:01:38Z</time>
      </trkpt>
      <trkpt lat="50.98413" lon="2.11698">
        <ele>4.1</ele>
        <time>2020-06-23T10:01:39Z</time>
      </trkpt>
      <trkpt lat="50.98407" lon="2.11694">
        <ele>4</ele>
        <time>2020-06-23T10:01:40Z</time>
      </trkpt>
      <trkpt lat="50.98401" lon="2.1169">
        <ele>4</ele>
        <time>2020-06-23T10:01:41Z</time>
      </trkpt>
      <trkpt lat="50.98396" lon="2.11687">
        <ele>4</ele>
        <time>2020-06-23T10:01:42Z</time>
      </trkpt>
      <trkpt lat="50.98391" lon="2.11683">
        <ele>4</ele>
        <time>2020-06-23T10:01:43Z</time>
      </trkpt>
      <trkpt lat="50.98385" lon="2.11679">
        <ele>4</ele>
        <time>2020-06-23T10:01:44Z</time>
      </trkpt>
      <trkpt lat="50.98379" lon="2.11675">
        <ele>4</ele>
        <time>2020-06-23T10:01:45Z</time>
      </trkpt>
      <trkpt lat="50.98373" lon="2.11673">
        <ele>3.9</ele>
        <time>2020-06-23T10:01:46Z</time>
      </trkpt>
      <trkpt lat="50.98366" lon="2.11672">
        <ele>3.9</ele>
        <time>2020-06-23T10:01:47Z</time>
      </trkpt>
      <trkpt lat="50.9836" lon="2.11673">
        <ele>3.9</ele>
        <time>2020-06-23T10:01:48Z</time>
      </trkpt>
      <trkpt lat="50.98353" lon="2.11675">
        <ele>3.8</ele>
        <time>2020-06-23T10:01:49Z</time>
      </trkpt>
      <trkpt lat="50.98347" lon="2.11678">
        <ele>3.8</ele>
        <time>2020-06-23T10:01:50Z</time>
      </trkpt>
      <trkpt lat="50.98341" lon="2.11681">
        <ele>3.7</ele>
        <time>2020-06-23T10:01:51Z</time>
      </trkpt>
      <trkpt lat="50.98335" lon="2.11685">
        <ele>3.7</ele>
        <time>2020-06-23T10:01:52Z</time>
      </trkpt>
      <trkpt lat="50.9833" lon="2.1169">
        <ele>3.7</ele>
        <time>2020-06-23T10:01:53Z</time>
      </trkpt>
      <trkpt lat="50.98326" lon="2.11697">
        <ele>3.7</ele>
        <time>2020-06-23T10:01:54Z</time>
      </trkpt>
      <trkpt lat="50.98321" lon="2.11705">
        <ele>3.7</ele>
        <time>2020-06-23T10:01:55Z</time>
      </trkpt>
      <trkpt lat="50.98317" lon="2.11713">
        <ele>3.7</ele>
        <time>2020-06-23T10:01:56Z</time>
      </trkpt>
      <trkpt lat="50.98314" lon="2.11721">
        <ele>3.7</ele>
        <time>2020-06-23T10:01:57Z</time>
      </trkpt>
      <trkpt lat="50.98311" lon="2.1173">
        <ele>3.7</ele>
        <time>2020-06-23T10:01:58Z</time>
      </trkpt>
      <trkpt lat="50.98308" lon="2.1174">
        <ele>3.8</ele>
        <time>2020-06-23T10:01:59Z</time>
      </trkpt>
      <trkpt lat="50.98307" lon="2.1175">
        <ele>3.7</ele>
        <time>2020-06-23T10:02:00Z</time>
      </trkpt>
      <trkpt lat="50.98305" lon="2.1176">
        <ele>3.7</ele>
        <time>2020-06-23T10:02:01Z</time>
      </trkpt>
      <trkpt lat="50.98302" lon="2.11771">
        <ele>3.6</ele>
        <time>2020-06-23T10:02:02Z</time>
      </trkpt>
      <trkpt lat="50.983" lon="2.1178">
        <ele>3.6</ele>
        <time>2020-06-23T10:02:03Z</time>
      </trkpt>
      <trkpt lat="50.98299" lon="2.1179">
        <ele>3.6</ele>
        <time>2020-06-23T10:02:04Z</time>
      </trkpt>
      <trkpt lat="50.98297" lon="2.11799">
        <ele>3.6</ele>
        <time>2020-06-23T10:02:05Z</time>
      </trkpt>
      <trkpt lat="50.98296" lon="2.11809">
        <ele>3.6</ele>
        <time>2020-06-23T10:02:06Z</time>
      </trkpt>
      <trkpt lat="50.98293" lon="2.11818">
        <ele>3.6</ele>
        <time>2020-06-23T10:02:07Z</time>
      </trkpt>
      <trkpt lat="50.98291" lon="2.11826">
        <ele>3.6</ele>
        <time>2020-06-23T10:02:08Z</time>
      </trkpt>
      <trkpt lat="50.98289" lon="2.11834">
        <ele>3.6</ele>
        <time>2020-06-23T10:02:09Z</time>
      </trkpt>
      <trkpt lat="50.98288" lon="2.11842">
        <ele>3.6</ele>
        <time>2020-06-23T10:02:10Z</time>
      </trkpt>
      <trkpt lat="50.98286" lon="2.1185">
        <ele>3.6</ele>
        <time>2020-06-23T10:02:11Z</time>
      </trkpt>
      <trkpt lat="50.98284" lon="2.11859">
        <ele>3.6</ele>
        <time>2020-06-23T10:02:12Z</time>
      </trkpt>
      <trkpt lat="50.98282" lon="2.11868">
        <ele>3.6</ele>
        <time>2020-06-23T10:02:13Z</time>
      </trkpt>
      <trkpt lat="50.9828" lon="2.11877">
        <ele>3.7</ele>
        <time>2020-06-23T10:02:14Z</time>
      </trkpt>
      <trkpt lat="50.98278" lon="2.11887">
        <ele>3.7</ele>
        <time>2020-06-23T10:02:15Z</time>
      </trkpt>
      <trkpt lat="50.98276" lon="2.11897">
        <ele>3.7</ele>
        <time>2020-06-23T10:02:16Z</time>
      </trkpt>
      <trkpt lat="50.98273" lon="2.11907">
        <ele>3.8</ele>
        <time>2020-06-23T10:02:17Z</time>
      </trkpt>
      <trkpt lat="50.9827" lon="2.11918">
        <ele>3.8</ele>
        <time>2020-06-23T10:02:18Z</time>
      </trkpt>
      <trkpt lat="50.98268" lon="2.11928">
        <ele>3.8</ele>
        <time>2020-06-23T10:02:19Z</time>
      </trkpt>
      <trkpt lat="50.98265" lon="2.11938">
        <ele>3.8</ele>
        <time>2020-06-23T10:02:20Z</time>
      </trkpt>
      <trkpt lat="50.98263" lon="2.11947">
        <ele>3.8</ele>
        <time>2020-06-23T10:02:21Z</time>
      </trkpt>
      <trkpt lat="50.98261" lon="2.11956">
        <ele>3.8</ele>
        <time>2020-06-23T10:02:22Z</time>
      </trkpt>
      <trkpt lat="50.9826" lon="2.11962">
        <ele>3.8</ele>
        <time>2020-06-23T10:02:23Z</time>
      </trkpt>
      <trkpt lat="50.98258" lon="2.1197">
        <ele>3.8</ele>
        <time>2020-06-23T10:02:24Z</time>
      </trkpt>
      <trkpt lat="50.98257" lon="2.11978">
        <ele>3.9</ele>
        <time>2020-06-23T10:02:25Z</time>
      </trkpt>
      <trkpt lat="50.98254" lon="2.11986">
        <ele>3.9</ele>
        <time>2020-06-23T10:02:26Z</time>
      </trkpt>
      <trkpt lat="50.98251" lon="2.11993">
        <ele>4</ele>
        <time>2020-06-23T10:02:27Z</time>
      </trkpt>
      <trkpt lat="50.98248" lon="2.12">
        <ele>4</ele>
        <time>2020-06-23T10:02:28Z</time>
      </trkpt>
      <trkpt lat="50.98245" lon="2.12007">
        <ele>4.1</ele>
        <time>2020-06-23T10:02:29Z</time>
      </trkpt>
      <trkpt lat="50.98242" lon="2.12014">
        <ele>4.2</ele>
        <time>2020-06-23T10:02:30Z</time>
      </trkpt>
      <trkpt lat="50.9824" lon="2.1202">
        <ele>4.3</ele>
        <time>2020-06-23T10:02:31Z</time>
      </trkpt>
      <trkpt lat="50.9824" lon="2.12029">
        <ele>4.4</ele>
        <time>2020-06-23T10:02:32Z</time>
      </trkpt>
      <trkpt lat="50.9824" lon="2.12039">
        <ele>4.6</ele>
        <time>2020-06-23T10:02:33Z</time>
      </trkpt>
      <trkpt lat="50.98242" lon="2.12048">
        <ele>4.7</ele>
        <time>2020-06-23T10:02:34Z</time>
      </trkpt>
      <trkpt lat="50.98245" lon="2.12056">
        <ele>4.7</ele>
        <time>2020-06-23T10:02:35Z</time>
      </trkpt>
      <trkpt lat="50.98248" lon="2.12063">
        <ele>4.8</ele>
        <time>2020-06-23T10:02:36Z</time>
      </trkpt>
      <trkpt lat="50.98252" lon="2.12068">
        <ele>4.8</ele>
        <time>2020-06-23T10:02:37Z</time>
      </trkpt>
      <trkpt lat="50.98255" lon="2.12073">
        <ele>5</ele>
        <time>2020-06-23T10:02:38Z</time>
      </trkpt>
      <trkpt lat="50.98258" lon="2.12079">
        <ele>5.1</ele>
        <time>2020-06-23T10:02:39Z</time>
      </trkpt>
      <trkpt lat="50.98262" lon="2.12086">
        <ele>5.1</ele>
        <time>2020-06-23T10:02:40Z</time>
      </trkpt>
      <trkpt lat="50.98266" lon="2.12093">
        <ele>5.2</ele>
        <time>2020-06-23T10:02:41Z</time>
      </trkpt>
      <trkpt lat="50.9827" lon="2.121">
        <ele>5.1</ele>
        <time>2020-06-23T10:02:42Z</time>
      </trkpt>
      <trkpt lat="50.98274" lon="2.12106">
        <ele>5.1</ele>
        <time>2020-06-23T10:02:43Z</time>
      </trkpt>
      <trkpt lat="50.98277" lon="2.12113">
        <ele>5</ele>
        <time>2020-06-23T10:02:44Z</time>
      </trkpt>
      <trkpt lat="50.9828" lon="2.12119">
        <ele>5</ele>
        <time>2020-06-23T10:02:45Z</time>
      </trkpt>
      <trkpt lat="50.98284" lon="2.12127">
        <ele>4.9</ele>
        <time>2020-06-23T10:02:46Z</time>
      </trkpt>
      <trkpt lat="50.98288" lon="2.12136">
        <ele>4.8</ele>
        <time>2020-06-23T10:02:47Z</time>
      </trkpt>
      <trkpt lat="50.98292" lon="2.12144">
        <ele>4.8</ele>
        <time>2020-06-23T10:02:48Z</time>
      </trkpt>
      <trkpt lat="50.98297" lon="2.12154">
        <ele>4.7</ele>
        <time>2020-06-23T10:02:49Z</time>
      </trkpt>
      <trkpt lat="50.98302" lon="2.12162">
        <ele>4.7</ele>
        <time>2020-06-23T10:02:50Z</time>
      </trkpt>
      <trkpt lat="50.98307" lon="2.12171">
        <ele>4.6</ele>
        <time>2020-06-23T10:02:51Z</time>
      </trkpt>
      <trkpt lat="50.98311" lon="2.12179">
        <ele>4.6</ele>
        <time>2020-06-23T10:02:52Z</time>
      </trkpt>
      <trkpt lat="50.98317" lon="2.12188">
        <ele>4.6</ele>
        <time>2020-06-23T10:02:53Z</time>
      </trkpt>
      <trkpt lat="50.98322" lon="2.12196">
        <ele>4.6</ele>
        <time>2020-06-23T10:02:54Z</time>
      </trkpt>
      <trkpt lat="50.98326" lon="2.12205">
        <ele>4.6</ele>
        <time>2020-06-23T10:02:55Z</time>
      </trkpt>
      <trkpt lat="50.9833" lon="2.12212">
        <ele>4.7</ele>
        <time>2020-06-23T10:02:56Z</time>
      </trkpt>
      <trkpt lat="50.98334" lon="2.1222">
        <ele>4.7</ele>
        <time>2020-06-23T10:02:57Z</time>
      </trkpt>
      <trkpt lat="50.98338" lon="2.12228">
        <ele>4.7</ele>
        <time>2020-06-23T10:02:58Z</time>
      </trkpt>
      <trkpt lat="50.98341" lon="2.12236">
        <ele>4.7</ele>
        <time>2020-06-23T10:02:59Z</time>
      </trkpt>
      <trkpt lat="50.98344" lon="2.12245">
        <ele>4.7</ele>
        <time>2020-06-23T10:03:00Z</time>
      </trkpt>
      <trkpt lat="50.98347" lon="2.12253">
        <ele>4.7</ele>
        <time>2020-06-23T10:03:01Z</time>
      </trkpt>
      <trkpt lat="50.9835" lon="2.12263">
        <ele>4.7</ele>
        <time>2020-06-23T10:03:02Z</time>
      </trkpt>
      <trkpt lat="50.98353" lon="2.12271">
        <ele>4.6</ele>
        <time>2020-06-23T10:03:03Z</time>
      </trkpt>
      <trkpt lat="50.98357" lon="2.12279">
        <ele>4.5</ele>
        <time>2020-06-23T10:03:04Z</time>
      </trkpt>
      <trkpt lat="50.98361" lon="2.12286">
        <ele>4.5</ele>
        <time>2020-06-23T10:03:05Z</time>
      </trkpt>
      <trkpt lat="50.98364" lon="2.12293">
        <ele>4.4</ele>
        <time>2020-06-23T10:03:06Z</time>
      </trkpt>
      <trkpt lat="50.98368" lon="2.12301">
        <ele>4.3</ele>
        <time>2020-06-23T10:03:07Z</time>
      </trkpt>
      <trkpt lat="50.98371" lon="2.1231">
        <ele>4.3</ele>
        <time>2020-06-23T10:03:08Z</time>
      </trkpt>
      <trkpt lat="50.98374" lon="2.12318">
        <ele>4.2</ele>
        <time>2020-06-23T10:03:09Z</time>
      </trkpt>
      <trkpt lat="50.98377" lon="2.12326">
        <ele>4.2</ele>
        <time>2020-06-23T10:03:10Z</time>
      </trkpt>
      <trkpt lat="50.98381" lon="2.12334">
        <ele>4.2</ele>
        <time>2020-06-23T10:03:11Z</time>
      </trkpt>
      <trkpt lat="50.98384" lon="2.12342">
        <ele>4.2</ele>
        <time>2020-06-23T10:03:12Z</time>
      </trkpt>
      <trkpt lat="50.98388" lon="2.12351">
        <ele>4.3</ele>
        <time>2020-06-23T10:03:13Z</time>
      </trkpt>
      <trkpt lat="50.98392" lon="2.1236">
        <ele>4.3</ele>
        <time>2020-06-23T10:03:14Z</time>
      </trkpt>
      <trkpt lat="50.98397" lon="2.12368">
        <ele>4.3</ele>
        <time>2020-06-23T10:03:15Z</time>
      </trkpt>
      <trkpt lat="50.98401" lon="2.12377">
        <ele>4.3</ele>
        <time>2020-06-23T10:03:16Z</time>
      </trkpt>
      <trkpt lat="50.98405" lon="2.12386">
        <ele>4.3</ele>
        <time>2020-06-23T10:03:17Z</time>
      </trkpt>
      <trkpt lat="50.98408" lon="2.12394">
        <ele>4.4</ele>
        <time>2020-06-23T10:03:18Z</time>
      </trkpt>
      <trkpt lat="50.98412" lon="2.12402">
        <ele>4.5</ele>
        <time>2020-06-23T10:03:19Z</time>
      </trkpt>
      <trkpt lat="50.98415" lon="2.1241">
        <ele>4.6</ele>
        <time>2020-06-23T10:03:20Z</time>
      </trkpt>
      <trkpt lat="50.98419" lon="2.12418">
        <ele>4.7</ele>
        <time>2020-06-23T10:03:21Z</time>
      </trkpt>
      <trkpt lat="50.98423" lon="2.12426">
        <ele>4.7</ele>
        <time>2020-06-23T10:03:22Z</time>
      </trkpt>
      <trkpt lat="50.98427" lon="2.12434">
        <ele>4.6</ele>
        <time>2020-06-23T10:03:23Z</time>
      </trkpt>
      <trkpt lat="50.9843" lon="2.12443">
        <ele>4.6</ele>
        <time>2020-06-23T10:03:24Z</time>
      </trkpt>
      <trkpt lat="50.98433" lon="2.1245">
        <ele>4.5</ele>
        <time>2020-06-23T10:03:25Z</time>
      </trkpt>
      <trkpt lat="50.98437" lon="2.12458">
        <ele>4.5</ele>
        <time>2020-06-23T10:03:26Z</time>
      </trkpt>
      <trkpt lat="50.9844" lon="2.12465">
        <ele>4.4</ele>
        <time>2020-06-23T10:03:27Z</time>
      </trkpt>
      <trkpt lat="50.98443" lon="2.12473">
        <ele>4.4</ele>
        <time>2020-06-23T10:03:28Z</time>
      </trkpt>
      <trkpt lat="50.98447" lon="2.12481">
        <ele>4.4</ele>
        <time>2020-06-23T10:03:29Z</time>
      </trkpt>
      <trkpt lat="50.98451" lon="2.1249">
        <ele>4.4</ele>
        <time>2020-06-23T10:03:30Z</time>
      </trkpt>
      <trkpt lat="50.98455" lon="2.12499">
        <ele>4.3</ele>
        <time>2020-06-23T10:03:31Z</time>
      </trkpt>
      <trkpt lat="50.98458" lon="2.12506">
        <ele>4.3</ele>
        <time>2020-06-23T10:03:32Z</time>
      </trkpt>
      <trkpt lat="50.98463" lon="2.12514">
        <ele>4.3</ele>
        <time>2020-06-23T10:03:33Z</time>
      </trkpt>
      <trkpt lat="50.98467" lon="2.1252">
        <ele>4.3</ele>
        <time>2020-06-23T10:03:34Z</time>
      </trkpt>
      <trkpt lat="50.98471" lon="2.12527">
        <ele>4.3</ele>
        <time>2020-06-23T10:03:35Z</time>
      </trkpt>
      <trkpt lat="50.98476" lon="2.12534">
        <ele>4.3</ele>
        <time>2020-06-23T10:03:36Z</time>
      </trkpt>
      <trkpt lat="50.9848" lon="2.1254">
        <ele>4.3</ele>
        <time>2020-06-23T10:03:37Z</time>
      </trkpt>
      <trkpt lat="50.98485" lon="2.12548">
        <ele>4.2</ele>
        <time>2020-06-23T10:03:38Z</time>
      </trkpt>
      <trkpt lat="50.98489" lon="2.12554">
        <ele>4.2</ele>
        <time>2020-06-23T10:03:39Z</time>
      </trkpt>
      <trkpt lat="50.98494" lon="2.1256">
        <ele>4.1</ele>
        <time>2020-06-23T10:03:40Z</time>
      </trkpt>
      <trkpt lat="50.98498" lon="2.12565">
        <ele>4.1</ele>
        <time>2020-06-23T10:03:41Z</time>
      </trkpt>
      <trkpt lat="50.98499" lon="2.12567">
        <ele>4</ele>
        <time>2020-06-23T10:03:42Z</time>
      </trkpt>
      <trkpt lat="50.98505" lon="2.12573">
        <ele>4</ele>
        <time>2020-06-23T10:03:43Z</time>
      </trkpt>
      <trkpt lat="50.98508" lon="2.12578">
        <ele>4</ele>
        <time>2020-06-23T10:03:44Z</time>
      </trkpt>
      <trkpt lat="50.98513" lon="2.12584">
        <ele>3.9</ele>
        <time>2020-06-23T10:03:45Z</time>
      </trkpt>
      <trkpt lat="50.98519" lon="2.12587">
        <ele>4</ele>
        <time>2020-06-23T10:03:46Z</time>
      </trkpt>
      <trkpt lat="50.98523" lon="2.12591">
        <ele>4</ele>
        <time>2020-06-23T10:03:47Z</time>
      </trkpt>
      <trkpt lat="50.98527" lon="2.12594">
        <ele>4.1</ele>
        <time>2020-06-23T10:03:48Z</time>
      </trkpt>
      <trkpt lat="50.98528" lon="2.12601">
        <ele>4.1</ele>
        <time>2020-06-23T10:03:49Z</time>
      </trkpt>
      <trkpt lat="50.98528" lon="2.12605">
        <ele>4.1</ele>
        <time>2020-06-23T10:03:50Z</time>
      </trkpt>
      <trkpt lat="50.98529" lon="2.12613">
        <ele>4.1</ele>
        <time>2020-06-23T10:03:51Z</time>
      </trkpt>
      <trkpt lat="50.9853" lon="2.12622">
        <ele>4.1</ele>
        <time>2020-06-23T10:03:52Z</time>
      </trkpt>
      <trkpt lat="50.98531" lon="2.12633">
        <ele>4.1</ele>
        <time>2020-06-23T10:03:53Z</time>
      </trkpt>
      <trkpt lat="50.98531" lon="2.1264">
        <ele>4.2</ele>
        <time>2020-06-23T10:03:54Z</time>
      </trkpt>
      <trkpt lat="50.98531" lon="2.1265">
        <ele>4.2</ele>
        <time>2020-06-23T10:03:55Z</time>
      </trkpt>
      <trkpt lat="50.98531" lon="2.12657">
        <ele>4.3</ele>
        <time>2020-06-23T10:03:56Z</time>
      </trkpt>
      <trkpt lat="50.9853" lon="2.12668">
        <ele>4.4</ele>
        <time>2020-06-23T10:03:57Z</time>
      </trkpt>
      <trkpt lat="50.98531" lon="2.12677">
        <ele>4.5</ele>
        <time>2020-06-23T10:03:58Z</time>
      </trkpt>
      <trkpt lat="50.98531" lon="2.12687">
        <ele>4.6</ele>
        <time>2020-06-23T10:03:59Z</time>
      </trkpt>
      <trkpt lat="50.98532" lon="2.12693">
        <ele>4.6</ele>
        <time>2020-06-23T10:04:00Z</time>
      </trkpt>
      <trkpt lat="50.98531" lon="2.12701">
        <ele>4.7</ele>
        <time>2020-06-23T10:04:01Z</time>
      </trkpt>
      <trkpt lat="50.98531" lon="2.12708">
        <ele>4.8</ele>
        <time>2020-06-23T10:04:02Z</time>
      </trkpt>
      <trkpt lat="50.9853" lon="2.12713">
        <ele>4.8</ele>
        <time>2020-06-23T10:04:03Z</time>
      </trkpt>
      <trkpt lat="50.98531" lon="2.12722">
        <ele>4.9</ele>
        <time>2020-06-23T10:04:04Z</time>
      </trkpt>
      <trkpt lat="50.98532" lon="2.12731">
        <ele>5</ele>
        <time>2020-06-23T10:04:05Z</time>
      </trkpt>
      <trkpt lat="50.98532" lon="2.1274">
        <ele>5</ele>
        <time>2020-06-23T10:04:06Z</time>
      </trkpt>
      <trkpt lat="50.98531" lon="2.12751">
        <ele>5</ele>
        <time>2020-06-23T10:04:07Z</time>
      </trkpt>
      <trkpt lat="50.9853" lon="2.1276">
        <ele>5</ele>
        <time>2020-06-23T10:04:08Z</time>
      </trkpt>
      <trkpt lat="50.98529" lon="2.12767">
        <ele>5</ele>
        <time>2020-06-23T10:04:09Z</time>
      </trkpt>
      <trkpt lat="50.98529" lon="2.12775">
        <ele>5</ele>
        <time>2020-06-23T10:04:10Z</time>
      </trkpt>
      <trkpt lat="50.98529" lon="2.12783">
        <ele>5</ele>
        <time>2020-06-23T10:04:11Z</time>
      </trkpt>
      <trkpt lat="50.98528" lon="2.12792">
        <ele>5</ele>
        <time>2020-06-23T10:04:12Z</time>
      </trkpt>
      <trkpt lat="50.98528" lon="2.12798">
        <ele>4.9</ele>
        <time>2020-06-23T10:04:13Z</time>
      </trkpt>
      <trkpt lat="50.98527" lon="2.12806">
        <ele>4.9</ele>
        <time>2020-06-23T10:04:14Z</time>
      </trkpt>
      <trkpt lat="50.98526" lon="2.1281">
        <ele>4.9</ele>
        <time>2020-06-23T10:04:15Z</time>
      </trkpt>
      <trkpt lat="50.98526" lon="2.12819">
        <ele>4.8</ele>
        <time>2020-06-23T10:04:16Z</time>
      </trkpt>
      <trkpt lat="50.98527" lon="2.12826">
        <ele>4.8</ele>
        <time>2020-06-23T10:04:17Z</time>
      </trkpt>
      <trkpt lat="50.98525" lon="2.12833">
        <ele>4.8</ele>
        <time>2020-06-23T10:04:18Z</time>
      </trkpt>
      <trkpt lat="50.98524" lon="2.12842">
        <ele>4.8</ele>
        <time>2020-06-23T10:04:19Z</time>
      </trkpt>
      <trkpt lat="50.98522" lon="2.12849">
        <ele>4.8</ele>
        <time>2020-06-23T10:04:20Z</time>
      </trkpt>
      <trkpt lat="50.98521" lon="2.12854">
        <ele>4.8</ele>
        <time>2020-06-23T10:04:21Z</time>
      </trkpt>
      <trkpt lat="50.9852" lon="2.12859">
        <ele>4.8</ele>
        <time>2020-06-23T10:04:22Z</time>
      </trkpt>
      <trkpt lat="50.98519" lon="2.12865">
        <ele>4.9</ele>
        <time>2020-06-23T10:04:23Z</time>
      </trkpt>
      <trkpt lat="50.98518" lon="2.12872">
        <ele>4.9</ele>
        <time>2020-06-23T10:04:24Z</time>
      </trkpt>
      <trkpt lat="50.98518" lon="2.12879">
        <ele>5</ele>
        <time>2020-06-23T10:04:25Z</time>
      </trkpt>
      <trkpt lat="50.98519" lon="2.12886">
        <ele>5.1</ele>
        <time>2020-06-23T10:04:26Z</time>
      </trkpt>
      <trkpt lat="50.98519" lon="2.12892">
        <ele>5.1</ele>
        <time>2020-06-23T10:04:27Z</time>
      </trkpt>
      <trkpt lat="50.98519" lon="2.12899">
        <ele>5.2</ele>
        <time>2020-06-23T10:04:28Z</time>
      </trkpt>
      <trkpt lat="50.9852" lon="2.12911">
        <ele>5.1</ele>
        <time>2020-06-23T10:04:29Z</time>
      </trkpt>
      <trkpt lat="50.98521" lon="2.12921">
        <ele>5.1</ele>
        <time>2020-06-23T10:04:30Z</time>
      </trkpt>
      <trkpt lat="50.98521" lon="2.12933">
        <ele>5</ele>
        <time>2020-06-23T10:04:31Z</time>
      </trkpt>
      <trkpt lat="50.9852" lon="2.12942">
        <ele>5</ele>
        <time>2020-06-23T10:04:32Z</time>
      </trkpt>
      <trkpt lat="50.9852" lon="2.12953">
        <ele>4.9</ele>
        <time>2020-06-23T10:04:33Z</time>
      </trkpt>
      <trkpt lat="50.9852" lon="2.12963">
        <ele>4.9</ele>
        <time>2020-06-23T10:04:34Z</time>
      </trkpt>
      <trkpt lat="50.9852" lon="2.12971">
        <ele>4.9</ele>
        <time>2020-06-23T10:04:35Z</time>
      </trkpt>
      <trkpt lat="50.9852" lon="2.12982">
        <ele>4.9</ele>
        <time>2020-06-23T10:04:36Z</time>
      </trkpt>
      <trkpt lat="50.9852" lon="2.12994">
        <ele>5</ele>
        <time>2020-06-23T10:04:37Z</time>
      </trkpt>
      <trkpt lat="50.98521" lon="2.13001">
        <ele>5.1</ele>
        <time>2020-06-23T10:04:38Z</time>
      </trkpt>
      <trkpt lat="50.98521" lon="2.13008">
        <ele>5.1</ele>
        <time>2020-06-23T10:04:39Z</time>
      </trkpt>
      <trkpt lat="50.98521" lon="2.13014">
        <ele>5.2</ele>
        <time>2020-06-23T10:04:40Z</time>
      </trkpt>
      <trkpt lat="50.98522" lon="2.1302">
        <ele>5.2</ele>
        <time>2020-06-23T10:04:41Z</time>
      </trkpt>
      <trkpt lat="50.98525" lon="2.13025">
        <ele>5.1</ele>
        <time>2020-06-23T10:04:42Z</time>
      </trkpt>
      <trkpt lat="50.9853" lon="2.13026">
        <ele>4.9</ele>
        <time>2020-06-23T10:04:43Z</time>
      </trkpt>
      <trkpt lat="50.98535" lon="2.13027">
        <ele>4.8</ele>
        <time>2020-06-23T10:04:44Z</time>
      </trkpt>
      <trkpt lat="50.98541" lon="2.13027">
        <ele>4.7</ele>
        <time>2020-06-23T10:04:45Z</time>
      </trkpt>
      <trkpt lat="50.98546" lon="2.13027">
        <ele>4.5</ele>
        <time>2020-06-23T10:04:46Z</time>
      </trkpt>
      <trkpt lat="50.98551" lon="2.13027">
        <ele>4.4</ele>
        <time>2020-06-23T10:04:47Z</time>
      </trkpt>
      <trkpt lat="50.98557" lon="2.13029">
        <ele>4.3</ele>
        <time>2020-06-23T10:04:48Z</time>
      </trkpt>
      <trkpt lat="50.98561" lon="2.13031">
        <ele>4.2</ele>
        <time>2020-06-23T10:04:49Z</time>
      </trkpt>
      <trkpt lat="50.98566" lon="2.13032">
        <ele>4.1</ele>
        <time>2020-06-23T10:04:50Z</time>
      </trkpt>
      <trkpt lat="50.98572" lon="2.13033">
        <ele>4</ele>
        <time>2020-06-23T10:04:51Z</time>
      </trkpt>
      <trkpt lat="50.98577" lon="2.13033">
        <ele>4</ele>
        <time>2020-06-23T10:04:52Z</time>
      </trkpt>
      <trkpt lat="50.98581" lon="2.13033">
        <ele>3.9</ele>
        <time>2020-06-23T10:04:53Z</time>
      </trkpt>
      <trkpt lat="50.98586" lon="2.13033">
        <ele>3.9</ele>
        <time>2020-06-23T10:04:54Z</time>
      </trkpt>
      <trkpt lat="50.98591" lon="2.13033">
        <ele>3.9</ele>
        <time>2020-06-23T10:04:55Z</time>
      </trkpt>
      <trkpt lat="50.98596" lon="2.13033">
        <ele>3.9</ele>
        <time>2020-06-23T10:04:56Z</time>
      </trkpt>
      <trkpt lat="50.98602" lon="2.13033">
        <ele>3.9</ele>
        <time>2020-06-23T10:04:57Z</time>
      </trkpt>
      <trkpt lat="50.98606" lon="2.13034">
        <ele>3.9</ele>
        <time>2020-06-23T10:04:58Z</time>
      </trkpt>
      <trkpt lat="50.9861" lon="2.13031">
        <ele>3.9</ele>
        <time>2020-06-23T10:04:59Z</time>
      </trkpt>
      <trkpt lat="50.98611" lon="2.13031">
        <ele>3.8</ele>
        <time>2020-06-23T10:05:00Z</time>
      </trkpt>
      <trkpt lat="50.98616" lon="2.13031">
        <ele>3.8</ele>
        <time>2020-06-23T10:05:01Z</time>
      </trkpt>
      <trkpt lat="50.9862" lon="2.13032">
        <ele>3.8</ele>
        <time>2020-06-23T10:05:02Z</time>
      </trkpt>
      <trkpt lat="50.98624" lon="2.13033">
        <ele>3.8</ele>
        <time>2020-06-23T10:05:03Z</time>
      </trkpt>
      <trkpt lat="50.9863" lon="2.13034">
        <ele>3.9</ele>
        <time>2020-06-23T10:05:04Z</time>
      </trkpt>
      <trkpt lat="50.98635" lon="2.13035">
        <ele>3.9</ele>
        <time>2020-06-23T10:05:05Z</time>
      </trkpt>
      <trkpt lat="50.98641" lon="2.13036">
        <ele>3.9</ele>
        <time>2020-06-23T10:05:06Z</time>
      </trkpt>
      <trkpt lat="50.98647" lon="2.13037">
        <ele>3.9</ele>
        <time>2020-06-23T10:05:07Z</time>
      </trkpt>
      <trkpt lat="50.98653" lon="2.13038">
        <ele>3.9</ele>
        <time>2020-06-23T10:05:08Z</time>
      </trkpt>
      <trkpt lat="50.98658" lon="2.13038">
        <ele>3.9</ele>
        <time>2020-06-23T10:05:09Z</time>
      </trkpt>
      <trkpt lat="50.98663" lon="2.13038">
        <ele>3.9</ele>
        <time>2020-06-23T10:05:10Z</time>
      </trkpt>
      <trkpt lat="50.98668" lon="2.13038">
        <ele>4</ele>
        <time>2020-06-23T10:05:11Z</time>
      </trkpt>
      <trkpt lat="50.98673" lon="2.13039">
        <ele>4</ele>
        <time>2020-06-23T10:05:12Z</time>
      </trkpt>
      <trkpt lat="50.98679" lon="2.13039">
        <ele>4</ele>
        <time>2020-06-23T10:05:13Z</time>
      </trkpt>
      <trkpt lat="50.98683" lon="2.13038">
        <ele>4</ele>
        <time>2020-06-23T10:05:14Z</time>
      </trkpt>
      <trkpt lat="50.98688" lon="2.13038">
        <ele>4</ele>
        <time>2020-06-23T10:05:15Z</time>
      </trkpt>
      <trkpt lat="50.98693" lon="2.13038">
        <ele>4</ele>
        <time>2020-06-23T10:05:16Z</time>
      </trkpt>
      <trkpt lat="50.98697" lon="2.13037">
        <ele>4</ele>
        <time>2020-06-23T10:05:17Z</time>
      </trkpt>
      <trkpt lat="50.98702" lon="2.13036">
        <ele>3.9</ele>
        <time>2020-06-23T10:05:18Z</time>
      </trkpt>
      <trkpt lat="50.98707" lon="2.13035">
        <ele>3.9</ele>
        <time>2020-06-23T10:05:19Z</time>
      </trkpt>
      <trkpt lat="50.98712" lon="2.13034">
        <ele>3.9</ele>
        <time>2020-06-23T10:05:20Z</time>
      </trkpt>
      <trkpt lat="50.98717" lon="2.13033">
        <ele>3.8</ele>
        <time>2020-06-23T10:05:21Z</time>
      </trkpt>
      <trkpt lat="50.98721" lon="2.13032">
        <ele>3.8</ele>
        <time>2020-06-23T10:05:22Z</time>
      </trkpt>
      <trkpt lat="50.98725" lon="2.13031">
        <ele>3.8</ele>
        <time>2020-06-23T10:05:23Z</time>
      </trkpt>
      <trkpt lat="50.98731" lon="2.13029">
        <ele>3.8</ele>
        <time>2020-06-23T10:05:24Z</time>
      </trkpt>
      <trkpt lat="50.98736" lon="2.13028">
        <ele>3.9</ele>
        <time>2020-06-23T10:05:25Z</time>
      </trkpt>
      <trkpt lat="50.98742" lon="2.13026">
        <ele>3.8</ele>
        <time>2020-06-23T10:05:26Z</time>
      </trkpt>
      <trkpt lat="50.98747" lon="2.13023">
        <ele>3.8</ele>
        <time>2020-06-23T10:05:27Z</time>
      </trkpt>
      <trkpt lat="50.98751" lon="2.13022">
        <ele>3.8</ele>
        <time>2020-06-23T10:05:28Z</time>
      </trkpt>
      <trkpt lat="50.98756" lon="2.13019">
        <ele>3.8</ele>
        <time>2020-06-23T10:05:29Z</time>
      </trkpt>
      <trkpt lat="50.9876" lon="2.13017">
        <ele>3.8</ele>
        <time>2020-06-23T10:05:30Z</time>
      </trkpt>
      <trkpt lat="50.98765" lon="2.13015">
        <ele>3.8</ele>
        <time>2020-06-23T10:05:31Z</time>
      </trkpt>
      <trkpt lat="50.9877" lon="2.13013">
        <ele>3.8</ele>
        <time>2020-06-23T10:05:32Z</time>
      </trkpt>
      <trkpt lat="50.98776" lon="2.1301">
        <ele>3.8</ele>
        <time>2020-06-23T10:05:33Z</time>
      </trkpt>
      <trkpt lat="50.9878" lon="2.13008">
        <ele>3.8</ele>
        <time>2020-06-23T10:05:34Z</time>
      </trkpt>
      <trkpt lat="50.98784" lon="2.13006">
        <ele>3.9</ele>
        <time>2020-06-23T10:05:35Z</time>
      </trkpt>
      <trkpt lat="50.98789" lon="2.13004">
        <ele>3.9</ele>
        <time>2020-06-23T10:05:36Z</time>
      </trkpt>
      <trkpt lat="50.98793" lon="2.13002">
        <ele>3.9</ele>
        <time>2020-06-23T10:05:37Z</time>
      </trkpt>
      <trkpt lat="50.98798" lon="2.13">
        <ele>4</ele>
        <time>2020-06-23T10:05:38Z</time>
      </trkpt>
      <trkpt lat="50.98802" lon="2.12998">
        <ele>4.1</ele>
        <time>2020-06-23T10:05:39Z</time>
      </trkpt>
      <trkpt lat="50.98806" lon="2.12999">
        <ele>4.3</ele>
        <time>2020-06-23T10:05:40Z</time>
      </trkpt>
      <trkpt lat="50.9881" lon="2.13001">
        <ele>4.3</ele>
        <time>2020-06-23T10:05:41Z</time>
      </trkpt>
      <trkpt lat="50.98812" lon="2.13004">
        <ele>4.3</ele>
        <time>2020-06-23T10:05:42Z</time>
      </trkpt>
      <trkpt lat="50.98814" lon="2.1301">
        <ele>4.3</ele>
        <time>2020-06-23T10:05:43Z</time>
      </trkpt>
      <trkpt lat="50.98817" lon="2.13016">
        <ele>4.3</ele>
        <time>2020-06-23T10:05:44Z</time>
      </trkpt>
      <trkpt lat="50.9882" lon="2.13022">
        <ele>4.3</ele>
        <time>2020-06-23T10:05:45Z</time>
      </trkpt>
      <trkpt lat="50.98822" lon="2.13027">
        <ele>4.4</ele>
        <time>2020-06-23T10:05:46Z</time>
      </trkpt>
      <trkpt lat="50.98825" lon="2.13032">
        <ele>4.3</ele>
        <time>2020-06-23T10:05:47Z</time>
      </trkpt>
      <trkpt lat="50.98829" lon="2.13037">
        <ele>4.3</ele>
        <time>2020-06-23T10:05:48Z</time>
      </trkpt>
      <trkpt lat="50.98832" lon="2.13043">
        <ele>4.2</ele>
        <time>2020-06-23T10:05:49Z</time>
      </trkpt>
      <trkpt lat="50.98834" lon="2.13048">
        <ele>4.2</ele>
        <time>2020-06-23T10:05:50Z</time>
      </trkpt>
      <trkpt lat="50.98837" lon="2.13053">
        <ele>4.2</ele>
        <time>2020-06-23T10:05:51Z</time>
      </trkpt>
      <trkpt lat="50.9884" lon="2.13059">
        <ele>4.1</ele>
        <time>2020-06-23T10:05:52Z</time>
      </trkpt>
      <trkpt lat="50.98845" lon="2.13065">
        <ele>4.1</ele>
        <time>2020-06-23T10:05:53Z</time>
      </trkpt>
      <trkpt lat="50.98848" lon="2.13072">
        <ele>4</ele>
        <time>2020-06-23T10:05:54Z</time>
      </trkpt>
      <trkpt lat="50.98852" lon="2.13078">
        <ele>4</ele>
        <time>2020-06-23T10:05:55Z</time>
      </trkpt>
      <trkpt lat="50.98855" lon="2.13084">
        <ele>4</ele>
        <time>2020-06-23T10:05:56Z</time>
      </trkpt>
      <trkpt lat="50.98857" lon="2.1309">
        <ele>3.9</ele>
        <time>2020-06-23T10:05:57Z</time>
      </trkpt>
      <trkpt lat="50.9886" lon="2.131">
        <ele>3.9</ele>
        <time>2020-06-23T10:05:58Z</time>
      </trkpt>
      <trkpt lat="50.98862" lon="2.13109">
        <ele>3.9</ele>
        <time>2020-06-23T10:05:59Z</time>
      </trkpt>
      <trkpt lat="50.98864" lon="2.13115">
        <ele>3.8</ele>
        <time>2020-06-23T10:06:00Z</time>
      </trkpt>
      <trkpt lat="50.98866" lon="2.13122">
        <ele>3.8</ele>
        <time>2020-06-23T10:06:01Z</time>
      </trkpt>
      <trkpt lat="50.98868" lon="2.1313">
        <ele>3.8</ele>
        <time>2020-06-23T10:06:02Z</time>
      </trkpt>
      <trkpt lat="50.9887" lon="2.13137">
        <ele>3.8</ele>
        <time>2020-06-23T10:06:03Z</time>
      </trkpt>
      <trkpt lat="50.98872" lon="2.13145">
        <ele>3.8</ele>
        <time>2020-06-23T10:06:04Z</time>
      </trkpt>
      <trkpt lat="50.98874" lon="2.13152">
        <ele>3.8</ele>
        <time>2020-06-23T10:06:05Z</time>
      </trkpt>
      <trkpt lat="50.98876" lon="2.13159">
        <ele>3.8</ele>
        <time>2020-06-23T10:06:06Z</time>
      </trkpt>
      <trkpt lat="50.98878" lon="2.13166">
        <ele>3.8</ele>
        <time>2020-06-23T10:06:07Z</time>
      </trkpt>
      <trkpt lat="50.9888" lon="2.13174">
        <ele>3.8</ele>
        <time>2020-06-23T10:06:08Z</time>
      </trkpt>
      <trkpt lat="50.98882" lon="2.13183">
        <ele>3.8</ele>
        <time>2020-06-23T10:06:09Z</time>
      </trkpt>
      <trkpt lat="50.98883" lon="2.13192">
        <ele>3.9</ele>
        <time>2020-06-23T10:06:10Z</time>
      </trkpt>
      <trkpt lat="50.98885" lon="2.13201">
        <ele>3.9</ele>
        <time>2020-06-23T10:06:11Z</time>
      </trkpt>
      <trkpt lat="50.98887" lon="2.13209">
        <ele>4</ele>
        <time>2020-06-23T10:06:12Z</time>
      </trkpt>
      <trkpt lat="50.98889" lon="2.13218">
        <ele>4</ele>
        <time>2020-06-23T10:06:13Z</time>
      </trkpt>
      <trkpt lat="50.98891" lon="2.13225">
        <ele>4.1</ele>
        <time>2020-06-23T10:06:14Z</time>
      </trkpt>
      <trkpt lat="50.98893" lon="2.13232">
        <ele>4.1</ele>
        <time>2020-06-23T10:06:15Z</time>
      </trkpt>
      <trkpt lat="50.98896" lon="2.13241">
        <ele>4.2</ele>
        <time>2020-06-23T10:06:16Z</time>
      </trkpt>
      <trkpt lat="50.98898" lon="2.13249">
        <ele>4.2</ele>
        <time>2020-06-23T10:06:17Z</time>
      </trkpt>
      <trkpt lat="50.989" lon="2.13256">
        <ele>4.2</ele>
        <time>2020-06-23T10:06:18Z</time>
      </trkpt>
      <trkpt lat="50.98903" lon="2.13266">
        <ele>4.1</ele>
        <time>2020-06-23T10:06:19Z</time>
      </trkpt>
      <trkpt lat="50.98905" lon="2.13274">
        <ele>4</ele>
        <time>2020-06-23T10:06:20Z</time>
      </trkpt>
      <trkpt lat="50.98907" lon="2.13283">
        <ele>4</ele>
        <time>2020-06-23T10:06:21Z</time>
      </trkpt>
      <trkpt lat="50.9891" lon="2.13291">
        <ele>4</ele>
        <time>2020-06-23T10:06:22Z</time>
      </trkpt>
      <trkpt lat="50.98913" lon="2.133">
        <ele>3.9</ele>
        <time>2020-06-23T10:06:23Z</time>
      </trkpt>
      <trkpt lat="50.98916" lon="2.13308">
        <ele>3.9</ele>
        <time>2020-06-23T10:06:24Z</time>
      </trkpt>
      <trkpt lat="50.98919" lon="2.13316">
        <ele>3.9</ele>
        <time>2020-06-23T10:06:25Z</time>
      </trkpt>
      <trkpt lat="50.98922" lon="2.13324">
        <ele>3.8</ele>
        <time>2020-06-23T10:06:26Z</time>
      </trkpt>
      <trkpt lat="50.98925" lon="2.1333">
        <ele>3.8</ele>
        <time>2020-06-23T10:06:27Z</time>
      </trkpt>
      <trkpt lat="50.98928" lon="2.13335">
        <ele>3.8</ele>
        <time>2020-06-23T10:06:28Z</time>
      </trkpt>
      <trkpt lat="50.9893" lon="2.13341">
        <ele>3.8</ele>
        <time>2020-06-23T10:06:29Z</time>
      </trkpt>
      <trkpt lat="50.98933" lon="2.13346">
        <ele>3.7</ele>
        <time>2020-06-23T10:06:30Z</time>
      </trkpt>
      <trkpt lat="50.98936" lon="2.1335">
        <ele>3.7</ele>
        <time>2020-06-23T10:06:31Z</time>
      </trkpt>
      <trkpt lat="50.98939" lon="2.13356">
        <ele>3.7</ele>
        <time>2020-06-23T10:06:32Z</time>
      </trkpt>
      <trkpt lat="50.98941" lon="2.13362">
        <ele>3.7</ele>
        <time>2020-06-23T10:06:33Z</time>
      </trkpt>
      <trkpt lat="50.98942" lon="2.13367">
        <ele>3.6</ele>
        <time>2020-06-23T10:06:34Z</time>
      </trkpt>
      <trkpt lat="50.98944" lon="2.13373">
        <ele>3.6</ele>
        <time>2020-06-23T10:06:35Z</time>
      </trkpt>
      <trkpt lat="50.98948" lon="2.13383">
        <ele>3.7</ele>
        <time>2020-06-23T10:06:36Z</time>
      </trkpt>
      <trkpt lat="50.98952" lon="2.1339">
        <ele>3.8</ele>
        <time>2020-06-23T10:06:37Z</time>
      </trkpt>
      <trkpt lat="50.98957" lon="2.13395">
        <ele>3.7</ele>
        <time>2020-06-23T10:06:38Z</time>
      </trkpt>
      <trkpt lat="50.98961" lon="2.13399">
        <ele>3.5</ele>
        <time>2020-06-23T10:06:39Z</time>
      </trkpt>
      <trkpt lat="50.98964" lon="2.13405">
        <ele>3.4</ele>
        <time>2020-06-23T10:06:40Z</time>
      </trkpt>
      <trkpt lat="50.98967" lon="2.13411">
        <ele>3.2</ele>
        <time>2020-06-23T10:06:41Z</time>
      </trkpt>
      <trkpt lat="50.9897" lon="2.13417">
        <ele>3.1</ele>
        <time>2020-06-23T10:06:42Z</time>
      </trkpt>
      <trkpt lat="50.98974" lon="2.13423">
        <ele>2.9</ele>
        <time>2020-06-23T10:06:43Z</time>
      </trkpt>
      <trkpt lat="50.98978" lon="2.13431">
        <ele>2.9</ele>
        <time>2020-06-23T10:06:44Z</time>
      </trkpt>
      <trkpt lat="50.98982" lon="2.13439">
        <ele>2.9</ele>
        <time>2020-06-23T10:06:45Z</time>
      </trkpt>
      <trkpt lat="50.98986" lon="2.13447">
        <ele>2.9</ele>
        <time>2020-06-23T10:06:46Z</time>
      </trkpt>
      <trkpt lat="50.9899" lon="2.13453">
        <ele>2.8</ele>
        <time>2020-06-23T10:06:47Z</time>
      </trkpt>
      <trkpt lat="50.98995" lon="2.1346">
        <ele>2.8</ele>
        <time>2020-06-23T10:06:48Z</time>
      </trkpt>
      <trkpt lat="50.98998" lon="2.13466">
        <ele>2.7</ele>
        <time>2020-06-23T10:06:49Z</time>
      </trkpt>
      <trkpt lat="50.99001" lon="2.13471">
        <ele>2.6</ele>
        <time>2020-06-23T10:06:50Z</time>
      </trkpt>
      <trkpt lat="50.99005" lon="2.13477">
        <ele>2.6</ele>
        <time>2020-06-23T10:06:51Z</time>
      </trkpt>
      <trkpt lat="50.99008" lon="2.13482">
        <ele>2.5</ele>
        <time>2020-06-23T10:06:52Z</time>
      </trkpt>
      <trkpt lat="50.99011" lon="2.1349">
        <ele>2.5</ele>
        <time>2020-06-23T10:06:53Z</time>
      </trkpt>
      <trkpt lat="50.99015" lon="2.13498">
        <ele>2.4</ele>
        <time>2020-06-23T10:06:54Z</time>
      </trkpt>
      <trkpt lat="50.99019" lon="2.13506">
        <ele>2.4</ele>
        <time>2020-06-23T10:06:55Z</time>
      </trkpt>
      <trkpt lat="50.99022" lon="2.13514">
        <ele>2.3</ele>
        <time>2020-06-23T10:06:56Z</time>
      </trkpt>
      <trkpt lat="50.99027" lon="2.13522">
        <ele>2.3</ele>
        <time>2020-06-23T10:06:57Z</time>
      </trkpt>
      <trkpt lat="50.9903" lon="2.1353">
        <ele>2.3</ele>
        <time>2020-06-23T10:06:58Z</time>
      </trkpt>
      <trkpt lat="50.99035" lon="2.13537">
        <ele>2.3</ele>
        <time>2020-06-23T10:06:59Z</time>
      </trkpt>
      <trkpt lat="50.99039" lon="2.13545">
        <ele>2.3</ele>
        <time>2020-06-23T10:07:00Z</time>
      </trkpt>
      <trkpt lat="50.99043" lon="2.13553">
        <ele>2.3</ele>
        <time>2020-06-23T10:07:01Z</time>
      </trkpt>
      <trkpt lat="50.99047" lon="2.13562">
        <ele>2.3</ele>
        <time>2020-06-23T10:07:02Z</time>
      </trkpt>
      <trkpt lat="50.99052" lon="2.1357">
        <ele>2.3</ele>
        <time>2020-06-23T10:07:03Z</time>
      </trkpt>
      <trkpt lat="50.99056" lon="2.13578">
        <ele>2.2</ele>
        <time>2020-06-23T10:07:04Z</time>
      </trkpt>
      <trkpt lat="50.99059" lon="2.13584">
        <ele>2.2</ele>
        <time>2020-06-23T10:07:05Z</time>
      </trkpt>
      <trkpt lat="50.99063" lon="2.13591">
        <ele>2.2</ele>
        <time>2020-06-23T10:07:06Z</time>
      </trkpt>
      <trkpt lat="50.99067" lon="2.13599">
        <ele>2.2</ele>
        <time>2020-06-23T10:07:07Z</time>
      </trkpt>
      <trkpt lat="50.99071" lon="2.13606">
        <ele>2.2</ele>
        <time>2020-06-23T10:07:08Z</time>
      </trkpt>
      <trkpt lat="50.99075" lon="2.13613">
        <ele>2.2</ele>
        <time>2020-06-23T10:07:09Z</time>
      </trkpt>
      <trkpt lat="50.99078" lon="2.1362">
        <ele>2.2</ele>
        <time>2020-06-23T10:07:10Z</time>
      </trkpt>
      <trkpt lat="50.99082" lon="2.13626">
        <ele>2.2</ele>
        <time>2020-06-23T10:07:11Z</time>
      </trkpt>
      <trkpt lat="50.99086" lon="2.13633">
        <ele>2.2</ele>
        <time>2020-06-23T10:07:12Z</time>
      </trkpt>
      <trkpt lat="50.9909" lon="2.13641">
        <ele>2.2</ele>
        <time>2020-06-23T10:07:13Z</time>
      </trkpt>
      <trkpt lat="50.99094" lon="2.13649">
        <ele>2.2</ele>
        <time>2020-06-23T10:07:14Z</time>
      </trkpt>
      <trkpt lat="50.99097" lon="2.13656">
        <ele>2.2</ele>
        <time>2020-06-23T10:07:15Z</time>
      </trkpt>
      <trkpt lat="50.991" lon="2.13663">
        <ele>2.2</ele>
        <time>2020-06-23T10:07:16Z</time>
      </trkpt>
      <trkpt lat="50.99104" lon="2.1367">
        <ele>2.3</ele>
        <time>2020-06-23T10:07:17Z</time>
      </trkpt>
      <trkpt lat="50.99107" lon="2.13676">
        <ele>2.3</ele>
        <time>2020-06-23T10:07:18Z</time>
      </trkpt>
      <trkpt lat="50.9911" lon="2.13683">
        <ele>2.3</ele>
        <time>2020-06-23T10:07:19Z</time>
      </trkpt>
      <trkpt lat="50.99113" lon="2.13689">
        <ele>2.4</ele>
        <time>2020-06-23T10:07:20Z</time>
      </trkpt>
      <trkpt lat="50.99117" lon="2.13696">
        <ele>2.4</ele>
        <time>2020-06-23T10:07:21Z</time>
      </trkpt>
      <trkpt lat="50.99121" lon="2.13703">
        <ele>2.4</ele>
        <time>2020-06-23T10:07:22Z</time>
      </trkpt>
      <trkpt lat="50.99125" lon="2.13711">
        <ele>2.4</ele>
        <time>2020-06-23T10:07:23Z</time>
      </trkpt>
      <trkpt lat="50.99129" lon="2.13718">
        <ele>2.4</ele>
        <time>2020-06-23T10:07:24Z</time>
      </trkpt>
      <trkpt lat="50.99133" lon="2.13726">
        <ele>2.4</ele>
        <time>2020-06-23T10:07:25Z</time>
      </trkpt>
      <trkpt lat="50.99138" lon="2.13735">
        <ele>2.4</ele>
        <time>2020-06-23T10:07:26Z</time>
      </trkpt>
      <trkpt lat="50.99142" lon="2.13743">
        <ele>2.4</ele>
        <time>2020-06-23T10:07:27Z</time>
      </trkpt>
      <trkpt lat="50.99146" lon="2.13749">
        <ele>2.5</ele>
        <time>2020-06-23T10:07:28Z</time>
      </trkpt>
      <trkpt lat="50.9915" lon="2.13756">
        <ele>2.5</ele>
        <time>2020-06-23T10:07:29Z</time>
      </trkpt>
      <trkpt lat="50.99154" lon="2.13763">
        <ele>2.6</ele>
        <time>2020-06-23T10:07:30Z</time>
      </trkpt>
      <trkpt lat="50.99158" lon="2.1377">
        <ele>2.6</ele>
        <time>2020-06-23T10:07:31Z</time>
      </trkpt>
      <trkpt lat="50.99162" lon="2.13777">
        <ele>2.6</ele>
        <time>2020-06-23T10:07:32Z</time>
      </trkpt>
      <trkpt lat="50.99166" lon="2.13784">
        <ele>2.6</ele>
        <time>2020-06-23T10:07:33Z</time>
      </trkpt>
      <trkpt lat="50.9917" lon="2.13791">
        <ele>2.6</ele>
        <time>2020-06-23T10:07:34Z</time>
      </trkpt>
      <trkpt lat="50.99174" lon="2.13799">
        <ele>2.6</ele>
        <time>2020-06-23T10:07:35Z</time>
      </trkpt>
      <trkpt lat="50.99178" lon="2.13806">
        <ele>2.7</ele>
        <time>2020-06-23T10:07:36Z</time>
      </trkpt>
      <trkpt lat="50.99181" lon="2.13812">
        <ele>2.7</ele>
        <time>2020-06-23T10:07:37Z</time>
      </trkpt>
      <trkpt lat="50.99185" lon="2.1382">
        <ele>2.7</ele>
        <time>2020-06-23T10:07:38Z</time>
      </trkpt>
      <trkpt lat="50.9919" lon="2.13828">
        <ele>2.7</ele>
        <time>2020-06-23T10:07:39Z</time>
      </trkpt>
      <trkpt lat="50.99194" lon="2.13834">
        <ele>2.7</ele>
        <time>2020-06-23T10:07:40Z</time>
      </trkpt>
      <trkpt lat="50.99197" lon="2.13839">
        <ele>2.8</ele>
        <time>2020-06-23T10:07:41Z</time>
      </trkpt>
      <trkpt lat="50.992" lon="2.13844">
        <ele>2.8</ele>
        <time>2020-06-23T10:07:42Z</time>
      </trkpt>
      <trkpt lat="50.99203" lon="2.13848">
        <ele>2.8</ele>
        <time>2020-06-23T10:07:43Z</time>
      </trkpt>
      <trkpt lat="50.99205" lon="2.13852">
        <ele>2.9</ele>
        <time>2020-06-23T10:07:44Z</time>
      </trkpt>
      <trkpt lat="50.99206" lon="2.13856">
        <ele>2.9</ele>
        <time>2020-06-23T10:07:45Z</time>
      </trkpt>
      <trkpt lat="50.99208" lon="2.1386">
        <ele>2.9</ele>
        <time>2020-06-23T10:07:46Z</time>
      </trkpt>
      <trkpt lat="50.99208" lon="2.13862">
        <ele>2.9</ele>
        <time>2020-06-23T10:07:47Z</time>
      </trkpt>
      <trkpt lat="50.99209" lon="2.13864">
        <ele>2.9</ele>
        <time>2020-06-23T10:07:48Z</time>
      </trkpt>
      <trkpt lat="50.99211" lon="2.13866">
        <ele>2.9</ele>
        <time>2020-06-23T10:07:49Z</time>
      </trkpt>
      <trkpt lat="50.99213" lon="2.13872">
        <ele>2.9</ele>
        <time>2020-06-23T10:07:50Z</time>
      </trkpt>
      <trkpt lat="50.99216" lon="2.13878">
        <ele>2.9</ele>
        <time>2020-06-23T10:07:51Z</time>
      </trkpt>
      <trkpt lat="50.99218" lon="2.13882">
        <ele>2.9</ele>
        <time>2020-06-23T10:07:52Z</time>
      </trkpt>
      <trkpt lat="50.99221" lon="2.13885">
        <ele>2.9</ele>
        <time>2020-06-23T10:07:53Z</time>
      </trkpt>
      <trkpt lat="50.99223" lon="2.1389">
        <ele>2.9</ele>
        <time>2020-06-23T10:07:54Z</time>
      </trkpt>
      <trkpt lat="50.99227" lon="2.13896">
        <ele>2.9</ele>
        <time>2020-06-23T10:07:55Z</time>
      </trkpt>
      <trkpt lat="50.99229" lon="2.13902">
        <ele>2.9</ele>
        <time>2020-06-23T10:07:56Z</time>
      </trkpt>
      <trkpt lat="50.99232" lon="2.13907">
        <ele>2.9</ele>
        <time>2020-06-23T10:07:57Z</time>
      </trkpt>
      <trkpt lat="50.99235" lon="2.13912">
        <ele>2.8</ele>
        <time>2020-06-23T10:07:58Z</time>
      </trkpt>
      <trkpt lat="50.99239" lon="2.13919">
        <ele>2.8</ele>
        <time>2020-06-23T10:07:59Z</time>
      </trkpt>
      <trkpt lat="50.99243" lon="2.13924">
        <ele>2.8</ele>
        <time>2020-06-23T10:08:00Z</time>
      </trkpt>
      <trkpt lat="50.99246" lon="2.1393">
        <ele>2.8</ele>
        <time>2020-06-23T10:08:01Z</time>
      </trkpt>
      <trkpt lat="50.99249" lon="2.13936">
        <ele>2.8</ele>
        <time>2020-06-23T10:08:02Z</time>
      </trkpt>
      <trkpt lat="50.99253" lon="2.13941">
        <ele>2.8</ele>
        <time>2020-06-23T10:08:03Z</time>
      </trkpt>
      <trkpt lat="50.99256" lon="2.13946">
        <ele>2.7</ele>
        <time>2020-06-23T10:08:04Z</time>
      </trkpt>
      <trkpt lat="50.9926" lon="2.13955">
        <ele>2.7</ele>
        <time>2020-06-23T10:08:05Z</time>
      </trkpt>
      <trkpt lat="50.99263" lon="2.13961">
        <ele>2.7</ele>
        <time>2020-06-23T10:08:06Z</time>
      </trkpt>
      <trkpt lat="50.99267" lon="2.13966">
        <ele>2.7</ele>
        <time>2020-06-23T10:08:07Z</time>
      </trkpt>
      <trkpt lat="50.99271" lon="2.13972">
        <ele>2.6</ele>
        <time>2020-06-23T10:08:08Z</time>
      </trkpt>
      <trkpt lat="50.99275" lon="2.13976">
        <ele>2.6</ele>
        <time>2020-06-23T10:08:09Z</time>
      </trkpt>
      <trkpt lat="50.99279" lon="2.13981">
        <ele>2.6</ele>
        <time>2020-06-23T10:08:10Z</time>
      </trkpt>
      <trkpt lat="50.99283" lon="2.13985">
        <ele>2.6</ele>
        <time>2020-06-23T10:08:11Z</time>
      </trkpt>
      <trkpt lat="50.99287" lon="2.1399">
        <ele>2.6</ele>
        <time>2020-06-23T10:08:12Z</time>
      </trkpt>
      <trkpt lat="50.99291" lon="2.13995">
        <ele>2.7</ele>
        <time>2020-06-23T10:08:13Z</time>
      </trkpt>
      <trkpt lat="50.99295" lon="2.13999">
        <ele>2.7</ele>
        <time>2020-06-23T10:08:14Z</time>
      </trkpt>
      <trkpt lat="50.99299" lon="2.14006">
        <ele>2.7</ele>
        <time>2020-06-23T10:08:15Z</time>
      </trkpt>
      <trkpt lat="50.99304" lon="2.14012">
        <ele>2.7</ele>
        <time>2020-06-23T10:08:16Z</time>
      </trkpt>
      <trkpt lat="50.99309" lon="2.14019">
        <ele>2.7</ele>
        <time>2020-06-23T10:08:17Z</time>
      </trkpt>
      <trkpt lat="50.99313" lon="2.14022">
        <ele>2.7</ele>
        <time>2020-06-23T10:08:18Z</time>
      </trkpt>
      <trkpt lat="50.99316" lon="2.14027">
        <ele>2.7</ele>
        <time>2020-06-23T10:08:19Z</time>
      </trkpt>
      <trkpt lat="50.9932" lon="2.14032">
        <ele>2.7</ele>
        <time>2020-06-23T10:08:20Z</time>
      </trkpt>
      <trkpt lat="50.99324" lon="2.14037">
        <ele>2.7</ele>
        <time>2020-06-23T10:08:21Z</time>
      </trkpt>
      <trkpt lat="50.99328" lon="2.14043">
        <ele>2.7</ele>
        <time>2020-06-23T10:08:22Z</time>
      </trkpt>
      <trkpt lat="50.99333" lon="2.14049">
        <ele>2.8</ele>
        <time>2020-06-23T10:08:23Z</time>
      </trkpt>
      <trkpt lat="50.99337" lon="2.14053">
        <ele>2.8</ele>
        <time>2020-06-23T10:08:24Z</time>
      </trkpt>
      <trkpt lat="50.99342" lon="2.1406">
        <ele>2.8</ele>
        <time>2020-06-23T10:08:25Z</time>
      </trkpt>
      <trkpt lat="50.99345" lon="2.14065">
        <ele>2.8</ele>
        <time>2020-06-23T10:08:26Z</time>
      </trkpt>
      <trkpt lat="50.99348" lon="2.14071">
        <ele>2.8</ele>
        <time>2020-06-23T10:08:27Z</time>
      </trkpt>
      <trkpt lat="50.99349" lon="2.14073">
        <ele>2.8</ele>
        <time>2020-06-23T10:08:28Z</time>
      </trkpt>
      <trkpt lat="50.99354" lon="2.14079">
        <ele>2.8</ele>
        <time>2020-06-23T10:08:29Z</time>
      </trkpt>
      <trkpt lat="50.99357" lon="2.14084">
        <ele>2.8</ele>
        <time>2020-06-23T10:08:30Z</time>
      </trkpt>
      <trkpt lat="50.99362" lon="2.14088">
        <ele>2.8</ele>
        <time>2020-06-23T10:08:31Z</time>
      </trkpt>
      <trkpt lat="50.99367" lon="2.14094">
        <ele>2.8</ele>
        <time>2020-06-23T10:08:32Z</time>
      </trkpt>
      <trkpt lat="50.99371" lon="2.14101">
        <ele>2.8</ele>
        <time>2020-06-23T10:08:33Z</time>
      </trkpt>
      <trkpt lat="50.99376" lon="2.14108">
        <ele>2.7</ele>
        <time>2020-06-23T10:08:34Z</time>
      </trkpt>
      <trkpt lat="50.9938" lon="2.14114">
        <ele>2.7</ele>
        <time>2020-06-23T10:08:35Z</time>
      </trkpt>
      <trkpt lat="50.99384" lon="2.14119">
        <ele>2.7</ele>
        <time>2020-06-23T10:08:36Z</time>
      </trkpt>
      <trkpt lat="50.99387" lon="2.14124">
        <ele>2.6</ele>
        <time>2020-06-23T10:08:37Z</time>
      </trkpt>
      <trkpt lat="50.9939" lon="2.14131">
        <ele>2.6</ele>
        <time>2020-06-23T10:08:38Z</time>
      </trkpt>
      <trkpt lat="50.99393" lon="2.14136">
        <ele>2.6</ele>
        <time>2020-06-23T10:08:39Z</time>
      </trkpt>
      <trkpt lat="50.99397" lon="2.1414">
        <ele>2.6</ele>
        <time>2020-06-23T10:08:40Z</time>
      </trkpt>
      <trkpt lat="50.99399" lon="2.14144">
        <ele>2.5</ele>
        <time>2020-06-23T10:08:41Z</time>
      </trkpt>
      <trkpt lat="50.99403" lon="2.14148">
        <ele>2.5</ele>
        <time>2020-06-23T10:08:42Z</time>
      </trkpt>
      <trkpt lat="50.99406" lon="2.14154">
        <ele>2.5</ele>
        <time>2020-06-23T10:08:43Z</time>
      </trkpt>
      <trkpt lat="50.9941" lon="2.14159">
        <ele>2.5</ele>
        <time>2020-06-23T10:08:44Z</time>
      </trkpt>
      <trkpt lat="50.99413" lon="2.14163">
        <ele>2.5</ele>
        <time>2020-06-23T10:08:45Z</time>
      </trkpt>
      <trkpt lat="50.99417" lon="2.14167">
        <ele>2.5</ele>
        <time>2020-06-23T10:08:46Z</time>
      </trkpt>
      <trkpt lat="50.99421" lon="2.14174">
        <ele>2.4</ele>
        <time>2020-06-23T10:08:47Z</time>
      </trkpt>
      <trkpt lat="50.99426" lon="2.14183">
        <ele>2.4</ele>
        <time>2020-06-23T10:08:48Z</time>
      </trkpt>
      <trkpt lat="50.9943" lon="2.1419">
        <ele>2.5</ele>
        <time>2020-06-23T10:08:49Z</time>
      </trkpt>
      <trkpt lat="50.99434" lon="2.14197">
        <ele>2.4</ele>
        <time>2020-06-23T10:08:50Z</time>
      </trkpt>
      <trkpt lat="50.99438" lon="2.14204">
        <ele>2.4</ele>
        <time>2020-06-23T10:08:51Z</time>
      </trkpt>
      <trkpt lat="50.9944" lon="2.1421">
        <ele>2.4</ele>
        <time>2020-06-23T10:08:52Z</time>
      </trkpt>
      <trkpt lat="50.99444" lon="2.14219">
        <ele>2.4</ele>
        <time>2020-06-23T10:08:53Z</time>
      </trkpt>
      <trkpt lat="50.99447" lon="2.14224">
        <ele>2.4</ele>
        <time>2020-06-23T10:08:54Z</time>
      </trkpt>
      <trkpt lat="50.99451" lon="2.1423">
        <ele>2.4</ele>
        <time>2020-06-23T10:08:55Z</time>
      </trkpt>
      <trkpt lat="50.99453" lon="2.14236">
        <ele>2.4</ele>
        <time>2020-06-23T10:08:56Z</time>
      </trkpt>
      <trkpt lat="50.99457" lon="2.14243">
        <ele>2.4</ele>
        <time>2020-06-23T10:08:57Z</time>
      </trkpt>
      <trkpt lat="50.99459" lon="2.14249">
        <ele>2.4</ele>
        <time>2020-06-23T10:08:58Z</time>
      </trkpt>
      <trkpt lat="50.99462" lon="2.14254">
        <ele>2.4</ele>
        <time>2020-06-23T10:08:59Z</time>
      </trkpt>
      <trkpt lat="50.99466" lon="2.14261">
        <ele>2.3</ele>
        <time>2020-06-23T10:09:00Z</time>
      </trkpt>
      <trkpt lat="50.99469" lon="2.14267">
        <ele>2.3</ele>
        <time>2020-06-23T10:09:01Z</time>
      </trkpt>
      <trkpt lat="50.99473" lon="2.14274">
        <ele>2.3</ele>
        <time>2020-06-23T10:09:02Z</time>
      </trkpt>
      <trkpt lat="50.99476" lon="2.1428">
        <ele>2.3</ele>
        <time>2020-06-23T10:09:03Z</time>
      </trkpt>
      <trkpt lat="50.9948" lon="2.14286">
        <ele>2.3</ele>
        <time>2020-06-23T10:09:04Z</time>
      </trkpt>
      <trkpt lat="50.99485" lon="2.14293">
        <ele>2.3</ele>
        <time>2020-06-23T10:09:05Z</time>
      </trkpt>
      <trkpt lat="50.99488" lon="2.143">
        <ele>2.3</ele>
        <time>2020-06-23T10:09:06Z</time>
      </trkpt>
      <trkpt lat="50.99492" lon="2.14307">
        <ele>2.4</ele>
        <time>2020-06-23T10:09:07Z</time>
      </trkpt>
      <trkpt lat="50.99495" lon="2.14313">
        <ele>2.4</ele>
        <time>2020-06-23T10:09:08Z</time>
      </trkpt>
      <trkpt lat="50.99498" lon="2.14319">
        <ele>2.4</ele>
        <time>2020-06-23T10:09:09Z</time>
      </trkpt>
      <trkpt lat="50.99501" lon="2.14325">
        <ele>2.4</ele>
        <time>2020-06-23T10:09:10Z</time>
      </trkpt>
      <trkpt lat="50.99505" lon="2.14332">
        <ele>2.5</ele>
        <time>2020-06-23T10:09:11Z</time>
      </trkpt>
      <trkpt lat="50.99508" lon="2.14339">
        <ele>2.5</ele>
        <time>2020-06-23T10:09:12Z</time>
      </trkpt>
      <trkpt lat="50.99512" lon="2.14346">
        <ele>2.5</ele>
        <time>2020-06-23T10:09:13Z</time>
      </trkpt>
      <trkpt lat="50.99517" lon="2.14354">
        <ele>2.6</ele>
        <time>2020-06-23T10:09:14Z</time>
      </trkpt>
      <trkpt lat="50.99519" lon="2.14359">
        <ele>2.6</ele>
        <time>2020-06-23T10:09:15Z</time>
      </trkpt>
      <trkpt lat="50.99522" lon="2.14364">
        <ele>2.6</ele>
        <time>2020-06-23T10:09:16Z</time>
      </trkpt>
      <trkpt lat="50.99526" lon="2.14371">
        <ele>2.6</ele>
        <time>2020-06-23T10:09:17Z</time>
      </trkpt>
      <trkpt lat="50.9953" lon="2.14378">
        <ele>2.6</ele>
        <time>2020-06-23T10:09:18Z</time>
      </trkpt>
      <trkpt lat="50.99533" lon="2.14386">
        <ele>2.6</ele>
        <time>2020-06-23T10:09:19Z</time>
      </trkpt>
      <trkpt lat="50.99538" lon="2.14394">
        <ele>2.6</ele>
        <time>2020-06-23T10:09:20Z</time>
      </trkpt>
      <trkpt lat="50.99543" lon="2.14402">
        <ele>2.6</ele>
        <time>2020-06-23T10:09:21Z</time>
      </trkpt>
      <trkpt lat="50.99547" lon="2.14409">
        <ele>2.6</ele>
        <time>2020-06-23T10:09:22Z</time>
      </trkpt>
      <trkpt lat="50.99551" lon="2.14417">
        <ele>2.6</ele>
        <time>2020-06-23T10:09:23Z</time>
      </trkpt>
      <trkpt lat="50.99555" lon="2.14423">
        <ele>2.6</ele>
        <time>2020-06-23T10:09:24Z</time>
      </trkpt>
      <trkpt lat="50.99558" lon="2.1443">
        <ele>2.5</ele>
        <time>2020-06-23T10:09:25Z</time>
      </trkpt>
      <trkpt lat="50.99563" lon="2.14437">
        <ele>2.5</ele>
        <time>2020-06-23T10:09:26Z</time>
      </trkpt>
      <trkpt lat="50.99566" lon="2.14444">
        <ele>2.5</ele>
        <time>2020-06-23T10:09:27Z</time>
      </trkpt>
      <trkpt lat="50.9957" lon="2.1445">
        <ele>2.5</ele>
        <time>2020-06-23T10:09:28Z</time>
      </trkpt>
      <trkpt lat="50.99574" lon="2.14456">
        <ele>2.5</ele>
        <time>2020-06-23T10:09:29Z</time>
      </trkpt>
      <trkpt lat="50.99578" lon="2.14463">
        <ele>2.4</ele>
        <time>2020-06-23T10:09:30Z</time>
      </trkpt>
      <trkpt lat="50.99582" lon="2.1447">
        <ele>2.4</ele>
        <time>2020-06-23T10:09:31Z</time>
      </trkpt>
      <trkpt lat="50.99586" lon="2.14477">
        <ele>2.4</ele>
        <time>2020-06-23T10:09:32Z</time>
      </trkpt>
      <trkpt lat="50.9959" lon="2.14483">
        <ele>2.4</ele>
        <time>2020-06-23T10:09:33Z</time>
      </trkpt>
      <trkpt lat="50.99593" lon="2.14491">
        <ele>2.3</ele>
        <time>2020-06-23T10:09:34Z</time>
      </trkpt>
      <trkpt lat="50.99596" lon="2.14497">
        <ele>2.3</ele>
        <time>2020-06-23T10:09:35Z</time>
      </trkpt>
      <trkpt lat="50.996" lon="2.14503">
        <ele>2.3</ele>
        <time>2020-06-23T10:09:36Z</time>
      </trkpt>
      <trkpt lat="50.99603" lon="2.14509">
        <ele>2.3</ele>
        <time>2020-06-23T10:09:37Z</time>
      </trkpt>
      <trkpt lat="50.99606" lon="2.14515">
        <ele>2.3</ele>
        <time>2020-06-23T10:09:38Z</time>
      </trkpt>
      <trkpt lat="50.99609" lon="2.14522">
        <ele>2.3</ele>
        <time>2020-06-23T10:09:39Z</time>
      </trkpt>
      <trkpt lat="50.99611" lon="2.14529">
        <ele>2.3</ele>
        <time>2020-06-23T10:09:40Z</time>
      </trkpt>
      <trkpt lat="50.99613" lon="2.14536">
        <ele>2.3</ele>
        <time>2020-06-23T10:09:41Z</time>
      </trkpt>
      <trkpt lat="50.99615" lon="2.14543">
        <ele>2.2</ele>
        <time>2020-06-23T10:09:42Z</time>
      </trkpt>
      <trkpt lat="50.99617" lon="2.14551">
        <ele>2.2</ele>
        <time>2020-06-23T10:09:43Z</time>
      </trkpt>
      <trkpt lat="50.99617" lon="2.14557">
        <ele>2.1</ele>
        <time>2020-06-23T10:09:44Z</time>
      </trkpt>
      <trkpt lat="50.99618" lon="2.14562">
        <ele>2.1</ele>
        <time>2020-06-23T10:09:45Z</time>
      </trkpt>
      <trkpt lat="50.99618" lon="2.14565">
        <ele>2.1</ele>
        <time>2020-06-23T10:09:46Z</time>
      </trkpt>
      <trkpt lat="50.99618" lon="2.14566">
        <ele>2.1</ele>
        <time>2020-06-23T10:09:47Z</time>
      </trkpt>
      <trkpt lat="50.99617" lon="2.1457">
        <ele>2.1</ele>
        <time>2020-06-23T10:09:48Z</time>
      </trkpt>
      <trkpt lat="50.99617" lon="2.14573">
        <ele>2.1</ele>
        <time>2020-06-23T10:09:49Z</time>
      </trkpt>
      <trkpt lat="50.99617" lon="2.14579">
        <ele>2.1</ele>
        <time>2020-06-23T10:09:50Z</time>
      </trkpt>
      <trkpt lat="50.99616" lon="2.14585">
        <ele>2.1</ele>
        <time>2020-06-23T10:09:51Z</time>
      </trkpt>
      <trkpt lat="50.99617" lon="2.14589">
        <ele>2</ele>
        <time>2020-06-23T10:09:52Z</time>
      </trkpt>
      <trkpt lat="50.99618" lon="2.14595">
        <ele>2</ele>
        <time>2020-06-23T10:09:53Z</time>
      </trkpt>
      <trkpt lat="50.99619" lon="2.14602">
        <ele>2</ele>
        <time>2020-06-23T10:09:54Z</time>
      </trkpt>
      <trkpt lat="50.99619" lon="2.1461">
        <ele>1.9</ele>
        <time>2020-06-23T10:09:55Z</time>
      </trkpt>
      <trkpt lat="50.99619" lon="2.14619">
        <ele>1.9</ele>
        <time>2020-06-23T10:09:56Z</time>
      </trkpt>
      <trkpt lat="50.99619" lon="2.14627">
        <ele>1.9</ele>
        <time>2020-06-23T10:09:57Z</time>
      </trkpt>
      <trkpt lat="50.99619" lon="2.14637">
        <ele>1.9</ele>
        <time>2020-06-23T10:09:58Z</time>
      </trkpt>
      <trkpt lat="50.99619" lon="2.14647">
        <ele>1.9</ele>
        <time>2020-06-23T10:09:59Z</time>
      </trkpt>
      <trkpt lat="50.99619" lon="2.14656">
        <ele>1.8</ele>
        <time>2020-06-23T10:10:00Z</time>
      </trkpt>
      <trkpt lat="50.99618" lon="2.14665">
        <ele>1.8</ele>
        <time>2020-06-23T10:10:01Z</time>
      </trkpt>
      <trkpt lat="50.99618" lon="2.14673">
        <ele>1.8</ele>
        <time>2020-06-23T10:10:02Z</time>
      </trkpt>
      <trkpt lat="50.99618" lon="2.14682">
        <ele>1.8</ele>
        <time>2020-06-23T10:10:03Z</time>
      </trkpt>
      <trkpt lat="50.99618" lon="2.14688">
        <ele>1.8</ele>
        <time>2020-06-23T10:10:04Z</time>
      </trkpt>
      <trkpt lat="50.99617" lon="2.14696">
        <ele>1.8</ele>
        <time>2020-06-23T10:10:05Z</time>
      </trkpt>
      <trkpt lat="50.99618" lon="2.14705">
        <ele>1.8</ele>
        <time>2020-06-23T10:10:06Z</time>
      </trkpt>
      <trkpt lat="50.99618" lon="2.14712">
        <ele>1.9</ele>
        <time>2020-06-23T10:10:07Z</time>
      </trkpt>
      <trkpt lat="50.99617" lon="2.14718">
        <ele>1.9</ele>
        <time>2020-06-23T10:10:08Z</time>
      </trkpt>
      <trkpt lat="50.99617" lon="2.14724">
        <ele>2</ele>
        <time>2020-06-23T10:10:09Z</time>
      </trkpt>
      <trkpt lat="50.99617" lon="2.14726">
        <ele>2</ele>
        <time>2020-06-23T10:10:10Z</time>
      </trkpt>
      <trkpt lat="50.99616" lon="2.14729">
        <ele>2</ele>
        <time>2020-06-23T10:10:11Z</time>
      </trkpt>
      <trkpt lat="50.99614" lon="2.14731">
        <ele>2.1</ele>
        <time>2020-06-23T10:10:12Z</time>
      </trkpt>
      <trkpt lat="50.99613" lon="2.14733">
        <ele>2.1</ele>
        <time>2020-06-23T10:10:13Z</time>
      </trkpt>
      <trkpt lat="50.99613" lon="2.14734">
        <ele>2.1</ele>
        <time>2020-06-23T10:10:14Z</time>
      </trkpt>
      <trkpt lat="50.99613" lon="2.14735">
        <ele>2.1</ele>
        <time>2020-06-23T10:10:15Z</time>
      </trkpt>
      <trkpt lat="50.99612" lon="2.14737">
        <ele>2.1</ele>
        <time>2020-06-23T10:10:16Z</time>
      </trkpt>
      <trkpt lat="50.99612" lon="2.14742">
        <ele>2.2</ele>
        <time>2020-06-23T10:10:17Z</time>
      </trkpt>
      <trkpt lat="50.99612" lon="2.14747">
        <ele>2.3</ele>
        <time>2020-06-23T10:10:18Z</time>
      </trkpt>
      <trkpt lat="50.99611" lon="2.14753">
        <ele>2.2</ele>
        <time>2020-06-23T10:10:19Z</time>
      </trkpt>
      <trkpt lat="50.99611" lon="2.14759">
        <ele>2.1</ele>
        <time>2020-06-23T10:10:20Z</time>
      </trkpt>
      <trkpt lat="50.9961" lon="2.14763">
        <ele>2.1</ele>
        <time>2020-06-23T10:10:21Z</time>
      </trkpt>
      <trkpt lat="50.99609" lon="2.14769">
        <ele>2.1</ele>
        <time>2020-06-23T10:10:22Z</time>
      </trkpt>
      <trkpt lat="50.99609" lon="2.14771">
        <ele>2</ele>
        <time>2020-06-23T10:10:23Z</time>
      </trkpt>
      <trkpt lat="50.9961" lon="2.14777">
        <ele>2</ele>
        <time>2020-06-23T10:10:24Z</time>
      </trkpt>
      <trkpt lat="50.9961" lon="2.14783">
        <ele>2</ele>
        <time>2020-06-23T10:10:25Z</time>
      </trkpt>
      <trkpt lat="50.99611" lon="2.14792">
        <ele>1.9</ele>
        <time>2020-06-23T10:10:26Z</time>
      </trkpt>
      <trkpt lat="50.99611" lon="2.14801">
        <ele>1.9</ele>
        <time>2020-06-23T10:10:27Z</time>
      </trkpt>
      <trkpt lat="50.99612" lon="2.1481">
        <ele>1.8</ele>
        <time>2020-06-23T10:10:28Z</time>
      </trkpt>
      <trkpt lat="50.99612" lon="2.14819">
        <ele>1.8</ele>
        <time>2020-06-23T10:10:29Z</time>
      </trkpt>
      <trkpt lat="50.99612" lon="2.14828">
        <ele>1.8</ele>
        <time>2020-06-23T10:10:30Z</time>
      </trkpt>
      <trkpt lat="50.99613" lon="2.14837">
        <ele>1.8</ele>
        <time>2020-06-23T10:10:31Z</time>
      </trkpt>
      <trkpt lat="50.99612" lon="2.14846">
        <ele>1.8</ele>
        <time>2020-06-23T10:10:32Z</time>
      </trkpt>
      <trkpt lat="50.99612" lon="2.14855">
        <ele>1.8</ele>
        <time>2020-06-23T10:10:33Z</time>
      </trkpt>
      <trkpt lat="50.99612" lon="2.14864">
        <ele>1.8</ele>
        <time>2020-06-23T10:10:34Z</time>
      </trkpt>
      <trkpt lat="50.99613" lon="2.14874">
        <ele>1.8</ele>
        <time>2020-06-23T10:10:35Z</time>
      </trkpt>
      <trkpt lat="50.99613" lon="2.14884">
        <ele>1.8</ele>
        <time>2020-06-23T10:10:36Z</time>
      </trkpt>
      <trkpt lat="50.99613" lon="2.14894">
        <ele>1.9</ele>
        <time>2020-06-23T10:10:37Z</time>
      </trkpt>
      <trkpt lat="50.99612" lon="2.14903">
        <ele>1.9</ele>
        <time>2020-06-23T10:10:38Z</time>
      </trkpt>
      <trkpt lat="50.99612" lon="2.14913">
        <ele>1.9</ele>
        <time>2020-06-23T10:10:39Z</time>
      </trkpt>
      <trkpt lat="50.99612" lon="2.1492">
        <ele>1.9</ele>
        <time>2020-06-23T10:10:40Z</time>
      </trkpt>
      <trkpt lat="50.99611" lon="2.14929">
        <ele>1.9</ele>
        <time>2020-06-23T10:10:41Z</time>
      </trkpt>
      <trkpt lat="50.99611" lon="2.14938">
        <ele>1.9</ele>
        <time>2020-06-23T10:10:42Z</time>
      </trkpt>
      <trkpt lat="50.99612" lon="2.14948">
        <ele>2</ele>
        <time>2020-06-23T10:10:43Z</time>
      </trkpt>
      <trkpt lat="50.99612" lon="2.14956">
        <ele>2</ele>
        <time>2020-06-23T10:10:44Z</time>
      </trkpt>
      <trkpt lat="50.99613" lon="2.14965">
        <ele>2</ele>
        <time>2020-06-23T10:10:45Z</time>
      </trkpt>
      <trkpt lat="50.99613" lon="2.14974">
        <ele>2.1</ele>
        <time>2020-06-23T10:10:46Z</time>
      </trkpt>
      <trkpt lat="50.99613" lon="2.14983">
        <ele>2.1</ele>
        <time>2020-06-23T10:10:47Z</time>
      </trkpt>
      <trkpt lat="50.99614" lon="2.14994">
        <ele>2.2</ele>
        <time>2020-06-23T10:10:48Z</time>
      </trkpt>
      <trkpt lat="50.99614" lon="2.15002">
        <ele>2.1</ele>
        <time>2020-06-23T10:10:49Z</time>
      </trkpt>
      <trkpt lat="50.99614" lon="2.15011">
        <ele>1.9</ele>
        <time>2020-06-23T10:10:50Z</time>
      </trkpt>
      <trkpt lat="50.99614" lon="2.1502">
        <ele>1.9</ele>
        <time>2020-06-23T10:10:51Z</time>
      </trkpt>
      <trkpt lat="50.99614" lon="2.15028">
        <ele>1.8</ele>
        <time>2020-06-23T10:10:52Z</time>
      </trkpt>
      <trkpt lat="50.99613" lon="2.15036">
        <ele>1.7</ele>
        <time>2020-06-23T10:10:53Z</time>
      </trkpt>
      <trkpt lat="50.99612" lon="2.15045">
        <ele>1.7</ele>
        <time>2020-06-23T10:10:54Z</time>
      </trkpt>
      <trkpt lat="50.99612" lon="2.15057">
        <ele>1.7</ele>
        <time>2020-06-23T10:10:55Z</time>
      </trkpt>
      <trkpt lat="50.99612" lon="2.15067">
        <ele>1.6</ele>
        <time>2020-06-23T10:10:56Z</time>
      </trkpt>
      <trkpt lat="50.99612" lon="2.15078">
        <ele>1.6</ele>
        <time>2020-06-23T10:10:57Z</time>
      </trkpt>
      <trkpt lat="50.99613" lon="2.15089">
        <ele>1.6</ele>
        <time>2020-06-23T10:10:58Z</time>
      </trkpt>
      <trkpt lat="50.99613" lon="2.15099">
        <ele>1.6</ele>
        <time>2020-06-23T10:10:59Z</time>
      </trkpt>
      <trkpt lat="50.99612" lon="2.15108">
        <ele>1.6</ele>
        <time>2020-06-23T10:11:00Z</time>
      </trkpt>
      <trkpt lat="50.99612" lon="2.15117">
        <ele>1.7</ele>
        <time>2020-06-23T10:11:01Z</time>
      </trkpt>
      <trkpt lat="50.99612" lon="2.15126">
        <ele>1.7</ele>
        <time>2020-06-23T10:11:02Z</time>
      </trkpt>
      <trkpt lat="50.99612" lon="2.15135">
        <ele>1.7</ele>
        <time>2020-06-23T10:11:03Z</time>
      </trkpt>
      <trkpt lat="50.99612" lon="2.15144">
        <ele>1.8</ele>
        <time>2020-06-23T10:11:04Z</time>
      </trkpt>
      <trkpt lat="50.99612" lon="2.15153">
        <ele>1.8</ele>
        <time>2020-06-23T10:11:05Z</time>
      </trkpt>
      <trkpt lat="50.99612" lon="2.15162">
        <ele>1.9</ele>
        <time>2020-06-23T10:11:06Z</time>
      </trkpt>
      <trkpt lat="50.99612" lon="2.15171">
        <ele>2</ele>
        <time>2020-06-23T10:11:07Z</time>
      </trkpt>
      <trkpt lat="50.99612" lon="2.1518">
        <ele>2.2</ele>
        <time>2020-06-23T10:11:08Z</time>
      </trkpt>
      <trkpt lat="50.99611" lon="2.15186">
        <ele>2.3</ele>
        <time>2020-06-23T10:11:09Z</time>
      </trkpt>
      <trkpt lat="50.99611" lon="2.15193">
        <ele>2.5</ele>
        <time>2020-06-23T10:11:10Z</time>
      </trkpt>
      <trkpt lat="50.99611" lon="2.152">
        <ele>2.5</ele>
        <time>2020-06-23T10:11:11Z</time>
      </trkpt>
      <trkpt lat="50.9961" lon="2.15206">
        <ele>2.5</ele>
        <time>2020-06-23T10:11:12Z</time>
      </trkpt>
      <trkpt lat="50.9961" lon="2.15211">
        <ele>2.4</ele>
        <time>2020-06-23T10:11:13Z</time>
      </trkpt>
      <trkpt lat="50.9961" lon="2.15219">
        <ele>2.4</ele>
        <time>2020-06-23T10:11:14Z</time>
      </trkpt>
      <trkpt lat="50.9961" lon="2.15225">
        <ele>2.4</ele>
        <time>2020-06-23T10:11:15Z</time>
      </trkpt>
      <trkpt lat="50.99609" lon="2.15232">
        <ele>2.4</ele>
        <time>2020-06-23T10:11:16Z</time>
      </trkpt>
      <trkpt lat="50.99609" lon="2.1524">
        <ele>2.4</ele>
        <time>2020-06-23T10:11:17Z</time>
      </trkpt>
      <trkpt lat="50.99608" lon="2.15248">
        <ele>2.4</ele>
        <time>2020-06-23T10:11:18Z</time>
      </trkpt>
      <trkpt lat="50.99609" lon="2.15257">
        <ele>2.4</ele>
        <time>2020-06-23T10:11:19Z</time>
      </trkpt>
      <trkpt lat="50.99609" lon="2.15265">
        <ele>2.5</ele>
        <time>2020-06-23T10:11:20Z</time>
      </trkpt>
      <trkpt lat="50.99609" lon="2.15274">
        <ele>2.5</ele>
        <time>2020-06-23T10:11:21Z</time>
      </trkpt>
      <trkpt lat="50.99609" lon="2.15282">
        <ele>2.5</ele>
        <time>2020-06-23T10:11:22Z</time>
      </trkpt>
      <trkpt lat="50.99609" lon="2.1529">
        <ele>2.5</ele>
        <time>2020-06-23T10:11:23Z</time>
      </trkpt>
      <trkpt lat="50.99608" lon="2.15297">
        <ele>2.6</ele>
        <time>2020-06-23T10:11:24Z</time>
      </trkpt>
      <trkpt lat="50.99608" lon="2.15304">
        <ele>2.6</ele>
        <time>2020-06-23T10:11:25Z</time>
      </trkpt>
      <trkpt lat="50.99608" lon="2.15311">
        <ele>2.6</ele>
        <time>2020-06-23T10:11:26Z</time>
      </trkpt>
      <trkpt lat="50.99608" lon="2.15318">
        <ele>2.6</ele>
        <time>2020-06-23T10:11:27Z</time>
      </trkpt>
      <trkpt lat="50.99607" lon="2.15323">
        <ele>2.6</ele>
        <time>2020-06-23T10:11:28Z</time>
      </trkpt>
      <trkpt lat="50.99605" lon="2.15328">
        <ele>2.6</ele>
        <time>2020-06-23T10:11:29Z</time>
      </trkpt>
      <trkpt lat="50.99601" lon="2.15329">
        <ele>2.6</ele>
        <time>2020-06-23T10:11:30Z</time>
      </trkpt>
      <trkpt lat="50.99595" lon="2.15327">
        <ele>2.6</ele>
        <time>2020-06-23T10:11:31Z</time>
      </trkpt>
      <trkpt lat="50.9959" lon="2.15327">
        <ele>2.6</ele>
        <time>2020-06-23T10:11:32Z</time>
      </trkpt>
      <trkpt lat="50.99586" lon="2.15329">
        <ele>2.6</ele>
        <time>2020-06-23T10:11:33Z</time>
      </trkpt>
      <trkpt lat="50.99582" lon="2.15331">
        <ele>2.6</ele>
        <time>2020-06-23T10:11:34Z</time>
      </trkpt>
      <trkpt lat="50.99579" lon="2.15334">
        <ele>2.6</ele>
        <time>2020-06-23T10:11:35Z</time>
      </trkpt>
      <trkpt lat="50.99576" lon="2.15337">
        <ele>2.6</ele>
        <time>2020-06-23T10:11:36Z</time>
      </trkpt>
      <trkpt lat="50.99576" lon="2.15343">
        <ele>2.6</ele>
        <time>2020-06-23T10:11:37Z</time>
      </trkpt>
      <trkpt lat="50.99576" lon="2.15346">
        <ele>2.6</ele>
        <time>2020-06-23T10:11:38Z</time>
      </trkpt>
      <trkpt lat="50.99579" lon="2.15352">
        <ele>2.6</ele>
        <time>2020-06-23T10:11:39Z</time>
      </trkpt>
      <trkpt lat="50.99582" lon="2.15358">
        <ele>2.6</ele>
        <time>2020-06-23T10:11:40Z</time>
      </trkpt>
      <trkpt lat="50.99584" lon="2.15363">
        <ele>2.7</ele>
        <time>2020-06-23T10:11:41Z</time>
      </trkpt>
      <trkpt lat="50.99585" lon="2.15369">
        <ele>2.7</ele>
        <time>2020-06-23T10:11:42Z</time>
      </trkpt>
      <trkpt lat="50.99587" lon="2.15375">
        <ele>2.8</ele>
        <time>2020-06-23T10:11:43Z</time>
      </trkpt>
      <trkpt lat="50.99587" lon="2.1538">
        <ele>2.9</ele>
        <time>2020-06-23T10:11:44Z</time>
      </trkpt>
      <trkpt lat="50.99586" lon="2.15387">
        <ele>3.1</ele>
        <time>2020-06-23T10:11:45Z</time>
      </trkpt>
      <trkpt lat="50.99586" lon="2.15395">
        <ele>2.9</ele>
        <time>2020-06-23T10:11:46Z</time>
      </trkpt>
      <trkpt lat="50.99586" lon="2.15402">
        <ele>2.8</ele>
        <time>2020-06-23T10:11:47Z</time>
      </trkpt>
      <trkpt lat="50.99586" lon="2.15406">
        <ele>2.7</ele>
        <time>2020-06-23T10:11:48Z</time>
      </trkpt>
      <trkpt lat="50.99587" lon="2.15412">
        <ele>2.6</ele>
        <time>2020-06-23T10:11:49Z</time>
      </trkpt>
      <trkpt lat="50.9959" lon="2.15418">
        <ele>2.5</ele>
        <time>2020-06-23T10:11:50Z</time>
      </trkpt>
      <trkpt lat="50.99593" lon="2.15426">
        <ele>2.4</ele>
        <time>2020-06-23T10:11:51Z</time>
      </trkpt>
      <trkpt lat="50.99597" lon="2.15435">
        <ele>2.4</ele>
        <time>2020-06-23T10:11:52Z</time>
      </trkpt>
      <trkpt lat="50.99599" lon="2.15444">
        <ele>2.4</ele>
        <time>2020-06-23T10:11:53Z</time>
      </trkpt>
      <trkpt lat="50.99601" lon="2.15454">
        <ele>2.4</ele>
        <time>2020-06-23T10:11:54Z</time>
      </trkpt>
      <trkpt lat="50.99602" lon="2.15463">
        <ele>2.3</ele>
        <time>2020-06-23T10:11:55Z</time>
      </trkpt>
      <trkpt lat="50.99602" lon="2.15474">
        <ele>2.2</ele>
        <time>2020-06-23T10:11:56Z</time>
      </trkpt>
      <trkpt lat="50.99603" lon="2.15483">
        <ele>2.1</ele>
        <time>2020-06-23T10:11:57Z</time>
      </trkpt>
      <trkpt lat="50.99603" lon="2.15496">
        <ele>2</ele>
        <time>2020-06-23T10:11:58Z</time>
      </trkpt>
      <trkpt lat="50.99603" lon="2.15505">
        <ele>1.9</ele>
        <time>2020-06-23T10:11:59Z</time>
      </trkpt>
      <trkpt lat="50.99604" lon="2.15516">
        <ele>1.8</ele>
        <time>2020-06-23T10:12:00Z</time>
      </trkpt>
      <trkpt lat="50.99603" lon="2.15525">
        <ele>1.8</ele>
        <time>2020-06-23T10:12:01Z</time>
      </trkpt>
      <trkpt lat="50.99603" lon="2.15535">
        <ele>1.6</ele>
        <time>2020-06-23T10:12:02Z</time>
      </trkpt>
      <trkpt lat="50.99603" lon="2.15545">
        <ele>1.6</ele>
        <time>2020-06-23T10:12:03Z</time>
      </trkpt>
      <trkpt lat="50.99602" lon="2.15556">
        <ele>1.5</ele>
        <time>2020-06-23T10:12:04Z</time>
      </trkpt>
      <trkpt lat="50.99602" lon="2.15565">
        <ele>1.5</ele>
        <time>2020-06-23T10:12:05Z</time>
      </trkpt>
      <trkpt lat="50.99602" lon="2.15575">
        <ele>1.6</ele>
        <time>2020-06-23T10:12:06Z</time>
      </trkpt>
      <trkpt lat="50.99601" lon="2.15585">
        <ele>1.7</ele>
        <time>2020-06-23T10:12:07Z</time>
      </trkpt>
      <trkpt lat="50.99601" lon="2.15595">
        <ele>1.8</ele>
        <time>2020-06-23T10:12:08Z</time>
      </trkpt>
      <trkpt lat="50.99602" lon="2.15606">
        <ele>1.8</ele>
        <time>2020-06-23T10:12:09Z</time>
      </trkpt>
      <trkpt lat="50.99602" lon="2.15615">
        <ele>1.8</ele>
        <time>2020-06-23T10:12:10Z</time>
      </trkpt>
      <trkpt lat="50.99602" lon="2.15624">
        <ele>1.7</ele>
        <time>2020-06-23T10:12:11Z</time>
      </trkpt>
      <trkpt lat="50.99602" lon="2.15632">
        <ele>1.6</ele>
        <time>2020-06-23T10:12:12Z</time>
      </trkpt>
      <trkpt lat="50.99602" lon="2.15642">
        <ele>1.5</ele>
        <time>2020-06-23T10:12:13Z</time>
      </trkpt>
      <trkpt lat="50.99602" lon="2.15652">
        <ele>1.5</ele>
        <time>2020-06-23T10:12:14Z</time>
      </trkpt>
      <trkpt lat="50.99603" lon="2.15661">
        <ele>1.4</ele>
        <time>2020-06-23T10:12:15Z</time>
      </trkpt>
      <trkpt lat="50.99603" lon="2.15672">
        <ele>1.4</ele>
        <time>2020-06-23T10:12:16Z</time>
      </trkpt>
      <trkpt lat="50.99603" lon="2.15683">
        <ele>1.3</ele>
        <time>2020-06-23T10:12:17Z</time>
      </trkpt>
      <trkpt lat="50.99603" lon="2.15694">
        <ele>1.3</ele>
        <time>2020-06-23T10:12:18Z</time>
      </trkpt>
      <trkpt lat="50.99602" lon="2.15705">
        <ele>1.2</ele>
        <time>2020-06-23T10:12:19Z</time>
      </trkpt>
      <trkpt lat="50.99602" lon="2.15715">
        <ele>1.2</ele>
        <time>2020-06-23T10:12:20Z</time>
      </trkpt>
      <trkpt lat="50.99602" lon="2.15725">
        <ele>1.3</ele>
        <time>2020-06-23T10:12:21Z</time>
      </trkpt>
      <trkpt lat="50.99602" lon="2.15735">
        <ele>1.4</ele>
        <time>2020-06-23T10:12:22Z</time>
      </trkpt>
      <trkpt lat="50.99602" lon="2.15745">
        <ele>1.5</ele>
        <time>2020-06-23T10:12:23Z</time>
      </trkpt>
      <trkpt lat="50.99602" lon="2.15755">
        <ele>1.5</ele>
        <time>2020-06-23T10:12:24Z</time>
      </trkpt>
      <trkpt lat="50.99603" lon="2.15765">
        <ele>1.4</ele>
        <time>2020-06-23T10:12:25Z</time>
      </trkpt>
      <trkpt lat="50.99603" lon="2.15774">
        <ele>1.3</ele>
        <time>2020-06-23T10:12:26Z</time>
      </trkpt>
      <trkpt lat="50.99603" lon="2.15784">
        <ele>1.3</ele>
        <time>2020-06-23T10:12:27Z</time>
      </trkpt>
      <trkpt lat="50.99603" lon="2.15794">
        <ele>1.3</ele>
        <time>2020-06-23T10:12:28Z</time>
      </trkpt>
      <trkpt lat="50.99603" lon="2.15805">
        <ele>1.3</ele>
        <time>2020-06-23T10:12:29Z</time>
      </trkpt>
      <trkpt lat="50.99603" lon="2.15815">
        <ele>1.2</ele>
        <time>2020-06-23T10:12:30Z</time>
      </trkpt>
      <trkpt lat="50.99603" lon="2.15826">
        <ele>1.1</ele>
        <time>2020-06-23T10:12:31Z</time>
      </trkpt>
      <trkpt lat="50.99603" lon="2.15837">
        <ele>1.1</ele>
        <time>2020-06-23T10:12:32Z</time>
      </trkpt>
      <trkpt lat="50.99603" lon="2.15848">
        <ele>1.1</ele>
        <time>2020-06-23T10:12:33Z</time>
      </trkpt>
      <trkpt lat="50.99603" lon="2.15859">
        <ele>1.2</ele>
        <time>2020-06-23T10:12:34Z</time>
      </trkpt>
      <trkpt lat="50.99604" lon="2.1587">
        <ele>1.3</ele>
        <time>2020-06-23T10:12:35Z</time>
      </trkpt>
      <trkpt lat="50.99604" lon="2.15881">
        <ele>1.3</ele>
        <time>2020-06-23T10:12:36Z</time>
      </trkpt>
      <trkpt lat="50.99603" lon="2.15892">
        <ele>1.3</ele>
        <time>2020-06-23T10:12:37Z</time>
      </trkpt>
      <trkpt lat="50.99603" lon="2.15903">
        <ele>1.3</ele>
        <time>2020-06-23T10:12:38Z</time>
      </trkpt>
      <trkpt lat="50.99603" lon="2.15914">
        <ele>1.3</ele>
        <time>2020-06-23T10:12:39Z</time>
      </trkpt>
      <trkpt lat="50.99603" lon="2.15924">
        <ele>1.2</ele>
        <time>2020-06-23T10:12:40Z</time>
      </trkpt>
      <trkpt lat="50.99603" lon="2.15935">
        <ele>1.2</ele>
        <time>2020-06-23T10:12:41Z</time>
      </trkpt>
      <trkpt lat="50.99604" lon="2.15946">
        <ele>1.1</ele>
        <time>2020-06-23T10:12:42Z</time>
      </trkpt>
      <trkpt lat="50.99604" lon="2.15956">
        <ele>1.1</ele>
        <time>2020-06-23T10:12:43Z</time>
      </trkpt>
      <trkpt lat="50.99603" lon="2.15967">
        <ele>1.2</ele>
        <time>2020-06-23T10:12:44Z</time>
      </trkpt>
      <trkpt lat="50.99603" lon="2.15977">
        <ele>1.3</ele>
        <time>2020-06-23T10:12:45Z</time>
      </trkpt>
      <trkpt lat="50.99603" lon="2.15988">
        <ele>1.4</ele>
        <time>2020-06-23T10:12:46Z</time>
      </trkpt>
      <trkpt lat="50.99603" lon="2.15999">
        <ele>1.4</ele>
        <time>2020-06-23T10:12:47Z</time>
      </trkpt>
      <trkpt lat="50.99603" lon="2.16009">
        <ele>1.5</ele>
        <time>2020-06-23T10:12:48Z</time>
      </trkpt>
      <trkpt lat="50.99603" lon="2.16019">
        <ele>1.5</ele>
        <time>2020-06-23T10:12:49Z</time>
      </trkpt>
      <trkpt lat="50.99602" lon="2.16029">
        <ele>1.5</ele>
        <time>2020-06-23T10:12:50Z</time>
      </trkpt>
      <trkpt lat="50.99601" lon="2.16039">
        <ele>1.5</ele>
        <time>2020-06-23T10:12:51Z</time>
      </trkpt>
      <trkpt lat="50.99601" lon="2.16049">
        <ele>1.4</ele>
        <time>2020-06-23T10:12:52Z</time>
      </trkpt>
      <trkpt lat="50.99601" lon="2.16059">
        <ele>1.4</ele>
        <time>2020-06-23T10:12:53Z</time>
      </trkpt>
      <trkpt lat="50.99601" lon="2.1607">
        <ele>1.3</ele>
        <time>2020-06-23T10:12:54Z</time>
      </trkpt>
      <trkpt lat="50.99601" lon="2.1608">
        <ele>1.3</ele>
        <time>2020-06-23T10:12:55Z</time>
      </trkpt>
      <trkpt lat="50.99601" lon="2.1609">
        <ele>1.4</ele>
        <time>2020-06-23T10:12:56Z</time>
      </trkpt>
      <trkpt lat="50.99601" lon="2.161">
        <ele>1.4</ele>
        <time>2020-06-23T10:12:57Z</time>
      </trkpt>
      <trkpt lat="50.99601" lon="2.16109">
        <ele>1.5</ele>
        <time>2020-06-23T10:12:58Z</time>
      </trkpt>
      <trkpt lat="50.99601" lon="2.16119">
        <ele>1.6</ele>
        <time>2020-06-23T10:12:59Z</time>
      </trkpt>
      <trkpt lat="50.99601" lon="2.16129">
        <ele>1.6</ele>
        <time>2020-06-23T10:13:00Z</time>
      </trkpt>
      <trkpt lat="50.996" lon="2.16138">
        <ele>1.6</ele>
        <time>2020-06-23T10:13:01Z</time>
      </trkpt>
      <trkpt lat="50.996" lon="2.16148">
        <ele>1.7</ele>
        <time>2020-06-23T10:13:02Z</time>
      </trkpt>
      <trkpt lat="50.996" lon="2.16158">
        <ele>1.8</ele>
        <time>2020-06-23T10:13:03Z</time>
      </trkpt>
      <trkpt lat="50.996" lon="2.16167">
        <ele>2</ele>
        <time>2020-06-23T10:13:04Z</time>
      </trkpt>
      <trkpt lat="50.996" lon="2.16175">
        <ele>2.1</ele>
        <time>2020-06-23T10:13:05Z</time>
      </trkpt>
      <trkpt lat="50.99599" lon="2.16181">
        <ele>2.2</ele>
        <time>2020-06-23T10:13:06Z</time>
      </trkpt>
      <trkpt lat="50.99598" lon="2.16187">
        <ele>2.3</ele>
        <time>2020-06-23T10:13:07Z</time>
      </trkpt>
      <trkpt lat="50.99597" lon="2.16193">
        <ele>2.3</ele>
        <time>2020-06-23T10:13:08Z</time>
      </trkpt>
      <trkpt lat="50.99598" lon="2.162">
        <ele>2.3</ele>
        <time>2020-06-23T10:13:09Z</time>
      </trkpt>
      <trkpt lat="50.99598" lon="2.16207">
        <ele>2.3</ele>
        <time>2020-06-23T10:13:10Z</time>
      </trkpt>
      <trkpt lat="50.99599" lon="2.16214">
        <ele>2.2</ele>
        <time>2020-06-23T10:13:11Z</time>
      </trkpt>
      <trkpt lat="50.99598" lon="2.16223">
        <ele>2.1</ele>
        <time>2020-06-23T10:13:12Z</time>
      </trkpt>
      <trkpt lat="50.99598" lon="2.16231">
        <ele>2</ele>
        <time>2020-06-23T10:13:13Z</time>
      </trkpt>
      <trkpt lat="50.99597" lon="2.1624">
        <ele>1.9</ele>
        <time>2020-06-23T10:13:14Z</time>
      </trkpt>
      <trkpt lat="50.99598" lon="2.16249">
        <ele>1.8</ele>
        <time>2020-06-23T10:13:15Z</time>
      </trkpt>
      <trkpt lat="50.99598" lon="2.16258">
        <ele>1.7</ele>
        <time>2020-06-23T10:13:16Z</time>
      </trkpt>
      <trkpt lat="50.99598" lon="2.16267">
        <ele>1.7</ele>
        <time>2020-06-23T10:13:17Z</time>
      </trkpt>
      <trkpt lat="50.99598" lon="2.16276">
        <ele>1.6</ele>
        <time>2020-06-23T10:13:18Z</time>
      </trkpt>
      <trkpt lat="50.99598" lon="2.16285">
        <ele>1.6</ele>
        <time>2020-06-23T10:13:19Z</time>
      </trkpt>
      <trkpt lat="50.99599" lon="2.16295">
        <ele>1.7</ele>
        <time>2020-06-23T10:13:20Z</time>
      </trkpt>
      <trkpt lat="50.99599" lon="2.16304">
        <ele>1.7</ele>
        <time>2020-06-23T10:13:21Z</time>
      </trkpt>
      <trkpt lat="50.99599" lon="2.16313">
        <ele>1.7</ele>
        <time>2020-06-23T10:13:22Z</time>
      </trkpt>
      <trkpt lat="50.996" lon="2.16324">
        <ele>1.8</ele>
        <time>2020-06-23T10:13:23Z</time>
      </trkpt>
      <trkpt lat="50.99599" lon="2.16333">
        <ele>1.8</ele>
        <time>2020-06-23T10:13:24Z</time>
      </trkpt>
      <trkpt lat="50.99599" lon="2.16343">
        <ele>1.9</ele>
        <time>2020-06-23T10:13:25Z</time>
      </trkpt>
      <trkpt lat="50.99599" lon="2.16353">
        <ele>2</ele>
        <time>2020-06-23T10:13:26Z</time>
      </trkpt>
      <trkpt lat="50.99599" lon="2.16363">
        <ele>2.2</ele>
        <time>2020-06-23T10:13:27Z</time>
      </trkpt>
      <trkpt lat="50.99599" lon="2.16373">
        <ele>2.4</ele>
        <time>2020-06-23T10:13:28Z</time>
      </trkpt>
      <trkpt lat="50.99599" lon="2.16383">
        <ele>2.5</ele>
        <time>2020-06-23T10:13:29Z</time>
      </trkpt>
      <trkpt lat="50.99599" lon="2.16392">
        <ele>2.6</ele>
        <time>2020-06-23T10:13:30Z</time>
      </trkpt>
      <trkpt lat="50.996" lon="2.16402">
        <ele>2.7</ele>
        <time>2020-06-23T10:13:31Z</time>
      </trkpt>
      <trkpt lat="50.996" lon="2.16411">
        <ele>2.8</ele>
        <time>2020-06-23T10:13:32Z</time>
      </trkpt>
      <trkpt lat="50.996" lon="2.1642">
        <ele>2.9</ele>
        <time>2020-06-23T10:13:33Z</time>
      </trkpt>
      <trkpt lat="50.996" lon="2.1643">
        <ele>3.1</ele>
        <time>2020-06-23T10:13:34Z</time>
      </trkpt>
      <trkpt lat="50.996" lon="2.1644">
        <ele>3.3</ele>
        <time>2020-06-23T10:13:35Z</time>
      </trkpt>
      <trkpt lat="50.99599" lon="2.16449">
        <ele>3.5</ele>
        <time>2020-06-23T10:13:36Z</time>
      </trkpt>
      <trkpt lat="50.99599" lon="2.16458">
        <ele>4</ele>
        <time>2020-06-23T10:13:37Z</time>
      </trkpt>
      <trkpt lat="50.99598" lon="2.16466">
        <ele>4.2</ele>
        <time>2020-06-23T10:13:38Z</time>
      </trkpt>
      <trkpt lat="50.99598" lon="2.16475">
        <ele>4.5</ele>
        <time>2020-06-23T10:13:39Z</time>
      </trkpt>
      <trkpt lat="50.99597" lon="2.16484">
        <ele>4.7</ele>
        <time>2020-06-23T10:13:40Z</time>
      </trkpt>
      <trkpt lat="50.99597" lon="2.16493">
        <ele>5</ele>
        <time>2020-06-23T10:13:41Z</time>
      </trkpt>
      <trkpt lat="50.99597" lon="2.16503">
        <ele>5.3</ele>
        <time>2020-06-23T10:13:42Z</time>
      </trkpt>
      <trkpt lat="50.99597" lon="2.16514">
        <ele>5.6</ele>
        <time>2020-06-23T10:13:43Z</time>
      </trkpt>
      <trkpt lat="50.99596" lon="2.16522">
        <ele>5.8</ele>
        <time>2020-06-23T10:13:44Z</time>
      </trkpt>
      <trkpt lat="50.99596" lon="2.16532">
        <ele>6.1</ele>
        <time>2020-06-23T10:13:45Z</time>
      </trkpt>
      <trkpt lat="50.99596" lon="2.16541">
        <ele>6.4</ele>
        <time>2020-06-23T10:13:46Z</time>
      </trkpt>
      <trkpt lat="50.99596" lon="2.16549">
        <ele>6.6</ele>
        <time>2020-06-23T10:13:47Z</time>
      </trkpt>
      <trkpt lat="50.99596" lon="2.16558">
        <ele>6.9</ele>
        <time>2020-06-23T10:13:48Z</time>
      </trkpt>
      <trkpt lat="50.99596" lon="2.16568">
        <ele>7.1</ele>
        <time>2020-06-23T10:13:49Z</time>
      </trkpt>
      <trkpt lat="50.99595" lon="2.16577">
        <ele>7.3</ele>
        <time>2020-06-23T10:13:50Z</time>
      </trkpt>
      <trkpt lat="50.99595" lon="2.16585">
        <ele>7.5</ele>
        <time>2020-06-23T10:13:51Z</time>
      </trkpt>
      <trkpt lat="50.99595" lon="2.16594">
        <ele>7.6</ele>
        <time>2020-06-23T10:13:52Z</time>
      </trkpt>
      <trkpt lat="50.99595" lon="2.16602">
        <ele>7.8</ele>
        <time>2020-06-23T10:13:53Z</time>
      </trkpt>
      <trkpt lat="50.99594" lon="2.16611">
        <ele>7.9</ele>
        <time>2020-06-23T10:13:54Z</time>
      </trkpt>
      <trkpt lat="50.99595" lon="2.16621">
        <ele>8.1</ele>
        <time>2020-06-23T10:13:55Z</time>
      </trkpt>
      <trkpt lat="50.99595" lon="2.16631">
        <ele>8.2</ele>
        <time>2020-06-23T10:13:56Z</time>
      </trkpt>
      <trkpt lat="50.99595" lon="2.1664">
        <ele>8.3</ele>
        <time>2020-06-23T10:13:57Z</time>
      </trkpt>
      <trkpt lat="50.99595" lon="2.1665">
        <ele>8.4</ele>
        <time>2020-06-23T10:13:58Z</time>
      </trkpt>
      <trkpt lat="50.99595" lon="2.16659">
        <ele>8.5</ele>
        <time>2020-06-23T10:13:59Z</time>
      </trkpt>
      <trkpt lat="50.99596" lon="2.16668">
        <ele>8.5</ele>
        <time>2020-06-23T10:14:00Z</time>
      </trkpt>
      <trkpt lat="50.99595" lon="2.16678">
        <ele>8.6</ele>
        <time>2020-06-23T10:14:01Z</time>
      </trkpt>
      <trkpt lat="50.99595" lon="2.16687">
        <ele>8.6</ele>
        <time>2020-06-23T10:14:02Z</time>
      </trkpt>
      <trkpt lat="50.99595" lon="2.16697">
        <ele>8.6</ele>
        <time>2020-06-23T10:14:03Z</time>
      </trkpt>
      <trkpt lat="50.99595" lon="2.16706">
        <ele>8.6</ele>
        <time>2020-06-23T10:14:04Z</time>
      </trkpt>
      <trkpt lat="50.99595" lon="2.16715">
        <ele>8.6</ele>
        <time>2020-06-23T10:14:05Z</time>
      </trkpt>
      <trkpt lat="50.99595" lon="2.16722">
        <ele>8.5</ele>
        <time>2020-06-23T10:14:06Z</time>
      </trkpt>
      <trkpt lat="50.99595" lon="2.1673">
        <ele>8.5</ele>
        <time>2020-06-23T10:14:07Z</time>
      </trkpt>
      <trkpt lat="50.99595" lon="2.16739">
        <ele>8.5</ele>
        <time>2020-06-23T10:14:08Z</time>
      </trkpt>
      <trkpt lat="50.99595" lon="2.1675">
        <ele>8.4</ele>
        <time>2020-06-23T10:14:09Z</time>
      </trkpt>
      <trkpt lat="50.99595" lon="2.1676">
        <ele>8.3</ele>
        <time>2020-06-23T10:14:10Z</time>
      </trkpt>
      <trkpt lat="50.99595" lon="2.16769">
        <ele>8.2</ele>
        <time>2020-06-23T10:14:11Z</time>
      </trkpt>
      <trkpt lat="50.99595" lon="2.16779">
        <ele>8</ele>
        <time>2020-06-23T10:14:12Z</time>
      </trkpt>
      <trkpt lat="50.99595" lon="2.16787">
        <ele>7.9</ele>
        <time>2020-06-23T10:14:13Z</time>
      </trkpt>
      <trkpt lat="50.99594" lon="2.16796">
        <ele>7.7</ele>
        <time>2020-06-23T10:14:14Z</time>
      </trkpt>
      <trkpt lat="50.99594" lon="2.16806">
        <ele>7.6</ele>
        <time>2020-06-23T10:14:15Z</time>
      </trkpt>
      <trkpt lat="50.99594" lon="2.16815">
        <ele>7.4</ele>
        <time>2020-06-23T10:14:16Z</time>
      </trkpt>
      <trkpt lat="50.99594" lon="2.16825">
        <ele>7.2</ele>
        <time>2020-06-23T10:14:17Z</time>
      </trkpt>
      <trkpt lat="50.99594" lon="2.16834">
        <ele>7</ele>
        <time>2020-06-23T10:14:18Z</time>
      </trkpt>
      <trkpt lat="50.99593" lon="2.16844">
        <ele>6.7</ele>
        <time>2020-06-23T10:14:19Z</time>
      </trkpt>
      <trkpt lat="50.99593" lon="2.16854">
        <ele>6.5</ele>
        <time>2020-06-23T10:14:20Z</time>
      </trkpt>
      <trkpt lat="50.99593" lon="2.16864">
        <ele>6.2</ele>
        <time>2020-06-23T10:14:21Z</time>
      </trkpt>
      <trkpt lat="50.99593" lon="2.16875">
        <ele>5.9</ele>
        <time>2020-06-23T10:14:22Z</time>
      </trkpt>
      <trkpt lat="50.99593" lon="2.16887">
        <ele>5.5</ele>
        <time>2020-06-23T10:14:23Z</time>
      </trkpt>
      <trkpt lat="50.99593" lon="2.16898">
        <ele>5.2</ele>
        <time>2020-06-23T10:14:24Z</time>
      </trkpt>
      <trkpt lat="50.99593" lon="2.1691">
        <ele>4.9</ele>
        <time>2020-06-23T10:14:25Z</time>
      </trkpt>
      <trkpt lat="50.99593" lon="2.16922">
        <ele>4.4</ele>
        <time>2020-06-23T10:14:26Z</time>
      </trkpt>
      <trkpt lat="50.99593" lon="2.16934">
        <ele>4.2</ele>
        <time>2020-06-23T10:14:27Z</time>
      </trkpt>
      <trkpt lat="50.99593" lon="2.16946">
        <ele>3.9</ele>
        <time>2020-06-23T10:14:28Z</time>
      </trkpt>
      <trkpt lat="50.99592" lon="2.16959">
        <ele>3.7</ele>
        <time>2020-06-23T10:14:29Z</time>
      </trkpt>
      <trkpt lat="50.99592" lon="2.16972">
        <ele>3.4</ele>
        <time>2020-06-23T10:14:30Z</time>
      </trkpt>
      <trkpt lat="50.99591" lon="2.16984">
        <ele>3.2</ele>
        <time>2020-06-23T10:14:31Z</time>
      </trkpt>
      <trkpt lat="50.99591" lon="2.16996">
        <ele>2.9</ele>
        <time>2020-06-23T10:14:32Z</time>
      </trkpt>
      <trkpt lat="50.99591" lon="2.17008">
        <ele>2.7</ele>
        <time>2020-06-23T10:14:33Z</time>
      </trkpt>
      <trkpt lat="50.99591" lon="2.1702">
        <ele>2.5</ele>
        <time>2020-06-23T10:14:34Z</time>
      </trkpt>
      <trkpt lat="50.99591" lon="2.17033">
        <ele>2.3</ele>
        <time>2020-06-23T10:14:35Z</time>
      </trkpt>
      <trkpt lat="50.99591" lon="2.17045">
        <ele>2.1</ele>
        <time>2020-06-23T10:14:36Z</time>
      </trkpt>
      <trkpt lat="50.99591" lon="2.17057">
        <ele>2</ele>
        <time>2020-06-23T10:14:37Z</time>
      </trkpt>
      <trkpt lat="50.9959" lon="2.17068">
        <ele>1.8</ele>
        <time>2020-06-23T10:14:38Z</time>
      </trkpt>
      <trkpt lat="50.9959" lon="2.1708">
        <ele>1.7</ele>
        <time>2020-06-23T10:14:39Z</time>
      </trkpt>
      <trkpt lat="50.9959" lon="2.17092">
        <ele>1.6</ele>
        <time>2020-06-23T10:14:40Z</time>
      </trkpt>
      <trkpt lat="50.99589" lon="2.17103">
        <ele>1.6</ele>
        <time>2020-06-23T10:14:41Z</time>
      </trkpt>
      <trkpt lat="50.99589" lon="2.17114">
        <ele>1.5</ele>
        <time>2020-06-23T10:14:42Z</time>
      </trkpt>
      <trkpt lat="50.99588" lon="2.17125">
        <ele>1.5</ele>
        <time>2020-06-23T10:14:43Z</time>
      </trkpt>
      <trkpt lat="50.99588" lon="2.17136">
        <ele>1.5</ele>
        <time>2020-06-23T10:14:44Z</time>
      </trkpt>
      <trkpt lat="50.99588" lon="2.17147">
        <ele>1.3</ele>
        <time>2020-06-23T10:14:45Z</time>
      </trkpt>
      <trkpt lat="50.99588" lon="2.17158">
        <ele>1.2</ele>
        <time>2020-06-23T10:14:46Z</time>
      </trkpt>
      <trkpt lat="50.99588" lon="2.17168">
        <ele>1.2</ele>
        <time>2020-06-23T10:14:47Z</time>
      </trkpt>
      <trkpt lat="50.99588" lon="2.17179">
        <ele>1.1</ele>
        <time>2020-06-23T10:14:48Z</time>
      </trkpt>
      <trkpt lat="50.99588" lon="2.1719">
        <ele>1.1</ele>
        <time>2020-06-23T10:14:49Z</time>
      </trkpt>
      <trkpt lat="50.99588" lon="2.172">
        <ele>1.1</ele>
        <time>2020-06-23T10:14:50Z</time>
      </trkpt>
      <trkpt lat="50.99589" lon="2.17211">
        <ele>1.1</ele>
        <time>2020-06-23T10:14:51Z</time>
      </trkpt>
      <trkpt lat="50.99589" lon="2.17221">
        <ele>1.1</ele>
        <time>2020-06-23T10:14:52Z</time>
      </trkpt>
      <trkpt lat="50.99589" lon="2.17232">
        <ele>1.1</ele>
        <time>2020-06-23T10:14:53Z</time>
      </trkpt>
      <trkpt lat="50.99589" lon="2.17243">
        <ele>1.1</ele>
        <time>2020-06-23T10:14:54Z</time>
      </trkpt>
      <trkpt lat="50.99589" lon="2.17254">
        <ele>1.2</ele>
        <time>2020-06-23T10:14:55Z</time>
      </trkpt>
      <trkpt lat="50.99588" lon="2.17264">
        <ele>1.2</ele>
        <time>2020-06-23T10:14:56Z</time>
      </trkpt>
      <trkpt lat="50.99588" lon="2.17275">
        <ele>1.3</ele>
        <time>2020-06-23T10:14:57Z</time>
      </trkpt>
      <trkpt lat="50.99588" lon="2.17286">
        <ele>1.3</ele>
        <time>2020-06-23T10:14:58Z</time>
      </trkpt>
      <trkpt lat="50.99588" lon="2.17296">
        <ele>1.3</ele>
        <time>2020-06-23T10:14:59Z</time>
      </trkpt>
      <trkpt lat="50.99588" lon="2.17307">
        <ele>1.3</ele>
        <time>2020-06-23T10:15:00Z</time>
      </trkpt>
      <trkpt lat="50.99588" lon="2.17318">
        <ele>1.3</ele>
        <time>2020-06-23T10:15:01Z</time>
      </trkpt>
      <trkpt lat="50.99588" lon="2.17328">
        <ele>1.3</ele>
        <time>2020-06-23T10:15:02Z</time>
      </trkpt>
      <trkpt lat="50.99588" lon="2.17339">
        <ele>1.3</ele>
        <time>2020-06-23T10:15:03Z</time>
      </trkpt>
      <trkpt lat="50.99588" lon="2.1735">
        <ele>1.3</ele>
        <time>2020-06-23T10:15:04Z</time>
      </trkpt>
      <trkpt lat="50.99588" lon="2.1736">
        <ele>1.3</ele>
        <time>2020-06-23T10:15:05Z</time>
      </trkpt>
      <trkpt lat="50.99587" lon="2.17371">
        <ele>1.3</ele>
        <time>2020-06-23T10:15:06Z</time>
      </trkpt>
      <trkpt lat="50.99587" lon="2.17381">
        <ele>1.4</ele>
        <time>2020-06-23T10:15:07Z</time>
      </trkpt>
      <trkpt lat="50.99587" lon="2.17392">
        <ele>1.7</ele>
        <time>2020-06-23T10:15:08Z</time>
      </trkpt>
      <trkpt lat="50.99587" lon="2.17402">
        <ele>1.7</ele>
        <time>2020-06-23T10:15:09Z</time>
      </trkpt>
      <trkpt lat="50.99587" lon="2.17413">
        <ele>1.7</ele>
        <time>2020-06-23T10:15:10Z</time>
      </trkpt>
      <trkpt lat="50.99587" lon="2.17424">
        <ele>1.7</ele>
        <time>2020-06-23T10:15:11Z</time>
      </trkpt>
      <trkpt lat="50.99587" lon="2.17435">
        <ele>1.7</ele>
        <time>2020-06-23T10:15:12Z</time>
      </trkpt>
      <trkpt lat="50.99587" lon="2.17445">
        <ele>1.7</ele>
        <time>2020-06-23T10:15:13Z</time>
      </trkpt>
      <trkpt lat="50.99587" lon="2.17457">
        <ele>1.7</ele>
        <time>2020-06-23T10:15:14Z</time>
      </trkpt>
      <trkpt lat="50.99586" lon="2.17467">
        <ele>1.7</ele>
        <time>2020-06-23T10:15:15Z</time>
      </trkpt>
      <trkpt lat="50.99586" lon="2.17478">
        <ele>1.7</ele>
        <time>2020-06-23T10:15:16Z</time>
      </trkpt>
      <trkpt lat="50.99586" lon="2.17488">
        <ele>1.7</ele>
        <time>2020-06-23T10:15:17Z</time>
      </trkpt>
      <trkpt lat="50.99586" lon="2.17499">
        <ele>1.8</ele>
        <time>2020-06-23T10:15:18Z</time>
      </trkpt>
      <trkpt lat="50.99586" lon="2.1751">
        <ele>1.7</ele>
        <time>2020-06-23T10:15:19Z</time>
      </trkpt>
      <trkpt lat="50.99586" lon="2.1752">
        <ele>1.7</ele>
        <time>2020-06-23T10:15:20Z</time>
      </trkpt>
      <trkpt lat="50.99585" lon="2.17531">
        <ele>1.7</ele>
        <time>2020-06-23T10:15:21Z</time>
      </trkpt>
      <trkpt lat="50.99585" lon="2.17541">
        <ele>1.7</ele>
        <time>2020-06-23T10:15:22Z</time>
      </trkpt>
      <trkpt lat="50.99585" lon="2.17551">
        <ele>1.6</ele>
        <time>2020-06-23T10:15:23Z</time>
      </trkpt>
      <trkpt lat="50.99584" lon="2.17562">
        <ele>1.6</ele>
        <time>2020-06-23T10:15:24Z</time>
      </trkpt>
      <trkpt lat="50.99585" lon="2.17572">
        <ele>1.6</ele>
        <time>2020-06-23T10:15:25Z</time>
      </trkpt>
      <trkpt lat="50.99584" lon="2.17583">
        <ele>1.6</ele>
        <time>2020-06-23T10:15:26Z</time>
      </trkpt>
      <trkpt lat="50.99584" lon="2.17593">
        <ele>1.6</ele>
        <time>2020-06-23T10:15:27Z</time>
      </trkpt>
      <trkpt lat="50.99584" lon="2.17604">
        <ele>1.6</ele>
        <time>2020-06-23T10:15:28Z</time>
      </trkpt>
      <trkpt lat="50.99585" lon="2.17614">
        <ele>1.6</ele>
        <time>2020-06-23T10:15:29Z</time>
      </trkpt>
      <trkpt lat="50.99585" lon="2.17624">
        <ele>1.6</ele>
        <time>2020-06-23T10:15:30Z</time>
      </trkpt>
      <trkpt lat="50.99584" lon="2.17634">
        <ele>1.6</ele>
        <time>2020-06-23T10:15:31Z</time>
      </trkpt>
      <trkpt lat="50.99584" lon="2.17645">
        <ele>1.6</ele>
        <time>2020-06-23T10:15:32Z</time>
      </trkpt>
      <trkpt lat="50.99584" lon="2.17655">
        <ele>1.6</ele>
        <time>2020-06-23T10:15:33Z</time>
      </trkpt>
      <trkpt lat="50.99584" lon="2.17665">
        <ele>1.6</ele>
        <time>2020-06-23T10:15:34Z</time>
      </trkpt>
      <trkpt lat="50.99584" lon="2.17676">
        <ele>1.6</ele>
        <time>2020-06-23T10:15:35Z</time>
      </trkpt>
      <trkpt lat="50.99584" lon="2.17686">
        <ele>1.6</ele>
        <time>2020-06-23T10:15:36Z</time>
      </trkpt>
      <trkpt lat="50.99584" lon="2.17697">
        <ele>1.6</ele>
        <time>2020-06-23T10:15:37Z</time>
      </trkpt>
      <trkpt lat="50.99584" lon="2.17707">
        <ele>1.6</ele>
        <time>2020-06-23T10:15:38Z</time>
      </trkpt>
      <trkpt lat="50.99584" lon="2.17718">
        <ele>1.7</ele>
        <time>2020-06-23T10:15:39Z</time>
      </trkpt>
      <trkpt lat="50.99584" lon="2.17729">
        <ele>1.7</ele>
        <time>2020-06-23T10:15:40Z</time>
      </trkpt>
      <trkpt lat="50.99584" lon="2.17739">
        <ele>1.7</ele>
        <time>2020-06-23T10:15:41Z</time>
      </trkpt>
      <trkpt lat="50.99583" lon="2.1775">
        <ele>1.7</ele>
        <time>2020-06-23T10:15:42Z</time>
      </trkpt>
      <trkpt lat="50.99583" lon="2.17761">
        <ele>1.8</ele>
        <time>2020-06-23T10:15:43Z</time>
      </trkpt>
      <trkpt lat="50.99583" lon="2.17772">
        <ele>1.8</ele>
        <time>2020-06-23T10:15:44Z</time>
      </trkpt>
      <trkpt lat="50.99583" lon="2.17783">
        <ele>1.8</ele>
        <time>2020-06-23T10:15:45Z</time>
      </trkpt>
      <trkpt lat="50.99582" lon="2.17794">
        <ele>1.9</ele>
        <time>2020-06-23T10:15:46Z</time>
      </trkpt>
      <trkpt lat="50.99582" lon="2.17805">
        <ele>1.8</ele>
        <time>2020-06-23T10:15:47Z</time>
      </trkpt>
      <trkpt lat="50.99582" lon="2.17816">
        <ele>1.8</ele>
        <time>2020-06-23T10:15:48Z</time>
      </trkpt>
      <trkpt lat="50.99582" lon="2.17827">
        <ele>1.7</ele>
        <time>2020-06-23T10:15:49Z</time>
      </trkpt>
      <trkpt lat="50.99582" lon="2.17838">
        <ele>1.7</ele>
        <time>2020-06-23T10:15:50Z</time>
      </trkpt>
      <trkpt lat="50.99582" lon="2.17849">
        <ele>1.7</ele>
        <time>2020-06-23T10:15:51Z</time>
      </trkpt>
      <trkpt lat="50.99582" lon="2.1786">
        <ele>1.7</ele>
        <time>2020-06-23T10:15:52Z</time>
      </trkpt>
      <trkpt lat="50.99582" lon="2.17871">
        <ele>1.7</ele>
        <time>2020-06-23T10:15:53Z</time>
      </trkpt>
      <trkpt lat="50.99582" lon="2.17882">
        <ele>1.7</ele>
        <time>2020-06-23T10:15:54Z</time>
      </trkpt>
      <trkpt lat="50.99581" lon="2.17892">
        <ele>1.7</ele>
        <time>2020-06-23T10:15:55Z</time>
      </trkpt>
      <trkpt lat="50.99582" lon="2.17903">
        <ele>1.7</ele>
        <time>2020-06-23T10:15:56Z</time>
      </trkpt>
      <trkpt lat="50.99581" lon="2.17913">
        <ele>1.7</ele>
        <time>2020-06-23T10:15:57Z</time>
      </trkpt>
      <trkpt lat="50.99581" lon="2.17923">
        <ele>1.7</ele>
        <time>2020-06-23T10:15:58Z</time>
      </trkpt>
      <trkpt lat="50.99581" lon="2.17934">
        <ele>1.7</ele>
        <time>2020-06-23T10:15:59Z</time>
      </trkpt>
      <trkpt lat="50.9958" lon="2.17944">
        <ele>1.7</ele>
        <time>2020-06-23T10:16:00Z</time>
      </trkpt>
      <trkpt lat="50.99579" lon="2.17955">
        <ele>1.7</ele>
        <time>2020-06-23T10:16:01Z</time>
      </trkpt>
      <trkpt lat="50.9958" lon="2.17965">
        <ele>1.7</ele>
        <time>2020-06-23T10:16:02Z</time>
      </trkpt>
      <trkpt lat="50.99579" lon="2.17976">
        <ele>1.7</ele>
        <time>2020-06-23T10:16:03Z</time>
      </trkpt>
      <trkpt lat="50.99579" lon="2.17987">
        <ele>1.7</ele>
        <time>2020-06-23T10:16:04Z</time>
      </trkpt>
      <trkpt lat="50.99579" lon="2.17998">
        <ele>1.7</ele>
        <time>2020-06-23T10:16:05Z</time>
      </trkpt>
      <trkpt lat="50.99579" lon="2.18009">
        <ele>1.7</ele>
        <time>2020-06-23T10:16:06Z</time>
      </trkpt>
      <trkpt lat="50.99578" lon="2.1802">
        <ele>1.7</ele>
        <time>2020-06-23T10:16:07Z</time>
      </trkpt>
      <trkpt lat="50.99578" lon="2.1803">
        <ele>1.7</ele>
        <time>2020-06-23T10:16:08Z</time>
      </trkpt>
      <trkpt lat="50.99578" lon="2.18041">
        <ele>1.7</ele>
        <time>2020-06-23T10:16:09Z</time>
      </trkpt>
      <trkpt lat="50.99578" lon="2.18052">
        <ele>1.7</ele>
        <time>2020-06-23T10:16:10Z</time>
      </trkpt>
      <trkpt lat="50.99578" lon="2.18063">
        <ele>1.7</ele>
        <time>2020-06-23T10:16:11Z</time>
      </trkpt>
      <trkpt lat="50.99577" lon="2.18073">
        <ele>1.7</ele>
        <time>2020-06-23T10:16:12Z</time>
      </trkpt>
      <trkpt lat="50.99578" lon="2.18084">
        <ele>1.7</ele>
        <time>2020-06-23T10:16:13Z</time>
      </trkpt>
      <trkpt lat="50.99578" lon="2.18095">
        <ele>1.7</ele>
        <time>2020-06-23T10:16:14Z</time>
      </trkpt>
      <trkpt lat="50.99578" lon="2.18105">
        <ele>1.7</ele>
        <time>2020-06-23T10:16:15Z</time>
      </trkpt>
      <trkpt lat="50.99578" lon="2.18116">
        <ele>1.7</ele>
        <time>2020-06-23T10:16:16Z</time>
      </trkpt>
      <trkpt lat="50.99578" lon="2.18126">
        <ele>1.7</ele>
        <time>2020-06-23T10:16:17Z</time>
      </trkpt>
      <trkpt lat="50.99578" lon="2.18137">
        <ele>1.7</ele>
        <time>2020-06-23T10:16:18Z</time>
      </trkpt>
      <trkpt lat="50.99578" lon="2.18147">
        <ele>1.7</ele>
        <time>2020-06-23T10:16:19Z</time>
      </trkpt>
      <trkpt lat="50.99578" lon="2.18158">
        <ele>1.7</ele>
        <time>2020-06-23T10:16:20Z</time>
      </trkpt>
      <trkpt lat="50.99578" lon="2.18168">
        <ele>1.7</ele>
        <time>2020-06-23T10:16:21Z</time>
      </trkpt>
      <trkpt lat="50.99578" lon="2.18179">
        <ele>1.6</ele>
        <time>2020-06-23T10:16:22Z</time>
      </trkpt>
      <trkpt lat="50.99578" lon="2.1819">
        <ele>1.6</ele>
        <time>2020-06-23T10:16:23Z</time>
      </trkpt>
      <trkpt lat="50.99579" lon="2.18201">
        <ele>1.6</ele>
        <time>2020-06-23T10:16:24Z</time>
      </trkpt>
      <trkpt lat="50.99579" lon="2.18211">
        <ele>1.6</ele>
        <time>2020-06-23T10:16:25Z</time>
      </trkpt>
      <trkpt lat="50.99579" lon="2.18222">
        <ele>1.6</ele>
        <time>2020-06-23T10:16:26Z</time>
      </trkpt>
      <trkpt lat="50.99579" lon="2.18233">
        <ele>1.6</ele>
        <time>2020-06-23T10:16:27Z</time>
      </trkpt>
      <trkpt lat="50.99579" lon="2.18244">
        <ele>1.6</ele>
        <time>2020-06-23T10:16:28Z</time>
      </trkpt>
      <trkpt lat="50.99579" lon="2.18254">
        <ele>1.6</ele>
        <time>2020-06-23T10:16:29Z</time>
      </trkpt>
      <trkpt lat="50.99579" lon="2.18265">
        <ele>1.6</ele>
        <time>2020-06-23T10:16:30Z</time>
      </trkpt>
      <trkpt lat="50.99578" lon="2.18276">
        <ele>1.6</ele>
        <time>2020-06-23T10:16:31Z</time>
      </trkpt>
      <trkpt lat="50.99578" lon="2.18286">
        <ele>1.6</ele>
        <time>2020-06-23T10:16:32Z</time>
      </trkpt>
      <trkpt lat="50.99577" lon="2.18297">
        <ele>1.6</ele>
        <time>2020-06-23T10:16:33Z</time>
      </trkpt>
      <trkpt lat="50.99577" lon="2.18308">
        <ele>1.6</ele>
        <time>2020-06-23T10:16:34Z</time>
      </trkpt>
      <trkpt lat="50.99577" lon="2.18318">
        <ele>1.6</ele>
        <time>2020-06-23T10:16:35Z</time>
      </trkpt>
      <trkpt lat="50.99577" lon="2.18329">
        <ele>1.5</ele>
        <time>2020-06-23T10:16:36Z</time>
      </trkpt>
      <trkpt lat="50.99577" lon="2.1834">
        <ele>1.5</ele>
        <time>2020-06-23T10:16:37Z</time>
      </trkpt>
      <trkpt lat="50.99577" lon="2.1835">
        <ele>1.5</ele>
        <time>2020-06-23T10:16:38Z</time>
      </trkpt>
      <trkpt lat="50.99577" lon="2.18361">
        <ele>1.5</ele>
        <time>2020-06-23T10:16:39Z</time>
      </trkpt>
      <trkpt lat="50.99577" lon="2.18372">
        <ele>1.5</ele>
        <time>2020-06-23T10:16:40Z</time>
      </trkpt>
      <trkpt lat="50.99577" lon="2.18384">
        <ele>1.5</ele>
        <time>2020-06-23T10:16:41Z</time>
      </trkpt>
      <trkpt lat="50.99577" lon="2.18395">
        <ele>1.6</ele>
        <time>2020-06-23T10:16:42Z</time>
      </trkpt>
      <trkpt lat="50.99577" lon="2.18406">
        <ele>1.6</ele>
        <time>2020-06-23T10:16:43Z</time>
      </trkpt>
      <trkpt lat="50.99577" lon="2.18417">
        <ele>1.5</ele>
        <time>2020-06-23T10:16:44Z</time>
      </trkpt>
      <trkpt lat="50.99577" lon="2.18428">
        <ele>1.5</ele>
        <time>2020-06-23T10:16:45Z</time>
      </trkpt>
      <trkpt lat="50.99577" lon="2.18439">
        <ele>1.5</ele>
        <time>2020-06-23T10:16:46Z</time>
      </trkpt>
      <trkpt lat="50.99576" lon="2.1845">
        <ele>1.5</ele>
        <time>2020-06-23T10:16:47Z</time>
      </trkpt>
      <trkpt lat="50.99576" lon="2.18462">
        <ele>1.5</ele>
        <time>2020-06-23T10:16:48Z</time>
      </trkpt>
      <trkpt lat="50.99576" lon="2.18473">
        <ele>1.6</ele>
        <time>2020-06-23T10:16:49Z</time>
      </trkpt>
      <trkpt lat="50.99576" lon="2.18484">
        <ele>1.6</ele>
        <time>2020-06-23T10:16:50Z</time>
      </trkpt>
      <trkpt lat="50.99576" lon="2.18495">
        <ele>1.6</ele>
        <time>2020-06-23T10:16:51Z</time>
      </trkpt>
      <trkpt lat="50.99576" lon="2.18506">
        <ele>1.6</ele>
        <time>2020-06-23T10:16:52Z</time>
      </trkpt>
      <trkpt lat="50.99576" lon="2.18517">
        <ele>1.6</ele>
        <time>2020-06-23T10:16:53Z</time>
      </trkpt>
      <trkpt lat="50.99576" lon="2.18528">
        <ele>1.6</ele>
        <time>2020-06-23T10:16:54Z</time>
      </trkpt>
      <trkpt lat="50.99575" lon="2.18539">
        <ele>1.6</ele>
        <time>2020-06-23T10:16:55Z</time>
      </trkpt>
      <trkpt lat="50.99575" lon="2.18551">
        <ele>1.6</ele>
        <time>2020-06-23T10:16:56Z</time>
      </trkpt>
      <trkpt lat="50.99575" lon="2.18562">
        <ele>1.6</ele>
        <time>2020-06-23T10:16:57Z</time>
      </trkpt>
      <trkpt lat="50.99575" lon="2.18573">
        <ele>1.6</ele>
        <time>2020-06-23T10:16:58Z</time>
      </trkpt>
      <trkpt lat="50.99574" lon="2.18584">
        <ele>1.7</ele>
        <time>2020-06-23T10:16:59Z</time>
      </trkpt>
      <trkpt lat="50.99574" lon="2.18595">
        <ele>1.7</ele>
        <time>2020-06-23T10:17:00Z</time>
      </trkpt>
      <trkpt lat="50.99573" lon="2.18606">
        <ele>1.7</ele>
        <time>2020-06-23T10:17:01Z</time>
      </trkpt>
      <trkpt lat="50.99573" lon="2.18618">
        <ele>1.7</ele>
        <time>2020-06-23T10:17:02Z</time>
      </trkpt>
      <trkpt lat="50.99573" lon="2.18629">
        <ele>1.7</ele>
        <time>2020-06-23T10:17:03Z</time>
      </trkpt>
      <trkpt lat="50.99573" lon="2.1864">
        <ele>1.7</ele>
        <time>2020-06-23T10:17:04Z</time>
      </trkpt>
      <trkpt lat="50.99573" lon="2.1865">
        <ele>1.7</ele>
        <time>2020-06-23T10:17:05Z</time>
      </trkpt>
      <trkpt lat="50.99573" lon="2.18661">
        <ele>1.7</ele>
        <time>2020-06-23T10:17:06Z</time>
      </trkpt>
      <trkpt lat="50.99573" lon="2.18672">
        <ele>1.7</ele>
        <time>2020-06-23T10:17:07Z</time>
      </trkpt>
      <trkpt lat="50.99572" lon="2.18682">
        <ele>1.7</ele>
        <time>2020-06-23T10:17:08Z</time>
      </trkpt>
      <trkpt lat="50.99572" lon="2.18693">
        <ele>1.7</ele>
        <time>2020-06-23T10:17:09Z</time>
      </trkpt>
      <trkpt lat="50.99572" lon="2.18704">
        <ele>1.8</ele>
        <time>2020-06-23T10:17:10Z</time>
      </trkpt>
      <trkpt lat="50.99572" lon="2.18714">
        <ele>1.8</ele>
        <time>2020-06-23T10:17:11Z</time>
      </trkpt>
      <trkpt lat="50.99571" lon="2.18725">
        <ele>1.8</ele>
        <time>2020-06-23T10:17:12Z</time>
      </trkpt>
      <trkpt lat="50.99571" lon="2.18735">
        <ele>1.8</ele>
        <time>2020-06-23T10:17:13Z</time>
      </trkpt>
      <trkpt lat="50.99571" lon="2.18745">
        <ele>1.8</ele>
        <time>2020-06-23T10:17:14Z</time>
      </trkpt>
      <trkpt lat="50.99571" lon="2.18756">
        <ele>1.8</ele>
        <time>2020-06-23T10:17:15Z</time>
      </trkpt>
      <trkpt lat="50.99571" lon="2.18767">
        <ele>1.8</ele>
        <time>2020-06-23T10:17:16Z</time>
      </trkpt>
      <trkpt lat="50.99571" lon="2.18778">
        <ele>1.8</ele>
        <time>2020-06-23T10:17:17Z</time>
      </trkpt>
      <trkpt lat="50.99572" lon="2.18789">
        <ele>1.9</ele>
        <time>2020-06-23T10:17:18Z</time>
      </trkpt>
      <trkpt lat="50.99572" lon="2.188">
        <ele>1.9</ele>
        <time>2020-06-23T10:17:19Z</time>
      </trkpt>
      <trkpt lat="50.99571" lon="2.18811">
        <ele>1.9</ele>
        <time>2020-06-23T10:17:20Z</time>
      </trkpt>
      <trkpt lat="50.99571" lon="2.18822">
        <ele>1.9</ele>
        <time>2020-06-23T10:17:21Z</time>
      </trkpt>
      <trkpt lat="50.99571" lon="2.18833">
        <ele>1.9</ele>
        <time>2020-06-23T10:17:22Z</time>
      </trkpt>
      <trkpt lat="50.99571" lon="2.18844">
        <ele>1.9</ele>
        <time>2020-06-23T10:17:23Z</time>
      </trkpt>
      <trkpt lat="50.99571" lon="2.18855">
        <ele>1.9</ele>
        <time>2020-06-23T10:17:24Z</time>
      </trkpt>
      <trkpt lat="50.99571" lon="2.18866">
        <ele>1.9</ele>
        <time>2020-06-23T10:17:25Z</time>
      </trkpt>
      <trkpt lat="50.99571" lon="2.18877">
        <ele>1.9</ele>
        <time>2020-06-23T10:17:26Z</time>
      </trkpt>
      <trkpt lat="50.9957" lon="2.18888">
        <ele>1.9</ele>
        <time>2020-06-23T10:17:27Z</time>
      </trkpt>
      <trkpt lat="50.9957" lon="2.18899">
        <ele>1.9</ele>
        <time>2020-06-23T10:17:28Z</time>
      </trkpt>
      <trkpt lat="50.9957" lon="2.1891">
        <ele>1.9</ele>
        <time>2020-06-23T10:17:29Z</time>
      </trkpt>
      <trkpt lat="50.9957" lon="2.18921">
        <ele>1.8</ele>
        <time>2020-06-23T10:17:30Z</time>
      </trkpt>
      <trkpt lat="50.9957" lon="2.18932">
        <ele>1.8</ele>
        <time>2020-06-23T10:17:31Z</time>
      </trkpt>
      <trkpt lat="50.9957" lon="2.18943">
        <ele>1.8</ele>
        <time>2020-06-23T10:17:32Z</time>
      </trkpt>
      <trkpt lat="50.9957" lon="2.18954">
        <ele>1.9</ele>
        <time>2020-06-23T10:17:33Z</time>
      </trkpt>
      <trkpt lat="50.9957" lon="2.18965">
        <ele>1.9</ele>
        <time>2020-06-23T10:17:34Z</time>
      </trkpt>
      <trkpt lat="50.9957" lon="2.18976">
        <ele>1.9</ele>
        <time>2020-06-23T10:17:35Z</time>
      </trkpt>
      <trkpt lat="50.9957" lon="2.18987">
        <ele>1.9</ele>
        <time>2020-06-23T10:17:36Z</time>
      </trkpt>
      <trkpt lat="50.99569" lon="2.18998">
        <ele>1.9</ele>
        <time>2020-06-23T10:17:37Z</time>
      </trkpt>
      <trkpt lat="50.99569" lon="2.19009">
        <ele>1.9</ele>
        <time>2020-06-23T10:17:38Z</time>
      </trkpt>
      <trkpt lat="50.99569" lon="2.1902">
        <ele>1.9</ele>
        <time>2020-06-23T10:17:39Z</time>
      </trkpt>
      <trkpt lat="50.99568" lon="2.19031">
        <ele>1.9</ele>
        <time>2020-06-23T10:17:40Z</time>
      </trkpt>
      <trkpt lat="50.99568" lon="2.19042">
        <ele>1.9</ele>
        <time>2020-06-23T10:17:41Z</time>
      </trkpt>
      <trkpt lat="50.99568" lon="2.19053">
        <ele>1.9</ele>
        <time>2020-06-23T10:17:42Z</time>
      </trkpt>
      <trkpt lat="50.99568" lon="2.19065">
        <ele>2</ele>
        <time>2020-06-23T10:17:43Z</time>
      </trkpt>
      <trkpt lat="50.99568" lon="2.19076">
        <ele>2.1</ele>
        <time>2020-06-23T10:17:44Z</time>
      </trkpt>
      <trkpt lat="50.99568" lon="2.19088">
        <ele>2.2</ele>
        <time>2020-06-23T10:17:45Z</time>
      </trkpt>
      <trkpt lat="50.99569" lon="2.19099">
        <ele>2.2</ele>
        <time>2020-06-23T10:17:46Z</time>
      </trkpt>
      <trkpt lat="50.99568" lon="2.1911">
        <ele>2.1</ele>
        <time>2020-06-23T10:17:47Z</time>
      </trkpt>
      <trkpt lat="50.99569" lon="2.19122">
        <ele>2</ele>
        <time>2020-06-23T10:17:48Z</time>
      </trkpt>
      <trkpt lat="50.99569" lon="2.19133">
        <ele>2</ele>
        <time>2020-06-23T10:17:49Z</time>
      </trkpt>
      <trkpt lat="50.99568" lon="2.19144">
        <ele>2</ele>
        <time>2020-06-23T10:17:50Z</time>
      </trkpt>
      <trkpt lat="50.99568" lon="2.19156">
        <ele>2</ele>
        <time>2020-06-23T10:17:51Z</time>
      </trkpt>
      <trkpt lat="50.99568" lon="2.19168">
        <ele>1.9</ele>
        <time>2020-06-23T10:17:52Z</time>
      </trkpt>
      <trkpt lat="50.99568" lon="2.19179">
        <ele>1.9</ele>
        <time>2020-06-23T10:17:53Z</time>
      </trkpt>
      <trkpt lat="50.99568" lon="2.19191">
        <ele>2</ele>
        <time>2020-06-23T10:17:54Z</time>
      </trkpt>
      <trkpt lat="50.99569" lon="2.19203">
        <ele>2</ele>
        <time>2020-06-23T10:17:55Z</time>
      </trkpt>
      <trkpt lat="50.99569" lon="2.19214">
        <ele>2.1</ele>
        <time>2020-06-23T10:17:56Z</time>
      </trkpt>
      <trkpt lat="50.99568" lon="2.19226">
        <ele>2.2</ele>
        <time>2020-06-23T10:17:57Z</time>
      </trkpt>
      <trkpt lat="50.99568" lon="2.19238">
        <ele>2.2</ele>
        <time>2020-06-23T10:17:58Z</time>
      </trkpt>
      <trkpt lat="50.99568" lon="2.1925">
        <ele>2.1</ele>
        <time>2020-06-23T10:17:59Z</time>
      </trkpt>
      <trkpt lat="50.99568" lon="2.19261">
        <ele>2</ele>
        <time>2020-06-23T10:18:00Z</time>
      </trkpt>
      <trkpt lat="50.99568" lon="2.19273">
        <ele>1.9</ele>
        <time>2020-06-23T10:18:01Z</time>
      </trkpt>
      <trkpt lat="50.99567" lon="2.19284">
        <ele>1.9</ele>
        <time>2020-06-23T10:18:02Z</time>
      </trkpt>
      <trkpt lat="50.99567" lon="2.19296">
        <ele>1.8</ele>
        <time>2020-06-23T10:18:03Z</time>
      </trkpt>
      <trkpt lat="50.99567" lon="2.19307">
        <ele>1.8</ele>
        <time>2020-06-23T10:18:04Z</time>
      </trkpt>
      <trkpt lat="50.99567" lon="2.19318">
        <ele>1.7</ele>
        <time>2020-06-23T10:18:05Z</time>
      </trkpt>
      <trkpt lat="50.99567" lon="2.19329">
        <ele>1.7</ele>
        <time>2020-06-23T10:18:06Z</time>
      </trkpt>
      <trkpt lat="50.99567" lon="2.1934">
        <ele>1.7</ele>
        <time>2020-06-23T10:18:07Z</time>
      </trkpt>
      <trkpt lat="50.99566" lon="2.19351">
        <ele>1.7</ele>
        <time>2020-06-23T10:18:08Z</time>
      </trkpt>
      <trkpt lat="50.99566" lon="2.19362">
        <ele>1.7</ele>
        <time>2020-06-23T10:18:09Z</time>
      </trkpt>
      <trkpt lat="50.99567" lon="2.19373">
        <ele>1.7</ele>
        <time>2020-06-23T10:18:10Z</time>
      </trkpt>
      <trkpt lat="50.99567" lon="2.19384">
        <ele>1.7</ele>
        <time>2020-06-23T10:18:11Z</time>
      </trkpt>
      <trkpt lat="50.99567" lon="2.19394">
        <ele>1.7</ele>
        <time>2020-06-23T10:18:12Z</time>
      </trkpt>
      <trkpt lat="50.99566" lon="2.19405">
        <ele>1.8</ele>
        <time>2020-06-23T10:18:13Z</time>
      </trkpt>
      <trkpt lat="50.99566" lon="2.19416">
        <ele>1.9</ele>
        <time>2020-06-23T10:18:14Z</time>
      </trkpt>
      <trkpt lat="50.99566" lon="2.19427">
        <ele>2.1</ele>
        <time>2020-06-23T10:18:15Z</time>
      </trkpt>
      <trkpt lat="50.99566" lon="2.19438">
        <ele>2.2</ele>
        <time>2020-06-23T10:18:16Z</time>
      </trkpt>
      <trkpt lat="50.99566" lon="2.19448">
        <ele>2.3</ele>
        <time>2020-06-23T10:18:17Z</time>
      </trkpt>
      <trkpt lat="50.99566" lon="2.19459">
        <ele>2.3</ele>
        <time>2020-06-23T10:18:18Z</time>
      </trkpt>
      <trkpt lat="50.99565" lon="2.1947">
        <ele>2.3</ele>
        <time>2020-06-23T10:18:19Z</time>
      </trkpt>
      <trkpt lat="50.99565" lon="2.1948">
        <ele>2.4</ele>
        <time>2020-06-23T10:18:20Z</time>
      </trkpt>
      <trkpt lat="50.99565" lon="2.19491">
        <ele>2.4</ele>
        <time>2020-06-23T10:18:21Z</time>
      </trkpt>
      <trkpt lat="50.99565" lon="2.19501">
        <ele>2.4</ele>
        <time>2020-06-23T10:18:22Z</time>
      </trkpt>
      <trkpt lat="50.99565" lon="2.19512">
        <ele>2.4</ele>
        <time>2020-06-23T10:18:23Z</time>
      </trkpt>
      <trkpt lat="50.99565" lon="2.19522">
        <ele>2.4</ele>
        <time>2020-06-23T10:18:24Z</time>
      </trkpt>
      <trkpt lat="50.99565" lon="2.19533">
        <ele>2.5</ele>
        <time>2020-06-23T10:18:25Z</time>
      </trkpt>
      <trkpt lat="50.99564" lon="2.19544">
        <ele>2.5</ele>
        <time>2020-06-23T10:18:26Z</time>
      </trkpt>
      <trkpt lat="50.99564" lon="2.19554">
        <ele>2.5</ele>
        <time>2020-06-23T10:18:27Z</time>
      </trkpt>
      <trkpt lat="50.99564" lon="2.19565">
        <ele>2.5</ele>
        <time>2020-06-23T10:18:28Z</time>
      </trkpt>
      <trkpt lat="50.99564" lon="2.19576">
        <ele>2.6</ele>
        <time>2020-06-23T10:18:29Z</time>
      </trkpt>
      <trkpt lat="50.99564" lon="2.19587">
        <ele>2.6</ele>
        <time>2020-06-23T10:18:30Z</time>
      </trkpt>
      <trkpt lat="50.99564" lon="2.19598">
        <ele>2.6</ele>
        <time>2020-06-23T10:18:31Z</time>
      </trkpt>
      <trkpt lat="50.99563" lon="2.19608">
        <ele>2.6</ele>
        <time>2020-06-23T10:18:32Z</time>
      </trkpt>
      <trkpt lat="50.99562" lon="2.19619">
        <ele>2.6</ele>
        <time>2020-06-23T10:18:33Z</time>
      </trkpt>
      <trkpt lat="50.99562" lon="2.1963">
        <ele>2.7</ele>
        <time>2020-06-23T10:18:34Z</time>
      </trkpt>
      <trkpt lat="50.99561" lon="2.19641">
        <ele>2.7</ele>
        <time>2020-06-23T10:18:35Z</time>
      </trkpt>
      <trkpt lat="50.9956" lon="2.19652">
        <ele>2.7</ele>
        <time>2020-06-23T10:18:36Z</time>
      </trkpt>
      <trkpt lat="50.99559" lon="2.19662">
        <ele>2.8</ele>
        <time>2020-06-23T10:18:37Z</time>
      </trkpt>
      <trkpt lat="50.99557" lon="2.19673">
        <ele>2.7</ele>
        <time>2020-06-23T10:18:38Z</time>
      </trkpt>
      <trkpt lat="50.99556" lon="2.19684">
        <ele>2.5</ele>
        <time>2020-06-23T10:18:39Z</time>
      </trkpt>
      <trkpt lat="50.99555" lon="2.19695">
        <ele>2.1</ele>
        <time>2020-06-23T10:18:40Z</time>
      </trkpt>
      <trkpt lat="50.99552" lon="2.19705">
        <ele>1.9</ele>
        <time>2020-06-23T10:18:41Z</time>
      </trkpt>
      <trkpt lat="50.9955" lon="2.19715">
        <ele>1.8</ele>
        <time>2020-06-23T10:18:42Z</time>
      </trkpt>
      <trkpt lat="50.99547" lon="2.19725">
        <ele>1.8</ele>
        <time>2020-06-23T10:18:43Z</time>
      </trkpt>
      <trkpt lat="50.99544" lon="2.19734">
        <ele>1.9</ele>
        <time>2020-06-23T10:18:44Z</time>
      </trkpt>
      <trkpt lat="50.99542" lon="2.19744">
        <ele>2</ele>
        <time>2020-06-23T10:18:45Z</time>
      </trkpt>
      <trkpt lat="50.99539" lon="2.19753">
        <ele>2.1</ele>
        <time>2020-06-23T10:18:46Z</time>
      </trkpt>
      <trkpt lat="50.99536" lon="2.19763">
        <ele>2.2</ele>
        <time>2020-06-23T10:18:47Z</time>
      </trkpt>
      <trkpt lat="50.99533" lon="2.19773">
        <ele>2.3</ele>
        <time>2020-06-23T10:18:48Z</time>
      </trkpt>
      <trkpt lat="50.99531" lon="2.19782">
        <ele>2.4</ele>
        <time>2020-06-23T10:18:49Z</time>
      </trkpt>
      <trkpt lat="50.99528" lon="2.19791">
        <ele>2.5</ele>
        <time>2020-06-23T10:18:50Z</time>
      </trkpt>
      <trkpt lat="50.99525" lon="2.19801">
        <ele>2.6</ele>
        <time>2020-06-23T10:18:51Z</time>
      </trkpt>
      <trkpt lat="50.99523" lon="2.19811">
        <ele>2.7</ele>
        <time>2020-06-23T10:18:52Z</time>
      </trkpt>
      <trkpt lat="50.99522" lon="2.19821">
        <ele>2.8</ele>
        <time>2020-06-23T10:18:53Z</time>
      </trkpt>
      <trkpt lat="50.9952" lon="2.19831">
        <ele>2.9</ele>
        <time>2020-06-23T10:18:54Z</time>
      </trkpt>
      <trkpt lat="50.99518" lon="2.19841">
        <ele>3</ele>
        <time>2020-06-23T10:18:55Z</time>
      </trkpt>
      <trkpt lat="50.99518" lon="2.19851">
        <ele>3.1</ele>
        <time>2020-06-23T10:18:56Z</time>
      </trkpt>
      <trkpt lat="50.99516" lon="2.19861">
        <ele>3.2</ele>
        <time>2020-06-23T10:18:57Z</time>
      </trkpt>
      <trkpt lat="50.99515" lon="2.19871">
        <ele>3.2</ele>
        <time>2020-06-23T10:18:58Z</time>
      </trkpt>
      <trkpt lat="50.99515" lon="2.19881">
        <ele>3</ele>
        <time>2020-06-23T10:18:59Z</time>
      </trkpt>
      <trkpt lat="50.99514" lon="2.19891">
        <ele>3</ele>
        <time>2020-06-23T10:19:00Z</time>
      </trkpt>
      <trkpt lat="50.99514" lon="2.19901">
        <ele>3</ele>
        <time>2020-06-23T10:19:01Z</time>
      </trkpt>
      <trkpt lat="50.99513" lon="2.19911">
        <ele>3</ele>
        <time>2020-06-23T10:19:02Z</time>
      </trkpt>
      <trkpt lat="50.99513" lon="2.1992">
        <ele>3</ele>
        <time>2020-06-23T10:19:03Z</time>
      </trkpt>
      <trkpt lat="50.99514" lon="2.19931">
        <ele>3</ele>
        <time>2020-06-23T10:19:04Z</time>
      </trkpt>
      <trkpt lat="50.99514" lon="2.19941">
        <ele>3</ele>
        <time>2020-06-23T10:19:05Z</time>
      </trkpt>
      <trkpt lat="50.99514" lon="2.19951">
        <ele>3</ele>
        <time>2020-06-23T10:19:06Z</time>
      </trkpt>
      <trkpt lat="50.99515" lon="2.19962">
        <ele>3</ele>
        <time>2020-06-23T10:19:07Z</time>
      </trkpt>
      <trkpt lat="50.99516" lon="2.19972">
        <ele>2.9</ele>
        <time>2020-06-23T10:19:08Z</time>
      </trkpt>
      <trkpt lat="50.99516" lon="2.19983">
        <ele>2.9</ele>
        <time>2020-06-23T10:19:09Z</time>
      </trkpt>
      <trkpt lat="50.99517" lon="2.19993">
        <ele>2.9</ele>
        <time>2020-06-23T10:19:10Z</time>
      </trkpt>
      <trkpt lat="50.99517" lon="2.20002">
        <ele>2.9</ele>
        <time>2020-06-23T10:19:11Z</time>
      </trkpt>
      <trkpt lat="50.99517" lon="2.20011">
        <ele>2.9</ele>
        <time>2020-06-23T10:19:12Z</time>
      </trkpt>
      <trkpt lat="50.99516" lon="2.2002">
        <ele>3</ele>
        <time>2020-06-23T10:19:13Z</time>
      </trkpt>
      <trkpt lat="50.99516" lon="2.20029">
        <ele>3</ele>
        <time>2020-06-23T10:19:14Z</time>
      </trkpt>
      <trkpt lat="50.99515" lon="2.20039">
        <ele>3</ele>
        <time>2020-06-23T10:19:15Z</time>
      </trkpt>
      <trkpt lat="50.99512" lon="2.20049">
        <ele>2.9</ele>
        <time>2020-06-23T10:19:16Z</time>
      </trkpt>
      <trkpt lat="50.99507" lon="2.20055">
        <ele>3</ele>
        <time>2020-06-23T10:19:17Z</time>
      </trkpt>
      <trkpt lat="50.99502" lon="2.20062">
        <ele>3</ele>
        <time>2020-06-23T10:19:18Z</time>
      </trkpt>
      <trkpt lat="50.99496" lon="2.20067">
        <ele>3</ele>
        <time>2020-06-23T10:19:19Z</time>
      </trkpt>
      <trkpt lat="50.99492" lon="2.20072">
        <ele>3</ele>
        <time>2020-06-23T10:19:20Z</time>
      </trkpt>
      <trkpt lat="50.99488" lon="2.20079">
        <ele>3.1</ele>
        <time>2020-06-23T10:19:21Z</time>
      </trkpt>
      <trkpt lat="50.99484" lon="2.20088">
        <ele>3.2</ele>
        <time>2020-06-23T10:19:22Z</time>
      </trkpt>
      <trkpt lat="50.99482" lon="2.20097">
        <ele>3.2</ele>
        <time>2020-06-23T10:19:23Z</time>
      </trkpt>
      <trkpt lat="50.99481" lon="2.20106">
        <ele>3.7</ele>
        <time>2020-06-23T10:19:24Z</time>
      </trkpt>
      <trkpt lat="50.9948" lon="2.20116">
        <ele>3.5</ele>
        <time>2020-06-23T10:19:25Z</time>
      </trkpt>
      <trkpt lat="50.99481" lon="2.20128">
        <ele>3.4</ele>
        <time>2020-06-23T10:19:26Z</time>
      </trkpt>
      <trkpt lat="50.99482" lon="2.20139">
        <ele>3.2</ele>
        <time>2020-06-23T10:19:27Z</time>
      </trkpt>
      <trkpt lat="50.99484" lon="2.20149">
        <ele>3.1</ele>
        <time>2020-06-23T10:19:28Z</time>
      </trkpt>
      <trkpt lat="50.99487" lon="2.20158">
        <ele>3</ele>
        <time>2020-06-23T10:19:29Z</time>
      </trkpt>
      <trkpt lat="50.99489" lon="2.20166">
        <ele>2.9</ele>
        <time>2020-06-23T10:19:30Z</time>
      </trkpt>
      <trkpt lat="50.99494" lon="2.20175">
        <ele>2.8</ele>
        <time>2020-06-23T10:19:31Z</time>
      </trkpt>
      <trkpt lat="50.99498" lon="2.20181">
        <ele>2.8</ele>
        <time>2020-06-23T10:19:32Z</time>
      </trkpt>
      <trkpt lat="50.99502" lon="2.20187">
        <ele>2.8</ele>
        <time>2020-06-23T10:19:33Z</time>
      </trkpt>
      <trkpt lat="50.99507" lon="2.20192">
        <ele>2.7</ele>
        <time>2020-06-23T10:19:34Z</time>
      </trkpt>
      <trkpt lat="50.99512" lon="2.20196">
        <ele>2.7</ele>
        <time>2020-06-23T10:19:35Z</time>
      </trkpt>
      <trkpt lat="50.99518" lon="2.20201">
        <ele>2.7</ele>
        <time>2020-06-23T10:19:36Z</time>
      </trkpt>
      <trkpt lat="50.99523" lon="2.20205">
        <ele>2.6</ele>
        <time>2020-06-23T10:19:37Z</time>
      </trkpt>
      <trkpt lat="50.99529" lon="2.20212">
        <ele>2.6</ele>
        <time>2020-06-23T10:19:38Z</time>
      </trkpt>
      <trkpt lat="50.99533" lon="2.20218">
        <ele>2.6</ele>
        <time>2020-06-23T10:19:39Z</time>
      </trkpt>
      <trkpt lat="50.99536" lon="2.20228">
        <ele>2.6</ele>
        <time>2020-06-23T10:19:40Z</time>
      </trkpt>
      <trkpt lat="50.99537" lon="2.20236">
        <ele>2.6</ele>
        <time>2020-06-23T10:19:41Z</time>
      </trkpt>
      <trkpt lat="50.99539" lon="2.20247">
        <ele>2.6</ele>
        <time>2020-06-23T10:19:42Z</time>
      </trkpt>
      <trkpt lat="50.9954" lon="2.20258">
        <ele>2.5</ele>
        <time>2020-06-23T10:19:43Z</time>
      </trkpt>
      <trkpt lat="50.99542" lon="2.2027">
        <ele>2.5</ele>
        <time>2020-06-23T10:19:44Z</time>
      </trkpt>
      <trkpt lat="50.99543" lon="2.20281">
        <ele>2.4</ele>
        <time>2020-06-23T10:19:45Z</time>
      </trkpt>
      <trkpt lat="50.99544" lon="2.20292">
        <ele>2.4</ele>
        <time>2020-06-23T10:19:46Z</time>
      </trkpt>
      <trkpt lat="50.99545" lon="2.20303">
        <ele>2.3</ele>
        <time>2020-06-23T10:19:47Z</time>
      </trkpt>
      <trkpt lat="50.99546" lon="2.20314">
        <ele>2.3</ele>
        <time>2020-06-23T10:19:48Z</time>
      </trkpt>
      <trkpt lat="50.99547" lon="2.20323">
        <ele>2.2</ele>
        <time>2020-06-23T10:19:49Z</time>
      </trkpt>
      <trkpt lat="50.99548" lon="2.20333">
        <ele>2.2</ele>
        <time>2020-06-23T10:19:50Z</time>
      </trkpt>
      <trkpt lat="50.99548" lon="2.20343">
        <ele>2.2</ele>
        <time>2020-06-23T10:19:51Z</time>
      </trkpt>
      <trkpt lat="50.99549" lon="2.20353">
        <ele>2.2</ele>
        <time>2020-06-23T10:19:52Z</time>
      </trkpt>
      <trkpt lat="50.9955" lon="2.20362">
        <ele>2.2</ele>
        <time>2020-06-23T10:19:53Z</time>
      </trkpt>
      <trkpt lat="50.99551" lon="2.20372">
        <ele>2.2</ele>
        <time>2020-06-23T10:19:54Z</time>
      </trkpt>
      <trkpt lat="50.9955" lon="2.20381">
        <ele>2.2</ele>
        <time>2020-06-23T10:19:55Z</time>
      </trkpt>
      <trkpt lat="50.99548" lon="2.2039">
        <ele>2.3</ele>
        <time>2020-06-23T10:19:56Z</time>
      </trkpt>
      <trkpt lat="50.99546" lon="2.20398">
        <ele>2.3</ele>
        <time>2020-06-23T10:19:57Z</time>
      </trkpt>
      <trkpt lat="50.99546" lon="2.20408">
        <ele>2.3</ele>
        <time>2020-06-23T10:19:58Z</time>
      </trkpt>
      <trkpt lat="50.99548" lon="2.20415">
        <ele>2.4</ele>
        <time>2020-06-23T10:19:59Z</time>
      </trkpt>
      <trkpt lat="50.99551" lon="2.2042">
        <ele>2.3</ele>
        <time>2020-06-23T10:20:00Z</time>
      </trkpt>
      <trkpt lat="50.99553" lon="2.20426">
        <ele>2.3</ele>
        <time>2020-06-23T10:20:01Z</time>
      </trkpt>
      <trkpt lat="50.99553" lon="2.20434">
        <ele>2.2</ele>
        <time>2020-06-23T10:20:02Z</time>
      </trkpt>
      <trkpt lat="50.99553" lon="2.20444">
        <ele>2.2</ele>
        <time>2020-06-23T10:20:03Z</time>
      </trkpt>
      <trkpt lat="50.99553" lon="2.20453">
        <ele>2.2</ele>
        <time>2020-06-23T10:20:04Z</time>
      </trkpt>
      <trkpt lat="50.99553" lon="2.20462">
        <ele>2.1</ele>
        <time>2020-06-23T10:20:05Z</time>
      </trkpt>
      <trkpt lat="50.99553" lon="2.2047">
        <ele>2.1</ele>
        <time>2020-06-23T10:20:06Z</time>
      </trkpt>
      <trkpt lat="50.99553" lon="2.2048">
        <ele>2.1</ele>
        <time>2020-06-23T10:20:07Z</time>
      </trkpt>
      <trkpt lat="50.99552" lon="2.2049">
        <ele>2.1</ele>
        <time>2020-06-23T10:20:08Z</time>
      </trkpt>
      <trkpt lat="50.99552" lon="2.205">
        <ele>2.1</ele>
        <time>2020-06-23T10:20:09Z</time>
      </trkpt>
      <trkpt lat="50.99552" lon="2.20509">
        <ele>2.1</ele>
        <time>2020-06-23T10:20:10Z</time>
      </trkpt>
      <trkpt lat="50.99552" lon="2.20522">
        <ele>2.1</ele>
        <time>2020-06-23T10:20:11Z</time>
      </trkpt>
      <trkpt lat="50.99552" lon="2.20531">
        <ele>2.1</ele>
        <time>2020-06-23T10:20:12Z</time>
      </trkpt>
      <trkpt lat="50.99552" lon="2.2054">
        <ele>2.1</ele>
        <time>2020-06-23T10:20:13Z</time>
      </trkpt>
      <trkpt lat="50.99552" lon="2.2055">
        <ele>2.1</ele>
        <time>2020-06-23T10:20:14Z</time>
      </trkpt>
      <trkpt lat="50.99552" lon="2.2056">
        <ele>2.2</ele>
        <time>2020-06-23T10:20:15Z</time>
      </trkpt>
      <trkpt lat="50.99552" lon="2.20571">
        <ele>2.2</ele>
        <time>2020-06-23T10:20:16Z</time>
      </trkpt>
      <trkpt lat="50.99552" lon="2.20582">
        <ele>2.2</ele>
        <time>2020-06-23T10:20:17Z</time>
      </trkpt>
      <trkpt lat="50.99552" lon="2.20592">
        <ele>2.2</ele>
        <time>2020-06-23T10:20:18Z</time>
      </trkpt>
      <trkpt lat="50.99551" lon="2.20604">
        <ele>2.2</ele>
        <time>2020-06-23T10:20:19Z</time>
      </trkpt>
      <trkpt lat="50.99551" lon="2.20614">
        <ele>2.2</ele>
        <time>2020-06-23T10:20:20Z</time>
      </trkpt>
      <trkpt lat="50.99551" lon="2.20625">
        <ele>2.2</ele>
        <time>2020-06-23T10:20:21Z</time>
      </trkpt>
      <trkpt lat="50.99551" lon="2.20635">
        <ele>2.2</ele>
        <time>2020-06-23T10:20:22Z</time>
      </trkpt>
      <trkpt lat="50.99551" lon="2.20647">
        <ele>2.2</ele>
        <time>2020-06-23T10:20:23Z</time>
      </trkpt>
      <trkpt lat="50.9955" lon="2.20657">
        <ele>2.1</ele>
        <time>2020-06-23T10:20:24Z</time>
      </trkpt>
      <trkpt lat="50.9955" lon="2.20667">
        <ele>2.1</ele>
        <time>2020-06-23T10:20:25Z</time>
      </trkpt>
      <trkpt lat="50.9955" lon="2.20679">
        <ele>2.1</ele>
        <time>2020-06-23T10:20:26Z</time>
      </trkpt>
      <trkpt lat="50.99551" lon="2.2069">
        <ele>2.1</ele>
        <time>2020-06-23T10:20:27Z</time>
      </trkpt>
      <trkpt lat="50.9955" lon="2.20701">
        <ele>2.1</ele>
        <time>2020-06-23T10:20:28Z</time>
      </trkpt>
      <trkpt lat="50.9955" lon="2.20712">
        <ele>2</ele>
        <time>2020-06-23T10:20:29Z</time>
      </trkpt>
      <trkpt lat="50.9955" lon="2.20724">
        <ele>2.1</ele>
        <time>2020-06-23T10:20:30Z</time>
      </trkpt>
      <trkpt lat="50.9955" lon="2.20735">
        <ele>2.1</ele>
        <time>2020-06-23T10:20:31Z</time>
      </trkpt>
      <trkpt lat="50.9955" lon="2.20746">
        <ele>2.1</ele>
        <time>2020-06-23T10:20:32Z</time>
      </trkpt>
      <trkpt lat="50.9955" lon="2.20759">
        <ele>2.1</ele>
        <time>2020-06-23T10:20:33Z</time>
      </trkpt>
      <trkpt lat="50.99549" lon="2.20769">
        <ele>2.1</ele>
        <time>2020-06-23T10:20:34Z</time>
      </trkpt>
      <trkpt lat="50.99549" lon="2.2078">
        <ele>2.2</ele>
        <time>2020-06-23T10:20:35Z</time>
      </trkpt>
      <trkpt lat="50.9955" lon="2.20789">
        <ele>2.2</ele>
        <time>2020-06-23T10:20:36Z</time>
      </trkpt>
      <trkpt lat="50.99549" lon="2.20799">
        <ele>2.2</ele>
        <time>2020-06-23T10:20:37Z</time>
      </trkpt>
      <trkpt lat="50.99549" lon="2.20809">
        <ele>2.2</ele>
        <time>2020-06-23T10:20:38Z</time>
      </trkpt>
      <trkpt lat="50.99549" lon="2.20818">
        <ele>2.2</ele>
        <time>2020-06-23T10:20:39Z</time>
      </trkpt>
      <trkpt lat="50.99549" lon="2.20827">
        <ele>2.1</ele>
        <time>2020-06-23T10:20:40Z</time>
      </trkpt>
      <trkpt lat="50.99549" lon="2.20837">
        <ele>2.1</ele>
        <time>2020-06-23T10:20:41Z</time>
      </trkpt>
      <trkpt lat="50.99549" lon="2.20847">
        <ele>2.2</ele>
        <time>2020-06-23T10:20:42Z</time>
      </trkpt>
      <trkpt lat="50.99548" lon="2.20856">
        <ele>2.2</ele>
        <time>2020-06-23T10:20:43Z</time>
      </trkpt>
      <trkpt lat="50.99547" lon="2.20866">
        <ele>2.1</ele>
        <time>2020-06-23T10:20:44Z</time>
      </trkpt>
      <trkpt lat="50.99547" lon="2.20876">
        <ele>2.1</ele>
        <time>2020-06-23T10:20:45Z</time>
      </trkpt>
      <trkpt lat="50.99547" lon="2.20886">
        <ele>2.1</ele>
        <time>2020-06-23T10:20:46Z</time>
      </trkpt>
      <trkpt lat="50.99546" lon="2.20895">
        <ele>2</ele>
        <time>2020-06-23T10:20:47Z</time>
      </trkpt>
      <trkpt lat="50.99545" lon="2.20905">
        <ele>2</ele>
        <time>2020-06-23T10:20:48Z</time>
      </trkpt>
      <trkpt lat="50.99543" lon="2.20915">
        <ele>2</ele>
        <time>2020-06-23T10:20:49Z</time>
      </trkpt>
      <trkpt lat="50.99541" lon="2.20925">
        <ele>2</ele>
        <time>2020-06-23T10:20:50Z</time>
      </trkpt>
      <trkpt lat="50.99539" lon="2.20934">
        <ele>2</ele>
        <time>2020-06-23T10:20:51Z</time>
      </trkpt>
      <trkpt lat="50.99537" lon="2.20944">
        <ele>2.1</ele>
        <time>2020-06-23T10:20:52Z</time>
      </trkpt>
      <trkpt lat="50.99535" lon="2.20953">
        <ele>2.1</ele>
        <time>2020-06-23T10:20:53Z</time>
      </trkpt>
      <trkpt lat="50.99534" lon="2.20963">
        <ele>2.1</ele>
        <time>2020-06-23T10:20:54Z</time>
      </trkpt>
      <trkpt lat="50.99533" lon="2.20973">
        <ele>2.1</ele>
        <time>2020-06-23T10:20:55Z</time>
      </trkpt>
      <trkpt lat="50.99531" lon="2.20982">
        <ele>2.1</ele>
        <time>2020-06-23T10:20:56Z</time>
      </trkpt>
      <trkpt lat="50.99528" lon="2.20991">
        <ele>2.1</ele>
        <time>2020-06-23T10:20:57Z</time>
      </trkpt>
      <trkpt lat="50.99528" lon="2.21001">
        <ele>2.1</ele>
        <time>2020-06-23T10:20:58Z</time>
      </trkpt>
      <trkpt lat="50.99526" lon="2.21011">
        <ele>2.2</ele>
        <time>2020-06-23T10:20:59Z</time>
      </trkpt>
      <trkpt lat="50.99525" lon="2.21021">
        <ele>2.2</ele>
        <time>2020-06-23T10:21:00Z</time>
      </trkpt>
      <trkpt lat="50.99524" lon="2.21031">
        <ele>2.2</ele>
        <time>2020-06-23T10:21:01Z</time>
      </trkpt>
      <trkpt lat="50.99522" lon="2.2104">
        <ele>2.3</ele>
        <time>2020-06-23T10:21:02Z</time>
      </trkpt>
      <trkpt lat="50.99521" lon="2.2105">
        <ele>2.4</ele>
        <time>2020-06-23T10:21:03Z</time>
      </trkpt>
      <trkpt lat="50.9952" lon="2.21058">
        <ele>2.4</ele>
        <time>2020-06-23T10:21:04Z</time>
      </trkpt>
      <trkpt lat="50.99518" lon="2.21067">
        <ele>2.5</ele>
        <time>2020-06-23T10:21:05Z</time>
      </trkpt>
      <trkpt lat="50.99517" lon="2.21075">
        <ele>2.5</ele>
        <time>2020-06-23T10:21:06Z</time>
      </trkpt>
      <trkpt lat="50.99515" lon="2.21083">
        <ele>2.5</ele>
        <time>2020-06-23T10:21:07Z</time>
      </trkpt>
      <trkpt lat="50.99514" lon="2.21092">
        <ele>2.4</ele>
        <time>2020-06-23T10:21:08Z</time>
      </trkpt>
      <trkpt lat="50.99513" lon="2.21101">
        <ele>2.3</ele>
        <time>2020-06-23T10:21:09Z</time>
      </trkpt>
      <trkpt lat="50.99512" lon="2.2111">
        <ele>2.3</ele>
        <time>2020-06-23T10:21:10Z</time>
      </trkpt>
      <trkpt lat="50.99511" lon="2.21118">
        <ele>2.2</ele>
        <time>2020-06-23T10:21:11Z</time>
      </trkpt>
      <trkpt lat="50.9951" lon="2.21128">
        <ele>2.2</ele>
        <time>2020-06-23T10:21:12Z</time>
      </trkpt>
      <trkpt lat="50.99508" lon="2.21137">
        <ele>2.2</ele>
        <time>2020-06-23T10:21:13Z</time>
      </trkpt>
      <trkpt lat="50.99507" lon="2.21147">
        <ele>2.2</ele>
        <time>2020-06-23T10:21:14Z</time>
      </trkpt>
      <trkpt lat="50.99506" lon="2.21157">
        <ele>2.2</ele>
        <time>2020-06-23T10:21:15Z</time>
      </trkpt>
      <trkpt lat="50.99504" lon="2.21167">
        <ele>2.2</ele>
        <time>2020-06-23T10:21:16Z</time>
      </trkpt>
      <trkpt lat="50.99502" lon="2.21176">
        <ele>2.2</ele>
        <time>2020-06-23T10:21:17Z</time>
      </trkpt>
      <trkpt lat="50.99501" lon="2.21186">
        <ele>2.3</ele>
        <time>2020-06-23T10:21:18Z</time>
      </trkpt>
      <trkpt lat="50.99498" lon="2.21196">
        <ele>2.3</ele>
        <time>2020-06-23T10:21:19Z</time>
      </trkpt>
      <trkpt lat="50.99496" lon="2.21207">
        <ele>2.4</ele>
        <time>2020-06-23T10:21:20Z</time>
      </trkpt>
      <trkpt lat="50.99495" lon="2.21217">
        <ele>2.4</ele>
        <time>2020-06-23T10:21:21Z</time>
      </trkpt>
      <trkpt lat="50.99493" lon="2.21228">
        <ele>2.4</ele>
        <time>2020-06-23T10:21:22Z</time>
      </trkpt>
      <trkpt lat="50.99491" lon="2.21238">
        <ele>2.3</ele>
        <time>2020-06-23T10:21:23Z</time>
      </trkpt>
      <trkpt lat="50.99489" lon="2.21248">
        <ele>2.3</ele>
        <time>2020-06-23T10:21:24Z</time>
      </trkpt>
      <trkpt lat="50.99487" lon="2.21258">
        <ele>2.3</ele>
        <time>2020-06-23T10:21:25Z</time>
      </trkpt>
      <trkpt lat="50.99485" lon="2.21268">
        <ele>2.3</ele>
        <time>2020-06-23T10:21:26Z</time>
      </trkpt>
      <trkpt lat="50.99484" lon="2.21278">
        <ele>2.3</ele>
        <time>2020-06-23T10:21:27Z</time>
      </trkpt>
      <trkpt lat="50.99482" lon="2.21289">
        <ele>2.3</ele>
        <time>2020-06-23T10:21:28Z</time>
      </trkpt>
      <trkpt lat="50.9948" lon="2.21299">
        <ele>2.3</ele>
        <time>2020-06-23T10:21:29Z</time>
      </trkpt>
      <trkpt lat="50.99478" lon="2.21309">
        <ele>2.3</ele>
        <time>2020-06-23T10:21:30Z</time>
      </trkpt>
      <trkpt lat="50.99477" lon="2.21319">
        <ele>2.4</ele>
        <time>2020-06-23T10:21:31Z</time>
      </trkpt>
      <trkpt lat="50.99476" lon="2.21329">
        <ele>2.5</ele>
        <time>2020-06-23T10:21:32Z</time>
      </trkpt>
      <trkpt lat="50.99475" lon="2.21339">
        <ele>2.5</ele>
        <time>2020-06-23T10:21:33Z</time>
      </trkpt>
      <trkpt lat="50.99474" lon="2.21349">
        <ele>2.5</ele>
        <time>2020-06-23T10:21:34Z</time>
      </trkpt>
      <trkpt lat="50.99472" lon="2.21358">
        <ele>2.4</ele>
        <time>2020-06-23T10:21:35Z</time>
      </trkpt>
      <trkpt lat="50.99472" lon="2.21369">
        <ele>2.4</ele>
        <time>2020-06-23T10:21:36Z</time>
      </trkpt>
      <trkpt lat="50.9947" lon="2.21379">
        <ele>2.4</ele>
        <time>2020-06-23T10:21:37Z</time>
      </trkpt>
      <trkpt lat="50.99468" lon="2.21389">
        <ele>2.4</ele>
        <time>2020-06-23T10:21:38Z</time>
      </trkpt>
      <trkpt lat="50.99466" lon="2.21399">
        <ele>2.4</ele>
        <time>2020-06-23T10:21:39Z</time>
      </trkpt>
      <trkpt lat="50.99464" lon="2.21409">
        <ele>2.4</ele>
        <time>2020-06-23T10:21:40Z</time>
      </trkpt>
      <trkpt lat="50.99463" lon="2.21419">
        <ele>2.4</ele>
        <time>2020-06-23T10:21:41Z</time>
      </trkpt>
      <trkpt lat="50.99462" lon="2.21429">
        <ele>2.3</ele>
        <time>2020-06-23T10:21:42Z</time>
      </trkpt>
      <trkpt lat="50.9946" lon="2.21439">
        <ele>2.3</ele>
        <time>2020-06-23T10:21:43Z</time>
      </trkpt>
      <trkpt lat="50.99458" lon="2.21449">
        <ele>2.3</ele>
        <time>2020-06-23T10:21:44Z</time>
      </trkpt>
      <trkpt lat="50.99456" lon="2.21459">
        <ele>2.4</ele>
        <time>2020-06-23T10:21:45Z</time>
      </trkpt>
      <trkpt lat="50.99455" lon="2.21469">
        <ele>2.4</ele>
        <time>2020-06-23T10:21:46Z</time>
      </trkpt>
      <trkpt lat="50.99453" lon="2.21479">
        <ele>2.4</ele>
        <time>2020-06-23T10:21:47Z</time>
      </trkpt>
      <trkpt lat="50.99451" lon="2.2149">
        <ele>2.4</ele>
        <time>2020-06-23T10:21:48Z</time>
      </trkpt>
      <trkpt lat="50.9945" lon="2.215">
        <ele>2.4</ele>
        <time>2020-06-23T10:21:49Z</time>
      </trkpt>
      <trkpt lat="50.99448" lon="2.21511">
        <ele>2.4</ele>
        <time>2020-06-23T10:21:50Z</time>
      </trkpt>
      <trkpt lat="50.99447" lon="2.21521">
        <ele>2.4</ele>
        <time>2020-06-23T10:21:51Z</time>
      </trkpt>
      <trkpt lat="50.99445" lon="2.21532">
        <ele>2.4</ele>
        <time>2020-06-23T10:21:52Z</time>
      </trkpt>
      <trkpt lat="50.99443" lon="2.21542">
        <ele>2.4</ele>
        <time>2020-06-23T10:21:53Z</time>
      </trkpt>
      <trkpt lat="50.99441" lon="2.21552">
        <ele>2.4</ele>
        <time>2020-06-23T10:21:54Z</time>
      </trkpt>
      <trkpt lat="50.9944" lon="2.21562">
        <ele>2.4</ele>
        <time>2020-06-23T10:21:55Z</time>
      </trkpt>
      <trkpt lat="50.99438" lon="2.21572">
        <ele>2.3</ele>
        <time>2020-06-23T10:21:56Z</time>
      </trkpt>
      <trkpt lat="50.99436" lon="2.21583">
        <ele>2.3</ele>
        <time>2020-06-23T10:21:57Z</time>
      </trkpt>
      <trkpt lat="50.99435" lon="2.21593">
        <ele>2.2</ele>
        <time>2020-06-23T10:21:58Z</time>
      </trkpt>
      <trkpt lat="50.99433" lon="2.21604">
        <ele>2.2</ele>
        <time>2020-06-23T10:21:59Z</time>
      </trkpt>
      <trkpt lat="50.99431" lon="2.21615">
        <ele>2.2</ele>
        <time>2020-06-23T10:22:00Z</time>
      </trkpt>
      <trkpt lat="50.9943" lon="2.21625">
        <ele>2.1</ele>
        <time>2020-06-23T10:22:01Z</time>
      </trkpt>
      <trkpt lat="50.99428" lon="2.21636">
        <ele>2.1</ele>
        <time>2020-06-23T10:22:02Z</time>
      </trkpt>
      <trkpt lat="50.99427" lon="2.21647">
        <ele>2.1</ele>
        <time>2020-06-23T10:22:03Z</time>
      </trkpt>
      <trkpt lat="50.99426" lon="2.21657">
        <ele>2.1</ele>
        <time>2020-06-23T10:22:04Z</time>
      </trkpt>
      <trkpt lat="50.99424" lon="2.21668">
        <ele>2.1</ele>
        <time>2020-06-23T10:22:05Z</time>
      </trkpt>
      <trkpt lat="50.99422" lon="2.21677">
        <ele>2.1</ele>
        <time>2020-06-23T10:22:06Z</time>
      </trkpt>
      <trkpt lat="50.9942" lon="2.21687">
        <ele>2.1</ele>
        <time>2020-06-23T10:22:07Z</time>
      </trkpt>
      <trkpt lat="50.99419" lon="2.21698">
        <ele>2.1</ele>
        <time>2020-06-23T10:22:08Z</time>
      </trkpt>
      <trkpt lat="50.99418" lon="2.21707">
        <ele>2.1</ele>
        <time>2020-06-23T10:22:09Z</time>
      </trkpt>
      <trkpt lat="50.99417" lon="2.21716">
        <ele>2.1</ele>
        <time>2020-06-23T10:22:10Z</time>
      </trkpt>
      <trkpt lat="50.99416" lon="2.21726">
        <ele>2.2</ele>
        <time>2020-06-23T10:22:11Z</time>
      </trkpt>
      <trkpt lat="50.99414" lon="2.21736">
        <ele>2.2</ele>
        <time>2020-06-23T10:22:12Z</time>
      </trkpt>
      <trkpt lat="50.99412" lon="2.21746">
        <ele>2.5</ele>
        <time>2020-06-23T10:22:13Z</time>
      </trkpt>
      <trkpt lat="50.9941" lon="2.21756">
        <ele>2.4</ele>
        <time>2020-06-23T10:22:14Z</time>
      </trkpt>
      <trkpt lat="50.99408" lon="2.21765">
        <ele>2.4</ele>
        <time>2020-06-23T10:22:15Z</time>
      </trkpt>
      <trkpt lat="50.99406" lon="2.21774">
        <ele>2.4</ele>
        <time>2020-06-23T10:22:16Z</time>
      </trkpt>
      <trkpt lat="50.99405" lon="2.21785">
        <ele>2.3</ele>
        <time>2020-06-23T10:22:17Z</time>
      </trkpt>
      <trkpt lat="50.99403" lon="2.21795">
        <ele>2.3</ele>
        <time>2020-06-23T10:22:18Z</time>
      </trkpt>
      <trkpt lat="50.99401" lon="2.21805">
        <ele>2.3</ele>
        <time>2020-06-23T10:22:19Z</time>
      </trkpt>
      <trkpt lat="50.99399" lon="2.21816">
        <ele>2.3</ele>
        <time>2020-06-23T10:22:20Z</time>
      </trkpt>
      <trkpt lat="50.99398" lon="2.21826">
        <ele>2.4</ele>
        <time>2020-06-23T10:22:21Z</time>
      </trkpt>
      <trkpt lat="50.99396" lon="2.21835">
        <ele>2.4</ele>
        <time>2020-06-23T10:22:22Z</time>
      </trkpt>
      <trkpt lat="50.99395" lon="2.21845">
        <ele>2.4</ele>
        <time>2020-06-23T10:22:23Z</time>
      </trkpt>
      <trkpt lat="50.99395" lon="2.21855">
        <ele>2.4</ele>
        <time>2020-06-23T10:22:24Z</time>
      </trkpt>
      <trkpt lat="50.99391" lon="2.21863">
        <ele>2.4</ele>
        <time>2020-06-23T10:22:25Z</time>
      </trkpt>
      <trkpt lat="50.9939" lon="2.21871">
        <ele>2.4</ele>
        <time>2020-06-23T10:22:26Z</time>
      </trkpt>
      <trkpt lat="50.99389" lon="2.21878">
        <ele>2.4</ele>
        <time>2020-06-23T10:22:27Z</time>
      </trkpt>
      <trkpt lat="50.99387" lon="2.21885">
        <ele>2.4</ele>
        <time>2020-06-23T10:22:28Z</time>
      </trkpt>
      <trkpt lat="50.99385" lon="2.21891">
        <ele>2.5</ele>
        <time>2020-06-23T10:22:29Z</time>
      </trkpt>
      <trkpt lat="50.99383" lon="2.21899">
        <ele>2.6</ele>
        <time>2020-06-23T10:22:30Z</time>
      </trkpt>
      <trkpt lat="50.9938" lon="2.21906">
        <ele>2.7</ele>
        <time>2020-06-23T10:22:31Z</time>
      </trkpt>
      <trkpt lat="50.99378" lon="2.21913">
        <ele>2.9</ele>
        <time>2020-06-23T10:22:32Z</time>
      </trkpt>
      <trkpt lat="50.99377" lon="2.21921">
        <ele>2.9</ele>
        <time>2020-06-23T10:22:33Z</time>
      </trkpt>
      <trkpt lat="50.99373" lon="2.21926">
        <ele>2.8</ele>
        <time>2020-06-23T10:22:34Z</time>
      </trkpt>
      <trkpt lat="50.99369" lon="2.21931">
        <ele>2.8</ele>
        <time>2020-06-23T10:22:35Z</time>
      </trkpt>
      <trkpt lat="50.99365" lon="2.21932">
        <ele>2.8</ele>
        <time>2020-06-23T10:22:36Z</time>
      </trkpt>
      <trkpt lat="50.99361" lon="2.21934">
        <ele>2.8</ele>
        <time>2020-06-23T10:22:37Z</time>
      </trkpt>
      <trkpt lat="50.99357" lon="2.21936">
        <ele>2.7</ele>
        <time>2020-06-23T10:22:38Z</time>
      </trkpt>
      <trkpt lat="50.99353" lon="2.21939">
        <ele>2.7</ele>
        <time>2020-06-23T10:22:39Z</time>
      </trkpt>
      <trkpt lat="50.99348" lon="2.21939">
        <ele>2.7</ele>
        <time>2020-06-23T10:22:40Z</time>
      </trkpt>
      <trkpt lat="50.99344" lon="2.2194">
        <ele>2.7</ele>
        <time>2020-06-23T10:22:41Z</time>
      </trkpt>
      <trkpt lat="50.9934" lon="2.21943">
        <ele>2.7</ele>
        <time>2020-06-23T10:22:42Z</time>
      </trkpt>
      <trkpt lat="50.99337" lon="2.21945">
        <ele>2.7</ele>
        <time>2020-06-23T10:22:43Z</time>
      </trkpt>
      <trkpt lat="50.99334" lon="2.21949">
        <ele>2.7</ele>
        <time>2020-06-23T10:22:44Z</time>
      </trkpt>
      <trkpt lat="50.99334" lon="2.21951">
        <ele>2.7</ele>
        <time>2020-06-23T10:22:45Z</time>
      </trkpt>
      <trkpt lat="50.99334" lon="2.21953">
        <ele>2.7</ele>
        <time>2020-06-23T10:22:46Z</time>
      </trkpt>
      <trkpt lat="50.99335" lon="2.21954">
        <ele>2.7</ele>
        <time>2020-06-23T10:22:47Z</time>
      </trkpt>
      <trkpt lat="50.99337" lon="2.21954">
        <ele>2.7</ele>
        <time>2020-06-23T10:22:48Z</time>
      </trkpt>
      <trkpt lat="50.9934" lon="2.21957">
        <ele>2.7</ele>
        <time>2020-06-23T10:22:49Z</time>
      </trkpt>
      <trkpt lat="50.99341" lon="2.21957">
        <ele>2.7</ele>
        <time>2020-06-23T10:22:50Z</time>
      </trkpt>
      <trkpt lat="50.99344" lon="2.21962">
        <ele>2.7</ele>
        <time>2020-06-23T10:22:51Z</time>
      </trkpt>
      <trkpt lat="50.99345" lon="2.21963">
        <ele>2.7</ele>
        <time>2020-06-23T10:22:52Z</time>
      </trkpt>
      <trkpt lat="50.99347" lon="2.21965">
        <ele>2.7</ele>
        <time>2020-06-23T10:22:53Z</time>
      </trkpt>
      <trkpt lat="50.99348" lon="2.21965">
        <ele>2.7</ele>
        <time>2020-06-23T10:22:54Z</time>
      </trkpt>
      <trkpt lat="50.99349" lon="2.21964">
        <ele>2.7</ele>
        <time>2020-06-23T10:22:55Z</time>
      </trkpt>
      <trkpt lat="50.9935" lon="2.21964">
        <ele>2.7</ele>
        <time>2020-06-23T10:22:56Z</time>
      </trkpt>
      <trkpt lat="50.9935" lon="2.21964">
        <ele>2.7</ele>
        <time>2020-06-23T10:22:57Z</time>
      </trkpt>
      <trkpt lat="50.99351" lon="2.21963">
        <ele>2.7</ele>
        <time>2020-06-23T10:22:58Z</time>
      </trkpt>
      <trkpt lat="50.99351" lon="2.21961">
        <ele>2.7</ele>
        <time>2020-06-23T10:22:59Z</time>
      </trkpt>
      <trkpt lat="50.99351" lon="2.21957">
        <ele>2.7</ele>
        <time>2020-06-23T10:23:00Z</time>
      </trkpt>
      <trkpt lat="50.99352" lon="2.21951">
        <ele>2.7</ele>
        <time>2020-06-23T10:23:01Z</time>
      </trkpt>
      <trkpt lat="50.99354" lon="2.21945">
        <ele>2.7</ele>
        <time>2020-06-23T10:23:02Z</time>
      </trkpt>
      <trkpt lat="50.99357" lon="2.21942">
        <ele>2.7</ele>
        <time>2020-06-23T10:23:03Z</time>
      </trkpt>
      <trkpt lat="50.99361" lon="2.2194">
        <ele>2.8</ele>
        <time>2020-06-23T10:23:04Z</time>
      </trkpt>
      <trkpt lat="50.99365" lon="2.21937">
        <ele>2.8</ele>
        <time>2020-06-23T10:23:05Z</time>
      </trkpt>
      <trkpt lat="50.99369" lon="2.21934">
        <ele>2.8</ele>
        <time>2020-06-23T10:23:06Z</time>
      </trkpt>
      <trkpt lat="50.99372" lon="2.21929">
        <ele>2.9</ele>
        <time>2020-06-23T10:23:07Z</time>
      </trkpt>
      <trkpt lat="50.99375" lon="2.21926">
        <ele>2.9</ele>
        <time>2020-06-23T10:23:08Z</time>
      </trkpt>
      <trkpt lat="50.99377" lon="2.21923">
        <ele>3</ele>
        <time>2020-06-23T10:23:09Z</time>
      </trkpt>
      <trkpt lat="50.9938" lon="2.2192">
        <ele>3.2</ele>
        <time>2020-06-23T10:23:10Z</time>
      </trkpt>
      <trkpt lat="50.99384" lon="2.2192">
        <ele>3.1</ele>
        <time>2020-06-23T10:23:11Z</time>
      </trkpt>
      <trkpt lat="50.99386" lon="2.21925">
        <ele>3.1</ele>
        <time>2020-06-23T10:23:12Z</time>
      </trkpt>
      <trkpt lat="50.99388" lon="2.21932">
        <ele>3</ele>
        <time>2020-06-23T10:23:13Z</time>
      </trkpt>
      <trkpt lat="50.99391" lon="2.21938">
        <ele>3</ele>
        <time>2020-06-23T10:23:14Z</time>
      </trkpt>
      <trkpt lat="50.99393" lon="2.21945">
        <ele>2.9</ele>
        <time>2020-06-23T10:23:15Z</time>
      </trkpt>
      <trkpt lat="50.99395" lon="2.21952">
        <ele>2.8</ele>
        <time>2020-06-23T10:23:16Z</time>
      </trkpt>
      <trkpt lat="50.99397" lon="2.21958">
        <ele>2.8</ele>
        <time>2020-06-23T10:23:17Z</time>
      </trkpt>
      <trkpt lat="50.99401" lon="2.21963">
        <ele>2.8</ele>
        <time>2020-06-23T10:23:18Z</time>
      </trkpt>
      <trkpt lat="50.99404" lon="2.21968">
        <ele>2.8</ele>
        <time>2020-06-23T10:23:19Z</time>
      </trkpt>
      <trkpt lat="50.99407" lon="2.21975">
        <ele>2.8</ele>
        <time>2020-06-23T10:23:20Z</time>
      </trkpt>
      <trkpt lat="50.9941" lon="2.21981">
        <ele>2.8</ele>
        <time>2020-06-23T10:23:21Z</time>
      </trkpt>
      <trkpt lat="50.99413" lon="2.21987">
        <ele>2.8</ele>
        <time>2020-06-23T10:23:22Z</time>
      </trkpt>
      <trkpt lat="50.99415" lon="2.21994">
        <ele>2.9</ele>
        <time>2020-06-23T10:23:23Z</time>
      </trkpt>
      <trkpt lat="50.99419" lon="2.21999">
        <ele>2.9</ele>
        <time>2020-06-23T10:23:24Z</time>
      </trkpt>
      <trkpt lat="50.99422" lon="2.22006">
        <ele>2.9</ele>
        <time>2020-06-23T10:23:25Z</time>
      </trkpt>
      <trkpt lat="50.99424" lon="2.22014">
        <ele>2.9</ele>
        <time>2020-06-23T10:23:26Z</time>
      </trkpt>
      <trkpt lat="50.99427" lon="2.22021">
        <ele>3</ele>
        <time>2020-06-23T10:23:27Z</time>
      </trkpt>
      <trkpt lat="50.9943" lon="2.22028">
        <ele>3</ele>
        <time>2020-06-23T10:23:28Z</time>
      </trkpt>
      <trkpt lat="50.99434" lon="2.22034">
        <ele>3.1</ele>
        <time>2020-06-23T10:23:29Z</time>
      </trkpt>
      <trkpt lat="50.99438" lon="2.22038">
        <ele>3.1</ele>
        <time>2020-06-23T10:23:30Z</time>
      </trkpt>
      <trkpt lat="50.99441" lon="2.22044">
        <ele>3.2</ele>
        <time>2020-06-23T10:23:31Z</time>
      </trkpt>
      <trkpt lat="50.99445" lon="2.2205">
        <ele>3.2</ele>
        <time>2020-06-23T10:23:32Z</time>
      </trkpt>
      <trkpt lat="50.99448" lon="2.22057">
        <ele>3.3</ele>
        <time>2020-06-23T10:23:33Z</time>
      </trkpt>
      <trkpt lat="50.99451" lon="2.22063">
        <ele>3.3</ele>
        <time>2020-06-23T10:23:34Z</time>
      </trkpt>
      <trkpt lat="50.99455" lon="2.2207">
        <ele>3.4</ele>
        <time>2020-06-23T10:23:35Z</time>
      </trkpt>
      <trkpt lat="50.99459" lon="2.22076">
        <ele>3.4</ele>
        <time>2020-06-23T10:23:36Z</time>
      </trkpt>
      <trkpt lat="50.99463" lon="2.22082">
        <ele>3.4</ele>
        <time>2020-06-23T10:23:37Z</time>
      </trkpt>
      <trkpt lat="50.99466" lon="2.22087">
        <ele>3.5</ele>
        <time>2020-06-23T10:23:38Z</time>
      </trkpt>
      <trkpt lat="50.9947" lon="2.22094">
        <ele>3.5</ele>
        <time>2020-06-23T10:23:39Z</time>
      </trkpt>
      <trkpt lat="50.99474" lon="2.22101">
        <ele>3.5</ele>
        <time>2020-06-23T10:23:40Z</time>
      </trkpt>
      <trkpt lat="50.99477" lon="2.22108">
        <ele>3.5</ele>
        <time>2020-06-23T10:23:41Z</time>
      </trkpt>
      <trkpt lat="50.99481" lon="2.22115">
        <ele>3.5</ele>
        <time>2020-06-23T10:23:42Z</time>
      </trkpt>
      <trkpt lat="50.99485" lon="2.22122">
        <ele>3.5</ele>
        <time>2020-06-23T10:23:43Z</time>
      </trkpt>
      <trkpt lat="50.9949" lon="2.22126">
        <ele>3.5</ele>
        <time>2020-06-23T10:23:44Z</time>
      </trkpt>
      <trkpt lat="50.99493" lon="2.22134">
        <ele>3.5</ele>
        <time>2020-06-23T10:23:45Z</time>
      </trkpt>
      <trkpt lat="50.99496" lon="2.22141">
        <ele>3.5</ele>
        <time>2020-06-23T10:23:46Z</time>
      </trkpt>
      <trkpt lat="50.995" lon="2.22148">
        <ele>3.5</ele>
        <time>2020-06-23T10:23:47Z</time>
      </trkpt>
      <trkpt lat="50.99505" lon="2.22155">
        <ele>3.5</ele>
        <time>2020-06-23T10:23:48Z</time>
      </trkpt>
      <trkpt lat="50.99508" lon="2.22164">
        <ele>3.5</ele>
        <time>2020-06-23T10:23:49Z</time>
      </trkpt>
      <trkpt lat="50.99511" lon="2.22173">
        <ele>3.4</ele>
        <time>2020-06-23T10:23:50Z</time>
      </trkpt>
      <trkpt lat="50.99518" lon="2.22176">
        <ele>3.4</ele>
        <time>2020-06-23T10:23:51Z</time>
      </trkpt>
      <trkpt lat="50.99522" lon="2.22184">
        <ele>3.4</ele>
        <time>2020-06-23T10:23:52Z</time>
      </trkpt>
      <trkpt lat="50.99526" lon="2.22191">
        <ele>3.3</ele>
        <time>2020-06-23T10:23:53Z</time>
      </trkpt>
      <trkpt lat="50.99531" lon="2.22199">
        <ele>3.3</ele>
        <time>2020-06-23T10:23:54Z</time>
      </trkpt>
      <trkpt lat="50.99535" lon="2.22207">
        <ele>3.2</ele>
        <time>2020-06-23T10:23:55Z</time>
      </trkpt>
      <trkpt lat="50.99539" lon="2.22214">
        <ele>3.2</ele>
        <time>2020-06-23T10:23:56Z</time>
      </trkpt>
      <trkpt lat="50.99544" lon="2.22221">
        <ele>3.1</ele>
        <time>2020-06-23T10:23:57Z</time>
      </trkpt>
      <trkpt lat="50.9955" lon="2.22227">
        <ele>3</ele>
        <time>2020-06-23T10:23:58Z</time>
      </trkpt>
      <trkpt lat="50.99555" lon="2.22234">
        <ele>2.9</ele>
        <time>2020-06-23T10:23:59Z</time>
      </trkpt>
      <trkpt lat="50.9956" lon="2.2224">
        <ele>2.9</ele>
        <time>2020-06-23T10:24:00Z</time>
      </trkpt>
      <trkpt lat="50.99565" lon="2.22247">
        <ele>2.8</ele>
        <time>2020-06-23T10:24:01Z</time>
      </trkpt>
      <trkpt lat="50.99571" lon="2.22255">
        <ele>2.8</ele>
        <time>2020-06-23T10:24:02Z</time>
      </trkpt>
      <trkpt lat="50.99575" lon="2.22263">
        <ele>2.8</ele>
        <time>2020-06-23T10:24:03Z</time>
      </trkpt>
      <trkpt lat="50.9958" lon="2.22271">
        <ele>2.8</ele>
        <time>2020-06-23T10:24:04Z</time>
      </trkpt>
      <trkpt lat="50.99583" lon="2.22281">
        <ele>2.7</ele>
        <time>2020-06-23T10:24:05Z</time>
      </trkpt>
      <trkpt lat="50.99586" lon="2.2229">
        <ele>2.7</ele>
        <time>2020-06-23T10:24:06Z</time>
      </trkpt>
      <trkpt lat="50.99588" lon="2.223">
        <ele>2.6</ele>
        <time>2020-06-23T10:24:07Z</time>
      </trkpt>
      <trkpt lat="50.99591" lon="2.2231">
        <ele>2.6</ele>
        <time>2020-06-23T10:24:08Z</time>
      </trkpt>
      <trkpt lat="50.99594" lon="2.22321">
        <ele>2.6</ele>
        <time>2020-06-23T10:24:09Z</time>
      </trkpt>
      <trkpt lat="50.99596" lon="2.22332">
        <ele>2.6</ele>
        <time>2020-06-23T10:24:10Z</time>
      </trkpt>
      <trkpt lat="50.99598" lon="2.22342">
        <ele>2.6</ele>
        <time>2020-06-23T10:24:11Z</time>
      </trkpt>
      <trkpt lat="50.996" lon="2.22352">
        <ele>2.6</ele>
        <time>2020-06-23T10:24:12Z</time>
      </trkpt>
      <trkpt lat="50.99602" lon="2.22362">
        <ele>2.6</ele>
        <time>2020-06-23T10:24:13Z</time>
      </trkpt>
      <trkpt lat="50.99604" lon="2.22371">
        <ele>2.6</ele>
        <time>2020-06-23T10:24:14Z</time>
      </trkpt>
      <trkpt lat="50.99607" lon="2.22381">
        <ele>2.6</ele>
        <time>2020-06-23T10:24:15Z</time>
      </trkpt>
      <trkpt lat="50.99611" lon="2.22392">
        <ele>2.6</ele>
        <time>2020-06-23T10:24:16Z</time>
      </trkpt>
      <trkpt lat="50.99614" lon="2.22403">
        <ele>2.6</ele>
        <time>2020-06-23T10:24:17Z</time>
      </trkpt>
      <trkpt lat="50.99618" lon="2.22414">
        <ele>2.6</ele>
        <time>2020-06-23T10:24:18Z</time>
      </trkpt>
      <trkpt lat="50.99622" lon="2.22425">
        <ele>2.7</ele>
        <time>2020-06-23T10:24:19Z</time>
      </trkpt>
      <trkpt lat="50.99624" lon="2.22437">
        <ele>2.7</ele>
        <time>2020-06-23T10:24:20Z</time>
      </trkpt>
      <trkpt lat="50.99627" lon="2.22448">
        <ele>2.7</ele>
        <time>2020-06-23T10:24:21Z</time>
      </trkpt>
      <trkpt lat="50.9963" lon="2.22459">
        <ele>2.7</ele>
        <time>2020-06-23T10:24:22Z</time>
      </trkpt>
      <trkpt lat="50.99631" lon="2.22469">
        <ele>2.6</ele>
        <time>2020-06-23T10:24:23Z</time>
      </trkpt>
      <trkpt lat="50.99634" lon="2.2248">
        <ele>2.6</ele>
        <time>2020-06-23T10:24:24Z</time>
      </trkpt>
      <trkpt lat="50.99636" lon="2.22492">
        <ele>2.5</ele>
        <time>2020-06-23T10:24:25Z</time>
      </trkpt>
      <trkpt lat="50.99638" lon="2.22502">
        <ele>2.5</ele>
        <time>2020-06-23T10:24:26Z</time>
      </trkpt>
      <trkpt lat="50.9964" lon="2.22512">
        <ele>2.6</ele>
        <time>2020-06-23T10:24:27Z</time>
      </trkpt>
      <trkpt lat="50.99642" lon="2.22523">
        <ele>2.6</ele>
        <time>2020-06-23T10:24:28Z</time>
      </trkpt>
      <trkpt lat="50.99644" lon="2.22534">
        <ele>2.6</ele>
        <time>2020-06-23T10:24:29Z</time>
      </trkpt>
      <trkpt lat="50.99646" lon="2.22544">
        <ele>2.6</ele>
        <time>2020-06-23T10:24:30Z</time>
      </trkpt>
      <trkpt lat="50.99648" lon="2.22555">
        <ele>2.7</ele>
        <time>2020-06-23T10:24:31Z</time>
      </trkpt>
      <trkpt lat="50.9965" lon="2.22566">
        <ele>2.7</ele>
        <time>2020-06-23T10:24:32Z</time>
      </trkpt>
      <trkpt lat="50.99652" lon="2.22577">
        <ele>2.7</ele>
        <time>2020-06-23T10:24:33Z</time>
      </trkpt>
      <trkpt lat="50.99654" lon="2.22588">
        <ele>2.8</ele>
        <time>2020-06-23T10:24:34Z</time>
      </trkpt>
      <trkpt lat="50.99656" lon="2.22598">
        <ele>2.8</ele>
        <time>2020-06-23T10:24:35Z</time>
      </trkpt>
      <trkpt lat="50.99658" lon="2.22608">
        <ele>2.9</ele>
        <time>2020-06-23T10:24:36Z</time>
      </trkpt>
      <trkpt lat="50.9966" lon="2.22618">
        <ele>2.9</ele>
        <time>2020-06-23T10:24:37Z</time>
      </trkpt>
      <trkpt lat="50.99661" lon="2.22628">
        <ele>2.9</ele>
        <time>2020-06-23T10:24:38Z</time>
      </trkpt>
      <trkpt lat="50.99664" lon="2.22638">
        <ele>2.8</ele>
        <time>2020-06-23T10:24:39Z</time>
      </trkpt>
      <trkpt lat="50.99667" lon="2.22648">
        <ele>2.8</ele>
        <time>2020-06-23T10:24:40Z</time>
      </trkpt>
      <trkpt lat="50.99671" lon="2.22658">
        <ele>2.7</ele>
        <time>2020-06-23T10:24:41Z</time>
      </trkpt>
      <trkpt lat="50.99674" lon="2.22668">
        <ele>2.7</ele>
        <time>2020-06-23T10:24:42Z</time>
      </trkpt>
      <trkpt lat="50.99676" lon="2.22678">
        <ele>2.7</ele>
        <time>2020-06-23T10:24:43Z</time>
      </trkpt>
      <trkpt lat="50.99679" lon="2.22688">
        <ele>2.7</ele>
        <time>2020-06-23T10:24:44Z</time>
      </trkpt>
      <trkpt lat="50.9968" lon="2.22699">
        <ele>2.7</ele>
        <time>2020-06-23T10:24:45Z</time>
      </trkpt>
      <trkpt lat="50.99682" lon="2.22709">
        <ele>2.7</ele>
        <time>2020-06-23T10:24:46Z</time>
      </trkpt>
      <trkpt lat="50.99685" lon="2.22719">
        <ele>2.6</ele>
        <time>2020-06-23T10:24:47Z</time>
      </trkpt>
      <trkpt lat="50.99687" lon="2.22729">
        <ele>2.6</ele>
        <time>2020-06-23T10:24:48Z</time>
      </trkpt>
      <trkpt lat="50.99689" lon="2.22741">
        <ele>2.6</ele>
        <time>2020-06-23T10:24:49Z</time>
      </trkpt>
      <trkpt lat="50.99692" lon="2.22754">
        <ele>2.6</ele>
        <time>2020-06-23T10:24:50Z</time>
      </trkpt>
      <trkpt lat="50.99694" lon="2.22765">
        <ele>2.5</ele>
        <time>2020-06-23T10:24:51Z</time>
      </trkpt>
      <trkpt lat="50.99697" lon="2.22774">
        <ele>2.5</ele>
        <time>2020-06-23T10:24:52Z</time>
      </trkpt>
      <trkpt lat="50.99698" lon="2.22784">
        <ele>2.5</ele>
        <time>2020-06-23T10:24:53Z</time>
      </trkpt>
      <trkpt lat="50.99701" lon="2.22794">
        <ele>2.5</ele>
        <time>2020-06-23T10:24:54Z</time>
      </trkpt>
      <trkpt lat="50.99702" lon="2.22804">
        <ele>2.4</ele>
        <time>2020-06-23T10:24:55Z</time>
      </trkpt>
      <trkpt lat="50.99704" lon="2.22814">
        <ele>2.4</ele>
        <time>2020-06-23T10:24:56Z</time>
      </trkpt>
      <trkpt lat="50.99706" lon="2.22826">
        <ele>2.4</ele>
        <time>2020-06-23T10:24:57Z</time>
      </trkpt>
      <trkpt lat="50.99708" lon="2.22838">
        <ele>2.3</ele>
        <time>2020-06-23T10:24:58Z</time>
      </trkpt>
      <trkpt lat="50.99711" lon="2.22848">
        <ele>2.3</ele>
        <time>2020-06-23T10:24:59Z</time>
      </trkpt>
      <trkpt lat="50.99713" lon="2.22859">
        <ele>2.3</ele>
        <time>2020-06-23T10:25:00Z</time>
      </trkpt>
      <trkpt lat="50.99715" lon="2.22869">
        <ele>2.3</ele>
        <time>2020-06-23T10:25:01Z</time>
      </trkpt>
      <trkpt lat="50.99717" lon="2.22879">
        <ele>2.3</ele>
        <time>2020-06-23T10:25:02Z</time>
      </trkpt>
      <trkpt lat="50.99719" lon="2.22888">
        <ele>2.3</ele>
        <time>2020-06-23T10:25:03Z</time>
      </trkpt>
      <trkpt lat="50.9972" lon="2.22898">
        <ele>2.4</ele>
        <time>2020-06-23T10:25:04Z</time>
      </trkpt>
      <trkpt lat="50.99722" lon="2.22908">
        <ele>2.3</ele>
        <time>2020-06-23T10:25:05Z</time>
      </trkpt>
      <trkpt lat="50.99724" lon="2.22917">
        <ele>2.3</ele>
        <time>2020-06-23T10:25:06Z</time>
      </trkpt>
      <trkpt lat="50.99726" lon="2.22927">
        <ele>2.3</ele>
        <time>2020-06-23T10:25:07Z</time>
      </trkpt>
      <trkpt lat="50.99728" lon="2.22938">
        <ele>2.2</ele>
        <time>2020-06-23T10:25:08Z</time>
      </trkpt>
      <trkpt lat="50.99731" lon="2.22948">
        <ele>2.3</ele>
        <time>2020-06-23T10:25:09Z</time>
      </trkpt>
      <trkpt lat="50.99733" lon="2.22959">
        <ele>2.3</ele>
        <time>2020-06-23T10:25:10Z</time>
      </trkpt>
      <trkpt lat="50.99735" lon="2.22969">
        <ele>2.2</ele>
        <time>2020-06-23T10:25:11Z</time>
      </trkpt>
      <trkpt lat="50.99737" lon="2.22979">
        <ele>2.2</ele>
        <time>2020-06-23T10:25:12Z</time>
      </trkpt>
      <trkpt lat="50.9974" lon="2.2299">
        <ele>2.2</ele>
        <time>2020-06-23T10:25:13Z</time>
      </trkpt>
      <trkpt lat="50.99743" lon="2.23">
        <ele>2.2</ele>
        <time>2020-06-23T10:25:14Z</time>
      </trkpt>
      <trkpt lat="50.99745" lon="2.23011">
        <ele>2.2</ele>
        <time>2020-06-23T10:25:15Z</time>
      </trkpt>
      <trkpt lat="50.99748" lon="2.23022">
        <ele>2.2</ele>
        <time>2020-06-23T10:25:16Z</time>
      </trkpt>
      <trkpt lat="50.9975" lon="2.23031">
        <ele>2.2</ele>
        <time>2020-06-23T10:25:17Z</time>
      </trkpt>
      <trkpt lat="50.99752" lon="2.23043">
        <ele>2.2</ele>
        <time>2020-06-23T10:25:18Z</time>
      </trkpt>
      <trkpt lat="50.99754" lon="2.23054">
        <ele>2.2</ele>
        <time>2020-06-23T10:25:19Z</time>
      </trkpt>
      <trkpt lat="50.99756" lon="2.23065">
        <ele>2.2</ele>
        <time>2020-06-23T10:25:20Z</time>
      </trkpt>
      <trkpt lat="50.99758" lon="2.23075">
        <ele>2.2</ele>
        <time>2020-06-23T10:25:21Z</time>
      </trkpt>
      <trkpt lat="50.99761" lon="2.23084">
        <ele>2.1</ele>
        <time>2020-06-23T10:25:22Z</time>
      </trkpt>
      <trkpt lat="50.99763" lon="2.23094">
        <ele>2.1</ele>
        <time>2020-06-23T10:25:23Z</time>
      </trkpt>
      <trkpt lat="50.99765" lon="2.23105">
        <ele>2.1</ele>
        <time>2020-06-23T10:25:24Z</time>
      </trkpt>
      <trkpt lat="50.99766" lon="2.23115">
        <ele>2</ele>
        <time>2020-06-23T10:25:25Z</time>
      </trkpt>
      <trkpt lat="50.99767" lon="2.23125">
        <ele>2</ele>
        <time>2020-06-23T10:25:26Z</time>
      </trkpt>
      <trkpt lat="50.99769" lon="2.23135">
        <ele>2</ele>
        <time>2020-06-23T10:25:27Z</time>
      </trkpt>
      <trkpt lat="50.99771" lon="2.23144">
        <ele>2</ele>
        <time>2020-06-23T10:25:28Z</time>
      </trkpt>
      <trkpt lat="50.99773" lon="2.23153">
        <ele>1.9</ele>
        <time>2020-06-23T10:25:29Z</time>
      </trkpt>
      <trkpt lat="50.99776" lon="2.23163">
        <ele>1.9</ele>
        <time>2020-06-23T10:25:30Z</time>
      </trkpt>
      <trkpt lat="50.99777" lon="2.23173">
        <ele>1.9</ele>
        <time>2020-06-23T10:25:31Z</time>
      </trkpt>
      <trkpt lat="50.99779" lon="2.23182">
        <ele>1.9</ele>
        <time>2020-06-23T10:25:32Z</time>
      </trkpt>
      <trkpt lat="50.99781" lon="2.23192">
        <ele>1.8</ele>
        <time>2020-06-23T10:25:33Z</time>
      </trkpt>
      <trkpt lat="50.99784" lon="2.23202">
        <ele>1.8</ele>
        <time>2020-06-23T10:25:34Z</time>
      </trkpt>
      <trkpt lat="50.99786" lon="2.23211">
        <ele>1.8</ele>
        <time>2020-06-23T10:25:35Z</time>
      </trkpt>
      <trkpt lat="50.99789" lon="2.23221">
        <ele>1.8</ele>
        <time>2020-06-23T10:25:36Z</time>
      </trkpt>
      <trkpt lat="50.99791" lon="2.23232">
        <ele>1.8</ele>
        <time>2020-06-23T10:25:37Z</time>
      </trkpt>
      <trkpt lat="50.99793" lon="2.23243">
        <ele>1.8</ele>
        <time>2020-06-23T10:25:38Z</time>
      </trkpt>
      <trkpt lat="50.99795" lon="2.23252">
        <ele>1.9</ele>
        <time>2020-06-23T10:25:39Z</time>
      </trkpt>
      <trkpt lat="50.99797" lon="2.23263">
        <ele>2</ele>
        <time>2020-06-23T10:25:40Z</time>
      </trkpt>
      <trkpt lat="50.99799" lon="2.23272">
        <ele>2</ele>
        <time>2020-06-23T10:25:41Z</time>
      </trkpt>
      <trkpt lat="50.998" lon="2.23283">
        <ele>2.2</ele>
        <time>2020-06-23T10:25:42Z</time>
      </trkpt>
      <trkpt lat="50.99803" lon="2.23293">
        <ele>2.1</ele>
        <time>2020-06-23T10:25:43Z</time>
      </trkpt>
      <trkpt lat="50.99805" lon="2.23303">
        <ele>2</ele>
        <time>2020-06-23T10:25:44Z</time>
      </trkpt>
      <trkpt lat="50.99806" lon="2.23313">
        <ele>2</ele>
        <time>2020-06-23T10:25:45Z</time>
      </trkpt>
      <trkpt lat="50.99808" lon="2.23324">
        <ele>2</ele>
        <time>2020-06-23T10:25:46Z</time>
      </trkpt>
      <trkpt lat="50.9981" lon="2.23332">
        <ele>2</ele>
        <time>2020-06-23T10:25:47Z</time>
      </trkpt>
      <trkpt lat="50.99812" lon="2.23342">
        <ele>1.9</ele>
        <time>2020-06-23T10:25:48Z</time>
      </trkpt>
      <trkpt lat="50.99815" lon="2.23352">
        <ele>1.9</ele>
        <time>2020-06-23T10:25:49Z</time>
      </trkpt>
      <trkpt lat="50.99816" lon="2.23361">
        <ele>1.9</ele>
        <time>2020-06-23T10:25:50Z</time>
      </trkpt>
      <trkpt lat="50.99819" lon="2.23371">
        <ele>1.9</ele>
        <time>2020-06-23T10:25:51Z</time>
      </trkpt>
      <trkpt lat="50.99821" lon="2.2338">
        <ele>1.9</ele>
        <time>2020-06-23T10:25:52Z</time>
      </trkpt>
      <trkpt lat="50.99824" lon="2.2339">
        <ele>1.9</ele>
        <time>2020-06-23T10:25:53Z</time>
      </trkpt>
      <trkpt lat="50.99826" lon="2.234">
        <ele>1.9</ele>
        <time>2020-06-23T10:25:54Z</time>
      </trkpt>
      <trkpt lat="50.99828" lon="2.2341">
        <ele>1.9</ele>
        <time>2020-06-23T10:25:55Z</time>
      </trkpt>
      <trkpt lat="50.9983" lon="2.23419">
        <ele>1.9</ele>
        <time>2020-06-23T10:25:56Z</time>
      </trkpt>
      <trkpt lat="50.99832" lon="2.23429">
        <ele>1.9</ele>
        <time>2020-06-23T10:25:57Z</time>
      </trkpt>
      <trkpt lat="50.99835" lon="2.23438">
        <ele>2</ele>
        <time>2020-06-23T10:25:58Z</time>
      </trkpt>
      <trkpt lat="50.99837" lon="2.23448">
        <ele>2</ele>
        <time>2020-06-23T10:25:59Z</time>
      </trkpt>
      <trkpt lat="50.99839" lon="2.23456">
        <ele>2.1</ele>
        <time>2020-06-23T10:26:00Z</time>
      </trkpt>
      <trkpt lat="50.99841" lon="2.23465">
        <ele>2.1</ele>
        <time>2020-06-23T10:26:01Z</time>
      </trkpt>
      <trkpt lat="50.99845" lon="2.23475">
        <ele>2.2</ele>
        <time>2020-06-23T10:26:02Z</time>
      </trkpt>
      <trkpt lat="50.99849" lon="2.23483">
        <ele>2.2</ele>
        <time>2020-06-23T10:26:03Z</time>
      </trkpt>
      <trkpt lat="50.99853" lon="2.2349">
        <ele>2.3</ele>
        <time>2020-06-23T10:26:04Z</time>
      </trkpt>
      <trkpt lat="50.99856" lon="2.23496">
        <ele>2.3</ele>
        <time>2020-06-23T10:26:05Z</time>
      </trkpt>
      <trkpt lat="50.99859" lon="2.23502">
        <ele>2.1</ele>
        <time>2020-06-23T10:26:06Z</time>
      </trkpt>
      <trkpt lat="50.9986" lon="2.23508">
        <ele>2.1</ele>
        <time>2020-06-23T10:26:07Z</time>
      </trkpt>
      <trkpt lat="50.99859" lon="2.23519">
        <ele>2</ele>
        <time>2020-06-23T10:26:08Z</time>
      </trkpt>
      <trkpt lat="50.99858" lon="2.23528">
        <ele>1.9</ele>
        <time>2020-06-23T10:26:09Z</time>
      </trkpt>
      <trkpt lat="50.99859" lon="2.23539">
        <ele>1.8</ele>
        <time>2020-06-23T10:26:10Z</time>
      </trkpt>
      <trkpt lat="50.99861" lon="2.2355">
        <ele>1.8</ele>
        <time>2020-06-23T10:26:11Z</time>
      </trkpt>
      <trkpt lat="50.99862" lon="2.23559">
        <ele>1.7</ele>
        <time>2020-06-23T10:26:12Z</time>
      </trkpt>
      <trkpt lat="50.99864" lon="2.23568">
        <ele>1.6</ele>
        <time>2020-06-23T10:26:13Z</time>
      </trkpt>
      <trkpt lat="50.99866" lon="2.23578">
        <ele>1.6</ele>
        <time>2020-06-23T10:26:14Z</time>
      </trkpt>
      <trkpt lat="50.99867" lon="2.23587">
        <ele>1.5</ele>
        <time>2020-06-23T10:26:15Z</time>
      </trkpt>
      <trkpt lat="50.99866" lon="2.23597">
        <ele>1.4</ele>
        <time>2020-06-23T10:26:16Z</time>
      </trkpt>
      <trkpt lat="50.99866" lon="2.23608">
        <ele>1.4</ele>
        <time>2020-06-23T10:26:17Z</time>
      </trkpt>
      <trkpt lat="50.99866" lon="2.23619">
        <ele>1.3</ele>
        <time>2020-06-23T10:26:18Z</time>
      </trkpt>
      <trkpt lat="50.99867" lon="2.2363">
        <ele>1.2</ele>
        <time>2020-06-23T10:26:19Z</time>
      </trkpt>
      <trkpt lat="50.99869" lon="2.23641">
        <ele>1.2</ele>
        <time>2020-06-23T10:26:20Z</time>
      </trkpt>
      <trkpt lat="50.99871" lon="2.23652">
        <ele>1.2</ele>
        <time>2020-06-23T10:26:21Z</time>
      </trkpt>
      <trkpt lat="50.99873" lon="2.23662">
        <ele>1.2</ele>
        <time>2020-06-23T10:26:22Z</time>
      </trkpt>
      <trkpt lat="50.99874" lon="2.23672">
        <ele>1.2</ele>
        <time>2020-06-23T10:26:23Z</time>
      </trkpt>
      <trkpt lat="50.99876" lon="2.23682">
        <ele>1.3</ele>
        <time>2020-06-23T10:26:24Z</time>
      </trkpt>
      <trkpt lat="50.99879" lon="2.23691">
        <ele>1.3</ele>
        <time>2020-06-23T10:26:25Z</time>
      </trkpt>
      <trkpt lat="50.99882" lon="2.23702">
        <ele>1.3</ele>
        <time>2020-06-23T10:26:26Z</time>
      </trkpt>
      <trkpt lat="50.99884" lon="2.23713">
        <ele>1.3</ele>
        <time>2020-06-23T10:26:27Z</time>
      </trkpt>
      <trkpt lat="50.99886" lon="2.23722">
        <ele>1.3</ele>
        <time>2020-06-23T10:26:28Z</time>
      </trkpt>
      <trkpt lat="50.99888" lon="2.23732">
        <ele>1.3</ele>
        <time>2020-06-23T10:26:29Z</time>
      </trkpt>
      <trkpt lat="50.9989" lon="2.23741">
        <ele>1.3</ele>
        <time>2020-06-23T10:26:30Z</time>
      </trkpt>
      <trkpt lat="50.99892" lon="2.2375">
        <ele>1.3</ele>
        <time>2020-06-23T10:26:31Z</time>
      </trkpt>
      <trkpt lat="50.99892" lon="2.23758">
        <ele>1.3</ele>
        <time>2020-06-23T10:26:32Z</time>
      </trkpt>
      <trkpt lat="50.99894" lon="2.23768">
        <ele>1.3</ele>
        <time>2020-06-23T10:26:33Z</time>
      </trkpt>
      <trkpt lat="50.99895" lon="2.23779">
        <ele>1.4</ele>
        <time>2020-06-23T10:26:34Z</time>
      </trkpt>
      <trkpt lat="50.99896" lon="2.23787">
        <ele>1.5</ele>
        <time>2020-06-23T10:26:35Z</time>
      </trkpt>
      <trkpt lat="50.99897" lon="2.23794">
        <ele>1.5</ele>
        <time>2020-06-23T10:26:36Z</time>
      </trkpt>
      <trkpt lat="50.99899" lon="2.23802">
        <ele>1.7</ele>
        <time>2020-06-23T10:26:37Z</time>
      </trkpt>
      <trkpt lat="50.99901" lon="2.2381">
        <ele>1.7</ele>
        <time>2020-06-23T10:26:38Z</time>
      </trkpt>
      <trkpt lat="50.99902" lon="2.23818">
        <ele>1.7</ele>
        <time>2020-06-23T10:26:39Z</time>
      </trkpt>
      <trkpt lat="50.99903" lon="2.23825">
        <ele>1.7</ele>
        <time>2020-06-23T10:26:40Z</time>
      </trkpt>
      <trkpt lat="50.99904" lon="2.23832">
        <ele>1.7</ele>
        <time>2020-06-23T10:26:41Z</time>
      </trkpt>
      <trkpt lat="50.99906" lon="2.23841">
        <ele>1.7</ele>
        <time>2020-06-23T10:26:42Z</time>
      </trkpt>
      <trkpt lat="50.99908" lon="2.2385">
        <ele>1.7</ele>
        <time>2020-06-23T10:26:43Z</time>
      </trkpt>
      <trkpt lat="50.9991" lon="2.23861">
        <ele>1.7</ele>
        <time>2020-06-23T10:26:44Z</time>
      </trkpt>
      <trkpt lat="50.99912" lon="2.2387">
        <ele>1.7</ele>
        <time>2020-06-23T10:26:45Z</time>
      </trkpt>
      <trkpt lat="50.99914" lon="2.23879">
        <ele>1.6</ele>
        <time>2020-06-23T10:26:46Z</time>
      </trkpt>
      <trkpt lat="50.99915" lon="2.23887">
        <ele>1.5</ele>
        <time>2020-06-23T10:26:47Z</time>
      </trkpt>
      <trkpt lat="50.99917" lon="2.23896">
        <ele>1.4</ele>
        <time>2020-06-23T10:26:48Z</time>
      </trkpt>
      <trkpt lat="50.99918" lon="2.23905">
        <ele>1.3</ele>
        <time>2020-06-23T10:26:49Z</time>
      </trkpt>
      <trkpt lat="50.9992" lon="2.23915">
        <ele>1.2</ele>
        <time>2020-06-23T10:26:50Z</time>
      </trkpt>
      <trkpt lat="50.99923" lon="2.23926">
        <ele>1.1</ele>
        <time>2020-06-23T10:26:51Z</time>
      </trkpt>
      <trkpt lat="50.99925" lon="2.23937">
        <ele>1.1</ele>
        <time>2020-06-23T10:26:52Z</time>
      </trkpt>
      <trkpt lat="50.99927" lon="2.23948">
        <ele>1.1</ele>
        <time>2020-06-23T10:26:53Z</time>
      </trkpt>
      <trkpt lat="50.9993" lon="2.23959">
        <ele>1.1</ele>
        <time>2020-06-23T10:26:54Z</time>
      </trkpt>
      <trkpt lat="50.99932" lon="2.2397">
        <ele>1.1</ele>
        <time>2020-06-23T10:26:55Z</time>
      </trkpt>
      <trkpt lat="50.99934" lon="2.2398">
        <ele>1.1</ele>
        <time>2020-06-23T10:26:56Z</time>
      </trkpt>
      <trkpt lat="50.99936" lon="2.23989">
        <ele>1.1</ele>
        <time>2020-06-23T10:26:57Z</time>
      </trkpt>
      <trkpt lat="50.99938" lon="2.23999">
        <ele>1.1</ele>
        <time>2020-06-23T10:26:58Z</time>
      </trkpt>
      <trkpt lat="50.9994" lon="2.24009">
        <ele>1.1</ele>
        <time>2020-06-23T10:26:59Z</time>
      </trkpt>
      <trkpt lat="50.99942" lon="2.24018">
        <ele>1.1</ele>
        <time>2020-06-23T10:27:00Z</time>
      </trkpt>
      <trkpt lat="50.99944" lon="2.24029">
        <ele>1.1</ele>
        <time>2020-06-23T10:27:01Z</time>
      </trkpt>
      <trkpt lat="50.99946" lon="2.24038">
        <ele>1.1</ele>
        <time>2020-06-23T10:27:02Z</time>
      </trkpt>
      <trkpt lat="50.99949" lon="2.24048">
        <ele>1</ele>
        <time>2020-06-23T10:27:03Z</time>
      </trkpt>
      <trkpt lat="50.99951" lon="2.24058">
        <ele>1</ele>
        <time>2020-06-23T10:27:04Z</time>
      </trkpt>
      <trkpt lat="50.99953" lon="2.24069">
        <ele>1</ele>
        <time>2020-06-23T10:27:05Z</time>
      </trkpt>
      <trkpt lat="50.99955" lon="2.24079">
        <ele>1</ele>
        <time>2020-06-23T10:27:06Z</time>
      </trkpt>
      <trkpt lat="50.99957" lon="2.24089">
        <ele>1</ele>
        <time>2020-06-23T10:27:07Z</time>
      </trkpt>
      <trkpt lat="50.99959" lon="2.241">
        <ele>0.9</ele>
        <time>2020-06-23T10:27:08Z</time>
      </trkpt>
      <trkpt lat="50.99962" lon="2.24112">
        <ele>0.9</ele>
        <time>2020-06-23T10:27:09Z</time>
      </trkpt>
      <trkpt lat="50.99964" lon="2.24123">
        <ele>0.9</ele>
        <time>2020-06-23T10:27:10Z</time>
      </trkpt>
      <trkpt lat="50.99966" lon="2.24133">
        <ele>0.8</ele>
        <time>2020-06-23T10:27:11Z</time>
      </trkpt>
      <trkpt lat="50.99969" lon="2.24143">
        <ele>0.8</ele>
        <time>2020-06-23T10:27:12Z</time>
      </trkpt>
      <trkpt lat="50.9997" lon="2.24153">
        <ele>0.8</ele>
        <time>2020-06-23T10:27:13Z</time>
      </trkpt>
      <trkpt lat="50.99973" lon="2.24164">
        <ele>0.8</ele>
        <time>2020-06-23T10:27:14Z</time>
      </trkpt>
      <trkpt lat="50.99975" lon="2.24175">
        <ele>0.8</ele>
        <time>2020-06-23T10:27:15Z</time>
      </trkpt>
      <trkpt lat="50.99977" lon="2.24186">
        <ele>0.8</ele>
        <time>2020-06-23T10:27:16Z</time>
      </trkpt>
      <trkpt lat="50.9998" lon="2.24197">
        <ele>0.9</ele>
        <time>2020-06-23T10:27:17Z</time>
      </trkpt>
      <trkpt lat="50.99982" lon="2.24208">
        <ele>0.9</ele>
        <time>2020-06-23T10:27:18Z</time>
      </trkpt>
      <trkpt lat="50.99985" lon="2.24218">
        <ele>1</ele>
        <time>2020-06-23T10:27:19Z</time>
      </trkpt>
      <trkpt lat="50.99987" lon="2.24228">
        <ele>1</ele>
        <time>2020-06-23T10:27:20Z</time>
      </trkpt>
      <trkpt lat="50.99989" lon="2.24238">
        <ele>1</ele>
        <time>2020-06-23T10:27:21Z</time>
      </trkpt>
      <trkpt lat="50.99991" lon="2.24248">
        <ele>1</ele>
        <time>2020-06-23T10:27:22Z</time>
      </trkpt>
      <trkpt lat="50.99993" lon="2.24259">
        <ele>1</ele>
        <time>2020-06-23T10:27:23Z</time>
      </trkpt>
      <trkpt lat="50.99996" lon="2.2427">
        <ele>1</ele>
        <time>2020-06-23T10:27:24Z</time>
      </trkpt>
      <trkpt lat="50.99998" lon="2.2428">
        <ele>1</ele>
        <time>2020-06-23T10:27:25Z</time>
      </trkpt>
      <trkpt lat="51" lon="2.24291">
        <ele>1</ele>
        <time>2020-06-23T10:27:26Z</time>
      </trkpt>
      <trkpt lat="51.00002" lon="2.24302">
        <ele>1</ele>
        <time>2020-06-23T10:27:27Z</time>
      </trkpt>
      <trkpt lat="51.00004" lon="2.24313">
        <ele>1</ele>
        <time>2020-06-23T10:27:28Z</time>
      </trkpt>
      <trkpt lat="51.00007" lon="2.24324">
        <ele>1.1</ele>
        <time>2020-06-23T10:27:29Z</time>
      </trkpt>
      <trkpt lat="51.00009" lon="2.24334">
        <ele>1.1</ele>
        <time>2020-06-23T10:27:30Z</time>
      </trkpt>
      <trkpt lat="51.00011" lon="2.24345">
        <ele>1.1</ele>
        <time>2020-06-23T10:27:31Z</time>
      </trkpt>
      <trkpt lat="51.00013" lon="2.24355">
        <ele>1.2</ele>
        <time>2020-06-23T10:27:32Z</time>
      </trkpt>
      <trkpt lat="51.00014" lon="2.24366">
        <ele>1.2</ele>
        <time>2020-06-23T10:27:33Z</time>
      </trkpt>
      <trkpt lat="51.00016" lon="2.24377">
        <ele>1.2</ele>
        <time>2020-06-23T10:27:34Z</time>
      </trkpt>
      <trkpt lat="51.00018" lon="2.24387">
        <ele>1.2</ele>
        <time>2020-06-23T10:27:35Z</time>
      </trkpt>
      <trkpt lat="51.0002" lon="2.24398">
        <ele>1.2</ele>
        <time>2020-06-23T10:27:36Z</time>
      </trkpt>
      <trkpt lat="51.00022" lon="2.24409">
        <ele>1.2</ele>
        <time>2020-06-23T10:27:37Z</time>
      </trkpt>
      <trkpt lat="51.00024" lon="2.24419">
        <ele>1.2</ele>
        <time>2020-06-23T10:27:38Z</time>
      </trkpt>
      <trkpt lat="51.00026" lon="2.2443">
        <ele>1.2</ele>
        <time>2020-06-23T10:27:39Z</time>
      </trkpt>
      <trkpt lat="51.00029" lon="2.24441">
        <ele>1.2</ele>
        <time>2020-06-23T10:27:40Z</time>
      </trkpt>
      <trkpt lat="51.00031" lon="2.24452">
        <ele>1.2</ele>
        <time>2020-06-23T10:27:41Z</time>
      </trkpt>
      <trkpt lat="51.00034" lon="2.24464">
        <ele>1.2</ele>
        <time>2020-06-23T10:27:42Z</time>
      </trkpt>
      <trkpt lat="51.00036" lon="2.24474">
        <ele>1.2</ele>
        <time>2020-06-23T10:27:43Z</time>
      </trkpt>
      <trkpt lat="51.00038" lon="2.24484">
        <ele>1.2</ele>
        <time>2020-06-23T10:27:44Z</time>
      </trkpt>
      <trkpt lat="51.0004" lon="2.24494">
        <ele>1.2</ele>
        <time>2020-06-23T10:27:45Z</time>
      </trkpt>
      <trkpt lat="51.00042" lon="2.24506">
        <ele>1.2</ele>
        <time>2020-06-23T10:27:46Z</time>
      </trkpt>
      <trkpt lat="51.00045" lon="2.24516">
        <ele>1.2</ele>
        <time>2020-06-23T10:27:47Z</time>
      </trkpt>
      <trkpt lat="51.00047" lon="2.24528">
        <ele>1.3</ele>
        <time>2020-06-23T10:27:48Z</time>
      </trkpt>
      <trkpt lat="51.0005" lon="2.24539">
        <ele>1.3</ele>
        <time>2020-06-23T10:27:49Z</time>
      </trkpt>
      <trkpt lat="51.00052" lon="2.2455">
        <ele>1.3</ele>
        <time>2020-06-23T10:27:50Z</time>
      </trkpt>
      <trkpt lat="51.00055" lon="2.2456">
        <ele>1.4</ele>
        <time>2020-06-23T10:27:51Z</time>
      </trkpt>
      <trkpt lat="51.00057" lon="2.2457">
        <ele>1.4</ele>
        <time>2020-06-23T10:27:52Z</time>
      </trkpt>
      <trkpt lat="51.0006" lon="2.24582">
        <ele>1.4</ele>
        <time>2020-06-23T10:27:53Z</time>
      </trkpt>
      <trkpt lat="51.00062" lon="2.24593">
        <ele>1.5</ele>
        <time>2020-06-23T10:27:54Z</time>
      </trkpt>
      <trkpt lat="51.00064" lon="2.24605">
        <ele>1.6</ele>
        <time>2020-06-23T10:27:55Z</time>
      </trkpt>
      <trkpt lat="51.00067" lon="2.24616">
        <ele>1.6</ele>
        <time>2020-06-23T10:27:56Z</time>
      </trkpt>
      <trkpt lat="51.0007" lon="2.24626">
        <ele>1.5</ele>
        <time>2020-06-23T10:27:57Z</time>
      </trkpt>
      <trkpt lat="51.00072" lon="2.24636">
        <ele>1.4</ele>
        <time>2020-06-23T10:27:58Z</time>
      </trkpt>
      <trkpt lat="51.00074" lon="2.24647">
        <ele>1.4</ele>
        <time>2020-06-23T10:27:59Z</time>
      </trkpt>
      <trkpt lat="51.00077" lon="2.24657">
        <ele>1.4</ele>
        <time>2020-06-23T10:28:00Z</time>
      </trkpt>
      <trkpt lat="51.00079" lon="2.24668">
        <ele>1.4</ele>
        <time>2020-06-23T10:28:01Z</time>
      </trkpt>
      <trkpt lat="51.00082" lon="2.24679">
        <ele>1.4</ele>
        <time>2020-06-23T10:28:02Z</time>
      </trkpt>
      <trkpt lat="51.00084" lon="2.24689">
        <ele>1.4</ele>
        <time>2020-06-23T10:28:03Z</time>
      </trkpt>
      <trkpt lat="51.00087" lon="2.247">
        <ele>1.4</ele>
        <time>2020-06-23T10:28:04Z</time>
      </trkpt>
      <trkpt lat="51.00089" lon="2.2471">
        <ele>1.4</ele>
        <time>2020-06-23T10:28:05Z</time>
      </trkpt>
      <trkpt lat="51.00091" lon="2.24721">
        <ele>1.4</ele>
        <time>2020-06-23T10:28:06Z</time>
      </trkpt>
      <trkpt lat="51.00093" lon="2.24731">
        <ele>1.5</ele>
        <time>2020-06-23T10:28:07Z</time>
      </trkpt>
      <trkpt lat="51.00096" lon="2.24742">
        <ele>1.5</ele>
        <time>2020-06-23T10:28:08Z</time>
      </trkpt>
      <trkpt lat="51.00098" lon="2.24752">
        <ele>1.5</ele>
        <time>2020-06-23T10:28:09Z</time>
      </trkpt>
      <trkpt lat="51.00101" lon="2.24762">
        <ele>1.5</ele>
        <time>2020-06-23T10:28:10Z</time>
      </trkpt>
      <trkpt lat="51.00104" lon="2.24773">
        <ele>1.5</ele>
        <time>2020-06-23T10:28:11Z</time>
      </trkpt>
      <trkpt lat="51.00106" lon="2.24783">
        <ele>1.5</ele>
        <time>2020-06-23T10:28:12Z</time>
      </trkpt>
      <trkpt lat="51.00108" lon="2.24794">
        <ele>1.6</ele>
        <time>2020-06-23T10:28:13Z</time>
      </trkpt>
      <trkpt lat="51.00111" lon="2.24804">
        <ele>1.6</ele>
        <time>2020-06-23T10:28:14Z</time>
      </trkpt>
      <trkpt lat="51.00113" lon="2.24813">
        <ele>1.6</ele>
        <time>2020-06-23T10:28:15Z</time>
      </trkpt>
      <trkpt lat="51.00115" lon="2.24823">
        <ele>1.7</ele>
        <time>2020-06-23T10:28:16Z</time>
      </trkpt>
      <trkpt lat="51.00117" lon="2.24832">
        <ele>1.8</ele>
        <time>2020-06-23T10:28:17Z</time>
      </trkpt>
      <trkpt lat="51.00119" lon="2.24841">
        <ele>1.8</ele>
        <time>2020-06-23T10:28:18Z</time>
      </trkpt>
      <trkpt lat="51.0012" lon="2.2485">
        <ele>1.9</ele>
        <time>2020-06-23T10:28:19Z</time>
      </trkpt>
      <trkpt lat="51.00122" lon="2.24859">
        <ele>2</ele>
        <time>2020-06-23T10:28:20Z</time>
      </trkpt>
      <trkpt lat="51.00124" lon="2.24867">
        <ele>2.1</ele>
        <time>2020-06-23T10:28:21Z</time>
      </trkpt>
      <trkpt lat="51.00126" lon="2.24876">
        <ele>2.2</ele>
        <time>2020-06-23T10:28:22Z</time>
      </trkpt>
      <trkpt lat="51.00128" lon="2.24883">
        <ele>2.3</ele>
        <time>2020-06-23T10:28:23Z</time>
      </trkpt>
      <trkpt lat="51.00131" lon="2.24888">
        <ele>2.6</ele>
        <time>2020-06-23T10:28:24Z</time>
      </trkpt>
      <trkpt lat="51.00133" lon="2.2489">
        <ele>2.6</ele>
        <time>2020-06-23T10:28:25Z</time>
      </trkpt>
      <trkpt lat="51.00134" lon="2.24889">
        <ele>2.6</ele>
        <time>2020-06-23T10:28:26Z</time>
      </trkpt>
      <trkpt lat="51.00135" lon="2.24887">
        <ele>2.6</ele>
        <time>2020-06-23T10:28:27Z</time>
      </trkpt>
      <trkpt lat="51.00136" lon="2.24884">
        <ele>2.7</ele>
        <time>2020-06-23T10:28:28Z</time>
      </trkpt>
      <trkpt lat="51.00137" lon="2.24883">
        <ele>2.7</ele>
        <time>2020-06-23T10:28:29Z</time>
      </trkpt>
      <trkpt lat="51.00138" lon="2.24882">
        <ele>2.7</ele>
        <time>2020-06-23T10:28:30Z</time>
      </trkpt>
      <trkpt lat="51.00139" lon="2.24882">
        <ele>2.7</ele>
        <time>2020-06-23T10:28:31Z</time>
      </trkpt>
      <trkpt lat="51.00139" lon="2.24882">
        <ele>2.7</ele>
        <time>2020-06-23T10:28:32Z</time>
      </trkpt>
      <trkpt lat="51.0014" lon="2.24881">
        <ele>2.7</ele>
        <time>2020-06-23T10:28:33Z</time>
      </trkpt>
      <trkpt lat="51.00141" lon="2.24881">
        <ele>2.7</ele>
        <time>2020-06-23T10:28:34Z</time>
      </trkpt>
      <trkpt lat="51.00141" lon="2.2488">
        <ele>2.7</ele>
        <time>2020-06-23T10:28:35Z</time>
      </trkpt>
      <trkpt lat="51.00142" lon="2.2488">
        <ele>2.7</ele>
        <time>2020-06-23T10:28:36Z</time>
      </trkpt>
      <trkpt lat="51.00143" lon="2.24879">
        <ele>2.8</ele>
        <time>2020-06-23T10:28:37Z</time>
      </trkpt>
      <trkpt lat="51.00144" lon="2.24879">
        <ele>2.8</ele>
        <time>2020-06-23T10:28:38Z</time>
      </trkpt>
      <trkpt lat="51.00144" lon="2.24879">
        <ele>2.8</ele>
        <time>2020-06-23T10:28:39Z</time>
      </trkpt>
      <trkpt lat="51.00145" lon="2.24878">
        <ele>2.8</ele>
        <time>2020-06-23T10:28:52Z</time>
      </trkpt>
      <trkpt lat="51.00146" lon="2.24878">
        <ele>2.8</ele>
        <time>2020-06-23T10:28:53Z</time>
      </trkpt>
      <trkpt lat="51.00148" lon="2.24874">
        <ele>2.8</ele>
        <time>2020-06-23T10:28:54Z</time>
      </trkpt>
      <trkpt lat="51.00151" lon="2.24872">
        <ele>2.8</ele>
        <time>2020-06-23T10:28:55Z</time>
      </trkpt>
      <trkpt lat="51.00153" lon="2.24872">
        <ele>2.8</ele>
        <time>2020-06-23T10:28:56Z</time>
      </trkpt>
      <trkpt lat="51.00155" lon="2.24871">
        <ele>2.8</ele>
        <time>2020-06-23T10:28:57Z</time>
      </trkpt>
      <trkpt lat="51.00159" lon="2.24867">
        <ele>2.8</ele>
        <time>2020-06-23T10:28:58Z</time>
      </trkpt>
      <trkpt lat="51.0016" lon="2.24865">
        <ele>2.8</ele>
        <time>2020-06-23T10:28:59Z</time>
      </trkpt>
      <trkpt lat="51.00163" lon="2.24861">
        <ele>2.8</ele>
        <time>2020-06-23T10:29:00Z</time>
      </trkpt>
      <trkpt lat="51.00164" lon="2.2486">
        <ele>2.8</ele>
        <time>2020-06-23T10:29:01Z</time>
      </trkpt>
      <trkpt lat="51.00166" lon="2.24856">
        <ele>2.8</ele>
        <time>2020-06-23T10:29:02Z</time>
      </trkpt>
      <trkpt lat="51.00167" lon="2.24856">
        <ele>2.8</ele>
        <time>2020-06-23T10:29:03Z</time>
      </trkpt>
      <trkpt lat="51.0017" lon="2.24853">
        <ele>2.8</ele>
        <time>2020-06-23T10:29:04Z</time>
      </trkpt>
      <trkpt lat="51.00171" lon="2.24852">
        <ele>2.8</ele>
        <time>2020-06-23T10:29:05Z</time>
      </trkpt>
      <trkpt lat="51.00173" lon="2.24849">
        <ele>2.8</ele>
        <time>2020-06-23T10:29:06Z</time>
      </trkpt>
      <trkpt lat="51.00174" lon="2.24847">
        <ele>2.8</ele>
        <time>2020-06-23T10:29:07Z</time>
      </trkpt>
      <trkpt lat="51.00177" lon="2.24844">
        <ele>2.8</ele>
        <time>2020-06-23T10:29:08Z</time>
      </trkpt>
      <trkpt lat="51.00179" lon="2.24841">
        <ele>2.7</ele>
        <time>2020-06-23T10:29:09Z</time>
      </trkpt>
      <trkpt lat="51.00182" lon="2.24839">
        <ele>2.7</ele>
        <time>2020-06-23T10:29:10Z</time>
      </trkpt>
      <trkpt lat="51.00184" lon="2.24842">
        <ele>2.7</ele>
        <time>2020-06-23T10:29:11Z</time>
      </trkpt>
      <trkpt lat="51.00186" lon="2.24845">
        <ele>2.7</ele>
        <time>2020-06-23T10:29:12Z</time>
      </trkpt>
      <trkpt lat="51.00188" lon="2.2485">
        <ele>2.7</ele>
        <time>2020-06-23T10:29:13Z</time>
      </trkpt>
      <trkpt lat="51.00188" lon="2.24852">
        <ele>2.7</ele>
        <time>2020-06-23T10:29:14Z</time>
      </trkpt>
      <trkpt lat="51.00189" lon="2.24855">
        <ele>2.7</ele>
        <time>2020-06-23T10:29:15Z</time>
      </trkpt>
      <trkpt lat="51.00189" lon="2.24857">
        <ele>2.7</ele>
        <time>2020-06-23T10:29:16Z</time>
      </trkpt>
      <trkpt lat="51.0019" lon="2.24862">
        <ele>2.7</ele>
        <time>2020-06-23T10:29:17Z</time>
      </trkpt>
      <trkpt lat="51.0019" lon="2.24863">
        <ele>2.7</ele>
        <time>2020-06-23T10:29:18Z</time>
      </trkpt>
      <trkpt lat="51.00191" lon="2.24869">
        <ele>2.7</ele>
        <time>2020-06-23T10:29:19Z</time>
      </trkpt>
      <trkpt lat="51.00192" lon="2.24871">
        <ele>2.7</ele>
        <time>2020-06-23T10:29:20Z</time>
      </trkpt>
      <trkpt lat="51.00192" lon="2.24875">
        <ele>2.7</ele>
        <time>2020-06-23T10:29:21Z</time>
      </trkpt>
      <trkpt lat="51.00195" lon="2.2488">
        <ele>2.8</ele>
        <time>2020-06-23T10:29:22Z</time>
      </trkpt>
      <trkpt lat="51.00196" lon="2.24881">
        <ele>2.8</ele>
        <time>2020-06-23T10:29:23Z</time>
      </trkpt>
      <trkpt lat="51.00198" lon="2.24884">
        <ele>2.8</ele>
        <time>2020-06-23T10:29:24Z</time>
      </trkpt>
      <trkpt lat="51.00199" lon="2.24888">
        <ele>2.8</ele>
        <time>2020-06-23T10:29:25Z</time>
      </trkpt>
      <trkpt lat="51.00202" lon="2.2489">
        <ele>2.8</ele>
        <time>2020-06-23T10:29:26Z</time>
      </trkpt>
      <trkpt lat="51.00204" lon="2.24894">
        <ele>2.8</ele>
        <time>2020-06-23T10:29:27Z</time>
      </trkpt>
      <trkpt lat="51.00207" lon="2.24897">
        <ele>2.8</ele>
        <time>2020-06-23T10:29:28Z</time>
      </trkpt>
      <trkpt lat="51.00208" lon="2.24898">
        <ele>2.8</ele>
        <time>2020-06-23T10:29:29Z</time>
      </trkpt>
      <trkpt lat="51.0021" lon="2.24902">
        <ele>2.8</ele>
        <time>2020-06-23T10:29:30Z</time>
      </trkpt>
      <trkpt lat="51.00212" lon="2.24906">
        <ele>2.8</ele>
        <time>2020-06-23T10:29:31Z</time>
      </trkpt>
      <trkpt lat="51.00214" lon="2.2491">
        <ele>2.9</ele>
        <time>2020-06-23T10:29:32Z</time>
      </trkpt>
      <trkpt lat="51.00216" lon="2.24916">
        <ele>3</ele>
        <time>2020-06-23T10:29:33Z</time>
      </trkpt>
      <trkpt lat="51.00216" lon="2.24923">
        <ele>3</ele>
        <time>2020-06-23T10:29:34Z</time>
      </trkpt>
      <trkpt lat="51.00215" lon="2.24931">
        <ele>2.9</ele>
        <time>2020-06-23T10:29:35Z</time>
      </trkpt>
      <trkpt lat="51.00216" lon="2.24938">
        <ele>2.9</ele>
        <time>2020-06-23T10:29:36Z</time>
      </trkpt>
      <trkpt lat="51.00218" lon="2.24946">
        <ele>2.9</ele>
        <time>2020-06-23T10:29:37Z</time>
      </trkpt>
      <trkpt lat="51.00219" lon="2.24954">
        <ele>2.9</ele>
        <time>2020-06-23T10:29:38Z</time>
      </trkpt>
      <trkpt lat="51.00221" lon="2.24961">
        <ele>2.9</ele>
        <time>2020-06-23T10:29:39Z</time>
      </trkpt>
      <trkpt lat="51.00223" lon="2.24968">
        <ele>3</ele>
        <time>2020-06-23T10:29:40Z</time>
      </trkpt>
      <trkpt lat="51.00224" lon="2.24976">
        <ele>3</ele>
        <time>2020-06-23T10:29:41Z</time>
      </trkpt>
      <trkpt lat="51.00226" lon="2.24983">
        <ele>3</ele>
        <time>2020-06-23T10:29:42Z</time>
      </trkpt>
      <trkpt lat="51.00228" lon="2.2499">
        <ele>3.1</ele>
        <time>2020-06-23T10:29:43Z</time>
      </trkpt>
      <trkpt lat="51.0023" lon="2.24998">
        <ele>3.1</ele>
        <time>2020-06-23T10:29:44Z</time>
      </trkpt>
      <trkpt lat="51.00231" lon="2.25005">
        <ele>3.2</ele>
        <time>2020-06-23T10:29:45Z</time>
      </trkpt>
      <trkpt lat="51.00232" lon="2.25013">
        <ele>3.3</ele>
        <time>2020-06-23T10:29:46Z</time>
      </trkpt>
      <trkpt lat="51.00233" lon="2.25021">
        <ele>3.4</ele>
        <time>2020-06-23T10:29:47Z</time>
      </trkpt>
      <trkpt lat="51.00234" lon="2.2503">
        <ele>3.6</ele>
        <time>2020-06-23T10:29:48Z</time>
      </trkpt>
      <trkpt lat="51.00235" lon="2.25039">
        <ele>3.7</ele>
        <time>2020-06-23T10:29:49Z</time>
      </trkpt>
      <trkpt lat="51.00236" lon="2.25048">
        <ele>3.8</ele>
        <time>2020-06-23T10:29:50Z</time>
      </trkpt>
      <trkpt lat="51.00238" lon="2.25056">
        <ele>4</ele>
        <time>2020-06-23T10:29:51Z</time>
      </trkpt>
      <trkpt lat="51.00239" lon="2.25064">
        <ele>4.1</ele>
        <time>2020-06-23T10:29:52Z</time>
      </trkpt>
      <trkpt lat="51.00241" lon="2.25071">
        <ele>4.2</ele>
        <time>2020-06-23T10:29:53Z</time>
      </trkpt>
      <trkpt lat="51.00242" lon="2.25078">
        <ele>4.4</ele>
        <time>2020-06-23T10:29:54Z</time>
      </trkpt>
      <trkpt lat="51.00242" lon="2.25084">
        <ele>4.5</ele>
        <time>2020-06-23T10:29:55Z</time>
      </trkpt>
      <trkpt lat="51.00243" lon="2.2509">
        <ele>4.6</ele>
        <time>2020-06-23T10:29:56Z</time>
      </trkpt>
      <trkpt lat="51.00244" lon="2.25097">
        <ele>4.7</ele>
        <time>2020-06-23T10:29:57Z</time>
      </trkpt>
      <trkpt lat="51.00245" lon="2.25106">
        <ele>4.9</ele>
        <time>2020-06-23T10:29:58Z</time>
      </trkpt>
      <trkpt lat="51.00247" lon="2.25113">
        <ele>5</ele>
        <time>2020-06-23T10:29:59Z</time>
      </trkpt>
      <trkpt lat="51.00248" lon="2.25119">
        <ele>5.1</ele>
        <time>2020-06-23T10:30:00Z</time>
      </trkpt>
      <trkpt lat="51.0025" lon="2.2513">
        <ele>5.3</ele>
        <time>2020-06-23T10:30:01Z</time>
      </trkpt>
      <trkpt lat="51.00251" lon="2.25135">
        <ele>5.4</ele>
        <time>2020-06-23T10:30:02Z</time>
      </trkpt>
      <trkpt lat="51.00252" lon="2.25142">
        <ele>5.5</ele>
        <time>2020-06-23T10:30:03Z</time>
      </trkpt>
      <trkpt lat="51.00253" lon="2.25149">
        <ele>5.6</ele>
        <time>2020-06-23T10:30:04Z</time>
      </trkpt>
      <trkpt lat="51.00255" lon="2.25156">
        <ele>5.7</ele>
        <time>2020-06-23T10:30:05Z</time>
      </trkpt>
      <trkpt lat="51.00256" lon="2.25164">
        <ele>5.8</ele>
        <time>2020-06-23T10:30:06Z</time>
      </trkpt>
      <trkpt lat="51.00258" lon="2.25172">
        <ele>6</ele>
        <time>2020-06-23T10:30:07Z</time>
      </trkpt>
      <trkpt lat="51.0026" lon="2.25179">
        <ele>6.1</ele>
        <time>2020-06-23T10:30:08Z</time>
      </trkpt>
      <trkpt lat="51.00262" lon="2.25188">
        <ele>6.2</ele>
        <time>2020-06-23T10:30:09Z</time>
      </trkpt>
      <trkpt lat="51.00263" lon="2.25194">
        <ele>6.4</ele>
        <time>2020-06-23T10:30:10Z</time>
      </trkpt>
      <trkpt lat="51.00265" lon="2.25202">
        <ele>6.5</ele>
        <time>2020-06-23T10:30:11Z</time>
      </trkpt>
      <trkpt lat="51.00266" lon="2.2521">
        <ele>6.6</ele>
        <time>2020-06-23T10:30:12Z</time>
      </trkpt>
      <trkpt lat="51.00268" lon="2.25218">
        <ele>6.7</ele>
        <time>2020-06-23T10:30:13Z</time>
      </trkpt>
      <trkpt lat="51.00269" lon="2.25225">
        <ele>6.8</ele>
        <time>2020-06-23T10:30:14Z</time>
      </trkpt>
      <trkpt lat="51.00271" lon="2.25233">
        <ele>6.9</ele>
        <time>2020-06-23T10:30:15Z</time>
      </trkpt>
      <trkpt lat="51.00272" lon="2.25241">
        <ele>7</ele>
        <time>2020-06-23T10:30:16Z</time>
      </trkpt>
      <trkpt lat="51.00274" lon="2.2525">
        <ele>7.1</ele>
        <time>2020-06-23T10:30:17Z</time>
      </trkpt>
      <trkpt lat="51.00276" lon="2.25258">
        <ele>7.2</ele>
        <time>2020-06-23T10:30:18Z</time>
      </trkpt>
      <trkpt lat="51.00277" lon="2.25265">
        <ele>7.2</ele>
        <time>2020-06-23T10:30:19Z</time>
      </trkpt>
      <trkpt lat="51.00278" lon="2.25272">
        <ele>7.3</ele>
        <time>2020-06-23T10:30:20Z</time>
      </trkpt>
      <trkpt lat="51.00279" lon="2.2528">
        <ele>7.4</ele>
        <time>2020-06-23T10:30:21Z</time>
      </trkpt>
      <trkpt lat="51.00281" lon="2.25289">
        <ele>7.5</ele>
        <time>2020-06-23T10:30:22Z</time>
      </trkpt>
      <trkpt lat="51.00282" lon="2.25296">
        <ele>7.5</ele>
        <time>2020-06-23T10:30:23Z</time>
      </trkpt>
      <trkpt lat="51.00284" lon="2.25304">
        <ele>7.6</ele>
        <time>2020-06-23T10:30:24Z</time>
      </trkpt>
      <trkpt lat="51.00285" lon="2.25312">
        <ele>7.7</ele>
        <time>2020-06-23T10:30:25Z</time>
      </trkpt>
      <trkpt lat="51.00286" lon="2.25318">
        <ele>7.7</ele>
        <time>2020-06-23T10:30:26Z</time>
      </trkpt>
      <trkpt lat="51.00287" lon="2.25326">
        <ele>7.8</ele>
        <time>2020-06-23T10:30:27Z</time>
      </trkpt>
      <trkpt lat="51.00288" lon="2.25333">
        <ele>7.8</ele>
        <time>2020-06-23T10:30:28Z</time>
      </trkpt>
      <trkpt lat="51.0029" lon="2.25341">
        <ele>7.9</ele>
        <time>2020-06-23T10:30:29Z</time>
      </trkpt>
      <trkpt lat="51.00291" lon="2.25349">
        <ele>8</ele>
        <time>2020-06-23T10:30:30Z</time>
      </trkpt>
      <trkpt lat="51.00293" lon="2.25357">
        <ele>8</ele>
        <time>2020-06-23T10:30:31Z</time>
      </trkpt>
      <trkpt lat="51.00294" lon="2.25365">
        <ele>8.1</ele>
        <time>2020-06-23T10:30:32Z</time>
      </trkpt>
      <trkpt lat="51.00295" lon="2.25373">
        <ele>8.1</ele>
        <time>2020-06-23T10:30:33Z</time>
      </trkpt>
      <trkpt lat="51.00296" lon="2.2538">
        <ele>8.1</ele>
        <time>2020-06-23T10:30:34Z</time>
      </trkpt>
      <trkpt lat="51.00297" lon="2.25387">
        <ele>8.2</ele>
        <time>2020-06-23T10:30:35Z</time>
      </trkpt>
      <trkpt lat="51.00298" lon="2.25394">
        <ele>8.2</ele>
        <time>2020-06-23T10:30:36Z</time>
      </trkpt>
      <trkpt lat="51.00299" lon="2.25401">
        <ele>8.2</ele>
        <time>2020-06-23T10:30:37Z</time>
      </trkpt>
      <trkpt lat="51.00299" lon="2.25409">
        <ele>8.2</ele>
        <time>2020-06-23T10:30:38Z</time>
      </trkpt>
      <trkpt lat="51.003" lon="2.25417">
        <ele>8.3</ele>
        <time>2020-06-23T10:30:39Z</time>
      </trkpt>
      <trkpt lat="51.00302" lon="2.25426">
        <ele>8.3</ele>
        <time>2020-06-23T10:30:40Z</time>
      </trkpt>
      <trkpt lat="51.00302" lon="2.25434">
        <ele>8.3</ele>
        <time>2020-06-23T10:30:41Z</time>
      </trkpt>
      <trkpt lat="51.00303" lon="2.25443">
        <ele>8.4</ele>
        <time>2020-06-23T10:30:42Z</time>
      </trkpt>
      <trkpt lat="51.00304" lon="2.25451">
        <ele>8.4</ele>
        <time>2020-06-23T10:30:43Z</time>
      </trkpt>
      <trkpt lat="51.00305" lon="2.25459">
        <ele>8.5</ele>
        <time>2020-06-23T10:30:44Z</time>
      </trkpt>
      <trkpt lat="51.00306" lon="2.25468">
        <ele>8.5</ele>
        <time>2020-06-23T10:30:45Z</time>
      </trkpt>
      <trkpt lat="51.00307" lon="2.25476">
        <ele>8.5</ele>
        <time>2020-06-23T10:30:46Z</time>
      </trkpt>
      <trkpt lat="51.00309" lon="2.25485">
        <ele>8.5</ele>
        <time>2020-06-23T10:30:47Z</time>
      </trkpt>
      <trkpt lat="51.0031" lon="2.25494">
        <ele>8.5</ele>
        <time>2020-06-23T10:30:48Z</time>
      </trkpt>
      <trkpt lat="51.00311" lon="2.25503">
        <ele>8.5</ele>
        <time>2020-06-23T10:30:49Z</time>
      </trkpt>
      <trkpt lat="51.00312" lon="2.25512">
        <ele>8.5</ele>
        <time>2020-06-23T10:30:50Z</time>
      </trkpt>
      <trkpt lat="51.00313" lon="2.2552">
        <ele>8.4</ele>
        <time>2020-06-23T10:30:51Z</time>
      </trkpt>
      <trkpt lat="51.00314" lon="2.25529">
        <ele>8.4</ele>
        <time>2020-06-23T10:30:52Z</time>
      </trkpt>
      <trkpt lat="51.00315" lon="2.25538">
        <ele>8.3</ele>
        <time>2020-06-23T10:30:53Z</time>
      </trkpt>
      <trkpt lat="51.00316" lon="2.25547">
        <ele>8.3</ele>
        <time>2020-06-23T10:30:54Z</time>
      </trkpt>
      <trkpt lat="51.00318" lon="2.25557">
        <ele>8.3</ele>
        <time>2020-06-23T10:30:55Z</time>
      </trkpt>
      <trkpt lat="51.00319" lon="2.25566">
        <ele>8.3</ele>
        <time>2020-06-23T10:30:56Z</time>
      </trkpt>
      <trkpt lat="51.00321" lon="2.25576">
        <ele>8.3</ele>
        <time>2020-06-23T10:30:57Z</time>
      </trkpt>
      <trkpt lat="51.00322" lon="2.25586">
        <ele>8.2</ele>
        <time>2020-06-23T10:30:58Z</time>
      </trkpt>
      <trkpt lat="51.00323" lon="2.25595">
        <ele>8.2</ele>
        <time>2020-06-23T10:30:59Z</time>
      </trkpt>
      <trkpt lat="51.00325" lon="2.25604">
        <ele>8.2</ele>
        <time>2020-06-23T10:31:00Z</time>
      </trkpt>
      <trkpt lat="51.00326" lon="2.25613">
        <ele>8.2</ele>
        <time>2020-06-23T10:31:01Z</time>
      </trkpt>
      <trkpt lat="51.00327" lon="2.25621">
        <ele>8.1</ele>
        <time>2020-06-23T10:31:02Z</time>
      </trkpt>
      <trkpt lat="51.00328" lon="2.2563">
        <ele>8.1</ele>
        <time>2020-06-23T10:31:03Z</time>
      </trkpt>
      <trkpt lat="51.00329" lon="2.2564">
        <ele>8.1</ele>
        <time>2020-06-23T10:31:04Z</time>
      </trkpt>
      <trkpt lat="51.0033" lon="2.2565">
        <ele>8.1</ele>
        <time>2020-06-23T10:31:05Z</time>
      </trkpt>
      <trkpt lat="51.00331" lon="2.25659">
        <ele>8.1</ele>
        <time>2020-06-23T10:31:06Z</time>
      </trkpt>
      <trkpt lat="51.00332" lon="2.2567">
        <ele>8.1</ele>
        <time>2020-06-23T10:31:07Z</time>
      </trkpt>
      <trkpt lat="51.00333" lon="2.25681">
        <ele>8</ele>
        <time>2020-06-23T10:31:08Z</time>
      </trkpt>
      <trkpt lat="51.00335" lon="2.25691">
        <ele>8</ele>
        <time>2020-06-23T10:31:09Z</time>
      </trkpt>
      <trkpt lat="51.00336" lon="2.25702">
        <ele>8</ele>
        <time>2020-06-23T10:31:10Z</time>
      </trkpt>
      <trkpt lat="51.00337" lon="2.25712">
        <ele>8</ele>
        <time>2020-06-23T10:31:11Z</time>
      </trkpt>
      <trkpt lat="51.00338" lon="2.2572">
        <ele>8</ele>
        <time>2020-06-23T10:31:12Z</time>
      </trkpt>
      <trkpt lat="51.00339" lon="2.2573">
        <ele>8</ele>
        <time>2020-06-23T10:31:13Z</time>
      </trkpt>
      <trkpt lat="51.0034" lon="2.2574">
        <ele>7.9</ele>
        <time>2020-06-23T10:31:14Z</time>
      </trkpt>
      <trkpt lat="51.00341" lon="2.2575">
        <ele>7.9</ele>
        <time>2020-06-23T10:31:15Z</time>
      </trkpt>
      <trkpt lat="51.00342" lon="2.25759">
        <ele>7.9</ele>
        <time>2020-06-23T10:31:16Z</time>
      </trkpt>
      <trkpt lat="51.00343" lon="2.25769">
        <ele>7.9</ele>
        <time>2020-06-23T10:31:17Z</time>
      </trkpt>
      <trkpt lat="51.00344" lon="2.2578">
        <ele>7.9</ele>
        <time>2020-06-23T10:31:18Z</time>
      </trkpt>
      <trkpt lat="51.00346" lon="2.25789">
        <ele>7.9</ele>
        <time>2020-06-23T10:31:19Z</time>
      </trkpt>
      <trkpt lat="51.00347" lon="2.25799">
        <ele>7.9</ele>
        <time>2020-06-23T10:31:20Z</time>
      </trkpt>
      <trkpt lat="51.00348" lon="2.2581">
        <ele>7.9</ele>
        <time>2020-06-23T10:31:21Z</time>
      </trkpt>
      <trkpt lat="51.00349" lon="2.2582">
        <ele>7.8</ele>
        <time>2020-06-23T10:31:22Z</time>
      </trkpt>
      <trkpt lat="51.00351" lon="2.2583">
        <ele>7.8</ele>
        <time>2020-06-23T10:31:23Z</time>
      </trkpt>
      <trkpt lat="51.00352" lon="2.25841">
        <ele>7.8</ele>
        <time>2020-06-23T10:31:24Z</time>
      </trkpt>
      <trkpt lat="51.00353" lon="2.25851">
        <ele>7.8</ele>
        <time>2020-06-23T10:31:25Z</time>
      </trkpt>
      <trkpt lat="51.00354" lon="2.25862">
        <ele>7.7</ele>
        <time>2020-06-23T10:31:26Z</time>
      </trkpt>
      <trkpt lat="51.00356" lon="2.25872">
        <ele>7.7</ele>
        <time>2020-06-23T10:31:27Z</time>
      </trkpt>
      <trkpt lat="51.00357" lon="2.25882">
        <ele>7.6</ele>
        <time>2020-06-23T10:31:28Z</time>
      </trkpt>
      <trkpt lat="51.00358" lon="2.25892">
        <ele>7.6</ele>
        <time>2020-06-23T10:31:29Z</time>
      </trkpt>
      <trkpt lat="51.00359" lon="2.25902">
        <ele>7.6</ele>
        <time>2020-06-23T10:31:30Z</time>
      </trkpt>
      <trkpt lat="51.0036" lon="2.25912">
        <ele>7.5</ele>
        <time>2020-06-23T10:31:31Z</time>
      </trkpt>
      <trkpt lat="51.00361" lon="2.25921">
        <ele>7.5</ele>
        <time>2020-06-23T10:31:32Z</time>
      </trkpt>
      <trkpt lat="51.00362" lon="2.25931">
        <ele>7.5</ele>
        <time>2020-06-23T10:31:33Z</time>
      </trkpt>
      <trkpt lat="51.00364" lon="2.25941">
        <ele>7.4</ele>
        <time>2020-06-23T10:31:34Z</time>
      </trkpt>
      <trkpt lat="51.00364" lon="2.25951">
        <ele>7.4</ele>
        <time>2020-06-23T10:31:35Z</time>
      </trkpt>
      <trkpt lat="51.00366" lon="2.25963">
        <ele>7.3</ele>
        <time>2020-06-23T10:31:36Z</time>
      </trkpt>
      <trkpt lat="51.00367" lon="2.25974">
        <ele>7.3</ele>
        <time>2020-06-23T10:31:37Z</time>
      </trkpt>
      <trkpt lat="51.00368" lon="2.25985">
        <ele>7.3</ele>
        <time>2020-06-23T10:31:38Z</time>
      </trkpt>
      <trkpt lat="51.0037" lon="2.25996">
        <ele>7.3</ele>
        <time>2020-06-23T10:31:39Z</time>
      </trkpt>
      <trkpt lat="51.00371" lon="2.26007">
        <ele>7.3</ele>
        <time>2020-06-23T10:31:40Z</time>
      </trkpt>
      <trkpt lat="51.00372" lon="2.26017">
        <ele>7.3</ele>
        <time>2020-06-23T10:31:41Z</time>
      </trkpt>
      <trkpt lat="51.00373" lon="2.26027">
        <ele>7.3</ele>
        <time>2020-06-23T10:31:42Z</time>
      </trkpt>
      <trkpt lat="51.00374" lon="2.26036">
        <ele>7.3</ele>
        <time>2020-06-23T10:31:43Z</time>
      </trkpt>
      <trkpt lat="51.00375" lon="2.26045">
        <ele>7.3</ele>
        <time>2020-06-23T10:31:44Z</time>
      </trkpt>
      <trkpt lat="51.00377" lon="2.26055">
        <ele>7.3</ele>
        <time>2020-06-23T10:31:45Z</time>
      </trkpt>
      <trkpt lat="51.00377" lon="2.26065">
        <ele>7.3</ele>
        <time>2020-06-23T10:31:46Z</time>
      </trkpt>
      <trkpt lat="51.00378" lon="2.26074">
        <ele>7.3</ele>
        <time>2020-06-23T10:31:47Z</time>
      </trkpt>
      <trkpt lat="51.00379" lon="2.26083">
        <ele>7.3</ele>
        <time>2020-06-23T10:31:48Z</time>
      </trkpt>
      <trkpt lat="51.0038" lon="2.26093">
        <ele>7.3</ele>
        <time>2020-06-23T10:31:49Z</time>
      </trkpt>
      <trkpt lat="51.00382" lon="2.26103">
        <ele>7.3</ele>
        <time>2020-06-23T10:31:50Z</time>
      </trkpt>
      <trkpt lat="51.00383" lon="2.26111">
        <ele>7.3</ele>
        <time>2020-06-23T10:31:51Z</time>
      </trkpt>
      <trkpt lat="51.00384" lon="2.26121">
        <ele>7.3</ele>
        <time>2020-06-23T10:31:52Z</time>
      </trkpt>
      <trkpt lat="51.00386" lon="2.26131">
        <ele>7.3</ele>
        <time>2020-06-23T10:31:53Z</time>
      </trkpt>
      <trkpt lat="51.00387" lon="2.26141">
        <ele>7.3</ele>
        <time>2020-06-23T10:31:54Z</time>
      </trkpt>
      <trkpt lat="51.00389" lon="2.2615">
        <ele>7.3</ele>
        <time>2020-06-23T10:31:55Z</time>
      </trkpt>
      <trkpt lat="51.00391" lon="2.26159">
        <ele>7.3</ele>
        <time>2020-06-23T10:31:56Z</time>
      </trkpt>
      <trkpt lat="51.00392" lon="2.26168">
        <ele>7.3</ele>
        <time>2020-06-23T10:31:57Z</time>
      </trkpt>
      <trkpt lat="51.00394" lon="2.26178">
        <ele>7.2</ele>
        <time>2020-06-23T10:31:58Z</time>
      </trkpt>
      <trkpt lat="51.00395" lon="2.26187">
        <ele>7.2</ele>
        <time>2020-06-23T10:31:59Z</time>
      </trkpt>
      <trkpt lat="51.00397" lon="2.26198">
        <ele>7.3</ele>
        <time>2020-06-23T10:32:00Z</time>
      </trkpt>
      <trkpt lat="51.00399" lon="2.26208">
        <ele>7.3</ele>
        <time>2020-06-23T10:32:01Z</time>
      </trkpt>
      <trkpt lat="51.00401" lon="2.26218">
        <ele>7.3</ele>
        <time>2020-06-23T10:32:02Z</time>
      </trkpt>
      <trkpt lat="51.00403" lon="2.26228">
        <ele>7.3</ele>
        <time>2020-06-23T10:32:03Z</time>
      </trkpt>
      <trkpt lat="51.00405" lon="2.26238">
        <ele>7.3</ele>
        <time>2020-06-23T10:32:04Z</time>
      </trkpt>
      <trkpt lat="51.00407" lon="2.26246">
        <ele>7.4</ele>
        <time>2020-06-23T10:32:05Z</time>
      </trkpt>
      <trkpt lat="51.00408" lon="2.26255">
        <ele>7.4</ele>
        <time>2020-06-23T10:32:06Z</time>
      </trkpt>
      <trkpt lat="51.0041" lon="2.26264">
        <ele>7.5</ele>
        <time>2020-06-23T10:32:07Z</time>
      </trkpt>
      <trkpt lat="51.00412" lon="2.26273">
        <ele>7.5</ele>
        <time>2020-06-23T10:32:08Z</time>
      </trkpt>
      <trkpt lat="51.00414" lon="2.26282">
        <ele>7.5</ele>
        <time>2020-06-23T10:32:09Z</time>
      </trkpt>
      <trkpt lat="51.00416" lon="2.26291">
        <ele>7.6</ele>
        <time>2020-06-23T10:32:10Z</time>
      </trkpt>
      <trkpt lat="51.00417" lon="2.26301">
        <ele>7.6</ele>
        <time>2020-06-23T10:32:11Z</time>
      </trkpt>
      <trkpt lat="51.00419" lon="2.2631">
        <ele>7.7</ele>
        <time>2020-06-23T10:32:12Z</time>
      </trkpt>
      <trkpt lat="51.0042" lon="2.26317">
        <ele>7.8</ele>
        <time>2020-06-23T10:32:13Z</time>
      </trkpt>
      <trkpt lat="51.00422" lon="2.26326">
        <ele>7.9</ele>
        <time>2020-06-23T10:32:14Z</time>
      </trkpt>
      <trkpt lat="51.00424" lon="2.26335">
        <ele>8</ele>
        <time>2020-06-23T10:32:15Z</time>
      </trkpt>
      <trkpt lat="51.00425" lon="2.26344">
        <ele>8.1</ele>
        <time>2020-06-23T10:32:16Z</time>
      </trkpt>
      <trkpt lat="51.00427" lon="2.26353">
        <ele>8.3</ele>
        <time>2020-06-23T10:32:17Z</time>
      </trkpt>
      <trkpt lat="51.00429" lon="2.26362">
        <ele>8.4</ele>
        <time>2020-06-23T10:32:18Z</time>
      </trkpt>
      <trkpt lat="51.0043" lon="2.26371">
        <ele>8.4</ele>
        <time>2020-06-23T10:32:19Z</time>
      </trkpt>
      <trkpt lat="51.00432" lon="2.26379">
        <ele>8.4</ele>
        <time>2020-06-23T10:32:20Z</time>
      </trkpt>
      <trkpt lat="51.00434" lon="2.26388">
        <ele>8.5</ele>
        <time>2020-06-23T10:32:21Z</time>
      </trkpt>
      <trkpt lat="51.00435" lon="2.26395">
        <ele>8.5</ele>
        <time>2020-06-23T10:32:22Z</time>
      </trkpt>
      <trkpt lat="51.00436" lon="2.26402">
        <ele>8.5</ele>
        <time>2020-06-23T10:32:23Z</time>
      </trkpt>
      <trkpt lat="51.00438" lon="2.2641">
        <ele>8.6</ele>
        <time>2020-06-23T10:32:24Z</time>
      </trkpt>
      <trkpt lat="51.00439" lon="2.26418">
        <ele>8.6</ele>
        <time>2020-06-23T10:32:25Z</time>
      </trkpt>
      <trkpt lat="51.00441" lon="2.26426">
        <ele>8.6</ele>
        <time>2020-06-23T10:32:26Z</time>
      </trkpt>
      <trkpt lat="51.00443" lon="2.26434">
        <ele>8.6</ele>
        <time>2020-06-23T10:32:27Z</time>
      </trkpt>
      <trkpt lat="51.00445" lon="2.26443">
        <ele>8.6</ele>
        <time>2020-06-23T10:32:28Z</time>
      </trkpt>
      <trkpt lat="51.00447" lon="2.26451">
        <ele>8.6</ele>
        <time>2020-06-23T10:32:29Z</time>
      </trkpt>
      <trkpt lat="51.00449" lon="2.2646">
        <ele>8.6</ele>
        <time>2020-06-23T10:32:30Z</time>
      </trkpt>
      <trkpt lat="51.00451" lon="2.26469">
        <ele>8.5</ele>
        <time>2020-06-23T10:32:31Z</time>
      </trkpt>
      <trkpt lat="51.00452" lon="2.26479">
        <ele>8.5</ele>
        <time>2020-06-23T10:32:32Z</time>
      </trkpt>
      <trkpt lat="51.00454" lon="2.26488">
        <ele>8.4</ele>
        <time>2020-06-23T10:32:33Z</time>
      </trkpt>
      <trkpt lat="51.00456" lon="2.26496">
        <ele>8.4</ele>
        <time>2020-06-23T10:32:34Z</time>
      </trkpt>
      <trkpt lat="51.00458" lon="2.26505">
        <ele>8.3</ele>
        <time>2020-06-23T10:32:35Z</time>
      </trkpt>
      <trkpt lat="51.0046" lon="2.26515">
        <ele>8.3</ele>
        <time>2020-06-23T10:32:36Z</time>
      </trkpt>
      <trkpt lat="51.00462" lon="2.26524">
        <ele>8.3</ele>
        <time>2020-06-23T10:32:37Z</time>
      </trkpt>
      <trkpt lat="51.00464" lon="2.26534">
        <ele>8.2</ele>
        <time>2020-06-23T10:32:38Z</time>
      </trkpt>
      <trkpt lat="51.00466" lon="2.26544">
        <ele>8.2</ele>
        <time>2020-06-23T10:32:39Z</time>
      </trkpt>
      <trkpt lat="51.00468" lon="2.26554">
        <ele>8.1</ele>
        <time>2020-06-23T10:32:40Z</time>
      </trkpt>
      <trkpt lat="51.0047" lon="2.26564">
        <ele>8</ele>
        <time>2020-06-23T10:32:41Z</time>
      </trkpt>
      <trkpt lat="51.00472" lon="2.26573">
        <ele>7.9</ele>
        <time>2020-06-23T10:32:42Z</time>
      </trkpt>
      <trkpt lat="51.00474" lon="2.26582">
        <ele>7.8</ele>
        <time>2020-06-23T10:32:43Z</time>
      </trkpt>
      <trkpt lat="51.00476" lon="2.26592">
        <ele>7.7</ele>
        <time>2020-06-23T10:32:44Z</time>
      </trkpt>
      <trkpt lat="51.00478" lon="2.26601">
        <ele>7.7</ele>
        <time>2020-06-23T10:32:45Z</time>
      </trkpt>
      <trkpt lat="51.0048" lon="2.26611">
        <ele>7.6</ele>
        <time>2020-06-23T10:32:46Z</time>
      </trkpt>
      <trkpt lat="51.00482" lon="2.2662">
        <ele>7.5</ele>
        <time>2020-06-23T10:32:47Z</time>
      </trkpt>
      <trkpt lat="51.00484" lon="2.26629">
        <ele>7.5</ele>
        <time>2020-06-23T10:32:48Z</time>
      </trkpt>
      <trkpt lat="51.00486" lon="2.26638">
        <ele>7.4</ele>
        <time>2020-06-23T10:32:49Z</time>
      </trkpt>
      <trkpt lat="51.00488" lon="2.26647">
        <ele>7.4</ele>
        <time>2020-06-23T10:32:50Z</time>
      </trkpt>
      <trkpt lat="51.0049" lon="2.26657">
        <ele>7.1</ele>
        <time>2020-06-23T10:32:51Z</time>
      </trkpt>
      <trkpt lat="51.00491" lon="2.26667">
        <ele>6.9</ele>
        <time>2020-06-23T10:32:52Z</time>
      </trkpt>
      <trkpt lat="51.00494" lon="2.26678">
        <ele>6.7</ele>
        <time>2020-06-23T10:32:53Z</time>
      </trkpt>
      <trkpt lat="51.00496" lon="2.26689">
        <ele>6.5</ele>
        <time>2020-06-23T10:32:54Z</time>
      </trkpt>
      <trkpt lat="51.00499" lon="2.26701">
        <ele>6.2</ele>
        <time>2020-06-23T10:32:55Z</time>
      </trkpt>
      <trkpt lat="51.00501" lon="2.26711">
        <ele>6</ele>
        <time>2020-06-23T10:32:56Z</time>
      </trkpt>
      <trkpt lat="51.00504" lon="2.26721">
        <ele>5.7</ele>
        <time>2020-06-23T10:32:57Z</time>
      </trkpt>
      <trkpt lat="51.00506" lon="2.26731">
        <ele>5.5</ele>
        <time>2020-06-23T10:32:58Z</time>
      </trkpt>
      <trkpt lat="51.00509" lon="2.26742">
        <ele>5.3</ele>
        <time>2020-06-23T10:32:59Z</time>
      </trkpt>
      <trkpt lat="51.00511" lon="2.26754">
        <ele>5</ele>
        <time>2020-06-23T10:33:00Z</time>
      </trkpt>
      <trkpt lat="51.00514" lon="2.26766">
        <ele>4.7</ele>
        <time>2020-06-23T10:33:01Z</time>
      </trkpt>
      <trkpt lat="51.00516" lon="2.26777">
        <ele>4.5</ele>
        <time>2020-06-23T10:33:02Z</time>
      </trkpt>
      <trkpt lat="51.00519" lon="2.26788">
        <ele>4.2</ele>
        <time>2020-06-23T10:33:03Z</time>
      </trkpt>
      <trkpt lat="51.00522" lon="2.268">
        <ele>3.9</ele>
        <time>2020-06-23T10:33:04Z</time>
      </trkpt>
      <trkpt lat="51.00524" lon="2.26811">
        <ele>3.6</ele>
        <time>2020-06-23T10:33:05Z</time>
      </trkpt>
      <trkpt lat="51.00527" lon="2.26822">
        <ele>3.3</ele>
        <time>2020-06-23T10:33:06Z</time>
      </trkpt>
      <trkpt lat="51.0053" lon="2.26833">
        <ele>3.1</ele>
        <time>2020-06-23T10:33:07Z</time>
      </trkpt>
      <trkpt lat="51.00532" lon="2.26844">
        <ele>2.9</ele>
        <time>2020-06-23T10:33:08Z</time>
      </trkpt>
      <trkpt lat="51.00535" lon="2.26856">
        <ele>2.7</ele>
        <time>2020-06-23T10:33:09Z</time>
      </trkpt>
      <trkpt lat="51.00538" lon="2.26867">
        <ele>2.5</ele>
        <time>2020-06-23T10:33:10Z</time>
      </trkpt>
      <trkpt lat="51.00542" lon="2.26878">
        <ele>2.3</ele>
        <time>2020-06-23T10:33:11Z</time>
      </trkpt>
      <trkpt lat="51.00545" lon="2.26889">
        <ele>2.1</ele>
        <time>2020-06-23T10:33:12Z</time>
      </trkpt>
      <trkpt lat="51.00548" lon="2.269">
        <ele>1.9</ele>
        <time>2020-06-23T10:33:13Z</time>
      </trkpt>
      <trkpt lat="51.00551" lon="2.26911">
        <ele>1.8</ele>
        <time>2020-06-23T10:33:14Z</time>
      </trkpt>
      <trkpt lat="51.00554" lon="2.26922">
        <ele>1.7</ele>
        <time>2020-06-23T10:33:15Z</time>
      </trkpt>
      <trkpt lat="51.00557" lon="2.26932">
        <ele>1.7</ele>
        <time>2020-06-23T10:33:16Z</time>
      </trkpt>
      <trkpt lat="51.0056" lon="2.26943">
        <ele>1.6</ele>
        <time>2020-06-23T10:33:17Z</time>
      </trkpt>
      <trkpt lat="51.00563" lon="2.26953">
        <ele>1.6</ele>
        <time>2020-06-23T10:33:18Z</time>
      </trkpt>
      <trkpt lat="51.00566" lon="2.26963">
        <ele>1.6</ele>
        <time>2020-06-23T10:33:19Z</time>
      </trkpt>
      <trkpt lat="51.00569" lon="2.26972">
        <ele>1.6</ele>
        <time>2020-06-23T10:33:20Z</time>
      </trkpt>
      <trkpt lat="51.00571" lon="2.26982">
        <ele>1.6</ele>
        <time>2020-06-23T10:33:21Z</time>
      </trkpt>
      <trkpt lat="51.00573" lon="2.26991">
        <ele>1.6</ele>
        <time>2020-06-23T10:33:22Z</time>
      </trkpt>
      <trkpt lat="51.00576" lon="2.27">
        <ele>1.7</ele>
        <time>2020-06-23T10:33:23Z</time>
      </trkpt>
      <trkpt lat="51.00578" lon="2.27009">
        <ele>1.7</ele>
        <time>2020-06-23T10:33:24Z</time>
      </trkpt>
      <trkpt lat="51.0058" lon="2.27017">
        <ele>1.7</ele>
        <time>2020-06-23T10:33:25Z</time>
      </trkpt>
      <trkpt lat="51.00583" lon="2.27026">
        <ele>1.8</ele>
        <time>2020-06-23T10:33:26Z</time>
      </trkpt>
      <trkpt lat="51.00585" lon="2.27035">
        <ele>1.9</ele>
        <time>2020-06-23T10:33:27Z</time>
      </trkpt>
      <trkpt lat="51.00588" lon="2.27044">
        <ele>2</ele>
        <time>2020-06-23T10:33:28Z</time>
      </trkpt>
      <trkpt lat="51.00591" lon="2.27052">
        <ele>2.2</ele>
        <time>2020-06-23T10:33:29Z</time>
      </trkpt>
      <trkpt lat="51.00594" lon="2.2706">
        <ele>2.2</ele>
        <time>2020-06-23T10:33:30Z</time>
      </trkpt>
      <trkpt lat="51.00598" lon="2.27067">
        <ele>2.2</ele>
        <time>2020-06-23T10:33:31Z</time>
      </trkpt>
      <trkpt lat="51.00601" lon="2.27075">
        <ele>2.2</ele>
        <time>2020-06-23T10:33:32Z</time>
      </trkpt>
      <trkpt lat="51.00604" lon="2.27083">
        <ele>2.2</ele>
        <time>2020-06-23T10:33:33Z</time>
      </trkpt>
      <trkpt lat="51.00606" lon="2.27092">
        <ele>2.1</ele>
        <time>2020-06-23T10:33:34Z</time>
      </trkpt>
      <trkpt lat="51.00608" lon="2.27101">
        <ele>2.1</ele>
        <time>2020-06-23T10:33:35Z</time>
      </trkpt>
      <trkpt lat="51.0061" lon="2.2711">
        <ele>2.1</ele>
        <time>2020-06-23T10:33:36Z</time>
      </trkpt>
      <trkpt lat="51.00612" lon="2.27119">
        <ele>2</ele>
        <time>2020-06-23T10:33:37Z</time>
      </trkpt>
      <trkpt lat="51.00614" lon="2.27129">
        <ele>2</ele>
        <time>2020-06-23T10:33:38Z</time>
      </trkpt>
      <trkpt lat="51.00616" lon="2.27138">
        <ele>2</ele>
        <time>2020-06-23T10:33:39Z</time>
      </trkpt>
      <trkpt lat="51.00618" lon="2.27148">
        <ele>2</ele>
        <time>2020-06-23T10:33:40Z</time>
      </trkpt>
      <trkpt lat="51.0062" lon="2.27157">
        <ele>2</ele>
        <time>2020-06-23T10:33:41Z</time>
      </trkpt>
      <trkpt lat="51.00622" lon="2.27167">
        <ele>2</ele>
        <time>2020-06-23T10:33:42Z</time>
      </trkpt>
      <trkpt lat="51.00624" lon="2.27176">
        <ele>2</ele>
        <time>2020-06-23T10:33:43Z</time>
      </trkpt>
      <trkpt lat="51.00626" lon="2.27185">
        <ele>2</ele>
        <time>2020-06-23T10:33:44Z</time>
      </trkpt>
      <trkpt lat="51.00628" lon="2.27194">
        <ele>2</ele>
        <time>2020-06-23T10:33:45Z</time>
      </trkpt>
      <trkpt lat="51.0063" lon="2.27203">
        <ele>2.1</ele>
        <time>2020-06-23T10:33:46Z</time>
      </trkpt>
      <trkpt lat="51.00631" lon="2.27212">
        <ele>2.1</ele>
        <time>2020-06-23T10:33:47Z</time>
      </trkpt>
      <trkpt lat="51.00632" lon="2.27221">
        <ele>2.1</ele>
        <time>2020-06-23T10:33:48Z</time>
      </trkpt>
      <trkpt lat="51.00634" lon="2.27232">
        <ele>2.1</ele>
        <time>2020-06-23T10:33:49Z</time>
      </trkpt>
      <trkpt lat="51.00635" lon="2.27241">
        <ele>2.2</ele>
        <time>2020-06-23T10:33:50Z</time>
      </trkpt>
      <trkpt lat="51.00638" lon="2.27251">
        <ele>2.2</ele>
        <time>2020-06-23T10:33:51Z</time>
      </trkpt>
      <trkpt lat="51.0064" lon="2.27261">
        <ele>2.2</ele>
        <time>2020-06-23T10:33:52Z</time>
      </trkpt>
      <trkpt lat="51.00642" lon="2.27269">
        <ele>2.2</ele>
        <time>2020-06-23T10:33:53Z</time>
      </trkpt>
      <trkpt lat="51.00645" lon="2.27279">
        <ele>2.2</ele>
        <time>2020-06-23T10:33:54Z</time>
      </trkpt>
      <trkpt lat="51.00648" lon="2.27289">
        <ele>2.2</ele>
        <time>2020-06-23T10:33:55Z</time>
      </trkpt>
      <trkpt lat="51.00651" lon="2.27299">
        <ele>2.3</ele>
        <time>2020-06-23T10:33:56Z</time>
      </trkpt>
      <trkpt lat="51.00654" lon="2.27308">
        <ele>2.3</ele>
        <time>2020-06-23T10:33:57Z</time>
      </trkpt>
      <trkpt lat="51.00657" lon="2.27317">
        <ele>2.3</ele>
        <time>2020-06-23T10:33:58Z</time>
      </trkpt>
      <trkpt lat="51.0066" lon="2.27327">
        <ele>2.3</ele>
        <time>2020-06-23T10:33:59Z</time>
      </trkpt>
      <trkpt lat="51.00662" lon="2.27337">
        <ele>2.3</ele>
        <time>2020-06-23T10:34:00Z</time>
      </trkpt>
      <trkpt lat="51.00664" lon="2.27347">
        <ele>2.3</ele>
        <time>2020-06-23T10:34:01Z</time>
      </trkpt>
      <trkpt lat="51.00666" lon="2.27358">
        <ele>2.3</ele>
        <time>2020-06-23T10:34:02Z</time>
      </trkpt>
      <trkpt lat="51.00669" lon="2.27368">
        <ele>2.3</ele>
        <time>2020-06-23T10:34:03Z</time>
      </trkpt>
      <trkpt lat="51.00671" lon="2.27378">
        <ele>2.2</ele>
        <time>2020-06-23T10:34:04Z</time>
      </trkpt>
      <trkpt lat="51.00673" lon="2.27387">
        <ele>2.2</ele>
        <time>2020-06-23T10:34:05Z</time>
      </trkpt>
      <trkpt lat="51.00675" lon="2.27396">
        <ele>2.2</ele>
        <time>2020-06-23T10:34:06Z</time>
      </trkpt>
      <trkpt lat="51.00677" lon="2.27407">
        <ele>2.2</ele>
        <time>2020-06-23T10:34:07Z</time>
      </trkpt>
      <trkpt lat="51.0068" lon="2.27417">
        <ele>2.2</ele>
        <time>2020-06-23T10:34:08Z</time>
      </trkpt>
      <trkpt lat="51.00682" lon="2.27426">
        <ele>2.2</ele>
        <time>2020-06-23T10:34:09Z</time>
      </trkpt>
      <trkpt lat="51.00684" lon="2.27436">
        <ele>2.2</ele>
        <time>2020-06-23T10:34:10Z</time>
      </trkpt>
      <trkpt lat="51.00686" lon="2.27446">
        <ele>2.2</ele>
        <time>2020-06-23T10:34:11Z</time>
      </trkpt>
      <trkpt lat="51.00689" lon="2.27455">
        <ele>2.2</ele>
        <time>2020-06-23T10:34:12Z</time>
      </trkpt>
      <trkpt lat="51.00691" lon="2.27465">
        <ele>2.2</ele>
        <time>2020-06-23T10:34:13Z</time>
      </trkpt>
      <trkpt lat="51.00692" lon="2.27475">
        <ele>2.3</ele>
        <time>2020-06-23T10:34:14Z</time>
      </trkpt>
      <trkpt lat="51.00694" lon="2.27483">
        <ele>2.3</ele>
        <time>2020-06-23T10:34:15Z</time>
      </trkpt>
      <trkpt lat="51.00696" lon="2.27491">
        <ele>2.4</ele>
        <time>2020-06-23T10:34:16Z</time>
      </trkpt>
      <trkpt lat="51.00697" lon="2.27501">
        <ele>2.3</ele>
        <time>2020-06-23T10:34:17Z</time>
      </trkpt>
      <trkpt lat="51.007" lon="2.27511">
        <ele>2.2</ele>
        <time>2020-06-23T10:34:18Z</time>
      </trkpt>
      <trkpt lat="51.00702" lon="2.2752">
        <ele>2.2</ele>
        <time>2020-06-23T10:34:19Z</time>
      </trkpt>
      <trkpt lat="51.00704" lon="2.27529">
        <ele>2.2</ele>
        <time>2020-06-23T10:34:20Z</time>
      </trkpt>
      <trkpt lat="51.00707" lon="2.27538">
        <ele>2.2</ele>
        <time>2020-06-23T10:34:21Z</time>
      </trkpt>
      <trkpt lat="51.00709" lon="2.27546">
        <ele>2.2</ele>
        <time>2020-06-23T10:34:22Z</time>
      </trkpt>
      <trkpt lat="51.00711" lon="2.27556">
        <ele>2.2</ele>
        <time>2020-06-23T10:34:23Z</time>
      </trkpt>
      <trkpt lat="51.00713" lon="2.27563">
        <ele>2.2</ele>
        <time>2020-06-23T10:34:24Z</time>
      </trkpt>
      <trkpt lat="51.00715" lon="2.27574">
        <ele>2.2</ele>
        <time>2020-06-23T10:34:25Z</time>
      </trkpt>
      <trkpt lat="51.00718" lon="2.27584">
        <ele>2.2</ele>
        <time>2020-06-23T10:34:26Z</time>
      </trkpt>
      <trkpt lat="51.0072" lon="2.27595">
        <ele>2.2</ele>
        <time>2020-06-23T10:34:27Z</time>
      </trkpt>
      <trkpt lat="51.00723" lon="2.27605">
        <ele>2.2</ele>
        <time>2020-06-23T10:34:28Z</time>
      </trkpt>
      <trkpt lat="51.00725" lon="2.27615">
        <ele>2.2</ele>
        <time>2020-06-23T10:34:29Z</time>
      </trkpt>
      <trkpt lat="51.00727" lon="2.27624">
        <ele>2.2</ele>
        <time>2020-06-23T10:34:30Z</time>
      </trkpt>
      <trkpt lat="51.00729" lon="2.27635">
        <ele>2.2</ele>
        <time>2020-06-23T10:34:31Z</time>
      </trkpt>
      <trkpt lat="51.00732" lon="2.27646">
        <ele>2.2</ele>
        <time>2020-06-23T10:34:32Z</time>
      </trkpt>
      <trkpt lat="51.00734" lon="2.27657">
        <ele>2.2</ele>
        <time>2020-06-23T10:34:33Z</time>
      </trkpt>
      <trkpt lat="51.00737" lon="2.27667">
        <ele>2.3</ele>
        <time>2020-06-23T10:34:34Z</time>
      </trkpt>
      <trkpt lat="51.0074" lon="2.27678">
        <ele>2.3</ele>
        <time>2020-06-23T10:34:35Z</time>
      </trkpt>
      <trkpt lat="51.00742" lon="2.27687">
        <ele>2.4</ele>
        <time>2020-06-23T10:34:36Z</time>
      </trkpt>
      <trkpt lat="51.00744" lon="2.27697">
        <ele>2.5</ele>
        <time>2020-06-23T10:34:37Z</time>
      </trkpt>
      <trkpt lat="51.00747" lon="2.27706">
        <ele>2.4</ele>
        <time>2020-06-23T10:34:38Z</time>
      </trkpt>
      <trkpt lat="51.00749" lon="2.27715">
        <ele>2.3</ele>
        <time>2020-06-23T10:34:39Z</time>
      </trkpt>
      <trkpt lat="51.00752" lon="2.27725">
        <ele>2.2</ele>
        <time>2020-06-23T10:34:40Z</time>
      </trkpt>
      <trkpt lat="51.00754" lon="2.27735">
        <ele>2.2</ele>
        <time>2020-06-23T10:34:41Z</time>
      </trkpt>
      <trkpt lat="51.00756" lon="2.27745">
        <ele>2.2</ele>
        <time>2020-06-23T10:34:42Z</time>
      </trkpt>
      <trkpt lat="51.00759" lon="2.27754">
        <ele>2.1</ele>
        <time>2020-06-23T10:34:43Z</time>
      </trkpt>
      <trkpt lat="51.00761" lon="2.27765">
        <ele>2.1</ele>
        <time>2020-06-23T10:34:44Z</time>
      </trkpt>
      <trkpt lat="51.00763" lon="2.27775">
        <ele>2.1</ele>
        <time>2020-06-23T10:34:45Z</time>
      </trkpt>
      <trkpt lat="51.00765" lon="2.27785">
        <ele>2.1</ele>
        <time>2020-06-23T10:34:46Z</time>
      </trkpt>
      <trkpt lat="51.00767" lon="2.27796">
        <ele>2.1</ele>
        <time>2020-06-23T10:34:47Z</time>
      </trkpt>
      <trkpt lat="51.00769" lon="2.27806">
        <ele>2.1</ele>
        <time>2020-06-23T10:34:48Z</time>
      </trkpt>
      <trkpt lat="51.0077" lon="2.27816">
        <ele>2.1</ele>
        <time>2020-06-23T10:34:49Z</time>
      </trkpt>
      <trkpt lat="51.00772" lon="2.27827">
        <ele>2.2</ele>
        <time>2020-06-23T10:34:50Z</time>
      </trkpt>
      <trkpt lat="51.00774" lon="2.27837">
        <ele>2.2</ele>
        <time>2020-06-23T10:34:51Z</time>
      </trkpt>
      <trkpt lat="51.00776" lon="2.27848">
        <ele>2.3</ele>
        <time>2020-06-23T10:34:52Z</time>
      </trkpt>
      <trkpt lat="51.00778" lon="2.27858">
        <ele>2.3</ele>
        <time>2020-06-23T10:34:53Z</time>
      </trkpt>
      <trkpt lat="51.0078" lon="2.27868">
        <ele>2.4</ele>
        <time>2020-06-23T10:34:54Z</time>
      </trkpt>
      <trkpt lat="51.00782" lon="2.27878">
        <ele>2.4</ele>
        <time>2020-06-23T10:34:55Z</time>
      </trkpt>
      <trkpt lat="51.00783" lon="2.27888">
        <ele>2.5</ele>
        <time>2020-06-23T10:34:56Z</time>
      </trkpt>
      <trkpt lat="51.00785" lon="2.27898">
        <ele>2.5</ele>
        <time>2020-06-23T10:34:57Z</time>
      </trkpt>
      <trkpt lat="51.00787" lon="2.27908">
        <ele>2.5</ele>
        <time>2020-06-23T10:34:58Z</time>
      </trkpt>
      <trkpt lat="51.00789" lon="2.27918">
        <ele>2.5</ele>
        <time>2020-06-23T10:34:59Z</time>
      </trkpt>
      <trkpt lat="51.00791" lon="2.27928">
        <ele>2.5</ele>
        <time>2020-06-23T10:35:00Z</time>
      </trkpt>
      <trkpt lat="51.00793" lon="2.27937">
        <ele>2.5</ele>
        <time>2020-06-23T10:35:01Z</time>
      </trkpt>
      <trkpt lat="51.00795" lon="2.27947">
        <ele>2.5</ele>
        <time>2020-06-23T10:35:02Z</time>
      </trkpt>
      <trkpt lat="51.00796" lon="2.27956">
        <ele>2.5</ele>
        <time>2020-06-23T10:35:03Z</time>
      </trkpt>
      <trkpt lat="51.00798" lon="2.27965">
        <ele>2.6</ele>
        <time>2020-06-23T10:35:04Z</time>
      </trkpt>
      <trkpt lat="51.008" lon="2.27974">
        <ele>2.6</ele>
        <time>2020-06-23T10:35:05Z</time>
      </trkpt>
      <trkpt lat="51.00801" lon="2.27983">
        <ele>2.6</ele>
        <time>2020-06-23T10:35:06Z</time>
      </trkpt>
      <trkpt lat="51.00803" lon="2.27993">
        <ele>2.6</ele>
        <time>2020-06-23T10:35:07Z</time>
      </trkpt>
      <trkpt lat="51.00805" lon="2.28002">
        <ele>2.7</ele>
        <time>2020-06-23T10:35:08Z</time>
      </trkpt>
      <trkpt lat="51.00807" lon="2.28012">
        <ele>2.7</ele>
        <time>2020-06-23T10:35:09Z</time>
      </trkpt>
      <trkpt lat="51.0081" lon="2.2802">
        <ele>2.8</ele>
        <time>2020-06-23T10:35:10Z</time>
      </trkpt>
      <trkpt lat="51.00812" lon="2.2803">
        <ele>2.8</ele>
        <time>2020-06-23T10:35:11Z</time>
      </trkpt>
      <trkpt lat="51.00813" lon="2.28038">
        <ele>2.8</ele>
        <time>2020-06-23T10:35:12Z</time>
      </trkpt>
      <trkpt lat="51.00816" lon="2.28047">
        <ele>2.8</ele>
        <time>2020-06-23T10:35:13Z</time>
      </trkpt>
      <trkpt lat="51.00818" lon="2.28056">
        <ele>2.8</ele>
        <time>2020-06-23T10:35:14Z</time>
      </trkpt>
      <trkpt lat="51.0082" lon="2.28066">
        <ele>2.8</ele>
        <time>2020-06-23T10:35:15Z</time>
      </trkpt>
      <trkpt lat="51.00823" lon="2.28075">
        <ele>2.8</ele>
        <time>2020-06-23T10:35:16Z</time>
      </trkpt>
      <trkpt lat="51.00825" lon="2.28085">
        <ele>2.8</ele>
        <time>2020-06-23T10:35:17Z</time>
      </trkpt>
      <trkpt lat="51.00827" lon="2.28095">
        <ele>2.8</ele>
        <time>2020-06-23T10:35:18Z</time>
      </trkpt>
      <trkpt lat="51.0083" lon="2.28105">
        <ele>2.8</ele>
        <time>2020-06-23T10:35:19Z</time>
      </trkpt>
      <trkpt lat="51.00833" lon="2.28114">
        <ele>2.9</ele>
        <time>2020-06-23T10:35:20Z</time>
      </trkpt>
      <trkpt lat="51.00835" lon="2.28122">
        <ele>2.9</ele>
        <time>2020-06-23T10:35:21Z</time>
      </trkpt>
      <trkpt lat="51.00838" lon="2.2813">
        <ele>2.9</ele>
        <time>2020-06-23T10:35:22Z</time>
      </trkpt>
      <trkpt lat="51.0084" lon="2.28138">
        <ele>2.8</ele>
        <time>2020-06-23T10:35:23Z</time>
      </trkpt>
      <trkpt lat="51.00842" lon="2.28145">
        <ele>2.8</ele>
        <time>2020-06-23T10:35:24Z</time>
      </trkpt>
      <trkpt lat="51.00844" lon="2.28154">
        <ele>2.8</ele>
        <time>2020-06-23T10:35:25Z</time>
      </trkpt>
      <trkpt lat="51.00846" lon="2.28162">
        <ele>2.8</ele>
        <time>2020-06-23T10:35:26Z</time>
      </trkpt>
      <trkpt lat="51.00848" lon="2.28172">
        <ele>2.8</ele>
        <time>2020-06-23T10:35:27Z</time>
      </trkpt>
      <trkpt lat="51.00851" lon="2.2818">
        <ele>2.8</ele>
        <time>2020-06-23T10:35:28Z</time>
      </trkpt>
      <trkpt lat="51.00854" lon="2.2819">
        <ele>2.9</ele>
        <time>2020-06-23T10:35:29Z</time>
      </trkpt>
      <trkpt lat="51.00856" lon="2.28199">
        <ele>2.9</ele>
        <time>2020-06-23T10:35:30Z</time>
      </trkpt>
      <trkpt lat="51.00859" lon="2.28206">
        <ele>2.9</ele>
        <time>2020-06-23T10:35:31Z</time>
      </trkpt>
      <trkpt lat="51.00862" lon="2.28212">
        <ele>2.9</ele>
        <time>2020-06-23T10:35:32Z</time>
      </trkpt>
      <trkpt lat="51.00865" lon="2.28217">
        <ele>2.9</ele>
        <time>2020-06-23T10:35:33Z</time>
      </trkpt>
      <trkpt lat="51.00869" lon="2.28222">
        <ele>3</ele>
        <time>2020-06-23T10:35:34Z</time>
      </trkpt>
      <trkpt lat="51.00873" lon="2.28228">
        <ele>3</ele>
        <time>2020-06-23T10:35:35Z</time>
      </trkpt>
      <trkpt lat="51.00876" lon="2.28234">
        <ele>3</ele>
        <time>2020-06-23T10:35:36Z</time>
      </trkpt>
      <trkpt lat="51.0088" lon="2.28239">
        <ele>3</ele>
        <time>2020-06-23T10:35:37Z</time>
      </trkpt>
      <trkpt lat="51.00885" lon="2.28244">
        <ele>3</ele>
        <time>2020-06-23T10:35:38Z</time>
      </trkpt>
      <trkpt lat="51.00889" lon="2.28249">
        <ele>3</ele>
        <time>2020-06-23T10:35:39Z</time>
      </trkpt>
      <trkpt lat="51.00893" lon="2.28254">
        <ele>3</ele>
        <time>2020-06-23T10:35:40Z</time>
      </trkpt>
      <trkpt lat="51.00898" lon="2.2826">
        <ele>3.1</ele>
        <time>2020-06-23T10:35:41Z</time>
      </trkpt>
      <trkpt lat="51.00903" lon="2.28265">
        <ele>3.3</ele>
        <time>2020-06-23T10:35:42Z</time>
      </trkpt>
      <trkpt lat="51.00907" lon="2.2827">
        <ele>3.3</ele>
        <time>2020-06-23T10:35:43Z</time>
      </trkpt>
      <trkpt lat="51.00911" lon="2.28275">
        <ele>3.3</ele>
        <time>2020-06-23T10:35:44Z</time>
      </trkpt>
      <trkpt lat="51.00914" lon="2.2828">
        <ele>3.3</ele>
        <time>2020-06-23T10:35:45Z</time>
      </trkpt>
      <trkpt lat="51.00917" lon="2.28286">
        <ele>3.3</ele>
        <time>2020-06-23T10:35:46Z</time>
      </trkpt>
      <trkpt lat="51.0092" lon="2.28292">
        <ele>3.4</ele>
        <time>2020-06-23T10:35:47Z</time>
      </trkpt>
      <trkpt lat="51.00923" lon="2.28299">
        <ele>3.5</ele>
        <time>2020-06-23T10:35:48Z</time>
      </trkpt>
      <trkpt lat="51.00924" lon="2.28306">
        <ele>3.5</ele>
        <time>2020-06-23T10:35:49Z</time>
      </trkpt>
      <trkpt lat="51.00925" lon="2.28312">
        <ele>3.6</ele>
        <time>2020-06-23T10:35:50Z</time>
      </trkpt>
      <trkpt lat="51.00926" lon="2.28318">
        <ele>3.6</ele>
        <time>2020-06-23T10:35:51Z</time>
      </trkpt>
      <trkpt lat="51.00926" lon="2.28324">
        <ele>3.6</ele>
        <time>2020-06-23T10:35:52Z</time>
      </trkpt>
      <trkpt lat="51.00926" lon="2.28328">
        <ele>3.7</ele>
        <time>2020-06-23T10:35:53Z</time>
      </trkpt>
      <trkpt lat="51.00927" lon="2.28334">
        <ele>3.7</ele>
        <time>2020-06-23T10:35:54Z</time>
      </trkpt>
      <trkpt lat="51.00927" lon="2.2834">
        <ele>3.7</ele>
        <time>2020-06-23T10:35:55Z</time>
      </trkpt>
      <trkpt lat="51.00928" lon="2.28346">
        <ele>3.7</ele>
        <time>2020-06-23T10:35:56Z</time>
      </trkpt>
      <trkpt lat="51.00929" lon="2.28351">
        <ele>3.8</ele>
        <time>2020-06-23T10:35:57Z</time>
      </trkpt>
      <trkpt lat="51.00929" lon="2.28356">
        <ele>3.8</ele>
        <time>2020-06-23T10:35:58Z</time>
      </trkpt>
      <trkpt lat="51.0093" lon="2.28361">
        <ele>3.8</ele>
        <time>2020-06-23T10:35:59Z</time>
      </trkpt>
      <trkpt lat="51.0093" lon="2.28362">
        <ele>3.8</ele>
        <time>2020-06-23T10:36:00Z</time>
      </trkpt>
      <trkpt lat="51.0093" lon="2.28364">
        <ele>3.8</ele>
        <time>2020-06-23T10:36:01Z</time>
      </trkpt>
      <trkpt lat="51.00931" lon="2.28367">
        <ele>3.8</ele>
        <time>2020-06-23T10:36:02Z</time>
      </trkpt>
      <trkpt lat="51.00931" lon="2.28369">
        <ele>3.8</ele>
        <time>2020-06-23T10:36:03Z</time>
      </trkpt>
      <trkpt lat="51.00932" lon="2.28369">
        <ele>3.8</ele>
        <time>2020-06-23T10:36:04Z</time>
      </trkpt>
      <trkpt lat="51.00932" lon="2.2837">
        <ele>3.8</ele>
        <time>2020-06-23T10:36:05Z</time>
      </trkpt>
      <trkpt lat="51.00932" lon="2.28371">
        <ele>3.8</ele>
        <time>2020-06-23T10:36:06Z</time>
      </trkpt>
      <trkpt lat="51.00933" lon="2.28372">
        <ele>3.8</ele>
        <time>2020-06-23T10:36:07Z</time>
      </trkpt>
      <trkpt lat="51.00933" lon="2.28372">
        <ele>3.8</ele>
        <time>2020-06-23T10:36:08Z</time>
      </trkpt>
      <trkpt lat="51.00933" lon="2.28373">
        <ele>3.8</ele>
        <time>2020-06-23T10:36:09Z</time>
      </trkpt>
      <trkpt lat="51.00933" lon="2.28374">
        <ele>3.8</ele>
        <time>2020-06-23T10:36:10Z</time>
      </trkpt>
      <trkpt lat="51.00934" lon="2.28375">
        <ele>3.8</ele>
        <time>2020-06-23T10:36:11Z</time>
      </trkpt>
      <trkpt lat="51.00934" lon="2.28375">
        <ele>3.8</ele>
        <time>2020-06-23T10:36:12Z</time>
      </trkpt>
      <trkpt lat="51.00934" lon="2.28376">
        <ele>3.8</ele>
        <time>2020-06-23T10:36:23Z</time>
      </trkpt>
      <trkpt lat="51.00934" lon="2.28377">
        <ele>3.8</ele>
        <time>2020-06-23T10:36:24Z</time>
      </trkpt>
      <trkpt lat="51.00934" lon="2.28383">
        <ele>3.8</ele>
        <time>2020-06-23T10:36:25Z</time>
      </trkpt>
      <trkpt lat="51.00934" lon="2.28384">
        <ele>3.8</ele>
        <time>2020-06-23T10:36:26Z</time>
      </trkpt>
      <trkpt lat="51.00933" lon="2.2839">
        <ele>3.8</ele>
        <time>2020-06-23T10:36:27Z</time>
      </trkpt>
      <trkpt lat="51.00933" lon="2.28393">
        <ele>3.8</ele>
        <time>2020-06-23T10:36:28Z</time>
      </trkpt>
      <trkpt lat="51.00931" lon="2.28397">
        <ele>3.7</ele>
        <time>2020-06-23T10:36:29Z</time>
      </trkpt>
      <trkpt lat="51.00928" lon="2.284">
        <ele>3.8</ele>
        <time>2020-06-23T10:36:30Z</time>
      </trkpt>
      <trkpt lat="51.00924" lon="2.28402">
        <ele>3.9</ele>
        <time>2020-06-23T10:36:31Z</time>
      </trkpt>
      <trkpt lat="51.00923" lon="2.28403">
        <ele>4</ele>
        <time>2020-06-23T10:36:32Z</time>
      </trkpt>
      <trkpt lat="51.00918" lon="2.28405">
        <ele>4</ele>
        <time>2020-06-23T10:36:33Z</time>
      </trkpt>
      <trkpt lat="51.00914" lon="2.28406">
        <ele>4</ele>
        <time>2020-06-23T10:36:34Z</time>
      </trkpt>
      <trkpt lat="51.00909" lon="2.28408">
        <ele>3.9</ele>
        <time>2020-06-23T10:36:35Z</time>
      </trkpt>
      <trkpt lat="51.00906" lon="2.28409">
        <ele>3.9</ele>
        <time>2020-06-23T10:36:36Z</time>
      </trkpt>
      <trkpt lat="51.00903" lon="2.2841">
        <ele>3.8</ele>
        <time>2020-06-23T10:36:37Z</time>
      </trkpt>
      <trkpt lat="51.00901" lon="2.28411">
        <ele>3.8</ele>
        <time>2020-06-23T10:36:38Z</time>
      </trkpt>
      <trkpt lat="51.00898" lon="2.28412">
        <ele>3.8</ele>
        <time>2020-06-23T10:36:39Z</time>
      </trkpt>
      <trkpt lat="51.00895" lon="2.28413">
        <ele>3.8</ele>
        <time>2020-06-23T10:36:40Z</time>
      </trkpt>
      <trkpt lat="51.00891" lon="2.28414">
        <ele>3.8</ele>
        <time>2020-06-23T10:36:41Z</time>
      </trkpt>
      <trkpt lat="51.00889" lon="2.28414">
        <ele>3.8</ele>
        <time>2020-06-23T10:36:42Z</time>
      </trkpt>
      <trkpt lat="51.00886" lon="2.28415">
        <ele>3.8</ele>
        <time>2020-06-23T10:36:43Z</time>
      </trkpt>
      <trkpt lat="51.00882" lon="2.28417">
        <ele>3.8</ele>
        <time>2020-06-23T10:36:44Z</time>
      </trkpt>
      <trkpt lat="51.00881" lon="2.28418">
        <ele>3.7</ele>
        <time>2020-06-23T10:36:45Z</time>
      </trkpt>
      <trkpt lat="51.00879" lon="2.28419">
        <ele>3.7</ele>
        <time>2020-06-23T10:36:46Z</time>
      </trkpt>
      <trkpt lat="51.00879" lon="2.28419">
        <ele>3.7</ele>
        <time>2020-06-23T10:36:47Z</time>
      </trkpt>
      <trkpt lat="51.00878" lon="2.28419">
        <ele>3.7</ele>
        <time>2020-06-23T10:36:48Z</time>
      </trkpt>
      <trkpt lat="51.00878" lon="2.28419">
        <ele>3.7</ele>
        <time>2020-06-23T10:36:49Z</time>
      </trkpt>
      <trkpt lat="51.00877" lon="2.28419">
        <ele>3.7</ele>
        <time>2020-06-23T10:36:50Z</time>
      </trkpt>
      <trkpt lat="51.00876" lon="2.28421">
        <ele>3.7</ele>
        <time>2020-06-23T10:36:51Z</time>
      </trkpt>
      <trkpt lat="51.00875" lon="2.28423">
        <ele>3.7</ele>
        <time>2020-06-23T10:36:52Z</time>
      </trkpt>
      <trkpt lat="51.00875" lon="2.28428">
        <ele>3.3</ele>
        <time>2020-06-23T10:36:53Z</time>
      </trkpt>
      <trkpt lat="51.00876" lon="2.28433">
        <ele>3.2</ele>
        <time>2020-06-23T10:36:54Z</time>
      </trkpt>
      <trkpt lat="51.00876" lon="2.28438">
        <ele>3.2</ele>
        <time>2020-06-23T10:36:55Z</time>
      </trkpt>
      <trkpt lat="51.00877" lon="2.28443">
        <ele>3.1</ele>
        <time>2020-06-23T10:36:56Z</time>
      </trkpt>
      <trkpt lat="51.00878" lon="2.28446">
        <ele>3.1</ele>
        <time>2020-06-23T10:36:57Z</time>
      </trkpt>
      <trkpt lat="51.0088" lon="2.28452">
        <ele>3</ele>
        <time>2020-06-23T10:36:58Z</time>
      </trkpt>
      <trkpt lat="51.00881" lon="2.28456">
        <ele>3</ele>
        <time>2020-06-23T10:36:59Z</time>
      </trkpt>
      <trkpt lat="51.00882" lon="2.2846">
        <ele>3</ele>
        <time>2020-06-23T10:37:00Z</time>
      </trkpt>
      <trkpt lat="51.00884" lon="2.28465">
        <ele>2.9</ele>
        <time>2020-06-23T10:37:01Z</time>
      </trkpt>
      <trkpt lat="51.00885" lon="2.2847">
        <ele>2.9</ele>
        <time>2020-06-23T10:37:02Z</time>
      </trkpt>
      <trkpt lat="51.00887" lon="2.28477">
        <ele>2.8</ele>
        <time>2020-06-23T10:37:03Z</time>
      </trkpt>
      <trkpt lat="51.00889" lon="2.28483">
        <ele>2.8</ele>
        <time>2020-06-23T10:37:04Z</time>
      </trkpt>
      <trkpt lat="51.0089" lon="2.28489">
        <ele>2.7</ele>
        <time>2020-06-23T10:37:05Z</time>
      </trkpt>
      <trkpt lat="51.00892" lon="2.28496">
        <ele>2.7</ele>
        <time>2020-06-23T10:37:06Z</time>
      </trkpt>
      <trkpt lat="51.00894" lon="2.28502">
        <ele>2.6</ele>
        <time>2020-06-23T10:37:07Z</time>
      </trkpt>
      <trkpt lat="51.00896" lon="2.28508">
        <ele>2.6</ele>
        <time>2020-06-23T10:37:08Z</time>
      </trkpt>
      <trkpt lat="51.00897" lon="2.28514">
        <ele>2.6</ele>
        <time>2020-06-23T10:37:09Z</time>
      </trkpt>
      <trkpt lat="51.00899" lon="2.28521">
        <ele>2.5</ele>
        <time>2020-06-23T10:37:10Z</time>
      </trkpt>
      <trkpt lat="51.00901" lon="2.28527">
        <ele>2.5</ele>
        <time>2020-06-23T10:37:11Z</time>
      </trkpt>
      <trkpt lat="51.00902" lon="2.28534">
        <ele>2.5</ele>
        <time>2020-06-23T10:37:12Z</time>
      </trkpt>
      <trkpt lat="51.00904" lon="2.28542">
        <ele>2.4</ele>
        <time>2020-06-23T10:37:13Z</time>
      </trkpt>
      <trkpt lat="51.00905" lon="2.28549">
        <ele>2.4</ele>
        <time>2020-06-23T10:37:14Z</time>
      </trkpt>
      <trkpt lat="51.00907" lon="2.28556">
        <ele>2.4</ele>
        <time>2020-06-23T10:37:15Z</time>
      </trkpt>
      <trkpt lat="51.00909" lon="2.28562">
        <ele>2.3</ele>
        <time>2020-06-23T10:37:16Z</time>
      </trkpt>
      <trkpt lat="51.0091" lon="2.28568">
        <ele>2.3</ele>
        <time>2020-06-23T10:37:17Z</time>
      </trkpt>
      <trkpt lat="51.00911" lon="2.28572">
        <ele>2.3</ele>
        <time>2020-06-23T10:37:18Z</time>
      </trkpt>
      <trkpt lat="51.00913" lon="2.28578">
        <ele>2.2</ele>
        <time>2020-06-23T10:37:19Z</time>
      </trkpt>
      <trkpt lat="51.00914" lon="2.28585">
        <ele>2.2</ele>
        <time>2020-06-23T10:37:20Z</time>
      </trkpt>
      <trkpt lat="51.00916" lon="2.28592">
        <ele>2.2</ele>
        <time>2020-06-23T10:37:21Z</time>
      </trkpt>
      <trkpt lat="51.00917" lon="2.28599">
        <ele>2.2</ele>
        <time>2020-06-23T10:37:22Z</time>
      </trkpt>
      <trkpt lat="51.00918" lon="2.28606">
        <ele>2.2</ele>
        <time>2020-06-23T10:37:23Z</time>
      </trkpt>
      <trkpt lat="51.0092" lon="2.28613">
        <ele>2.2</ele>
        <time>2020-06-23T10:37:24Z</time>
      </trkpt>
      <trkpt lat="51.00921" lon="2.28619">
        <ele>2.2</ele>
        <time>2020-06-23T10:37:25Z</time>
      </trkpt>
      <trkpt lat="51.00922" lon="2.28627">
        <ele>2.2</ele>
        <time>2020-06-23T10:37:26Z</time>
      </trkpt>
      <trkpt lat="51.00923" lon="2.28634">
        <ele>2.2</ele>
        <time>2020-06-23T10:37:27Z</time>
      </trkpt>
      <trkpt lat="51.00925" lon="2.28641">
        <ele>2.3</ele>
        <time>2020-06-23T10:37:28Z</time>
      </trkpt>
      <trkpt lat="51.00926" lon="2.28647">
        <ele>2.3</ele>
        <time>2020-06-23T10:37:29Z</time>
      </trkpt>
      <trkpt lat="51.00928" lon="2.28654">
        <ele>2.3</ele>
        <time>2020-06-23T10:37:30Z</time>
      </trkpt>
      <trkpt lat="51.00929" lon="2.28659">
        <ele>2.4</ele>
        <time>2020-06-23T10:37:31Z</time>
      </trkpt>
      <trkpt lat="51.0093" lon="2.28666">
        <ele>2.4</ele>
        <time>2020-06-23T10:37:32Z</time>
      </trkpt>
      <trkpt lat="51.00931" lon="2.28671">
        <ele>2.4</ele>
        <time>2020-06-23T10:37:33Z</time>
      </trkpt>
      <trkpt lat="51.00931" lon="2.28676">
        <ele>2.4</ele>
        <time>2020-06-23T10:37:34Z</time>
      </trkpt>
      <trkpt lat="51.00932" lon="2.28682">
        <ele>2.5</ele>
        <time>2020-06-23T10:37:35Z</time>
      </trkpt>
      <trkpt lat="51.00933" lon="2.28689">
        <ele>2.5</ele>
        <time>2020-06-23T10:37:36Z</time>
      </trkpt>
      <trkpt lat="51.00933" lon="2.28695">
        <ele>2.5</ele>
        <time>2020-06-23T10:37:37Z</time>
      </trkpt>
      <trkpt lat="51.00933" lon="2.28701">
        <ele>2.6</ele>
        <time>2020-06-23T10:37:38Z</time>
      </trkpt>
      <trkpt lat="51.00933" lon="2.28706">
        <ele>2.6</ele>
        <time>2020-06-23T10:37:39Z</time>
      </trkpt>
      <trkpt lat="51.00932" lon="2.28712">
        <ele>2.6</ele>
        <time>2020-06-23T10:37:40Z</time>
      </trkpt>
      <trkpt lat="51.00931" lon="2.28715">
        <ele>2.6</ele>
        <time>2020-06-23T10:37:41Z</time>
      </trkpt>
      <trkpt lat="51.0093" lon="2.2872">
        <ele>2.6</ele>
        <time>2020-06-23T10:37:42Z</time>
      </trkpt>
      <trkpt lat="51.00932" lon="2.28725">
        <ele>2.7</ele>
        <time>2020-06-23T10:37:43Z</time>
      </trkpt>
      <trkpt lat="51.00935" lon="2.2873">
        <ele>2.7</ele>
        <time>2020-06-23T10:37:44Z</time>
      </trkpt>
      <trkpt lat="51.00938" lon="2.28734">
        <ele>2.7</ele>
        <time>2020-06-23T10:37:45Z</time>
      </trkpt>
      <trkpt lat="51.00941" lon="2.28737">
        <ele>2.8</ele>
        <time>2020-06-23T10:37:46Z</time>
      </trkpt>
      <trkpt lat="51.00942" lon="2.28742">
        <ele>2.7</ele>
        <time>2020-06-23T10:37:47Z</time>
      </trkpt>
      <trkpt lat="51.00944" lon="2.28748">
        <ele>2.7</ele>
        <time>2020-06-23T10:37:48Z</time>
      </trkpt>
      <trkpt lat="51.00945" lon="2.28755">
        <ele>2.7</ele>
        <time>2020-06-23T10:37:49Z</time>
      </trkpt>
      <trkpt lat="51.00946" lon="2.28762">
        <ele>2.6</ele>
        <time>2020-06-23T10:37:50Z</time>
      </trkpt>
      <trkpt lat="51.00947" lon="2.28771">
        <ele>2.6</ele>
        <time>2020-06-23T10:37:51Z</time>
      </trkpt>
      <trkpt lat="51.00948" lon="2.28778">
        <ele>2.6</ele>
        <time>2020-06-23T10:37:52Z</time>
      </trkpt>
      <trkpt lat="51.00949" lon="2.28785">
        <ele>2.6</ele>
        <time>2020-06-23T10:37:53Z</time>
      </trkpt>
      <trkpt lat="51.0095" lon="2.28793">
        <ele>2.5</ele>
        <time>2020-06-23T10:37:54Z</time>
      </trkpt>
      <trkpt lat="51.00952" lon="2.28802">
        <ele>2.5</ele>
        <time>2020-06-23T10:37:55Z</time>
      </trkpt>
      <trkpt lat="51.00953" lon="2.2881">
        <ele>2.5</ele>
        <time>2020-06-23T10:37:56Z</time>
      </trkpt>
      <trkpt lat="51.00955" lon="2.28818">
        <ele>2.5</ele>
        <time>2020-06-23T10:37:57Z</time>
      </trkpt>
      <trkpt lat="51.00956" lon="2.28827">
        <ele>2.4</ele>
        <time>2020-06-23T10:37:58Z</time>
      </trkpt>
      <trkpt lat="51.00958" lon="2.28833">
        <ele>2.4</ele>
        <time>2020-06-23T10:37:59Z</time>
      </trkpt>
      <trkpt lat="51.00959" lon="2.2884">
        <ele>2.4</ele>
        <time>2020-06-23T10:38:00Z</time>
      </trkpt>
      <trkpt lat="51.0096" lon="2.28845">
        <ele>2.4</ele>
        <time>2020-06-23T10:38:01Z</time>
      </trkpt>
      <trkpt lat="51.00961" lon="2.28851">
        <ele>2.4</ele>
        <time>2020-06-23T10:38:02Z</time>
      </trkpt>
      <trkpt lat="51.00963" lon="2.2886">
        <ele>2.3</ele>
        <time>2020-06-23T10:38:03Z</time>
      </trkpt>
      <trkpt lat="51.00965" lon="2.28868">
        <ele>2.3</ele>
        <time>2020-06-23T10:38:04Z</time>
      </trkpt>
      <trkpt lat="51.00967" lon="2.28876">
        <ele>2.3</ele>
        <time>2020-06-23T10:38:05Z</time>
      </trkpt>
      <trkpt lat="51.00969" lon="2.28885">
        <ele>2.3</ele>
        <time>2020-06-23T10:38:06Z</time>
      </trkpt>
      <trkpt lat="51.00971" lon="2.28893">
        <ele>2.4</ele>
        <time>2020-06-23T10:38:07Z</time>
      </trkpt>
      <trkpt lat="51.00973" lon="2.289">
        <ele>2.4</ele>
        <time>2020-06-23T10:38:08Z</time>
      </trkpt>
      <trkpt lat="51.00975" lon="2.28906">
        <ele>2.4</ele>
        <time>2020-06-23T10:38:09Z</time>
      </trkpt>
      <trkpt lat="51.00976" lon="2.28911">
        <ele>2.4</ele>
        <time>2020-06-23T10:38:10Z</time>
      </trkpt>
      <trkpt lat="51.00978" lon="2.28916">
        <ele>2.4</ele>
        <time>2020-06-23T10:38:11Z</time>
      </trkpt>
      <trkpt lat="51.00979" lon="2.28919">
        <ele>2.4</ele>
        <time>2020-06-23T10:38:12Z</time>
      </trkpt>
      <trkpt lat="51.00981" lon="2.28925">
        <ele>2.4</ele>
        <time>2020-06-23T10:38:13Z</time>
      </trkpt>
      <trkpt lat="51.00983" lon="2.28932">
        <ele>2.4</ele>
        <time>2020-06-23T10:38:14Z</time>
      </trkpt>
      <trkpt lat="51.00985" lon="2.2894">
        <ele>2.4</ele>
        <time>2020-06-23T10:38:15Z</time>
      </trkpt>
      <trkpt lat="51.00987" lon="2.28947">
        <ele>2.4</ele>
        <time>2020-06-23T10:38:16Z</time>
      </trkpt>
      <trkpt lat="51.00989" lon="2.28955">
        <ele>2.4</ele>
        <time>2020-06-23T10:38:17Z</time>
      </trkpt>
      <trkpt lat="51.00991" lon="2.28962">
        <ele>2.4</ele>
        <time>2020-06-23T10:38:18Z</time>
      </trkpt>
      <trkpt lat="51.00993" lon="2.28967">
        <ele>2.3</ele>
        <time>2020-06-23T10:38:19Z</time>
      </trkpt>
      <trkpt lat="51.00994" lon="2.28971">
        <ele>2.3</ele>
        <time>2020-06-23T10:38:20Z</time>
      </trkpt>
      <trkpt lat="51.00995" lon="2.28976">
        <ele>2.3</ele>
        <time>2020-06-23T10:38:21Z</time>
      </trkpt>
      <trkpt lat="51.00996" lon="2.28983">
        <ele>2.3</ele>
        <time>2020-06-23T10:38:22Z</time>
      </trkpt>
      <trkpt lat="51.00995" lon="2.28986">
        <ele>2.3</ele>
        <time>2020-06-23T10:38:23Z</time>
      </trkpt>
      <trkpt lat="51.00995" lon="2.2899">
        <ele>2.3</ele>
        <time>2020-06-23T10:38:24Z</time>
      </trkpt>
      <trkpt lat="51.00995" lon="2.28992">
        <ele>2.3</ele>
        <time>2020-06-23T10:38:25Z</time>
      </trkpt>
      <trkpt lat="51.00996" lon="2.28998">
        <ele>2.3</ele>
        <time>2020-06-23T10:38:26Z</time>
      </trkpt>
      <trkpt lat="51.00999" lon="2.29004">
        <ele>2.3</ele>
        <time>2020-06-23T10:38:27Z</time>
      </trkpt>
      <trkpt lat="51.01001" lon="2.2901">
        <ele>2.3</ele>
        <time>2020-06-23T10:38:28Z</time>
      </trkpt>
      <trkpt lat="51.01004" lon="2.29014">
        <ele>2.3</ele>
        <time>2020-06-23T10:38:29Z</time>
      </trkpt>
      <trkpt lat="51.01005" lon="2.29019">
        <ele>2.3</ele>
        <time>2020-06-23T10:38:30Z</time>
      </trkpt>
      <trkpt lat="51.01006" lon="2.29024">
        <ele>2.3</ele>
        <time>2020-06-23T10:38:31Z</time>
      </trkpt>
      <trkpt lat="51.01007" lon="2.2903">
        <ele>2.3</ele>
        <time>2020-06-23T10:38:32Z</time>
      </trkpt>
      <trkpt lat="51.01008" lon="2.29036">
        <ele>2.3</ele>
        <time>2020-06-23T10:38:33Z</time>
      </trkpt>
      <trkpt lat="51.01009" lon="2.29043">
        <ele>2.3</ele>
        <time>2020-06-23T10:38:34Z</time>
      </trkpt>
      <trkpt lat="51.01009" lon="2.29048">
        <ele>2.3</ele>
        <time>2020-06-23T10:38:35Z</time>
      </trkpt>
      <trkpt lat="51.0101" lon="2.29053">
        <ele>2.3</ele>
        <time>2020-06-23T10:38:36Z</time>
      </trkpt>
      <trkpt lat="51.01009" lon="2.2906">
        <ele>2.3</ele>
        <time>2020-06-23T10:38:37Z</time>
      </trkpt>
      <trkpt lat="51.0101" lon="2.29064">
        <ele>2.3</ele>
        <time>2020-06-23T10:38:38Z</time>
      </trkpt>
      <trkpt lat="51.01013" lon="2.29066">
        <ele>2.3</ele>
        <time>2020-06-23T10:38:39Z</time>
      </trkpt>
      <trkpt lat="51.01017" lon="2.29068">
        <ele>2.3</ele>
        <time>2020-06-23T10:38:40Z</time>
      </trkpt>
      <trkpt lat="51.01019" lon="2.29071">
        <ele>2.3</ele>
        <time>2020-06-23T10:38:41Z</time>
      </trkpt>
      <trkpt lat="51.0102" lon="2.29076">
        <ele>2.3</ele>
        <time>2020-06-23T10:38:42Z</time>
      </trkpt>
      <trkpt lat="51.0102" lon="2.29083">
        <ele>2.3</ele>
        <time>2020-06-23T10:38:43Z</time>
      </trkpt>
      <trkpt lat="51.01021" lon="2.2909">
        <ele>2.3</ele>
        <time>2020-06-23T10:38:44Z</time>
      </trkpt>
      <trkpt lat="51.01023" lon="2.29096">
        <ele>2.3</ele>
        <time>2020-06-23T10:38:45Z</time>
      </trkpt>
      <trkpt lat="51.01024" lon="2.29103">
        <ele>2.3</ele>
        <time>2020-06-23T10:38:46Z</time>
      </trkpt>
      <trkpt lat="51.01025" lon="2.29108">
        <ele>2.3</ele>
        <time>2020-06-23T10:38:47Z</time>
      </trkpt>
      <trkpt lat="51.01027" lon="2.29116">
        <ele>2.3</ele>
        <time>2020-06-23T10:38:48Z</time>
      </trkpt>
      <trkpt lat="51.01029" lon="2.29125">
        <ele>2.3</ele>
        <time>2020-06-23T10:38:49Z</time>
      </trkpt>
      <trkpt lat="51.01032" lon="2.29134">
        <ele>2.3</ele>
        <time>2020-06-23T10:38:50Z</time>
      </trkpt>
      <trkpt lat="51.01034" lon="2.29142">
        <ele>2.3</ele>
        <time>2020-06-23T10:38:51Z</time>
      </trkpt>
      <trkpt lat="51.01035" lon="2.29149">
        <ele>2.3</ele>
        <time>2020-06-23T10:38:52Z</time>
      </trkpt>
      <trkpt lat="51.01036" lon="2.29154">
        <ele>2.3</ele>
        <time>2020-06-23T10:38:53Z</time>
      </trkpt>
      <trkpt lat="51.01037" lon="2.29161">
        <ele>2.3</ele>
        <time>2020-06-23T10:38:54Z</time>
      </trkpt>
      <trkpt lat="51.01039" lon="2.29166">
        <ele>2.3</ele>
        <time>2020-06-23T10:38:55Z</time>
      </trkpt>
      <trkpt lat="51.01039" lon="2.29171">
        <ele>2.3</ele>
        <time>2020-06-23T10:38:56Z</time>
      </trkpt>
      <trkpt lat="51.0104" lon="2.29177">
        <ele>2.3</ele>
        <time>2020-06-23T10:38:57Z</time>
      </trkpt>
      <trkpt lat="51.01041" lon="2.29183">
        <ele>2.3</ele>
        <time>2020-06-23T10:38:58Z</time>
      </trkpt>
      <trkpt lat="51.01041" lon="2.29189">
        <ele>2.3</ele>
        <time>2020-06-23T10:38:59Z</time>
      </trkpt>
      <trkpt lat="51.01043" lon="2.29196">
        <ele>2.3</ele>
        <time>2020-06-23T10:39:00Z</time>
      </trkpt>
      <trkpt lat="51.01043" lon="2.29203">
        <ele>2.3</ele>
        <time>2020-06-23T10:39:01Z</time>
      </trkpt>
      <trkpt lat="51.01045" lon="2.29209">
        <ele>2.3</ele>
        <time>2020-06-23T10:39:02Z</time>
      </trkpt>
      <trkpt lat="51.01046" lon="2.29215">
        <ele>2.3</ele>
        <time>2020-06-23T10:39:03Z</time>
      </trkpt>
      <trkpt lat="51.01048" lon="2.2922">
        <ele>2.4</ele>
        <time>2020-06-23T10:39:04Z</time>
      </trkpt>
      <trkpt lat="51.01049" lon="2.29225">
        <ele>2.4</ele>
        <time>2020-06-23T10:39:05Z</time>
      </trkpt>
      <trkpt lat="51.0105" lon="2.2923">
        <ele>2.4</ele>
        <time>2020-06-23T10:39:06Z</time>
      </trkpt>
      <trkpt lat="51.01051" lon="2.29238">
        <ele>2.4</ele>
        <time>2020-06-23T10:39:07Z</time>
      </trkpt>
      <trkpt lat="51.01052" lon="2.29243">
        <ele>2.5</ele>
        <time>2020-06-23T10:39:08Z</time>
      </trkpt>
      <trkpt lat="51.01053" lon="2.29247">
        <ele>2.5</ele>
        <time>2020-06-23T10:39:09Z</time>
      </trkpt>
      <trkpt lat="51.01056" lon="2.29252">
        <ele>2.5</ele>
        <time>2020-06-23T10:39:10Z</time>
      </trkpt>
      <trkpt lat="51.01057" lon="2.29254">
        <ele>2.5</ele>
        <time>2020-06-23T10:39:11Z</time>
      </trkpt>
      <trkpt lat="51.01058" lon="2.29259">
        <ele>2.5</ele>
        <time>2020-06-23T10:39:12Z</time>
      </trkpt>
      <trkpt lat="51.01059" lon="2.29266">
        <ele>2.5</ele>
        <time>2020-06-23T10:39:13Z</time>
      </trkpt>
      <trkpt lat="51.01061" lon="2.29274">
        <ele>2.5</ele>
        <time>2020-06-23T10:39:14Z</time>
      </trkpt>
      <trkpt lat="51.01063" lon="2.29281">
        <ele>2.5</ele>
        <time>2020-06-23T10:39:15Z</time>
      </trkpt>
      <trkpt lat="51.01066" lon="2.29288">
        <ele>2.5</ele>
        <time>2020-06-23T10:39:16Z</time>
      </trkpt>
      <trkpt lat="51.01069" lon="2.29296">
        <ele>2.5</ele>
        <time>2020-06-23T10:39:17Z</time>
      </trkpt>
      <trkpt lat="51.01074" lon="2.29304">
        <ele>2.7</ele>
        <time>2020-06-23T10:39:18Z</time>
      </trkpt>
      <trkpt lat="51.01078" lon="2.29311">
        <ele>2.7</ele>
        <time>2020-06-23T10:39:19Z</time>
      </trkpt>
      <trkpt lat="51.01081" lon="2.29319">
        <ele>2.8</ele>
        <time>2020-06-23T10:39:20Z</time>
      </trkpt>
      <trkpt lat="51.01084" lon="2.29328">
        <ele>2.8</ele>
        <time>2020-06-23T10:39:21Z</time>
      </trkpt>
      <trkpt lat="51.01085" lon="2.29334">
        <ele>2.8</ele>
        <time>2020-06-23T10:39:22Z</time>
      </trkpt>
      <trkpt lat="51.01087" lon="2.29342">
        <ele>2.8</ele>
        <time>2020-06-23T10:39:23Z</time>
      </trkpt>
      <trkpt lat="51.0109" lon="2.2935">
        <ele>2.8</ele>
        <time>2020-06-23T10:39:24Z</time>
      </trkpt>
      <trkpt lat="51.01092" lon="2.29358">
        <ele>2.7</ele>
        <time>2020-06-23T10:39:25Z</time>
      </trkpt>
      <trkpt lat="51.01094" lon="2.29365">
        <ele>2.8</ele>
        <time>2020-06-23T10:39:26Z</time>
      </trkpt>
      <trkpt lat="51.01097" lon="2.29372">
        <ele>2.8</ele>
        <time>2020-06-23T10:39:27Z</time>
      </trkpt>
      <trkpt lat="51.01097" lon="2.29379">
        <ele>2.8</ele>
        <time>2020-06-23T10:39:28Z</time>
      </trkpt>
      <trkpt lat="51.011" lon="2.29386">
        <ele>2.8</ele>
        <time>2020-06-23T10:39:29Z</time>
      </trkpt>
      <trkpt lat="51.01102" lon="2.29394">
        <ele>2.8</ele>
        <time>2020-06-23T10:39:30Z</time>
      </trkpt>
      <trkpt lat="51.01104" lon="2.29402">
        <ele>2.8</ele>
        <time>2020-06-23T10:39:31Z</time>
      </trkpt>
      <trkpt lat="51.01106" lon="2.29412">
        <ele>2.8</ele>
        <time>2020-06-23T10:39:32Z</time>
      </trkpt>
      <trkpt lat="51.01107" lon="2.29418">
        <ele>2.8</ele>
        <time>2020-06-23T10:39:33Z</time>
      </trkpt>
      <trkpt lat="51.0111" lon="2.29427">
        <ele>2.8</ele>
        <time>2020-06-23T10:39:34Z</time>
      </trkpt>
      <trkpt lat="51.01112" lon="2.29436">
        <ele>2.8</ele>
        <time>2020-06-23T10:39:35Z</time>
      </trkpt>
      <trkpt lat="51.01115" lon="2.29443">
        <ele>2.8</ele>
        <time>2020-06-23T10:39:36Z</time>
      </trkpt>
      <trkpt lat="51.01117" lon="2.29453">
        <ele>2.8</ele>
        <time>2020-06-23T10:39:37Z</time>
      </trkpt>
      <trkpt lat="51.01119" lon="2.29462">
        <ele>2.9</ele>
        <time>2020-06-23T10:39:38Z</time>
      </trkpt>
      <trkpt lat="51.01121" lon="2.29471">
        <ele>2.9</ele>
        <time>2020-06-23T10:39:39Z</time>
      </trkpt>
      <trkpt lat="51.01124" lon="2.2948">
        <ele>3</ele>
        <time>2020-06-23T10:39:40Z</time>
      </trkpt>
      <trkpt lat="51.01126" lon="2.29489">
        <ele>3</ele>
        <time>2020-06-23T10:39:41Z</time>
      </trkpt>
      <trkpt lat="51.01127" lon="2.29497">
        <ele>3</ele>
        <time>2020-06-23T10:39:42Z</time>
      </trkpt>
      <trkpt lat="51.01128" lon="2.29501">
        <ele>3</ele>
        <time>2020-06-23T10:39:43Z</time>
      </trkpt>
      <trkpt lat="51.01127" lon="2.29502">
        <ele>3</ele>
        <time>2020-06-23T10:39:44Z</time>
      </trkpt>
      <trkpt lat="51.01126" lon="2.29502">
        <ele>3</ele>
        <time>2020-06-23T10:39:45Z</time>
      </trkpt>
      <trkpt lat="51.01127" lon="2.29501">
        <ele>3</ele>
        <time>2020-06-23T10:39:46Z</time>
      </trkpt>
      <trkpt lat="51.01128" lon="2.295">
        <ele>3</ele>
        <time>2020-06-23T10:39:47Z</time>
      </trkpt>
      <trkpt lat="51.01128" lon="2.29499">
        <ele>3</ele>
        <time>2020-06-23T10:39:48Z</time>
      </trkpt>
      <trkpt lat="51.01128" lon="2.29499">
        <ele>3</ele>
        <time>2020-06-23T10:39:49Z</time>
      </trkpt>
      <trkpt lat="51.01129" lon="2.29498">
        <ele>3</ele>
        <time>2020-06-23T10:39:50Z</time>
      </trkpt>
      <trkpt lat="51.01129" lon="2.29497">
        <ele>3</ele>
        <time>2020-06-23T10:39:51Z</time>
      </trkpt>
      <trkpt lat="51.01129" lon="2.29495">
        <ele>3</ele>
        <time>2020-06-23T10:39:52Z</time>
      </trkpt>
      <trkpt lat="51.01131" lon="2.29494">
        <ele>3</ele>
        <time>2020-06-23T10:39:53Z</time>
      </trkpt>
      <trkpt lat="51.01132" lon="2.29492">
        <ele>3</ele>
        <time>2020-06-23T10:39:54Z</time>
      </trkpt>
      <trkpt lat="51.01133" lon="2.29492">
        <ele>3</ele>
        <time>2020-06-23T10:39:55Z</time>
      </trkpt>
      <trkpt lat="51.01134" lon="2.29492">
        <ele>3</ele>
        <time>2020-06-23T10:39:56Z</time>
      </trkpt>
      <trkpt lat="51.01134" lon="2.29496">
        <ele>3</ele>
        <time>2020-06-23T10:39:57Z</time>
      </trkpt>
      <trkpt lat="51.01134" lon="2.295">
        <ele>3</ele>
        <time>2020-06-23T10:40:10Z</time>
      </trkpt>
      <trkpt lat="51.01134" lon="2.29503">
        <ele>3</ele>
        <time>2020-06-23T10:40:11Z</time>
      </trkpt>
      <trkpt lat="51.01136" lon="2.29508">
        <ele>3</ele>
        <time>2020-06-23T10:40:12Z</time>
      </trkpt>
      <trkpt lat="51.01137" lon="2.29515">
        <ele>3</ele>
        <time>2020-06-23T10:40:13Z</time>
      </trkpt>
      <trkpt lat="51.01138" lon="2.29523">
        <ele>2.9</ele>
        <time>2020-06-23T10:40:14Z</time>
      </trkpt>
      <trkpt lat="51.01139" lon="2.2953">
        <ele>2.9</ele>
        <time>2020-06-23T10:40:15Z</time>
      </trkpt>
      <trkpt lat="51.01141" lon="2.29536">
        <ele>2.9</ele>
        <time>2020-06-23T10:40:16Z</time>
      </trkpt>
      <trkpt lat="51.01143" lon="2.29543">
        <ele>2.8</ele>
        <time>2020-06-23T10:40:17Z</time>
      </trkpt>
      <trkpt lat="51.01145" lon="2.29551">
        <ele>2.7</ele>
        <time>2020-06-23T10:40:18Z</time>
      </trkpt>
      <trkpt lat="51.01146" lon="2.29559">
        <ele>2.6</ele>
        <time>2020-06-23T10:40:19Z</time>
      </trkpt>
      <trkpt lat="51.01147" lon="2.29568">
        <ele>2.6</ele>
        <time>2020-06-23T10:40:20Z</time>
      </trkpt>
      <trkpt lat="51.01148" lon="2.29576">
        <ele>2.6</ele>
        <time>2020-06-23T10:40:21Z</time>
      </trkpt>
      <trkpt lat="51.01149" lon="2.29586">
        <ele>2.5</ele>
        <time>2020-06-23T10:40:22Z</time>
      </trkpt>
      <trkpt lat="51.01151" lon="2.29594">
        <ele>2.5</ele>
        <time>2020-06-23T10:40:23Z</time>
      </trkpt>
      <trkpt lat="51.01151" lon="2.29602">
        <ele>2.5</ele>
        <time>2020-06-23T10:40:24Z</time>
      </trkpt>
      <trkpt lat="51.01152" lon="2.29611">
        <ele>2.5</ele>
        <time>2020-06-23T10:40:25Z</time>
      </trkpt>
      <trkpt lat="51.01153" lon="2.29619">
        <ele>2.5</ele>
        <time>2020-06-23T10:40:26Z</time>
      </trkpt>
      <trkpt lat="51.01154" lon="2.29628">
        <ele>2.5</ele>
        <time>2020-06-23T10:40:27Z</time>
      </trkpt>
      <trkpt lat="51.01156" lon="2.29639">
        <ele>2.4</ele>
        <time>2020-06-23T10:40:28Z</time>
      </trkpt>
      <trkpt lat="51.01159" lon="2.29647">
        <ele>2.4</ele>
        <time>2020-06-23T10:40:29Z</time>
      </trkpt>
      <trkpt lat="51.01161" lon="2.29656">
        <ele>2.4</ele>
        <time>2020-06-23T10:40:30Z</time>
      </trkpt>
      <trkpt lat="51.01162" lon="2.29665">
        <ele>2.4</ele>
        <time>2020-06-23T10:40:31Z</time>
      </trkpt>
      <trkpt lat="51.01164" lon="2.29674">
        <ele>2.4</ele>
        <time>2020-06-23T10:40:32Z</time>
      </trkpt>
      <trkpt lat="51.01165" lon="2.29682">
        <ele>2.3</ele>
        <time>2020-06-23T10:40:33Z</time>
      </trkpt>
      <trkpt lat="51.01168" lon="2.29691">
        <ele>2.3</ele>
        <time>2020-06-23T10:40:34Z</time>
      </trkpt>
      <trkpt lat="51.01169" lon="2.297">
        <ele>2.3</ele>
        <time>2020-06-23T10:40:35Z</time>
      </trkpt>
      <trkpt lat="51.0117" lon="2.29709">
        <ele>2.3</ele>
        <time>2020-06-23T10:40:36Z</time>
      </trkpt>
      <trkpt lat="51.01171" lon="2.29718">
        <ele>2.3</ele>
        <time>2020-06-23T10:40:37Z</time>
      </trkpt>
      <trkpt lat="51.01173" lon="2.29728">
        <ele>2.3</ele>
        <time>2020-06-23T10:40:38Z</time>
      </trkpt>
      <trkpt lat="51.01175" lon="2.29737">
        <ele>2.3</ele>
        <time>2020-06-23T10:40:39Z</time>
      </trkpt>
      <trkpt lat="51.01177" lon="2.29747">
        <ele>2.3</ele>
        <time>2020-06-23T10:40:40Z</time>
      </trkpt>
      <trkpt lat="51.0118" lon="2.29756">
        <ele>2.3</ele>
        <time>2020-06-23T10:40:41Z</time>
      </trkpt>
      <trkpt lat="51.01182" lon="2.29766">
        <ele>2.3</ele>
        <time>2020-06-23T10:40:42Z</time>
      </trkpt>
      <trkpt lat="51.01184" lon="2.29775">
        <ele>2.3</ele>
        <time>2020-06-23T10:40:43Z</time>
      </trkpt>
      <trkpt lat="51.01186" lon="2.29783">
        <ele>2.3</ele>
        <time>2020-06-23T10:40:44Z</time>
      </trkpt>
      <trkpt lat="51.01187" lon="2.29791">
        <ele>2.3</ele>
        <time>2020-06-23T10:40:45Z</time>
      </trkpt>
      <trkpt lat="51.01188" lon="2.29799">
        <ele>2.4</ele>
        <time>2020-06-23T10:40:46Z</time>
      </trkpt>
      <trkpt lat="51.0119" lon="2.29808">
        <ele>2.4</ele>
        <time>2020-06-23T10:40:47Z</time>
      </trkpt>
      <trkpt lat="51.01192" lon="2.29816">
        <ele>2.3</ele>
        <time>2020-06-23T10:40:48Z</time>
      </trkpt>
      <trkpt lat="51.01194" lon="2.29822">
        <ele>2.3</ele>
        <time>2020-06-23T10:40:49Z</time>
      </trkpt>
      <trkpt lat="51.01195" lon="2.29826">
        <ele>2.3</ele>
        <time>2020-06-23T10:40:50Z</time>
      </trkpt>
      <trkpt lat="51.01197" lon="2.29831">
        <ele>2.3</ele>
        <time>2020-06-23T10:40:51Z</time>
      </trkpt>
      <trkpt lat="51.01198" lon="2.29835">
        <ele>2.3</ele>
        <time>2020-06-23T10:40:52Z</time>
      </trkpt>
      <trkpt lat="51.01201" lon="2.2984">
        <ele>2.2</ele>
        <time>2020-06-23T10:40:53Z</time>
      </trkpt>
      <trkpt lat="51.01202" lon="2.29848">
        <ele>2.2</ele>
        <time>2020-06-23T10:40:54Z</time>
      </trkpt>
      <trkpt lat="51.01205" lon="2.29856">
        <ele>2.2</ele>
        <time>2020-06-23T10:40:55Z</time>
      </trkpt>
      <trkpt lat="51.01206" lon="2.29866">
        <ele>2.2</ele>
        <time>2020-06-23T10:40:56Z</time>
      </trkpt>
      <trkpt lat="51.01208" lon="2.29876">
        <ele>2.2</ele>
        <time>2020-06-23T10:40:57Z</time>
      </trkpt>
      <trkpt lat="51.01211" lon="2.29885">
        <ele>2.2</ele>
        <time>2020-06-23T10:40:58Z</time>
      </trkpt>
      <trkpt lat="51.01213" lon="2.29894">
        <ele>2.2</ele>
        <time>2020-06-23T10:40:59Z</time>
      </trkpt>
      <trkpt lat="51.01215" lon="2.29904">
        <ele>2.2</ele>
        <time>2020-06-23T10:41:00Z</time>
      </trkpt>
      <trkpt lat="51.01217" lon="2.29913">
        <ele>2.3</ele>
        <time>2020-06-23T10:41:01Z</time>
      </trkpt>
      <trkpt lat="51.01218" lon="2.29923">
        <ele>2.3</ele>
        <time>2020-06-23T10:41:02Z</time>
      </trkpt>
      <trkpt lat="51.01222" lon="2.29932">
        <ele>2.3</ele>
        <time>2020-06-23T10:41:03Z</time>
      </trkpt>
      <trkpt lat="51.01224" lon="2.2994">
        <ele>2.3</ele>
        <time>2020-06-23T10:41:04Z</time>
      </trkpt>
      <trkpt lat="51.01227" lon="2.2995">
        <ele>2.3</ele>
        <time>2020-06-23T10:41:05Z</time>
      </trkpt>
      <trkpt lat="51.01229" lon="2.29959">
        <ele>2.3</ele>
        <time>2020-06-23T10:41:06Z</time>
      </trkpt>
      <trkpt lat="51.01232" lon="2.29969">
        <ele>2.4</ele>
        <time>2020-06-23T10:41:07Z</time>
      </trkpt>
      <trkpt lat="51.01234" lon="2.29978">
        <ele>2.4</ele>
        <time>2020-06-23T10:41:08Z</time>
      </trkpt>
      <trkpt lat="51.01237" lon="2.29989">
        <ele>2.4</ele>
        <time>2020-06-23T10:41:09Z</time>
      </trkpt>
      <trkpt lat="51.01238" lon="2.29997">
        <ele>2.5</ele>
        <time>2020-06-23T10:41:10Z</time>
      </trkpt>
      <trkpt lat="51.0124" lon="2.30006">
        <ele>2.5</ele>
        <time>2020-06-23T10:41:11Z</time>
      </trkpt>
      <trkpt lat="51.01241" lon="2.30013">
        <ele>2.6</ele>
        <time>2020-06-23T10:41:12Z</time>
      </trkpt>
      <trkpt lat="51.01243" lon="2.30021">
        <ele>2.6</ele>
        <time>2020-06-23T10:41:13Z</time>
      </trkpt>
      <trkpt lat="51.01245" lon="2.30028">
        <ele>2.7</ele>
        <time>2020-06-23T10:41:14Z</time>
      </trkpt>
      <trkpt lat="51.01247" lon="2.30034">
        <ele>2.7</ele>
        <time>2020-06-23T10:41:15Z</time>
      </trkpt>
      <trkpt lat="51.01249" lon="2.3004">
        <ele>2.7</ele>
        <time>2020-06-23T10:41:16Z</time>
      </trkpt>
      <trkpt lat="51.01251" lon="2.30046">
        <ele>2.8</ele>
        <time>2020-06-23T10:41:17Z</time>
      </trkpt>
      <trkpt lat="51.01254" lon="2.30051">
        <ele>2.8</ele>
        <time>2020-06-23T10:41:18Z</time>
      </trkpt>
      <trkpt lat="51.01256" lon="2.30058">
        <ele>2.8</ele>
        <time>2020-06-23T10:41:19Z</time>
      </trkpt>
      <trkpt lat="51.01258" lon="2.30066">
        <ele>2.9</ele>
        <time>2020-06-23T10:41:20Z</time>
      </trkpt>
      <trkpt lat="51.01259" lon="2.30072">
        <ele>2.9</ele>
        <time>2020-06-23T10:41:21Z</time>
      </trkpt>
      <trkpt lat="51.0126" lon="2.3008">
        <ele>2.9</ele>
        <time>2020-06-23T10:41:22Z</time>
      </trkpt>
      <trkpt lat="51.0126" lon="2.30087">
        <ele>2.8</ele>
        <time>2020-06-23T10:41:23Z</time>
      </trkpt>
      <trkpt lat="51.01259" lon="2.30094">
        <ele>2.8</ele>
        <time>2020-06-23T10:41:24Z</time>
      </trkpt>
      <trkpt lat="51.0126" lon="2.301">
        <ele>2.8</ele>
        <time>2020-06-23T10:41:25Z</time>
      </trkpt>
      <trkpt lat="51.01261" lon="2.30106">
        <ele>2.7</ele>
        <time>2020-06-23T10:41:26Z</time>
      </trkpt>
      <trkpt lat="51.01262" lon="2.30111">
        <ele>2.7</ele>
        <time>2020-06-23T10:41:27Z</time>
      </trkpt>
      <trkpt lat="51.01263" lon="2.30119">
        <ele>2.7</ele>
        <time>2020-06-23T10:41:28Z</time>
      </trkpt>
      <trkpt lat="51.01264" lon="2.30123">
        <ele>2.6</ele>
        <time>2020-06-23T10:41:29Z</time>
      </trkpt>
      <trkpt lat="51.01265" lon="2.3013">
        <ele>2.6</ele>
        <time>2020-06-23T10:41:30Z</time>
      </trkpt>
      <trkpt lat="51.01266" lon="2.30136">
        <ele>2.6</ele>
        <time>2020-06-23T10:41:31Z</time>
      </trkpt>
      <trkpt lat="51.01268" lon="2.30144">
        <ele>2.6</ele>
        <time>2020-06-23T10:41:32Z</time>
      </trkpt>
      <trkpt lat="51.0127" lon="2.3015">
        <ele>2.6</ele>
        <time>2020-06-23T10:41:33Z</time>
      </trkpt>
      <trkpt lat="51.01272" lon="2.30156">
        <ele>2.6</ele>
        <time>2020-06-23T10:41:34Z</time>
      </trkpt>
      <trkpt lat="51.01274" lon="2.30164">
        <ele>2.6</ele>
        <time>2020-06-23T10:41:35Z</time>
      </trkpt>
      <trkpt lat="51.01276" lon="2.30169">
        <ele>2.6</ele>
        <time>2020-06-23T10:41:36Z</time>
      </trkpt>
      <trkpt lat="51.01278" lon="2.30175">
        <ele>2.6</ele>
        <time>2020-06-23T10:41:37Z</time>
      </trkpt>
      <trkpt lat="51.01278" lon="2.3018">
        <ele>2.6</ele>
        <time>2020-06-23T10:41:38Z</time>
      </trkpt>
      <trkpt lat="51.01279" lon="2.30185">
        <ele>2.6</ele>
        <time>2020-06-23T10:41:39Z</time>
      </trkpt>
      <trkpt lat="51.0128" lon="2.3019">
        <ele>2.6</ele>
        <time>2020-06-23T10:41:40Z</time>
      </trkpt>
      <trkpt lat="51.01281" lon="2.30195">
        <ele>2.7</ele>
        <time>2020-06-23T10:41:41Z</time>
      </trkpt>
      <trkpt lat="51.01282" lon="2.302">
        <ele>2.8</ele>
        <time>2020-06-23T10:41:42Z</time>
      </trkpt>
      <trkpt lat="51.01282" lon="2.30205">
        <ele>2.9</ele>
        <time>2020-06-23T10:41:43Z</time>
      </trkpt>
      <trkpt lat="51.01284" lon="2.30212">
        <ele>3</ele>
        <time>2020-06-23T10:41:44Z</time>
      </trkpt>
      <trkpt lat="51.01286" lon="2.30219">
        <ele>3.2</ele>
        <time>2020-06-23T10:41:45Z</time>
      </trkpt>
      <trkpt lat="51.01289" lon="2.30227">
        <ele>3.3</ele>
        <time>2020-06-23T10:41:46Z</time>
      </trkpt>
      <trkpt lat="51.0129" lon="2.30232">
        <ele>3.4</ele>
        <time>2020-06-23T10:41:47Z</time>
      </trkpt>
      <trkpt lat="51.01291" lon="2.30238">
        <ele>3.5</ele>
        <time>2020-06-23T10:41:48Z</time>
      </trkpt>
      <trkpt lat="51.01292" lon="2.30244">
        <ele>3.6</ele>
        <time>2020-06-23T10:41:49Z</time>
      </trkpt>
      <trkpt lat="51.01293" lon="2.30249">
        <ele>3.8</ele>
        <time>2020-06-23T10:41:50Z</time>
      </trkpt>
      <trkpt lat="51.01294" lon="2.30254">
        <ele>3.8</ele>
        <time>2020-06-23T10:41:51Z</time>
      </trkpt>
      <trkpt lat="51.01295" lon="2.30259">
        <ele>3.9</ele>
        <time>2020-06-23T10:41:52Z</time>
      </trkpt>
      <trkpt lat="51.01296" lon="2.30264">
        <ele>4</ele>
        <time>2020-06-23T10:41:53Z</time>
      </trkpt>
      <trkpt lat="51.01297" lon="2.30268">
        <ele>4.1</ele>
        <time>2020-06-23T10:41:54Z</time>
      </trkpt>
      <trkpt lat="51.01299" lon="2.30272">
        <ele>4.2</ele>
        <time>2020-06-23T10:41:55Z</time>
      </trkpt>
      <trkpt lat="51.01299" lon="2.30277">
        <ele>4.3</ele>
        <time>2020-06-23T10:41:56Z</time>
      </trkpt>
      <trkpt lat="51.013" lon="2.30283">
        <ele>4.3</ele>
        <time>2020-06-23T10:41:57Z</time>
      </trkpt>
      <trkpt lat="51.013" lon="2.30284">
        <ele>4.4</ele>
        <time>2020-06-23T10:41:58Z</time>
      </trkpt>
      <trkpt lat="51.01301" lon="2.30291">
        <ele>4.4</ele>
        <time>2020-06-23T10:41:59Z</time>
      </trkpt>
      <trkpt lat="51.01301" lon="2.30294">
        <ele>4.4</ele>
        <time>2020-06-23T10:42:00Z</time>
      </trkpt>
      <trkpt lat="51.01301" lon="2.30304">
        <ele>4.5</ele>
        <time>2020-06-23T10:42:01Z</time>
      </trkpt>
      <trkpt lat="51.013" lon="2.30309">
        <ele>4.4</ele>
        <time>2020-06-23T10:42:02Z</time>
      </trkpt>
      <trkpt lat="51.01298" lon="2.30317">
        <ele>4.4</ele>
        <time>2020-06-23T10:42:03Z</time>
      </trkpt>
      <trkpt lat="51.01297" lon="2.30323">
        <ele>4.4</ele>
        <time>2020-06-23T10:42:04Z</time>
      </trkpt>
      <trkpt lat="51.01295" lon="2.30329">
        <ele>4.4</ele>
        <time>2020-06-23T10:42:05Z</time>
      </trkpt>
      <trkpt lat="51.01293" lon="2.30336">
        <ele>4.4</ele>
        <time>2020-06-23T10:42:06Z</time>
      </trkpt>
      <trkpt lat="51.01292" lon="2.30342">
        <ele>4.4</ele>
        <time>2020-06-23T10:42:07Z</time>
      </trkpt>
      <trkpt lat="51.01292" lon="2.30349">
        <ele>4.3</ele>
        <time>2020-06-23T10:42:08Z</time>
      </trkpt>
      <trkpt lat="51.01291" lon="2.30352">
        <ele>4.3</ele>
        <time>2020-06-23T10:42:09Z</time>
      </trkpt>
      <trkpt lat="51.01291" lon="2.30357">
        <ele>4.2</ele>
        <time>2020-06-23T10:42:10Z</time>
      </trkpt>
      <trkpt lat="51.01291" lon="2.30363">
        <ele>4.1</ele>
        <time>2020-06-23T10:42:11Z</time>
      </trkpt>
      <trkpt lat="51.01291" lon="2.30371">
        <ele>4</ele>
        <time>2020-06-23T10:42:12Z</time>
      </trkpt>
      <trkpt lat="51.0129" lon="2.30378">
        <ele>3.9</ele>
        <time>2020-06-23T10:42:13Z</time>
      </trkpt>
      <trkpt lat="51.01289" lon="2.30387">
        <ele>3.7</ele>
        <time>2020-06-23T10:42:14Z</time>
      </trkpt>
      <trkpt lat="51.01287" lon="2.30395">
        <ele>3.6</ele>
        <time>2020-06-23T10:42:15Z</time>
      </trkpt>
      <trkpt lat="51.01286" lon="2.30404">
        <ele>3.4</ele>
        <time>2020-06-23T10:42:16Z</time>
      </trkpt>
      <trkpt lat="51.01284" lon="2.30414">
        <ele>3.2</ele>
        <time>2020-06-23T10:42:17Z</time>
      </trkpt>
      <trkpt lat="51.0128" lon="2.30421">
        <ele>3.1</ele>
        <time>2020-06-23T10:42:18Z</time>
      </trkpt>
      <trkpt lat="51.01279" lon="2.30429">
        <ele>3</ele>
        <time>2020-06-23T10:42:19Z</time>
      </trkpt>
      <trkpt lat="51.01278" lon="2.30439">
        <ele>2.8</ele>
        <time>2020-06-23T10:42:20Z</time>
      </trkpt>
      <trkpt lat="51.01276" lon="2.3045">
        <ele>2.6</ele>
        <time>2020-06-23T10:42:21Z</time>
      </trkpt>
      <trkpt lat="51.01276" lon="2.30456">
        <ele>2.5</ele>
        <time>2020-06-23T10:42:22Z</time>
      </trkpt>
      <trkpt lat="51.01276" lon="2.30465">
        <ele>2.4</ele>
        <time>2020-06-23T10:42:23Z</time>
      </trkpt>
      <trkpt lat="51.01278" lon="2.30476">
        <ele>2.3</ele>
        <time>2020-06-23T10:42:24Z</time>
      </trkpt>
      <trkpt lat="51.01282" lon="2.30486">
        <ele>2.2</ele>
        <time>2020-06-23T10:42:25Z</time>
      </trkpt>
      <trkpt lat="51.01285" lon="2.30496">
        <ele>2.1</ele>
        <time>2020-06-23T10:42:26Z</time>
      </trkpt>
      <trkpt lat="51.01288" lon="2.30503">
        <ele>2</ele>
        <time>2020-06-23T10:42:27Z</time>
      </trkpt>
      <trkpt lat="51.0129" lon="2.30512">
        <ele>1.9</ele>
        <time>2020-06-23T10:42:28Z</time>
      </trkpt>
      <trkpt lat="51.01293" lon="2.30519">
        <ele>1.9</ele>
        <time>2020-06-23T10:42:29Z</time>
      </trkpt>
      <trkpt lat="51.01296" lon="2.30526">
        <ele>1.8</ele>
        <time>2020-06-23T10:42:30Z</time>
      </trkpt>
      <trkpt lat="51.01296" lon="2.30533">
        <ele>1.8</ele>
        <time>2020-06-23T10:42:31Z</time>
      </trkpt>
      <trkpt lat="51.01298" lon="2.30542">
        <ele>1.7</ele>
        <time>2020-06-23T10:42:32Z</time>
      </trkpt>
      <trkpt lat="51.01303" lon="2.30553">
        <ele>1.7</ele>
        <time>2020-06-23T10:42:33Z</time>
      </trkpt>
      <trkpt lat="51.01305" lon="2.30561">
        <ele>1.7</ele>
        <time>2020-06-23T10:42:34Z</time>
      </trkpt>
      <trkpt lat="51.01308" lon="2.30569">
        <ele>1.7</ele>
        <time>2020-06-23T10:42:35Z</time>
      </trkpt>
      <trkpt lat="51.01308" lon="2.30574">
        <ele>1.7</ele>
        <time>2020-06-23T10:42:36Z</time>
      </trkpt>
      <trkpt lat="51.01308" lon="2.30577">
        <ele>1.8</ele>
        <time>2020-06-23T10:42:37Z</time>
      </trkpt>
      <trkpt lat="51.01311" lon="2.30582">
        <ele>1.8</ele>
        <time>2020-06-23T10:42:38Z</time>
      </trkpt>
      <trkpt lat="51.01313" lon="2.30586">
        <ele>1.8</ele>
        <time>2020-06-23T10:42:39Z</time>
      </trkpt>
      <trkpt lat="51.01316" lon="2.30594">
        <ele>1.8</ele>
        <time>2020-06-23T10:42:40Z</time>
      </trkpt>
      <trkpt lat="51.0132" lon="2.306">
        <ele>1.8</ele>
        <time>2020-06-23T10:42:41Z</time>
      </trkpt>
      <trkpt lat="51.01323" lon="2.30605">
        <ele>1.8</ele>
        <time>2020-06-23T10:42:42Z</time>
      </trkpt>
      <trkpt lat="51.01326" lon="2.30612">
        <ele>1.8</ele>
        <time>2020-06-23T10:42:43Z</time>
      </trkpt>
      <trkpt lat="51.01329" lon="2.30616">
        <ele>1.7</ele>
        <time>2020-06-23T10:42:44Z</time>
      </trkpt>
      <trkpt lat="51.01334" lon="2.30621">
        <ele>1.7</ele>
        <time>2020-06-23T10:42:45Z</time>
      </trkpt>
      <trkpt lat="51.01339" lon="2.30624">
        <ele>1.6</ele>
        <time>2020-06-23T10:42:46Z</time>
      </trkpt>
      <trkpt lat="51.01345" lon="2.30625">
        <ele>1.6</ele>
        <time>2020-06-23T10:42:47Z</time>
      </trkpt>
      <trkpt lat="51.0135" lon="2.30627">
        <ele>1.6</ele>
        <time>2020-06-23T10:42:48Z</time>
      </trkpt>
      <trkpt lat="51.01355" lon="2.30629">
        <ele>1.6</ele>
        <time>2020-06-23T10:42:49Z</time>
      </trkpt>
      <trkpt lat="51.0136" lon="2.30631">
        <ele>1.6</ele>
        <time>2020-06-23T10:42:50Z</time>
      </trkpt>
      <trkpt lat="51.01366" lon="2.30633">
        <ele>1.6</ele>
        <time>2020-06-23T10:42:51Z</time>
      </trkpt>
      <trkpt lat="51.01372" lon="2.30637">
        <ele>1.7</ele>
        <time>2020-06-23T10:42:52Z</time>
      </trkpt>
      <trkpt lat="51.01377" lon="2.30639">
        <ele>1.7</ele>
        <time>2020-06-23T10:42:53Z</time>
      </trkpt>
      <trkpt lat="51.01383" lon="2.30639">
        <ele>1.7</ele>
        <time>2020-06-23T10:42:54Z</time>
      </trkpt>
      <trkpt lat="51.01387" lon="2.3064">
        <ele>1.7</ele>
        <time>2020-06-23T10:42:55Z</time>
      </trkpt>
      <trkpt lat="51.01391" lon="2.30643">
        <ele>1.8</ele>
        <time>2020-06-23T10:42:56Z</time>
      </trkpt>
      <trkpt lat="51.01396" lon="2.30652">
        <ele>1.8</ele>
        <time>2020-06-23T10:42:57Z</time>
      </trkpt>
      <trkpt lat="51.014" lon="2.30657">
        <ele>1.8</ele>
        <time>2020-06-23T10:42:58Z</time>
      </trkpt>
      <trkpt lat="51.01404" lon="2.30665">
        <ele>2</ele>
        <time>2020-06-23T10:42:59Z</time>
      </trkpt>
      <trkpt lat="51.01408" lon="2.30673">
        <ele>2.1</ele>
        <time>2020-06-23T10:43:00Z</time>
      </trkpt>
      <trkpt lat="51.0141" lon="2.30681">
        <ele>2.1</ele>
        <time>2020-06-23T10:43:01Z</time>
      </trkpt>
      <trkpt lat="51.01412" lon="2.30689">
        <ele>2.2</ele>
        <time>2020-06-23T10:43:02Z</time>
      </trkpt>
      <trkpt lat="51.01414" lon="2.30697">
        <ele>2.2</ele>
        <time>2020-06-23T10:43:03Z</time>
      </trkpt>
      <trkpt lat="51.01417" lon="2.30705">
        <ele>2.2</ele>
        <time>2020-06-23T10:43:04Z</time>
      </trkpt>
      <trkpt lat="51.01419" lon="2.30713">
        <ele>2.2</ele>
        <time>2020-06-23T10:43:05Z</time>
      </trkpt>
      <trkpt lat="51.0142" lon="2.3072">
        <ele>2.2</ele>
        <time>2020-06-23T10:43:06Z</time>
      </trkpt>
      <trkpt lat="51.01421" lon="2.30726">
        <ele>2.2</ele>
        <time>2020-06-23T10:43:07Z</time>
      </trkpt>
      <trkpt lat="51.01424" lon="2.30734">
        <ele>2.3</ele>
        <time>2020-06-23T10:43:08Z</time>
      </trkpt>
      <trkpt lat="51.01425" lon="2.30741">
        <ele>2.3</ele>
        <time>2020-06-23T10:43:09Z</time>
      </trkpt>
      <trkpt lat="51.01428" lon="2.30748">
        <ele>2.3</ele>
        <time>2020-06-23T10:43:10Z</time>
      </trkpt>
      <trkpt lat="51.0143" lon="2.30756">
        <ele>2.3</ele>
        <time>2020-06-23T10:43:11Z</time>
      </trkpt>
      <trkpt lat="51.01432" lon="2.30764">
        <ele>2.4</ele>
        <time>2020-06-23T10:43:12Z</time>
      </trkpt>
      <trkpt lat="51.01433" lon="2.30773">
        <ele>2.4</ele>
        <time>2020-06-23T10:43:13Z</time>
      </trkpt>
      <trkpt lat="51.01435" lon="2.3078">
        <ele>2.5</ele>
        <time>2020-06-23T10:43:14Z</time>
      </trkpt>
      <trkpt lat="51.01436" lon="2.30787">
        <ele>2.5</ele>
        <time>2020-06-23T10:43:15Z</time>
      </trkpt>
      <trkpt lat="51.01437" lon="2.30795">
        <ele>2.6</ele>
        <time>2020-06-23T10:43:16Z</time>
      </trkpt>
      <trkpt lat="51.01439" lon="2.30801">
        <ele>2.6</ele>
        <time>2020-06-23T10:43:17Z</time>
      </trkpt>
      <trkpt lat="51.01441" lon="2.30809">
        <ele>2.8</ele>
        <time>2020-06-23T10:43:18Z</time>
      </trkpt>
      <trkpt lat="51.01445" lon="2.30818">
        <ele>2.7</ele>
        <time>2020-06-23T10:43:19Z</time>
      </trkpt>
      <trkpt lat="51.01446" lon="2.30825">
        <ele>2.7</ele>
        <time>2020-06-23T10:43:20Z</time>
      </trkpt>
      <trkpt lat="51.01449" lon="2.30832">
        <ele>2.6</ele>
        <time>2020-06-23T10:43:21Z</time>
      </trkpt>
      <trkpt lat="51.01451" lon="2.30841">
        <ele>2.6</ele>
        <time>2020-06-23T10:43:22Z</time>
      </trkpt>
      <trkpt lat="51.01453" lon="2.3085">
        <ele>2.5</ele>
        <time>2020-06-23T10:43:23Z</time>
      </trkpt>
      <trkpt lat="51.01455" lon="2.30859">
        <ele>2.5</ele>
        <time>2020-06-23T10:43:24Z</time>
      </trkpt>
      <trkpt lat="51.01458" lon="2.30868">
        <ele>2.5</ele>
        <time>2020-06-23T10:43:25Z</time>
      </trkpt>
      <trkpt lat="51.01461" lon="2.30876">
        <ele>2.5</ele>
        <time>2020-06-23T10:43:26Z</time>
      </trkpt>
      <trkpt lat="51.01461" lon="2.30881">
        <ele>2.6</ele>
        <time>2020-06-23T10:43:27Z</time>
      </trkpt>
      <trkpt lat="51.01464" lon="2.30889">
        <ele>2.6</ele>
        <time>2020-06-23T10:43:28Z</time>
      </trkpt>
      <trkpt lat="51.01466" lon="2.30897">
        <ele>2.7</ele>
        <time>2020-06-23T10:43:29Z</time>
      </trkpt>
      <trkpt lat="51.01469" lon="2.30906">
        <ele>2.7</ele>
        <time>2020-06-23T10:43:30Z</time>
      </trkpt>
      <trkpt lat="51.01471" lon="2.30914">
        <ele>2.8</ele>
        <time>2020-06-23T10:43:31Z</time>
      </trkpt>
      <trkpt lat="51.01473" lon="2.30921">
        <ele>2.8</ele>
        <time>2020-06-23T10:43:32Z</time>
      </trkpt>
      <trkpt lat="51.01475" lon="2.3093">
        <ele>2.8</ele>
        <time>2020-06-23T10:43:33Z</time>
      </trkpt>
      <trkpt lat="51.01477" lon="2.30939">
        <ele>2.9</ele>
        <time>2020-06-23T10:43:34Z</time>
      </trkpt>
      <trkpt lat="51.01478" lon="2.30945">
        <ele>2.9</ele>
        <time>2020-06-23T10:43:35Z</time>
      </trkpt>
      <trkpt lat="51.01479" lon="2.30953">
        <ele>2.9</ele>
        <time>2020-06-23T10:43:36Z</time>
      </trkpt>
      <trkpt lat="51.01479" lon="2.30958">
        <ele>3</ele>
        <time>2020-06-23T10:43:37Z</time>
      </trkpt>
      <trkpt lat="51.01479" lon="2.30965">
        <ele>3</ele>
        <time>2020-06-23T10:43:38Z</time>
      </trkpt>
      <trkpt lat="51.01481" lon="2.30974">
        <ele>3</ele>
        <time>2020-06-23T10:43:39Z</time>
      </trkpt>
      <trkpt lat="51.01482" lon="2.30982">
        <ele>3</ele>
        <time>2020-06-23T10:43:40Z</time>
      </trkpt>
      <trkpt lat="51.01484" lon="2.3099">
        <ele>2.9</ele>
        <time>2020-06-23T10:43:41Z</time>
      </trkpt>
      <trkpt lat="51.01486" lon="2.31">
        <ele>2.9</ele>
        <time>2020-06-23T10:43:42Z</time>
      </trkpt>
      <trkpt lat="51.01488" lon="2.31007">
        <ele>2.9</ele>
        <time>2020-06-23T10:43:43Z</time>
      </trkpt>
      <trkpt lat="51.01491" lon="2.31015">
        <ele>2.8</ele>
        <time>2020-06-23T10:43:44Z</time>
      </trkpt>
      <trkpt lat="51.01493" lon="2.31024">
        <ele>2.8</ele>
        <time>2020-06-23T10:43:45Z</time>
      </trkpt>
      <trkpt lat="51.01496" lon="2.31034">
        <ele>2.7</ele>
        <time>2020-06-23T10:43:46Z</time>
      </trkpt>
      <trkpt lat="51.01498" lon="2.31043">
        <ele>2.7</ele>
        <time>2020-06-23T10:43:47Z</time>
      </trkpt>
      <trkpt lat="51.015" lon="2.31052">
        <ele>2.6</ele>
        <time>2020-06-23T10:43:48Z</time>
      </trkpt>
      <trkpt lat="51.01502" lon="2.31061">
        <ele>2.6</ele>
        <time>2020-06-23T10:43:49Z</time>
      </trkpt>
      <trkpt lat="51.01505" lon="2.3107">
        <ele>2.5</ele>
        <time>2020-06-23T10:43:50Z</time>
      </trkpt>
      <trkpt lat="51.01507" lon="2.31079">
        <ele>2.5</ele>
        <time>2020-06-23T10:43:51Z</time>
      </trkpt>
      <trkpt lat="51.01509" lon="2.31086">
        <ele>2.5</ele>
        <time>2020-06-23T10:43:52Z</time>
      </trkpt>
      <trkpt lat="51.0151" lon="2.31093">
        <ele>2.5</ele>
        <time>2020-06-23T10:43:53Z</time>
      </trkpt>
      <trkpt lat="51.01512" lon="2.31102">
        <ele>2.4</ele>
        <time>2020-06-23T10:43:54Z</time>
      </trkpt>
      <trkpt lat="51.01514" lon="2.3111">
        <ele>2.4</ele>
        <time>2020-06-23T10:43:55Z</time>
      </trkpt>
      <trkpt lat="51.01516" lon="2.31118">
        <ele>2.4</ele>
        <time>2020-06-23T10:43:56Z</time>
      </trkpt>
      <trkpt lat="51.0152" lon="2.31128">
        <ele>2.4</ele>
        <time>2020-06-23T10:43:57Z</time>
      </trkpt>
      <trkpt lat="51.01522" lon="2.31137">
        <ele>2.5</ele>
        <time>2020-06-23T10:43:58Z</time>
      </trkpt>
      <trkpt lat="51.01524" lon="2.31144">
        <ele>2.5</ele>
        <time>2020-06-23T10:43:59Z</time>
      </trkpt>
      <trkpt lat="51.01525" lon="2.31151">
        <ele>2.5</ele>
        <time>2020-06-23T10:44:00Z</time>
      </trkpt>
      <trkpt lat="51.01527" lon="2.31159">
        <ele>2.5</ele>
        <time>2020-06-23T10:44:01Z</time>
      </trkpt>
      <trkpt lat="51.01529" lon="2.31167">
        <ele>2.5</ele>
        <time>2020-06-23T10:44:02Z</time>
      </trkpt>
      <trkpt lat="51.0153" lon="2.31176">
        <ele>2.5</ele>
        <time>2020-06-23T10:44:03Z</time>
      </trkpt>
      <trkpt lat="51.01532" lon="2.31184">
        <ele>2.5</ele>
        <time>2020-06-23T10:44:04Z</time>
      </trkpt>
      <trkpt lat="51.01534" lon="2.31193">
        <ele>2.6</ele>
        <time>2020-06-23T10:44:05Z</time>
      </trkpt>
      <trkpt lat="51.01536" lon="2.31202">
        <ele>2.6</ele>
        <time>2020-06-23T10:44:06Z</time>
      </trkpt>
      <trkpt lat="51.01538" lon="2.3121">
        <ele>2.6</ele>
        <time>2020-06-23T10:44:07Z</time>
      </trkpt>
      <trkpt lat="51.0154" lon="2.31216">
        <ele>2.6</ele>
        <time>2020-06-23T10:44:08Z</time>
      </trkpt>
      <trkpt lat="51.01542" lon="2.31223">
        <ele>2.6</ele>
        <time>2020-06-23T10:44:09Z</time>
      </trkpt>
      <trkpt lat="51.01544" lon="2.3123">
        <ele>2.6</ele>
        <time>2020-06-23T10:44:10Z</time>
      </trkpt>
      <trkpt lat="51.01545" lon="2.31239">
        <ele>2.6</ele>
        <time>2020-06-23T10:44:11Z</time>
      </trkpt>
      <trkpt lat="51.01547" lon="2.31248">
        <ele>2.6</ele>
        <time>2020-06-23T10:44:12Z</time>
      </trkpt>
      <trkpt lat="51.01549" lon="2.31259">
        <ele>2.6</ele>
        <time>2020-06-23T10:44:13Z</time>
      </trkpt>
      <trkpt lat="51.01552" lon="2.31268">
        <ele>2.5</ele>
        <time>2020-06-23T10:44:14Z</time>
      </trkpt>
      <trkpt lat="51.01556" lon="2.31277">
        <ele>2.5</ele>
        <time>2020-06-23T10:44:15Z</time>
      </trkpt>
      <trkpt lat="51.01558" lon="2.31285">
        <ele>2.5</ele>
        <time>2020-06-23T10:44:16Z</time>
      </trkpt>
      <trkpt lat="51.01561" lon="2.31296">
        <ele>2.4</ele>
        <time>2020-06-23T10:44:17Z</time>
      </trkpt>
      <trkpt lat="51.01563" lon="2.31305">
        <ele>2.4</ele>
        <time>2020-06-23T10:44:18Z</time>
      </trkpt>
      <trkpt lat="51.01566" lon="2.31313">
        <ele>2.4</ele>
        <time>2020-06-23T10:44:19Z</time>
      </trkpt>
      <trkpt lat="51.01568" lon="2.31321">
        <ele>2.4</ele>
        <time>2020-06-23T10:44:20Z</time>
      </trkpt>
      <trkpt lat="51.0157" lon="2.31329">
        <ele>2.4</ele>
        <time>2020-06-23T10:44:21Z</time>
      </trkpt>
      <trkpt lat="51.01572" lon="2.31339">
        <ele>2.4</ele>
        <time>2020-06-23T10:44:22Z</time>
      </trkpt>
      <trkpt lat="51.01574" lon="2.31348">
        <ele>2.4</ele>
        <time>2020-06-23T10:44:23Z</time>
      </trkpt>
      <trkpt lat="51.01576" lon="2.31356">
        <ele>2.4</ele>
        <time>2020-06-23T10:44:24Z</time>
      </trkpt>
      <trkpt lat="51.01578" lon="2.31364">
        <ele>2.4</ele>
        <time>2020-06-23T10:44:25Z</time>
      </trkpt>
      <trkpt lat="51.0158" lon="2.31371">
        <ele>2.4</ele>
        <time>2020-06-23T10:44:26Z</time>
      </trkpt>
      <trkpt lat="51.01581" lon="2.31379">
        <ele>2.4</ele>
        <time>2020-06-23T10:44:27Z</time>
      </trkpt>
      <trkpt lat="51.01581" lon="2.31386">
        <ele>2.4</ele>
        <time>2020-06-23T10:44:28Z</time>
      </trkpt>
      <trkpt lat="51.01584" lon="2.31396">
        <ele>2.5</ele>
        <time>2020-06-23T10:44:29Z</time>
      </trkpt>
      <trkpt lat="51.01587" lon="2.31405">
        <ele>2.5</ele>
        <time>2020-06-23T10:44:30Z</time>
      </trkpt>
      <trkpt lat="51.01589" lon="2.31413">
        <ele>2.5</ele>
        <time>2020-06-23T10:44:31Z</time>
      </trkpt>
      <trkpt lat="51.01591" lon="2.3142">
        <ele>2.5</ele>
        <time>2020-06-23T10:44:32Z</time>
      </trkpt>
      <trkpt lat="51.01593" lon="2.31426">
        <ele>2.6</ele>
        <time>2020-06-23T10:44:33Z</time>
      </trkpt>
      <trkpt lat="51.01594" lon="2.31433">
        <ele>2.6</ele>
        <time>2020-06-23T10:44:34Z</time>
      </trkpt>
      <trkpt lat="51.01595" lon="2.3144">
        <ele>2.6</ele>
        <time>2020-06-23T10:44:35Z</time>
      </trkpt>
      <trkpt lat="51.01597" lon="2.31447">
        <ele>2.6</ele>
        <time>2020-06-23T10:44:36Z</time>
      </trkpt>
      <trkpt lat="51.01598" lon="2.31454">
        <ele>2.6</ele>
        <time>2020-06-23T10:44:37Z</time>
      </trkpt>
      <trkpt lat="51.01596" lon="2.31459">
        <ele>2.6</ele>
        <time>2020-06-23T10:44:38Z</time>
      </trkpt>
      <trkpt lat="51.01596" lon="2.31462">
        <ele>2.7</ele>
        <time>2020-06-23T10:44:39Z</time>
      </trkpt>
      <trkpt lat="51.01593" lon="2.31468">
        <ele>2.8</ele>
        <time>2020-06-23T10:44:40Z</time>
      </trkpt>
      <trkpt lat="51.01591" lon="2.31473">
        <ele>2.8</ele>
        <time>2020-06-23T10:44:41Z</time>
      </trkpt>
      <trkpt lat="51.01587" lon="2.31476">
        <ele>2.9</ele>
        <time>2020-06-23T10:44:42Z</time>
      </trkpt>
      <trkpt lat="51.01584" lon="2.3148">
        <ele>2.9</ele>
        <time>2020-06-23T10:44:43Z</time>
      </trkpt>
      <trkpt lat="51.01581" lon="2.31488">
        <ele>2.8</ele>
        <time>2020-06-23T10:44:44Z</time>
      </trkpt>
      <trkpt lat="51.01579" lon="2.31496">
        <ele>2.7</ele>
        <time>2020-06-23T10:44:45Z</time>
      </trkpt>
      <trkpt lat="51.01579" lon="2.31505">
        <ele>2.5</ele>
        <time>2020-06-23T10:44:46Z</time>
      </trkpt>
      <trkpt lat="51.0158" lon="2.31513">
        <ele>2.5</ele>
        <time>2020-06-23T10:44:47Z</time>
      </trkpt>
      <trkpt lat="51.01583" lon="2.31522">
        <ele>2.4</ele>
        <time>2020-06-23T10:44:48Z</time>
      </trkpt>
      <trkpt lat="51.01587" lon="2.31529">
        <ele>2.3</ele>
        <time>2020-06-23T10:44:49Z</time>
      </trkpt>
      <trkpt lat="51.01591" lon="2.31534">
        <ele>2.3</ele>
        <time>2020-06-23T10:44:50Z</time>
      </trkpt>
      <trkpt lat="51.01596" lon="2.31536">
        <ele>2.3</ele>
        <time>2020-06-23T10:44:51Z</time>
      </trkpt>
      <trkpt lat="51.01601" lon="2.31538">
        <ele>2.3</ele>
        <time>2020-06-23T10:44:52Z</time>
      </trkpt>
      <trkpt lat="51.01605" lon="2.31536">
        <ele>2.3</ele>
        <time>2020-06-23T10:44:53Z</time>
      </trkpt>
      <trkpt lat="51.0161" lon="2.31535">
        <ele>2.4</ele>
        <time>2020-06-23T10:44:54Z</time>
      </trkpt>
      <trkpt lat="51.01616" lon="2.31537">
        <ele>2.5</ele>
        <time>2020-06-23T10:44:55Z</time>
      </trkpt>
      <trkpt lat="51.01621" lon="2.31541">
        <ele>2.5</ele>
        <time>2020-06-23T10:44:56Z</time>
      </trkpt>
      <trkpt lat="51.01625" lon="2.31549">
        <ele>2.4</ele>
        <time>2020-06-23T10:44:57Z</time>
      </trkpt>
      <trkpt lat="51.01628" lon="2.31557">
        <ele>2.4</ele>
        <time>2020-06-23T10:44:58Z</time>
      </trkpt>
      <trkpt lat="51.01632" lon="2.31566">
        <ele>2.4</ele>
        <time>2020-06-23T10:44:59Z</time>
      </trkpt>
      <trkpt lat="51.01635" lon="2.31574">
        <ele>2.4</ele>
        <time>2020-06-23T10:45:00Z</time>
      </trkpt>
      <trkpt lat="51.01636" lon="2.31579">
        <ele>2.4</ele>
        <time>2020-06-23T10:45:01Z</time>
      </trkpt>
      <trkpt lat="51.01639" lon="2.31587">
        <ele>2.3</ele>
        <time>2020-06-23T10:45:02Z</time>
      </trkpt>
      <trkpt lat="51.01641" lon="2.31594">
        <ele>2.3</ele>
        <time>2020-06-23T10:45:03Z</time>
      </trkpt>
      <trkpt lat="51.01643" lon="2.31602">
        <ele>2.3</ele>
        <time>2020-06-23T10:45:04Z</time>
      </trkpt>
      <trkpt lat="51.01644" lon="2.3161">
        <ele>2.3</ele>
        <time>2020-06-23T10:45:05Z</time>
      </trkpt>
      <trkpt lat="51.01646" lon="2.31618">
        <ele>2.3</ele>
        <time>2020-06-23T10:45:06Z</time>
      </trkpt>
      <trkpt lat="51.01647" lon="2.31625">
        <ele>2.3</ele>
        <time>2020-06-23T10:45:07Z</time>
      </trkpt>
      <trkpt lat="51.01648" lon="2.3163">
        <ele>2.4</ele>
        <time>2020-06-23T10:45:08Z</time>
      </trkpt>
      <trkpt lat="51.0165" lon="2.31637">
        <ele>2.4</ele>
        <time>2020-06-23T10:45:09Z</time>
      </trkpt>
      <trkpt lat="51.01651" lon="2.31644">
        <ele>2.4</ele>
        <time>2020-06-23T10:45:10Z</time>
      </trkpt>
      <trkpt lat="51.01653" lon="2.31651">
        <ele>2.4</ele>
        <time>2020-06-23T10:45:11Z</time>
      </trkpt>
      <trkpt lat="51.01654" lon="2.31657">
        <ele>2.4</ele>
        <time>2020-06-23T10:45:12Z</time>
      </trkpt>
      <trkpt lat="51.01656" lon="2.31664">
        <ele>2.4</ele>
        <time>2020-06-23T10:45:13Z</time>
      </trkpt>
      <trkpt lat="51.01657" lon="2.31671">
        <ele>2.4</ele>
        <time>2020-06-23T10:45:14Z</time>
      </trkpt>
      <trkpt lat="51.01658" lon="2.31678">
        <ele>2.4</ele>
        <time>2020-06-23T10:45:15Z</time>
      </trkpt>
      <trkpt lat="51.01661" lon="2.31687">
        <ele>2.4</ele>
        <time>2020-06-23T10:45:16Z</time>
      </trkpt>
      <trkpt lat="51.01662" lon="2.31695">
        <ele>2.4</ele>
        <time>2020-06-23T10:45:17Z</time>
      </trkpt>
      <trkpt lat="51.01664" lon="2.31703">
        <ele>2.4</ele>
        <time>2020-06-23T10:45:18Z</time>
      </trkpt>
      <trkpt lat="51.01665" lon="2.3171">
        <ele>2.4</ele>
        <time>2020-06-23T10:45:19Z</time>
      </trkpt>
      <trkpt lat="51.01666" lon="2.31719">
        <ele>2.4</ele>
        <time>2020-06-23T10:45:20Z</time>
      </trkpt>
      <trkpt lat="51.01668" lon="2.31728">
        <ele>2.4</ele>
        <time>2020-06-23T10:45:21Z</time>
      </trkpt>
      <trkpt lat="51.0167" lon="2.31734">
        <ele>2.4</ele>
        <time>2020-06-23T10:45:22Z</time>
      </trkpt>
      <trkpt lat="51.01672" lon="2.31743">
        <ele>2.3</ele>
        <time>2020-06-23T10:45:23Z</time>
      </trkpt>
      <trkpt lat="51.01674" lon="2.31749">
        <ele>2.3</ele>
        <time>2020-06-23T10:45:24Z</time>
      </trkpt>
      <trkpt lat="51.01675" lon="2.31757">
        <ele>2.2</ele>
        <time>2020-06-23T10:45:25Z</time>
      </trkpt>
      <trkpt lat="51.01678" lon="2.31765">
        <ele>2.2</ele>
        <time>2020-06-23T10:45:26Z</time>
      </trkpt>
      <trkpt lat="51.0168" lon="2.31773">
        <ele>2.2</ele>
        <time>2020-06-23T10:45:27Z</time>
      </trkpt>
      <trkpt lat="51.01682" lon="2.31781">
        <ele>2.2</ele>
        <time>2020-06-23T10:45:28Z</time>
      </trkpt>
      <trkpt lat="51.01683" lon="2.31789">
        <ele>2.2</ele>
        <time>2020-06-23T10:45:29Z</time>
      </trkpt>
      <trkpt lat="51.01686" lon="2.31797">
        <ele>2.2</ele>
        <time>2020-06-23T10:45:30Z</time>
      </trkpt>
      <trkpt lat="51.01688" lon="2.31806">
        <ele>2.2</ele>
        <time>2020-06-23T10:45:31Z</time>
      </trkpt>
      <trkpt lat="51.01691" lon="2.31815">
        <ele>2.2</ele>
        <time>2020-06-23T10:45:32Z</time>
      </trkpt>
      <trkpt lat="51.01693" lon="2.31824">
        <ele>2.2</ele>
        <time>2020-06-23T10:45:33Z</time>
      </trkpt>
      <trkpt lat="51.01695" lon="2.31833">
        <ele>2.3</ele>
        <time>2020-06-23T10:45:34Z</time>
      </trkpt>
      <trkpt lat="51.01698" lon="2.31843">
        <ele>2.3</ele>
        <time>2020-06-23T10:45:35Z</time>
      </trkpt>
      <trkpt lat="51.01699" lon="2.31851">
        <ele>2.3</ele>
        <time>2020-06-23T10:45:36Z</time>
      </trkpt>
      <trkpt lat="51.01702" lon="2.3186">
        <ele>2.3</ele>
        <time>2020-06-23T10:45:37Z</time>
      </trkpt>
      <trkpt lat="51.01704" lon="2.31868">
        <ele>2.3</ele>
        <time>2020-06-23T10:45:38Z</time>
      </trkpt>
      <trkpt lat="51.01706" lon="2.31877">
        <ele>2.3</ele>
        <time>2020-06-23T10:45:39Z</time>
      </trkpt>
      <trkpt lat="51.01709" lon="2.31887">
        <ele>2.3</ele>
        <time>2020-06-23T10:45:40Z</time>
      </trkpt>
      <trkpt lat="51.0171" lon="2.31896">
        <ele>2.4</ele>
        <time>2020-06-23T10:45:41Z</time>
      </trkpt>
      <trkpt lat="51.01712" lon="2.31904">
        <ele>2.5</ele>
        <time>2020-06-23T10:45:42Z</time>
      </trkpt>
      <trkpt lat="51.01714" lon="2.31914">
        <ele>2.5</ele>
        <time>2020-06-23T10:45:43Z</time>
      </trkpt>
      <trkpt lat="51.01716" lon="2.31923">
        <ele>2.6</ele>
        <time>2020-06-23T10:45:44Z</time>
      </trkpt>
      <trkpt lat="51.01717" lon="2.31933">
        <ele>2.6</ele>
        <time>2020-06-23T10:45:45Z</time>
      </trkpt>
      <trkpt lat="51.01718" lon="2.31942">
        <ele>2.6</ele>
        <time>2020-06-23T10:45:46Z</time>
      </trkpt>
      <trkpt lat="51.01719" lon="2.31952">
        <ele>2.6</ele>
        <time>2020-06-23T10:45:47Z</time>
      </trkpt>
      <trkpt lat="51.01719" lon="2.31962">
        <ele>2.7</ele>
        <time>2020-06-23T10:45:48Z</time>
      </trkpt>
      <trkpt lat="51.01719" lon="2.31971">
        <ele>2.7</ele>
        <time>2020-06-23T10:45:49Z</time>
      </trkpt>
      <trkpt lat="51.01721" lon="2.31978">
        <ele>2.7</ele>
        <time>2020-06-23T10:45:50Z</time>
      </trkpt>
      <trkpt lat="51.01722" lon="2.31987">
        <ele>2.8</ele>
        <time>2020-06-23T10:45:51Z</time>
      </trkpt>
      <trkpt lat="51.01724" lon="2.31997">
        <ele>2.9</ele>
        <time>2020-06-23T10:45:52Z</time>
      </trkpt>
      <trkpt lat="51.01725" lon="2.32007">
        <ele>2.9</ele>
        <time>2020-06-23T10:45:53Z</time>
      </trkpt>
      <trkpt lat="51.01726" lon="2.32014">
        <ele>3</ele>
        <time>2020-06-23T10:45:54Z</time>
      </trkpt>
      <trkpt lat="51.01727" lon="2.32019">
        <ele>3.1</ele>
        <time>2020-06-23T10:45:55Z</time>
      </trkpt>
      <trkpt lat="51.01728" lon="2.32026">
        <ele>3.1</ele>
        <time>2020-06-23T10:45:56Z</time>
      </trkpt>
      <trkpt lat="51.01728" lon="2.32033">
        <ele>3.2</ele>
        <time>2020-06-23T10:45:57Z</time>
      </trkpt>
      <trkpt lat="51.01729" lon="2.32038">
        <ele>3.2</ele>
        <time>2020-06-23T10:45:58Z</time>
      </trkpt>
      <trkpt lat="51.0173" lon="2.32042">
        <ele>3.2</ele>
        <time>2020-06-23T10:45:59Z</time>
      </trkpt>
      <trkpt lat="51.01731" lon="2.32046">
        <ele>3.2</ele>
        <time>2020-06-23T10:46:00Z</time>
      </trkpt>
      <trkpt lat="51.01731" lon="2.32047">
        <ele>3.2</ele>
        <time>2020-06-23T10:46:01Z</time>
      </trkpt>
      <trkpt lat="51.01731" lon="2.32047">
        <ele>3.2</ele>
        <time>2020-06-23T10:46:02Z</time>
      </trkpt>
      <trkpt lat="51.01731" lon="2.32048">
        <ele>3.2</ele>
        <time>2020-06-23T10:46:03Z</time>
      </trkpt>
      <trkpt lat="51.01731" lon="2.32048">
        <ele>3.2</ele>
        <time>2020-06-23T10:46:04Z</time>
      </trkpt>
      <trkpt lat="51.01729" lon="2.32053">
        <ele>3.2</ele>
        <time>2020-06-23T10:46:05Z</time>
      </trkpt>
      <trkpt lat="51.01729" lon="2.32054">
        <ele>3.2</ele>
        <time>2020-06-23T10:46:06Z</time>
      </trkpt>
      <trkpt lat="51.01727" lon="2.32059">
        <ele>3.2</ele>
        <time>2020-06-23T10:46:07Z</time>
      </trkpt>
      <trkpt lat="51.01725" lon="2.32065">
        <ele>3.1</ele>
        <time>2020-06-23T10:46:08Z</time>
      </trkpt>
      <trkpt lat="51.01725" lon="2.32068">
        <ele>3.1</ele>
        <time>2020-06-23T10:46:09Z</time>
      </trkpt>
      <trkpt lat="51.01724" lon="2.32075">
        <ele>3.1</ele>
        <time>2020-06-23T10:46:10Z</time>
      </trkpt>
      <trkpt lat="51.01723" lon="2.32084">
        <ele>3.1</ele>
        <time>2020-06-23T10:46:11Z</time>
      </trkpt>
      <trkpt lat="51.01723" lon="2.32091">
        <ele>3.1</ele>
        <time>2020-06-23T10:46:12Z</time>
      </trkpt>
      <trkpt lat="51.01723" lon="2.32098">
        <ele>3</ele>
        <time>2020-06-23T10:46:13Z</time>
      </trkpt>
      <trkpt lat="51.01724" lon="2.32106">
        <ele>3</ele>
        <time>2020-06-23T10:46:14Z</time>
      </trkpt>
      <trkpt lat="51.01726" lon="2.32112">
        <ele>3</ele>
        <time>2020-06-23T10:46:15Z</time>
      </trkpt>
      <trkpt lat="51.01727" lon="2.3212">
        <ele>3</ele>
        <time>2020-06-23T10:46:16Z</time>
      </trkpt>
      <trkpt lat="51.01729" lon="2.32126">
        <ele>3</ele>
        <time>2020-06-23T10:46:17Z</time>
      </trkpt>
      <trkpt lat="51.01732" lon="2.32131">
        <ele>3.1</ele>
        <time>2020-06-23T10:46:18Z</time>
      </trkpt>
      <trkpt lat="51.01736" lon="2.32136">
        <ele>3.1</ele>
        <time>2020-06-23T10:46:19Z</time>
      </trkpt>
      <trkpt lat="51.01741" lon="2.32137">
        <ele>3.1</ele>
        <time>2020-06-23T10:46:20Z</time>
      </trkpt>
      <trkpt lat="51.01747" lon="2.32139">
        <ele>3.3</ele>
        <time>2020-06-23T10:46:21Z</time>
      </trkpt>
      <trkpt lat="51.01752" lon="2.32141">
        <ele>3.4</ele>
        <time>2020-06-23T10:46:22Z</time>
      </trkpt>
      <trkpt lat="51.01757" lon="2.32143">
        <ele>3.7</ele>
        <time>2020-06-23T10:46:23Z</time>
      </trkpt>
      <trkpt lat="51.01762" lon="2.32146">
        <ele>3.5</ele>
        <time>2020-06-23T10:46:24Z</time>
      </trkpt>
      <trkpt lat="51.01765" lon="2.32151">
        <ele>3.3</ele>
        <time>2020-06-23T10:46:25Z</time>
      </trkpt>
      <trkpt lat="51.01768" lon="2.32158">
        <ele>3.1</ele>
        <time>2020-06-23T10:46:26Z</time>
      </trkpt>
      <trkpt lat="51.0177" lon="2.32166">
        <ele>2.9</ele>
        <time>2020-06-23T10:46:27Z</time>
      </trkpt>
      <trkpt lat="51.01773" lon="2.32174">
        <ele>2.7</ele>
        <time>2020-06-23T10:46:28Z</time>
      </trkpt>
      <trkpt lat="51.01775" lon="2.3218">
        <ele>2.4</ele>
        <time>2020-06-23T10:46:29Z</time>
      </trkpt>
      <trkpt lat="51.01778" lon="2.32186">
        <ele>2.2</ele>
        <time>2020-06-23T10:46:30Z</time>
      </trkpt>
      <trkpt lat="51.01781" lon="2.32193">
        <ele>2.3</ele>
        <time>2020-06-23T10:46:31Z</time>
      </trkpt>
      <trkpt lat="51.01783" lon="2.32198">
        <ele>2.4</ele>
        <time>2020-06-23T10:46:32Z</time>
      </trkpt>
      <trkpt lat="51.01785" lon="2.32203">
        <ele>2.5</ele>
        <time>2020-06-23T10:46:33Z</time>
      </trkpt>
      <trkpt lat="51.01787" lon="2.32208">
        <ele>2.5</ele>
        <time>2020-06-23T10:46:34Z</time>
      </trkpt>
      <trkpt lat="51.01789" lon="2.32213">
        <ele>2.6</ele>
        <time>2020-06-23T10:46:35Z</time>
      </trkpt>
      <trkpt lat="51.01791" lon="2.3222">
        <ele>2.6</ele>
        <time>2020-06-23T10:46:36Z</time>
      </trkpt>
      <trkpt lat="51.01793" lon="2.32226">
        <ele>2.6</ele>
        <time>2020-06-23T10:46:37Z</time>
      </trkpt>
      <trkpt lat="51.01795" lon="2.32233">
        <ele>2.7</ele>
        <time>2020-06-23T10:46:38Z</time>
      </trkpt>
      <trkpt lat="51.01796" lon="2.32238">
        <ele>2.7</ele>
        <time>2020-06-23T10:46:39Z</time>
      </trkpt>
      <trkpt lat="51.01799" lon="2.32244">
        <ele>2.8</ele>
        <time>2020-06-23T10:46:40Z</time>
      </trkpt>
      <trkpt lat="51.01801" lon="2.3225">
        <ele>2.8</ele>
        <time>2020-06-23T10:46:41Z</time>
      </trkpt>
      <trkpt lat="51.01803" lon="2.32256">
        <ele>2.9</ele>
        <time>2020-06-23T10:46:42Z</time>
      </trkpt>
      <trkpt lat="51.01804" lon="2.32262">
        <ele>3</ele>
        <time>2020-06-23T10:46:43Z</time>
      </trkpt>
      <trkpt lat="51.01805" lon="2.3227">
        <ele>3</ele>
        <time>2020-06-23T10:46:44Z</time>
      </trkpt>
      <trkpt lat="51.01807" lon="2.32276">
        <ele>3.1</ele>
        <time>2020-06-23T10:46:45Z</time>
      </trkpt>
      <trkpt lat="51.01808" lon="2.32282">
        <ele>3.2</ele>
        <time>2020-06-23T10:46:46Z</time>
      </trkpt>
      <trkpt lat="51.01809" lon="2.32286">
        <ele>3.2</ele>
        <time>2020-06-23T10:46:47Z</time>
      </trkpt>
      <trkpt lat="51.01811" lon="2.32293">
        <ele>3.3</ele>
        <time>2020-06-23T10:46:48Z</time>
      </trkpt>
      <trkpt lat="51.01812" lon="2.32296">
        <ele>3.3</ele>
        <time>2020-06-23T10:46:49Z</time>
      </trkpt>
      <trkpt lat="51.01813" lon="2.32301">
        <ele>3.4</ele>
        <time>2020-06-23T10:46:50Z</time>
      </trkpt>
      <trkpt lat="51.01813" lon="2.32302">
        <ele>3.4</ele>
        <time>2020-06-23T10:46:51Z</time>
      </trkpt>
      <trkpt lat="51.01813" lon="2.32308">
        <ele>3.4</ele>
        <time>2020-06-23T10:46:52Z</time>
      </trkpt>
      <trkpt lat="51.01814" lon="2.32313">
        <ele>3.4</ele>
        <time>2020-06-23T10:46:53Z</time>
      </trkpt>
      <trkpt lat="51.01816" lon="2.32319">
        <ele>3.3</ele>
        <time>2020-06-23T10:46:54Z</time>
      </trkpt>
      <trkpt lat="51.01817" lon="2.32325">
        <ele>3.3</ele>
        <time>2020-06-23T10:46:55Z</time>
      </trkpt>
      <trkpt lat="51.01819" lon="2.32331">
        <ele>3.2</ele>
        <time>2020-06-23T10:46:56Z</time>
      </trkpt>
      <trkpt lat="51.01821" lon="2.32338">
        <ele>3.2</ele>
        <time>2020-06-23T10:46:57Z</time>
      </trkpt>
      <trkpt lat="51.01825" lon="2.32347">
        <ele>3.2</ele>
        <time>2020-06-23T10:46:58Z</time>
      </trkpt>
      <trkpt lat="51.01827" lon="2.32353">
        <ele>3.1</ele>
        <time>2020-06-23T10:46:59Z</time>
      </trkpt>
      <trkpt lat="51.01829" lon="2.32359">
        <ele>3.1</ele>
        <time>2020-06-23T10:47:00Z</time>
      </trkpt>
      <trkpt lat="51.01831" lon="2.32368">
        <ele>3.1</ele>
        <time>2020-06-23T10:47:01Z</time>
      </trkpt>
      <trkpt lat="51.01833" lon="2.32376">
        <ele>3</ele>
        <time>2020-06-23T10:47:02Z</time>
      </trkpt>
      <trkpt lat="51.01835" lon="2.32384">
        <ele>3</ele>
        <time>2020-06-23T10:47:03Z</time>
      </trkpt>
      <trkpt lat="51.01837" lon="2.32391">
        <ele>2.9</ele>
        <time>2020-06-23T10:47:04Z</time>
      </trkpt>
      <trkpt lat="51.01839" lon="2.32398">
        <ele>2.9</ele>
        <time>2020-06-23T10:47:05Z</time>
      </trkpt>
      <trkpt lat="51.01841" lon="2.32405">
        <ele>2.9</ele>
        <time>2020-06-23T10:47:06Z</time>
      </trkpt>
      <trkpt lat="51.01842" lon="2.32409">
        <ele>2.9</ele>
        <time>2020-06-23T10:47:07Z</time>
      </trkpt>
      <trkpt lat="51.01843" lon="2.32415">
        <ele>2.8</ele>
        <time>2020-06-23T10:47:08Z</time>
      </trkpt>
      <trkpt lat="51.01845" lon="2.32424">
        <ele>2.8</ele>
        <time>2020-06-23T10:47:09Z</time>
      </trkpt>
      <trkpt lat="51.01847" lon="2.32434">
        <ele>2.8</ele>
        <time>2020-06-23T10:47:10Z</time>
      </trkpt>
      <trkpt lat="51.0185" lon="2.32444">
        <ele>2.8</ele>
        <time>2020-06-23T10:47:11Z</time>
      </trkpt>
      <trkpt lat="51.01852" lon="2.32454">
        <ele>2.7</ele>
        <time>2020-06-23T10:47:12Z</time>
      </trkpt>
      <trkpt lat="51.01853" lon="2.32462">
        <ele>2.7</ele>
        <time>2020-06-23T10:47:13Z</time>
      </trkpt>
      <trkpt lat="51.01853" lon="2.32468">
        <ele>2.7</ele>
        <time>2020-06-23T10:47:14Z</time>
      </trkpt>
      <trkpt lat="51.01854" lon="2.32477">
        <ele>2.8</ele>
        <time>2020-06-23T10:47:15Z</time>
      </trkpt>
      <trkpt lat="51.01857" lon="2.32486">
        <ele>2.8</ele>
        <time>2020-06-23T10:47:16Z</time>
      </trkpt>
      <trkpt lat="51.01859" lon="2.32495">
        <ele>2.8</ele>
        <time>2020-06-23T10:47:17Z</time>
      </trkpt>
      <trkpt lat="51.01862" lon="2.32505">
        <ele>2.8</ele>
        <time>2020-06-23T10:47:18Z</time>
      </trkpt>
      <trkpt lat="51.01866" lon="2.32516">
        <ele>2.8</ele>
        <time>2020-06-23T10:47:19Z</time>
      </trkpt>
      <trkpt lat="51.01868" lon="2.32523">
        <ele>2.8</ele>
        <time>2020-06-23T10:47:20Z</time>
      </trkpt>
      <trkpt lat="51.01871" lon="2.32531">
        <ele>2.8</ele>
        <time>2020-06-23T10:47:21Z</time>
      </trkpt>
      <trkpt lat="51.01872" lon="2.32539">
        <ele>2.8</ele>
        <time>2020-06-23T10:47:22Z</time>
      </trkpt>
      <trkpt lat="51.01873" lon="2.32544">
        <ele>2.8</ele>
        <time>2020-06-23T10:47:23Z</time>
      </trkpt>
      <trkpt lat="51.01873" lon="2.32549">
        <ele>2.8</ele>
        <time>2020-06-23T10:47:24Z</time>
      </trkpt>
      <trkpt lat="51.01875" lon="2.32557">
        <ele>2.8</ele>
        <time>2020-06-23T10:47:25Z</time>
      </trkpt>
      <trkpt lat="51.01877" lon="2.32566">
        <ele>2.8</ele>
        <time>2020-06-23T10:47:26Z</time>
      </trkpt>
      <trkpt lat="51.01879" lon="2.32574">
        <ele>2.8</ele>
        <time>2020-06-23T10:47:27Z</time>
      </trkpt>
      <trkpt lat="51.01881" lon="2.32583">
        <ele>2.9</ele>
        <time>2020-06-23T10:47:28Z</time>
      </trkpt>
      <trkpt lat="51.01884" lon="2.32592">
        <ele>3</ele>
        <time>2020-06-23T10:47:29Z</time>
      </trkpt>
      <trkpt lat="51.01885" lon="2.326">
        <ele>3</ele>
        <time>2020-06-23T10:47:30Z</time>
      </trkpt>
      <trkpt lat="51.01888" lon="2.32608">
        <ele>3.1</ele>
        <time>2020-06-23T10:47:31Z</time>
      </trkpt>
      <trkpt lat="51.01891" lon="2.32618">
        <ele>3.2</ele>
        <time>2020-06-23T10:47:32Z</time>
      </trkpt>
      <trkpt lat="51.01894" lon="2.32627">
        <ele>3.3</ele>
        <time>2020-06-23T10:47:33Z</time>
      </trkpt>
      <trkpt lat="51.01897" lon="2.32636">
        <ele>3.4</ele>
        <time>2020-06-23T10:47:34Z</time>
      </trkpt>
      <trkpt lat="51.01899" lon="2.32646">
        <ele>3.5</ele>
        <time>2020-06-23T10:47:35Z</time>
      </trkpt>
      <trkpt lat="51.01901" lon="2.32653">
        <ele>3.6</ele>
        <time>2020-06-23T10:47:36Z</time>
      </trkpt>
      <trkpt lat="51.01903" lon="2.3266">
        <ele>3.6</ele>
        <time>2020-06-23T10:47:37Z</time>
      </trkpt>
      <trkpt lat="51.01905" lon="2.32665">
        <ele>3.7</ele>
        <time>2020-06-23T10:47:38Z</time>
      </trkpt>
      <trkpt lat="51.01907" lon="2.32675">
        <ele>3.8</ele>
        <time>2020-06-23T10:47:39Z</time>
      </trkpt>
      <trkpt lat="51.01909" lon="2.3268">
        <ele>3.8</ele>
        <time>2020-06-23T10:47:40Z</time>
      </trkpt>
      <trkpt lat="51.0191" lon="2.32687">
        <ele>3.8</ele>
        <time>2020-06-23T10:47:41Z</time>
      </trkpt>
      <trkpt lat="51.01912" lon="2.32693">
        <ele>3.8</ele>
        <time>2020-06-23T10:47:42Z</time>
      </trkpt>
      <trkpt lat="51.01912" lon="2.32703">
        <ele>3.8</ele>
        <time>2020-06-23T10:47:43Z</time>
      </trkpt>
      <trkpt lat="51.01913" lon="2.32711">
        <ele>3.8</ele>
        <time>2020-06-23T10:47:44Z</time>
      </trkpt>
      <trkpt lat="51.01914" lon="2.32718">
        <ele>3.8</ele>
        <time>2020-06-23T10:47:45Z</time>
      </trkpt>
      <trkpt lat="51.01916" lon="2.32727">
        <ele>3.7</ele>
        <time>2020-06-23T10:47:46Z</time>
      </trkpt>
      <trkpt lat="51.01917" lon="2.32733">
        <ele>3.7</ele>
        <time>2020-06-23T10:47:47Z</time>
      </trkpt>
      <trkpt lat="51.0192" lon="2.3274">
        <ele>3.7</ele>
        <time>2020-06-23T10:47:48Z</time>
      </trkpt>
      <trkpt lat="51.01923" lon="2.32745">
        <ele>3.6</ele>
        <time>2020-06-23T10:47:49Z</time>
      </trkpt>
      <trkpt lat="51.01925" lon="2.32754">
        <ele>3.6</ele>
        <time>2020-06-23T10:47:50Z</time>
      </trkpt>
      <trkpt lat="51.01928" lon="2.32763">
        <ele>3.6</ele>
        <time>2020-06-23T10:47:51Z</time>
      </trkpt>
      <trkpt lat="51.0193" lon="2.32772">
        <ele>3.5</ele>
        <time>2020-06-23T10:47:52Z</time>
      </trkpt>
      <trkpt lat="51.01931" lon="2.3278">
        <ele>3.5</ele>
        <time>2020-06-23T10:47:53Z</time>
      </trkpt>
      <trkpt lat="51.01934" lon="2.32788">
        <ele>3.5</ele>
        <time>2020-06-23T10:47:54Z</time>
      </trkpt>
      <trkpt lat="51.01935" lon="2.32795">
        <ele>3.5</ele>
        <time>2020-06-23T10:47:55Z</time>
      </trkpt>
      <trkpt lat="51.01938" lon="2.32804">
        <ele>3.5</ele>
        <time>2020-06-23T10:47:56Z</time>
      </trkpt>
      <trkpt lat="51.0194" lon="2.3281">
        <ele>3.6</ele>
        <time>2020-06-23T10:47:57Z</time>
      </trkpt>
      <trkpt lat="51.01942" lon="2.32817">
        <ele>3.6</ele>
        <time>2020-06-23T10:47:58Z</time>
      </trkpt>
      <trkpt lat="51.01945" lon="2.32826">
        <ele>3.6</ele>
        <time>2020-06-23T10:47:59Z</time>
      </trkpt>
      <trkpt lat="51.01947" lon="2.32834">
        <ele>3.6</ele>
        <time>2020-06-23T10:48:00Z</time>
      </trkpt>
      <trkpt lat="51.01949" lon="2.32844">
        <ele>3.7</ele>
        <time>2020-06-23T10:48:01Z</time>
      </trkpt>
      <trkpt lat="51.01951" lon="2.32851">
        <ele>3.7</ele>
        <time>2020-06-23T10:48:02Z</time>
      </trkpt>
      <trkpt lat="51.01953" lon="2.32861">
        <ele>3.6</ele>
        <time>2020-06-23T10:48:03Z</time>
      </trkpt>
      <trkpt lat="51.01954" lon="2.32867">
        <ele>3.6</ele>
        <time>2020-06-23T10:48:04Z</time>
      </trkpt>
      <trkpt lat="51.01956" lon="2.32876">
        <ele>3.6</ele>
        <time>2020-06-23T10:48:05Z</time>
      </trkpt>
      <trkpt lat="51.01958" lon="2.32882">
        <ele>3.6</ele>
        <time>2020-06-23T10:48:06Z</time>
      </trkpt>
      <trkpt lat="51.01959" lon="2.32888">
        <ele>3.6</ele>
        <time>2020-06-23T10:48:07Z</time>
      </trkpt>
      <trkpt lat="51.01961" lon="2.32896">
        <ele>3.7</ele>
        <time>2020-06-23T10:48:08Z</time>
      </trkpt>
      <trkpt lat="51.01962" lon="2.32903">
        <ele>3.8</ele>
        <time>2020-06-23T10:48:09Z</time>
      </trkpt>
      <trkpt lat="51.01964" lon="2.32908">
        <ele>4.2</ele>
        <time>2020-06-23T10:48:10Z</time>
      </trkpt>
      <trkpt lat="51.01966" lon="2.32914">
        <ele>4.1</ele>
        <time>2020-06-23T10:48:11Z</time>
      </trkpt>
      <trkpt lat="51.01967" lon="2.32919">
        <ele>4.1</ele>
        <time>2020-06-23T10:48:12Z</time>
      </trkpt>
      <trkpt lat="51.01969" lon="2.32925">
        <ele>4.1</ele>
        <time>2020-06-23T10:48:13Z</time>
      </trkpt>
      <trkpt lat="51.01971" lon="2.32931">
        <ele>4</ele>
        <time>2020-06-23T10:48:14Z</time>
      </trkpt>
      <trkpt lat="51.01972" lon="2.32934">
        <ele>4</ele>
        <time>2020-06-23T10:48:15Z</time>
      </trkpt>
      <trkpt lat="51.01973" lon="2.32941">
        <ele>4</ele>
        <time>2020-06-23T10:48:16Z</time>
      </trkpt>
      <trkpt lat="51.01975" lon="2.32946">
        <ele>4</ele>
        <time>2020-06-23T10:48:17Z</time>
      </trkpt>
      <trkpt lat="51.01976" lon="2.32952">
        <ele>3.9</ele>
        <time>2020-06-23T10:48:18Z</time>
      </trkpt>
      <trkpt lat="51.01978" lon="2.32958">
        <ele>3.9</ele>
        <time>2020-06-23T10:48:19Z</time>
      </trkpt>
      <trkpt lat="51.0198" lon="2.32966">
        <ele>3.9</ele>
        <time>2020-06-23T10:48:20Z</time>
      </trkpt>
      <trkpt lat="51.01981" lon="2.32974">
        <ele>3.9</ele>
        <time>2020-06-23T10:48:21Z</time>
      </trkpt>
      <trkpt lat="51.01983" lon="2.32982">
        <ele>3.9</ele>
        <time>2020-06-23T10:48:22Z</time>
      </trkpt>
      <trkpt lat="51.01985" lon="2.32991">
        <ele>4</ele>
        <time>2020-06-23T10:48:23Z</time>
      </trkpt>
      <trkpt lat="51.01985" lon="2.32998">
        <ele>3.9</ele>
        <time>2020-06-23T10:48:24Z</time>
      </trkpt>
      <trkpt lat="51.01986" lon="2.33008">
        <ele>3.9</ele>
        <time>2020-06-23T10:48:25Z</time>
      </trkpt>
      <trkpt lat="51.01989" lon="2.33017">
        <ele>3.8</ele>
        <time>2020-06-23T10:48:26Z</time>
      </trkpt>
      <trkpt lat="51.01991" lon="2.33027">
        <ele>3.8</ele>
        <time>2020-06-23T10:48:27Z</time>
      </trkpt>
      <trkpt lat="51.01993" lon="2.33037">
        <ele>3.8</ele>
        <time>2020-06-23T10:48:28Z</time>
      </trkpt>
      <trkpt lat="51.01995" lon="2.33045">
        <ele>3.9</ele>
        <time>2020-06-23T10:48:29Z</time>
      </trkpt>
      <trkpt lat="51.01997" lon="2.33056">
        <ele>3.9</ele>
        <time>2020-06-23T10:48:30Z</time>
      </trkpt>
      <trkpt lat="51.01999" lon="2.33064">
        <ele>3.9</ele>
        <time>2020-06-23T10:48:31Z</time>
      </trkpt>
      <trkpt lat="51.02001" lon="2.33072">
        <ele>4</ele>
        <time>2020-06-23T10:48:32Z</time>
      </trkpt>
      <trkpt lat="51.02004" lon="2.33081">
        <ele>4</ele>
        <time>2020-06-23T10:48:33Z</time>
      </trkpt>
      <trkpt lat="51.02006" lon="2.33089">
        <ele>4.1</ele>
        <time>2020-06-23T10:48:34Z</time>
      </trkpt>
      <trkpt lat="51.02008" lon="2.33098">
        <ele>4.2</ele>
        <time>2020-06-23T10:48:35Z</time>
      </trkpt>
      <trkpt lat="51.0201" lon="2.33106">
        <ele>4.3</ele>
        <time>2020-06-23T10:48:36Z</time>
      </trkpt>
      <trkpt lat="51.02013" lon="2.33115">
        <ele>4.4</ele>
        <time>2020-06-23T10:48:37Z</time>
      </trkpt>
      <trkpt lat="51.02016" lon="2.33124">
        <ele>4.5</ele>
        <time>2020-06-23T10:48:38Z</time>
      </trkpt>
      <trkpt lat="51.02018" lon="2.33132">
        <ele>4.6</ele>
        <time>2020-06-23T10:48:39Z</time>
      </trkpt>
      <trkpt lat="51.0202" lon="2.3314">
        <ele>4.7</ele>
        <time>2020-06-23T10:48:40Z</time>
      </trkpt>
      <trkpt lat="51.02022" lon="2.33149">
        <ele>4.9</ele>
        <time>2020-06-23T10:48:41Z</time>
      </trkpt>
      <trkpt lat="51.02025" lon="2.33159">
        <ele>5</ele>
        <time>2020-06-23T10:48:42Z</time>
      </trkpt>
      <trkpt lat="51.02026" lon="2.33169">
        <ele>5.1</ele>
        <time>2020-06-23T10:48:43Z</time>
      </trkpt>
      <trkpt lat="51.02028" lon="2.33178">
        <ele>5.2</ele>
        <time>2020-06-23T10:48:44Z</time>
      </trkpt>
      <trkpt lat="51.0203" lon="2.33186">
        <ele>5.3</ele>
        <time>2020-06-23T10:48:45Z</time>
      </trkpt>
      <trkpt lat="51.02033" lon="2.33195">
        <ele>5.4</ele>
        <time>2020-06-23T10:48:46Z</time>
      </trkpt>
      <trkpt lat="51.02035" lon="2.33205">
        <ele>5.5</ele>
        <time>2020-06-23T10:48:47Z</time>
      </trkpt>
      <trkpt lat="51.02037" lon="2.33214">
        <ele>5.6</ele>
        <time>2020-06-23T10:48:48Z</time>
      </trkpt>
      <trkpt lat="51.02039" lon="2.33223">
        <ele>5.6</ele>
        <time>2020-06-23T10:48:49Z</time>
      </trkpt>
      <trkpt lat="51.02042" lon="2.33233">
        <ele>5.8</ele>
        <time>2020-06-23T10:48:50Z</time>
      </trkpt>
      <trkpt lat="51.02045" lon="2.33242">
        <ele>5.6</ele>
        <time>2020-06-23T10:48:51Z</time>
      </trkpt>
      <trkpt lat="51.02047" lon="2.33251">
        <ele>5.4</ele>
        <time>2020-06-23T10:48:52Z</time>
      </trkpt>
      <trkpt lat="51.02049" lon="2.3326">
        <ele>5.2</ele>
        <time>2020-06-23T10:48:53Z</time>
      </trkpt>
      <trkpt lat="51.02051" lon="2.33268">
        <ele>5.1</ele>
        <time>2020-06-23T10:48:54Z</time>
      </trkpt>
      <trkpt lat="51.02053" lon="2.33276">
        <ele>5</ele>
        <time>2020-06-23T10:48:55Z</time>
      </trkpt>
      <trkpt lat="51.02055" lon="2.33286">
        <ele>5</ele>
        <time>2020-06-23T10:48:56Z</time>
      </trkpt>
      <trkpt lat="51.02057" lon="2.33295">
        <ele>4.9</ele>
        <time>2020-06-23T10:48:57Z</time>
      </trkpt>
      <trkpt lat="51.0206" lon="2.33304">
        <ele>4.9</ele>
        <time>2020-06-23T10:48:58Z</time>
      </trkpt>
      <trkpt lat="51.02062" lon="2.33314">
        <ele>4.8</ele>
        <time>2020-06-23T10:48:59Z</time>
      </trkpt>
      <trkpt lat="51.02064" lon="2.33323">
        <ele>4.8</ele>
        <time>2020-06-23T10:49:00Z</time>
      </trkpt>
      <trkpt lat="51.02067" lon="2.33332">
        <ele>4.8</ele>
        <time>2020-06-23T10:49:01Z</time>
      </trkpt>
      <trkpt lat="51.02069" lon="2.33342">
        <ele>4.8</ele>
        <time>2020-06-23T10:49:02Z</time>
      </trkpt>
      <trkpt lat="51.02073" lon="2.33353">
        <ele>4.8</ele>
        <time>2020-06-23T10:49:03Z</time>
      </trkpt>
      <trkpt lat="51.02075" lon="2.33364">
        <ele>4.8</ele>
        <time>2020-06-23T10:49:04Z</time>
      </trkpt>
      <trkpt lat="51.02076" lon="2.33374">
        <ele>4.7</ele>
        <time>2020-06-23T10:49:05Z</time>
      </trkpt>
      <trkpt lat="51.02078" lon="2.33384">
        <ele>4.7</ele>
        <time>2020-06-23T10:49:06Z</time>
      </trkpt>
      <trkpt lat="51.0208" lon="2.33395">
        <ele>4.7</ele>
        <time>2020-06-23T10:49:07Z</time>
      </trkpt>
      <trkpt lat="51.02082" lon="2.33404">
        <ele>4.7</ele>
        <time>2020-06-23T10:49:08Z</time>
      </trkpt>
      <trkpt lat="51.02084" lon="2.33413">
        <ele>4.7</ele>
        <time>2020-06-23T10:49:09Z</time>
      </trkpt>
      <trkpt lat="51.02085" lon="2.3342">
        <ele>4.7</ele>
        <time>2020-06-23T10:49:10Z</time>
      </trkpt>
      <trkpt lat="51.02086" lon="2.33429">
        <ele>4.7</ele>
        <time>2020-06-23T10:49:11Z</time>
      </trkpt>
      <trkpt lat="51.02088" lon="2.33439">
        <ele>4.7</ele>
        <time>2020-06-23T10:49:12Z</time>
      </trkpt>
      <trkpt lat="51.0209" lon="2.3345">
        <ele>4.7</ele>
        <time>2020-06-23T10:49:13Z</time>
      </trkpt>
      <trkpt lat="51.02091" lon="2.33459">
        <ele>4.7</ele>
        <time>2020-06-23T10:49:14Z</time>
      </trkpt>
      <trkpt lat="51.02093" lon="2.33469">
        <ele>4.7</ele>
        <time>2020-06-23T10:49:15Z</time>
      </trkpt>
      <trkpt lat="51.02096" lon="2.3348">
        <ele>4.7</ele>
        <time>2020-06-23T10:49:16Z</time>
      </trkpt>
      <trkpt lat="51.02099" lon="2.3349">
        <ele>4.7</ele>
        <time>2020-06-23T10:49:17Z</time>
      </trkpt>
      <trkpt lat="51.02102" lon="2.33499">
        <ele>4.6</ele>
        <time>2020-06-23T10:49:18Z</time>
      </trkpt>
      <trkpt lat="51.02105" lon="2.33507">
        <ele>4.6</ele>
        <time>2020-06-23T10:49:19Z</time>
      </trkpt>
      <trkpt lat="51.02106" lon="2.33515">
        <ele>4.6</ele>
        <time>2020-06-23T10:49:20Z</time>
      </trkpt>
      <trkpt lat="51.02108" lon="2.33523">
        <ele>4.5</ele>
        <time>2020-06-23T10:49:21Z</time>
      </trkpt>
      <trkpt lat="51.0211" lon="2.33533">
        <ele>4.4</ele>
        <time>2020-06-23T10:49:22Z</time>
      </trkpt>
      <trkpt lat="51.02113" lon="2.33543">
        <ele>4.4</ele>
        <time>2020-06-23T10:49:23Z</time>
      </trkpt>
      <trkpt lat="51.02115" lon="2.33553">
        <ele>4.4</ele>
        <time>2020-06-23T10:49:24Z</time>
      </trkpt>
      <trkpt lat="51.02117" lon="2.33564">
        <ele>4.4</ele>
        <time>2020-06-23T10:49:25Z</time>
      </trkpt>
      <trkpt lat="51.02119" lon="2.33573">
        <ele>4.4</ele>
        <time>2020-06-23T10:49:26Z</time>
      </trkpt>
      <trkpt lat="51.02121" lon="2.33582">
        <ele>4.4</ele>
        <time>2020-06-23T10:49:27Z</time>
      </trkpt>
      <trkpt lat="51.02123" lon="2.33592">
        <ele>4.4</ele>
        <time>2020-06-23T10:49:28Z</time>
      </trkpt>
      <trkpt lat="51.02126" lon="2.33601">
        <ele>4.5</ele>
        <time>2020-06-23T10:49:29Z</time>
      </trkpt>
      <trkpt lat="51.02128" lon="2.3361">
        <ele>4.5</ele>
        <time>2020-06-23T10:49:30Z</time>
      </trkpt>
      <trkpt lat="51.0213" lon="2.33616">
        <ele>4.5</ele>
        <time>2020-06-23T10:49:31Z</time>
      </trkpt>
      <trkpt lat="51.02132" lon="2.33624">
        <ele>4.5</ele>
        <time>2020-06-23T10:49:32Z</time>
      </trkpt>
      <trkpt lat="51.02133" lon="2.33633">
        <ele>4.5</ele>
        <time>2020-06-23T10:49:33Z</time>
      </trkpt>
      <trkpt lat="51.02135" lon="2.3364">
        <ele>4.5</ele>
        <time>2020-06-23T10:49:34Z</time>
      </trkpt>
      <trkpt lat="51.02137" lon="2.3365">
        <ele>4.5</ele>
        <time>2020-06-23T10:49:35Z</time>
      </trkpt>
      <trkpt lat="51.0214" lon="2.33658">
        <ele>4.5</ele>
        <time>2020-06-23T10:49:36Z</time>
      </trkpt>
      <trkpt lat="51.02141" lon="2.33665">
        <ele>4.6</ele>
        <time>2020-06-23T10:49:37Z</time>
      </trkpt>
      <trkpt lat="51.02144" lon="2.33674">
        <ele>4.6</ele>
        <time>2020-06-23T10:49:38Z</time>
      </trkpt>
      <trkpt lat="51.02146" lon="2.33684">
        <ele>4.6</ele>
        <time>2020-06-23T10:49:39Z</time>
      </trkpt>
      <trkpt lat="51.02148" lon="2.33694">
        <ele>4.6</ele>
        <time>2020-06-23T10:49:40Z</time>
      </trkpt>
      <trkpt lat="51.0215" lon="2.33705">
        <ele>4.6</ele>
        <time>2020-06-23T10:49:41Z</time>
      </trkpt>
      <trkpt lat="51.02152" lon="2.33713">
        <ele>4.6</ele>
        <time>2020-06-23T10:49:42Z</time>
      </trkpt>
      <trkpt lat="51.02153" lon="2.33722">
        <ele>4.6</ele>
        <time>2020-06-23T10:49:43Z</time>
      </trkpt>
      <trkpt lat="51.02155" lon="2.33732">
        <ele>4.6</ele>
        <time>2020-06-23T10:49:44Z</time>
      </trkpt>
      <trkpt lat="51.02157" lon="2.33741">
        <ele>4.6</ele>
        <time>2020-06-23T10:49:45Z</time>
      </trkpt>
      <trkpt lat="51.02159" lon="2.33751">
        <ele>4.6</ele>
        <time>2020-06-23T10:49:46Z</time>
      </trkpt>
      <trkpt lat="51.0216" lon="2.33759">
        <ele>4.6</ele>
        <time>2020-06-23T10:49:47Z</time>
      </trkpt>
      <trkpt lat="51.02162" lon="2.3377">
        <ele>4.7</ele>
        <time>2020-06-23T10:49:48Z</time>
      </trkpt>
      <trkpt lat="51.02163" lon="2.33778">
        <ele>4.7</ele>
        <time>2020-06-23T10:49:49Z</time>
      </trkpt>
      <trkpt lat="51.02163" lon="2.33787">
        <ele>4.7</ele>
        <time>2020-06-23T10:49:50Z</time>
      </trkpt>
      <trkpt lat="51.02165" lon="2.33796">
        <ele>4.8</ele>
        <time>2020-06-23T10:49:51Z</time>
      </trkpt>
      <trkpt lat="51.02167" lon="2.33807">
        <ele>4.9</ele>
        <time>2020-06-23T10:49:52Z</time>
      </trkpt>
      <trkpt lat="51.02169" lon="2.33815">
        <ele>4.9</ele>
        <time>2020-06-23T10:49:53Z</time>
      </trkpt>
      <trkpt lat="51.02171" lon="2.33824">
        <ele>4.9</ele>
        <time>2020-06-23T10:49:54Z</time>
      </trkpt>
      <trkpt lat="51.02173" lon="2.33833">
        <ele>4.9</ele>
        <time>2020-06-23T10:49:55Z</time>
      </trkpt>
      <trkpt lat="51.02175" lon="2.33842">
        <ele>4.9</ele>
        <time>2020-06-23T10:49:56Z</time>
      </trkpt>
      <trkpt lat="51.02175" lon="2.33849">
        <ele>4.9</ele>
        <time>2020-06-23T10:49:57Z</time>
      </trkpt>
      <trkpt lat="51.02176" lon="2.33858">
        <ele>4.9</ele>
        <time>2020-06-23T10:49:58Z</time>
      </trkpt>
      <trkpt lat="51.02178" lon="2.33869">
        <ele>4.8</ele>
        <time>2020-06-23T10:49:59Z</time>
      </trkpt>
      <trkpt lat="51.0218" lon="2.3388">
        <ele>4.8</ele>
        <time>2020-06-23T10:50:00Z</time>
      </trkpt>
      <trkpt lat="51.02182" lon="2.33886">
        <ele>4.8</ele>
        <time>2020-06-23T10:50:01Z</time>
      </trkpt>
      <trkpt lat="51.02184" lon="2.33893">
        <ele>4.7</ele>
        <time>2020-06-23T10:50:02Z</time>
      </trkpt>
      <trkpt lat="51.02185" lon="2.33902">
        <ele>4.7</ele>
        <time>2020-06-23T10:50:03Z</time>
      </trkpt>
      <trkpt lat="51.02186" lon="2.3391">
        <ele>4.6</ele>
        <time>2020-06-23T10:50:04Z</time>
      </trkpt>
      <trkpt lat="51.02188" lon="2.33919">
        <ele>4.6</ele>
        <time>2020-06-23T10:50:05Z</time>
      </trkpt>
      <trkpt lat="51.02189" lon="2.33929">
        <ele>4.5</ele>
        <time>2020-06-23T10:50:06Z</time>
      </trkpt>
      <trkpt lat="51.02191" lon="2.33936">
        <ele>4.5</ele>
        <time>2020-06-23T10:50:07Z</time>
      </trkpt>
      <trkpt lat="51.02194" lon="2.33944">
        <ele>4.5</ele>
        <time>2020-06-23T10:50:08Z</time>
      </trkpt>
      <trkpt lat="51.02196" lon="2.33954">
        <ele>4.4</ele>
        <time>2020-06-23T10:50:09Z</time>
      </trkpt>
      <trkpt lat="51.02196" lon="2.33959">
        <ele>4.4</ele>
        <time>2020-06-23T10:50:10Z</time>
      </trkpt>
      <trkpt lat="51.02196" lon="2.33968">
        <ele>4.4</ele>
        <time>2020-06-23T10:50:11Z</time>
      </trkpt>
      <trkpt lat="51.02197" lon="2.33975">
        <ele>4.4</ele>
        <time>2020-06-23T10:50:12Z</time>
      </trkpt>
      <trkpt lat="51.02199" lon="2.33984">
        <ele>4.4</ele>
        <time>2020-06-23T10:50:13Z</time>
      </trkpt>
      <trkpt lat="51.022" lon="2.33995">
        <ele>4.4</ele>
        <time>2020-06-23T10:50:14Z</time>
      </trkpt>
      <trkpt lat="51.02203" lon="2.34005">
        <ele>4.3</ele>
        <time>2020-06-23T10:50:15Z</time>
      </trkpt>
      <trkpt lat="51.02205" lon="2.34015">
        <ele>4.3</ele>
        <time>2020-06-23T10:50:16Z</time>
      </trkpt>
      <trkpt lat="51.02207" lon="2.34024">
        <ele>4.3</ele>
        <time>2020-06-23T10:50:17Z</time>
      </trkpt>
      <trkpt lat="51.02211" lon="2.34031">
        <ele>4.3</ele>
        <time>2020-06-23T10:50:18Z</time>
      </trkpt>
      <trkpt lat="51.02214" lon="2.34037">
        <ele>4.3</ele>
        <time>2020-06-23T10:50:19Z</time>
      </trkpt>
      <trkpt lat="51.02216" lon="2.34043">
        <ele>4.3</ele>
        <time>2020-06-23T10:50:20Z</time>
      </trkpt>
      <trkpt lat="51.02218" lon="2.34051">
        <ele>4.3</ele>
        <time>2020-06-23T10:50:21Z</time>
      </trkpt>
      <trkpt lat="51.0222" lon="2.34058">
        <ele>4.3</ele>
        <time>2020-06-23T10:50:22Z</time>
      </trkpt>
      <trkpt lat="51.02223" lon="2.34065">
        <ele>4.3</ele>
        <time>2020-06-23T10:50:23Z</time>
      </trkpt>
      <trkpt lat="51.02224" lon="2.34072">
        <ele>4.3</ele>
        <time>2020-06-23T10:50:24Z</time>
      </trkpt>
      <trkpt lat="51.02226" lon="2.3408">
        <ele>4.3</ele>
        <time>2020-06-23T10:50:25Z</time>
      </trkpt>
      <trkpt lat="51.02228" lon="2.34088">
        <ele>4.3</ele>
        <time>2020-06-23T10:50:26Z</time>
      </trkpt>
      <trkpt lat="51.02229" lon="2.34095">
        <ele>4.3</ele>
        <time>2020-06-23T10:50:27Z</time>
      </trkpt>
      <trkpt lat="51.02231" lon="2.34102">
        <ele>4.3</ele>
        <time>2020-06-23T10:50:28Z</time>
      </trkpt>
      <trkpt lat="51.02233" lon="2.3411">
        <ele>4.3</ele>
        <time>2020-06-23T10:50:29Z</time>
      </trkpt>
      <trkpt lat="51.02235" lon="2.34117">
        <ele>4.3</ele>
        <time>2020-06-23T10:50:30Z</time>
      </trkpt>
      <trkpt lat="51.02237" lon="2.34127">
        <ele>4.3</ele>
        <time>2020-06-23T10:50:31Z</time>
      </trkpt>
      <trkpt lat="51.0224" lon="2.34133">
        <ele>4.3</ele>
        <time>2020-06-23T10:50:32Z</time>
      </trkpt>
      <trkpt lat="51.02242" lon="2.34142">
        <ele>4.3</ele>
        <time>2020-06-23T10:50:33Z</time>
      </trkpt>
      <trkpt lat="51.02244" lon="2.34148">
        <ele>4.3</ele>
        <time>2020-06-23T10:50:34Z</time>
      </trkpt>
      <trkpt lat="51.02246" lon="2.34156">
        <ele>4.3</ele>
        <time>2020-06-23T10:50:35Z</time>
      </trkpt>
      <trkpt lat="51.02249" lon="2.34165">
        <ele>4.3</ele>
        <time>2020-06-23T10:50:36Z</time>
      </trkpt>
      <trkpt lat="51.02251" lon="2.34172">
        <ele>4.3</ele>
        <time>2020-06-23T10:50:37Z</time>
      </trkpt>
      <trkpt lat="51.02253" lon="2.3418">
        <ele>4.3</ele>
        <time>2020-06-23T10:50:38Z</time>
      </trkpt>
      <trkpt lat="51.02254" lon="2.34188">
        <ele>4.2</ele>
        <time>2020-06-23T10:50:39Z</time>
      </trkpt>
      <trkpt lat="51.02256" lon="2.34196">
        <ele>4.2</ele>
        <time>2020-06-23T10:50:40Z</time>
      </trkpt>
      <trkpt lat="51.02258" lon="2.34205">
        <ele>4.2</ele>
        <time>2020-06-23T10:50:41Z</time>
      </trkpt>
      <trkpt lat="51.02259" lon="2.34214">
        <ele>4.2</ele>
        <time>2020-06-23T10:50:42Z</time>
      </trkpt>
      <trkpt lat="51.02261" lon="2.34222">
        <ele>4.2</ele>
        <time>2020-06-23T10:50:43Z</time>
      </trkpt>
      <trkpt lat="51.02262" lon="2.3423">
        <ele>4.1</ele>
        <time>2020-06-23T10:50:44Z</time>
      </trkpt>
      <trkpt lat="51.02264" lon="2.34239">
        <ele>4.1</ele>
        <time>2020-06-23T10:50:45Z</time>
      </trkpt>
      <trkpt lat="51.02265" lon="2.34247">
        <ele>4.1</ele>
        <time>2020-06-23T10:50:46Z</time>
      </trkpt>
      <trkpt lat="51.02266" lon="2.34254">
        <ele>4.1</ele>
        <time>2020-06-23T10:50:47Z</time>
      </trkpt>
      <trkpt lat="51.02268" lon="2.34262">
        <ele>4.1</ele>
        <time>2020-06-23T10:50:48Z</time>
      </trkpt>
      <trkpt lat="51.0227" lon="2.34272">
        <ele>4.1</ele>
        <time>2020-06-23T10:50:49Z</time>
      </trkpt>
      <trkpt lat="51.02272" lon="2.34281">
        <ele>4.1</ele>
        <time>2020-06-23T10:50:50Z</time>
      </trkpt>
      <trkpt lat="51.02274" lon="2.34289">
        <ele>4.1</ele>
        <time>2020-06-23T10:50:51Z</time>
      </trkpt>
      <trkpt lat="51.02276" lon="2.34297">
        <ele>4.1</ele>
        <time>2020-06-23T10:50:52Z</time>
      </trkpt>
      <trkpt lat="51.02277" lon="2.34304">
        <ele>4.2</ele>
        <time>2020-06-23T10:50:53Z</time>
      </trkpt>
      <trkpt lat="51.02278" lon="2.34311">
        <ele>4.2</ele>
        <time>2020-06-23T10:50:54Z</time>
      </trkpt>
      <trkpt lat="51.02279" lon="2.34319">
        <ele>4.3</ele>
        <time>2020-06-23T10:50:55Z</time>
      </trkpt>
      <trkpt lat="51.02281" lon="2.34328">
        <ele>4.3</ele>
        <time>2020-06-23T10:50:56Z</time>
      </trkpt>
      <trkpt lat="51.02283" lon="2.34338">
        <ele>4.3</ele>
        <time>2020-06-23T10:50:57Z</time>
      </trkpt>
      <trkpt lat="51.02285" lon="2.34346">
        <ele>4.3</ele>
        <time>2020-06-23T10:50:58Z</time>
      </trkpt>
      <trkpt lat="51.02286" lon="2.34354">
        <ele>4.3</ele>
        <time>2020-06-23T10:50:59Z</time>
      </trkpt>
      <trkpt lat="51.02287" lon="2.34361">
        <ele>4.3</ele>
        <time>2020-06-23T10:51:00Z</time>
      </trkpt>
      <trkpt lat="51.0229" lon="2.34369">
        <ele>4.3</ele>
        <time>2020-06-23T10:51:01Z</time>
      </trkpt>
      <trkpt lat="51.02292" lon="2.34378">
        <ele>4.3</ele>
        <time>2020-06-23T10:51:02Z</time>
      </trkpt>
      <trkpt lat="51.02294" lon="2.34387">
        <ele>4.3</ele>
        <time>2020-06-23T10:51:03Z</time>
      </trkpt>
      <trkpt lat="51.02296" lon="2.34397">
        <ele>4.3</ele>
        <time>2020-06-23T10:51:04Z</time>
      </trkpt>
      <trkpt lat="51.02298" lon="2.34405">
        <ele>4.3</ele>
        <time>2020-06-23T10:51:05Z</time>
      </trkpt>
      <trkpt lat="51.023" lon="2.34413">
        <ele>4.3</ele>
        <time>2020-06-23T10:51:06Z</time>
      </trkpt>
      <trkpt lat="51.02303" lon="2.34422">
        <ele>4.3</ele>
        <time>2020-06-23T10:51:07Z</time>
      </trkpt>
      <trkpt lat="51.02306" lon="2.34431">
        <ele>4.3</ele>
        <time>2020-06-23T10:51:08Z</time>
      </trkpt>
      <trkpt lat="51.02306" lon="2.34437">
        <ele>4.3</ele>
        <time>2020-06-23T10:51:09Z</time>
      </trkpt>
      <trkpt lat="51.02306" lon="2.34443">
        <ele>4.3</ele>
        <time>2020-06-23T10:51:10Z</time>
      </trkpt>
      <trkpt lat="51.02306" lon="2.3445">
        <ele>4.4</ele>
        <time>2020-06-23T10:51:11Z</time>
      </trkpt>
      <trkpt lat="51.02306" lon="2.34457">
        <ele>4.4</ele>
        <time>2020-06-23T10:51:12Z</time>
      </trkpt>
      <trkpt lat="51.02307" lon="2.34464">
        <ele>4.5</ele>
        <time>2020-06-23T10:51:13Z</time>
      </trkpt>
      <trkpt lat="51.02309" lon="2.34472">
        <ele>4.5</ele>
        <time>2020-06-23T10:51:14Z</time>
      </trkpt>
      <trkpt lat="51.0231" lon="2.34481">
        <ele>4.6</ele>
        <time>2020-06-23T10:51:15Z</time>
      </trkpt>
      <trkpt lat="51.02311" lon="2.34489">
        <ele>4.6</ele>
        <time>2020-06-23T10:51:16Z</time>
      </trkpt>
      <trkpt lat="51.02312" lon="2.34498">
        <ele>4.7</ele>
        <time>2020-06-23T10:51:17Z</time>
      </trkpt>
      <trkpt lat="51.02314" lon="2.3451">
        <ele>4.7</ele>
        <time>2020-06-23T10:51:18Z</time>
      </trkpt>
      <trkpt lat="51.02316" lon="2.3452">
        <ele>4.7</ele>
        <time>2020-06-23T10:51:19Z</time>
      </trkpt>
      <trkpt lat="51.0232" lon="2.3453">
        <ele>4.8</ele>
        <time>2020-06-23T10:51:20Z</time>
      </trkpt>
      <trkpt lat="51.02323" lon="2.3454">
        <ele>4.7</ele>
        <time>2020-06-23T10:51:21Z</time>
      </trkpt>
      <trkpt lat="51.02326" lon="2.34549">
        <ele>4.6</ele>
        <time>2020-06-23T10:51:22Z</time>
      </trkpt>
      <trkpt lat="51.02329" lon="2.34558">
        <ele>4.6</ele>
        <time>2020-06-23T10:51:23Z</time>
      </trkpt>
      <trkpt lat="51.02331" lon="2.34568">
        <ele>4.5</ele>
        <time>2020-06-23T10:51:24Z</time>
      </trkpt>
      <trkpt lat="51.02334" lon="2.34578">
        <ele>4.5</ele>
        <time>2020-06-23T10:51:25Z</time>
      </trkpt>
      <trkpt lat="51.02334" lon="2.34586">
        <ele>4.5</ele>
        <time>2020-06-23T10:51:26Z</time>
      </trkpt>
      <trkpt lat="51.02337" lon="2.34594">
        <ele>4.4</ele>
        <time>2020-06-23T10:51:27Z</time>
      </trkpt>
      <trkpt lat="51.02338" lon="2.34602">
        <ele>4.4</ele>
        <time>2020-06-23T10:51:28Z</time>
      </trkpt>
      <trkpt lat="51.02338" lon="2.3461">
        <ele>4.4</ele>
        <time>2020-06-23T10:51:29Z</time>
      </trkpt>
      <trkpt lat="51.02338" lon="2.34618">
        <ele>4.4</ele>
        <time>2020-06-23T10:51:30Z</time>
      </trkpt>
      <trkpt lat="51.0234" lon="2.34628">
        <ele>4.4</ele>
        <time>2020-06-23T10:51:31Z</time>
      </trkpt>
      <trkpt lat="51.02342" lon="2.34637">
        <ele>4.4</ele>
        <time>2020-06-23T10:51:32Z</time>
      </trkpt>
      <trkpt lat="51.02343" lon="2.34646">
        <ele>4.4</ele>
        <time>2020-06-23T10:51:33Z</time>
      </trkpt>
      <trkpt lat="51.02345" lon="2.34655">
        <ele>4.4</ele>
        <time>2020-06-23T10:51:34Z</time>
      </trkpt>
      <trkpt lat="51.02348" lon="2.34662">
        <ele>4.4</ele>
        <time>2020-06-23T10:51:35Z</time>
      </trkpt>
      <trkpt lat="51.0235" lon="2.34671">
        <ele>4.4</ele>
        <time>2020-06-23T10:51:36Z</time>
      </trkpt>
      <trkpt lat="51.02352" lon="2.34681">
        <ele>4.4</ele>
        <time>2020-06-23T10:51:37Z</time>
      </trkpt>
      <trkpt lat="51.02354" lon="2.3469">
        <ele>4.5</ele>
        <time>2020-06-23T10:51:38Z</time>
      </trkpt>
      <trkpt lat="51.0236" lon="2.347">
        <ele>4.5</ele>
        <time>2020-06-23T10:51:39Z</time>
      </trkpt>
      <trkpt lat="51.02363" lon="2.34708">
        <ele>4.5</ele>
        <time>2020-06-23T10:51:40Z</time>
      </trkpt>
      <trkpt lat="51.02365" lon="2.34716">
        <ele>4.6</ele>
        <time>2020-06-23T10:51:41Z</time>
      </trkpt>
      <trkpt lat="51.02367" lon="2.34724">
        <ele>4.6</ele>
        <time>2020-06-23T10:51:42Z</time>
      </trkpt>
      <trkpt lat="51.02369" lon="2.34732">
        <ele>4.6</ele>
        <time>2020-06-23T10:51:43Z</time>
      </trkpt>
      <trkpt lat="51.02371" lon="2.34741">
        <ele>4.6</ele>
        <time>2020-06-23T10:51:44Z</time>
      </trkpt>
      <trkpt lat="51.02373" lon="2.34751">
        <ele>4.6</ele>
        <time>2020-06-23T10:51:45Z</time>
      </trkpt>
      <trkpt lat="51.02375" lon="2.34759">
        <ele>4.6</ele>
        <time>2020-06-23T10:51:46Z</time>
      </trkpt>
      <trkpt lat="51.02377" lon="2.34766">
        <ele>4.6</ele>
        <time>2020-06-23T10:51:47Z</time>
      </trkpt>
      <trkpt lat="51.02379" lon="2.34775">
        <ele>4.6</ele>
        <time>2020-06-23T10:51:48Z</time>
      </trkpt>
      <trkpt lat="51.02382" lon="2.34784">
        <ele>4.6</ele>
        <time>2020-06-23T10:51:49Z</time>
      </trkpt>
      <trkpt lat="51.02384" lon="2.34793">
        <ele>4.5</ele>
        <time>2020-06-23T10:51:50Z</time>
      </trkpt>
      <trkpt lat="51.02386" lon="2.34803">
        <ele>4.5</ele>
        <time>2020-06-23T10:51:51Z</time>
      </trkpt>
      <trkpt lat="51.02388" lon="2.34811">
        <ele>4.5</ele>
        <time>2020-06-23T10:51:52Z</time>
      </trkpt>
      <trkpt lat="51.02389" lon="2.34819">
        <ele>4.5</ele>
        <time>2020-06-23T10:51:53Z</time>
      </trkpt>
      <trkpt lat="51.02391" lon="2.34829">
        <ele>4.5</ele>
        <time>2020-06-23T10:51:54Z</time>
      </trkpt>
      <trkpt lat="51.02393" lon="2.34838">
        <ele>4.5</ele>
        <time>2020-06-23T10:51:55Z</time>
      </trkpt>
      <trkpt lat="51.02395" lon="2.34847">
        <ele>4.4</ele>
        <time>2020-06-23T10:51:56Z</time>
      </trkpt>
      <trkpt lat="51.02397" lon="2.34856">
        <ele>4.4</ele>
        <time>2020-06-23T10:51:57Z</time>
      </trkpt>
      <trkpt lat="51.02399" lon="2.34865">
        <ele>4.4</ele>
        <time>2020-06-23T10:51:58Z</time>
      </trkpt>
      <trkpt lat="51.02402" lon="2.34874">
        <ele>4.4</ele>
        <time>2020-06-23T10:51:59Z</time>
      </trkpt>
      <trkpt lat="51.02404" lon="2.34883">
        <ele>4.3</ele>
        <time>2020-06-23T10:52:00Z</time>
      </trkpt>
      <trkpt lat="51.02405" lon="2.34892">
        <ele>4.3</ele>
        <time>2020-06-23T10:52:01Z</time>
      </trkpt>
      <trkpt lat="51.02407" lon="2.34901">
        <ele>4.3</ele>
        <time>2020-06-23T10:52:02Z</time>
      </trkpt>
      <trkpt lat="51.02409" lon="2.3491">
        <ele>4.2</ele>
        <time>2020-06-23T10:52:03Z</time>
      </trkpt>
      <trkpt lat="51.02411" lon="2.34919">
        <ele>4.2</ele>
        <time>2020-06-23T10:52:04Z</time>
      </trkpt>
      <trkpt lat="51.02412" lon="2.34929">
        <ele>4.2</ele>
        <time>2020-06-23T10:52:05Z</time>
      </trkpt>
      <trkpt lat="51.02414" lon="2.34938">
        <ele>4.2</ele>
        <time>2020-06-23T10:52:06Z</time>
      </trkpt>
      <trkpt lat="51.02416" lon="2.34945">
        <ele>4.2</ele>
        <time>2020-06-23T10:52:07Z</time>
      </trkpt>
      <trkpt lat="51.02418" lon="2.34954">
        <ele>4.2</ele>
        <time>2020-06-23T10:52:08Z</time>
      </trkpt>
      <trkpt lat="51.02421" lon="2.34963">
        <ele>4.2</ele>
        <time>2020-06-23T10:52:09Z</time>
      </trkpt>
      <trkpt lat="51.02423" lon="2.3497">
        <ele>4.2</ele>
        <time>2020-06-23T10:52:10Z</time>
      </trkpt>
      <trkpt lat="51.02425" lon="2.34977">
        <ele>4.3</ele>
        <time>2020-06-23T10:52:11Z</time>
      </trkpt>
      <trkpt lat="51.02427" lon="2.34985">
        <ele>4.3</ele>
        <time>2020-06-23T10:52:12Z</time>
      </trkpt>
      <trkpt lat="51.02428" lon="2.34992">
        <ele>4.3</ele>
        <time>2020-06-23T10:52:13Z</time>
      </trkpt>
      <trkpt lat="51.02429" lon="2.35">
        <ele>4.3</ele>
        <time>2020-06-23T10:52:14Z</time>
      </trkpt>
      <trkpt lat="51.02431" lon="2.35008">
        <ele>4.3</ele>
        <time>2020-06-23T10:52:15Z</time>
      </trkpt>
      <trkpt lat="51.02431" lon="2.35015">
        <ele>4.3</ele>
        <time>2020-06-23T10:52:16Z</time>
      </trkpt>
      <trkpt lat="51.02431" lon="2.35023">
        <ele>4.3</ele>
        <time>2020-06-23T10:52:17Z</time>
      </trkpt>
      <trkpt lat="51.02433" lon="2.35032">
        <ele>4.3</ele>
        <time>2020-06-23T10:52:18Z</time>
      </trkpt>
      <trkpt lat="51.02435" lon="2.35042">
        <ele>4.4</ele>
        <time>2020-06-23T10:52:19Z</time>
      </trkpt>
      <trkpt lat="51.02436" lon="2.35051">
        <ele>4.4</ele>
        <time>2020-06-23T10:52:20Z</time>
      </trkpt>
      <trkpt lat="51.02437" lon="2.3506">
        <ele>4.4</ele>
        <time>2020-06-23T10:52:21Z</time>
      </trkpt>
      <trkpt lat="51.02438" lon="2.35068">
        <ele>4.4</ele>
        <time>2020-06-23T10:52:22Z</time>
      </trkpt>
      <trkpt lat="51.02438" lon="2.35075">
        <ele>4.4</ele>
        <time>2020-06-23T10:52:23Z</time>
      </trkpt>
      <trkpt lat="51.02439" lon="2.35082">
        <ele>4.4</ele>
        <time>2020-06-23T10:52:24Z</time>
      </trkpt>
      <trkpt lat="51.0244" lon="2.3509">
        <ele>4.4</ele>
        <time>2020-06-23T10:52:25Z</time>
      </trkpt>
      <trkpt lat="51.02442" lon="2.35099">
        <ele>4.5</ele>
        <time>2020-06-23T10:52:26Z</time>
      </trkpt>
      <trkpt lat="51.02443" lon="2.35109">
        <ele>4.5</ele>
        <time>2020-06-23T10:52:27Z</time>
      </trkpt>
      <trkpt lat="51.02446" lon="2.35119">
        <ele>4.6</ele>
        <time>2020-06-23T10:52:28Z</time>
      </trkpt>
      <trkpt lat="51.02449" lon="2.35129">
        <ele>4.6</ele>
        <time>2020-06-23T10:52:29Z</time>
      </trkpt>
      <trkpt lat="51.02451" lon="2.35139">
        <ele>4.7</ele>
        <time>2020-06-23T10:52:30Z</time>
      </trkpt>
      <trkpt lat="51.02454" lon="2.35149">
        <ele>4.7</ele>
        <time>2020-06-23T10:52:31Z</time>
      </trkpt>
      <trkpt lat="51.02456" lon="2.35159">
        <ele>4.7</ele>
        <time>2020-06-23T10:52:32Z</time>
      </trkpt>
      <trkpt lat="51.02458" lon="2.35168">
        <ele>4.8</ele>
        <time>2020-06-23T10:52:33Z</time>
      </trkpt>
      <trkpt lat="51.0246" lon="2.35176">
        <ele>4.8</ele>
        <time>2020-06-23T10:52:34Z</time>
      </trkpt>
      <trkpt lat="51.02461" lon="2.35183">
        <ele>4.9</ele>
        <time>2020-06-23T10:52:35Z</time>
      </trkpt>
      <trkpt lat="51.02461" lon="2.35189">
        <ele>4.9</ele>
        <time>2020-06-23T10:52:36Z</time>
      </trkpt>
      <trkpt lat="51.02463" lon="2.35195">
        <ele>5</ele>
        <time>2020-06-23T10:52:37Z</time>
      </trkpt>
      <trkpt lat="51.02466" lon="2.35203">
        <ele>5.1</ele>
        <time>2020-06-23T10:52:38Z</time>
      </trkpt>
      <trkpt lat="51.02468" lon="2.3521">
        <ele>5.2</ele>
        <time>2020-06-23T10:52:39Z</time>
      </trkpt>
      <trkpt lat="51.0247" lon="2.35218">
        <ele>5.3</ele>
        <time>2020-06-23T10:52:40Z</time>
      </trkpt>
      <trkpt lat="51.02472" lon="2.35224">
        <ele>5.3</ele>
        <time>2020-06-23T10:52:41Z</time>
      </trkpt>
      <trkpt lat="51.02474" lon="2.35228">
        <ele>5.3</ele>
        <time>2020-06-23T10:52:42Z</time>
      </trkpt>
      <trkpt lat="51.02476" lon="2.35234">
        <ele>5.4</ele>
        <time>2020-06-23T10:52:43Z</time>
      </trkpt>
      <trkpt lat="51.02477" lon="2.35238">
        <ele>5.4</ele>
        <time>2020-06-23T10:52:44Z</time>
      </trkpt>
      <trkpt lat="51.02478" lon="2.35244">
        <ele>5.3</ele>
        <time>2020-06-23T10:52:45Z</time>
      </trkpt>
      <trkpt lat="51.02479" lon="2.3525">
        <ele>5.3</ele>
        <time>2020-06-23T10:52:46Z</time>
      </trkpt>
      <trkpt lat="51.02479" lon="2.35253">
        <ele>5.3</ele>
        <time>2020-06-23T10:52:47Z</time>
      </trkpt>
      <trkpt lat="51.0248" lon="2.3526">
        <ele>5.2</ele>
        <time>2020-06-23T10:52:48Z</time>
      </trkpt>
      <trkpt lat="51.0248" lon="2.35267">
        <ele>5.1</ele>
        <time>2020-06-23T10:52:49Z</time>
      </trkpt>
      <trkpt lat="51.02482" lon="2.35275">
        <ele>5</ele>
        <time>2020-06-23T10:52:50Z</time>
      </trkpt>
      <trkpt lat="51.02486" lon="2.35283">
        <ele>4.9</ele>
        <time>2020-06-23T10:52:51Z</time>
      </trkpt>
      <trkpt lat="51.0249" lon="2.3529">
        <ele>4.9</ele>
        <time>2020-06-23T10:52:52Z</time>
      </trkpt>
      <trkpt lat="51.02492" lon="2.35298">
        <ele>4.9</ele>
        <time>2020-06-23T10:52:53Z</time>
      </trkpt>
      <trkpt lat="51.02495" lon="2.35307">
        <ele>4.8</ele>
        <time>2020-06-23T10:52:54Z</time>
      </trkpt>
      <trkpt lat="51.02499" lon="2.35318">
        <ele>4.8</ele>
        <time>2020-06-23T10:52:55Z</time>
      </trkpt>
      <trkpt lat="51.02502" lon="2.35326">
        <ele>4.8</ele>
        <time>2020-06-23T10:52:56Z</time>
      </trkpt>
      <trkpt lat="51.02504" lon="2.35333">
        <ele>4.8</ele>
        <time>2020-06-23T10:52:57Z</time>
      </trkpt>
      <trkpt lat="51.02506" lon="2.35341">
        <ele>4.8</ele>
        <time>2020-06-23T10:52:58Z</time>
      </trkpt>
      <trkpt lat="51.02509" lon="2.3535">
        <ele>4.8</ele>
        <time>2020-06-23T10:52:59Z</time>
      </trkpt>
      <trkpt lat="51.02513" lon="2.35357">
        <ele>4.8</ele>
        <time>2020-06-23T10:53:00Z</time>
      </trkpt>
      <trkpt lat="51.02514" lon="2.35362">
        <ele>4.8</ele>
        <time>2020-06-23T10:53:01Z</time>
      </trkpt>
      <trkpt lat="51.02514" lon="2.35369">
        <ele>4.8</ele>
        <time>2020-06-23T10:53:02Z</time>
      </trkpt>
      <trkpt lat="51.02515" lon="2.35376">
        <ele>4.8</ele>
        <time>2020-06-23T10:53:03Z</time>
      </trkpt>
      <trkpt lat="51.02517" lon="2.35386">
        <ele>4.8</ele>
        <time>2020-06-23T10:53:04Z</time>
      </trkpt>
      <trkpt lat="51.0252" lon="2.35395">
        <ele>4.7</ele>
        <time>2020-06-23T10:53:05Z</time>
      </trkpt>
      <trkpt lat="51.02522" lon="2.35404">
        <ele>4.7</ele>
        <time>2020-06-23T10:53:06Z</time>
      </trkpt>
      <trkpt lat="51.02528" lon="2.35414">
        <ele>4.7</ele>
        <time>2020-06-23T10:53:07Z</time>
      </trkpt>
      <trkpt lat="51.0253" lon="2.35424">
        <ele>4.7</ele>
        <time>2020-06-23T10:53:08Z</time>
      </trkpt>
      <trkpt lat="51.02536" lon="2.35435">
        <ele>4.7</ele>
        <time>2020-06-23T10:53:09Z</time>
      </trkpt>
      <trkpt lat="51.02539" lon="2.35445">
        <ele>4.7</ele>
        <time>2020-06-23T10:53:10Z</time>
      </trkpt>
      <trkpt lat="51.02543" lon="2.35454">
        <ele>4.7</ele>
        <time>2020-06-23T10:53:11Z</time>
      </trkpt>
      <trkpt lat="51.02545" lon="2.35461">
        <ele>4.8</ele>
        <time>2020-06-23T10:53:12Z</time>
      </trkpt>
      <trkpt lat="51.02547" lon="2.3547">
        <ele>4.8</ele>
        <time>2020-06-23T10:53:13Z</time>
      </trkpt>
      <trkpt lat="51.0255" lon="2.35479">
        <ele>4.9</ele>
        <time>2020-06-23T10:53:14Z</time>
      </trkpt>
      <trkpt lat="51.02552" lon="2.35489">
        <ele>4.9</ele>
        <time>2020-06-23T10:53:15Z</time>
      </trkpt>
      <trkpt lat="51.02554" lon="2.35499">
        <ele>5</ele>
        <time>2020-06-23T10:53:16Z</time>
      </trkpt>
      <trkpt lat="51.02557" lon="2.35508">
        <ele>5.1</ele>
        <time>2020-06-23T10:53:17Z</time>
      </trkpt>
      <trkpt lat="51.02559" lon="2.35516">
        <ele>5.1</ele>
        <time>2020-06-23T10:53:18Z</time>
      </trkpt>
      <trkpt lat="51.02562" lon="2.35525">
        <ele>5.2</ele>
        <time>2020-06-23T10:53:19Z</time>
      </trkpt>
      <trkpt lat="51.02564" lon="2.35534">
        <ele>5.2</ele>
        <time>2020-06-23T10:53:20Z</time>
      </trkpt>
      <trkpt lat="51.02566" lon="2.35542">
        <ele>5.1</ele>
        <time>2020-06-23T10:53:21Z</time>
      </trkpt>
      <trkpt lat="51.02569" lon="2.35552">
        <ele>5.1</ele>
        <time>2020-06-23T10:53:22Z</time>
      </trkpt>
      <trkpt lat="51.0257" lon="2.35561">
        <ele>5</ele>
        <time>2020-06-23T10:53:23Z</time>
      </trkpt>
      <trkpt lat="51.02572" lon="2.3557">
        <ele>5</ele>
        <time>2020-06-23T10:53:24Z</time>
      </trkpt>
      <trkpt lat="51.02575" lon="2.35578">
        <ele>4.9</ele>
        <time>2020-06-23T10:53:25Z</time>
      </trkpt>
      <trkpt lat="51.02577" lon="2.35587">
        <ele>4.9</ele>
        <time>2020-06-23T10:53:26Z</time>
      </trkpt>
      <trkpt lat="51.02579" lon="2.35595">
        <ele>4.9</ele>
        <time>2020-06-23T10:53:27Z</time>
      </trkpt>
      <trkpt lat="51.02581" lon="2.35604">
        <ele>4.9</ele>
        <time>2020-06-23T10:53:28Z</time>
      </trkpt>
      <trkpt lat="51.02583" lon="2.35613">
        <ele>4.9</ele>
        <time>2020-06-23T10:53:29Z</time>
      </trkpt>
      <trkpt lat="51.02584" lon="2.35623">
        <ele>4.9</ele>
        <time>2020-06-23T10:53:30Z</time>
      </trkpt>
      <trkpt lat="51.02586" lon="2.35631">
        <ele>4.9</ele>
        <time>2020-06-23T10:53:31Z</time>
      </trkpt>
      <trkpt lat="51.02588" lon="2.35639">
        <ele>4.9</ele>
        <time>2020-06-23T10:53:32Z</time>
      </trkpt>
      <trkpt lat="51.0259" lon="2.35648">
        <ele>4.9</ele>
        <time>2020-06-23T10:53:33Z</time>
      </trkpt>
      <trkpt lat="51.02592" lon="2.35656">
        <ele>4.9</ele>
        <time>2020-06-23T10:53:34Z</time>
      </trkpt>
      <trkpt lat="51.02593" lon="2.35664">
        <ele>4.9</ele>
        <time>2020-06-23T10:53:35Z</time>
      </trkpt>
      <trkpt lat="51.02596" lon="2.35673">
        <ele>4.9</ele>
        <time>2020-06-23T10:53:36Z</time>
      </trkpt>
      <trkpt lat="51.02599" lon="2.35682">
        <ele>4.9</ele>
        <time>2020-06-23T10:53:37Z</time>
      </trkpt>
      <trkpt lat="51.02599" lon="2.35688">
        <ele>4.9</ele>
        <time>2020-06-23T10:53:38Z</time>
      </trkpt>
      <trkpt lat="51.02602" lon="2.35697">
        <ele>4.9</ele>
        <time>2020-06-23T10:53:39Z</time>
      </trkpt>
      <trkpt lat="51.02604" lon="2.35707">
        <ele>4.9</ele>
        <time>2020-06-23T10:53:40Z</time>
      </trkpt>
      <trkpt lat="51.02607" lon="2.35719">
        <ele>4.8</ele>
        <time>2020-06-23T10:53:41Z</time>
      </trkpt>
      <trkpt lat="51.02609" lon="2.35729">
        <ele>4.8</ele>
        <time>2020-06-23T10:53:42Z</time>
      </trkpt>
      <trkpt lat="51.02611" lon="2.35737">
        <ele>4.7</ele>
        <time>2020-06-23T10:53:43Z</time>
      </trkpt>
      <trkpt lat="51.02612" lon="2.35745">
        <ele>4.7</ele>
        <time>2020-06-23T10:53:44Z</time>
      </trkpt>
      <trkpt lat="51.02616" lon="2.35755">
        <ele>4.7</ele>
        <time>2020-06-23T10:53:45Z</time>
      </trkpt>
      <trkpt lat="51.02618" lon="2.35766">
        <ele>4.7</ele>
        <time>2020-06-23T10:53:46Z</time>
      </trkpt>
      <trkpt lat="51.0262" lon="2.35775">
        <ele>4.7</ele>
        <time>2020-06-23T10:53:47Z</time>
      </trkpt>
      <trkpt lat="51.0262" lon="2.3578">
        <ele>4.7</ele>
        <time>2020-06-23T10:53:48Z</time>
      </trkpt>
      <trkpt lat="51.02622" lon="2.35791">
        <ele>4.7</ele>
        <time>2020-06-23T10:53:49Z</time>
      </trkpt>
      <trkpt lat="51.02624" lon="2.35801">
        <ele>4.7</ele>
        <time>2020-06-23T10:53:50Z</time>
      </trkpt>
      <trkpt lat="51.02626" lon="2.35811">
        <ele>4.7</ele>
        <time>2020-06-23T10:53:51Z</time>
      </trkpt>
      <trkpt lat="51.02627" lon="2.35819">
        <ele>4.7</ele>
        <time>2020-06-23T10:53:52Z</time>
      </trkpt>
      <trkpt lat="51.02629" lon="2.35825">
        <ele>4.7</ele>
        <time>2020-06-23T10:53:53Z</time>
      </trkpt>
      <trkpt lat="51.02631" lon="2.35834">
        <ele>4.7</ele>
        <time>2020-06-23T10:53:54Z</time>
      </trkpt>
      <trkpt lat="51.02632" lon="2.35842">
        <ele>4.7</ele>
        <time>2020-06-23T10:53:55Z</time>
      </trkpt>
      <trkpt lat="51.02634" lon="2.3585">
        <ele>4.7</ele>
        <time>2020-06-23T10:53:56Z</time>
      </trkpt>
      <trkpt lat="51.02636" lon="2.35861">
        <ele>4.7</ele>
        <time>2020-06-23T10:53:57Z</time>
      </trkpt>
      <trkpt lat="51.02638" lon="2.3587">
        <ele>4.7</ele>
        <time>2020-06-23T10:53:58Z</time>
      </trkpt>
      <trkpt lat="51.0264" lon="2.35878">
        <ele>4.7</ele>
        <time>2020-06-23T10:53:59Z</time>
      </trkpt>
      <trkpt lat="51.02641" lon="2.35886">
        <ele>4.7</ele>
        <time>2020-06-23T10:54:00Z</time>
      </trkpt>
      <trkpt lat="51.02643" lon="2.35894">
        <ele>4.7</ele>
        <time>2020-06-23T10:54:01Z</time>
      </trkpt>
      <trkpt lat="51.02645" lon="2.35902">
        <ele>4.7</ele>
        <time>2020-06-23T10:54:02Z</time>
      </trkpt>
      <trkpt lat="51.02648" lon="2.3591">
        <ele>4.8</ele>
        <time>2020-06-23T10:54:03Z</time>
      </trkpt>
      <trkpt lat="51.0265" lon="2.35916">
        <ele>4.8</ele>
        <time>2020-06-23T10:54:04Z</time>
      </trkpt>
      <trkpt lat="51.02653" lon="2.35923">
        <ele>4.9</ele>
        <time>2020-06-23T10:54:05Z</time>
      </trkpt>
      <trkpt lat="51.02655" lon="2.35933">
        <ele>5</ele>
        <time>2020-06-23T10:54:06Z</time>
      </trkpt>
      <trkpt lat="51.02657" lon="2.35941">
        <ele>5.1</ele>
        <time>2020-06-23T10:54:07Z</time>
      </trkpt>
      <trkpt lat="51.02658" lon="2.35948">
        <ele>5.2</ele>
        <time>2020-06-23T10:54:08Z</time>
      </trkpt>
      <trkpt lat="51.0266" lon="2.35954">
        <ele>5.2</ele>
        <time>2020-06-23T10:54:09Z</time>
      </trkpt>
      <trkpt lat="51.02662" lon="2.35962">
        <ele>5.3</ele>
        <time>2020-06-23T10:54:10Z</time>
      </trkpt>
      <trkpt lat="51.02664" lon="2.3597">
        <ele>5.4</ele>
        <time>2020-06-23T10:54:11Z</time>
      </trkpt>
      <trkpt lat="51.02666" lon="2.35977">
        <ele>5.5</ele>
        <time>2020-06-23T10:54:12Z</time>
      </trkpt>
      <trkpt lat="51.02668" lon="2.35982">
        <ele>5.5</ele>
        <time>2020-06-23T10:54:13Z</time>
      </trkpt>
      <trkpt lat="51.02672" lon="2.35984">
        <ele>5.5</ele>
        <time>2020-06-23T10:54:14Z</time>
      </trkpt>
      <trkpt lat="51.02676" lon="2.35983">
        <ele>5.7</ele>
        <time>2020-06-23T10:54:15Z</time>
      </trkpt>
      <trkpt lat="51.02682" lon="2.35978">
        <ele>5.7</ele>
        <time>2020-06-23T10:54:16Z</time>
      </trkpt>
      <trkpt lat="51.02688" lon="2.35975">
        <ele>5.7</ele>
        <time>2020-06-23T10:54:17Z</time>
      </trkpt>
      <trkpt lat="51.02694" lon="2.35971">
        <ele>5.6</ele>
        <time>2020-06-23T10:54:18Z</time>
      </trkpt>
      <trkpt lat="51.027" lon="2.35968">
        <ele>5.6</ele>
        <time>2020-06-23T10:54:19Z</time>
      </trkpt>
      <trkpt lat="51.02706" lon="2.35964">
        <ele>5.5</ele>
        <time>2020-06-23T10:54:20Z</time>
      </trkpt>
      <trkpt lat="51.02711" lon="2.35962">
        <ele>5.3</ele>
        <time>2020-06-23T10:54:21Z</time>
      </trkpt>
      <trkpt lat="51.02717" lon="2.35959">
        <ele>5.2</ele>
        <time>2020-06-23T10:54:22Z</time>
      </trkpt>
      <trkpt lat="51.02723" lon="2.35956">
        <ele>5</ele>
        <time>2020-06-23T10:54:23Z</time>
      </trkpt>
      <trkpt lat="51.02728" lon="2.35952">
        <ele>4.8</ele>
        <time>2020-06-23T10:54:24Z</time>
      </trkpt>
      <trkpt lat="51.02733" lon="2.35948">
        <ele>4.7</ele>
        <time>2020-06-23T10:54:25Z</time>
      </trkpt>
      <trkpt lat="51.02738" lon="2.35946">
        <ele>4.6</ele>
        <time>2020-06-23T10:54:26Z</time>
      </trkpt>
      <trkpt lat="51.02743" lon="2.35945">
        <ele>4.4</ele>
        <time>2020-06-23T10:54:27Z</time>
      </trkpt>
      <trkpt lat="51.02749" lon="2.35943">
        <ele>4.3</ele>
        <time>2020-06-23T10:54:28Z</time>
      </trkpt>
      <trkpt lat="51.02754" lon="2.35941">
        <ele>4.2</ele>
        <time>2020-06-23T10:54:29Z</time>
      </trkpt>
      <trkpt lat="51.0276" lon="2.3594">
        <ele>4.1</ele>
        <time>2020-06-23T10:54:30Z</time>
      </trkpt>
      <trkpt lat="51.02767" lon="2.35939">
        <ele>4</ele>
        <time>2020-06-23T10:54:31Z</time>
      </trkpt>
      <trkpt lat="51.02774" lon="2.35937">
        <ele>3.9</ele>
        <time>2020-06-23T10:54:32Z</time>
      </trkpt>
      <trkpt lat="51.02781" lon="2.35935">
        <ele>3.8</ele>
        <time>2020-06-23T10:54:33Z</time>
      </trkpt>
      <trkpt lat="51.02786" lon="2.35933">
        <ele>3.7</ele>
        <time>2020-06-23T10:54:34Z</time>
      </trkpt>
      <trkpt lat="51.02791" lon="2.3593">
        <ele>3.6</ele>
        <time>2020-06-23T10:54:35Z</time>
      </trkpt>
      <trkpt lat="51.02797" lon="2.35928">
        <ele>3.6</ele>
        <time>2020-06-23T10:54:36Z</time>
      </trkpt>
      <trkpt lat="51.02803" lon="2.35927">
        <ele>3.7</ele>
        <time>2020-06-23T10:54:37Z</time>
      </trkpt>
      <trkpt lat="51.02809" lon="2.35926">
        <ele>3.7</ele>
        <time>2020-06-23T10:54:38Z</time>
      </trkpt>
      <trkpt lat="51.02814" lon="2.35924">
        <ele>3.8</ele>
        <time>2020-06-23T10:54:39Z</time>
      </trkpt>
      <trkpt lat="51.0282" lon="2.35923">
        <ele>3.8</ele>
        <time>2020-06-23T10:54:40Z</time>
      </trkpt>
      <trkpt lat="51.02827" lon="2.35923">
        <ele>3.9</ele>
        <time>2020-06-23T10:54:41Z</time>
      </trkpt>
      <trkpt lat="51.02832" lon="2.35921">
        <ele>4</ele>
        <time>2020-06-23T10:54:42Z</time>
      </trkpt>
      <trkpt lat="51.02837" lon="2.35918">
        <ele>4</ele>
        <time>2020-06-23T10:54:43Z</time>
      </trkpt>
      <trkpt lat="51.02843" lon="2.35916">
        <ele>4.1</ele>
        <time>2020-06-23T10:54:44Z</time>
      </trkpt>
      <trkpt lat="51.02847" lon="2.35914">
        <ele>4.2</ele>
        <time>2020-06-23T10:54:45Z</time>
      </trkpt>
      <trkpt lat="51.02852" lon="2.35912">
        <ele>4.3</ele>
        <time>2020-06-23T10:54:46Z</time>
      </trkpt>
      <trkpt lat="51.02857" lon="2.3592">
        <ele>4.3</ele>
        <time>2020-06-23T10:54:47Z</time>
      </trkpt>
      <trkpt lat="51.02861" lon="2.35926">
        <ele>4.4</ele>
        <time>2020-06-23T10:54:48Z</time>
      </trkpt>
      <trkpt lat="51.02862" lon="2.35936">
        <ele>4.4</ele>
        <time>2020-06-23T10:54:49Z</time>
      </trkpt>
      <trkpt lat="51.02862" lon="2.35947">
        <ele>4.4</ele>
        <time>2020-06-23T10:54:50Z</time>
      </trkpt>
      <trkpt lat="51.02862" lon="2.35956">
        <ele>4.3</ele>
        <time>2020-06-23T10:54:51Z</time>
      </trkpt>
      <trkpt lat="51.02863" lon="2.35966">
        <ele>4.2</ele>
        <time>2020-06-23T10:54:52Z</time>
      </trkpt>
      <trkpt lat="51.02864" lon="2.35976">
        <ele>4.1</ele>
        <time>2020-06-23T10:54:53Z</time>
      </trkpt>
      <trkpt lat="51.02864" lon="2.35985">
        <ele>4.1</ele>
        <time>2020-06-23T10:54:54Z</time>
      </trkpt>
      <trkpt lat="51.02864" lon="2.35995">
        <ele>3.9</ele>
        <time>2020-06-23T10:54:55Z</time>
      </trkpt>
      <trkpt lat="51.02864" lon="2.36003">
        <ele>3.8</ele>
        <time>2020-06-23T10:54:56Z</time>
      </trkpt>
      <trkpt lat="51.02864" lon="2.36012">
        <ele>3.7</ele>
        <time>2020-06-23T10:54:57Z</time>
      </trkpt>
      <trkpt lat="51.02864" lon="2.36022">
        <ele>3.6</ele>
        <time>2020-06-23T10:54:58Z</time>
      </trkpt>
      <trkpt lat="51.02865" lon="2.36032">
        <ele>3.6</ele>
        <time>2020-06-23T10:54:59Z</time>
      </trkpt>
      <trkpt lat="51.02865" lon="2.36044">
        <ele>3.6</ele>
        <time>2020-06-23T10:55:00Z</time>
      </trkpt>
      <trkpt lat="51.02866" lon="2.36054">
        <ele>3.5</ele>
        <time>2020-06-23T10:55:01Z</time>
      </trkpt>
      <trkpt lat="51.02866" lon="2.36063">
        <ele>3.6</ele>
        <time>2020-06-23T10:55:02Z</time>
      </trkpt>
      <trkpt lat="51.02867" lon="2.36073">
        <ele>3.6</ele>
        <time>2020-06-23T10:55:03Z</time>
      </trkpt>
      <trkpt lat="51.02867" lon="2.36083">
        <ele>3.5</ele>
        <time>2020-06-23T10:55:04Z</time>
      </trkpt>
      <trkpt lat="51.02867" lon="2.36095">
        <ele>3.5</ele>
        <time>2020-06-23T10:55:05Z</time>
      </trkpt>
      <trkpt lat="51.02868" lon="2.36103">
        <ele>3.4</ele>
        <time>2020-06-23T10:55:06Z</time>
      </trkpt>
      <trkpt lat="51.02869" lon="2.36112">
        <ele>3.4</ele>
        <time>2020-06-23T10:55:07Z</time>
      </trkpt>
      <trkpt lat="51.02871" lon="2.36121">
        <ele>3.4</ele>
        <time>2020-06-23T10:55:08Z</time>
      </trkpt>
      <trkpt lat="51.02873" lon="2.36132">
        <ele>3.4</ele>
        <time>2020-06-23T10:55:09Z</time>
      </trkpt>
      <trkpt lat="51.02874" lon="2.36142">
        <ele>3.4</ele>
        <time>2020-06-23T10:55:10Z</time>
      </trkpt>
      <trkpt lat="51.02876" lon="2.3615">
        <ele>3.5</ele>
        <time>2020-06-23T10:55:11Z</time>
      </trkpt>
      <trkpt lat="51.02877" lon="2.3616">
        <ele>3.5</ele>
        <time>2020-06-23T10:55:12Z</time>
      </trkpt>
      <trkpt lat="51.02879" lon="2.36169">
        <ele>3.5</ele>
        <time>2020-06-23T10:55:13Z</time>
      </trkpt>
      <trkpt lat="51.0288" lon="2.3618">
        <ele>3.6</ele>
        <time>2020-06-23T10:55:14Z</time>
      </trkpt>
      <trkpt lat="51.02881" lon="2.36188">
        <ele>3.6</ele>
        <time>2020-06-23T10:55:15Z</time>
      </trkpt>
      <trkpt lat="51.02882" lon="2.36198">
        <ele>3.6</ele>
        <time>2020-06-23T10:55:16Z</time>
      </trkpt>
      <trkpt lat="51.02883" lon="2.36209">
        <ele>3.7</ele>
        <time>2020-06-23T10:55:17Z</time>
      </trkpt>
      <trkpt lat="51.02882" lon="2.36219">
        <ele>3.7</ele>
        <time>2020-06-23T10:55:18Z</time>
      </trkpt>
      <trkpt lat="51.02881" lon="2.36229">
        <ele>3.7</ele>
        <time>2020-06-23T10:55:19Z</time>
      </trkpt>
      <trkpt lat="51.02881" lon="2.36241">
        <ele>3.6</ele>
        <time>2020-06-23T10:55:20Z</time>
      </trkpt>
      <trkpt lat="51.02879" lon="2.36249">
        <ele>3.7</ele>
        <time>2020-06-23T10:55:21Z</time>
      </trkpt>
      <trkpt lat="51.02878" lon="2.36258">
        <ele>3.8</ele>
        <time>2020-06-23T10:55:22Z</time>
      </trkpt>
      <trkpt lat="51.02877" lon="2.36266">
        <ele>3.9</ele>
        <time>2020-06-23T10:55:23Z</time>
      </trkpt>
      <trkpt lat="51.02876" lon="2.36273">
        <ele>3.9</ele>
        <time>2020-06-23T10:55:24Z</time>
      </trkpt>
      <trkpt lat="51.02875" lon="2.3628">
        <ele>4.1</ele>
        <time>2020-06-23T10:55:25Z</time>
      </trkpt>
      <trkpt lat="51.02874" lon="2.36287">
        <ele>4.3</ele>
        <time>2020-06-23T10:55:26Z</time>
      </trkpt>
      <trkpt lat="51.02873" lon="2.36295">
        <ele>4.5</ele>
        <time>2020-06-23T10:55:27Z</time>
      </trkpt>
      <trkpt lat="51.02872" lon="2.36305">
        <ele>4.8</ele>
        <time>2020-06-23T10:55:28Z</time>
      </trkpt>
      <trkpt lat="51.02871" lon="2.36315">
        <ele>5.2</ele>
        <time>2020-06-23T10:55:29Z</time>
      </trkpt>
      <trkpt lat="51.02871" lon="2.36323">
        <ele>5.3</ele>
        <time>2020-06-23T10:55:30Z</time>
      </trkpt>
      <trkpt lat="51.0287" lon="2.3633">
        <ele>5.3</ele>
        <time>2020-06-23T10:55:31Z</time>
      </trkpt>
      <trkpt lat="51.0287" lon="2.36339">
        <ele>5.2</ele>
        <time>2020-06-23T10:55:32Z</time>
      </trkpt>
      <trkpt lat="51.0287" lon="2.36347">
        <ele>5.2</ele>
        <time>2020-06-23T10:55:33Z</time>
      </trkpt>
      <trkpt lat="51.02869" lon="2.36355">
        <ele>5.1</ele>
        <time>2020-06-23T10:55:34Z</time>
      </trkpt>
      <trkpt lat="51.02869" lon="2.36363">
        <ele>5.1</ele>
        <time>2020-06-23T10:55:35Z</time>
      </trkpt>
      <trkpt lat="51.02868" lon="2.3637">
        <ele>5.1</ele>
        <time>2020-06-23T10:55:36Z</time>
      </trkpt>
      <trkpt lat="51.02867" lon="2.36375">
        <ele>5.1</ele>
        <time>2020-06-23T10:55:37Z</time>
      </trkpt>
      <trkpt lat="51.02866" lon="2.36381">
        <ele>5.1</ele>
        <time>2020-06-23T10:55:38Z</time>
      </trkpt>
      <trkpt lat="51.02866" lon="2.36389">
        <ele>5.2</ele>
        <time>2020-06-23T10:55:39Z</time>
      </trkpt>
      <trkpt lat="51.02866" lon="2.36398">
        <ele>5.2</ele>
        <time>2020-06-23T10:55:40Z</time>
      </trkpt>
      <trkpt lat="51.02866" lon="2.36407">
        <ele>5.2</ele>
        <time>2020-06-23T10:55:41Z</time>
      </trkpt>
      <trkpt lat="51.02867" lon="2.36415">
        <ele>5.3</ele>
        <time>2020-06-23T10:55:42Z</time>
      </trkpt>
      <trkpt lat="51.02867" lon="2.36423">
        <ele>5.3</ele>
        <time>2020-06-23T10:55:43Z</time>
      </trkpt>
      <trkpt lat="51.02868" lon="2.36433">
        <ele>5.3</ele>
        <time>2020-06-23T10:55:44Z</time>
      </trkpt>
      <trkpt lat="51.02868" lon="2.3644">
        <ele>5.4</ele>
        <time>2020-06-23T10:55:45Z</time>
      </trkpt>
      <trkpt lat="51.02869" lon="2.36448">
        <ele>5.4</ele>
        <time>2020-06-23T10:55:46Z</time>
      </trkpt>
      <trkpt lat="51.0287" lon="2.36457">
        <ele>5.4</ele>
        <time>2020-06-23T10:55:47Z</time>
      </trkpt>
      <trkpt lat="51.0287" lon="2.36465">
        <ele>5.5</ele>
        <time>2020-06-23T10:55:48Z</time>
      </trkpt>
      <trkpt lat="51.02869" lon="2.36472">
        <ele>5.5</ele>
        <time>2020-06-23T10:55:49Z</time>
      </trkpt>
      <trkpt lat="51.02868" lon="2.36479">
        <ele>5.6</ele>
        <time>2020-06-23T10:55:50Z</time>
      </trkpt>
      <trkpt lat="51.02867" lon="2.36486">
        <ele>5.6</ele>
        <time>2020-06-23T10:55:51Z</time>
      </trkpt>
      <trkpt lat="51.02867" lon="2.36493">
        <ele>5.6</ele>
        <time>2020-06-23T10:55:52Z</time>
      </trkpt>
      <trkpt lat="51.02867" lon="2.36499">
        <ele>5.6</ele>
        <time>2020-06-23T10:55:53Z</time>
      </trkpt>
      <trkpt lat="51.02867" lon="2.36505">
        <ele>5.7</ele>
        <time>2020-06-23T10:55:54Z</time>
      </trkpt>
      <trkpt lat="51.02867" lon="2.3651">
        <ele>5.4</ele>
        <time>2020-06-23T10:55:55Z</time>
      </trkpt>
      <trkpt lat="51.02867" lon="2.36511">
        <ele>5.4</ele>
        <time>2020-06-23T10:55:56Z</time>
      </trkpt>
      <trkpt lat="51.02866" lon="2.36515">
        <ele>5.4</ele>
        <time>2020-06-23T10:55:57Z</time>
      </trkpt>
      <trkpt lat="51.02865" lon="2.36517">
        <ele>5.3</ele>
        <time>2020-06-23T10:55:58Z</time>
      </trkpt>
      <trkpt lat="51.02863" lon="2.3652">
        <ele>5.3</ele>
        <time>2020-06-23T10:55:59Z</time>
      </trkpt>
      <trkpt lat="51.02862" lon="2.36522">
        <ele>5.3</ele>
        <time>2020-06-23T10:56:00Z</time>
      </trkpt>
      <trkpt lat="51.02862" lon="2.36528">
        <ele>5.3</ele>
        <time>2020-06-23T10:56:01Z</time>
      </trkpt>
      <trkpt lat="51.02864" lon="2.36534">
        <ele>5.3</ele>
        <time>2020-06-23T10:56:02Z</time>
      </trkpt>
      <trkpt lat="51.02866" lon="2.36538">
        <ele>5.3</ele>
        <time>2020-06-23T10:56:03Z</time>
      </trkpt>
      <trkpt lat="51.02868" lon="2.36545">
        <ele>5.3</ele>
        <time>2020-06-23T10:56:04Z</time>
      </trkpt>
      <trkpt lat="51.02869" lon="2.36551">
        <ele>5.3</ele>
        <time>2020-06-23T10:56:05Z</time>
      </trkpt>
      <trkpt lat="51.02871" lon="2.36559">
        <ele>5.2</ele>
        <time>2020-06-23T10:56:06Z</time>
      </trkpt>
      <trkpt lat="51.02873" lon="2.36565">
        <ele>5.2</ele>
        <time>2020-06-23T10:56:07Z</time>
      </trkpt>
      <trkpt lat="51.02874" lon="2.36571">
        <ele>5.2</ele>
        <time>2020-06-23T10:56:08Z</time>
      </trkpt>
      <trkpt lat="51.02874" lon="2.36576">
        <ele>5.2</ele>
        <time>2020-06-23T10:56:09Z</time>
      </trkpt>
      <trkpt lat="51.02876" lon="2.36582">
        <ele>5.2</ele>
        <time>2020-06-23T10:56:10Z</time>
      </trkpt>
      <trkpt lat="51.02876" lon="2.36585">
        <ele>5.2</ele>
        <time>2020-06-23T10:56:11Z</time>
      </trkpt>
      <trkpt lat="51.02877" lon="2.36591">
        <ele>5.1</ele>
        <time>2020-06-23T10:56:12Z</time>
      </trkpt>
      <trkpt lat="51.02879" lon="2.36596">
        <ele>5.1</ele>
        <time>2020-06-23T10:56:13Z</time>
      </trkpt>
      <trkpt lat="51.0288" lon="2.36603">
        <ele>5</ele>
        <time>2020-06-23T10:56:14Z</time>
      </trkpt>
      <trkpt lat="51.02881" lon="2.3661">
        <ele>4.9</ele>
        <time>2020-06-23T10:56:15Z</time>
      </trkpt>
      <trkpt lat="51.02883" lon="2.36616">
        <ele>4.8</ele>
        <time>2020-06-23T10:56:16Z</time>
      </trkpt>
      <trkpt lat="51.02885" lon="2.36622">
        <ele>4.6</ele>
        <time>2020-06-23T10:56:17Z</time>
      </trkpt>
      <trkpt lat="51.02887" lon="2.3663">
        <ele>4.4</ele>
        <time>2020-06-23T10:56:18Z</time>
      </trkpt>
      <trkpt lat="51.02888" lon="2.3664">
        <ele>4.1</ele>
        <time>2020-06-23T10:56:19Z</time>
      </trkpt>
      <trkpt lat="51.02889" lon="2.36649">
        <ele>3.8</ele>
        <time>2020-06-23T10:56:20Z</time>
      </trkpt>
      <trkpt lat="51.0289" lon="2.36657">
        <ele>3.6</ele>
        <time>2020-06-23T10:56:21Z</time>
      </trkpt>
      <trkpt lat="51.02891" lon="2.36666">
        <ele>3.4</ele>
        <time>2020-06-23T10:56:22Z</time>
      </trkpt>
      <trkpt lat="51.02893" lon="2.36676">
        <ele>3.2</ele>
        <time>2020-06-23T10:56:23Z</time>
      </trkpt>
      <trkpt lat="51.02894" lon="2.36685">
        <ele>3</ele>
        <time>2020-06-23T10:56:24Z</time>
      </trkpt>
      <trkpt lat="51.02895" lon="2.36696">
        <ele>2.8</ele>
        <time>2020-06-23T10:56:25Z</time>
      </trkpt>
      <trkpt lat="51.02897" lon="2.36706">
        <ele>2.7</ele>
        <time>2020-06-23T10:56:26Z</time>
      </trkpt>
      <trkpt lat="51.02899" lon="2.36715">
        <ele>2.6</ele>
        <time>2020-06-23T10:56:27Z</time>
      </trkpt>
      <trkpt lat="51.02901" lon="2.36725">
        <ele>2.5</ele>
        <time>2020-06-23T10:56:28Z</time>
      </trkpt>
      <trkpt lat="51.02901" lon="2.36732">
        <ele>2.4</ele>
        <time>2020-06-23T10:56:29Z</time>
      </trkpt>
      <trkpt lat="51.02902" lon="2.36742">
        <ele>2.3</ele>
        <time>2020-06-23T10:56:30Z</time>
      </trkpt>
      <trkpt lat="51.02904" lon="2.36752">
        <ele>2.2</ele>
        <time>2020-06-23T10:56:31Z</time>
      </trkpt>
      <trkpt lat="51.02906" lon="2.36761">
        <ele>2.1</ele>
        <time>2020-06-23T10:56:32Z</time>
      </trkpt>
      <trkpt lat="51.02908" lon="2.3677">
        <ele>2</ele>
        <time>2020-06-23T10:56:33Z</time>
      </trkpt>
      <trkpt lat="51.02908" lon="2.36778">
        <ele>1.8</ele>
        <time>2020-06-23T10:56:34Z</time>
      </trkpt>
      <trkpt lat="51.0291" lon="2.36787">
        <ele>1.6</ele>
        <time>2020-06-23T10:56:35Z</time>
      </trkpt>
      <trkpt lat="51.02911" lon="2.36795">
        <ele>1.5</ele>
        <time>2020-06-23T10:56:36Z</time>
      </trkpt>
      <trkpt lat="51.02913" lon="2.36803">
        <ele>1.4</ele>
        <time>2020-06-23T10:56:37Z</time>
      </trkpt>
      <trkpt lat="51.02914" lon="2.36812">
        <ele>1.3</ele>
        <time>2020-06-23T10:56:38Z</time>
      </trkpt>
      <trkpt lat="51.02915" lon="2.36821">
        <ele>1.2</ele>
        <time>2020-06-23T10:56:39Z</time>
      </trkpt>
      <trkpt lat="51.02914" lon="2.36826">
        <ele>1.1</ele>
        <time>2020-06-23T10:56:40Z</time>
      </trkpt>
      <trkpt lat="51.02915" lon="2.36831">
        <ele>1.1</ele>
        <time>2020-06-23T10:56:41Z</time>
      </trkpt>
      <trkpt lat="51.02916" lon="2.36841">
        <ele>1</ele>
        <time>2020-06-23T10:56:42Z</time>
      </trkpt>
      <trkpt lat="51.02917" lon="2.36849">
        <ele>1</ele>
        <time>2020-06-23T10:56:43Z</time>
      </trkpt>
      <trkpt lat="51.02918" lon="2.36859">
        <ele>1</ele>
        <time>2020-06-23T10:56:44Z</time>
      </trkpt>
      <trkpt lat="51.02919" lon="2.36867">
        <ele>1</ele>
        <time>2020-06-23T10:56:45Z</time>
      </trkpt>
      <trkpt lat="51.0292" lon="2.36878">
        <ele>1</ele>
        <time>2020-06-23T10:56:46Z</time>
      </trkpt>
      <trkpt lat="51.02923" lon="2.36888">
        <ele>1</ele>
        <time>2020-06-23T10:56:47Z</time>
      </trkpt>
      <trkpt lat="51.02926" lon="2.36898">
        <ele>1.1</ele>
        <time>2020-06-23T10:56:48Z</time>
      </trkpt>
      <trkpt lat="51.02928" lon="2.36906">
        <ele>1.1</ele>
        <time>2020-06-23T10:56:49Z</time>
      </trkpt>
      <trkpt lat="51.0293" lon="2.36916">
        <ele>1.1</ele>
        <time>2020-06-23T10:56:50Z</time>
      </trkpt>
      <trkpt lat="51.02932" lon="2.36924">
        <ele>1.1</ele>
        <time>2020-06-23T10:56:51Z</time>
      </trkpt>
      <trkpt lat="51.02934" lon="2.36932">
        <ele>1.1</ele>
        <time>2020-06-23T10:56:52Z</time>
      </trkpt>
      <trkpt lat="51.02936" lon="2.36944">
        <ele>1</ele>
        <time>2020-06-23T10:56:53Z</time>
      </trkpt>
      <trkpt lat="51.02938" lon="2.36955">
        <ele>1</ele>
        <time>2020-06-23T10:56:54Z</time>
      </trkpt>
      <trkpt lat="51.02942" lon="2.36965">
        <ele>1</ele>
        <time>2020-06-23T10:56:55Z</time>
      </trkpt>
      <trkpt lat="51.02944" lon="2.36973">
        <ele>1</ele>
        <time>2020-06-23T10:56:56Z</time>
      </trkpt>
      <trkpt lat="51.02947" lon="2.36979">
        <ele>1</ele>
        <time>2020-06-23T10:56:57Z</time>
      </trkpt>
      <trkpt lat="51.0295" lon="2.36987">
        <ele>1</ele>
        <time>2020-06-23T10:56:58Z</time>
      </trkpt>
      <trkpt lat="51.02953" lon="2.36995">
        <ele>1.1</ele>
        <time>2020-06-23T10:56:59Z</time>
      </trkpt>
      <trkpt lat="51.02955" lon="2.37003">
        <ele>1.1</ele>
        <time>2020-06-23T10:57:00Z</time>
      </trkpt>
      <trkpt lat="51.02957" lon="2.37009">
        <ele>1.2</ele>
        <time>2020-06-23T10:57:01Z</time>
      </trkpt>
      <trkpt lat="51.02959" lon="2.37016">
        <ele>1.2</ele>
        <time>2020-06-23T10:57:02Z</time>
      </trkpt>
      <trkpt lat="51.02961" lon="2.37025">
        <ele>1.3</ele>
        <time>2020-06-23T10:57:03Z</time>
      </trkpt>
      <trkpt lat="51.02963" lon="2.37034">
        <ele>1.4</ele>
        <time>2020-06-23T10:57:04Z</time>
      </trkpt>
      <trkpt lat="51.02965" lon="2.37041">
        <ele>1.5</ele>
        <time>2020-06-23T10:57:05Z</time>
      </trkpt>
      <trkpt lat="51.02967" lon="2.37049">
        <ele>1.6</ele>
        <time>2020-06-23T10:57:06Z</time>
      </trkpt>
      <trkpt lat="51.02969" lon="2.37053">
        <ele>1.7</ele>
        <time>2020-06-23T10:57:07Z</time>
      </trkpt>
      <trkpt lat="51.02971" lon="2.3706">
        <ele>1.8</ele>
        <time>2020-06-23T10:57:08Z</time>
      </trkpt>
      <trkpt lat="51.02974" lon="2.37064">
        <ele>1.9</ele>
        <time>2020-06-23T10:57:09Z</time>
      </trkpt>
      <trkpt lat="51.02978" lon="2.37066">
        <ele>2.3</ele>
        <time>2020-06-23T10:57:10Z</time>
      </trkpt>
      <trkpt lat="51.02982" lon="2.37068">
        <ele>2.6</ele>
        <time>2020-06-23T10:57:11Z</time>
      </trkpt>
      <trkpt lat="51.02984" lon="2.37073">
        <ele>2.8</ele>
        <time>2020-06-23T10:57:12Z</time>
      </trkpt>
      <trkpt lat="51.02985" lon="2.37077">
        <ele>3</ele>
        <time>2020-06-23T10:57:13Z</time>
      </trkpt>
      <trkpt lat="51.02987" lon="2.37081">
        <ele>3.1</ele>
        <time>2020-06-23T10:57:14Z</time>
      </trkpt>
      <trkpt lat="51.02988" lon="2.37086">
        <ele>3.3</ele>
        <time>2020-06-23T10:57:15Z</time>
      </trkpt>
      <trkpt lat="51.02991" lon="2.37091">
        <ele>3.6</ele>
        <time>2020-06-23T10:57:16Z</time>
      </trkpt>
      <trkpt lat="51.02992" lon="2.37094">
        <ele>3.7</ele>
        <time>2020-06-23T10:57:17Z</time>
      </trkpt>
      <trkpt lat="51.02995" lon="2.37099">
        <ele>4</ele>
        <time>2020-06-23T10:57:18Z</time>
      </trkpt>
      <trkpt lat="51.02996" lon="2.37103">
        <ele>4.2</ele>
        <time>2020-06-23T10:57:19Z</time>
      </trkpt>
      <trkpt lat="51.02996" lon="2.37105">
        <ele>4.3</ele>
        <time>2020-06-23T10:57:20Z</time>
      </trkpt>
      <trkpt lat="51.02997" lon="2.37111">
        <ele>4.6</ele>
        <time>2020-06-23T10:57:21Z</time>
      </trkpt>
      <trkpt lat="51.02998" lon="2.37115">
        <ele>4.9</ele>
        <time>2020-06-23T10:57:22Z</time>
      </trkpt>
      <trkpt lat="51.02999" lon="2.3712">
        <ele>5.2</ele>
        <time>2020-06-23T10:57:23Z</time>
      </trkpt>
      <trkpt lat="51.03" lon="2.37124">
        <ele>5.7</ele>
        <time>2020-06-23T10:57:24Z</time>
      </trkpt>
      <trkpt lat="51.03001" lon="2.37126">
        <ele>5.7</ele>
        <time>2020-06-23T10:57:25Z</time>
      </trkpt>
      <trkpt lat="51.03002" lon="2.37128">
        <ele>5.7</ele>
        <time>2020-06-23T10:57:26Z</time>
      </trkpt>
      <trkpt lat="51.03003" lon="2.37129">
        <ele>5.7</ele>
        <time>2020-06-23T10:57:27Z</time>
      </trkpt>
      <trkpt lat="51.03006" lon="2.37129">
        <ele>5.8</ele>
        <time>2020-06-23T10:57:28Z</time>
      </trkpt>
      <trkpt lat="51.03008" lon="2.37128">
        <ele>5.8</ele>
        <time>2020-06-23T10:57:29Z</time>
      </trkpt>
      <trkpt lat="51.03011" lon="2.37128">
        <ele>5.8</ele>
        <time>2020-06-23T10:57:30Z</time>
      </trkpt>
      <trkpt lat="51.03014" lon="2.37128">
        <ele>5.8</ele>
        <time>2020-06-23T10:57:31Z</time>
      </trkpt>
      <trkpt lat="51.03019" lon="2.37129">
        <ele>5.7</ele>
        <time>2020-06-23T10:57:32Z</time>
      </trkpt>
      <trkpt lat="51.03021" lon="2.3713">
        <ele>5.7</ele>
        <time>2020-06-23T10:57:33Z</time>
      </trkpt>
      <trkpt lat="51.03023" lon="2.3713">
        <ele>5.7</ele>
        <time>2020-06-23T10:57:34Z</time>
      </trkpt>
      <trkpt lat="51.03027" lon="2.37131">
        <ele>5.7</ele>
        <time>2020-06-23T10:57:35Z</time>
      </trkpt>
      <trkpt lat="51.03031" lon="2.3713">
        <ele>5.6</ele>
        <time>2020-06-23T10:57:36Z</time>
      </trkpt>
      <trkpt lat="51.03034" lon="2.37129">
        <ele>5.6</ele>
        <time>2020-06-23T10:57:37Z</time>
      </trkpt>
      <trkpt lat="51.03037" lon="2.37127">
        <ele>5.6</ele>
        <time>2020-06-23T10:57:38Z</time>
      </trkpt>
      <trkpt lat="51.03039" lon="2.37127">
        <ele>5.6</ele>
        <time>2020-06-23T10:57:39Z</time>
      </trkpt>
      <trkpt lat="51.03043" lon="2.37125">
        <ele>5.5</ele>
        <time>2020-06-23T10:57:40Z</time>
      </trkpt>
      <trkpt lat="51.03044" lon="2.37125">
        <ele>5.5</ele>
        <time>2020-06-23T10:57:41Z</time>
      </trkpt>
      <trkpt lat="51.03048" lon="2.37124">
        <ele>5.5</ele>
        <time>2020-06-23T10:57:42Z</time>
      </trkpt>
      <trkpt lat="51.0305" lon="2.37124">
        <ele>5.5</ele>
        <time>2020-06-23T10:57:43Z</time>
      </trkpt>
      <trkpt lat="51.03054" lon="2.37123">
        <ele>5.5</ele>
        <time>2020-06-23T10:57:44Z</time>
      </trkpt>
      <trkpt lat="51.03057" lon="2.37122">
        <ele>5.5</ele>
        <time>2020-06-23T10:57:45Z</time>
      </trkpt>
      <trkpt lat="51.03061" lon="2.3712">
        <ele>5.5</ele>
        <time>2020-06-23T10:57:46Z</time>
      </trkpt>
      <trkpt lat="51.03065" lon="2.3712">
        <ele>5.5</ele>
        <time>2020-06-23T10:57:47Z</time>
      </trkpt>
      <trkpt lat="51.03069" lon="2.37119">
        <ele>5.5</ele>
        <time>2020-06-23T10:57:48Z</time>
      </trkpt>
      <trkpt lat="51.03072" lon="2.37118">
        <ele>5.5</ele>
        <time>2020-06-23T10:57:49Z</time>
      </trkpt>
      <trkpt lat="51.03075" lon="2.37118">
        <ele>5.5</ele>
        <time>2020-06-23T10:57:50Z</time>
      </trkpt>
      <trkpt lat="51.03076" lon="2.37118">
        <ele>5.5</ele>
        <time>2020-06-23T10:57:51Z</time>
      </trkpt>
      <trkpt lat="51.03079" lon="2.37118">
        <ele>5.5</ele>
        <time>2020-06-23T10:57:52Z</time>
      </trkpt>
      <trkpt lat="51.03082" lon="2.37123">
        <ele>5.5</ele>
        <time>2020-06-23T10:57:53Z</time>
      </trkpt>
      <trkpt lat="51.03082" lon="2.37125">
        <ele>5.5</ele>
        <time>2020-06-23T10:57:54Z</time>
      </trkpt>
      <trkpt lat="51.03084" lon="2.37129">
        <ele>5.5</ele>
        <time>2020-06-23T10:57:55Z</time>
      </trkpt>
      <trkpt lat="51.03085" lon="2.37135">
        <ele>5.5</ele>
        <time>2020-06-23T10:57:56Z</time>
      </trkpt>
      <trkpt lat="51.03085" lon="2.37137">
        <ele>5.5</ele>
        <time>2020-06-23T10:57:57Z</time>
      </trkpt>
      <trkpt lat="51.03086" lon="2.37142">
        <ele>5.5</ele>
        <time>2020-06-23T10:57:58Z</time>
      </trkpt>
      <trkpt lat="51.03087" lon="2.37144">
        <ele>5.5</ele>
        <time>2020-06-23T10:57:59Z</time>
      </trkpt>
      <trkpt lat="51.03088" lon="2.3715">
        <ele>5.5</ele>
        <time>2020-06-23T10:58:00Z</time>
      </trkpt>
      <trkpt lat="51.03088" lon="2.37154">
        <ele>5.5</ele>
        <time>2020-06-23T10:58:01Z</time>
      </trkpt>
      <trkpt lat="51.03089" lon="2.37163">
        <ele>5.5</ele>
        <time>2020-06-23T10:58:02Z</time>
      </trkpt>
      <trkpt lat="51.0309" lon="2.37167">
        <ele>5.5</ele>
        <time>2020-06-23T10:58:03Z</time>
      </trkpt>
      <trkpt lat="51.0309" lon="2.37172">
        <ele>5.4</ele>
        <time>2020-06-23T10:58:04Z</time>
      </trkpt>
      <trkpt lat="51.0309" lon="2.37174">
        <ele>5.4</ele>
        <time>2020-06-23T10:58:05Z</time>
      </trkpt>
      <trkpt lat="51.03092" lon="2.37179">
        <ele>5.4</ele>
        <time>2020-06-23T10:58:06Z</time>
      </trkpt>
      <trkpt lat="51.03093" lon="2.37184">
        <ele>5.4</ele>
        <time>2020-06-23T10:58:07Z</time>
      </trkpt>
      <trkpt lat="51.03094" lon="2.37187">
        <ele>5.3</ele>
        <time>2020-06-23T10:58:08Z</time>
      </trkpt>
      <trkpt lat="51.03094" lon="2.37192">
        <ele>5.3</ele>
        <time>2020-06-23T10:58:09Z</time>
      </trkpt>
      <trkpt lat="51.03094" lon="2.37193">
        <ele>5.3</ele>
        <time>2020-06-23T10:58:10Z</time>
      </trkpt>
      <trkpt lat="51.03095" lon="2.37197">
        <ele>5.3</ele>
        <time>2020-06-23T10:58:11Z</time>
      </trkpt>
      <trkpt lat="51.03094" lon="2.37198">
        <ele>5.3</ele>
        <time>2020-06-23T10:58:12Z</time>
      </trkpt>
      <trkpt lat="51.03094" lon="2.37199">
        <ele>5.3</ele>
        <time>2020-06-23T10:58:13Z</time>
      </trkpt>
      <trkpt lat="51.03094" lon="2.37202">
        <ele>5.2</ele>
        <time>2020-06-23T10:58:14Z</time>
      </trkpt>
      <trkpt lat="51.03093" lon="2.37204">
        <ele>5.2</ele>
        <time>2020-06-23T10:58:15Z</time>
      </trkpt>
      <trkpt lat="51.03092" lon="2.37209">
        <ele>5.2</ele>
        <time>2020-06-23T10:58:16Z</time>
      </trkpt>
      <trkpt lat="51.03092" lon="2.37217">
        <ele>5.2</ele>
        <time>2020-06-23T10:58:17Z</time>
      </trkpt>
      <trkpt lat="51.03093" lon="2.37225">
        <ele>5.1</ele>
        <time>2020-06-23T10:58:18Z</time>
      </trkpt>
      <trkpt lat="51.03095" lon="2.3723">
        <ele>5.1</ele>
        <time>2020-06-23T10:58:19Z</time>
      </trkpt>
      <trkpt lat="51.03097" lon="2.37237">
        <ele>5</ele>
        <time>2020-06-23T10:58:20Z</time>
      </trkpt>
      <trkpt lat="51.03099" lon="2.37242">
        <ele>5</ele>
        <time>2020-06-23T10:58:21Z</time>
      </trkpt>
      <trkpt lat="51.03101" lon="2.37248">
        <ele>4.9</ele>
        <time>2020-06-23T10:58:22Z</time>
      </trkpt>
      <trkpt lat="51.03102" lon="2.37253">
        <ele>4.9</ele>
        <time>2020-06-23T10:58:23Z</time>
      </trkpt>
      <trkpt lat="51.03103" lon="2.37257">
        <ele>4.8</ele>
        <time>2020-06-23T10:58:24Z</time>
      </trkpt>
      <trkpt lat="51.03105" lon="2.37261">
        <ele>4.8</ele>
        <time>2020-06-23T10:58:25Z</time>
      </trkpt>
      <trkpt lat="51.03105" lon="2.37263">
        <ele>4.8</ele>
        <time>2020-06-23T10:58:26Z</time>
      </trkpt>
      <trkpt lat="51.03108" lon="2.37266">
        <ele>4.8</ele>
        <time>2020-06-23T10:58:27Z</time>
      </trkpt>
      <trkpt lat="51.0311" lon="2.37273">
        <ele>4.7</ele>
        <time>2020-06-23T10:58:28Z</time>
      </trkpt>
      <trkpt lat="51.0311" lon="2.37276">
        <ele>4.7</ele>
        <time>2020-06-23T10:58:29Z</time>
      </trkpt>
      <trkpt lat="51.03111" lon="2.37282">
        <ele>4.7</ele>
        <time>2020-06-23T10:58:30Z</time>
      </trkpt>
      <trkpt lat="51.03113" lon="2.37288">
        <ele>4.6</ele>
        <time>2020-06-23T10:58:31Z</time>
      </trkpt>
      <trkpt lat="51.03115" lon="2.37294">
        <ele>4.6</ele>
        <time>2020-06-23T10:58:32Z</time>
      </trkpt>
      <trkpt lat="51.03116" lon="2.373">
        <ele>4.5</ele>
        <time>2020-06-23T10:58:33Z</time>
      </trkpt>
      <trkpt lat="51.03118" lon="2.37306">
        <ele>4.5</ele>
        <time>2020-06-23T10:58:34Z</time>
      </trkpt>
      <trkpt lat="51.0312" lon="2.37313">
        <ele>4.4</ele>
        <time>2020-06-23T10:58:35Z</time>
      </trkpt>
      <trkpt lat="51.03121" lon="2.3732">
        <ele>4.4</ele>
        <time>2020-06-23T10:58:36Z</time>
      </trkpt>
      <trkpt lat="51.03123" lon="2.37328">
        <ele>4.4</ele>
        <time>2020-06-23T10:58:37Z</time>
      </trkpt>
      <trkpt lat="51.03125" lon="2.37337">
        <ele>4.4</ele>
        <time>2020-06-23T10:58:38Z</time>
      </trkpt>
      <trkpt lat="51.03126" lon="2.37344">
        <ele>4.4</ele>
        <time>2020-06-23T10:58:39Z</time>
      </trkpt>
      <trkpt lat="51.03126" lon="2.37349">
        <ele>4.3</ele>
        <time>2020-06-23T10:58:40Z</time>
      </trkpt>
      <trkpt lat="51.03126" lon="2.37351">
        <ele>4.3</ele>
        <time>2020-06-23T10:58:41Z</time>
      </trkpt>
      <trkpt lat="51.03128" lon="2.37358">
        <ele>4.3</ele>
        <time>2020-06-23T10:58:42Z</time>
      </trkpt>
      <trkpt lat="51.03128" lon="2.3736">
        <ele>4.2</ele>
        <time>2020-06-23T10:58:43Z</time>
      </trkpt>
      <trkpt lat="51.03129" lon="2.37366">
        <ele>4.2</ele>
        <time>2020-06-23T10:58:44Z</time>
      </trkpt>
      <trkpt lat="51.0313" lon="2.37374">
        <ele>4.1</ele>
        <time>2020-06-23T10:58:45Z</time>
      </trkpt>
      <trkpt lat="51.03132" lon="2.37381">
        <ele>4.1</ele>
        <time>2020-06-23T10:58:46Z</time>
      </trkpt>
      <trkpt lat="51.03134" lon="2.37388">
        <ele>4</ele>
        <time>2020-06-23T10:58:47Z</time>
      </trkpt>
      <trkpt lat="51.03134" lon="2.37396">
        <ele>3.9</ele>
        <time>2020-06-23T10:58:48Z</time>
      </trkpt>
      <trkpt lat="51.03136" lon="2.37403">
        <ele>3.8</ele>
        <time>2020-06-23T10:58:49Z</time>
      </trkpt>
      <trkpt lat="51.03137" lon="2.3741">
        <ele>3.7</ele>
        <time>2020-06-23T10:58:50Z</time>
      </trkpt>
      <trkpt lat="51.03139" lon="2.37417">
        <ele>3.7</ele>
        <time>2020-06-23T10:58:51Z</time>
      </trkpt>
      <trkpt lat="51.0314" lon="2.37424">
        <ele>3.7</ele>
        <time>2020-06-23T10:58:52Z</time>
      </trkpt>
      <trkpt lat="51.03142" lon="2.37432">
        <ele>3.7</ele>
        <time>2020-06-23T10:58:53Z</time>
      </trkpt>
      <trkpt lat="51.03144" lon="2.37439">
        <ele>3.7</ele>
        <time>2020-06-23T10:58:54Z</time>
      </trkpt>
      <trkpt lat="51.03145" lon="2.37446">
        <ele>3.7</ele>
        <time>2020-06-23T10:58:55Z</time>
      </trkpt>
      <trkpt lat="51.03146" lon="2.37455">
        <ele>3.7</ele>
        <time>2020-06-23T10:58:56Z</time>
      </trkpt>
      <trkpt lat="51.03148" lon="2.37462">
        <ele>3.8</ele>
        <time>2020-06-23T10:58:57Z</time>
      </trkpt>
      <trkpt lat="51.0315" lon="2.3747">
        <ele>3.9</ele>
        <time>2020-06-23T10:58:58Z</time>
      </trkpt>
      <trkpt lat="51.03153" lon="2.37476">
        <ele>4</ele>
        <time>2020-06-23T10:58:59Z</time>
      </trkpt>
      <trkpt lat="51.03155" lon="2.37483">
        <ele>4.1</ele>
        <time>2020-06-23T10:59:00Z</time>
      </trkpt>
      <trkpt lat="51.03157" lon="2.37491">
        <ele>4.2</ele>
        <time>2020-06-23T10:59:01Z</time>
      </trkpt>
      <trkpt lat="51.0316" lon="2.37496">
        <ele>4.4</ele>
        <time>2020-06-23T10:59:02Z</time>
      </trkpt>
      <trkpt lat="51.03161" lon="2.37503">
        <ele>4.6</ele>
        <time>2020-06-23T10:59:03Z</time>
      </trkpt>
      <trkpt lat="51.03164" lon="2.37512">
        <ele>4.7</ele>
        <time>2020-06-23T10:59:04Z</time>
      </trkpt>
      <trkpt lat="51.03166" lon="2.37519">
        <ele>4.9</ele>
        <time>2020-06-23T10:59:05Z</time>
      </trkpt>
      <trkpt lat="51.03167" lon="2.37526">
        <ele>5.1</ele>
        <time>2020-06-23T10:59:06Z</time>
      </trkpt>
      <trkpt lat="51.03167" lon="2.37533">
        <ele>5.2</ele>
        <time>2020-06-23T10:59:07Z</time>
      </trkpt>
      <trkpt lat="51.03169" lon="2.3754">
        <ele>5.5</ele>
        <time>2020-06-23T10:59:08Z</time>
      </trkpt>
      <trkpt lat="51.03171" lon="2.37547">
        <ele>5.6</ele>
        <time>2020-06-23T10:59:09Z</time>
      </trkpt>
      <trkpt lat="51.03173" lon="2.37555">
        <ele>5.7</ele>
        <time>2020-06-23T10:59:10Z</time>
      </trkpt>
      <trkpt lat="51.03174" lon="2.37563">
        <ele>5.6</ele>
        <time>2020-06-23T10:59:11Z</time>
      </trkpt>
      <trkpt lat="51.03176" lon="2.37568">
        <ele>5.6</ele>
        <time>2020-06-23T10:59:12Z</time>
      </trkpt>
      <trkpt lat="51.03178" lon="2.37573">
        <ele>5.6</ele>
        <time>2020-06-23T10:59:13Z</time>
      </trkpt>
      <trkpt lat="51.03179" lon="2.37578">
        <ele>5.5</ele>
        <time>2020-06-23T10:59:14Z</time>
      </trkpt>
      <trkpt lat="51.0318" lon="2.37584">
        <ele>5.5</ele>
        <time>2020-06-23T10:59:15Z</time>
      </trkpt>
      <trkpt lat="51.0318" lon="2.37589">
        <ele>5.5</ele>
        <time>2020-06-23T10:59:16Z</time>
      </trkpt>
      <trkpt lat="51.03182" lon="2.37596">
        <ele>5.5</ele>
        <time>2020-06-23T10:59:17Z</time>
      </trkpt>
      <trkpt lat="51.03184" lon="2.37603">
        <ele>5.5</ele>
        <time>2020-06-23T10:59:18Z</time>
      </trkpt>
      <trkpt lat="51.03185" lon="2.3761">
        <ele>5.5</ele>
        <time>2020-06-23T10:59:19Z</time>
      </trkpt>
      <trkpt lat="51.03187" lon="2.37618">
        <ele>5.5</ele>
        <time>2020-06-23T10:59:20Z</time>
      </trkpt>
      <trkpt lat="51.03188" lon="2.37624">
        <ele>5.5</ele>
        <time>2020-06-23T10:59:21Z</time>
      </trkpt>
      <trkpt lat="51.03191" lon="2.37631">
        <ele>5.5</ele>
        <time>2020-06-23T10:59:22Z</time>
      </trkpt>
      <trkpt lat="51.03192" lon="2.37636">
        <ele>5.5</ele>
        <time>2020-06-23T10:59:23Z</time>
      </trkpt>
      <trkpt lat="51.03193" lon="2.37642">
        <ele>5.4</ele>
        <time>2020-06-23T10:59:24Z</time>
      </trkpt>
      <trkpt lat="51.03195" lon="2.37648">
        <ele>5.4</ele>
        <time>2020-06-23T10:59:25Z</time>
      </trkpt>
      <trkpt lat="51.03198" lon="2.37653">
        <ele>5.4</ele>
        <time>2020-06-23T10:59:26Z</time>
      </trkpt>
      <trkpt lat="51.03201" lon="2.37663">
        <ele>5.3</ele>
        <time>2020-06-23T10:59:27Z</time>
      </trkpt>
      <trkpt lat="51.03205" lon="2.37674">
        <ele>5.3</ele>
        <time>2020-06-23T10:59:28Z</time>
      </trkpt>
      <trkpt lat="51.03208" lon="2.37683">
        <ele>5.2</ele>
        <time>2020-06-23T10:59:29Z</time>
      </trkpt>
      <trkpt lat="51.03212" lon="2.3769">
        <ele>5.2</ele>
        <time>2020-06-23T10:59:30Z</time>
      </trkpt>
      <trkpt lat="51.03215" lon="2.37699">
        <ele>5.1</ele>
        <time>2020-06-23T10:59:31Z</time>
      </trkpt>
      <trkpt lat="51.03218" lon="2.37706">
        <ele>5.1</ele>
        <time>2020-06-23T10:59:32Z</time>
      </trkpt>
      <trkpt lat="51.03221" lon="2.37713">
        <ele>5.1</ele>
        <time>2020-06-23T10:59:33Z</time>
      </trkpt>
      <trkpt lat="51.03223" lon="2.37718">
        <ele>5.1</ele>
        <time>2020-06-23T10:59:34Z</time>
      </trkpt>
      <trkpt lat="51.03226" lon="2.37725">
        <ele>5.1</ele>
        <time>2020-06-23T10:59:35Z</time>
      </trkpt>
      <trkpt lat="51.03227" lon="2.37732">
        <ele>5</ele>
        <time>2020-06-23T10:59:36Z</time>
      </trkpt>
      <trkpt lat="51.03229" lon="2.37738">
        <ele>4.9</ele>
        <time>2020-06-23T10:59:37Z</time>
      </trkpt>
      <trkpt lat="51.03231" lon="2.37745">
        <ele>4.9</ele>
        <time>2020-06-23T10:59:38Z</time>
      </trkpt>
      <trkpt lat="51.03234" lon="2.37752">
        <ele>4.8</ele>
        <time>2020-06-23T10:59:39Z</time>
      </trkpt>
      <trkpt lat="51.03236" lon="2.37759">
        <ele>4.8</ele>
        <time>2020-06-23T10:59:40Z</time>
      </trkpt>
      <trkpt lat="51.03239" lon="2.37767">
        <ele>4.8</ele>
        <time>2020-06-23T10:59:41Z</time>
      </trkpt>
      <trkpt lat="51.03241" lon="2.37773">
        <ele>4.8</ele>
        <time>2020-06-23T10:59:42Z</time>
      </trkpt>
      <trkpt lat="51.03243" lon="2.3778">
        <ele>4.8</ele>
        <time>2020-06-23T10:59:43Z</time>
      </trkpt>
      <trkpt lat="51.03245" lon="2.37786">
        <ele>4.8</ele>
        <time>2020-06-23T10:59:44Z</time>
      </trkpt>
      <trkpt lat="51.03247" lon="2.37793">
        <ele>4.8</ele>
        <time>2020-06-23T10:59:45Z</time>
      </trkpt>
      <trkpt lat="51.03248" lon="2.37799">
        <ele>4.8</ele>
        <time>2020-06-23T10:59:46Z</time>
      </trkpt>
      <trkpt lat="51.03248" lon="2.37805">
        <ele>4.8</ele>
        <time>2020-06-23T10:59:47Z</time>
      </trkpt>
      <trkpt lat="51.03249" lon="2.37813">
        <ele>4.8</ele>
        <time>2020-06-23T10:59:48Z</time>
      </trkpt>
      <trkpt lat="51.03251" lon="2.37819">
        <ele>4.8</ele>
        <time>2020-06-23T10:59:49Z</time>
      </trkpt>
      <trkpt lat="51.03253" lon="2.37828">
        <ele>4.9</ele>
        <time>2020-06-23T10:59:50Z</time>
      </trkpt>
      <trkpt lat="51.03256" lon="2.37836">
        <ele>4.9</ele>
        <time>2020-06-23T10:59:51Z</time>
      </trkpt>
      <trkpt lat="51.03259" lon="2.37844">
        <ele>5</ele>
        <time>2020-06-23T10:59:52Z</time>
      </trkpt>
      <trkpt lat="51.0326" lon="2.3785">
        <ele>5</ele>
        <time>2020-06-23T10:59:53Z</time>
      </trkpt>
      <trkpt lat="51.03261" lon="2.37857">
        <ele>5</ele>
        <time>2020-06-23T10:59:54Z</time>
      </trkpt>
      <trkpt lat="51.03263" lon="2.37861">
        <ele>5</ele>
        <time>2020-06-23T10:59:55Z</time>
      </trkpt>
      <trkpt lat="51.03264" lon="2.37867">
        <ele>4.9</ele>
        <time>2020-06-23T10:59:56Z</time>
      </trkpt>
      <trkpt lat="51.03266" lon="2.37873">
        <ele>4.9</ele>
        <time>2020-06-23T10:59:57Z</time>
      </trkpt>
      <trkpt lat="51.03268" lon="2.37879">
        <ele>4.8</ele>
        <time>2020-06-23T10:59:58Z</time>
      </trkpt>
      <trkpt lat="51.0327" lon="2.37883">
        <ele>4.8</ele>
        <time>2020-06-23T10:59:59Z</time>
      </trkpt>
      <trkpt lat="51.03272" lon="2.3789">
        <ele>4.8</ele>
        <time>2020-06-23T11:00:00Z</time>
      </trkpt>
      <trkpt lat="51.03274" lon="2.37896">
        <ele>4.8</ele>
        <time>2020-06-23T11:00:01Z</time>
      </trkpt>
      <trkpt lat="51.03276" lon="2.37901">
        <ele>4.8</ele>
        <time>2020-06-23T11:00:02Z</time>
      </trkpt>
      <trkpt lat="51.03278" lon="2.37907">
        <ele>4.8</ele>
        <time>2020-06-23T11:00:03Z</time>
      </trkpt>
      <trkpt lat="51.03279" lon="2.37914">
        <ele>4.8</ele>
        <time>2020-06-23T11:00:04Z</time>
      </trkpt>
      <trkpt lat="51.03281" lon="2.37923">
        <ele>4.8</ele>
        <time>2020-06-23T11:00:05Z</time>
      </trkpt>
      <trkpt lat="51.03283" lon="2.37931">
        <ele>4.8</ele>
        <time>2020-06-23T11:00:06Z</time>
      </trkpt>
      <trkpt lat="51.03284" lon="2.37937">
        <ele>4.8</ele>
        <time>2020-06-23T11:00:07Z</time>
      </trkpt>
      <trkpt lat="51.03286" lon="2.37944">
        <ele>4.7</ele>
        <time>2020-06-23T11:00:08Z</time>
      </trkpt>
      <trkpt lat="51.03289" lon="2.37953">
        <ele>4.7</ele>
        <time>2020-06-23T11:00:09Z</time>
      </trkpt>
      <trkpt lat="51.03292" lon="2.37961">
        <ele>4.7</ele>
        <time>2020-06-23T11:00:10Z</time>
      </trkpt>
      <trkpt lat="51.03295" lon="2.37967">
        <ele>4.8</ele>
        <time>2020-06-23T11:00:11Z</time>
      </trkpt>
      <trkpt lat="51.03298" lon="2.37974">
        <ele>4.8</ele>
        <time>2020-06-23T11:00:12Z</time>
      </trkpt>
      <trkpt lat="51.033" lon="2.37979">
        <ele>4.7</ele>
        <time>2020-06-23T11:00:13Z</time>
      </trkpt>
      <trkpt lat="51.03302" lon="2.37986">
        <ele>4.7</ele>
        <time>2020-06-23T11:00:14Z</time>
      </trkpt>
      <trkpt lat="51.03304" lon="2.37993">
        <ele>4.7</ele>
        <time>2020-06-23T11:00:15Z</time>
      </trkpt>
      <trkpt lat="51.03305" lon="2.38">
        <ele>4.7</ele>
        <time>2020-06-23T11:00:16Z</time>
      </trkpt>
      <trkpt lat="51.03307" lon="2.38007">
        <ele>4.7</ele>
        <time>2020-06-23T11:00:17Z</time>
      </trkpt>
      <trkpt lat="51.0331" lon="2.38014">
        <ele>4.7</ele>
        <time>2020-06-23T11:00:18Z</time>
      </trkpt>
      <trkpt lat="51.03312" lon="2.38024">
        <ele>4.7</ele>
        <time>2020-06-23T11:00:19Z</time>
      </trkpt>
      <trkpt lat="51.03314" lon="2.38033">
        <ele>4.7</ele>
        <time>2020-06-23T11:00:20Z</time>
      </trkpt>
      <trkpt lat="51.03317" lon="2.38043">
        <ele>4.7</ele>
        <time>2020-06-23T11:00:21Z</time>
      </trkpt>
      <trkpt lat="51.03319" lon="2.3805">
        <ele>4.8</ele>
        <time>2020-06-23T11:00:22Z</time>
      </trkpt>
      <trkpt lat="51.03321" lon="2.38056">
        <ele>4.8</ele>
        <time>2020-06-23T11:00:23Z</time>
      </trkpt>
      <trkpt lat="51.03324" lon="2.38063">
        <ele>4.9</ele>
        <time>2020-06-23T11:00:24Z</time>
      </trkpt>
      <trkpt lat="51.03324" lon="2.38069">
        <ele>4.9</ele>
        <time>2020-06-23T11:00:25Z</time>
      </trkpt>
      <trkpt lat="51.03324" lon="2.38074">
        <ele>4.9</ele>
        <time>2020-06-23T11:00:26Z</time>
      </trkpt>
      <trkpt lat="51.03322" lon="2.38081">
        <ele>4.9</ele>
        <time>2020-06-23T11:00:27Z</time>
      </trkpt>
      <trkpt lat="51.03322" lon="2.38083">
        <ele>4.9</ele>
        <time>2020-06-23T11:00:28Z</time>
      </trkpt>
      <trkpt lat="51.03323" lon="2.38089">
        <ele>4.9</ele>
        <time>2020-06-23T11:00:29Z</time>
      </trkpt>
      <trkpt lat="51.03325" lon="2.38096">
        <ele>4.9</ele>
        <time>2020-06-23T11:00:30Z</time>
      </trkpt>
      <trkpt lat="51.03327" lon="2.38102">
        <ele>4.9</ele>
        <time>2020-06-23T11:00:31Z</time>
      </trkpt>
      <trkpt lat="51.03329" lon="2.38107">
        <ele>4.9</ele>
        <time>2020-06-23T11:00:32Z</time>
      </trkpt>
      <trkpt lat="51.03331" lon="2.38113">
        <ele>4.9</ele>
        <time>2020-06-23T11:00:33Z</time>
      </trkpt>
      <trkpt lat="51.03332" lon="2.38121">
        <ele>4.9</ele>
        <time>2020-06-23T11:00:34Z</time>
      </trkpt>
      <trkpt lat="51.03333" lon="2.38127">
        <ele>4.9</ele>
        <time>2020-06-23T11:00:35Z</time>
      </trkpt>
      <trkpt lat="51.03335" lon="2.38134">
        <ele>4.9</ele>
        <time>2020-06-23T11:00:36Z</time>
      </trkpt>
      <trkpt lat="51.03337" lon="2.38141">
        <ele>4.9</ele>
        <time>2020-06-23T11:00:37Z</time>
      </trkpt>
      <trkpt lat="51.03339" lon="2.38146">
        <ele>4.9</ele>
        <time>2020-06-23T11:00:38Z</time>
      </trkpt>
      <trkpt lat="51.03341" lon="2.38152">
        <ele>4.9</ele>
        <time>2020-06-23T11:00:39Z</time>
      </trkpt>
      <trkpt lat="51.03342" lon="2.38159">
        <ele>4.9</ele>
        <time>2020-06-23T11:00:40Z</time>
      </trkpt>
      <trkpt lat="51.03344" lon="2.38164">
        <ele>4.9</ele>
        <time>2020-06-23T11:00:41Z</time>
      </trkpt>
      <trkpt lat="51.03345" lon="2.38169">
        <ele>4.9</ele>
        <time>2020-06-23T11:00:42Z</time>
      </trkpt>
      <trkpt lat="51.03347" lon="2.38177">
        <ele>5</ele>
        <time>2020-06-23T11:00:43Z</time>
      </trkpt>
      <trkpt lat="51.03349" lon="2.38184">
        <ele>5</ele>
        <time>2020-06-23T11:00:44Z</time>
      </trkpt>
      <trkpt lat="51.03351" lon="2.38191">
        <ele>5</ele>
        <time>2020-06-23T11:00:45Z</time>
      </trkpt>
      <trkpt lat="51.03354" lon="2.38197">
        <ele>5</ele>
        <time>2020-06-23T11:00:46Z</time>
      </trkpt>
      <trkpt lat="51.03356" lon="2.38203">
        <ele>5</ele>
        <time>2020-06-23T11:00:47Z</time>
      </trkpt>
      <trkpt lat="51.03358" lon="2.3821">
        <ele>5</ele>
        <time>2020-06-23T11:00:48Z</time>
      </trkpt>
      <trkpt lat="51.0336" lon="2.38217">
        <ele>5</ele>
        <time>2020-06-23T11:00:49Z</time>
      </trkpt>
      <trkpt lat="51.03362" lon="2.38224">
        <ele>5</ele>
        <time>2020-06-23T11:00:50Z</time>
      </trkpt>
      <trkpt lat="51.03365" lon="2.38231">
        <ele>5.1</ele>
        <time>2020-06-23T11:00:51Z</time>
      </trkpt>
      <trkpt lat="51.03368" lon="2.38239">
        <ele>5.1</ele>
        <time>2020-06-23T11:00:52Z</time>
      </trkpt>
      <trkpt lat="51.0337" lon="2.38245">
        <ele>5.1</ele>
        <time>2020-06-23T11:00:53Z</time>
      </trkpt>
      <trkpt lat="51.03372" lon="2.38252">
        <ele>5.2</ele>
        <time>2020-06-23T11:00:54Z</time>
      </trkpt>
      <trkpt lat="51.03373" lon="2.38259">
        <ele>5.2</ele>
        <time>2020-06-23T11:00:55Z</time>
      </trkpt>
      <trkpt lat="51.03375" lon="2.38265">
        <ele>5.2</ele>
        <time>2020-06-23T11:00:56Z</time>
      </trkpt>
      <trkpt lat="51.03377" lon="2.38273">
        <ele>5.3</ele>
        <time>2020-06-23T11:00:57Z</time>
      </trkpt>
      <trkpt lat="51.03379" lon="2.38281">
        <ele>5.3</ele>
        <time>2020-06-23T11:00:58Z</time>
      </trkpt>
      <trkpt lat="51.03381" lon="2.38288">
        <ele>5.3</ele>
        <time>2020-06-23T11:00:59Z</time>
      </trkpt>
      <trkpt lat="51.03383" lon="2.38295">
        <ele>5.4</ele>
        <time>2020-06-23T11:01:00Z</time>
      </trkpt>
      <trkpt lat="51.03385" lon="2.383">
        <ele>5.4</ele>
        <time>2020-06-23T11:01:01Z</time>
      </trkpt>
      <trkpt lat="51.03386" lon="2.38307">
        <ele>5.4</ele>
        <time>2020-06-23T11:01:02Z</time>
      </trkpt>
      <trkpt lat="51.03388" lon="2.38314">
        <ele>5.4</ele>
        <time>2020-06-23T11:01:03Z</time>
      </trkpt>
      <trkpt lat="51.03389" lon="2.38321">
        <ele>5.5</ele>
        <time>2020-06-23T11:01:04Z</time>
      </trkpt>
      <trkpt lat="51.03391" lon="2.38327">
        <ele>5.5</ele>
        <time>2020-06-23T11:01:05Z</time>
      </trkpt>
      <trkpt lat="51.03393" lon="2.38334">
        <ele>5.5</ele>
        <time>2020-06-23T11:01:06Z</time>
      </trkpt>
      <trkpt lat="51.03395" lon="2.38341">
        <ele>5.5</ele>
        <time>2020-06-23T11:01:07Z</time>
      </trkpt>
      <trkpt lat="51.03396" lon="2.38349">
        <ele>5.4</ele>
        <time>2020-06-23T11:01:08Z</time>
      </trkpt>
      <trkpt lat="51.03399" lon="2.38355">
        <ele>5.4</ele>
        <time>2020-06-23T11:01:09Z</time>
      </trkpt>
      <trkpt lat="51.03401" lon="2.38362">
        <ele>5.4</ele>
        <time>2020-06-23T11:01:10Z</time>
      </trkpt>
      <trkpt lat="51.03403" lon="2.38368">
        <ele>5.4</ele>
        <time>2020-06-23T11:01:11Z</time>
      </trkpt>
      <trkpt lat="51.03406" lon="2.38375">
        <ele>5.4</ele>
        <time>2020-06-23T11:01:12Z</time>
      </trkpt>
      <trkpt lat="51.03409" lon="2.38382">
        <ele>5.4</ele>
        <time>2020-06-23T11:01:13Z</time>
      </trkpt>
      <trkpt lat="51.03411" lon="2.38389">
        <ele>5.5</ele>
        <time>2020-06-23T11:01:14Z</time>
      </trkpt>
      <trkpt lat="51.03413" lon="2.38396">
        <ele>5.5</ele>
        <time>2020-06-23T11:01:15Z</time>
      </trkpt>
      <trkpt lat="51.03415" lon="2.38402">
        <ele>5.5</ele>
        <time>2020-06-23T11:01:16Z</time>
      </trkpt>
      <trkpt lat="51.03417" lon="2.38409">
        <ele>5.5</ele>
        <time>2020-06-23T11:01:17Z</time>
      </trkpt>
      <trkpt lat="51.0342" lon="2.38415">
        <ele>5.5</ele>
        <time>2020-06-23T11:01:18Z</time>
      </trkpt>
      <trkpt lat="51.03423" lon="2.3842">
        <ele>5.5</ele>
        <time>2020-06-23T11:01:19Z</time>
      </trkpt>
      <trkpt lat="51.03426" lon="2.38424">
        <ele>5.5</ele>
        <time>2020-06-23T11:01:20Z</time>
      </trkpt>
      <trkpt lat="51.03429" lon="2.38428">
        <ele>5.5</ele>
        <time>2020-06-23T11:01:21Z</time>
      </trkpt>
      <trkpt lat="51.03431" lon="2.38431">
        <ele>5.5</ele>
        <time>2020-06-23T11:01:22Z</time>
      </trkpt>
      <trkpt lat="51.03431" lon="2.38432">
        <ele>5.5</ele>
        <time>2020-06-23T11:01:23Z</time>
      </trkpt>
      <trkpt lat="51.03432" lon="2.38433">
        <ele>5.5</ele>
        <time>2020-06-23T11:01:24Z</time>
      </trkpt>
      <trkpt lat="51.03433" lon="2.38437">
        <ele>5.5</ele>
        <time>2020-06-23T11:01:25Z</time>
      </trkpt>
      <trkpt lat="51.03433" lon="2.38442">
        <ele>5.5</ele>
        <time>2020-06-23T11:01:26Z</time>
      </trkpt>
      <trkpt lat="51.03434" lon="2.38444">
        <ele>5.5</ele>
        <time>2020-06-23T11:01:27Z</time>
      </trkpt>
      <trkpt lat="51.03435" lon="2.38449">
        <ele>5.5</ele>
        <time>2020-06-23T11:01:28Z</time>
      </trkpt>
      <trkpt lat="51.03435" lon="2.38451">
        <ele>5.5</ele>
        <time>2020-06-23T11:01:29Z</time>
      </trkpt>
      <trkpt lat="51.03438" lon="2.38453">
        <ele>5.5</ele>
        <time>2020-06-23T11:01:30Z</time>
      </trkpt>
      <trkpt lat="51.0344" lon="2.38452">
        <ele>5.5</ele>
        <time>2020-06-23T11:01:31Z</time>
      </trkpt>
      <trkpt lat="51.03443" lon="2.38452">
        <ele>5.5</ele>
        <time>2020-06-23T11:01:32Z</time>
      </trkpt>
      <trkpt lat="51.03447" lon="2.38452">
        <ele>5.5</ele>
        <time>2020-06-23T11:01:33Z</time>
      </trkpt>
      <trkpt lat="51.0345" lon="2.38454">
        <ele>5.4</ele>
        <time>2020-06-23T11:01:34Z</time>
      </trkpt>
      <trkpt lat="51.03454" lon="2.3846">
        <ele>5.4</ele>
        <time>2020-06-23T11:01:35Z</time>
      </trkpt>
      <trkpt lat="51.03455" lon="2.38468">
        <ele>5.3</ele>
        <time>2020-06-23T11:01:36Z</time>
      </trkpt>
      <trkpt lat="51.03457" lon="2.38477">
        <ele>5.3</ele>
        <time>2020-06-23T11:01:37Z</time>
      </trkpt>
      <trkpt lat="51.03459" lon="2.38486">
        <ele>5.2</ele>
        <time>2020-06-23T11:01:38Z</time>
      </trkpt>
      <trkpt lat="51.0346" lon="2.38495">
        <ele>5.2</ele>
        <time>2020-06-23T11:01:39Z</time>
      </trkpt>
      <trkpt lat="51.03462" lon="2.38505">
        <ele>5.1</ele>
        <time>2020-06-23T11:01:40Z</time>
      </trkpt>
      <trkpt lat="51.03463" lon="2.38513">
        <ele>5.1</ele>
        <time>2020-06-23T11:01:41Z</time>
      </trkpt>
      <trkpt lat="51.03463" lon="2.38522">
        <ele>5</ele>
        <time>2020-06-23T11:01:42Z</time>
      </trkpt>
      <trkpt lat="51.03464" lon="2.38531">
        <ele>5</ele>
        <time>2020-06-23T11:01:43Z</time>
      </trkpt>
      <trkpt lat="51.03464" lon="2.3854">
        <ele>4.9</ele>
        <time>2020-06-23T11:01:44Z</time>
      </trkpt>
      <trkpt lat="51.03465" lon="2.3855">
        <ele>4.8</ele>
        <time>2020-06-23T11:01:45Z</time>
      </trkpt>
      <trkpt lat="51.03464" lon="2.38558">
        <ele>4.8</ele>
        <time>2020-06-23T11:01:46Z</time>
      </trkpt>
      <trkpt lat="51.03464" lon="2.38567">
        <ele>4.7</ele>
        <time>2020-06-23T11:01:47Z</time>
      </trkpt>
      <trkpt lat="51.03462" lon="2.38576">
        <ele>4.6</ele>
        <time>2020-06-23T11:01:48Z</time>
      </trkpt>
      <trkpt lat="51.03462" lon="2.38586">
        <ele>4.5</ele>
        <time>2020-06-23T11:01:49Z</time>
      </trkpt>
      <trkpt lat="51.03462" lon="2.38596">
        <ele>4.5</ele>
        <time>2020-06-23T11:01:50Z</time>
      </trkpt>
      <trkpt lat="51.03462" lon="2.38606">
        <ele>4.3</ele>
        <time>2020-06-23T11:01:51Z</time>
      </trkpt>
      <trkpt lat="51.03462" lon="2.38616">
        <ele>4.3</ele>
        <time>2020-06-23T11:01:52Z</time>
      </trkpt>
      <trkpt lat="51.03462" lon="2.38626">
        <ele>4.3</ele>
        <time>2020-06-23T11:01:53Z</time>
      </trkpt>
      <trkpt lat="51.03462" lon="2.38636">
        <ele>4.2</ele>
        <time>2020-06-23T11:01:54Z</time>
      </trkpt>
      <trkpt lat="51.0346" lon="2.38643">
        <ele>4.2</ele>
        <time>2020-06-23T11:01:55Z</time>
      </trkpt>
      <trkpt lat="51.03458" lon="2.38651">
        <ele>4.2</ele>
        <time>2020-06-23T11:01:56Z</time>
      </trkpt>
      <trkpt lat="51.03458" lon="2.3866">
        <ele>4.2</ele>
        <time>2020-06-23T11:01:57Z</time>
      </trkpt>
      <trkpt lat="51.03456" lon="2.38666">
        <ele>4.2</ele>
        <time>2020-06-23T11:01:58Z</time>
      </trkpt>
      <trkpt lat="51.03456" lon="2.38674">
        <ele>4.2</ele>
        <time>2020-06-23T11:01:59Z</time>
      </trkpt>
      <trkpt lat="51.03456" lon="2.38682">
        <ele>4.2</ele>
        <time>2020-06-23T11:02:00Z</time>
      </trkpt>
      <trkpt lat="51.03455" lon="2.3869">
        <ele>4.2</ele>
        <time>2020-06-23T11:02:01Z</time>
      </trkpt>
      <trkpt lat="51.03454" lon="2.38697">
        <ele>4.2</ele>
        <time>2020-06-23T11:02:02Z</time>
      </trkpt>
      <trkpt lat="51.03454" lon="2.38703">
        <ele>4.2</ele>
        <time>2020-06-23T11:02:03Z</time>
      </trkpt>
      <trkpt lat="51.03453" lon="2.38711">
        <ele>4.1</ele>
        <time>2020-06-23T11:02:04Z</time>
      </trkpt>
      <trkpt lat="51.03453" lon="2.38717">
        <ele>4.1</ele>
        <time>2020-06-23T11:02:05Z</time>
      </trkpt>
      <trkpt lat="51.03453" lon="2.38725">
        <ele>4.1</ele>
        <time>2020-06-23T11:02:06Z</time>
      </trkpt>
      <trkpt lat="51.03452" lon="2.38731">
        <ele>4</ele>
        <time>2020-06-23T11:02:07Z</time>
      </trkpt>
      <trkpt lat="51.0345" lon="2.38734">
        <ele>4</ele>
        <time>2020-06-23T11:02:08Z</time>
      </trkpt>
      <trkpt lat="51.03447" lon="2.38735">
        <ele>3.9</ele>
        <time>2020-06-23T11:02:09Z</time>
      </trkpt>
      <trkpt lat="51.03445" lon="2.38734">
        <ele>3.9</ele>
        <time>2020-06-23T11:02:10Z</time>
      </trkpt>
      <trkpt lat="51.03443" lon="2.38737">
        <ele>3.9</ele>
        <time>2020-06-23T11:02:11Z</time>
      </trkpt>
      <trkpt lat="51.0344" lon="2.3874">
        <ele>3.9</ele>
        <time>2020-06-23T11:02:12Z</time>
      </trkpt>
      <trkpt lat="51.03439" lon="2.38745">
        <ele>3.9</ele>
        <time>2020-06-23T11:02:13Z</time>
      </trkpt>
      <trkpt lat="51.03439" lon="2.38747">
        <ele>3.9</ele>
        <time>2020-06-23T11:02:14Z</time>
      </trkpt>
      <trkpt lat="51.03438" lon="2.38752">
        <ele>3.9</ele>
        <time>2020-06-23T11:02:15Z</time>
      </trkpt>
      <trkpt lat="51.03438" lon="2.38754">
        <ele>3.9</ele>
        <time>2020-06-23T11:02:16Z</time>
      </trkpt>
      <trkpt lat="51.03437" lon="2.38758">
        <ele>3.9</ele>
        <time>2020-06-23T11:02:17Z</time>
      </trkpt>
      <trkpt lat="51.03435" lon="2.38763">
        <ele>3.9</ele>
        <time>2020-06-23T11:02:18Z</time>
      </trkpt>
      <trkpt lat="51.03434" lon="2.38766">
        <ele>3.9</ele>
        <time>2020-06-23T11:02:19Z</time>
      </trkpt>
      <trkpt lat="51.03433" lon="2.3877">
        <ele>3.9</ele>
        <time>2020-06-23T11:02:20Z</time>
      </trkpt>
      <trkpt lat="51.03431" lon="2.38775">
        <ele>3.9</ele>
        <time>2020-06-23T11:02:21Z</time>
      </trkpt>
      <trkpt lat="51.0343" lon="2.38781">
        <ele>4</ele>
        <time>2020-06-23T11:02:22Z</time>
      </trkpt>
      <trkpt lat="51.0343" lon="2.38786">
        <ele>4</ele>
        <time>2020-06-23T11:02:23Z</time>
      </trkpt>
      <trkpt lat="51.03431" lon="2.3879">
        <ele>4</ele>
        <time>2020-06-23T11:02:24Z</time>
      </trkpt>
      <trkpt lat="51.0343" lon="2.38795">
        <ele>3.9</ele>
        <time>2020-06-23T11:02:25Z</time>
      </trkpt>
      <trkpt lat="51.0343" lon="2.38802">
        <ele>3.9</ele>
        <time>2020-06-23T11:02:26Z</time>
      </trkpt>
      <trkpt lat="51.03429" lon="2.3881">
        <ele>3.9</ele>
        <time>2020-06-23T11:02:27Z</time>
      </trkpt>
      <trkpt lat="51.03428" lon="2.38817">
        <ele>3.8</ele>
        <time>2020-06-23T11:02:28Z</time>
      </trkpt>
      <trkpt lat="51.03428" lon="2.38825">
        <ele>3.8</ele>
        <time>2020-06-23T11:02:29Z</time>
      </trkpt>
      <trkpt lat="51.03428" lon="2.38832">
        <ele>3.7</ele>
        <time>2020-06-23T11:02:30Z</time>
      </trkpt>
      <trkpt lat="51.03428" lon="2.3884">
        <ele>3.7</ele>
        <time>2020-06-23T11:02:31Z</time>
      </trkpt>
      <trkpt lat="51.03427" lon="2.38849">
        <ele>3.6</ele>
        <time>2020-06-23T11:02:32Z</time>
      </trkpt>
      <trkpt lat="51.03426" lon="2.38857">
        <ele>3.5</ele>
        <time>2020-06-23T11:02:33Z</time>
      </trkpt>
      <trkpt lat="51.03425" lon="2.38864">
        <ele>3.5</ele>
        <time>2020-06-23T11:02:34Z</time>
      </trkpt>
      <trkpt lat="51.03424" lon="2.38871">
        <ele>3.5</ele>
        <time>2020-06-23T11:02:35Z</time>
      </trkpt>
      <trkpt lat="51.03423" lon="2.38877">
        <ele>3.4</ele>
        <time>2020-06-23T11:02:36Z</time>
      </trkpt>
      <trkpt lat="51.03423" lon="2.38884">
        <ele>3.4</ele>
        <time>2020-06-23T11:02:37Z</time>
      </trkpt>
      <trkpt lat="51.03422" lon="2.38891">
        <ele>3.4</ele>
        <time>2020-06-23T11:02:38Z</time>
      </trkpt>
      <trkpt lat="51.03421" lon="2.38898">
        <ele>3.4</ele>
        <time>2020-06-23T11:02:39Z</time>
      </trkpt>
      <trkpt lat="51.03421" lon="2.38905">
        <ele>3.4</ele>
        <time>2020-06-23T11:02:40Z</time>
      </trkpt>
      <trkpt lat="51.0342" lon="2.38911">
        <ele>3.3</ele>
        <time>2020-06-23T11:02:41Z</time>
      </trkpt>
      <trkpt lat="51.0342" lon="2.38917">
        <ele>3.4</ele>
        <time>2020-06-23T11:02:42Z</time>
      </trkpt>
      <trkpt lat="51.0342" lon="2.38922">
        <ele>3.4</ele>
        <time>2020-06-23T11:02:43Z</time>
      </trkpt>
      <trkpt lat="51.0342" lon="2.38927">
        <ele>3.6</ele>
        <time>2020-06-23T11:02:44Z</time>
      </trkpt>
      <trkpt lat="51.0342" lon="2.38932">
        <ele>3.6</ele>
        <time>2020-06-23T11:02:45Z</time>
      </trkpt>
      <trkpt lat="51.03419" lon="2.38939">
        <ele>3.6</ele>
        <time>2020-06-23T11:02:46Z</time>
      </trkpt>
      <trkpt lat="51.0342" lon="2.38945">
        <ele>3.6</ele>
        <time>2020-06-23T11:02:47Z</time>
      </trkpt>
      <trkpt lat="51.03422" lon="2.38949">
        <ele>3.6</ele>
        <time>2020-06-23T11:02:48Z</time>
      </trkpt>
      <trkpt lat="51.03422" lon="2.38952">
        <ele>3.6</ele>
        <time>2020-06-23T11:02:49Z</time>
      </trkpt>
      <trkpt lat="51.03423" lon="2.38954">
        <ele>3.6</ele>
        <time>2020-06-23T11:02:50Z</time>
      </trkpt>
      <trkpt lat="51.03423" lon="2.38959">
        <ele>3.7</ele>
        <time>2020-06-23T11:02:51Z</time>
      </trkpt>
      <trkpt lat="51.03423" lon="2.38961">
        <ele>3.7</ele>
        <time>2020-06-23T11:02:52Z</time>
      </trkpt>
      <trkpt lat="51.03424" lon="2.38966">
        <ele>3.7</ele>
        <time>2020-06-23T11:02:53Z</time>
      </trkpt>
      <trkpt lat="51.03425" lon="2.38968">
        <ele>3.7</ele>
        <time>2020-06-23T11:02:54Z</time>
      </trkpt>
      <trkpt lat="51.03427" lon="2.38972">
        <ele>3.6</ele>
        <time>2020-06-23T11:02:55Z</time>
      </trkpt>
      <trkpt lat="51.03428" lon="2.38973">
        <ele>3.6</ele>
        <time>2020-06-23T11:02:56Z</time>
      </trkpt>
      <trkpt lat="51.03429" lon="2.3898">
        <ele>3.6</ele>
        <time>2020-06-23T11:02:57Z</time>
      </trkpt>
      <trkpt lat="51.0343" lon="2.38983">
        <ele>3.6</ele>
        <time>2020-06-23T11:02:58Z</time>
      </trkpt>
      <trkpt lat="51.0343" lon="2.38989">
        <ele>3.5</ele>
        <time>2020-06-23T11:02:59Z</time>
      </trkpt>
      <trkpt lat="51.03431" lon="2.38995">
        <ele>3.5</ele>
        <time>2020-06-23T11:03:00Z</time>
      </trkpt>
      <trkpt lat="51.03431" lon="2.39001">
        <ele>3.5</ele>
        <time>2020-06-23T11:03:01Z</time>
      </trkpt>
      <trkpt lat="51.03433" lon="2.39006">
        <ele>3.5</ele>
        <time>2020-06-23T11:03:02Z</time>
      </trkpt>
      <trkpt lat="51.03435" lon="2.39012">
        <ele>3.5</ele>
        <time>2020-06-23T11:03:03Z</time>
      </trkpt>
      <trkpt lat="51.03437" lon="2.39016">
        <ele>3.4</ele>
        <time>2020-06-23T11:03:04Z</time>
      </trkpt>
      <trkpt lat="51.03438" lon="2.39021">
        <ele>3.4</ele>
        <time>2020-06-23T11:03:05Z</time>
      </trkpt>
      <trkpt lat="51.0344" lon="2.39027">
        <ele>3.4</ele>
        <time>2020-06-23T11:03:06Z</time>
      </trkpt>
      <trkpt lat="51.03441" lon="2.3903">
        <ele>3.4</ele>
        <time>2020-06-23T11:03:07Z</time>
      </trkpt>
      <trkpt lat="51.03443" lon="2.39034">
        <ele>3.4</ele>
        <time>2020-06-23T11:03:08Z</time>
      </trkpt>
      <trkpt lat="51.03446" lon="2.39038">
        <ele>3.4</ele>
        <time>2020-06-23T11:03:09Z</time>
      </trkpt>
      <trkpt lat="51.03448" lon="2.39043">
        <ele>3.4</ele>
        <time>2020-06-23T11:03:10Z</time>
      </trkpt>
      <trkpt lat="51.03451" lon="2.39046">
        <ele>3.5</ele>
        <time>2020-06-23T11:03:11Z</time>
      </trkpt>
      <trkpt lat="51.03454" lon="2.39049">
        <ele>3.5</ele>
        <time>2020-06-23T11:03:12Z</time>
      </trkpt>
      <trkpt lat="51.03457" lon="2.39054">
        <ele>3.5</ele>
        <time>2020-06-23T11:03:13Z</time>
      </trkpt>
      <trkpt lat="51.03459" lon="2.39058">
        <ele>3.4</ele>
        <time>2020-06-23T11:03:14Z</time>
      </trkpt>
      <trkpt lat="51.03463" lon="2.39063">
        <ele>3.4</ele>
        <time>2020-06-23T11:03:15Z</time>
      </trkpt>
      <trkpt lat="51.03465" lon="2.39067">
        <ele>3.4</ele>
        <time>2020-06-23T11:03:16Z</time>
      </trkpt>
      <trkpt lat="51.03468" lon="2.39072">
        <ele>3.4</ele>
        <time>2020-06-23T11:03:17Z</time>
      </trkpt>
      <trkpt lat="51.03471" lon="2.39079">
        <ele>3.4</ele>
        <time>2020-06-23T11:03:18Z</time>
      </trkpt>
      <trkpt lat="51.03474" lon="2.39086">
        <ele>3.4</ele>
        <time>2020-06-23T11:03:19Z</time>
      </trkpt>
      <trkpt lat="51.03478" lon="2.39095">
        <ele>3.4</ele>
        <time>2020-06-23T11:03:20Z</time>
      </trkpt>
      <trkpt lat="51.03481" lon="2.39101">
        <ele>3.4</ele>
        <time>2020-06-23T11:03:21Z</time>
      </trkpt>
      <trkpt lat="51.03484" lon="2.39109">
        <ele>3.4</ele>
        <time>2020-06-23T11:03:22Z</time>
      </trkpt>
      <trkpt lat="51.03487" lon="2.39116">
        <ele>3.4</ele>
        <time>2020-06-23T11:03:23Z</time>
      </trkpt>
      <trkpt lat="51.0349" lon="2.39123">
        <ele>3.4</ele>
        <time>2020-06-23T11:03:24Z</time>
      </trkpt>
      <trkpt lat="51.03492" lon="2.39131">
        <ele>3.5</ele>
        <time>2020-06-23T11:03:25Z</time>
      </trkpt>
      <trkpt lat="51.03495" lon="2.39138">
        <ele>3.5</ele>
        <time>2020-06-23T11:03:26Z</time>
      </trkpt>
      <trkpt lat="51.03497" lon="2.39145">
        <ele>3.5</ele>
        <time>2020-06-23T11:03:27Z</time>
      </trkpt>
      <trkpt lat="51.035" lon="2.39151">
        <ele>3.5</ele>
        <time>2020-06-23T11:03:28Z</time>
      </trkpt>
      <trkpt lat="51.03502" lon="2.39158">
        <ele>3.5</ele>
        <time>2020-06-23T11:03:29Z</time>
      </trkpt>
      <trkpt lat="51.03504" lon="2.39166">
        <ele>3.5</ele>
        <time>2020-06-23T11:03:30Z</time>
      </trkpt>
      <trkpt lat="51.03507" lon="2.39173">
        <ele>3.5</ele>
        <time>2020-06-23T11:03:31Z</time>
      </trkpt>
      <trkpt lat="51.03509" lon="2.39179">
        <ele>3.5</ele>
        <time>2020-06-23T11:03:32Z</time>
      </trkpt>
      <trkpt lat="51.03512" lon="2.39185">
        <ele>3.6</ele>
        <time>2020-06-23T11:03:33Z</time>
      </trkpt>
      <trkpt lat="51.03516" lon="2.3919">
        <ele>3.6</ele>
        <time>2020-06-23T11:03:34Z</time>
      </trkpt>
      <trkpt lat="51.0352" lon="2.39195">
        <ele>3.6</ele>
        <time>2020-06-23T11:03:35Z</time>
      </trkpt>
      <trkpt lat="51.03525" lon="2.392">
        <ele>3.6</ele>
        <time>2020-06-23T11:03:36Z</time>
      </trkpt>
      <trkpt lat="51.03529" lon="2.39206">
        <ele>3.6</ele>
        <time>2020-06-23T11:03:37Z</time>
      </trkpt>
      <trkpt lat="51.03535" lon="2.39216">
        <ele>3.7</ele>
        <time>2020-06-23T11:03:38Z</time>
      </trkpt>
      <trkpt lat="51.03539" lon="2.39224">
        <ele>3.7</ele>
        <time>2020-06-23T11:03:39Z</time>
      </trkpt>
      <trkpt lat="51.03544" lon="2.39231">
        <ele>3.7</ele>
        <time>2020-06-23T11:03:40Z</time>
      </trkpt>
      <trkpt lat="51.03548" lon="2.39238">
        <ele>3.7</ele>
        <time>2020-06-23T11:03:41Z</time>
      </trkpt>
      <trkpt lat="51.03552" lon="2.39245">
        <ele>3.7</ele>
        <time>2020-06-23T11:03:42Z</time>
      </trkpt>
      <trkpt lat="51.03556" lon="2.39252">
        <ele>3.7</ele>
        <time>2020-06-23T11:03:43Z</time>
      </trkpt>
      <trkpt lat="51.03561" lon="2.39258">
        <ele>3.7</ele>
        <time>2020-06-23T11:03:44Z</time>
      </trkpt>
      <trkpt lat="51.03563" lon="2.39264">
        <ele>3.7</ele>
        <time>2020-06-23T11:03:45Z</time>
      </trkpt>
      <trkpt lat="51.03566" lon="2.39271">
        <ele>3.7</ele>
        <time>2020-06-23T11:03:46Z</time>
      </trkpt>
      <trkpt lat="51.03569" lon="2.39278">
        <ele>3.7</ele>
        <time>2020-06-23T11:03:47Z</time>
      </trkpt>
      <trkpt lat="51.0357" lon="2.39285">
        <ele>3.8</ele>
        <time>2020-06-23T11:03:48Z</time>
      </trkpt>
      <trkpt lat="51.03572" lon="2.39291">
        <ele>3.8</ele>
        <time>2020-06-23T11:03:49Z</time>
      </trkpt>
      <trkpt lat="51.03575" lon="2.39297">
        <ele>3.8</ele>
        <time>2020-06-23T11:03:50Z</time>
      </trkpt>
      <trkpt lat="51.03577" lon="2.39304">
        <ele>3.9</ele>
        <time>2020-06-23T11:03:51Z</time>
      </trkpt>
      <trkpt lat="51.03579" lon="2.39312">
        <ele>4</ele>
        <time>2020-06-23T11:03:52Z</time>
      </trkpt>
      <trkpt lat="51.03581" lon="2.39322">
        <ele>4</ele>
        <time>2020-06-23T11:03:53Z</time>
      </trkpt>
      <trkpt lat="51.03583" lon="2.3933">
        <ele>4</ele>
        <time>2020-06-23T11:03:54Z</time>
      </trkpt>
      <trkpt lat="51.03585" lon="2.39337">
        <ele>4</ele>
        <time>2020-06-23T11:03:55Z</time>
      </trkpt>
      <trkpt lat="51.03587" lon="2.39346">
        <ele>4.1</ele>
        <time>2020-06-23T11:03:56Z</time>
      </trkpt>
      <trkpt lat="51.0359" lon="2.39352">
        <ele>4</ele>
        <time>2020-06-23T11:03:57Z</time>
      </trkpt>
      <trkpt lat="51.03593" lon="2.39359">
        <ele>4</ele>
        <time>2020-06-23T11:03:58Z</time>
      </trkpt>
      <trkpt lat="51.03596" lon="2.39365">
        <ele>4</ele>
        <time>2020-06-23T11:03:59Z</time>
      </trkpt>
      <trkpt lat="51.03599" lon="2.3937">
        <ele>3.9</ele>
        <time>2020-06-23T11:04:00Z</time>
      </trkpt>
      <trkpt lat="51.03602" lon="2.39376">
        <ele>3.9</ele>
        <time>2020-06-23T11:04:01Z</time>
      </trkpt>
      <trkpt lat="51.03606" lon="2.39382">
        <ele>3.9</ele>
        <time>2020-06-23T11:04:02Z</time>
      </trkpt>
      <trkpt lat="51.03609" lon="2.39389">
        <ele>3.8</ele>
        <time>2020-06-23T11:04:03Z</time>
      </trkpt>
      <trkpt lat="51.03612" lon="2.39395">
        <ele>3.8</ele>
        <time>2020-06-23T11:04:04Z</time>
      </trkpt>
      <trkpt lat="51.03615" lon="2.39401">
        <ele>3.8</ele>
        <time>2020-06-23T11:04:05Z</time>
      </trkpt>
      <trkpt lat="51.03618" lon="2.39406">
        <ele>3.8</ele>
        <time>2020-06-23T11:04:06Z</time>
      </trkpt>
      <trkpt lat="51.0362" lon="2.39412">
        <ele>3.8</ele>
        <time>2020-06-23T11:04:07Z</time>
      </trkpt>
      <trkpt lat="51.03622" lon="2.39421">
        <ele>3.8</ele>
        <time>2020-06-23T11:04:08Z</time>
      </trkpt>
      <trkpt lat="51.03625" lon="2.3943">
        <ele>3.8</ele>
        <time>2020-06-23T11:04:09Z</time>
      </trkpt>
      <trkpt lat="51.03628" lon="2.39436">
        <ele>3.8</ele>
        <time>2020-06-23T11:04:10Z</time>
      </trkpt>
      <trkpt lat="51.03629" lon="2.39442">
        <ele>3.8</ele>
        <time>2020-06-23T11:04:11Z</time>
      </trkpt>
      <trkpt lat="51.03631" lon="2.39448">
        <ele>3.9</ele>
        <time>2020-06-23T11:04:12Z</time>
      </trkpt>
      <trkpt lat="51.03632" lon="2.39453">
        <ele>3.9</ele>
        <time>2020-06-23T11:04:13Z</time>
      </trkpt>
      <trkpt lat="51.03634" lon="2.39458">
        <ele>3.9</ele>
        <time>2020-06-23T11:04:14Z</time>
      </trkpt>
      <trkpt lat="51.03637" lon="2.39465">
        <ele>3.9</ele>
        <time>2020-06-23T11:04:15Z</time>
      </trkpt>
      <trkpt lat="51.03641" lon="2.39471">
        <ele>3.9</ele>
        <time>2020-06-23T11:04:16Z</time>
      </trkpt>
      <trkpt lat="51.03644" lon="2.39479">
        <ele>3.9</ele>
        <time>2020-06-23T11:04:17Z</time>
      </trkpt>
      <trkpt lat="51.03647" lon="2.39485">
        <ele>3.9</ele>
        <time>2020-06-23T11:04:18Z</time>
      </trkpt>
      <trkpt lat="51.0365" lon="2.39491">
        <ele>4</ele>
        <time>2020-06-23T11:04:19Z</time>
      </trkpt>
      <trkpt lat="51.03652" lon="2.39497">
        <ele>4.1</ele>
        <time>2020-06-23T11:04:20Z</time>
      </trkpt>
      <trkpt lat="51.03655" lon="2.39505">
        <ele>4.2</ele>
        <time>2020-06-23T11:04:21Z</time>
      </trkpt>
      <trkpt lat="51.03658" lon="2.39512">
        <ele>4.3</ele>
        <time>2020-06-23T11:04:22Z</time>
      </trkpt>
      <trkpt lat="51.03661" lon="2.39519">
        <ele>4.4</ele>
        <time>2020-06-23T11:04:23Z</time>
      </trkpt>
      <trkpt lat="51.03664" lon="2.39526">
        <ele>4.3</ele>
        <time>2020-06-23T11:04:24Z</time>
      </trkpt>
      <trkpt lat="51.03667" lon="2.39532">
        <ele>4.3</ele>
        <time>2020-06-23T11:04:25Z</time>
      </trkpt>
      <trkpt lat="51.0367" lon="2.3954">
        <ele>4.2</ele>
        <time>2020-06-23T11:04:26Z</time>
      </trkpt>
      <trkpt lat="51.03673" lon="2.39548">
        <ele>4.1</ele>
        <time>2020-06-23T11:04:27Z</time>
      </trkpt>
      <trkpt lat="51.03675" lon="2.39557">
        <ele>4.1</ele>
        <time>2020-06-23T11:04:28Z</time>
      </trkpt>
      <trkpt lat="51.03679" lon="2.39565">
        <ele>4.1</ele>
        <time>2020-06-23T11:04:29Z</time>
      </trkpt>
      <trkpt lat="51.03683" lon="2.39573">
        <ele>4.1</ele>
        <time>2020-06-23T11:04:30Z</time>
      </trkpt>
      <trkpt lat="51.03686" lon="2.39581">
        <ele>4.1</ele>
        <time>2020-06-23T11:04:31Z</time>
      </trkpt>
      <trkpt lat="51.03689" lon="2.39589">
        <ele>4.1</ele>
        <time>2020-06-23T11:04:32Z</time>
      </trkpt>
      <trkpt lat="51.03692" lon="2.39596">
        <ele>4.1</ele>
        <time>2020-06-23T11:04:33Z</time>
      </trkpt>
      <trkpt lat="51.03693" lon="2.39603">
        <ele>4.1</ele>
        <time>2020-06-23T11:04:34Z</time>
      </trkpt>
      <trkpt lat="51.03695" lon="2.39609">
        <ele>4.2</ele>
        <time>2020-06-23T11:04:35Z</time>
      </trkpt>
      <trkpt lat="51.037" lon="2.39617">
        <ele>4.2</ele>
        <time>2020-06-23T11:04:36Z</time>
      </trkpt>
      <trkpt lat="51.03703" lon="2.39626">
        <ele>4.2</ele>
        <time>2020-06-23T11:04:37Z</time>
      </trkpt>
      <trkpt lat="51.03706" lon="2.39633">
        <ele>4.3</ele>
        <time>2020-06-23T11:04:38Z</time>
      </trkpt>
      <trkpt lat="51.03709" lon="2.39639">
        <ele>4.3</ele>
        <time>2020-06-23T11:04:39Z</time>
      </trkpt>
      <trkpt lat="51.03712" lon="2.39647">
        <ele>4.4</ele>
        <time>2020-06-23T11:04:40Z</time>
      </trkpt>
      <trkpt lat="51.03714" lon="2.39655">
        <ele>4.4</ele>
        <time>2020-06-23T11:04:41Z</time>
      </trkpt>
      <trkpt lat="51.03717" lon="2.39663">
        <ele>4.5</ele>
        <time>2020-06-23T11:04:42Z</time>
      </trkpt>
      <trkpt lat="51.0372" lon="2.3967">
        <ele>4.5</ele>
        <time>2020-06-23T11:04:43Z</time>
      </trkpt>
      <trkpt lat="51.03722" lon="2.39678">
        <ele>4.6</ele>
        <time>2020-06-23T11:04:44Z</time>
      </trkpt>
      <trkpt lat="51.03722" lon="2.39687">
        <ele>4.6</ele>
        <time>2020-06-23T11:04:45Z</time>
      </trkpt>
      <trkpt lat="51.03721" lon="2.39695">
        <ele>4.5</ele>
        <time>2020-06-23T11:04:46Z</time>
      </trkpt>
      <trkpt lat="51.03724" lon="2.39702">
        <ele>4.5</ele>
        <time>2020-06-23T11:04:47Z</time>
      </trkpt>
      <trkpt lat="51.03726" lon="2.3971">
        <ele>4.4</ele>
        <time>2020-06-23T11:04:48Z</time>
      </trkpt>
      <trkpt lat="51.03729" lon="2.39717">
        <ele>4.3</ele>
        <time>2020-06-23T11:04:49Z</time>
      </trkpt>
      <trkpt lat="51.03732" lon="2.39724">
        <ele>4.3</ele>
        <time>2020-06-23T11:04:50Z</time>
      </trkpt>
      <trkpt lat="51.03735" lon="2.3973">
        <ele>4.2</ele>
        <time>2020-06-23T11:04:51Z</time>
      </trkpt>
      <trkpt lat="51.03736" lon="2.39739">
        <ele>4.1</ele>
        <time>2020-06-23T11:04:52Z</time>
      </trkpt>
      <trkpt lat="51.03738" lon="2.39747">
        <ele>4.1</ele>
        <time>2020-06-23T11:04:53Z</time>
      </trkpt>
      <trkpt lat="51.0374" lon="2.39754">
        <ele>4</ele>
        <time>2020-06-23T11:04:54Z</time>
      </trkpt>
      <trkpt lat="51.03742" lon="2.39761">
        <ele>3.9</ele>
        <time>2020-06-23T11:04:55Z</time>
      </trkpt>
      <trkpt lat="51.03745" lon="2.39769">
        <ele>3.9</ele>
        <time>2020-06-23T11:04:56Z</time>
      </trkpt>
      <trkpt lat="51.03748" lon="2.39776">
        <ele>3.8</ele>
        <time>2020-06-23T11:04:57Z</time>
      </trkpt>
      <trkpt lat="51.03752" lon="2.39785">
        <ele>3.8</ele>
        <time>2020-06-23T11:04:58Z</time>
      </trkpt>
      <trkpt lat="51.03755" lon="2.39791">
        <ele>3.8</ele>
        <time>2020-06-23T11:04:59Z</time>
      </trkpt>
      <trkpt lat="51.03758" lon="2.39801">
        <ele>3.8</ele>
        <time>2020-06-23T11:05:00Z</time>
      </trkpt>
      <trkpt lat="51.03761" lon="2.39809">
        <ele>3.7</ele>
        <time>2020-06-23T11:05:01Z</time>
      </trkpt>
      <trkpt lat="51.03761" lon="2.39815">
        <ele>3.7</ele>
        <time>2020-06-23T11:05:02Z</time>
      </trkpt>
      <trkpt lat="51.03761" lon="2.39822">
        <ele>3.7</ele>
        <time>2020-06-23T11:05:03Z</time>
      </trkpt>
      <trkpt lat="51.0376" lon="2.39829">
        <ele>3.7</ele>
        <time>2020-06-23T11:05:04Z</time>
      </trkpt>
      <trkpt lat="51.03759" lon="2.39836">
        <ele>3.6</ele>
        <time>2020-06-23T11:05:05Z</time>
      </trkpt>
      <trkpt lat="51.03759" lon="2.39841">
        <ele>3.6</ele>
        <time>2020-06-23T11:05:06Z</time>
      </trkpt>
      <trkpt lat="51.03762" lon="2.39849">
        <ele>3.8</ele>
        <time>2020-06-23T11:05:07Z</time>
      </trkpt>
      <trkpt lat="51.03763" lon="2.39855">
        <ele>3.9</ele>
        <time>2020-06-23T11:05:08Z</time>
      </trkpt>
      <trkpt lat="51.03765" lon="2.39858">
        <ele>3.9</ele>
        <time>2020-06-23T11:05:09Z</time>
      </trkpt>
      <trkpt lat="51.03766" lon="2.3986">
        <ele>4</ele>
        <time>2020-06-23T11:05:10Z</time>
      </trkpt>
      <trkpt lat="51.03768" lon="2.39863">
        <ele>4.3</ele>
        <time>2020-06-23T11:05:11Z</time>
      </trkpt>
      <trkpt lat="51.03769" lon="2.39865">
        <ele>4.3</ele>
        <time>2020-06-23T11:05:12Z</time>
      </trkpt>
      <trkpt lat="51.03772" lon="2.39869">
        <ele>4.2</ele>
        <time>2020-06-23T11:05:13Z</time>
      </trkpt>
      <trkpt lat="51.03775" lon="2.39874">
        <ele>4</ele>
        <time>2020-06-23T11:05:14Z</time>
      </trkpt>
      <trkpt lat="51.03777" lon="2.39879">
        <ele>4</ele>
        <time>2020-06-23T11:05:15Z</time>
      </trkpt>
      <trkpt lat="51.0378" lon="2.39884">
        <ele>3.9</ele>
        <time>2020-06-23T11:05:16Z</time>
      </trkpt>
      <trkpt lat="51.03782" lon="2.39889">
        <ele>3.7</ele>
        <time>2020-06-23T11:05:17Z</time>
      </trkpt>
      <trkpt lat="51.03784" lon="2.39894">
        <ele>3.7</ele>
        <time>2020-06-23T11:05:18Z</time>
      </trkpt>
      <trkpt lat="51.03786" lon="2.39899">
        <ele>3.7</ele>
        <time>2020-06-23T11:05:19Z</time>
      </trkpt>
      <trkpt lat="51.03788" lon="2.39906">
        <ele>3.7</ele>
        <time>2020-06-23T11:05:20Z</time>
      </trkpt>
      <trkpt lat="51.0379" lon="2.39915">
        <ele>3.7</ele>
        <time>2020-06-23T11:05:21Z</time>
      </trkpt>
      <trkpt lat="51.03793" lon="2.39923">
        <ele>3.7</ele>
        <time>2020-06-23T11:05:22Z</time>
      </trkpt>
      <trkpt lat="51.03796" lon="2.39931">
        <ele>3.7</ele>
        <time>2020-06-23T11:05:23Z</time>
      </trkpt>
      <trkpt lat="51.03798" lon="2.39938">
        <ele>3.7</ele>
        <time>2020-06-23T11:05:24Z</time>
      </trkpt>
      <trkpt lat="51.038" lon="2.39946">
        <ele>3.6</ele>
        <time>2020-06-23T11:05:25Z</time>
      </trkpt>
      <trkpt lat="51.03802" lon="2.39954">
        <ele>3.6</ele>
        <time>2020-06-23T11:05:26Z</time>
      </trkpt>
      <trkpt lat="51.03805" lon="2.39961">
        <ele>3.6</ele>
        <time>2020-06-23T11:05:27Z</time>
      </trkpt>
      <trkpt lat="51.03807" lon="2.39968">
        <ele>3.6</ele>
        <time>2020-06-23T11:05:28Z</time>
      </trkpt>
      <trkpt lat="51.0381" lon="2.39974">
        <ele>3.6</ele>
        <time>2020-06-23T11:05:29Z</time>
      </trkpt>
      <trkpt lat="51.03812" lon="2.39981">
        <ele>3.6</ele>
        <time>2020-06-23T11:05:30Z</time>
      </trkpt>
      <trkpt lat="51.03814" lon="2.39988">
        <ele>3.6</ele>
        <time>2020-06-23T11:05:31Z</time>
      </trkpt>
      <trkpt lat="51.03816" lon="2.39996">
        <ele>3.6</ele>
        <time>2020-06-23T11:05:32Z</time>
      </trkpt>
      <trkpt lat="51.03817" lon="2.40002">
        <ele>3.6</ele>
        <time>2020-06-23T11:05:33Z</time>
      </trkpt>
      <trkpt lat="51.03819" lon="2.40008">
        <ele>3.6</ele>
        <time>2020-06-23T11:05:34Z</time>
      </trkpt>
      <trkpt lat="51.03822" lon="2.40015">
        <ele>3.6</ele>
        <time>2020-06-23T11:05:35Z</time>
      </trkpt>
      <trkpt lat="51.03824" lon="2.40021">
        <ele>3.6</ele>
        <time>2020-06-23T11:05:36Z</time>
      </trkpt>
      <trkpt lat="51.03828" lon="2.40027">
        <ele>3.6</ele>
        <time>2020-06-23T11:05:37Z</time>
      </trkpt>
      <trkpt lat="51.03831" lon="2.40034">
        <ele>3.6</ele>
        <time>2020-06-23T11:05:38Z</time>
      </trkpt>
      <trkpt lat="51.03834" lon="2.4004">
        <ele>3.6</ele>
        <time>2020-06-23T11:05:39Z</time>
      </trkpt>
      <trkpt lat="51.03838" lon="2.40046">
        <ele>3.6</ele>
        <time>2020-06-23T11:05:40Z</time>
      </trkpt>
      <trkpt lat="51.03841" lon="2.40052">
        <ele>3.6</ele>
        <time>2020-06-23T11:05:41Z</time>
      </trkpt>
      <trkpt lat="51.03845" lon="2.40057">
        <ele>3.6</ele>
        <time>2020-06-23T11:05:42Z</time>
      </trkpt>
      <trkpt lat="51.0385" lon="2.40062">
        <ele>3.6</ele>
        <time>2020-06-23T11:05:43Z</time>
      </trkpt>
      <trkpt lat="51.03855" lon="2.40069">
        <ele>3.6</ele>
        <time>2020-06-23T11:05:44Z</time>
      </trkpt>
      <trkpt lat="51.0386" lon="2.40074">
        <ele>3.7</ele>
        <time>2020-06-23T11:05:45Z</time>
      </trkpt>
      <trkpt lat="51.03866" lon="2.40078">
        <ele>3.7</ele>
        <time>2020-06-23T11:05:46Z</time>
      </trkpt>
      <trkpt lat="51.0387" lon="2.40084">
        <ele>3.7</ele>
        <time>2020-06-23T11:05:47Z</time>
      </trkpt>
      <trkpt lat="51.03875" lon="2.40089">
        <ele>3.8</ele>
        <time>2020-06-23T11:05:48Z</time>
      </trkpt>
      <trkpt lat="51.03879" lon="2.40096">
        <ele>3.8</ele>
        <time>2020-06-23T11:05:49Z</time>
      </trkpt>
      <trkpt lat="51.03884" lon="2.40102">
        <ele>3.9</ele>
        <time>2020-06-23T11:05:50Z</time>
      </trkpt>
      <trkpt lat="51.03887" lon="2.40108">
        <ele>3.9</ele>
        <time>2020-06-23T11:05:51Z</time>
      </trkpt>
      <trkpt lat="51.03892" lon="2.40116">
        <ele>3.9</ele>
        <time>2020-06-23T11:05:52Z</time>
      </trkpt>
      <trkpt lat="51.03896" lon="2.40124">
        <ele>3.9</ele>
        <time>2020-06-23T11:05:53Z</time>
      </trkpt>
      <trkpt lat="51.039" lon="2.40131">
        <ele>3.9</ele>
        <time>2020-06-23T11:05:54Z</time>
      </trkpt>
      <trkpt lat="51.03903" lon="2.40138">
        <ele>3.8</ele>
        <time>2020-06-23T11:05:55Z</time>
      </trkpt>
      <trkpt lat="51.03905" lon="2.40144">
        <ele>3.8</ele>
        <time>2020-06-23T11:05:56Z</time>
      </trkpt>
      <trkpt lat="51.03909" lon="2.4015">
        <ele>3.8</ele>
        <time>2020-06-23T11:05:57Z</time>
      </trkpt>
      <trkpt lat="51.03912" lon="2.40158">
        <ele>3.8</ele>
        <time>2020-06-23T11:05:58Z</time>
      </trkpt>
      <trkpt lat="51.03915" lon="2.40164">
        <ele>3.7</ele>
        <time>2020-06-23T11:05:59Z</time>
      </trkpt>
      <trkpt lat="51.03919" lon="2.4017">
        <ele>3.7</ele>
        <time>2020-06-23T11:06:00Z</time>
      </trkpt>
      <trkpt lat="51.03923" lon="2.40176">
        <ele>3.7</ele>
        <time>2020-06-23T11:06:01Z</time>
      </trkpt>
      <trkpt lat="51.03927" lon="2.40182">
        <ele>3.7</ele>
        <time>2020-06-23T11:06:02Z</time>
      </trkpt>
      <trkpt lat="51.03932" lon="2.40188">
        <ele>3.6</ele>
        <time>2020-06-23T11:06:03Z</time>
      </trkpt>
      <trkpt lat="51.03936" lon="2.40195">
        <ele>3.6</ele>
        <time>2020-06-23T11:06:04Z</time>
      </trkpt>
      <trkpt lat="51.03939" lon="2.402">
        <ele>3.6</ele>
        <time>2020-06-23T11:06:05Z</time>
      </trkpt>
      <trkpt lat="51.03943" lon="2.40207">
        <ele>3.6</ele>
        <time>2020-06-23T11:06:06Z</time>
      </trkpt>
      <trkpt lat="51.03947" lon="2.40213">
        <ele>3.6</ele>
        <time>2020-06-23T11:06:07Z</time>
      </trkpt>
      <trkpt lat="51.03951" lon="2.4022">
        <ele>3.6</ele>
        <time>2020-06-23T11:06:08Z</time>
      </trkpt>
      <trkpt lat="51.03954" lon="2.40225">
        <ele>3.5</ele>
        <time>2020-06-23T11:06:09Z</time>
      </trkpt>
      <trkpt lat="51.03959" lon="2.40231">
        <ele>3.5</ele>
        <time>2020-06-23T11:06:10Z</time>
      </trkpt>
      <trkpt lat="51.03963" lon="2.40237">
        <ele>3.5</ele>
        <time>2020-06-23T11:06:11Z</time>
      </trkpt>
      <trkpt lat="51.03966" lon="2.40242">
        <ele>3.5</ele>
        <time>2020-06-23T11:06:12Z</time>
      </trkpt>
      <trkpt lat="51.03969" lon="2.40249">
        <ele>3.5</ele>
        <time>2020-06-23T11:06:13Z</time>
      </trkpt>
      <trkpt lat="51.03973" lon="2.40256">
        <ele>3.5</ele>
        <time>2020-06-23T11:06:14Z</time>
      </trkpt>
      <trkpt lat="51.03976" lon="2.40262">
        <ele>3.5</ele>
        <time>2020-06-23T11:06:15Z</time>
      </trkpt>
      <trkpt lat="51.0398" lon="2.40266">
        <ele>3.4</ele>
        <time>2020-06-23T11:06:16Z</time>
      </trkpt>
      <trkpt lat="51.03985" lon="2.4027">
        <ele>3.4</ele>
        <time>2020-06-23T11:06:17Z</time>
      </trkpt>
      <trkpt lat="51.03988" lon="2.40275">
        <ele>3.4</ele>
        <time>2020-06-23T11:06:18Z</time>
      </trkpt>
      <trkpt lat="51.03993" lon="2.40279">
        <ele>3.5</ele>
        <time>2020-06-23T11:06:19Z</time>
      </trkpt>
      <trkpt lat="51.03998" lon="2.40285">
        <ele>3.5</ele>
        <time>2020-06-23T11:06:20Z</time>
      </trkpt>
      <trkpt lat="51.04001" lon="2.4029">
        <ele>3.5</ele>
        <time>2020-06-23T11:06:21Z</time>
      </trkpt>
      <trkpt lat="51.04006" lon="2.40296">
        <ele>3.5</ele>
        <time>2020-06-23T11:06:22Z</time>
      </trkpt>
      <trkpt lat="51.0401" lon="2.403">
        <ele>3.5</ele>
        <time>2020-06-23T11:06:23Z</time>
      </trkpt>
      <trkpt lat="51.04015" lon="2.40304">
        <ele>3.5</ele>
        <time>2020-06-23T11:06:24Z</time>
      </trkpt>
      <trkpt lat="51.0402" lon="2.4031">
        <ele>3.5</ele>
        <time>2020-06-23T11:06:25Z</time>
      </trkpt>
      <trkpt lat="51.04023" lon="2.40316">
        <ele>3.5</ele>
        <time>2020-06-23T11:06:26Z</time>
      </trkpt>
      <trkpt lat="51.04027" lon="2.4032">
        <ele>3.5</ele>
        <time>2020-06-23T11:06:27Z</time>
      </trkpt>
      <trkpt lat="51.04032" lon="2.40325">
        <ele>3.5</ele>
        <time>2020-06-23T11:06:28Z</time>
      </trkpt>
      <trkpt lat="51.04035" lon="2.40331">
        <ele>3.5</ele>
        <time>2020-06-23T11:06:29Z</time>
      </trkpt>
      <trkpt lat="51.04039" lon="2.40338">
        <ele>3.6</ele>
        <time>2020-06-23T11:06:30Z</time>
      </trkpt>
      <trkpt lat="51.04043" lon="2.40345">
        <ele>3.6</ele>
        <time>2020-06-23T11:06:31Z</time>
      </trkpt>
      <trkpt lat="51.04048" lon="2.4035">
        <ele>3.7</ele>
        <time>2020-06-23T11:06:32Z</time>
      </trkpt>
      <trkpt lat="51.04051" lon="2.40358">
        <ele>3.7</ele>
        <time>2020-06-23T11:06:33Z</time>
      </trkpt>
      <trkpt lat="51.04055" lon="2.40365">
        <ele>3.8</ele>
        <time>2020-06-23T11:06:34Z</time>
      </trkpt>
      <trkpt lat="51.04059" lon="2.40372">
        <ele>3.8</ele>
        <time>2020-06-23T11:06:35Z</time>
      </trkpt>
      <trkpt lat="51.04063" lon="2.40377">
        <ele>3.9</ele>
        <time>2020-06-23T11:06:36Z</time>
      </trkpt>
      <trkpt lat="51.04066" lon="2.40384">
        <ele>3.9</ele>
        <time>2020-06-23T11:06:37Z</time>
      </trkpt>
      <trkpt lat="51.04068" lon="2.40389">
        <ele>4</ele>
        <time>2020-06-23T11:06:38Z</time>
      </trkpt>
      <trkpt lat="51.04071" lon="2.40396">
        <ele>4</ele>
        <time>2020-06-23T11:06:39Z</time>
      </trkpt>
      <trkpt lat="51.04074" lon="2.40402">
        <ele>4</ele>
        <time>2020-06-23T11:06:40Z</time>
      </trkpt>
      <trkpt lat="51.04078" lon="2.40408">
        <ele>4.1</ele>
        <time>2020-06-23T11:06:41Z</time>
      </trkpt>
      <trkpt lat="51.04081" lon="2.40416">
        <ele>4.1</ele>
        <time>2020-06-23T11:06:42Z</time>
      </trkpt>
      <trkpt lat="51.04084" lon="2.40422">
        <ele>4</ele>
        <time>2020-06-23T11:06:43Z</time>
      </trkpt>
      <trkpt lat="51.04087" lon="2.40428">
        <ele>4</ele>
        <time>2020-06-23T11:06:44Z</time>
      </trkpt>
      <trkpt lat="51.0409" lon="2.40435">
        <ele>4</ele>
        <time>2020-06-23T11:06:45Z</time>
      </trkpt>
      <trkpt lat="51.04094" lon="2.40442">
        <ele>4.1</ele>
        <time>2020-06-23T11:06:46Z</time>
      </trkpt>
      <trkpt lat="51.04096" lon="2.40449">
        <ele>4.1</ele>
        <time>2020-06-23T11:06:47Z</time>
      </trkpt>
      <trkpt lat="51.04099" lon="2.40457">
        <ele>4.1</ele>
        <time>2020-06-23T11:06:48Z</time>
      </trkpt>
      <trkpt lat="51.04101" lon="2.40466">
        <ele>4.1</ele>
        <time>2020-06-23T11:06:49Z</time>
      </trkpt>
      <trkpt lat="51.04103" lon="2.40472">
        <ele>4.2</ele>
        <time>2020-06-23T11:06:50Z</time>
      </trkpt>
      <trkpt lat="51.04105" lon="2.40478">
        <ele>4.2</ele>
        <time>2020-06-23T11:06:51Z</time>
      </trkpt>
      <trkpt lat="51.04107" lon="2.40485">
        <ele>4.2</ele>
        <time>2020-06-23T11:06:52Z</time>
      </trkpt>
      <trkpt lat="51.04107" lon="2.40491">
        <ele>4.2</ele>
        <time>2020-06-23T11:06:53Z</time>
      </trkpt>
      <trkpt lat="51.04109" lon="2.40496">
        <ele>4.2</ele>
        <time>2020-06-23T11:06:54Z</time>
      </trkpt>
      <trkpt lat="51.0411" lon="2.405">
        <ele>4.2</ele>
        <time>2020-06-23T11:06:55Z</time>
      </trkpt>
      <trkpt lat="51.04111" lon="2.40507">
        <ele>4.3</ele>
        <time>2020-06-23T11:06:56Z</time>
      </trkpt>
      <trkpt lat="51.04112" lon="2.4051">
        <ele>4.3</ele>
        <time>2020-06-23T11:06:57Z</time>
      </trkpt>
      <trkpt lat="51.04113" lon="2.40517">
        <ele>4.3</ele>
        <time>2020-06-23T11:06:58Z</time>
      </trkpt>
      <trkpt lat="51.04113" lon="2.40523">
        <ele>4.4</ele>
        <time>2020-06-23T11:06:59Z</time>
      </trkpt>
      <trkpt lat="51.04113" lon="2.40529">
        <ele>4.4</ele>
        <time>2020-06-23T11:07:00Z</time>
      </trkpt>
      <trkpt lat="51.04113" lon="2.40533">
        <ele>4.5</ele>
        <time>2020-06-23T11:07:01Z</time>
      </trkpt>
      <trkpt lat="51.04114" lon="2.40539">
        <ele>4.5</ele>
        <time>2020-06-23T11:07:02Z</time>
      </trkpt>
      <trkpt lat="51.04115" lon="2.40544">
        <ele>4.5</ele>
        <time>2020-06-23T11:07:03Z</time>
      </trkpt>
      <trkpt lat="51.04116" lon="2.40551">
        <ele>4.5</ele>
        <time>2020-06-23T11:07:04Z</time>
      </trkpt>
      <trkpt lat="51.04117" lon="2.40556">
        <ele>4.5</ele>
        <time>2020-06-23T11:07:05Z</time>
      </trkpt>
      <trkpt lat="51.04119" lon="2.40562">
        <ele>4.5</ele>
        <time>2020-06-23T11:07:06Z</time>
      </trkpt>
      <trkpt lat="51.04121" lon="2.4057">
        <ele>4.5</ele>
        <time>2020-06-23T11:07:07Z</time>
      </trkpt>
      <trkpt lat="51.04123" lon="2.40578">
        <ele>4.4</ele>
        <time>2020-06-23T11:07:08Z</time>
      </trkpt>
      <trkpt lat="51.04125" lon="2.40586">
        <ele>4.4</ele>
        <time>2020-06-23T11:07:09Z</time>
      </trkpt>
      <trkpt lat="51.04127" lon="2.40593">
        <ele>4.4</ele>
        <time>2020-06-23T11:07:10Z</time>
      </trkpt>
      <trkpt lat="51.04128" lon="2.40601">
        <ele>4.3</ele>
        <time>2020-06-23T11:07:11Z</time>
      </trkpt>
      <trkpt lat="51.0413" lon="2.40608">
        <ele>4.3</ele>
        <time>2020-06-23T11:07:12Z</time>
      </trkpt>
      <trkpt lat="51.04132" lon="2.40616">
        <ele>4.3</ele>
        <time>2020-06-23T11:07:13Z</time>
      </trkpt>
      <trkpt lat="51.04135" lon="2.40625">
        <ele>4.2</ele>
        <time>2020-06-23T11:07:14Z</time>
      </trkpt>
      <trkpt lat="51.04137" lon="2.40633">
        <ele>4.2</ele>
        <time>2020-06-23T11:07:15Z</time>
      </trkpt>
      <trkpt lat="51.04139" lon="2.4064">
        <ele>4.2</ele>
        <time>2020-06-23T11:07:16Z</time>
      </trkpt>
      <trkpt lat="51.04141" lon="2.40647">
        <ele>4.1</ele>
        <time>2020-06-23T11:07:17Z</time>
      </trkpt>
      <trkpt lat="51.04143" lon="2.40653">
        <ele>4.1</ele>
        <time>2020-06-23T11:07:18Z</time>
      </trkpt>
      <trkpt lat="51.04145" lon="2.4066">
        <ele>4.1</ele>
        <time>2020-06-23T11:07:19Z</time>
      </trkpt>
      <trkpt lat="51.04148" lon="2.40668">
        <ele>4.1</ele>
        <time>2020-06-23T11:07:20Z</time>
      </trkpt>
      <trkpt lat="51.0415" lon="2.40676">
        <ele>4.1</ele>
        <time>2020-06-23T11:07:21Z</time>
      </trkpt>
      <trkpt lat="51.04152" lon="2.40686">
        <ele>4.1</ele>
        <time>2020-06-23T11:07:22Z</time>
      </trkpt>
      <trkpt lat="51.04154" lon="2.40695">
        <ele>4.1</ele>
        <time>2020-06-23T11:07:23Z</time>
      </trkpt>
      <trkpt lat="51.04157" lon="2.40704">
        <ele>4.1</ele>
        <time>2020-06-23T11:07:24Z</time>
      </trkpt>
      <trkpt lat="51.04158" lon="2.40711">
        <ele>4.1</ele>
        <time>2020-06-23T11:07:25Z</time>
      </trkpt>
      <trkpt lat="51.0416" lon="2.40719">
        <ele>4.1</ele>
        <time>2020-06-23T11:07:26Z</time>
      </trkpt>
      <trkpt lat="51.04163" lon="2.40728">
        <ele>4.1</ele>
        <time>2020-06-23T11:07:27Z</time>
      </trkpt>
      <trkpt lat="51.04165" lon="2.40736">
        <ele>4.1</ele>
        <time>2020-06-23T11:07:28Z</time>
      </trkpt>
      <trkpt lat="51.04168" lon="2.40745">
        <ele>4.2</ele>
        <time>2020-06-23T11:07:29Z</time>
      </trkpt>
      <trkpt lat="51.04169" lon="2.40753">
        <ele>4.1</ele>
        <time>2020-06-23T11:07:30Z</time>
      </trkpt>
      <trkpt lat="51.0417" lon="2.40761">
        <ele>4.1</ele>
        <time>2020-06-23T11:07:31Z</time>
      </trkpt>
      <trkpt lat="51.04173" lon="2.40769">
        <ele>4.1</ele>
        <time>2020-06-23T11:07:32Z</time>
      </trkpt>
      <trkpt lat="51.04175" lon="2.40777">
        <ele>4</ele>
        <time>2020-06-23T11:07:33Z</time>
      </trkpt>
      <trkpt lat="51.04178" lon="2.40786">
        <ele>4</ele>
        <time>2020-06-23T11:07:34Z</time>
      </trkpt>
      <trkpt lat="51.0418" lon="2.40795">
        <ele>3.9</ele>
        <time>2020-06-23T11:07:35Z</time>
      </trkpt>
      <trkpt lat="51.04182" lon="2.40802">
        <ele>3.9</ele>
        <time>2020-06-23T11:07:36Z</time>
      </trkpt>
      <trkpt lat="51.04183" lon="2.4081">
        <ele>3.9</ele>
        <time>2020-06-23T11:07:37Z</time>
      </trkpt>
      <trkpt lat="51.04184" lon="2.40818">
        <ele>3.9</ele>
        <time>2020-06-23T11:07:38Z</time>
      </trkpt>
      <trkpt lat="51.04186" lon="2.40824">
        <ele>3.9</ele>
        <time>2020-06-23T11:07:39Z</time>
      </trkpt>
      <trkpt lat="51.04187" lon="2.40832">
        <ele>3.8</ele>
        <time>2020-06-23T11:07:40Z</time>
      </trkpt>
      <trkpt lat="51.0419" lon="2.40839">
        <ele>3.8</ele>
        <time>2020-06-23T11:07:41Z</time>
      </trkpt>
      <trkpt lat="51.04192" lon="2.40847">
        <ele>3.8</ele>
        <time>2020-06-23T11:07:42Z</time>
      </trkpt>
      <trkpt lat="51.04194" lon="2.40855">
        <ele>3.8</ele>
        <time>2020-06-23T11:07:43Z</time>
      </trkpt>
      <trkpt lat="51.04196" lon="2.40862">
        <ele>3.8</ele>
        <time>2020-06-23T11:07:44Z</time>
      </trkpt>
      <trkpt lat="51.04198" lon="2.4087">
        <ele>3.7</ele>
        <time>2020-06-23T11:07:45Z</time>
      </trkpt>
      <trkpt lat="51.042" lon="2.40877">
        <ele>3.7</ele>
        <time>2020-06-23T11:07:46Z</time>
      </trkpt>
      <trkpt lat="51.04201" lon="2.40887">
        <ele>3.7</ele>
        <time>2020-06-23T11:07:47Z</time>
      </trkpt>
      <trkpt lat="51.04204" lon="2.40895">
        <ele>3.7</ele>
        <time>2020-06-23T11:07:48Z</time>
      </trkpt>
      <trkpt lat="51.04206" lon="2.40903">
        <ele>3.7</ele>
        <time>2020-06-23T11:07:49Z</time>
      </trkpt>
      <trkpt lat="51.04208" lon="2.40911">
        <ele>3.7</ele>
        <time>2020-06-23T11:07:50Z</time>
      </trkpt>
      <trkpt lat="51.0421" lon="2.40919">
        <ele>3.7</ele>
        <time>2020-06-23T11:07:51Z</time>
      </trkpt>
      <trkpt lat="51.04212" lon="2.40927">
        <ele>3.7</ele>
        <time>2020-06-23T11:07:52Z</time>
      </trkpt>
      <trkpt lat="51.04214" lon="2.40936">
        <ele>3.7</ele>
        <time>2020-06-23T11:07:53Z</time>
      </trkpt>
      <trkpt lat="51.04216" lon="2.40942">
        <ele>3.7</ele>
        <time>2020-06-23T11:07:54Z</time>
      </trkpt>
      <trkpt lat="51.04218" lon="2.40949">
        <ele>3.8</ele>
        <time>2020-06-23T11:07:55Z</time>
      </trkpt>
      <trkpt lat="51.04221" lon="2.40957">
        <ele>3.8</ele>
        <time>2020-06-23T11:07:56Z</time>
      </trkpt>
      <trkpt lat="51.04222" lon="2.40965">
        <ele>3.8</ele>
        <time>2020-06-23T11:07:57Z</time>
      </trkpt>
      <trkpt lat="51.04225" lon="2.40972">
        <ele>3.8</ele>
        <time>2020-06-23T11:07:58Z</time>
      </trkpt>
      <trkpt lat="51.04228" lon="2.40979">
        <ele>3.9</ele>
        <time>2020-06-23T11:07:59Z</time>
      </trkpt>
      <trkpt lat="51.04231" lon="2.40987">
        <ele>3.9</ele>
        <time>2020-06-23T11:08:00Z</time>
      </trkpt>
      <trkpt lat="51.04233" lon="2.40995">
        <ele>3.9</ele>
        <time>2020-06-23T11:08:01Z</time>
      </trkpt>
      <trkpt lat="51.04235" lon="2.41003">
        <ele>3.9</ele>
        <time>2020-06-23T11:08:02Z</time>
      </trkpt>
      <trkpt lat="51.04238" lon="2.41011">
        <ele>3.9</ele>
        <time>2020-06-23T11:08:03Z</time>
      </trkpt>
      <trkpt lat="51.04241" lon="2.41018">
        <ele>3.9</ele>
        <time>2020-06-23T11:08:04Z</time>
      </trkpt>
      <trkpt lat="51.04243" lon="2.41025">
        <ele>4</ele>
        <time>2020-06-23T11:08:05Z</time>
      </trkpt>
      <trkpt lat="51.04246" lon="2.41032">
        <ele>4</ele>
        <time>2020-06-23T11:08:06Z</time>
      </trkpt>
      <trkpt lat="51.04249" lon="2.4104">
        <ele>4</ele>
        <time>2020-06-23T11:08:07Z</time>
      </trkpt>
      <trkpt lat="51.04253" lon="2.41048">
        <ele>4</ele>
        <time>2020-06-23T11:08:08Z</time>
      </trkpt>
      <trkpt lat="51.04256" lon="2.41057">
        <ele>4</ele>
        <time>2020-06-23T11:08:09Z</time>
      </trkpt>
      <trkpt lat="51.04259" lon="2.41066">
        <ele>4.1</ele>
        <time>2020-06-23T11:08:10Z</time>
      </trkpt>
      <trkpt lat="51.04263" lon="2.41074">
        <ele>4.1</ele>
        <time>2020-06-23T11:08:11Z</time>
      </trkpt>
      <trkpt lat="51.04266" lon="2.41082">
        <ele>4.1</ele>
        <time>2020-06-23T11:08:12Z</time>
      </trkpt>
      <trkpt lat="51.04269" lon="2.41089">
        <ele>4.2</ele>
        <time>2020-06-23T11:08:13Z</time>
      </trkpt>
      <trkpt lat="51.04271" lon="2.41096">
        <ele>4.2</ele>
        <time>2020-06-23T11:08:14Z</time>
      </trkpt>
      <trkpt lat="51.04272" lon="2.41102">
        <ele>4.2</ele>
        <time>2020-06-23T11:08:15Z</time>
      </trkpt>
      <trkpt lat="51.04275" lon="2.4111">
        <ele>4.2</ele>
        <time>2020-06-23T11:08:16Z</time>
      </trkpt>
      <trkpt lat="51.04278" lon="2.41116">
        <ele>4.3</ele>
        <time>2020-06-23T11:08:17Z</time>
      </trkpt>
      <trkpt lat="51.0428" lon="2.41124">
        <ele>4.3</ele>
        <time>2020-06-23T11:08:18Z</time>
      </trkpt>
      <trkpt lat="51.04282" lon="2.41131">
        <ele>4.3</ele>
        <time>2020-06-23T11:08:19Z</time>
      </trkpt>
      <trkpt lat="51.04283" lon="2.41138">
        <ele>4.3</ele>
        <time>2020-06-23T11:08:20Z</time>
      </trkpt>
      <trkpt lat="51.04283" lon="2.41144">
        <ele>4.3</ele>
        <time>2020-06-23T11:08:21Z</time>
      </trkpt>
      <trkpt lat="51.04285" lon="2.4115">
        <ele>4.3</ele>
        <time>2020-06-23T11:08:22Z</time>
      </trkpt>
      <trkpt lat="51.04286" lon="2.41156">
        <ele>4.3</ele>
        <time>2020-06-23T11:08:23Z</time>
      </trkpt>
      <trkpt lat="51.04287" lon="2.41162">
        <ele>4.3</ele>
        <time>2020-06-23T11:08:24Z</time>
      </trkpt>
      <trkpt lat="51.04289" lon="2.41168">
        <ele>4.3</ele>
        <time>2020-06-23T11:08:25Z</time>
      </trkpt>
      <trkpt lat="51.04291" lon="2.41174">
        <ele>4.2</ele>
        <time>2020-06-23T11:08:26Z</time>
      </trkpt>
      <trkpt lat="51.04292" lon="2.41181">
        <ele>4.1</ele>
        <time>2020-06-23T11:08:27Z</time>
      </trkpt>
      <trkpt lat="51.04293" lon="2.41187">
        <ele>4</ele>
        <time>2020-06-23T11:08:28Z</time>
      </trkpt>
      <trkpt lat="51.04294" lon="2.41193">
        <ele>4</ele>
        <time>2020-06-23T11:08:29Z</time>
      </trkpt>
      <trkpt lat="51.04295" lon="2.412">
        <ele>4</ele>
        <time>2020-06-23T11:08:30Z</time>
      </trkpt>
      <trkpt lat="51.04297" lon="2.41207">
        <ele>4</ele>
        <time>2020-06-23T11:08:31Z</time>
      </trkpt>
      <trkpt lat="51.04298" lon="2.41215">
        <ele>4</ele>
        <time>2020-06-23T11:08:32Z</time>
      </trkpt>
      <trkpt lat="51.04299" lon="2.41225">
        <ele>4</ele>
        <time>2020-06-23T11:08:33Z</time>
      </trkpt>
      <trkpt lat="51.04302" lon="2.41233">
        <ele>4</ele>
        <time>2020-06-23T11:08:34Z</time>
      </trkpt>
      <trkpt lat="51.04304" lon="2.4124">
        <ele>3.9</ele>
        <time>2020-06-23T11:08:35Z</time>
      </trkpt>
      <trkpt lat="51.04305" lon="2.41248">
        <ele>3.9</ele>
        <time>2020-06-23T11:08:36Z</time>
      </trkpt>
      <trkpt lat="51.04307" lon="2.41256">
        <ele>3.8</ele>
        <time>2020-06-23T11:08:37Z</time>
      </trkpt>
      <trkpt lat="51.04309" lon="2.41264">
        <ele>3.8</ele>
        <time>2020-06-23T11:08:38Z</time>
      </trkpt>
      <trkpt lat="51.0431" lon="2.41272">
        <ele>3.7</ele>
        <time>2020-06-23T11:08:39Z</time>
      </trkpt>
      <trkpt lat="51.04312" lon="2.4128">
        <ele>3.6</ele>
        <time>2020-06-23T11:08:40Z</time>
      </trkpt>
      <trkpt lat="51.04314" lon="2.41288">
        <ele>3.6</ele>
        <time>2020-06-23T11:08:41Z</time>
      </trkpt>
      <trkpt lat="51.04315" lon="2.41297">
        <ele>3.5</ele>
        <time>2020-06-23T11:08:42Z</time>
      </trkpt>
      <trkpt lat="51.04317" lon="2.41305">
        <ele>3.4</ele>
        <time>2020-06-23T11:08:43Z</time>
      </trkpt>
      <trkpt lat="51.04319" lon="2.41314">
        <ele>3.4</ele>
        <time>2020-06-23T11:08:44Z</time>
      </trkpt>
      <trkpt lat="51.04322" lon="2.41322">
        <ele>3.4</ele>
        <time>2020-06-23T11:08:45Z</time>
      </trkpt>
      <trkpt lat="51.04325" lon="2.4133">
        <ele>3.4</ele>
        <time>2020-06-23T11:08:46Z</time>
      </trkpt>
      <trkpt lat="51.04327" lon="2.41338">
        <ele>3.4</ele>
        <time>2020-06-23T11:08:47Z</time>
      </trkpt>
      <trkpt lat="51.0433" lon="2.41347">
        <ele>3.4</ele>
        <time>2020-06-23T11:08:48Z</time>
      </trkpt>
      <trkpt lat="51.04332" lon="2.41356">
        <ele>3.4</ele>
        <time>2020-06-23T11:08:49Z</time>
      </trkpt>
      <trkpt lat="51.04335" lon="2.41364">
        <ele>3.4</ele>
        <time>2020-06-23T11:08:50Z</time>
      </trkpt>
      <trkpt lat="51.04338" lon="2.41372">
        <ele>3.3</ele>
        <time>2020-06-23T11:08:51Z</time>
      </trkpt>
      <trkpt lat="51.04341" lon="2.4138">
        <ele>3.3</ele>
        <time>2020-06-23T11:08:52Z</time>
      </trkpt>
      <trkpt lat="51.04344" lon="2.41388">
        <ele>3.3</ele>
        <time>2020-06-23T11:08:53Z</time>
      </trkpt>
      <trkpt lat="51.04347" lon="2.41396">
        <ele>3.3</ele>
        <time>2020-06-23T11:08:54Z</time>
      </trkpt>
      <trkpt lat="51.04349" lon="2.41404">
        <ele>3.3</ele>
        <time>2020-06-23T11:08:55Z</time>
      </trkpt>
      <trkpt lat="51.04352" lon="2.41411">
        <ele>3.3</ele>
        <time>2020-06-23T11:08:56Z</time>
      </trkpt>
      <trkpt lat="51.04355" lon="2.4142">
        <ele>3.3</ele>
        <time>2020-06-23T11:08:57Z</time>
      </trkpt>
      <trkpt lat="51.04358" lon="2.41429">
        <ele>3.3</ele>
        <time>2020-06-23T11:08:58Z</time>
      </trkpt>
      <trkpt lat="51.0436" lon="2.41438">
        <ele>3.4</ele>
        <time>2020-06-23T11:08:59Z</time>
      </trkpt>
      <trkpt lat="51.04363" lon="2.41443">
        <ele>3.4</ele>
        <time>2020-06-23T11:09:00Z</time>
      </trkpt>
      <trkpt lat="51.04365" lon="2.4145">
        <ele>3.5</ele>
        <time>2020-06-23T11:09:01Z</time>
      </trkpt>
      <trkpt lat="51.04367" lon="2.41458">
        <ele>3.5</ele>
        <time>2020-06-23T11:09:02Z</time>
      </trkpt>
      <trkpt lat="51.0437" lon="2.41466">
        <ele>3.5</ele>
        <time>2020-06-23T11:09:03Z</time>
      </trkpt>
      <trkpt lat="51.04373" lon="2.41474">
        <ele>3.6</ele>
        <time>2020-06-23T11:09:04Z</time>
      </trkpt>
      <trkpt lat="51.04375" lon="2.41482">
        <ele>3.5</ele>
        <time>2020-06-23T11:09:05Z</time>
      </trkpt>
      <trkpt lat="51.04378" lon="2.4149">
        <ele>3.5</ele>
        <time>2020-06-23T11:09:06Z</time>
      </trkpt>
      <trkpt lat="51.04381" lon="2.41497">
        <ele>3.5</ele>
        <time>2020-06-23T11:09:07Z</time>
      </trkpt>
      <trkpt lat="51.04384" lon="2.41505">
        <ele>3.5</ele>
        <time>2020-06-23T11:09:08Z</time>
      </trkpt>
      <trkpt lat="51.04387" lon="2.41513">
        <ele>3.5</ele>
        <time>2020-06-23T11:09:09Z</time>
      </trkpt>
      <trkpt lat="51.0439" lon="2.41521">
        <ele>3.5</ele>
        <time>2020-06-23T11:09:10Z</time>
      </trkpt>
      <trkpt lat="51.04393" lon="2.41529">
        <ele>3.5</ele>
        <time>2020-06-23T11:09:11Z</time>
      </trkpt>
      <trkpt lat="51.04395" lon="2.41538">
        <ele>3.5</ele>
        <time>2020-06-23T11:09:12Z</time>
      </trkpt>
      <trkpt lat="51.04399" lon="2.41546">
        <ele>3.5</ele>
        <time>2020-06-23T11:09:13Z</time>
      </trkpt>
      <trkpt lat="51.04402" lon="2.41554">
        <ele>3.5</ele>
        <time>2020-06-23T11:09:14Z</time>
      </trkpt>
      <trkpt lat="51.04406" lon="2.41563">
        <ele>3.4</ele>
        <time>2020-06-23T11:09:15Z</time>
      </trkpt>
      <trkpt lat="51.04409" lon="2.41572">
        <ele>3.4</ele>
        <time>2020-06-23T11:09:16Z</time>
      </trkpt>
      <trkpt lat="51.04412" lon="2.41581">
        <ele>3.4</ele>
        <time>2020-06-23T11:09:17Z</time>
      </trkpt>
      <trkpt lat="51.04416" lon="2.41589">
        <ele>3.4</ele>
        <time>2020-06-23T11:09:18Z</time>
      </trkpt>
      <trkpt lat="51.04418" lon="2.41596">
        <ele>3.4</ele>
        <time>2020-06-23T11:09:19Z</time>
      </trkpt>
      <trkpt lat="51.04421" lon="2.41603">
        <ele>3.4</ele>
        <time>2020-06-23T11:09:20Z</time>
      </trkpt>
      <trkpt lat="51.04424" lon="2.41611">
        <ele>3.3</ele>
        <time>2020-06-23T11:09:21Z</time>
      </trkpt>
      <trkpt lat="51.04428" lon="2.41621">
        <ele>3.3</ele>
        <time>2020-06-23T11:09:22Z</time>
      </trkpt>
      <trkpt lat="51.04431" lon="2.41628">
        <ele>3.3</ele>
        <time>2020-06-23T11:09:23Z</time>
      </trkpt>
      <trkpt lat="51.04434" lon="2.41636">
        <ele>3.3</ele>
        <time>2020-06-23T11:09:24Z</time>
      </trkpt>
      <trkpt lat="51.04437" lon="2.41645">
        <ele>3.2</ele>
        <time>2020-06-23T11:09:25Z</time>
      </trkpt>
      <trkpt lat="51.0444" lon="2.41652">
        <ele>3.2</ele>
        <time>2020-06-23T11:09:26Z</time>
      </trkpt>
      <trkpt lat="51.04443" lon="2.4166">
        <ele>3.2</ele>
        <time>2020-06-23T11:09:27Z</time>
      </trkpt>
      <trkpt lat="51.04446" lon="2.41669">
        <ele>3.2</ele>
        <time>2020-06-23T11:09:28Z</time>
      </trkpt>
      <trkpt lat="51.04449" lon="2.41678">
        <ele>3.2</ele>
        <time>2020-06-23T11:09:29Z</time>
      </trkpt>
      <trkpt lat="51.04451" lon="2.41685">
        <ele>3.2</ele>
        <time>2020-06-23T11:09:30Z</time>
      </trkpt>
      <trkpt lat="51.04455" lon="2.41693">
        <ele>3.2</ele>
        <time>2020-06-23T11:09:31Z</time>
      </trkpt>
      <trkpt lat="51.04458" lon="2.41701">
        <ele>3.2</ele>
        <time>2020-06-23T11:09:32Z</time>
      </trkpt>
      <trkpt lat="51.0446" lon="2.41709">
        <ele>3.2</ele>
        <time>2020-06-23T11:09:33Z</time>
      </trkpt>
      <trkpt lat="51.04463" lon="2.41717">
        <ele>3.2</ele>
        <time>2020-06-23T11:09:34Z</time>
      </trkpt>
      <trkpt lat="51.04465" lon="2.41726">
        <ele>3.3</ele>
        <time>2020-06-23T11:09:35Z</time>
      </trkpt>
      <trkpt lat="51.04465" lon="2.41736">
        <ele>3.3</ele>
        <time>2020-06-23T11:09:36Z</time>
      </trkpt>
      <trkpt lat="51.04466" lon="2.41744">
        <ele>3.3</ele>
        <time>2020-06-23T11:09:37Z</time>
      </trkpt>
      <trkpt lat="51.04468" lon="2.41753">
        <ele>3.3</ele>
        <time>2020-06-23T11:09:38Z</time>
      </trkpt>
      <trkpt lat="51.04471" lon="2.41761">
        <ele>3.3</ele>
        <time>2020-06-23T11:09:39Z</time>
      </trkpt>
      <trkpt lat="51.04473" lon="2.41768">
        <ele>3.3</ele>
        <time>2020-06-23T11:09:40Z</time>
      </trkpt>
      <trkpt lat="51.04475" lon="2.41775">
        <ele>3.3</ele>
        <time>2020-06-23T11:09:41Z</time>
      </trkpt>
      <trkpt lat="51.04478" lon="2.41784">
        <ele>3.3</ele>
        <time>2020-06-23T11:09:42Z</time>
      </trkpt>
      <trkpt lat="51.0448" lon="2.41792">
        <ele>3.3</ele>
        <time>2020-06-23T11:09:43Z</time>
      </trkpt>
      <trkpt lat="51.04483" lon="2.41801">
        <ele>3.4</ele>
        <time>2020-06-23T11:09:44Z</time>
      </trkpt>
      <trkpt lat="51.04485" lon="2.41809">
        <ele>3.4</ele>
        <time>2020-06-23T11:09:45Z</time>
      </trkpt>
      <trkpt lat="51.04487" lon="2.41818">
        <ele>3.4</ele>
        <time>2020-06-23T11:09:46Z</time>
      </trkpt>
      <trkpt lat="51.0449" lon="2.41826">
        <ele>3.4</ele>
        <time>2020-06-23T11:09:47Z</time>
      </trkpt>
      <trkpt lat="51.04493" lon="2.41834">
        <ele>3.5</ele>
        <time>2020-06-23T11:09:48Z</time>
      </trkpt>
      <trkpt lat="51.04496" lon="2.41841">
        <ele>3.5</ele>
        <time>2020-06-23T11:09:49Z</time>
      </trkpt>
      <trkpt lat="51.04499" lon="2.41849">
        <ele>3.5</ele>
        <time>2020-06-23T11:09:50Z</time>
      </trkpt>
      <trkpt lat="51.04502" lon="2.41857">
        <ele>3.6</ele>
        <time>2020-06-23T11:09:51Z</time>
      </trkpt>
      <trkpt lat="51.04504" lon="2.41865">
        <ele>3.6</ele>
        <time>2020-06-23T11:09:52Z</time>
      </trkpt>
      <trkpt lat="51.04507" lon="2.41872">
        <ele>3.7</ele>
        <time>2020-06-23T11:09:53Z</time>
      </trkpt>
      <trkpt lat="51.0451" lon="2.4188">
        <ele>3.7</ele>
        <time>2020-06-23T11:09:54Z</time>
      </trkpt>
      <trkpt lat="51.04513" lon="2.4189">
        <ele>3.8</ele>
        <time>2020-06-23T11:09:55Z</time>
      </trkpt>
      <trkpt lat="51.04516" lon="2.41897">
        <ele>3.8</ele>
        <time>2020-06-23T11:09:56Z</time>
      </trkpt>
      <trkpt lat="51.04517" lon="2.41905">
        <ele>3.9</ele>
        <time>2020-06-23T11:09:57Z</time>
      </trkpt>
      <trkpt lat="51.04518" lon="2.41912">
        <ele>3.9</ele>
        <time>2020-06-23T11:09:58Z</time>
      </trkpt>
      <trkpt lat="51.0452" lon="2.4192">
        <ele>4</ele>
        <time>2020-06-23T11:09:59Z</time>
      </trkpt>
      <trkpt lat="51.04523" lon="2.41927">
        <ele>4.1</ele>
        <time>2020-06-23T11:10:00Z</time>
      </trkpt>
      <trkpt lat="51.04526" lon="2.41935">
        <ele>4.2</ele>
        <time>2020-06-23T11:10:01Z</time>
      </trkpt>
      <trkpt lat="51.04528" lon="2.41941">
        <ele>4.3</ele>
        <time>2020-06-23T11:10:02Z</time>
      </trkpt>
      <trkpt lat="51.04529" lon="2.41949">
        <ele>4.4</ele>
        <time>2020-06-23T11:10:03Z</time>
      </trkpt>
      <trkpt lat="51.04531" lon="2.41956">
        <ele>4.3</ele>
        <time>2020-06-23T11:10:04Z</time>
      </trkpt>
      <trkpt lat="51.04533" lon="2.41961">
        <ele>4.3</ele>
        <time>2020-06-23T11:10:05Z</time>
      </trkpt>
      <trkpt lat="51.04536" lon="2.41967">
        <ele>4.3</ele>
        <time>2020-06-23T11:10:06Z</time>
      </trkpt>
      <trkpt lat="51.04539" lon="2.41974">
        <ele>4.3</ele>
        <time>2020-06-23T11:10:07Z</time>
      </trkpt>
      <trkpt lat="51.04543" lon="2.4198">
        <ele>4.3</ele>
        <time>2020-06-23T11:10:08Z</time>
      </trkpt>
      <trkpt lat="51.04546" lon="2.41988">
        <ele>4.4</ele>
        <time>2020-06-23T11:10:09Z</time>
      </trkpt>
      <trkpt lat="51.0455" lon="2.41995">
        <ele>4.5</ele>
        <time>2020-06-23T11:10:10Z</time>
      </trkpt>
      <trkpt lat="51.04552" lon="2.42002">
        <ele>4.5</ele>
        <time>2020-06-23T11:10:11Z</time>
      </trkpt>
      <trkpt lat="51.04554" lon="2.42009">
        <ele>4.5</ele>
        <time>2020-06-23T11:10:12Z</time>
      </trkpt>
      <trkpt lat="51.04557" lon="2.42017">
        <ele>4.5</ele>
        <time>2020-06-23T11:10:13Z</time>
      </trkpt>
      <trkpt lat="51.04559" lon="2.42025">
        <ele>4.5</ele>
        <time>2020-06-23T11:10:14Z</time>
      </trkpt>
      <trkpt lat="51.04561" lon="2.42033">
        <ele>4.5</ele>
        <time>2020-06-23T11:10:15Z</time>
      </trkpt>
      <trkpt lat="51.04563" lon="2.42042">
        <ele>4.5</ele>
        <time>2020-06-23T11:10:16Z</time>
      </trkpt>
      <trkpt lat="51.04565" lon="2.42051">
        <ele>4.5</ele>
        <time>2020-06-23T11:10:17Z</time>
      </trkpt>
      <trkpt lat="51.04566" lon="2.4206">
        <ele>4.6</ele>
        <time>2020-06-23T11:10:18Z</time>
      </trkpt>
      <trkpt lat="51.04568" lon="2.4207">
        <ele>4.6</ele>
        <time>2020-06-23T11:10:19Z</time>
      </trkpt>
      <trkpt lat="51.04568" lon="2.4208">
        <ele>4.7</ele>
        <time>2020-06-23T11:10:20Z</time>
      </trkpt>
      <trkpt lat="51.0457" lon="2.42089">
        <ele>4.8</ele>
        <time>2020-06-23T11:10:21Z</time>
      </trkpt>
      <trkpt lat="51.04572" lon="2.42098">
        <ele>4.8</ele>
        <time>2020-06-23T11:10:22Z</time>
      </trkpt>
      <trkpt lat="51.04575" lon="2.42106">
        <ele>4.8</ele>
        <time>2020-06-23T11:10:23Z</time>
      </trkpt>
      <trkpt lat="51.04576" lon="2.42115">
        <ele>4.9</ele>
        <time>2020-06-23T11:10:24Z</time>
      </trkpt>
      <trkpt lat="51.04579" lon="2.42123">
        <ele>4.9</ele>
        <time>2020-06-23T11:10:25Z</time>
      </trkpt>
      <trkpt lat="51.0458" lon="2.42131">
        <ele>4.9</ele>
        <time>2020-06-23T11:10:26Z</time>
      </trkpt>
      <trkpt lat="51.04582" lon="2.4214">
        <ele>5</ele>
        <time>2020-06-23T11:10:27Z</time>
      </trkpt>
      <trkpt lat="51.04584" lon="2.42148">
        <ele>5</ele>
        <time>2020-06-23T11:10:28Z</time>
      </trkpt>
      <trkpt lat="51.04585" lon="2.42157">
        <ele>5.1</ele>
        <time>2020-06-23T11:10:29Z</time>
      </trkpt>
      <trkpt lat="51.04587" lon="2.42165">
        <ele>5.1</ele>
        <time>2020-06-23T11:10:30Z</time>
      </trkpt>
      <trkpt lat="51.04589" lon="2.42174">
        <ele>5.2</ele>
        <time>2020-06-23T11:10:31Z</time>
      </trkpt>
      <trkpt lat="51.0459" lon="2.42183">
        <ele>5.2</ele>
        <time>2020-06-23T11:10:32Z</time>
      </trkpt>
      <trkpt lat="51.04592" lon="2.42192">
        <ele>5.2</ele>
        <time>2020-06-23T11:10:33Z</time>
      </trkpt>
      <trkpt lat="51.04594" lon="2.422">
        <ele>5.3</ele>
        <time>2020-06-23T11:10:34Z</time>
      </trkpt>
      <trkpt lat="51.04597" lon="2.42208">
        <ele>5.4</ele>
        <time>2020-06-23T11:10:35Z</time>
      </trkpt>
      <trkpt lat="51.04599" lon="2.42216">
        <ele>5.4</ele>
        <time>2020-06-23T11:10:36Z</time>
      </trkpt>
      <trkpt lat="51.046" lon="2.42225">
        <ele>5.5</ele>
        <time>2020-06-23T11:10:37Z</time>
      </trkpt>
      <trkpt lat="51.04602" lon="2.42234">
        <ele>5.6</ele>
        <time>2020-06-23T11:10:38Z</time>
      </trkpt>
      <trkpt lat="51.04604" lon="2.42243">
        <ele>5.7</ele>
        <time>2020-06-23T11:10:39Z</time>
      </trkpt>
      <trkpt lat="51.04606" lon="2.4225">
        <ele>5.7</ele>
        <time>2020-06-23T11:10:40Z</time>
      </trkpt>
      <trkpt lat="51.04608" lon="2.42258">
        <ele>5.8</ele>
        <time>2020-06-23T11:10:41Z</time>
      </trkpt>
      <trkpt lat="51.04611" lon="2.42266">
        <ele>5.8</ele>
        <time>2020-06-23T11:10:42Z</time>
      </trkpt>
      <trkpt lat="51.04613" lon="2.42276">
        <ele>6</ele>
        <time>2020-06-23T11:10:43Z</time>
      </trkpt>
      <trkpt lat="51.04614" lon="2.42285">
        <ele>6.1</ele>
        <time>2020-06-23T11:10:44Z</time>
      </trkpt>
      <trkpt lat="51.04616" lon="2.42292">
        <ele>6.1</ele>
        <time>2020-06-23T11:10:45Z</time>
      </trkpt>
      <trkpt lat="51.04617" lon="2.423">
        <ele>6.2</ele>
        <time>2020-06-23T11:10:46Z</time>
      </trkpt>
      <trkpt lat="51.04618" lon="2.42309">
        <ele>6.3</ele>
        <time>2020-06-23T11:10:47Z</time>
      </trkpt>
      <trkpt lat="51.0462" lon="2.42317">
        <ele>6.3</ele>
        <time>2020-06-23T11:10:48Z</time>
      </trkpt>
      <trkpt lat="51.04622" lon="2.42326">
        <ele>6.4</ele>
        <time>2020-06-23T11:10:49Z</time>
      </trkpt>
      <trkpt lat="51.04624" lon="2.42335">
        <ele>6.4</ele>
        <time>2020-06-23T11:10:50Z</time>
      </trkpt>
      <trkpt lat="51.04626" lon="2.42343">
        <ele>6.5</ele>
        <time>2020-06-23T11:10:51Z</time>
      </trkpt>
      <trkpt lat="51.04629" lon="2.42352">
        <ele>6.5</ele>
        <time>2020-06-23T11:10:52Z</time>
      </trkpt>
      <trkpt lat="51.04632" lon="2.42361">
        <ele>6.6</ele>
        <time>2020-06-23T11:10:53Z</time>
      </trkpt>
      <trkpt lat="51.04633" lon="2.42369">
        <ele>6.7</ele>
        <time>2020-06-23T11:10:54Z</time>
      </trkpt>
      <trkpt lat="51.04635" lon="2.42376">
        <ele>6.7</ele>
        <time>2020-06-23T11:10:55Z</time>
      </trkpt>
      <trkpt lat="51.04636" lon="2.42384">
        <ele>6.8</ele>
        <time>2020-06-23T11:10:56Z</time>
      </trkpt>
      <trkpt lat="51.04638" lon="2.42391">
        <ele>6.9</ele>
        <time>2020-06-23T11:10:57Z</time>
      </trkpt>
      <trkpt lat="51.04641" lon="2.42398">
        <ele>7</ele>
        <time>2020-06-23T11:10:58Z</time>
      </trkpt>
      <trkpt lat="51.04644" lon="2.42409">
        <ele>7</ele>
        <time>2020-06-23T11:10:59Z</time>
      </trkpt>
      <trkpt lat="51.04645" lon="2.42418">
        <ele>7.1</ele>
        <time>2020-06-23T11:11:00Z</time>
      </trkpt>
      <trkpt lat="51.04648" lon="2.42427">
        <ele>7.1</ele>
        <time>2020-06-23T11:11:01Z</time>
      </trkpt>
      <trkpt lat="51.0465" lon="2.42436">
        <ele>7.1</ele>
        <time>2020-06-23T11:11:02Z</time>
      </trkpt>
      <trkpt lat="51.04653" lon="2.42444">
        <ele>7</ele>
        <time>2020-06-23T11:11:03Z</time>
      </trkpt>
      <trkpt lat="51.04655" lon="2.42452">
        <ele>7</ele>
        <time>2020-06-23T11:11:04Z</time>
      </trkpt>
      <trkpt lat="51.04658" lon="2.42461">
        <ele>7</ele>
        <time>2020-06-23T11:11:05Z</time>
      </trkpt>
      <trkpt lat="51.0466" lon="2.42469">
        <ele>7</ele>
        <time>2020-06-23T11:11:06Z</time>
      </trkpt>
      <trkpt lat="51.04663" lon="2.42478">
        <ele>7.1</ele>
        <time>2020-06-23T11:11:07Z</time>
      </trkpt>
      <trkpt lat="51.04666" lon="2.42486">
        <ele>7.1</ele>
        <time>2020-06-23T11:11:08Z</time>
      </trkpt>
      <trkpt lat="51.04668" lon="2.42495">
        <ele>7.1</ele>
        <time>2020-06-23T11:11:09Z</time>
      </trkpt>
      <trkpt lat="51.0467" lon="2.42503">
        <ele>7.1</ele>
        <time>2020-06-23T11:11:10Z</time>
      </trkpt>
      <trkpt lat="51.04672" lon="2.42511">
        <ele>7.1</ele>
        <time>2020-06-23T11:11:11Z</time>
      </trkpt>
      <trkpt lat="51.04673" lon="2.42521">
        <ele>7.1</ele>
        <time>2020-06-23T11:11:12Z</time>
      </trkpt>
      <trkpt lat="51.04675" lon="2.42529">
        <ele>7.1</ele>
        <time>2020-06-23T11:11:13Z</time>
      </trkpt>
      <trkpt lat="51.04677" lon="2.42539">
        <ele>7</ele>
        <time>2020-06-23T11:11:14Z</time>
      </trkpt>
      <trkpt lat="51.0468" lon="2.42547">
        <ele>6.9</ele>
        <time>2020-06-23T11:11:15Z</time>
      </trkpt>
      <trkpt lat="51.04684" lon="2.42556">
        <ele>6.8</ele>
        <time>2020-06-23T11:11:16Z</time>
      </trkpt>
      <trkpt lat="51.04686" lon="2.42564">
        <ele>6.7</ele>
        <time>2020-06-23T11:11:17Z</time>
      </trkpt>
      <trkpt lat="51.04687" lon="2.42574">
        <ele>6.6</ele>
        <time>2020-06-23T11:11:18Z</time>
      </trkpt>
      <trkpt lat="51.04688" lon="2.42584">
        <ele>6.5</ele>
        <time>2020-06-23T11:11:19Z</time>
      </trkpt>
      <trkpt lat="51.04691" lon="2.42592">
        <ele>6.5</ele>
        <time>2020-06-23T11:11:20Z</time>
      </trkpt>
      <trkpt lat="51.04693" lon="2.42601">
        <ele>6.4</ele>
        <time>2020-06-23T11:11:21Z</time>
      </trkpt>
      <trkpt lat="51.04696" lon="2.42611">
        <ele>6.3</ele>
        <time>2020-06-23T11:11:22Z</time>
      </trkpt>
      <trkpt lat="51.04698" lon="2.42621">
        <ele>6.2</ele>
        <time>2020-06-23T11:11:23Z</time>
      </trkpt>
      <trkpt lat="51.04701" lon="2.4263">
        <ele>6.1</ele>
        <time>2020-06-23T11:11:24Z</time>
      </trkpt>
      <trkpt lat="51.04704" lon="2.42641">
        <ele>6</ele>
        <time>2020-06-23T11:11:25Z</time>
      </trkpt>
      <trkpt lat="51.04707" lon="2.42653">
        <ele>6</ele>
        <time>2020-06-23T11:11:26Z</time>
      </trkpt>
      <trkpt lat="51.04709" lon="2.42663">
        <ele>6</ele>
        <time>2020-06-23T11:11:27Z</time>
      </trkpt>
      <trkpt lat="51.04712" lon="2.42672">
        <ele>6</ele>
        <time>2020-06-23T11:11:28Z</time>
      </trkpt>
      <trkpt lat="51.04713" lon="2.42682">
        <ele>5.9</ele>
        <time>2020-06-23T11:11:29Z</time>
      </trkpt>
      <trkpt lat="51.04715" lon="2.42691">
        <ele>5.8</ele>
        <time>2020-06-23T11:11:30Z</time>
      </trkpt>
      <trkpt lat="51.04718" lon="2.42702">
        <ele>5.7</ele>
        <time>2020-06-23T11:11:31Z</time>
      </trkpt>
      <trkpt lat="51.04721" lon="2.42711">
        <ele>5.7</ele>
        <time>2020-06-23T11:11:32Z</time>
      </trkpt>
      <trkpt lat="51.04724" lon="2.4272">
        <ele>5.6</ele>
        <time>2020-06-23T11:11:33Z</time>
      </trkpt>
      <trkpt lat="51.04727" lon="2.42729">
        <ele>5.5</ele>
        <time>2020-06-23T11:11:34Z</time>
      </trkpt>
      <trkpt lat="51.0473" lon="2.42738">
        <ele>5.5</ele>
        <time>2020-06-23T11:11:35Z</time>
      </trkpt>
      <trkpt lat="51.04733" lon="2.42748">
        <ele>5.5</ele>
        <time>2020-06-23T11:11:36Z</time>
      </trkpt>
      <trkpt lat="51.04736" lon="2.42757">
        <ele>5.4</ele>
        <time>2020-06-23T11:11:37Z</time>
      </trkpt>
      <trkpt lat="51.04738" lon="2.42766">
        <ele>5.4</ele>
        <time>2020-06-23T11:11:38Z</time>
      </trkpt>
      <trkpt lat="51.0474" lon="2.42775">
        <ele>5.4</ele>
        <time>2020-06-23T11:11:39Z</time>
      </trkpt>
      <trkpt lat="51.04742" lon="2.42784">
        <ele>5.4</ele>
        <time>2020-06-23T11:11:40Z</time>
      </trkpt>
      <trkpt lat="51.04745" lon="2.42793">
        <ele>5.4</ele>
        <time>2020-06-23T11:11:41Z</time>
      </trkpt>
      <trkpt lat="51.04747" lon="2.42802">
        <ele>5.4</ele>
        <time>2020-06-23T11:11:42Z</time>
      </trkpt>
      <trkpt lat="51.0475" lon="2.42811">
        <ele>5.5</ele>
        <time>2020-06-23T11:11:43Z</time>
      </trkpt>
      <trkpt lat="51.04752" lon="2.42819">
        <ele>5.4</ele>
        <time>2020-06-23T11:11:44Z</time>
      </trkpt>
      <trkpt lat="51.04755" lon="2.42829">
        <ele>5.4</ele>
        <time>2020-06-23T11:11:45Z</time>
      </trkpt>
      <trkpt lat="51.04756" lon="2.4284">
        <ele>5.3</ele>
        <time>2020-06-23T11:11:46Z</time>
      </trkpt>
      <trkpt lat="51.04757" lon="2.42852">
        <ele>5.3</ele>
        <time>2020-06-23T11:11:47Z</time>
      </trkpt>
      <trkpt lat="51.04759" lon="2.42859">
        <ele>5.3</ele>
        <time>2020-06-23T11:11:48Z</time>
      </trkpt>
      <trkpt lat="51.04761" lon="2.42868">
        <ele>5.3</ele>
        <time>2020-06-23T11:11:49Z</time>
      </trkpt>
      <trkpt lat="51.04762" lon="2.42877">
        <ele>5.3</ele>
        <time>2020-06-23T11:11:50Z</time>
      </trkpt>
      <trkpt lat="51.04764" lon="2.42886">
        <ele>5.4</ele>
        <time>2020-06-23T11:11:51Z</time>
      </trkpt>
      <trkpt lat="51.04767" lon="2.42895">
        <ele>5.4</ele>
        <time>2020-06-23T11:11:52Z</time>
      </trkpt>
      <trkpt lat="51.04769" lon="2.42904">
        <ele>5.4</ele>
        <time>2020-06-23T11:11:53Z</time>
      </trkpt>
      <trkpt lat="51.04771" lon="2.42913">
        <ele>5.5</ele>
        <time>2020-06-23T11:11:54Z</time>
      </trkpt>
      <trkpt lat="51.04774" lon="2.42921">
        <ele>5.5</ele>
        <time>2020-06-23T11:11:55Z</time>
      </trkpt>
      <trkpt lat="51.04776" lon="2.4293">
        <ele>5.5</ele>
        <time>2020-06-23T11:11:56Z</time>
      </trkpt>
      <trkpt lat="51.04778" lon="2.4294">
        <ele>5.5</ele>
        <time>2020-06-23T11:11:57Z</time>
      </trkpt>
      <trkpt lat="51.04781" lon="2.42947">
        <ele>5.5</ele>
        <time>2020-06-23T11:11:58Z</time>
      </trkpt>
      <trkpt lat="51.04785" lon="2.42956">
        <ele>5.5</ele>
        <time>2020-06-23T11:11:59Z</time>
      </trkpt>
      <trkpt lat="51.04787" lon="2.42966">
        <ele>5.5</ele>
        <time>2020-06-23T11:12:00Z</time>
      </trkpt>
      <trkpt lat="51.04789" lon="2.42976">
        <ele>5.6</ele>
        <time>2020-06-23T11:12:01Z</time>
      </trkpt>
      <trkpt lat="51.04791" lon="2.42985">
        <ele>5.6</ele>
        <time>2020-06-23T11:12:02Z</time>
      </trkpt>
      <trkpt lat="51.04792" lon="2.42995">
        <ele>5.7</ele>
        <time>2020-06-23T11:12:03Z</time>
      </trkpt>
      <trkpt lat="51.04794" lon="2.43004">
        <ele>5.7</ele>
        <time>2020-06-23T11:12:04Z</time>
      </trkpt>
      <trkpt lat="51.04795" lon="2.43014">
        <ele>5.7</ele>
        <time>2020-06-23T11:12:05Z</time>
      </trkpt>
      <trkpt lat="51.04796" lon="2.43023">
        <ele>5.7</ele>
        <time>2020-06-23T11:12:06Z</time>
      </trkpt>
      <trkpt lat="51.04797" lon="2.43034">
        <ele>5.6</ele>
        <time>2020-06-23T11:12:07Z</time>
      </trkpt>
      <trkpt lat="51.04798" lon="2.43045">
        <ele>5.6</ele>
        <time>2020-06-23T11:12:08Z</time>
      </trkpt>
      <trkpt lat="51.04799" lon="2.43054">
        <ele>5.6</ele>
        <time>2020-06-23T11:12:09Z</time>
      </trkpt>
      <trkpt lat="51.04801" lon="2.43064">
        <ele>5.6</ele>
        <time>2020-06-23T11:12:10Z</time>
      </trkpt>
      <trkpt lat="51.04803" lon="2.43073">
        <ele>5.6</ele>
        <time>2020-06-23T11:12:11Z</time>
      </trkpt>
      <trkpt lat="51.04804" lon="2.43085">
        <ele>5.5</ele>
        <time>2020-06-23T11:12:12Z</time>
      </trkpt>
      <trkpt lat="51.04806" lon="2.43096">
        <ele>5.5</ele>
        <time>2020-06-23T11:12:13Z</time>
      </trkpt>
      <trkpt lat="51.04807" lon="2.43106">
        <ele>5.5</ele>
        <time>2020-06-23T11:12:14Z</time>
      </trkpt>
      <trkpt lat="51.04807" lon="2.43116">
        <ele>5.5</ele>
        <time>2020-06-23T11:12:15Z</time>
      </trkpt>
      <trkpt lat="51.04807" lon="2.43125">
        <ele>5.5</ele>
        <time>2020-06-23T11:12:16Z</time>
      </trkpt>
      <trkpt lat="51.04808" lon="2.43134">
        <ele>5.5</ele>
        <time>2020-06-23T11:12:17Z</time>
      </trkpt>
      <trkpt lat="51.04809" lon="2.43142">
        <ele>5.5</ele>
        <time>2020-06-23T11:12:18Z</time>
      </trkpt>
      <trkpt lat="51.0481" lon="2.43151">
        <ele>5.6</ele>
        <time>2020-06-23T11:12:19Z</time>
      </trkpt>
      <trkpt lat="51.04811" lon="2.43161">
        <ele>5.6</ele>
        <time>2020-06-23T11:12:20Z</time>
      </trkpt>
      <trkpt lat="51.04811" lon="2.4317">
        <ele>5.6</ele>
        <time>2020-06-23T11:12:21Z</time>
      </trkpt>
      <trkpt lat="51.04811" lon="2.43178">
        <ele>5.6</ele>
        <time>2020-06-23T11:12:22Z</time>
      </trkpt>
      <trkpt lat="51.04811" lon="2.43189">
        <ele>5.6</ele>
        <time>2020-06-23T11:12:23Z</time>
      </trkpt>
      <trkpt lat="51.04812" lon="2.43199">
        <ele>5.6</ele>
        <time>2020-06-23T11:12:24Z</time>
      </trkpt>
      <trkpt lat="51.04812" lon="2.43208">
        <ele>5.6</ele>
        <time>2020-06-23T11:12:25Z</time>
      </trkpt>
      <trkpt lat="51.04813" lon="2.43219">
        <ele>5.6</ele>
        <time>2020-06-23T11:12:26Z</time>
      </trkpt>
      <trkpt lat="51.04814" lon="2.43229">
        <ele>5.5</ele>
        <time>2020-06-23T11:12:27Z</time>
      </trkpt>
      <trkpt lat="51.04814" lon="2.4324">
        <ele>5.4</ele>
        <time>2020-06-23T11:12:28Z</time>
      </trkpt>
      <trkpt lat="51.04815" lon="2.4325">
        <ele>5.3</ele>
        <time>2020-06-23T11:12:29Z</time>
      </trkpt>
      <trkpt lat="51.04816" lon="2.4326">
        <ele>5.3</ele>
        <time>2020-06-23T11:12:30Z</time>
      </trkpt>
      <trkpt lat="51.04818" lon="2.43271">
        <ele>5.3</ele>
        <time>2020-06-23T11:12:31Z</time>
      </trkpt>
      <trkpt lat="51.0482" lon="2.4328">
        <ele>5.4</ele>
        <time>2020-06-23T11:12:32Z</time>
      </trkpt>
      <trkpt lat="51.04822" lon="2.43289">
        <ele>5.3</ele>
        <time>2020-06-23T11:12:33Z</time>
      </trkpt>
      <trkpt lat="51.04824" lon="2.43297">
        <ele>5.3</ele>
        <time>2020-06-23T11:12:34Z</time>
      </trkpt>
      <trkpt lat="51.04826" lon="2.43305">
        <ele>5.2</ele>
        <time>2020-06-23T11:12:35Z</time>
      </trkpt>
      <trkpt lat="51.0483" lon="2.43311">
        <ele>5.2</ele>
        <time>2020-06-23T11:12:36Z</time>
      </trkpt>
      <trkpt lat="51.04832" lon="2.43319">
        <ele>5.2</ele>
        <time>2020-06-23T11:12:37Z</time>
      </trkpt>
      <trkpt lat="51.04833" lon="2.43325">
        <ele>5.1</ele>
        <time>2020-06-23T11:12:38Z</time>
      </trkpt>
      <trkpt lat="51.04835" lon="2.43333">
        <ele>5.1</ele>
        <time>2020-06-23T11:12:39Z</time>
      </trkpt>
      <trkpt lat="51.04836" lon="2.43339">
        <ele>5.1</ele>
        <time>2020-06-23T11:12:40Z</time>
      </trkpt>
      <trkpt lat="51.04838" lon="2.43346">
        <ele>5.2</ele>
        <time>2020-06-23T11:12:41Z</time>
      </trkpt>
      <trkpt lat="51.04841" lon="2.43354">
        <ele>5.2</ele>
        <time>2020-06-23T11:12:42Z</time>
      </trkpt>
      <trkpt lat="51.04843" lon="2.43362">
        <ele>5.2</ele>
        <time>2020-06-23T11:12:43Z</time>
      </trkpt>
      <trkpt lat="51.04846" lon="2.43369">
        <ele>5.3</ele>
        <time>2020-06-23T11:12:44Z</time>
      </trkpt>
      <trkpt lat="51.04848" lon="2.43375">
        <ele>5.3</ele>
        <time>2020-06-23T11:12:45Z</time>
      </trkpt>
      <trkpt lat="51.0485" lon="2.43383">
        <ele>5.4</ele>
        <time>2020-06-23T11:12:46Z</time>
      </trkpt>
      <trkpt lat="51.04852" lon="2.43389">
        <ele>5.4</ele>
        <time>2020-06-23T11:12:47Z</time>
      </trkpt>
      <trkpt lat="51.04855" lon="2.43394">
        <ele>5.4</ele>
        <time>2020-06-23T11:12:48Z</time>
      </trkpt>
      <trkpt lat="51.04857" lon="2.434">
        <ele>5.4</ele>
        <time>2020-06-23T11:12:49Z</time>
      </trkpt>
      <trkpt lat="51.0486" lon="2.43407">
        <ele>5.5</ele>
        <time>2020-06-23T11:12:50Z</time>
      </trkpt>
      <trkpt lat="51.04864" lon="2.43413">
        <ele>5.5</ele>
        <time>2020-06-23T11:12:51Z</time>
      </trkpt>
      <trkpt lat="51.04867" lon="2.4342">
        <ele>5.6</ele>
        <time>2020-06-23T11:12:52Z</time>
      </trkpt>
      <trkpt lat="51.04871" lon="2.43427">
        <ele>5.6</ele>
        <time>2020-06-23T11:12:53Z</time>
      </trkpt>
      <trkpt lat="51.04873" lon="2.43432">
        <ele>5.6</ele>
        <time>2020-06-23T11:12:54Z</time>
      </trkpt>
      <trkpt lat="51.04876" lon="2.43438">
        <ele>5.6</ele>
        <time>2020-06-23T11:12:55Z</time>
      </trkpt>
      <trkpt lat="51.04876" lon="2.43447">
        <ele>5.7</ele>
        <time>2020-06-23T11:12:56Z</time>
      </trkpt>
      <trkpt lat="51.04878" lon="2.43454">
        <ele>5.7</ele>
        <time>2020-06-23T11:12:57Z</time>
      </trkpt>
      <trkpt lat="51.04877" lon="2.43463">
        <ele>5.7</ele>
        <time>2020-06-23T11:12:58Z</time>
      </trkpt>
      <trkpt lat="51.04875" lon="2.43472">
        <ele>5.6</ele>
        <time>2020-06-23T11:12:59Z</time>
      </trkpt>
      <trkpt lat="51.04875" lon="2.43482">
        <ele>5.6</ele>
        <time>2020-06-23T11:13:00Z</time>
      </trkpt>
      <trkpt lat="51.04875" lon="2.43492">
        <ele>5.6</ele>
        <time>2020-06-23T11:13:01Z</time>
      </trkpt>
      <trkpt lat="51.04876" lon="2.43502">
        <ele>5.6</ele>
        <time>2020-06-23T11:13:02Z</time>
      </trkpt>
      <trkpt lat="51.04875" lon="2.43512">
        <ele>5.6</ele>
        <time>2020-06-23T11:13:03Z</time>
      </trkpt>
      <trkpt lat="51.04875" lon="2.43522">
        <ele>5.6</ele>
        <time>2020-06-23T11:13:04Z</time>
      </trkpt>
      <trkpt lat="51.04876" lon="2.43529">
        <ele>5.6</ele>
        <time>2020-06-23T11:13:05Z</time>
      </trkpt>
      <trkpt lat="51.04877" lon="2.43539">
        <ele>5.6</ele>
        <time>2020-06-23T11:13:06Z</time>
      </trkpt>
      <trkpt lat="51.04877" lon="2.43549">
        <ele>5.5</ele>
        <time>2020-06-23T11:13:07Z</time>
      </trkpt>
      <trkpt lat="51.04876" lon="2.4356">
        <ele>5.5</ele>
        <time>2020-06-23T11:13:08Z</time>
      </trkpt>
      <trkpt lat="51.04876" lon="2.43571">
        <ele>5.4</ele>
        <time>2020-06-23T11:13:09Z</time>
      </trkpt>
      <trkpt lat="51.04875" lon="2.43581">
        <ele>5.4</ele>
        <time>2020-06-23T11:13:10Z</time>
      </trkpt>
      <trkpt lat="51.04875" lon="2.4359">
        <ele>5.5</ele>
        <time>2020-06-23T11:13:11Z</time>
      </trkpt>
      <trkpt lat="51.04873" lon="2.436">
        <ele>5.5</ele>
        <time>2020-06-23T11:13:12Z</time>
      </trkpt>
      <trkpt lat="51.04872" lon="2.43609">
        <ele>5.5</ele>
        <time>2020-06-23T11:13:13Z</time>
      </trkpt>
      <trkpt lat="51.04871" lon="2.43619">
        <ele>5.5</ele>
        <time>2020-06-23T11:13:14Z</time>
      </trkpt>
      <trkpt lat="51.04869" lon="2.43631">
        <ele>5.5</ele>
        <time>2020-06-23T11:13:15Z</time>
      </trkpt>
      <trkpt lat="51.04869" lon="2.43639">
        <ele>5.4</ele>
        <time>2020-06-23T11:13:16Z</time>
      </trkpt>
      <trkpt lat="51.04869" lon="2.4365">
        <ele>5.3</ele>
        <time>2020-06-23T11:13:17Z</time>
      </trkpt>
      <trkpt lat="51.04869" lon="2.43659">
        <ele>5.3</ele>
        <time>2020-06-23T11:13:18Z</time>
      </trkpt>
      <trkpt lat="51.04868" lon="2.43667">
        <ele>5.3</ele>
        <time>2020-06-23T11:13:19Z</time>
      </trkpt>
      <trkpt lat="51.04869" lon="2.43675">
        <ele>5.3</ele>
        <time>2020-06-23T11:13:20Z</time>
      </trkpt>
      <trkpt lat="51.0487" lon="2.43685">
        <ele>5.2</ele>
        <time>2020-06-23T11:13:21Z</time>
      </trkpt>
      <trkpt lat="51.0487" lon="2.43694">
        <ele>5.2</ele>
        <time>2020-06-23T11:13:22Z</time>
      </trkpt>
      <trkpt lat="51.0487" lon="2.43702">
        <ele>5.2</ele>
        <time>2020-06-23T11:13:23Z</time>
      </trkpt>
      <trkpt lat="51.04869" lon="2.43708">
        <ele>4.8</ele>
        <time>2020-06-23T11:13:24Z</time>
      </trkpt>
      <trkpt lat="51.04868" lon="2.43716">
        <ele>4.5</ele>
        <time>2020-06-23T11:13:25Z</time>
      </trkpt>
      <trkpt lat="51.04867" lon="2.43723">
        <ele>4.2</ele>
        <time>2020-06-23T11:13:26Z</time>
      </trkpt>
      <trkpt lat="51.04862" lon="2.43725">
        <ele>3.8</ele>
        <time>2020-06-23T11:13:27Z</time>
      </trkpt>
      <trkpt lat="51.04858" lon="2.43728">
        <ele>3.5</ele>
        <time>2020-06-23T11:13:28Z</time>
      </trkpt>
      <trkpt lat="51.04855" lon="2.43733">
        <ele>3.2</ele>
        <time>2020-06-23T11:13:29Z</time>
      </trkpt>
      <trkpt lat="51.04852" lon="2.43738">
        <ele>2.9</ele>
        <time>2020-06-23T11:13:30Z</time>
      </trkpt>
      <trkpt lat="51.0485" lon="2.43746">
        <ele>2.9</ele>
        <time>2020-06-23T11:13:31Z</time>
      </trkpt>
      <trkpt lat="51.04849" lon="2.43753">
        <ele>2.9</ele>
        <time>2020-06-23T11:13:32Z</time>
      </trkpt>
      <trkpt lat="51.04849" lon="2.43762">
        <ele>2.9</ele>
        <time>2020-06-23T11:13:33Z</time>
      </trkpt>
      <trkpt lat="51.04849" lon="2.43769">
        <ele>2.9</ele>
        <time>2020-06-23T11:13:34Z</time>
      </trkpt>
      <trkpt lat="51.04849" lon="2.43777">
        <ele>2.9</ele>
        <time>2020-06-23T11:13:35Z</time>
      </trkpt>
      <trkpt lat="51.04848" lon="2.43784">
        <ele>2.9</ele>
        <time>2020-06-23T11:13:36Z</time>
      </trkpt>
      <trkpt lat="51.04847" lon="2.4379">
        <ele>2.9</ele>
        <time>2020-06-23T11:13:37Z</time>
      </trkpt>
      <trkpt lat="51.04847" lon="2.43796">
        <ele>2.9</ele>
        <time>2020-06-23T11:13:38Z</time>
      </trkpt>
      <trkpt lat="51.04846" lon="2.43803">
        <ele>2.9</ele>
        <time>2020-06-23T11:13:39Z</time>
      </trkpt>
      <trkpt lat="51.04846" lon="2.43806">
        <ele>2.9</ele>
        <time>2020-06-23T11:13:40Z</time>
      </trkpt>
      <trkpt lat="51.04847" lon="2.43811">
        <ele>2.9</ele>
        <time>2020-06-23T11:13:41Z</time>
      </trkpt>
      <trkpt lat="51.04849" lon="2.43818">
        <ele>2.9</ele>
        <time>2020-06-23T11:13:42Z</time>
      </trkpt>
      <trkpt lat="51.04852" lon="2.43823">
        <ele>3</ele>
        <time>2020-06-23T11:13:43Z</time>
      </trkpt>
      <trkpt lat="51.04856" lon="2.4383">
        <ele>3</ele>
        <time>2020-06-23T11:13:44Z</time>
      </trkpt>
      <trkpt lat="51.04858" lon="2.43835">
        <ele>3</ele>
        <time>2020-06-23T11:13:45Z</time>
      </trkpt>
      <trkpt lat="51.04862" lon="2.43841">
        <ele>3</ele>
        <time>2020-06-23T11:13:46Z</time>
      </trkpt>
      <trkpt lat="51.04865" lon="2.43848">
        <ele>3</ele>
        <time>2020-06-23T11:13:47Z</time>
      </trkpt>
      <trkpt lat="51.04868" lon="2.43857">
        <ele>3</ele>
        <time>2020-06-23T11:13:48Z</time>
      </trkpt>
      <trkpt lat="51.04869" lon="2.43867">
        <ele>3</ele>
        <time>2020-06-23T11:13:49Z</time>
      </trkpt>
      <trkpt lat="51.04871" lon="2.43876">
        <ele>3</ele>
        <time>2020-06-23T11:13:50Z</time>
      </trkpt>
      <trkpt lat="51.04873" lon="2.43885">
        <ele>3.1</ele>
        <time>2020-06-23T11:13:51Z</time>
      </trkpt>
      <trkpt lat="51.04874" lon="2.43893">
        <ele>3.1</ele>
        <time>2020-06-23T11:13:52Z</time>
      </trkpt>
      <trkpt lat="51.04875" lon="2.43901">
        <ele>3.1</ele>
        <time>2020-06-23T11:13:53Z</time>
      </trkpt>
      <trkpt lat="51.04877" lon="2.4391">
        <ele>3.2</ele>
        <time>2020-06-23T11:13:54Z</time>
      </trkpt>
      <trkpt lat="51.04879" lon="2.43918">
        <ele>3.2</ele>
        <time>2020-06-23T11:13:55Z</time>
      </trkpt>
      <trkpt lat="51.0488" lon="2.43925">
        <ele>3.2</ele>
        <time>2020-06-23T11:13:56Z</time>
      </trkpt>
      <trkpt lat="51.04882" lon="2.43933">
        <ele>3.3</ele>
        <time>2020-06-23T11:13:57Z</time>
      </trkpt>
      <trkpt lat="51.04884" lon="2.4394">
        <ele>3.3</ele>
        <time>2020-06-23T11:13:58Z</time>
      </trkpt>
      <trkpt lat="51.04886" lon="2.43946">
        <ele>3.4</ele>
        <time>2020-06-23T11:13:59Z</time>
      </trkpt>
      <trkpt lat="51.04887" lon="2.43953">
        <ele>3.4</ele>
        <time>2020-06-23T11:14:00Z</time>
      </trkpt>
      <trkpt lat="51.04889" lon="2.43959">
        <ele>3.4</ele>
        <time>2020-06-23T11:14:01Z</time>
      </trkpt>
      <trkpt lat="51.04892" lon="2.43967">
        <ele>3.5</ele>
        <time>2020-06-23T11:14:02Z</time>
      </trkpt>
      <trkpt lat="51.04894" lon="2.43975">
        <ele>3.5</ele>
        <time>2020-06-23T11:14:03Z</time>
      </trkpt>
      <trkpt lat="51.04898" lon="2.43982">
        <ele>3.6</ele>
        <time>2020-06-23T11:14:04Z</time>
      </trkpt>
      <trkpt lat="51.04901" lon="2.43991">
        <ele>3.7</ele>
        <time>2020-06-23T11:14:05Z</time>
      </trkpt>
      <trkpt lat="51.04904" lon="2.43997">
        <ele>3.8</ele>
        <time>2020-06-23T11:14:06Z</time>
      </trkpt>
      <trkpt lat="51.04908" lon="2.44003">
        <ele>3.9</ele>
        <time>2020-06-23T11:14:07Z</time>
      </trkpt>
      <trkpt lat="51.04912" lon="2.4401">
        <ele>3.9</ele>
        <time>2020-06-23T11:14:08Z</time>
      </trkpt>
      <trkpt lat="51.04917" lon="2.44015">
        <ele>4</ele>
        <time>2020-06-23T11:14:09Z</time>
      </trkpt>
      <trkpt lat="51.04921" lon="2.44021">
        <ele>4.1</ele>
        <time>2020-06-23T11:14:10Z</time>
      </trkpt>
      <trkpt lat="51.04925" lon="2.44028">
        <ele>4.1</ele>
        <time>2020-06-23T11:14:11Z</time>
      </trkpt>
      <trkpt lat="51.04928" lon="2.44035">
        <ele>4.2</ele>
        <time>2020-06-23T11:14:12Z</time>
      </trkpt>
      <trkpt lat="51.04931" lon="2.44042">
        <ele>4.3</ele>
        <time>2020-06-23T11:14:13Z</time>
      </trkpt>
      <trkpt lat="51.04935" lon="2.44049">
        <ele>4.4</ele>
        <time>2020-06-23T11:14:14Z</time>
      </trkpt>
      <trkpt lat="51.04939" lon="2.44055">
        <ele>4.4</ele>
        <time>2020-06-23T11:14:15Z</time>
      </trkpt>
      <trkpt lat="51.04943" lon="2.44061">
        <ele>4.5</ele>
        <time>2020-06-23T11:14:16Z</time>
      </trkpt>
      <trkpt lat="51.04946" lon="2.44069">
        <ele>4.5</ele>
        <time>2020-06-23T11:14:17Z</time>
      </trkpt>
      <trkpt lat="51.0495" lon="2.44075">
        <ele>4.5</ele>
        <time>2020-06-23T11:14:18Z</time>
      </trkpt>
      <trkpt lat="51.04954" lon="2.44081">
        <ele>4.6</ele>
        <time>2020-06-23T11:14:19Z</time>
      </trkpt>
      <trkpt lat="51.04957" lon="2.44087">
        <ele>4.6</ele>
        <time>2020-06-23T11:14:20Z</time>
      </trkpt>
      <trkpt lat="51.0496" lon="2.44094">
        <ele>4.6</ele>
        <time>2020-06-23T11:14:21Z</time>
      </trkpt>
      <trkpt lat="51.04962" lon="2.44101">
        <ele>4.6</ele>
        <time>2020-06-23T11:14:22Z</time>
      </trkpt>
      <trkpt lat="51.04965" lon="2.44107">
        <ele>4.6</ele>
        <time>2020-06-23T11:14:23Z</time>
      </trkpt>
      <trkpt lat="51.04968" lon="2.44114">
        <ele>4.6</ele>
        <time>2020-06-23T11:14:24Z</time>
      </trkpt>
      <trkpt lat="51.04971" lon="2.4412">
        <ele>4.5</ele>
        <time>2020-06-23T11:14:25Z</time>
      </trkpt>
      <trkpt lat="51.04974" lon="2.44126">
        <ele>4.5</ele>
        <time>2020-06-23T11:14:26Z</time>
      </trkpt>
      <trkpt lat="51.04978" lon="2.44132">
        <ele>4.5</ele>
        <time>2020-06-23T11:14:27Z</time>
      </trkpt>
      <trkpt lat="51.04981" lon="2.44138">
        <ele>4.5</ele>
        <time>2020-06-23T11:14:28Z</time>
      </trkpt>
      <trkpt lat="51.04984" lon="2.44144">
        <ele>4.6</ele>
        <time>2020-06-23T11:14:29Z</time>
      </trkpt>
      <trkpt lat="51.04987" lon="2.44151">
        <ele>4.6</ele>
        <time>2020-06-23T11:14:30Z</time>
      </trkpt>
      <trkpt lat="51.0499" lon="2.44157">
        <ele>4.7</ele>
        <time>2020-06-23T11:14:31Z</time>
      </trkpt>
      <trkpt lat="51.04993" lon="2.44164">
        <ele>4.7</ele>
        <time>2020-06-23T11:14:32Z</time>
      </trkpt>
      <trkpt lat="51.04997" lon="2.44172">
        <ele>4.7</ele>
        <time>2020-06-23T11:14:33Z</time>
      </trkpt>
      <trkpt lat="51.05" lon="2.44177">
        <ele>4.7</ele>
        <time>2020-06-23T11:14:34Z</time>
      </trkpt>
      <trkpt lat="51.05003" lon="2.44183">
        <ele>4.7</ele>
        <time>2020-06-23T11:14:35Z</time>
      </trkpt>
      <trkpt lat="51.05006" lon="2.44189">
        <ele>4.7</ele>
        <time>2020-06-23T11:14:36Z</time>
      </trkpt>
      <trkpt lat="51.05009" lon="2.44195">
        <ele>4.7</ele>
        <time>2020-06-23T11:14:37Z</time>
      </trkpt>
      <trkpt lat="51.05013" lon="2.44199">
        <ele>4.7</ele>
        <time>2020-06-23T11:14:38Z</time>
      </trkpt>
      <trkpt lat="51.05017" lon="2.44205">
        <ele>4.7</ele>
        <time>2020-06-23T11:14:39Z</time>
      </trkpt>
      <trkpt lat="51.05022" lon="2.4421">
        <ele>4.8</ele>
        <time>2020-06-23T11:14:40Z</time>
      </trkpt>
      <trkpt lat="51.05026" lon="2.44215">
        <ele>4.8</ele>
        <time>2020-06-23T11:14:41Z</time>
      </trkpt>
      <trkpt lat="51.0503" lon="2.44219">
        <ele>4.9</ele>
        <time>2020-06-23T11:14:42Z</time>
      </trkpt>
      <trkpt lat="51.05034" lon="2.44224">
        <ele>5</ele>
        <time>2020-06-23T11:14:43Z</time>
      </trkpt>
      <trkpt lat="51.05038" lon="2.44229">
        <ele>5</ele>
        <time>2020-06-23T11:14:44Z</time>
      </trkpt>
      <trkpt lat="51.05042" lon="2.44234">
        <ele>5</ele>
        <time>2020-06-23T11:14:45Z</time>
      </trkpt>
      <trkpt lat="51.05045" lon="2.44239">
        <ele>5</ele>
        <time>2020-06-23T11:14:46Z</time>
      </trkpt>
      <trkpt lat="51.05049" lon="2.44244">
        <ele>5</ele>
        <time>2020-06-23T11:14:47Z</time>
      </trkpt>
      <trkpt lat="51.05053" lon="2.44248">
        <ele>5</ele>
        <time>2020-06-23T11:14:48Z</time>
      </trkpt>
      <trkpt lat="51.05057" lon="2.44253">
        <ele>5</ele>
        <time>2020-06-23T11:14:49Z</time>
      </trkpt>
      <trkpt lat="51.05061" lon="2.44258">
        <ele>5.1</ele>
        <time>2020-06-23T11:14:50Z</time>
      </trkpt>
      <trkpt lat="51.05065" lon="2.44263">
        <ele>5.2</ele>
        <time>2020-06-23T11:14:51Z</time>
      </trkpt>
      <trkpt lat="51.05069" lon="2.44269">
        <ele>5.3</ele>
        <time>2020-06-23T11:14:52Z</time>
      </trkpt>
      <trkpt lat="51.05074" lon="2.44274">
        <ele>5.4</ele>
        <time>2020-06-23T11:14:53Z</time>
      </trkpt>
      <trkpt lat="51.05078" lon="2.44281">
        <ele>5.5</ele>
        <time>2020-06-23T11:14:54Z</time>
      </trkpt>
      <trkpt lat="51.05082" lon="2.44286">
        <ele>5.5</ele>
        <time>2020-06-23T11:14:55Z</time>
      </trkpt>
      <trkpt lat="51.05085" lon="2.44292">
        <ele>5.6</ele>
        <time>2020-06-23T11:14:56Z</time>
      </trkpt>
      <trkpt lat="51.05088" lon="2.443">
        <ele>5.7</ele>
        <time>2020-06-23T11:14:57Z</time>
      </trkpt>
      <trkpt lat="51.05091" lon="2.44308">
        <ele>5.7</ele>
        <time>2020-06-23T11:14:58Z</time>
      </trkpt>
      <trkpt lat="51.05094" lon="2.44315">
        <ele>5.8</ele>
        <time>2020-06-23T11:14:59Z</time>
      </trkpt>
      <trkpt lat="51.05097" lon="2.44321">
        <ele>5.9</ele>
        <time>2020-06-23T11:15:00Z</time>
      </trkpt>
      <trkpt lat="51.05099" lon="2.44329">
        <ele>5.9</ele>
        <time>2020-06-23T11:15:01Z</time>
      </trkpt>
      <trkpt lat="51.05102" lon="2.44337">
        <ele>5.9</ele>
        <time>2020-06-23T11:15:02Z</time>
      </trkpt>
      <trkpt lat="51.05104" lon="2.44344">
        <ele>5.9</ele>
        <time>2020-06-23T11:15:03Z</time>
      </trkpt>
      <trkpt lat="51.05106" lon="2.44351">
        <ele>5.9</ele>
        <time>2020-06-23T11:15:04Z</time>
      </trkpt>
      <trkpt lat="51.05108" lon="2.44359">
        <ele>5.9</ele>
        <time>2020-06-23T11:15:05Z</time>
      </trkpt>
      <trkpt lat="51.0511" lon="2.44366">
        <ele>5.9</ele>
        <time>2020-06-23T11:15:06Z</time>
      </trkpt>
      <trkpt lat="51.05112" lon="2.44373">
        <ele>5.9</ele>
        <time>2020-06-23T11:15:07Z</time>
      </trkpt>
      <trkpt lat="51.05115" lon="2.44379">
        <ele>5.9</ele>
        <time>2020-06-23T11:15:08Z</time>
      </trkpt>
      <trkpt lat="51.05117" lon="2.44386">
        <ele>5.9</ele>
        <time>2020-06-23T11:15:09Z</time>
      </trkpt>
      <trkpt lat="51.05118" lon="2.44394">
        <ele>5.9</ele>
        <time>2020-06-23T11:15:10Z</time>
      </trkpt>
      <trkpt lat="51.05119" lon="2.44401">
        <ele>5.9</ele>
        <time>2020-06-23T11:15:11Z</time>
      </trkpt>
      <trkpt lat="51.0512" lon="2.44408">
        <ele>6</ele>
        <time>2020-06-23T11:15:12Z</time>
      </trkpt>
      <trkpt lat="51.05122" lon="2.44414">
        <ele>6</ele>
        <time>2020-06-23T11:15:13Z</time>
      </trkpt>
      <trkpt lat="51.05122" lon="2.4442">
        <ele>6.1</ele>
        <time>2020-06-23T11:15:14Z</time>
      </trkpt>
      <trkpt lat="51.05124" lon="2.44426">
        <ele>6.1</ele>
        <time>2020-06-23T11:15:15Z</time>
      </trkpt>
      <trkpt lat="51.05125" lon="2.44432">
        <ele>6.1</ele>
        <time>2020-06-23T11:15:16Z</time>
      </trkpt>
      <trkpt lat="51.05126" lon="2.44437">
        <ele>6.1</ele>
        <time>2020-06-23T11:15:17Z</time>
      </trkpt>
      <trkpt lat="51.05127" lon="2.44444">
        <ele>6.2</ele>
        <time>2020-06-23T11:15:18Z</time>
      </trkpt>
      <trkpt lat="51.05129" lon="2.44452">
        <ele>6.2</ele>
        <time>2020-06-23T11:15:19Z</time>
      </trkpt>
      <trkpt lat="51.0513" lon="2.44459">
        <ele>6.2</ele>
        <time>2020-06-23T11:15:20Z</time>
      </trkpt>
      <trkpt lat="51.05131" lon="2.44467">
        <ele>6.2</ele>
        <time>2020-06-23T11:15:21Z</time>
      </trkpt>
      <trkpt lat="51.05132" lon="2.44475">
        <ele>6.2</ele>
        <time>2020-06-23T11:15:22Z</time>
      </trkpt>
      <trkpt lat="51.05134" lon="2.44481">
        <ele>6.2</ele>
        <time>2020-06-23T11:15:23Z</time>
      </trkpt>
      <trkpt lat="51.05136" lon="2.44487">
        <ele>6.2</ele>
        <time>2020-06-23T11:15:24Z</time>
      </trkpt>
      <trkpt lat="51.05137" lon="2.44492">
        <ele>6.3</ele>
        <time>2020-06-23T11:15:25Z</time>
      </trkpt>
      <trkpt lat="51.05139" lon="2.44497">
        <ele>6.3</ele>
        <time>2020-06-23T11:15:26Z</time>
      </trkpt>
      <trkpt lat="51.05141" lon="2.44502">
        <ele>6.4</ele>
        <time>2020-06-23T11:15:27Z</time>
      </trkpt>
      <trkpt lat="51.05142" lon="2.44508">
        <ele>6.5</ele>
        <time>2020-06-23T11:15:28Z</time>
      </trkpt>
      <trkpt lat="51.05145" lon="2.44511">
        <ele>6.5</ele>
        <time>2020-06-23T11:15:29Z</time>
      </trkpt>
      <trkpt lat="51.05148" lon="2.44512">
        <ele>6.6</ele>
        <time>2020-06-23T11:15:30Z</time>
      </trkpt>
      <trkpt lat="51.05152" lon="2.44512">
        <ele>6.7</ele>
        <time>2020-06-23T11:15:31Z</time>
      </trkpt>
      <trkpt lat="51.05158" lon="2.44509">
        <ele>6.8</ele>
        <time>2020-06-23T11:15:32Z</time>
      </trkpt>
      <trkpt lat="51.05162" lon="2.44508">
        <ele>6.9</ele>
        <time>2020-06-23T11:15:33Z</time>
      </trkpt>
      <trkpt lat="51.05166" lon="2.44506">
        <ele>6.9</ele>
        <time>2020-06-23T11:15:34Z</time>
      </trkpt>
      <trkpt lat="51.05169" lon="2.44506">
        <ele>7</ele>
        <time>2020-06-23T11:15:35Z</time>
      </trkpt>
      <trkpt lat="51.05172" lon="2.44508">
        <ele>7</ele>
        <time>2020-06-23T11:15:36Z</time>
      </trkpt>
      <trkpt lat="51.05175" lon="2.4451">
        <ele>7.1</ele>
        <time>2020-06-23T11:15:37Z</time>
      </trkpt>
      <trkpt lat="51.05176" lon="2.44511">
        <ele>7.1</ele>
        <time>2020-06-23T11:15:38Z</time>
      </trkpt>
      <trkpt lat="51.05176" lon="2.44516">
        <ele>7.2</ele>
        <time>2020-06-23T11:15:39Z</time>
      </trkpt>
      <trkpt lat="51.05175" lon="2.44518">
        <ele>7.2</ele>
        <time>2020-06-23T11:15:40Z</time>
      </trkpt>
      <trkpt lat="51.05174" lon="2.44522">
        <ele>7.3</ele>
        <time>2020-06-23T11:15:41Z</time>
      </trkpt>
      <trkpt lat="51.05172" lon="2.44526">
        <ele>7.3</ele>
        <time>2020-06-23T11:15:42Z</time>
      </trkpt>
      <trkpt lat="51.05173" lon="2.44531">
        <ele>7.6</ele>
        <time>2020-06-23T11:15:43Z</time>
      </trkpt>
      <trkpt lat="51.05173" lon="2.44537">
        <ele>7.4</ele>
        <time>2020-06-23T11:15:44Z</time>
      </trkpt>
      <trkpt lat="51.05176" lon="2.44546">
        <ele>7.1</ele>
        <time>2020-06-23T11:15:45Z</time>
      </trkpt>
      <trkpt lat="51.05178" lon="2.44555">
        <ele>6.9</ele>
        <time>2020-06-23T11:15:46Z</time>
      </trkpt>
      <trkpt lat="51.05181" lon="2.44565">
        <ele>6.8</ele>
        <time>2020-06-23T11:15:47Z</time>
      </trkpt>
      <trkpt lat="51.05183" lon="2.44572">
        <ele>6.7</ele>
        <time>2020-06-23T11:15:48Z</time>
      </trkpt>
      <trkpt lat="51.05184" lon="2.44579">
        <ele>6.7</ele>
        <time>2020-06-23T11:15:49Z</time>
      </trkpt>
      <trkpt lat="51.05185" lon="2.44587">
        <ele>6.6</ele>
        <time>2020-06-23T11:15:50Z</time>
      </trkpt>
      <trkpt lat="51.05185" lon="2.44596">
        <ele>6.6</ele>
        <time>2020-06-23T11:15:51Z</time>
      </trkpt>
      <trkpt lat="51.05185" lon="2.44603">
        <ele>6.5</ele>
        <time>2020-06-23T11:15:52Z</time>
      </trkpt>
      <trkpt lat="51.05185" lon="2.44611">
        <ele>6.4</ele>
        <time>2020-06-23T11:15:53Z</time>
      </trkpt>
      <trkpt lat="51.05183" lon="2.4462">
        <ele>6.4</ele>
        <time>2020-06-23T11:15:54Z</time>
      </trkpt>
      <trkpt lat="51.05183" lon="2.44629">
        <ele>6.4</ele>
        <time>2020-06-23T11:15:55Z</time>
      </trkpt>
      <trkpt lat="51.05181" lon="2.4464">
        <ele>6.3</ele>
        <time>2020-06-23T11:15:56Z</time>
      </trkpt>
      <trkpt lat="51.0518" lon="2.44649">
        <ele>6.2</ele>
        <time>2020-06-23T11:15:57Z</time>
      </trkpt>
      <trkpt lat="51.0518" lon="2.44659">
        <ele>6.1</ele>
        <time>2020-06-23T11:15:58Z</time>
      </trkpt>
      <trkpt lat="51.0518" lon="2.44669">
        <ele>6</ele>
        <time>2020-06-23T11:15:59Z</time>
      </trkpt>
      <trkpt lat="51.0518" lon="2.44679">
        <ele>5.8</ele>
        <time>2020-06-23T11:16:00Z</time>
      </trkpt>
      <trkpt lat="51.05181" lon="2.44689">
        <ele>5.7</ele>
        <time>2020-06-23T11:16:01Z</time>
      </trkpt>
      <trkpt lat="51.05182" lon="2.44699">
        <ele>5.6</ele>
        <time>2020-06-23T11:16:02Z</time>
      </trkpt>
      <trkpt lat="51.05183" lon="2.44709">
        <ele>5.6</ele>
        <time>2020-06-23T11:16:03Z</time>
      </trkpt>
      <trkpt lat="51.05185" lon="2.44718">
        <ele>5.5</ele>
        <time>2020-06-23T11:16:04Z</time>
      </trkpt>
      <trkpt lat="51.05186" lon="2.44728">
        <ele>5.4</ele>
        <time>2020-06-23T11:16:05Z</time>
      </trkpt>
      <trkpt lat="51.05188" lon="2.44737">
        <ele>5.3</ele>
        <time>2020-06-23T11:16:06Z</time>
      </trkpt>
      <trkpt lat="51.05189" lon="2.44747">
        <ele>5.3</ele>
        <time>2020-06-23T11:16:07Z</time>
      </trkpt>
      <trkpt lat="51.05191" lon="2.44756">
        <ele>5.2</ele>
        <time>2020-06-23T11:16:08Z</time>
      </trkpt>
      <trkpt lat="51.05192" lon="2.44765">
        <ele>5.2</ele>
        <time>2020-06-23T11:16:09Z</time>
      </trkpt>
      <trkpt lat="51.05193" lon="2.44774">
        <ele>5.1</ele>
        <time>2020-06-23T11:16:10Z</time>
      </trkpt>
      <trkpt lat="51.05195" lon="2.44782">
        <ele>5.1</ele>
        <time>2020-06-23T11:16:11Z</time>
      </trkpt>
      <trkpt lat="51.05197" lon="2.4479">
        <ele>5</ele>
        <time>2020-06-23T11:16:12Z</time>
      </trkpt>
      <trkpt lat="51.052" lon="2.44798">
        <ele>5</ele>
        <time>2020-06-23T11:16:13Z</time>
      </trkpt>
      <trkpt lat="51.05201" lon="2.44806">
        <ele>5</ele>
        <time>2020-06-23T11:16:14Z</time>
      </trkpt>
      <trkpt lat="51.05203" lon="2.44812">
        <ele>5</ele>
        <time>2020-06-23T11:16:15Z</time>
      </trkpt>
      <trkpt lat="51.05204" lon="2.4482">
        <ele>4.9</ele>
        <time>2020-06-23T11:16:16Z</time>
      </trkpt>
      <trkpt lat="51.05206" lon="2.44828">
        <ele>4.9</ele>
        <time>2020-06-23T11:16:17Z</time>
      </trkpt>
      <trkpt lat="51.05208" lon="2.44837">
        <ele>4.9</ele>
        <time>2020-06-23T11:16:18Z</time>
      </trkpt>
      <trkpt lat="51.0521" lon="2.44846">
        <ele>4.9</ele>
        <time>2020-06-23T11:16:19Z</time>
      </trkpt>
      <trkpt lat="51.05212" lon="2.44855">
        <ele>4.9</ele>
        <time>2020-06-23T11:16:20Z</time>
      </trkpt>
      <trkpt lat="51.05215" lon="2.44863">
        <ele>4.9</ele>
        <time>2020-06-23T11:16:21Z</time>
      </trkpt>
      <trkpt lat="51.05216" lon="2.44872">
        <ele>4.9</ele>
        <time>2020-06-23T11:16:22Z</time>
      </trkpt>
      <trkpt lat="51.05218" lon="2.44881">
        <ele>4.8</ele>
        <time>2020-06-23T11:16:23Z</time>
      </trkpt>
      <trkpt lat="51.0522" lon="2.4489">
        <ele>4.8</ele>
        <time>2020-06-23T11:16:24Z</time>
      </trkpt>
      <trkpt lat="51.05222" lon="2.44898">
        <ele>4.8</ele>
        <time>2020-06-23T11:16:25Z</time>
      </trkpt>
      <trkpt lat="51.05224" lon="2.44906">
        <ele>4.8</ele>
        <time>2020-06-23T11:16:26Z</time>
      </trkpt>
      <trkpt lat="51.05226" lon="2.44914">
        <ele>4.8</ele>
        <time>2020-06-23T11:16:27Z</time>
      </trkpt>
      <trkpt lat="51.05227" lon="2.44924">
        <ele>4.8</ele>
        <time>2020-06-23T11:16:28Z</time>
      </trkpt>
      <trkpt lat="51.05229" lon="2.44932">
        <ele>4.8</ele>
        <time>2020-06-23T11:16:29Z</time>
      </trkpt>
      <trkpt lat="51.05231" lon="2.44942">
        <ele>4.8</ele>
        <time>2020-06-23T11:16:30Z</time>
      </trkpt>
      <trkpt lat="51.05234" lon="2.44952">
        <ele>4.7</ele>
        <time>2020-06-23T11:16:31Z</time>
      </trkpt>
      <trkpt lat="51.05236" lon="2.44963">
        <ele>4.7</ele>
        <time>2020-06-23T11:16:32Z</time>
      </trkpt>
      <trkpt lat="51.05238" lon="2.44972">
        <ele>4.7</ele>
        <time>2020-06-23T11:16:33Z</time>
      </trkpt>
      <trkpt lat="51.0524" lon="2.44983">
        <ele>4.6</ele>
        <time>2020-06-23T11:16:34Z</time>
      </trkpt>
      <trkpt lat="51.05243" lon="2.44993">
        <ele>4.6</ele>
        <time>2020-06-23T11:16:35Z</time>
      </trkpt>
      <trkpt lat="51.05246" lon="2.45002">
        <ele>4.6</ele>
        <time>2020-06-23T11:16:36Z</time>
      </trkpt>
      <trkpt lat="51.05248" lon="2.4501">
        <ele>4.6</ele>
        <time>2020-06-23T11:16:37Z</time>
      </trkpt>
      <trkpt lat="51.0525" lon="2.45021">
        <ele>4.5</ele>
        <time>2020-06-23T11:16:38Z</time>
      </trkpt>
      <trkpt lat="51.05253" lon="2.45031">
        <ele>4.5</ele>
        <time>2020-06-23T11:16:39Z</time>
      </trkpt>
      <trkpt lat="51.05254" lon="2.4504">
        <ele>4.5</ele>
        <time>2020-06-23T11:16:40Z</time>
      </trkpt>
      <trkpt lat="51.05255" lon="2.45051">
        <ele>4.5</ele>
        <time>2020-06-23T11:16:41Z</time>
      </trkpt>
      <trkpt lat="51.05258" lon="2.45059">
        <ele>4.4</ele>
        <time>2020-06-23T11:16:42Z</time>
      </trkpt>
      <trkpt lat="51.0526" lon="2.45068">
        <ele>4.4</ele>
        <time>2020-06-23T11:16:43Z</time>
      </trkpt>
      <trkpt lat="51.05262" lon="2.45076">
        <ele>4.4</ele>
        <time>2020-06-23T11:16:44Z</time>
      </trkpt>
      <trkpt lat="51.05264" lon="2.45084">
        <ele>4.4</ele>
        <time>2020-06-23T11:16:45Z</time>
      </trkpt>
      <trkpt lat="51.05266" lon="2.45095">
        <ele>4.5</ele>
        <time>2020-06-23T11:16:46Z</time>
      </trkpt>
      <trkpt lat="51.05268" lon="2.45104">
        <ele>4.5</ele>
        <time>2020-06-23T11:16:47Z</time>
      </trkpt>
      <trkpt lat="51.05269" lon="2.45112">
        <ele>4.5</ele>
        <time>2020-06-23T11:16:48Z</time>
      </trkpt>
      <trkpt lat="51.05271" lon="2.45121">
        <ele>4.5</ele>
        <time>2020-06-23T11:16:49Z</time>
      </trkpt>
      <trkpt lat="51.05273" lon="2.45129">
        <ele>4.5</ele>
        <time>2020-06-23T11:16:50Z</time>
      </trkpt>
      <trkpt lat="51.05275" lon="2.45136">
        <ele>4.5</ele>
        <time>2020-06-23T11:16:51Z</time>
      </trkpt>
      <trkpt lat="51.05277" lon="2.45144">
        <ele>4.5</ele>
        <time>2020-06-23T11:16:52Z</time>
      </trkpt>
      <trkpt lat="51.0528" lon="2.45152">
        <ele>4.5</ele>
        <time>2020-06-23T11:16:53Z</time>
      </trkpt>
      <trkpt lat="51.05283" lon="2.45158">
        <ele>4.5</ele>
        <time>2020-06-23T11:16:54Z</time>
      </trkpt>
      <trkpt lat="51.05285" lon="2.45165">
        <ele>4.5</ele>
        <time>2020-06-23T11:16:55Z</time>
      </trkpt>
      <trkpt lat="51.05287" lon="2.45173">
        <ele>4.6</ele>
        <time>2020-06-23T11:16:56Z</time>
      </trkpt>
      <trkpt lat="51.05289" lon="2.4518">
        <ele>4.6</ele>
        <time>2020-06-23T11:16:57Z</time>
      </trkpt>
      <trkpt lat="51.05292" lon="2.45189">
        <ele>4.6</ele>
        <time>2020-06-23T11:16:58Z</time>
      </trkpt>
      <trkpt lat="51.05294" lon="2.45197">
        <ele>4.6</ele>
        <time>2020-06-23T11:16:59Z</time>
      </trkpt>
      <trkpt lat="51.05296" lon="2.45206">
        <ele>4.6</ele>
        <time>2020-06-23T11:17:00Z</time>
      </trkpt>
      <trkpt lat="51.05298" lon="2.45214">
        <ele>4.7</ele>
        <time>2020-06-23T11:17:01Z</time>
      </trkpt>
      <trkpt lat="51.053" lon="2.45223">
        <ele>4.7</ele>
        <time>2020-06-23T11:17:02Z</time>
      </trkpt>
      <trkpt lat="51.05302" lon="2.45231">
        <ele>4.7</ele>
        <time>2020-06-23T11:17:03Z</time>
      </trkpt>
      <trkpt lat="51.05304" lon="2.4524">
        <ele>4.8</ele>
        <time>2020-06-23T11:17:04Z</time>
      </trkpt>
      <trkpt lat="51.05305" lon="2.45249">
        <ele>4.8</ele>
        <time>2020-06-23T11:17:05Z</time>
      </trkpt>
      <trkpt lat="51.05306" lon="2.45258">
        <ele>4.9</ele>
        <time>2020-06-23T11:17:06Z</time>
      </trkpt>
      <trkpt lat="51.05308" lon="2.45267">
        <ele>4.9</ele>
        <time>2020-06-23T11:17:07Z</time>
      </trkpt>
      <trkpt lat="51.05309" lon="2.45276">
        <ele>5</ele>
        <time>2020-06-23T11:17:08Z</time>
      </trkpt>
      <trkpt lat="51.05311" lon="2.45283">
        <ele>5</ele>
        <time>2020-06-23T11:17:09Z</time>
      </trkpt>
      <trkpt lat="51.05312" lon="2.45292">
        <ele>5.1</ele>
        <time>2020-06-23T11:17:10Z</time>
      </trkpt>
      <trkpt lat="51.05313" lon="2.45299">
        <ele>5.1</ele>
        <time>2020-06-23T11:17:11Z</time>
      </trkpt>
      <trkpt lat="51.05315" lon="2.45308">
        <ele>5.2</ele>
        <time>2020-06-23T11:17:12Z</time>
      </trkpt>
      <trkpt lat="51.05316" lon="2.45316">
        <ele>5.2</ele>
        <time>2020-06-23T11:17:13Z</time>
      </trkpt>
      <trkpt lat="51.05318" lon="2.45325">
        <ele>5.3</ele>
        <time>2020-06-23T11:17:14Z</time>
      </trkpt>
      <trkpt lat="51.0532" lon="2.45333">
        <ele>5.3</ele>
        <time>2020-06-23T11:17:15Z</time>
      </trkpt>
      <trkpt lat="51.05321" lon="2.45343">
        <ele>5.6</ele>
        <time>2020-06-23T11:17:16Z</time>
      </trkpt>
      <trkpt lat="51.05322" lon="2.45352">
        <ele>5.5</ele>
        <time>2020-06-23T11:17:17Z</time>
      </trkpt>
      <trkpt lat="51.05323" lon="2.45361">
        <ele>5.5</ele>
        <time>2020-06-23T11:17:18Z</time>
      </trkpt>
      <trkpt lat="51.05325" lon="2.45369">
        <ele>5.4</ele>
        <time>2020-06-23T11:17:19Z</time>
      </trkpt>
      <trkpt lat="51.05327" lon="2.45377">
        <ele>5.4</ele>
        <time>2020-06-23T11:17:20Z</time>
      </trkpt>
      <trkpt lat="51.05327" lon="2.45388">
        <ele>5.3</ele>
        <time>2020-06-23T11:17:21Z</time>
      </trkpt>
      <trkpt lat="51.05328" lon="2.45396">
        <ele>5.2</ele>
        <time>2020-06-23T11:17:22Z</time>
      </trkpt>
      <trkpt lat="51.05329" lon="2.45405">
        <ele>5.2</ele>
        <time>2020-06-23T11:17:23Z</time>
      </trkpt>
      <trkpt lat="51.0533" lon="2.45413">
        <ele>5.1</ele>
        <time>2020-06-23T11:17:24Z</time>
      </trkpt>
      <trkpt lat="51.05331" lon="2.45421">
        <ele>5.1</ele>
        <time>2020-06-23T11:17:25Z</time>
      </trkpt>
      <trkpt lat="51.05333" lon="2.45427">
        <ele>5</ele>
        <time>2020-06-23T11:17:26Z</time>
      </trkpt>
      <trkpt lat="51.05334" lon="2.45434">
        <ele>5</ele>
        <time>2020-06-23T11:17:27Z</time>
      </trkpt>
      <trkpt lat="51.05336" lon="2.45443">
        <ele>4.9</ele>
        <time>2020-06-23T11:17:28Z</time>
      </trkpt>
      <trkpt lat="51.05337" lon="2.4545">
        <ele>4.9</ele>
        <time>2020-06-23T11:17:29Z</time>
      </trkpt>
      <trkpt lat="51.05339" lon="2.45457">
        <ele>4.8</ele>
        <time>2020-06-23T11:17:30Z</time>
      </trkpt>
      <trkpt lat="51.05342" lon="2.4546">
        <ele>4.8</ele>
        <time>2020-06-23T11:17:31Z</time>
      </trkpt>
      <trkpt lat="51.05347" lon="2.45461">
        <ele>4.8</ele>
        <time>2020-06-23T11:17:32Z</time>
      </trkpt>
      <trkpt lat="51.05354" lon="2.45459">
        <ele>4.9</ele>
        <time>2020-06-23T11:17:33Z</time>
      </trkpt>
      <trkpt lat="51.05361" lon="2.4546">
        <ele>5</ele>
        <time>2020-06-23T11:17:34Z</time>
      </trkpt>
      <trkpt lat="51.05367" lon="2.45463">
        <ele>5</ele>
        <time>2020-06-23T11:17:35Z</time>
      </trkpt>
      <trkpt lat="51.05373" lon="2.45466">
        <ele>5.1</ele>
        <time>2020-06-23T11:17:36Z</time>
      </trkpt>
      <trkpt lat="51.05378" lon="2.4547">
        <ele>5.1</ele>
        <time>2020-06-23T11:17:37Z</time>
      </trkpt>
      <trkpt lat="51.05384" lon="2.45473">
        <ele>5.2</ele>
        <time>2020-06-23T11:17:38Z</time>
      </trkpt>
      <trkpt lat="51.05389" lon="2.45477">
        <ele>5.2</ele>
        <time>2020-06-23T11:17:39Z</time>
      </trkpt>
      <trkpt lat="51.05396" lon="2.45478">
        <ele>5.2</ele>
        <time>2020-06-23T11:17:40Z</time>
      </trkpt>
      <trkpt lat="51.05402" lon="2.4548">
        <ele>5.2</ele>
        <time>2020-06-23T11:17:41Z</time>
      </trkpt>
      <trkpt lat="51.05407" lon="2.45483">
        <ele>5.3</ele>
        <time>2020-06-23T11:17:42Z</time>
      </trkpt>
      <trkpt lat="51.05412" lon="2.45486">
        <ele>5.3</ele>
        <time>2020-06-23T11:17:43Z</time>
      </trkpt>
      <trkpt lat="51.05417" lon="2.45487">
        <ele>5.3</ele>
        <time>2020-06-23T11:17:44Z</time>
      </trkpt>
      <trkpt lat="51.05422" lon="2.45489">
        <ele>5.3</ele>
        <time>2020-06-23T11:17:45Z</time>
      </trkpt>
      <trkpt lat="51.05428" lon="2.45491">
        <ele>5.3</ele>
        <time>2020-06-23T11:17:46Z</time>
      </trkpt>
      <trkpt lat="51.05433" lon="2.45493">
        <ele>5.3</ele>
        <time>2020-06-23T11:17:47Z</time>
      </trkpt>
      <trkpt lat="51.05439" lon="2.45496">
        <ele>5.4</ele>
        <time>2020-06-23T11:17:48Z</time>
      </trkpt>
      <trkpt lat="51.05444" lon="2.45498">
        <ele>5.4</ele>
        <time>2020-06-23T11:17:49Z</time>
      </trkpt>
      <trkpt lat="51.0545" lon="2.455">
        <ele>5.4</ele>
        <time>2020-06-23T11:17:50Z</time>
      </trkpt>
      <trkpt lat="51.05457" lon="2.45503">
        <ele>5.4</ele>
        <time>2020-06-23T11:17:51Z</time>
      </trkpt>
      <trkpt lat="51.05462" lon="2.45506">
        <ele>5.5</ele>
        <time>2020-06-23T11:17:52Z</time>
      </trkpt>
      <trkpt lat="51.05467" lon="2.45508">
        <ele>5.5</ele>
        <time>2020-06-23T11:17:53Z</time>
      </trkpt>
      <trkpt lat="51.05472" lon="2.45511">
        <ele>5.5</ele>
        <time>2020-06-23T11:17:54Z</time>
      </trkpt>
      <trkpt lat="51.05477" lon="2.45515">
        <ele>5.5</ele>
        <time>2020-06-23T11:17:55Z</time>
      </trkpt>
      <trkpt lat="51.05482" lon="2.45518">
        <ele>5.5</ele>
        <time>2020-06-23T11:17:56Z</time>
      </trkpt>
      <trkpt lat="51.05486" lon="2.4552">
        <ele>5.5</ele>
        <time>2020-06-23T11:17:57Z</time>
      </trkpt>
      <trkpt lat="51.05491" lon="2.45523">
        <ele>5.5</ele>
        <time>2020-06-23T11:17:58Z</time>
      </trkpt>
      <trkpt lat="51.05495" lon="2.45525">
        <ele>5.5</ele>
        <time>2020-06-23T11:17:59Z</time>
      </trkpt>
      <trkpt lat="51.05501" lon="2.45528">
        <ele>5.6</ele>
        <time>2020-06-23T11:18:00Z</time>
      </trkpt>
      <trkpt lat="51.05507" lon="2.45531">
        <ele>5.6</ele>
        <time>2020-06-23T11:18:01Z</time>
      </trkpt>
      <trkpt lat="51.05512" lon="2.45534">
        <ele>5.6</ele>
        <time>2020-06-23T11:18:02Z</time>
      </trkpt>
      <trkpt lat="51.05518" lon="2.45537">
        <ele>5.7</ele>
        <time>2020-06-23T11:18:03Z</time>
      </trkpt>
      <trkpt lat="51.05524" lon="2.45541">
        <ele>5.7</ele>
        <time>2020-06-23T11:18:04Z</time>
      </trkpt>
      <trkpt lat="51.0553" lon="2.45543">
        <ele>5.7</ele>
        <time>2020-06-23T11:18:05Z</time>
      </trkpt>
      <trkpt lat="51.05535" lon="2.45545">
        <ele>5.7</ele>
        <time>2020-06-23T11:18:06Z</time>
      </trkpt>
      <trkpt lat="51.05539" lon="2.45547">
        <ele>5.7</ele>
        <time>2020-06-23T11:18:07Z</time>
      </trkpt>
      <trkpt lat="51.05544" lon="2.4555">
        <ele>5.7</ele>
        <time>2020-06-23T11:18:08Z</time>
      </trkpt>
      <trkpt lat="51.05548" lon="2.45552">
        <ele>5.7</ele>
        <time>2020-06-23T11:18:09Z</time>
      </trkpt>
      <trkpt lat="51.05552" lon="2.45555">
        <ele>5.7</ele>
        <time>2020-06-23T11:18:10Z</time>
      </trkpt>
      <trkpt lat="51.05557" lon="2.45556">
        <ele>5.7</ele>
        <time>2020-06-23T11:18:11Z</time>
      </trkpt>
      <trkpt lat="51.05561" lon="2.45559">
        <ele>5.6</ele>
        <time>2020-06-23T11:18:12Z</time>
      </trkpt>
      <trkpt lat="51.05567" lon="2.45561">
        <ele>5.6</ele>
        <time>2020-06-23T11:18:13Z</time>
      </trkpt>
      <trkpt lat="51.05574" lon="2.45565">
        <ele>5.6</ele>
        <time>2020-06-23T11:18:14Z</time>
      </trkpt>
      <trkpt lat="51.05579" lon="2.45569">
        <ele>5.5</ele>
        <time>2020-06-23T11:18:15Z</time>
      </trkpt>
      <trkpt lat="51.05583" lon="2.45575">
        <ele>5.5</ele>
        <time>2020-06-23T11:18:16Z</time>
      </trkpt>
      <trkpt lat="51.05586" lon="2.45584">
        <ele>5.5</ele>
        <time>2020-06-23T11:18:17Z</time>
      </trkpt>
      <trkpt lat="51.05587" lon="2.45593">
        <ele>5.5</ele>
        <time>2020-06-23T11:18:18Z</time>
      </trkpt>
      <trkpt lat="51.05588" lon="2.45603">
        <ele>5.4</ele>
        <time>2020-06-23T11:18:19Z</time>
      </trkpt>
      <trkpt lat="51.05588" lon="2.45613">
        <ele>5.4</ele>
        <time>2020-06-23T11:18:20Z</time>
      </trkpt>
      <trkpt lat="51.05589" lon="2.45621">
        <ele>5.4</ele>
        <time>2020-06-23T11:18:21Z</time>
      </trkpt>
      <trkpt lat="51.0559" lon="2.45629">
        <ele>5.3</ele>
        <time>2020-06-23T11:18:22Z</time>
      </trkpt>
      <trkpt lat="51.0559" lon="2.45636">
        <ele>5.3</ele>
        <time>2020-06-23T11:18:23Z</time>
      </trkpt>
      <trkpt lat="51.0559" lon="2.45643">
        <ele>5.2</ele>
        <time>2020-06-23T11:18:24Z</time>
      </trkpt>
      <trkpt lat="51.05591" lon="2.45649">
        <ele>5.2</ele>
        <time>2020-06-23T11:18:25Z</time>
      </trkpt>
      <trkpt lat="51.0559" lon="2.45659">
        <ele>5.2</ele>
        <time>2020-06-23T11:18:26Z</time>
      </trkpt>
      <trkpt lat="51.0559" lon="2.45668">
        <ele>5.1</ele>
        <time>2020-06-23T11:18:27Z</time>
      </trkpt>
      <trkpt lat="51.0559" lon="2.45677">
        <ele>5.1</ele>
        <time>2020-06-23T11:18:28Z</time>
      </trkpt>
      <trkpt lat="51.05591" lon="2.45685">
        <ele>5.1</ele>
        <time>2020-06-23T11:18:29Z</time>
      </trkpt>
      <trkpt lat="51.05591" lon="2.45695">
        <ele>5.1</ele>
        <time>2020-06-23T11:18:30Z</time>
      </trkpt>
      <trkpt lat="51.05591" lon="2.45704">
        <ele>5.1</ele>
        <time>2020-06-23T11:18:31Z</time>
      </trkpt>
      <trkpt lat="51.05593" lon="2.45714">
        <ele>5.1</ele>
        <time>2020-06-23T11:18:32Z</time>
      </trkpt>
      <trkpt lat="51.05594" lon="2.45723">
        <ele>5</ele>
        <time>2020-06-23T11:18:33Z</time>
      </trkpt>
      <trkpt lat="51.05595" lon="2.45732">
        <ele>5</ele>
        <time>2020-06-23T11:18:34Z</time>
      </trkpt>
      <trkpt lat="51.05596" lon="2.45742">
        <ele>5</ele>
        <time>2020-06-23T11:18:35Z</time>
      </trkpt>
      <trkpt lat="51.05596" lon="2.45751">
        <ele>5</ele>
        <time>2020-06-23T11:18:36Z</time>
      </trkpt>
      <trkpt lat="51.05597" lon="2.4576">
        <ele>5</ele>
        <time>2020-06-23T11:18:37Z</time>
      </trkpt>
      <trkpt lat="51.05597" lon="2.45768">
        <ele>4.9</ele>
        <time>2020-06-23T11:18:38Z</time>
      </trkpt>
      <trkpt lat="51.05598" lon="2.45777">
        <ele>4.9</ele>
        <time>2020-06-23T11:18:39Z</time>
      </trkpt>
      <trkpt lat="51.05599" lon="2.45785">
        <ele>4.9</ele>
        <time>2020-06-23T11:18:40Z</time>
      </trkpt>
      <trkpt lat="51.056" lon="2.45793">
        <ele>4.8</ele>
        <time>2020-06-23T11:18:41Z</time>
      </trkpt>
      <trkpt lat="51.05601" lon="2.45802">
        <ele>4.8</ele>
        <time>2020-06-23T11:18:42Z</time>
      </trkpt>
      <trkpt lat="51.05602" lon="2.45811">
        <ele>4.8</ele>
        <time>2020-06-23T11:18:43Z</time>
      </trkpt>
      <trkpt lat="51.05603" lon="2.45821">
        <ele>4.8</ele>
        <time>2020-06-23T11:18:44Z</time>
      </trkpt>
      <trkpt lat="51.05605" lon="2.45829">
        <ele>4.8</ele>
        <time>2020-06-23T11:18:45Z</time>
      </trkpt>
      <trkpt lat="51.05605" lon="2.45839">
        <ele>4.8</ele>
        <time>2020-06-23T11:18:46Z</time>
      </trkpt>
      <trkpt lat="51.05606" lon="2.45848">
        <ele>4.8</ele>
        <time>2020-06-23T11:18:47Z</time>
      </trkpt>
      <trkpt lat="51.05607" lon="2.45857">
        <ele>4.8</ele>
        <time>2020-06-23T11:18:48Z</time>
      </trkpt>
      <trkpt lat="51.05608" lon="2.45867">
        <ele>4.7</ele>
        <time>2020-06-23T11:18:49Z</time>
      </trkpt>
      <trkpt lat="51.05609" lon="2.45877">
        <ele>4.7</ele>
        <time>2020-06-23T11:18:50Z</time>
      </trkpt>
      <trkpt lat="51.0561" lon="2.45883">
        <ele>4.7</ele>
        <time>2020-06-23T11:18:51Z</time>
      </trkpt>
      <trkpt lat="51.05612" lon="2.45892">
        <ele>4.7</ele>
        <time>2020-06-23T11:18:52Z</time>
      </trkpt>
      <trkpt lat="51.05613" lon="2.45901">
        <ele>4.7</ele>
        <time>2020-06-23T11:18:53Z</time>
      </trkpt>
      <trkpt lat="51.05613" lon="2.45912">
        <ele>4.6</ele>
        <time>2020-06-23T11:18:54Z</time>
      </trkpt>
      <trkpt lat="51.05615" lon="2.4592">
        <ele>4.6</ele>
        <time>2020-06-23T11:18:55Z</time>
      </trkpt>
      <trkpt lat="51.05616" lon="2.45928">
        <ele>4.6</ele>
        <time>2020-06-23T11:18:56Z</time>
      </trkpt>
      <trkpt lat="51.05618" lon="2.45938">
        <ele>4.6</ele>
        <time>2020-06-23T11:18:57Z</time>
      </trkpt>
      <trkpt lat="51.05619" lon="2.45947">
        <ele>4.6</ele>
        <time>2020-06-23T11:18:58Z</time>
      </trkpt>
      <trkpt lat="51.05619" lon="2.45957">
        <ele>4.6</ele>
        <time>2020-06-23T11:18:59Z</time>
      </trkpt>
      <trkpt lat="51.0562" lon="2.45967">
        <ele>4.6</ele>
        <time>2020-06-23T11:19:00Z</time>
      </trkpt>
      <trkpt lat="51.05622" lon="2.45978">
        <ele>4.6</ele>
        <time>2020-06-23T11:19:01Z</time>
      </trkpt>
      <trkpt lat="51.05622" lon="2.45987">
        <ele>4.6</ele>
        <time>2020-06-23T11:19:02Z</time>
      </trkpt>
      <trkpt lat="51.05623" lon="2.45994">
        <ele>4.5</ele>
        <time>2020-06-23T11:19:03Z</time>
      </trkpt>
      <trkpt lat="51.05623" lon="2.46002">
        <ele>4.5</ele>
        <time>2020-06-23T11:19:04Z</time>
      </trkpt>
      <trkpt lat="51.05624" lon="2.46012">
        <ele>4.5</ele>
        <time>2020-06-23T11:19:05Z</time>
      </trkpt>
      <trkpt lat="51.05626" lon="2.46022">
        <ele>4.5</ele>
        <time>2020-06-23T11:19:06Z</time>
      </trkpt>
      <trkpt lat="51.05627" lon="2.46033">
        <ele>4.4</ele>
        <time>2020-06-23T11:19:07Z</time>
      </trkpt>
      <trkpt lat="51.05628" lon="2.46043">
        <ele>4.4</ele>
        <time>2020-06-23T11:19:08Z</time>
      </trkpt>
      <trkpt lat="51.05629" lon="2.46056">
        <ele>4.4</ele>
        <time>2020-06-23T11:19:09Z</time>
      </trkpt>
      <trkpt lat="51.05631" lon="2.46067">
        <ele>4.4</ele>
        <time>2020-06-23T11:19:10Z</time>
      </trkpt>
      <trkpt lat="51.05631" lon="2.46076">
        <ele>4.4</ele>
        <time>2020-06-23T11:19:11Z</time>
      </trkpt>
      <trkpt lat="51.05632" lon="2.46085">
        <ele>4.3</ele>
        <time>2020-06-23T11:19:12Z</time>
      </trkpt>
      <trkpt lat="51.05633" lon="2.46096">
        <ele>4.3</ele>
        <time>2020-06-23T11:19:13Z</time>
      </trkpt>
      <trkpt lat="51.05634" lon="2.46106">
        <ele>4.3</ele>
        <time>2020-06-23T11:19:14Z</time>
      </trkpt>
      <trkpt lat="51.05635" lon="2.46117">
        <ele>4.3</ele>
        <time>2020-06-23T11:19:15Z</time>
      </trkpt>
      <trkpt lat="51.05637" lon="2.46127">
        <ele>4.3</ele>
        <time>2020-06-23T11:19:16Z</time>
      </trkpt>
      <trkpt lat="51.05639" lon="2.46138">
        <ele>4.3</ele>
        <time>2020-06-23T11:19:17Z</time>
      </trkpt>
      <trkpt lat="51.0564" lon="2.46148">
        <ele>4.3</ele>
        <time>2020-06-23T11:19:18Z</time>
      </trkpt>
      <trkpt lat="51.05641" lon="2.46156">
        <ele>4.3</ele>
        <time>2020-06-23T11:19:19Z</time>
      </trkpt>
      <trkpt lat="51.05643" lon="2.46166">
        <ele>4.3</ele>
        <time>2020-06-23T11:19:20Z</time>
      </trkpt>
      <trkpt lat="51.05644" lon="2.46176">
        <ele>4.3</ele>
        <time>2020-06-23T11:19:21Z</time>
      </trkpt>
      <trkpt lat="51.05646" lon="2.46185">
        <ele>4.3</ele>
        <time>2020-06-23T11:19:22Z</time>
      </trkpt>
      <trkpt lat="51.05647" lon="2.46194">
        <ele>4.2</ele>
        <time>2020-06-23T11:19:23Z</time>
      </trkpt>
      <trkpt lat="51.05649" lon="2.46204">
        <ele>4.2</ele>
        <time>2020-06-23T11:19:24Z</time>
      </trkpt>
      <trkpt lat="51.05651" lon="2.46214">
        <ele>4.2</ele>
        <time>2020-06-23T11:19:25Z</time>
      </trkpt>
      <trkpt lat="51.05653" lon="2.46223">
        <ele>4.2</ele>
        <time>2020-06-23T11:19:26Z</time>
      </trkpt>
      <trkpt lat="51.05655" lon="2.46231">
        <ele>4.1</ele>
        <time>2020-06-23T11:19:27Z</time>
      </trkpt>
      <trkpt lat="51.05657" lon="2.46243">
        <ele>4.1</ele>
        <time>2020-06-23T11:19:28Z</time>
      </trkpt>
      <trkpt lat="51.05658" lon="2.46254">
        <ele>4.1</ele>
        <time>2020-06-23T11:19:29Z</time>
      </trkpt>
      <trkpt lat="51.0566" lon="2.46265">
        <ele>4</ele>
        <time>2020-06-23T11:19:30Z</time>
      </trkpt>
      <trkpt lat="51.05662" lon="2.46276">
        <ele>4.1</ele>
        <time>2020-06-23T11:19:31Z</time>
      </trkpt>
      <trkpt lat="51.05664" lon="2.46285">
        <ele>4.1</ele>
        <time>2020-06-23T11:19:32Z</time>
      </trkpt>
      <trkpt lat="51.05666" lon="2.46294">
        <ele>4.1</ele>
        <time>2020-06-23T11:19:33Z</time>
      </trkpt>
      <trkpt lat="51.05668" lon="2.46303">
        <ele>4.1</ele>
        <time>2020-06-23T11:19:34Z</time>
      </trkpt>
      <trkpt lat="51.0567" lon="2.46312">
        <ele>4.1</ele>
        <time>2020-06-23T11:19:35Z</time>
      </trkpt>
      <trkpt lat="51.05673" lon="2.46322">
        <ele>4.1</ele>
        <time>2020-06-23T11:19:36Z</time>
      </trkpt>
      <trkpt lat="51.05675" lon="2.46331">
        <ele>4.1</ele>
        <time>2020-06-23T11:19:37Z</time>
      </trkpt>
      <trkpt lat="51.05677" lon="2.46341">
        <ele>4.1</ele>
        <time>2020-06-23T11:19:38Z</time>
      </trkpt>
      <trkpt lat="51.05679" lon="2.46351">
        <ele>4.1</ele>
        <time>2020-06-23T11:19:39Z</time>
      </trkpt>
      <trkpt lat="51.05682" lon="2.4636">
        <ele>4.1</ele>
        <time>2020-06-23T11:19:40Z</time>
      </trkpt>
      <trkpt lat="51.05684" lon="2.4637">
        <ele>4.1</ele>
        <time>2020-06-23T11:19:41Z</time>
      </trkpt>
      <trkpt lat="51.05687" lon="2.4638">
        <ele>4.1</ele>
        <time>2020-06-23T11:19:42Z</time>
      </trkpt>
      <trkpt lat="51.05689" lon="2.46389">
        <ele>4.1</ele>
        <time>2020-06-23T11:19:43Z</time>
      </trkpt>
      <trkpt lat="51.05692" lon="2.46398">
        <ele>4.1</ele>
        <time>2020-06-23T11:19:44Z</time>
      </trkpt>
      <trkpt lat="51.05695" lon="2.46407">
        <ele>4.1</ele>
        <time>2020-06-23T11:19:45Z</time>
      </trkpt>
      <trkpt lat="51.05698" lon="2.46415">
        <ele>4.2</ele>
        <time>2020-06-23T11:19:46Z</time>
      </trkpt>
      <trkpt lat="51.05701" lon="2.46424">
        <ele>4.2</ele>
        <time>2020-06-23T11:19:47Z</time>
      </trkpt>
      <trkpt lat="51.05704" lon="2.46433">
        <ele>4.2</ele>
        <time>2020-06-23T11:19:48Z</time>
      </trkpt>
      <trkpt lat="51.05707" lon="2.46442">
        <ele>4.2</ele>
        <time>2020-06-23T11:19:49Z</time>
      </trkpt>
      <trkpt lat="51.0571" lon="2.46452">
        <ele>4.2</ele>
        <time>2020-06-23T11:19:50Z</time>
      </trkpt>
      <trkpt lat="51.05714" lon="2.46461">
        <ele>4.2</ele>
        <time>2020-06-23T11:19:51Z</time>
      </trkpt>
      <trkpt lat="51.05717" lon="2.46471">
        <ele>4.2</ele>
        <time>2020-06-23T11:19:52Z</time>
      </trkpt>
      <trkpt lat="51.0572" lon="2.46479">
        <ele>4.2</ele>
        <time>2020-06-23T11:19:53Z</time>
      </trkpt>
      <trkpt lat="51.05723" lon="2.46488">
        <ele>4.2</ele>
        <time>2020-06-23T11:19:54Z</time>
      </trkpt>
      <trkpt lat="51.05726" lon="2.46497">
        <ele>4.2</ele>
        <time>2020-06-23T11:19:55Z</time>
      </trkpt>
      <trkpt lat="51.0573" lon="2.46506">
        <ele>4.2</ele>
        <time>2020-06-23T11:19:56Z</time>
      </trkpt>
      <trkpt lat="51.05733" lon="2.46515">
        <ele>4.1</ele>
        <time>2020-06-23T11:19:57Z</time>
      </trkpt>
      <trkpt lat="51.05736" lon="2.46524">
        <ele>4.1</ele>
        <time>2020-06-23T11:19:58Z</time>
      </trkpt>
      <trkpt lat="51.0574" lon="2.46533">
        <ele>4.1</ele>
        <time>2020-06-23T11:19:59Z</time>
      </trkpt>
      <trkpt lat="51.05743" lon="2.46543">
        <ele>4.1</ele>
        <time>2020-06-23T11:20:00Z</time>
      </trkpt>
      <trkpt lat="51.05747" lon="2.46553">
        <ele>4.1</ele>
        <time>2020-06-23T11:20:01Z</time>
      </trkpt>
      <trkpt lat="51.0575" lon="2.46562">
        <ele>4.1</ele>
        <time>2020-06-23T11:20:02Z</time>
      </trkpt>
      <trkpt lat="51.05753" lon="2.46571">
        <ele>4.1</ele>
        <time>2020-06-23T11:20:03Z</time>
      </trkpt>
      <trkpt lat="51.05757" lon="2.4658">
        <ele>4.1</ele>
        <time>2020-06-23T11:20:04Z</time>
      </trkpt>
      <trkpt lat="51.0576" lon="2.46588">
        <ele>4.1</ele>
        <time>2020-06-23T11:20:05Z</time>
      </trkpt>
      <trkpt lat="51.05764" lon="2.46598">
        <ele>4.1</ele>
        <time>2020-06-23T11:20:06Z</time>
      </trkpt>
      <trkpt lat="51.05767" lon="2.46607">
        <ele>4.1</ele>
        <time>2020-06-23T11:20:07Z</time>
      </trkpt>
      <trkpt lat="51.0577" lon="2.46616">
        <ele>4.1</ele>
        <time>2020-06-23T11:20:08Z</time>
      </trkpt>
      <trkpt lat="51.05773" lon="2.46624">
        <ele>4.1</ele>
        <time>2020-06-23T11:20:09Z</time>
      </trkpt>
      <trkpt lat="51.05776" lon="2.46631">
        <ele>4.1</ele>
        <time>2020-06-23T11:20:10Z</time>
      </trkpt>
      <trkpt lat="51.05779" lon="2.46639">
        <ele>4.1</ele>
        <time>2020-06-23T11:20:11Z</time>
      </trkpt>
      <trkpt lat="51.05782" lon="2.46648">
        <ele>4.1</ele>
        <time>2020-06-23T11:20:12Z</time>
      </trkpt>
      <trkpt lat="51.05785" lon="2.46656">
        <ele>4.1</ele>
        <time>2020-06-23T11:20:13Z</time>
      </trkpt>
      <trkpt lat="51.05787" lon="2.46664">
        <ele>4.1</ele>
        <time>2020-06-23T11:20:14Z</time>
      </trkpt>
      <trkpt lat="51.0579" lon="2.46672">
        <ele>4.1</ele>
        <time>2020-06-23T11:20:15Z</time>
      </trkpt>
      <trkpt lat="51.05794" lon="2.46678">
        <ele>4.1</ele>
        <time>2020-06-23T11:20:16Z</time>
      </trkpt>
      <trkpt lat="51.05796" lon="2.46685">
        <ele>4.1</ele>
        <time>2020-06-23T11:20:17Z</time>
      </trkpt>
      <trkpt lat="51.05799" lon="2.46693">
        <ele>4.1</ele>
        <time>2020-06-23T11:20:18Z</time>
      </trkpt>
      <trkpt lat="51.05802" lon="2.46702">
        <ele>4.2</ele>
        <time>2020-06-23T11:20:19Z</time>
      </trkpt>
      <trkpt lat="51.05804" lon="2.4671">
        <ele>4.2</ele>
        <time>2020-06-23T11:20:20Z</time>
      </trkpt>
      <trkpt lat="51.05807" lon="2.46717">
        <ele>4.2</ele>
        <time>2020-06-23T11:20:21Z</time>
      </trkpt>
      <trkpt lat="51.0581" lon="2.46724">
        <ele>4.2</ele>
        <time>2020-06-23T11:20:22Z</time>
      </trkpt>
      <trkpt lat="51.05813" lon="2.46731">
        <ele>4.3</ele>
        <time>2020-06-23T11:20:23Z</time>
      </trkpt>
      <trkpt lat="51.05816" lon="2.46738">
        <ele>4.3</ele>
        <time>2020-06-23T11:20:24Z</time>
      </trkpt>
      <trkpt lat="51.05818" lon="2.46746">
        <ele>4.4</ele>
        <time>2020-06-23T11:20:25Z</time>
      </trkpt>
      <trkpt lat="51.0582" lon="2.46753">
        <ele>4.5</ele>
        <time>2020-06-23T11:20:26Z</time>
      </trkpt>
      <trkpt lat="51.05822" lon="2.46759">
        <ele>4.5</ele>
        <time>2020-06-23T11:20:27Z</time>
      </trkpt>
      <trkpt lat="51.05824" lon="2.46766">
        <ele>4.6</ele>
        <time>2020-06-23T11:20:28Z</time>
      </trkpt>
      <trkpt lat="51.05827" lon="2.46772">
        <ele>4.5</ele>
        <time>2020-06-23T11:20:29Z</time>
      </trkpt>
      <trkpt lat="51.05829" lon="2.46778">
        <ele>4.5</ele>
        <time>2020-06-23T11:20:30Z</time>
      </trkpt>
      <trkpt lat="51.05832" lon="2.46784">
        <ele>4.5</ele>
        <time>2020-06-23T11:20:31Z</time>
      </trkpt>
      <trkpt lat="51.05835" lon="2.4679">
        <ele>4.5</ele>
        <time>2020-06-23T11:20:32Z</time>
      </trkpt>
      <trkpt lat="51.05838" lon="2.46798">
        <ele>4.5</ele>
        <time>2020-06-23T11:20:33Z</time>
      </trkpt>
      <trkpt lat="51.0584" lon="2.46804">
        <ele>4.5</ele>
        <time>2020-06-23T11:20:34Z</time>
      </trkpt>
      <trkpt lat="51.05843" lon="2.4681">
        <ele>4.5</ele>
        <time>2020-06-23T11:20:35Z</time>
      </trkpt>
      <trkpt lat="51.05845" lon="2.46818">
        <ele>4.5</ele>
        <time>2020-06-23T11:20:36Z</time>
      </trkpt>
      <trkpt lat="51.05847" lon="2.46826">
        <ele>4.5</ele>
        <time>2020-06-23T11:20:37Z</time>
      </trkpt>
      <trkpt lat="51.05848" lon="2.46832">
        <ele>4.5</ele>
        <time>2020-06-23T11:20:38Z</time>
      </trkpt>
      <trkpt lat="51.05851" lon="2.46838">
        <ele>4.5</ele>
        <time>2020-06-23T11:20:39Z</time>
      </trkpt>
      <trkpt lat="51.05854" lon="2.46841">
        <ele>4.6</ele>
        <time>2020-06-23T11:20:40Z</time>
      </trkpt>
      <trkpt lat="51.05856" lon="2.46844">
        <ele>4.6</ele>
        <time>2020-06-23T11:20:41Z</time>
      </trkpt>
      <trkpt lat="51.05859" lon="2.46848">
        <ele>4.6</ele>
        <time>2020-06-23T11:20:42Z</time>
      </trkpt>
      <trkpt lat="51.05859" lon="2.46849">
        <ele>4.6</ele>
        <time>2020-06-23T11:20:43Z</time>
      </trkpt>
      <trkpt lat="51.05861" lon="2.4685">
        <ele>4.5</ele>
        <time>2020-06-23T11:20:44Z</time>
      </trkpt>
      <trkpt lat="51.05862" lon="2.46851">
        <ele>4.5</ele>
        <time>2020-06-23T11:20:45Z</time>
      </trkpt>
      <trkpt lat="51.05862" lon="2.46851">
        <ele>4.5</ele>
        <time>2020-06-23T11:20:46Z</time>
      </trkpt>
      <trkpt lat="51.05861" lon="2.46852">
        <ele>4.5</ele>
        <time>2020-06-23T11:20:47Z</time>
      </trkpt>
      <trkpt lat="51.05861" lon="2.4685">
        <ele>4.5</ele>
        <time>2020-06-23T11:20:48Z</time>
      </trkpt>
      <trkpt lat="51.05862" lon="2.46851">
        <ele>4.5</ele>
        <time>2020-06-23T11:20:49Z</time>
      </trkpt>
      <trkpt lat="51.05863" lon="2.46853">
        <ele>4.5</ele>
        <time>2020-06-23T11:20:50Z</time>
      </trkpt>
      <trkpt lat="51.05863" lon="2.46854">
        <ele>4.5</ele>
        <time>2020-06-23T11:20:51Z</time>
      </trkpt>
      <trkpt lat="51.05863" lon="2.46855">
        <ele>4.5</ele>
        <time>2020-06-23T11:20:52Z</time>
      </trkpt>
      <trkpt lat="51.05864" lon="2.46857">
        <ele>4.5</ele>
        <time>2020-06-23T11:20:53Z</time>
      </trkpt>
      <trkpt lat="51.05864" lon="2.46858">
        <ele>4.5</ele>
        <time>2020-06-23T11:20:54Z</time>
      </trkpt>
      <trkpt lat="51.05865" lon="2.46858">
        <ele>4.5</ele>
        <time>2020-06-23T11:20:55Z</time>
      </trkpt>
      <trkpt lat="51.05865" lon="2.46859">
        <ele>4.5</ele>
        <time>2020-06-23T11:20:56Z</time>
      </trkpt>
      <trkpt lat="51.05866" lon="2.4686">
        <ele>4.5</ele>
        <time>2020-06-23T11:20:57Z</time>
      </trkpt>
      <trkpt lat="51.05865" lon="2.46861">
        <ele>4.5</ele>
        <time>2020-06-23T11:20:58Z</time>
      </trkpt>
      <trkpt lat="51.05865" lon="2.46861">
        <ele>4.5</ele>
        <time>2020-06-23T11:20:59Z</time>
      </trkpt>
      <trkpt lat="51.05864" lon="2.46862">
        <ele>4.5</ele>
        <time>2020-06-23T11:21:00Z</time>
      </trkpt>
      <trkpt lat="51.05864" lon="2.46863">
        <ele>4.5</ele>
        <time>2020-06-23T11:21:01Z</time>
      </trkpt>
      <trkpt lat="51.05863" lon="2.46864">
        <ele>4.5</ele>
        <time>2020-06-23T11:21:02Z</time>
      </trkpt>
      <trkpt lat="51.05863" lon="2.46865">
        <ele>4.5</ele>
        <time>2020-06-23T11:21:03Z</time>
      </trkpt>
      <trkpt lat="51.05862" lon="2.46865">
        <ele>4.5</ele>
        <time>2020-06-23T11:21:04Z</time>
      </trkpt>
      <trkpt lat="51.05862" lon="2.46866">
        <ele>4.5</ele>
        <time>2020-06-23T11:21:05Z</time>
      </trkpt>
      <trkpt lat="51.05861" lon="2.46867">
        <ele>4.5</ele>
        <time>2020-06-23T11:21:06Z</time>
      </trkpt>
      <trkpt lat="51.05861" lon="2.46868">
        <ele>4.5</ele>
        <time>2020-06-23T11:21:07Z</time>
      </trkpt>
      <trkpt lat="51.0586" lon="2.46869">
        <ele>4.5</ele>
        <time>2020-06-23T11:21:08Z</time>
      </trkpt>
      <trkpt lat="51.0586" lon="2.46869">
        <ele>4.5</ele>
        <time>2020-06-23T11:21:09Z</time>
      </trkpt>
      <trkpt lat="51.05859" lon="2.4687">
        <ele>4.5</ele>
        <time>2020-06-23T11:21:25Z</time>
      </trkpt>
      <trkpt lat="51.05859" lon="2.46871">
        <ele>4.5</ele>
        <time>2020-06-23T11:21:26Z</time>
      </trkpt>
      <trkpt lat="51.05859" lon="2.46878">
        <ele>4.5</ele>
        <time>2020-06-23T11:21:27Z</time>
      </trkpt>
      <trkpt lat="51.05859" lon="2.46883">
        <ele>4.5</ele>
        <time>2020-06-23T11:21:28Z</time>
      </trkpt>
      <trkpt lat="51.05859" lon="2.4689">
        <ele>4.5</ele>
        <time>2020-06-23T11:21:29Z</time>
      </trkpt>
      <trkpt lat="51.0586" lon="2.46897">
        <ele>4.5</ele>
        <time>2020-06-23T11:21:30Z</time>
      </trkpt>
      <trkpt lat="51.0586" lon="2.46905">
        <ele>4.5</ele>
        <time>2020-06-23T11:21:31Z</time>
      </trkpt>
      <trkpt lat="51.0586" lon="2.46912">
        <ele>4.5</ele>
        <time>2020-06-23T11:21:32Z</time>
      </trkpt>
      <trkpt lat="51.05859" lon="2.4692">
        <ele>4.5</ele>
        <time>2020-06-23T11:21:33Z</time>
      </trkpt>
      <trkpt lat="51.05858" lon="2.46928">
        <ele>4.5</ele>
        <time>2020-06-23T11:21:34Z</time>
      </trkpt>
      <trkpt lat="51.05856" lon="2.46936">
        <ele>4.5</ele>
        <time>2020-06-23T11:21:35Z</time>
      </trkpt>
      <trkpt lat="51.05855" lon="2.46944">
        <ele>4.4</ele>
        <time>2020-06-23T11:21:36Z</time>
      </trkpt>
      <trkpt lat="51.05853" lon="2.46952">
        <ele>4.5</ele>
        <time>2020-06-23T11:21:37Z</time>
      </trkpt>
      <trkpt lat="51.0585" lon="2.4696">
        <ele>4.5</ele>
        <time>2020-06-23T11:21:38Z</time>
      </trkpt>
      <trkpt lat="51.05847" lon="2.46968">
        <ele>4.5</ele>
        <time>2020-06-23T11:21:39Z</time>
      </trkpt>
      <trkpt lat="51.05844" lon="2.46975">
        <ele>4.5</ele>
        <time>2020-06-23T11:21:40Z</time>
      </trkpt>
      <trkpt lat="51.0584" lon="2.46983">
        <ele>4.5</ele>
        <time>2020-06-23T11:21:41Z</time>
      </trkpt>
      <trkpt lat="51.05837" lon="2.46989">
        <ele>4.5</ele>
        <time>2020-06-23T11:21:42Z</time>
      </trkpt>
      <trkpt lat="51.05835" lon="2.46996">
        <ele>4.5</ele>
        <time>2020-06-23T11:21:43Z</time>
      </trkpt>
      <trkpt lat="51.05833" lon="2.47002">
        <ele>4.5</ele>
        <time>2020-06-23T11:21:44Z</time>
      </trkpt>
      <trkpt lat="51.05829" lon="2.47011">
        <ele>4.5</ele>
        <time>2020-06-23T11:21:45Z</time>
      </trkpt>
      <trkpt lat="51.05826" lon="2.47018">
        <ele>4.5</ele>
        <time>2020-06-23T11:21:46Z</time>
      </trkpt>
      <trkpt lat="51.05822" lon="2.47026">
        <ele>4.5</ele>
        <time>2020-06-23T11:21:47Z</time>
      </trkpt>
      <trkpt lat="51.05818" lon="2.47033">
        <ele>4.4</ele>
        <time>2020-06-23T11:21:48Z</time>
      </trkpt>
      <trkpt lat="51.05814" lon="2.47041">
        <ele>4.4</ele>
        <time>2020-06-23T11:21:49Z</time>
      </trkpt>
      <trkpt lat="51.05811" lon="2.47048">
        <ele>4.4</ele>
        <time>2020-06-23T11:21:50Z</time>
      </trkpt>
      <trkpt lat="51.05807" lon="2.47054">
        <ele>4.4</ele>
        <time>2020-06-23T11:21:51Z</time>
      </trkpt>
      <trkpt lat="51.05803" lon="2.4706">
        <ele>4.4</ele>
        <time>2020-06-23T11:21:52Z</time>
      </trkpt>
      <trkpt lat="51.05799" lon="2.47066">
        <ele>4.4</ele>
        <time>2020-06-23T11:21:53Z</time>
      </trkpt>
      <trkpt lat="51.05796" lon="2.47073">
        <ele>4.4</ele>
        <time>2020-06-23T11:21:54Z</time>
      </trkpt>
      <trkpt lat="51.05791" lon="2.4708">
        <ele>4.4</ele>
        <time>2020-06-23T11:21:55Z</time>
      </trkpt>
      <trkpt lat="51.05787" lon="2.47087">
        <ele>4.4</ele>
        <time>2020-06-23T11:21:56Z</time>
      </trkpt>
      <trkpt lat="51.05783" lon="2.47095">
        <ele>4.4</ele>
        <time>2020-06-23T11:21:57Z</time>
      </trkpt>
      <trkpt lat="51.05778" lon="2.47103">
        <ele>4.4</ele>
        <time>2020-06-23T11:21:58Z</time>
      </trkpt>
      <trkpt lat="51.05774" lon="2.47109">
        <ele>4.4</ele>
        <time>2020-06-23T11:21:59Z</time>
      </trkpt>
      <trkpt lat="51.05771" lon="2.47117">
        <ele>4.4</ele>
        <time>2020-06-23T11:22:00Z</time>
      </trkpt>
      <trkpt lat="51.05767" lon="2.47126">
        <ele>4.4</ele>
        <time>2020-06-23T11:22:01Z</time>
      </trkpt>
      <trkpt lat="51.05765" lon="2.47132">
        <ele>4.4</ele>
        <time>2020-06-23T11:22:02Z</time>
      </trkpt>
      <trkpt lat="51.05762" lon="2.47141">
        <ele>4.4</ele>
        <time>2020-06-23T11:22:03Z</time>
      </trkpt>
      <trkpt lat="51.05758" lon="2.4715">
        <ele>4.4</ele>
        <time>2020-06-23T11:22:04Z</time>
      </trkpt>
      <trkpt lat="51.05755" lon="2.47158">
        <ele>4.4</ele>
        <time>2020-06-23T11:22:05Z</time>
      </trkpt>
      <trkpt lat="51.05752" lon="2.47167">
        <ele>4.4</ele>
        <time>2020-06-23T11:22:06Z</time>
      </trkpt>
      <trkpt lat="51.0575" lon="2.47176">
        <ele>4.5</ele>
        <time>2020-06-23T11:22:07Z</time>
      </trkpt>
      <trkpt lat="51.05747" lon="2.47186">
        <ele>4.5</ele>
        <time>2020-06-23T11:22:08Z</time>
      </trkpt>
      <trkpt lat="51.05744" lon="2.47196">
        <ele>4.5</ele>
        <time>2020-06-23T11:22:09Z</time>
      </trkpt>
      <trkpt lat="51.05745" lon="2.47202">
        <ele>4.5</ele>
        <time>2020-06-23T11:22:10Z</time>
      </trkpt>
      <trkpt lat="51.05743" lon="2.47212">
        <ele>4.2</ele>
        <time>2020-06-23T11:22:11Z</time>
      </trkpt>
      <trkpt lat="51.05742" lon="2.4722">
        <ele>3.9</ele>
        <time>2020-06-23T11:22:12Z</time>
      </trkpt>
      <trkpt lat="51.05741" lon="2.4723">
        <ele>4.3</ele>
        <time>2020-06-23T11:22:13Z</time>
      </trkpt>
      <trkpt lat="51.05741" lon="2.47238">
        <ele>4.7</ele>
        <time>2020-06-23T11:22:14Z</time>
      </trkpt>
      <trkpt lat="51.05743" lon="2.47245">
        <ele>4.7</ele>
        <time>2020-06-23T11:22:15Z</time>
      </trkpt>
      <trkpt lat="51.05743" lon="2.47256">
        <ele>4.6</ele>
        <time>2020-06-23T11:22:16Z</time>
      </trkpt>
      <trkpt lat="51.05744" lon="2.47266">
        <ele>4.6</ele>
        <time>2020-06-23T11:22:17Z</time>
      </trkpt>
      <trkpt lat="51.05746" lon="2.47279">
        <ele>4.6</ele>
        <time>2020-06-23T11:22:18Z</time>
      </trkpt>
      <trkpt lat="51.05748" lon="2.47291">
        <ele>4.5</ele>
        <time>2020-06-23T11:22:19Z</time>
      </trkpt>
      <trkpt lat="51.05749" lon="2.47302">
        <ele>4.5</ele>
        <time>2020-06-23T11:22:20Z</time>
      </trkpt>
      <trkpt lat="51.05751" lon="2.47313">
        <ele>4.4</ele>
        <time>2020-06-23T11:22:21Z</time>
      </trkpt>
      <trkpt lat="51.05753" lon="2.47323">
        <ele>4.4</ele>
        <time>2020-06-23T11:22:22Z</time>
      </trkpt>
      <trkpt lat="51.05755" lon="2.47335">
        <ele>4.4</ele>
        <time>2020-06-23T11:22:23Z</time>
      </trkpt>
      <trkpt lat="51.05757" lon="2.47345">
        <ele>4.4</ele>
        <time>2020-06-23T11:22:24Z</time>
      </trkpt>
      <trkpt lat="51.05758" lon="2.47354">
        <ele>4.4</ele>
        <time>2020-06-23T11:22:25Z</time>
      </trkpt>
      <trkpt lat="51.0576" lon="2.47364">
        <ele>4.4</ele>
        <time>2020-06-23T11:22:26Z</time>
      </trkpt>
      <trkpt lat="51.05762" lon="2.47375">
        <ele>4.4</ele>
        <time>2020-06-23T11:22:27Z</time>
      </trkpt>
      <trkpt lat="51.05764" lon="2.47385">
        <ele>4.4</ele>
        <time>2020-06-23T11:22:28Z</time>
      </trkpt>
      <trkpt lat="51.05765" lon="2.47394">
        <ele>4.4</ele>
        <time>2020-06-23T11:22:29Z</time>
      </trkpt>
      <trkpt lat="51.05767" lon="2.47405">
        <ele>4.4</ele>
        <time>2020-06-23T11:22:30Z</time>
      </trkpt>
      <trkpt lat="51.05769" lon="2.47416">
        <ele>4.4</ele>
        <time>2020-06-23T11:22:31Z</time>
      </trkpt>
      <trkpt lat="51.05772" lon="2.47426">
        <ele>4.4</ele>
        <time>2020-06-23T11:22:32Z</time>
      </trkpt>
      <trkpt lat="51.05774" lon="2.47436">
        <ele>4.4</ele>
        <time>2020-06-23T11:22:33Z</time>
      </trkpt>
      <trkpt lat="51.05776" lon="2.47448">
        <ele>4.4</ele>
        <time>2020-06-23T11:22:34Z</time>
      </trkpt>
      <trkpt lat="51.05778" lon="2.47458">
        <ele>4.4</ele>
        <time>2020-06-23T11:22:35Z</time>
      </trkpt>
      <trkpt lat="51.05779" lon="2.47468">
        <ele>4.4</ele>
        <time>2020-06-23T11:22:36Z</time>
      </trkpt>
      <trkpt lat="51.05781" lon="2.47479">
        <ele>4.4</ele>
        <time>2020-06-23T11:22:37Z</time>
      </trkpt>
      <trkpt lat="51.05783" lon="2.47489">
        <ele>4.5</ele>
        <time>2020-06-23T11:22:38Z</time>
      </trkpt>
      <trkpt lat="51.05784" lon="2.47499">
        <ele>4.5</ele>
        <time>2020-06-23T11:22:39Z</time>
      </trkpt>
      <trkpt lat="51.05786" lon="2.47508">
        <ele>4.5</ele>
        <time>2020-06-23T11:22:40Z</time>
      </trkpt>
      <trkpt lat="51.05788" lon="2.47518">
        <ele>4.5</ele>
        <time>2020-06-23T11:22:41Z</time>
      </trkpt>
      <trkpt lat="51.0579" lon="2.47528">
        <ele>4.5</ele>
        <time>2020-06-23T11:22:42Z</time>
      </trkpt>
      <trkpt lat="51.05791" lon="2.47538">
        <ele>4.5</ele>
        <time>2020-06-23T11:22:43Z</time>
      </trkpt>
      <trkpt lat="51.05794" lon="2.47548">
        <ele>4.5</ele>
        <time>2020-06-23T11:22:44Z</time>
      </trkpt>
      <trkpt lat="51.05797" lon="2.47557">
        <ele>4.5</ele>
        <time>2020-06-23T11:22:45Z</time>
      </trkpt>
      <trkpt lat="51.05799" lon="2.47567">
        <ele>4.5</ele>
        <time>2020-06-23T11:22:46Z</time>
      </trkpt>
      <trkpt lat="51.058" lon="2.47577">
        <ele>4.5</ele>
        <time>2020-06-23T11:22:47Z</time>
      </trkpt>
      <trkpt lat="51.05802" lon="2.47588">
        <ele>4.5</ele>
        <time>2020-06-23T11:22:48Z</time>
      </trkpt>
      <trkpt lat="51.05804" lon="2.47597">
        <ele>4.5</ele>
        <time>2020-06-23T11:22:49Z</time>
      </trkpt>
      <trkpt lat="51.05807" lon="2.47607">
        <ele>4.5</ele>
        <time>2020-06-23T11:22:50Z</time>
      </trkpt>
      <trkpt lat="51.0581" lon="2.47618">
        <ele>4.5</ele>
        <time>2020-06-23T11:22:51Z</time>
      </trkpt>
      <trkpt lat="51.05813" lon="2.47628">
        <ele>4.4</ele>
        <time>2020-06-23T11:22:52Z</time>
      </trkpt>
      <trkpt lat="51.05815" lon="2.47638">
        <ele>4.4</ele>
        <time>2020-06-23T11:22:53Z</time>
      </trkpt>
      <trkpt lat="51.05817" lon="2.47649">
        <ele>4.5</ele>
        <time>2020-06-23T11:22:54Z</time>
      </trkpt>
      <trkpt lat="51.05819" lon="2.47658">
        <ele>4.5</ele>
        <time>2020-06-23T11:22:55Z</time>
      </trkpt>
      <trkpt lat="51.05822" lon="2.47667">
        <ele>4.5</ele>
        <time>2020-06-23T11:22:56Z</time>
      </trkpt>
      <trkpt lat="51.05824" lon="2.47677">
        <ele>4.5</ele>
        <time>2020-06-23T11:22:57Z</time>
      </trkpt>
      <trkpt lat="51.05826" lon="2.47686">
        <ele>4.5</ele>
        <time>2020-06-23T11:22:58Z</time>
      </trkpt>
      <trkpt lat="51.05829" lon="2.47695">
        <ele>4.5</ele>
        <time>2020-06-23T11:22:59Z</time>
      </trkpt>
      <trkpt lat="51.05831" lon="2.47705">
        <ele>4.6</ele>
        <time>2020-06-23T11:23:00Z</time>
      </trkpt>
      <trkpt lat="51.05833" lon="2.47714">
        <ele>4.6</ele>
        <time>2020-06-23T11:23:01Z</time>
      </trkpt>
      <trkpt lat="51.05835" lon="2.47722">
        <ele>4.7</ele>
        <time>2020-06-23T11:23:02Z</time>
      </trkpt>
      <trkpt lat="51.05838" lon="2.47731">
        <ele>4.8</ele>
        <time>2020-06-23T11:23:03Z</time>
      </trkpt>
      <trkpt lat="51.0584" lon="2.47741">
        <ele>4.8</ele>
        <time>2020-06-23T11:23:04Z</time>
      </trkpt>
      <trkpt lat="51.05844" lon="2.4775">
        <ele>4.8</ele>
        <time>2020-06-23T11:23:05Z</time>
      </trkpt>
      <trkpt lat="51.05847" lon="2.47759">
        <ele>4.8</ele>
        <time>2020-06-23T11:23:06Z</time>
      </trkpt>
      <trkpt lat="51.0585" lon="2.47767">
        <ele>4.8</ele>
        <time>2020-06-23T11:23:07Z</time>
      </trkpt>
      <trkpt lat="51.05854" lon="2.47774">
        <ele>4.9</ele>
        <time>2020-06-23T11:23:08Z</time>
      </trkpt>
      <trkpt lat="51.05857" lon="2.47783">
        <ele>4.9</ele>
        <time>2020-06-23T11:23:09Z</time>
      </trkpt>
      <trkpt lat="51.05861" lon="2.47792">
        <ele>4.9</ele>
        <time>2020-06-23T11:23:10Z</time>
      </trkpt>
      <trkpt lat="51.05865" lon="2.47801">
        <ele>4.9</ele>
        <time>2020-06-23T11:23:11Z</time>
      </trkpt>
      <trkpt lat="51.05869" lon="2.47809">
        <ele>4.9</ele>
        <time>2020-06-23T11:23:12Z</time>
      </trkpt>
      <trkpt lat="51.05874" lon="2.47818">
        <ele>4.9</ele>
        <time>2020-06-23T11:23:13Z</time>
      </trkpt>
      <trkpt lat="51.05878" lon="2.47826">
        <ele>4.9</ele>
        <time>2020-06-23T11:23:14Z</time>
      </trkpt>
      <trkpt lat="51.05882" lon="2.47835">
        <ele>4.9</ele>
        <time>2020-06-23T11:23:15Z</time>
      </trkpt>
      <trkpt lat="51.05886" lon="2.47843">
        <ele>4.9</ele>
        <time>2020-06-23T11:23:16Z</time>
      </trkpt>
      <trkpt lat="51.0589" lon="2.4785">
        <ele>4.9</ele>
        <time>2020-06-23T11:23:17Z</time>
      </trkpt>
      <trkpt lat="51.05894" lon="2.47857">
        <ele>4.9</ele>
        <time>2020-06-23T11:23:18Z</time>
      </trkpt>
      <trkpt lat="51.05899" lon="2.47864">
        <ele>5</ele>
        <time>2020-06-23T11:23:19Z</time>
      </trkpt>
      <trkpt lat="51.05903" lon="2.47871">
        <ele>5</ele>
        <time>2020-06-23T11:23:20Z</time>
      </trkpt>
      <trkpt lat="51.05906" lon="2.47879">
        <ele>5</ele>
        <time>2020-06-23T11:23:21Z</time>
      </trkpt>
      <trkpt lat="51.0591" lon="2.47887">
        <ele>5.1</ele>
        <time>2020-06-23T11:23:22Z</time>
      </trkpt>
      <trkpt lat="51.05914" lon="2.47894">
        <ele>5.1</ele>
        <time>2020-06-23T11:23:23Z</time>
      </trkpt>
      <trkpt lat="51.05918" lon="2.47902">
        <ele>5.1</ele>
        <time>2020-06-23T11:23:24Z</time>
      </trkpt>
      <trkpt lat="51.05922" lon="2.47911">
        <ele>5.1</ele>
        <time>2020-06-23T11:23:25Z</time>
      </trkpt>
      <trkpt lat="51.05926" lon="2.47919">
        <ele>5.1</ele>
        <time>2020-06-23T11:23:26Z</time>
      </trkpt>
      <trkpt lat="51.0593" lon="2.47929">
        <ele>5.1</ele>
        <time>2020-06-23T11:23:27Z</time>
      </trkpt>
      <trkpt lat="51.05935" lon="2.47937">
        <ele>5.1</ele>
        <time>2020-06-23T11:23:28Z</time>
      </trkpt>
      <trkpt lat="51.05939" lon="2.47945">
        <ele>5</ele>
        <time>2020-06-23T11:23:29Z</time>
      </trkpt>
      <trkpt lat="51.05943" lon="2.47953">
        <ele>5</ele>
        <time>2020-06-23T11:23:30Z</time>
      </trkpt>
      <trkpt lat="51.05946" lon="2.4796">
        <ele>5</ele>
        <time>2020-06-23T11:23:31Z</time>
      </trkpt>
      <trkpt lat="51.05949" lon="2.47969">
        <ele>5</ele>
        <time>2020-06-23T11:23:32Z</time>
      </trkpt>
      <trkpt lat="51.05952" lon="2.47978">
        <ele>5</ele>
        <time>2020-06-23T11:23:33Z</time>
      </trkpt>
      <trkpt lat="51.05955" lon="2.47985">
        <ele>5</ele>
        <time>2020-06-23T11:23:34Z</time>
      </trkpt>
      <trkpt lat="51.05958" lon="2.47993">
        <ele>4.9</ele>
        <time>2020-06-23T11:23:35Z</time>
      </trkpt>
      <trkpt lat="51.05961" lon="2.48001">
        <ele>4.9</ele>
        <time>2020-06-23T11:23:36Z</time>
      </trkpt>
      <trkpt lat="51.05965" lon="2.48011">
        <ele>4.9</ele>
        <time>2020-06-23T11:23:37Z</time>
      </trkpt>
      <trkpt lat="51.05969" lon="2.4802">
        <ele>4.9</ele>
        <time>2020-06-23T11:23:38Z</time>
      </trkpt>
      <trkpt lat="51.05972" lon="2.48031">
        <ele>4.9</ele>
        <time>2020-06-23T11:23:39Z</time>
      </trkpt>
      <trkpt lat="51.05975" lon="2.48041">
        <ele>4.9</ele>
        <time>2020-06-23T11:23:40Z</time>
      </trkpt>
      <trkpt lat="51.05978" lon="2.4805">
        <ele>4.9</ele>
        <time>2020-06-23T11:23:41Z</time>
      </trkpt>
      <trkpt lat="51.05981" lon="2.4806">
        <ele>5</ele>
        <time>2020-06-23T11:23:42Z</time>
      </trkpt>
      <trkpt lat="51.05984" lon="2.48071">
        <ele>5</ele>
        <time>2020-06-23T11:23:43Z</time>
      </trkpt>
      <trkpt lat="51.05986" lon="2.48081">
        <ele>5</ele>
        <time>2020-06-23T11:23:44Z</time>
      </trkpt>
      <trkpt lat="51.05988" lon="2.4809">
        <ele>5</ele>
        <time>2020-06-23T11:23:45Z</time>
      </trkpt>
      <trkpt lat="51.05991" lon="2.48098">
        <ele>5.1</ele>
        <time>2020-06-23T11:23:46Z</time>
      </trkpt>
      <trkpt lat="51.05993" lon="2.48106">
        <ele>5.1</ele>
        <time>2020-06-23T11:23:47Z</time>
      </trkpt>
      <trkpt lat="51.05996" lon="2.48114">
        <ele>5.1</ele>
        <time>2020-06-23T11:23:48Z</time>
      </trkpt>
      <trkpt lat="51.05998" lon="2.48122">
        <ele>5.1</ele>
        <time>2020-06-23T11:23:49Z</time>
      </trkpt>
      <trkpt lat="51.06001" lon="2.4813">
        <ele>5.1</ele>
        <time>2020-06-23T11:23:50Z</time>
      </trkpt>
      <trkpt lat="51.06005" lon="2.4814">
        <ele>5.1</ele>
        <time>2020-06-23T11:23:51Z</time>
      </trkpt>
      <trkpt lat="51.06008" lon="2.48148">
        <ele>5.1</ele>
        <time>2020-06-23T11:23:52Z</time>
      </trkpt>
      <trkpt lat="51.06011" lon="2.48157">
        <ele>5.1</ele>
        <time>2020-06-23T11:23:53Z</time>
      </trkpt>
      <trkpt lat="51.06015" lon="2.48166">
        <ele>5.1</ele>
        <time>2020-06-23T11:23:54Z</time>
      </trkpt>
      <trkpt lat="51.06019" lon="2.48174">
        <ele>5.2</ele>
        <time>2020-06-23T11:23:55Z</time>
      </trkpt>
      <trkpt lat="51.06023" lon="2.48183">
        <ele>5.3</ele>
        <time>2020-06-23T11:23:56Z</time>
      </trkpt>
      <trkpt lat="51.06026" lon="2.4819">
        <ele>5.2</ele>
        <time>2020-06-23T11:23:57Z</time>
      </trkpt>
      <trkpt lat="51.0603" lon="2.48198">
        <ele>5.2</ele>
        <time>2020-06-23T11:23:58Z</time>
      </trkpt>
      <trkpt lat="51.06033" lon="2.48205">
        <ele>5.2</ele>
        <time>2020-06-23T11:23:59Z</time>
      </trkpt>
      <trkpt lat="51.06037" lon="2.48213">
        <ele>5.2</ele>
        <time>2020-06-23T11:24:00Z</time>
      </trkpt>
      <trkpt lat="51.06041" lon="2.48221">
        <ele>5.2</ele>
        <time>2020-06-23T11:24:01Z</time>
      </trkpt>
      <trkpt lat="51.06044" lon="2.48229">
        <ele>5.2</ele>
        <time>2020-06-23T11:24:02Z</time>
      </trkpt>
      <trkpt lat="51.06048" lon="2.48237">
        <ele>5.2</ele>
        <time>2020-06-23T11:24:03Z</time>
      </trkpt>
      <trkpt lat="51.06052" lon="2.48244">
        <ele>5.3</ele>
        <time>2020-06-23T11:24:04Z</time>
      </trkpt>
      <trkpt lat="51.06055" lon="2.48251">
        <ele>5.3</ele>
        <time>2020-06-23T11:24:05Z</time>
      </trkpt>
      <trkpt lat="51.06059" lon="2.48258">
        <ele>5.4</ele>
        <time>2020-06-23T11:24:06Z</time>
      </trkpt>
      <trkpt lat="51.06063" lon="2.48266">
        <ele>5.4</ele>
        <time>2020-06-23T11:24:07Z</time>
      </trkpt>
      <trkpt lat="51.06067" lon="2.48274">
        <ele>5.4</ele>
        <time>2020-06-23T11:24:08Z</time>
      </trkpt>
      <trkpt lat="51.06071" lon="2.48281">
        <ele>5.5</ele>
        <time>2020-06-23T11:24:09Z</time>
      </trkpt>
      <trkpt lat="51.06074" lon="2.48289">
        <ele>5.5</ele>
        <time>2020-06-23T11:24:10Z</time>
      </trkpt>
      <trkpt lat="51.06078" lon="2.48297">
        <ele>5.5</ele>
        <time>2020-06-23T11:24:11Z</time>
      </trkpt>
      <trkpt lat="51.06082" lon="2.48305">
        <ele>5.6</ele>
        <time>2020-06-23T11:24:12Z</time>
      </trkpt>
      <trkpt lat="51.06085" lon="2.48312">
        <ele>5.6</ele>
        <time>2020-06-23T11:24:13Z</time>
      </trkpt>
      <trkpt lat="51.06089" lon="2.48319">
        <ele>5.7</ele>
        <time>2020-06-23T11:24:14Z</time>
      </trkpt>
      <trkpt lat="51.06093" lon="2.48327">
        <ele>5.7</ele>
        <time>2020-06-23T11:24:15Z</time>
      </trkpt>
      <trkpt lat="51.06097" lon="2.48335">
        <ele>5.8</ele>
        <time>2020-06-23T11:24:16Z</time>
      </trkpt>
      <trkpt lat="51.06102" lon="2.48345">
        <ele>5.9</ele>
        <time>2020-06-23T11:24:17Z</time>
      </trkpt>
      <trkpt lat="51.06106" lon="2.48352">
        <ele>5.9</ele>
        <time>2020-06-23T11:24:18Z</time>
      </trkpt>
      <trkpt lat="51.0611" lon="2.4836">
        <ele>5.8</ele>
        <time>2020-06-23T11:24:19Z</time>
      </trkpt>
      <trkpt lat="51.06114" lon="2.48366">
        <ele>5.8</ele>
        <time>2020-06-23T11:24:20Z</time>
      </trkpt>
      <trkpt lat="51.06118" lon="2.48374">
        <ele>5.8</ele>
        <time>2020-06-23T11:24:21Z</time>
      </trkpt>
      <trkpt lat="51.06121" lon="2.48382">
        <ele>5.8</ele>
        <time>2020-06-23T11:24:22Z</time>
      </trkpt>
      <trkpt lat="51.06125" lon="2.48391">
        <ele>5.8</ele>
        <time>2020-06-23T11:24:23Z</time>
      </trkpt>
      <trkpt lat="51.06129" lon="2.48397">
        <ele>5.8</ele>
        <time>2020-06-23T11:24:24Z</time>
      </trkpt>
      <trkpt lat="51.06132" lon="2.48404">
        <ele>5.9</ele>
        <time>2020-06-23T11:24:25Z</time>
      </trkpt>
      <trkpt lat="51.06135" lon="2.48409">
        <ele>5.9</ele>
        <time>2020-06-23T11:24:26Z</time>
      </trkpt>
      <trkpt lat="51.06139" lon="2.48417">
        <ele>5.9</ele>
        <time>2020-06-23T11:24:27Z</time>
      </trkpt>
      <trkpt lat="51.06143" lon="2.48425">
        <ele>5.9</ele>
        <time>2020-06-23T11:24:28Z</time>
      </trkpt>
      <trkpt lat="51.06147" lon="2.48433">
        <ele>5.8</ele>
        <time>2020-06-23T11:24:29Z</time>
      </trkpt>
      <trkpt lat="51.06151" lon="2.48439">
        <ele>5.8</ele>
        <time>2020-06-23T11:24:30Z</time>
      </trkpt>
      <trkpt lat="51.06153" lon="2.48446">
        <ele>5.8</ele>
        <time>2020-06-23T11:24:31Z</time>
      </trkpt>
      <trkpt lat="51.06157" lon="2.48453">
        <ele>5.8</ele>
        <time>2020-06-23T11:24:32Z</time>
      </trkpt>
      <trkpt lat="51.0616" lon="2.48461">
        <ele>5.8</ele>
        <time>2020-06-23T11:24:33Z</time>
      </trkpt>
      <trkpt lat="51.06163" lon="2.4847">
        <ele>5.8</ele>
        <time>2020-06-23T11:24:34Z</time>
      </trkpt>
      <trkpt lat="51.06166" lon="2.48478">
        <ele>5.8</ele>
        <time>2020-06-23T11:24:35Z</time>
      </trkpt>
      <trkpt lat="51.06169" lon="2.48485">
        <ele>5.7</ele>
        <time>2020-06-23T11:24:36Z</time>
      </trkpt>
      <trkpt lat="51.06172" lon="2.48494">
        <ele>5.7</ele>
        <time>2020-06-23T11:24:37Z</time>
      </trkpt>
      <trkpt lat="51.06175" lon="2.48503">
        <ele>5.7</ele>
        <time>2020-06-23T11:24:38Z</time>
      </trkpt>
      <trkpt lat="51.06179" lon="2.48513">
        <ele>5.7</ele>
        <time>2020-06-23T11:24:39Z</time>
      </trkpt>
      <trkpt lat="51.06182" lon="2.48523">
        <ele>5.6</ele>
        <time>2020-06-23T11:24:40Z</time>
      </trkpt>
      <trkpt lat="51.06185" lon="2.48532">
        <ele>5.6</ele>
        <time>2020-06-23T11:24:41Z</time>
      </trkpt>
      <trkpt lat="51.06187" lon="2.48541">
        <ele>5.5</ele>
        <time>2020-06-23T11:24:42Z</time>
      </trkpt>
      <trkpt lat="51.0619" lon="2.4855">
        <ele>5.5</ele>
        <time>2020-06-23T11:24:43Z</time>
      </trkpt>
      <trkpt lat="51.06194" lon="2.4856">
        <ele>5.4</ele>
        <time>2020-06-23T11:24:44Z</time>
      </trkpt>
      <trkpt lat="51.06197" lon="2.48569">
        <ele>5.3</ele>
        <time>2020-06-23T11:24:45Z</time>
      </trkpt>
      <trkpt lat="51.06201" lon="2.48579">
        <ele>5.3</ele>
        <time>2020-06-23T11:24:46Z</time>
      </trkpt>
      <trkpt lat="51.06203" lon="2.48588">
        <ele>5.2</ele>
        <time>2020-06-23T11:24:47Z</time>
      </trkpt>
      <trkpt lat="51.06207" lon="2.48597">
        <ele>5.2</ele>
        <time>2020-06-23T11:24:48Z</time>
      </trkpt>
      <trkpt lat="51.06209" lon="2.48605">
        <ele>5.1</ele>
        <time>2020-06-23T11:24:49Z</time>
      </trkpt>
      <trkpt lat="51.06212" lon="2.48613">
        <ele>5.1</ele>
        <time>2020-06-23T11:24:50Z</time>
      </trkpt>
      <trkpt lat="51.06216" lon="2.48622">
        <ele>5.1</ele>
        <time>2020-06-23T11:24:51Z</time>
      </trkpt>
      <trkpt lat="51.06219" lon="2.48632">
        <ele>5</ele>
        <time>2020-06-23T11:24:52Z</time>
      </trkpt>
      <trkpt lat="51.06222" lon="2.4864">
        <ele>5</ele>
        <time>2020-06-23T11:24:53Z</time>
      </trkpt>
      <trkpt lat="51.06224" lon="2.48651">
        <ele>5</ele>
        <time>2020-06-23T11:24:54Z</time>
      </trkpt>
      <trkpt lat="51.06227" lon="2.4866">
        <ele>5.1</ele>
        <time>2020-06-23T11:24:55Z</time>
      </trkpt>
      <trkpt lat="51.0623" lon="2.48668">
        <ele>5.1</ele>
        <time>2020-06-23T11:24:56Z</time>
      </trkpt>
      <trkpt lat="51.06233" lon="2.48676">
        <ele>5.2</ele>
        <time>2020-06-23T11:24:57Z</time>
      </trkpt>
      <trkpt lat="51.06237" lon="2.48683">
        <ele>5.2</ele>
        <time>2020-06-23T11:24:58Z</time>
      </trkpt>
      <trkpt lat="51.06241" lon="2.48689">
        <ele>5.3</ele>
        <time>2020-06-23T11:24:59Z</time>
      </trkpt>
      <trkpt lat="51.06245" lon="2.48695">
        <ele>5.4</ele>
        <time>2020-06-23T11:25:00Z</time>
      </trkpt>
      <trkpt lat="51.06249" lon="2.48701">
        <ele>5.3</ele>
        <time>2020-06-23T11:25:01Z</time>
      </trkpt>
      <trkpt lat="51.06253" lon="2.48708">
        <ele>5.3</ele>
        <time>2020-06-23T11:25:02Z</time>
      </trkpt>
      <trkpt lat="51.06257" lon="2.48715">
        <ele>5.2</ele>
        <time>2020-06-23T11:25:03Z</time>
      </trkpt>
      <trkpt lat="51.06261" lon="2.48721">
        <ele>5.2</ele>
        <time>2020-06-23T11:25:04Z</time>
      </trkpt>
      <trkpt lat="51.06266" lon="2.48727">
        <ele>5.2</ele>
        <time>2020-06-23T11:25:05Z</time>
      </trkpt>
      <trkpt lat="51.0627" lon="2.48732">
        <ele>5.2</ele>
        <time>2020-06-23T11:25:06Z</time>
      </trkpt>
      <trkpt lat="51.06276" lon="2.48737">
        <ele>5.2</ele>
        <time>2020-06-23T11:25:07Z</time>
      </trkpt>
      <trkpt lat="51.06282" lon="2.48743">
        <ele>5.2</ele>
        <time>2020-06-23T11:25:08Z</time>
      </trkpt>
      <trkpt lat="51.06287" lon="2.48749">
        <ele>5.2</ele>
        <time>2020-06-23T11:25:09Z</time>
      </trkpt>
      <trkpt lat="51.06293" lon="2.48755">
        <ele>5.2</ele>
        <time>2020-06-23T11:25:10Z</time>
      </trkpt>
      <trkpt lat="51.06297" lon="2.4876">
        <ele>5.2</ele>
        <time>2020-06-23T11:25:11Z</time>
      </trkpt>
      <trkpt lat="51.06302" lon="2.48765">
        <ele>5.2</ele>
        <time>2020-06-23T11:25:12Z</time>
      </trkpt>
      <trkpt lat="51.06306" lon="2.48771">
        <ele>5.2</ele>
        <time>2020-06-23T11:25:13Z</time>
      </trkpt>
      <trkpt lat="51.06312" lon="2.48777">
        <ele>5.2</ele>
        <time>2020-06-23T11:25:14Z</time>
      </trkpt>
      <trkpt lat="51.06316" lon="2.48783">
        <ele>5.2</ele>
        <time>2020-06-23T11:25:15Z</time>
      </trkpt>
      <trkpt lat="51.0632" lon="2.48789">
        <ele>5.1</ele>
        <time>2020-06-23T11:25:16Z</time>
      </trkpt>
      <trkpt lat="51.06324" lon="2.48797">
        <ele>5</ele>
        <time>2020-06-23T11:25:17Z</time>
      </trkpt>
      <trkpt lat="51.06327" lon="2.48804">
        <ele>4.9</ele>
        <time>2020-06-23T11:25:18Z</time>
      </trkpt>
      <trkpt lat="51.06331" lon="2.48812">
        <ele>4.8</ele>
        <time>2020-06-23T11:25:19Z</time>
      </trkpt>
      <trkpt lat="51.06335" lon="2.4882">
        <ele>4.7</ele>
        <time>2020-06-23T11:25:20Z</time>
      </trkpt>
      <trkpt lat="51.06338" lon="2.48827">
        <ele>4.6</ele>
        <time>2020-06-23T11:25:21Z</time>
      </trkpt>
      <trkpt lat="51.06342" lon="2.48835">
        <ele>4.5</ele>
        <time>2020-06-23T11:25:22Z</time>
      </trkpt>
      <trkpt lat="51.06347" lon="2.48844">
        <ele>4.4</ele>
        <time>2020-06-23T11:25:23Z</time>
      </trkpt>
      <trkpt lat="51.06351" lon="2.48853">
        <ele>4.2</ele>
        <time>2020-06-23T11:25:24Z</time>
      </trkpt>
      <trkpt lat="51.06355" lon="2.48862">
        <ele>4.1</ele>
        <time>2020-06-23T11:25:25Z</time>
      </trkpt>
      <trkpt lat="51.06359" lon="2.48872">
        <ele>4</ele>
        <time>2020-06-23T11:25:26Z</time>
      </trkpt>
      <trkpt lat="51.06363" lon="2.48881">
        <ele>3.9</ele>
        <time>2020-06-23T11:25:27Z</time>
      </trkpt>
      <trkpt lat="51.06368" lon="2.4889">
        <ele>3.9</ele>
        <time>2020-06-23T11:25:28Z</time>
      </trkpt>
      <trkpt lat="51.06372" lon="2.48899">
        <ele>3.8</ele>
        <time>2020-06-23T11:25:29Z</time>
      </trkpt>
      <trkpt lat="51.06376" lon="2.48908">
        <ele>3.7</ele>
        <time>2020-06-23T11:25:30Z</time>
      </trkpt>
      <trkpt lat="51.0638" lon="2.48917">
        <ele>3.7</ele>
        <time>2020-06-23T11:25:31Z</time>
      </trkpt>
      <trkpt lat="51.06385" lon="2.48925">
        <ele>3.7</ele>
        <time>2020-06-23T11:25:32Z</time>
      </trkpt>
      <trkpt lat="51.06388" lon="2.48934">
        <ele>3.7</ele>
        <time>2020-06-23T11:25:33Z</time>
      </trkpt>
      <trkpt lat="51.06391" lon="2.48943">
        <ele>3.8</ele>
        <time>2020-06-23T11:25:34Z</time>
      </trkpt>
      <trkpt lat="51.06395" lon="2.48951">
        <ele>3.8</ele>
        <time>2020-06-23T11:25:35Z</time>
      </trkpt>
      <trkpt lat="51.06398" lon="2.48959">
        <ele>3.9</ele>
        <time>2020-06-23T11:25:36Z</time>
      </trkpt>
      <trkpt lat="51.06401" lon="2.48965">
        <ele>4</ele>
        <time>2020-06-23T11:25:37Z</time>
      </trkpt>
      <trkpt lat="51.06404" lon="2.48971">
        <ele>4</ele>
        <time>2020-06-23T11:25:38Z</time>
      </trkpt>
      <trkpt lat="51.06408" lon="2.48978">
        <ele>4.1</ele>
        <time>2020-06-23T11:25:39Z</time>
      </trkpt>
      <trkpt lat="51.06411" lon="2.48985">
        <ele>4.2</ele>
        <time>2020-06-23T11:25:40Z</time>
      </trkpt>
      <trkpt lat="51.06413" lon="2.48992">
        <ele>4.2</ele>
        <time>2020-06-23T11:25:41Z</time>
      </trkpt>
      <trkpt lat="51.06416" lon="2.48997">
        <ele>4.3</ele>
        <time>2020-06-23T11:25:42Z</time>
      </trkpt>
      <trkpt lat="51.06419" lon="2.49002">
        <ele>4.1</ele>
        <time>2020-06-23T11:25:43Z</time>
      </trkpt>
      <trkpt lat="51.06422" lon="2.49007">
        <ele>4.1</ele>
        <time>2020-06-23T11:25:44Z</time>
      </trkpt>
      <trkpt lat="51.06425" lon="2.49011">
        <ele>4</ele>
        <time>2020-06-23T11:25:45Z</time>
      </trkpt>
      <trkpt lat="51.06428" lon="2.49016">
        <ele>3.9</ele>
        <time>2020-06-23T11:25:46Z</time>
      </trkpt>
      <trkpt lat="51.0643" lon="2.49021">
        <ele>3.8</ele>
        <time>2020-06-23T11:25:47Z</time>
      </trkpt>
      <trkpt lat="51.06433" lon="2.49027">
        <ele>3.8</ele>
        <time>2020-06-23T11:25:48Z</time>
      </trkpt>
      <trkpt lat="51.06436" lon="2.49032">
        <ele>3.7</ele>
        <time>2020-06-23T11:25:49Z</time>
      </trkpt>
      <trkpt lat="51.06438" lon="2.49037">
        <ele>3.6</ele>
        <time>2020-06-23T11:25:50Z</time>
      </trkpt>
      <trkpt lat="51.06441" lon="2.49042">
        <ele>3.6</ele>
        <time>2020-06-23T11:25:51Z</time>
      </trkpt>
      <trkpt lat="51.06444" lon="2.49048">
        <ele>3.5</ele>
        <time>2020-06-23T11:25:52Z</time>
      </trkpt>
      <trkpt lat="51.06447" lon="2.49054">
        <ele>3.5</ele>
        <time>2020-06-23T11:25:53Z</time>
      </trkpt>
      <trkpt lat="51.06449" lon="2.4906">
        <ele>3.4</ele>
        <time>2020-06-23T11:25:54Z</time>
      </trkpt>
      <trkpt lat="51.06452" lon="2.49066">
        <ele>3.4</ele>
        <time>2020-06-23T11:25:55Z</time>
      </trkpt>
      <trkpt lat="51.06455" lon="2.49073">
        <ele>3.3</ele>
        <time>2020-06-23T11:25:56Z</time>
      </trkpt>
      <trkpt lat="51.06459" lon="2.49079">
        <ele>3.3</ele>
        <time>2020-06-23T11:25:57Z</time>
      </trkpt>
      <trkpt lat="51.06462" lon="2.49085">
        <ele>3.3</ele>
        <time>2020-06-23T11:25:58Z</time>
      </trkpt>
      <trkpt lat="51.06466" lon="2.49092">
        <ele>3.2</ele>
        <time>2020-06-23T11:25:59Z</time>
      </trkpt>
      <trkpt lat="51.06469" lon="2.491">
        <ele>3.2</ele>
        <time>2020-06-23T11:26:00Z</time>
      </trkpt>
      <trkpt lat="51.06472" lon="2.49107">
        <ele>3.1</ele>
        <time>2020-06-23T11:26:01Z</time>
      </trkpt>
      <trkpt lat="51.06476" lon="2.49115">
        <ele>3.1</ele>
        <time>2020-06-23T11:26:02Z</time>
      </trkpt>
      <trkpt lat="51.06479" lon="2.49122">
        <ele>3.1</ele>
        <time>2020-06-23T11:26:03Z</time>
      </trkpt>
      <trkpt lat="51.06483" lon="2.49129">
        <ele>3.1</ele>
        <time>2020-06-23T11:26:04Z</time>
      </trkpt>
      <trkpt lat="51.06486" lon="2.49136">
        <ele>3.1</ele>
        <time>2020-06-23T11:26:05Z</time>
      </trkpt>
      <trkpt lat="51.0649" lon="2.49143">
        <ele>3.1</ele>
        <time>2020-06-23T11:26:06Z</time>
      </trkpt>
      <trkpt lat="51.06493" lon="2.4915">
        <ele>3</ele>
        <time>2020-06-23T11:26:07Z</time>
      </trkpt>
      <trkpt lat="51.06496" lon="2.49157">
        <ele>3</ele>
        <time>2020-06-23T11:26:08Z</time>
      </trkpt>
      <trkpt lat="51.06499" lon="2.49165">
        <ele>3</ele>
        <time>2020-06-23T11:26:09Z</time>
      </trkpt>
      <trkpt lat="51.06502" lon="2.49173">
        <ele>2.9</ele>
        <time>2020-06-23T11:26:10Z</time>
      </trkpt>
      <trkpt lat="51.06505" lon="2.49181">
        <ele>2.9</ele>
        <time>2020-06-23T11:26:11Z</time>
      </trkpt>
      <trkpt lat="51.06507" lon="2.49189">
        <ele>2.9</ele>
        <time>2020-06-23T11:26:12Z</time>
      </trkpt>
      <trkpt lat="51.0651" lon="2.49197">
        <ele>2.9</ele>
        <time>2020-06-23T11:26:13Z</time>
      </trkpt>
      <trkpt lat="51.06513" lon="2.49205">
        <ele>2.8</ele>
        <time>2020-06-23T11:26:14Z</time>
      </trkpt>
      <trkpt lat="51.06517" lon="2.49212">
        <ele>2.8</ele>
        <time>2020-06-23T11:26:15Z</time>
      </trkpt>
      <trkpt lat="51.0652" lon="2.4922">
        <ele>2.8</ele>
        <time>2020-06-23T11:26:16Z</time>
      </trkpt>
      <trkpt lat="51.06522" lon="2.49228">
        <ele>2.8</ele>
        <time>2020-06-23T11:26:17Z</time>
      </trkpt>
      <trkpt lat="51.06524" lon="2.49236">
        <ele>2.7</ele>
        <time>2020-06-23T11:26:18Z</time>
      </trkpt>
      <trkpt lat="51.06527" lon="2.49244">
        <ele>2.7</ele>
        <time>2020-06-23T11:26:19Z</time>
      </trkpt>
      <trkpt lat="51.0653" lon="2.49253">
        <ele>2.7</ele>
        <time>2020-06-23T11:26:20Z</time>
      </trkpt>
      <trkpt lat="51.06533" lon="2.49261">
        <ele>2.7</ele>
        <time>2020-06-23T11:26:21Z</time>
      </trkpt>
      <trkpt lat="51.06536" lon="2.49269">
        <ele>2.7</ele>
        <time>2020-06-23T11:26:22Z</time>
      </trkpt>
      <trkpt lat="51.06539" lon="2.49278">
        <ele>2.8</ele>
        <time>2020-06-23T11:26:23Z</time>
      </trkpt>
      <trkpt lat="51.06541" lon="2.49288">
        <ele>2.8</ele>
        <time>2020-06-23T11:26:24Z</time>
      </trkpt>
      <trkpt lat="51.06544" lon="2.49297">
        <ele>2.8</ele>
        <time>2020-06-23T11:26:25Z</time>
      </trkpt>
      <trkpt lat="51.06547" lon="2.49306">
        <ele>2.8</ele>
        <time>2020-06-23T11:26:26Z</time>
      </trkpt>
      <trkpt lat="51.0655" lon="2.49315">
        <ele>2.9</ele>
        <time>2020-06-23T11:26:27Z</time>
      </trkpt>
      <trkpt lat="51.06554" lon="2.49324">
        <ele>2.9</ele>
        <time>2020-06-23T11:26:28Z</time>
      </trkpt>
      <trkpt lat="51.06557" lon="2.49334">
        <ele>2.9</ele>
        <time>2020-06-23T11:26:29Z</time>
      </trkpt>
      <trkpt lat="51.06561" lon="2.49344">
        <ele>2.9</ele>
        <time>2020-06-23T11:26:30Z</time>
      </trkpt>
      <trkpt lat="51.06565" lon="2.49353">
        <ele>2.9</ele>
        <time>2020-06-23T11:26:31Z</time>
      </trkpt>
      <trkpt lat="51.06568" lon="2.49362">
        <ele>2.8</ele>
        <time>2020-06-23T11:26:32Z</time>
      </trkpt>
      <trkpt lat="51.06572" lon="2.49372">
        <ele>2.7</ele>
        <time>2020-06-23T11:26:33Z</time>
      </trkpt>
      <trkpt lat="51.06575" lon="2.49381">
        <ele>2.6</ele>
        <time>2020-06-23T11:26:34Z</time>
      </trkpt>
      <trkpt lat="51.06579" lon="2.4939">
        <ele>2.6</ele>
        <time>2020-06-23T11:26:35Z</time>
      </trkpt>
      <trkpt lat="51.06582" lon="2.49398">
        <ele>2.6</ele>
        <time>2020-06-23T11:26:36Z</time>
      </trkpt>
      <trkpt lat="51.06586" lon="2.49408">
        <ele>2.6</ele>
        <time>2020-06-23T11:26:37Z</time>
      </trkpt>
      <trkpt lat="51.06589" lon="2.49417">
        <ele>2.6</ele>
        <time>2020-06-23T11:26:38Z</time>
      </trkpt>
      <trkpt lat="51.06593" lon="2.49425">
        <ele>2.6</ele>
        <time>2020-06-23T11:26:39Z</time>
      </trkpt>
      <trkpt lat="51.06596" lon="2.49434">
        <ele>2.7</ele>
        <time>2020-06-23T11:26:40Z</time>
      </trkpt>
      <trkpt lat="51.06598" lon="2.49444">
        <ele>2.7</ele>
        <time>2020-06-23T11:26:41Z</time>
      </trkpt>
      <trkpt lat="51.066" lon="2.49455">
        <ele>2.7</ele>
        <time>2020-06-23T11:26:42Z</time>
      </trkpt>
      <trkpt lat="51.06602" lon="2.49465">
        <ele>2.7</ele>
        <time>2020-06-23T11:26:43Z</time>
      </trkpt>
      <trkpt lat="51.06603" lon="2.49475">
        <ele>2.7</ele>
        <time>2020-06-23T11:26:44Z</time>
      </trkpt>
      <trkpt lat="51.06605" lon="2.49484">
        <ele>2.7</ele>
        <time>2020-06-23T11:26:45Z</time>
      </trkpt>
      <trkpt lat="51.06606" lon="2.49494">
        <ele>2.8</ele>
        <time>2020-06-23T11:26:46Z</time>
      </trkpt>
      <trkpt lat="51.06607" lon="2.49504">
        <ele>2.8</ele>
        <time>2020-06-23T11:26:47Z</time>
      </trkpt>
      <trkpt lat="51.06609" lon="2.49514">
        <ele>2.8</ele>
        <time>2020-06-23T11:26:48Z</time>
      </trkpt>
      <trkpt lat="51.0661" lon="2.49524">
        <ele>2.8</ele>
        <time>2020-06-23T11:26:49Z</time>
      </trkpt>
      <trkpt lat="51.06611" lon="2.49533">
        <ele>2.8</ele>
        <time>2020-06-23T11:26:50Z</time>
      </trkpt>
      <trkpt lat="51.06612" lon="2.49541">
        <ele>2.8</ele>
        <time>2020-06-23T11:26:51Z</time>
      </trkpt>
      <trkpt lat="51.06613" lon="2.4955">
        <ele>2.8</ele>
        <time>2020-06-23T11:26:52Z</time>
      </trkpt>
      <trkpt lat="51.06615" lon="2.49561">
        <ele>2.9</ele>
        <time>2020-06-23T11:26:53Z</time>
      </trkpt>
      <trkpt lat="51.06616" lon="2.4957">
        <ele>2.9</ele>
        <time>2020-06-23T11:26:54Z</time>
      </trkpt>
      <trkpt lat="51.06617" lon="2.49579">
        <ele>3</ele>
        <time>2020-06-23T11:26:55Z</time>
      </trkpt>
      <trkpt lat="51.06618" lon="2.49589">
        <ele>3</ele>
        <time>2020-06-23T11:26:56Z</time>
      </trkpt>
      <trkpt lat="51.0662" lon="2.49599">
        <ele>3</ele>
        <time>2020-06-23T11:26:57Z</time>
      </trkpt>
      <trkpt lat="51.06621" lon="2.4961">
        <ele>3</ele>
        <time>2020-06-23T11:26:58Z</time>
      </trkpt>
      <trkpt lat="51.06622" lon="2.49619">
        <ele>3</ele>
        <time>2020-06-23T11:26:59Z</time>
      </trkpt>
      <trkpt lat="51.06623" lon="2.49627">
        <ele>3</ele>
        <time>2020-06-23T11:27:00Z</time>
      </trkpt>
      <trkpt lat="51.06624" lon="2.49637">
        <ele>3</ele>
        <time>2020-06-23T11:27:01Z</time>
      </trkpt>
      <trkpt lat="51.06625" lon="2.49646">
        <ele>3</ele>
        <time>2020-06-23T11:27:02Z</time>
      </trkpt>
      <trkpt lat="51.06627" lon="2.49656">
        <ele>3</ele>
        <time>2020-06-23T11:27:03Z</time>
      </trkpt>
      <trkpt lat="51.06628" lon="2.49666">
        <ele>2.9</ele>
        <time>2020-06-23T11:27:04Z</time>
      </trkpt>
      <trkpt lat="51.06629" lon="2.49677">
        <ele>2.9</ele>
        <time>2020-06-23T11:27:05Z</time>
      </trkpt>
      <trkpt lat="51.06631" lon="2.49687">
        <ele>3</ele>
        <time>2020-06-23T11:27:06Z</time>
      </trkpt>
      <trkpt lat="51.06632" lon="2.49697">
        <ele>3</ele>
        <time>2020-06-23T11:27:07Z</time>
      </trkpt>
      <trkpt lat="51.06635" lon="2.49708">
        <ele>3</ele>
        <time>2020-06-23T11:27:08Z</time>
      </trkpt>
      <trkpt lat="51.06637" lon="2.49718">
        <ele>2.9</ele>
        <time>2020-06-23T11:27:09Z</time>
      </trkpt>
      <trkpt lat="51.06638" lon="2.49728">
        <ele>2.8</ele>
        <time>2020-06-23T11:27:10Z</time>
      </trkpt>
      <trkpt lat="51.0664" lon="2.49738">
        <ele>2.8</ele>
        <time>2020-06-23T11:27:11Z</time>
      </trkpt>
      <trkpt lat="51.06641" lon="2.49749">
        <ele>2.8</ele>
        <time>2020-06-23T11:27:12Z</time>
      </trkpt>
      <trkpt lat="51.06643" lon="2.49758">
        <ele>2.8</ele>
        <time>2020-06-23T11:27:13Z</time>
      </trkpt>
      <trkpt lat="51.06645" lon="2.49768">
        <ele>2.8</ele>
        <time>2020-06-23T11:27:14Z</time>
      </trkpt>
      <trkpt lat="51.06646" lon="2.49778">
        <ele>2.9</ele>
        <time>2020-06-23T11:27:15Z</time>
      </trkpt>
      <trkpt lat="51.06648" lon="2.49787">
        <ele>2.9</ele>
        <time>2020-06-23T11:27:16Z</time>
      </trkpt>
      <trkpt lat="51.06649" lon="2.49798">
        <ele>2.9</ele>
        <time>2020-06-23T11:27:17Z</time>
      </trkpt>
      <trkpt lat="51.06651" lon="2.49808">
        <ele>2.9</ele>
        <time>2020-06-23T11:27:18Z</time>
      </trkpt>
      <trkpt lat="51.06652" lon="2.49818">
        <ele>3</ele>
        <time>2020-06-23T11:27:19Z</time>
      </trkpt>
      <trkpt lat="51.06654" lon="2.49828">
        <ele>3</ele>
        <time>2020-06-23T11:27:20Z</time>
      </trkpt>
      <trkpt lat="51.06655" lon="2.49839">
        <ele>3</ele>
        <time>2020-06-23T11:27:21Z</time>
      </trkpt>
      <trkpt lat="51.06656" lon="2.49849">
        <ele>3</ele>
        <time>2020-06-23T11:27:22Z</time>
      </trkpt>
      <trkpt lat="51.06658" lon="2.49859">
        <ele>2.9</ele>
        <time>2020-06-23T11:27:23Z</time>
      </trkpt>
      <trkpt lat="51.06659" lon="2.49869">
        <ele>2.9</ele>
        <time>2020-06-23T11:27:24Z</time>
      </trkpt>
      <trkpt lat="51.06661" lon="2.4988">
        <ele>2.9</ele>
        <time>2020-06-23T11:27:25Z</time>
      </trkpt>
      <trkpt lat="51.06662" lon="2.49889">
        <ele>2.9</ele>
        <time>2020-06-23T11:27:26Z</time>
      </trkpt>
      <trkpt lat="51.06663" lon="2.49899">
        <ele>2.9</ele>
        <time>2020-06-23T11:27:27Z</time>
      </trkpt>
      <trkpt lat="51.06665" lon="2.4991">
        <ele>2.9</ele>
        <time>2020-06-23T11:27:28Z</time>
      </trkpt>
      <trkpt lat="51.06666" lon="2.4992">
        <ele>2.9</ele>
        <time>2020-06-23T11:27:29Z</time>
      </trkpt>
      <trkpt lat="51.06668" lon="2.49931">
        <ele>2.9</ele>
        <time>2020-06-23T11:27:30Z</time>
      </trkpt>
      <trkpt lat="51.06669" lon="2.49941">
        <ele>2.9</ele>
        <time>2020-06-23T11:27:31Z</time>
      </trkpt>
      <trkpt lat="51.0667" lon="2.49952">
        <ele>2.9</ele>
        <time>2020-06-23T11:27:32Z</time>
      </trkpt>
      <trkpt lat="51.06672" lon="2.49962">
        <ele>2.8</ele>
        <time>2020-06-23T11:27:33Z</time>
      </trkpt>
      <trkpt lat="51.06673" lon="2.49972">
        <ele>2.8</ele>
        <time>2020-06-23T11:27:34Z</time>
      </trkpt>
      <trkpt lat="51.06674" lon="2.49981">
        <ele>2.9</ele>
        <time>2020-06-23T11:27:35Z</time>
      </trkpt>
      <trkpt lat="51.06676" lon="2.49992">
        <ele>2.9</ele>
        <time>2020-06-23T11:27:36Z</time>
      </trkpt>
      <trkpt lat="51.06678" lon="2.50003">
        <ele>2.9</ele>
        <time>2020-06-23T11:27:37Z</time>
      </trkpt>
      <trkpt lat="51.0668" lon="2.50014">
        <ele>2.9</ele>
        <time>2020-06-23T11:27:38Z</time>
      </trkpt>
      <trkpt lat="51.06682" lon="2.50026">
        <ele>3</ele>
        <time>2020-06-23T11:27:39Z</time>
      </trkpt>
      <trkpt lat="51.06683" lon="2.50036">
        <ele>3</ele>
        <time>2020-06-23T11:27:40Z</time>
      </trkpt>
      <trkpt lat="51.06685" lon="2.50046">
        <ele>3</ele>
        <time>2020-06-23T11:27:41Z</time>
      </trkpt>
      <trkpt lat="51.06686" lon="2.50056">
        <ele>3</ele>
        <time>2020-06-23T11:27:42Z</time>
      </trkpt>
      <trkpt lat="51.06687" lon="2.50066">
        <ele>3.1</ele>
        <time>2020-06-23T11:27:43Z</time>
      </trkpt>
      <trkpt lat="51.06689" lon="2.50076">
        <ele>3.1</ele>
        <time>2020-06-23T11:27:44Z</time>
      </trkpt>
      <trkpt lat="51.0669" lon="2.50086">
        <ele>3.1</ele>
        <time>2020-06-23T11:27:45Z</time>
      </trkpt>
      <trkpt lat="51.06692" lon="2.50097">
        <ele>3.2</ele>
        <time>2020-06-23T11:27:46Z</time>
      </trkpt>
      <trkpt lat="51.06693" lon="2.50107">
        <ele>3.2</ele>
        <time>2020-06-23T11:27:47Z</time>
      </trkpt>
      <trkpt lat="51.06693" lon="2.50117">
        <ele>3.2</ele>
        <time>2020-06-23T11:27:48Z</time>
      </trkpt>
      <trkpt lat="51.06695" lon="2.50127">
        <ele>3.2</ele>
        <time>2020-06-23T11:27:49Z</time>
      </trkpt>
      <trkpt lat="51.06696" lon="2.50137">
        <ele>3.2</ele>
        <time>2020-06-23T11:27:50Z</time>
      </trkpt>
      <trkpt lat="51.06698" lon="2.50147">
        <ele>3.3</ele>
        <time>2020-06-23T11:27:51Z</time>
      </trkpt>
      <trkpt lat="51.067" lon="2.50156">
        <ele>3.3</ele>
        <time>2020-06-23T11:27:52Z</time>
      </trkpt>
      <trkpt lat="51.06701" lon="2.50166">
        <ele>3.3</ele>
        <time>2020-06-23T11:27:53Z</time>
      </trkpt>
      <trkpt lat="51.06702" lon="2.50176">
        <ele>3.4</ele>
        <time>2020-06-23T11:27:54Z</time>
      </trkpt>
      <trkpt lat="51.06703" lon="2.50185">
        <ele>3.4</ele>
        <time>2020-06-23T11:27:55Z</time>
      </trkpt>
      <trkpt lat="51.06705" lon="2.50194">
        <ele>3.5</ele>
        <time>2020-06-23T11:27:56Z</time>
      </trkpt>
      <trkpt lat="51.06707" lon="2.50203">
        <ele>3.5</ele>
        <time>2020-06-23T11:27:57Z</time>
      </trkpt>
      <trkpt lat="51.06709" lon="2.50211">
        <ele>3.5</ele>
        <time>2020-06-23T11:27:58Z</time>
      </trkpt>
      <trkpt lat="51.0671" lon="2.50219">
        <ele>3.5</ele>
        <time>2020-06-23T11:27:59Z</time>
      </trkpt>
      <trkpt lat="51.06713" lon="2.50227">
        <ele>3.5</ele>
        <time>2020-06-23T11:28:00Z</time>
      </trkpt>
      <trkpt lat="51.06715" lon="2.50235">
        <ele>3.5</ele>
        <time>2020-06-23T11:28:01Z</time>
      </trkpt>
      <trkpt lat="51.06716" lon="2.50244">
        <ele>3.5</ele>
        <time>2020-06-23T11:28:02Z</time>
      </trkpt>
      <trkpt lat="51.06717" lon="2.50253">
        <ele>3.5</ele>
        <time>2020-06-23T11:28:03Z</time>
      </trkpt>
      <trkpt lat="51.06717" lon="2.50261">
        <ele>3.5</ele>
        <time>2020-06-23T11:28:04Z</time>
      </trkpt>
      <trkpt lat="51.06718" lon="2.5027">
        <ele>3.6</ele>
        <time>2020-06-23T11:28:05Z</time>
      </trkpt>
      <trkpt lat="51.06719" lon="2.50279">
        <ele>3.6</ele>
        <time>2020-06-23T11:28:06Z</time>
      </trkpt>
      <trkpt lat="51.0672" lon="2.50288">
        <ele>3.6</ele>
        <time>2020-06-23T11:28:07Z</time>
      </trkpt>
      <trkpt lat="51.06722" lon="2.50297">
        <ele>3.6</ele>
        <time>2020-06-23T11:28:08Z</time>
      </trkpt>
      <trkpt lat="51.06725" lon="2.50305">
        <ele>3.5</ele>
        <time>2020-06-23T11:28:09Z</time>
      </trkpt>
      <trkpt lat="51.06727" lon="2.50314">
        <ele>3.5</ele>
        <time>2020-06-23T11:28:10Z</time>
      </trkpt>
      <trkpt lat="51.06729" lon="2.50322">
        <ele>3.5</ele>
        <time>2020-06-23T11:28:11Z</time>
      </trkpt>
      <trkpt lat="51.06731" lon="2.50331">
        <ele>3.4</ele>
        <time>2020-06-23T11:28:12Z</time>
      </trkpt>
      <trkpt lat="51.06732" lon="2.5034">
        <ele>3.4</ele>
        <time>2020-06-23T11:28:13Z</time>
      </trkpt>
      <trkpt lat="51.06734" lon="2.50349">
        <ele>3.4</ele>
        <time>2020-06-23T11:28:14Z</time>
      </trkpt>
      <trkpt lat="51.06736" lon="2.50358">
        <ele>3.4</ele>
        <time>2020-06-23T11:28:15Z</time>
      </trkpt>
      <trkpt lat="51.06736" lon="2.50368">
        <ele>3.3</ele>
        <time>2020-06-23T11:28:16Z</time>
      </trkpt>
      <trkpt lat="51.06737" lon="2.50379">
        <ele>3.3</ele>
        <time>2020-06-23T11:28:17Z</time>
      </trkpt>
      <trkpt lat="51.06739" lon="2.50389">
        <ele>3.3</ele>
        <time>2020-06-23T11:28:18Z</time>
      </trkpt>
      <trkpt lat="51.06741" lon="2.504">
        <ele>3.4</ele>
        <time>2020-06-23T11:28:19Z</time>
      </trkpt>
      <trkpt lat="51.06743" lon="2.5041">
        <ele>3.4</ele>
        <time>2020-06-23T11:28:20Z</time>
      </trkpt>
      <trkpt lat="51.06746" lon="2.5042">
        <ele>3.4</ele>
        <time>2020-06-23T11:28:21Z</time>
      </trkpt>
      <trkpt lat="51.06748" lon="2.5043">
        <ele>3.4</ele>
        <time>2020-06-23T11:28:22Z</time>
      </trkpt>
      <trkpt lat="51.06751" lon="2.50439">
        <ele>3.5</ele>
        <time>2020-06-23T11:28:23Z</time>
      </trkpt>
      <trkpt lat="51.06753" lon="2.50449">
        <ele>3.5</ele>
        <time>2020-06-23T11:28:24Z</time>
      </trkpt>
      <trkpt lat="51.06755" lon="2.50458">
        <ele>3.5</ele>
        <time>2020-06-23T11:28:25Z</time>
      </trkpt>
      <trkpt lat="51.06756" lon="2.50466">
        <ele>3.5</ele>
        <time>2020-06-23T11:28:26Z</time>
      </trkpt>
      <trkpt lat="51.06758" lon="2.50474">
        <ele>3.5</ele>
        <time>2020-06-23T11:28:27Z</time>
      </trkpt>
      <trkpt lat="51.06759" lon="2.50482">
        <ele>3.6</ele>
        <time>2020-06-23T11:28:28Z</time>
      </trkpt>
      <trkpt lat="51.06759" lon="2.50488">
        <ele>3.6</ele>
        <time>2020-06-23T11:28:29Z</time>
      </trkpt>
      <trkpt lat="51.06761" lon="2.50493">
        <ele>3.6</ele>
        <time>2020-06-23T11:28:30Z</time>
      </trkpt>
      <trkpt lat="51.06762" lon="2.50498">
        <ele>3.6</ele>
        <time>2020-06-23T11:28:31Z</time>
      </trkpt>
      <trkpt lat="51.06763" lon="2.505">
        <ele>3.6</ele>
        <time>2020-06-23T11:28:32Z</time>
      </trkpt>
      <trkpt lat="51.06762" lon="2.50499">
        <ele>3.6</ele>
        <time>2020-06-23T11:28:33Z</time>
      </trkpt>
      <trkpt lat="51.06762" lon="2.50499">
        <ele>3.6</ele>
        <time>2020-06-23T11:28:34Z</time>
      </trkpt>
      <trkpt lat="51.06762" lon="2.505">
        <ele>3.6</ele>
        <time>2020-06-23T11:28:35Z</time>
      </trkpt>
      <trkpt lat="51.06762" lon="2.505">
        <ele>3.6</ele>
        <time>2020-06-23T11:28:36Z</time>
      </trkpt>
      <trkpt lat="51.06763" lon="2.50501">
        <ele>3.6</ele>
        <time>2020-06-23T11:28:37Z</time>
      </trkpt>
      <trkpt lat="51.06762" lon="2.50502">
        <ele>3.6</ele>
        <time>2020-06-23T11:28:38Z</time>
      </trkpt>
      <trkpt lat="51.06761" lon="2.50503">
        <ele>3.6</ele>
        <time>2020-06-23T11:28:39Z</time>
      </trkpt>
      <trkpt lat="51.06761" lon="2.50503">
        <ele>3.6</ele>
        <time>2020-06-23T11:28:40Z</time>
      </trkpt>
      <trkpt lat="51.0676" lon="2.50505">
        <ele>3.6</ele>
        <time>2020-06-23T11:28:41Z</time>
      </trkpt>
      <trkpt lat="51.06761" lon="2.50506">
        <ele>3.6</ele>
        <time>2020-06-23T11:28:42Z</time>
      </trkpt>
      <trkpt lat="51.06761" lon="2.50507">
        <ele>3.6</ele>
        <time>2020-06-23T11:28:43Z</time>
      </trkpt>
      <trkpt lat="51.06761" lon="2.50508">
        <ele>3.6</ele>
        <time>2020-06-23T11:28:44Z</time>
      </trkpt>
      <trkpt lat="51.06761" lon="2.5051">
        <ele>3.6</ele>
        <time>2020-06-23T11:28:45Z</time>
      </trkpt>
      <trkpt lat="51.06761" lon="2.50511">
        <ele>3.6</ele>
        <time>2020-06-23T11:28:46Z</time>
      </trkpt>
      <trkpt lat="51.06761" lon="2.50512">
        <ele>3.6</ele>
        <time>2020-06-23T11:28:47Z</time>
      </trkpt>
      <trkpt lat="51.06761" lon="2.50513">
        <ele>3.6</ele>
        <time>2020-06-23T11:28:48Z</time>
      </trkpt>
      <trkpt lat="51.06761" lon="2.50514">
        <ele>3.6</ele>
        <time>2020-06-23T11:28:49Z</time>
      </trkpt>
      <trkpt lat="51.06762" lon="2.50516">
        <ele>3.6</ele>
        <time>2020-06-23T11:28:50Z</time>
      </trkpt>
      <trkpt lat="51.06762" lon="2.50517">
        <ele>3.6</ele>
        <time>2020-06-23T11:30:36Z</time>
      </trkpt>
      <trkpt lat="51.06762" lon="2.50518">
        <ele>3.6</ele>
        <time>2020-06-23T11:30:37Z</time>
      </trkpt>
      <trkpt lat="51.06764" lon="2.50523">
        <ele>3.6</ele>
        <time>2020-06-23T11:30:38Z</time>
      </trkpt>
      <trkpt lat="51.06764" lon="2.50525">
        <ele>3.6</ele>
        <time>2020-06-23T11:30:39Z</time>
      </trkpt>
      <trkpt lat="51.06765" lon="2.50529">
        <ele>3.6</ele>
        <time>2020-06-23T11:30:40Z</time>
      </trkpt>
      <trkpt lat="51.06767" lon="2.50534">
        <ele>3.6</ele>
        <time>2020-06-23T11:30:41Z</time>
      </trkpt>
      <trkpt lat="51.06769" lon="2.50538">
        <ele>3.6</ele>
        <time>2020-06-23T11:30:42Z</time>
      </trkpt>
      <trkpt lat="51.06771" lon="2.50544">
        <ele>3.6</ele>
        <time>2020-06-23T11:30:43Z</time>
      </trkpt>
      <trkpt lat="51.06772" lon="2.5055">
        <ele>3.6</ele>
        <time>2020-06-23T11:30:44Z</time>
      </trkpt>
      <trkpt lat="51.06774" lon="2.50557">
        <ele>3.6</ele>
        <time>2020-06-23T11:30:45Z</time>
      </trkpt>
      <trkpt lat="51.06775" lon="2.50563">
        <ele>3.6</ele>
        <time>2020-06-23T11:30:46Z</time>
      </trkpt>
      <trkpt lat="51.06777" lon="2.5057">
        <ele>3.6</ele>
        <time>2020-06-23T11:30:47Z</time>
      </trkpt>
      <trkpt lat="51.06779" lon="2.50578">
        <ele>3.6</ele>
        <time>2020-06-23T11:30:48Z</time>
      </trkpt>
      <trkpt lat="51.0678" lon="2.50585">
        <ele>3.7</ele>
        <time>2020-06-23T11:30:49Z</time>
      </trkpt>
      <trkpt lat="51.06782" lon="2.50593">
        <ele>3.7</ele>
        <time>2020-06-23T11:30:50Z</time>
      </trkpt>
      <trkpt lat="51.06785" lon="2.506">
        <ele>3.6</ele>
        <time>2020-06-23T11:30:51Z</time>
      </trkpt>
      <trkpt lat="51.06787" lon="2.50608">
        <ele>3.6</ele>
        <time>2020-06-23T11:30:52Z</time>
      </trkpt>
      <trkpt lat="51.0679" lon="2.50615">
        <ele>3.6</ele>
        <time>2020-06-23T11:30:53Z</time>
      </trkpt>
      <trkpt lat="51.06792" lon="2.50622">
        <ele>3.7</ele>
        <time>2020-06-23T11:30:54Z</time>
      </trkpt>
      <trkpt lat="51.06794" lon="2.50629">
        <ele>3.8</ele>
        <time>2020-06-23T11:30:55Z</time>
      </trkpt>
      <trkpt lat="51.06796" lon="2.50636">
        <ele>3.8</ele>
        <time>2020-06-23T11:30:56Z</time>
      </trkpt>
      <trkpt lat="51.06798" lon="2.50644">
        <ele>3.9</ele>
        <time>2020-06-23T11:30:57Z</time>
      </trkpt>
      <trkpt lat="51.068" lon="2.50651">
        <ele>3.9</ele>
        <time>2020-06-23T11:30:58Z</time>
      </trkpt>
      <trkpt lat="51.06803" lon="2.50659">
        <ele>4</ele>
        <time>2020-06-23T11:30:59Z</time>
      </trkpt>
      <trkpt lat="51.06806" lon="2.50667">
        <ele>4</ele>
        <time>2020-06-23T11:31:00Z</time>
      </trkpt>
      <trkpt lat="51.06809" lon="2.50675">
        <ele>4.1</ele>
        <time>2020-06-23T11:31:01Z</time>
      </trkpt>
      <trkpt lat="51.06811" lon="2.50683">
        <ele>4.1</ele>
        <time>2020-06-23T11:31:02Z</time>
      </trkpt>
      <trkpt lat="51.06813" lon="2.5069">
        <ele>4.2</ele>
        <time>2020-06-23T11:31:03Z</time>
      </trkpt>
      <trkpt lat="51.06815" lon="2.50698">
        <ele>4.2</ele>
        <time>2020-06-23T11:31:04Z</time>
      </trkpt>
      <trkpt lat="51.06817" lon="2.50705">
        <ele>4.3</ele>
        <time>2020-06-23T11:31:05Z</time>
      </trkpt>
      <trkpt lat="51.0682" lon="2.50712">
        <ele>4.3</ele>
        <time>2020-06-23T11:31:06Z</time>
      </trkpt>
      <trkpt lat="51.06821" lon="2.50719">
        <ele>4.4</ele>
        <time>2020-06-23T11:31:07Z</time>
      </trkpt>
      <trkpt lat="51.06824" lon="2.50727">
        <ele>4.4</ele>
        <time>2020-06-23T11:31:08Z</time>
      </trkpt>
      <trkpt lat="51.06826" lon="2.50734">
        <ele>4.5</ele>
        <time>2020-06-23T11:31:09Z</time>
      </trkpt>
      <trkpt lat="51.06828" lon="2.5074">
        <ele>4.5</ele>
        <time>2020-06-23T11:31:10Z</time>
      </trkpt>
      <trkpt lat="51.0683" lon="2.50746">
        <ele>4.5</ele>
        <time>2020-06-23T11:31:11Z</time>
      </trkpt>
      <trkpt lat="51.06832" lon="2.50754">
        <ele>4.6</ele>
        <time>2020-06-23T11:31:12Z</time>
      </trkpt>
      <trkpt lat="51.06835" lon="2.5076">
        <ele>4.6</ele>
        <time>2020-06-23T11:31:13Z</time>
      </trkpt>
      <trkpt lat="51.06837" lon="2.50766">
        <ele>4.7</ele>
        <time>2020-06-23T11:31:14Z</time>
      </trkpt>
      <trkpt lat="51.06839" lon="2.50773">
        <ele>4.7</ele>
        <time>2020-06-23T11:31:15Z</time>
      </trkpt>
      <trkpt lat="51.06841" lon="2.5078">
        <ele>4.8</ele>
        <time>2020-06-23T11:31:16Z</time>
      </trkpt>
      <trkpt lat="51.06843" lon="2.50788">
        <ele>4.9</ele>
        <time>2020-06-23T11:31:17Z</time>
      </trkpt>
      <trkpt lat="51.06846" lon="2.50795">
        <ele>4.9</ele>
        <time>2020-06-23T11:31:18Z</time>
      </trkpt>
      <trkpt lat="51.06848" lon="2.50803">
        <ele>5</ele>
        <time>2020-06-23T11:31:19Z</time>
      </trkpt>
      <trkpt lat="51.0685" lon="2.50811">
        <ele>5.1</ele>
        <time>2020-06-23T11:31:20Z</time>
      </trkpt>
      <trkpt lat="51.06852" lon="2.50819">
        <ele>5.2</ele>
        <time>2020-06-23T11:31:21Z</time>
      </trkpt>
      <trkpt lat="51.06854" lon="2.50827">
        <ele>5.2</ele>
        <time>2020-06-23T11:31:22Z</time>
      </trkpt>
      <trkpt lat="51.06856" lon="2.50832">
        <ele>5.3</ele>
        <time>2020-06-23T11:31:23Z</time>
      </trkpt>
      <trkpt lat="51.06858" lon="2.50838">
        <ele>5.3</ele>
        <time>2020-06-23T11:31:24Z</time>
      </trkpt>
      <trkpt lat="51.06861" lon="2.50843">
        <ele>5.4</ele>
        <time>2020-06-23T11:31:25Z</time>
      </trkpt>
      <trkpt lat="51.06863" lon="2.50849">
        <ele>5.4</ele>
        <time>2020-06-23T11:31:26Z</time>
      </trkpt>
      <trkpt lat="51.06865" lon="2.50856">
        <ele>5.4</ele>
        <time>2020-06-23T11:31:27Z</time>
      </trkpt>
      <trkpt lat="51.06866" lon="2.50861">
        <ele>5.5</ele>
        <time>2020-06-23T11:31:28Z</time>
      </trkpt>
      <trkpt lat="51.06869" lon="2.50868">
        <ele>5.6</ele>
        <time>2020-06-23T11:31:29Z</time>
      </trkpt>
      <trkpt lat="51.06871" lon="2.50875">
        <ele>5.6</ele>
        <time>2020-06-23T11:31:30Z</time>
      </trkpt>
      <trkpt lat="51.06873" lon="2.50882">
        <ele>5.6</ele>
        <time>2020-06-23T11:31:31Z</time>
      </trkpt>
      <trkpt lat="51.06876" lon="2.50887">
        <ele>5.7</ele>
        <time>2020-06-23T11:31:32Z</time>
      </trkpt>
      <trkpt lat="51.06878" lon="2.50894">
        <ele>5.7</ele>
        <time>2020-06-23T11:31:33Z</time>
      </trkpt>
      <trkpt lat="51.0688" lon="2.50901">
        <ele>5.8</ele>
        <time>2020-06-23T11:31:34Z</time>
      </trkpt>
      <trkpt lat="51.06883" lon="2.50908">
        <ele>5.8</ele>
        <time>2020-06-23T11:31:35Z</time>
      </trkpt>
      <trkpt lat="51.06886" lon="2.50915">
        <ele>5.9</ele>
        <time>2020-06-23T11:31:36Z</time>
      </trkpt>
      <trkpt lat="51.06888" lon="2.50921">
        <ele>5.9</ele>
        <time>2020-06-23T11:31:37Z</time>
      </trkpt>
      <trkpt lat="51.0689" lon="2.50929">
        <ele>6</ele>
        <time>2020-06-23T11:31:38Z</time>
      </trkpt>
      <trkpt lat="51.06892" lon="2.50935">
        <ele>6</ele>
        <time>2020-06-23T11:31:39Z</time>
      </trkpt>
      <trkpt lat="51.06894" lon="2.5094">
        <ele>6</ele>
        <time>2020-06-23T11:31:40Z</time>
      </trkpt>
      <trkpt lat="51.06897" lon="2.50948">
        <ele>6.1</ele>
        <time>2020-06-23T11:31:41Z</time>
      </trkpt>
      <trkpt lat="51.06899" lon="2.50955">
        <ele>6.1</ele>
        <time>2020-06-23T11:31:42Z</time>
      </trkpt>
      <trkpt lat="51.06901" lon="2.50961">
        <ele>6.2</ele>
        <time>2020-06-23T11:31:43Z</time>
      </trkpt>
      <trkpt lat="51.06904" lon="2.50967">
        <ele>6.2</ele>
        <time>2020-06-23T11:31:44Z</time>
      </trkpt>
      <trkpt lat="51.06906" lon="2.50974">
        <ele>6.2</ele>
        <time>2020-06-23T11:31:45Z</time>
      </trkpt>
      <trkpt lat="51.06909" lon="2.50982">
        <ele>6.2</ele>
        <time>2020-06-23T11:31:46Z</time>
      </trkpt>
      <trkpt lat="51.0691" lon="2.50989">
        <ele>6.2</ele>
        <time>2020-06-23T11:31:47Z</time>
      </trkpt>
      <trkpt lat="51.06913" lon="2.50997">
        <ele>6.2</ele>
        <time>2020-06-23T11:31:48Z</time>
      </trkpt>
      <trkpt lat="51.06915" lon="2.51002">
        <ele>6.2</ele>
        <time>2020-06-23T11:31:49Z</time>
      </trkpt>
      <trkpt lat="51.06917" lon="2.51009">
        <ele>6.2</ele>
        <time>2020-06-23T11:31:50Z</time>
      </trkpt>
      <trkpt lat="51.06919" lon="2.51017">
        <ele>6.2</ele>
        <time>2020-06-23T11:31:51Z</time>
      </trkpt>
      <trkpt lat="51.06921" lon="2.51024">
        <ele>6.2</ele>
        <time>2020-06-23T11:31:52Z</time>
      </trkpt>
      <trkpt lat="51.06924" lon="2.51032">
        <ele>6.1</ele>
        <time>2020-06-23T11:31:53Z</time>
      </trkpt>
      <trkpt lat="51.06926" lon="2.5104">
        <ele>6.1</ele>
        <time>2020-06-23T11:31:54Z</time>
      </trkpt>
      <trkpt lat="51.06928" lon="2.51048">
        <ele>6</ele>
        <time>2020-06-23T11:31:55Z</time>
      </trkpt>
      <trkpt lat="51.06929" lon="2.51057">
        <ele>5.9</ele>
        <time>2020-06-23T11:31:56Z</time>
      </trkpt>
      <trkpt lat="51.06932" lon="2.51065">
        <ele>5.9</ele>
        <time>2020-06-23T11:31:57Z</time>
      </trkpt>
      <trkpt lat="51.06933" lon="2.51073">
        <ele>5.8</ele>
        <time>2020-06-23T11:31:58Z</time>
      </trkpt>
      <trkpt lat="51.06935" lon="2.51082">
        <ele>5.8</ele>
        <time>2020-06-23T11:31:59Z</time>
      </trkpt>
      <trkpt lat="51.06937" lon="2.51091">
        <ele>5.8</ele>
        <time>2020-06-23T11:32:00Z</time>
      </trkpt>
      <trkpt lat="51.0694" lon="2.51101">
        <ele>5.8</ele>
        <time>2020-06-23T11:32:01Z</time>
      </trkpt>
      <trkpt lat="51.06942" lon="2.5111">
        <ele>5.8</ele>
        <time>2020-06-23T11:32:02Z</time>
      </trkpt>
      <trkpt lat="51.06944" lon="2.51118">
        <ele>5.9</ele>
        <time>2020-06-23T11:32:03Z</time>
      </trkpt>
      <trkpt lat="51.06945" lon="2.51127">
        <ele>5.9</ele>
        <time>2020-06-23T11:32:04Z</time>
      </trkpt>
      <trkpt lat="51.06948" lon="2.51135">
        <ele>5.9</ele>
        <time>2020-06-23T11:32:05Z</time>
      </trkpt>
      <trkpt lat="51.06949" lon="2.51143">
        <ele>6</ele>
        <time>2020-06-23T11:32:06Z</time>
      </trkpt>
      <trkpt lat="51.06951" lon="2.51151">
        <ele>6</ele>
        <time>2020-06-23T11:32:07Z</time>
      </trkpt>
      <trkpt lat="51.06953" lon="2.5116">
        <ele>6.1</ele>
        <time>2020-06-23T11:32:08Z</time>
      </trkpt>
      <trkpt lat="51.06955" lon="2.51169">
        <ele>6.1</ele>
        <time>2020-06-23T11:32:09Z</time>
      </trkpt>
      <trkpt lat="51.06957" lon="2.51177">
        <ele>6.2</ele>
        <time>2020-06-23T11:32:10Z</time>
      </trkpt>
      <trkpt lat="51.06959" lon="2.51188">
        <ele>6.2</ele>
        <time>2020-06-23T11:32:11Z</time>
      </trkpt>
      <trkpt lat="51.06961" lon="2.51195">
        <ele>6.2</ele>
        <time>2020-06-23T11:32:12Z</time>
      </trkpt>
      <trkpt lat="51.06962" lon="2.51204">
        <ele>6.2</ele>
        <time>2020-06-23T11:32:13Z</time>
      </trkpt>
      <trkpt lat="51.06963" lon="2.51212">
        <ele>6.2</ele>
        <time>2020-06-23T11:32:14Z</time>
      </trkpt>
      <trkpt lat="51.06964" lon="2.51219">
        <ele>6.2</ele>
        <time>2020-06-23T11:32:15Z</time>
      </trkpt>
      <trkpt lat="51.06966" lon="2.51227">
        <ele>6.2</ele>
        <time>2020-06-23T11:32:16Z</time>
      </trkpt>
      <trkpt lat="51.06967" lon="2.51236">
        <ele>6.2</ele>
        <time>2020-06-23T11:32:17Z</time>
      </trkpt>
      <trkpt lat="51.06968" lon="2.51242">
        <ele>6.2</ele>
        <time>2020-06-23T11:32:18Z</time>
      </trkpt>
      <trkpt lat="51.06969" lon="2.51249">
        <ele>6.1</ele>
        <time>2020-06-23T11:32:19Z</time>
      </trkpt>
      <trkpt lat="51.0697" lon="2.51258">
        <ele>6.1</ele>
        <time>2020-06-23T11:32:20Z</time>
      </trkpt>
      <trkpt lat="51.06971" lon="2.51267">
        <ele>6.1</ele>
        <time>2020-06-23T11:32:21Z</time>
      </trkpt>
      <trkpt lat="51.06972" lon="2.51274">
        <ele>6.1</ele>
        <time>2020-06-23T11:32:22Z</time>
      </trkpt>
      <trkpt lat="51.06973" lon="2.51283">
        <ele>6.1</ele>
        <time>2020-06-23T11:32:23Z</time>
      </trkpt>
      <trkpt lat="51.06973" lon="2.51293">
        <ele>6.1</ele>
        <time>2020-06-23T11:32:24Z</time>
      </trkpt>
      <trkpt lat="51.06973" lon="2.51302">
        <ele>6.1</ele>
        <time>2020-06-23T11:32:25Z</time>
      </trkpt>
      <trkpt lat="51.06973" lon="2.51311">
        <ele>6.1</ele>
        <time>2020-06-23T11:32:26Z</time>
      </trkpt>
      <trkpt lat="51.06973" lon="2.51319">
        <ele>6</ele>
        <time>2020-06-23T11:32:27Z</time>
      </trkpt>
      <trkpt lat="51.06973" lon="2.51328">
        <ele>6</ele>
        <time>2020-06-23T11:32:28Z</time>
      </trkpt>
      <trkpt lat="51.06973" lon="2.51336">
        <ele>6</ele>
        <time>2020-06-23T11:32:29Z</time>
      </trkpt>
      <trkpt lat="51.06973" lon="2.51345">
        <ele>6.1</ele>
        <time>2020-06-23T11:32:30Z</time>
      </trkpt>
      <trkpt lat="51.06973" lon="2.51354">
        <ele>6.1</ele>
        <time>2020-06-23T11:32:31Z</time>
      </trkpt>
      <trkpt lat="51.06973" lon="2.51361">
        <ele>6.1</ele>
        <time>2020-06-23T11:32:32Z</time>
      </trkpt>
      <trkpt lat="51.06974" lon="2.51371">
        <ele>6</ele>
        <time>2020-06-23T11:32:33Z</time>
      </trkpt>
      <trkpt lat="51.06974" lon="2.5138">
        <ele>5.9</ele>
        <time>2020-06-23T11:32:34Z</time>
      </trkpt>
      <trkpt lat="51.06974" lon="2.51386">
        <ele>5.9</ele>
        <time>2020-06-23T11:32:35Z</time>
      </trkpt>
      <trkpt lat="51.06975" lon="2.51393">
        <ele>5.8</ele>
        <time>2020-06-23T11:32:36Z</time>
      </trkpt>
      <trkpt lat="51.06976" lon="2.51401">
        <ele>5.8</ele>
        <time>2020-06-23T11:32:37Z</time>
      </trkpt>
      <trkpt lat="51.06977" lon="2.5141">
        <ele>5.7</ele>
        <time>2020-06-23T11:32:38Z</time>
      </trkpt>
      <trkpt lat="51.06978" lon="2.51418">
        <ele>5.7</ele>
        <time>2020-06-23T11:32:39Z</time>
      </trkpt>
      <trkpt lat="51.06979" lon="2.51425">
        <ele>5.7</ele>
        <time>2020-06-23T11:32:40Z</time>
      </trkpt>
      <trkpt lat="51.06979" lon="2.51434">
        <ele>5.6</ele>
        <time>2020-06-23T11:32:41Z</time>
      </trkpt>
      <trkpt lat="51.0698" lon="2.51442">
        <ele>5.6</ele>
        <time>2020-06-23T11:32:42Z</time>
      </trkpt>
      <trkpt lat="51.06981" lon="2.5145">
        <ele>5.5</ele>
        <time>2020-06-23T11:32:43Z</time>
      </trkpt>
      <trkpt lat="51.06981" lon="2.5146">
        <ele>5.5</ele>
        <time>2020-06-23T11:32:44Z</time>
      </trkpt>
      <trkpt lat="51.06982" lon="2.51468">
        <ele>5.5</ele>
        <time>2020-06-23T11:32:45Z</time>
      </trkpt>
      <trkpt lat="51.06982" lon="2.51477">
        <ele>5.5</ele>
        <time>2020-06-23T11:32:46Z</time>
      </trkpt>
      <trkpt lat="51.06983" lon="2.51484">
        <ele>5.5</ele>
        <time>2020-06-23T11:32:47Z</time>
      </trkpt>
      <trkpt lat="51.06984" lon="2.51491">
        <ele>5.5</ele>
        <time>2020-06-23T11:32:48Z</time>
      </trkpt>
      <trkpt lat="51.06984" lon="2.51498">
        <ele>5.5</ele>
        <time>2020-06-23T11:32:49Z</time>
      </trkpt>
      <trkpt lat="51.06984" lon="2.51507">
        <ele>5.4</ele>
        <time>2020-06-23T11:32:50Z</time>
      </trkpt>
      <trkpt lat="51.06985" lon="2.51516">
        <ele>5.4</ele>
        <time>2020-06-23T11:32:51Z</time>
      </trkpt>
      <trkpt lat="51.06986" lon="2.51525">
        <ele>5.4</ele>
        <time>2020-06-23T11:32:52Z</time>
      </trkpt>
      <trkpt lat="51.06986" lon="2.51533">
        <ele>5.4</ele>
        <time>2020-06-23T11:32:53Z</time>
      </trkpt>
      <trkpt lat="51.06986" lon="2.51542">
        <ele>5.4</ele>
        <time>2020-06-23T11:32:54Z</time>
      </trkpt>
      <trkpt lat="51.06987" lon="2.51552">
        <ele>5.4</ele>
        <time>2020-06-23T11:32:55Z</time>
      </trkpt>
      <trkpt lat="51.06988" lon="2.51561">
        <ele>5.4</ele>
        <time>2020-06-23T11:32:56Z</time>
      </trkpt>
      <trkpt lat="51.06988" lon="2.51569">
        <ele>5.4</ele>
        <time>2020-06-23T11:32:57Z</time>
      </trkpt>
      <trkpt lat="51.06988" lon="2.51577">
        <ele>5.4</ele>
        <time>2020-06-23T11:32:58Z</time>
      </trkpt>
      <trkpt lat="51.06988" lon="2.51585">
        <ele>5.4</ele>
        <time>2020-06-23T11:32:59Z</time>
      </trkpt>
      <trkpt lat="51.06989" lon="2.51594">
        <ele>5.5</ele>
        <time>2020-06-23T11:33:00Z</time>
      </trkpt>
      <trkpt lat="51.06989" lon="2.516">
        <ele>5.5</ele>
        <time>2020-06-23T11:33:01Z</time>
      </trkpt>
      <trkpt lat="51.0699" lon="2.51609">
        <ele>5.5</ele>
        <time>2020-06-23T11:33:02Z</time>
      </trkpt>
      <trkpt lat="51.0699" lon="2.51615">
        <ele>5.5</ele>
        <time>2020-06-23T11:33:03Z</time>
      </trkpt>
      <trkpt lat="51.0699" lon="2.5162">
        <ele>5.6</ele>
        <time>2020-06-23T11:33:04Z</time>
      </trkpt>
      <trkpt lat="51.06991" lon="2.51625">
        <ele>5.6</ele>
        <time>2020-06-23T11:33:05Z</time>
      </trkpt>
      <trkpt lat="51.06991" lon="2.51627">
        <ele>5.6</ele>
        <time>2020-06-23T11:33:06Z</time>
      </trkpt>
      <trkpt lat="51.06992" lon="2.51631">
        <ele>5.6</ele>
        <time>2020-06-23T11:33:07Z</time>
      </trkpt>
      <trkpt lat="51.06996" lon="2.51633">
        <ele>5.7</ele>
        <time>2020-06-23T11:33:08Z</time>
      </trkpt>
      <trkpt lat="51.06997" lon="2.51633">
        <ele>5.7</ele>
        <time>2020-06-23T11:33:09Z</time>
      </trkpt>
      <trkpt lat="51.07" lon="2.51632">
        <ele>5.7</ele>
        <time>2020-06-23T11:33:10Z</time>
      </trkpt>
      <trkpt lat="51.07003" lon="2.51631">
        <ele>5.8</ele>
        <time>2020-06-23T11:33:11Z</time>
      </trkpt>
      <trkpt lat="51.07006" lon="2.51631">
        <ele>5.9</ele>
        <time>2020-06-23T11:33:12Z</time>
      </trkpt>
      <trkpt lat="51.07009" lon="2.5163">
        <ele>6</ele>
        <time>2020-06-23T11:33:13Z</time>
      </trkpt>
      <trkpt lat="51.07013" lon="2.51629">
        <ele>6.1</ele>
        <time>2020-06-23T11:33:14Z</time>
      </trkpt>
      <trkpt lat="51.07016" lon="2.51629">
        <ele>6.1</ele>
        <time>2020-06-23T11:33:15Z</time>
      </trkpt>
      <trkpt lat="51.07021" lon="2.51627">
        <ele>6.2</ele>
        <time>2020-06-23T11:33:16Z</time>
      </trkpt>
      <trkpt lat="51.07026" lon="2.51626">
        <ele>6.3</ele>
        <time>2020-06-23T11:33:17Z</time>
      </trkpt>
      <trkpt lat="51.0703" lon="2.51625">
        <ele>6.4</ele>
        <time>2020-06-23T11:33:18Z</time>
      </trkpt>
      <trkpt lat="51.07033" lon="2.51623">
        <ele>6.4</ele>
        <time>2020-06-23T11:33:19Z</time>
      </trkpt>
      <trkpt lat="51.07038" lon="2.51622">
        <ele>6.4</ele>
        <time>2020-06-23T11:33:20Z</time>
      </trkpt>
      <trkpt lat="51.07042" lon="2.5162">
        <ele>6.4</ele>
        <time>2020-06-23T11:33:21Z</time>
      </trkpt>
      <trkpt lat="51.07048" lon="2.51618">
        <ele>6.4</ele>
        <time>2020-06-23T11:33:22Z</time>
      </trkpt>
      <trkpt lat="51.07052" lon="2.51617">
        <ele>6.4</ele>
        <time>2020-06-23T11:33:23Z</time>
      </trkpt>
      <trkpt lat="51.07056" lon="2.51615">
        <ele>6.5</ele>
        <time>2020-06-23T11:33:24Z</time>
      </trkpt>
      <trkpt lat="51.0706" lon="2.51613">
        <ele>6.5</ele>
        <time>2020-06-23T11:33:25Z</time>
      </trkpt>
      <trkpt lat="51.07064" lon="2.51611">
        <ele>6.5</ele>
        <time>2020-06-23T11:33:26Z</time>
      </trkpt>
      <trkpt lat="51.07069" lon="2.5161">
        <ele>6.5</ele>
        <time>2020-06-23T11:33:27Z</time>
      </trkpt>
      <trkpt lat="51.07074" lon="2.51608">
        <ele>6.5</ele>
        <time>2020-06-23T11:33:28Z</time>
      </trkpt>
      <trkpt lat="51.07079" lon="2.51607">
        <ele>6.6</ele>
        <time>2020-06-23T11:33:29Z</time>
      </trkpt>
      <trkpt lat="51.07085" lon="2.51605">
        <ele>6.6</ele>
        <time>2020-06-23T11:33:30Z</time>
      </trkpt>
      <trkpt lat="51.07091" lon="2.51602">
        <ele>6.7</ele>
        <time>2020-06-23T11:33:31Z</time>
      </trkpt>
      <trkpt lat="51.07095" lon="2.516">
        <ele>6.8</ele>
        <time>2020-06-23T11:33:32Z</time>
      </trkpt>
      <trkpt lat="51.071" lon="2.51598">
        <ele>6.9</ele>
        <time>2020-06-23T11:33:33Z</time>
      </trkpt>
      <trkpt lat="51.07105" lon="2.51597">
        <ele>6.9</ele>
        <time>2020-06-23T11:33:34Z</time>
      </trkpt>
      <trkpt lat="51.07109" lon="2.51595">
        <ele>7</ele>
        <time>2020-06-23T11:33:35Z</time>
      </trkpt>
      <trkpt lat="51.07115" lon="2.51593">
        <ele>7.1</ele>
        <time>2020-06-23T11:33:36Z</time>
      </trkpt>
      <trkpt lat="51.0712" lon="2.51591">
        <ele>7.1</ele>
        <time>2020-06-23T11:33:37Z</time>
      </trkpt>
      <trkpt lat="51.07125" lon="2.51589">
        <ele>7.2</ele>
        <time>2020-06-23T11:33:38Z</time>
      </trkpt>
      <trkpt lat="51.07131" lon="2.51586">
        <ele>7.2</ele>
        <time>2020-06-23T11:33:39Z</time>
      </trkpt>
      <trkpt lat="51.07136" lon="2.51584">
        <ele>7.2</ele>
        <time>2020-06-23T11:33:40Z</time>
      </trkpt>
      <trkpt lat="51.07139" lon="2.51583">
        <ele>7.2</ele>
        <time>2020-06-23T11:33:41Z</time>
      </trkpt>
      <trkpt lat="51.07144" lon="2.51581">
        <ele>7.3</ele>
        <time>2020-06-23T11:33:42Z</time>
      </trkpt>
      <trkpt lat="51.07148" lon="2.51579">
        <ele>7.3</ele>
        <time>2020-06-23T11:33:43Z</time>
      </trkpt>
      <trkpt lat="51.07153" lon="2.51577">
        <ele>7.3</ele>
        <time>2020-06-23T11:33:44Z</time>
      </trkpt>
      <trkpt lat="51.07159" lon="2.51575">
        <ele>7.4</ele>
        <time>2020-06-23T11:33:45Z</time>
      </trkpt>
      <trkpt lat="51.07164" lon="2.51573">
        <ele>7.4</ele>
        <time>2020-06-23T11:33:46Z</time>
      </trkpt>
      <trkpt lat="51.07169" lon="2.51571">
        <ele>7.5</ele>
        <time>2020-06-23T11:33:47Z</time>
      </trkpt>
      <trkpt lat="51.07175" lon="2.51568">
        <ele>7.6</ele>
        <time>2020-06-23T11:33:48Z</time>
      </trkpt>
      <trkpt lat="51.0718" lon="2.51567">
        <ele>7.6</ele>
        <time>2020-06-23T11:33:49Z</time>
      </trkpt>
      <trkpt lat="51.07184" lon="2.51565">
        <ele>7.6</ele>
        <time>2020-06-23T11:33:50Z</time>
      </trkpt>
      <trkpt lat="51.07189" lon="2.51564">
        <ele>7.7</ele>
        <time>2020-06-23T11:33:51Z</time>
      </trkpt>
      <trkpt lat="51.07194" lon="2.51562">
        <ele>7.7</ele>
        <time>2020-06-23T11:33:52Z</time>
      </trkpt>
      <trkpt lat="51.07199" lon="2.5156">
        <ele>7.7</ele>
        <time>2020-06-23T11:33:53Z</time>
      </trkpt>
      <trkpt lat="51.07203" lon="2.51559">
        <ele>7.8</ele>
        <time>2020-06-23T11:33:54Z</time>
      </trkpt>
      <trkpt lat="51.07208" lon="2.51557">
        <ele>7.8</ele>
        <time>2020-06-23T11:33:55Z</time>
      </trkpt>
      <trkpt lat="51.07212" lon="2.51555">
        <ele>7.8</ele>
        <time>2020-06-23T11:33:56Z</time>
      </trkpt>
      <trkpt lat="51.07217" lon="2.51553">
        <ele>7.9</ele>
        <time>2020-06-23T11:33:57Z</time>
      </trkpt>
      <trkpt lat="51.07222" lon="2.51551">
        <ele>7.9</ele>
        <time>2020-06-23T11:33:58Z</time>
      </trkpt>
      <trkpt lat="51.07228" lon="2.51548">
        <ele>7.9</ele>
        <time>2020-06-23T11:33:59Z</time>
      </trkpt>
      <trkpt lat="51.07234" lon="2.51545">
        <ele>7.9</ele>
        <time>2020-06-23T11:34:00Z</time>
      </trkpt>
      <trkpt lat="51.07239" lon="2.51543">
        <ele>7.9</ele>
        <time>2020-06-23T11:34:01Z</time>
      </trkpt>
      <trkpt lat="51.07244" lon="2.51541">
        <ele>7.9</ele>
        <time>2020-06-23T11:34:02Z</time>
      </trkpt>
      <trkpt lat="51.0725" lon="2.51539">
        <ele>7.9</ele>
        <time>2020-06-23T11:34:03Z</time>
      </trkpt>
      <trkpt lat="51.07256" lon="2.51537">
        <ele>7.8</ele>
        <time>2020-06-23T11:34:04Z</time>
      </trkpt>
      <trkpt lat="51.07262" lon="2.51535">
        <ele>7.8</ele>
        <time>2020-06-23T11:34:05Z</time>
      </trkpt>
      <trkpt lat="51.07268" lon="2.51533">
        <ele>7.8</ele>
        <time>2020-06-23T11:34:06Z</time>
      </trkpt>
      <trkpt lat="51.07274" lon="2.5153">
        <ele>7.8</ele>
        <time>2020-06-23T11:34:07Z</time>
      </trkpt>
      <trkpt lat="51.0728" lon="2.51528">
        <ele>7.8</ele>
        <time>2020-06-23T11:34:08Z</time>
      </trkpt>
      <trkpt lat="51.07286" lon="2.51526">
        <ele>7.7</ele>
        <time>2020-06-23T11:34:09Z</time>
      </trkpt>
      <trkpt lat="51.07291" lon="2.51523">
        <ele>7.7</ele>
        <time>2020-06-23T11:34:10Z</time>
      </trkpt>
      <trkpt lat="51.07297" lon="2.51521">
        <ele>7.7</ele>
        <time>2020-06-23T11:34:11Z</time>
      </trkpt>
      <trkpt lat="51.07303" lon="2.51519">
        <ele>7.7</ele>
        <time>2020-06-23T11:34:12Z</time>
      </trkpt>
      <trkpt lat="51.07309" lon="2.51517">
        <ele>7.6</ele>
        <time>2020-06-23T11:34:13Z</time>
      </trkpt>
      <trkpt lat="51.07317" lon="2.51514">
        <ele>7.6</ele>
        <time>2020-06-23T11:34:14Z</time>
      </trkpt>
      <trkpt lat="51.07321" lon="2.51513">
        <ele>7.6</ele>
        <time>2020-06-23T11:34:15Z</time>
      </trkpt>
      <trkpt lat="51.07328" lon="2.5151">
        <ele>7.6</ele>
        <time>2020-06-23T11:34:16Z</time>
      </trkpt>
      <trkpt lat="51.07333" lon="2.51507">
        <ele>7.5</ele>
        <time>2020-06-23T11:34:17Z</time>
      </trkpt>
      <trkpt lat="51.07338" lon="2.51505">
        <ele>7.5</ele>
        <time>2020-06-23T11:34:18Z</time>
      </trkpt>
      <trkpt lat="51.07345" lon="2.51502">
        <ele>7.5</ele>
        <time>2020-06-23T11:34:19Z</time>
      </trkpt>
      <trkpt lat="51.07351" lon="2.515">
        <ele>7.5</ele>
        <time>2020-06-23T11:34:20Z</time>
      </trkpt>
      <trkpt lat="51.07357" lon="2.51498">
        <ele>7.4</ele>
        <time>2020-06-23T11:34:21Z</time>
      </trkpt>
      <trkpt lat="51.07363" lon="2.51496">
        <ele>7.4</ele>
        <time>2020-06-23T11:34:22Z</time>
      </trkpt>
      <trkpt lat="51.07369" lon="2.51494">
        <ele>7.4</ele>
        <time>2020-06-23T11:34:23Z</time>
      </trkpt>
      <trkpt lat="51.07375" lon="2.51492">
        <ele>7.3</ele>
        <time>2020-06-23T11:34:24Z</time>
      </trkpt>
      <trkpt lat="51.0738" lon="2.5149">
        <ele>7.3</ele>
        <time>2020-06-23T11:34:25Z</time>
      </trkpt>
      <trkpt lat="51.07386" lon="2.51488">
        <ele>7.2</ele>
        <time>2020-06-23T11:34:26Z</time>
      </trkpt>
      <trkpt lat="51.07392" lon="2.51486">
        <ele>7.1</ele>
        <time>2020-06-23T11:34:27Z</time>
      </trkpt>
      <trkpt lat="51.07399" lon="2.51484">
        <ele>7</ele>
        <time>2020-06-23T11:34:28Z</time>
      </trkpt>
      <trkpt lat="51.07405" lon="2.51482">
        <ele>7</ele>
        <time>2020-06-23T11:34:29Z</time>
      </trkpt>
      <trkpt lat="51.07411" lon="2.51479">
        <ele>6.9</ele>
        <time>2020-06-23T11:34:30Z</time>
      </trkpt>
      <trkpt lat="51.07418" lon="2.51477">
        <ele>6.8</ele>
        <time>2020-06-23T11:34:31Z</time>
      </trkpt>
      <trkpt lat="51.07424" lon="2.51475">
        <ele>6.8</ele>
        <time>2020-06-23T11:34:32Z</time>
      </trkpt>
      <trkpt lat="51.0743" lon="2.51473">
        <ele>6.8</ele>
        <time>2020-06-23T11:34:33Z</time>
      </trkpt>
      <trkpt lat="51.07435" lon="2.5147">
        <ele>6.7</ele>
        <time>2020-06-23T11:34:34Z</time>
      </trkpt>
      <trkpt lat="51.07441" lon="2.51469">
        <ele>6.7</ele>
        <time>2020-06-23T11:34:35Z</time>
      </trkpt>
      <trkpt lat="51.07445" lon="2.51468">
        <ele>6.7</ele>
        <time>2020-06-23T11:34:36Z</time>
      </trkpt>
      <trkpt lat="51.0745" lon="2.51465">
        <ele>6.7</ele>
        <time>2020-06-23T11:34:37Z</time>
      </trkpt>
      <trkpt lat="51.07455" lon="2.51464">
        <ele>6.6</ele>
        <time>2020-06-23T11:34:38Z</time>
      </trkpt>
      <trkpt lat="51.0746" lon="2.51462">
        <ele>6.6</ele>
        <time>2020-06-23T11:34:39Z</time>
      </trkpt>
      <trkpt lat="51.07466" lon="2.5146">
        <ele>6.6</ele>
        <time>2020-06-23T11:34:40Z</time>
      </trkpt>
      <trkpt lat="51.07471" lon="2.51457">
        <ele>6.6</ele>
        <time>2020-06-23T11:34:41Z</time>
      </trkpt>
      <trkpt lat="51.07477" lon="2.51455">
        <ele>6.5</ele>
        <time>2020-06-23T11:34:42Z</time>
      </trkpt>
      <trkpt lat="51.07484" lon="2.51453">
        <ele>6.5</ele>
        <time>2020-06-23T11:34:43Z</time>
      </trkpt>
      <trkpt lat="51.0749" lon="2.5145">
        <ele>6.4</ele>
        <time>2020-06-23T11:34:44Z</time>
      </trkpt>
      <trkpt lat="51.07496" lon="2.51448">
        <ele>6.4</ele>
        <time>2020-06-23T11:34:45Z</time>
      </trkpt>
      <trkpt lat="51.07502" lon="2.51446">
        <ele>6.4</ele>
        <time>2020-06-23T11:34:46Z</time>
      </trkpt>
      <trkpt lat="51.07508" lon="2.51444">
        <ele>6.4</ele>
        <time>2020-06-23T11:34:47Z</time>
      </trkpt>
      <trkpt lat="51.07515" lon="2.51441">
        <ele>6.3</ele>
        <time>2020-06-23T11:34:48Z</time>
      </trkpt>
      <trkpt lat="51.07523" lon="2.51439">
        <ele>6.3</ele>
        <time>2020-06-23T11:34:49Z</time>
      </trkpt>
      <trkpt lat="51.0753" lon="2.51437">
        <ele>6.3</ele>
        <time>2020-06-23T11:34:50Z</time>
      </trkpt>
      <trkpt lat="51.07536" lon="2.51434">
        <ele>6.3</ele>
        <time>2020-06-23T11:34:51Z</time>
      </trkpt>
      <trkpt lat="51.07542" lon="2.51432">
        <ele>6.4</ele>
        <time>2020-06-23T11:34:52Z</time>
      </trkpt>
      <trkpt lat="51.07547" lon="2.5143">
        <ele>6.4</ele>
        <time>2020-06-23T11:34:53Z</time>
      </trkpt>
      <trkpt lat="51.07553" lon="2.51428">
        <ele>6.4</ele>
        <time>2020-06-23T11:34:54Z</time>
      </trkpt>
      <trkpt lat="51.07558" lon="2.51426">
        <ele>6.4</ele>
        <time>2020-06-23T11:34:55Z</time>
      </trkpt>
      <trkpt lat="51.07564" lon="2.51424">
        <ele>6.4</ele>
        <time>2020-06-23T11:34:56Z</time>
      </trkpt>
      <trkpt lat="51.07569" lon="2.51421">
        <ele>6.4</ele>
        <time>2020-06-23T11:34:57Z</time>
      </trkpt>
      <trkpt lat="51.07575" lon="2.51419">
        <ele>6.3</ele>
        <time>2020-06-23T11:34:58Z</time>
      </trkpt>
      <trkpt lat="51.07581" lon="2.51417">
        <ele>6.3</ele>
        <time>2020-06-23T11:34:59Z</time>
      </trkpt>
      <trkpt lat="51.07587" lon="2.51415">
        <ele>6.2</ele>
        <time>2020-06-23T11:35:00Z</time>
      </trkpt>
      <trkpt lat="51.07593" lon="2.51413">
        <ele>6.1</ele>
        <time>2020-06-23T11:35:01Z</time>
      </trkpt>
      <trkpt lat="51.07599" lon="2.5141">
        <ele>6.1</ele>
        <time>2020-06-23T11:35:02Z</time>
      </trkpt>
      <trkpt lat="51.07605" lon="2.51407">
        <ele>6.1</ele>
        <time>2020-06-23T11:35:03Z</time>
      </trkpt>
      <trkpt lat="51.0761" lon="2.51405">
        <ele>6.1</ele>
        <time>2020-06-23T11:35:04Z</time>
      </trkpt>
      <trkpt lat="51.07615" lon="2.51403">
        <ele>6.1</ele>
        <time>2020-06-23T11:35:05Z</time>
      </trkpt>
      <trkpt lat="51.07621" lon="2.51401">
        <ele>6.1</ele>
        <time>2020-06-23T11:35:06Z</time>
      </trkpt>
      <trkpt lat="51.07627" lon="2.51399">
        <ele>6.1</ele>
        <time>2020-06-23T11:35:07Z</time>
      </trkpt>
      <trkpt lat="51.07634" lon="2.51396">
        <ele>6.1</ele>
        <time>2020-06-23T11:35:08Z</time>
      </trkpt>
      <trkpt lat="51.07639" lon="2.51394">
        <ele>6.1</ele>
        <time>2020-06-23T11:35:09Z</time>
      </trkpt>
      <trkpt lat="51.07644" lon="2.51393">
        <ele>6.1</ele>
        <time>2020-06-23T11:35:10Z</time>
      </trkpt>
      <trkpt lat="51.07649" lon="2.51391">
        <ele>6.1</ele>
        <time>2020-06-23T11:35:11Z</time>
      </trkpt>
      <trkpt lat="51.07654" lon="2.51389">
        <ele>6.2</ele>
        <time>2020-06-23T11:35:12Z</time>
      </trkpt>
      <trkpt lat="51.07659" lon="2.51386">
        <ele>6.2</ele>
        <time>2020-06-23T11:35:13Z</time>
      </trkpt>
      <trkpt lat="51.07664" lon="2.51383">
        <ele>6.2</ele>
        <time>2020-06-23T11:35:14Z</time>
      </trkpt>
      <trkpt lat="51.07669" lon="2.51382">
        <ele>6.3</ele>
        <time>2020-06-23T11:35:15Z</time>
      </trkpt>
      <trkpt lat="51.07674" lon="2.5138">
        <ele>6.4</ele>
        <time>2020-06-23T11:35:16Z</time>
      </trkpt>
      <trkpt lat="51.0768" lon="2.51378">
        <ele>6.4</ele>
        <time>2020-06-23T11:35:17Z</time>
      </trkpt>
      <trkpt lat="51.07682" lon="2.51377">
        <ele>6.5</ele>
        <time>2020-06-23T11:35:18Z</time>
      </trkpt>
      <trkpt lat="51.07688" lon="2.51375">
        <ele>6.5</ele>
        <time>2020-06-23T11:35:19Z</time>
      </trkpt>
      <trkpt lat="51.07692" lon="2.51374">
        <ele>6.5</ele>
        <time>2020-06-23T11:35:20Z</time>
      </trkpt>
      <trkpt lat="51.07697" lon="2.51372">
        <ele>6.6</ele>
        <time>2020-06-23T11:35:21Z</time>
      </trkpt>
      <trkpt lat="51.07702" lon="2.5137">
        <ele>6.6</ele>
        <time>2020-06-23T11:35:22Z</time>
      </trkpt>
      <trkpt lat="51.07705" lon="2.51368">
        <ele>6.6</ele>
        <time>2020-06-23T11:35:23Z</time>
      </trkpt>
      <trkpt lat="51.07709" lon="2.51366">
        <ele>6.7</ele>
        <time>2020-06-23T11:35:24Z</time>
      </trkpt>
      <trkpt lat="51.07714" lon="2.51364">
        <ele>6.7</ele>
        <time>2020-06-23T11:35:25Z</time>
      </trkpt>
      <trkpt lat="51.07718" lon="2.51362">
        <ele>6.7</ele>
        <time>2020-06-23T11:35:26Z</time>
      </trkpt>
      <trkpt lat="51.07723" lon="2.5136">
        <ele>6.8</ele>
        <time>2020-06-23T11:35:27Z</time>
      </trkpt>
      <trkpt lat="51.07729" lon="2.51359">
        <ele>6.8</ele>
        <time>2020-06-23T11:35:28Z</time>
      </trkpt>
      <trkpt lat="51.07734" lon="2.51358">
        <ele>6.8</ele>
        <time>2020-06-23T11:35:29Z</time>
      </trkpt>
      <trkpt lat="51.07742" lon="2.51356">
        <ele>6.8</ele>
        <time>2020-06-23T11:35:30Z</time>
      </trkpt>
      <trkpt lat="51.07748" lon="2.51355">
        <ele>6.8</ele>
        <time>2020-06-23T11:35:31Z</time>
      </trkpt>
      <trkpt lat="51.07754" lon="2.51352">
        <ele>6.9</ele>
        <time>2020-06-23T11:35:32Z</time>
      </trkpt>
      <trkpt lat="51.07759" lon="2.5135">
        <ele>6.9</ele>
        <time>2020-06-23T11:35:33Z</time>
      </trkpt>
      <trkpt lat="51.07763" lon="2.51349">
        <ele>6.9</ele>
        <time>2020-06-23T11:35:34Z</time>
      </trkpt>
      <trkpt lat="51.07767" lon="2.51347">
        <ele>7</ele>
        <time>2020-06-23T11:35:35Z</time>
      </trkpt>
      <trkpt lat="51.07772" lon="2.51345">
        <ele>7.1</ele>
        <time>2020-06-23T11:35:36Z</time>
      </trkpt>
      <trkpt lat="51.07776" lon="2.51343">
        <ele>7.1</ele>
        <time>2020-06-23T11:35:37Z</time>
      </trkpt>
      <trkpt lat="51.07781" lon="2.5134">
        <ele>7.3</ele>
        <time>2020-06-23T11:35:38Z</time>
      </trkpt>
      <trkpt lat="51.07786" lon="2.51338">
        <ele>7.4</ele>
        <time>2020-06-23T11:35:39Z</time>
      </trkpt>
      <trkpt lat="51.07792" lon="2.51337">
        <ele>7.5</ele>
        <time>2020-06-23T11:35:40Z</time>
      </trkpt>
      <trkpt lat="51.07798" lon="2.51335">
        <ele>7.7</ele>
        <time>2020-06-23T11:35:41Z</time>
      </trkpt>
      <trkpt lat="51.07804" lon="2.51333">
        <ele>7.8</ele>
        <time>2020-06-23T11:35:42Z</time>
      </trkpt>
      <trkpt lat="51.07809" lon="2.51331">
        <ele>7.9</ele>
        <time>2020-06-23T11:35:43Z</time>
      </trkpt>
      <trkpt lat="51.07813" lon="2.5133">
        <ele>8</ele>
        <time>2020-06-23T11:35:44Z</time>
      </trkpt>
      <trkpt lat="51.07819" lon="2.51328">
        <ele>8.1</ele>
        <time>2020-06-23T11:35:45Z</time>
      </trkpt>
      <trkpt lat="51.07824" lon="2.51327">
        <ele>8.2</ele>
        <time>2020-06-23T11:35:46Z</time>
      </trkpt>
      <trkpt lat="51.07828" lon="2.51327">
        <ele>8.4</ele>
        <time>2020-06-23T11:35:47Z</time>
      </trkpt>
      <trkpt lat="51.07833" lon="2.51328">
        <ele>8.3</ele>
        <time>2020-06-23T11:35:48Z</time>
      </trkpt>
      <trkpt lat="51.07837" lon="2.51328">
        <ele>8.3</ele>
        <time>2020-06-23T11:35:49Z</time>
      </trkpt>
      <trkpt lat="51.07841" lon="2.51328">
        <ele>8.2</ele>
        <time>2020-06-23T11:35:50Z</time>
      </trkpt>
      <trkpt lat="51.07843" lon="2.51327">
        <ele>8.2</ele>
        <time>2020-06-23T11:35:51Z</time>
      </trkpt>
      <trkpt lat="51.07846" lon="2.51326">
        <ele>8.2</ele>
        <time>2020-06-23T11:35:52Z</time>
      </trkpt>
      <trkpt lat="51.07847" lon="2.51325">
        <ele>8.2</ele>
        <time>2020-06-23T11:35:53Z</time>
      </trkpt>
      <trkpt lat="51.0785" lon="2.51323">
        <ele>8.1</ele>
        <time>2020-06-23T11:35:54Z</time>
      </trkpt>
      <trkpt lat="51.07851" lon="2.51321">
        <ele>8.1</ele>
        <time>2020-06-23T11:35:55Z</time>
      </trkpt>
      <trkpt lat="51.07853" lon="2.51317">
        <ele>8.1</ele>
        <time>2020-06-23T11:35:56Z</time>
      </trkpt>
      <trkpt lat="51.07856" lon="2.51316">
        <ele>8</ele>
        <time>2020-06-23T11:35:57Z</time>
      </trkpt>
      <trkpt lat="51.07857" lon="2.51316">
        <ele>8</ele>
        <time>2020-06-23T11:35:58Z</time>
      </trkpt>
      <trkpt lat="51.07861" lon="2.51314">
        <ele>8</ele>
        <time>2020-06-23T11:35:59Z</time>
      </trkpt>
      <trkpt lat="51.07862" lon="2.51313">
        <ele>8</ele>
        <time>2020-06-23T11:36:00Z</time>
      </trkpt>
      <trkpt lat="51.07866" lon="2.51312">
        <ele>8</ele>
        <time>2020-06-23T11:36:01Z</time>
      </trkpt>
      <trkpt lat="51.07867" lon="2.51311">
        <ele>8</ele>
        <time>2020-06-23T11:36:02Z</time>
      </trkpt>
      <trkpt lat="51.0787" lon="2.51311">
        <ele>8</ele>
        <time>2020-06-23T11:36:03Z</time>
      </trkpt>
      <trkpt lat="51.0787" lon="2.51311">
        <ele>8</ele>
        <time>2020-06-23T11:36:04Z</time>
      </trkpt>
      <trkpt lat="51.07873" lon="2.5131">
        <ele>8</ele>
        <time>2020-06-23T11:36:05Z</time>
      </trkpt>
      <trkpt lat="51.07877" lon="2.51307">
        <ele>8</ele>
        <time>2020-06-23T11:36:06Z</time>
      </trkpt>
      <trkpt lat="51.07879" lon="2.51306">
        <ele>7.9</ele>
        <time>2020-06-23T11:36:07Z</time>
      </trkpt>
      <trkpt lat="51.07882" lon="2.51303">
        <ele>7.9</ele>
        <time>2020-06-23T11:36:08Z</time>
      </trkpt>
      <trkpt lat="51.07886" lon="2.51301">
        <ele>7.9</ele>
        <time>2020-06-23T11:36:09Z</time>
      </trkpt>
      <trkpt lat="51.07889" lon="2.51298">
        <ele>7.9</ele>
        <time>2020-06-23T11:36:10Z</time>
      </trkpt>
      <trkpt lat="51.07891" lon="2.51297">
        <ele>7.9</ele>
        <time>2020-06-23T11:36:11Z</time>
      </trkpt>
      <trkpt lat="51.07892" lon="2.51296">
        <ele>7.9</ele>
        <time>2020-06-23T11:36:12Z</time>
      </trkpt>
      <trkpt lat="51.07892" lon="2.51295">
        <ele>7.9</ele>
        <time>2020-06-23T11:36:13Z</time>
      </trkpt>
      <trkpt lat="51.07894" lon="2.51295">
        <ele>7.9</ele>
        <time>2020-06-23T11:36:14Z</time>
      </trkpt>
      <trkpt lat="51.07896" lon="2.51295">
        <ele>7.9</ele>
        <time>2020-06-23T11:36:15Z</time>
      </trkpt>
      <trkpt lat="51.07897" lon="2.51295">
        <ele>7.9</ele>
        <time>2020-06-23T11:36:16Z</time>
      </trkpt>
      <trkpt lat="51.079" lon="2.51295">
        <ele>7.9</ele>
        <time>2020-06-23T11:36:17Z</time>
      </trkpt>
      <trkpt lat="51.07901" lon="2.51295">
        <ele>7.8</ele>
        <time>2020-06-23T11:36:18Z</time>
      </trkpt>
      <trkpt lat="51.07902" lon="2.51295">
        <ele>7.8</ele>
        <time>2020-06-23T11:36:19Z</time>
      </trkpt>
      <trkpt lat="51.07904" lon="2.51293">
        <ele>7.8</ele>
        <time>2020-06-23T11:36:20Z</time>
      </trkpt>
      <trkpt lat="51.07904" lon="2.51293">
        <ele>7.8</ele>
        <time>2020-06-23T11:36:21Z</time>
      </trkpt>
      <trkpt lat="51.07905" lon="2.51292">
        <ele>7.8</ele>
        <time>2020-06-23T11:36:22Z</time>
      </trkpt>
      <trkpt lat="51.07907" lon="2.5129">
        <ele>7.8</ele>
        <time>2020-06-23T11:36:23Z</time>
      </trkpt>
      <trkpt lat="51.07908" lon="2.51289">
        <ele>7.8</ele>
        <time>2020-06-23T11:36:24Z</time>
      </trkpt>
      <trkpt lat="51.07909" lon="2.51288">
        <ele>7.8</ele>
        <time>2020-06-23T11:36:25Z</time>
      </trkpt>
      <trkpt lat="51.07911" lon="2.51286">
        <ele>7.8</ele>
        <time>2020-06-23T11:36:26Z</time>
      </trkpt>
      <trkpt lat="51.07912" lon="2.51285">
        <ele>7.8</ele>
        <time>2020-06-23T11:36:27Z</time>
      </trkpt>
      <trkpt lat="51.07913" lon="2.51285">
        <ele>7.8</ele>
        <time>2020-06-23T11:36:28Z</time>
      </trkpt>
      <trkpt lat="51.07915" lon="2.51283">
        <ele>7.8</ele>
        <time>2020-06-23T11:36:29Z</time>
      </trkpt>
      <trkpt lat="51.07915" lon="2.51282">
        <ele>7.8</ele>
        <time>2020-06-23T11:36:30Z</time>
      </trkpt>
      <trkpt lat="51.07916" lon="2.51281">
        <ele>7.8</ele>
        <time>2020-06-23T11:36:31Z</time>
      </trkpt>
      <trkpt lat="51.07917" lon="2.5128">
        <ele>7.8</ele>
        <time>2020-06-23T11:36:32Z</time>
      </trkpt>
      <trkpt lat="51.07917" lon="2.5128">
        <ele>7.7</ele>
        <time>2020-06-23T11:36:33Z</time>
      </trkpt>
      <trkpt lat="51.07917" lon="2.5128">
        <ele>7.7</ele>
        <time>2020-06-23T11:36:34Z</time>
      </trkpt>
      <trkpt lat="51.07916" lon="2.51281">
        <ele>7.7</ele>
        <time>2020-06-23T11:36:35Z</time>
      </trkpt>
      <trkpt lat="51.07916" lon="2.51281">
        <ele>7.7</ele>
        <time>2020-06-23T11:36:36Z</time>
      </trkpt>
      <trkpt lat="51.07917" lon="2.5128">
        <ele>7.7</ele>
        <time>2020-06-23T11:36:37Z</time>
      </trkpt>
      <trkpt lat="51.07917" lon="2.5128">
        <ele>7.7</ele>
        <time>2020-06-23T11:36:38Z</time>
      </trkpt>
      <trkpt lat="51.07917" lon="2.51279">
        <ele>7.7</ele>
        <time>2020-06-23T11:36:39Z</time>
      </trkpt>
      <trkpt lat="51.07917" lon="2.5128">
        <ele>7.7</ele>
        <time>2020-06-23T11:36:40Z</time>
      </trkpt>
      <trkpt lat="51.07917" lon="2.5128">
        <ele>7.7</ele>
        <time>2020-06-23T11:36:41Z</time>
      </trkpt>
      <trkpt lat="51.07917" lon="2.5128">
        <ele>7.7</ele>
        <time>2020-06-23T11:36:42Z</time>
      </trkpt>
      <trkpt lat="51.07917" lon="2.5128">
        <ele>7.7</ele>
        <time>2020-06-23T11:36:43Z</time>
      </trkpt>
      <trkpt lat="51.07917" lon="2.51279">
        <ele>7.7</ele>
        <time>2020-06-23T11:36:44Z</time>
      </trkpt>
      <trkpt lat="51.07917" lon="2.51279">
        <ele>7.7</ele>
        <time>2020-06-23T11:36:45Z</time>
      </trkpt>
      <trkpt lat="51.07917" lon="2.51279">
        <ele>7.7</ele>
        <time>2020-06-23T11:36:46Z</time>
      </trkpt>
      <trkpt lat="51.07917" lon="2.51279">
        <ele>7.7</ele>
        <time>2020-06-23T11:36:47Z</time>
      </trkpt>
      <trkpt lat="51.07917" lon="2.51279">
        <ele>7.7</ele>
        <time>2020-06-23T11:36:48Z</time>
      </trkpt>
      <trkpt lat="51.07917" lon="2.51279">
        <ele>7.7</ele>
        <time>2020-06-23T11:36:49Z</time>
      </trkpt>
      <trkpt lat="51.07912" lon="2.51279">
        <ele>7.7</ele>
        <time>2020-06-23T11:43:38Z</time>
      </trkpt>
      <trkpt lat="51.0791" lon="2.5128">
        <ele>7.7</ele>
        <time>2020-06-23T11:43:39Z</time>
      </trkpt>
      <trkpt lat="51.07907" lon="2.51281">
        <ele>7.8</ele>
        <time>2020-06-23T11:43:40Z</time>
      </trkpt>
      <trkpt lat="51.07905" lon="2.51281">
        <ele>7.7</ele>
        <time>2020-06-23T11:43:41Z</time>
      </trkpt>
      <trkpt lat="51.07902" lon="2.51285">
        <ele>7.7</ele>
        <time>2020-06-23T11:43:42Z</time>
      </trkpt>
      <trkpt lat="51.07898" lon="2.51288">
        <ele>7.7</ele>
        <time>2020-06-23T11:43:43Z</time>
      </trkpt>
      <trkpt lat="51.07895" lon="2.51289">
        <ele>7.7</ele>
        <time>2020-06-23T11:43:44Z</time>
      </trkpt>
      <trkpt lat="51.07892" lon="2.51291">
        <ele>7.8</ele>
        <time>2020-06-23T11:43:45Z</time>
      </trkpt>
      <trkpt lat="51.07888" lon="2.51293">
        <ele>7.8</ele>
        <time>2020-06-23T11:43:46Z</time>
      </trkpt>
      <trkpt lat="51.07887" lon="2.51293">
        <ele>7.8</ele>
        <time>2020-06-23T11:43:47Z</time>
      </trkpt>
      <trkpt lat="51.07884" lon="2.51295">
        <ele>7.9</ele>
        <time>2020-06-23T11:43:48Z</time>
      </trkpt>
      <trkpt lat="51.07883" lon="2.51296">
        <ele>7.9</ele>
        <time>2020-06-23T11:43:49Z</time>
      </trkpt>
      <trkpt lat="51.07879" lon="2.51297">
        <ele>7.9</ele>
        <time>2020-06-23T11:43:50Z</time>
      </trkpt>
      <trkpt lat="51.07878" lon="2.51297">
        <ele>7.9</ele>
        <time>2020-06-23T11:43:51Z</time>
      </trkpt>
      <trkpt lat="51.07875" lon="2.51299">
        <ele>7.9</ele>
        <time>2020-06-23T11:43:52Z</time>
      </trkpt>
      <trkpt lat="51.07871" lon="2.51299">
        <ele>7.9</ele>
        <time>2020-06-23T11:43:53Z</time>
      </trkpt>
      <trkpt lat="51.0787" lon="2.51299">
        <ele>7.9</ele>
        <time>2020-06-23T11:43:54Z</time>
      </trkpt>
      <trkpt lat="51.07866" lon="2.51301">
        <ele>8</ele>
        <time>2020-06-23T11:43:55Z</time>
      </trkpt>
      <trkpt lat="51.07863" lon="2.51302">
        <ele>8</ele>
        <time>2020-06-23T11:43:56Z</time>
      </trkpt>
      <trkpt lat="51.07859" lon="2.51304">
        <ele>8</ele>
        <time>2020-06-23T11:43:57Z</time>
      </trkpt>
      <trkpt lat="51.07855" lon="2.51305">
        <ele>8</ele>
        <time>2020-06-23T11:43:58Z</time>
      </trkpt>
      <trkpt lat="51.07852" lon="2.51307">
        <ele>8</ele>
        <time>2020-06-23T11:43:59Z</time>
      </trkpt>
      <trkpt lat="51.07848" lon="2.51309">
        <ele>8.1</ele>
        <time>2020-06-23T11:44:00Z</time>
      </trkpt>
      <trkpt lat="51.07843" lon="2.51309">
        <ele>8.2</ele>
        <time>2020-06-23T11:44:01Z</time>
      </trkpt>
      <trkpt lat="51.07841" lon="2.5131">
        <ele>8.2</ele>
        <time>2020-06-23T11:44:02Z</time>
      </trkpt>
      <trkpt lat="51.07838" lon="2.51311">
        <ele>8.2</ele>
        <time>2020-06-23T11:44:03Z</time>
      </trkpt>
      <trkpt lat="51.07837" lon="2.51311">
        <ele>8.3</ele>
        <time>2020-06-23T11:44:04Z</time>
      </trkpt>
      <trkpt lat="51.07835" lon="2.51311">
        <ele>8.3</ele>
        <time>2020-06-23T11:44:05Z</time>
      </trkpt>
      <trkpt lat="51.07834" lon="2.5131">
        <ele>8.3</ele>
        <time>2020-06-23T11:44:06Z</time>
      </trkpt>
      <trkpt lat="51.07832" lon="2.5131">
        <ele>8.4</ele>
        <time>2020-06-23T11:44:07Z</time>
      </trkpt>
      <trkpt lat="51.07831" lon="2.5131">
        <ele>8.4</ele>
        <time>2020-06-23T11:44:08Z</time>
      </trkpt>
      <trkpt lat="51.0783" lon="2.5131">
        <ele>8.4</ele>
        <time>2020-06-23T11:44:09Z</time>
      </trkpt>
      <trkpt lat="51.07828" lon="2.51311">
        <ele>8.4</ele>
        <time>2020-06-23T11:44:10Z</time>
      </trkpt>
      <trkpt lat="51.07825" lon="2.51312">
        <ele>8.4</ele>
        <time>2020-06-23T11:44:11Z</time>
      </trkpt>
      <trkpt lat="51.07821" lon="2.51313">
        <ele>8.2</ele>
        <time>2020-06-23T11:44:12Z</time>
      </trkpt>
      <trkpt lat="51.07817" lon="2.51314">
        <ele>8.1</ele>
        <time>2020-06-23T11:44:13Z</time>
      </trkpt>
      <trkpt lat="51.07814" lon="2.51316">
        <ele>8</ele>
        <time>2020-06-23T11:44:14Z</time>
      </trkpt>
      <trkpt lat="51.07809" lon="2.51318">
        <ele>7.9</ele>
        <time>2020-06-23T11:44:15Z</time>
      </trkpt>
      <trkpt lat="51.07806" lon="2.5132">
        <ele>7.9</ele>
        <time>2020-06-23T11:44:16Z</time>
      </trkpt>
      <trkpt lat="51.07803" lon="2.51322">
        <ele>7.8</ele>
        <time>2020-06-23T11:44:17Z</time>
      </trkpt>
      <trkpt lat="51.07799" lon="2.51325">
        <ele>7.7</ele>
        <time>2020-06-23T11:44:18Z</time>
      </trkpt>
      <trkpt lat="51.07795" lon="2.51327">
        <ele>7.6</ele>
        <time>2020-06-23T11:44:19Z</time>
      </trkpt>
      <trkpt lat="51.07791" lon="2.51329">
        <ele>7.5</ele>
        <time>2020-06-23T11:44:20Z</time>
      </trkpt>
      <trkpt lat="51.07786" lon="2.51333">
        <ele>7.4</ele>
        <time>2020-06-23T11:44:21Z</time>
      </trkpt>
      <trkpt lat="51.07782" lon="2.51334">
        <ele>7.3</ele>
        <time>2020-06-23T11:44:22Z</time>
      </trkpt>
      <trkpt lat="51.07778" lon="2.51336">
        <ele>7.2</ele>
        <time>2020-06-23T11:44:23Z</time>
      </trkpt>
      <trkpt lat="51.07774" lon="2.51337">
        <ele>7.1</ele>
        <time>2020-06-23T11:44:24Z</time>
      </trkpt>
      <trkpt lat="51.07772" lon="2.5134">
        <ele>7.1</ele>
        <time>2020-06-23T11:44:25Z</time>
      </trkpt>
      <trkpt lat="51.07768" lon="2.51344">
        <ele>7</ele>
        <time>2020-06-23T11:44:26Z</time>
      </trkpt>
      <trkpt lat="51.07765" lon="2.51344">
        <ele>6.9</ele>
        <time>2020-06-23T11:44:27Z</time>
      </trkpt>
      <trkpt lat="51.07761" lon="2.51344">
        <ele>6.9</ele>
        <time>2020-06-23T11:44:28Z</time>
      </trkpt>
      <trkpt lat="51.07757" lon="2.51346">
        <ele>6.9</ele>
        <time>2020-06-23T11:44:29Z</time>
      </trkpt>
      <trkpt lat="51.07753" lon="2.51347">
        <ele>6.9</ele>
        <time>2020-06-23T11:44:30Z</time>
      </trkpt>
      <trkpt lat="51.07749" lon="2.51349">
        <ele>6.9</ele>
        <time>2020-06-23T11:44:31Z</time>
      </trkpt>
      <trkpt lat="51.07744" lon="2.5135">
        <ele>6.8</ele>
        <time>2020-06-23T11:44:32Z</time>
      </trkpt>
      <trkpt lat="51.0774" lon="2.51351">
        <ele>6.8</ele>
        <time>2020-06-23T11:44:33Z</time>
      </trkpt>
      <trkpt lat="51.07736" lon="2.51352">
        <ele>6.8</ele>
        <time>2020-06-23T11:44:34Z</time>
      </trkpt>
      <trkpt lat="51.07732" lon="2.51353">
        <ele>6.8</ele>
        <time>2020-06-23T11:44:35Z</time>
      </trkpt>
      <trkpt lat="51.07727" lon="2.51354">
        <ele>6.8</ele>
        <time>2020-06-23T11:44:36Z</time>
      </trkpt>
      <trkpt lat="51.07723" lon="2.51356">
        <ele>6.8</ele>
        <time>2020-06-23T11:44:37Z</time>
      </trkpt>
      <trkpt lat="51.07719" lon="2.51358">
        <ele>6.8</ele>
        <time>2020-06-23T11:44:38Z</time>
      </trkpt>
      <trkpt lat="51.07715" lon="2.51359">
        <ele>6.7</ele>
        <time>2020-06-23T11:44:39Z</time>
      </trkpt>
      <trkpt lat="51.07711" lon="2.51363">
        <ele>6.7</ele>
        <time>2020-06-23T11:44:40Z</time>
      </trkpt>
      <trkpt lat="51.07705" lon="2.51367">
        <ele>6.6</ele>
        <time>2020-06-23T11:44:41Z</time>
      </trkpt>
      <trkpt lat="51.07701" lon="2.51369">
        <ele>6.6</ele>
        <time>2020-06-23T11:44:42Z</time>
      </trkpt>
      <trkpt lat="51.07696" lon="2.5137">
        <ele>6.6</ele>
        <time>2020-06-23T11:44:43Z</time>
      </trkpt>
      <trkpt lat="51.07692" lon="2.51373">
        <ele>6.5</ele>
        <time>2020-06-23T11:44:44Z</time>
      </trkpt>
      <trkpt lat="51.07688" lon="2.51374">
        <ele>6.5</ele>
        <time>2020-06-23T11:44:45Z</time>
      </trkpt>
      <trkpt lat="51.07684" lon="2.51375">
        <ele>6.5</ele>
        <time>2020-06-23T11:44:46Z</time>
      </trkpt>
      <trkpt lat="51.0768" lon="2.51378">
        <ele>6.4</ele>
        <time>2020-06-23T11:44:47Z</time>
      </trkpt>
      <trkpt lat="51.07675" lon="2.5138">
        <ele>6.4</ele>
        <time>2020-06-23T11:44:48Z</time>
      </trkpt>
      <trkpt lat="51.0767" lon="2.51381">
        <ele>6.3</ele>
        <time>2020-06-23T11:44:49Z</time>
      </trkpt>
      <trkpt lat="51.07665" lon="2.51382">
        <ele>6.3</ele>
        <time>2020-06-23T11:44:50Z</time>
      </trkpt>
      <trkpt lat="51.0766" lon="2.51383">
        <ele>6.2</ele>
        <time>2020-06-23T11:44:51Z</time>
      </trkpt>
      <trkpt lat="51.07657" lon="2.51385">
        <ele>6.2</ele>
        <time>2020-06-23T11:44:52Z</time>
      </trkpt>
      <trkpt lat="51.07653" lon="2.51387">
        <ele>6.1</ele>
        <time>2020-06-23T11:44:53Z</time>
      </trkpt>
      <trkpt lat="51.07649" lon="2.51389">
        <ele>6.1</ele>
        <time>2020-06-23T11:44:54Z</time>
      </trkpt>
      <trkpt lat="51.07646" lon="2.51391">
        <ele>6.1</ele>
        <time>2020-06-23T11:44:55Z</time>
      </trkpt>
      <trkpt lat="51.07642" lon="2.51391">
        <ele>6.1</ele>
        <time>2020-06-23T11:44:56Z</time>
      </trkpt>
      <trkpt lat="51.07637" lon="2.51391">
        <ele>6.1</ele>
        <time>2020-06-23T11:44:57Z</time>
      </trkpt>
      <trkpt lat="51.07633" lon="2.51393">
        <ele>6.1</ele>
        <time>2020-06-23T11:44:58Z</time>
      </trkpt>
      <trkpt lat="51.07629" lon="2.51393">
        <ele>6.1</ele>
        <time>2020-06-23T11:44:59Z</time>
      </trkpt>
      <trkpt lat="51.07625" lon="2.51394">
        <ele>6.1</ele>
        <time>2020-06-23T11:45:00Z</time>
      </trkpt>
      <trkpt lat="51.07622" lon="2.51395">
        <ele>6.1</ele>
        <time>2020-06-23T11:45:01Z</time>
      </trkpt>
      <trkpt lat="51.07618" lon="2.51396">
        <ele>6.1</ele>
        <time>2020-06-23T11:45:02Z</time>
      </trkpt>
      <trkpt lat="51.07614" lon="2.51397">
        <ele>6.1</ele>
        <time>2020-06-23T11:45:03Z</time>
      </trkpt>
      <trkpt lat="51.07611" lon="2.51399">
        <ele>6.1</ele>
        <time>2020-06-23T11:45:04Z</time>
      </trkpt>
      <trkpt lat="51.07607" lon="2.51399">
        <ele>6.1</ele>
        <time>2020-06-23T11:45:05Z</time>
      </trkpt>
      <trkpt lat="51.07604" lon="2.514">
        <ele>6.1</ele>
        <time>2020-06-23T11:45:06Z</time>
      </trkpt>
      <trkpt lat="51.07602" lon="2.51402">
        <ele>6.1</ele>
        <time>2020-06-23T11:45:07Z</time>
      </trkpt>
      <trkpt lat="51.07598" lon="2.51403">
        <ele>6.1</ele>
        <time>2020-06-23T11:45:08Z</time>
      </trkpt>
      <trkpt lat="51.07594" lon="2.51404">
        <ele>6.1</ele>
        <time>2020-06-23T11:45:09Z</time>
      </trkpt>
      <trkpt lat="51.0759" lon="2.51403">
        <ele>6.1</ele>
        <time>2020-06-23T11:45:10Z</time>
      </trkpt>
      <trkpt lat="51.07586" lon="2.51404">
        <ele>6.2</ele>
        <time>2020-06-23T11:45:11Z</time>
      </trkpt>
      <trkpt lat="51.07583" lon="2.51405">
        <ele>6.2</ele>
        <time>2020-06-23T11:45:12Z</time>
      </trkpt>
      <trkpt lat="51.0758" lon="2.51406">
        <ele>6.2</ele>
        <time>2020-06-23T11:45:13Z</time>
      </trkpt>
      <trkpt lat="51.07577" lon="2.51409">
        <ele>6.3</ele>
        <time>2020-06-23T11:45:14Z</time>
      </trkpt>
      <trkpt lat="51.07575" lon="2.51411">
        <ele>6.3</ele>
        <time>2020-06-23T11:45:15Z</time>
      </trkpt>
      <trkpt lat="51.07571" lon="2.51413">
        <ele>6.3</ele>
        <time>2020-06-23T11:45:16Z</time>
      </trkpt>
      <trkpt lat="51.0757" lon="2.51415">
        <ele>6.4</ele>
        <time>2020-06-23T11:45:17Z</time>
      </trkpt>
      <trkpt lat="51.07568" lon="2.51416">
        <ele>6.4</ele>
        <time>2020-06-23T11:45:18Z</time>
      </trkpt>
      <trkpt lat="51.07568" lon="2.51416">
        <ele>6.4</ele>
        <time>2020-06-23T11:45:19Z</time>
      </trkpt>
      <trkpt lat="51.07567" lon="2.51416">
        <ele>6.4</ele>
        <time>2020-06-23T11:45:20Z</time>
      </trkpt>
      <trkpt lat="51.07567" lon="2.51416">
        <ele>6.4</ele>
        <time>2020-06-23T11:45:21Z</time>
      </trkpt>
      <trkpt lat="51.07564" lon="2.51415">
        <ele>6.4</ele>
        <time>2020-06-23T11:45:22Z</time>
      </trkpt>
      <trkpt lat="51.07562" lon="2.51415">
        <ele>6.4</ele>
        <time>2020-06-23T11:45:23Z</time>
      </trkpt>
      <trkpt lat="51.07561" lon="2.51415">
        <ele>6.4</ele>
        <time>2020-06-23T11:45:24Z</time>
      </trkpt>
      <trkpt lat="51.07561" lon="2.51415">
        <ele>6.4</ele>
        <time>2020-06-23T11:45:25Z</time>
      </trkpt>
      <trkpt lat="51.07561" lon="2.51415">
        <ele>6.4</ele>
        <time>2020-06-23T11:45:26Z</time>
      </trkpt>
      <trkpt lat="51.0756" lon="2.51415">
        <ele>6.4</ele>
        <time>2020-06-23T11:45:27Z</time>
      </trkpt>
      <trkpt lat="51.0756" lon="2.51415">
        <ele>6.4</ele>
        <time>2020-06-23T11:45:28Z</time>
      </trkpt>
      <trkpt lat="51.0756" lon="2.51415">
        <ele>6.4</ele>
        <time>2020-06-23T11:45:29Z</time>
      </trkpt>
      <trkpt lat="51.07559" lon="2.51416">
        <ele>6.4</ele>
        <time>2020-06-23T11:45:30Z</time>
      </trkpt>
      <trkpt lat="51.07559" lon="2.51417">
        <ele>6.4</ele>
        <time>2020-06-23T11:45:31Z</time>
      </trkpt>
      <trkpt lat="51.07559" lon="2.51418">
        <ele>6.4</ele>
        <time>2020-06-23T11:45:32Z</time>
      </trkpt>
      <trkpt lat="51.07559" lon="2.51419">
        <ele>6.4</ele>
        <time>2020-06-23T11:45:33Z</time>
      </trkpt>
      <trkpt lat="51.07559" lon="2.5142">
        <ele>6.4</ele>
        <time>2020-06-23T11:45:34Z</time>
      </trkpt>
      <trkpt lat="51.07558" lon="2.51421">
        <ele>6.4</ele>
        <time>2020-06-23T11:45:35Z</time>
      </trkpt>
      <trkpt lat="51.07558" lon="2.51422">
        <ele>6.4</ele>
        <time>2020-06-23T11:45:36Z</time>
      </trkpt>
      <trkpt lat="51.07558" lon="2.51428">
        <ele>6.3</ele>
        <time>2020-06-23T11:45:37Z</time>
      </trkpt>
      <trkpt lat="51.07558" lon="2.51429">
        <ele>6.3</ele>
        <time>2020-06-23T11:45:38Z</time>
      </trkpt>
      <trkpt lat="51.0756" lon="2.51437">
        <ele>6.1</ele>
        <time>2020-06-23T11:45:39Z</time>
      </trkpt>
      <trkpt lat="51.0756" lon="2.51442">
        <ele>6.1</ele>
        <time>2020-06-23T11:45:40Z</time>
      </trkpt>
      <trkpt lat="51.07561" lon="2.51451">
        <ele>5.9</ele>
        <time>2020-06-23T11:45:41Z</time>
      </trkpt>
      <trkpt lat="51.07564" lon="2.51459">
        <ele>5.8</ele>
        <time>2020-06-23T11:45:42Z</time>
      </trkpt>
      <trkpt lat="51.07566" lon="2.51465">
        <ele>5.6</ele>
        <time>2020-06-23T11:45:43Z</time>
      </trkpt>
      <trkpt lat="51.07569" lon="2.51473">
        <ele>5.5</ele>
        <time>2020-06-23T11:45:44Z</time>
      </trkpt>
      <trkpt lat="51.07571" lon="2.5148">
        <ele>5.4</ele>
        <time>2020-06-23T11:45:45Z</time>
      </trkpt>
      <trkpt lat="51.0757" lon="2.5149">
        <ele>5.3</ele>
        <time>2020-06-23T11:45:46Z</time>
      </trkpt>
      <trkpt lat="51.07572" lon="2.51497">
        <ele>5.2</ele>
        <time>2020-06-23T11:45:47Z</time>
      </trkpt>
      <trkpt lat="51.07574" lon="2.51503">
        <ele>5.2</ele>
        <time>2020-06-23T11:45:48Z</time>
      </trkpt>
      <trkpt lat="51.07576" lon="2.5151">
        <ele>5.2</ele>
        <time>2020-06-23T11:45:49Z</time>
      </trkpt>
      <trkpt lat="51.07577" lon="2.51517">
        <ele>5.2</ele>
        <time>2020-06-23T11:45:50Z</time>
      </trkpt>
      <trkpt lat="51.07579" lon="2.51524">
        <ele>5.2</ele>
        <time>2020-06-23T11:45:51Z</time>
      </trkpt>
      <trkpt lat="51.0758" lon="2.51531">
        <ele>5.2</ele>
        <time>2020-06-23T11:45:52Z</time>
      </trkpt>
      <trkpt lat="51.07581" lon="2.51538">
        <ele>5.2</ele>
        <time>2020-06-23T11:45:53Z</time>
      </trkpt>
      <trkpt lat="51.07583" lon="2.51545">
        <ele>5.2</ele>
        <time>2020-06-23T11:45:54Z</time>
      </trkpt>
      <trkpt lat="51.07583" lon="2.51552">
        <ele>5.2</ele>
        <time>2020-06-23T11:45:55Z</time>
      </trkpt>
      <trkpt lat="51.07586" lon="2.51556">
        <ele>5.2</ele>
        <time>2020-06-23T11:45:56Z</time>
      </trkpt>
      <trkpt lat="51.07587" lon="2.51561">
        <ele>5.2</ele>
        <time>2020-06-23T11:45:57Z</time>
      </trkpt>
      <trkpt lat="51.07588" lon="2.51567">
        <ele>5.2</ele>
        <time>2020-06-23T11:45:58Z</time>
      </trkpt>
      <trkpt lat="51.07589" lon="2.51572">
        <ele>5.2</ele>
        <time>2020-06-23T11:45:59Z</time>
      </trkpt>
      <trkpt lat="51.07589" lon="2.5158">
        <ele>5.2</ele>
        <time>2020-06-23T11:46:00Z</time>
      </trkpt>
      <trkpt lat="51.07591" lon="2.51585">
        <ele>5.2</ele>
        <time>2020-06-23T11:46:01Z</time>
      </trkpt>
      <trkpt lat="51.07591" lon="2.51591">
        <ele>5.2</ele>
        <time>2020-06-23T11:46:02Z</time>
      </trkpt>
      <trkpt lat="51.07592" lon="2.51599">
        <ele>5.3</ele>
        <time>2020-06-23T11:46:03Z</time>
      </trkpt>
      <trkpt lat="51.07594" lon="2.51603">
        <ele>5.3</ele>
        <time>2020-06-23T11:46:04Z</time>
      </trkpt>
      <trkpt lat="51.07595" lon="2.51608">
        <ele>5.3</ele>
        <time>2020-06-23T11:46:05Z</time>
      </trkpt>
      <trkpt lat="51.07596" lon="2.51614">
        <ele>5.3</ele>
        <time>2020-06-23T11:46:06Z</time>
      </trkpt>
      <trkpt lat="51.07597" lon="2.51618">
        <ele>5.3</ele>
        <time>2020-06-23T11:46:07Z</time>
      </trkpt>
      <trkpt lat="51.07597" lon="2.51623">
        <ele>5.3</ele>
        <time>2020-06-23T11:46:08Z</time>
      </trkpt>
      <trkpt lat="51.07597" lon="2.51624">
        <ele>5.3</ele>
        <time>2020-06-23T11:46:09Z</time>
      </trkpt>
      <trkpt lat="51.07596" lon="2.51627">
        <ele>5.3</ele>
        <time>2020-06-23T11:46:10Z</time>
      </trkpt>
      <trkpt lat="51.07595" lon="2.51628">
        <ele>5.3</ele>
        <time>2020-06-23T11:46:11Z</time>
      </trkpt>
      <trkpt lat="51.07592" lon="2.51628">
        <ele>5.3</ele>
        <time>2020-06-23T11:46:12Z</time>
      </trkpt>
      <trkpt lat="51.07589" lon="2.51625">
        <ele>5.3</ele>
        <time>2020-06-23T11:46:13Z</time>
      </trkpt>
      <trkpt lat="51.07587" lon="2.51624">
        <ele>5.3</ele>
        <time>2020-06-23T11:46:14Z</time>
      </trkpt>
      <trkpt lat="51.07585" lon="2.51621">
        <ele>5.4</ele>
        <time>2020-06-23T11:46:15Z</time>
      </trkpt>
      <trkpt lat="51.07581" lon="2.51619">
        <ele>5.4</ele>
        <time>2020-06-23T11:46:16Z</time>
      </trkpt>
      <trkpt lat="51.07579" lon="2.51617">
        <ele>5.4</ele>
        <time>2020-06-23T11:46:17Z</time>
      </trkpt>
      <trkpt lat="51.07575" lon="2.51615">
        <ele>5.4</ele>
        <time>2020-06-23T11:46:18Z</time>
      </trkpt>
      <trkpt lat="51.07574" lon="2.51615">
        <ele>5.4</ele>
        <time>2020-06-23T11:46:19Z</time>
      </trkpt>
      <trkpt lat="51.07574" lon="2.51615">
        <ele>5.4</ele>
        <time>2020-06-23T11:46:20Z</time>
      </trkpt>
      <trkpt lat="51.07574" lon="2.51616">
        <ele>5.4</ele>
        <time>2020-06-23T11:46:21Z</time>
      </trkpt>
      <trkpt lat="51.07575" lon="2.51616">
        <ele>5.4</ele>
        <time>2020-06-23T11:46:22Z</time>
      </trkpt>
      <trkpt lat="51.07575" lon="2.51617">
        <ele>5.4</ele>
        <time>2020-06-23T11:46:23Z</time>
      </trkpt>
      <trkpt lat="51.07576" lon="2.51618">
        <ele>5.4</ele>
        <time>2020-06-23T11:46:24Z</time>
      </trkpt>
      <trkpt lat="51.07576" lon="2.51618">
        <ele>5.4</ele>
        <time>2020-06-23T11:46:25Z</time>
      </trkpt>
      <trkpt lat="51.07577" lon="2.51619">
        <ele>5.5</ele>
        <time>2020-06-23T11:46:26Z</time>
      </trkpt>
      <trkpt lat="51.07578" lon="2.51619">
        <ele>5.5</ele>
        <time>2020-06-23T11:46:27Z</time>
      </trkpt>
      <trkpt lat="51.07578" lon="2.5162">
        <ele>5.5</ele>
        <time>2020-06-23T11:46:28Z</time>
      </trkpt>
      <trkpt lat="51.07579" lon="2.51621">
        <ele>5.5</ele>
        <time>2020-06-23T11:46:29Z</time>
      </trkpt>
      <trkpt lat="51.07579" lon="2.51621">
        <ele>5.5</ele>
        <time>2020-06-23T11:46:30Z</time>
      </trkpt>
      <trkpt lat="51.0758" lon="2.51622">
        <ele>5.5</ele>
        <time>2020-06-23T11:46:31Z</time>
      </trkpt>
      <trkpt lat="51.0758" lon="2.51622">
        <ele>5.5</ele>
        <time>2020-06-23T11:47:27Z</time>
      </trkpt>
      <trkpt lat="51.07581" lon="2.51623">
        <ele>5.5</ele>
        <time>2020-06-23T11:47:28Z</time>
      </trkpt>
      <trkpt lat="51.07584" lon="2.51624">
        <ele>5.5</ele>
        <time>2020-06-23T11:47:29Z</time>
      </trkpt>
      <trkpt lat="51.07586" lon="2.51625">
        <ele>5.5</ele>
        <time>2020-06-23T11:47:30Z</time>
      </trkpt>
      <trkpt lat="51.07588" lon="2.51626">
        <ele>5.5</ele>
        <time>2020-06-23T11:47:31Z</time>
      </trkpt>
      <trkpt lat="51.07588" lon="2.51628">
        <ele>5.5</ele>
        <time>2020-06-23T11:47:32Z</time>
      </trkpt>
      <trkpt lat="51.07589" lon="2.51631">
        <ele>5.5</ele>
        <time>2020-06-23T11:47:33Z</time>
      </trkpt>
      <trkpt lat="51.07589" lon="2.51631">
        <ele>5.6</ele>
        <time>2020-06-23T11:47:34Z</time>
      </trkpt>
      <trkpt lat="51.07589" lon="2.51632">
        <ele>5.6</ele>
        <time>2020-06-23T11:47:35Z</time>
      </trkpt>
      <trkpt lat="51.07589" lon="2.51633">
        <ele>5.6</ele>
        <time>2020-06-23T11:47:36Z</time>
      </trkpt>
      <trkpt lat="51.07589" lon="2.51634">
        <ele>5.6</ele>
        <time>2020-06-23T11:47:37Z</time>
      </trkpt>
      <trkpt lat="51.07589" lon="2.51635">
        <ele>5.6</ele>
        <time>2020-06-23T11:47:38Z</time>
      </trkpt>
      <trkpt lat="51.07589" lon="2.51636">
        <ele>5.7</ele>
        <time>2020-06-23T11:47:39Z</time>
      </trkpt>
      <trkpt lat="51.07589" lon="2.51637">
        <ele>5.7</ele>
        <time>2020-06-23T11:47:40Z</time>
      </trkpt>
      <trkpt lat="51.07589" lon="2.51638">
        <ele>5.7</ele>
        <time>2020-06-23T11:47:41Z</time>
      </trkpt>
      <trkpt lat="51.07589" lon="2.51639">
        <ele>5.7</ele>
        <time>2020-06-23T11:47:42Z</time>
      </trkpt>
      <trkpt lat="51.07589" lon="2.5164">
        <ele>5.7</ele>
        <time>2020-06-23T11:47:43Z</time>
      </trkpt>
      <trkpt lat="51.07589" lon="2.51641">
        <ele>5.7</ele>
        <time>2020-06-23T11:47:44Z</time>
      </trkpt>
      <trkpt lat="51.07589" lon="2.51642">
        <ele>5.7</ele>
        <time>2020-06-23T11:48:33Z</time>
      </trkpt>
      <trkpt lat="51.07589" lon="2.51643">
        <ele>5.7</ele>
        <time>2020-06-23T11:48:34Z</time>
      </trkpt>
      <trkpt lat="51.07586" lon="2.51647">
        <ele>5.7</ele>
        <time>2020-06-23T11:48:35Z</time>
      </trkpt>
      <trkpt lat="51.07582" lon="2.5165">
        <ele>5.7</ele>
        <time>2020-06-23T11:48:36Z</time>
      </trkpt>
      <trkpt lat="51.07579" lon="2.51653">
        <ele>5.7</ele>
        <time>2020-06-23T11:48:37Z</time>
      </trkpt>
      <trkpt lat="51.07575" lon="2.51656">
        <ele>5.7</ele>
        <time>2020-06-23T11:48:38Z</time>
      </trkpt>
      <trkpt lat="51.07572" lon="2.51657">
        <ele>5.8</ele>
        <time>2020-06-23T11:48:39Z</time>
      </trkpt>
      <trkpt lat="51.07568" lon="2.5166">
        <ele>5.8</ele>
        <time>2020-06-23T11:48:40Z</time>
      </trkpt>
      <trkpt lat="51.07566" lon="2.51664">
        <ele>5.9</ele>
        <time>2020-06-23T11:48:41Z</time>
      </trkpt>
      <trkpt lat="51.07564" lon="2.51668">
        <ele>5.9</ele>
        <time>2020-06-23T11:48:42Z</time>
      </trkpt>
      <trkpt lat="51.07562" lon="2.51673">
        <ele>6</ele>
        <time>2020-06-23T11:48:43Z</time>
      </trkpt>
      <trkpt lat="51.0756" lon="2.51678">
        <ele>6</ele>
        <time>2020-06-23T11:48:44Z</time>
      </trkpt>
      <trkpt lat="51.07557" lon="2.51682">
        <ele>6.1</ele>
        <time>2020-06-23T11:48:45Z</time>
      </trkpt>
      <trkpt lat="51.07554" lon="2.51686">
        <ele>6.1</ele>
        <time>2020-06-23T11:48:46Z</time>
      </trkpt>
      <trkpt lat="51.0755" lon="2.51691">
        <ele>6.2</ele>
        <time>2020-06-23T11:48:47Z</time>
      </trkpt>
      <trkpt lat="51.07546" lon="2.51695">
        <ele>6.3</ele>
        <time>2020-06-23T11:48:48Z</time>
      </trkpt>
      <trkpt lat="51.07542" lon="2.51698">
        <ele>6.3</ele>
        <time>2020-06-23T11:48:49Z</time>
      </trkpt>
      <trkpt lat="51.07538" lon="2.51701">
        <ele>6.4</ele>
        <time>2020-06-23T11:48:50Z</time>
      </trkpt>
      <trkpt lat="51.07534" lon="2.51704">
        <ele>6.4</ele>
        <time>2020-06-23T11:48:51Z</time>
      </trkpt>
      <trkpt lat="51.07529" lon="2.51707">
        <ele>6.4</ele>
        <time>2020-06-23T11:48:52Z</time>
      </trkpt>
      <trkpt lat="51.07525" lon="2.51711">
        <ele>6.5</ele>
        <time>2020-06-23T11:48:53Z</time>
      </trkpt>
      <trkpt lat="51.07516" lon="2.51708">
        <ele>6.5</ele>
        <time>2020-06-23T11:48:54Z</time>
      </trkpt>
      <trkpt lat="51.07511" lon="2.51711">
        <ele>6.6</ele>
        <time>2020-06-23T11:48:55Z</time>
      </trkpt>
      <trkpt lat="51.07506" lon="2.51715">
        <ele>6.6</ele>
        <time>2020-06-23T11:48:56Z</time>
      </trkpt>
      <trkpt lat="51.07501" lon="2.51718">
        <ele>6.7</ele>
        <time>2020-06-23T11:48:57Z</time>
      </trkpt>
      <trkpt lat="51.07497" lon="2.51721">
        <ele>6.7</ele>
        <time>2020-06-23T11:48:58Z</time>
      </trkpt>
      <trkpt lat="51.07492" lon="2.51723">
        <ele>6.8</ele>
        <time>2020-06-23T11:48:59Z</time>
      </trkpt>
      <trkpt lat="51.07487" lon="2.51726">
        <ele>6.9</ele>
        <time>2020-06-23T11:49:00Z</time>
      </trkpt>
      <trkpt lat="51.07482" lon="2.51728">
        <ele>6.9</ele>
        <time>2020-06-23T11:49:01Z</time>
      </trkpt>
      <trkpt lat="51.07477" lon="2.5173">
        <ele>7</ele>
        <time>2020-06-23T11:49:02Z</time>
      </trkpt>
      <trkpt lat="51.07473" lon="2.51734">
        <ele>7.1</ele>
        <time>2020-06-23T11:49:03Z</time>
      </trkpt>
      <trkpt lat="51.07467" lon="2.51737">
        <ele>7.2</ele>
        <time>2020-06-23T11:49:04Z</time>
      </trkpt>
      <trkpt lat="51.07462" lon="2.51739">
        <ele>7.3</ele>
        <time>2020-06-23T11:49:05Z</time>
      </trkpt>
      <trkpt lat="51.07457" lon="2.51743">
        <ele>7.3</ele>
        <time>2020-06-23T11:49:06Z</time>
      </trkpt>
      <trkpt lat="51.07452" lon="2.51745">
        <ele>7.4</ele>
        <time>2020-06-23T11:49:07Z</time>
      </trkpt>
      <trkpt lat="51.07447" lon="2.51748">
        <ele>7.4</ele>
        <time>2020-06-23T11:49:08Z</time>
      </trkpt>
      <trkpt lat="51.07442" lon="2.51751">
        <ele>7.5</ele>
        <time>2020-06-23T11:49:09Z</time>
      </trkpt>
      <trkpt lat="51.07437" lon="2.51754">
        <ele>7.5</ele>
        <time>2020-06-23T11:49:10Z</time>
      </trkpt>
      <trkpt lat="51.07432" lon="2.51756">
        <ele>7.6</ele>
        <time>2020-06-23T11:49:11Z</time>
      </trkpt>
      <trkpt lat="51.07426" lon="2.51759">
        <ele>7.6</ele>
        <time>2020-06-23T11:49:12Z</time>
      </trkpt>
      <trkpt lat="51.07415" lon="2.5175">
        <ele>7.8</ele>
        <time>2020-06-23T11:49:13Z</time>
      </trkpt>
      <trkpt lat="51.0741" lon="2.51753">
        <ele>7.8</ele>
        <time>2020-06-23T11:49:14Z</time>
      </trkpt>
      <trkpt lat="51.07403" lon="2.51755">
        <ele>7.9</ele>
        <time>2020-06-23T11:49:15Z</time>
      </trkpt>
      <trkpt lat="51.07397" lon="2.51758">
        <ele>8</ele>
        <time>2020-06-23T11:49:16Z</time>
      </trkpt>
      <trkpt lat="51.07391" lon="2.5176">
        <ele>8</ele>
        <time>2020-06-23T11:49:17Z</time>
      </trkpt>
      <trkpt lat="51.07385" lon="2.51764">
        <ele>8.1</ele>
        <time>2020-06-23T11:49:18Z</time>
      </trkpt>
      <trkpt lat="51.07379" lon="2.51768">
        <ele>8.2</ele>
        <time>2020-06-23T11:49:19Z</time>
      </trkpt>
      <trkpt lat="51.07373" lon="2.51771">
        <ele>8.3</ele>
        <time>2020-06-23T11:49:20Z</time>
      </trkpt>
      <trkpt lat="51.07368" lon="2.51775">
        <ele>8.4</ele>
        <time>2020-06-23T11:49:21Z</time>
      </trkpt>
      <trkpt lat="51.07362" lon="2.51778">
        <ele>8.4</ele>
        <time>2020-06-23T11:49:22Z</time>
      </trkpt>
      <trkpt lat="51.07356" lon="2.51781">
        <ele>8.5</ele>
        <time>2020-06-23T11:49:23Z</time>
      </trkpt>
      <trkpt lat="51.07349" lon="2.51784">
        <ele>8.7</ele>
        <time>2020-06-23T11:49:24Z</time>
      </trkpt>
      <trkpt lat="51.07343" lon="2.51787">
        <ele>8.9</ele>
        <time>2020-06-23T11:49:25Z</time>
      </trkpt>
      <trkpt lat="51.07337" lon="2.51789">
        <ele>9</ele>
        <time>2020-06-23T11:49:26Z</time>
      </trkpt>
      <trkpt lat="51.07332" lon="2.51793">
        <ele>9.2</ele>
        <time>2020-06-23T11:49:27Z</time>
      </trkpt>
      <trkpt lat="51.07327" lon="2.51796">
        <ele>9.3</ele>
        <time>2020-06-23T11:49:28Z</time>
      </trkpt>
      <trkpt lat="51.07323" lon="2.518">
        <ele>9.5</ele>
        <time>2020-06-23T11:49:29Z</time>
      </trkpt>
      <trkpt lat="51.07318" lon="2.51804">
        <ele>9.6</ele>
        <time>2020-06-23T11:49:30Z</time>
      </trkpt>
      <trkpt lat="51.07312" lon="2.51807">
        <ele>9.7</ele>
        <time>2020-06-23T11:49:31Z</time>
      </trkpt>
      <trkpt lat="51.07307" lon="2.51809">
        <ele>9.8</ele>
        <time>2020-06-23T11:49:32Z</time>
      </trkpt>
      <trkpt lat="51.07301" lon="2.51813">
        <ele>9.8</ele>
        <time>2020-06-23T11:49:33Z</time>
      </trkpt>
      <trkpt lat="51.07297" lon="2.51817">
        <ele>10</ele>
        <time>2020-06-23T11:49:34Z</time>
      </trkpt>
      <trkpt lat="51.07292" lon="2.5182">
        <ele>10.1</ele>
        <time>2020-06-23T11:49:35Z</time>
      </trkpt>
      <trkpt lat="51.07287" lon="2.51824">
        <ele>10.2</ele>
        <time>2020-06-23T11:49:36Z</time>
      </trkpt>
      <trkpt lat="51.07282" lon="2.51827">
        <ele>10.4</ele>
        <time>2020-06-23T11:49:37Z</time>
      </trkpt>
      <trkpt lat="51.07277" lon="2.5183">
        <ele>10.5</ele>
        <time>2020-06-23T11:49:38Z</time>
      </trkpt>
      <trkpt lat="51.07271" lon="2.51832">
        <ele>10.7</ele>
        <time>2020-06-23T11:49:39Z</time>
      </trkpt>
      <trkpt lat="51.07266" lon="2.51835">
        <ele>10.8</ele>
        <time>2020-06-23T11:49:40Z</time>
      </trkpt>
      <trkpt lat="51.07262" lon="2.51837">
        <ele>10.8</ele>
        <time>2020-06-23T11:49:41Z</time>
      </trkpt>
      <trkpt lat="51.07256" lon="2.5184">
        <ele>10.9</ele>
        <time>2020-06-23T11:49:42Z</time>
      </trkpt>
      <trkpt lat="51.07251" lon="2.51843">
        <ele>10.9</ele>
        <time>2020-06-23T11:49:43Z</time>
      </trkpt>
      <trkpt lat="51.07246" lon="2.51844">
        <ele>10.9</ele>
        <time>2020-06-23T11:49:44Z</time>
      </trkpt>
      <trkpt lat="51.07241" lon="2.51846">
        <ele>10.9</ele>
        <time>2020-06-23T11:49:45Z</time>
      </trkpt>
      <trkpt lat="51.07237" lon="2.5185">
        <ele>10.9</ele>
        <time>2020-06-23T11:49:46Z</time>
      </trkpt>
      <trkpt lat="51.07232" lon="2.51852">
        <ele>10.9</ele>
        <time>2020-06-23T11:49:47Z</time>
      </trkpt>
      <trkpt lat="51.07226" lon="2.51854">
        <ele>10.9</ele>
        <time>2020-06-23T11:49:48Z</time>
      </trkpt>
      <trkpt lat="51.07221" lon="2.51856">
        <ele>10.9</ele>
        <time>2020-06-23T11:49:49Z</time>
      </trkpt>
      <trkpt lat="51.07217" lon="2.51858">
        <ele>10.9</ele>
        <time>2020-06-23T11:49:50Z</time>
      </trkpt>
      <trkpt lat="51.07213" lon="2.51861">
        <ele>10.8</ele>
        <time>2020-06-23T11:49:51Z</time>
      </trkpt>
      <trkpt lat="51.07208" lon="2.51864">
        <ele>10.8</ele>
        <time>2020-06-23T11:49:52Z</time>
      </trkpt>
      <trkpt lat="51.07203" lon="2.51865">
        <ele>10.7</ele>
        <time>2020-06-23T11:49:53Z</time>
      </trkpt>
      <trkpt lat="51.07197" lon="2.51867">
        <ele>10.6</ele>
        <time>2020-06-23T11:49:54Z</time>
      </trkpt>
      <trkpt lat="51.07192" lon="2.51869">
        <ele>10.5</ele>
        <time>2020-06-23T11:49:55Z</time>
      </trkpt>
      <trkpt lat="51.07187" lon="2.51872">
        <ele>10.4</ele>
        <time>2020-06-23T11:49:56Z</time>
      </trkpt>
      <trkpt lat="51.07183" lon="2.51876">
        <ele>10.2</ele>
        <time>2020-06-23T11:49:57Z</time>
      </trkpt>
      <trkpt lat="51.07178" lon="2.51881">
        <ele>10</ele>
        <time>2020-06-23T11:49:58Z</time>
      </trkpt>
      <trkpt lat="51.07172" lon="2.51886">
        <ele>9.7</ele>
        <time>2020-06-23T11:49:59Z</time>
      </trkpt>
      <trkpt lat="51.07166" lon="2.51889">
        <ele>9.4</ele>
        <time>2020-06-23T11:50:00Z</time>
      </trkpt>
      <trkpt lat="51.0716" lon="2.51892">
        <ele>9.1</ele>
        <time>2020-06-23T11:50:01Z</time>
      </trkpt>
      <trkpt lat="51.07155" lon="2.51895">
        <ele>8.9</ele>
        <time>2020-06-23T11:50:02Z</time>
      </trkpt>
      <trkpt lat="51.07151" lon="2.51897">
        <ele>8.7</ele>
        <time>2020-06-23T11:50:03Z</time>
      </trkpt>
      <trkpt lat="51.07147" lon="2.51899">
        <ele>8.5</ele>
        <time>2020-06-23T11:50:04Z</time>
      </trkpt>
      <trkpt lat="51.07143" lon="2.51901">
        <ele>8.4</ele>
        <time>2020-06-23T11:50:05Z</time>
      </trkpt>
      <trkpt lat="51.0714" lon="2.51903">
        <ele>8.2</ele>
        <time>2020-06-23T11:50:06Z</time>
      </trkpt>
      <trkpt lat="51.07137" lon="2.51905">
        <ele>8.1</ele>
        <time>2020-06-23T11:50:07Z</time>
      </trkpt>
      <trkpt lat="51.07134" lon="2.51908">
        <ele>8</ele>
        <time>2020-06-23T11:50:08Z</time>
      </trkpt>
      <trkpt lat="51.07131" lon="2.5191">
        <ele>7.8</ele>
        <time>2020-06-23T11:50:09Z</time>
      </trkpt>
      <trkpt lat="51.07129" lon="2.51913">
        <ele>7.3</ele>
        <time>2020-06-23T11:50:10Z</time>
      </trkpt>
      <trkpt lat="51.07126" lon="2.51917">
        <ele>7.2</ele>
        <time>2020-06-23T11:50:11Z</time>
      </trkpt>
      <trkpt lat="51.07123" lon="2.51919">
        <ele>7.1</ele>
        <time>2020-06-23T11:50:12Z</time>
      </trkpt>
      <trkpt lat="51.0712" lon="2.51921">
        <ele>7.1</ele>
        <time>2020-06-23T11:50:13Z</time>
      </trkpt>
      <trkpt lat="51.07117" lon="2.51923">
        <ele>7</ele>
        <time>2020-06-23T11:50:14Z</time>
      </trkpt>
      <trkpt lat="51.07114" lon="2.51926">
        <ele>6.9</ele>
        <time>2020-06-23T11:50:15Z</time>
      </trkpt>
      <trkpt lat="51.0711" lon="2.51928">
        <ele>6.8</ele>
        <time>2020-06-23T11:50:16Z</time>
      </trkpt>
      <trkpt lat="51.07106" lon="2.51931">
        <ele>6.7</ele>
        <time>2020-06-23T11:50:17Z</time>
      </trkpt>
      <trkpt lat="51.07103" lon="2.51934">
        <ele>6.7</ele>
        <time>2020-06-23T11:50:18Z</time>
      </trkpt>
      <trkpt lat="51.07099" lon="2.51937">
        <ele>6.6</ele>
        <time>2020-06-23T11:50:19Z</time>
      </trkpt>
      <trkpt lat="51.07095" lon="2.51939">
        <ele>6.6</ele>
        <time>2020-06-23T11:50:20Z</time>
      </trkpt>
      <trkpt lat="51.07091" lon="2.5194">
        <ele>6.5</ele>
        <time>2020-06-23T11:50:21Z</time>
      </trkpt>
      <trkpt lat="51.07088" lon="2.5194">
        <ele>6.5</ele>
        <time>2020-06-23T11:50:22Z</time>
      </trkpt>
      <trkpt lat="51.07085" lon="2.51941">
        <ele>6.5</ele>
        <time>2020-06-23T11:50:23Z</time>
      </trkpt>
      <trkpt lat="51.07083" lon="2.51941">
        <ele>6.5</ele>
        <time>2020-06-23T11:50:24Z</time>
      </trkpt>
      <trkpt lat="51.07081" lon="2.51942">
        <ele>6.4</ele>
        <time>2020-06-23T11:50:25Z</time>
      </trkpt>
      <trkpt lat="51.0708" lon="2.51946">
        <ele>6.4</ele>
        <time>2020-06-23T11:50:26Z</time>
      </trkpt>
      <trkpt lat="51.07079" lon="2.51948">
        <ele>6.4</ele>
        <time>2020-06-23T11:50:27Z</time>
      </trkpt>
      <trkpt lat="51.07079" lon="2.51954">
        <ele>6.4</ele>
        <time>2020-06-23T11:50:28Z</time>
      </trkpt>
      <trkpt lat="51.07078" lon="2.51955">
        <ele>6.4</ele>
        <time>2020-06-23T11:50:29Z</time>
      </trkpt>
      <trkpt lat="51.07079" lon="2.51958">
        <ele>6.4</ele>
        <time>2020-06-23T11:50:30Z</time>
      </trkpt>
      <trkpt lat="51.07081" lon="2.51959">
        <ele>6.4</ele>
        <time>2020-06-23T11:50:31Z</time>
      </trkpt>
      <trkpt lat="51.07082" lon="2.51958">
        <ele>6.4</ele>
        <time>2020-06-23T11:50:32Z</time>
      </trkpt>
      <trkpt lat="51.07082" lon="2.51956">
        <ele>6.4</ele>
        <time>2020-06-23T11:50:33Z</time>
      </trkpt>
      <trkpt lat="51.07082" lon="2.51955">
        <ele>6.4</ele>
        <time>2020-06-23T11:50:34Z</time>
      </trkpt>
      <trkpt lat="51.07082" lon="2.51953">
        <ele>6.4</ele>
        <time>2020-06-23T11:50:35Z</time>
      </trkpt>
      <trkpt lat="51.07082" lon="2.51952">
        <ele>6.4</ele>
        <time>2020-06-23T11:50:36Z</time>
      </trkpt>
      <trkpt lat="51.07081" lon="2.51947">
        <ele>6.3</ele>
        <time>2020-06-23T11:50:37Z</time>
      </trkpt>
      <trkpt lat="51.07081" lon="2.51941">
        <ele>6.3</ele>
        <time>2020-06-23T11:50:38Z</time>
      </trkpt>
      <trkpt lat="51.0708" lon="2.51936">
        <ele>6.3</ele>
        <time>2020-06-23T11:50:39Z</time>
      </trkpt>
      <trkpt lat="51.07079" lon="2.5193">
        <ele>6.2</ele>
        <time>2020-06-23T11:50:40Z</time>
      </trkpt>
      <trkpt lat="51.07078" lon="2.51924">
        <ele>6.2</ele>
        <time>2020-06-23T11:50:41Z</time>
      </trkpt>
      <trkpt lat="51.07077" lon="2.51918">
        <ele>6.1</ele>
        <time>2020-06-23T11:50:42Z</time>
      </trkpt>
      <trkpt lat="51.07076" lon="2.51912">
        <ele>6</ele>
        <time>2020-06-23T11:50:43Z</time>
      </trkpt>
      <trkpt lat="51.07075" lon="2.51906">
        <ele>6</ele>
        <time>2020-06-23T11:50:44Z</time>
      </trkpt>
      <trkpt lat="51.07074" lon="2.51901">
        <ele>5.9</ele>
        <time>2020-06-23T11:50:45Z</time>
      </trkpt>
      <trkpt lat="51.07072" lon="2.51896">
        <ele>5.9</ele>
        <time>2020-06-23T11:50:46Z</time>
      </trkpt>
      <trkpt lat="51.07069" lon="2.51891">
        <ele>5.8</ele>
        <time>2020-06-23T11:50:47Z</time>
      </trkpt>
      <trkpt lat="51.07066" lon="2.51886">
        <ele>5.7</ele>
        <time>2020-06-23T11:50:48Z</time>
      </trkpt>
      <trkpt lat="51.07063" lon="2.5188">
        <ele>5.7</ele>
        <time>2020-06-23T11:50:49Z</time>
      </trkpt>
      <trkpt lat="51.0706" lon="2.51875">
        <ele>5.6</ele>
        <time>2020-06-23T11:50:50Z</time>
      </trkpt>
      <trkpt lat="51.07058" lon="2.5187">
        <ele>5.6</ele>
        <time>2020-06-23T11:50:51Z</time>
      </trkpt>
      <trkpt lat="51.07056" lon="2.51865">
        <ele>5.5</ele>
        <time>2020-06-23T11:50:52Z</time>
      </trkpt>
      <trkpt lat="51.07055" lon="2.51859">
        <ele>5.5</ele>
        <time>2020-06-23T11:50:53Z</time>
      </trkpt>
      <trkpt lat="51.07054" lon="2.51853">
        <ele>5.4</ele>
        <time>2020-06-23T11:50:54Z</time>
      </trkpt>
      <trkpt lat="51.07053" lon="2.51847">
        <ele>5.4</ele>
        <time>2020-06-23T11:50:55Z</time>
      </trkpt>
      <trkpt lat="51.07052" lon="2.51841">
        <ele>5.3</ele>
        <time>2020-06-23T11:50:56Z</time>
      </trkpt>
      <trkpt lat="51.07051" lon="2.51836">
        <ele>5.3</ele>
        <time>2020-06-23T11:50:57Z</time>
      </trkpt>
      <trkpt lat="51.0705" lon="2.51831">
        <ele>5.3</ele>
        <time>2020-06-23T11:50:58Z</time>
      </trkpt>
      <trkpt lat="51.07048" lon="2.51825">
        <ele>5.2</ele>
        <time>2020-06-23T11:50:59Z</time>
      </trkpt>
      <trkpt lat="51.07047" lon="2.51823">
        <ele>5.2</ele>
        <time>2020-06-23T11:51:00Z</time>
      </trkpt>
      <trkpt lat="51.07043" lon="2.5182">
        <ele>5.1</ele>
        <time>2020-06-23T11:51:01Z</time>
      </trkpt>
      <trkpt lat="51.07039" lon="2.51819">
        <ele>5.1</ele>
        <time>2020-06-23T11:51:02Z</time>
      </trkpt>
      <trkpt lat="51.07037" lon="2.51819">
        <ele>5.1</ele>
        <time>2020-06-23T11:51:03Z</time>
      </trkpt>
      <trkpt lat="51.07034" lon="2.51821">
        <ele>5.1</ele>
        <time>2020-06-23T11:51:04Z</time>
      </trkpt>
      <trkpt lat="51.07031" lon="2.5182">
        <ele>5.1</ele>
        <time>2020-06-23T11:51:05Z</time>
      </trkpt>
      <trkpt lat="51.0703" lon="2.5182">
        <ele>5.1</ele>
        <time>2020-06-23T11:51:06Z</time>
      </trkpt>
      <trkpt lat="51.07029" lon="2.5182">
        <ele>5.1</ele>
        <time>2020-06-23T11:51:07Z</time>
      </trkpt>
      <trkpt lat="51.07029" lon="2.5182">
        <ele>5.1</ele>
        <time>2020-06-23T11:51:08Z</time>
      </trkpt>
      <trkpt lat="51.07029" lon="2.51819">
        <ele>5.1</ele>
        <time>2020-06-23T11:51:09Z</time>
      </trkpt>
      <trkpt lat="51.07028" lon="2.51819">
        <ele>4.7</ele>
        <time>2020-06-23T11:51:10Z</time>
      </trkpt>
      <trkpt lat="51.07027" lon="2.51819">
        <ele>4.7</ele>
        <time>2020-06-23T11:51:11Z</time>
      </trkpt>
      <trkpt lat="51.07026" lon="2.51819">
        <ele>4.7</ele>
        <time>2020-06-23T11:51:12Z</time>
      </trkpt>
      <trkpt lat="51.07026" lon="2.51819">
        <ele>4.7</ele>
        <time>2020-06-23T11:51:13Z</time>
      </trkpt>
      <trkpt lat="51.07025" lon="2.5182">
        <ele>4.7</ele>
        <time>2020-06-23T11:51:14Z</time>
      </trkpt>
      <trkpt lat="51.07025" lon="2.51822">
        <ele>4.7</ele>
        <time>2020-06-23T11:51:15Z</time>
      </trkpt>
      <trkpt lat="51.07025" lon="2.51823">
        <ele>4.7</ele>
        <time>2020-06-23T11:51:16Z</time>
      </trkpt>
      <trkpt lat="51.07025" lon="2.51825">
        <ele>4.7</ele>
        <time>2020-06-23T11:51:17Z</time>
      </trkpt>
      <trkpt lat="51.07025" lon="2.51827">
        <ele>4.7</ele>
        <time>2020-06-23T11:51:18Z</time>
      </trkpt>
      <trkpt lat="51.07025" lon="2.51833">
        <ele>4.7</ele>
        <time>2020-06-23T11:51:19Z</time>
      </trkpt>
      <trkpt lat="51.07025" lon="2.51836">
        <ele>4.7</ele>
        <time>2020-06-23T11:51:20Z</time>
      </trkpt>
      <trkpt lat="51.07026" lon="2.51842">
        <ele>4.7</ele>
        <time>2020-06-23T11:51:21Z</time>
      </trkpt>
      <trkpt lat="51.07025" lon="2.51848">
        <ele>4.6</ele>
        <time>2020-06-23T11:51:22Z</time>
      </trkpt>
      <trkpt lat="51.07025" lon="2.51853">
        <ele>4.6</ele>
        <time>2020-06-23T11:51:23Z</time>
      </trkpt>
      <trkpt lat="51.07025" lon="2.51858">
        <ele>4.6</ele>
        <time>2020-06-23T11:51:24Z</time>
      </trkpt>
      <trkpt lat="51.07026" lon="2.51863">
        <ele>4.6</ele>
        <time>2020-06-23T11:51:25Z</time>
      </trkpt>
      <trkpt lat="51.07027" lon="2.51868">
        <ele>4.6</ele>
        <time>2020-06-23T11:51:26Z</time>
      </trkpt>
      <trkpt lat="51.07028" lon="2.51874">
        <ele>4.6</ele>
        <time>2020-06-23T11:51:27Z</time>
      </trkpt>
      <trkpt lat="51.07028" lon="2.51876">
        <ele>4.6</ele>
        <time>2020-06-23T11:51:28Z</time>
      </trkpt>
      <trkpt lat="51.07029" lon="2.51882">
        <ele>4.6</ele>
        <time>2020-06-23T11:51:29Z</time>
      </trkpt>
      <trkpt lat="51.0703" lon="2.51884">
        <ele>4.6</ele>
        <time>2020-06-23T11:51:30Z</time>
      </trkpt>
      <trkpt lat="51.07032" lon="2.51889">
        <ele>4.7</ele>
        <time>2020-06-23T11:51:31Z</time>
      </trkpt>
      <trkpt lat="51.07032" lon="2.51892">
        <ele>4.7</ele>
        <time>2020-06-23T11:51:32Z</time>
      </trkpt>
      <trkpt lat="51.07034" lon="2.51896">
        <ele>4.7</ele>
        <time>2020-06-23T11:51:33Z</time>
      </trkpt>
      <trkpt lat="51.07035" lon="2.51901">
        <ele>4.6</ele>
        <time>2020-06-23T11:51:34Z</time>
      </trkpt>
      <trkpt lat="51.07036" lon="2.51906">
        <ele>4.6</ele>
        <time>2020-06-23T11:51:35Z</time>
      </trkpt>
      <trkpt lat="51.07037" lon="2.5191">
        <ele>4.6</ele>
        <time>2020-06-23T11:51:36Z</time>
      </trkpt>
      <trkpt lat="51.07038" lon="2.51916">
        <ele>4.6</ele>
        <time>2020-06-23T11:51:37Z</time>
      </trkpt>
      <trkpt lat="51.07039" lon="2.51921">
        <ele>4.6</ele>
        <time>2020-06-23T11:51:38Z</time>
      </trkpt>
      <trkpt lat="51.07041" lon="2.51927">
        <ele>4.6</ele>
        <time>2020-06-23T11:51:39Z</time>
      </trkpt>
      <trkpt lat="51.07043" lon="2.51934">
        <ele>4.6</ele>
        <time>2020-06-23T11:51:40Z</time>
      </trkpt>
      <trkpt lat="51.07044" lon="2.5194">
        <ele>4.6</ele>
        <time>2020-06-23T11:51:41Z</time>
      </trkpt>
      <trkpt lat="51.07045" lon="2.51947">
        <ele>4.6</ele>
        <time>2020-06-23T11:51:42Z</time>
      </trkpt>
      <trkpt lat="51.07047" lon="2.51953">
        <ele>4.6</ele>
        <time>2020-06-23T11:51:43Z</time>
      </trkpt>
      <trkpt lat="51.07048" lon="2.51958">
        <ele>4.6</ele>
        <time>2020-06-23T11:51:44Z</time>
      </trkpt>
      <trkpt lat="51.07049" lon="2.51966">
        <ele>4.6</ele>
        <time>2020-06-23T11:51:45Z</time>
      </trkpt>
      <trkpt lat="51.07051" lon="2.51974">
        <ele>4.6</ele>
        <time>2020-06-23T11:51:46Z</time>
      </trkpt>
      <trkpt lat="51.07051" lon="2.51981">
        <ele>4.7</ele>
        <time>2020-06-23T11:51:47Z</time>
      </trkpt>
      <trkpt lat="51.07052" lon="2.51992">
        <ele>4.7</ele>
        <time>2020-06-23T11:51:48Z</time>
      </trkpt>
      <trkpt lat="51.07054" lon="2.51999">
        <ele>4.7</ele>
        <time>2020-06-23T11:51:49Z</time>
      </trkpt>
      <trkpt lat="51.07054" lon="2.52008">
        <ele>4.7</ele>
        <time>2020-06-23T11:51:50Z</time>
      </trkpt>
      <trkpt lat="51.07055" lon="2.52013">
        <ele>4.7</ele>
        <time>2020-06-23T11:51:51Z</time>
      </trkpt>
      <trkpt lat="51.07054" lon="2.52021">
        <ele>4.7</ele>
        <time>2020-06-23T11:51:52Z</time>
      </trkpt>
      <trkpt lat="51.07053" lon="2.52027">
        <ele>4.7</ele>
        <time>2020-06-23T11:51:53Z</time>
      </trkpt>
      <trkpt lat="51.07053" lon="2.52037">
        <ele>4.7</ele>
        <time>2020-06-23T11:51:54Z</time>
      </trkpt>
      <trkpt lat="51.07053" lon="2.52043">
        <ele>4.7</ele>
        <time>2020-06-23T11:51:55Z</time>
      </trkpt>
      <trkpt lat="51.07053" lon="2.52053">
        <ele>4.7</ele>
        <time>2020-06-23T11:51:56Z</time>
      </trkpt>
      <trkpt lat="51.07053" lon="2.52059">
        <ele>4.7</ele>
        <time>2020-06-23T11:51:57Z</time>
      </trkpt>
      <trkpt lat="51.07053" lon="2.52068">
        <ele>4.7</ele>
        <time>2020-06-23T11:51:58Z</time>
      </trkpt>
      <trkpt lat="51.07054" lon="2.52074">
        <ele>4.7</ele>
        <time>2020-06-23T11:51:59Z</time>
      </trkpt>
      <trkpt lat="51.07054" lon="2.52081">
        <ele>4.7</ele>
        <time>2020-06-23T11:52:00Z</time>
      </trkpt>
      <trkpt lat="51.07054" lon="2.52087">
        <ele>4.7</ele>
        <time>2020-06-23T11:52:01Z</time>
      </trkpt>
      <trkpt lat="51.07055" lon="2.52095">
        <ele>4.6</ele>
        <time>2020-06-23T11:52:02Z</time>
      </trkpt>
      <trkpt lat="51.07056" lon="2.521">
        <ele>4.6</ele>
        <time>2020-06-23T11:52:03Z</time>
      </trkpt>
      <trkpt lat="51.07057" lon="2.5211">
        <ele>4.6</ele>
        <time>2020-06-23T11:52:04Z</time>
      </trkpt>
      <trkpt lat="51.07058" lon="2.52117">
        <ele>4.6</ele>
        <time>2020-06-23T11:52:05Z</time>
      </trkpt>
      <trkpt lat="51.07059" lon="2.52125">
        <ele>4.6</ele>
        <time>2020-06-23T11:52:06Z</time>
      </trkpt>
      <trkpt lat="51.07059" lon="2.52132">
        <ele>4.6</ele>
        <time>2020-06-23T11:52:07Z</time>
      </trkpt>
      <trkpt lat="51.0706" lon="2.52139">
        <ele>4.6</ele>
        <time>2020-06-23T11:52:08Z</time>
      </trkpt>
      <trkpt lat="51.07062" lon="2.52147">
        <ele>4.6</ele>
        <time>2020-06-23T11:52:09Z</time>
      </trkpt>
      <trkpt lat="51.07064" lon="2.52155">
        <ele>4.6</ele>
        <time>2020-06-23T11:52:10Z</time>
      </trkpt>
      <trkpt lat="51.07065" lon="2.52161">
        <ele>4.6</ele>
        <time>2020-06-23T11:52:11Z</time>
      </trkpt>
      <trkpt lat="51.07066" lon="2.52168">
        <ele>4.6</ele>
        <time>2020-06-23T11:52:12Z</time>
      </trkpt>
      <trkpt lat="51.07067" lon="2.52173">
        <ele>4.6</ele>
        <time>2020-06-23T11:52:13Z</time>
      </trkpt>
      <trkpt lat="51.07067" lon="2.52179">
        <ele>4.6</ele>
        <time>2020-06-23T11:52:14Z</time>
      </trkpt>
      <trkpt lat="51.07068" lon="2.52182">
        <ele>4.6</ele>
        <time>2020-06-23T11:52:15Z</time>
      </trkpt>
      <trkpt lat="51.0707" lon="2.52187">
        <ele>4.7</ele>
        <time>2020-06-23T11:52:16Z</time>
      </trkpt>
      <trkpt lat="51.07071" lon="2.52191">
        <ele>4.7</ele>
        <time>2020-06-23T11:52:17Z</time>
      </trkpt>
      <trkpt lat="51.07073" lon="2.52197">
        <ele>4.8</ele>
        <time>2020-06-23T11:52:18Z</time>
      </trkpt>
      <trkpt lat="51.07074" lon="2.52202">
        <ele>4.8</ele>
        <time>2020-06-23T11:52:19Z</time>
      </trkpt>
      <trkpt lat="51.07074" lon="2.52206">
        <ele>4.8</ele>
        <time>2020-06-23T11:52:20Z</time>
      </trkpt>
      <trkpt lat="51.07075" lon="2.52211">
        <ele>4.7</ele>
        <time>2020-06-23T11:52:21Z</time>
      </trkpt>
      <trkpt lat="51.07075" lon="2.52218">
        <ele>4.7</ele>
        <time>2020-06-23T11:52:22Z</time>
      </trkpt>
      <trkpt lat="51.07076" lon="2.52222">
        <ele>4.7</ele>
        <time>2020-06-23T11:52:23Z</time>
      </trkpt>
      <trkpt lat="51.07077" lon="2.52229">
        <ele>4.7</ele>
        <time>2020-06-23T11:52:24Z</time>
      </trkpt>
      <trkpt lat="51.07077" lon="2.52236">
        <ele>4.7</ele>
        <time>2020-06-23T11:52:25Z</time>
      </trkpt>
      <trkpt lat="51.07077" lon="2.52239">
        <ele>4.7</ele>
        <time>2020-06-23T11:52:26Z</time>
      </trkpt>
      <trkpt lat="51.07078" lon="2.52244">
        <ele>4.7</ele>
        <time>2020-06-23T11:52:27Z</time>
      </trkpt>
      <trkpt lat="51.0708" lon="2.52252">
        <ele>4.7</ele>
        <time>2020-06-23T11:52:28Z</time>
      </trkpt>
      <trkpt lat="51.07081" lon="2.52258">
        <ele>4.7</ele>
        <time>2020-06-23T11:52:29Z</time>
      </trkpt>
      <trkpt lat="51.07081" lon="2.52261">
        <ele>4.7</ele>
        <time>2020-06-23T11:52:30Z</time>
      </trkpt>
      <trkpt lat="51.07082" lon="2.52265">
        <ele>4.7</ele>
        <time>2020-06-23T11:52:31Z</time>
      </trkpt>
      <trkpt lat="51.07083" lon="2.52267">
        <ele>4.7</ele>
        <time>2020-06-23T11:52:32Z</time>
      </trkpt>
      <trkpt lat="51.07083" lon="2.52268">
        <ele>4.7</ele>
        <time>2020-06-23T11:52:33Z</time>
      </trkpt>
      <trkpt lat="51.07083" lon="2.52269">
        <ele>4.7</ele>
        <time>2020-06-23T11:52:34Z</time>
      </trkpt>
      <trkpt lat="51.07084" lon="2.52271">
        <ele>4.7</ele>
        <time>2020-06-23T11:52:35Z</time>
      </trkpt>
      <trkpt lat="51.07085" lon="2.52276">
        <ele>4.7</ele>
        <time>2020-06-23T11:52:36Z</time>
      </trkpt>
      <trkpt lat="51.07086" lon="2.52277">
        <ele>4.7</ele>
        <time>2020-06-23T11:52:37Z</time>
      </trkpt>
      <trkpt lat="51.07087" lon="2.52282">
        <ele>4.7</ele>
        <time>2020-06-23T11:52:38Z</time>
      </trkpt>
      <trkpt lat="51.07088" lon="2.52284">
        <ele>4.7</ele>
        <time>2020-06-23T11:52:39Z</time>
      </trkpt>
      <trkpt lat="51.07088" lon="2.52289">
        <ele>4.7</ele>
        <time>2020-06-23T11:52:40Z</time>
      </trkpt>
      <trkpt lat="51.07089" lon="2.52295">
        <ele>4.7</ele>
        <time>2020-06-23T11:52:41Z</time>
      </trkpt>
      <trkpt lat="51.07089" lon="2.52298">
        <ele>4.7</ele>
        <time>2020-06-23T11:52:42Z</time>
      </trkpt>
      <trkpt lat="51.07089" lon="2.52303">
        <ele>4.7</ele>
        <time>2020-06-23T11:52:43Z</time>
      </trkpt>
      <trkpt lat="51.07089" lon="2.52305">
        <ele>4.7</ele>
        <time>2020-06-23T11:52:44Z</time>
      </trkpt>
      <trkpt lat="51.07089" lon="2.5231">
        <ele>4.7</ele>
        <time>2020-06-23T11:52:45Z</time>
      </trkpt>
      <trkpt lat="51.07089" lon="2.52317">
        <ele>4.7</ele>
        <time>2020-06-23T11:52:46Z</time>
      </trkpt>
      <trkpt lat="51.0709" lon="2.52324">
        <ele>4.7</ele>
        <time>2020-06-23T11:52:47Z</time>
      </trkpt>
      <trkpt lat="51.07091" lon="2.52329">
        <ele>4.7</ele>
        <time>2020-06-23T11:52:48Z</time>
      </trkpt>
      <trkpt lat="51.07092" lon="2.52335">
        <ele>4.6</ele>
        <time>2020-06-23T11:52:49Z</time>
      </trkpt>
      <trkpt lat="51.07092" lon="2.5234">
        <ele>4.6</ele>
        <time>2020-06-23T11:52:50Z</time>
      </trkpt>
      <trkpt lat="51.07092" lon="2.52345">
        <ele>4.6</ele>
        <time>2020-06-23T11:52:51Z</time>
      </trkpt>
      <trkpt lat="51.0709" lon="2.52351">
        <ele>4.6</ele>
        <time>2020-06-23T11:52:52Z</time>
      </trkpt>
      <trkpt lat="51.07089" lon="2.52353">
        <ele>4.5</ele>
        <time>2020-06-23T11:52:53Z</time>
      </trkpt>
      <trkpt lat="51.07088" lon="2.5236">
        <ele>4.5</ele>
        <time>2020-06-23T11:52:54Z</time>
      </trkpt>
      <trkpt lat="51.07088" lon="2.52362">
        <ele>4.5</ele>
        <time>2020-06-23T11:52:55Z</time>
      </trkpt>
      <trkpt lat="51.07087" lon="2.52367">
        <ele>4.5</ele>
        <time>2020-06-23T11:52:56Z</time>
      </trkpt>
      <trkpt lat="51.07087" lon="2.52374">
        <ele>4.5</ele>
        <time>2020-06-23T11:52:57Z</time>
      </trkpt>
      <trkpt lat="51.07086" lon="2.52379">
        <ele>4.5</ele>
        <time>2020-06-23T11:52:58Z</time>
      </trkpt>
      <trkpt lat="51.07086" lon="2.52387">
        <ele>4.4</ele>
        <time>2020-06-23T11:52:59Z</time>
      </trkpt>
      <trkpt lat="51.07086" lon="2.52394">
        <ele>4.4</ele>
        <time>2020-06-23T11:53:00Z</time>
      </trkpt>
      <trkpt lat="51.07086" lon="2.52402">
        <ele>4.4</ele>
        <time>2020-06-23T11:53:01Z</time>
      </trkpt>
      <trkpt lat="51.07086" lon="2.52409">
        <ele>4.4</ele>
        <time>2020-06-23T11:53:02Z</time>
      </trkpt>
      <trkpt lat="51.07087" lon="2.52417">
        <ele>4.3</ele>
        <time>2020-06-23T11:53:03Z</time>
      </trkpt>
      <trkpt lat="51.07089" lon="2.52424">
        <ele>4.3</ele>
        <time>2020-06-23T11:53:04Z</time>
      </trkpt>
      <trkpt lat="51.0709" lon="2.52432">
        <ele>4.3</ele>
        <time>2020-06-23T11:53:05Z</time>
      </trkpt>
      <trkpt lat="51.0709" lon="2.52438">
        <ele>4.3</ele>
        <time>2020-06-23T11:53:06Z</time>
      </trkpt>
      <trkpt lat="51.0709" lon="2.52445">
        <ele>4.3</ele>
        <time>2020-06-23T11:53:07Z</time>
      </trkpt>
      <trkpt lat="51.07091" lon="2.52451">
        <ele>4.3</ele>
        <time>2020-06-23T11:53:08Z</time>
      </trkpt>
      <trkpt lat="51.07091" lon="2.52459">
        <ele>4.3</ele>
        <time>2020-06-23T11:53:09Z</time>
      </trkpt>
      <trkpt lat="51.07092" lon="2.52464">
        <ele>4.2</ele>
        <time>2020-06-23T11:53:10Z</time>
      </trkpt>
      <trkpt lat="51.07093" lon="2.52469">
        <ele>4.2</ele>
        <time>2020-06-23T11:53:11Z</time>
      </trkpt>
      <trkpt lat="51.07095" lon="2.52475">
        <ele>4.2</ele>
        <time>2020-06-23T11:53:12Z</time>
      </trkpt>
      <trkpt lat="51.07098" lon="2.52481">
        <ele>4.2</ele>
        <time>2020-06-23T11:53:13Z</time>
      </trkpt>
      <trkpt lat="51.07102" lon="2.52488">
        <ele>4.1</ele>
        <time>2020-06-23T11:53:14Z</time>
      </trkpt>
      <trkpt lat="51.07105" lon="2.52491">
        <ele>4.1</ele>
        <time>2020-06-23T11:53:15Z</time>
      </trkpt>
      <trkpt lat="51.07108" lon="2.52493">
        <ele>4.1</ele>
        <time>2020-06-23T11:53:16Z</time>
      </trkpt>
      <trkpt lat="51.0711" lon="2.52498">
        <ele>4.1</ele>
        <time>2020-06-23T11:53:17Z</time>
      </trkpt>
      <trkpt lat="51.07112" lon="2.52501">
        <ele>4.1</ele>
        <time>2020-06-23T11:53:18Z</time>
      </trkpt>
      <trkpt lat="51.07115" lon="2.52505">
        <ele>4.1</ele>
        <time>2020-06-23T11:53:19Z</time>
      </trkpt>
      <trkpt lat="51.07116" lon="2.52506">
        <ele>4.1</ele>
        <time>2020-06-23T11:53:20Z</time>
      </trkpt>
      <trkpt lat="51.07118" lon="2.52509">
        <ele>4.1</ele>
        <time>2020-06-23T11:53:21Z</time>
      </trkpt>
      <trkpt lat="51.07119" lon="2.5251">
        <ele>4.1</ele>
        <time>2020-06-23T11:53:22Z</time>
      </trkpt>
      <trkpt lat="51.07121" lon="2.52514">
        <ele>4.1</ele>
        <time>2020-06-23T11:53:23Z</time>
      </trkpt>
      <trkpt lat="51.07121" lon="2.52515">
        <ele>4.1</ele>
        <time>2020-06-23T11:53:24Z</time>
      </trkpt>
      <trkpt lat="51.07121" lon="2.52542">
        <ele>4.1</ele>
        <time>2020-06-23T11:53:25Z</time>
      </trkpt>
      <trkpt lat="51.07122" lon="2.52544">
        <ele>4.1</ele>
        <time>2020-06-23T11:53:26Z</time>
      </trkpt>
      <trkpt lat="51.07123" lon="2.52546">
        <ele>4.1</ele>
        <time>2020-06-23T11:53:27Z</time>
      </trkpt>
      <trkpt lat="51.07123" lon="2.52547">
        <ele>4.2</ele>
        <time>2020-06-23T11:53:28Z</time>
      </trkpt>
      <trkpt lat="51.07123" lon="2.52549">
        <ele>4.2</ele>
        <time>2020-06-23T11:53:29Z</time>
      </trkpt>
      <trkpt lat="51.07125" lon="2.52553">
        <ele>4.2</ele>
        <time>2020-06-23T11:53:30Z</time>
      </trkpt>
      <trkpt lat="51.07127" lon="2.52556">
        <ele>4.2</ele>
        <time>2020-06-23T11:53:31Z</time>
      </trkpt>
      <trkpt lat="51.0713" lon="2.5256">
        <ele>4.2</ele>
        <time>2020-06-23T11:53:32Z</time>
      </trkpt>
      <trkpt lat="51.07131" lon="2.52561">
        <ele>4.2</ele>
        <time>2020-06-23T11:53:33Z</time>
      </trkpt>
      <trkpt lat="51.07133" lon="2.52565">
        <ele>4.2</ele>
        <time>2020-06-23T11:53:34Z</time>
      </trkpt>
      <trkpt lat="51.07133" lon="2.52566">
        <ele>4.2</ele>
        <time>2020-06-23T11:53:35Z</time>
      </trkpt>
      <trkpt lat="51.07135" lon="2.5257">
        <ele>4.2</ele>
        <time>2020-06-23T11:53:36Z</time>
      </trkpt>
      <trkpt lat="51.07136" lon="2.52572">
        <ele>4.2</ele>
        <time>2020-06-23T11:53:37Z</time>
      </trkpt>
      <trkpt lat="51.07138" lon="2.52576">
        <ele>4.2</ele>
        <time>2020-06-23T11:53:38Z</time>
      </trkpt>
      <trkpt lat="51.0714" lon="2.52578">
        <ele>4.2</ele>
        <time>2020-06-23T11:53:39Z</time>
      </trkpt>
      <trkpt lat="51.0714" lon="2.5258">
        <ele>4.2</ele>
        <time>2020-06-23T11:53:40Z</time>
      </trkpt>
      <trkpt lat="51.07141" lon="2.52582">
        <ele>4.3</ele>
        <time>2020-06-23T11:53:41Z</time>
      </trkpt>
      <trkpt lat="51.07142" lon="2.52584">
        <ele>4.3</ele>
        <time>2020-06-23T11:53:42Z</time>
      </trkpt>
      <trkpt lat="51.07143" lon="2.52586">
        <ele>4.3</ele>
        <time>2020-06-23T11:53:43Z</time>
      </trkpt>
      <trkpt lat="51.07144" lon="2.52587">
        <ele>4.3</ele>
        <time>2020-06-23T11:53:44Z</time>
      </trkpt>
      <trkpt lat="51.07146" lon="2.52588">
        <ele>4.3</ele>
        <time>2020-06-23T11:53:45Z</time>
      </trkpt>
      <trkpt lat="51.07147" lon="2.52586">
        <ele>4.3</ele>
        <time>2020-06-23T11:53:46Z</time>
      </trkpt>
      <trkpt lat="51.07148" lon="2.52585">
        <ele>4.3</ele>
        <time>2020-06-23T11:53:47Z</time>
      </trkpt>
      <trkpt lat="51.07149" lon="2.52584">
        <ele>4.3</ele>
        <time>2020-06-23T11:53:48Z</time>
      </trkpt>
      <trkpt lat="51.07149" lon="2.52584">
        <ele>4.3</ele>
        <time>2020-06-23T11:53:49Z</time>
      </trkpt>
      <trkpt lat="51.0715" lon="2.52585">
        <ele>4.2</ele>
        <time>2020-06-23T11:53:50Z</time>
      </trkpt>
      <trkpt lat="51.0715" lon="2.52584">
        <ele>4.2</ele>
        <time>2020-06-23T11:53:51Z</time>
      </trkpt>
      <trkpt lat="51.0715" lon="2.52583">
        <ele>4.2</ele>
        <time>2020-06-23T11:53:52Z</time>
      </trkpt>
      <trkpt lat="51.07148" lon="2.5258">
        <ele>4.2</ele>
        <time>2020-06-23T11:53:53Z</time>
      </trkpt>
      <trkpt lat="51.07135" lon="2.52583">
        <ele>4.2</ele>
        <time>2020-06-23T11:53:54Z</time>
      </trkpt>
      <trkpt lat="51.07125" lon="2.52586">
        <ele>4.2</ele>
        <time>2020-06-23T11:53:55Z</time>
      </trkpt>
      <trkpt lat="51.07115" lon="2.5259">
        <ele>4.2</ele>
        <time>2020-06-23T11:53:56Z</time>
      </trkpt>
      <trkpt lat="51.07114" lon="2.52586">
        <ele>4.2</ele>
        <time>2020-06-23T11:53:57Z</time>
      </trkpt>
      <trkpt lat="51.07113" lon="2.52584">
        <ele>4.2</ele>
        <time>2020-06-23T11:53:58Z</time>
      </trkpt>
      <trkpt lat="51.07113" lon="2.52579">
        <ele>4.2</ele>
        <time>2020-06-23T11:53:59Z</time>
      </trkpt>
      <trkpt lat="51.07113" lon="2.52576">
        <ele>4.2</ele>
        <time>2020-06-23T11:54:00Z</time>
      </trkpt>
      <trkpt lat="51.07112" lon="2.52571">
        <ele>4.2</ele>
        <time>2020-06-23T11:54:01Z</time>
      </trkpt>
      <trkpt lat="51.07112" lon="2.52569">
        <ele>4.2</ele>
        <time>2020-06-23T11:54:02Z</time>
      </trkpt>
      <trkpt lat="51.07111" lon="2.52563">
        <ele>4.2</ele>
        <time>2020-06-23T11:54:03Z</time>
      </trkpt>
      <trkpt lat="51.0711" lon="2.52562">
        <ele>4.2</ele>
        <time>2020-06-23T11:54:04Z</time>
      </trkpt>
      <trkpt lat="51.0711" lon="2.52559">
        <ele>4.2</ele>
        <time>2020-06-23T11:54:05Z</time>
      </trkpt>
      <trkpt lat="51.07109" lon="2.52559">
        <ele>4.2</ele>
        <time>2020-06-23T11:54:06Z</time>
      </trkpt>
      <trkpt lat="51.07107" lon="2.5256">
        <ele>4.2</ele>
        <time>2020-06-23T11:54:07Z</time>
      </trkpt>
      <trkpt lat="51.07107" lon="2.52563">
        <ele>4.2</ele>
        <time>2020-06-23T11:54:08Z</time>
      </trkpt>
      <trkpt lat="51.07107" lon="2.52564">
        <ele>4.2</ele>
        <time>2020-06-23T11:54:09Z</time>
      </trkpt>
      <trkpt lat="51.07107" lon="2.52567">
        <ele>4.2</ele>
        <time>2020-06-23T11:54:10Z</time>
      </trkpt>
      <trkpt lat="51.07108" lon="2.52569">
        <ele>4.2</ele>
        <time>2020-06-23T11:54:11Z</time>
      </trkpt>
      <trkpt lat="51.07109" lon="2.52569">
        <ele>4.2</ele>
        <time>2020-06-23T11:54:12Z</time>
      </trkpt>
      <trkpt lat="51.07109" lon="2.5257">
        <ele>4.2</ele>
        <time>2020-06-23T11:54:13Z</time>
      </trkpt>
      <trkpt lat="51.07109" lon="2.5257">
        <ele>4.2</ele>
        <time>2020-06-23T11:54:14Z</time>
      </trkpt>
      <trkpt lat="51.0711" lon="2.52571">
        <ele>4.2</ele>
        <time>2020-06-23T11:54:15Z</time>
      </trkpt>
      <trkpt lat="51.0711" lon="2.52572">
        <ele>4.2</ele>
        <time>2020-06-23T11:54:16Z</time>
      </trkpt>
      <trkpt lat="51.0711" lon="2.52572">
        <ele>4.2</ele>
        <time>2020-06-23T11:54:17Z</time>
      </trkpt>
      <trkpt lat="51.0711" lon="2.52571">
        <ele>4.2</ele>
        <time>2020-06-23T11:54:18Z</time>
      </trkpt>
      <trkpt lat="51.0711" lon="2.5257">
        <ele>4.2</ele>
        <time>2020-06-23T11:54:19Z</time>
      </trkpt>
      <trkpt lat="51.07111" lon="2.52569">
        <ele>4.2</ele>
        <time>2020-06-23T11:54:20Z</time>
      </trkpt>
      <trkpt lat="51.07111" lon="2.52567">
        <ele>4.2</ele>
        <time>2020-06-23T11:54:21Z</time>
      </trkpt>
      <trkpt lat="51.07111" lon="2.52566">
        <ele>4.2</ele>
        <time>2020-06-23T11:54:22Z</time>
      </trkpt>
      <trkpt lat="51.07111" lon="2.52565">
        <ele>4.2</ele>
        <time>2020-06-23T11:54:23Z</time>
      </trkpt>
      <trkpt lat="51.0711" lon="2.5256">
        <ele>4.2</ele>
        <time>2020-06-23T11:54:24Z</time>
      </trkpt>
      <trkpt lat="51.07109" lon="2.52555">
        <ele>4.1</ele>
        <time>2020-06-23T11:54:25Z</time>
      </trkpt>
      <trkpt lat="51.07108" lon="2.52551">
        <ele>4.1</ele>
        <time>2020-06-23T11:54:26Z</time>
      </trkpt>
      <trkpt lat="51.07106" lon="2.52546">
        <ele>4.1</ele>
        <time>2020-06-23T11:54:27Z</time>
      </trkpt>
      <trkpt lat="51.07105" lon="2.52541">
        <ele>4.1</ele>
        <time>2020-06-23T11:54:28Z</time>
      </trkpt>
      <trkpt lat="51.07105" lon="2.52533">
        <ele>4.1</ele>
        <time>2020-06-23T11:54:29Z</time>
      </trkpt>
      <trkpt lat="51.07104" lon="2.52526">
        <ele>4.1</ele>
        <time>2020-06-23T11:54:30Z</time>
      </trkpt>
      <trkpt lat="51.07103" lon="2.52518">
        <ele>4.1</ele>
        <time>2020-06-23T11:54:31Z</time>
      </trkpt>
      <trkpt lat="51.07102" lon="2.5251">
        <ele>4.1</ele>
        <time>2020-06-23T11:54:32Z</time>
      </trkpt>
      <trkpt lat="51.07101" lon="2.52502">
        <ele>4.1</ele>
        <time>2020-06-23T11:54:33Z</time>
      </trkpt>
      <trkpt lat="51.07099" lon="2.52493">
        <ele>4.1</ele>
        <time>2020-06-23T11:54:34Z</time>
      </trkpt>
      <trkpt lat="51.07097" lon="2.52485">
        <ele>4.1</ele>
        <time>2020-06-23T11:54:35Z</time>
      </trkpt>
      <trkpt lat="51.07096" lon="2.52477">
        <ele>4.2</ele>
        <time>2020-06-23T11:54:36Z</time>
      </trkpt>
      <trkpt lat="51.07095" lon="2.52468">
        <ele>4.2</ele>
        <time>2020-06-23T11:54:37Z</time>
      </trkpt>
      <trkpt lat="51.07094" lon="2.52459">
        <ele>4.2</ele>
        <time>2020-06-23T11:54:38Z</time>
      </trkpt>
      <trkpt lat="51.07092" lon="2.5245">
        <ele>4.3</ele>
        <time>2020-06-23T11:54:39Z</time>
      </trkpt>
      <trkpt lat="51.07091" lon="2.52441">
        <ele>4.3</ele>
        <time>2020-06-23T11:54:40Z</time>
      </trkpt>
      <trkpt lat="51.0709" lon="2.52431">
        <ele>4.3</ele>
        <time>2020-06-23T11:54:41Z</time>
      </trkpt>
      <trkpt lat="51.07089" lon="2.52421">
        <ele>4.3</ele>
        <time>2020-06-23T11:54:42Z</time>
      </trkpt>
      <trkpt lat="51.07087" lon="2.52411">
        <ele>4.3</ele>
        <time>2020-06-23T11:54:43Z</time>
      </trkpt>
      <trkpt lat="51.07086" lon="2.52402">
        <ele>4.4</ele>
        <time>2020-06-23T11:54:44Z</time>
      </trkpt>
      <trkpt lat="51.07085" lon="2.52394">
        <ele>4.4</ele>
        <time>2020-06-23T11:54:45Z</time>
      </trkpt>
      <trkpt lat="51.07084" lon="2.52384">
        <ele>4.4</ele>
        <time>2020-06-23T11:54:46Z</time>
      </trkpt>
      <trkpt lat="51.07084" lon="2.52375">
        <ele>4.5</ele>
        <time>2020-06-23T11:54:47Z</time>
      </trkpt>
      <trkpt lat="51.07083" lon="2.52367">
        <ele>4.5</ele>
        <time>2020-06-23T11:54:48Z</time>
      </trkpt>
      <trkpt lat="51.07082" lon="2.52359">
        <ele>4.5</ele>
        <time>2020-06-23T11:54:49Z</time>
      </trkpt>
      <trkpt lat="51.07082" lon="2.52351">
        <ele>4.6</ele>
        <time>2020-06-23T11:54:50Z</time>
      </trkpt>
      <trkpt lat="51.07081" lon="2.52344">
        <ele>4.6</ele>
        <time>2020-06-23T11:54:51Z</time>
      </trkpt>
      <trkpt lat="51.07081" lon="2.52336">
        <ele>4.6</ele>
        <time>2020-06-23T11:54:52Z</time>
      </trkpt>
      <trkpt lat="51.07081" lon="2.52327">
        <ele>4.7</ele>
        <time>2020-06-23T11:54:53Z</time>
      </trkpt>
      <trkpt lat="51.0708" lon="2.52319">
        <ele>4.7</ele>
        <time>2020-06-23T11:54:54Z</time>
      </trkpt>
      <trkpt lat="51.07079" lon="2.5231">
        <ele>4.7</ele>
        <time>2020-06-23T11:54:55Z</time>
      </trkpt>
      <trkpt lat="51.07078" lon="2.52301">
        <ele>4.7</ele>
        <time>2020-06-23T11:54:56Z</time>
      </trkpt>
      <trkpt lat="51.07078" lon="2.52293">
        <ele>4.7</ele>
        <time>2020-06-23T11:54:57Z</time>
      </trkpt>
      <trkpt lat="51.07077" lon="2.52285">
        <ele>4.7</ele>
        <time>2020-06-23T11:54:58Z</time>
      </trkpt>
      <trkpt lat="51.07077" lon="2.52278">
        <ele>4.7</ele>
        <time>2020-06-23T11:54:59Z</time>
      </trkpt>
      <trkpt lat="51.07076" lon="2.5227">
        <ele>4.7</ele>
        <time>2020-06-23T11:55:00Z</time>
      </trkpt>
      <trkpt lat="51.07076" lon="2.52263">
        <ele>4.7</ele>
        <time>2020-06-23T11:55:01Z</time>
      </trkpt>
      <trkpt lat="51.07076" lon="2.52256">
        <ele>4.7</ele>
        <time>2020-06-23T11:55:02Z</time>
      </trkpt>
      <trkpt lat="51.07076" lon="2.5225">
        <ele>4.7</ele>
        <time>2020-06-23T11:55:03Z</time>
      </trkpt>
      <trkpt lat="51.07074" lon="2.52243">
        <ele>4.7</ele>
        <time>2020-06-23T11:55:04Z</time>
      </trkpt>
      <trkpt lat="51.07074" lon="2.52238">
        <ele>4.7</ele>
        <time>2020-06-23T11:55:05Z</time>
      </trkpt>
      <trkpt lat="51.07074" lon="2.52231">
        <ele>4.7</ele>
        <time>2020-06-23T11:55:06Z</time>
      </trkpt>
      <trkpt lat="51.07074" lon="2.52224">
        <ele>4.7</ele>
        <time>2020-06-23T11:55:07Z</time>
      </trkpt>
      <trkpt lat="51.07073" lon="2.52218">
        <ele>4.7</ele>
        <time>2020-06-23T11:55:08Z</time>
      </trkpt>
      <trkpt lat="51.07072" lon="2.52213">
        <ele>4.7</ele>
        <time>2020-06-23T11:55:09Z</time>
      </trkpt>
      <trkpt lat="51.07069" lon="2.52208">
        <ele>4.8</ele>
        <time>2020-06-23T11:55:10Z</time>
      </trkpt>
      <trkpt lat="51.07068" lon="2.52201">
        <ele>4.8</ele>
        <time>2020-06-23T11:55:11Z</time>
      </trkpt>
      <trkpt lat="51.07068" lon="2.52194">
        <ele>4.7</ele>
        <time>2020-06-23T11:55:12Z</time>
      </trkpt>
      <trkpt lat="51.07067" lon="2.52187">
        <ele>4.7</ele>
        <time>2020-06-23T11:55:13Z</time>
      </trkpt>
      <trkpt lat="51.07066" lon="2.5218">
        <ele>4.7</ele>
        <time>2020-06-23T11:55:14Z</time>
      </trkpt>
      <trkpt lat="51.07066" lon="2.52174">
        <ele>4.7</ele>
        <time>2020-06-23T11:55:15Z</time>
      </trkpt>
      <trkpt lat="51.07066" lon="2.52165">
        <ele>4.6</ele>
        <time>2020-06-23T11:55:16Z</time>
      </trkpt>
      <trkpt lat="51.07066" lon="2.52158">
        <ele>4.6</ele>
        <time>2020-06-23T11:55:17Z</time>
      </trkpt>
      <trkpt lat="51.07065" lon="2.52152">
        <ele>4.6</ele>
        <time>2020-06-23T11:55:18Z</time>
      </trkpt>
      <trkpt lat="51.07064" lon="2.52146">
        <ele>4.6</ele>
        <time>2020-06-23T11:55:19Z</time>
      </trkpt>
      <trkpt lat="51.07064" lon="2.5214">
        <ele>4.6</ele>
        <time>2020-06-23T11:55:20Z</time>
      </trkpt>
      <trkpt lat="51.07063" lon="2.52135">
        <ele>4.6</ele>
        <time>2020-06-23T11:55:21Z</time>
      </trkpt>
      <trkpt lat="51.07062" lon="2.5213">
        <ele>4.6</ele>
        <time>2020-06-23T11:55:22Z</time>
      </trkpt>
      <trkpt lat="51.07062" lon="2.52124">
        <ele>4.6</ele>
        <time>2020-06-23T11:55:23Z</time>
      </trkpt>
      <trkpt lat="51.07061" lon="2.5212">
        <ele>4.6</ele>
        <time>2020-06-23T11:55:24Z</time>
      </trkpt>
      <trkpt lat="51.07061" lon="2.52115">
        <ele>4.6</ele>
        <time>2020-06-23T11:55:25Z</time>
      </trkpt>
      <trkpt lat="51.07061" lon="2.52114">
        <ele>4.6</ele>
        <time>2020-06-23T11:55:26Z</time>
      </trkpt>
      <trkpt lat="51.07062" lon="2.5211">
        <ele>4.6</ele>
        <time>2020-06-23T11:55:27Z</time>
      </trkpt>
      <trkpt lat="51.07062" lon="2.52108">
        <ele>4.6</ele>
        <time>2020-06-23T11:55:28Z</time>
      </trkpt>
      <trkpt lat="51.07063" lon="2.52107">
        <ele>4.6</ele>
        <time>2020-06-23T11:55:29Z</time>
      </trkpt>
      <trkpt lat="51.07064" lon="2.52107">
        <ele>4.6</ele>
        <time>2020-06-23T11:55:30Z</time>
      </trkpt>
      <trkpt lat="51.07064" lon="2.52106">
        <ele>4.6</ele>
        <time>2020-06-23T11:55:31Z</time>
      </trkpt>
      <trkpt lat="51.07065" lon="2.52104">
        <ele>4.6</ele>
        <time>2020-06-23T11:55:32Z</time>
      </trkpt>
      <trkpt lat="51.07066" lon="2.52103">
        <ele>4.6</ele>
        <time>2020-06-23T11:55:33Z</time>
      </trkpt>
      <trkpt lat="51.07066" lon="2.52104">
        <ele>4.6</ele>
        <time>2020-06-23T11:55:34Z</time>
      </trkpt>
      <trkpt lat="51.07067" lon="2.52104">
        <ele>4.6</ele>
        <time>2020-06-23T11:55:35Z</time>
      </trkpt>
      <trkpt lat="51.07067" lon="2.52104">
        <ele>4.6</ele>
        <time>2020-06-23T11:55:36Z</time>
      </trkpt>
      <trkpt lat="51.07067" lon="2.52102">
        <ele>4.6</ele>
        <time>2020-06-23T11:55:37Z</time>
      </trkpt>
      <trkpt lat="51.07067" lon="2.52101">
        <ele>4.6</ele>
        <time>2020-06-23T11:55:38Z</time>
      </trkpt>
      <trkpt lat="51.07067" lon="2.52101">
        <ele>4.6</ele>
        <time>2020-06-23T11:55:39Z</time>
      </trkpt>
      <trkpt lat="51.07068" lon="2.521">
        <ele>4.6</ele>
        <time>2020-06-23T11:55:40Z</time>
      </trkpt>
      <trkpt lat="51.07068" lon="2.52099">
        <ele>4.6</ele>
        <time>2020-06-23T11:55:41Z</time>
      </trkpt>
      <trkpt lat="51.07068" lon="2.52099">
        <ele>4.6</ele>
        <time>2020-06-23T11:55:42Z</time>
      </trkpt>
      <trkpt lat="51.07069" lon="2.52098">
        <ele>4.6</ele>
        <time>2020-06-23T11:55:43Z</time>
      </trkpt>
      <trkpt lat="51.07068" lon="2.52098">
        <ele>4.6</ele>
        <time>2020-06-23T11:55:44Z</time>
      </trkpt>
      <trkpt lat="51.07068" lon="2.52097">
        <ele>4.6</ele>
        <time>2020-06-23T11:55:45Z</time>
      </trkpt>
      <trkpt lat="51.07068" lon="2.52096">
        <ele>4.6</ele>
        <time>2020-06-23T11:55:46Z</time>
      </trkpt>
      <trkpt lat="51.07068" lon="2.52096">
        <ele>4.6</ele>
        <time>2020-06-23T11:55:47Z</time>
      </trkpt>
      <trkpt lat="51.07068" lon="2.52095">
        <ele>4.6</ele>
        <time>2020-06-23T11:55:48Z</time>
      </trkpt>
      <trkpt lat="51.07068" lon="2.52095">
        <ele>4.6</ele>
        <time>2020-06-23T11:55:49Z</time>
      </trkpt>
      <trkpt lat="51.07068" lon="2.52097">
        <ele>4.6</ele>
        <time>2020-06-23T11:55:50Z</time>
      </trkpt>
      <trkpt lat="51.07068" lon="2.52099">
        <ele>4.6</ele>
        <time>2020-06-23T11:55:51Z</time>
      </trkpt>
      <trkpt lat="51.07068" lon="2.521">
        <ele>4.6</ele>
        <time>2020-06-23T11:55:52Z</time>
      </trkpt>
      <trkpt lat="51.07068" lon="2.52102">
        <ele>4.6</ele>
        <time>2020-06-23T11:55:53Z</time>
      </trkpt>
      <trkpt lat="51.07067" lon="2.52103">
        <ele>4.6</ele>
        <time>2020-06-23T11:55:54Z</time>
      </trkpt>
      <trkpt lat="51.07068" lon="2.52103">
        <ele>4.6</ele>
        <time>2020-06-23T11:55:55Z</time>
      </trkpt>
      <trkpt lat="51.07068" lon="2.52103">
        <ele>4.6</ele>
        <time>2020-06-23T11:55:56Z</time>
      </trkpt>
      <trkpt lat="51.07068" lon="2.52104">
        <ele>4.6</ele>
        <time>2020-06-23T11:55:57Z</time>
      </trkpt>
      <trkpt lat="51.07069" lon="2.52104">
        <ele>4.6</ele>
        <time>2020-06-23T11:55:58Z</time>
      </trkpt>
      <trkpt lat="51.07069" lon="2.52104">
        <ele>4.6</ele>
        <time>2020-06-23T11:55:59Z</time>
      </trkpt>
      <trkpt lat="51.0707" lon="2.52105">
        <ele>4.6</ele>
        <time>2020-06-23T11:56:00Z</time>
      </trkpt>
      <trkpt lat="51.07069" lon="2.52105">
        <ele>4.6</ele>
        <time>2020-06-23T11:56:01Z</time>
      </trkpt>
      <trkpt lat="51.07069" lon="2.52106">
        <ele>4.6</ele>
        <time>2020-06-23T11:56:02Z</time>
      </trkpt>
      <trkpt lat="51.07069" lon="2.52107">
        <ele>4.6</ele>
        <time>2020-06-23T11:56:03Z</time>
      </trkpt>
      <trkpt lat="51.07068" lon="2.52108">
        <ele>4.6</ele>
        <time>2020-06-23T11:56:04Z</time>
      </trkpt>
      <trkpt lat="51.07068" lon="2.52108">
        <ele>4.6</ele>
        <time>2020-06-23T11:56:05Z</time>
      </trkpt>
      <trkpt lat="51.07068" lon="2.52107">
        <ele>4.6</ele>
        <time>2020-06-23T11:56:06Z</time>
      </trkpt>
      <trkpt lat="51.07068" lon="2.52107">
        <ele>4.6</ele>
        <time>2020-06-23T11:56:07Z</time>
      </trkpt>
      <trkpt lat="51.07067" lon="2.52106">
        <ele>4.6</ele>
        <time>2020-06-23T11:56:08Z</time>
      </trkpt>
      <trkpt lat="51.07067" lon="2.52105">
        <ele>4.6</ele>
        <time>2020-06-23T11:56:09Z</time>
      </trkpt>
      <trkpt lat="51.07067" lon="2.52103">
        <ele>4.6</ele>
        <time>2020-06-23T11:56:10Z</time>
      </trkpt>
      <trkpt lat="51.07067" lon="2.52103">
        <ele>4.6</ele>
        <time>2020-06-23T11:56:11Z</time>
      </trkpt>
      <trkpt lat="51.07068" lon="2.52102">
        <ele>4.6</ele>
        <time>2020-06-23T11:56:12Z</time>
      </trkpt>
      <trkpt lat="51.07068" lon="2.52101">
        <ele>4.6</ele>
        <time>2020-06-23T11:56:13Z</time>
      </trkpt>
      <trkpt lat="51.07069" lon="2.52101">
        <ele>4.6</ele>
        <time>2020-06-23T11:56:14Z</time>
      </trkpt>
      <trkpt lat="51.07069" lon="2.52101">
        <ele>4.6</ele>
        <time>2020-06-23T11:56:15Z</time>
      </trkpt>
      <trkpt lat="51.0707" lon="2.521">
        <ele>4.6</ele>
        <time>2020-06-23T11:56:16Z</time>
      </trkpt>
      <trkpt lat="51.07071" lon="2.52099">
        <ele>4.6</ele>
        <time>2020-06-23T11:56:17Z</time>
      </trkpt>
      <trkpt lat="51.07071" lon="2.52099">
        <ele>4.6</ele>
        <time>2020-06-23T11:56:18Z</time>
      </trkpt>
      <trkpt lat="51.07072" lon="2.52099">
        <ele>4.6</ele>
        <time>2020-06-23T11:56:19Z</time>
      </trkpt>
      <trkpt lat="51.07072" lon="2.52098">
        <ele>4.6</ele>
        <time>2020-06-23T11:56:20Z</time>
      </trkpt>
      <trkpt lat="51.07073" lon="2.52099">
        <ele>4.6</ele>
        <time>2020-06-23T11:56:21Z</time>
      </trkpt>
      <trkpt lat="51.07073" lon="2.521">
        <ele>4.6</ele>
        <time>2020-06-23T11:56:22Z</time>
      </trkpt>
      <trkpt lat="51.07073" lon="2.52101">
        <ele>4.6</ele>
        <time>2020-06-23T11:56:23Z</time>
      </trkpt>
      <trkpt lat="51.07075" lon="2.521">
        <ele>4.6</ele>
        <time>2020-06-23T11:56:24Z</time>
      </trkpt>
      <trkpt lat="51.07075" lon="2.52099">
        <ele>4.6</ele>
        <time>2020-06-23T11:56:25Z</time>
      </trkpt>
      <trkpt lat="51.07076" lon="2.52099">
        <ele>4.6</ele>
        <time>2020-06-23T11:56:26Z</time>
      </trkpt>
      <trkpt lat="51.07076" lon="2.52099">
        <ele>4.6</ele>
        <time>2020-06-23T11:56:27Z</time>
      </trkpt>
      <trkpt lat="51.07076" lon="2.52099">
        <ele>4.6</ele>
        <time>2020-06-23T11:56:28Z</time>
      </trkpt>
      <trkpt lat="51.07076" lon="2.52098">
        <ele>4.6</ele>
        <time>2020-06-23T11:56:29Z</time>
      </trkpt>
      <trkpt lat="51.0707" lon="2.52099">
        <ele>4.6</ele>
        <time>2020-06-23T11:57:36Z</time>
      </trkpt>
      <trkpt lat="51.07069" lon="2.52099">
        <ele>4.6</ele>
        <time>2020-06-23T11:57:37Z</time>
      </trkpt>
      <trkpt lat="51.07068" lon="2.52101">
        <ele>4.6</ele>
        <time>2020-06-23T11:57:38Z</time>
      </trkpt>
      <trkpt lat="51.07068" lon="2.52101">
        <ele>4.6</ele>
        <time>2020-06-23T11:57:39Z</time>
      </trkpt>
      <trkpt lat="51.07068" lon="2.52101">
        <ele>4.6</ele>
        <time>2020-06-23T11:57:40Z</time>
      </trkpt>
      <trkpt lat="51.07068" lon="2.52102">
        <ele>4.6</ele>
        <time>2020-06-23T11:57:41Z</time>
      </trkpt>
      <trkpt lat="51.07067" lon="2.52102">
        <ele>4.6</ele>
        <time>2020-06-23T11:57:42Z</time>
      </trkpt>
      <trkpt lat="51.07068" lon="2.52102">
        <ele>4.6</ele>
        <time>2020-06-23T11:57:43Z</time>
      </trkpt>
      <trkpt lat="51.07068" lon="2.52101">
        <ele>4.6</ele>
        <time>2020-06-23T11:57:44Z</time>
      </trkpt>
      <trkpt lat="51.07068" lon="2.52101">
        <ele>4.6</ele>
        <time>2020-06-23T11:57:45Z</time>
      </trkpt>
      <trkpt lat="51.07068" lon="2.52101">
        <ele>4.6</ele>
        <time>2020-06-23T11:57:46Z</time>
      </trkpt>
      <trkpt lat="51.07068" lon="2.52101">
        <ele>4.6</ele>
        <time>2020-06-23T11:57:47Z</time>
      </trkpt>
      <trkpt lat="51.07068" lon="2.52101">
        <ele>4.6</ele>
        <time>2020-06-23T11:57:48Z</time>
      </trkpt>
      <trkpt lat="51.07068" lon="2.52101">
        <ele>4.6</ele>
        <time>2020-06-23T11:57:49Z</time>
      </trkpt>
      <trkpt lat="51.07068" lon="2.52101">
        <ele>4.6</ele>
        <time>2020-06-23T11:57:50Z</time>
      </trkpt>
      <trkpt lat="51.07067" lon="2.52101">
        <ele>4.6</ele>
        <time>2020-06-23T11:57:51Z</time>
      </trkpt>
      <trkpt lat="51.07068" lon="2.52101">
        <ele>4.6</ele>
        <time>2020-06-23T11:57:52Z</time>
      </trkpt>
      <trkpt lat="51.0709" lon="2.52099">
        <ele>4.6</ele>
        <time>2020-06-23T11:59:26Z</time>
      </trkpt>
      <trkpt lat="51.07091" lon="2.52098">
        <ele>4.6</ele>
        <time>2020-06-23T11:59:27Z</time>
      </trkpt>
      <trkpt lat="51.0709" lon="2.52098">
        <ele>4.6</ele>
        <time>2020-06-23T11:59:28Z</time>
      </trkpt>
      <trkpt lat="51.0709" lon="2.52097">
        <ele>4.6</ele>
        <time>2020-06-23T11:59:29Z</time>
      </trkpt>
      <trkpt lat="51.0709" lon="2.52097">
        <ele>4.6</ele>
        <time>2020-06-23T11:59:30Z</time>
      </trkpt>
      <trkpt lat="51.0709" lon="2.52098">
        <ele>4.6</ele>
        <time>2020-06-23T11:59:31Z</time>
      </trkpt>
      <trkpt lat="51.0709" lon="2.52098">
        <ele>4.6</ele>
        <time>2020-06-23T11:59:32Z</time>
      </trkpt>
      <trkpt lat="51.0709" lon="2.52098">
        <ele>4.6</ele>
        <time>2020-06-23T11:59:33Z</time>
      </trkpt>
      <trkpt lat="51.0709" lon="2.52099">
        <ele>4.6</ele>
        <time>2020-06-23T11:59:34Z</time>
      </trkpt>
      <trkpt lat="51.0709" lon="2.521">
        <ele>4.6</ele>
        <time>2020-06-23T11:59:35Z</time>
      </trkpt>
      <trkpt lat="51.0709" lon="2.52101">
        <ele>4.6</ele>
        <time>2020-06-23T11:59:36Z</time>
      </trkpt>
      <trkpt lat="51.07089" lon="2.52103">
        <ele>4.7</ele>
        <time>2020-06-23T11:59:37Z</time>
      </trkpt>
      <trkpt lat="51.07089" lon="2.52104">
        <ele>4.7</ele>
        <time>2020-06-23T11:59:38Z</time>
      </trkpt>
      <trkpt lat="51.07089" lon="2.52104">
        <ele>4.7</ele>
        <time>2020-06-23T11:59:39Z</time>
      </trkpt>
      <trkpt lat="51.0709" lon="2.52104">
        <ele>4.7</ele>
        <time>2020-06-23T11:59:40Z</time>
      </trkpt>
      <trkpt lat="51.0709" lon="2.52104">
        <ele>4.7</ele>
        <time>2020-06-23T11:59:41Z</time>
      </trkpt>
      <trkpt lat="51.0709" lon="2.52104">
        <ele>4.7</ele>
        <time>2020-06-23T11:59:42Z</time>
      </trkpt>
      <trkpt lat="51.0709" lon="2.52104">
        <ele>4.7</ele>
        <time>2020-06-23T11:59:43Z</time>
      </trkpt>
      <trkpt lat="51.0709" lon="2.52104">
        <ele>4.7</ele>
        <time>2020-06-23T11:59:44Z</time>
      </trkpt>
      <trkpt lat="51.0709" lon="2.52104">
        <ele>4.7</ele>
        <time>2020-06-23T11:59:45Z</time>
      </trkpt>
      <trkpt lat="51.0709" lon="2.52104">
        <ele>4.7</ele>
        <time>2020-06-23T11:59:46Z</time>
      </trkpt>
      <trkpt lat="51.0709" lon="2.52105">
        <ele>4.7</ele>
        <time>2020-06-23T11:59:47Z</time>
      </trkpt>
      <trkpt lat="51.0709" lon="2.52106">
        <ele>4.7</ele>
        <time>2020-06-23T11:59:48Z</time>
      </trkpt>
      <trkpt lat="51.07089" lon="2.52107">
        <ele>4.7</ele>
        <time>2020-06-23T11:59:49Z</time>
      </trkpt>
      <trkpt lat="51.07088" lon="2.52106">
        <ele>4.7</ele>
        <time>2020-06-23T11:59:50Z</time>
      </trkpt>
      <trkpt lat="51.07087" lon="2.52106">
        <ele>4.7</ele>
        <time>2020-06-23T11:59:51Z</time>
      </trkpt>
      <trkpt lat="51.07086" lon="2.52107">
        <ele>4.7</ele>
        <time>2020-06-23T11:59:52Z</time>
      </trkpt>
      <trkpt lat="51.07086" lon="2.52107">
        <ele>4.7</ele>
        <time>2020-06-23T11:59:53Z</time>
      </trkpt>
      <trkpt lat="51.07085" lon="2.52109">
        <ele>4.7</ele>
        <time>2020-06-23T11:59:54Z</time>
      </trkpt>
      <trkpt lat="51.07084" lon="2.52109">
        <ele>4.7</ele>
        <time>2020-06-23T11:59:55Z</time>
      </trkpt>
      <trkpt lat="51.07083" lon="2.52109">
        <ele>4.7</ele>
        <time>2020-06-23T11:59:56Z</time>
      </trkpt>
      <trkpt lat="51.07082" lon="2.5211">
        <ele>4.7</ele>
        <time>2020-06-23T11:59:57Z</time>
      </trkpt>
      <trkpt lat="51.07081" lon="2.52109">
        <ele>4.7</ele>
        <time>2020-06-23T11:59:58Z</time>
      </trkpt>
      <trkpt lat="51.07081" lon="2.52109">
        <ele>4.7</ele>
        <time>2020-06-23T11:59:59Z</time>
      </trkpt>
      <trkpt lat="51.0708" lon="2.52108">
        <ele>4.7</ele>
        <time>2020-06-23T12:00:00Z</time>
      </trkpt>
      <trkpt lat="51.0708" lon="2.52108">
        <ele>4.7</ele>
        <time>2020-06-23T12:00:01Z</time>
      </trkpt>
      <trkpt lat="51.0708" lon="2.52107">
        <ele>4.7</ele>
        <time>2020-06-23T12:00:02Z</time>
      </trkpt>
      <trkpt lat="51.0708" lon="2.52107">
        <ele>4.7</ele>
        <time>2020-06-23T12:00:03Z</time>
      </trkpt>
      <trkpt lat="51.0708" lon="2.52107">
        <ele>4.7</ele>
        <time>2020-06-23T12:00:04Z</time>
      </trkpt>
      <trkpt lat="51.0708" lon="2.52107">
        <ele>4.7</ele>
        <time>2020-06-23T12:00:05Z</time>
      </trkpt>
      <trkpt lat="51.07079" lon="2.52106">
        <ele>4.7</ele>
        <time>2020-06-23T12:00:06Z</time>
      </trkpt>
      <trkpt lat="51.07078" lon="2.52105">
        <ele>4.7</ele>
        <time>2020-06-23T12:00:07Z</time>
      </trkpt>
      <trkpt lat="51.07077" lon="2.52106">
        <ele>4.7</ele>
        <time>2020-06-23T12:00:08Z</time>
      </trkpt>
      <trkpt lat="51.07075" lon="2.52106">
        <ele>4.7</ele>
        <time>2020-06-23T12:00:09Z</time>
      </trkpt>
      <trkpt lat="51.07073" lon="2.52106">
        <ele>4.7</ele>
        <time>2020-06-23T12:00:10Z</time>
      </trkpt>
      <trkpt lat="51.07072" lon="2.52106">
        <ele>4.7</ele>
        <time>2020-06-23T12:00:11Z</time>
      </trkpt>
      <trkpt lat="51.07071" lon="2.52107">
        <ele>4.7</ele>
        <time>2020-06-23T12:00:12Z</time>
      </trkpt>
      <trkpt lat="51.0707" lon="2.52107">
        <ele>4.7</ele>
        <time>2020-06-23T12:00:13Z</time>
      </trkpt>
      <trkpt lat="51.0707" lon="2.52108">
        <ele>4.7</ele>
        <time>2020-06-23T12:00:14Z</time>
      </trkpt>
      <trkpt lat="51.0707" lon="2.52107">
        <ele>4.7</ele>
        <time>2020-06-23T12:00:15Z</time>
      </trkpt>
      <trkpt lat="51.0707" lon="2.52107">
        <ele>4.7</ele>
        <time>2020-06-23T12:00:16Z</time>
      </trkpt>
      <trkpt lat="51.0707" lon="2.52107">
        <ele>4.7</ele>
        <time>2020-06-23T12:00:17Z</time>
      </trkpt>
      <trkpt lat="51.0707" lon="2.52106">
        <ele>4.7</ele>
        <time>2020-06-23T12:00:18Z</time>
      </trkpt>
      <trkpt lat="51.0707" lon="2.52106">
        <ele>4.7</ele>
        <time>2020-06-23T12:00:19Z</time>
      </trkpt>
      <trkpt lat="51.07069" lon="2.52106">
        <ele>4.7</ele>
        <time>2020-06-23T12:00:20Z</time>
      </trkpt>
      <trkpt lat="51.07069" lon="2.52106">
        <ele>4.7</ele>
        <time>2020-06-23T12:00:21Z</time>
      </trkpt>
      <trkpt lat="51.07069" lon="2.52106">
        <ele>4.7</ele>
        <time>2020-06-23T12:00:22Z</time>
      </trkpt>
      <trkpt lat="51.07069" lon="2.52106">
        <ele>4.7</ele>
        <time>2020-06-23T12:00:23Z</time>
      </trkpt>
      <trkpt lat="51.07069" lon="2.52106">
        <ele>4.7</ele>
        <time>2020-06-23T12:00:24Z</time>
      </trkpt>
      <trkpt lat="51.07069" lon="2.52107">
        <ele>4.7</ele>
        <time>2020-06-23T12:00:25Z</time>
      </trkpt>
      <trkpt lat="51.07069" lon="2.52107">
        <ele>4.7</ele>
        <time>2020-06-23T12:00:26Z</time>
      </trkpt>
      <trkpt lat="51.07069" lon="2.52108">
        <ele>4.7</ele>
        <time>2020-06-23T12:00:27Z</time>
      </trkpt>
      <trkpt lat="51.07068" lon="2.52108">
        <ele>4.7</ele>
        <time>2020-06-23T12:00:28Z</time>
      </trkpt>
      <trkpt lat="51.07068" lon="2.52108">
        <ele>4.7</ele>
        <time>2020-06-23T12:00:29Z</time>
      </trkpt>
      <trkpt lat="51.07068" lon="2.52109">
        <ele>4.7</ele>
        <time>2020-06-23T12:00:30Z</time>
      </trkpt>
      <trkpt lat="51.07068" lon="2.52109">
        <ele>4.7</ele>
        <time>2020-06-23T12:00:31Z</time>
      </trkpt>
      <trkpt lat="51.07068" lon="2.52109">
        <ele>4.7</ele>
        <time>2020-06-23T12:00:32Z</time>
      </trkpt>
      <trkpt lat="51.07068" lon="2.5211">
        <ele>4.7</ele>
        <time>2020-06-23T12:00:33Z</time>
      </trkpt>
      <trkpt lat="51.07067" lon="2.5211">
        <ele>4.7</ele>
        <time>2020-06-23T12:00:45Z</time>
      </trkpt>
      <trkpt lat="51.07067" lon="2.5211">
        <ele>4.7</ele>
        <time>2020-06-23T12:00:46Z</time>
      </trkpt>
      <trkpt lat="51.07067" lon="2.52111">
        <ele>4.7</ele>
        <time>2020-06-23T12:00:47Z</time>
      </trkpt>
      <trkpt lat="51.07067" lon="2.52111">
        <ele>4.7</ele>
        <time>2020-06-23T12:00:48Z</time>
      </trkpt>
      <trkpt lat="51.07066" lon="2.52111">
        <ele>4.7</ele>
        <time>2020-06-23T12:00:49Z</time>
      </trkpt>
      <trkpt lat="51.07066" lon="2.52111">
        <ele>4.7</ele>
        <time>2020-06-23T12:00:50Z</time>
      </trkpt>
      <trkpt lat="51.07065" lon="2.5211">
        <ele>4.7</ele>
        <time>2020-06-23T12:00:51Z</time>
      </trkpt>
      <trkpt lat="51.07065" lon="2.52109">
        <ele>4.7</ele>
        <time>2020-06-23T12:00:52Z</time>
      </trkpt>
      <trkpt lat="51.07065" lon="2.52108">
        <ele>4.7</ele>
        <time>2020-06-23T12:00:53Z</time>
      </trkpt>
      <trkpt lat="51.07065" lon="2.52107">
        <ele>4.7</ele>
        <time>2020-06-23T12:00:54Z</time>
      </trkpt>
      <trkpt lat="51.07064" lon="2.52106">
        <ele>4.7</ele>
        <time>2020-06-23T12:00:55Z</time>
      </trkpt>
      <trkpt lat="51.07064" lon="2.52105">
        <ele>4.7</ele>
        <time>2020-06-23T12:00:56Z</time>
      </trkpt>
      <trkpt lat="51.07064" lon="2.521">
        <ele>4.7</ele>
        <time>2020-06-23T12:00:57Z</time>
      </trkpt>
      <trkpt lat="51.07064" lon="2.52095">
        <ele>4.7</ele>
        <time>2020-06-23T12:00:58Z</time>
      </trkpt>
      <trkpt lat="51.07063" lon="2.5209">
        <ele>4.7</ele>
        <time>2020-06-23T12:00:59Z</time>
      </trkpt>
      <trkpt lat="51.07062" lon="2.52085">
        <ele>4.7</ele>
        <time>2020-06-23T12:01:00Z</time>
      </trkpt>
      <trkpt lat="51.07062" lon="2.5208">
        <ele>4.7</ele>
        <time>2020-06-23T12:01:01Z</time>
      </trkpt>
      <trkpt lat="51.07062" lon="2.52075">
        <ele>4.7</ele>
        <time>2020-06-23T12:01:02Z</time>
      </trkpt>
      <trkpt lat="51.07061" lon="2.5207">
        <ele>4.7</ele>
        <time>2020-06-23T12:01:03Z</time>
      </trkpt>
      <trkpt lat="51.07061" lon="2.52064">
        <ele>4.7</ele>
        <time>2020-06-23T12:01:04Z</time>
      </trkpt>
      <trkpt lat="51.07061" lon="2.52059">
        <ele>4.7</ele>
        <time>2020-06-23T12:01:05Z</time>
      </trkpt>
      <trkpt lat="51.0706" lon="2.52054">
        <ele>4.7</ele>
        <time>2020-06-23T12:01:06Z</time>
      </trkpt>
      <trkpt lat="51.0706" lon="2.52048">
        <ele>4.7</ele>
        <time>2020-06-23T12:01:07Z</time>
      </trkpt>
      <trkpt lat="51.0706" lon="2.52043">
        <ele>4.7</ele>
        <time>2020-06-23T12:01:08Z</time>
      </trkpt>
      <trkpt lat="51.0706" lon="2.52038">
        <ele>4.7</ele>
        <time>2020-06-23T12:01:09Z</time>
      </trkpt>
      <trkpt lat="51.0706" lon="2.52033">
        <ele>4.7</ele>
        <time>2020-06-23T12:01:10Z</time>
      </trkpt>
      <trkpt lat="51.0706" lon="2.52028">
        <ele>4.7</ele>
        <time>2020-06-23T12:01:11Z</time>
      </trkpt>
      <trkpt lat="51.0706" lon="2.52023">
        <ele>4.7</ele>
        <time>2020-06-23T12:01:12Z</time>
      </trkpt>
      <trkpt lat="51.0706" lon="2.52018">
        <ele>4.7</ele>
        <time>2020-06-23T12:01:13Z</time>
      </trkpt>
      <trkpt lat="51.0706" lon="2.52013">
        <ele>4.7</ele>
        <time>2020-06-23T12:01:14Z</time>
      </trkpt>
      <trkpt lat="51.0706" lon="2.52008">
        <ele>4.7</ele>
        <time>2020-06-23T12:01:15Z</time>
      </trkpt>
      <trkpt lat="51.0706" lon="2.52003">
        <ele>4.7</ele>
        <time>2020-06-23T12:01:16Z</time>
      </trkpt>
      <trkpt lat="51.07061" lon="2.51997">
        <ele>4.7</ele>
        <time>2020-06-23T12:01:17Z</time>
      </trkpt>
      <trkpt lat="51.07061" lon="2.51994">
        <ele>4.7</ele>
        <time>2020-06-23T12:01:18Z</time>
      </trkpt>
      <trkpt lat="51.07061" lon="2.5199">
        <ele>4.7</ele>
        <time>2020-06-23T12:01:19Z</time>
      </trkpt>
      <trkpt lat="51.07062" lon="2.51985">
        <ele>4.7</ele>
        <time>2020-06-23T12:01:20Z</time>
      </trkpt>
      <trkpt lat="51.07063" lon="2.51981">
        <ele>4.7</ele>
        <time>2020-06-23T12:01:21Z</time>
      </trkpt>
      <trkpt lat="51.07064" lon="2.51975">
        <ele>4.6</ele>
        <time>2020-06-23T12:01:22Z</time>
      </trkpt>
      <trkpt lat="51.07064" lon="2.51969">
        <ele>4.6</ele>
        <time>2020-06-23T12:01:23Z</time>
      </trkpt>
      <trkpt lat="51.07064" lon="2.51964">
        <ele>4.6</ele>
        <time>2020-06-23T12:01:24Z</time>
      </trkpt>
      <trkpt lat="51.07063" lon="2.51959">
        <ele>4.6</ele>
        <time>2020-06-23T12:01:25Z</time>
      </trkpt>
      <trkpt lat="51.07062" lon="2.51953">
        <ele>4.6</ele>
        <time>2020-06-23T12:01:26Z</time>
      </trkpt>
      <trkpt lat="51.0706" lon="2.51947">
        <ele>4.6</ele>
        <time>2020-06-23T12:01:27Z</time>
      </trkpt>
      <trkpt lat="51.07059" lon="2.51942">
        <ele>4.6</ele>
        <time>2020-06-23T12:01:28Z</time>
      </trkpt>
      <trkpt lat="51.07058" lon="2.51936">
        <ele>4.6</ele>
        <time>2020-06-23T12:01:29Z</time>
      </trkpt>
      <trkpt lat="51.07058" lon="2.51931">
        <ele>4.6</ele>
        <time>2020-06-23T12:01:30Z</time>
      </trkpt>
      <trkpt lat="51.07057" lon="2.51925">
        <ele>4.6</ele>
        <time>2020-06-23T12:01:31Z</time>
      </trkpt>
      <trkpt lat="51.07056" lon="2.51919">
        <ele>4.6</ele>
        <time>2020-06-23T12:01:32Z</time>
      </trkpt>
      <trkpt lat="51.07056" lon="2.51913">
        <ele>4.6</ele>
        <time>2020-06-23T12:01:33Z</time>
      </trkpt>
      <trkpt lat="51.07056" lon="2.51907">
        <ele>4.6</ele>
        <time>2020-06-23T12:01:34Z</time>
      </trkpt>
      <trkpt lat="51.07056" lon="2.51899">
        <ele>4.6</ele>
        <time>2020-06-23T12:01:35Z</time>
      </trkpt>
      <trkpt lat="51.07055" lon="2.51892">
        <ele>4.7</ele>
        <time>2020-06-23T12:01:36Z</time>
      </trkpt>
      <trkpt lat="51.07054" lon="2.51884">
        <ele>4.7</ele>
        <time>2020-06-23T12:01:37Z</time>
      </trkpt>
      <trkpt lat="51.07054" lon="2.51875">
        <ele>4.6</ele>
        <time>2020-06-23T12:01:38Z</time>
      </trkpt>
      <trkpt lat="51.07053" lon="2.51867">
        <ele>4.6</ele>
        <time>2020-06-23T12:01:39Z</time>
      </trkpt>
      <trkpt lat="51.07051" lon="2.5186">
        <ele>4.6</ele>
        <time>2020-06-23T12:01:40Z</time>
      </trkpt>
      <trkpt lat="51.0705" lon="2.51853">
        <ele>4.6</ele>
        <time>2020-06-23T12:01:41Z</time>
      </trkpt>
      <trkpt lat="51.07048" lon="2.51846">
        <ele>4.6</ele>
        <time>2020-06-23T12:01:42Z</time>
      </trkpt>
      <trkpt lat="51.07046" lon="2.51838">
        <ele>4.6</ele>
        <time>2020-06-23T12:01:43Z</time>
      </trkpt>
      <trkpt lat="51.07045" lon="2.51831">
        <ele>4.7</ele>
        <time>2020-06-23T12:01:44Z</time>
      </trkpt>
      <trkpt lat="51.07042" lon="2.51823">
        <ele>4.7</ele>
        <time>2020-06-23T12:01:45Z</time>
      </trkpt>
      <trkpt lat="51.07041" lon="2.51814">
        <ele>4.7</ele>
        <time>2020-06-23T12:01:46Z</time>
      </trkpt>
      <trkpt lat="51.0704" lon="2.51808">
        <ele>4.7</ele>
        <time>2020-06-23T12:01:47Z</time>
      </trkpt>
      <trkpt lat="51.07038" lon="2.51801">
        <ele>4.7</ele>
        <time>2020-06-23T12:01:48Z</time>
      </trkpt>
      <trkpt lat="51.07037" lon="2.51795">
        <ele>4.8</ele>
        <time>2020-06-23T12:01:49Z</time>
      </trkpt>
      <trkpt lat="51.07035" lon="2.51789">
        <ele>4.8</ele>
        <time>2020-06-23T12:01:50Z</time>
      </trkpt>
      <trkpt lat="51.07034" lon="2.51783">
        <ele>4.8</ele>
        <time>2020-06-23T12:01:51Z</time>
      </trkpt>
      <trkpt lat="51.07033" lon="2.51778">
        <ele>4.8</ele>
        <time>2020-06-23T12:01:52Z</time>
      </trkpt>
      <trkpt lat="51.07032" lon="2.51772">
        <ele>4.8</ele>
        <time>2020-06-23T12:01:53Z</time>
      </trkpt>
      <trkpt lat="51.07031" lon="2.51764">
        <ele>4.9</ele>
        <time>2020-06-23T12:01:54Z</time>
      </trkpt>
      <trkpt lat="51.0703" lon="2.51757">
        <ele>4.9</ele>
        <time>2020-06-23T12:01:55Z</time>
      </trkpt>
      <trkpt lat="51.07029" lon="2.51749">
        <ele>4.9</ele>
        <time>2020-06-23T12:01:56Z</time>
      </trkpt>
      <trkpt lat="51.07027" lon="2.51741">
        <ele>5</ele>
        <time>2020-06-23T12:01:57Z</time>
      </trkpt>
      <trkpt lat="51.07026" lon="2.51734">
        <ele>5</ele>
        <time>2020-06-23T12:01:58Z</time>
      </trkpt>
      <trkpt lat="51.07025" lon="2.51728">
        <ele>5.1</ele>
        <time>2020-06-23T12:01:59Z</time>
      </trkpt>
      <trkpt lat="51.07023" lon="2.51724">
        <ele>5.1</ele>
        <time>2020-06-23T12:02:00Z</time>
      </trkpt>
      <trkpt lat="51.07022" lon="2.51718">
        <ele>5.1</ele>
        <time>2020-06-23T12:02:01Z</time>
      </trkpt>
      <trkpt lat="51.07021" lon="2.51716">
        <ele>5.2</ele>
        <time>2020-06-23T12:02:02Z</time>
      </trkpt>
      <trkpt lat="51.0702" lon="2.51711">
        <ele>5.2</ele>
        <time>2020-06-23T12:02:03Z</time>
      </trkpt>
      <trkpt lat="51.07019" lon="2.51706">
        <ele>5.2</ele>
        <time>2020-06-23T12:02:04Z</time>
      </trkpt>
      <trkpt lat="51.07019" lon="2.51701">
        <ele>5.3</ele>
        <time>2020-06-23T12:02:05Z</time>
      </trkpt>
      <trkpt lat="51.07018" lon="2.51695">
        <ele>5.3</ele>
        <time>2020-06-23T12:02:06Z</time>
      </trkpt>
      <trkpt lat="51.07017" lon="2.51689">
        <ele>5.3</ele>
        <time>2020-06-23T12:02:07Z</time>
      </trkpt>
      <trkpt lat="51.07017" lon="2.51685">
        <ele>5.4</ele>
        <time>2020-06-23T12:02:08Z</time>
      </trkpt>
      <trkpt lat="51.07016" lon="2.51679">
        <ele>5.4</ele>
        <time>2020-06-23T12:02:09Z</time>
      </trkpt>
      <trkpt lat="51.07016" lon="2.51677">
        <ele>5.4</ele>
        <time>2020-06-23T12:02:10Z</time>
      </trkpt>
      <trkpt lat="51.07014" lon="2.51673">
        <ele>5.4</ele>
        <time>2020-06-23T12:02:11Z</time>
      </trkpt>
      <trkpt lat="51.07013" lon="2.51672">
        <ele>5.5</ele>
        <time>2020-06-23T12:02:12Z</time>
      </trkpt>
      <trkpt lat="51.07011" lon="2.5167">
        <ele>5.5</ele>
        <time>2020-06-23T12:02:13Z</time>
      </trkpt>
      <trkpt lat="51.0701" lon="2.51669">
        <ele>5.5</ele>
        <time>2020-06-23T12:02:14Z</time>
      </trkpt>
      <trkpt lat="51.07007" lon="2.51667">
        <ele>5.5</ele>
        <time>2020-06-23T12:02:15Z</time>
      </trkpt>
      <trkpt lat="51.07006" lon="2.51666">
        <ele>5.6</ele>
        <time>2020-06-23T12:02:16Z</time>
      </trkpt>
      <trkpt lat="51.07004" lon="2.51665">
        <ele>5.6</ele>
        <time>2020-06-23T12:02:17Z</time>
      </trkpt>
      <trkpt lat="51.07004" lon="2.51663">
        <ele>5.6</ele>
        <time>2020-06-23T12:02:18Z</time>
      </trkpt>
      <trkpt lat="51.07002" lon="2.51659">
        <ele>5.6</ele>
        <time>2020-06-23T12:02:19Z</time>
      </trkpt>
      <trkpt lat="51.07001" lon="2.51657">
        <ele>5.6</ele>
        <time>2020-06-23T12:02:20Z</time>
      </trkpt>
      <trkpt lat="51.07001" lon="2.51655">
        <ele>5.6</ele>
        <time>2020-06-23T12:02:21Z</time>
      </trkpt>
      <trkpt lat="51.07" lon="2.51654">
        <ele>5.6</ele>
        <time>2020-06-23T12:02:22Z</time>
      </trkpt>
      <trkpt lat="51.06999" lon="2.51655">
        <ele>5.7</ele>
        <time>2020-06-23T12:02:23Z</time>
      </trkpt>
      <trkpt lat="51.06999" lon="2.51655">
        <ele>5.7</ele>
        <time>2020-06-23T12:02:24Z</time>
      </trkpt>
      <trkpt lat="51.06998" lon="2.51656">
        <ele>5.7</ele>
        <time>2020-06-23T12:02:25Z</time>
      </trkpt>
      <trkpt lat="51.06998" lon="2.51656">
        <ele>5.7</ele>
        <time>2020-06-23T12:02:26Z</time>
      </trkpt>
      <trkpt lat="51.06997" lon="2.51655">
        <ele>5.7</ele>
        <time>2020-06-23T12:02:27Z</time>
      </trkpt>
      <trkpt lat="51.06997" lon="2.51655">
        <ele>5.7</ele>
        <time>2020-06-23T12:02:28Z</time>
      </trkpt>
      <trkpt lat="51.06996" lon="2.51653">
        <ele>5.7</ele>
        <time>2020-06-23T12:02:29Z</time>
      </trkpt>
      <trkpt lat="51.06996" lon="2.51652">
        <ele>5.7</ele>
        <time>2020-06-23T12:02:30Z</time>
      </trkpt>
      <trkpt lat="51.06996" lon="2.51652">
        <ele>5.7</ele>
        <time>2020-06-23T12:02:31Z</time>
      </trkpt>
      <trkpt lat="51.0699" lon="2.51648">
        <ele>5.5</ele>
        <time>2020-06-23T12:02:51Z</time>
      </trkpt>
      <trkpt lat="51.06988" lon="2.51649">
        <ele>5.4</ele>
        <time>2020-06-23T12:02:52Z</time>
      </trkpt>
      <trkpt lat="51.06986" lon="2.51651">
        <ele>5.2</ele>
        <time>2020-06-23T12:02:53Z</time>
      </trkpt>
      <trkpt lat="51.06985" lon="2.51652">
        <ele>5.1</ele>
        <time>2020-06-23T12:02:54Z</time>
      </trkpt>
      <trkpt lat="51.06982" lon="2.51653">
        <ele>4.9</ele>
        <time>2020-06-23T12:02:55Z</time>
      </trkpt>
      <trkpt lat="51.06978" lon="2.51654">
        <ele>4.7</ele>
        <time>2020-06-23T12:02:56Z</time>
      </trkpt>
      <trkpt lat="51.06974" lon="2.51655">
        <ele>4.4</ele>
        <time>2020-06-23T12:02:57Z</time>
      </trkpt>
      <trkpt lat="51.0697" lon="2.51656">
        <ele>4.2</ele>
        <time>2020-06-23T12:02:58Z</time>
      </trkpt>
      <trkpt lat="51.06966" lon="2.51657">
        <ele>4.1</ele>
        <time>2020-06-23T12:02:59Z</time>
      </trkpt>
      <trkpt lat="51.06962" lon="2.51659">
        <ele>4</ele>
        <time>2020-06-23T12:03:00Z</time>
      </trkpt>
      <trkpt lat="51.06958" lon="2.5166">
        <ele>3.8</ele>
        <time>2020-06-23T12:03:01Z</time>
      </trkpt>
      <trkpt lat="51.06954" lon="2.5166">
        <ele>3.7</ele>
        <time>2020-06-23T12:03:02Z</time>
      </trkpt>
      <trkpt lat="51.06952" lon="2.51661">
        <ele>3.7</ele>
        <time>2020-06-23T12:03:03Z</time>
      </trkpt>
      <trkpt lat="51.06949" lon="2.51663">
        <ele>3.6</ele>
        <time>2020-06-23T12:03:04Z</time>
      </trkpt>
      <trkpt lat="51.06948" lon="2.51663">
        <ele>3.6</ele>
        <time>2020-06-23T12:03:05Z</time>
      </trkpt>
      <trkpt lat="51.06944" lon="2.51665">
        <ele>3.5</ele>
        <time>2020-06-23T12:03:06Z</time>
      </trkpt>
      <trkpt lat="51.06943" lon="2.51665">
        <ele>3.5</ele>
        <time>2020-06-23T12:03:07Z</time>
      </trkpt>
      <trkpt lat="51.0694" lon="2.51666">
        <ele>3.4</ele>
        <time>2020-06-23T12:03:08Z</time>
      </trkpt>
      <trkpt lat="51.06939" lon="2.51666">
        <ele>3.4</ele>
        <time>2020-06-23T12:03:09Z</time>
      </trkpt>
      <trkpt lat="51.06937" lon="2.51666">
        <ele>3.4</ele>
        <time>2020-06-23T12:03:10Z</time>
      </trkpt>
      <trkpt lat="51.06936" lon="2.51665">
        <ele>3.3</ele>
        <time>2020-06-23T12:03:11Z</time>
      </trkpt>
      <trkpt lat="51.06934" lon="2.51665">
        <ele>3.3</ele>
        <time>2020-06-23T12:03:12Z</time>
      </trkpt>
      <trkpt lat="51.06933" lon="2.51666">
        <ele>3.3</ele>
        <time>2020-06-23T12:03:13Z</time>
      </trkpt>
      <trkpt lat="51.06932" lon="2.51666">
        <ele>3.3</ele>
        <time>2020-06-23T12:03:14Z</time>
      </trkpt>
      <trkpt lat="51.06931" lon="2.51666">
        <ele>3.2</ele>
        <time>2020-06-23T12:03:15Z</time>
      </trkpt>
      <trkpt lat="51.06928" lon="2.51663">
        <ele>3.1</ele>
        <time>2020-06-23T12:03:16Z</time>
      </trkpt>
      <trkpt lat="51.06926" lon="2.51662">
        <ele>3.1</ele>
        <time>2020-06-23T12:03:17Z</time>
      </trkpt>
      <trkpt lat="51.06925" lon="2.51664">
        <ele>3.1</ele>
        <time>2020-06-23T12:03:18Z</time>
      </trkpt>
      <trkpt lat="51.06924" lon="2.51663">
        <ele>3.1</ele>
        <time>2020-06-23T12:03:19Z</time>
      </trkpt>
      <trkpt lat="51.06924" lon="2.51663">
        <ele>3.1</ele>
        <time>2020-06-23T12:03:20Z</time>
      </trkpt>
      <trkpt lat="51.06924" lon="2.51663">
        <ele>3.1</ele>
        <time>2020-06-23T12:03:21Z</time>
      </trkpt>
      <trkpt lat="51.06924" lon="2.51663">
        <ele>3.1</ele>
        <time>2020-06-23T12:03:22Z</time>
      </trkpt>
      <trkpt lat="51.06924" lon="2.51663">
        <ele>3</ele>
        <time>2020-06-23T12:03:23Z</time>
      </trkpt>
      <trkpt lat="51.06924" lon="2.51663">
        <ele>3</ele>
        <time>2020-06-23T12:03:24Z</time>
      </trkpt>
      <trkpt lat="51.06924" lon="2.51663">
        <ele>3</ele>
        <time>2020-06-23T12:03:25Z</time>
      </trkpt>
      <trkpt lat="51.06924" lon="2.51661">
        <ele>3</ele>
        <time>2020-06-23T12:03:26Z</time>
      </trkpt>
      <trkpt lat="51.06924" lon="2.51659">
        <ele>3</ele>
        <time>2020-06-23T12:03:27Z</time>
      </trkpt>
      <trkpt lat="51.06924" lon="2.51657">
        <ele>3</ele>
        <time>2020-06-23T12:04:04Z</time>
      </trkpt>
      <trkpt lat="51.06925" lon="2.51655">
        <ele>2.9</ele>
        <time>2020-06-23T12:04:05Z</time>
      </trkpt>
      <trkpt lat="51.06928" lon="2.51654">
        <ele>2.9</ele>
        <time>2020-06-23T12:04:06Z</time>
      </trkpt>
      <trkpt lat="51.06929" lon="2.51653">
        <ele>2.9</ele>
        <time>2020-06-23T12:04:07Z</time>
      </trkpt>
      <trkpt lat="51.06933" lon="2.51654">
        <ele>3</ele>
        <time>2020-06-23T12:04:08Z</time>
      </trkpt>
      <trkpt lat="51.06934" lon="2.51654">
        <ele>3.1</ele>
        <time>2020-06-23T12:04:09Z</time>
      </trkpt>
      <trkpt lat="51.06938" lon="2.51654">
        <ele>3.2</ele>
        <time>2020-06-23T12:04:10Z</time>
      </trkpt>
      <trkpt lat="51.06942" lon="2.51654">
        <ele>3.3</ele>
        <time>2020-06-23T12:04:11Z</time>
      </trkpt>
      <trkpt lat="51.06946" lon="2.51653">
        <ele>3.5</ele>
        <time>2020-06-23T12:04:12Z</time>
      </trkpt>
      <trkpt lat="51.0695" lon="2.51652">
        <ele>3.6</ele>
        <time>2020-06-23T12:04:13Z</time>
      </trkpt>
      <trkpt lat="51.06954" lon="2.5165">
        <ele>3.7</ele>
        <time>2020-06-23T12:04:14Z</time>
      </trkpt>
      <trkpt lat="51.06958" lon="2.51649">
        <ele>3.8</ele>
        <time>2020-06-23T12:04:15Z</time>
      </trkpt>
      <trkpt lat="51.06963" lon="2.51648">
        <ele>4.2</ele>
        <time>2020-06-23T12:04:16Z</time>
      </trkpt>
      <trkpt lat="51.06968" lon="2.51644">
        <ele>4.3</ele>
        <time>2020-06-23T12:04:17Z</time>
      </trkpt>
      <trkpt lat="51.06973" lon="2.51638">
        <ele>4.4</ele>
        <time>2020-06-23T12:04:18Z</time>
      </trkpt>
      <trkpt lat="51.06976" lon="2.51637">
        <ele>4.6</ele>
        <time>2020-06-23T12:04:19Z</time>
      </trkpt>
      <trkpt lat="51.06979" lon="2.51636">
        <ele>4.8</ele>
        <time>2020-06-23T12:04:20Z</time>
      </trkpt>
      <trkpt lat="51.06985" lon="2.51638">
        <ele>5.1</ele>
        <time>2020-06-23T12:04:21Z</time>
      </trkpt>
      <trkpt lat="51.06988" lon="2.51637">
        <ele>5.2</ele>
        <time>2020-06-23T12:04:22Z</time>
      </trkpt>
      <trkpt lat="51.0699" lon="2.51637">
        <ele>5.4</ele>
        <time>2020-06-23T12:04:23Z</time>
      </trkpt>
      <trkpt lat="51.06993" lon="2.51639">
        <ele>5.5</ele>
        <time>2020-06-23T12:04:24Z</time>
      </trkpt>
      <trkpt lat="51.06994" lon="2.51638">
        <ele>5.6</ele>
        <time>2020-06-23T12:04:25Z</time>
      </trkpt>
      <trkpt lat="51.06997" lon="2.51637">
        <ele>5.6</ele>
        <time>2020-06-23T12:04:26Z</time>
      </trkpt>
      <trkpt lat="51.07001" lon="2.51634">
        <ele>5.6</ele>
        <time>2020-06-23T12:04:27Z</time>
      </trkpt>
      <trkpt lat="51.07005" lon="2.51632">
        <ele>5.7</ele>
        <time>2020-06-23T12:04:28Z</time>
      </trkpt>
      <trkpt lat="51.07009" lon="2.51627">
        <ele>5.7</ele>
        <time>2020-06-23T12:04:29Z</time>
      </trkpt>
      <trkpt lat="51.0701" lon="2.51625">
        <ele>5.7</ele>
        <time>2020-06-23T12:04:30Z</time>
      </trkpt>
      <trkpt lat="51.07014" lon="2.51624">
        <ele>5.8</ele>
        <time>2020-06-23T12:04:31Z</time>
      </trkpt>
      <trkpt lat="51.07018" lon="2.51623">
        <ele>5.8</ele>
        <time>2020-06-23T12:04:32Z</time>
      </trkpt>
      <trkpt lat="51.07021" lon="2.51622">
        <ele>5.8</ele>
        <time>2020-06-23T12:04:33Z</time>
      </trkpt>
      <trkpt lat="51.07025" lon="2.5162">
        <ele>5.9</ele>
        <time>2020-06-23T12:04:34Z</time>
      </trkpt>
      <trkpt lat="51.07027" lon="2.51619">
        <ele>5.9</ele>
        <time>2020-06-23T12:04:35Z</time>
      </trkpt>
      <trkpt lat="51.0703" lon="2.51618">
        <ele>5.9</ele>
        <time>2020-06-23T12:04:36Z</time>
      </trkpt>
      <trkpt lat="51.07034" lon="2.51616">
        <ele>6</ele>
        <time>2020-06-23T12:04:37Z</time>
      </trkpt>
      <trkpt lat="51.07037" lon="2.51614">
        <ele>6.1</ele>
        <time>2020-06-23T12:04:38Z</time>
      </trkpt>
      <trkpt lat="51.0704" lon="2.51614">
        <ele>6.2</ele>
        <time>2020-06-23T12:04:39Z</time>
      </trkpt>
      <trkpt lat="51.07043" lon="2.51612">
        <ele>6.3</ele>
        <time>2020-06-23T12:04:40Z</time>
      </trkpt>
      <trkpt lat="51.07046" lon="2.51612">
        <ele>6.4</ele>
        <time>2020-06-23T12:04:41Z</time>
      </trkpt>
      <trkpt lat="51.0705" lon="2.51611">
        <ele>6.4</ele>
        <time>2020-06-23T12:04:42Z</time>
      </trkpt>
      <trkpt lat="51.07051" lon="2.51611">
        <ele>6.4</ele>
        <time>2020-06-23T12:04:43Z</time>
      </trkpt>
      <trkpt lat="51.07054" lon="2.51611">
        <ele>6.5</ele>
        <time>2020-06-23T12:04:44Z</time>
      </trkpt>
      <trkpt lat="51.07057" lon="2.51608">
        <ele>6.5</ele>
        <time>2020-06-23T12:04:45Z</time>
      </trkpt>
      <trkpt lat="51.0706" lon="2.51606">
        <ele>6.5</ele>
        <time>2020-06-23T12:04:46Z</time>
      </trkpt>
      <trkpt lat="51.07063" lon="2.51605">
        <ele>6.5</ele>
        <time>2020-06-23T12:04:47Z</time>
      </trkpt>
      <trkpt lat="51.07066" lon="2.51604">
        <ele>6.5</ele>
        <time>2020-06-23T12:04:48Z</time>
      </trkpt>
      <trkpt lat="51.0707" lon="2.51602">
        <ele>6.5</ele>
        <time>2020-06-23T12:04:49Z</time>
      </trkpt>
      <trkpt lat="51.07074" lon="2.51601">
        <ele>6.6</ele>
        <time>2020-06-23T12:04:50Z</time>
      </trkpt>
      <trkpt lat="51.07078" lon="2.51599">
        <ele>6.6</ele>
        <time>2020-06-23T12:04:51Z</time>
      </trkpt>
      <trkpt lat="51.07082" lon="2.51598">
        <ele>6.6</ele>
        <time>2020-06-23T12:04:52Z</time>
      </trkpt>
      <trkpt lat="51.07087" lon="2.51596">
        <ele>6.7</ele>
        <time>2020-06-23T12:04:53Z</time>
      </trkpt>
      <trkpt lat="51.07093" lon="2.51593">
        <ele>6.8</ele>
        <time>2020-06-23T12:04:54Z</time>
      </trkpt>
      <trkpt lat="51.07098" lon="2.51592">
        <ele>6.9</ele>
        <time>2020-06-23T12:04:55Z</time>
      </trkpt>
      <trkpt lat="51.07102" lon="2.51591">
        <ele>6.9</ele>
        <time>2020-06-23T12:04:56Z</time>
      </trkpt>
      <trkpt lat="51.07107" lon="2.5159">
        <ele>7</ele>
        <time>2020-06-23T12:04:57Z</time>
      </trkpt>
      <trkpt lat="51.07111" lon="2.51588">
        <ele>7.1</ele>
        <time>2020-06-23T12:04:58Z</time>
      </trkpt>
      <trkpt lat="51.07115" lon="2.51587">
        <ele>7.1</ele>
        <time>2020-06-23T12:04:59Z</time>
      </trkpt>
      <trkpt lat="51.07118" lon="2.51586">
        <ele>7.1</ele>
        <time>2020-06-23T12:05:00Z</time>
      </trkpt>
      <trkpt lat="51.07122" lon="2.51585">
        <ele>7.2</ele>
        <time>2020-06-23T12:05:01Z</time>
      </trkpt>
      <trkpt lat="51.07125" lon="2.51584">
        <ele>7.2</ele>
        <time>2020-06-23T12:05:02Z</time>
      </trkpt>
      <trkpt lat="51.07129" lon="2.51579">
        <ele>7.2</ele>
        <time>2020-06-23T12:05:03Z</time>
      </trkpt>
      <trkpt lat="51.07133" lon="2.51578">
        <ele>7.2</ele>
        <time>2020-06-23T12:05:04Z</time>
      </trkpt>
      <trkpt lat="51.07138" lon="2.51577">
        <ele>7.3</ele>
        <time>2020-06-23T12:05:05Z</time>
      </trkpt>
      <trkpt lat="51.07143" lon="2.51576">
        <ele>7.3</ele>
        <time>2020-06-23T12:05:06Z</time>
      </trkpt>
      <trkpt lat="51.07148" lon="2.51575">
        <ele>7.3</ele>
        <time>2020-06-23T12:05:07Z</time>
      </trkpt>
      <trkpt lat="51.07152" lon="2.51573">
        <ele>7.3</ele>
        <time>2020-06-23T12:05:08Z</time>
      </trkpt>
      <trkpt lat="51.07156" lon="2.51572">
        <ele>7.4</ele>
        <time>2020-06-23T12:05:09Z</time>
      </trkpt>
      <trkpt lat="51.07161" lon="2.5157">
        <ele>7.4</ele>
        <time>2020-06-23T12:05:10Z</time>
      </trkpt>
      <trkpt lat="51.07165" lon="2.51568">
        <ele>7.5</ele>
        <time>2020-06-23T12:05:11Z</time>
      </trkpt>
      <trkpt lat="51.07169" lon="2.51566">
        <ele>7.5</ele>
        <time>2020-06-23T12:05:12Z</time>
      </trkpt>
      <trkpt lat="51.07173" lon="2.51564">
        <ele>7.6</ele>
        <time>2020-06-23T12:05:13Z</time>
      </trkpt>
      <trkpt lat="51.07178" lon="2.51561">
        <ele>7.6</ele>
        <time>2020-06-23T12:05:14Z</time>
      </trkpt>
      <trkpt lat="51.07183" lon="2.51559">
        <ele>7.7</ele>
        <time>2020-06-23T12:05:15Z</time>
      </trkpt>
      <trkpt lat="51.07188" lon="2.51557">
        <ele>7.7</ele>
        <time>2020-06-23T12:05:16Z</time>
      </trkpt>
      <trkpt lat="51.07193" lon="2.51555">
        <ele>7.7</ele>
        <time>2020-06-23T12:05:17Z</time>
      </trkpt>
      <trkpt lat="51.07198" lon="2.51554">
        <ele>7.8</ele>
        <time>2020-06-23T12:05:18Z</time>
      </trkpt>
      <trkpt lat="51.07204" lon="2.51552">
        <ele>7.8</ele>
        <time>2020-06-23T12:05:19Z</time>
      </trkpt>
      <trkpt lat="51.07209" lon="2.51551">
        <ele>7.8</ele>
        <time>2020-06-23T12:05:20Z</time>
      </trkpt>
      <trkpt lat="51.07214" lon="2.51549">
        <ele>7.8</ele>
        <time>2020-06-23T12:05:21Z</time>
      </trkpt>
      <trkpt lat="51.07219" lon="2.51547">
        <ele>7.9</ele>
        <time>2020-06-23T12:05:22Z</time>
      </trkpt>
      <trkpt lat="51.07223" lon="2.51544">
        <ele>7.9</ele>
        <time>2020-06-23T12:05:23Z</time>
      </trkpt>
      <trkpt lat="51.07228" lon="2.51542">
        <ele>7.9</ele>
        <time>2020-06-23T12:05:24Z</time>
      </trkpt>
      <trkpt lat="51.07233" lon="2.51541">
        <ele>7.9</ele>
        <time>2020-06-23T12:05:25Z</time>
      </trkpt>
      <trkpt lat="51.07238" lon="2.5154">
        <ele>7.9</ele>
        <time>2020-06-23T12:05:26Z</time>
      </trkpt>
      <trkpt lat="51.07243" lon="2.51538">
        <ele>7.9</ele>
        <time>2020-06-23T12:05:27Z</time>
      </trkpt>
      <trkpt lat="51.07248" lon="2.51537">
        <ele>7.9</ele>
        <time>2020-06-23T12:05:28Z</time>
      </trkpt>
      <trkpt lat="51.07254" lon="2.51536">
        <ele>7.9</ele>
        <time>2020-06-23T12:05:29Z</time>
      </trkpt>
      <trkpt lat="51.07259" lon="2.51534">
        <ele>7.8</ele>
        <time>2020-06-23T12:05:30Z</time>
      </trkpt>
      <trkpt lat="51.07264" lon="2.51531">
        <ele>7.8</ele>
        <time>2020-06-23T12:05:31Z</time>
      </trkpt>
      <trkpt lat="51.07269" lon="2.51529">
        <ele>7.8</ele>
        <time>2020-06-23T12:05:32Z</time>
      </trkpt>
      <trkpt lat="51.07274" lon="2.51527">
        <ele>7.8</ele>
        <time>2020-06-23T12:05:33Z</time>
      </trkpt>
      <trkpt lat="51.07279" lon="2.51524">
        <ele>7.8</ele>
        <time>2020-06-23T12:05:34Z</time>
      </trkpt>
      <trkpt lat="51.07284" lon="2.51521">
        <ele>7.7</ele>
        <time>2020-06-23T12:05:35Z</time>
      </trkpt>
      <trkpt lat="51.07291" lon="2.51517">
        <ele>7.7</ele>
        <time>2020-06-23T12:05:36Z</time>
      </trkpt>
      <trkpt lat="51.07297" lon="2.51514">
        <ele>7.7</ele>
        <time>2020-06-23T12:05:37Z</time>
      </trkpt>
      <trkpt lat="51.07302" lon="2.51511">
        <ele>7.7</ele>
        <time>2020-06-23T12:05:38Z</time>
      </trkpt>
      <trkpt lat="51.07308" lon="2.51509">
        <ele>7.6</ele>
        <time>2020-06-23T12:05:39Z</time>
      </trkpt>
      <trkpt lat="51.07314" lon="2.51507">
        <ele>7.6</ele>
        <time>2020-06-23T12:05:40Z</time>
      </trkpt>
      <trkpt lat="51.0732" lon="2.51506">
        <ele>7.6</ele>
        <time>2020-06-23T12:05:41Z</time>
      </trkpt>
      <trkpt lat="51.07326" lon="2.51504">
        <ele>7.6</ele>
        <time>2020-06-23T12:05:42Z</time>
      </trkpt>
      <trkpt lat="51.07332" lon="2.51503">
        <ele>7.5</ele>
        <time>2020-06-23T12:05:43Z</time>
      </trkpt>
      <trkpt lat="51.07338" lon="2.51502">
        <ele>7.5</ele>
        <time>2020-06-23T12:05:44Z</time>
      </trkpt>
      <trkpt lat="51.07344" lon="2.51501">
        <ele>7.5</ele>
        <time>2020-06-23T12:05:45Z</time>
      </trkpt>
      <trkpt lat="51.07349" lon="2.515">
        <ele>7.5</ele>
        <time>2020-06-23T12:05:46Z</time>
      </trkpt>
      <trkpt lat="51.07355" lon="2.51498">
        <ele>7.4</ele>
        <time>2020-06-23T12:05:47Z</time>
      </trkpt>
      <trkpt lat="51.07361" lon="2.51496">
        <ele>7.4</ele>
        <time>2020-06-23T12:05:48Z</time>
      </trkpt>
      <trkpt lat="51.07367" lon="2.51495">
        <ele>7.4</ele>
        <time>2020-06-23T12:05:49Z</time>
      </trkpt>
      <trkpt lat="51.07373" lon="2.51493">
        <ele>7.3</ele>
        <time>2020-06-23T12:05:50Z</time>
      </trkpt>
      <trkpt lat="51.07378" lon="2.51492">
        <ele>7.3</ele>
        <time>2020-06-23T12:05:51Z</time>
      </trkpt>
      <trkpt lat="51.07384" lon="2.5149">
        <ele>7.2</ele>
        <time>2020-06-23T12:05:52Z</time>
      </trkpt>
      <trkpt lat="51.0739" lon="2.51489">
        <ele>7.2</ele>
        <time>2020-06-23T12:05:53Z</time>
      </trkpt>
      <trkpt lat="51.07395" lon="2.51488">
        <ele>7.1</ele>
        <time>2020-06-23T12:05:54Z</time>
      </trkpt>
      <trkpt lat="51.07399" lon="2.51486">
        <ele>7</ele>
        <time>2020-06-23T12:05:55Z</time>
      </trkpt>
      <trkpt lat="51.07405" lon="2.51484">
        <ele>7</ele>
        <time>2020-06-23T12:05:56Z</time>
      </trkpt>
      <trkpt lat="51.0741" lon="2.51483">
        <ele>6.9</ele>
        <time>2020-06-23T12:05:57Z</time>
      </trkpt>
      <trkpt lat="51.07415" lon="2.51481">
        <ele>6.9</ele>
        <time>2020-06-23T12:05:58Z</time>
      </trkpt>
      <trkpt lat="51.0742" lon="2.51479">
        <ele>6.8</ele>
        <time>2020-06-23T12:05:59Z</time>
      </trkpt>
      <trkpt lat="51.07425" lon="2.51476">
        <ele>6.8</ele>
        <time>2020-06-23T12:06:00Z</time>
      </trkpt>
      <trkpt lat="51.0743" lon="2.51475">
        <ele>6.8</ele>
        <time>2020-06-23T12:06:01Z</time>
      </trkpt>
      <trkpt lat="51.07435" lon="2.51474">
        <ele>6.7</ele>
        <time>2020-06-23T12:06:02Z</time>
      </trkpt>
      <trkpt lat="51.07439" lon="2.51472">
        <ele>6.7</ele>
        <time>2020-06-23T12:06:03Z</time>
      </trkpt>
      <trkpt lat="51.07443" lon="2.51471">
        <ele>6.7</ele>
        <time>2020-06-23T12:06:04Z</time>
      </trkpt>
      <trkpt lat="51.07447" lon="2.5147">
        <ele>6.7</ele>
        <time>2020-06-23T12:06:05Z</time>
      </trkpt>
      <trkpt lat="51.07451" lon="2.51468">
        <ele>6.7</ele>
        <time>2020-06-23T12:06:06Z</time>
      </trkpt>
      <trkpt lat="51.07455" lon="2.51466">
        <ele>6.6</ele>
        <time>2020-06-23T12:06:07Z</time>
      </trkpt>
      <trkpt lat="51.0746" lon="2.51464">
        <ele>6.6</ele>
        <time>2020-06-23T12:06:08Z</time>
      </trkpt>
      <trkpt lat="51.07466" lon="2.51462">
        <ele>6.6</ele>
        <time>2020-06-23T12:06:09Z</time>
      </trkpt>
      <trkpt lat="51.07473" lon="2.5146">
        <ele>6.5</ele>
        <time>2020-06-23T12:06:10Z</time>
      </trkpt>
      <trkpt lat="51.07478" lon="2.51459">
        <ele>6.5</ele>
        <time>2020-06-23T12:06:11Z</time>
      </trkpt>
      <trkpt lat="51.07484" lon="2.51456">
        <ele>6.5</ele>
        <time>2020-06-23T12:06:12Z</time>
      </trkpt>
      <trkpt lat="51.07491" lon="2.51454">
        <ele>6.4</ele>
        <time>2020-06-23T12:06:13Z</time>
      </trkpt>
      <trkpt lat="51.07497" lon="2.51451">
        <ele>6.4</ele>
        <time>2020-06-23T12:06:14Z</time>
      </trkpt>
      <trkpt lat="51.07503" lon="2.51449">
        <ele>6.4</ele>
        <time>2020-06-23T12:06:15Z</time>
      </trkpt>
      <trkpt lat="51.0751" lon="2.51447">
        <ele>6.4</ele>
        <time>2020-06-23T12:06:16Z</time>
      </trkpt>
      <trkpt lat="51.07515" lon="2.51445">
        <ele>6.3</ele>
        <time>2020-06-23T12:06:17Z</time>
      </trkpt>
      <trkpt lat="51.07521" lon="2.51442">
        <ele>6.3</ele>
        <time>2020-06-23T12:06:18Z</time>
      </trkpt>
      <trkpt lat="51.07526" lon="2.5144">
        <ele>6.3</ele>
        <time>2020-06-23T12:06:19Z</time>
      </trkpt>
      <trkpt lat="51.07531" lon="2.51438">
        <ele>6.3</ele>
        <time>2020-06-23T12:06:20Z</time>
      </trkpt>
      <trkpt lat="51.07536" lon="2.51436">
        <ele>6.3</ele>
        <time>2020-06-23T12:06:21Z</time>
      </trkpt>
      <trkpt lat="51.07541" lon="2.51434">
        <ele>6.4</ele>
        <time>2020-06-23T12:06:22Z</time>
      </trkpt>
      <trkpt lat="51.07545" lon="2.51433">
        <ele>6.4</ele>
        <time>2020-06-23T12:06:23Z</time>
      </trkpt>
      <trkpt lat="51.07549" lon="2.51433">
        <ele>6.4</ele>
        <time>2020-06-23T12:06:24Z</time>
      </trkpt>
      <trkpt lat="51.07552" lon="2.51435">
        <ele>6.4</ele>
        <time>2020-06-23T12:06:25Z</time>
      </trkpt>
      <trkpt lat="51.07553" lon="2.51435">
        <ele>6.3</ele>
        <time>2020-06-23T12:06:26Z</time>
      </trkpt>
      <trkpt lat="51.07557" lon="2.51435">
        <ele>6.2</ele>
        <time>2020-06-23T12:06:27Z</time>
      </trkpt>
      <trkpt lat="51.07558" lon="2.5144">
        <ele>6.1</ele>
        <time>2020-06-23T12:06:28Z</time>
      </trkpt>
      <trkpt lat="51.0756" lon="2.51445">
        <ele>6</ele>
        <time>2020-06-23T12:06:29Z</time>
      </trkpt>
      <trkpt lat="51.07562" lon="2.5145">
        <ele>5.9</ele>
        <time>2020-06-23T12:06:30Z</time>
      </trkpt>
      <trkpt lat="51.07563" lon="2.51455">
        <ele>5.8</ele>
        <time>2020-06-23T12:06:31Z</time>
      </trkpt>
      <trkpt lat="51.07565" lon="2.5146">
        <ele>5.7</ele>
        <time>2020-06-23T12:06:32Z</time>
      </trkpt>
      <trkpt lat="51.07566" lon="2.51466">
        <ele>5.7</ele>
        <time>2020-06-23T12:06:33Z</time>
      </trkpt>
      <trkpt lat="51.07568" lon="2.51472">
        <ele>5.6</ele>
        <time>2020-06-23T12:06:34Z</time>
      </trkpt>
      <trkpt lat="51.07571" lon="2.51478">
        <ele>5.5</ele>
        <time>2020-06-23T12:06:35Z</time>
      </trkpt>
      <trkpt lat="51.07573" lon="2.51484">
        <ele>5.4</ele>
        <time>2020-06-23T12:06:36Z</time>
      </trkpt>
      <trkpt lat="51.07575" lon="2.51489">
        <ele>5.3</ele>
        <time>2020-06-23T12:06:37Z</time>
      </trkpt>
      <trkpt lat="51.07576" lon="2.51495">
        <ele>5.3</ele>
        <time>2020-06-23T12:06:38Z</time>
      </trkpt>
      <trkpt lat="51.07578" lon="2.51501">
        <ele>5.2</ele>
        <time>2020-06-23T12:06:39Z</time>
      </trkpt>
      <trkpt lat="51.07579" lon="2.51507">
        <ele>5.2</ele>
        <time>2020-06-23T12:06:40Z</time>
      </trkpt>
      <trkpt lat="51.0758" lon="2.51513">
        <ele>5.2</ele>
        <time>2020-06-23T12:06:41Z</time>
      </trkpt>
      <trkpt lat="51.0758" lon="2.51519">
        <ele>5.2</ele>
        <time>2020-06-23T12:06:42Z</time>
      </trkpt>
      <trkpt lat="51.07581" lon="2.51525">
        <ele>5.2</ele>
        <time>2020-06-23T12:06:43Z</time>
      </trkpt>
      <trkpt lat="51.07581" lon="2.51531">
        <ele>5.2</ele>
        <time>2020-06-23T12:06:44Z</time>
      </trkpt>
      <trkpt lat="51.07582" lon="2.51537">
        <ele>5.2</ele>
        <time>2020-06-23T12:06:45Z</time>
      </trkpt>
      <trkpt lat="51.07583" lon="2.51542">
        <ele>5.2</ele>
        <time>2020-06-23T12:06:46Z</time>
      </trkpt>
      <trkpt lat="51.07584" lon="2.51546">
        <ele>5.2</ele>
        <time>2020-06-23T12:06:47Z</time>
      </trkpt>
      <trkpt lat="51.07584" lon="2.51552">
        <ele>5.2</ele>
        <time>2020-06-23T12:06:48Z</time>
      </trkpt>
      <trkpt lat="51.07584" lon="2.51553">
        <ele>5.2</ele>
        <time>2020-06-23T12:06:49Z</time>
      </trkpt>
      <trkpt lat="51.07583" lon="2.51559">
        <ele>5.2</ele>
        <time>2020-06-23T12:06:50Z</time>
      </trkpt>
      <trkpt lat="51.07582" lon="2.5156">
        <ele>5.2</ele>
        <time>2020-06-23T12:06:51Z</time>
      </trkpt>
      <trkpt lat="51.0758" lon="2.51565">
        <ele>5.2</ele>
        <time>2020-06-23T12:06:52Z</time>
      </trkpt>
      <trkpt lat="51.07579" lon="2.51568">
        <ele>5.2</ele>
        <time>2020-06-23T12:06:53Z</time>
      </trkpt>
      <trkpt lat="51.07578" lon="2.51573">
        <ele>5.2</ele>
        <time>2020-06-23T12:06:54Z</time>
      </trkpt>
      <trkpt lat="51.07577" lon="2.51577">
        <ele>5.2</ele>
        <time>2020-06-23T12:06:55Z</time>
      </trkpt>
      <trkpt lat="51.07577" lon="2.51582">
        <ele>5.3</ele>
        <time>2020-06-23T12:06:56Z</time>
      </trkpt>
      <trkpt lat="51.07577" lon="2.51583">
        <ele>5.3</ele>
        <time>2020-06-23T12:06:57Z</time>
      </trkpt>
      <trkpt lat="51.07578" lon="2.51589">
        <ele>5.3</ele>
        <time>2020-06-23T12:06:58Z</time>
      </trkpt>
      <trkpt lat="51.07578" lon="2.5159">
        <ele>5.3</ele>
        <time>2020-06-23T12:06:59Z</time>
      </trkpt>
      <trkpt lat="51.07578" lon="2.51596">
        <ele>5.3</ele>
        <time>2020-06-23T12:07:00Z</time>
      </trkpt>
      <trkpt lat="51.07579" lon="2.51599">
        <ele>5.3</ele>
        <time>2020-06-23T12:07:01Z</time>
      </trkpt>
      <trkpt lat="51.07578" lon="2.51604">
        <ele>5.3</ele>
        <time>2020-06-23T12:07:02Z</time>
      </trkpt>
      <trkpt lat="51.07578" lon="2.51609">
        <ele>5.2</ele>
        <time>2020-06-23T12:07:03Z</time>
      </trkpt>
      <trkpt lat="51.07578" lon="2.51614">
        <ele>5.2</ele>
        <time>2020-06-23T12:07:04Z</time>
      </trkpt>
      <trkpt lat="51.07578" lon="2.51615">
        <ele>5.2</ele>
        <time>2020-06-23T12:07:05Z</time>
      </trkpt>
      <trkpt lat="51.07577" lon="2.51618">
        <ele>5.2</ele>
        <time>2020-06-23T12:07:06Z</time>
      </trkpt>
      <trkpt lat="51.07577" lon="2.5162">
        <ele>5.2</ele>
        <time>2020-06-23T12:07:07Z</time>
      </trkpt>
      <trkpt lat="51.07576" lon="2.5162">
        <ele>5.2</ele>
        <time>2020-06-23T12:07:08Z</time>
      </trkpt>
      <trkpt lat="51.07576" lon="2.51621">
        <ele>5.2</ele>
        <time>2020-06-23T12:07:09Z</time>
      </trkpt>
      <trkpt lat="51.07576" lon="2.51622">
        <ele>5.1</ele>
        <time>2020-06-23T12:07:10Z</time>
      </trkpt>
      <trkpt lat="51.07576" lon="2.51623">
        <ele>5.1</ele>
        <time>2020-06-23T12:07:11Z</time>
      </trkpt>
      <trkpt lat="51.07576" lon="2.51625">
        <ele>5.1</ele>
        <time>2020-06-23T12:07:12Z</time>
      </trkpt>
      <trkpt lat="51.07575" lon="2.51626">
        <ele>5.1</ele>
        <time>2020-06-23T12:07:13Z</time>
      </trkpt>
      <trkpt lat="51.07575" lon="2.51626">
        <ele>5.1</ele>
        <time>2020-06-23T12:07:14Z</time>
      </trkpt>
      <trkpt lat="51.07575" lon="2.51627">
        <ele>5.1</ele>
        <time>2020-06-23T12:07:15Z</time>
      </trkpt>
      <trkpt lat="51.07575" lon="2.51628">
        <ele>5.1</ele>
        <time>2020-06-23T12:07:16Z</time>
      </trkpt>
      <trkpt lat="51.07575" lon="2.51628">
        <ele>5.1</ele>
        <time>2020-06-23T12:07:17Z</time>
      </trkpt>
      <trkpt lat="51.07574" lon="2.51629">
        <ele>5.1</ele>
        <time>2020-06-23T12:07:18Z</time>
      </trkpt>
      <trkpt lat="51.0757" lon="2.51637">
        <ele>5.1</ele>
        <time>2020-06-23T12:07:31Z</time>
      </trkpt>
      <trkpt lat="51.07569" lon="2.51638">
        <ele>5.1</ele>
        <time>2020-06-23T12:07:32Z</time>
      </trkpt>
      <trkpt lat="51.07569" lon="2.51639">
        <ele>5</ele>
        <time>2020-06-23T12:07:33Z</time>
      </trkpt>
      <trkpt lat="51.07569" lon="2.5164">
        <ele>5</ele>
        <time>2020-06-23T12:07:34Z</time>
      </trkpt>
      <trkpt lat="51.07568" lon="2.51641">
        <ele>5</ele>
        <time>2020-06-23T12:07:35Z</time>
      </trkpt>
      <trkpt lat="51.07568" lon="2.51642">
        <ele>5</ele>
        <time>2020-06-23T12:07:36Z</time>
      </trkpt>
      <trkpt lat="51.07567" lon="2.51644">
        <ele>5</ele>
        <time>2020-06-23T12:07:37Z</time>
      </trkpt>
      <trkpt lat="51.07473" lon="2.51619">
        <ele>6</ele>
        <time>2020-06-23T12:11:23Z</time>
      </trkpt>
      <trkpt lat="51.07474" lon="2.51623">
        <ele>6</ele>
        <time>2020-06-23T12:11:24Z</time>
      </trkpt>
      <trkpt lat="51.07474" lon="2.51625">
        <ele>6</ele>
        <time>2020-06-23T12:11:25Z</time>
      </trkpt>
      <trkpt lat="51.07475" lon="2.51626">
        <ele>5.9</ele>
        <time>2020-06-23T12:11:26Z</time>
      </trkpt>
      <trkpt lat="51.07476" lon="2.51627">
        <ele>5.9</ele>
        <time>2020-06-23T12:11:27Z</time>
      </trkpt>
      <trkpt lat="51.07477" lon="2.51626">
        <ele>5.9</ele>
        <time>2020-06-23T12:11:28Z</time>
      </trkpt>
      <trkpt lat="51.07479" lon="2.51625">
        <ele>6</ele>
        <time>2020-06-23T12:11:29Z</time>
      </trkpt>
      <trkpt lat="51.07481" lon="2.51623">
        <ele>6</ele>
        <time>2020-06-23T12:11:30Z</time>
      </trkpt>
      <trkpt lat="51.07481" lon="2.51623">
        <ele>6</ele>
        <time>2020-06-23T12:11:31Z</time>
      </trkpt>
      <trkpt lat="51.07482" lon="2.51622">
        <ele>6</ele>
        <time>2020-06-23T12:11:32Z</time>
      </trkpt>
      <trkpt lat="51.07483" lon="2.51621">
        <ele>6</ele>
        <time>2020-06-23T12:11:33Z</time>
      </trkpt>
      <trkpt lat="51.07483" lon="2.51621">
        <ele>6</ele>
        <time>2020-06-23T12:11:34Z</time>
      </trkpt>
      <trkpt lat="51.07484" lon="2.51621">
        <ele>6</ele>
        <time>2020-06-23T12:11:35Z</time>
      </trkpt>
      <trkpt lat="51.07485" lon="2.51621">
        <ele>6</ele>
        <time>2020-06-23T12:11:36Z</time>
      </trkpt>
      <trkpt lat="51.07487" lon="2.51619">
        <ele>6</ele>
        <time>2020-06-23T12:11:37Z</time>
      </trkpt>
      <trkpt lat="51.07487" lon="2.51619">
        <ele>6</ele>
        <time>2020-06-23T12:11:38Z</time>
      </trkpt>
      <trkpt lat="51.07498" lon="2.51629">
        <ele>5.8</ele>
        <time>2020-06-23T12:11:55Z</time>
      </trkpt>
      <trkpt lat="51.07498" lon="2.5163">
        <ele>5.8</ele>
        <time>2020-06-23T12:11:56Z</time>
      </trkpt>
      <trkpt lat="51.07499" lon="2.5163">
        <ele>5.8</ele>
        <time>2020-06-23T12:11:57Z</time>
      </trkpt>
      <trkpt lat="51.075" lon="2.5163">
        <ele>5.8</ele>
        <time>2020-06-23T12:11:58Z</time>
      </trkpt>
      <trkpt lat="51.07501" lon="2.51629">
        <ele>5.8</ele>
        <time>2020-06-23T12:11:59Z</time>
      </trkpt>
      <trkpt lat="51.07502" lon="2.5163">
        <ele>5.8</ele>
        <time>2020-06-23T12:12:00Z</time>
      </trkpt>
      <trkpt lat="51.07502" lon="2.5163">
        <ele>5.8</ele>
        <time>2020-06-23T12:12:01Z</time>
      </trkpt>
      <trkpt lat="51.07503" lon="2.5163">
        <ele>5.8</ele>
        <time>2020-06-23T12:12:02Z</time>
      </trkpt>
      <trkpt lat="51.07505" lon="2.5163">
        <ele>5.8</ele>
        <time>2020-06-23T12:12:03Z</time>
      </trkpt>
      <trkpt lat="51.07506" lon="2.51631">
        <ele>5.7</ele>
        <time>2020-06-23T12:12:04Z</time>
      </trkpt>
      <trkpt lat="51.07508" lon="2.5163">
        <ele>5.7</ele>
        <time>2020-06-23T12:12:05Z</time>
      </trkpt>
      <trkpt lat="51.0751" lon="2.51628">
        <ele>5.8</ele>
        <time>2020-06-23T12:12:06Z</time>
      </trkpt>
      <trkpt lat="51.0751" lon="2.51628">
        <ele>5.8</ele>
        <time>2020-06-23T12:12:07Z</time>
      </trkpt>
      <trkpt lat="51.07511" lon="2.51628">
        <ele>5.8</ele>
        <time>2020-06-23T12:12:08Z</time>
      </trkpt>
      <trkpt lat="51.07512" lon="2.51627">
        <ele>5.7</ele>
        <time>2020-06-23T12:12:09Z</time>
      </trkpt>
      <trkpt lat="51.07513" lon="2.51626">
        <ele>5.7</ele>
        <time>2020-06-23T12:12:10Z</time>
      </trkpt>
      <trkpt lat="51.07515" lon="2.51621">
        <ele>5.8</ele>
        <time>2020-06-23T12:12:11Z</time>
      </trkpt>
      <trkpt lat="51.07517" lon="2.51617">
        <ele>5.8</ele>
        <time>2020-06-23T12:12:12Z</time>
      </trkpt>
      <trkpt lat="51.07518" lon="2.51615">
        <ele>5.8</ele>
        <time>2020-06-23T12:12:13Z</time>
      </trkpt>
      <trkpt lat="51.0752" lon="2.51611">
        <ele>5.8</ele>
        <time>2020-06-23T12:12:14Z</time>
      </trkpt>
      <trkpt lat="51.0752" lon="2.51609">
        <ele>5.9</ele>
        <time>2020-06-23T12:12:15Z</time>
      </trkpt>
      <trkpt lat="51.07524" lon="2.51606">
        <ele>5.9</ele>
        <time>2020-06-23T12:12:16Z</time>
      </trkpt>
      <trkpt lat="51.07525" lon="2.51602">
        <ele>5.9</ele>
        <time>2020-06-23T12:12:17Z</time>
      </trkpt>
      <trkpt lat="51.07525" lon="2.51597">
        <ele>5.9</ele>
        <time>2020-06-23T12:12:18Z</time>
      </trkpt>
      <trkpt lat="51.07526" lon="2.51592">
        <ele>6</ele>
        <time>2020-06-23T12:12:19Z</time>
      </trkpt>
      <trkpt lat="51.07526" lon="2.51589">
        <ele>6</ele>
        <time>2020-06-23T12:12:20Z</time>
      </trkpt>
      <trkpt lat="51.07527" lon="2.51583">
        <ele>6.1</ele>
        <time>2020-06-23T12:12:21Z</time>
      </trkpt>
      <trkpt lat="51.07527" lon="2.51581">
        <ele>6.1</ele>
        <time>2020-06-23T12:12:22Z</time>
      </trkpt>
      <trkpt lat="51.07527" lon="2.51576">
        <ele>6.1</ele>
        <time>2020-06-23T12:12:23Z</time>
      </trkpt>
      <trkpt lat="51.07527" lon="2.51574">
        <ele>6.2</ele>
        <time>2020-06-23T12:12:24Z</time>
      </trkpt>
      <trkpt lat="51.07528" lon="2.51569">
        <ele>6.2</ele>
        <time>2020-06-23T12:12:25Z</time>
      </trkpt>
      <trkpt lat="51.07529" lon="2.51565">
        <ele>6.2</ele>
        <time>2020-06-23T12:12:26Z</time>
      </trkpt>
      <trkpt lat="51.07528" lon="2.5156">
        <ele>6.2</ele>
        <time>2020-06-23T12:12:27Z</time>
      </trkpt>
      <trkpt lat="51.07527" lon="2.51554">
        <ele>6.2</ele>
        <time>2020-06-23T12:12:28Z</time>
      </trkpt>
      <trkpt lat="51.07527" lon="2.5155">
        <ele>6.3</ele>
        <time>2020-06-23T12:12:29Z</time>
      </trkpt>
      <trkpt lat="51.07527" lon="2.51543">
        <ele>6.4</ele>
        <time>2020-06-23T12:12:30Z</time>
      </trkpt>
      <trkpt lat="51.07527" lon="2.51541">
        <ele>6.4</ele>
        <time>2020-06-23T12:12:31Z</time>
      </trkpt>
      <trkpt lat="51.07526" lon="2.51535">
        <ele>6.4</ele>
        <time>2020-06-23T12:12:32Z</time>
      </trkpt>
      <trkpt lat="51.07526" lon="2.5153">
        <ele>6.4</ele>
        <time>2020-06-23T12:12:33Z</time>
      </trkpt>
      <trkpt lat="51.07526" lon="2.51525">
        <ele>6.5</ele>
        <time>2020-06-23T12:12:34Z</time>
      </trkpt>
      <trkpt lat="51.07525" lon="2.5152">
        <ele>6.5</ele>
        <time>2020-06-23T12:12:35Z</time>
      </trkpt>
      <trkpt lat="51.07524" lon="2.51514">
        <ele>6.5</ele>
        <time>2020-06-23T12:12:36Z</time>
      </trkpt>
      <trkpt lat="51.07523" lon="2.51508">
        <ele>6.6</ele>
        <time>2020-06-23T12:12:37Z</time>
      </trkpt>
      <trkpt lat="51.07523" lon="2.51502">
        <ele>6.6</ele>
        <time>2020-06-23T12:12:38Z</time>
      </trkpt>
      <trkpt lat="51.07524" lon="2.51495">
        <ele>6.6</ele>
        <time>2020-06-23T12:12:39Z</time>
      </trkpt>
      <trkpt lat="51.07525" lon="2.51486">
        <ele>6.5</ele>
        <time>2020-06-23T12:12:40Z</time>
      </trkpt>
      <trkpt lat="51.07528" lon="2.51478">
        <ele>6.5</ele>
        <time>2020-06-23T12:12:41Z</time>
      </trkpt>
      <trkpt lat="51.07531" lon="2.51471">
        <ele>6.5</ele>
        <time>2020-06-23T12:12:42Z</time>
      </trkpt>
      <trkpt lat="51.07537" lon="2.51461">
        <ele>6.5</ele>
        <time>2020-06-23T12:12:43Z</time>
      </trkpt>
      <trkpt lat="51.07546" lon="2.51449">
        <ele>6.4</ele>
        <time>2020-06-23T12:12:44Z</time>
      </trkpt>
      <trkpt lat="51.07552" lon="2.51442">
        <ele>6.4</ele>
        <time>2020-06-23T12:12:45Z</time>
      </trkpt>
      <trkpt lat="51.07558" lon="2.51435">
        <ele>6.5</ele>
        <time>2020-06-23T12:12:46Z</time>
      </trkpt>
      <trkpt lat="51.07562" lon="2.5143">
        <ele>6.4</ele>
        <time>2020-06-23T12:12:47Z</time>
      </trkpt>
      <trkpt lat="51.07568" lon="2.51424">
        <ele>6.4</ele>
        <time>2020-06-23T12:12:48Z</time>
      </trkpt>
      <trkpt lat="51.07573" lon="2.51419">
        <ele>6.3</ele>
        <time>2020-06-23T12:12:49Z</time>
      </trkpt>
      <trkpt lat="51.07577" lon="2.51414">
        <ele>6.3</ele>
        <time>2020-06-23T12:12:50Z</time>
      </trkpt>
      <trkpt lat="51.07582" lon="2.5141">
        <ele>6.2</ele>
        <time>2020-06-23T12:12:51Z</time>
      </trkpt>
      <trkpt lat="51.07586" lon="2.51408">
        <ele>6.2</ele>
        <time>2020-06-23T12:12:52Z</time>
      </trkpt>
      <trkpt lat="51.0759" lon="2.51406">
        <ele>6.1</ele>
        <time>2020-06-23T12:12:53Z</time>
      </trkpt>
      <trkpt lat="51.07595" lon="2.51406">
        <ele>6.1</ele>
        <time>2020-06-23T12:12:54Z</time>
      </trkpt>
      <trkpt lat="51.076" lon="2.51404">
        <ele>6.1</ele>
        <time>2020-06-23T12:12:55Z</time>
      </trkpt>
      <trkpt lat="51.07604" lon="2.51403">
        <ele>6.1</ele>
        <time>2020-06-23T12:12:56Z</time>
      </trkpt>
      <trkpt lat="51.07608" lon="2.51402">
        <ele>6.1</ele>
        <time>2020-06-23T12:12:57Z</time>
      </trkpt>
      <trkpt lat="51.07613" lon="2.514">
        <ele>6.1</ele>
        <time>2020-06-23T12:12:58Z</time>
      </trkpt>
      <trkpt lat="51.07617" lon="2.51399">
        <ele>6.1</ele>
        <time>2020-06-23T12:12:59Z</time>
      </trkpt>
      <trkpt lat="51.07623" lon="2.51397">
        <ele>6.1</ele>
        <time>2020-06-23T12:13:00Z</time>
      </trkpt>
      <trkpt lat="51.07627" lon="2.51396">
        <ele>6.1</ele>
        <time>2020-06-23T12:13:01Z</time>
      </trkpt>
      <trkpt lat="51.07632" lon="2.51394">
        <ele>6.1</ele>
        <time>2020-06-23T12:13:02Z</time>
      </trkpt>
      <trkpt lat="51.07637" lon="2.51393">
        <ele>6.1</ele>
        <time>2020-06-23T12:13:03Z</time>
      </trkpt>
      <trkpt lat="51.07642" lon="2.51391">
        <ele>6.1</ele>
        <time>2020-06-23T12:13:04Z</time>
      </trkpt>
      <trkpt lat="51.07647" lon="2.5139">
        <ele>6.1</ele>
        <time>2020-06-23T12:13:05Z</time>
      </trkpt>
      <trkpt lat="51.07652" lon="2.51389">
        <ele>6.1</ele>
        <time>2020-06-23T12:13:06Z</time>
      </trkpt>
      <trkpt lat="51.07658" lon="2.51388">
        <ele>6.2</ele>
        <time>2020-06-23T12:13:07Z</time>
      </trkpt>
      <trkpt lat="51.07664" lon="2.51388">
        <ele>6.2</ele>
        <time>2020-06-23T12:13:08Z</time>
      </trkpt>
      <trkpt lat="51.07669" lon="2.51387">
        <ele>6.3</ele>
        <time>2020-06-23T12:13:09Z</time>
      </trkpt>
      <trkpt lat="51.07674" lon="2.51387">
        <ele>6.3</ele>
        <time>2020-06-23T12:13:10Z</time>
      </trkpt>
      <trkpt lat="51.07678" lon="2.51387">
        <ele>6.4</ele>
        <time>2020-06-23T12:13:11Z</time>
      </trkpt>
      <trkpt lat="51.07682" lon="2.51387">
        <ele>6.4</ele>
        <time>2020-06-23T12:13:12Z</time>
      </trkpt>
      <trkpt lat="51.07686" lon="2.51387">
        <ele>6.5</ele>
        <time>2020-06-23T12:13:13Z</time>
      </trkpt>
      <trkpt lat="51.07691" lon="2.51386">
        <ele>6.5</ele>
        <time>2020-06-23T12:13:14Z</time>
      </trkpt>
      <trkpt lat="51.07696" lon="2.51386">
        <ele>6.5</ele>
        <time>2020-06-23T12:13:15Z</time>
      </trkpt>
      <trkpt lat="51.07701" lon="2.51386">
        <ele>6.6</ele>
        <time>2020-06-23T12:13:16Z</time>
      </trkpt>
      <trkpt lat="51.07706" lon="2.51387">
        <ele>6.6</ele>
        <time>2020-06-23T12:13:17Z</time>
      </trkpt>
      <trkpt lat="51.07712" lon="2.51386">
        <ele>6.7</ele>
        <time>2020-06-23T12:13:18Z</time>
      </trkpt>
      <trkpt lat="51.07717" lon="2.51386">
        <ele>6.7</ele>
        <time>2020-06-23T12:13:19Z</time>
      </trkpt>
      <trkpt lat="51.07723" lon="2.51385">
        <ele>6.7</ele>
        <time>2020-06-23T12:13:20Z</time>
      </trkpt>
      <trkpt lat="51.07727" lon="2.51383">
        <ele>6.8</ele>
        <time>2020-06-23T12:13:21Z</time>
      </trkpt>
      <trkpt lat="51.07732" lon="2.51382">
        <ele>6.8</ele>
        <time>2020-06-23T12:13:22Z</time>
      </trkpt>
      <trkpt lat="51.07737" lon="2.51381">
        <ele>6.8</ele>
        <time>2020-06-23T12:13:23Z</time>
      </trkpt>
      <trkpt lat="51.07741" lon="2.51379">
        <ele>6.8</ele>
        <time>2020-06-23T12:13:24Z</time>
      </trkpt>
      <trkpt lat="51.07747" lon="2.51379">
        <ele>6.8</ele>
        <time>2020-06-23T12:13:25Z</time>
      </trkpt>
      <trkpt lat="51.07752" lon="2.51378">
        <ele>6.8</ele>
        <time>2020-06-23T12:13:26Z</time>
      </trkpt>
      <trkpt lat="51.07756" lon="2.51377">
        <ele>6.9</ele>
        <time>2020-06-23T12:13:27Z</time>
      </trkpt>
      <trkpt lat="51.07761" lon="2.51376">
        <ele>6.9</ele>
        <time>2020-06-23T12:13:28Z</time>
      </trkpt>
      <trkpt lat="51.07766" lon="2.51375">
        <ele>6.9</ele>
        <time>2020-06-23T12:13:29Z</time>
      </trkpt>
      <trkpt lat="51.07771" lon="2.51375">
        <ele>7</ele>
        <time>2020-06-23T12:13:30Z</time>
      </trkpt>
      <trkpt lat="51.07777" lon="2.51375">
        <ele>7</ele>
        <time>2020-06-23T12:13:31Z</time>
      </trkpt>
      <trkpt lat="51.07781" lon="2.51373">
        <ele>7.1</ele>
        <time>2020-06-23T12:13:32Z</time>
      </trkpt>
      <trkpt lat="51.07788" lon="2.5137">
        <ele>7.3</ele>
        <time>2020-06-23T12:13:33Z</time>
      </trkpt>
      <trkpt lat="51.07794" lon="2.51366">
        <ele>7.4</ele>
        <time>2020-06-23T12:13:34Z</time>
      </trkpt>
      <trkpt lat="51.07798" lon="2.51359">
        <ele>7.5</ele>
        <time>2020-06-23T12:13:35Z</time>
      </trkpt>
      <trkpt lat="51.07803" lon="2.51354">
        <ele>7.7</ele>
        <time>2020-06-23T12:13:36Z</time>
      </trkpt>
      <trkpt lat="51.07807" lon="2.5135">
        <ele>7.7</ele>
        <time>2020-06-23T12:13:37Z</time>
      </trkpt>
      <trkpt lat="51.0781" lon="2.51345">
        <ele>7.8</ele>
        <time>2020-06-23T12:13:38Z</time>
      </trkpt>
      <trkpt lat="51.07813" lon="2.51343">
        <ele>7.9</ele>
        <time>2020-06-23T12:13:39Z</time>
      </trkpt>
      <trkpt lat="51.07815" lon="2.51338">
        <ele>8</ele>
        <time>2020-06-23T12:13:40Z</time>
      </trkpt>
      <trkpt lat="51.07816" lon="2.51336">
        <ele>8</ele>
        <time>2020-06-23T12:13:41Z</time>
      </trkpt>
      <trkpt lat="51.07819" lon="2.51332">
        <ele>8.1</ele>
        <time>2020-06-23T12:13:42Z</time>
      </trkpt>
      <trkpt lat="51.07822" lon="2.5133">
        <ele>8.1</ele>
        <time>2020-06-23T12:13:43Z</time>
      </trkpt>
      <trkpt lat="51.07823" lon="2.51329">
        <ele>8.2</ele>
        <time>2020-06-23T12:13:44Z</time>
      </trkpt>
      <trkpt lat="51.07827" lon="2.51327">
        <ele>8.2</ele>
        <time>2020-06-23T12:13:45Z</time>
      </trkpt>
      <trkpt lat="51.0783" lon="2.51326">
        <ele>8.4</ele>
        <time>2020-06-23T12:13:46Z</time>
      </trkpt>
      <trkpt lat="51.07832" lon="2.51324">
        <ele>8.3</ele>
        <time>2020-06-23T12:13:47Z</time>
      </trkpt>
      <trkpt lat="51.07833" lon="2.51324">
        <ele>8.3</ele>
        <time>2020-06-23T12:13:48Z</time>
      </trkpt>
      <trkpt lat="51.07836" lon="2.51322">
        <ele>8.3</ele>
        <time>2020-06-23T12:13:49Z</time>
      </trkpt>
      <trkpt lat="51.07837" lon="2.51321">
        <ele>8.2</ele>
        <time>2020-06-23T12:13:50Z</time>
      </trkpt>
      <trkpt lat="51.07841" lon="2.51318">
        <ele>8.2</ele>
        <time>2020-06-23T12:13:51Z</time>
      </trkpt>
      <trkpt lat="51.07842" lon="2.51317">
        <ele>8.2</ele>
        <time>2020-06-23T12:13:52Z</time>
      </trkpt>
      <trkpt lat="51.07845" lon="2.51314">
        <ele>8.1</ele>
        <time>2020-06-23T12:13:53Z</time>
      </trkpt>
      <trkpt lat="51.07846" lon="2.51314">
        <ele>8.1</ele>
        <time>2020-06-23T12:13:54Z</time>
      </trkpt>
      <trkpt lat="51.07849" lon="2.51311">
        <ele>8.1</ele>
        <time>2020-06-23T12:13:55Z</time>
      </trkpt>
      <trkpt lat="51.0785" lon="2.5131">
        <ele>8.1</ele>
        <time>2020-06-23T12:13:56Z</time>
      </trkpt>
      <trkpt lat="51.07852" lon="2.5131">
        <ele>8</ele>
        <time>2020-06-23T12:13:57Z</time>
      </trkpt>
      <trkpt lat="51.07855" lon="2.51309">
        <ele>8</ele>
        <time>2020-06-23T12:13:58Z</time>
      </trkpt>
      <trkpt lat="51.07858" lon="2.51308">
        <ele>8</ele>
        <time>2020-06-23T12:13:59Z</time>
      </trkpt>
      <trkpt lat="51.07859" lon="2.51306">
        <ele>8</ele>
        <time>2020-06-23T12:14:00Z</time>
      </trkpt>
      <trkpt lat="51.07861" lon="2.51305">
        <ele>8</ele>
        <time>2020-06-23T12:14:01Z</time>
      </trkpt>
      <trkpt lat="51.07864" lon="2.51302">
        <ele>8</ele>
        <time>2020-06-23T12:14:02Z</time>
      </trkpt>
      <trkpt lat="51.07865" lon="2.51301">
        <ele>8</ele>
        <time>2020-06-23T12:14:03Z</time>
      </trkpt>
      <trkpt lat="51.07867" lon="2.51298">
        <ele>7.9</ele>
        <time>2020-06-23T12:14:04Z</time>
      </trkpt>
      <trkpt lat="51.07868" lon="2.51297">
        <ele>7.9</ele>
        <time>2020-06-23T12:14:05Z</time>
      </trkpt>
      <trkpt lat="51.0787" lon="2.51295">
        <ele>7.9</ele>
        <time>2020-06-23T12:14:06Z</time>
      </trkpt>
      <trkpt lat="51.07871" lon="2.51294">
        <ele>7.9</ele>
        <time>2020-06-23T12:14:07Z</time>
      </trkpt>
      <trkpt lat="51.07872" lon="2.51293">
        <ele>7.9</ele>
        <time>2020-06-23T12:14:08Z</time>
      </trkpt>
      <trkpt lat="51.07873" lon="2.51289">
        <ele>7.9</ele>
        <time>2020-06-23T12:14:09Z</time>
      </trkpt>
      <trkpt lat="51.07874" lon="2.51287">
        <ele>7.9</ele>
        <time>2020-06-23T12:14:10Z</time>
      </trkpt>
      <trkpt lat="51.07877" lon="2.51286">
        <ele>7.9</ele>
        <time>2020-06-23T12:14:11Z</time>
      </trkpt>
      <trkpt lat="51.0788" lon="2.51285">
        <ele>7.9</ele>
        <time>2020-06-23T12:14:12Z</time>
      </trkpt>
      <trkpt lat="51.07881" lon="2.51285">
        <ele>7.9</ele>
        <time>2020-06-23T12:14:13Z</time>
      </trkpt>
      <trkpt lat="51.07883" lon="2.51283">
        <ele>7.8</ele>
        <time>2020-06-23T12:14:14Z</time>
      </trkpt>
      <trkpt lat="51.07884" lon="2.51283">
        <ele>7.8</ele>
        <time>2020-06-23T12:14:15Z</time>
      </trkpt>
      <trkpt lat="51.07885" lon="2.51282">
        <ele>7.8</ele>
        <time>2020-06-23T12:14:16Z</time>
      </trkpt>
      <trkpt lat="51.07887" lon="2.5128">
        <ele>7.8</ele>
        <time>2020-06-23T12:14:17Z</time>
      </trkpt>
      <trkpt lat="51.07888" lon="2.51279">
        <ele>7.8</ele>
        <time>2020-06-23T12:14:18Z</time>
      </trkpt>
      <trkpt lat="51.0789" lon="2.51279">
        <ele>7.8</ele>
        <time>2020-06-23T12:14:19Z</time>
      </trkpt>
      <trkpt lat="51.07891" lon="2.51279">
        <ele>7.8</ele>
        <time>2020-06-23T12:14:20Z</time>
      </trkpt>
      <trkpt lat="51.07895" lon="2.51279">
        <ele>7.8</ele>
        <time>2020-06-23T12:14:21Z</time>
      </trkpt>
      <trkpt lat="51.07897" lon="2.51279">
        <ele>7.8</ele>
        <time>2020-06-23T12:14:22Z</time>
      </trkpt>
      <trkpt lat="51.07899" lon="2.51279">
        <ele>7.8</ele>
        <time>2020-06-23T12:14:23Z</time>
      </trkpt>
      <trkpt lat="51.079" lon="2.51279">
        <ele>7.6</ele>
        <time>2020-06-23T12:14:24Z</time>
      </trkpt>
      <trkpt lat="51.07903" lon="2.5128">
        <ele>7.5</ele>
        <time>2020-06-23T12:14:25Z</time>
      </trkpt>
      <trkpt lat="51.07904" lon="2.5128">
        <ele>7.5</ele>
        <time>2020-06-23T12:14:26Z</time>
      </trkpt>
      <trkpt lat="51.07925" lon="2.5128">
        <ele>6.4</ele>
        <time>2020-06-23T12:15:49Z</time>
      </trkpt>
      <trkpt lat="51.07925" lon="2.5128">
        <ele>6.4</ele>
        <time>2020-06-23T12:15:50Z</time>
      </trkpt>
      <trkpt lat="51.07925" lon="2.5128">
        <ele>6.4</ele>
        <time>2020-06-23T12:15:51Z</time>
      </trkpt>
      <trkpt lat="51.07925" lon="2.51281">
        <ele>6.4</ele>
        <time>2020-06-23T12:15:52Z</time>
      </trkpt>
      <trkpt lat="51.07925" lon="2.51281">
        <ele>6.4</ele>
        <time>2020-06-23T12:15:53Z</time>
      </trkpt>
      <trkpt lat="51.07925" lon="2.51282">
        <ele>6.4</ele>
        <time>2020-06-23T12:15:54Z</time>
      </trkpt>
      <trkpt lat="51.07925" lon="2.51282">
        <ele>6.6</ele>
        <time>2020-06-23T12:15:55Z</time>
      </trkpt>
      <trkpt lat="51.07925" lon="2.51283">
        <ele>6.6</ele>
        <time>2020-06-23T12:15:56Z</time>
      </trkpt>
      <trkpt lat="51.07925" lon="2.51283">
        <ele>6.6</ele>
        <time>2020-06-23T12:15:57Z</time>
      </trkpt>
      <trkpt lat="51.07925" lon="2.51284">
        <ele>6.6</ele>
        <time>2020-06-23T12:15:58Z</time>
      </trkpt>
      <trkpt lat="51.07925" lon="2.51283">
        <ele>6.6</ele>
        <time>2020-06-23T12:15:59Z</time>
      </trkpt>
      <trkpt lat="51.07925" lon="2.51282">
        <ele>6.6</ele>
        <time>2020-06-23T12:16:00Z</time>
      </trkpt>
      <trkpt lat="51.07924" lon="2.51282">
        <ele>6.6</ele>
        <time>2020-06-23T12:16:01Z</time>
      </trkpt>
      <trkpt lat="51.07924" lon="2.51282">
        <ele>6.4</ele>
        <time>2020-06-23T12:16:02Z</time>
      </trkpt>
      <trkpt lat="51.07924" lon="2.51283">
        <ele>6.6</ele>
        <time>2020-06-23T12:16:03Z</time>
      </trkpt>
      <trkpt lat="51.07924" lon="2.51283">
        <ele>6.6</ele>
        <time>2020-06-23T12:16:04Z</time>
      </trkpt>
      <trkpt lat="51.07924" lon="2.51283">
        <ele>6.6</ele>
        <time>2020-06-23T12:16:05Z</time>
      </trkpt>
      <trkpt lat="51.07924" lon="2.51284">
        <ele>6.7</ele>
        <time>2020-06-23T12:16:06Z</time>
      </trkpt>
      <trkpt lat="51.07924" lon="2.51283">
        <ele>6.7</ele>
        <time>2020-06-23T12:16:07Z</time>
      </trkpt>
      <trkpt lat="51.07924" lon="2.51285">
        <ele>6.6</ele>
        <time>2020-06-23T12:16:08Z</time>
      </trkpt>
      <trkpt lat="51.07923" lon="2.51286">
        <ele>6.7</ele>
        <time>2020-06-23T12:16:09Z</time>
      </trkpt>
      <trkpt lat="51.07922" lon="2.51286">
        <ele>6.7</ele>
        <time>2020-06-23T12:16:10Z</time>
      </trkpt>
      <trkpt lat="51.07922" lon="2.51287">
        <ele>6.7</ele>
        <time>2020-06-23T12:16:11Z</time>
      </trkpt>
      <trkpt lat="51.07922" lon="2.51286">
        <ele>6.7</ele>
        <time>2020-06-23T12:16:12Z</time>
      </trkpt>
      <trkpt lat="51.07921" lon="2.51286">
        <ele>6.7</ele>
        <time>2020-06-23T12:16:13Z</time>
      </trkpt>
      <trkpt lat="51.0792" lon="2.51286">
        <ele>6.8</ele>
        <time>2020-06-23T12:16:14Z</time>
      </trkpt>
      <trkpt lat="51.0792" lon="2.51285">
        <ele>6.8</ele>
        <time>2020-06-23T12:16:15Z</time>
      </trkpt>
      <trkpt lat="51.0792" lon="2.51285">
        <ele>6.8</ele>
        <time>2020-06-23T12:16:16Z</time>
      </trkpt>
      <trkpt lat="51.0792" lon="2.51286">
        <ele>6.8</ele>
        <time>2020-06-23T12:16:17Z</time>
      </trkpt>
      <trkpt lat="51.0792" lon="2.51286">
        <ele>6.8</ele>
        <time>2020-06-23T12:16:18Z</time>
      </trkpt>
      <trkpt lat="51.0792" lon="2.51286">
        <ele>6.8</ele>
        <time>2020-06-23T12:16:19Z</time>
      </trkpt>
      <trkpt lat="51.0792" lon="2.51287">
        <ele>7</ele>
        <time>2020-06-23T12:16:20Z</time>
      </trkpt>
      <trkpt lat="51.0792" lon="2.51287">
        <ele>7</ele>
        <time>2020-06-23T12:16:21Z</time>
      </trkpt>
      <trkpt lat="51.0792" lon="2.51287">
        <ele>7</ele>
        <time>2020-06-23T12:16:22Z</time>
      </trkpt>
      <trkpt lat="51.0792" lon="2.51287">
        <ele>7</ele>
        <time>2020-06-23T12:16:23Z</time>
      </trkpt>
      <trkpt lat="51.0792" lon="2.51287">
        <ele>7</ele>
        <time>2020-06-23T12:16:24Z</time>
      </trkpt>
      <trkpt lat="51.07926" lon="2.51285">
        <ele>6.6</ele>
        <time>2020-06-23T12:16:52Z</time>
      </trkpt>
      <trkpt lat="51.07925" lon="2.51285">
        <ele>6.6</ele>
        <time>2020-06-23T12:16:53Z</time>
      </trkpt>
      <trkpt lat="51.07925" lon="2.51285">
        <ele>6.6</ele>
        <time>2020-06-23T12:16:54Z</time>
      </trkpt>
      <trkpt lat="51.07924" lon="2.51285">
        <ele>6.6</ele>
        <time>2020-06-23T12:16:55Z</time>
      </trkpt>
      <trkpt lat="51.07923" lon="2.51285">
        <ele>6.7</ele>
        <time>2020-06-23T12:16:56Z</time>
      </trkpt>
      <trkpt lat="51.07923" lon="2.51285">
        <ele>6.7</ele>
        <time>2020-06-23T12:16:57Z</time>
      </trkpt>
      <trkpt lat="51.07923" lon="2.51285">
        <ele>6.7</ele>
        <time>2020-06-23T12:16:58Z</time>
      </trkpt>
      <trkpt lat="51.07923" lon="2.51284">
        <ele>6.7</ele>
        <time>2020-06-23T12:16:59Z</time>
      </trkpt>
      <trkpt lat="51.07923" lon="2.51284">
        <ele>6.7</ele>
        <time>2020-06-23T12:17:00Z</time>
      </trkpt>
      <trkpt lat="51.07923" lon="2.51285">
        <ele>6.7</ele>
        <time>2020-06-23T12:17:01Z</time>
      </trkpt>
      <trkpt lat="51.07923" lon="2.51284">
        <ele>6.7</ele>
        <time>2020-06-23T12:17:02Z</time>
      </trkpt>
      <trkpt lat="51.07923" lon="2.51284">
        <ele>6.7</ele>
        <time>2020-06-23T12:17:03Z</time>
      </trkpt>
      <trkpt lat="51.07923" lon="2.51284">
        <ele>6.7</ele>
        <time>2020-06-23T12:17:04Z</time>
      </trkpt>
      <trkpt lat="51.07924" lon="2.51285">
        <ele>6.6</ele>
        <time>2020-06-23T12:17:05Z</time>
      </trkpt>
      <trkpt lat="51.07924" lon="2.51285">
        <ele>6.6</ele>
        <time>2020-06-23T12:17:06Z</time>
      </trkpt>
      <trkpt lat="51.07924" lon="2.51286">
        <ele>6.6</ele>
        <time>2020-06-23T12:17:07Z</time>
      </trkpt>
      <trkpt lat="51.07925" lon="2.51286">
        <ele>6.6</ele>
        <time>2020-06-23T12:17:08Z</time>
      </trkpt>
      <trkpt lat="51.07925" lon="2.51286">
        <ele>6.6</ele>
        <time>2020-06-23T12:17:09Z</time>
      </trkpt>
      <trkpt lat="51.07925" lon="2.51287">
        <ele>6.7</ele>
        <time>2020-06-23T12:17:10Z</time>
      </trkpt>
      <trkpt lat="51.07926" lon="2.51287">
        <ele>6.7</ele>
        <time>2020-06-23T12:17:11Z</time>
      </trkpt>
      <trkpt lat="51.07926" lon="2.51288">
        <ele>6.7</ele>
        <time>2020-06-23T12:17:12Z</time>
      </trkpt>
      <trkpt lat="51.07926" lon="2.51288">
        <ele>6.7</ele>
        <time>2020-06-23T12:17:13Z</time>
      </trkpt>
      <trkpt lat="51.07927" lon="2.51289">
        <ele>6.6</ele>
        <time>2020-06-23T12:17:14Z</time>
      </trkpt>
      <trkpt lat="51.07927" lon="2.51289">
        <ele>6.6</ele>
        <time>2020-06-23T12:17:15Z</time>
      </trkpt>
      <trkpt lat="51.07927" lon="2.51289">
        <ele>6.6</ele>
        <time>2020-06-23T12:17:16Z</time>
      </trkpt>
      <trkpt lat="51.07928" lon="2.5129">
        <ele>6.6</ele>
        <time>2020-06-23T12:17:17Z</time>
      </trkpt>
      <trkpt lat="51.07928" lon="2.5129">
        <ele>6.6</ele>
        <time>2020-06-23T12:17:18Z</time>
      </trkpt>
      <trkpt lat="51.07928" lon="2.51291">
        <ele>6.6</ele>
        <time>2020-06-23T12:17:19Z</time>
      </trkpt>
      <trkpt lat="51.07929" lon="2.51291">
        <ele>6.7</ele>
        <time>2020-06-23T12:17:20Z</time>
      </trkpt>
      <trkpt lat="51.07929" lon="2.51292">
        <ele>6.7</ele>
        <time>2020-06-23T12:17:21Z</time>
      </trkpt>
      <trkpt lat="51.07929" lon="2.51292">
        <ele>6.6</ele>
        <time>2020-06-23T12:17:22Z</time>
      </trkpt>
      <trkpt lat="51.0793" lon="2.51292">
        <ele>6.6</ele>
        <time>2020-06-23T12:17:23Z</time>
      </trkpt>
      <trkpt lat="51.0793" lon="2.51293">
        <ele>6.6</ele>
        <time>2020-06-23T12:18:05Z</time>
      </trkpt>
      <trkpt lat="51.0793" lon="2.51293">
        <ele>6.6</ele>
        <time>2020-06-23T12:18:06Z</time>
      </trkpt>
      <trkpt lat="51.07931" lon="2.51294">
        <ele>6.6</ele>
        <time>2020-06-23T12:18:07Z</time>
      </trkpt>
      <trkpt lat="51.07931" lon="2.51294">
        <ele>6.6</ele>
        <time>2020-06-23T12:18:08Z</time>
      </trkpt>
      <trkpt lat="51.07933" lon="2.51296">
        <ele>6.5</ele>
        <time>2020-06-23T12:18:09Z</time>
      </trkpt>
      <trkpt lat="51.07934" lon="2.51296">
        <ele>6.5</ele>
        <time>2020-06-23T12:18:10Z</time>
      </trkpt>
      <trkpt lat="51.07934" lon="2.51297">
        <ele>6.5</ele>
        <time>2020-06-23T12:18:11Z</time>
      </trkpt>
      <trkpt lat="51.07934" lon="2.51297">
        <ele>6.5</ele>
        <time>2020-06-23T12:18:12Z</time>
      </trkpt>
      <trkpt lat="51.07934" lon="2.51298">
        <ele>6.5</ele>
        <time>2020-06-23T12:18:13Z</time>
      </trkpt>
      <trkpt lat="51.07934" lon="2.51298">
        <ele>6.5</ele>
        <time>2020-06-23T12:18:14Z</time>
      </trkpt>
      <trkpt lat="51.07935" lon="2.51297">
        <ele>6.4</ele>
        <time>2020-06-23T12:18:15Z</time>
      </trkpt>
      <trkpt lat="51.07935" lon="2.51296">
        <ele>6.4</ele>
        <time>2020-06-23T12:18:16Z</time>
      </trkpt>
      <trkpt lat="51.07936" lon="2.51296">
        <ele>6.4</ele>
        <time>2020-06-23T12:18:17Z</time>
      </trkpt>
      <trkpt lat="51.07936" lon="2.51296">
        <ele>6.4</ele>
        <time>2020-06-23T12:18:18Z</time>
      </trkpt>
      <trkpt lat="51.07937" lon="2.51296">
        <ele>6.4</ele>
        <time>2020-06-23T12:18:19Z</time>
      </trkpt>
      <trkpt lat="51.07937" lon="2.51296">
        <ele>6.4</ele>
        <time>2020-06-23T12:18:20Z</time>
      </trkpt>
      <trkpt lat="51.07937" lon="2.51296">
        <ele>6.3</ele>
        <time>2020-06-23T12:18:21Z</time>
      </trkpt>
      <trkpt lat="51.07938" lon="2.51295">
        <ele>6.1</ele>
        <time>2020-06-23T12:18:22Z</time>
      </trkpt>
      <trkpt lat="51.07938" lon="2.51295">
        <ele>6.1</ele>
        <time>2020-06-23T12:18:23Z</time>
      </trkpt>
      <trkpt lat="51.07939" lon="2.51296">
        <ele>6.3</ele>
        <time>2020-06-23T12:18:24Z</time>
      </trkpt>
      <trkpt lat="51.07936" lon="2.51296">
        <ele>6.4</ele>
        <time>2020-06-23T12:18:25Z</time>
      </trkpt>
      <trkpt lat="51.07935" lon="2.51296">
        <ele>6.4</ele>
        <time>2020-06-23T12:18:26Z</time>
      </trkpt>
      <trkpt lat="51.07933" lon="2.51296">
        <ele>6.5</ele>
        <time>2020-06-23T12:18:27Z</time>
      </trkpt>
      <trkpt lat="51.07933" lon="2.51295">
        <ele>6.5</ele>
        <time>2020-06-23T12:18:28Z</time>
      </trkpt>
      <trkpt lat="51.07932" lon="2.51294">
        <ele>6.4</ele>
        <time>2020-06-23T12:18:29Z</time>
      </trkpt>
      <trkpt lat="51.07932" lon="2.51294">
        <ele>6.4</ele>
        <time>2020-06-23T12:18:30Z</time>
      </trkpt>
      <trkpt lat="51.07932" lon="2.51294">
        <ele>6.4</ele>
        <time>2020-06-23T12:18:31Z</time>
      </trkpt>
      <trkpt lat="51.07932" lon="2.51294">
        <ele>6.4</ele>
        <time>2020-06-23T12:18:32Z</time>
      </trkpt>
      <trkpt lat="51.07932" lon="2.51294">
        <ele>6.4</ele>
        <time>2020-06-23T12:18:33Z</time>
      </trkpt>
      <trkpt lat="51.07933" lon="2.51294">
        <ele>6.4</ele>
        <time>2020-06-23T12:18:34Z</time>
      </trkpt>
      <trkpt lat="51.07933" lon="2.51294">
        <ele>6.4</ele>
        <time>2020-06-23T12:18:35Z</time>
      </trkpt>
      <trkpt lat="51.07933" lon="2.51294">
        <ele>6.4</ele>
        <time>2020-06-23T12:18:36Z</time>
      </trkpt>
      <trkpt lat="51.07933" lon="2.51294">
        <ele>6.4</ele>
        <time>2020-06-23T12:18:37Z</time>
      </trkpt>
      <trkpt lat="51.07933" lon="2.51294">
        <ele>6.4</ele>
        <time>2020-06-23T12:18:38Z</time>
      </trkpt>
      <trkpt lat="51.07933" lon="2.51294">
        <ele>6.4</ele>
        <time>2020-06-23T12:18:39Z</time>
      </trkpt>
      <trkpt lat="51.07933" lon="2.51294">
        <ele>6.4</ele>
        <time>2020-06-23T12:18:40Z</time>
      </trkpt>
      <trkpt lat="51.07933" lon="2.51294">
        <ele>6.4</ele>
        <time>2020-06-23T12:18:41Z</time>
      </trkpt>
      <trkpt lat="51.07933" lon="2.51294">
        <ele>6.4</ele>
        <time>2020-06-23T12:18:42Z</time>
      </trkpt>
      <trkpt lat="51.07933" lon="2.51294">
        <ele>6.4</ele>
        <time>2020-06-23T12:18:43Z</time>
      </trkpt>
      <trkpt lat="51.07933" lon="2.51294">
        <ele>6.4</ele>
        <time>2020-06-23T12:18:44Z</time>
      </trkpt>
      <trkpt lat="51.07933" lon="2.51294">
        <ele>6.4</ele>
        <time>2020-06-23T12:18:45Z</time>
      </trkpt>
      <trkpt lat="51.07931" lon="2.51289">
        <ele>6.4</ele>
        <time>2020-06-23T12:19:22Z</time>
      </trkpt>
      <trkpt lat="51.07932" lon="2.51289">
        <ele>6.3</ele>
        <time>2020-06-23T12:19:23Z</time>
      </trkpt>
      <trkpt lat="51.07933" lon="2.51289">
        <ele>6.3</ele>
        <time>2020-06-23T12:19:24Z</time>
      </trkpt>
      <trkpt lat="51.07934" lon="2.51289">
        <ele>6.3</ele>
        <time>2020-06-23T12:19:25Z</time>
      </trkpt>
      <trkpt lat="51.07935" lon="2.51288">
        <ele>6.2</ele>
        <time>2020-06-23T12:19:26Z</time>
      </trkpt>
      <trkpt lat="51.07936" lon="2.51289">
        <ele>6.2</ele>
        <time>2020-06-23T12:19:27Z</time>
      </trkpt>
      <trkpt lat="51.07937" lon="2.5129">
        <ele>6.2</ele>
        <time>2020-06-23T12:19:28Z</time>
      </trkpt>
      <trkpt lat="51.07937" lon="2.5129">
        <ele>6.2</ele>
        <time>2020-06-23T12:19:29Z</time>
      </trkpt>
      <trkpt lat="51.07937" lon="2.5129">
        <ele>6.2</ele>
        <time>2020-06-23T12:19:30Z</time>
      </trkpt>
      <trkpt lat="51.07937" lon="2.5129">
        <ele>6.2</ele>
        <time>2020-06-23T12:19:31Z</time>
      </trkpt>
      <trkpt lat="51.07937" lon="2.51291">
        <ele>6.1</ele>
        <time>2020-06-23T12:19:32Z</time>
      </trkpt>
      <trkpt lat="51.07937" lon="2.51292">
        <ele>6.1</ele>
        <time>2020-06-23T12:19:33Z</time>
      </trkpt>
      <trkpt lat="51.07937" lon="2.51292">
        <ele>6.1</ele>
        <time>2020-06-23T12:19:34Z</time>
      </trkpt>
      <trkpt lat="51.07937" lon="2.51292">
        <ele>6.1</ele>
        <time>2020-06-23T12:19:35Z</time>
      </trkpt>
      <trkpt lat="51.07937" lon="2.51292">
        <ele>6.3</ele>
        <time>2020-06-23T12:19:36Z</time>
      </trkpt>
      <trkpt lat="51.07937" lon="2.51292">
        <ele>6.3</ele>
        <time>2020-06-23T12:19:37Z</time>
      </trkpt>
      <trkpt lat="51.07937" lon="2.51292">
        <ele>6.3</ele>
        <time>2020-06-23T12:19:38Z</time>
      </trkpt>
      <trkpt lat="51.07935" lon="2.51291">
        <ele>6.2</ele>
        <time>2020-06-23T12:19:39Z</time>
      </trkpt>
      <trkpt lat="51.07935" lon="2.51291">
        <ele>6.3</ele>
        <time>2020-06-23T12:19:40Z</time>
      </trkpt>
      <trkpt lat="51.07935" lon="2.51291">
        <ele>6.3</ele>
        <time>2020-06-23T12:19:41Z</time>
      </trkpt>
      <trkpt lat="51.07935" lon="2.51291">
        <ele>6.3</ele>
        <time>2020-06-23T12:19:42Z</time>
      </trkpt>
      <trkpt lat="51.07935" lon="2.51291">
        <ele>6.2</ele>
        <time>2020-06-23T12:19:43Z</time>
      </trkpt>
      <trkpt lat="51.07935" lon="2.51291">
        <ele>6.2</ele>
        <time>2020-06-23T12:19:44Z</time>
      </trkpt>
      <trkpt lat="51.07935" lon="2.51291">
        <ele>6.2</ele>
        <time>2020-06-23T12:19:45Z</time>
      </trkpt>
      <trkpt lat="51.07932" lon="2.51291">
        <ele>6.4</ele>
        <time>2020-06-23T12:20:29Z</time>
      </trkpt>
      <trkpt lat="51.07931" lon="2.51293">
        <ele>6.6</ele>
        <time>2020-06-23T12:20:30Z</time>
      </trkpt>
      <trkpt lat="51.07931" lon="2.51293">
        <ele>6.6</ele>
        <time>2020-06-23T12:20:31Z</time>
      </trkpt>
      <trkpt lat="51.07931" lon="2.51294">
        <ele>6.6</ele>
        <time>2020-06-23T12:20:32Z</time>
      </trkpt>
      <trkpt lat="51.07932" lon="2.51294">
        <ele>6.4</ele>
        <time>2020-06-23T12:20:33Z</time>
      </trkpt>
      <trkpt lat="51.07932" lon="2.51295">
        <ele>6.4</ele>
        <time>2020-06-23T12:20:34Z</time>
      </trkpt>
      <trkpt lat="51.07933" lon="2.51295">
        <ele>6.5</ele>
        <time>2020-06-23T12:20:35Z</time>
      </trkpt>
      <trkpt lat="51.07933" lon="2.51295">
        <ele>6.5</ele>
        <time>2020-06-23T12:20:36Z</time>
      </trkpt>
      <trkpt lat="51.07933" lon="2.51295">
        <ele>6.5</ele>
        <time>2020-06-23T12:20:37Z</time>
      </trkpt>
      <trkpt lat="51.07933" lon="2.51295">
        <ele>6.4</ele>
        <time>2020-06-23T12:20:38Z</time>
      </trkpt>
      <trkpt lat="51.07933" lon="2.51295">
        <ele>6.4</ele>
        <time>2020-06-23T12:20:39Z</time>
      </trkpt>
      <trkpt lat="51.07933" lon="2.51294">
        <ele>6.4</ele>
        <time>2020-06-23T12:20:40Z</time>
      </trkpt>
      <trkpt lat="51.07932" lon="2.51294">
        <ele>6.4</ele>
        <time>2020-06-23T12:20:41Z</time>
      </trkpt>
      <trkpt lat="51.07932" lon="2.51294">
        <ele>6.4</ele>
        <time>2020-06-23T12:20:42Z</time>
      </trkpt>
      <trkpt lat="51.07933" lon="2.51294">
        <ele>6.4</ele>
        <time>2020-06-23T12:20:43Z</time>
      </trkpt>
      <trkpt lat="51.07932" lon="2.51294">
        <ele>6.4</ele>
        <time>2020-06-23T12:20:44Z</time>
      </trkpt>
      <trkpt lat="51.07932" lon="2.51293">
        <ele>6.6</ele>
        <time>2020-06-23T12:20:45Z</time>
      </trkpt>
      <trkpt lat="51.07932" lon="2.513">
        <ele>6.8</ele>
        <time>2020-06-23T12:20:58Z</time>
      </trkpt>
      <trkpt lat="51.07932" lon="2.51301">
        <ele>6.7</ele>
        <time>2020-06-23T12:20:59Z</time>
      </trkpt>
      <trkpt lat="51.07933" lon="2.51302">
        <ele>6.7</ele>
        <time>2020-06-23T12:21:00Z</time>
      </trkpt>
      <trkpt lat="51.07933" lon="2.51302">
        <ele>6.7</ele>
        <time>2020-06-23T12:21:01Z</time>
      </trkpt>
      <trkpt lat="51.07933" lon="2.51302">
        <ele>6.7</ele>
        <time>2020-06-23T12:21:02Z</time>
      </trkpt>
      <trkpt lat="51.07933" lon="2.51301">
        <ele>6.6</ele>
        <time>2020-06-23T12:21:03Z</time>
      </trkpt>
      <trkpt lat="51.07933" lon="2.51301">
        <ele>6.6</ele>
        <time>2020-06-23T12:21:04Z</time>
      </trkpt>
      <trkpt lat="51.07934" lon="2.51302">
        <ele>6.6</ele>
        <time>2020-06-23T12:21:05Z</time>
      </trkpt>
      <trkpt lat="51.07935" lon="2.51303">
        <ele>6.3</ele>
        <time>2020-06-23T12:21:06Z</time>
      </trkpt>
      <trkpt lat="51.07936" lon="2.51303">
        <ele>6.3</ele>
        <time>2020-06-23T12:21:07Z</time>
      </trkpt>
      <trkpt lat="51.07937" lon="2.51302">
        <ele>6.3</ele>
        <time>2020-06-23T12:21:08Z</time>
      </trkpt>
      <trkpt lat="51.07937" lon="2.51302">
        <ele>6.1</ele>
        <time>2020-06-23T12:21:09Z</time>
      </trkpt>
      <trkpt lat="51.07937" lon="2.51302">
        <ele>6.1</ele>
        <time>2020-06-23T12:21:10Z</time>
      </trkpt>
      <trkpt lat="51.07938" lon="2.51301">
        <ele>6.1</ele>
        <time>2020-06-23T12:21:11Z</time>
      </trkpt>
      <trkpt lat="51.07938" lon="2.513">
        <ele>6</ele>
        <time>2020-06-23T12:21:12Z</time>
      </trkpt>
      <trkpt lat="51.07936" lon="2.51298">
        <ele>6</ele>
        <time>2020-06-23T12:21:13Z</time>
      </trkpt>
      <trkpt lat="51.07934" lon="2.51294">
        <ele>5.9</ele>
        <time>2020-06-23T12:21:14Z</time>
      </trkpt>
      <trkpt lat="51.07934" lon="2.51292">
        <ele>5.9</ele>
        <time>2020-06-23T12:21:15Z</time>
      </trkpt>
      <trkpt lat="51.07934" lon="2.51286">
        <ele>5.7</ele>
        <time>2020-06-23T12:21:16Z</time>
      </trkpt>
      <trkpt lat="51.07933" lon="2.51283">
        <ele>5.7</ele>
        <time>2020-06-23T12:21:17Z</time>
      </trkpt>
      <trkpt lat="51.07932" lon="2.51277">
        <ele>5.6</ele>
        <time>2020-06-23T12:21:18Z</time>
      </trkpt>
      <trkpt lat="51.07929" lon="2.51272">
        <ele>5.4</ele>
        <time>2020-06-23T12:21:19Z</time>
      </trkpt>
      <trkpt lat="51.07929" lon="2.51267">
        <ele>5.4</ele>
        <time>2020-06-23T12:21:20Z</time>
      </trkpt>
      <trkpt lat="51.07929" lon="2.51265">
        <ele>5.3</ele>
        <time>2020-06-23T12:21:21Z</time>
      </trkpt>
      <trkpt lat="51.07929" lon="2.51263">
        <ele>5.2</ele>
        <time>2020-06-23T12:21:22Z</time>
      </trkpt>
      <trkpt lat="51.07929" lon="2.51258">
        <ele>5.1</ele>
        <time>2020-06-23T12:21:23Z</time>
      </trkpt>
      <trkpt lat="51.07931" lon="2.51255">
        <ele>4.9</ele>
        <time>2020-06-23T12:21:24Z</time>
      </trkpt>
      <trkpt lat="51.0793" lon="2.51253">
        <ele>4.9</ele>
        <time>2020-06-23T12:21:25Z</time>
      </trkpt>
      <trkpt lat="51.07931" lon="2.51249">
        <ele>4.8</ele>
        <time>2020-06-23T12:21:26Z</time>
      </trkpt>
      <trkpt lat="51.07931" lon="2.51248">
        <ele>4.7</ele>
        <time>2020-06-23T12:21:27Z</time>
      </trkpt>
      <trkpt lat="51.07931" lon="2.51246">
        <ele>4.7</ele>
        <time>2020-06-23T12:21:28Z</time>
      </trkpt>
      <trkpt lat="51.0793" lon="2.51245">
        <ele>4.7</ele>
        <time>2020-06-23T12:21:29Z</time>
      </trkpt>
      <trkpt lat="51.0793" lon="2.51245">
        <ele>4.7</ele>
        <time>2020-06-23T12:21:30Z</time>
      </trkpt>
      <trkpt lat="51.0793" lon="2.51244">
        <ele>4.6</ele>
        <time>2020-06-23T12:21:31Z</time>
      </trkpt>
      <trkpt lat="51.0793" lon="2.51243">
        <ele>4.5</ele>
        <time>2020-06-23T12:21:32Z</time>
      </trkpt>
      <trkpt lat="51.0793" lon="2.51243">
        <ele>4.5</ele>
        <time>2020-06-23T12:21:33Z</time>
      </trkpt>
      <trkpt lat="51.0793" lon="2.51243">
        <ele>4.5</ele>
        <time>2020-06-23T12:21:34Z</time>
      </trkpt>
      <trkpt lat="51.0793" lon="2.51244">
        <ele>4.6</ele>
        <time>2020-06-23T12:21:35Z</time>
      </trkpt>
      <trkpt lat="51.0793" lon="2.51245">
        <ele>4.5</ele>
        <time>2020-06-23T12:21:36Z</time>
      </trkpt>
      <trkpt lat="51.07929" lon="2.51247">
        <ele>4.5</ele>
        <time>2020-06-23T12:21:37Z</time>
      </trkpt>
      <trkpt lat="51.07929" lon="2.51249">
        <ele>4.6</ele>
        <time>2020-06-23T12:21:38Z</time>
      </trkpt>
      <trkpt lat="51.07929" lon="2.51251">
        <ele>4.6</ele>
        <time>2020-06-23T12:21:39Z</time>
      </trkpt>
      <trkpt lat="51.07928" lon="2.51252">
        <ele>4.6</ele>
        <time>2020-06-23T12:21:40Z</time>
      </trkpt>
      <trkpt lat="51.07928" lon="2.51253">
        <ele>4.6</ele>
        <time>2020-06-23T12:21:41Z</time>
      </trkpt>
      <trkpt lat="51.07928" lon="2.51254">
        <ele>4.6</ele>
        <time>2020-06-23T12:21:42Z</time>
      </trkpt>
      <trkpt lat="51.07929" lon="2.51254">
        <ele>4.5</ele>
        <time>2020-06-23T12:21:43Z</time>
      </trkpt>
      <trkpt lat="51.0793" lon="2.51257">
        <ele>4.5</ele>
        <time>2020-06-23T12:21:44Z</time>
      </trkpt>
      <trkpt lat="51.0793" lon="2.51259">
        <ele>4.5</ele>
        <time>2020-06-23T12:21:45Z</time>
      </trkpt>
      <trkpt lat="51.0793" lon="2.51261">
        <ele>4.5</ele>
        <time>2020-06-23T12:21:46Z</time>
      </trkpt>
      <trkpt lat="51.0793" lon="2.51261">
        <ele>4.5</ele>
        <time>2020-06-23T12:21:47Z</time>
      </trkpt>
      <trkpt lat="51.0793" lon="2.51262">
        <ele>4.5</ele>
        <time>2020-06-23T12:21:48Z</time>
      </trkpt>
      <trkpt lat="51.0793" lon="2.51263">
        <ele>4.5</ele>
        <time>2020-06-23T12:21:49Z</time>
      </trkpt>
      <trkpt lat="51.07929" lon="2.51263">
        <ele>4.4</ele>
        <time>2020-06-23T12:21:50Z</time>
      </trkpt>
      <trkpt lat="51.07929" lon="2.51263">
        <ele>4.4</ele>
        <time>2020-06-23T12:21:51Z</time>
      </trkpt>
      <trkpt lat="51.07929" lon="2.51263">
        <ele>4.4</ele>
        <time>2020-06-23T12:21:52Z</time>
      </trkpt>
      <trkpt lat="51.07929" lon="2.51263">
        <ele>4.3</ele>
        <time>2020-06-23T12:21:53Z</time>
      </trkpt>
      <trkpt lat="51.07929" lon="2.51263">
        <ele>4.3</ele>
        <time>2020-06-23T12:21:54Z</time>
      </trkpt>
      <trkpt lat="51.07929" lon="2.51263">
        <ele>4.3</ele>
        <time>2020-06-23T12:21:55Z</time>
      </trkpt>
      <trkpt lat="51.07929" lon="2.51265">
        <ele>4.3</ele>
        <time>2020-06-23T12:21:56Z</time>
      </trkpt>
      <trkpt lat="51.07928" lon="2.51267">
        <ele>4.3</ele>
        <time>2020-06-23T12:21:57Z</time>
      </trkpt>
      <trkpt lat="51.07928" lon="2.51267">
        <ele>4.3</ele>
        <time>2020-06-23T12:21:58Z</time>
      </trkpt>
      <trkpt lat="51.07928" lon="2.51268">
        <ele>4.3</ele>
        <time>2020-06-23T12:21:59Z</time>
      </trkpt>
      <trkpt lat="51.07928" lon="2.51268">
        <ele>4.2</ele>
        <time>2020-06-23T12:22:00Z</time>
      </trkpt>
      <trkpt lat="51.07928" lon="2.51268">
        <ele>4.2</ele>
        <time>2020-06-23T12:22:01Z</time>
      </trkpt>
      <trkpt lat="51.07928" lon="2.51268">
        <ele>4.2</ele>
        <time>2020-06-23T12:22:02Z</time>
      </trkpt>
      <trkpt lat="51.07927" lon="2.51268">
        <ele>4.2</ele>
        <time>2020-06-23T12:22:03Z</time>
      </trkpt>
      <trkpt lat="51.07927" lon="2.51267">
        <ele>4.1</ele>
        <time>2020-06-23T12:22:04Z</time>
      </trkpt>
      <trkpt lat="51.07926" lon="2.51267">
        <ele>4.1</ele>
        <time>2020-06-23T12:22:05Z</time>
      </trkpt>
      <trkpt lat="51.07926" lon="2.51267">
        <ele>4.1</ele>
        <time>2020-06-23T12:22:06Z</time>
      </trkpt>
      <trkpt lat="51.07926" lon="2.51266">
        <ele>4.1</ele>
        <time>2020-06-23T12:22:07Z</time>
      </trkpt>
      <trkpt lat="51.07926" lon="2.51266">
        <ele>4</ele>
        <time>2020-06-23T12:22:08Z</time>
      </trkpt>
      <trkpt lat="51.07926" lon="2.51268">
        <ele>4.1</ele>
        <time>2020-06-23T12:22:09Z</time>
      </trkpt>
      <trkpt lat="51.07926" lon="2.51269">
        <ele>4</ele>
        <time>2020-06-23T12:22:10Z</time>
      </trkpt>
      <trkpt lat="51.07926" lon="2.51269">
        <ele>4</ele>
        <time>2020-06-23T12:22:11Z</time>
      </trkpt>
      <trkpt lat="51.07924" lon="2.51276">
        <ele>4</ele>
        <time>2020-06-23T12:22:27Z</time>
      </trkpt>
      <trkpt lat="51.07924" lon="2.51277">
        <ele>4</ele>
        <time>2020-06-23T12:22:28Z</time>
      </trkpt>
      <trkpt lat="51.07923" lon="2.51278">
        <ele>4</ele>
        <time>2020-06-23T12:22:29Z</time>
      </trkpt>
      <trkpt lat="51.07922" lon="2.51278">
        <ele>4</ele>
        <time>2020-06-23T12:22:30Z</time>
      </trkpt>
      <trkpt lat="51.07922" lon="2.51279">
        <ele>4</ele>
        <time>2020-06-23T12:22:31Z</time>
      </trkpt>
      <trkpt lat="51.07921" lon="2.51279">
        <ele>4</ele>
        <time>2020-06-23T12:22:32Z</time>
      </trkpt>
      <trkpt lat="51.0792" lon="2.51279">
        <ele>3.9</ele>
        <time>2020-06-23T12:22:33Z</time>
      </trkpt>
      <trkpt lat="51.0792" lon="2.5128">
        <ele>3.9</ele>
        <time>2020-06-23T12:22:34Z</time>
      </trkpt>
      <trkpt lat="51.07919" lon="2.5128">
        <ele>3.9</ele>
        <time>2020-06-23T12:22:35Z</time>
      </trkpt>
      <trkpt lat="51.07919" lon="2.5128">
        <ele>3.8</ele>
        <time>2020-06-23T12:22:36Z</time>
      </trkpt>
      <trkpt lat="51.0792" lon="2.5128">
        <ele>3.8</ele>
        <time>2020-06-23T12:22:37Z</time>
      </trkpt>
      <trkpt lat="51.0792" lon="2.5128">
        <ele>3.7</ele>
        <time>2020-06-23T12:22:38Z</time>
      </trkpt>
      <trkpt lat="51.07921" lon="2.5128">
        <ele>3.7</ele>
        <time>2020-06-23T12:22:39Z</time>
      </trkpt>
      <trkpt lat="51.07921" lon="2.51281">
        <ele>3.7</ele>
        <time>2020-06-23T12:22:40Z</time>
      </trkpt>
      <trkpt lat="51.07922" lon="2.5128">
        <ele>3.6</ele>
        <time>2020-06-23T12:22:41Z</time>
      </trkpt>
      <trkpt lat="51.07922" lon="2.5128">
        <ele>3.6</ele>
        <time>2020-06-23T12:22:42Z</time>
      </trkpt>
      <trkpt lat="51.07922" lon="2.5128">
        <ele>3.6</ele>
        <time>2020-06-23T12:22:43Z</time>
      </trkpt>
      <trkpt lat="51.07925" lon="2.51279">
        <ele>3.5</ele>
        <time>2020-06-23T12:24:28Z</time>
      </trkpt>
      <trkpt lat="51.07925" lon="2.51279">
        <ele>3.5</ele>
        <time>2020-06-23T12:24:29Z</time>
      </trkpt>
      <trkpt lat="51.07924" lon="2.51279">
        <ele>3.4</ele>
        <time>2020-06-23T12:24:30Z</time>
      </trkpt>
      <trkpt lat="51.07924" lon="2.5128">
        <ele>3.4</ele>
        <time>2020-06-23T12:24:31Z</time>
      </trkpt>
      <trkpt lat="51.07924" lon="2.5128">
        <ele>3.4</ele>
        <time>2020-06-23T12:24:32Z</time>
      </trkpt>
      <trkpt lat="51.07925" lon="2.5128">
        <ele>3.3</ele>
        <time>2020-06-23T12:24:33Z</time>
      </trkpt>
      <trkpt lat="51.07924" lon="2.5128">
        <ele>3.3</ele>
        <time>2020-06-23T12:24:34Z</time>
      </trkpt>
      <trkpt lat="51.07924" lon="2.51281">
        <ele>3.3</ele>
        <time>2020-06-23T12:24:35Z</time>
      </trkpt>
      <trkpt lat="51.07923" lon="2.51281">
        <ele>3.2</ele>
        <time>2020-06-23T12:24:36Z</time>
      </trkpt>
      <trkpt lat="51.07923" lon="2.51282">
        <ele>3.2</ele>
        <time>2020-06-23T12:24:37Z</time>
      </trkpt>
      <trkpt lat="51.07922" lon="2.51282">
        <ele>3.2</ele>
        <time>2020-06-23T12:24:38Z</time>
      </trkpt>
      <trkpt lat="51.07922" lon="2.51282">
        <ele>3.1</ele>
        <time>2020-06-23T12:24:39Z</time>
      </trkpt>
      <trkpt lat="51.07922" lon="2.51282">
        <ele>3.1</ele>
        <time>2020-06-23T12:24:40Z</time>
      </trkpt>
      <trkpt lat="51.07922" lon="2.51282">
        <ele>3.1</ele>
        <time>2020-06-23T12:24:41Z</time>
      </trkpt>
      <trkpt lat="51.07922" lon="2.51282">
        <ele>3.1</ele>
        <time>2020-06-23T12:24:42Z</time>
      </trkpt>
      <trkpt lat="51.07922" lon="2.51282">
        <ele>3.1</ele>
        <time>2020-06-23T12:24:43Z</time>
      </trkpt>
      <trkpt lat="51.07925" lon="2.51279">
        <ele>3.1</ele>
        <time>2020-06-23T12:26:45Z</time>
      </trkpt>
      <trkpt lat="51.07925" lon="2.51279">
        <ele>3.1</ele>
        <time>2020-06-23T12:26:46Z</time>
      </trkpt>
      <trkpt lat="51.07926" lon="2.51279">
        <ele>3.1</ele>
        <time>2020-06-23T12:26:47Z</time>
      </trkpt>
      <trkpt lat="51.07926" lon="2.51279">
        <ele>3.1</ele>
        <time>2020-06-23T12:26:48Z</time>
      </trkpt>
      <trkpt lat="51.07926" lon="2.51279">
        <ele>3.1</ele>
        <time>2020-06-23T12:26:49Z</time>
      </trkpt>
      <trkpt lat="51.07925" lon="2.51279">
        <ele>3.1</ele>
        <time>2020-06-23T12:26:50Z</time>
      </trkpt>
      <trkpt lat="51.07925" lon="2.51279">
        <ele>3.1</ele>
        <time>2020-06-23T12:26:51Z</time>
      </trkpt>
      <trkpt lat="51.07925" lon="2.51279">
        <ele>3.1</ele>
        <time>2020-06-23T12:26:52Z</time>
      </trkpt>
      <trkpt lat="51.07925" lon="2.51281">
        <ele>3.1</ele>
        <time>2020-06-23T12:26:53Z</time>
      </trkpt>
      <trkpt lat="51.07926" lon="2.51283">
        <ele>3.1</ele>
        <time>2020-06-23T12:26:54Z</time>
      </trkpt>
      <trkpt lat="51.07926" lon="2.51285">
        <ele>3.1</ele>
        <time>2020-06-23T12:26:55Z</time>
      </trkpt>
      <trkpt lat="51.07926" lon="2.51287">
        <ele>3.1</ele>
        <time>2020-06-23T12:26:56Z</time>
      </trkpt>
      <trkpt lat="51.07926" lon="2.51288">
        <ele>3.1</ele>
        <time>2020-06-23T12:26:57Z</time>
      </trkpt>
      <trkpt lat="51.07926" lon="2.51288">
        <ele>3.1</ele>
        <time>2020-06-23T12:26:58Z</time>
      </trkpt>
      <trkpt lat="51.07926" lon="2.51288">
        <ele>3.1</ele>
        <time>2020-06-23T12:26:59Z</time>
      </trkpt>
      <trkpt lat="51.07925" lon="2.51287">
        <ele>3.1</ele>
        <time>2020-06-23T12:27:00Z</time>
      </trkpt>
      <trkpt lat="51.07925" lon="2.51288">
        <ele>3.1</ele>
        <time>2020-06-23T12:27:01Z</time>
      </trkpt>
      <trkpt lat="51.07925" lon="2.51288">
        <ele>3.1</ele>
        <time>2020-06-23T12:27:02Z</time>
      </trkpt>
      <trkpt lat="51.07925" lon="2.51288">
        <ele>3.1</ele>
        <time>2020-06-23T12:27:03Z</time>
      </trkpt>
      <trkpt lat="51.07924" lon="2.51288">
        <ele>3.1</ele>
        <time>2020-06-23T12:27:04Z</time>
      </trkpt>
      <trkpt lat="51.07924" lon="2.51288">
        <ele>3.1</ele>
        <time>2020-06-23T12:27:05Z</time>
      </trkpt>
      <trkpt lat="51.07924" lon="2.51288">
        <ele>3.1</ele>
        <time>2020-06-23T12:27:06Z</time>
      </trkpt>
      <trkpt lat="51.07924" lon="2.51288">
        <ele>3.1</ele>
        <time>2020-06-23T12:27:07Z</time>
      </trkpt>
      <trkpt lat="51.07924" lon="2.51288">
        <ele>3.1</ele>
        <time>2020-06-23T12:27:08Z</time>
      </trkpt>
      <trkpt lat="51.07918" lon="2.51278">
        <ele>3.1</ele>
        <time>2020-06-23T12:29:05Z</time>
      </trkpt>
      <trkpt lat="51.07919" lon="2.51277">
        <ele>3.1</ele>
        <time>2020-06-23T12:29:06Z</time>
      </trkpt>
      <trkpt lat="51.0792" lon="2.51277">
        <ele>3.1</ele>
        <time>2020-06-23T12:29:07Z</time>
      </trkpt>
      <trkpt lat="51.0792" lon="2.51277">
        <ele>3.1</ele>
        <time>2020-06-23T12:29:08Z</time>
      </trkpt>
      <trkpt lat="51.07921" lon="2.51276">
        <ele>3.1</ele>
        <time>2020-06-23T12:29:09Z</time>
      </trkpt>
      <trkpt lat="51.07921" lon="2.51276">
        <ele>3.1</ele>
        <time>2020-06-23T12:29:10Z</time>
      </trkpt>
      <trkpt lat="51.07921" lon="2.51276">
        <ele>3.1</ele>
        <time>2020-06-23T12:29:11Z</time>
      </trkpt>
      <trkpt lat="51.07921" lon="2.51276">
        <ele>3.1</ele>
        <time>2020-06-23T12:29:12Z</time>
      </trkpt>
      <trkpt lat="51.07921" lon="2.51276">
        <ele>3.1</ele>
        <time>2020-06-23T12:29:13Z</time>
      </trkpt>
      <trkpt lat="51.07921" lon="2.51277">
        <ele>3.1</ele>
        <time>2020-06-23T12:29:14Z</time>
      </trkpt>
      <trkpt lat="51.07921" lon="2.51276">
        <ele>3.1</ele>
        <time>2020-06-23T12:29:15Z</time>
      </trkpt>
      <trkpt lat="51.07921" lon="2.51276">
        <ele>3.1</ele>
        <time>2020-06-23T12:29:16Z</time>
      </trkpt>
      <trkpt lat="51.07921" lon="2.51276">
        <ele>3.1</ele>
        <time>2020-06-23T12:29:17Z</time>
      </trkpt>
      <trkpt lat="51.07921" lon="2.51276">
        <ele>3.1</ele>
        <time>2020-06-23T12:29:18Z</time>
      </trkpt>
      <trkpt lat="51.07921" lon="2.51276">
        <ele>3.1</ele>
        <time>2020-06-23T12:29:19Z</time>
      </trkpt>
      <trkpt lat="51.0792" lon="2.51277">
        <ele>3.1</ele>
        <time>2020-06-23T12:29:20Z</time>
      </trkpt>
      <trkpt lat="51.07921" lon="2.51277">
        <ele>3.1</ele>
        <time>2020-06-23T12:29:21Z</time>
      </trkpt>
      <trkpt lat="51.07921" lon="2.51278">
        <ele>3.1</ele>
        <time>2020-06-23T12:29:22Z</time>
      </trkpt>
      <trkpt lat="51.07921" lon="2.51278">
        <ele>3.1</ele>
        <time>2020-06-23T12:29:23Z</time>
      </trkpt>
      <trkpt lat="51.07921" lon="2.51278">
        <ele>3.1</ele>
        <time>2020-06-23T12:29:24Z</time>
      </trkpt>
      <trkpt lat="51.07922" lon="2.51279">
        <ele>3.1</ele>
        <time>2020-06-23T12:29:25Z</time>
      </trkpt>
      <trkpt lat="51.07919" lon="2.51279">
        <ele>3.1</ele>
        <time>2020-06-23T12:30:18Z</time>
      </trkpt>
      <trkpt lat="51.07918" lon="2.51279">
        <ele>3.1</ele>
        <time>2020-06-23T12:30:19Z</time>
      </trkpt>
      <trkpt lat="51.07918" lon="2.51279">
        <ele>3.1</ele>
        <time>2020-06-23T12:30:20Z</time>
      </trkpt>
      <trkpt lat="51.07918" lon="2.51279">
        <ele>3.1</ele>
        <time>2020-06-23T12:30:21Z</time>
      </trkpt>
      <trkpt lat="51.07917" lon="2.5128">
        <ele>3.1</ele>
        <time>2020-06-23T12:30:22Z</time>
      </trkpt>
      <trkpt lat="51.07918" lon="2.5128">
        <ele>3.1</ele>
        <time>2020-06-23T12:30:23Z</time>
      </trkpt>
      <trkpt lat="51.07918" lon="2.5128">
        <ele>3.1</ele>
        <time>2020-06-23T12:30:24Z</time>
      </trkpt>
      <trkpt lat="51.07918" lon="2.5128">
        <ele>3.1</ele>
        <time>2020-06-23T12:30:25Z</time>
      </trkpt>
      <trkpt lat="51.07918" lon="2.5128">
        <ele>3.1</ele>
        <time>2020-06-23T12:30:26Z</time>
      </trkpt>
      <trkpt lat="51.07918" lon="2.51281">
        <ele>3.1</ele>
        <time>2020-06-23T12:30:27Z</time>
      </trkpt>
      <trkpt lat="51.07919" lon="2.5128">
        <ele>3.1</ele>
        <time>2020-06-23T12:30:28Z</time>
      </trkpt>
      <trkpt lat="51.07919" lon="2.5128">
        <ele>3.1</ele>
        <time>2020-06-23T12:30:29Z</time>
      </trkpt>
      <trkpt lat="51.07919" lon="2.5128">
        <ele>3.1</ele>
        <time>2020-06-23T12:30:30Z</time>
      </trkpt>
      <trkpt lat="51.07919" lon="2.5128">
        <ele>3.1</ele>
        <time>2020-06-23T12:30:31Z</time>
      </trkpt>
      <trkpt lat="51.07918" lon="2.5128">
        <ele>3.1</ele>
        <time>2020-06-23T12:30:32Z</time>
      </trkpt>
      <trkpt lat="51.07918" lon="2.51275">
        <ele>3.1</ele>
        <time>2020-06-23T12:31:12Z</time>
      </trkpt>
      <trkpt lat="51.07917" lon="2.51274">
        <ele>3.1</ele>
        <time>2020-06-23T12:31:13Z</time>
      </trkpt>
      <trkpt lat="51.07917" lon="2.51274">
        <ele>3.1</ele>
        <time>2020-06-23T12:31:14Z</time>
      </trkpt>
      <trkpt lat="51.07917" lon="2.51274">
        <ele>3.1</ele>
        <time>2020-06-23T12:31:15Z</time>
      </trkpt>
      <trkpt lat="51.07917" lon="2.51274">
        <ele>3.1</ele>
        <time>2020-06-23T12:31:16Z</time>
      </trkpt>
      <trkpt lat="51.07917" lon="2.51275">
        <ele>3.1</ele>
        <time>2020-06-23T12:31:17Z</time>
      </trkpt>
      <trkpt lat="51.07917" lon="2.51275">
        <ele>3.1</ele>
        <time>2020-06-23T12:31:18Z</time>
      </trkpt>
      <trkpt lat="51.07916" lon="2.51275">
        <ele>3.1</ele>
        <time>2020-06-23T12:31:19Z</time>
      </trkpt>
      <trkpt lat="51.07915" lon="2.51276">
        <ele>3.1</ele>
        <time>2020-06-23T12:31:20Z</time>
      </trkpt>
      <trkpt lat="51.07914" lon="2.51276">
        <ele>3.1</ele>
        <time>2020-06-23T12:31:21Z</time>
      </trkpt>
      <trkpt lat="51.07914" lon="2.51276">
        <ele>3.1</ele>
        <time>2020-06-23T12:31:22Z</time>
      </trkpt>
      <trkpt lat="51.07913" lon="2.51276">
        <ele>3.1</ele>
        <time>2020-06-23T12:31:23Z</time>
      </trkpt>
      <trkpt lat="51.07913" lon="2.51276">
        <ele>3.1</ele>
        <time>2020-06-23T12:31:24Z</time>
      </trkpt>
      <trkpt lat="51.07913" lon="2.51276">
        <ele>3.1</ele>
        <time>2020-06-23T12:31:25Z</time>
      </trkpt>
      <trkpt lat="51.07912" lon="2.51276">
        <ele>3.1</ele>
        <time>2020-06-23T12:31:26Z</time>
      </trkpt>
      <trkpt lat="51.07913" lon="2.51277">
        <ele>3.1</ele>
        <time>2020-06-23T12:31:27Z</time>
      </trkpt>
      <trkpt lat="51.07912" lon="2.5128">
        <ele>3.1</ele>
        <time>2020-06-23T12:31:28Z</time>
      </trkpt>
      <trkpt lat="51.07913" lon="2.5128">
        <ele>3.1</ele>
        <time>2020-06-23T12:31:29Z</time>
      </trkpt>
      <trkpt lat="51.07913" lon="2.51281">
        <ele>3.1</ele>
        <time>2020-06-23T12:31:30Z</time>
      </trkpt>
      <trkpt lat="51.07913" lon="2.51283">
        <ele>3.1</ele>
        <time>2020-06-23T12:31:31Z</time>
      </trkpt>
      <trkpt lat="51.07913" lon="2.51284">
        <ele>3.1</ele>
        <time>2020-06-23T12:31:32Z</time>
      </trkpt>
      <trkpt lat="51.07913" lon="2.51286">
        <ele>3.1</ele>
        <time>2020-06-23T12:31:33Z</time>
      </trkpt>
      <trkpt lat="51.07914" lon="2.51287">
        <ele>3.1</ele>
        <time>2020-06-23T12:31:34Z</time>
      </trkpt>
      <trkpt lat="51.07914" lon="2.51288">
        <ele>3.1</ele>
        <time>2020-06-23T12:31:35Z</time>
      </trkpt>
      <trkpt lat="51.07914" lon="2.51288">
        <ele>3.1</ele>
        <time>2020-06-23T12:31:36Z</time>
      </trkpt>
      <trkpt lat="51.07913" lon="2.51289">
        <ele>3.1</ele>
        <time>2020-06-23T12:31:37Z</time>
      </trkpt>
      <trkpt lat="51.07913" lon="2.51289">
        <ele>3.1</ele>
        <time>2020-06-23T12:31:38Z</time>
      </trkpt>
      <trkpt lat="51.07913" lon="2.5129">
        <ele>3.1</ele>
        <time>2020-06-23T12:31:39Z</time>
      </trkpt>
      <trkpt lat="51.07914" lon="2.5129">
        <ele>3.1</ele>
        <time>2020-06-23T12:31:40Z</time>
      </trkpt>
      <trkpt lat="51.07914" lon="2.5129">
        <ele>3.1</ele>
        <time>2020-06-23T12:31:41Z</time>
      </trkpt>
      <trkpt lat="51.07915" lon="2.5129">
        <ele>3.1</ele>
        <time>2020-06-23T12:31:42Z</time>
      </trkpt>
      <trkpt lat="51.07916" lon="2.5129">
        <ele>3.1</ele>
        <time>2020-06-23T12:31:43Z</time>
      </trkpt>
      <trkpt lat="51.07916" lon="2.5129">
        <ele>3.1</ele>
        <time>2020-06-23T12:31:44Z</time>
      </trkpt>
      <trkpt lat="51.07916" lon="2.5129">
        <ele>3.1</ele>
        <time>2020-06-23T12:31:45Z</time>
      </trkpt>
      <trkpt lat="51.07913" lon="2.51287">
        <ele>3.1</ele>
        <time>2020-06-23T12:31:59Z</time>
      </trkpt>
      <trkpt lat="51.07913" lon="2.51287">
        <ele>3.1</ele>
        <time>2020-06-23T12:32:00Z</time>
      </trkpt>
      <trkpt lat="51.07913" lon="2.51287">
        <ele>3.1</ele>
        <time>2020-06-23T12:32:01Z</time>
      </trkpt>
      <trkpt lat="51.07913" lon="2.51287">
        <ele>3.1</ele>
        <time>2020-06-23T12:32:02Z</time>
      </trkpt>
      <trkpt lat="51.07912" lon="2.51287">
        <ele>3.1</ele>
        <time>2020-06-23T12:32:03Z</time>
      </trkpt>
      <trkpt lat="51.07912" lon="2.51288">
        <ele>3.1</ele>
        <time>2020-06-23T12:32:04Z</time>
      </trkpt>
      <trkpt lat="51.07911" lon="2.51288">
        <ele>3.1</ele>
        <time>2020-06-23T12:32:05Z</time>
      </trkpt>
      <trkpt lat="51.07911" lon="2.51288">
        <ele>3.1</ele>
        <time>2020-06-23T12:32:06Z</time>
      </trkpt>
      <trkpt lat="51.07911" lon="2.51287">
        <ele>3.1</ele>
        <time>2020-06-23T12:32:07Z</time>
      </trkpt>
      <trkpt lat="51.07911" lon="2.51288">
        <ele>3.1</ele>
        <time>2020-06-23T12:32:08Z</time>
      </trkpt>
      <trkpt lat="51.07911" lon="2.51288">
        <ele>3.1</ele>
        <time>2020-06-23T12:32:09Z</time>
      </trkpt>
      <trkpt lat="51.07912" lon="2.51287">
        <ele>3.1</ele>
        <time>2020-06-23T12:32:10Z</time>
      </trkpt>
      <trkpt lat="51.07911" lon="2.51287">
        <ele>3.1</ele>
        <time>2020-06-23T12:32:11Z</time>
      </trkpt>
      <trkpt lat="51.07912" lon="2.51287">
        <ele>3.1</ele>
        <time>2020-06-23T12:32:12Z</time>
      </trkpt>
      <trkpt lat="51.07914" lon="2.51287">
        <ele>3.1</ele>
        <time>2020-06-23T12:32:13Z</time>
      </trkpt>
      <trkpt lat="51.07914" lon="2.51286">
        <ele>3.1</ele>
        <time>2020-06-23T12:32:14Z</time>
      </trkpt>
      <trkpt lat="51.07914" lon="2.51286">
        <ele>3.1</ele>
        <time>2020-06-23T12:32:15Z</time>
      </trkpt>
      <trkpt lat="51.07914" lon="2.51286">
        <ele>3.1</ele>
        <time>2020-06-23T12:32:16Z</time>
      </trkpt>
      <trkpt lat="51.07914" lon="2.51286">
        <ele>3.1</ele>
        <time>2020-06-23T12:32:17Z</time>
      </trkpt>
      <trkpt lat="51.07913" lon="2.51286">
        <ele>3.1</ele>
        <time>2020-06-23T12:32:18Z</time>
      </trkpt>
      <trkpt lat="51.07913" lon="2.51286">
        <ele>3.1</ele>
        <time>2020-06-23T12:32:19Z</time>
      </trkpt>
      <trkpt lat="51.07912" lon="2.51285">
        <ele>3.1</ele>
        <time>2020-06-23T12:32:20Z</time>
      </trkpt>
      <trkpt lat="51.07911" lon="2.51286">
        <ele>3.1</ele>
        <time>2020-06-23T12:32:21Z</time>
      </trkpt>
      <trkpt lat="51.07912" lon="2.51286">
        <ele>3.1</ele>
        <time>2020-06-23T12:32:22Z</time>
      </trkpt>
      <trkpt lat="51.07912" lon="2.51286">
        <ele>3.1</ele>
        <time>2020-06-23T12:32:23Z</time>
      </trkpt>
      <trkpt lat="51.07912" lon="2.51286">
        <ele>3.1</ele>
        <time>2020-06-23T12:32:24Z</time>
      </trkpt>
      <trkpt lat="51.07912" lon="2.51286">
        <ele>3.1</ele>
        <time>2020-06-23T12:32:25Z</time>
      </trkpt>
      <trkpt lat="51.07912" lon="2.51286">
        <ele>3.1</ele>
        <time>2020-06-23T12:32:26Z</time>
      </trkpt>
      <trkpt lat="51.07912" lon="2.51286">
        <ele>3.1</ele>
        <time>2020-06-23T12:32:27Z</time>
      </trkpt>
      <trkpt lat="51.07912" lon="2.51286">
        <ele>3.1</ele>
        <time>2020-06-23T12:32:28Z</time>
      </trkpt>
      <trkpt lat="51.07912" lon="2.51286">
        <ele>3.1</ele>
        <time>2020-06-23T12:32:29Z</time>
      </trkpt>
      <trkpt lat="51.07912" lon="2.51286">
        <ele>3.1</ele>
        <time>2020-06-23T12:32:30Z</time>
      </trkpt>
      <trkpt lat="51.07912" lon="2.51286">
        <ele>3.1</ele>
        <time>2020-06-23T12:32:31Z</time>
      </trkpt>
      <trkpt lat="51.07912" lon="2.51286">
        <ele>3.1</ele>
        <time>2020-06-23T12:32:32Z</time>
      </trkpt>
      <trkpt lat="51.07917" lon="2.51281">
        <ele>3.1</ele>
        <time>2020-06-23T12:33:02Z</time>
      </trkpt>
      <trkpt lat="51.07918" lon="2.51283">
        <ele>3.1</ele>
        <time>2020-06-23T12:33:03Z</time>
      </trkpt>
      <trkpt lat="51.07918" lon="2.51283">
        <ele>3.1</ele>
        <time>2020-06-23T12:33:04Z</time>
      </trkpt>
      <trkpt lat="51.07918" lon="2.51283">
        <ele>3.1</ele>
        <time>2020-06-23T12:33:05Z</time>
      </trkpt>
      <trkpt lat="51.07918" lon="2.51283">
        <ele>3.1</ele>
        <time>2020-06-23T12:33:06Z</time>
      </trkpt>
      <trkpt lat="51.07918" lon="2.51282">
        <ele>3.1</ele>
        <time>2020-06-23T12:33:07Z</time>
      </trkpt>
      <trkpt lat="51.07918" lon="2.51281">
        <ele>3.1</ele>
        <time>2020-06-23T12:33:08Z</time>
      </trkpt>
      <trkpt lat="51.07917" lon="2.5128">
        <ele>3.1</ele>
        <time>2020-06-23T12:33:09Z</time>
      </trkpt>
      <trkpt lat="51.07917" lon="2.5128">
        <ele>3.1</ele>
        <time>2020-06-23T12:33:10Z</time>
      </trkpt>
      <trkpt lat="51.07917" lon="2.5128">
        <ele>3.1</ele>
        <time>2020-06-23T12:33:11Z</time>
      </trkpt>
      <trkpt lat="51.07917" lon="2.51281">
        <ele>3.1</ele>
        <time>2020-06-23T12:33:12Z</time>
      </trkpt>
      <trkpt lat="51.07917" lon="2.5128">
        <ele>3.1</ele>
        <time>2020-06-23T12:33:13Z</time>
      </trkpt>
      <trkpt lat="51.07917" lon="2.51281">
        <ele>3.1</ele>
        <time>2020-06-23T12:33:14Z</time>
      </trkpt>
      <trkpt lat="51.07917" lon="2.51281">
        <ele>3.1</ele>
        <time>2020-06-23T12:33:15Z</time>
      </trkpt>
      <trkpt lat="51.07928" lon="2.51279">
        <ele>3.1</ele>
        <time>2020-06-23T12:33:56Z</time>
      </trkpt>
      <trkpt lat="51.07928" lon="2.51279">
        <ele>3.1</ele>
        <time>2020-06-23T12:33:57Z</time>
      </trkpt>
      <trkpt lat="51.07927" lon="2.51279">
        <ele>3.1</ele>
        <time>2020-06-23T12:33:58Z</time>
      </trkpt>
      <trkpt lat="51.07927" lon="2.5128">
        <ele>3.1</ele>
        <time>2020-06-23T12:33:59Z</time>
      </trkpt>
      <trkpt lat="51.07927" lon="2.5128">
        <ele>3.1</ele>
        <time>2020-06-23T12:34:00Z</time>
      </trkpt>
      <trkpt lat="51.07927" lon="2.51279">
        <ele>3.1</ele>
        <time>2020-06-23T12:34:01Z</time>
      </trkpt>
      <trkpt lat="51.07928" lon="2.51279">
        <ele>3.1</ele>
        <time>2020-06-23T12:34:02Z</time>
      </trkpt>
      <trkpt lat="51.07928" lon="2.5128">
        <ele>3.1</ele>
        <time>2020-06-23T12:34:03Z</time>
      </trkpt>
      <trkpt lat="51.07928" lon="2.5128">
        <ele>3.1</ele>
        <time>2020-06-23T12:34:04Z</time>
      </trkpt>
      <trkpt lat="51.07928" lon="2.5128">
        <ele>3.1</ele>
        <time>2020-06-23T12:34:05Z</time>
      </trkpt>
      <trkpt lat="51.07928" lon="2.5128">
        <ele>3.1</ele>
        <time>2020-06-23T12:34:06Z</time>
      </trkpt>
      <trkpt lat="51.07928" lon="2.5128">
        <ele>3.1</ele>
        <time>2020-06-23T12:34:07Z</time>
      </trkpt>
      <trkpt lat="51.07928" lon="2.5128">
        <ele>3.1</ele>
        <time>2020-06-23T12:34:08Z</time>
      </trkpt>
      <trkpt lat="51.07922" lon="2.51276">
        <ele>3.1</ele>
        <time>2020-06-23T12:39:12Z</time>
      </trkpt>
      <trkpt lat="51.07923" lon="2.51275">
        <ele>3.1</ele>
        <time>2020-06-23T12:39:13Z</time>
      </trkpt>
      <trkpt lat="51.07923" lon="2.51275">
        <ele>3.1</ele>
        <time>2020-06-23T12:39:14Z</time>
      </trkpt>
      <trkpt lat="51.07923" lon="2.51275">
        <ele>3.1</ele>
        <time>2020-06-23T12:39:15Z</time>
      </trkpt>
      <trkpt lat="51.07924" lon="2.51275">
        <ele>3.1</ele>
        <time>2020-06-23T12:39:16Z</time>
      </trkpt>
      <trkpt lat="51.07924" lon="2.51275">
        <ele>3.1</ele>
        <time>2020-06-23T12:39:17Z</time>
      </trkpt>
      <trkpt lat="51.07925" lon="2.51275">
        <ele>3.1</ele>
        <time>2020-06-23T12:39:18Z</time>
      </trkpt>
      <trkpt lat="51.07925" lon="2.51275">
        <ele>3.1</ele>
        <time>2020-06-23T12:39:19Z</time>
      </trkpt>
      <trkpt lat="51.07925" lon="2.51275">
        <ele>3.1</ele>
        <time>2020-06-23T12:39:20Z</time>
      </trkpt>
      <trkpt lat="51.07925" lon="2.51275">
        <ele>3.1</ele>
        <time>2020-06-23T12:39:21Z</time>
      </trkpt>
      <trkpt lat="51.07925" lon="2.51275">
        <ele>3.1</ele>
        <time>2020-06-23T12:39:22Z</time>
      </trkpt>
      <trkpt lat="51.07925" lon="2.51275">
        <ele>3.1</ele>
        <time>2020-06-23T12:39:23Z</time>
      </trkpt>
      <trkpt lat="51.07925" lon="2.51275">
        <ele>3.1</ele>
        <time>2020-06-23T12:39:24Z</time>
      </trkpt>
      <trkpt lat="51.07925" lon="2.51275">
        <ele>3.1</ele>
        <time>2020-06-23T12:39:25Z</time>
      </trkpt>
      <trkpt lat="51.07925" lon="2.51275">
        <ele>3.1</ele>
        <time>2020-06-23T12:39:26Z</time>
      </trkpt>
      <trkpt lat="51.07925" lon="2.51275">
        <ele>3.1</ele>
        <time>2020-06-23T12:39:27Z</time>
      </trkpt>
      <trkpt lat="51.07925" lon="2.51275">
        <ele>3.1</ele>
        <time>2020-06-23T12:39:28Z</time>
      </trkpt>
      <trkpt lat="51.07924" lon="2.51275">
        <ele>3.1</ele>
        <time>2020-06-23T12:39:29Z</time>
      </trkpt>
      <trkpt lat="51.05758" lon="2.52442">
        <ele>1.8</ele>
        <time>2020-06-23T13:07:56Z</time>
      </trkpt>
      <trkpt lat="51.0575" lon="2.52443">
        <ele>1.8</ele>
        <time>2020-06-23T13:07:57Z</time>
      </trkpt>
      <trkpt lat="51.05747" lon="2.52444">
        <ele>1.8</ele>
        <time>2020-06-23T13:07:58Z</time>
      </trkpt>
      <trkpt lat="51.05742" lon="2.52444">
        <ele>1.9</ele>
        <time>2020-06-23T13:07:59Z</time>
      </trkpt>
      <trkpt lat="51.05737" lon="2.52445">
        <ele>1.9</ele>
        <time>2020-06-23T13:08:00Z</time>
      </trkpt>
      <trkpt lat="51.05732" lon="2.52445">
        <ele>1.9</ele>
        <time>2020-06-23T13:08:01Z</time>
      </trkpt>
      <trkpt lat="51.05727" lon="2.52445">
        <ele>1.9</ele>
        <time>2020-06-23T13:08:02Z</time>
      </trkpt>
      <trkpt lat="51.05723" lon="2.52446">
        <ele>1.9</ele>
        <time>2020-06-23T13:08:03Z</time>
      </trkpt>
      <trkpt lat="51.05719" lon="2.52446">
        <ele>2</ele>
        <time>2020-06-23T13:08:04Z</time>
      </trkpt>
      <trkpt lat="51.05715" lon="2.52445">
        <ele>2</ele>
        <time>2020-06-23T13:08:05Z</time>
      </trkpt>
      <trkpt lat="51.05711" lon="2.52445">
        <ele>2</ele>
        <time>2020-06-23T13:08:06Z</time>
      </trkpt>
      <trkpt lat="51.05706" lon="2.52445">
        <ele>2</ele>
        <time>2020-06-23T13:08:07Z</time>
      </trkpt>
      <trkpt lat="51.057" lon="2.52445">
        <ele>2.1</ele>
        <time>2020-06-23T13:08:08Z</time>
      </trkpt>
      <trkpt lat="51.05696" lon="2.52447">
        <ele>2.1</ele>
        <time>2020-06-23T13:08:09Z</time>
      </trkpt>
      <trkpt lat="51.05692" lon="2.52448">
        <ele>2.1</ele>
        <time>2020-06-23T13:08:10Z</time>
      </trkpt>
      <trkpt lat="51.05687" lon="2.52448">
        <ele>2.1</ele>
        <time>2020-06-23T13:08:11Z</time>
      </trkpt>
      <trkpt lat="51.05683" lon="2.52448">
        <ele>2.1</ele>
        <time>2020-06-23T13:08:12Z</time>
      </trkpt>
      <trkpt lat="51.05679" lon="2.52449">
        <ele>2.2</ele>
        <time>2020-06-23T13:08:13Z</time>
      </trkpt>
      <trkpt lat="51.05674" lon="2.52449">
        <ele>2.2</ele>
        <time>2020-06-23T13:08:14Z</time>
      </trkpt>
      <trkpt lat="51.05669" lon="2.52448">
        <ele>2.2</ele>
        <time>2020-06-23T13:08:15Z</time>
      </trkpt>
      <trkpt lat="51.05665" lon="2.52448">
        <ele>2.3</ele>
        <time>2020-06-23T13:08:16Z</time>
      </trkpt>
      <trkpt lat="51.05659" lon="2.52448">
        <ele>2.3</ele>
        <time>2020-06-23T13:08:17Z</time>
      </trkpt>
      <trkpt lat="51.05654" lon="2.52448">
        <ele>2.3</ele>
        <time>2020-06-23T13:08:18Z</time>
      </trkpt>
      <trkpt lat="51.05649" lon="2.52449">
        <ele>2.4</ele>
        <time>2020-06-23T13:08:19Z</time>
      </trkpt>
      <trkpt lat="51.05645" lon="2.52449">
        <ele>2.4</ele>
        <time>2020-06-23T13:08:20Z</time>
      </trkpt>
      <trkpt lat="51.0564" lon="2.5245">
        <ele>2.4</ele>
        <time>2020-06-23T13:08:21Z</time>
      </trkpt>
      <trkpt lat="51.05635" lon="2.52451">
        <ele>2.5</ele>
        <time>2020-06-23T13:08:22Z</time>
      </trkpt>
      <trkpt lat="51.05631" lon="2.52452">
        <ele>2.5</ele>
        <time>2020-06-23T13:08:23Z</time>
      </trkpt>
      <trkpt lat="51.05626" lon="2.52453">
        <ele>2.6</ele>
        <time>2020-06-23T13:08:24Z</time>
      </trkpt>
      <trkpt lat="51.0562" lon="2.52453">
        <ele>2.6</ele>
        <time>2020-06-23T13:08:25Z</time>
      </trkpt>
      <trkpt lat="51.05614" lon="2.52453">
        <ele>2.7</ele>
        <time>2020-06-23T13:08:26Z</time>
      </trkpt>
      <trkpt lat="51.05608" lon="2.52453">
        <ele>2.7</ele>
        <time>2020-06-23T13:08:27Z</time>
      </trkpt>
      <trkpt lat="51.05603" lon="2.52453">
        <ele>2.7</ele>
        <time>2020-06-23T13:08:28Z</time>
      </trkpt>
      <trkpt lat="51.05597" lon="2.52452">
        <ele>2.8</ele>
        <time>2020-06-23T13:08:29Z</time>
      </trkpt>
      <trkpt lat="51.05591" lon="2.52452">
        <ele>2.8</ele>
        <time>2020-06-23T13:08:30Z</time>
      </trkpt>
      <trkpt lat="51.05585" lon="2.52451">
        <ele>2.8</ele>
        <time>2020-06-23T13:08:31Z</time>
      </trkpt>
      <trkpt lat="51.0558" lon="2.5245">
        <ele>2.9</ele>
        <time>2020-06-23T13:08:32Z</time>
      </trkpt>
      <trkpt lat="51.05574" lon="2.52449">
        <ele>2.9</ele>
        <time>2020-06-23T13:08:33Z</time>
      </trkpt>
      <trkpt lat="51.05569" lon="2.52449">
        <ele>3</ele>
        <time>2020-06-23T13:08:34Z</time>
      </trkpt>
      <trkpt lat="51.05564" lon="2.52449">
        <ele>3</ele>
        <time>2020-06-23T13:08:35Z</time>
      </trkpt>
      <trkpt lat="51.0556" lon="2.5245">
        <ele>3</ele>
        <time>2020-06-23T13:08:36Z</time>
      </trkpt>
      <trkpt lat="51.05555" lon="2.52449">
        <ele>3</ele>
        <time>2020-06-23T13:08:37Z</time>
      </trkpt>
      <trkpt lat="51.0555" lon="2.52449">
        <ele>3</ele>
        <time>2020-06-23T13:08:38Z</time>
      </trkpt>
      <trkpt lat="51.05545" lon="2.52448">
        <ele>3</ele>
        <time>2020-06-23T13:08:39Z</time>
      </trkpt>
      <trkpt lat="51.0554" lon="2.52448">
        <ele>3</ele>
        <time>2020-06-23T13:08:40Z</time>
      </trkpt>
      <trkpt lat="51.05534" lon="2.52447">
        <ele>3</ele>
        <time>2020-06-23T13:08:41Z</time>
      </trkpt>
      <trkpt lat="51.05528" lon="2.52447">
        <ele>3</ele>
        <time>2020-06-23T13:08:42Z</time>
      </trkpt>
      <trkpt lat="51.05523" lon="2.52447">
        <ele>3</ele>
        <time>2020-06-23T13:08:43Z</time>
      </trkpt>
      <trkpt lat="51.05519" lon="2.52447">
        <ele>3.1</ele>
        <time>2020-06-23T13:08:44Z</time>
      </trkpt>
      <trkpt lat="51.05514" lon="2.52445">
        <ele>3.1</ele>
        <time>2020-06-23T13:08:45Z</time>
      </trkpt>
      <trkpt lat="51.05508" lon="2.52445">
        <ele>3.2</ele>
        <time>2020-06-23T13:08:46Z</time>
      </trkpt>
      <trkpt lat="51.05503" lon="2.52445">
        <ele>3.3</ele>
        <time>2020-06-23T13:08:47Z</time>
      </trkpt>
      <trkpt lat="51.05499" lon="2.52445">
        <ele>3.3</ele>
        <time>2020-06-23T13:08:48Z</time>
      </trkpt>
      <trkpt lat="51.05494" lon="2.52444">
        <ele>3.4</ele>
        <time>2020-06-23T13:08:49Z</time>
      </trkpt>
      <trkpt lat="51.05489" lon="2.52446">
        <ele>3.4</ele>
        <time>2020-06-23T13:08:50Z</time>
      </trkpt>
      <trkpt lat="51.05484" lon="2.52446">
        <ele>3.5</ele>
        <time>2020-06-23T13:08:51Z</time>
      </trkpt>
      <trkpt lat="51.05479" lon="2.52447">
        <ele>3.6</ele>
        <time>2020-06-23T13:08:52Z</time>
      </trkpt>
      <trkpt lat="51.05474" lon="2.52447">
        <ele>3.7</ele>
        <time>2020-06-23T13:08:53Z</time>
      </trkpt>
      <trkpt lat="51.05469" lon="2.52447">
        <ele>3.7</ele>
        <time>2020-06-23T13:08:54Z</time>
      </trkpt>
      <trkpt lat="51.05463" lon="2.52447">
        <ele>3.7</ele>
        <time>2020-06-23T13:08:55Z</time>
      </trkpt>
      <trkpt lat="51.05458" lon="2.52447">
        <ele>3.5</ele>
        <time>2020-06-23T13:08:56Z</time>
      </trkpt>
      <trkpt lat="51.05452" lon="2.52447">
        <ele>3.4</ele>
        <time>2020-06-23T13:08:57Z</time>
      </trkpt>
      <trkpt lat="51.05446" lon="2.52448">
        <ele>3.3</ele>
        <time>2020-06-23T13:08:58Z</time>
      </trkpt>
      <trkpt lat="51.0544" lon="2.52448">
        <ele>3.1</ele>
        <time>2020-06-23T13:08:59Z</time>
      </trkpt>
      <trkpt lat="51.05435" lon="2.52449">
        <ele>3</ele>
        <time>2020-06-23T13:09:00Z</time>
      </trkpt>
      <trkpt lat="51.0543" lon="2.52449">
        <ele>2.9</ele>
        <time>2020-06-23T13:09:01Z</time>
      </trkpt>
      <trkpt lat="51.05424" lon="2.5245">
        <ele>2.8</ele>
        <time>2020-06-23T13:09:02Z</time>
      </trkpt>
      <trkpt lat="51.05418" lon="2.52451">
        <ele>2.7</ele>
        <time>2020-06-23T13:09:03Z</time>
      </trkpt>
      <trkpt lat="51.05412" lon="2.52451">
        <ele>2.6</ele>
        <time>2020-06-23T13:09:04Z</time>
      </trkpt>
      <trkpt lat="51.05406" lon="2.52451">
        <ele>2.5</ele>
        <time>2020-06-23T13:09:05Z</time>
      </trkpt>
      <trkpt lat="51.05401" lon="2.52452">
        <ele>2.4</ele>
        <time>2020-06-23T13:09:06Z</time>
      </trkpt>
      <trkpt lat="51.05395" lon="2.52451">
        <ele>2.4</ele>
        <time>2020-06-23T13:09:07Z</time>
      </trkpt>
      <trkpt lat="51.05388" lon="2.5245">
        <ele>2.4</ele>
        <time>2020-06-23T13:09:08Z</time>
      </trkpt>
      <trkpt lat="51.05383" lon="2.5245">
        <ele>2.4</ele>
        <time>2020-06-23T13:09:09Z</time>
      </trkpt>
      <trkpt lat="51.05377" lon="2.5245">
        <ele>2.4</ele>
        <time>2020-06-23T13:09:10Z</time>
      </trkpt>
      <trkpt lat="51.05371" lon="2.5245">
        <ele>2.3</ele>
        <time>2020-06-23T13:09:11Z</time>
      </trkpt>
      <trkpt lat="51.05364" lon="2.52451">
        <ele>2.3</ele>
        <time>2020-06-23T13:09:12Z</time>
      </trkpt>
      <trkpt lat="51.05358" lon="2.52451">
        <ele>2.3</ele>
        <time>2020-06-23T13:09:13Z</time>
      </trkpt>
      <trkpt lat="51.05353" lon="2.52453">
        <ele>2.3</ele>
        <time>2020-06-23T13:09:14Z</time>
      </trkpt>
      <trkpt lat="51.05347" lon="2.52454">
        <ele>2.3</ele>
        <time>2020-06-23T13:09:15Z</time>
      </trkpt>
      <trkpt lat="51.05342" lon="2.52457">
        <ele>2.3</ele>
        <time>2020-06-23T13:09:16Z</time>
      </trkpt>
      <trkpt lat="51.05337" lon="2.52461">
        <ele>2.2</ele>
        <time>2020-06-23T13:09:17Z</time>
      </trkpt>
      <trkpt lat="51.05331" lon="2.52465">
        <ele>2.2</ele>
        <time>2020-06-23T13:09:18Z</time>
      </trkpt>
      <trkpt lat="51.05326" lon="2.5247">
        <ele>2.2</ele>
        <time>2020-06-23T13:09:19Z</time>
      </trkpt>
      <trkpt lat="51.05322" lon="2.52477">
        <ele>2.2</ele>
        <time>2020-06-23T13:09:20Z</time>
      </trkpt>
      <trkpt lat="51.05317" lon="2.52482">
        <ele>2.1</ele>
        <time>2020-06-23T13:09:21Z</time>
      </trkpt>
      <trkpt lat="51.05312" lon="2.52489">
        <ele>2</ele>
        <time>2020-06-23T13:09:22Z</time>
      </trkpt>
      <trkpt lat="51.05307" lon="2.52497">
        <ele>2</ele>
        <time>2020-06-23T13:09:23Z</time>
      </trkpt>
      <trkpt lat="51.05302" lon="2.52503">
        <ele>1.9</ele>
        <time>2020-06-23T13:09:24Z</time>
      </trkpt>
      <trkpt lat="51.05297" lon="2.52509">
        <ele>1.9</ele>
        <time>2020-06-23T13:09:25Z</time>
      </trkpt>
      <trkpt lat="51.05292" lon="2.52515">
        <ele>1.9</ele>
        <time>2020-06-23T13:09:26Z</time>
      </trkpt>
      <trkpt lat="51.05287" lon="2.52522">
        <ele>1.9</ele>
        <time>2020-06-23T13:09:27Z</time>
      </trkpt>
      <trkpt lat="51.05283" lon="2.52529">
        <ele>2</ele>
        <time>2020-06-23T13:09:28Z</time>
      </trkpt>
      <trkpt lat="51.05278" lon="2.52536">
        <ele>2</ele>
        <time>2020-06-23T13:09:29Z</time>
      </trkpt>
      <trkpt lat="51.05274" lon="2.52541">
        <ele>2</ele>
        <time>2020-06-23T13:09:30Z</time>
      </trkpt>
      <trkpt lat="51.0527" lon="2.52546">
        <ele>2.1</ele>
        <time>2020-06-23T13:09:31Z</time>
      </trkpt>
      <trkpt lat="51.05266" lon="2.5255">
        <ele>2.2</ele>
        <time>2020-06-23T13:09:32Z</time>
      </trkpt>
      <trkpt lat="51.05262" lon="2.52554">
        <ele>2.2</ele>
        <time>2020-06-23T13:09:33Z</time>
      </trkpt>
      <trkpt lat="51.05258" lon="2.5256">
        <ele>2.3</ele>
        <time>2020-06-23T13:09:34Z</time>
      </trkpt>
      <trkpt lat="51.05255" lon="2.52565">
        <ele>2.4</ele>
        <time>2020-06-23T13:09:35Z</time>
      </trkpt>
      <trkpt lat="51.05251" lon="2.52569">
        <ele>2.4</ele>
        <time>2020-06-23T13:09:36Z</time>
      </trkpt>
      <trkpt lat="51.05249" lon="2.52574">
        <ele>2.3</ele>
        <time>2020-06-23T13:09:37Z</time>
      </trkpt>
      <trkpt lat="51.05246" lon="2.52578">
        <ele>2.3</ele>
        <time>2020-06-23T13:09:38Z</time>
      </trkpt>
      <trkpt lat="51.05243" lon="2.52583">
        <ele>2.3</ele>
        <time>2020-06-23T13:09:39Z</time>
      </trkpt>
      <trkpt lat="51.05241" lon="2.52589">
        <ele>2.2</ele>
        <time>2020-06-23T13:09:40Z</time>
      </trkpt>
      <trkpt lat="51.05237" lon="2.52594">
        <ele>2.2</ele>
        <time>2020-06-23T13:09:41Z</time>
      </trkpt>
      <trkpt lat="51.05234" lon="2.52599">
        <ele>2.1</ele>
        <time>2020-06-23T13:09:42Z</time>
      </trkpt>
      <trkpt lat="51.0523" lon="2.52604">
        <ele>2.2</ele>
        <time>2020-06-23T13:09:43Z</time>
      </trkpt>
      <trkpt lat="51.05227" lon="2.52609">
        <ele>2.2</ele>
        <time>2020-06-23T13:09:44Z</time>
      </trkpt>
      <trkpt lat="51.05224" lon="2.52613">
        <ele>2.2</ele>
        <time>2020-06-23T13:09:45Z</time>
      </trkpt>
      <trkpt lat="51.05221" lon="2.52618">
        <ele>2.2</ele>
        <time>2020-06-23T13:09:46Z</time>
      </trkpt>
      <trkpt lat="51.05219" lon="2.52622">
        <ele>2.2</ele>
        <time>2020-06-23T13:09:47Z</time>
      </trkpt>
      <trkpt lat="51.05217" lon="2.52626">
        <ele>2.3</ele>
        <time>2020-06-23T13:09:48Z</time>
      </trkpt>
      <trkpt lat="51.05214" lon="2.52629">
        <ele>2.3</ele>
        <time>2020-06-23T13:09:49Z</time>
      </trkpt>
      <trkpt lat="51.05211" lon="2.52632">
        <ele>2.3</ele>
        <time>2020-06-23T13:09:50Z</time>
      </trkpt>
      <trkpt lat="51.05208" lon="2.52634">
        <ele>2.3</ele>
        <time>2020-06-23T13:09:51Z</time>
      </trkpt>
      <trkpt lat="51.05205" lon="2.52635">
        <ele>2.4</ele>
        <time>2020-06-23T13:09:52Z</time>
      </trkpt>
      <trkpt lat="51.05202" lon="2.52638">
        <ele>2.4</ele>
        <time>2020-06-23T13:09:53Z</time>
      </trkpt>
      <trkpt lat="51.052" lon="2.52641">
        <ele>2.4</ele>
        <time>2020-06-23T13:09:54Z</time>
      </trkpt>
      <trkpt lat="51.05198" lon="2.52644">
        <ele>2.5</ele>
        <time>2020-06-23T13:09:55Z</time>
      </trkpt>
      <trkpt lat="51.05195" lon="2.52648">
        <ele>2.5</ele>
        <time>2020-06-23T13:09:56Z</time>
      </trkpt>
      <trkpt lat="51.05192" lon="2.52651">
        <ele>2.6</ele>
        <time>2020-06-23T13:09:57Z</time>
      </trkpt>
      <trkpt lat="51.0519" lon="2.52652">
        <ele>2.6</ele>
        <time>2020-06-23T13:09:58Z</time>
      </trkpt>
      <trkpt lat="51.05187" lon="2.52654">
        <ele>2.6</ele>
        <time>2020-06-23T13:09:59Z</time>
      </trkpt>
      <trkpt lat="51.05184" lon="2.52654">
        <ele>2.7</ele>
        <time>2020-06-23T13:10:00Z</time>
      </trkpt>
      <trkpt lat="51.05183" lon="2.52654">
        <ele>2.7</ele>
        <time>2020-06-23T13:10:01Z</time>
      </trkpt>
      <trkpt lat="51.0518" lon="2.52653">
        <ele>2.7</ele>
        <time>2020-06-23T13:10:02Z</time>
      </trkpt>
      <trkpt lat="51.05178" lon="2.52654">
        <ele>2.8</ele>
        <time>2020-06-23T13:10:03Z</time>
      </trkpt>
      <trkpt lat="51.05178" lon="2.52656">
        <ele>2.8</ele>
        <time>2020-06-23T13:10:04Z</time>
      </trkpt>
      <trkpt lat="51.05179" lon="2.52656">
        <ele>2.8</ele>
        <time>2020-06-23T13:10:05Z</time>
      </trkpt>
      <trkpt lat="51.05178" lon="2.52654">
        <ele>2.8</ele>
        <time>2020-06-23T13:10:06Z</time>
      </trkpt>
      <trkpt lat="51.05178" lon="2.52654">
        <ele>2.8</ele>
        <time>2020-06-23T13:10:07Z</time>
      </trkpt>
      <trkpt lat="51.05177" lon="2.52653">
        <ele>2.8</ele>
        <time>2020-06-23T13:10:08Z</time>
      </trkpt>
      <trkpt lat="51.05177" lon="2.52654">
        <ele>2.8</ele>
        <time>2020-06-23T13:10:09Z</time>
      </trkpt>
      <trkpt lat="51.05178" lon="2.52652">
        <ele>2.9</ele>
        <time>2020-06-23T13:10:10Z</time>
      </trkpt>
      <trkpt lat="51.05179" lon="2.5265">
        <ele>2.9</ele>
        <time>2020-06-23T13:10:11Z</time>
      </trkpt>
      <trkpt lat="51.0518" lon="2.52647">
        <ele>2.9</ele>
        <time>2020-06-23T13:10:12Z</time>
      </trkpt>
      <trkpt lat="51.05181" lon="2.52645">
        <ele>2.8</ele>
        <time>2020-06-23T13:10:13Z</time>
      </trkpt>
      <trkpt lat="51.05182" lon="2.52642">
        <ele>2.8</ele>
        <time>2020-06-23T13:10:48Z</time>
      </trkpt>
      <trkpt lat="51.05183" lon="2.5264">
        <ele>2.7</ele>
        <time>2020-06-23T13:10:49Z</time>
      </trkpt>
      <trkpt lat="51.05184" lon="2.52637">
        <ele>2.7</ele>
        <time>2020-06-23T13:10:50Z</time>
      </trkpt>
      <trkpt lat="51.05187" lon="2.52632">
        <ele>2.6</ele>
        <time>2020-06-23T13:10:51Z</time>
      </trkpt>
      <trkpt lat="51.05188" lon="2.52631">
        <ele>2.5</ele>
        <time>2020-06-23T13:10:52Z</time>
      </trkpt>
      <trkpt lat="51.05188" lon="2.52626">
        <ele>2.5</ele>
        <time>2020-06-23T13:10:53Z</time>
      </trkpt>
      <trkpt lat="51.05189" lon="2.52621">
        <ele>2.4</ele>
        <time>2020-06-23T13:10:54Z</time>
      </trkpt>
      <trkpt lat="51.05189" lon="2.5262">
        <ele>2.3</ele>
        <time>2020-06-23T13:10:55Z</time>
      </trkpt>
      <trkpt lat="51.0519" lon="2.52614">
        <ele>2.3</ele>
        <time>2020-06-23T13:10:56Z</time>
      </trkpt>
      <trkpt lat="51.0519" lon="2.52613">
        <ele>2.2</ele>
        <time>2020-06-23T13:10:57Z</time>
      </trkpt>
      <trkpt lat="51.05192" lon="2.52607">
        <ele>2.2</ele>
        <time>2020-06-23T13:10:58Z</time>
      </trkpt>
      <trkpt lat="51.05192" lon="2.52605">
        <ele>2.1</ele>
        <time>2020-06-23T13:10:59Z</time>
      </trkpt>
      <trkpt lat="51.05192" lon="2.52603">
        <ele>2.1</ele>
        <time>2020-06-23T13:11:00Z</time>
      </trkpt>
      <trkpt lat="51.05192" lon="2.52603">
        <ele>2.1</ele>
        <time>2020-06-23T13:11:01Z</time>
      </trkpt>
      <trkpt lat="51.05191" lon="2.52603">
        <ele>2.1</ele>
        <time>2020-06-23T13:11:02Z</time>
      </trkpt>
      <trkpt lat="51.05191" lon="2.52603">
        <ele>2.1</ele>
        <time>2020-06-23T13:11:03Z</time>
      </trkpt>
      <trkpt lat="51.05191" lon="2.52602">
        <ele>2</ele>
        <time>2020-06-23T13:11:04Z</time>
      </trkpt>
      <trkpt lat="51.05191" lon="2.52602">
        <ele>2</ele>
        <time>2020-06-23T13:11:05Z</time>
      </trkpt>
      <trkpt lat="51.05191" lon="2.52602">
        <ele>2</ele>
        <time>2020-06-23T13:11:06Z</time>
      </trkpt>
      <trkpt lat="51.05191" lon="2.52602">
        <ele>2</ele>
        <time>2020-06-23T13:11:07Z</time>
      </trkpt>
      <trkpt lat="51.05191" lon="2.52601">
        <ele>2</ele>
        <time>2020-06-23T13:11:08Z</time>
      </trkpt>
      <trkpt lat="51.05192" lon="2.52601">
        <ele>1.9</ele>
        <time>2020-06-23T13:11:09Z</time>
      </trkpt>
      <trkpt lat="51.05193" lon="2.526">
        <ele>1.9</ele>
        <time>2020-06-23T13:11:10Z</time>
      </trkpt>
      <trkpt lat="51.05194" lon="2.52599">
        <ele>1.9</ele>
        <time>2020-06-23T13:11:11Z</time>
      </trkpt>
      <trkpt lat="51.05196" lon="2.52596">
        <ele>1.8</ele>
        <time>2020-06-23T13:11:12Z</time>
      </trkpt>
      <trkpt lat="51.05199" lon="2.52594">
        <ele>1.8</ele>
        <time>2020-06-23T13:11:13Z</time>
      </trkpt>
      <trkpt lat="51.05199" lon="2.52589">
        <ele>1.7</ele>
        <time>2020-06-23T13:11:14Z</time>
      </trkpt>
      <trkpt lat="51.05199" lon="2.52587">
        <ele>1.7</ele>
        <time>2020-06-23T13:11:15Z</time>
      </trkpt>
      <trkpt lat="51.05198" lon="2.52583">
        <ele>1.7</ele>
        <time>2020-06-23T13:11:16Z</time>
      </trkpt>
      <trkpt lat="51.05198" lon="2.52582">
        <ele>1.6</ele>
        <time>2020-06-23T13:11:17Z</time>
      </trkpt>
      <trkpt lat="51.05197" lon="2.52577">
        <ele>1.6</ele>
        <time>2020-06-23T13:11:18Z</time>
      </trkpt>
      <trkpt lat="51.05196" lon="2.52575">
        <ele>1.6</ele>
        <time>2020-06-23T13:11:19Z</time>
      </trkpt>
      <trkpt lat="51.05194" lon="2.52569">
        <ele>1.6</ele>
        <time>2020-06-23T13:11:20Z</time>
      </trkpt>
      <trkpt lat="51.05193" lon="2.52567">
        <ele>1.6</ele>
        <time>2020-06-23T13:11:21Z</time>
      </trkpt>
      <trkpt lat="51.05192" lon="2.52563">
        <ele>1.6</ele>
        <time>2020-06-23T13:11:22Z</time>
      </trkpt>
      <trkpt lat="51.0519" lon="2.52557">
        <ele>1.6</ele>
        <time>2020-06-23T13:11:23Z</time>
      </trkpt>
      <trkpt lat="51.0519" lon="2.52554">
        <ele>1.6</ele>
        <time>2020-06-23T13:11:24Z</time>
      </trkpt>
      <trkpt lat="51.05189" lon="2.52549">
        <ele>1.6</ele>
        <time>2020-06-23T13:11:25Z</time>
      </trkpt>
      <trkpt lat="51.05188" lon="2.52544">
        <ele>1.6</ele>
        <time>2020-06-23T13:11:26Z</time>
      </trkpt>
      <trkpt lat="51.05188" lon="2.52538">
        <ele>1.5</ele>
        <time>2020-06-23T13:11:27Z</time>
      </trkpt>
      <trkpt lat="51.05186" lon="2.52534">
        <ele>1.5</ele>
        <time>2020-06-23T13:11:28Z</time>
      </trkpt>
      <trkpt lat="51.05185" lon="2.52529">
        <ele>1.5</ele>
        <time>2020-06-23T13:11:29Z</time>
      </trkpt>
      <trkpt lat="51.05185" lon="2.52524">
        <ele>1.5</ele>
        <time>2020-06-23T13:11:30Z</time>
      </trkpt>
      <trkpt lat="51.05185" lon="2.52517">
        <ele>1.5</ele>
        <time>2020-06-23T13:11:31Z</time>
      </trkpt>
      <trkpt lat="51.05186" lon="2.52511">
        <ele>1.5</ele>
        <time>2020-06-23T13:11:32Z</time>
      </trkpt>
      <trkpt lat="51.05186" lon="2.52505">
        <ele>1.4</ele>
        <time>2020-06-23T13:11:33Z</time>
      </trkpt>
      <trkpt lat="51.05186" lon="2.525">
        <ele>1.4</ele>
        <time>2020-06-23T13:11:34Z</time>
      </trkpt>
      <trkpt lat="51.05187" lon="2.52494">
        <ele>1.4</ele>
        <time>2020-06-23T13:11:35Z</time>
      </trkpt>
      <trkpt lat="51.05188" lon="2.52488">
        <ele>1.3</ele>
        <time>2020-06-23T13:11:36Z</time>
      </trkpt>
      <trkpt lat="51.0519" lon="2.52484">
        <ele>1.3</ele>
        <time>2020-06-23T13:11:37Z</time>
      </trkpt>
      <trkpt lat="51.05191" lon="2.52479">
        <ele>1.3</ele>
        <time>2020-06-23T13:11:38Z</time>
      </trkpt>
      <trkpt lat="51.05193" lon="2.52474">
        <ele>1.3</ele>
        <time>2020-06-23T13:11:39Z</time>
      </trkpt>
      <trkpt lat="51.05194" lon="2.5247">
        <ele>1.2</ele>
        <time>2020-06-23T13:11:40Z</time>
      </trkpt>
      <trkpt lat="51.05196" lon="2.52466">
        <ele>1.2</ele>
        <time>2020-06-23T13:11:41Z</time>
      </trkpt>
      <trkpt lat="51.05198" lon="2.52463">
        <ele>1.2</ele>
        <time>2020-06-23T13:11:42Z</time>
      </trkpt>
      <trkpt lat="51.052" lon="2.52457">
        <ele>1.2</ele>
        <time>2020-06-23T13:11:43Z</time>
      </trkpt>
      <trkpt lat="51.052" lon="2.52455">
        <ele>1.2</ele>
        <time>2020-06-23T13:11:44Z</time>
      </trkpt>
      <trkpt lat="51.05199" lon="2.52449">
        <ele>1.2</ele>
        <time>2020-06-23T13:11:45Z</time>
      </trkpt>
      <trkpt lat="51.05197" lon="2.52444">
        <ele>1.2</ele>
        <time>2020-06-23T13:11:46Z</time>
      </trkpt>
      <trkpt lat="51.05196" lon="2.52438">
        <ele>1.1</ele>
        <time>2020-06-23T13:11:47Z</time>
      </trkpt>
      <trkpt lat="51.05194" lon="2.52432">
        <ele>1.1</ele>
        <time>2020-06-23T13:11:48Z</time>
      </trkpt>
      <trkpt lat="51.05192" lon="2.52426">
        <ele>1.1</ele>
        <time>2020-06-23T13:11:49Z</time>
      </trkpt>
      <trkpt lat="51.05191" lon="2.52421">
        <ele>1.1</ele>
        <time>2020-06-23T13:11:50Z</time>
      </trkpt>
      <trkpt lat="51.05188" lon="2.52414">
        <ele>1.1</ele>
        <time>2020-06-23T13:11:51Z</time>
      </trkpt>
      <trkpt lat="51.05186" lon="2.52406">
        <ele>1</ele>
        <time>2020-06-23T13:11:52Z</time>
      </trkpt>
      <trkpt lat="51.05184" lon="2.524">
        <ele>1</ele>
        <time>2020-06-23T13:11:53Z</time>
      </trkpt>
      <trkpt lat="51.05182" lon="2.52393">
        <ele>1</ele>
        <time>2020-06-23T13:11:54Z</time>
      </trkpt>
      <trkpt lat="51.0518" lon="2.52386">
        <ele>1</ele>
        <time>2020-06-23T13:11:55Z</time>
      </trkpt>
      <trkpt lat="51.05178" lon="2.52378">
        <ele>1</ele>
        <time>2020-06-23T13:11:56Z</time>
      </trkpt>
      <trkpt lat="51.05175" lon="2.52371">
        <ele>1</ele>
        <time>2020-06-23T13:11:57Z</time>
      </trkpt>
      <trkpt lat="51.05173" lon="2.52363">
        <ele>1</ele>
        <time>2020-06-23T13:11:58Z</time>
      </trkpt>
      <trkpt lat="51.05171" lon="2.52356">
        <ele>1</ele>
        <time>2020-06-23T13:11:59Z</time>
      </trkpt>
      <trkpt lat="51.05168" lon="2.52349">
        <ele>0.9</ele>
        <time>2020-06-23T13:12:00Z</time>
      </trkpt>
      <trkpt lat="51.05166" lon="2.52342">
        <ele>0.9</ele>
        <time>2020-06-23T13:12:01Z</time>
      </trkpt>
      <trkpt lat="51.05162" lon="2.52335">
        <ele>0.9</ele>
        <time>2020-06-23T13:12:02Z</time>
      </trkpt>
      <trkpt lat="51.05159" lon="2.52327">
        <ele>1</ele>
        <time>2020-06-23T13:12:03Z</time>
      </trkpt>
      <trkpt lat="51.05156" lon="2.52319">
        <ele>0.9</ele>
        <time>2020-06-23T13:12:04Z</time>
      </trkpt>
      <trkpt lat="51.05153" lon="2.5231">
        <ele>0.9</ele>
        <time>2020-06-23T13:12:05Z</time>
      </trkpt>
      <trkpt lat="51.05151" lon="2.52303">
        <ele>0.8</ele>
        <time>2020-06-23T13:12:06Z</time>
      </trkpt>
      <trkpt lat="51.05148" lon="2.52295">
        <ele>0.8</ele>
        <time>2020-06-23T13:12:07Z</time>
      </trkpt>
      <trkpt lat="51.05146" lon="2.52286">
        <ele>0.8</ele>
        <time>2020-06-23T13:12:08Z</time>
      </trkpt>
      <trkpt lat="51.05145" lon="2.52278">
        <ele>0.8</ele>
        <time>2020-06-23T13:12:09Z</time>
      </trkpt>
      <trkpt lat="51.05143" lon="2.52269">
        <ele>0.8</ele>
        <time>2020-06-23T13:12:10Z</time>
      </trkpt>
      <trkpt lat="51.05141" lon="2.5226">
        <ele>0.8</ele>
        <time>2020-06-23T13:12:11Z</time>
      </trkpt>
      <trkpt lat="51.05139" lon="2.52251">
        <ele>0.8</ele>
        <time>2020-06-23T13:12:12Z</time>
      </trkpt>
      <trkpt lat="51.05137" lon="2.52243">
        <ele>0.8</ele>
        <time>2020-06-23T13:12:13Z</time>
      </trkpt>
      <trkpt lat="51.05135" lon="2.52235">
        <ele>0.8</ele>
        <time>2020-06-23T13:12:14Z</time>
      </trkpt>
      <trkpt lat="51.05133" lon="2.52227">
        <ele>0.8</ele>
        <time>2020-06-23T13:12:15Z</time>
      </trkpt>
      <trkpt lat="51.05131" lon="2.5222">
        <ele>0.8</ele>
        <time>2020-06-23T13:12:16Z</time>
      </trkpt>
      <trkpt lat="51.05129" lon="2.52211">
        <ele>0.8</ele>
        <time>2020-06-23T13:12:17Z</time>
      </trkpt>
      <trkpt lat="51.05127" lon="2.52204">
        <ele>0.8</ele>
        <time>2020-06-23T13:12:18Z</time>
      </trkpt>
      <trkpt lat="51.05126" lon="2.52196">
        <ele>0.8</ele>
        <time>2020-06-23T13:12:19Z</time>
      </trkpt>
      <trkpt lat="51.05124" lon="2.52189">
        <ele>0.8</ele>
        <time>2020-06-23T13:12:20Z</time>
      </trkpt>
      <trkpt lat="51.05123" lon="2.52182">
        <ele>0.9</ele>
        <time>2020-06-23T13:12:21Z</time>
      </trkpt>
      <trkpt lat="51.05122" lon="2.52175">
        <ele>0.9</ele>
        <time>2020-06-23T13:12:22Z</time>
      </trkpt>
      <trkpt lat="51.0512" lon="2.5217">
        <ele>0.9</ele>
        <time>2020-06-23T13:12:23Z</time>
      </trkpt>
      <trkpt lat="51.05117" lon="2.52164">
        <ele>0.9</ele>
        <time>2020-06-23T13:12:24Z</time>
      </trkpt>
      <trkpt lat="51.05113" lon="2.5216">
        <ele>1</ele>
        <time>2020-06-23T13:12:25Z</time>
      </trkpt>
      <trkpt lat="51.05108" lon="2.52158">
        <ele>0.9</ele>
        <time>2020-06-23T13:12:26Z</time>
      </trkpt>
      <trkpt lat="51.05102" lon="2.5216">
        <ele>0.9</ele>
        <time>2020-06-23T13:12:27Z</time>
      </trkpt>
      <trkpt lat="51.05098" lon="2.52163">
        <ele>0.9</ele>
        <time>2020-06-23T13:12:28Z</time>
      </trkpt>
      <trkpt lat="51.05093" lon="2.52166">
        <ele>0.9</ele>
        <time>2020-06-23T13:12:29Z</time>
      </trkpt>
      <trkpt lat="51.05088" lon="2.5217">
        <ele>0.9</ele>
        <time>2020-06-23T13:12:30Z</time>
      </trkpt>
      <trkpt lat="51.05083" lon="2.52173">
        <ele>0.9</ele>
        <time>2020-06-23T13:12:31Z</time>
      </trkpt>
      <trkpt lat="51.05077" lon="2.52176">
        <ele>0.9</ele>
        <time>2020-06-23T13:12:32Z</time>
      </trkpt>
      <trkpt lat="51.05071" lon="2.52179">
        <ele>0.9</ele>
        <time>2020-06-23T13:12:33Z</time>
      </trkpt>
      <trkpt lat="51.05065" lon="2.52182">
        <ele>0.9</ele>
        <time>2020-06-23T13:12:34Z</time>
      </trkpt>
      <trkpt lat="51.05059" lon="2.52186">
        <ele>0.9</ele>
        <time>2020-06-23T13:12:35Z</time>
      </trkpt>
      <trkpt lat="51.05055" lon="2.52191">
        <ele>0.9</ele>
        <time>2020-06-23T13:12:36Z</time>
      </trkpt>
      <trkpt lat="51.0505" lon="2.52194">
        <ele>1</ele>
        <time>2020-06-23T13:12:37Z</time>
      </trkpt>
      <trkpt lat="51.05046" lon="2.52197">
        <ele>1</ele>
        <time>2020-06-23T13:12:38Z</time>
      </trkpt>
      <trkpt lat="51.05041" lon="2.52201">
        <ele>1</ele>
        <time>2020-06-23T13:12:39Z</time>
      </trkpt>
      <trkpt lat="51.05036" lon="2.52205">
        <ele>1</ele>
        <time>2020-06-23T13:12:40Z</time>
      </trkpt>
      <trkpt lat="51.05033" lon="2.52209">
        <ele>1</ele>
        <time>2020-06-23T13:12:41Z</time>
      </trkpt>
      <trkpt lat="51.05028" lon="2.52212">
        <ele>0.9</ele>
        <time>2020-06-23T13:12:42Z</time>
      </trkpt>
      <trkpt lat="51.05024" lon="2.52215">
        <ele>0.9</ele>
        <time>2020-06-23T13:12:43Z</time>
      </trkpt>
      <trkpt lat="51.0502" lon="2.52219">
        <ele>0.9</ele>
        <time>2020-06-23T13:12:44Z</time>
      </trkpt>
      <trkpt lat="51.05016" lon="2.52222">
        <ele>0.9</ele>
        <time>2020-06-23T13:12:45Z</time>
      </trkpt>
      <trkpt lat="51.05012" lon="2.52225">
        <ele>0.9</ele>
        <time>2020-06-23T13:12:46Z</time>
      </trkpt>
      <trkpt lat="51.05008" lon="2.52228">
        <ele>0.9</ele>
        <time>2020-06-23T13:12:47Z</time>
      </trkpt>
      <trkpt lat="51.05004" lon="2.52231">
        <ele>0.9</ele>
        <time>2020-06-23T13:12:48Z</time>
      </trkpt>
      <trkpt lat="51.05001" lon="2.52234">
        <ele>0.9</ele>
        <time>2020-06-23T13:12:49Z</time>
      </trkpt>
      <trkpt lat="51.04997" lon="2.52237">
        <ele>0.9</ele>
        <time>2020-06-23T13:12:50Z</time>
      </trkpt>
      <trkpt lat="51.04993" lon="2.5224">
        <ele>0.9</ele>
        <time>2020-06-23T13:12:51Z</time>
      </trkpt>
      <trkpt lat="51.04989" lon="2.52243">
        <ele>0.9</ele>
        <time>2020-06-23T13:12:52Z</time>
      </trkpt>
      <trkpt lat="51.04986" lon="2.52246">
        <ele>0.9</ele>
        <time>2020-06-23T13:12:53Z</time>
      </trkpt>
      <trkpt lat="51.04983" lon="2.52249">
        <ele>0.9</ele>
        <time>2020-06-23T13:12:54Z</time>
      </trkpt>
      <trkpt lat="51.04979" lon="2.5225">
        <ele>0.9</ele>
        <time>2020-06-23T13:12:55Z</time>
      </trkpt>
      <trkpt lat="51.04976" lon="2.52252">
        <ele>1</ele>
        <time>2020-06-23T13:12:56Z</time>
      </trkpt>
      <trkpt lat="51.04972" lon="2.52255">
        <ele>1</ele>
        <time>2020-06-23T13:12:57Z</time>
      </trkpt>
      <trkpt lat="51.04968" lon="2.52258">
        <ele>1.1</ele>
        <time>2020-06-23T13:12:58Z</time>
      </trkpt>
      <trkpt lat="51.04964" lon="2.52261">
        <ele>1.2</ele>
        <time>2020-06-23T13:12:59Z</time>
      </trkpt>
      <trkpt lat="51.0496" lon="2.52264">
        <ele>1.2</ele>
        <time>2020-06-23T13:13:00Z</time>
      </trkpt>
      <trkpt lat="51.04956" lon="2.52267">
        <ele>1.3</ele>
        <time>2020-06-23T13:13:01Z</time>
      </trkpt>
      <trkpt lat="51.04953" lon="2.52268">
        <ele>1.4</ele>
        <time>2020-06-23T13:13:02Z</time>
      </trkpt>
      <trkpt lat="51.0495" lon="2.5227">
        <ele>1.4</ele>
        <time>2020-06-23T13:13:03Z</time>
      </trkpt>
      <trkpt lat="51.04947" lon="2.5227">
        <ele>1.5</ele>
        <time>2020-06-23T13:13:04Z</time>
      </trkpt>
      <trkpt lat="51.04944" lon="2.52269">
        <ele>1.5</ele>
        <time>2020-06-23T13:13:05Z</time>
      </trkpt>
      <trkpt lat="51.04941" lon="2.52267">
        <ele>1.6</ele>
        <time>2020-06-23T13:13:06Z</time>
      </trkpt>
      <trkpt lat="51.0494" lon="2.52267">
        <ele>1.6</ele>
        <time>2020-06-23T13:13:07Z</time>
      </trkpt>
      <trkpt lat="51.04938" lon="2.52263">
        <ele>1.6</ele>
        <time>2020-06-23T13:13:08Z</time>
      </trkpt>
      <trkpt lat="51.04936" lon="2.52259">
        <ele>1.6</ele>
        <time>2020-06-23T13:13:09Z</time>
      </trkpt>
      <trkpt lat="51.04933" lon="2.52255">
        <ele>1.5</ele>
        <time>2020-06-23T13:13:10Z</time>
      </trkpt>
      <trkpt lat="51.04932" lon="2.52254">
        <ele>1.5</ele>
        <time>2020-06-23T13:13:11Z</time>
      </trkpt>
      <trkpt lat="51.0493" lon="2.52249">
        <ele>1.5</ele>
        <time>2020-06-23T13:13:12Z</time>
      </trkpt>
      <trkpt lat="51.04928" lon="2.52244">
        <ele>1.5</ele>
        <time>2020-06-23T13:13:13Z</time>
      </trkpt>
      <trkpt lat="51.04926" lon="2.5224">
        <ele>1.5</ele>
        <time>2020-06-23T13:13:14Z</time>
      </trkpt>
      <trkpt lat="51.04924" lon="2.52235">
        <ele>1.5</ele>
        <time>2020-06-23T13:13:15Z</time>
      </trkpt>
      <trkpt lat="51.04922" lon="2.52231">
        <ele>1.5</ele>
        <time>2020-06-23T13:13:16Z</time>
      </trkpt>
      <trkpt lat="51.0492" lon="2.52226">
        <ele>1.5</ele>
        <time>2020-06-23T13:13:17Z</time>
      </trkpt>
      <trkpt lat="51.04918" lon="2.5222">
        <ele>1.5</ele>
        <time>2020-06-23T13:13:18Z</time>
      </trkpt>
      <trkpt lat="51.04915" lon="2.52214">
        <ele>1.5</ele>
        <time>2020-06-23T13:13:19Z</time>
      </trkpt>
      <trkpt lat="51.04913" lon="2.5221">
        <ele>1.5</ele>
        <time>2020-06-23T13:13:20Z</time>
      </trkpt>
      <trkpt lat="51.04912" lon="2.52206">
        <ele>1.5</ele>
        <time>2020-06-23T13:13:21Z</time>
      </trkpt>
      <trkpt lat="51.04911" lon="2.52205">
        <ele>1.5</ele>
        <time>2020-06-23T13:13:22Z</time>
      </trkpt>
      <trkpt lat="51.04909" lon="2.52204">
        <ele>1.5</ele>
        <time>2020-06-23T13:13:23Z</time>
      </trkpt>
      <trkpt lat="51.04907" lon="2.52204">
        <ele>1.5</ele>
        <time>2020-06-23T13:13:24Z</time>
      </trkpt>
      <trkpt lat="51.04907" lon="2.52203">
        <ele>1.5</ele>
        <time>2020-06-23T13:13:25Z</time>
      </trkpt>
      <trkpt lat="51.04907" lon="2.522">
        <ele>1.5</ele>
        <time>2020-06-23T13:13:26Z</time>
      </trkpt>
      <trkpt lat="51.04907" lon="2.522">
        <ele>1.5</ele>
        <time>2020-06-23T13:13:27Z</time>
      </trkpt>
      <trkpt lat="51.04907" lon="2.52199">
        <ele>1.5</ele>
        <time>2020-06-23T13:13:28Z</time>
      </trkpt>
      <trkpt lat="51.04907" lon="2.52199">
        <ele>1.5</ele>
        <time>2020-06-23T13:13:29Z</time>
      </trkpt>
      <trkpt lat="51.04907" lon="2.52199">
        <ele>1.5</ele>
        <time>2020-06-23T13:13:30Z</time>
      </trkpt>
      <trkpt lat="51.04907" lon="2.52199">
        <ele>1.4</ele>
        <time>2020-06-23T13:13:31Z</time>
      </trkpt>
      <trkpt lat="51.04907" lon="2.52199">
        <ele>1.4</ele>
        <time>2020-06-23T13:13:32Z</time>
      </trkpt>
      <trkpt lat="51.04901" lon="2.52192">
        <ele>1.4</ele>
        <time>2020-06-23T13:13:51Z</time>
      </trkpt>
      <trkpt lat="51.04899" lon="2.5219">
        <ele>1.4</ele>
        <time>2020-06-23T13:13:52Z</time>
      </trkpt>
      <trkpt lat="51.04897" lon="2.52185">
        <ele>1.4</ele>
        <time>2020-06-23T13:13:53Z</time>
      </trkpt>
      <trkpt lat="51.04896" lon="2.52183">
        <ele>1.4</ele>
        <time>2020-06-23T13:13:54Z</time>
      </trkpt>
      <trkpt lat="51.04893" lon="2.52178">
        <ele>1.4</ele>
        <time>2020-06-23T13:13:55Z</time>
      </trkpt>
      <trkpt lat="51.0489" lon="2.52173">
        <ele>1.4</ele>
        <time>2020-06-23T13:13:56Z</time>
      </trkpt>
      <trkpt lat="51.04888" lon="2.52165">
        <ele>1.3</ele>
        <time>2020-06-23T13:13:57Z</time>
      </trkpt>
      <trkpt lat="51.04885" lon="2.52158">
        <ele>1.3</ele>
        <time>2020-06-23T13:13:58Z</time>
      </trkpt>
      <trkpt lat="51.04882" lon="2.52152">
        <ele>1.3</ele>
        <time>2020-06-23T13:13:59Z</time>
      </trkpt>
      <trkpt lat="51.04878" lon="2.52147">
        <ele>1.3</ele>
        <time>2020-06-23T13:14:00Z</time>
      </trkpt>
      <trkpt lat="51.04875" lon="2.52141">
        <ele>1.3</ele>
        <time>2020-06-23T13:14:01Z</time>
      </trkpt>
      <trkpt lat="51.04872" lon="2.52135">
        <ele>1.3</ele>
        <time>2020-06-23T13:14:02Z</time>
      </trkpt>
      <trkpt lat="51.04869" lon="2.52128">
        <ele>1.3</ele>
        <time>2020-06-23T13:14:03Z</time>
      </trkpt>
      <trkpt lat="51.04868" lon="2.52122">
        <ele>1.3</ele>
        <time>2020-06-23T13:14:04Z</time>
      </trkpt>
      <trkpt lat="51.04866" lon="2.52116">
        <ele>1.4</ele>
        <time>2020-06-23T13:14:05Z</time>
      </trkpt>
      <trkpt lat="51.04863" lon="2.52111">
        <ele>1.4</ele>
        <time>2020-06-23T13:14:06Z</time>
      </trkpt>
      <trkpt lat="51.04861" lon="2.52106">
        <ele>1.4</ele>
        <time>2020-06-23T13:14:07Z</time>
      </trkpt>
      <trkpt lat="51.04859" lon="2.52103">
        <ele>1.4</ele>
        <time>2020-06-23T13:14:08Z</time>
      </trkpt>
      <trkpt lat="51.04857" lon="2.52098">
        <ele>1.4</ele>
        <time>2020-06-23T13:14:09Z</time>
      </trkpt>
      <trkpt lat="51.04854" lon="2.52093">
        <ele>1.4</ele>
        <time>2020-06-23T13:14:10Z</time>
      </trkpt>
      <trkpt lat="51.04851" lon="2.52088">
        <ele>1.4</ele>
        <time>2020-06-23T13:14:11Z</time>
      </trkpt>
      <trkpt lat="51.0485" lon="2.52083">
        <ele>1.4</ele>
        <time>2020-06-23T13:14:12Z</time>
      </trkpt>
      <trkpt lat="51.04848" lon="2.52078">
        <ele>1.4</ele>
        <time>2020-06-23T13:14:13Z</time>
      </trkpt>
      <trkpt lat="51.04845" lon="2.52073">
        <ele>1.4</ele>
        <time>2020-06-23T13:14:14Z</time>
      </trkpt>
      <trkpt lat="51.04843" lon="2.52068">
        <ele>1.4</ele>
        <time>2020-06-23T13:14:15Z</time>
      </trkpt>
      <trkpt lat="51.04841" lon="2.52062">
        <ele>1.4</ele>
        <time>2020-06-23T13:14:16Z</time>
      </trkpt>
      <trkpt lat="51.04837" lon="2.52055">
        <ele>1.4</ele>
        <time>2020-06-23T13:14:17Z</time>
      </trkpt>
      <trkpt lat="51.04833" lon="2.52049">
        <ele>1.4</ele>
        <time>2020-06-23T13:14:18Z</time>
      </trkpt>
      <trkpt lat="51.04829" lon="2.52042">
        <ele>1.4</ele>
        <time>2020-06-23T13:14:19Z</time>
      </trkpt>
      <trkpt lat="51.04826" lon="2.52036">
        <ele>1.5</ele>
        <time>2020-06-23T13:14:20Z</time>
      </trkpt>
      <trkpt lat="51.04823" lon="2.5203">
        <ele>1.5</ele>
        <time>2020-06-23T13:14:21Z</time>
      </trkpt>
      <trkpt lat="51.04819" lon="2.52023">
        <ele>1.5</ele>
        <time>2020-06-23T13:14:22Z</time>
      </trkpt>
      <trkpt lat="51.04816" lon="2.52016">
        <ele>1.5</ele>
        <time>2020-06-23T13:14:23Z</time>
      </trkpt>
      <trkpt lat="51.04813" lon="2.5201">
        <ele>1.6</ele>
        <time>2020-06-23T13:14:24Z</time>
      </trkpt>
      <trkpt lat="51.04809" lon="2.52005">
        <ele>1.6</ele>
        <time>2020-06-23T13:14:25Z</time>
      </trkpt>
      <trkpt lat="51.04807" lon="2.51999">
        <ele>1.6</ele>
        <time>2020-06-23T13:14:26Z</time>
      </trkpt>
      <trkpt lat="51.04805" lon="2.51995">
        <ele>1.7</ele>
        <time>2020-06-23T13:14:27Z</time>
      </trkpt>
      <trkpt lat="51.04803" lon="2.51991">
        <ele>1.7</ele>
        <time>2020-06-23T13:14:28Z</time>
      </trkpt>
      <trkpt lat="51.04803" lon="2.51989">
        <ele>1.7</ele>
        <time>2020-06-23T13:14:29Z</time>
      </trkpt>
      <trkpt lat="51.04802" lon="2.51987">
        <ele>1.7</ele>
        <time>2020-06-23T13:14:30Z</time>
      </trkpt>
      <trkpt lat="51.04802" lon="2.51984">
        <ele>1.7</ele>
        <time>2020-06-23T13:14:31Z</time>
      </trkpt>
      <trkpt lat="51.04802" lon="2.51984">
        <ele>1.7</ele>
        <time>2020-06-23T13:14:32Z</time>
      </trkpt>
      <trkpt lat="51.04803" lon="2.51983">
        <ele>2.5</ele>
        <time>2020-06-23T13:14:33Z</time>
      </trkpt>
      <trkpt lat="51.04803" lon="2.51981">
        <ele>2.6</ele>
        <time>2020-06-23T13:14:34Z</time>
      </trkpt>
      <trkpt lat="51.04803" lon="2.5198">
        <ele>2.7</ele>
        <time>2020-06-23T13:14:35Z</time>
      </trkpt>
      <trkpt lat="51.04804" lon="2.51979">
        <ele>2.7</ele>
        <time>2020-06-23T13:14:36Z</time>
      </trkpt>
      <trkpt lat="51.04806" lon="2.51976">
        <ele>2.9</ele>
        <time>2020-06-23T13:14:37Z</time>
      </trkpt>
      <trkpt lat="51.04809" lon="2.51974">
        <ele>3</ele>
        <time>2020-06-23T13:14:38Z</time>
      </trkpt>
      <trkpt lat="51.04812" lon="2.5197">
        <ele>3.1</ele>
        <time>2020-06-23T13:14:39Z</time>
      </trkpt>
      <trkpt lat="51.04815" lon="2.51967">
        <ele>3.1</ele>
        <time>2020-06-23T13:14:40Z</time>
      </trkpt>
      <trkpt lat="51.04819" lon="2.51963">
        <ele>3</ele>
        <time>2020-06-23T13:14:41Z</time>
      </trkpt>
      <trkpt lat="51.04823" lon="2.51958">
        <ele>2.9</ele>
        <time>2020-06-23T13:14:42Z</time>
      </trkpt>
      <trkpt lat="51.04827" lon="2.51955">
        <ele>2.8</ele>
        <time>2020-06-23T13:14:43Z</time>
      </trkpt>
      <trkpt lat="51.04831" lon="2.5195">
        <ele>2.7</ele>
        <time>2020-06-23T13:14:44Z</time>
      </trkpt>
      <trkpt lat="51.04834" lon="2.51946">
        <ele>2.5</ele>
        <time>2020-06-23T13:14:45Z</time>
      </trkpt>
      <trkpt lat="51.04839" lon="2.51941">
        <ele>2.3</ele>
        <time>2020-06-23T13:14:46Z</time>
      </trkpt>
      <trkpt lat="51.04843" lon="2.51937">
        <ele>2.2</ele>
        <time>2020-06-23T13:14:47Z</time>
      </trkpt>
      <trkpt lat="51.04847" lon="2.51932">
        <ele>1.9</ele>
        <time>2020-06-23T13:14:48Z</time>
      </trkpt>
      <trkpt lat="51.04851" lon="2.51927">
        <ele>1.7</ele>
        <time>2020-06-23T13:14:49Z</time>
      </trkpt>
      <trkpt lat="51.04855" lon="2.51923">
        <ele>1.6</ele>
        <time>2020-06-23T13:14:50Z</time>
      </trkpt>
      <trkpt lat="51.0486" lon="2.5192">
        <ele>1.4</ele>
        <time>2020-06-23T13:14:51Z</time>
      </trkpt>
      <trkpt lat="51.04865" lon="2.5192">
        <ele>1.3</ele>
        <time>2020-06-23T13:14:52Z</time>
      </trkpt>
      <trkpt lat="51.0487" lon="2.5192">
        <ele>1.2</ele>
        <time>2020-06-23T13:14:53Z</time>
      </trkpt>
      <trkpt lat="51.04875" lon="2.51921">
        <ele>1.1</ele>
        <time>2020-06-23T13:14:54Z</time>
      </trkpt>
      <trkpt lat="51.04881" lon="2.51922">
        <ele>0.9</ele>
        <time>2020-06-23T13:14:55Z</time>
      </trkpt>
      <trkpt lat="51.04887" lon="2.51923">
        <ele>0.9</ele>
        <time>2020-06-23T13:14:56Z</time>
      </trkpt>
      <trkpt lat="51.04892" lon="2.51923">
        <ele>0.8</ele>
        <time>2020-06-23T13:14:57Z</time>
      </trkpt>
      <trkpt lat="51.04898" lon="2.51924">
        <ele>0.7</ele>
        <time>2020-06-23T13:14:58Z</time>
      </trkpt>
      <trkpt lat="51.04903" lon="2.51924">
        <ele>0.6</ele>
        <time>2020-06-23T13:14:59Z</time>
      </trkpt>
      <trkpt lat="51.04908" lon="2.51922">
        <ele>0.4</ele>
        <time>2020-06-23T13:15:00Z</time>
      </trkpt>
      <trkpt lat="51.04912" lon="2.51917">
        <ele>0.2</ele>
        <time>2020-06-23T13:15:01Z</time>
      </trkpt>
      <trkpt lat="51.04916" lon="2.51914">
        <ele>4</ele>
        <time>2020-06-23T13:15:02Z</time>
      </trkpt>
      <trkpt lat="51.04919" lon="2.51911">
        <ele>-0.2</ele>
        <time>2020-06-23T13:15:03Z</time>
      </trkpt>
      <trkpt lat="51.04922" lon="2.51908">
        <ele>-0.7</ele>
        <time>2020-06-23T13:15:04Z</time>
      </trkpt>
      <trkpt lat="51.04926" lon="2.51904">
        <ele>-0.7</ele>
        <time>2020-06-23T13:15:05Z</time>
      </trkpt>
      <trkpt lat="51.0493" lon="2.51899">
        <ele>-0.8</ele>
        <time>2020-06-23T13:15:06Z</time>
      </trkpt>
      <trkpt lat="51.04934" lon="2.51896">
        <ele>-0.8</ele>
        <time>2020-06-23T13:15:07Z</time>
      </trkpt>
      <trkpt lat="51.04938" lon="2.51892">
        <ele>-0.8</ele>
        <time>2020-06-23T13:15:08Z</time>
      </trkpt>
      <trkpt lat="51.04941" lon="2.51889">
        <ele>-0.8</ele>
        <time>2020-06-23T13:15:09Z</time>
      </trkpt>
      <trkpt lat="51.04944" lon="2.51887">
        <ele>-0.8</ele>
        <time>2020-06-23T13:15:10Z</time>
      </trkpt>
      <trkpt lat="51.04948" lon="2.51883">
        <ele>-0.8</ele>
        <time>2020-06-23T13:15:11Z</time>
      </trkpt>
      <trkpt lat="51.0495" lon="2.5188">
        <ele>-0.8</ele>
        <time>2020-06-23T13:15:12Z</time>
      </trkpt>
      <trkpt lat="51.04954" lon="2.51878">
        <ele>-0.8</ele>
        <time>2020-06-23T13:15:13Z</time>
      </trkpt>
      <trkpt lat="51.04958" lon="2.51876">
        <ele>-0.7</ele>
        <time>2020-06-23T13:15:14Z</time>
      </trkpt>
      <trkpt lat="51.04962" lon="2.51875">
        <ele>-0.7</ele>
        <time>2020-06-23T13:15:15Z</time>
      </trkpt>
      <trkpt lat="51.04966" lon="2.51874">
        <ele>-0.7</ele>
        <time>2020-06-23T13:15:16Z</time>
      </trkpt>
      <trkpt lat="51.0497" lon="2.51873">
        <ele>-0.6</ele>
        <time>2020-06-23T13:15:17Z</time>
      </trkpt>
      <trkpt lat="51.04974" lon="2.51871">
        <ele>-0.3</ele>
        <time>2020-06-23T13:15:18Z</time>
      </trkpt>
      <trkpt lat="51.04978" lon="2.5187">
        <ele>3.9</ele>
        <time>2020-06-23T13:15:19Z</time>
      </trkpt>
      <trkpt lat="51.04981" lon="2.51868">
        <ele>0.1</ele>
        <time>2020-06-23T13:15:20Z</time>
      </trkpt>
      <trkpt lat="51.04986" lon="2.51864">
        <ele>0.3</ele>
        <time>2020-06-23T13:15:21Z</time>
      </trkpt>
      <trkpt lat="51.04992" lon="2.51861">
        <ele>0.6</ele>
        <time>2020-06-23T13:15:22Z</time>
      </trkpt>
      <trkpt lat="51.04997" lon="2.51858">
        <ele>0.8</ele>
        <time>2020-06-23T13:15:23Z</time>
      </trkpt>
      <trkpt lat="51.05002" lon="2.51856">
        <ele>1.1</ele>
        <time>2020-06-23T13:15:24Z</time>
      </trkpt>
      <trkpt lat="51.05006" lon="2.51853">
        <ele>1.3</ele>
        <time>2020-06-23T13:15:25Z</time>
      </trkpt>
      <trkpt lat="51.05011" lon="2.5185">
        <ele>1.6</ele>
        <time>2020-06-23T13:15:26Z</time>
      </trkpt>
      <trkpt lat="51.05015" lon="2.51847">
        <ele>1.8</ele>
        <time>2020-06-23T13:15:27Z</time>
      </trkpt>
      <trkpt lat="51.0502" lon="2.51844">
        <ele>1.9</ele>
        <time>2020-06-23T13:15:28Z</time>
      </trkpt>
      <trkpt lat="51.05024" lon="2.51842">
        <ele>2</ele>
        <time>2020-06-23T13:15:29Z</time>
      </trkpt>
      <trkpt lat="51.05028" lon="2.5184">
        <ele>2.1</ele>
        <time>2020-06-23T13:15:30Z</time>
      </trkpt>
      <trkpt lat="51.05032" lon="2.51837">
        <ele>2.1</ele>
        <time>2020-06-23T13:15:31Z</time>
      </trkpt>
      <trkpt lat="51.05035" lon="2.51835">
        <ele>2</ele>
        <time>2020-06-23T13:15:32Z</time>
      </trkpt>
      <trkpt lat="51.05038" lon="2.51832">
        <ele>1.9</ele>
        <time>2020-06-23T13:15:33Z</time>
      </trkpt>
      <trkpt lat="51.05041" lon="2.5183">
        <ele>1.8</ele>
        <time>2020-06-23T13:15:34Z</time>
      </trkpt>
      <trkpt lat="51.05044" lon="2.51828">
        <ele>1.7</ele>
        <time>2020-06-23T13:15:35Z</time>
      </trkpt>
      <trkpt lat="51.05047" lon="2.51824">
        <ele>1.5</ele>
        <time>2020-06-23T13:15:36Z</time>
      </trkpt>
      <trkpt lat="51.0505" lon="2.5182">
        <ele>1.3</ele>
        <time>2020-06-23T13:15:37Z</time>
      </trkpt>
      <trkpt lat="51.05054" lon="2.51817">
        <ele>1.1</ele>
        <time>2020-06-23T13:15:38Z</time>
      </trkpt>
      <trkpt lat="51.05059" lon="2.51813">
        <ele>0.6</ele>
        <time>2020-06-23T13:15:39Z</time>
      </trkpt>
      <trkpt lat="51.05061" lon="2.51809">
        <ele>0.6</ele>
        <time>2020-06-23T13:15:40Z</time>
      </trkpt>
      <trkpt lat="51.05063" lon="2.51805">
        <ele>0.6</ele>
        <time>2020-06-23T13:15:41Z</time>
      </trkpt>
      <trkpt lat="51.05064" lon="2.51801">
        <ele>0.6</ele>
        <time>2020-06-23T13:15:42Z</time>
      </trkpt>
      <trkpt lat="51.05064" lon="2.51801">
        <ele>0.6</ele>
        <time>2020-06-23T13:15:43Z</time>
      </trkpt>
      <trkpt lat="51.05064" lon="2.518">
        <ele>0.6</ele>
        <time>2020-06-23T13:15:44Z</time>
      </trkpt>
      <trkpt lat="51.05063" lon="2.51799">
        <ele>0.6</ele>
        <time>2020-06-23T13:15:45Z</time>
      </trkpt>
      <trkpt lat="51.05063" lon="2.518">
        <ele>0.6</ele>
        <time>2020-06-23T13:15:46Z</time>
      </trkpt>
      <trkpt lat="51.05063" lon="2.51799">
        <ele>0.6</ele>
        <time>2020-06-23T13:15:47Z</time>
      </trkpt>
      <trkpt lat="51.05063" lon="2.51797">
        <ele>0.6</ele>
        <time>2020-06-23T13:15:48Z</time>
      </trkpt>
      <trkpt lat="51.05063" lon="2.51796">
        <ele>0.6</ele>
        <time>2020-06-23T13:15:49Z</time>
      </trkpt>
      <trkpt lat="51.05063" lon="2.51797">
        <ele>0.6</ele>
        <time>2020-06-23T13:15:50Z</time>
      </trkpt>
      <trkpt lat="51.05063" lon="2.51796">
        <ele>0.6</ele>
        <time>2020-06-23T13:15:51Z</time>
      </trkpt>
      <trkpt lat="51.05063" lon="2.51795">
        <ele>0.6</ele>
        <time>2020-06-23T13:15:52Z</time>
      </trkpt>
      <trkpt lat="51.05063" lon="2.51795">
        <ele>0.6</ele>
        <time>2020-06-23T13:15:53Z</time>
      </trkpt>
      <trkpt lat="51.05063" lon="2.51795">
        <ele>0.6</ele>
        <time>2020-06-23T13:15:54Z</time>
      </trkpt>
      <trkpt lat="51.05064" lon="2.51795">
        <ele>0.6</ele>
        <time>2020-06-23T13:15:55Z</time>
      </trkpt>
      <trkpt lat="51.05063" lon="2.51796">
        <ele>0.6</ele>
        <time>2020-06-23T13:15:56Z</time>
      </trkpt>
      <trkpt lat="51.05064" lon="2.51796">
        <ele>0.6</ele>
        <time>2020-06-23T13:15:57Z</time>
      </trkpt>
      <trkpt lat="51.05063" lon="2.51796">
        <ele>0.6</ele>
        <time>2020-06-23T13:15:58Z</time>
      </trkpt>
      <trkpt lat="51.05063" lon="2.51796">
        <ele>0.6</ele>
        <time>2020-06-23T13:15:59Z</time>
      </trkpt>
      <trkpt lat="51.05062" lon="2.51796">
        <ele>0.6</ele>
        <time>2020-06-23T13:16:00Z</time>
      </trkpt>
      <trkpt lat="51.05062" lon="2.51795">
        <ele>0.6</ele>
        <time>2020-06-23T13:16:01Z</time>
      </trkpt>
      <trkpt lat="51.05062" lon="2.51794">
        <ele>0.6</ele>
        <time>2020-06-23T13:16:02Z</time>
      </trkpt>
      <trkpt lat="51.05062" lon="2.51794">
        <ele>0.6</ele>
        <time>2020-06-23T13:16:03Z</time>
      </trkpt>
      <trkpt lat="51.05062" lon="2.51794">
        <ele>0.6</ele>
        <time>2020-06-23T13:16:04Z</time>
      </trkpt>
      <trkpt lat="51.05063" lon="2.51793">
        <ele>0.6</ele>
        <time>2020-06-23T13:16:05Z</time>
      </trkpt>
      <trkpt lat="51.05063" lon="2.51792">
        <ele>0.6</ele>
        <time>2020-06-23T13:16:06Z</time>
      </trkpt>
      <trkpt lat="51.05063" lon="2.51791">
        <ele>0.6</ele>
        <time>2020-06-23T13:16:07Z</time>
      </trkpt>
      <trkpt lat="51.05063" lon="2.5179">
        <ele>0.6</ele>
        <time>2020-06-23T13:16:08Z</time>
      </trkpt>
      <trkpt lat="51.05064" lon="2.5179">
        <ele>0.6</ele>
        <time>2020-06-23T13:16:09Z</time>
      </trkpt>
      <trkpt lat="51.05064" lon="2.51789">
        <ele>0.7</ele>
        <time>2020-06-23T13:16:10Z</time>
      </trkpt>
      <trkpt lat="51.05064" lon="2.51788">
        <ele>0.7</ele>
        <time>2020-06-23T13:16:11Z</time>
      </trkpt>
      <trkpt lat="51.05064" lon="2.51787">
        <ele>0.7</ele>
        <time>2020-06-23T13:16:12Z</time>
      </trkpt>
      <trkpt lat="51.05064" lon="2.51788">
        <ele>0.7</ele>
        <time>2020-06-23T13:16:13Z</time>
      </trkpt>
      <trkpt lat="51.05065" lon="2.51787">
        <ele>0.7</ele>
        <time>2020-06-23T13:16:14Z</time>
      </trkpt>
      <trkpt lat="51.05065" lon="2.51786">
        <ele>0.7</ele>
        <time>2020-06-23T13:16:15Z</time>
      </trkpt>
      <trkpt lat="51.05065" lon="2.51785">
        <ele>0.7</ele>
        <time>2020-06-23T13:16:16Z</time>
      </trkpt>
      <trkpt lat="51.05065" lon="2.51783">
        <ele>0.7</ele>
        <time>2020-06-23T13:16:17Z</time>
      </trkpt>
      <trkpt lat="51.05066" lon="2.51783">
        <ele>0.7</ele>
        <time>2020-06-23T13:16:18Z</time>
      </trkpt>
      <trkpt lat="51.05065" lon="2.51785">
        <ele>0.7</ele>
        <time>2020-06-23T13:16:19Z</time>
      </trkpt>
      <trkpt lat="51.05064" lon="2.51788">
        <ele>0.7</ele>
        <time>2020-06-23T13:16:20Z</time>
      </trkpt>
      <trkpt lat="51.05062" lon="2.5179">
        <ele>0.7</ele>
        <time>2020-06-23T13:16:21Z</time>
      </trkpt>
      <trkpt lat="51.05061" lon="2.51793">
        <ele>0.7</ele>
        <time>2020-06-23T13:16:22Z</time>
      </trkpt>
      <trkpt lat="51.0506" lon="2.51796">
        <ele>0.7</ele>
        <time>2020-06-23T13:16:23Z</time>
      </trkpt>
      <trkpt lat="51.05059" lon="2.51798">
        <ele>0.7</ele>
        <time>2020-06-23T13:16:24Z</time>
      </trkpt>
      <trkpt lat="51.05058" lon="2.51801">
        <ele>0.7</ele>
        <time>2020-06-23T13:16:25Z</time>
      </trkpt>
      <trkpt lat="51.05057" lon="2.51804">
        <ele>0.7</ele>
        <time>2020-06-23T13:16:26Z</time>
      </trkpt>
      <trkpt lat="51.05056" lon="2.51807">
        <ele>0.7</ele>
        <time>2020-06-23T13:16:27Z</time>
      </trkpt>
      <trkpt lat="51.05055" lon="2.51809">
        <ele>0.7</ele>
        <time>2020-06-23T13:16:28Z</time>
      </trkpt>
      <trkpt lat="51.05054" lon="2.51812">
        <ele>0.7</ele>
        <time>2020-06-23T13:16:29Z</time>
      </trkpt>
      <trkpt lat="51.05052" lon="2.51815">
        <ele>0.7</ele>
        <time>2020-06-23T13:16:30Z</time>
      </trkpt>
      <trkpt lat="51.05051" lon="2.51818">
        <ele>0.7</ele>
        <time>2020-06-23T13:16:31Z</time>
      </trkpt>
      <trkpt lat="51.0505" lon="2.5182">
        <ele>0.7</ele>
        <time>2020-06-23T13:16:32Z</time>
      </trkpt>
      <trkpt lat="51.05049" lon="2.51823">
        <ele>0.7</ele>
        <time>2020-06-23T13:16:33Z</time>
      </trkpt>
      <trkpt lat="51.05048" lon="2.51826">
        <ele>0.7</ele>
        <time>2020-06-23T13:16:34Z</time>
      </trkpt>
      <trkpt lat="51.05047" lon="2.51828">
        <ele>0.7</ele>
        <time>2020-06-23T13:16:35Z</time>
      </trkpt>
      <trkpt lat="51.05046" lon="2.51831">
        <ele>0.7</ele>
        <time>2020-06-23T13:16:36Z</time>
      </trkpt>
      <trkpt lat="51.05045" lon="2.51834">
        <ele>0.7</ele>
        <time>2020-06-23T13:16:37Z</time>
      </trkpt>
      <trkpt lat="51.05044" lon="2.51837">
        <ele>0.7</ele>
        <time>2020-06-23T13:17:52Z</time>
      </trkpt>
      <trkpt lat="51.05042" lon="2.51839">
        <ele>0.7</ele>
        <time>2020-06-23T13:17:53Z</time>
      </trkpt>
      <trkpt lat="51.05043" lon="2.51835">
        <ele>0.7</ele>
        <time>2020-06-23T13:17:54Z</time>
      </trkpt>
      <trkpt lat="51.05041" lon="2.5183">
        <ele>0.7</ele>
        <time>2020-06-23T13:17:55Z</time>
      </trkpt>
      <trkpt lat="51.05041" lon="2.51828">
        <ele>0.7</ele>
        <time>2020-06-23T13:17:56Z</time>
      </trkpt>
      <trkpt lat="51.05041" lon="2.51824">
        <ele>0.7</ele>
        <time>2020-06-23T13:17:57Z</time>
      </trkpt>
      <trkpt lat="51.05041" lon="2.51822">
        <ele>0.7</ele>
        <time>2020-06-23T13:17:58Z</time>
      </trkpt>
      <trkpt lat="51.05041" lon="2.51821">
        <ele>0.7</ele>
        <time>2020-06-23T13:17:59Z</time>
      </trkpt>
      <trkpt lat="51.0504" lon="2.5182">
        <ele>0.8</ele>
        <time>2020-06-23T13:18:00Z</time>
      </trkpt>
      <trkpt lat="51.0504" lon="2.51818">
        <ele>0.8</ele>
        <time>2020-06-23T13:18:01Z</time>
      </trkpt>
      <trkpt lat="51.05038" lon="2.51815">
        <ele>0.8</ele>
        <time>2020-06-23T13:18:02Z</time>
      </trkpt>
      <trkpt lat="51.05037" lon="2.51811">
        <ele>0.8</ele>
        <time>2020-06-23T13:18:03Z</time>
      </trkpt>
      <trkpt lat="51.05037" lon="2.51809">
        <ele>0.8</ele>
        <time>2020-06-23T13:18:04Z</time>
      </trkpt>
      <trkpt lat="51.05039" lon="2.51808">
        <ele>0.8</ele>
        <time>2020-06-23T13:18:05Z</time>
      </trkpt>
      <trkpt lat="51.0504" lon="2.51808">
        <ele>0.8</ele>
        <time>2020-06-23T13:18:06Z</time>
      </trkpt>
      <trkpt lat="51.05041" lon="2.51807">
        <ele>0.8</ele>
        <time>2020-06-23T13:18:07Z</time>
      </trkpt>
      <trkpt lat="51.05042" lon="2.51806">
        <ele>0.8</ele>
        <time>2020-06-23T13:18:08Z</time>
      </trkpt>
      <trkpt lat="51.05043" lon="2.51805">
        <ele>0.8</ele>
        <time>2020-06-23T13:18:09Z</time>
      </trkpt>
      <trkpt lat="51.05045" lon="2.51804">
        <ele>0.8</ele>
        <time>2020-06-23T13:18:10Z</time>
      </trkpt>
      <trkpt lat="51.05046" lon="2.51803">
        <ele>0.8</ele>
        <time>2020-06-23T13:24:40Z</time>
      </trkpt>
      <trkpt lat="51.05047" lon="2.51802">
        <ele>0.8</ele>
        <time>2020-06-23T13:24:41Z</time>
      </trkpt>
      <trkpt lat="51.05048" lon="2.51802">
        <ele>0.8</ele>
        <time>2020-06-23T13:24:42Z</time>
      </trkpt>
      <trkpt lat="51.05049" lon="2.51801">
        <ele>0.8</ele>
        <time>2020-06-23T13:24:43Z</time>
      </trkpt>
      <trkpt lat="51.05051" lon="2.518">
        <ele>0.8</ele>
        <time>2020-06-23T13:24:44Z</time>
      </trkpt>
      <trkpt lat="51.05052" lon="2.51799">
        <ele>0.8</ele>
        <time>2020-06-23T13:24:45Z</time>
      </trkpt>
      <trkpt lat="51.05053" lon="2.51798">
        <ele>0.8</ele>
        <time>2020-06-23T13:24:46Z</time>
      </trkpt>
      <trkpt lat="51.05054" lon="2.51797">
        <ele>0.8</ele>
        <time>2020-06-23T13:24:47Z</time>
      </trkpt>
      <trkpt lat="51.05055" lon="2.51796">
        <ele>0.8</ele>
        <time>2020-06-23T13:24:48Z</time>
      </trkpt>
      <trkpt lat="51.05057" lon="2.51795">
        <ele>0.8</ele>
        <time>2020-06-23T13:24:49Z</time>
      </trkpt>
      <trkpt lat="51.05057" lon="2.51794">
        <ele>0.8</ele>
        <time>2020-06-23T13:24:50Z</time>
      </trkpt>
      <trkpt lat="51.05058" lon="2.51792">
        <ele>0.8</ele>
        <time>2020-06-23T13:24:51Z</time>
      </trkpt>
      <trkpt lat="51.05059" lon="2.5179">
        <ele>0.8</ele>
        <time>2020-06-23T13:24:52Z</time>
      </trkpt>
      <trkpt lat="51.0506" lon="2.51789">
        <ele>0.8</ele>
        <time>2020-06-23T13:24:53Z</time>
      </trkpt>
      <trkpt lat="51.0506" lon="2.51787">
        <ele>0.8</ele>
        <time>2020-06-23T13:24:54Z</time>
      </trkpt>
      <trkpt lat="51.05061" lon="2.51785">
        <ele>0.8</ele>
        <time>2020-06-23T13:24:55Z</time>
      </trkpt>
      <trkpt lat="51.05062" lon="2.51783">
        <ele>0.8</ele>
        <time>2020-06-23T13:24:56Z</time>
      </trkpt>
      <trkpt lat="51.05063" lon="2.51781">
        <ele>0.8</ele>
        <time>2020-06-23T13:24:57Z</time>
      </trkpt>
      <trkpt lat="51.05064" lon="2.51779">
        <ele>0.8</ele>
        <time>2020-06-23T13:24:58Z</time>
      </trkpt>
      <trkpt lat="51.05065" lon="2.51777">
        <ele>0.8</ele>
        <time>2020-06-23T13:24:59Z</time>
      </trkpt>
      <trkpt lat="51.05066" lon="2.51775">
        <ele>0.8</ele>
        <time>2020-06-23T13:25:00Z</time>
      </trkpt>
      <trkpt lat="51.05067" lon="2.51773">
        <ele>0.8</ele>
        <time>2020-06-23T13:25:01Z</time>
      </trkpt>
      <trkpt lat="51.05068" lon="2.51771">
        <ele>0.8</ele>
        <time>2020-06-23T13:25:02Z</time>
      </trkpt>
      <trkpt lat="51.05069" lon="2.51769">
        <ele>0.8</ele>
        <time>2020-06-23T13:25:03Z</time>
      </trkpt>
      <trkpt lat="51.0507" lon="2.51767">
        <ele>0.8</ele>
        <time>2020-06-23T13:25:04Z</time>
      </trkpt>
      <trkpt lat="51.0507" lon="2.51765">
        <ele>0.8</ele>
        <time>2020-06-23T13:25:05Z</time>
      </trkpt>
      <trkpt lat="51.05071" lon="2.51764">
        <ele>0.8</ele>
        <time>2020-06-23T13:25:06Z</time>
      </trkpt>
      <trkpt lat="51.05072" lon="2.51762">
        <ele>0.8</ele>
        <time>2020-06-23T13:32:43Z</time>
      </trkpt>
      <trkpt lat="51.05073" lon="2.5176">
        <ele>0.8</ele>
        <time>2020-06-23T13:32:44Z</time>
      </trkpt>
      <trkpt lat="51.05074" lon="2.51758">
        <ele>0.8</ele>
        <time>2020-06-23T13:32:45Z</time>
      </trkpt>
      <trkpt lat="51.05075" lon="2.51756">
        <ele>0.9</ele>
        <time>2020-06-23T13:32:46Z</time>
      </trkpt>
      <trkpt lat="51.05076" lon="2.51754">
        <ele>0.9</ele>
        <time>2020-06-23T13:32:47Z</time>
      </trkpt>
      <trkpt lat="51.05076" lon="2.51753">
        <ele>0.9</ele>
        <time>2020-06-23T13:32:48Z</time>
      </trkpt>
      <trkpt lat="51.05077" lon="2.51753">
        <ele>0.9</ele>
        <time>2020-06-23T13:32:49Z</time>
      </trkpt>
      <trkpt lat="51.05077" lon="2.51752">
        <ele>0.9</ele>
        <time>2020-06-23T13:32:50Z</time>
      </trkpt>
      <trkpt lat="51.05077" lon="2.51752">
        <ele>0.9</ele>
        <time>2020-06-23T13:32:51Z</time>
      </trkpt>
      <trkpt lat="51.05077" lon="2.51752">
        <ele>0.9</ele>
        <time>2020-06-23T13:32:52Z</time>
      </trkpt>
      <trkpt lat="51.05077" lon="2.51752">
        <ele>0.9</ele>
        <time>2020-06-23T13:32:53Z</time>
      </trkpt>
      <trkpt lat="51.05077" lon="2.51751">
        <ele>0.9</ele>
        <time>2020-06-23T13:32:54Z</time>
      </trkpt>
      <trkpt lat="51.05075" lon="2.5175">
        <ele>0.9</ele>
        <time>2020-06-23T13:32:55Z</time>
      </trkpt>
      <trkpt lat="51.05074" lon="2.51747">
        <ele>0.9</ele>
        <time>2020-06-23T13:32:56Z</time>
      </trkpt>
      <trkpt lat="51.05074" lon="2.51746">
        <ele>0.9</ele>
        <time>2020-06-23T13:32:57Z</time>
      </trkpt>
      <trkpt lat="51.05073" lon="2.51745">
        <ele>0.9</ele>
        <time>2020-06-23T13:32:58Z</time>
      </trkpt>
      <trkpt lat="51.05073" lon="2.51744">
        <ele>0.9</ele>
        <time>2020-06-23T13:32:59Z</time>
      </trkpt>
      <trkpt lat="51.05071" lon="2.51741">
        <ele>0.9</ele>
        <time>2020-06-23T13:33:00Z</time>
      </trkpt>
      <trkpt lat="51.05069" lon="2.51739">
        <ele>0.9</ele>
        <time>2020-06-23T13:33:01Z</time>
      </trkpt>
      <trkpt lat="51.05068" lon="2.51738">
        <ele>0.9</ele>
        <time>2020-06-23T13:33:02Z</time>
      </trkpt>
      <trkpt lat="51.05068" lon="2.51737">
        <ele>0.9</ele>
        <time>2020-06-23T13:33:03Z</time>
      </trkpt>
      <trkpt lat="51.05067" lon="2.51735">
        <ele>0.9</ele>
        <time>2020-06-23T13:33:04Z</time>
      </trkpt>
      <trkpt lat="51.05067" lon="2.51736">
        <ele>0.9</ele>
        <time>2020-06-23T13:33:05Z</time>
      </trkpt>
      <trkpt lat="51.05066" lon="2.51736">
        <ele>0.9</ele>
        <time>2020-06-23T13:33:06Z</time>
      </trkpt>
      <trkpt lat="51.05066" lon="2.51736">
        <ele>0.9</ele>
        <time>2020-06-23T13:33:07Z</time>
      </trkpt>
      <trkpt lat="51.05065" lon="2.51735">
        <ele>0.9</ele>
        <time>2020-06-23T13:33:08Z</time>
      </trkpt>
      <trkpt lat="51.05064" lon="2.51732">
        <ele>0.9</ele>
        <time>2020-06-23T13:33:09Z</time>
      </trkpt>
      <trkpt lat="51.05063" lon="2.51731">
        <ele>0.9</ele>
        <time>2020-06-23T13:33:10Z</time>
      </trkpt>
      <trkpt lat="51.05062" lon="2.51728">
        <ele>0.9</ele>
        <time>2020-06-23T13:33:11Z</time>
      </trkpt>
      <trkpt lat="51.05061" lon="2.51726">
        <ele>0.9</ele>
        <time>2020-06-23T13:33:12Z</time>
      </trkpt>
      <trkpt lat="51.05061" lon="2.51725">
        <ele>0.9</ele>
        <time>2020-06-23T13:33:13Z</time>
      </trkpt>
      <trkpt lat="51.05062" lon="2.51725">
        <ele>0.8</ele>
        <time>2020-06-23T13:33:14Z</time>
      </trkpt>
      <trkpt lat="51.05062" lon="2.51725">
        <ele>0.8</ele>
        <time>2020-06-23T13:33:15Z</time>
      </trkpt>
      <trkpt lat="51.05063" lon="2.51726">
        <ele>0.8</ele>
        <time>2020-06-23T13:33:16Z</time>
      </trkpt>
      <trkpt lat="51.05063" lon="2.51726">
        <ele>0.8</ele>
        <time>2020-06-23T13:33:17Z</time>
      </trkpt>
      <trkpt lat="51.05064" lon="2.51727">
        <ele>0.8</ele>
        <time>2020-06-23T13:33:18Z</time>
      </trkpt>
      <trkpt lat="51.05065" lon="2.51727">
        <ele>0.8</ele>
        <time>2020-06-23T13:33:19Z</time>
      </trkpt>
      <trkpt lat="51.05065" lon="2.51728">
        <ele>0.8</ele>
        <time>2020-06-23T13:33:20Z</time>
      </trkpt>
      <trkpt lat="51.05066" lon="2.51729">
        <ele>0.8</ele>
        <time>2020-06-23T13:33:21Z</time>
      </trkpt>
      <trkpt lat="51.05066" lon="2.51729">
        <ele>0.8</ele>
        <time>2020-06-23T13:33:22Z</time>
      </trkpt>
      <trkpt lat="51.05066" lon="2.51729">
        <ele>0.8</ele>
        <time>2020-06-23T13:33:23Z</time>
      </trkpt>
      <trkpt lat="51.05066" lon="2.51729">
        <ele>0.8</ele>
        <time>2020-06-23T13:33:24Z</time>
      </trkpt>
      <trkpt lat="51.05066" lon="2.51729">
        <ele>0.8</ele>
        <time>2020-06-23T13:33:25Z</time>
      </trkpt>
      <trkpt lat="51.05066" lon="2.51729">
        <ele>0.8</ele>
        <time>2020-06-23T13:33:26Z</time>
      </trkpt>
      <trkpt lat="51.05066" lon="2.51729">
        <ele>0.8</ele>
        <time>2020-06-23T13:33:27Z</time>
      </trkpt>
      <trkpt lat="51.05067" lon="2.5173">
        <ele>0.8</ele>
        <time>2020-06-23T13:33:28Z</time>
      </trkpt>
      <trkpt lat="51.05067" lon="2.5173">
        <ele>0.8</ele>
        <time>2020-06-23T13:33:29Z</time>
      </trkpt>
      <trkpt lat="51.05049" lon="2.51814">
        <ele>0.6</ele>
        <time>2020-06-23T13:40:43Z</time>
      </trkpt>
      <trkpt lat="51.05048" lon="2.51814">
        <ele>0.6</ele>
        <time>2020-06-23T13:40:44Z</time>
      </trkpt>
      <trkpt lat="51.05047" lon="2.51814">
        <ele>1.2</ele>
        <time>2020-06-23T13:40:45Z</time>
      </trkpt>
      <trkpt lat="51.05047" lon="2.51814">
        <ele>1.2</ele>
        <time>2020-06-23T13:40:46Z</time>
      </trkpt>
      <trkpt lat="51.05046" lon="2.51815">
        <ele>1.3</ele>
        <time>2020-06-23T13:40:47Z</time>
      </trkpt>
      <trkpt lat="51.05044" lon="2.51816">
        <ele>1.4</ele>
        <time>2020-06-23T13:40:48Z</time>
      </trkpt>
      <trkpt lat="51.05041" lon="2.51819">
        <ele>1.5</ele>
        <time>2020-06-23T13:40:49Z</time>
      </trkpt>
      <trkpt lat="51.0504" lon="2.5182">
        <ele>1.6</ele>
        <time>2020-06-23T13:40:50Z</time>
      </trkpt>
      <trkpt lat="51.05039" lon="2.51821">
        <ele>1.6</ele>
        <time>2020-06-23T13:40:51Z</time>
      </trkpt>
      <trkpt lat="51.05038" lon="2.51824">
        <ele>1.7</ele>
        <time>2020-06-23T13:40:52Z</time>
      </trkpt>
      <trkpt lat="51.05037" lon="2.51826">
        <ele>1.8</ele>
        <time>2020-06-23T13:40:53Z</time>
      </trkpt>
      <trkpt lat="51.05036" lon="2.51827">
        <ele>1.8</ele>
        <time>2020-06-23T13:40:54Z</time>
      </trkpt>
      <trkpt lat="51.05036" lon="2.51828">
        <ele>1.9</ele>
        <time>2020-06-23T13:40:55Z</time>
      </trkpt>
      <trkpt lat="51.05034" lon="2.5183">
        <ele>1.9</ele>
        <time>2020-06-23T13:40:56Z</time>
      </trkpt>
      <trkpt lat="51.05033" lon="2.51831">
        <ele>1.9</ele>
        <time>2020-06-23T13:40:57Z</time>
      </trkpt>
      <trkpt lat="51.05032" lon="2.51832">
        <ele>2</ele>
        <time>2020-06-23T13:40:58Z</time>
      </trkpt>
      <trkpt lat="51.05033" lon="2.51836">
        <ele>2</ele>
        <time>2020-06-23T13:40:59Z</time>
      </trkpt>
      <trkpt lat="51.0503" lon="2.51837">
        <ele>2.1</ele>
        <time>2020-06-23T13:41:00Z</time>
      </trkpt>
      <trkpt lat="51.05029" lon="2.51838">
        <ele>2.1</ele>
        <time>2020-06-23T13:41:01Z</time>
      </trkpt>
      <trkpt lat="51.05027" lon="2.5184">
        <ele>2.1</ele>
        <time>2020-06-23T13:41:02Z</time>
      </trkpt>
      <trkpt lat="51.05026" lon="2.51841">
        <ele>2.1</ele>
        <time>2020-06-23T13:41:03Z</time>
      </trkpt>
      <trkpt lat="51.05023" lon="2.51842">
        <ele>2</ele>
        <time>2020-06-23T13:41:04Z</time>
      </trkpt>
      <trkpt lat="51.05022" lon="2.51842">
        <ele>2</ele>
        <time>2020-06-23T13:41:05Z</time>
      </trkpt>
      <trkpt lat="51.05019" lon="2.51844">
        <ele>1.9</ele>
        <time>2020-06-23T13:41:06Z</time>
      </trkpt>
      <trkpt lat="51.05018" lon="2.51844">
        <ele>1.9</ele>
        <time>2020-06-23T13:41:07Z</time>
      </trkpt>
      <trkpt lat="51.05016" lon="2.51847">
        <ele>1.8</ele>
        <time>2020-06-23T13:41:08Z</time>
      </trkpt>
      <trkpt lat="51.05015" lon="2.51848">
        <ele>1.8</ele>
        <time>2020-06-23T13:41:09Z</time>
      </trkpt>
      <trkpt lat="51.05014" lon="2.5185">
        <ele>1.7</ele>
        <time>2020-06-23T13:41:10Z</time>
      </trkpt>
      <trkpt lat="51.05012" lon="2.5185">
        <ele>1.6</ele>
        <time>2020-06-23T13:41:11Z</time>
      </trkpt>
      <trkpt lat="51.05008" lon="2.51852">
        <ele>1.5</ele>
        <time>2020-06-23T13:41:12Z</time>
      </trkpt>
      <trkpt lat="51.05007" lon="2.51853">
        <ele>1.4</ele>
        <time>2020-06-23T13:41:13Z</time>
      </trkpt>
      <trkpt lat="51.05004" lon="2.51855">
        <ele>1.2</ele>
        <time>2020-06-23T13:41:14Z</time>
      </trkpt>
      <trkpt lat="51.05001" lon="2.51858">
        <ele>1</ele>
        <time>2020-06-23T13:41:15Z</time>
      </trkpt>
      <trkpt lat="51.04998" lon="2.5186">
        <ele>0.8</ele>
        <time>2020-06-23T13:41:16Z</time>
      </trkpt>
      <trkpt lat="51.04995" lon="2.51863">
        <ele>0.7</ele>
        <time>2020-06-23T13:41:17Z</time>
      </trkpt>
      <trkpt lat="51.04992" lon="2.51864">
        <ele>0.5</ele>
        <time>2020-06-23T13:41:18Z</time>
      </trkpt>
      <trkpt lat="51.04988" lon="2.51866">
        <ele>0.4</ele>
        <time>2020-06-23T13:41:19Z</time>
      </trkpt>
      <trkpt lat="51.04984" lon="2.51868">
        <ele>0.3</ele>
        <time>2020-06-23T13:41:20Z</time>
      </trkpt>
      <trkpt lat="51.0498" lon="2.51869">
        <ele>0.1</ele>
        <time>2020-06-23T13:41:21Z</time>
      </trkpt>
      <trkpt lat="51.04976" lon="2.51869">
        <ele>-0.1</ele>
        <time>2020-06-23T13:41:22Z</time>
      </trkpt>
      <trkpt lat="51.04972" lon="2.51869">
        <ele>-0.5</ele>
        <time>2020-06-23T13:41:23Z</time>
      </trkpt>
      <trkpt lat="51.04968" lon="2.51871">
        <ele>-0.6</ele>
        <time>2020-06-23T13:41:24Z</time>
      </trkpt>
      <trkpt lat="51.04965" lon="2.51873">
        <ele>-0.7</ele>
        <time>2020-06-23T13:41:25Z</time>
      </trkpt>
      <trkpt lat="51.0496" lon="2.51877">
        <ele>-0.7</ele>
        <time>2020-06-23T13:41:26Z</time>
      </trkpt>
      <trkpt lat="51.04956" lon="2.51879">
        <ele>-0.8</ele>
        <time>2020-06-23T13:41:27Z</time>
      </trkpt>
      <trkpt lat="51.04953" lon="2.51883">
        <ele>-0.8</ele>
        <time>2020-06-23T13:41:28Z</time>
      </trkpt>
      <trkpt lat="51.04949" lon="2.51885">
        <ele>-0.8</ele>
        <time>2020-06-23T13:41:29Z</time>
      </trkpt>
      <trkpt lat="51.04946" lon="2.51888">
        <ele>-0.8</ele>
        <time>2020-06-23T13:41:30Z</time>
      </trkpt>
      <trkpt lat="51.04943" lon="2.51891">
        <ele>-0.8</ele>
        <time>2020-06-23T13:41:31Z</time>
      </trkpt>
      <trkpt lat="51.0494" lon="2.51894">
        <ele>-0.8</ele>
        <time>2020-06-23T13:41:32Z</time>
      </trkpt>
      <trkpt lat="51.04937" lon="2.51896">
        <ele>-0.8</ele>
        <time>2020-06-23T13:41:33Z</time>
      </trkpt>
      <trkpt lat="51.04934" lon="2.51898">
        <ele>-0.8</ele>
        <time>2020-06-23T13:41:34Z</time>
      </trkpt>
      <trkpt lat="51.04932" lon="2.51901">
        <ele>-0.8</ele>
        <time>2020-06-23T13:41:35Z</time>
      </trkpt>
      <trkpt lat="51.04929" lon="2.51904">
        <ele>-0.7</ele>
        <time>2020-06-23T13:41:36Z</time>
      </trkpt>
      <trkpt lat="51.04925" lon="2.51907">
        <ele>-0.4</ele>
        <time>2020-06-23T13:41:37Z</time>
      </trkpt>
      <trkpt lat="51.04921" lon="2.5191">
        <ele>-0.1</ele>
        <time>2020-06-23T13:41:38Z</time>
      </trkpt>
      <trkpt lat="51.04917" lon="2.51913">
        <ele>0.1</ele>
        <time>2020-06-23T13:41:39Z</time>
      </trkpt>
      <trkpt lat="51.04914" lon="2.51917">
        <ele>0.3</ele>
        <time>2020-06-23T13:41:40Z</time>
      </trkpt>
      <trkpt lat="51.0491" lon="2.51921">
        <ele>0.4</ele>
        <time>2020-06-23T13:41:41Z</time>
      </trkpt>
      <trkpt lat="51.04907" lon="2.51924">
        <ele>0.5</ele>
        <time>2020-06-23T13:41:42Z</time>
      </trkpt>
      <trkpt lat="51.04903" lon="2.51927">
        <ele>0.6</ele>
        <time>2020-06-23T13:41:43Z</time>
      </trkpt>
      <trkpt lat="51.04899" lon="2.51927">
        <ele>0.7</ele>
        <time>2020-06-23T13:41:44Z</time>
      </trkpt>
      <trkpt lat="51.04894" lon="2.51926">
        <ele>0.8</ele>
        <time>2020-06-23T13:41:45Z</time>
      </trkpt>
      <trkpt lat="51.04889" lon="2.51923">
        <ele>0.9</ele>
        <time>2020-06-23T13:41:46Z</time>
      </trkpt>
      <trkpt lat="51.04883" lon="2.51921">
        <ele>1</ele>
        <time>2020-06-23T13:41:47Z</time>
      </trkpt>
      <trkpt lat="51.04878" lon="2.51919">
        <ele>1.1</ele>
        <time>2020-06-23T13:41:48Z</time>
      </trkpt>
      <trkpt lat="51.04873" lon="2.51918">
        <ele>1.2</ele>
        <time>2020-06-23T13:41:49Z</time>
      </trkpt>
      <trkpt lat="51.04868" lon="2.5192">
        <ele>1.3</ele>
        <time>2020-06-23T13:41:50Z</time>
      </trkpt>
      <trkpt lat="51.04862" lon="2.51922">
        <ele>1.4</ele>
        <time>2020-06-23T13:41:51Z</time>
      </trkpt>
      <trkpt lat="51.04858" lon="2.51924">
        <ele>1.6</ele>
        <time>2020-06-23T13:41:52Z</time>
      </trkpt>
      <trkpt lat="51.04854" lon="2.51926">
        <ele>1.7</ele>
        <time>2020-06-23T13:41:53Z</time>
      </trkpt>
      <trkpt lat="51.04849" lon="2.51931">
        <ele>1.9</ele>
        <time>2020-06-23T13:41:54Z</time>
      </trkpt>
      <trkpt lat="51.04846" lon="2.51935">
        <ele>2.1</ele>
        <time>2020-06-23T13:41:55Z</time>
      </trkpt>
      <trkpt lat="51.04843" lon="2.51939">
        <ele>2.2</ele>
        <time>2020-06-23T13:41:56Z</time>
      </trkpt>
      <trkpt lat="51.04841" lon="2.51944">
        <ele>2.4</ele>
        <time>2020-06-23T13:41:57Z</time>
      </trkpt>
      <trkpt lat="51.04838" lon="2.51948">
        <ele>2.5</ele>
        <time>2020-06-23T13:41:58Z</time>
      </trkpt>
      <trkpt lat="51.04835" lon="2.51953">
        <ele>2.6</ele>
        <time>2020-06-23T13:41:59Z</time>
      </trkpt>
      <trkpt lat="51.04831" lon="2.51957">
        <ele>2.8</ele>
        <time>2020-06-23T13:42:00Z</time>
      </trkpt>
      <trkpt lat="51.04826" lon="2.51962">
        <ele>2.9</ele>
        <time>2020-06-23T13:42:01Z</time>
      </trkpt>
      <trkpt lat="51.04822" lon="2.51967">
        <ele>3</ele>
        <time>2020-06-23T13:42:02Z</time>
      </trkpt>
      <trkpt lat="51.04819" lon="2.51971">
        <ele>3</ele>
        <time>2020-06-23T13:42:03Z</time>
      </trkpt>
      <trkpt lat="51.04815" lon="2.51974">
        <ele>3.1</ele>
        <time>2020-06-23T13:42:04Z</time>
      </trkpt>
      <trkpt lat="51.04812" lon="2.51978">
        <ele>3</ele>
        <time>2020-06-23T13:42:05Z</time>
      </trkpt>
      <trkpt lat="51.04808" lon="2.51982">
        <ele>2.9</ele>
        <time>2020-06-23T13:42:06Z</time>
      </trkpt>
      <trkpt lat="51.04805" lon="2.51987">
        <ele>2.6</ele>
        <time>2020-06-23T13:42:07Z</time>
      </trkpt>
      <trkpt lat="51.04804" lon="2.51991">
        <ele>2.3</ele>
        <time>2020-06-23T13:42:08Z</time>
      </trkpt>
      <trkpt lat="51.04801" lon="2.51996">
        <ele>1.8</ele>
        <time>2020-06-23T13:42:09Z</time>
      </trkpt>
      <trkpt lat="51.04801" lon="2.51998">
        <ele>1.7</ele>
        <time>2020-06-23T13:42:10Z</time>
      </trkpt>
      <trkpt lat="51.04801" lon="2.52004">
        <ele>1.7</ele>
        <time>2020-06-23T13:42:11Z</time>
      </trkpt>
      <trkpt lat="51.04801" lon="2.52006">
        <ele>1.7</ele>
        <time>2020-06-23T13:42:12Z</time>
      </trkpt>
      <trkpt lat="51.04804" lon="2.52012">
        <ele>1.6</ele>
        <time>2020-06-23T13:42:13Z</time>
      </trkpt>
      <trkpt lat="51.04808" lon="2.52018">
        <ele>1.6</ele>
        <time>2020-06-23T13:42:14Z</time>
      </trkpt>
      <trkpt lat="51.04811" lon="2.52026">
        <ele>1.6</ele>
        <time>2020-06-23T13:42:15Z</time>
      </trkpt>
      <trkpt lat="51.04815" lon="2.52032">
        <ele>1.5</ele>
        <time>2020-06-23T13:42:16Z</time>
      </trkpt>
      <trkpt lat="51.04819" lon="2.52038">
        <ele>1.5</ele>
        <time>2020-06-23T13:42:17Z</time>
      </trkpt>
      <trkpt lat="51.04825" lon="2.52045">
        <ele>1.5</ele>
        <time>2020-06-23T13:42:18Z</time>
      </trkpt>
      <trkpt lat="51.04829" lon="2.52052">
        <ele>1.4</ele>
        <time>2020-06-23T13:42:19Z</time>
      </trkpt>
      <trkpt lat="51.04832" lon="2.52059">
        <ele>1.4</ele>
        <time>2020-06-23T13:42:20Z</time>
      </trkpt>
      <trkpt lat="51.04836" lon="2.52067">
        <ele>1.4</ele>
        <time>2020-06-23T13:42:21Z</time>
      </trkpt>
      <trkpt lat="51.04839" lon="2.52075">
        <ele>1.4</ele>
        <time>2020-06-23T13:42:22Z</time>
      </trkpt>
      <trkpt lat="51.04842" lon="2.52082">
        <ele>1.4</ele>
        <time>2020-06-23T13:42:23Z</time>
      </trkpt>
      <trkpt lat="51.04846" lon="2.52088">
        <ele>1.4</ele>
        <time>2020-06-23T13:42:24Z</time>
      </trkpt>
      <trkpt lat="51.0485" lon="2.52094">
        <ele>1.4</ele>
        <time>2020-06-23T13:42:25Z</time>
      </trkpt>
      <trkpt lat="51.04853" lon="2.52102">
        <ele>1.4</ele>
        <time>2020-06-23T13:42:26Z</time>
      </trkpt>
      <trkpt lat="51.04857" lon="2.52109">
        <ele>1.4</ele>
        <time>2020-06-23T13:42:27Z</time>
      </trkpt>
      <trkpt lat="51.0486" lon="2.52116">
        <ele>1.4</ele>
        <time>2020-06-23T13:42:28Z</time>
      </trkpt>
      <trkpt lat="51.04863" lon="2.52122">
        <ele>1.3</ele>
        <time>2020-06-23T13:42:29Z</time>
      </trkpt>
      <trkpt lat="51.04866" lon="2.52129">
        <ele>1.3</ele>
        <time>2020-06-23T13:42:30Z</time>
      </trkpt>
      <trkpt lat="51.04869" lon="2.52134">
        <ele>1.3</ele>
        <time>2020-06-23T13:42:31Z</time>
      </trkpt>
      <trkpt lat="51.04874" lon="2.52139">
        <ele>1.3</ele>
        <time>2020-06-23T13:42:32Z</time>
      </trkpt>
      <trkpt lat="51.04877" lon="2.52145">
        <ele>1.3</ele>
        <time>2020-06-23T13:42:33Z</time>
      </trkpt>
      <trkpt lat="51.0488" lon="2.52152">
        <ele>1.3</ele>
        <time>2020-06-23T13:42:34Z</time>
      </trkpt>
      <trkpt lat="51.04883" lon="2.52159">
        <ele>1.3</ele>
        <time>2020-06-23T13:42:35Z</time>
      </trkpt>
      <trkpt lat="51.04887" lon="2.52166">
        <ele>1.3</ele>
        <time>2020-06-23T13:42:36Z</time>
      </trkpt>
      <trkpt lat="51.0489" lon="2.52174">
        <ele>1.4</ele>
        <time>2020-06-23T13:42:37Z</time>
      </trkpt>
      <trkpt lat="51.04893" lon="2.52182">
        <ele>1.4</ele>
        <time>2020-06-23T13:42:38Z</time>
      </trkpt>
      <trkpt lat="51.04896" lon="2.5219">
        <ele>1.4</ele>
        <time>2020-06-23T13:42:39Z</time>
      </trkpt>
      <trkpt lat="51.049" lon="2.52198">
        <ele>1.4</ele>
        <time>2020-06-23T13:42:40Z</time>
      </trkpt>
      <trkpt lat="51.04903" lon="2.52206">
        <ele>1.5</ele>
        <time>2020-06-23T13:42:41Z</time>
      </trkpt>
      <trkpt lat="51.04907" lon="2.52213">
        <ele>1.5</ele>
        <time>2020-06-23T13:42:42Z</time>
      </trkpt>
      <trkpt lat="51.0491" lon="2.52221">
        <ele>1.5</ele>
        <time>2020-06-23T13:42:43Z</time>
      </trkpt>
      <trkpt lat="51.04913" lon="2.52228">
        <ele>1.5</ele>
        <time>2020-06-23T13:42:44Z</time>
      </trkpt>
      <trkpt lat="51.04916" lon="2.52235">
        <ele>1.5</ele>
        <time>2020-06-23T13:42:45Z</time>
      </trkpt>
      <trkpt lat="51.0492" lon="2.52241">
        <ele>1.5</ele>
        <time>2020-06-23T13:42:46Z</time>
      </trkpt>
      <trkpt lat="51.04923" lon="2.52248">
        <ele>1.5</ele>
        <time>2020-06-23T13:42:47Z</time>
      </trkpt>
      <trkpt lat="51.04926" lon="2.52257">
        <ele>1.5</ele>
        <time>2020-06-23T13:42:48Z</time>
      </trkpt>
      <trkpt lat="51.04929" lon="2.52264">
        <ele>1.5</ele>
        <time>2020-06-23T13:42:49Z</time>
      </trkpt>
      <trkpt lat="51.04933" lon="2.52271">
        <ele>1.6</ele>
        <time>2020-06-23T13:42:50Z</time>
      </trkpt>
      <trkpt lat="51.04935" lon="2.52277">
        <ele>1.6</ele>
        <time>2020-06-23T13:42:51Z</time>
      </trkpt>
      <trkpt lat="51.0494" lon="2.52283">
        <ele>1.6</ele>
        <time>2020-06-23T13:42:52Z</time>
      </trkpt>
      <trkpt lat="51.04943" lon="2.5229">
        <ele>1.6</ele>
        <time>2020-06-23T13:42:53Z</time>
      </trkpt>
      <trkpt lat="51.04948" lon="2.52297">
        <ele>1.5</ele>
        <time>2020-06-23T13:42:54Z</time>
      </trkpt>
      <trkpt lat="51.0495" lon="2.52304">
        <ele>1.5</ele>
        <time>2020-06-23T13:42:55Z</time>
      </trkpt>
      <trkpt lat="51.04953" lon="2.52311">
        <ele>1.5</ele>
        <time>2020-06-23T13:42:56Z</time>
      </trkpt>
      <trkpt lat="51.04957" lon="2.52319">
        <ele>1.5</ele>
        <time>2020-06-23T13:42:57Z</time>
      </trkpt>
      <trkpt lat="51.0496" lon="2.52328">
        <ele>1.5</ele>
        <time>2020-06-23T13:42:58Z</time>
      </trkpt>
      <trkpt lat="51.04963" lon="2.52337">
        <ele>1.5</ele>
        <time>2020-06-23T13:42:59Z</time>
      </trkpt>
      <trkpt lat="51.04965" lon="2.52345">
        <ele>1.5</ele>
        <time>2020-06-23T13:43:00Z</time>
      </trkpt>
      <trkpt lat="51.04968" lon="2.52352">
        <ele>1.5</ele>
        <time>2020-06-23T13:43:01Z</time>
      </trkpt>
      <trkpt lat="51.0497" lon="2.5236">
        <ele>1.5</ele>
        <time>2020-06-23T13:43:02Z</time>
      </trkpt>
      <trkpt lat="51.04973" lon="2.52369">
        <ele>1.6</ele>
        <time>2020-06-23T13:43:03Z</time>
      </trkpt>
      <trkpt lat="51.04975" lon="2.52378">
        <ele>1.6</ele>
        <time>2020-06-23T13:43:04Z</time>
      </trkpt>
      <trkpt lat="51.04978" lon="2.52388">
        <ele>1.6</ele>
        <time>2020-06-23T13:43:05Z</time>
      </trkpt>
      <trkpt lat="51.04981" lon="2.52396">
        <ele>1.6</ele>
        <time>2020-06-23T13:43:06Z</time>
      </trkpt>
      <trkpt lat="51.04985" lon="2.52405">
        <ele>1.6</ele>
        <time>2020-06-23T13:43:07Z</time>
      </trkpt>
      <trkpt lat="51.04987" lon="2.52413">
        <ele>1.6</ele>
        <time>2020-06-23T13:43:08Z</time>
      </trkpt>
      <trkpt lat="51.0499" lon="2.52422">
        <ele>1.5</ele>
        <time>2020-06-23T13:43:09Z</time>
      </trkpt>
      <trkpt lat="51.04992" lon="2.52431">
        <ele>1.5</ele>
        <time>2020-06-23T13:43:10Z</time>
      </trkpt>
      <trkpt lat="51.04995" lon="2.5244">
        <ele>1.4</ele>
        <time>2020-06-23T13:43:11Z</time>
      </trkpt>
      <trkpt lat="51.04997" lon="2.5245">
        <ele>1.4</ele>
        <time>2020-06-23T13:43:12Z</time>
      </trkpt>
      <trkpt lat="51.04999" lon="2.52459">
        <ele>1.4</ele>
        <time>2020-06-23T13:43:13Z</time>
      </trkpt>
      <trkpt lat="51.05001" lon="2.52467">
        <ele>1.4</ele>
        <time>2020-06-23T13:43:14Z</time>
      </trkpt>
      <trkpt lat="51.05003" lon="2.52476">
        <ele>1.4</ele>
        <time>2020-06-23T13:43:15Z</time>
      </trkpt>
      <trkpt lat="51.05005" lon="2.52484">
        <ele>1.4</ele>
        <time>2020-06-23T13:43:16Z</time>
      </trkpt>
      <trkpt lat="51.05007" lon="2.52492">
        <ele>1.4</ele>
        <time>2020-06-23T13:43:17Z</time>
      </trkpt>
      <trkpt lat="51.0501" lon="2.525">
        <ele>1.4</ele>
        <time>2020-06-23T13:43:18Z</time>
      </trkpt>
      <trkpt lat="51.05011" lon="2.52509">
        <ele>1.4</ele>
        <time>2020-06-23T13:43:19Z</time>
      </trkpt>
      <trkpt lat="51.05014" lon="2.52517">
        <ele>1.4</ele>
        <time>2020-06-23T13:43:20Z</time>
      </trkpt>
      <trkpt lat="51.05017" lon="2.52525">
        <ele>1.4</ele>
        <time>2020-06-23T13:43:21Z</time>
      </trkpt>
      <trkpt lat="51.05019" lon="2.52533">
        <ele>1.5</ele>
        <time>2020-06-23T13:43:22Z</time>
      </trkpt>
      <trkpt lat="51.0502" lon="2.52541">
        <ele>1.5</ele>
        <time>2020-06-23T13:43:23Z</time>
      </trkpt>
      <trkpt lat="51.05021" lon="2.5255">
        <ele>1.5</ele>
        <time>2020-06-23T13:43:24Z</time>
      </trkpt>
      <trkpt lat="51.05023" lon="2.52559">
        <ele>1.5</ele>
        <time>2020-06-23T13:43:25Z</time>
      </trkpt>
      <trkpt lat="51.05027" lon="2.52567">
        <ele>1.4</ele>
        <time>2020-06-23T13:43:26Z</time>
      </trkpt>
      <trkpt lat="51.0503" lon="2.52575">
        <ele>1.3</ele>
        <time>2020-06-23T13:43:27Z</time>
      </trkpt>
      <trkpt lat="51.05033" lon="2.52583">
        <ele>1.3</ele>
        <time>2020-06-23T13:43:28Z</time>
      </trkpt>
      <trkpt lat="51.05035" lon="2.52591">
        <ele>1.2</ele>
        <time>2020-06-23T13:43:29Z</time>
      </trkpt>
      <trkpt lat="51.05037" lon="2.52599">
        <ele>1.2</ele>
        <time>2020-06-23T13:43:30Z</time>
      </trkpt>
      <trkpt lat="51.0504" lon="2.52608">
        <ele>1.2</ele>
        <time>2020-06-23T13:43:31Z</time>
      </trkpt>
      <trkpt lat="51.05042" lon="2.52615">
        <ele>1.2</ele>
        <time>2020-06-23T13:43:32Z</time>
      </trkpt>
      <trkpt lat="51.05043" lon="2.52622">
        <ele>1.2</ele>
        <time>2020-06-23T13:43:33Z</time>
      </trkpt>
      <trkpt lat="51.05046" lon="2.52629">
        <ele>1.2</ele>
        <time>2020-06-23T13:43:34Z</time>
      </trkpt>
      <trkpt lat="51.05048" lon="2.52639">
        <ele>1.2</ele>
        <time>2020-06-23T13:43:35Z</time>
      </trkpt>
      <trkpt lat="51.0505" lon="2.52647">
        <ele>1.3</ele>
        <time>2020-06-23T13:43:36Z</time>
      </trkpt>
      <trkpt lat="51.05053" lon="2.52654">
        <ele>1.3</ele>
        <time>2020-06-23T13:43:37Z</time>
      </trkpt>
      <trkpt lat="51.05054" lon="2.52662">
        <ele>1.3</ele>
        <time>2020-06-23T13:43:38Z</time>
      </trkpt>
      <trkpt lat="51.05056" lon="2.5267">
        <ele>1.4</ele>
        <time>2020-06-23T13:43:39Z</time>
      </trkpt>
      <trkpt lat="51.05059" lon="2.52676">
        <ele>1.5</ele>
        <time>2020-06-23T13:43:40Z</time>
      </trkpt>
      <trkpt lat="51.05061" lon="2.52681">
        <ele>1.5</ele>
        <time>2020-06-23T13:43:41Z</time>
      </trkpt>
      <trkpt lat="51.05062" lon="2.52687">
        <ele>1.6</ele>
        <time>2020-06-23T13:43:42Z</time>
      </trkpt>
      <trkpt lat="51.05064" lon="2.52691">
        <ele>1.7</ele>
        <time>2020-06-23T13:43:43Z</time>
      </trkpt>
      <trkpt lat="51.05065" lon="2.52696">
        <ele>1.8</ele>
        <time>2020-06-23T13:43:44Z</time>
      </trkpt>
      <trkpt lat="51.05066" lon="2.527">
        <ele>1.8</ele>
        <time>2020-06-23T13:43:45Z</time>
      </trkpt>
      <trkpt lat="51.05067" lon="2.52702">
        <ele>2</ele>
        <time>2020-06-23T13:43:46Z</time>
      </trkpt>
      <trkpt lat="51.05066" lon="2.52703">
        <ele>2</ele>
        <time>2020-06-23T13:43:47Z</time>
      </trkpt>
      <trkpt lat="51.05067" lon="2.52704">
        <ele>2</ele>
        <time>2020-06-23T13:43:48Z</time>
      </trkpt>
      <trkpt lat="51.05066" lon="2.52706">
        <ele>2</ele>
        <time>2020-06-23T13:43:49Z</time>
      </trkpt>
      <trkpt lat="51.05067" lon="2.52707">
        <ele>2</ele>
        <time>2020-06-23T13:43:50Z</time>
      </trkpt>
      <trkpt lat="51.05068" lon="2.52709">
        <ele>1.9</ele>
        <time>2020-06-23T13:43:51Z</time>
      </trkpt>
      <trkpt lat="51.05066" lon="2.52711">
        <ele>1.9</ele>
        <time>2020-06-23T13:43:52Z</time>
      </trkpt>
      <trkpt lat="51.05065" lon="2.52712">
        <ele>1.9</ele>
        <time>2020-06-23T13:43:53Z</time>
      </trkpt>
      <trkpt lat="51.05065" lon="2.52714">
        <ele>1.9</ele>
        <time>2020-06-23T13:43:54Z</time>
      </trkpt>
      <trkpt lat="51.05062" lon="2.52716">
        <ele>1.8</ele>
        <time>2020-06-23T13:43:55Z</time>
      </trkpt>
      <trkpt lat="51.05059" lon="2.5272">
        <ele>1.8</ele>
        <time>2020-06-23T13:43:56Z</time>
      </trkpt>
      <trkpt lat="51.05055" lon="2.52723">
        <ele>1.7</ele>
        <time>2020-06-23T13:43:57Z</time>
      </trkpt>
      <trkpt lat="51.05051" lon="2.52727">
        <ele>1.6</ele>
        <time>2020-06-23T13:43:58Z</time>
      </trkpt>
      <trkpt lat="51.05047" lon="2.52732">
        <ele>1.6</ele>
        <time>2020-06-23T13:43:59Z</time>
      </trkpt>
      <trkpt lat="51.05041" lon="2.52736">
        <ele>1.5</ele>
        <time>2020-06-23T13:44:00Z</time>
      </trkpt>
      <trkpt lat="51.05037" lon="2.5274">
        <ele>1.4</ele>
        <time>2020-06-23T13:44:01Z</time>
      </trkpt>
      <trkpt lat="51.05032" lon="2.52746">
        <ele>1.3</ele>
        <time>2020-06-23T13:44:02Z</time>
      </trkpt>
      <trkpt lat="51.05028" lon="2.52751">
        <ele>1.3</ele>
        <time>2020-06-23T13:44:03Z</time>
      </trkpt>
      <trkpt lat="51.05024" lon="2.52756">
        <ele>1.2</ele>
        <time>2020-06-23T13:44:04Z</time>
      </trkpt>
      <trkpt lat="51.05019" lon="2.52762">
        <ele>1.2</ele>
        <time>2020-06-23T13:44:05Z</time>
      </trkpt>
      <trkpt lat="51.05014" lon="2.52767">
        <ele>1.2</ele>
        <time>2020-06-23T13:44:06Z</time>
      </trkpt>
      <trkpt lat="51.05008" lon="2.52773">
        <ele>1.2</ele>
        <time>2020-06-23T13:44:07Z</time>
      </trkpt>
      <trkpt lat="51.05003" lon="2.52779">
        <ele>1.2</ele>
        <time>2020-06-23T13:44:08Z</time>
      </trkpt>
      <trkpt lat="51.04999" lon="2.52786">
        <ele>1.2</ele>
        <time>2020-06-23T13:44:09Z</time>
      </trkpt>
      <trkpt lat="51.04995" lon="2.52793">
        <ele>1.2</ele>
        <time>2020-06-23T13:44:10Z</time>
      </trkpt>
      <trkpt lat="51.04991" lon="2.52799">
        <ele>1.2</ele>
        <time>2020-06-23T13:44:11Z</time>
      </trkpt>
      <trkpt lat="51.04987" lon="2.52804">
        <ele>1.1</ele>
        <time>2020-06-23T13:44:12Z</time>
      </trkpt>
      <trkpt lat="51.04983" lon="2.5281">
        <ele>1.1</ele>
        <time>2020-06-23T13:44:13Z</time>
      </trkpt>
      <trkpt lat="51.04979" lon="2.52818">
        <ele>1.1</ele>
        <time>2020-06-23T13:44:14Z</time>
      </trkpt>
      <trkpt lat="51.04974" lon="2.52824">
        <ele>1</ele>
        <time>2020-06-23T13:44:15Z</time>
      </trkpt>
      <trkpt lat="51.0497" lon="2.52831">
        <ele>1</ele>
        <time>2020-06-23T13:44:16Z</time>
      </trkpt>
      <trkpt lat="51.04965" lon="2.52837">
        <ele>1</ele>
        <time>2020-06-23T13:44:17Z</time>
      </trkpt>
      <trkpt lat="51.04961" lon="2.52843">
        <ele>1</ele>
        <time>2020-06-23T13:44:18Z</time>
      </trkpt>
      <trkpt lat="51.04957" lon="2.5285">
        <ele>0.9</ele>
        <time>2020-06-23T13:44:19Z</time>
      </trkpt>
      <trkpt lat="51.04952" lon="2.52856">
        <ele>0.9</ele>
        <time>2020-06-23T13:44:20Z</time>
      </trkpt>
      <trkpt lat="51.04948" lon="2.52864">
        <ele>0.9</ele>
        <time>2020-06-23T13:44:21Z</time>
      </trkpt>
      <trkpt lat="51.04943" lon="2.52871">
        <ele>0.8</ele>
        <time>2020-06-23T13:44:22Z</time>
      </trkpt>
      <trkpt lat="51.04938" lon="2.52878">
        <ele>0.7</ele>
        <time>2020-06-23T13:44:23Z</time>
      </trkpt>
      <trkpt lat="51.04933" lon="2.52886">
        <ele>0.7</ele>
        <time>2020-06-23T13:44:24Z</time>
      </trkpt>
      <trkpt lat="51.04928" lon="2.52893">
        <ele>0.6</ele>
        <time>2020-06-23T13:44:25Z</time>
      </trkpt>
      <trkpt lat="51.04923" lon="2.52901">
        <ele>0.6</ele>
        <time>2020-06-23T13:44:26Z</time>
      </trkpt>
      <trkpt lat="51.04918" lon="2.52907">
        <ele>0.6</ele>
        <time>2020-06-23T13:44:27Z</time>
      </trkpt>
      <trkpt lat="51.04914" lon="2.52918">
        <ele>0.6</ele>
        <time>2020-06-23T13:44:28Z</time>
      </trkpt>
      <trkpt lat="51.04909" lon="2.52924">
        <ele>0.5</ele>
        <time>2020-06-23T13:44:29Z</time>
      </trkpt>
      <trkpt lat="51.04904" lon="2.52931">
        <ele>0.5</ele>
        <time>2020-06-23T13:44:30Z</time>
      </trkpt>
      <trkpt lat="51.04899" lon="2.52939">
        <ele>0.5</ele>
        <time>2020-06-23T13:44:31Z</time>
      </trkpt>
      <trkpt lat="51.04894" lon="2.52945">
        <ele>0.4</ele>
        <time>2020-06-23T13:44:32Z</time>
      </trkpt>
      <trkpt lat="51.04888" lon="2.52953">
        <ele>0.4</ele>
        <time>2020-06-23T13:44:33Z</time>
      </trkpt>
      <trkpt lat="51.04884" lon="2.5296">
        <ele>0.4</ele>
        <time>2020-06-23T13:44:34Z</time>
      </trkpt>
      <trkpt lat="51.04879" lon="2.52967">
        <ele>0.5</ele>
        <time>2020-06-23T13:44:35Z</time>
      </trkpt>
      <trkpt lat="51.04875" lon="2.52975">
        <ele>0.5</ele>
        <time>2020-06-23T13:44:36Z</time>
      </trkpt>
      <trkpt lat="51.04871" lon="2.52983">
        <ele>0.6</ele>
        <time>2020-06-23T13:44:37Z</time>
      </trkpt>
      <trkpt lat="51.04867" lon="2.52989">
        <ele>0.7</ele>
        <time>2020-06-23T13:44:38Z</time>
      </trkpt>
      <trkpt lat="51.04864" lon="2.52997">
        <ele>0.8</ele>
        <time>2020-06-23T13:44:39Z</time>
      </trkpt>
      <trkpt lat="51.0486" lon="2.53004">
        <ele>0.6</ele>
        <time>2020-06-23T13:44:40Z</time>
      </trkpt>
      <trkpt lat="51.04855" lon="2.53013">
        <ele>0.3</ele>
        <time>2020-06-23T13:44:41Z</time>
      </trkpt>
      <trkpt lat="51.0485" lon="2.53022">
        <ele>0.1</ele>
        <time>2020-06-23T13:44:42Z</time>
      </trkpt>
      <trkpt lat="51.04846" lon="2.5303">
        <ele>-0.1</ele>
        <time>2020-06-23T13:44:43Z</time>
      </trkpt>
      <trkpt lat="51.04843" lon="2.53039">
        <ele>-0.3</ele>
        <time>2020-06-23T13:44:44Z</time>
      </trkpt>
      <trkpt lat="51.04839" lon="2.53046">
        <ele>-0.4</ele>
        <time>2020-06-23T13:44:45Z</time>
      </trkpt>
      <trkpt lat="51.04834" lon="2.53054">
        <ele>-0.5</ele>
        <time>2020-06-23T13:44:46Z</time>
      </trkpt>
      <trkpt lat="51.04831" lon="2.53064">
        <ele>-0.7</ele>
        <time>2020-06-23T13:44:47Z</time>
      </trkpt>
      <trkpt lat="51.04827" lon="2.53073">
        <ele>-0.8</ele>
        <time>2020-06-23T13:44:48Z</time>
      </trkpt>
      <trkpt lat="51.04823" lon="2.53083">
        <ele>-0.9</ele>
        <time>2020-06-23T13:44:49Z</time>
      </trkpt>
      <trkpt lat="51.04819" lon="2.53092">
        <ele>-1</ele>
        <time>2020-06-23T13:44:50Z</time>
      </trkpt>
      <trkpt lat="51.04814" lon="2.53102">
        <ele>-1.1</ele>
        <time>2020-06-23T13:44:51Z</time>
      </trkpt>
      <trkpt lat="51.0481" lon="2.53112">
        <ele>-1.2</ele>
        <time>2020-06-23T13:44:52Z</time>
      </trkpt>
      <trkpt lat="51.04806" lon="2.53121">
        <ele>-1.3</ele>
        <time>2020-06-23T13:44:53Z</time>
      </trkpt>
      <trkpt lat="51.04802" lon="2.5313">
        <ele>-1.4</ele>
        <time>2020-06-23T13:44:54Z</time>
      </trkpt>
      <trkpt lat="51.04798" lon="2.53138">
        <ele>-1.5</ele>
        <time>2020-06-23T13:44:55Z</time>
      </trkpt>
      <trkpt lat="51.04793" lon="2.53147">
        <ele>-1.6</ele>
        <time>2020-06-23T13:44:56Z</time>
      </trkpt>
      <trkpt lat="51.04788" lon="2.53155">
        <ele>-1.7</ele>
        <time>2020-06-23T13:44:57Z</time>
      </trkpt>
      <trkpt lat="51.04783" lon="2.53163">
        <ele>-1.7</ele>
        <time>2020-06-23T13:44:58Z</time>
      </trkpt>
      <trkpt lat="51.04778" lon="2.53171">
        <ele>-1.7</ele>
        <time>2020-06-23T13:44:59Z</time>
      </trkpt>
      <trkpt lat="51.04773" lon="2.53178">
        <ele>-1.7</ele>
        <time>2020-06-23T13:45:00Z</time>
      </trkpt>
      <trkpt lat="51.04767" lon="2.53184">
        <ele>-1.7</ele>
        <time>2020-06-23T13:45:01Z</time>
      </trkpt>
      <trkpt lat="51.04761" lon="2.53188">
        <ele>-1.7</ele>
        <time>2020-06-23T13:45:02Z</time>
      </trkpt>
      <trkpt lat="51.04755" lon="2.53193">
        <ele>-1.7</ele>
        <time>2020-06-23T13:45:03Z</time>
      </trkpt>
      <trkpt lat="51.04749" lon="2.53197">
        <ele>-1.6</ele>
        <time>2020-06-23T13:45:04Z</time>
      </trkpt>
      <trkpt lat="51.04743" lon="2.53202">
        <ele>-1.6</ele>
        <time>2020-06-23T13:45:05Z</time>
      </trkpt>
      <trkpt lat="51.04737" lon="2.53206">
        <ele>-1.6</ele>
        <time>2020-06-23T13:45:06Z</time>
      </trkpt>
      <trkpt lat="51.04731" lon="2.5321">
        <ele>-1.6</ele>
        <time>2020-06-23T13:45:07Z</time>
      </trkpt>
      <trkpt lat="51.04725" lon="2.53215">
        <ele>-1.6</ele>
        <time>2020-06-23T13:45:08Z</time>
      </trkpt>
      <trkpt lat="51.04719" lon="2.53218">
        <ele>-1.6</ele>
        <time>2020-06-23T13:45:09Z</time>
      </trkpt>
      <trkpt lat="51.04713" lon="2.53222">
        <ele>-1.6</ele>
        <time>2020-06-23T13:45:10Z</time>
      </trkpt>
      <trkpt lat="51.04707" lon="2.53226">
        <ele>-1.6</ele>
        <time>2020-06-23T13:45:11Z</time>
      </trkpt>
      <trkpt lat="51.04701" lon="2.5323">
        <ele>-1.6</ele>
        <time>2020-06-23T13:45:12Z</time>
      </trkpt>
      <trkpt lat="51.04695" lon="2.53233">
        <ele>-1.6</ele>
        <time>2020-06-23T13:45:13Z</time>
      </trkpt>
      <trkpt lat="51.0469" lon="2.53237">
        <ele>-1.5</ele>
        <time>2020-06-23T13:45:14Z</time>
      </trkpt>
      <trkpt lat="51.04684" lon="2.5324">
        <ele>-1.4</ele>
        <time>2020-06-23T13:45:15Z</time>
      </trkpt>
      <trkpt lat="51.04678" lon="2.53243">
        <ele>-1.2</ele>
        <time>2020-06-23T13:45:16Z</time>
      </trkpt>
      <trkpt lat="51.04672" lon="2.53247">
        <ele>-1.1</ele>
        <time>2020-06-23T13:45:17Z</time>
      </trkpt>
      <trkpt lat="51.04666" lon="2.53251">
        <ele>-1.1</ele>
        <time>2020-06-23T13:45:18Z</time>
      </trkpt>
      <trkpt lat="51.04654" lon="2.53258">
        <ele>-1.1</ele>
        <time>2020-06-23T13:45:19Z</time>
      </trkpt>
      <trkpt lat="51.0465" lon="2.53261">
        <ele>-1.1</ele>
        <time>2020-06-23T13:45:20Z</time>
      </trkpt>
      <trkpt lat="51.04645" lon="2.53265">
        <ele>-1.1</ele>
        <time>2020-06-23T13:45:21Z</time>
      </trkpt>
      <trkpt lat="51.0464" lon="2.53268">
        <ele>-1</ele>
        <time>2020-06-23T13:45:22Z</time>
      </trkpt>
      <trkpt lat="51.04635" lon="2.53271">
        <ele>-1</ele>
        <time>2020-06-23T13:45:23Z</time>
      </trkpt>
      <trkpt lat="51.0463" lon="2.53274">
        <ele>-1</ele>
        <time>2020-06-23T13:45:24Z</time>
      </trkpt>
      <trkpt lat="51.04623" lon="2.53279">
        <ele>-1</ele>
        <time>2020-06-23T13:45:25Z</time>
      </trkpt>
      <trkpt lat="51.04617" lon="2.53283">
        <ele>-1</ele>
        <time>2020-06-23T13:45:26Z</time>
      </trkpt>
      <trkpt lat="51.0461" lon="2.53288">
        <ele>-1</ele>
        <time>2020-06-23T13:45:27Z</time>
      </trkpt>
      <trkpt lat="51.04603" lon="2.53291">
        <ele>-1.1</ele>
        <time>2020-06-23T13:45:28Z</time>
      </trkpt>
      <trkpt lat="51.04596" lon="2.53295">
        <ele>-1.1</ele>
        <time>2020-06-23T13:45:29Z</time>
      </trkpt>
      <trkpt lat="51.0459" lon="2.53299">
        <ele>-1.1</ele>
        <time>2020-06-23T13:45:30Z</time>
      </trkpt>
      <trkpt lat="51.04584" lon="2.53303">
        <ele>-1.1</ele>
        <time>2020-06-23T13:45:31Z</time>
      </trkpt>
      <trkpt lat="51.04579" lon="2.53305">
        <ele>-1</ele>
        <time>2020-06-23T13:45:32Z</time>
      </trkpt>
      <trkpt lat="51.04573" lon="2.53308">
        <ele>-1</ele>
        <time>2020-06-23T13:45:33Z</time>
      </trkpt>
      <trkpt lat="51.04566" lon="2.53312">
        <ele>-1</ele>
        <time>2020-06-23T13:45:34Z</time>
      </trkpt>
      <trkpt lat="51.0456" lon="2.53314">
        <ele>-1</ele>
        <time>2020-06-23T13:45:35Z</time>
      </trkpt>
      <trkpt lat="51.04554" lon="2.53315">
        <ele>-1</ele>
        <time>2020-06-23T13:45:36Z</time>
      </trkpt>
      <trkpt lat="51.04549" lon="2.53316">
        <ele>-1</ele>
        <time>2020-06-23T13:45:37Z</time>
      </trkpt>
      <trkpt lat="51.04545" lon="2.53316">
        <ele>-1</ele>
        <time>2020-06-23T13:45:38Z</time>
      </trkpt>
      <trkpt lat="51.04541" lon="2.53311">
        <ele>-1.1</ele>
        <time>2020-06-23T13:45:39Z</time>
      </trkpt>
      <trkpt lat="51.04537" lon="2.53303">
        <ele>-1.2</ele>
        <time>2020-06-23T13:45:40Z</time>
      </trkpt>
      <trkpt lat="51.04534" lon="2.53296">
        <ele>-1.2</ele>
        <time>2020-06-23T13:45:41Z</time>
      </trkpt>
      <trkpt lat="51.0453" lon="2.53289">
        <ele>-1.3</ele>
        <time>2020-06-23T13:45:42Z</time>
      </trkpt>
      <trkpt lat="51.04525" lon="2.53285">
        <ele>-1.3</ele>
        <time>2020-06-23T13:45:43Z</time>
      </trkpt>
      <trkpt lat="51.0452" lon="2.53281">
        <ele>-1.4</ele>
        <time>2020-06-23T13:45:44Z</time>
      </trkpt>
      <trkpt lat="51.04514" lon="2.5328">
        <ele>-1.4</ele>
        <time>2020-06-23T13:45:45Z</time>
      </trkpt>
      <trkpt lat="51.04508" lon="2.53279">
        <ele>-1.4</ele>
        <time>2020-06-23T13:45:46Z</time>
      </trkpt>
      <trkpt lat="51.04502" lon="2.53282">
        <ele>-1.4</ele>
        <time>2020-06-23T13:45:47Z</time>
      </trkpt>
      <trkpt lat="51.04496" lon="2.53286">
        <ele>-1.3</ele>
        <time>2020-06-23T13:45:48Z</time>
      </trkpt>
      <trkpt lat="51.04491" lon="2.53291">
        <ele>-1.3</ele>
        <time>2020-06-23T13:45:49Z</time>
      </trkpt>
      <trkpt lat="51.04486" lon="2.53297">
        <ele>-1.2</ele>
        <time>2020-06-23T13:45:50Z</time>
      </trkpt>
      <trkpt lat="51.04482" lon="2.53305">
        <ele>-1.1</ele>
        <time>2020-06-23T13:45:51Z</time>
      </trkpt>
      <trkpt lat="51.0448" lon="2.53314">
        <ele>-1.1</ele>
        <time>2020-06-23T13:45:52Z</time>
      </trkpt>
      <trkpt lat="51.04477" lon="2.53323">
        <ele>-1.1</ele>
        <time>2020-06-23T13:45:53Z</time>
      </trkpt>
      <trkpt lat="51.04475" lon="2.53332">
        <ele>-1.2</ele>
        <time>2020-06-23T13:45:54Z</time>
      </trkpt>
      <trkpt lat="51.04471" lon="2.5334">
        <ele>-1.3</ele>
        <time>2020-06-23T13:45:55Z</time>
      </trkpt>
      <trkpt lat="51.04466" lon="2.53347">
        <ele>-1.3</ele>
        <time>2020-06-23T13:45:56Z</time>
      </trkpt>
      <trkpt lat="51.04461" lon="2.53352">
        <ele>-1.4</ele>
        <time>2020-06-23T13:45:57Z</time>
      </trkpt>
      <trkpt lat="51.04455" lon="2.53357">
        <ele>-1.4</ele>
        <time>2020-06-23T13:45:58Z</time>
      </trkpt>
      <trkpt lat="51.04449" lon="2.53363">
        <ele>-1.5</ele>
        <time>2020-06-23T13:45:59Z</time>
      </trkpt>
      <trkpt lat="51.04444" lon="2.53368">
        <ele>-1.5</ele>
        <time>2020-06-23T13:46:00Z</time>
      </trkpt>
      <trkpt lat="51.04438" lon="2.53374">
        <ele>-1.5</ele>
        <time>2020-06-23T13:46:01Z</time>
      </trkpt>
      <trkpt lat="51.04433" lon="2.5338">
        <ele>-1.6</ele>
        <time>2020-06-23T13:46:02Z</time>
      </trkpt>
      <trkpt lat="51.04427" lon="2.53385">
        <ele>-1.6</ele>
        <time>2020-06-23T13:46:03Z</time>
      </trkpt>
      <trkpt lat="51.04422" lon="2.53391">
        <ele>-1.6</ele>
        <time>2020-06-23T13:46:04Z</time>
      </trkpt>
      <trkpt lat="51.04416" lon="2.53397">
        <ele>-1.6</ele>
        <time>2020-06-23T13:46:05Z</time>
      </trkpt>
      <trkpt lat="51.0441" lon="2.53403">
        <ele>-1.6</ele>
        <time>2020-06-23T13:46:06Z</time>
      </trkpt>
      <trkpt lat="51.04404" lon="2.53408">
        <ele>-1.5</ele>
        <time>2020-06-23T13:46:07Z</time>
      </trkpt>
      <trkpt lat="51.04398" lon="2.53414">
        <ele>-1.4</ele>
        <time>2020-06-23T13:46:08Z</time>
      </trkpt>
      <trkpt lat="51.04392" lon="2.5342">
        <ele>-1.2</ele>
        <time>2020-06-23T13:46:09Z</time>
      </trkpt>
      <trkpt lat="51.04386" lon="2.53425">
        <ele>-0.9</ele>
        <time>2020-06-23T13:46:10Z</time>
      </trkpt>
      <trkpt lat="51.04379" lon="2.53431">
        <ele>-1</ele>
        <time>2020-06-23T13:46:11Z</time>
      </trkpt>
      <trkpt lat="51.04373" lon="2.53436">
        <ele>-1.1</ele>
        <time>2020-06-23T13:46:12Z</time>
      </trkpt>
      <trkpt lat="51.04367" lon="2.53441">
        <ele>-1.1</ele>
        <time>2020-06-23T13:46:13Z</time>
      </trkpt>
      <trkpt lat="51.04361" lon="2.53445">
        <ele>-1.2</ele>
        <time>2020-06-23T13:46:14Z</time>
      </trkpt>
      <trkpt lat="51.04355" lon="2.5345">
        <ele>-1.2</ele>
        <time>2020-06-23T13:46:15Z</time>
      </trkpt>
      <trkpt lat="51.04349" lon="2.53454">
        <ele>-1.2</ele>
        <time>2020-06-23T13:46:16Z</time>
      </trkpt>
      <trkpt lat="51.04343" lon="2.53458">
        <ele>-1.2</ele>
        <time>2020-06-23T13:46:17Z</time>
      </trkpt>
      <trkpt lat="51.04338" lon="2.53462">
        <ele>-1.2</ele>
        <time>2020-06-23T13:46:18Z</time>
      </trkpt>
      <trkpt lat="51.04332" lon="2.53465">
        <ele>-1.2</ele>
        <time>2020-06-23T13:46:19Z</time>
      </trkpt>
      <trkpt lat="51.04326" lon="2.53468">
        <ele>-1.2</ele>
        <time>2020-06-23T13:46:20Z</time>
      </trkpt>
      <trkpt lat="51.0432" lon="2.53473">
        <ele>-1.2</ele>
        <time>2020-06-23T13:46:21Z</time>
      </trkpt>
      <trkpt lat="51.04314" lon="2.53478">
        <ele>-1.2</ele>
        <time>2020-06-23T13:46:22Z</time>
      </trkpt>
      <trkpt lat="51.04307" lon="2.53482">
        <ele>-1.2</ele>
        <time>2020-06-23T13:46:23Z</time>
      </trkpt>
      <trkpt lat="51.04301" lon="2.53486">
        <ele>-1.2</ele>
        <time>2020-06-23T13:46:24Z</time>
      </trkpt>
      <trkpt lat="51.04295" lon="2.5349">
        <ele>-1.2</ele>
        <time>2020-06-23T13:46:25Z</time>
      </trkpt>
      <trkpt lat="51.04289" lon="2.53494">
        <ele>-1.2</ele>
        <time>2020-06-23T13:46:26Z</time>
      </trkpt>
      <trkpt lat="51.04283" lon="2.53497">
        <ele>-1.2</ele>
        <time>2020-06-23T13:46:27Z</time>
      </trkpt>
      <trkpt lat="51.04276" lon="2.53501">
        <ele>-1.2</ele>
        <time>2020-06-23T13:46:28Z</time>
      </trkpt>
      <trkpt lat="51.0427" lon="2.53505">
        <ele>-1.2</ele>
        <time>2020-06-23T13:46:29Z</time>
      </trkpt>
      <trkpt lat="51.04263" lon="2.53509">
        <ele>-1.2</ele>
        <time>2020-06-23T13:46:30Z</time>
      </trkpt>
      <trkpt lat="51.04257" lon="2.53513">
        <ele>-1.2</ele>
        <time>2020-06-23T13:46:31Z</time>
      </trkpt>
      <trkpt lat="51.0425" lon="2.53518">
        <ele>-1.2</ele>
        <time>2020-06-23T13:46:32Z</time>
      </trkpt>
      <trkpt lat="51.04243" lon="2.53522">
        <ele>-1.2</ele>
        <time>2020-06-23T13:46:33Z</time>
      </trkpt>
      <trkpt lat="51.04237" lon="2.53527">
        <ele>-1.2</ele>
        <time>2020-06-23T13:46:34Z</time>
      </trkpt>
      <trkpt lat="51.0423" lon="2.53531">
        <ele>-1.2</ele>
        <time>2020-06-23T13:46:35Z</time>
      </trkpt>
      <trkpt lat="51.04223" lon="2.53536">
        <ele>-1.2</ele>
        <time>2020-06-23T13:46:36Z</time>
      </trkpt>
      <trkpt lat="51.04216" lon="2.53541">
        <ele>-1.2</ele>
        <time>2020-06-23T13:46:37Z</time>
      </trkpt>
      <trkpt lat="51.04209" lon="2.53545">
        <ele>-1.2</ele>
        <time>2020-06-23T13:46:38Z</time>
      </trkpt>
      <trkpt lat="51.04202" lon="2.5355">
        <ele>-1.2</ele>
        <time>2020-06-23T13:46:39Z</time>
      </trkpt>
      <trkpt lat="51.04195" lon="2.53554">
        <ele>-1.2</ele>
        <time>2020-06-23T13:46:40Z</time>
      </trkpt>
      <trkpt lat="51.04188" lon="2.53559">
        <ele>-1.3</ele>
        <time>2020-06-23T13:46:41Z</time>
      </trkpt>
      <trkpt lat="51.04181" lon="2.53563">
        <ele>-1.3</ele>
        <time>2020-06-23T13:46:42Z</time>
      </trkpt>
      <trkpt lat="51.04175" lon="2.53567">
        <ele>-1.3</ele>
        <time>2020-06-23T13:46:43Z</time>
      </trkpt>
      <trkpt lat="51.04168" lon="2.53572">
        <ele>-1.3</ele>
        <time>2020-06-23T13:46:44Z</time>
      </trkpt>
      <trkpt lat="51.04161" lon="2.53576">
        <ele>-1.4</ele>
        <time>2020-06-23T13:46:45Z</time>
      </trkpt>
      <trkpt lat="51.04154" lon="2.5358">
        <ele>-1.4</ele>
        <time>2020-06-23T13:46:46Z</time>
      </trkpt>
      <trkpt lat="51.04147" lon="2.53584">
        <ele>-1.4</ele>
        <time>2020-06-23T13:46:47Z</time>
      </trkpt>
      <trkpt lat="51.0414" lon="2.53588">
        <ele>-1.4</ele>
        <time>2020-06-23T13:46:48Z</time>
      </trkpt>
      <trkpt lat="51.04133" lon="2.53593">
        <ele>-1.3</ele>
        <time>2020-06-23T13:46:49Z</time>
      </trkpt>
      <trkpt lat="51.04126" lon="2.53598">
        <ele>-1.1</ele>
        <time>2020-06-23T13:46:50Z</time>
      </trkpt>
      <trkpt lat="51.04119" lon="2.53602">
        <ele>-0.8</ele>
        <time>2020-06-23T13:46:51Z</time>
      </trkpt>
      <trkpt lat="51.04112" lon="2.53607">
        <ele>-1</ele>
        <time>2020-06-23T13:46:52Z</time>
      </trkpt>
      <trkpt lat="51.04105" lon="2.53611">
        <ele>-1.1</ele>
        <time>2020-06-23T13:46:53Z</time>
      </trkpt>
      <trkpt lat="51.04098" lon="2.53616">
        <ele>-1.2</ele>
        <time>2020-06-23T13:46:54Z</time>
      </trkpt>
      <trkpt lat="51.04091" lon="2.5362">
        <ele>-1.2</ele>
        <time>2020-06-23T13:46:55Z</time>
      </trkpt>
      <trkpt lat="51.04085" lon="2.53625">
        <ele>-1.2</ele>
        <time>2020-06-23T13:46:56Z</time>
      </trkpt>
      <trkpt lat="51.04078" lon="2.53629">
        <ele>-1.3</ele>
        <time>2020-06-23T13:46:57Z</time>
      </trkpt>
      <trkpt lat="51.04071" lon="2.53633">
        <ele>-1.3</ele>
        <time>2020-06-23T13:46:58Z</time>
      </trkpt>
      <trkpt lat="51.04064" lon="2.53638">
        <ele>-1.3</ele>
        <time>2020-06-23T13:46:59Z</time>
      </trkpt>
      <trkpt lat="51.04057" lon="2.53642">
        <ele>-1.2</ele>
        <time>2020-06-23T13:47:00Z</time>
      </trkpt>
      <trkpt lat="51.0405" lon="2.53647">
        <ele>-1.2</ele>
        <time>2020-06-23T13:47:01Z</time>
      </trkpt>
      <trkpt lat="51.04043" lon="2.53652">
        <ele>-1.2</ele>
        <time>2020-06-23T13:47:02Z</time>
      </trkpt>
      <trkpt lat="51.04035" lon="2.53657">
        <ele>-1.2</ele>
        <time>2020-06-23T13:47:03Z</time>
      </trkpt>
      <trkpt lat="51.04028" lon="2.53662">
        <ele>-1.2</ele>
        <time>2020-06-23T13:47:04Z</time>
      </trkpt>
      <trkpt lat="51.04021" lon="2.53666">
        <ele>-1.3</ele>
        <time>2020-06-23T13:47:05Z</time>
      </trkpt>
      <trkpt lat="51.04013" lon="2.53671">
        <ele>-1.3</ele>
        <time>2020-06-23T13:47:06Z</time>
      </trkpt>
      <trkpt lat="51.04006" lon="2.53676">
        <ele>-1.3</ele>
        <time>2020-06-23T13:47:07Z</time>
      </trkpt>
      <trkpt lat="51.03998" lon="2.53681">
        <ele>-1.4</ele>
        <time>2020-06-23T13:47:08Z</time>
      </trkpt>
      <trkpt lat="51.0399" lon="2.53686">
        <ele>-1.4</ele>
        <time>2020-06-23T13:47:09Z</time>
      </trkpt>
      <trkpt lat="51.03983" lon="2.5369">
        <ele>-1.4</ele>
        <time>2020-06-23T13:47:10Z</time>
      </trkpt>
      <trkpt lat="51.03975" lon="2.53695">
        <ele>-1.4</ele>
        <time>2020-06-23T13:47:11Z</time>
      </trkpt>
      <trkpt lat="51.03967" lon="2.537">
        <ele>-1.4</ele>
        <time>2020-06-23T13:47:12Z</time>
      </trkpt>
      <trkpt lat="51.0396" lon="2.53705">
        <ele>-1.4</ele>
        <time>2020-06-23T13:47:13Z</time>
      </trkpt>
      <trkpt lat="51.03952" lon="2.53709">
        <ele>-1.4</ele>
        <time>2020-06-23T13:47:14Z</time>
      </trkpt>
      <trkpt lat="51.03944" lon="2.53714">
        <ele>-1.4</ele>
        <time>2020-06-23T13:47:15Z</time>
      </trkpt>
      <trkpt lat="51.03937" lon="2.53718">
        <ele>-1.4</ele>
        <time>2020-06-23T13:47:16Z</time>
      </trkpt>
      <trkpt lat="51.03929" lon="2.53723">
        <ele>-1.4</ele>
        <time>2020-06-23T13:47:17Z</time>
      </trkpt>
      <trkpt lat="51.03921" lon="2.53729">
        <ele>-1.4</ele>
        <time>2020-06-23T13:47:18Z</time>
      </trkpt>
      <trkpt lat="51.03913" lon="2.53734">
        <ele>-1.4</ele>
        <time>2020-06-23T13:47:19Z</time>
      </trkpt>
      <trkpt lat="51.03905" lon="2.53739">
        <ele>-1.4</ele>
        <time>2020-06-23T13:47:20Z</time>
      </trkpt>
      <trkpt lat="51.03897" lon="2.53744">
        <ele>-1.4</ele>
        <time>2020-06-23T13:47:21Z</time>
      </trkpt>
      <trkpt lat="51.0389" lon="2.53749">
        <ele>-1.4</ele>
        <time>2020-06-23T13:47:22Z</time>
      </trkpt>
      <trkpt lat="51.03882" lon="2.53754">
        <ele>-1.5</ele>
        <time>2020-06-23T13:47:23Z</time>
      </trkpt>
      <trkpt lat="51.03874" lon="2.53759">
        <ele>-1.5</ele>
        <time>2020-06-23T13:47:24Z</time>
      </trkpt>
      <trkpt lat="51.03866" lon="2.53764">
        <ele>-1.5</ele>
        <time>2020-06-23T13:47:25Z</time>
      </trkpt>
      <trkpt lat="51.03859" lon="2.53769">
        <ele>-1.6</ele>
        <time>2020-06-23T13:47:26Z</time>
      </trkpt>
      <trkpt lat="51.03851" lon="2.53774">
        <ele>-1.6</ele>
        <time>2020-06-23T13:47:27Z</time>
      </trkpt>
      <trkpt lat="51.03844" lon="2.53779">
        <ele>-1.7</ele>
        <time>2020-06-23T13:47:28Z</time>
      </trkpt>
      <trkpt lat="51.03836" lon="2.53784">
        <ele>-1.7</ele>
        <time>2020-06-23T13:47:29Z</time>
      </trkpt>
      <trkpt lat="51.03829" lon="2.53789">
        <ele>-1.7</ele>
        <time>2020-06-23T13:47:30Z</time>
      </trkpt>
      <trkpt lat="51.03821" lon="2.53794">
        <ele>-1.7</ele>
        <time>2020-06-23T13:47:31Z</time>
      </trkpt>
      <trkpt lat="51.03814" lon="2.53798">
        <ele>-1.6</ele>
        <time>2020-06-23T13:47:32Z</time>
      </trkpt>
      <trkpt lat="51.03807" lon="2.53802">
        <ele>-1.6</ele>
        <time>2020-06-23T13:47:33Z</time>
      </trkpt>
      <trkpt lat="51.038" lon="2.53807">
        <ele>-1.6</ele>
        <time>2020-06-23T13:47:34Z</time>
      </trkpt>
      <trkpt lat="51.03792" lon="2.53811">
        <ele>-1.6</ele>
        <time>2020-06-23T13:47:35Z</time>
      </trkpt>
      <trkpt lat="51.03785" lon="2.53816">
        <ele>-1.6</ele>
        <time>2020-06-23T13:47:36Z</time>
      </trkpt>
      <trkpt lat="51.03778" lon="2.53821">
        <ele>-1.6</ele>
        <time>2020-06-23T13:47:37Z</time>
      </trkpt>
      <trkpt lat="51.03771" lon="2.53826">
        <ele>-1.6</ele>
        <time>2020-06-23T13:47:38Z</time>
      </trkpt>
      <trkpt lat="51.03764" lon="2.5383">
        <ele>-1.6</ele>
        <time>2020-06-23T13:47:39Z</time>
      </trkpt>
      <trkpt lat="51.03758" lon="2.53835">
        <ele>-1.6</ele>
        <time>2020-06-23T13:47:40Z</time>
      </trkpt>
      <trkpt lat="51.03751" lon="2.5384">
        <ele>-1.6</ele>
        <time>2020-06-23T13:47:41Z</time>
      </trkpt>
      <trkpt lat="51.03745" lon="2.53844">
        <ele>-1.6</ele>
        <time>2020-06-23T13:47:42Z</time>
      </trkpt>
      <trkpt lat="51.03738" lon="2.53849">
        <ele>-1.6</ele>
        <time>2020-06-23T13:47:43Z</time>
      </trkpt>
      <trkpt lat="51.03731" lon="2.53853">
        <ele>-1.6</ele>
        <time>2020-06-23T13:47:44Z</time>
      </trkpt>
      <trkpt lat="51.03724" lon="2.53858">
        <ele>-1.6</ele>
        <time>2020-06-23T13:47:45Z</time>
      </trkpt>
      <trkpt lat="51.03717" lon="2.53862">
        <ele>-1.6</ele>
        <time>2020-06-23T13:47:46Z</time>
      </trkpt>
      <trkpt lat="51.0371" lon="2.53867">
        <ele>-1.6</ele>
        <time>2020-06-23T13:47:47Z</time>
      </trkpt>
      <trkpt lat="51.03703" lon="2.53872">
        <ele>-1.6</ele>
        <time>2020-06-23T13:47:48Z</time>
      </trkpt>
      <trkpt lat="51.03696" lon="2.53877">
        <ele>-1.6</ele>
        <time>2020-06-23T13:47:49Z</time>
      </trkpt>
      <trkpt lat="51.03689" lon="2.53881">
        <ele>-1.6</ele>
        <time>2020-06-23T13:47:50Z</time>
      </trkpt>
      <trkpt lat="51.03682" lon="2.53886">
        <ele>-1.6</ele>
        <time>2020-06-23T13:47:51Z</time>
      </trkpt>
      <trkpt lat="51.03675" lon="2.53891">
        <ele>-1.5</ele>
        <time>2020-06-23T13:47:52Z</time>
      </trkpt>
      <trkpt lat="51.03667" lon="2.53896">
        <ele>-1.5</ele>
        <time>2020-06-23T13:47:53Z</time>
      </trkpt>
      <trkpt lat="51.0366" lon="2.539">
        <ele>-1.6</ele>
        <time>2020-06-23T13:47:54Z</time>
      </trkpt>
      <trkpt lat="51.03653" lon="2.53905">
        <ele>-1.6</ele>
        <time>2020-06-23T13:47:55Z</time>
      </trkpt>
      <trkpt lat="51.03646" lon="2.5391">
        <ele>-1.6</ele>
        <time>2020-06-23T13:47:56Z</time>
      </trkpt>
      <trkpt lat="51.03639" lon="2.53914">
        <ele>-1.6</ele>
        <time>2020-06-23T13:47:57Z</time>
      </trkpt>
      <trkpt lat="51.03632" lon="2.53919">
        <ele>-1.6</ele>
        <time>2020-06-23T13:47:58Z</time>
      </trkpt>
      <trkpt lat="51.03625" lon="2.53924">
        <ele>-1.7</ele>
        <time>2020-06-23T13:47:59Z</time>
      </trkpt>
      <trkpt lat="51.03618" lon="2.53928">
        <ele>-1.7</ele>
        <time>2020-06-23T13:48:00Z</time>
      </trkpt>
      <trkpt lat="51.0361" lon="2.53933">
        <ele>-1.7</ele>
        <time>2020-06-23T13:48:01Z</time>
      </trkpt>
      <trkpt lat="51.03603" lon="2.53938">
        <ele>-1.7</ele>
        <time>2020-06-23T13:48:02Z</time>
      </trkpt>
      <trkpt lat="51.03596" lon="2.53943">
        <ele>-1.7</ele>
        <time>2020-06-23T13:48:03Z</time>
      </trkpt>
      <trkpt lat="51.03588" lon="2.53947">
        <ele>-1.7</ele>
        <time>2020-06-23T13:48:04Z</time>
      </trkpt>
      <trkpt lat="51.03581" lon="2.53952">
        <ele>-1.7</ele>
        <time>2020-06-23T13:48:05Z</time>
      </trkpt>
      <trkpt lat="51.03574" lon="2.53957">
        <ele>-1.7</ele>
        <time>2020-06-23T13:48:06Z</time>
      </trkpt>
      <trkpt lat="51.03567" lon="2.53962">
        <ele>-1.7</ele>
        <time>2020-06-23T13:48:07Z</time>
      </trkpt>
      <trkpt lat="51.0356" lon="2.53966">
        <ele>-1.8</ele>
        <time>2020-06-23T13:48:08Z</time>
      </trkpt>
      <trkpt lat="51.03552" lon="2.53971">
        <ele>-1.8</ele>
        <time>2020-06-23T13:48:09Z</time>
      </trkpt>
      <trkpt lat="51.03545" lon="2.53976">
        <ele>-1.8</ele>
        <time>2020-06-23T13:48:10Z</time>
      </trkpt>
      <trkpt lat="51.03538" lon="2.5398">
        <ele>-1.8</ele>
        <time>2020-06-23T13:48:11Z</time>
      </trkpt>
      <trkpt lat="51.0353" lon="2.53985">
        <ele>-1.8</ele>
        <time>2020-06-23T13:48:12Z</time>
      </trkpt>
      <trkpt lat="51.03523" lon="2.5399">
        <ele>-1.8</ele>
        <time>2020-06-23T13:48:13Z</time>
      </trkpt>
      <trkpt lat="51.03516" lon="2.53994">
        <ele>-1.8</ele>
        <time>2020-06-23T13:48:14Z</time>
      </trkpt>
      <trkpt lat="51.03508" lon="2.53999">
        <ele>-1.8</ele>
        <time>2020-06-23T13:48:15Z</time>
      </trkpt>
      <trkpt lat="51.03501" lon="2.54004">
        <ele>-1.8</ele>
        <time>2020-06-23T13:48:16Z</time>
      </trkpt>
      <trkpt lat="51.03494" lon="2.54008">
        <ele>-1.7</ele>
        <time>2020-06-23T13:48:17Z</time>
      </trkpt>
      <trkpt lat="51.03487" lon="2.54013">
        <ele>-1.6</ele>
        <time>2020-06-23T13:48:18Z</time>
      </trkpt>
      <trkpt lat="51.0348" lon="2.54018">
        <ele>-1.5</ele>
        <time>2020-06-23T13:48:19Z</time>
      </trkpt>
      <trkpt lat="51.03473" lon="2.54023">
        <ele>-1.2</ele>
        <time>2020-06-23T13:48:20Z</time>
      </trkpt>
      <trkpt lat="51.03466" lon="2.54027">
        <ele>-0.9</ele>
        <time>2020-06-23T13:48:21Z</time>
      </trkpt>
      <trkpt lat="51.03459" lon="2.54031">
        <ele>-1</ele>
        <time>2020-06-23T13:48:22Z</time>
      </trkpt>
      <trkpt lat="51.03452" lon="2.54036">
        <ele>-1.1</ele>
        <time>2020-06-23T13:48:23Z</time>
      </trkpt>
      <trkpt lat="51.03445" lon="2.5404">
        <ele>-1.2</ele>
        <time>2020-06-23T13:48:24Z</time>
      </trkpt>
      <trkpt lat="51.03438" lon="2.54045">
        <ele>-1.2</ele>
        <time>2020-06-23T13:48:25Z</time>
      </trkpt>
      <trkpt lat="51.03431" lon="2.54049">
        <ele>-1.2</ele>
        <time>2020-06-23T13:48:26Z</time>
      </trkpt>
      <trkpt lat="51.03424" lon="2.54054">
        <ele>-1.3</ele>
        <time>2020-06-23T13:48:27Z</time>
      </trkpt>
      <trkpt lat="51.03417" lon="2.54059">
        <ele>-1.3</ele>
        <time>2020-06-23T13:48:28Z</time>
      </trkpt>
      <trkpt lat="51.0341" lon="2.54063">
        <ele>-1.3</ele>
        <time>2020-06-23T13:48:29Z</time>
      </trkpt>
      <trkpt lat="51.03403" lon="2.54068">
        <ele>-1.3</ele>
        <time>2020-06-23T13:48:30Z</time>
      </trkpt>
      <trkpt lat="51.03395" lon="2.54073">
        <ele>-1.3</ele>
        <time>2020-06-23T13:48:31Z</time>
      </trkpt>
      <trkpt lat="51.03388" lon="2.54078">
        <ele>-1.4</ele>
        <time>2020-06-23T13:48:32Z</time>
      </trkpt>
      <trkpt lat="51.03381" lon="2.54083">
        <ele>-1.4</ele>
        <time>2020-06-23T13:48:33Z</time>
      </trkpt>
      <trkpt lat="51.03373" lon="2.54087">
        <ele>-1.4</ele>
        <time>2020-06-23T13:48:34Z</time>
      </trkpt>
      <trkpt lat="51.03366" lon="2.54092">
        <ele>-1.4</ele>
        <time>2020-06-23T13:48:35Z</time>
      </trkpt>
      <trkpt lat="51.03359" lon="2.54096">
        <ele>-1.5</ele>
        <time>2020-06-23T13:48:36Z</time>
      </trkpt>
      <trkpt lat="51.03351" lon="2.54101">
        <ele>-1.5</ele>
        <time>2020-06-23T13:48:37Z</time>
      </trkpt>
      <trkpt lat="51.03344" lon="2.54106">
        <ele>-1.5</ele>
        <time>2020-06-23T13:48:38Z</time>
      </trkpt>
      <trkpt lat="51.03337" lon="2.5411">
        <ele>-1.6</ele>
        <time>2020-06-23T13:48:39Z</time>
      </trkpt>
      <trkpt lat="51.0333" lon="2.54114">
        <ele>-1.6</ele>
        <time>2020-06-23T13:48:40Z</time>
      </trkpt>
      <trkpt lat="51.03323" lon="2.54119">
        <ele>-1.7</ele>
        <time>2020-06-23T13:48:41Z</time>
      </trkpt>
      <trkpt lat="51.03316" lon="2.54124">
        <ele>-1.7</ele>
        <time>2020-06-23T13:48:42Z</time>
      </trkpt>
      <trkpt lat="51.03309" lon="2.54129">
        <ele>-1.7</ele>
        <time>2020-06-23T13:48:43Z</time>
      </trkpt>
      <trkpt lat="51.03301" lon="2.54133">
        <ele>-1.7</ele>
        <time>2020-06-23T13:48:44Z</time>
      </trkpt>
      <trkpt lat="51.03294" lon="2.54138">
        <ele>-1.7</ele>
        <time>2020-06-23T13:48:45Z</time>
      </trkpt>
      <trkpt lat="51.03287" lon="2.54142">
        <ele>-1.7</ele>
        <time>2020-06-23T13:48:46Z</time>
      </trkpt>
      <trkpt lat="51.0328" lon="2.54147">
        <ele>-1.7</ele>
        <time>2020-06-23T13:48:47Z</time>
      </trkpt>
      <trkpt lat="51.03272" lon="2.54152">
        <ele>-1.7</ele>
        <time>2020-06-23T13:48:48Z</time>
      </trkpt>
      <trkpt lat="51.03265" lon="2.54156">
        <ele>-1.8</ele>
        <time>2020-06-23T13:48:49Z</time>
      </trkpt>
      <trkpt lat="51.03258" lon="2.54161">
        <ele>-1.8</ele>
        <time>2020-06-23T13:48:50Z</time>
      </trkpt>
      <trkpt lat="51.03251" lon="2.54166">
        <ele>-1.8</ele>
        <time>2020-06-23T13:48:51Z</time>
      </trkpt>
      <trkpt lat="51.03244" lon="2.54171">
        <ele>-1.8</ele>
        <time>2020-06-23T13:48:52Z</time>
      </trkpt>
      <trkpt lat="51.03237" lon="2.54175">
        <ele>-1.9</ele>
        <time>2020-06-23T13:48:53Z</time>
      </trkpt>
      <trkpt lat="51.0323" lon="2.54179">
        <ele>-1.9</ele>
        <time>2020-06-23T13:48:54Z</time>
      </trkpt>
      <trkpt lat="51.03223" lon="2.54184">
        <ele>-1.9</ele>
        <time>2020-06-23T13:48:55Z</time>
      </trkpt>
      <trkpt lat="51.03216" lon="2.54189">
        <ele>-1.8</ele>
        <time>2020-06-23T13:48:56Z</time>
      </trkpt>
      <trkpt lat="51.03209" lon="2.54194">
        <ele>-1.8</ele>
        <time>2020-06-23T13:48:57Z</time>
      </trkpt>
      <trkpt lat="51.03202" lon="2.54198">
        <ele>-1.8</ele>
        <time>2020-06-23T13:48:58Z</time>
      </trkpt>
      <trkpt lat="51.03195" lon="2.54203">
        <ele>-1.8</ele>
        <time>2020-06-23T13:48:59Z</time>
      </trkpt>
      <trkpt lat="51.03188" lon="2.54208">
        <ele>-1.8</ele>
        <time>2020-06-23T13:49:00Z</time>
      </trkpt>
      <trkpt lat="51.03181" lon="2.54212">
        <ele>-1.8</ele>
        <time>2020-06-23T13:49:01Z</time>
      </trkpt>
      <trkpt lat="51.03174" lon="2.54216">
        <ele>-1.8</ele>
        <time>2020-06-23T13:49:02Z</time>
      </trkpt>
      <trkpt lat="51.03167" lon="2.54221">
        <ele>-1.8</ele>
        <time>2020-06-23T13:49:03Z</time>
      </trkpt>
      <trkpt lat="51.0316" lon="2.54226">
        <ele>-1.8</ele>
        <time>2020-06-23T13:49:04Z</time>
      </trkpt>
      <trkpt lat="51.03153" lon="2.5423">
        <ele>-1.8</ele>
        <time>2020-06-23T13:49:05Z</time>
      </trkpt>
      <trkpt lat="51.03146" lon="2.54234">
        <ele>-1.8</ele>
        <time>2020-06-23T13:49:06Z</time>
      </trkpt>
      <trkpt lat="51.03139" lon="2.54239">
        <ele>-1.8</ele>
        <time>2020-06-23T13:49:07Z</time>
      </trkpt>
      <trkpt lat="51.03131" lon="2.54243">
        <ele>-1.8</ele>
        <time>2020-06-23T13:49:08Z</time>
      </trkpt>
      <trkpt lat="51.03124" lon="2.54248">
        <ele>-1.8</ele>
        <time>2020-06-23T13:49:09Z</time>
      </trkpt>
      <trkpt lat="51.03117" lon="2.54253">
        <ele>-1.8</ele>
        <time>2020-06-23T13:49:10Z</time>
      </trkpt>
      <trkpt lat="51.0311" lon="2.54258">
        <ele>-1.8</ele>
        <time>2020-06-23T13:49:11Z</time>
      </trkpt>
      <trkpt lat="51.03103" lon="2.54262">
        <ele>-1.8</ele>
        <time>2020-06-23T13:49:12Z</time>
      </trkpt>
      <trkpt lat="51.03096" lon="2.54267">
        <ele>-1.8</ele>
        <time>2020-06-23T13:49:13Z</time>
      </trkpt>
      <trkpt lat="51.03089" lon="2.54271">
        <ele>-1.8</ele>
        <time>2020-06-23T13:49:14Z</time>
      </trkpt>
      <trkpt lat="51.03081" lon="2.54276">
        <ele>-1.8</ele>
        <time>2020-06-23T13:49:15Z</time>
      </trkpt>
      <trkpt lat="51.03074" lon="2.54281">
        <ele>-1.8</ele>
        <time>2020-06-23T13:49:16Z</time>
      </trkpt>
      <trkpt lat="51.03067" lon="2.54285">
        <ele>-1.8</ele>
        <time>2020-06-23T13:49:17Z</time>
      </trkpt>
      <trkpt lat="51.0306" lon="2.5429">
        <ele>-1.8</ele>
        <time>2020-06-23T13:49:18Z</time>
      </trkpt>
      <trkpt lat="51.03053" lon="2.54295">
        <ele>-1.8</ele>
        <time>2020-06-23T13:49:19Z</time>
      </trkpt>
      <trkpt lat="51.03046" lon="2.54299">
        <ele>-1.8</ele>
        <time>2020-06-23T13:49:20Z</time>
      </trkpt>
      <trkpt lat="51.03039" lon="2.54304">
        <ele>-1.8</ele>
        <time>2020-06-23T13:49:21Z</time>
      </trkpt>
      <trkpt lat="51.03031" lon="2.54308">
        <ele>-1.8</ele>
        <time>2020-06-23T13:49:22Z</time>
      </trkpt>
      <trkpt lat="51.03024" lon="2.54313">
        <ele>-1.8</ele>
        <time>2020-06-23T13:49:23Z</time>
      </trkpt>
      <trkpt lat="51.03017" lon="2.54318">
        <ele>-1.8</ele>
        <time>2020-06-23T13:49:24Z</time>
      </trkpt>
      <trkpt lat="51.0301" lon="2.54323">
        <ele>-1.8</ele>
        <time>2020-06-23T13:49:25Z</time>
      </trkpt>
      <trkpt lat="51.03002" lon="2.54327">
        <ele>-1.8</ele>
        <time>2020-06-23T13:49:26Z</time>
      </trkpt>
      <trkpt lat="51.02995" lon="2.54332">
        <ele>-1.8</ele>
        <time>2020-06-23T13:49:27Z</time>
      </trkpt>
      <trkpt lat="51.02988" lon="2.54337">
        <ele>-1.8</ele>
        <time>2020-06-23T13:49:28Z</time>
      </trkpt>
      <trkpt lat="51.02981" lon="2.5434">
        <ele>-1.9</ele>
        <time>2020-06-23T13:49:29Z</time>
      </trkpt>
      <trkpt lat="51.02974" lon="2.54344">
        <ele>-1.9</ele>
        <time>2020-06-23T13:49:30Z</time>
      </trkpt>
      <trkpt lat="51.02967" lon="2.54349">
        <ele>-1.9</ele>
        <time>2020-06-23T13:49:31Z</time>
      </trkpt>
      <trkpt lat="51.0296" lon="2.54354">
        <ele>-1.9</ele>
        <time>2020-06-23T13:49:32Z</time>
      </trkpt>
      <trkpt lat="51.02953" lon="2.54358">
        <ele>-1.8</ele>
        <time>2020-06-23T13:49:33Z</time>
      </trkpt>
      <trkpt lat="51.02946" lon="2.54363">
        <ele>-1.8</ele>
        <time>2020-06-23T13:49:34Z</time>
      </trkpt>
      <trkpt lat="51.0294" lon="2.54368">
        <ele>-1.8</ele>
        <time>2020-06-23T13:49:35Z</time>
      </trkpt>
      <trkpt lat="51.02933" lon="2.54372">
        <ele>-1.8</ele>
        <time>2020-06-23T13:49:36Z</time>
      </trkpt>
      <trkpt lat="51.02927" lon="2.54376">
        <ele>-1.8</ele>
        <time>2020-06-23T13:49:37Z</time>
      </trkpt>
      <trkpt lat="51.02921" lon="2.5438">
        <ele>-1.8</ele>
        <time>2020-06-23T13:49:38Z</time>
      </trkpt>
      <trkpt lat="51.02915" lon="2.54384">
        <ele>-1.8</ele>
        <time>2020-06-23T13:49:39Z</time>
      </trkpt>
      <trkpt lat="51.0291" lon="2.54388">
        <ele>-1.8</ele>
        <time>2020-06-23T13:49:40Z</time>
      </trkpt>
      <trkpt lat="51.02904" lon="2.54392">
        <ele>-1.8</ele>
        <time>2020-06-23T13:49:41Z</time>
      </trkpt>
      <trkpt lat="51.02899" lon="2.54396">
        <ele>-1.8</ele>
        <time>2020-06-23T13:49:42Z</time>
      </trkpt>
      <trkpt lat="51.02894" lon="2.544">
        <ele>-1.8</ele>
        <time>2020-06-23T13:49:43Z</time>
      </trkpt>
      <trkpt lat="51.02888" lon="2.54403">
        <ele>-1.7</ele>
        <time>2020-06-23T13:49:44Z</time>
      </trkpt>
      <trkpt lat="51.02883" lon="2.54406">
        <ele>-1.7</ele>
        <time>2020-06-23T13:49:45Z</time>
      </trkpt>
      <trkpt lat="51.02878" lon="2.5441">
        <ele>-1.6</ele>
        <time>2020-06-23T13:49:46Z</time>
      </trkpt>
      <trkpt lat="51.02873" lon="2.54414">
        <ele>-1.5</ele>
        <time>2020-06-23T13:49:47Z</time>
      </trkpt>
      <trkpt lat="51.02868" lon="2.54417">
        <ele>-1.3</ele>
        <time>2020-06-23T13:49:48Z</time>
      </trkpt>
      <trkpt lat="51.02864" lon="2.54421">
        <ele>-1.2</ele>
        <time>2020-06-23T13:49:49Z</time>
      </trkpt>
      <trkpt lat="51.0286" lon="2.54424">
        <ele>-1.1</ele>
        <time>2020-06-23T13:49:50Z</time>
      </trkpt>
      <trkpt lat="51.02857" lon="2.5443">
        <ele>-0.9</ele>
        <time>2020-06-23T13:49:51Z</time>
      </trkpt>
      <trkpt lat="51.02857" lon="2.54438">
        <ele>-1.1</ele>
        <time>2020-06-23T13:49:52Z</time>
      </trkpt>
      <trkpt lat="51.02858" lon="2.54446">
        <ele>-1.3</ele>
        <time>2020-06-23T13:49:53Z</time>
      </trkpt>
      <trkpt lat="51.02861" lon="2.54454">
        <ele>-1.5</ele>
        <time>2020-06-23T13:49:54Z</time>
      </trkpt>
      <trkpt lat="51.02863" lon="2.54463">
        <ele>-1.7</ele>
        <time>2020-06-23T13:49:55Z</time>
      </trkpt>
      <trkpt lat="51.02866" lon="2.54473">
        <ele>-2</ele>
        <time>2020-06-23T13:49:56Z</time>
      </trkpt>
      <trkpt lat="51.02868" lon="2.54483">
        <ele>-2.1</ele>
        <time>2020-06-23T13:49:57Z</time>
      </trkpt>
      <trkpt lat="51.02871" lon="2.54493">
        <ele>-2.2</ele>
        <time>2020-06-23T13:49:58Z</time>
      </trkpt>
      <trkpt lat="51.02873" lon="2.54504">
        <ele>-2.3</ele>
        <time>2020-06-23T13:49:59Z</time>
      </trkpt>
      <trkpt lat="51.02876" lon="2.54513">
        <ele>-2.4</ele>
        <time>2020-06-23T13:50:00Z</time>
      </trkpt>
      <trkpt lat="51.02879" lon="2.54523">
        <ele>-2.5</ele>
        <time>2020-06-23T13:50:01Z</time>
      </trkpt>
      <trkpt lat="51.02882" lon="2.54533">
        <ele>-2.5</ele>
        <time>2020-06-23T13:50:02Z</time>
      </trkpt>
      <trkpt lat="51.02885" lon="2.54543">
        <ele>-2.6</ele>
        <time>2020-06-23T13:50:03Z</time>
      </trkpt>
      <trkpt lat="51.02887" lon="2.54552">
        <ele>-2.6</ele>
        <time>2020-06-23T13:50:04Z</time>
      </trkpt>
      <trkpt lat="51.0289" lon="2.54562">
        <ele>-2.6</ele>
        <time>2020-06-23T13:50:05Z</time>
      </trkpt>
      <trkpt lat="51.02892" lon="2.54571">
        <ele>-2.6</ele>
        <time>2020-06-23T13:50:06Z</time>
      </trkpt>
      <trkpt lat="51.02894" lon="2.54581">
        <ele>-2.6</ele>
        <time>2020-06-23T13:50:07Z</time>
      </trkpt>
      <trkpt lat="51.02897" lon="2.5459">
        <ele>-2.6</ele>
        <time>2020-06-23T13:50:08Z</time>
      </trkpt>
      <trkpt lat="51.029" lon="2.54599">
        <ele>-2.6</ele>
        <time>2020-06-23T13:50:09Z</time>
      </trkpt>
      <trkpt lat="51.02902" lon="2.54609">
        <ele>-2.6</ele>
        <time>2020-06-23T13:50:10Z</time>
      </trkpt>
      <trkpt lat="51.02905" lon="2.54618">
        <ele>-2.6</ele>
        <time>2020-06-23T13:50:11Z</time>
      </trkpt>
      <trkpt lat="51.02908" lon="2.54627">
        <ele>-2.6</ele>
        <time>2020-06-23T13:50:12Z</time>
      </trkpt>
      <trkpt lat="51.0291" lon="2.54636">
        <ele>-2.6</ele>
        <time>2020-06-23T13:50:13Z</time>
      </trkpt>
      <trkpt lat="51.02913" lon="2.54645">
        <ele>-2.6</ele>
        <time>2020-06-23T13:50:14Z</time>
      </trkpt>
      <trkpt lat="51.02916" lon="2.54655">
        <ele>-2.6</ele>
        <time>2020-06-23T13:50:15Z</time>
      </trkpt>
      <trkpt lat="51.02919" lon="2.54664">
        <ele>-2.6</ele>
        <time>2020-06-23T13:50:16Z</time>
      </trkpt>
      <trkpt lat="51.02921" lon="2.54674">
        <ele>-2.6</ele>
        <time>2020-06-23T13:50:17Z</time>
      </trkpt>
      <trkpt lat="51.02924" lon="2.54683">
        <ele>-2.6</ele>
        <time>2020-06-23T13:50:18Z</time>
      </trkpt>
      <trkpt lat="51.02927" lon="2.54694">
        <ele>-2.5</ele>
        <time>2020-06-23T13:50:19Z</time>
      </trkpt>
      <trkpt lat="51.0293" lon="2.54705">
        <ele>-2.5</ele>
        <time>2020-06-23T13:50:20Z</time>
      </trkpt>
      <trkpt lat="51.02932" lon="2.54716">
        <ele>-2.5</ele>
        <time>2020-06-23T13:50:21Z</time>
      </trkpt>
      <trkpt lat="51.02935" lon="2.54725">
        <ele>-2.5</ele>
        <time>2020-06-23T13:50:22Z</time>
      </trkpt>
      <trkpt lat="51.02938" lon="2.54735">
        <ele>-2.5</ele>
        <time>2020-06-23T13:50:23Z</time>
      </trkpt>
      <trkpt lat="51.02941" lon="2.54746">
        <ele>-2.5</ele>
        <time>2020-06-23T13:50:24Z</time>
      </trkpt>
      <trkpt lat="51.02943" lon="2.54756">
        <ele>-2.5</ele>
        <time>2020-06-23T13:50:25Z</time>
      </trkpt>
      <trkpt lat="51.02945" lon="2.54765">
        <ele>-2.5</ele>
        <time>2020-06-23T13:50:26Z</time>
      </trkpt>
      <trkpt lat="51.02948" lon="2.54775">
        <ele>-2.5</ele>
        <time>2020-06-23T13:50:27Z</time>
      </trkpt>
      <trkpt lat="51.02951" lon="2.54785">
        <ele>-2.5</ele>
        <time>2020-06-23T13:50:28Z</time>
      </trkpt>
      <trkpt lat="51.02954" lon="2.54794">
        <ele>-2.5</ele>
        <time>2020-06-23T13:50:29Z</time>
      </trkpt>
      <trkpt lat="51.02957" lon="2.54803">
        <ele>-2.4</ele>
        <time>2020-06-23T13:50:30Z</time>
      </trkpt>
      <trkpt lat="51.02959" lon="2.54813">
        <ele>-2.4</ele>
        <time>2020-06-23T13:50:31Z</time>
      </trkpt>
      <trkpt lat="51.02962" lon="2.54823">
        <ele>-2.4</ele>
        <time>2020-06-23T13:50:32Z</time>
      </trkpt>
      <trkpt lat="51.02964" lon="2.54832">
        <ele>-2.4</ele>
        <time>2020-06-23T13:50:33Z</time>
      </trkpt>
      <trkpt lat="51.02966" lon="2.5484">
        <ele>-2.4</ele>
        <time>2020-06-23T13:50:34Z</time>
      </trkpt>
      <trkpt lat="51.02969" lon="2.5485">
        <ele>-2.4</ele>
        <time>2020-06-23T13:50:35Z</time>
      </trkpt>
      <trkpt lat="51.02971" lon="2.54859">
        <ele>-2.4</ele>
        <time>2020-06-23T13:50:36Z</time>
      </trkpt>
      <trkpt lat="51.02973" lon="2.54869">
        <ele>-2.4</ele>
        <time>2020-06-23T13:50:37Z</time>
      </trkpt>
      <trkpt lat="51.02976" lon="2.54878">
        <ele>-2.4</ele>
        <time>2020-06-23T13:50:38Z</time>
      </trkpt>
      <trkpt lat="51.02979" lon="2.54887">
        <ele>-2.4</ele>
        <time>2020-06-23T13:50:39Z</time>
      </trkpt>
      <trkpt lat="51.02981" lon="2.54896">
        <ele>-2.4</ele>
        <time>2020-06-23T13:50:40Z</time>
      </trkpt>
      <trkpt lat="51.02983" lon="2.54906">
        <ele>-2.3</ele>
        <time>2020-06-23T13:50:41Z</time>
      </trkpt>
      <trkpt lat="51.02986" lon="2.54914">
        <ele>-2.2</ele>
        <time>2020-06-23T13:50:42Z</time>
      </trkpt>
      <trkpt lat="51.02988" lon="2.54923">
        <ele>-2.1</ele>
        <time>2020-06-23T13:50:43Z</time>
      </trkpt>
      <trkpt lat="51.02991" lon="2.54933">
        <ele>-2</ele>
        <time>2020-06-23T13:50:44Z</time>
      </trkpt>
      <trkpt lat="51.02993" lon="2.54942">
        <ele>-1.8</ele>
        <time>2020-06-23T13:50:45Z</time>
      </trkpt>
      <trkpt lat="51.02996" lon="2.54952">
        <ele>-1.9</ele>
        <time>2020-06-23T13:50:46Z</time>
      </trkpt>
      <trkpt lat="51.02999" lon="2.54962">
        <ele>-2</ele>
        <time>2020-06-23T13:50:47Z</time>
      </trkpt>
      <trkpt lat="51.03001" lon="2.54972">
        <ele>-2</ele>
        <time>2020-06-23T13:50:48Z</time>
      </trkpt>
      <trkpt lat="51.03004" lon="2.54982">
        <ele>-2.1</ele>
        <time>2020-06-23T13:50:49Z</time>
      </trkpt>
      <trkpt lat="51.03007" lon="2.54993">
        <ele>-2.1</ele>
        <time>2020-06-23T13:50:50Z</time>
      </trkpt>
      <trkpt lat="51.0301" lon="2.55003">
        <ele>-2.1</ele>
        <time>2020-06-23T13:50:51Z</time>
      </trkpt>
      <trkpt lat="51.03012" lon="2.55012">
        <ele>-2.1</ele>
        <time>2020-06-23T13:50:52Z</time>
      </trkpt>
      <trkpt lat="51.03015" lon="2.55022">
        <ele>-2.1</ele>
        <time>2020-06-23T13:50:53Z</time>
      </trkpt>
      <trkpt lat="51.03017" lon="2.5503">
        <ele>-2.1</ele>
        <time>2020-06-23T13:50:54Z</time>
      </trkpt>
      <trkpt lat="51.03019" lon="2.55038">
        <ele>-2.1</ele>
        <time>2020-06-23T13:50:55Z</time>
      </trkpt>
      <trkpt lat="51.03021" lon="2.55047">
        <ele>-2.1</ele>
        <time>2020-06-23T13:50:56Z</time>
      </trkpt>
      <trkpt lat="51.03023" lon="2.55056">
        <ele>-2.1</ele>
        <time>2020-06-23T13:50:57Z</time>
      </trkpt>
      <trkpt lat="51.03025" lon="2.55065">
        <ele>-2.1</ele>
        <time>2020-06-23T13:50:58Z</time>
      </trkpt>
      <trkpt lat="51.03027" lon="2.55074">
        <ele>-2.1</ele>
        <time>2020-06-23T13:50:59Z</time>
      </trkpt>
      <trkpt lat="51.03029" lon="2.55083">
        <ele>-2.1</ele>
        <time>2020-06-23T13:51:00Z</time>
      </trkpt>
      <trkpt lat="51.03032" lon="2.55093">
        <ele>-2.1</ele>
        <time>2020-06-23T13:51:01Z</time>
      </trkpt>
      <trkpt lat="51.03035" lon="2.55102">
        <ele>-2.1</ele>
        <time>2020-06-23T13:51:02Z</time>
      </trkpt>
      <trkpt lat="51.03038" lon="2.55112">
        <ele>-2.1</ele>
        <time>2020-06-23T13:51:03Z</time>
      </trkpt>
      <trkpt lat="51.0304" lon="2.55121">
        <ele>-2.1</ele>
        <time>2020-06-23T13:51:04Z</time>
      </trkpt>
      <trkpt lat="51.03043" lon="2.55129">
        <ele>-2.1</ele>
        <time>2020-06-23T13:51:05Z</time>
      </trkpt>
      <trkpt lat="51.03046" lon="2.55138">
        <ele>-2.1</ele>
        <time>2020-06-23T13:51:06Z</time>
      </trkpt>
      <trkpt lat="51.03048" lon="2.55147">
        <ele>-2.1</ele>
        <time>2020-06-23T13:51:07Z</time>
      </trkpt>
      <trkpt lat="51.03051" lon="2.55155">
        <ele>-2.1</ele>
        <time>2020-06-23T13:51:08Z</time>
      </trkpt>
      <trkpt lat="51.03054" lon="2.55163">
        <ele>-2.1</ele>
        <time>2020-06-23T13:51:09Z</time>
      </trkpt>
      <trkpt lat="51.03056" lon="2.55172">
        <ele>-2.1</ele>
        <time>2020-06-23T13:51:10Z</time>
      </trkpt>
      <trkpt lat="51.03059" lon="2.55181">
        <ele>-2.1</ele>
        <time>2020-06-23T13:51:11Z</time>
      </trkpt>
      <trkpt lat="51.03061" lon="2.55191">
        <ele>-2.1</ele>
        <time>2020-06-23T13:51:12Z</time>
      </trkpt>
      <trkpt lat="51.03065" lon="2.55201">
        <ele>-2.1</ele>
        <time>2020-06-23T13:51:13Z</time>
      </trkpt>
      <trkpt lat="51.03067" lon="2.5521">
        <ele>-2.1</ele>
        <time>2020-06-23T13:51:14Z</time>
      </trkpt>
      <trkpt lat="51.0307" lon="2.55219">
        <ele>-2.1</ele>
        <time>2020-06-23T13:51:15Z</time>
      </trkpt>
      <trkpt lat="51.03072" lon="2.55227">
        <ele>-2.1</ele>
        <time>2020-06-23T13:51:16Z</time>
      </trkpt>
      <trkpt lat="51.03074" lon="2.55236">
        <ele>-2.1</ele>
        <time>2020-06-23T13:51:17Z</time>
      </trkpt>
      <trkpt lat="51.03077" lon="2.55246">
        <ele>-2.1</ele>
        <time>2020-06-23T13:51:18Z</time>
      </trkpt>
      <trkpt lat="51.0308" lon="2.55255">
        <ele>-2.1</ele>
        <time>2020-06-23T13:51:19Z</time>
      </trkpt>
      <trkpt lat="51.03082" lon="2.55265">
        <ele>-2.1</ele>
        <time>2020-06-23T13:51:20Z</time>
      </trkpt>
      <trkpt lat="51.03084" lon="2.55275">
        <ele>-2.2</ele>
        <time>2020-06-23T13:51:21Z</time>
      </trkpt>
      <trkpt lat="51.03086" lon="2.55283">
        <ele>-2.2</ele>
        <time>2020-06-23T13:51:22Z</time>
      </trkpt>
      <trkpt lat="51.03088" lon="2.55291">
        <ele>-2.2</ele>
        <time>2020-06-23T13:51:23Z</time>
      </trkpt>
      <trkpt lat="51.0309" lon="2.553">
        <ele>-2.2</ele>
        <time>2020-06-23T13:51:24Z</time>
      </trkpt>
      <trkpt lat="51.03093" lon="2.5531">
        <ele>-2.2</ele>
        <time>2020-06-23T13:51:25Z</time>
      </trkpt>
      <trkpt lat="51.03096" lon="2.55319">
        <ele>-2.2</ele>
        <time>2020-06-23T13:51:26Z</time>
      </trkpt>
      <trkpt lat="51.03098" lon="2.55328">
        <ele>-2.2</ele>
        <time>2020-06-23T13:51:27Z</time>
      </trkpt>
      <trkpt lat="51.03101" lon="2.55336">
        <ele>-2.2</ele>
        <time>2020-06-23T13:51:28Z</time>
      </trkpt>
      <trkpt lat="51.03103" lon="2.55346">
        <ele>-2.2</ele>
        <time>2020-06-23T13:51:29Z</time>
      </trkpt>
      <trkpt lat="51.03105" lon="2.55355">
        <ele>-2.2</ele>
        <time>2020-06-23T13:51:30Z</time>
      </trkpt>
      <trkpt lat="51.03108" lon="2.55364">
        <ele>-2.2</ele>
        <time>2020-06-23T13:51:31Z</time>
      </trkpt>
      <trkpt lat="51.0311" lon="2.55374">
        <ele>-2.2</ele>
        <time>2020-06-23T13:51:32Z</time>
      </trkpt>
      <trkpt lat="51.03113" lon="2.55383">
        <ele>-2.2</ele>
        <time>2020-06-23T13:51:33Z</time>
      </trkpt>
      <trkpt lat="51.03116" lon="2.55393">
        <ele>-2.1</ele>
        <time>2020-06-23T13:51:34Z</time>
      </trkpt>
      <trkpt lat="51.03118" lon="2.55403">
        <ele>-2.1</ele>
        <time>2020-06-23T13:51:35Z</time>
      </trkpt>
      <trkpt lat="51.03121" lon="2.55411">
        <ele>-2.1</ele>
        <time>2020-06-23T13:51:36Z</time>
      </trkpt>
      <trkpt lat="51.03123" lon="2.55421">
        <ele>-2.1</ele>
        <time>2020-06-23T13:51:37Z</time>
      </trkpt>
      <trkpt lat="51.03125" lon="2.5543">
        <ele>-2.1</ele>
        <time>2020-06-23T13:51:38Z</time>
      </trkpt>
      <trkpt lat="51.03128" lon="2.5544">
        <ele>-2.1</ele>
        <time>2020-06-23T13:51:39Z</time>
      </trkpt>
      <trkpt lat="51.03129" lon="2.55449">
        <ele>-2.1</ele>
        <time>2020-06-23T13:51:40Z</time>
      </trkpt>
      <trkpt lat="51.03132" lon="2.5546">
        <ele>-2.1</ele>
        <time>2020-06-23T13:51:41Z</time>
      </trkpt>
      <trkpt lat="51.03135" lon="2.5547">
        <ele>-2.1</ele>
        <time>2020-06-23T13:51:42Z</time>
      </trkpt>
      <trkpt lat="51.03138" lon="2.55479">
        <ele>-2.2</ele>
        <time>2020-06-23T13:51:43Z</time>
      </trkpt>
      <trkpt lat="51.03139" lon="2.55487">
        <ele>-2.2</ele>
        <time>2020-06-23T13:51:44Z</time>
      </trkpt>
      <trkpt lat="51.03141" lon="2.55495">
        <ele>-2.2</ele>
        <time>2020-06-23T13:51:45Z</time>
      </trkpt>
      <trkpt lat="51.03143" lon="2.55503">
        <ele>-2.2</ele>
        <time>2020-06-23T13:51:46Z</time>
      </trkpt>
      <trkpt lat="51.03145" lon="2.55511">
        <ele>-2.2</ele>
        <time>2020-06-23T13:51:47Z</time>
      </trkpt>
      <trkpt lat="51.03147" lon="2.55519">
        <ele>-2.2</ele>
        <time>2020-06-23T13:51:48Z</time>
      </trkpt>
      <trkpt lat="51.03151" lon="2.55528">
        <ele>-2.2</ele>
        <time>2020-06-23T13:51:49Z</time>
      </trkpt>
      <trkpt lat="51.03153" lon="2.55536">
        <ele>-2.2</ele>
        <time>2020-06-23T13:51:50Z</time>
      </trkpt>
      <trkpt lat="51.03156" lon="2.55545">
        <ele>-2.2</ele>
        <time>2020-06-23T13:51:51Z</time>
      </trkpt>
      <trkpt lat="51.03159" lon="2.55554">
        <ele>-2.2</ele>
        <time>2020-06-23T13:51:52Z</time>
      </trkpt>
      <trkpt lat="51.03163" lon="2.55565">
        <ele>-2.2</ele>
        <time>2020-06-23T13:51:53Z</time>
      </trkpt>
      <trkpt lat="51.03165" lon="2.55575">
        <ele>-2.2</ele>
        <time>2020-06-23T13:51:54Z</time>
      </trkpt>
      <trkpt lat="51.03167" lon="2.55584">
        <ele>-2.2</ele>
        <time>2020-06-23T13:51:55Z</time>
      </trkpt>
      <trkpt lat="51.03169" lon="2.55593">
        <ele>-2.2</ele>
        <time>2020-06-23T13:51:56Z</time>
      </trkpt>
      <trkpt lat="51.03171" lon="2.55602">
        <ele>-2.2</ele>
        <time>2020-06-23T13:51:57Z</time>
      </trkpt>
      <trkpt lat="51.03175" lon="2.55612">
        <ele>-2.2</ele>
        <time>2020-06-23T13:51:58Z</time>
      </trkpt>
      <trkpt lat="51.03176" lon="2.55622">
        <ele>-2.2</ele>
        <time>2020-06-23T13:51:59Z</time>
      </trkpt>
      <trkpt lat="51.03178" lon="2.55631">
        <ele>-2.2</ele>
        <time>2020-06-23T13:52:00Z</time>
      </trkpt>
      <trkpt lat="51.03181" lon="2.55641">
        <ele>-2.2</ele>
        <time>2020-06-23T13:52:01Z</time>
      </trkpt>
      <trkpt lat="51.03183" lon="2.5565">
        <ele>-2.2</ele>
        <time>2020-06-23T13:52:02Z</time>
      </trkpt>
      <trkpt lat="51.03186" lon="2.55659">
        <ele>-2.2</ele>
        <time>2020-06-23T13:52:03Z</time>
      </trkpt>
      <trkpt lat="51.03188" lon="2.55667">
        <ele>-2.2</ele>
        <time>2020-06-23T13:52:04Z</time>
      </trkpt>
      <trkpt lat="51.03191" lon="2.55675">
        <ele>-2.3</ele>
        <time>2020-06-23T13:52:05Z</time>
      </trkpt>
      <trkpt lat="51.03193" lon="2.55684">
        <ele>-2.3</ele>
        <time>2020-06-23T13:52:06Z</time>
      </trkpt>
      <trkpt lat="51.03196" lon="2.55694">
        <ele>-2.3</ele>
        <time>2020-06-23T13:52:07Z</time>
      </trkpt>
      <trkpt lat="51.03198" lon="2.55703">
        <ele>-2.3</ele>
        <time>2020-06-23T13:52:08Z</time>
      </trkpt>
      <trkpt lat="51.03201" lon="2.55713">
        <ele>-2.3</ele>
        <time>2020-06-23T13:52:09Z</time>
      </trkpt>
      <trkpt lat="51.03203" lon="2.55723">
        <ele>-2.2</ele>
        <time>2020-06-23T13:52:10Z</time>
      </trkpt>
      <trkpt lat="51.03206" lon="2.55733">
        <ele>-2.2</ele>
        <time>2020-06-23T13:52:11Z</time>
      </trkpt>
      <trkpt lat="51.03209" lon="2.55742">
        <ele>-2.2</ele>
        <time>2020-06-23T13:52:12Z</time>
      </trkpt>
      <trkpt lat="51.03212" lon="2.55751">
        <ele>-2.2</ele>
        <time>2020-06-23T13:52:13Z</time>
      </trkpt>
      <trkpt lat="51.03215" lon="2.55761">
        <ele>-2.2</ele>
        <time>2020-06-23T13:52:14Z</time>
      </trkpt>
      <trkpt lat="51.03217" lon="2.55771">
        <ele>-2.2</ele>
        <time>2020-06-23T13:52:15Z</time>
      </trkpt>
      <trkpt lat="51.0322" lon="2.5578">
        <ele>-2.2</ele>
        <time>2020-06-23T13:52:16Z</time>
      </trkpt>
      <trkpt lat="51.03222" lon="2.55789">
        <ele>-2.2</ele>
        <time>2020-06-23T13:52:17Z</time>
      </trkpt>
      <trkpt lat="51.03223" lon="2.558">
        <ele>-2.2</ele>
        <time>2020-06-23T13:52:18Z</time>
      </trkpt>
      <trkpt lat="51.03225" lon="2.55809">
        <ele>-2.2</ele>
        <time>2020-06-23T13:52:19Z</time>
      </trkpt>
      <trkpt lat="51.03228" lon="2.55818">
        <ele>-2.2</ele>
        <time>2020-06-23T13:52:20Z</time>
      </trkpt>
      <trkpt lat="51.03229" lon="2.55827">
        <ele>-2.2</ele>
        <time>2020-06-23T13:52:21Z</time>
      </trkpt>
      <trkpt lat="51.03232" lon="2.55835">
        <ele>-2.2</ele>
        <time>2020-06-23T13:52:22Z</time>
      </trkpt>
      <trkpt lat="51.03234" lon="2.55843">
        <ele>-2.2</ele>
        <time>2020-06-23T13:52:23Z</time>
      </trkpt>
      <trkpt lat="51.03237" lon="2.55854">
        <ele>-2.2</ele>
        <time>2020-06-23T13:52:24Z</time>
      </trkpt>
      <trkpt lat="51.03239" lon="2.55862">
        <ele>-2.2</ele>
        <time>2020-06-23T13:52:25Z</time>
      </trkpt>
      <trkpt lat="51.03242" lon="2.55872">
        <ele>-2.2</ele>
        <time>2020-06-23T13:52:26Z</time>
      </trkpt>
      <trkpt lat="51.03245" lon="2.55881">
        <ele>-2.2</ele>
        <time>2020-06-23T13:52:27Z</time>
      </trkpt>
      <trkpt lat="51.03247" lon="2.5589">
        <ele>-2.2</ele>
        <time>2020-06-23T13:52:28Z</time>
      </trkpt>
      <trkpt lat="51.03249" lon="2.55899">
        <ele>-2.2</ele>
        <time>2020-06-23T13:52:29Z</time>
      </trkpt>
      <trkpt lat="51.03251" lon="2.55908">
        <ele>-2.2</ele>
        <time>2020-06-23T13:52:30Z</time>
      </trkpt>
      <trkpt lat="51.03254" lon="2.55917">
        <ele>-2.2</ele>
        <time>2020-06-23T13:52:31Z</time>
      </trkpt>
      <trkpt lat="51.03256" lon="2.55925">
        <ele>-2.2</ele>
        <time>2020-06-23T13:52:32Z</time>
      </trkpt>
      <trkpt lat="51.03259" lon="2.55934">
        <ele>-2.2</ele>
        <time>2020-06-23T13:52:33Z</time>
      </trkpt>
      <trkpt lat="51.03262" lon="2.55942">
        <ele>-2.2</ele>
        <time>2020-06-23T13:52:34Z</time>
      </trkpt>
      <trkpt lat="51.03264" lon="2.55952">
        <ele>-2.1</ele>
        <time>2020-06-23T13:52:35Z</time>
      </trkpt>
      <trkpt lat="51.03266" lon="2.5596">
        <ele>-2.1</ele>
        <time>2020-06-23T13:52:36Z</time>
      </trkpt>
      <trkpt lat="51.03268" lon="2.55967">
        <ele>-2.1</ele>
        <time>2020-06-23T13:52:37Z</time>
      </trkpt>
      <trkpt lat="51.03271" lon="2.55976">
        <ele>-2</ele>
        <time>2020-06-23T13:52:38Z</time>
      </trkpt>
      <trkpt lat="51.03273" lon="2.55984">
        <ele>-1.9</ele>
        <time>2020-06-23T13:52:39Z</time>
      </trkpt>
      <trkpt lat="51.03275" lon="2.5599">
        <ele>-1.9</ele>
        <time>2020-06-23T13:52:40Z</time>
      </trkpt>
      <trkpt lat="51.03274" lon="2.55993">
        <ele>-1.8</ele>
        <time>2020-06-23T13:52:41Z</time>
      </trkpt>
      <trkpt lat="51.03271" lon="2.55999">
        <ele>-1.8</ele>
        <time>2020-06-23T13:52:42Z</time>
      </trkpt>
      <trkpt lat="51.03266" lon="2.56001">
        <ele>-1.9</ele>
        <time>2020-06-23T13:52:43Z</time>
      </trkpt>
      <trkpt lat="51.0326" lon="2.56004">
        <ele>-2</ele>
        <time>2020-06-23T13:52:44Z</time>
      </trkpt>
      <trkpt lat="51.03254" lon="2.56006">
        <ele>-2</ele>
        <time>2020-06-23T13:52:45Z</time>
      </trkpt>
      <trkpt lat="51.03249" lon="2.56009">
        <ele>-2.1</ele>
        <time>2020-06-23T13:52:46Z</time>
      </trkpt>
      <trkpt lat="51.03244" lon="2.56011">
        <ele>-2.1</ele>
        <time>2020-06-23T13:52:47Z</time>
      </trkpt>
      <trkpt lat="51.03237" lon="2.56014">
        <ele>-2.1</ele>
        <time>2020-06-23T13:52:48Z</time>
      </trkpt>
      <trkpt lat="51.03231" lon="2.56019">
        <ele>-2.1</ele>
        <time>2020-06-23T13:52:49Z</time>
      </trkpt>
      <trkpt lat="51.03225" lon="2.56023">
        <ele>-2.1</ele>
        <time>2020-06-23T13:52:50Z</time>
      </trkpt>
      <trkpt lat="51.03218" lon="2.56026">
        <ele>-2.1</ele>
        <time>2020-06-23T13:52:51Z</time>
      </trkpt>
      <trkpt lat="51.03211" lon="2.56029">
        <ele>-2.1</ele>
        <time>2020-06-23T13:52:52Z</time>
      </trkpt>
      <trkpt lat="51.03205" lon="2.56033">
        <ele>-2.1</ele>
        <time>2020-06-23T13:52:53Z</time>
      </trkpt>
      <trkpt lat="51.03199" lon="2.56038">
        <ele>-2.1</ele>
        <time>2020-06-23T13:52:54Z</time>
      </trkpt>
      <trkpt lat="51.03192" lon="2.56042">
        <ele>-2.1</ele>
        <time>2020-06-23T13:52:55Z</time>
      </trkpt>
      <trkpt lat="51.03185" lon="2.56046">
        <ele>-2.1</ele>
        <time>2020-06-23T13:52:56Z</time>
      </trkpt>
      <trkpt lat="51.03178" lon="2.5605">
        <ele>-2.1</ele>
        <time>2020-06-23T13:52:57Z</time>
      </trkpt>
      <trkpt lat="51.03171" lon="2.56055">
        <ele>-2.1</ele>
        <time>2020-06-23T13:52:58Z</time>
      </trkpt>
      <trkpt lat="51.03163" lon="2.56059">
        <ele>-2.1</ele>
        <time>2020-06-23T13:52:59Z</time>
      </trkpt>
      <trkpt lat="51.03156" lon="2.56064">
        <ele>-2.1</ele>
        <time>2020-06-23T13:53:00Z</time>
      </trkpt>
      <trkpt lat="51.03149" lon="2.56069">
        <ele>-2.1</ele>
        <time>2020-06-23T13:53:01Z</time>
      </trkpt>
      <trkpt lat="51.03142" lon="2.56073">
        <ele>-2.1</ele>
        <time>2020-06-23T13:53:02Z</time>
      </trkpt>
      <trkpt lat="51.03135" lon="2.56078">
        <ele>-2</ele>
        <time>2020-06-23T13:53:03Z</time>
      </trkpt>
      <trkpt lat="51.03129" lon="2.56082">
        <ele>-1.9</ele>
        <time>2020-06-23T13:53:04Z</time>
      </trkpt>
      <trkpt lat="51.03122" lon="2.56087">
        <ele>-2</ele>
        <time>2020-06-23T13:53:05Z</time>
      </trkpt>
      <trkpt lat="51.03116" lon="2.56091">
        <ele>-2.1</ele>
        <time>2020-06-23T13:53:06Z</time>
      </trkpt>
      <trkpt lat="51.0311" lon="2.56095">
        <ele>-2.2</ele>
        <time>2020-06-23T13:53:07Z</time>
      </trkpt>
      <trkpt lat="51.03104" lon="2.56099">
        <ele>-2.3</ele>
        <time>2020-06-23T13:53:08Z</time>
      </trkpt>
      <trkpt lat="51.03097" lon="2.56103">
        <ele>-2.3</ele>
        <time>2020-06-23T13:53:09Z</time>
      </trkpt>
      <trkpt lat="51.03091" lon="2.56107">
        <ele>-2.3</ele>
        <time>2020-06-23T13:53:10Z</time>
      </trkpt>
      <trkpt lat="51.03085" lon="2.56111">
        <ele>-2.3</ele>
        <time>2020-06-23T13:53:11Z</time>
      </trkpt>
      <trkpt lat="51.03079" lon="2.56115">
        <ele>-2.3</ele>
        <time>2020-06-23T13:53:12Z</time>
      </trkpt>
      <trkpt lat="51.03073" lon="2.56119">
        <ele>-2.3</ele>
        <time>2020-06-23T13:53:13Z</time>
      </trkpt>
      <trkpt lat="51.03067" lon="2.56123">
        <ele>-2.3</ele>
        <time>2020-06-23T13:53:14Z</time>
      </trkpt>
      <trkpt lat="51.03061" lon="2.56127">
        <ele>-2.3</ele>
        <time>2020-06-23T13:53:15Z</time>
      </trkpt>
      <trkpt lat="51.03055" lon="2.56131">
        <ele>-2.3</ele>
        <time>2020-06-23T13:53:16Z</time>
      </trkpt>
      <trkpt lat="51.0305" lon="2.56135">
        <ele>-2.3</ele>
        <time>2020-06-23T13:53:17Z</time>
      </trkpt>
      <trkpt lat="51.03044" lon="2.56138">
        <ele>-2.3</ele>
        <time>2020-06-23T13:53:18Z</time>
      </trkpt>
      <trkpt lat="51.03038" lon="2.56142">
        <ele>-2.3</ele>
        <time>2020-06-23T13:53:19Z</time>
      </trkpt>
      <trkpt lat="51.03032" lon="2.56146">
        <ele>-2.4</ele>
        <time>2020-06-23T13:53:20Z</time>
      </trkpt>
      <trkpt lat="51.03025" lon="2.56149">
        <ele>-2.4</ele>
        <time>2020-06-23T13:53:21Z</time>
      </trkpt>
      <trkpt lat="51.03019" lon="2.56153">
        <ele>-2.4</ele>
        <time>2020-06-23T13:53:22Z</time>
      </trkpt>
      <trkpt lat="51.03013" lon="2.56157">
        <ele>-2.4</ele>
        <time>2020-06-23T13:53:23Z</time>
      </trkpt>
      <trkpt lat="51.03007" lon="2.5616">
        <ele>-2.4</ele>
        <time>2020-06-23T13:53:24Z</time>
      </trkpt>
      <trkpt lat="51.03001" lon="2.56164">
        <ele>-2.4</ele>
        <time>2020-06-23T13:53:25Z</time>
      </trkpt>
      <trkpt lat="51.02995" lon="2.56168">
        <ele>-2.4</ele>
        <time>2020-06-23T13:53:26Z</time>
      </trkpt>
      <trkpt lat="51.02989" lon="2.56171">
        <ele>-2.4</ele>
        <time>2020-06-23T13:53:27Z</time>
      </trkpt>
      <trkpt lat="51.02983" lon="2.56175">
        <ele>-2.5</ele>
        <time>2020-06-23T13:53:28Z</time>
      </trkpt>
      <trkpt lat="51.02977" lon="2.56179">
        <ele>-2.5</ele>
        <time>2020-06-23T13:53:29Z</time>
      </trkpt>
      <trkpt lat="51.02971" lon="2.56183">
        <ele>-2.5</ele>
        <time>2020-06-23T13:53:30Z</time>
      </trkpt>
      <trkpt lat="51.02965" lon="2.56188">
        <ele>-2.5</ele>
        <time>2020-06-23T13:53:31Z</time>
      </trkpt>
      <trkpt lat="51.02959" lon="2.56192">
        <ele>-2.5</ele>
        <time>2020-06-23T13:53:32Z</time>
      </trkpt>
      <trkpt lat="51.02952" lon="2.56197">
        <ele>-2.5</ele>
        <time>2020-06-23T13:53:33Z</time>
      </trkpt>
      <trkpt lat="51.02946" lon="2.56201">
        <ele>-2.6</ele>
        <time>2020-06-23T13:53:34Z</time>
      </trkpt>
      <trkpt lat="51.0294" lon="2.56204">
        <ele>-2.6</ele>
        <time>2020-06-23T13:53:35Z</time>
      </trkpt>
      <trkpt lat="51.02934" lon="2.56208">
        <ele>-2.6</ele>
        <time>2020-06-23T13:53:36Z</time>
      </trkpt>
      <trkpt lat="51.02928" lon="2.56212">
        <ele>-2.6</ele>
        <time>2020-06-23T13:53:37Z</time>
      </trkpt>
      <trkpt lat="51.02922" lon="2.56216">
        <ele>-2.6</ele>
        <time>2020-06-23T13:53:38Z</time>
      </trkpt>
      <trkpt lat="51.02915" lon="2.5622">
        <ele>-2.6</ele>
        <time>2020-06-23T13:53:39Z</time>
      </trkpt>
      <trkpt lat="51.02909" lon="2.56224">
        <ele>-2.6</ele>
        <time>2020-06-23T13:53:40Z</time>
      </trkpt>
      <trkpt lat="51.02903" lon="2.56229">
        <ele>-2.6</ele>
        <time>2020-06-23T13:53:41Z</time>
      </trkpt>
      <trkpt lat="51.02896" lon="2.56233">
        <ele>-2.6</ele>
        <time>2020-06-23T13:53:42Z</time>
      </trkpt>
      <trkpt lat="51.0289" lon="2.56236">
        <ele>-2.5</ele>
        <time>2020-06-23T13:53:43Z</time>
      </trkpt>
      <trkpt lat="51.02883" lon="2.5624">
        <ele>-2.5</ele>
        <time>2020-06-23T13:53:44Z</time>
      </trkpt>
      <trkpt lat="51.02877" lon="2.56245">
        <ele>-2.5</ele>
        <time>2020-06-23T13:53:45Z</time>
      </trkpt>
      <trkpt lat="51.0287" lon="2.56249">
        <ele>-2.5</ele>
        <time>2020-06-23T13:53:46Z</time>
      </trkpt>
      <trkpt lat="51.02864" lon="2.56253">
        <ele>-2.5</ele>
        <time>2020-06-23T13:53:47Z</time>
      </trkpt>
      <trkpt lat="51.02858" lon="2.56258">
        <ele>-2.4</ele>
        <time>2020-06-23T13:53:48Z</time>
      </trkpt>
      <trkpt lat="51.02851" lon="2.56262">
        <ele>-2.4</ele>
        <time>2020-06-23T13:53:49Z</time>
      </trkpt>
      <trkpt lat="51.02845" lon="2.56266">
        <ele>-2.4</ele>
        <time>2020-06-23T13:53:50Z</time>
      </trkpt>
      <trkpt lat="51.02839" lon="2.5627">
        <ele>-2.4</ele>
        <time>2020-06-23T13:53:51Z</time>
      </trkpt>
      <trkpt lat="51.02833" lon="2.56274">
        <ele>-2.3</ele>
        <time>2020-06-23T13:53:52Z</time>
      </trkpt>
      <trkpt lat="51.02826" lon="2.56279">
        <ele>-2.3</ele>
        <time>2020-06-23T13:53:53Z</time>
      </trkpt>
      <trkpt lat="51.0282" lon="2.56282">
        <ele>-2.3</ele>
        <time>2020-06-23T13:53:54Z</time>
      </trkpt>
      <trkpt lat="51.02813" lon="2.56286">
        <ele>-2.3</ele>
        <time>2020-06-23T13:53:55Z</time>
      </trkpt>
      <trkpt lat="51.02807" lon="2.5629">
        <ele>-2.3</ele>
        <time>2020-06-23T13:53:56Z</time>
      </trkpt>
      <trkpt lat="51.028" lon="2.56295">
        <ele>-2.3</ele>
        <time>2020-06-23T13:53:57Z</time>
      </trkpt>
      <trkpt lat="51.02794" lon="2.56299">
        <ele>-2.2</ele>
        <time>2020-06-23T13:53:58Z</time>
      </trkpt>
      <trkpt lat="51.02788" lon="2.56303">
        <ele>-2.2</ele>
        <time>2020-06-23T13:53:59Z</time>
      </trkpt>
      <trkpt lat="51.02781" lon="2.56307">
        <ele>-2.2</ele>
        <time>2020-06-23T13:54:00Z</time>
      </trkpt>
      <trkpt lat="51.02775" lon="2.56312">
        <ele>-2.2</ele>
        <time>2020-06-23T13:54:01Z</time>
      </trkpt>
      <trkpt lat="51.02768" lon="2.56316">
        <ele>-2.1</ele>
        <time>2020-06-23T13:54:02Z</time>
      </trkpt>
      <trkpt lat="51.02761" lon="2.5632">
        <ele>-2.1</ele>
        <time>2020-06-23T13:54:03Z</time>
      </trkpt>
      <trkpt lat="51.02755" lon="2.56323">
        <ele>-2.1</ele>
        <time>2020-06-23T13:54:04Z</time>
      </trkpt>
      <trkpt lat="51.02748" lon="2.56328">
        <ele>-2</ele>
        <time>2020-06-23T13:54:05Z</time>
      </trkpt>
      <trkpt lat="51.02742" lon="2.56333">
        <ele>-2</ele>
        <time>2020-06-23T13:54:06Z</time>
      </trkpt>
      <trkpt lat="51.02735" lon="2.56337">
        <ele>-1.9</ele>
        <time>2020-06-23T13:54:07Z</time>
      </trkpt>
      <trkpt lat="51.02729" lon="2.56342">
        <ele>-1.9</ele>
        <time>2020-06-23T13:54:08Z</time>
      </trkpt>
      <trkpt lat="51.02722" lon="2.56346">
        <ele>-1.9</ele>
        <time>2020-06-23T13:54:09Z</time>
      </trkpt>
      <trkpt lat="51.02715" lon="2.5635">
        <ele>-1.9</ele>
        <time>2020-06-23T13:54:10Z</time>
      </trkpt>
      <trkpt lat="51.02709" lon="2.56355">
        <ele>-1.9</ele>
        <time>2020-06-23T13:54:11Z</time>
      </trkpt>
      <trkpt lat="51.02702" lon="2.56359">
        <ele>-1.9</ele>
        <time>2020-06-23T13:54:12Z</time>
      </trkpt>
      <trkpt lat="51.02695" lon="2.56363">
        <ele>-2</ele>
        <time>2020-06-23T13:54:13Z</time>
      </trkpt>
      <trkpt lat="51.02689" lon="2.56367">
        <ele>-2</ele>
        <time>2020-06-23T13:54:14Z</time>
      </trkpt>
      <trkpt lat="51.02683" lon="2.56371">
        <ele>-2</ele>
        <time>2020-06-23T13:54:15Z</time>
      </trkpt>
      <trkpt lat="51.02676" lon="2.56375">
        <ele>-2</ele>
        <time>2020-06-23T13:54:16Z</time>
      </trkpt>
      <trkpt lat="51.0267" lon="2.5638">
        <ele>-2</ele>
        <time>2020-06-23T13:54:17Z</time>
      </trkpt>
      <trkpt lat="51.02664" lon="2.56384">
        <ele>-2</ele>
        <time>2020-06-23T13:54:18Z</time>
      </trkpt>
      <trkpt lat="51.02657" lon="2.56387">
        <ele>-2</ele>
        <time>2020-06-23T13:54:19Z</time>
      </trkpt>
      <trkpt lat="51.02651" lon="2.5639">
        <ele>-2</ele>
        <time>2020-06-23T13:54:20Z</time>
      </trkpt>
      <trkpt lat="51.02644" lon="2.56394">
        <ele>-2</ele>
        <time>2020-06-23T13:54:21Z</time>
      </trkpt>
      <trkpt lat="51.02637" lon="2.56397">
        <ele>-2</ele>
        <time>2020-06-23T13:54:22Z</time>
      </trkpt>
      <trkpt lat="51.02631" lon="2.56399">
        <ele>-1.9</ele>
        <time>2020-06-23T13:54:23Z</time>
      </trkpt>
      <trkpt lat="51.02624" lon="2.56401">
        <ele>-1.9</ele>
        <time>2020-06-23T13:54:24Z</time>
      </trkpt>
      <trkpt lat="51.02617" lon="2.56402">
        <ele>-1.9</ele>
        <time>2020-06-23T13:54:25Z</time>
      </trkpt>
      <trkpt lat="51.0261" lon="2.56404">
        <ele>-1.8</ele>
        <time>2020-06-23T13:54:26Z</time>
      </trkpt>
      <trkpt lat="51.02604" lon="2.56407">
        <ele>-1.8</ele>
        <time>2020-06-23T13:54:27Z</time>
      </trkpt>
      <trkpt lat="51.02597" lon="2.56411">
        <ele>-1.8</ele>
        <time>2020-06-23T13:54:28Z</time>
      </trkpt>
      <trkpt lat="51.02591" lon="2.56415">
        <ele>-1.8</ele>
        <time>2020-06-23T13:54:29Z</time>
      </trkpt>
      <trkpt lat="51.02584" lon="2.56419">
        <ele>-1.7</ele>
        <time>2020-06-23T13:54:30Z</time>
      </trkpt>
      <trkpt lat="51.02578" lon="2.56424">
        <ele>-1.7</ele>
        <time>2020-06-23T13:54:31Z</time>
      </trkpt>
      <trkpt lat="51.02572" lon="2.56428">
        <ele>-1.8</ele>
        <time>2020-06-23T13:54:32Z</time>
      </trkpt>
      <trkpt lat="51.02565" lon="2.56433">
        <ele>-1.8</ele>
        <time>2020-06-23T13:54:33Z</time>
      </trkpt>
      <trkpt lat="51.02559" lon="2.56437">
        <ele>-1.8</ele>
        <time>2020-06-23T13:54:34Z</time>
      </trkpt>
      <trkpt lat="51.02553" lon="2.56442">
        <ele>-1.8</ele>
        <time>2020-06-23T13:54:35Z</time>
      </trkpt>
      <trkpt lat="51.02546" lon="2.56446">
        <ele>-1.8</ele>
        <time>2020-06-23T13:54:36Z</time>
      </trkpt>
      <trkpt lat="51.0254" lon="2.5645">
        <ele>-1.8</ele>
        <time>2020-06-23T13:54:37Z</time>
      </trkpt>
      <trkpt lat="51.02533" lon="2.56453">
        <ele>-1.8</ele>
        <time>2020-06-23T13:54:38Z</time>
      </trkpt>
      <trkpt lat="51.02527" lon="2.56458">
        <ele>-1.9</ele>
        <time>2020-06-23T13:54:39Z</time>
      </trkpt>
      <trkpt lat="51.02521" lon="2.56462">
        <ele>-1.9</ele>
        <time>2020-06-23T13:54:40Z</time>
      </trkpt>
      <trkpt lat="51.02514" lon="2.56466">
        <ele>-1.9</ele>
        <time>2020-06-23T13:54:41Z</time>
      </trkpt>
      <trkpt lat="51.02508" lon="2.56471">
        <ele>-1.9</ele>
        <time>2020-06-23T13:54:42Z</time>
      </trkpt>
      <trkpt lat="51.02502" lon="2.56475">
        <ele>-2</ele>
        <time>2020-06-23T13:54:43Z</time>
      </trkpt>
      <trkpt lat="51.02495" lon="2.5648">
        <ele>-2</ele>
        <time>2020-06-23T13:54:44Z</time>
      </trkpt>
      <trkpt lat="51.02489" lon="2.56483">
        <ele>-2</ele>
        <time>2020-06-23T13:54:45Z</time>
      </trkpt>
      <trkpt lat="51.02482" lon="2.56487">
        <ele>-2</ele>
        <time>2020-06-23T13:54:46Z</time>
      </trkpt>
      <trkpt lat="51.02476" lon="2.56491">
        <ele>-2</ele>
        <time>2020-06-23T13:54:47Z</time>
      </trkpt>
      <trkpt lat="51.02469" lon="2.56496">
        <ele>-2</ele>
        <time>2020-06-23T13:54:48Z</time>
      </trkpt>
      <trkpt lat="51.02463" lon="2.565">
        <ele>-2</ele>
        <time>2020-06-23T13:54:49Z</time>
      </trkpt>
      <trkpt lat="51.02456" lon="2.56503">
        <ele>-1.9</ele>
        <time>2020-06-23T13:54:50Z</time>
      </trkpt>
      <trkpt lat="51.0245" lon="2.56507">
        <ele>-1.9</ele>
        <time>2020-06-23T13:54:51Z</time>
      </trkpt>
      <trkpt lat="51.02443" lon="2.56511">
        <ele>-1.9</ele>
        <time>2020-06-23T13:54:52Z</time>
      </trkpt>
      <trkpt lat="51.02437" lon="2.56515">
        <ele>-1.9</ele>
        <time>2020-06-23T13:54:53Z</time>
      </trkpt>
      <trkpt lat="51.0243" lon="2.5652">
        <ele>-2</ele>
        <time>2020-06-23T13:54:54Z</time>
      </trkpt>
      <trkpt lat="51.02424" lon="2.56524">
        <ele>-2</ele>
        <time>2020-06-23T13:54:55Z</time>
      </trkpt>
      <trkpt lat="51.02417" lon="2.56528">
        <ele>-2</ele>
        <time>2020-06-23T13:54:56Z</time>
      </trkpt>
      <trkpt lat="51.0241" lon="2.56531">
        <ele>-2</ele>
        <time>2020-06-23T13:54:57Z</time>
      </trkpt>
      <trkpt lat="51.02404" lon="2.56536">
        <ele>-2</ele>
        <time>2020-06-23T13:54:58Z</time>
      </trkpt>
      <trkpt lat="51.02397" lon="2.5654">
        <ele>-2.1</ele>
        <time>2020-06-23T13:54:59Z</time>
      </trkpt>
      <trkpt lat="51.0239" lon="2.56544">
        <ele>-2.1</ele>
        <time>2020-06-23T13:55:00Z</time>
      </trkpt>
      <trkpt lat="51.02384" lon="2.56548">
        <ele>-2.1</ele>
        <time>2020-06-23T13:55:01Z</time>
      </trkpt>
      <trkpt lat="51.02377" lon="2.56552">
        <ele>-2.1</ele>
        <time>2020-06-23T13:55:02Z</time>
      </trkpt>
      <trkpt lat="51.02371" lon="2.56556">
        <ele>-2.1</ele>
        <time>2020-06-23T13:55:03Z</time>
      </trkpt>
      <trkpt lat="51.02364" lon="2.5656">
        <ele>-2</ele>
        <time>2020-06-23T13:55:04Z</time>
      </trkpt>
      <trkpt lat="51.02357" lon="2.56564">
        <ele>-2</ele>
        <time>2020-06-23T13:55:05Z</time>
      </trkpt>
      <trkpt lat="51.02351" lon="2.56568">
        <ele>-2</ele>
        <time>2020-06-23T13:55:06Z</time>
      </trkpt>
      <trkpt lat="51.02344" lon="2.56572">
        <ele>-1.9</ele>
        <time>2020-06-23T13:55:07Z</time>
      </trkpt>
      <trkpt lat="51.02338" lon="2.56577">
        <ele>-1.9</ele>
        <time>2020-06-23T13:55:08Z</time>
      </trkpt>
      <trkpt lat="51.02331" lon="2.5658">
        <ele>-2</ele>
        <time>2020-06-23T13:55:09Z</time>
      </trkpt>
      <trkpt lat="51.02325" lon="2.56585">
        <ele>-2.2</ele>
        <time>2020-06-23T13:55:10Z</time>
      </trkpt>
      <trkpt lat="51.02318" lon="2.56589">
        <ele>-2.3</ele>
        <time>2020-06-23T13:55:11Z</time>
      </trkpt>
      <trkpt lat="51.02312" lon="2.56594">
        <ele>-2.4</ele>
        <time>2020-06-23T13:55:12Z</time>
      </trkpt>
      <trkpt lat="51.02306" lon="2.56598">
        <ele>-2.4</ele>
        <time>2020-06-23T13:55:13Z</time>
      </trkpt>
      <trkpt lat="51.02299" lon="2.56603">
        <ele>-2.4</ele>
        <time>2020-06-23T13:55:14Z</time>
      </trkpt>
      <trkpt lat="51.02293" lon="2.56608">
        <ele>-2.5</ele>
        <time>2020-06-23T13:55:15Z</time>
      </trkpt>
      <trkpt lat="51.02286" lon="2.56612">
        <ele>-2.5</ele>
        <time>2020-06-23T13:55:16Z</time>
      </trkpt>
      <trkpt lat="51.02279" lon="2.56616">
        <ele>-2.5</ele>
        <time>2020-06-23T13:55:17Z</time>
      </trkpt>
      <trkpt lat="51.02272" lon="2.5662">
        <ele>-2.5</ele>
        <time>2020-06-23T13:55:18Z</time>
      </trkpt>
      <trkpt lat="51.02266" lon="2.56624">
        <ele>-2.5</ele>
        <time>2020-06-23T13:55:19Z</time>
      </trkpt>
      <trkpt lat="51.02259" lon="2.56629">
        <ele>-2.5</ele>
        <time>2020-06-23T13:55:20Z</time>
      </trkpt>
      <trkpt lat="51.02253" lon="2.56633">
        <ele>-2.5</ele>
        <time>2020-06-23T13:55:21Z</time>
      </trkpt>
      <trkpt lat="51.02246" lon="2.56637">
        <ele>-2.5</ele>
        <time>2020-06-23T13:55:22Z</time>
      </trkpt>
      <trkpt lat="51.0224" lon="2.5664">
        <ele>-2.5</ele>
        <time>2020-06-23T13:55:23Z</time>
      </trkpt>
      <trkpt lat="51.02233" lon="2.56644">
        <ele>-2.5</ele>
        <time>2020-06-23T13:55:24Z</time>
      </trkpt>
      <trkpt lat="51.02227" lon="2.56649">
        <ele>-2.5</ele>
        <time>2020-06-23T13:55:25Z</time>
      </trkpt>
      <trkpt lat="51.02222" lon="2.56653">
        <ele>-2.5</ele>
        <time>2020-06-23T13:55:26Z</time>
      </trkpt>
      <trkpt lat="51.02216" lon="2.56657">
        <ele>-2.5</ele>
        <time>2020-06-23T13:55:27Z</time>
      </trkpt>
      <trkpt lat="51.0221" lon="2.56661">
        <ele>-2.5</ele>
        <time>2020-06-23T13:55:28Z</time>
      </trkpt>
      <trkpt lat="51.02204" lon="2.56665">
        <ele>-2.5</ele>
        <time>2020-06-23T13:55:29Z</time>
      </trkpt>
      <trkpt lat="51.02198" lon="2.5667">
        <ele>-2.5</ele>
        <time>2020-06-23T13:55:30Z</time>
      </trkpt>
      <trkpt lat="51.02192" lon="2.56674">
        <ele>-2.5</ele>
        <time>2020-06-23T13:55:31Z</time>
      </trkpt>
      <trkpt lat="51.02186" lon="2.56678">
        <ele>-2.5</ele>
        <time>2020-06-23T13:55:32Z</time>
      </trkpt>
      <trkpt lat="51.02179" lon="2.56682">
        <ele>-2.5</ele>
        <time>2020-06-23T13:55:33Z</time>
      </trkpt>
      <trkpt lat="51.02173" lon="2.56687">
        <ele>-2.6</ele>
        <time>2020-06-23T13:55:34Z</time>
      </trkpt>
      <trkpt lat="51.02167" lon="2.56691">
        <ele>-2.6</ele>
        <time>2020-06-23T13:55:35Z</time>
      </trkpt>
      <trkpt lat="51.02161" lon="2.56695">
        <ele>-2.6</ele>
        <time>2020-06-23T13:55:36Z</time>
      </trkpt>
      <trkpt lat="51.02155" lon="2.56699">
        <ele>-2.6</ele>
        <time>2020-06-23T13:55:37Z</time>
      </trkpt>
      <trkpt lat="51.02149" lon="2.56703">
        <ele>-2.6</ele>
        <time>2020-06-23T13:55:38Z</time>
      </trkpt>
      <trkpt lat="51.02143" lon="2.56707">
        <ele>-2.6</ele>
        <time>2020-06-23T13:55:39Z</time>
      </trkpt>
      <trkpt lat="51.02137" lon="2.56711">
        <ele>-2.6</ele>
        <time>2020-06-23T13:55:40Z</time>
      </trkpt>
      <trkpt lat="51.02131" lon="2.56715">
        <ele>-2.6</ele>
        <time>2020-06-23T13:55:41Z</time>
      </trkpt>
      <trkpt lat="51.02124" lon="2.56719">
        <ele>-2.6</ele>
        <time>2020-06-23T13:55:42Z</time>
      </trkpt>
      <trkpt lat="51.02118" lon="2.56723">
        <ele>-2.6</ele>
        <time>2020-06-23T13:55:43Z</time>
      </trkpt>
      <trkpt lat="51.02112" lon="2.56727">
        <ele>-2.6</ele>
        <time>2020-06-23T13:55:44Z</time>
      </trkpt>
      <trkpt lat="51.02105" lon="2.56729">
        <ele>-2.6</ele>
        <time>2020-06-23T13:55:45Z</time>
      </trkpt>
      <trkpt lat="51.02099" lon="2.56732">
        <ele>-2.6</ele>
        <time>2020-06-23T13:55:46Z</time>
      </trkpt>
      <trkpt lat="51.02093" lon="2.56736">
        <ele>-2.6</ele>
        <time>2020-06-23T13:55:47Z</time>
      </trkpt>
      <trkpt lat="51.02086" lon="2.56739">
        <ele>-2.6</ele>
        <time>2020-06-23T13:55:48Z</time>
      </trkpt>
      <trkpt lat="51.0208" lon="2.56743">
        <ele>-2.5</ele>
        <time>2020-06-23T13:55:49Z</time>
      </trkpt>
      <trkpt lat="51.02073" lon="2.56745">
        <ele>-2.5</ele>
        <time>2020-06-23T13:55:50Z</time>
      </trkpt>
      <trkpt lat="51.02067" lon="2.56749">
        <ele>-2.5</ele>
        <time>2020-06-23T13:55:51Z</time>
      </trkpt>
      <trkpt lat="51.02061" lon="2.56753">
        <ele>-2.5</ele>
        <time>2020-06-23T13:55:52Z</time>
      </trkpt>
      <trkpt lat="51.02055" lon="2.56755">
        <ele>-2.5</ele>
        <time>2020-06-23T13:55:53Z</time>
      </trkpt>
      <trkpt lat="51.02048" lon="2.56759">
        <ele>-2.4</ele>
        <time>2020-06-23T13:55:54Z</time>
      </trkpt>
      <trkpt lat="51.02042" lon="2.56763">
        <ele>-2.4</ele>
        <time>2020-06-23T13:55:55Z</time>
      </trkpt>
      <trkpt lat="51.02036" lon="2.56767">
        <ele>-2.4</ele>
        <time>2020-06-23T13:55:56Z</time>
      </trkpt>
      <trkpt lat="51.02031" lon="2.56771">
        <ele>-2.3</ele>
        <time>2020-06-23T13:55:57Z</time>
      </trkpt>
      <trkpt lat="51.02025" lon="2.56775">
        <ele>-2.3</ele>
        <time>2020-06-23T13:55:58Z</time>
      </trkpt>
      <trkpt lat="51.0202" lon="2.56778">
        <ele>-2.2</ele>
        <time>2020-06-23T13:55:59Z</time>
      </trkpt>
      <trkpt lat="51.02015" lon="2.56782">
        <ele>-2.2</ele>
        <time>2020-06-23T13:56:00Z</time>
      </trkpt>
      <trkpt lat="51.0201" lon="2.56785">
        <ele>-2.1</ele>
        <time>2020-06-23T13:56:01Z</time>
      </trkpt>
      <trkpt lat="51.02005" lon="2.56789">
        <ele>-2</ele>
        <time>2020-06-23T13:56:02Z</time>
      </trkpt>
      <trkpt lat="51.02" lon="2.56793">
        <ele>-2</ele>
        <time>2020-06-23T13:56:03Z</time>
      </trkpt>
      <trkpt lat="51.01995" lon="2.56794">
        <ele>-1.9</ele>
        <time>2020-06-23T13:56:04Z</time>
      </trkpt>
      <trkpt lat="51.01991" lon="2.56796">
        <ele>-1.8</ele>
        <time>2020-06-23T13:56:05Z</time>
      </trkpt>
      <trkpt lat="51.01988" lon="2.568">
        <ele>-1.7</ele>
        <time>2020-06-23T13:56:06Z</time>
      </trkpt>
      <trkpt lat="51.01984" lon="2.56803">
        <ele>-1.6</ele>
        <time>2020-06-23T13:56:07Z</time>
      </trkpt>
      <trkpt lat="51.01982" lon="2.56807">
        <ele>-1.5</ele>
        <time>2020-06-23T13:56:08Z</time>
      </trkpt>
      <trkpt lat="51.0198" lon="2.56812">
        <ele>-1.4</ele>
        <time>2020-06-23T13:56:09Z</time>
      </trkpt>
      <trkpt lat="51.01981" lon="2.56817">
        <ele>-1.5</ele>
        <time>2020-06-23T13:56:10Z</time>
      </trkpt>
      <trkpt lat="51.01983" lon="2.56823">
        <ele>-1.6</ele>
        <time>2020-06-23T13:56:11Z</time>
      </trkpt>
      <trkpt lat="51.01985" lon="2.5683">
        <ele>-1.7</ele>
        <time>2020-06-23T13:56:12Z</time>
      </trkpt>
      <trkpt lat="51.01987" lon="2.56838">
        <ele>-1.7</ele>
        <time>2020-06-23T13:56:13Z</time>
      </trkpt>
      <trkpt lat="51.01988" lon="2.56847">
        <ele>-1.8</ele>
        <time>2020-06-23T13:56:14Z</time>
      </trkpt>
      <trkpt lat="51.01991" lon="2.56855">
        <ele>-1.9</ele>
        <time>2020-06-23T13:56:15Z</time>
      </trkpt>
      <trkpt lat="51.01994" lon="2.56864">
        <ele>-1.9</ele>
        <time>2020-06-23T13:56:16Z</time>
      </trkpt>
      <trkpt lat="51.01997" lon="2.56872">
        <ele>-2</ele>
        <time>2020-06-23T13:56:17Z</time>
      </trkpt>
      <trkpt lat="51.01999" lon="2.56881">
        <ele>-2</ele>
        <time>2020-06-23T13:56:18Z</time>
      </trkpt>
      <trkpt lat="51.02002" lon="2.56889">
        <ele>-2</ele>
        <time>2020-06-23T13:56:19Z</time>
      </trkpt>
      <trkpt lat="51.02004" lon="2.56897">
        <ele>-2</ele>
        <time>2020-06-23T13:56:20Z</time>
      </trkpt>
      <trkpt lat="51.02007" lon="2.56906">
        <ele>-2.1</ele>
        <time>2020-06-23T13:56:21Z</time>
      </trkpt>
      <trkpt lat="51.0201" lon="2.56915">
        <ele>-2.1</ele>
        <time>2020-06-23T13:56:22Z</time>
      </trkpt>
      <trkpt lat="51.02012" lon="2.56924">
        <ele>-2.1</ele>
        <time>2020-06-23T13:56:23Z</time>
      </trkpt>
      <trkpt lat="51.02015" lon="2.56934">
        <ele>-2.1</ele>
        <time>2020-06-23T13:56:24Z</time>
      </trkpt>
      <trkpt lat="51.02018" lon="2.56943">
        <ele>-2.1</ele>
        <time>2020-06-23T13:56:25Z</time>
      </trkpt>
      <trkpt lat="51.0202" lon="2.56953">
        <ele>-2</ele>
        <time>2020-06-23T13:56:26Z</time>
      </trkpt>
      <trkpt lat="51.02023" lon="2.56962">
        <ele>-2</ele>
        <time>2020-06-23T13:56:27Z</time>
      </trkpt>
      <trkpt lat="51.02025" lon="2.56972">
        <ele>-2</ele>
        <time>2020-06-23T13:56:28Z</time>
      </trkpt>
      <trkpt lat="51.02028" lon="2.56981">
        <ele>-1.9</ele>
        <time>2020-06-23T13:56:29Z</time>
      </trkpt>
      <trkpt lat="51.0203" lon="2.56991">
        <ele>-1.9</ele>
        <time>2020-06-23T13:56:30Z</time>
      </trkpt>
      <trkpt lat="51.02033" lon="2.57">
        <ele>-1.9</ele>
        <time>2020-06-23T13:56:31Z</time>
      </trkpt>
      <trkpt lat="51.02035" lon="2.57009">
        <ele>-1.9</ele>
        <time>2020-06-23T13:56:32Z</time>
      </trkpt>
      <trkpt lat="51.02039" lon="2.57019">
        <ele>-1.9</ele>
        <time>2020-06-23T13:56:33Z</time>
      </trkpt>
      <trkpt lat="51.02041" lon="2.57029">
        <ele>-1.9</ele>
        <time>2020-06-23T13:56:34Z</time>
      </trkpt>
      <trkpt lat="51.02043" lon="2.57037">
        <ele>-1.9</ele>
        <time>2020-06-23T13:56:35Z</time>
      </trkpt>
      <trkpt lat="51.02045" lon="2.57045">
        <ele>-1.9</ele>
        <time>2020-06-23T13:56:36Z</time>
      </trkpt>
      <trkpt lat="51.02048" lon="2.57053">
        <ele>-1.9</ele>
        <time>2020-06-23T13:56:37Z</time>
      </trkpt>
      <trkpt lat="51.0205" lon="2.57062">
        <ele>-1.9</ele>
        <time>2020-06-23T13:56:38Z</time>
      </trkpt>
      <trkpt lat="51.02052" lon="2.57071">
        <ele>-1.9</ele>
        <time>2020-06-23T13:56:39Z</time>
      </trkpt>
      <trkpt lat="51.02055" lon="2.5708">
        <ele>-1.9</ele>
        <time>2020-06-23T13:56:40Z</time>
      </trkpt>
      <trkpt lat="51.02057" lon="2.57089">
        <ele>-1.9</ele>
        <time>2020-06-23T13:56:41Z</time>
      </trkpt>
      <trkpt lat="51.0206" lon="2.57098">
        <ele>-1.9</ele>
        <time>2020-06-23T13:56:42Z</time>
      </trkpt>
      <trkpt lat="51.02062" lon="2.57107">
        <ele>-1.9</ele>
        <time>2020-06-23T13:56:43Z</time>
      </trkpt>
      <trkpt lat="51.02065" lon="2.57116">
        <ele>-1.9</ele>
        <time>2020-06-23T13:56:44Z</time>
      </trkpt>
      <trkpt lat="51.02067" lon="2.57123">
        <ele>-1.9</ele>
        <time>2020-06-23T13:56:45Z</time>
      </trkpt>
      <trkpt lat="51.0207" lon="2.57132">
        <ele>-1.9</ele>
        <time>2020-06-23T13:56:46Z</time>
      </trkpt>
      <trkpt lat="51.02073" lon="2.5714">
        <ele>-1.9</ele>
        <time>2020-06-23T13:56:47Z</time>
      </trkpt>
      <trkpt lat="51.02075" lon="2.57148">
        <ele>-1.9</ele>
        <time>2020-06-23T13:56:48Z</time>
      </trkpt>
      <trkpt lat="51.02078" lon="2.57156">
        <ele>-1.9</ele>
        <time>2020-06-23T13:56:49Z</time>
      </trkpt>
      <trkpt lat="51.0208" lon="2.57163">
        <ele>-1.9</ele>
        <time>2020-06-23T13:56:50Z</time>
      </trkpt>
      <trkpt lat="51.02082" lon="2.57171">
        <ele>-1.9</ele>
        <time>2020-06-23T13:56:51Z</time>
      </trkpt>
      <trkpt lat="51.02084" lon="2.57179">
        <ele>-1.9</ele>
        <time>2020-06-23T13:56:52Z</time>
      </trkpt>
      <trkpt lat="51.02087" lon="2.57187">
        <ele>-1.8</ele>
        <time>2020-06-23T13:56:53Z</time>
      </trkpt>
      <trkpt lat="51.02089" lon="2.57195">
        <ele>-1.8</ele>
        <time>2020-06-23T13:56:54Z</time>
      </trkpt>
      <trkpt lat="51.02091" lon="2.57203">
        <ele>-1.8</ele>
        <time>2020-06-23T13:56:55Z</time>
      </trkpt>
      <trkpt lat="51.02094" lon="2.57212">
        <ele>-1.8</ele>
        <time>2020-06-23T13:56:56Z</time>
      </trkpt>
      <trkpt lat="51.02096" lon="2.57219">
        <ele>-1.7</ele>
        <time>2020-06-23T13:56:57Z</time>
      </trkpt>
      <trkpt lat="51.02098" lon="2.57227">
        <ele>-1.7</ele>
        <time>2020-06-23T13:56:58Z</time>
      </trkpt>
      <trkpt lat="51.02101" lon="2.57234">
        <ele>-1.7</ele>
        <time>2020-06-23T13:56:59Z</time>
      </trkpt>
      <trkpt lat="51.02103" lon="2.57242">
        <ele>-1.7</ele>
        <time>2020-06-23T13:57:00Z</time>
      </trkpt>
      <trkpt lat="51.02106" lon="2.57252">
        <ele>-1.6</ele>
        <time>2020-06-23T13:57:01Z</time>
      </trkpt>
      <trkpt lat="51.02108" lon="2.57259">
        <ele>-1.6</ele>
        <time>2020-06-23T13:57:02Z</time>
      </trkpt>
      <trkpt lat="51.02111" lon="2.57267">
        <ele>-1.6</ele>
        <time>2020-06-23T13:57:03Z</time>
      </trkpt>
      <trkpt lat="51.02113" lon="2.57276">
        <ele>-1.5</ele>
        <time>2020-06-23T13:57:04Z</time>
      </trkpt>
      <trkpt lat="51.02115" lon="2.57284">
        <ele>-1.5</ele>
        <time>2020-06-23T13:57:05Z</time>
      </trkpt>
      <trkpt lat="51.02117" lon="2.57292">
        <ele>-1.5</ele>
        <time>2020-06-23T13:57:06Z</time>
      </trkpt>
      <trkpt lat="51.02119" lon="2.573">
        <ele>-1.5</ele>
        <time>2020-06-23T13:57:07Z</time>
      </trkpt>
      <trkpt lat="51.02121" lon="2.57308">
        <ele>-1.4</ele>
        <time>2020-06-23T13:57:08Z</time>
      </trkpt>
      <trkpt lat="51.02123" lon="2.57314">
        <ele>-1.4</ele>
        <time>2020-06-23T13:57:09Z</time>
      </trkpt>
      <trkpt lat="51.02125" lon="2.57322">
        <ele>-1.4</ele>
        <time>2020-06-23T13:57:10Z</time>
      </trkpt>
      <trkpt lat="51.02127" lon="2.5733">
        <ele>-1.4</ele>
        <time>2020-06-23T13:57:11Z</time>
      </trkpt>
      <trkpt lat="51.02129" lon="2.57337">
        <ele>-1.4</ele>
        <time>2020-06-23T13:57:12Z</time>
      </trkpt>
      <trkpt lat="51.0213" lon="2.57343">
        <ele>-1.4</ele>
        <time>2020-06-23T13:57:13Z</time>
      </trkpt>
      <trkpt lat="51.02132" lon="2.57349">
        <ele>-1.5</ele>
        <time>2020-06-23T13:57:14Z</time>
      </trkpt>
      <trkpt lat="51.02134" lon="2.57355">
        <ele>-1.5</ele>
        <time>2020-06-23T13:57:15Z</time>
      </trkpt>
      <trkpt lat="51.02135" lon="2.57361">
        <ele>-1.5</ele>
        <time>2020-06-23T13:57:16Z</time>
      </trkpt>
      <trkpt lat="51.02137" lon="2.57366">
        <ele>-1.5</ele>
        <time>2020-06-23T13:57:17Z</time>
      </trkpt>
      <trkpt lat="51.02137" lon="2.57368">
        <ele>-1.5</ele>
        <time>2020-06-23T13:57:18Z</time>
      </trkpt>
      <trkpt lat="51.02138" lon="2.57373">
        <ele>-1.4</ele>
        <time>2020-06-23T13:57:19Z</time>
      </trkpt>
      <trkpt lat="51.02139" lon="2.57375">
        <ele>-1.4</ele>
        <time>2020-06-23T13:57:20Z</time>
      </trkpt>
      <trkpt lat="51.0214" lon="2.5738">
        <ele>-1.4</ele>
        <time>2020-06-23T13:57:21Z</time>
      </trkpt>
      <trkpt lat="51.02141" lon="2.57382">
        <ele>-1.4</ele>
        <time>2020-06-23T13:57:22Z</time>
      </trkpt>
      <trkpt lat="51.02142" lon="2.57385">
        <ele>-1.5</ele>
        <time>2020-06-23T13:57:23Z</time>
      </trkpt>
      <trkpt lat="51.02142" lon="2.57387">
        <ele>-1.5</ele>
        <time>2020-06-23T13:57:24Z</time>
      </trkpt>
      <trkpt lat="51.02144" lon="2.57392">
        <ele>-1.5</ele>
        <time>2020-06-23T13:57:25Z</time>
      </trkpt>
      <trkpt lat="51.02144" lon="2.57393">
        <ele>-1.5</ele>
        <time>2020-06-23T13:57:26Z</time>
      </trkpt>
      <trkpt lat="51.02145" lon="2.57396">
        <ele>-1.5</ele>
        <time>2020-06-23T13:57:27Z</time>
      </trkpt>
      <trkpt lat="51.02145" lon="2.57398">
        <ele>-1.5</ele>
        <time>2020-06-23T13:57:28Z</time>
      </trkpt>
      <trkpt lat="51.02145" lon="2.574">
        <ele>-1.5</ele>
        <time>2020-06-23T13:57:29Z</time>
      </trkpt>
      <trkpt lat="51.02145" lon="2.57402">
        <ele>-1.5</ele>
        <time>2020-06-23T13:57:30Z</time>
      </trkpt>
      <trkpt lat="51.02146" lon="2.57405">
        <ele>-1.6</ele>
        <time>2020-06-23T13:57:31Z</time>
      </trkpt>
      <trkpt lat="51.02146" lon="2.57406">
        <ele>-1.6</ele>
        <time>2020-06-23T13:57:32Z</time>
      </trkpt>
      <trkpt lat="51.02145" lon="2.57405">
        <ele>-1.6</ele>
        <time>2020-06-23T13:57:33Z</time>
      </trkpt>
      <trkpt lat="51.02145" lon="2.57405">
        <ele>-1.6</ele>
        <time>2020-06-23T13:57:34Z</time>
      </trkpt>
      <trkpt lat="51.02145" lon="2.57405">
        <ele>-1.6</ele>
        <time>2020-06-23T13:57:35Z</time>
      </trkpt>
      <trkpt lat="51.02145" lon="2.57404">
        <ele>-1.6</ele>
        <time>2020-06-23T13:57:36Z</time>
      </trkpt>
      <trkpt lat="51.02145" lon="2.57404">
        <ele>-1.6</ele>
        <time>2020-06-23T13:57:37Z</time>
      </trkpt>
      <trkpt lat="51.02145" lon="2.57405">
        <ele>-1.6</ele>
        <time>2020-06-23T13:57:38Z</time>
      </trkpt>
      <trkpt lat="51.02145" lon="2.57404">
        <ele>-1.6</ele>
        <time>2020-06-23T13:57:39Z</time>
      </trkpt>
      <trkpt lat="51.02145" lon="2.57404">
        <ele>-1.6</ele>
        <time>2020-06-23T13:57:40Z</time>
      </trkpt>
      <trkpt lat="51.02145" lon="2.57404">
        <ele>-1.6</ele>
        <time>2020-06-23T13:57:41Z</time>
      </trkpt>
      <trkpt lat="51.02145" lon="2.57406">
        <ele>-1.6</ele>
        <time>2020-06-23T13:57:42Z</time>
      </trkpt>
      <trkpt lat="51.02145" lon="2.57406">
        <ele>-1.6</ele>
        <time>2020-06-23T13:57:43Z</time>
      </trkpt>
      <trkpt lat="51.02155" lon="2.57448">
        <ele>-1.5</ele>
        <time>2020-06-23T13:58:54Z</time>
      </trkpt>
      <trkpt lat="51.02156" lon="2.57454">
        <ele>-1.5</ele>
        <time>2020-06-23T13:58:55Z</time>
      </trkpt>
      <trkpt lat="51.02157" lon="2.57459">
        <ele>-1.5</ele>
        <time>2020-06-23T13:58:56Z</time>
      </trkpt>
      <trkpt lat="51.02159" lon="2.57466">
        <ele>-1.5</ele>
        <time>2020-06-23T13:58:57Z</time>
      </trkpt>
      <trkpt lat="51.02161" lon="2.57473">
        <ele>-1.5</ele>
        <time>2020-06-23T13:58:58Z</time>
      </trkpt>
      <trkpt lat="51.02164" lon="2.57479">
        <ele>-1.5</ele>
        <time>2020-06-23T13:58:59Z</time>
      </trkpt>
      <trkpt lat="51.02165" lon="2.57487">
        <ele>-1.5</ele>
        <time>2020-06-23T13:59:00Z</time>
      </trkpt>
      <trkpt lat="51.02167" lon="2.57494">
        <ele>-1.6</ele>
        <time>2020-06-23T13:59:01Z</time>
      </trkpt>
      <trkpt lat="51.0217" lon="2.575">
        <ele>-1.6</ele>
        <time>2020-06-23T13:59:02Z</time>
      </trkpt>
      <trkpt lat="51.02172" lon="2.57507">
        <ele>-1.6</ele>
        <time>2020-06-23T13:59:03Z</time>
      </trkpt>
      <trkpt lat="51.02174" lon="2.57514">
        <ele>-1.6</ele>
        <time>2020-06-23T13:59:04Z</time>
      </trkpt>
      <trkpt lat="51.02175" lon="2.57519">
        <ele>-1.6</ele>
        <time>2020-06-23T13:59:05Z</time>
      </trkpt>
      <trkpt lat="51.02176" lon="2.57525">
        <ele>-1.6</ele>
        <time>2020-06-23T13:59:06Z</time>
      </trkpt>
      <trkpt lat="51.02178" lon="2.57532">
        <ele>-1.7</ele>
        <time>2020-06-23T13:59:07Z</time>
      </trkpt>
      <trkpt lat="51.02179" lon="2.5754">
        <ele>-1.7</ele>
        <time>2020-06-23T13:59:08Z</time>
      </trkpt>
      <trkpt lat="51.02181" lon="2.57547">
        <ele>-1.7</ele>
        <time>2020-06-23T13:59:09Z</time>
      </trkpt>
      <trkpt lat="51.02184" lon="2.57554">
        <ele>-1.7</ele>
        <time>2020-06-23T13:59:10Z</time>
      </trkpt>
      <trkpt lat="51.02185" lon="2.57562">
        <ele>-1.8</ele>
        <time>2020-06-23T13:59:11Z</time>
      </trkpt>
      <trkpt lat="51.02188" lon="2.5757">
        <ele>-1.8</ele>
        <time>2020-06-23T13:59:12Z</time>
      </trkpt>
      <trkpt lat="51.0219" lon="2.57578">
        <ele>-1.8</ele>
        <time>2020-06-23T13:59:13Z</time>
      </trkpt>
      <trkpt lat="51.02193" lon="2.57587">
        <ele>-1.8</ele>
        <time>2020-06-23T13:59:14Z</time>
      </trkpt>
      <trkpt lat="51.02195" lon="2.57595">
        <ele>-1.8</ele>
        <time>2020-06-23T13:59:15Z</time>
      </trkpt>
      <trkpt lat="51.02197" lon="2.57602">
        <ele>-1.8</ele>
        <time>2020-06-23T13:59:16Z</time>
      </trkpt>
      <trkpt lat="51.02199" lon="2.57609">
        <ele>-1.9</ele>
        <time>2020-06-23T13:59:17Z</time>
      </trkpt>
      <trkpt lat="51.022" lon="2.57617">
        <ele>-1.9</ele>
        <time>2020-06-23T13:59:18Z</time>
      </trkpt>
      <trkpt lat="51.02202" lon="2.57626">
        <ele>-1.9</ele>
        <time>2020-06-23T13:59:19Z</time>
      </trkpt>
      <trkpt lat="51.02205" lon="2.57634">
        <ele>-1.9</ele>
        <time>2020-06-23T13:59:20Z</time>
      </trkpt>
      <trkpt lat="51.02207" lon="2.57643">
        <ele>-2</ele>
        <time>2020-06-23T13:59:21Z</time>
      </trkpt>
      <trkpt lat="51.02209" lon="2.57651">
        <ele>-2</ele>
        <time>2020-06-23T13:59:22Z</time>
      </trkpt>
      <trkpt lat="51.02211" lon="2.57659">
        <ele>-2</ele>
        <time>2020-06-23T13:59:23Z</time>
      </trkpt>
      <trkpt lat="51.02213" lon="2.57668">
        <ele>-2</ele>
        <time>2020-06-23T13:59:24Z</time>
      </trkpt>
      <trkpt lat="51.02215" lon="2.57677">
        <ele>-2</ele>
        <time>2020-06-23T13:59:25Z</time>
      </trkpt>
      <trkpt lat="51.02217" lon="2.57686">
        <ele>-2.1</ele>
        <time>2020-06-23T13:59:26Z</time>
      </trkpt>
      <trkpt lat="51.0222" lon="2.57694">
        <ele>-2.1</ele>
        <time>2020-06-23T13:59:27Z</time>
      </trkpt>
      <trkpt lat="51.02222" lon="2.57703">
        <ele>-2.1</ele>
        <time>2020-06-23T13:59:28Z</time>
      </trkpt>
      <trkpt lat="51.02224" lon="2.57711">
        <ele>-2.1</ele>
        <time>2020-06-23T13:59:29Z</time>
      </trkpt>
      <trkpt lat="51.02226" lon="2.57719">
        <ele>-2.1</ele>
        <time>2020-06-23T13:59:30Z</time>
      </trkpt>
      <trkpt lat="51.02228" lon="2.57727">
        <ele>-2.1</ele>
        <time>2020-06-23T13:59:31Z</time>
      </trkpt>
      <trkpt lat="51.0223" lon="2.57736">
        <ele>-2.1</ele>
        <time>2020-06-23T13:59:32Z</time>
      </trkpt>
      <trkpt lat="51.02232" lon="2.57743">
        <ele>-2.1</ele>
        <time>2020-06-23T13:59:33Z</time>
      </trkpt>
      <trkpt lat="51.02234" lon="2.5775">
        <ele>-2.1</ele>
        <time>2020-06-23T13:59:34Z</time>
      </trkpt>
      <trkpt lat="51.02236" lon="2.57757">
        <ele>-2.1</ele>
        <time>2020-06-23T13:59:35Z</time>
      </trkpt>
      <trkpt lat="51.02239" lon="2.57765">
        <ele>-2.1</ele>
        <time>2020-06-23T13:59:36Z</time>
      </trkpt>
      <trkpt lat="51.02241" lon="2.57772">
        <ele>-2</ele>
        <time>2020-06-23T13:59:37Z</time>
      </trkpt>
      <trkpt lat="51.02243" lon="2.57778">
        <ele>-2</ele>
        <time>2020-06-23T13:59:38Z</time>
      </trkpt>
      <trkpt lat="51.02245" lon="2.57785">
        <ele>-1.9</ele>
        <time>2020-06-23T13:59:39Z</time>
      </trkpt>
      <trkpt lat="51.02246" lon="2.5779">
        <ele>-1.9</ele>
        <time>2020-06-23T13:59:40Z</time>
      </trkpt>
      <trkpt lat="51.02248" lon="2.57796">
        <ele>-1.8</ele>
        <time>2020-06-23T13:59:41Z</time>
      </trkpt>
      <trkpt lat="51.02249" lon="2.57802">
        <ele>-1.8</ele>
        <time>2020-06-23T13:59:42Z</time>
      </trkpt>
      <trkpt lat="51.02251" lon="2.5781">
        <ele>-1.7</ele>
        <time>2020-06-23T13:59:43Z</time>
      </trkpt>
      <trkpt lat="51.02251" lon="2.57815">
        <ele>-1.8</ele>
        <time>2020-06-23T13:59:44Z</time>
      </trkpt>
      <trkpt lat="51.0225" lon="2.5782">
        <ele>-1.8</ele>
        <time>2020-06-23T13:59:45Z</time>
      </trkpt>
      <trkpt lat="51.0225" lon="2.57825">
        <ele>-1.9</ele>
        <time>2020-06-23T13:59:46Z</time>
      </trkpt>
      <trkpt lat="51.02247" lon="2.57827">
        <ele>-2</ele>
        <time>2020-06-23T13:59:47Z</time>
      </trkpt>
      <trkpt lat="51.02242" lon="2.57828">
        <ele>-2.1</ele>
        <time>2020-06-23T13:59:48Z</time>
      </trkpt>
      <trkpt lat="51.02236" lon="2.57829">
        <ele>-2.2</ele>
        <time>2020-06-23T13:59:49Z</time>
      </trkpt>
      <trkpt lat="51.02231" lon="2.57833">
        <ele>-2.3</ele>
        <time>2020-06-23T13:59:50Z</time>
      </trkpt>
      <trkpt lat="51.02225" lon="2.57838">
        <ele>-2.4</ele>
        <time>2020-06-23T13:59:51Z</time>
      </trkpt>
      <trkpt lat="51.02219" lon="2.57842">
        <ele>-2.5</ele>
        <time>2020-06-23T13:59:52Z</time>
      </trkpt>
      <trkpt lat="51.02213" lon="2.57845">
        <ele>-2.5</ele>
        <time>2020-06-23T13:59:53Z</time>
      </trkpt>
      <trkpt lat="51.02207" lon="2.57848">
        <ele>-2.6</ele>
        <time>2020-06-23T13:59:54Z</time>
      </trkpt>
      <trkpt lat="51.022" lon="2.5785">
        <ele>-2.6</ele>
        <time>2020-06-23T13:59:55Z</time>
      </trkpt>
      <trkpt lat="51.02195" lon="2.57852">
        <ele>-2.6</ele>
        <time>2020-06-23T13:59:56Z</time>
      </trkpt>
      <trkpt lat="51.02188" lon="2.57855">
        <ele>-2.7</ele>
        <time>2020-06-23T13:59:57Z</time>
      </trkpt>
      <trkpt lat="51.02182" lon="2.57858">
        <ele>-2.7</ele>
        <time>2020-06-23T13:59:58Z</time>
      </trkpt>
      <trkpt lat="51.02176" lon="2.57862">
        <ele>-2.7</ele>
        <time>2020-06-23T13:59:59Z</time>
      </trkpt>
      <trkpt lat="51.0217" lon="2.57865">
        <ele>-2.7</ele>
        <time>2020-06-23T14:00:00Z</time>
      </trkpt>
      <trkpt lat="51.02165" lon="2.57868">
        <ele>-2.7</ele>
        <time>2020-06-23T14:00:01Z</time>
      </trkpt>
      <trkpt lat="51.02159" lon="2.57871">
        <ele>-2.7</ele>
        <time>2020-06-23T14:00:02Z</time>
      </trkpt>
      <trkpt lat="51.02153" lon="2.57875">
        <ele>-2.7</ele>
        <time>2020-06-23T14:00:03Z</time>
      </trkpt>
      <trkpt lat="51.02147" lon="2.57878">
        <ele>-2.7</ele>
        <time>2020-06-23T14:00:04Z</time>
      </trkpt>
      <trkpt lat="51.02142" lon="2.57881">
        <ele>-2.7</ele>
        <time>2020-06-23T14:00:05Z</time>
      </trkpt>
      <trkpt lat="51.02137" lon="2.57885">
        <ele>-2.7</ele>
        <time>2020-06-23T14:00:06Z</time>
      </trkpt>
      <trkpt lat="51.02131" lon="2.57888">
        <ele>-2.7</ele>
        <time>2020-06-23T14:00:07Z</time>
      </trkpt>
      <trkpt lat="51.02125" lon="2.57892">
        <ele>-2.7</ele>
        <time>2020-06-23T14:00:08Z</time>
      </trkpt>
      <trkpt lat="51.02119" lon="2.57895">
        <ele>-2.7</ele>
        <time>2020-06-23T14:00:09Z</time>
      </trkpt>
      <trkpt lat="51.02113" lon="2.57899">
        <ele>-2.7</ele>
        <time>2020-06-23T14:00:10Z</time>
      </trkpt>
      <trkpt lat="51.02106" lon="2.57904">
        <ele>-2.8</ele>
        <time>2020-06-23T14:00:11Z</time>
      </trkpt>
      <trkpt lat="51.021" lon="2.57907">
        <ele>-2.8</ele>
        <time>2020-06-23T14:00:12Z</time>
      </trkpt>
      <trkpt lat="51.02094" lon="2.57912">
        <ele>-2.8</ele>
        <time>2020-06-23T14:00:13Z</time>
      </trkpt>
      <trkpt lat="51.02088" lon="2.57916">
        <ele>-2.8</ele>
        <time>2020-06-23T14:00:14Z</time>
      </trkpt>
      <trkpt lat="51.02083" lon="2.5792">
        <ele>-2.8</ele>
        <time>2020-06-23T14:00:15Z</time>
      </trkpt>
      <trkpt lat="51.02077" lon="2.57923">
        <ele>-2.8</ele>
        <time>2020-06-23T14:00:16Z</time>
      </trkpt>
      <trkpt lat="51.0207" lon="2.57927">
        <ele>-2.8</ele>
        <time>2020-06-23T14:00:17Z</time>
      </trkpt>
      <trkpt lat="51.02064" lon="2.57931">
        <ele>-2.8</ele>
        <time>2020-06-23T14:00:18Z</time>
      </trkpt>
      <trkpt lat="51.02057" lon="2.57934">
        <ele>-2.9</ele>
        <time>2020-06-23T14:00:19Z</time>
      </trkpt>
      <trkpt lat="51.02051" lon="2.57937">
        <ele>-2.9</ele>
        <time>2020-06-23T14:00:20Z</time>
      </trkpt>
      <trkpt lat="51.02044" lon="2.57941">
        <ele>-2.9</ele>
        <time>2020-06-23T14:00:21Z</time>
      </trkpt>
      <trkpt lat="51.02038" lon="2.57944">
        <ele>-2.9</ele>
        <time>2020-06-23T14:00:22Z</time>
      </trkpt>
      <trkpt lat="51.02032" lon="2.57948">
        <ele>-3</ele>
        <time>2020-06-23T14:00:23Z</time>
      </trkpt>
      <trkpt lat="51.02026" lon="2.57951">
        <ele>-3</ele>
        <time>2020-06-23T14:00:24Z</time>
      </trkpt>
      <trkpt lat="51.02019" lon="2.57955">
        <ele>-3</ele>
        <time>2020-06-23T14:00:25Z</time>
      </trkpt>
      <trkpt lat="51.02013" lon="2.57959">
        <ele>-3</ele>
        <time>2020-06-23T14:00:26Z</time>
      </trkpt>
      <trkpt lat="51.02007" lon="2.57962">
        <ele>-3</ele>
        <time>2020-06-23T14:00:27Z</time>
      </trkpt>
      <trkpt lat="51.02" lon="2.57966">
        <ele>-3</ele>
        <time>2020-06-23T14:00:28Z</time>
      </trkpt>
      <trkpt lat="51.01994" lon="2.57971">
        <ele>-3</ele>
        <time>2020-06-23T14:00:29Z</time>
      </trkpt>
      <trkpt lat="51.01987" lon="2.57975">
        <ele>-3</ele>
        <time>2020-06-23T14:00:30Z</time>
      </trkpt>
      <trkpt lat="51.01981" lon="2.57979">
        <ele>-3</ele>
        <time>2020-06-23T14:00:31Z</time>
      </trkpt>
      <trkpt lat="51.01975" lon="2.57983">
        <ele>-3</ele>
        <time>2020-06-23T14:00:32Z</time>
      </trkpt>
      <trkpt lat="51.01969" lon="2.57987">
        <ele>-3</ele>
        <time>2020-06-23T14:00:33Z</time>
      </trkpt>
      <trkpt lat="51.01962" lon="2.57991">
        <ele>-3</ele>
        <time>2020-06-23T14:00:34Z</time>
      </trkpt>
      <trkpt lat="51.01956" lon="2.57996">
        <ele>-3</ele>
        <time>2020-06-23T14:00:35Z</time>
      </trkpt>
      <trkpt lat="51.01949" lon="2.58">
        <ele>-3</ele>
        <time>2020-06-23T14:00:36Z</time>
      </trkpt>
      <trkpt lat="51.01943" lon="2.58004">
        <ele>-3</ele>
        <time>2020-06-23T14:00:37Z</time>
      </trkpt>
      <trkpt lat="51.01936" lon="2.58008">
        <ele>-3</ele>
        <time>2020-06-23T14:00:38Z</time>
      </trkpt>
      <trkpt lat="51.0193" lon="2.58012">
        <ele>-3</ele>
        <time>2020-06-23T14:00:39Z</time>
      </trkpt>
      <trkpt lat="51.01923" lon="2.58017">
        <ele>-3</ele>
        <time>2020-06-23T14:00:40Z</time>
      </trkpt>
      <trkpt lat="51.01917" lon="2.58021">
        <ele>-3</ele>
        <time>2020-06-23T14:00:41Z</time>
      </trkpt>
      <trkpt lat="51.0191" lon="2.58025">
        <ele>-3</ele>
        <time>2020-06-23T14:00:42Z</time>
      </trkpt>
      <trkpt lat="51.01903" lon="2.58028">
        <ele>-3</ele>
        <time>2020-06-23T14:00:43Z</time>
      </trkpt>
      <trkpt lat="51.01896" lon="2.58033">
        <ele>-3</ele>
        <time>2020-06-23T14:00:44Z</time>
      </trkpt>
      <trkpt lat="51.0189" lon="2.58038">
        <ele>-3</ele>
        <time>2020-06-23T14:00:45Z</time>
      </trkpt>
      <trkpt lat="51.01883" lon="2.58042">
        <ele>-3</ele>
        <time>2020-06-23T14:00:46Z</time>
      </trkpt>
      <trkpt lat="51.01877" lon="2.58047">
        <ele>-3</ele>
        <time>2020-06-23T14:00:47Z</time>
      </trkpt>
      <trkpt lat="51.01871" lon="2.58051">
        <ele>-3</ele>
        <time>2020-06-23T14:00:48Z</time>
      </trkpt>
      <trkpt lat="51.01864" lon="2.58055">
        <ele>-3</ele>
        <time>2020-06-23T14:00:49Z</time>
      </trkpt>
      <trkpt lat="51.01858" lon="2.5806">
        <ele>-3</ele>
        <time>2020-06-23T14:00:50Z</time>
      </trkpt>
      <trkpt lat="51.01853" lon="2.58064">
        <ele>-2.9</ele>
        <time>2020-06-23T14:00:51Z</time>
      </trkpt>
      <trkpt lat="51.01847" lon="2.58067">
        <ele>-2.9</ele>
        <time>2020-06-23T14:00:52Z</time>
      </trkpt>
      <trkpt lat="51.01841" lon="2.5807">
        <ele>-2.9</ele>
        <time>2020-06-23T14:00:53Z</time>
      </trkpt>
      <trkpt lat="51.01835" lon="2.58073">
        <ele>-2.9</ele>
        <time>2020-06-23T14:00:54Z</time>
      </trkpt>
      <trkpt lat="51.01829" lon="2.58075">
        <ele>-2.8</ele>
        <time>2020-06-23T14:00:55Z</time>
      </trkpt>
      <trkpt lat="51.01823" lon="2.58079">
        <ele>-2.8</ele>
        <time>2020-06-23T14:00:56Z</time>
      </trkpt>
      <trkpt lat="51.01818" lon="2.58084">
        <ele>-2.8</ele>
        <time>2020-06-23T14:00:57Z</time>
      </trkpt>
      <trkpt lat="51.01813" lon="2.58088">
        <ele>-2.8</ele>
        <time>2020-06-23T14:00:58Z</time>
      </trkpt>
      <trkpt lat="51.01807" lon="2.58092">
        <ele>-2.9</ele>
        <time>2020-06-23T14:00:59Z</time>
      </trkpt>
      <trkpt lat="51.01801" lon="2.58096">
        <ele>-2.9</ele>
        <time>2020-06-23T14:01:00Z</time>
      </trkpt>
      <trkpt lat="51.01796" lon="2.581">
        <ele>-2.9</ele>
        <time>2020-06-23T14:01:01Z</time>
      </trkpt>
      <trkpt lat="51.0179" lon="2.58104">
        <ele>-2.9</ele>
        <time>2020-06-23T14:01:02Z</time>
      </trkpt>
      <trkpt lat="51.01783" lon="2.58108">
        <ele>-2.9</ele>
        <time>2020-06-23T14:01:03Z</time>
      </trkpt>
      <trkpt lat="51.01777" lon="2.58111">
        <ele>-2.9</ele>
        <time>2020-06-23T14:01:04Z</time>
      </trkpt>
      <trkpt lat="51.01772" lon="2.58115">
        <ele>-2.9</ele>
        <time>2020-06-23T14:01:05Z</time>
      </trkpt>
      <trkpt lat="51.01766" lon="2.58118">
        <ele>-2.8</ele>
        <time>2020-06-23T14:01:06Z</time>
      </trkpt>
      <trkpt lat="51.0176" lon="2.58122">
        <ele>-2.8</ele>
        <time>2020-06-23T14:01:07Z</time>
      </trkpt>
      <trkpt lat="51.01754" lon="2.58126">
        <ele>-2.7</ele>
        <time>2020-06-23T14:01:08Z</time>
      </trkpt>
      <trkpt lat="51.01748" lon="2.5813">
        <ele>-2.7</ele>
        <time>2020-06-23T14:01:09Z</time>
      </trkpt>
      <trkpt lat="51.01742" lon="2.58134">
        <ele>-2.6</ele>
        <time>2020-06-23T14:01:10Z</time>
      </trkpt>
      <trkpt lat="51.01737" lon="2.58138">
        <ele>-2.5</ele>
        <time>2020-06-23T14:01:11Z</time>
      </trkpt>
      <trkpt lat="51.01731" lon="2.58141">
        <ele>-2.5</ele>
        <time>2020-06-23T14:01:12Z</time>
      </trkpt>
      <trkpt lat="51.01726" lon="2.58147">
        <ele>-2.4</ele>
        <time>2020-06-23T14:01:13Z</time>
      </trkpt>
      <trkpt lat="51.0172" lon="2.58153">
        <ele>-2.3</ele>
        <time>2020-06-23T14:01:14Z</time>
      </trkpt>
      <trkpt lat="51.01716" lon="2.58159">
        <ele>-2.1</ele>
        <time>2020-06-23T14:01:15Z</time>
      </trkpt>
      <trkpt lat="51.01711" lon="2.58166">
        <ele>-1.9</ele>
        <time>2020-06-23T14:01:16Z</time>
      </trkpt>
      <trkpt lat="51.01707" lon="2.58173">
        <ele>-1.7</ele>
        <time>2020-06-23T14:01:17Z</time>
      </trkpt>
      <trkpt lat="51.01703" lon="2.58179">
        <ele>-1.5</ele>
        <time>2020-06-23T14:01:18Z</time>
      </trkpt>
      <trkpt lat="51.01699" lon="2.58186">
        <ele>-1.3</ele>
        <time>2020-06-23T14:01:19Z</time>
      </trkpt>
      <trkpt lat="51.01697" lon="2.58193">
        <ele>-1.1</ele>
        <time>2020-06-23T14:01:20Z</time>
      </trkpt>
      <trkpt lat="51.01694" lon="2.582">
        <ele>-1.1</ele>
        <time>2020-06-23T14:01:21Z</time>
      </trkpt>
      <trkpt lat="51.01691" lon="2.58206">
        <ele>-1</ele>
        <time>2020-06-23T14:01:22Z</time>
      </trkpt>
      <trkpt lat="51.01688" lon="2.58213">
        <ele>-1</ele>
        <time>2020-06-23T14:01:23Z</time>
      </trkpt>
      <trkpt lat="51.01684" lon="2.58219">
        <ele>-0.9</ele>
        <time>2020-06-23T14:01:24Z</time>
      </trkpt>
      <trkpt lat="51.0168" lon="2.58223">
        <ele>-0.9</ele>
        <time>2020-06-23T14:01:25Z</time>
      </trkpt>
      <trkpt lat="51.01675" lon="2.58227">
        <ele>-0.8</ele>
        <time>2020-06-23T14:01:26Z</time>
      </trkpt>
      <trkpt lat="51.0167" lon="2.58231">
        <ele>-0.8</ele>
        <time>2020-06-23T14:01:27Z</time>
      </trkpt>
      <trkpt lat="51.01665" lon="2.58235">
        <ele>-0.7</ele>
        <time>2020-06-23T14:01:28Z</time>
      </trkpt>
      <trkpt lat="51.0166" lon="2.58239">
        <ele>-0.7</ele>
        <time>2020-06-23T14:01:29Z</time>
      </trkpt>
      <trkpt lat="51.01654" lon="2.58241">
        <ele>-0.7</ele>
        <time>2020-06-23T14:01:30Z</time>
      </trkpt>
      <trkpt lat="51.01649" lon="2.58243">
        <ele>-0.7</ele>
        <time>2020-06-23T14:01:31Z</time>
      </trkpt>
      <trkpt lat="51.01643" lon="2.58246">
        <ele>-0.6</ele>
        <time>2020-06-23T14:01:32Z</time>
      </trkpt>
      <trkpt lat="51.01638" lon="2.5825">
        <ele>-0.6</ele>
        <time>2020-06-23T14:01:33Z</time>
      </trkpt>
      <trkpt lat="51.01633" lon="2.58252">
        <ele>-0.5</ele>
        <time>2020-06-23T14:01:34Z</time>
      </trkpt>
      <trkpt lat="51.01627" lon="2.58256">
        <ele>-0.5</ele>
        <time>2020-06-23T14:01:35Z</time>
      </trkpt>
      <trkpt lat="51.01621" lon="2.58259">
        <ele>-0.4</ele>
        <time>2020-06-23T14:01:36Z</time>
      </trkpt>
      <trkpt lat="51.01616" lon="2.58263">
        <ele>-0.4</ele>
        <time>2020-06-23T14:01:37Z</time>
      </trkpt>
      <trkpt lat="51.0161" lon="2.58267">
        <ele>-0.3</ele>
        <time>2020-06-23T14:01:38Z</time>
      </trkpt>
      <trkpt lat="51.01605" lon="2.58271">
        <ele>-0.3</ele>
        <time>2020-06-23T14:01:39Z</time>
      </trkpt>
      <trkpt lat="51.01599" lon="2.58274">
        <ele>-0.3</ele>
        <time>2020-06-23T14:01:40Z</time>
      </trkpt>
      <trkpt lat="51.01594" lon="2.58277">
        <ele>-0.3</ele>
        <time>2020-06-23T14:01:41Z</time>
      </trkpt>
      <trkpt lat="51.01588" lon="2.58282">
        <ele>-0.4</ele>
        <time>2020-06-23T14:01:42Z</time>
      </trkpt>
      <trkpt lat="51.01582" lon="2.58285">
        <ele>-0.4</ele>
        <time>2020-06-23T14:01:43Z</time>
      </trkpt>
      <trkpt lat="51.01577" lon="2.5829">
        <ele>-0.4</ele>
        <time>2020-06-23T14:01:44Z</time>
      </trkpt>
      <trkpt lat="51.01571" lon="2.58294">
        <ele>-0.5</ele>
        <time>2020-06-23T14:01:45Z</time>
      </trkpt>
      <trkpt lat="51.01566" lon="2.583">
        <ele>-0.4</ele>
        <time>2020-06-23T14:01:46Z</time>
      </trkpt>
      <trkpt lat="51.0156" lon="2.58306">
        <ele>-0.4</ele>
        <time>2020-06-23T14:01:47Z</time>
      </trkpt>
      <trkpt lat="51.01555" lon="2.58312">
        <ele>-0.4</ele>
        <time>2020-06-23T14:01:48Z</time>
      </trkpt>
      <trkpt lat="51.0155" lon="2.58319">
        <ele>-0.3</ele>
        <time>2020-06-23T14:01:49Z</time>
      </trkpt>
      <trkpt lat="51.01546" lon="2.58327">
        <ele>-0.3</ele>
        <time>2020-06-23T14:01:50Z</time>
      </trkpt>
      <trkpt lat="51.01541" lon="2.58334">
        <ele>-0.4</ele>
        <time>2020-06-23T14:01:51Z</time>
      </trkpt>
      <trkpt lat="51.01535" lon="2.5834">
        <ele>-0.4</ele>
        <time>2020-06-23T14:01:52Z</time>
      </trkpt>
      <trkpt lat="51.0153" lon="2.58346">
        <ele>-0.4</ele>
        <time>2020-06-23T14:01:53Z</time>
      </trkpt>
      <trkpt lat="51.01525" lon="2.58351">
        <ele>-0.5</ele>
        <time>2020-06-23T14:01:54Z</time>
      </trkpt>
      <trkpt lat="51.0152" lon="2.58357">
        <ele>-0.5</ele>
        <time>2020-06-23T14:01:55Z</time>
      </trkpt>
      <trkpt lat="51.01515" lon="2.58364">
        <ele>-0.5</ele>
        <time>2020-06-23T14:01:56Z</time>
      </trkpt>
      <trkpt lat="51.0151" lon="2.58372">
        <ele>-0.5</ele>
        <time>2020-06-23T14:01:57Z</time>
      </trkpt>
      <trkpt lat="51.01505" lon="2.58379">
        <ele>-0.5</ele>
        <time>2020-06-23T14:01:58Z</time>
      </trkpt>
      <trkpt lat="51.015" lon="2.58386">
        <ele>-0.5</ele>
        <time>2020-06-23T14:01:59Z</time>
      </trkpt>
      <trkpt lat="51.01494" lon="2.58392">
        <ele>-0.5</ele>
        <time>2020-06-23T14:02:00Z</time>
      </trkpt>
      <trkpt lat="51.01489" lon="2.58399">
        <ele>-0.5</ele>
        <time>2020-06-23T14:02:01Z</time>
      </trkpt>
      <trkpt lat="51.01484" lon="2.58406">
        <ele>-0.5</ele>
        <time>2020-06-23T14:02:02Z</time>
      </trkpt>
      <trkpt lat="51.01479" lon="2.58413">
        <ele>-0.5</ele>
        <time>2020-06-23T14:02:03Z</time>
      </trkpt>
      <trkpt lat="51.01474" lon="2.58419">
        <ele>-0.5</ele>
        <time>2020-06-23T14:02:04Z</time>
      </trkpt>
      <trkpt lat="51.01469" lon="2.58426">
        <ele>-0.5</ele>
        <time>2020-06-23T14:02:05Z</time>
      </trkpt>
      <trkpt lat="51.01464" lon="2.58433">
        <ele>-0.5</ele>
        <time>2020-06-23T14:02:06Z</time>
      </trkpt>
      <trkpt lat="51.01459" lon="2.5844">
        <ele>-0.5</ele>
        <time>2020-06-23T14:02:07Z</time>
      </trkpt>
      <trkpt lat="51.01454" lon="2.58446">
        <ele>-0.5</ele>
        <time>2020-06-23T14:02:08Z</time>
      </trkpt>
      <trkpt lat="51.01449" lon="2.58453">
        <ele>-0.5</ele>
        <time>2020-06-23T14:02:09Z</time>
      </trkpt>
      <trkpt lat="51.01443" lon="2.58458">
        <ele>-0.5</ele>
        <time>2020-06-23T14:02:10Z</time>
      </trkpt>
      <trkpt lat="51.01436" lon="2.58465">
        <ele>-0.4</ele>
        <time>2020-06-23T14:02:11Z</time>
      </trkpt>
      <trkpt lat="51.01431" lon="2.58471">
        <ele>-0.4</ele>
        <time>2020-06-23T14:02:12Z</time>
      </trkpt>
      <trkpt lat="51.01425" lon="2.58477">
        <ele>-0.4</ele>
        <time>2020-06-23T14:02:13Z</time>
      </trkpt>
      <trkpt lat="51.0142" lon="2.58482">
        <ele>-0.3</ele>
        <time>2020-06-23T14:02:14Z</time>
      </trkpt>
      <trkpt lat="51.01416" lon="2.58488">
        <ele>-0.3</ele>
        <time>2020-06-23T14:02:15Z</time>
      </trkpt>
      <trkpt lat="51.0141" lon="2.58495">
        <ele>-0.3</ele>
        <time>2020-06-23T14:02:16Z</time>
      </trkpt>
      <trkpt lat="51.01404" lon="2.58501">
        <ele>-0.3</ele>
        <time>2020-06-23T14:02:17Z</time>
      </trkpt>
      <trkpt lat="51.01398" lon="2.58508">
        <ele>-0.2</ele>
        <time>2020-06-23T14:02:18Z</time>
      </trkpt>
      <trkpt lat="51.01392" lon="2.58514">
        <ele>-0.2</ele>
        <time>2020-06-23T14:02:19Z</time>
      </trkpt>
      <trkpt lat="51.01386" lon="2.5852">
        <ele>-0.2</ele>
        <time>2020-06-23T14:02:20Z</time>
      </trkpt>
      <trkpt lat="51.01381" lon="2.58526">
        <ele>-0.2</ele>
        <time>2020-06-23T14:02:21Z</time>
      </trkpt>
      <trkpt lat="51.01376" lon="2.58532">
        <ele>-0.2</ele>
        <time>2020-06-23T14:02:22Z</time>
      </trkpt>
      <trkpt lat="51.0137" lon="2.58537">
        <ele>-0.3</ele>
        <time>2020-06-23T14:02:23Z</time>
      </trkpt>
      <trkpt lat="51.01365" lon="2.58543">
        <ele>-0.3</ele>
        <time>2020-06-23T14:02:24Z</time>
      </trkpt>
      <trkpt lat="51.0136" lon="2.58549">
        <ele>-0.3</ele>
        <time>2020-06-23T14:02:25Z</time>
      </trkpt>
      <trkpt lat="51.01354" lon="2.58555">
        <ele>-0.3</ele>
        <time>2020-06-23T14:02:26Z</time>
      </trkpt>
      <trkpt lat="51.01349" lon="2.5856">
        <ele>-0.3</ele>
        <time>2020-06-23T14:02:27Z</time>
      </trkpt>
      <trkpt lat="51.01344" lon="2.58565">
        <ele>-0.3</ele>
        <time>2020-06-23T14:02:28Z</time>
      </trkpt>
      <trkpt lat="51.01339" lon="2.5857">
        <ele>-0.2</ele>
        <time>2020-06-23T14:02:29Z</time>
      </trkpt>
      <trkpt lat="51.01333" lon="2.58576">
        <ele>-0.2</ele>
        <time>2020-06-23T14:02:30Z</time>
      </trkpt>
      <trkpt lat="51.01328" lon="2.58581">
        <ele>-0.2</ele>
        <time>2020-06-23T14:02:31Z</time>
      </trkpt>
      <trkpt lat="51.01322" lon="2.58587">
        <ele>-0.1</ele>
        <time>2020-06-23T14:02:32Z</time>
      </trkpt>
      <trkpt lat="51.01316" lon="2.58593">
        <ele>-0.1</ele>
        <time>2020-06-23T14:02:33Z</time>
      </trkpt>
      <trkpt lat="51.01312" lon="2.58598">
        <ele>-0.1</ele>
        <time>2020-06-23T14:02:34Z</time>
      </trkpt>
      <trkpt lat="51.01307" lon="2.58603">
        <ele>-0.1</ele>
        <time>2020-06-23T14:02:35Z</time>
      </trkpt>
      <trkpt lat="51.01303" lon="2.58608">
        <ele>-0.1</ele>
        <time>2020-06-23T14:02:36Z</time>
      </trkpt>
      <trkpt lat="51.01298" lon="2.58614">
        <ele>-0.1</ele>
        <time>2020-06-23T14:02:37Z</time>
      </trkpt>
      <trkpt lat="51.01292" lon="2.58621">
        <ele>1</ele>
        <time>2020-06-23T14:02:38Z</time>
      </trkpt>
      <trkpt lat="51.01287" lon="2.58627">
        <ele>1</ele>
        <time>2020-06-23T14:02:39Z</time>
      </trkpt>
      <trkpt lat="51.01283" lon="2.58633">
        <ele>0.1</ele>
        <time>2020-06-23T14:02:40Z</time>
      </trkpt>
      <trkpt lat="51.01278" lon="2.58638">
        <ele>0.2</ele>
        <time>2020-06-23T14:02:41Z</time>
      </trkpt>
      <trkpt lat="51.01273" lon="2.58645">
        <ele>0.3</ele>
        <time>2020-06-23T14:02:42Z</time>
      </trkpt>
      <trkpt lat="51.01267" lon="2.58652">
        <ele>0.4</ele>
        <time>2020-06-23T14:02:43Z</time>
      </trkpt>
      <trkpt lat="51.01262" lon="2.58658">
        <ele>0.4</ele>
        <time>2020-06-23T14:02:44Z</time>
      </trkpt>
      <trkpt lat="51.01257" lon="2.58664">
        <ele>0.4</ele>
        <time>2020-06-23T14:02:45Z</time>
      </trkpt>
      <trkpt lat="51.01251" lon="2.5867">
        <ele>0.4</ele>
        <time>2020-06-23T14:02:46Z</time>
      </trkpt>
      <trkpt lat="51.01247" lon="2.58675">
        <ele>0.4</ele>
        <time>2020-06-23T14:02:47Z</time>
      </trkpt>
      <trkpt lat="51.01243" lon="2.5868">
        <ele>0.4</ele>
        <time>2020-06-23T14:02:48Z</time>
      </trkpt>
      <trkpt lat="51.01237" lon="2.58685">
        <ele>0.4</ele>
        <time>2020-06-23T14:02:49Z</time>
      </trkpt>
      <trkpt lat="51.01231" lon="2.5869">
        <ele>0.5</ele>
        <time>2020-06-23T14:02:50Z</time>
      </trkpt>
      <trkpt lat="51.01226" lon="2.58695">
        <ele>0.5</ele>
        <time>2020-06-23T14:02:51Z</time>
      </trkpt>
      <trkpt lat="51.01221" lon="2.58699">
        <ele>0.5</ele>
        <time>2020-06-23T14:02:52Z</time>
      </trkpt>
      <trkpt lat="51.01216" lon="2.58703">
        <ele>0.5</ele>
        <time>2020-06-23T14:02:53Z</time>
      </trkpt>
      <trkpt lat="51.01211" lon="2.58709">
        <ele>0.5</ele>
        <time>2020-06-23T14:02:54Z</time>
      </trkpt>
      <trkpt lat="51.01205" lon="2.58712">
        <ele>0.5</ele>
        <time>2020-06-23T14:02:55Z</time>
      </trkpt>
      <trkpt lat="51.01199" lon="2.58717">
        <ele>0.5</ele>
        <time>2020-06-23T14:02:56Z</time>
      </trkpt>
      <trkpt lat="51.01195" lon="2.58722">
        <ele>0.5</ele>
        <time>2020-06-23T14:02:57Z</time>
      </trkpt>
      <trkpt lat="51.0119" lon="2.58727">
        <ele>0.5</ele>
        <time>2020-06-23T14:02:58Z</time>
      </trkpt>
      <trkpt lat="51.01184" lon="2.58733">
        <ele>0.5</ele>
        <time>2020-06-23T14:02:59Z</time>
      </trkpt>
      <trkpt lat="51.01179" lon="2.58737">
        <ele>0.5</ele>
        <time>2020-06-23T14:03:00Z</time>
      </trkpt>
      <trkpt lat="51.01174" lon="2.58743">
        <ele>0.5</ele>
        <time>2020-06-23T14:03:01Z</time>
      </trkpt>
      <trkpt lat="51.01169" lon="2.58748">
        <ele>0.5</ele>
        <time>2020-06-23T14:03:02Z</time>
      </trkpt>
      <trkpt lat="51.01165" lon="2.58753">
        <ele>0.5</ele>
        <time>2020-06-23T14:03:03Z</time>
      </trkpt>
      <trkpt lat="51.0116" lon="2.58758">
        <ele>0.5</ele>
        <time>2020-06-23T14:03:04Z</time>
      </trkpt>
      <trkpt lat="51.01156" lon="2.58762">
        <ele>0.5</ele>
        <time>2020-06-23T14:03:05Z</time>
      </trkpt>
      <trkpt lat="51.01151" lon="2.58766">
        <ele>0.4</ele>
        <time>2020-06-23T14:03:06Z</time>
      </trkpt>
      <trkpt lat="51.01147" lon="2.58769">
        <ele>0.4</ele>
        <time>2020-06-23T14:03:07Z</time>
      </trkpt>
      <trkpt lat="51.01143" lon="2.58773">
        <ele>0.4</ele>
        <time>2020-06-23T14:03:08Z</time>
      </trkpt>
      <trkpt lat="51.01138" lon="2.58778">
        <ele>0.4</ele>
        <time>2020-06-23T14:03:09Z</time>
      </trkpt>
      <trkpt lat="51.01134" lon="2.58783">
        <ele>0.4</ele>
        <time>2020-06-23T14:03:10Z</time>
      </trkpt>
      <trkpt lat="51.0113" lon="2.58788">
        <ele>0.3</ele>
        <time>2020-06-23T14:03:11Z</time>
      </trkpt>
      <trkpt lat="51.01126" lon="2.58797">
        <ele>0.2</ele>
        <time>2020-06-23T14:03:12Z</time>
      </trkpt>
      <trkpt lat="51.01122" lon="2.58805">
        <ele>0.1</ele>
        <time>2020-06-23T14:03:13Z</time>
      </trkpt>
      <trkpt lat="51.01118" lon="2.58813">
        <ele>1</ele>
        <time>2020-06-23T14:03:14Z</time>
      </trkpt>
      <trkpt lat="51.01115" lon="2.58821">
        <ele>1</ele>
        <time>2020-06-23T14:03:15Z</time>
      </trkpt>
      <trkpt lat="51.01114" lon="2.58829">
        <ele>1</ele>
        <time>2020-06-23T14:03:16Z</time>
      </trkpt>
      <trkpt lat="51.01112" lon="2.58838">
        <ele>1</ele>
        <time>2020-06-23T14:03:17Z</time>
      </trkpt>
      <trkpt lat="51.01111" lon="2.58846">
        <ele>1</ele>
        <time>2020-06-23T14:03:18Z</time>
      </trkpt>
      <trkpt lat="51.01109" lon="2.58854">
        <ele>1</ele>
        <time>2020-06-23T14:03:19Z</time>
      </trkpt>
      <trkpt lat="51.01108" lon="2.58863">
        <ele>0.1</ele>
        <time>2020-06-23T14:03:20Z</time>
      </trkpt>
      <trkpt lat="51.01107" lon="2.58871">
        <ele>0.1</ele>
        <time>2020-06-23T14:03:21Z</time>
      </trkpt>
      <trkpt lat="51.01106" lon="2.5888">
        <ele>0.1</ele>
        <time>2020-06-23T14:03:22Z</time>
      </trkpt>
      <trkpt lat="51.01106" lon="2.5889">
        <ele>0.1</ele>
        <time>2020-06-23T14:03:23Z</time>
      </trkpt>
      <trkpt lat="51.01105" lon="2.589">
        <ele>0.2</ele>
        <time>2020-06-23T14:03:24Z</time>
      </trkpt>
      <trkpt lat="51.01104" lon="2.58909">
        <ele>0.2</ele>
        <time>2020-06-23T14:03:25Z</time>
      </trkpt>
      <trkpt lat="51.01103" lon="2.58916">
        <ele>0.2</ele>
        <time>2020-06-23T14:03:26Z</time>
      </trkpt>
      <trkpt lat="51.01102" lon="2.58927">
        <ele>0.2</ele>
        <time>2020-06-23T14:03:27Z</time>
      </trkpt>
      <trkpt lat="51.01101" lon="2.58935">
        <ele>0.2</ele>
        <time>2020-06-23T14:03:28Z</time>
      </trkpt>
      <trkpt lat="51.01099" lon="2.58943">
        <ele>0.2</ele>
        <time>2020-06-23T14:03:29Z</time>
      </trkpt>
      <trkpt lat="51.01098" lon="2.58954">
        <ele>0.3</ele>
        <time>2020-06-23T14:03:30Z</time>
      </trkpt>
      <trkpt lat="51.01097" lon="2.58963">
        <ele>0.3</ele>
        <time>2020-06-23T14:03:31Z</time>
      </trkpt>
      <trkpt lat="51.01095" lon="2.58974">
        <ele>0.3</ele>
        <time>2020-06-23T14:03:32Z</time>
      </trkpt>
      <trkpt lat="51.01094" lon="2.58982">
        <ele>0.4</ele>
        <time>2020-06-23T14:03:33Z</time>
      </trkpt>
      <trkpt lat="51.01092" lon="2.5899">
        <ele>0.4</ele>
        <time>2020-06-23T14:03:34Z</time>
      </trkpt>
      <trkpt lat="51.01091" lon="2.58999">
        <ele>0.5</ele>
        <time>2020-06-23T14:03:35Z</time>
      </trkpt>
      <trkpt lat="51.01089" lon="2.59007">
        <ele>0.5</ele>
        <time>2020-06-23T14:03:36Z</time>
      </trkpt>
      <trkpt lat="51.01088" lon="2.59016">
        <ele>0.6</ele>
        <time>2020-06-23T14:03:37Z</time>
      </trkpt>
      <trkpt lat="51.01086" lon="2.59026">
        <ele>0.6</ele>
        <time>2020-06-23T14:03:38Z</time>
      </trkpt>
      <trkpt lat="51.01083" lon="2.59035">
        <ele>0.6</ele>
        <time>2020-06-23T14:03:39Z</time>
      </trkpt>
      <trkpt lat="51.01081" lon="2.59043">
        <ele>0.7</ele>
        <time>2020-06-23T14:03:40Z</time>
      </trkpt>
      <trkpt lat="51.01079" lon="2.59052">
        <ele>0.7</ele>
        <time>2020-06-23T14:03:41Z</time>
      </trkpt>
      <trkpt lat="51.01077" lon="2.59062">
        <ele>0.8</ele>
        <time>2020-06-23T14:03:42Z</time>
      </trkpt>
      <trkpt lat="51.01075" lon="2.59072">
        <ele>0.9</ele>
        <time>2020-06-23T14:03:43Z</time>
      </trkpt>
      <trkpt lat="51.01073" lon="2.59079">
        <ele>0.9</ele>
        <time>2020-06-23T14:03:44Z</time>
      </trkpt>
      <trkpt lat="51.01071" lon="2.59088">
        <ele>0.9</ele>
        <time>2020-06-23T14:03:45Z</time>
      </trkpt>
      <trkpt lat="51.01069" lon="2.59098">
        <ele>1</ele>
        <time>2020-06-23T14:03:46Z</time>
      </trkpt>
      <trkpt lat="51.01067" lon="2.59107">
        <ele>1</ele>
        <time>2020-06-23T14:03:47Z</time>
      </trkpt>
      <trkpt lat="51.01066" lon="2.59116">
        <ele>1</ele>
        <time>2020-06-23T14:03:48Z</time>
      </trkpt>
      <trkpt lat="51.01064" lon="2.59125">
        <ele>1.1</ele>
        <time>2020-06-23T14:03:49Z</time>
      </trkpt>
      <trkpt lat="51.01062" lon="2.59135">
        <ele>1.1</ele>
        <time>2020-06-23T14:03:50Z</time>
      </trkpt>
      <trkpt lat="51.01061" lon="2.59142">
        <ele>1.1</ele>
        <time>2020-06-23T14:03:51Z</time>
      </trkpt>
      <trkpt lat="51.0106" lon="2.59152">
        <ele>1.2</ele>
        <time>2020-06-23T14:03:52Z</time>
      </trkpt>
      <trkpt lat="51.01058" lon="2.59162">
        <ele>1.2</ele>
        <time>2020-06-23T14:03:53Z</time>
      </trkpt>
      <trkpt lat="51.01057" lon="2.59171">
        <ele>1.2</ele>
        <time>2020-06-23T14:03:54Z</time>
      </trkpt>
      <trkpt lat="51.01056" lon="2.59181">
        <ele>1.3</ele>
        <time>2020-06-23T14:03:55Z</time>
      </trkpt>
      <trkpt lat="51.01055" lon="2.59189">
        <ele>1.3</ele>
        <time>2020-06-23T14:03:56Z</time>
      </trkpt>
      <trkpt lat="51.01054" lon="2.59198">
        <ele>1.3</ele>
        <time>2020-06-23T14:03:57Z</time>
      </trkpt>
      <trkpt lat="51.01053" lon="2.59207">
        <ele>1.3</ele>
        <time>2020-06-23T14:03:58Z</time>
      </trkpt>
      <trkpt lat="51.01051" lon="2.59216">
        <ele>1.4</ele>
        <time>2020-06-23T14:03:59Z</time>
      </trkpt>
      <trkpt lat="51.01049" lon="2.59227">
        <ele>1.4</ele>
        <time>2020-06-23T14:04:00Z</time>
      </trkpt>
      <trkpt lat="51.01048" lon="2.59237">
        <ele>1.5</ele>
        <time>2020-06-23T14:04:01Z</time>
      </trkpt>
      <trkpt lat="51.01047" lon="2.59246">
        <ele>1.5</ele>
        <time>2020-06-23T14:04:02Z</time>
      </trkpt>
      <trkpt lat="51.01044" lon="2.59256">
        <ele>1.6</ele>
        <time>2020-06-23T14:04:03Z</time>
      </trkpt>
      <trkpt lat="51.01043" lon="2.59266">
        <ele>1.6</ele>
        <time>2020-06-23T14:04:04Z</time>
      </trkpt>
      <trkpt lat="51.01041" lon="2.59275">
        <ele>1.7</ele>
        <time>2020-06-23T14:04:05Z</time>
      </trkpt>
      <trkpt lat="51.0104" lon="2.59283">
        <ele>1.7</ele>
        <time>2020-06-23T14:04:06Z</time>
      </trkpt>
      <trkpt lat="51.01038" lon="2.59292">
        <ele>1.8</ele>
        <time>2020-06-23T14:04:07Z</time>
      </trkpt>
      <trkpt lat="51.01037" lon="2.59299">
        <ele>1.8</ele>
        <time>2020-06-23T14:04:08Z</time>
      </trkpt>
      <trkpt lat="51.01035" lon="2.59307">
        <ele>1.8</ele>
        <time>2020-06-23T14:04:09Z</time>
      </trkpt>
      <trkpt lat="51.01034" lon="2.59316">
        <ele>1.8</ele>
        <time>2020-06-23T14:04:10Z</time>
      </trkpt>
      <trkpt lat="51.01032" lon="2.59325">
        <ele>1.9</ele>
        <time>2020-06-23T14:04:11Z</time>
      </trkpt>
      <trkpt lat="51.0103" lon="2.59336">
        <ele>1.9</ele>
        <time>2020-06-23T14:04:12Z</time>
      </trkpt>
      <trkpt lat="51.01028" lon="2.59344">
        <ele>1.9</ele>
        <time>2020-06-23T14:04:13Z</time>
      </trkpt>
      <trkpt lat="51.01026" lon="2.59354">
        <ele>2</ele>
        <time>2020-06-23T14:04:14Z</time>
      </trkpt>
      <trkpt lat="51.01023" lon="2.59364">
        <ele>2</ele>
        <time>2020-06-23T14:04:15Z</time>
      </trkpt>
      <trkpt lat="51.01021" lon="2.59373">
        <ele>2</ele>
        <time>2020-06-23T14:04:16Z</time>
      </trkpt>
      <trkpt lat="51.01019" lon="2.59383">
        <ele>2.1</ele>
        <time>2020-06-23T14:04:17Z</time>
      </trkpt>
      <trkpt lat="51.01018" lon="2.59393">
        <ele>2.1</ele>
        <time>2020-06-23T14:04:18Z</time>
      </trkpt>
      <trkpt lat="51.01016" lon="2.59402">
        <ele>2.1</ele>
        <time>2020-06-23T14:04:19Z</time>
      </trkpt>
      <trkpt lat="51.01014" lon="2.5941">
        <ele>2.2</ele>
        <time>2020-06-23T14:04:20Z</time>
      </trkpt>
      <trkpt lat="51.01012" lon="2.59418">
        <ele>2.2</ele>
        <time>2020-06-23T14:04:21Z</time>
      </trkpt>
      <trkpt lat="51.0101" lon="2.59427">
        <ele>2.3</ele>
        <time>2020-06-23T14:04:22Z</time>
      </trkpt>
      <trkpt lat="51.01009" lon="2.59437">
        <ele>2.3</ele>
        <time>2020-06-23T14:04:23Z</time>
      </trkpt>
      <trkpt lat="51.01007" lon="2.59446">
        <ele>2.4</ele>
        <time>2020-06-23T14:04:24Z</time>
      </trkpt>
      <trkpt lat="51.01005" lon="2.59456">
        <ele>2.4</ele>
        <time>2020-06-23T14:04:25Z</time>
      </trkpt>
      <trkpt lat="51.01004" lon="2.59464">
        <ele>2.4</ele>
        <time>2020-06-23T14:04:26Z</time>
      </trkpt>
      <trkpt lat="51.01002" lon="2.59474">
        <ele>2.4</ele>
        <time>2020-06-23T14:04:27Z</time>
      </trkpt>
      <trkpt lat="51.01001" lon="2.59483">
        <ele>2.4</ele>
        <time>2020-06-23T14:04:28Z</time>
      </trkpt>
      <trkpt lat="51.01" lon="2.59493">
        <ele>2.4</ele>
        <time>2020-06-23T14:04:29Z</time>
      </trkpt>
      <trkpt lat="51.00998" lon="2.59503">
        <ele>2.4</ele>
        <time>2020-06-23T14:04:30Z</time>
      </trkpt>
      <trkpt lat="51.00997" lon="2.59511">
        <ele>2.4</ele>
        <time>2020-06-23T14:04:31Z</time>
      </trkpt>
      <trkpt lat="51.00995" lon="2.59521">
        <ele>2.4</ele>
        <time>2020-06-23T14:04:32Z</time>
      </trkpt>
      <trkpt lat="51.00993" lon="2.59531">
        <ele>2.5</ele>
        <time>2020-06-23T14:04:33Z</time>
      </trkpt>
      <trkpt lat="51.00992" lon="2.59541">
        <ele>2.5</ele>
        <time>2020-06-23T14:04:34Z</time>
      </trkpt>
      <trkpt lat="51.0099" lon="2.5955">
        <ele>2.5</ele>
        <time>2020-06-23T14:04:35Z</time>
      </trkpt>
      <trkpt lat="51.00988" lon="2.59558">
        <ele>2.5</ele>
        <time>2020-06-23T14:04:36Z</time>
      </trkpt>
      <trkpt lat="51.00986" lon="2.59569">
        <ele>2.5</ele>
        <time>2020-06-23T14:04:37Z</time>
      </trkpt>
      <trkpt lat="51.00984" lon="2.5958">
        <ele>2.5</ele>
        <time>2020-06-23T14:04:38Z</time>
      </trkpt>
      <trkpt lat="51.00983" lon="2.59589">
        <ele>2.6</ele>
        <time>2020-06-23T14:04:39Z</time>
      </trkpt>
      <trkpt lat="51.00981" lon="2.59599">
        <ele>2.6</ele>
        <time>2020-06-23T14:04:40Z</time>
      </trkpt>
      <trkpt lat="51.00979" lon="2.59607">
        <ele>2.6</ele>
        <time>2020-06-23T14:04:41Z</time>
      </trkpt>
      <trkpt lat="51.00977" lon="2.59616">
        <ele>2.6</ele>
        <time>2020-06-23T14:04:42Z</time>
      </trkpt>
      <trkpt lat="51.00975" lon="2.59627">
        <ele>2.6</ele>
        <time>2020-06-23T14:04:43Z</time>
      </trkpt>
      <trkpt lat="51.00973" lon="2.59636">
        <ele>2.6</ele>
        <time>2020-06-23T14:04:44Z</time>
      </trkpt>
      <trkpt lat="51.00972" lon="2.59646">
        <ele>2.7</ele>
        <time>2020-06-23T14:04:45Z</time>
      </trkpt>
      <trkpt lat="51.0097" lon="2.59655">
        <ele>2.7</ele>
        <time>2020-06-23T14:04:46Z</time>
      </trkpt>
      <trkpt lat="51.00968" lon="2.59665">
        <ele>2.7</ele>
        <time>2020-06-23T14:04:47Z</time>
      </trkpt>
      <trkpt lat="51.00968" lon="2.59674">
        <ele>2.7</ele>
        <time>2020-06-23T14:04:48Z</time>
      </trkpt>
      <trkpt lat="51.00967" lon="2.59684">
        <ele>2.7</ele>
        <time>2020-06-23T14:04:49Z</time>
      </trkpt>
      <trkpt lat="51.00966" lon="2.59693">
        <ele>2.7</ele>
        <time>2020-06-23T14:04:50Z</time>
      </trkpt>
      <trkpt lat="51.00965" lon="2.59703">
        <ele>2.8</ele>
        <time>2020-06-23T14:04:51Z</time>
      </trkpt>
      <trkpt lat="51.00963" lon="2.59712">
        <ele>2.8</ele>
        <time>2020-06-23T14:04:52Z</time>
      </trkpt>
      <trkpt lat="51.00962" lon="2.59723">
        <ele>2.8</ele>
        <time>2020-06-23T14:04:53Z</time>
      </trkpt>
      <trkpt lat="51.0096" lon="2.59732">
        <ele>2.9</ele>
        <time>2020-06-23T14:04:54Z</time>
      </trkpt>
      <trkpt lat="51.00958" lon="2.59742">
        <ele>3</ele>
        <time>2020-06-23T14:04:55Z</time>
      </trkpt>
      <trkpt lat="51.00957" lon="2.59752">
        <ele>3</ele>
        <time>2020-06-23T14:04:56Z</time>
      </trkpt>
      <trkpt lat="51.00955" lon="2.59763">
        <ele>2.9</ele>
        <time>2020-06-23T14:04:57Z</time>
      </trkpt>
      <trkpt lat="51.00954" lon="2.59773">
        <ele>2.8</ele>
        <time>2020-06-23T14:04:58Z</time>
      </trkpt>
      <trkpt lat="51.00951" lon="2.59784">
        <ele>2.7</ele>
        <time>2020-06-23T14:04:59Z</time>
      </trkpt>
      <trkpt lat="51.00949" lon="2.59792">
        <ele>2.6</ele>
        <time>2020-06-23T14:05:00Z</time>
      </trkpt>
      <trkpt lat="51.00947" lon="2.59802">
        <ele>2.6</ele>
        <time>2020-06-23T14:05:01Z</time>
      </trkpt>
      <trkpt lat="51.00945" lon="2.5981">
        <ele>2.5</ele>
        <time>2020-06-23T14:05:02Z</time>
      </trkpt>
      <trkpt lat="51.00942" lon="2.5982">
        <ele>2.5</ele>
        <time>2020-06-23T14:05:03Z</time>
      </trkpt>
      <trkpt lat="51.00939" lon="2.59829">
        <ele>2.4</ele>
        <time>2020-06-23T14:05:04Z</time>
      </trkpt>
      <trkpt lat="51.00936" lon="2.59837">
        <ele>2.4</ele>
        <time>2020-06-23T14:05:05Z</time>
      </trkpt>
      <trkpt lat="51.00933" lon="2.59847">
        <ele>2.4</ele>
        <time>2020-06-23T14:05:06Z</time>
      </trkpt>
      <trkpt lat="51.0093" lon="2.59856">
        <ele>2.4</ele>
        <time>2020-06-23T14:05:07Z</time>
      </trkpt>
      <trkpt lat="51.00928" lon="2.59865">
        <ele>2.4</ele>
        <time>2020-06-23T14:05:08Z</time>
      </trkpt>
      <trkpt lat="51.00925" lon="2.59874">
        <ele>2.4</ele>
        <time>2020-06-23T14:05:09Z</time>
      </trkpt>
      <trkpt lat="51.00923" lon="2.59883">
        <ele>2.4</ele>
        <time>2020-06-23T14:05:10Z</time>
      </trkpt>
      <trkpt lat="51.0092" lon="2.59894">
        <ele>2.4</ele>
        <time>2020-06-23T14:05:11Z</time>
      </trkpt>
      <trkpt lat="51.00918" lon="2.59904">
        <ele>2.4</ele>
        <time>2020-06-23T14:05:12Z</time>
      </trkpt>
      <trkpt lat="51.00916" lon="2.59914">
        <ele>2.3</ele>
        <time>2020-06-23T14:05:13Z</time>
      </trkpt>
      <trkpt lat="51.00915" lon="2.59923">
        <ele>2.3</ele>
        <time>2020-06-23T14:05:14Z</time>
      </trkpt>
      <trkpt lat="51.00914" lon="2.59932">
        <ele>2.3</ele>
        <time>2020-06-23T14:05:15Z</time>
      </trkpt>
      <trkpt lat="51.00912" lon="2.59943">
        <ele>2.2</ele>
        <time>2020-06-23T14:05:16Z</time>
      </trkpt>
      <trkpt lat="51.00911" lon="2.59951">
        <ele>2.2</ele>
        <time>2020-06-23T14:05:17Z</time>
      </trkpt>
      <trkpt lat="51.00911" lon="2.59961">
        <ele>2.2</ele>
        <time>2020-06-23T14:05:18Z</time>
      </trkpt>
      <trkpt lat="51.0091" lon="2.59971">
        <ele>2.2</ele>
        <time>2020-06-23T14:05:19Z</time>
      </trkpt>
      <trkpt lat="51.00909" lon="2.59981">
        <ele>2.2</ele>
        <time>2020-06-23T14:05:20Z</time>
      </trkpt>
      <trkpt lat="51.00909" lon="2.59992">
        <ele>2.2</ele>
        <time>2020-06-23T14:05:21Z</time>
      </trkpt>
      <trkpt lat="51.00907" lon="2.60004">
        <ele>2.2</ele>
        <time>2020-06-23T14:05:22Z</time>
      </trkpt>
      <trkpt lat="51.00906" lon="2.60016">
        <ele>2.2</ele>
        <time>2020-06-23T14:05:23Z</time>
      </trkpt>
      <trkpt lat="51.00905" lon="2.60026">
        <ele>2.2</ele>
        <time>2020-06-23T14:05:24Z</time>
      </trkpt>
      <trkpt lat="51.00904" lon="2.60035">
        <ele>2.1</ele>
        <time>2020-06-23T14:05:25Z</time>
      </trkpt>
      <trkpt lat="51.00903" lon="2.60044">
        <ele>2.1</ele>
        <time>2020-06-23T14:05:26Z</time>
      </trkpt>
      <trkpt lat="51.00902" lon="2.60053">
        <ele>2.1</ele>
        <time>2020-06-23T14:05:27Z</time>
      </trkpt>
      <trkpt lat="51.00901" lon="2.60065">
        <ele>2.1</ele>
        <time>2020-06-23T14:05:28Z</time>
      </trkpt>
      <trkpt lat="51.009" lon="2.60074">
        <ele>2.1</ele>
        <time>2020-06-23T14:05:29Z</time>
      </trkpt>
      <trkpt lat="51.00899" lon="2.60083">
        <ele>2.1</ele>
        <time>2020-06-23T14:05:30Z</time>
      </trkpt>
      <trkpt lat="51.00898" lon="2.60093">
        <ele>2.1</ele>
        <time>2020-06-23T14:05:31Z</time>
      </trkpt>
      <trkpt lat="51.00897" lon="2.60102">
        <ele>2.1</ele>
        <time>2020-06-23T14:05:32Z</time>
      </trkpt>
      <trkpt lat="51.00896" lon="2.60112">
        <ele>2.1</ele>
        <time>2020-06-23T14:05:33Z</time>
      </trkpt>
      <trkpt lat="51.00895" lon="2.60122">
        <ele>2.1</ele>
        <time>2020-06-23T14:05:34Z</time>
      </trkpt>
      <trkpt lat="51.00896" lon="2.60131">
        <ele>2.1</ele>
        <time>2020-06-23T14:05:35Z</time>
      </trkpt>
      <trkpt lat="51.00896" lon="2.60141">
        <ele>2</ele>
        <time>2020-06-23T14:05:36Z</time>
      </trkpt>
      <trkpt lat="51.00895" lon="2.6015">
        <ele>2</ele>
        <time>2020-06-23T14:05:37Z</time>
      </trkpt>
      <trkpt lat="51.00895" lon="2.60158">
        <ele>2</ele>
        <time>2020-06-23T14:05:38Z</time>
      </trkpt>
      <trkpt lat="51.00895" lon="2.60169">
        <ele>2</ele>
        <time>2020-06-23T14:05:39Z</time>
      </trkpt>
      <trkpt lat="51.00895" lon="2.60179">
        <ele>2</ele>
        <time>2020-06-23T14:05:40Z</time>
      </trkpt>
      <trkpt lat="51.00894" lon="2.60189">
        <ele>2</ele>
        <time>2020-06-23T14:05:41Z</time>
      </trkpt>
      <trkpt lat="51.00894" lon="2.60196">
        <ele>2.1</ele>
        <time>2020-06-23T14:05:42Z</time>
      </trkpt>
      <trkpt lat="51.00893" lon="2.60205">
        <ele>2.1</ele>
        <time>2020-06-23T14:05:43Z</time>
      </trkpt>
      <trkpt lat="51.00893" lon="2.60214">
        <ele>2.1</ele>
        <time>2020-06-23T14:05:44Z</time>
      </trkpt>
      <trkpt lat="51.00892" lon="2.60222">
        <ele>2.1</ele>
        <time>2020-06-23T14:05:45Z</time>
      </trkpt>
      <trkpt lat="51.00891" lon="2.6023">
        <ele>2.2</ele>
        <time>2020-06-23T14:05:46Z</time>
      </trkpt>
      <trkpt lat="51.0089" lon="2.6024">
        <ele>2.2</ele>
        <time>2020-06-23T14:05:47Z</time>
      </trkpt>
      <trkpt lat="51.00889" lon="2.60246">
        <ele>2.2</ele>
        <time>2020-06-23T14:05:48Z</time>
      </trkpt>
      <trkpt lat="51.00889" lon="2.60254">
        <ele>2.2</ele>
        <time>2020-06-23T14:05:49Z</time>
      </trkpt>
      <trkpt lat="51.00887" lon="2.60264">
        <ele>2.2</ele>
        <time>2020-06-23T14:05:50Z</time>
      </trkpt>
      <trkpt lat="51.00886" lon="2.60275">
        <ele>2.2</ele>
        <time>2020-06-23T14:05:51Z</time>
      </trkpt>
      <trkpt lat="51.00884" lon="2.60285">
        <ele>2.2</ele>
        <time>2020-06-23T14:05:52Z</time>
      </trkpt>
      <trkpt lat="51.00883" lon="2.60295">
        <ele>2.2</ele>
        <time>2020-06-23T14:05:53Z</time>
      </trkpt>
      <trkpt lat="51.00881" lon="2.60304">
        <ele>2.3</ele>
        <time>2020-06-23T14:05:54Z</time>
      </trkpt>
      <trkpt lat="51.0088" lon="2.60315">
        <ele>2.3</ele>
        <time>2020-06-23T14:05:55Z</time>
      </trkpt>
      <trkpt lat="51.00878" lon="2.60325">
        <ele>2.3</ele>
        <time>2020-06-23T14:05:56Z</time>
      </trkpt>
      <trkpt lat="51.00878" lon="2.60336">
        <ele>2.4</ele>
        <time>2020-06-23T14:05:57Z</time>
      </trkpt>
      <trkpt lat="51.00879" lon="2.60346">
        <ele>2.5</ele>
        <time>2020-06-23T14:05:58Z</time>
      </trkpt>
      <trkpt lat="51.00881" lon="2.60356">
        <ele>2.6</ele>
        <time>2020-06-23T14:05:59Z</time>
      </trkpt>
      <trkpt lat="51.00883" lon="2.60364">
        <ele>2.7</ele>
        <time>2020-06-23T14:06:00Z</time>
      </trkpt>
      <trkpt lat="51.00885" lon="2.60373">
        <ele>2.8</ele>
        <time>2020-06-23T14:06:01Z</time>
      </trkpt>
      <trkpt lat="51.00888" lon="2.60383">
        <ele>2.9</ele>
        <time>2020-06-23T14:06:02Z</time>
      </trkpt>
      <trkpt lat="51.0089" lon="2.60391">
        <ele>3</ele>
        <time>2020-06-23T14:06:03Z</time>
      </trkpt>
      <trkpt lat="51.00891" lon="2.60399">
        <ele>3.1</ele>
        <time>2020-06-23T14:06:04Z</time>
      </trkpt>
      <trkpt lat="51.00893" lon="2.60408">
        <ele>3.2</ele>
        <time>2020-06-23T14:06:05Z</time>
      </trkpt>
      <trkpt lat="51.00895" lon="2.60415">
        <ele>3.2</ele>
        <time>2020-06-23T14:06:06Z</time>
      </trkpt>
      <trkpt lat="51.00899" lon="2.60423">
        <ele>3.4</ele>
        <time>2020-06-23T14:06:07Z</time>
      </trkpt>
      <trkpt lat="51.009" lon="2.60431">
        <ele>3.4</ele>
        <time>2020-06-23T14:06:08Z</time>
      </trkpt>
      <trkpt lat="51.00902" lon="2.60441">
        <ele>3.5</ele>
        <time>2020-06-23T14:06:09Z</time>
      </trkpt>
      <trkpt lat="51.00904" lon="2.60449">
        <ele>3.6</ele>
        <time>2020-06-23T14:06:10Z</time>
      </trkpt>
      <trkpt lat="51.00905" lon="2.60455">
        <ele>3.6</ele>
        <time>2020-06-23T14:06:11Z</time>
      </trkpt>
      <trkpt lat="51.00907" lon="2.60462">
        <ele>3.7</ele>
        <time>2020-06-23T14:06:12Z</time>
      </trkpt>
      <trkpt lat="51.00908" lon="2.60469">
        <ele>3.7</ele>
        <time>2020-06-23T14:06:13Z</time>
      </trkpt>
      <trkpt lat="51.00909" lon="2.60475">
        <ele>3.7</ele>
        <time>2020-06-23T14:06:14Z</time>
      </trkpt>
      <trkpt lat="51.0091" lon="2.60482">
        <ele>3.6</ele>
        <time>2020-06-23T14:06:15Z</time>
      </trkpt>
      <trkpt lat="51.0091" lon="2.60486">
        <ele>3.6</ele>
        <time>2020-06-23T14:06:16Z</time>
      </trkpt>
      <trkpt lat="51.00909" lon="2.60491">
        <ele>3.6</ele>
        <time>2020-06-23T14:06:17Z</time>
      </trkpt>
      <trkpt lat="51.00909" lon="2.60496">
        <ele>3.5</ele>
        <time>2020-06-23T14:06:18Z</time>
      </trkpt>
      <trkpt lat="51.00909" lon="2.60498">
        <ele>3.5</ele>
        <time>2020-06-23T14:06:19Z</time>
      </trkpt>
      <trkpt lat="51.0091" lon="2.60503">
        <ele>3.5</ele>
        <time>2020-06-23T14:06:20Z</time>
      </trkpt>
      <trkpt lat="51.0091" lon="2.60506">
        <ele>3.5</ele>
        <time>2020-06-23T14:06:21Z</time>
      </trkpt>
      <trkpt lat="51.00912" lon="2.60512">
        <ele>3.5</ele>
        <time>2020-06-23T14:06:22Z</time>
      </trkpt>
      <trkpt lat="51.00915" lon="2.60517">
        <ele>3.4</ele>
        <time>2020-06-23T14:06:23Z</time>
      </trkpt>
      <trkpt lat="51.00916" lon="2.60523">
        <ele>3.4</ele>
        <time>2020-06-23T14:06:24Z</time>
      </trkpt>
      <trkpt lat="51.00918" lon="2.60529">
        <ele>3.4</ele>
        <time>2020-06-23T14:06:25Z</time>
      </trkpt>
      <trkpt lat="51.00921" lon="2.60535">
        <ele>3.4</ele>
        <time>2020-06-23T14:06:26Z</time>
      </trkpt>
      <trkpt lat="51.00922" lon="2.60542">
        <ele>3.4</ele>
        <time>2020-06-23T14:06:27Z</time>
      </trkpt>
      <trkpt lat="51.00923" lon="2.60549">
        <ele>3.4</ele>
        <time>2020-06-23T14:06:28Z</time>
      </trkpt>
      <trkpt lat="51.00924" lon="2.60556">
        <ele>3.4</ele>
        <time>2020-06-23T14:06:29Z</time>
      </trkpt>
      <trkpt lat="51.00925" lon="2.60563">
        <ele>3.3</ele>
        <time>2020-06-23T14:06:30Z</time>
      </trkpt>
      <trkpt lat="51.00927" lon="2.6057">
        <ele>3.3</ele>
        <time>2020-06-23T14:06:31Z</time>
      </trkpt>
      <trkpt lat="51.00928" lon="2.60577">
        <ele>3.3</ele>
        <time>2020-06-23T14:06:32Z</time>
      </trkpt>
      <trkpt lat="51.0093" lon="2.60583">
        <ele>3.3</ele>
        <time>2020-06-23T14:06:33Z</time>
      </trkpt>
      <trkpt lat="51.00931" lon="2.60592">
        <ele>3.3</ele>
        <time>2020-06-23T14:06:34Z</time>
      </trkpt>
      <trkpt lat="51.00933" lon="2.606">
        <ele>3.3</ele>
        <time>2020-06-23T14:06:35Z</time>
      </trkpt>
      <trkpt lat="51.00935" lon="2.60606">
        <ele>3.3</ele>
        <time>2020-06-23T14:06:36Z</time>
      </trkpt>
      <trkpt lat="51.00936" lon="2.60614">
        <ele>3.3</ele>
        <time>2020-06-23T14:06:37Z</time>
      </trkpt>
      <trkpt lat="51.00938" lon="2.60621">
        <ele>3.3</ele>
        <time>2020-06-23T14:06:38Z</time>
      </trkpt>
      <trkpt lat="51.00939" lon="2.60629">
        <ele>3.4</ele>
        <time>2020-06-23T14:06:39Z</time>
      </trkpt>
      <trkpt lat="51.00942" lon="2.60637">
        <ele>3.4</ele>
        <time>2020-06-23T14:06:40Z</time>
      </trkpt>
      <trkpt lat="51.00944" lon="2.60646">
        <ele>3.4</ele>
        <time>2020-06-23T14:06:41Z</time>
      </trkpt>
      <trkpt lat="51.00946" lon="2.60655">
        <ele>3.5</ele>
        <time>2020-06-23T14:06:42Z</time>
      </trkpt>
      <trkpt lat="51.00949" lon="2.60663">
        <ele>3.5</ele>
        <time>2020-06-23T14:06:43Z</time>
      </trkpt>
      <trkpt lat="51.00952" lon="2.60671">
        <ele>3.6</ele>
        <time>2020-06-23T14:06:44Z</time>
      </trkpt>
      <trkpt lat="51.00954" lon="2.60678">
        <ele>3.6</ele>
        <time>2020-06-23T14:06:45Z</time>
      </trkpt>
      <trkpt lat="51.00957" lon="2.60685">
        <ele>3.7</ele>
        <time>2020-06-23T14:06:46Z</time>
      </trkpt>
      <trkpt lat="51.0096" lon="2.60694">
        <ele>3.7</ele>
        <time>2020-06-23T14:06:47Z</time>
      </trkpt>
      <trkpt lat="51.00963" lon="2.60703">
        <ele>3.7</ele>
        <time>2020-06-23T14:06:48Z</time>
      </trkpt>
      <trkpt lat="51.00965" lon="2.60711">
        <ele>3.8</ele>
        <time>2020-06-23T14:06:49Z</time>
      </trkpt>
      <trkpt lat="51.00968" lon="2.60718">
        <ele>3.8</ele>
        <time>2020-06-23T14:06:50Z</time>
      </trkpt>
      <trkpt lat="51.00972" lon="2.60725">
        <ele>3.8</ele>
        <time>2020-06-23T14:06:51Z</time>
      </trkpt>
      <trkpt lat="51.00975" lon="2.60734">
        <ele>3.8</ele>
        <time>2020-06-23T14:06:52Z</time>
      </trkpt>
      <trkpt lat="51.00977" lon="2.60743">
        <ele>3.9</ele>
        <time>2020-06-23T14:06:53Z</time>
      </trkpt>
      <trkpt lat="51.0098" lon="2.6075">
        <ele>3.9</ele>
        <time>2020-06-23T14:06:54Z</time>
      </trkpt>
      <trkpt lat="51.00983" lon="2.60758">
        <ele>3.9</ele>
        <time>2020-06-23T14:06:55Z</time>
      </trkpt>
      <trkpt lat="51.00985" lon="2.60766">
        <ele>4</ele>
        <time>2020-06-23T14:06:56Z</time>
      </trkpt>
      <trkpt lat="51.00988" lon="2.60774">
        <ele>4.1</ele>
        <time>2020-06-23T14:06:57Z</time>
      </trkpt>
      <trkpt lat="51.0099" lon="2.60784">
        <ele>4.1</ele>
        <time>2020-06-23T14:06:58Z</time>
      </trkpt>
      <trkpt lat="51.00992" lon="2.60792">
        <ele>4.2</ele>
        <time>2020-06-23T14:06:59Z</time>
      </trkpt>
      <trkpt lat="51.00994" lon="2.608">
        <ele>4.3</ele>
        <time>2020-06-23T14:07:00Z</time>
      </trkpt>
      <trkpt lat="51.00996" lon="2.60808">
        <ele>4.3</ele>
        <time>2020-06-23T14:07:01Z</time>
      </trkpt>
      <trkpt lat="51.00998" lon="2.60815">
        <ele>4.3</ele>
        <time>2020-06-23T14:07:02Z</time>
      </trkpt>
      <trkpt lat="51.01001" lon="2.60823">
        <ele>4.3</ele>
        <time>2020-06-23T14:07:03Z</time>
      </trkpt>
      <trkpt lat="51.01003" lon="2.60831">
        <ele>4.3</ele>
        <time>2020-06-23T14:07:04Z</time>
      </trkpt>
      <trkpt lat="51.01004" lon="2.60839">
        <ele>4.3</ele>
        <time>2020-06-23T14:07:05Z</time>
      </trkpt>
      <trkpt lat="51.01006" lon="2.60847">
        <ele>4.3</ele>
        <time>2020-06-23T14:07:06Z</time>
      </trkpt>
      <trkpt lat="51.01007" lon="2.60853">
        <ele>4.3</ele>
        <time>2020-06-23T14:07:07Z</time>
      </trkpt>
      <trkpt lat="51.01009" lon="2.60861">
        <ele>4.3</ele>
        <time>2020-06-23T14:07:08Z</time>
      </trkpt>
      <trkpt lat="51.01011" lon="2.60869">
        <ele>4.3</ele>
        <time>2020-06-23T14:07:09Z</time>
      </trkpt>
      <trkpt lat="51.01013" lon="2.60878">
        <ele>4.3</ele>
        <time>2020-06-23T14:07:10Z</time>
      </trkpt>
      <trkpt lat="51.01015" lon="2.60887">
        <ele>4.3</ele>
        <time>2020-06-23T14:07:11Z</time>
      </trkpt>
      <trkpt lat="51.01013" lon="2.60895">
        <ele>4.3</ele>
        <time>2020-06-23T14:07:12Z</time>
      </trkpt>
      <trkpt lat="51.01012" lon="2.60904">
        <ele>4.2</ele>
        <time>2020-06-23T14:07:13Z</time>
      </trkpt>
      <trkpt lat="51.01008" lon="2.60914">
        <ele>4.2</ele>
        <time>2020-06-23T14:07:14Z</time>
      </trkpt>
      <trkpt lat="51.01004" lon="2.60923">
        <ele>4.1</ele>
        <time>2020-06-23T14:07:15Z</time>
      </trkpt>
      <trkpt lat="51.01002" lon="2.60933">
        <ele>4.1</ele>
        <time>2020-06-23T14:07:16Z</time>
      </trkpt>
      <trkpt lat="51.01001" lon="2.60941">
        <ele>4.2</ele>
        <time>2020-06-23T14:07:17Z</time>
      </trkpt>
      <trkpt lat="51.01" lon="2.60949">
        <ele>4.2</ele>
        <time>2020-06-23T14:07:18Z</time>
      </trkpt>
      <trkpt lat="51.00997" lon="2.60958">
        <ele>4.2</ele>
        <time>2020-06-23T14:07:19Z</time>
      </trkpt>
      <trkpt lat="51.00995" lon="2.60966">
        <ele>4.2</ele>
        <time>2020-06-23T14:07:20Z</time>
      </trkpt>
      <trkpt lat="51.00992" lon="2.60974">
        <ele>4.2</ele>
        <time>2020-06-23T14:07:21Z</time>
      </trkpt>
      <trkpt lat="51.0099" lon="2.60982">
        <ele>4.3</ele>
        <time>2020-06-23T14:07:22Z</time>
      </trkpt>
      <trkpt lat="51.00987" lon="2.6099">
        <ele>4.3</ele>
        <time>2020-06-23T14:07:23Z</time>
      </trkpt>
      <trkpt lat="51.00985" lon="2.60997">
        <ele>4.4</ele>
        <time>2020-06-23T14:07:24Z</time>
      </trkpt>
      <trkpt lat="51.00982" lon="2.61006">
        <ele>4.5</ele>
        <time>2020-06-23T14:07:25Z</time>
      </trkpt>
      <trkpt lat="51.0098" lon="2.61013">
        <ele>4.5</ele>
        <time>2020-06-23T14:07:26Z</time>
      </trkpt>
      <trkpt lat="51.00977" lon="2.61022">
        <ele>4.4</ele>
        <time>2020-06-23T14:07:27Z</time>
      </trkpt>
      <trkpt lat="51.00974" lon="2.6103">
        <ele>4.4</ele>
        <time>2020-06-23T14:07:28Z</time>
      </trkpt>
      <trkpt lat="51.0097" lon="2.61038">
        <ele>4.4</ele>
        <time>2020-06-23T14:07:29Z</time>
      </trkpt>
      <trkpt lat="51.00966" lon="2.61046">
        <ele>4.4</ele>
        <time>2020-06-23T14:07:30Z</time>
      </trkpt>
      <trkpt lat="51.00961" lon="2.61055">
        <ele>4.3</ele>
        <time>2020-06-23T14:07:31Z</time>
      </trkpt>
      <trkpt lat="51.00957" lon="2.61063">
        <ele>4.3</ele>
        <time>2020-06-23T14:07:32Z</time>
      </trkpt>
      <trkpt lat="51.00953" lon="2.61072">
        <ele>4.2</ele>
        <time>2020-06-23T14:07:33Z</time>
      </trkpt>
      <trkpt lat="51.00949" lon="2.61081">
        <ele>4.1</ele>
        <time>2020-06-23T14:07:34Z</time>
      </trkpt>
      <trkpt lat="51.00946" lon="2.61089">
        <ele>4</ele>
        <time>2020-06-23T14:07:35Z</time>
      </trkpt>
      <trkpt lat="51.00942" lon="2.61096">
        <ele>4</ele>
        <time>2020-06-23T14:07:36Z</time>
      </trkpt>
      <trkpt lat="51.00939" lon="2.61104">
        <ele>3.9</ele>
        <time>2020-06-23T14:07:37Z</time>
      </trkpt>
      <trkpt lat="51.00936" lon="2.61113">
        <ele>3.9</ele>
        <time>2020-06-23T14:07:38Z</time>
      </trkpt>
      <trkpt lat="51.00932" lon="2.6112">
        <ele>3.8</ele>
        <time>2020-06-23T14:07:39Z</time>
      </trkpt>
      <trkpt lat="51.00929" lon="2.61128">
        <ele>3.8</ele>
        <time>2020-06-23T14:07:40Z</time>
      </trkpt>
      <trkpt lat="51.00925" lon="2.61136">
        <ele>3.8</ele>
        <time>2020-06-23T14:07:41Z</time>
      </trkpt>
      <trkpt lat="51.00921" lon="2.61143">
        <ele>3.8</ele>
        <time>2020-06-23T14:07:42Z</time>
      </trkpt>
      <trkpt lat="51.00917" lon="2.6115">
        <ele>3.8</ele>
        <time>2020-06-23T14:07:43Z</time>
      </trkpt>
      <trkpt lat="51.00914" lon="2.61157">
        <ele>3.8</ele>
        <time>2020-06-23T14:07:44Z</time>
      </trkpt>
      <trkpt lat="51.00911" lon="2.61165">
        <ele>3.8</ele>
        <time>2020-06-23T14:07:45Z</time>
      </trkpt>
      <trkpt lat="51.00909" lon="2.61173">
        <ele>3.9</ele>
        <time>2020-06-23T14:07:46Z</time>
      </trkpt>
      <trkpt lat="51.00906" lon="2.61181">
        <ele>3.9</ele>
        <time>2020-06-23T14:07:47Z</time>
      </trkpt>
      <trkpt lat="51.00904" lon="2.61188">
        <ele>3.9</ele>
        <time>2020-06-23T14:07:48Z</time>
      </trkpt>
      <trkpt lat="51.00902" lon="2.61196">
        <ele>3.9</ele>
        <time>2020-06-23T14:07:49Z</time>
      </trkpt>
      <trkpt lat="51.00899" lon="2.61202">
        <ele>3.9</ele>
        <time>2020-06-23T14:07:50Z</time>
      </trkpt>
      <trkpt lat="51.00896" lon="2.61209">
        <ele>4</ele>
        <time>2020-06-23T14:07:51Z</time>
      </trkpt>
      <trkpt lat="51.00894" lon="2.61215">
        <ele>4</ele>
        <time>2020-06-23T14:07:52Z</time>
      </trkpt>
      <trkpt lat="51.00891" lon="2.61221">
        <ele>4</ele>
        <time>2020-06-23T14:07:53Z</time>
      </trkpt>
      <trkpt lat="51.00888" lon="2.61229">
        <ele>4.1</ele>
        <time>2020-06-23T14:07:54Z</time>
      </trkpt>
      <trkpt lat="51.00886" lon="2.61234">
        <ele>4.1</ele>
        <time>2020-06-23T14:07:55Z</time>
      </trkpt>
      <trkpt lat="51.00884" lon="2.6124">
        <ele>4.2</ele>
        <time>2020-06-23T14:07:56Z</time>
      </trkpt>
      <trkpt lat="51.00881" lon="2.61246">
        <ele>4.3</ele>
        <time>2020-06-23T14:07:57Z</time>
      </trkpt>
      <trkpt lat="51.00878" lon="2.61252">
        <ele>4.3</ele>
        <time>2020-06-23T14:07:58Z</time>
      </trkpt>
      <trkpt lat="51.00875" lon="2.61259">
        <ele>4.1</ele>
        <time>2020-06-23T14:07:59Z</time>
      </trkpt>
      <trkpt lat="51.00872" lon="2.61267">
        <ele>4</ele>
        <time>2020-06-23T14:08:00Z</time>
      </trkpt>
      <trkpt lat="51.0087" lon="2.61274">
        <ele>4</ele>
        <time>2020-06-23T14:08:01Z</time>
      </trkpt>
      <trkpt lat="51.00867" lon="2.61281">
        <ele>3.9</ele>
        <time>2020-06-23T14:08:02Z</time>
      </trkpt>
      <trkpt lat="51.00864" lon="2.61288">
        <ele>3.9</ele>
        <time>2020-06-23T14:08:03Z</time>
      </trkpt>
      <trkpt lat="51.00861" lon="2.61296">
        <ele>3.9</ele>
        <time>2020-06-23T14:08:04Z</time>
      </trkpt>
      <trkpt lat="51.00857" lon="2.61304">
        <ele>3.9</ele>
        <time>2020-06-23T14:08:05Z</time>
      </trkpt>
      <trkpt lat="51.00855" lon="2.61313">
        <ele>3.9</ele>
        <time>2020-06-23T14:08:06Z</time>
      </trkpt>
      <trkpt lat="51.00851" lon="2.61321">
        <ele>4</ele>
        <time>2020-06-23T14:08:07Z</time>
      </trkpt>
      <trkpt lat="51.00848" lon="2.6133">
        <ele>4</ele>
        <time>2020-06-23T14:08:08Z</time>
      </trkpt>
      <trkpt lat="51.00845" lon="2.61337">
        <ele>4</ele>
        <time>2020-06-23T14:08:09Z</time>
      </trkpt>
      <trkpt lat="51.00841" lon="2.61345">
        <ele>4</ele>
        <time>2020-06-23T14:08:10Z</time>
      </trkpt>
      <trkpt lat="51.00838" lon="2.61354">
        <ele>4</ele>
        <time>2020-06-23T14:08:11Z</time>
      </trkpt>
      <trkpt lat="51.00835" lon="2.61362">
        <ele>4</ele>
        <time>2020-06-23T14:08:12Z</time>
      </trkpt>
      <trkpt lat="51.00832" lon="2.61369">
        <ele>4</ele>
        <time>2020-06-23T14:08:13Z</time>
      </trkpt>
      <trkpt lat="51.00829" lon="2.61379">
        <ele>4.1</ele>
        <time>2020-06-23T14:08:14Z</time>
      </trkpt>
      <trkpt lat="51.00826" lon="2.61386">
        <ele>4.1</ele>
        <time>2020-06-23T14:08:15Z</time>
      </trkpt>
      <trkpt lat="51.00824" lon="2.61394">
        <ele>4.1</ele>
        <time>2020-06-23T14:08:16Z</time>
      </trkpt>
      <trkpt lat="51.0082" lon="2.614">
        <ele>4.2</ele>
        <time>2020-06-23T14:08:17Z</time>
      </trkpt>
      <trkpt lat="51.00817" lon="2.61407">
        <ele>4.2</ele>
        <time>2020-06-23T14:08:18Z</time>
      </trkpt>
      <trkpt lat="51.00813" lon="2.61416">
        <ele>4.2</ele>
        <time>2020-06-23T14:08:19Z</time>
      </trkpt>
      <trkpt lat="51.0081" lon="2.61424">
        <ele>4.2</ele>
        <time>2020-06-23T14:08:20Z</time>
      </trkpt>
      <trkpt lat="51.00806" lon="2.61432">
        <ele>4.3</ele>
        <time>2020-06-23T14:08:21Z</time>
      </trkpt>
      <trkpt lat="51.00802" lon="2.61442">
        <ele>4.3</ele>
        <time>2020-06-23T14:08:22Z</time>
      </trkpt>
      <trkpt lat="51.00798" lon="2.6145">
        <ele>4.3</ele>
        <time>2020-06-23T14:08:23Z</time>
      </trkpt>
      <trkpt lat="51.00795" lon="2.61459">
        <ele>4.3</ele>
        <time>2020-06-23T14:08:24Z</time>
      </trkpt>
      <trkpt lat="51.00792" lon="2.61466">
        <ele>4.3</ele>
        <time>2020-06-23T14:08:25Z</time>
      </trkpt>
      <trkpt lat="51.00789" lon="2.61474">
        <ele>4.3</ele>
        <time>2020-06-23T14:08:26Z</time>
      </trkpt>
      <trkpt lat="51.00786" lon="2.61484">
        <ele>4.3</ele>
        <time>2020-06-23T14:08:27Z</time>
      </trkpt>
      <trkpt lat="51.00783" lon="2.61491">
        <ele>4.3</ele>
        <time>2020-06-23T14:08:28Z</time>
      </trkpt>
      <trkpt lat="51.0078" lon="2.61499">
        <ele>4.3</ele>
        <time>2020-06-23T14:08:29Z</time>
      </trkpt>
      <trkpt lat="51.00777" lon="2.61506">
        <ele>4.3</ele>
        <time>2020-06-23T14:08:30Z</time>
      </trkpt>
      <trkpt lat="51.00774" lon="2.61514">
        <ele>4.3</ele>
        <time>2020-06-23T14:08:31Z</time>
      </trkpt>
      <trkpt lat="51.0077" lon="2.61522">
        <ele>4.3</ele>
        <time>2020-06-23T14:08:32Z</time>
      </trkpt>
      <trkpt lat="51.00766" lon="2.61527">
        <ele>4.3</ele>
        <time>2020-06-23T14:08:33Z</time>
      </trkpt>
      <trkpt lat="51.00762" lon="2.61535">
        <ele>4.3</ele>
        <time>2020-06-23T14:08:34Z</time>
      </trkpt>
      <trkpt lat="51.00758" lon="2.61543">
        <ele>4.3</ele>
        <time>2020-06-23T14:08:35Z</time>
      </trkpt>
      <trkpt lat="51.00754" lon="2.6155">
        <ele>4.4</ele>
        <time>2020-06-23T14:08:36Z</time>
      </trkpt>
      <trkpt lat="51.0075" lon="2.61559">
        <ele>4.4</ele>
        <time>2020-06-23T14:08:37Z</time>
      </trkpt>
      <trkpt lat="51.00747" lon="2.61566">
        <ele>4.4</ele>
        <time>2020-06-23T14:08:38Z</time>
      </trkpt>
      <trkpt lat="51.00743" lon="2.61575">
        <ele>4.4</ele>
        <time>2020-06-23T14:08:39Z</time>
      </trkpt>
      <trkpt lat="51.00738" lon="2.61583">
        <ele>4.4</ele>
        <time>2020-06-23T14:08:40Z</time>
      </trkpt>
      <trkpt lat="51.00735" lon="2.6159">
        <ele>4.4</ele>
        <time>2020-06-23T14:08:41Z</time>
      </trkpt>
      <trkpt lat="51.00731" lon="2.61597">
        <ele>4.4</ele>
        <time>2020-06-23T14:08:42Z</time>
      </trkpt>
      <trkpt lat="51.00728" lon="2.61605">
        <ele>4.4</ele>
        <time>2020-06-23T14:08:43Z</time>
      </trkpt>
      <trkpt lat="51.00723" lon="2.61612">
        <ele>4.5</ele>
        <time>2020-06-23T14:08:44Z</time>
      </trkpt>
      <trkpt lat="51.00719" lon="2.6162">
        <ele>4.5</ele>
        <time>2020-06-23T14:08:45Z</time>
      </trkpt>
      <trkpt lat="51.00715" lon="2.61628">
        <ele>4.6</ele>
        <time>2020-06-23T14:08:46Z</time>
      </trkpt>
      <trkpt lat="51.00711" lon="2.61638">
        <ele>4.7</ele>
        <time>2020-06-23T14:08:47Z</time>
      </trkpt>
      <trkpt lat="51.00707" lon="2.61648">
        <ele>4.7</ele>
        <time>2020-06-23T14:08:48Z</time>
      </trkpt>
      <trkpt lat="51.00703" lon="2.61657">
        <ele>4.5</ele>
        <time>2020-06-23T14:08:49Z</time>
      </trkpt>
      <trkpt lat="51.007" lon="2.61665">
        <ele>4.3</ele>
        <time>2020-06-23T14:08:50Z</time>
      </trkpt>
      <trkpt lat="51.00696" lon="2.61674">
        <ele>4.2</ele>
        <time>2020-06-23T14:08:51Z</time>
      </trkpt>
      <trkpt lat="51.00692" lon="2.61681">
        <ele>4.1</ele>
        <time>2020-06-23T14:08:52Z</time>
      </trkpt>
      <trkpt lat="51.00688" lon="2.61689">
        <ele>4.1</ele>
        <time>2020-06-23T14:08:53Z</time>
      </trkpt>
      <trkpt lat="51.00684" lon="2.61697">
        <ele>4.1</ele>
        <time>2020-06-23T14:08:54Z</time>
      </trkpt>
      <trkpt lat="51.0068" lon="2.61706">
        <ele>4.1</ele>
        <time>2020-06-23T14:08:55Z</time>
      </trkpt>
      <trkpt lat="51.00676" lon="2.61714">
        <ele>4.1</ele>
        <time>2020-06-23T14:08:56Z</time>
      </trkpt>
      <trkpt lat="51.00672" lon="2.61721">
        <ele>4.2</ele>
        <time>2020-06-23T14:08:57Z</time>
      </trkpt>
      <trkpt lat="51.00669" lon="2.61728">
        <ele>4.2</ele>
        <time>2020-06-23T14:08:58Z</time>
      </trkpt>
      <trkpt lat="51.00664" lon="2.61736">
        <ele>4.2</ele>
        <time>2020-06-23T14:08:59Z</time>
      </trkpt>
      <trkpt lat="51.0066" lon="2.61743">
        <ele>4.3</ele>
        <time>2020-06-23T14:09:00Z</time>
      </trkpt>
      <trkpt lat="51.00656" lon="2.6175">
        <ele>4.3</ele>
        <time>2020-06-23T14:09:01Z</time>
      </trkpt>
      <trkpt lat="51.00652" lon="2.61757">
        <ele>4.4</ele>
        <time>2020-06-23T14:09:02Z</time>
      </trkpt>
      <trkpt lat="51.00648" lon="2.61764">
        <ele>4.4</ele>
        <time>2020-06-23T14:09:03Z</time>
      </trkpt>
      <trkpt lat="51.00643" lon="2.61772">
        <ele>4.4</ele>
        <time>2020-06-23T14:09:04Z</time>
      </trkpt>
      <trkpt lat="51.00639" lon="2.6178">
        <ele>4.5</ele>
        <time>2020-06-23T14:09:05Z</time>
      </trkpt>
      <trkpt lat="51.00635" lon="2.61788">
        <ele>4.5</ele>
        <time>2020-06-23T14:09:06Z</time>
      </trkpt>
      <trkpt lat="51.00631" lon="2.61797">
        <ele>4.6</ele>
        <time>2020-06-23T14:09:07Z</time>
      </trkpt>
      <trkpt lat="51.00626" lon="2.61807">
        <ele>4.7</ele>
        <time>2020-06-23T14:09:08Z</time>
      </trkpt>
      <trkpt lat="51.00622" lon="2.61815">
        <ele>4.9</ele>
        <time>2020-06-23T14:09:09Z</time>
      </trkpt>
      <trkpt lat="51.00617" lon="2.61823">
        <ele>5</ele>
        <time>2020-06-23T14:09:10Z</time>
      </trkpt>
      <trkpt lat="51.00613" lon="2.61831">
        <ele>5.2</ele>
        <time>2020-06-23T14:09:11Z</time>
      </trkpt>
      <trkpt lat="51.00609" lon="2.61838">
        <ele>5.3</ele>
        <time>2020-06-23T14:09:12Z</time>
      </trkpt>
      <trkpt lat="51.00606" lon="2.61846">
        <ele>5.4</ele>
        <time>2020-06-23T14:09:13Z</time>
      </trkpt>
      <trkpt lat="51.00601" lon="2.61856">
        <ele>5.5</ele>
        <time>2020-06-23T14:09:14Z</time>
      </trkpt>
      <trkpt lat="51.00598" lon="2.61865">
        <ele>5.3</ele>
        <time>2020-06-23T14:09:15Z</time>
      </trkpt>
      <trkpt lat="51.00595" lon="2.61873">
        <ele>5.1</ele>
        <time>2020-06-23T14:09:16Z</time>
      </trkpt>
      <trkpt lat="51.00592" lon="2.61882">
        <ele>4.9</ele>
        <time>2020-06-23T14:09:17Z</time>
      </trkpt>
      <trkpt lat="51.0059" lon="2.61891">
        <ele>4.7</ele>
        <time>2020-06-23T14:09:18Z</time>
      </trkpt>
      <trkpt lat="51.00587" lon="2.619">
        <ele>4.6</ele>
        <time>2020-06-23T14:09:19Z</time>
      </trkpt>
      <trkpt lat="51.00584" lon="2.61909">
        <ele>4.5</ele>
        <time>2020-06-23T14:09:20Z</time>
      </trkpt>
      <trkpt lat="51.00581" lon="2.61917">
        <ele>4.4</ele>
        <time>2020-06-23T14:09:21Z</time>
      </trkpt>
      <trkpt lat="51.00579" lon="2.61926">
        <ele>4.3</ele>
        <time>2020-06-23T14:09:22Z</time>
      </trkpt>
      <trkpt lat="51.00576" lon="2.61936">
        <ele>4.3</ele>
        <time>2020-06-23T14:09:23Z</time>
      </trkpt>
      <trkpt lat="51.00573" lon="2.61946">
        <ele>4.2</ele>
        <time>2020-06-23T14:09:24Z</time>
      </trkpt>
      <trkpt lat="51.00571" lon="2.61955">
        <ele>4.2</ele>
        <time>2020-06-23T14:09:25Z</time>
      </trkpt>
      <trkpt lat="51.00568" lon="2.61964">
        <ele>4.2</ele>
        <time>2020-06-23T14:09:26Z</time>
      </trkpt>
      <trkpt lat="51.00566" lon="2.61973">
        <ele>4.2</ele>
        <time>2020-06-23T14:09:27Z</time>
      </trkpt>
      <trkpt lat="51.00563" lon="2.61982">
        <ele>4.2</ele>
        <time>2020-06-23T14:09:28Z</time>
      </trkpt>
      <trkpt lat="51.0056" lon="2.61991">
        <ele>4.2</ele>
        <time>2020-06-23T14:09:29Z</time>
      </trkpt>
      <trkpt lat="51.00557" lon="2.61999">
        <ele>4.2</ele>
        <time>2020-06-23T14:09:30Z</time>
      </trkpt>
      <trkpt lat="51.00554" lon="2.62008">
        <ele>4.2</ele>
        <time>2020-06-23T14:09:31Z</time>
      </trkpt>
      <trkpt lat="51.00553" lon="2.62017">
        <ele>4.2</ele>
        <time>2020-06-23T14:09:32Z</time>
      </trkpt>
      <trkpt lat="51.0055" lon="2.62026">
        <ele>4.3</ele>
        <time>2020-06-23T14:09:33Z</time>
      </trkpt>
      <trkpt lat="51.00547" lon="2.62034">
        <ele>4.3</ele>
        <time>2020-06-23T14:09:34Z</time>
      </trkpt>
      <trkpt lat="51.00544" lon="2.62044">
        <ele>4.3</ele>
        <time>2020-06-23T14:09:35Z</time>
      </trkpt>
      <trkpt lat="51.00541" lon="2.62054">
        <ele>4.4</ele>
        <time>2020-06-23T14:09:36Z</time>
      </trkpt>
      <trkpt lat="51.00539" lon="2.62064">
        <ele>4.4</ele>
        <time>2020-06-23T14:09:37Z</time>
      </trkpt>
      <trkpt lat="51.00537" lon="2.62074">
        <ele>4.4</ele>
        <time>2020-06-23T14:09:38Z</time>
      </trkpt>
      <trkpt lat="51.00535" lon="2.62082">
        <ele>4.4</ele>
        <time>2020-06-23T14:09:39Z</time>
      </trkpt>
      <trkpt lat="51.00533" lon="2.62091">
        <ele>4.4</ele>
        <time>2020-06-23T14:09:40Z</time>
      </trkpt>
      <trkpt lat="51.0053" lon="2.62099">
        <ele>4.4</ele>
        <time>2020-06-23T14:09:41Z</time>
      </trkpt>
      <trkpt lat="51.00528" lon="2.62108">
        <ele>4.4</ele>
        <time>2020-06-23T14:09:42Z</time>
      </trkpt>
      <trkpt lat="51.00526" lon="2.62116">
        <ele>4.4</ele>
        <time>2020-06-23T14:09:43Z</time>
      </trkpt>
      <trkpt lat="51.00525" lon="2.62124">
        <ele>4.4</ele>
        <time>2020-06-23T14:09:44Z</time>
      </trkpt>
      <trkpt lat="51.00524" lon="2.62133">
        <ele>4.4</ele>
        <time>2020-06-23T14:09:45Z</time>
      </trkpt>
      <trkpt lat="51.00522" lon="2.62141">
        <ele>4.4</ele>
        <time>2020-06-23T14:09:46Z</time>
      </trkpt>
      <trkpt lat="51.0052" lon="2.62151">
        <ele>4.4</ele>
        <time>2020-06-23T14:09:47Z</time>
      </trkpt>
      <trkpt lat="51.00519" lon="2.62161">
        <ele>4.4</ele>
        <time>2020-06-23T14:09:48Z</time>
      </trkpt>
      <trkpt lat="51.00518" lon="2.62168">
        <ele>4.4</ele>
        <time>2020-06-23T14:09:49Z</time>
      </trkpt>
      <trkpt lat="51.00516" lon="2.62176">
        <ele>4.5</ele>
        <time>2020-06-23T14:09:50Z</time>
      </trkpt>
      <trkpt lat="51.00514" lon="2.62185">
        <ele>4.5</ele>
        <time>2020-06-23T14:09:51Z</time>
      </trkpt>
      <trkpt lat="51.00512" lon="2.62195">
        <ele>4.5</ele>
        <time>2020-06-23T14:09:52Z</time>
      </trkpt>
      <trkpt lat="51.00511" lon="2.62204">
        <ele>4.5</ele>
        <time>2020-06-23T14:09:53Z</time>
      </trkpt>
      <trkpt lat="51.0051" lon="2.62211">
        <ele>4.5</ele>
        <time>2020-06-23T14:09:54Z</time>
      </trkpt>
      <trkpt lat="51.00508" lon="2.6222">
        <ele>4.5</ele>
        <time>2020-06-23T14:09:55Z</time>
      </trkpt>
      <trkpt lat="51.00507" lon="2.62227">
        <ele>4.5</ele>
        <time>2020-06-23T14:09:56Z</time>
      </trkpt>
      <trkpt lat="51.00505" lon="2.62238">
        <ele>4.5</ele>
        <time>2020-06-23T14:09:57Z</time>
      </trkpt>
      <trkpt lat="51.00503" lon="2.62248">
        <ele>4.6</ele>
        <time>2020-06-23T14:09:58Z</time>
      </trkpt>
      <trkpt lat="51.00501" lon="2.62258">
        <ele>4.6</ele>
        <time>2020-06-23T14:09:59Z</time>
      </trkpt>
      <trkpt lat="51.00499" lon="2.62264">
        <ele>4.6</ele>
        <time>2020-06-23T14:10:00Z</time>
      </trkpt>
      <trkpt lat="51.00498" lon="2.62274">
        <ele>4.7</ele>
        <time>2020-06-23T14:10:01Z</time>
      </trkpt>
      <trkpt lat="51.00495" lon="2.62283">
        <ele>4.7</ele>
        <time>2020-06-23T14:10:02Z</time>
      </trkpt>
      <trkpt lat="51.00494" lon="2.6229">
        <ele>4.7</ele>
        <time>2020-06-23T14:10:03Z</time>
      </trkpt>
      <trkpt lat="51.00493" lon="2.62298">
        <ele>4.7</ele>
        <time>2020-06-23T14:10:04Z</time>
      </trkpt>
      <trkpt lat="51.00491" lon="2.62306">
        <ele>4.7</ele>
        <time>2020-06-23T14:10:05Z</time>
      </trkpt>
      <trkpt lat="51.00489" lon="2.62315">
        <ele>4.7</ele>
        <time>2020-06-23T14:10:06Z</time>
      </trkpt>
      <trkpt lat="51.00488" lon="2.62326">
        <ele>4.8</ele>
        <time>2020-06-23T14:10:07Z</time>
      </trkpt>
      <trkpt lat="51.00486" lon="2.62336">
        <ele>4.8</ele>
        <time>2020-06-23T14:10:08Z</time>
      </trkpt>
      <trkpt lat="51.00483" lon="2.62345">
        <ele>4.8</ele>
        <time>2020-06-23T14:10:09Z</time>
      </trkpt>
      <trkpt lat="51.00481" lon="2.62355">
        <ele>4.9</ele>
        <time>2020-06-23T14:10:10Z</time>
      </trkpt>
      <trkpt lat="51.0048" lon="2.62362">
        <ele>4.9</ele>
        <time>2020-06-23T14:10:11Z</time>
      </trkpt>
      <trkpt lat="51.00477" lon="2.62372">
        <ele>4.9</ele>
        <time>2020-06-23T14:10:12Z</time>
      </trkpt>
      <trkpt lat="51.00474" lon="2.6238">
        <ele>4.9</ele>
        <time>2020-06-23T14:10:13Z</time>
      </trkpt>
      <trkpt lat="51.00472" lon="2.62389">
        <ele>5</ele>
        <time>2020-06-23T14:10:14Z</time>
      </trkpt>
      <trkpt lat="51.00469" lon="2.62399">
        <ele>5</ele>
        <time>2020-06-23T14:10:15Z</time>
      </trkpt>
      <trkpt lat="51.00467" lon="2.62405">
        <ele>5</ele>
        <time>2020-06-23T14:10:16Z</time>
      </trkpt>
      <trkpt lat="51.00466" lon="2.62414">
        <ele>5</ele>
        <time>2020-06-23T14:10:17Z</time>
      </trkpt>
      <trkpt lat="51.00464" lon="2.62423">
        <ele>5</ele>
        <time>2020-06-23T14:10:18Z</time>
      </trkpt>
      <trkpt lat="51.00462" lon="2.62432">
        <ele>5</ele>
        <time>2020-06-23T14:10:19Z</time>
      </trkpt>
      <trkpt lat="51.00461" lon="2.62441">
        <ele>5</ele>
        <time>2020-06-23T14:10:20Z</time>
      </trkpt>
      <trkpt lat="51.0046" lon="2.62451">
        <ele>5</ele>
        <time>2020-06-23T14:10:21Z</time>
      </trkpt>
      <trkpt lat="51.00457" lon="2.62459">
        <ele>5</ele>
        <time>2020-06-23T14:10:22Z</time>
      </trkpt>
      <trkpt lat="51.00455" lon="2.62469">
        <ele>5.1</ele>
        <time>2020-06-23T14:10:23Z</time>
      </trkpt>
      <trkpt lat="51.00452" lon="2.62479">
        <ele>5.1</ele>
        <time>2020-06-23T14:10:24Z</time>
      </trkpt>
      <trkpt lat="51.00451" lon="2.62489">
        <ele>5.1</ele>
        <time>2020-06-23T14:10:25Z</time>
      </trkpt>
      <trkpt lat="51.0045" lon="2.62497">
        <ele>5.1</ele>
        <time>2020-06-23T14:10:26Z</time>
      </trkpt>
      <trkpt lat="51.00449" lon="2.62507">
        <ele>5.2</ele>
        <time>2020-06-23T14:10:27Z</time>
      </trkpt>
      <trkpt lat="51.00448" lon="2.62518">
        <ele>5.2</ele>
        <time>2020-06-23T14:10:28Z</time>
      </trkpt>
      <trkpt lat="51.00447" lon="2.62527">
        <ele>5.2</ele>
        <time>2020-06-23T14:10:29Z</time>
      </trkpt>
      <trkpt lat="51.00445" lon="2.62539">
        <ele>5.2</ele>
        <time>2020-06-23T14:10:30Z</time>
      </trkpt>
      <trkpt lat="51.00443" lon="2.62547">
        <ele>5.2</ele>
        <time>2020-06-23T14:10:31Z</time>
      </trkpt>
      <trkpt lat="51.00442" lon="2.62555">
        <ele>5.2</ele>
        <time>2020-06-23T14:10:32Z</time>
      </trkpt>
      <trkpt lat="51.0044" lon="2.62566">
        <ele>5.3</ele>
        <time>2020-06-23T14:10:33Z</time>
      </trkpt>
      <trkpt lat="51.00438" lon="2.62576">
        <ele>5.3</ele>
        <time>2020-06-23T14:10:34Z</time>
      </trkpt>
      <trkpt lat="51.00437" lon="2.62584">
        <ele>5.3</ele>
        <time>2020-06-23T14:10:35Z</time>
      </trkpt>
      <trkpt lat="51.00437" lon="2.62591">
        <ele>5.3</ele>
        <time>2020-06-23T14:10:36Z</time>
      </trkpt>
      <trkpt lat="51.00437" lon="2.62599">
        <ele>5.3</ele>
        <time>2020-06-23T14:10:37Z</time>
      </trkpt>
      <trkpt lat="51.00436" lon="2.62608">
        <ele>5.4</ele>
        <time>2020-06-23T14:10:38Z</time>
      </trkpt>
      <trkpt lat="51.00435" lon="2.62617">
        <ele>5.4</ele>
        <time>2020-06-23T14:10:39Z</time>
      </trkpt>
      <trkpt lat="51.00434" lon="2.62626">
        <ele>5.4</ele>
        <time>2020-06-23T14:10:40Z</time>
      </trkpt>
      <trkpt lat="51.00433" lon="2.62636">
        <ele>5.4</ele>
        <time>2020-06-23T14:10:41Z</time>
      </trkpt>
      <trkpt lat="51.00432" lon="2.62645">
        <ele>5.4</ele>
        <time>2020-06-23T14:10:42Z</time>
      </trkpt>
      <trkpt lat="51.00431" lon="2.62654">
        <ele>5.4</ele>
        <time>2020-06-23T14:10:43Z</time>
      </trkpt>
      <trkpt lat="51.0043" lon="2.62664">
        <ele>5.4</ele>
        <time>2020-06-23T14:10:44Z</time>
      </trkpt>
      <trkpt lat="51.00429" lon="2.62674">
        <ele>5.5</ele>
        <time>2020-06-23T14:10:45Z</time>
      </trkpt>
      <trkpt lat="51.00428" lon="2.62683">
        <ele>5.5</ele>
        <time>2020-06-23T14:10:46Z</time>
      </trkpt>
      <trkpt lat="51.00427" lon="2.62693">
        <ele>5.5</ele>
        <time>2020-06-23T14:10:47Z</time>
      </trkpt>
      <trkpt lat="51.00427" lon="2.62703">
        <ele>5.5</ele>
        <time>2020-06-23T14:10:48Z</time>
      </trkpt>
      <trkpt lat="51.00426" lon="2.62713">
        <ele>5.6</ele>
        <time>2020-06-23T14:10:49Z</time>
      </trkpt>
      <trkpt lat="51.00426" lon="2.62723">
        <ele>5.6</ele>
        <time>2020-06-23T14:10:50Z</time>
      </trkpt>
      <trkpt lat="51.00425" lon="2.62735">
        <ele>5.7</ele>
        <time>2020-06-23T14:10:51Z</time>
      </trkpt>
      <trkpt lat="51.00424" lon="2.62744">
        <ele>5.7</ele>
        <time>2020-06-23T14:10:52Z</time>
      </trkpt>
      <trkpt lat="51.00424" lon="2.62754">
        <ele>5.8</ele>
        <time>2020-06-23T14:10:53Z</time>
      </trkpt>
      <trkpt lat="51.00423" lon="2.62765">
        <ele>5.9</ele>
        <time>2020-06-23T14:10:54Z</time>
      </trkpt>
      <trkpt lat="51.00422" lon="2.62775">
        <ele>6</ele>
        <time>2020-06-23T14:10:55Z</time>
      </trkpt>
      <trkpt lat="51.00422" lon="2.62784">
        <ele>6.1</ele>
        <time>2020-06-23T14:10:56Z</time>
      </trkpt>
      <trkpt lat="51.00421" lon="2.62791">
        <ele>6.2</ele>
        <time>2020-06-23T14:10:57Z</time>
      </trkpt>
      <trkpt lat="51.0042" lon="2.62797">
        <ele>6.3</ele>
        <time>2020-06-23T14:10:58Z</time>
      </trkpt>
      <trkpt lat="51.00418" lon="2.62806">
        <ele>6.4</ele>
        <time>2020-06-23T14:10:59Z</time>
      </trkpt>
      <trkpt lat="51.00417" lon="2.62818">
        <ele>6.5</ele>
        <time>2020-06-23T14:11:00Z</time>
      </trkpt>
      <trkpt lat="51.00416" lon="2.62828">
        <ele>6.4</ele>
        <time>2020-06-23T14:11:01Z</time>
      </trkpt>
      <trkpt lat="51.00414" lon="2.62838">
        <ele>6.3</ele>
        <time>2020-06-23T14:11:02Z</time>
      </trkpt>
      <trkpt lat="51.00412" lon="2.62847">
        <ele>6.3</ele>
        <time>2020-06-23T14:11:03Z</time>
      </trkpt>
      <trkpt lat="51.0041" lon="2.62858">
        <ele>6.2</ele>
        <time>2020-06-23T14:11:04Z</time>
      </trkpt>
      <trkpt lat="51.00408" lon="2.62866">
        <ele>6.1</ele>
        <time>2020-06-23T14:11:05Z</time>
      </trkpt>
      <trkpt lat="51.00407" lon="2.62876">
        <ele>6.1</ele>
        <time>2020-06-23T14:11:06Z</time>
      </trkpt>
      <trkpt lat="51.00405" lon="2.62886">
        <ele>6</ele>
        <time>2020-06-23T14:11:07Z</time>
      </trkpt>
      <trkpt lat="51.00403" lon="2.62895">
        <ele>6</ele>
        <time>2020-06-23T14:11:08Z</time>
      </trkpt>
      <trkpt lat="51.00401" lon="2.62905">
        <ele>6</ele>
        <time>2020-06-23T14:11:09Z</time>
      </trkpt>
      <trkpt lat="51.004" lon="2.62915">
        <ele>6</ele>
        <time>2020-06-23T14:11:10Z</time>
      </trkpt>
      <trkpt lat="51.00399" lon="2.62924">
        <ele>5.9</ele>
        <time>2020-06-23T14:11:11Z</time>
      </trkpt>
      <trkpt lat="51.00397" lon="2.62934">
        <ele>5.9</ele>
        <time>2020-06-23T14:11:12Z</time>
      </trkpt>
      <trkpt lat="51.00396" lon="2.62942">
        <ele>5.9</ele>
        <time>2020-06-23T14:11:13Z</time>
      </trkpt>
      <trkpt lat="51.00395" lon="2.62951">
        <ele>5.8</ele>
        <time>2020-06-23T14:11:14Z</time>
      </trkpt>
      <trkpt lat="51.00394" lon="2.62961">
        <ele>5.8</ele>
        <time>2020-06-23T14:11:15Z</time>
      </trkpt>
      <trkpt lat="51.00392" lon="2.62971">
        <ele>5.8</ele>
        <time>2020-06-23T14:11:16Z</time>
      </trkpt>
      <trkpt lat="51.00389" lon="2.62982">
        <ele>5.8</ele>
        <time>2020-06-23T14:11:17Z</time>
      </trkpt>
      <trkpt lat="51.00387" lon="2.62991">
        <ele>5.8</ele>
        <time>2020-06-23T14:11:18Z</time>
      </trkpt>
      <trkpt lat="51.00386" lon="2.63001">
        <ele>5.8</ele>
        <time>2020-06-23T14:11:19Z</time>
      </trkpt>
      <trkpt lat="51.00384" lon="2.63011">
        <ele>5.7</ele>
        <time>2020-06-23T14:11:20Z</time>
      </trkpt>
      <trkpt lat="51.00383" lon="2.63021">
        <ele>5.7</ele>
        <time>2020-06-23T14:11:21Z</time>
      </trkpt>
      <trkpt lat="51.00382" lon="2.63031">
        <ele>5.7</ele>
        <time>2020-06-23T14:11:22Z</time>
      </trkpt>
      <trkpt lat="51.00381" lon="2.6304">
        <ele>5.7</ele>
        <time>2020-06-23T14:11:23Z</time>
      </trkpt>
      <trkpt lat="51.00379" lon="2.63049">
        <ele>5.7</ele>
        <time>2020-06-23T14:11:24Z</time>
      </trkpt>
      <trkpt lat="51.00377" lon="2.63059">
        <ele>5.6</ele>
        <time>2020-06-23T14:11:25Z</time>
      </trkpt>
      <trkpt lat="51.00375" lon="2.63068">
        <ele>5.6</ele>
        <time>2020-06-23T14:11:26Z</time>
      </trkpt>
      <trkpt lat="51.00373" lon="2.63078">
        <ele>5.6</ele>
        <time>2020-06-23T14:11:27Z</time>
      </trkpt>
      <trkpt lat="51.00372" lon="2.63088">
        <ele>5.6</ele>
        <time>2020-06-23T14:11:28Z</time>
      </trkpt>
      <trkpt lat="51.0037" lon="2.63098">
        <ele>5.6</ele>
        <time>2020-06-23T14:11:29Z</time>
      </trkpt>
      <trkpt lat="51.00368" lon="2.63107">
        <ele>5.6</ele>
        <time>2020-06-23T14:11:30Z</time>
      </trkpt>
      <trkpt lat="51.00367" lon="2.63116">
        <ele>5.5</ele>
        <time>2020-06-23T14:11:31Z</time>
      </trkpt>
      <trkpt lat="51.00365" lon="2.63126">
        <ele>5.5</ele>
        <time>2020-06-23T14:11:32Z</time>
      </trkpt>
      <trkpt lat="51.00363" lon="2.63136">
        <ele>5.5</ele>
        <time>2020-06-23T14:11:33Z</time>
      </trkpt>
      <trkpt lat="51.00362" lon="2.63145">
        <ele>5.5</ele>
        <time>2020-06-23T14:11:34Z</time>
      </trkpt>
      <trkpt lat="51.00361" lon="2.63155">
        <ele>5.5</ele>
        <time>2020-06-23T14:11:35Z</time>
      </trkpt>
      <trkpt lat="51.00359" lon="2.63165">
        <ele>5.4</ele>
        <time>2020-06-23T14:11:36Z</time>
      </trkpt>
      <trkpt lat="51.00358" lon="2.63174">
        <ele>5.4</ele>
        <time>2020-06-23T14:11:37Z</time>
      </trkpt>
      <trkpt lat="51.00356" lon="2.63184">
        <ele>5.3</ele>
        <time>2020-06-23T14:11:38Z</time>
      </trkpt>
      <trkpt lat="51.00354" lon="2.63194">
        <ele>5.3</ele>
        <time>2020-06-23T14:11:39Z</time>
      </trkpt>
      <trkpt lat="51.00353" lon="2.63204">
        <ele>5.2</ele>
        <time>2020-06-23T14:11:40Z</time>
      </trkpt>
      <trkpt lat="51.00351" lon="2.63211">
        <ele>5.2</ele>
        <time>2020-06-23T14:11:41Z</time>
      </trkpt>
      <trkpt lat="51.00349" lon="2.63222">
        <ele>5.2</ele>
        <time>2020-06-23T14:11:42Z</time>
      </trkpt>
      <trkpt lat="51.00347" lon="2.63232">
        <ele>5.2</ele>
        <time>2020-06-23T14:11:43Z</time>
      </trkpt>
      <trkpt lat="51.00346" lon="2.63242">
        <ele>5.2</ele>
        <time>2020-06-23T14:11:44Z</time>
      </trkpt>
      <trkpt lat="51.00345" lon="2.6325">
        <ele>5.2</ele>
        <time>2020-06-23T14:11:45Z</time>
      </trkpt>
      <trkpt lat="51.00343" lon="2.6326">
        <ele>5.2</ele>
        <time>2020-06-23T14:11:46Z</time>
      </trkpt>
      <trkpt lat="51.00342" lon="2.6327">
        <ele>5.3</ele>
        <time>2020-06-23T14:11:47Z</time>
      </trkpt>
      <trkpt lat="51.0034" lon="2.63279">
        <ele>5.3</ele>
        <time>2020-06-23T14:11:48Z</time>
      </trkpt>
      <trkpt lat="51.00338" lon="2.63289">
        <ele>5.3</ele>
        <time>2020-06-23T14:11:49Z</time>
      </trkpt>
      <trkpt lat="51.00336" lon="2.63299">
        <ele>5.3</ele>
        <time>2020-06-23T14:11:50Z</time>
      </trkpt>
      <trkpt lat="51.00334" lon="2.63308">
        <ele>5.3</ele>
        <time>2020-06-23T14:11:51Z</time>
      </trkpt>
      <trkpt lat="51.00333" lon="2.63318">
        <ele>5.4</ele>
        <time>2020-06-23T14:11:52Z</time>
      </trkpt>
      <trkpt lat="51.00331" lon="2.63328">
        <ele>5.4</ele>
        <time>2020-06-23T14:11:53Z</time>
      </trkpt>
      <trkpt lat="51.00331" lon="2.63338">
        <ele>5.4</ele>
        <time>2020-06-23T14:11:54Z</time>
      </trkpt>
      <trkpt lat="51.00331" lon="2.63348">
        <ele>5.4</ele>
        <time>2020-06-23T14:11:55Z</time>
      </trkpt>
      <trkpt lat="51.00331" lon="2.63358">
        <ele>5.5</ele>
        <time>2020-06-23T14:11:56Z</time>
      </trkpt>
      <trkpt lat="51.00332" lon="2.63367">
        <ele>5.6</ele>
        <time>2020-06-23T14:11:57Z</time>
      </trkpt>
      <trkpt lat="51.00333" lon="2.63376">
        <ele>5.7</ele>
        <time>2020-06-23T14:11:58Z</time>
      </trkpt>
      <trkpt lat="51.00334" lon="2.63385">
        <ele>5.7</ele>
        <time>2020-06-23T14:11:59Z</time>
      </trkpt>
      <trkpt lat="51.00336" lon="2.63394">
        <ele>5.8</ele>
        <time>2020-06-23T14:12:00Z</time>
      </trkpt>
      <trkpt lat="51.00339" lon="2.63401">
        <ele>5.9</ele>
        <time>2020-06-23T14:12:01Z</time>
      </trkpt>
      <trkpt lat="51.00341" lon="2.63409">
        <ele>5.9</ele>
        <time>2020-06-23T14:12:02Z</time>
      </trkpt>
      <trkpt lat="51.00344" lon="2.63417">
        <ele>6</ele>
        <time>2020-06-23T14:12:03Z</time>
      </trkpt>
      <trkpt lat="51.00348" lon="2.63424">
        <ele>6</ele>
        <time>2020-06-23T14:12:04Z</time>
      </trkpt>
      <trkpt lat="51.00352" lon="2.63432">
        <ele>6.1</ele>
        <time>2020-06-23T14:12:05Z</time>
      </trkpt>
      <trkpt lat="51.00356" lon="2.6344">
        <ele>6.2</ele>
        <time>2020-06-23T14:12:06Z</time>
      </trkpt>
      <trkpt lat="51.00358" lon="2.63445">
        <ele>6.2</ele>
        <time>2020-06-23T14:12:07Z</time>
      </trkpt>
      <trkpt lat="51.00361" lon="2.63452">
        <ele>6.3</ele>
        <time>2020-06-23T14:12:08Z</time>
      </trkpt>
      <trkpt lat="51.00364" lon="2.63458">
        <ele>6.4</ele>
        <time>2020-06-23T14:12:09Z</time>
      </trkpt>
      <trkpt lat="51.00367" lon="2.63464">
        <ele>6.4</ele>
        <time>2020-06-23T14:12:10Z</time>
      </trkpt>
      <trkpt lat="51.00369" lon="2.6347">
        <ele>6.5</ele>
        <time>2020-06-23T14:12:11Z</time>
      </trkpt>
      <trkpt lat="51.00372" lon="2.63475">
        <ele>6.6</ele>
        <time>2020-06-23T14:12:12Z</time>
      </trkpt>
      <trkpt lat="51.00374" lon="2.63481">
        <ele>6.6</ele>
        <time>2020-06-23T14:12:13Z</time>
      </trkpt>
      <trkpt lat="51.00376" lon="2.63486">
        <ele>6.7</ele>
        <time>2020-06-23T14:12:14Z</time>
      </trkpt>
      <trkpt lat="51.00378" lon="2.63493">
        <ele>6.8</ele>
        <time>2020-06-23T14:12:15Z</time>
      </trkpt>
      <trkpt lat="51.00379" lon="2.63496">
        <ele>6.8</ele>
        <time>2020-06-23T14:12:16Z</time>
      </trkpt>
      <trkpt lat="51.00379" lon="2.63498">
        <ele>6.9</ele>
        <time>2020-06-23T14:12:17Z</time>
      </trkpt>
      <trkpt lat="51.00379" lon="2.63501">
        <ele>6.9</ele>
        <time>2020-06-23T14:12:18Z</time>
      </trkpt>
      <trkpt lat="51.00375" lon="2.63503">
        <ele>7</ele>
        <time>2020-06-23T14:12:19Z</time>
      </trkpt>
      <trkpt lat="51.0037" lon="2.63505">
        <ele>6.9</ele>
        <time>2020-06-23T14:12:20Z</time>
      </trkpt>
      <trkpt lat="51.00364" lon="2.63507">
        <ele>6.9</ele>
        <time>2020-06-23T14:12:21Z</time>
      </trkpt>
      <trkpt lat="51.00359" lon="2.63508">
        <ele>6.8</ele>
        <time>2020-06-23T14:12:22Z</time>
      </trkpt>
      <trkpt lat="51.00354" lon="2.6351">
        <ele>6.8</ele>
        <time>2020-06-23T14:12:23Z</time>
      </trkpt>
      <trkpt lat="51.00349" lon="2.63512">
        <ele>6.7</ele>
        <time>2020-06-23T14:12:24Z</time>
      </trkpt>
      <trkpt lat="51.00343" lon="2.63515">
        <ele>6.7</ele>
        <time>2020-06-23T14:12:25Z</time>
      </trkpt>
      <trkpt lat="51.00337" lon="2.63518">
        <ele>6.7</ele>
        <time>2020-06-23T14:12:26Z</time>
      </trkpt>
      <trkpt lat="51.00333" lon="2.63519">
        <ele>6.8</ele>
        <time>2020-06-23T14:12:27Z</time>
      </trkpt>
      <trkpt lat="51.00328" lon="2.63521">
        <ele>6.8</ele>
        <time>2020-06-23T14:12:28Z</time>
      </trkpt>
      <trkpt lat="51.00324" lon="2.63523">
        <ele>6.8</ele>
        <time>2020-06-23T14:12:29Z</time>
      </trkpt>
      <trkpt lat="51.0032" lon="2.63524">
        <ele>6.9</ele>
        <time>2020-06-23T14:12:30Z</time>
      </trkpt>
      <trkpt lat="51.00315" lon="2.63527">
        <ele>6.9</ele>
        <time>2020-06-23T14:12:31Z</time>
      </trkpt>
      <trkpt lat="51.00311" lon="2.63529">
        <ele>7</ele>
        <time>2020-06-23T14:12:32Z</time>
      </trkpt>
      <trkpt lat="51.00306" lon="2.63531">
        <ele>7.1</ele>
        <time>2020-06-23T14:12:33Z</time>
      </trkpt>
      <trkpt lat="51.00302" lon="2.63533">
        <ele>7.2</ele>
        <time>2020-06-23T14:12:34Z</time>
      </trkpt>
      <trkpt lat="51.00296" lon="2.63537">
        <ele>7.3</ele>
        <time>2020-06-23T14:12:35Z</time>
      </trkpt>
      <trkpt lat="51.00291" lon="2.63543">
        <ele>7.3</ele>
        <time>2020-06-23T14:12:36Z</time>
      </trkpt>
      <trkpt lat="51.00287" lon="2.63548">
        <ele>7.3</ele>
        <time>2020-06-23T14:12:37Z</time>
      </trkpt>
      <trkpt lat="51.00283" lon="2.63552">
        <ele>7.2</ele>
        <time>2020-06-23T14:12:38Z</time>
      </trkpt>
      <trkpt lat="51.0028" lon="2.63559">
        <ele>7.1</ele>
        <time>2020-06-23T14:12:39Z</time>
      </trkpt>
      <trkpt lat="51.00281" lon="2.63567">
        <ele>7.1</ele>
        <time>2020-06-23T14:12:40Z</time>
      </trkpt>
      <trkpt lat="51.00281" lon="2.63576">
        <ele>7.1</ele>
        <time>2020-06-23T14:12:41Z</time>
      </trkpt>
      <trkpt lat="51.00281" lon="2.63584">
        <ele>7.1</ele>
        <time>2020-06-23T14:12:42Z</time>
      </trkpt>
      <trkpt lat="51.00279" lon="2.63591">
        <ele>7</ele>
        <time>2020-06-23T14:12:43Z</time>
      </trkpt>
      <trkpt lat="51.00279" lon="2.63599">
        <ele>7</ele>
        <time>2020-06-23T14:12:44Z</time>
      </trkpt>
      <trkpt lat="51.00278" lon="2.63608">
        <ele>7</ele>
        <time>2020-06-23T14:12:45Z</time>
      </trkpt>
      <trkpt lat="51.00277" lon="2.63615">
        <ele>7</ele>
        <time>2020-06-23T14:12:46Z</time>
      </trkpt>
      <trkpt lat="51.00276" lon="2.63623">
        <ele>7</ele>
        <time>2020-06-23T14:12:47Z</time>
      </trkpt>
      <trkpt lat="51.00275" lon="2.63631">
        <ele>6.9</ele>
        <time>2020-06-23T14:12:48Z</time>
      </trkpt>
      <trkpt lat="51.00273" lon="2.63641">
        <ele>7</ele>
        <time>2020-06-23T14:12:49Z</time>
      </trkpt>
      <trkpt lat="51.00272" lon="2.63651">
        <ele>7</ele>
        <time>2020-06-23T14:12:50Z</time>
      </trkpt>
      <trkpt lat="51.00271" lon="2.63658">
        <ele>7</ele>
        <time>2020-06-23T14:12:51Z</time>
      </trkpt>
      <trkpt lat="51.00269" lon="2.63664">
        <ele>7</ele>
        <time>2020-06-23T14:12:52Z</time>
      </trkpt>
      <trkpt lat="51.00268" lon="2.63672">
        <ele>7</ele>
        <time>2020-06-23T14:12:53Z</time>
      </trkpt>
      <trkpt lat="51.00266" lon="2.6368">
        <ele>7</ele>
        <time>2020-06-23T14:12:54Z</time>
      </trkpt>
      <trkpt lat="51.00264" lon="2.63688">
        <ele>7</ele>
        <time>2020-06-23T14:12:55Z</time>
      </trkpt>
      <trkpt lat="51.00262" lon="2.63696">
        <ele>7</ele>
        <time>2020-06-23T14:12:56Z</time>
      </trkpt>
      <trkpt lat="51.0026" lon="2.63707">
        <ele>7</ele>
        <time>2020-06-23T14:12:57Z</time>
      </trkpt>
      <trkpt lat="51.00258" lon="2.63715">
        <ele>7</ele>
        <time>2020-06-23T14:12:58Z</time>
      </trkpt>
      <trkpt lat="51.00256" lon="2.63722">
        <ele>7</ele>
        <time>2020-06-23T14:12:59Z</time>
      </trkpt>
      <trkpt lat="51.00254" lon="2.6373">
        <ele>7.1</ele>
        <time>2020-06-23T14:13:00Z</time>
      </trkpt>
      <trkpt lat="51.00253" lon="2.63739">
        <ele>7.1</ele>
        <time>2020-06-23T14:13:01Z</time>
      </trkpt>
      <trkpt lat="51.0025" lon="2.63748">
        <ele>7.2</ele>
        <time>2020-06-23T14:13:02Z</time>
      </trkpt>
      <trkpt lat="51.00248" lon="2.63755">
        <ele>7.2</ele>
        <time>2020-06-23T14:13:03Z</time>
      </trkpt>
      <trkpt lat="51.00245" lon="2.63763">
        <ele>7.3</ele>
        <time>2020-06-23T14:13:04Z</time>
      </trkpt>
      <trkpt lat="51.00242" lon="2.63771">
        <ele>7.3</ele>
        <time>2020-06-23T14:13:05Z</time>
      </trkpt>
      <trkpt lat="51.0024" lon="2.63779">
        <ele>7.3</ele>
        <time>2020-06-23T14:13:06Z</time>
      </trkpt>
      <trkpt lat="51.00237" lon="2.63788">
        <ele>7.4</ele>
        <time>2020-06-23T14:13:07Z</time>
      </trkpt>
      <trkpt lat="51.00234" lon="2.63797">
        <ele>7.4</ele>
        <time>2020-06-23T14:13:08Z</time>
      </trkpt>
      <trkpt lat="51.00232" lon="2.63806">
        <ele>7.4</ele>
        <time>2020-06-23T14:13:09Z</time>
      </trkpt>
      <trkpt lat="51.0023" lon="2.63815">
        <ele>7.3</ele>
        <time>2020-06-23T14:13:10Z</time>
      </trkpt>
      <trkpt lat="51.00228" lon="2.63823">
        <ele>7.3</ele>
        <time>2020-06-23T14:13:11Z</time>
      </trkpt>
      <trkpt lat="51.00225" lon="2.63832">
        <ele>7.3</ele>
        <time>2020-06-23T14:13:12Z</time>
      </trkpt>
      <trkpt lat="51.00222" lon="2.63842">
        <ele>7.3</ele>
        <time>2020-06-23T14:13:13Z</time>
      </trkpt>
      <trkpt lat="51.0022" lon="2.63849">
        <ele>7.3</ele>
        <time>2020-06-23T14:13:14Z</time>
      </trkpt>
      <trkpt lat="51.00218" lon="2.63859">
        <ele>7.3</ele>
        <time>2020-06-23T14:13:15Z</time>
      </trkpt>
      <trkpt lat="51.00216" lon="2.63868">
        <ele>7.3</ele>
        <time>2020-06-23T14:13:16Z</time>
      </trkpt>
      <trkpt lat="51.00214" lon="2.63878">
        <ele>7.3</ele>
        <time>2020-06-23T14:13:17Z</time>
      </trkpt>
      <trkpt lat="51.00212" lon="2.63887">
        <ele>7.4</ele>
        <time>2020-06-23T14:13:18Z</time>
      </trkpt>
      <trkpt lat="51.0021" lon="2.63896">
        <ele>7.5</ele>
        <time>2020-06-23T14:13:19Z</time>
      </trkpt>
      <trkpt lat="51.00209" lon="2.63906">
        <ele>7.5</ele>
        <time>2020-06-23T14:13:20Z</time>
      </trkpt>
      <trkpt lat="51.00207" lon="2.63915">
        <ele>7.6</ele>
        <time>2020-06-23T14:13:21Z</time>
      </trkpt>
      <trkpt lat="51.00205" lon="2.63924">
        <ele>7.7</ele>
        <time>2020-06-23T14:13:22Z</time>
      </trkpt>
      <trkpt lat="51.00203" lon="2.63934">
        <ele>7.7</ele>
        <time>2020-06-23T14:13:23Z</time>
      </trkpt>
      <trkpt lat="51.00202" lon="2.63942">
        <ele>7.7</ele>
        <time>2020-06-23T14:13:24Z</time>
      </trkpt>
      <trkpt lat="51.00201" lon="2.63951">
        <ele>7.8</ele>
        <time>2020-06-23T14:13:25Z</time>
      </trkpt>
      <trkpt lat="51.00198" lon="2.6396">
        <ele>7.8</ele>
        <time>2020-06-23T14:13:26Z</time>
      </trkpt>
      <trkpt lat="51.00196" lon="2.63974">
        <ele>7.8</ele>
        <time>2020-06-23T14:13:27Z</time>
      </trkpt>
      <trkpt lat="51.00195" lon="2.63983">
        <ele>7.8</ele>
        <time>2020-06-23T14:13:28Z</time>
      </trkpt>
      <trkpt lat="51.00193" lon="2.63991">
        <ele>7.8</ele>
        <time>2020-06-23T14:13:29Z</time>
      </trkpt>
      <trkpt lat="51.00191" lon="2.63999">
        <ele>7.8</ele>
        <time>2020-06-23T14:13:30Z</time>
      </trkpt>
      <trkpt lat="51.0019" lon="2.64007">
        <ele>7.8</ele>
        <time>2020-06-23T14:13:31Z</time>
      </trkpt>
      <trkpt lat="51.00189" lon="2.64015">
        <ele>7.8</ele>
        <time>2020-06-23T14:13:32Z</time>
      </trkpt>
      <trkpt lat="51.00187" lon="2.64024">
        <ele>7.8</ele>
        <time>2020-06-23T14:13:33Z</time>
      </trkpt>
      <trkpt lat="51.00186" lon="2.64033">
        <ele>7.8</ele>
        <time>2020-06-23T14:13:34Z</time>
      </trkpt>
      <trkpt lat="51.00185" lon="2.6404">
        <ele>7.8</ele>
        <time>2020-06-23T14:13:35Z</time>
      </trkpt>
      <trkpt lat="51.00184" lon="2.64049">
        <ele>7.8</ele>
        <time>2020-06-23T14:13:36Z</time>
      </trkpt>
      <trkpt lat="51.00183" lon="2.64057">
        <ele>7.9</ele>
        <time>2020-06-23T14:13:37Z</time>
      </trkpt>
      <trkpt lat="51.00181" lon="2.64066">
        <ele>7.9</ele>
        <time>2020-06-23T14:13:38Z</time>
      </trkpt>
      <trkpt lat="51.0018" lon="2.64074">
        <ele>7.9</ele>
        <time>2020-06-23T14:13:39Z</time>
      </trkpt>
      <trkpt lat="51.00179" lon="2.64083">
        <ele>7.9</ele>
        <time>2020-06-23T14:13:40Z</time>
      </trkpt>
      <trkpt lat="51.00178" lon="2.64091">
        <ele>7.9</ele>
        <time>2020-06-23T14:13:41Z</time>
      </trkpt>
      <trkpt lat="51.00176" lon="2.641">
        <ele>7.9</ele>
        <time>2020-06-23T14:13:42Z</time>
      </trkpt>
      <trkpt lat="51.00175" lon="2.64109">
        <ele>7.9</ele>
        <time>2020-06-23T14:13:43Z</time>
      </trkpt>
      <trkpt lat="51.00173" lon="2.64118">
        <ele>8</ele>
        <time>2020-06-23T14:13:44Z</time>
      </trkpt>
      <trkpt lat="51.00171" lon="2.64127">
        <ele>8</ele>
        <time>2020-06-23T14:13:45Z</time>
      </trkpt>
      <trkpt lat="51.00169" lon="2.64136">
        <ele>8</ele>
        <time>2020-06-23T14:13:46Z</time>
      </trkpt>
      <trkpt lat="51.00168" lon="2.64146">
        <ele>8</ele>
        <time>2020-06-23T14:13:47Z</time>
      </trkpt>
      <trkpt lat="51.00166" lon="2.64153">
        <ele>8</ele>
        <time>2020-06-23T14:13:48Z</time>
      </trkpt>
      <trkpt lat="51.00165" lon="2.64163">
        <ele>8</ele>
        <time>2020-06-23T14:13:49Z</time>
      </trkpt>
      <trkpt lat="51.00163" lon="2.64172">
        <ele>8</ele>
        <time>2020-06-23T14:13:50Z</time>
      </trkpt>
      <trkpt lat="51.00162" lon="2.6418">
        <ele>8</ele>
        <time>2020-06-23T14:13:51Z</time>
      </trkpt>
      <trkpt lat="51.00161" lon="2.64188">
        <ele>8</ele>
        <time>2020-06-23T14:13:52Z</time>
      </trkpt>
      <trkpt lat="51.0016" lon="2.64196">
        <ele>8.1</ele>
        <time>2020-06-23T14:13:53Z</time>
      </trkpt>
      <trkpt lat="51.00159" lon="2.64206">
        <ele>8.1</ele>
        <time>2020-06-23T14:13:54Z</time>
      </trkpt>
      <trkpt lat="51.00159" lon="2.64215">
        <ele>8.1</ele>
        <time>2020-06-23T14:13:55Z</time>
      </trkpt>
      <trkpt lat="51.00158" lon="2.64223">
        <ele>8.1</ele>
        <time>2020-06-23T14:13:56Z</time>
      </trkpt>
      <trkpt lat="51.00156" lon="2.64233">
        <ele>8.1</ele>
        <time>2020-06-23T14:13:57Z</time>
      </trkpt>
      <trkpt lat="51.00155" lon="2.64241">
        <ele>8.2</ele>
        <time>2020-06-23T14:13:58Z</time>
      </trkpt>
      <trkpt lat="51.00153" lon="2.64249">
        <ele>8.2</ele>
        <time>2020-06-23T14:13:59Z</time>
      </trkpt>
      <trkpt lat="51.00151" lon="2.64258">
        <ele>8.2</ele>
        <time>2020-06-23T14:14:00Z</time>
      </trkpt>
      <trkpt lat="51.00149" lon="2.64266">
        <ele>8.2</ele>
        <time>2020-06-23T14:14:01Z</time>
      </trkpt>
      <trkpt lat="51.00146" lon="2.64274">
        <ele>8.3</ele>
        <time>2020-06-23T14:14:02Z</time>
      </trkpt>
      <trkpt lat="51.00143" lon="2.64283">
        <ele>8.4</ele>
        <time>2020-06-23T14:14:03Z</time>
      </trkpt>
      <trkpt lat="51.0014" lon="2.64293">
        <ele>8.4</ele>
        <time>2020-06-23T14:14:04Z</time>
      </trkpt>
      <trkpt lat="51.00138" lon="2.64302">
        <ele>8.4</ele>
        <time>2020-06-23T14:14:05Z</time>
      </trkpt>
      <trkpt lat="51.00136" lon="2.64311">
        <ele>8.4</ele>
        <time>2020-06-23T14:14:06Z</time>
      </trkpt>
      <trkpt lat="51.00134" lon="2.6432">
        <ele>8.4</ele>
        <time>2020-06-23T14:14:07Z</time>
      </trkpt>
      <trkpt lat="51.00133" lon="2.64326">
        <ele>8.4</ele>
        <time>2020-06-23T14:14:08Z</time>
      </trkpt>
      <trkpt lat="51.00131" lon="2.64334">
        <ele>8.4</ele>
        <time>2020-06-23T14:14:09Z</time>
      </trkpt>
      <trkpt lat="51.00129" lon="2.64343">
        <ele>8.4</ele>
        <time>2020-06-23T14:14:10Z</time>
      </trkpt>
      <trkpt lat="51.00127" lon="2.64351">
        <ele>8.4</ele>
        <time>2020-06-23T14:14:11Z</time>
      </trkpt>
      <trkpt lat="51.00124" lon="2.64361">
        <ele>8.4</ele>
        <time>2020-06-23T14:14:12Z</time>
      </trkpt>
      <trkpt lat="51.00122" lon="2.6437">
        <ele>8.4</ele>
        <time>2020-06-23T14:14:13Z</time>
      </trkpt>
      <trkpt lat="51.00119" lon="2.64377">
        <ele>8.4</ele>
        <time>2020-06-23T14:14:14Z</time>
      </trkpt>
      <trkpt lat="51.00117" lon="2.64385">
        <ele>8.3</ele>
        <time>2020-06-23T14:14:15Z</time>
      </trkpt>
      <trkpt lat="51.00116" lon="2.64393">
        <ele>8.3</ele>
        <time>2020-06-23T14:14:16Z</time>
      </trkpt>
      <trkpt lat="51.00114" lon="2.64401">
        <ele>8.3</ele>
        <time>2020-06-23T14:14:17Z</time>
      </trkpt>
      <trkpt lat="51.00111" lon="2.6441">
        <ele>8.3</ele>
        <time>2020-06-23T14:14:18Z</time>
      </trkpt>
      <trkpt lat="51.00109" lon="2.6442">
        <ele>8.3</ele>
        <time>2020-06-23T14:14:19Z</time>
      </trkpt>
      <trkpt lat="51.00106" lon="2.6443">
        <ele>8.3</ele>
        <time>2020-06-23T14:14:20Z</time>
      </trkpt>
      <trkpt lat="51.00104" lon="2.6444">
        <ele>8.3</ele>
        <time>2020-06-23T14:14:21Z</time>
      </trkpt>
      <trkpt lat="51.00102" lon="2.64447">
        <ele>8.3</ele>
        <time>2020-06-23T14:14:22Z</time>
      </trkpt>
      <trkpt lat="51.00099" lon="2.64456">
        <ele>8.2</ele>
        <time>2020-06-23T14:14:23Z</time>
      </trkpt>
      <trkpt lat="51.00096" lon="2.64464">
        <ele>8.2</ele>
        <time>2020-06-23T14:14:24Z</time>
      </trkpt>
      <trkpt lat="51.00094" lon="2.64476">
        <ele>8.2</ele>
        <time>2020-06-23T14:14:25Z</time>
      </trkpt>
      <trkpt lat="51.00091" lon="2.64484">
        <ele>8.2</ele>
        <time>2020-06-23T14:14:26Z</time>
      </trkpt>
      <trkpt lat="51.00089" lon="2.64493">
        <ele>8.2</ele>
        <time>2020-06-23T14:14:27Z</time>
      </trkpt>
      <trkpt lat="51.00087" lon="2.64502">
        <ele>8.2</ele>
        <time>2020-06-23T14:14:28Z</time>
      </trkpt>
      <trkpt lat="51.00084" lon="2.64511">
        <ele>8.2</ele>
        <time>2020-06-23T14:14:29Z</time>
      </trkpt>
      <trkpt lat="51.00081" lon="2.64521">
        <ele>8.2</ele>
        <time>2020-06-23T14:14:30Z</time>
      </trkpt>
      <trkpt lat="51.00079" lon="2.64529">
        <ele>8.2</ele>
        <time>2020-06-23T14:14:31Z</time>
      </trkpt>
      <trkpt lat="51.00076" lon="2.64538">
        <ele>8.2</ele>
        <time>2020-06-23T14:14:32Z</time>
      </trkpt>
      <trkpt lat="51.00074" lon="2.64548">
        <ele>8.2</ele>
        <time>2020-06-23T14:14:33Z</time>
      </trkpt>
      <trkpt lat="51.00071" lon="2.64558">
        <ele>8.2</ele>
        <time>2020-06-23T14:14:34Z</time>
      </trkpt>
      <trkpt lat="51.00069" lon="2.64566">
        <ele>8.2</ele>
        <time>2020-06-23T14:14:35Z</time>
      </trkpt>
      <trkpt lat="51.00066" lon="2.64575">
        <ele>8.2</ele>
        <time>2020-06-23T14:14:36Z</time>
      </trkpt>
      <trkpt lat="51.00064" lon="2.64585">
        <ele>8.3</ele>
        <time>2020-06-23T14:14:37Z</time>
      </trkpt>
      <trkpt lat="51.00062" lon="2.64594">
        <ele>8.2</ele>
        <time>2020-06-23T14:14:38Z</time>
      </trkpt>
      <trkpt lat="51.00061" lon="2.64603">
        <ele>8.2</ele>
        <time>2020-06-23T14:14:39Z</time>
      </trkpt>
      <trkpt lat="51.00059" lon="2.64611">
        <ele>8.1</ele>
        <time>2020-06-23T14:14:40Z</time>
      </trkpt>
      <trkpt lat="51.00058" lon="2.6462">
        <ele>8.1</ele>
        <time>2020-06-23T14:14:41Z</time>
      </trkpt>
      <trkpt lat="51.00055" lon="2.64629">
        <ele>8</ele>
        <time>2020-06-23T14:14:42Z</time>
      </trkpt>
      <trkpt lat="51.00052" lon="2.64639">
        <ele>8</ele>
        <time>2020-06-23T14:14:43Z</time>
      </trkpt>
      <trkpt lat="51.0005" lon="2.64647">
        <ele>8</ele>
        <time>2020-06-23T14:14:44Z</time>
      </trkpt>
      <trkpt lat="51.00048" lon="2.64655">
        <ele>8</ele>
        <time>2020-06-23T14:14:45Z</time>
      </trkpt>
      <trkpt lat="51.00046" lon="2.64665">
        <ele>8.1</ele>
        <time>2020-06-23T14:14:46Z</time>
      </trkpt>
      <trkpt lat="51.00044" lon="2.64675">
        <ele>8.1</ele>
        <time>2020-06-23T14:14:47Z</time>
      </trkpt>
      <trkpt lat="51.00042" lon="2.64684">
        <ele>8.1</ele>
        <time>2020-06-23T14:14:48Z</time>
      </trkpt>
      <trkpt lat="51.00041" lon="2.64693">
        <ele>8.1</ele>
        <time>2020-06-23T14:14:49Z</time>
      </trkpt>
      <trkpt lat="51.0004" lon="2.64704">
        <ele>8.2</ele>
        <time>2020-06-23T14:14:50Z</time>
      </trkpt>
      <trkpt lat="51.0004" lon="2.64714">
        <ele>8.2</ele>
        <time>2020-06-23T14:14:51Z</time>
      </trkpt>
      <trkpt lat="51.0004" lon="2.64724">
        <ele>8.2</ele>
        <time>2020-06-23T14:14:52Z</time>
      </trkpt>
      <trkpt lat="51.00039" lon="2.64734">
        <ele>8.2</ele>
        <time>2020-06-23T14:14:53Z</time>
      </trkpt>
      <trkpt lat="51.00039" lon="2.64745">
        <ele>8.1</ele>
        <time>2020-06-23T14:14:54Z</time>
      </trkpt>
      <trkpt lat="51.00038" lon="2.64756">
        <ele>8.1</ele>
        <time>2020-06-23T14:14:55Z</time>
      </trkpt>
      <trkpt lat="51.00037" lon="2.64766">
        <ele>8.1</ele>
        <time>2020-06-23T14:14:56Z</time>
      </trkpt>
      <trkpt lat="51.00036" lon="2.64775">
        <ele>8.1</ele>
        <time>2020-06-23T14:14:57Z</time>
      </trkpt>
      <trkpt lat="51.00034" lon="2.64784">
        <ele>8.1</ele>
        <time>2020-06-23T14:14:58Z</time>
      </trkpt>
      <trkpt lat="51.00032" lon="2.64792">
        <ele>8.1</ele>
        <time>2020-06-23T14:14:59Z</time>
      </trkpt>
      <trkpt lat="51.0003" lon="2.64801">
        <ele>8.1</ele>
        <time>2020-06-23T14:15:00Z</time>
      </trkpt>
      <trkpt lat="51.00027" lon="2.6481">
        <ele>8.2</ele>
        <time>2020-06-23T14:15:01Z</time>
      </trkpt>
      <trkpt lat="51.00024" lon="2.64819">
        <ele>8.3</ele>
        <time>2020-06-23T14:15:02Z</time>
      </trkpt>
      <trkpt lat="51.00021" lon="2.64828">
        <ele>8.3</ele>
        <time>2020-06-23T14:15:03Z</time>
      </trkpt>
      <trkpt lat="51.00018" lon="2.64837">
        <ele>8.5</ele>
        <time>2020-06-23T14:15:04Z</time>
      </trkpt>
      <trkpt lat="51.00016" lon="2.64845">
        <ele>8.6</ele>
        <time>2020-06-23T14:15:05Z</time>
      </trkpt>
      <trkpt lat="51.00014" lon="2.64854">
        <ele>8.8</ele>
        <time>2020-06-23T14:15:06Z</time>
      </trkpt>
      <trkpt lat="51.00012" lon="2.64863">
        <ele>9</ele>
        <time>2020-06-23T14:15:07Z</time>
      </trkpt>
      <trkpt lat="51.00009" lon="2.64872">
        <ele>9</ele>
        <time>2020-06-23T14:15:08Z</time>
      </trkpt>
      <trkpt lat="51.00008" lon="2.64882">
        <ele>9.1</ele>
        <time>2020-06-23T14:15:09Z</time>
      </trkpt>
      <trkpt lat="51.00005" lon="2.64892">
        <ele>9.1</ele>
        <time>2020-06-23T14:15:10Z</time>
      </trkpt>
      <trkpt lat="51.00002" lon="2.649">
        <ele>9.1</ele>
        <time>2020-06-23T14:15:11Z</time>
      </trkpt>
      <trkpt lat="51" lon="2.64908">
        <ele>9.1</ele>
        <time>2020-06-23T14:15:12Z</time>
      </trkpt>
      <trkpt lat="50.99997" lon="2.64917">
        <ele>9.1</ele>
        <time>2020-06-23T14:15:13Z</time>
      </trkpt>
      <trkpt lat="50.99994" lon="2.64926">
        <ele>9.1</ele>
        <time>2020-06-23T14:15:14Z</time>
      </trkpt>
      <trkpt lat="50.99992" lon="2.64936">
        <ele>9</ele>
        <time>2020-06-23T14:15:15Z</time>
      </trkpt>
      <trkpt lat="50.99989" lon="2.64946">
        <ele>9</ele>
        <time>2020-06-23T14:15:16Z</time>
      </trkpt>
      <trkpt lat="50.99987" lon="2.64955">
        <ele>9</ele>
        <time>2020-06-23T14:15:17Z</time>
      </trkpt>
      <trkpt lat="50.99984" lon="2.64965">
        <ele>8.9</ele>
        <time>2020-06-23T14:15:18Z</time>
      </trkpt>
      <trkpt lat="50.99982" lon="2.64973">
        <ele>8.9</ele>
        <time>2020-06-23T14:15:19Z</time>
      </trkpt>
      <trkpt lat="50.99979" lon="2.64983">
        <ele>8.9</ele>
        <time>2020-06-23T14:15:20Z</time>
      </trkpt>
      <trkpt lat="50.99977" lon="2.64992">
        <ele>8.8</ele>
        <time>2020-06-23T14:15:21Z</time>
      </trkpt>
      <trkpt lat="50.99975" lon="2.65002">
        <ele>8.7</ele>
        <time>2020-06-23T14:15:22Z</time>
      </trkpt>
      <trkpt lat="50.99973" lon="2.65011">
        <ele>8.7</ele>
        <time>2020-06-23T14:15:23Z</time>
      </trkpt>
      <trkpt lat="50.9997" lon="2.65022">
        <ele>8.6</ele>
        <time>2020-06-23T14:15:24Z</time>
      </trkpt>
      <trkpt lat="50.99968" lon="2.65032">
        <ele>8.5</ele>
        <time>2020-06-23T14:15:25Z</time>
      </trkpt>
      <trkpt lat="50.99967" lon="2.65042">
        <ele>8.5</ele>
        <time>2020-06-23T14:15:26Z</time>
      </trkpt>
      <trkpt lat="50.99965" lon="2.65052">
        <ele>8.4</ele>
        <time>2020-06-23T14:15:27Z</time>
      </trkpt>
      <trkpt lat="50.99962" lon="2.65062">
        <ele>8.4</ele>
        <time>2020-06-23T14:15:28Z</time>
      </trkpt>
      <trkpt lat="50.9996" lon="2.65072">
        <ele>8.3</ele>
        <time>2020-06-23T14:15:29Z</time>
      </trkpt>
      <trkpt lat="50.99959" lon="2.65082">
        <ele>8.3</ele>
        <time>2020-06-23T14:15:30Z</time>
      </trkpt>
      <trkpt lat="50.99957" lon="2.65092">
        <ele>8.3</ele>
        <time>2020-06-23T14:15:31Z</time>
      </trkpt>
      <trkpt lat="50.99955" lon="2.65103">
        <ele>8.3</ele>
        <time>2020-06-23T14:15:32Z</time>
      </trkpt>
      <trkpt lat="50.99953" lon="2.65113">
        <ele>8.3</ele>
        <time>2020-06-23T14:15:33Z</time>
      </trkpt>
      <trkpt lat="50.99951" lon="2.65123">
        <ele>8.2</ele>
        <time>2020-06-23T14:15:34Z</time>
      </trkpt>
      <trkpt lat="50.99949" lon="2.65133">
        <ele>8.2</ele>
        <time>2020-06-23T14:15:35Z</time>
      </trkpt>
      <trkpt lat="50.99947" lon="2.65143">
        <ele>8.2</ele>
        <time>2020-06-23T14:15:36Z</time>
      </trkpt>
      <trkpt lat="50.99944" lon="2.65153">
        <ele>8.1</ele>
        <time>2020-06-23T14:15:37Z</time>
      </trkpt>
      <trkpt lat="50.99942" lon="2.65163">
        <ele>8.1</ele>
        <time>2020-06-23T14:15:38Z</time>
      </trkpt>
      <trkpt lat="50.9994" lon="2.65173">
        <ele>8.1</ele>
        <time>2020-06-23T14:15:39Z</time>
      </trkpt>
      <trkpt lat="50.99938" lon="2.65183">
        <ele>8</ele>
        <time>2020-06-23T14:15:40Z</time>
      </trkpt>
      <trkpt lat="50.99935" lon="2.65193">
        <ele>8</ele>
        <time>2020-06-23T14:15:41Z</time>
      </trkpt>
      <trkpt lat="50.99934" lon="2.65203">
        <ele>7.9</ele>
        <time>2020-06-23T14:15:42Z</time>
      </trkpt>
      <trkpt lat="50.99932" lon="2.65213">
        <ele>7.9</ele>
        <time>2020-06-23T14:15:43Z</time>
      </trkpt>
      <trkpt lat="50.9993" lon="2.65223">
        <ele>7.9</ele>
        <time>2020-06-23T14:15:44Z</time>
      </trkpt>
      <trkpt lat="50.99928" lon="2.65233">
        <ele>7.9</ele>
        <time>2020-06-23T14:15:45Z</time>
      </trkpt>
      <trkpt lat="50.99926" lon="2.65244">
        <ele>7.8</ele>
        <time>2020-06-23T14:15:46Z</time>
      </trkpt>
      <trkpt lat="50.99924" lon="2.65254">
        <ele>7.8</ele>
        <time>2020-06-23T14:15:47Z</time>
      </trkpt>
      <trkpt lat="50.99922" lon="2.65264">
        <ele>7.8</ele>
        <time>2020-06-23T14:15:48Z</time>
      </trkpt>
      <trkpt lat="50.9992" lon="2.65274">
        <ele>7.7</ele>
        <time>2020-06-23T14:15:49Z</time>
      </trkpt>
      <trkpt lat="50.99918" lon="2.65284">
        <ele>7.7</ele>
        <time>2020-06-23T14:15:50Z</time>
      </trkpt>
      <trkpt lat="50.99915" lon="2.65293">
        <ele>7.7</ele>
        <time>2020-06-23T14:15:51Z</time>
      </trkpt>
      <trkpt lat="50.99913" lon="2.65302">
        <ele>7.6</ele>
        <time>2020-06-23T14:15:52Z</time>
      </trkpt>
      <trkpt lat="50.99911" lon="2.65311">
        <ele>7.6</ele>
        <time>2020-06-23T14:15:53Z</time>
      </trkpt>
      <trkpt lat="50.99908" lon="2.6532">
        <ele>7.6</ele>
        <time>2020-06-23T14:15:54Z</time>
      </trkpt>
      <trkpt lat="50.99905" lon="2.65329">
        <ele>7.6</ele>
        <time>2020-06-23T14:15:55Z</time>
      </trkpt>
      <trkpt lat="50.99902" lon="2.65338">
        <ele>7.6</ele>
        <time>2020-06-23T14:15:56Z</time>
      </trkpt>
      <trkpt lat="50.99899" lon="2.65346">
        <ele>7.6</ele>
        <time>2020-06-23T14:15:57Z</time>
      </trkpt>
      <trkpt lat="50.99896" lon="2.65355">
        <ele>7.6</ele>
        <time>2020-06-23T14:15:58Z</time>
      </trkpt>
      <trkpt lat="50.99893" lon="2.65363">
        <ele>7.6</ele>
        <time>2020-06-23T14:15:59Z</time>
      </trkpt>
      <trkpt lat="50.99891" lon="2.65372">
        <ele>7.6</ele>
        <time>2020-06-23T14:16:00Z</time>
      </trkpt>
      <trkpt lat="50.99888" lon="2.65381">
        <ele>7.6</ele>
        <time>2020-06-23T14:16:01Z</time>
      </trkpt>
      <trkpt lat="50.99885" lon="2.6539">
        <ele>7.5</ele>
        <time>2020-06-23T14:16:02Z</time>
      </trkpt>
      <trkpt lat="50.99883" lon="2.65399">
        <ele>7.5</ele>
        <time>2020-06-23T14:16:03Z</time>
      </trkpt>
      <trkpt lat="50.9988" lon="2.65408">
        <ele>7.5</ele>
        <time>2020-06-23T14:16:04Z</time>
      </trkpt>
      <trkpt lat="50.99877" lon="2.65417">
        <ele>7.5</ele>
        <time>2020-06-23T14:16:05Z</time>
      </trkpt>
      <trkpt lat="50.99875" lon="2.65426">
        <ele>7.5</ele>
        <time>2020-06-23T14:16:06Z</time>
      </trkpt>
      <trkpt lat="50.99872" lon="2.65435">
        <ele>7.5</ele>
        <time>2020-06-23T14:16:07Z</time>
      </trkpt>
      <trkpt lat="50.99869" lon="2.65444">
        <ele>7.5</ele>
        <time>2020-06-23T14:16:08Z</time>
      </trkpt>
      <trkpt lat="50.99866" lon="2.65453">
        <ele>7.5</ele>
        <time>2020-06-23T14:16:09Z</time>
      </trkpt>
      <trkpt lat="50.99864" lon="2.65464">
        <ele>7.5</ele>
        <time>2020-06-23T14:16:10Z</time>
      </trkpt>
      <trkpt lat="50.99862" lon="2.65472">
        <ele>7.5</ele>
        <time>2020-06-23T14:16:11Z</time>
      </trkpt>
      <trkpt lat="50.99859" lon="2.65481">
        <ele>7.5</ele>
        <time>2020-06-23T14:16:12Z</time>
      </trkpt>
      <trkpt lat="50.99857" lon="2.65491">
        <ele>7.5</ele>
        <time>2020-06-23T14:16:13Z</time>
      </trkpt>
      <trkpt lat="50.99855" lon="2.65501">
        <ele>7.4</ele>
        <time>2020-06-23T14:16:14Z</time>
      </trkpt>
      <trkpt lat="50.99853" lon="2.65509">
        <ele>7.4</ele>
        <time>2020-06-23T14:16:15Z</time>
      </trkpt>
      <trkpt lat="50.99851" lon="2.65519">
        <ele>7.4</ele>
        <time>2020-06-23T14:16:16Z</time>
      </trkpt>
      <trkpt lat="50.99849" lon="2.65529">
        <ele>7.4</ele>
        <time>2020-06-23T14:16:17Z</time>
      </trkpt>
      <trkpt lat="50.99846" lon="2.65539">
        <ele>7.5</ele>
        <time>2020-06-23T14:16:18Z</time>
      </trkpt>
      <trkpt lat="50.99845" lon="2.65549">
        <ele>7.4</ele>
        <time>2020-06-23T14:16:19Z</time>
      </trkpt>
      <trkpt lat="50.99842" lon="2.65559">
        <ele>7.4</ele>
        <time>2020-06-23T14:16:20Z</time>
      </trkpt>
      <trkpt lat="50.9984" lon="2.6557">
        <ele>7.4</ele>
        <time>2020-06-23T14:16:21Z</time>
      </trkpt>
      <trkpt lat="50.99838" lon="2.6558">
        <ele>7.3</ele>
        <time>2020-06-23T14:16:22Z</time>
      </trkpt>
      <trkpt lat="50.99835" lon="2.6559">
        <ele>7.3</ele>
        <time>2020-06-23T14:16:23Z</time>
      </trkpt>
      <trkpt lat="50.99832" lon="2.656">
        <ele>7.3</ele>
        <time>2020-06-23T14:16:24Z</time>
      </trkpt>
      <trkpt lat="50.9983" lon="2.65611">
        <ele>7.3</ele>
        <time>2020-06-23T14:16:25Z</time>
      </trkpt>
      <trkpt lat="50.99828" lon="2.6562">
        <ele>7.3</ele>
        <time>2020-06-23T14:16:26Z</time>
      </trkpt>
      <trkpt lat="50.99827" lon="2.65632">
        <ele>7.4</ele>
        <time>2020-06-23T14:16:27Z</time>
      </trkpt>
      <trkpt lat="50.99825" lon="2.65642">
        <ele>7.4</ele>
        <time>2020-06-23T14:16:28Z</time>
      </trkpt>
      <trkpt lat="50.99822" lon="2.65651">
        <ele>7.5</ele>
        <time>2020-06-23T14:16:29Z</time>
      </trkpt>
      <trkpt lat="50.9982" lon="2.65661">
        <ele>7.6</ele>
        <time>2020-06-23T14:16:30Z</time>
      </trkpt>
      <trkpt lat="50.99817" lon="2.65671">
        <ele>7.7</ele>
        <time>2020-06-23T14:16:31Z</time>
      </trkpt>
      <trkpt lat="50.99815" lon="2.6568">
        <ele>7.8</ele>
        <time>2020-06-23T14:16:32Z</time>
      </trkpt>
      <trkpt lat="50.99814" lon="2.65688">
        <ele>7.8</ele>
        <time>2020-06-23T14:16:33Z</time>
      </trkpt>
      <trkpt lat="50.99812" lon="2.65697">
        <ele>7.8</ele>
        <time>2020-06-23T14:16:34Z</time>
      </trkpt>
      <trkpt lat="50.9981" lon="2.65704">
        <ele>7.8</ele>
        <time>2020-06-23T14:16:35Z</time>
      </trkpt>
      <trkpt lat="50.9981" lon="2.6571">
        <ele>8.1</ele>
        <time>2020-06-23T14:16:36Z</time>
      </trkpt>
      <trkpt lat="50.99806" lon="2.65718">
        <ele>7.9</ele>
        <time>2020-06-23T14:16:37Z</time>
      </trkpt>
      <trkpt lat="50.99804" lon="2.65726">
        <ele>7.7</ele>
        <time>2020-06-23T14:16:38Z</time>
      </trkpt>
      <trkpt lat="50.99802" lon="2.65733">
        <ele>7.6</ele>
        <time>2020-06-23T14:16:39Z</time>
      </trkpt>
      <trkpt lat="50.99801" lon="2.65741">
        <ele>7.5</ele>
        <time>2020-06-23T14:16:40Z</time>
      </trkpt>
      <trkpt lat="50.998" lon="2.6575">
        <ele>7.3</ele>
        <time>2020-06-23T14:16:41Z</time>
      </trkpt>
      <trkpt lat="50.99799" lon="2.65758">
        <ele>7.2</ele>
        <time>2020-06-23T14:16:42Z</time>
      </trkpt>
      <trkpt lat="50.99798" lon="2.65767">
        <ele>7.1</ele>
        <time>2020-06-23T14:16:43Z</time>
      </trkpt>
      <trkpt lat="50.99796" lon="2.65776">
        <ele>7</ele>
        <time>2020-06-23T14:16:44Z</time>
      </trkpt>
      <trkpt lat="50.99795" lon="2.65785">
        <ele>6.9</ele>
        <time>2020-06-23T14:16:45Z</time>
      </trkpt>
      <trkpt lat="50.99793" lon="2.65793">
        <ele>6.8</ele>
        <time>2020-06-23T14:16:46Z</time>
      </trkpt>
      <trkpt lat="50.99792" lon="2.65804">
        <ele>6.7</ele>
        <time>2020-06-23T14:16:47Z</time>
      </trkpt>
      <trkpt lat="50.99791" lon="2.65814">
        <ele>6.6</ele>
        <time>2020-06-23T14:16:48Z</time>
      </trkpt>
      <trkpt lat="50.99789" lon="2.65823">
        <ele>6.6</ele>
        <time>2020-06-23T14:16:49Z</time>
      </trkpt>
      <trkpt lat="50.99788" lon="2.65831">
        <ele>6.6</ele>
        <time>2020-06-23T14:16:50Z</time>
      </trkpt>
      <trkpt lat="50.99786" lon="2.65841">
        <ele>6.5</ele>
        <time>2020-06-23T14:16:51Z</time>
      </trkpt>
      <trkpt lat="50.99785" lon="2.65849">
        <ele>6.5</ele>
        <time>2020-06-23T14:16:52Z</time>
      </trkpt>
      <trkpt lat="50.99783" lon="2.65857">
        <ele>6.4</ele>
        <time>2020-06-23T14:16:53Z</time>
      </trkpt>
      <trkpt lat="50.99782" lon="2.65866">
        <ele>6.4</ele>
        <time>2020-06-23T14:16:54Z</time>
      </trkpt>
      <trkpt lat="50.99781" lon="2.65875">
        <ele>6.3</ele>
        <time>2020-06-23T14:16:55Z</time>
      </trkpt>
      <trkpt lat="50.9978" lon="2.65884">
        <ele>6.3</ele>
        <time>2020-06-23T14:16:56Z</time>
      </trkpt>
      <trkpt lat="50.99779" lon="2.65893">
        <ele>6.3</ele>
        <time>2020-06-23T14:16:57Z</time>
      </trkpt>
      <trkpt lat="50.99778" lon="2.65901">
        <ele>6.3</ele>
        <time>2020-06-23T14:16:58Z</time>
      </trkpt>
      <trkpt lat="50.99776" lon="2.65908">
        <ele>6.3</ele>
        <time>2020-06-23T14:16:59Z</time>
      </trkpt>
      <trkpt lat="50.99774" lon="2.65914">
        <ele>6.4</ele>
        <time>2020-06-23T14:17:00Z</time>
      </trkpt>
      <trkpt lat="50.99773" lon="2.6592">
        <ele>6.4</ele>
        <time>2020-06-23T14:17:01Z</time>
      </trkpt>
      <trkpt lat="50.99772" lon="2.65928">
        <ele>6.5</ele>
        <time>2020-06-23T14:17:02Z</time>
      </trkpt>
      <trkpt lat="50.99771" lon="2.65935">
        <ele>6.5</ele>
        <time>2020-06-23T14:17:03Z</time>
      </trkpt>
      <trkpt lat="50.9977" lon="2.65942">
        <ele>6.6</ele>
        <time>2020-06-23T14:17:04Z</time>
      </trkpt>
      <trkpt lat="50.99768" lon="2.65946">
        <ele>6.6</ele>
        <time>2020-06-23T14:17:05Z</time>
      </trkpt>
      <trkpt lat="50.99766" lon="2.65948">
        <ele>6.6</ele>
        <time>2020-06-23T14:17:06Z</time>
      </trkpt>
      <trkpt lat="50.99765" lon="2.65948">
        <ele>6.6</ele>
        <time>2020-06-23T14:17:07Z</time>
      </trkpt>
      <trkpt lat="50.99766" lon="2.65947">
        <ele>6.6</ele>
        <time>2020-06-23T14:17:08Z</time>
      </trkpt>
      <trkpt lat="50.99766" lon="2.65946">
        <ele>6.6</ele>
        <time>2020-06-23T14:17:09Z</time>
      </trkpt>
      <trkpt lat="50.99766" lon="2.65947">
        <ele>6.6</ele>
        <time>2020-06-23T14:17:10Z</time>
      </trkpt>
      <trkpt lat="50.99766" lon="2.65947">
        <ele>6.6</ele>
        <time>2020-06-23T14:17:11Z</time>
      </trkpt>
      <trkpt lat="50.99766" lon="2.65947">
        <ele>6.6</ele>
        <time>2020-06-23T14:17:12Z</time>
      </trkpt>
      <trkpt lat="50.99766" lon="2.65947">
        <ele>6.6</ele>
        <time>2020-06-23T14:17:13Z</time>
      </trkpt>
      <trkpt lat="50.99766" lon="2.65948">
        <ele>6.6</ele>
        <time>2020-06-23T14:17:14Z</time>
      </trkpt>
      <trkpt lat="50.99766" lon="2.65948">
        <ele>6.6</ele>
        <time>2020-06-23T14:17:15Z</time>
      </trkpt>
      <trkpt lat="50.99766" lon="2.65948">
        <ele>6.6</ele>
        <time>2020-06-23T14:17:16Z</time>
      </trkpt>
      <trkpt lat="50.99766" lon="2.65949">
        <ele>6.6</ele>
        <time>2020-06-23T14:17:17Z</time>
      </trkpt>
      <trkpt lat="50.99765" lon="2.6595">
        <ele>6.6</ele>
        <time>2020-06-23T14:17:18Z</time>
      </trkpt>
      <trkpt lat="50.99763" lon="2.65953">
        <ele>6.6</ele>
        <time>2020-06-23T14:17:24Z</time>
      </trkpt>
      <trkpt lat="50.99762" lon="2.65956">
        <ele>6.6</ele>
        <time>2020-06-23T14:17:25Z</time>
      </trkpt>
      <trkpt lat="50.99761" lon="2.65961">
        <ele>6.6</ele>
        <time>2020-06-23T14:17:26Z</time>
      </trkpt>
      <trkpt lat="50.99762" lon="2.65967">
        <ele>6.6</ele>
        <time>2020-06-23T14:17:27Z</time>
      </trkpt>
      <trkpt lat="50.99763" lon="2.65973">
        <ele>6.5</ele>
        <time>2020-06-23T14:17:28Z</time>
      </trkpt>
      <trkpt lat="50.99765" lon="2.6598">
        <ele>6.5</ele>
        <time>2020-06-23T14:17:29Z</time>
      </trkpt>
      <trkpt lat="50.99766" lon="2.65987">
        <ele>6.5</ele>
        <time>2020-06-23T14:17:30Z</time>
      </trkpt>
      <trkpt lat="50.99766" lon="2.65993">
        <ele>6.5</ele>
        <time>2020-06-23T14:17:31Z</time>
      </trkpt>
      <trkpt lat="50.99767" lon="2.65998">
        <ele>6.5</ele>
        <time>2020-06-23T14:17:32Z</time>
      </trkpt>
      <trkpt lat="50.99768" lon="2.66005">
        <ele>6.5</ele>
        <time>2020-06-23T14:17:33Z</time>
      </trkpt>
      <trkpt lat="50.99767" lon="2.6601">
        <ele>6.5</ele>
        <time>2020-06-23T14:17:34Z</time>
      </trkpt>
      <trkpt lat="50.99766" lon="2.66015">
        <ele>6.5</ele>
        <time>2020-06-23T14:17:35Z</time>
      </trkpt>
      <trkpt lat="50.99766" lon="2.66022">
        <ele>6.5</ele>
        <time>2020-06-23T14:17:36Z</time>
      </trkpt>
      <trkpt lat="50.99766" lon="2.66027">
        <ele>6.5</ele>
        <time>2020-06-23T14:17:37Z</time>
      </trkpt>
      <trkpt lat="50.99766" lon="2.66032">
        <ele>6.5</ele>
        <time>2020-06-23T14:17:38Z</time>
      </trkpt>
      <trkpt lat="50.99765" lon="2.66037">
        <ele>6.5</ele>
        <time>2020-06-23T14:17:39Z</time>
      </trkpt>
      <trkpt lat="50.99764" lon="2.66041">
        <ele>6.4</ele>
        <time>2020-06-23T14:17:40Z</time>
      </trkpt>
      <trkpt lat="50.99763" lon="2.66045">
        <ele>6.4</ele>
        <time>2020-06-23T14:17:41Z</time>
      </trkpt>
      <trkpt lat="50.99763" lon="2.66046">
        <ele>6.4</ele>
        <time>2020-06-23T14:17:42Z</time>
      </trkpt>
      <trkpt lat="50.99762" lon="2.66046">
        <ele>6.4</ele>
        <time>2020-06-23T14:17:43Z</time>
      </trkpt>
      <trkpt lat="50.99761" lon="2.66047">
        <ele>6.4</ele>
        <time>2020-06-23T14:17:44Z</time>
      </trkpt>
      <trkpt lat="50.99761" lon="2.66046">
        <ele>6.4</ele>
        <time>2020-06-23T14:17:45Z</time>
      </trkpt>
      <trkpt lat="50.99761" lon="2.66046">
        <ele>6.4</ele>
        <time>2020-06-23T14:17:46Z</time>
      </trkpt>
      <trkpt lat="50.9976" lon="2.66046">
        <ele>6.4</ele>
        <time>2020-06-23T14:17:47Z</time>
      </trkpt>
      <trkpt lat="50.99759" lon="2.66047">
        <ele>6.4</ele>
        <time>2020-06-23T14:17:48Z</time>
      </trkpt>
      <trkpt lat="50.99759" lon="2.66048">
        <ele>6.4</ele>
        <time>2020-06-23T14:17:49Z</time>
      </trkpt>
      <trkpt lat="50.99758" lon="2.66049">
        <ele>6.4</ele>
        <time>2020-06-23T14:17:50Z</time>
      </trkpt>
      <trkpt lat="50.99758" lon="2.6605">
        <ele>6.4</ele>
        <time>2020-06-23T14:17:51Z</time>
      </trkpt>
      <trkpt lat="50.99758" lon="2.66051">
        <ele>6.4</ele>
        <time>2020-06-23T14:17:52Z</time>
      </trkpt>
      <trkpt lat="50.99757" lon="2.66052">
        <ele>6.4</ele>
        <time>2020-06-23T14:17:57Z</time>
      </trkpt>
      <trkpt lat="50.99757" lon="2.66053">
        <ele>6.4</ele>
        <time>2020-06-23T14:17:58Z</time>
      </trkpt>
      <trkpt lat="50.99756" lon="2.66054">
        <ele>6.4</ele>
        <time>2020-06-23T14:17:59Z</time>
      </trkpt>
      <trkpt lat="50.99755" lon="2.66059">
        <ele>6.4</ele>
        <time>2020-06-23T14:18:00Z</time>
      </trkpt>
      <trkpt lat="50.99754" lon="2.66064">
        <ele>6.4</ele>
        <time>2020-06-23T14:18:01Z</time>
      </trkpt>
      <trkpt lat="50.99752" lon="2.6607">
        <ele>6.4</ele>
        <time>2020-06-23T14:18:02Z</time>
      </trkpt>
      <trkpt lat="50.99751" lon="2.66077">
        <ele>6.4</ele>
        <time>2020-06-23T14:18:03Z</time>
      </trkpt>
      <trkpt lat="50.9975" lon="2.66085">
        <ele>6.4</ele>
        <time>2020-06-23T14:18:04Z</time>
      </trkpt>
      <trkpt lat="50.99749" lon="2.66092">
        <ele>6.4</ele>
        <time>2020-06-23T14:18:05Z</time>
      </trkpt>
      <trkpt lat="50.99747" lon="2.66101">
        <ele>6.4</ele>
        <time>2020-06-23T14:18:06Z</time>
      </trkpt>
      <trkpt lat="50.99746" lon="2.66108">
        <ele>6.4</ele>
        <time>2020-06-23T14:18:07Z</time>
      </trkpt>
      <trkpt lat="50.99744" lon="2.66117">
        <ele>6.4</ele>
        <time>2020-06-23T14:18:08Z</time>
      </trkpt>
      <trkpt lat="50.99743" lon="2.66124">
        <ele>6.3</ele>
        <time>2020-06-23T14:18:09Z</time>
      </trkpt>
      <trkpt lat="50.9974" lon="2.66131">
        <ele>6.2</ele>
        <time>2020-06-23T14:18:10Z</time>
      </trkpt>
      <trkpt lat="50.99737" lon="2.66137">
        <ele>6.1</ele>
        <time>2020-06-23T14:18:11Z</time>
      </trkpt>
      <trkpt lat="50.99734" lon="2.66144">
        <ele>6</ele>
        <time>2020-06-23T14:18:12Z</time>
      </trkpt>
      <trkpt lat="50.99731" lon="2.66152">
        <ele>5.9</ele>
        <time>2020-06-23T14:18:13Z</time>
      </trkpt>
      <trkpt lat="50.99727" lon="2.6616">
        <ele>5.9</ele>
        <time>2020-06-23T14:18:14Z</time>
      </trkpt>
      <trkpt lat="50.99724" lon="2.66168">
        <ele>5.9</ele>
        <time>2020-06-23T14:18:15Z</time>
      </trkpt>
      <trkpt lat="50.99722" lon="2.66176">
        <ele>5.8</ele>
        <time>2020-06-23T14:18:16Z</time>
      </trkpt>
      <trkpt lat="50.99718" lon="2.66185">
        <ele>5.8</ele>
        <time>2020-06-23T14:18:17Z</time>
      </trkpt>
      <trkpt lat="50.99715" lon="2.66193">
        <ele>5.7</ele>
        <time>2020-06-23T14:18:18Z</time>
      </trkpt>
      <trkpt lat="50.99711" lon="2.66201">
        <ele>5.7</ele>
        <time>2020-06-23T14:18:19Z</time>
      </trkpt>
      <trkpt lat="50.99708" lon="2.66208">
        <ele>5.7</ele>
        <time>2020-06-23T14:18:20Z</time>
      </trkpt>
      <trkpt lat="50.99705" lon="2.66216">
        <ele>5.7</ele>
        <time>2020-06-23T14:18:21Z</time>
      </trkpt>
      <trkpt lat="50.99703" lon="2.66224">
        <ele>5.7</ele>
        <time>2020-06-23T14:18:22Z</time>
      </trkpt>
      <trkpt lat="50.99699" lon="2.66233">
        <ele>5.8</ele>
        <time>2020-06-23T14:18:23Z</time>
      </trkpt>
      <trkpt lat="50.99695" lon="2.66243">
        <ele>5.8</ele>
        <time>2020-06-23T14:18:24Z</time>
      </trkpt>
      <trkpt lat="50.99693" lon="2.66252">
        <ele>5.8</ele>
        <time>2020-06-23T14:18:25Z</time>
      </trkpt>
      <trkpt lat="50.99689" lon="2.66262">
        <ele>5.8</ele>
        <time>2020-06-23T14:18:26Z</time>
      </trkpt>
      <trkpt lat="50.99687" lon="2.66272">
        <ele>5.8</ele>
        <time>2020-06-23T14:18:27Z</time>
      </trkpt>
      <trkpt lat="50.99685" lon="2.66282">
        <ele>5.8</ele>
        <time>2020-06-23T14:18:28Z</time>
      </trkpt>
      <trkpt lat="50.99683" lon="2.66291">
        <ele>5.9</ele>
        <time>2020-06-23T14:18:29Z</time>
      </trkpt>
      <trkpt lat="50.99681" lon="2.663">
        <ele>5.9</ele>
        <time>2020-06-23T14:18:30Z</time>
      </trkpt>
      <trkpt lat="50.99679" lon="2.66309">
        <ele>5.9</ele>
        <time>2020-06-23T14:18:31Z</time>
      </trkpt>
      <trkpt lat="50.99677" lon="2.66318">
        <ele>6</ele>
        <time>2020-06-23T14:18:32Z</time>
      </trkpt>
      <trkpt lat="50.99675" lon="2.66327">
        <ele>6</ele>
        <time>2020-06-23T14:18:33Z</time>
      </trkpt>
      <trkpt lat="50.99673" lon="2.66335">
        <ele>6</ele>
        <time>2020-06-23T14:18:34Z</time>
      </trkpt>
      <trkpt lat="50.99672" lon="2.66343">
        <ele>6</ele>
        <time>2020-06-23T14:18:35Z</time>
      </trkpt>
      <trkpt lat="50.9967" lon="2.66351">
        <ele>6</ele>
        <time>2020-06-23T14:18:36Z</time>
      </trkpt>
      <trkpt lat="50.99669" lon="2.66358">
        <ele>6</ele>
        <time>2020-06-23T14:18:37Z</time>
      </trkpt>
      <trkpt lat="50.99668" lon="2.66364">
        <ele>6</ele>
        <time>2020-06-23T14:18:38Z</time>
      </trkpt>
      <trkpt lat="50.99665" lon="2.66369">
        <ele>6</ele>
        <time>2020-06-23T14:18:39Z</time>
      </trkpt>
      <trkpt lat="50.99664" lon="2.6637">
        <ele>6</ele>
        <time>2020-06-23T14:18:40Z</time>
      </trkpt>
      <trkpt lat="50.99662" lon="2.66377">
        <ele>6</ele>
        <time>2020-06-23T14:18:41Z</time>
      </trkpt>
      <trkpt lat="50.9966" lon="2.66384">
        <ele>6</ele>
        <time>2020-06-23T14:18:42Z</time>
      </trkpt>
      <trkpt lat="50.99659" lon="2.66391">
        <ele>6</ele>
        <time>2020-06-23T14:18:43Z</time>
      </trkpt>
      <trkpt lat="50.99657" lon="2.66398">
        <ele>5.9</ele>
        <time>2020-06-23T14:18:44Z</time>
      </trkpt>
      <trkpt lat="50.99655" lon="2.66405">
        <ele>5.9</ele>
        <time>2020-06-23T14:18:45Z</time>
      </trkpt>
      <trkpt lat="50.99652" lon="2.66414">
        <ele>5.9</ele>
        <time>2020-06-23T14:18:46Z</time>
      </trkpt>
      <trkpt lat="50.9965" lon="2.6642">
        <ele>6</ele>
        <time>2020-06-23T14:18:47Z</time>
      </trkpt>
      <trkpt lat="50.99647" lon="2.66429">
        <ele>6</ele>
        <time>2020-06-23T14:18:48Z</time>
      </trkpt>
      <trkpt lat="50.99645" lon="2.66436">
        <ele>6</ele>
        <time>2020-06-23T14:18:49Z</time>
      </trkpt>
      <trkpt lat="50.99643" lon="2.66444">
        <ele>6</ele>
        <time>2020-06-23T14:18:50Z</time>
      </trkpt>
      <trkpt lat="50.9964" lon="2.66455">
        <ele>6.1</ele>
        <time>2020-06-23T14:18:51Z</time>
      </trkpt>
      <trkpt lat="50.99637" lon="2.66464">
        <ele>6.1</ele>
        <time>2020-06-23T14:18:52Z</time>
      </trkpt>
      <trkpt lat="50.99635" lon="2.66472">
        <ele>6.2</ele>
        <time>2020-06-23T14:18:53Z</time>
      </trkpt>
      <trkpt lat="50.99634" lon="2.66481">
        <ele>6.2</ele>
        <time>2020-06-23T14:18:54Z</time>
      </trkpt>
      <trkpt lat="50.99632" lon="2.66489">
        <ele>6.2</ele>
        <time>2020-06-23T14:18:55Z</time>
      </trkpt>
      <trkpt lat="50.99631" lon="2.66499">
        <ele>6.3</ele>
        <time>2020-06-23T14:18:56Z</time>
      </trkpt>
      <trkpt lat="50.9963" lon="2.66507">
        <ele>6.3</ele>
        <time>2020-06-23T14:18:57Z</time>
      </trkpt>
      <trkpt lat="50.99629" lon="2.66515">
        <ele>6.3</ele>
        <time>2020-06-23T14:18:58Z</time>
      </trkpt>
      <trkpt lat="50.99628" lon="2.66522">
        <ele>6.4</ele>
        <time>2020-06-23T14:18:59Z</time>
      </trkpt>
      <trkpt lat="50.99627" lon="2.66531">
        <ele>6.4</ele>
        <time>2020-06-23T14:19:00Z</time>
      </trkpt>
      <trkpt lat="50.99626" lon="2.66539">
        <ele>6.4</ele>
        <time>2020-06-23T14:19:01Z</time>
      </trkpt>
      <trkpt lat="50.99625" lon="2.66546">
        <ele>6.5</ele>
        <time>2020-06-23T14:19:02Z</time>
      </trkpt>
      <trkpt lat="50.99624" lon="2.66554">
        <ele>6.5</ele>
        <time>2020-06-23T14:19:03Z</time>
      </trkpt>
      <trkpt lat="50.99622" lon="2.66562">
        <ele>6.5</ele>
        <time>2020-06-23T14:19:04Z</time>
      </trkpt>
      <trkpt lat="50.9962" lon="2.66571">
        <ele>6.6</ele>
        <time>2020-06-23T14:19:05Z</time>
      </trkpt>
      <trkpt lat="50.99619" lon="2.6658">
        <ele>6.6</ele>
        <time>2020-06-23T14:19:06Z</time>
      </trkpt>
      <trkpt lat="50.99617" lon="2.66589">
        <ele>6.6</ele>
        <time>2020-06-23T14:19:07Z</time>
      </trkpt>
      <trkpt lat="50.99616" lon="2.66598">
        <ele>6.7</ele>
        <time>2020-06-23T14:19:08Z</time>
      </trkpt>
      <trkpt lat="50.99615" lon="2.66607">
        <ele>6.7</ele>
        <time>2020-06-23T14:19:09Z</time>
      </trkpt>
      <trkpt lat="50.99614" lon="2.66615">
        <ele>6.8</ele>
        <time>2020-06-23T14:19:10Z</time>
      </trkpt>
      <trkpt lat="50.99612" lon="2.66623">
        <ele>6.8</ele>
        <time>2020-06-23T14:19:11Z</time>
      </trkpt>
      <trkpt lat="50.99611" lon="2.66632">
        <ele>6.8</ele>
        <time>2020-06-23T14:19:12Z</time>
      </trkpt>
      <trkpt lat="50.9961" lon="2.6664">
        <ele>6.8</ele>
        <time>2020-06-23T14:19:13Z</time>
      </trkpt>
      <trkpt lat="50.99609" lon="2.66648">
        <ele>6.8</ele>
        <time>2020-06-23T14:19:14Z</time>
      </trkpt>
      <trkpt lat="50.99609" lon="2.66657">
        <ele>6.8</ele>
        <time>2020-06-23T14:19:15Z</time>
      </trkpt>
      <trkpt lat="50.99609" lon="2.66666">
        <ele>6.8</ele>
        <time>2020-06-23T14:19:16Z</time>
      </trkpt>
      <trkpt lat="50.99607" lon="2.66674">
        <ele>6.9</ele>
        <time>2020-06-23T14:19:17Z</time>
      </trkpt>
      <trkpt lat="50.99607" lon="2.66684">
        <ele>6.9</ele>
        <time>2020-06-23T14:19:18Z</time>
      </trkpt>
      <trkpt lat="50.99606" lon="2.66694">
        <ele>6.9</ele>
        <time>2020-06-23T14:19:19Z</time>
      </trkpt>
      <trkpt lat="50.99606" lon="2.66704">
        <ele>6.9</ele>
        <time>2020-06-23T14:19:20Z</time>
      </trkpt>
      <trkpt lat="50.99605" lon="2.66713">
        <ele>6.9</ele>
        <time>2020-06-23T14:19:21Z</time>
      </trkpt>
      <trkpt lat="50.99606" lon="2.66723">
        <ele>7</ele>
        <time>2020-06-23T14:19:22Z</time>
      </trkpt>
      <trkpt lat="50.99605" lon="2.66734">
        <ele>7</ele>
        <time>2020-06-23T14:19:23Z</time>
      </trkpt>
      <trkpt lat="50.99605" lon="2.66746">
        <ele>7</ele>
        <time>2020-06-23T14:19:24Z</time>
      </trkpt>
      <trkpt lat="50.99604" lon="2.66755">
        <ele>7</ele>
        <time>2020-06-23T14:19:25Z</time>
      </trkpt>
      <trkpt lat="50.99601" lon="2.66763">
        <ele>7</ele>
        <time>2020-06-23T14:19:26Z</time>
      </trkpt>
      <trkpt lat="50.99598" lon="2.6677">
        <ele>7</ele>
        <time>2020-06-23T14:19:27Z</time>
      </trkpt>
      <trkpt lat="50.99593" lon="2.66778">
        <ele>7</ele>
        <time>2020-06-23T14:19:28Z</time>
      </trkpt>
      <trkpt lat="50.99588" lon="2.66786">
        <ele>7</ele>
        <time>2020-06-23T14:19:29Z</time>
      </trkpt>
      <trkpt lat="50.99583" lon="2.66793">
        <ele>7</ele>
        <time>2020-06-23T14:19:30Z</time>
      </trkpt>
      <trkpt lat="50.99577" lon="2.66799">
        <ele>7</ele>
        <time>2020-06-23T14:19:31Z</time>
      </trkpt>
      <trkpt lat="50.99571" lon="2.66806">
        <ele>7.1</ele>
        <time>2020-06-23T14:19:32Z</time>
      </trkpt>
      <trkpt lat="50.99566" lon="2.66812">
        <ele>7.1</ele>
        <time>2020-06-23T14:19:33Z</time>
      </trkpt>
      <trkpt lat="50.9956" lon="2.66821">
        <ele>7.1</ele>
        <time>2020-06-23T14:19:34Z</time>
      </trkpt>
      <trkpt lat="50.99555" lon="2.66827">
        <ele>7.1</ele>
        <time>2020-06-23T14:19:35Z</time>
      </trkpt>
      <trkpt lat="50.9955" lon="2.66833">
        <ele>7</ele>
        <time>2020-06-23T14:19:36Z</time>
      </trkpt>
      <trkpt lat="50.99545" lon="2.66839">
        <ele>7</ele>
        <time>2020-06-23T14:19:37Z</time>
      </trkpt>
      <trkpt lat="50.99539" lon="2.66846">
        <ele>7.1</ele>
        <time>2020-06-23T14:19:38Z</time>
      </trkpt>
      <trkpt lat="50.99533" lon="2.66854">
        <ele>7.2</ele>
        <time>2020-06-23T14:19:39Z</time>
      </trkpt>
      <trkpt lat="50.99528" lon="2.66861">
        <ele>7.3</ele>
        <time>2020-06-23T14:19:40Z</time>
      </trkpt>
      <trkpt lat="50.99524" lon="2.66868">
        <ele>7.5</ele>
        <time>2020-06-23T14:19:41Z</time>
      </trkpt>
      <trkpt lat="50.99518" lon="2.66874">
        <ele>7.6</ele>
        <time>2020-06-23T14:19:42Z</time>
      </trkpt>
      <trkpt lat="50.99512" lon="2.6688">
        <ele>7.6</ele>
        <time>2020-06-23T14:19:43Z</time>
      </trkpt>
      <trkpt lat="50.99507" lon="2.66887">
        <ele>7.6</ele>
        <time>2020-06-23T14:19:44Z</time>
      </trkpt>
      <trkpt lat="50.99501" lon="2.66893">
        <ele>7.6</ele>
        <time>2020-06-23T14:19:45Z</time>
      </trkpt>
      <trkpt lat="50.99496" lon="2.66898">
        <ele>7.6</ele>
        <time>2020-06-23T14:19:46Z</time>
      </trkpt>
      <trkpt lat="50.99491" lon="2.66903">
        <ele>7.6</ele>
        <time>2020-06-23T14:19:47Z</time>
      </trkpt>
      <trkpt lat="50.99486" lon="2.66908">
        <ele>7.6</ele>
        <time>2020-06-23T14:19:48Z</time>
      </trkpt>
      <trkpt lat="50.99481" lon="2.66913">
        <ele>7.7</ele>
        <time>2020-06-23T14:19:49Z</time>
      </trkpt>
      <trkpt lat="50.99476" lon="2.66919">
        <ele>7.7</ele>
        <time>2020-06-23T14:19:50Z</time>
      </trkpt>
      <trkpt lat="50.99472" lon="2.66924">
        <ele>7.7</ele>
        <time>2020-06-23T14:19:51Z</time>
      </trkpt>
      <trkpt lat="50.99467" lon="2.6693">
        <ele>7.7</ele>
        <time>2020-06-23T14:19:52Z</time>
      </trkpt>
      <trkpt lat="50.99462" lon="2.66935">
        <ele>7.7</ele>
        <time>2020-06-23T14:19:53Z</time>
      </trkpt>
      <trkpt lat="50.99458" lon="2.6694">
        <ele>7.7</ele>
        <time>2020-06-23T14:19:54Z</time>
      </trkpt>
      <trkpt lat="50.99453" lon="2.66945">
        <ele>7.6</ele>
        <time>2020-06-23T14:19:55Z</time>
      </trkpt>
      <trkpt lat="50.99448" lon="2.6695">
        <ele>7.6</ele>
        <time>2020-06-23T14:19:56Z</time>
      </trkpt>
      <trkpt lat="50.99442" lon="2.66953">
        <ele>7.6</ele>
        <time>2020-06-23T14:19:57Z</time>
      </trkpt>
      <trkpt lat="50.99437" lon="2.66957">
        <ele>7.6</ele>
        <time>2020-06-23T14:19:58Z</time>
      </trkpt>
      <trkpt lat="50.99431" lon="2.66962">
        <ele>7.6</ele>
        <time>2020-06-23T14:19:59Z</time>
      </trkpt>
      <trkpt lat="50.99425" lon="2.66965">
        <ele>7.6</ele>
        <time>2020-06-23T14:20:00Z</time>
      </trkpt>
      <trkpt lat="50.99419" lon="2.66969">
        <ele>7.7</ele>
        <time>2020-06-23T14:20:01Z</time>
      </trkpt>
      <trkpt lat="50.99414" lon="2.66973">
        <ele>7.7</ele>
        <time>2020-06-23T14:20:02Z</time>
      </trkpt>
      <trkpt lat="50.99408" lon="2.66976">
        <ele>7.8</ele>
        <time>2020-06-23T14:20:03Z</time>
      </trkpt>
      <trkpt lat="50.99402" lon="2.66979">
        <ele>7.8</ele>
        <time>2020-06-23T14:20:04Z</time>
      </trkpt>
      <trkpt lat="50.99396" lon="2.66982">
        <ele>7.7</ele>
        <time>2020-06-23T14:20:05Z</time>
      </trkpt>
      <trkpt lat="50.9939" lon="2.66986">
        <ele>7.7</ele>
        <time>2020-06-23T14:20:06Z</time>
      </trkpt>
      <trkpt lat="50.99384" lon="2.6699">
        <ele>7.7</ele>
        <time>2020-06-23T14:20:07Z</time>
      </trkpt>
      <trkpt lat="50.99378" lon="2.66994">
        <ele>7.7</ele>
        <time>2020-06-23T14:20:08Z</time>
      </trkpt>
      <trkpt lat="50.99372" lon="2.66998">
        <ele>7.7</ele>
        <time>2020-06-23T14:20:09Z</time>
      </trkpt>
      <trkpt lat="50.99367" lon="2.67002">
        <ele>7.7</ele>
        <time>2020-06-23T14:20:10Z</time>
      </trkpt>
      <trkpt lat="50.99361" lon="2.67007">
        <ele>7.7</ele>
        <time>2020-06-23T14:20:11Z</time>
      </trkpt>
      <trkpt lat="50.99354" lon="2.67011">
        <ele>7.6</ele>
        <time>2020-06-23T14:20:12Z</time>
      </trkpt>
      <trkpt lat="50.99348" lon="2.67015">
        <ele>7.6</ele>
        <time>2020-06-23T14:20:13Z</time>
      </trkpt>
      <trkpt lat="50.99342" lon="2.6702">
        <ele>7.6</ele>
        <time>2020-06-23T14:20:14Z</time>
      </trkpt>
      <trkpt lat="50.99336" lon="2.67024">
        <ele>7.6</ele>
        <time>2020-06-23T14:20:15Z</time>
      </trkpt>
      <trkpt lat="50.99329" lon="2.67027">
        <ele>7.5</ele>
        <time>2020-06-23T14:20:16Z</time>
      </trkpt>
      <trkpt lat="50.99323" lon="2.67032">
        <ele>7.5</ele>
        <time>2020-06-23T14:20:17Z</time>
      </trkpt>
      <trkpt lat="50.99316" lon="2.67038">
        <ele>7.5</ele>
        <time>2020-06-23T14:20:18Z</time>
      </trkpt>
      <trkpt lat="50.9931" lon="2.67041">
        <ele>7.5</ele>
        <time>2020-06-23T14:20:19Z</time>
      </trkpt>
      <trkpt lat="50.99303" lon="2.67044">
        <ele>7.5</ele>
        <time>2020-06-23T14:20:20Z</time>
      </trkpt>
      <trkpt lat="50.99296" lon="2.67049">
        <ele>7.5</ele>
        <time>2020-06-23T14:20:21Z</time>
      </trkpt>
      <trkpt lat="50.9929" lon="2.67053">
        <ele>7.5</ele>
        <time>2020-06-23T14:20:22Z</time>
      </trkpt>
      <trkpt lat="50.99284" lon="2.67057">
        <ele>7.5</ele>
        <time>2020-06-23T14:20:23Z</time>
      </trkpt>
      <trkpt lat="50.99278" lon="2.67061">
        <ele>7.6</ele>
        <time>2020-06-23T14:20:24Z</time>
      </trkpt>
      <trkpt lat="50.99272" lon="2.67065">
        <ele>7.5</ele>
        <time>2020-06-23T14:20:25Z</time>
      </trkpt>
      <trkpt lat="50.99266" lon="2.67069">
        <ele>7.4</ele>
        <time>2020-06-23T14:20:26Z</time>
      </trkpt>
      <trkpt lat="50.9926" lon="2.67072">
        <ele>7.2</ele>
        <time>2020-06-23T14:20:27Z</time>
      </trkpt>
      <trkpt lat="50.99254" lon="2.67075">
        <ele>7.1</ele>
        <time>2020-06-23T14:20:28Z</time>
      </trkpt>
      <trkpt lat="50.99248" lon="2.67079">
        <ele>7</ele>
        <time>2020-06-23T14:20:29Z</time>
      </trkpt>
      <trkpt lat="50.99242" lon="2.67082">
        <ele>6.9</ele>
        <time>2020-06-23T14:20:30Z</time>
      </trkpt>
      <trkpt lat="50.99236" lon="2.67087">
        <ele>6.9</ele>
        <time>2020-06-23T14:20:31Z</time>
      </trkpt>
      <trkpt lat="50.9923" lon="2.67091">
        <ele>6.9</ele>
        <time>2020-06-23T14:20:32Z</time>
      </trkpt>
      <trkpt lat="50.99224" lon="2.67095">
        <ele>6.9</ele>
        <time>2020-06-23T14:20:33Z</time>
      </trkpt>
      <trkpt lat="50.99218" lon="2.671">
        <ele>6.8</ele>
        <time>2020-06-23T14:20:34Z</time>
      </trkpt>
      <trkpt lat="50.99212" lon="2.67107">
        <ele>6.8</ele>
        <time>2020-06-23T14:20:35Z</time>
      </trkpt>
      <trkpt lat="50.99207" lon="2.67113">
        <ele>6.8</ele>
        <time>2020-06-23T14:20:36Z</time>
      </trkpt>
      <trkpt lat="50.99201" lon="2.6712">
        <ele>6.8</ele>
        <time>2020-06-23T14:20:37Z</time>
      </trkpt>
      <trkpt lat="50.99196" lon="2.67128">
        <ele>6.8</ele>
        <time>2020-06-23T14:20:38Z</time>
      </trkpt>
      <trkpt lat="50.99192" lon="2.67136">
        <ele>6.8</ele>
        <time>2020-06-23T14:20:39Z</time>
      </trkpt>
      <trkpt lat="50.99187" lon="2.67144">
        <ele>6.9</ele>
        <time>2020-06-23T14:20:40Z</time>
      </trkpt>
      <trkpt lat="50.99183" lon="2.67152">
        <ele>6.9</ele>
        <time>2020-06-23T14:20:41Z</time>
      </trkpt>
      <trkpt lat="50.99179" lon="2.67161">
        <ele>6.9</ele>
        <time>2020-06-23T14:20:42Z</time>
      </trkpt>
      <trkpt lat="50.99174" lon="2.67168">
        <ele>7</ele>
        <time>2020-06-23T14:20:43Z</time>
      </trkpt>
      <trkpt lat="50.99169" lon="2.67175">
        <ele>7</ele>
        <time>2020-06-23T14:20:44Z</time>
      </trkpt>
      <trkpt lat="50.99165" lon="2.67183">
        <ele>7.1</ele>
        <time>2020-06-23T14:20:45Z</time>
      </trkpt>
      <trkpt lat="50.99161" lon="2.67191">
        <ele>7.1</ele>
        <time>2020-06-23T14:20:46Z</time>
      </trkpt>
      <trkpt lat="50.99156" lon="2.672">
        <ele>7.1</ele>
        <time>2020-06-23T14:20:47Z</time>
      </trkpt>
      <trkpt lat="50.99152" lon="2.67208">
        <ele>7.2</ele>
        <time>2020-06-23T14:20:48Z</time>
      </trkpt>
      <trkpt lat="50.99147" lon="2.67217">
        <ele>7.3</ele>
        <time>2020-06-23T14:20:49Z</time>
      </trkpt>
      <trkpt lat="50.99143" lon="2.67225">
        <ele>7.4</ele>
        <time>2020-06-23T14:20:50Z</time>
      </trkpt>
      <trkpt lat="50.99138" lon="2.67233">
        <ele>7.5</ele>
        <time>2020-06-23T14:20:51Z</time>
      </trkpt>
      <trkpt lat="50.99133" lon="2.6724">
        <ele>7.5</ele>
        <time>2020-06-23T14:20:52Z</time>
      </trkpt>
      <trkpt lat="50.99128" lon="2.67247">
        <ele>7.6</ele>
        <time>2020-06-23T14:20:53Z</time>
      </trkpt>
      <trkpt lat="50.99123" lon="2.67255">
        <ele>7.6</ele>
        <time>2020-06-23T14:20:54Z</time>
      </trkpt>
      <trkpt lat="50.99118" lon="2.67262">
        <ele>7.7</ele>
        <time>2020-06-23T14:20:55Z</time>
      </trkpt>
      <trkpt lat="50.99113" lon="2.67268">
        <ele>7.7</ele>
        <time>2020-06-23T14:20:56Z</time>
      </trkpt>
      <trkpt lat="50.99107" lon="2.67275">
        <ele>7.7</ele>
        <time>2020-06-23T14:20:57Z</time>
      </trkpt>
      <trkpt lat="50.99102" lon="2.67282">
        <ele>7.7</ele>
        <time>2020-06-23T14:20:58Z</time>
      </trkpt>
      <trkpt lat="50.99096" lon="2.67288">
        <ele>7.8</ele>
        <time>2020-06-23T14:20:59Z</time>
      </trkpt>
      <trkpt lat="50.99091" lon="2.67295">
        <ele>7.8</ele>
        <time>2020-06-23T14:21:00Z</time>
      </trkpt>
      <trkpt lat="50.99086" lon="2.67301">
        <ele>7.9</ele>
        <time>2020-06-23T14:21:01Z</time>
      </trkpt>
      <trkpt lat="50.9908" lon="2.67308">
        <ele>8</ele>
        <time>2020-06-23T14:21:02Z</time>
      </trkpt>
      <trkpt lat="50.99075" lon="2.67315">
        <ele>8</ele>
        <time>2020-06-23T14:21:03Z</time>
      </trkpt>
      <trkpt lat="50.9907" lon="2.67322">
        <ele>8.1</ele>
        <time>2020-06-23T14:21:04Z</time>
      </trkpt>
      <trkpt lat="50.99064" lon="2.67329">
        <ele>8.1</ele>
        <time>2020-06-23T14:21:05Z</time>
      </trkpt>
      <trkpt lat="50.99059" lon="2.67336">
        <ele>8.2</ele>
        <time>2020-06-23T14:21:06Z</time>
      </trkpt>
      <trkpt lat="50.99053" lon="2.67343">
        <ele>8.3</ele>
        <time>2020-06-23T14:21:07Z</time>
      </trkpt>
      <trkpt lat="50.99048" lon="2.6735">
        <ele>8.4</ele>
        <time>2020-06-23T14:21:08Z</time>
      </trkpt>
      <trkpt lat="50.99043" lon="2.67357">
        <ele>8.5</ele>
        <time>2020-06-23T14:21:09Z</time>
      </trkpt>
      <trkpt lat="50.99038" lon="2.67364">
        <ele>8.4</ele>
        <time>2020-06-23T14:21:10Z</time>
      </trkpt>
      <trkpt lat="50.99033" lon="2.67371">
        <ele>8.3</ele>
        <time>2020-06-23T14:21:11Z</time>
      </trkpt>
      <trkpt lat="50.99027" lon="2.67378">
        <ele>8.2</ele>
        <time>2020-06-23T14:21:12Z</time>
      </trkpt>
      <trkpt lat="50.99022" lon="2.67384">
        <ele>8.2</ele>
        <time>2020-06-23T14:21:13Z</time>
      </trkpt>
      <trkpt lat="50.99017" lon="2.67392">
        <ele>8.1</ele>
        <time>2020-06-23T14:21:14Z</time>
      </trkpt>
      <trkpt lat="50.99012" lon="2.67399">
        <ele>8.1</ele>
        <time>2020-06-23T14:21:15Z</time>
      </trkpt>
      <trkpt lat="50.99006" lon="2.67407">
        <ele>8</ele>
        <time>2020-06-23T14:21:16Z</time>
      </trkpt>
      <trkpt lat="50.99001" lon="2.67414">
        <ele>7.9</ele>
        <time>2020-06-23T14:21:17Z</time>
      </trkpt>
      <trkpt lat="50.98996" lon="2.67422">
        <ele>7.9</ele>
        <time>2020-06-23T14:21:18Z</time>
      </trkpt>
      <trkpt lat="50.9899" lon="2.67429">
        <ele>7.8</ele>
        <time>2020-06-23T14:21:19Z</time>
      </trkpt>
      <trkpt lat="50.98984" lon="2.67436">
        <ele>7.7</ele>
        <time>2020-06-23T14:21:20Z</time>
      </trkpt>
      <trkpt lat="50.98978" lon="2.67444">
        <ele>7.7</ele>
        <time>2020-06-23T14:21:21Z</time>
      </trkpt>
      <trkpt lat="50.98973" lon="2.67451">
        <ele>7.6</ele>
        <time>2020-06-23T14:21:22Z</time>
      </trkpt>
      <trkpt lat="50.98967" lon="2.67459">
        <ele>7.5</ele>
        <time>2020-06-23T14:21:23Z</time>
      </trkpt>
      <trkpt lat="50.98961" lon="2.67465">
        <ele>7.4</ele>
        <time>2020-06-23T14:21:24Z</time>
      </trkpt>
      <trkpt lat="50.98955" lon="2.67471">
        <ele>7.4</ele>
        <time>2020-06-23T14:21:25Z</time>
      </trkpt>
      <trkpt lat="50.98948" lon="2.67477">
        <ele>7.3</ele>
        <time>2020-06-23T14:21:26Z</time>
      </trkpt>
      <trkpt lat="50.98941" lon="2.67482">
        <ele>7.3</ele>
        <time>2020-06-23T14:21:27Z</time>
      </trkpt>
      <trkpt lat="50.98935" lon="2.67487">
        <ele>7.2</ele>
        <time>2020-06-23T14:21:28Z</time>
      </trkpt>
      <trkpt lat="50.98928" lon="2.67492">
        <ele>7.2</ele>
        <time>2020-06-23T14:21:29Z</time>
      </trkpt>
      <trkpt lat="50.98921" lon="2.67496">
        <ele>7.1</ele>
        <time>2020-06-23T14:21:30Z</time>
      </trkpt>
      <trkpt lat="50.98915" lon="2.675">
        <ele>7</ele>
        <time>2020-06-23T14:21:31Z</time>
      </trkpt>
      <trkpt lat="50.98908" lon="2.67505">
        <ele>7</ele>
        <time>2020-06-23T14:21:32Z</time>
      </trkpt>
      <trkpt lat="50.989" lon="2.6751">
        <ele>6.9</ele>
        <time>2020-06-23T14:21:33Z</time>
      </trkpt>
      <trkpt lat="50.98893" lon="2.67516">
        <ele>6.7</ele>
        <time>2020-06-23T14:21:34Z</time>
      </trkpt>
      <trkpt lat="50.98885" lon="2.67521">
        <ele>6.6</ele>
        <time>2020-06-23T14:21:35Z</time>
      </trkpt>
      <trkpt lat="50.98878" lon="2.67525">
        <ele>6.5</ele>
        <time>2020-06-23T14:21:36Z</time>
      </trkpt>
      <trkpt lat="50.9887" lon="2.67532">
        <ele>6.4</ele>
        <time>2020-06-23T14:21:37Z</time>
      </trkpt>
      <trkpt lat="50.98863" lon="2.67537">
        <ele>6.4</ele>
        <time>2020-06-23T14:21:38Z</time>
      </trkpt>
      <trkpt lat="50.98855" lon="2.67543">
        <ele>6.3</ele>
        <time>2020-06-23T14:21:39Z</time>
      </trkpt>
      <trkpt lat="50.98848" lon="2.6755">
        <ele>6.1</ele>
        <time>2020-06-23T14:21:40Z</time>
      </trkpt>
      <trkpt lat="50.9884" lon="2.67556">
        <ele>6</ele>
        <time>2020-06-23T14:21:41Z</time>
      </trkpt>
      <trkpt lat="50.98833" lon="2.67562">
        <ele>5.8</ele>
        <time>2020-06-23T14:21:42Z</time>
      </trkpt>
      <trkpt lat="50.98825" lon="2.67569">
        <ele>5.7</ele>
        <time>2020-06-23T14:21:43Z</time>
      </trkpt>
      <trkpt lat="50.98818" lon="2.67575">
        <ele>5.6</ele>
        <time>2020-06-23T14:21:44Z</time>
      </trkpt>
      <trkpt lat="50.9881" lon="2.67582">
        <ele>5.6</ele>
        <time>2020-06-23T14:21:45Z</time>
      </trkpt>
      <trkpt lat="50.98803" lon="2.67589">
        <ele>5.5</ele>
        <time>2020-06-23T14:21:46Z</time>
      </trkpt>
      <trkpt lat="50.98796" lon="2.67596">
        <ele>5.4</ele>
        <time>2020-06-23T14:21:47Z</time>
      </trkpt>
      <trkpt lat="50.98789" lon="2.67604">
        <ele>5.3</ele>
        <time>2020-06-23T14:21:48Z</time>
      </trkpt>
      <trkpt lat="50.98783" lon="2.67611">
        <ele>5.2</ele>
        <time>2020-06-23T14:21:49Z</time>
      </trkpt>
      <trkpt lat="50.98776" lon="2.67619">
        <ele>5.2</ele>
        <time>2020-06-23T14:21:50Z</time>
      </trkpt>
      <trkpt lat="50.98769" lon="2.67626">
        <ele>5.1</ele>
        <time>2020-06-23T14:21:51Z</time>
      </trkpt>
      <trkpt lat="50.98762" lon="2.67635">
        <ele>5.1</ele>
        <time>2020-06-23T14:21:52Z</time>
      </trkpt>
      <trkpt lat="50.98756" lon="2.67644">
        <ele>5.1</ele>
        <time>2020-06-23T14:21:53Z</time>
      </trkpt>
      <trkpt lat="50.9875" lon="2.67652">
        <ele>5.1</ele>
        <time>2020-06-23T14:21:54Z</time>
      </trkpt>
      <trkpt lat="50.98745" lon="2.67661">
        <ele>5.1</ele>
        <time>2020-06-23T14:21:55Z</time>
      </trkpt>
      <trkpt lat="50.9874" lon="2.67671">
        <ele>5.1</ele>
        <time>2020-06-23T14:21:56Z</time>
      </trkpt>
      <trkpt lat="50.98735" lon="2.67681">
        <ele>5.1</ele>
        <time>2020-06-23T14:21:57Z</time>
      </trkpt>
      <trkpt lat="50.9873" lon="2.67691">
        <ele>5.1</ele>
        <time>2020-06-23T14:21:58Z</time>
      </trkpt>
      <trkpt lat="50.98725" lon="2.67701">
        <ele>5.1</ele>
        <time>2020-06-23T14:21:59Z</time>
      </trkpt>
      <trkpt lat="50.9872" lon="2.6771">
        <ele>5.1</ele>
        <time>2020-06-23T14:22:00Z</time>
      </trkpt>
      <trkpt lat="50.98715" lon="2.67719">
        <ele>5.1</ele>
        <time>2020-06-23T14:22:01Z</time>
      </trkpt>
      <trkpt lat="50.9871" lon="2.67727">
        <ele>5.1</ele>
        <time>2020-06-23T14:22:02Z</time>
      </trkpt>
      <trkpt lat="50.98705" lon="2.67737">
        <ele>5.1</ele>
        <time>2020-06-23T14:22:03Z</time>
      </trkpt>
      <trkpt lat="50.987" lon="2.67746">
        <ele>5.1</ele>
        <time>2020-06-23T14:22:04Z</time>
      </trkpt>
      <trkpt lat="50.98695" lon="2.67755">
        <ele>5.1</ele>
        <time>2020-06-23T14:22:05Z</time>
      </trkpt>
      <trkpt lat="50.9869" lon="2.67764">
        <ele>5.2</ele>
        <time>2020-06-23T14:22:06Z</time>
      </trkpt>
      <trkpt lat="50.98685" lon="2.67773">
        <ele>5.2</ele>
        <time>2020-06-23T14:22:07Z</time>
      </trkpt>
      <trkpt lat="50.9868" lon="2.67782">
        <ele>5.2</ele>
        <time>2020-06-23T14:22:08Z</time>
      </trkpt>
      <trkpt lat="50.98674" lon="2.67791">
        <ele>5.1</ele>
        <time>2020-06-23T14:22:09Z</time>
      </trkpt>
      <trkpt lat="50.98668" lon="2.67798">
        <ele>5.1</ele>
        <time>2020-06-23T14:22:10Z</time>
      </trkpt>
      <trkpt lat="50.98662" lon="2.67805">
        <ele>5.1</ele>
        <time>2020-06-23T14:22:11Z</time>
      </trkpt>
      <trkpt lat="50.98656" lon="2.67812">
        <ele>5.1</ele>
        <time>2020-06-23T14:22:12Z</time>
      </trkpt>
      <trkpt lat="50.9865" lon="2.6782">
        <ele>5.1</ele>
        <time>2020-06-23T14:22:13Z</time>
      </trkpt>
      <trkpt lat="50.98644" lon="2.67826">
        <ele>5.1</ele>
        <time>2020-06-23T14:22:14Z</time>
      </trkpt>
      <trkpt lat="50.98638" lon="2.67834">
        <ele>5.1</ele>
        <time>2020-06-23T14:22:15Z</time>
      </trkpt>
      <trkpt lat="50.98632" lon="2.67841">
        <ele>5.1</ele>
        <time>2020-06-23T14:22:16Z</time>
      </trkpt>
      <trkpt lat="50.98625" lon="2.67848">
        <ele>5.1</ele>
        <time>2020-06-23T14:22:17Z</time>
      </trkpt>
      <trkpt lat="50.98619" lon="2.67855">
        <ele>5.2</ele>
        <time>2020-06-23T14:22:18Z</time>
      </trkpt>
      <trkpt lat="50.98612" lon="2.67861">
        <ele>5.2</ele>
        <time>2020-06-23T14:22:19Z</time>
      </trkpt>
      <trkpt lat="50.98606" lon="2.67867">
        <ele>5.2</ele>
        <time>2020-06-23T14:22:20Z</time>
      </trkpt>
      <trkpt lat="50.98599" lon="2.67874">
        <ele>5.3</ele>
        <time>2020-06-23T14:22:21Z</time>
      </trkpt>
      <trkpt lat="50.98593" lon="2.67881">
        <ele>5.3</ele>
        <time>2020-06-23T14:22:22Z</time>
      </trkpt>
      <trkpt lat="50.98587" lon="2.67888">
        <ele>5.3</ele>
        <time>2020-06-23T14:22:23Z</time>
      </trkpt>
      <trkpt lat="50.98581" lon="2.67895">
        <ele>5.3</ele>
        <time>2020-06-23T14:22:24Z</time>
      </trkpt>
      <trkpt lat="50.98575" lon="2.67902">
        <ele>5.3</ele>
        <time>2020-06-23T14:22:25Z</time>
      </trkpt>
      <trkpt lat="50.9857" lon="2.67909">
        <ele>5.3</ele>
        <time>2020-06-23T14:22:26Z</time>
      </trkpt>
      <trkpt lat="50.98564" lon="2.67916">
        <ele>5.3</ele>
        <time>2020-06-23T14:22:27Z</time>
      </trkpt>
      <trkpt lat="50.98559" lon="2.67925">
        <ele>5.3</ele>
        <time>2020-06-23T14:22:28Z</time>
      </trkpt>
      <trkpt lat="50.98553" lon="2.67933">
        <ele>5.3</ele>
        <time>2020-06-23T14:22:29Z</time>
      </trkpt>
      <trkpt lat="50.98548" lon="2.67941">
        <ele>5.3</ele>
        <time>2020-06-23T14:22:30Z</time>
      </trkpt>
      <trkpt lat="50.98543" lon="2.6795">
        <ele>5.4</ele>
        <time>2020-06-23T14:22:31Z</time>
      </trkpt>
      <trkpt lat="50.98537" lon="2.67958">
        <ele>5.4</ele>
        <time>2020-06-23T14:22:32Z</time>
      </trkpt>
      <trkpt lat="50.98532" lon="2.67966">
        <ele>5.4</ele>
        <time>2020-06-23T14:22:33Z</time>
      </trkpt>
      <trkpt lat="50.98527" lon="2.67974">
        <ele>5.5</ele>
        <time>2020-06-23T14:22:34Z</time>
      </trkpt>
      <trkpt lat="50.98521" lon="2.67982">
        <ele>5.5</ele>
        <time>2020-06-23T14:22:35Z</time>
      </trkpt>
      <trkpt lat="50.98516" lon="2.67991">
        <ele>5.5</ele>
        <time>2020-06-23T14:22:36Z</time>
      </trkpt>
      <trkpt lat="50.9851" lon="2.68">
        <ele>5.6</ele>
        <time>2020-06-23T14:22:37Z</time>
      </trkpt>
      <trkpt lat="50.98505" lon="2.68008">
        <ele>5.6</ele>
        <time>2020-06-23T14:22:38Z</time>
      </trkpt>
      <trkpt lat="50.985" lon="2.68017">
        <ele>5.6</ele>
        <time>2020-06-23T14:22:39Z</time>
      </trkpt>
      <trkpt lat="50.98494" lon="2.68025">
        <ele>5.7</ele>
        <time>2020-06-23T14:22:40Z</time>
      </trkpt>
      <trkpt lat="50.98489" lon="2.68033">
        <ele>5.7</ele>
        <time>2020-06-23T14:22:41Z</time>
      </trkpt>
      <trkpt lat="50.98483" lon="2.68041">
        <ele>5.7</ele>
        <time>2020-06-23T14:22:42Z</time>
      </trkpt>
      <trkpt lat="50.98477" lon="2.68049">
        <ele>5.8</ele>
        <time>2020-06-23T14:22:43Z</time>
      </trkpt>
      <trkpt lat="50.98472" lon="2.68057">
        <ele>5.8</ele>
        <time>2020-06-23T14:22:44Z</time>
      </trkpt>
      <trkpt lat="50.98467" lon="2.68065">
        <ele>5.8</ele>
        <time>2020-06-23T14:22:45Z</time>
      </trkpt>
      <trkpt lat="50.98461" lon="2.68074">
        <ele>5.8</ele>
        <time>2020-06-23T14:22:46Z</time>
      </trkpt>
      <trkpt lat="50.98455" lon="2.68082">
        <ele>5.8</ele>
        <time>2020-06-23T14:22:47Z</time>
      </trkpt>
      <trkpt lat="50.9845" lon="2.6809">
        <ele>5.8</ele>
        <time>2020-06-23T14:22:48Z</time>
      </trkpt>
      <trkpt lat="50.98445" lon="2.68098">
        <ele>5.9</ele>
        <time>2020-06-23T14:22:49Z</time>
      </trkpt>
      <trkpt lat="50.98439" lon="2.68106">
        <ele>5.9</ele>
        <time>2020-06-23T14:22:50Z</time>
      </trkpt>
      <trkpt lat="50.98435" lon="2.68114">
        <ele>5.9</ele>
        <time>2020-06-23T14:22:51Z</time>
      </trkpt>
      <trkpt lat="50.98429" lon="2.68121">
        <ele>5.9</ele>
        <time>2020-06-23T14:22:52Z</time>
      </trkpt>
      <trkpt lat="50.98424" lon="2.68129">
        <ele>6</ele>
        <time>2020-06-23T14:22:53Z</time>
      </trkpt>
      <trkpt lat="50.98418" lon="2.68137">
        <ele>6</ele>
        <time>2020-06-23T14:22:54Z</time>
      </trkpt>
      <trkpt lat="50.98413" lon="2.68145">
        <ele>6</ele>
        <time>2020-06-23T14:22:55Z</time>
      </trkpt>
      <trkpt lat="50.98407" lon="2.68153">
        <ele>6</ele>
        <time>2020-06-23T14:22:56Z</time>
      </trkpt>
      <trkpt lat="50.98402" lon="2.6816">
        <ele>6</ele>
        <time>2020-06-23T14:22:57Z</time>
      </trkpt>
      <trkpt lat="50.98397" lon="2.68168">
        <ele>6</ele>
        <time>2020-06-23T14:22:58Z</time>
      </trkpt>
      <trkpt lat="50.98391" lon="2.68175">
        <ele>6</ele>
        <time>2020-06-23T14:22:59Z</time>
      </trkpt>
      <trkpt lat="50.98386" lon="2.6818">
        <ele>6</ele>
        <time>2020-06-23T14:23:00Z</time>
      </trkpt>
      <trkpt lat="50.98378" lon="2.68185">
        <ele>5.9</ele>
        <time>2020-06-23T14:23:01Z</time>
      </trkpt>
      <trkpt lat="50.98372" lon="2.68188">
        <ele>5.9</ele>
        <time>2020-06-23T14:23:02Z</time>
      </trkpt>
      <trkpt lat="50.98365" lon="2.68191">
        <ele>6</ele>
        <time>2020-06-23T14:23:03Z</time>
      </trkpt>
      <trkpt lat="50.98358" lon="2.68196">
        <ele>6.1</ele>
        <time>2020-06-23T14:23:04Z</time>
      </trkpt>
      <trkpt lat="50.98351" lon="2.682">
        <ele>6.2</ele>
        <time>2020-06-23T14:23:05Z</time>
      </trkpt>
      <trkpt lat="50.98345" lon="2.68206">
        <ele>6.2</ele>
        <time>2020-06-23T14:23:06Z</time>
      </trkpt>
      <trkpt lat="50.98338" lon="2.68211">
        <ele>6.2</ele>
        <time>2020-06-23T14:23:07Z</time>
      </trkpt>
      <trkpt lat="50.98331" lon="2.68215">
        <ele>6.2</ele>
        <time>2020-06-23T14:23:08Z</time>
      </trkpt>
      <trkpt lat="50.98325" lon="2.6822">
        <ele>6.2</ele>
        <time>2020-06-23T14:23:09Z</time>
      </trkpt>
      <trkpt lat="50.98318" lon="2.68226">
        <ele>6.2</ele>
        <time>2020-06-23T14:23:10Z</time>
      </trkpt>
      <trkpt lat="50.98311" lon="2.6823">
        <ele>6.2</ele>
        <time>2020-06-23T14:23:11Z</time>
      </trkpt>
      <trkpt lat="50.98305" lon="2.68235">
        <ele>6.2</ele>
        <time>2020-06-23T14:23:12Z</time>
      </trkpt>
      <trkpt lat="50.98299" lon="2.68241">
        <ele>6.2</ele>
        <time>2020-06-23T14:23:13Z</time>
      </trkpt>
      <trkpt lat="50.98292" lon="2.68245">
        <ele>6.2</ele>
        <time>2020-06-23T14:23:14Z</time>
      </trkpt>
      <trkpt lat="50.98285" lon="2.6825">
        <ele>6.3</ele>
        <time>2020-06-23T14:23:15Z</time>
      </trkpt>
      <trkpt lat="50.98279" lon="2.68255">
        <ele>6.3</ele>
        <time>2020-06-23T14:23:16Z</time>
      </trkpt>
      <trkpt lat="50.98273" lon="2.68261">
        <ele>6.4</ele>
        <time>2020-06-23T14:23:17Z</time>
      </trkpt>
      <trkpt lat="50.98266" lon="2.68267">
        <ele>6.5</ele>
        <time>2020-06-23T14:23:18Z</time>
      </trkpt>
      <trkpt lat="50.98261" lon="2.68276">
        <ele>6.6</ele>
        <time>2020-06-23T14:23:19Z</time>
      </trkpt>
      <trkpt lat="50.98256" lon="2.68285">
        <ele>6.7</ele>
        <time>2020-06-23T14:23:20Z</time>
      </trkpt>
      <trkpt lat="50.98252" lon="2.68294">
        <ele>6.8</ele>
        <time>2020-06-23T14:23:21Z</time>
      </trkpt>
      <trkpt lat="50.98248" lon="2.68303">
        <ele>6.9</ele>
        <time>2020-06-23T14:23:22Z</time>
      </trkpt>
      <trkpt lat="50.98244" lon="2.68309">
        <ele>6.9</ele>
        <time>2020-06-23T14:23:23Z</time>
      </trkpt>
      <trkpt lat="50.98239" lon="2.68316">
        <ele>7</ele>
        <time>2020-06-23T14:23:24Z</time>
      </trkpt>
      <trkpt lat="50.98232" lon="2.6832">
        <ele>7.1</ele>
        <time>2020-06-23T14:23:25Z</time>
      </trkpt>
      <trkpt lat="50.98226" lon="2.68324">
        <ele>7.2</ele>
        <time>2020-06-23T14:23:26Z</time>
      </trkpt>
      <trkpt lat="50.9822" lon="2.68329">
        <ele>7.3</ele>
        <time>2020-06-23T14:23:27Z</time>
      </trkpt>
      <trkpt lat="50.98214" lon="2.68333">
        <ele>7.4</ele>
        <time>2020-06-23T14:23:28Z</time>
      </trkpt>
      <trkpt lat="50.98208" lon="2.68338">
        <ele>7.5</ele>
        <time>2020-06-23T14:23:29Z</time>
      </trkpt>
      <trkpt lat="50.98202" lon="2.68342">
        <ele>7.6</ele>
        <time>2020-06-23T14:23:30Z</time>
      </trkpt>
      <trkpt lat="50.98195" lon="2.68347">
        <ele>7.6</ele>
        <time>2020-06-23T14:23:31Z</time>
      </trkpt>
      <trkpt lat="50.9819" lon="2.6835">
        <ele>7.6</ele>
        <time>2020-06-23T14:23:32Z</time>
      </trkpt>
      <trkpt lat="50.98185" lon="2.68354">
        <ele>7.6</ele>
        <time>2020-06-23T14:23:33Z</time>
      </trkpt>
      <trkpt lat="50.98179" lon="2.68358">
        <ele>7.6</ele>
        <time>2020-06-23T14:23:34Z</time>
      </trkpt>
      <trkpt lat="50.98173" lon="2.68362">
        <ele>7.7</ele>
        <time>2020-06-23T14:23:35Z</time>
      </trkpt>
      <trkpt lat="50.98168" lon="2.68366">
        <ele>7.7</ele>
        <time>2020-06-23T14:23:36Z</time>
      </trkpt>
      <trkpt lat="50.98163" lon="2.68371">
        <ele>7.7</ele>
        <time>2020-06-23T14:23:37Z</time>
      </trkpt>
      <trkpt lat="50.98158" lon="2.68375">
        <ele>7.8</ele>
        <time>2020-06-23T14:23:38Z</time>
      </trkpt>
      <trkpt lat="50.98152" lon="2.68379">
        <ele>7.8</ele>
        <time>2020-06-23T14:23:39Z</time>
      </trkpt>
      <trkpt lat="50.98147" lon="2.68382">
        <ele>7.8</ele>
        <time>2020-06-23T14:23:40Z</time>
      </trkpt>
      <trkpt lat="50.98142" lon="2.68386">
        <ele>7.9</ele>
        <time>2020-06-23T14:23:41Z</time>
      </trkpt>
      <trkpt lat="50.98137" lon="2.6839">
        <ele>7.9</ele>
        <time>2020-06-23T14:23:42Z</time>
      </trkpt>
      <trkpt lat="50.98131" lon="2.68396">
        <ele>8</ele>
        <time>2020-06-23T14:23:43Z</time>
      </trkpt>
      <trkpt lat="50.98126" lon="2.68401">
        <ele>8</ele>
        <time>2020-06-23T14:23:44Z</time>
      </trkpt>
      <trkpt lat="50.98121" lon="2.68404">
        <ele>8.1</ele>
        <time>2020-06-23T14:23:45Z</time>
      </trkpt>
      <trkpt lat="50.98117" lon="2.68408">
        <ele>8.1</ele>
        <time>2020-06-23T14:23:46Z</time>
      </trkpt>
      <trkpt lat="50.98113" lon="2.68411">
        <ele>8.2</ele>
        <time>2020-06-23T14:23:47Z</time>
      </trkpt>
      <trkpt lat="50.9811" lon="2.68415">
        <ele>8.2</ele>
        <time>2020-06-23T14:23:48Z</time>
      </trkpt>
      <trkpt lat="50.98105" lon="2.68422">
        <ele>8.2</ele>
        <time>2020-06-23T14:23:49Z</time>
      </trkpt>
      <trkpt lat="50.98103" lon="2.68429">
        <ele>8.1</ele>
        <time>2020-06-23T14:23:50Z</time>
      </trkpt>
      <trkpt lat="50.98101" lon="2.68436">
        <ele>8.1</ele>
        <time>2020-06-23T14:23:51Z</time>
      </trkpt>
      <trkpt lat="50.98104" lon="2.68444">
        <ele>8</ele>
        <time>2020-06-23T14:23:52Z</time>
      </trkpt>
      <trkpt lat="50.98106" lon="2.68451">
        <ele>8</ele>
        <time>2020-06-23T14:23:53Z</time>
      </trkpt>
      <trkpt lat="50.98109" lon="2.68457">
        <ele>7.9</ele>
        <time>2020-06-23T14:23:54Z</time>
      </trkpt>
      <trkpt lat="50.98111" lon="2.68462">
        <ele>7.9</ele>
        <time>2020-06-23T14:23:55Z</time>
      </trkpt>
      <trkpt lat="50.98114" lon="2.68467">
        <ele>7.9</ele>
        <time>2020-06-23T14:23:56Z</time>
      </trkpt>
      <trkpt lat="50.98116" lon="2.68472">
        <ele>7.9</ele>
        <time>2020-06-23T14:23:57Z</time>
      </trkpt>
      <trkpt lat="50.9812" lon="2.68478">
        <ele>7.9</ele>
        <time>2020-06-23T14:23:58Z</time>
      </trkpt>
      <trkpt lat="50.98124" lon="2.68484">
        <ele>7.9</ele>
        <time>2020-06-23T14:23:59Z</time>
      </trkpt>
      <trkpt lat="50.98128" lon="2.68489">
        <ele>7.9</ele>
        <time>2020-06-23T14:24:00Z</time>
      </trkpt>
      <trkpt lat="50.98133" lon="2.68495">
        <ele>7.9</ele>
        <time>2020-06-23T14:24:01Z</time>
      </trkpt>
      <trkpt lat="50.98138" lon="2.68501">
        <ele>7.9</ele>
        <time>2020-06-23T14:24:02Z</time>
      </trkpt>
      <trkpt lat="50.98144" lon="2.68507">
        <ele>7.9</ele>
        <time>2020-06-23T14:24:03Z</time>
      </trkpt>
      <trkpt lat="50.98148" lon="2.68513">
        <ele>7.9</ele>
        <time>2020-06-23T14:24:04Z</time>
      </trkpt>
      <trkpt lat="50.98152" lon="2.68519">
        <ele>7.9</ele>
        <time>2020-06-23T14:24:05Z</time>
      </trkpt>
      <trkpt lat="50.98154" lon="2.68526">
        <ele>7.9</ele>
        <time>2020-06-23T14:24:06Z</time>
      </trkpt>
      <trkpt lat="50.98159" lon="2.68533">
        <ele>7.9</ele>
        <time>2020-06-23T14:24:07Z</time>
      </trkpt>
      <trkpt lat="50.98163" lon="2.68539">
        <ele>8</ele>
        <time>2020-06-23T14:24:08Z</time>
      </trkpt>
      <trkpt lat="50.98166" lon="2.68545">
        <ele>8</ele>
        <time>2020-06-23T14:24:09Z</time>
      </trkpt>
      <trkpt lat="50.9817" lon="2.6855">
        <ele>8</ele>
        <time>2020-06-23T14:24:10Z</time>
      </trkpt>
      <trkpt lat="50.98174" lon="2.68556">
        <ele>8</ele>
        <time>2020-06-23T14:24:11Z</time>
      </trkpt>
      <trkpt lat="50.98177" lon="2.68561">
        <ele>8.1</ele>
        <time>2020-06-23T14:24:12Z</time>
      </trkpt>
      <trkpt lat="50.98182" lon="2.68568">
        <ele>8.1</ele>
        <time>2020-06-23T14:24:13Z</time>
      </trkpt>
      <trkpt lat="50.98185" lon="2.68574">
        <ele>8.2</ele>
        <time>2020-06-23T14:24:14Z</time>
      </trkpt>
      <trkpt lat="50.98189" lon="2.6858">
        <ele>8.2</ele>
        <time>2020-06-23T14:24:15Z</time>
      </trkpt>
      <trkpt lat="50.98193" lon="2.68586">
        <ele>8.2</ele>
        <time>2020-06-23T14:24:16Z</time>
      </trkpt>
      <trkpt lat="50.98198" lon="2.68592">
        <ele>8.3</ele>
        <time>2020-06-23T14:24:17Z</time>
      </trkpt>
      <trkpt lat="50.98202" lon="2.68596">
        <ele>8.3</ele>
        <time>2020-06-23T14:24:18Z</time>
      </trkpt>
      <trkpt lat="50.98207" lon="2.686">
        <ele>8.3</ele>
        <time>2020-06-23T14:24:19Z</time>
      </trkpt>
      <trkpt lat="50.98211" lon="2.68604">
        <ele>8.3</ele>
        <time>2020-06-23T14:24:20Z</time>
      </trkpt>
      <trkpt lat="50.98215" lon="2.68608">
        <ele>8.3</ele>
        <time>2020-06-23T14:24:21Z</time>
      </trkpt>
      <trkpt lat="50.98221" lon="2.68611">
        <ele>8.3</ele>
        <time>2020-06-23T14:24:22Z</time>
      </trkpt>
      <trkpt lat="50.98227" lon="2.68616">
        <ele>8.3</ele>
        <time>2020-06-23T14:24:23Z</time>
      </trkpt>
      <trkpt lat="50.98232" lon="2.68621">
        <ele>8.3</ele>
        <time>2020-06-23T14:24:24Z</time>
      </trkpt>
      <trkpt lat="50.98236" lon="2.68625">
        <ele>8.3</ele>
        <time>2020-06-23T14:24:25Z</time>
      </trkpt>
      <trkpt lat="50.9824" lon="2.68632">
        <ele>8.4</ele>
        <time>2020-06-23T14:24:26Z</time>
      </trkpt>
      <trkpt lat="50.98244" lon="2.68639">
        <ele>8.4</ele>
        <time>2020-06-23T14:24:27Z</time>
      </trkpt>
      <trkpt lat="50.98248" lon="2.68645">
        <ele>8.4</ele>
        <time>2020-06-23T14:24:28Z</time>
      </trkpt>
      <trkpt lat="50.98252" lon="2.68653">
        <ele>8.4</ele>
        <time>2020-06-23T14:24:29Z</time>
      </trkpt>
      <trkpt lat="50.98257" lon="2.68661">
        <ele>8.4</ele>
        <time>2020-06-23T14:24:30Z</time>
      </trkpt>
      <trkpt lat="50.9826" lon="2.68669">
        <ele>8.4</ele>
        <time>2020-06-23T14:24:31Z</time>
      </trkpt>
      <trkpt lat="50.98263" lon="2.68676">
        <ele>8.4</ele>
        <time>2020-06-23T14:24:32Z</time>
      </trkpt>
      <trkpt lat="50.98267" lon="2.68683">
        <ele>8.4</ele>
        <time>2020-06-23T14:24:33Z</time>
      </trkpt>
      <trkpt lat="50.98271" lon="2.68689">
        <ele>8.5</ele>
        <time>2020-06-23T14:24:34Z</time>
      </trkpt>
      <trkpt lat="50.98274" lon="2.68697">
        <ele>8.5</ele>
        <time>2020-06-23T14:24:35Z</time>
      </trkpt>
      <trkpt lat="50.98278" lon="2.68704">
        <ele>8.5</ele>
        <time>2020-06-23T14:24:36Z</time>
      </trkpt>
      <trkpt lat="50.98283" lon="2.68712">
        <ele>8.5</ele>
        <time>2020-06-23T14:24:37Z</time>
      </trkpt>
      <trkpt lat="50.98286" lon="2.68721">
        <ele>8.5</ele>
        <time>2020-06-23T14:24:38Z</time>
      </trkpt>
      <trkpt lat="50.98291" lon="2.68728">
        <ele>8.6</ele>
        <time>2020-06-23T14:24:39Z</time>
      </trkpt>
      <trkpt lat="50.98294" lon="2.68736">
        <ele>8.6</ele>
        <time>2020-06-23T14:24:40Z</time>
      </trkpt>
      <trkpt lat="50.98298" lon="2.68743">
        <ele>8.7</ele>
        <time>2020-06-23T14:24:41Z</time>
      </trkpt>
      <trkpt lat="50.98301" lon="2.6875">
        <ele>8.8</ele>
        <time>2020-06-23T14:24:42Z</time>
      </trkpt>
      <trkpt lat="50.98305" lon="2.68756">
        <ele>8.8</ele>
        <time>2020-06-23T14:24:43Z</time>
      </trkpt>
      <trkpt lat="50.98308" lon="2.68762">
        <ele>8.9</ele>
        <time>2020-06-23T14:24:44Z</time>
      </trkpt>
      <trkpt lat="50.98312" lon="2.68768">
        <ele>8.9</ele>
        <time>2020-06-23T14:24:45Z</time>
      </trkpt>
      <trkpt lat="50.98315" lon="2.68775">
        <ele>9</ele>
        <time>2020-06-23T14:24:46Z</time>
      </trkpt>
      <trkpt lat="50.98317" lon="2.68782">
        <ele>9</ele>
        <time>2020-06-23T14:24:47Z</time>
      </trkpt>
      <trkpt lat="50.9832" lon="2.68789">
        <ele>9.1</ele>
        <time>2020-06-23T14:24:48Z</time>
      </trkpt>
      <trkpt lat="50.98324" lon="2.68797">
        <ele>9.1</ele>
        <time>2020-06-23T14:24:49Z</time>
      </trkpt>
      <trkpt lat="50.98328" lon="2.68805">
        <ele>9.2</ele>
        <time>2020-06-23T14:24:50Z</time>
      </trkpt>
      <trkpt lat="50.98331" lon="2.68813">
        <ele>9.2</ele>
        <time>2020-06-23T14:24:51Z</time>
      </trkpt>
      <trkpt lat="50.98334" lon="2.6882">
        <ele>9.2</ele>
        <time>2020-06-23T14:24:52Z</time>
      </trkpt>
      <trkpt lat="50.98338" lon="2.68827">
        <ele>9.2</ele>
        <time>2020-06-23T14:24:53Z</time>
      </trkpt>
      <trkpt lat="50.98342" lon="2.68833">
        <ele>9.3</ele>
        <time>2020-06-23T14:24:54Z</time>
      </trkpt>
      <trkpt lat="50.98345" lon="2.68839">
        <ele>9.3</ele>
        <time>2020-06-23T14:24:55Z</time>
      </trkpt>
      <trkpt lat="50.98348" lon="2.68846">
        <ele>9.3</ele>
        <time>2020-06-23T14:24:56Z</time>
      </trkpt>
      <trkpt lat="50.98353" lon="2.68856">
        <ele>9.4</ele>
        <time>2020-06-23T14:24:57Z</time>
      </trkpt>
      <trkpt lat="50.98355" lon="2.68862">
        <ele>9.4</ele>
        <time>2020-06-23T14:24:58Z</time>
      </trkpt>
      <trkpt lat="50.98358" lon="2.68868">
        <ele>9.4</ele>
        <time>2020-06-23T14:24:59Z</time>
      </trkpt>
      <trkpt lat="50.98361" lon="2.68873">
        <ele>9.4</ele>
        <time>2020-06-23T14:25:00Z</time>
      </trkpt>
      <trkpt lat="50.98366" lon="2.68878">
        <ele>9.4</ele>
        <time>2020-06-23T14:25:01Z</time>
      </trkpt>
      <trkpt lat="50.9837" lon="2.68885">
        <ele>9.5</ele>
        <time>2020-06-23T14:25:02Z</time>
      </trkpt>
      <trkpt lat="50.98375" lon="2.68892">
        <ele>9.5</ele>
        <time>2020-06-23T14:25:03Z</time>
      </trkpt>
      <trkpt lat="50.98379" lon="2.68897">
        <ele>9.5</ele>
        <time>2020-06-23T14:25:04Z</time>
      </trkpt>
      <trkpt lat="50.98384" lon="2.68905">
        <ele>9.6</ele>
        <time>2020-06-23T14:25:05Z</time>
      </trkpt>
      <trkpt lat="50.98387" lon="2.68912">
        <ele>9.6</ele>
        <time>2020-06-23T14:25:06Z</time>
      </trkpt>
      <trkpt lat="50.98391" lon="2.6892">
        <ele>9.7</ele>
        <time>2020-06-23T14:25:07Z</time>
      </trkpt>
      <trkpt lat="50.98394" lon="2.68927">
        <ele>9.8</ele>
        <time>2020-06-23T14:25:08Z</time>
      </trkpt>
      <trkpt lat="50.98397" lon="2.68933">
        <ele>9.9</ele>
        <time>2020-06-23T14:25:09Z</time>
      </trkpt>
      <trkpt lat="50.984" lon="2.68939">
        <ele>10</ele>
        <time>2020-06-23T14:25:10Z</time>
      </trkpt>
      <trkpt lat="50.98403" lon="2.68946">
        <ele>10.1</ele>
        <time>2020-06-23T14:25:11Z</time>
      </trkpt>
      <trkpt lat="50.98406" lon="2.68952">
        <ele>10.3</ele>
        <time>2020-06-23T14:25:12Z</time>
      </trkpt>
      <trkpt lat="50.98409" lon="2.6896">
        <ele>10.5</ele>
        <time>2020-06-23T14:25:13Z</time>
      </trkpt>
      <trkpt lat="50.98412" lon="2.68966">
        <ele>10.7</ele>
        <time>2020-06-23T14:25:14Z</time>
      </trkpt>
      <trkpt lat="50.98413" lon="2.68972">
        <ele>10.9</ele>
        <time>2020-06-23T14:25:15Z</time>
      </trkpt>
      <trkpt lat="50.98414" lon="2.68977">
        <ele>11</ele>
        <time>2020-06-23T14:25:16Z</time>
      </trkpt>
      <trkpt lat="50.98416" lon="2.68981">
        <ele>11.4</ele>
        <time>2020-06-23T14:25:17Z</time>
      </trkpt>
      <trkpt lat="50.98417" lon="2.68986">
        <ele>11.3</ele>
        <time>2020-06-23T14:25:18Z</time>
      </trkpt>
      <trkpt lat="50.98416" lon="2.6899">
        <ele>11.3</ele>
        <time>2020-06-23T14:25:19Z</time>
      </trkpt>
      <trkpt lat="50.98415" lon="2.68991">
        <ele>11.3</ele>
        <time>2020-06-23T14:25:20Z</time>
      </trkpt>
      <trkpt lat="50.98412" lon="2.6899">
        <ele>11.3</ele>
        <time>2020-06-23T14:25:21Z</time>
      </trkpt>
      <trkpt lat="50.98408" lon="2.68989">
        <ele>11.3</ele>
        <time>2020-06-23T14:25:22Z</time>
      </trkpt>
      <trkpt lat="50.98402" lon="2.6899">
        <ele>11.2</ele>
        <time>2020-06-23T14:25:23Z</time>
      </trkpt>
      <trkpt lat="50.98398" lon="2.68991">
        <ele>11.2</ele>
        <time>2020-06-23T14:25:24Z</time>
      </trkpt>
      <trkpt lat="50.98394" lon="2.68993">
        <ele>11.2</ele>
        <time>2020-06-23T14:25:25Z</time>
      </trkpt>
      <trkpt lat="50.98388" lon="2.68995">
        <ele>11.2</ele>
        <time>2020-06-23T14:25:26Z</time>
      </trkpt>
      <trkpt lat="50.98383" lon="2.68997">
        <ele>11.2</ele>
        <time>2020-06-23T14:25:27Z</time>
      </trkpt>
      <trkpt lat="50.98376" lon="2.68999">
        <ele>11.1</ele>
        <time>2020-06-23T14:25:28Z</time>
      </trkpt>
      <trkpt lat="50.98371" lon="2.69">
        <ele>11.1</ele>
        <time>2020-06-23T14:25:29Z</time>
      </trkpt>
      <trkpt lat="50.98364" lon="2.69002">
        <ele>11.1</ele>
        <time>2020-06-23T14:25:30Z</time>
      </trkpt>
      <trkpt lat="50.98359" lon="2.69003">
        <ele>11.1</ele>
        <time>2020-06-23T14:25:31Z</time>
      </trkpt>
      <trkpt lat="50.98353" lon="2.69004">
        <ele>11.1</ele>
        <time>2020-06-23T14:25:32Z</time>
      </trkpt>
      <trkpt lat="50.98347" lon="2.69006">
        <ele>11.1</ele>
        <time>2020-06-23T14:25:33Z</time>
      </trkpt>
      <trkpt lat="50.9834" lon="2.69008">
        <ele>11.1</ele>
        <time>2020-06-23T14:25:34Z</time>
      </trkpt>
      <trkpt lat="50.98333" lon="2.6901">
        <ele>11</ele>
        <time>2020-06-23T14:25:35Z</time>
      </trkpt>
      <trkpt lat="50.98325" lon="2.69013">
        <ele>11</ele>
        <time>2020-06-23T14:25:36Z</time>
      </trkpt>
      <trkpt lat="50.98318" lon="2.69015">
        <ele>10.9</ele>
        <time>2020-06-23T14:25:37Z</time>
      </trkpt>
      <trkpt lat="50.98311" lon="2.69016">
        <ele>10.9</ele>
        <time>2020-06-23T14:25:38Z</time>
      </trkpt>
      <trkpt lat="50.98304" lon="2.69018">
        <ele>10.8</ele>
        <time>2020-06-23T14:25:39Z</time>
      </trkpt>
      <trkpt lat="50.98298" lon="2.6902">
        <ele>10.8</ele>
        <time>2020-06-23T14:25:40Z</time>
      </trkpt>
      <trkpt lat="50.98291" lon="2.69022">
        <ele>10.8</ele>
        <time>2020-06-23T14:25:41Z</time>
      </trkpt>
      <trkpt lat="50.98284" lon="2.69024">
        <ele>10.8</ele>
        <time>2020-06-23T14:25:42Z</time>
      </trkpt>
      <trkpt lat="50.98278" lon="2.69025">
        <ele>10.8</ele>
        <time>2020-06-23T14:25:43Z</time>
      </trkpt>
      <trkpt lat="50.98271" lon="2.69027">
        <ele>10.8</ele>
        <time>2020-06-23T14:25:44Z</time>
      </trkpt>
      <trkpt lat="50.98265" lon="2.69028">
        <ele>10.8</ele>
        <time>2020-06-23T14:25:45Z</time>
      </trkpt>
      <trkpt lat="50.98259" lon="2.6903">
        <ele>10.7</ele>
        <time>2020-06-23T14:25:46Z</time>
      </trkpt>
      <trkpt lat="50.98253" lon="2.69031">
        <ele>10.7</ele>
        <time>2020-06-23T14:25:47Z</time>
      </trkpt>
      <trkpt lat="50.98247" lon="2.69033">
        <ele>10.7</ele>
        <time>2020-06-23T14:25:48Z</time>
      </trkpt>
      <trkpt lat="50.9824" lon="2.69034">
        <ele>10.7</ele>
        <time>2020-06-23T14:25:49Z</time>
      </trkpt>
      <trkpt lat="50.98233" lon="2.69036">
        <ele>10.7</ele>
        <time>2020-06-23T14:25:50Z</time>
      </trkpt>
      <trkpt lat="50.98226" lon="2.69038">
        <ele>10.7</ele>
        <time>2020-06-23T14:25:51Z</time>
      </trkpt>
      <trkpt lat="50.9822" lon="2.6904">
        <ele>10.6</ele>
        <time>2020-06-23T14:25:52Z</time>
      </trkpt>
      <trkpt lat="50.98214" lon="2.69042">
        <ele>10.5</ele>
        <time>2020-06-23T14:25:53Z</time>
      </trkpt>
      <trkpt lat="50.98207" lon="2.69044">
        <ele>10.5</ele>
        <time>2020-06-23T14:25:54Z</time>
      </trkpt>
      <trkpt lat="50.982" lon="2.69046">
        <ele>10.4</ele>
        <time>2020-06-23T14:25:55Z</time>
      </trkpt>
      <trkpt lat="50.98194" lon="2.69048">
        <ele>10.4</ele>
        <time>2020-06-23T14:25:56Z</time>
      </trkpt>
      <trkpt lat="50.98187" lon="2.6905">
        <ele>10.4</ele>
        <time>2020-06-23T14:25:57Z</time>
      </trkpt>
      <trkpt lat="50.9818" lon="2.69051">
        <ele>10.3</ele>
        <time>2020-06-23T14:25:58Z</time>
      </trkpt>
      <trkpt lat="50.98173" lon="2.69053">
        <ele>10.3</ele>
        <time>2020-06-23T14:25:59Z</time>
      </trkpt>
      <trkpt lat="50.98166" lon="2.69055">
        <ele>10.4</ele>
        <time>2020-06-23T14:26:00Z</time>
      </trkpt>
      <trkpt lat="50.98159" lon="2.69057">
        <ele>10.4</ele>
        <time>2020-06-23T14:26:01Z</time>
      </trkpt>
      <trkpt lat="50.98153" lon="2.6906">
        <ele>10.4</ele>
        <time>2020-06-23T14:26:02Z</time>
      </trkpt>
      <trkpt lat="50.98146" lon="2.69062">
        <ele>10.4</ele>
        <time>2020-06-23T14:26:03Z</time>
      </trkpt>
      <trkpt lat="50.98139" lon="2.69064">
        <ele>10.4</ele>
        <time>2020-06-23T14:26:04Z</time>
      </trkpt>
      <trkpt lat="50.98132" lon="2.69065">
        <ele>10.4</ele>
        <time>2020-06-23T14:26:05Z</time>
      </trkpt>
      <trkpt lat="50.98125" lon="2.69067">
        <ele>10.4</ele>
        <time>2020-06-23T14:26:06Z</time>
      </trkpt>
      <trkpt lat="50.98118" lon="2.69069">
        <ele>10.3</ele>
        <time>2020-06-23T14:26:07Z</time>
      </trkpt>
      <trkpt lat="50.98111" lon="2.6907">
        <ele>10.2</ele>
        <time>2020-06-23T14:26:08Z</time>
      </trkpt>
      <trkpt lat="50.98104" lon="2.69073">
        <ele>10.1</ele>
        <time>2020-06-23T14:26:09Z</time>
      </trkpt>
      <trkpt lat="50.98097" lon="2.69075">
        <ele>10</ele>
        <time>2020-06-23T14:26:10Z</time>
      </trkpt>
      <trkpt lat="50.9809" lon="2.69077">
        <ele>10</ele>
        <time>2020-06-23T14:26:11Z</time>
      </trkpt>
      <trkpt lat="50.98084" lon="2.69081">
        <ele>10</ele>
        <time>2020-06-23T14:26:12Z</time>
      </trkpt>
      <trkpt lat="50.98077" lon="2.69082">
        <ele>10.1</ele>
        <time>2020-06-23T14:26:13Z</time>
      </trkpt>
      <trkpt lat="50.9807" lon="2.69084">
        <ele>10.1</ele>
        <time>2020-06-23T14:26:14Z</time>
      </trkpt>
      <trkpt lat="50.98063" lon="2.69087">
        <ele>10.1</ele>
        <time>2020-06-23T14:26:15Z</time>
      </trkpt>
      <trkpt lat="50.98057" lon="2.6909">
        <ele>10.1</ele>
        <time>2020-06-23T14:26:16Z</time>
      </trkpt>
      <trkpt lat="50.98051" lon="2.69094">
        <ele>10.1</ele>
        <time>2020-06-23T14:26:17Z</time>
      </trkpt>
      <trkpt lat="50.98044" lon="2.69097">
        <ele>10.1</ele>
        <time>2020-06-23T14:26:18Z</time>
      </trkpt>
      <trkpt lat="50.98038" lon="2.69102">
        <ele>10.1</ele>
        <time>2020-06-23T14:26:19Z</time>
      </trkpt>
      <trkpt lat="50.98032" lon="2.69106">
        <ele>10.2</ele>
        <time>2020-06-23T14:26:20Z</time>
      </trkpt>
      <trkpt lat="50.98025" lon="2.69111">
        <ele>10.2</ele>
        <time>2020-06-23T14:26:21Z</time>
      </trkpt>
      <trkpt lat="50.98019" lon="2.69116">
        <ele>10.2</ele>
        <time>2020-06-23T14:26:22Z</time>
      </trkpt>
      <trkpt lat="50.98012" lon="2.69122">
        <ele>10.3</ele>
        <time>2020-06-23T14:26:23Z</time>
      </trkpt>
      <trkpt lat="50.98006" lon="2.69128">
        <ele>10.3</ele>
        <time>2020-06-23T14:26:24Z</time>
      </trkpt>
      <trkpt lat="50.97999" lon="2.69133">
        <ele>10.4</ele>
        <time>2020-06-23T14:26:25Z</time>
      </trkpt>
      <trkpt lat="50.97992" lon="2.69137">
        <ele>10.4</ele>
        <time>2020-06-23T14:26:26Z</time>
      </trkpt>
      <trkpt lat="50.97986" lon="2.69142">
        <ele>10.5</ele>
        <time>2020-06-23T14:26:27Z</time>
      </trkpt>
      <trkpt lat="50.97979" lon="2.69145">
        <ele>10.5</ele>
        <time>2020-06-23T14:26:28Z</time>
      </trkpt>
      <trkpt lat="50.97972" lon="2.6915">
        <ele>10.6</ele>
        <time>2020-06-23T14:26:29Z</time>
      </trkpt>
      <trkpt lat="50.97966" lon="2.69154">
        <ele>10.6</ele>
        <time>2020-06-23T14:26:30Z</time>
      </trkpt>
      <trkpt lat="50.97959" lon="2.69159">
        <ele>10.7</ele>
        <time>2020-06-23T14:26:31Z</time>
      </trkpt>
      <trkpt lat="50.97953" lon="2.69165">
        <ele>10.7</ele>
        <time>2020-06-23T14:26:32Z</time>
      </trkpt>
      <trkpt lat="50.97949" lon="2.69173">
        <ele>10.7</ele>
        <time>2020-06-23T14:26:33Z</time>
      </trkpt>
      <trkpt lat="50.97943" lon="2.69177">
        <ele>10.7</ele>
        <time>2020-06-23T14:26:34Z</time>
      </trkpt>
      <trkpt lat="50.97937" lon="2.69182">
        <ele>10.6</ele>
        <time>2020-06-23T14:26:35Z</time>
      </trkpt>
      <trkpt lat="50.97932" lon="2.69187">
        <ele>10.6</ele>
        <time>2020-06-23T14:26:36Z</time>
      </trkpt>
      <trkpt lat="50.97927" lon="2.69192">
        <ele>10.6</ele>
        <time>2020-06-23T14:26:37Z</time>
      </trkpt>
      <trkpt lat="50.97923" lon="2.69199">
        <ele>10.6</ele>
        <time>2020-06-23T14:26:38Z</time>
      </trkpt>
      <trkpt lat="50.97917" lon="2.69202">
        <ele>10.6</ele>
        <time>2020-06-23T14:26:39Z</time>
      </trkpt>
      <trkpt lat="50.97911" lon="2.69207">
        <ele>10.6</ele>
        <time>2020-06-23T14:26:40Z</time>
      </trkpt>
      <trkpt lat="50.97905" lon="2.69212">
        <ele>10.7</ele>
        <time>2020-06-23T14:26:41Z</time>
      </trkpt>
      <trkpt lat="50.97899" lon="2.69218">
        <ele>10.7</ele>
        <time>2020-06-23T14:26:42Z</time>
      </trkpt>
      <trkpt lat="50.97894" lon="2.69225">
        <ele>10.7</ele>
        <time>2020-06-23T14:26:43Z</time>
      </trkpt>
      <trkpt lat="50.97888" lon="2.69232">
        <ele>10.7</ele>
        <time>2020-06-23T14:26:44Z</time>
      </trkpt>
      <trkpt lat="50.97882" lon="2.69239">
        <ele>10.8</ele>
        <time>2020-06-23T14:26:45Z</time>
      </trkpt>
      <trkpt lat="50.97876" lon="2.69245">
        <ele>10.8</ele>
        <time>2020-06-23T14:26:46Z</time>
      </trkpt>
      <trkpt lat="50.97869" lon="2.69251">
        <ele>10.8</ele>
        <time>2020-06-23T14:26:47Z</time>
      </trkpt>
      <trkpt lat="50.97864" lon="2.69257">
        <ele>10.7</ele>
        <time>2020-06-23T14:26:48Z</time>
      </trkpt>
      <trkpt lat="50.97857" lon="2.69262">
        <ele>10.6</ele>
        <time>2020-06-23T14:26:49Z</time>
      </trkpt>
      <trkpt lat="50.97851" lon="2.69269">
        <ele>10.7</ele>
        <time>2020-06-23T14:26:50Z</time>
      </trkpt>
      <trkpt lat="50.97845" lon="2.69275">
        <ele>10.7</ele>
        <time>2020-06-23T14:26:51Z</time>
      </trkpt>
      <trkpt lat="50.97839" lon="2.69281">
        <ele>10.6</ele>
        <time>2020-06-23T14:26:52Z</time>
      </trkpt>
      <trkpt lat="50.97834" lon="2.69287">
        <ele>10.6</ele>
        <time>2020-06-23T14:26:53Z</time>
      </trkpt>
      <trkpt lat="50.97828" lon="2.69294">
        <ele>10.5</ele>
        <time>2020-06-23T14:26:54Z</time>
      </trkpt>
      <trkpt lat="50.97822" lon="2.693">
        <ele>10.5</ele>
        <time>2020-06-23T14:26:55Z</time>
      </trkpt>
      <trkpt lat="50.97816" lon="2.69306">
        <ele>10.5</ele>
        <time>2020-06-23T14:26:56Z</time>
      </trkpt>
      <trkpt lat="50.9781" lon="2.69312">
        <ele>10.4</ele>
        <time>2020-06-23T14:26:57Z</time>
      </trkpt>
      <trkpt lat="50.97804" lon="2.69319">
        <ele>10.4</ele>
        <time>2020-06-23T14:26:58Z</time>
      </trkpt>
      <trkpt lat="50.97798" lon="2.69324">
        <ele>10.4</ele>
        <time>2020-06-23T14:26:59Z</time>
      </trkpt>
      <trkpt lat="50.97792" lon="2.6933">
        <ele>10.4</ele>
        <time>2020-06-23T14:27:00Z</time>
      </trkpt>
      <trkpt lat="50.97786" lon="2.69335">
        <ele>10.4</ele>
        <time>2020-06-23T14:27:01Z</time>
      </trkpt>
      <trkpt lat="50.9778" lon="2.69342">
        <ele>10.4</ele>
        <time>2020-06-23T14:27:02Z</time>
      </trkpt>
      <trkpt lat="50.97775" lon="2.6935">
        <ele>10.3</ele>
        <time>2020-06-23T14:27:03Z</time>
      </trkpt>
      <trkpt lat="50.97768" lon="2.69356">
        <ele>10.3</ele>
        <time>2020-06-23T14:27:04Z</time>
      </trkpt>
      <trkpt lat="50.97762" lon="2.69361">
        <ele>10.3</ele>
        <time>2020-06-23T14:27:05Z</time>
      </trkpt>
      <trkpt lat="50.97756" lon="2.69368">
        <ele>10.3</ele>
        <time>2020-06-23T14:27:06Z</time>
      </trkpt>
      <trkpt lat="50.9775" lon="2.69375">
        <ele>10.3</ele>
        <time>2020-06-23T14:27:07Z</time>
      </trkpt>
      <trkpt lat="50.97743" lon="2.69382">
        <ele>9.9</ele>
        <time>2020-06-23T14:27:08Z</time>
      </trkpt>
      <trkpt lat="50.97737" lon="2.69389">
        <ele>9.8</ele>
        <time>2020-06-23T14:27:09Z</time>
      </trkpt>
      <trkpt lat="50.97731" lon="2.69396">
        <ele>9.6</ele>
        <time>2020-06-23T14:27:10Z</time>
      </trkpt>
      <trkpt lat="50.97724" lon="2.69402">
        <ele>9.5</ele>
        <time>2020-06-23T14:27:11Z</time>
      </trkpt>
      <trkpt lat="50.97717" lon="2.69408">
        <ele>9.4</ele>
        <time>2020-06-23T14:27:12Z</time>
      </trkpt>
      <trkpt lat="50.97711" lon="2.69414">
        <ele>9.3</ele>
        <time>2020-06-23T14:27:13Z</time>
      </trkpt>
      <trkpt lat="50.97705" lon="2.69421">
        <ele>9.2</ele>
        <time>2020-06-23T14:27:14Z</time>
      </trkpt>
      <trkpt lat="50.97699" lon="2.69427">
        <ele>9.2</ele>
        <time>2020-06-23T14:27:15Z</time>
      </trkpt>
      <trkpt lat="50.97693" lon="2.69433">
        <ele>9.2</ele>
        <time>2020-06-23T14:27:16Z</time>
      </trkpt>
      <trkpt lat="50.97687" lon="2.69437">
        <ele>9.2</ele>
        <time>2020-06-23T14:27:17Z</time>
      </trkpt>
      <trkpt lat="50.97681" lon="2.69441">
        <ele>9.1</ele>
        <time>2020-06-23T14:27:18Z</time>
      </trkpt>
      <trkpt lat="50.97674" lon="2.69446">
        <ele>9.1</ele>
        <time>2020-06-23T14:27:19Z</time>
      </trkpt>
      <trkpt lat="50.97668" lon="2.69452">
        <ele>9.1</ele>
        <time>2020-06-23T14:27:20Z</time>
      </trkpt>
      <trkpt lat="50.97663" lon="2.69458">
        <ele>9.1</ele>
        <time>2020-06-23T14:27:21Z</time>
      </trkpt>
      <trkpt lat="50.97657" lon="2.69465">
        <ele>9.1</ele>
        <time>2020-06-23T14:27:22Z</time>
      </trkpt>
      <trkpt lat="50.97651" lon="2.69471">
        <ele>9.2</ele>
        <time>2020-06-23T14:27:23Z</time>
      </trkpt>
      <trkpt lat="50.97645" lon="2.69477">
        <ele>9.3</ele>
        <time>2020-06-23T14:27:24Z</time>
      </trkpt>
      <trkpt lat="50.97639" lon="2.69483">
        <ele>9.4</ele>
        <time>2020-06-23T14:27:25Z</time>
      </trkpt>
      <trkpt lat="50.97633" lon="2.69489">
        <ele>9.3</ele>
        <time>2020-06-23T14:27:26Z</time>
      </trkpt>
      <trkpt lat="50.97627" lon="2.69495">
        <ele>9.2</ele>
        <time>2020-06-23T14:27:27Z</time>
      </trkpt>
      <trkpt lat="50.97621" lon="2.69501">
        <ele>9.2</ele>
        <time>2020-06-23T14:27:28Z</time>
      </trkpt>
      <trkpt lat="50.97615" lon="2.69508">
        <ele>9.2</ele>
        <time>2020-06-23T14:27:29Z</time>
      </trkpt>
      <trkpt lat="50.97609" lon="2.69515">
        <ele>9.2</ele>
        <time>2020-06-23T14:27:30Z</time>
      </trkpt>
      <trkpt lat="50.97603" lon="2.69521">
        <ele>9.2</ele>
        <time>2020-06-23T14:27:31Z</time>
      </trkpt>
      <trkpt lat="50.97597" lon="2.69526">
        <ele>9.2</ele>
        <time>2020-06-23T14:27:32Z</time>
      </trkpt>
      <trkpt lat="50.97591" lon="2.69533">
        <ele>9.2</ele>
        <time>2020-06-23T14:27:33Z</time>
      </trkpt>
      <trkpt lat="50.97585" lon="2.69539">
        <ele>9.2</ele>
        <time>2020-06-23T14:27:34Z</time>
      </trkpt>
      <trkpt lat="50.97579" lon="2.69545">
        <ele>9.3</ele>
        <time>2020-06-23T14:27:35Z</time>
      </trkpt>
      <trkpt lat="50.97574" lon="2.69552">
        <ele>9.3</ele>
        <time>2020-06-23T14:27:36Z</time>
      </trkpt>
      <trkpt lat="50.97569" lon="2.69559">
        <ele>9.4</ele>
        <time>2020-06-23T14:27:37Z</time>
      </trkpt>
      <trkpt lat="50.97563" lon="2.69565">
        <ele>9.2</ele>
        <time>2020-06-23T14:27:38Z</time>
      </trkpt>
      <trkpt lat="50.97557" lon="2.69571">
        <ele>9.1</ele>
        <time>2020-06-23T14:27:39Z</time>
      </trkpt>
      <trkpt lat="50.97552" lon="2.69576">
        <ele>9</ele>
        <time>2020-06-23T14:27:40Z</time>
      </trkpt>
      <trkpt lat="50.97546" lon="2.69582">
        <ele>8.9</ele>
        <time>2020-06-23T14:27:41Z</time>
      </trkpt>
      <trkpt lat="50.97541" lon="2.69589">
        <ele>8.9</ele>
        <time>2020-06-23T14:27:42Z</time>
      </trkpt>
      <trkpt lat="50.97536" lon="2.69594">
        <ele>8.8</ele>
        <time>2020-06-23T14:27:43Z</time>
      </trkpt>
      <trkpt lat="50.97531" lon="2.696">
        <ele>8.8</ele>
        <time>2020-06-23T14:27:44Z</time>
      </trkpt>
      <trkpt lat="50.97525" lon="2.69605">
        <ele>8.8</ele>
        <time>2020-06-23T14:27:45Z</time>
      </trkpt>
      <trkpt lat="50.9752" lon="2.69611">
        <ele>8.8</ele>
        <time>2020-06-23T14:27:46Z</time>
      </trkpt>
      <trkpt lat="50.97515" lon="2.69618">
        <ele>8.7</ele>
        <time>2020-06-23T14:27:47Z</time>
      </trkpt>
      <trkpt lat="50.97509" lon="2.69623">
        <ele>8.7</ele>
        <time>2020-06-23T14:27:48Z</time>
      </trkpt>
      <trkpt lat="50.97503" lon="2.6963">
        <ele>8.6</ele>
        <time>2020-06-23T14:27:49Z</time>
      </trkpt>
      <trkpt lat="50.97497" lon="2.69636">
        <ele>8.6</ele>
        <time>2020-06-23T14:27:50Z</time>
      </trkpt>
      <trkpt lat="50.97491" lon="2.69642">
        <ele>8.5</ele>
        <time>2020-06-23T14:27:51Z</time>
      </trkpt>
      <trkpt lat="50.97485" lon="2.69648">
        <ele>8.5</ele>
        <time>2020-06-23T14:27:52Z</time>
      </trkpt>
      <trkpt lat="50.97479" lon="2.69654">
        <ele>8.5</ele>
        <time>2020-06-23T14:27:53Z</time>
      </trkpt>
      <trkpt lat="50.97473" lon="2.69661">
        <ele>8.5</ele>
        <time>2020-06-23T14:27:54Z</time>
      </trkpt>
      <trkpt lat="50.97467" lon="2.69667">
        <ele>8.6</ele>
        <time>2020-06-23T14:27:55Z</time>
      </trkpt>
      <trkpt lat="50.9746" lon="2.69673">
        <ele>8.6</ele>
        <time>2020-06-23T14:27:56Z</time>
      </trkpt>
      <trkpt lat="50.97454" lon="2.6968">
        <ele>8.7</ele>
        <time>2020-06-23T14:27:57Z</time>
      </trkpt>
      <trkpt lat="50.97448" lon="2.69686">
        <ele>8.7</ele>
        <time>2020-06-23T14:27:58Z</time>
      </trkpt>
      <trkpt lat="50.97442" lon="2.69692">
        <ele>8.8</ele>
        <time>2020-06-23T14:27:59Z</time>
      </trkpt>
      <trkpt lat="50.97436" lon="2.69699">
        <ele>8.8</ele>
        <time>2020-06-23T14:28:00Z</time>
      </trkpt>
      <trkpt lat="50.9743" lon="2.69706">
        <ele>8.9</ele>
        <time>2020-06-23T14:28:01Z</time>
      </trkpt>
      <trkpt lat="50.97424" lon="2.69713">
        <ele>9</ele>
        <time>2020-06-23T14:28:02Z</time>
      </trkpt>
      <trkpt lat="50.97418" lon="2.69719">
        <ele>9</ele>
        <time>2020-06-23T14:28:03Z</time>
      </trkpt>
      <trkpt lat="50.97411" lon="2.69724">
        <ele>8.7</ele>
        <time>2020-06-23T14:28:04Z</time>
      </trkpt>
      <trkpt lat="50.97405" lon="2.69731">
        <ele>8.6</ele>
        <time>2020-06-23T14:28:05Z</time>
      </trkpt>
      <trkpt lat="50.97398" lon="2.69737">
        <ele>8.5</ele>
        <time>2020-06-23T14:28:06Z</time>
      </trkpt>
      <trkpt lat="50.97392" lon="2.69744">
        <ele>8.5</ele>
        <time>2020-06-23T14:28:07Z</time>
      </trkpt>
      <trkpt lat="50.97386" lon="2.69751">
        <ele>8.4</ele>
        <time>2020-06-23T14:28:08Z</time>
      </trkpt>
      <trkpt lat="50.9738" lon="2.69758">
        <ele>8.4</ele>
        <time>2020-06-23T14:28:09Z</time>
      </trkpt>
      <trkpt lat="50.97373" lon="2.69764">
        <ele>8.4</ele>
        <time>2020-06-23T14:28:10Z</time>
      </trkpt>
      <trkpt lat="50.97367" lon="2.6977">
        <ele>8.4</ele>
        <time>2020-06-23T14:28:11Z</time>
      </trkpt>
      <trkpt lat="50.97361" lon="2.69777">
        <ele>8.4</ele>
        <time>2020-06-23T14:28:12Z</time>
      </trkpt>
      <trkpt lat="50.97355" lon="2.69783">
        <ele>8.4</ele>
        <time>2020-06-23T14:28:13Z</time>
      </trkpt>
      <trkpt lat="50.97349" lon="2.69789">
        <ele>8.4</ele>
        <time>2020-06-23T14:28:14Z</time>
      </trkpt>
      <trkpt lat="50.97342" lon="2.69796">
        <ele>8.3</ele>
        <time>2020-06-23T14:28:15Z</time>
      </trkpt>
      <trkpt lat="50.97336" lon="2.69802">
        <ele>8.3</ele>
        <time>2020-06-23T14:28:16Z</time>
      </trkpt>
      <trkpt lat="50.97329" lon="2.69809">
        <ele>8.2</ele>
        <time>2020-06-23T14:28:17Z</time>
      </trkpt>
      <trkpt lat="50.97323" lon="2.69815">
        <ele>8.2</ele>
        <time>2020-06-23T14:28:18Z</time>
      </trkpt>
      <trkpt lat="50.97317" lon="2.69822">
        <ele>8.3</ele>
        <time>2020-06-23T14:28:19Z</time>
      </trkpt>
      <trkpt lat="50.9731" lon="2.69828">
        <ele>8.4</ele>
        <time>2020-06-23T14:28:20Z</time>
      </trkpt>
      <trkpt lat="50.97304" lon="2.69835">
        <ele>8.6</ele>
        <time>2020-06-23T14:28:21Z</time>
      </trkpt>
      <trkpt lat="50.97298" lon="2.69842">
        <ele>8.6</ele>
        <time>2020-06-23T14:28:22Z</time>
      </trkpt>
      <trkpt lat="50.97292" lon="2.69848">
        <ele>8.5</ele>
        <time>2020-06-23T14:28:23Z</time>
      </trkpt>
      <trkpt lat="50.97285" lon="2.69855">
        <ele>8.4</ele>
        <time>2020-06-23T14:28:24Z</time>
      </trkpt>
      <trkpt lat="50.97279" lon="2.69861">
        <ele>8.4</ele>
        <time>2020-06-23T14:28:25Z</time>
      </trkpt>
      <trkpt lat="50.97273" lon="2.69868">
        <ele>8.4</ele>
        <time>2020-06-23T14:28:26Z</time>
      </trkpt>
      <trkpt lat="50.97267" lon="2.69874">
        <ele>8.4</ele>
        <time>2020-06-23T14:28:27Z</time>
      </trkpt>
      <trkpt lat="50.9726" lon="2.6988">
        <ele>8.4</ele>
        <time>2020-06-23T14:28:28Z</time>
      </trkpt>
      <trkpt lat="50.97254" lon="2.69886">
        <ele>8.5</ele>
        <time>2020-06-23T14:28:29Z</time>
      </trkpt>
      <trkpt lat="50.97248" lon="2.69893">
        <ele>8.5</ele>
        <time>2020-06-23T14:28:30Z</time>
      </trkpt>
      <trkpt lat="50.97241" lon="2.699">
        <ele>8.5</ele>
        <time>2020-06-23T14:28:31Z</time>
      </trkpt>
      <trkpt lat="50.97235" lon="2.69906">
        <ele>8.6</ele>
        <time>2020-06-23T14:28:32Z</time>
      </trkpt>
      <trkpt lat="50.97228" lon="2.69911">
        <ele>8.6</ele>
        <time>2020-06-23T14:28:33Z</time>
      </trkpt>
      <trkpt lat="50.97222" lon="2.69918">
        <ele>8.7</ele>
        <time>2020-06-23T14:28:34Z</time>
      </trkpt>
      <trkpt lat="50.97215" lon="2.69924">
        <ele>8.7</ele>
        <time>2020-06-23T14:28:35Z</time>
      </trkpt>
      <trkpt lat="50.97209" lon="2.69931">
        <ele>8.8</ele>
        <time>2020-06-23T14:28:36Z</time>
      </trkpt>
      <trkpt lat="50.97203" lon="2.69938">
        <ele>8.8</ele>
        <time>2020-06-23T14:28:37Z</time>
      </trkpt>
      <trkpt lat="50.97196" lon="2.69944">
        <ele>8.8</ele>
        <time>2020-06-23T14:28:38Z</time>
      </trkpt>
      <trkpt lat="50.97189" lon="2.69951">
        <ele>8.6</ele>
        <time>2020-06-23T14:28:39Z</time>
      </trkpt>
      <trkpt lat="50.97183" lon="2.69958">
        <ele>8.5</ele>
        <time>2020-06-23T14:28:40Z</time>
      </trkpt>
      <trkpt lat="50.97177" lon="2.69965">
        <ele>8.4</ele>
        <time>2020-06-23T14:28:41Z</time>
      </trkpt>
      <trkpt lat="50.9717" lon="2.69971">
        <ele>8.3</ele>
        <time>2020-06-23T14:28:42Z</time>
      </trkpt>
      <trkpt lat="50.97163" lon="2.69978">
        <ele>8.2</ele>
        <time>2020-06-23T14:28:43Z</time>
      </trkpt>
      <trkpt lat="50.97157" lon="2.69985">
        <ele>8.1</ele>
        <time>2020-06-23T14:28:44Z</time>
      </trkpt>
      <trkpt lat="50.97151" lon="2.69993">
        <ele>8</ele>
        <time>2020-06-23T14:28:45Z</time>
      </trkpt>
      <trkpt lat="50.97144" lon="2.69999">
        <ele>7.9</ele>
        <time>2020-06-23T14:28:46Z</time>
      </trkpt>
      <trkpt lat="50.97137" lon="2.70006">
        <ele>7.8</ele>
        <time>2020-06-23T14:28:47Z</time>
      </trkpt>
      <trkpt lat="50.97131" lon="2.70013">
        <ele>7.7</ele>
        <time>2020-06-23T14:28:48Z</time>
      </trkpt>
      <trkpt lat="50.97125" lon="2.7002">
        <ele>7.6</ele>
        <time>2020-06-23T14:28:49Z</time>
      </trkpt>
      <trkpt lat="50.97118" lon="2.70027">
        <ele>7.5</ele>
        <time>2020-06-23T14:28:50Z</time>
      </trkpt>
      <trkpt lat="50.97112" lon="2.70034">
        <ele>7.4</ele>
        <time>2020-06-23T14:28:51Z</time>
      </trkpt>
      <trkpt lat="50.97106" lon="2.70041">
        <ele>7.2</ele>
        <time>2020-06-23T14:28:52Z</time>
      </trkpt>
      <trkpt lat="50.971" lon="2.70048">
        <ele>7.1</ele>
        <time>2020-06-23T14:28:53Z</time>
      </trkpt>
      <trkpt lat="50.97093" lon="2.70055">
        <ele>6.9</ele>
        <time>2020-06-23T14:28:54Z</time>
      </trkpt>
      <trkpt lat="50.97087" lon="2.70061">
        <ele>6.8</ele>
        <time>2020-06-23T14:28:55Z</time>
      </trkpt>
      <trkpt lat="50.9708" lon="2.70067">
        <ele>6.6</ele>
        <time>2020-06-23T14:28:56Z</time>
      </trkpt>
      <trkpt lat="50.97073" lon="2.70075">
        <ele>6.5</ele>
        <time>2020-06-23T14:28:57Z</time>
      </trkpt>
      <trkpt lat="50.97066" lon="2.70082">
        <ele>6.4</ele>
        <time>2020-06-23T14:28:58Z</time>
      </trkpt>
      <trkpt lat="50.97059" lon="2.70088">
        <ele>6.3</ele>
        <time>2020-06-23T14:28:59Z</time>
      </trkpt>
      <trkpt lat="50.97053" lon="2.70096">
        <ele>6.2</ele>
        <time>2020-06-23T14:29:00Z</time>
      </trkpt>
      <trkpt lat="50.97046" lon="2.70103">
        <ele>6.1</ele>
        <time>2020-06-23T14:29:01Z</time>
      </trkpt>
      <trkpt lat="50.97039" lon="2.7011">
        <ele>6</ele>
        <time>2020-06-23T14:29:02Z</time>
      </trkpt>
      <trkpt lat="50.97032" lon="2.70117">
        <ele>5.9</ele>
        <time>2020-06-23T14:29:03Z</time>
      </trkpt>
      <trkpt lat="50.97026" lon="2.70124">
        <ele>5.8</ele>
        <time>2020-06-23T14:29:04Z</time>
      </trkpt>
      <trkpt lat="50.97019" lon="2.70131">
        <ele>5.7</ele>
        <time>2020-06-23T14:29:05Z</time>
      </trkpt>
      <trkpt lat="50.97013" lon="2.70138">
        <ele>5.6</ele>
        <time>2020-06-23T14:29:06Z</time>
      </trkpt>
      <trkpt lat="50.97007" lon="2.70145">
        <ele>5.5</ele>
        <time>2020-06-23T14:29:07Z</time>
      </trkpt>
      <trkpt lat="50.97001" lon="2.70151">
        <ele>5.5</ele>
        <time>2020-06-23T14:29:08Z</time>
      </trkpt>
      <trkpt lat="50.96995" lon="2.70158">
        <ele>5.4</ele>
        <time>2020-06-23T14:29:09Z</time>
      </trkpt>
      <trkpt lat="50.96989" lon="2.70164">
        <ele>5.4</ele>
        <time>2020-06-23T14:29:10Z</time>
      </trkpt>
      <trkpt lat="50.96983" lon="2.7017">
        <ele>5.3</ele>
        <time>2020-06-23T14:29:11Z</time>
      </trkpt>
      <trkpt lat="50.96976" lon="2.70176">
        <ele>5.2</ele>
        <time>2020-06-23T14:29:12Z</time>
      </trkpt>
      <trkpt lat="50.9697" lon="2.70183">
        <ele>5.1</ele>
        <time>2020-06-23T14:29:13Z</time>
      </trkpt>
      <trkpt lat="50.96963" lon="2.70189">
        <ele>5.1</ele>
        <time>2020-06-23T14:29:14Z</time>
      </trkpt>
      <trkpt lat="50.96957" lon="2.70196">
        <ele>5.1</ele>
        <time>2020-06-23T14:29:15Z</time>
      </trkpt>
      <trkpt lat="50.9695" lon="2.70202">
        <ele>5.2</ele>
        <time>2020-06-23T14:29:16Z</time>
      </trkpt>
      <trkpt lat="50.96944" lon="2.70208">
        <ele>5.4</ele>
        <time>2020-06-23T14:29:17Z</time>
      </trkpt>
      <trkpt lat="50.96938" lon="2.70214">
        <ele>5.2</ele>
        <time>2020-06-23T14:29:18Z</time>
      </trkpt>
      <trkpt lat="50.96932" lon="2.7022">
        <ele>5</ele>
        <time>2020-06-23T14:29:19Z</time>
      </trkpt>
      <trkpt lat="50.96926" lon="2.70227">
        <ele>4.9</ele>
        <time>2020-06-23T14:29:20Z</time>
      </trkpt>
      <trkpt lat="50.9692" lon="2.70235">
        <ele>4.8</ele>
        <time>2020-06-23T14:29:21Z</time>
      </trkpt>
      <trkpt lat="50.96914" lon="2.70241">
        <ele>4.7</ele>
        <time>2020-06-23T14:29:22Z</time>
      </trkpt>
      <trkpt lat="50.96907" lon="2.70248">
        <ele>4.7</ele>
        <time>2020-06-23T14:29:23Z</time>
      </trkpt>
      <trkpt lat="50.96901" lon="2.70254">
        <ele>4.7</ele>
        <time>2020-06-23T14:29:24Z</time>
      </trkpt>
      <trkpt lat="50.96895" lon="2.70261">
        <ele>4.7</ele>
        <time>2020-06-23T14:29:25Z</time>
      </trkpt>
      <trkpt lat="50.96888" lon="2.70268">
        <ele>4.7</ele>
        <time>2020-06-23T14:29:26Z</time>
      </trkpt>
      <trkpt lat="50.96882" lon="2.70275">
        <ele>4.8</ele>
        <time>2020-06-23T14:29:27Z</time>
      </trkpt>
      <trkpt lat="50.96875" lon="2.70282">
        <ele>4.8</ele>
        <time>2020-06-23T14:29:28Z</time>
      </trkpt>
      <trkpt lat="50.96868" lon="2.70288">
        <ele>4.8</ele>
        <time>2020-06-23T14:29:29Z</time>
      </trkpt>
      <trkpt lat="50.96862" lon="2.70294">
        <ele>4.8</ele>
        <time>2020-06-23T14:29:30Z</time>
      </trkpt>
      <trkpt lat="50.96855" lon="2.70301">
        <ele>4.7</ele>
        <time>2020-06-23T14:29:31Z</time>
      </trkpt>
      <trkpt lat="50.96849" lon="2.70307">
        <ele>4.7</ele>
        <time>2020-06-23T14:29:32Z</time>
      </trkpt>
      <trkpt lat="50.96843" lon="2.70314">
        <ele>4.7</ele>
        <time>2020-06-23T14:29:33Z</time>
      </trkpt>
      <trkpt lat="50.96837" lon="2.7032">
        <ele>4.7</ele>
        <time>2020-06-23T14:29:34Z</time>
      </trkpt>
      <trkpt lat="50.9683" lon="2.70326">
        <ele>4.7</ele>
        <time>2020-06-23T14:29:35Z</time>
      </trkpt>
      <trkpt lat="50.96824" lon="2.70333">
        <ele>4.7</ele>
        <time>2020-06-23T14:29:36Z</time>
      </trkpt>
      <trkpt lat="50.96818" lon="2.70339">
        <ele>4.7</ele>
        <time>2020-06-23T14:29:37Z</time>
      </trkpt>
      <trkpt lat="50.96812" lon="2.70346">
        <ele>4.7</ele>
        <time>2020-06-23T14:29:38Z</time>
      </trkpt>
      <trkpt lat="50.96806" lon="2.70352">
        <ele>4.7</ele>
        <time>2020-06-23T14:29:39Z</time>
      </trkpt>
      <trkpt lat="50.968" lon="2.70358">
        <ele>4.7</ele>
        <time>2020-06-23T14:29:40Z</time>
      </trkpt>
      <trkpt lat="50.96794" lon="2.70364">
        <ele>4.6</ele>
        <time>2020-06-23T14:29:41Z</time>
      </trkpt>
      <trkpt lat="50.96788" lon="2.7037">
        <ele>4.6</ele>
        <time>2020-06-23T14:29:42Z</time>
      </trkpt>
      <trkpt lat="50.96782" lon="2.70376">
        <ele>4.6</ele>
        <time>2020-06-23T14:29:43Z</time>
      </trkpt>
      <trkpt lat="50.96776" lon="2.70383">
        <ele>4.6</ele>
        <time>2020-06-23T14:29:44Z</time>
      </trkpt>
      <trkpt lat="50.9677" lon="2.70389">
        <ele>4.6</ele>
        <time>2020-06-23T14:29:45Z</time>
      </trkpt>
      <trkpt lat="50.96764" lon="2.70395">
        <ele>4.6</ele>
        <time>2020-06-23T14:29:46Z</time>
      </trkpt>
      <trkpt lat="50.96758" lon="2.70402">
        <ele>4.6</ele>
        <time>2020-06-23T14:29:47Z</time>
      </trkpt>
      <trkpt lat="50.96752" lon="2.70408">
        <ele>4.6</ele>
        <time>2020-06-23T14:29:48Z</time>
      </trkpt>
      <trkpt lat="50.96747" lon="2.70414">
        <ele>4.6</ele>
        <time>2020-06-23T14:29:49Z</time>
      </trkpt>
      <trkpt lat="50.96741" lon="2.70421">
        <ele>4.6</ele>
        <time>2020-06-23T14:29:50Z</time>
      </trkpt>
      <trkpt lat="50.96735" lon="2.70427">
        <ele>4.6</ele>
        <time>2020-06-23T14:29:51Z</time>
      </trkpt>
      <trkpt lat="50.9673" lon="2.70433">
        <ele>4.6</ele>
        <time>2020-06-23T14:29:52Z</time>
      </trkpt>
      <trkpt lat="50.96724" lon="2.70438">
        <ele>4.6</ele>
        <time>2020-06-23T14:29:53Z</time>
      </trkpt>
      <trkpt lat="50.96718" lon="2.70444">
        <ele>4.7</ele>
        <time>2020-06-23T14:29:54Z</time>
      </trkpt>
      <trkpt lat="50.96713" lon="2.70451">
        <ele>4.7</ele>
        <time>2020-06-23T14:29:55Z</time>
      </trkpt>
      <trkpt lat="50.96707" lon="2.70456">
        <ele>4.7</ele>
        <time>2020-06-23T14:29:56Z</time>
      </trkpt>
      <trkpt lat="50.96702" lon="2.70463">
        <ele>4.8</ele>
        <time>2020-06-23T14:29:57Z</time>
      </trkpt>
      <trkpt lat="50.96697" lon="2.70469">
        <ele>4.8</ele>
        <time>2020-06-23T14:29:58Z</time>
      </trkpt>
      <trkpt lat="50.96691" lon="2.70473">
        <ele>4.8</ele>
        <time>2020-06-23T14:29:59Z</time>
      </trkpt>
      <trkpt lat="50.96686" lon="2.70479">
        <ele>4.8</ele>
        <time>2020-06-23T14:30:00Z</time>
      </trkpt>
      <trkpt lat="50.96681" lon="2.70485">
        <ele>4.8</ele>
        <time>2020-06-23T14:30:01Z</time>
      </trkpt>
      <trkpt lat="50.96675" lon="2.7049">
        <ele>4.8</ele>
        <time>2020-06-23T14:30:02Z</time>
      </trkpt>
      <trkpt lat="50.96669" lon="2.70495">
        <ele>4.9</ele>
        <time>2020-06-23T14:30:03Z</time>
      </trkpt>
      <trkpt lat="50.96663" lon="2.70502">
        <ele>4.9</ele>
        <time>2020-06-23T14:30:04Z</time>
      </trkpt>
      <trkpt lat="50.96658" lon="2.70508">
        <ele>5</ele>
        <time>2020-06-23T14:30:05Z</time>
      </trkpt>
      <trkpt lat="50.96651" lon="2.70514">
        <ele>5</ele>
        <time>2020-06-23T14:30:06Z</time>
      </trkpt>
      <trkpt lat="50.96645" lon="2.70519">
        <ele>5.1</ele>
        <time>2020-06-23T14:30:07Z</time>
      </trkpt>
      <trkpt lat="50.9664" lon="2.70526">
        <ele>5.2</ele>
        <time>2020-06-23T14:30:08Z</time>
      </trkpt>
      <trkpt lat="50.96634" lon="2.70533">
        <ele>5.2</ele>
        <time>2020-06-23T14:30:09Z</time>
      </trkpt>
      <trkpt lat="50.96628" lon="2.70538">
        <ele>5</ele>
        <time>2020-06-23T14:30:10Z</time>
      </trkpt>
      <trkpt lat="50.96622" lon="2.70545">
        <ele>4.8</ele>
        <time>2020-06-23T14:30:11Z</time>
      </trkpt>
      <trkpt lat="50.96616" lon="2.70551">
        <ele>4.7</ele>
        <time>2020-06-23T14:30:12Z</time>
      </trkpt>
      <trkpt lat="50.9661" lon="2.70556">
        <ele>4.6</ele>
        <time>2020-06-23T14:30:13Z</time>
      </trkpt>
      <trkpt lat="50.96604" lon="2.70562">
        <ele>4.5</ele>
        <time>2020-06-23T14:30:14Z</time>
      </trkpt>
      <trkpt lat="50.96598" lon="2.70568">
        <ele>4.5</ele>
        <time>2020-06-23T14:30:15Z</time>
      </trkpt>
      <trkpt lat="50.96592" lon="2.70574">
        <ele>4.5</ele>
        <time>2020-06-23T14:30:16Z</time>
      </trkpt>
      <trkpt lat="50.96587" lon="2.7058">
        <ele>4.5</ele>
        <time>2020-06-23T14:30:17Z</time>
      </trkpt>
      <trkpt lat="50.96581" lon="2.70586">
        <ele>4.4</ele>
        <time>2020-06-23T14:30:18Z</time>
      </trkpt>
      <trkpt lat="50.96575" lon="2.70592">
        <ele>4.4</ele>
        <time>2020-06-23T14:30:19Z</time>
      </trkpt>
      <trkpt lat="50.96569" lon="2.70597">
        <ele>4.4</ele>
        <time>2020-06-23T14:30:20Z</time>
      </trkpt>
      <trkpt lat="50.96564" lon="2.70604">
        <ele>4.4</ele>
        <time>2020-06-23T14:30:21Z</time>
      </trkpt>
      <trkpt lat="50.96558" lon="2.7061">
        <ele>4.4</ele>
        <time>2020-06-23T14:30:22Z</time>
      </trkpt>
      <trkpt lat="50.96552" lon="2.70616">
        <ele>4.5</ele>
        <time>2020-06-23T14:30:23Z</time>
      </trkpt>
      <trkpt lat="50.96546" lon="2.70621">
        <ele>4.5</ele>
        <time>2020-06-23T14:30:24Z</time>
      </trkpt>
      <trkpt lat="50.9654" lon="2.70628">
        <ele>4.5</ele>
        <time>2020-06-23T14:30:25Z</time>
      </trkpt>
      <trkpt lat="50.96534" lon="2.70635">
        <ele>4.5</ele>
        <time>2020-06-23T14:30:26Z</time>
      </trkpt>
      <trkpt lat="50.96528" lon="2.70641">
        <ele>4.5</ele>
        <time>2020-06-23T14:30:27Z</time>
      </trkpt>
      <trkpt lat="50.96522" lon="2.70647">
        <ele>4.5</ele>
        <time>2020-06-23T14:30:28Z</time>
      </trkpt>
      <trkpt lat="50.96516" lon="2.70654">
        <ele>4.5</ele>
        <time>2020-06-23T14:30:29Z</time>
      </trkpt>
      <trkpt lat="50.9651" lon="2.7066">
        <ele>4.5</ele>
        <time>2020-06-23T14:30:30Z</time>
      </trkpt>
      <trkpt lat="50.96504" lon="2.70665">
        <ele>4.5</ele>
        <time>2020-06-23T14:30:31Z</time>
      </trkpt>
      <trkpt lat="50.96498" lon="2.7067">
        <ele>4.6</ele>
        <time>2020-06-23T14:30:32Z</time>
      </trkpt>
      <trkpt lat="50.96492" lon="2.70676">
        <ele>4.6</ele>
        <time>2020-06-23T14:30:33Z</time>
      </trkpt>
      <trkpt lat="50.96486" lon="2.70682">
        <ele>4.6</ele>
        <time>2020-06-23T14:30:34Z</time>
      </trkpt>
      <trkpt lat="50.96481" lon="2.70689">
        <ele>4.6</ele>
        <time>2020-06-23T14:30:35Z</time>
      </trkpt>
      <trkpt lat="50.96475" lon="2.70695">
        <ele>4.6</ele>
        <time>2020-06-23T14:30:36Z</time>
      </trkpt>
      <trkpt lat="50.96469" lon="2.70701">
        <ele>4.6</ele>
        <time>2020-06-23T14:30:37Z</time>
      </trkpt>
      <trkpt lat="50.96464" lon="2.70707">
        <ele>4.6</ele>
        <time>2020-06-23T14:30:38Z</time>
      </trkpt>
      <trkpt lat="50.96458" lon="2.70713">
        <ele>4.6</ele>
        <time>2020-06-23T14:30:39Z</time>
      </trkpt>
      <trkpt lat="50.96453" lon="2.70719">
        <ele>4.6</ele>
        <time>2020-06-23T14:30:40Z</time>
      </trkpt>
      <trkpt lat="50.96447" lon="2.70724">
        <ele>4.6</ele>
        <time>2020-06-23T14:30:41Z</time>
      </trkpt>
      <trkpt lat="50.96442" lon="2.7073">
        <ele>4.6</ele>
        <time>2020-06-23T14:30:42Z</time>
      </trkpt>
      <trkpt lat="50.96436" lon="2.70735">
        <ele>4.6</ele>
        <time>2020-06-23T14:30:43Z</time>
      </trkpt>
      <trkpt lat="50.9643" lon="2.70742">
        <ele>4.6</ele>
        <time>2020-06-23T14:30:44Z</time>
      </trkpt>
      <trkpt lat="50.96424" lon="2.70748">
        <ele>4.6</ele>
        <time>2020-06-23T14:30:45Z</time>
      </trkpt>
      <trkpt lat="50.96419" lon="2.70755">
        <ele>4.6</ele>
        <time>2020-06-23T14:30:46Z</time>
      </trkpt>
      <trkpt lat="50.96413" lon="2.70763">
        <ele>4.6</ele>
        <time>2020-06-23T14:30:47Z</time>
      </trkpt>
      <trkpt lat="50.96407" lon="2.70769">
        <ele>4.6</ele>
        <time>2020-06-23T14:30:48Z</time>
      </trkpt>
      <trkpt lat="50.96401" lon="2.70775">
        <ele>4.6</ele>
        <time>2020-06-23T14:30:49Z</time>
      </trkpt>
      <trkpt lat="50.96395" lon="2.70781">
        <ele>4.7</ele>
        <time>2020-06-23T14:30:50Z</time>
      </trkpt>
      <trkpt lat="50.96388" lon="2.70787">
        <ele>4.7</ele>
        <time>2020-06-23T14:30:51Z</time>
      </trkpt>
      <trkpt lat="50.96382" lon="2.70792">
        <ele>4.7</ele>
        <time>2020-06-23T14:30:52Z</time>
      </trkpt>
      <trkpt lat="50.96376" lon="2.70799">
        <ele>4.7</ele>
        <time>2020-06-23T14:30:53Z</time>
      </trkpt>
      <trkpt lat="50.9637" lon="2.70805">
        <ele>4.8</ele>
        <time>2020-06-23T14:30:54Z</time>
      </trkpt>
      <trkpt lat="50.96365" lon="2.70812">
        <ele>4.8</ele>
        <time>2020-06-23T14:30:55Z</time>
      </trkpt>
      <trkpt lat="50.9636" lon="2.70817">
        <ele>4.9</ele>
        <time>2020-06-23T14:30:56Z</time>
      </trkpt>
      <trkpt lat="50.96354" lon="2.70822">
        <ele>5</ele>
        <time>2020-06-23T14:30:57Z</time>
      </trkpt>
      <trkpt lat="50.96348" lon="2.70828">
        <ele>5</ele>
        <time>2020-06-23T14:30:58Z</time>
      </trkpt>
      <trkpt lat="50.96343" lon="2.70834">
        <ele>5</ele>
        <time>2020-06-23T14:30:59Z</time>
      </trkpt>
      <trkpt lat="50.96338" lon="2.70839">
        <ele>5.1</ele>
        <time>2020-06-23T14:31:00Z</time>
      </trkpt>
      <trkpt lat="50.96332" lon="2.70844">
        <ele>5.1</ele>
        <time>2020-06-23T14:31:01Z</time>
      </trkpt>
      <trkpt lat="50.96327" lon="2.7085">
        <ele>5.2</ele>
        <time>2020-06-23T14:31:02Z</time>
      </trkpt>
      <trkpt lat="50.96322" lon="2.70857">
        <ele>5.3</ele>
        <time>2020-06-23T14:31:03Z</time>
      </trkpt>
      <trkpt lat="50.96316" lon="2.70862">
        <ele>5.4</ele>
        <time>2020-06-23T14:31:04Z</time>
      </trkpt>
      <trkpt lat="50.96311" lon="2.70869">
        <ele>5.4</ele>
        <time>2020-06-23T14:31:05Z</time>
      </trkpt>
      <trkpt lat="50.96305" lon="2.70875">
        <ele>5.5</ele>
        <time>2020-06-23T14:31:06Z</time>
      </trkpt>
      <trkpt lat="50.96299" lon="2.70879">
        <ele>5.6</ele>
        <time>2020-06-23T14:31:07Z</time>
      </trkpt>
      <trkpt lat="50.96293" lon="2.70885">
        <ele>5.6</ele>
        <time>2020-06-23T14:31:08Z</time>
      </trkpt>
      <trkpt lat="50.96287" lon="2.70891">
        <ele>5.7</ele>
        <time>2020-06-23T14:31:09Z</time>
      </trkpt>
      <trkpt lat="50.96281" lon="2.70896">
        <ele>5.8</ele>
        <time>2020-06-23T14:31:10Z</time>
      </trkpt>
      <trkpt lat="50.96275" lon="2.70903">
        <ele>5.8</ele>
        <time>2020-06-23T14:31:11Z</time>
      </trkpt>
      <trkpt lat="50.96269" lon="2.70908">
        <ele>5.8</ele>
        <time>2020-06-23T14:31:12Z</time>
      </trkpt>
      <trkpt lat="50.96263" lon="2.70914">
        <ele>5.8</ele>
        <time>2020-06-23T14:31:13Z</time>
      </trkpt>
      <trkpt lat="50.96258" lon="2.70921">
        <ele>5.9</ele>
        <time>2020-06-23T14:31:14Z</time>
      </trkpt>
      <trkpt lat="50.96252" lon="2.70927">
        <ele>6</ele>
        <time>2020-06-23T14:31:15Z</time>
      </trkpt>
      <trkpt lat="50.96247" lon="2.70933">
        <ele>6.1</ele>
        <time>2020-06-23T14:31:16Z</time>
      </trkpt>
      <trkpt lat="50.96241" lon="2.70939">
        <ele>6.1</ele>
        <time>2020-06-23T14:31:17Z</time>
      </trkpt>
      <trkpt lat="50.96236" lon="2.70945">
        <ele>6.2</ele>
        <time>2020-06-23T14:31:18Z</time>
      </trkpt>
      <trkpt lat="50.9623" lon="2.7095">
        <ele>6.2</ele>
        <time>2020-06-23T14:31:19Z</time>
      </trkpt>
      <trkpt lat="50.96225" lon="2.70955">
        <ele>6.3</ele>
        <time>2020-06-23T14:31:20Z</time>
      </trkpt>
      <trkpt lat="50.96219" lon="2.70961">
        <ele>6.4</ele>
        <time>2020-06-23T14:31:21Z</time>
      </trkpt>
      <trkpt lat="50.96214" lon="2.70967">
        <ele>6.4</ele>
        <time>2020-06-23T14:31:22Z</time>
      </trkpt>
      <trkpt lat="50.96207" lon="2.70972">
        <ele>6.4</ele>
        <time>2020-06-23T14:31:23Z</time>
      </trkpt>
      <trkpt lat="50.96202" lon="2.70978">
        <ele>6.5</ele>
        <time>2020-06-23T14:31:24Z</time>
      </trkpt>
      <trkpt lat="50.96196" lon="2.70985">
        <ele>6.5</ele>
        <time>2020-06-23T14:31:25Z</time>
      </trkpt>
      <trkpt lat="50.96191" lon="2.70991">
        <ele>6.6</ele>
        <time>2020-06-23T14:31:26Z</time>
      </trkpt>
      <trkpt lat="50.96185" lon="2.70997">
        <ele>6.6</ele>
        <time>2020-06-23T14:31:27Z</time>
      </trkpt>
      <trkpt lat="50.9618" lon="2.71003">
        <ele>6.6</ele>
        <time>2020-06-23T14:31:28Z</time>
      </trkpt>
      <trkpt lat="50.96174" lon="2.71007">
        <ele>6.7</ele>
        <time>2020-06-23T14:31:29Z</time>
      </trkpt>
      <trkpt lat="50.96169" lon="2.71013">
        <ele>6.7</ele>
        <time>2020-06-23T14:31:30Z</time>
      </trkpt>
      <trkpt lat="50.96163" lon="2.71018">
        <ele>6.7</ele>
        <time>2020-06-23T14:31:31Z</time>
      </trkpt>
      <trkpt lat="50.96158" lon="2.71024">
        <ele>6.8</ele>
        <time>2020-06-23T14:31:32Z</time>
      </trkpt>
      <trkpt lat="50.96152" lon="2.71029">
        <ele>6.9</ele>
        <time>2020-06-23T14:31:33Z</time>
      </trkpt>
      <trkpt lat="50.96147" lon="2.71034">
        <ele>7</ele>
        <time>2020-06-23T14:31:34Z</time>
      </trkpt>
      <trkpt lat="50.96141" lon="2.7104">
        <ele>7</ele>
        <time>2020-06-23T14:31:35Z</time>
      </trkpt>
      <trkpt lat="50.96135" lon="2.71045">
        <ele>7.1</ele>
        <time>2020-06-23T14:31:36Z</time>
      </trkpt>
      <trkpt lat="50.9613" lon="2.71052">
        <ele>7.2</ele>
        <time>2020-06-23T14:31:37Z</time>
      </trkpt>
      <trkpt lat="50.96125" lon="2.71059">
        <ele>7.3</ele>
        <time>2020-06-23T14:31:38Z</time>
      </trkpt>
      <trkpt lat="50.96119" lon="2.71066">
        <ele>7.3</ele>
        <time>2020-06-23T14:31:39Z</time>
      </trkpt>
      <trkpt lat="50.96114" lon="2.71072">
        <ele>7.4</ele>
        <time>2020-06-23T14:31:40Z</time>
      </trkpt>
      <trkpt lat="50.96108" lon="2.71078">
        <ele>7.5</ele>
        <time>2020-06-23T14:31:41Z</time>
      </trkpt>
      <trkpt lat="50.96102" lon="2.71084">
        <ele>7.5</ele>
        <time>2020-06-23T14:31:42Z</time>
      </trkpt>
      <trkpt lat="50.96097" lon="2.71091">
        <ele>7.5</ele>
        <time>2020-06-23T14:31:43Z</time>
      </trkpt>
      <trkpt lat="50.96091" lon="2.71096">
        <ele>7.6</ele>
        <time>2020-06-23T14:31:44Z</time>
      </trkpt>
      <trkpt lat="50.96085" lon="2.71102">
        <ele>7.7</ele>
        <time>2020-06-23T14:31:45Z</time>
      </trkpt>
      <trkpt lat="50.9608" lon="2.71107">
        <ele>7.7</ele>
        <time>2020-06-23T14:31:46Z</time>
      </trkpt>
      <trkpt lat="50.96074" lon="2.71112">
        <ele>7.8</ele>
        <time>2020-06-23T14:31:47Z</time>
      </trkpt>
      <trkpt lat="50.96068" lon="2.71118">
        <ele>7.9</ele>
        <time>2020-06-23T14:31:48Z</time>
      </trkpt>
      <trkpt lat="50.96062" lon="2.71123">
        <ele>7.9</ele>
        <time>2020-06-23T14:31:49Z</time>
      </trkpt>
      <trkpt lat="50.96056" lon="2.7113">
        <ele>8</ele>
        <time>2020-06-23T14:31:50Z</time>
      </trkpt>
      <trkpt lat="50.9605" lon="2.71135">
        <ele>8.1</ele>
        <time>2020-06-23T14:31:51Z</time>
      </trkpt>
      <trkpt lat="50.96045" lon="2.71141">
        <ele>8.1</ele>
        <time>2020-06-23T14:31:52Z</time>
      </trkpt>
      <trkpt lat="50.96039" lon="2.71147">
        <ele>8.2</ele>
        <time>2020-06-23T14:31:53Z</time>
      </trkpt>
      <trkpt lat="50.96033" lon="2.71152">
        <ele>8.3</ele>
        <time>2020-06-23T14:31:54Z</time>
      </trkpt>
      <trkpt lat="50.96028" lon="2.71158">
        <ele>8.4</ele>
        <time>2020-06-23T14:31:55Z</time>
      </trkpt>
      <trkpt lat="50.96022" lon="2.71164">
        <ele>8.4</ele>
        <time>2020-06-23T14:31:56Z</time>
      </trkpt>
      <trkpt lat="50.96017" lon="2.7117">
        <ele>8.5</ele>
        <time>2020-06-23T14:31:57Z</time>
      </trkpt>
      <trkpt lat="50.96011" lon="2.71175">
        <ele>8.6</ele>
        <time>2020-06-23T14:31:58Z</time>
      </trkpt>
      <trkpt lat="50.96007" lon="2.71181">
        <ele>8.6</ele>
        <time>2020-06-23T14:31:59Z</time>
      </trkpt>
      <trkpt lat="50.96001" lon="2.71186">
        <ele>8.7</ele>
        <time>2020-06-23T14:32:00Z</time>
      </trkpt>
      <trkpt lat="50.95996" lon="2.71191">
        <ele>8.8</ele>
        <time>2020-06-23T14:32:01Z</time>
      </trkpt>
      <trkpt lat="50.95991" lon="2.71197">
        <ele>8.9</ele>
        <time>2020-06-23T14:32:02Z</time>
      </trkpt>
      <trkpt lat="50.95986" lon="2.71202">
        <ele>9</ele>
        <time>2020-06-23T14:32:03Z</time>
      </trkpt>
      <trkpt lat="50.95981" lon="2.71208">
        <ele>9.1</ele>
        <time>2020-06-23T14:32:04Z</time>
      </trkpt>
      <trkpt lat="50.95975" lon="2.71213">
        <ele>9.2</ele>
        <time>2020-06-23T14:32:05Z</time>
      </trkpt>
      <trkpt lat="50.95971" lon="2.71219">
        <ele>9.3</ele>
        <time>2020-06-23T14:32:06Z</time>
      </trkpt>
      <trkpt lat="50.95965" lon="2.71225">
        <ele>9.4</ele>
        <time>2020-06-23T14:32:07Z</time>
      </trkpt>
      <trkpt lat="50.9596" lon="2.71231">
        <ele>9.4</ele>
        <time>2020-06-23T14:32:08Z</time>
      </trkpt>
      <trkpt lat="50.95955" lon="2.71236">
        <ele>9.5</ele>
        <time>2020-06-23T14:32:09Z</time>
      </trkpt>
      <trkpt lat="50.95949" lon="2.71241">
        <ele>9.5</ele>
        <time>2020-06-23T14:32:10Z</time>
      </trkpt>
      <trkpt lat="50.95944" lon="2.71247">
        <ele>9.5</ele>
        <time>2020-06-23T14:32:11Z</time>
      </trkpt>
      <trkpt lat="50.95939" lon="2.71253">
        <ele>9.3</ele>
        <time>2020-06-23T14:32:12Z</time>
      </trkpt>
      <trkpt lat="50.95934" lon="2.71258">
        <ele>9</ele>
        <time>2020-06-23T14:32:13Z</time>
      </trkpt>
      <trkpt lat="50.95929" lon="2.71264">
        <ele>9</ele>
        <time>2020-06-23T14:32:14Z</time>
      </trkpt>
      <trkpt lat="50.95924" lon="2.71269">
        <ele>9</ele>
        <time>2020-06-23T14:32:15Z</time>
      </trkpt>
      <trkpt lat="50.95919" lon="2.71274">
        <ele>9</ele>
        <time>2020-06-23T14:32:16Z</time>
      </trkpt>
      <trkpt lat="50.95914" lon="2.7128">
        <ele>9</ele>
        <time>2020-06-23T14:32:17Z</time>
      </trkpt>
      <trkpt lat="50.95908" lon="2.71285">
        <ele>9.1</ele>
        <time>2020-06-23T14:32:18Z</time>
      </trkpt>
      <trkpt lat="50.95903" lon="2.7129">
        <ele>9.2</ele>
        <time>2020-06-23T14:32:19Z</time>
      </trkpt>
      <trkpt lat="50.95898" lon="2.71295">
        <ele>9.2</ele>
        <time>2020-06-23T14:32:20Z</time>
      </trkpt>
      <trkpt lat="50.95894" lon="2.713">
        <ele>9.3</ele>
        <time>2020-06-23T14:32:21Z</time>
      </trkpt>
      <trkpt lat="50.95889" lon="2.71306">
        <ele>9.3</ele>
        <time>2020-06-23T14:32:22Z</time>
      </trkpt>
      <trkpt lat="50.95884" lon="2.71311">
        <ele>9.4</ele>
        <time>2020-06-23T14:32:23Z</time>
      </trkpt>
      <trkpt lat="50.95879" lon="2.71316">
        <ele>9.4</ele>
        <time>2020-06-23T14:32:24Z</time>
      </trkpt>
      <trkpt lat="50.95874" lon="2.7132">
        <ele>9.5</ele>
        <time>2020-06-23T14:32:25Z</time>
      </trkpt>
      <trkpt lat="50.9587" lon="2.71326">
        <ele>9.6</ele>
        <time>2020-06-23T14:32:26Z</time>
      </trkpt>
      <trkpt lat="50.95865" lon="2.7133">
        <ele>9.7</ele>
        <time>2020-06-23T14:32:27Z</time>
      </trkpt>
      <trkpt lat="50.9586" lon="2.71334">
        <ele>9.7</ele>
        <time>2020-06-23T14:32:28Z</time>
      </trkpt>
      <trkpt lat="50.95855" lon="2.71338">
        <ele>9.8</ele>
        <time>2020-06-23T14:32:29Z</time>
      </trkpt>
      <trkpt lat="50.9585" lon="2.71343">
        <ele>9.9</ele>
        <time>2020-06-23T14:32:30Z</time>
      </trkpt>
      <trkpt lat="50.95845" lon="2.71348">
        <ele>10</ele>
        <time>2020-06-23T14:32:31Z</time>
      </trkpt>
      <trkpt lat="50.9584" lon="2.71352">
        <ele>10.1</ele>
        <time>2020-06-23T14:32:32Z</time>
      </trkpt>
      <trkpt lat="50.95835" lon="2.71356">
        <ele>10.3</ele>
        <time>2020-06-23T14:32:33Z</time>
      </trkpt>
      <trkpt lat="50.9583" lon="2.71361">
        <ele>10.5</ele>
        <time>2020-06-23T14:32:34Z</time>
      </trkpt>
      <trkpt lat="50.95825" lon="2.71366">
        <ele>10.6</ele>
        <time>2020-06-23T14:32:35Z</time>
      </trkpt>
      <trkpt lat="50.95821" lon="2.71372">
        <ele>10.7</ele>
        <time>2020-06-23T14:32:36Z</time>
      </trkpt>
      <trkpt lat="50.95815" lon="2.71376">
        <ele>10.8</ele>
        <time>2020-06-23T14:32:37Z</time>
      </trkpt>
      <trkpt lat="50.95811" lon="2.7138">
        <ele>10.8</ele>
        <time>2020-06-23T14:32:38Z</time>
      </trkpt>
      <trkpt lat="50.95806" lon="2.71385">
        <ele>10.8</ele>
        <time>2020-06-23T14:32:39Z</time>
      </trkpt>
      <trkpt lat="50.958" lon="2.71387">
        <ele>10.7</ele>
        <time>2020-06-23T14:32:40Z</time>
      </trkpt>
      <trkpt lat="50.95794" lon="2.7139">
        <ele>10.7</ele>
        <time>2020-06-23T14:32:41Z</time>
      </trkpt>
      <trkpt lat="50.95789" lon="2.71395">
        <ele>10.7</ele>
        <time>2020-06-23T14:32:42Z</time>
      </trkpt>
      <trkpt lat="50.95784" lon="2.714">
        <ele>10.6</ele>
        <time>2020-06-23T14:32:43Z</time>
      </trkpt>
      <trkpt lat="50.9578" lon="2.71408">
        <ele>10.6</ele>
        <time>2020-06-23T14:32:44Z</time>
      </trkpt>
      <trkpt lat="50.95775" lon="2.71413">
        <ele>10.5</ele>
        <time>2020-06-23T14:32:45Z</time>
      </trkpt>
      <trkpt lat="50.95769" lon="2.71416">
        <ele>10.4</ele>
        <time>2020-06-23T14:32:46Z</time>
      </trkpt>
      <trkpt lat="50.95764" lon="2.71419">
        <ele>10.4</ele>
        <time>2020-06-23T14:32:47Z</time>
      </trkpt>
      <trkpt lat="50.95758" lon="2.71421">
        <ele>10.3</ele>
        <time>2020-06-23T14:32:48Z</time>
      </trkpt>
      <trkpt lat="50.95752" lon="2.71424">
        <ele>10.2</ele>
        <time>2020-06-23T14:32:49Z</time>
      </trkpt>
      <trkpt lat="50.95746" lon="2.71427">
        <ele>10.2</ele>
        <time>2020-06-23T14:32:50Z</time>
      </trkpt>
      <trkpt lat="50.95741" lon="2.71432">
        <ele>10.1</ele>
        <time>2020-06-23T14:32:51Z</time>
      </trkpt>
      <trkpt lat="50.95735" lon="2.71436">
        <ele>10.1</ele>
        <time>2020-06-23T14:32:52Z</time>
      </trkpt>
      <trkpt lat="50.9573" lon="2.71441">
        <ele>10.1</ele>
        <time>2020-06-23T14:32:53Z</time>
      </trkpt>
      <trkpt lat="50.95724" lon="2.71443">
        <ele>10</ele>
        <time>2020-06-23T14:32:54Z</time>
      </trkpt>
      <trkpt lat="50.95719" lon="2.71446">
        <ele>9.9</ele>
        <time>2020-06-23T14:32:55Z</time>
      </trkpt>
      <trkpt lat="50.95712" lon="2.71449">
        <ele>9.8</ele>
        <time>2020-06-23T14:32:56Z</time>
      </trkpt>
      <trkpt lat="50.95707" lon="2.71454">
        <ele>9.8</ele>
        <time>2020-06-23T14:32:57Z</time>
      </trkpt>
      <trkpt lat="50.95701" lon="2.71458">
        <ele>9.7</ele>
        <time>2020-06-23T14:32:58Z</time>
      </trkpt>
      <trkpt lat="50.95695" lon="2.71462">
        <ele>9.6</ele>
        <time>2020-06-23T14:32:59Z</time>
      </trkpt>
      <trkpt lat="50.95689" lon="2.71466">
        <ele>9.5</ele>
        <time>2020-06-23T14:33:00Z</time>
      </trkpt>
      <trkpt lat="50.95683" lon="2.7147">
        <ele>9.4</ele>
        <time>2020-06-23T14:33:01Z</time>
      </trkpt>
      <trkpt lat="50.95677" lon="2.71474">
        <ele>9.4</ele>
        <time>2020-06-23T14:33:02Z</time>
      </trkpt>
      <trkpt lat="50.95671" lon="2.71479">
        <ele>9.3</ele>
        <time>2020-06-23T14:33:03Z</time>
      </trkpt>
      <trkpt lat="50.95665" lon="2.71483">
        <ele>9.2</ele>
        <time>2020-06-23T14:33:04Z</time>
      </trkpt>
      <trkpt lat="50.95659" lon="2.71488">
        <ele>9.2</ele>
        <time>2020-06-23T14:33:05Z</time>
      </trkpt>
      <trkpt lat="50.95653" lon="2.71493">
        <ele>9.1</ele>
        <time>2020-06-23T14:33:06Z</time>
      </trkpt>
      <trkpt lat="50.95647" lon="2.71498">
        <ele>9</ele>
        <time>2020-06-23T14:33:07Z</time>
      </trkpt>
      <trkpt lat="50.95641" lon="2.71502">
        <ele>8.9</ele>
        <time>2020-06-23T14:33:08Z</time>
      </trkpt>
      <trkpt lat="50.95635" lon="2.71508">
        <ele>8.9</ele>
        <time>2020-06-23T14:33:09Z</time>
      </trkpt>
      <trkpt lat="50.95628" lon="2.71512">
        <ele>8.8</ele>
        <time>2020-06-23T14:33:10Z</time>
      </trkpt>
      <trkpt lat="50.95622" lon="2.71517">
        <ele>8.7</ele>
        <time>2020-06-23T14:33:11Z</time>
      </trkpt>
      <trkpt lat="50.95616" lon="2.71522">
        <ele>8.5</ele>
        <time>2020-06-23T14:33:12Z</time>
      </trkpt>
      <trkpt lat="50.9561" lon="2.71526">
        <ele>8.5</ele>
        <time>2020-06-23T14:33:13Z</time>
      </trkpt>
      <trkpt lat="50.95604" lon="2.71531">
        <ele>8.4</ele>
        <time>2020-06-23T14:33:14Z</time>
      </trkpt>
      <trkpt lat="50.95598" lon="2.71534">
        <ele>8.3</ele>
        <time>2020-06-23T14:33:15Z</time>
      </trkpt>
      <trkpt lat="50.95592" lon="2.71538">
        <ele>8.3</ele>
        <time>2020-06-23T14:33:16Z</time>
      </trkpt>
      <trkpt lat="50.95586" lon="2.71542">
        <ele>8.2</ele>
        <time>2020-06-23T14:33:17Z</time>
      </trkpt>
      <trkpt lat="50.9558" lon="2.71546">
        <ele>8.1</ele>
        <time>2020-06-23T14:33:18Z</time>
      </trkpt>
      <trkpt lat="50.95575" lon="2.7155">
        <ele>8</ele>
        <time>2020-06-23T14:33:19Z</time>
      </trkpt>
      <trkpt lat="50.95569" lon="2.71555">
        <ele>7.9</ele>
        <time>2020-06-23T14:33:20Z</time>
      </trkpt>
      <trkpt lat="50.95563" lon="2.7156">
        <ele>7.8</ele>
        <time>2020-06-23T14:33:21Z</time>
      </trkpt>
      <trkpt lat="50.95556" lon="2.71564">
        <ele>7.7</ele>
        <time>2020-06-23T14:33:22Z</time>
      </trkpt>
      <trkpt lat="50.9555" lon="2.71569">
        <ele>7.6</ele>
        <time>2020-06-23T14:33:23Z</time>
      </trkpt>
      <trkpt lat="50.95544" lon="2.71574">
        <ele>7.6</ele>
        <time>2020-06-23T14:33:24Z</time>
      </trkpt>
      <trkpt lat="50.95537" lon="2.71579">
        <ele>7.5</ele>
        <time>2020-06-23T14:33:25Z</time>
      </trkpt>
      <trkpt lat="50.95531" lon="2.71583">
        <ele>7.4</ele>
        <time>2020-06-23T14:33:26Z</time>
      </trkpt>
      <trkpt lat="50.95525" lon="2.71588">
        <ele>7.4</ele>
        <time>2020-06-23T14:33:27Z</time>
      </trkpt>
      <trkpt lat="50.95519" lon="2.71592">
        <ele>7.3</ele>
        <time>2020-06-23T14:33:28Z</time>
      </trkpt>
      <trkpt lat="50.95513" lon="2.71598">
        <ele>7.2</ele>
        <time>2020-06-23T14:33:29Z</time>
      </trkpt>
      <trkpt lat="50.95507" lon="2.71602">
        <ele>7.1</ele>
        <time>2020-06-23T14:33:30Z</time>
      </trkpt>
      <trkpt lat="50.955" lon="2.71606">
        <ele>6.9</ele>
        <time>2020-06-23T14:33:31Z</time>
      </trkpt>
      <trkpt lat="50.95494" lon="2.71612">
        <ele>6.8</ele>
        <time>2020-06-23T14:33:32Z</time>
      </trkpt>
      <trkpt lat="50.95488" lon="2.71616">
        <ele>6.7</ele>
        <time>2020-06-23T14:33:33Z</time>
      </trkpt>
      <trkpt lat="50.95482" lon="2.7162">
        <ele>6.7</ele>
        <time>2020-06-23T14:33:34Z</time>
      </trkpt>
      <trkpt lat="50.95475" lon="2.71624">
        <ele>6.6</ele>
        <time>2020-06-23T14:33:35Z</time>
      </trkpt>
      <trkpt lat="50.95469" lon="2.71628">
        <ele>6.5</ele>
        <time>2020-06-23T14:33:36Z</time>
      </trkpt>
      <trkpt lat="50.95463" lon="2.71632">
        <ele>6.5</ele>
        <time>2020-06-23T14:33:37Z</time>
      </trkpt>
      <trkpt lat="50.95456" lon="2.71636">
        <ele>6.3</ele>
        <time>2020-06-23T14:33:38Z</time>
      </trkpt>
      <trkpt lat="50.9545" lon="2.71641">
        <ele>6.2</ele>
        <time>2020-06-23T14:33:39Z</time>
      </trkpt>
      <trkpt lat="50.95443" lon="2.71646">
        <ele>6.1</ele>
        <time>2020-06-23T14:33:40Z</time>
      </trkpt>
      <trkpt lat="50.95437" lon="2.71651">
        <ele>6</ele>
        <time>2020-06-23T14:33:41Z</time>
      </trkpt>
      <trkpt lat="50.9543" lon="2.71655">
        <ele>5.8</ele>
        <time>2020-06-23T14:33:42Z</time>
      </trkpt>
      <trkpt lat="50.95424" lon="2.7166">
        <ele>5.7</ele>
        <time>2020-06-23T14:33:43Z</time>
      </trkpt>
      <trkpt lat="50.95417" lon="2.71666">
        <ele>5.6</ele>
        <time>2020-06-23T14:33:44Z</time>
      </trkpt>
      <trkpt lat="50.95411" lon="2.71671">
        <ele>5.5</ele>
        <time>2020-06-23T14:33:45Z</time>
      </trkpt>
      <trkpt lat="50.95405" lon="2.71675">
        <ele>5.4</ele>
        <time>2020-06-23T14:33:46Z</time>
      </trkpt>
      <trkpt lat="50.95399" lon="2.7168">
        <ele>5.3</ele>
        <time>2020-06-23T14:33:47Z</time>
      </trkpt>
      <trkpt lat="50.95393" lon="2.71685">
        <ele>5.2</ele>
        <time>2020-06-23T14:33:48Z</time>
      </trkpt>
      <trkpt lat="50.95386" lon="2.71689">
        <ele>5.1</ele>
        <time>2020-06-23T14:33:49Z</time>
      </trkpt>
      <trkpt lat="50.9538" lon="2.71694">
        <ele>5.1</ele>
        <time>2020-06-23T14:33:50Z</time>
      </trkpt>
      <trkpt lat="50.95374" lon="2.71698">
        <ele>5.2</ele>
        <time>2020-06-23T14:33:51Z</time>
      </trkpt>
      <trkpt lat="50.95368" lon="2.71702">
        <ele>5.3</ele>
        <time>2020-06-23T14:33:52Z</time>
      </trkpt>
      <trkpt lat="50.95362" lon="2.71707">
        <ele>5.4</ele>
        <time>2020-06-23T14:33:53Z</time>
      </trkpt>
      <trkpt lat="50.95356" lon="2.71711">
        <ele>5.3</ele>
        <time>2020-06-23T14:33:54Z</time>
      </trkpt>
      <trkpt lat="50.9535" lon="2.71715">
        <ele>5.1</ele>
        <time>2020-06-23T14:33:55Z</time>
      </trkpt>
      <trkpt lat="50.95344" lon="2.7172">
        <ele>4.9</ele>
        <time>2020-06-23T14:33:56Z</time>
      </trkpt>
      <trkpt lat="50.95338" lon="2.71723">
        <ele>4.6</ele>
        <time>2020-06-23T14:33:57Z</time>
      </trkpt>
      <trkpt lat="50.95332" lon="2.71727">
        <ele>4.4</ele>
        <time>2020-06-23T14:33:58Z</time>
      </trkpt>
      <trkpt lat="50.95326" lon="2.7173">
        <ele>4.3</ele>
        <time>2020-06-23T14:33:59Z</time>
      </trkpt>
      <trkpt lat="50.95319" lon="2.71733">
        <ele>4.1</ele>
        <time>2020-06-23T14:34:00Z</time>
      </trkpt>
      <trkpt lat="50.95313" lon="2.71736">
        <ele>3.9</ele>
        <time>2020-06-23T14:34:01Z</time>
      </trkpt>
      <trkpt lat="50.95306" lon="2.7174">
        <ele>3.8</ele>
        <time>2020-06-23T14:34:02Z</time>
      </trkpt>
      <trkpt lat="50.953" lon="2.71744">
        <ele>3.6</ele>
        <time>2020-06-23T14:34:03Z</time>
      </trkpt>
      <trkpt lat="50.95294" lon="2.71747">
        <ele>3.5</ele>
        <time>2020-06-23T14:34:04Z</time>
      </trkpt>
      <trkpt lat="50.95287" lon="2.71751">
        <ele>3.4</ele>
        <time>2020-06-23T14:34:05Z</time>
      </trkpt>
      <trkpt lat="50.95281" lon="2.71756">
        <ele>3.3</ele>
        <time>2020-06-23T14:34:06Z</time>
      </trkpt>
      <trkpt lat="50.95275" lon="2.7176">
        <ele>3.2</ele>
        <time>2020-06-23T14:34:07Z</time>
      </trkpt>
      <trkpt lat="50.95269" lon="2.71764">
        <ele>3.1</ele>
        <time>2020-06-23T14:34:08Z</time>
      </trkpt>
      <trkpt lat="50.95264" lon="2.71766">
        <ele>3</ele>
        <time>2020-06-23T14:34:09Z</time>
      </trkpt>
      <trkpt lat="50.95259" lon="2.7177">
        <ele>3</ele>
        <time>2020-06-23T14:34:10Z</time>
      </trkpt>
      <trkpt lat="50.95254" lon="2.71774">
        <ele>2.9</ele>
        <time>2020-06-23T14:34:11Z</time>
      </trkpt>
      <trkpt lat="50.95249" lon="2.71775">
        <ele>2.9</ele>
        <time>2020-06-23T14:34:12Z</time>
      </trkpt>
      <trkpt lat="50.95244" lon="2.71777">
        <ele>2.8</ele>
        <time>2020-06-23T14:34:13Z</time>
      </trkpt>
      <trkpt lat="50.9524" lon="2.7178">
        <ele>2.8</ele>
        <time>2020-06-23T14:34:14Z</time>
      </trkpt>
      <trkpt lat="50.95236" lon="2.71783">
        <ele>2.8</ele>
        <time>2020-06-23T14:34:15Z</time>
      </trkpt>
      <trkpt lat="50.95232" lon="2.71783">
        <ele>2.7</ele>
        <time>2020-06-23T14:34:16Z</time>
      </trkpt>
      <trkpt lat="50.95228" lon="2.71785">
        <ele>2.7</ele>
        <time>2020-06-23T14:34:17Z</time>
      </trkpt>
      <trkpt lat="50.95225" lon="2.71787">
        <ele>2.7</ele>
        <time>2020-06-23T14:34:18Z</time>
      </trkpt>
      <trkpt lat="50.95222" lon="2.71789">
        <ele>2.7</ele>
        <time>2020-06-23T14:34:19Z</time>
      </trkpt>
      <trkpt lat="50.95221" lon="2.7179">
        <ele>2.7</ele>
        <time>2020-06-23T14:34:20Z</time>
      </trkpt>
      <trkpt lat="50.95221" lon="2.71792">
        <ele>2.7</ele>
        <time>2020-06-23T14:34:21Z</time>
      </trkpt>
      <trkpt lat="50.95221" lon="2.71791">
        <ele>2.7</ele>
        <time>2020-06-23T14:34:22Z</time>
      </trkpt>
      <trkpt lat="50.95221" lon="2.71791">
        <ele>2.7</ele>
        <time>2020-06-23T14:34:23Z</time>
      </trkpt>
      <trkpt lat="50.95221" lon="2.7179">
        <ele>2.7</ele>
        <time>2020-06-23T14:34:24Z</time>
      </trkpt>
      <trkpt lat="50.9522" lon="2.71789">
        <ele>2.7</ele>
        <time>2020-06-23T14:34:25Z</time>
      </trkpt>
      <trkpt lat="50.9522" lon="2.71791">
        <ele>2.7</ele>
        <time>2020-06-23T14:34:26Z</time>
      </trkpt>
      <trkpt lat="50.95221" lon="2.71791">
        <ele>2.7</ele>
        <time>2020-06-23T14:34:27Z</time>
      </trkpt>
      <trkpt lat="50.95221" lon="2.71792">
        <ele>2.7</ele>
        <time>2020-06-23T14:34:28Z</time>
      </trkpt>
      <trkpt lat="50.9522" lon="2.71791">
        <ele>2.7</ele>
        <time>2020-06-23T14:34:29Z</time>
      </trkpt>
      <trkpt lat="50.9522" lon="2.71791">
        <ele>2.7</ele>
        <time>2020-06-23T14:34:30Z</time>
      </trkpt>
      <trkpt lat="50.95221" lon="2.71792">
        <ele>2.7</ele>
        <time>2020-06-23T14:34:31Z</time>
      </trkpt>
      <trkpt lat="50.95221" lon="2.71791">
        <ele>2.7</ele>
        <time>2020-06-23T14:34:32Z</time>
      </trkpt>
      <trkpt lat="50.95221" lon="2.71792">
        <ele>2.7</ele>
        <time>2020-06-23T14:34:33Z</time>
      </trkpt>
      <trkpt lat="50.95221" lon="2.71792">
        <ele>2.7</ele>
        <time>2020-06-23T14:34:34Z</time>
      </trkpt>
      <trkpt lat="50.95222" lon="2.71793">
        <ele>2.7</ele>
        <time>2020-06-23T14:34:35Z</time>
      </trkpt>
      <trkpt lat="50.95222" lon="2.71792">
        <ele>2.7</ele>
        <time>2020-06-23T14:34:36Z</time>
      </trkpt>
      <trkpt lat="50.95224" lon="2.71802">
        <ele>2.7</ele>
        <time>2020-06-23T14:35:15Z</time>
      </trkpt>
      <trkpt lat="50.95224" lon="2.71805">
        <ele>2.7</ele>
        <time>2020-06-23T14:35:16Z</time>
      </trkpt>
      <trkpt lat="50.95225" lon="2.71811">
        <ele>2.7</ele>
        <time>2020-06-23T14:35:17Z</time>
      </trkpt>
      <trkpt lat="50.95225" lon="2.71813">
        <ele>2.7</ele>
        <time>2020-06-23T14:35:18Z</time>
      </trkpt>
      <trkpt lat="50.95226" lon="2.71817">
        <ele>2.7</ele>
        <time>2020-06-23T14:35:19Z</time>
      </trkpt>
      <trkpt lat="50.95227" lon="2.71822">
        <ele>2.7</ele>
        <time>2020-06-23T14:35:20Z</time>
      </trkpt>
      <trkpt lat="50.95229" lon="2.71826">
        <ele>2.8</ele>
        <time>2020-06-23T14:35:21Z</time>
      </trkpt>
      <trkpt lat="50.9523" lon="2.71831">
        <ele>2.8</ele>
        <time>2020-06-23T14:35:22Z</time>
      </trkpt>
      <trkpt lat="50.95232" lon="2.71837">
        <ele>2.8</ele>
        <time>2020-06-23T14:35:23Z</time>
      </trkpt>
      <trkpt lat="50.95233" lon="2.71843">
        <ele>2.8</ele>
        <time>2020-06-23T14:35:24Z</time>
      </trkpt>
      <trkpt lat="50.95233" lon="2.7185">
        <ele>2.8</ele>
        <time>2020-06-23T14:35:25Z</time>
      </trkpt>
      <trkpt lat="50.95233" lon="2.71857">
        <ele>2.8</ele>
        <time>2020-06-23T14:35:26Z</time>
      </trkpt>
      <trkpt lat="50.95231" lon="2.71863">
        <ele>2.8</ele>
        <time>2020-06-23T14:35:27Z</time>
      </trkpt>
      <trkpt lat="50.95229" lon="2.71868">
        <ele>2.8</ele>
        <time>2020-06-23T14:35:28Z</time>
      </trkpt>
      <trkpt lat="50.95226" lon="2.71873">
        <ele>2.8</ele>
        <time>2020-06-23T14:35:29Z</time>
      </trkpt>
      <trkpt lat="50.95224" lon="2.71877">
        <ele>2.8</ele>
        <time>2020-06-23T14:35:30Z</time>
      </trkpt>
      <trkpt lat="50.95221" lon="2.7188">
        <ele>2.8</ele>
        <time>2020-06-23T14:35:31Z</time>
      </trkpt>
      <trkpt lat="50.95219" lon="2.71883">
        <ele>2.8</ele>
        <time>2020-06-23T14:35:32Z</time>
      </trkpt>
      <trkpt lat="50.95216" lon="2.71888">
        <ele>2.8</ele>
        <time>2020-06-23T14:35:33Z</time>
      </trkpt>
      <trkpt lat="50.95213" lon="2.71891">
        <ele>2.8</ele>
        <time>2020-06-23T14:35:34Z</time>
      </trkpt>
      <trkpt lat="50.95211" lon="2.71894">
        <ele>2.8</ele>
        <time>2020-06-23T14:35:35Z</time>
      </trkpt>
      <trkpt lat="50.95208" lon="2.71898">
        <ele>2.8</ele>
        <time>2020-06-23T14:35:36Z</time>
      </trkpt>
      <trkpt lat="50.95206" lon="2.71902">
        <ele>2.8</ele>
        <time>2020-06-23T14:35:37Z</time>
      </trkpt>
      <trkpt lat="50.95204" lon="2.71905">
        <ele>2.8</ele>
        <time>2020-06-23T14:35:38Z</time>
      </trkpt>
      <trkpt lat="50.95204" lon="2.71907">
        <ele>2.8</ele>
        <time>2020-06-23T14:35:39Z</time>
      </trkpt>
      <trkpt lat="50.95201" lon="2.7191">
        <ele>2.8</ele>
        <time>2020-06-23T14:35:40Z</time>
      </trkpt>
      <trkpt lat="50.95198" lon="2.71913">
        <ele>2.8</ele>
        <time>2020-06-23T14:35:41Z</time>
      </trkpt>
      <trkpt lat="50.95195" lon="2.71916">
        <ele>2.8</ele>
        <time>2020-06-23T14:35:42Z</time>
      </trkpt>
      <trkpt lat="50.95193" lon="2.71919">
        <ele>2.8</ele>
        <time>2020-06-23T14:35:43Z</time>
      </trkpt>
      <trkpt lat="50.9519" lon="2.71923">
        <ele>2.8</ele>
        <time>2020-06-23T14:35:44Z</time>
      </trkpt>
      <trkpt lat="50.95188" lon="2.71926">
        <ele>2.8</ele>
        <time>2020-06-23T14:35:45Z</time>
      </trkpt>
      <trkpt lat="50.95186" lon="2.7193">
        <ele>2.8</ele>
        <time>2020-06-23T14:35:46Z</time>
      </trkpt>
      <trkpt lat="50.95182" lon="2.71934">
        <ele>2.8</ele>
        <time>2020-06-23T14:35:47Z</time>
      </trkpt>
      <trkpt lat="50.95179" lon="2.71938">
        <ele>2.8</ele>
        <time>2020-06-23T14:35:48Z</time>
      </trkpt>
      <trkpt lat="50.95175" lon="2.71941">
        <ele>2.8</ele>
        <time>2020-06-23T14:35:49Z</time>
      </trkpt>
      <trkpt lat="50.95172" lon="2.71945">
        <ele>2.8</ele>
        <time>2020-06-23T14:35:50Z</time>
      </trkpt>
      <trkpt lat="50.95169" lon="2.71948">
        <ele>2.8</ele>
        <time>2020-06-23T14:35:51Z</time>
      </trkpt>
      <trkpt lat="50.95167" lon="2.71951">
        <ele>2.8</ele>
        <time>2020-06-23T14:35:52Z</time>
      </trkpt>
      <trkpt lat="50.95164" lon="2.71954">
        <ele>2.8</ele>
        <time>2020-06-23T14:35:53Z</time>
      </trkpt>
      <trkpt lat="50.95161" lon="2.71957">
        <ele>2.8</ele>
        <time>2020-06-23T14:35:54Z</time>
      </trkpt>
      <trkpt lat="50.95158" lon="2.7196">
        <ele>2.8</ele>
        <time>2020-06-23T14:35:55Z</time>
      </trkpt>
      <trkpt lat="50.95155" lon="2.71963">
        <ele>2.8</ele>
        <time>2020-06-23T14:35:56Z</time>
      </trkpt>
      <trkpt lat="50.95152" lon="2.71967">
        <ele>2.8</ele>
        <time>2020-06-23T14:35:57Z</time>
      </trkpt>
      <trkpt lat="50.9515" lon="2.7197">
        <ele>2.8</ele>
        <time>2020-06-23T14:35:58Z</time>
      </trkpt>
      <trkpt lat="50.95147" lon="2.71974">
        <ele>2.8</ele>
        <time>2020-06-23T14:35:59Z</time>
      </trkpt>
      <trkpt lat="50.95144" lon="2.71978">
        <ele>2.8</ele>
        <time>2020-06-23T14:36:00Z</time>
      </trkpt>
      <trkpt lat="50.95141" lon="2.71982">
        <ele>2.8</ele>
        <time>2020-06-23T14:36:01Z</time>
      </trkpt>
      <trkpt lat="50.95137" lon="2.71986">
        <ele>2.8</ele>
        <time>2020-06-23T14:36:02Z</time>
      </trkpt>
      <trkpt lat="50.95134" lon="2.7199">
        <ele>2.8</ele>
        <time>2020-06-23T14:36:03Z</time>
      </trkpt>
      <trkpt lat="50.95131" lon="2.71993">
        <ele>2.8</ele>
        <time>2020-06-23T14:36:04Z</time>
      </trkpt>
      <trkpt lat="50.95128" lon="2.71998">
        <ele>2.8</ele>
        <time>2020-06-23T14:36:05Z</time>
      </trkpt>
      <trkpt lat="50.95126" lon="2.72002">
        <ele>2.8</ele>
        <time>2020-06-23T14:36:06Z</time>
      </trkpt>
      <trkpt lat="50.95122" lon="2.72005">
        <ele>2.8</ele>
        <time>2020-06-23T14:36:07Z</time>
      </trkpt>
      <trkpt lat="50.95119" lon="2.72009">
        <ele>2.9</ele>
        <time>2020-06-23T14:36:08Z</time>
      </trkpt>
      <trkpt lat="50.95117" lon="2.72012">
        <ele>2.9</ele>
        <time>2020-06-23T14:36:09Z</time>
      </trkpt>
      <trkpt lat="50.95115" lon="2.72015">
        <ele>2.9</ele>
        <time>2020-06-23T14:36:10Z</time>
      </trkpt>
      <trkpt lat="50.95112" lon="2.72017">
        <ele>3</ele>
        <time>2020-06-23T14:36:11Z</time>
      </trkpt>
      <trkpt lat="50.9511" lon="2.7202">
        <ele>3</ele>
        <time>2020-06-23T14:36:12Z</time>
      </trkpt>
      <trkpt lat="50.95108" lon="2.72024">
        <ele>3</ele>
        <time>2020-06-23T14:36:13Z</time>
      </trkpt>
      <trkpt lat="50.95105" lon="2.72029">
        <ele>3.1</ele>
        <time>2020-06-23T14:36:14Z</time>
      </trkpt>
      <trkpt lat="50.95103" lon="2.72033">
        <ele>3.1</ele>
        <time>2020-06-23T14:36:15Z</time>
      </trkpt>
      <trkpt lat="50.95098" lon="2.72036">
        <ele>3.2</ele>
        <time>2020-06-23T14:36:16Z</time>
      </trkpt>
      <trkpt lat="50.95095" lon="2.72041">
        <ele>3.3</ele>
        <time>2020-06-23T14:36:17Z</time>
      </trkpt>
      <trkpt lat="50.95092" lon="2.72045">
        <ele>3.3</ele>
        <time>2020-06-23T14:36:18Z</time>
      </trkpt>
      <trkpt lat="50.95089" lon="2.7205">
        <ele>3.4</ele>
        <time>2020-06-23T14:36:19Z</time>
      </trkpt>
      <trkpt lat="50.95086" lon="2.72055">
        <ele>3.4</ele>
        <time>2020-06-23T14:36:20Z</time>
      </trkpt>
      <trkpt lat="50.95081" lon="2.72061">
        <ele>3.5</ele>
        <time>2020-06-23T14:36:21Z</time>
      </trkpt>
      <trkpt lat="50.95078" lon="2.72064">
        <ele>3.6</ele>
        <time>2020-06-23T14:36:22Z</time>
      </trkpt>
      <trkpt lat="50.95075" lon="2.72068">
        <ele>3.6</ele>
        <time>2020-06-23T14:36:23Z</time>
      </trkpt>
      <trkpt lat="50.95071" lon="2.72071">
        <ele>3.7</ele>
        <time>2020-06-23T14:36:24Z</time>
      </trkpt>
      <trkpt lat="50.95068" lon="2.72075">
        <ele>3.8</ele>
        <time>2020-06-23T14:36:25Z</time>
      </trkpt>
      <trkpt lat="50.95066" lon="2.72078">
        <ele>3.8</ele>
        <time>2020-06-23T14:36:26Z</time>
      </trkpt>
      <trkpt lat="50.95063" lon="2.72082">
        <ele>3.9</ele>
        <time>2020-06-23T14:36:27Z</time>
      </trkpt>
      <trkpt lat="50.9506" lon="2.72086">
        <ele>4</ele>
        <time>2020-06-23T14:36:28Z</time>
      </trkpt>
      <trkpt lat="50.95058" lon="2.72089">
        <ele>4</ele>
        <time>2020-06-23T14:36:29Z</time>
      </trkpt>
      <trkpt lat="50.95055" lon="2.7209">
        <ele>4.1</ele>
        <time>2020-06-23T14:36:30Z</time>
      </trkpt>
      <trkpt lat="50.95052" lon="2.72092">
        <ele>4.1</ele>
        <time>2020-06-23T14:36:31Z</time>
      </trkpt>
      <trkpt lat="50.95051" lon="2.72092">
        <ele>4.2</ele>
        <time>2020-06-23T14:36:32Z</time>
      </trkpt>
      <trkpt lat="50.95047" lon="2.72093">
        <ele>4.1</ele>
        <time>2020-06-23T14:36:33Z</time>
      </trkpt>
      <trkpt lat="50.95046" lon="2.72093">
        <ele>4.1</ele>
        <time>2020-06-23T14:36:34Z</time>
      </trkpt>
      <trkpt lat="50.95043" lon="2.72095">
        <ele>4.1</ele>
        <time>2020-06-23T14:36:35Z</time>
      </trkpt>
      <trkpt lat="50.95042" lon="2.72097">
        <ele>4.1</ele>
        <time>2020-06-23T14:36:36Z</time>
      </trkpt>
      <trkpt lat="50.95041" lon="2.72099">
        <ele>4</ele>
        <time>2020-06-23T14:36:37Z</time>
      </trkpt>
      <trkpt lat="50.9504" lon="2.72101">
        <ele>4</ele>
        <time>2020-06-23T14:36:38Z</time>
      </trkpt>
      <trkpt lat="50.95038" lon="2.72104">
        <ele>4</ele>
        <time>2020-06-23T14:36:39Z</time>
      </trkpt>
      <trkpt lat="50.95037" lon="2.72105">
        <ele>4</ele>
        <time>2020-06-23T14:36:40Z</time>
      </trkpt>
      <trkpt lat="50.95036" lon="2.72106">
        <ele>3.9</ele>
        <time>2020-06-23T14:36:41Z</time>
      </trkpt>
      <trkpt lat="50.95035" lon="2.72109">
        <ele>3.9</ele>
        <time>2020-06-23T14:36:42Z</time>
      </trkpt>
      <trkpt lat="50.95034" lon="2.72111">
        <ele>3.9</ele>
        <time>2020-06-23T14:36:43Z</time>
      </trkpt>
      <trkpt lat="50.95033" lon="2.72113">
        <ele>3.9</ele>
        <time>2020-06-23T14:36:44Z</time>
      </trkpt>
      <trkpt lat="50.95032" lon="2.72115">
        <ele>3.8</ele>
        <time>2020-06-23T14:36:45Z</time>
      </trkpt>
      <trkpt lat="50.95031" lon="2.72117">
        <ele>3.8</ele>
        <time>2020-06-23T14:36:46Z</time>
      </trkpt>
      <trkpt lat="50.95029" lon="2.72121">
        <ele>3.8</ele>
        <time>2020-06-23T14:36:47Z</time>
      </trkpt>
      <trkpt lat="50.95029" lon="2.72122">
        <ele>3.8</ele>
        <time>2020-06-23T14:36:48Z</time>
      </trkpt>
      <trkpt lat="50.95027" lon="2.72128">
        <ele>3.7</ele>
        <time>2020-06-23T14:36:49Z</time>
      </trkpt>
      <trkpt lat="50.95027" lon="2.7213">
        <ele>3.7</ele>
        <time>2020-06-23T14:36:50Z</time>
      </trkpt>
      <trkpt lat="50.95024" lon="2.72133">
        <ele>3.6</ele>
        <time>2020-06-23T14:36:51Z</time>
      </trkpt>
      <trkpt lat="50.95022" lon="2.72138">
        <ele>3.6</ele>
        <time>2020-06-23T14:36:52Z</time>
      </trkpt>
      <trkpt lat="50.95018" lon="2.72142">
        <ele>3.5</ele>
        <time>2020-06-23T14:36:53Z</time>
      </trkpt>
      <trkpt lat="50.95014" lon="2.72146">
        <ele>3.5</ele>
        <time>2020-06-23T14:36:54Z</time>
      </trkpt>
      <trkpt lat="50.9501" lon="2.72149">
        <ele>3.4</ele>
        <time>2020-06-23T14:36:55Z</time>
      </trkpt>
      <trkpt lat="50.95007" lon="2.72152">
        <ele>3.4</ele>
        <time>2020-06-23T14:36:56Z</time>
      </trkpt>
      <trkpt lat="50.95002" lon="2.72155">
        <ele>3.4</ele>
        <time>2020-06-23T14:36:57Z</time>
      </trkpt>
      <trkpt lat="50.94999" lon="2.72158">
        <ele>3.3</ele>
        <time>2020-06-23T14:36:58Z</time>
      </trkpt>
      <trkpt lat="50.94997" lon="2.7216">
        <ele>3.3</ele>
        <time>2020-06-23T14:36:59Z</time>
      </trkpt>
      <trkpt lat="50.94993" lon="2.72161">
        <ele>3.3</ele>
        <time>2020-06-23T14:37:00Z</time>
      </trkpt>
      <trkpt lat="50.9499" lon="2.72164">
        <ele>3.3</ele>
        <time>2020-06-23T14:37:01Z</time>
      </trkpt>
      <trkpt lat="50.94987" lon="2.72167">
        <ele>3.3</ele>
        <time>2020-06-23T14:37:02Z</time>
      </trkpt>
      <trkpt lat="50.94983" lon="2.72172">
        <ele>3.3</ele>
        <time>2020-06-23T14:37:03Z</time>
      </trkpt>
      <trkpt lat="50.94978" lon="2.72175">
        <ele>3.3</ele>
        <time>2020-06-23T14:37:04Z</time>
      </trkpt>
      <trkpt lat="50.94974" lon="2.72178">
        <ele>3.3</ele>
        <time>2020-06-23T14:37:05Z</time>
      </trkpt>
      <trkpt lat="50.9497" lon="2.72182">
        <ele>3.3</ele>
        <time>2020-06-23T14:37:06Z</time>
      </trkpt>
      <trkpt lat="50.94966" lon="2.72186">
        <ele>3.3</ele>
        <time>2020-06-23T14:37:07Z</time>
      </trkpt>
      <trkpt lat="50.94963" lon="2.72188">
        <ele>3.3</ele>
        <time>2020-06-23T14:37:08Z</time>
      </trkpt>
      <trkpt lat="50.94959" lon="2.72192">
        <ele>3.3</ele>
        <time>2020-06-23T14:37:09Z</time>
      </trkpt>
      <trkpt lat="50.94955" lon="2.72195">
        <ele>3.3</ele>
        <time>2020-06-23T14:37:10Z</time>
      </trkpt>
      <trkpt lat="50.94952" lon="2.722">
        <ele>3.2</ele>
        <time>2020-06-23T14:37:11Z</time>
      </trkpt>
      <trkpt lat="50.94948" lon="2.72205">
        <ele>3.2</ele>
        <time>2020-06-23T14:37:12Z</time>
      </trkpt>
      <trkpt lat="50.94945" lon="2.72208">
        <ele>3.2</ele>
        <time>2020-06-23T14:37:13Z</time>
      </trkpt>
      <trkpt lat="50.94941" lon="2.72212">
        <ele>3.2</ele>
        <time>2020-06-23T14:37:14Z</time>
      </trkpt>
      <trkpt lat="50.94938" lon="2.72216">
        <ele>3.2</ele>
        <time>2020-06-23T14:37:15Z</time>
      </trkpt>
      <trkpt lat="50.94935" lon="2.72221">
        <ele>3.2</ele>
        <time>2020-06-23T14:37:16Z</time>
      </trkpt>
      <trkpt lat="50.94931" lon="2.72225">
        <ele>3.2</ele>
        <time>2020-06-23T14:37:17Z</time>
      </trkpt>
      <trkpt lat="50.94926" lon="2.72228">
        <ele>3.2</ele>
        <time>2020-06-23T14:37:18Z</time>
      </trkpt>
      <trkpt lat="50.94922" lon="2.72233">
        <ele>3.2</ele>
        <time>2020-06-23T14:37:19Z</time>
      </trkpt>
      <trkpt lat="50.94918" lon="2.72239">
        <ele>3.2</ele>
        <time>2020-06-23T14:37:20Z</time>
      </trkpt>
      <trkpt lat="50.94911" lon="2.72243">
        <ele>3.1</ele>
        <time>2020-06-23T14:37:21Z</time>
      </trkpt>
      <trkpt lat="50.94907" lon="2.72248">
        <ele>3.1</ele>
        <time>2020-06-23T14:37:22Z</time>
      </trkpt>
      <trkpt lat="50.94902" lon="2.7225">
        <ele>3.1</ele>
        <time>2020-06-23T14:37:23Z</time>
      </trkpt>
      <trkpt lat="50.94896" lon="2.72254">
        <ele>3.1</ele>
        <time>2020-06-23T14:37:24Z</time>
      </trkpt>
      <trkpt lat="50.9489" lon="2.72257">
        <ele>3.1</ele>
        <time>2020-06-23T14:37:25Z</time>
      </trkpt>
      <trkpt lat="50.94885" lon="2.7226">
        <ele>3.1</ele>
        <time>2020-06-23T14:37:26Z</time>
      </trkpt>
      <trkpt lat="50.9488" lon="2.72264">
        <ele>3.1</ele>
        <time>2020-06-23T14:37:27Z</time>
      </trkpt>
      <trkpt lat="50.94875" lon="2.72268">
        <ele>3.1</ele>
        <time>2020-06-23T14:37:28Z</time>
      </trkpt>
      <trkpt lat="50.9487" lon="2.72271">
        <ele>3.1</ele>
        <time>2020-06-23T14:37:29Z</time>
      </trkpt>
      <trkpt lat="50.94865" lon="2.72275">
        <ele>3.1</ele>
        <time>2020-06-23T14:37:30Z</time>
      </trkpt>
      <trkpt lat="50.9486" lon="2.72278">
        <ele>3.1</ele>
        <time>2020-06-23T14:37:31Z</time>
      </trkpt>
      <trkpt lat="50.94854" lon="2.72282">
        <ele>3.1</ele>
        <time>2020-06-23T14:37:32Z</time>
      </trkpt>
      <trkpt lat="50.94849" lon="2.72287">
        <ele>3.1</ele>
        <time>2020-06-23T14:37:33Z</time>
      </trkpt>
      <trkpt lat="50.94843" lon="2.72291">
        <ele>3.1</ele>
        <time>2020-06-23T14:37:34Z</time>
      </trkpt>
      <trkpt lat="50.94837" lon="2.72294">
        <ele>3.2</ele>
        <time>2020-06-23T14:37:35Z</time>
      </trkpt>
      <trkpt lat="50.94832" lon="2.72298">
        <ele>3.2</ele>
        <time>2020-06-23T14:37:36Z</time>
      </trkpt>
      <trkpt lat="50.94827" lon="2.72303">
        <ele>3.2</ele>
        <time>2020-06-23T14:37:37Z</time>
      </trkpt>
      <trkpt lat="50.94823" lon="2.72307">
        <ele>3.3</ele>
        <time>2020-06-23T14:37:38Z</time>
      </trkpt>
      <trkpt lat="50.94817" lon="2.72311">
        <ele>3.3</ele>
        <time>2020-06-23T14:37:39Z</time>
      </trkpt>
      <trkpt lat="50.94812" lon="2.72317">
        <ele>3.2</ele>
        <time>2020-06-23T14:37:40Z</time>
      </trkpt>
      <trkpt lat="50.94806" lon="2.72322">
        <ele>3.2</ele>
        <time>2020-06-23T14:37:41Z</time>
      </trkpt>
      <trkpt lat="50.94801" lon="2.72328">
        <ele>3.2</ele>
        <time>2020-06-23T14:37:42Z</time>
      </trkpt>
      <trkpt lat="50.94796" lon="2.72333">
        <ele>3.3</ele>
        <time>2020-06-23T14:37:43Z</time>
      </trkpt>
      <trkpt lat="50.9479" lon="2.72337">
        <ele>3.3</ele>
        <time>2020-06-23T14:37:44Z</time>
      </trkpt>
      <trkpt lat="50.94785" lon="2.72339">
        <ele>3.3</ele>
        <time>2020-06-23T14:37:45Z</time>
      </trkpt>
      <trkpt lat="50.94779" lon="2.72343">
        <ele>3.4</ele>
        <time>2020-06-23T14:37:46Z</time>
      </trkpt>
      <trkpt lat="50.94774" lon="2.72346">
        <ele>3.4</ele>
        <time>2020-06-23T14:37:47Z</time>
      </trkpt>
      <trkpt lat="50.94768" lon="2.72349">
        <ele>3.4</ele>
        <time>2020-06-23T14:37:48Z</time>
      </trkpt>
      <trkpt lat="50.94763" lon="2.72351">
        <ele>3.5</ele>
        <time>2020-06-23T14:37:49Z</time>
      </trkpt>
      <trkpt lat="50.94755" lon="2.72355">
        <ele>3.5</ele>
        <time>2020-06-23T14:37:50Z</time>
      </trkpt>
      <trkpt lat="50.94751" lon="2.72358">
        <ele>3.6</ele>
        <time>2020-06-23T14:37:51Z</time>
      </trkpt>
      <trkpt lat="50.94745" lon="2.72363">
        <ele>3.6</ele>
        <time>2020-06-23T14:37:52Z</time>
      </trkpt>
      <trkpt lat="50.94739" lon="2.72364">
        <ele>3.5</ele>
        <time>2020-06-23T14:37:53Z</time>
      </trkpt>
      <trkpt lat="50.94733" lon="2.72367">
        <ele>3.5</ele>
        <time>2020-06-23T14:37:54Z</time>
      </trkpt>
      <trkpt lat="50.94727" lon="2.7237">
        <ele>3.5</ele>
        <time>2020-06-23T14:37:55Z</time>
      </trkpt>
      <trkpt lat="50.9472" lon="2.72373">
        <ele>3.5</ele>
        <time>2020-06-23T14:37:56Z</time>
      </trkpt>
      <trkpt lat="50.94714" lon="2.72377">
        <ele>3.5</ele>
        <time>2020-06-23T14:37:57Z</time>
      </trkpt>
      <trkpt lat="50.94708" lon="2.72381">
        <ele>3.6</ele>
        <time>2020-06-23T14:37:58Z</time>
      </trkpt>
      <trkpt lat="50.94703" lon="2.72384">
        <ele>3.6</ele>
        <time>2020-06-23T14:37:59Z</time>
      </trkpt>
      <trkpt lat="50.94696" lon="2.72388">
        <ele>3.6</ele>
        <time>2020-06-23T14:38:00Z</time>
      </trkpt>
      <trkpt lat="50.94691" lon="2.72392">
        <ele>3.6</ele>
        <time>2020-06-23T14:38:01Z</time>
      </trkpt>
      <trkpt lat="50.94685" lon="2.72395">
        <ele>3.6</ele>
        <time>2020-06-23T14:38:02Z</time>
      </trkpt>
      <trkpt lat="50.94678" lon="2.72399">
        <ele>3.6</ele>
        <time>2020-06-23T14:38:03Z</time>
      </trkpt>
      <trkpt lat="50.94672" lon="2.72403">
        <ele>3.6</ele>
        <time>2020-06-23T14:38:04Z</time>
      </trkpt>
      <trkpt lat="50.94666" lon="2.72405">
        <ele>3.6</ele>
        <time>2020-06-23T14:38:05Z</time>
      </trkpt>
      <trkpt lat="50.94661" lon="2.72409">
        <ele>3.6</ele>
        <time>2020-06-23T14:38:06Z</time>
      </trkpt>
      <trkpt lat="50.94655" lon="2.72412">
        <ele>3.6</ele>
        <time>2020-06-23T14:38:07Z</time>
      </trkpt>
      <trkpt lat="50.94649" lon="2.72416">
        <ele>3.6</ele>
        <time>2020-06-23T14:38:08Z</time>
      </trkpt>
      <trkpt lat="50.94643" lon="2.72421">
        <ele>3.6</ele>
        <time>2020-06-23T14:38:09Z</time>
      </trkpt>
      <trkpt lat="50.94637" lon="2.72425">
        <ele>3.6</ele>
        <time>2020-06-23T14:38:10Z</time>
      </trkpt>
      <trkpt lat="50.94632" lon="2.72429">
        <ele>3.6</ele>
        <time>2020-06-23T14:38:11Z</time>
      </trkpt>
      <trkpt lat="50.94626" lon="2.72433">
        <ele>3.6</ele>
        <time>2020-06-23T14:38:12Z</time>
      </trkpt>
      <trkpt lat="50.94618" lon="2.72439">
        <ele>3.6</ele>
        <time>2020-06-23T14:38:13Z</time>
      </trkpt>
      <trkpt lat="50.94612" lon="2.72442">
        <ele>3.7</ele>
        <time>2020-06-23T14:38:14Z</time>
      </trkpt>
      <trkpt lat="50.94607" lon="2.72445">
        <ele>3.7</ele>
        <time>2020-06-23T14:38:15Z</time>
      </trkpt>
      <trkpt lat="50.946" lon="2.72448">
        <ele>3.7</ele>
        <time>2020-06-23T14:38:16Z</time>
      </trkpt>
      <trkpt lat="50.94594" lon="2.72452">
        <ele>3.7</ele>
        <time>2020-06-23T14:38:17Z</time>
      </trkpt>
      <trkpt lat="50.94588" lon="2.72457">
        <ele>3.7</ele>
        <time>2020-06-23T14:38:18Z</time>
      </trkpt>
      <trkpt lat="50.94582" lon="2.72462">
        <ele>3.7</ele>
        <time>2020-06-23T14:38:19Z</time>
      </trkpt>
      <trkpt lat="50.94576" lon="2.72467">
        <ele>3.7</ele>
        <time>2020-06-23T14:38:20Z</time>
      </trkpt>
      <trkpt lat="50.9457" lon="2.72472">
        <ele>3.8</ele>
        <time>2020-06-23T14:38:21Z</time>
      </trkpt>
      <trkpt lat="50.94565" lon="2.72477">
        <ele>3.8</ele>
        <time>2020-06-23T14:38:22Z</time>
      </trkpt>
      <trkpt lat="50.9456" lon="2.72481">
        <ele>3.8</ele>
        <time>2020-06-23T14:38:23Z</time>
      </trkpt>
      <trkpt lat="50.94554" lon="2.72484">
        <ele>3.9</ele>
        <time>2020-06-23T14:38:24Z</time>
      </trkpt>
      <trkpt lat="50.94549" lon="2.72487">
        <ele>3.9</ele>
        <time>2020-06-23T14:38:25Z</time>
      </trkpt>
      <trkpt lat="50.94545" lon="2.72491">
        <ele>3.9</ele>
        <time>2020-06-23T14:38:26Z</time>
      </trkpt>
      <trkpt lat="50.9454" lon="2.72495">
        <ele>3.9</ele>
        <time>2020-06-23T14:38:27Z</time>
      </trkpt>
      <trkpt lat="50.94536" lon="2.72499">
        <ele>3.9</ele>
        <time>2020-06-23T14:38:28Z</time>
      </trkpt>
      <trkpt lat="50.94531" lon="2.72504">
        <ele>3.9</ele>
        <time>2020-06-23T14:38:29Z</time>
      </trkpt>
      <trkpt lat="50.94525" lon="2.7251">
        <ele>3.9</ele>
        <time>2020-06-23T14:38:30Z</time>
      </trkpt>
      <trkpt lat="50.9452" lon="2.72514">
        <ele>3.9</ele>
        <time>2020-06-23T14:38:31Z</time>
      </trkpt>
      <trkpt lat="50.94514" lon="2.72519">
        <ele>4</ele>
        <time>2020-06-23T14:38:32Z</time>
      </trkpt>
      <trkpt lat="50.94508" lon="2.72525">
        <ele>4</ele>
        <time>2020-06-23T14:38:33Z</time>
      </trkpt>
      <trkpt lat="50.94502" lon="2.72531">
        <ele>4.1</ele>
        <time>2020-06-23T14:38:34Z</time>
      </trkpt>
      <trkpt lat="50.94496" lon="2.72537">
        <ele>4.1</ele>
        <time>2020-06-23T14:38:35Z</time>
      </trkpt>
      <trkpt lat="50.94491" lon="2.72542">
        <ele>4.1</ele>
        <time>2020-06-23T14:38:36Z</time>
      </trkpt>
      <trkpt lat="50.94487" lon="2.72546">
        <ele>4.1</ele>
        <time>2020-06-23T14:38:37Z</time>
      </trkpt>
      <trkpt lat="50.94482" lon="2.72551">
        <ele>4.1</ele>
        <time>2020-06-23T14:38:38Z</time>
      </trkpt>
      <trkpt lat="50.94478" lon="2.72555">
        <ele>4</ele>
        <time>2020-06-23T14:38:39Z</time>
      </trkpt>
      <trkpt lat="50.94473" lon="2.72559">
        <ele>4</ele>
        <time>2020-06-23T14:38:40Z</time>
      </trkpt>
      <trkpt lat="50.94467" lon="2.72562">
        <ele>4</ele>
        <time>2020-06-23T14:38:41Z</time>
      </trkpt>
      <trkpt lat="50.94462" lon="2.72567">
        <ele>4</ele>
        <time>2020-06-23T14:38:42Z</time>
      </trkpt>
      <trkpt lat="50.94456" lon="2.72572">
        <ele>4</ele>
        <time>2020-06-23T14:38:43Z</time>
      </trkpt>
      <trkpt lat="50.94451" lon="2.72575">
        <ele>4.1</ele>
        <time>2020-06-23T14:38:44Z</time>
      </trkpt>
      <trkpt lat="50.94445" lon="2.72579">
        <ele>4.1</ele>
        <time>2020-06-23T14:38:45Z</time>
      </trkpt>
      <trkpt lat="50.94439" lon="2.72582">
        <ele>4.1</ele>
        <time>2020-06-23T14:38:46Z</time>
      </trkpt>
      <trkpt lat="50.94433" lon="2.72585">
        <ele>4.1</ele>
        <time>2020-06-23T14:38:47Z</time>
      </trkpt>
      <trkpt lat="50.94428" lon="2.72588">
        <ele>4.1</ele>
        <time>2020-06-23T14:38:48Z</time>
      </trkpt>
      <trkpt lat="50.94423" lon="2.7259">
        <ele>4.1</ele>
        <time>2020-06-23T14:38:49Z</time>
      </trkpt>
      <trkpt lat="50.94418" lon="2.72593">
        <ele>4.1</ele>
        <time>2020-06-23T14:38:50Z</time>
      </trkpt>
      <trkpt lat="50.94413" lon="2.72595">
        <ele>4.1</ele>
        <time>2020-06-23T14:38:51Z</time>
      </trkpt>
      <trkpt lat="50.94407" lon="2.72598">
        <ele>4.1</ele>
        <time>2020-06-23T14:38:52Z</time>
      </trkpt>
      <trkpt lat="50.94403" lon="2.726">
        <ele>4.1</ele>
        <time>2020-06-23T14:38:53Z</time>
      </trkpt>
      <trkpt lat="50.94399" lon="2.72603">
        <ele>4.1</ele>
        <time>2020-06-23T14:38:54Z</time>
      </trkpt>
      <trkpt lat="50.94395" lon="2.72607">
        <ele>4.1</ele>
        <time>2020-06-23T14:38:55Z</time>
      </trkpt>
      <trkpt lat="50.94391" lon="2.7261">
        <ele>4.2</ele>
        <time>2020-06-23T14:38:56Z</time>
      </trkpt>
      <trkpt lat="50.94387" lon="2.72613">
        <ele>4.2</ele>
        <time>2020-06-23T14:38:57Z</time>
      </trkpt>
      <trkpt lat="50.94383" lon="2.72615">
        <ele>4.2</ele>
        <time>2020-06-23T14:38:58Z</time>
      </trkpt>
      <trkpt lat="50.94382" lon="2.72616">
        <ele>4.2</ele>
        <time>2020-06-23T14:38:59Z</time>
      </trkpt>
      <trkpt lat="50.94378" lon="2.72618">
        <ele>4.2</ele>
        <time>2020-06-23T14:39:00Z</time>
      </trkpt>
      <trkpt lat="50.94375" lon="2.7262">
        <ele>4.2</ele>
        <time>2020-06-23T14:39:01Z</time>
      </trkpt>
      <trkpt lat="50.9437" lon="2.72622">
        <ele>4.2</ele>
        <time>2020-06-23T14:39:02Z</time>
      </trkpt>
      <trkpt lat="50.94365" lon="2.72627">
        <ele>4.2</ele>
        <time>2020-06-23T14:39:03Z</time>
      </trkpt>
      <trkpt lat="50.94359" lon="2.72631">
        <ele>4.2</ele>
        <time>2020-06-23T14:39:04Z</time>
      </trkpt>
      <trkpt lat="50.94354" lon="2.72635">
        <ele>4.2</ele>
        <time>2020-06-23T14:39:05Z</time>
      </trkpt>
      <trkpt lat="50.94348" lon="2.7264">
        <ele>4.2</ele>
        <time>2020-06-23T14:39:06Z</time>
      </trkpt>
      <trkpt lat="50.94344" lon="2.72644">
        <ele>4.1</ele>
        <time>2020-06-23T14:39:07Z</time>
      </trkpt>
      <trkpt lat="50.9434" lon="2.72645">
        <ele>4.1</ele>
        <time>2020-06-23T14:39:08Z</time>
      </trkpt>
      <trkpt lat="50.94335" lon="2.72647">
        <ele>4.1</ele>
        <time>2020-06-23T14:39:09Z</time>
      </trkpt>
      <trkpt lat="50.94331" lon="2.7265">
        <ele>4</ele>
        <time>2020-06-23T14:39:10Z</time>
      </trkpt>
      <trkpt lat="50.94327" lon="2.72653">
        <ele>4</ele>
        <time>2020-06-23T14:39:11Z</time>
      </trkpt>
      <trkpt lat="50.94323" lon="2.72656">
        <ele>4</ele>
        <time>2020-06-23T14:39:12Z</time>
      </trkpt>
      <trkpt lat="50.94318" lon="2.72659">
        <ele>4</ele>
        <time>2020-06-23T14:39:13Z</time>
      </trkpt>
      <trkpt lat="50.94314" lon="2.72661">
        <ele>4</ele>
        <time>2020-06-23T14:39:14Z</time>
      </trkpt>
      <trkpt lat="50.9431" lon="2.72664">
        <ele>3.9</ele>
        <time>2020-06-23T14:39:15Z</time>
      </trkpt>
      <trkpt lat="50.94304" lon="2.72667">
        <ele>3.9</ele>
        <time>2020-06-23T14:39:16Z</time>
      </trkpt>
      <trkpt lat="50.94299" lon="2.7267">
        <ele>3.9</ele>
        <time>2020-06-23T14:39:17Z</time>
      </trkpt>
      <trkpt lat="50.94293" lon="2.72673">
        <ele>3.9</ele>
        <time>2020-06-23T14:39:18Z</time>
      </trkpt>
      <trkpt lat="50.94289" lon="2.72676">
        <ele>3.9</ele>
        <time>2020-06-23T14:39:19Z</time>
      </trkpt>
      <trkpt lat="50.94284" lon="2.72678">
        <ele>3.9</ele>
        <time>2020-06-23T14:39:20Z</time>
      </trkpt>
      <trkpt lat="50.94279" lon="2.72681">
        <ele>3.9</ele>
        <time>2020-06-23T14:39:21Z</time>
      </trkpt>
      <trkpt lat="50.94276" lon="2.72685">
        <ele>3.9</ele>
        <time>2020-06-23T14:39:22Z</time>
      </trkpt>
      <trkpt lat="50.94271" lon="2.72688">
        <ele>3.9</ele>
        <time>2020-06-23T14:39:23Z</time>
      </trkpt>
      <trkpt lat="50.94269" lon="2.72692">
        <ele>3.9</ele>
        <time>2020-06-23T14:39:24Z</time>
      </trkpt>
      <trkpt lat="50.94265" lon="2.72695">
        <ele>3.9</ele>
        <time>2020-06-23T14:39:25Z</time>
      </trkpt>
      <trkpt lat="50.94261" lon="2.72698">
        <ele>3.9</ele>
        <time>2020-06-23T14:39:26Z</time>
      </trkpt>
      <trkpt lat="50.94258" lon="2.72702">
        <ele>3.9</ele>
        <time>2020-06-23T14:39:27Z</time>
      </trkpt>
      <trkpt lat="50.94256" lon="2.72704">
        <ele>3.9</ele>
        <time>2020-06-23T14:39:28Z</time>
      </trkpt>
      <trkpt lat="50.94252" lon="2.72707">
        <ele>3.8</ele>
        <time>2020-06-23T14:39:29Z</time>
      </trkpt>
      <trkpt lat="50.94248" lon="2.7271">
        <ele>3.8</ele>
        <time>2020-06-23T14:39:30Z</time>
      </trkpt>
      <trkpt lat="50.94244" lon="2.72715">
        <ele>3.8</ele>
        <time>2020-06-23T14:39:31Z</time>
      </trkpt>
      <trkpt lat="50.9424" lon="2.72719">
        <ele>3.8</ele>
        <time>2020-06-23T14:39:32Z</time>
      </trkpt>
      <trkpt lat="50.94236" lon="2.72723">
        <ele>3.8</ele>
        <time>2020-06-23T14:39:33Z</time>
      </trkpt>
      <trkpt lat="50.94231" lon="2.72727">
        <ele>3.7</ele>
        <time>2020-06-23T14:39:34Z</time>
      </trkpt>
      <trkpt lat="50.94227" lon="2.72732">
        <ele>3.7</ele>
        <time>2020-06-23T14:39:35Z</time>
      </trkpt>
      <trkpt lat="50.94222" lon="2.72736">
        <ele>3.7</ele>
        <time>2020-06-23T14:39:36Z</time>
      </trkpt>
      <trkpt lat="50.94217" lon="2.7274">
        <ele>3.7</ele>
        <time>2020-06-23T14:39:37Z</time>
      </trkpt>
      <trkpt lat="50.94212" lon="2.72745">
        <ele>3.8</ele>
        <time>2020-06-23T14:39:38Z</time>
      </trkpt>
      <trkpt lat="50.94207" lon="2.72748">
        <ele>3.8</ele>
        <time>2020-06-23T14:39:39Z</time>
      </trkpt>
      <trkpt lat="50.94202" lon="2.72752">
        <ele>3.8</ele>
        <time>2020-06-23T14:39:40Z</time>
      </trkpt>
      <trkpt lat="50.94197" lon="2.72756">
        <ele>3.9</ele>
        <time>2020-06-23T14:39:41Z</time>
      </trkpt>
      <trkpt lat="50.94192" lon="2.7276">
        <ele>3.9</ele>
        <time>2020-06-23T14:39:42Z</time>
      </trkpt>
      <trkpt lat="50.94187" lon="2.72765">
        <ele>3.8</ele>
        <time>2020-06-23T14:39:43Z</time>
      </trkpt>
      <trkpt lat="50.94183" lon="2.7277">
        <ele>3.8</ele>
        <time>2020-06-23T14:39:44Z</time>
      </trkpt>
      <trkpt lat="50.94178" lon="2.72775">
        <ele>3.8</ele>
        <time>2020-06-23T14:39:45Z</time>
      </trkpt>
      <trkpt lat="50.94173" lon="2.7278">
        <ele>3.8</ele>
        <time>2020-06-23T14:39:46Z</time>
      </trkpt>
      <trkpt lat="50.94168" lon="2.72784">
        <ele>3.8</ele>
        <time>2020-06-23T14:39:47Z</time>
      </trkpt>
      <trkpt lat="50.94164" lon="2.72787">
        <ele>3.8</ele>
        <time>2020-06-23T14:39:48Z</time>
      </trkpt>
      <trkpt lat="50.94159" lon="2.72792">
        <ele>3.8</ele>
        <time>2020-06-23T14:39:49Z</time>
      </trkpt>
      <trkpt lat="50.94155" lon="2.72795">
        <ele>3.8</ele>
        <time>2020-06-23T14:39:50Z</time>
      </trkpt>
      <trkpt lat="50.9415" lon="2.728">
        <ele>3.8</ele>
        <time>2020-06-23T14:39:51Z</time>
      </trkpt>
      <trkpt lat="50.94146" lon="2.72804">
        <ele>3.8</ele>
        <time>2020-06-23T14:39:52Z</time>
      </trkpt>
      <trkpt lat="50.94142" lon="2.72807">
        <ele>3.7</ele>
        <time>2020-06-23T14:39:53Z</time>
      </trkpt>
      <trkpt lat="50.94137" lon="2.72811">
        <ele>3.7</ele>
        <time>2020-06-23T14:39:54Z</time>
      </trkpt>
      <trkpt lat="50.94132" lon="2.72815">
        <ele>3.7</ele>
        <time>2020-06-23T14:39:55Z</time>
      </trkpt>
      <trkpt lat="50.94126" lon="2.7282">
        <ele>3.6</ele>
        <time>2020-06-23T14:39:56Z</time>
      </trkpt>
      <trkpt lat="50.9412" lon="2.72824">
        <ele>3.6</ele>
        <time>2020-06-23T14:39:57Z</time>
      </trkpt>
      <trkpt lat="50.94115" lon="2.72829">
        <ele>3.6</ele>
        <time>2020-06-23T14:39:58Z</time>
      </trkpt>
      <trkpt lat="50.9411" lon="2.72833">
        <ele>3.6</ele>
        <time>2020-06-23T14:39:59Z</time>
      </trkpt>
      <trkpt lat="50.94105" lon="2.72838">
        <ele>3.7</ele>
        <time>2020-06-23T14:40:00Z</time>
      </trkpt>
      <trkpt lat="50.94099" lon="2.72844">
        <ele>3.7</ele>
        <time>2020-06-23T14:40:01Z</time>
      </trkpt>
      <trkpt lat="50.94094" lon="2.72849">
        <ele>3.7</ele>
        <time>2020-06-23T14:40:02Z</time>
      </trkpt>
      <trkpt lat="50.94088" lon="2.72853">
        <ele>3.7</ele>
        <time>2020-06-23T14:40:03Z</time>
      </trkpt>
      <trkpt lat="50.94083" lon="2.72858">
        <ele>3.8</ele>
        <time>2020-06-23T14:40:04Z</time>
      </trkpt>
      <trkpt lat="50.94077" lon="2.72863">
        <ele>3.9</ele>
        <time>2020-06-23T14:40:05Z</time>
      </trkpt>
      <trkpt lat="50.94071" lon="2.72869">
        <ele>3.9</ele>
        <time>2020-06-23T14:40:06Z</time>
      </trkpt>
      <trkpt lat="50.94065" lon="2.72874">
        <ele>4</ele>
        <time>2020-06-23T14:40:07Z</time>
      </trkpt>
      <trkpt lat="50.9406" lon="2.72877">
        <ele>4</ele>
        <time>2020-06-23T14:40:08Z</time>
      </trkpt>
      <trkpt lat="50.94055" lon="2.72881">
        <ele>4</ele>
        <time>2020-06-23T14:40:09Z</time>
      </trkpt>
      <trkpt lat="50.94049" lon="2.72885">
        <ele>4</ele>
        <time>2020-06-23T14:40:10Z</time>
      </trkpt>
      <trkpt lat="50.94044" lon="2.7289">
        <ele>4</ele>
        <time>2020-06-23T14:40:11Z</time>
      </trkpt>
      <trkpt lat="50.94039" lon="2.72894">
        <ele>4</ele>
        <time>2020-06-23T14:40:12Z</time>
      </trkpt>
      <trkpt lat="50.94034" lon="2.72899">
        <ele>4</ele>
        <time>2020-06-23T14:40:13Z</time>
      </trkpt>
      <trkpt lat="50.94029" lon="2.72903">
        <ele>4</ele>
        <time>2020-06-23T14:40:14Z</time>
      </trkpt>
      <trkpt lat="50.94024" lon="2.72908">
        <ele>4</ele>
        <time>2020-06-23T14:40:15Z</time>
      </trkpt>
      <trkpt lat="50.94018" lon="2.72912">
        <ele>4</ele>
        <time>2020-06-23T14:40:16Z</time>
      </trkpt>
      <trkpt lat="50.94013" lon="2.72917">
        <ele>4</ele>
        <time>2020-06-23T14:40:17Z</time>
      </trkpt>
      <trkpt lat="50.94008" lon="2.72922">
        <ele>4</ele>
        <time>2020-06-23T14:40:18Z</time>
      </trkpt>
      <trkpt lat="50.94003" lon="2.72928">
        <ele>4</ele>
        <time>2020-06-23T14:40:19Z</time>
      </trkpt>
      <trkpt lat="50.93998" lon="2.72932">
        <ele>4</ele>
        <time>2020-06-23T14:40:20Z</time>
      </trkpt>
      <trkpt lat="50.93992" lon="2.72938">
        <ele>4</ele>
        <time>2020-06-23T14:40:21Z</time>
      </trkpt>
      <trkpt lat="50.93986" lon="2.72943">
        <ele>4</ele>
        <time>2020-06-23T14:40:22Z</time>
      </trkpt>
      <trkpt lat="50.93981" lon="2.72949">
        <ele>4</ele>
        <time>2020-06-23T14:40:23Z</time>
      </trkpt>
      <trkpt lat="50.93975" lon="2.72954">
        <ele>4</ele>
        <time>2020-06-23T14:40:24Z</time>
      </trkpt>
      <trkpt lat="50.93969" lon="2.72959">
        <ele>4</ele>
        <time>2020-06-23T14:40:25Z</time>
      </trkpt>
      <trkpt lat="50.93964" lon="2.72964">
        <ele>4</ele>
        <time>2020-06-23T14:40:26Z</time>
      </trkpt>
      <trkpt lat="50.93958" lon="2.72969">
        <ele>4</ele>
        <time>2020-06-23T14:40:27Z</time>
      </trkpt>
      <trkpt lat="50.93953" lon="2.72973">
        <ele>4</ele>
        <time>2020-06-23T14:40:28Z</time>
      </trkpt>
      <trkpt lat="50.93947" lon="2.72977">
        <ele>4</ele>
        <time>2020-06-23T14:40:29Z</time>
      </trkpt>
      <trkpt lat="50.93943" lon="2.72982">
        <ele>4</ele>
        <time>2020-06-23T14:40:30Z</time>
      </trkpt>
      <trkpt lat="50.93937" lon="2.72986">
        <ele>4</ele>
        <time>2020-06-23T14:40:31Z</time>
      </trkpt>
      <trkpt lat="50.93932" lon="2.72991">
        <ele>4</ele>
        <time>2020-06-23T14:40:32Z</time>
      </trkpt>
      <trkpt lat="50.93926" lon="2.72996">
        <ele>4</ele>
        <time>2020-06-23T14:40:33Z</time>
      </trkpt>
      <trkpt lat="50.93921" lon="2.73001">
        <ele>4</ele>
        <time>2020-06-23T14:40:34Z</time>
      </trkpt>
      <trkpt lat="50.93916" lon="2.73006">
        <ele>4</ele>
        <time>2020-06-23T14:40:35Z</time>
      </trkpt>
      <trkpt lat="50.93911" lon="2.73011">
        <ele>4</ele>
        <time>2020-06-23T14:40:36Z</time>
      </trkpt>
      <trkpt lat="50.93906" lon="2.73015">
        <ele>4</ele>
        <time>2020-06-23T14:40:37Z</time>
      </trkpt>
      <trkpt lat="50.93901" lon="2.73021">
        <ele>4</ele>
        <time>2020-06-23T14:40:38Z</time>
      </trkpt>
      <trkpt lat="50.93896" lon="2.73025">
        <ele>3.9</ele>
        <time>2020-06-23T14:40:39Z</time>
      </trkpt>
      <trkpt lat="50.93891" lon="2.73029">
        <ele>3.9</ele>
        <time>2020-06-23T14:40:40Z</time>
      </trkpt>
      <trkpt lat="50.93885" lon="2.73034">
        <ele>3.9</ele>
        <time>2020-06-23T14:40:41Z</time>
      </trkpt>
      <trkpt lat="50.9388" lon="2.73038">
        <ele>3.9</ele>
        <time>2020-06-23T14:40:42Z</time>
      </trkpt>
      <trkpt lat="50.93874" lon="2.73043">
        <ele>3.9</ele>
        <time>2020-06-23T14:40:43Z</time>
      </trkpt>
      <trkpt lat="50.93869" lon="2.73048">
        <ele>3.9</ele>
        <time>2020-06-23T14:40:44Z</time>
      </trkpt>
      <trkpt lat="50.93863" lon="2.73053">
        <ele>3.9</ele>
        <time>2020-06-23T14:40:45Z</time>
      </trkpt>
      <trkpt lat="50.93857" lon="2.73059">
        <ele>3.9</ele>
        <time>2020-06-23T14:40:46Z</time>
      </trkpt>
      <trkpt lat="50.93852" lon="2.73064">
        <ele>3.9</ele>
        <time>2020-06-23T14:40:47Z</time>
      </trkpt>
      <trkpt lat="50.93846" lon="2.7307">
        <ele>3.9</ele>
        <time>2020-06-23T14:40:48Z</time>
      </trkpt>
      <trkpt lat="50.9384" lon="2.73075">
        <ele>3.9</ele>
        <time>2020-06-23T14:40:49Z</time>
      </trkpt>
      <trkpt lat="50.93834" lon="2.73079">
        <ele>3.9</ele>
        <time>2020-06-23T14:40:50Z</time>
      </trkpt>
      <trkpt lat="50.93827" lon="2.73083">
        <ele>3.9</ele>
        <time>2020-06-23T14:40:51Z</time>
      </trkpt>
      <trkpt lat="50.93821" lon="2.73089">
        <ele>3.8</ele>
        <time>2020-06-23T14:40:52Z</time>
      </trkpt>
      <trkpt lat="50.93815" lon="2.73094">
        <ele>3.8</ele>
        <time>2020-06-23T14:40:53Z</time>
      </trkpt>
      <trkpt lat="50.9381" lon="2.73098">
        <ele>3.8</ele>
        <time>2020-06-23T14:40:54Z</time>
      </trkpt>
      <trkpt lat="50.93805" lon="2.73103">
        <ele>3.8</ele>
        <time>2020-06-23T14:40:55Z</time>
      </trkpt>
      <trkpt lat="50.93799" lon="2.73108">
        <ele>3.7</ele>
        <time>2020-06-23T14:40:56Z</time>
      </trkpt>
      <trkpt lat="50.93793" lon="2.73112">
        <ele>3.7</ele>
        <time>2020-06-23T14:40:57Z</time>
      </trkpt>
      <trkpt lat="50.93788" lon="2.73116">
        <ele>3.7</ele>
        <time>2020-06-23T14:40:58Z</time>
      </trkpt>
      <trkpt lat="50.93783" lon="2.73121">
        <ele>3.7</ele>
        <time>2020-06-23T14:40:59Z</time>
      </trkpt>
      <trkpt lat="50.93777" lon="2.73127">
        <ele>3.6</ele>
        <time>2020-06-23T14:41:00Z</time>
      </trkpt>
      <trkpt lat="50.9377" lon="2.73133">
        <ele>3.6</ele>
        <time>2020-06-23T14:41:01Z</time>
      </trkpt>
      <trkpt lat="50.93765" lon="2.73138">
        <ele>3.6</ele>
        <time>2020-06-23T14:41:02Z</time>
      </trkpt>
      <trkpt lat="50.93759" lon="2.73143">
        <ele>3.6</ele>
        <time>2020-06-23T14:41:03Z</time>
      </trkpt>
      <trkpt lat="50.93753" lon="2.73147">
        <ele>3.6</ele>
        <time>2020-06-23T14:41:04Z</time>
      </trkpt>
      <trkpt lat="50.93747" lon="2.73152">
        <ele>3.6</ele>
        <time>2020-06-23T14:41:05Z</time>
      </trkpt>
      <trkpt lat="50.93741" lon="2.73157">
        <ele>3.6</ele>
        <time>2020-06-23T14:41:06Z</time>
      </trkpt>
      <trkpt lat="50.93735" lon="2.73162">
        <ele>3.6</ele>
        <time>2020-06-23T14:41:07Z</time>
      </trkpt>
      <trkpt lat="50.9373" lon="2.73167">
        <ele>3.6</ele>
        <time>2020-06-23T14:41:08Z</time>
      </trkpt>
      <trkpt lat="50.93724" lon="2.73172">
        <ele>3.6</ele>
        <time>2020-06-23T14:41:09Z</time>
      </trkpt>
      <trkpt lat="50.93718" lon="2.73177">
        <ele>3.6</ele>
        <time>2020-06-23T14:41:10Z</time>
      </trkpt>
      <trkpt lat="50.93713" lon="2.73181">
        <ele>3.6</ele>
        <time>2020-06-23T14:41:11Z</time>
      </trkpt>
      <trkpt lat="50.93708" lon="2.73186">
        <ele>3.6</ele>
        <time>2020-06-23T14:41:12Z</time>
      </trkpt>
      <trkpt lat="50.93702" lon="2.73192">
        <ele>3.5</ele>
        <time>2020-06-23T14:41:13Z</time>
      </trkpt>
      <trkpt lat="50.93697" lon="2.73198">
        <ele>3.5</ele>
        <time>2020-06-23T14:41:14Z</time>
      </trkpt>
      <trkpt lat="50.93691" lon="2.73202">
        <ele>3.5</ele>
        <time>2020-06-23T14:41:15Z</time>
      </trkpt>
      <trkpt lat="50.93684" lon="2.73208">
        <ele>3.4</ele>
        <time>2020-06-23T14:41:16Z</time>
      </trkpt>
      <trkpt lat="50.93679" lon="2.73213">
        <ele>3.4</ele>
        <time>2020-06-23T14:41:17Z</time>
      </trkpt>
      <trkpt lat="50.93674" lon="2.73218">
        <ele>3.4</ele>
        <time>2020-06-23T14:41:18Z</time>
      </trkpt>
      <trkpt lat="50.93669" lon="2.73222">
        <ele>3.4</ele>
        <time>2020-06-23T14:41:19Z</time>
      </trkpt>
      <trkpt lat="50.93663" lon="2.73228">
        <ele>3.4</ele>
        <time>2020-06-23T14:41:20Z</time>
      </trkpt>
      <trkpt lat="50.93658" lon="2.73232">
        <ele>3.4</ele>
        <time>2020-06-23T14:41:21Z</time>
      </trkpt>
      <trkpt lat="50.93653" lon="2.73238">
        <ele>3.5</ele>
        <time>2020-06-23T14:41:22Z</time>
      </trkpt>
      <trkpt lat="50.93647" lon="2.73244">
        <ele>3.5</ele>
        <time>2020-06-23T14:41:23Z</time>
      </trkpt>
      <trkpt lat="50.93641" lon="2.73249">
        <ele>3.5</ele>
        <time>2020-06-23T14:41:24Z</time>
      </trkpt>
      <trkpt lat="50.93636" lon="2.73255">
        <ele>3.5</ele>
        <time>2020-06-23T14:41:25Z</time>
      </trkpt>
      <trkpt lat="50.93631" lon="2.7326">
        <ele>3.5</ele>
        <time>2020-06-23T14:41:26Z</time>
      </trkpt>
      <trkpt lat="50.93626" lon="2.73265">
        <ele>3.4</ele>
        <time>2020-06-23T14:41:27Z</time>
      </trkpt>
      <trkpt lat="50.93622" lon="2.7327">
        <ele>3.4</ele>
        <time>2020-06-23T14:41:28Z</time>
      </trkpt>
      <trkpt lat="50.93617" lon="2.73275">
        <ele>3.4</ele>
        <time>2020-06-23T14:41:29Z</time>
      </trkpt>
      <trkpt lat="50.93614" lon="2.73277">
        <ele>3.4</ele>
        <time>2020-06-23T14:41:30Z</time>
      </trkpt>
      <trkpt lat="50.93608" lon="2.73284">
        <ele>3.3</ele>
        <time>2020-06-23T14:41:31Z</time>
      </trkpt>
      <trkpt lat="50.93603" lon="2.73289">
        <ele>3.3</ele>
        <time>2020-06-23T14:41:32Z</time>
      </trkpt>
      <trkpt lat="50.93599" lon="2.73293">
        <ele>3.2</ele>
        <time>2020-06-23T14:41:33Z</time>
      </trkpt>
      <trkpt lat="50.93595" lon="2.73298">
        <ele>3.2</ele>
        <time>2020-06-23T14:41:34Z</time>
      </trkpt>
      <trkpt lat="50.93592" lon="2.73301">
        <ele>3.2</ele>
        <time>2020-06-23T14:41:35Z</time>
      </trkpt>
      <trkpt lat="50.93589" lon="2.73305">
        <ele>3.2</ele>
        <time>2020-06-23T14:41:36Z</time>
      </trkpt>
      <trkpt lat="50.93586" lon="2.73309">
        <ele>3.2</ele>
        <time>2020-06-23T14:41:37Z</time>
      </trkpt>
      <trkpt lat="50.9358" lon="2.73309">
        <ele>3.2</ele>
        <time>2020-06-23T14:41:38Z</time>
      </trkpt>
      <trkpt lat="50.93575" lon="2.73307">
        <ele>3.2</ele>
        <time>2020-06-23T14:41:39Z</time>
      </trkpt>
      <trkpt lat="50.9357" lon="2.73307">
        <ele>3.2</ele>
        <time>2020-06-23T14:41:40Z</time>
      </trkpt>
      <trkpt lat="50.93566" lon="2.73309">
        <ele>3.2</ele>
        <time>2020-06-23T14:41:41Z</time>
      </trkpt>
      <trkpt lat="50.93561" lon="2.73314">
        <ele>3.2</ele>
        <time>2020-06-23T14:41:42Z</time>
      </trkpt>
      <trkpt lat="50.93556" lon="2.73319">
        <ele>3.3</ele>
        <time>2020-06-23T14:41:43Z</time>
      </trkpt>
      <trkpt lat="50.93553" lon="2.73322">
        <ele>3.3</ele>
        <time>2020-06-23T14:41:44Z</time>
      </trkpt>
      <trkpt lat="50.93548" lon="2.73328">
        <ele>3.3</ele>
        <time>2020-06-23T14:41:45Z</time>
      </trkpt>
      <trkpt lat="50.93544" lon="2.73334">
        <ele>3.3</ele>
        <time>2020-06-23T14:41:46Z</time>
      </trkpt>
      <trkpt lat="50.93539" lon="2.73339">
        <ele>3.3</ele>
        <time>2020-06-23T14:41:47Z</time>
      </trkpt>
      <trkpt lat="50.93534" lon="2.73344">
        <ele>3.3</ele>
        <time>2020-06-23T14:41:48Z</time>
      </trkpt>
      <trkpt lat="50.9353" lon="2.73349">
        <ele>3.2</ele>
        <time>2020-06-23T14:41:49Z</time>
      </trkpt>
      <trkpt lat="50.93524" lon="2.73355">
        <ele>3.2</ele>
        <time>2020-06-23T14:41:50Z</time>
      </trkpt>
      <trkpt lat="50.93519" lon="2.73361">
        <ele>3.2</ele>
        <time>2020-06-23T14:41:51Z</time>
      </trkpt>
      <trkpt lat="50.93513" lon="2.73367">
        <ele>3.2</ele>
        <time>2020-06-23T14:41:52Z</time>
      </trkpt>
      <trkpt lat="50.93508" lon="2.73372">
        <ele>3.2</ele>
        <time>2020-06-23T14:41:53Z</time>
      </trkpt>
      <trkpt lat="50.93504" lon="2.73376">
        <ele>3.2</ele>
        <time>2020-06-23T14:41:54Z</time>
      </trkpt>
      <trkpt lat="50.935" lon="2.7338">
        <ele>3.2</ele>
        <time>2020-06-23T14:41:55Z</time>
      </trkpt>
      <trkpt lat="50.93495" lon="2.73386">
        <ele>3.2</ele>
        <time>2020-06-23T14:41:56Z</time>
      </trkpt>
      <trkpt lat="50.93491" lon="2.73393">
        <ele>3.2</ele>
        <time>2020-06-23T14:41:57Z</time>
      </trkpt>
      <trkpt lat="50.93487" lon="2.73398">
        <ele>3.2</ele>
        <time>2020-06-23T14:41:58Z</time>
      </trkpt>
      <trkpt lat="50.93482" lon="2.73404">
        <ele>3.2</ele>
        <time>2020-06-23T14:41:59Z</time>
      </trkpt>
      <trkpt lat="50.93479" lon="2.73409">
        <ele>3.2</ele>
        <time>2020-06-23T14:42:00Z</time>
      </trkpt>
      <trkpt lat="50.93474" lon="2.73414">
        <ele>3.2</ele>
        <time>2020-06-23T14:42:01Z</time>
      </trkpt>
      <trkpt lat="50.9347" lon="2.73421">
        <ele>3.2</ele>
        <time>2020-06-23T14:42:02Z</time>
      </trkpt>
      <trkpt lat="50.93466" lon="2.73427">
        <ele>3.2</ele>
        <time>2020-06-23T14:42:03Z</time>
      </trkpt>
      <trkpt lat="50.93461" lon="2.73432">
        <ele>3.2</ele>
        <time>2020-06-23T14:42:04Z</time>
      </trkpt>
      <trkpt lat="50.93457" lon="2.73436">
        <ele>3.2</ele>
        <time>2020-06-23T14:42:05Z</time>
      </trkpt>
      <trkpt lat="50.93452" lon="2.73442">
        <ele>3.2</ele>
        <time>2020-06-23T14:42:06Z</time>
      </trkpt>
      <trkpt lat="50.93447" lon="2.73446">
        <ele>3.2</ele>
        <time>2020-06-23T14:42:07Z</time>
      </trkpt>
      <trkpt lat="50.93443" lon="2.7345">
        <ele>3.2</ele>
        <time>2020-06-23T14:42:08Z</time>
      </trkpt>
      <trkpt lat="50.93438" lon="2.73455">
        <ele>3.2</ele>
        <time>2020-06-23T14:42:09Z</time>
      </trkpt>
      <trkpt lat="50.93433" lon="2.7346">
        <ele>3.2</ele>
        <time>2020-06-23T14:42:10Z</time>
      </trkpt>
      <trkpt lat="50.93427" lon="2.73465">
        <ele>3.2</ele>
        <time>2020-06-23T14:42:11Z</time>
      </trkpt>
      <trkpt lat="50.93423" lon="2.7347">
        <ele>3.2</ele>
        <time>2020-06-23T14:42:12Z</time>
      </trkpt>
      <trkpt lat="50.93419" lon="2.73476">
        <ele>3.2</ele>
        <time>2020-06-23T14:42:13Z</time>
      </trkpt>
      <trkpt lat="50.93413" lon="2.73482">
        <ele>3.2</ele>
        <time>2020-06-23T14:42:14Z</time>
      </trkpt>
      <trkpt lat="50.93408" lon="2.73487">
        <ele>3.3</ele>
        <time>2020-06-23T14:42:15Z</time>
      </trkpt>
      <trkpt lat="50.93402" lon="2.73491">
        <ele>3.3</ele>
        <time>2020-06-23T14:42:16Z</time>
      </trkpt>
      <trkpt lat="50.93397" lon="2.73495">
        <ele>3.3</ele>
        <time>2020-06-23T14:42:17Z</time>
      </trkpt>
      <trkpt lat="50.93392" lon="2.73498">
        <ele>3.3</ele>
        <time>2020-06-23T14:42:18Z</time>
      </trkpt>
      <trkpt lat="50.93386" lon="2.73505">
        <ele>3.3</ele>
        <time>2020-06-23T14:42:19Z</time>
      </trkpt>
      <trkpt lat="50.93382" lon="2.73507">
        <ele>3.3</ele>
        <time>2020-06-23T14:42:20Z</time>
      </trkpt>
      <trkpt lat="50.93376" lon="2.73512">
        <ele>3.3</ele>
        <time>2020-06-23T14:42:21Z</time>
      </trkpt>
      <trkpt lat="50.93371" lon="2.73517">
        <ele>3.3</ele>
        <time>2020-06-23T14:42:22Z</time>
      </trkpt>
      <trkpt lat="50.93367" lon="2.73522">
        <ele>3.3</ele>
        <time>2020-06-23T14:42:23Z</time>
      </trkpt>
      <trkpt lat="50.93361" lon="2.73527">
        <ele>3.4</ele>
        <time>2020-06-23T14:42:24Z</time>
      </trkpt>
      <trkpt lat="50.93355" lon="2.73533">
        <ele>3.4</ele>
        <time>2020-06-23T14:42:25Z</time>
      </trkpt>
      <trkpt lat="50.9335" lon="2.73538">
        <ele>3.5</ele>
        <time>2020-06-23T14:42:26Z</time>
      </trkpt>
      <trkpt lat="50.93345" lon="2.73544">
        <ele>3.5</ele>
        <time>2020-06-23T14:42:27Z</time>
      </trkpt>
      <trkpt lat="50.93339" lon="2.7355">
        <ele>3.5</ele>
        <time>2020-06-23T14:42:28Z</time>
      </trkpt>
      <trkpt lat="50.93335" lon="2.73556">
        <ele>3.5</ele>
        <time>2020-06-23T14:42:29Z</time>
      </trkpt>
      <trkpt lat="50.93329" lon="2.7356">
        <ele>3.6</ele>
        <time>2020-06-23T14:42:30Z</time>
      </trkpt>
      <trkpt lat="50.93324" lon="2.73564">
        <ele>3.6</ele>
        <time>2020-06-23T14:42:31Z</time>
      </trkpt>
      <trkpt lat="50.93318" lon="2.73568">
        <ele>3.7</ele>
        <time>2020-06-23T14:42:32Z</time>
      </trkpt>
      <trkpt lat="50.93312" lon="2.73571">
        <ele>3.8</ele>
        <time>2020-06-23T14:42:33Z</time>
      </trkpt>
      <trkpt lat="50.93306" lon="2.73574">
        <ele>3.9</ele>
        <time>2020-06-23T14:42:34Z</time>
      </trkpt>
      <trkpt lat="50.93299" lon="2.73576">
        <ele>4</ele>
        <time>2020-06-23T14:42:35Z</time>
      </trkpt>
      <trkpt lat="50.93295" lon="2.7358">
        <ele>4</ele>
        <time>2020-06-23T14:42:36Z</time>
      </trkpt>
      <trkpt lat="50.93289" lon="2.73582">
        <ele>4.1</ele>
        <time>2020-06-23T14:42:37Z</time>
      </trkpt>
      <trkpt lat="50.93283" lon="2.73585">
        <ele>4.2</ele>
        <time>2020-06-23T14:42:38Z</time>
      </trkpt>
      <trkpt lat="50.93278" lon="2.73588">
        <ele>4.3</ele>
        <time>2020-06-23T14:42:39Z</time>
      </trkpt>
      <trkpt lat="50.93272" lon="2.73591">
        <ele>4.3</ele>
        <time>2020-06-23T14:42:40Z</time>
      </trkpt>
      <trkpt lat="50.93266" lon="2.73594">
        <ele>4.3</ele>
        <time>2020-06-23T14:42:41Z</time>
      </trkpt>
      <trkpt lat="50.9326" lon="2.73597">
        <ele>4.3</ele>
        <time>2020-06-23T14:42:42Z</time>
      </trkpt>
      <trkpt lat="50.93255" lon="2.73599">
        <ele>4.2</ele>
        <time>2020-06-23T14:42:43Z</time>
      </trkpt>
      <trkpt lat="50.93249" lon="2.73602">
        <ele>4.2</ele>
        <time>2020-06-23T14:42:44Z</time>
      </trkpt>
      <trkpt lat="50.93244" lon="2.73605">
        <ele>4.3</ele>
        <time>2020-06-23T14:42:45Z</time>
      </trkpt>
      <trkpt lat="50.9324" lon="2.73609">
        <ele>4.4</ele>
        <time>2020-06-23T14:42:46Z</time>
      </trkpt>
      <trkpt lat="50.93235" lon="2.73614">
        <ele>4.4</ele>
        <time>2020-06-23T14:42:47Z</time>
      </trkpt>
      <trkpt lat="50.9323" lon="2.73617">
        <ele>4.5</ele>
        <time>2020-06-23T14:42:48Z</time>
      </trkpt>
      <trkpt lat="50.93223" lon="2.73621">
        <ele>4.6</ele>
        <time>2020-06-23T14:42:49Z</time>
      </trkpt>
      <trkpt lat="50.93216" lon="2.73626">
        <ele>4.7</ele>
        <time>2020-06-23T14:42:50Z</time>
      </trkpt>
      <trkpt lat="50.93211" lon="2.73631">
        <ele>4.8</ele>
        <time>2020-06-23T14:42:51Z</time>
      </trkpt>
      <trkpt lat="50.93207" lon="2.73635">
        <ele>4.9</ele>
        <time>2020-06-23T14:42:52Z</time>
      </trkpt>
      <trkpt lat="50.93202" lon="2.73638">
        <ele>5.1</ele>
        <time>2020-06-23T14:42:53Z</time>
      </trkpt>
      <trkpt lat="50.93198" lon="2.73643">
        <ele>5.3</ele>
        <time>2020-06-23T14:42:54Z</time>
      </trkpt>
      <trkpt lat="50.93195" lon="2.73647">
        <ele>5.4</ele>
        <time>2020-06-23T14:42:55Z</time>
      </trkpt>
      <trkpt lat="50.93189" lon="2.73651">
        <ele>5.7</ele>
        <time>2020-06-23T14:42:56Z</time>
      </trkpt>
      <trkpt lat="50.93184" lon="2.73656">
        <ele>5.9</ele>
        <time>2020-06-23T14:42:57Z</time>
      </trkpt>
      <trkpt lat="50.93181" lon="2.7366">
        <ele>6.1</ele>
        <time>2020-06-23T14:42:58Z</time>
      </trkpt>
      <trkpt lat="50.93177" lon="2.73664">
        <ele>6.3</ele>
        <time>2020-06-23T14:42:59Z</time>
      </trkpt>
      <trkpt lat="50.93172" lon="2.73671">
        <ele>6.4</ele>
        <time>2020-06-23T14:43:00Z</time>
      </trkpt>
      <trkpt lat="50.93168" lon="2.73676">
        <ele>6.5</ele>
        <time>2020-06-23T14:43:01Z</time>
      </trkpt>
      <trkpt lat="50.93163" lon="2.73682">
        <ele>6.4</ele>
        <time>2020-06-23T14:43:02Z</time>
      </trkpt>
      <trkpt lat="50.93158" lon="2.73688">
        <ele>6.3</ele>
        <time>2020-06-23T14:43:03Z</time>
      </trkpt>
      <trkpt lat="50.93153" lon="2.73693">
        <ele>6.2</ele>
        <time>2020-06-23T14:43:04Z</time>
      </trkpt>
      <trkpt lat="50.93149" lon="2.737">
        <ele>6</ele>
        <time>2020-06-23T14:43:05Z</time>
      </trkpt>
      <trkpt lat="50.93144" lon="2.73706">
        <ele>5.9</ele>
        <time>2020-06-23T14:43:06Z</time>
      </trkpt>
      <trkpt lat="50.93139" lon="2.73712">
        <ele>5.8</ele>
        <time>2020-06-23T14:43:07Z</time>
      </trkpt>
      <trkpt lat="50.93135" lon="2.73719">
        <ele>5.7</ele>
        <time>2020-06-23T14:43:08Z</time>
      </trkpt>
      <trkpt lat="50.93131" lon="2.73726">
        <ele>5.7</ele>
        <time>2020-06-23T14:43:09Z</time>
      </trkpt>
      <trkpt lat="50.93127" lon="2.73732">
        <ele>5.7</ele>
        <time>2020-06-23T14:43:10Z</time>
      </trkpt>
      <trkpt lat="50.93123" lon="2.7374">
        <ele>5.7</ele>
        <time>2020-06-23T14:43:11Z</time>
      </trkpt>
      <trkpt lat="50.93119" lon="2.73747">
        <ele>5.8</ele>
        <time>2020-06-23T14:43:12Z</time>
      </trkpt>
      <trkpt lat="50.93115" lon="2.73753">
        <ele>5.8</ele>
        <time>2020-06-23T14:43:13Z</time>
      </trkpt>
      <trkpt lat="50.93112" lon="2.7376">
        <ele>5.8</ele>
        <time>2020-06-23T14:43:14Z</time>
      </trkpt>
      <trkpt lat="50.93108" lon="2.73766">
        <ele>5.9</ele>
        <time>2020-06-23T14:43:15Z</time>
      </trkpt>
      <trkpt lat="50.93104" lon="2.73773">
        <ele>5.8</ele>
        <time>2020-06-23T14:43:16Z</time>
      </trkpt>
      <trkpt lat="50.931" lon="2.73779">
        <ele>5.8</ele>
        <time>2020-06-23T14:43:17Z</time>
      </trkpt>
      <trkpt lat="50.93096" lon="2.73783">
        <ele>5.8</ele>
        <time>2020-06-23T14:43:18Z</time>
      </trkpt>
      <trkpt lat="50.93091" lon="2.73788">
        <ele>5.9</ele>
        <time>2020-06-23T14:43:19Z</time>
      </trkpt>
      <trkpt lat="50.93086" lon="2.73794">
        <ele>5.9</ele>
        <time>2020-06-23T14:43:20Z</time>
      </trkpt>
      <trkpt lat="50.93083" lon="2.73798">
        <ele>5.9</ele>
        <time>2020-06-23T14:43:21Z</time>
      </trkpt>
      <trkpt lat="50.93079" lon="2.73807">
        <ele>5.9</ele>
        <time>2020-06-23T14:43:22Z</time>
      </trkpt>
      <trkpt lat="50.93075" lon="2.73813">
        <ele>5.9</ele>
        <time>2020-06-23T14:43:23Z</time>
      </trkpt>
      <trkpt lat="50.93071" lon="2.7382">
        <ele>6</ele>
        <time>2020-06-23T14:43:24Z</time>
      </trkpt>
      <trkpt lat="50.93068" lon="2.73826">
        <ele>6</ele>
        <time>2020-06-23T14:43:25Z</time>
      </trkpt>
      <trkpt lat="50.93061" lon="2.73831">
        <ele>6</ele>
        <time>2020-06-23T14:43:26Z</time>
      </trkpt>
      <trkpt lat="50.93057" lon="2.73836">
        <ele>6</ele>
        <time>2020-06-23T14:43:27Z</time>
      </trkpt>
      <trkpt lat="50.93053" lon="2.73843">
        <ele>5.9</ele>
        <time>2020-06-23T14:43:28Z</time>
      </trkpt>
      <trkpt lat="50.9305" lon="2.7385">
        <ele>5.9</ele>
        <time>2020-06-23T14:43:29Z</time>
      </trkpt>
      <trkpt lat="50.93046" lon="2.73857">
        <ele>5.9</ele>
        <time>2020-06-23T14:43:30Z</time>
      </trkpt>
      <trkpt lat="50.93043" lon="2.73864">
        <ele>5.8</ele>
        <time>2020-06-23T14:43:31Z</time>
      </trkpt>
      <trkpt lat="50.93039" lon="2.7387">
        <ele>5.8</ele>
        <time>2020-06-23T14:43:32Z</time>
      </trkpt>
      <trkpt lat="50.93035" lon="2.73876">
        <ele>5.7</ele>
        <time>2020-06-23T14:43:33Z</time>
      </trkpt>
      <trkpt lat="50.93032" lon="2.73882">
        <ele>5.7</ele>
        <time>2020-06-23T14:43:34Z</time>
      </trkpt>
      <trkpt lat="50.9303" lon="2.73889">
        <ele>5.6</ele>
        <time>2020-06-23T14:43:35Z</time>
      </trkpt>
      <trkpt lat="50.93027" lon="2.73896">
        <ele>5.6</ele>
        <time>2020-06-23T14:43:36Z</time>
      </trkpt>
      <trkpt lat="50.93025" lon="2.73902">
        <ele>5.6</ele>
        <time>2020-06-23T14:43:37Z</time>
      </trkpt>
      <trkpt lat="50.93021" lon="2.73909">
        <ele>5.5</ele>
        <time>2020-06-23T14:43:38Z</time>
      </trkpt>
      <trkpt lat="50.93018" lon="2.73915">
        <ele>5.5</ele>
        <time>2020-06-23T14:43:39Z</time>
      </trkpt>
      <trkpt lat="50.93014" lon="2.73922">
        <ele>5.5</ele>
        <time>2020-06-23T14:43:40Z</time>
      </trkpt>
      <trkpt lat="50.9301" lon="2.73929">
        <ele>5.5</ele>
        <time>2020-06-23T14:43:41Z</time>
      </trkpt>
      <trkpt lat="50.93006" lon="2.73936">
        <ele>5.5</ele>
        <time>2020-06-23T14:43:42Z</time>
      </trkpt>
      <trkpt lat="50.93002" lon="2.73944">
        <ele>5.5</ele>
        <time>2020-06-23T14:43:43Z</time>
      </trkpt>
      <trkpt lat="50.92997" lon="2.7395">
        <ele>5.5</ele>
        <time>2020-06-23T14:43:44Z</time>
      </trkpt>
      <trkpt lat="50.92993" lon="2.73956">
        <ele>5.5</ele>
        <time>2020-06-23T14:43:45Z</time>
      </trkpt>
      <trkpt lat="50.92988" lon="2.73963">
        <ele>5.5</ele>
        <time>2020-06-23T14:43:46Z</time>
      </trkpt>
      <trkpt lat="50.92984" lon="2.73971">
        <ele>5.5</ele>
        <time>2020-06-23T14:43:47Z</time>
      </trkpt>
      <trkpt lat="50.92979" lon="2.73979">
        <ele>5.5</ele>
        <time>2020-06-23T14:43:48Z</time>
      </trkpt>
      <trkpt lat="50.92974" lon="2.73988">
        <ele>5.5</ele>
        <time>2020-06-23T14:43:49Z</time>
      </trkpt>
      <trkpt lat="50.92969" lon="2.73996">
        <ele>5.5</ele>
        <time>2020-06-23T14:43:50Z</time>
      </trkpt>
      <trkpt lat="50.92965" lon="2.74004">
        <ele>5.5</ele>
        <time>2020-06-23T14:43:51Z</time>
      </trkpt>
      <trkpt lat="50.92961" lon="2.74011">
        <ele>5.5</ele>
        <time>2020-06-23T14:43:52Z</time>
      </trkpt>
      <trkpt lat="50.92957" lon="2.74018">
        <ele>5.5</ele>
        <time>2020-06-23T14:43:53Z</time>
      </trkpt>
      <trkpt lat="50.92953" lon="2.74025">
        <ele>5.5</ele>
        <time>2020-06-23T14:43:54Z</time>
      </trkpt>
      <trkpt lat="50.92949" lon="2.74033">
        <ele>5.5</ele>
        <time>2020-06-23T14:43:55Z</time>
      </trkpt>
      <trkpt lat="50.92944" lon="2.74041">
        <ele>5.5</ele>
        <time>2020-06-23T14:43:56Z</time>
      </trkpt>
      <trkpt lat="50.9294" lon="2.74049">
        <ele>5.5</ele>
        <time>2020-06-23T14:43:57Z</time>
      </trkpt>
      <trkpt lat="50.92936" lon="2.74057">
        <ele>5.5</ele>
        <time>2020-06-23T14:43:58Z</time>
      </trkpt>
      <trkpt lat="50.92931" lon="2.74063">
        <ele>5.5</ele>
        <time>2020-06-23T14:43:59Z</time>
      </trkpt>
      <trkpt lat="50.92926" lon="2.7407">
        <ele>5.6</ele>
        <time>2020-06-23T14:44:00Z</time>
      </trkpt>
      <trkpt lat="50.92922" lon="2.74077">
        <ele>5.6</ele>
        <time>2020-06-23T14:44:01Z</time>
      </trkpt>
      <trkpt lat="50.92918" lon="2.74083">
        <ele>5.5</ele>
        <time>2020-06-23T14:44:02Z</time>
      </trkpt>
      <trkpt lat="50.92914" lon="2.7409">
        <ele>5.5</ele>
        <time>2020-06-23T14:44:03Z</time>
      </trkpt>
      <trkpt lat="50.92911" lon="2.74097">
        <ele>5.5</ele>
        <time>2020-06-23T14:44:04Z</time>
      </trkpt>
      <trkpt lat="50.92907" lon="2.74105">
        <ele>5.4</ele>
        <time>2020-06-23T14:44:05Z</time>
      </trkpt>
      <trkpt lat="50.92904" lon="2.74113">
        <ele>5.4</ele>
        <time>2020-06-23T14:44:06Z</time>
      </trkpt>
      <trkpt lat="50.92899" lon="2.7412">
        <ele>5.4</ele>
        <time>2020-06-23T14:44:07Z</time>
      </trkpt>
      <trkpt lat="50.92895" lon="2.74127">
        <ele>5.4</ele>
        <time>2020-06-23T14:44:08Z</time>
      </trkpt>
      <trkpt lat="50.92891" lon="2.74135">
        <ele>5.4</ele>
        <time>2020-06-23T14:44:09Z</time>
      </trkpt>
      <trkpt lat="50.92887" lon="2.74143">
        <ele>5.5</ele>
        <time>2020-06-23T14:44:10Z</time>
      </trkpt>
      <trkpt lat="50.92883" lon="2.74151">
        <ele>5.5</ele>
        <time>2020-06-23T14:44:11Z</time>
      </trkpt>
      <trkpt lat="50.92879" lon="2.74156">
        <ele>5.5</ele>
        <time>2020-06-23T14:44:12Z</time>
      </trkpt>
      <trkpt lat="50.92876" lon="2.74161">
        <ele>5.5</ele>
        <time>2020-06-23T14:44:13Z</time>
      </trkpt>
      <trkpt lat="50.92872" lon="2.74167">
        <ele>5.5</ele>
        <time>2020-06-23T14:44:14Z</time>
      </trkpt>
      <trkpt lat="50.92868" lon="2.74175">
        <ele>5.6</ele>
        <time>2020-06-23T14:44:15Z</time>
      </trkpt>
      <trkpt lat="50.92864" lon="2.74182">
        <ele>5.6</ele>
        <time>2020-06-23T14:44:16Z</time>
      </trkpt>
      <trkpt lat="50.9286" lon="2.74188">
        <ele>5.7</ele>
        <time>2020-06-23T14:44:17Z</time>
      </trkpt>
      <trkpt lat="50.92856" lon="2.74196">
        <ele>5.8</ele>
        <time>2020-06-23T14:44:18Z</time>
      </trkpt>
      <trkpt lat="50.92852" lon="2.74203">
        <ele>6</ele>
        <time>2020-06-23T14:44:19Z</time>
      </trkpt>
      <trkpt lat="50.92848" lon="2.7421">
        <ele>5.9</ele>
        <time>2020-06-23T14:44:20Z</time>
      </trkpt>
      <trkpt lat="50.92843" lon="2.74218">
        <ele>5.9</ele>
        <time>2020-06-23T14:44:21Z</time>
      </trkpt>
      <trkpt lat="50.9284" lon="2.74225">
        <ele>5.8</ele>
        <time>2020-06-23T14:44:22Z</time>
      </trkpt>
      <trkpt lat="50.92836" lon="2.74233">
        <ele>5.9</ele>
        <time>2020-06-23T14:44:23Z</time>
      </trkpt>
      <trkpt lat="50.92832" lon="2.7424">
        <ele>5.9</ele>
        <time>2020-06-23T14:44:24Z</time>
      </trkpt>
      <trkpt lat="50.92828" lon="2.74247">
        <ele>5.9</ele>
        <time>2020-06-23T14:44:25Z</time>
      </trkpt>
      <trkpt lat="50.92824" lon="2.74254">
        <ele>5.9</ele>
        <time>2020-06-23T14:44:26Z</time>
      </trkpt>
      <trkpt lat="50.9282" lon="2.74261">
        <ele>5.9</ele>
        <time>2020-06-23T14:44:27Z</time>
      </trkpt>
      <trkpt lat="50.92817" lon="2.74268">
        <ele>5.9</ele>
        <time>2020-06-23T14:44:28Z</time>
      </trkpt>
      <trkpt lat="50.92813" lon="2.74274">
        <ele>5.9</ele>
        <time>2020-06-23T14:44:29Z</time>
      </trkpt>
      <trkpt lat="50.92808" lon="2.7428">
        <ele>5.9</ele>
        <time>2020-06-23T14:44:30Z</time>
      </trkpt>
      <trkpt lat="50.92803" lon="2.74286">
        <ele>5.9</ele>
        <time>2020-06-23T14:44:31Z</time>
      </trkpt>
      <trkpt lat="50.928" lon="2.74293">
        <ele>5.9</ele>
        <time>2020-06-23T14:44:32Z</time>
      </trkpt>
      <trkpt lat="50.92796" lon="2.743">
        <ele>5.9</ele>
        <time>2020-06-23T14:44:33Z</time>
      </trkpt>
      <trkpt lat="50.92791" lon="2.74307">
        <ele>5.9</ele>
        <time>2020-06-23T14:44:34Z</time>
      </trkpt>
      <trkpt lat="50.92786" lon="2.74315">
        <ele>5.9</ele>
        <time>2020-06-23T14:44:35Z</time>
      </trkpt>
      <trkpt lat="50.92783" lon="2.74323">
        <ele>5.9</ele>
        <time>2020-06-23T14:44:36Z</time>
      </trkpt>
      <trkpt lat="50.92777" lon="2.74332">
        <ele>6</ele>
        <time>2020-06-23T14:44:37Z</time>
      </trkpt>
      <trkpt lat="50.92773" lon="2.74339">
        <ele>6</ele>
        <time>2020-06-23T14:44:38Z</time>
      </trkpt>
      <trkpt lat="50.9277" lon="2.74345">
        <ele>6</ele>
        <time>2020-06-23T14:44:39Z</time>
      </trkpt>
      <trkpt lat="50.92766" lon="2.74352">
        <ele>6.1</ele>
        <time>2020-06-23T14:44:40Z</time>
      </trkpt>
      <trkpt lat="50.92763" lon="2.7436">
        <ele>6.1</ele>
        <time>2020-06-23T14:44:41Z</time>
      </trkpt>
      <trkpt lat="50.9276" lon="2.74366">
        <ele>6.1</ele>
        <time>2020-06-23T14:44:42Z</time>
      </trkpt>
      <trkpt lat="50.92756" lon="2.74372">
        <ele>6.1</ele>
        <time>2020-06-23T14:44:43Z</time>
      </trkpt>
      <trkpt lat="50.92751" lon="2.7438">
        <ele>6.2</ele>
        <time>2020-06-23T14:44:44Z</time>
      </trkpt>
      <trkpt lat="50.92747" lon="2.74387">
        <ele>6.2</ele>
        <time>2020-06-23T14:44:45Z</time>
      </trkpt>
      <trkpt lat="50.92743" lon="2.74394">
        <ele>6.2</ele>
        <time>2020-06-23T14:44:46Z</time>
      </trkpt>
      <trkpt lat="50.92739" lon="2.744">
        <ele>6.1</ele>
        <time>2020-06-23T14:44:47Z</time>
      </trkpt>
      <trkpt lat="50.92735" lon="2.74407">
        <ele>6.1</ele>
        <time>2020-06-23T14:44:48Z</time>
      </trkpt>
      <trkpt lat="50.9273" lon="2.74416">
        <ele>6.1</ele>
        <time>2020-06-23T14:44:49Z</time>
      </trkpt>
      <trkpt lat="50.92726" lon="2.74423">
        <ele>6</ele>
        <time>2020-06-23T14:44:50Z</time>
      </trkpt>
      <trkpt lat="50.92722" lon="2.74432">
        <ele>6</ele>
        <time>2020-06-23T14:44:51Z</time>
      </trkpt>
      <trkpt lat="50.92717" lon="2.74439">
        <ele>6</ele>
        <time>2020-06-23T14:44:52Z</time>
      </trkpt>
      <trkpt lat="50.92712" lon="2.74448">
        <ele>5.9</ele>
        <time>2020-06-23T14:44:53Z</time>
      </trkpt>
      <trkpt lat="50.92707" lon="2.74455">
        <ele>5.9</ele>
        <time>2020-06-23T14:44:54Z</time>
      </trkpt>
      <trkpt lat="50.92704" lon="2.74461">
        <ele>6</ele>
        <time>2020-06-23T14:44:55Z</time>
      </trkpt>
      <trkpt lat="50.927" lon="2.74469">
        <ele>6</ele>
        <time>2020-06-23T14:44:56Z</time>
      </trkpt>
      <trkpt lat="50.92695" lon="2.74477">
        <ele>6</ele>
        <time>2020-06-23T14:44:57Z</time>
      </trkpt>
      <trkpt lat="50.9269" lon="2.74483">
        <ele>6</ele>
        <time>2020-06-23T14:44:58Z</time>
      </trkpt>
      <trkpt lat="50.92686" lon="2.7449">
        <ele>6</ele>
        <time>2020-06-23T14:44:59Z</time>
      </trkpt>
      <trkpt lat="50.92681" lon="2.74498">
        <ele>6</ele>
        <time>2020-06-23T14:45:00Z</time>
      </trkpt>
      <trkpt lat="50.92676" lon="2.74506">
        <ele>6.1</ele>
        <time>2020-06-23T14:45:01Z</time>
      </trkpt>
      <trkpt lat="50.92672" lon="2.74515">
        <ele>6.1</ele>
        <time>2020-06-23T14:45:02Z</time>
      </trkpt>
      <trkpt lat="50.92668" lon="2.74523">
        <ele>6.1</ele>
        <time>2020-06-23T14:45:03Z</time>
      </trkpt>
      <trkpt lat="50.92664" lon="2.74529">
        <ele>6.1</ele>
        <time>2020-06-23T14:45:04Z</time>
      </trkpt>
      <trkpt lat="50.9266" lon="2.74537">
        <ele>6.1</ele>
        <time>2020-06-23T14:45:05Z</time>
      </trkpt>
      <trkpt lat="50.92655" lon="2.74545">
        <ele>6.1</ele>
        <time>2020-06-23T14:45:06Z</time>
      </trkpt>
      <trkpt lat="50.92651" lon="2.74553">
        <ele>6.1</ele>
        <time>2020-06-23T14:45:07Z</time>
      </trkpt>
      <trkpt lat="50.92647" lon="2.74559">
        <ele>6.1</ele>
        <time>2020-06-23T14:45:08Z</time>
      </trkpt>
      <trkpt lat="50.92643" lon="2.74563">
        <ele>6.1</ele>
        <time>2020-06-23T14:45:09Z</time>
      </trkpt>
      <trkpt lat="50.92639" lon="2.7457">
        <ele>6.2</ele>
        <time>2020-06-23T14:45:10Z</time>
      </trkpt>
      <trkpt lat="50.92635" lon="2.74576">
        <ele>6.2</ele>
        <time>2020-06-23T14:45:11Z</time>
      </trkpt>
      <trkpt lat="50.9263" lon="2.74583">
        <ele>6.3</ele>
        <time>2020-06-23T14:45:12Z</time>
      </trkpt>
      <trkpt lat="50.92626" lon="2.7459">
        <ele>6.4</ele>
        <time>2020-06-23T14:45:13Z</time>
      </trkpt>
      <trkpt lat="50.92622" lon="2.74597">
        <ele>6.4</ele>
        <time>2020-06-23T14:45:14Z</time>
      </trkpt>
      <trkpt lat="50.92617" lon="2.74603">
        <ele>6.5</ele>
        <time>2020-06-23T14:45:15Z</time>
      </trkpt>
      <trkpt lat="50.92612" lon="2.74608">
        <ele>6.7</ele>
        <time>2020-06-23T14:45:16Z</time>
      </trkpt>
      <trkpt lat="50.92608" lon="2.74614">
        <ele>6.8</ele>
        <time>2020-06-23T14:45:17Z</time>
      </trkpt>
      <trkpt lat="50.92605" lon="2.74618">
        <ele>6.9</ele>
        <time>2020-06-23T14:45:18Z</time>
      </trkpt>
      <trkpt lat="50.92602" lon="2.74621">
        <ele>7</ele>
        <time>2020-06-23T14:45:19Z</time>
      </trkpt>
      <trkpt lat="50.926" lon="2.74625">
        <ele>7.1</ele>
        <time>2020-06-23T14:45:20Z</time>
      </trkpt>
      <trkpt lat="50.92596" lon="2.74628">
        <ele>7.3</ele>
        <time>2020-06-23T14:45:21Z</time>
      </trkpt>
      <trkpt lat="50.92592" lon="2.74628">
        <ele>7.1</ele>
        <time>2020-06-23T14:45:22Z</time>
      </trkpt>
      <trkpt lat="50.92589" lon="2.74624">
        <ele>7</ele>
        <time>2020-06-23T14:45:23Z</time>
      </trkpt>
      <trkpt lat="50.92587" lon="2.74618">
        <ele>6.9</ele>
        <time>2020-06-23T14:45:24Z</time>
      </trkpt>
      <trkpt lat="50.92583" lon="2.7461">
        <ele>6.8</ele>
        <time>2020-06-23T14:45:25Z</time>
      </trkpt>
      <trkpt lat="50.92579" lon="2.74603">
        <ele>6.6</ele>
        <time>2020-06-23T14:45:26Z</time>
      </trkpt>
      <trkpt lat="50.92574" lon="2.74602">
        <ele>6.6</ele>
        <time>2020-06-23T14:45:27Z</time>
      </trkpt>
      <trkpt lat="50.92568" lon="2.74604">
        <ele>6.5</ele>
        <time>2020-06-23T14:45:28Z</time>
      </trkpt>
      <trkpt lat="50.92564" lon="2.74609">
        <ele>6.4</ele>
        <time>2020-06-23T14:45:29Z</time>
      </trkpt>
      <trkpt lat="50.92559" lon="2.74614">
        <ele>6.3</ele>
        <time>2020-06-23T14:45:30Z</time>
      </trkpt>
      <trkpt lat="50.92555" lon="2.74618">
        <ele>6.3</ele>
        <time>2020-06-23T14:45:31Z</time>
      </trkpt>
      <trkpt lat="50.92551" lon="2.74624">
        <ele>6.3</ele>
        <time>2020-06-23T14:45:32Z</time>
      </trkpt>
      <trkpt lat="50.92546" lon="2.74628">
        <ele>6.3</ele>
        <time>2020-06-23T14:45:33Z</time>
      </trkpt>
      <trkpt lat="50.92542" lon="2.74633">
        <ele>6.3</ele>
        <time>2020-06-23T14:45:34Z</time>
      </trkpt>
      <trkpt lat="50.92538" lon="2.74638">
        <ele>6.4</ele>
        <time>2020-06-23T14:45:35Z</time>
      </trkpt>
      <trkpt lat="50.92534" lon="2.74642">
        <ele>6.4</ele>
        <time>2020-06-23T14:45:36Z</time>
      </trkpt>
      <trkpt lat="50.9253" lon="2.74647">
        <ele>6.4</ele>
        <time>2020-06-23T14:45:37Z</time>
      </trkpt>
      <trkpt lat="50.92526" lon="2.74651">
        <ele>6.5</ele>
        <time>2020-06-23T14:45:38Z</time>
      </trkpt>
      <trkpt lat="50.92522" lon="2.74654">
        <ele>6.5</ele>
        <time>2020-06-23T14:45:39Z</time>
      </trkpt>
      <trkpt lat="50.92517" lon="2.74657">
        <ele>6.6</ele>
        <time>2020-06-23T14:45:40Z</time>
      </trkpt>
      <trkpt lat="50.92513" lon="2.74661">
        <ele>6.6</ele>
        <time>2020-06-23T14:45:41Z</time>
      </trkpt>
      <trkpt lat="50.92508" lon="2.74663">
        <ele>6.6</ele>
        <time>2020-06-23T14:45:42Z</time>
      </trkpt>
      <trkpt lat="50.92503" lon="2.74667">
        <ele>6.6</ele>
        <time>2020-06-23T14:45:43Z</time>
      </trkpt>
      <trkpt lat="50.92499" lon="2.74671">
        <ele>6.7</ele>
        <time>2020-06-23T14:45:44Z</time>
      </trkpt>
      <trkpt lat="50.92495" lon="2.74676">
        <ele>6.7</ele>
        <time>2020-06-23T14:45:45Z</time>
      </trkpt>
      <trkpt lat="50.92491" lon="2.7468">
        <ele>6.7</ele>
        <time>2020-06-23T14:45:46Z</time>
      </trkpt>
      <trkpt lat="50.92486" lon="2.74685">
        <ele>6.7</ele>
        <time>2020-06-23T14:45:47Z</time>
      </trkpt>
      <trkpt lat="50.92482" lon="2.74691">
        <ele>6.8</ele>
        <time>2020-06-23T14:45:48Z</time>
      </trkpt>
      <trkpt lat="50.92476" lon="2.74695">
        <ele>6.8</ele>
        <time>2020-06-23T14:45:49Z</time>
      </trkpt>
      <trkpt lat="50.92471" lon="2.74699">
        <ele>6.8</ele>
        <time>2020-06-23T14:45:50Z</time>
      </trkpt>
      <trkpt lat="50.92467" lon="2.74704">
        <ele>6.8</ele>
        <time>2020-06-23T14:45:51Z</time>
      </trkpt>
      <trkpt lat="50.92463" lon="2.74707">
        <ele>6.8</ele>
        <time>2020-06-23T14:45:52Z</time>
      </trkpt>
      <trkpt lat="50.9246" lon="2.7471">
        <ele>6.8</ele>
        <time>2020-06-23T14:45:53Z</time>
      </trkpt>
      <trkpt lat="50.92456" lon="2.74714">
        <ele>6.8</ele>
        <time>2020-06-23T14:45:54Z</time>
      </trkpt>
      <trkpt lat="50.92451" lon="2.74718">
        <ele>6.9</ele>
        <time>2020-06-23T14:45:55Z</time>
      </trkpt>
      <trkpt lat="50.92445" lon="2.74722">
        <ele>6.9</ele>
        <time>2020-06-23T14:45:56Z</time>
      </trkpt>
      <trkpt lat="50.9244" lon="2.74726">
        <ele>6.9</ele>
        <time>2020-06-23T14:45:57Z</time>
      </trkpt>
      <trkpt lat="50.92435" lon="2.74731">
        <ele>7</ele>
        <time>2020-06-23T14:45:58Z</time>
      </trkpt>
      <trkpt lat="50.92429" lon="2.74736">
        <ele>7</ele>
        <time>2020-06-23T14:45:59Z</time>
      </trkpt>
      <trkpt lat="50.92423" lon="2.74742">
        <ele>7</ele>
        <time>2020-06-23T14:46:00Z</time>
      </trkpt>
      <trkpt lat="50.92419" lon="2.74747">
        <ele>7.1</ele>
        <time>2020-06-23T14:46:01Z</time>
      </trkpt>
      <trkpt lat="50.92414" lon="2.7475">
        <ele>7.1</ele>
        <time>2020-06-23T14:46:02Z</time>
      </trkpt>
      <trkpt lat="50.92411" lon="2.74754">
        <ele>7.2</ele>
        <time>2020-06-23T14:46:03Z</time>
      </trkpt>
      <trkpt lat="50.92407" lon="2.74757">
        <ele>7.2</ele>
        <time>2020-06-23T14:46:04Z</time>
      </trkpt>
      <trkpt lat="50.92403" lon="2.74761">
        <ele>7.3</ele>
        <time>2020-06-23T14:46:05Z</time>
      </trkpt>
      <trkpt lat="50.92398" lon="2.74764">
        <ele>7.4</ele>
        <time>2020-06-23T14:46:06Z</time>
      </trkpt>
      <trkpt lat="50.92394" lon="2.74768">
        <ele>7.5</ele>
        <time>2020-06-23T14:46:07Z</time>
      </trkpt>
      <trkpt lat="50.92388" lon="2.74771">
        <ele>7.6</ele>
        <time>2020-06-23T14:46:08Z</time>
      </trkpt>
      <trkpt lat="50.92383" lon="2.74773">
        <ele>7.7</ele>
        <time>2020-06-23T14:46:09Z</time>
      </trkpt>
      <trkpt lat="50.92377" lon="2.74774">
        <ele>7.7</ele>
        <time>2020-06-23T14:46:10Z</time>
      </trkpt>
      <trkpt lat="50.92371" lon="2.74774">
        <ele>7.7</ele>
        <time>2020-06-23T14:46:11Z</time>
      </trkpt>
      <trkpt lat="50.92366" lon="2.74775">
        <ele>7.7</ele>
        <time>2020-06-23T14:46:12Z</time>
      </trkpt>
      <trkpt lat="50.92359" lon="2.74777">
        <ele>7.7</ele>
        <time>2020-06-23T14:46:13Z</time>
      </trkpt>
      <trkpt lat="50.92353" lon="2.74779">
        <ele>7.7</ele>
        <time>2020-06-23T14:46:14Z</time>
      </trkpt>
      <trkpt lat="50.92346" lon="2.74781">
        <ele>7.7</ele>
        <time>2020-06-23T14:46:15Z</time>
      </trkpt>
      <trkpt lat="50.92339" lon="2.74783">
        <ele>7.7</ele>
        <time>2020-06-23T14:46:16Z</time>
      </trkpt>
      <trkpt lat="50.92333" lon="2.74785">
        <ele>7.7</ele>
        <time>2020-06-23T14:46:17Z</time>
      </trkpt>
      <trkpt lat="50.92327" lon="2.74787">
        <ele>7.7</ele>
        <time>2020-06-23T14:46:18Z</time>
      </trkpt>
      <trkpt lat="50.92321" lon="2.74789">
        <ele>7.7</ele>
        <time>2020-06-23T14:46:19Z</time>
      </trkpt>
      <trkpt lat="50.92315" lon="2.7479">
        <ele>7.8</ele>
        <time>2020-06-23T14:46:20Z</time>
      </trkpt>
      <trkpt lat="50.9231" lon="2.74792">
        <ele>7.8</ele>
        <time>2020-06-23T14:46:21Z</time>
      </trkpt>
      <trkpt lat="50.92304" lon="2.74794">
        <ele>7.8</ele>
        <time>2020-06-23T14:46:22Z</time>
      </trkpt>
      <trkpt lat="50.92298" lon="2.74796">
        <ele>7.8</ele>
        <time>2020-06-23T14:46:23Z</time>
      </trkpt>
      <trkpt lat="50.92293" lon="2.74798">
        <ele>7.8</ele>
        <time>2020-06-23T14:46:24Z</time>
      </trkpt>
      <trkpt lat="50.92287" lon="2.74802">
        <ele>7.9</ele>
        <time>2020-06-23T14:46:25Z</time>
      </trkpt>
      <trkpt lat="50.92281" lon="2.74805">
        <ele>7.9</ele>
        <time>2020-06-23T14:46:26Z</time>
      </trkpt>
      <trkpt lat="50.92276" lon="2.74811">
        <ele>7.9</ele>
        <time>2020-06-23T14:46:27Z</time>
      </trkpt>
      <trkpt lat="50.92272" lon="2.74818">
        <ele>7.9</ele>
        <time>2020-06-23T14:46:28Z</time>
      </trkpt>
      <trkpt lat="50.92268" lon="2.74825">
        <ele>7.9</ele>
        <time>2020-06-23T14:46:29Z</time>
      </trkpt>
      <trkpt lat="50.92264" lon="2.74832">
        <ele>8</ele>
        <time>2020-06-23T14:46:30Z</time>
      </trkpt>
      <trkpt lat="50.9226" lon="2.74839">
        <ele>8</ele>
        <time>2020-06-23T14:46:31Z</time>
      </trkpt>
      <trkpt lat="50.92256" lon="2.74846">
        <ele>8</ele>
        <time>2020-06-23T14:46:32Z</time>
      </trkpt>
      <trkpt lat="50.92252" lon="2.74852">
        <ele>8</ele>
        <time>2020-06-23T14:46:33Z</time>
      </trkpt>
      <trkpt lat="50.92248" lon="2.74859">
        <ele>8.1</ele>
        <time>2020-06-23T14:46:34Z</time>
      </trkpt>
      <trkpt lat="50.92244" lon="2.74865">
        <ele>8.1</ele>
        <time>2020-06-23T14:46:35Z</time>
      </trkpt>
      <trkpt lat="50.92239" lon="2.74873">
        <ele>8.1</ele>
        <time>2020-06-23T14:46:36Z</time>
      </trkpt>
      <trkpt lat="50.92234" lon="2.74881">
        <ele>8</ele>
        <time>2020-06-23T14:46:37Z</time>
      </trkpt>
      <trkpt lat="50.9223" lon="2.74888">
        <ele>8</ele>
        <time>2020-06-23T14:46:38Z</time>
      </trkpt>
      <trkpt lat="50.92226" lon="2.74895">
        <ele>8</ele>
        <time>2020-06-23T14:46:39Z</time>
      </trkpt>
      <trkpt lat="50.92222" lon="2.74902">
        <ele>8</ele>
        <time>2020-06-23T14:46:40Z</time>
      </trkpt>
      <trkpt lat="50.92218" lon="2.74908">
        <ele>7.9</ele>
        <time>2020-06-23T14:46:41Z</time>
      </trkpt>
      <trkpt lat="50.92213" lon="2.74916">
        <ele>7.9</ele>
        <time>2020-06-23T14:46:42Z</time>
      </trkpt>
      <trkpt lat="50.92209" lon="2.74922">
        <ele>7.9</ele>
        <time>2020-06-23T14:46:43Z</time>
      </trkpt>
      <trkpt lat="50.92204" lon="2.74928">
        <ele>7.9</ele>
        <time>2020-06-23T14:46:44Z</time>
      </trkpt>
      <trkpt lat="50.92201" lon="2.74934">
        <ele>7.9</ele>
        <time>2020-06-23T14:46:45Z</time>
      </trkpt>
      <trkpt lat="50.92197" lon="2.7494">
        <ele>7.9</ele>
        <time>2020-06-23T14:46:46Z</time>
      </trkpt>
      <trkpt lat="50.92193" lon="2.74946">
        <ele>7.8</ele>
        <time>2020-06-23T14:46:47Z</time>
      </trkpt>
      <trkpt lat="50.92189" lon="2.74952">
        <ele>7.8</ele>
        <time>2020-06-23T14:46:48Z</time>
      </trkpt>
      <trkpt lat="50.92185" lon="2.74958">
        <ele>7.8</ele>
        <time>2020-06-23T14:46:49Z</time>
      </trkpt>
      <trkpt lat="50.92181" lon="2.74964">
        <ele>7.8</ele>
        <time>2020-06-23T14:46:50Z</time>
      </trkpt>
      <trkpt lat="50.92178" lon="2.74969">
        <ele>7.8</ele>
        <time>2020-06-23T14:46:51Z</time>
      </trkpt>
      <trkpt lat="50.92175" lon="2.74972">
        <ele>7.8</ele>
        <time>2020-06-23T14:46:52Z</time>
      </trkpt>
      <trkpt lat="50.92173" lon="2.74977">
        <ele>7.7</ele>
        <time>2020-06-23T14:46:53Z</time>
      </trkpt>
      <trkpt lat="50.9217" lon="2.74982">
        <ele>7.7</ele>
        <time>2020-06-23T14:46:54Z</time>
      </trkpt>
      <trkpt lat="50.92166" lon="2.74988">
        <ele>7.7</ele>
        <time>2020-06-23T14:46:55Z</time>
      </trkpt>
      <trkpt lat="50.92161" lon="2.74993">
        <ele>7.7</ele>
        <time>2020-06-23T14:46:56Z</time>
      </trkpt>
      <trkpt lat="50.92156" lon="2.74998">
        <ele>7.7</ele>
        <time>2020-06-23T14:46:57Z</time>
      </trkpt>
      <trkpt lat="50.92151" lon="2.75004">
        <ele>7.7</ele>
        <time>2020-06-23T14:46:58Z</time>
      </trkpt>
      <trkpt lat="50.92146" lon="2.75009">
        <ele>7.8</ele>
        <time>2020-06-23T14:46:59Z</time>
      </trkpt>
      <trkpt lat="50.9214" lon="2.75014">
        <ele>7.8</ele>
        <time>2020-06-23T14:47:00Z</time>
      </trkpt>
      <trkpt lat="50.92135" lon="2.7502">
        <ele>7.8</ele>
        <time>2020-06-23T14:47:01Z</time>
      </trkpt>
      <trkpt lat="50.9213" lon="2.75025">
        <ele>7.8</ele>
        <time>2020-06-23T14:47:02Z</time>
      </trkpt>
      <trkpt lat="50.92125" lon="2.7503">
        <ele>7.8</ele>
        <time>2020-06-23T14:47:03Z</time>
      </trkpt>
      <trkpt lat="50.92119" lon="2.75035">
        <ele>7.8</ele>
        <time>2020-06-23T14:47:04Z</time>
      </trkpt>
      <trkpt lat="50.92115" lon="2.75041">
        <ele>7.8</ele>
        <time>2020-06-23T14:47:05Z</time>
      </trkpt>
      <trkpt lat="50.92109" lon="2.75047">
        <ele>7.8</ele>
        <time>2020-06-23T14:47:06Z</time>
      </trkpt>
      <trkpt lat="50.92103" lon="2.75053">
        <ele>7.8</ele>
        <time>2020-06-23T14:47:07Z</time>
      </trkpt>
      <trkpt lat="50.92099" lon="2.75058">
        <ele>7.8</ele>
        <time>2020-06-23T14:47:08Z</time>
      </trkpt>
      <trkpt lat="50.92094" lon="2.75061">
        <ele>7.8</ele>
        <time>2020-06-23T14:47:09Z</time>
      </trkpt>
      <trkpt lat="50.92089" lon="2.75065">
        <ele>7.8</ele>
        <time>2020-06-23T14:47:10Z</time>
      </trkpt>
      <trkpt lat="50.92084" lon="2.75068">
        <ele>7.8</ele>
        <time>2020-06-23T14:47:11Z</time>
      </trkpt>
      <trkpt lat="50.92079" lon="2.75072">
        <ele>7.8</ele>
        <time>2020-06-23T14:47:12Z</time>
      </trkpt>
      <trkpt lat="50.92072" lon="2.75075">
        <ele>7.8</ele>
        <time>2020-06-23T14:47:13Z</time>
      </trkpt>
      <trkpt lat="50.92065" lon="2.75079">
        <ele>7.8</ele>
        <time>2020-06-23T14:47:14Z</time>
      </trkpt>
      <trkpt lat="50.92058" lon="2.75081">
        <ele>7.8</ele>
        <time>2020-06-23T14:47:15Z</time>
      </trkpt>
      <trkpt lat="50.92051" lon="2.75085">
        <ele>7.8</ele>
        <time>2020-06-23T14:47:16Z</time>
      </trkpt>
      <trkpt lat="50.92045" lon="2.75088">
        <ele>7.8</ele>
        <time>2020-06-23T14:47:17Z</time>
      </trkpt>
      <trkpt lat="50.92039" lon="2.75091">
        <ele>7.8</ele>
        <time>2020-06-23T14:47:18Z</time>
      </trkpt>
      <trkpt lat="50.92033" lon="2.75095">
        <ele>7.8</ele>
        <time>2020-06-23T14:47:19Z</time>
      </trkpt>
      <trkpt lat="50.92028" lon="2.75098">
        <ele>7.8</ele>
        <time>2020-06-23T14:47:20Z</time>
      </trkpt>
      <trkpt lat="50.92023" lon="2.75101">
        <ele>7.8</ele>
        <time>2020-06-23T14:47:21Z</time>
      </trkpt>
      <trkpt lat="50.92018" lon="2.75104">
        <ele>7.8</ele>
        <time>2020-06-23T14:47:22Z</time>
      </trkpt>
      <trkpt lat="50.92013" lon="2.75109">
        <ele>7.8</ele>
        <time>2020-06-23T14:47:23Z</time>
      </trkpt>
      <trkpt lat="50.92007" lon="2.75113">
        <ele>7.8</ele>
        <time>2020-06-23T14:47:24Z</time>
      </trkpt>
      <trkpt lat="50.92002" lon="2.75117">
        <ele>7.8</ele>
        <time>2020-06-23T14:47:25Z</time>
      </trkpt>
      <trkpt lat="50.91997" lon="2.7512">
        <ele>7.7</ele>
        <time>2020-06-23T14:47:26Z</time>
      </trkpt>
      <trkpt lat="50.91991" lon="2.75124">
        <ele>7.7</ele>
        <time>2020-06-23T14:47:27Z</time>
      </trkpt>
      <trkpt lat="50.91986" lon="2.75127">
        <ele>7.7</ele>
        <time>2020-06-23T14:47:28Z</time>
      </trkpt>
      <trkpt lat="50.9198" lon="2.75132">
        <ele>7.7</ele>
        <time>2020-06-23T14:47:29Z</time>
      </trkpt>
      <trkpt lat="50.91975" lon="2.75136">
        <ele>7.7</ele>
        <time>2020-06-23T14:47:30Z</time>
      </trkpt>
      <trkpt lat="50.9197" lon="2.7514">
        <ele>7.8</ele>
        <time>2020-06-23T14:47:31Z</time>
      </trkpt>
      <trkpt lat="50.91965" lon="2.75145">
        <ele>7.8</ele>
        <time>2020-06-23T14:47:32Z</time>
      </trkpt>
      <trkpt lat="50.91959" lon="2.75151">
        <ele>7.8</ele>
        <time>2020-06-23T14:47:33Z</time>
      </trkpt>
      <trkpt lat="50.91954" lon="2.75157">
        <ele>7.8</ele>
        <time>2020-06-23T14:47:34Z</time>
      </trkpt>
      <trkpt lat="50.91948" lon="2.75161">
        <ele>7.9</ele>
        <time>2020-06-23T14:47:35Z</time>
      </trkpt>
      <trkpt lat="50.91943" lon="2.75166">
        <ele>7.9</ele>
        <time>2020-06-23T14:47:36Z</time>
      </trkpt>
      <trkpt lat="50.91937" lon="2.75171">
        <ele>7.9</ele>
        <time>2020-06-23T14:47:37Z</time>
      </trkpt>
      <trkpt lat="50.91932" lon="2.75176">
        <ele>8</ele>
        <time>2020-06-23T14:47:38Z</time>
      </trkpt>
      <trkpt lat="50.91927" lon="2.75182">
        <ele>8</ele>
        <time>2020-06-23T14:47:39Z</time>
      </trkpt>
      <trkpt lat="50.91922" lon="2.75187">
        <ele>8</ele>
        <time>2020-06-23T14:47:40Z</time>
      </trkpt>
      <trkpt lat="50.91917" lon="2.75192">
        <ele>8.1</ele>
        <time>2020-06-23T14:47:41Z</time>
      </trkpt>
      <trkpt lat="50.91913" lon="2.75196">
        <ele>8.1</ele>
        <time>2020-06-23T14:47:42Z</time>
      </trkpt>
      <trkpt lat="50.91908" lon="2.752">
        <ele>8.2</ele>
        <time>2020-06-23T14:47:43Z</time>
      </trkpt>
      <trkpt lat="50.91904" lon="2.75205">
        <ele>8.2</ele>
        <time>2020-06-23T14:47:44Z</time>
      </trkpt>
      <trkpt lat="50.91899" lon="2.75211">
        <ele>8.2</ele>
        <time>2020-06-23T14:47:45Z</time>
      </trkpt>
      <trkpt lat="50.91895" lon="2.75217">
        <ele>8.3</ele>
        <time>2020-06-23T14:47:46Z</time>
      </trkpt>
      <trkpt lat="50.9189" lon="2.75223">
        <ele>8.3</ele>
        <time>2020-06-23T14:47:47Z</time>
      </trkpt>
      <trkpt lat="50.91886" lon="2.75229">
        <ele>8.4</ele>
        <time>2020-06-23T14:47:48Z</time>
      </trkpt>
      <trkpt lat="50.91881" lon="2.75234">
        <ele>8.5</ele>
        <time>2020-06-23T14:47:49Z</time>
      </trkpt>
      <trkpt lat="50.91877" lon="2.75238">
        <ele>8.5</ele>
        <time>2020-06-23T14:47:50Z</time>
      </trkpt>
      <trkpt lat="50.91874" lon="2.75242">
        <ele>8.6</ele>
        <time>2020-06-23T14:47:51Z</time>
      </trkpt>
      <trkpt lat="50.91869" lon="2.75245">
        <ele>8.7</ele>
        <time>2020-06-23T14:47:52Z</time>
      </trkpt>
      <trkpt lat="50.91866" lon="2.75247">
        <ele>8.7</ele>
        <time>2020-06-23T14:47:53Z</time>
      </trkpt>
      <trkpt lat="50.91862" lon="2.75249">
        <ele>8.8</ele>
        <time>2020-06-23T14:47:54Z</time>
      </trkpt>
      <trkpt lat="50.91859" lon="2.75252">
        <ele>8.8</ele>
        <time>2020-06-23T14:47:55Z</time>
      </trkpt>
      <trkpt lat="50.91855" lon="2.75255">
        <ele>8.9</ele>
        <time>2020-06-23T14:47:56Z</time>
      </trkpt>
      <trkpt lat="50.91851" lon="2.75257">
        <ele>8.9</ele>
        <time>2020-06-23T14:47:57Z</time>
      </trkpt>
      <trkpt lat="50.91847" lon="2.7526">
        <ele>8.9</ele>
        <time>2020-06-23T14:47:58Z</time>
      </trkpt>
      <trkpt lat="50.91843" lon="2.75262">
        <ele>8.8</ele>
        <time>2020-06-23T14:47:59Z</time>
      </trkpt>
      <trkpt lat="50.91839" lon="2.75266">
        <ele>8.8</ele>
        <time>2020-06-23T14:48:00Z</time>
      </trkpt>
      <trkpt lat="50.91834" lon="2.75269">
        <ele>8.7</ele>
        <time>2020-06-23T14:48:01Z</time>
      </trkpt>
      <trkpt lat="50.91829" lon="2.75273">
        <ele>8.6</ele>
        <time>2020-06-23T14:48:02Z</time>
      </trkpt>
      <trkpt lat="50.91824" lon="2.75277">
        <ele>8.6</ele>
        <time>2020-06-23T14:48:03Z</time>
      </trkpt>
      <trkpt lat="50.91819" lon="2.75282">
        <ele>8.5</ele>
        <time>2020-06-23T14:48:04Z</time>
      </trkpt>
      <trkpt lat="50.91813" lon="2.75287">
        <ele>8.5</ele>
        <time>2020-06-23T14:48:05Z</time>
      </trkpt>
      <trkpt lat="50.91808" lon="2.75292">
        <ele>8.5</ele>
        <time>2020-06-23T14:48:06Z</time>
      </trkpt>
      <trkpt lat="50.91803" lon="2.75298">
        <ele>8.4</ele>
        <time>2020-06-23T14:48:07Z</time>
      </trkpt>
      <trkpt lat="50.91798" lon="2.75303">
        <ele>8.4</ele>
        <time>2020-06-23T14:48:08Z</time>
      </trkpt>
      <trkpt lat="50.91793" lon="2.75308">
        <ele>8.5</ele>
        <time>2020-06-23T14:48:09Z</time>
      </trkpt>
      <trkpt lat="50.91788" lon="2.75313">
        <ele>8.5</ele>
        <time>2020-06-23T14:48:10Z</time>
      </trkpt>
      <trkpt lat="50.91784" lon="2.7532">
        <ele>8.5</ele>
        <time>2020-06-23T14:48:11Z</time>
      </trkpt>
      <trkpt lat="50.91779" lon="2.75326">
        <ele>8.4</ele>
        <time>2020-06-23T14:48:12Z</time>
      </trkpt>
      <trkpt lat="50.91775" lon="2.75332">
        <ele>8.4</ele>
        <time>2020-06-23T14:48:13Z</time>
      </trkpt>
      <trkpt lat="50.9177" lon="2.75338">
        <ele>8.4</ele>
        <time>2020-06-23T14:48:14Z</time>
      </trkpt>
      <trkpt lat="50.91765" lon="2.75343">
        <ele>8.5</ele>
        <time>2020-06-23T14:48:15Z</time>
      </trkpt>
      <trkpt lat="50.91761" lon="2.75348">
        <ele>8.5</ele>
        <time>2020-06-23T14:48:16Z</time>
      </trkpt>
      <trkpt lat="50.91756" lon="2.75353">
        <ele>8.6</ele>
        <time>2020-06-23T14:48:17Z</time>
      </trkpt>
      <trkpt lat="50.91752" lon="2.7536">
        <ele>8.7</ele>
        <time>2020-06-23T14:48:18Z</time>
      </trkpt>
      <trkpt lat="50.91747" lon="2.75366">
        <ele>8.6</ele>
        <time>2020-06-23T14:48:19Z</time>
      </trkpt>
      <trkpt lat="50.91742" lon="2.75372">
        <ele>8.6</ele>
        <time>2020-06-23T14:48:20Z</time>
      </trkpt>
      <trkpt lat="50.91738" lon="2.75378">
        <ele>8.5</ele>
        <time>2020-06-23T14:48:21Z</time>
      </trkpt>
      <trkpt lat="50.91734" lon="2.75385">
        <ele>8.4</ele>
        <time>2020-06-23T14:48:22Z</time>
      </trkpt>
      <trkpt lat="50.9173" lon="2.75391">
        <ele>8.4</ele>
        <time>2020-06-23T14:48:23Z</time>
      </trkpt>
      <trkpt lat="50.91726" lon="2.75397">
        <ele>8.4</ele>
        <time>2020-06-23T14:48:24Z</time>
      </trkpt>
      <trkpt lat="50.91721" lon="2.75402">
        <ele>8.4</ele>
        <time>2020-06-23T14:48:25Z</time>
      </trkpt>
      <trkpt lat="50.91716" lon="2.75409">
        <ele>8.4</ele>
        <time>2020-06-23T14:48:26Z</time>
      </trkpt>
      <trkpt lat="50.91713" lon="2.75416">
        <ele>8.4</ele>
        <time>2020-06-23T14:48:27Z</time>
      </trkpt>
      <trkpt lat="50.91709" lon="2.75424">
        <ele>8.4</ele>
        <time>2020-06-23T14:48:28Z</time>
      </trkpt>
      <trkpt lat="50.91705" lon="2.75432">
        <ele>8.4</ele>
        <time>2020-06-23T14:48:29Z</time>
      </trkpt>
      <trkpt lat="50.91701" lon="2.75439">
        <ele>8.4</ele>
        <time>2020-06-23T14:48:30Z</time>
      </trkpt>
      <trkpt lat="50.91697" lon="2.75447">
        <ele>8.5</ele>
        <time>2020-06-23T14:48:31Z</time>
      </trkpt>
      <trkpt lat="50.91694" lon="2.75453">
        <ele>8.5</ele>
        <time>2020-06-23T14:48:32Z</time>
      </trkpt>
      <trkpt lat="50.91691" lon="2.75461">
        <ele>8.5</ele>
        <time>2020-06-23T14:48:33Z</time>
      </trkpt>
      <trkpt lat="50.91687" lon="2.75468">
        <ele>8.5</ele>
        <time>2020-06-23T14:48:34Z</time>
      </trkpt>
      <trkpt lat="50.91684" lon="2.75474">
        <ele>8.5</ele>
        <time>2020-06-23T14:48:35Z</time>
      </trkpt>
      <trkpt lat="50.91679" lon="2.75483">
        <ele>8.5</ele>
        <time>2020-06-23T14:48:36Z</time>
      </trkpt>
      <trkpt lat="50.91675" lon="2.75491">
        <ele>8.5</ele>
        <time>2020-06-23T14:48:37Z</time>
      </trkpt>
      <trkpt lat="50.91672" lon="2.75498">
        <ele>8.5</ele>
        <time>2020-06-23T14:48:38Z</time>
      </trkpt>
      <trkpt lat="50.91668" lon="2.75505">
        <ele>8.5</ele>
        <time>2020-06-23T14:48:39Z</time>
      </trkpt>
      <trkpt lat="50.91665" lon="2.75514">
        <ele>8.5</ele>
        <time>2020-06-23T14:48:40Z</time>
      </trkpt>
      <trkpt lat="50.91662" lon="2.75522">
        <ele>8.4</ele>
        <time>2020-06-23T14:48:41Z</time>
      </trkpt>
      <trkpt lat="50.91658" lon="2.7553">
        <ele>8.3</ele>
        <time>2020-06-23T14:48:42Z</time>
      </trkpt>
      <trkpt lat="50.91653" lon="2.75539">
        <ele>8.2</ele>
        <time>2020-06-23T14:48:43Z</time>
      </trkpt>
      <trkpt lat="50.91649" lon="2.75548">
        <ele>8.2</ele>
        <time>2020-06-23T14:48:44Z</time>
      </trkpt>
      <trkpt lat="50.91645" lon="2.75556">
        <ele>8.2</ele>
        <time>2020-06-23T14:48:45Z</time>
      </trkpt>
      <trkpt lat="50.91641" lon="2.75563">
        <ele>8.1</ele>
        <time>2020-06-23T14:48:46Z</time>
      </trkpt>
      <trkpt lat="50.91638" lon="2.75569">
        <ele>8.1</ele>
        <time>2020-06-23T14:48:47Z</time>
      </trkpt>
      <trkpt lat="50.91634" lon="2.75577">
        <ele>8.1</ele>
        <time>2020-06-23T14:48:48Z</time>
      </trkpt>
      <trkpt lat="50.91631" lon="2.75584">
        <ele>8.1</ele>
        <time>2020-06-23T14:48:49Z</time>
      </trkpt>
      <trkpt lat="50.91627" lon="2.75593">
        <ele>8.1</ele>
        <time>2020-06-23T14:48:50Z</time>
      </trkpt>
      <trkpt lat="50.91623" lon="2.75601">
        <ele>8.1</ele>
        <time>2020-06-23T14:48:51Z</time>
      </trkpt>
      <trkpt lat="50.91619" lon="2.75609">
        <ele>8.1</ele>
        <time>2020-06-23T14:48:52Z</time>
      </trkpt>
      <trkpt lat="50.91615" lon="2.75616">
        <ele>8.1</ele>
        <time>2020-06-23T14:48:53Z</time>
      </trkpt>
      <trkpt lat="50.91611" lon="2.75623">
        <ele>8</ele>
        <time>2020-06-23T14:48:54Z</time>
      </trkpt>
      <trkpt lat="50.91607" lon="2.75631">
        <ele>8</ele>
        <time>2020-06-23T14:48:55Z</time>
      </trkpt>
      <trkpt lat="50.91603" lon="2.75638">
        <ele>8</ele>
        <time>2020-06-23T14:48:56Z</time>
      </trkpt>
      <trkpt lat="50.91599" lon="2.75646">
        <ele>8</ele>
        <time>2020-06-23T14:48:57Z</time>
      </trkpt>
      <trkpt lat="50.91595" lon="2.75653">
        <ele>8</ele>
        <time>2020-06-23T14:48:58Z</time>
      </trkpt>
      <trkpt lat="50.91591" lon="2.7566">
        <ele>7.9</ele>
        <time>2020-06-23T14:48:59Z</time>
      </trkpt>
      <trkpt lat="50.91585" lon="2.75667">
        <ele>7.9</ele>
        <time>2020-06-23T14:49:00Z</time>
      </trkpt>
      <trkpt lat="50.9158" lon="2.75672">
        <ele>7.9</ele>
        <time>2020-06-23T14:49:01Z</time>
      </trkpt>
      <trkpt lat="50.91575" lon="2.75678">
        <ele>7.9</ele>
        <time>2020-06-23T14:49:02Z</time>
      </trkpt>
      <trkpt lat="50.91569" lon="2.75684">
        <ele>7.9</ele>
        <time>2020-06-23T14:49:03Z</time>
      </trkpt>
      <trkpt lat="50.91563" lon="2.75689">
        <ele>7.9</ele>
        <time>2020-06-23T14:49:04Z</time>
      </trkpt>
      <trkpt lat="50.91558" lon="2.75694">
        <ele>7.9</ele>
        <time>2020-06-23T14:49:05Z</time>
      </trkpt>
      <trkpt lat="50.91552" lon="2.75698">
        <ele>7.9</ele>
        <time>2020-06-23T14:49:06Z</time>
      </trkpt>
      <trkpt lat="50.91547" lon="2.75703">
        <ele>7.9</ele>
        <time>2020-06-23T14:49:07Z</time>
      </trkpt>
      <trkpt lat="50.91542" lon="2.75708">
        <ele>7.9</ele>
        <time>2020-06-23T14:49:08Z</time>
      </trkpt>
      <trkpt lat="50.91537" lon="2.75713">
        <ele>7.9</ele>
        <time>2020-06-23T14:49:09Z</time>
      </trkpt>
      <trkpt lat="50.91532" lon="2.75718">
        <ele>8</ele>
        <time>2020-06-23T14:49:10Z</time>
      </trkpt>
      <trkpt lat="50.91526" lon="2.75724">
        <ele>8</ele>
        <time>2020-06-23T14:49:11Z</time>
      </trkpt>
      <trkpt lat="50.91521" lon="2.75729">
        <ele>8</ele>
        <time>2020-06-23T14:49:12Z</time>
      </trkpt>
      <trkpt lat="50.91516" lon="2.75733">
        <ele>8</ele>
        <time>2020-06-23T14:49:13Z</time>
      </trkpt>
      <trkpt lat="50.91509" lon="2.75736">
        <ele>8</ele>
        <time>2020-06-23T14:49:14Z</time>
      </trkpt>
      <trkpt lat="50.91502" lon="2.75739">
        <ele>8</ele>
        <time>2020-06-23T14:49:15Z</time>
      </trkpt>
      <trkpt lat="50.91495" lon="2.75742">
        <ele>8.1</ele>
        <time>2020-06-23T14:49:16Z</time>
      </trkpt>
      <trkpt lat="50.91489" lon="2.75744">
        <ele>8.1</ele>
        <time>2020-06-23T14:49:17Z</time>
      </trkpt>
      <trkpt lat="50.91483" lon="2.75745">
        <ele>8.2</ele>
        <time>2020-06-23T14:49:18Z</time>
      </trkpt>
      <trkpt lat="50.91476" lon="2.75746">
        <ele>8.2</ele>
        <time>2020-06-23T14:49:19Z</time>
      </trkpt>
      <trkpt lat="50.9147" lon="2.75747">
        <ele>8.2</ele>
        <time>2020-06-23T14:49:20Z</time>
      </trkpt>
      <trkpt lat="50.91462" lon="2.75747">
        <ele>8.3</ele>
        <time>2020-06-23T14:49:21Z</time>
      </trkpt>
      <trkpt lat="50.91455" lon="2.75746">
        <ele>8.3</ele>
        <time>2020-06-23T14:49:22Z</time>
      </trkpt>
      <trkpt lat="50.91448" lon="2.75745">
        <ele>8.4</ele>
        <time>2020-06-23T14:49:23Z</time>
      </trkpt>
      <trkpt lat="50.9144" lon="2.75741">
        <ele>8.4</ele>
        <time>2020-06-23T14:49:24Z</time>
      </trkpt>
      <trkpt lat="50.91431" lon="2.75736">
        <ele>8.5</ele>
        <time>2020-06-23T14:49:25Z</time>
      </trkpt>
      <trkpt lat="50.91424" lon="2.7573">
        <ele>8.5</ele>
        <time>2020-06-23T14:49:26Z</time>
      </trkpt>
      <trkpt lat="50.91418" lon="2.75724">
        <ele>8.5</ele>
        <time>2020-06-23T14:49:27Z</time>
      </trkpt>
      <trkpt lat="50.91413" lon="2.75716">
        <ele>8.5</ele>
        <time>2020-06-23T14:49:28Z</time>
      </trkpt>
      <trkpt lat="50.91406" lon="2.75708">
        <ele>8.6</ele>
        <time>2020-06-23T14:49:29Z</time>
      </trkpt>
      <trkpt lat="50.91402" lon="2.757">
        <ele>8.6</ele>
        <time>2020-06-23T14:49:30Z</time>
      </trkpt>
      <trkpt lat="50.91396" lon="2.7569">
        <ele>8.7</ele>
        <time>2020-06-23T14:49:31Z</time>
      </trkpt>
      <trkpt lat="50.91392" lon="2.75681">
        <ele>8.8</ele>
        <time>2020-06-23T14:49:32Z</time>
      </trkpt>
      <trkpt lat="50.91388" lon="2.75673">
        <ele>8.8</ele>
        <time>2020-06-23T14:49:33Z</time>
      </trkpt>
      <trkpt lat="50.91384" lon="2.75666">
        <ele>8.9</ele>
        <time>2020-06-23T14:49:34Z</time>
      </trkpt>
      <trkpt lat="50.91379" lon="2.75661">
        <ele>9</ele>
        <time>2020-06-23T14:49:35Z</time>
      </trkpt>
      <trkpt lat="50.91375" lon="2.75655">
        <ele>9.1</ele>
        <time>2020-06-23T14:49:36Z</time>
      </trkpt>
      <trkpt lat="50.9137" lon="2.75649">
        <ele>9.1</ele>
        <time>2020-06-23T14:49:37Z</time>
      </trkpt>
      <trkpt lat="50.91366" lon="2.75645">
        <ele>9.2</ele>
        <time>2020-06-23T14:49:38Z</time>
      </trkpt>
      <trkpt lat="50.91362" lon="2.75642">
        <ele>9.2</ele>
        <time>2020-06-23T14:49:39Z</time>
      </trkpt>
      <trkpt lat="50.91358" lon="2.75638">
        <ele>9.3</ele>
        <time>2020-06-23T14:49:40Z</time>
      </trkpt>
      <trkpt lat="50.91354" lon="2.75635">
        <ele>9.3</ele>
        <time>2020-06-23T14:49:41Z</time>
      </trkpt>
      <trkpt lat="50.9135" lon="2.75634">
        <ele>9.4</ele>
        <time>2020-06-23T14:49:42Z</time>
      </trkpt>
      <trkpt lat="50.91345" lon="2.75635">
        <ele>9.4</ele>
        <time>2020-06-23T14:49:43Z</time>
      </trkpt>
      <trkpt lat="50.9134" lon="2.75636">
        <ele>9.4</ele>
        <time>2020-06-23T14:49:44Z</time>
      </trkpt>
      <trkpt lat="50.91336" lon="2.75638">
        <ele>9.4</ele>
        <time>2020-06-23T14:49:45Z</time>
      </trkpt>
      <trkpt lat="50.91331" lon="2.75641">
        <ele>9.3</ele>
        <time>2020-06-23T14:49:46Z</time>
      </trkpt>
      <trkpt lat="50.91327" lon="2.75647">
        <ele>9.3</ele>
        <time>2020-06-23T14:49:47Z</time>
      </trkpt>
      <trkpt lat="50.91322" lon="2.75653">
        <ele>9.3</ele>
        <time>2020-06-23T14:49:48Z</time>
      </trkpt>
      <trkpt lat="50.91319" lon="2.75659">
        <ele>9.3</ele>
        <time>2020-06-23T14:49:49Z</time>
      </trkpt>
      <trkpt lat="50.91314" lon="2.75666">
        <ele>9.3</ele>
        <time>2020-06-23T14:49:50Z</time>
      </trkpt>
      <trkpt lat="50.91311" lon="2.75673">
        <ele>9.3</ele>
        <time>2020-06-23T14:49:51Z</time>
      </trkpt>
      <trkpt lat="50.91307" lon="2.75679">
        <ele>9.3</ele>
        <time>2020-06-23T14:49:52Z</time>
      </trkpt>
      <trkpt lat="50.91305" lon="2.75696">
        <ele>9.3</ele>
        <time>2020-06-23T14:49:53Z</time>
      </trkpt>
      <trkpt lat="50.91304" lon="2.75707">
        <ele>9.3</ele>
        <time>2020-06-23T14:49:54Z</time>
      </trkpt>
      <trkpt lat="50.91302" lon="2.7572">
        <ele>9.3</ele>
        <time>2020-06-23T14:49:55Z</time>
      </trkpt>
      <trkpt lat="50.91298" lon="2.75727">
        <ele>9.3</ele>
        <time>2020-06-23T14:49:56Z</time>
      </trkpt>
      <trkpt lat="50.91296" lon="2.75733">
        <ele>9.3</ele>
        <time>2020-06-23T14:49:57Z</time>
      </trkpt>
      <trkpt lat="50.91294" lon="2.75742">
        <ele>9.3</ele>
        <time>2020-06-23T14:49:58Z</time>
      </trkpt>
      <trkpt lat="50.9129" lon="2.75749">
        <ele>9.3</ele>
        <time>2020-06-23T14:49:59Z</time>
      </trkpt>
      <trkpt lat="50.91287" lon="2.75757">
        <ele>9.3</ele>
        <time>2020-06-23T14:50:00Z</time>
      </trkpt>
      <trkpt lat="50.91284" lon="2.75763">
        <ele>9.3</ele>
        <time>2020-06-23T14:50:01Z</time>
      </trkpt>
      <trkpt lat="50.91281" lon="2.7577">
        <ele>9.3</ele>
        <time>2020-06-23T14:50:02Z</time>
      </trkpt>
      <trkpt lat="50.91278" lon="2.75777">
        <ele>9.3</ele>
        <time>2020-06-23T14:50:03Z</time>
      </trkpt>
      <trkpt lat="50.91276" lon="2.75783">
        <ele>9.3</ele>
        <time>2020-06-23T14:50:04Z</time>
      </trkpt>
      <trkpt lat="50.91273" lon="2.7579">
        <ele>9.3</ele>
        <time>2020-06-23T14:50:05Z</time>
      </trkpt>
      <trkpt lat="50.9127" lon="2.75796">
        <ele>9.3</ele>
        <time>2020-06-23T14:50:06Z</time>
      </trkpt>
      <trkpt lat="50.91266" lon="2.758">
        <ele>9.3</ele>
        <time>2020-06-23T14:50:07Z</time>
      </trkpt>
      <trkpt lat="50.91262" lon="2.75806">
        <ele>9.3</ele>
        <time>2020-06-23T14:50:08Z</time>
      </trkpt>
      <trkpt lat="50.91259" lon="2.75812">
        <ele>9.2</ele>
        <time>2020-06-23T14:50:09Z</time>
      </trkpt>
      <trkpt lat="50.91255" lon="2.75818">
        <ele>9.2</ele>
        <time>2020-06-23T14:50:10Z</time>
      </trkpt>
      <trkpt lat="50.91251" lon="2.75825">
        <ele>9.2</ele>
        <time>2020-06-23T14:50:11Z</time>
      </trkpt>
      <trkpt lat="50.91248" lon="2.75832">
        <ele>9.2</ele>
        <time>2020-06-23T14:50:12Z</time>
      </trkpt>
      <trkpt lat="50.91245" lon="2.75838">
        <ele>9.2</ele>
        <time>2020-06-23T14:50:13Z</time>
      </trkpt>
      <trkpt lat="50.91242" lon="2.75844">
        <ele>9.2</ele>
        <time>2020-06-23T14:50:14Z</time>
      </trkpt>
      <trkpt lat="50.91239" lon="2.7585">
        <ele>9.2</ele>
        <time>2020-06-23T14:50:15Z</time>
      </trkpt>
      <trkpt lat="50.91236" lon="2.75857">
        <ele>9.2</ele>
        <time>2020-06-23T14:50:16Z</time>
      </trkpt>
      <trkpt lat="50.91232" lon="2.75865">
        <ele>9.3</ele>
        <time>2020-06-23T14:50:17Z</time>
      </trkpt>
      <trkpt lat="50.91229" lon="2.75873">
        <ele>9.4</ele>
        <time>2020-06-23T14:50:18Z</time>
      </trkpt>
      <trkpt lat="50.91226" lon="2.7588">
        <ele>9.4</ele>
        <time>2020-06-23T14:50:19Z</time>
      </trkpt>
      <trkpt lat="50.91223" lon="2.75886">
        <ele>9.5</ele>
        <time>2020-06-23T14:50:20Z</time>
      </trkpt>
      <trkpt lat="50.91219" lon="2.75893">
        <ele>9.5</ele>
        <time>2020-06-23T14:50:21Z</time>
      </trkpt>
      <trkpt lat="50.91216" lon="2.759">
        <ele>9.5</ele>
        <time>2020-06-23T14:50:22Z</time>
      </trkpt>
      <trkpt lat="50.91212" lon="2.75907">
        <ele>9.4</ele>
        <time>2020-06-23T14:50:23Z</time>
      </trkpt>
      <trkpt lat="50.91208" lon="2.75914">
        <ele>9.3</ele>
        <time>2020-06-23T14:50:24Z</time>
      </trkpt>
      <trkpt lat="50.91205" lon="2.7592">
        <ele>9.3</ele>
        <time>2020-06-23T14:50:25Z</time>
      </trkpt>
      <trkpt lat="50.91201" lon="2.75925">
        <ele>9.2</ele>
        <time>2020-06-23T14:50:26Z</time>
      </trkpt>
      <trkpt lat="50.91196" lon="2.75931">
        <ele>9.2</ele>
        <time>2020-06-23T14:50:27Z</time>
      </trkpt>
      <trkpt lat="50.91192" lon="2.75937">
        <ele>9.1</ele>
        <time>2020-06-23T14:50:28Z</time>
      </trkpt>
      <trkpt lat="50.91186" lon="2.75943">
        <ele>9.1</ele>
        <time>2020-06-23T14:50:29Z</time>
      </trkpt>
      <trkpt lat="50.91182" lon="2.7595">
        <ele>9.1</ele>
        <time>2020-06-23T14:50:30Z</time>
      </trkpt>
      <trkpt lat="50.91178" lon="2.75956">
        <ele>9.1</ele>
        <time>2020-06-23T14:50:31Z</time>
      </trkpt>
      <trkpt lat="50.91174" lon="2.75964">
        <ele>9.2</ele>
        <time>2020-06-23T14:50:32Z</time>
      </trkpt>
      <trkpt lat="50.9117" lon="2.7597">
        <ele>9.2</ele>
        <time>2020-06-23T14:50:33Z</time>
      </trkpt>
      <trkpt lat="50.91166" lon="2.75976">
        <ele>9.2</ele>
        <time>2020-06-23T14:50:34Z</time>
      </trkpt>
      <trkpt lat="50.91162" lon="2.75982">
        <ele>9.2</ele>
        <time>2020-06-23T14:50:35Z</time>
      </trkpt>
      <trkpt lat="50.91158" lon="2.75988">
        <ele>9.2</ele>
        <time>2020-06-23T14:50:36Z</time>
      </trkpt>
      <trkpt lat="50.91155" lon="2.75994">
        <ele>9.2</ele>
        <time>2020-06-23T14:50:37Z</time>
      </trkpt>
      <trkpt lat="50.91151" lon="2.76">
        <ele>9.2</ele>
        <time>2020-06-23T14:50:38Z</time>
      </trkpt>
      <trkpt lat="50.91147" lon="2.76007">
        <ele>9.2</ele>
        <time>2020-06-23T14:50:39Z</time>
      </trkpt>
      <trkpt lat="50.91143" lon="2.76013">
        <ele>9.2</ele>
        <time>2020-06-23T14:50:40Z</time>
      </trkpt>
      <trkpt lat="50.9114" lon="2.76019">
        <ele>9.3</ele>
        <time>2020-06-23T14:50:41Z</time>
      </trkpt>
      <trkpt lat="50.91136" lon="2.76024">
        <ele>9.3</ele>
        <time>2020-06-23T14:50:42Z</time>
      </trkpt>
      <trkpt lat="50.91132" lon="2.7603">
        <ele>9.3</ele>
        <time>2020-06-23T14:50:43Z</time>
      </trkpt>
      <trkpt lat="50.91128" lon="2.76035">
        <ele>9.3</ele>
        <time>2020-06-23T14:50:44Z</time>
      </trkpt>
      <trkpt lat="50.91124" lon="2.76041">
        <ele>9.2</ele>
        <time>2020-06-23T14:50:45Z</time>
      </trkpt>
      <trkpt lat="50.9112" lon="2.76046">
        <ele>9.2</ele>
        <time>2020-06-23T14:50:46Z</time>
      </trkpt>
      <trkpt lat="50.91116" lon="2.76052">
        <ele>9.2</ele>
        <time>2020-06-23T14:50:47Z</time>
      </trkpt>
      <trkpt lat="50.91113" lon="2.76058">
        <ele>9.2</ele>
        <time>2020-06-23T14:50:48Z</time>
      </trkpt>
      <trkpt lat="50.91108" lon="2.76064">
        <ele>9.2</ele>
        <time>2020-06-23T14:50:49Z</time>
      </trkpt>
      <trkpt lat="50.91103" lon="2.7607">
        <ele>9.2</ele>
        <time>2020-06-23T14:50:50Z</time>
      </trkpt>
      <trkpt lat="50.91097" lon="2.76075">
        <ele>9.1</ele>
        <time>2020-06-23T14:50:51Z</time>
      </trkpt>
      <trkpt lat="50.91091" lon="2.76079">
        <ele>9.1</ele>
        <time>2020-06-23T14:50:52Z</time>
      </trkpt>
      <trkpt lat="50.91085" lon="2.76084">
        <ele>9.1</ele>
        <time>2020-06-23T14:50:53Z</time>
      </trkpt>
      <trkpt lat="50.9108" lon="2.76087">
        <ele>9.1</ele>
        <time>2020-06-23T14:50:54Z</time>
      </trkpt>
      <trkpt lat="50.91074" lon="2.7609">
        <ele>9.2</ele>
        <time>2020-06-23T14:50:55Z</time>
      </trkpt>
      <trkpt lat="50.91068" lon="2.76093">
        <ele>9.2</ele>
        <time>2020-06-23T14:50:56Z</time>
      </trkpt>
      <trkpt lat="50.91062" lon="2.76095">
        <ele>9.2</ele>
        <time>2020-06-23T14:50:57Z</time>
      </trkpt>
      <trkpt lat="50.91056" lon="2.76098">
        <ele>9.2</ele>
        <time>2020-06-23T14:50:58Z</time>
      </trkpt>
      <trkpt lat="50.91051" lon="2.76101">
        <ele>9.2</ele>
        <time>2020-06-23T14:50:59Z</time>
      </trkpt>
      <trkpt lat="50.91046" lon="2.76105">
        <ele>9.2</ele>
        <time>2020-06-23T14:51:00Z</time>
      </trkpt>
      <trkpt lat="50.91041" lon="2.76109">
        <ele>9.2</ele>
        <time>2020-06-23T14:51:01Z</time>
      </trkpt>
      <trkpt lat="50.91036" lon="2.76113">
        <ele>9.2</ele>
        <time>2020-06-23T14:51:02Z</time>
      </trkpt>
      <trkpt lat="50.91031" lon="2.76118">
        <ele>9.2</ele>
        <time>2020-06-23T14:51:03Z</time>
      </trkpt>
      <trkpt lat="50.91025" lon="2.76122">
        <ele>9.2</ele>
        <time>2020-06-23T14:51:04Z</time>
      </trkpt>
      <trkpt lat="50.9102" lon="2.76127">
        <ele>9.3</ele>
        <time>2020-06-23T14:51:05Z</time>
      </trkpt>
      <trkpt lat="50.91014" lon="2.76132">
        <ele>9.3</ele>
        <time>2020-06-23T14:51:06Z</time>
      </trkpt>
      <trkpt lat="50.91009" lon="2.76138">
        <ele>9.3</ele>
        <time>2020-06-23T14:51:07Z</time>
      </trkpt>
      <trkpt lat="50.91003" lon="2.76143">
        <ele>9.3</ele>
        <time>2020-06-23T14:51:08Z</time>
      </trkpt>
      <trkpt lat="50.90998" lon="2.7615">
        <ele>9.4</ele>
        <time>2020-06-23T14:51:09Z</time>
      </trkpt>
      <trkpt lat="50.90993" lon="2.76156">
        <ele>9.4</ele>
        <time>2020-06-23T14:51:10Z</time>
      </trkpt>
      <trkpt lat="50.90987" lon="2.76161">
        <ele>9.4</ele>
        <time>2020-06-23T14:51:11Z</time>
      </trkpt>
      <trkpt lat="50.90982" lon="2.76167">
        <ele>9.4</ele>
        <time>2020-06-23T14:51:12Z</time>
      </trkpt>
      <trkpt lat="50.90977" lon="2.76171">
        <ele>9.4</ele>
        <time>2020-06-23T14:51:13Z</time>
      </trkpt>
      <trkpt lat="50.90972" lon="2.76177">
        <ele>9.4</ele>
        <time>2020-06-23T14:51:14Z</time>
      </trkpt>
      <trkpt lat="50.90967" lon="2.76182">
        <ele>9.4</ele>
        <time>2020-06-23T14:51:15Z</time>
      </trkpt>
      <trkpt lat="50.90963" lon="2.76187">
        <ele>9.5</ele>
        <time>2020-06-23T14:51:16Z</time>
      </trkpt>
      <trkpt lat="50.90958" lon="2.76193">
        <ele>9.5</ele>
        <time>2020-06-23T14:51:17Z</time>
      </trkpt>
      <trkpt lat="50.90954" lon="2.76198">
        <ele>9.5</ele>
        <time>2020-06-23T14:51:18Z</time>
      </trkpt>
      <trkpt lat="50.90948" lon="2.76204">
        <ele>9.6</ele>
        <time>2020-06-23T14:51:19Z</time>
      </trkpt>
      <trkpt lat="50.90944" lon="2.76209">
        <ele>9.7</ele>
        <time>2020-06-23T14:51:20Z</time>
      </trkpt>
      <trkpt lat="50.9094" lon="2.76214">
        <ele>9.8</ele>
        <time>2020-06-23T14:51:21Z</time>
      </trkpt>
      <trkpt lat="50.90935" lon="2.76219">
        <ele>9.8</ele>
        <time>2020-06-23T14:51:22Z</time>
      </trkpt>
      <trkpt lat="50.90929" lon="2.76225">
        <ele>9.8</ele>
        <time>2020-06-23T14:51:23Z</time>
      </trkpt>
      <trkpt lat="50.90923" lon="2.7623">
        <ele>9.9</ele>
        <time>2020-06-23T14:51:24Z</time>
      </trkpt>
      <trkpt lat="50.90918" lon="2.76236">
        <ele>9.9</ele>
        <time>2020-06-23T14:51:25Z</time>
      </trkpt>
      <trkpt lat="50.90913" lon="2.7624">
        <ele>9.9</ele>
        <time>2020-06-23T14:51:26Z</time>
      </trkpt>
      <trkpt lat="50.90908" lon="2.76243">
        <ele>9.9</ele>
        <time>2020-06-23T14:51:27Z</time>
      </trkpt>
      <trkpt lat="50.90902" lon="2.76246">
        <ele>9.9</ele>
        <time>2020-06-23T14:51:28Z</time>
      </trkpt>
      <trkpt lat="50.90896" lon="2.76251">
        <ele>9.9</ele>
        <time>2020-06-23T14:51:29Z</time>
      </trkpt>
      <trkpt lat="50.90891" lon="2.76255">
        <ele>10</ele>
        <time>2020-06-23T14:51:30Z</time>
      </trkpt>
      <trkpt lat="50.90886" lon="2.7626">
        <ele>10</ele>
        <time>2020-06-23T14:51:31Z</time>
      </trkpt>
      <trkpt lat="50.90881" lon="2.76264">
        <ele>10</ele>
        <time>2020-06-23T14:51:32Z</time>
      </trkpt>
      <trkpt lat="50.90876" lon="2.76269">
        <ele>10.1</ele>
        <time>2020-06-23T14:51:33Z</time>
      </trkpt>
      <trkpt lat="50.90873" lon="2.76271">
        <ele>10.1</ele>
        <time>2020-06-23T14:51:34Z</time>
      </trkpt>
      <trkpt lat="50.90868" lon="2.76275">
        <ele>10.1</ele>
        <time>2020-06-23T14:51:35Z</time>
      </trkpt>
      <trkpt lat="50.90863" lon="2.76277">
        <ele>10.1</ele>
        <time>2020-06-23T14:51:36Z</time>
      </trkpt>
      <trkpt lat="50.90857" lon="2.7628">
        <ele>10.1</ele>
        <time>2020-06-23T14:51:37Z</time>
      </trkpt>
      <trkpt lat="50.90852" lon="2.76282">
        <ele>10.1</ele>
        <time>2020-06-23T14:51:38Z</time>
      </trkpt>
      <trkpt lat="50.90848" lon="2.76285">
        <ele>10.1</ele>
        <time>2020-06-23T14:51:39Z</time>
      </trkpt>
      <trkpt lat="50.90842" lon="2.76288">
        <ele>10.1</ele>
        <time>2020-06-23T14:51:40Z</time>
      </trkpt>
      <trkpt lat="50.90837" lon="2.76291">
        <ele>10.1</ele>
        <time>2020-06-23T14:51:41Z</time>
      </trkpt>
      <trkpt lat="50.90832" lon="2.76293">
        <ele>10</ele>
        <time>2020-06-23T14:51:42Z</time>
      </trkpt>
      <trkpt lat="50.90825" lon="2.76295">
        <ele>10</ele>
        <time>2020-06-23T14:51:43Z</time>
      </trkpt>
      <trkpt lat="50.90818" lon="2.76297">
        <ele>10</ele>
        <time>2020-06-23T14:51:44Z</time>
      </trkpt>
      <trkpt lat="50.90812" lon="2.76298">
        <ele>10</ele>
        <time>2020-06-23T14:51:45Z</time>
      </trkpt>
      <trkpt lat="50.90805" lon="2.763">
        <ele>10</ele>
        <time>2020-06-23T14:51:46Z</time>
      </trkpt>
      <trkpt lat="50.90798" lon="2.763">
        <ele>10</ele>
        <time>2020-06-23T14:51:47Z</time>
      </trkpt>
      <trkpt lat="50.90793" lon="2.763">
        <ele>10</ele>
        <time>2020-06-23T14:51:48Z</time>
      </trkpt>
      <trkpt lat="50.90787" lon="2.76303">
        <ele>10.1</ele>
        <time>2020-06-23T14:51:49Z</time>
      </trkpt>
      <trkpt lat="50.9078" lon="2.76305">
        <ele>10.1</ele>
        <time>2020-06-23T14:51:50Z</time>
      </trkpt>
      <trkpt lat="50.90772" lon="2.76308">
        <ele>10.2</ele>
        <time>2020-06-23T14:51:51Z</time>
      </trkpt>
      <trkpt lat="50.90766" lon="2.7631">
        <ele>10.2</ele>
        <time>2020-06-23T14:51:52Z</time>
      </trkpt>
      <trkpt lat="50.90761" lon="2.76312">
        <ele>10.2</ele>
        <time>2020-06-23T14:51:53Z</time>
      </trkpt>
      <trkpt lat="50.90755" lon="2.76314">
        <ele>10.3</ele>
        <time>2020-06-23T14:51:54Z</time>
      </trkpt>
      <trkpt lat="50.9075" lon="2.76317">
        <ele>10.3</ele>
        <time>2020-06-23T14:51:55Z</time>
      </trkpt>
      <trkpt lat="50.90744" lon="2.7632">
        <ele>10.4</ele>
        <time>2020-06-23T14:51:56Z</time>
      </trkpt>
      <trkpt lat="50.90739" lon="2.76324">
        <ele>10.4</ele>
        <time>2020-06-23T14:51:57Z</time>
      </trkpt>
      <trkpt lat="50.90733" lon="2.76328">
        <ele>10.4</ele>
        <time>2020-06-23T14:51:58Z</time>
      </trkpt>
      <trkpt lat="50.90727" lon="2.76331">
        <ele>10.4</ele>
        <time>2020-06-23T14:51:59Z</time>
      </trkpt>
      <trkpt lat="50.90722" lon="2.76334">
        <ele>10.4</ele>
        <time>2020-06-23T14:52:00Z</time>
      </trkpt>
      <trkpt lat="50.90717" lon="2.76338">
        <ele>10.4</ele>
        <time>2020-06-23T14:52:01Z</time>
      </trkpt>
      <trkpt lat="50.9071" lon="2.76342">
        <ele>10.5</ele>
        <time>2020-06-23T14:52:02Z</time>
      </trkpt>
      <trkpt lat="50.90705" lon="2.76345">
        <ele>10.5</ele>
        <time>2020-06-23T14:52:03Z</time>
      </trkpt>
      <trkpt lat="50.907" lon="2.76348">
        <ele>10.6</ele>
        <time>2020-06-23T14:52:04Z</time>
      </trkpt>
      <trkpt lat="50.90694" lon="2.76352">
        <ele>10.6</ele>
        <time>2020-06-23T14:52:05Z</time>
      </trkpt>
      <trkpt lat="50.90688" lon="2.76355">
        <ele>10.7</ele>
        <time>2020-06-23T14:52:06Z</time>
      </trkpt>
      <trkpt lat="50.90683" lon="2.76358">
        <ele>10.7</ele>
        <time>2020-06-23T14:52:07Z</time>
      </trkpt>
      <trkpt lat="50.90677" lon="2.76361">
        <ele>10.7</ele>
        <time>2020-06-23T14:52:08Z</time>
      </trkpt>
      <trkpt lat="50.90672" lon="2.76364">
        <ele>10.8</ele>
        <time>2020-06-23T14:52:09Z</time>
      </trkpt>
      <trkpt lat="50.90666" lon="2.76367">
        <ele>10.8</ele>
        <time>2020-06-23T14:52:10Z</time>
      </trkpt>
      <trkpt lat="50.9066" lon="2.76371">
        <ele>10.8</ele>
        <time>2020-06-23T14:52:11Z</time>
      </trkpt>
      <trkpt lat="50.90655" lon="2.76374">
        <ele>10.8</ele>
        <time>2020-06-23T14:52:12Z</time>
      </trkpt>
      <trkpt lat="50.90649" lon="2.76376">
        <ele>10.8</ele>
        <time>2020-06-23T14:52:13Z</time>
      </trkpt>
      <trkpt lat="50.90644" lon="2.76379">
        <ele>10.9</ele>
        <time>2020-06-23T14:52:14Z</time>
      </trkpt>
      <trkpt lat="50.90638" lon="2.76383">
        <ele>10.9</ele>
        <time>2020-06-23T14:52:15Z</time>
      </trkpt>
      <trkpt lat="50.90631" lon="2.76387">
        <ele>10.9</ele>
        <time>2020-06-23T14:52:16Z</time>
      </trkpt>
      <trkpt lat="50.90625" lon="2.7639">
        <ele>11</ele>
        <time>2020-06-23T14:52:17Z</time>
      </trkpt>
      <trkpt lat="50.90619" lon="2.76393">
        <ele>11</ele>
        <time>2020-06-23T14:52:18Z</time>
      </trkpt>
      <trkpt lat="50.90613" lon="2.76396">
        <ele>11</ele>
        <time>2020-06-23T14:52:19Z</time>
      </trkpt>
      <trkpt lat="50.90606" lon="2.764">
        <ele>11</ele>
        <time>2020-06-23T14:52:20Z</time>
      </trkpt>
      <trkpt lat="50.906" lon="2.76403">
        <ele>11</ele>
        <time>2020-06-23T14:52:21Z</time>
      </trkpt>
      <trkpt lat="50.90595" lon="2.76406">
        <ele>11</ele>
        <time>2020-06-23T14:52:22Z</time>
      </trkpt>
      <trkpt lat="50.90589" lon="2.76408">
        <ele>11</ele>
        <time>2020-06-23T14:52:23Z</time>
      </trkpt>
      <trkpt lat="50.90583" lon="2.76411">
        <ele>11</ele>
        <time>2020-06-23T14:52:24Z</time>
      </trkpt>
      <trkpt lat="50.90577" lon="2.76415">
        <ele>11</ele>
        <time>2020-06-23T14:52:25Z</time>
      </trkpt>
      <trkpt lat="50.90571" lon="2.76416">
        <ele>11</ele>
        <time>2020-06-23T14:52:26Z</time>
      </trkpt>
      <trkpt lat="50.90565" lon="2.76418">
        <ele>11</ele>
        <time>2020-06-23T14:52:27Z</time>
      </trkpt>
      <trkpt lat="50.90558" lon="2.7642">
        <ele>11</ele>
        <time>2020-06-23T14:52:28Z</time>
      </trkpt>
      <trkpt lat="50.90551" lon="2.76423">
        <ele>11</ele>
        <time>2020-06-23T14:52:29Z</time>
      </trkpt>
      <trkpt lat="50.90545" lon="2.76425">
        <ele>11</ele>
        <time>2020-06-23T14:52:30Z</time>
      </trkpt>
      <trkpt lat="50.90539" lon="2.76426">
        <ele>11</ele>
        <time>2020-06-23T14:52:31Z</time>
      </trkpt>
      <trkpt lat="50.90532" lon="2.76428">
        <ele>11</ele>
        <time>2020-06-23T14:52:32Z</time>
      </trkpt>
      <trkpt lat="50.90526" lon="2.76431">
        <ele>11</ele>
        <time>2020-06-23T14:52:33Z</time>
      </trkpt>
      <trkpt lat="50.9052" lon="2.76434">
        <ele>11</ele>
        <time>2020-06-23T14:52:34Z</time>
      </trkpt>
      <trkpt lat="50.90514" lon="2.76437">
        <ele>11</ele>
        <time>2020-06-23T14:52:35Z</time>
      </trkpt>
      <trkpt lat="50.90508" lon="2.76439">
        <ele>10.9</ele>
        <time>2020-06-23T14:52:36Z</time>
      </trkpt>
      <trkpt lat="50.90502" lon="2.76442">
        <ele>10.9</ele>
        <time>2020-06-23T14:52:37Z</time>
      </trkpt>
      <trkpt lat="50.90495" lon="2.76443">
        <ele>10.8</ele>
        <time>2020-06-23T14:52:38Z</time>
      </trkpt>
      <trkpt lat="50.90488" lon="2.76446">
        <ele>10.8</ele>
        <time>2020-06-23T14:52:39Z</time>
      </trkpt>
      <trkpt lat="50.90482" lon="2.7645">
        <ele>10.8</ele>
        <time>2020-06-23T14:52:40Z</time>
      </trkpt>
      <trkpt lat="50.90474" lon="2.76453">
        <ele>10.8</ele>
        <time>2020-06-23T14:52:41Z</time>
      </trkpt>
      <trkpt lat="50.90468" lon="2.76455">
        <ele>10.8</ele>
        <time>2020-06-23T14:52:42Z</time>
      </trkpt>
      <trkpt lat="50.90461" lon="2.76458">
        <ele>10.8</ele>
        <time>2020-06-23T14:52:43Z</time>
      </trkpt>
      <trkpt lat="50.90455" lon="2.7646">
        <ele>10.7</ele>
        <time>2020-06-23T14:52:44Z</time>
      </trkpt>
      <trkpt lat="50.90449" lon="2.76461">
        <ele>10.7</ele>
        <time>2020-06-23T14:52:45Z</time>
      </trkpt>
      <trkpt lat="50.90443" lon="2.76463">
        <ele>10.7</ele>
        <time>2020-06-23T14:52:46Z</time>
      </trkpt>
      <trkpt lat="50.90436" lon="2.76465">
        <ele>10.7</ele>
        <time>2020-06-23T14:52:47Z</time>
      </trkpt>
      <trkpt lat="50.90429" lon="2.76468">
        <ele>10.7</ele>
        <time>2020-06-23T14:52:48Z</time>
      </trkpt>
      <trkpt lat="50.90423" lon="2.7647">
        <ele>10.7</ele>
        <time>2020-06-23T14:52:49Z</time>
      </trkpt>
      <trkpt lat="50.90417" lon="2.76473">
        <ele>10.7</ele>
        <time>2020-06-23T14:52:50Z</time>
      </trkpt>
      <trkpt lat="50.9041" lon="2.76474">
        <ele>10.7</ele>
        <time>2020-06-23T14:52:51Z</time>
      </trkpt>
      <trkpt lat="50.90403" lon="2.76477">
        <ele>10.7</ele>
        <time>2020-06-23T14:52:52Z</time>
      </trkpt>
      <trkpt lat="50.90397" lon="2.7648">
        <ele>10.8</ele>
        <time>2020-06-23T14:52:53Z</time>
      </trkpt>
      <trkpt lat="50.90391" lon="2.76484">
        <ele>10.8</ele>
        <time>2020-06-23T14:52:54Z</time>
      </trkpt>
      <trkpt lat="50.90385" lon="2.76488">
        <ele>10.8</ele>
        <time>2020-06-23T14:52:55Z</time>
      </trkpt>
      <trkpt lat="50.90379" lon="2.76491">
        <ele>10.8</ele>
        <time>2020-06-23T14:52:56Z</time>
      </trkpt>
      <trkpt lat="50.90373" lon="2.76495">
        <ele>10.9</ele>
        <time>2020-06-23T14:52:57Z</time>
      </trkpt>
      <trkpt lat="50.90367" lon="2.76498">
        <ele>10.9</ele>
        <time>2020-06-23T14:52:58Z</time>
      </trkpt>
      <trkpt lat="50.90361" lon="2.76502">
        <ele>11</ele>
        <time>2020-06-23T14:52:59Z</time>
      </trkpt>
      <trkpt lat="50.90355" lon="2.76507">
        <ele>11</ele>
        <time>2020-06-23T14:53:00Z</time>
      </trkpt>
      <trkpt lat="50.90349" lon="2.76512">
        <ele>11.1</ele>
        <time>2020-06-23T14:53:01Z</time>
      </trkpt>
      <trkpt lat="50.90343" lon="2.76517">
        <ele>11.1</ele>
        <time>2020-06-23T14:53:02Z</time>
      </trkpt>
      <trkpt lat="50.90337" lon="2.76521">
        <ele>11.2</ele>
        <time>2020-06-23T14:53:03Z</time>
      </trkpt>
      <trkpt lat="50.90331" lon="2.76526">
        <ele>11.2</ele>
        <time>2020-06-23T14:53:04Z</time>
      </trkpt>
      <trkpt lat="50.90325" lon="2.76529">
        <ele>11.3</ele>
        <time>2020-06-23T14:53:05Z</time>
      </trkpt>
      <trkpt lat="50.90319" lon="2.76532">
        <ele>11.3</ele>
        <time>2020-06-23T14:53:06Z</time>
      </trkpt>
      <trkpt lat="50.90313" lon="2.76536">
        <ele>11.4</ele>
        <time>2020-06-23T14:53:07Z</time>
      </trkpt>
      <trkpt lat="50.90307" lon="2.76538">
        <ele>11.5</ele>
        <time>2020-06-23T14:53:08Z</time>
      </trkpt>
      <trkpt lat="50.90301" lon="2.7654">
        <ele>11.5</ele>
        <time>2020-06-23T14:53:09Z</time>
      </trkpt>
      <trkpt lat="50.90294" lon="2.76542">
        <ele>11.6</ele>
        <time>2020-06-23T14:53:10Z</time>
      </trkpt>
      <trkpt lat="50.90288" lon="2.76544">
        <ele>11.6</ele>
        <time>2020-06-23T14:53:11Z</time>
      </trkpt>
      <trkpt lat="50.90281" lon="2.76545">
        <ele>11.7</ele>
        <time>2020-06-23T14:53:12Z</time>
      </trkpt>
      <trkpt lat="50.90275" lon="2.76546">
        <ele>11.7</ele>
        <time>2020-06-23T14:53:13Z</time>
      </trkpt>
      <trkpt lat="50.90268" lon="2.76547">
        <ele>11.8</ele>
        <time>2020-06-23T14:53:14Z</time>
      </trkpt>
      <trkpt lat="50.90261" lon="2.76548">
        <ele>11.8</ele>
        <time>2020-06-23T14:53:15Z</time>
      </trkpt>
      <trkpt lat="50.90254" lon="2.76549">
        <ele>11.9</ele>
        <time>2020-06-23T14:53:16Z</time>
      </trkpt>
      <trkpt lat="50.90248" lon="2.76548">
        <ele>11.9</ele>
        <time>2020-06-23T14:53:17Z</time>
      </trkpt>
      <trkpt lat="50.90241" lon="2.76548">
        <ele>12</ele>
        <time>2020-06-23T14:53:18Z</time>
      </trkpt>
      <trkpt lat="50.90235" lon="2.76548">
        <ele>12.1</ele>
        <time>2020-06-23T14:53:19Z</time>
      </trkpt>
      <trkpt lat="50.90228" lon="2.7655">
        <ele>12.1</ele>
        <time>2020-06-23T14:53:20Z</time>
      </trkpt>
      <trkpt lat="50.90222" lon="2.76552">
        <ele>12</ele>
        <time>2020-06-23T14:53:21Z</time>
      </trkpt>
      <trkpt lat="50.90215" lon="2.76553">
        <ele>11.9</ele>
        <time>2020-06-23T14:53:22Z</time>
      </trkpt>
      <trkpt lat="50.90209" lon="2.76554">
        <ele>11.9</ele>
        <time>2020-06-23T14:53:23Z</time>
      </trkpt>
      <trkpt lat="50.90202" lon="2.76556">
        <ele>11.9</ele>
        <time>2020-06-23T14:53:24Z</time>
      </trkpt>
      <trkpt lat="50.90196" lon="2.76558">
        <ele>11.9</ele>
        <time>2020-06-23T14:53:25Z</time>
      </trkpt>
      <trkpt lat="50.90189" lon="2.76559">
        <ele>11.9</ele>
        <time>2020-06-23T14:53:26Z</time>
      </trkpt>
      <trkpt lat="50.90183" lon="2.76562">
        <ele>11.9</ele>
        <time>2020-06-23T14:53:27Z</time>
      </trkpt>
      <trkpt lat="50.90177" lon="2.76566">
        <ele>11.9</ele>
        <time>2020-06-23T14:53:28Z</time>
      </trkpt>
      <trkpt lat="50.90171" lon="2.76569">
        <ele>12</ele>
        <time>2020-06-23T14:53:29Z</time>
      </trkpt>
      <trkpt lat="50.90165" lon="2.76572">
        <ele>12</ele>
        <time>2020-06-23T14:53:30Z</time>
      </trkpt>
      <trkpt lat="50.90158" lon="2.76575">
        <ele>12</ele>
        <time>2020-06-23T14:53:31Z</time>
      </trkpt>
      <trkpt lat="50.90152" lon="2.7658">
        <ele>12</ele>
        <time>2020-06-23T14:53:32Z</time>
      </trkpt>
      <trkpt lat="50.90147" lon="2.76586">
        <ele>12.1</ele>
        <time>2020-06-23T14:53:33Z</time>
      </trkpt>
      <trkpt lat="50.9014" lon="2.7659">
        <ele>12.1</ele>
        <time>2020-06-23T14:53:34Z</time>
      </trkpt>
      <trkpt lat="50.90134" lon="2.76595">
        <ele>12.1</ele>
        <time>2020-06-23T14:53:35Z</time>
      </trkpt>
      <trkpt lat="50.90129" lon="2.76602">
        <ele>12.1</ele>
        <time>2020-06-23T14:53:36Z</time>
      </trkpt>
      <trkpt lat="50.90123" lon="2.76607">
        <ele>12.2</ele>
        <time>2020-06-23T14:53:37Z</time>
      </trkpt>
      <trkpt lat="50.90117" lon="2.76611">
        <ele>12.2</ele>
        <time>2020-06-23T14:53:38Z</time>
      </trkpt>
      <trkpt lat="50.90111" lon="2.76616">
        <ele>12.2</ele>
        <time>2020-06-23T14:53:39Z</time>
      </trkpt>
      <trkpt lat="50.90105" lon="2.7662">
        <ele>12.2</ele>
        <time>2020-06-23T14:53:40Z</time>
      </trkpt>
      <trkpt lat="50.90099" lon="2.76624">
        <ele>12.2</ele>
        <time>2020-06-23T14:53:41Z</time>
      </trkpt>
      <trkpt lat="50.90093" lon="2.76629">
        <ele>12.2</ele>
        <time>2020-06-23T14:53:42Z</time>
      </trkpt>
      <trkpt lat="50.90087" lon="2.76634">
        <ele>12.2</ele>
        <time>2020-06-23T14:53:43Z</time>
      </trkpt>
      <trkpt lat="50.90081" lon="2.76637">
        <ele>12.2</ele>
        <time>2020-06-23T14:53:44Z</time>
      </trkpt>
      <trkpt lat="50.90074" lon="2.76639">
        <ele>12.2</ele>
        <time>2020-06-23T14:53:45Z</time>
      </trkpt>
      <trkpt lat="50.90068" lon="2.76641">
        <ele>12.2</ele>
        <time>2020-06-23T14:53:46Z</time>
      </trkpt>
      <trkpt lat="50.90061" lon="2.76642">
        <ele>12.2</ele>
        <time>2020-06-23T14:53:47Z</time>
      </trkpt>
      <trkpt lat="50.90055" lon="2.76642">
        <ele>12.3</ele>
        <time>2020-06-23T14:53:48Z</time>
      </trkpt>
      <trkpt lat="50.90048" lon="2.76642">
        <ele>12.3</ele>
        <time>2020-06-23T14:53:49Z</time>
      </trkpt>
      <trkpt lat="50.90041" lon="2.76641">
        <ele>12.3</ele>
        <time>2020-06-23T14:53:50Z</time>
      </trkpt>
      <trkpt lat="50.90035" lon="2.76641">
        <ele>12.4</ele>
        <time>2020-06-23T14:53:51Z</time>
      </trkpt>
      <trkpt lat="50.90028" lon="2.76641">
        <ele>12.4</ele>
        <time>2020-06-23T14:53:52Z</time>
      </trkpt>
      <trkpt lat="50.90022" lon="2.76644">
        <ele>12.4</ele>
        <time>2020-06-23T14:53:53Z</time>
      </trkpt>
      <trkpt lat="50.90015" lon="2.76647">
        <ele>12.4</ele>
        <time>2020-06-23T14:53:54Z</time>
      </trkpt>
      <trkpt lat="50.90008" lon="2.7665">
        <ele>12.4</ele>
        <time>2020-06-23T14:53:55Z</time>
      </trkpt>
      <trkpt lat="50.90001" lon="2.76653">
        <ele>12.4</ele>
        <time>2020-06-23T14:53:56Z</time>
      </trkpt>
      <trkpt lat="50.89995" lon="2.76657">
        <ele>12.4</ele>
        <time>2020-06-23T14:53:57Z</time>
      </trkpt>
      <trkpt lat="50.89988" lon="2.76659">
        <ele>12.5</ele>
        <time>2020-06-23T14:53:58Z</time>
      </trkpt>
      <trkpt lat="50.89982" lon="2.76663">
        <ele>12.5</ele>
        <time>2020-06-23T14:53:59Z</time>
      </trkpt>
      <trkpt lat="50.89976" lon="2.76667">
        <ele>12.5</ele>
        <time>2020-06-23T14:54:00Z</time>
      </trkpt>
      <trkpt lat="50.89971" lon="2.76672">
        <ele>12.4</ele>
        <time>2020-06-23T14:54:01Z</time>
      </trkpt>
      <trkpt lat="50.89965" lon="2.76678">
        <ele>12.3</ele>
        <time>2020-06-23T14:54:02Z</time>
      </trkpt>
      <trkpt lat="50.8996" lon="2.76683">
        <ele>12.2</ele>
        <time>2020-06-23T14:54:03Z</time>
      </trkpt>
      <trkpt lat="50.89955" lon="2.76689">
        <ele>12.1</ele>
        <time>2020-06-23T14:54:04Z</time>
      </trkpt>
      <trkpt lat="50.8995" lon="2.76696">
        <ele>12.1</ele>
        <time>2020-06-23T14:54:05Z</time>
      </trkpt>
      <trkpt lat="50.89946" lon="2.76702">
        <ele>12</ele>
        <time>2020-06-23T14:54:06Z</time>
      </trkpt>
      <trkpt lat="50.89941" lon="2.76708">
        <ele>12</ele>
        <time>2020-06-23T14:54:07Z</time>
      </trkpt>
      <trkpt lat="50.89935" lon="2.76711">
        <ele>12</ele>
        <time>2020-06-23T14:54:08Z</time>
      </trkpt>
      <trkpt lat="50.89929" lon="2.76713">
        <ele>11.9</ele>
        <time>2020-06-23T14:54:09Z</time>
      </trkpt>
      <trkpt lat="50.89924" lon="2.76716">
        <ele>11.9</ele>
        <time>2020-06-23T14:54:10Z</time>
      </trkpt>
      <trkpt lat="50.89918" lon="2.76719">
        <ele>11.9</ele>
        <time>2020-06-23T14:54:11Z</time>
      </trkpt>
      <trkpt lat="50.89912" lon="2.76722">
        <ele>11.9</ele>
        <time>2020-06-23T14:54:12Z</time>
      </trkpt>
      <trkpt lat="50.89906" lon="2.76726">
        <ele>11.9</ele>
        <time>2020-06-23T14:54:13Z</time>
      </trkpt>
      <trkpt lat="50.89899" lon="2.76728">
        <ele>11.9</ele>
        <time>2020-06-23T14:54:14Z</time>
      </trkpt>
      <trkpt lat="50.89893" lon="2.76727">
        <ele>11.8</ele>
        <time>2020-06-23T14:54:15Z</time>
      </trkpt>
      <trkpt lat="50.89886" lon="2.76727">
        <ele>11.8</ele>
        <time>2020-06-23T14:54:16Z</time>
      </trkpt>
      <trkpt lat="50.8988" lon="2.76725">
        <ele>11.7</ele>
        <time>2020-06-23T14:54:17Z</time>
      </trkpt>
      <trkpt lat="50.89874" lon="2.76724">
        <ele>11.7</ele>
        <time>2020-06-23T14:54:18Z</time>
      </trkpt>
      <trkpt lat="50.89867" lon="2.76723">
        <ele>11.7</ele>
        <time>2020-06-23T14:54:19Z</time>
      </trkpt>
      <trkpt lat="50.89861" lon="2.76722">
        <ele>11.6</ele>
        <time>2020-06-23T14:54:20Z</time>
      </trkpt>
      <trkpt lat="50.89855" lon="2.76722">
        <ele>11.6</ele>
        <time>2020-06-23T14:54:21Z</time>
      </trkpt>
      <trkpt lat="50.89848" lon="2.76722">
        <ele>11.6</ele>
        <time>2020-06-23T14:54:22Z</time>
      </trkpt>
      <trkpt lat="50.89842" lon="2.76721">
        <ele>11.6</ele>
        <time>2020-06-23T14:54:23Z</time>
      </trkpt>
      <trkpt lat="50.89836" lon="2.76721">
        <ele>11.6</ele>
        <time>2020-06-23T14:54:24Z</time>
      </trkpt>
      <trkpt lat="50.8983" lon="2.76721">
        <ele>11.6</ele>
        <time>2020-06-23T14:54:25Z</time>
      </trkpt>
      <trkpt lat="50.89824" lon="2.76721">
        <ele>11.6</ele>
        <time>2020-06-23T14:54:26Z</time>
      </trkpt>
      <trkpt lat="50.89817" lon="2.76722">
        <ele>11.6</ele>
        <time>2020-06-23T14:54:27Z</time>
      </trkpt>
      <trkpt lat="50.89811" lon="2.76722">
        <ele>11.6</ele>
        <time>2020-06-23T14:54:28Z</time>
      </trkpt>
      <trkpt lat="50.89805" lon="2.76723">
        <ele>11.7</ele>
        <time>2020-06-23T14:54:29Z</time>
      </trkpt>
      <trkpt lat="50.89799" lon="2.76725">
        <ele>11.7</ele>
        <time>2020-06-23T14:54:30Z</time>
      </trkpt>
      <trkpt lat="50.89793" lon="2.76725">
        <ele>11.8</ele>
        <time>2020-06-23T14:54:31Z</time>
      </trkpt>
      <trkpt lat="50.89788" lon="2.76726">
        <ele>11.8</ele>
        <time>2020-06-23T14:54:32Z</time>
      </trkpt>
      <trkpt lat="50.89782" lon="2.76727">
        <ele>11.9</ele>
        <time>2020-06-23T14:54:33Z</time>
      </trkpt>
      <trkpt lat="50.89776" lon="2.76727">
        <ele>11.9</ele>
        <time>2020-06-23T14:54:34Z</time>
      </trkpt>
      <trkpt lat="50.8977" lon="2.76729">
        <ele>12</ele>
        <time>2020-06-23T14:54:35Z</time>
      </trkpt>
      <trkpt lat="50.89765" lon="2.76731">
        <ele>12</ele>
        <time>2020-06-23T14:54:36Z</time>
      </trkpt>
      <trkpt lat="50.8976" lon="2.76736">
        <ele>12.1</ele>
        <time>2020-06-23T14:54:37Z</time>
      </trkpt>
      <trkpt lat="50.89757" lon="2.76743">
        <ele>12.1</ele>
        <time>2020-06-23T14:54:38Z</time>
      </trkpt>
      <trkpt lat="50.89755" lon="2.76752">
        <ele>12.2</ele>
        <time>2020-06-23T14:54:39Z</time>
      </trkpt>
      <trkpt lat="50.89752" lon="2.76759">
        <ele>12.2</ele>
        <time>2020-06-23T14:54:40Z</time>
      </trkpt>
      <trkpt lat="50.89748" lon="2.76767">
        <ele>12.2</ele>
        <time>2020-06-23T14:54:41Z</time>
      </trkpt>
      <trkpt lat="50.89746" lon="2.76776">
        <ele>12.3</ele>
        <time>2020-06-23T14:54:42Z</time>
      </trkpt>
      <trkpt lat="50.89744" lon="2.76784">
        <ele>12.3</ele>
        <time>2020-06-23T14:54:43Z</time>
      </trkpt>
      <trkpt lat="50.89741" lon="2.76792">
        <ele>12.4</ele>
        <time>2020-06-23T14:54:44Z</time>
      </trkpt>
      <trkpt lat="50.89738" lon="2.768">
        <ele>12.4</ele>
        <time>2020-06-23T14:54:45Z</time>
      </trkpt>
      <trkpt lat="50.89735" lon="2.76808">
        <ele>12.5</ele>
        <time>2020-06-23T14:54:46Z</time>
      </trkpt>
      <trkpt lat="50.89733" lon="2.76816">
        <ele>12.6</ele>
        <time>2020-06-23T14:54:47Z</time>
      </trkpt>
      <trkpt lat="50.8973" lon="2.76823">
        <ele>12.6</ele>
        <time>2020-06-23T14:54:48Z</time>
      </trkpt>
      <trkpt lat="50.89726" lon="2.7683">
        <ele>12.7</ele>
        <time>2020-06-23T14:54:49Z</time>
      </trkpt>
      <trkpt lat="50.89722" lon="2.76837">
        <ele>12.7</ele>
        <time>2020-06-23T14:54:50Z</time>
      </trkpt>
      <trkpt lat="50.89718" lon="2.76843">
        <ele>12.8</ele>
        <time>2020-06-23T14:54:51Z</time>
      </trkpt>
      <trkpt lat="50.89714" lon="2.76849">
        <ele>12.8</ele>
        <time>2020-06-23T14:54:52Z</time>
      </trkpt>
      <trkpt lat="50.89709" lon="2.76853">
        <ele>12.9</ele>
        <time>2020-06-23T14:54:53Z</time>
      </trkpt>
      <trkpt lat="50.89704" lon="2.76858">
        <ele>13</ele>
        <time>2020-06-23T14:54:54Z</time>
      </trkpt>
      <trkpt lat="50.89699" lon="2.76863">
        <ele>13</ele>
        <time>2020-06-23T14:54:55Z</time>
      </trkpt>
      <trkpt lat="50.89693" lon="2.76865">
        <ele>13.1</ele>
        <time>2020-06-23T14:54:56Z</time>
      </trkpt>
      <trkpt lat="50.89686" lon="2.76869">
        <ele>13.2</ele>
        <time>2020-06-23T14:54:57Z</time>
      </trkpt>
      <trkpt lat="50.89681" lon="2.76872">
        <ele>13.2</ele>
        <time>2020-06-23T14:54:58Z</time>
      </trkpt>
      <trkpt lat="50.89674" lon="2.76875">
        <ele>13.3</ele>
        <time>2020-06-23T14:54:59Z</time>
      </trkpt>
      <trkpt lat="50.89668" lon="2.76878">
        <ele>13.3</ele>
        <time>2020-06-23T14:55:00Z</time>
      </trkpt>
      <trkpt lat="50.89662" lon="2.76881">
        <ele>13.4</ele>
        <time>2020-06-23T14:55:01Z</time>
      </trkpt>
      <trkpt lat="50.89657" lon="2.76884">
        <ele>13.5</ele>
        <time>2020-06-23T14:55:02Z</time>
      </trkpt>
      <trkpt lat="50.89652" lon="2.76888">
        <ele>13.5</ele>
        <time>2020-06-23T14:55:03Z</time>
      </trkpt>
      <trkpt lat="50.89648" lon="2.76891">
        <ele>13.5</ele>
        <time>2020-06-23T14:55:04Z</time>
      </trkpt>
      <trkpt lat="50.89643" lon="2.76894">
        <ele>13.6</ele>
        <time>2020-06-23T14:55:05Z</time>
      </trkpt>
      <trkpt lat="50.8964" lon="2.769">
        <ele>13.6</ele>
        <time>2020-06-23T14:55:06Z</time>
      </trkpt>
      <trkpt lat="50.89637" lon="2.76905">
        <ele>13.6</ele>
        <time>2020-06-23T14:55:07Z</time>
      </trkpt>
      <trkpt lat="50.89634" lon="2.76913">
        <ele>13.6</ele>
        <time>2020-06-23T14:55:08Z</time>
      </trkpt>
      <trkpt lat="50.89631" lon="2.76919">
        <ele>13.6</ele>
        <time>2020-06-23T14:55:09Z</time>
      </trkpt>
      <trkpt lat="50.89627" lon="2.76925">
        <ele>13.6</ele>
        <time>2020-06-23T14:55:10Z</time>
      </trkpt>
      <trkpt lat="50.89624" lon="2.76931">
        <ele>13.7</ele>
        <time>2020-06-23T14:55:11Z</time>
      </trkpt>
      <trkpt lat="50.89621" lon="2.76937">
        <ele>13.7</ele>
        <time>2020-06-23T14:55:12Z</time>
      </trkpt>
      <trkpt lat="50.89617" lon="2.76943">
        <ele>13.8</ele>
        <time>2020-06-23T14:55:13Z</time>
      </trkpt>
      <trkpt lat="50.89613" lon="2.7695">
        <ele>13.8</ele>
        <time>2020-06-23T14:55:14Z</time>
      </trkpt>
      <trkpt lat="50.89611" lon="2.76957">
        <ele>13.9</ele>
        <time>2020-06-23T14:55:15Z</time>
      </trkpt>
      <trkpt lat="50.89607" lon="2.76964">
        <ele>13.9</ele>
        <time>2020-06-23T14:55:16Z</time>
      </trkpt>
      <trkpt lat="50.89604" lon="2.7697">
        <ele>14</ele>
        <time>2020-06-23T14:55:17Z</time>
      </trkpt>
      <trkpt lat="50.89601" lon="2.76974">
        <ele>14</ele>
        <time>2020-06-23T14:55:18Z</time>
      </trkpt>
      <trkpt lat="50.89598" lon="2.76977">
        <ele>14</ele>
        <time>2020-06-23T14:55:19Z</time>
      </trkpt>
      <trkpt lat="50.89594" lon="2.76981">
        <ele>14</ele>
        <time>2020-06-23T14:55:20Z</time>
      </trkpt>
      <trkpt lat="50.89589" lon="2.76985">
        <ele>14.1</ele>
        <time>2020-06-23T14:55:21Z</time>
      </trkpt>
      <trkpt lat="50.89583" lon="2.76989">
        <ele>14.1</ele>
        <time>2020-06-23T14:55:22Z</time>
      </trkpt>
      <trkpt lat="50.89578" lon="2.76991">
        <ele>14.1</ele>
        <time>2020-06-23T14:55:23Z</time>
      </trkpt>
      <trkpt lat="50.89573" lon="2.76994">
        <ele>14.2</ele>
        <time>2020-06-23T14:55:24Z</time>
      </trkpt>
      <trkpt lat="50.89568" lon="2.76997">
        <ele>14.2</ele>
        <time>2020-06-23T14:55:25Z</time>
      </trkpt>
      <trkpt lat="50.89564" lon="2.77">
        <ele>14.2</ele>
        <time>2020-06-23T14:55:26Z</time>
      </trkpt>
      <trkpt lat="50.89559" lon="2.77003">
        <ele>14.3</ele>
        <time>2020-06-23T14:55:27Z</time>
      </trkpt>
      <trkpt lat="50.89553" lon="2.77008">
        <ele>14.3</ele>
        <time>2020-06-23T14:55:28Z</time>
      </trkpt>
      <trkpt lat="50.89549" lon="2.77012">
        <ele>14.4</ele>
        <time>2020-06-23T14:55:29Z</time>
      </trkpt>
      <trkpt lat="50.89544" lon="2.77015">
        <ele>14.5</ele>
        <time>2020-06-23T14:55:30Z</time>
      </trkpt>
      <trkpt lat="50.89539" lon="2.77019">
        <ele>14.5</ele>
        <time>2020-06-23T14:55:31Z</time>
      </trkpt>
      <trkpt lat="50.89534" lon="2.77024">
        <ele>14.6</ele>
        <time>2020-06-23T14:55:32Z</time>
      </trkpt>
      <trkpt lat="50.89529" lon="2.77028">
        <ele>14.7</ele>
        <time>2020-06-23T14:55:33Z</time>
      </trkpt>
      <trkpt lat="50.89524" lon="2.77034">
        <ele>14.7</ele>
        <time>2020-06-23T14:55:34Z</time>
      </trkpt>
      <trkpt lat="50.8952" lon="2.7704">
        <ele>14.8</ele>
        <time>2020-06-23T14:55:35Z</time>
      </trkpt>
      <trkpt lat="50.89515" lon="2.77044">
        <ele>14.8</ele>
        <time>2020-06-23T14:55:36Z</time>
      </trkpt>
      <trkpt lat="50.8951" lon="2.77047">
        <ele>14.9</ele>
        <time>2020-06-23T14:55:37Z</time>
      </trkpt>
      <trkpt lat="50.89506" lon="2.77051">
        <ele>14.9</ele>
        <time>2020-06-23T14:55:38Z</time>
      </trkpt>
      <trkpt lat="50.89502" lon="2.77055">
        <ele>15</ele>
        <time>2020-06-23T14:55:39Z</time>
      </trkpt>
      <trkpt lat="50.89498" lon="2.77059">
        <ele>15</ele>
        <time>2020-06-23T14:55:40Z</time>
      </trkpt>
      <trkpt lat="50.89492" lon="2.77065">
        <ele>15.1</ele>
        <time>2020-06-23T14:55:41Z</time>
      </trkpt>
      <trkpt lat="50.89487" lon="2.7707">
        <ele>15.1</ele>
        <time>2020-06-23T14:55:42Z</time>
      </trkpt>
      <trkpt lat="50.89483" lon="2.77076">
        <ele>15.1</ele>
        <time>2020-06-23T14:55:43Z</time>
      </trkpt>
      <trkpt lat="50.89479" lon="2.77081">
        <ele>15.1</ele>
        <time>2020-06-23T14:55:44Z</time>
      </trkpt>
      <trkpt lat="50.89475" lon="2.77085">
        <ele>15.1</ele>
        <time>2020-06-23T14:55:45Z</time>
      </trkpt>
      <trkpt lat="50.89471" lon="2.77089">
        <ele>15.1</ele>
        <time>2020-06-23T14:55:46Z</time>
      </trkpt>
      <trkpt lat="50.89467" lon="2.77094">
        <ele>15</ele>
        <time>2020-06-23T14:55:47Z</time>
      </trkpt>
      <trkpt lat="50.89463" lon="2.771">
        <ele>15</ele>
        <time>2020-06-23T14:55:48Z</time>
      </trkpt>
      <trkpt lat="50.89459" lon="2.77104">
        <ele>15</ele>
        <time>2020-06-23T14:55:49Z</time>
      </trkpt>
      <trkpt lat="50.89454" lon="2.7711">
        <ele>15.1</ele>
        <time>2020-06-23T14:55:50Z</time>
      </trkpt>
      <trkpt lat="50.89449" lon="2.77114">
        <ele>15.1</ele>
        <time>2020-06-23T14:55:51Z</time>
      </trkpt>
      <trkpt lat="50.89445" lon="2.77119">
        <ele>15.2</ele>
        <time>2020-06-23T14:55:52Z</time>
      </trkpt>
      <trkpt lat="50.8944" lon="2.77123">
        <ele>15.2</ele>
        <time>2020-06-23T14:55:53Z</time>
      </trkpt>
      <trkpt lat="50.89435" lon="2.77127">
        <ele>15.3</ele>
        <time>2020-06-23T14:55:54Z</time>
      </trkpt>
      <trkpt lat="50.89429" lon="2.77132">
        <ele>15.3</ele>
        <time>2020-06-23T14:55:55Z</time>
      </trkpt>
      <trkpt lat="50.89424" lon="2.77136">
        <ele>15.4</ele>
        <time>2020-06-23T14:55:56Z</time>
      </trkpt>
      <trkpt lat="50.8942" lon="2.77142">
        <ele>15.5</ele>
        <time>2020-06-23T14:55:57Z</time>
      </trkpt>
      <trkpt lat="50.89415" lon="2.77145">
        <ele>15.5</ele>
        <time>2020-06-23T14:55:58Z</time>
      </trkpt>
      <trkpt lat="50.8941" lon="2.7715">
        <ele>15.6</ele>
        <time>2020-06-23T14:55:59Z</time>
      </trkpt>
      <trkpt lat="50.89406" lon="2.77154">
        <ele>15.7</ele>
        <time>2020-06-23T14:56:00Z</time>
      </trkpt>
      <trkpt lat="50.89401" lon="2.77159">
        <ele>15.8</ele>
        <time>2020-06-23T14:56:01Z</time>
      </trkpt>
      <trkpt lat="50.89397" lon="2.77163">
        <ele>15.9</ele>
        <time>2020-06-23T14:56:02Z</time>
      </trkpt>
      <trkpt lat="50.89392" lon="2.77167">
        <ele>16</ele>
        <time>2020-06-23T14:56:03Z</time>
      </trkpt>
      <trkpt lat="50.89387" lon="2.77171">
        <ele>16.1</ele>
        <time>2020-06-23T14:56:04Z</time>
      </trkpt>
      <trkpt lat="50.89382" lon="2.77176">
        <ele>16.2</ele>
        <time>2020-06-23T14:56:05Z</time>
      </trkpt>
      <trkpt lat="50.89378" lon="2.77181">
        <ele>16.3</ele>
        <time>2020-06-23T14:56:06Z</time>
      </trkpt>
      <trkpt lat="50.89373" lon="2.77186">
        <ele>16.4</ele>
        <time>2020-06-23T14:56:07Z</time>
      </trkpt>
      <trkpt lat="50.89369" lon="2.7719">
        <ele>16.5</ele>
        <time>2020-06-23T14:56:08Z</time>
      </trkpt>
      <trkpt lat="50.89365" lon="2.77195">
        <ele>16.6</ele>
        <time>2020-06-23T14:56:09Z</time>
      </trkpt>
      <trkpt lat="50.8936" lon="2.77199">
        <ele>16.7</ele>
        <time>2020-06-23T14:56:10Z</time>
      </trkpt>
      <trkpt lat="50.89356" lon="2.77204">
        <ele>16.8</ele>
        <time>2020-06-23T14:56:11Z</time>
      </trkpt>
      <trkpt lat="50.89352" lon="2.77209">
        <ele>16.9</ele>
        <time>2020-06-23T14:56:12Z</time>
      </trkpt>
      <trkpt lat="50.89348" lon="2.77213">
        <ele>17</ele>
        <time>2020-06-23T14:56:13Z</time>
      </trkpt>
      <trkpt lat="50.89342" lon="2.77218">
        <ele>17.1</ele>
        <time>2020-06-23T14:56:14Z</time>
      </trkpt>
      <trkpt lat="50.89337" lon="2.77223">
        <ele>17.2</ele>
        <time>2020-06-23T14:56:15Z</time>
      </trkpt>
      <trkpt lat="50.89333" lon="2.77227">
        <ele>17.3</ele>
        <time>2020-06-23T14:56:16Z</time>
      </trkpt>
      <trkpt lat="50.89328" lon="2.77232">
        <ele>17.4</ele>
        <time>2020-06-23T14:56:17Z</time>
      </trkpt>
      <trkpt lat="50.89323" lon="2.77238">
        <ele>17.5</ele>
        <time>2020-06-23T14:56:18Z</time>
      </trkpt>
      <trkpt lat="50.89318" lon="2.77244">
        <ele>17.6</ele>
        <time>2020-06-23T14:56:19Z</time>
      </trkpt>
      <trkpt lat="50.89314" lon="2.77249">
        <ele>17.7</ele>
        <time>2020-06-23T14:56:20Z</time>
      </trkpt>
      <trkpt lat="50.8931" lon="2.77254">
        <ele>17.7</ele>
        <time>2020-06-23T14:56:21Z</time>
      </trkpt>
      <trkpt lat="50.89306" lon="2.77261">
        <ele>17.8</ele>
        <time>2020-06-23T14:56:22Z</time>
      </trkpt>
      <trkpt lat="50.89302" lon="2.77266">
        <ele>17.8</ele>
        <time>2020-06-23T14:56:23Z</time>
      </trkpt>
      <trkpt lat="50.89299" lon="2.77272">
        <ele>17.9</ele>
        <time>2020-06-23T14:56:24Z</time>
      </trkpt>
      <trkpt lat="50.89294" lon="2.77278">
        <ele>17.9</ele>
        <time>2020-06-23T14:56:25Z</time>
      </trkpt>
      <trkpt lat="50.89289" lon="2.77282">
        <ele>17.9</ele>
        <time>2020-06-23T14:56:26Z</time>
      </trkpt>
      <trkpt lat="50.89284" lon="2.77287">
        <ele>18</ele>
        <time>2020-06-23T14:56:27Z</time>
      </trkpt>
      <trkpt lat="50.89279" lon="2.77293">
        <ele>18</ele>
        <time>2020-06-23T14:56:28Z</time>
      </trkpt>
      <trkpt lat="50.89274" lon="2.77298">
        <ele>18</ele>
        <time>2020-06-23T14:56:29Z</time>
      </trkpt>
      <trkpt lat="50.89269" lon="2.77304">
        <ele>18</ele>
        <time>2020-06-23T14:56:30Z</time>
      </trkpt>
      <trkpt lat="50.89264" lon="2.77309">
        <ele>18</ele>
        <time>2020-06-23T14:56:31Z</time>
      </trkpt>
      <trkpt lat="50.8926" lon="2.77315">
        <ele>18</ele>
        <time>2020-06-23T14:56:32Z</time>
      </trkpt>
      <trkpt lat="50.89255" lon="2.77321">
        <ele>18.1</ele>
        <time>2020-06-23T14:56:33Z</time>
      </trkpt>
      <trkpt lat="50.8925" lon="2.77328">
        <ele>18.1</ele>
        <time>2020-06-23T14:56:34Z</time>
      </trkpt>
      <trkpt lat="50.89244" lon="2.77335">
        <ele>18.2</ele>
        <time>2020-06-23T14:56:35Z</time>
      </trkpt>
      <trkpt lat="50.8924" lon="2.77341">
        <ele>18.3</ele>
        <time>2020-06-23T14:56:36Z</time>
      </trkpt>
      <trkpt lat="50.89234" lon="2.77346">
        <ele>18.4</ele>
        <time>2020-06-23T14:56:37Z</time>
      </trkpt>
      <trkpt lat="50.8923" lon="2.77351">
        <ele>18.4</ele>
        <time>2020-06-23T14:56:38Z</time>
      </trkpt>
      <trkpt lat="50.89224" lon="2.77356">
        <ele>18.5</ele>
        <time>2020-06-23T14:56:39Z</time>
      </trkpt>
      <trkpt lat="50.8922" lon="2.77361">
        <ele>18.6</ele>
        <time>2020-06-23T14:56:40Z</time>
      </trkpt>
      <trkpt lat="50.89217" lon="2.77366">
        <ele>18.7</ele>
        <time>2020-06-23T14:56:41Z</time>
      </trkpt>
      <trkpt lat="50.89213" lon="2.77371">
        <ele>18.8</ele>
        <time>2020-06-23T14:56:42Z</time>
      </trkpt>
      <trkpt lat="50.8921" lon="2.77375">
        <ele>18.8</ele>
        <time>2020-06-23T14:56:43Z</time>
      </trkpt>
      <trkpt lat="50.89205" lon="2.77379">
        <ele>18.8</ele>
        <time>2020-06-23T14:56:44Z</time>
      </trkpt>
      <trkpt lat="50.89202" lon="2.77384">
        <ele>18.7</ele>
        <time>2020-06-23T14:56:45Z</time>
      </trkpt>
      <trkpt lat="50.89198" lon="2.77388">
        <ele>18.6</ele>
        <time>2020-06-23T14:56:46Z</time>
      </trkpt>
      <trkpt lat="50.89194" lon="2.77392">
        <ele>18.5</ele>
        <time>2020-06-23T14:56:47Z</time>
      </trkpt>
      <trkpt lat="50.8919" lon="2.77396">
        <ele>18.3</ele>
        <time>2020-06-23T14:56:48Z</time>
      </trkpt>
      <trkpt lat="50.89186" lon="2.77401">
        <ele>18.2</ele>
        <time>2020-06-23T14:56:49Z</time>
      </trkpt>
      <trkpt lat="50.89182" lon="2.77407">
        <ele>18.1</ele>
        <time>2020-06-23T14:56:50Z</time>
      </trkpt>
      <trkpt lat="50.89177" lon="2.77412">
        <ele>17.9</ele>
        <time>2020-06-23T14:56:51Z</time>
      </trkpt>
      <trkpt lat="50.89172" lon="2.77418">
        <ele>17.8</ele>
        <time>2020-06-23T14:56:52Z</time>
      </trkpt>
      <trkpt lat="50.89168" lon="2.77423">
        <ele>17.8</ele>
        <time>2020-06-23T14:56:53Z</time>
      </trkpt>
      <trkpt lat="50.89164" lon="2.77429">
        <ele>17.7</ele>
        <time>2020-06-23T14:56:54Z</time>
      </trkpt>
      <trkpt lat="50.89161" lon="2.77435">
        <ele>17.6</ele>
        <time>2020-06-23T14:56:55Z</time>
      </trkpt>
      <trkpt lat="50.89157" lon="2.7744">
        <ele>17.6</ele>
        <time>2020-06-23T14:56:56Z</time>
      </trkpt>
      <trkpt lat="50.89154" lon="2.77446">
        <ele>17.5</ele>
        <time>2020-06-23T14:56:57Z</time>
      </trkpt>
      <trkpt lat="50.8915" lon="2.77454">
        <ele>17.4</ele>
        <time>2020-06-23T14:56:58Z</time>
      </trkpt>
      <trkpt lat="50.89146" lon="2.77462">
        <ele>17.3</ele>
        <time>2020-06-23T14:56:59Z</time>
      </trkpt>
      <trkpt lat="50.89142" lon="2.77469">
        <ele>17.2</ele>
        <time>2020-06-23T14:57:00Z</time>
      </trkpt>
      <trkpt lat="50.89138" lon="2.77477">
        <ele>17.1</ele>
        <time>2020-06-23T14:57:01Z</time>
      </trkpt>
      <trkpt lat="50.89134" lon="2.77484">
        <ele>17.1</ele>
        <time>2020-06-23T14:57:02Z</time>
      </trkpt>
      <trkpt lat="50.89129" lon="2.77492">
        <ele>17</ele>
        <time>2020-06-23T14:57:03Z</time>
      </trkpt>
      <trkpt lat="50.89125" lon="2.77499">
        <ele>17</ele>
        <time>2020-06-23T14:57:04Z</time>
      </trkpt>
      <trkpt lat="50.89122" lon="2.77507">
        <ele>16.9</ele>
        <time>2020-06-23T14:57:05Z</time>
      </trkpt>
      <trkpt lat="50.89118" lon="2.77515">
        <ele>16.9</ele>
        <time>2020-06-23T14:57:06Z</time>
      </trkpt>
      <trkpt lat="50.89114" lon="2.77523">
        <ele>16.9</ele>
        <time>2020-06-23T14:57:07Z</time>
      </trkpt>
      <trkpt lat="50.89111" lon="2.77531">
        <ele>16.9</ele>
        <time>2020-06-23T14:57:08Z</time>
      </trkpt>
      <trkpt lat="50.89107" lon="2.7754">
        <ele>16.8</ele>
        <time>2020-06-23T14:57:09Z</time>
      </trkpt>
      <trkpt lat="50.89103" lon="2.77549">
        <ele>16.8</ele>
        <time>2020-06-23T14:57:10Z</time>
      </trkpt>
      <trkpt lat="50.89099" lon="2.77558">
        <ele>16.7</ele>
        <time>2020-06-23T14:57:11Z</time>
      </trkpt>
      <trkpt lat="50.89095" lon="2.77569">
        <ele>16.6</ele>
        <time>2020-06-23T14:57:12Z</time>
      </trkpt>
      <trkpt lat="50.89091" lon="2.77579">
        <ele>16.5</ele>
        <time>2020-06-23T14:57:13Z</time>
      </trkpt>
      <trkpt lat="50.89088" lon="2.77588">
        <ele>16.4</ele>
        <time>2020-06-23T14:57:14Z</time>
      </trkpt>
      <trkpt lat="50.89085" lon="2.77596">
        <ele>16.3</ele>
        <time>2020-06-23T14:57:15Z</time>
      </trkpt>
      <trkpt lat="50.89082" lon="2.77606">
        <ele>16.2</ele>
        <time>2020-06-23T14:57:16Z</time>
      </trkpt>
      <trkpt lat="50.89078" lon="2.77615">
        <ele>16.1</ele>
        <time>2020-06-23T14:57:17Z</time>
      </trkpt>
      <trkpt lat="50.89075" lon="2.77625">
        <ele>16.1</ele>
        <time>2020-06-23T14:57:18Z</time>
      </trkpt>
      <trkpt lat="50.89072" lon="2.77634">
        <ele>16</ele>
        <time>2020-06-23T14:57:19Z</time>
      </trkpt>
      <trkpt lat="50.89068" lon="2.77643">
        <ele>16</ele>
        <time>2020-06-23T14:57:20Z</time>
      </trkpt>
      <trkpt lat="50.89064" lon="2.77652">
        <ele>16</ele>
        <time>2020-06-23T14:57:21Z</time>
      </trkpt>
      <trkpt lat="50.8906" lon="2.7766">
        <ele>16</ele>
        <time>2020-06-23T14:57:22Z</time>
      </trkpt>
      <trkpt lat="50.89055" lon="2.77668">
        <ele>15.9</ele>
        <time>2020-06-23T14:57:23Z</time>
      </trkpt>
      <trkpt lat="50.89051" lon="2.77676">
        <ele>15.9</ele>
        <time>2020-06-23T14:57:24Z</time>
      </trkpt>
      <trkpt lat="50.89046" lon="2.77683">
        <ele>15.8</ele>
        <time>2020-06-23T14:57:25Z</time>
      </trkpt>
      <trkpt lat="50.89041" lon="2.7769">
        <ele>15.7</ele>
        <time>2020-06-23T14:57:26Z</time>
      </trkpt>
      <trkpt lat="50.89036" lon="2.77697">
        <ele>15.6</ele>
        <time>2020-06-23T14:57:27Z</time>
      </trkpt>
      <trkpt lat="50.89031" lon="2.77704">
        <ele>15.5</ele>
        <time>2020-06-23T14:57:28Z</time>
      </trkpt>
      <trkpt lat="50.89027" lon="2.77712">
        <ele>15.4</ele>
        <time>2020-06-23T14:57:29Z</time>
      </trkpt>
      <trkpt lat="50.89022" lon="2.77721">
        <ele>15.3</ele>
        <time>2020-06-23T14:57:30Z</time>
      </trkpt>
      <trkpt lat="50.89018" lon="2.77731">
        <ele>15.2</ele>
        <time>2020-06-23T14:57:31Z</time>
      </trkpt>
      <trkpt lat="50.89015" lon="2.7774">
        <ele>15.2</ele>
        <time>2020-06-23T14:57:32Z</time>
      </trkpt>
      <trkpt lat="50.89011" lon="2.7775">
        <ele>15.2</ele>
        <time>2020-06-23T14:57:33Z</time>
      </trkpt>
      <trkpt lat="50.89009" lon="2.7776">
        <ele>15.1</ele>
        <time>2020-06-23T14:57:34Z</time>
      </trkpt>
      <trkpt lat="50.89006" lon="2.77771">
        <ele>15.1</ele>
        <time>2020-06-23T14:57:35Z</time>
      </trkpt>
      <trkpt lat="50.89005" lon="2.77781">
        <ele>15.1</ele>
        <time>2020-06-23T14:57:36Z</time>
      </trkpt>
      <trkpt lat="50.89003" lon="2.77791">
        <ele>15.1</ele>
        <time>2020-06-23T14:57:37Z</time>
      </trkpt>
      <trkpt lat="50.89001" lon="2.77802">
        <ele>15</ele>
        <time>2020-06-23T14:57:38Z</time>
      </trkpt>
      <trkpt lat="50.88999" lon="2.77812">
        <ele>15</ele>
        <time>2020-06-23T14:57:39Z</time>
      </trkpt>
      <trkpt lat="50.88997" lon="2.77822">
        <ele>14.9</ele>
        <time>2020-06-23T14:57:40Z</time>
      </trkpt>
      <trkpt lat="50.88994" lon="2.77832">
        <ele>14.7</ele>
        <time>2020-06-23T14:57:41Z</time>
      </trkpt>
      <trkpt lat="50.88991" lon="2.77842">
        <ele>14.6</ele>
        <time>2020-06-23T14:57:42Z</time>
      </trkpt>
      <trkpt lat="50.88988" lon="2.77851">
        <ele>14.5</ele>
        <time>2020-06-23T14:57:43Z</time>
      </trkpt>
      <trkpt lat="50.88985" lon="2.77859">
        <ele>14.5</ele>
        <time>2020-06-23T14:57:44Z</time>
      </trkpt>
      <trkpt lat="50.88981" lon="2.77868">
        <ele>14.4</ele>
        <time>2020-06-23T14:57:45Z</time>
      </trkpt>
      <trkpt lat="50.88977" lon="2.77876">
        <ele>14.4</ele>
        <time>2020-06-23T14:57:46Z</time>
      </trkpt>
      <trkpt lat="50.88974" lon="2.77884">
        <ele>14.4</ele>
        <time>2020-06-23T14:57:47Z</time>
      </trkpt>
      <trkpt lat="50.8897" lon="2.77893">
        <ele>14.3</ele>
        <time>2020-06-23T14:57:48Z</time>
      </trkpt>
      <trkpt lat="50.88966" lon="2.77901">
        <ele>14.3</ele>
        <time>2020-06-23T14:57:49Z</time>
      </trkpt>
      <trkpt lat="50.88962" lon="2.77909">
        <ele>14.3</ele>
        <time>2020-06-23T14:57:50Z</time>
      </trkpt>
      <trkpt lat="50.88958" lon="2.77917">
        <ele>14.2</ele>
        <time>2020-06-23T14:57:51Z</time>
      </trkpt>
      <trkpt lat="50.88953" lon="2.77926">
        <ele>14.2</ele>
        <time>2020-06-23T14:57:52Z</time>
      </trkpt>
      <trkpt lat="50.88949" lon="2.77934">
        <ele>14.2</ele>
        <time>2020-06-23T14:57:53Z</time>
      </trkpt>
      <trkpt lat="50.88945" lon="2.77942">
        <ele>14.1</ele>
        <time>2020-06-23T14:57:54Z</time>
      </trkpt>
      <trkpt lat="50.8894" lon="2.77949">
        <ele>14.1</ele>
        <time>2020-06-23T14:57:55Z</time>
      </trkpt>
      <trkpt lat="50.88935" lon="2.77956">
        <ele>14.1</ele>
        <time>2020-06-23T14:57:56Z</time>
      </trkpt>
      <trkpt lat="50.8893" lon="2.77963">
        <ele>14.1</ele>
        <time>2020-06-23T14:57:57Z</time>
      </trkpt>
      <trkpt lat="50.88925" lon="2.7797">
        <ele>14.1</ele>
        <time>2020-06-23T14:57:58Z</time>
      </trkpt>
      <trkpt lat="50.88921" lon="2.77977">
        <ele>14.1</ele>
        <time>2020-06-23T14:57:59Z</time>
      </trkpt>
      <trkpt lat="50.88916" lon="2.77983">
        <ele>14.1</ele>
        <time>2020-06-23T14:58:00Z</time>
      </trkpt>
      <trkpt lat="50.88911" lon="2.7799">
        <ele>14</ele>
        <time>2020-06-23T14:58:01Z</time>
      </trkpt>
      <trkpt lat="50.88905" lon="2.77996">
        <ele>14</ele>
        <time>2020-06-23T14:58:02Z</time>
      </trkpt>
      <trkpt lat="50.88901" lon="2.78003">
        <ele>14</ele>
        <time>2020-06-23T14:58:03Z</time>
      </trkpt>
      <trkpt lat="50.88896" lon="2.7801">
        <ele>14</ele>
        <time>2020-06-23T14:58:04Z</time>
      </trkpt>
      <trkpt lat="50.88891" lon="2.78016">
        <ele>14</ele>
        <time>2020-06-23T14:58:05Z</time>
      </trkpt>
      <trkpt lat="50.88887" lon="2.78022">
        <ele>14</ele>
        <time>2020-06-23T14:58:06Z</time>
      </trkpt>
      <trkpt lat="50.88883" lon="2.78029">
        <ele>13.9</ele>
        <time>2020-06-23T14:58:07Z</time>
      </trkpt>
      <trkpt lat="50.88879" lon="2.78036">
        <ele>13.9</ele>
        <time>2020-06-23T14:58:08Z</time>
      </trkpt>
      <trkpt lat="50.88874" lon="2.78043">
        <ele>13.9</ele>
        <time>2020-06-23T14:58:09Z</time>
      </trkpt>
      <trkpt lat="50.88869" lon="2.7805">
        <ele>13.8</ele>
        <time>2020-06-23T14:58:10Z</time>
      </trkpt>
      <trkpt lat="50.88865" lon="2.78057">
        <ele>13.8</ele>
        <time>2020-06-23T14:58:11Z</time>
      </trkpt>
      <trkpt lat="50.88861" lon="2.78064">
        <ele>13.7</ele>
        <time>2020-06-23T14:58:12Z</time>
      </trkpt>
      <trkpt lat="50.88857" lon="2.78071">
        <ele>13.7</ele>
        <time>2020-06-23T14:58:13Z</time>
      </trkpt>
      <trkpt lat="50.88852" lon="2.78078">
        <ele>13.6</ele>
        <time>2020-06-23T14:58:14Z</time>
      </trkpt>
      <trkpt lat="50.88847" lon="2.78086">
        <ele>13.6</ele>
        <time>2020-06-23T14:58:15Z</time>
      </trkpt>
      <trkpt lat="50.88842" lon="2.78093">
        <ele>13.5</ele>
        <time>2020-06-23T14:58:16Z</time>
      </trkpt>
      <trkpt lat="50.88837" lon="2.78101">
        <ele>13.4</ele>
        <time>2020-06-23T14:58:17Z</time>
      </trkpt>
      <trkpt lat="50.88833" lon="2.78108">
        <ele>13.4</ele>
        <time>2020-06-23T14:58:18Z</time>
      </trkpt>
      <trkpt lat="50.88828" lon="2.78115">
        <ele>13.3</ele>
        <time>2020-06-23T14:58:19Z</time>
      </trkpt>
      <trkpt lat="50.88823" lon="2.78122">
        <ele>13.3</ele>
        <time>2020-06-23T14:58:20Z</time>
      </trkpt>
      <trkpt lat="50.88819" lon="2.78128">
        <ele>13.2</ele>
        <time>2020-06-23T14:58:21Z</time>
      </trkpt>
      <trkpt lat="50.88815" lon="2.78135">
        <ele>13.2</ele>
        <time>2020-06-23T14:58:22Z</time>
      </trkpt>
      <trkpt lat="50.8881" lon="2.78142">
        <ele>13.2</ele>
        <time>2020-06-23T14:58:23Z</time>
      </trkpt>
      <trkpt lat="50.88806" lon="2.78149">
        <ele>13.2</ele>
        <time>2020-06-23T14:58:24Z</time>
      </trkpt>
      <trkpt lat="50.88801" lon="2.78156">
        <ele>13.1</ele>
        <time>2020-06-23T14:58:25Z</time>
      </trkpt>
      <trkpt lat="50.88797" lon="2.78163">
        <ele>13.1</ele>
        <time>2020-06-23T14:58:26Z</time>
      </trkpt>
      <trkpt lat="50.88794" lon="2.78172">
        <ele>13</ele>
        <time>2020-06-23T14:58:27Z</time>
      </trkpt>
      <trkpt lat="50.8879" lon="2.78179">
        <ele>13</ele>
        <time>2020-06-23T14:58:28Z</time>
      </trkpt>
      <trkpt lat="50.88787" lon="2.78187">
        <ele>12.9</ele>
        <time>2020-06-23T14:58:29Z</time>
      </trkpt>
      <trkpt lat="50.88784" lon="2.78198">
        <ele>12.8</ele>
        <time>2020-06-23T14:58:30Z</time>
      </trkpt>
      <trkpt lat="50.88783" lon="2.78209">
        <ele>12.7</ele>
        <time>2020-06-23T14:58:31Z</time>
      </trkpt>
      <trkpt lat="50.88781" lon="2.7822">
        <ele>12.6</ele>
        <time>2020-06-23T14:58:32Z</time>
      </trkpt>
      <trkpt lat="50.88779" lon="2.7823">
        <ele>12.6</ele>
        <time>2020-06-23T14:58:33Z</time>
      </trkpt>
      <trkpt lat="50.88777" lon="2.78238">
        <ele>12.5</ele>
        <time>2020-06-23T14:58:34Z</time>
      </trkpt>
      <trkpt lat="50.88773" lon="2.78247">
        <ele>12.5</ele>
        <time>2020-06-23T14:58:35Z</time>
      </trkpt>
      <trkpt lat="50.8877" lon="2.78254">
        <ele>12.4</ele>
        <time>2020-06-23T14:58:36Z</time>
      </trkpt>
      <trkpt lat="50.88765" lon="2.78261">
        <ele>12.3</ele>
        <time>2020-06-23T14:58:37Z</time>
      </trkpt>
      <trkpt lat="50.8876" lon="2.78268">
        <ele>12.3</ele>
        <time>2020-06-23T14:58:38Z</time>
      </trkpt>
      <trkpt lat="50.88755" lon="2.78274">
        <ele>12.2</ele>
        <time>2020-06-23T14:58:39Z</time>
      </trkpt>
      <trkpt lat="50.8875" lon="2.7828">
        <ele>12.1</ele>
        <time>2020-06-23T14:58:40Z</time>
      </trkpt>
      <trkpt lat="50.88745" lon="2.78287">
        <ele>12.1</ele>
        <time>2020-06-23T14:58:41Z</time>
      </trkpt>
      <trkpt lat="50.8874" lon="2.78294">
        <ele>12.1</ele>
        <time>2020-06-23T14:58:42Z</time>
      </trkpt>
      <trkpt lat="50.88733" lon="2.783">
        <ele>12.1</ele>
        <time>2020-06-23T14:58:43Z</time>
      </trkpt>
      <trkpt lat="50.88728" lon="2.78308">
        <ele>12.1</ele>
        <time>2020-06-23T14:58:44Z</time>
      </trkpt>
      <trkpt lat="50.88723" lon="2.78314">
        <ele>12.1</ele>
        <time>2020-06-23T14:58:45Z</time>
      </trkpt>
      <trkpt lat="50.88718" lon="2.78321">
        <ele>12.1</ele>
        <time>2020-06-23T14:58:46Z</time>
      </trkpt>
      <trkpt lat="50.88712" lon="2.78327">
        <ele>12</ele>
        <time>2020-06-23T14:58:47Z</time>
      </trkpt>
      <trkpt lat="50.88707" lon="2.78335">
        <ele>12</ele>
        <time>2020-06-23T14:58:48Z</time>
      </trkpt>
      <trkpt lat="50.88702" lon="2.78342">
        <ele>11.9</ele>
        <time>2020-06-23T14:58:49Z</time>
      </trkpt>
      <trkpt lat="50.88697" lon="2.78349">
        <ele>11.9</ele>
        <time>2020-06-23T14:58:50Z</time>
      </trkpt>
      <trkpt lat="50.88692" lon="2.78355">
        <ele>11.8</ele>
        <time>2020-06-23T14:58:51Z</time>
      </trkpt>
      <trkpt lat="50.88687" lon="2.78363">
        <ele>11.8</ele>
        <time>2020-06-23T14:58:52Z</time>
      </trkpt>
      <trkpt lat="50.88681" lon="2.7837">
        <ele>11.7</ele>
        <time>2020-06-23T14:58:53Z</time>
      </trkpt>
      <trkpt lat="50.88676" lon="2.78376">
        <ele>11.7</ele>
        <time>2020-06-23T14:58:54Z</time>
      </trkpt>
      <trkpt lat="50.8867" lon="2.78382">
        <ele>11.6</ele>
        <time>2020-06-23T14:58:55Z</time>
      </trkpt>
      <trkpt lat="50.88664" lon="2.78389">
        <ele>11.6</ele>
        <time>2020-06-23T14:58:56Z</time>
      </trkpt>
      <trkpt lat="50.88658" lon="2.78394">
        <ele>11.5</ele>
        <time>2020-06-23T14:58:57Z</time>
      </trkpt>
      <trkpt lat="50.88652" lon="2.78399">
        <ele>11.5</ele>
        <time>2020-06-23T14:58:58Z</time>
      </trkpt>
      <trkpt lat="50.88646" lon="2.78405">
        <ele>11.5</ele>
        <time>2020-06-23T14:58:59Z</time>
      </trkpt>
      <trkpt lat="50.8864" lon="2.7841">
        <ele>11.5</ele>
        <time>2020-06-23T14:59:00Z</time>
      </trkpt>
      <trkpt lat="50.88634" lon="2.78415">
        <ele>11.5</ele>
        <time>2020-06-23T14:59:01Z</time>
      </trkpt>
      <trkpt lat="50.88629" lon="2.78419">
        <ele>11.5</ele>
        <time>2020-06-23T14:59:02Z</time>
      </trkpt>
      <trkpt lat="50.88624" lon="2.78424">
        <ele>11.6</ele>
        <time>2020-06-23T14:59:03Z</time>
      </trkpt>
      <trkpt lat="50.88617" lon="2.78428">
        <ele>11.6</ele>
        <time>2020-06-23T14:59:04Z</time>
      </trkpt>
      <trkpt lat="50.88611" lon="2.78432">
        <ele>11.7</ele>
        <time>2020-06-23T14:59:05Z</time>
      </trkpt>
      <trkpt lat="50.88607" lon="2.78435">
        <ele>11.7</ele>
        <time>2020-06-23T14:59:06Z</time>
      </trkpt>
      <trkpt lat="50.88601" lon="2.7844">
        <ele>11.8</ele>
        <time>2020-06-23T14:59:07Z</time>
      </trkpt>
      <trkpt lat="50.88595" lon="2.78444">
        <ele>11.8</ele>
        <time>2020-06-23T14:59:08Z</time>
      </trkpt>
      <trkpt lat="50.88588" lon="2.78448">
        <ele>11.8</ele>
        <time>2020-06-23T14:59:09Z</time>
      </trkpt>
      <trkpt lat="50.88582" lon="2.78451">
        <ele>11.8</ele>
        <time>2020-06-23T14:59:10Z</time>
      </trkpt>
      <trkpt lat="50.88575" lon="2.78454">
        <ele>11.8</ele>
        <time>2020-06-23T14:59:11Z</time>
      </trkpt>
      <trkpt lat="50.88568" lon="2.78457">
        <ele>11.8</ele>
        <time>2020-06-23T14:59:12Z</time>
      </trkpt>
      <trkpt lat="50.88562" lon="2.7846">
        <ele>11.8</ele>
        <time>2020-06-23T14:59:13Z</time>
      </trkpt>
      <trkpt lat="50.88556" lon="2.78462">
        <ele>11.8</ele>
        <time>2020-06-23T14:59:14Z</time>
      </trkpt>
      <trkpt lat="50.88549" lon="2.78466">
        <ele>11.9</ele>
        <time>2020-06-23T14:59:15Z</time>
      </trkpt>
      <trkpt lat="50.88543" lon="2.78469">
        <ele>11.9</ele>
        <time>2020-06-23T14:59:16Z</time>
      </trkpt>
      <trkpt lat="50.88537" lon="2.78473">
        <ele>12</ele>
        <time>2020-06-23T14:59:17Z</time>
      </trkpt>
      <trkpt lat="50.88531" lon="2.78478">
        <ele>12</ele>
        <time>2020-06-23T14:59:18Z</time>
      </trkpt>
      <trkpt lat="50.88525" lon="2.78482">
        <ele>12.1</ele>
        <time>2020-06-23T14:59:19Z</time>
      </trkpt>
      <trkpt lat="50.88519" lon="2.78486">
        <ele>12.2</ele>
        <time>2020-06-23T14:59:20Z</time>
      </trkpt>
      <trkpt lat="50.88513" lon="2.7849">
        <ele>12.2</ele>
        <time>2020-06-23T14:59:21Z</time>
      </trkpt>
      <trkpt lat="50.88507" lon="2.78495">
        <ele>12.3</ele>
        <time>2020-06-23T14:59:22Z</time>
      </trkpt>
      <trkpt lat="50.88501" lon="2.78501">
        <ele>12.4</ele>
        <time>2020-06-23T14:59:23Z</time>
      </trkpt>
      <trkpt lat="50.88496" lon="2.78506">
        <ele>12.5</ele>
        <time>2020-06-23T14:59:24Z</time>
      </trkpt>
      <trkpt lat="50.88491" lon="2.78511">
        <ele>12.6</ele>
        <time>2020-06-23T14:59:25Z</time>
      </trkpt>
      <trkpt lat="50.88486" lon="2.78514">
        <ele>12.5</ele>
        <time>2020-06-23T14:59:26Z</time>
      </trkpt>
      <trkpt lat="50.88481" lon="2.78518">
        <ele>12.5</ele>
        <time>2020-06-23T14:59:27Z</time>
      </trkpt>
      <trkpt lat="50.88475" lon="2.78523">
        <ele>12.4</ele>
        <time>2020-06-23T14:59:28Z</time>
      </trkpt>
      <trkpt lat="50.8847" lon="2.78528">
        <ele>12.4</ele>
        <time>2020-06-23T14:59:29Z</time>
      </trkpt>
      <trkpt lat="50.88465" lon="2.78532">
        <ele>12.4</ele>
        <time>2020-06-23T14:59:30Z</time>
      </trkpt>
      <trkpt lat="50.8846" lon="2.78538">
        <ele>12.4</ele>
        <time>2020-06-23T14:59:31Z</time>
      </trkpt>
      <trkpt lat="50.88454" lon="2.78544">
        <ele>12.5</ele>
        <time>2020-06-23T14:59:32Z</time>
      </trkpt>
      <trkpt lat="50.88449" lon="2.78549">
        <ele>12.5</ele>
        <time>2020-06-23T14:59:33Z</time>
      </trkpt>
      <trkpt lat="50.88444" lon="2.78554">
        <ele>12.5</ele>
        <time>2020-06-23T14:59:34Z</time>
      </trkpt>
      <trkpt lat="50.88439" lon="2.78559">
        <ele>12.6</ele>
        <time>2020-06-23T14:59:35Z</time>
      </trkpt>
      <trkpt lat="50.88433" lon="2.78564">
        <ele>12.7</ele>
        <time>2020-06-23T14:59:36Z</time>
      </trkpt>
      <trkpt lat="50.88428" lon="2.78569">
        <ele>12.7</ele>
        <time>2020-06-23T14:59:37Z</time>
      </trkpt>
      <trkpt lat="50.88423" lon="2.78574">
        <ele>12.8</ele>
        <time>2020-06-23T14:59:38Z</time>
      </trkpt>
      <trkpt lat="50.88417" lon="2.7858">
        <ele>12.9</ele>
        <time>2020-06-23T14:59:39Z</time>
      </trkpt>
      <trkpt lat="50.88411" lon="2.78585">
        <ele>12.9</ele>
        <time>2020-06-23T14:59:40Z</time>
      </trkpt>
      <trkpt lat="50.88407" lon="2.7859">
        <ele>13</ele>
        <time>2020-06-23T14:59:41Z</time>
      </trkpt>
      <trkpt lat="50.88402" lon="2.78594">
        <ele>13</ele>
        <time>2020-06-23T14:59:42Z</time>
      </trkpt>
      <trkpt lat="50.88398" lon="2.78598">
        <ele>13</ele>
        <time>2020-06-23T14:59:43Z</time>
      </trkpt>
      <trkpt lat="50.88393" lon="2.78603">
        <ele>13</ele>
        <time>2020-06-23T14:59:44Z</time>
      </trkpt>
      <trkpt lat="50.88388" lon="2.78609">
        <ele>13.1</ele>
        <time>2020-06-23T14:59:45Z</time>
      </trkpt>
      <trkpt lat="50.88384" lon="2.78613">
        <ele>13.1</ele>
        <time>2020-06-23T14:59:46Z</time>
      </trkpt>
      <trkpt lat="50.88379" lon="2.78618">
        <ele>13.1</ele>
        <time>2020-06-23T14:59:47Z</time>
      </trkpt>
      <trkpt lat="50.88374" lon="2.78622">
        <ele>13.2</ele>
        <time>2020-06-23T14:59:48Z</time>
      </trkpt>
      <trkpt lat="50.88369" lon="2.78627">
        <ele>13.2</ele>
        <time>2020-06-23T14:59:49Z</time>
      </trkpt>
      <trkpt lat="50.88364" lon="2.78633">
        <ele>13.2</ele>
        <time>2020-06-23T14:59:50Z</time>
      </trkpt>
      <trkpt lat="50.88359" lon="2.78638">
        <ele>13.3</ele>
        <time>2020-06-23T14:59:51Z</time>
      </trkpt>
      <trkpt lat="50.88354" lon="2.78643">
        <ele>13.3</ele>
        <time>2020-06-23T14:59:52Z</time>
      </trkpt>
      <trkpt lat="50.88349" lon="2.78647">
        <ele>13.3</ele>
        <time>2020-06-23T14:59:53Z</time>
      </trkpt>
      <trkpt lat="50.88344" lon="2.78652">
        <ele>13.3</ele>
        <time>2020-06-23T14:59:54Z</time>
      </trkpt>
      <trkpt lat="50.88339" lon="2.78657">
        <ele>13.4</ele>
        <time>2020-06-23T14:59:55Z</time>
      </trkpt>
      <trkpt lat="50.88334" lon="2.78662">
        <ele>13.4</ele>
        <time>2020-06-23T14:59:56Z</time>
      </trkpt>
      <trkpt lat="50.88329" lon="2.78667">
        <ele>13.4</ele>
        <time>2020-06-23T14:59:57Z</time>
      </trkpt>
      <trkpt lat="50.88325" lon="2.78672">
        <ele>13.4</ele>
        <time>2020-06-23T14:59:58Z</time>
      </trkpt>
      <trkpt lat="50.8832" lon="2.78677">
        <ele>13.5</ele>
        <time>2020-06-23T14:59:59Z</time>
      </trkpt>
      <trkpt lat="50.88315" lon="2.78681">
        <ele>13.5</ele>
        <time>2020-06-23T15:00:00Z</time>
      </trkpt>
      <trkpt lat="50.8831" lon="2.78684">
        <ele>13.5</ele>
        <time>2020-06-23T15:00:01Z</time>
      </trkpt>
      <trkpt lat="50.88306" lon="2.78687">
        <ele>13.5</ele>
        <time>2020-06-23T15:00:02Z</time>
      </trkpt>
      <trkpt lat="50.88302" lon="2.78692">
        <ele>13.6</ele>
        <time>2020-06-23T15:00:03Z</time>
      </trkpt>
      <trkpt lat="50.88298" lon="2.78695">
        <ele>13.6</ele>
        <time>2020-06-23T15:00:04Z</time>
      </trkpt>
      <trkpt lat="50.88293" lon="2.78699">
        <ele>13.6</ele>
        <time>2020-06-23T15:00:05Z</time>
      </trkpt>
      <trkpt lat="50.88289" lon="2.78703">
        <ele>13.7</ele>
        <time>2020-06-23T15:00:06Z</time>
      </trkpt>
      <trkpt lat="50.88285" lon="2.78707">
        <ele>13.7</ele>
        <time>2020-06-23T15:00:07Z</time>
      </trkpt>
      <trkpt lat="50.88282" lon="2.78709">
        <ele>13.7</ele>
        <time>2020-06-23T15:00:08Z</time>
      </trkpt>
      <trkpt lat="50.88278" lon="2.78713">
        <ele>13.8</ele>
        <time>2020-06-23T15:00:09Z</time>
      </trkpt>
      <trkpt lat="50.88274" lon="2.78717">
        <ele>13.8</ele>
        <time>2020-06-23T15:00:10Z</time>
      </trkpt>
      <trkpt lat="50.88269" lon="2.78722">
        <ele>13.9</ele>
        <time>2020-06-23T15:00:11Z</time>
      </trkpt>
      <trkpt lat="50.88266" lon="2.78726">
        <ele>14</ele>
        <time>2020-06-23T15:00:12Z</time>
      </trkpt>
      <trkpt lat="50.88262" lon="2.7873">
        <ele>14</ele>
        <time>2020-06-23T15:00:13Z</time>
      </trkpt>
      <trkpt lat="50.88259" lon="2.78733">
        <ele>14</ele>
        <time>2020-06-23T15:00:14Z</time>
      </trkpt>
      <trkpt lat="50.88255" lon="2.78733">
        <ele>14</ele>
        <time>2020-06-23T15:00:15Z</time>
      </trkpt>
      <trkpt lat="50.88251" lon="2.78729">
        <ele>14</ele>
        <time>2020-06-23T15:00:16Z</time>
      </trkpt>
      <trkpt lat="50.88248" lon="2.7872">
        <ele>14</ele>
        <time>2020-06-23T15:00:17Z</time>
      </trkpt>
      <trkpt lat="50.88244" lon="2.78713">
        <ele>13.9</ele>
        <time>2020-06-23T15:00:18Z</time>
      </trkpt>
      <trkpt lat="50.88241" lon="2.78707">
        <ele>13.9</ele>
        <time>2020-06-23T15:00:19Z</time>
      </trkpt>
      <trkpt lat="50.88237" lon="2.787">
        <ele>13.9</ele>
        <time>2020-06-23T15:00:20Z</time>
      </trkpt>
      <trkpt lat="50.88233" lon="2.78693">
        <ele>13.9</ele>
        <time>2020-06-23T15:00:21Z</time>
      </trkpt>
      <trkpt lat="50.8823" lon="2.78686">
        <ele>13.9</ele>
        <time>2020-06-23T15:00:22Z</time>
      </trkpt>
      <trkpt lat="50.88226" lon="2.7868">
        <ele>13.9</ele>
        <time>2020-06-23T15:00:23Z</time>
      </trkpt>
      <trkpt lat="50.88222" lon="2.78674">
        <ele>13.9</ele>
        <time>2020-06-23T15:00:24Z</time>
      </trkpt>
      <trkpt lat="50.88216" lon="2.78667">
        <ele>13.9</ele>
        <time>2020-06-23T15:00:25Z</time>
      </trkpt>
      <trkpt lat="50.88212" lon="2.78662">
        <ele>13.9</ele>
        <time>2020-06-23T15:00:26Z</time>
      </trkpt>
      <trkpt lat="50.8821" lon="2.78658">
        <ele>13.9</ele>
        <time>2020-06-23T15:00:27Z</time>
      </trkpt>
      <trkpt lat="50.88207" lon="2.78652">
        <ele>13.9</ele>
        <time>2020-06-23T15:00:28Z</time>
      </trkpt>
      <trkpt lat="50.88204" lon="2.78645">
        <ele>13.9</ele>
        <time>2020-06-23T15:00:29Z</time>
      </trkpt>
      <trkpt lat="50.88201" lon="2.7864">
        <ele>13.9</ele>
        <time>2020-06-23T15:00:30Z</time>
      </trkpt>
      <trkpt lat="50.88199" lon="2.78637">
        <ele>13.9</ele>
        <time>2020-06-23T15:00:31Z</time>
      </trkpt>
      <trkpt lat="50.88196" lon="2.78636">
        <ele>13.9</ele>
        <time>2020-06-23T15:00:32Z</time>
      </trkpt>
      <trkpt lat="50.88196" lon="2.78636">
        <ele>13.9</ele>
        <time>2020-06-23T15:00:33Z</time>
      </trkpt>
      <trkpt lat="50.88196" lon="2.78637">
        <ele>13.9</ele>
        <time>2020-06-23T15:00:34Z</time>
      </trkpt>
      <trkpt lat="50.88196" lon="2.78638">
        <ele>13.9</ele>
        <time>2020-06-23T15:00:35Z</time>
      </trkpt>
      <trkpt lat="50.88196" lon="2.78639">
        <ele>13.9</ele>
        <time>2020-06-23T15:00:36Z</time>
      </trkpt>
      <trkpt lat="50.88195" lon="2.78639">
        <ele>13.9</ele>
        <time>2020-06-23T15:00:37Z</time>
      </trkpt>
      <trkpt lat="50.88195" lon="2.78639">
        <ele>13.9</ele>
        <time>2020-06-23T15:00:38Z</time>
      </trkpt>
      <trkpt lat="50.88195" lon="2.7864">
        <ele>13.9</ele>
        <time>2020-06-23T15:00:39Z</time>
      </trkpt>
      <trkpt lat="50.88195" lon="2.78642">
        <ele>13.9</ele>
        <time>2020-06-23T15:00:40Z</time>
      </trkpt>
      <trkpt lat="50.88195" lon="2.78642">
        <ele>13.9</ele>
        <time>2020-06-23T15:00:41Z</time>
      </trkpt>
      <trkpt lat="50.88196" lon="2.78644">
        <ele>13.9</ele>
        <time>2020-06-23T15:00:42Z</time>
      </trkpt>
      <trkpt lat="50.88198" lon="2.78648">
        <ele>13.9</ele>
        <time>2020-06-23T15:00:43Z</time>
      </trkpt>
      <trkpt lat="50.88199" lon="2.78649">
        <ele>13.9</ele>
        <time>2020-06-23T15:00:44Z</time>
      </trkpt>
      <trkpt lat="50.88201" lon="2.78653">
        <ele>13.9</ele>
        <time>2020-06-23T15:00:45Z</time>
      </trkpt>
      <trkpt lat="50.88202" lon="2.7866">
        <ele>13.8</ele>
        <time>2020-06-23T15:00:46Z</time>
      </trkpt>
      <trkpt lat="50.88202" lon="2.78666">
        <ele>13.8</ele>
        <time>2020-06-23T15:00:47Z</time>
      </trkpt>
      <trkpt lat="50.88203" lon="2.78673">
        <ele>13.7</ele>
        <time>2020-06-23T15:00:48Z</time>
      </trkpt>
      <trkpt lat="50.88202" lon="2.78678">
        <ele>13.6</ele>
        <time>2020-06-23T15:00:49Z</time>
      </trkpt>
      <trkpt lat="50.88202" lon="2.78683">
        <ele>13.6</ele>
        <time>2020-06-23T15:00:50Z</time>
      </trkpt>
      <trkpt lat="50.882" lon="2.78686">
        <ele>13.5</ele>
        <time>2020-06-23T15:00:51Z</time>
      </trkpt>
      <trkpt lat="50.88198" lon="2.78686">
        <ele>13.5</ele>
        <time>2020-06-23T15:00:52Z</time>
      </trkpt>
      <trkpt lat="50.88193" lon="2.78686">
        <ele>13.4</ele>
        <time>2020-06-23T15:00:53Z</time>
      </trkpt>
      <trkpt lat="50.88188" lon="2.78686">
        <ele>13.4</ele>
        <time>2020-06-23T15:00:54Z</time>
      </trkpt>
      <trkpt lat="50.88185" lon="2.78688">
        <ele>13.3</ele>
        <time>2020-06-23T15:00:55Z</time>
      </trkpt>
      <trkpt lat="50.88181" lon="2.78689">
        <ele>13.2</ele>
        <time>2020-06-23T15:00:56Z</time>
      </trkpt>
      <trkpt lat="50.88176" lon="2.78689">
        <ele>13.2</ele>
        <time>2020-06-23T15:00:57Z</time>
      </trkpt>
      <trkpt lat="50.88169" lon="2.7869">
        <ele>13.1</ele>
        <time>2020-06-23T15:00:58Z</time>
      </trkpt>
      <trkpt lat="50.88163" lon="2.7869">
        <ele>13.1</ele>
        <time>2020-06-23T15:00:59Z</time>
      </trkpt>
      <trkpt lat="50.88158" lon="2.78691">
        <ele>13</ele>
        <time>2020-06-23T15:01:00Z</time>
      </trkpt>
      <trkpt lat="50.88153" lon="2.78692">
        <ele>13</ele>
        <time>2020-06-23T15:01:01Z</time>
      </trkpt>
      <trkpt lat="50.88147" lon="2.78693">
        <ele>13</ele>
        <time>2020-06-23T15:01:02Z</time>
      </trkpt>
      <trkpt lat="50.88144" lon="2.78694">
        <ele>12.9</ele>
        <time>2020-06-23T15:01:03Z</time>
      </trkpt>
      <trkpt lat="50.8814" lon="2.78697">
        <ele>12.9</ele>
        <time>2020-06-23T15:01:04Z</time>
      </trkpt>
      <trkpt lat="50.88136" lon="2.787">
        <ele>12.9</ele>
        <time>2020-06-23T15:01:05Z</time>
      </trkpt>
      <trkpt lat="50.88132" lon="2.78703">
        <ele>12.9</ele>
        <time>2020-06-23T15:01:06Z</time>
      </trkpt>
      <trkpt lat="50.88128" lon="2.78706">
        <ele>12.9</ele>
        <time>2020-06-23T15:01:07Z</time>
      </trkpt>
      <trkpt lat="50.88124" lon="2.78708">
        <ele>12.9</ele>
        <time>2020-06-23T15:01:08Z</time>
      </trkpt>
      <trkpt lat="50.88119" lon="2.7871">
        <ele>12.9</ele>
        <time>2020-06-23T15:01:09Z</time>
      </trkpt>
      <trkpt lat="50.88112" lon="2.78712">
        <ele>12.9</ele>
        <time>2020-06-23T15:01:10Z</time>
      </trkpt>
      <trkpt lat="50.88108" lon="2.78713">
        <ele>12.9</ele>
        <time>2020-06-23T15:01:11Z</time>
      </trkpt>
      <trkpt lat="50.88102" lon="2.78716">
        <ele>12.9</ele>
        <time>2020-06-23T15:01:12Z</time>
      </trkpt>
      <trkpt lat="50.88097" lon="2.7872">
        <ele>12.9</ele>
        <time>2020-06-23T15:01:13Z</time>
      </trkpt>
      <trkpt lat="50.88092" lon="2.78723">
        <ele>12.9</ele>
        <time>2020-06-23T15:01:14Z</time>
      </trkpt>
      <trkpt lat="50.88086" lon="2.78726">
        <ele>12.9</ele>
        <time>2020-06-23T15:01:15Z</time>
      </trkpt>
      <trkpt lat="50.88081" lon="2.78729">
        <ele>12.9</ele>
        <time>2020-06-23T15:01:16Z</time>
      </trkpt>
      <trkpt lat="50.88075" lon="2.78732">
        <ele>12.9</ele>
        <time>2020-06-23T15:01:17Z</time>
      </trkpt>
      <trkpt lat="50.8807" lon="2.78735">
        <ele>12.9</ele>
        <time>2020-06-23T15:01:18Z</time>
      </trkpt>
      <trkpt lat="50.88065" lon="2.78738">
        <ele>12.9</ele>
        <time>2020-06-23T15:01:19Z</time>
      </trkpt>
      <trkpt lat="50.88059" lon="2.78742">
        <ele>13</ele>
        <time>2020-06-23T15:01:20Z</time>
      </trkpt>
      <trkpt lat="50.88053" lon="2.78745">
        <ele>13</ele>
        <time>2020-06-23T15:01:21Z</time>
      </trkpt>
      <trkpt lat="50.88048" lon="2.78749">
        <ele>13.1</ele>
        <time>2020-06-23T15:01:22Z</time>
      </trkpt>
      <trkpt lat="50.88043" lon="2.78753">
        <ele>13.1</ele>
        <time>2020-06-23T15:01:23Z</time>
      </trkpt>
      <trkpt lat="50.88037" lon="2.78756">
        <ele>13.2</ele>
        <time>2020-06-23T15:01:24Z</time>
      </trkpt>
      <trkpt lat="50.88032" lon="2.7876">
        <ele>13.2</ele>
        <time>2020-06-23T15:01:25Z</time>
      </trkpt>
      <trkpt lat="50.88026" lon="2.78763">
        <ele>13.3</ele>
        <time>2020-06-23T15:01:26Z</time>
      </trkpt>
      <trkpt lat="50.88022" lon="2.78765">
        <ele>13.3</ele>
        <time>2020-06-23T15:01:27Z</time>
      </trkpt>
      <trkpt lat="50.88017" lon="2.78768">
        <ele>13.4</ele>
        <time>2020-06-23T15:01:28Z</time>
      </trkpt>
      <trkpt lat="50.88011" lon="2.78772">
        <ele>13.5</ele>
        <time>2020-06-23T15:01:29Z</time>
      </trkpt>
      <trkpt lat="50.88005" lon="2.78775">
        <ele>13.5</ele>
        <time>2020-06-23T15:01:30Z</time>
      </trkpt>
      <trkpt lat="50.88" lon="2.78778">
        <ele>13.6</ele>
        <time>2020-06-23T15:01:31Z</time>
      </trkpt>
      <trkpt lat="50.87996" lon="2.78781">
        <ele>13.6</ele>
        <time>2020-06-23T15:01:32Z</time>
      </trkpt>
      <trkpt lat="50.8799" lon="2.78783">
        <ele>13.6</ele>
        <time>2020-06-23T15:01:33Z</time>
      </trkpt>
      <trkpt lat="50.87984" lon="2.78786">
        <ele>13.6</ele>
        <time>2020-06-23T15:01:34Z</time>
      </trkpt>
      <trkpt lat="50.8798" lon="2.78788">
        <ele>13.6</ele>
        <time>2020-06-23T15:01:35Z</time>
      </trkpt>
      <trkpt lat="50.87975" lon="2.78791">
        <ele>13.6</ele>
        <time>2020-06-23T15:01:36Z</time>
      </trkpt>
      <trkpt lat="50.8797" lon="2.78795">
        <ele>13.7</ele>
        <time>2020-06-23T15:01:37Z</time>
      </trkpt>
      <trkpt lat="50.87965" lon="2.78798">
        <ele>13.8</ele>
        <time>2020-06-23T15:01:38Z</time>
      </trkpt>
      <trkpt lat="50.87961" lon="2.78801">
        <ele>13.8</ele>
        <time>2020-06-23T15:01:39Z</time>
      </trkpt>
      <trkpt lat="50.87958" lon="2.78806">
        <ele>13.9</ele>
        <time>2020-06-23T15:01:40Z</time>
      </trkpt>
      <trkpt lat="50.87952" lon="2.7881">
        <ele>14</ele>
        <time>2020-06-23T15:01:41Z</time>
      </trkpt>
      <trkpt lat="50.87947" lon="2.78814">
        <ele>14.1</ele>
        <time>2020-06-23T15:01:42Z</time>
      </trkpt>
      <trkpt lat="50.87942" lon="2.78818">
        <ele>14.1</ele>
        <time>2020-06-23T15:01:43Z</time>
      </trkpt>
      <trkpt lat="50.87938" lon="2.78823">
        <ele>14.2</ele>
        <time>2020-06-23T15:01:44Z</time>
      </trkpt>
      <trkpt lat="50.87932" lon="2.78827">
        <ele>14.2</ele>
        <time>2020-06-23T15:01:45Z</time>
      </trkpt>
      <trkpt lat="50.87927" lon="2.78831">
        <ele>14.2</ele>
        <time>2020-06-23T15:01:46Z</time>
      </trkpt>
      <trkpt lat="50.87923" lon="2.78834">
        <ele>14.3</ele>
        <time>2020-06-23T15:01:47Z</time>
      </trkpt>
      <trkpt lat="50.87919" lon="2.78837">
        <ele>14.3</ele>
        <time>2020-06-23T15:01:48Z</time>
      </trkpt>
      <trkpt lat="50.87915" lon="2.7884">
        <ele>14.3</ele>
        <time>2020-06-23T15:01:49Z</time>
      </trkpt>
      <trkpt lat="50.8791" lon="2.78843">
        <ele>14.3</ele>
        <time>2020-06-23T15:01:50Z</time>
      </trkpt>
      <trkpt lat="50.87905" lon="2.78847">
        <ele>14.4</ele>
        <time>2020-06-23T15:01:51Z</time>
      </trkpt>
      <trkpt lat="50.87901" lon="2.7885">
        <ele>14.4</ele>
        <time>2020-06-23T15:01:52Z</time>
      </trkpt>
      <trkpt lat="50.87896" lon="2.78854">
        <ele>14.4</ele>
        <time>2020-06-23T15:01:53Z</time>
      </trkpt>
      <trkpt lat="50.87891" lon="2.78858">
        <ele>14.5</ele>
        <time>2020-06-23T15:01:54Z</time>
      </trkpt>
      <trkpt lat="50.87887" lon="2.78862">
        <ele>14.5</ele>
        <time>2020-06-23T15:01:55Z</time>
      </trkpt>
      <trkpt lat="50.87882" lon="2.78865">
        <ele>14.5</ele>
        <time>2020-06-23T15:01:56Z</time>
      </trkpt>
      <trkpt lat="50.87877" lon="2.78867">
        <ele>14.6</ele>
        <time>2020-06-23T15:01:57Z</time>
      </trkpt>
      <trkpt lat="50.87872" lon="2.7887">
        <ele>14.6</ele>
        <time>2020-06-23T15:01:58Z</time>
      </trkpt>
      <trkpt lat="50.87868" lon="2.78873">
        <ele>14.6</ele>
        <time>2020-06-23T15:01:59Z</time>
      </trkpt>
      <trkpt lat="50.87864" lon="2.78875">
        <ele>14.6</ele>
        <time>2020-06-23T15:02:00Z</time>
      </trkpt>
      <trkpt lat="50.87859" lon="2.78877">
        <ele>14.7</ele>
        <time>2020-06-23T15:02:01Z</time>
      </trkpt>
      <trkpt lat="50.87854" lon="2.7888">
        <ele>14.7</ele>
        <time>2020-06-23T15:02:02Z</time>
      </trkpt>
      <trkpt lat="50.8785" lon="2.78883">
        <ele>14.7</ele>
        <time>2020-06-23T15:02:03Z</time>
      </trkpt>
      <trkpt lat="50.87845" lon="2.78886">
        <ele>14.8</ele>
        <time>2020-06-23T15:02:04Z</time>
      </trkpt>
      <trkpt lat="50.8784" lon="2.78888">
        <ele>14.8</ele>
        <time>2020-06-23T15:02:05Z</time>
      </trkpt>
      <trkpt lat="50.87835" lon="2.78891">
        <ele>14.9</ele>
        <time>2020-06-23T15:02:06Z</time>
      </trkpt>
      <trkpt lat="50.8783" lon="2.78894">
        <ele>14.9</ele>
        <time>2020-06-23T15:02:07Z</time>
      </trkpt>
      <trkpt lat="50.87827" lon="2.78898">
        <ele>14.9</ele>
        <time>2020-06-23T15:02:08Z</time>
      </trkpt>
      <trkpt lat="50.87823" lon="2.78901">
        <ele>14.9</ele>
        <time>2020-06-23T15:02:09Z</time>
      </trkpt>
      <trkpt lat="50.87817" lon="2.78904">
        <ele>15</ele>
        <time>2020-06-23T15:02:10Z</time>
      </trkpt>
      <trkpt lat="50.87812" lon="2.78908">
        <ele>15</ele>
        <time>2020-06-23T15:02:11Z</time>
      </trkpt>
      <trkpt lat="50.87807" lon="2.78912">
        <ele>15</ele>
        <time>2020-06-23T15:02:12Z</time>
      </trkpt>
      <trkpt lat="50.87802" lon="2.78917">
        <ele>15.1</ele>
        <time>2020-06-23T15:02:13Z</time>
      </trkpt>
      <trkpt lat="50.87796" lon="2.78919">
        <ele>15.1</ele>
        <time>2020-06-23T15:02:14Z</time>
      </trkpt>
      <trkpt lat="50.87791" lon="2.78923">
        <ele>15.2</ele>
        <time>2020-06-23T15:02:15Z</time>
      </trkpt>
      <trkpt lat="50.87786" lon="2.78926">
        <ele>15.3</ele>
        <time>2020-06-23T15:02:16Z</time>
      </trkpt>
      <trkpt lat="50.8778" lon="2.78929">
        <ele>15.4</ele>
        <time>2020-06-23T15:02:17Z</time>
      </trkpt>
      <trkpt lat="50.87774" lon="2.78932">
        <ele>15.4</ele>
        <time>2020-06-23T15:02:18Z</time>
      </trkpt>
      <trkpt lat="50.87769" lon="2.78935">
        <ele>15.5</ele>
        <time>2020-06-23T15:02:19Z</time>
      </trkpt>
      <trkpt lat="50.87764" lon="2.78939">
        <ele>15.6</ele>
        <time>2020-06-23T15:02:20Z</time>
      </trkpt>
      <trkpt lat="50.8776" lon="2.78943">
        <ele>15.6</ele>
        <time>2020-06-23T15:02:21Z</time>
      </trkpt>
      <trkpt lat="50.87755" lon="2.78946">
        <ele>15.7</ele>
        <time>2020-06-23T15:02:22Z</time>
      </trkpt>
      <trkpt lat="50.87751" lon="2.78949">
        <ele>15.8</ele>
        <time>2020-06-23T15:02:23Z</time>
      </trkpt>
      <trkpt lat="50.87747" lon="2.78952">
        <ele>15.8</ele>
        <time>2020-06-23T15:02:24Z</time>
      </trkpt>
      <trkpt lat="50.87742" lon="2.78955">
        <ele>15.9</ele>
        <time>2020-06-23T15:02:25Z</time>
      </trkpt>
      <trkpt lat="50.87738" lon="2.78958">
        <ele>15.9</ele>
        <time>2020-06-23T15:02:26Z</time>
      </trkpt>
      <trkpt lat="50.87733" lon="2.78962">
        <ele>16</ele>
        <time>2020-06-23T15:02:27Z</time>
      </trkpt>
      <trkpt lat="50.87729" lon="2.78964">
        <ele>16.1</ele>
        <time>2020-06-23T15:02:28Z</time>
      </trkpt>
      <trkpt lat="50.87724" lon="2.78968">
        <ele>16.1</ele>
        <time>2020-06-23T15:02:29Z</time>
      </trkpt>
      <trkpt lat="50.8772" lon="2.78971">
        <ele>16.2</ele>
        <time>2020-06-23T15:02:30Z</time>
      </trkpt>
      <trkpt lat="50.87715" lon="2.78975">
        <ele>16.2</ele>
        <time>2020-06-23T15:02:31Z</time>
      </trkpt>
      <trkpt lat="50.8771" lon="2.78978">
        <ele>16.3</ele>
        <time>2020-06-23T15:02:32Z</time>
      </trkpt>
      <trkpt lat="50.87704" lon="2.78981">
        <ele>16.3</ele>
        <time>2020-06-23T15:02:33Z</time>
      </trkpt>
      <trkpt lat="50.87699" lon="2.78984">
        <ele>16.4</ele>
        <time>2020-06-23T15:02:34Z</time>
      </trkpt>
      <trkpt lat="50.87695" lon="2.78987">
        <ele>16.4</ele>
        <time>2020-06-23T15:02:35Z</time>
      </trkpt>
      <trkpt lat="50.8769" lon="2.7899">
        <ele>16.5</ele>
        <time>2020-06-23T15:02:36Z</time>
      </trkpt>
      <trkpt lat="50.87685" lon="2.78993">
        <ele>16.5</ele>
        <time>2020-06-23T15:02:37Z</time>
      </trkpt>
      <trkpt lat="50.8768" lon="2.78997">
        <ele>16.6</ele>
        <time>2020-06-23T15:02:38Z</time>
      </trkpt>
      <trkpt lat="50.87674" lon="2.79">
        <ele>16.6</ele>
        <time>2020-06-23T15:02:39Z</time>
      </trkpt>
      <trkpt lat="50.87669" lon="2.79003">
        <ele>16.6</ele>
        <time>2020-06-23T15:02:40Z</time>
      </trkpt>
      <trkpt lat="50.87665" lon="2.79006">
        <ele>16.7</ele>
        <time>2020-06-23T15:02:41Z</time>
      </trkpt>
      <trkpt lat="50.8766" lon="2.7901">
        <ele>16.8</ele>
        <time>2020-06-23T15:02:42Z</time>
      </trkpt>
      <trkpt lat="50.87655" lon="2.79014">
        <ele>16.8</ele>
        <time>2020-06-23T15:02:43Z</time>
      </trkpt>
      <trkpt lat="50.87651" lon="2.79017">
        <ele>16.9</ele>
        <time>2020-06-23T15:02:44Z</time>
      </trkpt>
      <trkpt lat="50.87646" lon="2.7902">
        <ele>17.1</ele>
        <time>2020-06-23T15:02:45Z</time>
      </trkpt>
      <trkpt lat="50.87641" lon="2.79024">
        <ele>17.2</ele>
        <time>2020-06-23T15:02:46Z</time>
      </trkpt>
      <trkpt lat="50.87637" lon="2.79028">
        <ele>17.3</ele>
        <time>2020-06-23T15:02:47Z</time>
      </trkpt>
      <trkpt lat="50.87631" lon="2.79031">
        <ele>17.5</ele>
        <time>2020-06-23T15:02:48Z</time>
      </trkpt>
      <trkpt lat="50.87626" lon="2.79036">
        <ele>17.6</ele>
        <time>2020-06-23T15:02:49Z</time>
      </trkpt>
      <trkpt lat="50.87621" lon="2.7904">
        <ele>17.6</ele>
        <time>2020-06-23T15:02:50Z</time>
      </trkpt>
      <trkpt lat="50.87616" lon="2.79044">
        <ele>17.7</ele>
        <time>2020-06-23T15:02:51Z</time>
      </trkpt>
      <trkpt lat="50.87612" lon="2.79047">
        <ele>17.7</ele>
        <time>2020-06-23T15:02:52Z</time>
      </trkpt>
      <trkpt lat="50.87607" lon="2.79052">
        <ele>17.7</ele>
        <time>2020-06-23T15:02:53Z</time>
      </trkpt>
      <trkpt lat="50.87601" lon="2.79056">
        <ele>17.7</ele>
        <time>2020-06-23T15:02:54Z</time>
      </trkpt>
      <trkpt lat="50.87597" lon="2.79061">
        <ele>17.7</ele>
        <time>2020-06-23T15:02:55Z</time>
      </trkpt>
      <trkpt lat="50.87594" lon="2.79068">
        <ele>17.7</ele>
        <time>2020-06-23T15:02:56Z</time>
      </trkpt>
      <trkpt lat="50.8759" lon="2.79076">
        <ele>17.7</ele>
        <time>2020-06-23T15:02:57Z</time>
      </trkpt>
      <trkpt lat="50.87587" lon="2.79083">
        <ele>17.7</ele>
        <time>2020-06-23T15:02:58Z</time>
      </trkpt>
      <trkpt lat="50.87584" lon="2.7909">
        <ele>17.8</ele>
        <time>2020-06-23T15:02:59Z</time>
      </trkpt>
      <trkpt lat="50.87581" lon="2.79098">
        <ele>17.8</ele>
        <time>2020-06-23T15:03:00Z</time>
      </trkpt>
      <trkpt lat="50.87579" lon="2.79105">
        <ele>17.8</ele>
        <time>2020-06-23T15:03:01Z</time>
      </trkpt>
      <trkpt lat="50.87576" lon="2.79114">
        <ele>17.9</ele>
        <time>2020-06-23T15:03:02Z</time>
      </trkpt>
      <trkpt lat="50.87574" lon="2.79123">
        <ele>17.9</ele>
        <time>2020-06-23T15:03:03Z</time>
      </trkpt>
      <trkpt lat="50.87572" lon="2.79131">
        <ele>17.9</ele>
        <time>2020-06-23T15:03:04Z</time>
      </trkpt>
      <trkpt lat="50.8757" lon="2.79139">
        <ele>17.9</ele>
        <time>2020-06-23T15:03:05Z</time>
      </trkpt>
      <trkpt lat="50.87567" lon="2.79147">
        <ele>17.9</ele>
        <time>2020-06-23T15:03:06Z</time>
      </trkpt>
      <trkpt lat="50.87565" lon="2.79153">
        <ele>17.9</ele>
        <time>2020-06-23T15:03:07Z</time>
      </trkpt>
      <trkpt lat="50.87563" lon="2.79159">
        <ele>17.9</ele>
        <time>2020-06-23T15:03:08Z</time>
      </trkpt>
      <trkpt lat="50.8756" lon="2.79163">
        <ele>17.9</ele>
        <time>2020-06-23T15:03:09Z</time>
      </trkpt>
      <trkpt lat="50.87557" lon="2.79169">
        <ele>17.9</ele>
        <time>2020-06-23T15:03:10Z</time>
      </trkpt>
      <trkpt lat="50.87555" lon="2.79176">
        <ele>17.8</ele>
        <time>2020-06-23T15:03:11Z</time>
      </trkpt>
      <trkpt lat="50.87552" lon="2.79182">
        <ele>17.8</ele>
        <time>2020-06-23T15:03:12Z</time>
      </trkpt>
      <trkpt lat="50.87549" lon="2.79189">
        <ele>17.8</ele>
        <time>2020-06-23T15:03:13Z</time>
      </trkpt>
      <trkpt lat="50.87546" lon="2.79196">
        <ele>17.8</ele>
        <time>2020-06-23T15:03:14Z</time>
      </trkpt>
      <trkpt lat="50.87543" lon="2.79202">
        <ele>17.7</ele>
        <time>2020-06-23T15:03:15Z</time>
      </trkpt>
      <trkpt lat="50.8754" lon="2.7921">
        <ele>17.7</ele>
        <time>2020-06-23T15:03:16Z</time>
      </trkpt>
      <trkpt lat="50.87536" lon="2.79218">
        <ele>17.6</ele>
        <time>2020-06-23T15:03:17Z</time>
      </trkpt>
      <trkpt lat="50.87532" lon="2.79227">
        <ele>17.5</ele>
        <time>2020-06-23T15:03:18Z</time>
      </trkpt>
      <trkpt lat="50.87527" lon="2.79234">
        <ele>17.4</ele>
        <time>2020-06-23T15:03:19Z</time>
      </trkpt>
      <trkpt lat="50.87521" lon="2.79241">
        <ele>17.3</ele>
        <time>2020-06-23T15:03:20Z</time>
      </trkpt>
      <trkpt lat="50.87515" lon="2.79248">
        <ele>17.2</ele>
        <time>2020-06-23T15:03:21Z</time>
      </trkpt>
      <trkpt lat="50.87511" lon="2.79255">
        <ele>17.2</ele>
        <time>2020-06-23T15:03:22Z</time>
      </trkpt>
      <trkpt lat="50.87506" lon="2.79262">
        <ele>17.2</ele>
        <time>2020-06-23T15:03:23Z</time>
      </trkpt>
      <trkpt lat="50.87502" lon="2.79269">
        <ele>17.2</ele>
        <time>2020-06-23T15:03:24Z</time>
      </trkpt>
      <trkpt lat="50.87496" lon="2.79276">
        <ele>17.2</ele>
        <time>2020-06-23T15:03:25Z</time>
      </trkpt>
      <trkpt lat="50.8749" lon="2.79281">
        <ele>17.2</ele>
        <time>2020-06-23T15:03:26Z</time>
      </trkpt>
      <trkpt lat="50.87486" lon="2.79287">
        <ele>17.2</ele>
        <time>2020-06-23T15:03:27Z</time>
      </trkpt>
      <trkpt lat="50.87481" lon="2.79293">
        <ele>17.2</ele>
        <time>2020-06-23T15:03:28Z</time>
      </trkpt>
      <trkpt lat="50.87477" lon="2.79298">
        <ele>17.2</ele>
        <time>2020-06-23T15:03:29Z</time>
      </trkpt>
      <trkpt lat="50.87472" lon="2.79304">
        <ele>17.2</ele>
        <time>2020-06-23T15:03:30Z</time>
      </trkpt>
      <trkpt lat="50.87468" lon="2.7931">
        <ele>17.3</ele>
        <time>2020-06-23T15:03:31Z</time>
      </trkpt>
      <trkpt lat="50.87463" lon="2.79315">
        <ele>17.4</ele>
        <time>2020-06-23T15:03:32Z</time>
      </trkpt>
      <trkpt lat="50.87458" lon="2.7932">
        <ele>17.5</ele>
        <time>2020-06-23T15:03:33Z</time>
      </trkpt>
      <trkpt lat="50.87453" lon="2.79324">
        <ele>17.5</ele>
        <time>2020-06-23T15:03:34Z</time>
      </trkpt>
      <trkpt lat="50.87449" lon="2.79329">
        <ele>17.5</ele>
        <time>2020-06-23T15:03:35Z</time>
      </trkpt>
      <trkpt lat="50.87446" lon="2.79337">
        <ele>17.5</ele>
        <time>2020-06-23T15:03:36Z</time>
      </trkpt>
      <trkpt lat="50.87442" lon="2.79341">
        <ele>17.5</ele>
        <time>2020-06-23T15:03:37Z</time>
      </trkpt>
      <trkpt lat="50.87438" lon="2.79347">
        <ele>17.5</ele>
        <time>2020-06-23T15:03:38Z</time>
      </trkpt>
      <trkpt lat="50.87435" lon="2.79354">
        <ele>17.5</ele>
        <time>2020-06-23T15:03:39Z</time>
      </trkpt>
      <trkpt lat="50.87431" lon="2.7936">
        <ele>17.5</ele>
        <time>2020-06-23T15:03:40Z</time>
      </trkpt>
      <trkpt lat="50.87425" lon="2.79367">
        <ele>17.5</ele>
        <time>2020-06-23T15:03:41Z</time>
      </trkpt>
      <trkpt lat="50.8742" lon="2.79373">
        <ele>17.6</ele>
        <time>2020-06-23T15:03:42Z</time>
      </trkpt>
      <trkpt lat="50.87416" lon="2.79379">
        <ele>17.6</ele>
        <time>2020-06-23T15:03:43Z</time>
      </trkpt>
      <trkpt lat="50.87412" lon="2.79386">
        <ele>17.6</ele>
        <time>2020-06-23T15:03:44Z</time>
      </trkpt>
      <trkpt lat="50.87407" lon="2.79393">
        <ele>17.7</ele>
        <time>2020-06-23T15:03:45Z</time>
      </trkpt>
      <trkpt lat="50.87404" lon="2.794">
        <ele>17.7</ele>
        <time>2020-06-23T15:03:46Z</time>
      </trkpt>
      <trkpt lat="50.874" lon="2.79405">
        <ele>17.7</ele>
        <time>2020-06-23T15:03:47Z</time>
      </trkpt>
      <trkpt lat="50.87397" lon="2.79411">
        <ele>17.8</ele>
        <time>2020-06-23T15:03:48Z</time>
      </trkpt>
      <trkpt lat="50.87393" lon="2.79416">
        <ele>17.8</ele>
        <time>2020-06-23T15:03:49Z</time>
      </trkpt>
      <trkpt lat="50.87389" lon="2.79421">
        <ele>17.9</ele>
        <time>2020-06-23T15:03:50Z</time>
      </trkpt>
      <trkpt lat="50.87386" lon="2.79426">
        <ele>17.9</ele>
        <time>2020-06-23T15:03:51Z</time>
      </trkpt>
      <trkpt lat="50.87382" lon="2.79432">
        <ele>17.8</ele>
        <time>2020-06-23T15:03:52Z</time>
      </trkpt>
      <trkpt lat="50.87378" lon="2.7944">
        <ele>17.8</ele>
        <time>2020-06-23T15:03:53Z</time>
      </trkpt>
      <trkpt lat="50.87375" lon="2.79446">
        <ele>17.7</ele>
        <time>2020-06-23T15:03:54Z</time>
      </trkpt>
      <trkpt lat="50.87371" lon="2.79454">
        <ele>17.7</ele>
        <time>2020-06-23T15:03:55Z</time>
      </trkpt>
      <trkpt lat="50.87367" lon="2.79462">
        <ele>17.6</ele>
        <time>2020-06-23T15:03:56Z</time>
      </trkpt>
      <trkpt lat="50.87363" lon="2.79471">
        <ele>17.5</ele>
        <time>2020-06-23T15:03:57Z</time>
      </trkpt>
      <trkpt lat="50.87358" lon="2.79478">
        <ele>17.4</ele>
        <time>2020-06-23T15:03:58Z</time>
      </trkpt>
      <trkpt lat="50.87354" lon="2.79486">
        <ele>17.3</ele>
        <time>2020-06-23T15:03:59Z</time>
      </trkpt>
      <trkpt lat="50.87349" lon="2.79494">
        <ele>17.3</ele>
        <time>2020-06-23T15:04:00Z</time>
      </trkpt>
      <trkpt lat="50.87345" lon="2.79501">
        <ele>17.2</ele>
        <time>2020-06-23T15:04:01Z</time>
      </trkpt>
      <trkpt lat="50.87341" lon="2.79509">
        <ele>17.2</ele>
        <time>2020-06-23T15:04:02Z</time>
      </trkpt>
      <trkpt lat="50.87337" lon="2.79516">
        <ele>17.1</ele>
        <time>2020-06-23T15:04:03Z</time>
      </trkpt>
      <trkpt lat="50.87334" lon="2.79524">
        <ele>17.1</ele>
        <time>2020-06-23T15:04:04Z</time>
      </trkpt>
      <trkpt lat="50.87329" lon="2.79532">
        <ele>17</ele>
        <time>2020-06-23T15:04:05Z</time>
      </trkpt>
      <trkpt lat="50.87326" lon="2.79539">
        <ele>16.9</ele>
        <time>2020-06-23T15:04:06Z</time>
      </trkpt>
      <trkpt lat="50.87322" lon="2.79547">
        <ele>16.8</ele>
        <time>2020-06-23T15:04:07Z</time>
      </trkpt>
      <trkpt lat="50.87317" lon="2.79554">
        <ele>16.7</ele>
        <time>2020-06-23T15:04:08Z</time>
      </trkpt>
      <trkpt lat="50.87313" lon="2.79563">
        <ele>16.6</ele>
        <time>2020-06-23T15:04:09Z</time>
      </trkpt>
      <trkpt lat="50.87308" lon="2.79571">
        <ele>16.5</ele>
        <time>2020-06-23T15:04:10Z</time>
      </trkpt>
      <trkpt lat="50.87305" lon="2.79581">
        <ele>16.4</ele>
        <time>2020-06-23T15:04:11Z</time>
      </trkpt>
      <trkpt lat="50.87301" lon="2.79589">
        <ele>16.3</ele>
        <time>2020-06-23T15:04:12Z</time>
      </trkpt>
      <trkpt lat="50.87297" lon="2.79597">
        <ele>16.2</ele>
        <time>2020-06-23T15:04:13Z</time>
      </trkpt>
      <trkpt lat="50.87293" lon="2.79603">
        <ele>16.2</ele>
        <time>2020-06-23T15:04:14Z</time>
      </trkpt>
      <trkpt lat="50.8729" lon="2.79612">
        <ele>16.1</ele>
        <time>2020-06-23T15:04:15Z</time>
      </trkpt>
      <trkpt lat="50.87286" lon="2.79621">
        <ele>16</ele>
        <time>2020-06-23T15:04:16Z</time>
      </trkpt>
      <trkpt lat="50.87283" lon="2.79629">
        <ele>15.9</ele>
        <time>2020-06-23T15:04:17Z</time>
      </trkpt>
      <trkpt lat="50.87279" lon="2.79638">
        <ele>15.8</ele>
        <time>2020-06-23T15:04:18Z</time>
      </trkpt>
      <trkpt lat="50.87276" lon="2.79647">
        <ele>15.7</ele>
        <time>2020-06-23T15:04:19Z</time>
      </trkpt>
      <trkpt lat="50.87272" lon="2.79656">
        <ele>15.6</ele>
        <time>2020-06-23T15:04:20Z</time>
      </trkpt>
      <trkpt lat="50.87269" lon="2.79665">
        <ele>15.5</ele>
        <time>2020-06-23T15:04:21Z</time>
      </trkpt>
      <trkpt lat="50.87265" lon="2.79673">
        <ele>15.3</ele>
        <time>2020-06-23T15:04:22Z</time>
      </trkpt>
      <trkpt lat="50.87261" lon="2.79682">
        <ele>15.2</ele>
        <time>2020-06-23T15:04:23Z</time>
      </trkpt>
      <trkpt lat="50.87257" lon="2.79691">
        <ele>15</ele>
        <time>2020-06-23T15:04:24Z</time>
      </trkpt>
      <trkpt lat="50.87253" lon="2.79699">
        <ele>14.9</ele>
        <time>2020-06-23T15:04:25Z</time>
      </trkpt>
      <trkpt lat="50.87249" lon="2.79706">
        <ele>14.8</ele>
        <time>2020-06-23T15:04:26Z</time>
      </trkpt>
      <trkpt lat="50.87245" lon="2.79715">
        <ele>14.7</ele>
        <time>2020-06-23T15:04:27Z</time>
      </trkpt>
      <trkpt lat="50.87241" lon="2.79725">
        <ele>14.6</ele>
        <time>2020-06-23T15:04:28Z</time>
      </trkpt>
      <trkpt lat="50.87237" lon="2.79735">
        <ele>14.5</ele>
        <time>2020-06-23T15:04:29Z</time>
      </trkpt>
      <trkpt lat="50.87232" lon="2.79745">
        <ele>14.5</ele>
        <time>2020-06-23T15:04:30Z</time>
      </trkpt>
      <trkpt lat="50.87228" lon="2.79754">
        <ele>14.4</ele>
        <time>2020-06-23T15:04:31Z</time>
      </trkpt>
      <trkpt lat="50.87224" lon="2.79764">
        <ele>14.4</ele>
        <time>2020-06-23T15:04:32Z</time>
      </trkpt>
      <trkpt lat="50.8722" lon="2.79774">
        <ele>14.3</ele>
        <time>2020-06-23T15:04:33Z</time>
      </trkpt>
      <trkpt lat="50.87215" lon="2.79784">
        <ele>14.2</ele>
        <time>2020-06-23T15:04:34Z</time>
      </trkpt>
      <trkpt lat="50.87212" lon="2.79795">
        <ele>14.1</ele>
        <time>2020-06-23T15:04:35Z</time>
      </trkpt>
      <trkpt lat="50.87207" lon="2.79805">
        <ele>14.1</ele>
        <time>2020-06-23T15:04:36Z</time>
      </trkpt>
      <trkpt lat="50.87203" lon="2.79815">
        <ele>14.1</ele>
        <time>2020-06-23T15:04:37Z</time>
      </trkpt>
      <trkpt lat="50.872" lon="2.79826">
        <ele>14.1</ele>
        <time>2020-06-23T15:04:38Z</time>
      </trkpt>
      <trkpt lat="50.87196" lon="2.79836">
        <ele>14.2</ele>
        <time>2020-06-23T15:04:39Z</time>
      </trkpt>
      <trkpt lat="50.87194" lon="2.79847">
        <ele>14.2</ele>
        <time>2020-06-23T15:04:40Z</time>
      </trkpt>
      <trkpt lat="50.87191" lon="2.79857">
        <ele>14.3</ele>
        <time>2020-06-23T15:04:41Z</time>
      </trkpt>
      <trkpt lat="50.87188" lon="2.79867">
        <ele>14.3</ele>
        <time>2020-06-23T15:04:42Z</time>
      </trkpt>
      <trkpt lat="50.87186" lon="2.79877">
        <ele>14.3</ele>
        <time>2020-06-23T15:04:43Z</time>
      </trkpt>
      <trkpt lat="50.87183" lon="2.79887">
        <ele>14.4</ele>
        <time>2020-06-23T15:04:44Z</time>
      </trkpt>
      <trkpt lat="50.8718" lon="2.79896">
        <ele>14.5</ele>
        <time>2020-06-23T15:04:45Z</time>
      </trkpt>
      <trkpt lat="50.87177" lon="2.79905">
        <ele>14.5</ele>
        <time>2020-06-23T15:04:46Z</time>
      </trkpt>
      <trkpt lat="50.87175" lon="2.79914">
        <ele>14.6</ele>
        <time>2020-06-23T15:04:47Z</time>
      </trkpt>
      <trkpt lat="50.87172" lon="2.79923">
        <ele>14.8</ele>
        <time>2020-06-23T15:04:48Z</time>
      </trkpt>
      <trkpt lat="50.87169" lon="2.79933">
        <ele>14.9</ele>
        <time>2020-06-23T15:04:49Z</time>
      </trkpt>
      <trkpt lat="50.87166" lon="2.79942">
        <ele>15</ele>
        <time>2020-06-23T15:04:50Z</time>
      </trkpt>
      <trkpt lat="50.87163" lon="2.7995">
        <ele>15.2</ele>
        <time>2020-06-23T15:04:51Z</time>
      </trkpt>
      <trkpt lat="50.87161" lon="2.79959">
        <ele>15.4</ele>
        <time>2020-06-23T15:04:52Z</time>
      </trkpt>
      <trkpt lat="50.87158" lon="2.79968">
        <ele>15.6</ele>
        <time>2020-06-23T15:04:53Z</time>
      </trkpt>
      <trkpt lat="50.87155" lon="2.79977">
        <ele>15.6</ele>
        <time>2020-06-23T15:04:54Z</time>
      </trkpt>
      <trkpt lat="50.87152" lon="2.79985">
        <ele>15.6</ele>
        <time>2020-06-23T15:04:55Z</time>
      </trkpt>
      <trkpt lat="50.87149" lon="2.79993">
        <ele>15.5</ele>
        <time>2020-06-23T15:04:56Z</time>
      </trkpt>
      <trkpt lat="50.87146" lon="2.80001">
        <ele>15.5</ele>
        <time>2020-06-23T15:04:57Z</time>
      </trkpt>
      <trkpt lat="50.87141" lon="2.80008">
        <ele>15.5</ele>
        <time>2020-06-23T15:04:58Z</time>
      </trkpt>
      <trkpt lat="50.87138" lon="2.80017">
        <ele>15.5</ele>
        <time>2020-06-23T15:04:59Z</time>
      </trkpt>
      <trkpt lat="50.87133" lon="2.80024">
        <ele>15.5</ele>
        <time>2020-06-23T15:05:00Z</time>
      </trkpt>
      <trkpt lat="50.87129" lon="2.80032">
        <ele>15.5</ele>
        <time>2020-06-23T15:05:01Z</time>
      </trkpt>
      <trkpt lat="50.87124" lon="2.8004">
        <ele>15.4</ele>
        <time>2020-06-23T15:05:02Z</time>
      </trkpt>
      <trkpt lat="50.87119" lon="2.80048">
        <ele>15.4</ele>
        <time>2020-06-23T15:05:03Z</time>
      </trkpt>
      <trkpt lat="50.87114" lon="2.80054">
        <ele>15.4</ele>
        <time>2020-06-23T15:05:04Z</time>
      </trkpt>
      <trkpt lat="50.87109" lon="2.80062">
        <ele>15.4</ele>
        <time>2020-06-23T15:05:05Z</time>
      </trkpt>
      <trkpt lat="50.87105" lon="2.80068">
        <ele>15.4</ele>
        <time>2020-06-23T15:05:06Z</time>
      </trkpt>
      <trkpt lat="50.871" lon="2.80075">
        <ele>15.4</ele>
        <time>2020-06-23T15:05:07Z</time>
      </trkpt>
      <trkpt lat="50.87095" lon="2.80082">
        <ele>15.4</ele>
        <time>2020-06-23T15:05:08Z</time>
      </trkpt>
      <trkpt lat="50.8709" lon="2.8009">
        <ele>15.4</ele>
        <time>2020-06-23T15:05:09Z</time>
      </trkpt>
      <trkpt lat="50.87086" lon="2.80097">
        <ele>15.4</ele>
        <time>2020-06-23T15:05:10Z</time>
      </trkpt>
      <trkpt lat="50.87081" lon="2.80103">
        <ele>15.5</ele>
        <time>2020-06-23T15:05:11Z</time>
      </trkpt>
      <trkpt lat="50.87076" lon="2.8011">
        <ele>15.4</ele>
        <time>2020-06-23T15:05:12Z</time>
      </trkpt>
      <trkpt lat="50.87071" lon="2.80117">
        <ele>15.4</ele>
        <time>2020-06-23T15:05:13Z</time>
      </trkpt>
      <trkpt lat="50.87065" lon="2.80123">
        <ele>15.4</ele>
        <time>2020-06-23T15:05:14Z</time>
      </trkpt>
      <trkpt lat="50.8706" lon="2.80129">
        <ele>15.3</ele>
        <time>2020-06-23T15:05:15Z</time>
      </trkpt>
      <trkpt lat="50.87057" lon="2.80135">
        <ele>15.3</ele>
        <time>2020-06-23T15:05:16Z</time>
      </trkpt>
      <trkpt lat="50.87052" lon="2.80143">
        <ele>15.2</ele>
        <time>2020-06-23T15:05:17Z</time>
      </trkpt>
      <trkpt lat="50.87047" lon="2.8015">
        <ele>15.2</ele>
        <time>2020-06-23T15:05:18Z</time>
      </trkpt>
      <trkpt lat="50.87043" lon="2.80157">
        <ele>15.1</ele>
        <time>2020-06-23T15:05:19Z</time>
      </trkpt>
      <trkpt lat="50.87039" lon="2.80163">
        <ele>15</ele>
        <time>2020-06-23T15:05:20Z</time>
      </trkpt>
      <trkpt lat="50.87035" lon="2.8017">
        <ele>15</ele>
        <time>2020-06-23T15:05:21Z</time>
      </trkpt>
      <trkpt lat="50.87031" lon="2.80176">
        <ele>14.9</ele>
        <time>2020-06-23T15:05:22Z</time>
      </trkpt>
      <trkpt lat="50.87028" lon="2.80183">
        <ele>14.9</ele>
        <time>2020-06-23T15:05:23Z</time>
      </trkpt>
      <trkpt lat="50.87024" lon="2.8019">
        <ele>14.8</ele>
        <time>2020-06-23T15:05:24Z</time>
      </trkpt>
      <trkpt lat="50.8702" lon="2.80197">
        <ele>14.8</ele>
        <time>2020-06-23T15:05:25Z</time>
      </trkpt>
      <trkpt lat="50.87017" lon="2.80205">
        <ele>14.7</ele>
        <time>2020-06-23T15:05:26Z</time>
      </trkpt>
      <trkpt lat="50.87013" lon="2.80214">
        <ele>14.6</ele>
        <time>2020-06-23T15:05:27Z</time>
      </trkpt>
      <trkpt lat="50.8701" lon="2.80222">
        <ele>14.5</ele>
        <time>2020-06-23T15:05:28Z</time>
      </trkpt>
      <trkpt lat="50.87006" lon="2.80229">
        <ele>14.5</ele>
        <time>2020-06-23T15:05:29Z</time>
      </trkpt>
      <trkpt lat="50.87001" lon="2.80236">
        <ele>14.4</ele>
        <time>2020-06-23T15:05:30Z</time>
      </trkpt>
      <trkpt lat="50.86997" lon="2.80243">
        <ele>14.3</ele>
        <time>2020-06-23T15:05:31Z</time>
      </trkpt>
      <trkpt lat="50.86993" lon="2.8025">
        <ele>14.2</ele>
        <time>2020-06-23T15:05:32Z</time>
      </trkpt>
      <trkpt lat="50.86989" lon="2.80258">
        <ele>14.1</ele>
        <time>2020-06-23T15:05:33Z</time>
      </trkpt>
      <trkpt lat="50.86985" lon="2.80266">
        <ele>14</ele>
        <time>2020-06-23T15:05:34Z</time>
      </trkpt>
      <trkpt lat="50.86982" lon="2.80275">
        <ele>13.9</ele>
        <time>2020-06-23T15:05:35Z</time>
      </trkpt>
      <trkpt lat="50.86978" lon="2.80285">
        <ele>13.8</ele>
        <time>2020-06-23T15:05:36Z</time>
      </trkpt>
      <trkpt lat="50.86974" lon="2.80294">
        <ele>13.6</ele>
        <time>2020-06-23T15:05:37Z</time>
      </trkpt>
      <trkpt lat="50.8697" lon="2.80303">
        <ele>13.5</ele>
        <time>2020-06-23T15:05:38Z</time>
      </trkpt>
      <trkpt lat="50.86967" lon="2.80311">
        <ele>13.3</ele>
        <time>2020-06-23T15:05:39Z</time>
      </trkpt>
      <trkpt lat="50.86964" lon="2.80321">
        <ele>13.2</ele>
        <time>2020-06-23T15:05:40Z</time>
      </trkpt>
      <trkpt lat="50.86961" lon="2.8033">
        <ele>13.1</ele>
        <time>2020-06-23T15:05:41Z</time>
      </trkpt>
      <trkpt lat="50.86958" lon="2.80339">
        <ele>13.1</ele>
        <time>2020-06-23T15:05:42Z</time>
      </trkpt>
      <trkpt lat="50.86956" lon="2.80349">
        <ele>13</ele>
        <time>2020-06-23T15:05:43Z</time>
      </trkpt>
      <trkpt lat="50.86954" lon="2.80359">
        <ele>13</ele>
        <time>2020-06-23T15:05:44Z</time>
      </trkpt>
      <trkpt lat="50.86951" lon="2.80369">
        <ele>12.9</ele>
        <time>2020-06-23T15:05:45Z</time>
      </trkpt>
      <trkpt lat="50.8695" lon="2.80379">
        <ele>12.9</ele>
        <time>2020-06-23T15:05:46Z</time>
      </trkpt>
      <trkpt lat="50.86947" lon="2.80389">
        <ele>12.9</ele>
        <time>2020-06-23T15:05:47Z</time>
      </trkpt>
      <trkpt lat="50.86945" lon="2.80398">
        <ele>12.8</ele>
        <time>2020-06-23T15:05:48Z</time>
      </trkpt>
      <trkpt lat="50.86943" lon="2.80407">
        <ele>12.8</ele>
        <time>2020-06-23T15:05:49Z</time>
      </trkpt>
      <trkpt lat="50.86939" lon="2.80416">
        <ele>12.8</ele>
        <time>2020-06-23T15:05:50Z</time>
      </trkpt>
      <trkpt lat="50.86936" lon="2.80425">
        <ele>12.8</ele>
        <time>2020-06-23T15:05:51Z</time>
      </trkpt>
      <trkpt lat="50.86932" lon="2.80433">
        <ele>12.7</ele>
        <time>2020-06-23T15:05:52Z</time>
      </trkpt>
      <trkpt lat="50.86928" lon="2.80441">
        <ele>12.7</ele>
        <time>2020-06-23T15:05:53Z</time>
      </trkpt>
      <trkpt lat="50.86923" lon="2.80449">
        <ele>12.6</ele>
        <time>2020-06-23T15:05:54Z</time>
      </trkpt>
      <trkpt lat="50.86918" lon="2.80456">
        <ele>12.6</ele>
        <time>2020-06-23T15:05:55Z</time>
      </trkpt>
      <trkpt lat="50.86914" lon="2.80464">
        <ele>12.5</ele>
        <time>2020-06-23T15:05:56Z</time>
      </trkpt>
      <trkpt lat="50.86909" lon="2.80471">
        <ele>12.4</ele>
        <time>2020-06-23T15:05:57Z</time>
      </trkpt>
      <trkpt lat="50.86904" lon="2.80479">
        <ele>12.4</ele>
        <time>2020-06-23T15:05:58Z</time>
      </trkpt>
      <trkpt lat="50.86898" lon="2.80486">
        <ele>12.4</ele>
        <time>2020-06-23T15:05:59Z</time>
      </trkpt>
      <trkpt lat="50.86894" lon="2.80493">
        <ele>12.4</ele>
        <time>2020-06-23T15:06:00Z</time>
      </trkpt>
      <trkpt lat="50.86889" lon="2.805">
        <ele>12.4</ele>
        <time>2020-06-23T15:06:01Z</time>
      </trkpt>
      <trkpt lat="50.86883" lon="2.80506">
        <ele>12.4</ele>
        <time>2020-06-23T15:06:02Z</time>
      </trkpt>
      <trkpt lat="50.86878" lon="2.80514">
        <ele>12.5</ele>
        <time>2020-06-23T15:06:03Z</time>
      </trkpt>
      <trkpt lat="50.86873" lon="2.80521">
        <ele>12.5</ele>
        <time>2020-06-23T15:06:04Z</time>
      </trkpt>
      <trkpt lat="50.86868" lon="2.80528">
        <ele>12.6</ele>
        <time>2020-06-23T15:06:05Z</time>
      </trkpt>
      <trkpt lat="50.86863" lon="2.80535">
        <ele>12.7</ele>
        <time>2020-06-23T15:06:06Z</time>
      </trkpt>
      <trkpt lat="50.86858" lon="2.80542">
        <ele>12.9</ele>
        <time>2020-06-23T15:06:07Z</time>
      </trkpt>
      <trkpt lat="50.86853" lon="2.8055">
        <ele>13</ele>
        <time>2020-06-23T15:06:08Z</time>
      </trkpt>
      <trkpt lat="50.86848" lon="2.80557">
        <ele>13</ele>
        <time>2020-06-23T15:06:09Z</time>
      </trkpt>
      <trkpt lat="50.86844" lon="2.80565">
        <ele>13.1</ele>
        <time>2020-06-23T15:06:10Z</time>
      </trkpt>
      <trkpt lat="50.86839" lon="2.80572">
        <ele>13.1</ele>
        <time>2020-06-23T15:06:11Z</time>
      </trkpt>
      <trkpt lat="50.86835" lon="2.80578">
        <ele>13.1</ele>
        <time>2020-06-23T15:06:12Z</time>
      </trkpt>
      <trkpt lat="50.8683" lon="2.80585">
        <ele>13.1</ele>
        <time>2020-06-23T15:06:13Z</time>
      </trkpt>
      <trkpt lat="50.86826" lon="2.80592">
        <ele>13.1</ele>
        <time>2020-06-23T15:06:14Z</time>
      </trkpt>
      <trkpt lat="50.86821" lon="2.80599">
        <ele>13</ele>
        <time>2020-06-23T15:06:15Z</time>
      </trkpt>
      <trkpt lat="50.86817" lon="2.80607">
        <ele>13</ele>
        <time>2020-06-23T15:06:16Z</time>
      </trkpt>
      <trkpt lat="50.86814" lon="2.80614">
        <ele>13</ele>
        <time>2020-06-23T15:06:17Z</time>
      </trkpt>
      <trkpt lat="50.8681" lon="2.80622">
        <ele>12.9</ele>
        <time>2020-06-23T15:06:18Z</time>
      </trkpt>
      <trkpt lat="50.86806" lon="2.8063">
        <ele>12.9</ele>
        <time>2020-06-23T15:06:19Z</time>
      </trkpt>
      <trkpt lat="50.86803" lon="2.80638">
        <ele>12.9</ele>
        <time>2020-06-23T15:06:20Z</time>
      </trkpt>
      <trkpt lat="50.868" lon="2.80646">
        <ele>12.8</ele>
        <time>2020-06-23T15:06:21Z</time>
      </trkpt>
      <trkpt lat="50.86796" lon="2.80654">
        <ele>12.8</ele>
        <time>2020-06-23T15:06:22Z</time>
      </trkpt>
      <trkpt lat="50.86792" lon="2.80662">
        <ele>12.8</ele>
        <time>2020-06-23T15:06:23Z</time>
      </trkpt>
      <trkpt lat="50.86789" lon="2.8067">
        <ele>12.7</ele>
        <time>2020-06-23T15:06:24Z</time>
      </trkpt>
      <trkpt lat="50.86785" lon="2.80677">
        <ele>12.7</ele>
        <time>2020-06-23T15:06:25Z</time>
      </trkpt>
      <trkpt lat="50.86782" lon="2.80685">
        <ele>12.8</ele>
        <time>2020-06-23T15:06:26Z</time>
      </trkpt>
      <trkpt lat="50.86778" lon="2.80693">
        <ele>12.8</ele>
        <time>2020-06-23T15:06:27Z</time>
      </trkpt>
      <trkpt lat="50.86775" lon="2.80701">
        <ele>12.8</ele>
        <time>2020-06-23T15:06:28Z</time>
      </trkpt>
      <trkpt lat="50.86772" lon="2.8071">
        <ele>12.8</ele>
        <time>2020-06-23T15:06:29Z</time>
      </trkpt>
      <trkpt lat="50.86769" lon="2.8072">
        <ele>12.9</ele>
        <time>2020-06-23T15:06:30Z</time>
      </trkpt>
      <trkpt lat="50.86765" lon="2.8073">
        <ele>13</ele>
        <time>2020-06-23T15:06:31Z</time>
      </trkpt>
      <trkpt lat="50.86763" lon="2.80739">
        <ele>13.1</ele>
        <time>2020-06-23T15:06:32Z</time>
      </trkpt>
      <trkpt lat="50.8676" lon="2.80747">
        <ele>13.2</ele>
        <time>2020-06-23T15:06:33Z</time>
      </trkpt>
      <trkpt lat="50.86758" lon="2.80755">
        <ele>13.3</ele>
        <time>2020-06-23T15:06:34Z</time>
      </trkpt>
      <trkpt lat="50.86756" lon="2.80764">
        <ele>13.5</ele>
        <time>2020-06-23T15:06:35Z</time>
      </trkpt>
      <trkpt lat="50.86753" lon="2.80771">
        <ele>13.5</ele>
        <time>2020-06-23T15:06:36Z</time>
      </trkpt>
      <trkpt lat="50.86751" lon="2.8078">
        <ele>13.6</ele>
        <time>2020-06-23T15:06:37Z</time>
      </trkpt>
      <trkpt lat="50.86747" lon="2.80789">
        <ele>13.7</ele>
        <time>2020-06-23T15:06:38Z</time>
      </trkpt>
      <trkpt lat="50.86744" lon="2.80798">
        <ele>13.7</ele>
        <time>2020-06-23T15:06:39Z</time>
      </trkpt>
      <trkpt lat="50.86741" lon="2.80808">
        <ele>13.7</ele>
        <time>2020-06-23T15:06:40Z</time>
      </trkpt>
      <trkpt lat="50.86738" lon="2.80816">
        <ele>13.8</ele>
        <time>2020-06-23T15:06:41Z</time>
      </trkpt>
      <trkpt lat="50.86735" lon="2.80825">
        <ele>13.8</ele>
        <time>2020-06-23T15:06:42Z</time>
      </trkpt>
      <trkpt lat="50.86731" lon="2.80832">
        <ele>13.8</ele>
        <time>2020-06-23T15:06:43Z</time>
      </trkpt>
      <trkpt lat="50.86728" lon="2.80839">
        <ele>13.8</ele>
        <time>2020-06-23T15:06:44Z</time>
      </trkpt>
      <trkpt lat="50.86724" lon="2.80846">
        <ele>13.8</ele>
        <time>2020-06-23T15:06:45Z</time>
      </trkpt>
      <trkpt lat="50.86719" lon="2.80854">
        <ele>13.8</ele>
        <time>2020-06-23T15:06:46Z</time>
      </trkpt>
      <trkpt lat="50.86714" lon="2.80861">
        <ele>13.8</ele>
        <time>2020-06-23T15:06:47Z</time>
      </trkpt>
      <trkpt lat="50.8671" lon="2.80867">
        <ele>13.8</ele>
        <time>2020-06-23T15:06:48Z</time>
      </trkpt>
      <trkpt lat="50.86706" lon="2.80874">
        <ele>13.8</ele>
        <time>2020-06-23T15:06:49Z</time>
      </trkpt>
      <trkpt lat="50.86701" lon="2.8088">
        <ele>13.8</ele>
        <time>2020-06-23T15:06:50Z</time>
      </trkpt>
      <trkpt lat="50.86696" lon="2.80885">
        <ele>13.8</ele>
        <time>2020-06-23T15:06:51Z</time>
      </trkpt>
      <trkpt lat="50.86691" lon="2.80889">
        <ele>13.8</ele>
        <time>2020-06-23T15:06:52Z</time>
      </trkpt>
      <trkpt lat="50.86685" lon="2.80893">
        <ele>13.8</ele>
        <time>2020-06-23T15:06:53Z</time>
      </trkpt>
      <trkpt lat="50.8668" lon="2.80898">
        <ele>13.9</ele>
        <time>2020-06-23T15:06:54Z</time>
      </trkpt>
      <trkpt lat="50.86675" lon="2.80902">
        <ele>13.9</ele>
        <time>2020-06-23T15:06:55Z</time>
      </trkpt>
      <trkpt lat="50.86669" lon="2.80906">
        <ele>13.9</ele>
        <time>2020-06-23T15:06:56Z</time>
      </trkpt>
      <trkpt lat="50.86664" lon="2.80909">
        <ele>13.9</ele>
        <time>2020-06-23T15:06:57Z</time>
      </trkpt>
      <trkpt lat="50.86658" lon="2.80912">
        <ele>14</ele>
        <time>2020-06-23T15:06:58Z</time>
      </trkpt>
      <trkpt lat="50.86653" lon="2.80915">
        <ele>14</ele>
        <time>2020-06-23T15:06:59Z</time>
      </trkpt>
      <trkpt lat="50.86648" lon="2.80918">
        <ele>14</ele>
        <time>2020-06-23T15:07:00Z</time>
      </trkpt>
      <trkpt lat="50.86642" lon="2.80921">
        <ele>14</ele>
        <time>2020-06-23T15:07:01Z</time>
      </trkpt>
      <trkpt lat="50.86636" lon="2.80925">
        <ele>14.1</ele>
        <time>2020-06-23T15:07:02Z</time>
      </trkpt>
      <trkpt lat="50.8663" lon="2.80929">
        <ele>14.1</ele>
        <time>2020-06-23T15:07:03Z</time>
      </trkpt>
      <trkpt lat="50.86625" lon="2.80932">
        <ele>14.1</ele>
        <time>2020-06-23T15:07:04Z</time>
      </trkpt>
      <trkpt lat="50.86619" lon="2.80935">
        <ele>14.1</ele>
        <time>2020-06-23T15:07:05Z</time>
      </trkpt>
      <trkpt lat="50.86613" lon="2.80938">
        <ele>14.1</ele>
        <time>2020-06-23T15:07:06Z</time>
      </trkpt>
      <trkpt lat="50.86606" lon="2.80941">
        <ele>14.1</ele>
        <time>2020-06-23T15:07:07Z</time>
      </trkpt>
      <trkpt lat="50.866" lon="2.80945">
        <ele>14.1</ele>
        <time>2020-06-23T15:07:08Z</time>
      </trkpt>
      <trkpt lat="50.86595" lon="2.80947">
        <ele>14.2</ele>
        <time>2020-06-23T15:07:09Z</time>
      </trkpt>
      <trkpt lat="50.86589" lon="2.8095">
        <ele>14.2</ele>
        <time>2020-06-23T15:07:10Z</time>
      </trkpt>
      <trkpt lat="50.86582" lon="2.80951">
        <ele>14.3</ele>
        <time>2020-06-23T15:07:11Z</time>
      </trkpt>
      <trkpt lat="50.86576" lon="2.80952">
        <ele>14.4</ele>
        <time>2020-06-23T15:07:12Z</time>
      </trkpt>
      <trkpt lat="50.8657" lon="2.80955">
        <ele>14.4</ele>
        <time>2020-06-23T15:07:13Z</time>
      </trkpt>
      <trkpt lat="50.86564" lon="2.80957">
        <ele>14.4</ele>
        <time>2020-06-23T15:07:14Z</time>
      </trkpt>
      <trkpt lat="50.86557" lon="2.8096">
        <ele>14.5</ele>
        <time>2020-06-23T15:07:15Z</time>
      </trkpt>
      <trkpt lat="50.86552" lon="2.80964">
        <ele>14.5</ele>
        <time>2020-06-23T15:07:16Z</time>
      </trkpt>
      <trkpt lat="50.86546" lon="2.80968">
        <ele>14.5</ele>
        <time>2020-06-23T15:07:17Z</time>
      </trkpt>
      <trkpt lat="50.86539" lon="2.80969">
        <ele>14.5</ele>
        <time>2020-06-23T15:07:18Z</time>
      </trkpt>
      <trkpt lat="50.86533" lon="2.80971">
        <ele>14.5</ele>
        <time>2020-06-23T15:07:19Z</time>
      </trkpt>
      <trkpt lat="50.86527" lon="2.80973">
        <ele>14.4</ele>
        <time>2020-06-23T15:07:20Z</time>
      </trkpt>
      <trkpt lat="50.8652" lon="2.80974">
        <ele>14.5</ele>
        <time>2020-06-23T15:07:21Z</time>
      </trkpt>
      <trkpt lat="50.86515" lon="2.80976">
        <ele>14.5</ele>
        <time>2020-06-23T15:07:22Z</time>
      </trkpt>
      <trkpt lat="50.8651" lon="2.80979">
        <ele>14.5</ele>
        <time>2020-06-23T15:07:23Z</time>
      </trkpt>
      <trkpt lat="50.86503" lon="2.80981">
        <ele>14.5</ele>
        <time>2020-06-23T15:07:24Z</time>
      </trkpt>
      <trkpt lat="50.86497" lon="2.80983">
        <ele>14.5</ele>
        <time>2020-06-23T15:07:25Z</time>
      </trkpt>
      <trkpt lat="50.86491" lon="2.80984">
        <ele>14.4</ele>
        <time>2020-06-23T15:07:26Z</time>
      </trkpt>
      <trkpt lat="50.86485" lon="2.80984">
        <ele>14.4</ele>
        <time>2020-06-23T15:07:27Z</time>
      </trkpt>
      <trkpt lat="50.86478" lon="2.80985">
        <ele>14.4</ele>
        <time>2020-06-23T15:07:28Z</time>
      </trkpt>
      <trkpt lat="50.86472" lon="2.80987">
        <ele>14.5</ele>
        <time>2020-06-23T15:07:29Z</time>
      </trkpt>
      <trkpt lat="50.86465" lon="2.80987">
        <ele>14.5</ele>
        <time>2020-06-23T15:07:30Z</time>
      </trkpt>
      <trkpt lat="50.86459" lon="2.80989">
        <ele>14.5</ele>
        <time>2020-06-23T15:07:31Z</time>
      </trkpt>
      <trkpt lat="50.86451" lon="2.80991">
        <ele>14.6</ele>
        <time>2020-06-23T15:07:32Z</time>
      </trkpt>
      <trkpt lat="50.86445" lon="2.80993">
        <ele>14.6</ele>
        <time>2020-06-23T15:07:33Z</time>
      </trkpt>
      <trkpt lat="50.8644" lon="2.80995">
        <ele>14.7</ele>
        <time>2020-06-23T15:07:34Z</time>
      </trkpt>
      <trkpt lat="50.86434" lon="2.80997">
        <ele>14.7</ele>
        <time>2020-06-23T15:07:35Z</time>
      </trkpt>
      <trkpt lat="50.86428" lon="2.80999">
        <ele>14.6</ele>
        <time>2020-06-23T15:07:36Z</time>
      </trkpt>
      <trkpt lat="50.86422" lon="2.81002">
        <ele>14.6</ele>
        <time>2020-06-23T15:07:37Z</time>
      </trkpt>
      <trkpt lat="50.86416" lon="2.81006">
        <ele>14.5</ele>
        <time>2020-06-23T15:07:38Z</time>
      </trkpt>
      <trkpt lat="50.86411" lon="2.81011">
        <ele>14.5</ele>
        <time>2020-06-23T15:07:39Z</time>
      </trkpt>
      <trkpt lat="50.86406" lon="2.81016">
        <ele>14.5</ele>
        <time>2020-06-23T15:07:40Z</time>
      </trkpt>
      <trkpt lat="50.86401" lon="2.81019">
        <ele>14.5</ele>
        <time>2020-06-23T15:07:41Z</time>
      </trkpt>
      <trkpt lat="50.86395" lon="2.81024">
        <ele>14.5</ele>
        <time>2020-06-23T15:07:42Z</time>
      </trkpt>
      <trkpt lat="50.86389" lon="2.8103">
        <ele>14.6</ele>
        <time>2020-06-23T15:07:43Z</time>
      </trkpt>
      <trkpt lat="50.86383" lon="2.81036">
        <ele>14.7</ele>
        <time>2020-06-23T15:07:44Z</time>
      </trkpt>
      <trkpt lat="50.86378" lon="2.81042">
        <ele>14.7</ele>
        <time>2020-06-23T15:07:45Z</time>
      </trkpt>
      <trkpt lat="50.86373" lon="2.81047">
        <ele>14.9</ele>
        <time>2020-06-23T15:07:46Z</time>
      </trkpt>
      <trkpt lat="50.86369" lon="2.81053">
        <ele>15</ele>
        <time>2020-06-23T15:07:47Z</time>
      </trkpt>
      <trkpt lat="50.86365" lon="2.81059">
        <ele>15.1</ele>
        <time>2020-06-23T15:07:48Z</time>
      </trkpt>
      <trkpt lat="50.8636" lon="2.81065">
        <ele>15.2</ele>
        <time>2020-06-23T15:07:49Z</time>
      </trkpt>
      <trkpt lat="50.86356" lon="2.81071">
        <ele>15.3</ele>
        <time>2020-06-23T15:07:50Z</time>
      </trkpt>
      <trkpt lat="50.86351" lon="2.81076">
        <ele>15.4</ele>
        <time>2020-06-23T15:07:51Z</time>
      </trkpt>
      <trkpt lat="50.86347" lon="2.81081">
        <ele>15.4</ele>
        <time>2020-06-23T15:07:52Z</time>
      </trkpt>
      <trkpt lat="50.86342" lon="2.81087">
        <ele>15.6</ele>
        <time>2020-06-23T15:07:53Z</time>
      </trkpt>
      <trkpt lat="50.86338" lon="2.81093">
        <ele>15.7</ele>
        <time>2020-06-23T15:07:54Z</time>
      </trkpt>
      <trkpt lat="50.86333" lon="2.81099">
        <ele>15.8</ele>
        <time>2020-06-23T15:07:55Z</time>
      </trkpt>
      <trkpt lat="50.86329" lon="2.81105">
        <ele>15.9</ele>
        <time>2020-06-23T15:07:56Z</time>
      </trkpt>
      <trkpt lat="50.86324" lon="2.81112">
        <ele>16</ele>
        <time>2020-06-23T15:07:57Z</time>
      </trkpt>
      <trkpt lat="50.86321" lon="2.81119">
        <ele>16</ele>
        <time>2020-06-23T15:07:58Z</time>
      </trkpt>
      <trkpt lat="50.86317" lon="2.81126">
        <ele>16.1</ele>
        <time>2020-06-23T15:07:59Z</time>
      </trkpt>
      <trkpt lat="50.86313" lon="2.81133">
        <ele>16.1</ele>
        <time>2020-06-23T15:08:00Z</time>
      </trkpt>
      <trkpt lat="50.86308" lon="2.8114">
        <ele>16.1</ele>
        <time>2020-06-23T15:08:01Z</time>
      </trkpt>
      <trkpt lat="50.86304" lon="2.81147">
        <ele>16</ele>
        <time>2020-06-23T15:08:02Z</time>
      </trkpt>
      <trkpt lat="50.86299" lon="2.81153">
        <ele>16</ele>
        <time>2020-06-23T15:08:03Z</time>
      </trkpt>
      <trkpt lat="50.86294" lon="2.8116">
        <ele>16.1</ele>
        <time>2020-06-23T15:08:04Z</time>
      </trkpt>
      <trkpt lat="50.8629" lon="2.81167">
        <ele>16.1</ele>
        <time>2020-06-23T15:08:05Z</time>
      </trkpt>
      <trkpt lat="50.86286" lon="2.81174">
        <ele>16.1</ele>
        <time>2020-06-23T15:08:06Z</time>
      </trkpt>
      <trkpt lat="50.86282" lon="2.81181">
        <ele>16</ele>
        <time>2020-06-23T15:08:07Z</time>
      </trkpt>
      <trkpt lat="50.86278" lon="2.81188">
        <ele>16</ele>
        <time>2020-06-23T15:08:08Z</time>
      </trkpt>
      <trkpt lat="50.86273" lon="2.81195">
        <ele>16</ele>
        <time>2020-06-23T15:08:09Z</time>
      </trkpt>
      <trkpt lat="50.86269" lon="2.81202">
        <ele>16</ele>
        <time>2020-06-23T15:08:10Z</time>
      </trkpt>
      <trkpt lat="50.86265" lon="2.81209">
        <ele>16</ele>
        <time>2020-06-23T15:08:11Z</time>
      </trkpt>
      <trkpt lat="50.86261" lon="2.81217">
        <ele>16</ele>
        <time>2020-06-23T15:08:12Z</time>
      </trkpt>
      <trkpt lat="50.86257" lon="2.81225">
        <ele>16</ele>
        <time>2020-06-23T15:08:13Z</time>
      </trkpt>
      <trkpt lat="50.86252" lon="2.81232">
        <ele>16</ele>
        <time>2020-06-23T15:08:14Z</time>
      </trkpt>
      <trkpt lat="50.86248" lon="2.81238">
        <ele>15.9</ele>
        <time>2020-06-23T15:08:15Z</time>
      </trkpt>
      <trkpt lat="50.86244" lon="2.81245">
        <ele>15.9</ele>
        <time>2020-06-23T15:08:16Z</time>
      </trkpt>
      <trkpt lat="50.86239" lon="2.81251">
        <ele>15.9</ele>
        <time>2020-06-23T15:08:17Z</time>
      </trkpt>
      <trkpt lat="50.86234" lon="2.81258">
        <ele>15.9</ele>
        <time>2020-06-23T15:08:18Z</time>
      </trkpt>
      <trkpt lat="50.86229" lon="2.81263">
        <ele>15.9</ele>
        <time>2020-06-23T15:08:19Z</time>
      </trkpt>
      <trkpt lat="50.86224" lon="2.81268">
        <ele>15.8</ele>
        <time>2020-06-23T15:08:20Z</time>
      </trkpt>
      <trkpt lat="50.86219" lon="2.81274">
        <ele>15.8</ele>
        <time>2020-06-23T15:08:21Z</time>
      </trkpt>
      <trkpt lat="50.86215" lon="2.8128">
        <ele>15.8</ele>
        <time>2020-06-23T15:08:22Z</time>
      </trkpt>
      <trkpt lat="50.8621" lon="2.81285">
        <ele>15.8</ele>
        <time>2020-06-23T15:08:23Z</time>
      </trkpt>
      <trkpt lat="50.86204" lon="2.81291">
        <ele>15.8</ele>
        <time>2020-06-23T15:08:24Z</time>
      </trkpt>
      <trkpt lat="50.86201" lon="2.81296">
        <ele>15.9</ele>
        <time>2020-06-23T15:08:25Z</time>
      </trkpt>
      <trkpt lat="50.86196" lon="2.81301">
        <ele>15.9</ele>
        <time>2020-06-23T15:08:26Z</time>
      </trkpt>
      <trkpt lat="50.86192" lon="2.81307">
        <ele>15.9</ele>
        <time>2020-06-23T15:08:27Z</time>
      </trkpt>
      <trkpt lat="50.86187" lon="2.81312">
        <ele>15.9</ele>
        <time>2020-06-23T15:08:28Z</time>
      </trkpt>
      <trkpt lat="50.86182" lon="2.81319">
        <ele>16</ele>
        <time>2020-06-23T15:08:29Z</time>
      </trkpt>
      <trkpt lat="50.86178" lon="2.81324">
        <ele>16</ele>
        <time>2020-06-23T15:08:30Z</time>
      </trkpt>
      <trkpt lat="50.86172" lon="2.81329">
        <ele>16</ele>
        <time>2020-06-23T15:08:31Z</time>
      </trkpt>
      <trkpt lat="50.86167" lon="2.81334">
        <ele>16.1</ele>
        <time>2020-06-23T15:08:32Z</time>
      </trkpt>
      <trkpt lat="50.86163" lon="2.81338">
        <ele>16.1</ele>
        <time>2020-06-23T15:08:33Z</time>
      </trkpt>
      <trkpt lat="50.86158" lon="2.81343">
        <ele>16.2</ele>
        <time>2020-06-23T15:08:34Z</time>
      </trkpt>
      <trkpt lat="50.86153" lon="2.81348">
        <ele>16.3</ele>
        <time>2020-06-23T15:08:35Z</time>
      </trkpt>
      <trkpt lat="50.86148" lon="2.81353">
        <ele>16.3</ele>
        <time>2020-06-23T15:08:36Z</time>
      </trkpt>
      <trkpt lat="50.86144" lon="2.81359">
        <ele>16.4</ele>
        <time>2020-06-23T15:08:37Z</time>
      </trkpt>
      <trkpt lat="50.8614" lon="2.81364">
        <ele>16.5</ele>
        <time>2020-06-23T15:08:38Z</time>
      </trkpt>
      <trkpt lat="50.86136" lon="2.8137">
        <ele>16.7</ele>
        <time>2020-06-23T15:08:39Z</time>
      </trkpt>
      <trkpt lat="50.86132" lon="2.81376">
        <ele>16.6</ele>
        <time>2020-06-23T15:08:40Z</time>
      </trkpt>
      <trkpt lat="50.86126" lon="2.81381">
        <ele>16.6</ele>
        <time>2020-06-23T15:08:41Z</time>
      </trkpt>
      <trkpt lat="50.86121" lon="2.81387">
        <ele>16.6</ele>
        <time>2020-06-23T15:08:42Z</time>
      </trkpt>
      <trkpt lat="50.86116" lon="2.81393">
        <ele>16.6</ele>
        <time>2020-06-23T15:08:43Z</time>
      </trkpt>
      <trkpt lat="50.86111" lon="2.81399">
        <ele>16.6</ele>
        <time>2020-06-23T15:08:44Z</time>
      </trkpt>
      <trkpt lat="50.86106" lon="2.81406">
        <ele>16.7</ele>
        <time>2020-06-23T15:08:45Z</time>
      </trkpt>
      <trkpt lat="50.86101" lon="2.81411">
        <ele>16.7</ele>
        <time>2020-06-23T15:08:46Z</time>
      </trkpt>
      <trkpt lat="50.86096" lon="2.81418">
        <ele>16.7</ele>
        <time>2020-06-23T15:08:47Z</time>
      </trkpt>
      <trkpt lat="50.86092" lon="2.81423">
        <ele>16.7</ele>
        <time>2020-06-23T15:08:48Z</time>
      </trkpt>
      <trkpt lat="50.86087" lon="2.8143">
        <ele>16.7</ele>
        <time>2020-06-23T15:08:49Z</time>
      </trkpt>
      <trkpt lat="50.86082" lon="2.81436">
        <ele>16.7</ele>
        <time>2020-06-23T15:08:50Z</time>
      </trkpt>
      <trkpt lat="50.86077" lon="2.81443">
        <ele>16.7</ele>
        <time>2020-06-23T15:08:51Z</time>
      </trkpt>
      <trkpt lat="50.86072" lon="2.81448">
        <ele>16.7</ele>
        <time>2020-06-23T15:08:52Z</time>
      </trkpt>
      <trkpt lat="50.86067" lon="2.81455">
        <ele>16.7</ele>
        <time>2020-06-23T15:08:53Z</time>
      </trkpt>
      <trkpt lat="50.86063" lon="2.81461">
        <ele>16.7</ele>
        <time>2020-06-23T15:08:54Z</time>
      </trkpt>
      <trkpt lat="50.86058" lon="2.81468">
        <ele>16.7</ele>
        <time>2020-06-23T15:08:55Z</time>
      </trkpt>
      <trkpt lat="50.86053" lon="2.81474">
        <ele>16.7</ele>
        <time>2020-06-23T15:08:56Z</time>
      </trkpt>
      <trkpt lat="50.86048" lon="2.8148">
        <ele>16.7</ele>
        <time>2020-06-23T15:08:57Z</time>
      </trkpt>
      <trkpt lat="50.86043" lon="2.81487">
        <ele>16.7</ele>
        <time>2020-06-23T15:08:58Z</time>
      </trkpt>
      <trkpt lat="50.86038" lon="2.81493">
        <ele>16.7</ele>
        <time>2020-06-23T15:08:59Z</time>
      </trkpt>
      <trkpt lat="50.86034" lon="2.81499">
        <ele>16.7</ele>
        <time>2020-06-23T15:09:00Z</time>
      </trkpt>
      <trkpt lat="50.86029" lon="2.81506">
        <ele>16.7</ele>
        <time>2020-06-23T15:09:01Z</time>
      </trkpt>
      <trkpt lat="50.86025" lon="2.81511">
        <ele>16.8</ele>
        <time>2020-06-23T15:09:02Z</time>
      </trkpt>
      <trkpt lat="50.86021" lon="2.81517">
        <ele>16.8</ele>
        <time>2020-06-23T15:09:03Z</time>
      </trkpt>
      <trkpt lat="50.86015" lon="2.81522">
        <ele>16.8</ele>
        <time>2020-06-23T15:09:04Z</time>
      </trkpt>
      <trkpt lat="50.8601" lon="2.81527">
        <ele>16.8</ele>
        <time>2020-06-23T15:09:05Z</time>
      </trkpt>
      <trkpt lat="50.86004" lon="2.81532">
        <ele>16.7</ele>
        <time>2020-06-23T15:09:06Z</time>
      </trkpt>
      <trkpt lat="50.85998" lon="2.81538">
        <ele>16.7</ele>
        <time>2020-06-23T15:09:07Z</time>
      </trkpt>
      <trkpt lat="50.85994" lon="2.81543">
        <ele>16.7</ele>
        <time>2020-06-23T15:09:08Z</time>
      </trkpt>
      <trkpt lat="50.8599" lon="2.81548">
        <ele>16.6</ele>
        <time>2020-06-23T15:09:09Z</time>
      </trkpt>
      <trkpt lat="50.85985" lon="2.81552">
        <ele>16.6</ele>
        <time>2020-06-23T15:09:10Z</time>
      </trkpt>
      <trkpt lat="50.85979" lon="2.81557">
        <ele>16.5</ele>
        <time>2020-06-23T15:09:11Z</time>
      </trkpt>
      <trkpt lat="50.85975" lon="2.81563">
        <ele>16.5</ele>
        <time>2020-06-23T15:09:12Z</time>
      </trkpt>
      <trkpt lat="50.8597" lon="2.81569">
        <ele>16.5</ele>
        <time>2020-06-23T15:09:13Z</time>
      </trkpt>
      <trkpt lat="50.85965" lon="2.81574">
        <ele>16.4</ele>
        <time>2020-06-23T15:09:14Z</time>
      </trkpt>
      <trkpt lat="50.8596" lon="2.8158">
        <ele>16.4</ele>
        <time>2020-06-23T15:09:15Z</time>
      </trkpt>
      <trkpt lat="50.85955" lon="2.81586">
        <ele>16.3</ele>
        <time>2020-06-23T15:09:16Z</time>
      </trkpt>
      <trkpt lat="50.8595" lon="2.81591">
        <ele>16.3</ele>
        <time>2020-06-23T15:09:17Z</time>
      </trkpt>
      <trkpt lat="50.85944" lon="2.81597">
        <ele>16.2</ele>
        <time>2020-06-23T15:09:18Z</time>
      </trkpt>
      <trkpt lat="50.85938" lon="2.81603">
        <ele>16.1</ele>
        <time>2020-06-23T15:09:19Z</time>
      </trkpt>
      <trkpt lat="50.85932" lon="2.8161">
        <ele>16.1</ele>
        <time>2020-06-23T15:09:20Z</time>
      </trkpt>
      <trkpt lat="50.85926" lon="2.81616">
        <ele>16</ele>
        <time>2020-06-23T15:09:21Z</time>
      </trkpt>
      <trkpt lat="50.85921" lon="2.81622">
        <ele>16</ele>
        <time>2020-06-23T15:09:22Z</time>
      </trkpt>
      <trkpt lat="50.85916" lon="2.81627">
        <ele>16</ele>
        <time>2020-06-23T15:09:23Z</time>
      </trkpt>
      <trkpt lat="50.85911" lon="2.81633">
        <ele>15.9</ele>
        <time>2020-06-23T15:09:24Z</time>
      </trkpt>
      <trkpt lat="50.85906" lon="2.81639">
        <ele>15.9</ele>
        <time>2020-06-23T15:09:25Z</time>
      </trkpt>
      <trkpt lat="50.85901" lon="2.81645">
        <ele>15.9</ele>
        <time>2020-06-23T15:09:26Z</time>
      </trkpt>
      <trkpt lat="50.85896" lon="2.81651">
        <ele>15.9</ele>
        <time>2020-06-23T15:09:27Z</time>
      </trkpt>
      <trkpt lat="50.8589" lon="2.81656">
        <ele>16</ele>
        <time>2020-06-23T15:09:28Z</time>
      </trkpt>
      <trkpt lat="50.85885" lon="2.81662">
        <ele>16</ele>
        <time>2020-06-23T15:09:29Z</time>
      </trkpt>
      <trkpt lat="50.8588" lon="2.81668">
        <ele>16</ele>
        <time>2020-06-23T15:09:30Z</time>
      </trkpt>
      <trkpt lat="50.85875" lon="2.81674">
        <ele>16</ele>
        <time>2020-06-23T15:09:31Z</time>
      </trkpt>
      <trkpt lat="50.85869" lon="2.81681">
        <ele>16</ele>
        <time>2020-06-23T15:09:32Z</time>
      </trkpt>
      <trkpt lat="50.85864" lon="2.81688">
        <ele>16</ele>
        <time>2020-06-23T15:09:33Z</time>
      </trkpt>
      <trkpt lat="50.85859" lon="2.81694">
        <ele>16</ele>
        <time>2020-06-23T15:09:34Z</time>
      </trkpt>
      <trkpt lat="50.85854" lon="2.81701">
        <ele>16</ele>
        <time>2020-06-23T15:09:35Z</time>
      </trkpt>
      <trkpt lat="50.85849" lon="2.81708">
        <ele>16</ele>
        <time>2020-06-23T15:09:36Z</time>
      </trkpt>
      <trkpt lat="50.85843" lon="2.81715">
        <ele>16</ele>
        <time>2020-06-23T15:09:37Z</time>
      </trkpt>
      <trkpt lat="50.85838" lon="2.81721">
        <ele>16</ele>
        <time>2020-06-23T15:09:38Z</time>
      </trkpt>
      <trkpt lat="50.85833" lon="2.81728">
        <ele>16.1</ele>
        <time>2020-06-23T15:09:39Z</time>
      </trkpt>
      <trkpt lat="50.85827" lon="2.81735">
        <ele>16.1</ele>
        <time>2020-06-23T15:09:40Z</time>
      </trkpt>
      <trkpt lat="50.85823" lon="2.81741">
        <ele>16.1</ele>
        <time>2020-06-23T15:09:41Z</time>
      </trkpt>
      <trkpt lat="50.85816" lon="2.81747">
        <ele>16.1</ele>
        <time>2020-06-23T15:09:42Z</time>
      </trkpt>
      <trkpt lat="50.85811" lon="2.81751">
        <ele>16.1</ele>
        <time>2020-06-23T15:09:43Z</time>
      </trkpt>
      <trkpt lat="50.85806" lon="2.81757">
        <ele>16</ele>
        <time>2020-06-23T15:09:44Z</time>
      </trkpt>
      <trkpt lat="50.85801" lon="2.81764">
        <ele>16</ele>
        <time>2020-06-23T15:09:45Z</time>
      </trkpt>
      <trkpt lat="50.85795" lon="2.81771">
        <ele>16</ele>
        <time>2020-06-23T15:09:46Z</time>
      </trkpt>
      <trkpt lat="50.8579" lon="2.81778">
        <ele>16.1</ele>
        <time>2020-06-23T15:09:47Z</time>
      </trkpt>
      <trkpt lat="50.85784" lon="2.81784">
        <ele>16.1</ele>
        <time>2020-06-23T15:09:48Z</time>
      </trkpt>
      <trkpt lat="50.85779" lon="2.8179">
        <ele>16.1</ele>
        <time>2020-06-23T15:09:49Z</time>
      </trkpt>
      <trkpt lat="50.85774" lon="2.81797">
        <ele>16.2</ele>
        <time>2020-06-23T15:09:50Z</time>
      </trkpt>
      <trkpt lat="50.85769" lon="2.81802">
        <ele>16.3</ele>
        <time>2020-06-23T15:09:51Z</time>
      </trkpt>
      <trkpt lat="50.85765" lon="2.81806">
        <ele>16.3</ele>
        <time>2020-06-23T15:09:52Z</time>
      </trkpt>
      <trkpt lat="50.8576" lon="2.81812">
        <ele>16.3</ele>
        <time>2020-06-23T15:09:53Z</time>
      </trkpt>
      <trkpt lat="50.85755" lon="2.81818">
        <ele>16.4</ele>
        <time>2020-06-23T15:09:54Z</time>
      </trkpt>
      <trkpt lat="50.85748" lon="2.81825">
        <ele>16.4</ele>
        <time>2020-06-23T15:09:55Z</time>
      </trkpt>
      <trkpt lat="50.85742" lon="2.81832">
        <ele>16.4</ele>
        <time>2020-06-23T15:09:56Z</time>
      </trkpt>
      <trkpt lat="50.85737" lon="2.81838">
        <ele>16.4</ele>
        <time>2020-06-23T15:09:57Z</time>
      </trkpt>
      <trkpt lat="50.85732" lon="2.81844">
        <ele>16.4</ele>
        <time>2020-06-23T15:09:58Z</time>
      </trkpt>
      <trkpt lat="50.85727" lon="2.81849">
        <ele>16.4</ele>
        <time>2020-06-23T15:09:59Z</time>
      </trkpt>
      <trkpt lat="50.85722" lon="2.81855">
        <ele>16.4</ele>
        <time>2020-06-23T15:10:00Z</time>
      </trkpt>
      <trkpt lat="50.85717" lon="2.81859">
        <ele>16.3</ele>
        <time>2020-06-23T15:10:01Z</time>
      </trkpt>
      <trkpt lat="50.85712" lon="2.81864">
        <ele>16.3</ele>
        <time>2020-06-23T15:10:02Z</time>
      </trkpt>
      <trkpt lat="50.85707" lon="2.81869">
        <ele>16.3</ele>
        <time>2020-06-23T15:10:03Z</time>
      </trkpt>
      <trkpt lat="50.85701" lon="2.81874">
        <ele>16.3</ele>
        <time>2020-06-23T15:10:04Z</time>
      </trkpt>
      <trkpt lat="50.85696" lon="2.81879">
        <ele>16.3</ele>
        <time>2020-06-23T15:10:05Z</time>
      </trkpt>
      <trkpt lat="50.8569" lon="2.81885">
        <ele>16.1</ele>
        <time>2020-06-23T15:10:06Z</time>
      </trkpt>
      <trkpt lat="50.85685" lon="2.8189">
        <ele>16</ele>
        <time>2020-06-23T15:10:07Z</time>
      </trkpt>
      <trkpt lat="50.8568" lon="2.81895">
        <ele>15.9</ele>
        <time>2020-06-23T15:10:08Z</time>
      </trkpt>
      <trkpt lat="50.85674" lon="2.81899">
        <ele>15.8</ele>
        <time>2020-06-23T15:10:09Z</time>
      </trkpt>
      <trkpt lat="50.85669" lon="2.81903">
        <ele>15.7</ele>
        <time>2020-06-23T15:10:10Z</time>
      </trkpt>
      <trkpt lat="50.85662" lon="2.81909">
        <ele>15.7</ele>
        <time>2020-06-23T15:10:11Z</time>
      </trkpt>
      <trkpt lat="50.85656" lon="2.81914">
        <ele>15.6</ele>
        <time>2020-06-23T15:10:12Z</time>
      </trkpt>
      <trkpt lat="50.85651" lon="2.81918">
        <ele>15.5</ele>
        <time>2020-06-23T15:10:13Z</time>
      </trkpt>
      <trkpt lat="50.85645" lon="2.81923">
        <ele>15.5</ele>
        <time>2020-06-23T15:10:14Z</time>
      </trkpt>
      <trkpt lat="50.8564" lon="2.81928">
        <ele>15.4</ele>
        <time>2020-06-23T15:10:15Z</time>
      </trkpt>
      <trkpt lat="50.85634" lon="2.81932">
        <ele>15.4</ele>
        <time>2020-06-23T15:10:16Z</time>
      </trkpt>
      <trkpt lat="50.85629" lon="2.81937">
        <ele>15.3</ele>
        <time>2020-06-23T15:10:17Z</time>
      </trkpt>
      <trkpt lat="50.85623" lon="2.81941">
        <ele>15.3</ele>
        <time>2020-06-23T15:10:18Z</time>
      </trkpt>
      <trkpt lat="50.85617" lon="2.81947">
        <ele>15.3</ele>
        <time>2020-06-23T15:10:19Z</time>
      </trkpt>
      <trkpt lat="50.85611" lon="2.81952">
        <ele>15.3</ele>
        <time>2020-06-23T15:10:20Z</time>
      </trkpt>
      <trkpt lat="50.85606" lon="2.81957">
        <ele>15.3</ele>
        <time>2020-06-23T15:10:21Z</time>
      </trkpt>
      <trkpt lat="50.85602" lon="2.81962">
        <ele>15.3</ele>
        <time>2020-06-23T15:10:22Z</time>
      </trkpt>
      <trkpt lat="50.85597" lon="2.81966">
        <ele>15.3</ele>
        <time>2020-06-23T15:10:23Z</time>
      </trkpt>
      <trkpt lat="50.85592" lon="2.8197">
        <ele>15.3</ele>
        <time>2020-06-23T15:10:24Z</time>
      </trkpt>
      <trkpt lat="50.85586" lon="2.81974">
        <ele>15.4</ele>
        <time>2020-06-23T15:10:25Z</time>
      </trkpt>
      <trkpt lat="50.85581" lon="2.81978">
        <ele>15.4</ele>
        <time>2020-06-23T15:10:26Z</time>
      </trkpt>
      <trkpt lat="50.85575" lon="2.81983">
        <ele>15.4</ele>
        <time>2020-06-23T15:10:27Z</time>
      </trkpt>
      <trkpt lat="50.85569" lon="2.81989">
        <ele>15.5</ele>
        <time>2020-06-23T15:10:28Z</time>
      </trkpt>
      <trkpt lat="50.85565" lon="2.81994">
        <ele>15.5</ele>
        <time>2020-06-23T15:10:29Z</time>
      </trkpt>
      <trkpt lat="50.8556" lon="2.81998">
        <ele>15.6</ele>
        <time>2020-06-23T15:10:30Z</time>
      </trkpt>
      <trkpt lat="50.85555" lon="2.82002">
        <ele>15.6</ele>
        <time>2020-06-23T15:10:31Z</time>
      </trkpt>
      <trkpt lat="50.85551" lon="2.82006">
        <ele>15.7</ele>
        <time>2020-06-23T15:10:32Z</time>
      </trkpt>
      <trkpt lat="50.85546" lon="2.8201">
        <ele>15.7</ele>
        <time>2020-06-23T15:10:33Z</time>
      </trkpt>
      <trkpt lat="50.85542" lon="2.82014">
        <ele>15.8</ele>
        <time>2020-06-23T15:10:34Z</time>
      </trkpt>
      <trkpt lat="50.85537" lon="2.82018">
        <ele>15.9</ele>
        <time>2020-06-23T15:10:35Z</time>
      </trkpt>
      <trkpt lat="50.85534" lon="2.82021">
        <ele>16</ele>
        <time>2020-06-23T15:10:36Z</time>
      </trkpt>
      <trkpt lat="50.8553" lon="2.82024">
        <ele>16.1</ele>
        <time>2020-06-23T15:10:37Z</time>
      </trkpt>
      <trkpt lat="50.85526" lon="2.82028">
        <ele>16.2</ele>
        <time>2020-06-23T15:10:38Z</time>
      </trkpt>
      <trkpt lat="50.85522" lon="2.82032">
        <ele>16.2</ele>
        <time>2020-06-23T15:10:39Z</time>
      </trkpt>
      <trkpt lat="50.85518" lon="2.82036">
        <ele>16.2</ele>
        <time>2020-06-23T15:10:40Z</time>
      </trkpt>
      <trkpt lat="50.85516" lon="2.82039">
        <ele>16.1</ele>
        <time>2020-06-23T15:10:41Z</time>
      </trkpt>
      <trkpt lat="50.85512" lon="2.82043">
        <ele>16</ele>
        <time>2020-06-23T15:10:42Z</time>
      </trkpt>
      <trkpt lat="50.85507" lon="2.8205">
        <ele>15.9</ele>
        <time>2020-06-23T15:10:43Z</time>
      </trkpt>
      <trkpt lat="50.85504" lon="2.82053">
        <ele>15.7</ele>
        <time>2020-06-23T15:10:44Z</time>
      </trkpt>
      <trkpt lat="50.855" lon="2.82056">
        <ele>15.6</ele>
        <time>2020-06-23T15:10:45Z</time>
      </trkpt>
      <trkpt lat="50.85498" lon="2.82062">
        <ele>15.5</ele>
        <time>2020-06-23T15:10:46Z</time>
      </trkpt>
      <trkpt lat="50.85495" lon="2.8207">
        <ele>15.4</ele>
        <time>2020-06-23T15:10:47Z</time>
      </trkpt>
      <trkpt lat="50.85493" lon="2.82075">
        <ele>15.4</ele>
        <time>2020-06-23T15:10:48Z</time>
      </trkpt>
      <trkpt lat="50.8549" lon="2.82082">
        <ele>15.3</ele>
        <time>2020-06-23T15:10:49Z</time>
      </trkpt>
      <trkpt lat="50.85487" lon="2.82088">
        <ele>15.2</ele>
        <time>2020-06-23T15:10:50Z</time>
      </trkpt>
      <trkpt lat="50.85483" lon="2.82093">
        <ele>15.2</ele>
        <time>2020-06-23T15:10:51Z</time>
      </trkpt>
      <trkpt lat="50.85479" lon="2.82098">
        <ele>15.1</ele>
        <time>2020-06-23T15:10:52Z</time>
      </trkpt>
      <trkpt lat="50.85475" lon="2.82103">
        <ele>15</ele>
        <time>2020-06-23T15:10:53Z</time>
      </trkpt>
      <trkpt lat="50.85472" lon="2.82108">
        <ele>15</ele>
        <time>2020-06-23T15:10:54Z</time>
      </trkpt>
      <trkpt lat="50.8547" lon="2.82114">
        <ele>14.9</ele>
        <time>2020-06-23T15:10:55Z</time>
      </trkpt>
      <trkpt lat="50.85468" lon="2.8212">
        <ele>14.9</ele>
        <time>2020-06-23T15:10:56Z</time>
      </trkpt>
      <trkpt lat="50.85466" lon="2.82127">
        <ele>14.8</ele>
        <time>2020-06-23T15:10:57Z</time>
      </trkpt>
      <trkpt lat="50.85463" lon="2.82132">
        <ele>14.8</ele>
        <time>2020-06-23T15:10:58Z</time>
      </trkpt>
      <trkpt lat="50.85461" lon="2.82137">
        <ele>14.8</ele>
        <time>2020-06-23T15:10:59Z</time>
      </trkpt>
      <trkpt lat="50.85457" lon="2.82143">
        <ele>14.8</ele>
        <time>2020-06-23T15:11:00Z</time>
      </trkpt>
      <trkpt lat="50.85454" lon="2.82148">
        <ele>14.8</ele>
        <time>2020-06-23T15:11:01Z</time>
      </trkpt>
      <trkpt lat="50.85452" lon="2.82155">
        <ele>14.8</ele>
        <time>2020-06-23T15:11:02Z</time>
      </trkpt>
      <trkpt lat="50.85449" lon="2.82161">
        <ele>14.8</ele>
        <time>2020-06-23T15:11:03Z</time>
      </trkpt>
      <trkpt lat="50.85448" lon="2.82167">
        <ele>14.8</ele>
        <time>2020-06-23T15:11:04Z</time>
      </trkpt>
      <trkpt lat="50.85446" lon="2.82173">
        <ele>14.8</ele>
        <time>2020-06-23T15:11:05Z</time>
      </trkpt>
      <trkpt lat="50.85443" lon="2.82178">
        <ele>14.9</ele>
        <time>2020-06-23T15:11:06Z</time>
      </trkpt>
      <trkpt lat="50.85441" lon="2.82183">
        <ele>14.9</ele>
        <time>2020-06-23T15:11:07Z</time>
      </trkpt>
      <trkpt lat="50.85439" lon="2.82189">
        <ele>14.9</ele>
        <time>2020-06-23T15:11:08Z</time>
      </trkpt>
      <trkpt lat="50.85437" lon="2.82195">
        <ele>15</ele>
        <time>2020-06-23T15:11:09Z</time>
      </trkpt>
      <trkpt lat="50.85433" lon="2.822">
        <ele>15</ele>
        <time>2020-06-23T15:11:10Z</time>
      </trkpt>
      <trkpt lat="50.85431" lon="2.82207">
        <ele>15</ele>
        <time>2020-06-23T15:11:11Z</time>
      </trkpt>
      <trkpt lat="50.85429" lon="2.82213">
        <ele>15.1</ele>
        <time>2020-06-23T15:11:12Z</time>
      </trkpt>
      <trkpt lat="50.85427" lon="2.8222">
        <ele>15.1</ele>
        <time>2020-06-23T15:11:13Z</time>
      </trkpt>
      <trkpt lat="50.85427" lon="2.82228">
        <ele>15.1</ele>
        <time>2020-06-23T15:11:14Z</time>
      </trkpt>
      <trkpt lat="50.85425" lon="2.82233">
        <ele>15.1</ele>
        <time>2020-06-23T15:11:15Z</time>
      </trkpt>
      <trkpt lat="50.85422" lon="2.82237">
        <ele>15.1</ele>
        <time>2020-06-23T15:11:16Z</time>
      </trkpt>
      <trkpt lat="50.85421" lon="2.82242">
        <ele>15.1</ele>
        <time>2020-06-23T15:11:17Z</time>
      </trkpt>
      <trkpt lat="50.8542" lon="2.82247">
        <ele>15.1</ele>
        <time>2020-06-23T15:11:18Z</time>
      </trkpt>
      <trkpt lat="50.85419" lon="2.82255">
        <ele>15.2</ele>
        <time>2020-06-23T15:11:19Z</time>
      </trkpt>
      <trkpt lat="50.85418" lon="2.82257">
        <ele>15.2</ele>
        <time>2020-06-23T15:11:20Z</time>
      </trkpt>
      <trkpt lat="50.85416" lon="2.82263">
        <ele>15.2</ele>
        <time>2020-06-23T15:11:21Z</time>
      </trkpt>
      <trkpt lat="50.85414" lon="2.82269">
        <ele>15.2</ele>
        <time>2020-06-23T15:11:22Z</time>
      </trkpt>
      <trkpt lat="50.85411" lon="2.82274">
        <ele>15.2</ele>
        <time>2020-06-23T15:11:23Z</time>
      </trkpt>
      <trkpt lat="50.85409" lon="2.82281">
        <ele>15.3</ele>
        <time>2020-06-23T15:11:24Z</time>
      </trkpt>
      <trkpt lat="50.85407" lon="2.82288">
        <ele>15.3</ele>
        <time>2020-06-23T15:11:25Z</time>
      </trkpt>
      <trkpt lat="50.85406" lon="2.82295">
        <ele>15.4</ele>
        <time>2020-06-23T15:11:26Z</time>
      </trkpt>
      <trkpt lat="50.85404" lon="2.82301">
        <ele>15.4</ele>
        <time>2020-06-23T15:11:27Z</time>
      </trkpt>
      <trkpt lat="50.85401" lon="2.82306">
        <ele>15.5</ele>
        <time>2020-06-23T15:11:28Z</time>
      </trkpt>
      <trkpt lat="50.85399" lon="2.82312">
        <ele>15.6</ele>
        <time>2020-06-23T15:11:29Z</time>
      </trkpt>
      <trkpt lat="50.85396" lon="2.82318">
        <ele>15.7</ele>
        <time>2020-06-23T15:11:30Z</time>
      </trkpt>
      <trkpt lat="50.85394" lon="2.82324">
        <ele>15.8</ele>
        <time>2020-06-23T15:11:31Z</time>
      </trkpt>
      <trkpt lat="50.85392" lon="2.82329">
        <ele>15.9</ele>
        <time>2020-06-23T15:11:32Z</time>
      </trkpt>
      <trkpt lat="50.8539" lon="2.82336">
        <ele>16</ele>
        <time>2020-06-23T15:11:33Z</time>
      </trkpt>
      <trkpt lat="50.85388" lon="2.82342">
        <ele>16.1</ele>
        <time>2020-06-23T15:11:34Z</time>
      </trkpt>
      <trkpt lat="50.85386" lon="2.82348">
        <ele>16.2</ele>
        <time>2020-06-23T15:11:35Z</time>
      </trkpt>
      <trkpt lat="50.85385" lon="2.82354">
        <ele>16.3</ele>
        <time>2020-06-23T15:11:36Z</time>
      </trkpt>
      <trkpt lat="50.85382" lon="2.82359">
        <ele>16.4</ele>
        <time>2020-06-23T15:11:37Z</time>
      </trkpt>
      <trkpt lat="50.8538" lon="2.82365">
        <ele>16.5</ele>
        <time>2020-06-23T15:11:38Z</time>
      </trkpt>
      <trkpt lat="50.85377" lon="2.82371">
        <ele>16.6</ele>
        <time>2020-06-23T15:11:39Z</time>
      </trkpt>
      <trkpt lat="50.85374" lon="2.82376">
        <ele>16.8</ele>
        <time>2020-06-23T15:11:40Z</time>
      </trkpt>
      <trkpt lat="50.85372" lon="2.82382">
        <ele>16.9</ele>
        <time>2020-06-23T15:11:41Z</time>
      </trkpt>
      <trkpt lat="50.8537" lon="2.82387">
        <ele>17</ele>
        <time>2020-06-23T15:11:42Z</time>
      </trkpt>
      <trkpt lat="50.85369" lon="2.82392">
        <ele>17.1</ele>
        <time>2020-06-23T15:11:43Z</time>
      </trkpt>
      <trkpt lat="50.85368" lon="2.82398">
        <ele>17.2</ele>
        <time>2020-06-23T15:11:44Z</time>
      </trkpt>
      <trkpt lat="50.85366" lon="2.82403">
        <ele>17.3</ele>
        <time>2020-06-23T15:11:45Z</time>
      </trkpt>
      <trkpt lat="50.85365" lon="2.82408">
        <ele>17.3</ele>
        <time>2020-06-23T15:11:46Z</time>
      </trkpt>
      <trkpt lat="50.85363" lon="2.82412">
        <ele>17.4</ele>
        <time>2020-06-23T15:11:47Z</time>
      </trkpt>
      <trkpt lat="50.85359" lon="2.82415">
        <ele>17.5</ele>
        <time>2020-06-23T15:11:48Z</time>
      </trkpt>
      <trkpt lat="50.85356" lon="2.82415">
        <ele>17.5</ele>
        <time>2020-06-23T15:11:49Z</time>
      </trkpt>
      <trkpt lat="50.85354" lon="2.82414">
        <ele>17.5</ele>
        <time>2020-06-23T15:11:50Z</time>
      </trkpt>
      <trkpt lat="50.8535" lon="2.82411">
        <ele>17.5</ele>
        <time>2020-06-23T15:11:51Z</time>
      </trkpt>
      <trkpt lat="50.85347" lon="2.82409">
        <ele>17.5</ele>
        <time>2020-06-23T15:11:52Z</time>
      </trkpt>
      <trkpt lat="50.85342" lon="2.82406">
        <ele>17.5</ele>
        <time>2020-06-23T15:11:53Z</time>
      </trkpt>
      <trkpt lat="50.85338" lon="2.82404">
        <ele>17.5</ele>
        <time>2020-06-23T15:11:54Z</time>
      </trkpt>
      <trkpt lat="50.85334" lon="2.82403">
        <ele>17.5</ele>
        <time>2020-06-23T15:11:55Z</time>
      </trkpt>
      <trkpt lat="50.85329" lon="2.82402">
        <ele>17.5</ele>
        <time>2020-06-23T15:11:56Z</time>
      </trkpt>
      <trkpt lat="50.85327" lon="2.82399">
        <ele>17.5</ele>
        <time>2020-06-23T15:11:57Z</time>
      </trkpt>
      <trkpt lat="50.85323" lon="2.82396">
        <ele>17.5</ele>
        <time>2020-06-23T15:11:58Z</time>
      </trkpt>
      <trkpt lat="50.8532" lon="2.82393">
        <ele>17.4</ele>
        <time>2020-06-23T15:11:59Z</time>
      </trkpt>
      <trkpt lat="50.85318" lon="2.82389">
        <ele>17.4</ele>
        <time>2020-06-23T15:12:00Z</time>
      </trkpt>
      <trkpt lat="50.85317" lon="2.82388">
        <ele>17.4</ele>
        <time>2020-06-23T15:12:01Z</time>
      </trkpt>
      <trkpt lat="50.85314" lon="2.82387">
        <ele>17.4</ele>
        <time>2020-06-23T15:12:02Z</time>
      </trkpt>
      <trkpt lat="50.8531" lon="2.82388">
        <ele>17.4</ele>
        <time>2020-06-23T15:12:03Z</time>
      </trkpt>
      <trkpt lat="50.85308" lon="2.82391">
        <ele>17.4</ele>
        <time>2020-06-23T15:12:04Z</time>
      </trkpt>
      <trkpt lat="50.85306" lon="2.82395">
        <ele>17.3</ele>
        <time>2020-06-23T15:12:05Z</time>
      </trkpt>
      <trkpt lat="50.85303" lon="2.82399">
        <ele>17.2</ele>
        <time>2020-06-23T15:12:06Z</time>
      </trkpt>
      <trkpt lat="50.85299" lon="2.82405">
        <ele>17</ele>
        <time>2020-06-23T15:12:07Z</time>
      </trkpt>
      <trkpt lat="50.85296" lon="2.82411">
        <ele>16.9</ele>
        <time>2020-06-23T15:12:08Z</time>
      </trkpt>
      <trkpt lat="50.85292" lon="2.82417">
        <ele>16.8</ele>
        <time>2020-06-23T15:12:09Z</time>
      </trkpt>
      <trkpt lat="50.8529" lon="2.82423">
        <ele>16.7</ele>
        <time>2020-06-23T15:12:10Z</time>
      </trkpt>
      <trkpt lat="50.85287" lon="2.82429">
        <ele>16.6</ele>
        <time>2020-06-23T15:12:11Z</time>
      </trkpt>
      <trkpt lat="50.85285" lon="2.82435">
        <ele>16.6</ele>
        <time>2020-06-23T15:12:12Z</time>
      </trkpt>
      <trkpt lat="50.85281" lon="2.82442">
        <ele>16.5</ele>
        <time>2020-06-23T15:12:13Z</time>
      </trkpt>
      <trkpt lat="50.85278" lon="2.8245">
        <ele>16.5</ele>
        <time>2020-06-23T15:12:14Z</time>
      </trkpt>
      <trkpt lat="50.85274" lon="2.82457">
        <ele>16.5</ele>
        <time>2020-06-23T15:12:15Z</time>
      </trkpt>
      <trkpt lat="50.85272" lon="2.82463">
        <ele>16.5</ele>
        <time>2020-06-23T15:12:16Z</time>
      </trkpt>
      <trkpt lat="50.85269" lon="2.82469">
        <ele>16.5</ele>
        <time>2020-06-23T15:12:17Z</time>
      </trkpt>
      <trkpt lat="50.85267" lon="2.82476">
        <ele>16.5</ele>
        <time>2020-06-23T15:12:18Z</time>
      </trkpt>
      <trkpt lat="50.85265" lon="2.82484">
        <ele>16.5</ele>
        <time>2020-06-23T15:12:19Z</time>
      </trkpt>
      <trkpt lat="50.85263" lon="2.8249">
        <ele>16.5</ele>
        <time>2020-06-23T15:12:20Z</time>
      </trkpt>
      <trkpt lat="50.85261" lon="2.82497">
        <ele>16.5</ele>
        <time>2020-06-23T15:12:21Z</time>
      </trkpt>
      <trkpt lat="50.85259" lon="2.82504">
        <ele>16.6</ele>
        <time>2020-06-23T15:12:22Z</time>
      </trkpt>
      <trkpt lat="50.85256" lon="2.82512">
        <ele>16.6</ele>
        <time>2020-06-23T15:12:23Z</time>
      </trkpt>
      <trkpt lat="50.85254" lon="2.82518">
        <ele>16.6</ele>
        <time>2020-06-23T15:12:24Z</time>
      </trkpt>
      <trkpt lat="50.85251" lon="2.82524">
        <ele>16.6</ele>
        <time>2020-06-23T15:12:25Z</time>
      </trkpt>
      <trkpt lat="50.85249" lon="2.82531">
        <ele>16.6</ele>
        <time>2020-06-23T15:12:26Z</time>
      </trkpt>
      <trkpt lat="50.85246" lon="2.82538">
        <ele>16.6</ele>
        <time>2020-06-23T15:12:27Z</time>
      </trkpt>
      <trkpt lat="50.85243" lon="2.82545">
        <ele>16.6</ele>
        <time>2020-06-23T15:12:28Z</time>
      </trkpt>
      <trkpt lat="50.8524" lon="2.82552">
        <ele>16.6</ele>
        <time>2020-06-23T15:12:29Z</time>
      </trkpt>
      <trkpt lat="50.85238" lon="2.82559">
        <ele>16.6</ele>
        <time>2020-06-23T15:12:30Z</time>
      </trkpt>
      <trkpt lat="50.85237" lon="2.82566">
        <ele>16.6</ele>
        <time>2020-06-23T15:12:31Z</time>
      </trkpt>
      <trkpt lat="50.85235" lon="2.82572">
        <ele>16.6</ele>
        <time>2020-06-23T15:12:32Z</time>
      </trkpt>
      <trkpt lat="50.85233" lon="2.82579">
        <ele>16.7</ele>
        <time>2020-06-23T15:12:33Z</time>
      </trkpt>
      <trkpt lat="50.85231" lon="2.82586">
        <ele>16.7</ele>
        <time>2020-06-23T15:12:34Z</time>
      </trkpt>
      <trkpt lat="50.85228" lon="2.82592">
        <ele>16.7</ele>
        <time>2020-06-23T15:12:35Z</time>
      </trkpt>
      <trkpt lat="50.85226" lon="2.826">
        <ele>16.7</ele>
        <time>2020-06-23T15:12:36Z</time>
      </trkpt>
      <trkpt lat="50.85224" lon="2.82608">
        <ele>16.7</ele>
        <time>2020-06-23T15:12:37Z</time>
      </trkpt>
      <trkpt lat="50.8522" lon="2.82614">
        <ele>16.7</ele>
        <time>2020-06-23T15:12:38Z</time>
      </trkpt>
      <trkpt lat="50.85218" lon="2.82622">
        <ele>16.7</ele>
        <time>2020-06-23T15:12:39Z</time>
      </trkpt>
      <trkpt lat="50.85215" lon="2.82629">
        <ele>16.7</ele>
        <time>2020-06-23T15:12:40Z</time>
      </trkpt>
      <trkpt lat="50.85213" lon="2.82639">
        <ele>16.6</ele>
        <time>2020-06-23T15:12:41Z</time>
      </trkpt>
      <trkpt lat="50.85212" lon="2.82648">
        <ele>16.6</ele>
        <time>2020-06-23T15:12:42Z</time>
      </trkpt>
      <trkpt lat="50.8521" lon="2.82659">
        <ele>16.6</ele>
        <time>2020-06-23T15:12:43Z</time>
      </trkpt>
      <trkpt lat="50.85208" lon="2.82669">
        <ele>16.5</ele>
        <time>2020-06-23T15:12:44Z</time>
      </trkpt>
      <trkpt lat="50.85206" lon="2.82677">
        <ele>16.5</ele>
        <time>2020-06-23T15:12:45Z</time>
      </trkpt>
      <trkpt lat="50.85204" lon="2.82685">
        <ele>16.5</ele>
        <time>2020-06-23T15:12:46Z</time>
      </trkpt>
      <trkpt lat="50.85203" lon="2.82694">
        <ele>16.5</ele>
        <time>2020-06-23T15:12:47Z</time>
      </trkpt>
      <trkpt lat="50.85201" lon="2.82703">
        <ele>16.5</ele>
        <time>2020-06-23T15:12:48Z</time>
      </trkpt>
      <trkpt lat="50.85199" lon="2.82711">
        <ele>16.5</ele>
        <time>2020-06-23T15:12:49Z</time>
      </trkpt>
      <trkpt lat="50.85196" lon="2.82719">
        <ele>16.5</ele>
        <time>2020-06-23T15:12:50Z</time>
      </trkpt>
      <trkpt lat="50.85193" lon="2.82727">
        <ele>16.4</ele>
        <time>2020-06-23T15:12:51Z</time>
      </trkpt>
      <trkpt lat="50.85189" lon="2.82733">
        <ele>16.4</ele>
        <time>2020-06-23T15:12:52Z</time>
      </trkpt>
      <trkpt lat="50.85187" lon="2.82741">
        <ele>16.4</ele>
        <time>2020-06-23T15:12:53Z</time>
      </trkpt>
      <trkpt lat="50.85184" lon="2.8275">
        <ele>16.4</ele>
        <time>2020-06-23T15:12:54Z</time>
      </trkpt>
      <trkpt lat="50.85182" lon="2.82758">
        <ele>16.3</ele>
        <time>2020-06-23T15:12:55Z</time>
      </trkpt>
      <trkpt lat="50.85178" lon="2.82766">
        <ele>16.3</ele>
        <time>2020-06-23T15:12:56Z</time>
      </trkpt>
      <trkpt lat="50.85175" lon="2.82773">
        <ele>16.3</ele>
        <time>2020-06-23T15:12:57Z</time>
      </trkpt>
      <trkpt lat="50.85171" lon="2.82778">
        <ele>16.3</ele>
        <time>2020-06-23T15:12:58Z</time>
      </trkpt>
      <trkpt lat="50.85166" lon="2.82784">
        <ele>16.2</ele>
        <time>2020-06-23T15:12:59Z</time>
      </trkpt>
      <trkpt lat="50.85162" lon="2.8279">
        <ele>16.2</ele>
        <time>2020-06-23T15:13:00Z</time>
      </trkpt>
      <trkpt lat="50.85157" lon="2.82795">
        <ele>16.2</ele>
        <time>2020-06-23T15:13:01Z</time>
      </trkpt>
      <trkpt lat="50.85153" lon="2.82803">
        <ele>16.2</ele>
        <time>2020-06-23T15:13:02Z</time>
      </trkpt>
      <trkpt lat="50.85149" lon="2.82809">
        <ele>16.2</ele>
        <time>2020-06-23T15:13:03Z</time>
      </trkpt>
      <trkpt lat="50.85146" lon="2.82817">
        <ele>16.2</ele>
        <time>2020-06-23T15:13:04Z</time>
      </trkpt>
      <trkpt lat="50.85141" lon="2.82823">
        <ele>16.2</ele>
        <time>2020-06-23T15:13:05Z</time>
      </trkpt>
      <trkpt lat="50.85137" lon="2.82829">
        <ele>16.2</ele>
        <time>2020-06-23T15:13:06Z</time>
      </trkpt>
      <trkpt lat="50.85133" lon="2.82835">
        <ele>16.2</ele>
        <time>2020-06-23T15:13:07Z</time>
      </trkpt>
      <trkpt lat="50.8513" lon="2.82841">
        <ele>16.2</ele>
        <time>2020-06-23T15:13:08Z</time>
      </trkpt>
      <trkpt lat="50.85126" lon="2.82849">
        <ele>16.2</ele>
        <time>2020-06-23T15:13:09Z</time>
      </trkpt>
      <trkpt lat="50.85123" lon="2.82856">
        <ele>16.1</ele>
        <time>2020-06-23T15:13:10Z</time>
      </trkpt>
      <trkpt lat="50.8512" lon="2.82863">
        <ele>16.1</ele>
        <time>2020-06-23T15:13:11Z</time>
      </trkpt>
      <trkpt lat="50.85116" lon="2.8287">
        <ele>16.1</ele>
        <time>2020-06-23T15:13:12Z</time>
      </trkpt>
      <trkpt lat="50.85112" lon="2.82877">
        <ele>16.1</ele>
        <time>2020-06-23T15:13:13Z</time>
      </trkpt>
      <trkpt lat="50.85108" lon="2.82884">
        <ele>16.1</ele>
        <time>2020-06-23T15:13:14Z</time>
      </trkpt>
      <trkpt lat="50.85105" lon="2.82891">
        <ele>16</ele>
        <time>2020-06-23T15:13:15Z</time>
      </trkpt>
      <trkpt lat="50.85101" lon="2.82898">
        <ele>16</ele>
        <time>2020-06-23T15:13:16Z</time>
      </trkpt>
      <trkpt lat="50.85097" lon="2.82905">
        <ele>16</ele>
        <time>2020-06-23T15:13:17Z</time>
      </trkpt>
      <trkpt lat="50.85093" lon="2.82913">
        <ele>16</ele>
        <time>2020-06-23T15:13:18Z</time>
      </trkpt>
      <trkpt lat="50.85089" lon="2.8292">
        <ele>16</ele>
        <time>2020-06-23T15:13:19Z</time>
      </trkpt>
      <trkpt lat="50.85085" lon="2.82927">
        <ele>15.9</ele>
        <time>2020-06-23T15:13:20Z</time>
      </trkpt>
      <trkpt lat="50.85081" lon="2.82934">
        <ele>15.9</ele>
        <time>2020-06-23T15:13:21Z</time>
      </trkpt>
      <trkpt lat="50.85077" lon="2.82941">
        <ele>15.9</ele>
        <time>2020-06-23T15:13:22Z</time>
      </trkpt>
      <trkpt lat="50.85073" lon="2.8295">
        <ele>15.9</ele>
        <time>2020-06-23T15:13:23Z</time>
      </trkpt>
      <trkpt lat="50.85069" lon="2.82957">
        <ele>15.9</ele>
        <time>2020-06-23T15:13:24Z</time>
      </trkpt>
      <trkpt lat="50.85065" lon="2.82964">
        <ele>15.9</ele>
        <time>2020-06-23T15:13:25Z</time>
      </trkpt>
      <trkpt lat="50.8506" lon="2.82971">
        <ele>15.9</ele>
        <time>2020-06-23T15:13:26Z</time>
      </trkpt>
      <trkpt lat="50.85055" lon="2.82978">
        <ele>15.8</ele>
        <time>2020-06-23T15:13:27Z</time>
      </trkpt>
      <trkpt lat="50.85051" lon="2.82983">
        <ele>15.8</ele>
        <time>2020-06-23T15:13:28Z</time>
      </trkpt>
      <trkpt lat="50.85046" lon="2.8299">
        <ele>15.8</ele>
        <time>2020-06-23T15:13:29Z</time>
      </trkpt>
      <trkpt lat="50.85041" lon="2.82996">
        <ele>15.7</ele>
        <time>2020-06-23T15:13:30Z</time>
      </trkpt>
      <trkpt lat="50.85035" lon="2.83001">
        <ele>15.7</ele>
        <time>2020-06-23T15:13:31Z</time>
      </trkpt>
      <trkpt lat="50.85031" lon="2.83006">
        <ele>15.6</ele>
        <time>2020-06-23T15:13:32Z</time>
      </trkpt>
      <trkpt lat="50.85026" lon="2.83011">
        <ele>15.6</ele>
        <time>2020-06-23T15:13:33Z</time>
      </trkpt>
      <trkpt lat="50.85021" lon="2.83015">
        <ele>15.6</ele>
        <time>2020-06-23T15:13:34Z</time>
      </trkpt>
      <trkpt lat="50.85016" lon="2.83019">
        <ele>15.5</ele>
        <time>2020-06-23T15:13:35Z</time>
      </trkpt>
      <trkpt lat="50.8501" lon="2.83024">
        <ele>15.5</ele>
        <time>2020-06-23T15:13:36Z</time>
      </trkpt>
      <trkpt lat="50.85004" lon="2.83027">
        <ele>15.5</ele>
        <time>2020-06-23T15:13:37Z</time>
      </trkpt>
      <trkpt lat="50.85" lon="2.83031">
        <ele>15.5</ele>
        <time>2020-06-23T15:13:38Z</time>
      </trkpt>
      <trkpt lat="50.84996" lon="2.83035">
        <ele>15.6</ele>
        <time>2020-06-23T15:13:39Z</time>
      </trkpt>
      <trkpt lat="50.8499" lon="2.83039">
        <ele>15.7</ele>
        <time>2020-06-23T15:13:40Z</time>
      </trkpt>
      <trkpt lat="50.84985" lon="2.83042">
        <ele>15.8</ele>
        <time>2020-06-23T15:13:41Z</time>
      </trkpt>
      <trkpt lat="50.8498" lon="2.83046">
        <ele>16</ele>
        <time>2020-06-23T15:13:42Z</time>
      </trkpt>
      <trkpt lat="50.84975" lon="2.83049">
        <ele>16.2</ele>
        <time>2020-06-23T15:13:43Z</time>
      </trkpt>
      <trkpt lat="50.84969" lon="2.83052">
        <ele>16.3</ele>
        <time>2020-06-23T15:13:44Z</time>
      </trkpt>
      <trkpt lat="50.84963" lon="2.83057">
        <ele>16.3</ele>
        <time>2020-06-23T15:13:45Z</time>
      </trkpt>
      <trkpt lat="50.84958" lon="2.83061">
        <ele>16.3</ele>
        <time>2020-06-23T15:13:46Z</time>
      </trkpt>
      <trkpt lat="50.84952" lon="2.83065">
        <ele>16.2</ele>
        <time>2020-06-23T15:13:47Z</time>
      </trkpt>
      <trkpt lat="50.84946" lon="2.8307">
        <ele>16.2</ele>
        <time>2020-06-23T15:13:48Z</time>
      </trkpt>
      <trkpt lat="50.84941" lon="2.83074">
        <ele>16.2</ele>
        <time>2020-06-23T15:13:49Z</time>
      </trkpt>
      <trkpt lat="50.84936" lon="2.83078">
        <ele>16.2</ele>
        <time>2020-06-23T15:13:50Z</time>
      </trkpt>
      <trkpt lat="50.84932" lon="2.83082">
        <ele>16.2</ele>
        <time>2020-06-23T15:13:51Z</time>
      </trkpt>
      <trkpt lat="50.84927" lon="2.83085">
        <ele>16.2</ele>
        <time>2020-06-23T15:13:52Z</time>
      </trkpt>
      <trkpt lat="50.84922" lon="2.8309">
        <ele>16.2</ele>
        <time>2020-06-23T15:13:53Z</time>
      </trkpt>
      <trkpt lat="50.84917" lon="2.83094">
        <ele>16.2</ele>
        <time>2020-06-23T15:13:54Z</time>
      </trkpt>
      <trkpt lat="50.84913" lon="2.83099">
        <ele>16.2</ele>
        <time>2020-06-23T15:13:55Z</time>
      </trkpt>
      <trkpt lat="50.84907" lon="2.83104">
        <ele>16.2</ele>
        <time>2020-06-23T15:13:56Z</time>
      </trkpt>
      <trkpt lat="50.84903" lon="2.83109">
        <ele>16.2</ele>
        <time>2020-06-23T15:13:57Z</time>
      </trkpt>
      <trkpt lat="50.84898" lon="2.83115">
        <ele>16.2</ele>
        <time>2020-06-23T15:13:58Z</time>
      </trkpt>
      <trkpt lat="50.84893" lon="2.83121">
        <ele>16.2</ele>
        <time>2020-06-23T15:13:59Z</time>
      </trkpt>
      <trkpt lat="50.84887" lon="2.83126">
        <ele>16.3</ele>
        <time>2020-06-23T15:14:00Z</time>
      </trkpt>
      <trkpt lat="50.84882" lon="2.83132">
        <ele>16.3</ele>
        <time>2020-06-23T15:14:01Z</time>
      </trkpt>
      <trkpt lat="50.84878" lon="2.83139">
        <ele>16.4</ele>
        <time>2020-06-23T15:14:02Z</time>
      </trkpt>
      <trkpt lat="50.84873" lon="2.83145">
        <ele>16.4</ele>
        <time>2020-06-23T15:14:03Z</time>
      </trkpt>
      <trkpt lat="50.84869" lon="2.8315">
        <ele>16.5</ele>
        <time>2020-06-23T15:14:04Z</time>
      </trkpt>
      <trkpt lat="50.84864" lon="2.83156">
        <ele>16.5</ele>
        <time>2020-06-23T15:14:05Z</time>
      </trkpt>
      <trkpt lat="50.84859" lon="2.83163">
        <ele>16.6</ele>
        <time>2020-06-23T15:14:06Z</time>
      </trkpt>
      <trkpt lat="50.84856" lon="2.83168">
        <ele>16.6</ele>
        <time>2020-06-23T15:14:07Z</time>
      </trkpt>
      <trkpt lat="50.84852" lon="2.83174">
        <ele>16.7</ele>
        <time>2020-06-23T15:14:08Z</time>
      </trkpt>
      <trkpt lat="50.84848" lon="2.83181">
        <ele>16.7</ele>
        <time>2020-06-23T15:14:09Z</time>
      </trkpt>
      <trkpt lat="50.84843" lon="2.83187">
        <ele>16.7</ele>
        <time>2020-06-23T15:14:10Z</time>
      </trkpt>
      <trkpt lat="50.8484" lon="2.83193">
        <ele>16.8</ele>
        <time>2020-06-23T15:14:11Z</time>
      </trkpt>
      <trkpt lat="50.84835" lon="2.83197">
        <ele>16.8</ele>
        <time>2020-06-23T15:14:12Z</time>
      </trkpt>
      <trkpt lat="50.84832" lon="2.83202">
        <ele>16.8</ele>
        <time>2020-06-23T15:14:13Z</time>
      </trkpt>
      <trkpt lat="50.84829" lon="2.83206">
        <ele>16.9</ele>
        <time>2020-06-23T15:14:14Z</time>
      </trkpt>
      <trkpt lat="50.84826" lon="2.83212">
        <ele>16.9</ele>
        <time>2020-06-23T15:14:15Z</time>
      </trkpt>
      <trkpt lat="50.84823" lon="2.83217">
        <ele>17</ele>
        <time>2020-06-23T15:14:16Z</time>
      </trkpt>
      <trkpt lat="50.84819" lon="2.8322">
        <ele>17.1</ele>
        <time>2020-06-23T15:14:17Z</time>
      </trkpt>
      <trkpt lat="50.84817" lon="2.83223">
        <ele>17.1</ele>
        <time>2020-06-23T15:14:18Z</time>
      </trkpt>
      <trkpt lat="50.84814" lon="2.83226">
        <ele>17.2</ele>
        <time>2020-06-23T15:14:19Z</time>
      </trkpt>
      <trkpt lat="50.84813" lon="2.83227">
        <ele>17.2</ele>
        <time>2020-06-23T15:14:20Z</time>
      </trkpt>
      <trkpt lat="50.84811" lon="2.83228">
        <ele>17.2</ele>
        <time>2020-06-23T15:14:21Z</time>
      </trkpt>
      <trkpt lat="50.8481" lon="2.8323">
        <ele>17.3</ele>
        <time>2020-06-23T15:14:22Z</time>
      </trkpt>
      <trkpt lat="50.84809" lon="2.8323">
        <ele>17.3</ele>
        <time>2020-06-23T15:14:23Z</time>
      </trkpt>
      <trkpt lat="50.84807" lon="2.83229">
        <ele>17.4</ele>
        <time>2020-06-23T15:14:24Z</time>
      </trkpt>
      <trkpt lat="50.84807" lon="2.83228">
        <ele>17.4</ele>
        <time>2020-06-23T15:14:25Z</time>
      </trkpt>
      <trkpt lat="50.84807" lon="2.83227">
        <ele>17.4</ele>
        <time>2020-06-23T15:14:26Z</time>
      </trkpt>
      <trkpt lat="50.84807" lon="2.83227">
        <ele>17.4</ele>
        <time>2020-06-23T15:14:27Z</time>
      </trkpt>
      <trkpt lat="50.84809" lon="2.83227">
        <ele>17.4</ele>
        <time>2020-06-23T15:14:28Z</time>
      </trkpt>
      <trkpt lat="50.8481" lon="2.83227">
        <ele>17.5</ele>
        <time>2020-06-23T15:14:29Z</time>
      </trkpt>
      <trkpt lat="50.8481" lon="2.83229">
        <ele>17.5</ele>
        <time>2020-06-23T15:14:30Z</time>
      </trkpt>
      <trkpt lat="50.84809" lon="2.8323">
        <ele>17.5</ele>
        <time>2020-06-23T15:14:31Z</time>
      </trkpt>
      <trkpt lat="50.84808" lon="2.83231">
        <ele>17.6</ele>
        <time>2020-06-23T15:14:32Z</time>
      </trkpt>
      <trkpt lat="50.84807" lon="2.83233">
        <ele>17.6</ele>
        <time>2020-06-23T15:14:33Z</time>
      </trkpt>
      <trkpt lat="50.84807" lon="2.83234">
        <ele>17.6</ele>
        <time>2020-06-23T15:14:34Z</time>
      </trkpt>
      <trkpt lat="50.84806" lon="2.83235">
        <ele>17.7</ele>
        <time>2020-06-23T15:14:46Z</time>
      </trkpt>
      <trkpt lat="50.84805" lon="2.83237">
        <ele>17.7</ele>
        <time>2020-06-23T15:14:47Z</time>
      </trkpt>
      <trkpt lat="50.84802" lon="2.83241">
        <ele>17.8</ele>
        <time>2020-06-23T15:14:48Z</time>
      </trkpt>
      <trkpt lat="50.84801" lon="2.83242">
        <ele>17.8</ele>
        <time>2020-06-23T15:14:49Z</time>
      </trkpt>
      <trkpt lat="50.84798" lon="2.83245">
        <ele>17.9</ele>
        <time>2020-06-23T15:14:50Z</time>
      </trkpt>
      <trkpt lat="50.84795" lon="2.8325">
        <ele>17.9</ele>
        <time>2020-06-23T15:14:51Z</time>
      </trkpt>
      <trkpt lat="50.84792" lon="2.83255">
        <ele>17.9</ele>
        <time>2020-06-23T15:14:52Z</time>
      </trkpt>
      <trkpt lat="50.84789" lon="2.8326">
        <ele>18</ele>
        <time>2020-06-23T15:14:53Z</time>
      </trkpt>
      <trkpt lat="50.84786" lon="2.83265">
        <ele>18</ele>
        <time>2020-06-23T15:14:54Z</time>
      </trkpt>
      <trkpt lat="50.84782" lon="2.83271">
        <ele>18</ele>
        <time>2020-06-23T15:14:55Z</time>
      </trkpt>
      <trkpt lat="50.84779" lon="2.83278">
        <ele>18</ele>
        <time>2020-06-23T15:14:56Z</time>
      </trkpt>
      <trkpt lat="50.84776" lon="2.83285">
        <ele>18</ele>
        <time>2020-06-23T15:14:57Z</time>
      </trkpt>
      <trkpt lat="50.84773" lon="2.83292">
        <ele>18</ele>
        <time>2020-06-23T15:14:58Z</time>
      </trkpt>
      <trkpt lat="50.8477" lon="2.83299">
        <ele>18</ele>
        <time>2020-06-23T15:14:59Z</time>
      </trkpt>
      <trkpt lat="50.84767" lon="2.83306">
        <ele>18</ele>
        <time>2020-06-23T15:15:00Z</time>
      </trkpt>
      <trkpt lat="50.84763" lon="2.83313">
        <ele>18</ele>
        <time>2020-06-23T15:15:01Z</time>
      </trkpt>
      <trkpt lat="50.8476" lon="2.83319">
        <ele>18</ele>
        <time>2020-06-23T15:15:02Z</time>
      </trkpt>
      <trkpt lat="50.84756" lon="2.83326">
        <ele>18</ele>
        <time>2020-06-23T15:15:03Z</time>
      </trkpt>
      <trkpt lat="50.84753" lon="2.83333">
        <ele>18.1</ele>
        <time>2020-06-23T15:15:04Z</time>
      </trkpt>
      <trkpt lat="50.8475" lon="2.83339">
        <ele>18.1</ele>
        <time>2020-06-23T15:15:05Z</time>
      </trkpt>
      <trkpt lat="50.84747" lon="2.83344">
        <ele>18.1</ele>
        <time>2020-06-23T15:15:06Z</time>
      </trkpt>
      <trkpt lat="50.84744" lon="2.8335">
        <ele>18.1</ele>
        <time>2020-06-23T15:15:07Z</time>
      </trkpt>
      <trkpt lat="50.8474" lon="2.83356">
        <ele>18.1</ele>
        <time>2020-06-23T15:15:08Z</time>
      </trkpt>
      <trkpt lat="50.84736" lon="2.83361">
        <ele>18.1</ele>
        <time>2020-06-23T15:15:09Z</time>
      </trkpt>
      <trkpt lat="50.84731" lon="2.83367">
        <ele>18.1</ele>
        <time>2020-06-23T15:15:10Z</time>
      </trkpt>
      <trkpt lat="50.84727" lon="2.83374">
        <ele>18.1</ele>
        <time>2020-06-23T15:15:11Z</time>
      </trkpt>
      <trkpt lat="50.84723" lon="2.8338">
        <ele>18.1</ele>
        <time>2020-06-23T15:15:12Z</time>
      </trkpt>
      <trkpt lat="50.84719" lon="2.83386">
        <ele>18.1</ele>
        <time>2020-06-23T15:15:13Z</time>
      </trkpt>
      <trkpt lat="50.84715" lon="2.83393">
        <ele>18.2</ele>
        <time>2020-06-23T15:15:14Z</time>
      </trkpt>
      <trkpt lat="50.84712" lon="2.83399">
        <ele>18.2</ele>
        <time>2020-06-23T15:15:15Z</time>
      </trkpt>
      <trkpt lat="50.84708" lon="2.83405">
        <ele>18.2</ele>
        <time>2020-06-23T15:15:16Z</time>
      </trkpt>
      <trkpt lat="50.84704" lon="2.8341">
        <ele>18.2</ele>
        <time>2020-06-23T15:15:17Z</time>
      </trkpt>
      <trkpt lat="50.84699" lon="2.83416">
        <ele>18.3</ele>
        <time>2020-06-23T15:15:18Z</time>
      </trkpt>
      <trkpt lat="50.84696" lon="2.83424">
        <ele>18.3</ele>
        <time>2020-06-23T15:15:19Z</time>
      </trkpt>
      <trkpt lat="50.84692" lon="2.83431">
        <ele>18.4</ele>
        <time>2020-06-23T15:15:20Z</time>
      </trkpt>
      <trkpt lat="50.84687" lon="2.83438">
        <ele>18.4</ele>
        <time>2020-06-23T15:15:21Z</time>
      </trkpt>
      <trkpt lat="50.84682" lon="2.83444">
        <ele>18.5</ele>
        <time>2020-06-23T15:15:22Z</time>
      </trkpt>
      <trkpt lat="50.84678" lon="2.8345">
        <ele>18.5</ele>
        <time>2020-06-23T15:15:23Z</time>
      </trkpt>
      <trkpt lat="50.84674" lon="2.83458">
        <ele>18.6</ele>
        <time>2020-06-23T15:15:24Z</time>
      </trkpt>
      <trkpt lat="50.8467" lon="2.83465">
        <ele>18.6</ele>
        <time>2020-06-23T15:15:25Z</time>
      </trkpt>
      <trkpt lat="50.84666" lon="2.83473">
        <ele>18.7</ele>
        <time>2020-06-23T15:15:26Z</time>
      </trkpt>
      <trkpt lat="50.84662" lon="2.83482">
        <ele>18.8</ele>
        <time>2020-06-23T15:15:27Z</time>
      </trkpt>
      <trkpt lat="50.84658" lon="2.83487">
        <ele>18.9</ele>
        <time>2020-06-23T15:15:28Z</time>
      </trkpt>
      <trkpt lat="50.84654" lon="2.83493">
        <ele>19</ele>
        <time>2020-06-23T15:15:29Z</time>
      </trkpt>
      <trkpt lat="50.84649" lon="2.83497">
        <ele>19</ele>
        <time>2020-06-23T15:15:30Z</time>
      </trkpt>
      <trkpt lat="50.84644" lon="2.83501">
        <ele>19</ele>
        <time>2020-06-23T15:15:31Z</time>
      </trkpt>
      <trkpt lat="50.84639" lon="2.83506">
        <ele>19</ele>
        <time>2020-06-23T15:15:32Z</time>
      </trkpt>
      <trkpt lat="50.84634" lon="2.83509">
        <ele>19</ele>
        <time>2020-06-23T15:15:33Z</time>
      </trkpt>
      <trkpt lat="50.84628" lon="2.83514">
        <ele>19.1</ele>
        <time>2020-06-23T15:15:34Z</time>
      </trkpt>
      <trkpt lat="50.84623" lon="2.83518">
        <ele>19.1</ele>
        <time>2020-06-23T15:15:35Z</time>
      </trkpt>
      <trkpt lat="50.84616" lon="2.83522">
        <ele>19.1</ele>
        <time>2020-06-23T15:15:36Z</time>
      </trkpt>
      <trkpt lat="50.8461" lon="2.83526">
        <ele>19</ele>
        <time>2020-06-23T15:15:37Z</time>
      </trkpt>
      <trkpt lat="50.84604" lon="2.83529">
        <ele>18.9</ele>
        <time>2020-06-23T15:15:38Z</time>
      </trkpt>
      <trkpt lat="50.84599" lon="2.83533">
        <ele>18.9</ele>
        <time>2020-06-23T15:15:39Z</time>
      </trkpt>
      <trkpt lat="50.84594" lon="2.83537">
        <ele>18.8</ele>
        <time>2020-06-23T15:15:40Z</time>
      </trkpt>
      <trkpt lat="50.84589" lon="2.83541">
        <ele>18.8</ele>
        <time>2020-06-23T15:15:41Z</time>
      </trkpt>
      <trkpt lat="50.84583" lon="2.83545">
        <ele>18.7</ele>
        <time>2020-06-23T15:15:42Z</time>
      </trkpt>
      <trkpt lat="50.84578" lon="2.83549">
        <ele>18.7</ele>
        <time>2020-06-23T15:15:43Z</time>
      </trkpt>
      <trkpt lat="50.84572" lon="2.83554">
        <ele>18.7</ele>
        <time>2020-06-23T15:15:44Z</time>
      </trkpt>
      <trkpt lat="50.84566" lon="2.83558">
        <ele>18.7</ele>
        <time>2020-06-23T15:15:45Z</time>
      </trkpt>
      <trkpt lat="50.8456" lon="2.83562">
        <ele>18.7</ele>
        <time>2020-06-23T15:15:46Z</time>
      </trkpt>
      <trkpt lat="50.84554" lon="2.83566">
        <ele>18.7</ele>
        <time>2020-06-23T15:15:47Z</time>
      </trkpt>
      <trkpt lat="50.84548" lon="2.83569">
        <ele>18.7</ele>
        <time>2020-06-23T15:15:48Z</time>
      </trkpt>
      <trkpt lat="50.84544" lon="2.83572">
        <ele>18.7</ele>
        <time>2020-06-23T15:15:49Z</time>
      </trkpt>
      <trkpt lat="50.84539" lon="2.83576">
        <ele>18.7</ele>
        <time>2020-06-23T15:15:50Z</time>
      </trkpt>
      <trkpt lat="50.84533" lon="2.8358">
        <ele>18.7</ele>
        <time>2020-06-23T15:15:51Z</time>
      </trkpt>
      <trkpt lat="50.84526" lon="2.83586">
        <ele>18.7</ele>
        <time>2020-06-23T15:15:52Z</time>
      </trkpt>
      <trkpt lat="50.84521" lon="2.83589">
        <ele>18.8</ele>
        <time>2020-06-23T15:15:53Z</time>
      </trkpt>
      <trkpt lat="50.84515" lon="2.83593">
        <ele>18.8</ele>
        <time>2020-06-23T15:15:54Z</time>
      </trkpt>
      <trkpt lat="50.8451" lon="2.83597">
        <ele>18.8</ele>
        <time>2020-06-23T15:15:55Z</time>
      </trkpt>
      <trkpt lat="50.84504" lon="2.83601">
        <ele>18.8</ele>
        <time>2020-06-23T15:15:56Z</time>
      </trkpt>
      <trkpt lat="50.84498" lon="2.83605">
        <ele>18.8</ele>
        <time>2020-06-23T15:15:57Z</time>
      </trkpt>
      <trkpt lat="50.84492" lon="2.8361">
        <ele>18.8</ele>
        <time>2020-06-23T15:15:58Z</time>
      </trkpt>
      <trkpt lat="50.84486" lon="2.83615">
        <ele>18.8</ele>
        <time>2020-06-23T15:15:59Z</time>
      </trkpt>
      <trkpt lat="50.84481" lon="2.83619">
        <ele>18.9</ele>
        <time>2020-06-23T15:16:00Z</time>
      </trkpt>
      <trkpt lat="50.84475" lon="2.83622">
        <ele>18.9</ele>
        <time>2020-06-23T15:16:01Z</time>
      </trkpt>
      <trkpt lat="50.8447" lon="2.83627">
        <ele>18.9</ele>
        <time>2020-06-23T15:16:02Z</time>
      </trkpt>
      <trkpt lat="50.84464" lon="2.83631">
        <ele>18.9</ele>
        <time>2020-06-23T15:16:03Z</time>
      </trkpt>
      <trkpt lat="50.84458" lon="2.83635">
        <ele>18.9</ele>
        <time>2020-06-23T15:16:04Z</time>
      </trkpt>
      <trkpt lat="50.84452" lon="2.8364">
        <ele>18.9</ele>
        <time>2020-06-23T15:16:05Z</time>
      </trkpt>
      <trkpt lat="50.84445" lon="2.83644">
        <ele>18.9</ele>
        <time>2020-06-23T15:16:06Z</time>
      </trkpt>
      <trkpt lat="50.84439" lon="2.83649">
        <ele>18.8</ele>
        <time>2020-06-23T15:16:07Z</time>
      </trkpt>
      <trkpt lat="50.84434" lon="2.83653">
        <ele>18.8</ele>
        <time>2020-06-23T15:16:08Z</time>
      </trkpt>
      <trkpt lat="50.84427" lon="2.83657">
        <ele>18.8</ele>
        <time>2020-06-23T15:16:09Z</time>
      </trkpt>
      <trkpt lat="50.84421" lon="2.83662">
        <ele>18.8</ele>
        <time>2020-06-23T15:16:10Z</time>
      </trkpt>
      <trkpt lat="50.84415" lon="2.83666">
        <ele>18.8</ele>
        <time>2020-06-23T15:16:11Z</time>
      </trkpt>
      <trkpt lat="50.84409" lon="2.83669">
        <ele>18.7</ele>
        <time>2020-06-23T15:16:12Z</time>
      </trkpt>
      <trkpt lat="50.84404" lon="2.83673">
        <ele>18.7</ele>
        <time>2020-06-23T15:16:13Z</time>
      </trkpt>
      <trkpt lat="50.84398" lon="2.83677">
        <ele>18.6</ele>
        <time>2020-06-23T15:16:14Z</time>
      </trkpt>
      <trkpt lat="50.84391" lon="2.83681">
        <ele>18.6</ele>
        <time>2020-06-23T15:16:15Z</time>
      </trkpt>
      <trkpt lat="50.84386" lon="2.83685">
        <ele>18.6</ele>
        <time>2020-06-23T15:16:16Z</time>
      </trkpt>
      <trkpt lat="50.8438" lon="2.83689">
        <ele>18.6</ele>
        <time>2020-06-23T15:16:17Z</time>
      </trkpt>
      <trkpt lat="50.84374" lon="2.83693">
        <ele>18.6</ele>
        <time>2020-06-23T15:16:18Z</time>
      </trkpt>
      <trkpt lat="50.84368" lon="2.83697">
        <ele>18.5</ele>
        <time>2020-06-23T15:16:19Z</time>
      </trkpt>
      <trkpt lat="50.84362" lon="2.83701">
        <ele>18.5</ele>
        <time>2020-06-23T15:16:20Z</time>
      </trkpt>
      <trkpt lat="50.84356" lon="2.83707">
        <ele>18.4</ele>
        <time>2020-06-23T15:16:21Z</time>
      </trkpt>
      <trkpt lat="50.84349" lon="2.83711">
        <ele>18.4</ele>
        <time>2020-06-23T15:16:22Z</time>
      </trkpt>
      <trkpt lat="50.84343" lon="2.83716">
        <ele>18.3</ele>
        <time>2020-06-23T15:16:23Z</time>
      </trkpt>
      <trkpt lat="50.84337" lon="2.83721">
        <ele>18.3</ele>
        <time>2020-06-23T15:16:24Z</time>
      </trkpt>
      <trkpt lat="50.84332" lon="2.83726">
        <ele>18.3</ele>
        <time>2020-06-23T15:16:25Z</time>
      </trkpt>
      <trkpt lat="50.84327" lon="2.83732">
        <ele>18.2</ele>
        <time>2020-06-23T15:16:26Z</time>
      </trkpt>
      <trkpt lat="50.84323" lon="2.83738">
        <ele>18.2</ele>
        <time>2020-06-23T15:16:27Z</time>
      </trkpt>
      <trkpt lat="50.84318" lon="2.83745">
        <ele>18.1</ele>
        <time>2020-06-23T15:16:28Z</time>
      </trkpt>
      <trkpt lat="50.84314" lon="2.83752">
        <ele>18.1</ele>
        <time>2020-06-23T15:16:29Z</time>
      </trkpt>
      <trkpt lat="50.84309" lon="2.83759">
        <ele>18</ele>
        <time>2020-06-23T15:16:30Z</time>
      </trkpt>
      <trkpt lat="50.84305" lon="2.83767">
        <ele>18</ele>
        <time>2020-06-23T15:16:31Z</time>
      </trkpt>
      <trkpt lat="50.84301" lon="2.83776">
        <ele>17.9</ele>
        <time>2020-06-23T15:16:32Z</time>
      </trkpt>
      <trkpt lat="50.84297" lon="2.83785">
        <ele>17.8</ele>
        <time>2020-06-23T15:16:33Z</time>
      </trkpt>
      <trkpt lat="50.84293" lon="2.83793">
        <ele>17.8</ele>
        <time>2020-06-23T15:16:34Z</time>
      </trkpt>
      <trkpt lat="50.84289" lon="2.83802">
        <ele>17.7</ele>
        <time>2020-06-23T15:16:35Z</time>
      </trkpt>
      <trkpt lat="50.84285" lon="2.83811">
        <ele>17.6</ele>
        <time>2020-06-23T15:16:36Z</time>
      </trkpt>
      <trkpt lat="50.84281" lon="2.83818">
        <ele>17.6</ele>
        <time>2020-06-23T15:16:37Z</time>
      </trkpt>
      <trkpt lat="50.84276" lon="2.83827">
        <ele>17.5</ele>
        <time>2020-06-23T15:16:38Z</time>
      </trkpt>
      <trkpt lat="50.84272" lon="2.83834">
        <ele>17.5</ele>
        <time>2020-06-23T15:16:39Z</time>
      </trkpt>
      <trkpt lat="50.84268" lon="2.83842">
        <ele>17.5</ele>
        <time>2020-06-23T15:16:40Z</time>
      </trkpt>
      <trkpt lat="50.84264" lon="2.8385">
        <ele>17.4</ele>
        <time>2020-06-23T15:16:41Z</time>
      </trkpt>
      <trkpt lat="50.84261" lon="2.83858">
        <ele>17.4</ele>
        <time>2020-06-23T15:16:42Z</time>
      </trkpt>
      <trkpt lat="50.84257" lon="2.83866">
        <ele>17.4</ele>
        <time>2020-06-23T15:16:43Z</time>
      </trkpt>
      <trkpt lat="50.84252" lon="2.83875">
        <ele>17.4</ele>
        <time>2020-06-23T15:16:44Z</time>
      </trkpt>
      <trkpt lat="50.84248" lon="2.83882">
        <ele>17.4</ele>
        <time>2020-06-23T15:16:45Z</time>
      </trkpt>
      <trkpt lat="50.84244" lon="2.8389">
        <ele>17.4</ele>
        <time>2020-06-23T15:16:46Z</time>
      </trkpt>
      <trkpt lat="50.84241" lon="2.83896">
        <ele>17.3</ele>
        <time>2020-06-23T15:16:47Z</time>
      </trkpt>
      <trkpt lat="50.84237" lon="2.83903">
        <ele>17.3</ele>
        <time>2020-06-23T15:16:48Z</time>
      </trkpt>
      <trkpt lat="50.84233" lon="2.83912">
        <ele>17.3</ele>
        <time>2020-06-23T15:16:49Z</time>
      </trkpt>
      <trkpt lat="50.8423" lon="2.83919">
        <ele>17.3</ele>
        <time>2020-06-23T15:16:50Z</time>
      </trkpt>
      <trkpt lat="50.84226" lon="2.83926">
        <ele>17.3</ele>
        <time>2020-06-23T15:16:51Z</time>
      </trkpt>
      <trkpt lat="50.84222" lon="2.83934">
        <ele>17.2</ele>
        <time>2020-06-23T15:16:52Z</time>
      </trkpt>
      <trkpt lat="50.84218" lon="2.83941">
        <ele>17.2</ele>
        <time>2020-06-23T15:16:53Z</time>
      </trkpt>
      <trkpt lat="50.84213" lon="2.83948">
        <ele>17.1</ele>
        <time>2020-06-23T15:16:54Z</time>
      </trkpt>
      <trkpt lat="50.84208" lon="2.83954">
        <ele>17.1</ele>
        <time>2020-06-23T15:16:55Z</time>
      </trkpt>
      <trkpt lat="50.84204" lon="2.8396">
        <ele>17.1</ele>
        <time>2020-06-23T15:16:56Z</time>
      </trkpt>
      <trkpt lat="50.84198" lon="2.83965">
        <ele>17</ele>
        <time>2020-06-23T15:16:57Z</time>
      </trkpt>
      <trkpt lat="50.84191" lon="2.83967">
        <ele>17</ele>
        <time>2020-06-23T15:16:58Z</time>
      </trkpt>
      <trkpt lat="50.84186" lon="2.83967">
        <ele>16.9</ele>
        <time>2020-06-23T15:16:59Z</time>
      </trkpt>
      <trkpt lat="50.84179" lon="2.83967">
        <ele>16.9</ele>
        <time>2020-06-23T15:17:00Z</time>
      </trkpt>
      <trkpt lat="50.84173" lon="2.83966">
        <ele>16.8</ele>
        <time>2020-06-23T15:17:01Z</time>
      </trkpt>
      <trkpt lat="50.84166" lon="2.83966">
        <ele>16.8</ele>
        <time>2020-06-23T15:17:02Z</time>
      </trkpt>
      <trkpt lat="50.8416" lon="2.83966">
        <ele>16.7</ele>
        <time>2020-06-23T15:17:03Z</time>
      </trkpt>
      <trkpt lat="50.84154" lon="2.83966">
        <ele>16.7</ele>
        <time>2020-06-23T15:17:04Z</time>
      </trkpt>
      <trkpt lat="50.84148" lon="2.83966">
        <ele>16.8</ele>
        <time>2020-06-23T15:17:05Z</time>
      </trkpt>
      <trkpt lat="50.84141" lon="2.83966">
        <ele>16.8</ele>
        <time>2020-06-23T15:17:06Z</time>
      </trkpt>
      <trkpt lat="50.84134" lon="2.83966">
        <ele>16.7</ele>
        <time>2020-06-23T15:17:07Z</time>
      </trkpt>
      <trkpt lat="50.84127" lon="2.83966">
        <ele>16.7</ele>
        <time>2020-06-23T15:17:08Z</time>
      </trkpt>
      <trkpt lat="50.84121" lon="2.83967">
        <ele>16.7</ele>
        <time>2020-06-23T15:17:09Z</time>
      </trkpt>
      <trkpt lat="50.84114" lon="2.83967">
        <ele>16.7</ele>
        <time>2020-06-23T15:17:10Z</time>
      </trkpt>
      <trkpt lat="50.84107" lon="2.83967">
        <ele>16.8</ele>
        <time>2020-06-23T15:17:11Z</time>
      </trkpt>
      <trkpt lat="50.84101" lon="2.83967">
        <ele>16.8</ele>
        <time>2020-06-23T15:17:12Z</time>
      </trkpt>
      <trkpt lat="50.84094" lon="2.83968">
        <ele>16.8</ele>
        <time>2020-06-23T15:17:13Z</time>
      </trkpt>
      <trkpt lat="50.84087" lon="2.83967">
        <ele>16.8</ele>
        <time>2020-06-23T15:17:14Z</time>
      </trkpt>
      <trkpt lat="50.8408" lon="2.83968">
        <ele>16.8</ele>
        <time>2020-06-23T15:17:15Z</time>
      </trkpt>
      <trkpt lat="50.84074" lon="2.83968">
        <ele>16.8</ele>
        <time>2020-06-23T15:17:16Z</time>
      </trkpt>
      <trkpt lat="50.84067" lon="2.83968">
        <ele>16.8</ele>
        <time>2020-06-23T15:17:17Z</time>
      </trkpt>
      <trkpt lat="50.84061" lon="2.83968">
        <ele>16.8</ele>
        <time>2020-06-23T15:17:18Z</time>
      </trkpt>
      <trkpt lat="50.84055" lon="2.83969">
        <ele>16.8</ele>
        <time>2020-06-23T15:17:19Z</time>
      </trkpt>
      <trkpt lat="50.84048" lon="2.8397">
        <ele>16.8</ele>
        <time>2020-06-23T15:17:20Z</time>
      </trkpt>
      <trkpt lat="50.84042" lon="2.8397">
        <ele>16.9</ele>
        <time>2020-06-23T15:17:21Z</time>
      </trkpt>
      <trkpt lat="50.84035" lon="2.8397">
        <ele>16.9</ele>
        <time>2020-06-23T15:17:22Z</time>
      </trkpt>
      <trkpt lat="50.84029" lon="2.83971">
        <ele>17</ele>
        <time>2020-06-23T15:17:23Z</time>
      </trkpt>
      <trkpt lat="50.84022" lon="2.83971">
        <ele>17</ele>
        <time>2020-06-23T15:17:24Z</time>
      </trkpt>
      <trkpt lat="50.84016" lon="2.83971">
        <ele>17</ele>
        <time>2020-06-23T15:17:25Z</time>
      </trkpt>
      <trkpt lat="50.84009" lon="2.83972">
        <ele>17</ele>
        <time>2020-06-23T15:17:26Z</time>
      </trkpt>
      <trkpt lat="50.84003" lon="2.83973">
        <ele>17</ele>
        <time>2020-06-23T15:17:27Z</time>
      </trkpt>
      <trkpt lat="50.83996" lon="2.83974">
        <ele>17.1</ele>
        <time>2020-06-23T15:17:28Z</time>
      </trkpt>
      <trkpt lat="50.8399" lon="2.83974">
        <ele>17.1</ele>
        <time>2020-06-23T15:17:29Z</time>
      </trkpt>
      <trkpt lat="50.83983" lon="2.83974">
        <ele>17.1</ele>
        <time>2020-06-23T15:17:30Z</time>
      </trkpt>
      <trkpt lat="50.83977" lon="2.83974">
        <ele>17.2</ele>
        <time>2020-06-23T15:17:31Z</time>
      </trkpt>
      <trkpt lat="50.8397" lon="2.83975">
        <ele>17.2</ele>
        <time>2020-06-23T15:17:32Z</time>
      </trkpt>
      <trkpt lat="50.83963" lon="2.83975">
        <ele>17.2</ele>
        <time>2020-06-23T15:17:33Z</time>
      </trkpt>
      <trkpt lat="50.83957" lon="2.83976">
        <ele>17.3</ele>
        <time>2020-06-23T15:17:34Z</time>
      </trkpt>
      <trkpt lat="50.83951" lon="2.83977">
        <ele>17.4</ele>
        <time>2020-06-23T15:17:35Z</time>
      </trkpt>
      <trkpt lat="50.83944" lon="2.83978">
        <ele>17.5</ele>
        <time>2020-06-23T15:17:36Z</time>
      </trkpt>
      <trkpt lat="50.83938" lon="2.8398">
        <ele>17.6</ele>
        <time>2020-06-23T15:17:37Z</time>
      </trkpt>
      <trkpt lat="50.83932" lon="2.83983">
        <ele>17.7</ele>
        <time>2020-06-23T15:17:38Z</time>
      </trkpt>
      <trkpt lat="50.83927" lon="2.83987">
        <ele>17.9</ele>
        <time>2020-06-23T15:17:39Z</time>
      </trkpt>
      <trkpt lat="50.83921" lon="2.8399">
        <ele>17.8</ele>
        <time>2020-06-23T15:17:40Z</time>
      </trkpt>
      <trkpt lat="50.83916" lon="2.83995">
        <ele>17.7</ele>
        <time>2020-06-23T15:17:41Z</time>
      </trkpt>
      <trkpt lat="50.83911" lon="2.84">
        <ele>17.6</ele>
        <time>2020-06-23T15:17:42Z</time>
      </trkpt>
      <trkpt lat="50.83905" lon="2.84005">
        <ele>17.6</ele>
        <time>2020-06-23T15:17:43Z</time>
      </trkpt>
      <trkpt lat="50.83901" lon="2.84011">
        <ele>17.5</ele>
        <time>2020-06-23T15:17:44Z</time>
      </trkpt>
      <trkpt lat="50.83896" lon="2.84018">
        <ele>17.5</ele>
        <time>2020-06-23T15:17:45Z</time>
      </trkpt>
      <trkpt lat="50.83892" lon="2.84026">
        <ele>17.4</ele>
        <time>2020-06-23T15:17:46Z</time>
      </trkpt>
      <trkpt lat="50.83887" lon="2.84034">
        <ele>17.4</ele>
        <time>2020-06-23T15:17:47Z</time>
      </trkpt>
      <trkpt lat="50.83882" lon="2.84041">
        <ele>17.4</ele>
        <time>2020-06-23T15:17:48Z</time>
      </trkpt>
      <trkpt lat="50.83878" lon="2.84048">
        <ele>17.3</ele>
        <time>2020-06-23T15:17:49Z</time>
      </trkpt>
      <trkpt lat="50.83874" lon="2.84055">
        <ele>17.3</ele>
        <time>2020-06-23T15:17:50Z</time>
      </trkpt>
      <trkpt lat="50.83869" lon="2.84062">
        <ele>17.3</ele>
        <time>2020-06-23T15:17:51Z</time>
      </trkpt>
      <trkpt lat="50.83864" lon="2.84069">
        <ele>17.3</ele>
        <time>2020-06-23T15:17:52Z</time>
      </trkpt>
      <trkpt lat="50.83859" lon="2.84076">
        <ele>17.3</ele>
        <time>2020-06-23T15:17:53Z</time>
      </trkpt>
      <trkpt lat="50.83854" lon="2.84083">
        <ele>17.3</ele>
        <time>2020-06-23T15:17:54Z</time>
      </trkpt>
      <trkpt lat="50.83849" lon="2.8409">
        <ele>17.4</ele>
        <time>2020-06-23T15:17:55Z</time>
      </trkpt>
      <trkpt lat="50.83844" lon="2.84097">
        <ele>17.4</ele>
        <time>2020-06-23T15:17:56Z</time>
      </trkpt>
      <trkpt lat="50.8384" lon="2.84104">
        <ele>17.4</ele>
        <time>2020-06-23T15:17:57Z</time>
      </trkpt>
      <trkpt lat="50.83835" lon="2.84111">
        <ele>17.4</ele>
        <time>2020-06-23T15:17:58Z</time>
      </trkpt>
      <trkpt lat="50.83829" lon="2.84119">
        <ele>17.4</ele>
        <time>2020-06-23T15:17:59Z</time>
      </trkpt>
      <trkpt lat="50.83824" lon="2.84126">
        <ele>17.4</ele>
        <time>2020-06-23T15:18:00Z</time>
      </trkpt>
      <trkpt lat="50.83819" lon="2.84132">
        <ele>17.5</ele>
        <time>2020-06-23T15:18:01Z</time>
      </trkpt>
      <trkpt lat="50.83815" lon="2.84139">
        <ele>17.5</ele>
        <time>2020-06-23T15:18:02Z</time>
      </trkpt>
      <trkpt lat="50.8381" lon="2.84146">
        <ele>17.5</ele>
        <time>2020-06-23T15:18:03Z</time>
      </trkpt>
      <trkpt lat="50.83806" lon="2.84152">
        <ele>17.5</ele>
        <time>2020-06-23T15:18:04Z</time>
      </trkpt>
      <trkpt lat="50.83802" lon="2.84158">
        <ele>17.5</ele>
        <time>2020-06-23T15:18:05Z</time>
      </trkpt>
      <trkpt lat="50.83798" lon="2.84165">
        <ele>17.5</ele>
        <time>2020-06-23T15:18:06Z</time>
      </trkpt>
      <trkpt lat="50.83794" lon="2.84172">
        <ele>17.5</ele>
        <time>2020-06-23T15:18:07Z</time>
      </trkpt>
      <trkpt lat="50.83789" lon="2.84178">
        <ele>17.5</ele>
        <time>2020-06-23T15:18:08Z</time>
      </trkpt>
      <trkpt lat="50.83785" lon="2.84185">
        <ele>17.4</ele>
        <time>2020-06-23T15:18:09Z</time>
      </trkpt>
      <trkpt lat="50.83781" lon="2.84191">
        <ele>17.4</ele>
        <time>2020-06-23T15:18:10Z</time>
      </trkpt>
      <trkpt lat="50.83776" lon="2.84197">
        <ele>17.4</ele>
        <time>2020-06-23T15:18:11Z</time>
      </trkpt>
      <trkpt lat="50.83771" lon="2.84205">
        <ele>17.4</ele>
        <time>2020-06-23T15:18:12Z</time>
      </trkpt>
      <trkpt lat="50.83766" lon="2.84212">
        <ele>17.4</ele>
        <time>2020-06-23T15:18:13Z</time>
      </trkpt>
      <trkpt lat="50.83762" lon="2.84218">
        <ele>17.4</ele>
        <time>2020-06-23T15:18:14Z</time>
      </trkpt>
      <trkpt lat="50.83757" lon="2.84225">
        <ele>17.4</ele>
        <time>2020-06-23T15:18:15Z</time>
      </trkpt>
      <trkpt lat="50.83752" lon="2.84232">
        <ele>17.4</ele>
        <time>2020-06-23T15:18:16Z</time>
      </trkpt>
      <trkpt lat="50.83748" lon="2.84239">
        <ele>17.4</ele>
        <time>2020-06-23T15:18:17Z</time>
      </trkpt>
      <trkpt lat="50.83743" lon="2.84247">
        <ele>17.4</ele>
        <time>2020-06-23T15:18:18Z</time>
      </trkpt>
      <trkpt lat="50.83739" lon="2.84255">
        <ele>17.4</ele>
        <time>2020-06-23T15:18:19Z</time>
      </trkpt>
      <trkpt lat="50.83736" lon="2.84262">
        <ele>17.4</ele>
        <time>2020-06-23T15:18:20Z</time>
      </trkpt>
      <trkpt lat="50.83731" lon="2.8427">
        <ele>17.4</ele>
        <time>2020-06-23T15:18:21Z</time>
      </trkpt>
      <trkpt lat="50.83727" lon="2.84278">
        <ele>17.4</ele>
        <time>2020-06-23T15:18:22Z</time>
      </trkpt>
      <trkpt lat="50.83723" lon="2.84286">
        <ele>17.4</ele>
        <time>2020-06-23T15:18:23Z</time>
      </trkpt>
      <trkpt lat="50.83719" lon="2.84293">
        <ele>17.5</ele>
        <time>2020-06-23T15:18:24Z</time>
      </trkpt>
      <trkpt lat="50.83714" lon="2.84301">
        <ele>17.5</ele>
        <time>2020-06-23T15:18:25Z</time>
      </trkpt>
      <trkpt lat="50.8371" lon="2.84309">
        <ele>17.5</ele>
        <time>2020-06-23T15:18:26Z</time>
      </trkpt>
      <trkpt lat="50.83704" lon="2.84318">
        <ele>17.5</ele>
        <time>2020-06-23T15:18:27Z</time>
      </trkpt>
      <trkpt lat="50.837" lon="2.84326">
        <ele>17.5</ele>
        <time>2020-06-23T15:18:28Z</time>
      </trkpt>
      <trkpt lat="50.83695" lon="2.84335">
        <ele>17.5</ele>
        <time>2020-06-23T15:18:29Z</time>
      </trkpt>
      <trkpt lat="50.8369" lon="2.84342">
        <ele>17.5</ele>
        <time>2020-06-23T15:18:30Z</time>
      </trkpt>
      <trkpt lat="50.83685" lon="2.8435">
        <ele>17.5</ele>
        <time>2020-06-23T15:18:31Z</time>
      </trkpt>
      <trkpt lat="50.8368" lon="2.84358">
        <ele>17.5</ele>
        <time>2020-06-23T15:18:32Z</time>
      </trkpt>
      <trkpt lat="50.83677" lon="2.84366">
        <ele>17.5</ele>
        <time>2020-06-23T15:18:33Z</time>
      </trkpt>
      <trkpt lat="50.83672" lon="2.84375">
        <ele>17.4</ele>
        <time>2020-06-23T15:18:34Z</time>
      </trkpt>
      <trkpt lat="50.83668" lon="2.84383">
        <ele>17.4</ele>
        <time>2020-06-23T15:18:35Z</time>
      </trkpt>
      <trkpt lat="50.83664" lon="2.84391">
        <ele>17.4</ele>
        <time>2020-06-23T15:18:36Z</time>
      </trkpt>
      <trkpt lat="50.8366" lon="2.844">
        <ele>17.4</ele>
        <time>2020-06-23T15:18:37Z</time>
      </trkpt>
      <trkpt lat="50.83656" lon="2.84407">
        <ele>17.5</ele>
        <time>2020-06-23T15:18:38Z</time>
      </trkpt>
      <trkpt lat="50.83652" lon="2.84415">
        <ele>17.5</ele>
        <time>2020-06-23T15:18:39Z</time>
      </trkpt>
      <trkpt lat="50.83648" lon="2.84423">
        <ele>17.5</ele>
        <time>2020-06-23T15:18:40Z</time>
      </trkpt>
      <trkpt lat="50.83645" lon="2.8443">
        <ele>17.6</ele>
        <time>2020-06-23T15:18:41Z</time>
      </trkpt>
      <trkpt lat="50.8364" lon="2.84438">
        <ele>17.6</ele>
        <time>2020-06-23T15:18:42Z</time>
      </trkpt>
      <trkpt lat="50.83635" lon="2.84447">
        <ele>17.6</ele>
        <time>2020-06-23T15:18:43Z</time>
      </trkpt>
      <trkpt lat="50.83632" lon="2.84455">
        <ele>17.6</ele>
        <time>2020-06-23T15:18:44Z</time>
      </trkpt>
      <trkpt lat="50.83628" lon="2.84462">
        <ele>17.6</ele>
        <time>2020-06-23T15:18:45Z</time>
      </trkpt>
      <trkpt lat="50.83624" lon="2.84468">
        <ele>17.6</ele>
        <time>2020-06-23T15:18:46Z</time>
      </trkpt>
      <trkpt lat="50.8362" lon="2.84476">
        <ele>17.6</ele>
        <time>2020-06-23T15:18:47Z</time>
      </trkpt>
      <trkpt lat="50.83615" lon="2.84485">
        <ele>17.6</ele>
        <time>2020-06-23T15:18:48Z</time>
      </trkpt>
      <trkpt lat="50.83611" lon="2.84491">
        <ele>17.7</ele>
        <time>2020-06-23T15:18:49Z</time>
      </trkpt>
      <trkpt lat="50.83607" lon="2.84499">
        <ele>17.7</ele>
        <time>2020-06-23T15:18:50Z</time>
      </trkpt>
      <trkpt lat="50.83602" lon="2.84507">
        <ele>17.7</ele>
        <time>2020-06-23T15:18:51Z</time>
      </trkpt>
      <trkpt lat="50.83598" lon="2.84515">
        <ele>17.8</ele>
        <time>2020-06-23T15:18:52Z</time>
      </trkpt>
      <trkpt lat="50.83594" lon="2.84523">
        <ele>17.8</ele>
        <time>2020-06-23T15:18:53Z</time>
      </trkpt>
      <trkpt lat="50.83589" lon="2.84532">
        <ele>17.9</ele>
        <time>2020-06-23T15:18:54Z</time>
      </trkpt>
      <trkpt lat="50.83584" lon="2.84541">
        <ele>17.9</ele>
        <time>2020-06-23T15:18:55Z</time>
      </trkpt>
      <trkpt lat="50.8358" lon="2.84549">
        <ele>18</ele>
        <time>2020-06-23T15:18:56Z</time>
      </trkpt>
      <trkpt lat="50.83575" lon="2.84558">
        <ele>18</ele>
        <time>2020-06-23T15:18:57Z</time>
      </trkpt>
      <trkpt lat="50.83571" lon="2.84566">
        <ele>18.1</ele>
        <time>2020-06-23T15:18:58Z</time>
      </trkpt>
      <trkpt lat="50.83567" lon="2.84574">
        <ele>18.1</ele>
        <time>2020-06-23T15:18:59Z</time>
      </trkpt>
      <trkpt lat="50.83563" lon="2.84582">
        <ele>18.2</ele>
        <time>2020-06-23T15:19:00Z</time>
      </trkpt>
      <trkpt lat="50.83559" lon="2.8459">
        <ele>18.3</ele>
        <time>2020-06-23T15:19:01Z</time>
      </trkpt>
      <trkpt lat="50.83555" lon="2.84597">
        <ele>18.3</ele>
        <time>2020-06-23T15:19:02Z</time>
      </trkpt>
      <trkpt lat="50.8355" lon="2.84605">
        <ele>18.4</ele>
        <time>2020-06-23T15:19:03Z</time>
      </trkpt>
      <trkpt lat="50.83545" lon="2.84613">
        <ele>18.4</ele>
        <time>2020-06-23T15:19:04Z</time>
      </trkpt>
      <trkpt lat="50.8354" lon="2.84621">
        <ele>18.5</ele>
        <time>2020-06-23T15:19:05Z</time>
      </trkpt>
      <trkpt lat="50.83536" lon="2.84629">
        <ele>18.6</ele>
        <time>2020-06-23T15:19:06Z</time>
      </trkpt>
      <trkpt lat="50.83532" lon="2.84636">
        <ele>18.6</ele>
        <time>2020-06-23T15:19:07Z</time>
      </trkpt>
      <trkpt lat="50.83527" lon="2.84644">
        <ele>18.7</ele>
        <time>2020-06-23T15:19:08Z</time>
      </trkpt>
      <trkpt lat="50.83523" lon="2.84652">
        <ele>18.8</ele>
        <time>2020-06-23T15:19:09Z</time>
      </trkpt>
      <trkpt lat="50.83519" lon="2.84659">
        <ele>18.9</ele>
        <time>2020-06-23T15:19:10Z</time>
      </trkpt>
      <trkpt lat="50.83516" lon="2.84666">
        <ele>18.9</ele>
        <time>2020-06-23T15:19:11Z</time>
      </trkpt>
      <trkpt lat="50.83512" lon="2.84673">
        <ele>19</ele>
        <time>2020-06-23T15:19:12Z</time>
      </trkpt>
      <trkpt lat="50.83508" lon="2.84681">
        <ele>19.1</ele>
        <time>2020-06-23T15:19:13Z</time>
      </trkpt>
      <trkpt lat="50.83504" lon="2.84688">
        <ele>19.2</ele>
        <time>2020-06-23T15:19:14Z</time>
      </trkpt>
      <trkpt lat="50.835" lon="2.84695">
        <ele>19.2</ele>
        <time>2020-06-23T15:19:15Z</time>
      </trkpt>
      <trkpt lat="50.83496" lon="2.84703">
        <ele>19.3</ele>
        <time>2020-06-23T15:19:16Z</time>
      </trkpt>
      <trkpt lat="50.83492" lon="2.84708">
        <ele>19.4</ele>
        <time>2020-06-23T15:19:17Z</time>
      </trkpt>
      <trkpt lat="50.83488" lon="2.84714">
        <ele>19.4</ele>
        <time>2020-06-23T15:19:18Z</time>
      </trkpt>
      <trkpt lat="50.83484" lon="2.8472">
        <ele>19.5</ele>
        <time>2020-06-23T15:19:19Z</time>
      </trkpt>
      <trkpt lat="50.83479" lon="2.84726">
        <ele>19.5</ele>
        <time>2020-06-23T15:19:20Z</time>
      </trkpt>
      <trkpt lat="50.83474" lon="2.84732">
        <ele>19.5</ele>
        <time>2020-06-23T15:19:21Z</time>
      </trkpt>
      <trkpt lat="50.83469" lon="2.84737">
        <ele>19.6</ele>
        <time>2020-06-23T15:19:22Z</time>
      </trkpt>
      <trkpt lat="50.83464" lon="2.84743">
        <ele>19.6</ele>
        <time>2020-06-23T15:19:23Z</time>
      </trkpt>
      <trkpt lat="50.83459" lon="2.84748">
        <ele>19.7</ele>
        <time>2020-06-23T15:19:24Z</time>
      </trkpt>
      <trkpt lat="50.83454" lon="2.84753">
        <ele>19.9</ele>
        <time>2020-06-23T15:19:25Z</time>
      </trkpt>
      <trkpt lat="50.8345" lon="2.84759">
        <ele>20</ele>
        <time>2020-06-23T15:19:26Z</time>
      </trkpt>
      <trkpt lat="50.83445" lon="2.84765">
        <ele>20.1</ele>
        <time>2020-06-23T15:19:27Z</time>
      </trkpt>
      <trkpt lat="50.83441" lon="2.8477">
        <ele>20.1</ele>
        <time>2020-06-23T15:19:28Z</time>
      </trkpt>
      <trkpt lat="50.83436" lon="2.84775">
        <ele>20.2</ele>
        <time>2020-06-23T15:19:29Z</time>
      </trkpt>
      <trkpt lat="50.83431" lon="2.84781">
        <ele>20.2</ele>
        <time>2020-06-23T15:19:30Z</time>
      </trkpt>
      <trkpt lat="50.83426" lon="2.84787">
        <ele>20.2</ele>
        <time>2020-06-23T15:19:31Z</time>
      </trkpt>
      <trkpt lat="50.8342" lon="2.84794">
        <ele>20.3</ele>
        <time>2020-06-23T15:19:32Z</time>
      </trkpt>
      <trkpt lat="50.83417" lon="2.84799">
        <ele>20.3</ele>
        <time>2020-06-23T15:19:33Z</time>
      </trkpt>
      <trkpt lat="50.83413" lon="2.84803">
        <ele>20.3</ele>
        <time>2020-06-23T15:19:34Z</time>
      </trkpt>
      <trkpt lat="50.83408" lon="2.84811">
        <ele>20.4</ele>
        <time>2020-06-23T15:19:35Z</time>
      </trkpt>
      <trkpt lat="50.83402" lon="2.84817">
        <ele>20.4</ele>
        <time>2020-06-23T15:19:36Z</time>
      </trkpt>
      <trkpt lat="50.83396" lon="2.84824">
        <ele>20.5</ele>
        <time>2020-06-23T15:19:37Z</time>
      </trkpt>
      <trkpt lat="50.8339" lon="2.84831">
        <ele>20.6</ele>
        <time>2020-06-23T15:19:38Z</time>
      </trkpt>
      <trkpt lat="50.83384" lon="2.84838">
        <ele>20.7</ele>
        <time>2020-06-23T15:19:39Z</time>
      </trkpt>
      <trkpt lat="50.83379" lon="2.84844">
        <ele>20.8</ele>
        <time>2020-06-23T15:19:40Z</time>
      </trkpt>
      <trkpt lat="50.83373" lon="2.84851">
        <ele>20.9</ele>
        <time>2020-06-23T15:19:41Z</time>
      </trkpt>
      <trkpt lat="50.83368" lon="2.84857">
        <ele>21</ele>
        <time>2020-06-23T15:19:42Z</time>
      </trkpt>
      <trkpt lat="50.83363" lon="2.84863">
        <ele>21</ele>
        <time>2020-06-23T15:19:43Z</time>
      </trkpt>
      <trkpt lat="50.83358" lon="2.84869">
        <ele>21.1</ele>
        <time>2020-06-23T15:19:44Z</time>
      </trkpt>
      <trkpt lat="50.83352" lon="2.84875">
        <ele>21.2</ele>
        <time>2020-06-23T15:19:45Z</time>
      </trkpt>
      <trkpt lat="50.83347" lon="2.84881">
        <ele>21.3</ele>
        <time>2020-06-23T15:19:46Z</time>
      </trkpt>
      <trkpt lat="50.83342" lon="2.84888">
        <ele>21.4</ele>
        <time>2020-06-23T15:19:47Z</time>
      </trkpt>
      <trkpt lat="50.83338" lon="2.84895">
        <ele>21.4</ele>
        <time>2020-06-23T15:19:48Z</time>
      </trkpt>
      <trkpt lat="50.83332" lon="2.849">
        <ele>21.5</ele>
        <time>2020-06-23T15:19:49Z</time>
      </trkpt>
      <trkpt lat="50.83328" lon="2.84906">
        <ele>21.5</ele>
        <time>2020-06-23T15:19:50Z</time>
      </trkpt>
      <trkpt lat="50.83323" lon="2.84912">
        <ele>21.5</ele>
        <time>2020-06-23T15:19:51Z</time>
      </trkpt>
      <trkpt lat="50.83318" lon="2.84918">
        <ele>21.6</ele>
        <time>2020-06-23T15:19:52Z</time>
      </trkpt>
      <trkpt lat="50.83313" lon="2.84924">
        <ele>21.7</ele>
        <time>2020-06-23T15:19:53Z</time>
      </trkpt>
      <trkpt lat="50.83309" lon="2.84928">
        <ele>21.8</ele>
        <time>2020-06-23T15:19:54Z</time>
      </trkpt>
      <trkpt lat="50.83304" lon="2.84933">
        <ele>21.9</ele>
        <time>2020-06-23T15:19:55Z</time>
      </trkpt>
      <trkpt lat="50.83299" lon="2.84938">
        <ele>22</ele>
        <time>2020-06-23T15:19:56Z</time>
      </trkpt>
      <trkpt lat="50.83295" lon="2.84944">
        <ele>22.1</ele>
        <time>2020-06-23T15:19:57Z</time>
      </trkpt>
      <trkpt lat="50.8329" lon="2.84949">
        <ele>22.1</ele>
        <time>2020-06-23T15:19:58Z</time>
      </trkpt>
      <trkpt lat="50.83286" lon="2.84954">
        <ele>22.2</ele>
        <time>2020-06-23T15:19:59Z</time>
      </trkpt>
      <trkpt lat="50.83282" lon="2.84959">
        <ele>22.3</ele>
        <time>2020-06-23T15:20:00Z</time>
      </trkpt>
      <trkpt lat="50.83277" lon="2.84966">
        <ele>22.4</ele>
        <time>2020-06-23T15:20:01Z</time>
      </trkpt>
      <trkpt lat="50.83272" lon="2.84972">
        <ele>22.4</ele>
        <time>2020-06-23T15:20:02Z</time>
      </trkpt>
      <trkpt lat="50.83267" lon="2.84978">
        <ele>22.4</ele>
        <time>2020-06-23T15:20:03Z</time>
      </trkpt>
      <trkpt lat="50.83261" lon="2.84984">
        <ele>22.3</ele>
        <time>2020-06-23T15:20:04Z</time>
      </trkpt>
      <trkpt lat="50.83255" lon="2.84991">
        <ele>22.3</ele>
        <time>2020-06-23T15:20:05Z</time>
      </trkpt>
      <trkpt lat="50.83249" lon="2.84998">
        <ele>22.3</ele>
        <time>2020-06-23T15:20:06Z</time>
      </trkpt>
      <trkpt lat="50.83244" lon="2.85004">
        <ele>22.4</ele>
        <time>2020-06-23T15:20:07Z</time>
      </trkpt>
      <trkpt lat="50.8324" lon="2.85009">
        <ele>22.4</ele>
        <time>2020-06-23T15:20:08Z</time>
      </trkpt>
      <trkpt lat="50.83235" lon="2.85014">
        <ele>22.5</ele>
        <time>2020-06-23T15:20:09Z</time>
      </trkpt>
      <trkpt lat="50.8323" lon="2.8502">
        <ele>22.5</ele>
        <time>2020-06-23T15:20:10Z</time>
      </trkpt>
      <trkpt lat="50.83225" lon="2.85026">
        <ele>22.5</ele>
        <time>2020-06-23T15:20:11Z</time>
      </trkpt>
      <trkpt lat="50.8322" lon="2.85032">
        <ele>22.6</ele>
        <time>2020-06-23T15:20:12Z</time>
      </trkpt>
      <trkpt lat="50.83214" lon="2.85039">
        <ele>22.6</ele>
        <time>2020-06-23T15:20:13Z</time>
      </trkpt>
      <trkpt lat="50.83208" lon="2.85046">
        <ele>22.7</ele>
        <time>2020-06-23T15:20:14Z</time>
      </trkpt>
      <trkpt lat="50.83204" lon="2.85051">
        <ele>22.7</ele>
        <time>2020-06-23T15:20:15Z</time>
      </trkpt>
      <trkpt lat="50.83199" lon="2.85057">
        <ele>22.7</ele>
        <time>2020-06-23T15:20:16Z</time>
      </trkpt>
      <trkpt lat="50.83193" lon="2.85064">
        <ele>22.6</ele>
        <time>2020-06-23T15:20:17Z</time>
      </trkpt>
      <trkpt lat="50.83189" lon="2.8507">
        <ele>22.5</ele>
        <time>2020-06-23T15:20:18Z</time>
      </trkpt>
      <trkpt lat="50.83184" lon="2.85077">
        <ele>22.5</ele>
        <time>2020-06-23T15:20:19Z</time>
      </trkpt>
      <trkpt lat="50.83178" lon="2.85082">
        <ele>22.4</ele>
        <time>2020-06-23T15:20:20Z</time>
      </trkpt>
      <trkpt lat="50.83174" lon="2.85088">
        <ele>22.4</ele>
        <time>2020-06-23T15:20:21Z</time>
      </trkpt>
      <trkpt lat="50.83168" lon="2.85095">
        <ele>22.5</ele>
        <time>2020-06-23T15:20:22Z</time>
      </trkpt>
      <trkpt lat="50.83163" lon="2.85101">
        <ele>22.5</ele>
        <time>2020-06-23T15:20:23Z</time>
      </trkpt>
      <trkpt lat="50.83157" lon="2.85107">
        <ele>22.5</ele>
        <time>2020-06-23T15:20:24Z</time>
      </trkpt>
      <trkpt lat="50.83152" lon="2.85114">
        <ele>22.5</ele>
        <time>2020-06-23T15:20:25Z</time>
      </trkpt>
      <trkpt lat="50.83147" lon="2.8512">
        <ele>22.6</ele>
        <time>2020-06-23T15:20:26Z</time>
      </trkpt>
      <trkpt lat="50.83142" lon="2.85126">
        <ele>22.6</ele>
        <time>2020-06-23T15:20:27Z</time>
      </trkpt>
      <trkpt lat="50.83137" lon="2.85132">
        <ele>22.6</ele>
        <time>2020-06-23T15:20:28Z</time>
      </trkpt>
      <trkpt lat="50.83132" lon="2.85138">
        <ele>22.6</ele>
        <time>2020-06-23T15:20:29Z</time>
      </trkpt>
      <trkpt lat="50.83127" lon="2.85144">
        <ele>22.6</ele>
        <time>2020-06-23T15:20:30Z</time>
      </trkpt>
      <trkpt lat="50.83122" lon="2.85151">
        <ele>22.7</ele>
        <time>2020-06-23T15:20:31Z</time>
      </trkpt>
      <trkpt lat="50.83116" lon="2.85157">
        <ele>22.7</ele>
        <time>2020-06-23T15:20:32Z</time>
      </trkpt>
      <trkpt lat="50.83111" lon="2.85163">
        <ele>22.7</ele>
        <time>2020-06-23T15:20:33Z</time>
      </trkpt>
      <trkpt lat="50.83106" lon="2.8517">
        <ele>22.7</ele>
        <time>2020-06-23T15:20:34Z</time>
      </trkpt>
      <trkpt lat="50.83101" lon="2.85178">
        <ele>22.7</ele>
        <time>2020-06-23T15:20:35Z</time>
      </trkpt>
      <trkpt lat="50.83097" lon="2.85186">
        <ele>22.8</ele>
        <time>2020-06-23T15:20:36Z</time>
      </trkpt>
      <trkpt lat="50.83094" lon="2.85194">
        <ele>22.8</ele>
        <time>2020-06-23T15:20:37Z</time>
      </trkpt>
      <trkpt lat="50.83091" lon="2.85201">
        <ele>22.9</ele>
        <time>2020-06-23T15:20:38Z</time>
      </trkpt>
      <trkpt lat="50.83087" lon="2.85209">
        <ele>22.9</ele>
        <time>2020-06-23T15:20:39Z</time>
      </trkpt>
      <trkpt lat="50.83084" lon="2.85217">
        <ele>23</ele>
        <time>2020-06-23T15:20:40Z</time>
      </trkpt>
      <trkpt lat="50.83081" lon="2.85225">
        <ele>23</ele>
        <time>2020-06-23T15:20:41Z</time>
      </trkpt>
      <trkpt lat="50.83079" lon="2.85233">
        <ele>22.9</ele>
        <time>2020-06-23T15:20:42Z</time>
      </trkpt>
      <trkpt lat="50.83077" lon="2.85242">
        <ele>22.8</ele>
        <time>2020-06-23T15:20:43Z</time>
      </trkpt>
      <trkpt lat="50.83072" lon="2.85251">
        <ele>22.7</ele>
        <time>2020-06-23T15:20:44Z</time>
      </trkpt>
      <trkpt lat="50.83069" lon="2.8526">
        <ele>22.7</ele>
        <time>2020-06-23T15:20:45Z</time>
      </trkpt>
      <trkpt lat="50.83067" lon="2.8527">
        <ele>22.7</ele>
        <time>2020-06-23T15:20:46Z</time>
      </trkpt>
      <trkpt lat="50.83064" lon="2.85279">
        <ele>22.7</ele>
        <time>2020-06-23T15:20:47Z</time>
      </trkpt>
      <trkpt lat="50.83061" lon="2.85289">
        <ele>22.7</ele>
        <time>2020-06-23T15:20:48Z</time>
      </trkpt>
      <trkpt lat="50.83058" lon="2.853">
        <ele>22.8</ele>
        <time>2020-06-23T15:20:49Z</time>
      </trkpt>
      <trkpt lat="50.83055" lon="2.85311">
        <ele>22.9</ele>
        <time>2020-06-23T15:20:50Z</time>
      </trkpt>
      <trkpt lat="50.83052" lon="2.85321">
        <ele>22.9</ele>
        <time>2020-06-23T15:20:51Z</time>
      </trkpt>
      <trkpt lat="50.8305" lon="2.8533">
        <ele>23</ele>
        <time>2020-06-23T15:20:52Z</time>
      </trkpt>
      <trkpt lat="50.83047" lon="2.85338">
        <ele>23</ele>
        <time>2020-06-23T15:20:53Z</time>
      </trkpt>
      <trkpt lat="50.83043" lon="2.85348">
        <ele>23</ele>
        <time>2020-06-23T15:20:54Z</time>
      </trkpt>
      <trkpt lat="50.8304" lon="2.85357">
        <ele>23.1</ele>
        <time>2020-06-23T15:20:55Z</time>
      </trkpt>
      <trkpt lat="50.83038" lon="2.85365">
        <ele>23.2</ele>
        <time>2020-06-23T15:20:56Z</time>
      </trkpt>
      <trkpt lat="50.83035" lon="2.85374">
        <ele>23.2</ele>
        <time>2020-06-23T15:20:57Z</time>
      </trkpt>
      <trkpt lat="50.83032" lon="2.85383">
        <ele>23.3</ele>
        <time>2020-06-23T15:20:58Z</time>
      </trkpt>
      <trkpt lat="50.83029" lon="2.85392">
        <ele>23.4</ele>
        <time>2020-06-23T15:20:59Z</time>
      </trkpt>
      <trkpt lat="50.83027" lon="2.85401">
        <ele>23.4</ele>
        <time>2020-06-23T15:21:00Z</time>
      </trkpt>
      <trkpt lat="50.83024" lon="2.8541">
        <ele>23.5</ele>
        <time>2020-06-23T15:21:01Z</time>
      </trkpt>
      <trkpt lat="50.83022" lon="2.85419">
        <ele>23.5</ele>
        <time>2020-06-23T15:21:02Z</time>
      </trkpt>
      <trkpt lat="50.83019" lon="2.85428">
        <ele>23.6</ele>
        <time>2020-06-23T15:21:03Z</time>
      </trkpt>
      <trkpt lat="50.83016" lon="2.85437">
        <ele>23.7</ele>
        <time>2020-06-23T15:21:04Z</time>
      </trkpt>
      <trkpt lat="50.83014" lon="2.85445">
        <ele>23.7</ele>
        <time>2020-06-23T15:21:05Z</time>
      </trkpt>
      <trkpt lat="50.83012" lon="2.85453">
        <ele>23.7</ele>
        <time>2020-06-23T15:21:06Z</time>
      </trkpt>
      <trkpt lat="50.83009" lon="2.85461">
        <ele>23.7</ele>
        <time>2020-06-23T15:21:07Z</time>
      </trkpt>
      <trkpt lat="50.83005" lon="2.8547">
        <ele>23.8</ele>
        <time>2020-06-23T15:21:08Z</time>
      </trkpt>
      <trkpt lat="50.83002" lon="2.85478">
        <ele>23.8</ele>
        <time>2020-06-23T15:21:09Z</time>
      </trkpt>
      <trkpt lat="50.83" lon="2.85487">
        <ele>23.8</ele>
        <time>2020-06-23T15:21:10Z</time>
      </trkpt>
      <trkpt lat="50.82997" lon="2.85495">
        <ele>23.8</ele>
        <time>2020-06-23T15:21:11Z</time>
      </trkpt>
      <trkpt lat="50.82994" lon="2.85504">
        <ele>23.8</ele>
        <time>2020-06-23T15:21:12Z</time>
      </trkpt>
      <trkpt lat="50.82991" lon="2.85513">
        <ele>23.8</ele>
        <time>2020-06-23T15:21:13Z</time>
      </trkpt>
      <trkpt lat="50.82989" lon="2.8552">
        <ele>23.9</ele>
        <time>2020-06-23T15:21:14Z</time>
      </trkpt>
      <trkpt lat="50.82987" lon="2.85528">
        <ele>23.9</ele>
        <time>2020-06-23T15:21:15Z</time>
      </trkpt>
      <trkpt lat="50.82984" lon="2.85536">
        <ele>24</ele>
        <time>2020-06-23T15:21:16Z</time>
      </trkpt>
      <trkpt lat="50.82981" lon="2.85545">
        <ele>24.1</ele>
        <time>2020-06-23T15:21:17Z</time>
      </trkpt>
      <trkpt lat="50.82977" lon="2.85555">
        <ele>24.2</ele>
        <time>2020-06-23T15:21:18Z</time>
      </trkpt>
      <trkpt lat="50.82974" lon="2.85565">
        <ele>24.3</ele>
        <time>2020-06-23T15:21:19Z</time>
      </trkpt>
      <trkpt lat="50.82969" lon="2.85573">
        <ele>24.4</ele>
        <time>2020-06-23T15:21:20Z</time>
      </trkpt>
      <trkpt lat="50.82965" lon="2.85579">
        <ele>24.5</ele>
        <time>2020-06-23T15:21:21Z</time>
      </trkpt>
      <trkpt lat="50.8296" lon="2.85585">
        <ele>24.5</ele>
        <time>2020-06-23T15:21:22Z</time>
      </trkpt>
      <trkpt lat="50.82955" lon="2.85591">
        <ele>24.6</ele>
        <time>2020-06-23T15:21:23Z</time>
      </trkpt>
      <trkpt lat="50.8295" lon="2.85596">
        <ele>24.7</ele>
        <time>2020-06-23T15:21:24Z</time>
      </trkpt>
      <trkpt lat="50.82946" lon="2.85603">
        <ele>24.8</ele>
        <time>2020-06-23T15:21:25Z</time>
      </trkpt>
      <trkpt lat="50.82942" lon="2.8561">
        <ele>24.9</ele>
        <time>2020-06-23T15:21:26Z</time>
      </trkpt>
      <trkpt lat="50.82937" lon="2.85615">
        <ele>25</ele>
        <time>2020-06-23T15:21:27Z</time>
      </trkpt>
      <trkpt lat="50.82932" lon="2.8562">
        <ele>25.1</ele>
        <time>2020-06-23T15:21:28Z</time>
      </trkpt>
      <trkpt lat="50.82927" lon="2.85626">
        <ele>25.2</ele>
        <time>2020-06-23T15:21:29Z</time>
      </trkpt>
      <trkpt lat="50.82922" lon="2.85632">
        <ele>25.3</ele>
        <time>2020-06-23T15:21:30Z</time>
      </trkpt>
      <trkpt lat="50.82917" lon="2.85638">
        <ele>25.4</ele>
        <time>2020-06-23T15:21:31Z</time>
      </trkpt>
      <trkpt lat="50.82912" lon="2.85643">
        <ele>25.5</ele>
        <time>2020-06-23T15:21:32Z</time>
      </trkpt>
      <trkpt lat="50.82907" lon="2.85649">
        <ele>25.6</ele>
        <time>2020-06-23T15:21:33Z</time>
      </trkpt>
      <trkpt lat="50.82903" lon="2.85655">
        <ele>25.7</ele>
        <time>2020-06-23T15:21:34Z</time>
      </trkpt>
      <trkpt lat="50.82899" lon="2.8566">
        <ele>25.7</ele>
        <time>2020-06-23T15:21:35Z</time>
      </trkpt>
      <trkpt lat="50.82895" lon="2.85665">
        <ele>25.8</ele>
        <time>2020-06-23T15:21:36Z</time>
      </trkpt>
      <trkpt lat="50.82891" lon="2.8567">
        <ele>25.9</ele>
        <time>2020-06-23T15:21:37Z</time>
      </trkpt>
      <trkpt lat="50.82887" lon="2.85676">
        <ele>26</ele>
        <time>2020-06-23T15:21:38Z</time>
      </trkpt>
      <trkpt lat="50.82883" lon="2.85681">
        <ele>26.2</ele>
        <time>2020-06-23T15:21:39Z</time>
      </trkpt>
      <trkpt lat="50.82879" lon="2.85686">
        <ele>26.3</ele>
        <time>2020-06-23T15:21:40Z</time>
      </trkpt>
      <trkpt lat="50.82874" lon="2.85691">
        <ele>26.5</ele>
        <time>2020-06-23T15:21:41Z</time>
      </trkpt>
      <trkpt lat="50.82869" lon="2.85696">
        <ele>26.7</ele>
        <time>2020-06-23T15:21:42Z</time>
      </trkpt>
      <trkpt lat="50.82865" lon="2.85703">
        <ele>26.8</ele>
        <time>2020-06-23T15:21:43Z</time>
      </trkpt>
      <trkpt lat="50.82861" lon="2.85709">
        <ele>27</ele>
        <time>2020-06-23T15:21:44Z</time>
      </trkpt>
      <trkpt lat="50.82857" lon="2.85714">
        <ele>27.2</ele>
        <time>2020-06-23T15:21:45Z</time>
      </trkpt>
      <trkpt lat="50.82854" lon="2.85718">
        <ele>27.4</ele>
        <time>2020-06-23T15:21:46Z</time>
      </trkpt>
      <trkpt lat="50.8285" lon="2.8572">
        <ele>27.5</ele>
        <time>2020-06-23T15:21:47Z</time>
      </trkpt>
      <trkpt lat="50.82846" lon="2.85722">
        <ele>27.7</ele>
        <time>2020-06-23T15:21:48Z</time>
      </trkpt>
      <trkpt lat="50.82841" lon="2.85724">
        <ele>27.9</ele>
        <time>2020-06-23T15:21:49Z</time>
      </trkpt>
      <trkpt lat="50.82838" lon="2.85725">
        <ele>27.8</ele>
        <time>2020-06-23T15:21:50Z</time>
      </trkpt>
      <trkpt lat="50.82833" lon="2.85727">
        <ele>27.8</ele>
        <time>2020-06-23T15:21:51Z</time>
      </trkpt>
      <trkpt lat="50.82829" lon="2.8573">
        <ele>27.8</ele>
        <time>2020-06-23T15:21:52Z</time>
      </trkpt>
      <trkpt lat="50.82827" lon="2.85735">
        <ele>27.8</ele>
        <time>2020-06-23T15:21:53Z</time>
      </trkpt>
      <trkpt lat="50.82823" lon="2.85739">
        <ele>28</ele>
        <time>2020-06-23T15:21:54Z</time>
      </trkpt>
      <trkpt lat="50.8282" lon="2.85745">
        <ele>28</ele>
        <time>2020-06-23T15:21:55Z</time>
      </trkpt>
      <trkpt lat="50.82817" lon="2.85751">
        <ele>28.1</ele>
        <time>2020-06-23T15:21:56Z</time>
      </trkpt>
      <trkpt lat="50.82813" lon="2.85757">
        <ele>28.1</ele>
        <time>2020-06-23T15:21:57Z</time>
      </trkpt>
      <trkpt lat="50.82809" lon="2.85763">
        <ele>28.2</ele>
        <time>2020-06-23T15:21:58Z</time>
      </trkpt>
      <trkpt lat="50.82805" lon="2.85768">
        <ele>28.3</ele>
        <time>2020-06-23T15:21:59Z</time>
      </trkpt>
      <trkpt lat="50.82802" lon="2.85773">
        <ele>28.3</ele>
        <time>2020-06-23T15:22:00Z</time>
      </trkpt>
      <trkpt lat="50.82798" lon="2.85777">
        <ele>28.4</ele>
        <time>2020-06-23T15:22:01Z</time>
      </trkpt>
      <trkpt lat="50.82795" lon="2.8578">
        <ele>28.4</ele>
        <time>2020-06-23T15:22:02Z</time>
      </trkpt>
      <trkpt lat="50.82793" lon="2.85784">
        <ele>28.4</ele>
        <time>2020-06-23T15:22:03Z</time>
      </trkpt>
      <trkpt lat="50.8279" lon="2.85789">
        <ele>28.4</ele>
        <time>2020-06-23T15:22:04Z</time>
      </trkpt>
      <trkpt lat="50.82789" lon="2.85794">
        <ele>28.4</ele>
        <time>2020-06-23T15:22:05Z</time>
      </trkpt>
      <trkpt lat="50.82788" lon="2.85796">
        <ele>28.4</ele>
        <time>2020-06-23T15:22:06Z</time>
      </trkpt>
      <trkpt lat="50.82787" lon="2.858">
        <ele>28.4</ele>
        <time>2020-06-23T15:22:07Z</time>
      </trkpt>
      <trkpt lat="50.82785" lon="2.85806">
        <ele>28.5</ele>
        <time>2020-06-23T15:22:08Z</time>
      </trkpt>
      <trkpt lat="50.82783" lon="2.8581">
        <ele>28.6</ele>
        <time>2020-06-23T15:22:09Z</time>
      </trkpt>
      <trkpt lat="50.82781" lon="2.85815">
        <ele>28.7</ele>
        <time>2020-06-23T15:22:10Z</time>
      </trkpt>
      <trkpt lat="50.82779" lon="2.85821">
        <ele>28.8</ele>
        <time>2020-06-23T15:22:11Z</time>
      </trkpt>
      <trkpt lat="50.82776" lon="2.85827">
        <ele>28.9</ele>
        <time>2020-06-23T15:22:12Z</time>
      </trkpt>
      <trkpt lat="50.82772" lon="2.85833">
        <ele>29.1</ele>
        <time>2020-06-23T15:22:13Z</time>
      </trkpt>
      <trkpt lat="50.82768" lon="2.8584">
        <ele>29.2</ele>
        <time>2020-06-23T15:22:14Z</time>
      </trkpt>
      <trkpt lat="50.82764" lon="2.85846">
        <ele>29.3</ele>
        <time>2020-06-23T15:22:15Z</time>
      </trkpt>
      <trkpt lat="50.82761" lon="2.85851">
        <ele>29.4</ele>
        <time>2020-06-23T15:22:16Z</time>
      </trkpt>
      <trkpt lat="50.82756" lon="2.85856">
        <ele>29.5</ele>
        <time>2020-06-23T15:22:17Z</time>
      </trkpt>
      <trkpt lat="50.82752" lon="2.85863">
        <ele>29.6</ele>
        <time>2020-06-23T15:22:18Z</time>
      </trkpt>
      <trkpt lat="50.82747" lon="2.8587">
        <ele>29.8</ele>
        <time>2020-06-23T15:22:19Z</time>
      </trkpt>
      <trkpt lat="50.82742" lon="2.85876">
        <ele>29.9</ele>
        <time>2020-06-23T15:22:20Z</time>
      </trkpt>
      <trkpt lat="50.82737" lon="2.85883">
        <ele>30.1</ele>
        <time>2020-06-23T15:22:21Z</time>
      </trkpt>
      <trkpt lat="50.82732" lon="2.8589">
        <ele>30.3</ele>
        <time>2020-06-23T15:22:22Z</time>
      </trkpt>
      <trkpt lat="50.82726" lon="2.85898">
        <ele>30.4</ele>
        <time>2020-06-23T15:22:23Z</time>
      </trkpt>
      <trkpt lat="50.82721" lon="2.85905">
        <ele>30.6</ele>
        <time>2020-06-23T15:22:24Z</time>
      </trkpt>
      <trkpt lat="50.82716" lon="2.85912">
        <ele>30.8</ele>
        <time>2020-06-23T15:22:25Z</time>
      </trkpt>
      <trkpt lat="50.82712" lon="2.85919">
        <ele>30.9</ele>
        <time>2020-06-23T15:22:26Z</time>
      </trkpt>
      <trkpt lat="50.82706" lon="2.85927">
        <ele>31.1</ele>
        <time>2020-06-23T15:22:27Z</time>
      </trkpt>
      <trkpt lat="50.82702" lon="2.85933">
        <ele>31.3</ele>
        <time>2020-06-23T15:22:28Z</time>
      </trkpt>
      <trkpt lat="50.82696" lon="2.85939">
        <ele>31.5</ele>
        <time>2020-06-23T15:22:29Z</time>
      </trkpt>
      <trkpt lat="50.82693" lon="2.85945">
        <ele>31.6</ele>
        <time>2020-06-23T15:22:30Z</time>
      </trkpt>
      <trkpt lat="50.8269" lon="2.85951">
        <ele>31.7</ele>
        <time>2020-06-23T15:22:31Z</time>
      </trkpt>
      <trkpt lat="50.82686" lon="2.85956">
        <ele>31.9</ele>
        <time>2020-06-23T15:22:32Z</time>
      </trkpt>
      <trkpt lat="50.82682" lon="2.85962">
        <ele>32.1</ele>
        <time>2020-06-23T15:22:33Z</time>
      </trkpt>
      <trkpt lat="50.82679" lon="2.85967">
        <ele>32.3</ele>
        <time>2020-06-23T15:22:34Z</time>
      </trkpt>
      <trkpt lat="50.82675" lon="2.85973">
        <ele>32.5</ele>
        <time>2020-06-23T15:22:35Z</time>
      </trkpt>
      <trkpt lat="50.82672" lon="2.85979">
        <ele>32.6</ele>
        <time>2020-06-23T15:22:36Z</time>
      </trkpt>
      <trkpt lat="50.82667" lon="2.85985">
        <ele>32.9</ele>
        <time>2020-06-23T15:22:37Z</time>
      </trkpt>
      <trkpt lat="50.82664" lon="2.85989">
        <ele>33.1</ele>
        <time>2020-06-23T15:22:38Z</time>
      </trkpt>
      <trkpt lat="50.82659" lon="2.85993">
        <ele>33.3</ele>
        <time>2020-06-23T15:22:39Z</time>
      </trkpt>
      <trkpt lat="50.82655" lon="2.85999">
        <ele>33.5</ele>
        <time>2020-06-23T15:22:40Z</time>
      </trkpt>
      <trkpt lat="50.82651" lon="2.86004">
        <ele>33.7</ele>
        <time>2020-06-23T15:22:41Z</time>
      </trkpt>
      <trkpt lat="50.82648" lon="2.86008">
        <ele>33.9</ele>
        <time>2020-06-23T15:22:42Z</time>
      </trkpt>
      <trkpt lat="50.82644" lon="2.86013">
        <ele>34.1</ele>
        <time>2020-06-23T15:22:43Z</time>
      </trkpt>
      <trkpt lat="50.8264" lon="2.86018">
        <ele>34.3</ele>
        <time>2020-06-23T15:22:44Z</time>
      </trkpt>
      <trkpt lat="50.82636" lon="2.86024">
        <ele>34.5</ele>
        <time>2020-06-23T15:22:45Z</time>
      </trkpt>
      <trkpt lat="50.82632" lon="2.8603">
        <ele>34.7</ele>
        <time>2020-06-23T15:22:46Z</time>
      </trkpt>
      <trkpt lat="50.82629" lon="2.86036">
        <ele>34.9</ele>
        <time>2020-06-23T15:22:47Z</time>
      </trkpt>
      <trkpt lat="50.82625" lon="2.86041">
        <ele>35.1</ele>
        <time>2020-06-23T15:22:48Z</time>
      </trkpt>
      <trkpt lat="50.82621" lon="2.86047">
        <ele>35.2</ele>
        <time>2020-06-23T15:22:49Z</time>
      </trkpt>
      <trkpt lat="50.82616" lon="2.86052">
        <ele>35.4</ele>
        <time>2020-06-23T15:22:50Z</time>
      </trkpt>
      <trkpt lat="50.82612" lon="2.86059">
        <ele>35.6</ele>
        <time>2020-06-23T15:22:51Z</time>
      </trkpt>
      <trkpt lat="50.82608" lon="2.86065">
        <ele>35.8</ele>
        <time>2020-06-23T15:22:52Z</time>
      </trkpt>
      <trkpt lat="50.82604" lon="2.8607">
        <ele>36</ele>
        <time>2020-06-23T15:22:53Z</time>
      </trkpt>
      <trkpt lat="50.82599" lon="2.86076">
        <ele>36.2</ele>
        <time>2020-06-23T15:22:54Z</time>
      </trkpt>
      <trkpt lat="50.82596" lon="2.86082">
        <ele>36.3</ele>
        <time>2020-06-23T15:22:55Z</time>
      </trkpt>
      <trkpt lat="50.82592" lon="2.86087">
        <ele>36.5</ele>
        <time>2020-06-23T15:22:56Z</time>
      </trkpt>
      <trkpt lat="50.82589" lon="2.86091">
        <ele>36.6</ele>
        <time>2020-06-23T15:22:57Z</time>
      </trkpt>
      <trkpt lat="50.82586" lon="2.86095">
        <ele>36.7</ele>
        <time>2020-06-23T15:22:58Z</time>
      </trkpt>
      <trkpt lat="50.82583" lon="2.861">
        <ele>36.8</ele>
        <time>2020-06-23T15:22:59Z</time>
      </trkpt>
      <trkpt lat="50.8258" lon="2.86104">
        <ele>37</ele>
        <time>2020-06-23T15:23:00Z</time>
      </trkpt>
      <trkpt lat="50.82575" lon="2.86109">
        <ele>37</ele>
        <time>2020-06-23T15:23:01Z</time>
      </trkpt>
      <trkpt lat="50.82571" lon="2.86113">
        <ele>37</ele>
        <time>2020-06-23T15:23:02Z</time>
      </trkpt>
      <trkpt lat="50.8257" lon="2.86117">
        <ele>36.9</ele>
        <time>2020-06-23T15:23:03Z</time>
      </trkpt>
      <trkpt lat="50.82566" lon="2.86121">
        <ele>36.9</ele>
        <time>2020-06-23T15:23:04Z</time>
      </trkpt>
      <trkpt lat="50.82562" lon="2.86125">
        <ele>36.8</ele>
        <time>2020-06-23T15:23:05Z</time>
      </trkpt>
      <trkpt lat="50.82559" lon="2.86131">
        <ele>36.8</ele>
        <time>2020-06-23T15:23:06Z</time>
      </trkpt>
      <trkpt lat="50.82555" lon="2.86137">
        <ele>36.7</ele>
        <time>2020-06-23T15:23:07Z</time>
      </trkpt>
      <trkpt lat="50.82551" lon="2.86143">
        <ele>36.6</ele>
        <time>2020-06-23T15:23:08Z</time>
      </trkpt>
      <trkpt lat="50.82547" lon="2.86149">
        <ele>36.6</ele>
        <time>2020-06-23T15:23:09Z</time>
      </trkpt>
      <trkpt lat="50.82544" lon="2.86154">
        <ele>36.5</ele>
        <time>2020-06-23T15:23:10Z</time>
      </trkpt>
      <trkpt lat="50.8254" lon="2.86159">
        <ele>36.5</ele>
        <time>2020-06-23T15:23:11Z</time>
      </trkpt>
      <trkpt lat="50.82536" lon="2.86164">
        <ele>36.4</ele>
        <time>2020-06-23T15:23:12Z</time>
      </trkpt>
      <trkpt lat="50.82532" lon="2.86169">
        <ele>36.4</ele>
        <time>2020-06-23T15:23:13Z</time>
      </trkpt>
      <trkpt lat="50.82528" lon="2.86174">
        <ele>36.4</ele>
        <time>2020-06-23T15:23:14Z</time>
      </trkpt>
      <trkpt lat="50.82525" lon="2.8618">
        <ele>36.3</ele>
        <time>2020-06-23T15:23:15Z</time>
      </trkpt>
      <trkpt lat="50.82521" lon="2.86186">
        <ele>36.3</ele>
        <time>2020-06-23T15:23:16Z</time>
      </trkpt>
      <trkpt lat="50.82516" lon="2.86192">
        <ele>36.3</ele>
        <time>2020-06-23T15:23:17Z</time>
      </trkpt>
      <trkpt lat="50.82511" lon="2.86198">
        <ele>36.2</ele>
        <time>2020-06-23T15:23:18Z</time>
      </trkpt>
      <trkpt lat="50.82506" lon="2.86205">
        <ele>36.2</ele>
        <time>2020-06-23T15:23:19Z</time>
      </trkpt>
      <trkpt lat="50.82502" lon="2.86211">
        <ele>36.1</ele>
        <time>2020-06-23T15:23:20Z</time>
      </trkpt>
      <trkpt lat="50.825" lon="2.86215">
        <ele>36</ele>
        <time>2020-06-23T15:23:21Z</time>
      </trkpt>
      <trkpt lat="50.82496" lon="2.8622">
        <ele>35.9</ele>
        <time>2020-06-23T15:23:22Z</time>
      </trkpt>
      <trkpt lat="50.82493" lon="2.86225">
        <ele>35.9</ele>
        <time>2020-06-23T15:23:23Z</time>
      </trkpt>
      <trkpt lat="50.8249" lon="2.86229">
        <ele>35.8</ele>
        <time>2020-06-23T15:23:24Z</time>
      </trkpt>
      <trkpt lat="50.82486" lon="2.86234">
        <ele>35.7</ele>
        <time>2020-06-23T15:23:25Z</time>
      </trkpt>
      <trkpt lat="50.82482" lon="2.86239">
        <ele>35.6</ele>
        <time>2020-06-23T15:23:26Z</time>
      </trkpt>
      <trkpt lat="50.82479" lon="2.86245">
        <ele>35.5</ele>
        <time>2020-06-23T15:23:27Z</time>
      </trkpt>
      <trkpt lat="50.82475" lon="2.8625">
        <ele>35.4</ele>
        <time>2020-06-23T15:23:28Z</time>
      </trkpt>
      <trkpt lat="50.82471" lon="2.86256">
        <ele>35.3</ele>
        <time>2020-06-23T15:23:29Z</time>
      </trkpt>
      <trkpt lat="50.82468" lon="2.8626">
        <ele>35.2</ele>
        <time>2020-06-23T15:23:30Z</time>
      </trkpt>
      <trkpt lat="50.82465" lon="2.86264">
        <ele>35.1</ele>
        <time>2020-06-23T15:23:31Z</time>
      </trkpt>
      <trkpt lat="50.82461" lon="2.86269">
        <ele>35</ele>
        <time>2020-06-23T15:23:32Z</time>
      </trkpt>
      <trkpt lat="50.82457" lon="2.86273">
        <ele>34.9</ele>
        <time>2020-06-23T15:23:33Z</time>
      </trkpt>
      <trkpt lat="50.82454" lon="2.8628">
        <ele>34.8</ele>
        <time>2020-06-23T15:23:34Z</time>
      </trkpt>
      <trkpt lat="50.8245" lon="2.86286">
        <ele>34.7</ele>
        <time>2020-06-23T15:23:35Z</time>
      </trkpt>
      <trkpt lat="50.82446" lon="2.86291">
        <ele>34.6</ele>
        <time>2020-06-23T15:23:36Z</time>
      </trkpt>
      <trkpt lat="50.82443" lon="2.86296">
        <ele>34.5</ele>
        <time>2020-06-23T15:23:37Z</time>
      </trkpt>
      <trkpt lat="50.82439" lon="2.86301">
        <ele>34.4</ele>
        <time>2020-06-23T15:23:38Z</time>
      </trkpt>
      <trkpt lat="50.82434" lon="2.86307">
        <ele>34.3</ele>
        <time>2020-06-23T15:23:39Z</time>
      </trkpt>
      <trkpt lat="50.8243" lon="2.86313">
        <ele>34.2</ele>
        <time>2020-06-23T15:23:40Z</time>
      </trkpt>
      <trkpt lat="50.82425" lon="2.86319">
        <ele>34.1</ele>
        <time>2020-06-23T15:23:41Z</time>
      </trkpt>
      <trkpt lat="50.82421" lon="2.86325">
        <ele>34</ele>
        <time>2020-06-23T15:23:42Z</time>
      </trkpt>
      <trkpt lat="50.82417" lon="2.86332">
        <ele>33.9</ele>
        <time>2020-06-23T15:23:43Z</time>
      </trkpt>
      <trkpt lat="50.82412" lon="2.86337">
        <ele>33.8</ele>
        <time>2020-06-23T15:23:44Z</time>
      </trkpt>
      <trkpt lat="50.82408" lon="2.86344">
        <ele>33.6</ele>
        <time>2020-06-23T15:23:45Z</time>
      </trkpt>
      <trkpt lat="50.82404" lon="2.86349">
        <ele>33.5</ele>
        <time>2020-06-23T15:23:46Z</time>
      </trkpt>
      <trkpt lat="50.82399" lon="2.86355">
        <ele>33.4</ele>
        <time>2020-06-23T15:23:47Z</time>
      </trkpt>
      <trkpt lat="50.82395" lon="2.86362">
        <ele>33.3</ele>
        <time>2020-06-23T15:23:48Z</time>
      </trkpt>
      <trkpt lat="50.8239" lon="2.86368">
        <ele>33.1</ele>
        <time>2020-06-23T15:23:49Z</time>
      </trkpt>
      <trkpt lat="50.82385" lon="2.86373">
        <ele>33</ele>
        <time>2020-06-23T15:23:50Z</time>
      </trkpt>
      <trkpt lat="50.82382" lon="2.86379">
        <ele>32.9</ele>
        <time>2020-06-23T15:23:51Z</time>
      </trkpt>
      <trkpt lat="50.82378" lon="2.86385">
        <ele>32.8</ele>
        <time>2020-06-23T15:23:52Z</time>
      </trkpt>
      <trkpt lat="50.82373" lon="2.86392">
        <ele>32.7</ele>
        <time>2020-06-23T15:23:53Z</time>
      </trkpt>
      <trkpt lat="50.82368" lon="2.86399">
        <ele>32.5</ele>
        <time>2020-06-23T15:23:54Z</time>
      </trkpt>
      <trkpt lat="50.82364" lon="2.86406">
        <ele>32.4</ele>
        <time>2020-06-23T15:23:55Z</time>
      </trkpt>
      <trkpt lat="50.82359" lon="2.86413">
        <ele>32.3</ele>
        <time>2020-06-23T15:23:56Z</time>
      </trkpt>
      <trkpt lat="50.82355" lon="2.86421">
        <ele>32.2</ele>
        <time>2020-06-23T15:23:57Z</time>
      </trkpt>
      <trkpt lat="50.8235" lon="2.86429">
        <ele>32</ele>
        <time>2020-06-23T15:23:58Z</time>
      </trkpt>
      <trkpt lat="50.82346" lon="2.86438">
        <ele>31.9</ele>
        <time>2020-06-23T15:23:59Z</time>
      </trkpt>
      <trkpt lat="50.82343" lon="2.86446">
        <ele>31.8</ele>
        <time>2020-06-23T15:24:00Z</time>
      </trkpt>
      <trkpt lat="50.82339" lon="2.86454">
        <ele>31.7</ele>
        <time>2020-06-23T15:24:01Z</time>
      </trkpt>
      <trkpt lat="50.82336" lon="2.86461">
        <ele>31.6</ele>
        <time>2020-06-23T15:24:02Z</time>
      </trkpt>
      <trkpt lat="50.82333" lon="2.86469">
        <ele>31.5</ele>
        <time>2020-06-23T15:24:03Z</time>
      </trkpt>
      <trkpt lat="50.8233" lon="2.86478">
        <ele>31.5</ele>
        <time>2020-06-23T15:24:04Z</time>
      </trkpt>
      <trkpt lat="50.82327" lon="2.86485">
        <ele>31.4</ele>
        <time>2020-06-23T15:24:05Z</time>
      </trkpt>
      <trkpt lat="50.82323" lon="2.86493">
        <ele>31.3</ele>
        <time>2020-06-23T15:24:06Z</time>
      </trkpt>
      <trkpt lat="50.8232" lon="2.86502">
        <ele>31.2</ele>
        <time>2020-06-23T15:24:07Z</time>
      </trkpt>
      <trkpt lat="50.82316" lon="2.8651">
        <ele>31.1</ele>
        <time>2020-06-23T15:24:08Z</time>
      </trkpt>
      <trkpt lat="50.82313" lon="2.86519">
        <ele>31</ele>
        <time>2020-06-23T15:24:09Z</time>
      </trkpt>
      <trkpt lat="50.8231" lon="2.86528">
        <ele>30.9</ele>
        <time>2020-06-23T15:24:10Z</time>
      </trkpt>
      <trkpt lat="50.82307" lon="2.86538">
        <ele>30.8</ele>
        <time>2020-06-23T15:24:11Z</time>
      </trkpt>
      <trkpt lat="50.82305" lon="2.86547">
        <ele>30.7</ele>
        <time>2020-06-23T15:24:12Z</time>
      </trkpt>
      <trkpt lat="50.82303" lon="2.86557">
        <ele>30.6</ele>
        <time>2020-06-23T15:24:13Z</time>
      </trkpt>
      <trkpt lat="50.82301" lon="2.86566">
        <ele>30.5</ele>
        <time>2020-06-23T15:24:14Z</time>
      </trkpt>
      <trkpt lat="50.823" lon="2.86574">
        <ele>30.5</ele>
        <time>2020-06-23T15:24:15Z</time>
      </trkpt>
      <trkpt lat="50.82298" lon="2.86582">
        <ele>30.4</ele>
        <time>2020-06-23T15:24:16Z</time>
      </trkpt>
      <trkpt lat="50.82296" lon="2.8659">
        <ele>30.3</ele>
        <time>2020-06-23T15:24:17Z</time>
      </trkpt>
      <trkpt lat="50.82294" lon="2.86598">
        <ele>30.2</ele>
        <time>2020-06-23T15:24:18Z</time>
      </trkpt>
      <trkpt lat="50.82292" lon="2.86606">
        <ele>30.1</ele>
        <time>2020-06-23T15:24:19Z</time>
      </trkpt>
      <trkpt lat="50.82291" lon="2.86614">
        <ele>30</ele>
        <time>2020-06-23T15:24:20Z</time>
      </trkpt>
      <trkpt lat="50.82289" lon="2.86623">
        <ele>29.9</ele>
        <time>2020-06-23T15:24:21Z</time>
      </trkpt>
      <trkpt lat="50.82288" lon="2.86631">
        <ele>29.9</ele>
        <time>2020-06-23T15:24:22Z</time>
      </trkpt>
      <trkpt lat="50.82286" lon="2.86639">
        <ele>29.8</ele>
        <time>2020-06-23T15:24:23Z</time>
      </trkpt>
      <trkpt lat="50.82286" lon="2.86647">
        <ele>29.7</ele>
        <time>2020-06-23T15:24:24Z</time>
      </trkpt>
      <trkpt lat="50.82284" lon="2.86656">
        <ele>29.7</ele>
        <time>2020-06-23T15:24:25Z</time>
      </trkpt>
      <trkpt lat="50.82283" lon="2.86666">
        <ele>29.8</ele>
        <time>2020-06-23T15:24:26Z</time>
      </trkpt>
      <trkpt lat="50.82282" lon="2.86675">
        <ele>29.8</ele>
        <time>2020-06-23T15:24:27Z</time>
      </trkpt>
      <trkpt lat="50.82279" lon="2.86682">
        <ele>29.8</ele>
        <time>2020-06-23T15:24:28Z</time>
      </trkpt>
      <trkpt lat="50.82279" lon="2.86689">
        <ele>29.9</ele>
        <time>2020-06-23T15:24:29Z</time>
      </trkpt>
      <trkpt lat="50.82279" lon="2.86696">
        <ele>29.9</ele>
        <time>2020-06-23T15:24:30Z</time>
      </trkpt>
      <trkpt lat="50.82277" lon="2.867">
        <ele>30</ele>
        <time>2020-06-23T15:24:31Z</time>
      </trkpt>
      <trkpt lat="50.82275" lon="2.86704">
        <ele>30</ele>
        <time>2020-06-23T15:24:32Z</time>
      </trkpt>
      <trkpt lat="50.82271" lon="2.86707">
        <ele>30.1</ele>
        <time>2020-06-23T15:24:33Z</time>
      </trkpt>
      <trkpt lat="50.82267" lon="2.86709">
        <ele>30.2</ele>
        <time>2020-06-23T15:24:34Z</time>
      </trkpt>
      <trkpt lat="50.82263" lon="2.8671">
        <ele>30.4</ele>
        <time>2020-06-23T15:24:35Z</time>
      </trkpt>
      <trkpt lat="50.82258" lon="2.86714">
        <ele>30</ele>
        <time>2020-06-23T15:24:36Z</time>
      </trkpt>
      <trkpt lat="50.82255" lon="2.8672">
        <ele>29.8</ele>
        <time>2020-06-23T15:24:37Z</time>
      </trkpt>
      <trkpt lat="50.82254" lon="2.86727">
        <ele>29.8</ele>
        <time>2020-06-23T15:24:38Z</time>
      </trkpt>
      <trkpt lat="50.82254" lon="2.86735">
        <ele>29.7</ele>
        <time>2020-06-23T15:24:39Z</time>
      </trkpt>
      <trkpt lat="50.82255" lon="2.86742">
        <ele>29.7</ele>
        <time>2020-06-23T15:24:40Z</time>
      </trkpt>
      <trkpt lat="50.82256" lon="2.8675">
        <ele>29.4</ele>
        <time>2020-06-23T15:24:41Z</time>
      </trkpt>
      <trkpt lat="50.82258" lon="2.86756">
        <ele>29.3</ele>
        <time>2020-06-23T15:24:42Z</time>
      </trkpt>
      <trkpt lat="50.82259" lon="2.86762">
        <ele>29.1</ele>
        <time>2020-06-23T15:24:43Z</time>
      </trkpt>
      <trkpt lat="50.82259" lon="2.86767">
        <ele>29</ele>
        <time>2020-06-23T15:24:44Z</time>
      </trkpt>
      <trkpt lat="50.82258" lon="2.86768">
        <ele>29</ele>
        <time>2020-06-23T15:24:45Z</time>
      </trkpt>
      <trkpt lat="50.82258" lon="2.86771">
        <ele>29</ele>
        <time>2020-06-23T15:24:46Z</time>
      </trkpt>
      <trkpt lat="50.82258" lon="2.86771">
        <ele>29</ele>
        <time>2020-06-23T15:24:47Z</time>
      </trkpt>
      <trkpt lat="50.82259" lon="2.86769">
        <ele>28.9</ele>
        <time>2020-06-23T15:24:48Z</time>
      </trkpt>
      <trkpt lat="50.8226" lon="2.86767">
        <ele>28.9</ele>
        <time>2020-06-23T15:24:49Z</time>
      </trkpt>
      <trkpt lat="50.82261" lon="2.86766">
        <ele>28.9</ele>
        <time>2020-06-23T15:24:50Z</time>
      </trkpt>
      <trkpt lat="50.82263" lon="2.86767">
        <ele>28.8</ele>
        <time>2020-06-23T15:24:51Z</time>
      </trkpt>
      <trkpt lat="50.82265" lon="2.86767">
        <ele>28.8</ele>
        <time>2020-06-23T15:24:52Z</time>
      </trkpt>
      <trkpt lat="50.82266" lon="2.86766">
        <ele>28.8</ele>
        <time>2020-06-23T15:24:53Z</time>
      </trkpt>
      <trkpt lat="50.82267" lon="2.86767">
        <ele>28.8</ele>
        <time>2020-06-23T15:24:54Z</time>
      </trkpt>
      <trkpt lat="50.82268" lon="2.86768">
        <ele>28.7</ele>
        <time>2020-06-23T15:24:55Z</time>
      </trkpt>
      <trkpt lat="50.82268" lon="2.86769">
        <ele>28.7</ele>
        <time>2020-06-23T15:24:56Z</time>
      </trkpt>
      <trkpt lat="50.82267" lon="2.86772">
        <ele>28.7</ele>
        <time>2020-06-23T15:24:57Z</time>
      </trkpt>
      <trkpt lat="50.82266" lon="2.86779">
        <ele>28.6</ele>
        <time>2020-06-23T15:24:58Z</time>
      </trkpt>
      <trkpt lat="50.82266" lon="2.86782">
        <ele>28.5</ele>
        <time>2020-06-23T15:24:59Z</time>
      </trkpt>
      <trkpt lat="50.82265" lon="2.86787">
        <ele>28.5</ele>
        <time>2020-06-23T15:25:00Z</time>
      </trkpt>
      <trkpt lat="50.82263" lon="2.86791">
        <ele>28.4</ele>
        <time>2020-06-23T15:25:01Z</time>
      </trkpt>
      <trkpt lat="50.8226" lon="2.86797">
        <ele>28.2</ele>
        <time>2020-06-23T15:25:02Z</time>
      </trkpt>
      <trkpt lat="50.82257" lon="2.86804">
        <ele>28</ele>
        <time>2020-06-23T15:25:03Z</time>
      </trkpt>
      <trkpt lat="50.82254" lon="2.86811">
        <ele>27.7</ele>
        <time>2020-06-23T15:25:04Z</time>
      </trkpt>
      <trkpt lat="50.82251" lon="2.8682">
        <ele>27.5</ele>
        <time>2020-06-23T15:25:05Z</time>
      </trkpt>
      <trkpt lat="50.82249" lon="2.86828">
        <ele>27.3</ele>
        <time>2020-06-23T15:25:06Z</time>
      </trkpt>
      <trkpt lat="50.82247" lon="2.86835">
        <ele>27.2</ele>
        <time>2020-06-23T15:25:07Z</time>
      </trkpt>
      <trkpt lat="50.82244" lon="2.86843">
        <ele>27.1</ele>
        <time>2020-06-23T15:25:08Z</time>
      </trkpt>
      <trkpt lat="50.82241" lon="2.8685">
        <ele>26.9</ele>
        <time>2020-06-23T15:25:09Z</time>
      </trkpt>
      <trkpt lat="50.82238" lon="2.86857">
        <ele>26.8</ele>
        <time>2020-06-23T15:25:10Z</time>
      </trkpt>
      <trkpt lat="50.82235" lon="2.86864">
        <ele>26.7</ele>
        <time>2020-06-23T15:25:11Z</time>
      </trkpt>
      <trkpt lat="50.82231" lon="2.86872">
        <ele>26.6</ele>
        <time>2020-06-23T15:25:12Z</time>
      </trkpt>
      <trkpt lat="50.82228" lon="2.8688">
        <ele>26.4</ele>
        <time>2020-06-23T15:25:13Z</time>
      </trkpt>
      <trkpt lat="50.82224" lon="2.86886">
        <ele>26.2</ele>
        <time>2020-06-23T15:25:14Z</time>
      </trkpt>
      <trkpt lat="50.8222" lon="2.86893">
        <ele>26.1</ele>
        <time>2020-06-23T15:25:15Z</time>
      </trkpt>
      <trkpt lat="50.82216" lon="2.869">
        <ele>25.9</ele>
        <time>2020-06-23T15:25:16Z</time>
      </trkpt>
      <trkpt lat="50.82211" lon="2.86907">
        <ele>25.8</ele>
        <time>2020-06-23T15:25:17Z</time>
      </trkpt>
      <trkpt lat="50.82205" lon="2.86914">
        <ele>25.7</ele>
        <time>2020-06-23T15:25:18Z</time>
      </trkpt>
      <trkpt lat="50.822" lon="2.86922">
        <ele>25.6</ele>
        <time>2020-06-23T15:25:19Z</time>
      </trkpt>
      <trkpt lat="50.82195" lon="2.86928">
        <ele>25.5</ele>
        <time>2020-06-23T15:25:20Z</time>
      </trkpt>
      <trkpt lat="50.8219" lon="2.86934">
        <ele>25.4</ele>
        <time>2020-06-23T15:25:21Z</time>
      </trkpt>
      <trkpt lat="50.82186" lon="2.86939">
        <ele>25.3</ele>
        <time>2020-06-23T15:25:22Z</time>
      </trkpt>
      <trkpt lat="50.8218" lon="2.86946">
        <ele>25.1</ele>
        <time>2020-06-23T15:25:23Z</time>
      </trkpt>
      <trkpt lat="50.82175" lon="2.86952">
        <ele>25</ele>
        <time>2020-06-23T15:25:24Z</time>
      </trkpt>
      <trkpt lat="50.8217" lon="2.86957">
        <ele>25</ele>
        <time>2020-06-23T15:25:25Z</time>
      </trkpt>
      <trkpt lat="50.82166" lon="2.86962">
        <ele>24.9</ele>
        <time>2020-06-23T15:25:26Z</time>
      </trkpt>
      <trkpt lat="50.82161" lon="2.86966">
        <ele>24.9</ele>
        <time>2020-06-23T15:25:27Z</time>
      </trkpt>
      <trkpt lat="50.82156" lon="2.8697">
        <ele>24.8</ele>
        <time>2020-06-23T15:25:28Z</time>
      </trkpt>
      <trkpt lat="50.82152" lon="2.86973">
        <ele>24.8</ele>
        <time>2020-06-23T15:25:29Z</time>
      </trkpt>
      <trkpt lat="50.82147" lon="2.86976">
        <ele>24.8</ele>
        <time>2020-06-23T15:25:30Z</time>
      </trkpt>
      <trkpt lat="50.82142" lon="2.86981">
        <ele>24.7</ele>
        <time>2020-06-23T15:25:31Z</time>
      </trkpt>
      <trkpt lat="50.82135" lon="2.86987">
        <ele>24.7</ele>
        <time>2020-06-23T15:25:32Z</time>
      </trkpt>
      <trkpt lat="50.8213" lon="2.86993">
        <ele>24.7</ele>
        <time>2020-06-23T15:25:33Z</time>
      </trkpt>
      <trkpt lat="50.82124" lon="2.86998">
        <ele>24.7</ele>
        <time>2020-06-23T15:25:34Z</time>
      </trkpt>
      <trkpt lat="50.82119" lon="2.87003">
        <ele>24.7</ele>
        <time>2020-06-23T15:25:35Z</time>
      </trkpt>
      <trkpt lat="50.82114" lon="2.87007">
        <ele>24.7</ele>
        <time>2020-06-23T15:25:36Z</time>
      </trkpt>
      <trkpt lat="50.82109" lon="2.87012">
        <ele>24.7</ele>
        <time>2020-06-23T15:25:37Z</time>
      </trkpt>
      <trkpt lat="50.82104" lon="2.87017">
        <ele>24.7</ele>
        <time>2020-06-23T15:25:38Z</time>
      </trkpt>
      <trkpt lat="50.82099" lon="2.87021">
        <ele>24.7</ele>
        <time>2020-06-23T15:25:39Z</time>
      </trkpt>
      <trkpt lat="50.82094" lon="2.87026">
        <ele>24.7</ele>
        <time>2020-06-23T15:25:40Z</time>
      </trkpt>
      <trkpt lat="50.82091" lon="2.87032">
        <ele>24.7</ele>
        <time>2020-06-23T15:25:41Z</time>
      </trkpt>
      <trkpt lat="50.82086" lon="2.87037">
        <ele>24.7</ele>
        <time>2020-06-23T15:25:42Z</time>
      </trkpt>
      <trkpt lat="50.8208" lon="2.87043">
        <ele>24.7</ele>
        <time>2020-06-23T15:25:43Z</time>
      </trkpt>
      <trkpt lat="50.82075" lon="2.87049">
        <ele>24.7</ele>
        <time>2020-06-23T15:25:44Z</time>
      </trkpt>
      <trkpt lat="50.82069" lon="2.87054">
        <ele>24.7</ele>
        <time>2020-06-23T15:25:45Z</time>
      </trkpt>
      <trkpt lat="50.82064" lon="2.87059">
        <ele>24.8</ele>
        <time>2020-06-23T15:25:46Z</time>
      </trkpt>
      <trkpt lat="50.82057" lon="2.87064">
        <ele>24.8</ele>
        <time>2020-06-23T15:25:47Z</time>
      </trkpt>
      <trkpt lat="50.82053" lon="2.87069">
        <ele>24.8</ele>
        <time>2020-06-23T15:25:48Z</time>
      </trkpt>
      <trkpt lat="50.82046" lon="2.87073">
        <ele>24.8</ele>
        <time>2020-06-23T15:25:49Z</time>
      </trkpt>
      <trkpt lat="50.82042" lon="2.87079">
        <ele>24.9</ele>
        <time>2020-06-23T15:25:50Z</time>
      </trkpt>
      <trkpt lat="50.82038" lon="2.87083">
        <ele>24.9</ele>
        <time>2020-06-23T15:25:51Z</time>
      </trkpt>
      <trkpt lat="50.82033" lon="2.87089">
        <ele>24.9</ele>
        <time>2020-06-23T15:25:52Z</time>
      </trkpt>
      <trkpt lat="50.82028" lon="2.87094">
        <ele>25</ele>
        <time>2020-06-23T15:25:53Z</time>
      </trkpt>
      <trkpt lat="50.82022" lon="2.87099">
        <ele>25</ele>
        <time>2020-06-23T15:25:54Z</time>
      </trkpt>
      <trkpt lat="50.82016" lon="2.87105">
        <ele>25.1</ele>
        <time>2020-06-23T15:25:55Z</time>
      </trkpt>
      <trkpt lat="50.82011" lon="2.87109">
        <ele>25.1</ele>
        <time>2020-06-23T15:25:56Z</time>
      </trkpt>
      <trkpt lat="50.82006" lon="2.87114">
        <ele>25.2</ele>
        <time>2020-06-23T15:25:57Z</time>
      </trkpt>
      <trkpt lat="50.82001" lon="2.87118">
        <ele>25.2</ele>
        <time>2020-06-23T15:25:58Z</time>
      </trkpt>
      <trkpt lat="50.81995" lon="2.87123">
        <ele>25.3</ele>
        <time>2020-06-23T15:25:59Z</time>
      </trkpt>
      <trkpt lat="50.81989" lon="2.87128">
        <ele>25.3</ele>
        <time>2020-06-23T15:26:00Z</time>
      </trkpt>
      <trkpt lat="50.81985" lon="2.87132">
        <ele>25.3</ele>
        <time>2020-06-23T15:26:01Z</time>
      </trkpt>
      <trkpt lat="50.81979" lon="2.87138">
        <ele>25.4</ele>
        <time>2020-06-23T15:26:02Z</time>
      </trkpt>
      <trkpt lat="50.81974" lon="2.87144">
        <ele>25.4</ele>
        <time>2020-06-23T15:26:03Z</time>
      </trkpt>
      <trkpt lat="50.81969" lon="2.87148">
        <ele>25.4</ele>
        <time>2020-06-23T15:26:04Z</time>
      </trkpt>
      <trkpt lat="50.81964" lon="2.87153">
        <ele>25.5</ele>
        <time>2020-06-23T15:26:05Z</time>
      </trkpt>
      <trkpt lat="50.8196" lon="2.87157">
        <ele>25.5</ele>
        <time>2020-06-23T15:26:06Z</time>
      </trkpt>
      <trkpt lat="50.81955" lon="2.87161">
        <ele>25.6</ele>
        <time>2020-06-23T15:26:07Z</time>
      </trkpt>
      <trkpt lat="50.8195" lon="2.87165">
        <ele>25.5</ele>
        <time>2020-06-23T15:26:08Z</time>
      </trkpt>
      <trkpt lat="50.81946" lon="2.87171">
        <ele>25.4</ele>
        <time>2020-06-23T15:26:09Z</time>
      </trkpt>
      <trkpt lat="50.8194" lon="2.87175">
        <ele>25.3</ele>
        <time>2020-06-23T15:26:10Z</time>
      </trkpt>
      <trkpt lat="50.81936" lon="2.8718">
        <ele>25.3</ele>
        <time>2020-06-23T15:26:11Z</time>
      </trkpt>
      <trkpt lat="50.81932" lon="2.87185">
        <ele>25.2</ele>
        <time>2020-06-23T15:26:12Z</time>
      </trkpt>
      <trkpt lat="50.81927" lon="2.8719">
        <ele>25.2</ele>
        <time>2020-06-23T15:26:13Z</time>
      </trkpt>
      <trkpt lat="50.81922" lon="2.87196">
        <ele>25.3</ele>
        <time>2020-06-23T15:26:14Z</time>
      </trkpt>
      <trkpt lat="50.81918" lon="2.87201">
        <ele>25.3</ele>
        <time>2020-06-23T15:26:15Z</time>
      </trkpt>
      <trkpt lat="50.81913" lon="2.87206">
        <ele>25.3</ele>
        <time>2020-06-23T15:26:16Z</time>
      </trkpt>
      <trkpt lat="50.81909" lon="2.8721">
        <ele>25.3</ele>
        <time>2020-06-23T15:26:17Z</time>
      </trkpt>
      <trkpt lat="50.81904" lon="2.87216">
        <ele>25.3</ele>
        <time>2020-06-23T15:26:18Z</time>
      </trkpt>
      <trkpt lat="50.81899" lon="2.87222">
        <ele>25.4</ele>
        <time>2020-06-23T15:26:19Z</time>
      </trkpt>
      <trkpt lat="50.81894" lon="2.87229">
        <ele>25.4</ele>
        <time>2020-06-23T15:26:20Z</time>
      </trkpt>
      <trkpt lat="50.81888" lon="2.87235">
        <ele>25.4</ele>
        <time>2020-06-23T15:26:21Z</time>
      </trkpt>
      <trkpt lat="50.81884" lon="2.87242">
        <ele>25.4</ele>
        <time>2020-06-23T15:26:22Z</time>
      </trkpt>
      <trkpt lat="50.8188" lon="2.87248">
        <ele>25.4</ele>
        <time>2020-06-23T15:26:23Z</time>
      </trkpt>
      <trkpt lat="50.81876" lon="2.87254">
        <ele>25.4</ele>
        <time>2020-06-23T15:26:24Z</time>
      </trkpt>
      <trkpt lat="50.81871" lon="2.87261">
        <ele>25.4</ele>
        <time>2020-06-23T15:26:25Z</time>
      </trkpt>
      <trkpt lat="50.81866" lon="2.87267">
        <ele>25.4</ele>
        <time>2020-06-23T15:26:26Z</time>
      </trkpt>
      <trkpt lat="50.81862" lon="2.87274">
        <ele>25.4</ele>
        <time>2020-06-23T15:26:27Z</time>
      </trkpt>
      <trkpt lat="50.81858" lon="2.87281">
        <ele>25.4</ele>
        <time>2020-06-23T15:26:28Z</time>
      </trkpt>
      <trkpt lat="50.81852" lon="2.87287">
        <ele>25.4</ele>
        <time>2020-06-23T15:26:29Z</time>
      </trkpt>
      <trkpt lat="50.81847" lon="2.87294">
        <ele>25.4</ele>
        <time>2020-06-23T15:26:30Z</time>
      </trkpt>
      <trkpt lat="50.81843" lon="2.87301">
        <ele>25.4</ele>
        <time>2020-06-23T15:26:31Z</time>
      </trkpt>
      <trkpt lat="50.81839" lon="2.87308">
        <ele>25.4</ele>
        <time>2020-06-23T15:26:32Z</time>
      </trkpt>
      <trkpt lat="50.81834" lon="2.87315">
        <ele>25.4</ele>
        <time>2020-06-23T15:26:33Z</time>
      </trkpt>
      <trkpt lat="50.81829" lon="2.87323">
        <ele>25.4</ele>
        <time>2020-06-23T15:26:34Z</time>
      </trkpt>
      <trkpt lat="50.81825" lon="2.8733">
        <ele>25.5</ele>
        <time>2020-06-23T15:26:35Z</time>
      </trkpt>
      <trkpt lat="50.8182" lon="2.87337">
        <ele>25.5</ele>
        <time>2020-06-23T15:26:36Z</time>
      </trkpt>
      <trkpt lat="50.81817" lon="2.87341">
        <ele>25.6</ele>
        <time>2020-06-23T15:26:37Z</time>
      </trkpt>
      <trkpt lat="50.81813" lon="2.87347">
        <ele>25.6</ele>
        <time>2020-06-23T15:26:38Z</time>
      </trkpt>
      <trkpt lat="50.81809" lon="2.87354">
        <ele>25.6</ele>
        <time>2020-06-23T15:26:39Z</time>
      </trkpt>
      <trkpt lat="50.81804" lon="2.87361">
        <ele>25.6</ele>
        <time>2020-06-23T15:26:40Z</time>
      </trkpt>
      <trkpt lat="50.818" lon="2.87369">
        <ele>25.6</ele>
        <time>2020-06-23T15:26:41Z</time>
      </trkpt>
      <trkpt lat="50.81795" lon="2.87375">
        <ele>25.6</ele>
        <time>2020-06-23T15:26:42Z</time>
      </trkpt>
      <trkpt lat="50.8179" lon="2.87382">
        <ele>25.6</ele>
        <time>2020-06-23T15:26:43Z</time>
      </trkpt>
      <trkpt lat="50.81786" lon="2.87386">
        <ele>25.6</ele>
        <time>2020-06-23T15:26:44Z</time>
      </trkpt>
      <trkpt lat="50.81782" lon="2.87392">
        <ele>25.6</ele>
        <time>2020-06-23T15:26:45Z</time>
      </trkpt>
      <trkpt lat="50.81778" lon="2.87399">
        <ele>25.6</ele>
        <time>2020-06-23T15:26:46Z</time>
      </trkpt>
      <trkpt lat="50.81771" lon="2.87406">
        <ele>25.6</ele>
        <time>2020-06-23T15:26:47Z</time>
      </trkpt>
      <trkpt lat="50.81766" lon="2.87414">
        <ele>25.6</ele>
        <time>2020-06-23T15:26:48Z</time>
      </trkpt>
      <trkpt lat="50.81761" lon="2.87422">
        <ele>25.7</ele>
        <time>2020-06-23T15:26:49Z</time>
      </trkpt>
      <trkpt lat="50.81757" lon="2.87427">
        <ele>25.7</ele>
        <time>2020-06-23T15:26:50Z</time>
      </trkpt>
      <trkpt lat="50.81755" lon="2.87434">
        <ele>25.6</ele>
        <time>2020-06-23T15:26:51Z</time>
      </trkpt>
      <trkpt lat="50.81752" lon="2.87442">
        <ele>25.6</ele>
        <time>2020-06-23T15:26:52Z</time>
      </trkpt>
      <trkpt lat="50.81749" lon="2.87446">
        <ele>25.6</ele>
        <time>2020-06-23T15:26:53Z</time>
      </trkpt>
      <trkpt lat="50.81745" lon="2.87453">
        <ele>25.6</ele>
        <time>2020-06-23T15:26:54Z</time>
      </trkpt>
      <trkpt lat="50.81741" lon="2.8746">
        <ele>25.5</ele>
        <time>2020-06-23T15:26:55Z</time>
      </trkpt>
      <trkpt lat="50.81737" lon="2.87466">
        <ele>25.5</ele>
        <time>2020-06-23T15:26:56Z</time>
      </trkpt>
      <trkpt lat="50.81734" lon="2.87472">
        <ele>25.4</ele>
        <time>2020-06-23T15:26:57Z</time>
      </trkpt>
      <trkpt lat="50.8173" lon="2.87478">
        <ele>25.4</ele>
        <time>2020-06-23T15:26:58Z</time>
      </trkpt>
      <trkpt lat="50.81726" lon="2.87486">
        <ele>25.4</ele>
        <time>2020-06-23T15:26:59Z</time>
      </trkpt>
      <trkpt lat="50.81721" lon="2.87491">
        <ele>25.3</ele>
        <time>2020-06-23T15:27:00Z</time>
      </trkpt>
      <trkpt lat="50.81715" lon="2.87496">
        <ele>25.3</ele>
        <time>2020-06-23T15:27:01Z</time>
      </trkpt>
      <trkpt lat="50.8171" lon="2.87504">
        <ele>25.3</ele>
        <time>2020-06-23T15:27:02Z</time>
      </trkpt>
      <trkpt lat="50.81705" lon="2.8751">
        <ele>25.2</ele>
        <time>2020-06-23T15:27:03Z</time>
      </trkpt>
      <trkpt lat="50.817" lon="2.87516">
        <ele>25.2</ele>
        <time>2020-06-23T15:27:04Z</time>
      </trkpt>
      <trkpt lat="50.81695" lon="2.87522">
        <ele>25.1</ele>
        <time>2020-06-23T15:27:05Z</time>
      </trkpt>
      <trkpt lat="50.81691" lon="2.87528">
        <ele>25</ele>
        <time>2020-06-23T15:27:06Z</time>
      </trkpt>
      <trkpt lat="50.81688" lon="2.87537">
        <ele>25</ele>
        <time>2020-06-23T15:27:07Z</time>
      </trkpt>
      <trkpt lat="50.81684" lon="2.87543">
        <ele>25</ele>
        <time>2020-06-23T15:27:08Z</time>
      </trkpt>
      <trkpt lat="50.81681" lon="2.87546">
        <ele>24.9</ele>
        <time>2020-06-23T15:27:09Z</time>
      </trkpt>
      <trkpt lat="50.81674" lon="2.87552">
        <ele>24.9</ele>
        <time>2020-06-23T15:27:10Z</time>
      </trkpt>
      <trkpt lat="50.81668" lon="2.87557">
        <ele>24.8</ele>
        <time>2020-06-23T15:27:11Z</time>
      </trkpt>
      <trkpt lat="50.81664" lon="2.8756">
        <ele>24.8</ele>
        <time>2020-06-23T15:27:12Z</time>
      </trkpt>
      <trkpt lat="50.81659" lon="2.87564">
        <ele>24.9</ele>
        <time>2020-06-23T15:27:13Z</time>
      </trkpt>
      <trkpt lat="50.81653" lon="2.87568">
        <ele>24.9</ele>
        <time>2020-06-23T15:27:14Z</time>
      </trkpt>
      <trkpt lat="50.81647" lon="2.87573">
        <ele>24.9</ele>
        <time>2020-06-23T15:27:15Z</time>
      </trkpt>
      <trkpt lat="50.81642" lon="2.87576">
        <ele>24.9</ele>
        <time>2020-06-23T15:27:16Z</time>
      </trkpt>
      <trkpt lat="50.81636" lon="2.8758">
        <ele>24.9</ele>
        <time>2020-06-23T15:27:17Z</time>
      </trkpt>
      <trkpt lat="50.81629" lon="2.87583">
        <ele>24.9</ele>
        <time>2020-06-23T15:27:18Z</time>
      </trkpt>
      <trkpt lat="50.81625" lon="2.87584">
        <ele>24.9</ele>
        <time>2020-06-23T15:27:19Z</time>
      </trkpt>
      <trkpt lat="50.8162" lon="2.87584">
        <ele>24.9</ele>
        <time>2020-06-23T15:27:20Z</time>
      </trkpt>
      <trkpt lat="50.81615" lon="2.87585">
        <ele>25</ele>
        <time>2020-06-23T15:27:21Z</time>
      </trkpt>
      <trkpt lat="50.8161" lon="2.87588">
        <ele>25</ele>
        <time>2020-06-23T15:27:22Z</time>
      </trkpt>
      <trkpt lat="50.81602" lon="2.87589">
        <ele>25</ele>
        <time>2020-06-23T15:27:23Z</time>
      </trkpt>
      <trkpt lat="50.81596" lon="2.87588">
        <ele>24.9</ele>
        <time>2020-06-23T15:27:24Z</time>
      </trkpt>
      <trkpt lat="50.81592" lon="2.87581">
        <ele>24.8</ele>
        <time>2020-06-23T15:27:25Z</time>
      </trkpt>
      <trkpt lat="50.8159" lon="2.87571">
        <ele>24.7</ele>
        <time>2020-06-23T15:27:26Z</time>
      </trkpt>
      <trkpt lat="50.81585" lon="2.87563">
        <ele>24.6</ele>
        <time>2020-06-23T15:27:27Z</time>
      </trkpt>
      <trkpt lat="50.8158" lon="2.87556">
        <ele>24.6</ele>
        <time>2020-06-23T15:27:28Z</time>
      </trkpt>
      <trkpt lat="50.81576" lon="2.8755">
        <ele>24.5</ele>
        <time>2020-06-23T15:27:29Z</time>
      </trkpt>
      <trkpt lat="50.81572" lon="2.87544">
        <ele>24.5</ele>
        <time>2020-06-23T15:27:30Z</time>
      </trkpt>
      <trkpt lat="50.81566" lon="2.87538">
        <ele>24.4</ele>
        <time>2020-06-23T15:27:31Z</time>
      </trkpt>
      <trkpt lat="50.81561" lon="2.87532">
        <ele>24.4</ele>
        <time>2020-06-23T15:27:32Z</time>
      </trkpt>
      <trkpt lat="50.81555" lon="2.87527">
        <ele>24.4</ele>
        <time>2020-06-23T15:27:33Z</time>
      </trkpt>
      <trkpt lat="50.81549" lon="2.8752">
        <ele>24.4</ele>
        <time>2020-06-23T15:27:34Z</time>
      </trkpt>
      <trkpt lat="50.81544" lon="2.87513">
        <ele>24.3</ele>
        <time>2020-06-23T15:27:35Z</time>
      </trkpt>
      <trkpt lat="50.8154" lon="2.87508">
        <ele>24.3</ele>
        <time>2020-06-23T15:27:36Z</time>
      </trkpt>
      <trkpt lat="50.81533" lon="2.87505">
        <ele>24.3</ele>
        <time>2020-06-23T15:27:37Z</time>
      </trkpt>
      <trkpt lat="50.81528" lon="2.87502">
        <ele>24.2</ele>
        <time>2020-06-23T15:27:38Z</time>
      </trkpt>
      <trkpt lat="50.81523" lon="2.87496">
        <ele>24.2</ele>
        <time>2020-06-23T15:27:39Z</time>
      </trkpt>
      <trkpt lat="50.81518" lon="2.87492">
        <ele>24.1</ele>
        <time>2020-06-23T15:27:40Z</time>
      </trkpt>
      <trkpt lat="50.81512" lon="2.87489">
        <ele>24.1</ele>
        <time>2020-06-23T15:27:41Z</time>
      </trkpt>
      <trkpt lat="50.81507" lon="2.87485">
        <ele>24</ele>
        <time>2020-06-23T15:27:42Z</time>
      </trkpt>
      <trkpt lat="50.81501" lon="2.87481">
        <ele>24</ele>
        <time>2020-06-23T15:27:43Z</time>
      </trkpt>
      <trkpt lat="50.81495" lon="2.87478">
        <ele>24</ele>
        <time>2020-06-23T15:27:44Z</time>
      </trkpt>
      <trkpt lat="50.8149" lon="2.87473">
        <ele>23.9</ele>
        <time>2020-06-23T15:27:45Z</time>
      </trkpt>
      <trkpt lat="50.81484" lon="2.87469">
        <ele>23.9</ele>
        <time>2020-06-23T15:27:46Z</time>
      </trkpt>
      <trkpt lat="50.81478" lon="2.87467">
        <ele>23.9</ele>
        <time>2020-06-23T15:27:47Z</time>
      </trkpt>
      <trkpt lat="50.81472" lon="2.87462">
        <ele>23.9</ele>
        <time>2020-06-23T15:27:48Z</time>
      </trkpt>
      <trkpt lat="50.81466" lon="2.87459">
        <ele>23.9</ele>
        <time>2020-06-23T15:27:49Z</time>
      </trkpt>
      <trkpt lat="50.81461" lon="2.87456">
        <ele>23.9</ele>
        <time>2020-06-23T15:27:50Z</time>
      </trkpt>
      <trkpt lat="50.81454" lon="2.87453">
        <ele>24</ele>
        <time>2020-06-23T15:27:51Z</time>
      </trkpt>
      <trkpt lat="50.81448" lon="2.87449">
        <ele>24</ele>
        <time>2020-06-23T15:27:52Z</time>
      </trkpt>
      <trkpt lat="50.81441" lon="2.87442">
        <ele>24.1</ele>
        <time>2020-06-23T15:27:53Z</time>
      </trkpt>
      <trkpt lat="50.81434" lon="2.87438">
        <ele>24</ele>
        <time>2020-06-23T15:27:54Z</time>
      </trkpt>
      <trkpt lat="50.81428" lon="2.87436">
        <ele>24</ele>
        <time>2020-06-23T15:27:55Z</time>
      </trkpt>
      <trkpt lat="50.81421" lon="2.87432">
        <ele>23.9</ele>
        <time>2020-06-23T15:27:56Z</time>
      </trkpt>
      <trkpt lat="50.81414" lon="2.87428">
        <ele>23.9</ele>
        <time>2020-06-23T15:27:57Z</time>
      </trkpt>
      <trkpt lat="50.81408" lon="2.87424">
        <ele>23.9</ele>
        <time>2020-06-23T15:27:58Z</time>
      </trkpt>
      <trkpt lat="50.81402" lon="2.8742">
        <ele>23.9</ele>
        <time>2020-06-23T15:27:59Z</time>
      </trkpt>
      <trkpt lat="50.81396" lon="2.87417">
        <ele>23.9</ele>
        <time>2020-06-23T15:28:00Z</time>
      </trkpt>
      <trkpt lat="50.8139" lon="2.87413">
        <ele>23.9</ele>
        <time>2020-06-23T15:28:01Z</time>
      </trkpt>
      <trkpt lat="50.81384" lon="2.8741">
        <ele>23.9</ele>
        <time>2020-06-23T15:28:02Z</time>
      </trkpt>
      <trkpt lat="50.81378" lon="2.87407">
        <ele>24</ele>
        <time>2020-06-23T15:28:03Z</time>
      </trkpt>
      <trkpt lat="50.81372" lon="2.87404">
        <ele>24</ele>
        <time>2020-06-23T15:28:04Z</time>
      </trkpt>
      <trkpt lat="50.81365" lon="2.87401">
        <ele>24</ele>
        <time>2020-06-23T15:28:05Z</time>
      </trkpt>
      <trkpt lat="50.81359" lon="2.87398">
        <ele>24</ele>
        <time>2020-06-23T15:28:06Z</time>
      </trkpt>
      <trkpt lat="50.81353" lon="2.87394">
        <ele>24.1</ele>
        <time>2020-06-23T15:28:07Z</time>
      </trkpt>
      <trkpt lat="50.81348" lon="2.87391">
        <ele>24.1</ele>
        <time>2020-06-23T15:28:08Z</time>
      </trkpt>
      <trkpt lat="50.81342" lon="2.87386">
        <ele>24.2</ele>
        <time>2020-06-23T15:28:09Z</time>
      </trkpt>
      <trkpt lat="50.81336" lon="2.87383">
        <ele>24.3</ele>
        <time>2020-06-23T15:28:10Z</time>
      </trkpt>
      <trkpt lat="50.8133" lon="2.87379">
        <ele>24.4</ele>
        <time>2020-06-23T15:28:11Z</time>
      </trkpt>
      <trkpt lat="50.81324" lon="2.87375">
        <ele>24.5</ele>
        <time>2020-06-23T15:28:12Z</time>
      </trkpt>
      <trkpt lat="50.81318" lon="2.87372">
        <ele>24.6</ele>
        <time>2020-06-23T15:28:13Z</time>
      </trkpt>
      <trkpt lat="50.81313" lon="2.87368">
        <ele>24.6</ele>
        <time>2020-06-23T15:28:14Z</time>
      </trkpt>
      <trkpt lat="50.81307" lon="2.87364">
        <ele>24.6</ele>
        <time>2020-06-23T15:28:15Z</time>
      </trkpt>
      <trkpt lat="50.81301" lon="2.8736">
        <ele>24.6</ele>
        <time>2020-06-23T15:28:16Z</time>
      </trkpt>
      <trkpt lat="50.81296" lon="2.87357">
        <ele>24.7</ele>
        <time>2020-06-23T15:28:17Z</time>
      </trkpt>
      <trkpt lat="50.8129" lon="2.87353">
        <ele>24.7</ele>
        <time>2020-06-23T15:28:18Z</time>
      </trkpt>
      <trkpt lat="50.81284" lon="2.87349">
        <ele>24.8</ele>
        <time>2020-06-23T15:28:19Z</time>
      </trkpt>
      <trkpt lat="50.81278" lon="2.87345">
        <ele>24.9</ele>
        <time>2020-06-23T15:28:20Z</time>
      </trkpt>
      <trkpt lat="50.81273" lon="2.87342">
        <ele>24.9</ele>
        <time>2020-06-23T15:28:21Z</time>
      </trkpt>
      <trkpt lat="50.81268" lon="2.87338">
        <ele>25</ele>
        <time>2020-06-23T15:28:22Z</time>
      </trkpt>
      <trkpt lat="50.81262" lon="2.87335">
        <ele>25</ele>
        <time>2020-06-23T15:28:23Z</time>
      </trkpt>
      <trkpt lat="50.81257" lon="2.8733">
        <ele>25.1</ele>
        <time>2020-06-23T15:28:24Z</time>
      </trkpt>
      <trkpt lat="50.81251" lon="2.87327">
        <ele>25.1</ele>
        <time>2020-06-23T15:28:25Z</time>
      </trkpt>
      <trkpt lat="50.81245" lon="2.87324">
        <ele>25.2</ele>
        <time>2020-06-23T15:28:26Z</time>
      </trkpt>
      <trkpt lat="50.8124" lon="2.87321">
        <ele>25.3</ele>
        <time>2020-06-23T15:28:27Z</time>
      </trkpt>
      <trkpt lat="50.81234" lon="2.87317">
        <ele>25.4</ele>
        <time>2020-06-23T15:28:28Z</time>
      </trkpt>
      <trkpt lat="50.81228" lon="2.87314">
        <ele>25.5</ele>
        <time>2020-06-23T15:28:29Z</time>
      </trkpt>
      <trkpt lat="50.81222" lon="2.87311">
        <ele>25.6</ele>
        <time>2020-06-23T15:28:30Z</time>
      </trkpt>
      <trkpt lat="50.81218" lon="2.87307">
        <ele>25.7</ele>
        <time>2020-06-23T15:28:31Z</time>
      </trkpt>
      <trkpt lat="50.81212" lon="2.87303">
        <ele>25.8</ele>
        <time>2020-06-23T15:28:32Z</time>
      </trkpt>
      <trkpt lat="50.81206" lon="2.87302">
        <ele>26</ele>
        <time>2020-06-23T15:28:33Z</time>
      </trkpt>
      <trkpt lat="50.81199" lon="2.87301">
        <ele>26.1</ele>
        <time>2020-06-23T15:28:34Z</time>
      </trkpt>
      <trkpt lat="50.81194" lon="2.87303">
        <ele>26.2</ele>
        <time>2020-06-23T15:28:35Z</time>
      </trkpt>
      <trkpt lat="50.81188" lon="2.87305">
        <ele>26.3</ele>
        <time>2020-06-23T15:28:36Z</time>
      </trkpt>
      <trkpt lat="50.81181" lon="2.87306">
        <ele>26.4</ele>
        <time>2020-06-23T15:28:37Z</time>
      </trkpt>
      <trkpt lat="50.81176" lon="2.87307">
        <ele>26.5</ele>
        <time>2020-06-23T15:28:38Z</time>
      </trkpt>
      <trkpt lat="50.8117" lon="2.87308">
        <ele>26.5</ele>
        <time>2020-06-23T15:28:39Z</time>
      </trkpt>
      <trkpt lat="50.81165" lon="2.87309">
        <ele>26.6</ele>
        <time>2020-06-23T15:28:40Z</time>
      </trkpt>
      <trkpt lat="50.8116" lon="2.87309">
        <ele>26.7</ele>
        <time>2020-06-23T15:28:41Z</time>
      </trkpt>
      <trkpt lat="50.81155" lon="2.8731">
        <ele>26.8</ele>
        <time>2020-06-23T15:28:42Z</time>
      </trkpt>
      <trkpt lat="50.81148" lon="2.87311">
        <ele>26.8</ele>
        <time>2020-06-23T15:28:43Z</time>
      </trkpt>
      <trkpt lat="50.81143" lon="2.87313">
        <ele>26.9</ele>
        <time>2020-06-23T15:28:44Z</time>
      </trkpt>
      <trkpt lat="50.81137" lon="2.87314">
        <ele>27</ele>
        <time>2020-06-23T15:28:45Z</time>
      </trkpt>
      <trkpt lat="50.8113" lon="2.87315">
        <ele>27.1</ele>
        <time>2020-06-23T15:28:46Z</time>
      </trkpt>
      <trkpt lat="50.81124" lon="2.87316">
        <ele>27.2</ele>
        <time>2020-06-23T15:28:47Z</time>
      </trkpt>
      <trkpt lat="50.81119" lon="2.87318">
        <ele>27.3</ele>
        <time>2020-06-23T15:28:48Z</time>
      </trkpt>
      <trkpt lat="50.81114" lon="2.87319">
        <ele>27.4</ele>
        <time>2020-06-23T15:28:49Z</time>
      </trkpt>
      <trkpt lat="50.81109" lon="2.8732">
        <ele>27.5</ele>
        <time>2020-06-23T15:28:50Z</time>
      </trkpt>
      <trkpt lat="50.81104" lon="2.87321">
        <ele>27.6</ele>
        <time>2020-06-23T15:28:51Z</time>
      </trkpt>
      <trkpt lat="50.81099" lon="2.87322">
        <ele>27.7</ele>
        <time>2020-06-23T15:28:52Z</time>
      </trkpt>
      <trkpt lat="50.81095" lon="2.87321">
        <ele>27.8</ele>
        <time>2020-06-23T15:28:53Z</time>
      </trkpt>
      <trkpt lat="50.8109" lon="2.87321">
        <ele>28</ele>
        <time>2020-06-23T15:28:54Z</time>
      </trkpt>
      <trkpt lat="50.81083" lon="2.87322">
        <ele>28.1</ele>
        <time>2020-06-23T15:28:55Z</time>
      </trkpt>
      <trkpt lat="50.81077" lon="2.87322">
        <ele>28.3</ele>
        <time>2020-06-23T15:28:56Z</time>
      </trkpt>
      <trkpt lat="50.81072" lon="2.87323">
        <ele>28.4</ele>
        <time>2020-06-23T15:28:57Z</time>
      </trkpt>
      <trkpt lat="50.81067" lon="2.87324">
        <ele>28.5</ele>
        <time>2020-06-23T15:28:58Z</time>
      </trkpt>
      <trkpt lat="50.81061" lon="2.87325">
        <ele>28.7</ele>
        <time>2020-06-23T15:28:59Z</time>
      </trkpt>
      <trkpt lat="50.81055" lon="2.87326">
        <ele>28.8</ele>
        <time>2020-06-23T15:29:00Z</time>
      </trkpt>
      <trkpt lat="50.8105" lon="2.87328">
        <ele>28.9</ele>
        <time>2020-06-23T15:29:01Z</time>
      </trkpt>
      <trkpt lat="50.81044" lon="2.87328">
        <ele>29</ele>
        <time>2020-06-23T15:29:02Z</time>
      </trkpt>
      <trkpt lat="50.81039" lon="2.87328">
        <ele>29.1</ele>
        <time>2020-06-23T15:29:03Z</time>
      </trkpt>
      <trkpt lat="50.81034" lon="2.87329">
        <ele>29.1</ele>
        <time>2020-06-23T15:29:04Z</time>
      </trkpt>
      <trkpt lat="50.81029" lon="2.8733">
        <ele>29.2</ele>
        <time>2020-06-23T15:29:05Z</time>
      </trkpt>
      <trkpt lat="50.81024" lon="2.87329">
        <ele>29.2</ele>
        <time>2020-06-23T15:29:06Z</time>
      </trkpt>
      <trkpt lat="50.81019" lon="2.87329">
        <ele>29.2</ele>
        <time>2020-06-23T15:29:07Z</time>
      </trkpt>
      <trkpt lat="50.81013" lon="2.87329">
        <ele>29.2</ele>
        <time>2020-06-23T15:29:08Z</time>
      </trkpt>
      <trkpt lat="50.81007" lon="2.87329">
        <ele>29.2</ele>
        <time>2020-06-23T15:29:09Z</time>
      </trkpt>
      <trkpt lat="50.81001" lon="2.87329">
        <ele>29.2</ele>
        <time>2020-06-23T15:29:10Z</time>
      </trkpt>
      <trkpt lat="50.80995" lon="2.87329">
        <ele>29.2</ele>
        <time>2020-06-23T15:29:11Z</time>
      </trkpt>
      <trkpt lat="50.8099" lon="2.87329">
        <ele>29.3</ele>
        <time>2020-06-23T15:29:12Z</time>
      </trkpt>
      <trkpt lat="50.80984" lon="2.8733">
        <ele>29.3</ele>
        <time>2020-06-23T15:29:13Z</time>
      </trkpt>
      <trkpt lat="50.80979" lon="2.87329">
        <ele>29.3</ele>
        <time>2020-06-23T15:29:14Z</time>
      </trkpt>
      <trkpt lat="50.80974" lon="2.87329">
        <ele>29.3</ele>
        <time>2020-06-23T15:29:15Z</time>
      </trkpt>
      <trkpt lat="50.80968" lon="2.87328">
        <ele>29.3</ele>
        <time>2020-06-23T15:29:16Z</time>
      </trkpt>
      <trkpt lat="50.80962" lon="2.87327">
        <ele>29.3</ele>
        <time>2020-06-23T15:29:17Z</time>
      </trkpt>
      <trkpt lat="50.80957" lon="2.87327">
        <ele>29.3</ele>
        <time>2020-06-23T15:29:18Z</time>
      </trkpt>
      <trkpt lat="50.80951" lon="2.87327">
        <ele>29.3</ele>
        <time>2020-06-23T15:29:19Z</time>
      </trkpt>
      <trkpt lat="50.80946" lon="2.87328">
        <ele>29.3</ele>
        <time>2020-06-23T15:29:20Z</time>
      </trkpt>
      <trkpt lat="50.80941" lon="2.87329">
        <ele>29.3</ele>
        <time>2020-06-23T15:29:21Z</time>
      </trkpt>
      <trkpt lat="50.80935" lon="2.8733">
        <ele>29.4</ele>
        <time>2020-06-23T15:29:22Z</time>
      </trkpt>
      <trkpt lat="50.80929" lon="2.87331">
        <ele>29.4</ele>
        <time>2020-06-23T15:29:23Z</time>
      </trkpt>
      <trkpt lat="50.80923" lon="2.87331">
        <ele>29.4</ele>
        <time>2020-06-23T15:29:24Z</time>
      </trkpt>
      <trkpt lat="50.80917" lon="2.8733">
        <ele>29.5</ele>
        <time>2020-06-23T15:29:25Z</time>
      </trkpt>
      <trkpt lat="50.80911" lon="2.87331">
        <ele>29.5</ele>
        <time>2020-06-23T15:29:26Z</time>
      </trkpt>
      <trkpt lat="50.80905" lon="2.87331">
        <ele>29.6</ele>
        <time>2020-06-23T15:29:27Z</time>
      </trkpt>
      <trkpt lat="50.809" lon="2.87331">
        <ele>29.6</ele>
        <time>2020-06-23T15:29:28Z</time>
      </trkpt>
      <trkpt lat="50.80894" lon="2.87331">
        <ele>29.7</ele>
        <time>2020-06-23T15:29:29Z</time>
      </trkpt>
      <trkpt lat="50.80888" lon="2.87331">
        <ele>29.7</ele>
        <time>2020-06-23T15:29:30Z</time>
      </trkpt>
      <trkpt lat="50.80883" lon="2.87332">
        <ele>29.7</ele>
        <time>2020-06-23T15:29:31Z</time>
      </trkpt>
      <trkpt lat="50.80878" lon="2.87332">
        <ele>29.7</ele>
        <time>2020-06-23T15:29:32Z</time>
      </trkpt>
      <trkpt lat="50.80873" lon="2.87333">
        <ele>29.7</ele>
        <time>2020-06-23T15:29:33Z</time>
      </trkpt>
      <trkpt lat="50.80867" lon="2.87335">
        <ele>29.6</ele>
        <time>2020-06-23T15:29:34Z</time>
      </trkpt>
      <trkpt lat="50.8086" lon="2.87335">
        <ele>29.5</ele>
        <time>2020-06-23T15:29:35Z</time>
      </trkpt>
      <trkpt lat="50.80855" lon="2.87335">
        <ele>29.5</ele>
        <time>2020-06-23T15:29:36Z</time>
      </trkpt>
      <trkpt lat="50.80849" lon="2.87335">
        <ele>29.3</ele>
        <time>2020-06-23T15:29:37Z</time>
      </trkpt>
      <trkpt lat="50.80844" lon="2.87335">
        <ele>29.2</ele>
        <time>2020-06-23T15:29:38Z</time>
      </trkpt>
      <trkpt lat="50.80838" lon="2.87336">
        <ele>29.2</ele>
        <time>2020-06-23T15:29:39Z</time>
      </trkpt>
      <trkpt lat="50.80832" lon="2.87336">
        <ele>29.1</ele>
        <time>2020-06-23T15:29:40Z</time>
      </trkpt>
      <trkpt lat="50.80826" lon="2.87338">
        <ele>29</ele>
        <time>2020-06-23T15:29:41Z</time>
      </trkpt>
      <trkpt lat="50.8082" lon="2.87338">
        <ele>28.9</ele>
        <time>2020-06-23T15:29:42Z</time>
      </trkpt>
      <trkpt lat="50.80814" lon="2.87339">
        <ele>28.9</ele>
        <time>2020-06-23T15:29:43Z</time>
      </trkpt>
      <trkpt lat="50.80808" lon="2.8734">
        <ele>28.8</ele>
        <time>2020-06-23T15:29:44Z</time>
      </trkpt>
      <trkpt lat="50.80802" lon="2.87339">
        <ele>28.8</ele>
        <time>2020-06-23T15:29:45Z</time>
      </trkpt>
      <trkpt lat="50.80797" lon="2.87338">
        <ele>28.8</ele>
        <time>2020-06-23T15:29:46Z</time>
      </trkpt>
      <trkpt lat="50.80791" lon="2.87337">
        <ele>28.7</ele>
        <time>2020-06-23T15:29:47Z</time>
      </trkpt>
      <trkpt lat="50.80786" lon="2.87336">
        <ele>28.7</ele>
        <time>2020-06-23T15:29:48Z</time>
      </trkpt>
      <trkpt lat="50.8078" lon="2.87336">
        <ele>28.7</ele>
        <time>2020-06-23T15:29:49Z</time>
      </trkpt>
      <trkpt lat="50.80775" lon="2.87336">
        <ele>28.6</ele>
        <time>2020-06-23T15:29:50Z</time>
      </trkpt>
      <trkpt lat="50.80769" lon="2.87338">
        <ele>28.5</ele>
        <time>2020-06-23T15:29:51Z</time>
      </trkpt>
      <trkpt lat="50.80764" lon="2.8734">
        <ele>28.5</ele>
        <time>2020-06-23T15:29:52Z</time>
      </trkpt>
      <trkpt lat="50.80759" lon="2.87341">
        <ele>28.5</ele>
        <time>2020-06-23T15:29:53Z</time>
      </trkpt>
      <trkpt lat="50.80753" lon="2.87342">
        <ele>28.4</ele>
        <time>2020-06-23T15:29:54Z</time>
      </trkpt>
      <trkpt lat="50.80749" lon="2.87344">
        <ele>28.4</ele>
        <time>2020-06-23T15:29:55Z</time>
      </trkpt>
      <trkpt lat="50.80743" lon="2.87345">
        <ele>28.3</ele>
        <time>2020-06-23T15:29:56Z</time>
      </trkpt>
      <trkpt lat="50.80737" lon="2.87347">
        <ele>28.2</ele>
        <time>2020-06-23T15:29:57Z</time>
      </trkpt>
      <trkpt lat="50.80731" lon="2.87349">
        <ele>28.2</ele>
        <time>2020-06-23T15:29:58Z</time>
      </trkpt>
      <trkpt lat="50.80725" lon="2.87351">
        <ele>28.1</ele>
        <time>2020-06-23T15:29:59Z</time>
      </trkpt>
      <trkpt lat="50.80719" lon="2.87354">
        <ele>28</ele>
        <time>2020-06-23T15:30:00Z</time>
      </trkpt>
      <trkpt lat="50.80713" lon="2.87357">
        <ele>27.9</ele>
        <time>2020-06-23T15:30:01Z</time>
      </trkpt>
      <trkpt lat="50.80706" lon="2.87359">
        <ele>27.8</ele>
        <time>2020-06-23T15:30:02Z</time>
      </trkpt>
      <trkpt lat="50.807" lon="2.87362">
        <ele>27.7</ele>
        <time>2020-06-23T15:30:03Z</time>
      </trkpt>
      <trkpt lat="50.80693" lon="2.87364">
        <ele>27.5</ele>
        <time>2020-06-23T15:30:04Z</time>
      </trkpt>
      <trkpt lat="50.80686" lon="2.87367">
        <ele>27.3</ele>
        <time>2020-06-23T15:30:05Z</time>
      </trkpt>
      <trkpt lat="50.8068" lon="2.8737">
        <ele>27.1</ele>
        <time>2020-06-23T15:30:06Z</time>
      </trkpt>
      <trkpt lat="50.80673" lon="2.87373">
        <ele>26.9</ele>
        <time>2020-06-23T15:30:07Z</time>
      </trkpt>
      <trkpt lat="50.80666" lon="2.87376">
        <ele>26.8</ele>
        <time>2020-06-23T15:30:08Z</time>
      </trkpt>
      <trkpt lat="50.8066" lon="2.87378">
        <ele>26.6</ele>
        <time>2020-06-23T15:30:09Z</time>
      </trkpt>
      <trkpt lat="50.80653" lon="2.8738">
        <ele>26.5</ele>
        <time>2020-06-23T15:30:10Z</time>
      </trkpt>
      <trkpt lat="50.80646" lon="2.87383">
        <ele>26.4</ele>
        <time>2020-06-23T15:30:11Z</time>
      </trkpt>
      <trkpt lat="50.8064" lon="2.87385">
        <ele>26.3</ele>
        <time>2020-06-23T15:30:12Z</time>
      </trkpt>
      <trkpt lat="50.80633" lon="2.87387">
        <ele>26.2</ele>
        <time>2020-06-23T15:30:13Z</time>
      </trkpt>
      <trkpt lat="50.80626" lon="2.87388">
        <ele>26.1</ele>
        <time>2020-06-23T15:30:14Z</time>
      </trkpt>
      <trkpt lat="50.8062" lon="2.8739">
        <ele>26.2</ele>
        <time>2020-06-23T15:30:15Z</time>
      </trkpt>
      <trkpt lat="50.80613" lon="2.87392">
        <ele>26.2</ele>
        <time>2020-06-23T15:30:16Z</time>
      </trkpt>
      <trkpt lat="50.80606" lon="2.87395">
        <ele>26.3</ele>
        <time>2020-06-23T15:30:17Z</time>
      </trkpt>
      <trkpt lat="50.806" lon="2.87396">
        <ele>26.3</ele>
        <time>2020-06-23T15:30:18Z</time>
      </trkpt>
      <trkpt lat="50.80593" lon="2.87397">
        <ele>26.3</ele>
        <time>2020-06-23T15:30:19Z</time>
      </trkpt>
      <trkpt lat="50.80586" lon="2.87398">
        <ele>26.2</ele>
        <time>2020-06-23T15:30:20Z</time>
      </trkpt>
      <trkpt lat="50.80579" lon="2.87399">
        <ele>26.2</ele>
        <time>2020-06-23T15:30:21Z</time>
      </trkpt>
      <trkpt lat="50.80573" lon="2.874">
        <ele>26.1</ele>
        <time>2020-06-23T15:30:22Z</time>
      </trkpt>
      <trkpt lat="50.80566" lon="2.87402">
        <ele>26.1</ele>
        <time>2020-06-23T15:30:23Z</time>
      </trkpt>
      <trkpt lat="50.80559" lon="2.87405">
        <ele>26.1</ele>
        <time>2020-06-23T15:30:24Z</time>
      </trkpt>
      <trkpt lat="50.80553" lon="2.87408">
        <ele>26</ele>
        <time>2020-06-23T15:30:25Z</time>
      </trkpt>
      <trkpt lat="50.80546" lon="2.87409">
        <ele>26</ele>
        <time>2020-06-23T15:30:26Z</time>
      </trkpt>
      <trkpt lat="50.8054" lon="2.87411">
        <ele>25.9</ele>
        <time>2020-06-23T15:30:27Z</time>
      </trkpt>
      <trkpt lat="50.80533" lon="2.87413">
        <ele>25.9</ele>
        <time>2020-06-23T15:30:28Z</time>
      </trkpt>
      <trkpt lat="50.80527" lon="2.87413">
        <ele>25.9</ele>
        <time>2020-06-23T15:30:29Z</time>
      </trkpt>
      <trkpt lat="50.80521" lon="2.87412">
        <ele>25.9</ele>
        <time>2020-06-23T15:30:30Z</time>
      </trkpt>
      <trkpt lat="50.80514" lon="2.87412">
        <ele>25.9</ele>
        <time>2020-06-23T15:30:31Z</time>
      </trkpt>
      <trkpt lat="50.80508" lon="2.87412">
        <ele>25.9</ele>
        <time>2020-06-23T15:30:32Z</time>
      </trkpt>
      <trkpt lat="50.80502" lon="2.87413">
        <ele>26</ele>
        <time>2020-06-23T15:30:33Z</time>
      </trkpt>
      <trkpt lat="50.80496" lon="2.87414">
        <ele>26</ele>
        <time>2020-06-23T15:30:34Z</time>
      </trkpt>
      <trkpt lat="50.8049" lon="2.87415">
        <ele>26.1</ele>
        <time>2020-06-23T15:30:35Z</time>
      </trkpt>
      <trkpt lat="50.80484" lon="2.87416">
        <ele>26.1</ele>
        <time>2020-06-23T15:30:36Z</time>
      </trkpt>
      <trkpt lat="50.80478" lon="2.87416">
        <ele>26.2</ele>
        <time>2020-06-23T15:30:37Z</time>
      </trkpt>
      <trkpt lat="50.80473" lon="2.87417">
        <ele>26.3</ele>
        <time>2020-06-23T15:30:38Z</time>
      </trkpt>
      <trkpt lat="50.80467" lon="2.87416">
        <ele>26.3</ele>
        <time>2020-06-23T15:30:39Z</time>
      </trkpt>
      <trkpt lat="50.80461" lon="2.87417">
        <ele>26.4</ele>
        <time>2020-06-23T15:30:40Z</time>
      </trkpt>
      <trkpt lat="50.80456" lon="2.87417">
        <ele>26.4</ele>
        <time>2020-06-23T15:30:41Z</time>
      </trkpt>
      <trkpt lat="50.8045" lon="2.87418">
        <ele>26.4</ele>
        <time>2020-06-23T15:30:42Z</time>
      </trkpt>
      <trkpt lat="50.80444" lon="2.87418">
        <ele>26.5</ele>
        <time>2020-06-23T15:30:43Z</time>
      </trkpt>
      <trkpt lat="50.80439" lon="2.87418">
        <ele>26.5</ele>
        <time>2020-06-23T15:30:44Z</time>
      </trkpt>
      <trkpt lat="50.80433" lon="2.87416">
        <ele>26.6</ele>
        <time>2020-06-23T15:30:45Z</time>
      </trkpt>
      <trkpt lat="50.80428" lon="2.87414">
        <ele>26.7</ele>
        <time>2020-06-23T15:30:46Z</time>
      </trkpt>
      <trkpt lat="50.80422" lon="2.87413">
        <ele>26.8</ele>
        <time>2020-06-23T15:30:47Z</time>
      </trkpt>
      <trkpt lat="50.80415" lon="2.87411">
        <ele>26.9</ele>
        <time>2020-06-23T15:30:48Z</time>
      </trkpt>
      <trkpt lat="50.80409" lon="2.87409">
        <ele>27</ele>
        <time>2020-06-23T15:30:49Z</time>
      </trkpt>
      <trkpt lat="50.80403" lon="2.87407">
        <ele>27.1</ele>
        <time>2020-06-23T15:30:50Z</time>
      </trkpt>
      <trkpt lat="50.80396" lon="2.87407">
        <ele>27.2</ele>
        <time>2020-06-23T15:30:51Z</time>
      </trkpt>
      <trkpt lat="50.80391" lon="2.87407">
        <ele>27.2</ele>
        <time>2020-06-23T15:30:52Z</time>
      </trkpt>
      <trkpt lat="50.80385" lon="2.87407">
        <ele>27.3</ele>
        <time>2020-06-23T15:30:53Z</time>
      </trkpt>
      <trkpt lat="50.80378" lon="2.87407">
        <ele>27.4</ele>
        <time>2020-06-23T15:30:54Z</time>
      </trkpt>
      <trkpt lat="50.80372" lon="2.87407">
        <ele>27.6</ele>
        <time>2020-06-23T15:30:55Z</time>
      </trkpt>
      <trkpt lat="50.80367" lon="2.87408">
        <ele>27.6</ele>
        <time>2020-06-23T15:30:56Z</time>
      </trkpt>
      <trkpt lat="50.80362" lon="2.8741">
        <ele>27.7</ele>
        <time>2020-06-23T15:30:57Z</time>
      </trkpt>
      <trkpt lat="50.80357" lon="2.87411">
        <ele>27.8</ele>
        <time>2020-06-23T15:30:58Z</time>
      </trkpt>
      <trkpt lat="50.80351" lon="2.87412">
        <ele>27.9</ele>
        <time>2020-06-23T15:30:59Z</time>
      </trkpt>
      <trkpt lat="50.80343" lon="2.87414">
        <ele>28</ele>
        <time>2020-06-23T15:31:00Z</time>
      </trkpt>
      <trkpt lat="50.80336" lon="2.87416">
        <ele>28.1</ele>
        <time>2020-06-23T15:31:01Z</time>
      </trkpt>
      <trkpt lat="50.8033" lon="2.87418">
        <ele>28.2</ele>
        <time>2020-06-23T15:31:02Z</time>
      </trkpt>
      <trkpt lat="50.80326" lon="2.87421">
        <ele>28.3</ele>
        <time>2020-06-23T15:31:03Z</time>
      </trkpt>
      <trkpt lat="50.8032" lon="2.87425">
        <ele>28.4</ele>
        <time>2020-06-23T15:31:04Z</time>
      </trkpt>
      <trkpt lat="50.80316" lon="2.87428">
        <ele>28.5</ele>
        <time>2020-06-23T15:31:05Z</time>
      </trkpt>
      <trkpt lat="50.8031" lon="2.87431">
        <ele>28.7</ele>
        <time>2020-06-23T15:31:06Z</time>
      </trkpt>
      <trkpt lat="50.80304" lon="2.87434">
        <ele>28.9</ele>
        <time>2020-06-23T15:31:07Z</time>
      </trkpt>
      <trkpt lat="50.80299" lon="2.87436">
        <ele>29.1</ele>
        <time>2020-06-23T15:31:08Z</time>
      </trkpt>
      <trkpt lat="50.80294" lon="2.8744">
        <ele>29.3</ele>
        <time>2020-06-23T15:31:09Z</time>
      </trkpt>
      <trkpt lat="50.80289" lon="2.87442">
        <ele>29.5</ele>
        <time>2020-06-23T15:31:10Z</time>
      </trkpt>
      <trkpt lat="50.80285" lon="2.87444">
        <ele>29.7</ele>
        <time>2020-06-23T15:31:11Z</time>
      </trkpt>
      <trkpt lat="50.8028" lon="2.87447">
        <ele>29.9</ele>
        <time>2020-06-23T15:31:12Z</time>
      </trkpt>
      <trkpt lat="50.80276" lon="2.87449">
        <ele>30.1</ele>
        <time>2020-06-23T15:31:13Z</time>
      </trkpt>
      <trkpt lat="50.80271" lon="2.87451">
        <ele>30.3</ele>
        <time>2020-06-23T15:31:14Z</time>
      </trkpt>
      <trkpt lat="50.80267" lon="2.87454">
        <ele>30.6</ele>
        <time>2020-06-23T15:31:15Z</time>
      </trkpt>
      <trkpt lat="50.80263" lon="2.87458">
        <ele>30.8</ele>
        <time>2020-06-23T15:31:16Z</time>
      </trkpt>
      <trkpt lat="50.80258" lon="2.87461">
        <ele>31.1</ele>
        <time>2020-06-23T15:31:17Z</time>
      </trkpt>
      <trkpt lat="50.80251" lon="2.87465">
        <ele>31.5</ele>
        <time>2020-06-23T15:31:18Z</time>
      </trkpt>
      <trkpt lat="50.80246" lon="2.87467">
        <ele>31.8</ele>
        <time>2020-06-23T15:31:19Z</time>
      </trkpt>
      <trkpt lat="50.8024" lon="2.87471">
        <ele>32.1</ele>
        <time>2020-06-23T15:31:20Z</time>
      </trkpt>
      <trkpt lat="50.80236" lon="2.87474">
        <ele>32.4</ele>
        <time>2020-06-23T15:31:21Z</time>
      </trkpt>
      <trkpt lat="50.8023" lon="2.87476">
        <ele>32.6</ele>
        <time>2020-06-23T15:31:22Z</time>
      </trkpt>
      <trkpt lat="50.80227" lon="2.87478">
        <ele>32.9</ele>
        <time>2020-06-23T15:31:23Z</time>
      </trkpt>
      <trkpt lat="50.80223" lon="2.8748">
        <ele>33.1</ele>
        <time>2020-06-23T15:31:24Z</time>
      </trkpt>
      <trkpt lat="50.80219" lon="2.87482">
        <ele>33.3</ele>
        <time>2020-06-23T15:31:25Z</time>
      </trkpt>
      <trkpt lat="50.80215" lon="2.87484">
        <ele>33.6</ele>
        <time>2020-06-23T15:31:26Z</time>
      </trkpt>
      <trkpt lat="50.80211" lon="2.87486">
        <ele>33.8</ele>
        <time>2020-06-23T15:31:27Z</time>
      </trkpt>
      <trkpt lat="50.80207" lon="2.87489">
        <ele>34</ele>
        <time>2020-06-23T15:31:28Z</time>
      </trkpt>
      <trkpt lat="50.80202" lon="2.87491">
        <ele>34.4</ele>
        <time>2020-06-23T15:31:29Z</time>
      </trkpt>
      <trkpt lat="50.80198" lon="2.87494">
        <ele>34.6</ele>
        <time>2020-06-23T15:31:30Z</time>
      </trkpt>
      <trkpt lat="50.80194" lon="2.87497">
        <ele>34.9</ele>
        <time>2020-06-23T15:31:31Z</time>
      </trkpt>
      <trkpt lat="50.80189" lon="2.875">
        <ele>35.3</ele>
        <time>2020-06-23T15:31:32Z</time>
      </trkpt>
      <trkpt lat="50.80184" lon="2.87502">
        <ele>35.6</ele>
        <time>2020-06-23T15:31:33Z</time>
      </trkpt>
      <trkpt lat="50.8018" lon="2.87504">
        <ele>35.9</ele>
        <time>2020-06-23T15:31:34Z</time>
      </trkpt>
      <trkpt lat="50.80175" lon="2.87504">
        <ele>36.2</ele>
        <time>2020-06-23T15:31:35Z</time>
      </trkpt>
      <trkpt lat="50.80171" lon="2.87506">
        <ele>36.5</ele>
        <time>2020-06-23T15:31:36Z</time>
      </trkpt>
      <trkpt lat="50.80168" lon="2.87505">
        <ele>36.7</ele>
        <time>2020-06-23T15:31:37Z</time>
      </trkpt>
      <trkpt lat="50.80165" lon="2.87506">
        <ele>36.9</ele>
        <time>2020-06-23T15:31:38Z</time>
      </trkpt>
      <trkpt lat="50.80161" lon="2.87506">
        <ele>37.1</ele>
        <time>2020-06-23T15:31:39Z</time>
      </trkpt>
      <trkpt lat="50.80157" lon="2.87506">
        <ele>37.3</ele>
        <time>2020-06-23T15:31:40Z</time>
      </trkpt>
      <trkpt lat="50.80152" lon="2.87507">
        <ele>37.3</ele>
        <time>2020-06-23T15:31:41Z</time>
      </trkpt>
      <trkpt lat="50.80149" lon="2.87506">
        <ele>37.2</ele>
        <time>2020-06-23T15:31:42Z</time>
      </trkpt>
      <trkpt lat="50.80147" lon="2.87506">
        <ele>37.2</ele>
        <time>2020-06-23T15:31:43Z</time>
      </trkpt>
      <trkpt lat="50.80144" lon="2.87507">
        <ele>37.5</ele>
        <time>2020-06-23T15:31:44Z</time>
      </trkpt>
      <trkpt lat="50.8014" lon="2.87507">
        <ele>37.7</ele>
        <time>2020-06-23T15:31:45Z</time>
      </trkpt>
      <trkpt lat="50.80136" lon="2.87509">
        <ele>37.8</ele>
        <time>2020-06-23T15:31:46Z</time>
      </trkpt>
      <trkpt lat="50.80133" lon="2.87509">
        <ele>37.9</ele>
        <time>2020-06-23T15:31:47Z</time>
      </trkpt>
      <trkpt lat="50.80129" lon="2.8751">
        <ele>38.1</ele>
        <time>2020-06-23T15:31:48Z</time>
      </trkpt>
      <trkpt lat="50.80124" lon="2.87512">
        <ele>38.4</ele>
        <time>2020-06-23T15:31:49Z</time>
      </trkpt>
      <trkpt lat="50.8012" lon="2.87513">
        <ele>38.5</ele>
        <time>2020-06-23T15:31:50Z</time>
      </trkpt>
      <trkpt lat="50.80115" lon="2.87515">
        <ele>38.7</ele>
        <time>2020-06-23T15:31:51Z</time>
      </trkpt>
      <trkpt lat="50.80112" lon="2.87515">
        <ele>38.9</ele>
        <time>2020-06-23T15:31:52Z</time>
      </trkpt>
      <trkpt lat="50.80107" lon="2.87517">
        <ele>39.1</ele>
        <time>2020-06-23T15:31:53Z</time>
      </trkpt>
      <trkpt lat="50.80102" lon="2.87519">
        <ele>39.3</ele>
        <time>2020-06-23T15:31:54Z</time>
      </trkpt>
      <trkpt lat="50.80099" lon="2.8752">
        <ele>39.4</ele>
        <time>2020-06-23T15:31:55Z</time>
      </trkpt>
      <trkpt lat="50.80095" lon="2.87521">
        <ele>39.6</ele>
        <time>2020-06-23T15:31:56Z</time>
      </trkpt>
      <trkpt lat="50.80092" lon="2.87521">
        <ele>39.7</ele>
        <time>2020-06-23T15:31:57Z</time>
      </trkpt>
      <trkpt lat="50.80089" lon="2.87522">
        <ele>39.8</ele>
        <time>2020-06-23T15:31:58Z</time>
      </trkpt>
      <trkpt lat="50.80085" lon="2.87523">
        <ele>40</ele>
        <time>2020-06-23T15:31:59Z</time>
      </trkpt>
      <trkpt lat="50.8008" lon="2.87523">
        <ele>40.2</ele>
        <time>2020-06-23T15:32:00Z</time>
      </trkpt>
      <trkpt lat="50.80076" lon="2.87525">
        <ele>40.3</ele>
        <time>2020-06-23T15:32:01Z</time>
      </trkpt>
      <trkpt lat="50.80073" lon="2.87526">
        <ele>40.4</ele>
        <time>2020-06-23T15:32:02Z</time>
      </trkpt>
      <trkpt lat="50.80069" lon="2.87526">
        <ele>40.6</ele>
        <time>2020-06-23T15:32:03Z</time>
      </trkpt>
      <trkpt lat="50.80066" lon="2.87527">
        <ele>40.7</ele>
        <time>2020-06-23T15:32:04Z</time>
      </trkpt>
      <trkpt lat="50.80062" lon="2.87529">
        <ele>40.9</ele>
        <time>2020-06-23T15:32:05Z</time>
      </trkpt>
      <trkpt lat="50.80057" lon="2.8753">
        <ele>41.1</ele>
        <time>2020-06-23T15:32:06Z</time>
      </trkpt>
      <trkpt lat="50.80054" lon="2.87531">
        <ele>41.2</ele>
        <time>2020-06-23T15:32:07Z</time>
      </trkpt>
      <trkpt lat="50.8005" lon="2.87533">
        <ele>41.3</ele>
        <time>2020-06-23T15:32:08Z</time>
      </trkpt>
      <trkpt lat="50.80046" lon="2.87534">
        <ele>41.4</ele>
        <time>2020-06-23T15:32:09Z</time>
      </trkpt>
      <trkpt lat="50.80042" lon="2.87535">
        <ele>41.6</ele>
        <time>2020-06-23T15:32:10Z</time>
      </trkpt>
      <trkpt lat="50.80038" lon="2.87537">
        <ele>41.7</ele>
        <time>2020-06-23T15:32:11Z</time>
      </trkpt>
      <trkpt lat="50.80036" lon="2.87538">
        <ele>41.8</ele>
        <time>2020-06-23T15:32:12Z</time>
      </trkpt>
      <trkpt lat="50.80031" lon="2.8754">
        <ele>41.9</ele>
        <time>2020-06-23T15:32:13Z</time>
      </trkpt>
      <trkpt lat="50.80028" lon="2.87541">
        <ele>42</ele>
        <time>2020-06-23T15:32:14Z</time>
      </trkpt>
      <trkpt lat="50.80025" lon="2.87541">
        <ele>42.1</ele>
        <time>2020-06-23T15:32:15Z</time>
      </trkpt>
      <trkpt lat="50.80022" lon="2.87543">
        <ele>42.2</ele>
        <time>2020-06-23T15:32:16Z</time>
      </trkpt>
      <trkpt lat="50.80018" lon="2.87543">
        <ele>42.3</ele>
        <time>2020-06-23T15:32:17Z</time>
      </trkpt>
      <trkpt lat="50.80014" lon="2.87544">
        <ele>42.4</ele>
        <time>2020-06-23T15:32:18Z</time>
      </trkpt>
      <trkpt lat="50.8001" lon="2.87544">
        <ele>42.6</ele>
        <time>2020-06-23T15:32:19Z</time>
      </trkpt>
      <trkpt lat="50.80005" lon="2.87544">
        <ele>42.7</ele>
        <time>2020-06-23T15:32:20Z</time>
      </trkpt>
      <trkpt lat="50.8" lon="2.87546">
        <ele>42.8</ele>
        <time>2020-06-23T15:32:21Z</time>
      </trkpt>
      <trkpt lat="50.79996" lon="2.87546">
        <ele>42.9</ele>
        <time>2020-06-23T15:32:22Z</time>
      </trkpt>
      <trkpt lat="50.79992" lon="2.87547">
        <ele>43</ele>
        <time>2020-06-23T15:32:23Z</time>
      </trkpt>
      <trkpt lat="50.79988" lon="2.87547">
        <ele>43.1</ele>
        <time>2020-06-23T15:32:24Z</time>
      </trkpt>
      <trkpt lat="50.79984" lon="2.87547">
        <ele>43.2</ele>
        <time>2020-06-23T15:32:25Z</time>
      </trkpt>
      <trkpt lat="50.79979" lon="2.87548">
        <ele>43.3</ele>
        <time>2020-06-23T15:32:26Z</time>
      </trkpt>
      <trkpt lat="50.79974" lon="2.87547">
        <ele>43.4</ele>
        <time>2020-06-23T15:32:27Z</time>
      </trkpt>
      <trkpt lat="50.79969" lon="2.87549">
        <ele>43.5</ele>
        <time>2020-06-23T15:32:28Z</time>
      </trkpt>
      <trkpt lat="50.79966" lon="2.87549">
        <ele>43.5</ele>
        <time>2020-06-23T15:32:29Z</time>
      </trkpt>
      <trkpt lat="50.79961" lon="2.8755">
        <ele>43.6</ele>
        <time>2020-06-23T15:32:30Z</time>
      </trkpt>
      <trkpt lat="50.79957" lon="2.8755">
        <ele>43.6</ele>
        <time>2020-06-23T15:32:31Z</time>
      </trkpt>
      <trkpt lat="50.79954" lon="2.8755">
        <ele>43.7</ele>
        <time>2020-06-23T15:32:32Z</time>
      </trkpt>
      <trkpt lat="50.79949" lon="2.87551">
        <ele>43.7</ele>
        <time>2020-06-23T15:32:33Z</time>
      </trkpt>
      <trkpt lat="50.79945" lon="2.87551">
        <ele>43.8</ele>
        <time>2020-06-23T15:32:34Z</time>
      </trkpt>
      <trkpt lat="50.79941" lon="2.87551">
        <ele>43.8</ele>
        <time>2020-06-23T15:32:35Z</time>
      </trkpt>
      <trkpt lat="50.79937" lon="2.8755">
        <ele>43.8</ele>
        <time>2020-06-23T15:32:36Z</time>
      </trkpt>
      <trkpt lat="50.79933" lon="2.8755">
        <ele>43.9</ele>
        <time>2020-06-23T15:32:37Z</time>
      </trkpt>
      <trkpt lat="50.79928" lon="2.87549">
        <ele>43.9</ele>
        <time>2020-06-23T15:32:38Z</time>
      </trkpt>
      <trkpt lat="50.79924" lon="2.87548">
        <ele>43.9</ele>
        <time>2020-06-23T15:32:39Z</time>
      </trkpt>
      <trkpt lat="50.79918" lon="2.87547">
        <ele>44</ele>
        <time>2020-06-23T15:32:40Z</time>
      </trkpt>
      <trkpt lat="50.79913" lon="2.87547">
        <ele>44</ele>
        <time>2020-06-23T15:32:41Z</time>
      </trkpt>
      <trkpt lat="50.79907" lon="2.87546">
        <ele>44.1</ele>
        <time>2020-06-23T15:32:42Z</time>
      </trkpt>
      <trkpt lat="50.79902" lon="2.87547">
        <ele>44.1</ele>
        <time>2020-06-23T15:32:43Z</time>
      </trkpt>
      <trkpt lat="50.79896" lon="2.87547">
        <ele>44.1</ele>
        <time>2020-06-23T15:32:44Z</time>
      </trkpt>
      <trkpt lat="50.79891" lon="2.87547">
        <ele>44.2</ele>
        <time>2020-06-23T15:32:45Z</time>
      </trkpt>
      <trkpt lat="50.79886" lon="2.87548">
        <ele>44.2</ele>
        <time>2020-06-23T15:32:46Z</time>
      </trkpt>
      <trkpt lat="50.79881" lon="2.87549">
        <ele>44.2</ele>
        <time>2020-06-23T15:32:47Z</time>
      </trkpt>
      <trkpt lat="50.79876" lon="2.8755">
        <ele>44.2</ele>
        <time>2020-06-23T15:32:48Z</time>
      </trkpt>
      <trkpt lat="50.79871" lon="2.87551">
        <ele>44.2</ele>
        <time>2020-06-23T15:32:49Z</time>
      </trkpt>
      <trkpt lat="50.79865" lon="2.87553">
        <ele>44.2</ele>
        <time>2020-06-23T15:32:50Z</time>
      </trkpt>
      <trkpt lat="50.7986" lon="2.87554">
        <ele>44.2</ele>
        <time>2020-06-23T15:32:51Z</time>
      </trkpt>
      <trkpt lat="50.79855" lon="2.87554">
        <ele>44.2</ele>
        <time>2020-06-23T15:32:52Z</time>
      </trkpt>
      <trkpt lat="50.79849" lon="2.87554">
        <ele>44.2</ele>
        <time>2020-06-23T15:32:53Z</time>
      </trkpt>
      <trkpt lat="50.79844" lon="2.87554">
        <ele>44.2</ele>
        <time>2020-06-23T15:32:54Z</time>
      </trkpt>
      <trkpt lat="50.79838" lon="2.87553">
        <ele>44.2</ele>
        <time>2020-06-23T15:32:55Z</time>
      </trkpt>
      <trkpt lat="50.79834" lon="2.87553">
        <ele>44.2</ele>
        <time>2020-06-23T15:32:56Z</time>
      </trkpt>
      <trkpt lat="50.79828" lon="2.87552">
        <ele>44.2</ele>
        <time>2020-06-23T15:32:57Z</time>
      </trkpt>
      <trkpt lat="50.79823" lon="2.87552">
        <ele>44.3</ele>
        <time>2020-06-23T15:32:58Z</time>
      </trkpt>
      <trkpt lat="50.79817" lon="2.87552">
        <ele>44.3</ele>
        <time>2020-06-23T15:32:59Z</time>
      </trkpt>
      <trkpt lat="50.79811" lon="2.87551">
        <ele>44.4</ele>
        <time>2020-06-23T15:33:00Z</time>
      </trkpt>
      <trkpt lat="50.79804" lon="2.87551">
        <ele>44.4</ele>
        <time>2020-06-23T15:33:01Z</time>
      </trkpt>
      <trkpt lat="50.79798" lon="2.8755">
        <ele>44.4</ele>
        <time>2020-06-23T15:33:02Z</time>
      </trkpt>
      <trkpt lat="50.79792" lon="2.87549">
        <ele>44.5</ele>
        <time>2020-06-23T15:33:03Z</time>
      </trkpt>
      <trkpt lat="50.79785" lon="2.87549">
        <ele>44.5</ele>
        <time>2020-06-23T15:33:04Z</time>
      </trkpt>
      <trkpt lat="50.79779" lon="2.87549">
        <ele>44.5</ele>
        <time>2020-06-23T15:33:05Z</time>
      </trkpt>
      <trkpt lat="50.79773" lon="2.8755">
        <ele>44.6</ele>
        <time>2020-06-23T15:33:06Z</time>
      </trkpt>
      <trkpt lat="50.79767" lon="2.87551">
        <ele>44.6</ele>
        <time>2020-06-23T15:33:07Z</time>
      </trkpt>
      <trkpt lat="50.79761" lon="2.87551">
        <ele>44.6</ele>
        <time>2020-06-23T15:33:08Z</time>
      </trkpt>
      <trkpt lat="50.79755" lon="2.87551">
        <ele>44.6</ele>
        <time>2020-06-23T15:33:09Z</time>
      </trkpt>
      <trkpt lat="50.79749" lon="2.87552">
        <ele>44.7</ele>
        <time>2020-06-23T15:33:10Z</time>
      </trkpt>
      <trkpt lat="50.79744" lon="2.87553">
        <ele>44.7</ele>
        <time>2020-06-23T15:33:11Z</time>
      </trkpt>
      <trkpt lat="50.79738" lon="2.87553">
        <ele>44.7</ele>
        <time>2020-06-23T15:33:12Z</time>
      </trkpt>
      <trkpt lat="50.79732" lon="2.87553">
        <ele>44.8</ele>
        <time>2020-06-23T15:33:13Z</time>
      </trkpt>
      <trkpt lat="50.79727" lon="2.87551">
        <ele>44.9</ele>
        <time>2020-06-23T15:33:14Z</time>
      </trkpt>
      <trkpt lat="50.79721" lon="2.87549">
        <ele>45</ele>
        <time>2020-06-23T15:33:15Z</time>
      </trkpt>
      <trkpt lat="50.79717" lon="2.87545">
        <ele>45.1</ele>
        <time>2020-06-23T15:33:16Z</time>
      </trkpt>
      <trkpt lat="50.79712" lon="2.87541">
        <ele>45.3</ele>
        <time>2020-06-23T15:33:17Z</time>
      </trkpt>
      <trkpt lat="50.79708" lon="2.87536">
        <ele>45.4</ele>
        <time>2020-06-23T15:33:18Z</time>
      </trkpt>
      <trkpt lat="50.79704" lon="2.87531">
        <ele>45.5</ele>
        <time>2020-06-23T15:33:19Z</time>
      </trkpt>
      <trkpt lat="50.79699" lon="2.87527">
        <ele>45.6</ele>
        <time>2020-06-23T15:33:20Z</time>
      </trkpt>
      <trkpt lat="50.79694" lon="2.87521">
        <ele>45.7</ele>
        <time>2020-06-23T15:33:21Z</time>
      </trkpt>
      <trkpt lat="50.7969" lon="2.87517">
        <ele>45.8</ele>
        <time>2020-06-23T15:33:22Z</time>
      </trkpt>
      <trkpt lat="50.79686" lon="2.87513">
        <ele>46</ele>
        <time>2020-06-23T15:33:23Z</time>
      </trkpt>
      <trkpt lat="50.79682" lon="2.87509">
        <ele>46.1</ele>
        <time>2020-06-23T15:33:24Z</time>
      </trkpt>
      <trkpt lat="50.79678" lon="2.87506">
        <ele>46.2</ele>
        <time>2020-06-23T15:33:25Z</time>
      </trkpt>
      <trkpt lat="50.79674" lon="2.87501">
        <ele>46.4</ele>
        <time>2020-06-23T15:33:26Z</time>
      </trkpt>
      <trkpt lat="50.7967" lon="2.87499">
        <ele>46.5</ele>
        <time>2020-06-23T15:33:27Z</time>
      </trkpt>
      <trkpt lat="50.79666" lon="2.87496">
        <ele>46.6</ele>
        <time>2020-06-23T15:33:28Z</time>
      </trkpt>
      <trkpt lat="50.79663" lon="2.87494">
        <ele>46.7</ele>
        <time>2020-06-23T15:33:29Z</time>
      </trkpt>
      <trkpt lat="50.7966" lon="2.87491">
        <ele>46.7</ele>
        <time>2020-06-23T15:33:30Z</time>
      </trkpt>
      <trkpt lat="50.79657" lon="2.87489">
        <ele>46.8</ele>
        <time>2020-06-23T15:33:31Z</time>
      </trkpt>
      <trkpt lat="50.79653" lon="2.87487">
        <ele>46.9</ele>
        <time>2020-06-23T15:33:32Z</time>
      </trkpt>
      <trkpt lat="50.79648" lon="2.87485">
        <ele>47</ele>
        <time>2020-06-23T15:33:33Z</time>
      </trkpt>
      <trkpt lat="50.79644" lon="2.87483">
        <ele>47.1</ele>
        <time>2020-06-23T15:33:34Z</time>
      </trkpt>
      <trkpt lat="50.79639" lon="2.8748">
        <ele>47.3</ele>
        <time>2020-06-23T15:33:35Z</time>
      </trkpt>
      <trkpt lat="50.79636" lon="2.87478">
        <ele>47.3</ele>
        <time>2020-06-23T15:33:36Z</time>
      </trkpt>
      <trkpt lat="50.79633" lon="2.87477">
        <ele>47.4</ele>
        <time>2020-06-23T15:33:37Z</time>
      </trkpt>
      <trkpt lat="50.79629" lon="2.87477">
        <ele>47.5</ele>
        <time>2020-06-23T15:33:38Z</time>
      </trkpt>
      <trkpt lat="50.79626" lon="2.87476">
        <ele>47.6</ele>
        <time>2020-06-23T15:33:39Z</time>
      </trkpt>
      <trkpt lat="50.79623" lon="2.87476">
        <ele>47.6</ele>
        <time>2020-06-23T15:33:40Z</time>
      </trkpt>
      <trkpt lat="50.79619" lon="2.87475">
        <ele>47.7</ele>
        <time>2020-06-23T15:33:41Z</time>
      </trkpt>
      <trkpt lat="50.79615" lon="2.87475">
        <ele>47.8</ele>
        <time>2020-06-23T15:33:42Z</time>
      </trkpt>
      <trkpt lat="50.79612" lon="2.87474">
        <ele>47.9</ele>
        <time>2020-06-23T15:33:43Z</time>
      </trkpt>
      <trkpt lat="50.79608" lon="2.87474">
        <ele>48</ele>
        <time>2020-06-23T15:33:44Z</time>
      </trkpt>
      <trkpt lat="50.79604" lon="2.87474">
        <ele>48</ele>
        <time>2020-06-23T15:33:45Z</time>
      </trkpt>
      <trkpt lat="50.796" lon="2.87474">
        <ele>48.2</ele>
        <time>2020-06-23T15:33:46Z</time>
      </trkpt>
      <trkpt lat="50.79595" lon="2.87473">
        <ele>48.3</ele>
        <time>2020-06-23T15:33:47Z</time>
      </trkpt>
      <trkpt lat="50.79592" lon="2.87473">
        <ele>48.4</ele>
        <time>2020-06-23T15:33:48Z</time>
      </trkpt>
      <trkpt lat="50.79588" lon="2.87473">
        <ele>48.5</ele>
        <time>2020-06-23T15:33:49Z</time>
      </trkpt>
      <trkpt lat="50.79584" lon="2.87473">
        <ele>48.6</ele>
        <time>2020-06-23T15:33:50Z</time>
      </trkpt>
      <trkpt lat="50.7958" lon="2.87473">
        <ele>48.7</ele>
        <time>2020-06-23T15:33:51Z</time>
      </trkpt>
      <trkpt lat="50.79576" lon="2.87473">
        <ele>48.8</ele>
        <time>2020-06-23T15:33:52Z</time>
      </trkpt>
      <trkpt lat="50.79575" lon="2.87474">
        <ele>48.8</ele>
        <time>2020-06-23T15:33:53Z</time>
      </trkpt>
      <trkpt lat="50.79571" lon="2.87474">
        <ele>48.9</ele>
        <time>2020-06-23T15:33:54Z</time>
      </trkpt>
      <trkpt lat="50.7957" lon="2.87474">
        <ele>48.9</ele>
        <time>2020-06-23T15:33:55Z</time>
      </trkpt>
      <trkpt lat="50.79567" lon="2.87475">
        <ele>48.9</ele>
        <time>2020-06-23T15:33:56Z</time>
      </trkpt>
      <trkpt lat="50.79559" lon="2.87477">
        <ele>49.1</ele>
        <time>2020-06-23T15:33:57Z</time>
      </trkpt>
      <trkpt lat="50.79556" lon="2.87479">
        <ele>49.2</ele>
        <time>2020-06-23T15:33:58Z</time>
      </trkpt>
      <trkpt lat="50.79553" lon="2.87479">
        <ele>49.2</ele>
        <time>2020-06-23T15:33:59Z</time>
      </trkpt>
      <trkpt lat="50.7955" lon="2.87479">
        <ele>49.3</ele>
        <time>2020-06-23T15:34:00Z</time>
      </trkpt>
      <trkpt lat="50.79545" lon="2.87479">
        <ele>49.4</ele>
        <time>2020-06-23T15:34:01Z</time>
      </trkpt>
      <trkpt lat="50.7954" lon="2.87478">
        <ele>49.6</ele>
        <time>2020-06-23T15:34:02Z</time>
      </trkpt>
      <trkpt lat="50.79536" lon="2.87478">
        <ele>49.7</ele>
        <time>2020-06-23T15:34:03Z</time>
      </trkpt>
      <trkpt lat="50.79533" lon="2.87477">
        <ele>49.8</ele>
        <time>2020-06-23T15:34:04Z</time>
      </trkpt>
      <trkpt lat="50.79531" lon="2.87477">
        <ele>49.8</ele>
        <time>2020-06-23T15:34:05Z</time>
      </trkpt>
      <trkpt lat="50.79528" lon="2.87476">
        <ele>49.9</ele>
        <time>2020-06-23T15:34:06Z</time>
      </trkpt>
      <trkpt lat="50.79525" lon="2.87476">
        <ele>50.1</ele>
        <time>2020-06-23T15:34:07Z</time>
      </trkpt>
      <trkpt lat="50.79522" lon="2.87474">
        <ele>50.2</ele>
        <time>2020-06-23T15:34:08Z</time>
      </trkpt>
      <trkpt lat="50.79518" lon="2.87473">
        <ele>50.4</ele>
        <time>2020-06-23T15:34:09Z</time>
      </trkpt>
      <trkpt lat="50.79516" lon="2.87473">
        <ele>50.5</ele>
        <time>2020-06-23T15:34:10Z</time>
      </trkpt>
      <trkpt lat="50.79515" lon="2.87473">
        <ele>50.5</ele>
        <time>2020-06-23T15:34:11Z</time>
      </trkpt>
      <trkpt lat="50.79514" lon="2.87472">
        <ele>50.6</ele>
        <time>2020-06-23T15:34:12Z</time>
      </trkpt>
      <trkpt lat="50.79512" lon="2.87471">
        <ele>50.6</ele>
        <time>2020-06-23T15:34:13Z</time>
      </trkpt>
      <trkpt lat="50.7951" lon="2.87468">
        <ele>50.8</ele>
        <time>2020-06-23T15:34:14Z</time>
      </trkpt>
      <trkpt lat="50.79509" lon="2.87467">
        <ele>50.8</ele>
        <time>2020-06-23T15:34:15Z</time>
      </trkpt>
      <trkpt lat="50.79507" lon="2.87467">
        <ele>50.9</ele>
        <time>2020-06-23T15:34:16Z</time>
      </trkpt>
      <trkpt lat="50.79504" lon="2.87466">
        <ele>51.1</ele>
        <time>2020-06-23T15:34:17Z</time>
      </trkpt>
      <trkpt lat="50.79503" lon="2.87466">
        <ele>51.1</ele>
        <time>2020-06-23T15:34:18Z</time>
      </trkpt>
      <trkpt lat="50.795" lon="2.87466">
        <ele>51.2</ele>
        <time>2020-06-23T15:34:19Z</time>
      </trkpt>
      <trkpt lat="50.79499" lon="2.87467">
        <ele>51.3</ele>
        <time>2020-06-23T15:34:20Z</time>
      </trkpt>
      <trkpt lat="50.79499" lon="2.87467">
        <ele>51.3</ele>
        <time>2020-06-23T15:34:21Z</time>
      </trkpt>
      <trkpt lat="50.79496" lon="2.87466">
        <ele>51.4</ele>
        <time>2020-06-23T15:34:22Z</time>
      </trkpt>
      <trkpt lat="50.79495" lon="2.87465">
        <ele>51.5</ele>
        <time>2020-06-23T15:34:23Z</time>
      </trkpt>
      <trkpt lat="50.79494" lon="2.87464">
        <ele>51.5</ele>
        <time>2020-06-23T15:34:24Z</time>
      </trkpt>
      <trkpt lat="50.79493" lon="2.87462">
        <ele>51.6</ele>
        <time>2020-06-23T15:34:25Z</time>
      </trkpt>
      <trkpt lat="50.79492" lon="2.87463">
        <ele>51.6</ele>
        <time>2020-06-23T15:34:26Z</time>
      </trkpt>
      <trkpt lat="50.7949" lon="2.87463">
        <ele>51.7</ele>
        <time>2020-06-23T15:34:27Z</time>
      </trkpt>
      <trkpt lat="50.7949" lon="2.87462">
        <ele>51.7</ele>
        <time>2020-06-23T15:34:28Z</time>
      </trkpt>
      <trkpt lat="50.7949" lon="2.8746">
        <ele>51.8</ele>
        <time>2020-06-23T15:34:29Z</time>
      </trkpt>
      <trkpt lat="50.79489" lon="2.87459">
        <ele>51.8</ele>
        <time>2020-06-23T15:34:30Z</time>
      </trkpt>
      <trkpt lat="50.79488" lon="2.8746">
        <ele>51.9</ele>
        <time>2020-06-23T15:34:31Z</time>
      </trkpt>
      <trkpt lat="50.79488" lon="2.87461">
        <ele>51.9</ele>
        <time>2020-06-23T15:34:32Z</time>
      </trkpt>
      <trkpt lat="50.79487" lon="2.87463">
        <ele>51.9</ele>
        <time>2020-06-23T15:34:33Z</time>
      </trkpt>
      <trkpt lat="50.79487" lon="2.87463">
        <ele>52</ele>
        <time>2020-06-23T15:34:34Z</time>
      </trkpt>
      <trkpt lat="50.79486" lon="2.87464">
        <ele>52</ele>
        <time>2020-06-23T15:34:35Z</time>
      </trkpt>
      <trkpt lat="50.79486" lon="2.87464">
        <ele>52</ele>
        <time>2020-06-23T15:34:36Z</time>
      </trkpt>
      <trkpt lat="50.79485" lon="2.87465">
        <ele>52</ele>
        <time>2020-06-23T15:34:37Z</time>
      </trkpt>
      <trkpt lat="50.79485" lon="2.87466">
        <ele>52.1</ele>
        <time>2020-06-23T15:34:38Z</time>
      </trkpt>
      <trkpt lat="50.79485" lon="2.87466">
        <ele>52.1</ele>
        <time>2020-06-23T15:34:39Z</time>
      </trkpt>
      <trkpt lat="50.79485" lon="2.87465">
        <ele>52.1</ele>
        <time>2020-06-23T15:34:40Z</time>
      </trkpt>
      <trkpt lat="50.79485" lon="2.87464">
        <ele>52.1</ele>
        <time>2020-06-23T15:34:41Z</time>
      </trkpt>
      <trkpt lat="50.79484" lon="2.87464">
        <ele>52.1</ele>
        <time>2020-06-23T15:34:42Z</time>
      </trkpt>
      <trkpt lat="50.79484" lon="2.87464">
        <ele>52.1</ele>
        <time>2020-06-23T15:34:43Z</time>
      </trkpt>
      <trkpt lat="50.79483" lon="2.87464">
        <ele>52.2</ele>
        <time>2020-06-23T15:34:44Z</time>
      </trkpt>
      <trkpt lat="50.79483" lon="2.87464">
        <ele>52.2</ele>
        <time>2020-06-23T15:34:45Z</time>
      </trkpt>
      <trkpt lat="50.79483" lon="2.87466">
        <ele>52.2</ele>
        <time>2020-06-23T15:34:46Z</time>
      </trkpt>
      <trkpt lat="50.79483" lon="2.87467">
        <ele>52.2</ele>
        <time>2020-06-23T15:34:47Z</time>
      </trkpt>
      <trkpt lat="50.79483" lon="2.87467">
        <ele>52.3</ele>
        <time>2020-06-23T15:34:48Z</time>
      </trkpt>
      <trkpt lat="50.79482" lon="2.87466">
        <ele>52.3</ele>
        <time>2020-06-23T15:34:49Z</time>
      </trkpt>
      <trkpt lat="50.79482" lon="2.87466">
        <ele>52.3</ele>
        <time>2020-06-23T15:34:50Z</time>
      </trkpt>
      <trkpt lat="50.7948" lon="2.87465">
        <ele>52.4</ele>
        <time>2020-06-23T15:34:51Z</time>
      </trkpt>
      <trkpt lat="50.7948" lon="2.87464">
        <ele>52.4</ele>
        <time>2020-06-23T15:34:52Z</time>
      </trkpt>
      <trkpt lat="50.79479" lon="2.87464">
        <ele>52.5</ele>
        <time>2020-06-23T15:34:53Z</time>
      </trkpt>
      <trkpt lat="50.79478" lon="2.87464">
        <ele>52.5</ele>
        <time>2020-06-23T15:34:54Z</time>
      </trkpt>
      <trkpt lat="50.79478" lon="2.87463">
        <ele>52.5</ele>
        <time>2020-06-23T15:34:55Z</time>
      </trkpt>
      <trkpt lat="50.79477" lon="2.87463">
        <ele>52.6</ele>
        <time>2020-06-23T15:35:16Z</time>
      </trkpt>
      <trkpt lat="50.79476" lon="2.87462">
        <ele>52.6</ele>
        <time>2020-06-23T15:35:17Z</time>
      </trkpt>
      <trkpt lat="50.79476" lon="2.87462">
        <ele>52.6</ele>
        <time>2020-06-23T15:35:18Z</time>
      </trkpt>
      <trkpt lat="50.79475" lon="2.87461">
        <ele>52.6</ele>
        <time>2020-06-23T15:35:19Z</time>
      </trkpt>
      <trkpt lat="50.79474" lon="2.87461">
        <ele>52.7</ele>
        <time>2020-06-23T15:35:20Z</time>
      </trkpt>
      <trkpt lat="50.79474" lon="2.87461">
        <ele>52.7</ele>
        <time>2020-06-23T15:35:21Z</time>
      </trkpt>
      <trkpt lat="50.79473" lon="2.8746">
        <ele>52.7</ele>
        <time>2020-06-23T15:35:22Z</time>
      </trkpt>
      <trkpt lat="50.79472" lon="2.8746">
        <ele>52.8</ele>
        <time>2020-06-23T15:35:23Z</time>
      </trkpt>
      <trkpt lat="50.79472" lon="2.87459">
        <ele>52.8</ele>
        <time>2020-06-23T15:35:24Z</time>
      </trkpt>
      <trkpt lat="50.79471" lon="2.87459">
        <ele>52.8</ele>
        <time>2020-06-23T15:35:25Z</time>
      </trkpt>
      <trkpt lat="50.7947" lon="2.87458">
        <ele>52.9</ele>
        <time>2020-06-23T15:35:26Z</time>
      </trkpt>
      <trkpt lat="50.7947" lon="2.87458">
        <ele>52.9</ele>
        <time>2020-06-23T15:35:27Z</time>
      </trkpt>
      <trkpt lat="50.79469" lon="2.87458">
        <ele>52.9</ele>
        <time>2020-06-23T15:35:28Z</time>
      </trkpt>
      <trkpt lat="50.79468" lon="2.87457">
        <ele>53</ele>
        <time>2020-06-23T15:35:29Z</time>
      </trkpt>
      <trkpt lat="50.79468" lon="2.87457">
        <ele>53</ele>
        <time>2020-06-23T15:35:48Z</time>
      </trkpt>
      <trkpt lat="50.79467" lon="2.87456">
        <ele>53</ele>
        <time>2020-06-23T15:35:49Z</time>
      </trkpt>
      <trkpt lat="50.79464" lon="2.87454">
        <ele>53.2</ele>
        <time>2020-06-23T15:35:50Z</time>
      </trkpt>
      <trkpt lat="50.79461" lon="2.87454">
        <ele>53.3</ele>
        <time>2020-06-23T15:35:51Z</time>
      </trkpt>
      <trkpt lat="50.79458" lon="2.87453">
        <ele>53.5</ele>
        <time>2020-06-23T15:35:52Z</time>
      </trkpt>
      <trkpt lat="50.79454" lon="2.87452">
        <ele>53.6</ele>
        <time>2020-06-23T15:35:53Z</time>
      </trkpt>
      <trkpt lat="50.79451" lon="2.8745">
        <ele>53.8</ele>
        <time>2020-06-23T15:35:54Z</time>
      </trkpt>
      <trkpt lat="50.79446" lon="2.8745">
        <ele>54</ele>
        <time>2020-06-23T15:35:55Z</time>
      </trkpt>
      <trkpt lat="50.79443" lon="2.87449">
        <ele>54.1</ele>
        <time>2020-06-23T15:35:56Z</time>
      </trkpt>
      <trkpt lat="50.7944" lon="2.87448">
        <ele>54.2</ele>
        <time>2020-06-23T15:35:57Z</time>
      </trkpt>
      <trkpt lat="50.79437" lon="2.87448">
        <ele>54.4</ele>
        <time>2020-06-23T15:35:58Z</time>
      </trkpt>
      <trkpt lat="50.79434" lon="2.87448">
        <ele>54.5</ele>
        <time>2020-06-23T15:35:59Z</time>
      </trkpt>
      <trkpt lat="50.7943" lon="2.87449">
        <ele>54.7</ele>
        <time>2020-06-23T15:36:00Z</time>
      </trkpt>
      <trkpt lat="50.79424" lon="2.87449">
        <ele>55</ele>
        <time>2020-06-23T15:36:01Z</time>
      </trkpt>
      <trkpt lat="50.79418" lon="2.87448">
        <ele>55.2</ele>
        <time>2020-06-23T15:36:02Z</time>
      </trkpt>
      <trkpt lat="50.79415" lon="2.87447">
        <ele>55.4</ele>
        <time>2020-06-23T15:36:03Z</time>
      </trkpt>
      <trkpt lat="50.79411" lon="2.87446">
        <ele>55.6</ele>
        <time>2020-06-23T15:36:04Z</time>
      </trkpt>
      <trkpt lat="50.79408" lon="2.87446">
        <ele>55.8</ele>
        <time>2020-06-23T15:36:05Z</time>
      </trkpt>
      <trkpt lat="50.79405" lon="2.87445">
        <ele>56.1</ele>
        <time>2020-06-23T15:36:06Z</time>
      </trkpt>
      <trkpt lat="50.79401" lon="2.87443">
        <ele>56.3</ele>
        <time>2020-06-23T15:36:07Z</time>
      </trkpt>
      <trkpt lat="50.79397" lon="2.87442">
        <ele>56.6</ele>
        <time>2020-06-23T15:36:08Z</time>
      </trkpt>
      <trkpt lat="50.79394" lon="2.87441">
        <ele>56.8</ele>
        <time>2020-06-23T15:36:09Z</time>
      </trkpt>
      <trkpt lat="50.7939" lon="2.87439">
        <ele>57.1</ele>
        <time>2020-06-23T15:36:10Z</time>
      </trkpt>
      <trkpt lat="50.79387" lon="2.87438">
        <ele>57.5</ele>
        <time>2020-06-23T15:36:11Z</time>
      </trkpt>
      <trkpt lat="50.79383" lon="2.87436">
        <ele>57.6</ele>
        <time>2020-06-23T15:36:12Z</time>
      </trkpt>
      <trkpt lat="50.79379" lon="2.87434">
        <ele>57.7</ele>
        <time>2020-06-23T15:36:13Z</time>
      </trkpt>
      <trkpt lat="50.79375" lon="2.87433">
        <ele>57.8</ele>
        <time>2020-06-23T15:36:14Z</time>
      </trkpt>
      <trkpt lat="50.79371" lon="2.87431">
        <ele>57.9</ele>
        <time>2020-06-23T15:36:15Z</time>
      </trkpt>
      <trkpt lat="50.79368" lon="2.8743">
        <ele>58</ele>
        <time>2020-06-23T15:36:16Z</time>
      </trkpt>
      <trkpt lat="50.79365" lon="2.8743">
        <ele>58</ele>
        <time>2020-06-23T15:36:17Z</time>
      </trkpt>
      <trkpt lat="50.79361" lon="2.8743">
        <ele>58.1</ele>
        <time>2020-06-23T15:36:18Z</time>
      </trkpt>
      <trkpt lat="50.7936" lon="2.87431">
        <ele>58.1</ele>
        <time>2020-06-23T15:36:19Z</time>
      </trkpt>
      <trkpt lat="50.79356" lon="2.87434">
        <ele>58.1</ele>
        <time>2020-06-23T15:36:20Z</time>
      </trkpt>
      <trkpt lat="50.79355" lon="2.87436">
        <ele>58.2</ele>
        <time>2020-06-23T15:36:21Z</time>
      </trkpt>
      <trkpt lat="50.79353" lon="2.87441">
        <ele>58.3</ele>
        <time>2020-06-23T15:36:22Z</time>
      </trkpt>
      <trkpt lat="50.79352" lon="2.87443">
        <ele>58.3</ele>
        <time>2020-06-23T15:36:23Z</time>
      </trkpt>
      <trkpt lat="50.79351" lon="2.87447">
        <ele>58.4</ele>
        <time>2020-06-23T15:36:24Z</time>
      </trkpt>
      <trkpt lat="50.79348" lon="2.87452">
        <ele>58.6</ele>
        <time>2020-06-23T15:36:25Z</time>
      </trkpt>
      <trkpt lat="50.79347" lon="2.87453">
        <ele>58.6</ele>
        <time>2020-06-23T15:36:26Z</time>
      </trkpt>
      <trkpt lat="50.79345" lon="2.87457">
        <ele>58.7</ele>
        <time>2020-06-23T15:36:27Z</time>
      </trkpt>
      <trkpt lat="50.79344" lon="2.87458">
        <ele>58.8</ele>
        <time>2020-06-23T15:36:28Z</time>
      </trkpt>
      <trkpt lat="50.79343" lon="2.8746">
        <ele>58.8</ele>
        <time>2020-06-23T15:36:29Z</time>
      </trkpt>
      <trkpt lat="50.79342" lon="2.87461">
        <ele>58.8</ele>
        <time>2020-06-23T15:36:30Z</time>
      </trkpt>
      <trkpt lat="50.79342" lon="2.87462">
        <ele>58.9</ele>
        <time>2020-06-23T15:36:31Z</time>
      </trkpt>
      <trkpt lat="50.7934" lon="2.87465">
        <ele>58.9</ele>
        <time>2020-06-23T15:36:32Z</time>
      </trkpt>
      <trkpt lat="50.79339" lon="2.87466">
        <ele>59</ele>
        <time>2020-06-23T15:36:33Z</time>
      </trkpt>
      <trkpt lat="50.79338" lon="2.87467">
        <ele>59</ele>
        <time>2020-06-23T15:36:34Z</time>
      </trkpt>
      <trkpt lat="50.79337" lon="2.87469">
        <ele>59</ele>
        <time>2020-06-23T15:36:35Z</time>
      </trkpt>
      <trkpt lat="50.79335" lon="2.8747">
        <ele>59.1</ele>
        <time>2020-06-23T15:36:36Z</time>
      </trkpt>
      <trkpt lat="50.79334" lon="2.87472">
        <ele>59.1</ele>
        <time>2020-06-23T15:36:37Z</time>
      </trkpt>
      <trkpt lat="50.79333" lon="2.87473">
        <ele>59.1</ele>
        <time>2020-06-23T15:36:38Z</time>
      </trkpt>
      <trkpt lat="50.79332" lon="2.87474">
        <ele>59.2</ele>
        <time>2020-06-23T15:36:39Z</time>
      </trkpt>
      <trkpt lat="50.79331" lon="2.87476">
        <ele>59.2</ele>
        <time>2020-06-23T15:36:40Z</time>
      </trkpt>
      <trkpt lat="50.7933" lon="2.87477">
        <ele>59.2</ele>
        <time>2020-06-23T15:39:09Z</time>
      </trkpt>
      <trkpt lat="50.79329" lon="2.87478">
        <ele>59.3</ele>
        <time>2020-06-23T15:39:10Z</time>
      </trkpt>
      <trkpt lat="50.79327" lon="2.87484">
        <ele>59.3</ele>
        <time>2020-06-23T15:39:11Z</time>
      </trkpt>
      <trkpt lat="50.79326" lon="2.87485">
        <ele>59.4</ele>
        <time>2020-06-23T15:39:12Z</time>
      </trkpt>
      <trkpt lat="50.79324" lon="2.87488">
        <ele>59.4</ele>
        <time>2020-06-23T15:39:13Z</time>
      </trkpt>
      <trkpt lat="50.79321" lon="2.87492">
        <ele>59.5</ele>
        <time>2020-06-23T15:39:14Z</time>
      </trkpt>
      <trkpt lat="50.79319" lon="2.87496">
        <ele>59.6</ele>
        <time>2020-06-23T15:39:15Z</time>
      </trkpt>
      <trkpt lat="50.79316" lon="2.87501">
        <ele>59.6</ele>
        <time>2020-06-23T15:39:16Z</time>
      </trkpt>
      <trkpt lat="50.79313" lon="2.87503">
        <ele>59.7</ele>
        <time>2020-06-23T15:39:17Z</time>
      </trkpt>
      <trkpt lat="50.7931" lon="2.87505">
        <ele>59.8</ele>
        <time>2020-06-23T15:39:18Z</time>
      </trkpt>
      <trkpt lat="50.79307" lon="2.87508">
        <ele>59.8</ele>
        <time>2020-06-23T15:39:19Z</time>
      </trkpt>
      <trkpt lat="50.79305" lon="2.87511">
        <ele>59.9</ele>
        <time>2020-06-23T15:39:20Z</time>
      </trkpt>
      <trkpt lat="50.79302" lon="2.87514">
        <ele>59.9</ele>
        <time>2020-06-23T15:39:21Z</time>
      </trkpt>
      <trkpt lat="50.79301" lon="2.87516">
        <ele>60</ele>
        <time>2020-06-23T15:39:22Z</time>
      </trkpt>
      <trkpt lat="50.79298" lon="2.87519">
        <ele>60</ele>
        <time>2020-06-23T15:39:23Z</time>
      </trkpt>
      <trkpt lat="50.79294" lon="2.87523">
        <ele>60.1</ele>
        <time>2020-06-23T15:39:24Z</time>
      </trkpt>
      <trkpt lat="50.7929" lon="2.87527">
        <ele>60.2</ele>
        <time>2020-06-23T15:39:25Z</time>
      </trkpt>
      <trkpt lat="50.79287" lon="2.87531">
        <ele>60.3</ele>
        <time>2020-06-23T15:39:26Z</time>
      </trkpt>
      <trkpt lat="50.79283" lon="2.87533">
        <ele>60.3</ele>
        <time>2020-06-23T15:39:27Z</time>
      </trkpt>
      <trkpt lat="50.79279" lon="2.87537">
        <ele>60.4</ele>
        <time>2020-06-23T15:39:28Z</time>
      </trkpt>
      <trkpt lat="50.79275" lon="2.87539">
        <ele>60.5</ele>
        <time>2020-06-23T15:39:29Z</time>
      </trkpt>
      <trkpt lat="50.79271" lon="2.87541">
        <ele>60.6</ele>
        <time>2020-06-23T15:39:30Z</time>
      </trkpt>
      <trkpt lat="50.79268" lon="2.87544">
        <ele>60.6</ele>
        <time>2020-06-23T15:39:31Z</time>
      </trkpt>
      <trkpt lat="50.79264" lon="2.87547">
        <ele>60.7</ele>
        <time>2020-06-23T15:39:32Z</time>
      </trkpt>
      <trkpt lat="50.7926" lon="2.8755">
        <ele>60.8</ele>
        <time>2020-06-23T15:39:33Z</time>
      </trkpt>
      <trkpt lat="50.79256" lon="2.87553">
        <ele>60.8</ele>
        <time>2020-06-23T15:39:34Z</time>
      </trkpt>
      <trkpt lat="50.79252" lon="2.87556">
        <ele>60.9</ele>
        <time>2020-06-23T15:39:35Z</time>
      </trkpt>
      <trkpt lat="50.79249" lon="2.8756">
        <ele>61</ele>
        <time>2020-06-23T15:39:36Z</time>
      </trkpt>
      <trkpt lat="50.79245" lon="2.87563">
        <ele>61.1</ele>
        <time>2020-06-23T15:39:37Z</time>
      </trkpt>
      <trkpt lat="50.79241" lon="2.87567">
        <ele>61.2</ele>
        <time>2020-06-23T15:39:38Z</time>
      </trkpt>
      <trkpt lat="50.79237" lon="2.8757">
        <ele>61.3</ele>
        <time>2020-06-23T15:39:39Z</time>
      </trkpt>
      <trkpt lat="50.79233" lon="2.87573">
        <ele>61.3</ele>
        <time>2020-06-23T15:39:40Z</time>
      </trkpt>
      <trkpt lat="50.79229" lon="2.87576">
        <ele>61.4</ele>
        <time>2020-06-23T15:39:41Z</time>
      </trkpt>
      <trkpt lat="50.79225" lon="2.87579">
        <ele>61.5</ele>
        <time>2020-06-23T15:39:42Z</time>
      </trkpt>
      <trkpt lat="50.79222" lon="2.87582">
        <ele>61.6</ele>
        <time>2020-06-23T15:39:43Z</time>
      </trkpt>
      <trkpt lat="50.79219" lon="2.87585">
        <ele>61.7</ele>
        <time>2020-06-23T15:39:44Z</time>
      </trkpt>
      <trkpt lat="50.79215" lon="2.87587">
        <ele>61.8</ele>
        <time>2020-06-23T15:39:45Z</time>
      </trkpt>
      <trkpt lat="50.7921" lon="2.87591">
        <ele>62</ele>
        <time>2020-06-23T15:39:46Z</time>
      </trkpt>
      <trkpt lat="50.79206" lon="2.87593">
        <ele>62.2</ele>
        <time>2020-06-23T15:39:47Z</time>
      </trkpt>
      <trkpt lat="50.79202" lon="2.87596">
        <ele>62.4</ele>
        <time>2020-06-23T15:39:48Z</time>
      </trkpt>
      <trkpt lat="50.79199" lon="2.87599">
        <ele>62.6</ele>
        <time>2020-06-23T15:39:49Z</time>
      </trkpt>
      <trkpt lat="50.79194" lon="2.87602">
        <ele>62.9</ele>
        <time>2020-06-23T15:39:50Z</time>
      </trkpt>
      <trkpt lat="50.79188" lon="2.87605">
        <ele>63.1</ele>
        <time>2020-06-23T15:39:51Z</time>
      </trkpt>
      <trkpt lat="50.79183" lon="2.87608">
        <ele>63.3</ele>
        <time>2020-06-23T15:39:52Z</time>
      </trkpt>
      <trkpt lat="50.79179" lon="2.8761">
        <ele>63.4</ele>
        <time>2020-06-23T15:39:53Z</time>
      </trkpt>
      <trkpt lat="50.79175" lon="2.87613">
        <ele>63.6</ele>
        <time>2020-06-23T15:39:54Z</time>
      </trkpt>
      <trkpt lat="50.79171" lon="2.87617">
        <ele>63.8</ele>
        <time>2020-06-23T15:39:55Z</time>
      </trkpt>
      <trkpt lat="50.79167" lon="2.8762">
        <ele>64</ele>
        <time>2020-06-23T15:39:56Z</time>
      </trkpt>
      <trkpt lat="50.79162" lon="2.87624">
        <ele>64.2</ele>
        <time>2020-06-23T15:39:57Z</time>
      </trkpt>
      <trkpt lat="50.79159" lon="2.87626">
        <ele>64.4</ele>
        <time>2020-06-23T15:39:58Z</time>
      </trkpt>
      <trkpt lat="50.79155" lon="2.87628">
        <ele>64.5</ele>
        <time>2020-06-23T15:39:59Z</time>
      </trkpt>
      <trkpt lat="50.79152" lon="2.87631">
        <ele>64.7</ele>
        <time>2020-06-23T15:40:00Z</time>
      </trkpt>
      <trkpt lat="50.79148" lon="2.87635">
        <ele>64.8</ele>
        <time>2020-06-23T15:40:01Z</time>
      </trkpt>
      <trkpt lat="50.79145" lon="2.87639">
        <ele>65</ele>
        <time>2020-06-23T15:40:02Z</time>
      </trkpt>
      <trkpt lat="50.79141" lon="2.87642">
        <ele>65.2</ele>
        <time>2020-06-23T15:40:03Z</time>
      </trkpt>
      <trkpt lat="50.79137" lon="2.87644">
        <ele>65.3</ele>
        <time>2020-06-23T15:40:04Z</time>
      </trkpt>
      <trkpt lat="50.79133" lon="2.87647">
        <ele>65.5</ele>
        <time>2020-06-23T15:40:05Z</time>
      </trkpt>
      <trkpt lat="50.79129" lon="2.87651">
        <ele>65.6</ele>
        <time>2020-06-23T15:40:06Z</time>
      </trkpt>
      <trkpt lat="50.79125" lon="2.87654">
        <ele>66</ele>
        <time>2020-06-23T15:40:07Z</time>
      </trkpt>
      <trkpt lat="50.79121" lon="2.87658">
        <ele>66</ele>
        <time>2020-06-23T15:40:08Z</time>
      </trkpt>
      <trkpt lat="50.79118" lon="2.87662">
        <ele>66.1</ele>
        <time>2020-06-23T15:40:09Z</time>
      </trkpt>
      <trkpt lat="50.79115" lon="2.87664">
        <ele>66.1</ele>
        <time>2020-06-23T15:40:10Z</time>
      </trkpt>
      <trkpt lat="50.79111" lon="2.87666">
        <ele>66.2</ele>
        <time>2020-06-23T15:40:11Z</time>
      </trkpt>
      <trkpt lat="50.79107" lon="2.8767">
        <ele>66.4</ele>
        <time>2020-06-23T15:40:12Z</time>
      </trkpt>
      <trkpt lat="50.79103" lon="2.87674">
        <ele>66.5</ele>
        <time>2020-06-23T15:40:13Z</time>
      </trkpt>
      <trkpt lat="50.791" lon="2.87676">
        <ele>66.6</ele>
        <time>2020-06-23T15:40:14Z</time>
      </trkpt>
      <trkpt lat="50.79096" lon="2.8768">
        <ele>66.7</ele>
        <time>2020-06-23T15:40:15Z</time>
      </trkpt>
      <trkpt lat="50.79093" lon="2.87683">
        <ele>66.8</ele>
        <time>2020-06-23T15:40:16Z</time>
      </trkpt>
      <trkpt lat="50.79089" lon="2.87686">
        <ele>66.9</ele>
        <time>2020-06-23T15:40:17Z</time>
      </trkpt>
      <trkpt lat="50.79084" lon="2.87689">
        <ele>67</ele>
        <time>2020-06-23T15:40:18Z</time>
      </trkpt>
      <trkpt lat="50.7908" lon="2.87694">
        <ele>67.1</ele>
        <time>2020-06-23T15:40:19Z</time>
      </trkpt>
      <trkpt lat="50.79076" lon="2.87698">
        <ele>67.1</ele>
        <time>2020-06-23T15:40:20Z</time>
      </trkpt>
      <trkpt lat="50.79072" lon="2.87703">
        <ele>67.2</ele>
        <time>2020-06-23T15:40:21Z</time>
      </trkpt>
      <trkpt lat="50.79068" lon="2.87706">
        <ele>67.2</ele>
        <time>2020-06-23T15:40:22Z</time>
      </trkpt>
      <trkpt lat="50.79064" lon="2.8771">
        <ele>67.2</ele>
        <time>2020-06-23T15:40:23Z</time>
      </trkpt>
      <trkpt lat="50.7906" lon="2.87714">
        <ele>67.2</ele>
        <time>2020-06-23T15:40:24Z</time>
      </trkpt>
      <trkpt lat="50.79056" lon="2.87719">
        <ele>67.3</ele>
        <time>2020-06-23T15:40:25Z</time>
      </trkpt>
      <trkpt lat="50.79051" lon="2.87722">
        <ele>67.3</ele>
        <time>2020-06-23T15:40:26Z</time>
      </trkpt>
      <trkpt lat="50.79046" lon="2.87726">
        <ele>67.3</ele>
        <time>2020-06-23T15:40:27Z</time>
      </trkpt>
      <trkpt lat="50.79042" lon="2.87731">
        <ele>67.2</ele>
        <time>2020-06-23T15:40:28Z</time>
      </trkpt>
      <trkpt lat="50.79037" lon="2.87735">
        <ele>67.2</ele>
        <time>2020-06-23T15:40:29Z</time>
      </trkpt>
      <trkpt lat="50.79032" lon="2.87739">
        <ele>67.2</ele>
        <time>2020-06-23T15:40:30Z</time>
      </trkpt>
      <trkpt lat="50.79027" lon="2.87742">
        <ele>67.2</ele>
        <time>2020-06-23T15:40:31Z</time>
      </trkpt>
      <trkpt lat="50.79023" lon="2.87746">
        <ele>67.2</ele>
        <time>2020-06-23T15:40:32Z</time>
      </trkpt>
      <trkpt lat="50.79019" lon="2.87751">
        <ele>67.3</ele>
        <time>2020-06-23T15:40:33Z</time>
      </trkpt>
      <trkpt lat="50.79014" lon="2.87756">
        <ele>67.3</ele>
        <time>2020-06-23T15:40:34Z</time>
      </trkpt>
      <trkpt lat="50.7901" lon="2.8776">
        <ele>67.2</ele>
        <time>2020-06-23T15:40:35Z</time>
      </trkpt>
      <trkpt lat="50.79006" lon="2.87764">
        <ele>67.2</ele>
        <time>2020-06-23T15:40:36Z</time>
      </trkpt>
      <trkpt lat="50.79001" lon="2.87769">
        <ele>67.2</ele>
        <time>2020-06-23T15:40:37Z</time>
      </trkpt>
      <trkpt lat="50.78995" lon="2.87771">
        <ele>67.2</ele>
        <time>2020-06-23T15:40:38Z</time>
      </trkpt>
      <trkpt lat="50.78989" lon="2.87777">
        <ele>67.2</ele>
        <time>2020-06-23T15:40:39Z</time>
      </trkpt>
      <trkpt lat="50.78984" lon="2.87783">
        <ele>67.2</ele>
        <time>2020-06-23T15:40:40Z</time>
      </trkpt>
      <trkpt lat="50.78979" lon="2.87789">
        <ele>67.2</ele>
        <time>2020-06-23T15:40:41Z</time>
      </trkpt>
      <trkpt lat="50.78974" lon="2.87794">
        <ele>67.2</ele>
        <time>2020-06-23T15:40:42Z</time>
      </trkpt>
      <trkpt lat="50.78968" lon="2.878">
        <ele>67.3</ele>
        <time>2020-06-23T15:40:43Z</time>
      </trkpt>
      <trkpt lat="50.78962" lon="2.87806">
        <ele>67.3</ele>
        <time>2020-06-23T15:40:44Z</time>
      </trkpt>
      <trkpt lat="50.78957" lon="2.87811">
        <ele>67.3</ele>
        <time>2020-06-23T15:40:45Z</time>
      </trkpt>
      <trkpt lat="50.78952" lon="2.87816">
        <ele>67.3</ele>
        <time>2020-06-23T15:40:46Z</time>
      </trkpt>
      <trkpt lat="50.78947" lon="2.8782">
        <ele>67.3</ele>
        <time>2020-06-23T15:40:47Z</time>
      </trkpt>
      <trkpt lat="50.78942" lon="2.87824">
        <ele>67.4</ele>
        <time>2020-06-23T15:40:48Z</time>
      </trkpt>
      <trkpt lat="50.78938" lon="2.87828">
        <ele>67.4</ele>
        <time>2020-06-23T15:40:49Z</time>
      </trkpt>
      <trkpt lat="50.78933" lon="2.87832">
        <ele>67.5</ele>
        <time>2020-06-23T15:40:50Z</time>
      </trkpt>
      <trkpt lat="50.7893" lon="2.87836">
        <ele>67.5</ele>
        <time>2020-06-23T15:40:51Z</time>
      </trkpt>
      <trkpt lat="50.78925" lon="2.8784">
        <ele>67.6</ele>
        <time>2020-06-23T15:40:52Z</time>
      </trkpt>
      <trkpt lat="50.7892" lon="2.87844">
        <ele>67.7</ele>
        <time>2020-06-23T15:40:53Z</time>
      </trkpt>
      <trkpt lat="50.78915" lon="2.87849">
        <ele>67.7</ele>
        <time>2020-06-23T15:40:54Z</time>
      </trkpt>
      <trkpt lat="50.78911" lon="2.87855">
        <ele>67.8</ele>
        <time>2020-06-23T15:40:55Z</time>
      </trkpt>
      <trkpt lat="50.78905" lon="2.87858">
        <ele>67.9</ele>
        <time>2020-06-23T15:40:56Z</time>
      </trkpt>
      <trkpt lat="50.78901" lon="2.87862">
        <ele>67.9</ele>
        <time>2020-06-23T15:40:57Z</time>
      </trkpt>
      <trkpt lat="50.78896" lon="2.87866">
        <ele>68</ele>
        <time>2020-06-23T15:40:58Z</time>
      </trkpt>
      <trkpt lat="50.78892" lon="2.8787">
        <ele>68.1</ele>
        <time>2020-06-23T15:40:59Z</time>
      </trkpt>
      <trkpt lat="50.78887" lon="2.87874">
        <ele>68.2</ele>
        <time>2020-06-23T15:41:00Z</time>
      </trkpt>
      <trkpt lat="50.78883" lon="2.87878">
        <ele>68.3</ele>
        <time>2020-06-23T15:41:01Z</time>
      </trkpt>
      <trkpt lat="50.78879" lon="2.87883">
        <ele>68.4</ele>
        <time>2020-06-23T15:41:02Z</time>
      </trkpt>
      <trkpt lat="50.78875" lon="2.87888">
        <ele>68.5</ele>
        <time>2020-06-23T15:41:03Z</time>
      </trkpt>
      <trkpt lat="50.7887" lon="2.87894">
        <ele>68.7</ele>
        <time>2020-06-23T15:41:04Z</time>
      </trkpt>
      <trkpt lat="50.78865" lon="2.87899">
        <ele>68.8</ele>
        <time>2020-06-23T15:41:05Z</time>
      </trkpt>
      <trkpt lat="50.7886" lon="2.87905">
        <ele>68.9</ele>
        <time>2020-06-23T15:41:06Z</time>
      </trkpt>
      <trkpt lat="50.78855" lon="2.8791">
        <ele>69.1</ele>
        <time>2020-06-23T15:41:07Z</time>
      </trkpt>
      <trkpt lat="50.7885" lon="2.87916">
        <ele>69.3</ele>
        <time>2020-06-23T15:41:08Z</time>
      </trkpt>
      <trkpt lat="50.78846" lon="2.87922">
        <ele>69.4</ele>
        <time>2020-06-23T15:41:09Z</time>
      </trkpt>
      <trkpt lat="50.78841" lon="2.87927">
        <ele>69.6</ele>
        <time>2020-06-23T15:41:10Z</time>
      </trkpt>
      <trkpt lat="50.78837" lon="2.87932">
        <ele>69.7</ele>
        <time>2020-06-23T15:41:11Z</time>
      </trkpt>
      <trkpt lat="50.78832" lon="2.87938">
        <ele>69.9</ele>
        <time>2020-06-23T15:41:12Z</time>
      </trkpt>
      <trkpt lat="50.78828" lon="2.87942">
        <ele>70</ele>
        <time>2020-06-23T15:41:13Z</time>
      </trkpt>
      <trkpt lat="50.78825" lon="2.87948">
        <ele>70.1</ele>
        <time>2020-06-23T15:41:14Z</time>
      </trkpt>
      <trkpt lat="50.7882" lon="2.87954">
        <ele>70.2</ele>
        <time>2020-06-23T15:41:15Z</time>
      </trkpt>
      <trkpt lat="50.78816" lon="2.87959">
        <ele>70.3</ele>
        <time>2020-06-23T15:41:16Z</time>
      </trkpt>
      <trkpt lat="50.78811" lon="2.87964">
        <ele>70.3</ele>
        <time>2020-06-23T15:41:17Z</time>
      </trkpt>
      <trkpt lat="50.78806" lon="2.87969">
        <ele>70.4</ele>
        <time>2020-06-23T15:41:18Z</time>
      </trkpt>
      <trkpt lat="50.78802" lon="2.87974">
        <ele>70.4</ele>
        <time>2020-06-23T15:41:19Z</time>
      </trkpt>
      <trkpt lat="50.78797" lon="2.8798">
        <ele>70.5</ele>
        <time>2020-06-23T15:41:20Z</time>
      </trkpt>
      <trkpt lat="50.78792" lon="2.87984">
        <ele>70.5</ele>
        <time>2020-06-23T15:41:21Z</time>
      </trkpt>
      <trkpt lat="50.78789" lon="2.8799">
        <ele>70.6</ele>
        <time>2020-06-23T15:41:22Z</time>
      </trkpt>
      <trkpt lat="50.78786" lon="2.87995">
        <ele>70.7</ele>
        <time>2020-06-23T15:41:23Z</time>
      </trkpt>
      <trkpt lat="50.78782" lon="2.87999">
        <ele>70.7</ele>
        <time>2020-06-23T15:41:24Z</time>
      </trkpt>
      <trkpt lat="50.78778" lon="2.88004">
        <ele>70.7</ele>
        <time>2020-06-23T15:41:25Z</time>
      </trkpt>
      <trkpt lat="50.78775" lon="2.88007">
        <ele>70.8</ele>
        <time>2020-06-23T15:41:26Z</time>
      </trkpt>
      <trkpt lat="50.78771" lon="2.88012">
        <ele>70.8</ele>
        <time>2020-06-23T15:41:27Z</time>
      </trkpt>
      <trkpt lat="50.78768" lon="2.88019">
        <ele>70.8</ele>
        <time>2020-06-23T15:41:28Z</time>
      </trkpt>
      <trkpt lat="50.78765" lon="2.88024">
        <ele>70.8</ele>
        <time>2020-06-23T15:41:29Z</time>
      </trkpt>
      <trkpt lat="50.78762" lon="2.88029">
        <ele>70.8</ele>
        <time>2020-06-23T15:41:30Z</time>
      </trkpt>
      <trkpt lat="50.78758" lon="2.88034">
        <ele>70.9</ele>
        <time>2020-06-23T15:41:31Z</time>
      </trkpt>
      <trkpt lat="50.78753" lon="2.88038">
        <ele>70.9</ele>
        <time>2020-06-23T15:41:32Z</time>
      </trkpt>
      <trkpt lat="50.78748" lon="2.88043">
        <ele>71</ele>
        <time>2020-06-23T15:41:33Z</time>
      </trkpt>
      <trkpt lat="50.78743" lon="2.88048">
        <ele>71.1</ele>
        <time>2020-06-23T15:41:34Z</time>
      </trkpt>
      <trkpt lat="50.78738" lon="2.88052">
        <ele>71.2</ele>
        <time>2020-06-23T15:41:35Z</time>
      </trkpt>
      <trkpt lat="50.78735" lon="2.88057">
        <ele>71.3</ele>
        <time>2020-06-23T15:41:36Z</time>
      </trkpt>
      <trkpt lat="50.78731" lon="2.88062">
        <ele>71.4</ele>
        <time>2020-06-23T15:41:37Z</time>
      </trkpt>
      <trkpt lat="50.78727" lon="2.88066">
        <ele>71.5</ele>
        <time>2020-06-23T15:41:38Z</time>
      </trkpt>
      <trkpt lat="50.78724" lon="2.8807">
        <ele>71.7</ele>
        <time>2020-06-23T15:41:39Z</time>
      </trkpt>
      <trkpt lat="50.78721" lon="2.88074">
        <ele>71.8</ele>
        <time>2020-06-23T15:41:40Z</time>
      </trkpt>
      <trkpt lat="50.78717" lon="2.88078">
        <ele>72</ele>
        <time>2020-06-23T15:41:41Z</time>
      </trkpt>
      <trkpt lat="50.78713" lon="2.88082">
        <ele>72.2</ele>
        <time>2020-06-23T15:41:42Z</time>
      </trkpt>
      <trkpt lat="50.7871" lon="2.88087">
        <ele>72.4</ele>
        <time>2020-06-23T15:41:43Z</time>
      </trkpt>
      <trkpt lat="50.78705" lon="2.88092">
        <ele>72.6</ele>
        <time>2020-06-23T15:41:44Z</time>
      </trkpt>
      <trkpt lat="50.78698" lon="2.88097">
        <ele>73</ele>
        <time>2020-06-23T15:41:45Z</time>
      </trkpt>
      <trkpt lat="50.78692" lon="2.88102">
        <ele>73.3</ele>
        <time>2020-06-23T15:41:46Z</time>
      </trkpt>
      <trkpt lat="50.78688" lon="2.88106">
        <ele>73.5</ele>
        <time>2020-06-23T15:41:47Z</time>
      </trkpt>
      <trkpt lat="50.78683" lon="2.88111">
        <ele>73.8</ele>
        <time>2020-06-23T15:41:48Z</time>
      </trkpt>
      <trkpt lat="50.78679" lon="2.88114">
        <ele>74</ele>
        <time>2020-06-23T15:41:49Z</time>
      </trkpt>
      <trkpt lat="50.78676" lon="2.88116">
        <ele>74.1</ele>
        <time>2020-06-23T15:41:50Z</time>
      </trkpt>
      <trkpt lat="50.78673" lon="2.88118">
        <ele>74.3</ele>
        <time>2020-06-23T15:41:51Z</time>
      </trkpt>
      <trkpt lat="50.78669" lon="2.88121">
        <ele>74.5</ele>
        <time>2020-06-23T15:41:52Z</time>
      </trkpt>
      <trkpt lat="50.78666" lon="2.88126">
        <ele>74.7</ele>
        <time>2020-06-23T15:41:53Z</time>
      </trkpt>
      <trkpt lat="50.78662" lon="2.8813">
        <ele>74.9</ele>
        <time>2020-06-23T15:41:54Z</time>
      </trkpt>
      <trkpt lat="50.78658" lon="2.88133">
        <ele>75.1</ele>
        <time>2020-06-23T15:41:55Z</time>
      </trkpt>
      <trkpt lat="50.78655" lon="2.88137">
        <ele>75.3</ele>
        <time>2020-06-23T15:41:56Z</time>
      </trkpt>
      <trkpt lat="50.78651" lon="2.8814">
        <ele>75.5</ele>
        <time>2020-06-23T15:41:57Z</time>
      </trkpt>
      <trkpt lat="50.78648" lon="2.88142">
        <ele>75.7</ele>
        <time>2020-06-23T15:41:58Z</time>
      </trkpt>
      <trkpt lat="50.78644" lon="2.88145">
        <ele>76</ele>
        <time>2020-06-23T15:41:59Z</time>
      </trkpt>
      <trkpt lat="50.78639" lon="2.88147">
        <ele>76.2</ele>
        <time>2020-06-23T15:42:00Z</time>
      </trkpt>
      <trkpt lat="50.78636" lon="2.88149">
        <ele>76.4</ele>
        <time>2020-06-23T15:42:01Z</time>
      </trkpt>
      <trkpt lat="50.78633" lon="2.88151">
        <ele>76.8</ele>
        <time>2020-06-23T15:42:02Z</time>
      </trkpt>
      <trkpt lat="50.78629" lon="2.88156">
        <ele>76.9</ele>
        <time>2020-06-23T15:42:03Z</time>
      </trkpt>
      <trkpt lat="50.78625" lon="2.88159">
        <ele>76.9</ele>
        <time>2020-06-23T15:42:04Z</time>
      </trkpt>
      <trkpt lat="50.78621" lon="2.88161">
        <ele>77.2</ele>
        <time>2020-06-23T15:42:05Z</time>
      </trkpt>
      <trkpt lat="50.78617" lon="2.88163">
        <ele>77.4</ele>
        <time>2020-06-23T15:42:06Z</time>
      </trkpt>
      <trkpt lat="50.78613" lon="2.88165">
        <ele>77.7</ele>
        <time>2020-06-23T15:42:07Z</time>
      </trkpt>
      <trkpt lat="50.7861" lon="2.88167">
        <ele>78</ele>
        <time>2020-06-23T15:42:08Z</time>
      </trkpt>
      <trkpt lat="50.78606" lon="2.88168">
        <ele>78.2</ele>
        <time>2020-06-23T15:42:09Z</time>
      </trkpt>
      <trkpt lat="50.78604" lon="2.8817">
        <ele>78.4</ele>
        <time>2020-06-23T15:42:10Z</time>
      </trkpt>
      <trkpt lat="50.78602" lon="2.88171">
        <ele>78.5</ele>
        <time>2020-06-23T15:42:11Z</time>
      </trkpt>
      <trkpt lat="50.78599" lon="2.88175">
        <ele>78.7</ele>
        <time>2020-06-23T15:42:12Z</time>
      </trkpt>
      <trkpt lat="50.78596" lon="2.88177">
        <ele>79</ele>
        <time>2020-06-23T15:42:13Z</time>
      </trkpt>
      <trkpt lat="50.78592" lon="2.88179">
        <ele>79.2</ele>
        <time>2020-06-23T15:42:14Z</time>
      </trkpt>
      <trkpt lat="50.78589" lon="2.88181">
        <ele>79.4</ele>
        <time>2020-06-23T15:42:15Z</time>
      </trkpt>
      <trkpt lat="50.78585" lon="2.88181">
        <ele>79.7</ele>
        <time>2020-06-23T15:42:16Z</time>
      </trkpt>
      <trkpt lat="50.78583" lon="2.88181">
        <ele>79.8</ele>
        <time>2020-06-23T15:42:17Z</time>
      </trkpt>
      <trkpt lat="50.78582" lon="2.8818">
        <ele>79.9</ele>
        <time>2020-06-23T15:42:18Z</time>
      </trkpt>
      <trkpt lat="50.78578" lon="2.88181">
        <ele>80.2</ele>
        <time>2020-06-23T15:42:19Z</time>
      </trkpt>
      <trkpt lat="50.78575" lon="2.88181">
        <ele>80.2</ele>
        <time>2020-06-23T15:42:20Z</time>
      </trkpt>
      <trkpt lat="50.7857" lon="2.88184">
        <ele>80.2</ele>
        <time>2020-06-23T15:42:21Z</time>
      </trkpt>
      <trkpt lat="50.78566" lon="2.88187">
        <ele>80.3</ele>
        <time>2020-06-23T15:42:22Z</time>
      </trkpt>
      <trkpt lat="50.78561" lon="2.8819">
        <ele>80.3</ele>
        <time>2020-06-23T15:42:23Z</time>
      </trkpt>
      <trkpt lat="50.78557" lon="2.88193">
        <ele>80.3</ele>
        <time>2020-06-23T15:42:24Z</time>
      </trkpt>
      <trkpt lat="50.78552" lon="2.88195">
        <ele>80.4</ele>
        <time>2020-06-23T15:42:25Z</time>
      </trkpt>
      <trkpt lat="50.78547" lon="2.88194">
        <ele>80.4</ele>
        <time>2020-06-23T15:42:26Z</time>
      </trkpt>
      <trkpt lat="50.78542" lon="2.88195">
        <ele>80.5</ele>
        <time>2020-06-23T15:42:27Z</time>
      </trkpt>
      <trkpt lat="50.78538" lon="2.88197">
        <ele>80.5</ele>
        <time>2020-06-23T15:42:28Z</time>
      </trkpt>
      <trkpt lat="50.78536" lon="2.88201">
        <ele>80.5</ele>
        <time>2020-06-23T15:42:29Z</time>
      </trkpt>
      <trkpt lat="50.78534" lon="2.88204">
        <ele>80.5</ele>
        <time>2020-06-23T15:42:30Z</time>
      </trkpt>
      <trkpt lat="50.78533" lon="2.8821">
        <ele>80.6</ele>
        <time>2020-06-23T15:42:31Z</time>
      </trkpt>
      <trkpt lat="50.78533" lon="2.88217">
        <ele>80.5</ele>
        <time>2020-06-23T15:42:32Z</time>
      </trkpt>
      <trkpt lat="50.78535" lon="2.88225">
        <ele>80.3</ele>
        <time>2020-06-23T15:42:33Z</time>
      </trkpt>
      <trkpt lat="50.78536" lon="2.88233">
        <ele>80.2</ele>
        <time>2020-06-23T15:42:34Z</time>
      </trkpt>
      <trkpt lat="50.78538" lon="2.88241">
        <ele>80</ele>
        <time>2020-06-23T15:42:35Z</time>
      </trkpt>
      <trkpt lat="50.7854" lon="2.88247">
        <ele>79.9</ele>
        <time>2020-06-23T15:42:36Z</time>
      </trkpt>
      <trkpt lat="50.78541" lon="2.88253">
        <ele>79.8</ele>
        <time>2020-06-23T15:42:37Z</time>
      </trkpt>
      <trkpt lat="50.78543" lon="2.88262">
        <ele>79.6</ele>
        <time>2020-06-23T15:42:38Z</time>
      </trkpt>
      <trkpt lat="50.78545" lon="2.88271">
        <ele>79.5</ele>
        <time>2020-06-23T15:42:39Z</time>
      </trkpt>
      <trkpt lat="50.78546" lon="2.88277">
        <ele>79.4</ele>
        <time>2020-06-23T15:42:40Z</time>
      </trkpt>
      <trkpt lat="50.78547" lon="2.88283">
        <ele>79.3</ele>
        <time>2020-06-23T15:42:41Z</time>
      </trkpt>
      <trkpt lat="50.78548" lon="2.8829">
        <ele>79.2</ele>
        <time>2020-06-23T15:42:42Z</time>
      </trkpt>
      <trkpt lat="50.78549" lon="2.88297">
        <ele>79.1</ele>
        <time>2020-06-23T15:42:43Z</time>
      </trkpt>
      <trkpt lat="50.7855" lon="2.88304">
        <ele>79</ele>
        <time>2020-06-23T15:42:44Z</time>
      </trkpt>
      <trkpt lat="50.78552" lon="2.88313">
        <ele>78.9</ele>
        <time>2020-06-23T15:42:45Z</time>
      </trkpt>
      <trkpt lat="50.78553" lon="2.88322">
        <ele>78.7</ele>
        <time>2020-06-23T15:42:46Z</time>
      </trkpt>
      <trkpt lat="50.78555" lon="2.88328">
        <ele>78.7</ele>
        <time>2020-06-23T15:42:47Z</time>
      </trkpt>
      <trkpt lat="50.78557" lon="2.88335">
        <ele>78.5</ele>
        <time>2020-06-23T15:42:48Z</time>
      </trkpt>
      <trkpt lat="50.78558" lon="2.88342">
        <ele>78.4</ele>
        <time>2020-06-23T15:42:49Z</time>
      </trkpt>
      <trkpt lat="50.7856" lon="2.88351">
        <ele>78.3</ele>
        <time>2020-06-23T15:42:50Z</time>
      </trkpt>
      <trkpt lat="50.7856" lon="2.88359">
        <ele>78.1</ele>
        <time>2020-06-23T15:42:51Z</time>
      </trkpt>
      <trkpt lat="50.78559" lon="2.88366">
        <ele>77.9</ele>
        <time>2020-06-23T15:42:52Z</time>
      </trkpt>
      <trkpt lat="50.78559" lon="2.88372">
        <ele>77.7</ele>
        <time>2020-06-23T15:42:53Z</time>
      </trkpt>
      <trkpt lat="50.78558" lon="2.88378">
        <ele>77.5</ele>
        <time>2020-06-23T15:42:54Z</time>
      </trkpt>
      <trkpt lat="50.78556" lon="2.88387">
        <ele>77.2</ele>
        <time>2020-06-23T15:42:55Z</time>
      </trkpt>
      <trkpt lat="50.78553" lon="2.88394">
        <ele>77</ele>
        <time>2020-06-23T15:42:56Z</time>
      </trkpt>
      <trkpt lat="50.78553" lon="2.88404">
        <ele>76.7</ele>
        <time>2020-06-23T15:42:57Z</time>
      </trkpt>
      <trkpt lat="50.78551" lon="2.88413">
        <ele>76.4</ele>
        <time>2020-06-23T15:42:58Z</time>
      </trkpt>
      <trkpt lat="50.78549" lon="2.88422">
        <ele>76.1</ele>
        <time>2020-06-23T15:42:59Z</time>
      </trkpt>
      <trkpt lat="50.78547" lon="2.88433">
        <ele>75.8</ele>
        <time>2020-06-23T15:43:00Z</time>
      </trkpt>
      <trkpt lat="50.78545" lon="2.88445">
        <ele>75.5</ele>
        <time>2020-06-23T15:43:01Z</time>
      </trkpt>
      <trkpt lat="50.78544" lon="2.88453">
        <ele>75.3</ele>
        <time>2020-06-23T15:43:02Z</time>
      </trkpt>
      <trkpt lat="50.78541" lon="2.88461">
        <ele>75.1</ele>
        <time>2020-06-23T15:43:03Z</time>
      </trkpt>
      <trkpt lat="50.78537" lon="2.8847">
        <ele>74.9</ele>
        <time>2020-06-23T15:43:04Z</time>
      </trkpt>
      <trkpt lat="50.78534" lon="2.88478">
        <ele>74.7</ele>
        <time>2020-06-23T15:43:05Z</time>
      </trkpt>
      <trkpt lat="50.78531" lon="2.88487">
        <ele>74.5</ele>
        <time>2020-06-23T15:43:06Z</time>
      </trkpt>
      <trkpt lat="50.78529" lon="2.885">
        <ele>74.3</ele>
        <time>2020-06-23T15:43:07Z</time>
      </trkpt>
      <trkpt lat="50.78526" lon="2.88512">
        <ele>74</ele>
        <time>2020-06-23T15:43:08Z</time>
      </trkpt>
      <trkpt lat="50.78525" lon="2.88523">
        <ele>73.8</ele>
        <time>2020-06-23T15:43:09Z</time>
      </trkpt>
      <trkpt lat="50.78523" lon="2.88535">
        <ele>73.5</ele>
        <time>2020-06-23T15:43:10Z</time>
      </trkpt>
      <trkpt lat="50.78521" lon="2.88549">
        <ele>73.1</ele>
        <time>2020-06-23T15:43:11Z</time>
      </trkpt>
      <trkpt lat="50.78519" lon="2.88561">
        <ele>72.9</ele>
        <time>2020-06-23T15:43:12Z</time>
      </trkpt>
      <trkpt lat="50.78517" lon="2.88573">
        <ele>72.7</ele>
        <time>2020-06-23T15:43:13Z</time>
      </trkpt>
      <trkpt lat="50.78516" lon="2.88582">
        <ele>72.7</ele>
        <time>2020-06-23T15:43:14Z</time>
      </trkpt>
      <trkpt lat="50.78513" lon="2.88592">
        <ele>72.5</ele>
        <time>2020-06-23T15:43:15Z</time>
      </trkpt>
      <trkpt lat="50.78511" lon="2.88601">
        <ele>72.4</ele>
        <time>2020-06-23T15:43:16Z</time>
      </trkpt>
      <trkpt lat="50.78509" lon="2.88612">
        <ele>72.2</ele>
        <time>2020-06-23T15:43:17Z</time>
      </trkpt>
      <trkpt lat="50.78507" lon="2.88623">
        <ele>72</ele>
        <time>2020-06-23T15:43:18Z</time>
      </trkpt>
      <trkpt lat="50.78504" lon="2.88633">
        <ele>71.9</ele>
        <time>2020-06-23T15:43:19Z</time>
      </trkpt>
      <trkpt lat="50.78502" lon="2.88645">
        <ele>71.7</ele>
        <time>2020-06-23T15:43:20Z</time>
      </trkpt>
      <trkpt lat="50.785" lon="2.88655">
        <ele>71.5</ele>
        <time>2020-06-23T15:43:21Z</time>
      </trkpt>
      <trkpt lat="50.78498" lon="2.88663">
        <ele>71.4</ele>
        <time>2020-06-23T15:43:22Z</time>
      </trkpt>
      <trkpt lat="50.78495" lon="2.88672">
        <ele>71.3</ele>
        <time>2020-06-23T15:43:23Z</time>
      </trkpt>
      <trkpt lat="50.78494" lon="2.88677">
        <ele>71.2</ele>
        <time>2020-06-23T15:43:24Z</time>
      </trkpt>
      <trkpt lat="50.78493" lon="2.88682">
        <ele>71.2</ele>
        <time>2020-06-23T15:43:25Z</time>
      </trkpt>
      <trkpt lat="50.78493" lon="2.88687">
        <ele>71.2</ele>
        <time>2020-06-23T15:43:26Z</time>
      </trkpt>
      <trkpt lat="50.7849" lon="2.88691">
        <ele>71.1</ele>
        <time>2020-06-23T15:43:27Z</time>
      </trkpt>
      <trkpt lat="50.78489" lon="2.88693">
        <ele>71.1</ele>
        <time>2020-06-23T15:43:28Z</time>
      </trkpt>
      <trkpt lat="50.78487" lon="2.88696">
        <ele>71</ele>
        <time>2020-06-23T15:43:29Z</time>
      </trkpt>
      <trkpt lat="50.78482" lon="2.88695">
        <ele>70.9</ele>
        <time>2020-06-23T15:43:30Z</time>
      </trkpt>
      <trkpt lat="50.78476" lon="2.88694">
        <ele>70.7</ele>
        <time>2020-06-23T15:43:31Z</time>
      </trkpt>
      <trkpt lat="50.78468" lon="2.88694">
        <ele>70.5</ele>
        <time>2020-06-23T15:43:32Z</time>
      </trkpt>
      <trkpt lat="50.78461" lon="2.88693">
        <ele>70.3</ele>
        <time>2020-06-23T15:43:33Z</time>
      </trkpt>
      <trkpt lat="50.78455" lon="2.88694">
        <ele>70.1</ele>
        <time>2020-06-23T15:43:34Z</time>
      </trkpt>
      <trkpt lat="50.78449" lon="2.88695">
        <ele>69.9</ele>
        <time>2020-06-23T15:43:35Z</time>
      </trkpt>
      <trkpt lat="50.78443" lon="2.88696">
        <ele>69.7</ele>
        <time>2020-06-23T15:43:36Z</time>
      </trkpt>
      <trkpt lat="50.78436" lon="2.88698">
        <ele>69.6</ele>
        <time>2020-06-23T15:43:37Z</time>
      </trkpt>
      <trkpt lat="50.7843" lon="2.88699">
        <ele>69.4</ele>
        <time>2020-06-23T15:43:38Z</time>
      </trkpt>
      <trkpt lat="50.78423" lon="2.887">
        <ele>69.3</ele>
        <time>2020-06-23T15:43:39Z</time>
      </trkpt>
      <trkpt lat="50.78416" lon="2.88701">
        <ele>69.2</ele>
        <time>2020-06-23T15:43:40Z</time>
      </trkpt>
      <trkpt lat="50.7841" lon="2.88704">
        <ele>69</ele>
        <time>2020-06-23T15:43:41Z</time>
      </trkpt>
      <trkpt lat="50.78403" lon="2.88707">
        <ele>68.8</ele>
        <time>2020-06-23T15:43:42Z</time>
      </trkpt>
      <trkpt lat="50.78397" lon="2.88708">
        <ele>68.7</ele>
        <time>2020-06-23T15:43:43Z</time>
      </trkpt>
      <trkpt lat="50.7839" lon="2.8871">
        <ele>68.5</ele>
        <time>2020-06-23T15:43:44Z</time>
      </trkpt>
      <trkpt lat="50.78383" lon="2.88711">
        <ele>68.4</ele>
        <time>2020-06-23T15:43:45Z</time>
      </trkpt>
      <trkpt lat="50.78376" lon="2.88712">
        <ele>68.3</ele>
        <time>2020-06-23T15:43:46Z</time>
      </trkpt>
      <trkpt lat="50.7837" lon="2.88713">
        <ele>68.2</ele>
        <time>2020-06-23T15:43:47Z</time>
      </trkpt>
      <trkpt lat="50.78364" lon="2.88715">
        <ele>68.1</ele>
        <time>2020-06-23T15:43:48Z</time>
      </trkpt>
      <trkpt lat="50.78357" lon="2.88716">
        <ele>68.1</ele>
        <time>2020-06-23T15:43:49Z</time>
      </trkpt>
      <trkpt lat="50.78351" lon="2.88718">
        <ele>68</ele>
        <time>2020-06-23T15:43:50Z</time>
      </trkpt>
      <trkpt lat="50.78344" lon="2.88721">
        <ele>67.9</ele>
        <time>2020-06-23T15:43:51Z</time>
      </trkpt>
      <trkpt lat="50.78338" lon="2.88723">
        <ele>67.8</ele>
        <time>2020-06-23T15:43:52Z</time>
      </trkpt>
      <trkpt lat="50.78332" lon="2.88726">
        <ele>67.7</ele>
        <time>2020-06-23T15:43:53Z</time>
      </trkpt>
      <trkpt lat="50.78325" lon="2.88728">
        <ele>67.7</ele>
        <time>2020-06-23T15:43:54Z</time>
      </trkpt>
      <trkpt lat="50.78318" lon="2.88731">
        <ele>67.6</ele>
        <time>2020-06-23T15:43:55Z</time>
      </trkpt>
      <trkpt lat="50.78312" lon="2.88732">
        <ele>67.5</ele>
        <time>2020-06-23T15:43:56Z</time>
      </trkpt>
      <trkpt lat="50.78305" lon="2.88734">
        <ele>67.4</ele>
        <time>2020-06-23T15:43:57Z</time>
      </trkpt>
      <trkpt lat="50.78298" lon="2.88736">
        <ele>67.3</ele>
        <time>2020-06-23T15:43:58Z</time>
      </trkpt>
      <trkpt lat="50.78292" lon="2.88738">
        <ele>67.3</ele>
        <time>2020-06-23T15:43:59Z</time>
      </trkpt>
      <trkpt lat="50.78285" lon="2.88741">
        <ele>67.2</ele>
        <time>2020-06-23T15:44:00Z</time>
      </trkpt>
      <trkpt lat="50.78279" lon="2.88743">
        <ele>67.2</ele>
        <time>2020-06-23T15:44:01Z</time>
      </trkpt>
      <trkpt lat="50.78272" lon="2.88745">
        <ele>67.1</ele>
        <time>2020-06-23T15:44:02Z</time>
      </trkpt>
      <trkpt lat="50.78266" lon="2.88746">
        <ele>67.1</ele>
        <time>2020-06-23T15:44:03Z</time>
      </trkpt>
      <trkpt lat="50.7826" lon="2.88747">
        <ele>67</ele>
        <time>2020-06-23T15:44:04Z</time>
      </trkpt>
      <trkpt lat="50.78254" lon="2.88748">
        <ele>67</ele>
        <time>2020-06-23T15:44:05Z</time>
      </trkpt>
      <trkpt lat="50.78249" lon="2.88747">
        <ele>66.9</ele>
        <time>2020-06-23T15:44:06Z</time>
      </trkpt>
      <trkpt lat="50.78244" lon="2.88747">
        <ele>66.9</ele>
        <time>2020-06-23T15:44:07Z</time>
      </trkpt>
      <trkpt lat="50.78239" lon="2.8875">
        <ele>66.8</ele>
        <time>2020-06-23T15:44:08Z</time>
      </trkpt>
      <trkpt lat="50.78233" lon="2.88753">
        <ele>66.7</ele>
        <time>2020-06-23T15:44:09Z</time>
      </trkpt>
      <trkpt lat="50.78226" lon="2.88754">
        <ele>66.6</ele>
        <time>2020-06-23T15:44:10Z</time>
      </trkpt>
      <trkpt lat="50.7822" lon="2.88755">
        <ele>66.6</ele>
        <time>2020-06-23T15:44:11Z</time>
      </trkpt>
      <trkpt lat="50.78213" lon="2.88757">
        <ele>66.5</ele>
        <time>2020-06-23T15:44:12Z</time>
      </trkpt>
      <trkpt lat="50.78207" lon="2.88759">
        <ele>66.4</ele>
        <time>2020-06-23T15:44:13Z</time>
      </trkpt>
      <trkpt lat="50.782" lon="2.8876">
        <ele>66.3</ele>
        <time>2020-06-23T15:44:14Z</time>
      </trkpt>
      <trkpt lat="50.78193" lon="2.88762">
        <ele>66.2</ele>
        <time>2020-06-23T15:44:15Z</time>
      </trkpt>
      <trkpt lat="50.78186" lon="2.88763">
        <ele>66.1</ele>
        <time>2020-06-23T15:44:16Z</time>
      </trkpt>
      <trkpt lat="50.78179" lon="2.88765">
        <ele>66.1</ele>
        <time>2020-06-23T15:44:17Z</time>
      </trkpt>
      <trkpt lat="50.78172" lon="2.88767">
        <ele>66.1</ele>
        <time>2020-06-23T15:44:18Z</time>
      </trkpt>
      <trkpt lat="50.78165" lon="2.88769">
        <ele>66.1</ele>
        <time>2020-06-23T15:44:19Z</time>
      </trkpt>
      <trkpt lat="50.78158" lon="2.88772">
        <ele>66</ele>
        <time>2020-06-23T15:44:20Z</time>
      </trkpt>
      <trkpt lat="50.78152" lon="2.88777">
        <ele>65.9</ele>
        <time>2020-06-23T15:44:21Z</time>
      </trkpt>
      <trkpt lat="50.78145" lon="2.88782">
        <ele>65.9</ele>
        <time>2020-06-23T15:44:22Z</time>
      </trkpt>
      <trkpt lat="50.78138" lon="2.88786">
        <ele>65.8</ele>
        <time>2020-06-23T15:44:23Z</time>
      </trkpt>
      <trkpt lat="50.78132" lon="2.88792">
        <ele>65.7</ele>
        <time>2020-06-23T15:44:24Z</time>
      </trkpt>
      <trkpt lat="50.78125" lon="2.88798">
        <ele>65.7</ele>
        <time>2020-06-23T15:44:25Z</time>
      </trkpt>
      <trkpt lat="50.78119" lon="2.88803">
        <ele>65.6</ele>
        <time>2020-06-23T15:44:26Z</time>
      </trkpt>
      <trkpt lat="50.78113" lon="2.88808">
        <ele>65.6</ele>
        <time>2020-06-23T15:44:27Z</time>
      </trkpt>
      <trkpt lat="50.78107" lon="2.88811">
        <ele>65.7</ele>
        <time>2020-06-23T15:44:28Z</time>
      </trkpt>
      <trkpt lat="50.78101" lon="2.88815">
        <ele>65.7</ele>
        <time>2020-06-23T15:44:29Z</time>
      </trkpt>
      <trkpt lat="50.78095" lon="2.88818">
        <ele>65.7</ele>
        <time>2020-06-23T15:44:30Z</time>
      </trkpt>
      <trkpt lat="50.78089" lon="2.88821">
        <ele>65.7</ele>
        <time>2020-06-23T15:44:31Z</time>
      </trkpt>
      <trkpt lat="50.78083" lon="2.88823">
        <ele>65.6</ele>
        <time>2020-06-23T15:44:32Z</time>
      </trkpt>
      <trkpt lat="50.78077" lon="2.88826">
        <ele>65.6</ele>
        <time>2020-06-23T15:44:33Z</time>
      </trkpt>
      <trkpt lat="50.78071" lon="2.88828">
        <ele>65.5</ele>
        <time>2020-06-23T15:44:34Z</time>
      </trkpt>
      <trkpt lat="50.78065" lon="2.88832">
        <ele>65.5</ele>
        <time>2020-06-23T15:44:35Z</time>
      </trkpt>
      <trkpt lat="50.78059" lon="2.88836">
        <ele>65.4</ele>
        <time>2020-06-23T15:44:36Z</time>
      </trkpt>
      <trkpt lat="50.78052" lon="2.8884">
        <ele>65.4</ele>
        <time>2020-06-23T15:44:37Z</time>
      </trkpt>
      <trkpt lat="50.78045" lon="2.88843">
        <ele>65.4</ele>
        <time>2020-06-23T15:44:38Z</time>
      </trkpt>
      <trkpt lat="50.78039" lon="2.88846">
        <ele>65.4</ele>
        <time>2020-06-23T15:44:39Z</time>
      </trkpt>
      <trkpt lat="50.78033" lon="2.8885">
        <ele>65.5</ele>
        <time>2020-06-23T15:44:40Z</time>
      </trkpt>
      <trkpt lat="50.78027" lon="2.88854">
        <ele>65.5</ele>
        <time>2020-06-23T15:44:41Z</time>
      </trkpt>
      <trkpt lat="50.78021" lon="2.88859">
        <ele>65.5</ele>
        <time>2020-06-23T15:44:42Z</time>
      </trkpt>
      <trkpt lat="50.78014" lon="2.88862">
        <ele>65.5</ele>
        <time>2020-06-23T15:44:43Z</time>
      </trkpt>
      <trkpt lat="50.78007" lon="2.88865">
        <ele>65.5</ele>
        <time>2020-06-23T15:44:44Z</time>
      </trkpt>
      <trkpt lat="50.78001" lon="2.88868">
        <ele>65.5</ele>
        <time>2020-06-23T15:44:45Z</time>
      </trkpt>
      <trkpt lat="50.77995" lon="2.88872">
        <ele>65.5</ele>
        <time>2020-06-23T15:44:46Z</time>
      </trkpt>
      <trkpt lat="50.77988" lon="2.88876">
        <ele>65.5</ele>
        <time>2020-06-23T15:44:47Z</time>
      </trkpt>
      <trkpt lat="50.77982" lon="2.88879">
        <ele>65.5</ele>
        <time>2020-06-23T15:44:48Z</time>
      </trkpt>
      <trkpt lat="50.77976" lon="2.88881">
        <ele>65.6</ele>
        <time>2020-06-23T15:44:49Z</time>
      </trkpt>
      <trkpt lat="50.77971" lon="2.88886">
        <ele>65.6</ele>
        <time>2020-06-23T15:44:50Z</time>
      </trkpt>
      <trkpt lat="50.77965" lon="2.8889">
        <ele>65.6</ele>
        <time>2020-06-23T15:44:51Z</time>
      </trkpt>
      <trkpt lat="50.77959" lon="2.88893">
        <ele>65.6</ele>
        <time>2020-06-23T15:44:52Z</time>
      </trkpt>
      <trkpt lat="50.77952" lon="2.88894">
        <ele>65.6</ele>
        <time>2020-06-23T15:44:53Z</time>
      </trkpt>
      <trkpt lat="50.77946" lon="2.88898">
        <ele>65.6</ele>
        <time>2020-06-23T15:44:54Z</time>
      </trkpt>
      <trkpt lat="50.7794" lon="2.88901">
        <ele>65.6</ele>
        <time>2020-06-23T15:44:55Z</time>
      </trkpt>
      <trkpt lat="50.77933" lon="2.88903">
        <ele>65.6</ele>
        <time>2020-06-23T15:44:56Z</time>
      </trkpt>
      <trkpt lat="50.77927" lon="2.88906">
        <ele>65.5</ele>
        <time>2020-06-23T15:44:57Z</time>
      </trkpt>
      <trkpt lat="50.7792" lon="2.88909">
        <ele>65.5</ele>
        <time>2020-06-23T15:44:58Z</time>
      </trkpt>
      <trkpt lat="50.77914" lon="2.88913">
        <ele>65.5</ele>
        <time>2020-06-23T15:44:59Z</time>
      </trkpt>
      <trkpt lat="50.77908" lon="2.88916">
        <ele>65.4</ele>
        <time>2020-06-23T15:45:00Z</time>
      </trkpt>
      <trkpt lat="50.77902" lon="2.8892">
        <ele>65.4</ele>
        <time>2020-06-23T15:45:01Z</time>
      </trkpt>
      <trkpt lat="50.77896" lon="2.88925">
        <ele>65.4</ele>
        <time>2020-06-23T15:45:02Z</time>
      </trkpt>
      <trkpt lat="50.77891" lon="2.8893">
        <ele>65.4</ele>
        <time>2020-06-23T15:45:03Z</time>
      </trkpt>
      <trkpt lat="50.77885" lon="2.88935">
        <ele>65.4</ele>
        <time>2020-06-23T15:45:04Z</time>
      </trkpt>
      <trkpt lat="50.77879" lon="2.8894">
        <ele>65.3</ele>
        <time>2020-06-23T15:45:05Z</time>
      </trkpt>
      <trkpt lat="50.77872" lon="2.88944">
        <ele>65.3</ele>
        <time>2020-06-23T15:45:06Z</time>
      </trkpt>
      <trkpt lat="50.77866" lon="2.88948">
        <ele>65.2</ele>
        <time>2020-06-23T15:45:07Z</time>
      </trkpt>
      <trkpt lat="50.77859" lon="2.88952">
        <ele>65.2</ele>
        <time>2020-06-23T15:45:08Z</time>
      </trkpt>
      <trkpt lat="50.77853" lon="2.88955">
        <ele>65.1</ele>
        <time>2020-06-23T15:45:09Z</time>
      </trkpt>
      <trkpt lat="50.77846" lon="2.8896">
        <ele>65.1</ele>
        <time>2020-06-23T15:45:10Z</time>
      </trkpt>
      <trkpt lat="50.7784" lon="2.88964">
        <ele>65</ele>
        <time>2020-06-23T15:45:11Z</time>
      </trkpt>
      <trkpt lat="50.77833" lon="2.88969">
        <ele>64.9</ele>
        <time>2020-06-23T15:45:12Z</time>
      </trkpt>
      <trkpt lat="50.77826" lon="2.88972">
        <ele>64.9</ele>
        <time>2020-06-23T15:45:13Z</time>
      </trkpt>
      <trkpt lat="50.77819" lon="2.88976">
        <ele>64.9</ele>
        <time>2020-06-23T15:45:14Z</time>
      </trkpt>
      <trkpt lat="50.77812" lon="2.8898">
        <ele>64.9</ele>
        <time>2020-06-23T15:45:15Z</time>
      </trkpt>
      <trkpt lat="50.77805" lon="2.88984">
        <ele>64.8</ele>
        <time>2020-06-23T15:45:16Z</time>
      </trkpt>
      <trkpt lat="50.77799" lon="2.88988">
        <ele>64.8</ele>
        <time>2020-06-23T15:45:17Z</time>
      </trkpt>
      <trkpt lat="50.77792" lon="2.88992">
        <ele>64.8</ele>
        <time>2020-06-23T15:45:18Z</time>
      </trkpt>
      <trkpt lat="50.77785" lon="2.88996">
        <ele>64.8</ele>
        <time>2020-06-23T15:45:19Z</time>
      </trkpt>
      <trkpt lat="50.77779" lon="2.89">
        <ele>64.8</ele>
        <time>2020-06-23T15:45:20Z</time>
      </trkpt>
      <trkpt lat="50.77772" lon="2.89003">
        <ele>64.8</ele>
        <time>2020-06-23T15:45:21Z</time>
      </trkpt>
      <trkpt lat="50.77766" lon="2.89008">
        <ele>64.8</ele>
        <time>2020-06-23T15:45:22Z</time>
      </trkpt>
      <trkpt lat="50.7776" lon="2.89011">
        <ele>64.8</ele>
        <time>2020-06-23T15:45:23Z</time>
      </trkpt>
      <trkpt lat="50.77753" lon="2.89016">
        <ele>64.8</ele>
        <time>2020-06-23T15:45:24Z</time>
      </trkpt>
      <trkpt lat="50.77747" lon="2.8902">
        <ele>64.8</ele>
        <time>2020-06-23T15:45:25Z</time>
      </trkpt>
      <trkpt lat="50.77741" lon="2.89023">
        <ele>64.8</ele>
        <time>2020-06-23T15:45:26Z</time>
      </trkpt>
      <trkpt lat="50.77734" lon="2.89027">
        <ele>64.7</ele>
        <time>2020-06-23T15:45:27Z</time>
      </trkpt>
      <trkpt lat="50.77728" lon="2.89031">
        <ele>64.7</ele>
        <time>2020-06-23T15:45:28Z</time>
      </trkpt>
      <trkpt lat="50.77722" lon="2.89035">
        <ele>64.7</ele>
        <time>2020-06-23T15:45:29Z</time>
      </trkpt>
      <trkpt lat="50.77715" lon="2.89039">
        <ele>64.7</ele>
        <time>2020-06-23T15:45:30Z</time>
      </trkpt>
      <trkpt lat="50.77709" lon="2.89042">
        <ele>64.7</ele>
        <time>2020-06-23T15:45:31Z</time>
      </trkpt>
      <trkpt lat="50.77702" lon="2.89046">
        <ele>64.7</ele>
        <time>2020-06-23T15:45:32Z</time>
      </trkpt>
      <trkpt lat="50.77696" lon="2.8905">
        <ele>64.7</ele>
        <time>2020-06-23T15:45:33Z</time>
      </trkpt>
      <trkpt lat="50.7769" lon="2.89054">
        <ele>64.6</ele>
        <time>2020-06-23T15:45:34Z</time>
      </trkpt>
      <trkpt lat="50.77684" lon="2.89058">
        <ele>64.6</ele>
        <time>2020-06-23T15:45:35Z</time>
      </trkpt>
      <trkpt lat="50.77678" lon="2.89061">
        <ele>64.6</ele>
        <time>2020-06-23T15:45:36Z</time>
      </trkpt>
      <trkpt lat="50.77672" lon="2.89064">
        <ele>64.6</ele>
        <time>2020-06-23T15:45:37Z</time>
      </trkpt>
      <trkpt lat="50.77665" lon="2.89068">
        <ele>64.6</ele>
        <time>2020-06-23T15:45:38Z</time>
      </trkpt>
      <trkpt lat="50.77659" lon="2.89071">
        <ele>64.6</ele>
        <time>2020-06-23T15:45:39Z</time>
      </trkpt>
      <trkpt lat="50.77652" lon="2.89075">
        <ele>64.5</ele>
        <time>2020-06-23T15:45:40Z</time>
      </trkpt>
      <trkpt lat="50.77646" lon="2.89078">
        <ele>64.5</ele>
        <time>2020-06-23T15:45:41Z</time>
      </trkpt>
      <trkpt lat="50.7764" lon="2.89082">
        <ele>64.5</ele>
        <time>2020-06-23T15:45:42Z</time>
      </trkpt>
      <trkpt lat="50.77634" lon="2.89086">
        <ele>64.5</ele>
        <time>2020-06-23T15:45:43Z</time>
      </trkpt>
      <trkpt lat="50.77627" lon="2.8909">
        <ele>64.5</ele>
        <time>2020-06-23T15:45:44Z</time>
      </trkpt>
      <trkpt lat="50.7762" lon="2.89094">
        <ele>64.4</ele>
        <time>2020-06-23T15:45:45Z</time>
      </trkpt>
      <trkpt lat="50.77613" lon="2.89098">
        <ele>64.4</ele>
        <time>2020-06-23T15:45:46Z</time>
      </trkpt>
      <trkpt lat="50.77607" lon="2.89102">
        <ele>64.4</ele>
        <time>2020-06-23T15:45:47Z</time>
      </trkpt>
      <trkpt lat="50.776" lon="2.89106">
        <ele>64.3</ele>
        <time>2020-06-23T15:45:48Z</time>
      </trkpt>
      <trkpt lat="50.77594" lon="2.8911">
        <ele>64.3</ele>
        <time>2020-06-23T15:45:49Z</time>
      </trkpt>
      <trkpt lat="50.77587" lon="2.89114">
        <ele>64.2</ele>
        <time>2020-06-23T15:45:50Z</time>
      </trkpt>
      <trkpt lat="50.7758" lon="2.89117">
        <ele>64.2</ele>
        <time>2020-06-23T15:45:51Z</time>
      </trkpt>
      <trkpt lat="50.77574" lon="2.89121">
        <ele>64.1</ele>
        <time>2020-06-23T15:45:52Z</time>
      </trkpt>
      <trkpt lat="50.77567" lon="2.89124">
        <ele>64.1</ele>
        <time>2020-06-23T15:45:53Z</time>
      </trkpt>
      <trkpt lat="50.7756" lon="2.89128">
        <ele>64</ele>
        <time>2020-06-23T15:45:54Z</time>
      </trkpt>
      <trkpt lat="50.77553" lon="2.89132">
        <ele>64.1</ele>
        <time>2020-06-23T15:45:55Z</time>
      </trkpt>
      <trkpt lat="50.77547" lon="2.89136">
        <ele>64.2</ele>
        <time>2020-06-23T15:45:56Z</time>
      </trkpt>
      <trkpt lat="50.7754" lon="2.8914">
        <ele>64.1</ele>
        <time>2020-06-23T15:45:57Z</time>
      </trkpt>
      <trkpt lat="50.77533" lon="2.89144">
        <ele>63.8</ele>
        <time>2020-06-23T15:45:58Z</time>
      </trkpt>
      <trkpt lat="50.77526" lon="2.89147">
        <ele>63.6</ele>
        <time>2020-06-23T15:45:59Z</time>
      </trkpt>
      <trkpt lat="50.77519" lon="2.89152">
        <ele>63.4</ele>
        <time>2020-06-23T15:46:00Z</time>
      </trkpt>
      <trkpt lat="50.77512" lon="2.89156">
        <ele>63.3</ele>
        <time>2020-06-23T15:46:01Z</time>
      </trkpt>
      <trkpt lat="50.77505" lon="2.8916">
        <ele>63.2</ele>
        <time>2020-06-23T15:46:02Z</time>
      </trkpt>
      <trkpt lat="50.77498" lon="2.89164">
        <ele>63.1</ele>
        <time>2020-06-23T15:46:03Z</time>
      </trkpt>
      <trkpt lat="50.77491" lon="2.89167">
        <ele>63</ele>
        <time>2020-06-23T15:46:04Z</time>
      </trkpt>
      <trkpt lat="50.77484" lon="2.89171">
        <ele>62.9</ele>
        <time>2020-06-23T15:46:05Z</time>
      </trkpt>
      <trkpt lat="50.77477" lon="2.89174">
        <ele>62.9</ele>
        <time>2020-06-23T15:46:06Z</time>
      </trkpt>
      <trkpt lat="50.7747" lon="2.89177">
        <ele>62.9</ele>
        <time>2020-06-23T15:46:07Z</time>
      </trkpt>
      <trkpt lat="50.77463" lon="2.89181">
        <ele>62.8</ele>
        <time>2020-06-23T15:46:08Z</time>
      </trkpt>
      <trkpt lat="50.77456" lon="2.89184">
        <ele>62.9</ele>
        <time>2020-06-23T15:46:09Z</time>
      </trkpt>
      <trkpt lat="50.77449" lon="2.89188">
        <ele>62.9</ele>
        <time>2020-06-23T15:46:10Z</time>
      </trkpt>
      <trkpt lat="50.77443" lon="2.89192">
        <ele>62.9</ele>
        <time>2020-06-23T15:46:11Z</time>
      </trkpt>
      <trkpt lat="50.77436" lon="2.89195">
        <ele>63</ele>
        <time>2020-06-23T15:46:12Z</time>
      </trkpt>
      <trkpt lat="50.7743" lon="2.89198">
        <ele>63</ele>
        <time>2020-06-23T15:46:13Z</time>
      </trkpt>
      <trkpt lat="50.77423" lon="2.89201">
        <ele>63</ele>
        <time>2020-06-23T15:46:14Z</time>
      </trkpt>
      <trkpt lat="50.77416" lon="2.89204">
        <ele>63</ele>
        <time>2020-06-23T15:46:15Z</time>
      </trkpt>
      <trkpt lat="50.7741" lon="2.89207">
        <ele>63</ele>
        <time>2020-06-23T15:46:16Z</time>
      </trkpt>
      <trkpt lat="50.77403" lon="2.89211">
        <ele>63</ele>
        <time>2020-06-23T15:46:17Z</time>
      </trkpt>
      <trkpt lat="50.77397" lon="2.89215">
        <ele>63</ele>
        <time>2020-06-23T15:46:18Z</time>
      </trkpt>
      <trkpt lat="50.7739" lon="2.89218">
        <ele>63</ele>
        <time>2020-06-23T15:46:19Z</time>
      </trkpt>
      <trkpt lat="50.77383" lon="2.89222">
        <ele>63</ele>
        <time>2020-06-23T15:46:20Z</time>
      </trkpt>
      <trkpt lat="50.77377" lon="2.89226">
        <ele>62.9</ele>
        <time>2020-06-23T15:46:21Z</time>
      </trkpt>
      <trkpt lat="50.77371" lon="2.89232">
        <ele>62.8</ele>
        <time>2020-06-23T15:46:22Z</time>
      </trkpt>
      <trkpt lat="50.77364" lon="2.89236">
        <ele>62.7</ele>
        <time>2020-06-23T15:46:23Z</time>
      </trkpt>
      <trkpt lat="50.77358" lon="2.8924">
        <ele>62.6</ele>
        <time>2020-06-23T15:46:24Z</time>
      </trkpt>
      <trkpt lat="50.77351" lon="2.89244">
        <ele>62.5</ele>
        <time>2020-06-23T15:46:25Z</time>
      </trkpt>
      <trkpt lat="50.77345" lon="2.89249">
        <ele>62.4</ele>
        <time>2020-06-23T15:46:26Z</time>
      </trkpt>
      <trkpt lat="50.77338" lon="2.89253">
        <ele>62.3</ele>
        <time>2020-06-23T15:46:27Z</time>
      </trkpt>
      <trkpt lat="50.77332" lon="2.89257">
        <ele>62.3</ele>
        <time>2020-06-23T15:46:28Z</time>
      </trkpt>
      <trkpt lat="50.77325" lon="2.89261">
        <ele>62.2</ele>
        <time>2020-06-23T15:46:29Z</time>
      </trkpt>
      <trkpt lat="50.77318" lon="2.89265">
        <ele>62.2</ele>
        <time>2020-06-23T15:46:30Z</time>
      </trkpt>
      <trkpt lat="50.77311" lon="2.89269">
        <ele>62.1</ele>
        <time>2020-06-23T15:46:31Z</time>
      </trkpt>
      <trkpt lat="50.77304" lon="2.89273">
        <ele>62</ele>
        <time>2020-06-23T15:46:32Z</time>
      </trkpt>
      <trkpt lat="50.77297" lon="2.89277">
        <ele>62</ele>
        <time>2020-06-23T15:46:33Z</time>
      </trkpt>
      <trkpt lat="50.7729" lon="2.89282">
        <ele>61.9</ele>
        <time>2020-06-23T15:46:34Z</time>
      </trkpt>
      <trkpt lat="50.77283" lon="2.89286">
        <ele>61.8</ele>
        <time>2020-06-23T15:46:35Z</time>
      </trkpt>
      <trkpt lat="50.77276" lon="2.8929">
        <ele>61.7</ele>
        <time>2020-06-23T15:46:36Z</time>
      </trkpt>
      <trkpt lat="50.77269" lon="2.89295">
        <ele>61.7</ele>
        <time>2020-06-23T15:46:37Z</time>
      </trkpt>
      <trkpt lat="50.77261" lon="2.89299">
        <ele>61.7</ele>
        <time>2020-06-23T15:46:38Z</time>
      </trkpt>
      <trkpt lat="50.77254" lon="2.89303">
        <ele>61.6</ele>
        <time>2020-06-23T15:46:39Z</time>
      </trkpt>
      <trkpt lat="50.77247" lon="2.89308">
        <ele>61.6</ele>
        <time>2020-06-23T15:46:40Z</time>
      </trkpt>
      <trkpt lat="50.7724" lon="2.89312">
        <ele>61.5</ele>
        <time>2020-06-23T15:46:41Z</time>
      </trkpt>
      <trkpt lat="50.77233" lon="2.89316">
        <ele>61.5</ele>
        <time>2020-06-23T15:46:42Z</time>
      </trkpt>
      <trkpt lat="50.77226" lon="2.89321">
        <ele>61.5</ele>
        <time>2020-06-23T15:46:43Z</time>
      </trkpt>
      <trkpt lat="50.77219" lon="2.89325">
        <ele>61.5</ele>
        <time>2020-06-23T15:46:44Z</time>
      </trkpt>
      <trkpt lat="50.77212" lon="2.8933">
        <ele>61.5</ele>
        <time>2020-06-23T15:46:45Z</time>
      </trkpt>
      <trkpt lat="50.77205" lon="2.89334">
        <ele>61.4</ele>
        <time>2020-06-23T15:46:46Z</time>
      </trkpt>
      <trkpt lat="50.77198" lon="2.89339">
        <ele>61.3</ele>
        <time>2020-06-23T15:46:47Z</time>
      </trkpt>
      <trkpt lat="50.77191" lon="2.89343">
        <ele>61.3</ele>
        <time>2020-06-23T15:46:48Z</time>
      </trkpt>
      <trkpt lat="50.77184" lon="2.89347">
        <ele>61.2</ele>
        <time>2020-06-23T15:46:49Z</time>
      </trkpt>
      <trkpt lat="50.77177" lon="2.89352">
        <ele>61.2</ele>
        <time>2020-06-23T15:46:50Z</time>
      </trkpt>
      <trkpt lat="50.7717" lon="2.89357">
        <ele>61.2</ele>
        <time>2020-06-23T15:46:51Z</time>
      </trkpt>
      <trkpt lat="50.77163" lon="2.89361">
        <ele>61.2</ele>
        <time>2020-06-23T15:46:52Z</time>
      </trkpt>
      <trkpt lat="50.77156" lon="2.89366">
        <ele>61.1</ele>
        <time>2020-06-23T15:46:53Z</time>
      </trkpt>
      <trkpt lat="50.77149" lon="2.8937">
        <ele>61.1</ele>
        <time>2020-06-23T15:46:54Z</time>
      </trkpt>
      <trkpt lat="50.77142" lon="2.89374">
        <ele>61</ele>
        <time>2020-06-23T15:46:55Z</time>
      </trkpt>
      <trkpt lat="50.77135" lon="2.89378">
        <ele>61</ele>
        <time>2020-06-23T15:46:56Z</time>
      </trkpt>
      <trkpt lat="50.77129" lon="2.89383">
        <ele>61</ele>
        <time>2020-06-23T15:46:57Z</time>
      </trkpt>
      <trkpt lat="50.77123" lon="2.89386">
        <ele>61</ele>
        <time>2020-06-23T15:46:58Z</time>
      </trkpt>
      <trkpt lat="50.77116" lon="2.8939">
        <ele>61</ele>
        <time>2020-06-23T15:46:59Z</time>
      </trkpt>
      <trkpt lat="50.77109" lon="2.89394">
        <ele>61</ele>
        <time>2020-06-23T15:47:00Z</time>
      </trkpt>
      <trkpt lat="50.77102" lon="2.89399">
        <ele>61</ele>
        <time>2020-06-23T15:47:01Z</time>
      </trkpt>
      <trkpt lat="50.77095" lon="2.89404">
        <ele>60.9</ele>
        <time>2020-06-23T15:47:02Z</time>
      </trkpt>
      <trkpt lat="50.77088" lon="2.89407">
        <ele>60.9</ele>
        <time>2020-06-23T15:47:03Z</time>
      </trkpt>
      <trkpt lat="50.77081" lon="2.89411">
        <ele>61</ele>
        <time>2020-06-23T15:47:04Z</time>
      </trkpt>
      <trkpt lat="50.77074" lon="2.89415">
        <ele>61</ele>
        <time>2020-06-23T15:47:05Z</time>
      </trkpt>
      <trkpt lat="50.77067" lon="2.89419">
        <ele>61.1</ele>
        <time>2020-06-23T15:47:06Z</time>
      </trkpt>
      <trkpt lat="50.7706" lon="2.89424">
        <ele>61.2</ele>
        <time>2020-06-23T15:47:07Z</time>
      </trkpt>
      <trkpt lat="50.77054" lon="2.89428">
        <ele>61.3</ele>
        <time>2020-06-23T15:47:08Z</time>
      </trkpt>
      <trkpt lat="50.77047" lon="2.89432">
        <ele>61.4</ele>
        <time>2020-06-23T15:47:09Z</time>
      </trkpt>
      <trkpt lat="50.77041" lon="2.89437">
        <ele>61.5</ele>
        <time>2020-06-23T15:47:10Z</time>
      </trkpt>
      <trkpt lat="50.77034" lon="2.89441">
        <ele>61.5</ele>
        <time>2020-06-23T15:47:11Z</time>
      </trkpt>
      <trkpt lat="50.77028" lon="2.89445">
        <ele>61.5</ele>
        <time>2020-06-23T15:47:12Z</time>
      </trkpt>
      <trkpt lat="50.77022" lon="2.89449">
        <ele>61.5</ele>
        <time>2020-06-23T15:47:13Z</time>
      </trkpt>
      <trkpt lat="50.77015" lon="2.89453">
        <ele>61.5</ele>
        <time>2020-06-23T15:47:14Z</time>
      </trkpt>
      <trkpt lat="50.77009" lon="2.89458">
        <ele>61.5</ele>
        <time>2020-06-23T15:47:15Z</time>
      </trkpt>
      <trkpt lat="50.77003" lon="2.89462">
        <ele>61.6</ele>
        <time>2020-06-23T15:47:16Z</time>
      </trkpt>
      <trkpt lat="50.76997" lon="2.89466">
        <ele>61.6</ele>
        <time>2020-06-23T15:47:17Z</time>
      </trkpt>
      <trkpt lat="50.7699" lon="2.8947">
        <ele>61.7</ele>
        <time>2020-06-23T15:47:18Z</time>
      </trkpt>
      <trkpt lat="50.76984" lon="2.89474">
        <ele>61.7</ele>
        <time>2020-06-23T15:47:19Z</time>
      </trkpt>
      <trkpt lat="50.76978" lon="2.89478">
        <ele>61.7</ele>
        <time>2020-06-23T15:47:20Z</time>
      </trkpt>
      <trkpt lat="50.76972" lon="2.89481">
        <ele>61.8</ele>
        <time>2020-06-23T15:47:21Z</time>
      </trkpt>
      <trkpt lat="50.76966" lon="2.89484">
        <ele>61.8</ele>
        <time>2020-06-23T15:47:22Z</time>
      </trkpt>
      <trkpt lat="50.76959" lon="2.89487">
        <ele>61.8</ele>
        <time>2020-06-23T15:47:23Z</time>
      </trkpt>
      <trkpt lat="50.76953" lon="2.8949">
        <ele>61.9</ele>
        <time>2020-06-23T15:47:24Z</time>
      </trkpt>
      <trkpt lat="50.76947" lon="2.89493">
        <ele>61.9</ele>
        <time>2020-06-23T15:47:25Z</time>
      </trkpt>
      <trkpt lat="50.76941" lon="2.89496">
        <ele>61.9</ele>
        <time>2020-06-23T15:47:26Z</time>
      </trkpt>
      <trkpt lat="50.76935" lon="2.89499">
        <ele>61.9</ele>
        <time>2020-06-23T15:47:27Z</time>
      </trkpt>
      <trkpt lat="50.76929" lon="2.89502">
        <ele>62</ele>
        <time>2020-06-23T15:47:28Z</time>
      </trkpt>
      <trkpt lat="50.76923" lon="2.89503">
        <ele>62</ele>
        <time>2020-06-23T15:47:29Z</time>
      </trkpt>
      <trkpt lat="50.76917" lon="2.89506">
        <ele>62.1</ele>
        <time>2020-06-23T15:47:30Z</time>
      </trkpt>
      <trkpt lat="50.7691" lon="2.89508">
        <ele>62.1</ele>
        <time>2020-06-23T15:47:31Z</time>
      </trkpt>
      <trkpt lat="50.76904" lon="2.89511">
        <ele>62.2</ele>
        <time>2020-06-23T15:47:32Z</time>
      </trkpt>
      <trkpt lat="50.76898" lon="2.89514">
        <ele>62.3</ele>
        <time>2020-06-23T15:47:33Z</time>
      </trkpt>
      <trkpt lat="50.76891" lon="2.89517">
        <ele>62.3</ele>
        <time>2020-06-23T15:47:34Z</time>
      </trkpt>
      <trkpt lat="50.76885" lon="2.8952">
        <ele>62.5</ele>
        <time>2020-06-23T15:47:35Z</time>
      </trkpt>
      <trkpt lat="50.76878" lon="2.89523">
        <ele>62.5</ele>
        <time>2020-06-23T15:47:36Z</time>
      </trkpt>
      <trkpt lat="50.76872" lon="2.89526">
        <ele>62.5</ele>
        <time>2020-06-23T15:47:37Z</time>
      </trkpt>
      <trkpt lat="50.76866" lon="2.89527">
        <ele>62.6</ele>
        <time>2020-06-23T15:47:38Z</time>
      </trkpt>
      <trkpt lat="50.76859" lon="2.89529">
        <ele>62.6</ele>
        <time>2020-06-23T15:47:39Z</time>
      </trkpt>
      <trkpt lat="50.76854" lon="2.89532">
        <ele>62.6</ele>
        <time>2020-06-23T15:47:40Z</time>
      </trkpt>
      <trkpt lat="50.76848" lon="2.89535">
        <ele>62.7</ele>
        <time>2020-06-23T15:47:41Z</time>
      </trkpt>
      <trkpt lat="50.7684" lon="2.89539">
        <ele>62.7</ele>
        <time>2020-06-23T15:47:42Z</time>
      </trkpt>
      <trkpt lat="50.76833" lon="2.89543">
        <ele>62.7</ele>
        <time>2020-06-23T15:47:43Z</time>
      </trkpt>
      <trkpt lat="50.76827" lon="2.89547">
        <ele>62.7</ele>
        <time>2020-06-23T15:47:44Z</time>
      </trkpt>
      <trkpt lat="50.7682" lon="2.89552">
        <ele>62.7</ele>
        <time>2020-06-23T15:47:45Z</time>
      </trkpt>
      <trkpt lat="50.76814" lon="2.89557">
        <ele>62.7</ele>
        <time>2020-06-23T15:47:46Z</time>
      </trkpt>
      <trkpt lat="50.76808" lon="2.89562">
        <ele>62.7</ele>
        <time>2020-06-23T15:47:47Z</time>
      </trkpt>
      <trkpt lat="50.76802" lon="2.89567">
        <ele>62.8</ele>
        <time>2020-06-23T15:47:48Z</time>
      </trkpt>
      <trkpt lat="50.76797" lon="2.89571">
        <ele>62.8</ele>
        <time>2020-06-23T15:47:49Z</time>
      </trkpt>
      <trkpt lat="50.76791" lon="2.89576">
        <ele>62.9</ele>
        <time>2020-06-23T15:47:50Z</time>
      </trkpt>
      <trkpt lat="50.76786" lon="2.89579">
        <ele>63</ele>
        <time>2020-06-23T15:47:51Z</time>
      </trkpt>
      <trkpt lat="50.7678" lon="2.89581">
        <ele>63.1</ele>
        <time>2020-06-23T15:47:52Z</time>
      </trkpt>
      <trkpt lat="50.76773" lon="2.89584">
        <ele>63.1</ele>
        <time>2020-06-23T15:47:53Z</time>
      </trkpt>
      <trkpt lat="50.76767" lon="2.89587">
        <ele>63.2</ele>
        <time>2020-06-23T15:47:54Z</time>
      </trkpt>
      <trkpt lat="50.76761" lon="2.89589">
        <ele>63.2</ele>
        <time>2020-06-23T15:47:55Z</time>
      </trkpt>
      <trkpt lat="50.76756" lon="2.89593">
        <ele>63.2</ele>
        <time>2020-06-23T15:47:56Z</time>
      </trkpt>
      <trkpt lat="50.7675" lon="2.89596">
        <ele>63.3</ele>
        <time>2020-06-23T15:47:57Z</time>
      </trkpt>
      <trkpt lat="50.76745" lon="2.89599">
        <ele>63.3</ele>
        <time>2020-06-23T15:47:58Z</time>
      </trkpt>
      <trkpt lat="50.76739" lon="2.89603">
        <ele>63.4</ele>
        <time>2020-06-23T15:47:59Z</time>
      </trkpt>
      <trkpt lat="50.76733" lon="2.89607">
        <ele>63.4</ele>
        <time>2020-06-23T15:48:00Z</time>
      </trkpt>
      <trkpt lat="50.76727" lon="2.8961">
        <ele>63.5</ele>
        <time>2020-06-23T15:48:01Z</time>
      </trkpt>
      <trkpt lat="50.76722" lon="2.89614">
        <ele>63.5</ele>
        <time>2020-06-23T15:48:02Z</time>
      </trkpt>
      <trkpt lat="50.76717" lon="2.89617">
        <ele>63.6</ele>
        <time>2020-06-23T15:48:03Z</time>
      </trkpt>
      <trkpt lat="50.76712" lon="2.89621">
        <ele>63.6</ele>
        <time>2020-06-23T15:48:04Z</time>
      </trkpt>
      <trkpt lat="50.76707" lon="2.89624">
        <ele>63.7</ele>
        <time>2020-06-23T15:48:05Z</time>
      </trkpt>
      <trkpt lat="50.76703" lon="2.89626">
        <ele>63.7</ele>
        <time>2020-06-23T15:48:06Z</time>
      </trkpt>
      <trkpt lat="50.76699" lon="2.89629">
        <ele>63.8</ele>
        <time>2020-06-23T15:48:07Z</time>
      </trkpt>
      <trkpt lat="50.76695" lon="2.89631">
        <ele>63.8</ele>
        <time>2020-06-23T15:48:08Z</time>
      </trkpt>
      <trkpt lat="50.76691" lon="2.89633">
        <ele>63.8</ele>
        <time>2020-06-23T15:48:09Z</time>
      </trkpt>
      <trkpt lat="50.76687" lon="2.89635">
        <ele>63.8</ele>
        <time>2020-06-23T15:48:10Z</time>
      </trkpt>
      <trkpt lat="50.76683" lon="2.89637">
        <ele>63.9</ele>
        <time>2020-06-23T15:48:11Z</time>
      </trkpt>
      <trkpt lat="50.7668" lon="2.89638">
        <ele>63.9</ele>
        <time>2020-06-23T15:48:12Z</time>
      </trkpt>
      <trkpt lat="50.76675" lon="2.89639">
        <ele>63.9</ele>
        <time>2020-06-23T15:48:13Z</time>
      </trkpt>
      <trkpt lat="50.7667" lon="2.89639">
        <ele>64</ele>
        <time>2020-06-23T15:48:14Z</time>
      </trkpt>
      <trkpt lat="50.76664" lon="2.89639">
        <ele>64.2</ele>
        <time>2020-06-23T15:48:15Z</time>
      </trkpt>
      <trkpt lat="50.76659" lon="2.8964">
        <ele>64.3</ele>
        <time>2020-06-23T15:48:16Z</time>
      </trkpt>
      <trkpt lat="50.76654" lon="2.8964">
        <ele>64.4</ele>
        <time>2020-06-23T15:48:17Z</time>
      </trkpt>
      <trkpt lat="50.7665" lon="2.89639">
        <ele>64.4</ele>
        <time>2020-06-23T15:48:18Z</time>
      </trkpt>
      <trkpt lat="50.76647" lon="2.89639">
        <ele>64.5</ele>
        <time>2020-06-23T15:48:19Z</time>
      </trkpt>
      <trkpt lat="50.76643" lon="2.89639">
        <ele>64.6</ele>
        <time>2020-06-23T15:48:20Z</time>
      </trkpt>
      <trkpt lat="50.76641" lon="2.8964">
        <ele>64.6</ele>
        <time>2020-06-23T15:48:21Z</time>
      </trkpt>
      <trkpt lat="50.76638" lon="2.8964">
        <ele>64.6</ele>
        <time>2020-06-23T15:48:22Z</time>
      </trkpt>
      <trkpt lat="50.76634" lon="2.89641">
        <ele>64.5</ele>
        <time>2020-06-23T15:48:23Z</time>
      </trkpt>
      <trkpt lat="50.76632" lon="2.89643">
        <ele>64.5</ele>
        <time>2020-06-23T15:48:24Z</time>
      </trkpt>
      <trkpt lat="50.76628" lon="2.89644">
        <ele>64.5</ele>
        <time>2020-06-23T15:48:25Z</time>
      </trkpt>
      <trkpt lat="50.76625" lon="2.89645">
        <ele>64.5</ele>
        <time>2020-06-23T15:48:26Z</time>
      </trkpt>
      <trkpt lat="50.76621" lon="2.89646">
        <ele>64.5</ele>
        <time>2020-06-23T15:48:27Z</time>
      </trkpt>
      <trkpt lat="50.76617" lon="2.89648">
        <ele>64.5</ele>
        <time>2020-06-23T15:48:28Z</time>
      </trkpt>
      <trkpt lat="50.76614" lon="2.89649">
        <ele>64.4</ele>
        <time>2020-06-23T15:48:29Z</time>
      </trkpt>
      <trkpt lat="50.7661" lon="2.89651">
        <ele>64.4</ele>
        <time>2020-06-23T15:48:30Z</time>
      </trkpt>
      <trkpt lat="50.76607" lon="2.89652">
        <ele>64.4</ele>
        <time>2020-06-23T15:48:31Z</time>
      </trkpt>
      <trkpt lat="50.76602" lon="2.89655">
        <ele>64.3</ele>
        <time>2020-06-23T15:48:32Z</time>
      </trkpt>
      <trkpt lat="50.76597" lon="2.89657">
        <ele>64.2</ele>
        <time>2020-06-23T15:48:33Z</time>
      </trkpt>
      <trkpt lat="50.76592" lon="2.89659">
        <ele>64.2</ele>
        <time>2020-06-23T15:48:34Z</time>
      </trkpt>
      <trkpt lat="50.76586" lon="2.89661">
        <ele>64.1</ele>
        <time>2020-06-23T15:48:35Z</time>
      </trkpt>
      <trkpt lat="50.7658" lon="2.89663">
        <ele>64</ele>
        <time>2020-06-23T15:48:36Z</time>
      </trkpt>
      <trkpt lat="50.76575" lon="2.89665">
        <ele>63.9</ele>
        <time>2020-06-23T15:48:37Z</time>
      </trkpt>
      <trkpt lat="50.7657" lon="2.89668">
        <ele>63.8</ele>
        <time>2020-06-23T15:48:38Z</time>
      </trkpt>
      <trkpt lat="50.76565" lon="2.8967">
        <ele>63.8</ele>
        <time>2020-06-23T15:48:39Z</time>
      </trkpt>
      <trkpt lat="50.76561" lon="2.89672">
        <ele>63.7</ele>
        <time>2020-06-23T15:48:40Z</time>
      </trkpt>
      <trkpt lat="50.76557" lon="2.89674">
        <ele>63.7</ele>
        <time>2020-06-23T15:48:41Z</time>
      </trkpt>
      <trkpt lat="50.76552" lon="2.89676">
        <ele>63.6</ele>
        <time>2020-06-23T15:48:42Z</time>
      </trkpt>
      <trkpt lat="50.76548" lon="2.89678">
        <ele>63.6</ele>
        <time>2020-06-23T15:48:43Z</time>
      </trkpt>
      <trkpt lat="50.76545" lon="2.89679">
        <ele>63.6</ele>
        <time>2020-06-23T15:48:44Z</time>
      </trkpt>
      <trkpt lat="50.76542" lon="2.8968">
        <ele>63.5</ele>
        <time>2020-06-23T15:48:45Z</time>
      </trkpt>
      <trkpt lat="50.76541" lon="2.8968">
        <ele>63.5</ele>
        <time>2020-06-23T15:48:46Z</time>
      </trkpt>
      <trkpt lat="50.7654" lon="2.89681">
        <ele>63.5</ele>
        <time>2020-06-23T15:48:47Z</time>
      </trkpt>
      <trkpt lat="50.76539" lon="2.8968">
        <ele>63.5</ele>
        <time>2020-06-23T15:48:48Z</time>
      </trkpt>
      <trkpt lat="50.76539" lon="2.89681">
        <ele>63.5</ele>
        <time>2020-06-23T15:48:49Z</time>
      </trkpt>
      <trkpt lat="50.76539" lon="2.89681">
        <ele>63.5</ele>
        <time>2020-06-23T15:48:50Z</time>
      </trkpt>
      <trkpt lat="50.76539" lon="2.89681">
        <ele>63.5</ele>
        <time>2020-06-23T15:48:51Z</time>
      </trkpt>
      <trkpt lat="50.76538" lon="2.89681">
        <ele>63.5</ele>
        <time>2020-06-23T15:48:52Z</time>
      </trkpt>
      <trkpt lat="50.76538" lon="2.89681">
        <ele>63.5</ele>
        <time>2020-06-23T15:48:53Z</time>
      </trkpt>
      <trkpt lat="50.76537" lon="2.89681">
        <ele>63.5</ele>
        <time>2020-06-23T15:48:54Z</time>
      </trkpt>
      <trkpt lat="50.76537" lon="2.89681">
        <ele>63.5</ele>
        <time>2020-06-23T15:48:55Z</time>
      </trkpt>
      <trkpt lat="50.76536" lon="2.89681">
        <ele>63.4</ele>
        <time>2020-06-23T15:48:56Z</time>
      </trkpt>
      <trkpt lat="50.76535" lon="2.89681">
        <ele>63.4</ele>
        <time>2020-06-23T15:48:57Z</time>
      </trkpt>
      <trkpt lat="50.76536" lon="2.89681">
        <ele>63.4</ele>
        <time>2020-06-23T15:48:58Z</time>
      </trkpt>
      <trkpt lat="50.76535" lon="2.89681">
        <ele>63.4</ele>
        <time>2020-06-23T15:48:59Z</time>
      </trkpt>
      <trkpt lat="50.76535" lon="2.89682">
        <ele>63.4</ele>
        <time>2020-06-23T15:49:00Z</time>
      </trkpt>
      <trkpt lat="50.76535" lon="2.89682">
        <ele>63.4</ele>
        <time>2020-06-23T15:49:01Z</time>
      </trkpt>
      <trkpt lat="50.76536" lon="2.89682">
        <ele>63.4</ele>
        <time>2020-06-23T15:49:02Z</time>
      </trkpt>
      <trkpt lat="50.76536" lon="2.89683">
        <ele>63.4</ele>
        <time>2020-06-23T15:49:03Z</time>
      </trkpt>
      <trkpt lat="50.76536" lon="2.89683">
        <ele>63.4</ele>
        <time>2020-06-23T15:49:04Z</time>
      </trkpt>
      <trkpt lat="50.76536" lon="2.89683">
        <ele>63.4</ele>
        <time>2020-06-23T15:49:05Z</time>
      </trkpt>
      <trkpt lat="50.76536" lon="2.89684">
        <ele>63.4</ele>
        <time>2020-06-23T15:49:06Z</time>
      </trkpt>
      <trkpt lat="50.76536" lon="2.89684">
        <ele>63.4</ele>
        <time>2020-06-23T15:49:07Z</time>
      </trkpt>
      <trkpt lat="50.76533" lon="2.89682">
        <ele>63.4</ele>
        <time>2020-06-23T15:55:18Z</time>
      </trkpt>
      <trkpt lat="50.76532" lon="2.89682">
        <ele>63.4</ele>
        <time>2020-06-23T15:55:19Z</time>
      </trkpt>
      <trkpt lat="50.7653" lon="2.89682">
        <ele>63.4</ele>
        <time>2020-06-23T15:55:20Z</time>
      </trkpt>
      <trkpt lat="50.76528" lon="2.8968">
        <ele>63.4</ele>
        <time>2020-06-23T15:55:21Z</time>
      </trkpt>
      <trkpt lat="50.76527" lon="2.8968">
        <ele>63.4</ele>
        <time>2020-06-23T15:55:22Z</time>
      </trkpt>
      <trkpt lat="50.76526" lon="2.8968">
        <ele>63.4</ele>
        <time>2020-06-23T15:55:23Z</time>
      </trkpt>
      <trkpt lat="50.76523" lon="2.8968">
        <ele>63.4</ele>
        <time>2020-06-23T15:55:24Z</time>
      </trkpt>
      <trkpt lat="50.76522" lon="2.8968">
        <ele>63.3</ele>
        <time>2020-06-23T15:55:25Z</time>
      </trkpt>
      <trkpt lat="50.7652" lon="2.89684">
        <ele>63.3</ele>
        <time>2020-06-23T15:55:26Z</time>
      </trkpt>
      <trkpt lat="50.76519" lon="2.89685">
        <ele>63.3</ele>
        <time>2020-06-23T15:55:27Z</time>
      </trkpt>
      <trkpt lat="50.7652" lon="2.89691">
        <ele>63.3</ele>
        <time>2020-06-23T15:55:28Z</time>
      </trkpt>
      <trkpt lat="50.7652" lon="2.89692">
        <ele>63.3</ele>
        <time>2020-06-23T15:55:29Z</time>
      </trkpt>
      <trkpt lat="50.76521" lon="2.89694">
        <ele>63.3</ele>
        <time>2020-06-23T15:55:30Z</time>
      </trkpt>
      <trkpt lat="50.76522" lon="2.89692">
        <ele>63.3</ele>
        <time>2020-06-23T15:55:31Z</time>
      </trkpt>
      <trkpt lat="50.76523" lon="2.89691">
        <ele>63.3</ele>
        <time>2020-06-23T15:55:32Z</time>
      </trkpt>
      <trkpt lat="50.76526" lon="2.89689">
        <ele>63.3</ele>
        <time>2020-06-23T15:55:33Z</time>
      </trkpt>
      <trkpt lat="50.76526" lon="2.89688">
        <ele>63.3</ele>
        <time>2020-06-23T15:55:34Z</time>
      </trkpt>
      <trkpt lat="50.76529" lon="2.89686">
        <ele>63.3</ele>
        <time>2020-06-23T15:55:35Z</time>
      </trkpt>
      <trkpt lat="50.7653" lon="2.89686">
        <ele>63.3</ele>
        <time>2020-06-23T15:55:36Z</time>
      </trkpt>
      <trkpt lat="50.76531" lon="2.89685">
        <ele>63.4</ele>
        <time>2020-06-23T15:55:37Z</time>
      </trkpt>
      <trkpt lat="50.76533" lon="2.89685">
        <ele>63.4</ele>
        <time>2020-06-23T15:55:38Z</time>
      </trkpt>
      <trkpt lat="50.76534" lon="2.89685">
        <ele>63.4</ele>
        <time>2020-06-23T15:55:39Z</time>
      </trkpt>
      <trkpt lat="50.76535" lon="2.89685">
        <ele>63.4</ele>
        <time>2020-06-23T15:55:40Z</time>
      </trkpt>
      <trkpt lat="50.76536" lon="2.89686">
        <ele>63.5</ele>
        <time>2020-06-23T15:55:41Z</time>
      </trkpt>
      <trkpt lat="50.76537" lon="2.89686">
        <ele>63.5</ele>
        <time>2020-06-23T15:55:42Z</time>
      </trkpt>
      <trkpt lat="50.76539" lon="2.89685">
        <ele>63.5</ele>
        <time>2020-06-23T15:55:43Z</time>
      </trkpt>
      <trkpt lat="50.7654" lon="2.89685">
        <ele>63.5</ele>
        <time>2020-06-23T15:55:44Z</time>
      </trkpt>
      <trkpt lat="50.76541" lon="2.89686">
        <ele>63.5</ele>
        <time>2020-06-23T15:55:45Z</time>
      </trkpt>
      <trkpt lat="50.76542" lon="2.89686">
        <ele>63.5</ele>
        <time>2020-06-23T15:55:46Z</time>
      </trkpt>
      <trkpt lat="50.76543" lon="2.89685">
        <ele>63.5</ele>
        <time>2020-06-23T15:55:47Z</time>
      </trkpt>
      <trkpt lat="50.76545" lon="2.89684">
        <ele>63.5</ele>
        <time>2020-06-23T15:55:48Z</time>
      </trkpt>
      <trkpt lat="50.76546" lon="2.89683">
        <ele>63.6</ele>
        <time>2020-06-23T15:55:49Z</time>
      </trkpt>
      <trkpt lat="50.76547" lon="2.89682">
        <ele>63.6</ele>
        <time>2020-06-23T15:55:50Z</time>
      </trkpt>
      <trkpt lat="50.76551" lon="2.89681">
        <ele>63.6</ele>
        <time>2020-06-23T15:55:51Z</time>
      </trkpt>
      <trkpt lat="50.76552" lon="2.8968">
        <ele>63.6</ele>
        <time>2020-06-23T15:55:52Z</time>
      </trkpt>
      <trkpt lat="50.76556" lon="2.89679">
        <ele>63.6</ele>
        <time>2020-06-23T15:55:53Z</time>
      </trkpt>
      <trkpt lat="50.76557" lon="2.89678">
        <ele>63.7</ele>
        <time>2020-06-23T15:55:54Z</time>
      </trkpt>
      <trkpt lat="50.7656" lon="2.89677">
        <ele>63.7</ele>
        <time>2020-06-23T15:55:55Z</time>
      </trkpt>
      <trkpt lat="50.76563" lon="2.89676">
        <ele>63.7</ele>
        <time>2020-06-23T15:55:56Z</time>
      </trkpt>
      <trkpt lat="50.76566" lon="2.89675">
        <ele>63.7</ele>
        <time>2020-06-23T15:55:57Z</time>
      </trkpt>
      <trkpt lat="50.7657" lon="2.89674">
        <ele>63.8</ele>
        <time>2020-06-23T15:55:58Z</time>
      </trkpt>
      <trkpt lat="50.76571" lon="2.89674">
        <ele>63.8</ele>
        <time>2020-06-23T15:55:59Z</time>
      </trkpt>
      <trkpt lat="50.76574" lon="2.89674">
        <ele>63.8</ele>
        <time>2020-06-23T15:56:00Z</time>
      </trkpt>
      <trkpt lat="50.76577" lon="2.89673">
        <ele>63.9</ele>
        <time>2020-06-23T15:56:01Z</time>
      </trkpt>
      <trkpt lat="50.7658" lon="2.89672">
        <ele>63.9</ele>
        <time>2020-06-23T15:56:02Z</time>
      </trkpt>
      <trkpt lat="50.76584" lon="2.89671">
        <ele>64</ele>
        <time>2020-06-23T15:56:03Z</time>
      </trkpt>
      <trkpt lat="50.76588" lon="2.8967">
        <ele>64.1</ele>
        <time>2020-06-23T15:56:04Z</time>
      </trkpt>
      <trkpt lat="50.76592" lon="2.89668">
        <ele>64.1</ele>
        <time>2020-06-23T15:56:05Z</time>
      </trkpt>
      <trkpt lat="50.76596" lon="2.89667">
        <ele>64.2</ele>
        <time>2020-06-23T15:56:06Z</time>
      </trkpt>
      <trkpt lat="50.76599" lon="2.89667">
        <ele>64.2</ele>
        <time>2020-06-23T15:56:07Z</time>
      </trkpt>
      <trkpt lat="50.76603" lon="2.89665">
        <ele>64.3</ele>
        <time>2020-06-23T15:56:08Z</time>
      </trkpt>
      <trkpt lat="50.76607" lon="2.89663">
        <ele>64.3</ele>
        <time>2020-06-23T15:56:09Z</time>
      </trkpt>
      <trkpt lat="50.7661" lon="2.89662">
        <ele>64.4</ele>
        <time>2020-06-23T15:56:10Z</time>
      </trkpt>
      <trkpt lat="50.76613" lon="2.89661">
        <ele>64.4</ele>
        <time>2020-06-23T15:56:11Z</time>
      </trkpt>
      <trkpt lat="50.76616" lon="2.89661">
        <ele>64.4</ele>
        <time>2020-06-23T15:56:12Z</time>
      </trkpt>
      <trkpt lat="50.7662" lon="2.89661">
        <ele>64.5</ele>
        <time>2020-06-23T15:56:13Z</time>
      </trkpt>
      <trkpt lat="50.76621" lon="2.89662">
        <ele>64.5</ele>
        <time>2020-06-23T15:56:14Z</time>
      </trkpt>
      <trkpt lat="50.76623" lon="2.89665">
        <ele>64.5</ele>
        <time>2020-06-23T15:56:15Z</time>
      </trkpt>
      <trkpt lat="50.76626" lon="2.89667">
        <ele>64.5</ele>
        <time>2020-06-23T15:56:16Z</time>
      </trkpt>
      <trkpt lat="50.76628" lon="2.89671">
        <ele>64.5</ele>
        <time>2020-06-23T15:56:17Z</time>
      </trkpt>
      <trkpt lat="50.7663" lon="2.89676">
        <ele>64.4</ele>
        <time>2020-06-23T15:56:18Z</time>
      </trkpt>
      <trkpt lat="50.76632" lon="2.89682">
        <ele>64.3</ele>
        <time>2020-06-23T15:56:19Z</time>
      </trkpt>
      <trkpt lat="50.76634" lon="2.89689">
        <ele>64.2</ele>
        <time>2020-06-23T15:56:20Z</time>
      </trkpt>
      <trkpt lat="50.76635" lon="2.89696">
        <ele>64.2</ele>
        <time>2020-06-23T15:56:21Z</time>
      </trkpt>
      <trkpt lat="50.76636" lon="2.89702">
        <ele>64.1</ele>
        <time>2020-06-23T15:56:22Z</time>
      </trkpt>
      <trkpt lat="50.76637" lon="2.89708">
        <ele>64</ele>
        <time>2020-06-23T15:56:23Z</time>
      </trkpt>
      <trkpt lat="50.76638" lon="2.89714">
        <ele>64</ele>
        <time>2020-06-23T15:56:24Z</time>
      </trkpt>
      <trkpt lat="50.76639" lon="2.89719">
        <ele>63.9</ele>
        <time>2020-06-23T15:56:25Z</time>
      </trkpt>
      <trkpt lat="50.7664" lon="2.89724">
        <ele>63.9</ele>
        <time>2020-06-23T15:56:26Z</time>
      </trkpt>
      <trkpt lat="50.7664" lon="2.89729">
        <ele>63.2</ele>
        <time>2020-06-23T15:56:27Z</time>
      </trkpt>
      <trkpt lat="50.76637" lon="2.89732">
        <ele>63.1</ele>
        <time>2020-06-23T15:56:28Z</time>
      </trkpt>
      <trkpt lat="50.76636" lon="2.89732">
        <ele>63.1</ele>
        <time>2020-06-23T15:56:29Z</time>
      </trkpt>
      <trkpt lat="50.76632" lon="2.89732">
        <ele>63</ele>
        <time>2020-06-23T15:56:30Z</time>
      </trkpt>
      <trkpt lat="50.76629" lon="2.89731">
        <ele>63</ele>
        <time>2020-06-23T15:56:31Z</time>
      </trkpt>
      <trkpt lat="50.76626" lon="2.89732">
        <ele>62.9</ele>
        <time>2020-06-23T15:56:32Z</time>
      </trkpt>
      <trkpt lat="50.76623" lon="2.89733">
        <ele>62.9</ele>
        <time>2020-06-23T15:56:33Z</time>
      </trkpt>
      <trkpt lat="50.7662" lon="2.89734">
        <ele>62.8</ele>
        <time>2020-06-23T15:56:34Z</time>
      </trkpt>
      <trkpt lat="50.76617" lon="2.89736">
        <ele>62.7</ele>
        <time>2020-06-23T15:56:35Z</time>
      </trkpt>
      <trkpt lat="50.76615" lon="2.89738">
        <ele>62.7</ele>
        <time>2020-06-23T15:56:36Z</time>
      </trkpt>
      <trkpt lat="50.76612" lon="2.8974">
        <ele>62.6</ele>
        <time>2020-06-23T15:56:37Z</time>
      </trkpt>
      <trkpt lat="50.76611" lon="2.89741">
        <ele>62.6</ele>
        <time>2020-06-23T15:56:38Z</time>
      </trkpt>
      <trkpt lat="50.76609" lon="2.89743">
        <ele>62.6</ele>
        <time>2020-06-23T15:56:39Z</time>
      </trkpt>
      <trkpt lat="50.76607" lon="2.89745">
        <ele>62.5</ele>
        <time>2020-06-23T15:56:40Z</time>
      </trkpt>
      <trkpt lat="50.76603" lon="2.89748">
        <ele>62.5</ele>
        <time>2020-06-23T15:56:41Z</time>
      </trkpt>
      <trkpt lat="50.76602" lon="2.8975">
        <ele>62.4</ele>
        <time>2020-06-23T15:56:42Z</time>
      </trkpt>
      <trkpt lat="50.76599" lon="2.89753">
        <ele>62.4</ele>
        <time>2020-06-23T15:56:43Z</time>
      </trkpt>
      <trkpt lat="50.76596" lon="2.89757">
        <ele>62.3</ele>
        <time>2020-06-23T15:56:44Z</time>
      </trkpt>
      <trkpt lat="50.76593" lon="2.89761">
        <ele>62.3</ele>
        <time>2020-06-23T15:56:45Z</time>
      </trkpt>
      <trkpt lat="50.76591" lon="2.89764">
        <ele>62.2</ele>
        <time>2020-06-23T15:56:46Z</time>
      </trkpt>
      <trkpt lat="50.76587" lon="2.89769">
        <ele>62.2</ele>
        <time>2020-06-23T15:56:47Z</time>
      </trkpt>
      <trkpt lat="50.76583" lon="2.89773">
        <ele>62.1</ele>
        <time>2020-06-23T15:56:48Z</time>
      </trkpt>
      <trkpt lat="50.7658" lon="2.89777">
        <ele>62.1</ele>
        <time>2020-06-23T15:56:49Z</time>
      </trkpt>
      <trkpt lat="50.76576" lon="2.89781">
        <ele>62</ele>
        <time>2020-06-23T15:56:50Z</time>
      </trkpt>
      <trkpt lat="50.76572" lon="2.89784">
        <ele>62</ele>
        <time>2020-06-23T15:56:51Z</time>
      </trkpt>
      <trkpt lat="50.76569" lon="2.89787">
        <ele>62</ele>
        <time>2020-06-23T15:56:52Z</time>
      </trkpt>
      <trkpt lat="50.76567" lon="2.89789">
        <ele>62</ele>
        <time>2020-06-23T15:56:53Z</time>
      </trkpt>
      <trkpt lat="50.76563" lon="2.89792">
        <ele>62</ele>
        <time>2020-06-23T15:56:54Z</time>
      </trkpt>
      <trkpt lat="50.76561" lon="2.89794">
        <ele>62.1</ele>
        <time>2020-06-23T15:56:55Z</time>
      </trkpt>
      <trkpt lat="50.76558" lon="2.89796">
        <ele>62.1</ele>
        <time>2020-06-23T15:56:56Z</time>
      </trkpt>
      <trkpt lat="50.76555" lon="2.89798">
        <ele>62.1</ele>
        <time>2020-06-23T15:56:57Z</time>
      </trkpt>
      <trkpt lat="50.76553" lon="2.89798">
        <ele>62.2</ele>
        <time>2020-06-23T15:56:58Z</time>
      </trkpt>
      <trkpt lat="50.76551" lon="2.89801">
        <ele>62.2</ele>
        <time>2020-06-23T15:56:59Z</time>
      </trkpt>
      <trkpt lat="50.76548" lon="2.89803">
        <ele>62.2</ele>
        <time>2020-06-23T15:57:00Z</time>
      </trkpt>
      <trkpt lat="50.76545" lon="2.89804">
        <ele>62.3</ele>
        <time>2020-06-23T15:57:01Z</time>
      </trkpt>
      <trkpt lat="50.76542" lon="2.89805">
        <ele>62.3</ele>
        <time>2020-06-23T15:57:02Z</time>
      </trkpt>
      <trkpt lat="50.76541" lon="2.89805">
        <ele>62.3</ele>
        <time>2020-06-23T15:57:03Z</time>
      </trkpt>
      <trkpt lat="50.76538" lon="2.89807">
        <ele>62.3</ele>
        <time>2020-06-23T15:57:04Z</time>
      </trkpt>
      <trkpt lat="50.76537" lon="2.89807">
        <ele>62.3</ele>
        <time>2020-06-23T15:57:05Z</time>
      </trkpt>
      <trkpt lat="50.76534" lon="2.89808">
        <ele>62.3</ele>
        <time>2020-06-23T15:57:06Z</time>
      </trkpt>
      <trkpt lat="50.76534" lon="2.89808">
        <ele>62.3</ele>
        <time>2020-06-23T15:57:07Z</time>
      </trkpt>
      <trkpt lat="50.7653" lon="2.89808">
        <ele>62.4</ele>
        <time>2020-06-23T15:57:08Z</time>
      </trkpt>
      <trkpt lat="50.76528" lon="2.89808">
        <ele>62.4</ele>
        <time>2020-06-23T15:57:09Z</time>
      </trkpt>
      <trkpt lat="50.76525" lon="2.89809">
        <ele>62.4</ele>
        <time>2020-06-23T15:57:10Z</time>
      </trkpt>
      <trkpt lat="50.76521" lon="2.8981">
        <ele>62.5</ele>
        <time>2020-06-23T15:57:11Z</time>
      </trkpt>
      <trkpt lat="50.76517" lon="2.89811">
        <ele>62.4</ele>
        <time>2020-06-23T15:57:12Z</time>
      </trkpt>
      <trkpt lat="50.76512" lon="2.89811">
        <ele>62.3</ele>
        <time>2020-06-23T15:57:13Z</time>
      </trkpt>
      <trkpt lat="50.76508" lon="2.89812">
        <ele>62.2</ele>
        <time>2020-06-23T15:57:14Z</time>
      </trkpt>
      <trkpt lat="50.76503" lon="2.89813">
        <ele>62.1</ele>
        <time>2020-06-23T15:57:15Z</time>
      </trkpt>
      <trkpt lat="50.76499" lon="2.89813">
        <ele>62</ele>
        <time>2020-06-23T15:57:16Z</time>
      </trkpt>
      <trkpt lat="50.76495" lon="2.89813">
        <ele>62</ele>
        <time>2020-06-23T15:57:17Z</time>
      </trkpt>
      <trkpt lat="50.76491" lon="2.89813">
        <ele>61.9</ele>
        <time>2020-06-23T15:57:18Z</time>
      </trkpt>
      <trkpt lat="50.76489" lon="2.89813">
        <ele>61.8</ele>
        <time>2020-06-23T15:57:19Z</time>
      </trkpt>
      <trkpt lat="50.76487" lon="2.89813">
        <ele>61.8</ele>
        <time>2020-06-23T15:57:20Z</time>
      </trkpt>
      <trkpt lat="50.76486" lon="2.89816">
        <ele>61.8</ele>
        <time>2020-06-23T15:57:21Z</time>
      </trkpt>
      <trkpt lat="50.76487" lon="2.8982">
        <ele>61.7</ele>
        <time>2020-06-23T15:57:22Z</time>
      </trkpt>
      <trkpt lat="50.76489" lon="2.89825">
        <ele>61.7</ele>
        <time>2020-06-23T15:57:23Z</time>
      </trkpt>
      <trkpt lat="50.7649" lon="2.89831">
        <ele>61.7</ele>
        <time>2020-06-23T15:57:24Z</time>
      </trkpt>
      <trkpt lat="50.76491" lon="2.89838">
        <ele>61.6</ele>
        <time>2020-06-23T15:57:25Z</time>
      </trkpt>
      <trkpt lat="50.76493" lon="2.89843">
        <ele>61.6</ele>
        <time>2020-06-23T15:57:26Z</time>
      </trkpt>
      <trkpt lat="50.76495" lon="2.8985">
        <ele>61.6</ele>
        <time>2020-06-23T15:57:27Z</time>
      </trkpt>
      <trkpt lat="50.76497" lon="2.89856">
        <ele>61.6</ele>
        <time>2020-06-23T15:57:28Z</time>
      </trkpt>
      <trkpt lat="50.76498" lon="2.89861">
        <ele>61.5</ele>
        <time>2020-06-23T15:57:29Z</time>
      </trkpt>
      <trkpt lat="50.76498" lon="2.89867">
        <ele>61.5</ele>
        <time>2020-06-23T15:57:30Z</time>
      </trkpt>
      <trkpt lat="50.76499" lon="2.89871">
        <ele>61.4</ele>
        <time>2020-06-23T15:57:31Z</time>
      </trkpt>
      <trkpt lat="50.76501" lon="2.89876">
        <ele>61.4</ele>
        <time>2020-06-23T15:57:32Z</time>
      </trkpt>
      <trkpt lat="50.76502" lon="2.8988">
        <ele>61.3</ele>
        <time>2020-06-23T15:57:33Z</time>
      </trkpt>
      <trkpt lat="50.76504" lon="2.89885">
        <ele>61.2</ele>
        <time>2020-06-23T15:57:34Z</time>
      </trkpt>
      <trkpt lat="50.76505" lon="2.89889">
        <ele>61.2</ele>
        <time>2020-06-23T15:57:35Z</time>
      </trkpt>
      <trkpt lat="50.76506" lon="2.89891">
        <ele>61.2</ele>
        <time>2020-06-23T15:57:36Z</time>
      </trkpt>
      <trkpt lat="50.76507" lon="2.89893">
        <ele>61.2</ele>
        <time>2020-06-23T15:57:37Z</time>
      </trkpt>
      <trkpt lat="50.76508" lon="2.89895">
        <ele>61.2</ele>
        <time>2020-06-23T15:57:38Z</time>
      </trkpt>
      <trkpt lat="50.76508" lon="2.89895">
        <ele>61.2</ele>
        <time>2020-06-23T15:57:39Z</time>
      </trkpt>
      <trkpt lat="50.76507" lon="2.89896">
        <ele>61.1</ele>
        <time>2020-06-23T15:57:40Z</time>
      </trkpt>
      <trkpt lat="50.76505" lon="2.89896">
        <ele>61.1</ele>
        <time>2020-06-23T15:57:41Z</time>
      </trkpt>
      <trkpt lat="50.76502" lon="2.89897">
        <ele>61.1</ele>
        <time>2020-06-23T15:57:42Z</time>
      </trkpt>
      <trkpt lat="50.76498" lon="2.89896">
        <ele>61</ele>
        <time>2020-06-23T15:57:43Z</time>
      </trkpt>
      <trkpt lat="50.76495" lon="2.89898">
        <ele>60.9</ele>
        <time>2020-06-23T15:57:44Z</time>
      </trkpt>
      <trkpt lat="50.76491" lon="2.89898">
        <ele>60.8</ele>
        <time>2020-06-23T15:57:45Z</time>
      </trkpt>
      <trkpt lat="50.76487" lon="2.899">
        <ele>60.8</ele>
        <time>2020-06-23T15:57:46Z</time>
      </trkpt>
      <trkpt lat="50.76484" lon="2.89902">
        <ele>60.7</ele>
        <time>2020-06-23T15:57:47Z</time>
      </trkpt>
      <trkpt lat="50.76481" lon="2.89907">
        <ele>60.6</ele>
        <time>2020-06-23T15:57:48Z</time>
      </trkpt>
      <trkpt lat="50.76478" lon="2.8991">
        <ele>60.5</ele>
        <time>2020-06-23T15:57:49Z</time>
      </trkpt>
      <trkpt lat="50.76475" lon="2.89914">
        <ele>60.4</ele>
        <time>2020-06-23T15:57:50Z</time>
      </trkpt>
      <trkpt lat="50.76472" lon="2.89916">
        <ele>60.3</ele>
        <time>2020-06-23T15:57:51Z</time>
      </trkpt>
      <trkpt lat="50.7647" lon="2.89919">
        <ele>60.2</ele>
        <time>2020-06-23T15:57:52Z</time>
      </trkpt>
      <trkpt lat="50.76469" lon="2.89921">
        <ele>60.2</ele>
        <time>2020-06-23T15:57:53Z</time>
      </trkpt>
      <trkpt lat="50.76467" lon="2.89922">
        <ele>60.2</ele>
        <time>2020-06-23T15:57:54Z</time>
      </trkpt>
      <trkpt lat="50.76467" lon="2.89923">
        <ele>60.1</ele>
        <time>2020-06-23T15:57:55Z</time>
      </trkpt>
      <trkpt lat="50.76467" lon="2.89925">
        <ele>60.1</ele>
        <time>2020-06-23T15:57:56Z</time>
      </trkpt>
      <trkpt lat="50.76468" lon="2.89926">
        <ele>60.1</ele>
        <time>2020-06-23T15:57:57Z</time>
      </trkpt>
      <trkpt lat="50.76468" lon="2.89927">
        <ele>60.1</ele>
        <time>2020-06-23T15:57:58Z</time>
      </trkpt>
      <trkpt lat="50.76469" lon="2.89928">
        <ele>60</ele>
        <time>2020-06-23T15:57:59Z</time>
      </trkpt>
      <trkpt lat="50.76469" lon="2.89929">
        <ele>60</ele>
        <time>2020-06-23T15:58:00Z</time>
      </trkpt>
      <trkpt lat="50.76468" lon="2.89931">
        <ele>60</ele>
        <time>2020-06-23T15:58:01Z</time>
      </trkpt>
      <trkpt lat="50.76468" lon="2.89934">
        <ele>59.9</ele>
        <time>2020-06-23T15:58:02Z</time>
      </trkpt>
      <trkpt lat="50.76468" lon="2.89936">
        <ele>59.9</ele>
        <time>2020-06-23T15:58:03Z</time>
      </trkpt>
      <trkpt lat="50.76467" lon="2.89938">
        <ele>59.8</ele>
        <time>2020-06-23T15:58:04Z</time>
      </trkpt>
      <trkpt lat="50.76467" lon="2.89941">
        <ele>59.7</ele>
        <time>2020-06-23T15:58:16Z</time>
      </trkpt>
      <trkpt lat="50.76466" lon="2.89943">
        <ele>59.7</ele>
        <time>2020-06-23T15:58:17Z</time>
      </trkpt>
      <trkpt lat="50.76469" lon="2.89948">
        <ele>59.7</ele>
        <time>2020-06-23T15:58:18Z</time>
      </trkpt>
      <trkpt lat="50.7647" lon="2.89949">
        <ele>59.7</ele>
        <time>2020-06-23T15:58:19Z</time>
      </trkpt>
      <trkpt lat="50.76471" lon="2.8995">
        <ele>59.6</ele>
        <time>2020-06-23T15:58:20Z</time>
      </trkpt>
      <trkpt lat="50.76474" lon="2.89953">
        <ele>59.7</ele>
        <time>2020-06-23T15:58:21Z</time>
      </trkpt>
      <trkpt lat="50.76477" lon="2.89958">
        <ele>59.6</ele>
        <time>2020-06-23T15:58:22Z</time>
      </trkpt>
      <trkpt lat="50.76479" lon="2.89962">
        <ele>59.6</ele>
        <time>2020-06-23T15:58:23Z</time>
      </trkpt>
      <trkpt lat="50.76482" lon="2.89964">
        <ele>59.6</ele>
        <time>2020-06-23T15:58:24Z</time>
      </trkpt>
      <trkpt lat="50.76484" lon="2.89967">
        <ele>59.5</ele>
        <time>2020-06-23T15:58:25Z</time>
      </trkpt>
      <trkpt lat="50.76485" lon="2.89968">
        <ele>59.5</ele>
        <time>2020-06-23T15:58:26Z</time>
      </trkpt>
      <trkpt lat="50.76486" lon="2.89968">
        <ele>59.5</ele>
        <time>2020-06-23T15:58:27Z</time>
      </trkpt>
      <trkpt lat="50.76486" lon="2.89968">
        <ele>59.5</ele>
        <time>2020-06-23T15:58:28Z</time>
      </trkpt>
      <trkpt lat="50.76487" lon="2.89969">
        <ele>59.5</ele>
        <time>2020-06-23T15:58:29Z</time>
      </trkpt>
      <trkpt lat="50.76488" lon="2.89969">
        <ele>59.5</ele>
        <time>2020-06-23T15:58:30Z</time>
      </trkpt>
      <trkpt lat="50.76489" lon="2.89969">
        <ele>59.5</ele>
        <time>2020-06-23T15:58:31Z</time>
      </trkpt>
      <trkpt lat="50.76488" lon="2.89969">
        <ele>59.5</ele>
        <time>2020-06-23T15:58:32Z</time>
      </trkpt>
      <trkpt lat="50.76488" lon="2.89968">
        <ele>59.5</ele>
        <time>2020-06-23T15:58:33Z</time>
      </trkpt>
      <trkpt lat="50.76489" lon="2.8997">
        <ele>59.5</ele>
        <time>2020-06-23T15:58:34Z</time>
      </trkpt>
      <trkpt lat="50.76489" lon="2.89972">
        <ele>59.4</ele>
        <time>2020-06-23T15:58:35Z</time>
      </trkpt>
      <trkpt lat="50.76489" lon="2.89974">
        <ele>59.4</ele>
        <time>2020-06-23T15:58:36Z</time>
      </trkpt>
      <trkpt lat="50.76488" lon="2.89976">
        <ele>59.3</ele>
        <time>2020-06-23T15:58:37Z</time>
      </trkpt>
      <trkpt lat="50.76486" lon="2.89977">
        <ele>59.3</ele>
        <time>2020-06-23T15:58:38Z</time>
      </trkpt>
      <trkpt lat="50.76485" lon="2.89977">
        <ele>59.2</ele>
        <time>2020-06-23T15:58:39Z</time>
      </trkpt>
      <trkpt lat="50.76484" lon="2.89977">
        <ele>59.2</ele>
        <time>2020-06-23T15:58:40Z</time>
      </trkpt>
      <trkpt lat="50.76483" lon="2.89978">
        <ele>59.2</ele>
        <time>2020-06-23T15:58:41Z</time>
      </trkpt>
      <trkpt lat="50.76482" lon="2.89978">
        <ele>59.2</ele>
        <time>2020-06-23T15:58:42Z</time>
      </trkpt>
      <trkpt lat="50.76481" lon="2.89979">
        <ele>59.1</ele>
        <time>2020-06-23T15:58:43Z</time>
      </trkpt>
      <trkpt lat="50.7648" lon="2.8998">
        <ele>59</ele>
        <time>2020-06-23T15:58:44Z</time>
      </trkpt>
      <trkpt lat="50.76479" lon="2.89981">
        <ele>59</ele>
        <time>2020-06-23T15:58:45Z</time>
      </trkpt>
      <trkpt lat="50.76475" lon="2.89982">
        <ele>59</ele>
        <time>2020-06-23T15:58:46Z</time>
      </trkpt>
      <trkpt lat="50.76473" lon="2.89983">
        <ele>58.9</ele>
        <time>2020-06-23T15:58:47Z</time>
      </trkpt>
      <trkpt lat="50.76469" lon="2.89984">
        <ele>58.7</ele>
        <time>2020-06-23T15:58:48Z</time>
      </trkpt>
      <trkpt lat="50.76464" lon="2.89987">
        <ele>58.6</ele>
        <time>2020-06-23T15:58:49Z</time>
      </trkpt>
      <trkpt lat="50.76459" lon="2.8999">
        <ele>58.4</ele>
        <time>2020-06-23T15:58:50Z</time>
      </trkpt>
      <trkpt lat="50.76454" lon="2.89992">
        <ele>58.2</ele>
        <time>2020-06-23T15:58:51Z</time>
      </trkpt>
      <trkpt lat="50.76449" lon="2.89996">
        <ele>57.9</ele>
        <time>2020-06-23T15:58:52Z</time>
      </trkpt>
      <trkpt lat="50.76442" lon="2.89999">
        <ele>57.6</ele>
        <time>2020-06-23T15:58:53Z</time>
      </trkpt>
      <trkpt lat="50.76436" lon="2.90006">
        <ele>57.3</ele>
        <time>2020-06-23T15:58:54Z</time>
      </trkpt>
      <trkpt lat="50.7643" lon="2.90012">
        <ele>56.9</ele>
        <time>2020-06-23T15:58:55Z</time>
      </trkpt>
      <trkpt lat="50.76424" lon="2.9002">
        <ele>56.6</ele>
        <time>2020-06-23T15:58:56Z</time>
      </trkpt>
      <trkpt lat="50.76418" lon="2.90029">
        <ele>56.2</ele>
        <time>2020-06-23T15:58:57Z</time>
      </trkpt>
      <trkpt lat="50.76413" lon="2.9004">
        <ele>55.8</ele>
        <time>2020-06-23T15:58:58Z</time>
      </trkpt>
      <trkpt lat="50.76407" lon="2.90052">
        <ele>55.4</ele>
        <time>2020-06-23T15:58:59Z</time>
      </trkpt>
      <trkpt lat="50.76401" lon="2.90064">
        <ele>55</ele>
        <time>2020-06-23T15:59:00Z</time>
      </trkpt>
      <trkpt lat="50.76394" lon="2.90081">
        <ele>54.3</ele>
        <time>2020-06-23T15:59:01Z</time>
      </trkpt>
      <trkpt lat="50.76388" lon="2.90098">
        <ele>53.7</ele>
        <time>2020-06-23T15:59:02Z</time>
      </trkpt>
      <trkpt lat="50.76384" lon="2.90113">
        <ele>53.1</ele>
        <time>2020-06-23T15:59:03Z</time>
      </trkpt>
      <trkpt lat="50.7638" lon="2.90126">
        <ele>52.6</ele>
        <time>2020-06-23T15:59:04Z</time>
      </trkpt>
      <trkpt lat="50.76377" lon="2.9014">
        <ele>52</ele>
        <time>2020-06-23T15:59:05Z</time>
      </trkpt>
      <trkpt lat="50.76374" lon="2.90155">
        <ele>51.5</ele>
        <time>2020-06-23T15:59:06Z</time>
      </trkpt>
      <trkpt lat="50.76371" lon="2.90169">
        <ele>50.9</ele>
        <time>2020-06-23T15:59:07Z</time>
      </trkpt>
      <trkpt lat="50.76367" lon="2.90183">
        <ele>50.3</ele>
        <time>2020-06-23T15:59:08Z</time>
      </trkpt>
      <trkpt lat="50.76365" lon="2.90196">
        <ele>49.8</ele>
        <time>2020-06-23T15:59:09Z</time>
      </trkpt>
      <trkpt lat="50.76362" lon="2.90211">
        <ele>49.2</ele>
        <time>2020-06-23T15:59:10Z</time>
      </trkpt>
      <trkpt lat="50.7636" lon="2.90226">
        <ele>48.6</ele>
        <time>2020-06-23T15:59:11Z</time>
      </trkpt>
      <trkpt lat="50.76358" lon="2.90241">
        <ele>48</ele>
        <time>2020-06-23T15:59:12Z</time>
      </trkpt>
      <trkpt lat="50.76354" lon="2.90257">
        <ele>47.3</ele>
        <time>2020-06-23T15:59:13Z</time>
      </trkpt>
      <trkpt lat="50.76351" lon="2.90272">
        <ele>46.7</ele>
        <time>2020-06-23T15:59:14Z</time>
      </trkpt>
      <trkpt lat="50.76347" lon="2.90289">
        <ele>46</ele>
        <time>2020-06-23T15:59:15Z</time>
      </trkpt>
      <trkpt lat="50.76342" lon="2.90306">
        <ele>45.2</ele>
        <time>2020-06-23T15:59:16Z</time>
      </trkpt>
      <trkpt lat="50.76337" lon="2.90321">
        <ele>44.5</ele>
        <time>2020-06-23T15:59:17Z</time>
      </trkpt>
      <trkpt lat="50.76331" lon="2.90334">
        <ele>43.9</ele>
        <time>2020-06-23T15:59:18Z</time>
      </trkpt>
      <trkpt lat="50.76325" lon="2.90346">
        <ele>43.4</ele>
        <time>2020-06-23T15:59:19Z</time>
      </trkpt>
      <trkpt lat="50.76319" lon="2.90358">
        <ele>42.9</ele>
        <time>2020-06-23T15:59:20Z</time>
      </trkpt>
      <trkpt lat="50.76314" lon="2.90371">
        <ele>42.5</ele>
        <time>2020-06-23T15:59:21Z</time>
      </trkpt>
      <trkpt lat="50.76308" lon="2.90383">
        <ele>42</ele>
        <time>2020-06-23T15:59:22Z</time>
      </trkpt>
      <trkpt lat="50.76303" lon="2.90393">
        <ele>41.6</ele>
        <time>2020-06-23T15:59:23Z</time>
      </trkpt>
      <trkpt lat="50.76297" lon="2.90406">
        <ele>41.1</ele>
        <time>2020-06-23T15:59:24Z</time>
      </trkpt>
      <trkpt lat="50.7629" lon="2.90417">
        <ele>40.7</ele>
        <time>2020-06-23T15:59:25Z</time>
      </trkpt>
      <trkpt lat="50.76284" lon="2.9043">
        <ele>40.2</ele>
        <time>2020-06-23T15:59:26Z</time>
      </trkpt>
      <trkpt lat="50.76278" lon="2.90443">
        <ele>39.6</ele>
        <time>2020-06-23T15:59:27Z</time>
      </trkpt>
      <trkpt lat="50.76272" lon="2.90455">
        <ele>39.4</ele>
        <time>2020-06-23T15:59:28Z</time>
      </trkpt>
      <trkpt lat="50.76267" lon="2.90466">
        <ele>39.3</ele>
        <time>2020-06-23T15:59:29Z</time>
      </trkpt>
      <trkpt lat="50.76262" lon="2.90475">
        <ele>39.2</ele>
        <time>2020-06-23T15:59:30Z</time>
      </trkpt>
      <trkpt lat="50.76257" lon="2.90487">
        <ele>39</ele>
        <time>2020-06-23T15:59:31Z</time>
      </trkpt>
      <trkpt lat="50.76252" lon="2.90499">
        <ele>38.7</ele>
        <time>2020-06-23T15:59:32Z</time>
      </trkpt>
      <trkpt lat="50.76246" lon="2.90511">
        <ele>38.2</ele>
        <time>2020-06-23T15:59:33Z</time>
      </trkpt>
      <trkpt lat="50.7624" lon="2.90523">
        <ele>37.8</ele>
        <time>2020-06-23T15:59:34Z</time>
      </trkpt>
      <trkpt lat="50.76235" lon="2.90535">
        <ele>37.4</ele>
        <time>2020-06-23T15:59:35Z</time>
      </trkpt>
      <trkpt lat="50.7623" lon="2.90546">
        <ele>37.1</ele>
        <time>2020-06-23T15:59:36Z</time>
      </trkpt>
      <trkpt lat="50.76224" lon="2.90558">
        <ele>36.7</ele>
        <time>2020-06-23T15:59:37Z</time>
      </trkpt>
      <trkpt lat="50.76217" lon="2.90571">
        <ele>36.4</ele>
        <time>2020-06-23T15:59:38Z</time>
      </trkpt>
      <trkpt lat="50.76211" lon="2.90584">
        <ele>36</ele>
        <time>2020-06-23T15:59:39Z</time>
      </trkpt>
      <trkpt lat="50.76205" lon="2.90598">
        <ele>35.7</ele>
        <time>2020-06-23T15:59:40Z</time>
      </trkpt>
      <trkpt lat="50.76198" lon="2.90611">
        <ele>35.4</ele>
        <time>2020-06-23T15:59:41Z</time>
      </trkpt>
      <trkpt lat="50.76192" lon="2.90622">
        <ele>35.2</ele>
        <time>2020-06-23T15:59:42Z</time>
      </trkpt>
      <trkpt lat="50.76186" lon="2.90635">
        <ele>34.9</ele>
        <time>2020-06-23T15:59:43Z</time>
      </trkpt>
      <trkpt lat="50.7618" lon="2.90648">
        <ele>34.6</ele>
        <time>2020-06-23T15:59:44Z</time>
      </trkpt>
      <trkpt lat="50.76174" lon="2.90662">
        <ele>34.3</ele>
        <time>2020-06-23T15:59:45Z</time>
      </trkpt>
      <trkpt lat="50.76168" lon="2.90674">
        <ele>34.1</ele>
        <time>2020-06-23T15:59:46Z</time>
      </trkpt>
      <trkpt lat="50.76162" lon="2.90685">
        <ele>33.8</ele>
        <time>2020-06-23T15:59:47Z</time>
      </trkpt>
      <trkpt lat="50.76155" lon="2.90698">
        <ele>33.6</ele>
        <time>2020-06-23T15:59:48Z</time>
      </trkpt>
      <trkpt lat="50.76148" lon="2.90708">
        <ele>33.4</ele>
        <time>2020-06-23T15:59:49Z</time>
      </trkpt>
      <trkpt lat="50.76141" lon="2.90719">
        <ele>33.2</ele>
        <time>2020-06-23T15:59:50Z</time>
      </trkpt>
      <trkpt lat="50.76134" lon="2.9073">
        <ele>32.9</ele>
        <time>2020-06-23T15:59:51Z</time>
      </trkpt>
      <trkpt lat="50.76127" lon="2.9074">
        <ele>32.7</ele>
        <time>2020-06-23T15:59:52Z</time>
      </trkpt>
      <trkpt lat="50.7612" lon="2.90748">
        <ele>32.5</ele>
        <time>2020-06-23T15:59:53Z</time>
      </trkpt>
      <trkpt lat="50.76111" lon="2.90755">
        <ele>32.3</ele>
        <time>2020-06-23T15:59:54Z</time>
      </trkpt>
      <trkpt lat="50.76102" lon="2.90763">
        <ele>32.1</ele>
        <time>2020-06-23T15:59:55Z</time>
      </trkpt>
      <trkpt lat="50.76094" lon="2.90772">
        <ele>31.9</ele>
        <time>2020-06-23T15:59:56Z</time>
      </trkpt>
      <trkpt lat="50.76085" lon="2.90781">
        <ele>31.7</ele>
        <time>2020-06-23T15:59:57Z</time>
      </trkpt>
      <trkpt lat="50.76077" lon="2.9079">
        <ele>31.4</ele>
        <time>2020-06-23T15:59:58Z</time>
      </trkpt>
      <trkpt lat="50.76068" lon="2.90798">
        <ele>31.2</ele>
        <time>2020-06-23T15:59:59Z</time>
      </trkpt>
      <trkpt lat="50.76059" lon="2.90807">
        <ele>31</ele>
        <time>2020-06-23T16:00:00Z</time>
      </trkpt>
      <trkpt lat="50.76051" lon="2.90815">
        <ele>30.9</ele>
        <time>2020-06-23T16:00:01Z</time>
      </trkpt>
      <trkpt lat="50.76043" lon="2.90822">
        <ele>30.8</ele>
        <time>2020-06-23T16:00:02Z</time>
      </trkpt>
      <trkpt lat="50.76035" lon="2.9083">
        <ele>30.6</ele>
        <time>2020-06-23T16:00:03Z</time>
      </trkpt>
      <trkpt lat="50.76027" lon="2.90838">
        <ele>30.4</ele>
        <time>2020-06-23T16:00:04Z</time>
      </trkpt>
      <trkpt lat="50.7602" lon="2.90846">
        <ele>30.2</ele>
        <time>2020-06-23T16:00:05Z</time>
      </trkpt>
      <trkpt lat="50.76012" lon="2.90854">
        <ele>30.1</ele>
        <time>2020-06-23T16:00:06Z</time>
      </trkpt>
      <trkpt lat="50.76003" lon="2.90863">
        <ele>29.9</ele>
        <time>2020-06-23T16:00:07Z</time>
      </trkpt>
      <trkpt lat="50.75995" lon="2.90871">
        <ele>29.7</ele>
        <time>2020-06-23T16:00:08Z</time>
      </trkpt>
      <trkpt lat="50.75987" lon="2.90878">
        <ele>29.5</ele>
        <time>2020-06-23T16:00:09Z</time>
      </trkpt>
      <trkpt lat="50.7598" lon="2.90886">
        <ele>29.3</ele>
        <time>2020-06-23T16:00:10Z</time>
      </trkpt>
      <trkpt lat="50.75972" lon="2.90894">
        <ele>29.1</ele>
        <time>2020-06-23T16:00:11Z</time>
      </trkpt>
      <trkpt lat="50.75964" lon="2.90902">
        <ele>29</ele>
        <time>2020-06-23T16:00:12Z</time>
      </trkpt>
      <trkpt lat="50.75958" lon="2.9091">
        <ele>28.9</ele>
        <time>2020-06-23T16:00:13Z</time>
      </trkpt>
      <trkpt lat="50.75951" lon="2.90917">
        <ele>28.9</ele>
        <time>2020-06-23T16:00:14Z</time>
      </trkpt>
      <trkpt lat="50.75943" lon="2.90924">
        <ele>28.8</ele>
        <time>2020-06-23T16:00:15Z</time>
      </trkpt>
      <trkpt lat="50.75935" lon="2.90932">
        <ele>28.8</ele>
        <time>2020-06-23T16:00:16Z</time>
      </trkpt>
      <trkpt lat="50.75928" lon="2.90939">
        <ele>28.7</ele>
        <time>2020-06-23T16:00:17Z</time>
      </trkpt>
      <trkpt lat="50.7592" lon="2.90946">
        <ele>28.6</ele>
        <time>2020-06-23T16:00:18Z</time>
      </trkpt>
      <trkpt lat="50.75914" lon="2.90953">
        <ele>28.5</ele>
        <time>2020-06-23T16:00:19Z</time>
      </trkpt>
      <trkpt lat="50.75907" lon="2.9096">
        <ele>28.3</ele>
        <time>2020-06-23T16:00:20Z</time>
      </trkpt>
      <trkpt lat="50.75901" lon="2.90967">
        <ele>28.2</ele>
        <time>2020-06-23T16:00:21Z</time>
      </trkpt>
      <trkpt lat="50.75894" lon="2.90975">
        <ele>28</ele>
        <time>2020-06-23T16:00:22Z</time>
      </trkpt>
      <trkpt lat="50.75887" lon="2.90984">
        <ele>28</ele>
        <time>2020-06-23T16:00:23Z</time>
      </trkpt>
      <trkpt lat="50.75881" lon="2.90992">
        <ele>27.9</ele>
        <time>2020-06-23T16:00:24Z</time>
      </trkpt>
      <trkpt lat="50.75874" lon="2.91">
        <ele>27.7</ele>
        <time>2020-06-23T16:00:25Z</time>
      </trkpt>
      <trkpt lat="50.75868" lon="2.91007">
        <ele>27.4</ele>
        <time>2020-06-23T16:00:26Z</time>
      </trkpt>
      <trkpt lat="50.75861" lon="2.91013">
        <ele>27.1</ele>
        <time>2020-06-23T16:00:27Z</time>
      </trkpt>
      <trkpt lat="50.75854" lon="2.91019">
        <ele>26.9</ele>
        <time>2020-06-23T16:00:28Z</time>
      </trkpt>
      <trkpt lat="50.75847" lon="2.91024">
        <ele>26.8</ele>
        <time>2020-06-23T16:00:29Z</time>
      </trkpt>
      <trkpt lat="50.75841" lon="2.91031">
        <ele>26.6</ele>
        <time>2020-06-23T16:00:30Z</time>
      </trkpt>
      <trkpt lat="50.75835" lon="2.91037">
        <ele>26.5</ele>
        <time>2020-06-23T16:00:31Z</time>
      </trkpt>
      <trkpt lat="50.75828" lon="2.91045">
        <ele>26.3</ele>
        <time>2020-06-23T16:00:32Z</time>
      </trkpt>
      <trkpt lat="50.75822" lon="2.91053">
        <ele>26.2</ele>
        <time>2020-06-23T16:00:33Z</time>
      </trkpt>
      <trkpt lat="50.75815" lon="2.91059">
        <ele>26.1</ele>
        <time>2020-06-23T16:00:34Z</time>
      </trkpt>
      <trkpt lat="50.75808" lon="2.91065">
        <ele>25.9</ele>
        <time>2020-06-23T16:00:35Z</time>
      </trkpt>
      <trkpt lat="50.75802" lon="2.9107">
        <ele>25.8</ele>
        <time>2020-06-23T16:00:36Z</time>
      </trkpt>
      <trkpt lat="50.75796" lon="2.91076">
        <ele>25.6</ele>
        <time>2020-06-23T16:00:37Z</time>
      </trkpt>
      <trkpt lat="50.7579" lon="2.91081">
        <ele>25.5</ele>
        <time>2020-06-23T16:00:38Z</time>
      </trkpt>
      <trkpt lat="50.75783" lon="2.91087">
        <ele>25.3</ele>
        <time>2020-06-23T16:00:39Z</time>
      </trkpt>
      <trkpt lat="50.75777" lon="2.91093">
        <ele>25.2</ele>
        <time>2020-06-23T16:00:40Z</time>
      </trkpt>
      <trkpt lat="50.75771" lon="2.911">
        <ele>25.1</ele>
        <time>2020-06-23T16:00:41Z</time>
      </trkpt>
      <trkpt lat="50.75764" lon="2.91107">
        <ele>25</ele>
        <time>2020-06-23T16:00:42Z</time>
      </trkpt>
      <trkpt lat="50.75756" lon="2.91113">
        <ele>24.8</ele>
        <time>2020-06-23T16:00:43Z</time>
      </trkpt>
      <trkpt lat="50.7575" lon="2.9112">
        <ele>24.7</ele>
        <time>2020-06-23T16:00:44Z</time>
      </trkpt>
      <trkpt lat="50.75744" lon="2.91126">
        <ele>24.5</ele>
        <time>2020-06-23T16:00:45Z</time>
      </trkpt>
      <trkpt lat="50.75739" lon="2.91133">
        <ele>24.3</ele>
        <time>2020-06-23T16:00:46Z</time>
      </trkpt>
      <trkpt lat="50.75733" lon="2.91138">
        <ele>24.1</ele>
        <time>2020-06-23T16:00:47Z</time>
      </trkpt>
      <trkpt lat="50.75728" lon="2.91145">
        <ele>23.9</ele>
        <time>2020-06-23T16:00:48Z</time>
      </trkpt>
      <trkpt lat="50.75722" lon="2.9115">
        <ele>23.7</ele>
        <time>2020-06-23T16:00:49Z</time>
      </trkpt>
      <trkpt lat="50.75715" lon="2.91156">
        <ele>23.5</ele>
        <time>2020-06-23T16:00:50Z</time>
      </trkpt>
      <trkpt lat="50.75709" lon="2.91162">
        <ele>23.3</ele>
        <time>2020-06-23T16:00:51Z</time>
      </trkpt>
      <trkpt lat="50.75703" lon="2.91168">
        <ele>23.1</ele>
        <time>2020-06-23T16:00:52Z</time>
      </trkpt>
      <trkpt lat="50.75696" lon="2.91174">
        <ele>22.9</ele>
        <time>2020-06-23T16:00:53Z</time>
      </trkpt>
      <trkpt lat="50.7569" lon="2.91181">
        <ele>22.7</ele>
        <time>2020-06-23T16:00:54Z</time>
      </trkpt>
      <trkpt lat="50.75684" lon="2.91188">
        <ele>22.6</ele>
        <time>2020-06-23T16:00:55Z</time>
      </trkpt>
      <trkpt lat="50.75677" lon="2.91194">
        <ele>22.4</ele>
        <time>2020-06-23T16:00:56Z</time>
      </trkpt>
      <trkpt lat="50.75671" lon="2.91201">
        <ele>22.2</ele>
        <time>2020-06-23T16:00:57Z</time>
      </trkpt>
      <trkpt lat="50.75665" lon="2.91208">
        <ele>22</ele>
        <time>2020-06-23T16:00:58Z</time>
      </trkpt>
      <trkpt lat="50.75659" lon="2.91214">
        <ele>21.9</ele>
        <time>2020-06-23T16:00:59Z</time>
      </trkpt>
      <trkpt lat="50.75652" lon="2.91221">
        <ele>21.7</ele>
        <time>2020-06-23T16:01:00Z</time>
      </trkpt>
      <trkpt lat="50.75645" lon="2.91228">
        <ele>21.5</ele>
        <time>2020-06-23T16:01:01Z</time>
      </trkpt>
      <trkpt lat="50.75638" lon="2.91235">
        <ele>21.3</ele>
        <time>2020-06-23T16:01:02Z</time>
      </trkpt>
      <trkpt lat="50.75631" lon="2.91241">
        <ele>21.2</ele>
        <time>2020-06-23T16:01:03Z</time>
      </trkpt>
      <trkpt lat="50.75624" lon="2.91247">
        <ele>21</ele>
        <time>2020-06-23T16:01:04Z</time>
      </trkpt>
      <trkpt lat="50.75617" lon="2.91253">
        <ele>20.9</ele>
        <time>2020-06-23T16:01:05Z</time>
      </trkpt>
      <trkpt lat="50.75611" lon="2.9126">
        <ele>20.8</ele>
        <time>2020-06-23T16:01:06Z</time>
      </trkpt>
      <trkpt lat="50.75605" lon="2.91266">
        <ele>20.7</ele>
        <time>2020-06-23T16:01:07Z</time>
      </trkpt>
      <trkpt lat="50.75599" lon="2.91272">
        <ele>20.6</ele>
        <time>2020-06-23T16:01:08Z</time>
      </trkpt>
      <trkpt lat="50.75592" lon="2.91278">
        <ele>20.5</ele>
        <time>2020-06-23T16:01:09Z</time>
      </trkpt>
      <trkpt lat="50.75586" lon="2.91285">
        <ele>20.4</ele>
        <time>2020-06-23T16:01:10Z</time>
      </trkpt>
      <trkpt lat="50.75579" lon="2.91291">
        <ele>20.4</ele>
        <time>2020-06-23T16:01:11Z</time>
      </trkpt>
      <trkpt lat="50.75573" lon="2.91298">
        <ele>20.3</ele>
        <time>2020-06-23T16:01:12Z</time>
      </trkpt>
      <trkpt lat="50.75567" lon="2.91304">
        <ele>20.3</ele>
        <time>2020-06-23T16:01:13Z</time>
      </trkpt>
      <trkpt lat="50.75561" lon="2.91311">
        <ele>20.3</ele>
        <time>2020-06-23T16:01:14Z</time>
      </trkpt>
      <trkpt lat="50.75555" lon="2.91318">
        <ele>20.3</ele>
        <time>2020-06-23T16:01:15Z</time>
      </trkpt>
      <trkpt lat="50.75549" lon="2.91323">
        <ele>20.3</ele>
        <time>2020-06-23T16:01:16Z</time>
      </trkpt>
      <trkpt lat="50.75542" lon="2.9133">
        <ele>20.6</ele>
        <time>2020-06-23T16:01:17Z</time>
      </trkpt>
      <trkpt lat="50.75536" lon="2.91336">
        <ele>20.7</ele>
        <time>2020-06-23T16:01:18Z</time>
      </trkpt>
      <trkpt lat="50.7553" lon="2.91341">
        <ele>20.5</ele>
        <time>2020-06-23T16:01:19Z</time>
      </trkpt>
      <trkpt lat="50.75523" lon="2.91347">
        <ele>20.4</ele>
        <time>2020-06-23T16:01:20Z</time>
      </trkpt>
      <trkpt lat="50.75517" lon="2.91352">
        <ele>20.3</ele>
        <time>2020-06-23T16:01:21Z</time>
      </trkpt>
      <trkpt lat="50.75511" lon="2.91357">
        <ele>20.2</ele>
        <time>2020-06-23T16:01:22Z</time>
      </trkpt>
      <trkpt lat="50.75505" lon="2.91361">
        <ele>20.2</ele>
        <time>2020-06-23T16:01:23Z</time>
      </trkpt>
      <trkpt lat="50.75499" lon="2.91364">
        <ele>20.2</ele>
        <time>2020-06-23T16:01:24Z</time>
      </trkpt>
      <trkpt lat="50.75493" lon="2.91368">
        <ele>20.2</ele>
        <time>2020-06-23T16:01:25Z</time>
      </trkpt>
      <trkpt lat="50.75487" lon="2.91371">
        <ele>20.3</ele>
        <time>2020-06-23T16:01:26Z</time>
      </trkpt>
      <trkpt lat="50.75481" lon="2.91375">
        <ele>20.3</ele>
        <time>2020-06-23T16:01:27Z</time>
      </trkpt>
      <trkpt lat="50.75476" lon="2.91379">
        <ele>20.4</ele>
        <time>2020-06-23T16:01:28Z</time>
      </trkpt>
      <trkpt lat="50.7547" lon="2.91383">
        <ele>20.5</ele>
        <time>2020-06-23T16:01:29Z</time>
      </trkpt>
      <trkpt lat="50.75464" lon="2.91388">
        <ele>20.6</ele>
        <time>2020-06-23T16:01:30Z</time>
      </trkpt>
      <trkpt lat="50.75459" lon="2.91391">
        <ele>20.7</ele>
        <time>2020-06-23T16:01:31Z</time>
      </trkpt>
      <trkpt lat="50.75453" lon="2.91395">
        <ele>20.7</ele>
        <time>2020-06-23T16:01:32Z</time>
      </trkpt>
      <trkpt lat="50.75448" lon="2.91398">
        <ele>20.8</ele>
        <time>2020-06-23T16:01:33Z</time>
      </trkpt>
      <trkpt lat="50.75442" lon="2.91402">
        <ele>21</ele>
        <time>2020-06-23T16:01:34Z</time>
      </trkpt>
      <trkpt lat="50.75435" lon="2.91406">
        <ele>21.1</ele>
        <time>2020-06-23T16:01:35Z</time>
      </trkpt>
      <trkpt lat="50.75429" lon="2.9141">
        <ele>21.2</ele>
        <time>2020-06-23T16:01:36Z</time>
      </trkpt>
      <trkpt lat="50.75423" lon="2.91413">
        <ele>21.3</ele>
        <time>2020-06-23T16:01:37Z</time>
      </trkpt>
      <trkpt lat="50.75417" lon="2.91417">
        <ele>21.4</ele>
        <time>2020-06-23T16:01:38Z</time>
      </trkpt>
      <trkpt lat="50.7541" lon="2.91419">
        <ele>21.5</ele>
        <time>2020-06-23T16:01:39Z</time>
      </trkpt>
      <trkpt lat="50.75404" lon="2.91423">
        <ele>21.5</ele>
        <time>2020-06-23T16:01:40Z</time>
      </trkpt>
      <trkpt lat="50.75399" lon="2.91427">
        <ele>21.6</ele>
        <time>2020-06-23T16:01:41Z</time>
      </trkpt>
      <trkpt lat="50.75392" lon="2.9143">
        <ele>21.7</ele>
        <time>2020-06-23T16:01:42Z</time>
      </trkpt>
      <trkpt lat="50.75386" lon="2.91432">
        <ele>21.8</ele>
        <time>2020-06-23T16:01:43Z</time>
      </trkpt>
      <trkpt lat="50.75381" lon="2.91434">
        <ele>21.9</ele>
        <time>2020-06-23T16:01:44Z</time>
      </trkpt>
      <trkpt lat="50.75374" lon="2.91438">
        <ele>22.1</ele>
        <time>2020-06-23T16:01:45Z</time>
      </trkpt>
      <trkpt lat="50.75368" lon="2.91441">
        <ele>22.2</ele>
        <time>2020-06-23T16:01:46Z</time>
      </trkpt>
      <trkpt lat="50.75362" lon="2.91445">
        <ele>22.2</ele>
        <time>2020-06-23T16:01:47Z</time>
      </trkpt>
      <trkpt lat="50.75357" lon="2.91449">
        <ele>22.3</ele>
        <time>2020-06-23T16:01:48Z</time>
      </trkpt>
      <trkpt lat="50.75353" lon="2.91453">
        <ele>22.3</ele>
        <time>2020-06-23T16:01:49Z</time>
      </trkpt>
      <trkpt lat="50.75348" lon="2.91457">
        <ele>22.4</ele>
        <time>2020-06-23T16:01:50Z</time>
      </trkpt>
      <trkpt lat="50.75342" lon="2.91461">
        <ele>22.3</ele>
        <time>2020-06-23T16:01:51Z</time>
      </trkpt>
      <trkpt lat="50.75337" lon="2.91464">
        <ele>22.2</ele>
        <time>2020-06-23T16:01:52Z</time>
      </trkpt>
      <trkpt lat="50.75332" lon="2.91468">
        <ele>22.1</ele>
        <time>2020-06-23T16:01:53Z</time>
      </trkpt>
      <trkpt lat="50.75327" lon="2.91471">
        <ele>22.1</ele>
        <time>2020-06-23T16:01:54Z</time>
      </trkpt>
      <trkpt lat="50.75323" lon="2.91474">
        <ele>22.1</ele>
        <time>2020-06-23T16:01:55Z</time>
      </trkpt>
      <trkpt lat="50.75318" lon="2.91478">
        <ele>22.1</ele>
        <time>2020-06-23T16:01:56Z</time>
      </trkpt>
      <trkpt lat="50.75313" lon="2.91482">
        <ele>22.2</ele>
        <time>2020-06-23T16:01:57Z</time>
      </trkpt>
      <trkpt lat="50.75308" lon="2.91486">
        <ele>22.2</ele>
        <time>2020-06-23T16:01:58Z</time>
      </trkpt>
      <trkpt lat="50.75302" lon="2.9149">
        <ele>22.3</ele>
        <time>2020-06-23T16:01:59Z</time>
      </trkpt>
      <trkpt lat="50.75297" lon="2.91494">
        <ele>22.5</ele>
        <time>2020-06-23T16:02:00Z</time>
      </trkpt>
      <trkpt lat="50.75291" lon="2.91498">
        <ele>22.6</ele>
        <time>2020-06-23T16:02:01Z</time>
      </trkpt>
      <trkpt lat="50.75287" lon="2.91502">
        <ele>22.6</ele>
        <time>2020-06-23T16:02:02Z</time>
      </trkpt>
      <trkpt lat="50.75282" lon="2.91505">
        <ele>22.7</ele>
        <time>2020-06-23T16:02:03Z</time>
      </trkpt>
      <trkpt lat="50.75277" lon="2.91508">
        <ele>22.7</ele>
        <time>2020-06-23T16:02:04Z</time>
      </trkpt>
      <trkpt lat="50.75271" lon="2.91512">
        <ele>22.7</ele>
        <time>2020-06-23T16:02:05Z</time>
      </trkpt>
      <trkpt lat="50.75267" lon="2.91515">
        <ele>22.8</ele>
        <time>2020-06-23T16:02:06Z</time>
      </trkpt>
      <trkpt lat="50.75262" lon="2.91518">
        <ele>22.8</ele>
        <time>2020-06-23T16:02:07Z</time>
      </trkpt>
      <trkpt lat="50.75257" lon="2.91522">
        <ele>22.8</ele>
        <time>2020-06-23T16:02:08Z</time>
      </trkpt>
      <trkpt lat="50.75251" lon="2.91527">
        <ele>22.9</ele>
        <time>2020-06-23T16:02:09Z</time>
      </trkpt>
      <trkpt lat="50.75245" lon="2.91531">
        <ele>22.9</ele>
        <time>2020-06-23T16:02:10Z</time>
      </trkpt>
      <trkpt lat="50.7524" lon="2.91536">
        <ele>23</ele>
        <time>2020-06-23T16:02:11Z</time>
      </trkpt>
      <trkpt lat="50.75236" lon="2.9154">
        <ele>23</ele>
        <time>2020-06-23T16:02:12Z</time>
      </trkpt>
      <trkpt lat="50.7523" lon="2.91544">
        <ele>23.1</ele>
        <time>2020-06-23T16:02:13Z</time>
      </trkpt>
      <trkpt lat="50.75225" lon="2.91549">
        <ele>23.2</ele>
        <time>2020-06-23T16:02:14Z</time>
      </trkpt>
      <trkpt lat="50.7522" lon="2.91553">
        <ele>23.2</ele>
        <time>2020-06-23T16:02:15Z</time>
      </trkpt>
      <trkpt lat="50.75215" lon="2.91556">
        <ele>23.3</ele>
        <time>2020-06-23T16:02:16Z</time>
      </trkpt>
      <trkpt lat="50.7521" lon="2.91559">
        <ele>23.3</ele>
        <time>2020-06-23T16:02:17Z</time>
      </trkpt>
      <trkpt lat="50.75205" lon="2.91561">
        <ele>23.4</ele>
        <time>2020-06-23T16:02:18Z</time>
      </trkpt>
      <trkpt lat="50.752" lon="2.91564">
        <ele>23.5</ele>
        <time>2020-06-23T16:02:19Z</time>
      </trkpt>
      <trkpt lat="50.75195" lon="2.91567">
        <ele>23.5</ele>
        <time>2020-06-23T16:02:20Z</time>
      </trkpt>
      <trkpt lat="50.75189" lon="2.9157">
        <ele>23.6</ele>
        <time>2020-06-23T16:02:21Z</time>
      </trkpt>
      <trkpt lat="50.75184" lon="2.91573">
        <ele>23.7</ele>
        <time>2020-06-23T16:02:22Z</time>
      </trkpt>
      <trkpt lat="50.75179" lon="2.91576">
        <ele>23.7</ele>
        <time>2020-06-23T16:02:23Z</time>
      </trkpt>
      <trkpt lat="50.75174" lon="2.91579">
        <ele>23.8</ele>
        <time>2020-06-23T16:02:24Z</time>
      </trkpt>
      <trkpt lat="50.75169" lon="2.91582">
        <ele>23.9</ele>
        <time>2020-06-23T16:02:25Z</time>
      </trkpt>
      <trkpt lat="50.75164" lon="2.91585">
        <ele>23.9</ele>
        <time>2020-06-23T16:02:26Z</time>
      </trkpt>
      <trkpt lat="50.75159" lon="2.91588">
        <ele>24</ele>
        <time>2020-06-23T16:02:27Z</time>
      </trkpt>
      <trkpt lat="50.75153" lon="2.91591">
        <ele>24</ele>
        <time>2020-06-23T16:02:28Z</time>
      </trkpt>
      <trkpt lat="50.75148" lon="2.91596">
        <ele>24.1</ele>
        <time>2020-06-23T16:02:29Z</time>
      </trkpt>
      <trkpt lat="50.75142" lon="2.916">
        <ele>24.1</ele>
        <time>2020-06-23T16:02:30Z</time>
      </trkpt>
      <trkpt lat="50.75137" lon="2.91605">
        <ele>24.2</ele>
        <time>2020-06-23T16:02:31Z</time>
      </trkpt>
      <trkpt lat="50.75131" lon="2.9161">
        <ele>24.2</ele>
        <time>2020-06-23T16:02:32Z</time>
      </trkpt>
      <trkpt lat="50.75125" lon="2.91613">
        <ele>24.3</ele>
        <time>2020-06-23T16:02:33Z</time>
      </trkpt>
      <trkpt lat="50.7512" lon="2.91616">
        <ele>24.3</ele>
        <time>2020-06-23T16:02:34Z</time>
      </trkpt>
      <trkpt lat="50.75115" lon="2.91619">
        <ele>24.3</ele>
        <time>2020-06-23T16:02:35Z</time>
      </trkpt>
      <trkpt lat="50.75109" lon="2.91622">
        <ele>24.4</ele>
        <time>2020-06-23T16:02:36Z</time>
      </trkpt>
      <trkpt lat="50.75103" lon="2.91625">
        <ele>24.4</ele>
        <time>2020-06-23T16:02:37Z</time>
      </trkpt>
      <trkpt lat="50.75099" lon="2.91629">
        <ele>24.4</ele>
        <time>2020-06-23T16:02:38Z</time>
      </trkpt>
      <trkpt lat="50.75094" lon="2.91633">
        <ele>24.5</ele>
        <time>2020-06-23T16:02:39Z</time>
      </trkpt>
      <trkpt lat="50.75089" lon="2.91638">
        <ele>24.5</ele>
        <time>2020-06-23T16:02:40Z</time>
      </trkpt>
      <trkpt lat="50.75084" lon="2.91642">
        <ele>24.6</ele>
        <time>2020-06-23T16:02:41Z</time>
      </trkpt>
      <trkpt lat="50.7508" lon="2.91646">
        <ele>24.7</ele>
        <time>2020-06-23T16:02:42Z</time>
      </trkpt>
      <trkpt lat="50.75075" lon="2.9165">
        <ele>24.8</ele>
        <time>2020-06-23T16:02:43Z</time>
      </trkpt>
      <trkpt lat="50.7507" lon="2.91652">
        <ele>24.8</ele>
        <time>2020-06-23T16:02:44Z</time>
      </trkpt>
      <trkpt lat="50.75066" lon="2.91655">
        <ele>24.9</ele>
        <time>2020-06-23T16:02:45Z</time>
      </trkpt>
      <trkpt lat="50.75061" lon="2.9166">
        <ele>24.9</ele>
        <time>2020-06-23T16:02:46Z</time>
      </trkpt>
      <trkpt lat="50.75057" lon="2.91666">
        <ele>25</ele>
        <time>2020-06-23T16:02:47Z</time>
      </trkpt>
      <trkpt lat="50.75055" lon="2.91674">
        <ele>24.9</ele>
        <time>2020-06-23T16:02:48Z</time>
      </trkpt>
      <trkpt lat="50.75054" lon="2.91683">
        <ele>24.8</ele>
        <time>2020-06-23T16:02:49Z</time>
      </trkpt>
      <trkpt lat="50.75054" lon="2.91691">
        <ele>24.8</ele>
        <time>2020-06-23T16:02:50Z</time>
      </trkpt>
      <trkpt lat="50.75056" lon="2.91699">
        <ele>24.7</ele>
        <time>2020-06-23T16:02:51Z</time>
      </trkpt>
      <trkpt lat="50.75057" lon="2.91706">
        <ele>24.6</ele>
        <time>2020-06-23T16:02:52Z</time>
      </trkpt>
      <trkpt lat="50.75058" lon="2.91714">
        <ele>24.6</ele>
        <time>2020-06-23T16:02:53Z</time>
      </trkpt>
      <trkpt lat="50.7506" lon="2.91722">
        <ele>24.6</ele>
        <time>2020-06-23T16:02:54Z</time>
      </trkpt>
      <trkpt lat="50.75062" lon="2.91729">
        <ele>24.5</ele>
        <time>2020-06-23T16:02:55Z</time>
      </trkpt>
      <trkpt lat="50.75064" lon="2.91736">
        <ele>24.5</ele>
        <time>2020-06-23T16:02:56Z</time>
      </trkpt>
      <trkpt lat="50.75065" lon="2.91743">
        <ele>24.5</ele>
        <time>2020-06-23T16:02:57Z</time>
      </trkpt>
      <trkpt lat="50.75067" lon="2.91751">
        <ele>24.5</ele>
        <time>2020-06-23T16:02:58Z</time>
      </trkpt>
      <trkpt lat="50.75069" lon="2.9176">
        <ele>24.5</ele>
        <time>2020-06-23T16:02:59Z</time>
      </trkpt>
      <trkpt lat="50.75072" lon="2.9177">
        <ele>24.4</ele>
        <time>2020-06-23T16:03:00Z</time>
      </trkpt>
      <trkpt lat="50.75074" lon="2.91777">
        <ele>24.4</ele>
        <time>2020-06-23T16:03:01Z</time>
      </trkpt>
      <trkpt lat="50.75076" lon="2.91786">
        <ele>24.4</ele>
        <time>2020-06-23T16:03:02Z</time>
      </trkpt>
      <trkpt lat="50.75078" lon="2.91794">
        <ele>24.4</ele>
        <time>2020-06-23T16:03:03Z</time>
      </trkpt>
      <trkpt lat="50.7508" lon="2.91803">
        <ele>24.3</ele>
        <time>2020-06-23T16:03:04Z</time>
      </trkpt>
      <trkpt lat="50.75082" lon="2.91811">
        <ele>24.3</ele>
        <time>2020-06-23T16:03:05Z</time>
      </trkpt>
      <trkpt lat="50.75084" lon="2.91819">
        <ele>24.4</ele>
        <time>2020-06-23T16:03:06Z</time>
      </trkpt>
      <trkpt lat="50.75086" lon="2.91827">
        <ele>24.4</ele>
        <time>2020-06-23T16:03:07Z</time>
      </trkpt>
      <trkpt lat="50.75088" lon="2.91835">
        <ele>24.4</ele>
        <time>2020-06-23T16:03:08Z</time>
      </trkpt>
      <trkpt lat="50.7509" lon="2.91843">
        <ele>24.3</ele>
        <time>2020-06-23T16:03:09Z</time>
      </trkpt>
      <trkpt lat="50.75091" lon="2.91852">
        <ele>24.3</ele>
        <time>2020-06-23T16:03:10Z</time>
      </trkpt>
      <trkpt lat="50.75092" lon="2.91861">
        <ele>24.3</ele>
        <time>2020-06-23T16:03:11Z</time>
      </trkpt>
      <trkpt lat="50.75092" lon="2.91871">
        <ele>24.3</ele>
        <time>2020-06-23T16:03:12Z</time>
      </trkpt>
      <trkpt lat="50.75092" lon="2.9188">
        <ele>24.3</ele>
        <time>2020-06-23T16:03:13Z</time>
      </trkpt>
      <trkpt lat="50.75092" lon="2.9189">
        <ele>24.3</ele>
        <time>2020-06-23T16:03:14Z</time>
      </trkpt>
      <trkpt lat="50.75092" lon="2.91899">
        <ele>24.3</ele>
        <time>2020-06-23T16:03:15Z</time>
      </trkpt>
      <trkpt lat="50.75091" lon="2.91908">
        <ele>24.3</ele>
        <time>2020-06-23T16:03:16Z</time>
      </trkpt>
      <trkpt lat="50.7509" lon="2.91917">
        <ele>24.4</ele>
        <time>2020-06-23T16:03:17Z</time>
      </trkpt>
      <trkpt lat="50.75089" lon="2.91925">
        <ele>24.4</ele>
        <time>2020-06-23T16:03:18Z</time>
      </trkpt>
      <trkpt lat="50.75087" lon="2.91933">
        <ele>24.4</ele>
        <time>2020-06-23T16:03:19Z</time>
      </trkpt>
      <trkpt lat="50.75086" lon="2.9194">
        <ele>24.4</ele>
        <time>2020-06-23T16:03:20Z</time>
      </trkpt>
      <trkpt lat="50.75085" lon="2.91948">
        <ele>24.4</ele>
        <time>2020-06-23T16:03:21Z</time>
      </trkpt>
      <trkpt lat="50.75083" lon="2.91956">
        <ele>24.4</ele>
        <time>2020-06-23T16:03:22Z</time>
      </trkpt>
      <trkpt lat="50.75081" lon="2.91963">
        <ele>24.4</ele>
        <time>2020-06-23T16:03:23Z</time>
      </trkpt>
      <trkpt lat="50.75079" lon="2.9197">
        <ele>24.4</ele>
        <time>2020-06-23T16:03:24Z</time>
      </trkpt>
      <trkpt lat="50.75077" lon="2.91977">
        <ele>24.4</ele>
        <time>2020-06-23T16:03:25Z</time>
      </trkpt>
      <trkpt lat="50.75075" lon="2.91984">
        <ele>24.4</ele>
        <time>2020-06-23T16:03:26Z</time>
      </trkpt>
      <trkpt lat="50.75073" lon="2.9199">
        <ele>24.4</ele>
        <time>2020-06-23T16:03:27Z</time>
      </trkpt>
      <trkpt lat="50.75072" lon="2.91997">
        <ele>24.5</ele>
        <time>2020-06-23T16:03:28Z</time>
      </trkpt>
      <trkpt lat="50.7507" lon="2.92004">
        <ele>24.5</ele>
        <time>2020-06-23T16:03:29Z</time>
      </trkpt>
      <trkpt lat="50.75068" lon="2.92013">
        <ele>24.5</ele>
        <time>2020-06-23T16:03:30Z</time>
      </trkpt>
      <trkpt lat="50.75067" lon="2.9202">
        <ele>24.5</ele>
        <time>2020-06-23T16:03:31Z</time>
      </trkpt>
      <trkpt lat="50.75065" lon="2.92028">
        <ele>24.5</ele>
        <time>2020-06-23T16:03:32Z</time>
      </trkpt>
      <trkpt lat="50.75063" lon="2.92037">
        <ele>24.5</ele>
        <time>2020-06-23T16:03:33Z</time>
      </trkpt>
      <trkpt lat="50.75061" lon="2.92046">
        <ele>24.5</ele>
        <time>2020-06-23T16:03:34Z</time>
      </trkpt>
      <trkpt lat="50.75059" lon="2.92054">
        <ele>24.5</ele>
        <time>2020-06-23T16:03:35Z</time>
      </trkpt>
      <trkpt lat="50.75057" lon="2.92063">
        <ele>24.5</ele>
        <time>2020-06-23T16:03:36Z</time>
      </trkpt>
      <trkpt lat="50.75055" lon="2.92072">
        <ele>24.5</ele>
        <time>2020-06-23T16:03:37Z</time>
      </trkpt>
      <trkpt lat="50.75053" lon="2.9208">
        <ele>24.6</ele>
        <time>2020-06-23T16:03:38Z</time>
      </trkpt>
      <trkpt lat="50.75051" lon="2.9209">
        <ele>24.6</ele>
        <time>2020-06-23T16:03:39Z</time>
      </trkpt>
      <trkpt lat="50.75049" lon="2.921">
        <ele>24.6</ele>
        <time>2020-06-23T16:03:40Z</time>
      </trkpt>
      <trkpt lat="50.75047" lon="2.92108">
        <ele>24.6</ele>
        <time>2020-06-23T16:03:41Z</time>
      </trkpt>
      <trkpt lat="50.75045" lon="2.92118">
        <ele>24.6</ele>
        <time>2020-06-23T16:03:42Z</time>
      </trkpt>
      <trkpt lat="50.75043" lon="2.92129">
        <ele>24.6</ele>
        <time>2020-06-23T16:03:43Z</time>
      </trkpt>
      <trkpt lat="50.75041" lon="2.9214">
        <ele>24.5</ele>
        <time>2020-06-23T16:03:44Z</time>
      </trkpt>
      <trkpt lat="50.75039" lon="2.92149">
        <ele>24.4</ele>
        <time>2020-06-23T16:03:45Z</time>
      </trkpt>
      <trkpt lat="50.75036" lon="2.92158">
        <ele>24.4</ele>
        <time>2020-06-23T16:03:46Z</time>
      </trkpt>
      <trkpt lat="50.75034" lon="2.92169">
        <ele>24.3</ele>
        <time>2020-06-23T16:03:47Z</time>
      </trkpt>
      <trkpt lat="50.75031" lon="2.92179">
        <ele>24.2</ele>
        <time>2020-06-23T16:03:48Z</time>
      </trkpt>
      <trkpt lat="50.75028" lon="2.92189">
        <ele>24.1</ele>
        <time>2020-06-23T16:03:49Z</time>
      </trkpt>
      <trkpt lat="50.75025" lon="2.92199">
        <ele>24.1</ele>
        <time>2020-06-23T16:03:50Z</time>
      </trkpt>
      <trkpt lat="50.75022" lon="2.92209">
        <ele>24</ele>
        <time>2020-06-23T16:03:51Z</time>
      </trkpt>
      <trkpt lat="50.75019" lon="2.92217">
        <ele>24</ele>
        <time>2020-06-23T16:03:52Z</time>
      </trkpt>
      <trkpt lat="50.75016" lon="2.92227">
        <ele>24</ele>
        <time>2020-06-23T16:03:53Z</time>
      </trkpt>
      <trkpt lat="50.75012" lon="2.92237">
        <ele>24</ele>
        <time>2020-06-23T16:03:54Z</time>
      </trkpt>
      <trkpt lat="50.75009" lon="2.92246">
        <ele>23.9</ele>
        <time>2020-06-23T16:03:55Z</time>
      </trkpt>
      <trkpt lat="50.75005" lon="2.92257">
        <ele>23.9</ele>
        <time>2020-06-23T16:03:56Z</time>
      </trkpt>
      <trkpt lat="50.75002" lon="2.92266">
        <ele>24</ele>
        <time>2020-06-23T16:03:57Z</time>
      </trkpt>
      <trkpt lat="50.75" lon="2.92275">
        <ele>24</ele>
        <time>2020-06-23T16:03:58Z</time>
      </trkpt>
      <trkpt lat="50.74997" lon="2.92284">
        <ele>24</ele>
        <time>2020-06-23T16:03:59Z</time>
      </trkpt>
      <trkpt lat="50.74993" lon="2.92294">
        <ele>24.1</ele>
        <time>2020-06-23T16:04:00Z</time>
      </trkpt>
      <trkpt lat="50.7499" lon="2.92304">
        <ele>24.1</ele>
        <time>2020-06-23T16:04:01Z</time>
      </trkpt>
      <trkpt lat="50.74987" lon="2.92313">
        <ele>24.2</ele>
        <time>2020-06-23T16:04:02Z</time>
      </trkpt>
      <trkpt lat="50.74983" lon="2.92322">
        <ele>24.3</ele>
        <time>2020-06-23T16:04:03Z</time>
      </trkpt>
      <trkpt lat="50.74979" lon="2.92331">
        <ele>24.4</ele>
        <time>2020-06-23T16:04:04Z</time>
      </trkpt>
      <trkpt lat="50.74975" lon="2.92339">
        <ele>24.5</ele>
        <time>2020-06-23T16:04:05Z</time>
      </trkpt>
      <trkpt lat="50.74971" lon="2.92347">
        <ele>24.6</ele>
        <time>2020-06-23T16:04:06Z</time>
      </trkpt>
      <trkpt lat="50.74967" lon="2.92353">
        <ele>24.7</ele>
        <time>2020-06-23T16:04:07Z</time>
      </trkpt>
      <trkpt lat="50.74962" lon="2.9236">
        <ele>24.8</ele>
        <time>2020-06-23T16:04:08Z</time>
      </trkpt>
      <trkpt lat="50.74957" lon="2.92366">
        <ele>24.8</ele>
        <time>2020-06-23T16:04:09Z</time>
      </trkpt>
      <trkpt lat="50.74952" lon="2.92372">
        <ele>24.9</ele>
        <time>2020-06-23T16:04:10Z</time>
      </trkpt>
      <trkpt lat="50.74947" lon="2.92378">
        <ele>24.9</ele>
        <time>2020-06-23T16:04:11Z</time>
      </trkpt>
      <trkpt lat="50.74942" lon="2.92384">
        <ele>25</ele>
        <time>2020-06-23T16:04:12Z</time>
      </trkpt>
      <trkpt lat="50.74938" lon="2.92391">
        <ele>25.1</ele>
        <time>2020-06-23T16:04:13Z</time>
      </trkpt>
      <trkpt lat="50.74933" lon="2.92397">
        <ele>25.1</ele>
        <time>2020-06-23T16:04:14Z</time>
      </trkpt>
      <trkpt lat="50.74927" lon="2.92403">
        <ele>25.2</ele>
        <time>2020-06-23T16:04:15Z</time>
      </trkpt>
      <trkpt lat="50.74922" lon="2.9241">
        <ele>25.2</ele>
        <time>2020-06-23T16:04:16Z</time>
      </trkpt>
      <trkpt lat="50.74916" lon="2.92417">
        <ele>25.2</ele>
        <time>2020-06-23T16:04:17Z</time>
      </trkpt>
      <trkpt lat="50.7491" lon="2.92425">
        <ele>25.2</ele>
        <time>2020-06-23T16:04:18Z</time>
      </trkpt>
      <trkpt lat="50.74905" lon="2.92431">
        <ele>25.2</ele>
        <time>2020-06-23T16:04:19Z</time>
      </trkpt>
      <trkpt lat="50.74901" lon="2.92436">
        <ele>25.2</ele>
        <time>2020-06-23T16:04:20Z</time>
      </trkpt>
      <trkpt lat="50.74898" lon="2.9244">
        <ele>25.3</ele>
        <time>2020-06-23T16:04:21Z</time>
      </trkpt>
      <trkpt lat="50.74893" lon="2.92445">
        <ele>25.3</ele>
        <time>2020-06-23T16:04:22Z</time>
      </trkpt>
      <trkpt lat="50.74887" lon="2.92451">
        <ele>25.4</ele>
        <time>2020-06-23T16:04:23Z</time>
      </trkpt>
      <trkpt lat="50.74883" lon="2.92457">
        <ele>25.5</ele>
        <time>2020-06-23T16:04:24Z</time>
      </trkpt>
      <trkpt lat="50.74879" lon="2.92462">
        <ele>25.6</ele>
        <time>2020-06-23T16:04:25Z</time>
      </trkpt>
      <trkpt lat="50.74875" lon="2.92467">
        <ele>25.7</ele>
        <time>2020-06-23T16:04:26Z</time>
      </trkpt>
      <trkpt lat="50.74869" lon="2.92474">
        <ele>25.8</ele>
        <time>2020-06-23T16:04:27Z</time>
      </trkpt>
      <trkpt lat="50.74865" lon="2.9248">
        <ele>25.8</ele>
        <time>2020-06-23T16:04:28Z</time>
      </trkpt>
      <trkpt lat="50.74859" lon="2.92487">
        <ele>25.9</ele>
        <time>2020-06-23T16:04:29Z</time>
      </trkpt>
      <trkpt lat="50.74853" lon="2.92494">
        <ele>25.9</ele>
        <time>2020-06-23T16:04:30Z</time>
      </trkpt>
      <trkpt lat="50.74847" lon="2.92502">
        <ele>25.9</ele>
        <time>2020-06-23T16:04:31Z</time>
      </trkpt>
      <trkpt lat="50.74843" lon="2.92509">
        <ele>25.9</ele>
        <time>2020-06-23T16:04:32Z</time>
      </trkpt>
      <trkpt lat="50.74838" lon="2.92515">
        <ele>26</ele>
        <time>2020-06-23T16:04:33Z</time>
      </trkpt>
      <trkpt lat="50.74833" lon="2.92522">
        <ele>26</ele>
        <time>2020-06-23T16:04:34Z</time>
      </trkpt>
      <trkpt lat="50.74827" lon="2.92528">
        <ele>26</ele>
        <time>2020-06-23T16:04:35Z</time>
      </trkpt>
      <trkpt lat="50.74823" lon="2.92533">
        <ele>26</ele>
        <time>2020-06-23T16:04:36Z</time>
      </trkpt>
      <trkpt lat="50.74819" lon="2.92538">
        <ele>26</ele>
        <time>2020-06-23T16:04:37Z</time>
      </trkpt>
      <trkpt lat="50.74814" lon="2.92543">
        <ele>26</ele>
        <time>2020-06-23T16:04:38Z</time>
      </trkpt>
      <trkpt lat="50.74809" lon="2.92549">
        <ele>25.9</ele>
        <time>2020-06-23T16:04:39Z</time>
      </trkpt>
      <trkpt lat="50.74803" lon="2.92556">
        <ele>25.9</ele>
        <time>2020-06-23T16:04:40Z</time>
      </trkpt>
      <trkpt lat="50.74798" lon="2.92562">
        <ele>25.8</ele>
        <time>2020-06-23T16:04:41Z</time>
      </trkpt>
      <trkpt lat="50.74793" lon="2.9257">
        <ele>25.7</ele>
        <time>2020-06-23T16:04:42Z</time>
      </trkpt>
      <trkpt lat="50.74788" lon="2.92577">
        <ele>25.7</ele>
        <time>2020-06-23T16:04:43Z</time>
      </trkpt>
      <trkpt lat="50.74783" lon="2.92585">
        <ele>25.6</ele>
        <time>2020-06-23T16:04:44Z</time>
      </trkpt>
      <trkpt lat="50.74779" lon="2.9259">
        <ele>25.5</ele>
        <time>2020-06-23T16:04:45Z</time>
      </trkpt>
      <trkpt lat="50.74774" lon="2.92596">
        <ele>25.5</ele>
        <time>2020-06-23T16:04:46Z</time>
      </trkpt>
      <trkpt lat="50.7477" lon="2.92603">
        <ele>25.4</ele>
        <time>2020-06-23T16:04:47Z</time>
      </trkpt>
      <trkpt lat="50.74765" lon="2.9261">
        <ele>25.3</ele>
        <time>2020-06-23T16:04:48Z</time>
      </trkpt>
      <trkpt lat="50.74761" lon="2.92616">
        <ele>25.2</ele>
        <time>2020-06-23T16:04:49Z</time>
      </trkpt>
      <trkpt lat="50.74757" lon="2.92623">
        <ele>25.1</ele>
        <time>2020-06-23T16:04:50Z</time>
      </trkpt>
      <trkpt lat="50.74752" lon="2.92629">
        <ele>24.9</ele>
        <time>2020-06-23T16:04:51Z</time>
      </trkpt>
      <trkpt lat="50.74747" lon="2.92635">
        <ele>24.8</ele>
        <time>2020-06-23T16:04:52Z</time>
      </trkpt>
      <trkpt lat="50.74743" lon="2.92641">
        <ele>24.7</ele>
        <time>2020-06-23T16:04:53Z</time>
      </trkpt>
      <trkpt lat="50.74738" lon="2.92647">
        <ele>24.6</ele>
        <time>2020-06-23T16:04:54Z</time>
      </trkpt>
      <trkpt lat="50.74732" lon="2.92652">
        <ele>24.5</ele>
        <time>2020-06-23T16:04:55Z</time>
      </trkpt>
      <trkpt lat="50.74727" lon="2.92658">
        <ele>24.3</ele>
        <time>2020-06-23T16:04:56Z</time>
      </trkpt>
      <trkpt lat="50.74722" lon="2.92666">
        <ele>24.2</ele>
        <time>2020-06-23T16:04:57Z</time>
      </trkpt>
      <trkpt lat="50.74717" lon="2.92673">
        <ele>24.1</ele>
        <time>2020-06-23T16:04:58Z</time>
      </trkpt>
      <trkpt lat="50.74712" lon="2.9268">
        <ele>23.9</ele>
        <time>2020-06-23T16:04:59Z</time>
      </trkpt>
      <trkpt lat="50.74707" lon="2.92688">
        <ele>23.8</ele>
        <time>2020-06-23T16:05:00Z</time>
      </trkpt>
      <trkpt lat="50.74702" lon="2.92695">
        <ele>23.7</ele>
        <time>2020-06-23T16:05:01Z</time>
      </trkpt>
      <trkpt lat="50.74697" lon="2.92702">
        <ele>23.6</ele>
        <time>2020-06-23T16:05:02Z</time>
      </trkpt>
      <trkpt lat="50.74691" lon="2.9271">
        <ele>23.5</ele>
        <time>2020-06-23T16:05:03Z</time>
      </trkpt>
      <trkpt lat="50.74686" lon="2.92717">
        <ele>23.4</ele>
        <time>2020-06-23T16:05:04Z</time>
      </trkpt>
      <trkpt lat="50.74681" lon="2.92725">
        <ele>23.3</ele>
        <time>2020-06-23T16:05:05Z</time>
      </trkpt>
      <trkpt lat="50.74676" lon="2.92733">
        <ele>23.1</ele>
        <time>2020-06-23T16:05:06Z</time>
      </trkpt>
      <trkpt lat="50.7467" lon="2.92741">
        <ele>23</ele>
        <time>2020-06-23T16:05:07Z</time>
      </trkpt>
      <trkpt lat="50.74664" lon="2.92747">
        <ele>22.8</ele>
        <time>2020-06-23T16:05:08Z</time>
      </trkpt>
      <trkpt lat="50.7466" lon="2.92753">
        <ele>22.7</ele>
        <time>2020-06-23T16:05:09Z</time>
      </trkpt>
      <trkpt lat="50.74656" lon="2.92758">
        <ele>22.6</ele>
        <time>2020-06-23T16:05:10Z</time>
      </trkpt>
      <trkpt lat="50.74651" lon="2.92763">
        <ele>22.5</ele>
        <time>2020-06-23T16:05:11Z</time>
      </trkpt>
      <trkpt lat="50.74646" lon="2.9277">
        <ele>22.4</ele>
        <time>2020-06-23T16:05:12Z</time>
      </trkpt>
      <trkpt lat="50.7464" lon="2.92777">
        <ele>22.3</ele>
        <time>2020-06-23T16:05:13Z</time>
      </trkpt>
      <trkpt lat="50.74635" lon="2.92786">
        <ele>22.2</ele>
        <time>2020-06-23T16:05:14Z</time>
      </trkpt>
      <trkpt lat="50.7463" lon="2.92794">
        <ele>22.1</ele>
        <time>2020-06-23T16:05:15Z</time>
      </trkpt>
      <trkpt lat="50.74623" lon="2.928">
        <ele>22</ele>
        <time>2020-06-23T16:05:16Z</time>
      </trkpt>
      <trkpt lat="50.74618" lon="2.92806">
        <ele>21.9</ele>
        <time>2020-06-23T16:05:17Z</time>
      </trkpt>
      <trkpt lat="50.74613" lon="2.92811">
        <ele>21.8</ele>
        <time>2020-06-23T16:05:18Z</time>
      </trkpt>
      <trkpt lat="50.74608" lon="2.92817">
        <ele>21.7</ele>
        <time>2020-06-23T16:05:19Z</time>
      </trkpt>
      <trkpt lat="50.74604" lon="2.92821">
        <ele>21.6</ele>
        <time>2020-06-23T16:05:20Z</time>
      </trkpt>
      <trkpt lat="50.746" lon="2.92826">
        <ele>21.5</ele>
        <time>2020-06-23T16:05:21Z</time>
      </trkpt>
      <trkpt lat="50.74595" lon="2.92832">
        <ele>21.5</ele>
        <time>2020-06-23T16:05:22Z</time>
      </trkpt>
      <trkpt lat="50.7459" lon="2.92838">
        <ele>21.4</ele>
        <time>2020-06-23T16:05:23Z</time>
      </trkpt>
      <trkpt lat="50.74585" lon="2.92845">
        <ele>21.4</ele>
        <time>2020-06-23T16:05:24Z</time>
      </trkpt>
      <trkpt lat="50.74579" lon="2.92852">
        <ele>20.8</ele>
        <time>2020-06-23T16:05:25Z</time>
      </trkpt>
      <trkpt lat="50.74573" lon="2.92859">
        <ele>20.6</ele>
        <time>2020-06-23T16:05:26Z</time>
      </trkpt>
      <trkpt lat="50.74568" lon="2.92866">
        <ele>20.4</ele>
        <time>2020-06-23T16:05:27Z</time>
      </trkpt>
      <trkpt lat="50.74562" lon="2.92875">
        <ele>20.3</ele>
        <time>2020-06-23T16:05:28Z</time>
      </trkpt>
      <trkpt lat="50.74557" lon="2.92883">
        <ele>20.2</ele>
        <time>2020-06-23T16:05:29Z</time>
      </trkpt>
      <trkpt lat="50.74552" lon="2.92891">
        <ele>20.1</ele>
        <time>2020-06-23T16:05:30Z</time>
      </trkpt>
      <trkpt lat="50.74546" lon="2.929">
        <ele>20</ele>
        <time>2020-06-23T16:05:31Z</time>
      </trkpt>
      <trkpt lat="50.74541" lon="2.92908">
        <ele>19.9</ele>
        <time>2020-06-23T16:05:32Z</time>
      </trkpt>
      <trkpt lat="50.74535" lon="2.92916">
        <ele>19.9</ele>
        <time>2020-06-23T16:05:33Z</time>
      </trkpt>
      <trkpt lat="50.74529" lon="2.92925">
        <ele>19.8</ele>
        <time>2020-06-23T16:05:34Z</time>
      </trkpt>
      <trkpt lat="50.74524" lon="2.92933">
        <ele>19.7</ele>
        <time>2020-06-23T16:05:35Z</time>
      </trkpt>
      <trkpt lat="50.74519" lon="2.92941">
        <ele>19.7</ele>
        <time>2020-06-23T16:05:36Z</time>
      </trkpt>
      <trkpt lat="50.74515" lon="2.92949">
        <ele>19.6</ele>
        <time>2020-06-23T16:05:37Z</time>
      </trkpt>
      <trkpt lat="50.7451" lon="2.92958">
        <ele>19.6</ele>
        <time>2020-06-23T16:05:38Z</time>
      </trkpt>
      <trkpt lat="50.74506" lon="2.92966">
        <ele>19.5</ele>
        <time>2020-06-23T16:05:39Z</time>
      </trkpt>
      <trkpt lat="50.74502" lon="2.92974">
        <ele>19.5</ele>
        <time>2020-06-23T16:05:40Z</time>
      </trkpt>
      <trkpt lat="50.74498" lon="2.92983">
        <ele>19.4</ele>
        <time>2020-06-23T16:05:41Z</time>
      </trkpt>
      <trkpt lat="50.74495" lon="2.92991">
        <ele>19.3</ele>
        <time>2020-06-23T16:05:42Z</time>
      </trkpt>
      <trkpt lat="50.74492" lon="2.93">
        <ele>19.3</ele>
        <time>2020-06-23T16:05:43Z</time>
      </trkpt>
      <trkpt lat="50.74488" lon="2.93009">
        <ele>19.3</ele>
        <time>2020-06-23T16:05:44Z</time>
      </trkpt>
      <trkpt lat="50.74487" lon="2.93017">
        <ele>19.3</ele>
        <time>2020-06-23T16:05:45Z</time>
      </trkpt>
      <trkpt lat="50.74485" lon="2.93026">
        <ele>19.3</ele>
        <time>2020-06-23T16:05:46Z</time>
      </trkpt>
      <trkpt lat="50.74483" lon="2.93035">
        <ele>19.3</ele>
        <time>2020-06-23T16:05:47Z</time>
      </trkpt>
      <trkpt lat="50.7448" lon="2.93045">
        <ele>19.3</ele>
        <time>2020-06-23T16:05:48Z</time>
      </trkpt>
      <trkpt lat="50.74478" lon="2.93054">
        <ele>19.3</ele>
        <time>2020-06-23T16:05:49Z</time>
      </trkpt>
      <trkpt lat="50.74476" lon="2.93063">
        <ele>19.3</ele>
        <time>2020-06-23T16:05:50Z</time>
      </trkpt>
      <trkpt lat="50.74473" lon="2.93071">
        <ele>19.3</ele>
        <time>2020-06-23T16:05:51Z</time>
      </trkpt>
      <trkpt lat="50.74472" lon="2.93079">
        <ele>19.4</ele>
        <time>2020-06-23T16:05:52Z</time>
      </trkpt>
      <trkpt lat="50.7447" lon="2.93086">
        <ele>19.4</ele>
        <time>2020-06-23T16:05:53Z</time>
      </trkpt>
      <trkpt lat="50.74469" lon="2.93092">
        <ele>19.5</ele>
        <time>2020-06-23T16:05:54Z</time>
      </trkpt>
      <trkpt lat="50.74467" lon="2.93099">
        <ele>19.6</ele>
        <time>2020-06-23T16:05:55Z</time>
      </trkpt>
      <trkpt lat="50.74465" lon="2.93105">
        <ele>19.7</ele>
        <time>2020-06-23T16:05:56Z</time>
      </trkpt>
      <trkpt lat="50.74463" lon="2.93111">
        <ele>19.8</ele>
        <time>2020-06-23T16:05:57Z</time>
      </trkpt>
      <trkpt lat="50.7446" lon="2.93117">
        <ele>19.9</ele>
        <time>2020-06-23T16:05:58Z</time>
      </trkpt>
      <trkpt lat="50.74457" lon="2.93123">
        <ele>20</ele>
        <time>2020-06-23T16:05:59Z</time>
      </trkpt>
      <trkpt lat="50.74453" lon="2.93127">
        <ele>20.1</ele>
        <time>2020-06-23T16:06:00Z</time>
      </trkpt>
      <trkpt lat="50.74447" lon="2.93128">
        <ele>19.9</ele>
        <time>2020-06-23T16:06:01Z</time>
      </trkpt>
      <trkpt lat="50.74443" lon="2.93128">
        <ele>19.8</ele>
        <time>2020-06-23T16:06:02Z</time>
      </trkpt>
      <trkpt lat="50.74438" lon="2.93127">
        <ele>19.7</ele>
        <time>2020-06-23T16:06:03Z</time>
      </trkpt>
      <trkpt lat="50.74434" lon="2.93125">
        <ele>19.6</ele>
        <time>2020-06-23T16:06:04Z</time>
      </trkpt>
      <trkpt lat="50.74428" lon="2.93122">
        <ele>19.5</ele>
        <time>2020-06-23T16:06:05Z</time>
      </trkpt>
      <trkpt lat="50.74422" lon="2.93117">
        <ele>19.4</ele>
        <time>2020-06-23T16:06:06Z</time>
      </trkpt>
      <trkpt lat="50.74417" lon="2.93112">
        <ele>19.3</ele>
        <time>2020-06-23T16:06:07Z</time>
      </trkpt>
      <trkpt lat="50.74412" lon="2.93107">
        <ele>19.2</ele>
        <time>2020-06-23T16:06:08Z</time>
      </trkpt>
      <trkpt lat="50.74406" lon="2.93101">
        <ele>19.1</ele>
        <time>2020-06-23T16:06:09Z</time>
      </trkpt>
      <trkpt lat="50.74401" lon="2.93096">
        <ele>19.1</ele>
        <time>2020-06-23T16:06:10Z</time>
      </trkpt>
      <trkpt lat="50.74396" lon="2.93091">
        <ele>19</ele>
        <time>2020-06-23T16:06:11Z</time>
      </trkpt>
      <trkpt lat="50.7439" lon="2.93085">
        <ele>19</ele>
        <time>2020-06-23T16:06:12Z</time>
      </trkpt>
      <trkpt lat="50.74384" lon="2.9308">
        <ele>18.9</ele>
        <time>2020-06-23T16:06:13Z</time>
      </trkpt>
      <trkpt lat="50.74378" lon="2.93074">
        <ele>18.9</ele>
        <time>2020-06-23T16:06:14Z</time>
      </trkpt>
      <trkpt lat="50.74372" lon="2.93069">
        <ele>18.8</ele>
        <time>2020-06-23T16:06:15Z</time>
      </trkpt>
      <trkpt lat="50.74366" lon="2.93064">
        <ele>18.8</ele>
        <time>2020-06-23T16:06:16Z</time>
      </trkpt>
      <trkpt lat="50.74361" lon="2.9306">
        <ele>18.8</ele>
        <time>2020-06-23T16:06:17Z</time>
      </trkpt>
      <trkpt lat="50.74355" lon="2.93055">
        <ele>18.7</ele>
        <time>2020-06-23T16:06:18Z</time>
      </trkpt>
      <trkpt lat="50.7435" lon="2.93052">
        <ele>18.7</ele>
        <time>2020-06-23T16:06:19Z</time>
      </trkpt>
      <trkpt lat="50.74345" lon="2.93047">
        <ele>18.7</ele>
        <time>2020-06-23T16:06:20Z</time>
      </trkpt>
      <trkpt lat="50.7434" lon="2.93043">
        <ele>18.7</ele>
        <time>2020-06-23T16:06:21Z</time>
      </trkpt>
      <trkpt lat="50.74335" lon="2.93039">
        <ele>18.7</ele>
        <time>2020-06-23T16:06:22Z</time>
      </trkpt>
      <trkpt lat="50.7433" lon="2.93034">
        <ele>18.7</ele>
        <time>2020-06-23T16:06:23Z</time>
      </trkpt>
      <trkpt lat="50.74325" lon="2.93031">
        <ele>18.7</ele>
        <time>2020-06-23T16:06:24Z</time>
      </trkpt>
      <trkpt lat="50.74319" lon="2.93024">
        <ele>18.7</ele>
        <time>2020-06-23T16:06:25Z</time>
      </trkpt>
      <trkpt lat="50.74314" lon="2.93018">
        <ele>18.7</ele>
        <time>2020-06-23T16:06:26Z</time>
      </trkpt>
      <trkpt lat="50.74308" lon="2.93013">
        <ele>18.7</ele>
        <time>2020-06-23T16:06:27Z</time>
      </trkpt>
      <trkpt lat="50.74304" lon="2.93008">
        <ele>18.7</ele>
        <time>2020-06-23T16:06:28Z</time>
      </trkpt>
      <trkpt lat="50.74299" lon="2.93003">
        <ele>18.7</ele>
        <time>2020-06-23T16:06:29Z</time>
      </trkpt>
      <trkpt lat="50.74293" lon="2.92998">
        <ele>18.7</ele>
        <time>2020-06-23T16:06:30Z</time>
      </trkpt>
      <trkpt lat="50.74287" lon="2.92992">
        <ele>18.8</ele>
        <time>2020-06-23T16:06:31Z</time>
      </trkpt>
      <trkpt lat="50.74281" lon="2.92987">
        <ele>18.8</ele>
        <time>2020-06-23T16:06:32Z</time>
      </trkpt>
      <trkpt lat="50.74276" lon="2.92983">
        <ele>18.8</ele>
        <time>2020-06-23T16:06:33Z</time>
      </trkpt>
      <trkpt lat="50.7427" lon="2.92978">
        <ele>18.9</ele>
        <time>2020-06-23T16:06:34Z</time>
      </trkpt>
      <trkpt lat="50.74265" lon="2.92973">
        <ele>18.9</ele>
        <time>2020-06-23T16:06:35Z</time>
      </trkpt>
      <trkpt lat="50.7426" lon="2.92967">
        <ele>18.9</ele>
        <time>2020-06-23T16:06:36Z</time>
      </trkpt>
      <trkpt lat="50.74254" lon="2.92962">
        <ele>19</ele>
        <time>2020-06-23T16:06:37Z</time>
      </trkpt>
      <trkpt lat="50.74249" lon="2.92958">
        <ele>19</ele>
        <time>2020-06-23T16:06:38Z</time>
      </trkpt>
      <trkpt lat="50.74243" lon="2.92953">
        <ele>19.1</ele>
        <time>2020-06-23T16:06:39Z</time>
      </trkpt>
      <trkpt lat="50.74238" lon="2.92947">
        <ele>19.1</ele>
        <time>2020-06-23T16:06:40Z</time>
      </trkpt>
      <trkpt lat="50.74231" lon="2.92941">
        <ele>19.1</ele>
        <time>2020-06-23T16:06:41Z</time>
      </trkpt>
      <trkpt lat="50.74225" lon="2.92934">
        <ele>19.2</ele>
        <time>2020-06-23T16:06:42Z</time>
      </trkpt>
      <trkpt lat="50.74219" lon="2.92929">
        <ele>19.2</ele>
        <time>2020-06-23T16:06:43Z</time>
      </trkpt>
      <trkpt lat="50.74212" lon="2.92923">
        <ele>19.2</ele>
        <time>2020-06-23T16:06:44Z</time>
      </trkpt>
      <trkpt lat="50.74207" lon="2.92919">
        <ele>19.2</ele>
        <time>2020-06-23T16:06:45Z</time>
      </trkpt>
      <trkpt lat="50.74201" lon="2.92914">
        <ele>19.2</ele>
        <time>2020-06-23T16:06:46Z</time>
      </trkpt>
      <trkpt lat="50.74196" lon="2.92909">
        <ele>19.2</ele>
        <time>2020-06-23T16:06:47Z</time>
      </trkpt>
      <trkpt lat="50.7419" lon="2.92904">
        <ele>19.2</ele>
        <time>2020-06-23T16:06:48Z</time>
      </trkpt>
      <trkpt lat="50.74184" lon="2.92899">
        <ele>19.2</ele>
        <time>2020-06-23T16:06:49Z</time>
      </trkpt>
      <trkpt lat="50.74178" lon="2.92893">
        <ele>19.1</ele>
        <time>2020-06-23T16:06:50Z</time>
      </trkpt>
      <trkpt lat="50.74174" lon="2.92887">
        <ele>19.1</ele>
        <time>2020-06-23T16:06:51Z</time>
      </trkpt>
      <trkpt lat="50.74169" lon="2.9288">
        <ele>19.2</ele>
        <time>2020-06-23T16:06:52Z</time>
      </trkpt>
      <trkpt lat="50.74164" lon="2.92874">
        <ele>19.2</ele>
        <time>2020-06-23T16:06:53Z</time>
      </trkpt>
      <trkpt lat="50.74159" lon="2.92867">
        <ele>19.2</ele>
        <time>2020-06-23T16:06:54Z</time>
      </trkpt>
      <trkpt lat="50.74154" lon="2.92861">
        <ele>19.3</ele>
        <time>2020-06-23T16:06:55Z</time>
      </trkpt>
      <trkpt lat="50.74147" lon="2.92855">
        <ele>19.3</ele>
        <time>2020-06-23T16:06:56Z</time>
      </trkpt>
      <trkpt lat="50.74141" lon="2.92847">
        <ele>19.4</ele>
        <time>2020-06-23T16:06:57Z</time>
      </trkpt>
      <trkpt lat="50.74135" lon="2.9284">
        <ele>19.3</ele>
        <time>2020-06-23T16:06:58Z</time>
      </trkpt>
      <trkpt lat="50.7413" lon="2.92833">
        <ele>19.2</ele>
        <time>2020-06-23T16:06:59Z</time>
      </trkpt>
      <trkpt lat="50.74125" lon="2.92827">
        <ele>19.1</ele>
        <time>2020-06-23T16:07:00Z</time>
      </trkpt>
      <trkpt lat="50.7412" lon="2.9282">
        <ele>19</ele>
        <time>2020-06-23T16:07:01Z</time>
      </trkpt>
      <trkpt lat="50.74115" lon="2.92813">
        <ele>18.9</ele>
        <time>2020-06-23T16:07:02Z</time>
      </trkpt>
      <trkpt lat="50.74111" lon="2.92807">
        <ele>18.9</ele>
        <time>2020-06-23T16:07:03Z</time>
      </trkpt>
      <trkpt lat="50.74107" lon="2.92801">
        <ele>18.8</ele>
        <time>2020-06-23T16:07:04Z</time>
      </trkpt>
      <trkpt lat="50.74102" lon="2.92795">
        <ele>18.8</ele>
        <time>2020-06-23T16:07:05Z</time>
      </trkpt>
      <trkpt lat="50.74097" lon="2.92788">
        <ele>18.7</ele>
        <time>2020-06-23T16:07:06Z</time>
      </trkpt>
      <trkpt lat="50.74092" lon="2.92781">
        <ele>18.7</ele>
        <time>2020-06-23T16:07:07Z</time>
      </trkpt>
      <trkpt lat="50.74087" lon="2.92774">
        <ele>18.6</ele>
        <time>2020-06-23T16:07:08Z</time>
      </trkpt>
      <trkpt lat="50.74085" lon="2.92769">
        <ele>18.6</ele>
        <time>2020-06-23T16:07:09Z</time>
      </trkpt>
      <trkpt lat="50.7408" lon="2.92763">
        <ele>18.6</ele>
        <time>2020-06-23T16:07:10Z</time>
      </trkpt>
      <trkpt lat="50.74075" lon="2.92757">
        <ele>18.5</ele>
        <time>2020-06-23T16:07:11Z</time>
      </trkpt>
      <trkpt lat="50.74069" lon="2.92749">
        <ele>18.5</ele>
        <time>2020-06-23T16:07:12Z</time>
      </trkpt>
      <trkpt lat="50.74065" lon="2.92743">
        <ele>18.4</ele>
        <time>2020-06-23T16:07:13Z</time>
      </trkpt>
      <trkpt lat="50.7406" lon="2.92735">
        <ele>18.4</ele>
        <time>2020-06-23T16:07:14Z</time>
      </trkpt>
      <trkpt lat="50.74055" lon="2.92728">
        <ele>18.4</ele>
        <time>2020-06-23T16:07:15Z</time>
      </trkpt>
      <trkpt lat="50.7405" lon="2.92721">
        <ele>18.4</ele>
        <time>2020-06-23T16:07:16Z</time>
      </trkpt>
      <trkpt lat="50.74045" lon="2.92712">
        <ele>18.4</ele>
        <time>2020-06-23T16:07:17Z</time>
      </trkpt>
      <trkpt lat="50.74041" lon="2.92705">
        <ele>18.4</ele>
        <time>2020-06-23T16:07:18Z</time>
      </trkpt>
      <trkpt lat="50.74036" lon="2.92698">
        <ele>18.4</ele>
        <time>2020-06-23T16:07:19Z</time>
      </trkpt>
      <trkpt lat="50.74032" lon="2.9269">
        <ele>18.5</ele>
        <time>2020-06-23T16:07:20Z</time>
      </trkpt>
      <trkpt lat="50.74028" lon="2.92681">
        <ele>18.5</ele>
        <time>2020-06-23T16:07:21Z</time>
      </trkpt>
      <trkpt lat="50.74026" lon="2.92672">
        <ele>18.6</ele>
        <time>2020-06-23T16:07:22Z</time>
      </trkpt>
      <trkpt lat="50.74024" lon="2.92664">
        <ele>18.6</ele>
        <time>2020-06-23T16:07:23Z</time>
      </trkpt>
      <trkpt lat="50.74023" lon="2.92654">
        <ele>18.6</ele>
        <time>2020-06-23T16:07:24Z</time>
      </trkpt>
      <trkpt lat="50.74023" lon="2.92646">
        <ele>18.6</ele>
        <time>2020-06-23T16:07:25Z</time>
      </trkpt>
      <trkpt lat="50.74023" lon="2.92638">
        <ele>18.7</ele>
        <time>2020-06-23T16:07:26Z</time>
      </trkpt>
      <trkpt lat="50.74022" lon="2.9263">
        <ele>18.7</ele>
        <time>2020-06-23T16:07:27Z</time>
      </trkpt>
      <trkpt lat="50.74021" lon="2.92624">
        <ele>18.7</ele>
        <time>2020-06-23T16:07:28Z</time>
      </trkpt>
      <trkpt lat="50.7402" lon="2.92617">
        <ele>18.7</ele>
        <time>2020-06-23T16:07:29Z</time>
      </trkpt>
      <trkpt lat="50.74018" lon="2.92608">
        <ele>18.8</ele>
        <time>2020-06-23T16:07:30Z</time>
      </trkpt>
      <trkpt lat="50.74017" lon="2.92601">
        <ele>18.8</ele>
        <time>2020-06-23T16:07:31Z</time>
      </trkpt>
      <trkpt lat="50.74014" lon="2.92597">
        <ele>18.9</ele>
        <time>2020-06-23T16:07:32Z</time>
      </trkpt>
      <trkpt lat="50.74011" lon="2.92594">
        <ele>18.9</ele>
        <time>2020-06-23T16:07:33Z</time>
      </trkpt>
      <trkpt lat="50.74008" lon="2.92592">
        <ele>19</ele>
        <time>2020-06-23T16:07:34Z</time>
      </trkpt>
      <trkpt lat="50.74004" lon="2.92589">
        <ele>19.1</ele>
        <time>2020-06-23T16:07:35Z</time>
      </trkpt>
      <trkpt lat="50.74001" lon="2.92589">
        <ele>19.1</ele>
        <time>2020-06-23T16:07:36Z</time>
      </trkpt>
      <trkpt lat="50.73999" lon="2.92589">
        <ele>19.2</ele>
        <time>2020-06-23T16:07:37Z</time>
      </trkpt>
      <trkpt lat="50.73999" lon="2.92589">
        <ele>19.2</ele>
        <time>2020-06-23T16:07:38Z</time>
      </trkpt>
      <trkpt lat="50.74" lon="2.92589">
        <ele>19.2</ele>
        <time>2020-06-23T16:07:39Z</time>
      </trkpt>
      <trkpt lat="50.74" lon="2.9259">
        <ele>19.2</ele>
        <time>2020-06-23T16:07:40Z</time>
      </trkpt>
      <trkpt lat="50.74002" lon="2.92592">
        <ele>19.2</ele>
        <time>2020-06-23T16:07:41Z</time>
      </trkpt>
      <trkpt lat="50.74003" lon="2.92593">
        <ele>19.3</ele>
        <time>2020-06-23T16:07:42Z</time>
      </trkpt>
      <trkpt lat="50.74004" lon="2.92594">
        <ele>19.3</ele>
        <time>2020-06-23T16:07:43Z</time>
      </trkpt>
      <trkpt lat="50.74006" lon="2.92596">
        <ele>19.3</ele>
        <time>2020-06-23T16:07:44Z</time>
      </trkpt>
      <trkpt lat="50.74005" lon="2.92597">
        <ele>19.3</ele>
        <time>2020-06-23T16:07:45Z</time>
      </trkpt>
      <trkpt lat="50.74004" lon="2.92597">
        <ele>19.3</ele>
        <time>2020-06-23T16:07:46Z</time>
      </trkpt>
      <trkpt lat="50.74003" lon="2.92597">
        <ele>19.4</ele>
        <time>2020-06-23T16:07:47Z</time>
      </trkpt>
      <trkpt lat="50.74003" lon="2.92598">
        <ele>19.4</ele>
        <time>2020-06-23T16:07:48Z</time>
      </trkpt>
      <trkpt lat="50.74002" lon="2.92598">
        <ele>19.4</ele>
        <time>2020-06-23T16:07:49Z</time>
      </trkpt>
      <trkpt lat="50.74001" lon="2.92598">
        <ele>19.4</ele>
        <time>2020-06-23T16:07:50Z</time>
      </trkpt>
      <trkpt lat="50.73999" lon="2.92599">
        <ele>19.4</ele>
        <time>2020-06-23T16:07:51Z</time>
      </trkpt>
      <trkpt lat="50.73998" lon="2.92602">
        <ele>19.4</ele>
        <time>2020-06-23T16:07:52Z</time>
      </trkpt>
      <trkpt lat="50.73997" lon="2.92606">
        <ele>19.4</ele>
        <time>2020-06-23T16:07:53Z</time>
      </trkpt>
      <trkpt lat="50.73997" lon="2.92608">
        <ele>19.4</ele>
        <time>2020-06-23T16:07:54Z</time>
      </trkpt>
      <trkpt lat="50.73997" lon="2.92613">
        <ele>19.4</ele>
        <time>2020-06-23T16:07:55Z</time>
      </trkpt>
      <trkpt lat="50.73997" lon="2.92615">
        <ele>19.4</ele>
        <time>2020-06-23T16:07:56Z</time>
      </trkpt>
      <trkpt lat="50.73997" lon="2.92621">
        <ele>19.4</ele>
        <time>2020-06-23T16:07:57Z</time>
      </trkpt>
      <trkpt lat="50.73998" lon="2.92627">
        <ele>19.3</ele>
        <time>2020-06-23T16:07:58Z</time>
      </trkpt>
      <trkpt lat="50.73998" lon="2.92633">
        <ele>19.3</ele>
        <time>2020-06-23T16:07:59Z</time>
      </trkpt>
      <trkpt lat="50.73998" lon="2.9264">
        <ele>19.2</ele>
        <time>2020-06-23T16:08:00Z</time>
      </trkpt>
      <trkpt lat="50.73998" lon="2.92647">
        <ele>19.2</ele>
        <time>2020-06-23T16:08:01Z</time>
      </trkpt>
      <trkpt lat="50.73998" lon="2.92654">
        <ele>19.2</ele>
        <time>2020-06-23T16:08:02Z</time>
      </trkpt>
      <trkpt lat="50.73999" lon="2.92662">
        <ele>19.1</ele>
        <time>2020-06-23T16:08:03Z</time>
      </trkpt>
      <trkpt lat="50.73999" lon="2.92669">
        <ele>19.1</ele>
        <time>2020-06-23T16:08:04Z</time>
      </trkpt>
      <trkpt lat="50.73999" lon="2.92677">
        <ele>19.1</ele>
        <time>2020-06-23T16:08:05Z</time>
      </trkpt>
      <trkpt lat="50.74" lon="2.92685">
        <ele>19.1</ele>
        <time>2020-06-23T16:08:06Z</time>
      </trkpt>
      <trkpt lat="50.74001" lon="2.92692">
        <ele>19.1</ele>
        <time>2020-06-23T16:08:07Z</time>
      </trkpt>
      <trkpt lat="50.74001" lon="2.92697">
        <ele>19.1</ele>
        <time>2020-06-23T16:08:08Z</time>
      </trkpt>
      <trkpt lat="50.74001" lon="2.92702">
        <ele>19</ele>
        <time>2020-06-23T16:08:09Z</time>
      </trkpt>
      <trkpt lat="50.73999" lon="2.92712">
        <ele>19</ele>
        <time>2020-06-23T16:08:10Z</time>
      </trkpt>
      <trkpt lat="50.73997" lon="2.92718">
        <ele>19</ele>
        <time>2020-06-23T16:08:11Z</time>
      </trkpt>
      <trkpt lat="50.73995" lon="2.92724">
        <ele>18.9</ele>
        <time>2020-06-23T16:08:12Z</time>
      </trkpt>
      <trkpt lat="50.73993" lon="2.92729">
        <ele>18.9</ele>
        <time>2020-06-23T16:08:13Z</time>
      </trkpt>
      <trkpt lat="50.73991" lon="2.92735">
        <ele>18.9</ele>
        <time>2020-06-23T16:08:14Z</time>
      </trkpt>
      <trkpt lat="50.73989" lon="2.92741">
        <ele>18.9</ele>
        <time>2020-06-23T16:08:15Z</time>
      </trkpt>
      <trkpt lat="50.73987" lon="2.92747">
        <ele>18.9</ele>
        <time>2020-06-23T16:08:16Z</time>
      </trkpt>
      <trkpt lat="50.73986" lon="2.92753">
        <ele>18.9</ele>
        <time>2020-06-23T16:08:17Z</time>
      </trkpt>
      <trkpt lat="50.73986" lon="2.92758">
        <ele>18.9</ele>
        <time>2020-06-23T16:08:18Z</time>
      </trkpt>
      <trkpt lat="50.73988" lon="2.92765">
        <ele>18.9</ele>
        <time>2020-06-23T16:08:19Z</time>
      </trkpt>
      <trkpt lat="50.7399" lon="2.92769">
        <ele>18.9</ele>
        <time>2020-06-23T16:08:20Z</time>
      </trkpt>
      <trkpt lat="50.73991" lon="2.92777">
        <ele>18.9</ele>
        <time>2020-06-23T16:08:21Z</time>
      </trkpt>
      <trkpt lat="50.73994" lon="2.92787">
        <ele>18.9</ele>
        <time>2020-06-23T16:08:22Z</time>
      </trkpt>
      <trkpt lat="50.73995" lon="2.92795">
        <ele>19</ele>
        <time>2020-06-23T16:08:23Z</time>
      </trkpt>
      <trkpt lat="50.73996" lon="2.928">
        <ele>19</ele>
        <time>2020-06-23T16:08:24Z</time>
      </trkpt>
      <trkpt lat="50.73997" lon="2.92807">
        <ele>19</ele>
        <time>2020-06-23T16:08:25Z</time>
      </trkpt>
      <trkpt lat="50.73999" lon="2.92814">
        <ele>19</ele>
        <time>2020-06-23T16:08:26Z</time>
      </trkpt>
      <trkpt lat="50.74001" lon="2.92822">
        <ele>19.1</ele>
        <time>2020-06-23T16:08:27Z</time>
      </trkpt>
      <trkpt lat="50.74005" lon="2.92832">
        <ele>19.1</ele>
        <time>2020-06-23T16:08:28Z</time>
      </trkpt>
      <trkpt lat="50.74008" lon="2.9284">
        <ele>19.2</ele>
        <time>2020-06-23T16:08:29Z</time>
      </trkpt>
      <trkpt lat="50.7401" lon="2.92846">
        <ele>19.2</ele>
        <time>2020-06-23T16:08:30Z</time>
      </trkpt>
      <trkpt lat="50.7401" lon="2.92852">
        <ele>19.3</ele>
        <time>2020-06-23T16:08:31Z</time>
      </trkpt>
      <trkpt lat="50.74007" lon="2.92857">
        <ele>19.3</ele>
        <time>2020-06-23T16:08:32Z</time>
      </trkpt>
      <trkpt lat="50.74005" lon="2.92865">
        <ele>19.8</ele>
        <time>2020-06-23T16:08:33Z</time>
      </trkpt>
      <trkpt lat="50.74004" lon="2.92871">
        <ele>19.8</ele>
        <time>2020-06-23T16:08:34Z</time>
      </trkpt>
      <trkpt lat="50.74003" lon="2.92878">
        <ele>19.6</ele>
        <time>2020-06-23T16:08:35Z</time>
      </trkpt>
      <trkpt lat="50.74001" lon="2.92883">
        <ele>19.5</ele>
        <time>2020-06-23T16:08:36Z</time>
      </trkpt>
      <trkpt lat="50.73999" lon="2.92889">
        <ele>19.4</ele>
        <time>2020-06-23T16:08:37Z</time>
      </trkpt>
      <trkpt lat="50.73998" lon="2.92896">
        <ele>19.3</ele>
        <time>2020-06-23T16:08:38Z</time>
      </trkpt>
      <trkpt lat="50.73997" lon="2.92904">
        <ele>19.2</ele>
        <time>2020-06-23T16:08:39Z</time>
      </trkpt>
      <trkpt lat="50.73996" lon="2.92911">
        <ele>19.1</ele>
        <time>2020-06-23T16:08:40Z</time>
      </trkpt>
      <trkpt lat="50.73995" lon="2.92917">
        <ele>19.1</ele>
        <time>2020-06-23T16:08:41Z</time>
      </trkpt>
      <trkpt lat="50.73992" lon="2.92924">
        <ele>19</ele>
        <time>2020-06-23T16:08:42Z</time>
      </trkpt>
      <trkpt lat="50.73987" lon="2.92932">
        <ele>18.9</ele>
        <time>2020-06-23T16:08:43Z</time>
      </trkpt>
      <trkpt lat="50.73984" lon="2.92938">
        <ele>18.8</ele>
        <time>2020-06-23T16:08:44Z</time>
      </trkpt>
      <trkpt lat="50.73981" lon="2.92943">
        <ele>18.7</ele>
        <time>2020-06-23T16:08:45Z</time>
      </trkpt>
      <trkpt lat="50.73977" lon="2.92948">
        <ele>18.7</ele>
        <time>2020-06-23T16:08:46Z</time>
      </trkpt>
      <trkpt lat="50.73973" lon="2.92953">
        <ele>18.6</ele>
        <time>2020-06-23T16:08:47Z</time>
      </trkpt>
      <trkpt lat="50.73969" lon="2.92958">
        <ele>18.5</ele>
        <time>2020-06-23T16:08:48Z</time>
      </trkpt>
      <trkpt lat="50.73963" lon="2.92963">
        <ele>18.3</ele>
        <time>2020-06-23T16:08:49Z</time>
      </trkpt>
      <trkpt lat="50.73958" lon="2.92967">
        <ele>18.3</ele>
        <time>2020-06-23T16:08:50Z</time>
      </trkpt>
      <trkpt lat="50.73954" lon="2.92972">
        <ele>18.2</ele>
        <time>2020-06-23T16:08:51Z</time>
      </trkpt>
      <trkpt lat="50.73949" lon="2.92978">
        <ele>18.1</ele>
        <time>2020-06-23T16:08:52Z</time>
      </trkpt>
      <trkpt lat="50.73945" lon="2.92984">
        <ele>18</ele>
        <time>2020-06-23T16:08:53Z</time>
      </trkpt>
      <trkpt lat="50.73942" lon="2.9299">
        <ele>18</ele>
        <time>2020-06-23T16:08:54Z</time>
      </trkpt>
      <trkpt lat="50.73939" lon="2.92997">
        <ele>17.9</ele>
        <time>2020-06-23T16:08:55Z</time>
      </trkpt>
      <trkpt lat="50.73937" lon="2.93004">
        <ele>17.9</ele>
        <time>2020-06-23T16:08:56Z</time>
      </trkpt>
      <trkpt lat="50.73934" lon="2.93011">
        <ele>17.9</ele>
        <time>2020-06-23T16:08:57Z</time>
      </trkpt>
      <trkpt lat="50.73931" lon="2.93018">
        <ele>17.9</ele>
        <time>2020-06-23T16:08:58Z</time>
      </trkpt>
      <trkpt lat="50.73929" lon="2.93027">
        <ele>17.9</ele>
        <time>2020-06-23T16:08:59Z</time>
      </trkpt>
      <trkpt lat="50.73928" lon="2.93036">
        <ele>17.9</ele>
        <time>2020-06-23T16:09:00Z</time>
      </trkpt>
      <trkpt lat="50.73926" lon="2.93043">
        <ele>17.8</ele>
        <time>2020-06-23T16:09:01Z</time>
      </trkpt>
      <trkpt lat="50.73927" lon="2.93049">
        <ele>17.8</ele>
        <time>2020-06-23T16:09:02Z</time>
      </trkpt>
      <trkpt lat="50.73927" lon="2.93056">
        <ele>17.8</ele>
        <time>2020-06-23T16:09:03Z</time>
      </trkpt>
      <trkpt lat="50.73928" lon="2.93063">
        <ele>17.8</ele>
        <time>2020-06-23T16:09:04Z</time>
      </trkpt>
      <trkpt lat="50.73928" lon="2.9307">
        <ele>17.8</ele>
        <time>2020-06-23T16:09:05Z</time>
      </trkpt>
      <trkpt lat="50.73929" lon="2.93077">
        <ele>17.8</ele>
        <time>2020-06-23T16:09:06Z</time>
      </trkpt>
      <trkpt lat="50.73928" lon="2.93084">
        <ele>17.8</ele>
        <time>2020-06-23T16:09:07Z</time>
      </trkpt>
      <trkpt lat="50.73929" lon="2.93091">
        <ele>17.8</ele>
        <time>2020-06-23T16:09:08Z</time>
      </trkpt>
      <trkpt lat="50.73928" lon="2.93099">
        <ele>17.8</ele>
        <time>2020-06-23T16:09:09Z</time>
      </trkpt>
      <trkpt lat="50.73927" lon="2.93107">
        <ele>17.8</ele>
        <time>2020-06-23T16:09:10Z</time>
      </trkpt>
      <trkpt lat="50.73927" lon="2.93114">
        <ele>17.8</ele>
        <time>2020-06-23T16:09:11Z</time>
      </trkpt>
      <trkpt lat="50.73927" lon="2.93122">
        <ele>17.9</ele>
        <time>2020-06-23T16:09:12Z</time>
      </trkpt>
      <trkpt lat="50.73927" lon="2.93128">
        <ele>17.9</ele>
        <time>2020-06-23T16:09:13Z</time>
      </trkpt>
      <trkpt lat="50.73928" lon="2.93134">
        <ele>17.9</ele>
        <time>2020-06-23T16:09:14Z</time>
      </trkpt>
      <trkpt lat="50.73927" lon="2.9314">
        <ele>18</ele>
        <time>2020-06-23T16:09:15Z</time>
      </trkpt>
      <trkpt lat="50.73927" lon="2.93146">
        <ele>18</ele>
        <time>2020-06-23T16:09:16Z</time>
      </trkpt>
      <trkpt lat="50.73927" lon="2.93153">
        <ele>17.9</ele>
        <time>2020-06-23T16:09:17Z</time>
      </trkpt>
      <trkpt lat="50.73928" lon="2.93161">
        <ele>17.9</ele>
        <time>2020-06-23T16:09:18Z</time>
      </trkpt>
      <trkpt lat="50.73928" lon="2.93167">
        <ele>17.9</ele>
        <time>2020-06-23T16:09:19Z</time>
      </trkpt>
      <trkpt lat="50.73928" lon="2.93175">
        <ele>17.9</ele>
        <time>2020-06-23T16:09:20Z</time>
      </trkpt>
      <trkpt lat="50.73928" lon="2.93181">
        <ele>17.9</ele>
        <time>2020-06-23T16:09:21Z</time>
      </trkpt>
      <trkpt lat="50.73928" lon="2.93188">
        <ele>17.9</ele>
        <time>2020-06-23T16:09:22Z</time>
      </trkpt>
      <trkpt lat="50.73928" lon="2.93193">
        <ele>17.9</ele>
        <time>2020-06-23T16:09:23Z</time>
      </trkpt>
      <trkpt lat="50.73928" lon="2.93198">
        <ele>17.9</ele>
        <time>2020-06-23T16:09:24Z</time>
      </trkpt>
      <trkpt lat="50.73928" lon="2.93204">
        <ele>17.9</ele>
        <time>2020-06-23T16:09:25Z</time>
      </trkpt>
      <trkpt lat="50.73928" lon="2.93209">
        <ele>17.9</ele>
        <time>2020-06-23T16:09:26Z</time>
      </trkpt>
      <trkpt lat="50.73928" lon="2.93214">
        <ele>17.9</ele>
        <time>2020-06-23T16:09:27Z</time>
      </trkpt>
      <trkpt lat="50.73929" lon="2.93216">
        <ele>17.9</ele>
        <time>2020-06-23T16:09:28Z</time>
      </trkpt>
      <trkpt lat="50.73928" lon="2.93219">
        <ele>17.8</ele>
        <time>2020-06-23T16:09:29Z</time>
      </trkpt>
      <trkpt lat="50.73926" lon="2.9322">
        <ele>17.8</ele>
        <time>2020-06-23T16:09:30Z</time>
      </trkpt>
      <trkpt lat="50.73924" lon="2.93221">
        <ele>17.7</ele>
        <time>2020-06-23T16:09:31Z</time>
      </trkpt>
      <trkpt lat="50.7392" lon="2.93221">
        <ele>17.6</ele>
        <time>2020-06-23T16:09:32Z</time>
      </trkpt>
      <trkpt lat="50.73916" lon="2.93221">
        <ele>17.5</ele>
        <time>2020-06-23T16:09:33Z</time>
      </trkpt>
      <trkpt lat="50.73912" lon="2.93221">
        <ele>17.4</ele>
        <time>2020-06-23T16:09:34Z</time>
      </trkpt>
      <trkpt lat="50.73908" lon="2.93223">
        <ele>17.3</ele>
        <time>2020-06-23T16:09:35Z</time>
      </trkpt>
      <trkpt lat="50.73902" lon="2.93224">
        <ele>17.1</ele>
        <time>2020-06-23T16:09:36Z</time>
      </trkpt>
      <trkpt lat="50.73896" lon="2.93225">
        <ele>17.1</ele>
        <time>2020-06-23T16:09:37Z</time>
      </trkpt>
      <trkpt lat="50.73891" lon="2.93227">
        <ele>17</ele>
        <time>2020-06-23T16:09:38Z</time>
      </trkpt>
      <trkpt lat="50.73885" lon="2.93228">
        <ele>16.9</ele>
        <time>2020-06-23T16:09:39Z</time>
      </trkpt>
      <trkpt lat="50.7388" lon="2.93227">
        <ele>16.8</ele>
        <time>2020-06-23T16:09:40Z</time>
      </trkpt>
      <trkpt lat="50.73875" lon="2.93225">
        <ele>16.8</ele>
        <time>2020-06-23T16:09:41Z</time>
      </trkpt>
      <trkpt lat="50.73868" lon="2.93225">
        <ele>16.7</ele>
        <time>2020-06-23T16:09:42Z</time>
      </trkpt>
      <trkpt lat="50.73861" lon="2.93226">
        <ele>16.6</ele>
        <time>2020-06-23T16:09:43Z</time>
      </trkpt>
      <trkpt lat="50.73856" lon="2.93227">
        <ele>16.6</ele>
        <time>2020-06-23T16:09:44Z</time>
      </trkpt>
      <trkpt lat="50.7385" lon="2.93228">
        <ele>16.5</ele>
        <time>2020-06-23T16:09:45Z</time>
      </trkpt>
      <trkpt lat="50.73844" lon="2.93229">
        <ele>16.5</ele>
        <time>2020-06-23T16:09:46Z</time>
      </trkpt>
      <trkpt lat="50.73838" lon="2.93229">
        <ele>16.5</ele>
        <time>2020-06-23T16:09:47Z</time>
      </trkpt>
      <trkpt lat="50.73832" lon="2.9323">
        <ele>16.5</ele>
        <time>2020-06-23T16:09:48Z</time>
      </trkpt>
      <trkpt lat="50.73825" lon="2.93231">
        <ele>16.5</ele>
        <time>2020-06-23T16:09:49Z</time>
      </trkpt>
      <trkpt lat="50.73818" lon="2.93232">
        <ele>16.5</ele>
        <time>2020-06-23T16:09:50Z</time>
      </trkpt>
      <trkpt lat="50.73812" lon="2.93233">
        <ele>16.5</ele>
        <time>2020-06-23T16:09:51Z</time>
      </trkpt>
      <trkpt lat="50.73805" lon="2.93233">
        <ele>16.5</ele>
        <time>2020-06-23T16:09:52Z</time>
      </trkpt>
      <trkpt lat="50.73797" lon="2.93233">
        <ele>16.5</ele>
        <time>2020-06-23T16:09:53Z</time>
      </trkpt>
      <trkpt lat="50.7379" lon="2.93234">
        <ele>16.6</ele>
        <time>2020-06-23T16:09:54Z</time>
      </trkpt>
      <trkpt lat="50.73783" lon="2.93234">
        <ele>16.6</ele>
        <time>2020-06-23T16:09:55Z</time>
      </trkpt>
      <trkpt lat="50.73777" lon="2.93233">
        <ele>16.7</ele>
        <time>2020-06-23T16:09:56Z</time>
      </trkpt>
      <trkpt lat="50.73771" lon="2.93233">
        <ele>16.7</ele>
        <time>2020-06-23T16:09:57Z</time>
      </trkpt>
      <trkpt lat="50.73765" lon="2.93233">
        <ele>16.7</ele>
        <time>2020-06-23T16:09:58Z</time>
      </trkpt>
      <trkpt lat="50.73759" lon="2.93233">
        <ele>16.7</ele>
        <time>2020-06-23T16:09:59Z</time>
      </trkpt>
      <trkpt lat="50.73753" lon="2.93233">
        <ele>16.7</ele>
        <time>2020-06-23T16:10:00Z</time>
      </trkpt>
      <trkpt lat="50.73747" lon="2.93234">
        <ele>16.7</ele>
        <time>2020-06-23T16:10:01Z</time>
      </trkpt>
      <trkpt lat="50.73741" lon="2.93235">
        <ele>16.7</ele>
        <time>2020-06-23T16:10:02Z</time>
      </trkpt>
      <trkpt lat="50.73734" lon="2.93235">
        <ele>16.7</ele>
        <time>2020-06-23T16:10:03Z</time>
      </trkpt>
      <trkpt lat="50.73729" lon="2.93234">
        <ele>16.8</ele>
        <time>2020-06-23T16:10:04Z</time>
      </trkpt>
      <trkpt lat="50.73725" lon="2.93232">
        <ele>16.8</ele>
        <time>2020-06-23T16:10:05Z</time>
      </trkpt>
      <trkpt lat="50.73719" lon="2.93231">
        <ele>16.8</ele>
        <time>2020-06-23T16:10:06Z</time>
      </trkpt>
      <trkpt lat="50.73713" lon="2.9323">
        <ele>16.8</ele>
        <time>2020-06-23T16:10:07Z</time>
      </trkpt>
      <trkpt lat="50.73708" lon="2.93231">
        <ele>16.8</ele>
        <time>2020-06-23T16:10:08Z</time>
      </trkpt>
      <trkpt lat="50.73702" lon="2.93232">
        <ele>16.8</ele>
        <time>2020-06-23T16:10:09Z</time>
      </trkpt>
      <trkpt lat="50.73696" lon="2.93231">
        <ele>16.9</ele>
        <time>2020-06-23T16:10:10Z</time>
      </trkpt>
      <trkpt lat="50.7369" lon="2.93232">
        <ele>16.9</ele>
        <time>2020-06-23T16:10:11Z</time>
      </trkpt>
      <trkpt lat="50.73684" lon="2.93231">
        <ele>16.9</ele>
        <time>2020-06-23T16:10:12Z</time>
      </trkpt>
      <trkpt lat="50.73678" lon="2.93231">
        <ele>16.9</ele>
        <time>2020-06-23T16:10:13Z</time>
      </trkpt>
      <trkpt lat="50.73673" lon="2.9323">
        <ele>16.8</ele>
        <time>2020-06-23T16:10:14Z</time>
      </trkpt>
      <trkpt lat="50.73667" lon="2.93229">
        <ele>16.8</ele>
        <time>2020-06-23T16:10:15Z</time>
      </trkpt>
      <trkpt lat="50.73659" lon="2.93229">
        <ele>16.8</ele>
        <time>2020-06-23T16:10:16Z</time>
      </trkpt>
      <trkpt lat="50.73653" lon="2.93228">
        <ele>16.8</ele>
        <time>2020-06-23T16:10:17Z</time>
      </trkpt>
      <trkpt lat="50.73646" lon="2.93227">
        <ele>16.8</ele>
        <time>2020-06-23T16:10:18Z</time>
      </trkpt>
      <trkpt lat="50.7364" lon="2.93225">
        <ele>16.8</ele>
        <time>2020-06-23T16:10:19Z</time>
      </trkpt>
      <trkpt lat="50.73635" lon="2.93224">
        <ele>16.9</ele>
        <time>2020-06-23T16:10:20Z</time>
      </trkpt>
      <trkpt lat="50.73629" lon="2.93223">
        <ele>16.9</ele>
        <time>2020-06-23T16:10:21Z</time>
      </trkpt>
      <trkpt lat="50.73623" lon="2.93221">
        <ele>17</ele>
        <time>2020-06-23T16:10:22Z</time>
      </trkpt>
      <trkpt lat="50.73617" lon="2.93219">
        <ele>17.1</ele>
        <time>2020-06-23T16:10:23Z</time>
      </trkpt>
      <trkpt lat="50.73612" lon="2.93217">
        <ele>17.1</ele>
        <time>2020-06-23T16:10:24Z</time>
      </trkpt>
      <trkpt lat="50.73607" lon="2.93215">
        <ele>17.2</ele>
        <time>2020-06-23T16:10:25Z</time>
      </trkpt>
      <trkpt lat="50.736" lon="2.93214">
        <ele>17.1</ele>
        <time>2020-06-23T16:10:26Z</time>
      </trkpt>
      <trkpt lat="50.73594" lon="2.93213">
        <ele>17.1</ele>
        <time>2020-06-23T16:10:27Z</time>
      </trkpt>
      <trkpt lat="50.73588" lon="2.93211">
        <ele>17.1</ele>
        <time>2020-06-23T16:10:28Z</time>
      </trkpt>
      <trkpt lat="50.73582" lon="2.9321">
        <ele>17.1</ele>
        <time>2020-06-23T16:10:29Z</time>
      </trkpt>
      <trkpt lat="50.73576" lon="2.9321">
        <ele>17.1</ele>
        <time>2020-06-23T16:10:30Z</time>
      </trkpt>
      <trkpt lat="50.7357" lon="2.93209">
        <ele>17.1</ele>
        <time>2020-06-23T16:10:31Z</time>
      </trkpt>
      <trkpt lat="50.73564" lon="2.93209">
        <ele>17</ele>
        <time>2020-06-23T16:10:32Z</time>
      </trkpt>
      <trkpt lat="50.73557" lon="2.93209">
        <ele>17</ele>
        <time>2020-06-23T16:10:33Z</time>
      </trkpt>
      <trkpt lat="50.73551" lon="2.93209">
        <ele>16.9</ele>
        <time>2020-06-23T16:10:34Z</time>
      </trkpt>
      <trkpt lat="50.73545" lon="2.93211">
        <ele>16.9</ele>
        <time>2020-06-23T16:10:35Z</time>
      </trkpt>
      <trkpt lat="50.7354" lon="2.93215">
        <ele>16.8</ele>
        <time>2020-06-23T16:10:36Z</time>
      </trkpt>
      <trkpt lat="50.73532" lon="2.93221">
        <ele>16.7</ele>
        <time>2020-06-23T16:10:37Z</time>
      </trkpt>
      <trkpt lat="50.73525" lon="2.93227">
        <ele>16.7</ele>
        <time>2020-06-23T16:10:38Z</time>
      </trkpt>
      <trkpt lat="50.73519" lon="2.93232">
        <ele>16.6</ele>
        <time>2020-06-23T16:10:39Z</time>
      </trkpt>
      <trkpt lat="50.73513" lon="2.93237">
        <ele>16.6</ele>
        <time>2020-06-23T16:10:40Z</time>
      </trkpt>
      <trkpt lat="50.73508" lon="2.93241">
        <ele>16.5</ele>
        <time>2020-06-23T16:10:41Z</time>
      </trkpt>
      <trkpt lat="50.73503" lon="2.93245">
        <ele>16.4</ele>
        <time>2020-06-23T16:10:42Z</time>
      </trkpt>
      <trkpt lat="50.73497" lon="2.93248">
        <ele>16.2</ele>
        <time>2020-06-23T16:10:43Z</time>
      </trkpt>
      <trkpt lat="50.73491" lon="2.93252">
        <ele>16.1</ele>
        <time>2020-06-23T16:10:44Z</time>
      </trkpt>
      <trkpt lat="50.73485" lon="2.93255">
        <ele>16</ele>
        <time>2020-06-23T16:10:45Z</time>
      </trkpt>
      <trkpt lat="50.73479" lon="2.93257">
        <ele>15.9</ele>
        <time>2020-06-23T16:10:46Z</time>
      </trkpt>
      <trkpt lat="50.73472" lon="2.9326">
        <ele>15.9</ele>
        <time>2020-06-23T16:10:47Z</time>
      </trkpt>
      <trkpt lat="50.73466" lon="2.93262">
        <ele>15.8</ele>
        <time>2020-06-23T16:10:48Z</time>
      </trkpt>
      <trkpt lat="50.73459" lon="2.93264">
        <ele>15.7</ele>
        <time>2020-06-23T16:10:49Z</time>
      </trkpt>
      <trkpt lat="50.73453" lon="2.93266">
        <ele>15.5</ele>
        <time>2020-06-23T16:10:50Z</time>
      </trkpt>
      <trkpt lat="50.73447" lon="2.93267">
        <ele>15.4</ele>
        <time>2020-06-23T16:10:51Z</time>
      </trkpt>
      <trkpt lat="50.7344" lon="2.93269">
        <ele>15.3</ele>
        <time>2020-06-23T16:10:52Z</time>
      </trkpt>
      <trkpt lat="50.73435" lon="2.93269">
        <ele>15.2</ele>
        <time>2020-06-23T16:10:53Z</time>
      </trkpt>
      <trkpt lat="50.73429" lon="2.93269">
        <ele>15.1</ele>
        <time>2020-06-23T16:10:54Z</time>
      </trkpt>
      <trkpt lat="50.73423" lon="2.93269">
        <ele>15</ele>
        <time>2020-06-23T16:10:55Z</time>
      </trkpt>
      <trkpt lat="50.73418" lon="2.9327">
        <ele>14.9</ele>
        <time>2020-06-23T16:10:56Z</time>
      </trkpt>
      <trkpt lat="50.73412" lon="2.93271">
        <ele>14.9</ele>
        <time>2020-06-23T16:10:57Z</time>
      </trkpt>
      <trkpt lat="50.73407" lon="2.93271">
        <ele>14.8</ele>
        <time>2020-06-23T16:10:58Z</time>
      </trkpt>
      <trkpt lat="50.73401" lon="2.93271">
        <ele>14.7</ele>
        <time>2020-06-23T16:10:59Z</time>
      </trkpt>
      <trkpt lat="50.73395" lon="2.93271">
        <ele>14.6</ele>
        <time>2020-06-23T16:11:00Z</time>
      </trkpt>
      <trkpt lat="50.73389" lon="2.9327">
        <ele>14.5</ele>
        <time>2020-06-23T16:11:01Z</time>
      </trkpt>
      <trkpt lat="50.73382" lon="2.9327">
        <ele>14.4</ele>
        <time>2020-06-23T16:11:02Z</time>
      </trkpt>
      <trkpt lat="50.73376" lon="2.93272">
        <ele>14.3</ele>
        <time>2020-06-23T16:11:03Z</time>
      </trkpt>
      <trkpt lat="50.7337" lon="2.93274">
        <ele>14.2</ele>
        <time>2020-06-23T16:11:04Z</time>
      </trkpt>
      <trkpt lat="50.73363" lon="2.93277">
        <ele>14.1</ele>
        <time>2020-06-23T16:11:05Z</time>
      </trkpt>
      <trkpt lat="50.73357" lon="2.9328">
        <ele>14.1</ele>
        <time>2020-06-23T16:11:06Z</time>
      </trkpt>
      <trkpt lat="50.7335" lon="2.93286">
        <ele>14.1</ele>
        <time>2020-06-23T16:11:07Z</time>
      </trkpt>
      <trkpt lat="50.73343" lon="2.93291">
        <ele>14.2</ele>
        <time>2020-06-23T16:11:08Z</time>
      </trkpt>
      <trkpt lat="50.73337" lon="2.93295">
        <ele>14.3</ele>
        <time>2020-06-23T16:11:09Z</time>
      </trkpt>
      <trkpt lat="50.7333" lon="2.93299">
        <ele>14.3</ele>
        <time>2020-06-23T16:11:10Z</time>
      </trkpt>
      <trkpt lat="50.73324" lon="2.93304">
        <ele>14.3</ele>
        <time>2020-06-23T16:11:11Z</time>
      </trkpt>
      <trkpt lat="50.73317" lon="2.93308">
        <ele>14.4</ele>
        <time>2020-06-23T16:11:12Z</time>
      </trkpt>
      <trkpt lat="50.73311" lon="2.93312">
        <ele>14.4</ele>
        <time>2020-06-23T16:11:13Z</time>
      </trkpt>
      <trkpt lat="50.73306" lon="2.93317">
        <ele>14.4</ele>
        <time>2020-06-23T16:11:14Z</time>
      </trkpt>
      <trkpt lat="50.73299" lon="2.93323">
        <ele>14.5</ele>
        <time>2020-06-23T16:11:15Z</time>
      </trkpt>
      <trkpt lat="50.73294" lon="2.93327">
        <ele>14.5</ele>
        <time>2020-06-23T16:11:16Z</time>
      </trkpt>
      <trkpt lat="50.73289" lon="2.93332">
        <ele>14.4</ele>
        <time>2020-06-23T16:11:17Z</time>
      </trkpt>
      <trkpt lat="50.73284" lon="2.93337">
        <ele>14.4</ele>
        <time>2020-06-23T16:11:18Z</time>
      </trkpt>
      <trkpt lat="50.73278" lon="2.93342">
        <ele>14.4</ele>
        <time>2020-06-23T16:11:19Z</time>
      </trkpt>
      <trkpt lat="50.73272" lon="2.93346">
        <ele>14.5</ele>
        <time>2020-06-23T16:11:20Z</time>
      </trkpt>
      <trkpt lat="50.73267" lon="2.9335">
        <ele>14.5</ele>
        <time>2020-06-23T16:11:21Z</time>
      </trkpt>
      <trkpt lat="50.7326" lon="2.93355">
        <ele>14.5</ele>
        <time>2020-06-23T16:11:22Z</time>
      </trkpt>
      <trkpt lat="50.73253" lon="2.93358">
        <ele>14.6</ele>
        <time>2020-06-23T16:11:23Z</time>
      </trkpt>
      <trkpt lat="50.73248" lon="2.93363">
        <ele>14.6</ele>
        <time>2020-06-23T16:11:24Z</time>
      </trkpt>
      <trkpt lat="50.73242" lon="2.93369">
        <ele>14.6</ele>
        <time>2020-06-23T16:11:25Z</time>
      </trkpt>
      <trkpt lat="50.73236" lon="2.93374">
        <ele>14.6</ele>
        <time>2020-06-23T16:11:26Z</time>
      </trkpt>
      <trkpt lat="50.7323" lon="2.93379">
        <ele>14.7</ele>
        <time>2020-06-23T16:11:27Z</time>
      </trkpt>
      <trkpt lat="50.73225" lon="2.93384">
        <ele>14.6</ele>
        <time>2020-06-23T16:11:28Z</time>
      </trkpt>
      <trkpt lat="50.7322" lon="2.93388">
        <ele>14.6</ele>
        <time>2020-06-23T16:11:29Z</time>
      </trkpt>
      <trkpt lat="50.73215" lon="2.93393">
        <ele>14.6</ele>
        <time>2020-06-23T16:11:30Z</time>
      </trkpt>
      <trkpt lat="50.73209" lon="2.93398">
        <ele>14.7</ele>
        <time>2020-06-23T16:11:31Z</time>
      </trkpt>
      <trkpt lat="50.73203" lon="2.93402">
        <ele>14.7</ele>
        <time>2020-06-23T16:11:32Z</time>
      </trkpt>
      <trkpt lat="50.73197" lon="2.93408">
        <ele>14.7</ele>
        <time>2020-06-23T16:11:33Z</time>
      </trkpt>
      <trkpt lat="50.73192" lon="2.93413">
        <ele>14.7</ele>
        <time>2020-06-23T16:11:34Z</time>
      </trkpt>
      <trkpt lat="50.73187" lon="2.93419">
        <ele>14.7</ele>
        <time>2020-06-23T16:11:35Z</time>
      </trkpt>
      <trkpt lat="50.73182" lon="2.93425">
        <ele>14.7</ele>
        <time>2020-06-23T16:11:36Z</time>
      </trkpt>
      <trkpt lat="50.73177" lon="2.9343">
        <ele>14.7</ele>
        <time>2020-06-23T16:11:37Z</time>
      </trkpt>
      <trkpt lat="50.73173" lon="2.93435">
        <ele>14.7</ele>
        <time>2020-06-23T16:11:38Z</time>
      </trkpt>
      <trkpt lat="50.73168" lon="2.93439">
        <ele>14.7</ele>
        <time>2020-06-23T16:11:39Z</time>
      </trkpt>
      <trkpt lat="50.73164" lon="2.93443">
        <ele>14.7</ele>
        <time>2020-06-23T16:11:40Z</time>
      </trkpt>
      <trkpt lat="50.73159" lon="2.93448">
        <ele>14.7</ele>
        <time>2020-06-23T16:11:41Z</time>
      </trkpt>
      <trkpt lat="50.73154" lon="2.93453">
        <ele>14.7</ele>
        <time>2020-06-23T16:11:42Z</time>
      </trkpt>
      <trkpt lat="50.73149" lon="2.9346">
        <ele>14.7</ele>
        <time>2020-06-23T16:11:43Z</time>
      </trkpt>
      <trkpt lat="50.73144" lon="2.93468">
        <ele>14.7</ele>
        <time>2020-06-23T16:11:44Z</time>
      </trkpt>
      <trkpt lat="50.7314" lon="2.93474">
        <ele>14.7</ele>
        <time>2020-06-23T16:11:45Z</time>
      </trkpt>
      <trkpt lat="50.73136" lon="2.93481">
        <ele>14.7</ele>
        <time>2020-06-23T16:11:46Z</time>
      </trkpt>
      <trkpt lat="50.73132" lon="2.93487">
        <ele>14.7</ele>
        <time>2020-06-23T16:11:47Z</time>
      </trkpt>
      <trkpt lat="50.73128" lon="2.93492">
        <ele>14.7</ele>
        <time>2020-06-23T16:11:48Z</time>
      </trkpt>
      <trkpt lat="50.73124" lon="2.93499">
        <ele>14.7</ele>
        <time>2020-06-23T16:11:49Z</time>
      </trkpt>
      <trkpt lat="50.7312" lon="2.93504">
        <ele>14.7</ele>
        <time>2020-06-23T16:11:50Z</time>
      </trkpt>
      <trkpt lat="50.73116" lon="2.9351">
        <ele>14.8</ele>
        <time>2020-06-23T16:11:51Z</time>
      </trkpt>
      <trkpt lat="50.73112" lon="2.93516">
        <ele>14.8</ele>
        <time>2020-06-23T16:11:52Z</time>
      </trkpt>
      <trkpt lat="50.73108" lon="2.93522">
        <ele>14.9</ele>
        <time>2020-06-23T16:11:53Z</time>
      </trkpt>
      <trkpt lat="50.73104" lon="2.93527">
        <ele>14.9</ele>
        <time>2020-06-23T16:11:54Z</time>
      </trkpt>
      <trkpt lat="50.73099" lon="2.93534">
        <ele>15</ele>
        <time>2020-06-23T16:11:55Z</time>
      </trkpt>
      <trkpt lat="50.73095" lon="2.93541">
        <ele>15.1</ele>
        <time>2020-06-23T16:11:56Z</time>
      </trkpt>
      <trkpt lat="50.73091" lon="2.93547">
        <ele>15.2</ele>
        <time>2020-06-23T16:11:57Z</time>
      </trkpt>
      <trkpt lat="50.73086" lon="2.93554">
        <ele>15.2</ele>
        <time>2020-06-23T16:11:58Z</time>
      </trkpt>
      <trkpt lat="50.73082" lon="2.9356">
        <ele>15.3</ele>
        <time>2020-06-23T16:11:59Z</time>
      </trkpt>
      <trkpt lat="50.73077" lon="2.93567">
        <ele>15.4</ele>
        <time>2020-06-23T16:12:00Z</time>
      </trkpt>
      <trkpt lat="50.73073" lon="2.93572">
        <ele>15.5</ele>
        <time>2020-06-23T16:12:01Z</time>
      </trkpt>
      <trkpt lat="50.73069" lon="2.93578">
        <ele>15.6</ele>
        <time>2020-06-23T16:12:02Z</time>
      </trkpt>
      <trkpt lat="50.73066" lon="2.93583">
        <ele>15.6</ele>
        <time>2020-06-23T16:12:03Z</time>
      </trkpt>
      <trkpt lat="50.73062" lon="2.93588">
        <ele>15.7</ele>
        <time>2020-06-23T16:12:04Z</time>
      </trkpt>
      <trkpt lat="50.73058" lon="2.93594">
        <ele>15.8</ele>
        <time>2020-06-23T16:12:05Z</time>
      </trkpt>
      <trkpt lat="50.73054" lon="2.936">
        <ele>15.8</ele>
        <time>2020-06-23T16:12:06Z</time>
      </trkpt>
      <trkpt lat="50.73049" lon="2.93606">
        <ele>15.9</ele>
        <time>2020-06-23T16:12:07Z</time>
      </trkpt>
      <trkpt lat="50.73045" lon="2.93612">
        <ele>16</ele>
        <time>2020-06-23T16:12:08Z</time>
      </trkpt>
      <trkpt lat="50.73041" lon="2.93619">
        <ele>16.1</ele>
        <time>2020-06-23T16:12:09Z</time>
      </trkpt>
      <trkpt lat="50.73037" lon="2.93625">
        <ele>16.2</ele>
        <time>2020-06-23T16:12:10Z</time>
      </trkpt>
      <trkpt lat="50.73034" lon="2.93632">
        <ele>16.3</ele>
        <time>2020-06-23T16:12:11Z</time>
      </trkpt>
      <trkpt lat="50.73031" lon="2.93638">
        <ele>16.4</ele>
        <time>2020-06-23T16:12:12Z</time>
      </trkpt>
      <trkpt lat="50.73029" lon="2.93643">
        <ele>16.6</ele>
        <time>2020-06-23T16:12:13Z</time>
      </trkpt>
      <trkpt lat="50.73027" lon="2.93647">
        <ele>16.7</ele>
        <time>2020-06-23T16:12:14Z</time>
      </trkpt>
      <trkpt lat="50.73025" lon="2.93651">
        <ele>16.8</ele>
        <time>2020-06-23T16:12:15Z</time>
      </trkpt>
      <trkpt lat="50.73023" lon="2.93656">
        <ele>16.9</ele>
        <time>2020-06-23T16:12:16Z</time>
      </trkpt>
      <trkpt lat="50.73022" lon="2.93658">
        <ele>16.9</ele>
        <time>2020-06-23T16:12:17Z</time>
      </trkpt>
      <trkpt lat="50.7302" lon="2.93662">
        <ele>16.9</ele>
        <time>2020-06-23T16:12:18Z</time>
      </trkpt>
      <trkpt lat="50.73017" lon="2.93667">
        <ele>16.9</ele>
        <time>2020-06-23T16:12:19Z</time>
      </trkpt>
      <trkpt lat="50.73015" lon="2.93669">
        <ele>16.9</ele>
        <time>2020-06-23T16:12:20Z</time>
      </trkpt>
      <trkpt lat="50.73012" lon="2.93673">
        <ele>16.9</ele>
        <time>2020-06-23T16:12:21Z</time>
      </trkpt>
      <trkpt lat="50.7301" lon="2.93677">
        <ele>16.9</ele>
        <time>2020-06-23T16:12:22Z</time>
      </trkpt>
      <trkpt lat="50.73008" lon="2.93681">
        <ele>16.9</ele>
        <time>2020-06-23T16:12:23Z</time>
      </trkpt>
      <trkpt lat="50.73005" lon="2.93687">
        <ele>16.9</ele>
        <time>2020-06-23T16:12:24Z</time>
      </trkpt>
      <trkpt lat="50.73004" lon="2.93691">
        <ele>16.9</ele>
        <time>2020-06-23T16:12:25Z</time>
      </trkpt>
      <trkpt lat="50.73002" lon="2.93695">
        <ele>16.9</ele>
        <time>2020-06-23T16:12:26Z</time>
      </trkpt>
      <trkpt lat="50.73001" lon="2.937">
        <ele>16.8</ele>
        <time>2020-06-23T16:12:27Z</time>
      </trkpt>
      <trkpt lat="50.72998" lon="2.93704">
        <ele>16.8</ele>
        <time>2020-06-23T16:12:28Z</time>
      </trkpt>
      <trkpt lat="50.72996" lon="2.93708">
        <ele>16.8</ele>
        <time>2020-06-23T16:12:29Z</time>
      </trkpt>
      <trkpt lat="50.72994" lon="2.93714">
        <ele>16.8</ele>
        <time>2020-06-23T16:12:30Z</time>
      </trkpt>
      <trkpt lat="50.72994" lon="2.93716">
        <ele>16.8</ele>
        <time>2020-06-23T16:12:31Z</time>
      </trkpt>
      <trkpt lat="50.72991" lon="2.93721">
        <ele>16.7</ele>
        <time>2020-06-23T16:12:32Z</time>
      </trkpt>
      <trkpt lat="50.7299" lon="2.93724">
        <ele>16.7</ele>
        <time>2020-06-23T16:12:33Z</time>
      </trkpt>
      <trkpt lat="50.72989" lon="2.93728">
        <ele>16.6</ele>
        <time>2020-06-23T16:12:34Z</time>
      </trkpt>
      <trkpt lat="50.72987" lon="2.93735">
        <ele>16.5</ele>
        <time>2020-06-23T16:12:35Z</time>
      </trkpt>
      <trkpt lat="50.72985" lon="2.93743">
        <ele>16.4</ele>
        <time>2020-06-23T16:12:36Z</time>
      </trkpt>
      <trkpt lat="50.72982" lon="2.93749">
        <ele>16.3</ele>
        <time>2020-06-23T16:12:37Z</time>
      </trkpt>
      <trkpt lat="50.72979" lon="2.93756">
        <ele>16.2</ele>
        <time>2020-06-23T16:12:38Z</time>
      </trkpt>
      <trkpt lat="50.72974" lon="2.93761">
        <ele>16</ele>
        <time>2020-06-23T16:12:39Z</time>
      </trkpt>
      <trkpt lat="50.7297" lon="2.93766">
        <ele>16</ele>
        <time>2020-06-23T16:12:40Z</time>
      </trkpt>
      <trkpt lat="50.72966" lon="2.93772">
        <ele>15.9</ele>
        <time>2020-06-23T16:12:41Z</time>
      </trkpt>
      <trkpt lat="50.72962" lon="2.93776">
        <ele>15.9</ele>
        <time>2020-06-23T16:12:42Z</time>
      </trkpt>
      <trkpt lat="50.7296" lon="2.9378">
        <ele>15.9</ele>
        <time>2020-06-23T16:12:43Z</time>
      </trkpt>
      <trkpt lat="50.72957" lon="2.93784">
        <ele>15.8</ele>
        <time>2020-06-23T16:12:44Z</time>
      </trkpt>
      <trkpt lat="50.72955" lon="2.93788">
        <ele>15.7</ele>
        <time>2020-06-23T16:12:45Z</time>
      </trkpt>
      <trkpt lat="50.72952" lon="2.93792">
        <ele>15.7</ele>
        <time>2020-06-23T16:12:46Z</time>
      </trkpt>
      <trkpt lat="50.72949" lon="2.93795">
        <ele>15.6</ele>
        <time>2020-06-23T16:12:47Z</time>
      </trkpt>
      <trkpt lat="50.72947" lon="2.93801">
        <ele>15.6</ele>
        <time>2020-06-23T16:12:48Z</time>
      </trkpt>
      <trkpt lat="50.72944" lon="2.93807">
        <ele>15.5</ele>
        <time>2020-06-23T16:12:49Z</time>
      </trkpt>
      <trkpt lat="50.72941" lon="2.93812">
        <ele>15.5</ele>
        <time>2020-06-23T16:12:50Z</time>
      </trkpt>
      <trkpt lat="50.72939" lon="2.93816">
        <ele>15.4</ele>
        <time>2020-06-23T16:12:51Z</time>
      </trkpt>
      <trkpt lat="50.72937" lon="2.9382">
        <ele>15.4</ele>
        <time>2020-06-23T16:12:52Z</time>
      </trkpt>
      <trkpt lat="50.72934" lon="2.93823">
        <ele>15.4</ele>
        <time>2020-06-23T16:12:53Z</time>
      </trkpt>
      <trkpt lat="50.72931" lon="2.93827">
        <ele>15.3</ele>
        <time>2020-06-23T16:12:54Z</time>
      </trkpt>
      <trkpt lat="50.7293" lon="2.93828">
        <ele>15.3</ele>
        <time>2020-06-23T16:12:55Z</time>
      </trkpt>
      <trkpt lat="50.72927" lon="2.93831">
        <ele>15.3</ele>
        <time>2020-06-23T16:12:56Z</time>
      </trkpt>
      <trkpt lat="50.72926" lon="2.93832">
        <ele>15.3</ele>
        <time>2020-06-23T16:12:57Z</time>
      </trkpt>
      <trkpt lat="50.72924" lon="2.93834">
        <ele>15.3</ele>
        <time>2020-06-23T16:12:58Z</time>
      </trkpt>
      <trkpt lat="50.72921" lon="2.93838">
        <ele>15.2</ele>
        <time>2020-06-23T16:12:59Z</time>
      </trkpt>
      <trkpt lat="50.7292" lon="2.93839">
        <ele>15.2</ele>
        <time>2020-06-23T16:13:00Z</time>
      </trkpt>
      <trkpt lat="50.72918" lon="2.93844">
        <ele>15.2</ele>
        <time>2020-06-23T16:13:01Z</time>
      </trkpt>
      <trkpt lat="50.72916" lon="2.93846">
        <ele>15.2</ele>
        <time>2020-06-23T16:13:02Z</time>
      </trkpt>
      <trkpt lat="50.72915" lon="2.9385">
        <ele>15.1</ele>
        <time>2020-06-23T16:13:03Z</time>
      </trkpt>
      <trkpt lat="50.72913" lon="2.93855">
        <ele>15.1</ele>
        <time>2020-06-23T16:13:04Z</time>
      </trkpt>
      <trkpt lat="50.72911" lon="2.93859">
        <ele>15</ele>
        <time>2020-06-23T16:13:05Z</time>
      </trkpt>
      <trkpt lat="50.72908" lon="2.93865">
        <ele>14.9</ele>
        <time>2020-06-23T16:13:06Z</time>
      </trkpt>
      <trkpt lat="50.72905" lon="2.93871">
        <ele>14.9</ele>
        <time>2020-06-23T16:13:07Z</time>
      </trkpt>
      <trkpt lat="50.72903" lon="2.93878">
        <ele>14.8</ele>
        <time>2020-06-23T16:13:08Z</time>
      </trkpt>
      <trkpt lat="50.729" lon="2.93885">
        <ele>14.8</ele>
        <time>2020-06-23T16:13:09Z</time>
      </trkpt>
      <trkpt lat="50.72896" lon="2.93893">
        <ele>14.7</ele>
        <time>2020-06-23T16:13:10Z</time>
      </trkpt>
      <trkpt lat="50.72893" lon="2.93898">
        <ele>14.7</ele>
        <time>2020-06-23T16:13:11Z</time>
      </trkpt>
      <trkpt lat="50.7289" lon="2.93902">
        <ele>14.8</ele>
        <time>2020-06-23T16:13:12Z</time>
      </trkpt>
      <trkpt lat="50.72888" lon="2.93906">
        <ele>14.8</ele>
        <time>2020-06-23T16:13:13Z</time>
      </trkpt>
      <trkpt lat="50.72885" lon="2.9391">
        <ele>14.8</ele>
        <time>2020-06-23T16:13:14Z</time>
      </trkpt>
      <trkpt lat="50.72882" lon="2.93914">
        <ele>14.9</ele>
        <time>2020-06-23T16:13:15Z</time>
      </trkpt>
      <trkpt lat="50.72879" lon="2.93917">
        <ele>14.9</ele>
        <time>2020-06-23T16:13:16Z</time>
      </trkpt>
      <trkpt lat="50.72876" lon="2.93922">
        <ele>15</ele>
        <time>2020-06-23T16:13:17Z</time>
      </trkpt>
      <trkpt lat="50.72872" lon="2.93927">
        <ele>15</ele>
        <time>2020-06-23T16:13:18Z</time>
      </trkpt>
      <trkpt lat="50.7287" lon="2.93931">
        <ele>15.1</ele>
        <time>2020-06-23T16:13:19Z</time>
      </trkpt>
      <trkpt lat="50.72868" lon="2.93935">
        <ele>15.2</ele>
        <time>2020-06-23T16:13:20Z</time>
      </trkpt>
      <trkpt lat="50.72866" lon="2.9394">
        <ele>15.2</ele>
        <time>2020-06-23T16:13:21Z</time>
      </trkpt>
      <trkpt lat="50.72864" lon="2.93945">
        <ele>15.3</ele>
        <time>2020-06-23T16:13:22Z</time>
      </trkpt>
      <trkpt lat="50.72861" lon="2.9395">
        <ele>15.4</ele>
        <time>2020-06-23T16:13:23Z</time>
      </trkpt>
      <trkpt lat="50.72858" lon="2.93955">
        <ele>15.5</ele>
        <time>2020-06-23T16:13:24Z</time>
      </trkpt>
      <trkpt lat="50.72856" lon="2.93961">
        <ele>15.6</ele>
        <time>2020-06-23T16:13:25Z</time>
      </trkpt>
      <trkpt lat="50.72852" lon="2.93966">
        <ele>15.7</ele>
        <time>2020-06-23T16:13:26Z</time>
      </trkpt>
      <trkpt lat="50.72848" lon="2.93971">
        <ele>15.8</ele>
        <time>2020-06-23T16:13:27Z</time>
      </trkpt>
      <trkpt lat="50.72844" lon="2.93976">
        <ele>15.8</ele>
        <time>2020-06-23T16:13:28Z</time>
      </trkpt>
      <trkpt lat="50.72841" lon="2.93983">
        <ele>15.9</ele>
        <time>2020-06-23T16:13:29Z</time>
      </trkpt>
      <trkpt lat="50.72838" lon="2.93989">
        <ele>16</ele>
        <time>2020-06-23T16:13:30Z</time>
      </trkpt>
      <trkpt lat="50.72835" lon="2.93995">
        <ele>16</ele>
        <time>2020-06-23T16:13:31Z</time>
      </trkpt>
      <trkpt lat="50.72832" lon="2.94">
        <ele>16.1</ele>
        <time>2020-06-23T16:13:32Z</time>
      </trkpt>
      <trkpt lat="50.72829" lon="2.94006">
        <ele>16.2</ele>
        <time>2020-06-23T16:13:33Z</time>
      </trkpt>
      <trkpt lat="50.72825" lon="2.94012">
        <ele>16.2</ele>
        <time>2020-06-23T16:13:34Z</time>
      </trkpt>
      <trkpt lat="50.72821" lon="2.94018">
        <ele>16.3</ele>
        <time>2020-06-23T16:13:35Z</time>
      </trkpt>
      <trkpt lat="50.72818" lon="2.94024">
        <ele>16.4</ele>
        <time>2020-06-23T16:13:36Z</time>
      </trkpt>
      <trkpt lat="50.72814" lon="2.94029">
        <ele>16.4</ele>
        <time>2020-06-23T16:13:37Z</time>
      </trkpt>
      <trkpt lat="50.72811" lon="2.94035">
        <ele>16.5</ele>
        <time>2020-06-23T16:13:38Z</time>
      </trkpt>
      <trkpt lat="50.72808" lon="2.94039">
        <ele>16.6</ele>
        <time>2020-06-23T16:13:39Z</time>
      </trkpt>
      <trkpt lat="50.72805" lon="2.94044">
        <ele>16.6</ele>
        <time>2020-06-23T16:13:40Z</time>
      </trkpt>
      <trkpt lat="50.72801" lon="2.9405">
        <ele>16.7</ele>
        <time>2020-06-23T16:13:41Z</time>
      </trkpt>
      <trkpt lat="50.72797" lon="2.94054">
        <ele>16.8</ele>
        <time>2020-06-23T16:13:42Z</time>
      </trkpt>
      <trkpt lat="50.72794" lon="2.94059">
        <ele>16.8</ele>
        <time>2020-06-23T16:13:43Z</time>
      </trkpt>
      <trkpt lat="50.7279" lon="2.94063">
        <ele>16.9</ele>
        <time>2020-06-23T16:13:44Z</time>
      </trkpt>
      <trkpt lat="50.72786" lon="2.94067">
        <ele>16.9</ele>
        <time>2020-06-23T16:13:45Z</time>
      </trkpt>
      <trkpt lat="50.72783" lon="2.94073">
        <ele>17</ele>
        <time>2020-06-23T16:13:46Z</time>
      </trkpt>
      <trkpt lat="50.7278" lon="2.94077">
        <ele>17</ele>
        <time>2020-06-23T16:13:47Z</time>
      </trkpt>
      <trkpt lat="50.72776" lon="2.94082">
        <ele>17.1</ele>
        <time>2020-06-23T16:13:48Z</time>
      </trkpt>
      <trkpt lat="50.72773" lon="2.94087">
        <ele>17.1</ele>
        <time>2020-06-23T16:13:49Z</time>
      </trkpt>
      <trkpt lat="50.7277" lon="2.94091">
        <ele>17.1</ele>
        <time>2020-06-23T16:13:50Z</time>
      </trkpt>
      <trkpt lat="50.72768" lon="2.94095">
        <ele>17.2</ele>
        <time>2020-06-23T16:13:51Z</time>
      </trkpt>
      <trkpt lat="50.72766" lon="2.94098">
        <ele>17.3</ele>
        <time>2020-06-23T16:13:52Z</time>
      </trkpt>
      <trkpt lat="50.72764" lon="2.94103">
        <ele>17.3</ele>
        <time>2020-06-23T16:13:53Z</time>
      </trkpt>
      <trkpt lat="50.72764" lon="2.94104">
        <ele>17.4</ele>
        <time>2020-06-23T16:13:54Z</time>
      </trkpt>
      <trkpt lat="50.72763" lon="2.94105">
        <ele>17.4</ele>
        <time>2020-06-23T16:13:55Z</time>
      </trkpt>
      <trkpt lat="50.72763" lon="2.94105">
        <ele>17.4</ele>
        <time>2020-06-23T16:13:56Z</time>
      </trkpt>
      <trkpt lat="50.72763" lon="2.94105">
        <ele>17.4</ele>
        <time>2020-06-23T16:13:57Z</time>
      </trkpt>
      <trkpt lat="50.72762" lon="2.94106">
        <ele>17.4</ele>
        <time>2020-06-23T16:13:58Z</time>
      </trkpt>
      <trkpt lat="50.72762" lon="2.94107">
        <ele>17.4</ele>
        <time>2020-06-23T16:13:59Z</time>
      </trkpt>
      <trkpt lat="50.72762" lon="2.94108">
        <ele>17.4</ele>
        <time>2020-06-23T16:14:00Z</time>
      </trkpt>
      <trkpt lat="50.72762" lon="2.94108">
        <ele>17.4</ele>
        <time>2020-06-23T16:14:01Z</time>
      </trkpt>
      <trkpt lat="50.72762" lon="2.94109">
        <ele>17.4</ele>
        <time>2020-06-23T16:14:02Z</time>
      </trkpt>
      <trkpt lat="50.72761" lon="2.9411">
        <ele>17.4</ele>
        <time>2020-06-23T16:14:03Z</time>
      </trkpt>
      <trkpt lat="50.72761" lon="2.94111">
        <ele>17.4</ele>
        <time>2020-06-23T16:14:04Z</time>
      </trkpt>
      <trkpt lat="50.7276" lon="2.94111">
        <ele>17.5</ele>
        <time>2020-06-23T16:14:05Z</time>
      </trkpt>
      <trkpt lat="50.72759" lon="2.94113">
        <ele>17.5</ele>
        <time>2020-06-23T16:14:06Z</time>
      </trkpt>
      <trkpt lat="50.72758" lon="2.94115">
        <ele>17.5</ele>
        <time>2020-06-23T16:14:07Z</time>
      </trkpt>
      <trkpt lat="50.72758" lon="2.94116">
        <ele>17.7</ele>
        <time>2020-06-23T16:14:08Z</time>
      </trkpt>
      <trkpt lat="50.72757" lon="2.94121">
        <ele>17.7</ele>
        <time>2020-06-23T16:14:09Z</time>
      </trkpt>
      <trkpt lat="50.72756" lon="2.94123">
        <ele>17.7</ele>
        <time>2020-06-23T16:14:10Z</time>
      </trkpt>
      <trkpt lat="50.72754" lon="2.94126">
        <ele>17.7</ele>
        <time>2020-06-23T16:14:11Z</time>
      </trkpt>
      <trkpt lat="50.72752" lon="2.9413">
        <ele>17.8</ele>
        <time>2020-06-23T16:14:12Z</time>
      </trkpt>
      <trkpt lat="50.72749" lon="2.94133">
        <ele>17.7</ele>
        <time>2020-06-23T16:14:13Z</time>
      </trkpt>
      <trkpt lat="50.72746" lon="2.94135">
        <ele>17.7</ele>
        <time>2020-06-23T16:14:14Z</time>
      </trkpt>
      <trkpt lat="50.72743" lon="2.94139">
        <ele>17.7</ele>
        <time>2020-06-23T16:14:15Z</time>
      </trkpt>
      <trkpt lat="50.7274" lon="2.94145">
        <ele>17.6</ele>
        <time>2020-06-23T16:14:16Z</time>
      </trkpt>
      <trkpt lat="50.72738" lon="2.94149">
        <ele>17.5</ele>
        <time>2020-06-23T16:14:17Z</time>
      </trkpt>
      <trkpt lat="50.72735" lon="2.94153">
        <ele>17.5</ele>
        <time>2020-06-23T16:14:18Z</time>
      </trkpt>
      <trkpt lat="50.72732" lon="2.94158">
        <ele>17.4</ele>
        <time>2020-06-23T16:14:19Z</time>
      </trkpt>
      <trkpt lat="50.72728" lon="2.94163">
        <ele>17.3</ele>
        <time>2020-06-23T16:14:20Z</time>
      </trkpt>
      <trkpt lat="50.72725" lon="2.94168">
        <ele>17.2</ele>
        <time>2020-06-23T16:14:21Z</time>
      </trkpt>
      <trkpt lat="50.72722" lon="2.94173">
        <ele>17.2</ele>
        <time>2020-06-23T16:14:22Z</time>
      </trkpt>
      <trkpt lat="50.72719" lon="2.94178">
        <ele>17.2</ele>
        <time>2020-06-23T16:14:23Z</time>
      </trkpt>
      <trkpt lat="50.72716" lon="2.94184">
        <ele>17.1</ele>
        <time>2020-06-23T16:14:24Z</time>
      </trkpt>
      <trkpt lat="50.72712" lon="2.9419">
        <ele>17.1</ele>
        <time>2020-06-23T16:14:25Z</time>
      </trkpt>
      <trkpt lat="50.72709" lon="2.94197">
        <ele>17.1</ele>
        <time>2020-06-23T16:14:26Z</time>
      </trkpt>
      <trkpt lat="50.72705" lon="2.94205">
        <ele>17.1</ele>
        <time>2020-06-23T16:14:27Z</time>
      </trkpt>
      <trkpt lat="50.72701" lon="2.94213">
        <ele>17.1</ele>
        <time>2020-06-23T16:14:28Z</time>
      </trkpt>
      <trkpt lat="50.72698" lon="2.94221">
        <ele>17.1</ele>
        <time>2020-06-23T16:14:29Z</time>
      </trkpt>
      <trkpt lat="50.72695" lon="2.94229">
        <ele>17.1</ele>
        <time>2020-06-23T16:14:30Z</time>
      </trkpt>
      <trkpt lat="50.72691" lon="2.94236">
        <ele>17.1</ele>
        <time>2020-06-23T16:14:31Z</time>
      </trkpt>
      <trkpt lat="50.72688" lon="2.94243">
        <ele>17.2</ele>
        <time>2020-06-23T16:14:32Z</time>
      </trkpt>
      <trkpt lat="50.72684" lon="2.9425">
        <ele>17.2</ele>
        <time>2020-06-23T16:14:33Z</time>
      </trkpt>
      <trkpt lat="50.72682" lon="2.94256">
        <ele>17.2</ele>
        <time>2020-06-23T16:14:34Z</time>
      </trkpt>
      <trkpt lat="50.72679" lon="2.94264">
        <ele>17.2</ele>
        <time>2020-06-23T16:14:35Z</time>
      </trkpt>
      <trkpt lat="50.72675" lon="2.94272">
        <ele>17.2</ele>
        <time>2020-06-23T16:14:36Z</time>
      </trkpt>
      <trkpt lat="50.7267" lon="2.94277">
        <ele>17.2</ele>
        <time>2020-06-23T16:14:37Z</time>
      </trkpt>
      <trkpt lat="50.72666" lon="2.94283">
        <ele>17.2</ele>
        <time>2020-06-23T16:14:38Z</time>
      </trkpt>
      <trkpt lat="50.72662" lon="2.94288">
        <ele>17.3</ele>
        <time>2020-06-23T16:14:39Z</time>
      </trkpt>
      <trkpt lat="50.72659" lon="2.94293">
        <ele>17.3</ele>
        <time>2020-06-23T16:14:40Z</time>
      </trkpt>
      <trkpt lat="50.72656" lon="2.94297">
        <ele>17.3</ele>
        <time>2020-06-23T16:14:41Z</time>
      </trkpt>
      <trkpt lat="50.72653" lon="2.94302">
        <ele>17.3</ele>
        <time>2020-06-23T16:14:42Z</time>
      </trkpt>
      <trkpt lat="50.72649" lon="2.94307">
        <ele>17.3</ele>
        <time>2020-06-23T16:14:43Z</time>
      </trkpt>
      <trkpt lat="50.72645" lon="2.94312">
        <ele>17.3</ele>
        <time>2020-06-23T16:14:44Z</time>
      </trkpt>
      <trkpt lat="50.72642" lon="2.94315">
        <ele>17.4</ele>
        <time>2020-06-23T16:14:45Z</time>
      </trkpt>
      <trkpt lat="50.72639" lon="2.94319">
        <ele>17.4</ele>
        <time>2020-06-23T16:14:46Z</time>
      </trkpt>
      <trkpt lat="50.72636" lon="2.94326">
        <ele>17.4</ele>
        <time>2020-06-23T16:14:47Z</time>
      </trkpt>
      <trkpt lat="50.72632" lon="2.94333">
        <ele>17.4</ele>
        <time>2020-06-23T16:14:48Z</time>
      </trkpt>
      <trkpt lat="50.72628" lon="2.94339">
        <ele>17.5</ele>
        <time>2020-06-23T16:14:49Z</time>
      </trkpt>
      <trkpt lat="50.72624" lon="2.94345">
        <ele>17.5</ele>
        <time>2020-06-23T16:14:50Z</time>
      </trkpt>
      <trkpt lat="50.7262" lon="2.94351">
        <ele>17.5</ele>
        <time>2020-06-23T16:14:51Z</time>
      </trkpt>
      <trkpt lat="50.72616" lon="2.94359">
        <ele>17.5</ele>
        <time>2020-06-23T16:14:52Z</time>
      </trkpt>
      <trkpt lat="50.72612" lon="2.94367">
        <ele>17.6</ele>
        <time>2020-06-23T16:14:53Z</time>
      </trkpt>
      <trkpt lat="50.72608" lon="2.94375">
        <ele>17.6</ele>
        <time>2020-06-23T16:14:54Z</time>
      </trkpt>
      <trkpt lat="50.72604" lon="2.94382">
        <ele>17.6</ele>
        <time>2020-06-23T16:14:55Z</time>
      </trkpt>
      <trkpt lat="50.726" lon="2.9439">
        <ele>17.6</ele>
        <time>2020-06-23T16:14:56Z</time>
      </trkpt>
      <trkpt lat="50.72596" lon="2.94398">
        <ele>17.7</ele>
        <time>2020-06-23T16:14:57Z</time>
      </trkpt>
      <trkpt lat="50.72593" lon="2.94404">
        <ele>17.7</ele>
        <time>2020-06-23T16:14:58Z</time>
      </trkpt>
      <trkpt lat="50.72589" lon="2.9441">
        <ele>17.7</ele>
        <time>2020-06-23T16:14:59Z</time>
      </trkpt>
      <trkpt lat="50.72586" lon="2.94416">
        <ele>17.7</ele>
        <time>2020-06-23T16:15:00Z</time>
      </trkpt>
      <trkpt lat="50.72582" lon="2.94422">
        <ele>17.7</ele>
        <time>2020-06-23T16:15:01Z</time>
      </trkpt>
      <trkpt lat="50.72579" lon="2.94428">
        <ele>17.7</ele>
        <time>2020-06-23T16:15:02Z</time>
      </trkpt>
      <trkpt lat="50.72575" lon="2.94434">
        <ele>17.7</ele>
        <time>2020-06-23T16:15:03Z</time>
      </trkpt>
      <trkpt lat="50.72572" lon="2.94441">
        <ele>17.8</ele>
        <time>2020-06-23T16:15:04Z</time>
      </trkpt>
      <trkpt lat="50.72569" lon="2.94447">
        <ele>17.8</ele>
        <time>2020-06-23T16:15:05Z</time>
      </trkpt>
      <trkpt lat="50.72565" lon="2.94453">
        <ele>17.8</ele>
        <time>2020-06-23T16:15:06Z</time>
      </trkpt>
      <trkpt lat="50.72562" lon="2.9446">
        <ele>17.8</ele>
        <time>2020-06-23T16:15:07Z</time>
      </trkpt>
      <trkpt lat="50.72558" lon="2.94467">
        <ele>17.9</ele>
        <time>2020-06-23T16:15:08Z</time>
      </trkpt>
      <trkpt lat="50.72554" lon="2.94474">
        <ele>17.9</ele>
        <time>2020-06-23T16:15:09Z</time>
      </trkpt>
      <trkpt lat="50.7255" lon="2.94481">
        <ele>17.9</ele>
        <time>2020-06-23T16:15:10Z</time>
      </trkpt>
      <trkpt lat="50.72546" lon="2.94487">
        <ele>18</ele>
        <time>2020-06-23T16:15:11Z</time>
      </trkpt>
      <trkpt lat="50.72542" lon="2.94494">
        <ele>18</ele>
        <time>2020-06-23T16:15:12Z</time>
      </trkpt>
      <trkpt lat="50.72538" lon="2.94502">
        <ele>18</ele>
        <time>2020-06-23T16:15:13Z</time>
      </trkpt>
      <trkpt lat="50.72534" lon="2.94509">
        <ele>18.1</ele>
        <time>2020-06-23T16:15:14Z</time>
      </trkpt>
      <trkpt lat="50.72529" lon="2.94516">
        <ele>18.1</ele>
        <time>2020-06-23T16:15:15Z</time>
      </trkpt>
      <trkpt lat="50.72525" lon="2.94521">
        <ele>18.1</ele>
        <time>2020-06-23T16:15:16Z</time>
      </trkpt>
      <trkpt lat="50.72521" lon="2.94528">
        <ele>18.2</ele>
        <time>2020-06-23T16:15:17Z</time>
      </trkpt>
      <trkpt lat="50.72517" lon="2.94535">
        <ele>18.3</ele>
        <time>2020-06-23T16:15:18Z</time>
      </trkpt>
      <trkpt lat="50.72513" lon="2.94542">
        <ele>18.5</ele>
        <time>2020-06-23T16:15:19Z</time>
      </trkpt>
      <trkpt lat="50.72509" lon="2.9455">
        <ele>18.3</ele>
        <time>2020-06-23T16:15:20Z</time>
      </trkpt>
      <trkpt lat="50.72505" lon="2.94558">
        <ele>18.2</ele>
        <time>2020-06-23T16:15:21Z</time>
      </trkpt>
      <trkpt lat="50.72502" lon="2.94565">
        <ele>18.1</ele>
        <time>2020-06-23T16:15:22Z</time>
      </trkpt>
      <trkpt lat="50.72498" lon="2.94573">
        <ele>18.1</ele>
        <time>2020-06-23T16:15:23Z</time>
      </trkpt>
      <trkpt lat="50.72495" lon="2.94581">
        <ele>18.1</ele>
        <time>2020-06-23T16:15:24Z</time>
      </trkpt>
      <trkpt lat="50.72491" lon="2.94588">
        <ele>18.1</ele>
        <time>2020-06-23T16:15:25Z</time>
      </trkpt>
      <trkpt lat="50.72486" lon="2.94595">
        <ele>18.1</ele>
        <time>2020-06-23T16:15:26Z</time>
      </trkpt>
      <trkpt lat="50.72482" lon="2.94601">
        <ele>18.1</ele>
        <time>2020-06-23T16:15:27Z</time>
      </trkpt>
      <trkpt lat="50.72478" lon="2.94609">
        <ele>18.1</ele>
        <time>2020-06-23T16:15:28Z</time>
      </trkpt>
      <trkpt lat="50.72473" lon="2.94616">
        <ele>18.1</ele>
        <time>2020-06-23T16:15:29Z</time>
      </trkpt>
      <trkpt lat="50.7247" lon="2.94623">
        <ele>18.1</ele>
        <time>2020-06-23T16:15:30Z</time>
      </trkpt>
      <trkpt lat="50.72467" lon="2.94631">
        <ele>18.1</ele>
        <time>2020-06-23T16:15:31Z</time>
      </trkpt>
      <trkpt lat="50.72463" lon="2.94638">
        <ele>18.1</ele>
        <time>2020-06-23T16:15:32Z</time>
      </trkpt>
      <trkpt lat="50.72459" lon="2.94644">
        <ele>18.1</ele>
        <time>2020-06-23T16:15:33Z</time>
      </trkpt>
      <trkpt lat="50.72455" lon="2.9465">
        <ele>18</ele>
        <time>2020-06-23T16:15:34Z</time>
      </trkpt>
      <trkpt lat="50.72451" lon="2.94656">
        <ele>18</ele>
        <time>2020-06-23T16:15:35Z</time>
      </trkpt>
      <trkpt lat="50.72448" lon="2.94661">
        <ele>18</ele>
        <time>2020-06-23T16:15:36Z</time>
      </trkpt>
      <trkpt lat="50.72444" lon="2.94668">
        <ele>18</ele>
        <time>2020-06-23T16:15:37Z</time>
      </trkpt>
      <trkpt lat="50.7244" lon="2.94674">
        <ele>18</ele>
        <time>2020-06-23T16:15:38Z</time>
      </trkpt>
      <trkpt lat="50.72437" lon="2.94679">
        <ele>18</ele>
        <time>2020-06-23T16:15:39Z</time>
      </trkpt>
      <trkpt lat="50.72432" lon="2.94685">
        <ele>17.9</ele>
        <time>2020-06-23T16:15:40Z</time>
      </trkpt>
      <trkpt lat="50.72428" lon="2.94692">
        <ele>17.9</ele>
        <time>2020-06-23T16:15:41Z</time>
      </trkpt>
      <trkpt lat="50.72423" lon="2.94699">
        <ele>17.9</ele>
        <time>2020-06-23T16:15:42Z</time>
      </trkpt>
      <trkpt lat="50.72418" lon="2.94706">
        <ele>17.9</ele>
        <time>2020-06-23T16:15:43Z</time>
      </trkpt>
      <trkpt lat="50.72412" lon="2.94713">
        <ele>17.9</ele>
        <time>2020-06-23T16:15:44Z</time>
      </trkpt>
      <trkpt lat="50.72407" lon="2.94719">
        <ele>17.9</ele>
        <time>2020-06-23T16:15:45Z</time>
      </trkpt>
      <trkpt lat="50.72403" lon="2.94726">
        <ele>17.9</ele>
        <time>2020-06-23T16:15:46Z</time>
      </trkpt>
      <trkpt lat="50.72396" lon="2.94732">
        <ele>17.9</ele>
        <time>2020-06-23T16:15:47Z</time>
      </trkpt>
      <trkpt lat="50.72389" lon="2.94738">
        <ele>17.9</ele>
        <time>2020-06-23T16:15:48Z</time>
      </trkpt>
      <trkpt lat="50.72383" lon="2.94743">
        <ele>17.9</ele>
        <time>2020-06-23T16:15:49Z</time>
      </trkpt>
      <trkpt lat="50.72377" lon="2.94748">
        <ele>17.9</ele>
        <time>2020-06-23T16:15:50Z</time>
      </trkpt>
      <trkpt lat="50.72369" lon="2.94754">
        <ele>17.9</ele>
        <time>2020-06-23T16:15:51Z</time>
      </trkpt>
      <trkpt lat="50.72362" lon="2.94758">
        <ele>17.8</ele>
        <time>2020-06-23T16:15:52Z</time>
      </trkpt>
      <trkpt lat="50.72356" lon="2.9476">
        <ele>17.7</ele>
        <time>2020-06-23T16:15:53Z</time>
      </trkpt>
      <trkpt lat="50.72349" lon="2.94764">
        <ele>17.6</ele>
        <time>2020-06-23T16:15:54Z</time>
      </trkpt>
      <trkpt lat="50.72344" lon="2.94767">
        <ele>17.6</ele>
        <time>2020-06-23T16:15:55Z</time>
      </trkpt>
      <trkpt lat="50.72338" lon="2.9477">
        <ele>17.6</ele>
        <time>2020-06-23T16:15:56Z</time>
      </trkpt>
      <trkpt lat="50.72332" lon="2.94773">
        <ele>17.6</ele>
        <time>2020-06-23T16:15:57Z</time>
      </trkpt>
      <trkpt lat="50.72326" lon="2.94777">
        <ele>17.6</ele>
        <time>2020-06-23T16:15:58Z</time>
      </trkpt>
      <trkpt lat="50.72321" lon="2.9478">
        <ele>17.6</ele>
        <time>2020-06-23T16:15:59Z</time>
      </trkpt>
      <trkpt lat="50.72314" lon="2.94784">
        <ele>17.7</ele>
        <time>2020-06-23T16:16:00Z</time>
      </trkpt>
      <trkpt lat="50.72308" lon="2.94787">
        <ele>17.7</ele>
        <time>2020-06-23T16:16:01Z</time>
      </trkpt>
      <trkpt lat="50.72302" lon="2.94791">
        <ele>17.8</ele>
        <time>2020-06-23T16:16:02Z</time>
      </trkpt>
      <trkpt lat="50.72296" lon="2.94795">
        <ele>17.8</ele>
        <time>2020-06-23T16:16:03Z</time>
      </trkpt>
      <trkpt lat="50.72291" lon="2.94799">
        <ele>17.9</ele>
        <time>2020-06-23T16:16:04Z</time>
      </trkpt>
      <trkpt lat="50.72286" lon="2.94802">
        <ele>17.9</ele>
        <time>2020-06-23T16:16:05Z</time>
      </trkpt>
      <trkpt lat="50.72281" lon="2.94806">
        <ele>17.9</ele>
        <time>2020-06-23T16:16:06Z</time>
      </trkpt>
      <trkpt lat="50.72276" lon="2.9481">
        <ele>17.9</ele>
        <time>2020-06-23T16:16:07Z</time>
      </trkpt>
      <trkpt lat="50.72271" lon="2.94813">
        <ele>17.9</ele>
        <time>2020-06-23T16:16:08Z</time>
      </trkpt>
      <trkpt lat="50.72266" lon="2.94814">
        <ele>18</ele>
        <time>2020-06-23T16:16:09Z</time>
      </trkpt>
      <trkpt lat="50.7226" lon="2.94817">
        <ele>17.8</ele>
        <time>2020-06-23T16:16:10Z</time>
      </trkpt>
      <trkpt lat="50.72253" lon="2.94821">
        <ele>17.6</ele>
        <time>2020-06-23T16:16:11Z</time>
      </trkpt>
      <trkpt lat="50.72246" lon="2.94824">
        <ele>17.4</ele>
        <time>2020-06-23T16:16:12Z</time>
      </trkpt>
      <trkpt lat="50.72239" lon="2.94826">
        <ele>17.3</ele>
        <time>2020-06-23T16:16:13Z</time>
      </trkpt>
      <trkpt lat="50.72232" lon="2.9483">
        <ele>17.2</ele>
        <time>2020-06-23T16:16:14Z</time>
      </trkpt>
      <trkpt lat="50.72226" lon="2.94833">
        <ele>17.1</ele>
        <time>2020-06-23T16:16:15Z</time>
      </trkpt>
      <trkpt lat="50.72221" lon="2.94836">
        <ele>17</ele>
        <time>2020-06-23T16:16:16Z</time>
      </trkpt>
      <trkpt lat="50.72214" lon="2.9484">
        <ele>17</ele>
        <time>2020-06-23T16:16:17Z</time>
      </trkpt>
      <trkpt lat="50.72206" lon="2.94843">
        <ele>17</ele>
        <time>2020-06-23T16:16:18Z</time>
      </trkpt>
      <trkpt lat="50.72198" lon="2.94847">
        <ele>17</ele>
        <time>2020-06-23T16:16:19Z</time>
      </trkpt>
      <trkpt lat="50.72191" lon="2.94851">
        <ele>17</ele>
        <time>2020-06-23T16:16:20Z</time>
      </trkpt>
      <trkpt lat="50.72184" lon="2.94855">
        <ele>16.9</ele>
        <time>2020-06-23T16:16:21Z</time>
      </trkpt>
      <trkpt lat="50.72178" lon="2.94857">
        <ele>16.9</ele>
        <time>2020-06-23T16:16:22Z</time>
      </trkpt>
      <trkpt lat="50.72171" lon="2.94858">
        <ele>16.9</ele>
        <time>2020-06-23T16:16:23Z</time>
      </trkpt>
      <trkpt lat="50.72164" lon="2.94861">
        <ele>16.9</ele>
        <time>2020-06-23T16:16:24Z</time>
      </trkpt>
      <trkpt lat="50.72157" lon="2.94864">
        <ele>16.9</ele>
        <time>2020-06-23T16:16:25Z</time>
      </trkpt>
      <trkpt lat="50.72151" lon="2.94867">
        <ele>16.9</ele>
        <time>2020-06-23T16:16:26Z</time>
      </trkpt>
      <trkpt lat="50.72144" lon="2.9487">
        <ele>16.9</ele>
        <time>2020-06-23T16:16:27Z</time>
      </trkpt>
      <trkpt lat="50.72137" lon="2.94873">
        <ele>16.9</ele>
        <time>2020-06-23T16:16:28Z</time>
      </trkpt>
      <trkpt lat="50.72131" lon="2.94876">
        <ele>16.9</ele>
        <time>2020-06-23T16:16:29Z</time>
      </trkpt>
      <trkpt lat="50.72124" lon="2.94879">
        <ele>16.9</ele>
        <time>2020-06-23T16:16:30Z</time>
      </trkpt>
      <trkpt lat="50.72118" lon="2.94882">
        <ele>16.9</ele>
        <time>2020-06-23T16:16:31Z</time>
      </trkpt>
      <trkpt lat="50.72113" lon="2.94885">
        <ele>16.8</ele>
        <time>2020-06-23T16:16:32Z</time>
      </trkpt>
      <trkpt lat="50.72107" lon="2.94887">
        <ele>16.8</ele>
        <time>2020-06-23T16:16:33Z</time>
      </trkpt>
      <trkpt lat="50.72102" lon="2.9489">
        <ele>16.7</ele>
        <time>2020-06-23T16:16:34Z</time>
      </trkpt>
      <trkpt lat="50.72095" lon="2.94893">
        <ele>16.7</ele>
        <time>2020-06-23T16:16:35Z</time>
      </trkpt>
      <trkpt lat="50.72088" lon="2.94896">
        <ele>16.6</ele>
        <time>2020-06-23T16:16:36Z</time>
      </trkpt>
      <trkpt lat="50.72082" lon="2.94901">
        <ele>16.6</ele>
        <time>2020-06-23T16:16:37Z</time>
      </trkpt>
      <trkpt lat="50.72077" lon="2.94904">
        <ele>16.6</ele>
        <time>2020-06-23T16:16:38Z</time>
      </trkpt>
      <trkpt lat="50.72071" lon="2.94907">
        <ele>16.5</ele>
        <time>2020-06-23T16:16:39Z</time>
      </trkpt>
      <trkpt lat="50.72065" lon="2.94908">
        <ele>16.5</ele>
        <time>2020-06-23T16:16:40Z</time>
      </trkpt>
      <trkpt lat="50.72059" lon="2.94911">
        <ele>16.5</ele>
        <time>2020-06-23T16:16:41Z</time>
      </trkpt>
      <trkpt lat="50.72053" lon="2.94915">
        <ele>16.5</ele>
        <time>2020-06-23T16:16:42Z</time>
      </trkpt>
      <trkpt lat="50.72047" lon="2.94918">
        <ele>16.6</ele>
        <time>2020-06-23T16:16:43Z</time>
      </trkpt>
      <trkpt lat="50.7204" lon="2.94923">
        <ele>16.6</ele>
        <time>2020-06-23T16:16:44Z</time>
      </trkpt>
      <trkpt lat="50.72034" lon="2.94928">
        <ele>16.6</ele>
        <time>2020-06-23T16:16:45Z</time>
      </trkpt>
      <trkpt lat="50.72027" lon="2.94932">
        <ele>16.6</ele>
        <time>2020-06-23T16:16:46Z</time>
      </trkpt>
      <trkpt lat="50.7202" lon="2.94935">
        <ele>16.6</ele>
        <time>2020-06-23T16:16:47Z</time>
      </trkpt>
      <trkpt lat="50.72014" lon="2.94939">
        <ele>16.6</ele>
        <time>2020-06-23T16:16:48Z</time>
      </trkpt>
      <trkpt lat="50.72007" lon="2.94941">
        <ele>16.6</ele>
        <time>2020-06-23T16:16:49Z</time>
      </trkpt>
      <trkpt lat="50.72" lon="2.9494">
        <ele>16.5</ele>
        <time>2020-06-23T16:16:50Z</time>
      </trkpt>
      <trkpt lat="50.71993" lon="2.94939">
        <ele>16.5</ele>
        <time>2020-06-23T16:16:51Z</time>
      </trkpt>
      <trkpt lat="50.71987" lon="2.94936">
        <ele>16.4</ele>
        <time>2020-06-23T16:16:52Z</time>
      </trkpt>
      <trkpt lat="50.71981" lon="2.94932">
        <ele>16.4</ele>
        <time>2020-06-23T16:16:53Z</time>
      </trkpt>
      <trkpt lat="50.71975" lon="2.9493">
        <ele>16.4</ele>
        <time>2020-06-23T16:16:54Z</time>
      </trkpt>
      <trkpt lat="50.71968" lon="2.94925">
        <ele>16.4</ele>
        <time>2020-06-23T16:16:55Z</time>
      </trkpt>
      <trkpt lat="50.71962" lon="2.94917">
        <ele>16.4</ele>
        <time>2020-06-23T16:16:56Z</time>
      </trkpt>
      <trkpt lat="50.71956" lon="2.9491">
        <ele>16.5</ele>
        <time>2020-06-23T16:16:57Z</time>
      </trkpt>
      <trkpt lat="50.7195" lon="2.94903">
        <ele>16.5</ele>
        <time>2020-06-23T16:16:58Z</time>
      </trkpt>
      <trkpt lat="50.71943" lon="2.94896">
        <ele>16.6</ele>
        <time>2020-06-23T16:16:59Z</time>
      </trkpt>
      <trkpt lat="50.71937" lon="2.9489">
        <ele>16.6</ele>
        <time>2020-06-23T16:17:00Z</time>
      </trkpt>
      <trkpt lat="50.7193" lon="2.94883">
        <ele>16.6</ele>
        <time>2020-06-23T16:17:01Z</time>
      </trkpt>
      <trkpt lat="50.71924" lon="2.94877">
        <ele>16.7</ele>
        <time>2020-06-23T16:17:02Z</time>
      </trkpt>
      <trkpt lat="50.71919" lon="2.94871">
        <ele>16.7</ele>
        <time>2020-06-23T16:17:03Z</time>
      </trkpt>
      <trkpt lat="50.71914" lon="2.94867">
        <ele>16.8</ele>
        <time>2020-06-23T16:17:04Z</time>
      </trkpt>
      <trkpt lat="50.71909" lon="2.94863">
        <ele>16.8</ele>
        <time>2020-06-23T16:17:05Z</time>
      </trkpt>
      <trkpt lat="50.71903" lon="2.94859">
        <ele>16.9</ele>
        <time>2020-06-23T16:17:06Z</time>
      </trkpt>
      <trkpt lat="50.71896" lon="2.94855">
        <ele>16.9</ele>
        <time>2020-06-23T16:17:07Z</time>
      </trkpt>
      <trkpt lat="50.71891" lon="2.94855">
        <ele>17</ele>
        <time>2020-06-23T16:17:08Z</time>
      </trkpt>
      <trkpt lat="50.71885" lon="2.94854">
        <ele>17</ele>
        <time>2020-06-23T16:17:09Z</time>
      </trkpt>
      <trkpt lat="50.71879" lon="2.94854">
        <ele>17.1</ele>
        <time>2020-06-23T16:17:10Z</time>
      </trkpt>
      <trkpt lat="50.7187" lon="2.94855">
        <ele>17.1</ele>
        <time>2020-06-23T16:17:11Z</time>
      </trkpt>
      <trkpt lat="50.71863" lon="2.94857">
        <ele>17.1</ele>
        <time>2020-06-23T16:17:12Z</time>
      </trkpt>
      <trkpt lat="50.71856" lon="2.94858">
        <ele>17.1</ele>
        <time>2020-06-23T16:17:13Z</time>
      </trkpt>
      <trkpt lat="50.7185" lon="2.9486">
        <ele>17.2</ele>
        <time>2020-06-23T16:17:14Z</time>
      </trkpt>
      <trkpt lat="50.71844" lon="2.94863">
        <ele>17.2</ele>
        <time>2020-06-23T16:17:15Z</time>
      </trkpt>
      <trkpt lat="50.71838" lon="2.94865">
        <ele>17.2</ele>
        <time>2020-06-23T16:17:16Z</time>
      </trkpt>
      <trkpt lat="50.71831" lon="2.94868">
        <ele>17.2</ele>
        <time>2020-06-23T16:17:17Z</time>
      </trkpt>
      <trkpt lat="50.71825" lon="2.94871">
        <ele>17.2</ele>
        <time>2020-06-23T16:17:18Z</time>
      </trkpt>
      <trkpt lat="50.71819" lon="2.94874">
        <ele>17.2</ele>
        <time>2020-06-23T16:17:19Z</time>
      </trkpt>
      <trkpt lat="50.71813" lon="2.94877">
        <ele>17.3</ele>
        <time>2020-06-23T16:17:20Z</time>
      </trkpt>
      <trkpt lat="50.71808" lon="2.94879">
        <ele>17.3</ele>
        <time>2020-06-23T16:17:21Z</time>
      </trkpt>
      <trkpt lat="50.71803" lon="2.9488">
        <ele>17.3</ele>
        <time>2020-06-23T16:17:22Z</time>
      </trkpt>
      <trkpt lat="50.71795" lon="2.94882">
        <ele>17.3</ele>
        <time>2020-06-23T16:17:23Z</time>
      </trkpt>
      <trkpt lat="50.71788" lon="2.94885">
        <ele>17.3</ele>
        <time>2020-06-23T16:17:24Z</time>
      </trkpt>
      <trkpt lat="50.71782" lon="2.94888">
        <ele>17.4</ele>
        <time>2020-06-23T16:17:25Z</time>
      </trkpt>
      <trkpt lat="50.71776" lon="2.94891">
        <ele>17.5</ele>
        <time>2020-06-23T16:17:26Z</time>
      </trkpt>
      <trkpt lat="50.71769" lon="2.94894">
        <ele>17.5</ele>
        <time>2020-06-23T16:17:27Z</time>
      </trkpt>
      <trkpt lat="50.71761" lon="2.94899">
        <ele>17.6</ele>
        <time>2020-06-23T16:17:28Z</time>
      </trkpt>
      <trkpt lat="50.71754" lon="2.94903">
        <ele>17.5</ele>
        <time>2020-06-23T16:17:29Z</time>
      </trkpt>
      <trkpt lat="50.71747" lon="2.94905">
        <ele>17.4</ele>
        <time>2020-06-23T16:17:30Z</time>
      </trkpt>
      <trkpt lat="50.71741" lon="2.94908">
        <ele>17.3</ele>
        <time>2020-06-23T16:17:31Z</time>
      </trkpt>
      <trkpt lat="50.71735" lon="2.94913">
        <ele>17.3</ele>
        <time>2020-06-23T16:17:32Z</time>
      </trkpt>
      <trkpt lat="50.71729" lon="2.94917">
        <ele>17.3</ele>
        <time>2020-06-23T16:17:33Z</time>
      </trkpt>
      <trkpt lat="50.71723" lon="2.94922">
        <ele>17.3</ele>
        <time>2020-06-23T16:17:34Z</time>
      </trkpt>
      <trkpt lat="50.71717" lon="2.94927">
        <ele>17.3</ele>
        <time>2020-06-23T16:17:35Z</time>
      </trkpt>
      <trkpt lat="50.71711" lon="2.94931">
        <ele>17.3</ele>
        <time>2020-06-23T16:17:36Z</time>
      </trkpt>
      <trkpt lat="50.71705" lon="2.94935">
        <ele>17.4</ele>
        <time>2020-06-23T16:17:37Z</time>
      </trkpt>
      <trkpt lat="50.717" lon="2.9494">
        <ele>17.4</ele>
        <time>2020-06-23T16:17:38Z</time>
      </trkpt>
      <trkpt lat="50.71695" lon="2.94944">
        <ele>17.4</ele>
        <time>2020-06-23T16:17:39Z</time>
      </trkpt>
      <trkpt lat="50.7169" lon="2.94947">
        <ele>17.4</ele>
        <time>2020-06-23T16:17:40Z</time>
      </trkpt>
      <trkpt lat="50.71685" lon="2.9495">
        <ele>17.4</ele>
        <time>2020-06-23T16:17:41Z</time>
      </trkpt>
      <trkpt lat="50.71681" lon="2.94954">
        <ele>17.4</ele>
        <time>2020-06-23T16:17:42Z</time>
      </trkpt>
      <trkpt lat="50.71675" lon="2.94958">
        <ele>17.4</ele>
        <time>2020-06-23T16:17:43Z</time>
      </trkpt>
      <trkpt lat="50.7167" lon="2.94961">
        <ele>17.4</ele>
        <time>2020-06-23T16:17:44Z</time>
      </trkpt>
      <trkpt lat="50.71665" lon="2.94965">
        <ele>17.4</ele>
        <time>2020-06-23T16:17:45Z</time>
      </trkpt>
      <trkpt lat="50.7166" lon="2.94969">
        <ele>17.4</ele>
        <time>2020-06-23T16:17:46Z</time>
      </trkpt>
      <trkpt lat="50.71654" lon="2.94974">
        <ele>17.4</ele>
        <time>2020-06-23T16:17:47Z</time>
      </trkpt>
      <trkpt lat="50.71648" lon="2.94978">
        <ele>17.4</ele>
        <time>2020-06-23T16:17:48Z</time>
      </trkpt>
      <trkpt lat="50.71642" lon="2.94981">
        <ele>17.4</ele>
        <time>2020-06-23T16:17:49Z</time>
      </trkpt>
      <trkpt lat="50.71637" lon="2.94985">
        <ele>17.4</ele>
        <time>2020-06-23T16:17:50Z</time>
      </trkpt>
      <trkpt lat="50.7163" lon="2.94989">
        <ele>17.4</ele>
        <time>2020-06-23T16:17:51Z</time>
      </trkpt>
      <trkpt lat="50.71623" lon="2.94993">
        <ele>17.4</ele>
        <time>2020-06-23T16:17:52Z</time>
      </trkpt>
      <trkpt lat="50.71617" lon="2.94998">
        <ele>17.3</ele>
        <time>2020-06-23T16:17:53Z</time>
      </trkpt>
      <trkpt lat="50.71611" lon="2.95003">
        <ele>17.3</ele>
        <time>2020-06-23T16:17:54Z</time>
      </trkpt>
      <trkpt lat="50.71605" lon="2.95007">
        <ele>17.3</ele>
        <time>2020-06-23T16:17:55Z</time>
      </trkpt>
      <trkpt lat="50.71599" lon="2.95011">
        <ele>17.2</ele>
        <time>2020-06-23T16:17:56Z</time>
      </trkpt>
      <trkpt lat="50.71592" lon="2.95015">
        <ele>17.2</ele>
        <time>2020-06-23T16:17:57Z</time>
      </trkpt>
      <trkpt lat="50.71585" lon="2.95019">
        <ele>17.2</ele>
        <time>2020-06-23T16:17:58Z</time>
      </trkpt>
      <trkpt lat="50.71578" lon="2.95022">
        <ele>17.2</ele>
        <time>2020-06-23T16:17:59Z</time>
      </trkpt>
      <trkpt lat="50.71572" lon="2.95027">
        <ele>17.2</ele>
        <time>2020-06-23T16:18:00Z</time>
      </trkpt>
      <trkpt lat="50.71565" lon="2.95032">
        <ele>17.1</ele>
        <time>2020-06-23T16:18:01Z</time>
      </trkpt>
      <trkpt lat="50.71559" lon="2.95039">
        <ele>17.1</ele>
        <time>2020-06-23T16:18:02Z</time>
      </trkpt>
      <trkpt lat="50.71552" lon="2.95045">
        <ele>17.1</ele>
        <time>2020-06-23T16:18:03Z</time>
      </trkpt>
      <trkpt lat="50.71545" lon="2.95051">
        <ele>17</ele>
        <time>2020-06-23T16:18:04Z</time>
      </trkpt>
      <trkpt lat="50.71539" lon="2.95058">
        <ele>17</ele>
        <time>2020-06-23T16:18:05Z</time>
      </trkpt>
      <trkpt lat="50.71532" lon="2.95065">
        <ele>17</ele>
        <time>2020-06-23T16:18:06Z</time>
      </trkpt>
      <trkpt lat="50.71525" lon="2.95072">
        <ele>17</ele>
        <time>2020-06-23T16:18:07Z</time>
      </trkpt>
      <trkpt lat="50.71519" lon="2.95079">
        <ele>17</ele>
        <time>2020-06-23T16:18:08Z</time>
      </trkpt>
      <trkpt lat="50.71513" lon="2.95087">
        <ele>16.9</ele>
        <time>2020-06-23T16:18:09Z</time>
      </trkpt>
      <trkpt lat="50.71507" lon="2.95093">
        <ele>16.9</ele>
        <time>2020-06-23T16:18:10Z</time>
      </trkpt>
      <trkpt lat="50.71502" lon="2.95099">
        <ele>16.9</ele>
        <time>2020-06-23T16:18:11Z</time>
      </trkpt>
      <trkpt lat="50.71496" lon="2.95103">
        <ele>16.9</ele>
        <time>2020-06-23T16:18:12Z</time>
      </trkpt>
      <trkpt lat="50.71491" lon="2.95108">
        <ele>16.9</ele>
        <time>2020-06-23T16:18:13Z</time>
      </trkpt>
      <trkpt lat="50.71486" lon="2.95112">
        <ele>16.9</ele>
        <time>2020-06-23T16:18:14Z</time>
      </trkpt>
      <trkpt lat="50.7148" lon="2.95117">
        <ele>16.9</ele>
        <time>2020-06-23T16:18:15Z</time>
      </trkpt>
      <trkpt lat="50.71475" lon="2.95121">
        <ele>16.9</ele>
        <time>2020-06-23T16:18:16Z</time>
      </trkpt>
      <trkpt lat="50.7147" lon="2.95126">
        <ele>16.9</ele>
        <time>2020-06-23T16:18:17Z</time>
      </trkpt>
      <trkpt lat="50.71464" lon="2.9513">
        <ele>16.9</ele>
        <time>2020-06-23T16:18:18Z</time>
      </trkpt>
      <trkpt lat="50.7146" lon="2.95136">
        <ele>16.9</ele>
        <time>2020-06-23T16:18:19Z</time>
      </trkpt>
      <trkpt lat="50.71456" lon="2.9514">
        <ele>16.9</ele>
        <time>2020-06-23T16:18:20Z</time>
      </trkpt>
      <trkpt lat="50.71451" lon="2.95145">
        <ele>16.8</ele>
        <time>2020-06-23T16:18:21Z</time>
      </trkpt>
      <trkpt lat="50.71447" lon="2.9515">
        <ele>16.8</ele>
        <time>2020-06-23T16:18:22Z</time>
      </trkpt>
      <trkpt lat="50.71442" lon="2.95157">
        <ele>16.8</ele>
        <time>2020-06-23T16:18:23Z</time>
      </trkpt>
      <trkpt lat="50.71437" lon="2.95162">
        <ele>16.7</ele>
        <time>2020-06-23T16:18:24Z</time>
      </trkpt>
      <trkpt lat="50.71432" lon="2.95168">
        <ele>16.7</ele>
        <time>2020-06-23T16:18:25Z</time>
      </trkpt>
      <trkpt lat="50.71427" lon="2.95173">
        <ele>16.7</ele>
        <time>2020-06-23T16:18:26Z</time>
      </trkpt>
      <trkpt lat="50.71423" lon="2.95178">
        <ele>16.7</ele>
        <time>2020-06-23T16:18:27Z</time>
      </trkpt>
      <trkpt lat="50.71418" lon="2.95183">
        <ele>16.7</ele>
        <time>2020-06-23T16:18:28Z</time>
      </trkpt>
      <trkpt lat="50.71413" lon="2.95188">
        <ele>16.7</ele>
        <time>2020-06-23T16:18:29Z</time>
      </trkpt>
      <trkpt lat="50.71408" lon="2.95193">
        <ele>16.7</ele>
        <time>2020-06-23T16:18:30Z</time>
      </trkpt>
      <trkpt lat="50.71404" lon="2.95197">
        <ele>16.8</ele>
        <time>2020-06-23T16:18:31Z</time>
      </trkpt>
      <trkpt lat="50.71399" lon="2.95203">
        <ele>16.8</ele>
        <time>2020-06-23T16:18:32Z</time>
      </trkpt>
      <trkpt lat="50.71394" lon="2.95208">
        <ele>16.8</ele>
        <time>2020-06-23T16:18:33Z</time>
      </trkpt>
      <trkpt lat="50.71391" lon="2.95213">
        <ele>16.8</ele>
        <time>2020-06-23T16:18:34Z</time>
      </trkpt>
      <trkpt lat="50.71388" lon="2.95218">
        <ele>16.8</ele>
        <time>2020-06-23T16:18:35Z</time>
      </trkpt>
      <trkpt lat="50.71385" lon="2.95225">
        <ele>16.8</ele>
        <time>2020-06-23T16:18:36Z</time>
      </trkpt>
      <trkpt lat="50.71381" lon="2.95231">
        <ele>16.8</ele>
        <time>2020-06-23T16:18:37Z</time>
      </trkpt>
      <trkpt lat="50.71377" lon="2.95239">
        <ele>16.8</ele>
        <time>2020-06-23T16:18:38Z</time>
      </trkpt>
      <trkpt lat="50.71374" lon="2.95245">
        <ele>16.8</ele>
        <time>2020-06-23T16:18:39Z</time>
      </trkpt>
      <trkpt lat="50.7137" lon="2.95251">
        <ele>16.8</ele>
        <time>2020-06-23T16:18:40Z</time>
      </trkpt>
      <trkpt lat="50.71367" lon="2.95258">
        <ele>16.8</ele>
        <time>2020-06-23T16:18:41Z</time>
      </trkpt>
      <trkpt lat="50.71363" lon="2.95265">
        <ele>16.8</ele>
        <time>2020-06-23T16:18:42Z</time>
      </trkpt>
      <trkpt lat="50.71358" lon="2.95271">
        <ele>16.8</ele>
        <time>2020-06-23T16:18:43Z</time>
      </trkpt>
      <trkpt lat="50.71353" lon="2.95276">
        <ele>16.8</ele>
        <time>2020-06-23T16:18:44Z</time>
      </trkpt>
      <trkpt lat="50.71347" lon="2.95281">
        <ele>16.8</ele>
        <time>2020-06-23T16:18:45Z</time>
      </trkpt>
      <trkpt lat="50.7134" lon="2.95284">
        <ele>16.8</ele>
        <time>2020-06-23T16:18:46Z</time>
      </trkpt>
      <trkpt lat="50.71334" lon="2.95288">
        <ele>16.8</ele>
        <time>2020-06-23T16:18:47Z</time>
      </trkpt>
      <trkpt lat="50.71328" lon="2.95291">
        <ele>16.8</ele>
        <time>2020-06-23T16:18:48Z</time>
      </trkpt>
      <trkpt lat="50.71322" lon="2.95294">
        <ele>16.9</ele>
        <time>2020-06-23T16:18:49Z</time>
      </trkpt>
      <trkpt lat="50.71317" lon="2.95296">
        <ele>16.9</ele>
        <time>2020-06-23T16:18:50Z</time>
      </trkpt>
      <trkpt lat="50.71311" lon="2.95298">
        <ele>16.9</ele>
        <time>2020-06-23T16:18:51Z</time>
      </trkpt>
      <trkpt lat="50.71305" lon="2.95301">
        <ele>16.9</ele>
        <time>2020-06-23T16:18:52Z</time>
      </trkpt>
      <trkpt lat="50.713" lon="2.95304">
        <ele>16.9</ele>
        <time>2020-06-23T16:18:53Z</time>
      </trkpt>
      <trkpt lat="50.71294" lon="2.95307">
        <ele>17</ele>
        <time>2020-06-23T16:18:54Z</time>
      </trkpt>
      <trkpt lat="50.71288" lon="2.95311">
        <ele>17</ele>
        <time>2020-06-23T16:18:55Z</time>
      </trkpt>
      <trkpt lat="50.71282" lon="2.95313">
        <ele>17</ele>
        <time>2020-06-23T16:18:56Z</time>
      </trkpt>
      <trkpt lat="50.71275" lon="2.95315">
        <ele>17.1</ele>
        <time>2020-06-23T16:18:57Z</time>
      </trkpt>
      <trkpt lat="50.71269" lon="2.95317">
        <ele>17.1</ele>
        <time>2020-06-23T16:18:58Z</time>
      </trkpt>
      <trkpt lat="50.71263" lon="2.95319">
        <ele>17.1</ele>
        <time>2020-06-23T16:18:59Z</time>
      </trkpt>
      <trkpt lat="50.71257" lon="2.95321">
        <ele>17.2</ele>
        <time>2020-06-23T16:19:00Z</time>
      </trkpt>
      <trkpt lat="50.71251" lon="2.95323">
        <ele>17.2</ele>
        <time>2020-06-23T16:19:01Z</time>
      </trkpt>
      <trkpt lat="50.71245" lon="2.95325">
        <ele>17.3</ele>
        <time>2020-06-23T16:19:02Z</time>
      </trkpt>
      <trkpt lat="50.71238" lon="2.95326">
        <ele>17.3</ele>
        <time>2020-06-23T16:19:03Z</time>
      </trkpt>
      <trkpt lat="50.71232" lon="2.95328">
        <ele>17.3</ele>
        <time>2020-06-23T16:19:04Z</time>
      </trkpt>
      <trkpt lat="50.71227" lon="2.95329">
        <ele>17.4</ele>
        <time>2020-06-23T16:19:05Z</time>
      </trkpt>
      <trkpt lat="50.7122" lon="2.95331">
        <ele>17.4</ele>
        <time>2020-06-23T16:19:06Z</time>
      </trkpt>
      <trkpt lat="50.71214" lon="2.95333">
        <ele>17.5</ele>
        <time>2020-06-23T16:19:07Z</time>
      </trkpt>
      <trkpt lat="50.71207" lon="2.95338">
        <ele>17.6</ele>
        <time>2020-06-23T16:19:08Z</time>
      </trkpt>
      <trkpt lat="50.71201" lon="2.9534">
        <ele>17.6</ele>
        <time>2020-06-23T16:19:09Z</time>
      </trkpt>
      <trkpt lat="50.71196" lon="2.95342">
        <ele>17.7</ele>
        <time>2020-06-23T16:19:10Z</time>
      </trkpt>
      <trkpt lat="50.7119" lon="2.95344">
        <ele>17.8</ele>
        <time>2020-06-23T16:19:11Z</time>
      </trkpt>
      <trkpt lat="50.71183" lon="2.95348">
        <ele>17.8</ele>
        <time>2020-06-23T16:19:12Z</time>
      </trkpt>
      <trkpt lat="50.71176" lon="2.95351">
        <ele>17.9</ele>
        <time>2020-06-23T16:19:13Z</time>
      </trkpt>
      <trkpt lat="50.71169" lon="2.95353">
        <ele>17.9</ele>
        <time>2020-06-23T16:19:14Z</time>
      </trkpt>
      <trkpt lat="50.71163" lon="2.95355">
        <ele>17.9</ele>
        <time>2020-06-23T16:19:15Z</time>
      </trkpt>
      <trkpt lat="50.71157" lon="2.95358">
        <ele>18</ele>
        <time>2020-06-23T16:19:16Z</time>
      </trkpt>
      <trkpt lat="50.71151" lon="2.95361">
        <ele>18</ele>
        <time>2020-06-23T16:19:17Z</time>
      </trkpt>
      <trkpt lat="50.71145" lon="2.95364">
        <ele>18</ele>
        <time>2020-06-23T16:19:18Z</time>
      </trkpt>
      <trkpt lat="50.7114" lon="2.95366">
        <ele>18</ele>
        <time>2020-06-23T16:19:19Z</time>
      </trkpt>
      <trkpt lat="50.71133" lon="2.95368">
        <ele>18</ele>
        <time>2020-06-23T16:19:20Z</time>
      </trkpt>
      <trkpt lat="50.71127" lon="2.95371">
        <ele>18.1</ele>
        <time>2020-06-23T16:19:21Z</time>
      </trkpt>
      <trkpt lat="50.71123" lon="2.95372">
        <ele>18.1</ele>
        <time>2020-06-23T16:19:22Z</time>
      </trkpt>
      <trkpt lat="50.71117" lon="2.95374">
        <ele>18.1</ele>
        <time>2020-06-23T16:19:23Z</time>
      </trkpt>
      <trkpt lat="50.71111" lon="2.95375">
        <ele>18.1</ele>
        <time>2020-06-23T16:19:24Z</time>
      </trkpt>
      <trkpt lat="50.71105" lon="2.95377">
        <ele>18.1</ele>
        <time>2020-06-23T16:19:25Z</time>
      </trkpt>
      <trkpt lat="50.711" lon="2.95379">
        <ele>18.1</ele>
        <time>2020-06-23T16:19:26Z</time>
      </trkpt>
      <trkpt lat="50.71094" lon="2.95381">
        <ele>18.1</ele>
        <time>2020-06-23T16:19:27Z</time>
      </trkpt>
      <trkpt lat="50.71089" lon="2.95383">
        <ele>18.1</ele>
        <time>2020-06-23T16:19:28Z</time>
      </trkpt>
      <trkpt lat="50.71083" lon="2.95385">
        <ele>18.1</ele>
        <time>2020-06-23T16:19:29Z</time>
      </trkpt>
      <trkpt lat="50.71075" lon="2.95388">
        <ele>18.2</ele>
        <time>2020-06-23T16:19:30Z</time>
      </trkpt>
      <trkpt lat="50.71068" lon="2.95391">
        <ele>18.2</ele>
        <time>2020-06-23T16:19:31Z</time>
      </trkpt>
      <trkpt lat="50.71061" lon="2.95396">
        <ele>18.2</ele>
        <time>2020-06-23T16:19:32Z</time>
      </trkpt>
      <trkpt lat="50.71055" lon="2.95399">
        <ele>18.2</ele>
        <time>2020-06-23T16:19:33Z</time>
      </trkpt>
      <trkpt lat="50.71048" lon="2.95403">
        <ele>18.3</ele>
        <time>2020-06-23T16:19:34Z</time>
      </trkpt>
      <trkpt lat="50.71041" lon="2.95407">
        <ele>18.3</ele>
        <time>2020-06-23T16:19:35Z</time>
      </trkpt>
      <trkpt lat="50.71035" lon="2.9541">
        <ele>18.3</ele>
        <time>2020-06-23T16:19:36Z</time>
      </trkpt>
      <trkpt lat="50.71029" lon="2.95414">
        <ele>18.4</ele>
        <time>2020-06-23T16:19:37Z</time>
      </trkpt>
      <trkpt lat="50.71023" lon="2.95417">
        <ele>18.4</ele>
        <time>2020-06-23T16:19:38Z</time>
      </trkpt>
      <trkpt lat="50.71018" lon="2.9542">
        <ele>18.4</ele>
        <time>2020-06-23T16:19:39Z</time>
      </trkpt>
      <trkpt lat="50.71012" lon="2.95423">
        <ele>18.4</ele>
        <time>2020-06-23T16:19:40Z</time>
      </trkpt>
      <trkpt lat="50.71005" lon="2.95427">
        <ele>18.4</ele>
        <time>2020-06-23T16:19:41Z</time>
      </trkpt>
      <trkpt lat="50.71" lon="2.9543">
        <ele>18.4</ele>
        <time>2020-06-23T16:19:42Z</time>
      </trkpt>
      <trkpt lat="50.70995" lon="2.95433">
        <ele>18.4</ele>
        <time>2020-06-23T16:19:43Z</time>
      </trkpt>
      <trkpt lat="50.7099" lon="2.95437">
        <ele>18.3</ele>
        <time>2020-06-23T16:19:44Z</time>
      </trkpt>
      <trkpt lat="50.70984" lon="2.9544">
        <ele>18.3</ele>
        <time>2020-06-23T16:19:45Z</time>
      </trkpt>
      <trkpt lat="50.70974" lon="2.95445">
        <ele>18.2</ele>
        <time>2020-06-23T16:19:46Z</time>
      </trkpt>
      <trkpt lat="50.70966" lon="2.95449">
        <ele>18.2</ele>
        <time>2020-06-23T16:19:47Z</time>
      </trkpt>
      <trkpt lat="50.70961" lon="2.95453">
        <ele>18.2</ele>
        <time>2020-06-23T16:19:48Z</time>
      </trkpt>
      <trkpt lat="50.70956" lon="2.95457">
        <ele>18.2</ele>
        <time>2020-06-23T16:19:49Z</time>
      </trkpt>
      <trkpt lat="50.7095" lon="2.95462">
        <ele>18.2</ele>
        <time>2020-06-23T16:19:50Z</time>
      </trkpt>
      <trkpt lat="50.70945" lon="2.95467">
        <ele>18.2</ele>
        <time>2020-06-23T16:19:51Z</time>
      </trkpt>
      <trkpt lat="50.70939" lon="2.95471">
        <ele>18.1</ele>
        <time>2020-06-23T16:19:52Z</time>
      </trkpt>
      <trkpt lat="50.70932" lon="2.95476">
        <ele>18.1</ele>
        <time>2020-06-23T16:19:53Z</time>
      </trkpt>
      <trkpt lat="50.70925" lon="2.95479">
        <ele>18.1</ele>
        <time>2020-06-23T16:19:54Z</time>
      </trkpt>
      <trkpt lat="50.70918" lon="2.95483">
        <ele>18.1</ele>
        <time>2020-06-23T16:19:55Z</time>
      </trkpt>
      <trkpt lat="50.70912" lon="2.95487">
        <ele>18.1</ele>
        <time>2020-06-23T16:19:56Z</time>
      </trkpt>
      <trkpt lat="50.70906" lon="2.9549">
        <ele>18.1</ele>
        <time>2020-06-23T16:19:57Z</time>
      </trkpt>
      <trkpt lat="50.70899" lon="2.95494">
        <ele>18.1</ele>
        <time>2020-06-23T16:19:58Z</time>
      </trkpt>
      <trkpt lat="50.70893" lon="2.955">
        <ele>18.1</ele>
        <time>2020-06-23T16:19:59Z</time>
      </trkpt>
      <trkpt lat="50.70888" lon="2.95505">
        <ele>18.1</ele>
        <time>2020-06-23T16:20:00Z</time>
      </trkpt>
      <trkpt lat="50.70882" lon="2.95509">
        <ele>18.1</ele>
        <time>2020-06-23T16:20:01Z</time>
      </trkpt>
      <trkpt lat="50.70876" lon="2.95513">
        <ele>18.1</ele>
        <time>2020-06-23T16:20:02Z</time>
      </trkpt>
      <trkpt lat="50.7087" lon="2.95517">
        <ele>18.2</ele>
        <time>2020-06-23T16:20:03Z</time>
      </trkpt>
      <trkpt lat="50.70864" lon="2.95522">
        <ele>18.2</ele>
        <time>2020-06-23T16:20:04Z</time>
      </trkpt>
      <trkpt lat="50.70858" lon="2.95527">
        <ele>18.2</ele>
        <time>2020-06-23T16:20:05Z</time>
      </trkpt>
      <trkpt lat="50.70852" lon="2.95532">
        <ele>18.2</ele>
        <time>2020-06-23T16:20:06Z</time>
      </trkpt>
      <trkpt lat="50.70846" lon="2.95537">
        <ele>18.2</ele>
        <time>2020-06-23T16:20:07Z</time>
      </trkpt>
      <trkpt lat="50.7084" lon="2.95542">
        <ele>18.1</ele>
        <time>2020-06-23T16:20:08Z</time>
      </trkpt>
      <trkpt lat="50.70835" lon="2.95546">
        <ele>18.1</ele>
        <time>2020-06-23T16:20:09Z</time>
      </trkpt>
      <trkpt lat="50.7083" lon="2.9555">
        <ele>18.1</ele>
        <time>2020-06-23T16:20:10Z</time>
      </trkpt>
      <trkpt lat="50.70824" lon="2.95553">
        <ele>18.2</ele>
        <time>2020-06-23T16:20:11Z</time>
      </trkpt>
      <trkpt lat="50.70819" lon="2.95556">
        <ele>18.2</ele>
        <time>2020-06-23T16:20:12Z</time>
      </trkpt>
      <trkpt lat="50.70812" lon="2.95562">
        <ele>18.2</ele>
        <time>2020-06-23T16:20:13Z</time>
      </trkpt>
      <trkpt lat="50.70806" lon="2.95567">
        <ele>18.2</ele>
        <time>2020-06-23T16:20:14Z</time>
      </trkpt>
      <trkpt lat="50.708" lon="2.95572">
        <ele>18.2</ele>
        <time>2020-06-23T16:20:15Z</time>
      </trkpt>
      <trkpt lat="50.70794" lon="2.95577">
        <ele>18.2</ele>
        <time>2020-06-23T16:20:16Z</time>
      </trkpt>
      <trkpt lat="50.70787" lon="2.95582">
        <ele>18.2</ele>
        <time>2020-06-23T16:20:17Z</time>
      </trkpt>
      <trkpt lat="50.70781" lon="2.95586">
        <ele>18.2</ele>
        <time>2020-06-23T16:20:18Z</time>
      </trkpt>
      <trkpt lat="50.70776" lon="2.9559">
        <ele>18.2</ele>
        <time>2020-06-23T16:20:19Z</time>
      </trkpt>
      <trkpt lat="50.7077" lon="2.95595">
        <ele>18.2</ele>
        <time>2020-06-23T16:20:20Z</time>
      </trkpt>
      <trkpt lat="50.70764" lon="2.956">
        <ele>18.2</ele>
        <time>2020-06-23T16:20:21Z</time>
      </trkpt>
      <trkpt lat="50.70758" lon="2.95605">
        <ele>18.1</ele>
        <time>2020-06-23T16:20:22Z</time>
      </trkpt>
      <trkpt lat="50.70752" lon="2.95609">
        <ele>18.1</ele>
        <time>2020-06-23T16:20:23Z</time>
      </trkpt>
      <trkpt lat="50.70746" lon="2.95614">
        <ele>18.1</ele>
        <time>2020-06-23T16:20:24Z</time>
      </trkpt>
      <trkpt lat="50.70741" lon="2.95618">
        <ele>18.1</ele>
        <time>2020-06-23T16:20:25Z</time>
      </trkpt>
      <trkpt lat="50.70735" lon="2.95621">
        <ele>18.1</ele>
        <time>2020-06-23T16:20:26Z</time>
      </trkpt>
      <trkpt lat="50.70729" lon="2.95625">
        <ele>18.1</ele>
        <time>2020-06-23T16:20:27Z</time>
      </trkpt>
      <trkpt lat="50.70722" lon="2.9563">
        <ele>18.2</ele>
        <time>2020-06-23T16:20:28Z</time>
      </trkpt>
      <trkpt lat="50.70717" lon="2.95635">
        <ele>18.2</ele>
        <time>2020-06-23T16:20:29Z</time>
      </trkpt>
      <trkpt lat="50.70711" lon="2.95639">
        <ele>18.3</ele>
        <time>2020-06-23T16:20:30Z</time>
      </trkpt>
      <trkpt lat="50.70705" lon="2.95644">
        <ele>18.3</ele>
        <time>2020-06-23T16:20:31Z</time>
      </trkpt>
      <trkpt lat="50.70699" lon="2.95648">
        <ele>18.3</ele>
        <time>2020-06-23T16:20:32Z</time>
      </trkpt>
      <trkpt lat="50.70692" lon="2.95653">
        <ele>18.3</ele>
        <time>2020-06-23T16:20:33Z</time>
      </trkpt>
      <trkpt lat="50.70686" lon="2.95657">
        <ele>18.3</ele>
        <time>2020-06-23T16:20:34Z</time>
      </trkpt>
      <trkpt lat="50.7068" lon="2.95663">
        <ele>18.3</ele>
        <time>2020-06-23T16:20:35Z</time>
      </trkpt>
      <trkpt lat="50.70675" lon="2.95666">
        <ele>18.3</ele>
        <time>2020-06-23T16:20:36Z</time>
      </trkpt>
      <trkpt lat="50.70669" lon="2.95669">
        <ele>18.4</ele>
        <time>2020-06-23T16:20:37Z</time>
      </trkpt>
      <trkpt lat="50.70662" lon="2.95673">
        <ele>18.4</ele>
        <time>2020-06-23T16:20:38Z</time>
      </trkpt>
      <trkpt lat="50.70656" lon="2.95677">
        <ele>18.5</ele>
        <time>2020-06-23T16:20:39Z</time>
      </trkpt>
      <trkpt lat="50.7065" lon="2.95681">
        <ele>18.5</ele>
        <time>2020-06-23T16:20:40Z</time>
      </trkpt>
      <trkpt lat="50.70644" lon="2.95686">
        <ele>18.5</ele>
        <time>2020-06-23T16:20:41Z</time>
      </trkpt>
      <trkpt lat="50.70637" lon="2.95691">
        <ele>18.5</ele>
        <time>2020-06-23T16:20:42Z</time>
      </trkpt>
      <trkpt lat="50.70631" lon="2.95697">
        <ele>18.5</ele>
        <time>2020-06-23T16:20:43Z</time>
      </trkpt>
      <trkpt lat="50.70625" lon="2.95702">
        <ele>18.5</ele>
        <time>2020-06-23T16:20:44Z</time>
      </trkpt>
      <trkpt lat="50.70619" lon="2.95706">
        <ele>18.5</ele>
        <time>2020-06-23T16:20:45Z</time>
      </trkpt>
      <trkpt lat="50.70614" lon="2.95711">
        <ele>18.5</ele>
        <time>2020-06-23T16:20:46Z</time>
      </trkpt>
      <trkpt lat="50.70608" lon="2.95716">
        <ele>18.6</ele>
        <time>2020-06-23T16:20:47Z</time>
      </trkpt>
      <trkpt lat="50.70603" lon="2.95721">
        <ele>18.6</ele>
        <time>2020-06-23T16:20:48Z</time>
      </trkpt>
      <trkpt lat="50.70598" lon="2.95727">
        <ele>18.7</ele>
        <time>2020-06-23T16:20:49Z</time>
      </trkpt>
      <trkpt lat="50.70593" lon="2.95731">
        <ele>18.8</ele>
        <time>2020-06-23T16:20:50Z</time>
      </trkpt>
      <trkpt lat="50.70588" lon="2.95735">
        <ele>18.9</ele>
        <time>2020-06-23T16:20:51Z</time>
      </trkpt>
      <trkpt lat="50.70583" lon="2.95738">
        <ele>18.9</ele>
        <time>2020-06-23T16:20:52Z</time>
      </trkpt>
      <trkpt lat="50.70578" lon="2.95738">
        <ele>19</ele>
        <time>2020-06-23T16:20:53Z</time>
      </trkpt>
      <trkpt lat="50.70573" lon="2.95736">
        <ele>19.1</ele>
        <time>2020-06-23T16:20:54Z</time>
      </trkpt>
      <trkpt lat="50.70569" lon="2.95733">
        <ele>19.2</ele>
        <time>2020-06-23T16:20:55Z</time>
      </trkpt>
      <trkpt lat="50.70565" lon="2.9573">
        <ele>19.2</ele>
        <time>2020-06-23T16:20:56Z</time>
      </trkpt>
      <trkpt lat="50.70562" lon="2.95728">
        <ele>19.3</ele>
        <time>2020-06-23T16:20:57Z</time>
      </trkpt>
      <trkpt lat="50.70559" lon="2.95725">
        <ele>19.3</ele>
        <time>2020-06-23T16:20:58Z</time>
      </trkpt>
      <trkpt lat="50.70557" lon="2.95724">
        <ele>19.3</ele>
        <time>2020-06-23T16:20:59Z</time>
      </trkpt>
      <trkpt lat="50.70553" lon="2.95723">
        <ele>19.4</ele>
        <time>2020-06-23T16:21:00Z</time>
      </trkpt>
      <trkpt lat="50.70549" lon="2.95725">
        <ele>19.3</ele>
        <time>2020-06-23T16:21:01Z</time>
      </trkpt>
      <trkpt lat="50.70546" lon="2.95727">
        <ele>19.2</ele>
        <time>2020-06-23T16:21:02Z</time>
      </trkpt>
      <trkpt lat="50.70543" lon="2.95731">
        <ele>19.2</ele>
        <time>2020-06-23T16:21:03Z</time>
      </trkpt>
      <trkpt lat="50.7054" lon="2.95735">
        <ele>19.1</ele>
        <time>2020-06-23T16:21:04Z</time>
      </trkpt>
      <trkpt lat="50.7054" lon="2.95736">
        <ele>19.1</ele>
        <time>2020-06-23T16:21:05Z</time>
      </trkpt>
      <trkpt lat="50.70536" lon="2.95741">
        <ele>19.1</ele>
        <time>2020-06-23T16:21:06Z</time>
      </trkpt>
      <trkpt lat="50.70534" lon="2.95744">
        <ele>19.1</ele>
        <time>2020-06-23T16:21:07Z</time>
      </trkpt>
      <trkpt lat="50.70531" lon="2.95749">
        <ele>19</ele>
        <time>2020-06-23T16:21:08Z</time>
      </trkpt>
      <trkpt lat="50.70528" lon="2.95754">
        <ele>19</ele>
        <time>2020-06-23T16:21:09Z</time>
      </trkpt>
      <trkpt lat="50.70526" lon="2.95759">
        <ele>19</ele>
        <time>2020-06-23T16:21:10Z</time>
      </trkpt>
      <trkpt lat="50.70524" lon="2.95764">
        <ele>19</ele>
        <time>2020-06-23T16:21:11Z</time>
      </trkpt>
      <trkpt lat="50.70521" lon="2.95769">
        <ele>19</ele>
        <time>2020-06-23T16:21:12Z</time>
      </trkpt>
      <trkpt lat="50.70518" lon="2.95774">
        <ele>19</ele>
        <time>2020-06-23T16:21:13Z</time>
      </trkpt>
      <trkpt lat="50.70515" lon="2.9578">
        <ele>19</ele>
        <time>2020-06-23T16:21:14Z</time>
      </trkpt>
      <trkpt lat="50.70512" lon="2.95786">
        <ele>19</ele>
        <time>2020-06-23T16:21:15Z</time>
      </trkpt>
      <trkpt lat="50.70508" lon="2.95793">
        <ele>19</ele>
        <time>2020-06-23T16:21:16Z</time>
      </trkpt>
      <trkpt lat="50.70505" lon="2.958">
        <ele>19</ele>
        <time>2020-06-23T16:21:17Z</time>
      </trkpt>
      <trkpt lat="50.70503" lon="2.95805">
        <ele>19</ele>
        <time>2020-06-23T16:21:18Z</time>
      </trkpt>
      <trkpt lat="50.705" lon="2.95812">
        <ele>19</ele>
        <time>2020-06-23T16:21:19Z</time>
      </trkpt>
      <trkpt lat="50.70497" lon="2.95819">
        <ele>19</ele>
        <time>2020-06-23T16:21:20Z</time>
      </trkpt>
      <trkpt lat="50.70494" lon="2.95826">
        <ele>19</ele>
        <time>2020-06-23T16:21:21Z</time>
      </trkpt>
      <trkpt lat="50.70491" lon="2.95833">
        <ele>19</ele>
        <time>2020-06-23T16:21:22Z</time>
      </trkpt>
      <trkpt lat="50.70487" lon="2.9584">
        <ele>19</ele>
        <time>2020-06-23T16:21:23Z</time>
      </trkpt>
      <trkpt lat="50.70484" lon="2.95848">
        <ele>18.9</ele>
        <time>2020-06-23T16:21:24Z</time>
      </trkpt>
      <trkpt lat="50.7048" lon="2.95855">
        <ele>18.9</ele>
        <time>2020-06-23T16:21:25Z</time>
      </trkpt>
      <trkpt lat="50.70476" lon="2.95862">
        <ele>18.9</ele>
        <time>2020-06-23T16:21:26Z</time>
      </trkpt>
      <trkpt lat="50.70472" lon="2.9587">
        <ele>19</ele>
        <time>2020-06-23T16:21:27Z</time>
      </trkpt>
      <trkpt lat="50.70467" lon="2.95877">
        <ele>19</ele>
        <time>2020-06-23T16:21:28Z</time>
      </trkpt>
      <trkpt lat="50.70463" lon="2.95885">
        <ele>19</ele>
        <time>2020-06-23T16:21:29Z</time>
      </trkpt>
      <trkpt lat="50.70458" lon="2.95892">
        <ele>19</ele>
        <time>2020-06-23T16:21:30Z</time>
      </trkpt>
      <trkpt lat="50.70454" lon="2.95901">
        <ele>19.1</ele>
        <time>2020-06-23T16:21:31Z</time>
      </trkpt>
      <trkpt lat="50.7045" lon="2.95909">
        <ele>19.1</ele>
        <time>2020-06-23T16:21:32Z</time>
      </trkpt>
      <trkpt lat="50.70447" lon="2.95917">
        <ele>19.1</ele>
        <time>2020-06-23T16:21:33Z</time>
      </trkpt>
      <trkpt lat="50.70443" lon="2.95926">
        <ele>19.1</ele>
        <time>2020-06-23T16:21:34Z</time>
      </trkpt>
      <trkpt lat="50.7044" lon="2.95934">
        <ele>19.1</ele>
        <time>2020-06-23T16:21:35Z</time>
      </trkpt>
      <trkpt lat="50.70436" lon="2.95943">
        <ele>19.1</ele>
        <time>2020-06-23T16:21:36Z</time>
      </trkpt>
      <trkpt lat="50.70433" lon="2.95952">
        <ele>19.1</ele>
        <time>2020-06-23T16:21:37Z</time>
      </trkpt>
      <trkpt lat="50.7043" lon="2.95961">
        <ele>19.1</ele>
        <time>2020-06-23T16:21:38Z</time>
      </trkpt>
      <trkpt lat="50.70428" lon="2.9597">
        <ele>19.1</ele>
        <time>2020-06-23T16:21:39Z</time>
      </trkpt>
      <trkpt lat="50.70425" lon="2.95978">
        <ele>19.1</ele>
        <time>2020-06-23T16:21:40Z</time>
      </trkpt>
      <trkpt lat="50.70423" lon="2.95987">
        <ele>19.1</ele>
        <time>2020-06-23T16:21:41Z</time>
      </trkpt>
      <trkpt lat="50.7042" lon="2.95995">
        <ele>19.1</ele>
        <time>2020-06-23T16:21:42Z</time>
      </trkpt>
      <trkpt lat="50.70416" lon="2.96004">
        <ele>19.1</ele>
        <time>2020-06-23T16:21:43Z</time>
      </trkpt>
      <trkpt lat="50.70413" lon="2.96012">
        <ele>19.1</ele>
        <time>2020-06-23T16:21:44Z</time>
      </trkpt>
      <trkpt lat="50.7041" lon="2.96021">
        <ele>19.1</ele>
        <time>2020-06-23T16:21:45Z</time>
      </trkpt>
      <trkpt lat="50.70407" lon="2.96029">
        <ele>19.1</ele>
        <time>2020-06-23T16:21:46Z</time>
      </trkpt>
      <trkpt lat="50.70405" lon="2.96036">
        <ele>19.1</ele>
        <time>2020-06-23T16:21:47Z</time>
      </trkpt>
      <trkpt lat="50.70402" lon="2.96044">
        <ele>19.1</ele>
        <time>2020-06-23T16:21:48Z</time>
      </trkpt>
      <trkpt lat="50.704" lon="2.96052">
        <ele>19.1</ele>
        <time>2020-06-23T16:21:49Z</time>
      </trkpt>
      <trkpt lat="50.70398" lon="2.9606">
        <ele>19.1</ele>
        <time>2020-06-23T16:21:50Z</time>
      </trkpt>
      <trkpt lat="50.70396" lon="2.96068">
        <ele>19.1</ele>
        <time>2020-06-23T16:21:51Z</time>
      </trkpt>
      <trkpt lat="50.70394" lon="2.96075">
        <ele>19.1</ele>
        <time>2020-06-23T16:21:52Z</time>
      </trkpt>
      <trkpt lat="50.70392" lon="2.96083">
        <ele>19.1</ele>
        <time>2020-06-23T16:21:53Z</time>
      </trkpt>
      <trkpt lat="50.70389" lon="2.96091">
        <ele>19.1</ele>
        <time>2020-06-23T16:21:54Z</time>
      </trkpt>
      <trkpt lat="50.70387" lon="2.961">
        <ele>19.1</ele>
        <time>2020-06-23T16:21:55Z</time>
      </trkpt>
      <trkpt lat="50.70384" lon="2.96108">
        <ele>19</ele>
        <time>2020-06-23T16:21:56Z</time>
      </trkpt>
      <trkpt lat="50.7038" lon="2.96116">
        <ele>19</ele>
        <time>2020-06-23T16:21:57Z</time>
      </trkpt>
      <trkpt lat="50.70377" lon="2.96126">
        <ele>19</ele>
        <time>2020-06-23T16:21:58Z</time>
      </trkpt>
      <trkpt lat="50.70374" lon="2.96134">
        <ele>19</ele>
        <time>2020-06-23T16:21:59Z</time>
      </trkpt>
      <trkpt lat="50.70372" lon="2.96142">
        <ele>19.1</ele>
        <time>2020-06-23T16:22:00Z</time>
      </trkpt>
      <trkpt lat="50.70369" lon="2.96149">
        <ele>19.1</ele>
        <time>2020-06-23T16:22:01Z</time>
      </trkpt>
      <trkpt lat="50.70365" lon="2.96157">
        <ele>19.1</ele>
        <time>2020-06-23T16:22:02Z</time>
      </trkpt>
      <trkpt lat="50.70362" lon="2.96165">
        <ele>19.1</ele>
        <time>2020-06-23T16:22:03Z</time>
      </trkpt>
      <trkpt lat="50.70359" lon="2.96174">
        <ele>19.2</ele>
        <time>2020-06-23T16:22:04Z</time>
      </trkpt>
      <trkpt lat="50.70355" lon="2.96182">
        <ele>19.2</ele>
        <time>2020-06-23T16:22:05Z</time>
      </trkpt>
      <trkpt lat="50.70352" lon="2.9619">
        <ele>19.2</ele>
        <time>2020-06-23T16:22:06Z</time>
      </trkpt>
      <trkpt lat="50.70349" lon="2.96198">
        <ele>19.2</ele>
        <time>2020-06-23T16:22:07Z</time>
      </trkpt>
      <trkpt lat="50.70346" lon="2.96206">
        <ele>19.2</ele>
        <time>2020-06-23T16:22:08Z</time>
      </trkpt>
      <trkpt lat="50.70343" lon="2.96214">
        <ele>19.1</ele>
        <time>2020-06-23T16:22:09Z</time>
      </trkpt>
      <trkpt lat="50.7034" lon="2.96223">
        <ele>19.1</ele>
        <time>2020-06-23T16:22:10Z</time>
      </trkpt>
      <trkpt lat="50.70336" lon="2.96233">
        <ele>19.1</ele>
        <time>2020-06-23T16:22:11Z</time>
      </trkpt>
      <trkpt lat="50.70334" lon="2.96242">
        <ele>19.2</ele>
        <time>2020-06-23T16:22:12Z</time>
      </trkpt>
      <trkpt lat="50.70331" lon="2.96252">
        <ele>19.2</ele>
        <time>2020-06-23T16:22:13Z</time>
      </trkpt>
      <trkpt lat="50.70327" lon="2.9626">
        <ele>19.2</ele>
        <time>2020-06-23T16:22:14Z</time>
      </trkpt>
      <trkpt lat="50.70325" lon="2.96269">
        <ele>19.2</ele>
        <time>2020-06-23T16:22:15Z</time>
      </trkpt>
      <trkpt lat="50.70323" lon="2.96277">
        <ele>19.2</ele>
        <time>2020-06-23T16:22:16Z</time>
      </trkpt>
      <trkpt lat="50.7032" lon="2.96285">
        <ele>19.2</ele>
        <time>2020-06-23T16:22:17Z</time>
      </trkpt>
      <trkpt lat="50.70317" lon="2.96293">
        <ele>19.2</ele>
        <time>2020-06-23T16:22:18Z</time>
      </trkpt>
      <trkpt lat="50.70314" lon="2.96301">
        <ele>19.2</ele>
        <time>2020-06-23T16:22:19Z</time>
      </trkpt>
      <trkpt lat="50.70311" lon="2.96309">
        <ele>19.2</ele>
        <time>2020-06-23T16:22:20Z</time>
      </trkpt>
      <trkpt lat="50.70308" lon="2.96318">
        <ele>19.2</ele>
        <time>2020-06-23T16:22:21Z</time>
      </trkpt>
      <trkpt lat="50.70306" lon="2.96325">
        <ele>19.2</ele>
        <time>2020-06-23T16:22:22Z</time>
      </trkpt>
      <trkpt lat="50.70303" lon="2.96333">
        <ele>19.2</ele>
        <time>2020-06-23T16:22:23Z</time>
      </trkpt>
      <trkpt lat="50.703" lon="2.96341">
        <ele>19.1</ele>
        <time>2020-06-23T16:22:24Z</time>
      </trkpt>
      <trkpt lat="50.70297" lon="2.9635">
        <ele>19.1</ele>
        <time>2020-06-23T16:22:25Z</time>
      </trkpt>
      <trkpt lat="50.70293" lon="2.96357">
        <ele>19.1</ele>
        <time>2020-06-23T16:22:26Z</time>
      </trkpt>
      <trkpt lat="50.70291" lon="2.96365">
        <ele>19.1</ele>
        <time>2020-06-23T16:22:27Z</time>
      </trkpt>
      <trkpt lat="50.70288" lon="2.96374">
        <ele>19.1</ele>
        <time>2020-06-23T16:22:28Z</time>
      </trkpt>
      <trkpt lat="50.70285" lon="2.96381">
        <ele>19.1</ele>
        <time>2020-06-23T16:22:29Z</time>
      </trkpt>
      <trkpt lat="50.70281" lon="2.96391">
        <ele>19.1</ele>
        <time>2020-06-23T16:22:30Z</time>
      </trkpt>
      <trkpt lat="50.70277" lon="2.96401">
        <ele>19.1</ele>
        <time>2020-06-23T16:22:31Z</time>
      </trkpt>
      <trkpt lat="50.70273" lon="2.96411">
        <ele>19.1</ele>
        <time>2020-06-23T16:22:32Z</time>
      </trkpt>
      <trkpt lat="50.70269" lon="2.96421">
        <ele>19.1</ele>
        <time>2020-06-23T16:22:33Z</time>
      </trkpt>
      <trkpt lat="50.70266" lon="2.96431">
        <ele>19.1</ele>
        <time>2020-06-23T16:22:34Z</time>
      </trkpt>
      <trkpt lat="50.70263" lon="2.96441">
        <ele>19.2</ele>
        <time>2020-06-23T16:22:35Z</time>
      </trkpt>
      <trkpt lat="50.70261" lon="2.9645">
        <ele>19.2</ele>
        <time>2020-06-23T16:22:36Z</time>
      </trkpt>
      <trkpt lat="50.70258" lon="2.96458">
        <ele>19.2</ele>
        <time>2020-06-23T16:22:37Z</time>
      </trkpt>
      <trkpt lat="50.70255" lon="2.96467">
        <ele>19.2</ele>
        <time>2020-06-23T16:22:38Z</time>
      </trkpt>
      <trkpt lat="50.70252" lon="2.96476">
        <ele>19.2</ele>
        <time>2020-06-23T16:22:39Z</time>
      </trkpt>
      <trkpt lat="50.70249" lon="2.96484">
        <ele>19.2</ele>
        <time>2020-06-23T16:22:40Z</time>
      </trkpt>
      <trkpt lat="50.70246" lon="2.96492">
        <ele>19.3</ele>
        <time>2020-06-23T16:22:41Z</time>
      </trkpt>
      <trkpt lat="50.70243" lon="2.965">
        <ele>19.3</ele>
        <time>2020-06-23T16:22:42Z</time>
      </trkpt>
      <trkpt lat="50.70241" lon="2.96508">
        <ele>19.3</ele>
        <time>2020-06-23T16:22:43Z</time>
      </trkpt>
      <trkpt lat="50.70239" lon="2.96516">
        <ele>19.3</ele>
        <time>2020-06-23T16:22:44Z</time>
      </trkpt>
      <trkpt lat="50.70236" lon="2.96525">
        <ele>19.4</ele>
        <time>2020-06-23T16:22:45Z</time>
      </trkpt>
      <trkpt lat="50.70234" lon="2.96533">
        <ele>19.4</ele>
        <time>2020-06-23T16:22:46Z</time>
      </trkpt>
      <trkpt lat="50.70232" lon="2.9654">
        <ele>19.4</ele>
        <time>2020-06-23T16:22:47Z</time>
      </trkpt>
      <trkpt lat="50.70228" lon="2.96548">
        <ele>19.4</ele>
        <time>2020-06-23T16:22:48Z</time>
      </trkpt>
      <trkpt lat="50.70225" lon="2.96556">
        <ele>19.4</ele>
        <time>2020-06-23T16:22:49Z</time>
      </trkpt>
      <trkpt lat="50.70222" lon="2.96564">
        <ele>19.4</ele>
        <time>2020-06-23T16:22:50Z</time>
      </trkpt>
      <trkpt lat="50.70218" lon="2.96572">
        <ele>19.4</ele>
        <time>2020-06-23T16:22:51Z</time>
      </trkpt>
      <trkpt lat="50.70216" lon="2.96581">
        <ele>19.4</ele>
        <time>2020-06-23T16:22:52Z</time>
      </trkpt>
      <trkpt lat="50.70213" lon="2.96589">
        <ele>19.4</ele>
        <time>2020-06-23T16:22:53Z</time>
      </trkpt>
      <trkpt lat="50.7021" lon="2.96596">
        <ele>19.4</ele>
        <time>2020-06-23T16:22:54Z</time>
      </trkpt>
      <trkpt lat="50.70207" lon="2.96604">
        <ele>19.4</ele>
        <time>2020-06-23T16:22:55Z</time>
      </trkpt>
      <trkpt lat="50.70204" lon="2.96612">
        <ele>19.4</ele>
        <time>2020-06-23T16:22:56Z</time>
      </trkpt>
      <trkpt lat="50.70201" lon="2.96619">
        <ele>19.5</ele>
        <time>2020-06-23T16:22:57Z</time>
      </trkpt>
      <trkpt lat="50.70198" lon="2.96628">
        <ele>19.5</ele>
        <time>2020-06-23T16:22:58Z</time>
      </trkpt>
      <trkpt lat="50.70194" lon="2.96638">
        <ele>19.5</ele>
        <time>2020-06-23T16:22:59Z</time>
      </trkpt>
      <trkpt lat="50.70191" lon="2.96647">
        <ele>19.5</ele>
        <time>2020-06-23T16:23:00Z</time>
      </trkpt>
      <trkpt lat="50.70188" lon="2.96656">
        <ele>19.5</ele>
        <time>2020-06-23T16:23:01Z</time>
      </trkpt>
      <trkpt lat="50.70184" lon="2.96665">
        <ele>19.5</ele>
        <time>2020-06-23T16:23:02Z</time>
      </trkpt>
      <trkpt lat="50.70181" lon="2.96674">
        <ele>19.6</ele>
        <time>2020-06-23T16:23:03Z</time>
      </trkpt>
      <trkpt lat="50.70178" lon="2.96682">
        <ele>19.6</ele>
        <time>2020-06-23T16:23:04Z</time>
      </trkpt>
      <trkpt lat="50.70175" lon="2.9669">
        <ele>19.5</ele>
        <time>2020-06-23T16:23:05Z</time>
      </trkpt>
      <trkpt lat="50.70172" lon="2.96699">
        <ele>19.5</ele>
        <time>2020-06-23T16:23:06Z</time>
      </trkpt>
      <trkpt lat="50.70169" lon="2.96708">
        <ele>19.5</ele>
        <time>2020-06-23T16:23:07Z</time>
      </trkpt>
      <trkpt lat="50.70165" lon="2.96715">
        <ele>19.5</ele>
        <time>2020-06-23T16:23:08Z</time>
      </trkpt>
      <trkpt lat="50.70161" lon="2.96723">
        <ele>19.5</ele>
        <time>2020-06-23T16:23:09Z</time>
      </trkpt>
      <trkpt lat="50.70158" lon="2.96732">
        <ele>19.5</ele>
        <time>2020-06-23T16:23:10Z</time>
      </trkpt>
      <trkpt lat="50.70156" lon="2.96742">
        <ele>19.5</ele>
        <time>2020-06-23T16:23:11Z</time>
      </trkpt>
      <trkpt lat="50.70153" lon="2.96751">
        <ele>19.5</ele>
        <time>2020-06-23T16:23:12Z</time>
      </trkpt>
      <trkpt lat="50.7015" lon="2.96759">
        <ele>19.5</ele>
        <time>2020-06-23T16:23:13Z</time>
      </trkpt>
      <trkpt lat="50.70147" lon="2.96767">
        <ele>19.5</ele>
        <time>2020-06-23T16:23:14Z</time>
      </trkpt>
      <trkpt lat="50.70144" lon="2.96775">
        <ele>19.6</ele>
        <time>2020-06-23T16:23:15Z</time>
      </trkpt>
      <trkpt lat="50.70141" lon="2.96783">
        <ele>19.6</ele>
        <time>2020-06-23T16:23:16Z</time>
      </trkpt>
      <trkpt lat="50.70137" lon="2.96791">
        <ele>19.7</ele>
        <time>2020-06-23T16:23:17Z</time>
      </trkpt>
      <trkpt lat="50.70133" lon="2.96799">
        <ele>19.9</ele>
        <time>2020-06-23T16:23:18Z</time>
      </trkpt>
      <trkpt lat="50.7013" lon="2.96808">
        <ele>20.1</ele>
        <time>2020-06-23T16:23:19Z</time>
      </trkpt>
      <trkpt lat="50.70127" lon="2.96819">
        <ele>20.2</ele>
        <time>2020-06-23T16:23:20Z</time>
      </trkpt>
      <trkpt lat="50.70124" lon="2.96826">
        <ele>20.2</ele>
        <time>2020-06-23T16:23:21Z</time>
      </trkpt>
      <trkpt lat="50.70121" lon="2.96835">
        <ele>20.1</ele>
        <time>2020-06-23T16:23:22Z</time>
      </trkpt>
      <trkpt lat="50.70117" lon="2.96842">
        <ele>20</ele>
        <time>2020-06-23T16:23:23Z</time>
      </trkpt>
      <trkpt lat="50.70114" lon="2.9685">
        <ele>20</ele>
        <time>2020-06-23T16:23:24Z</time>
      </trkpt>
      <trkpt lat="50.70111" lon="2.96858">
        <ele>20</ele>
        <time>2020-06-23T16:23:25Z</time>
      </trkpt>
      <trkpt lat="50.70108" lon="2.96866">
        <ele>20</ele>
        <time>2020-06-23T16:23:26Z</time>
      </trkpt>
      <trkpt lat="50.70105" lon="2.96873">
        <ele>20</ele>
        <time>2020-06-23T16:23:27Z</time>
      </trkpt>
      <trkpt lat="50.70102" lon="2.96881">
        <ele>19.9</ele>
        <time>2020-06-23T16:23:28Z</time>
      </trkpt>
      <trkpt lat="50.70098" lon="2.96888">
        <ele>19.9</ele>
        <time>2020-06-23T16:23:29Z</time>
      </trkpt>
      <trkpt lat="50.70094" lon="2.96896">
        <ele>19.9</ele>
        <time>2020-06-23T16:23:30Z</time>
      </trkpt>
      <trkpt lat="50.70091" lon="2.96905">
        <ele>19.9</ele>
        <time>2020-06-23T16:23:31Z</time>
      </trkpt>
      <trkpt lat="50.70088" lon="2.96914">
        <ele>19.9</ele>
        <time>2020-06-23T16:23:32Z</time>
      </trkpt>
      <trkpt lat="50.70085" lon="2.96921">
        <ele>19.9</ele>
        <time>2020-06-23T16:23:33Z</time>
      </trkpt>
      <trkpt lat="50.70081" lon="2.96928">
        <ele>19.9</ele>
        <time>2020-06-23T16:23:34Z</time>
      </trkpt>
      <trkpt lat="50.70077" lon="2.96935">
        <ele>19.9</ele>
        <time>2020-06-23T16:23:35Z</time>
      </trkpt>
      <trkpt lat="50.70074" lon="2.96944">
        <ele>19.9</ele>
        <time>2020-06-23T16:23:36Z</time>
      </trkpt>
      <trkpt lat="50.7007" lon="2.96951">
        <ele>19.9</ele>
        <time>2020-06-23T16:23:37Z</time>
      </trkpt>
      <trkpt lat="50.70067" lon="2.9696">
        <ele>19.9</ele>
        <time>2020-06-23T16:23:38Z</time>
      </trkpt>
      <trkpt lat="50.70063" lon="2.9697">
        <ele>19.9</ele>
        <time>2020-06-23T16:23:39Z</time>
      </trkpt>
      <trkpt lat="50.7006" lon="2.96977">
        <ele>19.9</ele>
        <time>2020-06-23T16:23:40Z</time>
      </trkpt>
      <trkpt lat="50.70057" lon="2.96985">
        <ele>19.9</ele>
        <time>2020-06-23T16:23:41Z</time>
      </trkpt>
      <trkpt lat="50.70053" lon="2.96993">
        <ele>19.9</ele>
        <time>2020-06-23T16:23:42Z</time>
      </trkpt>
      <trkpt lat="50.70048" lon="2.97001">
        <ele>19.9</ele>
        <time>2020-06-23T16:23:43Z</time>
      </trkpt>
      <trkpt lat="50.70043" lon="2.97008">
        <ele>20</ele>
        <time>2020-06-23T16:23:44Z</time>
      </trkpt>
      <trkpt lat="50.70038" lon="2.97015">
        <ele>20</ele>
        <time>2020-06-23T16:23:45Z</time>
      </trkpt>
      <trkpt lat="50.70035" lon="2.97023">
        <ele>20</ele>
        <time>2020-06-23T16:23:46Z</time>
      </trkpt>
      <trkpt lat="50.7003" lon="2.97029">
        <ele>19.9</ele>
        <time>2020-06-23T16:23:47Z</time>
      </trkpt>
      <trkpt lat="50.70025" lon="2.97035">
        <ele>19.8</ele>
        <time>2020-06-23T16:23:48Z</time>
      </trkpt>
      <trkpt lat="50.70021" lon="2.97043">
        <ele>19.7</ele>
        <time>2020-06-23T16:23:49Z</time>
      </trkpt>
      <trkpt lat="50.70017" lon="2.9705">
        <ele>19.7</ele>
        <time>2020-06-23T16:23:50Z</time>
      </trkpt>
      <trkpt lat="50.70014" lon="2.97057">
        <ele>19.6</ele>
        <time>2020-06-23T16:23:51Z</time>
      </trkpt>
      <trkpt lat="50.7001" lon="2.97065">
        <ele>19.6</ele>
        <time>2020-06-23T16:23:52Z</time>
      </trkpt>
      <trkpt lat="50.70006" lon="2.97072">
        <ele>19.6</ele>
        <time>2020-06-23T16:23:53Z</time>
      </trkpt>
      <trkpt lat="50.70002" lon="2.97078">
        <ele>19.5</ele>
        <time>2020-06-23T16:23:54Z</time>
      </trkpt>
      <trkpt lat="50.69998" lon="2.97085">
        <ele>19.5</ele>
        <time>2020-06-23T16:23:55Z</time>
      </trkpt>
      <trkpt lat="50.69993" lon="2.97093">
        <ele>19.5</ele>
        <time>2020-06-23T16:23:56Z</time>
      </trkpt>
      <trkpt lat="50.69989" lon="2.97101">
        <ele>19.5</ele>
        <time>2020-06-23T16:23:57Z</time>
      </trkpt>
      <trkpt lat="50.69985" lon="2.97108">
        <ele>19.4</ele>
        <time>2020-06-23T16:23:58Z</time>
      </trkpt>
      <trkpt lat="50.69981" lon="2.97115">
        <ele>19.4</ele>
        <time>2020-06-23T16:23:59Z</time>
      </trkpt>
      <trkpt lat="50.69977" lon="2.97121">
        <ele>19.4</ele>
        <time>2020-06-23T16:24:00Z</time>
      </trkpt>
      <trkpt lat="50.69973" lon="2.97128">
        <ele>19.4</ele>
        <time>2020-06-23T16:24:01Z</time>
      </trkpt>
      <trkpt lat="50.69969" lon="2.97135">
        <ele>19.4</ele>
        <time>2020-06-23T16:24:02Z</time>
      </trkpt>
      <trkpt lat="50.69965" lon="2.97142">
        <ele>19.4</ele>
        <time>2020-06-23T16:24:03Z</time>
      </trkpt>
      <trkpt lat="50.6996" lon="2.9715">
        <ele>19.4</ele>
        <time>2020-06-23T16:24:04Z</time>
      </trkpt>
      <trkpt lat="50.69956" lon="2.97158">
        <ele>19.4</ele>
        <time>2020-06-23T16:24:05Z</time>
      </trkpt>
      <trkpt lat="50.6995" lon="2.97166">
        <ele>19.3</ele>
        <time>2020-06-23T16:24:06Z</time>
      </trkpt>
      <trkpt lat="50.69946" lon="2.97173">
        <ele>19.3</ele>
        <time>2020-06-23T16:24:07Z</time>
      </trkpt>
      <trkpt lat="50.69941" lon="2.97181">
        <ele>19.3</ele>
        <time>2020-06-23T16:24:08Z</time>
      </trkpt>
      <trkpt lat="50.69937" lon="2.97188">
        <ele>19.2</ele>
        <time>2020-06-23T16:24:09Z</time>
      </trkpt>
      <trkpt lat="50.69932" lon="2.97196">
        <ele>19.2</ele>
        <time>2020-06-23T16:24:10Z</time>
      </trkpt>
      <trkpt lat="50.69928" lon="2.97202">
        <ele>19.2</ele>
        <time>2020-06-23T16:24:11Z</time>
      </trkpt>
      <trkpt lat="50.69923" lon="2.9721">
        <ele>19.2</ele>
        <time>2020-06-23T16:24:12Z</time>
      </trkpt>
      <trkpt lat="50.69919" lon="2.97217">
        <ele>19.2</ele>
        <time>2020-06-23T16:24:13Z</time>
      </trkpt>
      <trkpt lat="50.69915" lon="2.97224">
        <ele>19.2</ele>
        <time>2020-06-23T16:24:14Z</time>
      </trkpt>
      <trkpt lat="50.6991" lon="2.97232">
        <ele>19.2</ele>
        <time>2020-06-23T16:24:15Z</time>
      </trkpt>
      <trkpt lat="50.69906" lon="2.9724">
        <ele>19.2</ele>
        <time>2020-06-23T16:24:16Z</time>
      </trkpt>
      <trkpt lat="50.69901" lon="2.97247">
        <ele>19.1</ele>
        <time>2020-06-23T16:24:17Z</time>
      </trkpt>
      <trkpt lat="50.69896" lon="2.97254">
        <ele>19.1</ele>
        <time>2020-06-23T16:24:18Z</time>
      </trkpt>
      <trkpt lat="50.69892" lon="2.97261">
        <ele>19.1</ele>
        <time>2020-06-23T16:24:19Z</time>
      </trkpt>
      <trkpt lat="50.69887" lon="2.97269">
        <ele>19.1</ele>
        <time>2020-06-23T16:24:20Z</time>
      </trkpt>
      <trkpt lat="50.69883" lon="2.97275">
        <ele>19</ele>
        <time>2020-06-23T16:24:21Z</time>
      </trkpt>
      <trkpt lat="50.69879" lon="2.97281">
        <ele>19</ele>
        <time>2020-06-23T16:24:22Z</time>
      </trkpt>
      <trkpt lat="50.69874" lon="2.97287">
        <ele>19</ele>
        <time>2020-06-23T16:24:23Z</time>
      </trkpt>
      <trkpt lat="50.69869" lon="2.97292">
        <ele>19</ele>
        <time>2020-06-23T16:24:24Z</time>
      </trkpt>
      <trkpt lat="50.69864" lon="2.97298">
        <ele>19</ele>
        <time>2020-06-23T16:24:25Z</time>
      </trkpt>
      <trkpt lat="50.69859" lon="2.97303">
        <ele>19</ele>
        <time>2020-06-23T16:24:26Z</time>
      </trkpt>
      <trkpt lat="50.69854" lon="2.97307">
        <ele>19</ele>
        <time>2020-06-23T16:24:27Z</time>
      </trkpt>
      <trkpt lat="50.69849" lon="2.97313">
        <ele>19</ele>
        <time>2020-06-23T16:24:28Z</time>
      </trkpt>
      <trkpt lat="50.69844" lon="2.97318">
        <ele>19</ele>
        <time>2020-06-23T16:24:29Z</time>
      </trkpt>
      <trkpt lat="50.69838" lon="2.97324">
        <ele>18.9</ele>
        <time>2020-06-23T16:24:30Z</time>
      </trkpt>
      <trkpt lat="50.69833" lon="2.9733">
        <ele>18.9</ele>
        <time>2020-06-23T16:24:31Z</time>
      </trkpt>
      <trkpt lat="50.69829" lon="2.97335">
        <ele>18.9</ele>
        <time>2020-06-23T16:24:32Z</time>
      </trkpt>
      <trkpt lat="50.69823" lon="2.97341">
        <ele>18.9</ele>
        <time>2020-06-23T16:24:33Z</time>
      </trkpt>
      <trkpt lat="50.69819" lon="2.97346">
        <ele>18.8</ele>
        <time>2020-06-23T16:24:34Z</time>
      </trkpt>
      <trkpt lat="50.69814" lon="2.97352">
        <ele>18.8</ele>
        <time>2020-06-23T16:24:35Z</time>
      </trkpt>
      <trkpt lat="50.69809" lon="2.97358">
        <ele>18.9</ele>
        <time>2020-06-23T16:24:36Z</time>
      </trkpt>
      <trkpt lat="50.69804" lon="2.97364">
        <ele>18.9</ele>
        <time>2020-06-23T16:24:37Z</time>
      </trkpt>
      <trkpt lat="50.69799" lon="2.97371">
        <ele>18.9</ele>
        <time>2020-06-23T16:24:38Z</time>
      </trkpt>
      <trkpt lat="50.69794" lon="2.97379">
        <ele>19</ele>
        <time>2020-06-23T16:24:39Z</time>
      </trkpt>
      <trkpt lat="50.69789" lon="2.97385">
        <ele>19</ele>
        <time>2020-06-23T16:24:40Z</time>
      </trkpt>
      <trkpt lat="50.69784" lon="2.97392">
        <ele>19</ele>
        <time>2020-06-23T16:24:41Z</time>
      </trkpt>
      <trkpt lat="50.6978" lon="2.97399">
        <ele>19</ele>
        <time>2020-06-23T16:24:42Z</time>
      </trkpt>
      <trkpt lat="50.69775" lon="2.97407">
        <ele>19</ele>
        <time>2020-06-23T16:24:43Z</time>
      </trkpt>
      <trkpt lat="50.69771" lon="2.97414">
        <ele>19.1</ele>
        <time>2020-06-23T16:24:44Z</time>
      </trkpt>
      <trkpt lat="50.69768" lon="2.97422">
        <ele>19.2</ele>
        <time>2020-06-23T16:24:45Z</time>
      </trkpt>
      <trkpt lat="50.69764" lon="2.97428">
        <ele>19.4</ele>
        <time>2020-06-23T16:24:46Z</time>
      </trkpt>
      <trkpt lat="50.69761" lon="2.97436">
        <ele>19.3</ele>
        <time>2020-06-23T16:24:47Z</time>
      </trkpt>
      <trkpt lat="50.69758" lon="2.97445">
        <ele>19.3</ele>
        <time>2020-06-23T16:24:48Z</time>
      </trkpt>
      <trkpt lat="50.69756" lon="2.97456">
        <ele>19.2</ele>
        <time>2020-06-23T16:24:49Z</time>
      </trkpt>
      <trkpt lat="50.69754" lon="2.97466">
        <ele>19.2</ele>
        <time>2020-06-23T16:24:50Z</time>
      </trkpt>
      <trkpt lat="50.69752" lon="2.97474">
        <ele>19.1</ele>
        <time>2020-06-23T16:24:51Z</time>
      </trkpt>
      <trkpt lat="50.6975" lon="2.97485">
        <ele>19.1</ele>
        <time>2020-06-23T16:24:52Z</time>
      </trkpt>
      <trkpt lat="50.69749" lon="2.97495">
        <ele>19</ele>
        <time>2020-06-23T16:24:53Z</time>
      </trkpt>
      <trkpt lat="50.69748" lon="2.97504">
        <ele>19</ele>
        <time>2020-06-23T16:24:54Z</time>
      </trkpt>
      <trkpt lat="50.69747" lon="2.97512">
        <ele>19</ele>
        <time>2020-06-23T16:24:55Z</time>
      </trkpt>
      <trkpt lat="50.69747" lon="2.97522">
        <ele>19</ele>
        <time>2020-06-23T16:24:56Z</time>
      </trkpt>
      <trkpt lat="50.69746" lon="2.97529">
        <ele>19</ele>
        <time>2020-06-23T16:24:57Z</time>
      </trkpt>
      <trkpt lat="50.69745" lon="2.97536">
        <ele>19</ele>
        <time>2020-06-23T16:24:58Z</time>
      </trkpt>
      <trkpt lat="50.69744" lon="2.97546">
        <ele>19</ele>
        <time>2020-06-23T16:24:59Z</time>
      </trkpt>
      <trkpt lat="50.69743" lon="2.97554">
        <ele>19</ele>
        <time>2020-06-23T16:25:00Z</time>
      </trkpt>
      <trkpt lat="50.69742" lon="2.97564">
        <ele>19</ele>
        <time>2020-06-23T16:25:01Z</time>
      </trkpt>
      <trkpt lat="50.69741" lon="2.97571">
        <ele>19</ele>
        <time>2020-06-23T16:25:02Z</time>
      </trkpt>
      <trkpt lat="50.69741" lon="2.97576">
        <ele>19</ele>
        <time>2020-06-23T16:25:03Z</time>
      </trkpt>
      <trkpt lat="50.69741" lon="2.97583">
        <ele>19</ele>
        <time>2020-06-23T16:25:04Z</time>
      </trkpt>
      <trkpt lat="50.6974" lon="2.97591">
        <ele>19</ele>
        <time>2020-06-23T16:25:05Z</time>
      </trkpt>
      <trkpt lat="50.69738" lon="2.97599">
        <ele>19</ele>
        <time>2020-06-23T16:25:06Z</time>
      </trkpt>
      <trkpt lat="50.69735" lon="2.97609">
        <ele>19</ele>
        <time>2020-06-23T16:25:07Z</time>
      </trkpt>
      <trkpt lat="50.69732" lon="2.97618">
        <ele>18.9</ele>
        <time>2020-06-23T16:25:08Z</time>
      </trkpt>
      <trkpt lat="50.69728" lon="2.97626">
        <ele>18.9</ele>
        <time>2020-06-23T16:25:09Z</time>
      </trkpt>
      <trkpt lat="50.69725" lon="2.97632">
        <ele>18.9</ele>
        <time>2020-06-23T16:25:10Z</time>
      </trkpt>
      <trkpt lat="50.69721" lon="2.97637">
        <ele>18.8</ele>
        <time>2020-06-23T16:25:11Z</time>
      </trkpt>
      <trkpt lat="50.69716" lon="2.97643">
        <ele>18.8</ele>
        <time>2020-06-23T16:25:12Z</time>
      </trkpt>
      <trkpt lat="50.69711" lon="2.97648">
        <ele>18.8</ele>
        <time>2020-06-23T16:25:13Z</time>
      </trkpt>
      <trkpt lat="50.69705" lon="2.97654">
        <ele>18.8</ele>
        <time>2020-06-23T16:25:14Z</time>
      </trkpt>
      <trkpt lat="50.69701" lon="2.97661">
        <ele>18.8</ele>
        <time>2020-06-23T16:25:15Z</time>
      </trkpt>
      <trkpt lat="50.69699" lon="2.97667">
        <ele>18.9</ele>
        <time>2020-06-23T16:25:16Z</time>
      </trkpt>
      <trkpt lat="50.69697" lon="2.97674">
        <ele>18.9</ele>
        <time>2020-06-23T16:25:17Z</time>
      </trkpt>
      <trkpt lat="50.69695" lon="2.9768">
        <ele>18.9</ele>
        <time>2020-06-23T16:25:18Z</time>
      </trkpt>
      <trkpt lat="50.69693" lon="2.97686">
        <ele>18.9</ele>
        <time>2020-06-23T16:25:19Z</time>
      </trkpt>
      <trkpt lat="50.69691" lon="2.97694">
        <ele>18.9</ele>
        <time>2020-06-23T16:25:20Z</time>
      </trkpt>
      <trkpt lat="50.69687" lon="2.97704">
        <ele>18.9</ele>
        <time>2020-06-23T16:25:21Z</time>
      </trkpt>
      <trkpt lat="50.69684" lon="2.97713">
        <ele>19</ele>
        <time>2020-06-23T16:25:22Z</time>
      </trkpt>
      <trkpt lat="50.6968" lon="2.97723">
        <ele>19</ele>
        <time>2020-06-23T16:25:23Z</time>
      </trkpt>
      <trkpt lat="50.69676" lon="2.97733">
        <ele>19</ele>
        <time>2020-06-23T16:25:24Z</time>
      </trkpt>
      <trkpt lat="50.69674" lon="2.9774">
        <ele>19</ele>
        <time>2020-06-23T16:25:25Z</time>
      </trkpt>
      <trkpt lat="50.6967" lon="2.97748">
        <ele>19.1</ele>
        <time>2020-06-23T16:25:26Z</time>
      </trkpt>
      <trkpt lat="50.69667" lon="2.97755">
        <ele>19.1</ele>
        <time>2020-06-23T16:25:27Z</time>
      </trkpt>
      <trkpt lat="50.69663" lon="2.97762">
        <ele>19.1</ele>
        <time>2020-06-23T16:25:28Z</time>
      </trkpt>
      <trkpt lat="50.6966" lon="2.97769">
        <ele>19.1</ele>
        <time>2020-06-23T16:25:29Z</time>
      </trkpt>
      <trkpt lat="50.69657" lon="2.97776">
        <ele>19.1</ele>
        <time>2020-06-23T16:25:30Z</time>
      </trkpt>
      <trkpt lat="50.69653" lon="2.97783">
        <ele>19.1</ele>
        <time>2020-06-23T16:25:31Z</time>
      </trkpt>
      <trkpt lat="50.69649" lon="2.9779">
        <ele>19.1</ele>
        <time>2020-06-23T16:25:32Z</time>
      </trkpt>
      <trkpt lat="50.69644" lon="2.97798">
        <ele>19.1</ele>
        <time>2020-06-23T16:25:33Z</time>
      </trkpt>
      <trkpt lat="50.69639" lon="2.97804">
        <ele>19.1</ele>
        <time>2020-06-23T16:25:34Z</time>
      </trkpt>
      <trkpt lat="50.69634" lon="2.9781">
        <ele>19.1</ele>
        <time>2020-06-23T16:25:35Z</time>
      </trkpt>
      <trkpt lat="50.69629" lon="2.97816">
        <ele>19.2</ele>
        <time>2020-06-23T16:25:36Z</time>
      </trkpt>
      <trkpt lat="50.69625" lon="2.97823">
        <ele>19.2</ele>
        <time>2020-06-23T16:25:37Z</time>
      </trkpt>
      <trkpt lat="50.6962" lon="2.9783">
        <ele>19.3</ele>
        <time>2020-06-23T16:25:38Z</time>
      </trkpt>
      <trkpt lat="50.69616" lon="2.97837">
        <ele>19.3</ele>
        <time>2020-06-23T16:25:39Z</time>
      </trkpt>
      <trkpt lat="50.69611" lon="2.97843">
        <ele>19.3</ele>
        <time>2020-06-23T16:25:40Z</time>
      </trkpt>
      <trkpt lat="50.69607" lon="2.97849">
        <ele>19.4</ele>
        <time>2020-06-23T16:25:41Z</time>
      </trkpt>
      <trkpt lat="50.69602" lon="2.97858">
        <ele>19.4</ele>
        <time>2020-06-23T16:25:42Z</time>
      </trkpt>
      <trkpt lat="50.69598" lon="2.97864">
        <ele>19.5</ele>
        <time>2020-06-23T16:25:43Z</time>
      </trkpt>
      <trkpt lat="50.69593" lon="2.97869">
        <ele>19.5</ele>
        <time>2020-06-23T16:25:44Z</time>
      </trkpt>
      <trkpt lat="50.69589" lon="2.97874">
        <ele>19.6</ele>
        <time>2020-06-23T16:25:45Z</time>
      </trkpt>
      <trkpt lat="50.69585" lon="2.9788">
        <ele>19.6</ele>
        <time>2020-06-23T16:25:46Z</time>
      </trkpt>
      <trkpt lat="50.69581" lon="2.97887">
        <ele>19.7</ele>
        <time>2020-06-23T16:25:47Z</time>
      </trkpt>
      <trkpt lat="50.69576" lon="2.97895">
        <ele>19.8</ele>
        <time>2020-06-23T16:25:48Z</time>
      </trkpt>
      <trkpt lat="50.69571" lon="2.97902">
        <ele>19.8</ele>
        <time>2020-06-23T16:25:49Z</time>
      </trkpt>
      <trkpt lat="50.69567" lon="2.97909">
        <ele>19.9</ele>
        <time>2020-06-23T16:25:50Z</time>
      </trkpt>
      <trkpt lat="50.69563" lon="2.97915">
        <ele>19.9</ele>
        <time>2020-06-23T16:25:51Z</time>
      </trkpt>
      <trkpt lat="50.69558" lon="2.9792">
        <ele>19.9</ele>
        <time>2020-06-23T16:25:52Z</time>
      </trkpt>
      <trkpt lat="50.69554" lon="2.97925">
        <ele>20</ele>
        <time>2020-06-23T16:25:53Z</time>
      </trkpt>
      <trkpt lat="50.6955" lon="2.97931">
        <ele>20</ele>
        <time>2020-06-23T16:25:54Z</time>
      </trkpt>
      <trkpt lat="50.69545" lon="2.97937">
        <ele>20</ele>
        <time>2020-06-23T16:25:55Z</time>
      </trkpt>
      <trkpt lat="50.69541" lon="2.97944">
        <ele>20</ele>
        <time>2020-06-23T16:25:56Z</time>
      </trkpt>
      <trkpt lat="50.69536" lon="2.97949">
        <ele>20.1</ele>
        <time>2020-06-23T16:25:57Z</time>
      </trkpt>
      <trkpt lat="50.69532" lon="2.97955">
        <ele>20.1</ele>
        <time>2020-06-23T16:25:58Z</time>
      </trkpt>
      <trkpt lat="50.69528" lon="2.97961">
        <ele>20.1</ele>
        <time>2020-06-23T16:25:59Z</time>
      </trkpt>
      <trkpt lat="50.69523" lon="2.97968">
        <ele>20.1</ele>
        <time>2020-06-23T16:26:00Z</time>
      </trkpt>
      <trkpt lat="50.69519" lon="2.97973">
        <ele>20.1</ele>
        <time>2020-06-23T16:26:01Z</time>
      </trkpt>
      <trkpt lat="50.69515" lon="2.97979">
        <ele>20.2</ele>
        <time>2020-06-23T16:26:02Z</time>
      </trkpt>
      <trkpt lat="50.6951" lon="2.97984">
        <ele>20.2</ele>
        <time>2020-06-23T16:26:03Z</time>
      </trkpt>
      <trkpt lat="50.69506" lon="2.9799">
        <ele>20.2</ele>
        <time>2020-06-23T16:26:04Z</time>
      </trkpt>
      <trkpt lat="50.69501" lon="2.97996">
        <ele>20.1</ele>
        <time>2020-06-23T16:26:05Z</time>
      </trkpt>
      <trkpt lat="50.69497" lon="2.98002">
        <ele>20.1</ele>
        <time>2020-06-23T16:26:06Z</time>
      </trkpt>
      <trkpt lat="50.69493" lon="2.98009">
        <ele>20.1</ele>
        <time>2020-06-23T16:26:07Z</time>
      </trkpt>
      <trkpt lat="50.69488" lon="2.98016">
        <ele>20</ele>
        <time>2020-06-23T16:26:08Z</time>
      </trkpt>
      <trkpt lat="50.69484" lon="2.98021">
        <ele>20</ele>
        <time>2020-06-23T16:26:09Z</time>
      </trkpt>
      <trkpt lat="50.69479" lon="2.98027">
        <ele>20</ele>
        <time>2020-06-23T16:26:10Z</time>
      </trkpt>
      <trkpt lat="50.69475" lon="2.98034">
        <ele>20</ele>
        <time>2020-06-23T16:26:11Z</time>
      </trkpt>
      <trkpt lat="50.6947" lon="2.98039">
        <ele>20</ele>
        <time>2020-06-23T16:26:12Z</time>
      </trkpt>
      <trkpt lat="50.69465" lon="2.98045">
        <ele>20</ele>
        <time>2020-06-23T16:26:13Z</time>
      </trkpt>
      <trkpt lat="50.6946" lon="2.98053">
        <ele>20</ele>
        <time>2020-06-23T16:26:14Z</time>
      </trkpt>
      <trkpt lat="50.69456" lon="2.9806">
        <ele>20</ele>
        <time>2020-06-23T16:26:15Z</time>
      </trkpt>
      <trkpt lat="50.69451" lon="2.98068">
        <ele>20</ele>
        <time>2020-06-23T16:26:16Z</time>
      </trkpt>
      <trkpt lat="50.69446" lon="2.98074">
        <ele>20</ele>
        <time>2020-06-23T16:26:17Z</time>
      </trkpt>
      <trkpt lat="50.69441" lon="2.9808">
        <ele>20</ele>
        <time>2020-06-23T16:26:18Z</time>
      </trkpt>
      <trkpt lat="50.69436" lon="2.98086">
        <ele>20</ele>
        <time>2020-06-23T16:26:19Z</time>
      </trkpt>
      <trkpt lat="50.69431" lon="2.98092">
        <ele>19.9</ele>
        <time>2020-06-23T16:26:20Z</time>
      </trkpt>
      <trkpt lat="50.69426" lon="2.98097">
        <ele>19.9</ele>
        <time>2020-06-23T16:26:21Z</time>
      </trkpt>
      <trkpt lat="50.69422" lon="2.98103">
        <ele>19.9</ele>
        <time>2020-06-23T16:26:22Z</time>
      </trkpt>
      <trkpt lat="50.69417" lon="2.98109">
        <ele>19.9</ele>
        <time>2020-06-23T16:26:23Z</time>
      </trkpt>
      <trkpt lat="50.69413" lon="2.98114">
        <ele>19.9</ele>
        <time>2020-06-23T16:26:24Z</time>
      </trkpt>
      <trkpt lat="50.69409" lon="2.9812">
        <ele>19.9</ele>
        <time>2020-06-23T16:26:25Z</time>
      </trkpt>
      <trkpt lat="50.69404" lon="2.98125">
        <ele>19.9</ele>
        <time>2020-06-23T16:26:26Z</time>
      </trkpt>
      <trkpt lat="50.69401" lon="2.9813">
        <ele>19.9</ele>
        <time>2020-06-23T16:26:27Z</time>
      </trkpt>
      <trkpt lat="50.69396" lon="2.98137">
        <ele>19.9</ele>
        <time>2020-06-23T16:26:28Z</time>
      </trkpt>
      <trkpt lat="50.69391" lon="2.98144">
        <ele>19.9</ele>
        <time>2020-06-23T16:26:29Z</time>
      </trkpt>
      <trkpt lat="50.69385" lon="2.9815">
        <ele>19.9</ele>
        <time>2020-06-23T16:26:30Z</time>
      </trkpt>
      <trkpt lat="50.69381" lon="2.98156">
        <ele>19.9</ele>
        <time>2020-06-23T16:26:31Z</time>
      </trkpt>
      <trkpt lat="50.69376" lon="2.98162">
        <ele>19.9</ele>
        <time>2020-06-23T16:26:32Z</time>
      </trkpt>
      <trkpt lat="50.69372" lon="2.98168">
        <ele>19.9</ele>
        <time>2020-06-23T16:26:33Z</time>
      </trkpt>
      <trkpt lat="50.69368" lon="2.98174">
        <ele>19.9</ele>
        <time>2020-06-23T16:26:34Z</time>
      </trkpt>
      <trkpt lat="50.69363" lon="2.98181">
        <ele>20</ele>
        <time>2020-06-23T16:26:35Z</time>
      </trkpt>
      <trkpt lat="50.69358" lon="2.98187">
        <ele>20</ele>
        <time>2020-06-23T16:26:36Z</time>
      </trkpt>
      <trkpt lat="50.69353" lon="2.98193">
        <ele>20.1</ele>
        <time>2020-06-23T16:26:37Z</time>
      </trkpt>
      <trkpt lat="50.69349" lon="2.98198">
        <ele>20.1</ele>
        <time>2020-06-23T16:26:38Z</time>
      </trkpt>
      <trkpt lat="50.69344" lon="2.98205">
        <ele>20</ele>
        <time>2020-06-23T16:26:39Z</time>
      </trkpt>
      <trkpt lat="50.69338" lon="2.98213">
        <ele>19.9</ele>
        <time>2020-06-23T16:26:40Z</time>
      </trkpt>
      <trkpt lat="50.69334" lon="2.98221">
        <ele>19.8</ele>
        <time>2020-06-23T16:26:41Z</time>
      </trkpt>
      <trkpt lat="50.69329" lon="2.98228">
        <ele>19.8</ele>
        <time>2020-06-23T16:26:42Z</time>
      </trkpt>
      <trkpt lat="50.69325" lon="2.98235">
        <ele>19.8</ele>
        <time>2020-06-23T16:26:43Z</time>
      </trkpt>
      <trkpt lat="50.6932" lon="2.98242">
        <ele>19.8</ele>
        <time>2020-06-23T16:26:44Z</time>
      </trkpt>
      <trkpt lat="50.69315" lon="2.98249">
        <ele>19.8</ele>
        <time>2020-06-23T16:26:45Z</time>
      </trkpt>
      <trkpt lat="50.6931" lon="2.98256">
        <ele>19.8</ele>
        <time>2020-06-23T16:26:46Z</time>
      </trkpt>
      <trkpt lat="50.69306" lon="2.98264">
        <ele>19.8</ele>
        <time>2020-06-23T16:26:47Z</time>
      </trkpt>
      <trkpt lat="50.69301" lon="2.9827">
        <ele>19.8</ele>
        <time>2020-06-23T16:26:48Z</time>
      </trkpt>
      <trkpt lat="50.69297" lon="2.98276">
        <ele>19.8</ele>
        <time>2020-06-23T16:26:49Z</time>
      </trkpt>
      <trkpt lat="50.69293" lon="2.98282">
        <ele>19.9</ele>
        <time>2020-06-23T16:26:50Z</time>
      </trkpt>
      <trkpt lat="50.69288" lon="2.98288">
        <ele>19.9</ele>
        <time>2020-06-23T16:26:51Z</time>
      </trkpt>
      <trkpt lat="50.69284" lon="2.98295">
        <ele>20</ele>
        <time>2020-06-23T16:26:52Z</time>
      </trkpt>
      <trkpt lat="50.6928" lon="2.98301">
        <ele>20</ele>
        <time>2020-06-23T16:26:53Z</time>
      </trkpt>
      <trkpt lat="50.69275" lon="2.98308">
        <ele>20</ele>
        <time>2020-06-23T16:26:54Z</time>
      </trkpt>
      <trkpt lat="50.6927" lon="2.98315">
        <ele>20</ele>
        <time>2020-06-23T16:26:55Z</time>
      </trkpt>
      <trkpt lat="50.69266" lon="2.98321">
        <ele>20</ele>
        <time>2020-06-23T16:26:56Z</time>
      </trkpt>
      <trkpt lat="50.69262" lon="2.98328">
        <ele>20</ele>
        <time>2020-06-23T16:26:57Z</time>
      </trkpt>
      <trkpt lat="50.69257" lon="2.98337">
        <ele>20</ele>
        <time>2020-06-23T16:26:58Z</time>
      </trkpt>
      <trkpt lat="50.69253" lon="2.98345">
        <ele>20</ele>
        <time>2020-06-23T16:26:59Z</time>
      </trkpt>
      <trkpt lat="50.69249" lon="2.98353">
        <ele>20</ele>
        <time>2020-06-23T16:27:00Z</time>
      </trkpt>
      <trkpt lat="50.69245" lon="2.9836">
        <ele>20</ele>
        <time>2020-06-23T16:27:01Z</time>
      </trkpt>
      <trkpt lat="50.6924" lon="2.98366">
        <ele>20</ele>
        <time>2020-06-23T16:27:02Z</time>
      </trkpt>
      <trkpt lat="50.69236" lon="2.98372">
        <ele>20</ele>
        <time>2020-06-23T16:27:03Z</time>
      </trkpt>
      <trkpt lat="50.69232" lon="2.98379">
        <ele>20</ele>
        <time>2020-06-23T16:27:04Z</time>
      </trkpt>
      <trkpt lat="50.69228" lon="2.98385">
        <ele>20</ele>
        <time>2020-06-23T16:27:05Z</time>
      </trkpt>
      <trkpt lat="50.69224" lon="2.98392">
        <ele>20</ele>
        <time>2020-06-23T16:27:06Z</time>
      </trkpt>
      <trkpt lat="50.69219" lon="2.984">
        <ele>20</ele>
        <time>2020-06-23T16:27:07Z</time>
      </trkpt>
      <trkpt lat="50.69215" lon="2.98406">
        <ele>20.1</ele>
        <time>2020-06-23T16:27:08Z</time>
      </trkpt>
      <trkpt lat="50.69211" lon="2.98413">
        <ele>20.1</ele>
        <time>2020-06-23T16:27:09Z</time>
      </trkpt>
      <trkpt lat="50.69206" lon="2.98419">
        <ele>20.1</ele>
        <time>2020-06-23T16:27:10Z</time>
      </trkpt>
      <trkpt lat="50.69202" lon="2.98427">
        <ele>20.1</ele>
        <time>2020-06-23T16:27:11Z</time>
      </trkpt>
      <trkpt lat="50.69198" lon="2.98434">
        <ele>20.2</ele>
        <time>2020-06-23T16:27:12Z</time>
      </trkpt>
      <trkpt lat="50.69194" lon="2.98441">
        <ele>20.2</ele>
        <time>2020-06-23T16:27:13Z</time>
      </trkpt>
      <trkpt lat="50.6919" lon="2.98447">
        <ele>20.2</ele>
        <time>2020-06-23T16:27:14Z</time>
      </trkpt>
      <trkpt lat="50.69186" lon="2.98453">
        <ele>20.3</ele>
        <time>2020-06-23T16:27:15Z</time>
      </trkpt>
      <trkpt lat="50.69181" lon="2.9846">
        <ele>20.3</ele>
        <time>2020-06-23T16:27:16Z</time>
      </trkpt>
      <trkpt lat="50.69177" lon="2.98466">
        <ele>20.3</ele>
        <time>2020-06-23T16:27:17Z</time>
      </trkpt>
      <trkpt lat="50.69173" lon="2.98473">
        <ele>20.3</ele>
        <time>2020-06-23T16:27:18Z</time>
      </trkpt>
      <trkpt lat="50.69168" lon="2.9848">
        <ele>20.3</ele>
        <time>2020-06-23T16:27:19Z</time>
      </trkpt>
      <trkpt lat="50.69164" lon="2.98486">
        <ele>20.3</ele>
        <time>2020-06-23T16:27:20Z</time>
      </trkpt>
      <trkpt lat="50.69159" lon="2.98493">
        <ele>20.3</ele>
        <time>2020-06-23T16:27:21Z</time>
      </trkpt>
      <trkpt lat="50.69154" lon="2.98501">
        <ele>20.3</ele>
        <time>2020-06-23T16:27:22Z</time>
      </trkpt>
      <trkpt lat="50.69147" lon="2.98509">
        <ele>20.3</ele>
        <time>2020-06-23T16:27:23Z</time>
      </trkpt>
      <trkpt lat="50.69143" lon="2.98516">
        <ele>20.2</ele>
        <time>2020-06-23T16:27:24Z</time>
      </trkpt>
      <trkpt lat="50.69138" lon="2.98522">
        <ele>20.2</ele>
        <time>2020-06-23T16:27:25Z</time>
      </trkpt>
      <trkpt lat="50.69133" lon="2.98529">
        <ele>20.1</ele>
        <time>2020-06-23T16:27:26Z</time>
      </trkpt>
      <trkpt lat="50.69128" lon="2.98535">
        <ele>20.1</ele>
        <time>2020-06-23T16:27:27Z</time>
      </trkpt>
      <trkpt lat="50.69123" lon="2.98542">
        <ele>20.1</ele>
        <time>2020-06-23T16:27:28Z</time>
      </trkpt>
      <trkpt lat="50.69119" lon="2.98548">
        <ele>20</ele>
        <time>2020-06-23T16:27:29Z</time>
      </trkpt>
      <trkpt lat="50.69114" lon="2.98556">
        <ele>20</ele>
        <time>2020-06-23T16:27:30Z</time>
      </trkpt>
      <trkpt lat="50.69108" lon="2.98563">
        <ele>20</ele>
        <time>2020-06-23T16:27:31Z</time>
      </trkpt>
      <trkpt lat="50.69103" lon="2.98571">
        <ele>20</ele>
        <time>2020-06-23T16:27:32Z</time>
      </trkpt>
      <trkpt lat="50.69099" lon="2.98579">
        <ele>19.9</ele>
        <time>2020-06-23T16:27:33Z</time>
      </trkpt>
      <trkpt lat="50.69094" lon="2.98586">
        <ele>19.9</ele>
        <time>2020-06-23T16:27:34Z</time>
      </trkpt>
      <trkpt lat="50.6909" lon="2.98593">
        <ele>19.9</ele>
        <time>2020-06-23T16:27:35Z</time>
      </trkpt>
      <trkpt lat="50.69086" lon="2.98601">
        <ele>19.9</ele>
        <time>2020-06-23T16:27:36Z</time>
      </trkpt>
      <trkpt lat="50.69081" lon="2.98608">
        <ele>19.9</ele>
        <time>2020-06-23T16:27:37Z</time>
      </trkpt>
      <trkpt lat="50.69077" lon="2.98615">
        <ele>19.9</ele>
        <time>2020-06-23T16:27:38Z</time>
      </trkpt>
      <trkpt lat="50.69073" lon="2.98622">
        <ele>20</ele>
        <time>2020-06-23T16:27:39Z</time>
      </trkpt>
      <trkpt lat="50.69068" lon="2.98629">
        <ele>20</ele>
        <time>2020-06-23T16:27:40Z</time>
      </trkpt>
      <trkpt lat="50.69064" lon="2.98636">
        <ele>20</ele>
        <time>2020-06-23T16:27:41Z</time>
      </trkpt>
      <trkpt lat="50.69059" lon="2.98644">
        <ele>20</ele>
        <time>2020-06-23T16:27:42Z</time>
      </trkpt>
      <trkpt lat="50.69054" lon="2.98651">
        <ele>19.9</ele>
        <time>2020-06-23T16:27:43Z</time>
      </trkpt>
      <trkpt lat="50.69049" lon="2.98659">
        <ele>19.9</ele>
        <time>2020-06-23T16:27:44Z</time>
      </trkpt>
      <trkpt lat="50.69044" lon="2.98666">
        <ele>19.9</ele>
        <time>2020-06-23T16:27:45Z</time>
      </trkpt>
      <trkpt lat="50.69039" lon="2.98674">
        <ele>19.9</ele>
        <time>2020-06-23T16:27:46Z</time>
      </trkpt>
      <trkpt lat="50.69034" lon="2.98682">
        <ele>19.8</ele>
        <time>2020-06-23T16:27:47Z</time>
      </trkpt>
      <trkpt lat="50.6903" lon="2.98689">
        <ele>19.8</ele>
        <time>2020-06-23T16:27:48Z</time>
      </trkpt>
      <trkpt lat="50.69025" lon="2.98697">
        <ele>19.8</ele>
        <time>2020-06-23T16:27:49Z</time>
      </trkpt>
      <trkpt lat="50.69021" lon="2.98705">
        <ele>19.8</ele>
        <time>2020-06-23T16:27:50Z</time>
      </trkpt>
      <trkpt lat="50.69017" lon="2.98712">
        <ele>19.8</ele>
        <time>2020-06-23T16:27:51Z</time>
      </trkpt>
      <trkpt lat="50.69012" lon="2.98719">
        <ele>19.8</ele>
        <time>2020-06-23T16:27:52Z</time>
      </trkpt>
      <trkpt lat="50.69008" lon="2.98726">
        <ele>19.8</ele>
        <time>2020-06-23T16:27:53Z</time>
      </trkpt>
      <trkpt lat="50.69003" lon="2.98734">
        <ele>19.8</ele>
        <time>2020-06-23T16:27:54Z</time>
      </trkpt>
      <trkpt lat="50.68999" lon="2.98741">
        <ele>19.7</ele>
        <time>2020-06-23T16:27:55Z</time>
      </trkpt>
      <trkpt lat="50.68995" lon="2.98749">
        <ele>19.7</ele>
        <time>2020-06-23T16:27:56Z</time>
      </trkpt>
      <trkpt lat="50.6899" lon="2.98757">
        <ele>19.7</ele>
        <time>2020-06-23T16:27:57Z</time>
      </trkpt>
      <trkpt lat="50.68986" lon="2.98765">
        <ele>19.7</ele>
        <time>2020-06-23T16:27:58Z</time>
      </trkpt>
      <trkpt lat="50.68982" lon="2.98771">
        <ele>19.7</ele>
        <time>2020-06-23T16:27:59Z</time>
      </trkpt>
      <trkpt lat="50.68979" lon="2.98778">
        <ele>19.7</ele>
        <time>2020-06-23T16:28:00Z</time>
      </trkpt>
      <trkpt lat="50.68975" lon="2.98786">
        <ele>19.7</ele>
        <time>2020-06-23T16:28:01Z</time>
      </trkpt>
      <trkpt lat="50.6897" lon="2.98794">
        <ele>19.7</ele>
        <time>2020-06-23T16:28:02Z</time>
      </trkpt>
      <trkpt lat="50.68966" lon="2.98801">
        <ele>19.7</ele>
        <time>2020-06-23T16:28:03Z</time>
      </trkpt>
      <trkpt lat="50.68962" lon="2.98808">
        <ele>19.8</ele>
        <time>2020-06-23T16:28:04Z</time>
      </trkpt>
      <trkpt lat="50.68957" lon="2.98814">
        <ele>19.8</ele>
        <time>2020-06-23T16:28:05Z</time>
      </trkpt>
      <trkpt lat="50.68954" lon="2.98821">
        <ele>19.8</ele>
        <time>2020-06-23T16:28:06Z</time>
      </trkpt>
      <trkpt lat="50.6895" lon="2.98828">
        <ele>19.8</ele>
        <time>2020-06-23T16:28:07Z</time>
      </trkpt>
      <trkpt lat="50.68945" lon="2.98836">
        <ele>19.9</ele>
        <time>2020-06-23T16:28:08Z</time>
      </trkpt>
      <trkpt lat="50.68941" lon="2.98844">
        <ele>19.9</ele>
        <time>2020-06-23T16:28:09Z</time>
      </trkpt>
      <trkpt lat="50.68938" lon="2.98851">
        <ele>19.9</ele>
        <time>2020-06-23T16:28:10Z</time>
      </trkpt>
      <trkpt lat="50.68934" lon="2.98858">
        <ele>20</ele>
        <time>2020-06-23T16:28:11Z</time>
      </trkpt>
      <trkpt lat="50.6893" lon="2.98866">
        <ele>20.1</ele>
        <time>2020-06-23T16:28:12Z</time>
      </trkpt>
      <trkpt lat="50.68925" lon="2.98875">
        <ele>20.1</ele>
        <time>2020-06-23T16:28:13Z</time>
      </trkpt>
      <trkpt lat="50.68922" lon="2.98883">
        <ele>20.2</ele>
        <time>2020-06-23T16:28:14Z</time>
      </trkpt>
      <trkpt lat="50.68919" lon="2.98891">
        <ele>20.2</ele>
        <time>2020-06-23T16:28:15Z</time>
      </trkpt>
      <trkpt lat="50.68915" lon="2.98899">
        <ele>20.2</ele>
        <time>2020-06-23T16:28:16Z</time>
      </trkpt>
      <trkpt lat="50.68911" lon="2.98909">
        <ele>20.3</ele>
        <time>2020-06-23T16:28:17Z</time>
      </trkpt>
      <trkpt lat="50.68908" lon="2.98918">
        <ele>20.3</ele>
        <time>2020-06-23T16:28:18Z</time>
      </trkpt>
      <trkpt lat="50.68903" lon="2.98927">
        <ele>20.3</ele>
        <time>2020-06-23T16:28:19Z</time>
      </trkpt>
      <trkpt lat="50.689" lon="2.98935">
        <ele>20.3</ele>
        <time>2020-06-23T16:28:20Z</time>
      </trkpt>
      <trkpt lat="50.68896" lon="2.98942">
        <ele>20.3</ele>
        <time>2020-06-23T16:28:21Z</time>
      </trkpt>
      <trkpt lat="50.68893" lon="2.9895">
        <ele>20.3</ele>
        <time>2020-06-23T16:28:22Z</time>
      </trkpt>
      <trkpt lat="50.68889" lon="2.98958">
        <ele>20.4</ele>
        <time>2020-06-23T16:28:23Z</time>
      </trkpt>
      <trkpt lat="50.68886" lon="2.98965">
        <ele>20.4</ele>
        <time>2020-06-23T16:28:24Z</time>
      </trkpt>
      <trkpt lat="50.68883" lon="2.98973">
        <ele>20.4</ele>
        <time>2020-06-23T16:28:25Z</time>
      </trkpt>
      <trkpt lat="50.6888" lon="2.98982">
        <ele>20.4</ele>
        <time>2020-06-23T16:28:26Z</time>
      </trkpt>
      <trkpt lat="50.68877" lon="2.98991">
        <ele>20.4</ele>
        <time>2020-06-23T16:28:27Z</time>
      </trkpt>
      <trkpt lat="50.68873" lon="2.99001">
        <ele>20.4</ele>
        <time>2020-06-23T16:28:28Z</time>
      </trkpt>
      <trkpt lat="50.68869" lon="2.9901">
        <ele>20.4</ele>
        <time>2020-06-23T16:28:29Z</time>
      </trkpt>
      <trkpt lat="50.68865" lon="2.9902">
        <ele>20.4</ele>
        <time>2020-06-23T16:28:30Z</time>
      </trkpt>
      <trkpt lat="50.68862" lon="2.9903">
        <ele>20.4</ele>
        <time>2020-06-23T16:28:31Z</time>
      </trkpt>
      <trkpt lat="50.68858" lon="2.9904">
        <ele>20.4</ele>
        <time>2020-06-23T16:28:32Z</time>
      </trkpt>
      <trkpt lat="50.68855" lon="2.99048">
        <ele>20.4</ele>
        <time>2020-06-23T16:28:33Z</time>
      </trkpt>
      <trkpt lat="50.68851" lon="2.99057">
        <ele>20.4</ele>
        <time>2020-06-23T16:28:34Z</time>
      </trkpt>
      <trkpt lat="50.68848" lon="2.99066">
        <ele>20.5</ele>
        <time>2020-06-23T16:28:35Z</time>
      </trkpt>
      <trkpt lat="50.68844" lon="2.99074">
        <ele>20.5</ele>
        <time>2020-06-23T16:28:36Z</time>
      </trkpt>
      <trkpt lat="50.68841" lon="2.99083">
        <ele>20.5</ele>
        <time>2020-06-23T16:28:37Z</time>
      </trkpt>
      <trkpt lat="50.68837" lon="2.99092">
        <ele>20.5</ele>
        <time>2020-06-23T16:28:38Z</time>
      </trkpt>
      <trkpt lat="50.68834" lon="2.99101">
        <ele>20.5</ele>
        <time>2020-06-23T16:28:39Z</time>
      </trkpt>
      <trkpt lat="50.6883" lon="2.99109">
        <ele>20.5</ele>
        <time>2020-06-23T16:28:40Z</time>
      </trkpt>
      <trkpt lat="50.68827" lon="2.99116">
        <ele>20.5</ele>
        <time>2020-06-23T16:28:41Z</time>
      </trkpt>
      <trkpt lat="50.68824" lon="2.99123">
        <ele>20.4</ele>
        <time>2020-06-23T16:28:42Z</time>
      </trkpt>
      <trkpt lat="50.68821" lon="2.99132">
        <ele>20.4</ele>
        <time>2020-06-23T16:28:43Z</time>
      </trkpt>
      <trkpt lat="50.68819" lon="2.99141">
        <ele>20.4</ele>
        <time>2020-06-23T16:28:44Z</time>
      </trkpt>
      <trkpt lat="50.68816" lon="2.9915">
        <ele>20.4</ele>
        <time>2020-06-23T16:28:45Z</time>
      </trkpt>
      <trkpt lat="50.68814" lon="2.99158">
        <ele>20.4</ele>
        <time>2020-06-23T16:28:46Z</time>
      </trkpt>
      <trkpt lat="50.68812" lon="2.99167">
        <ele>20.4</ele>
        <time>2020-06-23T16:28:47Z</time>
      </trkpt>
      <trkpt lat="50.68809" lon="2.99175">
        <ele>20.4</ele>
        <time>2020-06-23T16:28:48Z</time>
      </trkpt>
      <trkpt lat="50.68806" lon="2.99183">
        <ele>20.5</ele>
        <time>2020-06-23T16:28:49Z</time>
      </trkpt>
      <trkpt lat="50.68804" lon="2.99191">
        <ele>20.5</ele>
        <time>2020-06-23T16:28:50Z</time>
      </trkpt>
      <trkpt lat="50.68802" lon="2.99197">
        <ele>20.5</ele>
        <time>2020-06-23T16:28:51Z</time>
      </trkpt>
      <trkpt lat="50.688" lon="2.99203">
        <ele>20.5</ele>
        <time>2020-06-23T16:28:52Z</time>
      </trkpt>
      <trkpt lat="50.68797" lon="2.99211">
        <ele>20.5</ele>
        <time>2020-06-23T16:28:53Z</time>
      </trkpt>
      <trkpt lat="50.68793" lon="2.99217">
        <ele>20.6</ele>
        <time>2020-06-23T16:28:54Z</time>
      </trkpt>
      <trkpt lat="50.6879" lon="2.99224">
        <ele>20.6</ele>
        <time>2020-06-23T16:28:55Z</time>
      </trkpt>
      <trkpt lat="50.68788" lon="2.9923">
        <ele>20.7</ele>
        <time>2020-06-23T16:28:56Z</time>
      </trkpt>
      <trkpt lat="50.68786" lon="2.99237">
        <ele>20.7</ele>
        <time>2020-06-23T16:28:57Z</time>
      </trkpt>
      <trkpt lat="50.68783" lon="2.99246">
        <ele>20.8</ele>
        <time>2020-06-23T16:28:58Z</time>
      </trkpt>
      <trkpt lat="50.68781" lon="2.99254">
        <ele>20.8</ele>
        <time>2020-06-23T16:28:59Z</time>
      </trkpt>
      <trkpt lat="50.68779" lon="2.99262">
        <ele>20.8</ele>
        <time>2020-06-23T16:29:00Z</time>
      </trkpt>
      <trkpt lat="50.68777" lon="2.99269">
        <ele>20.8</ele>
        <time>2020-06-23T16:29:01Z</time>
      </trkpt>
      <trkpt lat="50.68775" lon="2.99277">
        <ele>20.8</ele>
        <time>2020-06-23T16:29:02Z</time>
      </trkpt>
      <trkpt lat="50.68772" lon="2.99285">
        <ele>20.8</ele>
        <time>2020-06-23T16:29:03Z</time>
      </trkpt>
      <trkpt lat="50.68769" lon="2.99294">
        <ele>20.8</ele>
        <time>2020-06-23T16:29:04Z</time>
      </trkpt>
      <trkpt lat="50.68766" lon="2.99301">
        <ele>20.8</ele>
        <time>2020-06-23T16:29:05Z</time>
      </trkpt>
      <trkpt lat="50.68763" lon="2.99307">
        <ele>20.8</ele>
        <time>2020-06-23T16:29:06Z</time>
      </trkpt>
      <trkpt lat="50.68761" lon="2.99313">
        <ele>20.8</ele>
        <time>2020-06-23T16:29:07Z</time>
      </trkpt>
      <trkpt lat="50.68758" lon="2.99319">
        <ele>20.8</ele>
        <time>2020-06-23T16:29:08Z</time>
      </trkpt>
      <trkpt lat="50.68756" lon="2.99325">
        <ele>20.8</ele>
        <time>2020-06-23T16:29:09Z</time>
      </trkpt>
      <trkpt lat="50.68755" lon="2.99332">
        <ele>20.8</ele>
        <time>2020-06-23T16:29:10Z</time>
      </trkpt>
      <trkpt lat="50.68753" lon="2.99339">
        <ele>20.8</ele>
        <time>2020-06-23T16:29:11Z</time>
      </trkpt>
      <trkpt lat="50.68751" lon="2.99346">
        <ele>20.8</ele>
        <time>2020-06-23T16:29:12Z</time>
      </trkpt>
      <trkpt lat="50.68748" lon="2.99353">
        <ele>20.8</ele>
        <time>2020-06-23T16:29:13Z</time>
      </trkpt>
      <trkpt lat="50.68746" lon="2.99362">
        <ele>20.8</ele>
        <time>2020-06-23T16:29:14Z</time>
      </trkpt>
      <trkpt lat="50.68744" lon="2.99369">
        <ele>20.8</ele>
        <time>2020-06-23T16:29:15Z</time>
      </trkpt>
      <trkpt lat="50.68742" lon="2.99376">
        <ele>20.8</ele>
        <time>2020-06-23T16:29:16Z</time>
      </trkpt>
      <trkpt lat="50.68738" lon="2.99385">
        <ele>20.8</ele>
        <time>2020-06-23T16:29:17Z</time>
      </trkpt>
      <trkpt lat="50.68736" lon="2.99392">
        <ele>20.8</ele>
        <time>2020-06-23T16:29:18Z</time>
      </trkpt>
      <trkpt lat="50.68733" lon="2.99401">
        <ele>20.8</ele>
        <time>2020-06-23T16:29:19Z</time>
      </trkpt>
      <trkpt lat="50.6873" lon="2.9941">
        <ele>20.9</ele>
        <time>2020-06-23T16:29:20Z</time>
      </trkpt>
      <trkpt lat="50.68727" lon="2.9942">
        <ele>21</ele>
        <time>2020-06-23T16:29:21Z</time>
      </trkpt>
      <trkpt lat="50.68723" lon="2.99429">
        <ele>21.1</ele>
        <time>2020-06-23T16:29:22Z</time>
      </trkpt>
      <trkpt lat="50.6872" lon="2.99438">
        <ele>21.2</ele>
        <time>2020-06-23T16:29:23Z</time>
      </trkpt>
      <trkpt lat="50.68716" lon="2.99446">
        <ele>21.2</ele>
        <time>2020-06-23T16:29:24Z</time>
      </trkpt>
      <trkpt lat="50.68712" lon="2.99455">
        <ele>21.2</ele>
        <time>2020-06-23T16:29:25Z</time>
      </trkpt>
      <trkpt lat="50.68708" lon="2.99464">
        <ele>21.1</ele>
        <time>2020-06-23T16:29:26Z</time>
      </trkpt>
      <trkpt lat="50.68705" lon="2.99472">
        <ele>21</ele>
        <time>2020-06-23T16:29:27Z</time>
      </trkpt>
      <trkpt lat="50.68702" lon="2.99483">
        <ele>20.9</ele>
        <time>2020-06-23T16:29:28Z</time>
      </trkpt>
      <trkpt lat="50.68696" lon="2.99496">
        <ele>20.8</ele>
        <time>2020-06-23T16:29:29Z</time>
      </trkpt>
      <trkpt lat="50.68693" lon="2.99505">
        <ele>20.7</ele>
        <time>2020-06-23T16:29:30Z</time>
      </trkpt>
      <trkpt lat="50.6869" lon="2.99515">
        <ele>20.7</ele>
        <time>2020-06-23T16:29:31Z</time>
      </trkpt>
      <trkpt lat="50.68687" lon="2.99523">
        <ele>20.6</ele>
        <time>2020-06-23T16:29:32Z</time>
      </trkpt>
      <trkpt lat="50.68684" lon="2.99532">
        <ele>20.6</ele>
        <time>2020-06-23T16:29:33Z</time>
      </trkpt>
      <trkpt lat="50.6868" lon="2.99543">
        <ele>20.6</ele>
        <time>2020-06-23T16:29:34Z</time>
      </trkpt>
      <trkpt lat="50.68677" lon="2.99549">
        <ele>20.6</ele>
        <time>2020-06-23T16:29:35Z</time>
      </trkpt>
      <trkpt lat="50.68674" lon="2.99558">
        <ele>20.6</ele>
        <time>2020-06-23T16:29:36Z</time>
      </trkpt>
      <trkpt lat="50.68672" lon="2.99567">
        <ele>20.5</ele>
        <time>2020-06-23T16:29:37Z</time>
      </trkpt>
      <trkpt lat="50.68668" lon="2.99576">
        <ele>20.5</ele>
        <time>2020-06-23T16:29:38Z</time>
      </trkpt>
      <trkpt lat="50.68665" lon="2.99586">
        <ele>20.5</ele>
        <time>2020-06-23T16:29:39Z</time>
      </trkpt>
      <trkpt lat="50.6866" lon="2.99595">
        <ele>20.5</ele>
        <time>2020-06-23T16:29:40Z</time>
      </trkpt>
      <trkpt lat="50.68657" lon="2.99604">
        <ele>20.5</ele>
        <time>2020-06-23T16:29:41Z</time>
      </trkpt>
      <trkpt lat="50.68653" lon="2.99614">
        <ele>20.5</ele>
        <time>2020-06-23T16:29:42Z</time>
      </trkpt>
      <trkpt lat="50.6865" lon="2.99623">
        <ele>20.5</ele>
        <time>2020-06-23T16:29:43Z</time>
      </trkpt>
      <trkpt lat="50.68647" lon="2.99633">
        <ele>20.6</ele>
        <time>2020-06-23T16:29:44Z</time>
      </trkpt>
      <trkpt lat="50.68643" lon="2.99642">
        <ele>20.7</ele>
        <time>2020-06-23T16:29:45Z</time>
      </trkpt>
      <trkpt lat="50.68639" lon="2.99649">
        <ele>20.8</ele>
        <time>2020-06-23T16:29:46Z</time>
      </trkpt>
      <trkpt lat="50.68635" lon="2.99655">
        <ele>20.8</ele>
        <time>2020-06-23T16:29:47Z</time>
      </trkpt>
      <trkpt lat="50.68633" lon="2.99661">
        <ele>20.8</ele>
        <time>2020-06-23T16:29:48Z</time>
      </trkpt>
      <trkpt lat="50.6863" lon="2.99669">
        <ele>20.8</ele>
        <time>2020-06-23T16:29:49Z</time>
      </trkpt>
      <trkpt lat="50.68628" lon="2.99676">
        <ele>20.9</ele>
        <time>2020-06-23T16:29:50Z</time>
      </trkpt>
      <trkpt lat="50.68624" lon="2.99685">
        <ele>20.9</ele>
        <time>2020-06-23T16:29:51Z</time>
      </trkpt>
      <trkpt lat="50.68622" lon="2.99692">
        <ele>21</ele>
        <time>2020-06-23T16:29:52Z</time>
      </trkpt>
      <trkpt lat="50.68619" lon="2.99699">
        <ele>21.1</ele>
        <time>2020-06-23T16:29:53Z</time>
      </trkpt>
      <trkpt lat="50.68617" lon="2.99707">
        <ele>21.1</ele>
        <time>2020-06-23T16:29:54Z</time>
      </trkpt>
      <trkpt lat="50.68614" lon="2.99715">
        <ele>21.2</ele>
        <time>2020-06-23T16:29:55Z</time>
      </trkpt>
      <trkpt lat="50.68612" lon="2.99723">
        <ele>21.3</ele>
        <time>2020-06-23T16:29:56Z</time>
      </trkpt>
      <trkpt lat="50.68609" lon="2.9973">
        <ele>21.4</ele>
        <time>2020-06-23T16:29:57Z</time>
      </trkpt>
      <trkpt lat="50.68607" lon="2.99738">
        <ele>21.4</ele>
        <time>2020-06-23T16:29:58Z</time>
      </trkpt>
      <trkpt lat="50.68604" lon="2.99744">
        <ele>21.5</ele>
        <time>2020-06-23T16:29:59Z</time>
      </trkpt>
      <trkpt lat="50.68601" lon="2.99751">
        <ele>21.7</ele>
        <time>2020-06-23T16:30:00Z</time>
      </trkpt>
      <trkpt lat="50.68598" lon="2.99757">
        <ele>21.7</ele>
        <time>2020-06-23T16:30:01Z</time>
      </trkpt>
      <trkpt lat="50.68596" lon="2.99761">
        <ele>21.8</ele>
        <time>2020-06-23T16:30:02Z</time>
      </trkpt>
      <trkpt lat="50.68593" lon="2.99767">
        <ele>21.8</ele>
        <time>2020-06-23T16:30:03Z</time>
      </trkpt>
      <trkpt lat="50.68591" lon="2.99772">
        <ele>21.9</ele>
        <time>2020-06-23T16:30:04Z</time>
      </trkpt>
      <trkpt lat="50.6859" lon="2.99777">
        <ele>21.9</ele>
        <time>2020-06-23T16:30:05Z</time>
      </trkpt>
      <trkpt lat="50.68589" lon="2.99778">
        <ele>22</ele>
        <time>2020-06-23T16:30:06Z</time>
      </trkpt>
      <trkpt lat="50.68587" lon="2.99782">
        <ele>22</ele>
        <time>2020-06-23T16:30:07Z</time>
      </trkpt>
      <trkpt lat="50.68586" lon="2.99788">
        <ele>22.1</ele>
        <time>2020-06-23T16:30:08Z</time>
      </trkpt>
      <trkpt lat="50.68585" lon="2.99793">
        <ele>22.1</ele>
        <time>2020-06-23T16:30:09Z</time>
      </trkpt>
      <trkpt lat="50.68583" lon="2.99798">
        <ele>22.2</ele>
        <time>2020-06-23T16:30:10Z</time>
      </trkpt>
      <trkpt lat="50.68583" lon="2.998">
        <ele>22.3</ele>
        <time>2020-06-23T16:30:11Z</time>
      </trkpt>
      <trkpt lat="50.68581" lon="2.99804">
        <ele>22.3</ele>
        <time>2020-06-23T16:30:12Z</time>
      </trkpt>
      <trkpt lat="50.68579" lon="2.99809">
        <ele>22.4</ele>
        <time>2020-06-23T16:30:13Z</time>
      </trkpt>
      <trkpt lat="50.68578" lon="2.99814">
        <ele>22.4</ele>
        <time>2020-06-23T16:30:14Z</time>
      </trkpt>
      <trkpt lat="50.68576" lon="2.99818">
        <ele>22.5</ele>
        <time>2020-06-23T16:30:15Z</time>
      </trkpt>
      <trkpt lat="50.68573" lon="2.99819">
        <ele>22.6</ele>
        <time>2020-06-23T16:30:16Z</time>
      </trkpt>
      <trkpt lat="50.68572" lon="2.99819">
        <ele>22.6</ele>
        <time>2020-06-23T16:30:17Z</time>
      </trkpt>
      <trkpt lat="50.68569" lon="2.99819">
        <ele>22.6</ele>
        <time>2020-06-23T16:30:18Z</time>
      </trkpt>
      <trkpt lat="50.68566" lon="2.99818">
        <ele>22.6</ele>
        <time>2020-06-23T16:30:19Z</time>
      </trkpt>
      <trkpt lat="50.68565" lon="2.99817">
        <ele>22.6</ele>
        <time>2020-06-23T16:30:20Z</time>
      </trkpt>
      <trkpt lat="50.68563" lon="2.99818">
        <ele>22.6</ele>
        <time>2020-06-23T16:30:21Z</time>
      </trkpt>
      <trkpt lat="50.6856" lon="2.99814">
        <ele>22.6</ele>
        <time>2020-06-23T16:30:22Z</time>
      </trkpt>
      <trkpt lat="50.68559" lon="2.99812">
        <ele>22.6</ele>
        <time>2020-06-23T16:30:23Z</time>
      </trkpt>
      <trkpt lat="50.68555" lon="2.99806">
        <ele>22.6</ele>
        <time>2020-06-23T16:30:24Z</time>
      </trkpt>
      <trkpt lat="50.6855" lon="2.99799">
        <ele>22.7</ele>
        <time>2020-06-23T16:30:25Z</time>
      </trkpt>
      <trkpt lat="50.68545" lon="2.99792">
        <ele>22.7</ele>
        <time>2020-06-23T16:30:26Z</time>
      </trkpt>
      <trkpt lat="50.68541" lon="2.99783">
        <ele>22.8</ele>
        <time>2020-06-23T16:30:27Z</time>
      </trkpt>
      <trkpt lat="50.68536" lon="2.99774">
        <ele>22.8</ele>
        <time>2020-06-23T16:30:28Z</time>
      </trkpt>
      <trkpt lat="50.68533" lon="2.99767">
        <ele>22.9</ele>
        <time>2020-06-23T16:30:29Z</time>
      </trkpt>
      <trkpt lat="50.6853" lon="2.99761">
        <ele>23</ele>
        <time>2020-06-23T16:30:30Z</time>
      </trkpt>
      <trkpt lat="50.68527" lon="2.99755">
        <ele>23</ele>
        <time>2020-06-23T16:30:31Z</time>
      </trkpt>
      <trkpt lat="50.68525" lon="2.9975">
        <ele>23.1</ele>
        <time>2020-06-23T16:30:32Z</time>
      </trkpt>
      <trkpt lat="50.68522" lon="2.99743">
        <ele>23.2</ele>
        <time>2020-06-23T16:30:33Z</time>
      </trkpt>
      <trkpt lat="50.6852" lon="2.99736">
        <ele>23.3</ele>
        <time>2020-06-23T16:30:34Z</time>
      </trkpt>
      <trkpt lat="50.68517" lon="2.99729">
        <ele>23.4</ele>
        <time>2020-06-23T16:30:35Z</time>
      </trkpt>
      <trkpt lat="50.68513" lon="2.99721">
        <ele>23.6</ele>
        <time>2020-06-23T16:30:36Z</time>
      </trkpt>
      <trkpt lat="50.6851" lon="2.99714">
        <ele>23.5</ele>
        <time>2020-06-23T16:30:37Z</time>
      </trkpt>
      <trkpt lat="50.68507" lon="2.99707">
        <ele>23.5</ele>
        <time>2020-06-23T16:30:38Z</time>
      </trkpt>
      <trkpt lat="50.68503" lon="2.997">
        <ele>23.4</ele>
        <time>2020-06-23T16:30:39Z</time>
      </trkpt>
      <trkpt lat="50.685" lon="2.99692">
        <ele>23.4</ele>
        <time>2020-06-23T16:30:40Z</time>
      </trkpt>
      <trkpt lat="50.68496" lon="2.99685">
        <ele>23.3</ele>
        <time>2020-06-23T16:30:41Z</time>
      </trkpt>
      <trkpt lat="50.68493" lon="2.9968">
        <ele>23.3</ele>
        <time>2020-06-23T16:30:42Z</time>
      </trkpt>
      <trkpt lat="50.68489" lon="2.99674">
        <ele>23.3</ele>
        <time>2020-06-23T16:30:43Z</time>
      </trkpt>
      <trkpt lat="50.68485" lon="2.99668">
        <ele>23.2</ele>
        <time>2020-06-23T16:30:44Z</time>
      </trkpt>
      <trkpt lat="50.68481" lon="2.99661">
        <ele>23.2</ele>
        <time>2020-06-23T16:30:45Z</time>
      </trkpt>
      <trkpt lat="50.68478" lon="2.99654">
        <ele>23.2</ele>
        <time>2020-06-23T16:30:46Z</time>
      </trkpt>
      <trkpt lat="50.68474" lon="2.99649">
        <ele>23.2</ele>
        <time>2020-06-23T16:30:47Z</time>
      </trkpt>
      <trkpt lat="50.68471" lon="2.99643">
        <ele>23.2</ele>
        <time>2020-06-23T16:30:48Z</time>
      </trkpt>
      <trkpt lat="50.68467" lon="2.99638">
        <ele>23.2</ele>
        <time>2020-06-23T16:30:49Z</time>
      </trkpt>
      <trkpt lat="50.68463" lon="2.99633">
        <ele>23.2</ele>
        <time>2020-06-23T16:30:50Z</time>
      </trkpt>
      <trkpt lat="50.68458" lon="2.99629">
        <ele>23.1</ele>
        <time>2020-06-23T16:30:51Z</time>
      </trkpt>
      <trkpt lat="50.68453" lon="2.99624">
        <ele>23.1</ele>
        <time>2020-06-23T16:30:52Z</time>
      </trkpt>
      <trkpt lat="50.68448" lon="2.99619">
        <ele>23.1</ele>
        <time>2020-06-23T16:30:53Z</time>
      </trkpt>
      <trkpt lat="50.68444" lon="2.99615">
        <ele>23.1</ele>
        <time>2020-06-23T16:30:54Z</time>
      </trkpt>
      <trkpt lat="50.6844" lon="2.9961">
        <ele>23.1</ele>
        <time>2020-06-23T16:30:55Z</time>
      </trkpt>
      <trkpt lat="50.68436" lon="2.99605">
        <ele>23.1</ele>
        <time>2020-06-23T16:30:56Z</time>
      </trkpt>
      <trkpt lat="50.68432" lon="2.996">
        <ele>23.1</ele>
        <time>2020-06-23T16:30:57Z</time>
      </trkpt>
      <trkpt lat="50.68429" lon="2.99595">
        <ele>23.1</ele>
        <time>2020-06-23T16:30:58Z</time>
      </trkpt>
      <trkpt lat="50.68424" lon="2.99591">
        <ele>23.1</ele>
        <time>2020-06-23T16:30:59Z</time>
      </trkpt>
      <trkpt lat="50.68421" lon="2.99588">
        <ele>23.1</ele>
        <time>2020-06-23T16:31:00Z</time>
      </trkpt>
      <trkpt lat="50.68418" lon="2.99585">
        <ele>23</ele>
        <time>2020-06-23T16:31:01Z</time>
      </trkpt>
      <trkpt lat="50.68414" lon="2.99582">
        <ele>23</ele>
        <time>2020-06-23T16:31:02Z</time>
      </trkpt>
      <trkpt lat="50.68411" lon="2.99579">
        <ele>23</ele>
        <time>2020-06-23T16:31:03Z</time>
      </trkpt>
      <trkpt lat="50.68408" lon="2.99576">
        <ele>23</ele>
        <time>2020-06-23T16:31:04Z</time>
      </trkpt>
      <trkpt lat="50.68406" lon="2.99573">
        <ele>23</ele>
        <time>2020-06-23T16:31:05Z</time>
      </trkpt>
      <trkpt lat="50.68403" lon="2.9957">
        <ele>23</ele>
        <time>2020-06-23T16:31:06Z</time>
      </trkpt>
      <trkpt lat="50.684" lon="2.99567">
        <ele>23</ele>
        <time>2020-06-23T16:31:07Z</time>
      </trkpt>
      <trkpt lat="50.68396" lon="2.99564">
        <ele>23</ele>
        <time>2020-06-23T16:31:08Z</time>
      </trkpt>
      <trkpt lat="50.68393" lon="2.99562">
        <ele>23</ele>
        <time>2020-06-23T16:31:09Z</time>
      </trkpt>
      <trkpt lat="50.6839" lon="2.9956">
        <ele>23</ele>
        <time>2020-06-23T16:31:10Z</time>
      </trkpt>
      <trkpt lat="50.68386" lon="2.99558">
        <ele>23</ele>
        <time>2020-06-23T16:31:11Z</time>
      </trkpt>
      <trkpt lat="50.68383" lon="2.99556">
        <ele>23</ele>
        <time>2020-06-23T16:31:12Z</time>
      </trkpt>
      <trkpt lat="50.6838" lon="2.99554">
        <ele>23</ele>
        <time>2020-06-23T16:31:13Z</time>
      </trkpt>
      <trkpt lat="50.68378" lon="2.99554">
        <ele>23</ele>
        <time>2020-06-23T16:31:14Z</time>
      </trkpt>
      <trkpt lat="50.68375" lon="2.99552">
        <ele>23</ele>
        <time>2020-06-23T16:31:15Z</time>
      </trkpt>
      <trkpt lat="50.68375" lon="2.99551">
        <ele>23</ele>
        <time>2020-06-23T16:31:16Z</time>
      </trkpt>
      <trkpt lat="50.68372" lon="2.99549">
        <ele>23</ele>
        <time>2020-06-23T16:31:17Z</time>
      </trkpt>
      <trkpt lat="50.68371" lon="2.99548">
        <ele>23</ele>
        <time>2020-06-23T16:31:18Z</time>
      </trkpt>
      <trkpt lat="50.68369" lon="2.99546">
        <ele>23</ele>
        <time>2020-06-23T16:31:19Z</time>
      </trkpt>
      <trkpt lat="50.68368" lon="2.99545">
        <ele>23</ele>
        <time>2020-06-23T16:31:20Z</time>
      </trkpt>
      <trkpt lat="50.68365" lon="2.99543">
        <ele>23</ele>
        <time>2020-06-23T16:31:21Z</time>
      </trkpt>
      <trkpt lat="50.68364" lon="2.99542">
        <ele>23</ele>
        <time>2020-06-23T16:31:22Z</time>
      </trkpt>
      <trkpt lat="50.68362" lon="2.9954">
        <ele>23</ele>
        <time>2020-06-23T16:31:23Z</time>
      </trkpt>
      <trkpt lat="50.6836" lon="2.99537">
        <ele>23</ele>
        <time>2020-06-23T16:31:24Z</time>
      </trkpt>
      <trkpt lat="50.68359" lon="2.99537">
        <ele>23</ele>
        <time>2020-06-23T16:31:25Z</time>
      </trkpt>
      <trkpt lat="50.68357" lon="2.99534">
        <ele>23</ele>
        <time>2020-06-23T16:31:26Z</time>
      </trkpt>
      <trkpt lat="50.68356" lon="2.99533">
        <ele>23</ele>
        <time>2020-06-23T16:31:27Z</time>
      </trkpt>
      <trkpt lat="50.68354" lon="2.99531">
        <ele>23</ele>
        <time>2020-06-23T16:31:28Z</time>
      </trkpt>
      <trkpt lat="50.68351" lon="2.99527">
        <ele>23</ele>
        <time>2020-06-23T16:31:29Z</time>
      </trkpt>
      <trkpt lat="50.68349" lon="2.99524">
        <ele>23</ele>
        <time>2020-06-23T16:31:30Z</time>
      </trkpt>
      <trkpt lat="50.68347" lon="2.99522">
        <ele>23</ele>
        <time>2020-06-23T16:31:31Z</time>
      </trkpt>
      <trkpt lat="50.68347" lon="2.99521">
        <ele>23</ele>
        <time>2020-06-23T16:31:32Z</time>
      </trkpt>
      <trkpt lat="50.68347" lon="2.9952">
        <ele>23</ele>
        <time>2020-06-23T16:31:33Z</time>
      </trkpt>
      <trkpt lat="50.68346" lon="2.99518">
        <ele>23</ele>
        <time>2020-06-23T16:31:34Z</time>
      </trkpt>
      <trkpt lat="50.68345" lon="2.99517">
        <ele>23</ele>
        <time>2020-06-23T16:31:35Z</time>
      </trkpt>
      <trkpt lat="50.68344" lon="2.99516">
        <ele>23.1</ele>
        <time>2020-06-23T16:31:36Z</time>
      </trkpt>
      <trkpt lat="50.68343" lon="2.99515">
        <ele>23.1</ele>
        <time>2020-06-23T16:31:37Z</time>
      </trkpt>
      <trkpt lat="50.68343" lon="2.99515">
        <ele>23.1</ele>
        <time>2020-06-23T16:31:38Z</time>
      </trkpt>
      <trkpt lat="50.68343" lon="2.99514">
        <ele>23.1</ele>
        <time>2020-06-23T16:31:39Z</time>
      </trkpt>
      <trkpt lat="50.68343" lon="2.99514">
        <ele>23.1</ele>
        <time>2020-06-23T16:31:40Z</time>
      </trkpt>
      <trkpt lat="50.68342" lon="2.99514">
        <ele>23.1</ele>
        <time>2020-06-23T16:31:41Z</time>
      </trkpt>
      <trkpt lat="50.68341" lon="2.99513">
        <ele>23.1</ele>
        <time>2020-06-23T16:31:42Z</time>
      </trkpt>
      <trkpt lat="50.6834" lon="2.99513">
        <ele>23.1</ele>
        <time>2020-06-23T16:31:43Z</time>
      </trkpt>
      <trkpt lat="50.6834" lon="2.99513">
        <ele>23.1</ele>
        <time>2020-06-23T16:31:44Z</time>
      </trkpt>
      <trkpt lat="50.6834" lon="2.99513">
        <ele>23.1</ele>
        <time>2020-06-23T16:31:45Z</time>
      </trkpt>
      <trkpt lat="50.6834" lon="2.99513">
        <ele>23.1</ele>
        <time>2020-06-23T16:31:46Z</time>
      </trkpt>
      <trkpt lat="50.6834" lon="2.99513">
        <ele>23.1</ele>
        <time>2020-06-23T16:31:47Z</time>
      </trkpt>
      <trkpt lat="50.68341" lon="2.99514">
        <ele>23.1</ele>
        <time>2020-06-23T16:31:48Z</time>
      </trkpt>
      <trkpt lat="50.68342" lon="2.99515">
        <ele>23.1</ele>
        <time>2020-06-23T16:31:49Z</time>
      </trkpt>
      <trkpt lat="50.68343" lon="2.99516">
        <ele>23.1</ele>
        <time>2020-06-23T16:31:50Z</time>
      </trkpt>
      <trkpt lat="50.68344" lon="2.99517">
        <ele>23.1</ele>
        <time>2020-06-23T16:31:51Z</time>
      </trkpt>
      <trkpt lat="50.68345" lon="2.99517">
        <ele>23.1</ele>
        <time>2020-06-23T16:31:52Z</time>
      </trkpt>
      <trkpt lat="50.68345" lon="2.99518">
        <ele>23.1</ele>
        <time>2020-06-23T16:31:53Z</time>
      </trkpt>
      <trkpt lat="50.68345" lon="2.99518">
        <ele>23.1</ele>
        <time>2020-06-23T16:31:54Z</time>
      </trkpt>
      <trkpt lat="50.68346" lon="2.99519">
        <ele>23.1</ele>
        <time>2020-06-23T16:31:55Z</time>
      </trkpt>
      <trkpt lat="50.68347" lon="2.99519">
        <ele>23.1</ele>
        <time>2020-06-23T16:31:56Z</time>
      </trkpt>
      <trkpt lat="50.68348" lon="2.9952">
        <ele>23.1</ele>
        <time>2020-06-23T16:31:57Z</time>
      </trkpt>
      <trkpt lat="50.68348" lon="2.9952">
        <ele>23.1</ele>
        <time>2020-06-23T16:31:58Z</time>
      </trkpt>
      <trkpt lat="50.68349" lon="2.9952">
        <ele>23.1</ele>
        <time>2020-06-23T16:31:59Z</time>
      </trkpt>
      <trkpt lat="50.68348" lon="2.9952">
        <ele>23.1</ele>
        <time>2020-06-23T16:32:00Z</time>
      </trkpt>
      <trkpt lat="50.68348" lon="2.9952">
        <ele>23.1</ele>
        <time>2020-06-23T16:32:01Z</time>
      </trkpt>
      <trkpt lat="50.68349" lon="2.9952">
        <ele>23.1</ele>
        <time>2020-06-23T16:32:02Z</time>
      </trkpt>
      <trkpt lat="50.68349" lon="2.99518">
        <ele>23.1</ele>
        <time>2020-06-23T16:32:03Z</time>
      </trkpt>
      <trkpt lat="50.68348" lon="2.99517">
        <ele>23.1</ele>
        <time>2020-06-23T16:32:04Z</time>
      </trkpt>
      <trkpt lat="50.68349" lon="2.99516">
        <ele>23.1</ele>
        <time>2020-06-23T16:32:05Z</time>
      </trkpt>
      <trkpt lat="50.68351" lon="2.99516">
        <ele>23.1</ele>
        <time>2020-06-23T16:32:06Z</time>
      </trkpt>
      <trkpt lat="50.68352" lon="2.99516">
        <ele>23.1</ele>
        <time>2020-06-23T16:32:07Z</time>
      </trkpt>
      <trkpt lat="50.68353" lon="2.99516">
        <ele>23.1</ele>
        <time>2020-06-23T16:32:08Z</time>
      </trkpt>
      <trkpt lat="50.68353" lon="2.99516">
        <ele>23.1</ele>
        <time>2020-06-23T16:32:09Z</time>
      </trkpt>
      <trkpt lat="50.68354" lon="2.99516">
        <ele>23.1</ele>
        <time>2020-06-23T16:32:10Z</time>
      </trkpt>
      <trkpt lat="50.68355" lon="2.99516">
        <ele>23.1</ele>
        <time>2020-06-23T16:32:11Z</time>
      </trkpt>
      <trkpt lat="50.68355" lon="2.99516">
        <ele>23.1</ele>
        <time>2020-06-23T16:32:12Z</time>
      </trkpt>
      <trkpt lat="50.68356" lon="2.99515">
        <ele>23.1</ele>
        <time>2020-06-23T16:32:13Z</time>
      </trkpt>
      <trkpt lat="50.68356" lon="2.99514">
        <ele>23.1</ele>
        <time>2020-06-23T16:32:14Z</time>
      </trkpt>
      <trkpt lat="50.68356" lon="2.99514">
        <ele>23.1</ele>
        <time>2020-06-23T16:32:15Z</time>
      </trkpt>
      <trkpt lat="50.68357" lon="2.99513">
        <ele>23.1</ele>
        <time>2020-06-23T16:32:16Z</time>
      </trkpt>
      <trkpt lat="50.68357" lon="2.99513">
        <ele>23.1</ele>
        <time>2020-06-23T16:32:17Z</time>
      </trkpt>
      <trkpt lat="50.68357" lon="2.99512">
        <ele>23.1</ele>
        <time>2020-06-23T16:32:18Z</time>
      </trkpt>
      <trkpt lat="50.68357" lon="2.99512">
        <ele>23.1</ele>
        <time>2020-06-23T16:32:19Z</time>
      </trkpt>
      <trkpt lat="50.68357" lon="2.99512">
        <ele>23.1</ele>
        <time>2020-06-23T16:32:20Z</time>
      </trkpt>
      <trkpt lat="50.68357" lon="2.99512">
        <ele>23.1</ele>
        <time>2020-06-23T16:32:21Z</time>
      </trkpt>
      <trkpt lat="50.68357" lon="2.99513">
        <ele>23.1</ele>
        <time>2020-06-23T16:32:22Z</time>
      </trkpt>
      <trkpt lat="50.68357" lon="2.99513">
        <ele>23.1</ele>
        <time>2020-06-23T16:32:23Z</time>
      </trkpt>
      <trkpt lat="50.68357" lon="2.99514">
        <ele>23.1</ele>
        <time>2020-06-23T16:32:24Z</time>
      </trkpt>
      <trkpt lat="50.68357" lon="2.99514">
        <ele>23.1</ele>
        <time>2020-06-23T16:32:25Z</time>
      </trkpt>
      <trkpt lat="50.68358" lon="2.99533">
        <ele>23.1</ele>
        <time>2020-06-23T16:32:46Z</time>
      </trkpt>
      <trkpt lat="50.68358" lon="2.99536">
        <ele>23.1</ele>
        <time>2020-06-23T16:32:47Z</time>
      </trkpt>
      <trkpt lat="50.68358" lon="2.99538">
        <ele>23.1</ele>
        <time>2020-06-23T16:32:48Z</time>
      </trkpt>
      <trkpt lat="50.68358" lon="2.99539">
        <ele>23.1</ele>
        <time>2020-06-23T16:32:49Z</time>
      </trkpt>
      <trkpt lat="50.68357" lon="2.9954">
        <ele>23</ele>
        <time>2020-06-23T16:32:50Z</time>
      </trkpt>
      <trkpt lat="50.68356" lon="2.99541">
        <ele>23</ele>
        <time>2020-06-23T16:32:51Z</time>
      </trkpt>
      <trkpt lat="50.68356" lon="2.99541">
        <ele>23</ele>
        <time>2020-06-23T16:32:52Z</time>
      </trkpt>
      <trkpt lat="50.68357" lon="2.99541">
        <ele>23</ele>
        <time>2020-06-23T16:32:53Z</time>
      </trkpt>
      <trkpt lat="50.68358" lon="2.99542">
        <ele>23</ele>
        <time>2020-06-23T16:32:54Z</time>
      </trkpt>
      <trkpt lat="50.68359" lon="2.99542">
        <ele>23</ele>
        <time>2020-06-23T16:32:55Z</time>
      </trkpt>
      <trkpt lat="50.68359" lon="2.99543">
        <ele>23</ele>
        <time>2020-06-23T16:32:56Z</time>
      </trkpt>
      <trkpt lat="50.68359" lon="2.99542">
        <ele>23</ele>
        <time>2020-06-23T16:32:57Z</time>
      </trkpt>
      <trkpt lat="50.68358" lon="2.99543">
        <ele>23</ele>
        <time>2020-06-23T16:32:58Z</time>
      </trkpt>
      <trkpt lat="50.68357" lon="2.99543">
        <ele>23</ele>
        <time>2020-06-23T16:32:59Z</time>
      </trkpt>
      <trkpt lat="50.68357" lon="2.99541">
        <ele>23</ele>
        <time>2020-06-23T16:33:00Z</time>
      </trkpt>
      <trkpt lat="50.68357" lon="2.99541">
        <ele>23</ele>
        <time>2020-06-23T16:33:01Z</time>
      </trkpt>
      <trkpt lat="50.68357" lon="2.9954">
        <ele>23</ele>
        <time>2020-06-23T16:33:02Z</time>
      </trkpt>
      <trkpt lat="50.68357" lon="2.9954">
        <ele>23</ele>
        <time>2020-06-23T16:33:03Z</time>
      </trkpt>
      <trkpt lat="50.68357" lon="2.99539">
        <ele>23</ele>
        <time>2020-06-23T16:33:04Z</time>
      </trkpt>
      <trkpt lat="50.68356" lon="2.99539">
        <ele>23</ele>
        <time>2020-06-23T16:33:05Z</time>
      </trkpt>
      <trkpt lat="50.68356" lon="2.99539">
        <ele>23</ele>
        <time>2020-06-23T16:33:06Z</time>
      </trkpt>
      <trkpt lat="50.68356" lon="2.9954">
        <ele>23</ele>
        <time>2020-06-23T16:33:07Z</time>
      </trkpt>
      <trkpt lat="50.68356" lon="2.9954">
        <ele>23</ele>
        <time>2020-06-23T16:33:08Z</time>
      </trkpt>
      <trkpt lat="50.68356" lon="2.9954">
        <ele>23</ele>
        <time>2020-06-23T16:33:09Z</time>
      </trkpt>
      <trkpt lat="50.68355" lon="2.99541">
        <ele>23</ele>
        <time>2020-06-23T16:33:10Z</time>
      </trkpt>
      <trkpt lat="50.68355" lon="2.99541">
        <ele>23</ele>
        <time>2020-06-23T16:33:11Z</time>
      </trkpt>
      <trkpt lat="50.68355" lon="2.99541">
        <ele>23</ele>
        <time>2020-06-23T16:33:12Z</time>
      </trkpt>
      <trkpt lat="50.68355" lon="2.9954">
        <ele>23</ele>
        <time>2020-06-23T16:33:13Z</time>
      </trkpt>
      <trkpt lat="50.68355" lon="2.9954">
        <ele>23</ele>
        <time>2020-06-23T16:33:14Z</time>
      </trkpt>
      <trkpt lat="50.68355" lon="2.9954">
        <ele>23</ele>
        <time>2020-06-23T16:33:15Z</time>
      </trkpt>
      <trkpt lat="50.68355" lon="2.9954">
        <ele>23</ele>
        <time>2020-06-23T16:33:16Z</time>
      </trkpt>
      <trkpt lat="50.68355" lon="2.9954">
        <ele>23</ele>
        <time>2020-06-23T16:33:17Z</time>
      </trkpt>
      <trkpt lat="50.68356" lon="2.9954">
        <ele>23</ele>
        <time>2020-06-23T16:33:18Z</time>
      </trkpt>
      <trkpt lat="50.68356" lon="2.99541">
        <ele>23</ele>
        <time>2020-06-23T16:33:19Z</time>
      </trkpt>
      <trkpt lat="50.68356" lon="2.99542">
        <ele>23</ele>
        <time>2020-06-23T16:33:20Z</time>
      </trkpt>
      <trkpt lat="50.68355" lon="2.99541">
        <ele>23</ele>
        <time>2020-06-23T16:33:21Z</time>
      </trkpt>
      <trkpt lat="50.68355" lon="2.9954">
        <ele>23</ele>
        <time>2020-06-23T16:33:22Z</time>
      </trkpt>
      <trkpt lat="50.68355" lon="2.99541">
        <ele>23</ele>
        <time>2020-06-23T16:33:23Z</time>
      </trkpt>
      <trkpt lat="50.68355" lon="2.99541">
        <ele>23</ele>
        <time>2020-06-23T16:33:24Z</time>
      </trkpt>
      <trkpt lat="50.68355" lon="2.99541">
        <ele>23</ele>
        <time>2020-06-23T16:33:25Z</time>
      </trkpt>
      <trkpt lat="50.68355" lon="2.99541">
        <ele>23</ele>
        <time>2020-06-23T16:33:26Z</time>
      </trkpt>
      <trkpt lat="50.68355" lon="2.9954">
        <ele>23</ele>
        <time>2020-06-23T16:33:27Z</time>
      </trkpt>
      <trkpt lat="50.68355" lon="2.99541">
        <ele>23</ele>
        <time>2020-06-23T16:33:28Z</time>
      </trkpt>
      <trkpt lat="50.68355" lon="2.99542">
        <ele>23</ele>
        <time>2020-06-23T16:33:29Z</time>
      </trkpt>
      <trkpt lat="50.68356" lon="2.99542">
        <ele>23</ele>
        <time>2020-06-23T16:33:30Z</time>
      </trkpt>
      <trkpt lat="50.68355" lon="2.99541">
        <ele>23</ele>
        <time>2020-06-23T16:33:31Z</time>
      </trkpt>
      <trkpt lat="50.68355" lon="2.9954">
        <ele>23</ele>
        <time>2020-06-23T16:33:32Z</time>
      </trkpt>
      <trkpt lat="50.68355" lon="2.9954">
        <ele>23</ele>
        <time>2020-06-23T16:33:33Z</time>
      </trkpt>
      <trkpt lat="50.68354" lon="2.99539">
        <ele>23</ele>
        <time>2020-06-23T16:33:34Z</time>
      </trkpt>
      <trkpt lat="50.68354" lon="2.99539">
        <ele>23</ele>
        <time>2020-06-23T16:33:35Z</time>
      </trkpt>
      <trkpt lat="50.68353" lon="2.9954">
        <ele>23</ele>
        <time>2020-06-23T16:33:36Z</time>
      </trkpt>
      <trkpt lat="50.68352" lon="2.99541">
        <ele>23</ele>
        <time>2020-06-23T16:33:37Z</time>
      </trkpt>
      <trkpt lat="50.68352" lon="2.99542">
        <ele>23</ele>
        <time>2020-06-23T16:33:38Z</time>
      </trkpt>
      <trkpt lat="50.68351" lon="2.99529">
        <ele>23</ele>
        <time>2020-06-23T16:34:10Z</time>
      </trkpt>
      <trkpt lat="50.68349" lon="2.99526">
        <ele>23</ele>
        <time>2020-06-23T16:34:11Z</time>
      </trkpt>
      <trkpt lat="50.68348" lon="2.99525">
        <ele>23</ele>
        <time>2020-06-23T16:34:12Z</time>
      </trkpt>
      <trkpt lat="50.68346" lon="2.99523">
        <ele>23</ele>
        <time>2020-06-23T16:34:13Z</time>
      </trkpt>
      <trkpt lat="50.68345" lon="2.99521">
        <ele>23</ele>
        <time>2020-06-23T16:34:14Z</time>
      </trkpt>
      <trkpt lat="50.68344" lon="2.99519">
        <ele>23</ele>
        <time>2020-06-23T16:34:15Z</time>
      </trkpt>
      <trkpt lat="50.68343" lon="2.99518">
        <ele>23</ele>
        <time>2020-06-23T16:34:16Z</time>
      </trkpt>
      <trkpt lat="50.68342" lon="2.99517">
        <ele>23</ele>
        <time>2020-06-23T16:34:17Z</time>
      </trkpt>
      <trkpt lat="50.68342" lon="2.99517">
        <ele>23</ele>
        <time>2020-06-23T16:34:18Z</time>
      </trkpt>
      <trkpt lat="50.68342" lon="2.99516">
        <ele>23</ele>
        <time>2020-06-23T16:34:19Z</time>
      </trkpt>
      <trkpt lat="50.68341" lon="2.99515">
        <ele>23</ele>
        <time>2020-06-23T16:34:20Z</time>
      </trkpt>
      <trkpt lat="50.68341" lon="2.99513">
        <ele>23</ele>
        <time>2020-06-23T16:34:21Z</time>
      </trkpt>
      <trkpt lat="50.6834" lon="2.99512">
        <ele>23</ele>
        <time>2020-06-23T16:34:22Z</time>
      </trkpt>
      <trkpt lat="50.6834" lon="2.99511">
        <ele>23</ele>
        <time>2020-06-23T16:34:23Z</time>
      </trkpt>
      <trkpt lat="50.6834" lon="2.9951">
        <ele>23</ele>
        <time>2020-06-23T16:34:24Z</time>
      </trkpt>
      <trkpt lat="50.6834" lon="2.99509">
        <ele>23</ele>
        <time>2020-06-23T16:34:25Z</time>
      </trkpt>
      <trkpt lat="50.6834" lon="2.99509">
        <ele>23</ele>
        <time>2020-06-23T16:34:26Z</time>
      </trkpt>
      <trkpt lat="50.68339" lon="2.99509">
        <ele>23</ele>
        <time>2020-06-23T16:34:27Z</time>
      </trkpt>
      <trkpt lat="50.68338" lon="2.99509">
        <ele>23</ele>
        <time>2020-06-23T16:34:28Z</time>
      </trkpt>
      <trkpt lat="50.68337" lon="2.99509">
        <ele>23</ele>
        <time>2020-06-23T16:34:29Z</time>
      </trkpt>
      <trkpt lat="50.68337" lon="2.99509">
        <ele>23</ele>
        <time>2020-06-23T16:34:30Z</time>
      </trkpt>
      <trkpt lat="50.68337" lon="2.99509">
        <ele>23</ele>
        <time>2020-06-23T16:34:31Z</time>
      </trkpt>
      <trkpt lat="50.68337" lon="2.9951">
        <ele>23</ele>
        <time>2020-06-23T16:34:32Z</time>
      </trkpt>
      <trkpt lat="50.68337" lon="2.9951">
        <ele>23</ele>
        <time>2020-06-23T16:34:33Z</time>
      </trkpt>
      <trkpt lat="50.68337" lon="2.9951">
        <ele>23</ele>
        <time>2020-06-23T16:34:34Z</time>
      </trkpt>
      <trkpt lat="50.68337" lon="2.9951">
        <ele>23</ele>
        <time>2020-06-23T16:34:35Z</time>
      </trkpt>
      <trkpt lat="50.68337" lon="2.99511">
        <ele>23</ele>
        <time>2020-06-23T16:34:36Z</time>
      </trkpt>
      <trkpt lat="50.68337" lon="2.99511">
        <ele>23</ele>
        <time>2020-06-23T16:34:37Z</time>
      </trkpt>
      <trkpt lat="50.68337" lon="2.99512">
        <ele>23</ele>
        <time>2020-06-23T16:34:38Z</time>
      </trkpt>
      <trkpt lat="50.68336" lon="2.99506">
        <ele>23</ele>
        <time>2020-06-23T16:35:07Z</time>
      </trkpt>
      <trkpt lat="50.68336" lon="2.99506">
        <ele>23</ele>
        <time>2020-06-23T16:35:08Z</time>
      </trkpt>
      <trkpt lat="50.68337" lon="2.99506">
        <ele>23</ele>
        <time>2020-06-23T16:35:09Z</time>
      </trkpt>
      <trkpt lat="50.68339" lon="2.99506">
        <ele>23</ele>
        <time>2020-06-23T16:35:10Z</time>
      </trkpt>
      <trkpt lat="50.6834" lon="2.99506">
        <ele>23</ele>
        <time>2020-06-23T16:35:11Z</time>
      </trkpt>
      <trkpt lat="50.6834" lon="2.99505">
        <ele>23</ele>
        <time>2020-06-23T16:35:12Z</time>
      </trkpt>
      <trkpt lat="50.68341" lon="2.99504">
        <ele>23</ele>
        <time>2020-06-23T16:35:13Z</time>
      </trkpt>
      <trkpt lat="50.68341" lon="2.99504">
        <ele>23</ele>
        <time>2020-06-23T16:35:14Z</time>
      </trkpt>
      <trkpt lat="50.68341" lon="2.99504">
        <ele>23</ele>
        <time>2020-06-23T16:35:15Z</time>
      </trkpt>
      <trkpt lat="50.68342" lon="2.99503">
        <ele>23</ele>
        <time>2020-06-23T16:35:16Z</time>
      </trkpt>
      <trkpt lat="50.68342" lon="2.99502">
        <ele>23</ele>
        <time>2020-06-23T16:35:17Z</time>
      </trkpt>
      <trkpt lat="50.68342" lon="2.99502">
        <ele>23</ele>
        <time>2020-06-23T16:35:18Z</time>
      </trkpt>
      <trkpt lat="50.68342" lon="2.99502">
        <ele>23</ele>
        <time>2020-06-23T16:35:19Z</time>
      </trkpt>
      <trkpt lat="50.68342" lon="2.99502">
        <ele>23</ele>
        <time>2020-06-23T16:35:20Z</time>
      </trkpt>
      <trkpt lat="50.68341" lon="2.99503">
        <ele>23</ele>
        <time>2020-06-23T16:35:21Z</time>
      </trkpt>
      <trkpt lat="50.68341" lon="2.99504">
        <ele>23</ele>
        <time>2020-06-23T16:35:22Z</time>
      </trkpt>
      <trkpt lat="50.68341" lon="2.99504">
        <ele>23</ele>
        <time>2020-06-23T16:35:23Z</time>
      </trkpt>
      <trkpt lat="50.6834" lon="2.99508">
        <ele>23</ele>
        <time>2020-06-23T16:35:24Z</time>
      </trkpt>
      <trkpt lat="50.68339" lon="2.99512">
        <ele>23</ele>
        <time>2020-06-23T16:35:25Z</time>
      </trkpt>
      <trkpt lat="50.68339" lon="2.99512">
        <ele>23</ele>
        <time>2020-06-23T16:35:26Z</time>
      </trkpt>
      <trkpt lat="50.68339" lon="2.99513">
        <ele>23</ele>
        <time>2020-06-23T16:35:27Z</time>
      </trkpt>
      <trkpt lat="50.68339" lon="2.99513">
        <ele>23</ele>
        <time>2020-06-23T16:35:28Z</time>
      </trkpt>
      <trkpt lat="50.68338" lon="2.99514">
        <ele>23</ele>
        <time>2020-06-23T16:35:29Z</time>
      </trkpt>
      <trkpt lat="50.68338" lon="2.99515">
        <ele>23</ele>
        <time>2020-06-23T16:35:30Z</time>
      </trkpt>
      <trkpt lat="50.68338" lon="2.99515">
        <ele>23</ele>
        <time>2020-06-23T16:35:31Z</time>
      </trkpt>
      <trkpt lat="50.68338" lon="2.99516">
        <ele>23</ele>
        <time>2020-06-23T16:35:32Z</time>
      </trkpt>
      <trkpt lat="50.68338" lon="2.99516">
        <ele>23</ele>
        <time>2020-06-23T16:35:33Z</time>
      </trkpt>
      <trkpt lat="50.68338" lon="2.99517">
        <ele>23</ele>
        <time>2020-06-23T16:35:34Z</time>
      </trkpt>
      <trkpt lat="50.68338" lon="2.99517">
        <ele>23</ele>
        <time>2020-06-23T16:35:35Z</time>
      </trkpt>
      <trkpt lat="50.68338" lon="2.99518">
        <ele>23</ele>
        <time>2020-06-23T16:35:36Z</time>
      </trkpt>
      <trkpt lat="50.68338" lon="2.99519">
        <ele>23</ele>
        <time>2020-06-23T16:35:37Z</time>
      </trkpt>
      <trkpt lat="50.68338" lon="2.99519">
        <ele>23</ele>
        <time>2020-06-23T16:35:38Z</time>
      </trkpt>
      <trkpt lat="50.68338" lon="2.9952">
        <ele>23</ele>
        <time>2020-06-23T16:35:39Z</time>
      </trkpt>
      <trkpt lat="50.68338" lon="2.9952">
        <ele>23</ele>
        <time>2020-06-23T16:35:40Z</time>
      </trkpt>
      <trkpt lat="50.68338" lon="2.99521">
        <ele>23</ele>
        <time>2020-06-23T16:35:41Z</time>
      </trkpt>
      <trkpt lat="50.68338" lon="2.99522">
        <ele>23</ele>
        <time>2020-06-23T16:35:42Z</time>
      </trkpt>
      <trkpt lat="50.68337" lon="2.99522">
        <ele>23</ele>
        <time>2020-06-23T16:35:43Z</time>
      </trkpt>
      <trkpt lat="50.68337" lon="2.99523">
        <ele>23</ele>
        <time>2020-06-23T16:37:47Z</time>
      </trkpt>
      <trkpt lat="50.68337" lon="2.99523">
        <ele>23</ele>
        <time>2020-06-23T16:37:48Z</time>
      </trkpt>
      <trkpt lat="50.6834" lon="2.99527">
        <ele>23</ele>
        <time>2020-06-23T16:37:49Z</time>
      </trkpt>
      <trkpt lat="50.68342" lon="2.99531">
        <ele>23</ele>
        <time>2020-06-23T16:37:50Z</time>
      </trkpt>
      <trkpt lat="50.68345" lon="2.99536">
        <ele>23</ele>
        <time>2020-06-23T16:37:51Z</time>
      </trkpt>
      <trkpt lat="50.68349" lon="2.9954">
        <ele>23</ele>
        <time>2020-06-23T16:37:52Z</time>
      </trkpt>
      <trkpt lat="50.68352" lon="2.99545">
        <ele>23</ele>
        <time>2020-06-23T16:37:53Z</time>
      </trkpt>
      <trkpt lat="50.68356" lon="2.99551">
        <ele>23</ele>
        <time>2020-06-23T16:37:54Z</time>
      </trkpt>
      <trkpt lat="50.6836" lon="2.99555">
        <ele>23</ele>
        <time>2020-06-23T16:37:55Z</time>
      </trkpt>
      <trkpt lat="50.68364" lon="2.99558">
        <ele>23</ele>
        <time>2020-06-23T16:37:56Z</time>
      </trkpt>
      <trkpt lat="50.68369" lon="2.99561">
        <ele>23</ele>
        <time>2020-06-23T16:37:57Z</time>
      </trkpt>
      <trkpt lat="50.68373" lon="2.99562">
        <ele>23</ele>
        <time>2020-06-23T16:37:58Z</time>
      </trkpt>
      <trkpt lat="50.68378" lon="2.99565">
        <ele>23</ele>
        <time>2020-06-23T16:37:59Z</time>
      </trkpt>
      <trkpt lat="50.68382" lon="2.99566">
        <ele>23</ele>
        <time>2020-06-23T16:38:00Z</time>
      </trkpt>
      <trkpt lat="50.68387" lon="2.99568">
        <ele>23</ele>
        <time>2020-06-23T16:38:01Z</time>
      </trkpt>
      <trkpt lat="50.68391" lon="2.9957">
        <ele>23</ele>
        <time>2020-06-23T16:38:02Z</time>
      </trkpt>
      <trkpt lat="50.68395" lon="2.99574">
        <ele>23</ele>
        <time>2020-06-23T16:38:03Z</time>
      </trkpt>
      <trkpt lat="50.68399" lon="2.99578">
        <ele>23</ele>
        <time>2020-06-23T16:38:04Z</time>
      </trkpt>
      <trkpt lat="50.68402" lon="2.99581">
        <ele>23</ele>
        <time>2020-06-23T16:38:05Z</time>
      </trkpt>
      <trkpt lat="50.68405" lon="2.99586">
        <ele>23</ele>
        <time>2020-06-23T16:38:06Z</time>
      </trkpt>
      <trkpt lat="50.68409" lon="2.99589">
        <ele>23</ele>
        <time>2020-06-23T16:38:07Z</time>
      </trkpt>
      <trkpt lat="50.68414" lon="2.99593">
        <ele>23</ele>
        <time>2020-06-23T16:38:08Z</time>
      </trkpt>
      <trkpt lat="50.68418" lon="2.99597">
        <ele>23.1</ele>
        <time>2020-06-23T16:38:09Z</time>
      </trkpt>
      <trkpt lat="50.68423" lon="2.99601">
        <ele>23.1</ele>
        <time>2020-06-23T16:38:10Z</time>
      </trkpt>
      <trkpt lat="50.68427" lon="2.99606">
        <ele>23.1</ele>
        <time>2020-06-23T16:38:11Z</time>
      </trkpt>
      <trkpt lat="50.6843" lon="2.9961">
        <ele>23.1</ele>
        <time>2020-06-23T16:38:12Z</time>
      </trkpt>
      <trkpt lat="50.68433" lon="2.99613">
        <ele>23.1</ele>
        <time>2020-06-23T16:38:13Z</time>
      </trkpt>
      <trkpt lat="50.68436" lon="2.99617">
        <ele>23.1</ele>
        <time>2020-06-23T16:38:14Z</time>
      </trkpt>
      <trkpt lat="50.6844" lon="2.99622">
        <ele>23.1</ele>
        <time>2020-06-23T16:38:15Z</time>
      </trkpt>
      <trkpt lat="50.68444" lon="2.99628">
        <ele>23.1</ele>
        <time>2020-06-23T16:38:16Z</time>
      </trkpt>
      <trkpt lat="50.68449" lon="2.99633">
        <ele>23.1</ele>
        <time>2020-06-23T16:38:17Z</time>
      </trkpt>
      <trkpt lat="50.68453" lon="2.99637">
        <ele>23.1</ele>
        <time>2020-06-23T16:38:18Z</time>
      </trkpt>
      <trkpt lat="50.68458" lon="2.99641">
        <ele>23.1</ele>
        <time>2020-06-23T16:38:19Z</time>
      </trkpt>
      <trkpt lat="50.68462" lon="2.99646">
        <ele>23.2</ele>
        <time>2020-06-23T16:38:20Z</time>
      </trkpt>
      <trkpt lat="50.68467" lon="2.99651">
        <ele>23.2</ele>
        <time>2020-06-23T16:38:21Z</time>
      </trkpt>
      <trkpt lat="50.68471" lon="2.99656">
        <ele>23.2</ele>
        <time>2020-06-23T16:38:22Z</time>
      </trkpt>
      <trkpt lat="50.68475" lon="2.99661">
        <ele>23.2</ele>
        <time>2020-06-23T16:38:23Z</time>
      </trkpt>
      <trkpt lat="50.68479" lon="2.99665">
        <ele>23.2</ele>
        <time>2020-06-23T16:38:24Z</time>
      </trkpt>
      <trkpt lat="50.68484" lon="2.9967">
        <ele>23.2</ele>
        <time>2020-06-23T16:38:25Z</time>
      </trkpt>
      <trkpt lat="50.68488" lon="2.99675">
        <ele>23.3</ele>
        <time>2020-06-23T16:38:26Z</time>
      </trkpt>
      <trkpt lat="50.68493" lon="2.99681">
        <ele>23.3</ele>
        <time>2020-06-23T16:38:27Z</time>
      </trkpt>
      <trkpt lat="50.68497" lon="2.99687">
        <ele>23.4</ele>
        <time>2020-06-23T16:38:28Z</time>
      </trkpt>
      <trkpt lat="50.68502" lon="2.99693">
        <ele>23.4</ele>
        <time>2020-06-23T16:38:29Z</time>
      </trkpt>
      <trkpt lat="50.68505" lon="2.997">
        <ele>23.4</ele>
        <time>2020-06-23T16:38:30Z</time>
      </trkpt>
      <trkpt lat="50.6851" lon="2.99707">
        <ele>23.5</ele>
        <time>2020-06-23T16:38:31Z</time>
      </trkpt>
      <trkpt lat="50.68514" lon="2.99713">
        <ele>23.5</ele>
        <time>2020-06-23T16:38:32Z</time>
      </trkpt>
      <trkpt lat="50.68517" lon="2.99719">
        <ele>23.5</ele>
        <time>2020-06-23T16:38:33Z</time>
      </trkpt>
      <trkpt lat="50.6852" lon="2.99724">
        <ele>23.4</ele>
        <time>2020-06-23T16:38:34Z</time>
      </trkpt>
      <trkpt lat="50.68523" lon="2.99728">
        <ele>23.4</ele>
        <time>2020-06-23T16:38:35Z</time>
      </trkpt>
      <trkpt lat="50.68525" lon="2.99733">
        <ele>23.3</ele>
        <time>2020-06-23T16:38:36Z</time>
      </trkpt>
      <trkpt lat="50.68529" lon="2.99737">
        <ele>23.2</ele>
        <time>2020-06-23T16:38:37Z</time>
      </trkpt>
      <trkpt lat="50.68532" lon="2.99743">
        <ele>23.1</ele>
        <time>2020-06-23T16:38:38Z</time>
      </trkpt>
      <trkpt lat="50.68535" lon="2.99749">
        <ele>23</ele>
        <time>2020-06-23T16:38:39Z</time>
      </trkpt>
      <trkpt lat="50.68537" lon="2.99756">
        <ele>22.9</ele>
        <time>2020-06-23T16:38:40Z</time>
      </trkpt>
      <trkpt lat="50.6854" lon="2.99762">
        <ele>22.9</ele>
        <time>2020-06-23T16:38:41Z</time>
      </trkpt>
      <trkpt lat="50.68543" lon="2.99769">
        <ele>22.8</ele>
        <time>2020-06-23T16:38:42Z</time>
      </trkpt>
      <trkpt lat="50.68547" lon="2.99775">
        <ele>22.8</ele>
        <time>2020-06-23T16:38:43Z</time>
      </trkpt>
      <trkpt lat="50.6855" lon="2.99782">
        <ele>22.7</ele>
        <time>2020-06-23T16:38:44Z</time>
      </trkpt>
      <trkpt lat="50.68553" lon="2.99788">
        <ele>22.7</ele>
        <time>2020-06-23T16:38:45Z</time>
      </trkpt>
      <trkpt lat="50.68557" lon="2.99794">
        <ele>22.7</ele>
        <time>2020-06-23T16:38:46Z</time>
      </trkpt>
      <trkpt lat="50.6856" lon="2.998">
        <ele>22.6</ele>
        <time>2020-06-23T16:38:47Z</time>
      </trkpt>
      <trkpt lat="50.68563" lon="2.99806">
        <ele>22.6</ele>
        <time>2020-06-23T16:38:48Z</time>
      </trkpt>
      <trkpt lat="50.68566" lon="2.99812">
        <ele>22.6</ele>
        <time>2020-06-23T16:38:49Z</time>
      </trkpt>
      <trkpt lat="50.68569" lon="2.99817">
        <ele>22.6</ele>
        <time>2020-06-23T16:38:50Z</time>
      </trkpt>
      <trkpt lat="50.6857" lon="2.99823">
        <ele>22.6</ele>
        <time>2020-06-23T16:38:51Z</time>
      </trkpt>
      <trkpt lat="50.68573" lon="2.99826">
        <ele>22.6</ele>
        <time>2020-06-23T16:38:52Z</time>
      </trkpt>
      <trkpt lat="50.68573" lon="2.99827">
        <ele>22.6</ele>
        <time>2020-06-23T16:38:53Z</time>
      </trkpt>
      <trkpt lat="50.68572" lon="2.99831">
        <ele>22.6</ele>
        <time>2020-06-23T16:38:54Z</time>
      </trkpt>
      <trkpt lat="50.68572" lon="2.99833">
        <ele>22.8</ele>
        <time>2020-06-23T16:38:55Z</time>
      </trkpt>
      <trkpt lat="50.68572" lon="2.99834">
        <ele>22.8</ele>
        <time>2020-06-23T16:38:56Z</time>
      </trkpt>
      <trkpt lat="50.68569" lon="2.99839">
        <ele>23</ele>
        <time>2020-06-23T16:38:57Z</time>
      </trkpt>
      <trkpt lat="50.68568" lon="2.99842">
        <ele>23</ele>
        <time>2020-06-23T16:38:58Z</time>
      </trkpt>
      <trkpt lat="50.68566" lon="2.99848">
        <ele>23.2</ele>
        <time>2020-06-23T16:38:59Z</time>
      </trkpt>
      <trkpt lat="50.68564" lon="2.99855">
        <ele>23.3</ele>
        <time>2020-06-23T16:39:00Z</time>
      </trkpt>
      <trkpt lat="50.68561" lon="2.99861">
        <ele>23.4</ele>
        <time>2020-06-23T16:39:01Z</time>
      </trkpt>
      <trkpt lat="50.68558" lon="2.99867">
        <ele>23.5</ele>
        <time>2020-06-23T16:39:02Z</time>
      </trkpt>
      <trkpt lat="50.68555" lon="2.99874">
        <ele>23.7</ele>
        <time>2020-06-23T16:39:03Z</time>
      </trkpt>
      <trkpt lat="50.68552" lon="2.99881">
        <ele>23.9</ele>
        <time>2020-06-23T16:39:04Z</time>
      </trkpt>
      <trkpt lat="50.68548" lon="2.99888">
        <ele>24</ele>
        <time>2020-06-23T16:39:05Z</time>
      </trkpt>
      <trkpt lat="50.68544" lon="2.99896">
        <ele>24.2</ele>
        <time>2020-06-23T16:39:06Z</time>
      </trkpt>
      <trkpt lat="50.68541" lon="2.99903">
        <ele>24.4</ele>
        <time>2020-06-23T16:39:07Z</time>
      </trkpt>
      <trkpt lat="50.68538" lon="2.99909">
        <ele>24.5</ele>
        <time>2020-06-23T16:39:08Z</time>
      </trkpt>
      <trkpt lat="50.68536" lon="2.99916">
        <ele>24.6</ele>
        <time>2020-06-23T16:39:09Z</time>
      </trkpt>
      <trkpt lat="50.68533" lon="2.99922">
        <ele>24.8</ele>
        <time>2020-06-23T16:39:10Z</time>
      </trkpt>
      <trkpt lat="50.6853" lon="2.9993">
        <ele>24.9</ele>
        <time>2020-06-23T16:39:11Z</time>
      </trkpt>
      <trkpt lat="50.68527" lon="2.99937">
        <ele>25.1</ele>
        <time>2020-06-23T16:39:12Z</time>
      </trkpt>
      <trkpt lat="50.68525" lon="2.99943">
        <ele>25.2</ele>
        <time>2020-06-23T16:39:13Z</time>
      </trkpt>
      <trkpt lat="50.68521" lon="2.99949">
        <ele>25.3</ele>
        <time>2020-06-23T16:39:14Z</time>
      </trkpt>
      <trkpt lat="50.68519" lon="2.99956">
        <ele>25.4</ele>
        <time>2020-06-23T16:39:15Z</time>
      </trkpt>
      <trkpt lat="50.68517" lon="2.99962">
        <ele>25.5</ele>
        <time>2020-06-23T16:39:16Z</time>
      </trkpt>
      <trkpt lat="50.68514" lon="2.99968">
        <ele>25.6</ele>
        <time>2020-06-23T16:39:17Z</time>
      </trkpt>
      <trkpt lat="50.68511" lon="2.99974">
        <ele>25.7</ele>
        <time>2020-06-23T16:39:18Z</time>
      </trkpt>
      <trkpt lat="50.68508" lon="2.9998">
        <ele>25.9</ele>
        <time>2020-06-23T16:39:19Z</time>
      </trkpt>
      <trkpt lat="50.68504" lon="2.99986">
        <ele>26</ele>
        <time>2020-06-23T16:39:20Z</time>
      </trkpt>
      <trkpt lat="50.68501" lon="2.99993">
        <ele>26</ele>
        <time>2020-06-23T16:39:21Z</time>
      </trkpt>
      <trkpt lat="50.68497" lon="2.99999">
        <ele>26.1</ele>
        <time>2020-06-23T16:39:22Z</time>
      </trkpt>
      <trkpt lat="50.68493" lon="3.00007">
        <ele>26.1</ele>
        <time>2020-06-23T16:39:23Z</time>
      </trkpt>
      <trkpt lat="50.6849" lon="3.00014">
        <ele>26.2</ele>
        <time>2020-06-23T16:39:24Z</time>
      </trkpt>
      <trkpt lat="50.68487" lon="3.0002">
        <ele>26.2</ele>
        <time>2020-06-23T16:39:25Z</time>
      </trkpt>
      <trkpt lat="50.68483" lon="3.00028">
        <ele>26.2</ele>
        <time>2020-06-23T16:39:26Z</time>
      </trkpt>
      <trkpt lat="50.6848" lon="3.00036">
        <ele>26.3</ele>
        <time>2020-06-23T16:39:27Z</time>
      </trkpt>
      <trkpt lat="50.68477" lon="3.00044">
        <ele>26.4</ele>
        <time>2020-06-23T16:39:28Z</time>
      </trkpt>
      <trkpt lat="50.68474" lon="3.00051">
        <ele>26.4</ele>
        <time>2020-06-23T16:39:29Z</time>
      </trkpt>
      <trkpt lat="50.68471" lon="3.00057">
        <ele>26.5</ele>
        <time>2020-06-23T16:39:30Z</time>
      </trkpt>
      <trkpt lat="50.68468" lon="3.00064">
        <ele>26.5</ele>
        <time>2020-06-23T16:39:31Z</time>
      </trkpt>
      <trkpt lat="50.68465" lon="3.00069">
        <ele>26.6</ele>
        <time>2020-06-23T16:39:32Z</time>
      </trkpt>
      <trkpt lat="50.68462" lon="3.00074">
        <ele>26.7</ele>
        <time>2020-06-23T16:39:33Z</time>
      </trkpt>
      <trkpt lat="50.68458" lon="3.0008">
        <ele>26.8</ele>
        <time>2020-06-23T16:39:34Z</time>
      </trkpt>
      <trkpt lat="50.68455" lon="3.00082">
        <ele>26.8</ele>
        <time>2020-06-23T16:39:35Z</time>
      </trkpt>
      <trkpt lat="50.68452" lon="3.00085">
        <ele>27.6</ele>
        <time>2020-06-23T16:39:36Z</time>
      </trkpt>
      <trkpt lat="50.68451" lon="3.00086">
        <ele>27.5</ele>
        <time>2020-06-23T16:39:37Z</time>
      </trkpt>
      <trkpt lat="50.68448" lon="3.00085">
        <ele>27.3</ele>
        <time>2020-06-23T16:39:38Z</time>
      </trkpt>
      <trkpt lat="50.68446" lon="3.00086">
        <ele>27.3</ele>
        <time>2020-06-23T16:39:39Z</time>
      </trkpt>
      <trkpt lat="50.68444" lon="3.00088">
        <ele>27.1</ele>
        <time>2020-06-23T16:39:40Z</time>
      </trkpt>
      <trkpt lat="50.6844" lon="3.0009">
        <ele>26.9</ele>
        <time>2020-06-23T16:39:41Z</time>
      </trkpt>
      <trkpt lat="50.68437" lon="3.00092">
        <ele>26.7</ele>
        <time>2020-06-23T16:39:42Z</time>
      </trkpt>
      <trkpt lat="50.68434" lon="3.00098">
        <ele>26.5</ele>
        <time>2020-06-23T16:39:43Z</time>
      </trkpt>
      <trkpt lat="50.68434" lon="3.00104">
        <ele>26.5</ele>
        <time>2020-06-23T16:39:44Z</time>
      </trkpt>
      <trkpt lat="50.68432" lon="3.00112">
        <ele>26.5</ele>
        <time>2020-06-23T16:39:45Z</time>
      </trkpt>
      <trkpt lat="50.68429" lon="3.0012">
        <ele>26.5</ele>
        <time>2020-06-23T16:39:46Z</time>
      </trkpt>
      <trkpt lat="50.68425" lon="3.00126">
        <ele>26.5</ele>
        <time>2020-06-23T16:39:47Z</time>
      </trkpt>
      <trkpt lat="50.68422" lon="3.00132">
        <ele>26.5</ele>
        <time>2020-06-23T16:39:48Z</time>
      </trkpt>
      <trkpt lat="50.68418" lon="3.0014">
        <ele>26.6</ele>
        <time>2020-06-23T16:39:49Z</time>
      </trkpt>
      <trkpt lat="50.68414" lon="3.00147">
        <ele>26.6</ele>
        <time>2020-06-23T16:39:50Z</time>
      </trkpt>
      <trkpt lat="50.68409" lon="3.00154">
        <ele>26.7</ele>
        <time>2020-06-23T16:39:51Z</time>
      </trkpt>
      <trkpt lat="50.68405" lon="3.00161">
        <ele>26.7</ele>
        <time>2020-06-23T16:39:52Z</time>
      </trkpt>
      <trkpt lat="50.68401" lon="3.00168">
        <ele>26.7</ele>
        <time>2020-06-23T16:39:53Z</time>
      </trkpt>
      <trkpt lat="50.68396" lon="3.00175">
        <ele>26.7</ele>
        <time>2020-06-23T16:39:54Z</time>
      </trkpt>
      <trkpt lat="50.68393" lon="3.00183">
        <ele>26.7</ele>
        <time>2020-06-23T16:39:55Z</time>
      </trkpt>
      <trkpt lat="50.68388" lon="3.00191">
        <ele>26.7</ele>
        <time>2020-06-23T16:39:56Z</time>
      </trkpt>
      <trkpt lat="50.68384" lon="3.00199">
        <ele>26.7</ele>
        <time>2020-06-23T16:39:57Z</time>
      </trkpt>
      <trkpt lat="50.68379" lon="3.00206">
        <ele>26.7</ele>
        <time>2020-06-23T16:39:58Z</time>
      </trkpt>
      <trkpt lat="50.68375" lon="3.00213">
        <ele>26.7</ele>
        <time>2020-06-23T16:39:59Z</time>
      </trkpt>
      <trkpt lat="50.68371" lon="3.0022">
        <ele>26.7</ele>
        <time>2020-06-23T16:40:00Z</time>
      </trkpt>
      <trkpt lat="50.68367" lon="3.00226">
        <ele>26.7</ele>
        <time>2020-06-23T16:40:01Z</time>
      </trkpt>
      <trkpt lat="50.68363" lon="3.00234">
        <ele>26.7</ele>
        <time>2020-06-23T16:40:02Z</time>
      </trkpt>
      <trkpt lat="50.6836" lon="3.0024">
        <ele>26.7</ele>
        <time>2020-06-23T16:40:03Z</time>
      </trkpt>
      <trkpt lat="50.68354" lon="3.00247">
        <ele>26.7</ele>
        <time>2020-06-23T16:40:04Z</time>
      </trkpt>
      <trkpt lat="50.68349" lon="3.00257">
        <ele>26.7</ele>
        <time>2020-06-23T16:40:05Z</time>
      </trkpt>
      <trkpt lat="50.68344" lon="3.00267">
        <ele>26.7</ele>
        <time>2020-06-23T16:40:06Z</time>
      </trkpt>
      <trkpt lat="50.68339" lon="3.00275">
        <ele>26.7</ele>
        <time>2020-06-23T16:40:07Z</time>
      </trkpt>
      <trkpt lat="50.68334" lon="3.00283">
        <ele>26.8</ele>
        <time>2020-06-23T16:40:08Z</time>
      </trkpt>
      <trkpt lat="50.6833" lon="3.0029">
        <ele>26.8</ele>
        <time>2020-06-23T16:40:09Z</time>
      </trkpt>
      <trkpt lat="50.68325" lon="3.00298">
        <ele>26.8</ele>
        <time>2020-06-23T16:40:10Z</time>
      </trkpt>
      <trkpt lat="50.68321" lon="3.00306">
        <ele>26.9</ele>
        <time>2020-06-23T16:40:11Z</time>
      </trkpt>
      <trkpt lat="50.68316" lon="3.00313">
        <ele>26.9</ele>
        <time>2020-06-23T16:40:12Z</time>
      </trkpt>
      <trkpt lat="50.68312" lon="3.0032">
        <ele>26.9</ele>
        <time>2020-06-23T16:40:13Z</time>
      </trkpt>
      <trkpt lat="50.68307" lon="3.00327">
        <ele>27</ele>
        <time>2020-06-23T16:40:14Z</time>
      </trkpt>
      <trkpt lat="50.68303" lon="3.00334">
        <ele>27</ele>
        <time>2020-06-23T16:40:15Z</time>
      </trkpt>
      <trkpt lat="50.68299" lon="3.00342">
        <ele>27.1</ele>
        <time>2020-06-23T16:40:16Z</time>
      </trkpt>
      <trkpt lat="50.68294" lon="3.00349">
        <ele>27.1</ele>
        <time>2020-06-23T16:40:17Z</time>
      </trkpt>
      <trkpt lat="50.6829" lon="3.00357">
        <ele>27.2</ele>
        <time>2020-06-23T16:40:18Z</time>
      </trkpt>
      <trkpt lat="50.68285" lon="3.00363">
        <ele>27.2</ele>
        <time>2020-06-23T16:40:19Z</time>
      </trkpt>
      <trkpt lat="50.6828" lon="3.0037">
        <ele>27.2</ele>
        <time>2020-06-23T16:40:20Z</time>
      </trkpt>
      <trkpt lat="50.68275" lon="3.00377">
        <ele>27.3</ele>
        <time>2020-06-23T16:40:21Z</time>
      </trkpt>
      <trkpt lat="50.68271" lon="3.00385">
        <ele>27.3</ele>
        <time>2020-06-23T16:40:22Z</time>
      </trkpt>
      <trkpt lat="50.68267" lon="3.00392">
        <ele>27.4</ele>
        <time>2020-06-23T16:40:23Z</time>
      </trkpt>
      <trkpt lat="50.68262" lon="3.004">
        <ele>27.4</ele>
        <time>2020-06-23T16:40:24Z</time>
      </trkpt>
      <trkpt lat="50.68258" lon="3.00407">
        <ele>27.4</ele>
        <time>2020-06-23T16:40:25Z</time>
      </trkpt>
      <trkpt lat="50.68253" lon="3.00415">
        <ele>27.4</ele>
        <time>2020-06-23T16:40:26Z</time>
      </trkpt>
      <trkpt lat="50.68249" lon="3.00422">
        <ele>27.4</ele>
        <time>2020-06-23T16:40:27Z</time>
      </trkpt>
      <trkpt lat="50.68244" lon="3.00429">
        <ele>27.4</ele>
        <time>2020-06-23T16:40:28Z</time>
      </trkpt>
      <trkpt lat="50.68239" lon="3.00437">
        <ele>27.5</ele>
        <time>2020-06-23T16:40:29Z</time>
      </trkpt>
      <trkpt lat="50.68235" lon="3.00445">
        <ele>27.5</ele>
        <time>2020-06-23T16:40:30Z</time>
      </trkpt>
      <trkpt lat="50.6823" lon="3.00453">
        <ele>27.6</ele>
        <time>2020-06-23T16:40:31Z</time>
      </trkpt>
      <trkpt lat="50.68226" lon="3.00462">
        <ele>27.6</ele>
        <time>2020-06-23T16:40:32Z</time>
      </trkpt>
      <trkpt lat="50.68221" lon="3.0047">
        <ele>27.7</ele>
        <time>2020-06-23T16:40:33Z</time>
      </trkpt>
      <trkpt lat="50.68217" lon="3.00478">
        <ele>27.7</ele>
        <time>2020-06-23T16:40:34Z</time>
      </trkpt>
      <trkpt lat="50.68212" lon="3.00486">
        <ele>27.7</ele>
        <time>2020-06-23T16:40:35Z</time>
      </trkpt>
      <trkpt lat="50.68207" lon="3.00494">
        <ele>27.6</ele>
        <time>2020-06-23T16:40:36Z</time>
      </trkpt>
      <trkpt lat="50.68203" lon="3.00502">
        <ele>27.6</ele>
        <time>2020-06-23T16:40:37Z</time>
      </trkpt>
      <trkpt lat="50.68198" lon="3.0051">
        <ele>27.6</ele>
        <time>2020-06-23T16:40:38Z</time>
      </trkpt>
      <trkpt lat="50.68194" lon="3.00518">
        <ele>27.5</ele>
        <time>2020-06-23T16:40:39Z</time>
      </trkpt>
      <trkpt lat="50.68189" lon="3.00526">
        <ele>27.5</ele>
        <time>2020-06-23T16:40:40Z</time>
      </trkpt>
      <trkpt lat="50.68185" lon="3.00534">
        <ele>27.5</ele>
        <time>2020-06-23T16:40:41Z</time>
      </trkpt>
      <trkpt lat="50.6818" lon="3.00541">
        <ele>27.4</ele>
        <time>2020-06-23T16:40:42Z</time>
      </trkpt>
      <trkpt lat="50.68175" lon="3.00549">
        <ele>27.4</ele>
        <time>2020-06-23T16:40:43Z</time>
      </trkpt>
      <trkpt lat="50.6817" lon="3.00557">
        <ele>27.4</ele>
        <time>2020-06-23T16:40:44Z</time>
      </trkpt>
      <trkpt lat="50.68165" lon="3.00565">
        <ele>27.4</ele>
        <time>2020-06-23T16:40:45Z</time>
      </trkpt>
      <trkpt lat="50.6816" lon="3.00573">
        <ele>27.4</ele>
        <time>2020-06-23T16:40:46Z</time>
      </trkpt>
      <trkpt lat="50.68155" lon="3.00581">
        <ele>27.4</ele>
        <time>2020-06-23T16:40:47Z</time>
      </trkpt>
      <trkpt lat="50.68151" lon="3.00589">
        <ele>27.4</ele>
        <time>2020-06-23T16:40:48Z</time>
      </trkpt>
      <trkpt lat="50.68146" lon="3.00597">
        <ele>27.4</ele>
        <time>2020-06-23T16:40:49Z</time>
      </trkpt>
      <trkpt lat="50.68142" lon="3.00606">
        <ele>27.4</ele>
        <time>2020-06-23T16:40:50Z</time>
      </trkpt>
      <trkpt lat="50.68137" lon="3.00614">
        <ele>27.4</ele>
        <time>2020-06-23T16:40:51Z</time>
      </trkpt>
      <trkpt lat="50.68133" lon="3.00622">
        <ele>27.4</ele>
        <time>2020-06-23T16:40:52Z</time>
      </trkpt>
      <trkpt lat="50.68128" lon="3.00629">
        <ele>27.4</ele>
        <time>2020-06-23T16:40:53Z</time>
      </trkpt>
      <trkpt lat="50.68123" lon="3.00637">
        <ele>27.4</ele>
        <time>2020-06-23T16:40:54Z</time>
      </trkpt>
      <trkpt lat="50.68118" lon="3.00645">
        <ele>27.4</ele>
        <time>2020-06-23T16:40:55Z</time>
      </trkpt>
      <trkpt lat="50.68114" lon="3.00654">
        <ele>27.4</ele>
        <time>2020-06-23T16:40:56Z</time>
      </trkpt>
      <trkpt lat="50.6811" lon="3.00662">
        <ele>27.4</ele>
        <time>2020-06-23T16:40:57Z</time>
      </trkpt>
      <trkpt lat="50.68105" lon="3.00671">
        <ele>27.4</ele>
        <time>2020-06-23T16:40:58Z</time>
      </trkpt>
      <trkpt lat="50.68101" lon="3.00679">
        <ele>27.4</ele>
        <time>2020-06-23T16:40:59Z</time>
      </trkpt>
      <trkpt lat="50.68097" lon="3.00687">
        <ele>27.4</ele>
        <time>2020-06-23T16:41:00Z</time>
      </trkpt>
      <trkpt lat="50.68092" lon="3.00696">
        <ele>27.4</ele>
        <time>2020-06-23T16:41:01Z</time>
      </trkpt>
      <trkpt lat="50.68087" lon="3.00704">
        <ele>27.5</ele>
        <time>2020-06-23T16:41:02Z</time>
      </trkpt>
      <trkpt lat="50.68082" lon="3.00711">
        <ele>27.4</ele>
        <time>2020-06-23T16:41:03Z</time>
      </trkpt>
      <trkpt lat="50.68078" lon="3.00719">
        <ele>27.4</ele>
        <time>2020-06-23T16:41:04Z</time>
      </trkpt>
      <trkpt lat="50.68073" lon="3.00727">
        <ele>27.4</ele>
        <time>2020-06-23T16:41:05Z</time>
      </trkpt>
      <trkpt lat="50.68068" lon="3.00735">
        <ele>27.4</ele>
        <time>2020-06-23T16:41:06Z</time>
      </trkpt>
      <trkpt lat="50.68064" lon="3.00743">
        <ele>27.4</ele>
        <time>2020-06-23T16:41:07Z</time>
      </trkpt>
      <trkpt lat="50.68059" lon="3.00752">
        <ele>27.4</ele>
        <time>2020-06-23T16:41:08Z</time>
      </trkpt>
      <trkpt lat="50.68055" lon="3.0076">
        <ele>27.3</ele>
        <time>2020-06-23T16:41:09Z</time>
      </trkpt>
      <trkpt lat="50.6805" lon="3.00769">
        <ele>27.3</ele>
        <time>2020-06-23T16:41:10Z</time>
      </trkpt>
      <trkpt lat="50.68046" lon="3.00777">
        <ele>27.3</ele>
        <time>2020-06-23T16:41:11Z</time>
      </trkpt>
      <trkpt lat="50.68041" lon="3.00786">
        <ele>27.3</ele>
        <time>2020-06-23T16:41:12Z</time>
      </trkpt>
      <trkpt lat="50.68036" lon="3.00794">
        <ele>27.3</ele>
        <time>2020-06-23T16:41:13Z</time>
      </trkpt>
      <trkpt lat="50.68031" lon="3.00803">
        <ele>27.3</ele>
        <time>2020-06-23T16:41:14Z</time>
      </trkpt>
      <trkpt lat="50.68027" lon="3.00811">
        <ele>27.2</ele>
        <time>2020-06-23T16:41:15Z</time>
      </trkpt>
      <trkpt lat="50.68022" lon="3.0082">
        <ele>27.2</ele>
        <time>2020-06-23T16:41:16Z</time>
      </trkpt>
      <trkpt lat="50.68017" lon="3.00829">
        <ele>27.1</ele>
        <time>2020-06-23T16:41:17Z</time>
      </trkpt>
      <trkpt lat="50.68013" lon="3.00838">
        <ele>27</ele>
        <time>2020-06-23T16:41:18Z</time>
      </trkpt>
      <trkpt lat="50.68008" lon="3.00847">
        <ele>26.9</ele>
        <time>2020-06-23T16:41:19Z</time>
      </trkpt>
      <trkpt lat="50.68003" lon="3.00855">
        <ele>26.9</ele>
        <time>2020-06-23T16:41:20Z</time>
      </trkpt>
      <trkpt lat="50.67998" lon="3.00864">
        <ele>26.8</ele>
        <time>2020-06-23T16:41:21Z</time>
      </trkpt>
      <trkpt lat="50.67993" lon="3.00872">
        <ele>26.8</ele>
        <time>2020-06-23T16:41:22Z</time>
      </trkpt>
      <trkpt lat="50.67988" lon="3.00881">
        <ele>26.7</ele>
        <time>2020-06-23T16:41:23Z</time>
      </trkpt>
      <trkpt lat="50.67984" lon="3.00889">
        <ele>26.7</ele>
        <time>2020-06-23T16:41:24Z</time>
      </trkpt>
      <trkpt lat="50.67979" lon="3.00897">
        <ele>26.7</ele>
        <time>2020-06-23T16:41:25Z</time>
      </trkpt>
      <trkpt lat="50.67974" lon="3.00905">
        <ele>26.6</ele>
        <time>2020-06-23T16:41:26Z</time>
      </trkpt>
      <trkpt lat="50.67969" lon="3.00913">
        <ele>26.6</ele>
        <time>2020-06-23T16:41:27Z</time>
      </trkpt>
      <trkpt lat="50.67964" lon="3.00921">
        <ele>26.5</ele>
        <time>2020-06-23T16:41:28Z</time>
      </trkpt>
      <trkpt lat="50.6796" lon="3.0093">
        <ele>26.5</ele>
        <time>2020-06-23T16:41:29Z</time>
      </trkpt>
      <trkpt lat="50.67955" lon="3.00938">
        <ele>26.4</ele>
        <time>2020-06-23T16:41:30Z</time>
      </trkpt>
      <trkpt lat="50.67951" lon="3.00947">
        <ele>26.3</ele>
        <time>2020-06-23T16:41:31Z</time>
      </trkpt>
      <trkpt lat="50.67946" lon="3.00955">
        <ele>26.3</ele>
        <time>2020-06-23T16:41:32Z</time>
      </trkpt>
      <trkpt lat="50.67941" lon="3.00962">
        <ele>26.2</ele>
        <time>2020-06-23T16:41:33Z</time>
      </trkpt>
      <trkpt lat="50.67936" lon="3.0097">
        <ele>26.1</ele>
        <time>2020-06-23T16:41:34Z</time>
      </trkpt>
      <trkpt lat="50.67931" lon="3.00978">
        <ele>26</ele>
        <time>2020-06-23T16:41:35Z</time>
      </trkpt>
      <trkpt lat="50.67926" lon="3.00985">
        <ele>25.9</ele>
        <time>2020-06-23T16:41:36Z</time>
      </trkpt>
      <trkpt lat="50.67921" lon="3.00993">
        <ele>25.8</ele>
        <time>2020-06-23T16:41:37Z</time>
      </trkpt>
      <trkpt lat="50.67917" lon="3.01002">
        <ele>25.8</ele>
        <time>2020-06-23T16:41:38Z</time>
      </trkpt>
      <trkpt lat="50.67912" lon="3.0101">
        <ele>25.8</ele>
        <time>2020-06-23T16:41:39Z</time>
      </trkpt>
      <trkpt lat="50.67907" lon="3.01018">
        <ele>25.8</ele>
        <time>2020-06-23T16:41:40Z</time>
      </trkpt>
      <trkpt lat="50.67903" lon="3.01026">
        <ele>25.8</ele>
        <time>2020-06-23T16:41:41Z</time>
      </trkpt>
      <trkpt lat="50.67898" lon="3.01034">
        <ele>25.7</ele>
        <time>2020-06-23T16:41:42Z</time>
      </trkpt>
      <trkpt lat="50.67894" lon="3.01043">
        <ele>25.7</ele>
        <time>2020-06-23T16:41:43Z</time>
      </trkpt>
      <trkpt lat="50.67889" lon="3.0105">
        <ele>25.7</ele>
        <time>2020-06-23T16:41:44Z</time>
      </trkpt>
      <trkpt lat="50.67885" lon="3.01058">
        <ele>25.6</ele>
        <time>2020-06-23T16:41:45Z</time>
      </trkpt>
      <trkpt lat="50.6788" lon="3.01067">
        <ele>25.6</ele>
        <time>2020-06-23T16:41:46Z</time>
      </trkpt>
      <trkpt lat="50.67876" lon="3.01076">
        <ele>25.5</ele>
        <time>2020-06-23T16:41:47Z</time>
      </trkpt>
      <trkpt lat="50.67871" lon="3.01084">
        <ele>25.5</ele>
        <time>2020-06-23T16:41:48Z</time>
      </trkpt>
      <trkpt lat="50.67867" lon="3.01092">
        <ele>25.5</ele>
        <time>2020-06-23T16:41:49Z</time>
      </trkpt>
      <trkpt lat="50.67861" lon="3.011">
        <ele>25.4</ele>
        <time>2020-06-23T16:41:50Z</time>
      </trkpt>
      <trkpt lat="50.67857" lon="3.01108">
        <ele>25.4</ele>
        <time>2020-06-23T16:41:51Z</time>
      </trkpt>
      <trkpt lat="50.67852" lon="3.01117">
        <ele>25.4</ele>
        <time>2020-06-23T16:41:52Z</time>
      </trkpt>
      <trkpt lat="50.67847" lon="3.01125">
        <ele>25.4</ele>
        <time>2020-06-23T16:41:53Z</time>
      </trkpt>
      <trkpt lat="50.67842" lon="3.01133">
        <ele>25.4</ele>
        <time>2020-06-23T16:41:54Z</time>
      </trkpt>
      <trkpt lat="50.67838" lon="3.01141">
        <ele>25.3</ele>
        <time>2020-06-23T16:41:55Z</time>
      </trkpt>
      <trkpt lat="50.67833" lon="3.0115">
        <ele>25.3</ele>
        <time>2020-06-23T16:41:56Z</time>
      </trkpt>
      <trkpt lat="50.67829" lon="3.01158">
        <ele>25.3</ele>
        <time>2020-06-23T16:41:57Z</time>
      </trkpt>
      <trkpt lat="50.67825" lon="3.01167">
        <ele>25.3</ele>
        <time>2020-06-23T16:41:58Z</time>
      </trkpt>
      <trkpt lat="50.67821" lon="3.01175">
        <ele>25.4</ele>
        <time>2020-06-23T16:41:59Z</time>
      </trkpt>
      <trkpt lat="50.67816" lon="3.01183">
        <ele>25.4</ele>
        <time>2020-06-23T16:42:00Z</time>
      </trkpt>
      <trkpt lat="50.67812" lon="3.01191">
        <ele>25.4</ele>
        <time>2020-06-23T16:42:01Z</time>
      </trkpt>
      <trkpt lat="50.67807" lon="3.01199">
        <ele>25.4</ele>
        <time>2020-06-23T16:42:02Z</time>
      </trkpt>
      <trkpt lat="50.67803" lon="3.01207">
        <ele>25.3</ele>
        <time>2020-06-23T16:42:03Z</time>
      </trkpt>
      <trkpt lat="50.67798" lon="3.01215">
        <ele>25.2</ele>
        <time>2020-06-23T16:42:04Z</time>
      </trkpt>
      <trkpt lat="50.67793" lon="3.01222">
        <ele>25.2</ele>
        <time>2020-06-23T16:42:05Z</time>
      </trkpt>
      <trkpt lat="50.67789" lon="3.0123">
        <ele>25.1</ele>
        <time>2020-06-23T16:42:06Z</time>
      </trkpt>
      <trkpt lat="50.67784" lon="3.01238">
        <ele>25.1</ele>
        <time>2020-06-23T16:42:07Z</time>
      </trkpt>
      <trkpt lat="50.6778" lon="3.01246">
        <ele>25</ele>
        <time>2020-06-23T16:42:08Z</time>
      </trkpt>
      <trkpt lat="50.67776" lon="3.01254">
        <ele>25</ele>
        <time>2020-06-23T16:42:09Z</time>
      </trkpt>
      <trkpt lat="50.67771" lon="3.01262">
        <ele>25</ele>
        <time>2020-06-23T16:42:10Z</time>
      </trkpt>
      <trkpt lat="50.67767" lon="3.01271">
        <ele>25.1</ele>
        <time>2020-06-23T16:42:11Z</time>
      </trkpt>
      <trkpt lat="50.67762" lon="3.01279">
        <ele>25.1</ele>
        <time>2020-06-23T16:42:12Z</time>
      </trkpt>
      <trkpt lat="50.67758" lon="3.01286">
        <ele>25.1</ele>
        <time>2020-06-23T16:42:13Z</time>
      </trkpt>
      <trkpt lat="50.67753" lon="3.01294">
        <ele>25.1</ele>
        <time>2020-06-23T16:42:14Z</time>
      </trkpt>
      <trkpt lat="50.67749" lon="3.01302">
        <ele>25.2</ele>
        <time>2020-06-23T16:42:15Z</time>
      </trkpt>
      <trkpt lat="50.67744" lon="3.01308">
        <ele>25.2</ele>
        <time>2020-06-23T16:42:16Z</time>
      </trkpt>
      <trkpt lat="50.67739" lon="3.01315">
        <ele>25.1</ele>
        <time>2020-06-23T16:42:17Z</time>
      </trkpt>
      <trkpt lat="50.67734" lon="3.01322">
        <ele>25.1</ele>
        <time>2020-06-23T16:42:18Z</time>
      </trkpt>
      <trkpt lat="50.6773" lon="3.0133">
        <ele>25.1</ele>
        <time>2020-06-23T16:42:19Z</time>
      </trkpt>
      <trkpt lat="50.67725" lon="3.01338">
        <ele>25.1</ele>
        <time>2020-06-23T16:42:20Z</time>
      </trkpt>
      <trkpt lat="50.6772" lon="3.01344">
        <ele>25.1</ele>
        <time>2020-06-23T16:42:21Z</time>
      </trkpt>
      <trkpt lat="50.67714" lon="3.01351">
        <ele>25</ele>
        <time>2020-06-23T16:42:22Z</time>
      </trkpt>
      <trkpt lat="50.67709" lon="3.01357">
        <ele>25</ele>
        <time>2020-06-23T16:42:23Z</time>
      </trkpt>
      <trkpt lat="50.67703" lon="3.01364">
        <ele>24.9</ele>
        <time>2020-06-23T16:42:24Z</time>
      </trkpt>
      <trkpt lat="50.67698" lon="3.01371">
        <ele>24.9</ele>
        <time>2020-06-23T16:42:25Z</time>
      </trkpt>
      <trkpt lat="50.67693" lon="3.01379">
        <ele>24.9</ele>
        <time>2020-06-23T16:42:26Z</time>
      </trkpt>
      <trkpt lat="50.67688" lon="3.01387">
        <ele>24.9</ele>
        <time>2020-06-23T16:42:27Z</time>
      </trkpt>
      <trkpt lat="50.67683" lon="3.01394">
        <ele>24.9</ele>
        <time>2020-06-23T16:42:28Z</time>
      </trkpt>
      <trkpt lat="50.67678" lon="3.01401">
        <ele>25</ele>
        <time>2020-06-23T16:42:29Z</time>
      </trkpt>
      <trkpt lat="50.67674" lon="3.01406">
        <ele>24.9</ele>
        <time>2020-06-23T16:42:30Z</time>
      </trkpt>
      <trkpt lat="50.67669" lon="3.01411">
        <ele>24.9</ele>
        <time>2020-06-23T16:42:31Z</time>
      </trkpt>
      <trkpt lat="50.67665" lon="3.01416">
        <ele>24.8</ele>
        <time>2020-06-23T16:42:32Z</time>
      </trkpt>
      <trkpt lat="50.67661" lon="3.01422">
        <ele>24.7</ele>
        <time>2020-06-23T16:42:33Z</time>
      </trkpt>
      <trkpt lat="50.67657" lon="3.0143">
        <ele>24.7</ele>
        <time>2020-06-23T16:42:34Z</time>
      </trkpt>
      <trkpt lat="50.67652" lon="3.01437">
        <ele>24.6</ele>
        <time>2020-06-23T16:42:35Z</time>
      </trkpt>
      <trkpt lat="50.67648" lon="3.01445">
        <ele>24.6</ele>
        <time>2020-06-23T16:42:36Z</time>
      </trkpt>
      <trkpt lat="50.67643" lon="3.01452">
        <ele>24.4</ele>
        <time>2020-06-23T16:42:37Z</time>
      </trkpt>
      <trkpt lat="50.67638" lon="3.0146">
        <ele>24.3</ele>
        <time>2020-06-23T16:42:38Z</time>
      </trkpt>
      <trkpt lat="50.67633" lon="3.01468">
        <ele>24.1</ele>
        <time>2020-06-23T16:42:39Z</time>
      </trkpt>
      <trkpt lat="50.67627" lon="3.01476">
        <ele>24</ele>
        <time>2020-06-23T16:42:40Z</time>
      </trkpt>
      <trkpt lat="50.67622" lon="3.01484">
        <ele>23.8</ele>
        <time>2020-06-23T16:42:41Z</time>
      </trkpt>
      <trkpt lat="50.67616" lon="3.01492">
        <ele>23.8</ele>
        <time>2020-06-23T16:42:42Z</time>
      </trkpt>
      <trkpt lat="50.6761" lon="3.015">
        <ele>23.7</ele>
        <time>2020-06-23T16:42:43Z</time>
      </trkpt>
      <trkpt lat="50.67604" lon="3.01507">
        <ele>23.7</ele>
        <time>2020-06-23T16:42:44Z</time>
      </trkpt>
      <trkpt lat="50.67598" lon="3.01515">
        <ele>23.6</ele>
        <time>2020-06-23T16:42:45Z</time>
      </trkpt>
      <trkpt lat="50.67591" lon="3.01522">
        <ele>23.5</ele>
        <time>2020-06-23T16:42:46Z</time>
      </trkpt>
      <trkpt lat="50.67585" lon="3.0153">
        <ele>23.4</ele>
        <time>2020-06-23T16:42:47Z</time>
      </trkpt>
      <trkpt lat="50.67579" lon="3.01537">
        <ele>23.3</ele>
        <time>2020-06-23T16:42:48Z</time>
      </trkpt>
      <trkpt lat="50.67573" lon="3.01545">
        <ele>23.2</ele>
        <time>2020-06-23T16:42:49Z</time>
      </trkpt>
      <trkpt lat="50.67567" lon="3.01552">
        <ele>23.1</ele>
        <time>2020-06-23T16:42:50Z</time>
      </trkpt>
      <trkpt lat="50.67561" lon="3.0156">
        <ele>23</ele>
        <time>2020-06-23T16:42:51Z</time>
      </trkpt>
      <trkpt lat="50.67555" lon="3.01568">
        <ele>23</ele>
        <time>2020-06-23T16:42:52Z</time>
      </trkpt>
      <trkpt lat="50.6755" lon="3.01578">
        <ele>22.9</ele>
        <time>2020-06-23T16:42:53Z</time>
      </trkpt>
      <trkpt lat="50.67545" lon="3.01586">
        <ele>22.9</ele>
        <time>2020-06-23T16:42:54Z</time>
      </trkpt>
      <trkpt lat="50.67539" lon="3.01594">
        <ele>22.8</ele>
        <time>2020-06-23T16:42:55Z</time>
      </trkpt>
      <trkpt lat="50.67533" lon="3.01602">
        <ele>22.7</ele>
        <time>2020-06-23T16:42:56Z</time>
      </trkpt>
      <trkpt lat="50.67528" lon="3.01609">
        <ele>22.6</ele>
        <time>2020-06-23T16:42:57Z</time>
      </trkpt>
      <trkpt lat="50.67522" lon="3.01617">
        <ele>22.6</ele>
        <time>2020-06-23T16:42:58Z</time>
      </trkpt>
      <trkpt lat="50.67517" lon="3.01624">
        <ele>22.5</ele>
        <time>2020-06-23T16:42:59Z</time>
      </trkpt>
      <trkpt lat="50.67511" lon="3.01631">
        <ele>22.5</ele>
        <time>2020-06-23T16:43:00Z</time>
      </trkpt>
      <trkpt lat="50.67506" lon="3.01639">
        <ele>22.5</ele>
        <time>2020-06-23T16:43:01Z</time>
      </trkpt>
      <trkpt lat="50.675" lon="3.01645">
        <ele>22.4</ele>
        <time>2020-06-23T16:43:02Z</time>
      </trkpt>
      <trkpt lat="50.67495" lon="3.01652">
        <ele>22.3</ele>
        <time>2020-06-23T16:43:03Z</time>
      </trkpt>
      <trkpt lat="50.6749" lon="3.0166">
        <ele>22.2</ele>
        <time>2020-06-23T16:43:04Z</time>
      </trkpt>
      <trkpt lat="50.67484" lon="3.01667">
        <ele>22.1</ele>
        <time>2020-06-23T16:43:05Z</time>
      </trkpt>
      <trkpt lat="50.67479" lon="3.01674">
        <ele>22.1</ele>
        <time>2020-06-23T16:43:06Z</time>
      </trkpt>
      <trkpt lat="50.67474" lon="3.01681">
        <ele>22</ele>
        <time>2020-06-23T16:43:07Z</time>
      </trkpt>
      <trkpt lat="50.67469" lon="3.01688">
        <ele>22</ele>
        <time>2020-06-23T16:43:08Z</time>
      </trkpt>
      <trkpt lat="50.67464" lon="3.01696">
        <ele>21.9</ele>
        <time>2020-06-23T16:43:09Z</time>
      </trkpt>
      <trkpt lat="50.67459" lon="3.01703">
        <ele>21.9</ele>
        <time>2020-06-23T16:43:10Z</time>
      </trkpt>
      <trkpt lat="50.67453" lon="3.0171">
        <ele>21.8</ele>
        <time>2020-06-23T16:43:11Z</time>
      </trkpt>
      <trkpt lat="50.67448" lon="3.01718">
        <ele>21.7</ele>
        <time>2020-06-23T16:43:12Z</time>
      </trkpt>
      <trkpt lat="50.67442" lon="3.01725">
        <ele>21.6</ele>
        <time>2020-06-23T16:43:13Z</time>
      </trkpt>
      <trkpt lat="50.67437" lon="3.01733">
        <ele>21.5</ele>
        <time>2020-06-23T16:43:14Z</time>
      </trkpt>
      <trkpt lat="50.67432" lon="3.01741">
        <ele>21.5</ele>
        <time>2020-06-23T16:43:15Z</time>
      </trkpt>
      <trkpt lat="50.67426" lon="3.01747">
        <ele>21.4</ele>
        <time>2020-06-23T16:43:16Z</time>
      </trkpt>
      <trkpt lat="50.67421" lon="3.01755">
        <ele>21.3</ele>
        <time>2020-06-23T16:43:17Z</time>
      </trkpt>
      <trkpt lat="50.67415" lon="3.01762">
        <ele>21.3</ele>
        <time>2020-06-23T16:43:18Z</time>
      </trkpt>
      <trkpt lat="50.6741" lon="3.0177">
        <ele>21.3</ele>
        <time>2020-06-23T16:43:19Z</time>
      </trkpt>
      <trkpt lat="50.67405" lon="3.01778">
        <ele>21.2</ele>
        <time>2020-06-23T16:43:20Z</time>
      </trkpt>
      <trkpt lat="50.674" lon="3.01785">
        <ele>21.2</ele>
        <time>2020-06-23T16:43:21Z</time>
      </trkpt>
      <trkpt lat="50.67395" lon="3.01792">
        <ele>21.2</ele>
        <time>2020-06-23T16:43:22Z</time>
      </trkpt>
      <trkpt lat="50.67389" lon="3.018">
        <ele>21.1</ele>
        <time>2020-06-23T16:43:23Z</time>
      </trkpt>
      <trkpt lat="50.67384" lon="3.01807">
        <ele>21.1</ele>
        <time>2020-06-23T16:43:24Z</time>
      </trkpt>
      <trkpt lat="50.67379" lon="3.01815">
        <ele>21.1</ele>
        <time>2020-06-23T16:43:25Z</time>
      </trkpt>
      <trkpt lat="50.67374" lon="3.01822">
        <ele>21.1</ele>
        <time>2020-06-23T16:43:26Z</time>
      </trkpt>
      <trkpt lat="50.67369" lon="3.01829">
        <ele>21.2</ele>
        <time>2020-06-23T16:43:27Z</time>
      </trkpt>
      <trkpt lat="50.67363" lon="3.01836">
        <ele>21.2</ele>
        <time>2020-06-23T16:43:28Z</time>
      </trkpt>
      <trkpt lat="50.67358" lon="3.01843">
        <ele>21.2</ele>
        <time>2020-06-23T16:43:29Z</time>
      </trkpt>
      <trkpt lat="50.67353" lon="3.0185">
        <ele>21.2</ele>
        <time>2020-06-23T16:43:30Z</time>
      </trkpt>
      <trkpt lat="50.67347" lon="3.01856">
        <ele>21.2</ele>
        <time>2020-06-23T16:43:31Z</time>
      </trkpt>
      <trkpt lat="50.67342" lon="3.01864">
        <ele>21.1</ele>
        <time>2020-06-23T16:43:32Z</time>
      </trkpt>
      <trkpt lat="50.67337" lon="3.01871">
        <ele>21.1</ele>
        <time>2020-06-23T16:43:33Z</time>
      </trkpt>
      <trkpt lat="50.67332" lon="3.01877">
        <ele>21.1</ele>
        <time>2020-06-23T16:43:34Z</time>
      </trkpt>
      <trkpt lat="50.67327" lon="3.01885">
        <ele>21.1</ele>
        <time>2020-06-23T16:43:35Z</time>
      </trkpt>
      <trkpt lat="50.67323" lon="3.01892">
        <ele>21.1</ele>
        <time>2020-06-23T16:43:36Z</time>
      </trkpt>
      <trkpt lat="50.67318" lon="3.01899">
        <ele>21.1</ele>
        <time>2020-06-23T16:43:37Z</time>
      </trkpt>
      <trkpt lat="50.67313" lon="3.01906">
        <ele>21.2</ele>
        <time>2020-06-23T16:43:38Z</time>
      </trkpt>
      <trkpt lat="50.67309" lon="3.01914">
        <ele>21.2</ele>
        <time>2020-06-23T16:43:39Z</time>
      </trkpt>
      <trkpt lat="50.67304" lon="3.0192">
        <ele>21.2</ele>
        <time>2020-06-23T16:43:40Z</time>
      </trkpt>
      <trkpt lat="50.67298" lon="3.01926">
        <ele>21.3</ele>
        <time>2020-06-23T16:43:41Z</time>
      </trkpt>
      <trkpt lat="50.67293" lon="3.01932">
        <ele>21.3</ele>
        <time>2020-06-23T16:43:42Z</time>
      </trkpt>
      <trkpt lat="50.67288" lon="3.01938">
        <ele>21.4</ele>
        <time>2020-06-23T16:43:43Z</time>
      </trkpt>
      <trkpt lat="50.67283" lon="3.01944">
        <ele>21.4</ele>
        <time>2020-06-23T16:43:44Z</time>
      </trkpt>
      <trkpt lat="50.67278" lon="3.0195">
        <ele>21.4</ele>
        <time>2020-06-23T16:43:45Z</time>
      </trkpt>
      <trkpt lat="50.67272" lon="3.01956">
        <ele>21.4</ele>
        <time>2020-06-23T16:43:46Z</time>
      </trkpt>
      <trkpt lat="50.67267" lon="3.01962">
        <ele>21.4</ele>
        <time>2020-06-23T16:43:47Z</time>
      </trkpt>
      <trkpt lat="50.67262" lon="3.01967">
        <ele>21.4</ele>
        <time>2020-06-23T16:43:48Z</time>
      </trkpt>
      <trkpt lat="50.67257" lon="3.01973">
        <ele>21.4</ele>
        <time>2020-06-23T16:43:49Z</time>
      </trkpt>
      <trkpt lat="50.67252" lon="3.01978">
        <ele>21.4</ele>
        <time>2020-06-23T16:43:50Z</time>
      </trkpt>
      <trkpt lat="50.67246" lon="3.01983">
        <ele>21.5</ele>
        <time>2020-06-23T16:43:51Z</time>
      </trkpt>
      <trkpt lat="50.67241" lon="3.01989">
        <ele>21.5</ele>
        <time>2020-06-23T16:43:52Z</time>
      </trkpt>
      <trkpt lat="50.67236" lon="3.01995">
        <ele>21.4</ele>
        <time>2020-06-23T16:43:53Z</time>
      </trkpt>
      <trkpt lat="50.67231" lon="3.02001">
        <ele>21.3</ele>
        <time>2020-06-23T16:43:54Z</time>
      </trkpt>
      <trkpt lat="50.67227" lon="3.02007">
        <ele>21.2</ele>
        <time>2020-06-23T16:43:55Z</time>
      </trkpt>
      <trkpt lat="50.67223" lon="3.02015">
        <ele>21.2</ele>
        <time>2020-06-23T16:43:56Z</time>
      </trkpt>
      <trkpt lat="50.67219" lon="3.02022">
        <ele>21.1</ele>
        <time>2020-06-23T16:43:57Z</time>
      </trkpt>
      <trkpt lat="50.67216" lon="3.02031">
        <ele>21.1</ele>
        <time>2020-06-23T16:43:58Z</time>
      </trkpt>
      <trkpt lat="50.67211" lon="3.02039">
        <ele>21.1</ele>
        <time>2020-06-23T16:43:59Z</time>
      </trkpt>
      <trkpt lat="50.67207" lon="3.02046">
        <ele>21.1</ele>
        <time>2020-06-23T16:44:00Z</time>
      </trkpt>
      <trkpt lat="50.67203" lon="3.02054">
        <ele>21.1</ele>
        <time>2020-06-23T16:44:01Z</time>
      </trkpt>
      <trkpt lat="50.67198" lon="3.02062">
        <ele>21.1</ele>
        <time>2020-06-23T16:44:02Z</time>
      </trkpt>
      <trkpt lat="50.67193" lon="3.02069">
        <ele>21.1</ele>
        <time>2020-06-23T16:44:03Z</time>
      </trkpt>
      <trkpt lat="50.67188" lon="3.02075">
        <ele>21.1</ele>
        <time>2020-06-23T16:44:04Z</time>
      </trkpt>
      <trkpt lat="50.67183" lon="3.02082">
        <ele>21</ele>
        <time>2020-06-23T16:44:05Z</time>
      </trkpt>
      <trkpt lat="50.67179" lon="3.0209">
        <ele>21</ele>
        <time>2020-06-23T16:44:06Z</time>
      </trkpt>
      <trkpt lat="50.67175" lon="3.02097">
        <ele>20.9</ele>
        <time>2020-06-23T16:44:07Z</time>
      </trkpt>
      <trkpt lat="50.67171" lon="3.02104">
        <ele>20.9</ele>
        <time>2020-06-23T16:44:08Z</time>
      </trkpt>
      <trkpt lat="50.67166" lon="3.02111">
        <ele>20.8</ele>
        <time>2020-06-23T16:44:09Z</time>
      </trkpt>
      <trkpt lat="50.67162" lon="3.02118">
        <ele>20.8</ele>
        <time>2020-06-23T16:44:10Z</time>
      </trkpt>
      <trkpt lat="50.67157" lon="3.02126">
        <ele>20.8</ele>
        <time>2020-06-23T16:44:11Z</time>
      </trkpt>
      <trkpt lat="50.67152" lon="3.02134">
        <ele>20.8</ele>
        <time>2020-06-23T16:44:12Z</time>
      </trkpt>
      <trkpt lat="50.67147" lon="3.02142">
        <ele>20.8</ele>
        <time>2020-06-23T16:44:13Z</time>
      </trkpt>
      <trkpt lat="50.67142" lon="3.02149">
        <ele>20.8</ele>
        <time>2020-06-23T16:44:14Z</time>
      </trkpt>
      <trkpt lat="50.67138" lon="3.02156">
        <ele>20.8</ele>
        <time>2020-06-23T16:44:15Z</time>
      </trkpt>
      <trkpt lat="50.67133" lon="3.02163">
        <ele>20.8</ele>
        <time>2020-06-23T16:44:16Z</time>
      </trkpt>
      <trkpt lat="50.67128" lon="3.0217">
        <ele>20.8</ele>
        <time>2020-06-23T16:44:17Z</time>
      </trkpt>
      <trkpt lat="50.67123" lon="3.02178">
        <ele>20.8</ele>
        <time>2020-06-23T16:44:18Z</time>
      </trkpt>
      <trkpt lat="50.67118" lon="3.02186">
        <ele>20.8</ele>
        <time>2020-06-23T16:44:19Z</time>
      </trkpt>
      <trkpt lat="50.67113" lon="3.02194">
        <ele>20.8</ele>
        <time>2020-06-23T16:44:20Z</time>
      </trkpt>
      <trkpt lat="50.67108" lon="3.02201">
        <ele>20.9</ele>
        <time>2020-06-23T16:44:21Z</time>
      </trkpt>
      <trkpt lat="50.67103" lon="3.02208">
        <ele>20.9</ele>
        <time>2020-06-23T16:44:22Z</time>
      </trkpt>
      <trkpt lat="50.67098" lon="3.02217">
        <ele>20.9</ele>
        <time>2020-06-23T16:44:23Z</time>
      </trkpt>
      <trkpt lat="50.67092" lon="3.02225">
        <ele>20.9</ele>
        <time>2020-06-23T16:44:24Z</time>
      </trkpt>
      <trkpt lat="50.67087" lon="3.02232">
        <ele>20.9</ele>
        <time>2020-06-23T16:44:25Z</time>
      </trkpt>
      <trkpt lat="50.67082" lon="3.02241">
        <ele>20.9</ele>
        <time>2020-06-23T16:44:26Z</time>
      </trkpt>
      <trkpt lat="50.67077" lon="3.02249">
        <ele>21</ele>
        <time>2020-06-23T16:44:27Z</time>
      </trkpt>
      <trkpt lat="50.67072" lon="3.02257">
        <ele>21</ele>
        <time>2020-06-23T16:44:28Z</time>
      </trkpt>
      <trkpt lat="50.67068" lon="3.02265">
        <ele>21.1</ele>
        <time>2020-06-23T16:44:29Z</time>
      </trkpt>
      <trkpt lat="50.67063" lon="3.02272">
        <ele>21.1</ele>
        <time>2020-06-23T16:44:30Z</time>
      </trkpt>
      <trkpt lat="50.67058" lon="3.0228">
        <ele>21.2</ele>
        <time>2020-06-23T16:44:31Z</time>
      </trkpt>
      <trkpt lat="50.67053" lon="3.02287">
        <ele>21.2</ele>
        <time>2020-06-23T16:44:32Z</time>
      </trkpt>
      <trkpt lat="50.67049" lon="3.02294">
        <ele>21.3</ele>
        <time>2020-06-23T16:44:33Z</time>
      </trkpt>
      <trkpt lat="50.67044" lon="3.02302">
        <ele>21.3</ele>
        <time>2020-06-23T16:44:34Z</time>
      </trkpt>
      <trkpt lat="50.6704" lon="3.0231">
        <ele>21.3</ele>
        <time>2020-06-23T16:44:35Z</time>
      </trkpt>
      <trkpt lat="50.67035" lon="3.02318">
        <ele>21.4</ele>
        <time>2020-06-23T16:44:36Z</time>
      </trkpt>
      <trkpt lat="50.67031" lon="3.02325">
        <ele>21.4</ele>
        <time>2020-06-23T16:44:37Z</time>
      </trkpt>
      <trkpt lat="50.67026" lon="3.02332">
        <ele>21.3</ele>
        <time>2020-06-23T16:44:38Z</time>
      </trkpt>
      <trkpt lat="50.67021" lon="3.02339">
        <ele>21.3</ele>
        <time>2020-06-23T16:44:39Z</time>
      </trkpt>
      <trkpt lat="50.67017" lon="3.02346">
        <ele>21.3</ele>
        <time>2020-06-23T16:44:40Z</time>
      </trkpt>
      <trkpt lat="50.67012" lon="3.02353">
        <ele>21.4</ele>
        <time>2020-06-23T16:44:41Z</time>
      </trkpt>
      <trkpt lat="50.67008" lon="3.02361">
        <ele>21.4</ele>
        <time>2020-06-23T16:44:42Z</time>
      </trkpt>
      <trkpt lat="50.67004" lon="3.02369">
        <ele>21.5</ele>
        <time>2020-06-23T16:44:43Z</time>
      </trkpt>
      <trkpt lat="50.66998" lon="3.02375">
        <ele>21.6</ele>
        <time>2020-06-23T16:44:44Z</time>
      </trkpt>
      <trkpt lat="50.66994" lon="3.02382">
        <ele>21.6</ele>
        <time>2020-06-23T16:44:45Z</time>
      </trkpt>
      <trkpt lat="50.66989" lon="3.02389">
        <ele>21.7</ele>
        <time>2020-06-23T16:44:46Z</time>
      </trkpt>
      <trkpt lat="50.66985" lon="3.02396">
        <ele>21.7</ele>
        <time>2020-06-23T16:44:47Z</time>
      </trkpt>
      <trkpt lat="50.6698" lon="3.02403">
        <ele>21.7</ele>
        <time>2020-06-23T16:44:48Z</time>
      </trkpt>
      <trkpt lat="50.66975" lon="3.0241">
        <ele>21.7</ele>
        <time>2020-06-23T16:44:49Z</time>
      </trkpt>
      <trkpt lat="50.6697" lon="3.02417">
        <ele>21.8</ele>
        <time>2020-06-23T16:44:50Z</time>
      </trkpt>
      <trkpt lat="50.66966" lon="3.02425">
        <ele>21.8</ele>
        <time>2020-06-23T16:44:51Z</time>
      </trkpt>
      <trkpt lat="50.66962" lon="3.02432">
        <ele>21.8</ele>
        <time>2020-06-23T16:44:52Z</time>
      </trkpt>
      <trkpt lat="50.66957" lon="3.0244">
        <ele>21.9</ele>
        <time>2020-06-23T16:44:53Z</time>
      </trkpt>
      <trkpt lat="50.66952" lon="3.02449">
        <ele>21.9</ele>
        <time>2020-06-23T16:44:54Z</time>
      </trkpt>
      <trkpt lat="50.66947" lon="3.02456">
        <ele>22</ele>
        <time>2020-06-23T16:44:55Z</time>
      </trkpt>
      <trkpt lat="50.66942" lon="3.02463">
        <ele>22</ele>
        <time>2020-06-23T16:44:56Z</time>
      </trkpt>
      <trkpt lat="50.66937" lon="3.02471">
        <ele>22.1</ele>
        <time>2020-06-23T16:44:57Z</time>
      </trkpt>
      <trkpt lat="50.66933" lon="3.0248">
        <ele>22.1</ele>
        <time>2020-06-23T16:44:58Z</time>
      </trkpt>
      <trkpt lat="50.66928" lon="3.02487">
        <ele>22.2</ele>
        <time>2020-06-23T16:44:59Z</time>
      </trkpt>
      <trkpt lat="50.66923" lon="3.02495">
        <ele>22.3</ele>
        <time>2020-06-23T16:45:00Z</time>
      </trkpt>
      <trkpt lat="50.66918" lon="3.02502">
        <ele>22.4</ele>
        <time>2020-06-23T16:45:01Z</time>
      </trkpt>
      <trkpt lat="50.66914" lon="3.02511">
        <ele>22.4</ele>
        <time>2020-06-23T16:45:02Z</time>
      </trkpt>
      <trkpt lat="50.6691" lon="3.02519">
        <ele>22.4</ele>
        <time>2020-06-23T16:45:03Z</time>
      </trkpt>
      <trkpt lat="50.66905" lon="3.02526">
        <ele>22.4</ele>
        <time>2020-06-23T16:45:04Z</time>
      </trkpt>
      <trkpt lat="50.669" lon="3.02533">
        <ele>22.5</ele>
        <time>2020-06-23T16:45:05Z</time>
      </trkpt>
      <trkpt lat="50.66896" lon="3.0254">
        <ele>22.5</ele>
        <time>2020-06-23T16:45:06Z</time>
      </trkpt>
      <trkpt lat="50.66892" lon="3.02548">
        <ele>22.5</ele>
        <time>2020-06-23T16:45:07Z</time>
      </trkpt>
      <trkpt lat="50.66887" lon="3.02555">
        <ele>22.6</ele>
        <time>2020-06-23T16:45:08Z</time>
      </trkpt>
      <trkpt lat="50.66883" lon="3.02562">
        <ele>22.6</ele>
        <time>2020-06-23T16:45:09Z</time>
      </trkpt>
      <trkpt lat="50.66878" lon="3.0257">
        <ele>22.6</ele>
        <time>2020-06-23T16:45:10Z</time>
      </trkpt>
      <trkpt lat="50.66873" lon="3.02576">
        <ele>22.6</ele>
        <time>2020-06-23T16:45:11Z</time>
      </trkpt>
      <trkpt lat="50.66869" lon="3.02584">
        <ele>22.6</ele>
        <time>2020-06-23T16:45:12Z</time>
      </trkpt>
      <trkpt lat="50.66864" lon="3.0259">
        <ele>22.6</ele>
        <time>2020-06-23T16:45:13Z</time>
      </trkpt>
      <trkpt lat="50.66859" lon="3.02597">
        <ele>22.6</ele>
        <time>2020-06-23T16:45:14Z</time>
      </trkpt>
      <trkpt lat="50.66855" lon="3.02604">
        <ele>22.6</ele>
        <time>2020-06-23T16:45:15Z</time>
      </trkpt>
      <trkpt lat="50.66851" lon="3.02611">
        <ele>22.6</ele>
        <time>2020-06-23T16:45:16Z</time>
      </trkpt>
      <trkpt lat="50.66846" lon="3.02617">
        <ele>22.7</ele>
        <time>2020-06-23T16:45:17Z</time>
      </trkpt>
      <trkpt lat="50.66842" lon="3.02624">
        <ele>22.7</ele>
        <time>2020-06-23T16:45:18Z</time>
      </trkpt>
      <trkpt lat="50.66837" lon="3.02631">
        <ele>22.7</ele>
        <time>2020-06-23T16:45:19Z</time>
      </trkpt>
      <trkpt lat="50.66833" lon="3.02638">
        <ele>22.7</ele>
        <time>2020-06-23T16:45:20Z</time>
      </trkpt>
      <trkpt lat="50.66829" lon="3.02645">
        <ele>22.7</ele>
        <time>2020-06-23T16:45:21Z</time>
      </trkpt>
      <trkpt lat="50.66825" lon="3.02652">
        <ele>22.7</ele>
        <time>2020-06-23T16:45:22Z</time>
      </trkpt>
      <trkpt lat="50.6682" lon="3.0266">
        <ele>22.7</ele>
        <time>2020-06-23T16:45:23Z</time>
      </trkpt>
      <trkpt lat="50.66815" lon="3.02667">
        <ele>22.8</ele>
        <time>2020-06-23T16:45:24Z</time>
      </trkpt>
      <trkpt lat="50.66811" lon="3.02675">
        <ele>22.8</ele>
        <time>2020-06-23T16:45:25Z</time>
      </trkpt>
      <trkpt lat="50.66806" lon="3.02682">
        <ele>22.9</ele>
        <time>2020-06-23T16:45:26Z</time>
      </trkpt>
      <trkpt lat="50.66802" lon="3.02688">
        <ele>22.9</ele>
        <time>2020-06-23T16:45:27Z</time>
      </trkpt>
      <trkpt lat="50.66797" lon="3.02694">
        <ele>23</ele>
        <time>2020-06-23T16:45:28Z</time>
      </trkpt>
      <trkpt lat="50.66792" lon="3.02699">
        <ele>22.9</ele>
        <time>2020-06-23T16:45:29Z</time>
      </trkpt>
      <trkpt lat="50.66784" lon="3.02706">
        <ele>22.8</ele>
        <time>2020-06-23T16:45:30Z</time>
      </trkpt>
      <trkpt lat="50.66778" lon="3.02711">
        <ele>22.8</ele>
        <time>2020-06-23T16:45:31Z</time>
      </trkpt>
      <trkpt lat="50.66772" lon="3.02715">
        <ele>22.7</ele>
        <time>2020-06-23T16:45:32Z</time>
      </trkpt>
      <trkpt lat="50.66766" lon="3.02719">
        <ele>22.7</ele>
        <time>2020-06-23T16:45:33Z</time>
      </trkpt>
      <trkpt lat="50.66761" lon="3.02724">
        <ele>22.7</ele>
        <time>2020-06-23T16:45:34Z</time>
      </trkpt>
      <trkpt lat="50.66756" lon="3.02728">
        <ele>22.7</ele>
        <time>2020-06-23T16:45:35Z</time>
      </trkpt>
      <trkpt lat="50.6675" lon="3.02733">
        <ele>22.8</ele>
        <time>2020-06-23T16:45:36Z</time>
      </trkpt>
      <trkpt lat="50.66744" lon="3.02739">
        <ele>22.8</ele>
        <time>2020-06-23T16:45:37Z</time>
      </trkpt>
      <trkpt lat="50.6674" lon="3.02742">
        <ele>22.9</ele>
        <time>2020-06-23T16:45:38Z</time>
      </trkpt>
      <trkpt lat="50.66734" lon="3.02746">
        <ele>23</ele>
        <time>2020-06-23T16:45:39Z</time>
      </trkpt>
      <trkpt lat="50.66729" lon="3.0275">
        <ele>23.1</ele>
        <time>2020-06-23T16:45:40Z</time>
      </trkpt>
      <trkpt lat="50.66725" lon="3.02753">
        <ele>23.1</ele>
        <time>2020-06-23T16:45:41Z</time>
      </trkpt>
      <trkpt lat="50.66719" lon="3.02755">
        <ele>23.2</ele>
        <time>2020-06-23T16:45:42Z</time>
      </trkpt>
      <trkpt lat="50.66713" lon="3.02755">
        <ele>23.3</ele>
        <time>2020-06-23T16:45:43Z</time>
      </trkpt>
      <trkpt lat="50.66708" lon="3.02752">
        <ele>23.4</ele>
        <time>2020-06-23T16:45:44Z</time>
      </trkpt>
      <trkpt lat="50.66705" lon="3.02748">
        <ele>23.5</ele>
        <time>2020-06-23T16:45:45Z</time>
      </trkpt>
      <trkpt lat="50.66701" lon="3.02746">
        <ele>23.6</ele>
        <time>2020-06-23T16:45:46Z</time>
      </trkpt>
      <trkpt lat="50.66697" lon="3.02746">
        <ele>23.6</ele>
        <time>2020-06-23T16:45:47Z</time>
      </trkpt>
      <trkpt lat="50.66693" lon="3.02747">
        <ele>23.7</ele>
        <time>2020-06-23T16:45:48Z</time>
      </trkpt>
      <trkpt lat="50.6669" lon="3.0275">
        <ele>23.8</ele>
        <time>2020-06-23T16:45:49Z</time>
      </trkpt>
      <trkpt lat="50.66686" lon="3.02752">
        <ele>23.9</ele>
        <time>2020-06-23T16:45:50Z</time>
      </trkpt>
      <trkpt lat="50.66684" lon="3.02756">
        <ele>24.7</ele>
        <time>2020-06-23T16:45:51Z</time>
      </trkpt>
      <trkpt lat="50.6668" lon="3.02763">
        <ele>24.4</ele>
        <time>2020-06-23T16:45:52Z</time>
      </trkpt>
      <trkpt lat="50.6668" lon="3.02772">
        <ele>24.2</ele>
        <time>2020-06-23T16:45:53Z</time>
      </trkpt>
      <trkpt lat="50.66679" lon="3.0278">
        <ele>24</ele>
        <time>2020-06-23T16:45:54Z</time>
      </trkpt>
      <trkpt lat="50.6668" lon="3.02789">
        <ele>23.7</ele>
        <time>2020-06-23T16:45:55Z</time>
      </trkpt>
      <trkpt lat="50.66682" lon="3.02798">
        <ele>23.4</ele>
        <time>2020-06-23T16:45:56Z</time>
      </trkpt>
      <trkpt lat="50.66685" lon="3.02807">
        <ele>23.4</ele>
        <time>2020-06-23T16:45:57Z</time>
      </trkpt>
      <trkpt lat="50.66688" lon="3.02814">
        <ele>23.4</ele>
        <time>2020-06-23T16:45:58Z</time>
      </trkpt>
      <trkpt lat="50.66689" lon="3.02821">
        <ele>23.4</ele>
        <time>2020-06-23T16:45:59Z</time>
      </trkpt>
      <trkpt lat="50.6669" lon="3.02828">
        <ele>23.3</ele>
        <time>2020-06-23T16:46:00Z</time>
      </trkpt>
      <trkpt lat="50.6669" lon="3.02836">
        <ele>23.3</ele>
        <time>2020-06-23T16:46:01Z</time>
      </trkpt>
      <trkpt lat="50.66689" lon="3.0284">
        <ele>23.3</ele>
        <time>2020-06-23T16:46:02Z</time>
      </trkpt>
      <trkpt lat="50.66688" lon="3.0284">
        <ele>23.3</ele>
        <time>2020-06-23T16:46:03Z</time>
      </trkpt>
      <trkpt lat="50.66686" lon="3.02841">
        <ele>23.3</ele>
        <time>2020-06-23T16:46:04Z</time>
      </trkpt>
      <trkpt lat="50.66685" lon="3.02842">
        <ele>23.3</ele>
        <time>2020-06-23T16:46:05Z</time>
      </trkpt>
      <trkpt lat="50.66684" lon="3.02844">
        <ele>23.3</ele>
        <time>2020-06-23T16:46:06Z</time>
      </trkpt>
      <trkpt lat="50.66684" lon="3.02844">
        <ele>23.3</ele>
        <time>2020-06-23T16:46:07Z</time>
      </trkpt>
      <trkpt lat="50.66683" lon="3.02844">
        <ele>23.3</ele>
        <time>2020-06-23T16:46:08Z</time>
      </trkpt>
      <trkpt lat="50.66683" lon="3.02844">
        <ele>23.3</ele>
        <time>2020-06-23T16:46:09Z</time>
      </trkpt>
      <trkpt lat="50.66683" lon="3.02844">
        <ele>23.3</ele>
        <time>2020-06-23T16:46:10Z</time>
      </trkpt>
      <trkpt lat="50.66682" lon="3.02845">
        <ele>23.3</ele>
        <time>2020-06-23T16:46:11Z</time>
      </trkpt>
      <trkpt lat="50.66683" lon="3.02845">
        <ele>23.3</ele>
        <time>2020-06-23T16:46:12Z</time>
      </trkpt>
      <trkpt lat="50.66682" lon="3.02845">
        <ele>23.3</ele>
        <time>2020-06-23T16:46:13Z</time>
      </trkpt>
      <trkpt lat="50.66682" lon="3.02846">
        <ele>23.3</ele>
        <time>2020-06-23T16:46:14Z</time>
      </trkpt>
      <trkpt lat="50.66682" lon="3.02846">
        <ele>23.3</ele>
        <time>2020-06-23T16:46:15Z</time>
      </trkpt>
      <trkpt lat="50.66681" lon="3.02846">
        <ele>23.3</ele>
        <time>2020-06-23T16:46:16Z</time>
      </trkpt>
      <trkpt lat="50.66681" lon="3.02847">
        <ele>23.3</ele>
        <time>2020-06-23T16:46:17Z</time>
      </trkpt>
      <trkpt lat="50.66681" lon="3.02847">
        <ele>23.3</ele>
        <time>2020-06-23T16:46:18Z</time>
      </trkpt>
      <trkpt lat="50.6668" lon="3.02848">
        <ele>23.3</ele>
        <time>2020-06-23T16:46:19Z</time>
      </trkpt>
      <trkpt lat="50.6668" lon="3.02848">
        <ele>23.3</ele>
        <time>2020-06-23T16:46:20Z</time>
      </trkpt>
      <trkpt lat="50.6668" lon="3.02848">
        <ele>23.3</ele>
        <time>2020-06-23T16:46:21Z</time>
      </trkpt>
      <trkpt lat="50.66679" lon="3.02849">
        <ele>23.3</ele>
        <time>2020-06-23T16:46:22Z</time>
      </trkpt>
      <trkpt lat="50.66679" lon="3.02849">
        <ele>23.3</ele>
        <time>2020-06-23T16:46:23Z</time>
      </trkpt>
      <trkpt lat="50.66679" lon="3.0285">
        <ele>23.3</ele>
        <time>2020-06-23T16:46:24Z</time>
      </trkpt>
      <trkpt lat="50.66678" lon="3.0285">
        <ele>23.3</ele>
        <time>2020-06-23T16:46:25Z</time>
      </trkpt>
      <trkpt lat="50.66678" lon="3.0285">
        <ele>23.2</ele>
        <time>2020-06-23T16:46:26Z</time>
      </trkpt>
      <trkpt lat="50.66677" lon="3.02851">
        <ele>23.2</ele>
        <time>2020-06-23T16:46:27Z</time>
      </trkpt>
      <trkpt lat="50.66677" lon="3.02851">
        <ele>23.2</ele>
        <time>2020-06-23T16:46:28Z</time>
      </trkpt>
      <trkpt lat="50.66677" lon="3.02852">
        <ele>23.2</ele>
        <time>2020-06-23T16:46:47Z</time>
      </trkpt>
      <trkpt lat="50.66676" lon="3.02852">
        <ele>23.2</ele>
        <time>2020-06-23T16:46:48Z</time>
      </trkpt>
      <trkpt lat="50.66675" lon="3.02855">
        <ele>23.2</ele>
        <time>2020-06-23T16:46:49Z</time>
      </trkpt>
      <trkpt lat="50.66673" lon="3.02859">
        <ele>23.2</ele>
        <time>2020-06-23T16:46:50Z</time>
      </trkpt>
      <trkpt lat="50.66671" lon="3.02864">
        <ele>23.2</ele>
        <time>2020-06-23T16:46:51Z</time>
      </trkpt>
      <trkpt lat="50.6667" lon="3.02865">
        <ele>23.2</ele>
        <time>2020-06-23T16:46:52Z</time>
      </trkpt>
      <trkpt lat="50.66666" lon="3.02869">
        <ele>23.2</ele>
        <time>2020-06-23T16:46:53Z</time>
      </trkpt>
      <trkpt lat="50.66663" lon="3.02873">
        <ele>23.2</ele>
        <time>2020-06-23T16:46:54Z</time>
      </trkpt>
      <trkpt lat="50.6666" lon="3.02875">
        <ele>23.2</ele>
        <time>2020-06-23T16:46:55Z</time>
      </trkpt>
      <trkpt lat="50.66657" lon="3.02876">
        <ele>23.2</ele>
        <time>2020-06-23T16:46:56Z</time>
      </trkpt>
      <trkpt lat="50.66655" lon="3.02875">
        <ele>23.2</ele>
        <time>2020-06-23T16:46:57Z</time>
      </trkpt>
      <trkpt lat="50.66652" lon="3.02873">
        <ele>23.2</ele>
        <time>2020-06-23T16:46:58Z</time>
      </trkpt>
      <trkpt lat="50.6665" lon="3.02872">
        <ele>23.2</ele>
        <time>2020-06-23T16:46:59Z</time>
      </trkpt>
      <trkpt lat="50.66647" lon="3.0287">
        <ele>23.3</ele>
        <time>2020-06-23T16:47:00Z</time>
      </trkpt>
      <trkpt lat="50.66645" lon="3.0287">
        <ele>23.3</ele>
        <time>2020-06-23T16:47:01Z</time>
      </trkpt>
      <trkpt lat="50.66645" lon="3.02869">
        <ele>23.3</ele>
        <time>2020-06-23T16:47:02Z</time>
      </trkpt>
      <trkpt lat="50.66643" lon="3.0287">
        <ele>23.3</ele>
        <time>2020-06-23T16:47:03Z</time>
      </trkpt>
      <trkpt lat="50.66641" lon="3.02871">
        <ele>23.4</ele>
        <time>2020-06-23T16:47:04Z</time>
      </trkpt>
      <trkpt lat="50.6664" lon="3.02872">
        <ele>23.4</ele>
        <time>2020-06-23T16:47:05Z</time>
      </trkpt>
      <trkpt lat="50.6664" lon="3.02871">
        <ele>23.4</ele>
        <time>2020-06-23T16:47:06Z</time>
      </trkpt>
      <trkpt lat="50.6664" lon="3.02872">
        <ele>23.4</ele>
        <time>2020-06-23T16:47:07Z</time>
      </trkpt>
      <trkpt lat="50.66639" lon="3.02872">
        <ele>23.4</ele>
        <time>2020-06-23T16:47:08Z</time>
      </trkpt>
      <trkpt lat="50.66639" lon="3.02872">
        <ele>23.5</ele>
        <time>2020-06-23T16:47:09Z</time>
      </trkpt>
      <trkpt lat="50.66639" lon="3.02872">
        <ele>23.5</ele>
        <time>2020-06-23T16:47:10Z</time>
      </trkpt>
      <trkpt lat="50.66637" lon="3.02871">
        <ele>23.5</ele>
        <time>2020-06-23T16:47:11Z</time>
      </trkpt>
      <trkpt lat="50.66637" lon="3.02871">
        <ele>23.5</ele>
        <time>2020-06-23T16:47:12Z</time>
      </trkpt>
      <trkpt lat="50.66635" lon="3.02875">
        <ele>23.5</ele>
        <time>2020-06-23T16:47:13Z</time>
      </trkpt>
      <trkpt lat="50.66635" lon="3.02877">
        <ele>23.5</ele>
        <time>2020-06-23T16:47:14Z</time>
      </trkpt>
      <trkpt lat="50.66632" lon="3.02882">
        <ele>23.6</ele>
        <time>2020-06-23T16:47:15Z</time>
      </trkpt>
      <trkpt lat="50.6663" lon="3.02884">
        <ele>23.6</ele>
        <time>2020-06-23T16:47:16Z</time>
      </trkpt>
      <trkpt lat="50.66627" lon="3.02889">
        <ele>23.7</ele>
        <time>2020-06-23T16:47:17Z</time>
      </trkpt>
      <trkpt lat="50.66624" lon="3.02894">
        <ele>23.6</ele>
        <time>2020-06-23T16:47:18Z</time>
      </trkpt>
      <trkpt lat="50.66622" lon="3.029">
        <ele>23.6</ele>
        <time>2020-06-23T16:47:19Z</time>
      </trkpt>
      <trkpt lat="50.66621" lon="3.02905">
        <ele>23.6</ele>
        <time>2020-06-23T16:47:20Z</time>
      </trkpt>
      <trkpt lat="50.66619" lon="3.02911">
        <ele>23.6</ele>
        <time>2020-06-23T16:47:21Z</time>
      </trkpt>
      <trkpt lat="50.66619" lon="3.02917">
        <ele>23.6</ele>
        <time>2020-06-23T16:47:22Z</time>
      </trkpt>
      <trkpt lat="50.66619" lon="3.02922">
        <ele>23.6</ele>
        <time>2020-06-23T16:47:23Z</time>
      </trkpt>
      <trkpt lat="50.66619" lon="3.02927">
        <ele>23.6</ele>
        <time>2020-06-23T16:47:24Z</time>
      </trkpt>
      <trkpt lat="50.66618" lon="3.02932">
        <ele>23.6</ele>
        <time>2020-06-23T16:47:25Z</time>
      </trkpt>
      <trkpt lat="50.66618" lon="3.02933">
        <ele>23.6</ele>
        <time>2020-06-23T16:47:26Z</time>
      </trkpt>
      <trkpt lat="50.66615" lon="3.02937">
        <ele>23.6</ele>
        <time>2020-06-23T16:47:27Z</time>
      </trkpt>
      <trkpt lat="50.66614" lon="3.02943">
        <ele>23.7</ele>
        <time>2020-06-23T16:47:28Z</time>
      </trkpt>
      <trkpt lat="50.66612" lon="3.02949">
        <ele>23.7</ele>
        <time>2020-06-23T16:47:29Z</time>
      </trkpt>
      <trkpt lat="50.66609" lon="3.02953">
        <ele>23.7</ele>
        <time>2020-06-23T16:47:30Z</time>
      </trkpt>
      <trkpt lat="50.66607" lon="3.02957">
        <ele>23.7</ele>
        <time>2020-06-23T16:47:31Z</time>
      </trkpt>
      <trkpt lat="50.66604" lon="3.02961">
        <ele>23.8</ele>
        <time>2020-06-23T16:47:32Z</time>
      </trkpt>
      <trkpt lat="50.66603" lon="3.02962">
        <ele>23.8</ele>
        <time>2020-06-23T16:47:33Z</time>
      </trkpt>
      <trkpt lat="50.666" lon="3.02966">
        <ele>23.8</ele>
        <time>2020-06-23T16:47:34Z</time>
      </trkpt>
      <trkpt lat="50.66597" lon="3.0297">
        <ele>23.9</ele>
        <time>2020-06-23T16:47:35Z</time>
      </trkpt>
      <trkpt lat="50.66595" lon="3.02973">
        <ele>23.9</ele>
        <time>2020-06-23T16:47:36Z</time>
      </trkpt>
      <trkpt lat="50.66591" lon="3.02978">
        <ele>23.9</ele>
        <time>2020-06-23T16:47:37Z</time>
      </trkpt>
      <trkpt lat="50.66587" lon="3.02984">
        <ele>23.9</ele>
        <time>2020-06-23T16:47:38Z</time>
      </trkpt>
      <trkpt lat="50.66583" lon="3.02989">
        <ele>23.9</ele>
        <time>2020-06-23T16:47:39Z</time>
      </trkpt>
      <trkpt lat="50.66579" lon="3.02995">
        <ele>23.8</ele>
        <time>2020-06-23T16:47:40Z</time>
      </trkpt>
      <trkpt lat="50.66575" lon="3.03002">
        <ele>23.8</ele>
        <time>2020-06-23T16:47:41Z</time>
      </trkpt>
      <trkpt lat="50.66571" lon="3.03007">
        <ele>23.7</ele>
        <time>2020-06-23T16:47:42Z</time>
      </trkpt>
      <trkpt lat="50.66565" lon="3.03013">
        <ele>23.7</ele>
        <time>2020-06-23T16:47:43Z</time>
      </trkpt>
      <trkpt lat="50.66559" lon="3.03019">
        <ele>23.6</ele>
        <time>2020-06-23T16:47:44Z</time>
      </trkpt>
      <trkpt lat="50.66556" lon="3.03025">
        <ele>23.6</ele>
        <time>2020-06-23T16:47:45Z</time>
      </trkpt>
      <trkpt lat="50.66552" lon="3.0303">
        <ele>23.6</ele>
        <time>2020-06-23T16:47:46Z</time>
      </trkpt>
      <trkpt lat="50.66549" lon="3.03037">
        <ele>23.5</ele>
        <time>2020-06-23T16:47:47Z</time>
      </trkpt>
      <trkpt lat="50.66545" lon="3.03041">
        <ele>23.5</ele>
        <time>2020-06-23T16:47:48Z</time>
      </trkpt>
      <trkpt lat="50.66541" lon="3.03046">
        <ele>23.5</ele>
        <time>2020-06-23T16:47:49Z</time>
      </trkpt>
      <trkpt lat="50.66536" lon="3.03052">
        <ele>23.4</ele>
        <time>2020-06-23T16:47:50Z</time>
      </trkpt>
      <trkpt lat="50.66532" lon="3.03057">
        <ele>23.4</ele>
        <time>2020-06-23T16:47:51Z</time>
      </trkpt>
      <trkpt lat="50.66529" lon="3.0306">
        <ele>23.4</ele>
        <time>2020-06-23T16:47:52Z</time>
      </trkpt>
      <trkpt lat="50.66525" lon="3.03063">
        <ele>23.4</ele>
        <time>2020-06-23T16:47:53Z</time>
      </trkpt>
      <trkpt lat="50.66523" lon="3.03067">
        <ele>23.4</ele>
        <time>2020-06-23T16:47:54Z</time>
      </trkpt>
      <trkpt lat="50.6652" lon="3.0307">
        <ele>23.4</ele>
        <time>2020-06-23T16:47:55Z</time>
      </trkpt>
      <trkpt lat="50.66517" lon="3.03075">
        <ele>23.4</ele>
        <time>2020-06-23T16:47:56Z</time>
      </trkpt>
      <trkpt lat="50.66513" lon="3.0308">
        <ele>23.4</ele>
        <time>2020-06-23T16:47:57Z</time>
      </trkpt>
      <trkpt lat="50.66511" lon="3.03083">
        <ele>23.4</ele>
        <time>2020-06-23T16:47:58Z</time>
      </trkpt>
      <trkpt lat="50.66508" lon="3.03086">
        <ele>23.4</ele>
        <time>2020-06-23T16:47:59Z</time>
      </trkpt>
      <trkpt lat="50.66506" lon="3.0309">
        <ele>23.4</ele>
        <time>2020-06-23T16:48:00Z</time>
      </trkpt>
      <trkpt lat="50.66504" lon="3.03094">
        <ele>23.3</ele>
        <time>2020-06-23T16:48:01Z</time>
      </trkpt>
      <trkpt lat="50.66501" lon="3.03098">
        <ele>23.3</ele>
        <time>2020-06-23T16:48:02Z</time>
      </trkpt>
      <trkpt lat="50.66498" lon="3.03102">
        <ele>23.3</ele>
        <time>2020-06-23T16:48:03Z</time>
      </trkpt>
      <trkpt lat="50.66495" lon="3.03107">
        <ele>23.3</ele>
        <time>2020-06-23T16:48:04Z</time>
      </trkpt>
      <trkpt lat="50.6649" lon="3.03113">
        <ele>23.3</ele>
        <time>2020-06-23T16:48:05Z</time>
      </trkpt>
      <trkpt lat="50.66485" lon="3.03119">
        <ele>23.4</ele>
        <time>2020-06-23T16:48:06Z</time>
      </trkpt>
      <trkpt lat="50.66479" lon="3.03123">
        <ele>23.3</ele>
        <time>2020-06-23T16:48:07Z</time>
      </trkpt>
      <trkpt lat="50.66475" lon="3.03126">
        <ele>23.3</ele>
        <time>2020-06-23T16:48:08Z</time>
      </trkpt>
      <trkpt lat="50.66473" lon="3.03128">
        <ele>23.3</ele>
        <time>2020-06-23T16:48:09Z</time>
      </trkpt>
      <trkpt lat="50.6647" lon="3.03129">
        <ele>23.3</ele>
        <time>2020-06-23T16:48:10Z</time>
      </trkpt>
      <trkpt lat="50.66468" lon="3.0313">
        <ele>23.3</ele>
        <time>2020-06-23T16:48:11Z</time>
      </trkpt>
      <trkpt lat="50.66465" lon="3.03132">
        <ele>23.3</ele>
        <time>2020-06-23T16:48:12Z</time>
      </trkpt>
      <trkpt lat="50.66464" lon="3.03133">
        <ele>23.3</ele>
        <time>2020-06-23T16:48:13Z</time>
      </trkpt>
      <trkpt lat="50.66461" lon="3.03132">
        <ele>23.4</ele>
        <time>2020-06-23T16:48:14Z</time>
      </trkpt>
      <trkpt lat="50.6646" lon="3.03135">
        <ele>23.4</ele>
        <time>2020-06-23T16:48:15Z</time>
      </trkpt>
      <trkpt lat="50.66459" lon="3.03136">
        <ele>23.4</ele>
        <time>2020-06-23T16:48:16Z</time>
      </trkpt>
      <trkpt lat="50.66458" lon="3.03137">
        <ele>23.4</ele>
        <time>2020-06-23T16:48:17Z</time>
      </trkpt>
      <trkpt lat="50.66456" lon="3.03141">
        <ele>23.4</ele>
        <time>2020-06-23T16:48:18Z</time>
      </trkpt>
      <trkpt lat="50.66453" lon="3.03144">
        <ele>23.4</ele>
        <time>2020-06-23T16:48:19Z</time>
      </trkpt>
      <trkpt lat="50.6645" lon="3.03147">
        <ele>23.4</ele>
        <time>2020-06-23T16:48:20Z</time>
      </trkpt>
      <trkpt lat="50.66447" lon="3.0315">
        <ele>23.4</ele>
        <time>2020-06-23T16:48:21Z</time>
      </trkpt>
      <trkpt lat="50.66444" lon="3.03154">
        <ele>23.4</ele>
        <time>2020-06-23T16:48:22Z</time>
      </trkpt>
      <trkpt lat="50.66439" lon="3.0316">
        <ele>23.3</ele>
        <time>2020-06-23T16:48:23Z</time>
      </trkpt>
      <trkpt lat="50.66434" lon="3.03164">
        <ele>23.2</ele>
        <time>2020-06-23T16:48:24Z</time>
      </trkpt>
      <trkpt lat="50.66429" lon="3.03168">
        <ele>23.2</ele>
        <time>2020-06-23T16:48:25Z</time>
      </trkpt>
      <trkpt lat="50.66424" lon="3.03172">
        <ele>23.1</ele>
        <time>2020-06-23T16:48:26Z</time>
      </trkpt>
      <trkpt lat="50.66418" lon="3.03177">
        <ele>23</ele>
        <time>2020-06-23T16:48:27Z</time>
      </trkpt>
      <trkpt lat="50.66412" lon="3.03184">
        <ele>22.9</ele>
        <time>2020-06-23T16:48:28Z</time>
      </trkpt>
      <trkpt lat="50.66405" lon="3.03191">
        <ele>22.9</ele>
        <time>2020-06-23T16:48:29Z</time>
      </trkpt>
      <trkpt lat="50.66399" lon="3.03196">
        <ele>22.8</ele>
        <time>2020-06-23T16:48:30Z</time>
      </trkpt>
      <trkpt lat="50.66392" lon="3.03202">
        <ele>22.7</ele>
        <time>2020-06-23T16:48:31Z</time>
      </trkpt>
      <trkpt lat="50.66386" lon="3.03208">
        <ele>22.6</ele>
        <time>2020-06-23T16:48:32Z</time>
      </trkpt>
      <trkpt lat="50.6638" lon="3.03213">
        <ele>22.5</ele>
        <time>2020-06-23T16:48:33Z</time>
      </trkpt>
      <trkpt lat="50.66374" lon="3.03218">
        <ele>22.5</ele>
        <time>2020-06-23T16:48:34Z</time>
      </trkpt>
      <trkpt lat="50.66367" lon="3.03224">
        <ele>22.4</ele>
        <time>2020-06-23T16:48:35Z</time>
      </trkpt>
      <trkpt lat="50.66362" lon="3.0323">
        <ele>22.4</ele>
        <time>2020-06-23T16:48:36Z</time>
      </trkpt>
      <trkpt lat="50.66357" lon="3.03236">
        <ele>22.3</ele>
        <time>2020-06-23T16:48:37Z</time>
      </trkpt>
      <trkpt lat="50.6635" lon="3.03242">
        <ele>22.3</ele>
        <time>2020-06-23T16:48:38Z</time>
      </trkpt>
      <trkpt lat="50.66344" lon="3.03249">
        <ele>22.2</ele>
        <time>2020-06-23T16:48:39Z</time>
      </trkpt>
      <trkpt lat="50.66338" lon="3.03255">
        <ele>22.1</ele>
        <time>2020-06-23T16:48:40Z</time>
      </trkpt>
      <trkpt lat="50.66332" lon="3.0326">
        <ele>22.1</ele>
        <time>2020-06-23T16:48:41Z</time>
      </trkpt>
      <trkpt lat="50.66327" lon="3.03265">
        <ele>22</ele>
        <time>2020-06-23T16:48:42Z</time>
      </trkpt>
      <trkpt lat="50.66322" lon="3.0327">
        <ele>22</ele>
        <time>2020-06-23T16:48:43Z</time>
      </trkpt>
      <trkpt lat="50.66316" lon="3.03277">
        <ele>21.9</ele>
        <time>2020-06-23T16:48:44Z</time>
      </trkpt>
      <trkpt lat="50.66309" lon="3.03284">
        <ele>21.9</ele>
        <time>2020-06-23T16:48:45Z</time>
      </trkpt>
      <trkpt lat="50.66304" lon="3.03289">
        <ele>21.9</ele>
        <time>2020-06-23T16:48:46Z</time>
      </trkpt>
      <trkpt lat="50.66298" lon="3.03296">
        <ele>21.8</ele>
        <time>2020-06-23T16:48:47Z</time>
      </trkpt>
      <trkpt lat="50.66291" lon="3.03302">
        <ele>21.8</ele>
        <time>2020-06-23T16:48:48Z</time>
      </trkpt>
      <trkpt lat="50.66284" lon="3.03308">
        <ele>21.8</ele>
        <time>2020-06-23T16:48:49Z</time>
      </trkpt>
      <trkpt lat="50.66278" lon="3.03313">
        <ele>21.8</ele>
        <time>2020-06-23T16:48:50Z</time>
      </trkpt>
      <trkpt lat="50.6627" lon="3.03318">
        <ele>21.7</ele>
        <time>2020-06-23T16:48:51Z</time>
      </trkpt>
      <trkpt lat="50.66266" lon="3.03321">
        <ele>21.7</ele>
        <time>2020-06-23T16:48:52Z</time>
      </trkpt>
      <trkpt lat="50.66261" lon="3.03326">
        <ele>21.7</ele>
        <time>2020-06-23T16:48:53Z</time>
      </trkpt>
      <trkpt lat="50.66255" lon="3.03332">
        <ele>21.6</ele>
        <time>2020-06-23T16:48:54Z</time>
      </trkpt>
      <trkpt lat="50.66248" lon="3.03338">
        <ele>21.6</ele>
        <time>2020-06-23T16:48:55Z</time>
      </trkpt>
      <trkpt lat="50.66242" lon="3.03344">
        <ele>21.6</ele>
        <time>2020-06-23T16:48:56Z</time>
      </trkpt>
      <trkpt lat="50.66237" lon="3.03349">
        <ele>21.6</ele>
        <time>2020-06-23T16:48:57Z</time>
      </trkpt>
      <trkpt lat="50.66231" lon="3.03357">
        <ele>21.6</ele>
        <time>2020-06-23T16:48:58Z</time>
      </trkpt>
      <trkpt lat="50.66225" lon="3.03365">
        <ele>21.6</ele>
        <time>2020-06-23T16:48:59Z</time>
      </trkpt>
      <trkpt lat="50.66221" lon="3.03371">
        <ele>21.6</ele>
        <time>2020-06-23T16:49:00Z</time>
      </trkpt>
      <trkpt lat="50.66216" lon="3.0338">
        <ele>21.6</ele>
        <time>2020-06-23T16:49:01Z</time>
      </trkpt>
      <trkpt lat="50.66212" lon="3.0339">
        <ele>21.6</ele>
        <time>2020-06-23T16:49:02Z</time>
      </trkpt>
      <trkpt lat="50.66208" lon="3.03399">
        <ele>21.6</ele>
        <time>2020-06-23T16:49:03Z</time>
      </trkpt>
      <trkpt lat="50.66204" lon="3.03407">
        <ele>21.6</ele>
        <time>2020-06-23T16:49:04Z</time>
      </trkpt>
      <trkpt lat="50.662" lon="3.03417">
        <ele>21.6</ele>
        <time>2020-06-23T16:49:05Z</time>
      </trkpt>
      <trkpt lat="50.66196" lon="3.03425">
        <ele>21.6</ele>
        <time>2020-06-23T16:49:06Z</time>
      </trkpt>
      <trkpt lat="50.66193" lon="3.03434">
        <ele>21.7</ele>
        <time>2020-06-23T16:49:07Z</time>
      </trkpt>
      <trkpt lat="50.66189" lon="3.03443">
        <ele>21.7</ele>
        <time>2020-06-23T16:49:08Z</time>
      </trkpt>
      <trkpt lat="50.66186" lon="3.03451">
        <ele>21.8</ele>
        <time>2020-06-23T16:49:09Z</time>
      </trkpt>
      <trkpt lat="50.66183" lon="3.03458">
        <ele>21.8</ele>
        <time>2020-06-23T16:49:10Z</time>
      </trkpt>
      <trkpt lat="50.66179" lon="3.03465">
        <ele>22</ele>
        <time>2020-06-23T16:49:11Z</time>
      </trkpt>
      <trkpt lat="50.66177" lon="3.03472">
        <ele>22.1</ele>
        <time>2020-06-23T16:49:12Z</time>
      </trkpt>
      <trkpt lat="50.66174" lon="3.03479">
        <ele>22.2</ele>
        <time>2020-06-23T16:49:13Z</time>
      </trkpt>
      <trkpt lat="50.66171" lon="3.03485">
        <ele>22.3</ele>
        <time>2020-06-23T16:49:14Z</time>
      </trkpt>
      <trkpt lat="50.66169" lon="3.03491">
        <ele>22.3</ele>
        <time>2020-06-23T16:49:15Z</time>
      </trkpt>
      <trkpt lat="50.66167" lon="3.03496">
        <ele>22.4</ele>
        <time>2020-06-23T16:49:16Z</time>
      </trkpt>
      <trkpt lat="50.66166" lon="3.035">
        <ele>22.4</ele>
        <time>2020-06-23T16:49:17Z</time>
      </trkpt>
      <trkpt lat="50.66164" lon="3.03501">
        <ele>22.5</ele>
        <time>2020-06-23T16:49:18Z</time>
      </trkpt>
      <trkpt lat="50.66163" lon="3.03502">
        <ele>22.5</ele>
        <time>2020-06-23T16:49:19Z</time>
      </trkpt>
      <trkpt lat="50.66161" lon="3.03502">
        <ele>22.5</ele>
        <time>2020-06-23T16:49:20Z</time>
      </trkpt>
      <trkpt lat="50.66161" lon="3.03502">
        <ele>22.5</ele>
        <time>2020-06-23T16:49:21Z</time>
      </trkpt>
      <trkpt lat="50.66161" lon="3.03503">
        <ele>22.5</ele>
        <time>2020-06-23T16:49:22Z</time>
      </trkpt>
      <trkpt lat="50.6616" lon="3.03503">
        <ele>22.5</ele>
        <time>2020-06-23T16:49:23Z</time>
      </trkpt>
      <trkpt lat="50.6616" lon="3.03503">
        <ele>22.5</ele>
        <time>2020-06-23T16:49:24Z</time>
      </trkpt>
      <trkpt lat="50.6616" lon="3.03504">
        <ele>22.5</ele>
        <time>2020-06-23T16:49:25Z</time>
      </trkpt>
      <trkpt lat="50.66159" lon="3.03504">
        <ele>22.5</ele>
        <time>2020-06-23T16:49:26Z</time>
      </trkpt>
      <trkpt lat="50.66159" lon="3.03504">
        <ele>22.5</ele>
        <time>2020-06-23T16:49:27Z</time>
      </trkpt>
      <trkpt lat="50.66157" lon="3.03509">
        <ele>22.7</ele>
        <time>2020-06-23T16:49:28Z</time>
      </trkpt>
      <trkpt lat="50.66156" lon="3.0351">
        <ele>22.7</ele>
        <time>2020-06-23T16:49:29Z</time>
      </trkpt>
      <trkpt lat="50.66155" lon="3.03516">
        <ele>22.6</ele>
        <time>2020-06-23T16:49:30Z</time>
      </trkpt>
      <trkpt lat="50.66154" lon="3.03521">
        <ele>22.5</ele>
        <time>2020-06-23T16:49:31Z</time>
      </trkpt>
      <trkpt lat="50.66153" lon="3.03529">
        <ele>22.4</ele>
        <time>2020-06-23T16:49:32Z</time>
      </trkpt>
      <trkpt lat="50.66151" lon="3.03536">
        <ele>22.3</ele>
        <time>2020-06-23T16:49:33Z</time>
      </trkpt>
      <trkpt lat="50.66149" lon="3.03542">
        <ele>22.2</ele>
        <time>2020-06-23T16:49:34Z</time>
      </trkpt>
      <trkpt lat="50.66146" lon="3.03549">
        <ele>22.1</ele>
        <time>2020-06-23T16:49:35Z</time>
      </trkpt>
      <trkpt lat="50.66144" lon="3.03556">
        <ele>22</ele>
        <time>2020-06-23T16:49:36Z</time>
      </trkpt>
      <trkpt lat="50.6614" lon="3.03564">
        <ele>21.9</ele>
        <time>2020-06-23T16:49:37Z</time>
      </trkpt>
      <trkpt lat="50.66135" lon="3.03573">
        <ele>21.7</ele>
        <time>2020-06-23T16:49:38Z</time>
      </trkpt>
      <trkpt lat="50.66132" lon="3.03582">
        <ele>21.6</ele>
        <time>2020-06-23T16:49:39Z</time>
      </trkpt>
      <trkpt lat="50.66128" lon="3.03591">
        <ele>21.5</ele>
        <time>2020-06-23T16:49:40Z</time>
      </trkpt>
      <trkpt lat="50.66124" lon="3.036">
        <ele>21.5</ele>
        <time>2020-06-23T16:49:41Z</time>
      </trkpt>
      <trkpt lat="50.6612" lon="3.03608">
        <ele>21.5</ele>
        <time>2020-06-23T16:49:42Z</time>
      </trkpt>
      <trkpt lat="50.66117" lon="3.03618">
        <ele>21.5</ele>
        <time>2020-06-23T16:49:43Z</time>
      </trkpt>
      <trkpt lat="50.66112" lon="3.03627">
        <ele>21.5</ele>
        <time>2020-06-23T16:49:44Z</time>
      </trkpt>
      <trkpt lat="50.66109" lon="3.03636">
        <ele>21.5</ele>
        <time>2020-06-23T16:49:45Z</time>
      </trkpt>
      <trkpt lat="50.66105" lon="3.03645">
        <ele>21.6</ele>
        <time>2020-06-23T16:49:46Z</time>
      </trkpt>
      <trkpt lat="50.66102" lon="3.03653">
        <ele>21.6</ele>
        <time>2020-06-23T16:49:47Z</time>
      </trkpt>
      <trkpt lat="50.66097" lon="3.03662">
        <ele>21.6</ele>
        <time>2020-06-23T16:49:48Z</time>
      </trkpt>
      <trkpt lat="50.66094" lon="3.03671">
        <ele>21.5</ele>
        <time>2020-06-23T16:49:49Z</time>
      </trkpt>
      <trkpt lat="50.66089" lon="3.0368">
        <ele>21.5</ele>
        <time>2020-06-23T16:49:50Z</time>
      </trkpt>
      <trkpt lat="50.66085" lon="3.03688">
        <ele>21.5</ele>
        <time>2020-06-23T16:49:51Z</time>
      </trkpt>
      <trkpt lat="50.66081" lon="3.03696">
        <ele>21.4</ele>
        <time>2020-06-23T16:49:52Z</time>
      </trkpt>
      <trkpt lat="50.66077" lon="3.03704">
        <ele>21.4</ele>
        <time>2020-06-23T16:49:53Z</time>
      </trkpt>
      <trkpt lat="50.66072" lon="3.03712">
        <ele>21.4</ele>
        <time>2020-06-23T16:49:54Z</time>
      </trkpt>
      <trkpt lat="50.66067" lon="3.0372">
        <ele>21.4</ele>
        <time>2020-06-23T16:49:55Z</time>
      </trkpt>
      <trkpt lat="50.66062" lon="3.03726">
        <ele>21.3</ele>
        <time>2020-06-23T16:49:56Z</time>
      </trkpt>
      <trkpt lat="50.66057" lon="3.03733">
        <ele>21.3</ele>
        <time>2020-06-23T16:49:57Z</time>
      </trkpt>
      <trkpt lat="50.66052" lon="3.03739">
        <ele>21.3</ele>
        <time>2020-06-23T16:49:58Z</time>
      </trkpt>
      <trkpt lat="50.66046" lon="3.03744">
        <ele>21.3</ele>
        <time>2020-06-23T16:49:59Z</time>
      </trkpt>
      <trkpt lat="50.66041" lon="3.0375">
        <ele>21.4</ele>
        <time>2020-06-23T16:50:00Z</time>
      </trkpt>
      <trkpt lat="50.66035" lon="3.03756">
        <ele>21.4</ele>
        <time>2020-06-23T16:50:01Z</time>
      </trkpt>
      <trkpt lat="50.6603" lon="3.03762">
        <ele>21.5</ele>
        <time>2020-06-23T16:50:02Z</time>
      </trkpt>
      <trkpt lat="50.66025" lon="3.03768">
        <ele>21.5</ele>
        <time>2020-06-23T16:50:03Z</time>
      </trkpt>
      <trkpt lat="50.66019" lon="3.03774">
        <ele>21.6</ele>
        <time>2020-06-23T16:50:04Z</time>
      </trkpt>
      <trkpt lat="50.66013" lon="3.0378">
        <ele>21.5</ele>
        <time>2020-06-23T16:50:05Z</time>
      </trkpt>
      <trkpt lat="50.66007" lon="3.03785">
        <ele>21.5</ele>
        <time>2020-06-23T16:50:06Z</time>
      </trkpt>
      <trkpt lat="50.66002" lon="3.03791">
        <ele>21.5</ele>
        <time>2020-06-23T16:50:07Z</time>
      </trkpt>
      <trkpt lat="50.65996" lon="3.03797">
        <ele>21.5</ele>
        <time>2020-06-23T16:50:08Z</time>
      </trkpt>
      <trkpt lat="50.65991" lon="3.03803">
        <ele>21.5</ele>
        <time>2020-06-23T16:50:09Z</time>
      </trkpt>
      <trkpt lat="50.65986" lon="3.03808">
        <ele>21.5</ele>
        <time>2020-06-23T16:50:10Z</time>
      </trkpt>
      <trkpt lat="50.6598" lon="3.03815">
        <ele>21.5</ele>
        <time>2020-06-23T16:50:11Z</time>
      </trkpt>
      <trkpt lat="50.65974" lon="3.0382">
        <ele>21.5</ele>
        <time>2020-06-23T16:50:12Z</time>
      </trkpt>
      <trkpt lat="50.65969" lon="3.03826">
        <ele>21.5</ele>
        <time>2020-06-23T16:50:13Z</time>
      </trkpt>
      <trkpt lat="50.65963" lon="3.03832">
        <ele>21.6</ele>
        <time>2020-06-23T16:50:14Z</time>
      </trkpt>
      <trkpt lat="50.65958" lon="3.0384">
        <ele>21.6</ele>
        <time>2020-06-23T16:50:15Z</time>
      </trkpt>
      <trkpt lat="50.65953" lon="3.03846">
        <ele>21.6</ele>
        <time>2020-06-23T16:50:16Z</time>
      </trkpt>
      <trkpt lat="50.65948" lon="3.03852">
        <ele>21.7</ele>
        <time>2020-06-23T16:50:17Z</time>
      </trkpt>
      <trkpt lat="50.65942" lon="3.03858">
        <ele>21.7</ele>
        <time>2020-06-23T16:50:18Z</time>
      </trkpt>
      <trkpt lat="50.65936" lon="3.03864">
        <ele>21.7</ele>
        <time>2020-06-23T16:50:19Z</time>
      </trkpt>
      <trkpt lat="50.6593" lon="3.0387">
        <ele>21.7</ele>
        <time>2020-06-23T16:50:20Z</time>
      </trkpt>
      <trkpt lat="50.65924" lon="3.03876">
        <ele>21.7</ele>
        <time>2020-06-23T16:50:21Z</time>
      </trkpt>
      <trkpt lat="50.65918" lon="3.03882">
        <ele>21.7</ele>
        <time>2020-06-23T16:50:22Z</time>
      </trkpt>
      <trkpt lat="50.65913" lon="3.03889">
        <ele>21.7</ele>
        <time>2020-06-23T16:50:23Z</time>
      </trkpt>
      <trkpt lat="50.65908" lon="3.03896">
        <ele>21.7</ele>
        <time>2020-06-23T16:50:24Z</time>
      </trkpt>
      <trkpt lat="50.65903" lon="3.03902">
        <ele>21.7</ele>
        <time>2020-06-23T16:50:25Z</time>
      </trkpt>
      <trkpt lat="50.65897" lon="3.03908">
        <ele>21.7</ele>
        <time>2020-06-23T16:50:26Z</time>
      </trkpt>
      <trkpt lat="50.65891" lon="3.03914">
        <ele>21.7</ele>
        <time>2020-06-23T16:50:27Z</time>
      </trkpt>
      <trkpt lat="50.65885" lon="3.03919">
        <ele>21.7</ele>
        <time>2020-06-23T16:50:28Z</time>
      </trkpt>
      <trkpt lat="50.65879" lon="3.03924">
        <ele>21.7</ele>
        <time>2020-06-23T16:50:29Z</time>
      </trkpt>
      <trkpt lat="50.65872" lon="3.03931">
        <ele>21.6</ele>
        <time>2020-06-23T16:50:30Z</time>
      </trkpt>
      <trkpt lat="50.65866" lon="3.03937">
        <ele>21.5</ele>
        <time>2020-06-23T16:50:31Z</time>
      </trkpt>
      <trkpt lat="50.6586" lon="3.03944">
        <ele>21.4</ele>
        <time>2020-06-23T16:50:32Z</time>
      </trkpt>
      <trkpt lat="50.65855" lon="3.03952">
        <ele>21.4</ele>
        <time>2020-06-23T16:50:33Z</time>
      </trkpt>
      <trkpt lat="50.6585" lon="3.03959">
        <ele>21.4</ele>
        <time>2020-06-23T16:50:34Z</time>
      </trkpt>
      <trkpt lat="50.65845" lon="3.03966">
        <ele>21.4</ele>
        <time>2020-06-23T16:50:35Z</time>
      </trkpt>
      <trkpt lat="50.65839" lon="3.03973">
        <ele>21.4</ele>
        <time>2020-06-23T16:50:36Z</time>
      </trkpt>
      <trkpt lat="50.65835" lon="3.03981">
        <ele>21.5</ele>
        <time>2020-06-23T16:50:37Z</time>
      </trkpt>
      <trkpt lat="50.65829" lon="3.03987">
        <ele>21.5</ele>
        <time>2020-06-23T16:50:38Z</time>
      </trkpt>
      <trkpt lat="50.65823" lon="3.03993">
        <ele>21.5</ele>
        <time>2020-06-23T16:50:39Z</time>
      </trkpt>
      <trkpt lat="50.65818" lon="3.03999">
        <ele>21.6</ele>
        <time>2020-06-23T16:50:40Z</time>
      </trkpt>
      <trkpt lat="50.65813" lon="3.04006">
        <ele>21.6</ele>
        <time>2020-06-23T16:50:41Z</time>
      </trkpt>
      <trkpt lat="50.65808" lon="3.0401">
        <ele>21.6</ele>
        <time>2020-06-23T16:50:42Z</time>
      </trkpt>
      <trkpt lat="50.65803" lon="3.04014">
        <ele>21.7</ele>
        <time>2020-06-23T16:50:43Z</time>
      </trkpt>
      <trkpt lat="50.658" lon="3.04016">
        <ele>21.7</ele>
        <time>2020-06-23T16:50:44Z</time>
      </trkpt>
      <trkpt lat="50.65797" lon="3.04018">
        <ele>21.7</ele>
        <time>2020-06-23T16:50:45Z</time>
      </trkpt>
      <trkpt lat="50.65795" lon="3.04022">
        <ele>21.8</ele>
        <time>2020-06-23T16:50:46Z</time>
      </trkpt>
      <trkpt lat="50.65792" lon="3.04024">
        <ele>21.8</ele>
        <time>2020-06-23T16:50:47Z</time>
      </trkpt>
      <trkpt lat="50.65789" lon="3.04025">
        <ele>21.8</ele>
        <time>2020-06-23T16:50:48Z</time>
      </trkpt>
      <trkpt lat="50.65785" lon="3.04025">
        <ele>21.8</ele>
        <time>2020-06-23T16:50:49Z</time>
      </trkpt>
      <trkpt lat="50.65781" lon="3.04026">
        <ele>21.8</ele>
        <time>2020-06-23T16:50:50Z</time>
      </trkpt>
      <trkpt lat="50.65777" lon="3.04027">
        <ele>21.9</ele>
        <time>2020-06-23T16:50:51Z</time>
      </trkpt>
      <trkpt lat="50.65774" lon="3.04028">
        <ele>21.9</ele>
        <time>2020-06-23T16:50:52Z</time>
      </trkpt>
      <trkpt lat="50.6577" lon="3.0403">
        <ele>21.9</ele>
        <time>2020-06-23T16:50:53Z</time>
      </trkpt>
      <trkpt lat="50.65766" lon="3.04032">
        <ele>22</ele>
        <time>2020-06-23T16:50:54Z</time>
      </trkpt>
      <trkpt lat="50.65762" lon="3.04034">
        <ele>21.9</ele>
        <time>2020-06-23T16:50:55Z</time>
      </trkpt>
      <trkpt lat="50.65756" lon="3.04038">
        <ele>21.9</ele>
        <time>2020-06-23T16:50:56Z</time>
      </trkpt>
      <trkpt lat="50.6575" lon="3.04042">
        <ele>21.9</ele>
        <time>2020-06-23T16:50:57Z</time>
      </trkpt>
      <trkpt lat="50.65744" lon="3.04045">
        <ele>21.9</ele>
        <time>2020-06-23T16:50:58Z</time>
      </trkpt>
      <trkpt lat="50.65738" lon="3.04049">
        <ele>21.9</ele>
        <time>2020-06-23T16:50:59Z</time>
      </trkpt>
      <trkpt lat="50.65731" lon="3.0405">
        <ele>21.9</ele>
        <time>2020-06-23T16:51:00Z</time>
      </trkpt>
      <trkpt lat="50.65725" lon="3.04052">
        <ele>21.9</ele>
        <time>2020-06-23T16:51:01Z</time>
      </trkpt>
      <trkpt lat="50.65719" lon="3.04055">
        <ele>21.9</ele>
        <time>2020-06-23T16:51:02Z</time>
      </trkpt>
      <trkpt lat="50.65713" lon="3.0406">
        <ele>21.9</ele>
        <time>2020-06-23T16:51:03Z</time>
      </trkpt>
      <trkpt lat="50.65707" lon="3.04063">
        <ele>21.9</ele>
        <time>2020-06-23T16:51:04Z</time>
      </trkpt>
      <trkpt lat="50.65701" lon="3.04066">
        <ele>21.9</ele>
        <time>2020-06-23T16:51:05Z</time>
      </trkpt>
      <trkpt lat="50.65694" lon="3.0407">
        <ele>22</ele>
        <time>2020-06-23T16:51:06Z</time>
      </trkpt>
      <trkpt lat="50.65687" lon="3.04073">
        <ele>21.9</ele>
        <time>2020-06-23T16:51:07Z</time>
      </trkpt>
      <trkpt lat="50.6568" lon="3.04077">
        <ele>21.8</ele>
        <time>2020-06-23T16:51:08Z</time>
      </trkpt>
      <trkpt lat="50.65672" lon="3.04084">
        <ele>21.6</ele>
        <time>2020-06-23T16:51:09Z</time>
      </trkpt>
      <trkpt lat="50.65665" lon="3.04088">
        <ele>21.5</ele>
        <time>2020-06-23T16:51:10Z</time>
      </trkpt>
      <trkpt lat="50.65657" lon="3.04096">
        <ele>21.4</ele>
        <time>2020-06-23T16:51:11Z</time>
      </trkpt>
      <trkpt lat="50.65648" lon="3.04103">
        <ele>21.3</ele>
        <time>2020-06-23T16:51:12Z</time>
      </trkpt>
      <trkpt lat="50.65639" lon="3.04109">
        <ele>21.3</ele>
        <time>2020-06-23T16:51:13Z</time>
      </trkpt>
      <trkpt lat="50.65632" lon="3.04116">
        <ele>21.3</ele>
        <time>2020-06-23T16:51:14Z</time>
      </trkpt>
      <trkpt lat="50.65626" lon="3.04124">
        <ele>21.3</ele>
        <time>2020-06-23T16:51:15Z</time>
      </trkpt>
      <trkpt lat="50.65621" lon="3.04133">
        <ele>21.3</ele>
        <time>2020-06-23T16:51:16Z</time>
      </trkpt>
      <trkpt lat="50.65617" lon="3.04143">
        <ele>21.3</ele>
        <time>2020-06-23T16:51:17Z</time>
      </trkpt>
      <trkpt lat="50.65613" lon="3.04153">
        <ele>21.3</ele>
        <time>2020-06-23T16:51:18Z</time>
      </trkpt>
      <trkpt lat="50.6561" lon="3.04164">
        <ele>21.3</ele>
        <time>2020-06-23T16:51:19Z</time>
      </trkpt>
      <trkpt lat="50.65605" lon="3.04174">
        <ele>21.3</ele>
        <time>2020-06-23T16:51:20Z</time>
      </trkpt>
      <trkpt lat="50.65601" lon="3.04185">
        <ele>21.3</ele>
        <time>2020-06-23T16:51:21Z</time>
      </trkpt>
      <trkpt lat="50.65597" lon="3.04195">
        <ele>21.3</ele>
        <time>2020-06-23T16:51:22Z</time>
      </trkpt>
      <trkpt lat="50.65593" lon="3.04205">
        <ele>21.4</ele>
        <time>2020-06-23T16:51:23Z</time>
      </trkpt>
      <trkpt lat="50.65589" lon="3.04214">
        <ele>21.4</ele>
        <time>2020-06-23T16:51:24Z</time>
      </trkpt>
      <trkpt lat="50.65585" lon="3.04223">
        <ele>21.4</ele>
        <time>2020-06-23T16:51:25Z</time>
      </trkpt>
      <trkpt lat="50.65582" lon="3.04233">
        <ele>21.3</ele>
        <time>2020-06-23T16:51:26Z</time>
      </trkpt>
      <trkpt lat="50.65577" lon="3.04242">
        <ele>21.3</ele>
        <time>2020-06-23T16:51:27Z</time>
      </trkpt>
      <trkpt lat="50.65573" lon="3.04252">
        <ele>21.3</ele>
        <time>2020-06-23T16:51:28Z</time>
      </trkpt>
      <trkpt lat="50.65569" lon="3.04262">
        <ele>21.3</ele>
        <time>2020-06-23T16:51:29Z</time>
      </trkpt>
      <trkpt lat="50.65565" lon="3.04272">
        <ele>21.3</ele>
        <time>2020-06-23T16:51:30Z</time>
      </trkpt>
      <trkpt lat="50.65561" lon="3.04283">
        <ele>21.3</ele>
        <time>2020-06-23T16:51:31Z</time>
      </trkpt>
      <trkpt lat="50.65557" lon="3.04292">
        <ele>21.3</ele>
        <time>2020-06-23T16:51:32Z</time>
      </trkpt>
      <trkpt lat="50.65553" lon="3.04301">
        <ele>21.2</ele>
        <time>2020-06-23T16:51:33Z</time>
      </trkpt>
      <trkpt lat="50.65549" lon="3.0431">
        <ele>21.2</ele>
        <time>2020-06-23T16:51:34Z</time>
      </trkpt>
      <trkpt lat="50.65545" lon="3.0432">
        <ele>21.2</ele>
        <time>2020-06-23T16:51:35Z</time>
      </trkpt>
      <trkpt lat="50.65541" lon="3.04329">
        <ele>21.2</ele>
        <time>2020-06-23T16:51:36Z</time>
      </trkpt>
      <trkpt lat="50.65537" lon="3.04338">
        <ele>21.3</ele>
        <time>2020-06-23T16:51:37Z</time>
      </trkpt>
      <trkpt lat="50.65532" lon="3.04349">
        <ele>21.3</ele>
        <time>2020-06-23T16:51:38Z</time>
      </trkpt>
      <trkpt lat="50.65528" lon="3.04357">
        <ele>21.4</ele>
        <time>2020-06-23T16:51:39Z</time>
      </trkpt>
      <trkpt lat="50.65523" lon="3.04367">
        <ele>21.4</ele>
        <time>2020-06-23T16:51:40Z</time>
      </trkpt>
      <trkpt lat="50.65519" lon="3.04376">
        <ele>21.3</ele>
        <time>2020-06-23T16:51:41Z</time>
      </trkpt>
      <trkpt lat="50.65515" lon="3.04386">
        <ele>21.3</ele>
        <time>2020-06-23T16:51:42Z</time>
      </trkpt>
      <trkpt lat="50.65511" lon="3.04396">
        <ele>21.2</ele>
        <time>2020-06-23T16:51:43Z</time>
      </trkpt>
      <trkpt lat="50.65507" lon="3.04407">
        <ele>21.1</ele>
        <time>2020-06-23T16:51:44Z</time>
      </trkpt>
      <trkpt lat="50.65503" lon="3.04417">
        <ele>21</ele>
        <time>2020-06-23T16:51:45Z</time>
      </trkpt>
      <trkpt lat="50.65499" lon="3.04427">
        <ele>20.9</ele>
        <time>2020-06-23T16:51:46Z</time>
      </trkpt>
      <trkpt lat="50.65496" lon="3.04438">
        <ele>20.8</ele>
        <time>2020-06-23T16:51:47Z</time>
      </trkpt>
      <trkpt lat="50.65492" lon="3.04447">
        <ele>20.6</ele>
        <time>2020-06-23T16:51:48Z</time>
      </trkpt>
      <trkpt lat="50.65488" lon="3.04456">
        <ele>20.5</ele>
        <time>2020-06-23T16:51:49Z</time>
      </trkpt>
      <trkpt lat="50.65483" lon="3.04465">
        <ele>20.3</ele>
        <time>2020-06-23T16:51:50Z</time>
      </trkpt>
      <trkpt lat="50.65479" lon="3.04475">
        <ele>20.1</ele>
        <time>2020-06-23T16:51:51Z</time>
      </trkpt>
      <trkpt lat="50.65476" lon="3.04484">
        <ele>19.9</ele>
        <time>2020-06-23T16:51:52Z</time>
      </trkpt>
      <trkpt lat="50.65473" lon="3.04494">
        <ele>19.7</ele>
        <time>2020-06-23T16:51:53Z</time>
      </trkpt>
      <trkpt lat="50.6547" lon="3.04505">
        <ele>19.5</ele>
        <time>2020-06-23T16:51:54Z</time>
      </trkpt>
      <trkpt lat="50.65469" lon="3.04517">
        <ele>19.5</ele>
        <time>2020-06-23T16:51:55Z</time>
      </trkpt>
      <trkpt lat="50.65467" lon="3.04529">
        <ele>19.5</ele>
        <time>2020-06-23T16:51:56Z</time>
      </trkpt>
      <trkpt lat="50.65466" lon="3.04541">
        <ele>19.5</ele>
        <time>2020-06-23T16:51:57Z</time>
      </trkpt>
      <trkpt lat="50.65466" lon="3.04554">
        <ele>19.6</ele>
        <time>2020-06-23T16:51:58Z</time>
      </trkpt>
      <trkpt lat="50.65468" lon="3.04567">
        <ele>19.8</ele>
        <time>2020-06-23T16:51:59Z</time>
      </trkpt>
      <trkpt lat="50.6547" lon="3.04579">
        <ele>19.9</ele>
        <time>2020-06-23T16:52:00Z</time>
      </trkpt>
      <trkpt lat="50.65471" lon="3.04592">
        <ele>20</ele>
        <time>2020-06-23T16:52:01Z</time>
      </trkpt>
      <trkpt lat="50.65473" lon="3.04605">
        <ele>20.1</ele>
        <time>2020-06-23T16:52:02Z</time>
      </trkpt>
      <trkpt lat="50.65474" lon="3.04617">
        <ele>20.3</ele>
        <time>2020-06-23T16:52:03Z</time>
      </trkpt>
      <trkpt lat="50.65476" lon="3.04629">
        <ele>20.4</ele>
        <time>2020-06-23T16:52:04Z</time>
      </trkpt>
      <trkpt lat="50.65477" lon="3.04641">
        <ele>20.5</ele>
        <time>2020-06-23T16:52:05Z</time>
      </trkpt>
      <trkpt lat="50.65478" lon="3.04653">
        <ele>20.5</ele>
        <time>2020-06-23T16:52:06Z</time>
      </trkpt>
      <trkpt lat="50.65479" lon="3.04665">
        <ele>20.5</ele>
        <time>2020-06-23T16:52:07Z</time>
      </trkpt>
      <trkpt lat="50.6548" lon="3.04677">
        <ele>20.6</ele>
        <time>2020-06-23T16:52:08Z</time>
      </trkpt>
      <trkpt lat="50.65481" lon="3.04688">
        <ele>20.6</ele>
        <time>2020-06-23T16:52:09Z</time>
      </trkpt>
      <trkpt lat="50.65482" lon="3.047">
        <ele>20.7</ele>
        <time>2020-06-23T16:52:10Z</time>
      </trkpt>
      <trkpt lat="50.65484" lon="3.04712">
        <ele>20.9</ele>
        <time>2020-06-23T16:52:11Z</time>
      </trkpt>
      <trkpt lat="50.65485" lon="3.04723">
        <ele>21</ele>
        <time>2020-06-23T16:52:12Z</time>
      </trkpt>
      <trkpt lat="50.65486" lon="3.04734">
        <ele>21.1</ele>
        <time>2020-06-23T16:52:13Z</time>
      </trkpt>
      <trkpt lat="50.65487" lon="3.04744">
        <ele>21.2</ele>
        <time>2020-06-23T16:52:14Z</time>
      </trkpt>
      <trkpt lat="50.65488" lon="3.04755">
        <ele>21.3</ele>
        <time>2020-06-23T16:52:15Z</time>
      </trkpt>
      <trkpt lat="50.6549" lon="3.04766">
        <ele>21.5</ele>
        <time>2020-06-23T16:52:16Z</time>
      </trkpt>
      <trkpt lat="50.65492" lon="3.04776">
        <ele>21.6</ele>
        <time>2020-06-23T16:52:17Z</time>
      </trkpt>
      <trkpt lat="50.65494" lon="3.04787">
        <ele>21.7</ele>
        <time>2020-06-23T16:52:18Z</time>
      </trkpt>
      <trkpt lat="50.65496" lon="3.04797">
        <ele>21.8</ele>
        <time>2020-06-23T16:52:19Z</time>
      </trkpt>
      <trkpt lat="50.65498" lon="3.04806">
        <ele>22</ele>
        <time>2020-06-23T16:52:20Z</time>
      </trkpt>
      <trkpt lat="50.65501" lon="3.04815">
        <ele>22.1</ele>
        <time>2020-06-23T16:52:21Z</time>
      </trkpt>
      <trkpt lat="50.65504" lon="3.04824">
        <ele>22.2</ele>
        <time>2020-06-23T16:52:22Z</time>
      </trkpt>
      <trkpt lat="50.65507" lon="3.04832">
        <ele>22.4</ele>
        <time>2020-06-23T16:52:23Z</time>
      </trkpt>
      <trkpt lat="50.6551" lon="3.0484">
        <ele>22.5</ele>
        <time>2020-06-23T16:52:24Z</time>
      </trkpt>
      <trkpt lat="50.65513" lon="3.04848">
        <ele>22.6</ele>
        <time>2020-06-23T16:52:25Z</time>
      </trkpt>
      <trkpt lat="50.65516" lon="3.04856">
        <ele>22.7</ele>
        <time>2020-06-23T16:52:26Z</time>
      </trkpt>
      <trkpt lat="50.6552" lon="3.04862">
        <ele>22.8</ele>
        <time>2020-06-23T16:52:27Z</time>
      </trkpt>
      <trkpt lat="50.65525" lon="3.04868">
        <ele>22.9</ele>
        <time>2020-06-23T16:52:28Z</time>
      </trkpt>
      <trkpt lat="50.65529" lon="3.04875">
        <ele>23</ele>
        <time>2020-06-23T16:52:29Z</time>
      </trkpt>
      <trkpt lat="50.65532" lon="3.04883">
        <ele>23.1</ele>
        <time>2020-06-23T16:52:30Z</time>
      </trkpt>
      <trkpt lat="50.65536" lon="3.04891">
        <ele>23.2</ele>
        <time>2020-06-23T16:52:31Z</time>
      </trkpt>
      <trkpt lat="50.65539" lon="3.04898">
        <ele>23.3</ele>
        <time>2020-06-23T16:52:32Z</time>
      </trkpt>
      <trkpt lat="50.65543" lon="3.04905">
        <ele>23.4</ele>
        <time>2020-06-23T16:52:33Z</time>
      </trkpt>
      <trkpt lat="50.65547" lon="3.04911">
        <ele>23.5</ele>
        <time>2020-06-23T16:52:34Z</time>
      </trkpt>
      <trkpt lat="50.65551" lon="3.04918">
        <ele>23.6</ele>
        <time>2020-06-23T16:52:35Z</time>
      </trkpt>
      <trkpt lat="50.65555" lon="3.04924">
        <ele>23.8</ele>
        <time>2020-06-23T16:52:36Z</time>
      </trkpt>
      <trkpt lat="50.65558" lon="3.04931">
        <ele>24.1</ele>
        <time>2020-06-23T16:52:37Z</time>
      </trkpt>
      <trkpt lat="50.65562" lon="3.04937">
        <ele>24.4</ele>
        <time>2020-06-23T16:52:38Z</time>
      </trkpt>
      <trkpt lat="50.65565" lon="3.04943">
        <ele>24.6</ele>
        <time>2020-06-23T16:52:39Z</time>
      </trkpt>
      <trkpt lat="50.65568" lon="3.04947">
        <ele>25</ele>
        <time>2020-06-23T16:52:40Z</time>
      </trkpt>
      <trkpt lat="50.6557" lon="3.04954">
        <ele>25</ele>
        <time>2020-06-23T16:52:41Z</time>
      </trkpt>
      <trkpt lat="50.6557" lon="3.04957">
        <ele>25</ele>
        <time>2020-06-23T16:52:42Z</time>
      </trkpt>
      <trkpt lat="50.65569" lon="3.04958">
        <ele>25</ele>
        <time>2020-06-23T16:52:43Z</time>
      </trkpt>
      <trkpt lat="50.65565" lon="3.04961">
        <ele>25</ele>
        <time>2020-06-23T16:52:44Z</time>
      </trkpt>
      <trkpt lat="50.65564" lon="3.04962">
        <ele>25</ele>
        <time>2020-06-23T16:52:45Z</time>
      </trkpt>
      <trkpt lat="50.65562" lon="3.04965">
        <ele>25</ele>
        <time>2020-06-23T16:52:46Z</time>
      </trkpt>
      <trkpt lat="50.65559" lon="3.04969">
        <ele>25.1</ele>
        <time>2020-06-23T16:52:47Z</time>
      </trkpt>
      <trkpt lat="50.65555" lon="3.04974">
        <ele>25.2</ele>
        <time>2020-06-23T16:52:48Z</time>
      </trkpt>
      <trkpt lat="50.65551" lon="3.04978">
        <ele>25.3</ele>
        <time>2020-06-23T16:52:49Z</time>
      </trkpt>
      <trkpt lat="50.65546" lon="3.04984">
        <ele>25.3</ele>
        <time>2020-06-23T16:52:50Z</time>
      </trkpt>
      <trkpt lat="50.65542" lon="3.04988">
        <ele>25.4</ele>
        <time>2020-06-23T16:52:51Z</time>
      </trkpt>
      <trkpt lat="50.65539" lon="3.04991">
        <ele>25.3</ele>
        <time>2020-06-23T16:52:52Z</time>
      </trkpt>
      <trkpt lat="50.65536" lon="3.04994">
        <ele>25.3</ele>
        <time>2020-06-23T16:52:53Z</time>
      </trkpt>
      <trkpt lat="50.65534" lon="3.04998">
        <ele>25.3</ele>
        <time>2020-06-23T16:52:54Z</time>
      </trkpt>
      <trkpt lat="50.65531" lon="3.05001">
        <ele>25.2</ele>
        <time>2020-06-23T16:52:55Z</time>
      </trkpt>
      <trkpt lat="50.65528" lon="3.05005">
        <ele>25.2</ele>
        <time>2020-06-23T16:52:56Z</time>
      </trkpt>
      <trkpt lat="50.65524" lon="3.0501">
        <ele>25.2</ele>
        <time>2020-06-23T16:52:57Z</time>
      </trkpt>
      <trkpt lat="50.65521" lon="3.05015">
        <ele>25.1</ele>
        <time>2020-06-23T16:52:58Z</time>
      </trkpt>
      <trkpt lat="50.65518" lon="3.05018">
        <ele>25.1</ele>
        <time>2020-06-23T16:52:59Z</time>
      </trkpt>
      <trkpt lat="50.65515" lon="3.0502">
        <ele>25.1</ele>
        <time>2020-06-23T16:53:00Z</time>
      </trkpt>
      <trkpt lat="50.65513" lon="3.05023">
        <ele>25.1</ele>
        <time>2020-06-23T16:53:01Z</time>
      </trkpt>
      <trkpt lat="50.65512" lon="3.05025">
        <ele>25.1</ele>
        <time>2020-06-23T16:53:02Z</time>
      </trkpt>
      <trkpt lat="50.65511" lon="3.05032">
        <ele>25.1</ele>
        <time>2020-06-23T16:53:03Z</time>
      </trkpt>
      <trkpt lat="50.6551" lon="3.05036">
        <ele>25.1</ele>
        <time>2020-06-23T16:53:04Z</time>
      </trkpt>
      <trkpt lat="50.6551" lon="3.05042">
        <ele>25.1</ele>
        <time>2020-06-23T16:53:05Z</time>
      </trkpt>
      <trkpt lat="50.65511" lon="3.05047">
        <ele>25.1</ele>
        <time>2020-06-23T16:53:06Z</time>
      </trkpt>
      <trkpt lat="50.65511" lon="3.05053">
        <ele>25</ele>
        <time>2020-06-23T16:53:07Z</time>
      </trkpt>
      <trkpt lat="50.6551" lon="3.05061">
        <ele>24.9</ele>
        <time>2020-06-23T16:53:08Z</time>
      </trkpt>
      <trkpt lat="50.65509" lon="3.05068">
        <ele>24.7</ele>
        <time>2020-06-23T16:53:09Z</time>
      </trkpt>
      <trkpt lat="50.65509" lon="3.05075">
        <ele>24.6</ele>
        <time>2020-06-23T16:53:10Z</time>
      </trkpt>
      <trkpt lat="50.65507" lon="3.05081">
        <ele>24.5</ele>
        <time>2020-06-23T16:53:11Z</time>
      </trkpt>
      <trkpt lat="50.65504" lon="3.05084">
        <ele>24.4</ele>
        <time>2020-06-23T16:53:12Z</time>
      </trkpt>
      <trkpt lat="50.655" lon="3.05087">
        <ele>24.2</ele>
        <time>2020-06-23T16:53:13Z</time>
      </trkpt>
      <trkpt lat="50.65496" lon="3.05094">
        <ele>24.1</ele>
        <time>2020-06-23T16:53:14Z</time>
      </trkpt>
      <trkpt lat="50.65492" lon="3.05099">
        <ele>24</ele>
        <time>2020-06-23T16:53:15Z</time>
      </trkpt>
      <trkpt lat="50.65487" lon="3.05105">
        <ele>23.8</ele>
        <time>2020-06-23T16:53:16Z</time>
      </trkpt>
      <trkpt lat="50.65483" lon="3.05111">
        <ele>23.7</ele>
        <time>2020-06-23T16:53:17Z</time>
      </trkpt>
      <trkpt lat="50.65478" lon="3.05117">
        <ele>23.5</ele>
        <time>2020-06-23T16:53:18Z</time>
      </trkpt>
      <trkpt lat="50.65474" lon="3.05124">
        <ele>23.4</ele>
        <time>2020-06-23T16:53:19Z</time>
      </trkpt>
      <trkpt lat="50.65469" lon="3.05131">
        <ele>23.2</ele>
        <time>2020-06-23T16:53:20Z</time>
      </trkpt>
      <trkpt lat="50.65465" lon="3.05138">
        <ele>23</ele>
        <time>2020-06-23T16:53:21Z</time>
      </trkpt>
      <trkpt lat="50.6546" lon="3.05143">
        <ele>22.9</ele>
        <time>2020-06-23T16:53:22Z</time>
      </trkpt>
      <trkpt lat="50.65455" lon="3.05149">
        <ele>22.7</ele>
        <time>2020-06-23T16:53:23Z</time>
      </trkpt>
      <trkpt lat="50.6545" lon="3.05156">
        <ele>22.6</ele>
        <time>2020-06-23T16:53:24Z</time>
      </trkpt>
      <trkpt lat="50.65446" lon="3.05163">
        <ele>22.4</ele>
        <time>2020-06-23T16:53:25Z</time>
      </trkpt>
      <trkpt lat="50.65442" lon="3.05169">
        <ele>22.3</ele>
        <time>2020-06-23T16:53:26Z</time>
      </trkpt>
      <trkpt lat="50.65439" lon="3.05174">
        <ele>22.2</ele>
        <time>2020-06-23T16:53:27Z</time>
      </trkpt>
      <trkpt lat="50.65436" lon="3.05179">
        <ele>22.1</ele>
        <time>2020-06-23T16:53:28Z</time>
      </trkpt>
      <trkpt lat="50.65433" lon="3.05184">
        <ele>22</ele>
        <time>2020-06-23T16:53:29Z</time>
      </trkpt>
      <trkpt lat="50.6543" lon="3.0519">
        <ele>21.9</ele>
        <time>2020-06-23T16:53:30Z</time>
      </trkpt>
      <trkpt lat="50.65427" lon="3.05194">
        <ele>21.8</ele>
        <time>2020-06-23T16:53:31Z</time>
      </trkpt>
      <trkpt lat="50.65424" lon="3.05199">
        <ele>21.7</ele>
        <time>2020-06-23T16:53:32Z</time>
      </trkpt>
      <trkpt lat="50.65421" lon="3.05202">
        <ele>21.6</ele>
        <time>2020-06-23T16:53:33Z</time>
      </trkpt>
      <trkpt lat="50.65418" lon="3.05207">
        <ele>21.5</ele>
        <time>2020-06-23T16:53:34Z</time>
      </trkpt>
      <trkpt lat="50.65415" lon="3.05211">
        <ele>21.4</ele>
        <time>2020-06-23T16:53:35Z</time>
      </trkpt>
      <trkpt lat="50.65412" lon="3.05214">
        <ele>21.3</ele>
        <time>2020-06-23T16:53:36Z</time>
      </trkpt>
      <trkpt lat="50.6541" lon="3.05218">
        <ele>21.3</ele>
        <time>2020-06-23T16:53:37Z</time>
      </trkpt>
      <trkpt lat="50.65407" lon="3.05221">
        <ele>21.2</ele>
        <time>2020-06-23T16:53:38Z</time>
      </trkpt>
      <trkpt lat="50.65406" lon="3.05221">
        <ele>21.2</ele>
        <time>2020-06-23T16:53:39Z</time>
      </trkpt>
      <trkpt lat="50.65406" lon="3.05225">
        <ele>21.2</ele>
        <time>2020-06-23T16:53:40Z</time>
      </trkpt>
      <trkpt lat="50.65407" lon="3.05225">
        <ele>21.2</ele>
        <time>2020-06-23T16:53:41Z</time>
      </trkpt>
      <trkpt lat="50.65407" lon="3.05226">
        <ele>21.2</ele>
        <time>2020-06-23T16:53:42Z</time>
      </trkpt>
      <trkpt lat="50.65407" lon="3.05226">
        <ele>21.2</ele>
        <time>2020-06-23T16:53:43Z</time>
      </trkpt>
      <trkpt lat="50.65407" lon="3.05227">
        <ele>21.2</ele>
        <time>2020-06-23T16:53:44Z</time>
      </trkpt>
      <trkpt lat="50.65407" lon="3.05227">
        <ele>21.2</ele>
        <time>2020-06-23T16:53:45Z</time>
      </trkpt>
      <trkpt lat="50.65408" lon="3.05228">
        <ele>21.2</ele>
        <time>2020-06-23T16:53:46Z</time>
      </trkpt>
      <trkpt lat="50.65408" lon="3.05231">
        <ele>21.2</ele>
        <time>2020-06-23T16:53:47Z</time>
      </trkpt>
      <trkpt lat="50.65409" lon="3.05233">
        <ele>21.2</ele>
        <time>2020-06-23T16:53:48Z</time>
      </trkpt>
      <trkpt lat="50.65409" lon="3.05235">
        <ele>21.3</ele>
        <time>2020-06-23T16:53:49Z</time>
      </trkpt>
      <trkpt lat="50.6541" lon="3.05239">
        <ele>21</ele>
        <time>2020-06-23T16:53:50Z</time>
      </trkpt>
      <trkpt lat="50.65412" lon="3.05245">
        <ele>20.9</ele>
        <time>2020-06-23T16:53:51Z</time>
      </trkpt>
      <trkpt lat="50.65415" lon="3.0525">
        <ele>20.9</ele>
        <time>2020-06-23T16:53:52Z</time>
      </trkpt>
      <trkpt lat="50.65417" lon="3.05256">
        <ele>20.9</ele>
        <time>2020-06-23T16:53:53Z</time>
      </trkpt>
      <trkpt lat="50.6542" lon="3.05263">
        <ele>20.9</ele>
        <time>2020-06-23T16:53:54Z</time>
      </trkpt>
      <trkpt lat="50.65423" lon="3.05269">
        <ele>20.9</ele>
        <time>2020-06-23T16:53:55Z</time>
      </trkpt>
      <trkpt lat="50.65426" lon="3.05277">
        <ele>20.9</ele>
        <time>2020-06-23T16:53:56Z</time>
      </trkpt>
      <trkpt lat="50.65428" lon="3.05284">
        <ele>20.9</ele>
        <time>2020-06-23T16:53:57Z</time>
      </trkpt>
      <trkpt lat="50.6543" lon="3.05292">
        <ele>21</ele>
        <time>2020-06-23T16:53:58Z</time>
      </trkpt>
      <trkpt lat="50.65433" lon="3.05301">
        <ele>21</ele>
        <time>2020-06-23T16:53:59Z</time>
      </trkpt>
      <trkpt lat="50.65436" lon="3.05311">
        <ele>21.1</ele>
        <time>2020-06-23T16:54:00Z</time>
      </trkpt>
      <trkpt lat="50.65437" lon="3.05319">
        <ele>21.2</ele>
        <time>2020-06-23T16:54:01Z</time>
      </trkpt>
      <trkpt lat="50.65438" lon="3.05329">
        <ele>21.3</ele>
        <time>2020-06-23T16:54:02Z</time>
      </trkpt>
      <trkpt lat="50.65438" lon="3.05339">
        <ele>21.5</ele>
        <time>2020-06-23T16:54:03Z</time>
      </trkpt>
      <trkpt lat="50.65437" lon="3.0535">
        <ele>21.6</ele>
        <time>2020-06-23T16:54:04Z</time>
      </trkpt>
      <trkpt lat="50.65437" lon="3.0536">
        <ele>21.8</ele>
        <time>2020-06-23T16:54:05Z</time>
      </trkpt>
      <trkpt lat="50.65437" lon="3.0537">
        <ele>22.1</ele>
        <time>2020-06-23T16:54:06Z</time>
      </trkpt>
      <trkpt lat="50.65437" lon="3.0538">
        <ele>22.3</ele>
        <time>2020-06-23T16:54:07Z</time>
      </trkpt>
      <trkpt lat="50.65436" lon="3.05388">
        <ele>22.5</ele>
        <time>2020-06-23T16:54:08Z</time>
      </trkpt>
      <trkpt lat="50.65435" lon="3.05396">
        <ele>22.7</ele>
        <time>2020-06-23T16:54:09Z</time>
      </trkpt>
      <trkpt lat="50.65433" lon="3.05407">
        <ele>22.9</ele>
        <time>2020-06-23T16:54:10Z</time>
      </trkpt>
      <trkpt lat="50.65432" lon="3.05415">
        <ele>23.1</ele>
        <time>2020-06-23T16:54:11Z</time>
      </trkpt>
      <trkpt lat="50.6543" lon="3.05425">
        <ele>23.3</ele>
        <time>2020-06-23T16:54:12Z</time>
      </trkpt>
      <trkpt lat="50.65429" lon="3.05434">
        <ele>23.5</ele>
        <time>2020-06-23T16:54:13Z</time>
      </trkpt>
      <trkpt lat="50.65428" lon="3.05443">
        <ele>23.7</ele>
        <time>2020-06-23T16:54:14Z</time>
      </trkpt>
      <trkpt lat="50.65428" lon="3.05453">
        <ele>23.9</ele>
        <time>2020-06-23T16:54:15Z</time>
      </trkpt>
      <trkpt lat="50.65427" lon="3.05461">
        <ele>24</ele>
        <time>2020-06-23T16:54:16Z</time>
      </trkpt>
      <trkpt lat="50.65426" lon="3.05468">
        <ele>24.1</ele>
        <time>2020-06-23T16:54:17Z</time>
      </trkpt>
      <trkpt lat="50.65425" lon="3.05473">
        <ele>24.2</ele>
        <time>2020-06-23T16:54:18Z</time>
      </trkpt>
      <trkpt lat="50.65425" lon="3.05481">
        <ele>24.2</ele>
        <time>2020-06-23T16:54:19Z</time>
      </trkpt>
      <trkpt lat="50.65425" lon="3.05488">
        <ele>24.3</ele>
        <time>2020-06-23T16:54:20Z</time>
      </trkpt>
      <trkpt lat="50.65426" lon="3.05495">
        <ele>24.3</ele>
        <time>2020-06-23T16:54:21Z</time>
      </trkpt>
      <trkpt lat="50.65426" lon="3.05504">
        <ele>24.2</ele>
        <time>2020-06-23T16:54:22Z</time>
      </trkpt>
      <trkpt lat="50.65427" lon="3.05514">
        <ele>24.2</ele>
        <time>2020-06-23T16:54:23Z</time>
      </trkpt>
      <trkpt lat="50.65427" lon="3.05523">
        <ele>24.1</ele>
        <time>2020-06-23T16:54:24Z</time>
      </trkpt>
      <trkpt lat="50.65428" lon="3.05531">
        <ele>24</ele>
        <time>2020-06-23T16:54:25Z</time>
      </trkpt>
      <trkpt lat="50.65429" lon="3.05539">
        <ele>23.9</ele>
        <time>2020-06-23T16:54:26Z</time>
      </trkpt>
      <trkpt lat="50.65429" lon="3.05548">
        <ele>23.8</ele>
        <time>2020-06-23T16:54:27Z</time>
      </trkpt>
      <trkpt lat="50.65429" lon="3.05556">
        <ele>23.6</ele>
        <time>2020-06-23T16:54:28Z</time>
      </trkpt>
      <trkpt lat="50.65429" lon="3.05564">
        <ele>23.5</ele>
        <time>2020-06-23T16:54:29Z</time>
      </trkpt>
      <trkpt lat="50.65429" lon="3.05573">
        <ele>23.3</ele>
        <time>2020-06-23T16:54:30Z</time>
      </trkpt>
      <trkpt lat="50.6543" lon="3.05583">
        <ele>23.1</ele>
        <time>2020-06-23T16:54:31Z</time>
      </trkpt>
      <trkpt lat="50.6543" lon="3.05593">
        <ele>22.8</ele>
        <time>2020-06-23T16:54:32Z</time>
      </trkpt>
      <trkpt lat="50.6543" lon="3.05602">
        <ele>22.4</ele>
        <time>2020-06-23T16:54:33Z</time>
      </trkpt>
      <trkpt lat="50.6543" lon="3.05612">
        <ele>22.3</ele>
        <time>2020-06-23T16:54:34Z</time>
      </trkpt>
      <trkpt lat="50.6543" lon="3.05622">
        <ele>21.8</ele>
        <time>2020-06-23T16:54:35Z</time>
      </trkpt>
      <trkpt lat="50.65428" lon="3.05632">
        <ele>21.5</ele>
        <time>2020-06-23T16:54:36Z</time>
      </trkpt>
      <trkpt lat="50.65425" lon="3.05642">
        <ele>21.2</ele>
        <time>2020-06-23T16:54:37Z</time>
      </trkpt>
      <trkpt lat="50.65419" lon="3.05649">
        <ele>20.9</ele>
        <time>2020-06-23T16:54:38Z</time>
      </trkpt>
      <trkpt lat="50.65412" lon="3.05652">
        <ele>20.6</ele>
        <time>2020-06-23T16:54:39Z</time>
      </trkpt>
      <trkpt lat="50.65405" lon="3.05651">
        <ele>20.3</ele>
        <time>2020-06-23T16:54:40Z</time>
      </trkpt>
      <trkpt lat="50.65397" lon="3.0565">
        <ele>20</ele>
        <time>2020-06-23T16:54:41Z</time>
      </trkpt>
      <trkpt lat="50.65389" lon="3.0565">
        <ele>19.4</ele>
        <time>2020-06-23T16:54:42Z</time>
      </trkpt>
      <trkpt lat="50.65381" lon="3.0565">
        <ele>19.2</ele>
        <time>2020-06-23T16:54:43Z</time>
      </trkpt>
      <trkpt lat="50.65373" lon="3.0565">
        <ele>18.9</ele>
        <time>2020-06-23T16:54:44Z</time>
      </trkpt>
      <trkpt lat="50.65364" lon="3.0565">
        <ele>18.6</ele>
        <time>2020-06-23T16:54:45Z</time>
      </trkpt>
      <trkpt lat="50.65356" lon="3.0565">
        <ele>18.4</ele>
        <time>2020-06-23T16:54:46Z</time>
      </trkpt>
      <trkpt lat="50.65348" lon="3.0565">
        <ele>18.2</ele>
        <time>2020-06-23T16:54:47Z</time>
      </trkpt>
      <trkpt lat="50.6534" lon="3.0565">
        <ele>18.1</ele>
        <time>2020-06-23T16:54:48Z</time>
      </trkpt>
      <trkpt lat="50.65332" lon="3.05651">
        <ele>18</ele>
        <time>2020-06-23T16:54:49Z</time>
      </trkpt>
      <trkpt lat="50.65325" lon="3.05653">
        <ele>17.9</ele>
        <time>2020-06-23T16:54:50Z</time>
      </trkpt>
      <trkpt lat="50.65318" lon="3.05656">
        <ele>17.9</ele>
        <time>2020-06-23T16:54:51Z</time>
      </trkpt>
      <trkpt lat="50.6531" lon="3.05657">
        <ele>17.8</ele>
        <time>2020-06-23T16:54:52Z</time>
      </trkpt>
      <trkpt lat="50.65303" lon="3.0566">
        <ele>17.8</ele>
        <time>2020-06-23T16:54:53Z</time>
      </trkpt>
      <trkpt lat="50.65296" lon="3.05662">
        <ele>17.7</ele>
        <time>2020-06-23T16:54:54Z</time>
      </trkpt>
      <trkpt lat="50.65291" lon="3.05667">
        <ele>17.7</ele>
        <time>2020-06-23T16:54:55Z</time>
      </trkpt>
      <trkpt lat="50.65286" lon="3.05673">
        <ele>17.7</ele>
        <time>2020-06-23T16:54:56Z</time>
      </trkpt>
      <trkpt lat="50.65281" lon="3.05679">
        <ele>17.8</ele>
        <time>2020-06-23T16:54:57Z</time>
      </trkpt>
      <trkpt lat="50.65276" lon="3.05685">
        <ele>17.8</ele>
        <time>2020-06-23T16:54:58Z</time>
      </trkpt>
      <trkpt lat="50.65271" lon="3.05691">
        <ele>17.8</ele>
        <time>2020-06-23T16:54:59Z</time>
      </trkpt>
      <trkpt lat="50.65266" lon="3.05697">
        <ele>17.9</ele>
        <time>2020-06-23T16:55:00Z</time>
      </trkpt>
      <trkpt lat="50.6526" lon="3.05703">
        <ele>18</ele>
        <time>2020-06-23T16:55:01Z</time>
      </trkpt>
      <trkpt lat="50.65255" lon="3.05709">
        <ele>18.1</ele>
        <time>2020-06-23T16:55:02Z</time>
      </trkpt>
      <trkpt lat="50.65251" lon="3.05716">
        <ele>18.3</ele>
        <time>2020-06-23T16:55:03Z</time>
      </trkpt>
      <trkpt lat="50.65247" lon="3.05722">
        <ele>18.4</ele>
        <time>2020-06-23T16:55:04Z</time>
      </trkpt>
      <trkpt lat="50.65242" lon="3.05729">
        <ele>18.5</ele>
        <time>2020-06-23T16:55:05Z</time>
      </trkpt>
      <trkpt lat="50.65238" lon="3.05736">
        <ele>18.7</ele>
        <time>2020-06-23T16:55:06Z</time>
      </trkpt>
      <trkpt lat="50.65234" lon="3.05741">
        <ele>18.8</ele>
        <time>2020-06-23T16:55:07Z</time>
      </trkpt>
      <trkpt lat="50.6523" lon="3.05747">
        <ele>18.9</ele>
        <time>2020-06-23T16:55:08Z</time>
      </trkpt>
      <trkpt lat="50.65227" lon="3.05753">
        <ele>19</ele>
        <time>2020-06-23T16:55:09Z</time>
      </trkpt>
      <trkpt lat="50.65224" lon="3.05759">
        <ele>19.1</ele>
        <time>2020-06-23T16:55:10Z</time>
      </trkpt>
      <trkpt lat="50.65221" lon="3.05764">
        <ele>19.6</ele>
        <time>2020-06-23T16:55:11Z</time>
      </trkpt>
      <trkpt lat="50.65221" lon="3.05771">
        <ele>19.8</ele>
        <time>2020-06-23T16:55:12Z</time>
      </trkpt>
      <trkpt lat="50.65219" lon="3.05777">
        <ele>20</ele>
        <time>2020-06-23T16:55:13Z</time>
      </trkpt>
      <trkpt lat="50.65219" lon="3.05785">
        <ele>20.3</ele>
        <time>2020-06-23T16:55:14Z</time>
      </trkpt>
      <trkpt lat="50.6522" lon="3.05792">
        <ele>20.5</ele>
        <time>2020-06-23T16:55:15Z</time>
      </trkpt>
      <trkpt lat="50.6522" lon="3.05799">
        <ele>20.7</ele>
        <time>2020-06-23T16:55:16Z</time>
      </trkpt>
      <trkpt lat="50.65221" lon="3.05806">
        <ele>20.9</ele>
        <time>2020-06-23T16:55:17Z</time>
      </trkpt>
      <trkpt lat="50.65222" lon="3.05812">
        <ele>21</ele>
        <time>2020-06-23T16:55:18Z</time>
      </trkpt>
      <trkpt lat="50.65222" lon="3.05819">
        <ele>21.2</ele>
        <time>2020-06-23T16:55:19Z</time>
      </trkpt>
      <trkpt lat="50.65222" lon="3.05825">
        <ele>21.3</ele>
        <time>2020-06-23T16:55:20Z</time>
      </trkpt>
      <trkpt lat="50.65222" lon="3.05832">
        <ele>21.4</ele>
        <time>2020-06-23T16:55:21Z</time>
      </trkpt>
      <trkpt lat="50.65223" lon="3.05838">
        <ele>21.5</ele>
        <time>2020-06-23T16:55:22Z</time>
      </trkpt>
      <trkpt lat="50.65223" lon="3.05843">
        <ele>21.6</ele>
        <time>2020-06-23T16:55:23Z</time>
      </trkpt>
      <trkpt lat="50.65223" lon="3.05848">
        <ele>21.7</ele>
        <time>2020-06-23T16:55:24Z</time>
      </trkpt>
      <trkpt lat="50.65223" lon="3.05853">
        <ele>21.8</ele>
        <time>2020-06-23T16:55:25Z</time>
      </trkpt>
      <trkpt lat="50.65223" lon="3.05858">
        <ele>21.9</ele>
        <time>2020-06-23T16:55:26Z</time>
      </trkpt>
      <trkpt lat="50.65224" lon="3.05864">
        <ele>22</ele>
        <time>2020-06-23T16:55:27Z</time>
      </trkpt>
      <trkpt lat="50.65224" lon="3.0587">
        <ele>22.2</ele>
        <time>2020-06-23T16:55:28Z</time>
      </trkpt>
      <trkpt lat="50.65225" lon="3.05876">
        <ele>22.4</ele>
        <time>2020-06-23T16:55:29Z</time>
      </trkpt>
      <trkpt lat="50.65226" lon="3.05881">
        <ele>22.5</ele>
        <time>2020-06-23T16:55:30Z</time>
      </trkpt>
      <trkpt lat="50.65228" lon="3.05889">
        <ele>22.7</ele>
        <time>2020-06-23T16:55:31Z</time>
      </trkpt>
      <trkpt lat="50.65231" lon="3.05897">
        <ele>22.9</ele>
        <time>2020-06-23T16:55:32Z</time>
      </trkpt>
      <trkpt lat="50.65231" lon="3.05904">
        <ele>23.1</ele>
        <time>2020-06-23T16:55:33Z</time>
      </trkpt>
      <trkpt lat="50.65232" lon="3.05911">
        <ele>23.3</ele>
        <time>2020-06-23T16:55:34Z</time>
      </trkpt>
      <trkpt lat="50.65234" lon="3.05916">
        <ele>23.4</ele>
        <time>2020-06-23T16:55:35Z</time>
      </trkpt>
      <trkpt lat="50.65234" lon="3.05919">
        <ele>23.4</ele>
        <time>2020-06-23T16:55:36Z</time>
      </trkpt>
      <trkpt lat="50.65236" lon="3.05924">
        <ele>23.5</ele>
        <time>2020-06-23T16:55:37Z</time>
      </trkpt>
      <trkpt lat="50.65239" lon="3.05931">
        <ele>23.7</ele>
        <time>2020-06-23T16:55:38Z</time>
      </trkpt>
      <trkpt lat="50.65241" lon="3.05937">
        <ele>23.8</ele>
        <time>2020-06-23T16:55:39Z</time>
      </trkpt>
      <trkpt lat="50.65243" lon="3.05944">
        <ele>24</ele>
        <time>2020-06-23T16:55:40Z</time>
      </trkpt>
      <trkpt lat="50.65245" lon="3.05952">
        <ele>24.2</ele>
        <time>2020-06-23T16:55:41Z</time>
      </trkpt>
      <trkpt lat="50.65246" lon="3.05959">
        <ele>24.3</ele>
        <time>2020-06-23T16:55:42Z</time>
      </trkpt>
      <trkpt lat="50.65248" lon="3.05966">
        <ele>24.5</ele>
        <time>2020-06-23T16:55:43Z</time>
      </trkpt>
      <trkpt lat="50.65251" lon="3.05973">
        <ele>24.6</ele>
        <time>2020-06-23T16:55:44Z</time>
      </trkpt>
      <trkpt lat="50.65252" lon="3.05981">
        <ele>24.6</ele>
        <time>2020-06-23T16:55:45Z</time>
      </trkpt>
      <trkpt lat="50.65253" lon="3.05989">
        <ele>24.7</ele>
        <time>2020-06-23T16:55:46Z</time>
      </trkpt>
      <trkpt lat="50.65254" lon="3.05996">
        <ele>24.7</ele>
        <time>2020-06-23T16:55:47Z</time>
      </trkpt>
      <trkpt lat="50.65256" lon="3.06003">
        <ele>24.8</ele>
        <time>2020-06-23T16:55:48Z</time>
      </trkpt>
      <trkpt lat="50.65258" lon="3.06009">
        <ele>24.8</ele>
        <time>2020-06-23T16:55:49Z</time>
      </trkpt>
      <trkpt lat="50.6526" lon="3.06016">
        <ele>24.9</ele>
        <time>2020-06-23T16:55:50Z</time>
      </trkpt>
      <trkpt lat="50.65261" lon="3.06023">
        <ele>25</ele>
        <time>2020-06-23T16:55:51Z</time>
      </trkpt>
      <trkpt lat="50.65263" lon="3.06029">
        <ele>25.1</ele>
        <time>2020-06-23T16:55:52Z</time>
      </trkpt>
      <trkpt lat="50.65265" lon="3.06036">
        <ele>25.2</ele>
        <time>2020-06-23T16:55:53Z</time>
      </trkpt>
      <trkpt lat="50.65266" lon="3.06042">
        <ele>25.3</ele>
        <time>2020-06-23T16:55:54Z</time>
      </trkpt>
      <trkpt lat="50.65268" lon="3.06049">
        <ele>25.4</ele>
        <time>2020-06-23T16:55:55Z</time>
      </trkpt>
      <trkpt lat="50.65268" lon="3.06056">
        <ele>25.5</ele>
        <time>2020-06-23T16:55:56Z</time>
      </trkpt>
      <trkpt lat="50.65267" lon="3.06063">
        <ele>25.6</ele>
        <time>2020-06-23T16:55:57Z</time>
      </trkpt>
      <trkpt lat="50.65265" lon="3.06069">
        <ele>25.7</ele>
        <time>2020-06-23T16:55:58Z</time>
      </trkpt>
      <trkpt lat="50.6526" lon="3.06072">
        <ele>25.6</ele>
        <time>2020-06-23T16:55:59Z</time>
      </trkpt>
      <trkpt lat="50.65254" lon="3.06075">
        <ele>25.6</ele>
        <time>2020-06-23T16:56:00Z</time>
      </trkpt>
      <trkpt lat="50.65249" lon="3.06077">
        <ele>25.6</ele>
        <time>2020-06-23T16:56:01Z</time>
      </trkpt>
      <trkpt lat="50.65243" lon="3.06078">
        <ele>25.6</ele>
        <time>2020-06-23T16:56:02Z</time>
      </trkpt>
      <trkpt lat="50.65238" lon="3.06079">
        <ele>25.7</ele>
        <time>2020-06-23T16:56:03Z</time>
      </trkpt>
      <trkpt lat="50.65232" lon="3.06081">
        <ele>25.7</ele>
        <time>2020-06-23T16:56:04Z</time>
      </trkpt>
      <trkpt lat="50.65226" lon="3.06084">
        <ele>25.8</ele>
        <time>2020-06-23T16:56:05Z</time>
      </trkpt>
      <trkpt lat="50.65221" lon="3.06086">
        <ele>25.9</ele>
        <time>2020-06-23T16:56:06Z</time>
      </trkpt>
      <trkpt lat="50.65216" lon="3.06088">
        <ele>25.9</ele>
        <time>2020-06-23T16:56:07Z</time>
      </trkpt>
      <trkpt lat="50.65212" lon="3.06091">
        <ele>26</ele>
        <time>2020-06-23T16:56:08Z</time>
      </trkpt>
      <trkpt lat="50.65206" lon="3.06093">
        <ele>26</ele>
        <time>2020-06-23T16:56:09Z</time>
      </trkpt>
      <trkpt lat="50.652" lon="3.06094">
        <ele>26.1</ele>
        <time>2020-06-23T16:56:10Z</time>
      </trkpt>
      <trkpt lat="50.65196" lon="3.06095">
        <ele>26.2</ele>
        <time>2020-06-23T16:56:11Z</time>
      </trkpt>
      <trkpt lat="50.65192" lon="3.06098">
        <ele>26.2</ele>
        <time>2020-06-23T16:56:12Z</time>
      </trkpt>
      <trkpt lat="50.65185" lon="3.061">
        <ele>26.3</ele>
        <time>2020-06-23T16:56:13Z</time>
      </trkpt>
      <trkpt lat="50.65179" lon="3.06101">
        <ele>26.4</ele>
        <time>2020-06-23T16:56:14Z</time>
      </trkpt>
      <trkpt lat="50.65173" lon="3.06103">
        <ele>26.5</ele>
        <time>2020-06-23T16:56:15Z</time>
      </trkpt>
      <trkpt lat="50.65168" lon="3.06105">
        <ele>26.6</ele>
        <time>2020-06-23T16:56:16Z</time>
      </trkpt>
      <trkpt lat="50.65161" lon="3.06106">
        <ele>26.8</ele>
        <time>2020-06-23T16:56:17Z</time>
      </trkpt>
      <trkpt lat="50.65157" lon="3.06108">
        <ele>26.9</ele>
        <time>2020-06-23T16:56:18Z</time>
      </trkpt>
      <trkpt lat="50.65152" lon="3.0611">
        <ele>27</ele>
        <time>2020-06-23T16:56:19Z</time>
      </trkpt>
      <trkpt lat="50.65146" lon="3.06111">
        <ele>27.1</ele>
        <time>2020-06-23T16:56:20Z</time>
      </trkpt>
      <trkpt lat="50.6514" lon="3.06112">
        <ele>27.2</ele>
        <time>2020-06-23T16:56:21Z</time>
      </trkpt>
      <trkpt lat="50.65136" lon="3.06113">
        <ele>27.3</ele>
        <time>2020-06-23T16:56:22Z</time>
      </trkpt>
      <trkpt lat="50.65131" lon="3.06115">
        <ele>27.3</ele>
        <time>2020-06-23T16:56:23Z</time>
      </trkpt>
      <trkpt lat="50.65126" lon="3.06116">
        <ele>27.4</ele>
        <time>2020-06-23T16:56:24Z</time>
      </trkpt>
      <trkpt lat="50.65121" lon="3.06116">
        <ele>27.5</ele>
        <time>2020-06-23T16:56:25Z</time>
      </trkpt>
      <trkpt lat="50.65115" lon="3.06118">
        <ele>27.6</ele>
        <time>2020-06-23T16:56:26Z</time>
      </trkpt>
      <trkpt lat="50.6511" lon="3.06118">
        <ele>27.7</ele>
        <time>2020-06-23T16:56:27Z</time>
      </trkpt>
      <trkpt lat="50.65105" lon="3.06118">
        <ele>27.7</ele>
        <time>2020-06-23T16:56:28Z</time>
      </trkpt>
      <trkpt lat="50.65099" lon="3.0612">
        <ele>27.7</ele>
        <time>2020-06-23T16:56:29Z</time>
      </trkpt>
      <trkpt lat="50.65092" lon="3.06121">
        <ele>27.8</ele>
        <time>2020-06-23T16:56:30Z</time>
      </trkpt>
      <trkpt lat="50.65087" lon="3.06123">
        <ele>27.8</ele>
        <time>2020-06-23T16:56:31Z</time>
      </trkpt>
      <trkpt lat="50.65081" lon="3.06124">
        <ele>27.8</ele>
        <time>2020-06-23T16:56:32Z</time>
      </trkpt>
      <trkpt lat="50.65076" lon="3.06125">
        <ele>27.9</ele>
        <time>2020-06-23T16:56:33Z</time>
      </trkpt>
      <trkpt lat="50.65071" lon="3.06126">
        <ele>27.9</ele>
        <time>2020-06-23T16:56:34Z</time>
      </trkpt>
      <trkpt lat="50.65066" lon="3.06127">
        <ele>27.9</ele>
        <time>2020-06-23T16:56:35Z</time>
      </trkpt>
      <trkpt lat="50.65061" lon="3.06129">
        <ele>27.8</ele>
        <time>2020-06-23T16:56:36Z</time>
      </trkpt>
      <trkpt lat="50.65056" lon="3.0613">
        <ele>27.7</ele>
        <time>2020-06-23T16:56:37Z</time>
      </trkpt>
      <trkpt lat="50.65052" lon="3.0613">
        <ele>27.6</ele>
        <time>2020-06-23T16:56:38Z</time>
      </trkpt>
      <trkpt lat="50.65048" lon="3.06131">
        <ele>27.5</ele>
        <time>2020-06-23T16:56:39Z</time>
      </trkpt>
      <trkpt lat="50.65045" lon="3.06132">
        <ele>27.4</ele>
        <time>2020-06-23T16:56:40Z</time>
      </trkpt>
      <trkpt lat="50.65039" lon="3.06133">
        <ele>27.3</ele>
        <time>2020-06-23T16:56:41Z</time>
      </trkpt>
      <trkpt lat="50.65035" lon="3.06134">
        <ele>27.2</ele>
        <time>2020-06-23T16:56:42Z</time>
      </trkpt>
      <trkpt lat="50.6503" lon="3.06134">
        <ele>27</ele>
        <time>2020-06-23T16:56:43Z</time>
      </trkpt>
      <trkpt lat="50.65024" lon="3.06136">
        <ele>26.9</ele>
        <time>2020-06-23T16:56:44Z</time>
      </trkpt>
      <trkpt lat="50.6502" lon="3.06138">
        <ele>26.7</ele>
        <time>2020-06-23T16:56:45Z</time>
      </trkpt>
      <trkpt lat="50.65013" lon="3.06138">
        <ele>26.4</ele>
        <time>2020-06-23T16:56:46Z</time>
      </trkpt>
      <trkpt lat="50.65006" lon="3.06137">
        <ele>26.2</ele>
        <time>2020-06-23T16:56:47Z</time>
      </trkpt>
      <trkpt lat="50.65001" lon="3.06136">
        <ele>26</ele>
        <time>2020-06-23T16:56:48Z</time>
      </trkpt>
      <trkpt lat="50.64995" lon="3.06136">
        <ele>25.8</ele>
        <time>2020-06-23T16:56:49Z</time>
      </trkpt>
      <trkpt lat="50.64989" lon="3.06135">
        <ele>25.6</ele>
        <time>2020-06-23T16:56:50Z</time>
      </trkpt>
      <trkpt lat="50.64985" lon="3.06134">
        <ele>25.5</ele>
        <time>2020-06-23T16:56:51Z</time>
      </trkpt>
      <trkpt lat="50.64979" lon="3.06135">
        <ele>25.2</ele>
        <time>2020-06-23T16:56:52Z</time>
      </trkpt>
      <trkpt lat="50.64975" lon="3.06135">
        <ele>25.1</ele>
        <time>2020-06-23T16:56:53Z</time>
      </trkpt>
      <trkpt lat="50.64969" lon="3.06136">
        <ele>24.9</ele>
        <time>2020-06-23T16:56:54Z</time>
      </trkpt>
      <trkpt lat="50.64963" lon="3.06136">
        <ele>24.6</ele>
        <time>2020-06-23T16:56:55Z</time>
      </trkpt>
      <trkpt lat="50.64957" lon="3.06136">
        <ele>24.4</ele>
        <time>2020-06-23T16:56:56Z</time>
      </trkpt>
      <trkpt lat="50.64949" lon="3.06138">
        <ele>24.1</ele>
        <time>2020-06-23T16:56:57Z</time>
      </trkpt>
      <trkpt lat="50.64943" lon="3.06138">
        <ele>24</ele>
        <time>2020-06-23T16:56:58Z</time>
      </trkpt>
      <trkpt lat="50.64935" lon="3.06139">
        <ele>23.7</ele>
        <time>2020-06-23T16:56:59Z</time>
      </trkpt>
      <trkpt lat="50.64929" lon="3.06141">
        <ele>23.6</ele>
        <time>2020-06-23T16:57:00Z</time>
      </trkpt>
      <trkpt lat="50.64922" lon="3.06142">
        <ele>23.4</ele>
        <time>2020-06-23T16:57:01Z</time>
      </trkpt>
      <trkpt lat="50.64915" lon="3.06142">
        <ele>23.2</ele>
        <time>2020-06-23T16:57:02Z</time>
      </trkpt>
      <trkpt lat="50.64908" lon="3.06142">
        <ele>23</ele>
        <time>2020-06-23T16:57:03Z</time>
      </trkpt>
      <trkpt lat="50.64902" lon="3.06142">
        <ele>22.8</ele>
        <time>2020-06-23T16:57:04Z</time>
      </trkpt>
      <trkpt lat="50.64895" lon="3.06141">
        <ele>22.6</ele>
        <time>2020-06-23T16:57:05Z</time>
      </trkpt>
      <trkpt lat="50.64888" lon="3.06141">
        <ele>22.4</ele>
        <time>2020-06-23T16:57:06Z</time>
      </trkpt>
      <trkpt lat="50.64882" lon="3.06141">
        <ele>22.2</ele>
        <time>2020-06-23T16:57:07Z</time>
      </trkpt>
      <trkpt lat="50.64876" lon="3.06141">
        <ele>22.1</ele>
        <time>2020-06-23T16:57:08Z</time>
      </trkpt>
      <trkpt lat="50.6487" lon="3.06141">
        <ele>22</ele>
        <time>2020-06-23T16:57:09Z</time>
      </trkpt>
      <trkpt lat="50.64862" lon="3.0614">
        <ele>21.9</ele>
        <time>2020-06-23T16:57:10Z</time>
      </trkpt>
      <trkpt lat="50.64856" lon="3.0614">
        <ele>21.8</ele>
        <time>2020-06-23T16:57:11Z</time>
      </trkpt>
      <trkpt lat="50.6485" lon="3.06139">
        <ele>21.8</ele>
        <time>2020-06-23T16:57:12Z</time>
      </trkpt>
      <trkpt lat="50.64845" lon="3.06139">
        <ele>21.7</ele>
        <time>2020-06-23T16:57:13Z</time>
      </trkpt>
      <trkpt lat="50.64841" lon="3.06139">
        <ele>21.7</ele>
        <time>2020-06-23T16:57:14Z</time>
      </trkpt>
      <trkpt lat="50.64838" lon="3.06139">
        <ele>21.7</ele>
        <time>2020-06-23T16:57:15Z</time>
      </trkpt>
      <trkpt lat="50.64835" lon="3.06143">
        <ele>21.7</ele>
        <time>2020-06-23T16:57:16Z</time>
      </trkpt>
      <trkpt lat="50.64835" lon="3.06147">
        <ele>21.6</ele>
        <time>2020-06-23T16:57:17Z</time>
      </trkpt>
      <trkpt lat="50.64835" lon="3.06148">
        <ele>21.6</ele>
        <time>2020-06-23T16:57:18Z</time>
      </trkpt>
      <trkpt lat="50.64835" lon="3.06148">
        <ele>21.6</ele>
        <time>2020-06-23T16:57:19Z</time>
      </trkpt>
      <trkpt lat="50.64836" lon="3.06147">
        <ele>21.6</ele>
        <time>2020-06-23T16:57:20Z</time>
      </trkpt>
      <trkpt lat="50.64837" lon="3.06146">
        <ele>21.7</ele>
        <time>2020-06-23T16:57:21Z</time>
      </trkpt>
      <trkpt lat="50.64837" lon="3.06146">
        <ele>21.7</ele>
        <time>2020-06-23T16:57:22Z</time>
      </trkpt>
      <trkpt lat="50.64837" lon="3.06146">
        <ele>21.7</ele>
        <time>2020-06-23T16:57:23Z</time>
      </trkpt>
      <trkpt lat="50.64837" lon="3.06147">
        <ele>21.7</ele>
        <time>2020-06-23T16:57:24Z</time>
      </trkpt>
      <trkpt lat="50.64837" lon="3.06147">
        <ele>21.6</ele>
        <time>2020-06-23T16:57:25Z</time>
      </trkpt>
      <trkpt lat="50.64836" lon="3.06148">
        <ele>21.7</ele>
        <time>2020-06-23T16:57:26Z</time>
      </trkpt>
      <trkpt lat="50.64837" lon="3.06149">
        <ele>21.7</ele>
        <time>2020-06-23T16:57:27Z</time>
      </trkpt>
      <trkpt lat="50.64837" lon="3.06149">
        <ele>21.7</ele>
        <time>2020-06-23T16:57:28Z</time>
      </trkpt>
      <trkpt lat="50.64838" lon="3.06149">
        <ele>21.7</ele>
        <time>2020-06-23T16:57:29Z</time>
      </trkpt>
      <trkpt lat="50.64837" lon="3.0615">
        <ele>21.7</ele>
        <time>2020-06-23T16:57:30Z</time>
      </trkpt>
      <trkpt lat="50.64836" lon="3.06151">
        <ele>21.7</ele>
        <time>2020-06-23T16:57:31Z</time>
      </trkpt>
      <trkpt lat="50.64836" lon="3.06154">
        <ele>21.8</ele>
        <time>2020-06-23T16:57:32Z</time>
      </trkpt>
      <trkpt lat="50.64835" lon="3.06158">
        <ele>21.9</ele>
        <time>2020-06-23T16:57:33Z</time>
      </trkpt>
      <trkpt lat="50.64834" lon="3.0616">
        <ele>21.9</ele>
        <time>2020-06-23T16:57:34Z</time>
      </trkpt>
      <trkpt lat="50.64833" lon="3.06166">
        <ele>22</ele>
        <time>2020-06-23T16:57:35Z</time>
      </trkpt>
      <trkpt lat="50.64832" lon="3.06167">
        <ele>22.1</ele>
        <time>2020-06-23T16:57:36Z</time>
      </trkpt>
      <trkpt lat="50.6483" lon="3.06174">
        <ele>22.2</ele>
        <time>2020-06-23T16:57:37Z</time>
      </trkpt>
      <trkpt lat="50.64829" lon="3.06179">
        <ele>22.3</ele>
        <time>2020-06-23T16:57:38Z</time>
      </trkpt>
      <trkpt lat="50.64828" lon="3.06187">
        <ele>22.4</ele>
        <time>2020-06-23T16:57:39Z</time>
      </trkpt>
      <trkpt lat="50.64827" lon="3.06193">
        <ele>22.7</ele>
        <time>2020-06-23T16:57:40Z</time>
      </trkpt>
      <trkpt lat="50.64827" lon="3.062">
        <ele>22.7</ele>
        <time>2020-06-23T16:57:41Z</time>
      </trkpt>
      <trkpt lat="50.64827" lon="3.06207">
        <ele>22.7</ele>
        <time>2020-06-23T16:57:42Z</time>
      </trkpt>
      <trkpt lat="50.64827" lon="3.06215">
        <ele>22.7</ele>
        <time>2020-06-23T16:57:43Z</time>
      </trkpt>
      <trkpt lat="50.64827" lon="3.06223">
        <ele>22.8</ele>
        <time>2020-06-23T16:57:44Z</time>
      </trkpt>
      <trkpt lat="50.64826" lon="3.06231">
        <ele>22.8</ele>
        <time>2020-06-23T16:57:45Z</time>
      </trkpt>
      <trkpt lat="50.64824" lon="3.0624">
        <ele>22.9</ele>
        <time>2020-06-23T16:57:46Z</time>
      </trkpt>
      <trkpt lat="50.64823" lon="3.06247">
        <ele>22.9</ele>
        <time>2020-06-23T16:57:47Z</time>
      </trkpt>
      <trkpt lat="50.64822" lon="3.06252">
        <ele>23</ele>
        <time>2020-06-23T16:57:48Z</time>
      </trkpt>
      <trkpt lat="50.64821" lon="3.06255">
        <ele>23</ele>
        <time>2020-06-23T16:57:49Z</time>
      </trkpt>
      <trkpt lat="50.64821" lon="3.0626">
        <ele>23</ele>
        <time>2020-06-23T16:57:50Z</time>
      </trkpt>
      <trkpt lat="50.6482" lon="3.06262">
        <ele>23.1</ele>
        <time>2020-06-23T16:57:51Z</time>
      </trkpt>
      <trkpt lat="50.6482" lon="3.06268">
        <ele>23.1</ele>
        <time>2020-06-23T16:57:52Z</time>
      </trkpt>
      <trkpt lat="50.64819" lon="3.06274">
        <ele>23.2</ele>
        <time>2020-06-23T16:57:53Z</time>
      </trkpt>
      <trkpt lat="50.64819" lon="3.06279">
        <ele>23.3</ele>
        <time>2020-06-23T16:57:54Z</time>
      </trkpt>
      <trkpt lat="50.64817" lon="3.06286">
        <ele>23.4</ele>
        <time>2020-06-23T16:57:55Z</time>
      </trkpt>
      <trkpt lat="50.64814" lon="3.06293">
        <ele>23.5</ele>
        <time>2020-06-23T16:57:56Z</time>
      </trkpt>
      <trkpt lat="50.64812" lon="3.06299">
        <ele>23.6</ele>
        <time>2020-06-23T16:57:57Z</time>
      </trkpt>
      <trkpt lat="50.64809" lon="3.06305">
        <ele>23.7</ele>
        <time>2020-06-23T16:57:58Z</time>
      </trkpt>
      <trkpt lat="50.64806" lon="3.06313">
        <ele>23.8</ele>
        <time>2020-06-23T16:57:59Z</time>
      </trkpt>
      <trkpt lat="50.64801" lon="3.06319">
        <ele>23.9</ele>
        <time>2020-06-23T16:58:00Z</time>
      </trkpt>
      <trkpt lat="50.64798" lon="3.06325">
        <ele>24</ele>
        <time>2020-06-23T16:58:01Z</time>
      </trkpt>
      <trkpt lat="50.64795" lon="3.06331">
        <ele>24.1</ele>
        <time>2020-06-23T16:58:02Z</time>
      </trkpt>
      <trkpt lat="50.64792" lon="3.06335">
        <ele>24.1</ele>
        <time>2020-06-23T16:58:03Z</time>
      </trkpt>
      <trkpt lat="50.64789" lon="3.06339">
        <ele>24.2</ele>
        <time>2020-06-23T16:58:04Z</time>
      </trkpt>
      <trkpt lat="50.64787" lon="3.06344">
        <ele>24.2</ele>
        <time>2020-06-23T16:58:05Z</time>
      </trkpt>
      <trkpt lat="50.64784" lon="3.0635">
        <ele>24.3</ele>
        <time>2020-06-23T16:58:06Z</time>
      </trkpt>
      <trkpt lat="50.64781" lon="3.06354">
        <ele>24.3</ele>
        <time>2020-06-23T16:58:07Z</time>
      </trkpt>
      <trkpt lat="50.64777" lon="3.06356">
        <ele>24.3</ele>
        <time>2020-06-23T16:58:08Z</time>
      </trkpt>
      <trkpt lat="50.64774" lon="3.06361">
        <ele>24.4</ele>
        <time>2020-06-23T16:58:09Z</time>
      </trkpt>
      <trkpt lat="50.64772" lon="3.06365">
        <ele>24.4</ele>
        <time>2020-06-23T16:58:10Z</time>
      </trkpt>
      <trkpt lat="50.64768" lon="3.06367">
        <ele>24.5</ele>
        <time>2020-06-23T16:58:11Z</time>
      </trkpt>
      <trkpt lat="50.64765" lon="3.0637">
        <ele>24.5</ele>
        <time>2020-06-23T16:58:12Z</time>
      </trkpt>
      <trkpt lat="50.64762" lon="3.06374">
        <ele>24.5</ele>
        <time>2020-06-23T16:58:13Z</time>
      </trkpt>
      <trkpt lat="50.64759" lon="3.06376">
        <ele>24.6</ele>
        <time>2020-06-23T16:58:14Z</time>
      </trkpt>
      <trkpt lat="50.64757" lon="3.06378">
        <ele>24.6</ele>
        <time>2020-06-23T16:58:15Z</time>
      </trkpt>
      <trkpt lat="50.64754" lon="3.06381">
        <ele>24.6</ele>
        <time>2020-06-23T16:58:16Z</time>
      </trkpt>
      <trkpt lat="50.64751" lon="3.06384">
        <ele>24.6</ele>
        <time>2020-06-23T16:58:17Z</time>
      </trkpt>
      <trkpt lat="50.64748" lon="3.06385">
        <ele>24.7</ele>
        <time>2020-06-23T16:58:18Z</time>
      </trkpt>
      <trkpt lat="50.64745" lon="3.06388">
        <ele>24.7</ele>
        <time>2020-06-23T16:58:19Z</time>
      </trkpt>
      <trkpt lat="50.64741" lon="3.0639">
        <ele>24.7</ele>
        <time>2020-06-23T16:58:20Z</time>
      </trkpt>
      <trkpt lat="50.64737" lon="3.06392">
        <ele>24.8</ele>
        <time>2020-06-23T16:58:21Z</time>
      </trkpt>
      <trkpt lat="50.64735" lon="3.06394">
        <ele>24.8</ele>
        <time>2020-06-23T16:58:22Z</time>
      </trkpt>
      <trkpt lat="50.64732" lon="3.06397">
        <ele>24.8</ele>
        <time>2020-06-23T16:58:23Z</time>
      </trkpt>
      <trkpt lat="50.64729" lon="3.064">
        <ele>24.8</ele>
        <time>2020-06-23T16:58:24Z</time>
      </trkpt>
      <trkpt lat="50.64726" lon="3.06404">
        <ele>24.8</ele>
        <time>2020-06-23T16:58:25Z</time>
      </trkpt>
      <trkpt lat="50.64722" lon="3.06406">
        <ele>24.9</ele>
        <time>2020-06-23T16:58:26Z</time>
      </trkpt>
      <trkpt lat="50.64719" lon="3.06409">
        <ele>24.9</ele>
        <time>2020-06-23T16:58:27Z</time>
      </trkpt>
      <trkpt lat="50.64716" lon="3.06412">
        <ele>24.9</ele>
        <time>2020-06-23T16:58:28Z</time>
      </trkpt>
      <trkpt lat="50.64712" lon="3.06416">
        <ele>24.9</ele>
        <time>2020-06-23T16:58:29Z</time>
      </trkpt>
      <trkpt lat="50.64709" lon="3.06421">
        <ele>24.8</ele>
        <time>2020-06-23T16:58:30Z</time>
      </trkpt>
      <trkpt lat="50.64706" lon="3.06425">
        <ele>24.8</ele>
        <time>2020-06-23T16:58:31Z</time>
      </trkpt>
      <trkpt lat="50.64701" lon="3.06427">
        <ele>24.8</ele>
        <time>2020-06-23T16:58:32Z</time>
      </trkpt>
      <trkpt lat="50.64698" lon="3.0643">
        <ele>24.8</ele>
        <time>2020-06-23T16:58:33Z</time>
      </trkpt>
      <trkpt lat="50.64695" lon="3.06433">
        <ele>24.8</ele>
        <time>2020-06-23T16:58:34Z</time>
      </trkpt>
      <trkpt lat="50.64691" lon="3.06435">
        <ele>24.8</ele>
        <time>2020-06-23T16:58:35Z</time>
      </trkpt>
      <trkpt lat="50.64688" lon="3.06437">
        <ele>24.7</ele>
        <time>2020-06-23T16:58:36Z</time>
      </trkpt>
      <trkpt lat="50.64685" lon="3.0644">
        <ele>24.7</ele>
        <time>2020-06-23T16:58:37Z</time>
      </trkpt>
      <trkpt lat="50.64683" lon="3.06442">
        <ele>24.7</ele>
        <time>2020-06-23T16:58:38Z</time>
      </trkpt>
      <trkpt lat="50.6468" lon="3.06443">
        <ele>24.7</ele>
        <time>2020-06-23T16:58:39Z</time>
      </trkpt>
      <trkpt lat="50.64677" lon="3.06446">
        <ele>24.7</ele>
        <time>2020-06-23T16:58:40Z</time>
      </trkpt>
      <trkpt lat="50.64674" lon="3.06449">
        <ele>24.7</ele>
        <time>2020-06-23T16:58:41Z</time>
      </trkpt>
      <trkpt lat="50.6467" lon="3.06451">
        <ele>24.7</ele>
        <time>2020-06-23T16:58:42Z</time>
      </trkpt>
      <trkpt lat="50.64667" lon="3.06454">
        <ele>24.6</ele>
        <time>2020-06-23T16:58:43Z</time>
      </trkpt>
      <trkpt lat="50.64662" lon="3.06458">
        <ele>24.6</ele>
        <time>2020-06-23T16:58:44Z</time>
      </trkpt>
      <trkpt lat="50.64659" lon="3.06462">
        <ele>24.6</ele>
        <time>2020-06-23T16:58:45Z</time>
      </trkpt>
      <trkpt lat="50.64656" lon="3.06464">
        <ele>24.5</ele>
        <time>2020-06-23T16:58:46Z</time>
      </trkpt>
      <trkpt lat="50.64652" lon="3.06466">
        <ele>24.5</ele>
        <time>2020-06-23T16:58:47Z</time>
      </trkpt>
      <trkpt lat="50.64648" lon="3.06469">
        <ele>24.5</ele>
        <time>2020-06-23T16:58:48Z</time>
      </trkpt>
      <trkpt lat="50.64644" lon="3.06472">
        <ele>24.5</ele>
        <time>2020-06-23T16:58:49Z</time>
      </trkpt>
      <trkpt lat="50.64643" lon="3.06473">
        <ele>24.5</ele>
        <time>2020-06-23T16:58:50Z</time>
      </trkpt>
      <trkpt lat="50.6464" lon="3.06477">
        <ele>24.5</ele>
        <time>2020-06-23T16:58:51Z</time>
      </trkpt>
      <trkpt lat="50.64639" lon="3.06477">
        <ele>24.5</ele>
        <time>2020-06-23T16:58:52Z</time>
      </trkpt>
      <trkpt lat="50.64638" lon="3.06478">
        <ele>24.5</ele>
        <time>2020-06-23T16:58:53Z</time>
      </trkpt>
      <trkpt lat="50.64636" lon="3.0648">
        <ele>24.5</ele>
        <time>2020-06-23T16:58:54Z</time>
      </trkpt>
      <trkpt lat="50.64635" lon="3.06482">
        <ele>24.5</ele>
        <time>2020-06-23T16:58:55Z</time>
      </trkpt>
      <trkpt lat="50.64636" lon="3.06482">
        <ele>24.5</ele>
        <time>2020-06-23T16:58:56Z</time>
      </trkpt>
      <trkpt lat="50.64636" lon="3.06482">
        <ele>24.5</ele>
        <time>2020-06-23T16:58:57Z</time>
      </trkpt>
      <trkpt lat="50.64635" lon="3.06482">
        <ele>24.5</ele>
        <time>2020-06-23T16:58:58Z</time>
      </trkpt>
      <trkpt lat="50.64635" lon="3.06482">
        <ele>24.5</ele>
        <time>2020-06-23T16:58:59Z</time>
      </trkpt>
      <trkpt lat="50.64635" lon="3.06483">
        <ele>24.5</ele>
        <time>2020-06-23T16:59:00Z</time>
      </trkpt>
      <trkpt lat="50.64635" lon="3.06483">
        <ele>24.5</ele>
        <time>2020-06-23T16:59:01Z</time>
      </trkpt>
      <trkpt lat="50.64636" lon="3.06482">
        <ele>24.5</ele>
        <time>2020-06-23T16:59:02Z</time>
      </trkpt>
      <trkpt lat="50.64636" lon="3.06482">
        <ele>24.5</ele>
        <time>2020-06-23T16:59:03Z</time>
      </trkpt>
      <trkpt lat="50.64637" lon="3.06482">
        <ele>24.5</ele>
        <time>2020-06-23T16:59:04Z</time>
      </trkpt>
      <trkpt lat="50.64638" lon="3.06483">
        <ele>24.5</ele>
        <time>2020-06-23T16:59:05Z</time>
      </trkpt>
      <trkpt lat="50.64639" lon="3.06483">
        <ele>24.4</ele>
        <time>2020-06-23T16:59:06Z</time>
      </trkpt>
      <trkpt lat="50.64636" lon="3.06478">
        <ele>24.4</ele>
        <time>2020-06-23T16:59:10Z</time>
      </trkpt>
      <trkpt lat="50.64635" lon="3.06477">
        <ele>24.4</ele>
        <time>2020-06-23T16:59:11Z</time>
      </trkpt>
      <trkpt lat="50.64633" lon="3.06473">
        <ele>24.4</ele>
        <time>2020-06-23T16:59:12Z</time>
      </trkpt>
      <trkpt lat="50.6463" lon="3.06468">
        <ele>24.3</ele>
        <time>2020-06-23T16:59:13Z</time>
      </trkpt>
      <trkpt lat="50.64629" lon="3.06462">
        <ele>24.3</ele>
        <time>2020-06-23T16:59:14Z</time>
      </trkpt>
      <trkpt lat="50.64627" lon="3.06453">
        <ele>24.3</ele>
        <time>2020-06-23T16:59:15Z</time>
      </trkpt>
      <trkpt lat="50.64625" lon="3.06447">
        <ele>24.2</ele>
        <time>2020-06-23T16:59:16Z</time>
      </trkpt>
      <trkpt lat="50.64622" lon="3.0644">
        <ele>24.1</ele>
        <time>2020-06-23T16:59:17Z</time>
      </trkpt>
      <trkpt lat="50.64619" lon="3.06433">
        <ele>24.1</ele>
        <time>2020-06-23T16:59:18Z</time>
      </trkpt>
      <trkpt lat="50.64616" lon="3.06425">
        <ele>24</ele>
        <time>2020-06-23T16:59:19Z</time>
      </trkpt>
      <trkpt lat="50.64613" lon="3.06419">
        <ele>24</ele>
        <time>2020-06-23T16:59:20Z</time>
      </trkpt>
      <trkpt lat="50.6461" lon="3.0641">
        <ele>24</ele>
        <time>2020-06-23T16:59:21Z</time>
      </trkpt>
      <trkpt lat="50.64607" lon="3.06402">
        <ele>24.4</ele>
        <time>2020-06-23T16:59:22Z</time>
      </trkpt>
      <trkpt lat="50.64604" lon="3.06394">
        <ele>24.4</ele>
        <time>2020-06-23T16:59:23Z</time>
      </trkpt>
      <trkpt lat="50.646" lon="3.06386">
        <ele>24.3</ele>
        <time>2020-06-23T16:59:24Z</time>
      </trkpt>
      <trkpt lat="50.64598" lon="3.06379">
        <ele>24.2</ele>
        <time>2020-06-23T16:59:25Z</time>
      </trkpt>
      <trkpt lat="50.64597" lon="3.06373">
        <ele>24.1</ele>
        <time>2020-06-23T16:59:26Z</time>
      </trkpt>
      <trkpt lat="50.64594" lon="3.06369">
        <ele>24</ele>
        <time>2020-06-23T16:59:27Z</time>
      </trkpt>
      <trkpt lat="50.64592" lon="3.06364">
        <ele>23.9</ele>
        <time>2020-06-23T16:59:28Z</time>
      </trkpt>
      <trkpt lat="50.64591" lon="3.06362">
        <ele>23.9</ele>
        <time>2020-06-23T16:59:29Z</time>
      </trkpt>
      <trkpt lat="50.64589" lon="3.06358">
        <ele>23.8</ele>
        <time>2020-06-23T16:59:30Z</time>
      </trkpt>
      <trkpt lat="50.64588" lon="3.06357">
        <ele>23.8</ele>
        <time>2020-06-23T16:59:31Z</time>
      </trkpt>
      <trkpt lat="50.64587" lon="3.06355">
        <ele>23.7</ele>
        <time>2020-06-23T16:59:32Z</time>
      </trkpt>
      <trkpt lat="50.64585" lon="3.06355">
        <ele>23.7</ele>
        <time>2020-06-23T16:59:33Z</time>
      </trkpt>
      <trkpt lat="50.64585" lon="3.06353">
        <ele>23.6</ele>
        <time>2020-06-23T16:59:34Z</time>
      </trkpt>
      <trkpt lat="50.64584" lon="3.06354">
        <ele>23.6</ele>
        <time>2020-06-23T16:59:35Z</time>
      </trkpt>
      <trkpt lat="50.64584" lon="3.06351">
        <ele>23.6</ele>
        <time>2020-06-23T16:59:36Z</time>
      </trkpt>
      <trkpt lat="50.64583" lon="3.06348">
        <ele>23.6</ele>
        <time>2020-06-23T16:59:37Z</time>
      </trkpt>
      <trkpt lat="50.64583" lon="3.06347">
        <ele>23.5</ele>
        <time>2020-06-23T16:59:38Z</time>
      </trkpt>
      <trkpt lat="50.64582" lon="3.06346">
        <ele>23.5</ele>
        <time>2020-06-23T16:59:39Z</time>
      </trkpt>
      <trkpt lat="50.64581" lon="3.06345">
        <ele>23.5</ele>
        <time>2020-06-23T16:59:40Z</time>
      </trkpt>
      <trkpt lat="50.6458" lon="3.06342">
        <ele>23.5</ele>
        <time>2020-06-23T16:59:41Z</time>
      </trkpt>
      <trkpt lat="50.64578" lon="3.06337">
        <ele>23.4</ele>
        <time>2020-06-23T16:59:42Z</time>
      </trkpt>
      <trkpt lat="50.64576" lon="3.06331">
        <ele>23.3</ele>
        <time>2020-06-23T16:59:43Z</time>
      </trkpt>
      <trkpt lat="50.64573" lon="3.06326">
        <ele>23.2</ele>
        <time>2020-06-23T16:59:44Z</time>
      </trkpt>
      <trkpt lat="50.64571" lon="3.0632">
        <ele>23.1</ele>
        <time>2020-06-23T16:59:45Z</time>
      </trkpt>
      <trkpt lat="50.64568" lon="3.06313">
        <ele>23</ele>
        <time>2020-06-23T16:59:46Z</time>
      </trkpt>
      <trkpt lat="50.64565" lon="3.06307">
        <ele>22.9</ele>
        <time>2020-06-23T16:59:47Z</time>
      </trkpt>
      <trkpt lat="50.64561" lon="3.06301">
        <ele>22.7</ele>
        <time>2020-06-23T16:59:48Z</time>
      </trkpt>
      <trkpt lat="50.64558" lon="3.06292">
        <ele>22.5</ele>
        <time>2020-06-23T16:59:49Z</time>
      </trkpt>
      <trkpt lat="50.64555" lon="3.06283">
        <ele>22.4</ele>
        <time>2020-06-23T16:59:50Z</time>
      </trkpt>
      <trkpt lat="50.64554" lon="3.06274">
        <ele>22.4</ele>
        <time>2020-06-23T16:59:51Z</time>
      </trkpt>
      <trkpt lat="50.6455" lon="3.06267">
        <ele>22.3</ele>
        <time>2020-06-23T16:59:52Z</time>
      </trkpt>
      <trkpt lat="50.64547" lon="3.06261">
        <ele>22.2</ele>
        <time>2020-06-23T16:59:53Z</time>
      </trkpt>
      <trkpt lat="50.64545" lon="3.06254">
        <ele>22.1</ele>
        <time>2020-06-23T16:59:54Z</time>
      </trkpt>
      <trkpt lat="50.64544" lon="3.06248">
        <ele>22.1</ele>
        <time>2020-06-23T16:59:55Z</time>
      </trkpt>
      <trkpt lat="50.64542" lon="3.06242">
        <ele>22</ele>
        <time>2020-06-23T16:59:56Z</time>
      </trkpt>
      <trkpt lat="50.6454" lon="3.06238">
        <ele>21.9</ele>
        <time>2020-06-23T16:59:57Z</time>
      </trkpt>
      <trkpt lat="50.64538" lon="3.06234">
        <ele>21.9</ele>
        <time>2020-06-23T16:59:58Z</time>
      </trkpt>
      <trkpt lat="50.64537" lon="3.0623">
        <ele>21.9</ele>
        <time>2020-06-23T16:59:59Z</time>
      </trkpt>
      <trkpt lat="50.64535" lon="3.06226">
        <ele>21.8</ele>
        <time>2020-06-23T17:00:00Z</time>
      </trkpt>
      <trkpt lat="50.64534" lon="3.06226">
        <ele>21.8</ele>
        <time>2020-06-23T17:00:01Z</time>
      </trkpt>
      <trkpt lat="50.64534" lon="3.06225">
        <ele>21.8</ele>
        <time>2020-06-23T17:00:02Z</time>
      </trkpt>
      <trkpt lat="50.64533" lon="3.06224">
        <ele>21.8</ele>
        <time>2020-06-23T17:00:03Z</time>
      </trkpt>
      <trkpt lat="50.64535" lon="3.06222">
        <ele>21.8</ele>
        <time>2020-06-23T17:00:04Z</time>
      </trkpt>
      <trkpt lat="50.64535" lon="3.06222">
        <ele>21.8</ele>
        <time>2020-06-23T17:00:05Z</time>
      </trkpt>
      <trkpt lat="50.64535" lon="3.06221">
        <ele>21.8</ele>
        <time>2020-06-23T17:00:06Z</time>
      </trkpt>
      <trkpt lat="50.64535" lon="3.06222">
        <ele>21.8</ele>
        <time>2020-06-23T17:00:07Z</time>
      </trkpt>
      <trkpt lat="50.64535" lon="3.06222">
        <ele>21.8</ele>
        <time>2020-06-23T17:00:08Z</time>
      </trkpt>
      <trkpt lat="50.64535" lon="3.06221">
        <ele>21.8</ele>
        <time>2020-06-23T17:00:09Z</time>
      </trkpt>
      <trkpt lat="50.64535" lon="3.06218">
        <ele>21.8</ele>
        <time>2020-06-23T17:00:10Z</time>
      </trkpt>
      <trkpt lat="50.64534" lon="3.06217">
        <ele>21.8</ele>
        <time>2020-06-23T17:00:11Z</time>
      </trkpt>
      <trkpt lat="50.64534" lon="3.06216">
        <ele>21.8</ele>
        <time>2020-06-23T17:00:12Z</time>
      </trkpt>
      <trkpt lat="50.64533" lon="3.06215">
        <ele>21.8</ele>
        <time>2020-06-23T17:00:13Z</time>
      </trkpt>
      <trkpt lat="50.64532" lon="3.06214">
        <ele>21.7</ele>
        <time>2020-06-23T17:00:14Z</time>
      </trkpt>
      <trkpt lat="50.6453" lon="3.06213">
        <ele>21.7</ele>
        <time>2020-06-23T17:00:15Z</time>
      </trkpt>
      <trkpt lat="50.64527" lon="3.06212">
        <ele>21.7</ele>
        <time>2020-06-23T17:00:16Z</time>
      </trkpt>
      <trkpt lat="50.64525" lon="3.06212">
        <ele>21.7</ele>
        <time>2020-06-23T17:00:17Z</time>
      </trkpt>
      <trkpt lat="50.64523" lon="3.06211">
        <ele>21.7</ele>
        <time>2020-06-23T17:00:18Z</time>
      </trkpt>
      <trkpt lat="50.6452" lon="3.06212">
        <ele>21.7</ele>
        <time>2020-06-23T17:00:19Z</time>
      </trkpt>
      <trkpt lat="50.64517" lon="3.06213">
        <ele>21.7</ele>
        <time>2020-06-23T17:00:20Z</time>
      </trkpt>
      <trkpt lat="50.64514" lon="3.06213">
        <ele>21.6</ele>
        <time>2020-06-23T17:00:21Z</time>
      </trkpt>
      <trkpt lat="50.6451" lon="3.06215">
        <ele>21.6</ele>
        <time>2020-06-23T17:00:22Z</time>
      </trkpt>
      <trkpt lat="50.64506" lon="3.06216">
        <ele>21.6</ele>
        <time>2020-06-23T17:00:23Z</time>
      </trkpt>
      <trkpt lat="50.64503" lon="3.06218">
        <ele>21.5</ele>
        <time>2020-06-23T17:00:24Z</time>
      </trkpt>
      <trkpt lat="50.64502" lon="3.06219">
        <ele>21.5</ele>
        <time>2020-06-23T17:00:25Z</time>
      </trkpt>
      <trkpt lat="50.64499" lon="3.0622">
        <ele>21.5</ele>
        <time>2020-06-23T17:00:26Z</time>
      </trkpt>
      <trkpt lat="50.64496" lon="3.06218">
        <ele>21.5</ele>
        <time>2020-06-23T17:00:27Z</time>
      </trkpt>
      <trkpt lat="50.64492" lon="3.06219">
        <ele>21.5</ele>
        <time>2020-06-23T17:00:28Z</time>
      </trkpt>
      <trkpt lat="50.64487" lon="3.06221">
        <ele>21.5</ele>
        <time>2020-06-23T17:00:29Z</time>
      </trkpt>
      <trkpt lat="50.64483" lon="3.06223">
        <ele>21.5</ele>
        <time>2020-06-23T17:00:30Z</time>
      </trkpt>
      <trkpt lat="50.64476" lon="3.06224">
        <ele>21.6</ele>
        <time>2020-06-23T17:00:31Z</time>
      </trkpt>
      <trkpt lat="50.64471" lon="3.06227">
        <ele>21.7</ele>
        <time>2020-06-23T17:00:32Z</time>
      </trkpt>
      <trkpt lat="50.64467" lon="3.06229">
        <ele>21.8</ele>
        <time>2020-06-23T17:00:33Z</time>
      </trkpt>
      <trkpt lat="50.64461" lon="3.06227">
        <ele>21.9</ele>
        <time>2020-06-23T17:00:34Z</time>
      </trkpt>
      <trkpt lat="50.64456" lon="3.06229">
        <ele>22</ele>
        <time>2020-06-23T17:00:35Z</time>
      </trkpt>
      <trkpt lat="50.64451" lon="3.06231">
        <ele>22.2</ele>
        <time>2020-06-23T17:00:36Z</time>
      </trkpt>
      <trkpt lat="50.64445" lon="3.06233">
        <ele>22.3</ele>
        <time>2020-06-23T17:00:37Z</time>
      </trkpt>
      <trkpt lat="50.6444" lon="3.06235">
        <ele>22.5</ele>
        <time>2020-06-23T17:00:38Z</time>
      </trkpt>
      <trkpt lat="50.64435" lon="3.06238">
        <ele>22.6</ele>
        <time>2020-06-23T17:00:39Z</time>
      </trkpt>
      <trkpt lat="50.6443" lon="3.06238">
        <ele>22.8</ele>
        <time>2020-06-23T17:00:40Z</time>
      </trkpt>
      <trkpt lat="50.64425" lon="3.06239">
        <ele>23</ele>
        <time>2020-06-23T17:00:41Z</time>
      </trkpt>
      <trkpt lat="50.6442" lon="3.0624">
        <ele>23.1</ele>
        <time>2020-06-23T17:00:42Z</time>
      </trkpt>
      <trkpt lat="50.64414" lon="3.06239">
        <ele>23.2</ele>
        <time>2020-06-23T17:00:43Z</time>
      </trkpt>
      <trkpt lat="50.6441" lon="3.06239">
        <ele>23.3</ele>
        <time>2020-06-23T17:00:44Z</time>
      </trkpt>
      <trkpt lat="50.64406" lon="3.06237">
        <ele>23.3</ele>
        <time>2020-06-23T17:00:45Z</time>
      </trkpt>
      <trkpt lat="50.64403" lon="3.06233">
        <ele>23.4</ele>
        <time>2020-06-23T17:00:46Z</time>
      </trkpt>
      <trkpt lat="50.64403" lon="3.06226">
        <ele>23.4</ele>
        <time>2020-06-23T17:00:47Z</time>
      </trkpt>
      <trkpt lat="50.64402" lon="3.0622">
        <ele>23.4</ele>
        <time>2020-06-23T17:00:48Z</time>
      </trkpt>
      <trkpt lat="50.644" lon="3.06214">
        <ele>23.3</ele>
        <time>2020-06-23T17:00:49Z</time>
      </trkpt>
      <trkpt lat="50.64397" lon="3.06209">
        <ele>23.3</ele>
        <time>2020-06-23T17:00:50Z</time>
      </trkpt>
      <trkpt lat="50.64394" lon="3.06204">
        <ele>23.3</ele>
        <time>2020-06-23T17:00:51Z</time>
      </trkpt>
      <trkpt lat="50.64391" lon="3.062">
        <ele>23.2</ele>
        <time>2020-06-23T17:00:52Z</time>
      </trkpt>
      <trkpt lat="50.64388" lon="3.06197">
        <ele>23.1</ele>
        <time>2020-06-23T17:00:53Z</time>
      </trkpt>
      <trkpt lat="50.64385" lon="3.06197">
        <ele>23</ele>
        <time>2020-06-23T17:00:54Z</time>
      </trkpt>
      <trkpt lat="50.64381" lon="3.06199">
        <ele>22.9</ele>
        <time>2020-06-23T17:00:55Z</time>
      </trkpt>
      <trkpt lat="50.64377" lon="3.06203">
        <ele>22.7</ele>
        <time>2020-06-23T17:00:56Z</time>
      </trkpt>
      <trkpt lat="50.64372" lon="3.06208">
        <ele>22.5</ele>
        <time>2020-06-23T17:00:57Z</time>
      </trkpt>
      <trkpt lat="50.64368" lon="3.06212">
        <ele>22.4</ele>
        <time>2020-06-23T17:00:58Z</time>
      </trkpt>
      <trkpt lat="50.64364" lon="3.06219">
        <ele>22.2</ele>
        <time>2020-06-23T17:00:59Z</time>
      </trkpt>
      <trkpt lat="50.6436" lon="3.06223">
        <ele>22</ele>
        <time>2020-06-23T17:01:00Z</time>
      </trkpt>
      <trkpt lat="50.64355" lon="3.06229">
        <ele>21.8</ele>
        <time>2020-06-23T17:01:01Z</time>
      </trkpt>
      <trkpt lat="50.6435" lon="3.06235">
        <ele>21.5</ele>
        <time>2020-06-23T17:01:02Z</time>
      </trkpt>
      <trkpt lat="50.64345" lon="3.0624">
        <ele>21.3</ele>
        <time>2020-06-23T17:01:03Z</time>
      </trkpt>
      <trkpt lat="50.6434" lon="3.06245">
        <ele>21.2</ele>
        <time>2020-06-23T17:01:04Z</time>
      </trkpt>
      <trkpt lat="50.64334" lon="3.0625">
        <ele>21</ele>
        <time>2020-06-23T17:01:05Z</time>
      </trkpt>
      <trkpt lat="50.64328" lon="3.06256">
        <ele>20.8</ele>
        <time>2020-06-23T17:01:06Z</time>
      </trkpt>
      <trkpt lat="50.64323" lon="3.06262">
        <ele>20.6</ele>
        <time>2020-06-23T17:01:07Z</time>
      </trkpt>
      <trkpt lat="50.64317" lon="3.06267">
        <ele>20.6</ele>
        <time>2020-06-23T17:01:08Z</time>
      </trkpt>
      <trkpt lat="50.64312" lon="3.06272">
        <ele>20.5</ele>
        <time>2020-06-23T17:01:09Z</time>
      </trkpt>
      <trkpt lat="50.64303" lon="3.06274">
        <ele>20.4</ele>
        <time>2020-06-23T17:01:10Z</time>
      </trkpt>
      <trkpt lat="50.64297" lon="3.06277">
        <ele>20.3</ele>
        <time>2020-06-23T17:01:11Z</time>
      </trkpt>
      <trkpt lat="50.6429" lon="3.06279">
        <ele>20.5</ele>
        <time>2020-06-23T17:01:12Z</time>
      </trkpt>
      <trkpt lat="50.64284" lon="3.06281">
        <ele>20.7</ele>
        <time>2020-06-23T17:01:13Z</time>
      </trkpt>
      <trkpt lat="50.64279" lon="3.06284">
        <ele>20.7</ele>
        <time>2020-06-23T17:01:14Z</time>
      </trkpt>
      <trkpt lat="50.64274" lon="3.06288">
        <ele>20.8</ele>
        <time>2020-06-23T17:01:15Z</time>
      </trkpt>
      <trkpt lat="50.64269" lon="3.06291">
        <ele>20.9</ele>
        <time>2020-06-23T17:01:16Z</time>
      </trkpt>
      <trkpt lat="50.64264" lon="3.06295">
        <ele>21</ele>
        <time>2020-06-23T17:01:17Z</time>
      </trkpt>
      <trkpt lat="50.64259" lon="3.06299">
        <ele>21</ele>
        <time>2020-06-23T17:01:18Z</time>
      </trkpt>
      <trkpt lat="50.64256" lon="3.06302">
        <ele>21.1</ele>
        <time>2020-06-23T17:01:19Z</time>
      </trkpt>
      <trkpt lat="50.64252" lon="3.06306">
        <ele>21.2</ele>
        <time>2020-06-23T17:01:20Z</time>
      </trkpt>
      <trkpt lat="50.64247" lon="3.0631">
        <ele>21.3</ele>
        <time>2020-06-23T17:01:21Z</time>
      </trkpt>
      <trkpt lat="50.64244" lon="3.06314">
        <ele>21.3</ele>
        <time>2020-06-23T17:01:22Z</time>
      </trkpt>
      <trkpt lat="50.6424" lon="3.06317">
        <ele>21.2</ele>
        <time>2020-06-23T17:01:23Z</time>
      </trkpt>
      <trkpt lat="50.64236" lon="3.06321">
        <ele>21.2</ele>
        <time>2020-06-23T17:01:24Z</time>
      </trkpt>
      <trkpt lat="50.64232" lon="3.06326">
        <ele>21.2</ele>
        <time>2020-06-23T17:01:25Z</time>
      </trkpt>
      <trkpt lat="50.64229" lon="3.06328">
        <ele>21.2</ele>
        <time>2020-06-23T17:01:26Z</time>
      </trkpt>
      <trkpt lat="50.64225" lon="3.0633">
        <ele>21.2</ele>
        <time>2020-06-23T17:01:27Z</time>
      </trkpt>
      <trkpt lat="50.64221" lon="3.06334">
        <ele>21.2</ele>
        <time>2020-06-23T17:01:28Z</time>
      </trkpt>
      <trkpt lat="50.64218" lon="3.06338">
        <ele>21.2</ele>
        <time>2020-06-23T17:01:29Z</time>
      </trkpt>
      <trkpt lat="50.64212" lon="3.06343">
        <ele>21.2</ele>
        <time>2020-06-23T17:01:30Z</time>
      </trkpt>
      <trkpt lat="50.64207" lon="3.06347">
        <ele>21.2</ele>
        <time>2020-06-23T17:01:31Z</time>
      </trkpt>
      <trkpt lat="50.64201" lon="3.06354">
        <ele>21.2</ele>
        <time>2020-06-23T17:01:32Z</time>
      </trkpt>
      <trkpt lat="50.64194" lon="3.06359">
        <ele>21.3</ele>
        <time>2020-06-23T17:01:33Z</time>
      </trkpt>
      <trkpt lat="50.64188" lon="3.06363">
        <ele>21.3</ele>
        <time>2020-06-23T17:01:34Z</time>
      </trkpt>
      <trkpt lat="50.64182" lon="3.0637">
        <ele>21.4</ele>
        <time>2020-06-23T17:01:35Z</time>
      </trkpt>
      <trkpt lat="50.64176" lon="3.06375">
        <ele>21.4</ele>
        <time>2020-06-23T17:01:36Z</time>
      </trkpt>
      <trkpt lat="50.64169" lon="3.06381">
        <ele>21.8</ele>
        <time>2020-06-23T17:01:37Z</time>
      </trkpt>
      <trkpt lat="50.64164" lon="3.06387">
        <ele>21.9</ele>
        <time>2020-06-23T17:01:38Z</time>
      </trkpt>
      <trkpt lat="50.64159" lon="3.06391">
        <ele>22</ele>
        <time>2020-06-23T17:01:39Z</time>
      </trkpt>
      <trkpt lat="50.64154" lon="3.06395">
        <ele>22.2</ele>
        <time>2020-06-23T17:01:40Z</time>
      </trkpt>
      <trkpt lat="50.64149" lon="3.06401">
        <ele>22.3</ele>
        <time>2020-06-23T17:01:41Z</time>
      </trkpt>
      <trkpt lat="50.64144" lon="3.06406">
        <ele>22.4</ele>
        <time>2020-06-23T17:01:42Z</time>
      </trkpt>
      <trkpt lat="50.6414" lon="3.06411">
        <ele>22.5</ele>
        <time>2020-06-23T17:01:43Z</time>
      </trkpt>
      <trkpt lat="50.64136" lon="3.0642">
        <ele>22.7</ele>
        <time>2020-06-23T17:01:44Z</time>
      </trkpt>
      <trkpt lat="50.64133" lon="3.06427">
        <ele>22.7</ele>
        <time>2020-06-23T17:01:45Z</time>
      </trkpt>
      <trkpt lat="50.64131" lon="3.06433">
        <ele>22.7</ele>
        <time>2020-06-23T17:01:46Z</time>
      </trkpt>
      <trkpt lat="50.64129" lon="3.06436">
        <ele>22.7</ele>
        <time>2020-06-23T17:01:47Z</time>
      </trkpt>
      <trkpt lat="50.64129" lon="3.06441">
        <ele>22.8</ele>
        <time>2020-06-23T17:01:48Z</time>
      </trkpt>
      <trkpt lat="50.64127" lon="3.06445">
        <ele>22.8</ele>
        <time>2020-06-23T17:01:49Z</time>
      </trkpt>
      <trkpt lat="50.64125" lon="3.06449">
        <ele>22.9</ele>
        <time>2020-06-23T17:01:50Z</time>
      </trkpt>
      <trkpt lat="50.64123" lon="3.06453">
        <ele>22.9</ele>
        <time>2020-06-23T17:01:51Z</time>
      </trkpt>
      <trkpt lat="50.6412" lon="3.06459">
        <ele>23</ele>
        <time>2020-06-23T17:01:52Z</time>
      </trkpt>
      <trkpt lat="50.64119" lon="3.06465">
        <ele>23.1</ele>
        <time>2020-06-23T17:01:53Z</time>
      </trkpt>
      <trkpt lat="50.64116" lon="3.0647">
        <ele>23.1</ele>
        <time>2020-06-23T17:01:54Z</time>
      </trkpt>
      <trkpt lat="50.64114" lon="3.06474">
        <ele>23.2</ele>
        <time>2020-06-23T17:01:55Z</time>
      </trkpt>
      <trkpt lat="50.64111" lon="3.06478">
        <ele>23.3</ele>
        <time>2020-06-23T17:01:56Z</time>
      </trkpt>
      <trkpt lat="50.64108" lon="3.06481">
        <ele>23.3</ele>
        <time>2020-06-23T17:01:57Z</time>
      </trkpt>
      <trkpt lat="50.64105" lon="3.06486">
        <ele>23.5</ele>
        <time>2020-06-23T17:01:58Z</time>
      </trkpt>
      <trkpt lat="50.64103" lon="3.0649">
        <ele>23.5</ele>
        <time>2020-06-23T17:01:59Z</time>
      </trkpt>
      <trkpt lat="50.64101" lon="3.06495">
        <ele>23.6</ele>
        <time>2020-06-23T17:02:00Z</time>
      </trkpt>
      <trkpt lat="50.641" lon="3.06501">
        <ele>23.6</ele>
        <time>2020-06-23T17:02:01Z</time>
      </trkpt>
      <trkpt lat="50.64099" lon="3.06507">
        <ele>23.7</ele>
        <time>2020-06-23T17:02:02Z</time>
      </trkpt>
      <trkpt lat="50.64104" lon="3.06507">
        <ele>23.7</ele>
        <time>2020-06-23T17:02:03Z</time>
      </trkpt>
      <trkpt lat="50.64108" lon="3.06513">
        <ele>23.8</ele>
        <time>2020-06-23T17:02:04Z</time>
      </trkpt>
      <trkpt lat="50.64111" lon="3.06518">
        <ele>23.9</ele>
        <time>2020-06-23T17:02:05Z</time>
      </trkpt>
      <trkpt lat="50.64114" lon="3.06521">
        <ele>23.9</ele>
        <time>2020-06-23T17:02:06Z</time>
      </trkpt>
      <trkpt lat="50.64118" lon="3.06526">
        <ele>24</ele>
        <time>2020-06-23T17:02:07Z</time>
      </trkpt>
      <trkpt lat="50.64122" lon="3.06531">
        <ele>24.1</ele>
        <time>2020-06-23T17:02:08Z</time>
      </trkpt>
      <trkpt lat="50.64125" lon="3.06531">
        <ele>24.2</ele>
        <time>2020-06-23T17:02:09Z</time>
      </trkpt>
      <trkpt lat="50.64127" lon="3.06534">
        <ele>24.2</ele>
        <time>2020-06-23T17:02:10Z</time>
      </trkpt>
      <trkpt lat="50.6413" lon="3.06537">
        <ele>24.2</ele>
        <time>2020-06-23T17:02:11Z</time>
      </trkpt>
      <trkpt lat="50.64131" lon="3.06538">
        <ele>24.2</ele>
        <time>2020-06-23T17:02:12Z</time>
      </trkpt>
      <trkpt lat="50.6413" lon="3.06542">
        <ele>24.2</ele>
        <time>2020-06-23T17:02:13Z</time>
      </trkpt>
      <trkpt lat="50.64127" lon="3.06545">
        <ele>24.4</ele>
        <time>2020-06-23T17:02:14Z</time>
      </trkpt>
      <trkpt lat="50.64125" lon="3.06546">
        <ele>24.4</ele>
        <time>2020-06-23T17:02:15Z</time>
      </trkpt>
      <trkpt lat="50.64123" lon="3.06549">
        <ele>24.5</ele>
        <time>2020-06-23T17:02:16Z</time>
      </trkpt>
      <trkpt lat="50.6412" lon="3.06553">
        <ele>24.6</ele>
        <time>2020-06-23T17:02:17Z</time>
      </trkpt>
      <trkpt lat="50.64119" lon="3.06554">
        <ele>24.6</ele>
        <time>2020-06-23T17:02:18Z</time>
      </trkpt>
      <trkpt lat="50.64117" lon="3.06557">
        <ele>24.7</ele>
        <time>2020-06-23T17:02:19Z</time>
      </trkpt>
      <trkpt lat="50.64117" lon="3.06559">
        <ele>24.7</ele>
        <time>2020-06-23T17:02:20Z</time>
      </trkpt>
      <trkpt lat="50.64114" lon="3.06562">
        <ele>24.8</ele>
        <time>2020-06-23T17:02:21Z</time>
      </trkpt>
      <trkpt lat="50.64112" lon="3.06567">
        <ele>24.9</ele>
        <time>2020-06-23T17:02:22Z</time>
      </trkpt>
      <trkpt lat="50.6411" lon="3.06571">
        <ele>24.9</ele>
        <time>2020-06-23T17:02:23Z</time>
      </trkpt>
      <trkpt lat="50.64109" lon="3.06575">
        <ele>25</ele>
        <time>2020-06-23T17:02:24Z</time>
      </trkpt>
      <trkpt lat="50.64108" lon="3.0658">
        <ele>25.1</ele>
        <time>2020-06-23T17:02:25Z</time>
      </trkpt>
      <trkpt lat="50.64107" lon="3.06581">
        <ele>25.1</ele>
        <time>2020-06-23T17:02:26Z</time>
      </trkpt>
      <trkpt lat="50.64105" lon="3.06584">
        <ele>25.2</ele>
        <time>2020-06-23T17:02:27Z</time>
      </trkpt>
      <trkpt lat="50.64104" lon="3.06585">
        <ele>25.2</ele>
        <time>2020-06-23T17:02:28Z</time>
      </trkpt>
      <trkpt lat="50.641" lon="3.06584">
        <ele>25</ele>
        <time>2020-06-23T17:02:29Z</time>
      </trkpt>
      <trkpt lat="50.64098" lon="3.06584">
        <ele>24.9</ele>
        <time>2020-06-23T17:02:30Z</time>
      </trkpt>
      <trkpt lat="50.64093" lon="3.06582">
        <ele>24.7</ele>
        <time>2020-06-23T17:02:31Z</time>
      </trkpt>
      <trkpt lat="50.64088" lon="3.06582">
        <ele>24.5</ele>
        <time>2020-06-23T17:02:32Z</time>
      </trkpt>
      <trkpt lat="50.64083" lon="3.06583">
        <ele>24.3</ele>
        <time>2020-06-23T17:02:33Z</time>
      </trkpt>
      <trkpt lat="50.64078" lon="3.06583">
        <ele>24.2</ele>
        <time>2020-06-23T17:02:34Z</time>
      </trkpt>
      <trkpt lat="50.64073" lon="3.06584">
        <ele>24</ele>
        <time>2020-06-23T17:02:35Z</time>
      </trkpt>
      <trkpt lat="50.64068" lon="3.06587">
        <ele>23.9</ele>
        <time>2020-06-23T17:02:36Z</time>
      </trkpt>
      <trkpt lat="50.64063" lon="3.06588">
        <ele>23.7</ele>
        <time>2020-06-23T17:02:37Z</time>
      </trkpt>
      <trkpt lat="50.64058" lon="3.06589">
        <ele>23.3</ele>
        <time>2020-06-23T17:02:38Z</time>
      </trkpt>
      <trkpt lat="50.64056" lon="3.06595">
        <ele>23.2</ele>
        <time>2020-06-23T17:02:39Z</time>
      </trkpt>
      <trkpt lat="50.64055" lon="3.06602">
        <ele>23.2</ele>
        <time>2020-06-23T17:02:40Z</time>
      </trkpt>
      <trkpt lat="50.64056" lon="3.06609">
        <ele>23.2</ele>
        <time>2020-06-23T17:02:41Z</time>
      </trkpt>
      <trkpt lat="50.64058" lon="3.06618">
        <ele>23.1</ele>
        <time>2020-06-23T17:02:42Z</time>
      </trkpt>
      <trkpt lat="50.64059" lon="3.06628">
        <ele>23</ele>
        <time>2020-06-23T17:02:43Z</time>
      </trkpt>
      <trkpt lat="50.64061" lon="3.06636">
        <ele>23</ele>
        <time>2020-06-23T17:02:44Z</time>
      </trkpt>
      <trkpt lat="50.64062" lon="3.06646">
        <ele>23</ele>
        <time>2020-06-23T17:02:45Z</time>
      </trkpt>
      <trkpt lat="50.64063" lon="3.06655">
        <ele>22.9</ele>
        <time>2020-06-23T17:02:46Z</time>
      </trkpt>
      <trkpt lat="50.64064" lon="3.06663">
        <ele>22.9</ele>
        <time>2020-06-23T17:02:47Z</time>
      </trkpt>
      <trkpt lat="50.64064" lon="3.06672">
        <ele>22.9</ele>
        <time>2020-06-23T17:02:48Z</time>
      </trkpt>
      <trkpt lat="50.64065" lon="3.06682">
        <ele>23</ele>
        <time>2020-06-23T17:02:49Z</time>
      </trkpt>
      <trkpt lat="50.64066" lon="3.0669">
        <ele>23</ele>
        <time>2020-06-23T17:02:50Z</time>
      </trkpt>
      <trkpt lat="50.64067" lon="3.06699">
        <ele>23</ele>
        <time>2020-06-23T17:02:51Z</time>
      </trkpt>
      <trkpt lat="50.64068" lon="3.06707">
        <ele>23.1</ele>
        <time>2020-06-23T17:02:52Z</time>
      </trkpt>
      <trkpt lat="50.64069" lon="3.06714">
        <ele>23.1</ele>
        <time>2020-06-23T17:02:53Z</time>
      </trkpt>
      <trkpt lat="50.6407" lon="3.0672">
        <ele>23.2</ele>
        <time>2020-06-23T17:02:54Z</time>
      </trkpt>
      <trkpt lat="50.64068" lon="3.06725">
        <ele>23.3</ele>
        <time>2020-06-23T17:02:55Z</time>
      </trkpt>
      <trkpt lat="50.64066" lon="3.06726">
        <ele>23.3</ele>
        <time>2020-06-23T17:02:56Z</time>
      </trkpt>
      <trkpt lat="50.64064" lon="3.06729">
        <ele>23.2</ele>
        <time>2020-06-23T17:02:57Z</time>
      </trkpt>
      <trkpt lat="50.6406" lon="3.06731">
        <ele>23.2</ele>
        <time>2020-06-23T17:02:58Z</time>
      </trkpt>
      <trkpt lat="50.64055" lon="3.06734">
        <ele>23.2</ele>
        <time>2020-06-23T17:02:59Z</time>
      </trkpt>
      <trkpt lat="50.6405" lon="3.06738">
        <ele>23.1</ele>
        <time>2020-06-23T17:03:00Z</time>
      </trkpt>
      <trkpt lat="50.64044" lon="3.06741">
        <ele>23.1</ele>
        <time>2020-06-23T17:03:01Z</time>
      </trkpt>
      <trkpt lat="50.64039" lon="3.06743">
        <ele>23</ele>
        <time>2020-06-23T17:03:02Z</time>
      </trkpt>
      <trkpt lat="50.64033" lon="3.06746">
        <ele>23</ele>
        <time>2020-06-23T17:03:03Z</time>
      </trkpt>
      <trkpt lat="50.64027" lon="3.06749">
        <ele>22.9</ele>
        <time>2020-06-23T17:03:04Z</time>
      </trkpt>
      <trkpt lat="50.64023" lon="3.06753">
        <ele>22.9</ele>
        <time>2020-06-23T17:03:05Z</time>
      </trkpt>
      <trkpt lat="50.64018" lon="3.06756">
        <ele>22.9</ele>
        <time>2020-06-23T17:03:06Z</time>
      </trkpt>
      <trkpt lat="50.64013" lon="3.06758">
        <ele>22.8</ele>
        <time>2020-06-23T17:03:07Z</time>
      </trkpt>
      <trkpt lat="50.64009" lon="3.06761">
        <ele>22.8</ele>
        <time>2020-06-23T17:03:08Z</time>
      </trkpt>
      <trkpt lat="50.64005" lon="3.06765">
        <ele>22.8</ele>
        <time>2020-06-23T17:03:09Z</time>
      </trkpt>
      <trkpt lat="50.64001" lon="3.06767">
        <ele>22.8</ele>
        <time>2020-06-23T17:03:10Z</time>
      </trkpt>
      <trkpt lat="50.63997" lon="3.06768">
        <ele>22.8</ele>
        <time>2020-06-23T17:03:11Z</time>
      </trkpt>
      <trkpt lat="50.63994" lon="3.06769">
        <ele>22.8</ele>
        <time>2020-06-23T17:03:12Z</time>
      </trkpt>
      <trkpt lat="50.6399" lon="3.06771">
        <ele>22.8</ele>
        <time>2020-06-23T17:03:13Z</time>
      </trkpt>
      <trkpt lat="50.63987" lon="3.06773">
        <ele>22.8</ele>
        <time>2020-06-23T17:03:14Z</time>
      </trkpt>
      <trkpt lat="50.63985" lon="3.06774">
        <ele>22.8</ele>
        <time>2020-06-23T17:03:15Z</time>
      </trkpt>
      <trkpt lat="50.63983" lon="3.06775">
        <ele>22.8</ele>
        <time>2020-06-23T17:03:16Z</time>
      </trkpt>
      <trkpt lat="50.63979" lon="3.06778">
        <ele>22.7</ele>
        <time>2020-06-23T17:03:17Z</time>
      </trkpt>
      <trkpt lat="50.63977" lon="3.06779">
        <ele>22.7</ele>
        <time>2020-06-23T17:03:18Z</time>
      </trkpt>
      <trkpt lat="50.63974" lon="3.06781">
        <ele>22.7</ele>
        <time>2020-06-23T17:03:19Z</time>
      </trkpt>
      <trkpt lat="50.6397" lon="3.06784">
        <ele>22.7</ele>
        <time>2020-06-23T17:03:20Z</time>
      </trkpt>
      <trkpt lat="50.63965" lon="3.06789">
        <ele>22.7</ele>
        <time>2020-06-23T17:03:21Z</time>
      </trkpt>
      <trkpt lat="50.63961" lon="3.06792">
        <ele>22.7</ele>
        <time>2020-06-23T17:03:22Z</time>
      </trkpt>
      <trkpt lat="50.63959" lon="3.06793">
        <ele>22.7</ele>
        <time>2020-06-23T17:03:23Z</time>
      </trkpt>
      <trkpt lat="50.63956" lon="3.06794">
        <ele>22.8</ele>
        <time>2020-06-23T17:03:24Z</time>
      </trkpt>
      <trkpt lat="50.63952" lon="3.06799">
        <ele>23.1</ele>
        <time>2020-06-23T17:03:25Z</time>
      </trkpt>
      <trkpt lat="50.63948" lon="3.06801">
        <ele>23.1</ele>
        <time>2020-06-23T17:03:26Z</time>
      </trkpt>
      <trkpt lat="50.63942" lon="3.06806">
        <ele>23</ele>
        <time>2020-06-23T17:03:27Z</time>
      </trkpt>
      <trkpt lat="50.63937" lon="3.0681">
        <ele>23</ele>
        <time>2020-06-23T17:03:28Z</time>
      </trkpt>
      <trkpt lat="50.63931" lon="3.06815">
        <ele>22.9</ele>
        <time>2020-06-23T17:03:29Z</time>
      </trkpt>
      <trkpt lat="50.63925" lon="3.06819">
        <ele>22.9</ele>
        <time>2020-06-23T17:03:30Z</time>
      </trkpt>
      <trkpt lat="50.63919" lon="3.06823">
        <ele>22.9</ele>
        <time>2020-06-23T17:03:31Z</time>
      </trkpt>
      <trkpt lat="50.63912" lon="3.06827">
        <ele>22.9</ele>
        <time>2020-06-23T17:03:32Z</time>
      </trkpt>
      <trkpt lat="50.63906" lon="3.06832">
        <ele>22.9</ele>
        <time>2020-06-23T17:03:33Z</time>
      </trkpt>
      <trkpt lat="50.639" lon="3.06832">
        <ele>22.9</ele>
        <time>2020-06-23T17:03:34Z</time>
      </trkpt>
      <trkpt lat="50.63895" lon="3.06836">
        <ele>22.9</ele>
        <time>2020-06-23T17:03:35Z</time>
      </trkpt>
      <trkpt lat="50.63888" lon="3.0684">
        <ele>22.9</ele>
        <time>2020-06-23T17:03:36Z</time>
      </trkpt>
      <trkpt lat="50.63882" lon="3.06844">
        <ele>22.9</ele>
        <time>2020-06-23T17:03:37Z</time>
      </trkpt>
      <trkpt lat="50.63875" lon="3.06848">
        <ele>23</ele>
        <time>2020-06-23T17:03:38Z</time>
      </trkpt>
      <trkpt lat="50.63869" lon="3.06852">
        <ele>23</ele>
        <time>2020-06-23T17:03:39Z</time>
      </trkpt>
      <trkpt lat="50.63863" lon="3.06856">
        <ele>23.1</ele>
        <time>2020-06-23T17:03:40Z</time>
      </trkpt>
      <trkpt lat="50.63857" lon="3.0686">
        <ele>23.2</ele>
        <time>2020-06-23T17:03:41Z</time>
      </trkpt>
      <trkpt lat="50.63853" lon="3.06862">
        <ele>23.2</ele>
        <time>2020-06-23T17:03:42Z</time>
      </trkpt>
      <trkpt lat="50.63849" lon="3.06864">
        <ele>23.3</ele>
        <time>2020-06-23T17:03:43Z</time>
      </trkpt>
      <trkpt lat="50.63844" lon="3.06866">
        <ele>23.3</ele>
        <time>2020-06-23T17:03:44Z</time>
      </trkpt>
      <trkpt lat="50.63842" lon="3.06869">
        <ele>23.3</ele>
        <time>2020-06-23T17:03:45Z</time>
      </trkpt>
      <trkpt lat="50.63845" lon="3.0687">
        <ele>23.3</ele>
        <time>2020-06-23T17:03:46Z</time>
      </trkpt>
      <trkpt lat="50.63842" lon="3.06869">
        <ele>23.3</ele>
        <time>2020-06-23T17:03:47Z</time>
      </trkpt>
      <trkpt lat="50.63839" lon="3.06863">
        <ele>23.4</ele>
        <time>2020-06-23T17:03:48Z</time>
      </trkpt>
      <trkpt lat="50.63834" lon="3.06855">
        <ele>23.4</ele>
        <time>2020-06-23T17:03:49Z</time>
      </trkpt>
      <trkpt lat="50.6383" lon="3.06848">
        <ele>23.5</ele>
        <time>2020-06-23T17:03:50Z</time>
      </trkpt>
      <trkpt lat="50.63827" lon="3.06842">
        <ele>23.5</ele>
        <time>2020-06-23T17:03:51Z</time>
      </trkpt>
      <trkpt lat="50.63823" lon="3.06835">
        <ele>23.6</ele>
        <time>2020-06-23T17:03:52Z</time>
      </trkpt>
      <trkpt lat="50.63819" lon="3.06828">
        <ele>23.6</ele>
        <time>2020-06-23T17:03:53Z</time>
      </trkpt>
      <trkpt lat="50.63815" lon="3.06824">
        <ele>23.7</ele>
        <time>2020-06-23T17:03:54Z</time>
      </trkpt>
      <trkpt lat="50.6381" lon="3.06817">
        <ele>23.8</ele>
        <time>2020-06-23T17:03:55Z</time>
      </trkpt>
      <trkpt lat="50.63805" lon="3.06811">
        <ele>23.9</ele>
        <time>2020-06-23T17:03:56Z</time>
      </trkpt>
      <trkpt lat="50.638" lon="3.068">
        <ele>24.2</ele>
        <time>2020-06-23T17:03:57Z</time>
      </trkpt>
      <trkpt lat="50.63796" lon="3.06791">
        <ele>24.2</ele>
        <time>2020-06-23T17:03:58Z</time>
      </trkpt>
      <trkpt lat="50.63793" lon="3.06786">
        <ele>24.2</ele>
        <time>2020-06-23T17:03:59Z</time>
      </trkpt>
      <trkpt lat="50.63789" lon="3.06781">
        <ele>24.3</ele>
        <time>2020-06-23T17:04:00Z</time>
      </trkpt>
      <trkpt lat="50.63786" lon="3.06776">
        <ele>24.3</ele>
        <time>2020-06-23T17:04:01Z</time>
      </trkpt>
      <trkpt lat="50.63783" lon="3.0677">
        <ele>24.4</ele>
        <time>2020-06-23T17:04:02Z</time>
      </trkpt>
      <trkpt lat="50.63779" lon="3.06762">
        <ele>24.5</ele>
        <time>2020-06-23T17:04:03Z</time>
      </trkpt>
      <trkpt lat="50.63776" lon="3.06754">
        <ele>24.6</ele>
        <time>2020-06-23T17:04:04Z</time>
      </trkpt>
      <trkpt lat="50.63773" lon="3.06747">
        <ele>24.7</ele>
        <time>2020-06-23T17:04:05Z</time>
      </trkpt>
      <trkpt lat="50.6377" lon="3.0674">
        <ele>24.8</ele>
        <time>2020-06-23T17:04:06Z</time>
      </trkpt>
      <trkpt lat="50.63769" lon="3.06733">
        <ele>24.8</ele>
        <time>2020-06-23T17:04:07Z</time>
      </trkpt>
      <trkpt lat="50.63769" lon="3.06728">
        <ele>24.9</ele>
        <time>2020-06-23T17:04:08Z</time>
      </trkpt>
      <trkpt lat="50.63772" lon="3.06723">
        <ele>24.8</ele>
        <time>2020-06-23T17:04:09Z</time>
      </trkpt>
      <trkpt lat="50.63774" lon="3.06717">
        <ele>24.8</ele>
        <time>2020-06-23T17:04:10Z</time>
      </trkpt>
      <trkpt lat="50.63775" lon="3.06715">
        <ele>24.8</ele>
        <time>2020-06-23T17:04:11Z</time>
      </trkpt>
      <trkpt lat="50.63778" lon="3.06712">
        <ele>24.8</ele>
        <time>2020-06-23T17:04:12Z</time>
      </trkpt>
      <trkpt lat="50.63778" lon="3.06712">
        <ele>24.8</ele>
        <time>2020-06-23T17:04:13Z</time>
      </trkpt>
      <trkpt lat="50.63779" lon="3.0671">
        <ele>24.8</ele>
        <time>2020-06-23T17:04:14Z</time>
      </trkpt>
      <trkpt lat="50.63781" lon="3.06708">
        <ele>24.7</ele>
        <time>2020-06-23T17:04:15Z</time>
      </trkpt>
      <trkpt lat="50.63783" lon="3.06705">
        <ele>24.7</ele>
        <time>2020-06-23T17:04:16Z</time>
      </trkpt>
      <trkpt lat="50.63786" lon="3.06701">
        <ele>24.7</ele>
        <time>2020-06-23T17:04:17Z</time>
      </trkpt>
      <trkpt lat="50.63788" lon="3.06699">
        <ele>24.7</ele>
        <time>2020-06-23T17:04:18Z</time>
      </trkpt>
      <trkpt lat="50.6379" lon="3.06696">
        <ele>24.7</ele>
        <time>2020-06-23T17:04:19Z</time>
      </trkpt>
      <trkpt lat="50.63793" lon="3.06693">
        <ele>24.7</ele>
        <time>2020-06-23T17:04:20Z</time>
      </trkpt>
      <trkpt lat="50.63795" lon="3.06689">
        <ele>24.6</ele>
        <time>2020-06-23T17:04:21Z</time>
      </trkpt>
      <trkpt lat="50.63799" lon="3.06685">
        <ele>24.6</ele>
        <time>2020-06-23T17:04:22Z</time>
      </trkpt>
      <trkpt lat="50.63802" lon="3.06682">
        <ele>24.6</ele>
        <time>2020-06-23T17:04:23Z</time>
      </trkpt>
      <trkpt lat="50.63802" lon="3.0668">
        <ele>24.6</ele>
        <time>2020-06-23T17:04:24Z</time>
      </trkpt>
      <trkpt lat="50.63805" lon="3.06678">
        <ele>24.6</ele>
        <time>2020-06-23T17:04:25Z</time>
      </trkpt>
      <trkpt lat="50.63807" lon="3.06675">
        <ele>24.5</ele>
        <time>2020-06-23T17:04:26Z</time>
      </trkpt>
      <trkpt lat="50.6381" lon="3.06672">
        <ele>24.5</ele>
        <time>2020-06-23T17:04:27Z</time>
      </trkpt>
      <trkpt lat="50.63811" lon="3.06671">
        <ele>24.5</ele>
        <time>2020-06-23T17:04:28Z</time>
      </trkpt>
      <trkpt lat="50.63812" lon="3.0667">
        <ele>24.5</ele>
        <time>2020-06-23T17:04:29Z</time>
      </trkpt>
      <trkpt lat="50.63814" lon="3.06669">
        <ele>24.5</ele>
        <time>2020-06-23T17:04:30Z</time>
      </trkpt>
      <trkpt lat="50.63813" lon="3.06667">
        <ele>24.5</ele>
        <time>2020-06-23T17:04:31Z</time>
      </trkpt>
      <trkpt lat="50.63813" lon="3.06666">
        <ele>24.5</ele>
        <time>2020-06-23T17:04:32Z</time>
      </trkpt>
      <trkpt lat="50.63813" lon="3.06666">
        <ele>24.5</ele>
        <time>2020-06-23T17:04:33Z</time>
      </trkpt>
      <trkpt lat="50.63811" lon="3.06668">
        <ele>24.5</ele>
        <time>2020-06-23T17:04:34Z</time>
      </trkpt>
      <trkpt lat="50.63811" lon="3.06668">
        <ele>24.5</ele>
        <time>2020-06-23T17:04:35Z</time>
      </trkpt>
      <trkpt lat="50.63811" lon="3.06667">
        <ele>24.5</ele>
        <time>2020-06-23T17:04:36Z</time>
      </trkpt>
      <trkpt lat="50.63811" lon="3.06666">
        <ele>24.5</ele>
        <time>2020-06-23T17:04:37Z</time>
      </trkpt>
      <trkpt lat="50.63812" lon="3.06666">
        <ele>24.5</ele>
        <time>2020-06-23T17:04:38Z</time>
      </trkpt>
      <trkpt lat="50.63812" lon="3.06665">
        <ele>24.5</ele>
        <time>2020-06-23T17:04:39Z</time>
      </trkpt>
      <trkpt lat="50.63812" lon="3.06664">
        <ele>24.5</ele>
        <time>2020-06-23T17:05:24Z</time>
      </trkpt>
      <trkpt lat="50.63813" lon="3.06664">
        <ele>24.4</ele>
        <time>2020-06-23T17:05:25Z</time>
      </trkpt>
      <trkpt lat="50.63813" lon="3.06663">
        <ele>24.4</ele>
        <time>2020-06-23T17:05:26Z</time>
      </trkpt>
      <trkpt lat="50.63813" lon="3.06662">
        <ele>24.4</ele>
        <time>2020-06-23T17:05:27Z</time>
      </trkpt>
      <trkpt lat="50.63814" lon="3.06662">
        <ele>24.4</ele>
        <time>2020-06-23T17:05:28Z</time>
      </trkpt>
      <trkpt lat="50.63814" lon="3.06661">
        <ele>24.4</ele>
        <time>2020-06-23T17:05:29Z</time>
      </trkpt>
      <trkpt lat="50.63814" lon="3.0666">
        <ele>24.4</ele>
        <time>2020-06-23T17:05:30Z</time>
      </trkpt>
      <trkpt lat="50.63815" lon="3.0666">
        <ele>24.4</ele>
        <time>2020-06-23T17:05:31Z</time>
      </trkpt>
      <trkpt lat="50.63814" lon="3.06659">
        <ele>24.4</ele>
        <time>2020-06-23T17:05:32Z</time>
      </trkpt>
      <trkpt lat="50.63815" lon="3.06659">
        <ele>24.4</ele>
        <time>2020-06-23T17:05:33Z</time>
      </trkpt>
      <trkpt lat="50.63814" lon="3.06658">
        <ele>24.4</ele>
        <time>2020-06-23T17:05:34Z</time>
      </trkpt>
      <trkpt lat="50.63814" lon="3.06658">
        <ele>24.4</ele>
        <time>2020-06-23T17:05:35Z</time>
      </trkpt>
      <trkpt lat="50.63815" lon="3.06657">
        <ele>24.4</ele>
        <time>2020-06-23T17:05:36Z</time>
      </trkpt>
      <trkpt lat="50.63816" lon="3.06655">
        <ele>24.4</ele>
        <time>2020-06-23T17:05:37Z</time>
      </trkpt>
      <trkpt lat="50.63816" lon="3.06653">
        <ele>24.4</ele>
        <time>2020-06-23T17:05:38Z</time>
      </trkpt>
      <trkpt lat="50.63817" lon="3.06654">
        <ele>24.4</ele>
        <time>2020-06-23T17:05:39Z</time>
      </trkpt>
      <trkpt lat="50.63818" lon="3.06656">
        <ele>24.4</ele>
        <time>2020-06-23T17:05:40Z</time>
      </trkpt>
      <trkpt lat="50.63818" lon="3.06655">
        <ele>24.4</ele>
        <time>2020-06-23T17:05:41Z</time>
      </trkpt>
      <trkpt lat="50.63816" lon="3.06656">
        <ele>24.4</ele>
        <time>2020-06-23T17:05:42Z</time>
      </trkpt>
      <trkpt lat="50.63817" lon="3.06655">
        <ele>24.4</ele>
        <time>2020-06-23T17:05:43Z</time>
      </trkpt>
      <trkpt lat="50.63817" lon="3.06654">
        <ele>24.4</ele>
        <time>2020-06-23T17:05:44Z</time>
      </trkpt>
      <trkpt lat="50.63818" lon="3.06654">
        <ele>24.4</ele>
        <time>2020-06-23T17:05:45Z</time>
      </trkpt>
      <trkpt lat="50.63818" lon="3.06653">
        <ele>24.4</ele>
        <time>2020-06-23T17:05:46Z</time>
      </trkpt>
      <trkpt lat="50.63818" lon="3.06653">
        <ele>24.4</ele>
        <time>2020-06-23T17:05:47Z</time>
      </trkpt>
      <trkpt lat="50.63818" lon="3.06653">
        <ele>24.4</ele>
        <time>2020-06-23T17:05:48Z</time>
      </trkpt>
      <trkpt lat="50.63818" lon="3.06653">
        <ele>24.4</ele>
        <time>2020-06-23T17:05:49Z</time>
      </trkpt>
      <trkpt lat="50.63818" lon="3.06652">
        <ele>24.4</ele>
        <time>2020-06-23T17:05:50Z</time>
      </trkpt>
      <trkpt lat="50.63819" lon="3.0665">
        <ele>24.4</ele>
        <time>2020-06-23T17:05:51Z</time>
      </trkpt>
      <trkpt lat="50.63819" lon="3.06649">
        <ele>24.4</ele>
        <time>2020-06-23T17:05:52Z</time>
      </trkpt>
      <trkpt lat="50.63819" lon="3.06647">
        <ele>24.4</ele>
        <time>2020-06-23T17:05:53Z</time>
      </trkpt>
      <trkpt lat="50.63819" lon="3.06646">
        <ele>24.4</ele>
        <time>2020-06-23T17:05:54Z</time>
      </trkpt>
      <trkpt lat="50.63819" lon="3.06645">
        <ele>24.4</ele>
        <time>2020-06-23T17:05:55Z</time>
      </trkpt>
      <trkpt lat="50.63819" lon="3.06643">
        <ele>24.4</ele>
        <time>2020-06-23T17:05:56Z</time>
      </trkpt>
      <trkpt lat="50.63819" lon="3.06642">
        <ele>24.3</ele>
        <time>2020-06-23T17:05:57Z</time>
      </trkpt>
      <trkpt lat="50.63819" lon="3.06641">
        <ele>24.3</ele>
        <time>2020-06-23T17:05:58Z</time>
      </trkpt>
      <trkpt lat="50.63819" lon="3.0664">
        <ele>24.3</ele>
        <time>2020-06-23T17:05:59Z</time>
      </trkpt>
      <trkpt lat="50.63819" lon="3.06638">
        <ele>24.3</ele>
        <time>2020-06-23T17:06:00Z</time>
      </trkpt>
      <trkpt lat="50.63819" lon="3.06636">
        <ele>24.3</ele>
        <time>2020-06-23T17:06:01Z</time>
      </trkpt>
      <trkpt lat="50.63818" lon="3.0663">
        <ele>24.3</ele>
        <time>2020-06-23T17:06:02Z</time>
      </trkpt>
      <trkpt lat="50.63818" lon="3.06628">
        <ele>24.3</ele>
        <time>2020-06-23T17:06:03Z</time>
      </trkpt>
      <trkpt lat="50.63818" lon="3.06626">
        <ele>24.3</ele>
        <time>2020-06-23T17:06:04Z</time>
      </trkpt>
      <trkpt lat="50.63818" lon="3.06623">
        <ele>24.3</ele>
        <time>2020-06-23T17:06:05Z</time>
      </trkpt>
      <trkpt lat="50.63818" lon="3.06621">
        <ele>24.3</ele>
        <time>2020-06-23T17:06:06Z</time>
      </trkpt>
      <trkpt lat="50.63818" lon="3.06617">
        <ele>24.3</ele>
        <time>2020-06-23T17:06:07Z</time>
      </trkpt>
      <trkpt lat="50.63818" lon="3.06612">
        <ele>24.3</ele>
        <time>2020-06-23T17:06:08Z</time>
      </trkpt>
      <trkpt lat="50.63818" lon="3.0661">
        <ele>24.3</ele>
        <time>2020-06-23T17:06:09Z</time>
      </trkpt>
      <trkpt lat="50.63817" lon="3.06609">
        <ele>24.3</ele>
        <time>2020-06-23T17:06:10Z</time>
      </trkpt>
      <trkpt lat="50.63817" lon="3.06608">
        <ele>24.3</ele>
        <time>2020-06-23T17:06:11Z</time>
      </trkpt>
      <trkpt lat="50.63817" lon="3.06607">
        <ele>24.3</ele>
        <time>2020-06-23T17:06:12Z</time>
      </trkpt>
      <trkpt lat="50.63817" lon="3.06605">
        <ele>24.3</ele>
        <time>2020-06-23T17:06:13Z</time>
      </trkpt>
      <trkpt lat="50.63817" lon="3.06604">
        <ele>24.3</ele>
        <time>2020-06-23T17:06:14Z</time>
      </trkpt>
      <trkpt lat="50.63817" lon="3.06603">
        <ele>24.3</ele>
        <time>2020-06-23T17:06:15Z</time>
      </trkpt>
      <trkpt lat="50.63817" lon="3.06602">
        <ele>24.3</ele>
        <time>2020-06-23T17:06:16Z</time>
      </trkpt>
      <trkpt lat="50.63816" lon="3.06601">
        <ele>24.3</ele>
        <time>2020-06-23T17:06:17Z</time>
      </trkpt>
      <trkpt lat="50.63816" lon="3.066">
        <ele>24.3</ele>
        <time>2020-06-23T17:06:18Z</time>
      </trkpt>
      <trkpt lat="50.63816" lon="3.06599">
        <ele>24.3</ele>
        <time>2020-06-23T17:06:19Z</time>
      </trkpt>
      <trkpt lat="50.63816" lon="3.06599">
        <ele>24.3</ele>
        <time>2020-06-23T17:06:20Z</time>
      </trkpt>
      <trkpt lat="50.63816" lon="3.06598">
        <ele>24.3</ele>
        <time>2020-06-23T17:06:21Z</time>
      </trkpt>
      <trkpt lat="50.63816" lon="3.06597">
        <ele>24.3</ele>
        <time>2020-06-23T17:06:22Z</time>
      </trkpt>
      <trkpt lat="50.63816" lon="3.06597">
        <ele>24.3</ele>
        <time>2020-06-23T17:06:23Z</time>
      </trkpt>
      <trkpt lat="50.63816" lon="3.06596">
        <ele>24.3</ele>
        <time>2020-06-23T17:06:24Z</time>
      </trkpt>
      <trkpt lat="50.63813" lon="3.066">
        <ele>24.3</ele>
        <time>2020-06-23T17:06:46Z</time>
      </trkpt>
      <trkpt lat="50.63813" lon="3.06598">
        <ele>24.3</ele>
        <time>2020-06-23T17:06:47Z</time>
      </trkpt>
      <trkpt lat="50.63811" lon="3.06595">
        <ele>24.3</ele>
        <time>2020-06-23T17:06:48Z</time>
      </trkpt>
      <trkpt lat="50.63812" lon="3.06593">
        <ele>24.4</ele>
        <time>2020-06-23T17:06:49Z</time>
      </trkpt>
      <trkpt lat="50.63812" lon="3.0659">
        <ele>24.4</ele>
        <time>2020-06-23T17:06:50Z</time>
      </trkpt>
      <trkpt lat="50.63812" lon="3.06587">
        <ele>24.4</ele>
        <time>2020-06-23T17:06:51Z</time>
      </trkpt>
      <trkpt lat="50.63811" lon="3.06586">
        <ele>24.4</ele>
        <time>2020-06-23T17:06:52Z</time>
      </trkpt>
      <trkpt lat="50.63811" lon="3.06585">
        <ele>24.4</ele>
        <time>2020-06-23T17:06:53Z</time>
      </trkpt>
      <trkpt lat="50.63811" lon="3.06586">
        <ele>24.4</ele>
        <time>2020-06-23T17:06:54Z</time>
      </trkpt>
      <trkpt lat="50.63811" lon="3.06587">
        <ele>24.4</ele>
        <time>2020-06-23T17:06:55Z</time>
      </trkpt>
      <trkpt lat="50.63811" lon="3.06587">
        <ele>24.4</ele>
        <time>2020-06-23T17:06:56Z</time>
      </trkpt>
      <trkpt lat="50.63811" lon="3.06585">
        <ele>24.4</ele>
        <time>2020-06-23T17:06:57Z</time>
      </trkpt>
      <trkpt lat="50.63811" lon="3.06585">
        <ele>24.4</ele>
        <time>2020-06-23T17:06:58Z</time>
      </trkpt>
      <trkpt lat="50.63811" lon="3.06584">
        <ele>24.4</ele>
        <time>2020-06-23T17:06:59Z</time>
      </trkpt>
      <trkpt lat="50.63811" lon="3.06584">
        <ele>24.4</ele>
        <time>2020-06-23T17:07:00Z</time>
      </trkpt>
      <trkpt lat="50.63811" lon="3.06584">
        <ele>24.4</ele>
        <time>2020-06-23T17:07:01Z</time>
      </trkpt>
      <trkpt lat="50.63811" lon="3.06583">
        <ele>24.4</ele>
        <time>2020-06-23T17:07:02Z</time>
      </trkpt>
      <trkpt lat="50.63811" lon="3.06583">
        <ele>24.4</ele>
        <time>2020-06-23T17:07:03Z</time>
      </trkpt>
      <trkpt lat="50.63815" lon="3.06594">
        <ele>24.3</ele>
        <time>2020-06-23T17:15:46Z</time>
      </trkpt>
      <trkpt lat="50.63815" lon="3.06593">
        <ele>24.3</ele>
        <time>2020-06-23T17:15:47Z</time>
      </trkpt>
      <trkpt lat="50.63816" lon="3.06592">
        <ele>24.3</ele>
        <time>2020-06-23T17:15:48Z</time>
      </trkpt>
      <trkpt lat="50.63816" lon="3.06591">
        <ele>24.3</ele>
        <time>2020-06-23T17:15:49Z</time>
      </trkpt>
      <trkpt lat="50.63816" lon="3.06591">
        <ele>24.3</ele>
        <time>2020-06-23T17:15:50Z</time>
      </trkpt>
      <trkpt lat="50.63817" lon="3.06592">
        <ele>24.3</ele>
        <time>2020-06-23T17:15:51Z</time>
      </trkpt>
      <trkpt lat="50.63817" lon="3.06592">
        <ele>24.3</ele>
        <time>2020-06-23T17:15:52Z</time>
      </trkpt>
      <trkpt lat="50.63817" lon="3.06593">
        <ele>24.3</ele>
        <time>2020-06-23T17:15:53Z</time>
      </trkpt>
      <trkpt lat="50.63817" lon="3.06594">
        <ele>24.3</ele>
        <time>2020-06-23T17:15:54Z</time>
      </trkpt>
      <trkpt lat="50.63818" lon="3.06594">
        <ele>24.3</ele>
        <time>2020-06-23T17:15:55Z</time>
      </trkpt>
      <trkpt lat="50.63818" lon="3.06594">
        <ele>24.3</ele>
        <time>2020-06-23T17:15:56Z</time>
      </trkpt>
      <trkpt lat="50.63818" lon="3.06595">
        <ele>24.3</ele>
        <time>2020-06-23T17:15:57Z</time>
      </trkpt>
      <trkpt lat="50.63818" lon="3.06595">
        <ele>24.3</ele>
        <time>2020-06-23T17:15:58Z</time>
      </trkpt>
      <trkpt lat="50.63818" lon="3.06595">
        <ele>24.3</ele>
        <time>2020-06-23T17:15:59Z</time>
      </trkpt>
      <trkpt lat="50.63818" lon="3.06596">
        <ele>24.3</ele>
        <time>2020-06-23T17:16:00Z</time>
      </trkpt>
      <trkpt lat="50.63818" lon="3.06597">
        <ele>24.3</ele>
        <time>2020-06-23T17:16:01Z</time>
      </trkpt>
      <trkpt lat="50.63818" lon="3.06598">
        <ele>24.3</ele>
        <time>2020-06-23T17:16:02Z</time>
      </trkpt>
      <trkpt lat="50.63818" lon="3.06599">
        <ele>24.3</ele>
        <time>2020-06-23T17:16:03Z</time>
      </trkpt>
      <trkpt lat="50.63818" lon="3.06599">
        <ele>24.3</ele>
        <time>2020-06-23T17:16:04Z</time>
      </trkpt>
      <trkpt lat="50.63818" lon="3.06599">
        <ele>24.3</ele>
        <time>2020-06-23T17:16:05Z</time>
      </trkpt>
      <trkpt lat="50.63818" lon="3.066">
        <ele>24.3</ele>
        <time>2020-06-23T17:16:06Z</time>
      </trkpt>
      <trkpt lat="50.63818" lon="3.066">
        <ele>24.3</ele>
        <time>2020-06-23T17:16:07Z</time>
      </trkpt>
      <trkpt lat="50.63818" lon="3.06601">
        <ele>24.3</ele>
        <time>2020-06-23T17:16:08Z</time>
      </trkpt>
      <trkpt lat="50.63818" lon="3.06601">
        <ele>24.3</ele>
        <time>2020-06-23T17:16:09Z</time>
      </trkpt>
      <trkpt lat="50.63818" lon="3.06602">
        <ele>24.3</ele>
        <time>2020-06-23T17:16:10Z</time>
      </trkpt>
      <trkpt lat="50.63818" lon="3.06602">
        <ele>24.3</ele>
        <time>2020-06-23T17:16:11Z</time>
      </trkpt>
      <trkpt lat="50.63818" lon="3.06603">
        <ele>24.3</ele>
        <time>2020-06-23T17:16:12Z</time>
      </trkpt>
      <trkpt lat="50.63818" lon="3.06603">
        <ele>24.3</ele>
        <time>2020-06-23T17:16:13Z</time>
      </trkpt>
      <trkpt lat="50.63818" lon="3.06604">
        <ele>24.3</ele>
        <time>2020-06-23T17:16:14Z</time>
      </trkpt>
      <trkpt lat="50.63818" lon="3.06604">
        <ele>24.3</ele>
        <time>2020-06-23T17:16:21Z</time>
      </trkpt>
      <trkpt lat="50.63818" lon="3.06605">
        <ele>24.3</ele>
        <time>2020-06-23T17:16:22Z</time>
      </trkpt>
      <trkpt lat="50.63818" lon="3.06605">
        <ele>24.3</ele>
        <time>2020-06-23T17:16:23Z</time>
      </trkpt>
      <trkpt lat="50.63818" lon="3.06606">
        <ele>24.3</ele>
        <time>2020-06-23T17:16:24Z</time>
      </trkpt>
      <trkpt lat="50.63818" lon="3.06606">
        <ele>24.3</ele>
        <time>2020-06-23T17:16:25Z</time>
      </trkpt>
      <trkpt lat="50.63818" lon="3.06607">
        <ele>24.3</ele>
        <time>2020-06-23T17:16:26Z</time>
      </trkpt>
      <trkpt lat="50.63818" lon="3.06607">
        <ele>24.3</ele>
        <time>2020-06-23T17:16:27Z</time>
      </trkpt>
      <trkpt lat="50.63818" lon="3.06608">
        <ele>24.3</ele>
        <time>2020-06-23T17:16:28Z</time>
      </trkpt>
      <trkpt lat="50.63818" lon="3.06609">
        <ele>24.3</ele>
        <time>2020-06-23T17:16:29Z</time>
      </trkpt>
      <trkpt lat="50.63818" lon="3.0661">
        <ele>24.3</ele>
        <time>2020-06-23T17:16:30Z</time>
      </trkpt>
      <trkpt lat="50.63819" lon="3.0661">
        <ele>24.3</ele>
        <time>2020-06-23T17:16:31Z</time>
      </trkpt>
      <trkpt lat="50.63819" lon="3.06611">
        <ele>24.3</ele>
        <time>2020-06-23T17:16:32Z</time>
      </trkpt>
      <trkpt lat="50.63819" lon="3.06612">
        <ele>24.3</ele>
        <time>2020-06-23T17:16:33Z</time>
      </trkpt>
      <trkpt lat="50.63819" lon="3.06614">
        <ele>24.3</ele>
        <time>2020-06-23T17:16:34Z</time>
      </trkpt>
      <trkpt lat="50.6382" lon="3.06616">
        <ele>24.3</ele>
        <time>2020-06-23T17:16:35Z</time>
      </trkpt>
      <trkpt lat="50.6382" lon="3.06618">
        <ele>24.3</ele>
        <time>2020-06-23T17:16:36Z</time>
      </trkpt>
      <trkpt lat="50.6382" lon="3.06619">
        <ele>24.3</ele>
        <time>2020-06-23T17:16:37Z</time>
      </trkpt>
      <trkpt lat="50.63819" lon="3.06619">
        <ele>24.3</ele>
        <time>2020-06-23T17:16:38Z</time>
      </trkpt>
      <trkpt lat="50.6382" lon="3.0662">
        <ele>24.3</ele>
        <time>2020-06-23T17:16:39Z</time>
      </trkpt>
      <trkpt lat="50.6382" lon="3.06621">
        <ele>24.3</ele>
        <time>2020-06-23T17:16:40Z</time>
      </trkpt>
      <trkpt lat="50.63821" lon="3.06622">
        <ele>24.3</ele>
        <time>2020-06-23T17:16:41Z</time>
      </trkpt>
      <trkpt lat="50.63821" lon="3.06622">
        <ele>24.3</ele>
        <time>2020-06-23T17:16:42Z</time>
      </trkpt>
      <trkpt lat="50.63822" lon="3.06622">
        <ele>24.3</ele>
        <time>2020-06-23T17:16:43Z</time>
      </trkpt>
      <trkpt lat="50.63822" lon="3.06622">
        <ele>24.3</ele>
        <time>2020-06-23T17:16:44Z</time>
      </trkpt>
      <trkpt lat="50.63822" lon="3.06621">
        <ele>24.3</ele>
        <time>2020-06-23T17:16:45Z</time>
      </trkpt>
      <trkpt lat="50.63822" lon="3.06621">
        <ele>24.3</ele>
        <time>2020-06-23T17:16:46Z</time>
      </trkpt>
      <trkpt lat="50.63822" lon="3.0662">
        <ele>24.3</ele>
        <time>2020-06-23T17:16:47Z</time>
      </trkpt>
      <trkpt lat="50.63823" lon="3.06619">
        <ele>24.3</ele>
        <time>2020-06-23T17:16:48Z</time>
      </trkpt>
      <trkpt lat="50.63823" lon="3.06617">
        <ele>24.3</ele>
        <time>2020-06-23T17:16:49Z</time>
      </trkpt>
      <trkpt lat="50.63823" lon="3.06616">
        <ele>24.3</ele>
        <time>2020-06-23T17:16:50Z</time>
      </trkpt>
      <trkpt lat="50.63823" lon="3.06616">
        <ele>24.3</ele>
        <time>2020-06-23T17:16:51Z</time>
      </trkpt>
      <trkpt lat="50.63823" lon="3.06617">
        <ele>24.3</ele>
        <time>2020-06-23T17:16:52Z</time>
      </trkpt>
      <trkpt lat="50.63823" lon="3.06615">
        <ele>24.3</ele>
        <time>2020-06-23T17:16:53Z</time>
      </trkpt>
      <trkpt lat="50.63823" lon="3.06614">
        <ele>24.3</ele>
        <time>2020-06-23T17:16:54Z</time>
      </trkpt>
      <trkpt lat="50.63823" lon="3.06614">
        <ele>24.3</ele>
        <time>2020-06-23T17:16:55Z</time>
      </trkpt>
      <trkpt lat="50.63823" lon="3.06615">
        <ele>24.3</ele>
        <time>2020-06-23T17:16:56Z</time>
      </trkpt>
      <trkpt lat="50.63823" lon="3.06615">
        <ele>24.3</ele>
        <time>2020-06-23T17:16:57Z</time>
      </trkpt>
      <trkpt lat="50.63823" lon="3.06616">
        <ele>24.3</ele>
        <time>2020-06-23T17:16:58Z</time>
      </trkpt>
      <trkpt lat="50.63823" lon="3.06616">
        <ele>24.3</ele>
        <time>2020-06-23T17:16:59Z</time>
      </trkpt>
      <trkpt lat="50.63823" lon="3.06615">
        <ele>24.3</ele>
        <time>2020-06-23T17:17:00Z</time>
      </trkpt>
      <trkpt lat="50.63823" lon="3.06616">
        <ele>24.3</ele>
        <time>2020-06-23T17:17:01Z</time>
      </trkpt>
      <trkpt lat="50.63823" lon="3.06616">
        <ele>24.3</ele>
        <time>2020-06-23T17:17:02Z</time>
      </trkpt>
      <trkpt lat="50.63823" lon="3.06617">
        <ele>24.3</ele>
        <time>2020-06-23T17:17:03Z</time>
      </trkpt>
      <trkpt lat="50.63823" lon="3.06617">
        <ele>24.3</ele>
        <time>2020-06-23T17:17:04Z</time>
      </trkpt>
      <trkpt lat="50.63823" lon="3.06618">
        <ele>24.3</ele>
        <time>2020-06-23T17:17:05Z</time>
      </trkpt>
      <trkpt lat="50.63822" lon="3.06618">
        <ele>24.3</ele>
        <time>2020-06-23T17:17:06Z</time>
      </trkpt>
      <trkpt lat="50.63822" lon="3.06619">
        <ele>24.3</ele>
        <time>2020-06-23T17:17:07Z</time>
      </trkpt>
      <trkpt lat="50.63822" lon="3.06619">
        <ele>24.3</ele>
        <time>2020-06-23T17:17:08Z</time>
      </trkpt>
      <trkpt lat="50.63822" lon="3.06619">
        <ele>24.3</ele>
        <time>2020-06-23T17:17:09Z</time>
      </trkpt>
      <trkpt lat="50.63822" lon="3.0662">
        <ele>24.3</ele>
        <time>2020-06-23T17:17:10Z</time>
      </trkpt>
      <trkpt lat="50.63823" lon="3.0662">
        <ele>24.3</ele>
        <time>2020-06-23T17:17:11Z</time>
      </trkpt>
      <trkpt lat="50.63823" lon="3.06621">
        <ele>24.3</ele>
        <time>2020-06-23T17:17:12Z</time>
      </trkpt>
      <trkpt lat="50.63823" lon="3.06621">
        <ele>24.3</ele>
        <time>2020-06-23T17:17:13Z</time>
      </trkpt>
      <trkpt lat="50.63823" lon="3.06622">
        <ele>24.3</ele>
        <time>2020-06-23T17:17:14Z</time>
      </trkpt>
      <trkpt lat="50.63822" lon="3.06622">
        <ele>24.3</ele>
        <time>2020-06-23T17:17:15Z</time>
      </trkpt>
      <trkpt lat="50.63823" lon="3.06622">
        <ele>24.3</ele>
        <time>2020-06-23T17:17:16Z</time>
      </trkpt>
      <trkpt lat="50.63822" lon="3.06619">
        <ele>24.3</ele>
        <time>2020-06-23T17:17:17Z</time>
      </trkpt>
      <trkpt lat="50.63821" lon="3.06616">
        <ele>24.3</ele>
        <time>2020-06-23T17:17:18Z</time>
      </trkpt>
      <trkpt lat="50.63821" lon="3.06614">
        <ele>24.3</ele>
        <time>2020-06-23T17:17:19Z</time>
      </trkpt>
      <trkpt lat="50.63822" lon="3.06613">
        <ele>24.3</ele>
        <time>2020-06-23T17:17:20Z</time>
      </trkpt>
      <trkpt lat="50.63822" lon="3.06611">
        <ele>24.3</ele>
        <time>2020-06-23T17:17:21Z</time>
      </trkpt>
      <trkpt lat="50.63822" lon="3.0661">
        <ele>24.3</ele>
        <time>2020-06-23T17:17:22Z</time>
      </trkpt>
      <trkpt lat="50.63821" lon="3.0661">
        <ele>24.3</ele>
        <time>2020-06-23T17:17:23Z</time>
      </trkpt>
      <trkpt lat="50.63822" lon="3.06609">
        <ele>24.3</ele>
        <time>2020-06-23T17:17:24Z</time>
      </trkpt>
      <trkpt lat="50.63821" lon="3.06608">
        <ele>24.3</ele>
        <time>2020-06-23T17:17:25Z</time>
      </trkpt>
      <trkpt lat="50.63822" lon="3.06608">
        <ele>24.3</ele>
        <time>2020-06-23T17:17:26Z</time>
      </trkpt>
      <trkpt lat="50.63822" lon="3.06606">
        <ele>24.3</ele>
        <time>2020-06-23T17:17:27Z</time>
      </trkpt>
      <trkpt lat="50.63822" lon="3.06606">
        <ele>24.3</ele>
        <time>2020-06-23T17:17:28Z</time>
      </trkpt>
      <trkpt lat="50.63823" lon="3.0661">
        <ele>24.3</ele>
        <time>2020-06-23T17:18:43Z</time>
      </trkpt>
      <trkpt lat="50.63824" lon="3.0661">
        <ele>24.3</ele>
        <time>2020-06-23T17:18:44Z</time>
      </trkpt>
      <trkpt lat="50.63824" lon="3.06611">
        <ele>24.3</ele>
        <time>2020-06-23T17:18:45Z</time>
      </trkpt>
      <trkpt lat="50.63824" lon="3.06611">
        <ele>24.3</ele>
        <time>2020-06-23T17:18:46Z</time>
      </trkpt>
      <trkpt lat="50.63824" lon="3.06612">
        <ele>24.3</ele>
        <time>2020-06-23T17:18:47Z</time>
      </trkpt>
      <trkpt lat="50.63824" lon="3.06613">
        <ele>24.3</ele>
        <time>2020-06-23T17:18:48Z</time>
      </trkpt>
      <trkpt lat="50.63825" lon="3.06613">
        <ele>24.3</ele>
        <time>2020-06-23T17:18:49Z</time>
      </trkpt>
      <trkpt lat="50.63825" lon="3.06612">
        <ele>24.3</ele>
        <time>2020-06-23T17:18:50Z</time>
      </trkpt>
      <trkpt lat="50.63825" lon="3.06611">
        <ele>24.3</ele>
        <time>2020-06-23T17:18:51Z</time>
      </trkpt>
      <trkpt lat="50.63825" lon="3.0661">
        <ele>24.3</ele>
        <time>2020-06-23T17:18:52Z</time>
      </trkpt>
      <trkpt lat="50.63825" lon="3.06609">
        <ele>24.3</ele>
        <time>2020-06-23T17:18:53Z</time>
      </trkpt>
      <trkpt lat="50.63825" lon="3.06607">
        <ele>24.3</ele>
        <time>2020-06-23T17:18:54Z</time>
      </trkpt>
      <trkpt lat="50.63825" lon="3.06607">
        <ele>24.3</ele>
        <time>2020-06-23T17:18:55Z</time>
      </trkpt>
      <trkpt lat="50.63825" lon="3.06606">
        <ele>24.3</ele>
        <time>2020-06-23T17:18:56Z</time>
      </trkpt>
      <trkpt lat="50.63825" lon="3.06606">
        <ele>24.3</ele>
        <time>2020-06-23T17:18:57Z</time>
      </trkpt>
      <trkpt lat="50.63825" lon="3.06608">
        <ele>24.3</ele>
        <time>2020-06-23T17:18:58Z</time>
      </trkpt>
      <trkpt lat="50.63826" lon="3.06609">
        <ele>24.3</ele>
        <time>2020-06-23T17:18:59Z</time>
      </trkpt>
      <trkpt lat="50.63826" lon="3.06609">
        <ele>24.3</ele>
        <time>2020-06-23T17:19:00Z</time>
      </trkpt>
      <trkpt lat="50.63827" lon="3.0661">
        <ele>24.3</ele>
        <time>2020-06-23T17:19:01Z</time>
      </trkpt>
      <trkpt lat="50.63827" lon="3.0661">
        <ele>24.3</ele>
        <time>2020-06-23T17:19:02Z</time>
      </trkpt>
      <trkpt lat="50.63827" lon="3.06609">
        <ele>24.3</ele>
        <time>2020-06-23T17:19:03Z</time>
      </trkpt>
      <trkpt lat="50.63827" lon="3.06608">
        <ele>24.3</ele>
        <time>2020-06-23T17:19:04Z</time>
      </trkpt>
      <trkpt lat="50.63827" lon="3.06607">
        <ele>24.3</ele>
        <time>2020-06-23T17:19:05Z</time>
      </trkpt>
      <trkpt lat="50.63827" lon="3.06606">
        <ele>24.3</ele>
        <time>2020-06-23T17:19:06Z</time>
      </trkpt>
      <trkpt lat="50.63827" lon="3.06606">
        <ele>24.3</ele>
        <time>2020-06-23T17:19:07Z</time>
      </trkpt>
      <trkpt lat="50.63828" lon="3.06606">
        <ele>24.3</ele>
        <time>2020-06-23T17:19:08Z</time>
      </trkpt>
      <trkpt lat="50.63828" lon="3.06607">
        <ele>24.3</ele>
        <time>2020-06-23T17:19:09Z</time>
      </trkpt>
    </trkseg>
  </trk>
  <trk>
    <name><![CDATA[T16]]></name>
    <trkseg>
      <trkpt lat="49.34788" lon="-0.80507">
        <ele>46</ele>
        <time>2020-06-17T06:55:27Z</time>
      </trkpt>
      <trkpt lat="49.34788" lon="-0.80507">
        <ele>46</ele>
        <time>2020-06-17T06:55:28Z</time>
      </trkpt>
      <trkpt lat="49.34788" lon="-0.80507">
        <ele>46</ele>
        <time>2020-06-17T06:55:29Z</time>
      </trkpt>
      <trkpt lat="49.34788" lon="-0.80507">
        <ele>46</ele>
        <time>2020-06-17T06:55:30Z</time>
      </trkpt>
      <trkpt lat="49.34787" lon="-0.80508">
        <ele>46</ele>
        <time>2020-06-17T06:55:31Z</time>
      </trkpt>
      <trkpt lat="49.34787" lon="-0.80508">
        <ele>46</ele>
        <time>2020-06-17T06:55:32Z</time>
      </trkpt>
      <trkpt lat="49.34787" lon="-0.80508">
        <ele>46</ele>
        <time>2020-06-17T06:55:34Z</time>
      </trkpt>
      <trkpt lat="49.34788" lon="-0.80508">
        <ele>46</ele>
        <time>2020-06-17T06:55:35Z</time>
      </trkpt>
      <trkpt lat="49.34788" lon="-0.80508">
        <ele>46</ele>
        <time>2020-06-17T06:55:36Z</time>
      </trkpt>
      <trkpt lat="49.34787" lon="-0.80507">
        <ele>46</ele>
        <time>2020-06-17T06:55:37Z</time>
      </trkpt>
      <trkpt lat="49.34794" lon="-0.80522">
        <ele>46</ele>
        <time>2020-06-17T06:56:29Z</time>
      </trkpt>
      <trkpt lat="49.34795" lon="-0.80522">
        <ele>46</ele>
        <time>2020-06-17T06:56:30Z</time>
      </trkpt>
      <trkpt lat="49.34795" lon="-0.80523">
        <ele>46</ele>
        <time>2020-06-17T06:56:31Z</time>
      </trkpt>
      <trkpt lat="49.34795" lon="-0.80525">
        <ele>46</ele>
        <time>2020-06-17T06:56:32Z</time>
      </trkpt>
      <trkpt lat="49.34796" lon="-0.80525">
        <ele>46</ele>
        <time>2020-06-17T06:56:33Z</time>
      </trkpt>
      <trkpt lat="49.34797" lon="-0.80526">
        <ele>46</ele>
        <time>2020-06-17T06:56:34Z</time>
      </trkpt>
      <trkpt lat="49.34797" lon="-0.80526">
        <ele>46</ele>
        <time>2020-06-17T06:56:35Z</time>
      </trkpt>
      <trkpt lat="49.34798" lon="-0.80527">
        <ele>46</ele>
        <time>2020-06-17T06:56:36Z</time>
      </trkpt>
      <trkpt lat="49.34798" lon="-0.80526">
        <ele>46</ele>
        <time>2020-06-17T06:56:37Z</time>
      </trkpt>
      <trkpt lat="49.34799" lon="-0.80527">
        <ele>46</ele>
        <time>2020-06-17T06:56:38Z</time>
      </trkpt>
      <trkpt lat="49.34799" lon="-0.80528">
        <ele>46</ele>
        <time>2020-06-17T06:56:39Z</time>
      </trkpt>
      <trkpt lat="49.34799" lon="-0.8053">
        <ele>46</ele>
        <time>2020-06-17T06:56:40Z</time>
      </trkpt>
      <trkpt lat="49.34799" lon="-0.80532">
        <ele>46</ele>
        <time>2020-06-17T06:56:41Z</time>
      </trkpt>
      <trkpt lat="49.34799" lon="-0.80533">
        <ele>46</ele>
        <time>2020-06-17T06:56:42Z</time>
      </trkpt>
      <trkpt lat="49.348" lon="-0.80534">
        <ele>46</ele>
        <time>2020-06-17T06:56:43Z</time>
      </trkpt>
      <trkpt lat="49.348" lon="-0.80535">
        <ele>46</ele>
        <time>2020-06-17T06:56:44Z</time>
      </trkpt>
      <trkpt lat="49.34799" lon="-0.80535">
        <ele>46</ele>
        <time>2020-06-17T06:56:45Z</time>
      </trkpt>
      <trkpt lat="49.348" lon="-0.80536">
        <ele>46</ele>
        <time>2020-06-17T06:56:46Z</time>
      </trkpt>
      <trkpt lat="49.348" lon="-0.80537">
        <ele>46</ele>
        <time>2020-06-17T06:56:47Z</time>
      </trkpt>
      <trkpt lat="49.34801" lon="-0.80537">
        <ele>46</ele>
        <time>2020-06-17T06:56:48Z</time>
      </trkpt>
      <trkpt lat="49.34801" lon="-0.80538">
        <ele>46</ele>
        <time>2020-06-17T06:56:49Z</time>
      </trkpt>
      <trkpt lat="49.34802" lon="-0.80538">
        <ele>46</ele>
        <time>2020-06-17T06:56:50Z</time>
      </trkpt>
      <trkpt lat="49.34802" lon="-0.80539">
        <ele>46</ele>
        <time>2020-06-17T06:56:51Z</time>
      </trkpt>
      <trkpt lat="49.34802" lon="-0.8054">
        <ele>46</ele>
        <time>2020-06-17T06:56:52Z</time>
      </trkpt>
      <trkpt lat="49.34802" lon="-0.8054">
        <ele>46</ele>
        <time>2020-06-17T06:56:53Z</time>
      </trkpt>
      <trkpt lat="49.34802" lon="-0.8054">
        <ele>46</ele>
        <time>2020-06-17T06:56:54Z</time>
      </trkpt>
      <trkpt lat="49.34802" lon="-0.80542">
        <ele>46</ele>
        <time>2020-06-17T06:56:55Z</time>
      </trkpt>
      <trkpt lat="49.34801" lon="-0.80543">
        <ele>46</ele>
        <time>2020-06-17T06:56:56Z</time>
      </trkpt>
      <trkpt lat="49.34801" lon="-0.80545">
        <ele>46</ele>
        <time>2020-06-17T06:56:57Z</time>
      </trkpt>
      <trkpt lat="49.34801" lon="-0.80546">
        <ele>46</ele>
        <time>2020-06-17T06:56:58Z</time>
      </trkpt>
      <trkpt lat="49.348" lon="-0.80546">
        <ele>46</ele>
        <time>2020-06-17T06:56:59Z</time>
      </trkpt>
      <trkpt lat="49.348" lon="-0.80547">
        <ele>46</ele>
        <time>2020-06-17T06:57:00Z</time>
      </trkpt>
      <trkpt lat="49.348" lon="-0.80548">
        <ele>46</ele>
        <time>2020-06-17T06:57:01Z</time>
      </trkpt>
      <trkpt lat="49.348" lon="-0.80549">
        <ele>46</ele>
        <time>2020-06-17T06:57:02Z</time>
      </trkpt>
      <trkpt lat="49.348" lon="-0.80549">
        <ele>46</ele>
        <time>2020-06-17T06:57:03Z</time>
      </trkpt>
      <trkpt lat="49.348" lon="-0.8055">
        <ele>46</ele>
        <time>2020-06-17T06:57:04Z</time>
      </trkpt>
      <trkpt lat="49.348" lon="-0.8055">
        <ele>46</ele>
        <time>2020-06-17T06:57:05Z</time>
      </trkpt>
      <trkpt lat="49.34799" lon="-0.8055">
        <ele>46</ele>
        <time>2020-06-17T06:57:06Z</time>
      </trkpt>
      <trkpt lat="49.34799" lon="-0.8055">
        <ele>46</ele>
        <time>2020-06-17T06:57:07Z</time>
      </trkpt>
      <trkpt lat="49.34799" lon="-0.80549">
        <ele>46</ele>
        <time>2020-06-17T06:57:08Z</time>
      </trkpt>
      <trkpt lat="49.348" lon="-0.8055">
        <ele>46</ele>
        <time>2020-06-17T06:57:09Z</time>
      </trkpt>
      <trkpt lat="49.348" lon="-0.80549">
        <ele>46</ele>
        <time>2020-06-17T06:57:10Z</time>
      </trkpt>
      <trkpt lat="49.348" lon="-0.80549">
        <ele>46</ele>
        <time>2020-06-17T06:57:11Z</time>
      </trkpt>
      <trkpt lat="49.348" lon="-0.80549">
        <ele>46</ele>
        <time>2020-06-17T06:57:12Z</time>
      </trkpt>
      <trkpt lat="49.348" lon="-0.80549">
        <ele>46</ele>
        <time>2020-06-17T06:57:13Z</time>
      </trkpt>
      <trkpt lat="49.34801" lon="-0.80549">
        <ele>46</ele>
        <time>2020-06-17T06:57:14Z</time>
      </trkpt>
      <trkpt lat="49.348" lon="-0.80549">
        <ele>46</ele>
        <time>2020-06-17T06:57:15Z</time>
      </trkpt>
      <trkpt lat="49.348" lon="-0.80549">
        <ele>46</ele>
        <time>2020-06-17T06:57:16Z</time>
      </trkpt>
      <trkpt lat="49.34801" lon="-0.80549">
        <ele>46</ele>
        <time>2020-06-17T06:57:17Z</time>
      </trkpt>
      <trkpt lat="49.34811" lon="-0.80524">
        <ele>46</ele>
        <time>2020-06-17T06:58:58Z</time>
      </trkpt>
      <trkpt lat="49.34812" lon="-0.80525">
        <ele>46</ele>
        <time>2020-06-17T06:58:59Z</time>
      </trkpt>
      <trkpt lat="49.34812" lon="-0.80525">
        <ele>46</ele>
        <time>2020-06-17T06:59:00Z</time>
      </trkpt>
      <trkpt lat="49.34812" lon="-0.80525">
        <ele>46</ele>
        <time>2020-06-17T06:59:01Z</time>
      </trkpt>
      <trkpt lat="49.34812" lon="-0.80525">
        <ele>46</ele>
        <time>2020-06-17T06:59:02Z</time>
      </trkpt>
      <trkpt lat="49.34812" lon="-0.80525">
        <ele>46</ele>
        <time>2020-06-17T06:59:03Z</time>
      </trkpt>
      <trkpt lat="49.34813" lon="-0.80526">
        <ele>46</ele>
        <time>2020-06-17T06:59:04Z</time>
      </trkpt>
      <trkpt lat="49.34813" lon="-0.80527">
        <ele>46</ele>
        <time>2020-06-17T06:59:05Z</time>
      </trkpt>
      <trkpt lat="49.34814" lon="-0.80527">
        <ele>46</ele>
        <time>2020-06-17T06:59:06Z</time>
      </trkpt>
      <trkpt lat="49.34814" lon="-0.80527">
        <ele>46</ele>
        <time>2020-06-17T06:59:07Z</time>
      </trkpt>
      <trkpt lat="49.34814" lon="-0.80527">
        <ele>46</ele>
        <time>2020-06-17T06:59:08Z</time>
      </trkpt>
      <trkpt lat="49.34814" lon="-0.80529">
        <ele>46</ele>
        <time>2020-06-17T06:59:09Z</time>
      </trkpt>
      <trkpt lat="49.34814" lon="-0.8053">
        <ele>46</ele>
        <time>2020-06-17T06:59:10Z</time>
      </trkpt>
      <trkpt lat="49.34814" lon="-0.8053">
        <ele>46</ele>
        <time>2020-06-17T06:59:11Z</time>
      </trkpt>
      <trkpt lat="49.34814" lon="-0.80531">
        <ele>46</ele>
        <time>2020-06-17T06:59:12Z</time>
      </trkpt>
      <trkpt lat="49.34813" lon="-0.80532">
        <ele>46</ele>
        <time>2020-06-17T06:59:13Z</time>
      </trkpt>
      <trkpt lat="49.34813" lon="-0.80534">
        <ele>46</ele>
        <time>2020-06-17T06:59:14Z</time>
      </trkpt>
      <trkpt lat="49.34813" lon="-0.80535">
        <ele>46</ele>
        <time>2020-06-17T06:59:15Z</time>
      </trkpt>
      <trkpt lat="49.34813" lon="-0.80536">
        <ele>46</ele>
        <time>2020-06-17T06:59:16Z</time>
      </trkpt>
      <trkpt lat="49.34814" lon="-0.80537">
        <ele>46</ele>
        <time>2020-06-17T06:59:17Z</time>
      </trkpt>
      <trkpt lat="49.34814" lon="-0.80537">
        <ele>46</ele>
        <time>2020-06-17T06:59:18Z</time>
      </trkpt>
      <trkpt lat="49.34814" lon="-0.80537">
        <ele>46</ele>
        <time>2020-06-17T06:59:19Z</time>
      </trkpt>
      <trkpt lat="49.34814" lon="-0.80537">
        <ele>46</ele>
        <time>2020-06-17T06:59:20Z</time>
      </trkpt>
      <trkpt lat="49.34814" lon="-0.80537">
        <ele>46</ele>
        <time>2020-06-17T06:59:21Z</time>
      </trkpt>
      <trkpt lat="49.34814" lon="-0.80539">
        <ele>45.9</ele>
        <time>2020-06-17T06:59:22Z</time>
      </trkpt>
      <trkpt lat="49.34814" lon="-0.80541">
        <ele>45.9</ele>
        <time>2020-06-17T06:59:23Z</time>
      </trkpt>
      <trkpt lat="49.34815" lon="-0.80542">
        <ele>45.8</ele>
        <time>2020-06-17T06:59:24Z</time>
      </trkpt>
      <trkpt lat="49.34815" lon="-0.80542">
        <ele>45.8</ele>
        <time>2020-06-17T06:59:25Z</time>
      </trkpt>
      <trkpt lat="49.34815" lon="-0.80543">
        <ele>45.8</ele>
        <time>2020-06-17T06:59:26Z</time>
      </trkpt>
      <trkpt lat="49.34814" lon="-0.80543">
        <ele>45.8</ele>
        <time>2020-06-17T06:59:27Z</time>
      </trkpt>
      <trkpt lat="49.34814" lon="-0.80544">
        <ele>45.8</ele>
        <time>2020-06-17T06:59:28Z</time>
      </trkpt>
      <trkpt lat="49.34813" lon="-0.80544">
        <ele>45.7</ele>
        <time>2020-06-17T06:59:29Z</time>
      </trkpt>
      <trkpt lat="49.34813" lon="-0.80545">
        <ele>45.7</ele>
        <time>2020-06-17T06:59:30Z</time>
      </trkpt>
      <trkpt lat="49.34813" lon="-0.80544">
        <ele>45.7</ele>
        <time>2020-06-17T06:59:31Z</time>
      </trkpt>
      <trkpt lat="49.34812" lon="-0.80545">
        <ele>45.6</ele>
        <time>2020-06-17T06:59:32Z</time>
      </trkpt>
      <trkpt lat="49.34812" lon="-0.80545">
        <ele>45.6</ele>
        <time>2020-06-17T06:59:33Z</time>
      </trkpt>
      <trkpt lat="49.34812" lon="-0.80545">
        <ele>45.6</ele>
        <time>2020-06-17T06:59:34Z</time>
      </trkpt>
      <trkpt lat="49.34812" lon="-0.80545">
        <ele>45.6</ele>
        <time>2020-06-17T06:59:35Z</time>
      </trkpt>
      <trkpt lat="49.34813" lon="-0.80545">
        <ele>45.6</ele>
        <time>2020-06-17T06:59:36Z</time>
      </trkpt>
      <trkpt lat="49.34813" lon="-0.80546">
        <ele>45.5</ele>
        <time>2020-06-17T06:59:37Z</time>
      </trkpt>
      <trkpt lat="49.34813" lon="-0.80547">
        <ele>45.5</ele>
        <time>2020-06-17T06:59:38Z</time>
      </trkpt>
      <trkpt lat="49.34813" lon="-0.80547">
        <ele>45.5</ele>
        <time>2020-06-17T06:59:39Z</time>
      </trkpt>
      <trkpt lat="49.34813" lon="-0.80548">
        <ele>45.5</ele>
        <time>2020-06-17T06:59:40Z</time>
      </trkpt>
      <trkpt lat="49.34813" lon="-0.80549">
        <ele>45.4</ele>
        <time>2020-06-17T06:59:41Z</time>
      </trkpt>
      <trkpt lat="49.34813" lon="-0.80549">
        <ele>45.4</ele>
        <time>2020-06-17T06:59:42Z</time>
      </trkpt>
      <trkpt lat="49.34813" lon="-0.80549">
        <ele>45.4</ele>
        <time>2020-06-17T06:59:43Z</time>
      </trkpt>
      <trkpt lat="49.34813" lon="-0.8055">
        <ele>45.4</ele>
        <time>2020-06-17T06:59:44Z</time>
      </trkpt>
      <trkpt lat="49.34813" lon="-0.8055">
        <ele>45.4</ele>
        <time>2020-06-17T06:59:45Z</time>
      </trkpt>
      <trkpt lat="49.34812" lon="-0.80549">
        <ele>45.4</ele>
        <time>2020-06-17T06:59:46Z</time>
      </trkpt>
      <trkpt lat="49.34813" lon="-0.80549">
        <ele>45.4</ele>
        <time>2020-06-17T06:59:47Z</time>
      </trkpt>
      <trkpt lat="49.34813" lon="-0.80551">
        <ele>45.3</ele>
        <time>2020-06-17T06:59:48Z</time>
      </trkpt>
      <trkpt lat="49.34813" lon="-0.80552">
        <ele>45.3</ele>
        <time>2020-06-17T06:59:49Z</time>
      </trkpt>
      <trkpt lat="49.34813" lon="-0.80551">
        <ele>45.3</ele>
        <time>2020-06-17T06:59:50Z</time>
      </trkpt>
      <trkpt lat="49.34813" lon="-0.80551">
        <ele>45.3</ele>
        <time>2020-06-17T06:59:51Z</time>
      </trkpt>
      <trkpt lat="49.34813" lon="-0.80551">
        <ele>45.3</ele>
        <time>2020-06-17T06:59:52Z</time>
      </trkpt>
      <trkpt lat="49.34813" lon="-0.80552">
        <ele>45.2</ele>
        <time>2020-06-17T06:59:53Z</time>
      </trkpt>
      <trkpt lat="49.34813" lon="-0.80552">
        <ele>45.2</ele>
        <time>2020-06-17T06:59:54Z</time>
      </trkpt>
      <trkpt lat="49.34812" lon="-0.80552">
        <ele>45.2</ele>
        <time>2020-06-17T06:59:55Z</time>
      </trkpt>
      <trkpt lat="49.34812" lon="-0.80552">
        <ele>45.2</ele>
        <time>2020-06-17T06:59:56Z</time>
      </trkpt>
      <trkpt lat="49.34812" lon="-0.80551">
        <ele>45.1</ele>
        <time>2020-06-17T06:59:57Z</time>
      </trkpt>
      <trkpt lat="49.34812" lon="-0.80551">
        <ele>45.1</ele>
        <time>2020-06-17T06:59:58Z</time>
      </trkpt>
      <trkpt lat="49.34812" lon="-0.80551">
        <ele>45.1</ele>
        <time>2020-06-17T06:59:59Z</time>
      </trkpt>
      <trkpt lat="49.34812" lon="-0.80537">
        <ele>44.8</ele>
        <time>2020-06-17T07:00:09Z</time>
      </trkpt>
      <trkpt lat="49.34813" lon="-0.80535">
        <ele>44.7</ele>
        <time>2020-06-17T07:00:10Z</time>
      </trkpt>
      <trkpt lat="49.34815" lon="-0.80533">
        <ele>44.6</ele>
        <time>2020-06-17T07:00:11Z</time>
      </trkpt>
      <trkpt lat="49.34816" lon="-0.80531">
        <ele>44.6</ele>
        <time>2020-06-17T07:00:12Z</time>
      </trkpt>
      <trkpt lat="49.34818" lon="-0.80527">
        <ele>44.5</ele>
        <time>2020-06-17T07:00:13Z</time>
      </trkpt>
      <trkpt lat="49.34819" lon="-0.80526">
        <ele>44.4</ele>
        <time>2020-06-17T07:00:14Z</time>
      </trkpt>
      <trkpt lat="49.34822" lon="-0.80522">
        <ele>44.3</ele>
        <time>2020-06-17T07:00:15Z</time>
      </trkpt>
      <trkpt lat="49.34823" lon="-0.80521">
        <ele>44.3</ele>
        <time>2020-06-17T07:00:16Z</time>
      </trkpt>
      <trkpt lat="49.34826" lon="-0.80518">
        <ele>44.2</ele>
        <time>2020-06-17T07:00:17Z</time>
      </trkpt>
      <trkpt lat="49.34829" lon="-0.80516">
        <ele>44.1</ele>
        <time>2020-06-17T07:00:18Z</time>
      </trkpt>
      <trkpt lat="49.34831" lon="-0.80513">
        <ele>44</ele>
        <time>2020-06-17T07:00:19Z</time>
      </trkpt>
      <trkpt lat="49.34834" lon="-0.8051">
        <ele>43.9</ele>
        <time>2020-06-17T07:00:20Z</time>
      </trkpt>
      <trkpt lat="49.34837" lon="-0.80506">
        <ele>43.8</ele>
        <time>2020-06-17T07:00:21Z</time>
      </trkpt>
      <trkpt lat="49.3484" lon="-0.80502">
        <ele>43.7</ele>
        <time>2020-06-17T07:00:22Z</time>
      </trkpt>
      <trkpt lat="49.34843" lon="-0.80499">
        <ele>43.6</ele>
        <time>2020-06-17T07:00:23Z</time>
      </trkpt>
      <trkpt lat="49.34846" lon="-0.80496">
        <ele>43.6</ele>
        <time>2020-06-17T07:00:24Z</time>
      </trkpt>
      <trkpt lat="49.34848" lon="-0.80493">
        <ele>43.5</ele>
        <time>2020-06-17T07:00:25Z</time>
      </trkpt>
      <trkpt lat="49.34851" lon="-0.8049">
        <ele>43.4</ele>
        <time>2020-06-17T07:00:26Z</time>
      </trkpt>
      <trkpt lat="49.34854" lon="-0.80487">
        <ele>43.4</ele>
        <time>2020-06-17T07:00:27Z</time>
      </trkpt>
      <trkpt lat="49.34857" lon="-0.80484">
        <ele>43.3</ele>
        <time>2020-06-17T07:00:28Z</time>
      </trkpt>
      <trkpt lat="49.3486" lon="-0.8048">
        <ele>43.2</ele>
        <time>2020-06-17T07:00:29Z</time>
      </trkpt>
      <trkpt lat="49.34863" lon="-0.80477">
        <ele>43.1</ele>
        <time>2020-06-17T07:00:30Z</time>
      </trkpt>
      <trkpt lat="49.34867" lon="-0.80473">
        <ele>43</ele>
        <time>2020-06-17T07:00:31Z</time>
      </trkpt>
      <trkpt lat="49.34871" lon="-0.8047">
        <ele>42.9</ele>
        <time>2020-06-17T07:00:32Z</time>
      </trkpt>
      <trkpt lat="49.34875" lon="-0.80467">
        <ele>42.8</ele>
        <time>2020-06-17T07:00:33Z</time>
      </trkpt>
      <trkpt lat="49.34879" lon="-0.80464">
        <ele>42.7</ele>
        <time>2020-06-17T07:00:34Z</time>
      </trkpt>
      <trkpt lat="49.34883" lon="-0.8046">
        <ele>42.6</ele>
        <time>2020-06-17T07:00:35Z</time>
      </trkpt>
      <trkpt lat="49.34886" lon="-0.80458">
        <ele>42.5</ele>
        <time>2020-06-17T07:00:36Z</time>
      </trkpt>
      <trkpt lat="49.3489" lon="-0.80455">
        <ele>42.4</ele>
        <time>2020-06-17T07:00:37Z</time>
      </trkpt>
      <trkpt lat="49.34891" lon="-0.80454">
        <ele>42.4</ele>
        <time>2020-06-17T07:00:38Z</time>
      </trkpt>
      <trkpt lat="49.34894" lon="-0.8045">
        <ele>42.3</ele>
        <time>2020-06-17T07:00:39Z</time>
      </trkpt>
      <trkpt lat="49.34895" lon="-0.80449">
        <ele>42.3</ele>
        <time>2020-06-17T07:00:40Z</time>
      </trkpt>
      <trkpt lat="49.34895" lon="-0.80447">
        <ele>42.3</ele>
        <time>2020-06-17T07:00:41Z</time>
      </trkpt>
      <trkpt lat="49.34896" lon="-0.80445">
        <ele>42.6</ele>
        <time>2020-06-17T07:00:42Z</time>
      </trkpt>
      <trkpt lat="49.34896" lon="-0.80442">
        <ele>42.7</ele>
        <time>2020-06-17T07:00:43Z</time>
      </trkpt>
      <trkpt lat="49.34895" lon="-0.8044">
        <ele>42.8</ele>
        <time>2020-06-17T07:00:44Z</time>
      </trkpt>
      <trkpt lat="49.34895" lon="-0.80438">
        <ele>42.8</ele>
        <time>2020-06-17T07:00:45Z</time>
      </trkpt>
      <trkpt lat="49.34894" lon="-0.80434">
        <ele>43</ele>
        <time>2020-06-17T07:00:46Z</time>
      </trkpt>
      <trkpt lat="49.34893" lon="-0.80429">
        <ele>43.2</ele>
        <time>2020-06-17T07:00:47Z</time>
      </trkpt>
      <trkpt lat="49.34892" lon="-0.80425">
        <ele>43.4</ele>
        <time>2020-06-17T07:00:48Z</time>
      </trkpt>
      <trkpt lat="49.34891" lon="-0.80421">
        <ele>43.6</ele>
        <time>2020-06-17T07:00:49Z</time>
      </trkpt>
      <trkpt lat="49.3489" lon="-0.80419">
        <ele>43.7</ele>
        <time>2020-06-17T07:00:50Z</time>
      </trkpt>
      <trkpt lat="49.34889" lon="-0.80414">
        <ele>43.9</ele>
        <time>2020-06-17T07:00:51Z</time>
      </trkpt>
      <trkpt lat="49.34888" lon="-0.80408">
        <ele>44.2</ele>
        <time>2020-06-17T07:00:52Z</time>
      </trkpt>
      <trkpt lat="49.34887" lon="-0.80403">
        <ele>44.5</ele>
        <time>2020-06-17T07:00:53Z</time>
      </trkpt>
      <trkpt lat="49.34886" lon="-0.80399">
        <ele>44.7</ele>
        <time>2020-06-17T07:00:54Z</time>
      </trkpt>
      <trkpt lat="49.34886" lon="-0.80395">
        <ele>44.9</ele>
        <time>2020-06-17T07:00:55Z</time>
      </trkpt>
      <trkpt lat="49.34885" lon="-0.8039">
        <ele>45.1</ele>
        <time>2020-06-17T07:00:56Z</time>
      </trkpt>
      <trkpt lat="49.34885" lon="-0.80388">
        <ele>45.2</ele>
        <time>2020-06-17T07:00:57Z</time>
      </trkpt>
      <trkpt lat="49.34883" lon="-0.80384">
        <ele>45.5</ele>
        <time>2020-06-17T07:00:58Z</time>
      </trkpt>
      <trkpt lat="49.34883" lon="-0.80383">
        <ele>45.6</ele>
        <time>2020-06-17T07:00:59Z</time>
      </trkpt>
      <trkpt lat="49.34882" lon="-0.80378">
        <ele>45.8</ele>
        <time>2020-06-17T07:01:00Z</time>
      </trkpt>
      <trkpt lat="49.34882" lon="-0.80376">
        <ele>45.9</ele>
        <time>2020-06-17T07:01:01Z</time>
      </trkpt>
      <trkpt lat="49.34882" lon="-0.80372">
        <ele>46.2</ele>
        <time>2020-06-17T07:01:02Z</time>
      </trkpt>
      <trkpt lat="49.34882" lon="-0.8037">
        <ele>46.3</ele>
        <time>2020-06-17T07:01:03Z</time>
      </trkpt>
      <trkpt lat="49.34881" lon="-0.80365">
        <ele>46.7</ele>
        <time>2020-06-17T07:01:04Z</time>
      </trkpt>
      <trkpt lat="49.3488" lon="-0.80363">
        <ele>46.8</ele>
        <time>2020-06-17T07:01:05Z</time>
      </trkpt>
      <trkpt lat="49.3488" lon="-0.80358">
        <ele>47.1</ele>
        <time>2020-06-17T07:01:06Z</time>
      </trkpt>
      <trkpt lat="49.3488" lon="-0.80356">
        <ele>47.2</ele>
        <time>2020-06-17T07:01:07Z</time>
      </trkpt>
      <trkpt lat="49.34881" lon="-0.80351">
        <ele>47.5</ele>
        <time>2020-06-17T07:01:08Z</time>
      </trkpt>
      <trkpt lat="49.34882" lon="-0.8035">
        <ele>47.6</ele>
        <time>2020-06-17T07:01:09Z</time>
      </trkpt>
      <trkpt lat="49.34883" lon="-0.80346">
        <ele>47.9</ele>
        <time>2020-06-17T07:01:10Z</time>
      </trkpt>
      <trkpt lat="49.34883" lon="-0.80344">
        <ele>47.9</ele>
        <time>2020-06-17T07:01:11Z</time>
      </trkpt>
      <trkpt lat="49.34884" lon="-0.80343">
        <ele>48</ele>
        <time>2020-06-17T07:01:12Z</time>
      </trkpt>
      <trkpt lat="49.34885" lon="-0.80341">
        <ele>48.2</ele>
        <time>2020-06-17T07:01:13Z</time>
      </trkpt>
      <trkpt lat="49.34885" lon="-0.80337">
        <ele>48.4</ele>
        <time>2020-06-17T07:01:14Z</time>
      </trkpt>
      <trkpt lat="49.34886" lon="-0.80335">
        <ele>48.5</ele>
        <time>2020-06-17T07:01:15Z</time>
      </trkpt>
      <trkpt lat="49.34886" lon="-0.80331">
        <ele>48.7</ele>
        <time>2020-06-17T07:01:16Z</time>
      </trkpt>
      <trkpt lat="49.34887" lon="-0.80328">
        <ele>48.8</ele>
        <time>2020-06-17T07:01:17Z</time>
      </trkpt>
      <trkpt lat="49.34888" lon="-0.80322">
        <ele>49.1</ele>
        <time>2020-06-17T07:01:18Z</time>
      </trkpt>
      <trkpt lat="49.34888" lon="-0.8032">
        <ele>49.2</ele>
        <time>2020-06-17T07:01:19Z</time>
      </trkpt>
      <trkpt lat="49.34889" lon="-0.80316">
        <ele>49.4</ele>
        <time>2020-06-17T07:01:20Z</time>
      </trkpt>
      <trkpt lat="49.34889" lon="-0.80313">
        <ele>49.6</ele>
        <time>2020-06-17T07:01:21Z</time>
      </trkpt>
      <trkpt lat="49.34889" lon="-0.80311">
        <ele>49.6</ele>
        <time>2020-06-17T07:01:22Z</time>
      </trkpt>
      <trkpt lat="49.34889" lon="-0.80307">
        <ele>49.8</ele>
        <time>2020-06-17T07:01:23Z</time>
      </trkpt>
      <trkpt lat="49.34889" lon="-0.80305">
        <ele>49.9</ele>
        <time>2020-06-17T07:01:24Z</time>
      </trkpt>
      <trkpt lat="49.34889" lon="-0.803">
        <ele>50</ele>
        <time>2020-06-17T07:01:25Z</time>
      </trkpt>
      <trkpt lat="49.34889" lon="-0.80295">
        <ele>50.2</ele>
        <time>2020-06-17T07:01:26Z</time>
      </trkpt>
      <trkpt lat="49.34889" lon="-0.80293">
        <ele>50.3</ele>
        <time>2020-06-17T07:01:27Z</time>
      </trkpt>
      <trkpt lat="49.3489" lon="-0.80288">
        <ele>50.5</ele>
        <time>2020-06-17T07:01:28Z</time>
      </trkpt>
      <trkpt lat="49.3489" lon="-0.80284">
        <ele>50.6</ele>
        <time>2020-06-17T07:01:29Z</time>
      </trkpt>
      <trkpt lat="49.34891" lon="-0.80279">
        <ele>50.8</ele>
        <time>2020-06-17T07:01:30Z</time>
      </trkpt>
      <trkpt lat="49.34891" lon="-0.80277">
        <ele>50.9</ele>
        <time>2020-06-17T07:01:31Z</time>
      </trkpt>
      <trkpt lat="49.34891" lon="-0.80272">
        <ele>51</ele>
        <time>2020-06-17T07:01:32Z</time>
      </trkpt>
      <trkpt lat="49.34891" lon="-0.8027">
        <ele>51.1</ele>
        <time>2020-06-17T07:01:33Z</time>
      </trkpt>
      <trkpt lat="49.34892" lon="-0.80266">
        <ele>51.3</ele>
        <time>2020-06-17T07:01:34Z</time>
      </trkpt>
      <trkpt lat="49.34892" lon="-0.80265">
        <ele>51.3</ele>
        <time>2020-06-17T07:01:35Z</time>
      </trkpt>
      <trkpt lat="49.34894" lon="-0.8026">
        <ele>51.6</ele>
        <time>2020-06-17T07:01:36Z</time>
      </trkpt>
      <trkpt lat="49.34895" lon="-0.80258">
        <ele>51.7</ele>
        <time>2020-06-17T07:01:37Z</time>
      </trkpt>
      <trkpt lat="49.34897" lon="-0.80253">
        <ele>52</ele>
        <time>2020-06-17T07:01:38Z</time>
      </trkpt>
      <trkpt lat="49.34897" lon="-0.80252">
        <ele>52</ele>
        <time>2020-06-17T07:01:39Z</time>
      </trkpt>
      <trkpt lat="49.34899" lon="-0.80247">
        <ele>52.3</ele>
        <time>2020-06-17T07:01:40Z</time>
      </trkpt>
      <trkpt lat="49.34899" lon="-0.80246">
        <ele>52.5</ele>
        <time>2020-06-17T07:01:41Z</time>
      </trkpt>
      <trkpt lat="49.34901" lon="-0.80241">
        <ele>52.8</ele>
        <time>2020-06-17T07:01:42Z</time>
      </trkpt>
      <trkpt lat="49.34901" lon="-0.80239">
        <ele>52.9</ele>
        <time>2020-06-17T07:01:43Z</time>
      </trkpt>
      <trkpt lat="49.34903" lon="-0.80235">
        <ele>53.2</ele>
        <time>2020-06-17T07:01:44Z</time>
      </trkpt>
      <trkpt lat="49.34905" lon="-0.80232">
        <ele>53.5</ele>
        <time>2020-06-17T07:01:45Z</time>
      </trkpt>
      <trkpt lat="49.34906" lon="-0.80227">
        <ele>53.9</ele>
        <time>2020-06-17T07:01:46Z</time>
      </trkpt>
      <trkpt lat="49.34907" lon="-0.80226">
        <ele>54</ele>
        <time>2020-06-17T07:01:47Z</time>
      </trkpt>
      <trkpt lat="49.34908" lon="-0.80222">
        <ele>54.3</ele>
        <time>2020-06-17T07:01:48Z</time>
      </trkpt>
      <trkpt lat="49.34908" lon="-0.8022">
        <ele>54.5</ele>
        <time>2020-06-17T07:01:49Z</time>
      </trkpt>
      <trkpt lat="49.34909" lon="-0.80215">
        <ele>54.9</ele>
        <time>2020-06-17T07:01:50Z</time>
      </trkpt>
      <trkpt lat="49.34909" lon="-0.80212">
        <ele>55</ele>
        <time>2020-06-17T07:01:51Z</time>
      </trkpt>
      <trkpt lat="49.3491" lon="-0.80206">
        <ele>55.5</ele>
        <time>2020-06-17T07:01:52Z</time>
      </trkpt>
      <trkpt lat="49.3491" lon="-0.80204">
        <ele>55.7</ele>
        <time>2020-06-17T07:01:53Z</time>
      </trkpt>
      <trkpt lat="49.3491" lon="-0.80198">
        <ele>56</ele>
        <time>2020-06-17T07:01:54Z</time>
      </trkpt>
      <trkpt lat="49.3491" lon="-0.80196">
        <ele>56.2</ele>
        <time>2020-06-17T07:01:55Z</time>
      </trkpt>
      <trkpt lat="49.34911" lon="-0.80191">
        <ele>56.5</ele>
        <time>2020-06-17T07:01:56Z</time>
      </trkpt>
      <trkpt lat="49.34911" lon="-0.8019">
        <ele>56.6</ele>
        <time>2020-06-17T07:01:57Z</time>
      </trkpt>
      <trkpt lat="49.34913" lon="-0.80186">
        <ele>56.9</ele>
        <time>2020-06-17T07:01:58Z</time>
      </trkpt>
      <trkpt lat="49.34914" lon="-0.80184">
        <ele>57</ele>
        <time>2020-06-17T07:01:59Z</time>
      </trkpt>
      <trkpt lat="49.34915" lon="-0.80179">
        <ele>57.3</ele>
        <time>2020-06-17T07:02:00Z</time>
      </trkpt>
      <trkpt lat="49.34916" lon="-0.80177">
        <ele>57.4</ele>
        <time>2020-06-17T07:02:01Z</time>
      </trkpt>
      <trkpt lat="49.34918" lon="-0.80174">
        <ele>57.6</ele>
        <time>2020-06-17T07:02:02Z</time>
      </trkpt>
      <trkpt lat="49.34919" lon="-0.80169">
        <ele>57.8</ele>
        <time>2020-06-17T07:02:03Z</time>
      </trkpt>
      <trkpt lat="49.3492" lon="-0.80168">
        <ele>57.9</ele>
        <time>2020-06-17T07:02:04Z</time>
      </trkpt>
      <trkpt lat="49.34922" lon="-0.80164">
        <ele>58.1</ele>
        <time>2020-06-17T07:02:05Z</time>
      </trkpt>
      <trkpt lat="49.34924" lon="-0.80159">
        <ele>58.4</ele>
        <time>2020-06-17T07:02:06Z</time>
      </trkpt>
      <trkpt lat="49.34925" lon="-0.80157">
        <ele>58.5</ele>
        <time>2020-06-17T07:02:07Z</time>
      </trkpt>
      <trkpt lat="49.34926" lon="-0.80153">
        <ele>58.6</ele>
        <time>2020-06-17T07:02:08Z</time>
      </trkpt>
      <trkpt lat="49.34929" lon="-0.80148">
        <ele>58.9</ele>
        <time>2020-06-17T07:02:09Z</time>
      </trkpt>
      <trkpt lat="49.34931" lon="-0.80144">
        <ele>59</ele>
        <time>2020-06-17T07:02:10Z</time>
      </trkpt>
      <trkpt lat="49.34932" lon="-0.80138">
        <ele>59.2</ele>
        <time>2020-06-17T07:02:11Z</time>
      </trkpt>
      <trkpt lat="49.34932" lon="-0.80137">
        <ele>59.2</ele>
        <time>2020-06-17T07:02:12Z</time>
      </trkpt>
      <trkpt lat="49.34931" lon="-0.80132">
        <ele>59.3</ele>
        <time>2020-06-17T07:02:13Z</time>
      </trkpt>
      <trkpt lat="49.34931" lon="-0.80129">
        <ele>59.4</ele>
        <time>2020-06-17T07:02:14Z</time>
      </trkpt>
      <trkpt lat="49.3493" lon="-0.80125">
        <ele>59.5</ele>
        <time>2020-06-17T07:02:15Z</time>
      </trkpt>
      <trkpt lat="49.34929" lon="-0.8012">
        <ele>59.6</ele>
        <time>2020-06-17T07:02:16Z</time>
      </trkpt>
      <trkpt lat="49.34928" lon="-0.80118">
        <ele>59.6</ele>
        <time>2020-06-17T07:02:17Z</time>
      </trkpt>
      <trkpt lat="49.34927" lon="-0.80114">
        <ele>59.7</ele>
        <time>2020-06-17T07:02:18Z</time>
      </trkpt>
      <trkpt lat="49.34926" lon="-0.80107">
        <ele>59.8</ele>
        <time>2020-06-17T07:02:19Z</time>
      </trkpt>
      <trkpt lat="49.34926" lon="-0.80105">
        <ele>59.9</ele>
        <time>2020-06-17T07:02:20Z</time>
      </trkpt>
      <trkpt lat="49.34925" lon="-0.801">
        <ele>60</ele>
        <time>2020-06-17T07:02:21Z</time>
      </trkpt>
      <trkpt lat="49.34922" lon="-0.80094">
        <ele>60.1</ele>
        <time>2020-06-17T07:02:22Z</time>
      </trkpt>
      <trkpt lat="49.34921" lon="-0.80089">
        <ele>60.2</ele>
        <time>2020-06-17T07:02:23Z</time>
      </trkpt>
      <trkpt lat="49.3492" lon="-0.80083">
        <ele>60.3</ele>
        <time>2020-06-17T07:02:24Z</time>
      </trkpt>
      <trkpt lat="49.34919" lon="-0.80078">
        <ele>60.4</ele>
        <time>2020-06-17T07:02:25Z</time>
      </trkpt>
      <trkpt lat="49.34917" lon="-0.80072">
        <ele>60.6</ele>
        <time>2020-06-17T07:02:26Z</time>
      </trkpt>
      <trkpt lat="49.34915" lon="-0.80067">
        <ele>60.7</ele>
        <time>2020-06-17T07:02:27Z</time>
      </trkpt>
      <trkpt lat="49.34913" lon="-0.80063">
        <ele>60.8</ele>
        <time>2020-06-17T07:02:28Z</time>
      </trkpt>
      <trkpt lat="49.34912" lon="-0.80059">
        <ele>60.9</ele>
        <time>2020-06-17T07:02:29Z</time>
      </trkpt>
      <trkpt lat="49.34911" lon="-0.80055">
        <ele>61</ele>
        <time>2020-06-17T07:02:30Z</time>
      </trkpt>
      <trkpt lat="49.34909" lon="-0.80051">
        <ele>61.1</ele>
        <time>2020-06-17T07:02:31Z</time>
      </trkpt>
      <trkpt lat="49.34908" lon="-0.80047">
        <ele>61.2</ele>
        <time>2020-06-17T07:02:32Z</time>
      </trkpt>
      <trkpt lat="49.34907" lon="-0.80043">
        <ele>61.2</ele>
        <time>2020-06-17T07:02:33Z</time>
      </trkpt>
      <trkpt lat="49.34905" lon="-0.80038">
        <ele>61.3</ele>
        <time>2020-06-17T07:02:34Z</time>
      </trkpt>
      <trkpt lat="49.34903" lon="-0.80033">
        <ele>61.4</ele>
        <time>2020-06-17T07:02:35Z</time>
      </trkpt>
      <trkpt lat="49.34901" lon="-0.80028">
        <ele>61.5</ele>
        <time>2020-06-17T07:02:36Z</time>
      </trkpt>
      <trkpt lat="49.349" lon="-0.80024">
        <ele>61.5</ele>
        <time>2020-06-17T07:02:37Z</time>
      </trkpt>
      <trkpt lat="49.34898" lon="-0.8002">
        <ele>61.6</ele>
        <time>2020-06-17T07:02:38Z</time>
      </trkpt>
      <trkpt lat="49.34897" lon="-0.80016">
        <ele>61.7</ele>
        <time>2020-06-17T07:02:39Z</time>
      </trkpt>
      <trkpt lat="49.34895" lon="-0.80012">
        <ele>61.8</ele>
        <time>2020-06-17T07:02:40Z</time>
      </trkpt>
      <trkpt lat="49.34893" lon="-0.80008">
        <ele>61.8</ele>
        <time>2020-06-17T07:02:41Z</time>
      </trkpt>
      <trkpt lat="49.34891" lon="-0.80004">
        <ele>61.9</ele>
        <time>2020-06-17T07:02:42Z</time>
      </trkpt>
      <trkpt lat="49.34889" lon="-0.79998">
        <ele>62</ele>
        <time>2020-06-17T07:02:43Z</time>
      </trkpt>
      <trkpt lat="49.34887" lon="-0.79993">
        <ele>62.1</ele>
        <time>2020-06-17T07:02:44Z</time>
      </trkpt>
      <trkpt lat="49.34886" lon="-0.79989">
        <ele>62.2</ele>
        <time>2020-06-17T07:02:45Z</time>
      </trkpt>
      <trkpt lat="49.34885" lon="-0.79984">
        <ele>62.2</ele>
        <time>2020-06-17T07:02:46Z</time>
      </trkpt>
      <trkpt lat="49.34883" lon="-0.79979">
        <ele>62.3</ele>
        <time>2020-06-17T07:02:47Z</time>
      </trkpt>
      <trkpt lat="49.34882" lon="-0.79975">
        <ele>62.3</ele>
        <time>2020-06-17T07:02:48Z</time>
      </trkpt>
      <trkpt lat="49.3488" lon="-0.7997">
        <ele>62.4</ele>
        <time>2020-06-17T07:02:49Z</time>
      </trkpt>
      <trkpt lat="49.34879" lon="-0.79966">
        <ele>62.4</ele>
        <time>2020-06-17T07:02:50Z</time>
      </trkpt>
      <trkpt lat="49.34877" lon="-0.79962">
        <ele>62.5</ele>
        <time>2020-06-17T07:02:51Z</time>
      </trkpt>
      <trkpt lat="49.34875" lon="-0.79957">
        <ele>62.5</ele>
        <time>2020-06-17T07:02:52Z</time>
      </trkpt>
      <trkpt lat="49.34875" lon="-0.79955">
        <ele>62.5</ele>
        <time>2020-06-17T07:02:53Z</time>
      </trkpt>
      <trkpt lat="49.34873" lon="-0.79951">
        <ele>62.6</ele>
        <time>2020-06-17T07:02:54Z</time>
      </trkpt>
      <trkpt lat="49.34872" lon="-0.79946">
        <ele>62.6</ele>
        <time>2020-06-17T07:02:55Z</time>
      </trkpt>
      <trkpt lat="49.34871" lon="-0.79944">
        <ele>62.6</ele>
        <time>2020-06-17T07:02:56Z</time>
      </trkpt>
      <trkpt lat="49.3487" lon="-0.7994">
        <ele>62.6</ele>
        <time>2020-06-17T07:02:57Z</time>
      </trkpt>
      <trkpt lat="49.34869" lon="-0.79939">
        <ele>62.6</ele>
        <time>2020-06-17T07:02:58Z</time>
      </trkpt>
      <trkpt lat="49.34867" lon="-0.79934">
        <ele>62.6</ele>
        <time>2020-06-17T07:02:59Z</time>
      </trkpt>
      <trkpt lat="49.34867" lon="-0.79932">
        <ele>62.6</ele>
        <time>2020-06-17T07:03:00Z</time>
      </trkpt>
      <trkpt lat="49.34867" lon="-0.79925">
        <ele>62.6</ele>
        <time>2020-06-17T07:03:01Z</time>
      </trkpt>
      <trkpt lat="49.34868" lon="-0.79923">
        <ele>62.5</ele>
        <time>2020-06-17T07:03:02Z</time>
      </trkpt>
      <trkpt lat="49.34869" lon="-0.79918">
        <ele>62.5</ele>
        <time>2020-06-17T07:03:03Z</time>
      </trkpt>
      <trkpt lat="49.34871" lon="-0.79913">
        <ele>62.4</ele>
        <time>2020-06-17T07:03:04Z</time>
      </trkpt>
      <trkpt lat="49.34872" lon="-0.79908">
        <ele>62.4</ele>
        <time>2020-06-17T07:03:05Z</time>
      </trkpt>
      <trkpt lat="49.34875" lon="-0.79901">
        <ele>62.3</ele>
        <time>2020-06-17T07:03:06Z</time>
      </trkpt>
      <trkpt lat="49.34878" lon="-0.79894">
        <ele>62.2</ele>
        <time>2020-06-17T07:03:07Z</time>
      </trkpt>
      <trkpt lat="49.3488" lon="-0.79886">
        <ele>62.2</ele>
        <time>2020-06-17T07:03:08Z</time>
      </trkpt>
      <trkpt lat="49.34883" lon="-0.79879">
        <ele>62.1</ele>
        <time>2020-06-17T07:03:09Z</time>
      </trkpt>
      <trkpt lat="49.34886" lon="-0.79872">
        <ele>62</ele>
        <time>2020-06-17T07:03:10Z</time>
      </trkpt>
      <trkpt lat="49.34889" lon="-0.79865">
        <ele>61.9</ele>
        <time>2020-06-17T07:03:11Z</time>
      </trkpt>
      <trkpt lat="49.34891" lon="-0.79858">
        <ele>61.9</ele>
        <time>2020-06-17T07:03:12Z</time>
      </trkpt>
      <trkpt lat="49.34894" lon="-0.79852">
        <ele>61.9</ele>
        <time>2020-06-17T07:03:13Z</time>
      </trkpt>
      <trkpt lat="49.34895" lon="-0.79844">
        <ele>61.9</ele>
        <time>2020-06-17T07:03:14Z</time>
      </trkpt>
      <trkpt lat="49.34896" lon="-0.79837">
        <ele>61.9</ele>
        <time>2020-06-17T07:03:15Z</time>
      </trkpt>
      <trkpt lat="49.34897" lon="-0.79829">
        <ele>61.9</ele>
        <time>2020-06-17T07:03:16Z</time>
      </trkpt>
      <trkpt lat="49.34898" lon="-0.79821">
        <ele>62</ele>
        <time>2020-06-17T07:03:17Z</time>
      </trkpt>
      <trkpt lat="49.34899" lon="-0.79813">
        <ele>62</ele>
        <time>2020-06-17T07:03:18Z</time>
      </trkpt>
      <trkpt lat="49.34899" lon="-0.79805">
        <ele>62</ele>
        <time>2020-06-17T07:03:19Z</time>
      </trkpt>
      <trkpt lat="49.34899" lon="-0.79797">
        <ele>62.1</ele>
        <time>2020-06-17T07:03:20Z</time>
      </trkpt>
      <trkpt lat="49.349" lon="-0.79789">
        <ele>62.2</ele>
        <time>2020-06-17T07:03:21Z</time>
      </trkpt>
      <trkpt lat="49.34901" lon="-0.79782">
        <ele>62.3</ele>
        <time>2020-06-17T07:03:22Z</time>
      </trkpt>
      <trkpt lat="49.34901" lon="-0.79775">
        <ele>62.4</ele>
        <time>2020-06-17T07:03:23Z</time>
      </trkpt>
      <trkpt lat="49.34902" lon="-0.79767">
        <ele>62.5</ele>
        <time>2020-06-17T07:03:24Z</time>
      </trkpt>
      <trkpt lat="49.34903" lon="-0.7976">
        <ele>62.5</ele>
        <time>2020-06-17T07:03:25Z</time>
      </trkpt>
      <trkpt lat="49.34904" lon="-0.79752">
        <ele>62.6</ele>
        <time>2020-06-17T07:03:26Z</time>
      </trkpt>
      <trkpt lat="49.34904" lon="-0.79744">
        <ele>62.6</ele>
        <time>2020-06-17T07:03:27Z</time>
      </trkpt>
      <trkpt lat="49.34904" lon="-0.79737">
        <ele>62.7</ele>
        <time>2020-06-17T07:03:28Z</time>
      </trkpt>
      <trkpt lat="49.34904" lon="-0.79731">
        <ele>62.7</ele>
        <time>2020-06-17T07:03:29Z</time>
      </trkpt>
      <trkpt lat="49.34904" lon="-0.79723">
        <ele>62.8</ele>
        <time>2020-06-17T07:03:30Z</time>
      </trkpt>
      <trkpt lat="49.34905" lon="-0.79716">
        <ele>62.9</ele>
        <time>2020-06-17T07:03:31Z</time>
      </trkpt>
      <trkpt lat="49.34906" lon="-0.79708">
        <ele>62.9</ele>
        <time>2020-06-17T07:03:32Z</time>
      </trkpt>
      <trkpt lat="49.34907" lon="-0.797">
        <ele>63</ele>
        <time>2020-06-17T07:03:33Z</time>
      </trkpt>
      <trkpt lat="49.34907" lon="-0.79692">
        <ele>63</ele>
        <time>2020-06-17T07:03:34Z</time>
      </trkpt>
      <trkpt lat="49.34907" lon="-0.79684">
        <ele>63</ele>
        <time>2020-06-17T07:03:35Z</time>
      </trkpt>
      <trkpt lat="49.34907" lon="-0.79677">
        <ele>63</ele>
        <time>2020-06-17T07:03:36Z</time>
      </trkpt>
      <trkpt lat="49.34908" lon="-0.79669">
        <ele>63.1</ele>
        <time>2020-06-17T07:03:37Z</time>
      </trkpt>
      <trkpt lat="49.34908" lon="-0.79661">
        <ele>63.1</ele>
        <time>2020-06-17T07:03:38Z</time>
      </trkpt>
      <trkpt lat="49.34909" lon="-0.79652">
        <ele>63.1</ele>
        <time>2020-06-17T07:03:39Z</time>
      </trkpt>
      <trkpt lat="49.3491" lon="-0.79643">
        <ele>63</ele>
        <time>2020-06-17T07:03:40Z</time>
      </trkpt>
      <trkpt lat="49.34911" lon="-0.79634">
        <ele>63</ele>
        <time>2020-06-17T07:03:41Z</time>
      </trkpt>
      <trkpt lat="49.34911" lon="-0.79625">
        <ele>63</ele>
        <time>2020-06-17T07:03:42Z</time>
      </trkpt>
      <trkpt lat="49.34912" lon="-0.79616">
        <ele>63.1</ele>
        <time>2020-06-17T07:03:43Z</time>
      </trkpt>
      <trkpt lat="49.34913" lon="-0.79608">
        <ele>63.1</ele>
        <time>2020-06-17T07:03:44Z</time>
      </trkpt>
      <trkpt lat="49.34915" lon="-0.79599">
        <ele>63.1</ele>
        <time>2020-06-17T07:03:45Z</time>
      </trkpt>
      <trkpt lat="49.34916" lon="-0.7959">
        <ele>63.2</ele>
        <time>2020-06-17T07:03:46Z</time>
      </trkpt>
      <trkpt lat="49.34918" lon="-0.79581">
        <ele>63.3</ele>
        <time>2020-06-17T07:03:47Z</time>
      </trkpt>
      <trkpt lat="49.34919" lon="-0.79573">
        <ele>63.5</ele>
        <time>2020-06-17T07:03:48Z</time>
      </trkpt>
      <trkpt lat="49.3492" lon="-0.79565">
        <ele>63.5</ele>
        <time>2020-06-17T07:03:49Z</time>
      </trkpt>
      <trkpt lat="49.34921" lon="-0.79557">
        <ele>63.5</ele>
        <time>2020-06-17T07:03:50Z</time>
      </trkpt>
      <trkpt lat="49.34922" lon="-0.79549">
        <ele>63.5</ele>
        <time>2020-06-17T07:03:51Z</time>
      </trkpt>
      <trkpt lat="49.34923" lon="-0.79542">
        <ele>63.5</ele>
        <time>2020-06-17T07:03:52Z</time>
      </trkpt>
      <trkpt lat="49.34923" lon="-0.79534">
        <ele>63.5</ele>
        <time>2020-06-17T07:03:53Z</time>
      </trkpt>
      <trkpt lat="49.34924" lon="-0.79526">
        <ele>63.5</ele>
        <time>2020-06-17T07:03:54Z</time>
      </trkpt>
      <trkpt lat="49.34924" lon="-0.79517">
        <ele>63.5</ele>
        <time>2020-06-17T07:03:55Z</time>
      </trkpt>
      <trkpt lat="49.34925" lon="-0.79509">
        <ele>63.5</ele>
        <time>2020-06-17T07:03:56Z</time>
      </trkpt>
      <trkpt lat="49.34925" lon="-0.79502">
        <ele>63.5</ele>
        <time>2020-06-17T07:03:57Z</time>
      </trkpt>
      <trkpt lat="49.34926" lon="-0.79494">
        <ele>63.5</ele>
        <time>2020-06-17T07:03:58Z</time>
      </trkpt>
      <trkpt lat="49.34926" lon="-0.79486">
        <ele>63.5</ele>
        <time>2020-06-17T07:03:59Z</time>
      </trkpt>
      <trkpt lat="49.34927" lon="-0.79479">
        <ele>63.5</ele>
        <time>2020-06-17T07:04:00Z</time>
      </trkpt>
      <trkpt lat="49.34927" lon="-0.79471">
        <ele>63.5</ele>
        <time>2020-06-17T07:04:01Z</time>
      </trkpt>
      <trkpt lat="49.34928" lon="-0.79462">
        <ele>63.5</ele>
        <time>2020-06-17T07:04:02Z</time>
      </trkpt>
      <trkpt lat="49.34928" lon="-0.79452">
        <ele>63.4</ele>
        <time>2020-06-17T07:04:03Z</time>
      </trkpt>
      <trkpt lat="49.34928" lon="-0.79443">
        <ele>63.4</ele>
        <time>2020-06-17T07:04:04Z</time>
      </trkpt>
      <trkpt lat="49.34928" lon="-0.79434">
        <ele>63.4</ele>
        <time>2020-06-17T07:04:05Z</time>
      </trkpt>
      <trkpt lat="49.34929" lon="-0.79425">
        <ele>63.4</ele>
        <time>2020-06-17T07:04:06Z</time>
      </trkpt>
      <trkpt lat="49.34929" lon="-0.79415">
        <ele>63.3</ele>
        <time>2020-06-17T07:04:07Z</time>
      </trkpt>
      <trkpt lat="49.34929" lon="-0.79406">
        <ele>63.3</ele>
        <time>2020-06-17T07:04:08Z</time>
      </trkpt>
      <trkpt lat="49.34929" lon="-0.79396">
        <ele>63.3</ele>
        <time>2020-06-17T07:04:09Z</time>
      </trkpt>
      <trkpt lat="49.3493" lon="-0.79388">
        <ele>63.3</ele>
        <time>2020-06-17T07:04:10Z</time>
      </trkpt>
      <trkpt lat="49.3493" lon="-0.79379">
        <ele>63.2</ele>
        <time>2020-06-17T07:04:11Z</time>
      </trkpt>
      <trkpt lat="49.3493" lon="-0.7937">
        <ele>63.2</ele>
        <time>2020-06-17T07:04:12Z</time>
      </trkpt>
      <trkpt lat="49.34931" lon="-0.79361">
        <ele>63.1</ele>
        <time>2020-06-17T07:04:13Z</time>
      </trkpt>
      <trkpt lat="49.34931" lon="-0.79353">
        <ele>63.1</ele>
        <time>2020-06-17T07:04:14Z</time>
      </trkpt>
      <trkpt lat="49.34931" lon="-0.79343">
        <ele>63.1</ele>
        <time>2020-06-17T07:04:15Z</time>
      </trkpt>
      <trkpt lat="49.34931" lon="-0.79336">
        <ele>63.1</ele>
        <time>2020-06-17T07:04:16Z</time>
      </trkpt>
      <trkpt lat="49.34931" lon="-0.79328">
        <ele>63</ele>
        <time>2020-06-17T07:04:17Z</time>
      </trkpt>
      <trkpt lat="49.34931" lon="-0.7932">
        <ele>63</ele>
        <time>2020-06-17T07:04:18Z</time>
      </trkpt>
      <trkpt lat="49.34931" lon="-0.79311">
        <ele>63</ele>
        <time>2020-06-17T07:04:19Z</time>
      </trkpt>
      <trkpt lat="49.3493" lon="-0.79303">
        <ele>62.9</ele>
        <time>2020-06-17T07:04:20Z</time>
      </trkpt>
      <trkpt lat="49.34929" lon="-0.79294">
        <ele>62.9</ele>
        <time>2020-06-17T07:04:21Z</time>
      </trkpt>
      <trkpt lat="49.34927" lon="-0.79286">
        <ele>62.8</ele>
        <time>2020-06-17T07:04:22Z</time>
      </trkpt>
      <trkpt lat="49.34925" lon="-0.79278">
        <ele>62.8</ele>
        <time>2020-06-17T07:04:23Z</time>
      </trkpt>
      <trkpt lat="49.34922" lon="-0.79271">
        <ele>62.8</ele>
        <time>2020-06-17T07:04:24Z</time>
      </trkpt>
      <trkpt lat="49.34919" lon="-0.79263">
        <ele>62.8</ele>
        <time>2020-06-17T07:04:25Z</time>
      </trkpt>
      <trkpt lat="49.34916" lon="-0.79255">
        <ele>62.7</ele>
        <time>2020-06-17T07:04:26Z</time>
      </trkpt>
      <trkpt lat="49.34913" lon="-0.79247">
        <ele>62.7</ele>
        <time>2020-06-17T07:04:27Z</time>
      </trkpt>
      <trkpt lat="49.34909" lon="-0.7924">
        <ele>62.7</ele>
        <time>2020-06-17T07:04:28Z</time>
      </trkpt>
      <trkpt lat="49.34905" lon="-0.79233">
        <ele>62.7</ele>
        <time>2020-06-17T07:04:29Z</time>
      </trkpt>
      <trkpt lat="49.349" lon="-0.79225">
        <ele>62.7</ele>
        <time>2020-06-17T07:04:30Z</time>
      </trkpt>
      <trkpt lat="49.34895" lon="-0.79219">
        <ele>62.8</ele>
        <time>2020-06-17T07:04:31Z</time>
      </trkpt>
      <trkpt lat="49.34891" lon="-0.79212">
        <ele>62.8</ele>
        <time>2020-06-17T07:04:32Z</time>
      </trkpt>
      <trkpt lat="49.34887" lon="-0.79205">
        <ele>62.9</ele>
        <time>2020-06-17T07:04:33Z</time>
      </trkpt>
      <trkpt lat="49.34883" lon="-0.79199">
        <ele>63</ele>
        <time>2020-06-17T07:04:34Z</time>
      </trkpt>
      <trkpt lat="49.34879" lon="-0.79192">
        <ele>63.1</ele>
        <time>2020-06-17T07:04:35Z</time>
      </trkpt>
      <trkpt lat="49.34875" lon="-0.79186">
        <ele>63.3</ele>
        <time>2020-06-17T07:04:36Z</time>
      </trkpt>
      <trkpt lat="49.34871" lon="-0.79178">
        <ele>63.4</ele>
        <time>2020-06-17T07:04:37Z</time>
      </trkpt>
      <trkpt lat="49.34868" lon="-0.7917">
        <ele>63.6</ele>
        <time>2020-06-17T07:04:38Z</time>
      </trkpt>
      <trkpt lat="49.34866" lon="-0.79162">
        <ele>63.7</ele>
        <time>2020-06-17T07:04:39Z</time>
      </trkpt>
      <trkpt lat="49.34863" lon="-0.79154">
        <ele>63.9</ele>
        <time>2020-06-17T07:04:40Z</time>
      </trkpt>
      <trkpt lat="49.3486" lon="-0.79146">
        <ele>64.1</ele>
        <time>2020-06-17T07:04:41Z</time>
      </trkpt>
      <trkpt lat="49.34857" lon="-0.79139">
        <ele>64.2</ele>
        <time>2020-06-17T07:04:42Z</time>
      </trkpt>
      <trkpt lat="49.34854" lon="-0.79132">
        <ele>64.3</ele>
        <time>2020-06-17T07:04:43Z</time>
      </trkpt>
      <trkpt lat="49.34852" lon="-0.79124">
        <ele>64.4</ele>
        <time>2020-06-17T07:04:44Z</time>
      </trkpt>
      <trkpt lat="49.3485" lon="-0.79116">
        <ele>64.4</ele>
        <time>2020-06-17T07:04:45Z</time>
      </trkpt>
      <trkpt lat="49.34849" lon="-0.79109">
        <ele>64.5</ele>
        <time>2020-06-17T07:04:46Z</time>
      </trkpt>
      <trkpt lat="49.34849" lon="-0.79102">
        <ele>64.5</ele>
        <time>2020-06-17T07:04:47Z</time>
      </trkpt>
      <trkpt lat="49.34849" lon="-0.79094">
        <ele>64.6</ele>
        <time>2020-06-17T07:04:48Z</time>
      </trkpt>
      <trkpt lat="49.34848" lon="-0.79087">
        <ele>64.6</ele>
        <time>2020-06-17T07:04:49Z</time>
      </trkpt>
      <trkpt lat="49.34847" lon="-0.7908">
        <ele>64.6</ele>
        <time>2020-06-17T07:04:50Z</time>
      </trkpt>
      <trkpt lat="49.34846" lon="-0.79073">
        <ele>64.7</ele>
        <time>2020-06-17T07:04:51Z</time>
      </trkpt>
      <trkpt lat="49.34846" lon="-0.79065">
        <ele>64.7</ele>
        <time>2020-06-17T07:04:52Z</time>
      </trkpt>
      <trkpt lat="49.34845" lon="-0.79057">
        <ele>64.7</ele>
        <time>2020-06-17T07:04:53Z</time>
      </trkpt>
      <trkpt lat="49.34845" lon="-0.7905">
        <ele>64.7</ele>
        <time>2020-06-17T07:04:54Z</time>
      </trkpt>
      <trkpt lat="49.34845" lon="-0.79042">
        <ele>64.8</ele>
        <time>2020-06-17T07:04:55Z</time>
      </trkpt>
      <trkpt lat="49.34844" lon="-0.79034">
        <ele>64.8</ele>
        <time>2020-06-17T07:04:56Z</time>
      </trkpt>
      <trkpt lat="49.34844" lon="-0.79026">
        <ele>64.8</ele>
        <time>2020-06-17T07:04:57Z</time>
      </trkpt>
      <trkpt lat="49.34844" lon="-0.79018">
        <ele>64.8</ele>
        <time>2020-06-17T07:04:58Z</time>
      </trkpt>
      <trkpt lat="49.34844" lon="-0.7901">
        <ele>64.9</ele>
        <time>2020-06-17T07:04:59Z</time>
      </trkpt>
      <trkpt lat="49.34844" lon="-0.79002">
        <ele>64.9</ele>
        <time>2020-06-17T07:05:00Z</time>
      </trkpt>
      <trkpt lat="49.34845" lon="-0.78994">
        <ele>64.9</ele>
        <time>2020-06-17T07:05:01Z</time>
      </trkpt>
      <trkpt lat="49.34845" lon="-0.78986">
        <ele>65</ele>
        <time>2020-06-17T07:05:02Z</time>
      </trkpt>
      <trkpt lat="49.34845" lon="-0.78978">
        <ele>65</ele>
        <time>2020-06-17T07:05:03Z</time>
      </trkpt>
      <trkpt lat="49.34845" lon="-0.78971">
        <ele>65.1</ele>
        <time>2020-06-17T07:05:04Z</time>
      </trkpt>
      <trkpt lat="49.34845" lon="-0.78964">
        <ele>65.1</ele>
        <time>2020-06-17T07:05:05Z</time>
      </trkpt>
      <trkpt lat="49.34846" lon="-0.78956">
        <ele>65.2</ele>
        <time>2020-06-17T07:05:06Z</time>
      </trkpt>
      <trkpt lat="49.34846" lon="-0.78948">
        <ele>65.3</ele>
        <time>2020-06-17T07:05:07Z</time>
      </trkpt>
      <trkpt lat="49.34846" lon="-0.7894">
        <ele>65.3</ele>
        <time>2020-06-17T07:05:08Z</time>
      </trkpt>
      <trkpt lat="49.34847" lon="-0.78931">
        <ele>65.4</ele>
        <time>2020-06-17T07:05:09Z</time>
      </trkpt>
      <trkpt lat="49.34847" lon="-0.78923">
        <ele>65.5</ele>
        <time>2020-06-17T07:05:10Z</time>
      </trkpt>
      <trkpt lat="49.34847" lon="-0.78915">
        <ele>65.5</ele>
        <time>2020-06-17T07:05:11Z</time>
      </trkpt>
      <trkpt lat="49.34846" lon="-0.78907">
        <ele>65.5</ele>
        <time>2020-06-17T07:05:12Z</time>
      </trkpt>
      <trkpt lat="49.34847" lon="-0.78898">
        <ele>65.6</ele>
        <time>2020-06-17T07:05:13Z</time>
      </trkpt>
      <trkpt lat="49.34847" lon="-0.78889">
        <ele>65.6</ele>
        <time>2020-06-17T07:05:14Z</time>
      </trkpt>
      <trkpt lat="49.34849" lon="-0.7888">
        <ele>65.7</ele>
        <time>2020-06-17T07:05:15Z</time>
      </trkpt>
      <trkpt lat="49.34849" lon="-0.78873">
        <ele>65.7</ele>
        <time>2020-06-17T07:05:16Z</time>
      </trkpt>
      <trkpt lat="49.34849" lon="-0.78864">
        <ele>65.7</ele>
        <time>2020-06-17T07:05:17Z</time>
      </trkpt>
      <trkpt lat="49.3485" lon="-0.78855">
        <ele>65.8</ele>
        <time>2020-06-17T07:05:18Z</time>
      </trkpt>
      <trkpt lat="49.3485" lon="-0.78846">
        <ele>65.8</ele>
        <time>2020-06-17T07:05:19Z</time>
      </trkpt>
      <trkpt lat="49.3485" lon="-0.78837">
        <ele>65.8</ele>
        <time>2020-06-17T07:05:20Z</time>
      </trkpt>
      <trkpt lat="49.34849" lon="-0.78828">
        <ele>65.8</ele>
        <time>2020-06-17T07:05:21Z</time>
      </trkpt>
      <trkpt lat="49.34849" lon="-0.78819">
        <ele>65.8</ele>
        <time>2020-06-17T07:05:22Z</time>
      </trkpt>
      <trkpt lat="49.34849" lon="-0.78809">
        <ele>65.8</ele>
        <time>2020-06-17T07:05:23Z</time>
      </trkpt>
      <trkpt lat="49.34848" lon="-0.788">
        <ele>65.8</ele>
        <time>2020-06-17T07:05:24Z</time>
      </trkpt>
      <trkpt lat="49.34847" lon="-0.78791">
        <ele>65.9</ele>
        <time>2020-06-17T07:05:25Z</time>
      </trkpt>
      <trkpt lat="49.34846" lon="-0.78781">
        <ele>65.9</ele>
        <time>2020-06-17T07:05:26Z</time>
      </trkpt>
      <trkpt lat="49.34846" lon="-0.78772">
        <ele>65.9</ele>
        <time>2020-06-17T07:05:27Z</time>
      </trkpt>
      <trkpt lat="49.34845" lon="-0.78763">
        <ele>65.9</ele>
        <time>2020-06-17T07:05:28Z</time>
      </trkpt>
      <trkpt lat="49.34845" lon="-0.78755">
        <ele>66</ele>
        <time>2020-06-17T07:05:29Z</time>
      </trkpt>
      <trkpt lat="49.34845" lon="-0.78747">
        <ele>66</ele>
        <time>2020-06-17T07:05:30Z</time>
      </trkpt>
      <trkpt lat="49.34844" lon="-0.78738">
        <ele>66.1</ele>
        <time>2020-06-17T07:05:31Z</time>
      </trkpt>
      <trkpt lat="49.34844" lon="-0.78729">
        <ele>66.2</ele>
        <time>2020-06-17T07:05:32Z</time>
      </trkpt>
      <trkpt lat="49.34843" lon="-0.7872">
        <ele>66.3</ele>
        <time>2020-06-17T07:05:33Z</time>
      </trkpt>
      <trkpt lat="49.34842" lon="-0.78711">
        <ele>66.5</ele>
        <time>2020-06-17T07:05:34Z</time>
      </trkpt>
      <trkpt lat="49.34843" lon="-0.78703">
        <ele>66.7</ele>
        <time>2020-06-17T07:05:35Z</time>
      </trkpt>
      <trkpt lat="49.34843" lon="-0.78695">
        <ele>66.8</ele>
        <time>2020-06-17T07:05:36Z</time>
      </trkpt>
      <trkpt lat="49.34842" lon="-0.78687">
        <ele>66.9</ele>
        <time>2020-06-17T07:05:37Z</time>
      </trkpt>
      <trkpt lat="49.34841" lon="-0.78679">
        <ele>66.9</ele>
        <time>2020-06-17T07:05:38Z</time>
      </trkpt>
      <trkpt lat="49.34839" lon="-0.7867">
        <ele>66.9</ele>
        <time>2020-06-17T07:05:39Z</time>
      </trkpt>
      <trkpt lat="49.34838" lon="-0.78662">
        <ele>66.9</ele>
        <time>2020-06-17T07:05:40Z</time>
      </trkpt>
      <trkpt lat="49.34835" lon="-0.78654">
        <ele>67</ele>
        <time>2020-06-17T07:05:41Z</time>
      </trkpt>
      <trkpt lat="49.34832" lon="-0.78646">
        <ele>67.1</ele>
        <time>2020-06-17T07:05:42Z</time>
      </trkpt>
      <trkpt lat="49.34829" lon="-0.78638">
        <ele>67.1</ele>
        <time>2020-06-17T07:05:43Z</time>
      </trkpt>
      <trkpt lat="49.34825" lon="-0.7863">
        <ele>67.2</ele>
        <time>2020-06-17T07:05:44Z</time>
      </trkpt>
      <trkpt lat="49.34821" lon="-0.78622">
        <ele>67.2</ele>
        <time>2020-06-17T07:05:45Z</time>
      </trkpt>
      <trkpt lat="49.34816" lon="-0.78613">
        <ele>67.3</ele>
        <time>2020-06-17T07:05:46Z</time>
      </trkpt>
      <trkpt lat="49.34811" lon="-0.78605">
        <ele>67.3</ele>
        <time>2020-06-17T07:05:47Z</time>
      </trkpt>
      <trkpt lat="49.34807" lon="-0.78599">
        <ele>67.3</ele>
        <time>2020-06-17T07:05:48Z</time>
      </trkpt>
      <trkpt lat="49.34802" lon="-0.78593">
        <ele>67.4</ele>
        <time>2020-06-17T07:05:49Z</time>
      </trkpt>
      <trkpt lat="49.34797" lon="-0.78587">
        <ele>67.4</ele>
        <time>2020-06-17T07:05:50Z</time>
      </trkpt>
      <trkpt lat="49.34792" lon="-0.78581">
        <ele>67.4</ele>
        <time>2020-06-17T07:05:51Z</time>
      </trkpt>
      <trkpt lat="49.34788" lon="-0.78576">
        <ele>67.4</ele>
        <time>2020-06-17T07:05:52Z</time>
      </trkpt>
      <trkpt lat="49.34784" lon="-0.78571">
        <ele>67.4</ele>
        <time>2020-06-17T07:05:53Z</time>
      </trkpt>
      <trkpt lat="49.34779" lon="-0.78566">
        <ele>67.5</ele>
        <time>2020-06-17T07:05:54Z</time>
      </trkpt>
      <trkpt lat="49.34775" lon="-0.7856">
        <ele>67.5</ele>
        <time>2020-06-17T07:05:55Z</time>
      </trkpt>
      <trkpt lat="49.3477" lon="-0.78555">
        <ele>67.5</ele>
        <time>2020-06-17T07:05:56Z</time>
      </trkpt>
      <trkpt lat="49.34766" lon="-0.78549">
        <ele>67.5</ele>
        <time>2020-06-17T07:05:57Z</time>
      </trkpt>
      <trkpt lat="49.34761" lon="-0.78544">
        <ele>67.5</ele>
        <time>2020-06-17T07:05:58Z</time>
      </trkpt>
      <trkpt lat="49.34757" lon="-0.78538">
        <ele>67.6</ele>
        <time>2020-06-17T07:05:59Z</time>
      </trkpt>
      <trkpt lat="49.34752" lon="-0.78532">
        <ele>67.6</ele>
        <time>2020-06-17T07:06:00Z</time>
      </trkpt>
      <trkpt lat="49.34747" lon="-0.78527">
        <ele>67.6</ele>
        <time>2020-06-17T07:06:01Z</time>
      </trkpt>
      <trkpt lat="49.34743" lon="-0.7852">
        <ele>67.6</ele>
        <time>2020-06-17T07:06:02Z</time>
      </trkpt>
      <trkpt lat="49.34739" lon="-0.78513">
        <ele>67.6</ele>
        <time>2020-06-17T07:06:03Z</time>
      </trkpt>
      <trkpt lat="49.34735" lon="-0.78505">
        <ele>67.6</ele>
        <time>2020-06-17T07:06:04Z</time>
      </trkpt>
      <trkpt lat="49.34732" lon="-0.78498">
        <ele>67.7</ele>
        <time>2020-06-17T07:06:05Z</time>
      </trkpt>
      <trkpt lat="49.34729" lon="-0.78491">
        <ele>67.7</ele>
        <time>2020-06-17T07:06:06Z</time>
      </trkpt>
      <trkpt lat="49.34727" lon="-0.78484">
        <ele>67.7</ele>
        <time>2020-06-17T07:06:07Z</time>
      </trkpt>
      <trkpt lat="49.34724" lon="-0.78476">
        <ele>67.7</ele>
        <time>2020-06-17T07:06:08Z</time>
      </trkpt>
      <trkpt lat="49.34722" lon="-0.78467">
        <ele>67.8</ele>
        <time>2020-06-17T07:06:09Z</time>
      </trkpt>
      <trkpt lat="49.34719" lon="-0.78459">
        <ele>67.8</ele>
        <time>2020-06-17T07:06:10Z</time>
      </trkpt>
      <trkpt lat="49.34716" lon="-0.7845">
        <ele>67.8</ele>
        <time>2020-06-17T07:06:11Z</time>
      </trkpt>
      <trkpt lat="49.34714" lon="-0.78442">
        <ele>67.9</ele>
        <time>2020-06-17T07:06:12Z</time>
      </trkpt>
      <trkpt lat="49.34712" lon="-0.78433">
        <ele>67.9</ele>
        <time>2020-06-17T07:06:13Z</time>
      </trkpt>
      <trkpt lat="49.3471" lon="-0.78425">
        <ele>67.9</ele>
        <time>2020-06-17T07:06:14Z</time>
      </trkpt>
      <trkpt lat="49.34707" lon="-0.78417">
        <ele>67.9</ele>
        <time>2020-06-17T07:06:15Z</time>
      </trkpt>
      <trkpt lat="49.34705" lon="-0.78409">
        <ele>67.9</ele>
        <time>2020-06-17T07:06:16Z</time>
      </trkpt>
      <trkpt lat="49.34703" lon="-0.78404">
        <ele>67.9</ele>
        <time>2020-06-17T07:06:17Z</time>
      </trkpt>
      <trkpt lat="49.34701" lon="-0.78396">
        <ele>67.9</ele>
        <time>2020-06-17T07:06:18Z</time>
      </trkpt>
      <trkpt lat="49.34698" lon="-0.78389">
        <ele>67.9</ele>
        <time>2020-06-17T07:06:19Z</time>
      </trkpt>
      <trkpt lat="49.34696" lon="-0.78382">
        <ele>67.9</ele>
        <time>2020-06-17T07:06:20Z</time>
      </trkpt>
      <trkpt lat="49.34694" lon="-0.78374">
        <ele>67.9</ele>
        <time>2020-06-17T07:06:21Z</time>
      </trkpt>
      <trkpt lat="49.34691" lon="-0.78366">
        <ele>67.9</ele>
        <time>2020-06-17T07:06:22Z</time>
      </trkpt>
      <trkpt lat="49.34688" lon="-0.78359">
        <ele>67.9</ele>
        <time>2020-06-17T07:06:23Z</time>
      </trkpt>
      <trkpt lat="49.34685" lon="-0.78351">
        <ele>67.9</ele>
        <time>2020-06-17T07:06:24Z</time>
      </trkpt>
      <trkpt lat="49.34682" lon="-0.78344">
        <ele>67.9</ele>
        <time>2020-06-17T07:06:25Z</time>
      </trkpt>
      <trkpt lat="49.34679" lon="-0.78337">
        <ele>67.9</ele>
        <time>2020-06-17T07:06:26Z</time>
      </trkpt>
      <trkpt lat="49.34675" lon="-0.7833">
        <ele>67.9</ele>
        <time>2020-06-17T07:06:27Z</time>
      </trkpt>
      <trkpt lat="49.34671" lon="-0.78323">
        <ele>67.9</ele>
        <time>2020-06-17T07:06:28Z</time>
      </trkpt>
      <trkpt lat="49.34668" lon="-0.78315">
        <ele>67.9</ele>
        <time>2020-06-17T07:06:29Z</time>
      </trkpt>
      <trkpt lat="49.34665" lon="-0.78308">
        <ele>67.9</ele>
        <time>2020-06-17T07:06:30Z</time>
      </trkpt>
      <trkpt lat="49.34661" lon="-0.78299">
        <ele>67.9</ele>
        <time>2020-06-17T07:06:31Z</time>
      </trkpt>
      <trkpt lat="49.34656" lon="-0.78292">
        <ele>67.9</ele>
        <time>2020-06-17T07:06:32Z</time>
      </trkpt>
      <trkpt lat="49.34653" lon="-0.78286">
        <ele>68</ele>
        <time>2020-06-17T07:06:33Z</time>
      </trkpt>
      <trkpt lat="49.34649" lon="-0.78279">
        <ele>68</ele>
        <time>2020-06-17T07:06:34Z</time>
      </trkpt>
      <trkpt lat="49.34645" lon="-0.78273">
        <ele>68</ele>
        <time>2020-06-17T07:06:35Z</time>
      </trkpt>
      <trkpt lat="49.3464" lon="-0.78267">
        <ele>68</ele>
        <time>2020-06-17T07:06:36Z</time>
      </trkpt>
      <trkpt lat="49.34636" lon="-0.78259">
        <ele>68</ele>
        <time>2020-06-17T07:06:37Z</time>
      </trkpt>
      <trkpt lat="49.34632" lon="-0.78252">
        <ele>67.9</ele>
        <time>2020-06-17T07:06:38Z</time>
      </trkpt>
      <trkpt lat="49.34628" lon="-0.78246">
        <ele>67.9</ele>
        <time>2020-06-17T07:06:39Z</time>
      </trkpt>
      <trkpt lat="49.34624" lon="-0.7824">
        <ele>67.9</ele>
        <time>2020-06-17T07:06:40Z</time>
      </trkpt>
      <trkpt lat="49.3462" lon="-0.78234">
        <ele>67.9</ele>
        <time>2020-06-17T07:06:41Z</time>
      </trkpt>
      <trkpt lat="49.34616" lon="-0.78227">
        <ele>67.9</ele>
        <time>2020-06-17T07:06:42Z</time>
      </trkpt>
      <trkpt lat="49.34612" lon="-0.78221">
        <ele>68</ele>
        <time>2020-06-17T07:06:43Z</time>
      </trkpt>
      <trkpt lat="49.34608" lon="-0.78215">
        <ele>68</ele>
        <time>2020-06-17T07:06:44Z</time>
      </trkpt>
      <trkpt lat="49.34604" lon="-0.7821">
        <ele>68.1</ele>
        <time>2020-06-17T07:06:45Z</time>
      </trkpt>
      <trkpt lat="49.346" lon="-0.78204">
        <ele>68.2</ele>
        <time>2020-06-17T07:06:46Z</time>
      </trkpt>
      <trkpt lat="49.34596" lon="-0.78198">
        <ele>68.3</ele>
        <time>2020-06-17T07:06:47Z</time>
      </trkpt>
      <trkpt lat="49.34592" lon="-0.78192">
        <ele>68.5</ele>
        <time>2020-06-17T07:06:48Z</time>
      </trkpt>
      <trkpt lat="49.34588" lon="-0.78186">
        <ele>68.6</ele>
        <time>2020-06-17T07:06:49Z</time>
      </trkpt>
      <trkpt lat="49.34584" lon="-0.7818">
        <ele>68.7</ele>
        <time>2020-06-17T07:06:50Z</time>
      </trkpt>
      <trkpt lat="49.34581" lon="-0.78174">
        <ele>68.9</ele>
        <time>2020-06-17T07:06:51Z</time>
      </trkpt>
      <trkpt lat="49.34577" lon="-0.78167">
        <ele>69</ele>
        <time>2020-06-17T07:06:52Z</time>
      </trkpt>
      <trkpt lat="49.34574" lon="-0.78161">
        <ele>69.1</ele>
        <time>2020-06-17T07:06:53Z</time>
      </trkpt>
      <trkpt lat="49.34571" lon="-0.78155">
        <ele>69.1</ele>
        <time>2020-06-17T07:06:54Z</time>
      </trkpt>
      <trkpt lat="49.34568" lon="-0.78149">
        <ele>69.2</ele>
        <time>2020-06-17T07:06:55Z</time>
      </trkpt>
      <trkpt lat="49.34566" lon="-0.78142">
        <ele>69.2</ele>
        <time>2020-06-17T07:06:56Z</time>
      </trkpt>
      <trkpt lat="49.34563" lon="-0.78135">
        <ele>69.3</ele>
        <time>2020-06-17T07:06:57Z</time>
      </trkpt>
      <trkpt lat="49.3456" lon="-0.78127">
        <ele>69.3</ele>
        <time>2020-06-17T07:06:58Z</time>
      </trkpt>
      <trkpt lat="49.34558" lon="-0.78119">
        <ele>69.2</ele>
        <time>2020-06-17T07:06:59Z</time>
      </trkpt>
      <trkpt lat="49.34555" lon="-0.78112">
        <ele>69.2</ele>
        <time>2020-06-17T07:07:00Z</time>
      </trkpt>
      <trkpt lat="49.34553" lon="-0.78104">
        <ele>69.1</ele>
        <time>2020-06-17T07:07:01Z</time>
      </trkpt>
      <trkpt lat="49.3455" lon="-0.78097">
        <ele>69.1</ele>
        <time>2020-06-17T07:07:02Z</time>
      </trkpt>
      <trkpt lat="49.34548" lon="-0.7809">
        <ele>69</ele>
        <time>2020-06-17T07:07:03Z</time>
      </trkpt>
      <trkpt lat="49.34545" lon="-0.78083">
        <ele>69</ele>
        <time>2020-06-17T07:07:04Z</time>
      </trkpt>
      <trkpt lat="49.34543" lon="-0.78075">
        <ele>69</ele>
        <time>2020-06-17T07:07:05Z</time>
      </trkpt>
      <trkpt lat="49.34541" lon="-0.78066">
        <ele>69.1</ele>
        <time>2020-06-17T07:07:06Z</time>
      </trkpt>
      <trkpt lat="49.34539" lon="-0.78058">
        <ele>69.1</ele>
        <time>2020-06-17T07:07:07Z</time>
      </trkpt>
      <trkpt lat="49.34537" lon="-0.7805">
        <ele>69.2</ele>
        <time>2020-06-17T07:07:08Z</time>
      </trkpt>
      <trkpt lat="49.34536" lon="-0.78041">
        <ele>69.4</ele>
        <time>2020-06-17T07:07:09Z</time>
      </trkpt>
      <trkpt lat="49.34534" lon="-0.78032">
        <ele>69.5</ele>
        <time>2020-06-17T07:07:10Z</time>
      </trkpt>
      <trkpt lat="49.34532" lon="-0.78024">
        <ele>69.6</ele>
        <time>2020-06-17T07:07:11Z</time>
      </trkpt>
      <trkpt lat="49.3453" lon="-0.78016">
        <ele>69.7</ele>
        <time>2020-06-17T07:07:12Z</time>
      </trkpt>
      <trkpt lat="49.34528" lon="-0.78008">
        <ele>69.8</ele>
        <time>2020-06-17T07:07:13Z</time>
      </trkpt>
      <trkpt lat="49.34527" lon="-0.77999">
        <ele>69.9</ele>
        <time>2020-06-17T07:07:14Z</time>
      </trkpt>
      <trkpt lat="49.34525" lon="-0.7799">
        <ele>70</ele>
        <time>2020-06-17T07:07:15Z</time>
      </trkpt>
      <trkpt lat="49.34523" lon="-0.77981">
        <ele>70</ele>
        <time>2020-06-17T07:07:16Z</time>
      </trkpt>
      <trkpt lat="49.34522" lon="-0.77972">
        <ele>70</ele>
        <time>2020-06-17T07:07:17Z</time>
      </trkpt>
      <trkpt lat="49.3452" lon="-0.77963">
        <ele>70</ele>
        <time>2020-06-17T07:07:18Z</time>
      </trkpt>
      <trkpt lat="49.34519" lon="-0.77954">
        <ele>70</ele>
        <time>2020-06-17T07:07:19Z</time>
      </trkpt>
      <trkpt lat="49.34517" lon="-0.77946">
        <ele>70</ele>
        <time>2020-06-17T07:07:20Z</time>
      </trkpt>
      <trkpt lat="49.34515" lon="-0.77937">
        <ele>70</ele>
        <time>2020-06-17T07:07:21Z</time>
      </trkpt>
      <trkpt lat="49.34514" lon="-0.77929">
        <ele>70</ele>
        <time>2020-06-17T07:07:22Z</time>
      </trkpt>
      <trkpt lat="49.34513" lon="-0.7792">
        <ele>70</ele>
        <time>2020-06-17T07:07:23Z</time>
      </trkpt>
      <trkpt lat="49.34512" lon="-0.77911">
        <ele>70</ele>
        <time>2020-06-17T07:07:24Z</time>
      </trkpt>
      <trkpt lat="49.3451" lon="-0.77902">
        <ele>70</ele>
        <time>2020-06-17T07:07:25Z</time>
      </trkpt>
      <trkpt lat="49.34509" lon="-0.77893">
        <ele>70</ele>
        <time>2020-06-17T07:07:26Z</time>
      </trkpt>
      <trkpt lat="49.34508" lon="-0.77884">
        <ele>70</ele>
        <time>2020-06-17T07:07:27Z</time>
      </trkpt>
      <trkpt lat="49.34506" lon="-0.77874">
        <ele>69.9</ele>
        <time>2020-06-17T07:07:28Z</time>
      </trkpt>
      <trkpt lat="49.34504" lon="-0.77865">
        <ele>69.9</ele>
        <time>2020-06-17T07:07:29Z</time>
      </trkpt>
      <trkpt lat="49.34502" lon="-0.77856">
        <ele>69.9</ele>
        <time>2020-06-17T07:07:30Z</time>
      </trkpt>
      <trkpt lat="49.345" lon="-0.77846">
        <ele>69.9</ele>
        <time>2020-06-17T07:07:31Z</time>
      </trkpt>
      <trkpt lat="49.34499" lon="-0.77837">
        <ele>69.9</ele>
        <time>2020-06-17T07:07:32Z</time>
      </trkpt>
      <trkpt lat="49.34497" lon="-0.77828">
        <ele>69.9</ele>
        <time>2020-06-17T07:07:33Z</time>
      </trkpt>
      <trkpt lat="49.34495" lon="-0.77818">
        <ele>69.9</ele>
        <time>2020-06-17T07:07:34Z</time>
      </trkpt>
      <trkpt lat="49.34492" lon="-0.77808">
        <ele>69.8</ele>
        <time>2020-06-17T07:07:35Z</time>
      </trkpt>
      <trkpt lat="49.34489" lon="-0.77798">
        <ele>69.8</ele>
        <time>2020-06-17T07:07:36Z</time>
      </trkpt>
      <trkpt lat="49.34487" lon="-0.7779">
        <ele>69.7</ele>
        <time>2020-06-17T07:07:37Z</time>
      </trkpt>
      <trkpt lat="49.34483" lon="-0.7778">
        <ele>69.6</ele>
        <time>2020-06-17T07:07:38Z</time>
      </trkpt>
      <trkpt lat="49.34481" lon="-0.77771">
        <ele>69.6</ele>
        <time>2020-06-17T07:07:39Z</time>
      </trkpt>
      <trkpt lat="49.34477" lon="-0.77762">
        <ele>69.5</ele>
        <time>2020-06-17T07:07:40Z</time>
      </trkpt>
      <trkpt lat="49.34475" lon="-0.77754">
        <ele>69.4</ele>
        <time>2020-06-17T07:07:41Z</time>
      </trkpt>
      <trkpt lat="49.34471" lon="-0.77746">
        <ele>69.3</ele>
        <time>2020-06-17T07:07:42Z</time>
      </trkpt>
      <trkpt lat="49.34468" lon="-0.77737">
        <ele>69.3</ele>
        <time>2020-06-17T07:07:43Z</time>
      </trkpt>
      <trkpt lat="49.34466" lon="-0.77729">
        <ele>69.2</ele>
        <time>2020-06-17T07:07:44Z</time>
      </trkpt>
      <trkpt lat="49.34463" lon="-0.7772">
        <ele>69.2</ele>
        <time>2020-06-17T07:07:45Z</time>
      </trkpt>
      <trkpt lat="49.34459" lon="-0.7771">
        <ele>69.1</ele>
        <time>2020-06-17T07:07:46Z</time>
      </trkpt>
      <trkpt lat="49.34456" lon="-0.77702">
        <ele>69</ele>
        <time>2020-06-17T07:07:47Z</time>
      </trkpt>
      <trkpt lat="49.34453" lon="-0.77693">
        <ele>69</ele>
        <time>2020-06-17T07:07:48Z</time>
      </trkpt>
      <trkpt lat="49.3445" lon="-0.77684">
        <ele>68.9</ele>
        <time>2020-06-17T07:07:49Z</time>
      </trkpt>
      <trkpt lat="49.34448" lon="-0.77674">
        <ele>68.8</ele>
        <time>2020-06-17T07:07:50Z</time>
      </trkpt>
      <trkpt lat="49.34445" lon="-0.77662">
        <ele>68.7</ele>
        <time>2020-06-17T07:07:51Z</time>
      </trkpt>
      <trkpt lat="49.34443" lon="-0.77652">
        <ele>68.7</ele>
        <time>2020-06-17T07:07:52Z</time>
      </trkpt>
      <trkpt lat="49.34443" lon="-0.77641">
        <ele>68.6</ele>
        <time>2020-06-17T07:07:53Z</time>
      </trkpt>
      <trkpt lat="49.34442" lon="-0.77631">
        <ele>68.5</ele>
        <time>2020-06-17T07:07:54Z</time>
      </trkpt>
      <trkpt lat="49.34441" lon="-0.77621">
        <ele>68.4</ele>
        <time>2020-06-17T07:07:55Z</time>
      </trkpt>
      <trkpt lat="49.3444" lon="-0.77611">
        <ele>68.3</ele>
        <time>2020-06-17T07:07:56Z</time>
      </trkpt>
      <trkpt lat="49.34438" lon="-0.77601">
        <ele>68.2</ele>
        <time>2020-06-17T07:07:57Z</time>
      </trkpt>
      <trkpt lat="49.34437" lon="-0.7759">
        <ele>68.1</ele>
        <time>2020-06-17T07:07:58Z</time>
      </trkpt>
      <trkpt lat="49.34436" lon="-0.77581">
        <ele>68.1</ele>
        <time>2020-06-17T07:07:59Z</time>
      </trkpt>
      <trkpt lat="49.34436" lon="-0.7757">
        <ele>68</ele>
        <time>2020-06-17T07:08:00Z</time>
      </trkpt>
      <trkpt lat="49.34434" lon="-0.77558">
        <ele>68</ele>
        <time>2020-06-17T07:08:01Z</time>
      </trkpt>
      <trkpt lat="49.34433" lon="-0.77549">
        <ele>67.9</ele>
        <time>2020-06-17T07:08:02Z</time>
      </trkpt>
      <trkpt lat="49.34432" lon="-0.77539">
        <ele>67.9</ele>
        <time>2020-06-17T07:08:03Z</time>
      </trkpt>
      <trkpt lat="49.3443" lon="-0.77529">
        <ele>67.8</ele>
        <time>2020-06-17T07:08:04Z</time>
      </trkpt>
      <trkpt lat="49.3443" lon="-0.77519">
        <ele>67.7</ele>
        <time>2020-06-17T07:08:05Z</time>
      </trkpt>
      <trkpt lat="49.34429" lon="-0.7751">
        <ele>67.6</ele>
        <time>2020-06-17T07:08:06Z</time>
      </trkpt>
      <trkpt lat="49.34429" lon="-0.775">
        <ele>67.5</ele>
        <time>2020-06-17T07:08:07Z</time>
      </trkpt>
      <trkpt lat="49.34428" lon="-0.77488">
        <ele>67.4</ele>
        <time>2020-06-17T07:08:08Z</time>
      </trkpt>
      <trkpt lat="49.34428" lon="-0.77477">
        <ele>67.4</ele>
        <time>2020-06-17T07:08:09Z</time>
      </trkpt>
      <trkpt lat="49.34428" lon="-0.77465">
        <ele>67.3</ele>
        <time>2020-06-17T07:08:10Z</time>
      </trkpt>
      <trkpt lat="49.34428" lon="-0.77455">
        <ele>67.2</ele>
        <time>2020-06-17T07:08:11Z</time>
      </trkpt>
      <trkpt lat="49.34427" lon="-0.77445">
        <ele>67.1</ele>
        <time>2020-06-17T07:08:12Z</time>
      </trkpt>
      <trkpt lat="49.34427" lon="-0.77435">
        <ele>67.1</ele>
        <time>2020-06-17T07:08:13Z</time>
      </trkpt>
      <trkpt lat="49.34426" lon="-0.77425">
        <ele>66.9</ele>
        <time>2020-06-17T07:08:14Z</time>
      </trkpt>
      <trkpt lat="49.34425" lon="-0.77414">
        <ele>66.8</ele>
        <time>2020-06-17T07:08:15Z</time>
      </trkpt>
      <trkpt lat="49.34425" lon="-0.77405">
        <ele>66.7</ele>
        <time>2020-06-17T07:08:16Z</time>
      </trkpt>
      <trkpt lat="49.34425" lon="-0.77395">
        <ele>66.5</ele>
        <time>2020-06-17T07:08:17Z</time>
      </trkpt>
      <trkpt lat="49.34425" lon="-0.77384">
        <ele>66.4</ele>
        <time>2020-06-17T07:08:18Z</time>
      </trkpt>
      <trkpt lat="49.34425" lon="-0.77374">
        <ele>66.2</ele>
        <time>2020-06-17T07:08:19Z</time>
      </trkpt>
      <trkpt lat="49.34425" lon="-0.77363">
        <ele>66</ele>
        <time>2020-06-17T07:08:20Z</time>
      </trkpt>
      <trkpt lat="49.34424" lon="-0.77352">
        <ele>65.9</ele>
        <time>2020-06-17T07:08:21Z</time>
      </trkpt>
      <trkpt lat="49.34425" lon="-0.7734">
        <ele>65.7</ele>
        <time>2020-06-17T07:08:22Z</time>
      </trkpt>
      <trkpt lat="49.34425" lon="-0.77329">
        <ele>65.5</ele>
        <time>2020-06-17T07:08:23Z</time>
      </trkpt>
      <trkpt lat="49.34425" lon="-0.77318">
        <ele>65.3</ele>
        <time>2020-06-17T07:08:24Z</time>
      </trkpt>
      <trkpt lat="49.34425" lon="-0.77306">
        <ele>65</ele>
        <time>2020-06-17T07:08:25Z</time>
      </trkpt>
      <trkpt lat="49.34425" lon="-0.77296">
        <ele>64.7</ele>
        <time>2020-06-17T07:08:26Z</time>
      </trkpt>
      <trkpt lat="49.34425" lon="-0.77284">
        <ele>64.3</ele>
        <time>2020-06-17T07:08:27Z</time>
      </trkpt>
      <trkpt lat="49.34426" lon="-0.77272">
        <ele>63.8</ele>
        <time>2020-06-17T07:08:28Z</time>
      </trkpt>
      <trkpt lat="49.34426" lon="-0.77261">
        <ele>63.4</ele>
        <time>2020-06-17T07:08:29Z</time>
      </trkpt>
      <trkpt lat="49.34426" lon="-0.77249">
        <ele>63.1</ele>
        <time>2020-06-17T07:08:30Z</time>
      </trkpt>
      <trkpt lat="49.34426" lon="-0.77237">
        <ele>62.6</ele>
        <time>2020-06-17T07:08:31Z</time>
      </trkpt>
      <trkpt lat="49.34425" lon="-0.77225">
        <ele>62.2</ele>
        <time>2020-06-17T07:08:32Z</time>
      </trkpt>
      <trkpt lat="49.34425" lon="-0.77213">
        <ele>61.7</ele>
        <time>2020-06-17T07:08:33Z</time>
      </trkpt>
      <trkpt lat="49.34425" lon="-0.77201">
        <ele>61.2</ele>
        <time>2020-06-17T07:08:34Z</time>
      </trkpt>
      <trkpt lat="49.34424" lon="-0.77188">
        <ele>60.5</ele>
        <time>2020-06-17T07:08:35Z</time>
      </trkpt>
      <trkpt lat="49.34422" lon="-0.77177">
        <ele>59.9</ele>
        <time>2020-06-17T07:08:36Z</time>
      </trkpt>
      <trkpt lat="49.3442" lon="-0.77163">
        <ele>59.1</ele>
        <time>2020-06-17T07:08:37Z</time>
      </trkpt>
      <trkpt lat="49.34417" lon="-0.77151">
        <ele>58.4</ele>
        <time>2020-06-17T07:08:38Z</time>
      </trkpt>
      <trkpt lat="49.34414" lon="-0.77138">
        <ele>57.7</ele>
        <time>2020-06-17T07:08:39Z</time>
      </trkpt>
      <trkpt lat="49.3441" lon="-0.77125">
        <ele>56.9</ele>
        <time>2020-06-17T07:08:40Z</time>
      </trkpt>
      <trkpt lat="49.34406" lon="-0.77112">
        <ele>56.1</ele>
        <time>2020-06-17T07:08:41Z</time>
      </trkpt>
      <trkpt lat="49.34402" lon="-0.77097">
        <ele>55.2</ele>
        <time>2020-06-17T07:08:42Z</time>
      </trkpt>
      <trkpt lat="49.34398" lon="-0.77083">
        <ele>54.3</ele>
        <time>2020-06-17T07:08:43Z</time>
      </trkpt>
      <trkpt lat="49.34395" lon="-0.7707">
        <ele>53.6</ele>
        <time>2020-06-17T07:08:44Z</time>
      </trkpt>
      <trkpt lat="49.34392" lon="-0.77055">
        <ele>52.8</ele>
        <time>2020-06-17T07:08:45Z</time>
      </trkpt>
      <trkpt lat="49.34389" lon="-0.77042">
        <ele>52.1</ele>
        <time>2020-06-17T07:08:46Z</time>
      </trkpt>
      <trkpt lat="49.34386" lon="-0.7703">
        <ele>51.5</ele>
        <time>2020-06-17T07:08:47Z</time>
      </trkpt>
      <trkpt lat="49.34383" lon="-0.77017">
        <ele>50.8</ele>
        <time>2020-06-17T07:08:48Z</time>
      </trkpt>
      <trkpt lat="49.34381" lon="-0.77005">
        <ele>50.2</ele>
        <time>2020-06-17T07:08:49Z</time>
      </trkpt>
      <trkpt lat="49.34379" lon="-0.76992">
        <ele>49.5</ele>
        <time>2020-06-17T07:08:50Z</time>
      </trkpt>
      <trkpt lat="49.34378" lon="-0.7698">
        <ele>48.9</ele>
        <time>2020-06-17T07:08:51Z</time>
      </trkpt>
      <trkpt lat="49.34377" lon="-0.76968">
        <ele>48.2</ele>
        <time>2020-06-17T07:08:52Z</time>
      </trkpt>
      <trkpt lat="49.34375" lon="-0.76956">
        <ele>47.6</ele>
        <time>2020-06-17T07:08:53Z</time>
      </trkpt>
      <trkpt lat="49.34373" lon="-0.76942">
        <ele>46.8</ele>
        <time>2020-06-17T07:08:54Z</time>
      </trkpt>
      <trkpt lat="49.34372" lon="-0.76927">
        <ele>46</ele>
        <time>2020-06-17T07:08:55Z</time>
      </trkpt>
      <trkpt lat="49.34371" lon="-0.76914">
        <ele>45.6</ele>
        <time>2020-06-17T07:08:56Z</time>
      </trkpt>
      <trkpt lat="49.3437" lon="-0.76898">
        <ele>45</ele>
        <time>2020-06-17T07:08:57Z</time>
      </trkpt>
      <trkpt lat="49.3437" lon="-0.76884">
        <ele>44.9</ele>
        <time>2020-06-17T07:08:58Z</time>
      </trkpt>
      <trkpt lat="49.34369" lon="-0.76871">
        <ele>44.4</ele>
        <time>2020-06-17T07:08:59Z</time>
      </trkpt>
      <trkpt lat="49.34368" lon="-0.76858">
        <ele>44.7</ele>
        <time>2020-06-17T07:09:00Z</time>
      </trkpt>
      <trkpt lat="49.34368" lon="-0.76845">
        <ele>45.3</ele>
        <time>2020-06-17T07:09:01Z</time>
      </trkpt>
      <trkpt lat="49.34364" lon="-0.76831">
        <ele>45.3</ele>
        <time>2020-06-17T07:09:02Z</time>
      </trkpt>
      <trkpt lat="49.34363" lon="-0.76816">
        <ele>45.2</ele>
        <time>2020-06-17T07:09:03Z</time>
      </trkpt>
      <trkpt lat="49.34363" lon="-0.76799">
        <ele>45.9</ele>
        <time>2020-06-17T07:09:04Z</time>
      </trkpt>
      <trkpt lat="49.34365" lon="-0.76775">
        <ele>47.7</ele>
        <time>2020-06-17T07:09:05Z</time>
      </trkpt>
      <trkpt lat="49.34366" lon="-0.76767">
        <ele>47.8</ele>
        <time>2020-06-17T07:09:06Z</time>
      </trkpt>
      <trkpt lat="49.34367" lon="-0.76753">
        <ele>48.5</ele>
        <time>2020-06-17T07:09:07Z</time>
      </trkpt>
      <trkpt lat="49.34368" lon="-0.76729">
        <ele>48.4</ele>
        <time>2020-06-17T07:09:08Z</time>
      </trkpt>
      <trkpt lat="49.34368" lon="-0.7672">
        <ele>48.1</ele>
        <time>2020-06-17T07:09:09Z</time>
      </trkpt>
      <trkpt lat="49.34368" lon="-0.76711">
        <ele>47.7</ele>
        <time>2020-06-17T07:09:10Z</time>
      </trkpt>
      <trkpt lat="49.34368" lon="-0.767">
        <ele>47.2</ele>
        <time>2020-06-17T07:09:11Z</time>
      </trkpt>
      <trkpt lat="49.3437" lon="-0.76682">
        <ele>46.5</ele>
        <time>2020-06-17T07:09:12Z</time>
      </trkpt>
      <trkpt lat="49.34373" lon="-0.76665">
        <ele>45.8</ele>
        <time>2020-06-17T07:09:13Z</time>
      </trkpt>
      <trkpt lat="49.34379" lon="-0.76641">
        <ele>44.4</ele>
        <time>2020-06-17T07:09:14Z</time>
      </trkpt>
      <trkpt lat="49.3438" lon="-0.76633">
        <ele>44</ele>
        <time>2020-06-17T07:09:15Z</time>
      </trkpt>
      <trkpt lat="49.34384" lon="-0.76619">
        <ele>43</ele>
        <time>2020-06-17T07:09:16Z</time>
      </trkpt>
      <trkpt lat="49.34385" lon="-0.76604">
        <ele>41.3</ele>
        <time>2020-06-17T07:09:17Z</time>
      </trkpt>
      <trkpt lat="49.34385" lon="-0.76592">
        <ele>40</ele>
        <time>2020-06-17T07:09:18Z</time>
      </trkpt>
      <trkpt lat="49.34386" lon="-0.76583">
        <ele>39.2</ele>
        <time>2020-06-17T07:09:19Z</time>
      </trkpt>
      <trkpt lat="49.34383" lon="-0.76567">
        <ele>37.7</ele>
        <time>2020-06-17T07:09:20Z</time>
      </trkpt>
      <trkpt lat="49.34383" lon="-0.76549">
        <ele>35.8</ele>
        <time>2020-06-17T07:09:21Z</time>
      </trkpt>
      <trkpt lat="49.34382" lon="-0.76534">
        <ele>34.2</ele>
        <time>2020-06-17T07:09:22Z</time>
      </trkpt>
      <trkpt lat="49.34381" lon="-0.76519">
        <ele>33.2</ele>
        <time>2020-06-17T07:09:23Z</time>
      </trkpt>
      <trkpt lat="49.3438" lon="-0.76505">
        <ele>32.1</ele>
        <time>2020-06-17T07:09:24Z</time>
      </trkpt>
      <trkpt lat="49.3438" lon="-0.7649">
        <ele>31.2</ele>
        <time>2020-06-17T07:09:25Z</time>
      </trkpt>
      <trkpt lat="49.34381" lon="-0.76476">
        <ele>30.4</ele>
        <time>2020-06-17T07:09:26Z</time>
      </trkpt>
      <trkpt lat="49.34381" lon="-0.76461">
        <ele>29.6</ele>
        <time>2020-06-17T07:09:27Z</time>
      </trkpt>
      <trkpt lat="49.3438" lon="-0.76445">
        <ele>29.1</ele>
        <time>2020-06-17T07:09:28Z</time>
      </trkpt>
      <trkpt lat="49.3438" lon="-0.7643">
        <ele>28.8</ele>
        <time>2020-06-17T07:09:29Z</time>
      </trkpt>
      <trkpt lat="49.3438" lon="-0.76415">
        <ele>28.6</ele>
        <time>2020-06-17T07:09:30Z</time>
      </trkpt>
      <trkpt lat="49.3438" lon="-0.76399">
        <ele>28.4</ele>
        <time>2020-06-17T07:09:31Z</time>
      </trkpt>
      <trkpt lat="49.3438" lon="-0.76384">
        <ele>28.2</ele>
        <time>2020-06-17T07:09:32Z</time>
      </trkpt>
      <trkpt lat="49.34379" lon="-0.76369">
        <ele>28</ele>
        <time>2020-06-17T07:09:33Z</time>
      </trkpt>
      <trkpt lat="49.34378" lon="-0.76353">
        <ele>27.8</ele>
        <time>2020-06-17T07:09:34Z</time>
      </trkpt>
      <trkpt lat="49.34377" lon="-0.76338">
        <ele>27.6</ele>
        <time>2020-06-17T07:09:35Z</time>
      </trkpt>
      <trkpt lat="49.34377" lon="-0.76323">
        <ele>27.3</ele>
        <time>2020-06-17T07:09:36Z</time>
      </trkpt>
      <trkpt lat="49.34376" lon="-0.76307">
        <ele>27</ele>
        <time>2020-06-17T07:09:37Z</time>
      </trkpt>
      <trkpt lat="49.34375" lon="-0.76292">
        <ele>26.8</ele>
        <time>2020-06-17T07:09:38Z</time>
      </trkpt>
      <trkpt lat="49.34375" lon="-0.76277">
        <ele>26.5</ele>
        <time>2020-06-17T07:09:39Z</time>
      </trkpt>
      <trkpt lat="49.34375" lon="-0.76263">
        <ele>26.2</ele>
        <time>2020-06-17T07:09:40Z</time>
      </trkpt>
      <trkpt lat="49.34375" lon="-0.76249">
        <ele>26</ele>
        <time>2020-06-17T07:09:41Z</time>
      </trkpt>
      <trkpt lat="49.34376" lon="-0.76236">
        <ele>25.7</ele>
        <time>2020-06-17T07:09:42Z</time>
      </trkpt>
      <trkpt lat="49.34375" lon="-0.76222">
        <ele>25.5</ele>
        <time>2020-06-17T07:09:43Z</time>
      </trkpt>
      <trkpt lat="49.34376" lon="-0.76211">
        <ele>25.2</ele>
        <time>2020-06-17T07:09:44Z</time>
      </trkpt>
      <trkpt lat="49.34376" lon="-0.76198">
        <ele>25</ele>
        <time>2020-06-17T07:09:45Z</time>
      </trkpt>
      <trkpt lat="49.34376" lon="-0.76186">
        <ele>24.8</ele>
        <time>2020-06-17T07:09:46Z</time>
      </trkpt>
      <trkpt lat="49.34376" lon="-0.76174">
        <ele>24.7</ele>
        <time>2020-06-17T07:09:47Z</time>
      </trkpt>
      <trkpt lat="49.34377" lon="-0.76162">
        <ele>24.6</ele>
        <time>2020-06-17T07:09:48Z</time>
      </trkpt>
      <trkpt lat="49.34377" lon="-0.76151">
        <ele>24.5</ele>
        <time>2020-06-17T07:09:49Z</time>
      </trkpt>
      <trkpt lat="49.34378" lon="-0.76139">
        <ele>24.3</ele>
        <time>2020-06-17T07:09:50Z</time>
      </trkpt>
      <trkpt lat="49.3438" lon="-0.76127">
        <ele>24.3</ele>
        <time>2020-06-17T07:09:51Z</time>
      </trkpt>
      <trkpt lat="49.3438" lon="-0.76114">
        <ele>24.2</ele>
        <time>2020-06-17T07:09:52Z</time>
      </trkpt>
      <trkpt lat="49.3438" lon="-0.76102">
        <ele>24.1</ele>
        <time>2020-06-17T07:09:53Z</time>
      </trkpt>
      <trkpt lat="49.3438" lon="-0.7609">
        <ele>24.1</ele>
        <time>2020-06-17T07:09:54Z</time>
      </trkpt>
      <trkpt lat="49.3438" lon="-0.76079">
        <ele>24</ele>
        <time>2020-06-17T07:09:55Z</time>
      </trkpt>
      <trkpt lat="49.34381" lon="-0.76068">
        <ele>24</ele>
        <time>2020-06-17T07:09:56Z</time>
      </trkpt>
      <trkpt lat="49.34382" lon="-0.76057">
        <ele>24</ele>
        <time>2020-06-17T07:09:57Z</time>
      </trkpt>
      <trkpt lat="49.34383" lon="-0.76045">
        <ele>23.9</ele>
        <time>2020-06-17T07:09:58Z</time>
      </trkpt>
      <trkpt lat="49.34384" lon="-0.76034">
        <ele>23.9</ele>
        <time>2020-06-17T07:09:59Z</time>
      </trkpt>
      <trkpt lat="49.34385" lon="-0.76022">
        <ele>23.8</ele>
        <time>2020-06-17T07:10:00Z</time>
      </trkpt>
      <trkpt lat="49.34387" lon="-0.76011">
        <ele>23.7</ele>
        <time>2020-06-17T07:10:01Z</time>
      </trkpt>
      <trkpt lat="49.34388" lon="-0.76001">
        <ele>23.7</ele>
        <time>2020-06-17T07:10:02Z</time>
      </trkpt>
      <trkpt lat="49.3439" lon="-0.75991">
        <ele>23.7</ele>
        <time>2020-06-17T07:10:03Z</time>
      </trkpt>
      <trkpt lat="49.34391" lon="-0.7598">
        <ele>23.6</ele>
        <time>2020-06-17T07:10:04Z</time>
      </trkpt>
      <trkpt lat="49.34392" lon="-0.7597">
        <ele>23.5</ele>
        <time>2020-06-17T07:10:05Z</time>
      </trkpt>
      <trkpt lat="49.34392" lon="-0.75959">
        <ele>23.4</ele>
        <time>2020-06-17T07:10:06Z</time>
      </trkpt>
      <trkpt lat="49.34394" lon="-0.75948">
        <ele>23.4</ele>
        <time>2020-06-17T07:10:07Z</time>
      </trkpt>
      <trkpt lat="49.34395" lon="-0.75937">
        <ele>23.3</ele>
        <time>2020-06-17T07:10:08Z</time>
      </trkpt>
      <trkpt lat="49.34395" lon="-0.75928">
        <ele>23.2</ele>
        <time>2020-06-17T07:10:09Z</time>
      </trkpt>
      <trkpt lat="49.34396" lon="-0.75917">
        <ele>23.1</ele>
        <time>2020-06-17T07:10:10Z</time>
      </trkpt>
      <trkpt lat="49.34398" lon="-0.75908">
        <ele>23</ele>
        <time>2020-06-17T07:10:11Z</time>
      </trkpt>
      <trkpt lat="49.344" lon="-0.759">
        <ele>22.9</ele>
        <time>2020-06-17T07:10:12Z</time>
      </trkpt>
      <trkpt lat="49.34401" lon="-0.75892">
        <ele>22.8</ele>
        <time>2020-06-17T07:10:13Z</time>
      </trkpt>
      <trkpt lat="49.34402" lon="-0.75882">
        <ele>22.7</ele>
        <time>2020-06-17T07:10:14Z</time>
      </trkpt>
      <trkpt lat="49.34402" lon="-0.75873">
        <ele>22.5</ele>
        <time>2020-06-17T07:10:15Z</time>
      </trkpt>
      <trkpt lat="49.34403" lon="-0.75862">
        <ele>22.4</ele>
        <time>2020-06-17T07:10:16Z</time>
      </trkpt>
      <trkpt lat="49.34402" lon="-0.75853">
        <ele>22.3</ele>
        <time>2020-06-17T07:10:17Z</time>
      </trkpt>
      <trkpt lat="49.34402" lon="-0.75843">
        <ele>22.2</ele>
        <time>2020-06-17T07:10:18Z</time>
      </trkpt>
      <trkpt lat="49.34402" lon="-0.75831">
        <ele>22.1</ele>
        <time>2020-06-17T07:10:19Z</time>
      </trkpt>
      <trkpt lat="49.34402" lon="-0.75821">
        <ele>22</ele>
        <time>2020-06-17T07:10:20Z</time>
      </trkpt>
      <trkpt lat="49.344" lon="-0.7581">
        <ele>21.9</ele>
        <time>2020-06-17T07:10:21Z</time>
      </trkpt>
      <trkpt lat="49.34399" lon="-0.75799">
        <ele>21.8</ele>
        <time>2020-06-17T07:10:22Z</time>
      </trkpt>
      <trkpt lat="49.34397" lon="-0.75789">
        <ele>21.7</ele>
        <time>2020-06-17T07:10:23Z</time>
      </trkpt>
      <trkpt lat="49.34395" lon="-0.7578">
        <ele>21.6</ele>
        <time>2020-06-17T07:10:24Z</time>
      </trkpt>
      <trkpt lat="49.34392" lon="-0.75771">
        <ele>21.4</ele>
        <time>2020-06-17T07:10:25Z</time>
      </trkpt>
      <trkpt lat="49.3439" lon="-0.75761">
        <ele>21.3</ele>
        <time>2020-06-17T07:10:26Z</time>
      </trkpt>
      <trkpt lat="49.34387" lon="-0.75752">
        <ele>21.1</ele>
        <time>2020-06-17T07:10:27Z</time>
      </trkpt>
      <trkpt lat="49.34384" lon="-0.75743">
        <ele>21</ele>
        <time>2020-06-17T07:10:28Z</time>
      </trkpt>
      <trkpt lat="49.34382" lon="-0.75735">
        <ele>20.9</ele>
        <time>2020-06-17T07:10:29Z</time>
      </trkpt>
      <trkpt lat="49.3438" lon="-0.75726">
        <ele>20.7</ele>
        <time>2020-06-17T07:10:30Z</time>
      </trkpt>
      <trkpt lat="49.34378" lon="-0.75718">
        <ele>20.5</ele>
        <time>2020-06-17T07:10:31Z</time>
      </trkpt>
      <trkpt lat="49.34376" lon="-0.75708">
        <ele>20.4</ele>
        <time>2020-06-17T07:10:32Z</time>
      </trkpt>
      <trkpt lat="49.34374" lon="-0.757">
        <ele>20.3</ele>
        <time>2020-06-17T07:10:33Z</time>
      </trkpt>
      <trkpt lat="49.34373" lon="-0.75692">
        <ele>20.1</ele>
        <time>2020-06-17T07:10:34Z</time>
      </trkpt>
      <trkpt lat="49.34371" lon="-0.75682">
        <ele>20</ele>
        <time>2020-06-17T07:10:35Z</time>
      </trkpt>
      <trkpt lat="49.34369" lon="-0.75672">
        <ele>19.8</ele>
        <time>2020-06-17T07:10:36Z</time>
      </trkpt>
      <trkpt lat="49.34368" lon="-0.75662">
        <ele>19.6</ele>
        <time>2020-06-17T07:10:37Z</time>
      </trkpt>
      <trkpt lat="49.34367" lon="-0.75651">
        <ele>19.4</ele>
        <time>2020-06-17T07:10:38Z</time>
      </trkpt>
      <trkpt lat="49.34367" lon="-0.75641">
        <ele>19.2</ele>
        <time>2020-06-17T07:10:39Z</time>
      </trkpt>
      <trkpt lat="49.34366" lon="-0.75631">
        <ele>19.1</ele>
        <time>2020-06-17T07:10:40Z</time>
      </trkpt>
      <trkpt lat="49.34366" lon="-0.7562">
        <ele>19</ele>
        <time>2020-06-17T07:10:41Z</time>
      </trkpt>
      <trkpt lat="49.34366" lon="-0.7561">
        <ele>18.8</ele>
        <time>2020-06-17T07:10:42Z</time>
      </trkpt>
      <trkpt lat="49.34366" lon="-0.756">
        <ele>18.7</ele>
        <time>2020-06-17T07:10:43Z</time>
      </trkpt>
      <trkpt lat="49.34365" lon="-0.7559">
        <ele>18.6</ele>
        <time>2020-06-17T07:10:44Z</time>
      </trkpt>
      <trkpt lat="49.34364" lon="-0.7558">
        <ele>18.6</ele>
        <time>2020-06-17T07:10:45Z</time>
      </trkpt>
      <trkpt lat="49.34364" lon="-0.7557">
        <ele>18.5</ele>
        <time>2020-06-17T07:10:46Z</time>
      </trkpt>
      <trkpt lat="49.34363" lon="-0.7556">
        <ele>18.4</ele>
        <time>2020-06-17T07:10:47Z</time>
      </trkpt>
      <trkpt lat="49.34363" lon="-0.75551">
        <ele>18.3</ele>
        <time>2020-06-17T07:10:48Z</time>
      </trkpt>
      <trkpt lat="49.34362" lon="-0.75541">
        <ele>18.1</ele>
        <time>2020-06-17T07:10:49Z</time>
      </trkpt>
      <trkpt lat="49.34362" lon="-0.75533">
        <ele>17.8</ele>
        <time>2020-06-17T07:10:50Z</time>
      </trkpt>
      <trkpt lat="49.34362" lon="-0.75524">
        <ele>17.6</ele>
        <time>2020-06-17T07:10:51Z</time>
      </trkpt>
      <trkpt lat="49.34362" lon="-0.75515">
        <ele>17.3</ele>
        <time>2020-06-17T07:10:52Z</time>
      </trkpt>
      <trkpt lat="49.34361" lon="-0.75506">
        <ele>16.9</ele>
        <time>2020-06-17T07:10:53Z</time>
      </trkpt>
      <trkpt lat="49.3436" lon="-0.75498">
        <ele>16.7</ele>
        <time>2020-06-17T07:10:54Z</time>
      </trkpt>
      <trkpt lat="49.3436" lon="-0.75489">
        <ele>16.4</ele>
        <time>2020-06-17T07:10:55Z</time>
      </trkpt>
      <trkpt lat="49.3436" lon="-0.7548">
        <ele>16</ele>
        <time>2020-06-17T07:10:56Z</time>
      </trkpt>
      <trkpt lat="49.3436" lon="-0.7547">
        <ele>15.7</ele>
        <time>2020-06-17T07:10:57Z</time>
      </trkpt>
      <trkpt lat="49.3436" lon="-0.7546">
        <ele>15.3</ele>
        <time>2020-06-17T07:10:58Z</time>
      </trkpt>
      <trkpt lat="49.3436" lon="-0.75451">
        <ele>14.9</ele>
        <time>2020-06-17T07:10:59Z</time>
      </trkpt>
      <trkpt lat="49.34361" lon="-0.75441">
        <ele>14.5</ele>
        <time>2020-06-17T07:11:00Z</time>
      </trkpt>
      <trkpt lat="49.34362" lon="-0.7543">
        <ele>14.4</ele>
        <time>2020-06-17T07:11:01Z</time>
      </trkpt>
      <trkpt lat="49.34362" lon="-0.75421">
        <ele>14.2</ele>
        <time>2020-06-17T07:11:02Z</time>
      </trkpt>
      <trkpt lat="49.34362" lon="-0.7541">
        <ele>14</ele>
        <time>2020-06-17T07:11:03Z</time>
      </trkpt>
      <trkpt lat="49.34361" lon="-0.754">
        <ele>13.8</ele>
        <time>2020-06-17T07:11:04Z</time>
      </trkpt>
      <trkpt lat="49.34359" lon="-0.75388">
        <ele>13.5</ele>
        <time>2020-06-17T07:11:05Z</time>
      </trkpt>
      <trkpt lat="49.34358" lon="-0.75377">
        <ele>13.2</ele>
        <time>2020-06-17T07:11:06Z</time>
      </trkpt>
      <trkpt lat="49.34357" lon="-0.75367">
        <ele>13</ele>
        <time>2020-06-17T07:11:07Z</time>
      </trkpt>
      <trkpt lat="49.34357" lon="-0.75356">
        <ele>12.7</ele>
        <time>2020-06-17T07:11:08Z</time>
      </trkpt>
      <trkpt lat="49.34355" lon="-0.75345">
        <ele>12.4</ele>
        <time>2020-06-17T07:11:09Z</time>
      </trkpt>
      <trkpt lat="49.34353" lon="-0.75334">
        <ele>12.1</ele>
        <time>2020-06-17T07:11:10Z</time>
      </trkpt>
      <trkpt lat="49.34351" lon="-0.75323">
        <ele>11.8</ele>
        <time>2020-06-17T07:11:11Z</time>
      </trkpt>
      <trkpt lat="49.34349" lon="-0.75312">
        <ele>11.4</ele>
        <time>2020-06-17T07:11:12Z</time>
      </trkpt>
      <trkpt lat="49.34346" lon="-0.75302">
        <ele>11.3</ele>
        <time>2020-06-17T07:11:13Z</time>
      </trkpt>
      <trkpt lat="49.34344" lon="-0.75291">
        <ele>11.2</ele>
        <time>2020-06-17T07:11:14Z</time>
      </trkpt>
      <trkpt lat="49.34341" lon="-0.75282">
        <ele>11.2</ele>
        <time>2020-06-17T07:11:15Z</time>
      </trkpt>
      <trkpt lat="49.34338" lon="-0.75272">
        <ele>11.1</ele>
        <time>2020-06-17T07:11:16Z</time>
      </trkpt>
      <trkpt lat="49.34335" lon="-0.75263">
        <ele>11.3</ele>
        <time>2020-06-17T07:11:17Z</time>
      </trkpt>
      <trkpt lat="49.34333" lon="-0.75254">
        <ele>11.1</ele>
        <time>2020-06-17T07:11:18Z</time>
      </trkpt>
      <trkpt lat="49.34331" lon="-0.75244">
        <ele>10.6</ele>
        <time>2020-06-17T07:11:19Z</time>
      </trkpt>
      <trkpt lat="49.34329" lon="-0.75233">
        <ele>10.3</ele>
        <time>2020-06-17T07:11:20Z</time>
      </trkpt>
      <trkpt lat="49.34328" lon="-0.75221">
        <ele>9.9</ele>
        <time>2020-06-17T07:11:21Z</time>
      </trkpt>
      <trkpt lat="49.34326" lon="-0.75211">
        <ele>9.6</ele>
        <time>2020-06-17T07:11:22Z</time>
      </trkpt>
      <trkpt lat="49.34323" lon="-0.752">
        <ele>9.3</ele>
        <time>2020-06-17T07:11:23Z</time>
      </trkpt>
      <trkpt lat="49.34322" lon="-0.75189">
        <ele>9.1</ele>
        <time>2020-06-17T07:11:24Z</time>
      </trkpt>
      <trkpt lat="49.3432" lon="-0.75178">
        <ele>8.8</ele>
        <time>2020-06-17T07:11:25Z</time>
      </trkpt>
      <trkpt lat="49.34318" lon="-0.75167">
        <ele>8.5</ele>
        <time>2020-06-17T07:11:26Z</time>
      </trkpt>
      <trkpt lat="49.34316" lon="-0.75156">
        <ele>8.3</ele>
        <time>2020-06-17T07:11:27Z</time>
      </trkpt>
      <trkpt lat="49.34314" lon="-0.75145">
        <ele>8.1</ele>
        <time>2020-06-17T07:11:28Z</time>
      </trkpt>
      <trkpt lat="49.34314" lon="-0.75133">
        <ele>8</ele>
        <time>2020-06-17T07:11:29Z</time>
      </trkpt>
      <trkpt lat="49.34312" lon="-0.75123">
        <ele>7.9</ele>
        <time>2020-06-17T07:11:30Z</time>
      </trkpt>
      <trkpt lat="49.3431" lon="-0.75112">
        <ele>7.9</ele>
        <time>2020-06-17T07:11:31Z</time>
      </trkpt>
      <trkpt lat="49.34309" lon="-0.75102">
        <ele>7.9</ele>
        <time>2020-06-17T07:11:32Z</time>
      </trkpt>
      <trkpt lat="49.34307" lon="-0.75092">
        <ele>7.9</ele>
        <time>2020-06-17T07:11:33Z</time>
      </trkpt>
      <trkpt lat="49.34306" lon="-0.75081">
        <ele>7.8</ele>
        <time>2020-06-17T07:11:34Z</time>
      </trkpt>
      <trkpt lat="49.34305" lon="-0.75071">
        <ele>7.8</ele>
        <time>2020-06-17T07:11:35Z</time>
      </trkpt>
      <trkpt lat="49.34303" lon="-0.7506">
        <ele>7.8</ele>
        <time>2020-06-17T07:11:36Z</time>
      </trkpt>
      <trkpt lat="49.34302" lon="-0.7505">
        <ele>7.8</ele>
        <time>2020-06-17T07:11:37Z</time>
      </trkpt>
      <trkpt lat="49.34302" lon="-0.7504">
        <ele>7.9</ele>
        <time>2020-06-17T07:11:38Z</time>
      </trkpt>
      <trkpt lat="49.343" lon="-0.7503">
        <ele>7.9</ele>
        <time>2020-06-17T07:11:39Z</time>
      </trkpt>
      <trkpt lat="49.34299" lon="-0.75021">
        <ele>7.9</ele>
        <time>2020-06-17T07:11:40Z</time>
      </trkpt>
      <trkpt lat="49.34297" lon="-0.75012">
        <ele>7.9</ele>
        <time>2020-06-17T07:11:41Z</time>
      </trkpt>
      <trkpt lat="49.34296" lon="-0.75003">
        <ele>7.9</ele>
        <time>2020-06-17T07:11:42Z</time>
      </trkpt>
      <trkpt lat="49.34295" lon="-0.74994">
        <ele>8</ele>
        <time>2020-06-17T07:11:43Z</time>
      </trkpt>
      <trkpt lat="49.34293" lon="-0.74985">
        <ele>8</ele>
        <time>2020-06-17T07:11:44Z</time>
      </trkpt>
      <trkpt lat="49.34292" lon="-0.74976">
        <ele>8</ele>
        <time>2020-06-17T07:11:45Z</time>
      </trkpt>
      <trkpt lat="49.34291" lon="-0.74967">
        <ele>8.1</ele>
        <time>2020-06-17T07:11:46Z</time>
      </trkpt>
      <trkpt lat="49.3429" lon="-0.74958">
        <ele>8.1</ele>
        <time>2020-06-17T07:11:47Z</time>
      </trkpt>
      <trkpt lat="49.34289" lon="-0.7495">
        <ele>8.1</ele>
        <time>2020-06-17T07:11:48Z</time>
      </trkpt>
      <trkpt lat="49.34288" lon="-0.74941">
        <ele>8.2</ele>
        <time>2020-06-17T07:11:49Z</time>
      </trkpt>
      <trkpt lat="49.34287" lon="-0.74932">
        <ele>8.2</ele>
        <time>2020-06-17T07:11:50Z</time>
      </trkpt>
      <trkpt lat="49.34286" lon="-0.74924">
        <ele>8.2</ele>
        <time>2020-06-17T07:11:51Z</time>
      </trkpt>
      <trkpt lat="49.34284" lon="-0.74916">
        <ele>8.2</ele>
        <time>2020-06-17T07:11:52Z</time>
      </trkpt>
      <trkpt lat="49.34283" lon="-0.74907">
        <ele>8.3</ele>
        <time>2020-06-17T07:11:53Z</time>
      </trkpt>
      <trkpt lat="49.34281" lon="-0.74898">
        <ele>8.3</ele>
        <time>2020-06-17T07:11:54Z</time>
      </trkpt>
      <trkpt lat="49.3428" lon="-0.74889">
        <ele>8.4</ele>
        <time>2020-06-17T07:11:55Z</time>
      </trkpt>
      <trkpt lat="49.34279" lon="-0.74881">
        <ele>8.4</ele>
        <time>2020-06-17T07:11:56Z</time>
      </trkpt>
      <trkpt lat="49.34277" lon="-0.74873">
        <ele>8.4</ele>
        <time>2020-06-17T07:11:57Z</time>
      </trkpt>
      <trkpt lat="49.34276" lon="-0.74864">
        <ele>8.4</ele>
        <time>2020-06-17T07:11:58Z</time>
      </trkpt>
      <trkpt lat="49.34275" lon="-0.74855">
        <ele>8.4</ele>
        <time>2020-06-17T07:11:59Z</time>
      </trkpt>
      <trkpt lat="49.34274" lon="-0.74846">
        <ele>8.4</ele>
        <time>2020-06-17T07:12:00Z</time>
      </trkpt>
      <trkpt lat="49.34272" lon="-0.74837">
        <ele>8.5</ele>
        <time>2020-06-17T07:12:01Z</time>
      </trkpt>
      <trkpt lat="49.3427" lon="-0.74829">
        <ele>8.5</ele>
        <time>2020-06-17T07:12:02Z</time>
      </trkpt>
      <trkpt lat="49.34268" lon="-0.7482">
        <ele>8.5</ele>
        <time>2020-06-17T07:12:03Z</time>
      </trkpt>
      <trkpt lat="49.34267" lon="-0.7481">
        <ele>8.5</ele>
        <time>2020-06-17T07:12:04Z</time>
      </trkpt>
      <trkpt lat="49.34265" lon="-0.748">
        <ele>8.5</ele>
        <time>2020-06-17T07:12:05Z</time>
      </trkpt>
      <trkpt lat="49.34263" lon="-0.74791">
        <ele>8.5</ele>
        <time>2020-06-17T07:12:06Z</time>
      </trkpt>
      <trkpt lat="49.34261" lon="-0.74783">
        <ele>8.5</ele>
        <time>2020-06-17T07:12:07Z</time>
      </trkpt>
      <trkpt lat="49.3426" lon="-0.74775">
        <ele>8.5</ele>
        <time>2020-06-17T07:12:08Z</time>
      </trkpt>
      <trkpt lat="49.34257" lon="-0.74766">
        <ele>8.6</ele>
        <time>2020-06-17T07:12:09Z</time>
      </trkpt>
      <trkpt lat="49.34254" lon="-0.74758">
        <ele>8.7</ele>
        <time>2020-06-17T07:12:10Z</time>
      </trkpt>
      <trkpt lat="49.34253" lon="-0.74749">
        <ele>8.7</ele>
        <time>2020-06-17T07:12:11Z</time>
      </trkpt>
      <trkpt lat="49.34251" lon="-0.7474">
        <ele>8.8</ele>
        <time>2020-06-17T07:12:12Z</time>
      </trkpt>
      <trkpt lat="49.34249" lon="-0.74732">
        <ele>8.8</ele>
        <time>2020-06-17T07:12:13Z</time>
      </trkpt>
      <trkpt lat="49.34247" lon="-0.74725">
        <ele>8.8</ele>
        <time>2020-06-17T07:12:14Z</time>
      </trkpt>
      <trkpt lat="49.34245" lon="-0.74718">
        <ele>8.8</ele>
        <time>2020-06-17T07:12:15Z</time>
      </trkpt>
      <trkpt lat="49.34243" lon="-0.7471">
        <ele>8.8</ele>
        <time>2020-06-17T07:12:16Z</time>
      </trkpt>
      <trkpt lat="49.34242" lon="-0.74702">
        <ele>8.9</ele>
        <time>2020-06-17T07:12:17Z</time>
      </trkpt>
      <trkpt lat="49.3424" lon="-0.74695">
        <ele>8.9</ele>
        <time>2020-06-17T07:12:18Z</time>
      </trkpt>
      <trkpt lat="49.34238" lon="-0.74688">
        <ele>8.9</ele>
        <time>2020-06-17T07:12:19Z</time>
      </trkpt>
      <trkpt lat="49.34236" lon="-0.74679">
        <ele>9</ele>
        <time>2020-06-17T07:12:20Z</time>
      </trkpt>
      <trkpt lat="49.34233" lon="-0.74669">
        <ele>9.1</ele>
        <time>2020-06-17T07:12:21Z</time>
      </trkpt>
      <trkpt lat="49.34231" lon="-0.7466">
        <ele>9.1</ele>
        <time>2020-06-17T07:12:22Z</time>
      </trkpt>
      <trkpt lat="49.34229" lon="-0.74653">
        <ele>9</ele>
        <time>2020-06-17T07:12:23Z</time>
      </trkpt>
      <trkpt lat="49.34227" lon="-0.74645">
        <ele>9</ele>
        <time>2020-06-17T07:12:24Z</time>
      </trkpt>
      <trkpt lat="49.34226" lon="-0.74637">
        <ele>9</ele>
        <time>2020-06-17T07:12:25Z</time>
      </trkpt>
      <trkpt lat="49.34224" lon="-0.74628">
        <ele>9</ele>
        <time>2020-06-17T07:12:26Z</time>
      </trkpt>
      <trkpt lat="49.34221" lon="-0.74619">
        <ele>9</ele>
        <time>2020-06-17T07:12:27Z</time>
      </trkpt>
      <trkpt lat="49.34219" lon="-0.74609">
        <ele>9</ele>
        <time>2020-06-17T07:12:28Z</time>
      </trkpt>
      <trkpt lat="49.34216" lon="-0.746">
        <ele>9</ele>
        <time>2020-06-17T07:12:29Z</time>
      </trkpt>
      <trkpt lat="49.34214" lon="-0.74591">
        <ele>9</ele>
        <time>2020-06-17T07:12:30Z</time>
      </trkpt>
      <trkpt lat="49.34213" lon="-0.74583">
        <ele>9</ele>
        <time>2020-06-17T07:12:31Z</time>
      </trkpt>
      <trkpt lat="49.34211" lon="-0.74574">
        <ele>9</ele>
        <time>2020-06-17T07:12:32Z</time>
      </trkpt>
      <trkpt lat="49.3421" lon="-0.74566">
        <ele>9</ele>
        <time>2020-06-17T07:12:33Z</time>
      </trkpt>
      <trkpt lat="49.34208" lon="-0.74557">
        <ele>9</ele>
        <time>2020-06-17T07:12:34Z</time>
      </trkpt>
      <trkpt lat="49.34206" lon="-0.74548">
        <ele>9</ele>
        <time>2020-06-17T07:12:35Z</time>
      </trkpt>
      <trkpt lat="49.34204" lon="-0.7454">
        <ele>9</ele>
        <time>2020-06-17T07:12:36Z</time>
      </trkpt>
      <trkpt lat="49.34202" lon="-0.74532">
        <ele>9</ele>
        <time>2020-06-17T07:12:37Z</time>
      </trkpt>
      <trkpt lat="49.34201" lon="-0.74523">
        <ele>9</ele>
        <time>2020-06-17T07:12:38Z</time>
      </trkpt>
      <trkpt lat="49.34199" lon="-0.74516">
        <ele>9</ele>
        <time>2020-06-17T07:12:39Z</time>
      </trkpt>
      <trkpt lat="49.34197" lon="-0.74508">
        <ele>9</ele>
        <time>2020-06-17T07:12:40Z</time>
      </trkpt>
      <trkpt lat="49.34196" lon="-0.74499">
        <ele>9.1</ele>
        <time>2020-06-17T07:12:41Z</time>
      </trkpt>
      <trkpt lat="49.34194" lon="-0.74491">
        <ele>9.1</ele>
        <time>2020-06-17T07:12:42Z</time>
      </trkpt>
      <trkpt lat="49.34193" lon="-0.74483">
        <ele>9.2</ele>
        <time>2020-06-17T07:12:43Z</time>
      </trkpt>
      <trkpt lat="49.34191" lon="-0.74476">
        <ele>9.2</ele>
        <time>2020-06-17T07:12:44Z</time>
      </trkpt>
      <trkpt lat="49.34189" lon="-0.74468">
        <ele>9.2</ele>
        <time>2020-06-17T07:12:45Z</time>
      </trkpt>
      <trkpt lat="49.34187" lon="-0.74462">
        <ele>9.2</ele>
        <time>2020-06-17T07:12:46Z</time>
      </trkpt>
      <trkpt lat="49.34185" lon="-0.74454">
        <ele>9.3</ele>
        <time>2020-06-17T07:12:47Z</time>
      </trkpt>
      <trkpt lat="49.34184" lon="-0.74447">
        <ele>9.3</ele>
        <time>2020-06-17T07:12:48Z</time>
      </trkpt>
      <trkpt lat="49.34182" lon="-0.74439">
        <ele>9.3</ele>
        <time>2020-06-17T07:12:49Z</time>
      </trkpt>
      <trkpt lat="49.34179" lon="-0.74431">
        <ele>9.3</ele>
        <time>2020-06-17T07:12:50Z</time>
      </trkpt>
      <trkpt lat="49.34178" lon="-0.74424">
        <ele>9.2</ele>
        <time>2020-06-17T07:12:51Z</time>
      </trkpt>
      <trkpt lat="49.34176" lon="-0.74415">
        <ele>9.2</ele>
        <time>2020-06-17T07:12:52Z</time>
      </trkpt>
      <trkpt lat="49.34175" lon="-0.74408">
        <ele>9.2</ele>
        <time>2020-06-17T07:12:53Z</time>
      </trkpt>
      <trkpt lat="49.34173" lon="-0.74399">
        <ele>9.2</ele>
        <time>2020-06-17T07:12:54Z</time>
      </trkpt>
      <trkpt lat="49.34171" lon="-0.74391">
        <ele>9.2</ele>
        <time>2020-06-17T07:12:55Z</time>
      </trkpt>
      <trkpt lat="49.34169" lon="-0.74382">
        <ele>9.2</ele>
        <time>2020-06-17T07:12:56Z</time>
      </trkpt>
      <trkpt lat="49.34167" lon="-0.74373">
        <ele>9.2</ele>
        <time>2020-06-17T07:12:57Z</time>
      </trkpt>
      <trkpt lat="49.34165" lon="-0.74365">
        <ele>9.2</ele>
        <time>2020-06-17T07:12:58Z</time>
      </trkpt>
      <trkpt lat="49.34163" lon="-0.74356">
        <ele>9.3</ele>
        <time>2020-06-17T07:12:59Z</time>
      </trkpt>
      <trkpt lat="49.34162" lon="-0.74347">
        <ele>9.3</ele>
        <time>2020-06-17T07:13:00Z</time>
      </trkpt>
      <trkpt lat="49.3416" lon="-0.74339">
        <ele>9.4</ele>
        <time>2020-06-17T07:13:01Z</time>
      </trkpt>
      <trkpt lat="49.34157" lon="-0.7433">
        <ele>9.4</ele>
        <time>2020-06-17T07:13:02Z</time>
      </trkpt>
      <trkpt lat="49.34155" lon="-0.74322">
        <ele>9.5</ele>
        <time>2020-06-17T07:13:03Z</time>
      </trkpt>
      <trkpt lat="49.34152" lon="-0.74313">
        <ele>9.5</ele>
        <time>2020-06-17T07:13:04Z</time>
      </trkpt>
      <trkpt lat="49.3415" lon="-0.74305">
        <ele>9.6</ele>
        <time>2020-06-17T07:13:05Z</time>
      </trkpt>
      <trkpt lat="49.34148" lon="-0.74296">
        <ele>9.7</ele>
        <time>2020-06-17T07:13:06Z</time>
      </trkpt>
      <trkpt lat="49.34145" lon="-0.74288">
        <ele>9.7</ele>
        <time>2020-06-17T07:13:07Z</time>
      </trkpt>
      <trkpt lat="49.34143" lon="-0.74279">
        <ele>9.8</ele>
        <time>2020-06-17T07:13:08Z</time>
      </trkpt>
      <trkpt lat="49.3414" lon="-0.74272">
        <ele>9.9</ele>
        <time>2020-06-17T07:13:09Z</time>
      </trkpt>
      <trkpt lat="49.34138" lon="-0.74264">
        <ele>9.9</ele>
        <time>2020-06-17T07:13:10Z</time>
      </trkpt>
      <trkpt lat="49.34136" lon="-0.74256">
        <ele>10</ele>
        <time>2020-06-17T07:13:11Z</time>
      </trkpt>
      <trkpt lat="49.34134" lon="-0.74247">
        <ele>10.1</ele>
        <time>2020-06-17T07:13:12Z</time>
      </trkpt>
      <trkpt lat="49.34132" lon="-0.74239">
        <ele>10.2</ele>
        <time>2020-06-17T07:13:13Z</time>
      </trkpt>
      <trkpt lat="49.3413" lon="-0.74232">
        <ele>10.3</ele>
        <time>2020-06-17T07:13:14Z</time>
      </trkpt>
      <trkpt lat="49.34129" lon="-0.74224">
        <ele>10.4</ele>
        <time>2020-06-17T07:13:15Z</time>
      </trkpt>
      <trkpt lat="49.34127" lon="-0.74217">
        <ele>10.5</ele>
        <time>2020-06-17T07:13:16Z</time>
      </trkpt>
      <trkpt lat="49.34125" lon="-0.7421">
        <ele>10.6</ele>
        <time>2020-06-17T07:13:17Z</time>
      </trkpt>
      <trkpt lat="49.34122" lon="-0.74203">
        <ele>10.7</ele>
        <time>2020-06-17T07:13:18Z</time>
      </trkpt>
      <trkpt lat="49.3412" lon="-0.74195">
        <ele>10.7</ele>
        <time>2020-06-17T07:13:19Z</time>
      </trkpt>
      <trkpt lat="49.34117" lon="-0.74189">
        <ele>10.8</ele>
        <time>2020-06-17T07:13:20Z</time>
      </trkpt>
      <trkpt lat="49.34115" lon="-0.74182">
        <ele>10.9</ele>
        <time>2020-06-17T07:13:21Z</time>
      </trkpt>
      <trkpt lat="49.34111" lon="-0.74176">
        <ele>11</ele>
        <time>2020-06-17T07:13:22Z</time>
      </trkpt>
      <trkpt lat="49.34108" lon="-0.74171">
        <ele>11.1</ele>
        <time>2020-06-17T07:13:23Z</time>
      </trkpt>
      <trkpt lat="49.34104" lon="-0.74165">
        <ele>11.2</ele>
        <time>2020-06-17T07:13:24Z</time>
      </trkpt>
      <trkpt lat="49.341" lon="-0.7416">
        <ele>11.3</ele>
        <time>2020-06-17T07:13:25Z</time>
      </trkpt>
      <trkpt lat="49.34097" lon="-0.74154">
        <ele>11.4</ele>
        <time>2020-06-17T07:13:26Z</time>
      </trkpt>
      <trkpt lat="49.34093" lon="-0.74148">
        <ele>11.5</ele>
        <time>2020-06-17T07:13:27Z</time>
      </trkpt>
      <trkpt lat="49.34089" lon="-0.74142">
        <ele>11.6</ele>
        <time>2020-06-17T07:13:28Z</time>
      </trkpt>
      <trkpt lat="49.34086" lon="-0.74136">
        <ele>11.8</ele>
        <time>2020-06-17T07:13:29Z</time>
      </trkpt>
      <trkpt lat="49.34083" lon="-0.74131">
        <ele>11.9</ele>
        <time>2020-06-17T07:13:30Z</time>
      </trkpt>
      <trkpt lat="49.3408" lon="-0.74126">
        <ele>11.9</ele>
        <time>2020-06-17T07:13:31Z</time>
      </trkpt>
      <trkpt lat="49.34078" lon="-0.7412">
        <ele>12</ele>
        <time>2020-06-17T07:13:32Z</time>
      </trkpt>
      <trkpt lat="49.34075" lon="-0.74114">
        <ele>12.1</ele>
        <time>2020-06-17T07:13:33Z</time>
      </trkpt>
      <trkpt lat="49.34072" lon="-0.74109">
        <ele>12.2</ele>
        <time>2020-06-17T07:13:34Z</time>
      </trkpt>
      <trkpt lat="49.3407" lon="-0.74104">
        <ele>12.3</ele>
        <time>2020-06-17T07:13:35Z</time>
      </trkpt>
      <trkpt lat="49.34067" lon="-0.74099">
        <ele>12.4</ele>
        <time>2020-06-17T07:13:36Z</time>
      </trkpt>
      <trkpt lat="49.34064" lon="-0.74092">
        <ele>12.6</ele>
        <time>2020-06-17T07:13:37Z</time>
      </trkpt>
      <trkpt lat="49.34062" lon="-0.74087">
        <ele>12.7</ele>
        <time>2020-06-17T07:13:38Z</time>
      </trkpt>
      <trkpt lat="49.34059" lon="-0.7408">
        <ele>12.8</ele>
        <time>2020-06-17T07:13:39Z</time>
      </trkpt>
      <trkpt lat="49.34056" lon="-0.74074">
        <ele>12.9</ele>
        <time>2020-06-17T07:13:40Z</time>
      </trkpt>
      <trkpt lat="49.34054" lon="-0.74069">
        <ele>13</ele>
        <time>2020-06-17T07:13:41Z</time>
      </trkpt>
      <trkpt lat="49.34051" lon="-0.74064">
        <ele>13.1</ele>
        <time>2020-06-17T07:13:42Z</time>
      </trkpt>
      <trkpt lat="49.34049" lon="-0.74058">
        <ele>13.3</ele>
        <time>2020-06-17T07:13:43Z</time>
      </trkpt>
      <trkpt lat="49.34047" lon="-0.74053">
        <ele>13.4</ele>
        <time>2020-06-17T07:13:44Z</time>
      </trkpt>
      <trkpt lat="49.34045" lon="-0.74046">
        <ele>13.5</ele>
        <time>2020-06-17T07:13:45Z</time>
      </trkpt>
      <trkpt lat="49.34043" lon="-0.74041">
        <ele>13.6</ele>
        <time>2020-06-17T07:13:46Z</time>
      </trkpt>
      <trkpt lat="49.34041" lon="-0.74035">
        <ele>13.8</ele>
        <time>2020-06-17T07:13:47Z</time>
      </trkpt>
      <trkpt lat="49.34038" lon="-0.7403">
        <ele>13.9</ele>
        <time>2020-06-17T07:13:48Z</time>
      </trkpt>
      <trkpt lat="49.34036" lon="-0.74025">
        <ele>14</ele>
        <time>2020-06-17T07:13:49Z</time>
      </trkpt>
      <trkpt lat="49.34033" lon="-0.74019">
        <ele>14.2</ele>
        <time>2020-06-17T07:13:50Z</time>
      </trkpt>
      <trkpt lat="49.34031" lon="-0.74013">
        <ele>14.3</ele>
        <time>2020-06-17T07:13:51Z</time>
      </trkpt>
      <trkpt lat="49.34029" lon="-0.74006">
        <ele>14.5</ele>
        <time>2020-06-17T07:13:52Z</time>
      </trkpt>
      <trkpt lat="49.34027" lon="-0.74">
        <ele>14.7</ele>
        <time>2020-06-17T07:13:53Z</time>
      </trkpt>
      <trkpt lat="49.34024" lon="-0.73995">
        <ele>14.8</ele>
        <time>2020-06-17T07:13:54Z</time>
      </trkpt>
      <trkpt lat="49.34022" lon="-0.73988">
        <ele>15</ele>
        <time>2020-06-17T07:13:55Z</time>
      </trkpt>
      <trkpt lat="49.3402" lon="-0.73983">
        <ele>15.2</ele>
        <time>2020-06-17T07:13:56Z</time>
      </trkpt>
      <trkpt lat="49.34017" lon="-0.73978">
        <ele>15.4</ele>
        <time>2020-06-17T07:13:57Z</time>
      </trkpt>
      <trkpt lat="49.34014" lon="-0.73973">
        <ele>15.6</ele>
        <time>2020-06-17T07:13:58Z</time>
      </trkpt>
      <trkpt lat="49.34011" lon="-0.73967">
        <ele>15.7</ele>
        <time>2020-06-17T07:13:59Z</time>
      </trkpt>
      <trkpt lat="49.34008" lon="-0.73962">
        <ele>15.9</ele>
        <time>2020-06-17T07:14:00Z</time>
      </trkpt>
      <trkpt lat="49.34006" lon="-0.73956">
        <ele>16.1</ele>
        <time>2020-06-17T07:14:01Z</time>
      </trkpt>
      <trkpt lat="49.34003" lon="-0.73949">
        <ele>16.3</ele>
        <time>2020-06-17T07:14:02Z</time>
      </trkpt>
      <trkpt lat="49.34001" lon="-0.73943">
        <ele>16.5</ele>
        <time>2020-06-17T07:14:03Z</time>
      </trkpt>
      <trkpt lat="49.33998" lon="-0.73937">
        <ele>16.7</ele>
        <time>2020-06-17T07:14:04Z</time>
      </trkpt>
      <trkpt lat="49.33996" lon="-0.73931">
        <ele>16.9</ele>
        <time>2020-06-17T07:14:05Z</time>
      </trkpt>
      <trkpt lat="49.33994" lon="-0.73925">
        <ele>17.1</ele>
        <time>2020-06-17T07:14:06Z</time>
      </trkpt>
      <trkpt lat="49.33991" lon="-0.73919">
        <ele>17.3</ele>
        <time>2020-06-17T07:14:07Z</time>
      </trkpt>
      <trkpt lat="49.33989" lon="-0.73913">
        <ele>17.6</ele>
        <time>2020-06-17T07:14:08Z</time>
      </trkpt>
      <trkpt lat="49.33987" lon="-0.73907">
        <ele>17.8</ele>
        <time>2020-06-17T07:14:09Z</time>
      </trkpt>
      <trkpt lat="49.33985" lon="-0.739">
        <ele>18.1</ele>
        <time>2020-06-17T07:14:10Z</time>
      </trkpt>
      <trkpt lat="49.33983" lon="-0.73894">
        <ele>18.3</ele>
        <time>2020-06-17T07:14:11Z</time>
      </trkpt>
      <trkpt lat="49.33981" lon="-0.73889">
        <ele>18.5</ele>
        <time>2020-06-17T07:14:12Z</time>
      </trkpt>
      <trkpt lat="49.33978" lon="-0.73884">
        <ele>18.7</ele>
        <time>2020-06-17T07:14:13Z</time>
      </trkpt>
      <trkpt lat="49.33976" lon="-0.7388">
        <ele>18.9</ele>
        <time>2020-06-17T07:14:14Z</time>
      </trkpt>
      <trkpt lat="49.33973" lon="-0.73874">
        <ele>19.2</ele>
        <time>2020-06-17T07:14:15Z</time>
      </trkpt>
      <trkpt lat="49.33971" lon="-0.73868">
        <ele>19.4</ele>
        <time>2020-06-17T07:14:16Z</time>
      </trkpt>
      <trkpt lat="49.33968" lon="-0.73863">
        <ele>19.7</ele>
        <time>2020-06-17T07:14:17Z</time>
      </trkpt>
      <trkpt lat="49.33966" lon="-0.73858">
        <ele>19.9</ele>
        <time>2020-06-17T07:14:18Z</time>
      </trkpt>
      <trkpt lat="49.33964" lon="-0.73853">
        <ele>20.1</ele>
        <time>2020-06-17T07:14:19Z</time>
      </trkpt>
      <trkpt lat="49.33962" lon="-0.73847">
        <ele>20.3</ele>
        <time>2020-06-17T07:14:20Z</time>
      </trkpt>
      <trkpt lat="49.33961" lon="-0.73843">
        <ele>20.5</ele>
        <time>2020-06-17T07:14:21Z</time>
      </trkpt>
      <trkpt lat="49.33959" lon="-0.73838">
        <ele>20.7</ele>
        <time>2020-06-17T07:14:22Z</time>
      </trkpt>
      <trkpt lat="49.33957" lon="-0.73833">
        <ele>20.8</ele>
        <time>2020-06-17T07:14:23Z</time>
      </trkpt>
      <trkpt lat="49.33955" lon="-0.73827">
        <ele>21</ele>
        <time>2020-06-17T07:14:24Z</time>
      </trkpt>
      <trkpt lat="49.33953" lon="-0.73822">
        <ele>21.2</ele>
        <time>2020-06-17T07:14:25Z</time>
      </trkpt>
      <trkpt lat="49.33951" lon="-0.73816">
        <ele>21.4</ele>
        <time>2020-06-17T07:14:26Z</time>
      </trkpt>
      <trkpt lat="49.33949" lon="-0.73811">
        <ele>21.6</ele>
        <time>2020-06-17T07:14:27Z</time>
      </trkpt>
      <trkpt lat="49.33947" lon="-0.73805">
        <ele>21.8</ele>
        <time>2020-06-17T07:14:28Z</time>
      </trkpt>
      <trkpt lat="49.33945" lon="-0.73798">
        <ele>22</ele>
        <time>2020-06-17T07:14:29Z</time>
      </trkpt>
      <trkpt lat="49.33943" lon="-0.73793">
        <ele>22.2</ele>
        <time>2020-06-17T07:14:30Z</time>
      </trkpt>
      <trkpt lat="49.33942" lon="-0.73789">
        <ele>22.3</ele>
        <time>2020-06-17T07:14:31Z</time>
      </trkpt>
      <trkpt lat="49.3394" lon="-0.73785">
        <ele>22.4</ele>
        <time>2020-06-17T07:14:32Z</time>
      </trkpt>
      <trkpt lat="49.33937" lon="-0.7378">
        <ele>22.4</ele>
        <time>2020-06-17T07:14:33Z</time>
      </trkpt>
      <trkpt lat="49.33935" lon="-0.73775">
        <ele>22.5</ele>
        <time>2020-06-17T07:14:34Z</time>
      </trkpt>
      <trkpt lat="49.33933" lon="-0.7377">
        <ele>22.5</ele>
        <time>2020-06-17T07:14:35Z</time>
      </trkpt>
      <trkpt lat="49.33931" lon="-0.73766">
        <ele>22.5</ele>
        <time>2020-06-17T07:14:36Z</time>
      </trkpt>
      <trkpt lat="49.33929" lon="-0.7376">
        <ele>22.7</ele>
        <time>2020-06-17T07:14:37Z</time>
      </trkpt>
      <trkpt lat="49.33927" lon="-0.73754">
        <ele>22.8</ele>
        <time>2020-06-17T07:14:38Z</time>
      </trkpt>
      <trkpt lat="49.33925" lon="-0.73749">
        <ele>22.9</ele>
        <time>2020-06-17T07:14:39Z</time>
      </trkpt>
      <trkpt lat="49.33923" lon="-0.73744">
        <ele>23</ele>
        <time>2020-06-17T07:14:40Z</time>
      </trkpt>
      <trkpt lat="49.3392" lon="-0.73739">
        <ele>23.1</ele>
        <time>2020-06-17T07:14:41Z</time>
      </trkpt>
      <trkpt lat="49.33917" lon="-0.73734">
        <ele>23.2</ele>
        <time>2020-06-17T07:14:42Z</time>
      </trkpt>
      <trkpt lat="49.33914" lon="-0.73729">
        <ele>23.2</ele>
        <time>2020-06-17T07:14:43Z</time>
      </trkpt>
      <trkpt lat="49.3391" lon="-0.73724">
        <ele>23.3</ele>
        <time>2020-06-17T07:14:44Z</time>
      </trkpt>
      <trkpt lat="49.33906" lon="-0.7372">
        <ele>23.4</ele>
        <time>2020-06-17T07:14:45Z</time>
      </trkpt>
      <trkpt lat="49.33901" lon="-0.73715">
        <ele>23.4</ele>
        <time>2020-06-17T07:14:46Z</time>
      </trkpt>
      <trkpt lat="49.33897" lon="-0.73711">
        <ele>23.5</ele>
        <time>2020-06-17T07:14:47Z</time>
      </trkpt>
      <trkpt lat="49.33893" lon="-0.73707">
        <ele>23.5</ele>
        <time>2020-06-17T07:14:48Z</time>
      </trkpt>
      <trkpt lat="49.3389" lon="-0.73702">
        <ele>23.6</ele>
        <time>2020-06-17T07:14:49Z</time>
      </trkpt>
      <trkpt lat="49.33886" lon="-0.73698">
        <ele>23.6</ele>
        <time>2020-06-17T07:14:50Z</time>
      </trkpt>
      <trkpt lat="49.33882" lon="-0.73694">
        <ele>23.7</ele>
        <time>2020-06-17T07:14:51Z</time>
      </trkpt>
      <trkpt lat="49.33878" lon="-0.7369">
        <ele>23.7</ele>
        <time>2020-06-17T07:14:52Z</time>
      </trkpt>
      <trkpt lat="49.33874" lon="-0.73686">
        <ele>23.8</ele>
        <time>2020-06-17T07:14:53Z</time>
      </trkpt>
      <trkpt lat="49.3387" lon="-0.73683">
        <ele>23.8</ele>
        <time>2020-06-17T07:14:54Z</time>
      </trkpt>
      <trkpt lat="49.33865" lon="-0.73681">
        <ele>23.9</ele>
        <time>2020-06-17T07:14:55Z</time>
      </trkpt>
      <trkpt lat="49.33861" lon="-0.73678">
        <ele>23.9</ele>
        <time>2020-06-17T07:14:56Z</time>
      </trkpt>
      <trkpt lat="49.33857" lon="-0.73677">
        <ele>23.9</ele>
        <time>2020-06-17T07:14:57Z</time>
      </trkpt>
      <trkpt lat="49.33853" lon="-0.73676">
        <ele>24</ele>
        <time>2020-06-17T07:14:58Z</time>
      </trkpt>
      <trkpt lat="49.33849" lon="-0.73676">
        <ele>24</ele>
        <time>2020-06-17T07:14:59Z</time>
      </trkpt>
      <trkpt lat="49.33844" lon="-0.73674">
        <ele>24.1</ele>
        <time>2020-06-17T07:15:00Z</time>
      </trkpt>
      <trkpt lat="49.3384" lon="-0.73675">
        <ele>24.1</ele>
        <time>2020-06-17T07:15:01Z</time>
      </trkpt>
      <trkpt lat="49.33837" lon="-0.73675">
        <ele>24.1</ele>
        <time>2020-06-17T07:15:02Z</time>
      </trkpt>
      <trkpt lat="49.33833" lon="-0.73677">
        <ele>24.2</ele>
        <time>2020-06-17T07:15:03Z</time>
      </trkpt>
      <trkpt lat="49.33831" lon="-0.7368">
        <ele>24.2</ele>
        <time>2020-06-17T07:15:04Z</time>
      </trkpt>
      <trkpt lat="49.33827" lon="-0.73682">
        <ele>24.3</ele>
        <time>2020-06-17T07:15:05Z</time>
      </trkpt>
      <trkpt lat="49.33823" lon="-0.73684">
        <ele>24.4</ele>
        <time>2020-06-17T07:15:06Z</time>
      </trkpt>
      <trkpt lat="49.33818" lon="-0.73687">
        <ele>24.5</ele>
        <time>2020-06-17T07:15:07Z</time>
      </trkpt>
      <trkpt lat="49.33813" lon="-0.7369">
        <ele>24.6</ele>
        <time>2020-06-17T07:15:08Z</time>
      </trkpt>
      <trkpt lat="49.33807" lon="-0.73692">
        <ele>24.8</ele>
        <time>2020-06-17T07:15:09Z</time>
      </trkpt>
      <trkpt lat="49.33802" lon="-0.73695">
        <ele>24.9</ele>
        <time>2020-06-17T07:15:10Z</time>
      </trkpt>
      <trkpt lat="49.33798" lon="-0.73697">
        <ele>25</ele>
        <time>2020-06-17T07:15:11Z</time>
      </trkpt>
      <trkpt lat="49.33794" lon="-0.73699">
        <ele>25.2</ele>
        <time>2020-06-17T07:15:12Z</time>
      </trkpt>
      <trkpt lat="49.33789" lon="-0.737">
        <ele>25.3</ele>
        <time>2020-06-17T07:15:13Z</time>
      </trkpt>
      <trkpt lat="49.33784" lon="-0.737">
        <ele>25.4</ele>
        <time>2020-06-17T07:15:14Z</time>
      </trkpt>
      <trkpt lat="49.3378" lon="-0.737">
        <ele>25.6</ele>
        <time>2020-06-17T07:15:15Z</time>
      </trkpt>
      <trkpt lat="49.33776" lon="-0.737">
        <ele>25.7</ele>
        <time>2020-06-17T07:15:16Z</time>
      </trkpt>
      <trkpt lat="49.33771" lon="-0.73701">
        <ele>25.9</ele>
        <time>2020-06-17T07:15:17Z</time>
      </trkpt>
      <trkpt lat="49.33767" lon="-0.73703">
        <ele>26</ele>
        <time>2020-06-17T07:15:18Z</time>
      </trkpt>
      <trkpt lat="49.33762" lon="-0.73704">
        <ele>26.2</ele>
        <time>2020-06-17T07:15:19Z</time>
      </trkpt>
      <trkpt lat="49.33757" lon="-0.73706">
        <ele>26.4</ele>
        <time>2020-06-17T07:15:20Z</time>
      </trkpt>
      <trkpt lat="49.33753" lon="-0.73709">
        <ele>26.5</ele>
        <time>2020-06-17T07:15:21Z</time>
      </trkpt>
      <trkpt lat="49.33749" lon="-0.73712">
        <ele>26.7</ele>
        <time>2020-06-17T07:15:22Z</time>
      </trkpt>
      <trkpt lat="49.33745" lon="-0.73714">
        <ele>26.9</ele>
        <time>2020-06-17T07:15:23Z</time>
      </trkpt>
      <trkpt lat="49.3374" lon="-0.73716">
        <ele>27.2</ele>
        <time>2020-06-17T07:15:24Z</time>
      </trkpt>
      <trkpt lat="49.33736" lon="-0.73717">
        <ele>27.4</ele>
        <time>2020-06-17T07:15:25Z</time>
      </trkpt>
      <trkpt lat="49.33733" lon="-0.73718">
        <ele>27.6</ele>
        <time>2020-06-17T07:15:26Z</time>
      </trkpt>
      <trkpt lat="49.33729" lon="-0.7372">
        <ele>27.8</ele>
        <time>2020-06-17T07:15:27Z</time>
      </trkpt>
      <trkpt lat="49.33725" lon="-0.73721">
        <ele>28.1</ele>
        <time>2020-06-17T07:15:28Z</time>
      </trkpt>
      <trkpt lat="49.33722" lon="-0.73723">
        <ele>28.3</ele>
        <time>2020-06-17T07:15:29Z</time>
      </trkpt>
      <trkpt lat="49.33718" lon="-0.73726">
        <ele>28.5</ele>
        <time>2020-06-17T07:15:30Z</time>
      </trkpt>
      <trkpt lat="49.33715" lon="-0.73728">
        <ele>28.8</ele>
        <time>2020-06-17T07:15:31Z</time>
      </trkpt>
      <trkpt lat="49.33712" lon="-0.73728">
        <ele>29</ele>
        <time>2020-06-17T07:15:32Z</time>
      </trkpt>
      <trkpt lat="49.33708" lon="-0.73729">
        <ele>29.2</ele>
        <time>2020-06-17T07:15:33Z</time>
      </trkpt>
      <trkpt lat="49.33706" lon="-0.73729">
        <ele>29.3</ele>
        <time>2020-06-17T07:15:34Z</time>
      </trkpt>
      <trkpt lat="49.33703" lon="-0.7373">
        <ele>29.6</ele>
        <time>2020-06-17T07:15:35Z</time>
      </trkpt>
      <trkpt lat="49.33699" lon="-0.7373">
        <ele>29.8</ele>
        <time>2020-06-17T07:15:36Z</time>
      </trkpt>
      <trkpt lat="49.33695" lon="-0.73731">
        <ele>30.1</ele>
        <time>2020-06-17T07:15:37Z</time>
      </trkpt>
      <trkpt lat="49.33694" lon="-0.73731">
        <ele>30.2</ele>
        <time>2020-06-17T07:15:38Z</time>
      </trkpt>
      <trkpt lat="49.33691" lon="-0.73732">
        <ele>30.4</ele>
        <time>2020-06-17T07:15:39Z</time>
      </trkpt>
      <trkpt lat="49.33687" lon="-0.73733">
        <ele>30.7</ele>
        <time>2020-06-17T07:15:40Z</time>
      </trkpt>
      <trkpt lat="49.33684" lon="-0.73733">
        <ele>30.9</ele>
        <time>2020-06-17T07:15:41Z</time>
      </trkpt>
      <trkpt lat="49.33681" lon="-0.73735">
        <ele>31.1</ele>
        <time>2020-06-17T07:15:42Z</time>
      </trkpt>
      <trkpt lat="49.33679" lon="-0.73737">
        <ele>31.3</ele>
        <time>2020-06-17T07:15:43Z</time>
      </trkpt>
      <trkpt lat="49.33676" lon="-0.73739">
        <ele>31.6</ele>
        <time>2020-06-17T07:15:44Z</time>
      </trkpt>
      <trkpt lat="49.33673" lon="-0.7374">
        <ele>31.8</ele>
        <time>2020-06-17T07:15:45Z</time>
      </trkpt>
      <trkpt lat="49.33669" lon="-0.7374">
        <ele>32.1</ele>
        <time>2020-06-17T07:15:46Z</time>
      </trkpt>
      <trkpt lat="49.33666" lon="-0.73741">
        <ele>32.3</ele>
        <time>2020-06-17T07:15:47Z</time>
      </trkpt>
      <trkpt lat="49.33663" lon="-0.73741">
        <ele>32.6</ele>
        <time>2020-06-17T07:15:48Z</time>
      </trkpt>
      <trkpt lat="49.33659" lon="-0.73742">
        <ele>32.8</ele>
        <time>2020-06-17T07:15:49Z</time>
      </trkpt>
      <trkpt lat="49.33656" lon="-0.73743">
        <ele>33.1</ele>
        <time>2020-06-17T07:15:50Z</time>
      </trkpt>
      <trkpt lat="49.33653" lon="-0.73743">
        <ele>33.3</ele>
        <time>2020-06-17T07:15:51Z</time>
      </trkpt>
      <trkpt lat="49.3365" lon="-0.73743">
        <ele>33.5</ele>
        <time>2020-06-17T07:15:52Z</time>
      </trkpt>
      <trkpt lat="49.33648" lon="-0.7374">
        <ele>33.7</ele>
        <time>2020-06-17T07:15:53Z</time>
      </trkpt>
      <trkpt lat="49.33645" lon="-0.73737">
        <ele>34</ele>
        <time>2020-06-17T07:15:54Z</time>
      </trkpt>
      <trkpt lat="49.33644" lon="-0.73736">
        <ele>34.1</ele>
        <time>2020-06-17T07:15:55Z</time>
      </trkpt>
      <trkpt lat="49.33641" lon="-0.73731">
        <ele>34.6</ele>
        <time>2020-06-17T07:15:56Z</time>
      </trkpt>
      <trkpt lat="49.33641" lon="-0.73729">
        <ele>34.7</ele>
        <time>2020-06-17T07:15:57Z</time>
      </trkpt>
      <trkpt lat="49.3364" lon="-0.73724">
        <ele>35</ele>
        <time>2020-06-17T07:15:58Z</time>
      </trkpt>
      <trkpt lat="49.33639" lon="-0.73722">
        <ele>35.1</ele>
        <time>2020-06-17T07:15:59Z</time>
      </trkpt>
      <trkpt lat="49.33638" lon="-0.73717">
        <ele>35.3</ele>
        <time>2020-06-17T07:16:00Z</time>
      </trkpt>
      <trkpt lat="49.33637" lon="-0.73713">
        <ele>35.6</ele>
        <time>2020-06-17T07:16:01Z</time>
      </trkpt>
      <trkpt lat="49.33636" lon="-0.73709">
        <ele>35.8</ele>
        <time>2020-06-17T07:16:02Z</time>
      </trkpt>
      <trkpt lat="49.33635" lon="-0.73704">
        <ele>36.1</ele>
        <time>2020-06-17T07:16:03Z</time>
      </trkpt>
      <trkpt lat="49.33635" lon="-0.73702">
        <ele>36.2</ele>
        <time>2020-06-17T07:16:04Z</time>
      </trkpt>
      <trkpt lat="49.33635" lon="-0.73697">
        <ele>36.4</ele>
        <time>2020-06-17T07:16:05Z</time>
      </trkpt>
      <trkpt lat="49.33635" lon="-0.73693">
        <ele>36.6</ele>
        <time>2020-06-17T07:16:06Z</time>
      </trkpt>
      <trkpt lat="49.33636" lon="-0.73687">
        <ele>37</ele>
        <time>2020-06-17T07:16:07Z</time>
      </trkpt>
      <trkpt lat="49.33636" lon="-0.73685">
        <ele>37.1</ele>
        <time>2020-06-17T07:16:08Z</time>
      </trkpt>
      <trkpt lat="49.33637" lon="-0.73679">
        <ele>37.4</ele>
        <time>2020-06-17T07:16:09Z</time>
      </trkpt>
      <trkpt lat="49.33637" lon="-0.73677">
        <ele>37.5</ele>
        <time>2020-06-17T07:16:10Z</time>
      </trkpt>
      <trkpt lat="49.33638" lon="-0.73671">
        <ele>37.8</ele>
        <time>2020-06-17T07:16:11Z</time>
      </trkpt>
      <trkpt lat="49.33639" lon="-0.73669">
        <ele>37.9</ele>
        <time>2020-06-17T07:16:12Z</time>
      </trkpt>
      <trkpt lat="49.33639" lon="-0.73664">
        <ele>38.2</ele>
        <time>2020-06-17T07:16:13Z</time>
      </trkpt>
      <trkpt lat="49.3364" lon="-0.73662">
        <ele>38.3</ele>
        <time>2020-06-17T07:16:14Z</time>
      </trkpt>
      <trkpt lat="49.33642" lon="-0.73657">
        <ele>38.6</ele>
        <time>2020-06-17T07:16:15Z</time>
      </trkpt>
      <trkpt lat="49.33642" lon="-0.73656">
        <ele>38.7</ele>
        <time>2020-06-17T07:16:16Z</time>
      </trkpt>
      <trkpt lat="49.33644" lon="-0.73652">
        <ele>38.9</ele>
        <time>2020-06-17T07:16:17Z</time>
      </trkpt>
      <trkpt lat="49.33645" lon="-0.73651">
        <ele>39</ele>
        <time>2020-06-17T07:16:18Z</time>
      </trkpt>
      <trkpt lat="49.33647" lon="-0.73647">
        <ele>39.2</ele>
        <time>2020-06-17T07:16:19Z</time>
      </trkpt>
      <trkpt lat="49.33647" lon="-0.73646">
        <ele>39.3</ele>
        <time>2020-06-17T07:16:20Z</time>
      </trkpt>
      <trkpt lat="49.33649" lon="-0.73641">
        <ele>39.5</ele>
        <time>2020-06-17T07:16:21Z</time>
      </trkpt>
      <trkpt lat="49.3365" lon="-0.7364">
        <ele>39.6</ele>
        <time>2020-06-17T07:16:22Z</time>
      </trkpt>
      <trkpt lat="49.33652" lon="-0.73635">
        <ele>39.8</ele>
        <time>2020-06-17T07:16:23Z</time>
      </trkpt>
      <trkpt lat="49.33652" lon="-0.73634">
        <ele>39.9</ele>
        <time>2020-06-17T07:16:24Z</time>
      </trkpt>
      <trkpt lat="49.33654" lon="-0.7363">
        <ele>40.1</ele>
        <time>2020-06-17T07:16:25Z</time>
      </trkpt>
      <trkpt lat="49.33655" lon="-0.73629">
        <ele>40.2</ele>
        <time>2020-06-17T07:16:26Z</time>
      </trkpt>
      <trkpt lat="49.33657" lon="-0.73624">
        <ele>40.5</ele>
        <time>2020-06-17T07:16:27Z</time>
      </trkpt>
      <trkpt lat="49.33658" lon="-0.73623">
        <ele>40.5</ele>
        <time>2020-06-17T07:16:28Z</time>
      </trkpt>
      <trkpt lat="49.3366" lon="-0.7362">
        <ele>40.7</ele>
        <time>2020-06-17T07:16:29Z</time>
      </trkpt>
      <trkpt lat="49.33663" lon="-0.73618">
        <ele>40.9</ele>
        <time>2020-06-17T07:16:30Z</time>
      </trkpt>
      <trkpt lat="49.33665" lon="-0.73614">
        <ele>41.2</ele>
        <time>2020-06-17T07:16:31Z</time>
      </trkpt>
      <trkpt lat="49.33666" lon="-0.73612">
        <ele>41.2</ele>
        <time>2020-06-17T07:16:32Z</time>
      </trkpt>
      <trkpt lat="49.33669" lon="-0.73608">
        <ele>41.5</ele>
        <time>2020-06-17T07:16:33Z</time>
      </trkpt>
      <trkpt lat="49.3367" lon="-0.73607">
        <ele>41.6</ele>
        <time>2020-06-17T07:16:34Z</time>
      </trkpt>
      <trkpt lat="49.33672" lon="-0.73604">
        <ele>41.8</ele>
        <time>2020-06-17T07:16:35Z</time>
      </trkpt>
      <trkpt lat="49.33674" lon="-0.736">
        <ele>42</ele>
        <time>2020-06-17T07:16:36Z</time>
      </trkpt>
      <trkpt lat="49.33675" lon="-0.73599">
        <ele>42</ele>
        <time>2020-06-17T07:16:37Z</time>
      </trkpt>
      <trkpt lat="49.33677" lon="-0.73595">
        <ele>42.3</ele>
        <time>2020-06-17T07:16:38Z</time>
      </trkpt>
      <trkpt lat="49.33677" lon="-0.73594">
        <ele>42.3</ele>
        <time>2020-06-17T07:16:39Z</time>
      </trkpt>
      <trkpt lat="49.33679" lon="-0.7359">
        <ele>42.6</ele>
        <time>2020-06-17T07:16:40Z</time>
      </trkpt>
      <trkpt lat="49.3368" lon="-0.73589">
        <ele>42.6</ele>
        <time>2020-06-17T07:16:41Z</time>
      </trkpt>
      <trkpt lat="49.33682" lon="-0.73585">
        <ele>42.9</ele>
        <time>2020-06-17T07:16:42Z</time>
      </trkpt>
      <trkpt lat="49.33683" lon="-0.73584">
        <ele>42.9</ele>
        <time>2020-06-17T07:16:43Z</time>
      </trkpt>
      <trkpt lat="49.33685" lon="-0.7358">
        <ele>43.2</ele>
        <time>2020-06-17T07:16:44Z</time>
      </trkpt>
      <trkpt lat="49.33686" lon="-0.73578">
        <ele>43.3</ele>
        <time>2020-06-17T07:16:45Z</time>
      </trkpt>
      <trkpt lat="49.33687" lon="-0.73574">
        <ele>43.5</ele>
        <time>2020-06-17T07:16:46Z</time>
      </trkpt>
      <trkpt lat="49.33688" lon="-0.73572">
        <ele>43.6</ele>
        <time>2020-06-17T07:16:47Z</time>
      </trkpt>
      <trkpt lat="49.3369" lon="-0.73567">
        <ele>43.9</ele>
        <time>2020-06-17T07:16:48Z</time>
      </trkpt>
      <trkpt lat="49.3369" lon="-0.73565">
        <ele>44</ele>
        <time>2020-06-17T07:16:49Z</time>
      </trkpt>
      <trkpt lat="49.33692" lon="-0.73559">
        <ele>44.3</ele>
        <time>2020-06-17T07:16:50Z</time>
      </trkpt>
      <trkpt lat="49.33692" lon="-0.73557">
        <ele>44.4</ele>
        <time>2020-06-17T07:16:51Z</time>
      </trkpt>
      <trkpt lat="49.33693" lon="-0.73551">
        <ele>44.7</ele>
        <time>2020-06-17T07:16:52Z</time>
      </trkpt>
      <trkpt lat="49.33693" lon="-0.73549">
        <ele>44.8</ele>
        <time>2020-06-17T07:16:53Z</time>
      </trkpt>
      <trkpt lat="49.33694" lon="-0.73545">
        <ele>45</ele>
        <time>2020-06-17T07:16:54Z</time>
      </trkpt>
      <trkpt lat="49.33694" lon="-0.73544">
        <ele>45.1</ele>
        <time>2020-06-17T07:16:55Z</time>
      </trkpt>
      <trkpt lat="49.33695" lon="-0.73541">
        <ele>45.3</ele>
        <time>2020-06-17T07:16:56Z</time>
      </trkpt>
      <trkpt lat="49.33697" lon="-0.7354">
        <ele>45.4</ele>
        <time>2020-06-17T07:16:57Z</time>
      </trkpt>
      <trkpt lat="49.33699" lon="-0.73536">
        <ele>45.6</ele>
        <time>2020-06-17T07:16:58Z</time>
      </trkpt>
      <trkpt lat="49.33699" lon="-0.73535">
        <ele>45.6</ele>
        <time>2020-06-17T07:16:59Z</time>
      </trkpt>
      <trkpt lat="49.33702" lon="-0.73531">
        <ele>45.8</ele>
        <time>2020-06-17T07:17:00Z</time>
      </trkpt>
      <trkpt lat="49.33702" lon="-0.7353">
        <ele>45.9</ele>
        <time>2020-06-17T07:17:01Z</time>
      </trkpt>
      <trkpt lat="49.33703" lon="-0.73526">
        <ele>46.4</ele>
        <time>2020-06-17T07:17:02Z</time>
      </trkpt>
      <trkpt lat="49.33704" lon="-0.73522">
        <ele>46.8</ele>
        <time>2020-06-17T07:17:03Z</time>
      </trkpt>
      <trkpt lat="49.33705" lon="-0.73518">
        <ele>47.1</ele>
        <time>2020-06-17T07:17:04Z</time>
      </trkpt>
      <trkpt lat="49.33706" lon="-0.73514">
        <ele>47.5</ele>
        <time>2020-06-17T07:17:05Z</time>
      </trkpt>
      <trkpt lat="49.33708" lon="-0.7351">
        <ele>48</ele>
        <time>2020-06-17T07:17:06Z</time>
      </trkpt>
      <trkpt lat="49.33709" lon="-0.73505">
        <ele>48.5</ele>
        <time>2020-06-17T07:17:07Z</time>
      </trkpt>
      <trkpt lat="49.3371" lon="-0.735">
        <ele>48.9</ele>
        <time>2020-06-17T07:17:08Z</time>
      </trkpt>
      <trkpt lat="49.3371" lon="-0.73498">
        <ele>49.1</ele>
        <time>2020-06-17T07:17:09Z</time>
      </trkpt>
      <trkpt lat="49.3371" lon="-0.73494">
        <ele>49.5</ele>
        <time>2020-06-17T07:17:10Z</time>
      </trkpt>
      <trkpt lat="49.3371" lon="-0.73493">
        <ele>49.7</ele>
        <time>2020-06-17T07:17:11Z</time>
      </trkpt>
      <trkpt lat="49.3371" lon="-0.7349">
        <ele>49.9</ele>
        <time>2020-06-17T07:17:12Z</time>
      </trkpt>
      <trkpt lat="49.3371" lon="-0.73488">
        <ele>50.1</ele>
        <time>2020-06-17T07:17:13Z</time>
      </trkpt>
      <trkpt lat="49.3371" lon="-0.73485">
        <ele>50.6</ele>
        <time>2020-06-17T07:17:14Z</time>
      </trkpt>
      <trkpt lat="49.3371" lon="-0.73483">
        <ele>50.6</ele>
        <time>2020-06-17T07:17:15Z</time>
      </trkpt>
      <trkpt lat="49.3371" lon="-0.73479">
        <ele>50.7</ele>
        <time>2020-06-17T07:17:16Z</time>
      </trkpt>
      <trkpt lat="49.33711" lon="-0.73477">
        <ele>50.8</ele>
        <time>2020-06-17T07:17:17Z</time>
      </trkpt>
      <trkpt lat="49.33711" lon="-0.73475">
        <ele>50.8</ele>
        <time>2020-06-17T07:17:18Z</time>
      </trkpt>
      <trkpt lat="49.33711" lon="-0.73473">
        <ele>50.9</ele>
        <time>2020-06-17T07:17:19Z</time>
      </trkpt>
      <trkpt lat="49.3371" lon="-0.73469">
        <ele>51</ele>
        <time>2020-06-17T07:17:20Z</time>
      </trkpt>
      <trkpt lat="49.3371" lon="-0.73467">
        <ele>51.4</ele>
        <time>2020-06-17T07:17:21Z</time>
      </trkpt>
      <trkpt lat="49.33708" lon="-0.73463">
        <ele>51.8</ele>
        <time>2020-06-17T07:17:22Z</time>
      </trkpt>
      <trkpt lat="49.33708" lon="-0.73461">
        <ele>51.9</ele>
        <time>2020-06-17T07:17:23Z</time>
      </trkpt>
      <trkpt lat="49.33706" lon="-0.73457">
        <ele>52.2</ele>
        <time>2020-06-17T07:17:24Z</time>
      </trkpt>
      <trkpt lat="49.33705" lon="-0.73452">
        <ele>52.5</ele>
        <time>2020-06-17T07:17:25Z</time>
      </trkpt>
      <trkpt lat="49.33704" lon="-0.73448">
        <ele>52.8</ele>
        <time>2020-06-17T07:17:26Z</time>
      </trkpt>
      <trkpt lat="49.33703" lon="-0.73444">
        <ele>53.1</ele>
        <time>2020-06-17T07:17:27Z</time>
      </trkpt>
      <trkpt lat="49.33702" lon="-0.73439">
        <ele>53.5</ele>
        <time>2020-06-17T07:17:28Z</time>
      </trkpt>
      <trkpt lat="49.33701" lon="-0.73435">
        <ele>53.7</ele>
        <time>2020-06-17T07:17:29Z</time>
      </trkpt>
      <trkpt lat="49.33701" lon="-0.73431">
        <ele>54</ele>
        <time>2020-06-17T07:17:30Z</time>
      </trkpt>
      <trkpt lat="49.337" lon="-0.73425">
        <ele>54.4</ele>
        <time>2020-06-17T07:17:31Z</time>
      </trkpt>
      <trkpt lat="49.337" lon="-0.73424">
        <ele>54.5</ele>
        <time>2020-06-17T07:17:32Z</time>
      </trkpt>
      <trkpt lat="49.337" lon="-0.73419">
        <ele>54.7</ele>
        <time>2020-06-17T07:17:33Z</time>
      </trkpt>
      <trkpt lat="49.33699" lon="-0.73413">
        <ele>55.1</ele>
        <time>2020-06-17T07:17:34Z</time>
      </trkpt>
      <trkpt lat="49.33699" lon="-0.73411">
        <ele>55.2</ele>
        <time>2020-06-17T07:17:35Z</time>
      </trkpt>
      <trkpt lat="49.33698" lon="-0.73407">
        <ele>55.5</ele>
        <time>2020-06-17T07:17:36Z</time>
      </trkpt>
      <trkpt lat="49.33697" lon="-0.73401">
        <ele>55.9</ele>
        <time>2020-06-17T07:17:37Z</time>
      </trkpt>
      <trkpt lat="49.33697" lon="-0.73399">
        <ele>56</ele>
        <time>2020-06-17T07:17:38Z</time>
      </trkpt>
      <trkpt lat="49.33697" lon="-0.73393">
        <ele>56.3</ele>
        <time>2020-06-17T07:17:39Z</time>
      </trkpt>
      <trkpt lat="49.33697" lon="-0.73391">
        <ele>56.5</ele>
        <time>2020-06-17T07:17:40Z</time>
      </trkpt>
      <trkpt lat="49.33696" lon="-0.73386">
        <ele>56.7</ele>
        <time>2020-06-17T07:17:41Z</time>
      </trkpt>
      <trkpt lat="49.33695" lon="-0.73382">
        <ele>56.9</ele>
        <time>2020-06-17T07:17:42Z</time>
      </trkpt>
      <trkpt lat="49.33695" lon="-0.73376">
        <ele>57.3</ele>
        <time>2020-06-17T07:17:43Z</time>
      </trkpt>
      <trkpt lat="49.33694" lon="-0.73374">
        <ele>57.4</ele>
        <time>2020-06-17T07:17:44Z</time>
      </trkpt>
      <trkpt lat="49.33694" lon="-0.73369">
        <ele>57.6</ele>
        <time>2020-06-17T07:17:45Z</time>
      </trkpt>
      <trkpt lat="49.33694" lon="-0.73364">
        <ele>57.8</ele>
        <time>2020-06-17T07:17:46Z</time>
      </trkpt>
      <trkpt lat="49.33693" lon="-0.73358">
        <ele>58.2</ele>
        <time>2020-06-17T07:17:47Z</time>
      </trkpt>
      <trkpt lat="49.33694" lon="-0.73351">
        <ele>58.6</ele>
        <time>2020-06-17T07:17:48Z</time>
      </trkpt>
      <trkpt lat="49.33695" lon="-0.73345">
        <ele>58.9</ele>
        <time>2020-06-17T07:17:49Z</time>
      </trkpt>
      <trkpt lat="49.33696" lon="-0.73339">
        <ele>59.3</ele>
        <time>2020-06-17T07:17:50Z</time>
      </trkpt>
      <trkpt lat="49.33697" lon="-0.73333">
        <ele>59.6</ele>
        <time>2020-06-17T07:17:51Z</time>
      </trkpt>
      <trkpt lat="49.33696" lon="-0.73328">
        <ele>59.9</ele>
        <time>2020-06-17T07:17:52Z</time>
      </trkpt>
      <trkpt lat="49.33697" lon="-0.73322">
        <ele>60.2</ele>
        <time>2020-06-17T07:17:53Z</time>
      </trkpt>
      <trkpt lat="49.33697" lon="-0.73317">
        <ele>60.5</ele>
        <time>2020-06-17T07:17:54Z</time>
      </trkpt>
      <trkpt lat="49.33697" lon="-0.73311">
        <ele>60.9</ele>
        <time>2020-06-17T07:17:55Z</time>
      </trkpt>
      <trkpt lat="49.33697" lon="-0.73304">
        <ele>61.2</ele>
        <time>2020-06-17T07:17:56Z</time>
      </trkpt>
      <trkpt lat="49.33696" lon="-0.73299">
        <ele>61.4</ele>
        <time>2020-06-17T07:17:57Z</time>
      </trkpt>
      <trkpt lat="49.33696" lon="-0.73294">
        <ele>61.7</ele>
        <time>2020-06-17T07:17:58Z</time>
      </trkpt>
      <trkpt lat="49.33696" lon="-0.73289">
        <ele>62</ele>
        <time>2020-06-17T07:17:59Z</time>
      </trkpt>
      <trkpt lat="49.33696" lon="-0.73283">
        <ele>62.2</ele>
        <time>2020-06-17T07:18:00Z</time>
      </trkpt>
      <trkpt lat="49.33696" lon="-0.73276">
        <ele>62.5</ele>
        <time>2020-06-17T07:18:01Z</time>
      </trkpt>
      <trkpt lat="49.33697" lon="-0.73269">
        <ele>62.9</ele>
        <time>2020-06-17T07:18:02Z</time>
      </trkpt>
      <trkpt lat="49.33696" lon="-0.73261">
        <ele>63.1</ele>
        <time>2020-06-17T07:18:03Z</time>
      </trkpt>
      <trkpt lat="49.33696" lon="-0.73255">
        <ele>63.4</ele>
        <time>2020-06-17T07:18:04Z</time>
      </trkpt>
      <trkpt lat="49.33696" lon="-0.73249">
        <ele>63.6</ele>
        <time>2020-06-17T07:18:05Z</time>
      </trkpt>
      <trkpt lat="49.33695" lon="-0.73243">
        <ele>63.8</ele>
        <time>2020-06-17T07:18:06Z</time>
      </trkpt>
      <trkpt lat="49.33695" lon="-0.73236">
        <ele>63.9</ele>
        <time>2020-06-17T07:18:07Z</time>
      </trkpt>
      <trkpt lat="49.33695" lon="-0.73228">
        <ele>64</ele>
        <time>2020-06-17T07:18:08Z</time>
      </trkpt>
      <trkpt lat="49.33694" lon="-0.73219">
        <ele>64.1</ele>
        <time>2020-06-17T07:18:09Z</time>
      </trkpt>
      <trkpt lat="49.33694" lon="-0.73211">
        <ele>64.3</ele>
        <time>2020-06-17T07:18:10Z</time>
      </trkpt>
      <trkpt lat="49.33693" lon="-0.73204">
        <ele>64.3</ele>
        <time>2020-06-17T07:18:11Z</time>
      </trkpt>
      <trkpt lat="49.33692" lon="-0.73197">
        <ele>64.4</ele>
        <time>2020-06-17T07:18:12Z</time>
      </trkpt>
      <trkpt lat="49.33691" lon="-0.73191">
        <ele>64.5</ele>
        <time>2020-06-17T07:18:13Z</time>
      </trkpt>
      <trkpt lat="49.3369" lon="-0.73184">
        <ele>64.7</ele>
        <time>2020-06-17T07:18:14Z</time>
      </trkpt>
      <trkpt lat="49.3369" lon="-0.73177">
        <ele>64.8</ele>
        <time>2020-06-17T07:18:15Z</time>
      </trkpt>
      <trkpt lat="49.33689" lon="-0.7317">
        <ele>64.9</ele>
        <time>2020-06-17T07:18:16Z</time>
      </trkpt>
      <trkpt lat="49.33688" lon="-0.73163">
        <ele>65</ele>
        <time>2020-06-17T07:18:17Z</time>
      </trkpt>
      <trkpt lat="49.33687" lon="-0.73157">
        <ele>65.1</ele>
        <time>2020-06-17T07:18:18Z</time>
      </trkpt>
      <trkpt lat="49.33687" lon="-0.7315">
        <ele>65.1</ele>
        <time>2020-06-17T07:18:19Z</time>
      </trkpt>
      <trkpt lat="49.33686" lon="-0.73143">
        <ele>65.2</ele>
        <time>2020-06-17T07:18:20Z</time>
      </trkpt>
      <trkpt lat="49.33685" lon="-0.73137">
        <ele>65.2</ele>
        <time>2020-06-17T07:18:21Z</time>
      </trkpt>
      <trkpt lat="49.33684" lon="-0.73131">
        <ele>65.3</ele>
        <time>2020-06-17T07:18:22Z</time>
      </trkpt>
      <trkpt lat="49.33683" lon="-0.73124">
        <ele>65.3</ele>
        <time>2020-06-17T07:18:23Z</time>
      </trkpt>
      <trkpt lat="49.33682" lon="-0.73117">
        <ele>65.3</ele>
        <time>2020-06-17T07:18:24Z</time>
      </trkpt>
      <trkpt lat="49.33681" lon="-0.73111">
        <ele>65.4</ele>
        <time>2020-06-17T07:18:25Z</time>
      </trkpt>
      <trkpt lat="49.33681" lon="-0.73104">
        <ele>65.4</ele>
        <time>2020-06-17T07:18:26Z</time>
      </trkpt>
      <trkpt lat="49.3368" lon="-0.73097">
        <ele>65.5</ele>
        <time>2020-06-17T07:18:27Z</time>
      </trkpt>
      <trkpt lat="49.33679" lon="-0.73091">
        <ele>65.5</ele>
        <time>2020-06-17T07:18:28Z</time>
      </trkpt>
      <trkpt lat="49.33679" lon="-0.73086">
        <ele>65.6</ele>
        <time>2020-06-17T07:18:29Z</time>
      </trkpt>
      <trkpt lat="49.33678" lon="-0.73081">
        <ele>65.6</ele>
        <time>2020-06-17T07:18:30Z</time>
      </trkpt>
      <trkpt lat="49.33678" lon="-0.73076">
        <ele>65.7</ele>
        <time>2020-06-17T07:18:31Z</time>
      </trkpt>
      <trkpt lat="49.33677" lon="-0.7307">
        <ele>65.7</ele>
        <time>2020-06-17T07:18:32Z</time>
      </trkpt>
      <trkpt lat="49.33677" lon="-0.73065">
        <ele>65.7</ele>
        <time>2020-06-17T07:18:33Z</time>
      </trkpt>
      <trkpt lat="49.33676" lon="-0.73061">
        <ele>65.8</ele>
        <time>2020-06-17T07:18:34Z</time>
      </trkpt>
      <trkpt lat="49.33675" lon="-0.73056">
        <ele>65.8</ele>
        <time>2020-06-17T07:18:35Z</time>
      </trkpt>
      <trkpt lat="49.33675" lon="-0.7305">
        <ele>65.8</ele>
        <time>2020-06-17T07:18:36Z</time>
      </trkpt>
      <trkpt lat="49.33675" lon="-0.73045">
        <ele>65.9</ele>
        <time>2020-06-17T07:18:37Z</time>
      </trkpt>
      <trkpt lat="49.33675" lon="-0.73039">
        <ele>65.9</ele>
        <time>2020-06-17T07:18:38Z</time>
      </trkpt>
      <trkpt lat="49.33675" lon="-0.73033">
        <ele>66</ele>
        <time>2020-06-17T07:18:39Z</time>
      </trkpt>
      <trkpt lat="49.33675" lon="-0.73026">
        <ele>66</ele>
        <time>2020-06-17T07:18:40Z</time>
      </trkpt>
      <trkpt lat="49.33675" lon="-0.7302">
        <ele>66.1</ele>
        <time>2020-06-17T07:18:41Z</time>
      </trkpt>
      <trkpt lat="49.33675" lon="-0.73012">
        <ele>66.1</ele>
        <time>2020-06-17T07:18:42Z</time>
      </trkpt>
      <trkpt lat="49.33675" lon="-0.73004">
        <ele>66.2</ele>
        <time>2020-06-17T07:18:43Z</time>
      </trkpt>
      <trkpt lat="49.33676" lon="-0.72997">
        <ele>66.2</ele>
        <time>2020-06-17T07:18:44Z</time>
      </trkpt>
      <trkpt lat="49.33676" lon="-0.72989">
        <ele>66.2</ele>
        <time>2020-06-17T07:18:45Z</time>
      </trkpt>
      <trkpt lat="49.33677" lon="-0.72981">
        <ele>66.2</ele>
        <time>2020-06-17T07:18:46Z</time>
      </trkpt>
      <trkpt lat="49.33677" lon="-0.72973">
        <ele>66.2</ele>
        <time>2020-06-17T07:18:47Z</time>
      </trkpt>
      <trkpt lat="49.33677" lon="-0.72965">
        <ele>66.3</ele>
        <time>2020-06-17T07:18:48Z</time>
      </trkpt>
      <trkpt lat="49.33678" lon="-0.72957">
        <ele>66.3</ele>
        <time>2020-06-17T07:18:49Z</time>
      </trkpt>
      <trkpt lat="49.33678" lon="-0.72949">
        <ele>66.3</ele>
        <time>2020-06-17T07:18:50Z</time>
      </trkpt>
      <trkpt lat="49.33678" lon="-0.7294">
        <ele>66.3</ele>
        <time>2020-06-17T07:18:51Z</time>
      </trkpt>
      <trkpt lat="49.33678" lon="-0.72931">
        <ele>66.3</ele>
        <time>2020-06-17T07:18:52Z</time>
      </trkpt>
      <trkpt lat="49.33678" lon="-0.72923">
        <ele>66.3</ele>
        <time>2020-06-17T07:18:53Z</time>
      </trkpt>
      <trkpt lat="49.33678" lon="-0.72914">
        <ele>66.3</ele>
        <time>2020-06-17T07:18:54Z</time>
      </trkpt>
      <trkpt lat="49.33677" lon="-0.72906">
        <ele>66.3</ele>
        <time>2020-06-17T07:18:55Z</time>
      </trkpt>
      <trkpt lat="49.33676" lon="-0.72898">
        <ele>66.3</ele>
        <time>2020-06-17T07:18:56Z</time>
      </trkpt>
      <trkpt lat="49.33676" lon="-0.7289">
        <ele>66.3</ele>
        <time>2020-06-17T07:18:57Z</time>
      </trkpt>
      <trkpt lat="49.33676" lon="-0.72883">
        <ele>66.3</ele>
        <time>2020-06-17T07:18:58Z</time>
      </trkpt>
      <trkpt lat="49.33675" lon="-0.72875">
        <ele>66.3</ele>
        <time>2020-06-17T07:18:59Z</time>
      </trkpt>
      <trkpt lat="49.33675" lon="-0.72867">
        <ele>66.3</ele>
        <time>2020-06-17T07:19:00Z</time>
      </trkpt>
      <trkpt lat="49.33675" lon="-0.72859">
        <ele>66.3</ele>
        <time>2020-06-17T07:19:01Z</time>
      </trkpt>
      <trkpt lat="49.33675" lon="-0.72851">
        <ele>66.3</ele>
        <time>2020-06-17T07:19:02Z</time>
      </trkpt>
      <trkpt lat="49.33675" lon="-0.72843">
        <ele>66.4</ele>
        <time>2020-06-17T07:19:03Z</time>
      </trkpt>
      <trkpt lat="49.33676" lon="-0.72835">
        <ele>66.4</ele>
        <time>2020-06-17T07:19:04Z</time>
      </trkpt>
      <trkpt lat="49.33676" lon="-0.72828">
        <ele>66.4</ele>
        <time>2020-06-17T07:19:05Z</time>
      </trkpt>
      <trkpt lat="49.33676" lon="-0.72821">
        <ele>66.4</ele>
        <time>2020-06-17T07:19:06Z</time>
      </trkpt>
      <trkpt lat="49.33677" lon="-0.72814">
        <ele>66.5</ele>
        <time>2020-06-17T07:19:07Z</time>
      </trkpt>
      <trkpt lat="49.33677" lon="-0.72807">
        <ele>66.5</ele>
        <time>2020-06-17T07:19:08Z</time>
      </trkpt>
      <trkpt lat="49.33678" lon="-0.728">
        <ele>66.6</ele>
        <time>2020-06-17T07:19:09Z</time>
      </trkpt>
      <trkpt lat="49.33679" lon="-0.72793">
        <ele>66.5</ele>
        <time>2020-06-17T07:19:10Z</time>
      </trkpt>
      <trkpt lat="49.3368" lon="-0.72785">
        <ele>66.5</ele>
        <time>2020-06-17T07:19:11Z</time>
      </trkpt>
      <trkpt lat="49.33681" lon="-0.72778">
        <ele>66.5</ele>
        <time>2020-06-17T07:19:12Z</time>
      </trkpt>
      <trkpt lat="49.33682" lon="-0.72769">
        <ele>66.6</ele>
        <time>2020-06-17T07:19:13Z</time>
      </trkpt>
      <trkpt lat="49.33682" lon="-0.72762">
        <ele>66.6</ele>
        <time>2020-06-17T07:19:14Z</time>
      </trkpt>
      <trkpt lat="49.33683" lon="-0.72754">
        <ele>66.6</ele>
        <time>2020-06-17T07:19:15Z</time>
      </trkpt>
      <trkpt lat="49.33684" lon="-0.72746">
        <ele>66.6</ele>
        <time>2020-06-17T07:19:16Z</time>
      </trkpt>
      <trkpt lat="49.33685" lon="-0.72738">
        <ele>66.7</ele>
        <time>2020-06-17T07:19:17Z</time>
      </trkpt>
      <trkpt lat="49.33685" lon="-0.72729">
        <ele>66.7</ele>
        <time>2020-06-17T07:19:18Z</time>
      </trkpt>
      <trkpt lat="49.33686" lon="-0.72722">
        <ele>66.7</ele>
        <time>2020-06-17T07:19:19Z</time>
      </trkpt>
      <trkpt lat="49.33687" lon="-0.72714">
        <ele>66.7</ele>
        <time>2020-06-17T07:19:20Z</time>
      </trkpt>
      <trkpt lat="49.33687" lon="-0.72706">
        <ele>66.7</ele>
        <time>2020-06-17T07:19:21Z</time>
      </trkpt>
      <trkpt lat="49.33687" lon="-0.72699">
        <ele>66.7</ele>
        <time>2020-06-17T07:19:22Z</time>
      </trkpt>
      <trkpt lat="49.33688" lon="-0.72692">
        <ele>66.7</ele>
        <time>2020-06-17T07:19:23Z</time>
      </trkpt>
      <trkpt lat="49.33688" lon="-0.72685">
        <ele>66.7</ele>
        <time>2020-06-17T07:19:24Z</time>
      </trkpt>
      <trkpt lat="49.33688" lon="-0.72679">
        <ele>66.7</ele>
        <time>2020-06-17T07:19:25Z</time>
      </trkpt>
      <trkpt lat="49.33688" lon="-0.72672">
        <ele>66.7</ele>
        <time>2020-06-17T07:19:26Z</time>
      </trkpt>
      <trkpt lat="49.33688" lon="-0.72665">
        <ele>66.8</ele>
        <time>2020-06-17T07:19:27Z</time>
      </trkpt>
      <trkpt lat="49.33688" lon="-0.72657">
        <ele>66.8</ele>
        <time>2020-06-17T07:19:28Z</time>
      </trkpt>
      <trkpt lat="49.33688" lon="-0.7265">
        <ele>66.8</ele>
        <time>2020-06-17T07:19:29Z</time>
      </trkpt>
      <trkpt lat="49.33688" lon="-0.72642">
        <ele>66.8</ele>
        <time>2020-06-17T07:19:30Z</time>
      </trkpt>
      <trkpt lat="49.33689" lon="-0.72633">
        <ele>66.8</ele>
        <time>2020-06-17T07:19:31Z</time>
      </trkpt>
      <trkpt lat="49.3369" lon="-0.72625">
        <ele>66.8</ele>
        <time>2020-06-17T07:19:32Z</time>
      </trkpt>
      <trkpt lat="49.33692" lon="-0.72616">
        <ele>66.8</ele>
        <time>2020-06-17T07:19:33Z</time>
      </trkpt>
      <trkpt lat="49.33694" lon="-0.72609">
        <ele>66.8</ele>
        <time>2020-06-17T07:19:34Z</time>
      </trkpt>
      <trkpt lat="49.33696" lon="-0.72603">
        <ele>66.8</ele>
        <time>2020-06-17T07:19:35Z</time>
      </trkpt>
      <trkpt lat="49.33697" lon="-0.72596">
        <ele>66.8</ele>
        <time>2020-06-17T07:19:36Z</time>
      </trkpt>
      <trkpt lat="49.33699" lon="-0.72589">
        <ele>66.9</ele>
        <time>2020-06-17T07:19:37Z</time>
      </trkpt>
      <trkpt lat="49.33702" lon="-0.72582">
        <ele>66.9</ele>
        <time>2020-06-17T07:19:38Z</time>
      </trkpt>
      <trkpt lat="49.33705" lon="-0.72576">
        <ele>66.9</ele>
        <time>2020-06-17T07:19:39Z</time>
      </trkpt>
      <trkpt lat="49.33708" lon="-0.72569">
        <ele>66.9</ele>
        <time>2020-06-17T07:19:40Z</time>
      </trkpt>
      <trkpt lat="49.3371" lon="-0.72563">
        <ele>66.9</ele>
        <time>2020-06-17T07:19:41Z</time>
      </trkpt>
      <trkpt lat="49.33711" lon="-0.72558">
        <ele>66.9</ele>
        <time>2020-06-17T07:19:42Z</time>
      </trkpt>
      <trkpt lat="49.33713" lon="-0.72552">
        <ele>67</ele>
        <time>2020-06-17T07:19:43Z</time>
      </trkpt>
      <trkpt lat="49.33714" lon="-0.72546">
        <ele>67</ele>
        <time>2020-06-17T07:19:44Z</time>
      </trkpt>
      <trkpt lat="49.33716" lon="-0.72541">
        <ele>67</ele>
        <time>2020-06-17T07:19:45Z</time>
      </trkpt>
      <trkpt lat="49.33718" lon="-0.72536">
        <ele>67</ele>
        <time>2020-06-17T07:19:46Z</time>
      </trkpt>
      <trkpt lat="49.3372" lon="-0.72532">
        <ele>67</ele>
        <time>2020-06-17T07:19:47Z</time>
      </trkpt>
      <trkpt lat="49.33722" lon="-0.72527">
        <ele>67</ele>
        <time>2020-06-17T07:19:48Z</time>
      </trkpt>
      <trkpt lat="49.33724" lon="-0.72522">
        <ele>67</ele>
        <time>2020-06-17T07:19:49Z</time>
      </trkpt>
      <trkpt lat="49.33726" lon="-0.72515">
        <ele>67</ele>
        <time>2020-06-17T07:19:50Z</time>
      </trkpt>
      <trkpt lat="49.33729" lon="-0.72508">
        <ele>67</ele>
        <time>2020-06-17T07:19:51Z</time>
      </trkpt>
      <trkpt lat="49.33732" lon="-0.72501">
        <ele>67</ele>
        <time>2020-06-17T07:19:52Z</time>
      </trkpt>
      <trkpt lat="49.33734" lon="-0.72492">
        <ele>67</ele>
        <time>2020-06-17T07:19:53Z</time>
      </trkpt>
      <trkpt lat="49.33737" lon="-0.72484">
        <ele>67</ele>
        <time>2020-06-17T07:19:54Z</time>
      </trkpt>
      <trkpt lat="49.33739" lon="-0.72473">
        <ele>67</ele>
        <time>2020-06-17T07:19:55Z</time>
      </trkpt>
      <trkpt lat="49.3374" lon="-0.72463">
        <ele>67</ele>
        <time>2020-06-17T07:19:56Z</time>
      </trkpt>
      <trkpt lat="49.33742" lon="-0.72453">
        <ele>67</ele>
        <time>2020-06-17T07:19:57Z</time>
      </trkpt>
      <trkpt lat="49.33743" lon="-0.72443">
        <ele>67</ele>
        <time>2020-06-17T07:19:58Z</time>
      </trkpt>
      <trkpt lat="49.33745" lon="-0.72434">
        <ele>67</ele>
        <time>2020-06-17T07:19:59Z</time>
      </trkpt>
      <trkpt lat="49.33746" lon="-0.72423">
        <ele>67</ele>
        <time>2020-06-17T07:20:00Z</time>
      </trkpt>
      <trkpt lat="49.33748" lon="-0.72415">
        <ele>67</ele>
        <time>2020-06-17T07:20:01Z</time>
      </trkpt>
      <trkpt lat="49.33749" lon="-0.72406">
        <ele>67</ele>
        <time>2020-06-17T07:20:02Z</time>
      </trkpt>
      <trkpt lat="49.33751" lon="-0.72396">
        <ele>67</ele>
        <time>2020-06-17T07:20:03Z</time>
      </trkpt>
      <trkpt lat="49.33754" lon="-0.72386">
        <ele>67</ele>
        <time>2020-06-17T07:20:04Z</time>
      </trkpt>
      <trkpt lat="49.33755" lon="-0.72377">
        <ele>67.1</ele>
        <time>2020-06-17T07:20:05Z</time>
      </trkpt>
      <trkpt lat="49.33757" lon="-0.72368">
        <ele>67.1</ele>
        <time>2020-06-17T07:20:06Z</time>
      </trkpt>
      <trkpt lat="49.33758" lon="-0.7236">
        <ele>67.2</ele>
        <time>2020-06-17T07:20:07Z</time>
      </trkpt>
      <trkpt lat="49.3376" lon="-0.72352">
        <ele>67.2</ele>
        <time>2020-06-17T07:20:08Z</time>
      </trkpt>
      <trkpt lat="49.33762" lon="-0.72344">
        <ele>67.3</ele>
        <time>2020-06-17T07:20:09Z</time>
      </trkpt>
      <trkpt lat="49.33764" lon="-0.72337">
        <ele>67.3</ele>
        <time>2020-06-17T07:20:10Z</time>
      </trkpt>
      <trkpt lat="49.33766" lon="-0.7233">
        <ele>67.4</ele>
        <time>2020-06-17T07:20:11Z</time>
      </trkpt>
      <trkpt lat="49.33767" lon="-0.72322">
        <ele>67.4</ele>
        <time>2020-06-17T07:20:12Z</time>
      </trkpt>
      <trkpt lat="49.33769" lon="-0.72314">
        <ele>67.5</ele>
        <time>2020-06-17T07:20:13Z</time>
      </trkpt>
      <trkpt lat="49.3377" lon="-0.72307">
        <ele>67.5</ele>
        <time>2020-06-17T07:20:14Z</time>
      </trkpt>
      <trkpt lat="49.3377" lon="-0.723">
        <ele>67.5</ele>
        <time>2020-06-17T07:20:15Z</time>
      </trkpt>
      <trkpt lat="49.33771" lon="-0.72293">
        <ele>67.6</ele>
        <time>2020-06-17T07:20:16Z</time>
      </trkpt>
      <trkpt lat="49.33773" lon="-0.72287">
        <ele>67.6</ele>
        <time>2020-06-17T07:20:17Z</time>
      </trkpt>
      <trkpt lat="49.33774" lon="-0.72279">
        <ele>67.6</ele>
        <time>2020-06-17T07:20:18Z</time>
      </trkpt>
      <trkpt lat="49.33776" lon="-0.72272">
        <ele>67.6</ele>
        <time>2020-06-17T07:20:19Z</time>
      </trkpt>
      <trkpt lat="49.33777" lon="-0.72265">
        <ele>67.7</ele>
        <time>2020-06-17T07:20:20Z</time>
      </trkpt>
      <trkpt lat="49.33779" lon="-0.72257">
        <ele>67.8</ele>
        <time>2020-06-17T07:20:21Z</time>
      </trkpt>
      <trkpt lat="49.33781" lon="-0.72249">
        <ele>67.8</ele>
        <time>2020-06-17T07:20:22Z</time>
      </trkpt>
      <trkpt lat="49.33782" lon="-0.72241">
        <ele>67.8</ele>
        <time>2020-06-17T07:20:23Z</time>
      </trkpt>
      <trkpt lat="49.33783" lon="-0.72234">
        <ele>67.9</ele>
        <time>2020-06-17T07:20:24Z</time>
      </trkpt>
      <trkpt lat="49.33784" lon="-0.72225">
        <ele>67.9</ele>
        <time>2020-06-17T07:20:25Z</time>
      </trkpt>
      <trkpt lat="49.33785" lon="-0.72217">
        <ele>68</ele>
        <time>2020-06-17T07:20:26Z</time>
      </trkpt>
      <trkpt lat="49.33786" lon="-0.72208">
        <ele>68</ele>
        <time>2020-06-17T07:20:27Z</time>
      </trkpt>
      <trkpt lat="49.33787" lon="-0.72198">
        <ele>68.1</ele>
        <time>2020-06-17T07:20:28Z</time>
      </trkpt>
      <trkpt lat="49.3379" lon="-0.72191">
        <ele>68.1</ele>
        <time>2020-06-17T07:20:29Z</time>
      </trkpt>
      <trkpt lat="49.33791" lon="-0.72183">
        <ele>68.2</ele>
        <time>2020-06-17T07:20:30Z</time>
      </trkpt>
      <trkpt lat="49.33793" lon="-0.72174">
        <ele>68.3</ele>
        <time>2020-06-17T07:20:31Z</time>
      </trkpt>
      <trkpt lat="49.33795" lon="-0.72166">
        <ele>68.3</ele>
        <time>2020-06-17T07:20:32Z</time>
      </trkpt>
      <trkpt lat="49.33797" lon="-0.72158">
        <ele>68.4</ele>
        <time>2020-06-17T07:20:33Z</time>
      </trkpt>
      <trkpt lat="49.33799" lon="-0.7215">
        <ele>68.5</ele>
        <time>2020-06-17T07:20:34Z</time>
      </trkpt>
      <trkpt lat="49.338" lon="-0.72143">
        <ele>68.5</ele>
        <time>2020-06-17T07:20:35Z</time>
      </trkpt>
      <trkpt lat="49.33802" lon="-0.72136">
        <ele>68.6</ele>
        <time>2020-06-17T07:20:36Z</time>
      </trkpt>
      <trkpt lat="49.33805" lon="-0.7213">
        <ele>68.7</ele>
        <time>2020-06-17T07:20:37Z</time>
      </trkpt>
      <trkpt lat="49.33807" lon="-0.72124">
        <ele>68.8</ele>
        <time>2020-06-17T07:20:38Z</time>
      </trkpt>
      <trkpt lat="49.33808" lon="-0.72119">
        <ele>68.9</ele>
        <time>2020-06-17T07:20:39Z</time>
      </trkpt>
      <trkpt lat="49.3381" lon="-0.72113">
        <ele>69</ele>
        <time>2020-06-17T07:20:40Z</time>
      </trkpt>
      <trkpt lat="49.33812" lon="-0.72108">
        <ele>69.1</ele>
        <time>2020-06-17T07:20:41Z</time>
      </trkpt>
      <trkpt lat="49.33813" lon="-0.72102">
        <ele>69.2</ele>
        <time>2020-06-17T07:20:42Z</time>
      </trkpt>
      <trkpt lat="49.33815" lon="-0.72097">
        <ele>69.3</ele>
        <time>2020-06-17T07:20:43Z</time>
      </trkpt>
      <trkpt lat="49.33816" lon="-0.72093">
        <ele>69.4</ele>
        <time>2020-06-17T07:20:44Z</time>
      </trkpt>
      <trkpt lat="49.33817" lon="-0.72089">
        <ele>69.4</ele>
        <time>2020-06-17T07:20:45Z</time>
      </trkpt>
      <trkpt lat="49.33818" lon="-0.72085">
        <ele>69.5</ele>
        <time>2020-06-17T07:20:46Z</time>
      </trkpt>
      <trkpt lat="49.3382" lon="-0.72078">
        <ele>69.6</ele>
        <time>2020-06-17T07:20:47Z</time>
      </trkpt>
      <trkpt lat="49.33823" lon="-0.72073">
        <ele>69.7</ele>
        <time>2020-06-17T07:20:48Z</time>
      </trkpt>
      <trkpt lat="49.33824" lon="-0.72069">
        <ele>69.8</ele>
        <time>2020-06-17T07:20:49Z</time>
      </trkpt>
      <trkpt lat="49.33825" lon="-0.72068">
        <ele>69.9</ele>
        <time>2020-06-17T07:20:50Z</time>
      </trkpt>
      <trkpt lat="49.33827" lon="-0.72063">
        <ele>70</ele>
        <time>2020-06-17T07:20:51Z</time>
      </trkpt>
      <trkpt lat="49.33827" lon="-0.72061">
        <ele>70</ele>
        <time>2020-06-17T07:20:52Z</time>
      </trkpt>
      <trkpt lat="49.3383" lon="-0.7206">
        <ele>70.1</ele>
        <time>2020-06-17T07:20:53Z</time>
      </trkpt>
      <trkpt lat="49.33831" lon="-0.7206">
        <ele>70.1</ele>
        <time>2020-06-17T07:20:54Z</time>
      </trkpt>
      <trkpt lat="49.33835" lon="-0.7206">
        <ele>70.2</ele>
        <time>2020-06-17T07:20:55Z</time>
      </trkpt>
      <trkpt lat="49.33836" lon="-0.7206">
        <ele>70.2</ele>
        <time>2020-06-17T07:20:56Z</time>
      </trkpt>
      <trkpt lat="49.33839" lon="-0.72062">
        <ele>70.3</ele>
        <time>2020-06-17T07:20:57Z</time>
      </trkpt>
      <trkpt lat="49.3384" lon="-0.72063">
        <ele>70.4</ele>
        <time>2020-06-17T07:20:58Z</time>
      </trkpt>
      <trkpt lat="49.33844" lon="-0.72064">
        <ele>70.5</ele>
        <time>2020-06-17T07:20:59Z</time>
      </trkpt>
      <trkpt lat="49.33845" lon="-0.72063">
        <ele>70.5</ele>
        <time>2020-06-17T07:21:00Z</time>
      </trkpt>
      <trkpt lat="49.33848" lon="-0.72062">
        <ele>70.6</ele>
        <time>2020-06-17T07:21:01Z</time>
      </trkpt>
      <trkpt lat="49.3385" lon="-0.72061">
        <ele>70.7</ele>
        <time>2020-06-17T07:21:02Z</time>
      </trkpt>
      <trkpt lat="49.33853" lon="-0.72062">
        <ele>70.7</ele>
        <time>2020-06-17T07:21:03Z</time>
      </trkpt>
      <trkpt lat="49.33854" lon="-0.72061">
        <ele>70.8</ele>
        <time>2020-06-17T07:21:04Z</time>
      </trkpt>
      <trkpt lat="49.33857" lon="-0.72061">
        <ele>70.9</ele>
        <time>2020-06-17T07:21:05Z</time>
      </trkpt>
      <trkpt lat="49.33858" lon="-0.72061">
        <ele>70.9</ele>
        <time>2020-06-17T07:21:06Z</time>
      </trkpt>
      <trkpt lat="49.33862" lon="-0.7206">
        <ele>71</ele>
        <time>2020-06-17T07:21:07Z</time>
      </trkpt>
      <trkpt lat="49.33863" lon="-0.7206">
        <ele>71.1</ele>
        <time>2020-06-17T07:21:08Z</time>
      </trkpt>
      <trkpt lat="49.33867" lon="-0.72059">
        <ele>71.2</ele>
        <time>2020-06-17T07:21:09Z</time>
      </trkpt>
      <trkpt lat="49.33871" lon="-0.72057">
        <ele>71.3</ele>
        <time>2020-06-17T07:21:10Z</time>
      </trkpt>
      <trkpt lat="49.33874" lon="-0.72055">
        <ele>71.4</ele>
        <time>2020-06-17T07:21:11Z</time>
      </trkpt>
      <trkpt lat="49.33877" lon="-0.72053">
        <ele>71.5</ele>
        <time>2020-06-17T07:21:12Z</time>
      </trkpt>
      <trkpt lat="49.3388" lon="-0.7205">
        <ele>71.6</ele>
        <time>2020-06-17T07:21:13Z</time>
      </trkpt>
      <trkpt lat="49.33882" lon="-0.72046">
        <ele>71.7</ele>
        <time>2020-06-17T07:21:14Z</time>
      </trkpt>
      <trkpt lat="49.33884" lon="-0.72042">
        <ele>71.8</ele>
        <time>2020-06-17T07:21:15Z</time>
      </trkpt>
      <trkpt lat="49.33887" lon="-0.72037">
        <ele>71.9</ele>
        <time>2020-06-17T07:21:16Z</time>
      </trkpt>
      <trkpt lat="49.3389" lon="-0.72031">
        <ele>72.1</ele>
        <time>2020-06-17T07:21:17Z</time>
      </trkpt>
      <trkpt lat="49.33892" lon="-0.72024">
        <ele>72.2</ele>
        <time>2020-06-17T07:21:18Z</time>
      </trkpt>
      <trkpt lat="49.33895" lon="-0.72017">
        <ele>72.3</ele>
        <time>2020-06-17T07:21:19Z</time>
      </trkpt>
      <trkpt lat="49.33897" lon="-0.7201">
        <ele>72.4</ele>
        <time>2020-06-17T07:21:20Z</time>
      </trkpt>
      <trkpt lat="49.33899" lon="-0.72004">
        <ele>72.5</ele>
        <time>2020-06-17T07:21:21Z</time>
      </trkpt>
      <trkpt lat="49.33899" lon="-0.71997">
        <ele>72.5</ele>
        <time>2020-06-17T07:21:22Z</time>
      </trkpt>
      <trkpt lat="49.33898" lon="-0.7199">
        <ele>72.6</ele>
        <time>2020-06-17T07:21:23Z</time>
      </trkpt>
      <trkpt lat="49.33898" lon="-0.71984">
        <ele>72.7</ele>
        <time>2020-06-17T07:21:24Z</time>
      </trkpt>
      <trkpt lat="49.33899" lon="-0.71977">
        <ele>72.7</ele>
        <time>2020-06-17T07:21:25Z</time>
      </trkpt>
      <trkpt lat="49.339" lon="-0.71971">
        <ele>72.8</ele>
        <time>2020-06-17T07:21:26Z</time>
      </trkpt>
      <trkpt lat="49.33901" lon="-0.71965">
        <ele>72.8</ele>
        <time>2020-06-17T07:21:27Z</time>
      </trkpt>
      <trkpt lat="49.33902" lon="-0.71959">
        <ele>72.9</ele>
        <time>2020-06-17T07:21:28Z</time>
      </trkpt>
      <trkpt lat="49.33904" lon="-0.71951">
        <ele>73</ele>
        <time>2020-06-17T07:21:29Z</time>
      </trkpt>
      <trkpt lat="49.33904" lon="-0.71942">
        <ele>73.1</ele>
        <time>2020-06-17T07:21:30Z</time>
      </trkpt>
      <trkpt lat="49.33904" lon="-0.71933">
        <ele>73.1</ele>
        <time>2020-06-17T07:21:31Z</time>
      </trkpt>
      <trkpt lat="49.33905" lon="-0.71926">
        <ele>73.2</ele>
        <time>2020-06-17T07:21:32Z</time>
      </trkpt>
      <trkpt lat="49.33905" lon="-0.71919">
        <ele>73.3</ele>
        <time>2020-06-17T07:21:33Z</time>
      </trkpt>
      <trkpt lat="49.33906" lon="-0.71912">
        <ele>73.3</ele>
        <time>2020-06-17T07:21:34Z</time>
      </trkpt>
      <trkpt lat="49.33906" lon="-0.71905">
        <ele>73.4</ele>
        <time>2020-06-17T07:21:35Z</time>
      </trkpt>
      <trkpt lat="49.33907" lon="-0.71899">
        <ele>73.4</ele>
        <time>2020-06-17T07:21:36Z</time>
      </trkpt>
      <trkpt lat="49.33909" lon="-0.71891">
        <ele>73.5</ele>
        <time>2020-06-17T07:21:37Z</time>
      </trkpt>
      <trkpt lat="49.33909" lon="-0.71884">
        <ele>73.5</ele>
        <time>2020-06-17T07:21:38Z</time>
      </trkpt>
      <trkpt lat="49.3391" lon="-0.71878">
        <ele>73.6</ele>
        <time>2020-06-17T07:21:39Z</time>
      </trkpt>
      <trkpt lat="49.3391" lon="-0.71872">
        <ele>73.7</ele>
        <time>2020-06-17T07:21:40Z</time>
      </trkpt>
      <trkpt lat="49.33911" lon="-0.71865">
        <ele>73.7</ele>
        <time>2020-06-17T07:21:41Z</time>
      </trkpt>
      <trkpt lat="49.33911" lon="-0.71859">
        <ele>73.7</ele>
        <time>2020-06-17T07:21:42Z</time>
      </trkpt>
      <trkpt lat="49.33911" lon="-0.71852">
        <ele>73.7</ele>
        <time>2020-06-17T07:21:43Z</time>
      </trkpt>
      <trkpt lat="49.33911" lon="-0.71846">
        <ele>73.8</ele>
        <time>2020-06-17T07:21:44Z</time>
      </trkpt>
      <trkpt lat="49.33911" lon="-0.71839">
        <ele>73.8</ele>
        <time>2020-06-17T07:21:45Z</time>
      </trkpt>
      <trkpt lat="49.33912" lon="-0.71832">
        <ele>73.8</ele>
        <time>2020-06-17T07:21:46Z</time>
      </trkpt>
      <trkpt lat="49.33912" lon="-0.71825">
        <ele>73.8</ele>
        <time>2020-06-17T07:21:47Z</time>
      </trkpt>
      <trkpt lat="49.33913" lon="-0.71817">
        <ele>73.8</ele>
        <time>2020-06-17T07:21:48Z</time>
      </trkpt>
      <trkpt lat="49.33915" lon="-0.7181">
        <ele>73.8</ele>
        <time>2020-06-17T07:21:49Z</time>
      </trkpt>
      <trkpt lat="49.33916" lon="-0.71801">
        <ele>73.8</ele>
        <time>2020-06-17T07:21:50Z</time>
      </trkpt>
      <trkpt lat="49.33917" lon="-0.71792">
        <ele>73.9</ele>
        <time>2020-06-17T07:21:51Z</time>
      </trkpt>
      <trkpt lat="49.33918" lon="-0.71783">
        <ele>73.9</ele>
        <time>2020-06-17T07:21:52Z</time>
      </trkpt>
      <trkpt lat="49.33918" lon="-0.71776">
        <ele>73.8</ele>
        <time>2020-06-17T07:21:53Z</time>
      </trkpt>
      <trkpt lat="49.33918" lon="-0.7177">
        <ele>73.8</ele>
        <time>2020-06-17T07:21:54Z</time>
      </trkpt>
      <trkpt lat="49.33917" lon="-0.71763">
        <ele>73.8</ele>
        <time>2020-06-17T07:21:55Z</time>
      </trkpt>
      <trkpt lat="49.33917" lon="-0.71757">
        <ele>73.8</ele>
        <time>2020-06-17T07:21:56Z</time>
      </trkpt>
      <trkpt lat="49.33916" lon="-0.71751">
        <ele>73.8</ele>
        <time>2020-06-17T07:21:57Z</time>
      </trkpt>
      <trkpt lat="49.33916" lon="-0.71745">
        <ele>73.8</ele>
        <time>2020-06-17T07:21:58Z</time>
      </trkpt>
      <trkpt lat="49.33915" lon="-0.71739">
        <ele>73.8</ele>
        <time>2020-06-17T07:21:59Z</time>
      </trkpt>
      <trkpt lat="49.33914" lon="-0.71732">
        <ele>73.8</ele>
        <time>2020-06-17T07:22:00Z</time>
      </trkpt>
      <trkpt lat="49.33912" lon="-0.71725">
        <ele>73.8</ele>
        <time>2020-06-17T07:22:01Z</time>
      </trkpt>
      <trkpt lat="49.33911" lon="-0.71719">
        <ele>73.8</ele>
        <time>2020-06-17T07:22:02Z</time>
      </trkpt>
      <trkpt lat="49.3391" lon="-0.71714">
        <ele>73.8</ele>
        <time>2020-06-17T07:22:03Z</time>
      </trkpt>
      <trkpt lat="49.33909" lon="-0.71708">
        <ele>73.8</ele>
        <time>2020-06-17T07:22:04Z</time>
      </trkpt>
      <trkpt lat="49.33907" lon="-0.71702">
        <ele>73.8</ele>
        <time>2020-06-17T07:22:05Z</time>
      </trkpt>
      <trkpt lat="49.33905" lon="-0.71695">
        <ele>73.7</ele>
        <time>2020-06-17T07:22:06Z</time>
      </trkpt>
      <trkpt lat="49.33904" lon="-0.71689">
        <ele>73.7</ele>
        <time>2020-06-17T07:22:07Z</time>
      </trkpt>
      <trkpt lat="49.33901" lon="-0.71682">
        <ele>73.6</ele>
        <time>2020-06-17T07:22:08Z</time>
      </trkpt>
      <trkpt lat="49.33899" lon="-0.71676">
        <ele>73.6</ele>
        <time>2020-06-17T07:22:09Z</time>
      </trkpt>
      <trkpt lat="49.33897" lon="-0.71669">
        <ele>73.5</ele>
        <time>2020-06-17T07:22:10Z</time>
      </trkpt>
      <trkpt lat="49.33895" lon="-0.71663">
        <ele>73.5</ele>
        <time>2020-06-17T07:22:11Z</time>
      </trkpt>
      <trkpt lat="49.33893" lon="-0.71658">
        <ele>73.4</ele>
        <time>2020-06-17T07:22:12Z</time>
      </trkpt>
      <trkpt lat="49.33892" lon="-0.71654">
        <ele>73.4</ele>
        <time>2020-06-17T07:22:13Z</time>
      </trkpt>
      <trkpt lat="49.33891" lon="-0.71652">
        <ele>73.4</ele>
        <time>2020-06-17T07:22:14Z</time>
      </trkpt>
      <trkpt lat="49.33891" lon="-0.7165">
        <ele>73.4</ele>
        <time>2020-06-17T07:22:15Z</time>
      </trkpt>
      <trkpt lat="49.33889" lon="-0.71648">
        <ele>73.4</ele>
        <time>2020-06-17T07:22:16Z</time>
      </trkpt>
      <trkpt lat="49.33889" lon="-0.71648">
        <ele>73.4</ele>
        <time>2020-06-17T07:22:17Z</time>
      </trkpt>
      <trkpt lat="49.33889" lon="-0.71648">
        <ele>73.4</ele>
        <time>2020-06-17T07:22:18Z</time>
      </trkpt>
      <trkpt lat="49.33888" lon="-0.71648">
        <ele>73.4</ele>
        <time>2020-06-17T07:22:19Z</time>
      </trkpt>
      <trkpt lat="49.33888" lon="-0.71648">
        <ele>73.4</ele>
        <time>2020-06-17T07:22:20Z</time>
      </trkpt>
      <trkpt lat="49.33888" lon="-0.71648">
        <ele>73.3</ele>
        <time>2020-06-17T07:22:21Z</time>
      </trkpt>
      <trkpt lat="49.33888" lon="-0.71648">
        <ele>73.3</ele>
        <time>2020-06-17T07:22:22Z</time>
      </trkpt>
      <trkpt lat="49.33888" lon="-0.71648">
        <ele>73.3</ele>
        <time>2020-06-17T07:22:23Z</time>
      </trkpt>
      <trkpt lat="49.33888" lon="-0.71648">
        <ele>73.3</ele>
        <time>2020-06-17T07:22:24Z</time>
      </trkpt>
      <trkpt lat="49.33887" lon="-0.71648">
        <ele>73.3</ele>
        <time>2020-06-17T07:22:25Z</time>
      </trkpt>
      <trkpt lat="49.33888" lon="-0.71648">
        <ele>73.3</ele>
        <time>2020-06-17T07:22:26Z</time>
      </trkpt>
      <trkpt lat="49.33889" lon="-0.71631">
        <ele>73.2</ele>
        <time>2020-06-17T07:23:57Z</time>
      </trkpt>
      <trkpt lat="49.33888" lon="-0.71629">
        <ele>73.2</ele>
        <time>2020-06-17T07:23:58Z</time>
      </trkpt>
      <trkpt lat="49.33885" lon="-0.71626">
        <ele>73.2</ele>
        <time>2020-06-17T07:23:59Z</time>
      </trkpt>
      <trkpt lat="49.33884" lon="-0.71624">
        <ele>73.2</ele>
        <time>2020-06-17T07:24:00Z</time>
      </trkpt>
      <trkpt lat="49.33881" lon="-0.7162">
        <ele>73.1</ele>
        <time>2020-06-17T07:24:01Z</time>
      </trkpt>
      <trkpt lat="49.3388" lon="-0.71618">
        <ele>73.1</ele>
        <time>2020-06-17T07:24:02Z</time>
      </trkpt>
      <trkpt lat="49.33878" lon="-0.71612">
        <ele>73.1</ele>
        <time>2020-06-17T07:24:03Z</time>
      </trkpt>
      <trkpt lat="49.33876" lon="-0.71607">
        <ele>73.1</ele>
        <time>2020-06-17T07:24:04Z</time>
      </trkpt>
      <trkpt lat="49.33874" lon="-0.71602">
        <ele>73</ele>
        <time>2020-06-17T07:24:05Z</time>
      </trkpt>
      <trkpt lat="49.33872" lon="-0.71597">
        <ele>73</ele>
        <time>2020-06-17T07:24:06Z</time>
      </trkpt>
      <trkpt lat="49.3387" lon="-0.71593">
        <ele>73</ele>
        <time>2020-06-17T07:24:07Z</time>
      </trkpt>
      <trkpt lat="49.33868" lon="-0.71588">
        <ele>73</ele>
        <time>2020-06-17T07:24:08Z</time>
      </trkpt>
      <trkpt lat="49.33866" lon="-0.71583">
        <ele>72.9</ele>
        <time>2020-06-17T07:24:09Z</time>
      </trkpt>
      <trkpt lat="49.33864" lon="-0.71577">
        <ele>72.9</ele>
        <time>2020-06-17T07:24:10Z</time>
      </trkpt>
      <trkpt lat="49.33862" lon="-0.71573">
        <ele>72.9</ele>
        <time>2020-06-17T07:24:11Z</time>
      </trkpt>
      <trkpt lat="49.3386" lon="-0.71568">
        <ele>72.8</ele>
        <time>2020-06-17T07:24:12Z</time>
      </trkpt>
      <trkpt lat="49.33858" lon="-0.71564">
        <ele>72.8</ele>
        <time>2020-06-17T07:24:13Z</time>
      </trkpt>
      <trkpt lat="49.33856" lon="-0.71559">
        <ele>72.8</ele>
        <time>2020-06-17T07:24:14Z</time>
      </trkpt>
      <trkpt lat="49.33855" lon="-0.71555">
        <ele>72.7</ele>
        <time>2020-06-17T07:24:15Z</time>
      </trkpt>
      <trkpt lat="49.33853" lon="-0.7155">
        <ele>72.7</ele>
        <time>2020-06-17T07:24:16Z</time>
      </trkpt>
      <trkpt lat="49.33852" lon="-0.71549">
        <ele>72.7</ele>
        <time>2020-06-17T07:24:17Z</time>
      </trkpt>
      <trkpt lat="49.33851" lon="-0.71544">
        <ele>72.6</ele>
        <time>2020-06-17T07:24:18Z</time>
      </trkpt>
      <trkpt lat="49.3385" lon="-0.71542">
        <ele>72.6</ele>
        <time>2020-06-17T07:24:19Z</time>
      </trkpt>
      <trkpt lat="49.33849" lon="-0.71539">
        <ele>72.6</ele>
        <time>2020-06-17T07:24:20Z</time>
      </trkpt>
      <trkpt lat="49.33848" lon="-0.71534">
        <ele>72.6</ele>
        <time>2020-06-17T07:24:21Z</time>
      </trkpt>
      <trkpt lat="49.33848" lon="-0.71532">
        <ele>72.6</ele>
        <time>2020-06-17T07:24:22Z</time>
      </trkpt>
      <trkpt lat="49.33846" lon="-0.71526">
        <ele>72.5</ele>
        <time>2020-06-17T07:24:23Z</time>
      </trkpt>
      <trkpt lat="49.33846" lon="-0.71524">
        <ele>72.5</ele>
        <time>2020-06-17T07:24:24Z</time>
      </trkpt>
      <trkpt lat="49.33845" lon="-0.71519">
        <ele>72.4</ele>
        <time>2020-06-17T07:24:25Z</time>
      </trkpt>
      <trkpt lat="49.33844" lon="-0.71517">
        <ele>72.4</ele>
        <time>2020-06-17T07:24:26Z</time>
      </trkpt>
      <trkpt lat="49.33842" lon="-0.71512">
        <ele>72.4</ele>
        <time>2020-06-17T07:24:27Z</time>
      </trkpt>
      <trkpt lat="49.33841" lon="-0.7151">
        <ele>72.4</ele>
        <time>2020-06-17T07:24:28Z</time>
      </trkpt>
      <trkpt lat="49.33838" lon="-0.71506">
        <ele>72.3</ele>
        <time>2020-06-17T07:24:29Z</time>
      </trkpt>
      <trkpt lat="49.33836" lon="-0.71501">
        <ele>72.2</ele>
        <time>2020-06-17T07:24:30Z</time>
      </trkpt>
      <trkpt lat="49.33834" lon="-0.71498">
        <ele>72.2</ele>
        <time>2020-06-17T07:24:31Z</time>
      </trkpt>
      <trkpt lat="49.33832" lon="-0.71493">
        <ele>72.1</ele>
        <time>2020-06-17T07:24:32Z</time>
      </trkpt>
      <trkpt lat="49.33829" lon="-0.71488">
        <ele>72</ele>
        <time>2020-06-17T07:24:33Z</time>
      </trkpt>
      <trkpt lat="49.33826" lon="-0.71483">
        <ele>71.9</ele>
        <time>2020-06-17T07:24:34Z</time>
      </trkpt>
      <trkpt lat="49.33824" lon="-0.71478">
        <ele>71.9</ele>
        <time>2020-06-17T07:24:35Z</time>
      </trkpt>
      <trkpt lat="49.33822" lon="-0.71473">
        <ele>71.8</ele>
        <time>2020-06-17T07:24:36Z</time>
      </trkpt>
      <trkpt lat="49.3382" lon="-0.71467">
        <ele>71.7</ele>
        <time>2020-06-17T07:24:37Z</time>
      </trkpt>
      <trkpt lat="49.33819" lon="-0.71462">
        <ele>71.5</ele>
        <time>2020-06-17T07:24:38Z</time>
      </trkpt>
      <trkpt lat="49.33818" lon="-0.71457">
        <ele>71.4</ele>
        <time>2020-06-17T07:24:39Z</time>
      </trkpt>
      <trkpt lat="49.33817" lon="-0.71452">
        <ele>71.3</ele>
        <time>2020-06-17T07:24:40Z</time>
      </trkpt>
      <trkpt lat="49.33815" lon="-0.71446">
        <ele>71.2</ele>
        <time>2020-06-17T07:24:41Z</time>
      </trkpt>
      <trkpt lat="49.33812" lon="-0.7144">
        <ele>71</ele>
        <time>2020-06-17T07:24:42Z</time>
      </trkpt>
      <trkpt lat="49.3381" lon="-0.71433">
        <ele>70.8</ele>
        <time>2020-06-17T07:24:43Z</time>
      </trkpt>
      <trkpt lat="49.33805" lon="-0.71428">
        <ele>70.6</ele>
        <time>2020-06-17T07:24:44Z</time>
      </trkpt>
      <trkpt lat="49.33801" lon="-0.71422">
        <ele>70.4</ele>
        <time>2020-06-17T07:24:45Z</time>
      </trkpt>
      <trkpt lat="49.33797" lon="-0.71416">
        <ele>70.2</ele>
        <time>2020-06-17T07:24:46Z</time>
      </trkpt>
      <trkpt lat="49.33794" lon="-0.7141">
        <ele>69.9</ele>
        <time>2020-06-17T07:24:47Z</time>
      </trkpt>
      <trkpt lat="49.33791" lon="-0.71402">
        <ele>69.6</ele>
        <time>2020-06-17T07:24:48Z</time>
      </trkpt>
      <trkpt lat="49.33787" lon="-0.71395">
        <ele>69.3</ele>
        <time>2020-06-17T07:24:49Z</time>
      </trkpt>
      <trkpt lat="49.33785" lon="-0.71386">
        <ele>69</ele>
        <time>2020-06-17T07:24:50Z</time>
      </trkpt>
      <trkpt lat="49.33781" lon="-0.71379">
        <ele>68.7</ele>
        <time>2020-06-17T07:24:51Z</time>
      </trkpt>
      <trkpt lat="49.33778" lon="-0.71371">
        <ele>68.5</ele>
        <time>2020-06-17T07:24:52Z</time>
      </trkpt>
      <trkpt lat="49.33774" lon="-0.71364">
        <ele>68.2</ele>
        <time>2020-06-17T07:24:53Z</time>
      </trkpt>
      <trkpt lat="49.3377" lon="-0.71356">
        <ele>67.9</ele>
        <time>2020-06-17T07:24:54Z</time>
      </trkpt>
      <trkpt lat="49.33765" lon="-0.71349">
        <ele>67.6</ele>
        <time>2020-06-17T07:24:55Z</time>
      </trkpt>
      <trkpt lat="49.3376" lon="-0.71341">
        <ele>67.3</ele>
        <time>2020-06-17T07:24:56Z</time>
      </trkpt>
      <trkpt lat="49.33755" lon="-0.71332">
        <ele>67</ele>
        <time>2020-06-17T07:24:57Z</time>
      </trkpt>
      <trkpt lat="49.3375" lon="-0.71324">
        <ele>66.7</ele>
        <time>2020-06-17T07:24:58Z</time>
      </trkpt>
      <trkpt lat="49.33747" lon="-0.71314">
        <ele>66.4</ele>
        <time>2020-06-17T07:24:59Z</time>
      </trkpt>
      <trkpt lat="49.33743" lon="-0.71305">
        <ele>66.1</ele>
        <time>2020-06-17T07:25:00Z</time>
      </trkpt>
      <trkpt lat="49.3374" lon="-0.71296">
        <ele>65.9</ele>
        <time>2020-06-17T07:25:01Z</time>
      </trkpt>
      <trkpt lat="49.33737" lon="-0.71287">
        <ele>65.6</ele>
        <time>2020-06-17T07:25:02Z</time>
      </trkpt>
      <trkpt lat="49.33734" lon="-0.71278">
        <ele>65.4</ele>
        <time>2020-06-17T07:25:03Z</time>
      </trkpt>
      <trkpt lat="49.33732" lon="-0.71267">
        <ele>65</ele>
        <time>2020-06-17T07:25:04Z</time>
      </trkpt>
      <trkpt lat="49.33731" lon="-0.71256">
        <ele>64.6</ele>
        <time>2020-06-17T07:25:05Z</time>
      </trkpt>
      <trkpt lat="49.33729" lon="-0.71245">
        <ele>64.3</ele>
        <time>2020-06-17T07:25:06Z</time>
      </trkpt>
      <trkpt lat="49.33727" lon="-0.71235">
        <ele>64</ele>
        <time>2020-06-17T07:25:07Z</time>
      </trkpt>
      <trkpt lat="49.33726" lon="-0.71225">
        <ele>63.7</ele>
        <time>2020-06-17T07:25:08Z</time>
      </trkpt>
      <trkpt lat="49.33725" lon="-0.71215">
        <ele>63.5</ele>
        <time>2020-06-17T07:25:09Z</time>
      </trkpt>
      <trkpt lat="49.33723" lon="-0.71205">
        <ele>63.2</ele>
        <time>2020-06-17T07:25:10Z</time>
      </trkpt>
      <trkpt lat="49.33721" lon="-0.71195">
        <ele>62.9</ele>
        <time>2020-06-17T07:25:11Z</time>
      </trkpt>
      <trkpt lat="49.33718" lon="-0.71183">
        <ele>62.6</ele>
        <time>2020-06-17T07:25:12Z</time>
      </trkpt>
      <trkpt lat="49.33716" lon="-0.71173">
        <ele>62.3</ele>
        <time>2020-06-17T07:25:13Z</time>
      </trkpt>
      <trkpt lat="49.33714" lon="-0.71162">
        <ele>62.1</ele>
        <time>2020-06-17T07:25:14Z</time>
      </trkpt>
      <trkpt lat="49.33712" lon="-0.71151">
        <ele>61.8</ele>
        <time>2020-06-17T07:25:15Z</time>
      </trkpt>
      <trkpt lat="49.3371" lon="-0.71141">
        <ele>61.6</ele>
        <time>2020-06-17T07:25:16Z</time>
      </trkpt>
      <trkpt lat="49.33707" lon="-0.71131">
        <ele>61.4</ele>
        <time>2020-06-17T07:25:17Z</time>
      </trkpt>
      <trkpt lat="49.33704" lon="-0.71122">
        <ele>61.2</ele>
        <time>2020-06-17T07:25:18Z</time>
      </trkpt>
      <trkpt lat="49.337" lon="-0.71112">
        <ele>60.9</ele>
        <time>2020-06-17T07:25:19Z</time>
      </trkpt>
      <trkpt lat="49.33697" lon="-0.71101">
        <ele>60.7</ele>
        <time>2020-06-17T07:25:20Z</time>
      </trkpt>
      <trkpt lat="49.33693" lon="-0.71091">
        <ele>60.4</ele>
        <time>2020-06-17T07:25:21Z</time>
      </trkpt>
      <trkpt lat="49.33689" lon="-0.71081">
        <ele>60.3</ele>
        <time>2020-06-17T07:25:22Z</time>
      </trkpt>
      <trkpt lat="49.33686" lon="-0.7107">
        <ele>60.1</ele>
        <time>2020-06-17T07:25:23Z</time>
      </trkpt>
      <trkpt lat="49.33682" lon="-0.71061">
        <ele>59.9</ele>
        <time>2020-06-17T07:25:24Z</time>
      </trkpt>
      <trkpt lat="49.33679" lon="-0.71051">
        <ele>59.8</ele>
        <time>2020-06-17T07:25:25Z</time>
      </trkpt>
      <trkpt lat="49.33677" lon="-0.71042">
        <ele>59.6</ele>
        <time>2020-06-17T07:25:26Z</time>
      </trkpt>
      <trkpt lat="49.33674" lon="-0.71032">
        <ele>59.4</ele>
        <time>2020-06-17T07:25:27Z</time>
      </trkpt>
      <trkpt lat="49.33671" lon="-0.71022">
        <ele>59.1</ele>
        <time>2020-06-17T07:25:28Z</time>
      </trkpt>
      <trkpt lat="49.33668" lon="-0.71012">
        <ele>58.9</ele>
        <time>2020-06-17T07:25:29Z</time>
      </trkpt>
      <trkpt lat="49.33665" lon="-0.71005">
        <ele>58.7</ele>
        <time>2020-06-17T07:25:30Z</time>
      </trkpt>
      <trkpt lat="49.33661" lon="-0.70998">
        <ele>58.6</ele>
        <time>2020-06-17T07:25:31Z</time>
      </trkpt>
      <trkpt lat="49.33658" lon="-0.70993">
        <ele>58.4</ele>
        <time>2020-06-17T07:25:32Z</time>
      </trkpt>
      <trkpt lat="49.33655" lon="-0.70988">
        <ele>58.3</ele>
        <time>2020-06-17T07:25:33Z</time>
      </trkpt>
      <trkpt lat="49.33653" lon="-0.70984">
        <ele>58.2</ele>
        <time>2020-06-17T07:25:34Z</time>
      </trkpt>
      <trkpt lat="49.3365" lon="-0.70979">
        <ele>58.1</ele>
        <time>2020-06-17T07:25:35Z</time>
      </trkpt>
      <trkpt lat="49.33649" lon="-0.70977">
        <ele>58</ele>
        <time>2020-06-17T07:25:36Z</time>
      </trkpt>
      <trkpt lat="49.33647" lon="-0.70972">
        <ele>57.9</ele>
        <time>2020-06-17T07:25:37Z</time>
      </trkpt>
      <trkpt lat="49.33645" lon="-0.70966">
        <ele>57.7</ele>
        <time>2020-06-17T07:25:38Z</time>
      </trkpt>
      <trkpt lat="49.33643" lon="-0.70962">
        <ele>57.6</ele>
        <time>2020-06-17T07:25:39Z</time>
      </trkpt>
      <trkpt lat="49.3364" lon="-0.70955">
        <ele>57.4</ele>
        <time>2020-06-17T07:25:40Z</time>
      </trkpt>
      <trkpt lat="49.33638" lon="-0.70949">
        <ele>57.2</ele>
        <time>2020-06-17T07:25:41Z</time>
      </trkpt>
      <trkpt lat="49.33636" lon="-0.70941">
        <ele>56.9</ele>
        <time>2020-06-17T07:25:42Z</time>
      </trkpt>
      <trkpt lat="49.33633" lon="-0.70934">
        <ele>56.7</ele>
        <time>2020-06-17T07:25:43Z</time>
      </trkpt>
      <trkpt lat="49.33631" lon="-0.70927">
        <ele>56.5</ele>
        <time>2020-06-17T07:25:44Z</time>
      </trkpt>
      <trkpt lat="49.33629" lon="-0.70921">
        <ele>56.4</ele>
        <time>2020-06-17T07:25:45Z</time>
      </trkpt>
      <trkpt lat="49.33627" lon="-0.70915">
        <ele>56.2</ele>
        <time>2020-06-17T07:25:46Z</time>
      </trkpt>
      <trkpt lat="49.33626" lon="-0.70909">
        <ele>56.1</ele>
        <time>2020-06-17T07:25:47Z</time>
      </trkpt>
      <trkpt lat="49.33624" lon="-0.70905">
        <ele>55.9</ele>
        <time>2020-06-17T07:25:48Z</time>
      </trkpt>
      <trkpt lat="49.33623" lon="-0.70898">
        <ele>55.8</ele>
        <time>2020-06-17T07:25:49Z</time>
      </trkpt>
      <trkpt lat="49.33622" lon="-0.70893">
        <ele>55.6</ele>
        <time>2020-06-17T07:25:50Z</time>
      </trkpt>
      <trkpt lat="49.33621" lon="-0.70888">
        <ele>55.5</ele>
        <time>2020-06-17T07:25:51Z</time>
      </trkpt>
      <trkpt lat="49.3362" lon="-0.70882">
        <ele>55.3</ele>
        <time>2020-06-17T07:25:52Z</time>
      </trkpt>
      <trkpt lat="49.33618" lon="-0.70874">
        <ele>55.1</ele>
        <time>2020-06-17T07:25:53Z</time>
      </trkpt>
      <trkpt lat="49.33617" lon="-0.70867">
        <ele>54.9</ele>
        <time>2020-06-17T07:25:54Z</time>
      </trkpt>
      <trkpt lat="49.33616" lon="-0.7086">
        <ele>54.7</ele>
        <time>2020-06-17T07:25:55Z</time>
      </trkpt>
      <trkpt lat="49.33614" lon="-0.70853">
        <ele>54.5</ele>
        <time>2020-06-17T07:25:56Z</time>
      </trkpt>
      <trkpt lat="49.33612" lon="-0.70845">
        <ele>54.3</ele>
        <time>2020-06-17T07:25:57Z</time>
      </trkpt>
      <trkpt lat="49.3361" lon="-0.70838">
        <ele>54</ele>
        <time>2020-06-17T07:25:58Z</time>
      </trkpt>
      <trkpt lat="49.33607" lon="-0.70831">
        <ele>53.8</ele>
        <time>2020-06-17T07:25:59Z</time>
      </trkpt>
      <trkpt lat="49.33604" lon="-0.70822">
        <ele>53.5</ele>
        <time>2020-06-17T07:26:00Z</time>
      </trkpt>
      <trkpt lat="49.33599" lon="-0.70813">
        <ele>53.2</ele>
        <time>2020-06-17T07:26:01Z</time>
      </trkpt>
      <trkpt lat="49.33595" lon="-0.70804">
        <ele>53</ele>
        <time>2020-06-17T07:26:02Z</time>
      </trkpt>
      <trkpt lat="49.33592" lon="-0.70794">
        <ele>52.7</ele>
        <time>2020-06-17T07:26:03Z</time>
      </trkpt>
      <trkpt lat="49.33587" lon="-0.70784">
        <ele>52.5</ele>
        <time>2020-06-17T07:26:04Z</time>
      </trkpt>
      <trkpt lat="49.33583" lon="-0.70774">
        <ele>52.3</ele>
        <time>2020-06-17T07:26:05Z</time>
      </trkpt>
      <trkpt lat="49.33579" lon="-0.70766">
        <ele>52.2</ele>
        <time>2020-06-17T07:26:06Z</time>
      </trkpt>
      <trkpt lat="49.33575" lon="-0.70756">
        <ele>52.1</ele>
        <time>2020-06-17T07:26:07Z</time>
      </trkpt>
      <trkpt lat="49.33572" lon="-0.70746">
        <ele>52</ele>
        <time>2020-06-17T07:26:08Z</time>
      </trkpt>
      <trkpt lat="49.33567" lon="-0.70735">
        <ele>52</ele>
        <time>2020-06-17T07:26:09Z</time>
      </trkpt>
      <trkpt lat="49.33562" lon="-0.70724">
        <ele>52</ele>
        <time>2020-06-17T07:26:10Z</time>
      </trkpt>
      <trkpt lat="49.33557" lon="-0.70713">
        <ele>52</ele>
        <time>2020-06-17T07:26:11Z</time>
      </trkpt>
      <trkpt lat="49.33553" lon="-0.70703">
        <ele>52.1</ele>
        <time>2020-06-17T07:26:12Z</time>
      </trkpt>
      <trkpt lat="49.3355" lon="-0.70697">
        <ele>52.2</ele>
        <time>2020-06-17T07:26:13Z</time>
      </trkpt>
      <trkpt lat="49.33546" lon="-0.70691">
        <ele>52.3</ele>
        <time>2020-06-17T07:26:14Z</time>
      </trkpt>
      <trkpt lat="49.33543" lon="-0.70684">
        <ele>52.4</ele>
        <time>2020-06-17T07:26:15Z</time>
      </trkpt>
      <trkpt lat="49.3354" lon="-0.70676">
        <ele>52.6</ele>
        <time>2020-06-17T07:26:16Z</time>
      </trkpt>
      <trkpt lat="49.33538" lon="-0.7067">
        <ele>52.7</ele>
        <time>2020-06-17T07:26:17Z</time>
      </trkpt>
      <trkpt lat="49.33535" lon="-0.70662">
        <ele>52.9</ele>
        <time>2020-06-17T07:26:18Z</time>
      </trkpt>
      <trkpt lat="49.33533" lon="-0.70655">
        <ele>53.1</ele>
        <time>2020-06-17T07:26:19Z</time>
      </trkpt>
      <trkpt lat="49.33531" lon="-0.70648">
        <ele>53.3</ele>
        <time>2020-06-17T07:26:20Z</time>
      </trkpt>
      <trkpt lat="49.33529" lon="-0.70641">
        <ele>53.5</ele>
        <time>2020-06-17T07:26:21Z</time>
      </trkpt>
      <trkpt lat="49.33528" lon="-0.70632">
        <ele>53.8</ele>
        <time>2020-06-17T07:26:22Z</time>
      </trkpt>
      <trkpt lat="49.33527" lon="-0.70625">
        <ele>53.9</ele>
        <time>2020-06-17T07:26:23Z</time>
      </trkpt>
      <trkpt lat="49.33526" lon="-0.70615">
        <ele>54.1</ele>
        <time>2020-06-17T07:26:24Z</time>
      </trkpt>
      <trkpt lat="49.33526" lon="-0.70605">
        <ele>54.4</ele>
        <time>2020-06-17T07:26:25Z</time>
      </trkpt>
      <trkpt lat="49.33525" lon="-0.70596">
        <ele>54.6</ele>
        <time>2020-06-17T07:26:26Z</time>
      </trkpt>
      <trkpt lat="49.33524" lon="-0.70588">
        <ele>54.8</ele>
        <time>2020-06-17T07:26:27Z</time>
      </trkpt>
      <trkpt lat="49.33523" lon="-0.7058">
        <ele>54.9</ele>
        <time>2020-06-17T07:26:28Z</time>
      </trkpt>
      <trkpt lat="49.33523" lon="-0.70573">
        <ele>55</ele>
        <time>2020-06-17T07:26:29Z</time>
      </trkpt>
      <trkpt lat="49.33522" lon="-0.70566">
        <ele>55.2</ele>
        <time>2020-06-17T07:26:30Z</time>
      </trkpt>
      <trkpt lat="49.3352" lon="-0.70559">
        <ele>55.3</ele>
        <time>2020-06-17T07:26:31Z</time>
      </trkpt>
      <trkpt lat="49.33519" lon="-0.70552">
        <ele>55.4</ele>
        <time>2020-06-17T07:26:32Z</time>
      </trkpt>
      <trkpt lat="49.33518" lon="-0.70545">
        <ele>55.5</ele>
        <time>2020-06-17T07:26:33Z</time>
      </trkpt>
      <trkpt lat="49.33517" lon="-0.70539">
        <ele>55.6</ele>
        <time>2020-06-17T07:26:34Z</time>
      </trkpt>
      <trkpt lat="49.33516" lon="-0.70531">
        <ele>55.7</ele>
        <time>2020-06-17T07:26:35Z</time>
      </trkpt>
      <trkpt lat="49.33515" lon="-0.70522">
        <ele>55.8</ele>
        <time>2020-06-17T07:26:36Z</time>
      </trkpt>
      <trkpt lat="49.33513" lon="-0.70515">
        <ele>55.9</ele>
        <time>2020-06-17T07:26:37Z</time>
      </trkpt>
      <trkpt lat="49.33512" lon="-0.70507">
        <ele>55.9</ele>
        <time>2020-06-17T07:26:38Z</time>
      </trkpt>
      <trkpt lat="49.33511" lon="-0.705">
        <ele>56</ele>
        <time>2020-06-17T07:26:39Z</time>
      </trkpt>
      <trkpt lat="49.33511" lon="-0.70494">
        <ele>56</ele>
        <time>2020-06-17T07:26:40Z</time>
      </trkpt>
      <trkpt lat="49.3351" lon="-0.70488">
        <ele>56.1</ele>
        <time>2020-06-17T07:26:41Z</time>
      </trkpt>
      <trkpt lat="49.3351" lon="-0.70482">
        <ele>56.1</ele>
        <time>2020-06-17T07:26:42Z</time>
      </trkpt>
      <trkpt lat="49.3351" lon="-0.70475">
        <ele>56.2</ele>
        <time>2020-06-17T07:26:43Z</time>
      </trkpt>
      <trkpt lat="49.3351" lon="-0.70467">
        <ele>56.2</ele>
        <time>2020-06-17T07:26:44Z</time>
      </trkpt>
      <trkpt lat="49.3351" lon="-0.70458">
        <ele>56.3</ele>
        <time>2020-06-17T07:26:45Z</time>
      </trkpt>
      <trkpt lat="49.3351" lon="-0.70449">
        <ele>56.3</ele>
        <time>2020-06-17T07:26:46Z</time>
      </trkpt>
      <trkpt lat="49.33509" lon="-0.7044">
        <ele>56.3</ele>
        <time>2020-06-17T07:26:47Z</time>
      </trkpt>
      <trkpt lat="49.33507" lon="-0.70429">
        <ele>56.3</ele>
        <time>2020-06-17T07:26:48Z</time>
      </trkpt>
      <trkpt lat="49.33506" lon="-0.70417">
        <ele>56.3</ele>
        <time>2020-06-17T07:26:49Z</time>
      </trkpt>
      <trkpt lat="49.33505" lon="-0.70407">
        <ele>56.3</ele>
        <time>2020-06-17T07:26:50Z</time>
      </trkpt>
      <trkpt lat="49.33504" lon="-0.70399">
        <ele>56.3</ele>
        <time>2020-06-17T07:26:51Z</time>
      </trkpt>
      <trkpt lat="49.33503" lon="-0.7039">
        <ele>56.3</ele>
        <time>2020-06-17T07:26:52Z</time>
      </trkpt>
      <trkpt lat="49.33502" lon="-0.7038">
        <ele>56.3</ele>
        <time>2020-06-17T07:26:53Z</time>
      </trkpt>
      <trkpt lat="49.33501" lon="-0.70369">
        <ele>56.4</ele>
        <time>2020-06-17T07:26:54Z</time>
      </trkpt>
      <trkpt lat="49.33501" lon="-0.70361">
        <ele>56.4</ele>
        <time>2020-06-17T07:26:55Z</time>
      </trkpt>
      <trkpt lat="49.33501" lon="-0.70353">
        <ele>56.4</ele>
        <time>2020-06-17T07:26:56Z</time>
      </trkpt>
      <trkpt lat="49.33502" lon="-0.70344">
        <ele>56.4</ele>
        <time>2020-06-17T07:26:57Z</time>
      </trkpt>
      <trkpt lat="49.33502" lon="-0.70336">
        <ele>56.4</ele>
        <time>2020-06-17T07:26:58Z</time>
      </trkpt>
      <trkpt lat="49.33502" lon="-0.70327">
        <ele>56.4</ele>
        <time>2020-06-17T07:26:59Z</time>
      </trkpt>
      <trkpt lat="49.33503" lon="-0.70316">
        <ele>56.3</ele>
        <time>2020-06-17T07:27:00Z</time>
      </trkpt>
      <trkpt lat="49.33504" lon="-0.70305">
        <ele>56.3</ele>
        <time>2020-06-17T07:27:01Z</time>
      </trkpt>
      <trkpt lat="49.33504" lon="-0.70294">
        <ele>56.3</ele>
        <time>2020-06-17T07:27:02Z</time>
      </trkpt>
      <trkpt lat="49.33504" lon="-0.70283">
        <ele>56.3</ele>
        <time>2020-06-17T07:27:03Z</time>
      </trkpt>
      <trkpt lat="49.33504" lon="-0.70271">
        <ele>56.3</ele>
        <time>2020-06-17T07:27:04Z</time>
      </trkpt>
      <trkpt lat="49.33505" lon="-0.70261">
        <ele>56.3</ele>
        <time>2020-06-17T07:27:05Z</time>
      </trkpt>
      <trkpt lat="49.33506" lon="-0.70252">
        <ele>56.2</ele>
        <time>2020-06-17T07:27:06Z</time>
      </trkpt>
      <trkpt lat="49.33507" lon="-0.70243">
        <ele>56.2</ele>
        <time>2020-06-17T07:27:07Z</time>
      </trkpt>
      <trkpt lat="49.33508" lon="-0.70235">
        <ele>56.2</ele>
        <time>2020-06-17T07:27:08Z</time>
      </trkpt>
      <trkpt lat="49.33509" lon="-0.70229">
        <ele>56.2</ele>
        <time>2020-06-17T07:27:09Z</time>
      </trkpt>
      <trkpt lat="49.3351" lon="-0.70221">
        <ele>56.2</ele>
        <time>2020-06-17T07:27:10Z</time>
      </trkpt>
      <trkpt lat="49.33512" lon="-0.70213">
        <ele>56.2</ele>
        <time>2020-06-17T07:27:11Z</time>
      </trkpt>
      <trkpt lat="49.33514" lon="-0.70204">
        <ele>56.1</ele>
        <time>2020-06-17T07:27:12Z</time>
      </trkpt>
      <trkpt lat="49.33516" lon="-0.70195">
        <ele>56.1</ele>
        <time>2020-06-17T07:27:13Z</time>
      </trkpt>
      <trkpt lat="49.33517" lon="-0.70188">
        <ele>56.1</ele>
        <time>2020-06-17T07:27:14Z</time>
      </trkpt>
      <trkpt lat="49.33519" lon="-0.7018">
        <ele>56.1</ele>
        <time>2020-06-17T07:27:15Z</time>
      </trkpt>
      <trkpt lat="49.3352" lon="-0.70171">
        <ele>56.2</ele>
        <time>2020-06-17T07:27:16Z</time>
      </trkpt>
      <trkpt lat="49.33522" lon="-0.70162">
        <ele>56.2</ele>
        <time>2020-06-17T07:27:17Z</time>
      </trkpt>
      <trkpt lat="49.33525" lon="-0.70152">
        <ele>56.3</ele>
        <time>2020-06-17T07:27:18Z</time>
      </trkpt>
      <trkpt lat="49.33527" lon="-0.70142">
        <ele>56.4</ele>
        <time>2020-06-17T07:27:19Z</time>
      </trkpt>
      <trkpt lat="49.3353" lon="-0.70131">
        <ele>56.3</ele>
        <time>2020-06-17T07:27:20Z</time>
      </trkpt>
      <trkpt lat="49.33532" lon="-0.70121">
        <ele>56.2</ele>
        <time>2020-06-17T07:27:21Z</time>
      </trkpt>
      <trkpt lat="49.33534" lon="-0.7011">
        <ele>56.2</ele>
        <time>2020-06-17T07:27:22Z</time>
      </trkpt>
      <trkpt lat="49.33536" lon="-0.70099">
        <ele>56.1</ele>
        <time>2020-06-17T07:27:23Z</time>
      </trkpt>
      <trkpt lat="49.33538" lon="-0.70089">
        <ele>56.1</ele>
        <time>2020-06-17T07:27:24Z</time>
      </trkpt>
      <trkpt lat="49.33541" lon="-0.70079">
        <ele>56.1</ele>
        <time>2020-06-17T07:27:25Z</time>
      </trkpt>
      <trkpt lat="49.33543" lon="-0.70069">
        <ele>56</ele>
        <time>2020-06-17T07:27:26Z</time>
      </trkpt>
      <trkpt lat="49.33545" lon="-0.70061">
        <ele>56</ele>
        <time>2020-06-17T07:27:27Z</time>
      </trkpt>
      <trkpt lat="49.33547" lon="-0.70053">
        <ele>56</ele>
        <time>2020-06-17T07:27:28Z</time>
      </trkpt>
      <trkpt lat="49.33549" lon="-0.70045">
        <ele>56</ele>
        <time>2020-06-17T07:27:29Z</time>
      </trkpt>
      <trkpt lat="49.33551" lon="-0.70038">
        <ele>55.9</ele>
        <time>2020-06-17T07:27:30Z</time>
      </trkpt>
      <trkpt lat="49.33552" lon="-0.7003">
        <ele>55.9</ele>
        <time>2020-06-17T07:27:31Z</time>
      </trkpt>
      <trkpt lat="49.33553" lon="-0.70022">
        <ele>55.8</ele>
        <time>2020-06-17T07:27:32Z</time>
      </trkpt>
      <trkpt lat="49.33555" lon="-0.70013">
        <ele>55.8</ele>
        <time>2020-06-17T07:27:33Z</time>
      </trkpt>
      <trkpt lat="49.33556" lon="-0.70005">
        <ele>55.7</ele>
        <time>2020-06-17T07:27:34Z</time>
      </trkpt>
      <trkpt lat="49.33557" lon="-0.69995">
        <ele>55.7</ele>
        <time>2020-06-17T07:27:35Z</time>
      </trkpt>
      <trkpt lat="49.33559" lon="-0.69985">
        <ele>55.5</ele>
        <time>2020-06-17T07:27:36Z</time>
      </trkpt>
      <trkpt lat="49.33561" lon="-0.69974">
        <ele>55.4</ele>
        <time>2020-06-17T07:27:37Z</time>
      </trkpt>
      <trkpt lat="49.33563" lon="-0.69964">
        <ele>55.2</ele>
        <time>2020-06-17T07:27:38Z</time>
      </trkpt>
      <trkpt lat="49.33564" lon="-0.69955">
        <ele>55.1</ele>
        <time>2020-06-17T07:27:39Z</time>
      </trkpt>
      <trkpt lat="49.33566" lon="-0.69946">
        <ele>55</ele>
        <time>2020-06-17T07:27:40Z</time>
      </trkpt>
      <trkpt lat="49.33567" lon="-0.69937">
        <ele>54.9</ele>
        <time>2020-06-17T07:27:41Z</time>
      </trkpt>
      <trkpt lat="49.33568" lon="-0.69928">
        <ele>54.7</ele>
        <time>2020-06-17T07:27:42Z</time>
      </trkpt>
      <trkpt lat="49.33569" lon="-0.6992">
        <ele>54.6</ele>
        <time>2020-06-17T07:27:43Z</time>
      </trkpt>
      <trkpt lat="49.33571" lon="-0.69911">
        <ele>54.4</ele>
        <time>2020-06-17T07:27:44Z</time>
      </trkpt>
      <trkpt lat="49.33573" lon="-0.69902">
        <ele>54.3</ele>
        <time>2020-06-17T07:27:45Z</time>
      </trkpt>
      <trkpt lat="49.33575" lon="-0.69893">
        <ele>54.1</ele>
        <time>2020-06-17T07:27:46Z</time>
      </trkpt>
      <trkpt lat="49.33577" lon="-0.69884">
        <ele>53.9</ele>
        <time>2020-06-17T07:27:47Z</time>
      </trkpt>
      <trkpt lat="49.33579" lon="-0.69874">
        <ele>53.8</ele>
        <time>2020-06-17T07:27:48Z</time>
      </trkpt>
      <trkpt lat="49.33581" lon="-0.69864">
        <ele>53.6</ele>
        <time>2020-06-17T07:27:49Z</time>
      </trkpt>
      <trkpt lat="49.33583" lon="-0.69854">
        <ele>53.4</ele>
        <time>2020-06-17T07:27:50Z</time>
      </trkpt>
      <trkpt lat="49.33584" lon="-0.69843">
        <ele>53.2</ele>
        <time>2020-06-17T07:27:51Z</time>
      </trkpt>
      <trkpt lat="49.33586" lon="-0.69833">
        <ele>53</ele>
        <time>2020-06-17T07:27:52Z</time>
      </trkpt>
      <trkpt lat="49.33588" lon="-0.6982">
        <ele>52.7</ele>
        <time>2020-06-17T07:27:53Z</time>
      </trkpt>
      <trkpt lat="49.3359" lon="-0.69809">
        <ele>52.5</ele>
        <time>2020-06-17T07:27:54Z</time>
      </trkpt>
      <trkpt lat="49.33593" lon="-0.69798">
        <ele>52.3</ele>
        <time>2020-06-17T07:27:55Z</time>
      </trkpt>
      <trkpt lat="49.33595" lon="-0.69786">
        <ele>52.1</ele>
        <time>2020-06-17T07:27:56Z</time>
      </trkpt>
      <trkpt lat="49.33597" lon="-0.69775">
        <ele>51.9</ele>
        <time>2020-06-17T07:27:57Z</time>
      </trkpt>
      <trkpt lat="49.33599" lon="-0.69763">
        <ele>51.8</ele>
        <time>2020-06-17T07:27:58Z</time>
      </trkpt>
      <trkpt lat="49.33599" lon="-0.69753">
        <ele>51.6</ele>
        <time>2020-06-17T07:27:59Z</time>
      </trkpt>
      <trkpt lat="49.336" lon="-0.69743">
        <ele>51.6</ele>
        <time>2020-06-17T07:28:00Z</time>
      </trkpt>
      <trkpt lat="49.33601" lon="-0.69734">
        <ele>51.6</ele>
        <time>2020-06-17T07:28:01Z</time>
      </trkpt>
      <trkpt lat="49.336" lon="-0.69723">
        <ele>51.7</ele>
        <time>2020-06-17T07:28:02Z</time>
      </trkpt>
      <trkpt lat="49.33598" lon="-0.69712">
        <ele>51.7</ele>
        <time>2020-06-17T07:28:03Z</time>
      </trkpt>
      <trkpt lat="49.33598" lon="-0.69702">
        <ele>51.7</ele>
        <time>2020-06-17T07:28:04Z</time>
      </trkpt>
      <trkpt lat="49.33596" lon="-0.69693">
        <ele>51.7</ele>
        <time>2020-06-17T07:28:05Z</time>
      </trkpt>
      <trkpt lat="49.33594" lon="-0.69683">
        <ele>51.6</ele>
        <time>2020-06-17T07:28:06Z</time>
      </trkpt>
      <trkpt lat="49.33593" lon="-0.69674">
        <ele>51.6</ele>
        <time>2020-06-17T07:28:07Z</time>
      </trkpt>
      <trkpt lat="49.3359" lon="-0.69665">
        <ele>51.6</ele>
        <time>2020-06-17T07:28:08Z</time>
      </trkpt>
      <trkpt lat="49.33589" lon="-0.69658">
        <ele>51.6</ele>
        <time>2020-06-17T07:28:09Z</time>
      </trkpt>
      <trkpt lat="49.33587" lon="-0.69651">
        <ele>51.6</ele>
        <time>2020-06-17T07:28:10Z</time>
      </trkpt>
      <trkpt lat="49.33583" lon="-0.69645">
        <ele>51.8</ele>
        <time>2020-06-17T07:28:11Z</time>
      </trkpt>
      <trkpt lat="49.33579" lon="-0.69637">
        <ele>52</ele>
        <time>2020-06-17T07:28:12Z</time>
      </trkpt>
      <trkpt lat="49.33578" lon="-0.6963">
        <ele>52.1</ele>
        <time>2020-06-17T07:28:13Z</time>
      </trkpt>
      <trkpt lat="49.33576" lon="-0.69622">
        <ele>52.3</ele>
        <time>2020-06-17T07:28:14Z</time>
      </trkpt>
      <trkpt lat="49.33574" lon="-0.69615">
        <ele>52.5</ele>
        <time>2020-06-17T07:28:15Z</time>
      </trkpt>
      <trkpt lat="49.33572" lon="-0.69608">
        <ele>52.7</ele>
        <time>2020-06-17T07:28:16Z</time>
      </trkpt>
      <trkpt lat="49.33571" lon="-0.69602">
        <ele>52.9</ele>
        <time>2020-06-17T07:28:17Z</time>
      </trkpt>
      <trkpt lat="49.33569" lon="-0.69596">
        <ele>53</ele>
        <time>2020-06-17T07:28:18Z</time>
      </trkpt>
      <trkpt lat="49.33568" lon="-0.69589">
        <ele>53.2</ele>
        <time>2020-06-17T07:28:19Z</time>
      </trkpt>
      <trkpt lat="49.33567" lon="-0.69584">
        <ele>53.3</ele>
        <time>2020-06-17T07:28:20Z</time>
      </trkpt>
      <trkpt lat="49.33567" lon="-0.69579">
        <ele>53.4</ele>
        <time>2020-06-17T07:28:21Z</time>
      </trkpt>
      <trkpt lat="49.33566" lon="-0.69574">
        <ele>53.5</ele>
        <time>2020-06-17T07:28:22Z</time>
      </trkpt>
      <trkpt lat="49.33566" lon="-0.69569">
        <ele>53.7</ele>
        <time>2020-06-17T07:28:23Z</time>
      </trkpt>
      <trkpt lat="49.33566" lon="-0.69564">
        <ele>53.8</ele>
        <time>2020-06-17T07:28:24Z</time>
      </trkpt>
      <trkpt lat="49.33567" lon="-0.69559">
        <ele>53.9</ele>
        <time>2020-06-17T07:28:25Z</time>
      </trkpt>
      <trkpt lat="49.33567" lon="-0.69554">
        <ele>54</ele>
        <time>2020-06-17T07:28:26Z</time>
      </trkpt>
      <trkpt lat="49.33567" lon="-0.69549">
        <ele>54.1</ele>
        <time>2020-06-17T07:28:27Z</time>
      </trkpt>
      <trkpt lat="49.33566" lon="-0.69543">
        <ele>54.3</ele>
        <time>2020-06-17T07:28:28Z</time>
      </trkpt>
      <trkpt lat="49.33566" lon="-0.69536">
        <ele>54.4</ele>
        <time>2020-06-17T07:28:29Z</time>
      </trkpt>
      <trkpt lat="49.33565" lon="-0.69528">
        <ele>54.6</ele>
        <time>2020-06-17T07:28:30Z</time>
      </trkpt>
      <trkpt lat="49.33564" lon="-0.69521">
        <ele>54.8</ele>
        <time>2020-06-17T07:28:31Z</time>
      </trkpt>
      <trkpt lat="49.33562" lon="-0.69514">
        <ele>54.9</ele>
        <time>2020-06-17T07:28:32Z</time>
      </trkpt>
      <trkpt lat="49.33559" lon="-0.69509">
        <ele>55</ele>
        <time>2020-06-17T07:28:33Z</time>
      </trkpt>
      <trkpt lat="49.3356" lon="-0.69503">
        <ele>55.1</ele>
        <time>2020-06-17T07:28:34Z</time>
      </trkpt>
      <trkpt lat="49.3356" lon="-0.69497">
        <ele>55.2</ele>
        <time>2020-06-17T07:28:35Z</time>
      </trkpt>
      <trkpt lat="49.3356" lon="-0.69491">
        <ele>55.3</ele>
        <time>2020-06-17T07:28:36Z</time>
      </trkpt>
      <trkpt lat="49.3356" lon="-0.69485">
        <ele>55.4</ele>
        <time>2020-06-17T07:28:37Z</time>
      </trkpt>
      <trkpt lat="49.33559" lon="-0.69477">
        <ele>55.5</ele>
        <time>2020-06-17T07:28:38Z</time>
      </trkpt>
      <trkpt lat="49.33558" lon="-0.69471">
        <ele>55.6</ele>
        <time>2020-06-17T07:28:39Z</time>
      </trkpt>
      <trkpt lat="49.33557" lon="-0.69465">
        <ele>55.6</ele>
        <time>2020-06-17T07:28:40Z</time>
      </trkpt>
      <trkpt lat="49.33557" lon="-0.6946">
        <ele>55.7</ele>
        <time>2020-06-17T07:28:41Z</time>
      </trkpt>
      <trkpt lat="49.33557" lon="-0.69454">
        <ele>55.7</ele>
        <time>2020-06-17T07:28:42Z</time>
      </trkpt>
      <trkpt lat="49.33556" lon="-0.69447">
        <ele>55.8</ele>
        <time>2020-06-17T07:28:43Z</time>
      </trkpt>
      <trkpt lat="49.33554" lon="-0.69441">
        <ele>55.8</ele>
        <time>2020-06-17T07:28:44Z</time>
      </trkpt>
      <trkpt lat="49.33553" lon="-0.69433">
        <ele>55.9</ele>
        <time>2020-06-17T07:28:45Z</time>
      </trkpt>
      <trkpt lat="49.33552" lon="-0.69426">
        <ele>55.9</ele>
        <time>2020-06-17T07:28:46Z</time>
      </trkpt>
      <trkpt lat="49.33551" lon="-0.69419">
        <ele>56</ele>
        <time>2020-06-17T07:28:47Z</time>
      </trkpt>
      <trkpt lat="49.33551" lon="-0.69411">
        <ele>56</ele>
        <time>2020-06-17T07:28:48Z</time>
      </trkpt>
      <trkpt lat="49.33551" lon="-0.69405">
        <ele>56.1</ele>
        <time>2020-06-17T07:28:49Z</time>
      </trkpt>
      <trkpt lat="49.3355" lon="-0.69399">
        <ele>56.1</ele>
        <time>2020-06-17T07:28:50Z</time>
      </trkpt>
      <trkpt lat="49.3355" lon="-0.69393">
        <ele>56.1</ele>
        <time>2020-06-17T07:28:51Z</time>
      </trkpt>
      <trkpt lat="49.33549" lon="-0.69387">
        <ele>56.2</ele>
        <time>2020-06-17T07:28:52Z</time>
      </trkpt>
      <trkpt lat="49.33549" lon="-0.69381">
        <ele>56.2</ele>
        <time>2020-06-17T07:28:53Z</time>
      </trkpt>
      <trkpt lat="49.33549" lon="-0.69376">
        <ele>56.3</ele>
        <time>2020-06-17T07:28:54Z</time>
      </trkpt>
      <trkpt lat="49.33549" lon="-0.69371">
        <ele>56.3</ele>
        <time>2020-06-17T07:28:55Z</time>
      </trkpt>
      <trkpt lat="49.33549" lon="-0.69366">
        <ele>56.3</ele>
        <time>2020-06-17T07:28:56Z</time>
      </trkpt>
      <trkpt lat="49.33549" lon="-0.69362">
        <ele>56.3</ele>
        <time>2020-06-17T07:28:57Z</time>
      </trkpt>
      <trkpt lat="49.33549" lon="-0.69356">
        <ele>56.4</ele>
        <time>2020-06-17T07:28:58Z</time>
      </trkpt>
      <trkpt lat="49.33549" lon="-0.69351">
        <ele>56.4</ele>
        <time>2020-06-17T07:28:59Z</time>
      </trkpt>
      <trkpt lat="49.33547" lon="-0.69345">
        <ele>56.4</ele>
        <time>2020-06-17T07:29:00Z</time>
      </trkpt>
      <trkpt lat="49.33546" lon="-0.69338">
        <ele>56.5</ele>
        <time>2020-06-17T07:29:01Z</time>
      </trkpt>
      <trkpt lat="49.33545" lon="-0.69331">
        <ele>56.5</ele>
        <time>2020-06-17T07:29:02Z</time>
      </trkpt>
      <trkpt lat="49.33544" lon="-0.69324">
        <ele>56.5</ele>
        <time>2020-06-17T07:29:03Z</time>
      </trkpt>
      <trkpt lat="49.33542" lon="-0.69317">
        <ele>56.5</ele>
        <time>2020-06-17T07:29:04Z</time>
      </trkpt>
      <trkpt lat="49.3354" lon="-0.69311">
        <ele>56.5</ele>
        <time>2020-06-17T07:29:05Z</time>
      </trkpt>
      <trkpt lat="49.33538" lon="-0.69304">
        <ele>56.5</ele>
        <time>2020-06-17T07:29:06Z</time>
      </trkpt>
      <trkpt lat="49.33536" lon="-0.69297">
        <ele>56.6</ele>
        <time>2020-06-17T07:29:07Z</time>
      </trkpt>
      <trkpt lat="49.33535" lon="-0.69291">
        <ele>56.6</ele>
        <time>2020-06-17T07:29:08Z</time>
      </trkpt>
      <trkpt lat="49.33533" lon="-0.69284">
        <ele>56.6</ele>
        <time>2020-06-17T07:29:09Z</time>
      </trkpt>
      <trkpt lat="49.33532" lon="-0.69276">
        <ele>56.6</ele>
        <time>2020-06-17T07:29:10Z</time>
      </trkpt>
      <trkpt lat="49.33531" lon="-0.69268">
        <ele>56.7</ele>
        <time>2020-06-17T07:29:11Z</time>
      </trkpt>
      <trkpt lat="49.3353" lon="-0.6926">
        <ele>56.7</ele>
        <time>2020-06-17T07:29:12Z</time>
      </trkpt>
      <trkpt lat="49.33529" lon="-0.69251">
        <ele>56.8</ele>
        <time>2020-06-17T07:29:13Z</time>
      </trkpt>
      <trkpt lat="49.33527" lon="-0.69241">
        <ele>56.8</ele>
        <time>2020-06-17T07:29:14Z</time>
      </trkpt>
      <trkpt lat="49.33525" lon="-0.69231">
        <ele>56.8</ele>
        <time>2020-06-17T07:29:15Z</time>
      </trkpt>
      <trkpt lat="49.33522" lon="-0.6922">
        <ele>56.9</ele>
        <time>2020-06-17T07:29:16Z</time>
      </trkpt>
      <trkpt lat="49.33519" lon="-0.69209">
        <ele>56.9</ele>
        <time>2020-06-17T07:29:17Z</time>
      </trkpt>
      <trkpt lat="49.33517" lon="-0.69198">
        <ele>56.9</ele>
        <time>2020-06-17T07:29:18Z</time>
      </trkpt>
      <trkpt lat="49.33515" lon="-0.69187">
        <ele>56.9</ele>
        <time>2020-06-17T07:29:19Z</time>
      </trkpt>
      <trkpt lat="49.33514" lon="-0.69177">
        <ele>57</ele>
        <time>2020-06-17T07:29:20Z</time>
      </trkpt>
      <trkpt lat="49.33512" lon="-0.69167">
        <ele>57</ele>
        <time>2020-06-17T07:29:21Z</time>
      </trkpt>
      <trkpt lat="49.33511" lon="-0.69157">
        <ele>57</ele>
        <time>2020-06-17T07:29:22Z</time>
      </trkpt>
      <trkpt lat="49.3351" lon="-0.69148">
        <ele>57</ele>
        <time>2020-06-17T07:29:23Z</time>
      </trkpt>
      <trkpt lat="49.33507" lon="-0.69139">
        <ele>57</ele>
        <time>2020-06-17T07:29:24Z</time>
      </trkpt>
      <trkpt lat="49.33506" lon="-0.69131">
        <ele>57</ele>
        <time>2020-06-17T07:29:25Z</time>
      </trkpt>
      <trkpt lat="49.33504" lon="-0.69123">
        <ele>57</ele>
        <time>2020-06-17T07:29:26Z</time>
      </trkpt>
      <trkpt lat="49.33502" lon="-0.69115">
        <ele>57</ele>
        <time>2020-06-17T07:29:27Z</time>
      </trkpt>
      <trkpt lat="49.33499" lon="-0.69106">
        <ele>57</ele>
        <time>2020-06-17T07:29:28Z</time>
      </trkpt>
      <trkpt lat="49.33498" lon="-0.69098">
        <ele>57</ele>
        <time>2020-06-17T07:29:29Z</time>
      </trkpt>
      <trkpt lat="49.33497" lon="-0.6909">
        <ele>57</ele>
        <time>2020-06-17T07:29:30Z</time>
      </trkpt>
      <trkpt lat="49.33496" lon="-0.69082">
        <ele>57</ele>
        <time>2020-06-17T07:29:31Z</time>
      </trkpt>
      <trkpt lat="49.33493" lon="-0.69074">
        <ele>57</ele>
        <time>2020-06-17T07:29:32Z</time>
      </trkpt>
      <trkpt lat="49.33491" lon="-0.69065">
        <ele>57</ele>
        <time>2020-06-17T07:29:33Z</time>
      </trkpt>
      <trkpt lat="49.33489" lon="-0.69057">
        <ele>57</ele>
        <time>2020-06-17T07:29:34Z</time>
      </trkpt>
      <trkpt lat="49.33487" lon="-0.69049">
        <ele>57.1</ele>
        <time>2020-06-17T07:29:35Z</time>
      </trkpt>
      <trkpt lat="49.33485" lon="-0.69042">
        <ele>57.1</ele>
        <time>2020-06-17T07:29:36Z</time>
      </trkpt>
      <trkpt lat="49.33483" lon="-0.69034">
        <ele>57.1</ele>
        <time>2020-06-17T07:29:37Z</time>
      </trkpt>
      <trkpt lat="49.3348" lon="-0.69025">
        <ele>57.1</ele>
        <time>2020-06-17T07:29:38Z</time>
      </trkpt>
      <trkpt lat="49.33478" lon="-0.69017">
        <ele>57.1</ele>
        <time>2020-06-17T07:29:39Z</time>
      </trkpt>
      <trkpt lat="49.33476" lon="-0.69009">
        <ele>57.2</ele>
        <time>2020-06-17T07:29:40Z</time>
      </trkpt>
      <trkpt lat="49.33473" lon="-0.69">
        <ele>57.2</ele>
        <time>2020-06-17T07:29:41Z</time>
      </trkpt>
      <trkpt lat="49.33471" lon="-0.68992">
        <ele>57.2</ele>
        <time>2020-06-17T07:29:42Z</time>
      </trkpt>
      <trkpt lat="49.33468" lon="-0.68983">
        <ele>57.1</ele>
        <time>2020-06-17T07:29:43Z</time>
      </trkpt>
      <trkpt lat="49.33466" lon="-0.68974">
        <ele>57.1</ele>
        <time>2020-06-17T07:29:44Z</time>
      </trkpt>
      <trkpt lat="49.33463" lon="-0.68966">
        <ele>57.1</ele>
        <time>2020-06-17T07:29:45Z</time>
      </trkpt>
      <trkpt lat="49.3346" lon="-0.68958">
        <ele>57</ele>
        <time>2020-06-17T07:29:46Z</time>
      </trkpt>
      <trkpt lat="49.33457" lon="-0.68949">
        <ele>57</ele>
        <time>2020-06-17T07:29:47Z</time>
      </trkpt>
      <trkpt lat="49.33454" lon="-0.68941">
        <ele>57</ele>
        <time>2020-06-17T07:29:48Z</time>
      </trkpt>
      <trkpt lat="49.33451" lon="-0.68931">
        <ele>57</ele>
        <time>2020-06-17T07:29:49Z</time>
      </trkpt>
      <trkpt lat="49.33448" lon="-0.68923">
        <ele>57</ele>
        <time>2020-06-17T07:29:50Z</time>
      </trkpt>
      <trkpt lat="49.33445" lon="-0.68913">
        <ele>57</ele>
        <time>2020-06-17T07:29:51Z</time>
      </trkpt>
      <trkpt lat="49.33442" lon="-0.68904">
        <ele>57</ele>
        <time>2020-06-17T07:29:52Z</time>
      </trkpt>
      <trkpt lat="49.33439" lon="-0.68895">
        <ele>57</ele>
        <time>2020-06-17T07:29:53Z</time>
      </trkpt>
      <trkpt lat="49.33436" lon="-0.68887">
        <ele>57</ele>
        <time>2020-06-17T07:29:54Z</time>
      </trkpt>
      <trkpt lat="49.33433" lon="-0.68879">
        <ele>57</ele>
        <time>2020-06-17T07:29:55Z</time>
      </trkpt>
      <trkpt lat="49.3343" lon="-0.68871">
        <ele>57</ele>
        <time>2020-06-17T07:29:56Z</time>
      </trkpt>
      <trkpt lat="49.33426" lon="-0.68865">
        <ele>57</ele>
        <time>2020-06-17T07:29:57Z</time>
      </trkpt>
      <trkpt lat="49.33424" lon="-0.68858">
        <ele>57</ele>
        <time>2020-06-17T07:29:58Z</time>
      </trkpt>
      <trkpt lat="49.33421" lon="-0.68851">
        <ele>56.9</ele>
        <time>2020-06-17T07:29:59Z</time>
      </trkpt>
      <trkpt lat="49.33418" lon="-0.68844">
        <ele>56.9</ele>
        <time>2020-06-17T07:30:00Z</time>
      </trkpt>
      <trkpt lat="49.33416" lon="-0.68836">
        <ele>56.9</ele>
        <time>2020-06-17T07:30:01Z</time>
      </trkpt>
      <trkpt lat="49.33413" lon="-0.6883">
        <ele>56.9</ele>
        <time>2020-06-17T07:30:02Z</time>
      </trkpt>
      <trkpt lat="49.33411" lon="-0.68823">
        <ele>56.8</ele>
        <time>2020-06-17T07:30:03Z</time>
      </trkpt>
      <trkpt lat="49.33409" lon="-0.68815">
        <ele>56.8</ele>
        <time>2020-06-17T07:30:04Z</time>
      </trkpt>
      <trkpt lat="49.33406" lon="-0.68807">
        <ele>56.8</ele>
        <time>2020-06-17T07:30:05Z</time>
      </trkpt>
      <trkpt lat="49.33403" lon="-0.68799">
        <ele>56.7</ele>
        <time>2020-06-17T07:30:06Z</time>
      </trkpt>
      <trkpt lat="49.33401" lon="-0.68791">
        <ele>56.7</ele>
        <time>2020-06-17T07:30:07Z</time>
      </trkpt>
      <trkpt lat="49.334" lon="-0.68782">
        <ele>56.6</ele>
        <time>2020-06-17T07:30:08Z</time>
      </trkpt>
      <trkpt lat="49.33399" lon="-0.68775">
        <ele>56.6</ele>
        <time>2020-06-17T07:30:09Z</time>
      </trkpt>
      <trkpt lat="49.33398" lon="-0.68767">
        <ele>56.6</ele>
        <time>2020-06-17T07:30:10Z</time>
      </trkpt>
      <trkpt lat="49.33397" lon="-0.68758">
        <ele>56.6</ele>
        <time>2020-06-17T07:30:11Z</time>
      </trkpt>
      <trkpt lat="49.33396" lon="-0.6875">
        <ele>56.5</ele>
        <time>2020-06-17T07:30:12Z</time>
      </trkpt>
      <trkpt lat="49.33395" lon="-0.68743">
        <ele>56.5</ele>
        <time>2020-06-17T07:30:13Z</time>
      </trkpt>
      <trkpt lat="49.33395" lon="-0.68736">
        <ele>56.5</ele>
        <time>2020-06-17T07:30:14Z</time>
      </trkpt>
      <trkpt lat="49.33395" lon="-0.68728">
        <ele>56.5</ele>
        <time>2020-06-17T07:30:15Z</time>
      </trkpt>
      <trkpt lat="49.33394" lon="-0.68717">
        <ele>56.5</ele>
        <time>2020-06-17T07:30:16Z</time>
      </trkpt>
      <trkpt lat="49.33393" lon="-0.68708">
        <ele>56.5</ele>
        <time>2020-06-17T07:30:17Z</time>
      </trkpt>
      <trkpt lat="49.33392" lon="-0.68698">
        <ele>56.5</ele>
        <time>2020-06-17T07:30:18Z</time>
      </trkpt>
      <trkpt lat="49.33391" lon="-0.68688">
        <ele>56.5</ele>
        <time>2020-06-17T07:30:19Z</time>
      </trkpt>
      <trkpt lat="49.33391" lon="-0.68678">
        <ele>56.5</ele>
        <time>2020-06-17T07:30:20Z</time>
      </trkpt>
      <trkpt lat="49.3339" lon="-0.68667">
        <ele>56.5</ele>
        <time>2020-06-17T07:30:21Z</time>
      </trkpt>
      <trkpt lat="49.3339" lon="-0.68657">
        <ele>56.5</ele>
        <time>2020-06-17T07:30:22Z</time>
      </trkpt>
      <trkpt lat="49.33389" lon="-0.68646">
        <ele>56.5</ele>
        <time>2020-06-17T07:30:23Z</time>
      </trkpt>
      <trkpt lat="49.33389" lon="-0.68635">
        <ele>56.5</ele>
        <time>2020-06-17T07:30:24Z</time>
      </trkpt>
      <trkpt lat="49.33388" lon="-0.68625">
        <ele>56.5</ele>
        <time>2020-06-17T07:30:25Z</time>
      </trkpt>
      <trkpt lat="49.33387" lon="-0.68613">
        <ele>56.5</ele>
        <time>2020-06-17T07:30:26Z</time>
      </trkpt>
      <trkpt lat="49.33385" lon="-0.68602">
        <ele>56.4</ele>
        <time>2020-06-17T07:30:27Z</time>
      </trkpt>
      <trkpt lat="49.33384" lon="-0.68593">
        <ele>56.4</ele>
        <time>2020-06-17T07:30:28Z</time>
      </trkpt>
      <trkpt lat="49.33382" lon="-0.68584">
        <ele>56.5</ele>
        <time>2020-06-17T07:30:29Z</time>
      </trkpt>
      <trkpt lat="49.33381" lon="-0.68575">
        <ele>56.5</ele>
        <time>2020-06-17T07:30:30Z</time>
      </trkpt>
      <trkpt lat="49.33379" lon="-0.68565">
        <ele>56.5</ele>
        <time>2020-06-17T07:30:31Z</time>
      </trkpt>
      <trkpt lat="49.33377" lon="-0.68555">
        <ele>56.5</ele>
        <time>2020-06-17T07:30:32Z</time>
      </trkpt>
      <trkpt lat="49.33374" lon="-0.68545">
        <ele>56.4</ele>
        <time>2020-06-17T07:30:33Z</time>
      </trkpt>
      <trkpt lat="49.33372" lon="-0.68534">
        <ele>56.4</ele>
        <time>2020-06-17T07:30:34Z</time>
      </trkpt>
      <trkpt lat="49.33369" lon="-0.68524">
        <ele>56.4</ele>
        <time>2020-06-17T07:30:35Z</time>
      </trkpt>
      <trkpt lat="49.33366" lon="-0.68515">
        <ele>56.4</ele>
        <time>2020-06-17T07:30:36Z</time>
      </trkpt>
      <trkpt lat="49.33363" lon="-0.68506">
        <ele>56.5</ele>
        <time>2020-06-17T07:30:37Z</time>
      </trkpt>
      <trkpt lat="49.3336" lon="-0.68496">
        <ele>56.5</ele>
        <time>2020-06-17T07:30:38Z</time>
      </trkpt>
      <trkpt lat="49.33357" lon="-0.68489">
        <ele>56.6</ele>
        <time>2020-06-17T07:30:39Z</time>
      </trkpt>
      <trkpt lat="49.33355" lon="-0.68481">
        <ele>56.6</ele>
        <time>2020-06-17T07:30:40Z</time>
      </trkpt>
      <trkpt lat="49.33353" lon="-0.68472">
        <ele>56.7</ele>
        <time>2020-06-17T07:30:41Z</time>
      </trkpt>
      <trkpt lat="49.33352" lon="-0.68464">
        <ele>56.7</ele>
        <time>2020-06-17T07:30:42Z</time>
      </trkpt>
      <trkpt lat="49.3335" lon="-0.68455">
        <ele>56.8</ele>
        <time>2020-06-17T07:30:43Z</time>
      </trkpt>
      <trkpt lat="49.3335" lon="-0.68446">
        <ele>56.9</ele>
        <time>2020-06-17T07:30:44Z</time>
      </trkpt>
      <trkpt lat="49.33349" lon="-0.68438">
        <ele>56.9</ele>
        <time>2020-06-17T07:30:45Z</time>
      </trkpt>
      <trkpt lat="49.33347" lon="-0.68431">
        <ele>57</ele>
        <time>2020-06-17T07:30:46Z</time>
      </trkpt>
      <trkpt lat="49.33346" lon="-0.68423">
        <ele>57</ele>
        <time>2020-06-17T07:30:47Z</time>
      </trkpt>
      <trkpt lat="49.33345" lon="-0.68415">
        <ele>57.1</ele>
        <time>2020-06-17T07:30:48Z</time>
      </trkpt>
      <trkpt lat="49.33344" lon="-0.68406">
        <ele>57.2</ele>
        <time>2020-06-17T07:30:49Z</time>
      </trkpt>
      <trkpt lat="49.33343" lon="-0.68396">
        <ele>57.3</ele>
        <time>2020-06-17T07:30:50Z</time>
      </trkpt>
      <trkpt lat="49.33343" lon="-0.68387">
        <ele>57.3</ele>
        <time>2020-06-17T07:30:51Z</time>
      </trkpt>
      <trkpt lat="49.33343" lon="-0.68377">
        <ele>57.4</ele>
        <time>2020-06-17T07:30:52Z</time>
      </trkpt>
      <trkpt lat="49.33342" lon="-0.68368">
        <ele>57.6</ele>
        <time>2020-06-17T07:30:53Z</time>
      </trkpt>
      <trkpt lat="49.33341" lon="-0.68359">
        <ele>57.7</ele>
        <time>2020-06-17T07:30:54Z</time>
      </trkpt>
      <trkpt lat="49.33341" lon="-0.68352">
        <ele>57.8</ele>
        <time>2020-06-17T07:30:55Z</time>
      </trkpt>
      <trkpt lat="49.33341" lon="-0.68342">
        <ele>57.9</ele>
        <time>2020-06-17T07:30:56Z</time>
      </trkpt>
      <trkpt lat="49.3334" lon="-0.68332">
        <ele>58</ele>
        <time>2020-06-17T07:30:57Z</time>
      </trkpt>
      <trkpt lat="49.3334" lon="-0.68323">
        <ele>58.1</ele>
        <time>2020-06-17T07:30:58Z</time>
      </trkpt>
      <trkpt lat="49.3334" lon="-0.68314">
        <ele>58.2</ele>
        <time>2020-06-17T07:30:59Z</time>
      </trkpt>
      <trkpt lat="49.3334" lon="-0.68305">
        <ele>58.3</ele>
        <time>2020-06-17T07:31:00Z</time>
      </trkpt>
      <trkpt lat="49.3334" lon="-0.68297">
        <ele>58.4</ele>
        <time>2020-06-17T07:31:01Z</time>
      </trkpt>
      <trkpt lat="49.33339" lon="-0.68289">
        <ele>58.5</ele>
        <time>2020-06-17T07:31:02Z</time>
      </trkpt>
      <trkpt lat="49.33339" lon="-0.68279">
        <ele>58.6</ele>
        <time>2020-06-17T07:31:03Z</time>
      </trkpt>
      <trkpt lat="49.33339" lon="-0.6827">
        <ele>58.7</ele>
        <time>2020-06-17T07:31:04Z</time>
      </trkpt>
      <trkpt lat="49.33339" lon="-0.68261">
        <ele>58.8</ele>
        <time>2020-06-17T07:31:05Z</time>
      </trkpt>
      <trkpt lat="49.33339" lon="-0.68253">
        <ele>58.9</ele>
        <time>2020-06-17T07:31:06Z</time>
      </trkpt>
      <trkpt lat="49.33339" lon="-0.68244">
        <ele>58.9</ele>
        <time>2020-06-17T07:31:07Z</time>
      </trkpt>
      <trkpt lat="49.33339" lon="-0.68236">
        <ele>59</ele>
        <time>2020-06-17T07:31:08Z</time>
      </trkpt>
      <trkpt lat="49.33338" lon="-0.68228">
        <ele>59.1</ele>
        <time>2020-06-17T07:31:09Z</time>
      </trkpt>
      <trkpt lat="49.33338" lon="-0.6822">
        <ele>59.1</ele>
        <time>2020-06-17T07:31:10Z</time>
      </trkpt>
      <trkpt lat="49.33337" lon="-0.68212">
        <ele>59.2</ele>
        <time>2020-06-17T07:31:11Z</time>
      </trkpt>
      <trkpt lat="49.33336" lon="-0.68204">
        <ele>59.2</ele>
        <time>2020-06-17T07:31:12Z</time>
      </trkpt>
      <trkpt lat="49.33336" lon="-0.68195">
        <ele>59.3</ele>
        <time>2020-06-17T07:31:13Z</time>
      </trkpt>
      <trkpt lat="49.33336" lon="-0.68188">
        <ele>59.3</ele>
        <time>2020-06-17T07:31:14Z</time>
      </trkpt>
      <trkpt lat="49.33334" lon="-0.68178">
        <ele>59.4</ele>
        <time>2020-06-17T07:31:15Z</time>
      </trkpt>
      <trkpt lat="49.33332" lon="-0.68168">
        <ele>59.5</ele>
        <time>2020-06-17T07:31:16Z</time>
      </trkpt>
      <trkpt lat="49.33331" lon="-0.68159">
        <ele>59.5</ele>
        <time>2020-06-17T07:31:17Z</time>
      </trkpt>
      <trkpt lat="49.33329" lon="-0.68151">
        <ele>59.6</ele>
        <time>2020-06-17T07:31:18Z</time>
      </trkpt>
      <trkpt lat="49.33328" lon="-0.68143">
        <ele>59.6</ele>
        <time>2020-06-17T07:31:19Z</time>
      </trkpt>
      <trkpt lat="49.33326" lon="-0.68135">
        <ele>59.7</ele>
        <time>2020-06-17T07:31:20Z</time>
      </trkpt>
      <trkpt lat="49.33324" lon="-0.68125">
        <ele>59.8</ele>
        <time>2020-06-17T07:31:21Z</time>
      </trkpt>
      <trkpt lat="49.33323" lon="-0.68114">
        <ele>59.9</ele>
        <time>2020-06-17T07:31:22Z</time>
      </trkpt>
      <trkpt lat="49.33322" lon="-0.68103">
        <ele>60</ele>
        <time>2020-06-17T07:31:23Z</time>
      </trkpt>
      <trkpt lat="49.3332" lon="-0.68094">
        <ele>60.1</ele>
        <time>2020-06-17T07:31:24Z</time>
      </trkpt>
      <trkpt lat="49.33319" lon="-0.68087">
        <ele>60.1</ele>
        <time>2020-06-17T07:31:25Z</time>
      </trkpt>
      <trkpt lat="49.33317" lon="-0.68078">
        <ele>60.2</ele>
        <time>2020-06-17T07:31:26Z</time>
      </trkpt>
      <trkpt lat="49.33315" lon="-0.68071">
        <ele>60.1</ele>
        <time>2020-06-17T07:31:27Z</time>
      </trkpt>
      <trkpt lat="49.33314" lon="-0.68064">
        <ele>60.1</ele>
        <time>2020-06-17T07:31:28Z</time>
      </trkpt>
      <trkpt lat="49.33313" lon="-0.68056">
        <ele>60.1</ele>
        <time>2020-06-17T07:31:29Z</time>
      </trkpt>
      <trkpt lat="49.33311" lon="-0.68049">
        <ele>60.1</ele>
        <time>2020-06-17T07:31:30Z</time>
      </trkpt>
      <trkpt lat="49.33309" lon="-0.68041">
        <ele>60.1</ele>
        <time>2020-06-17T07:31:31Z</time>
      </trkpt>
      <trkpt lat="49.33307" lon="-0.68034">
        <ele>60.1</ele>
        <time>2020-06-17T07:31:32Z</time>
      </trkpt>
      <trkpt lat="49.33305" lon="-0.68027">
        <ele>60.1</ele>
        <time>2020-06-17T07:31:33Z</time>
      </trkpt>
      <trkpt lat="49.33303" lon="-0.6802">
        <ele>60.1</ele>
        <time>2020-06-17T07:31:34Z</time>
      </trkpt>
      <trkpt lat="49.33301" lon="-0.68012">
        <ele>60.2</ele>
        <time>2020-06-17T07:31:35Z</time>
      </trkpt>
      <trkpt lat="49.333" lon="-0.68007">
        <ele>60.2</ele>
        <time>2020-06-17T07:31:36Z</time>
      </trkpt>
      <trkpt lat="49.33298" lon="-0.68001">
        <ele>60.2</ele>
        <time>2020-06-17T07:31:37Z</time>
      </trkpt>
      <trkpt lat="49.33296" lon="-0.67994">
        <ele>60.3</ele>
        <time>2020-06-17T07:31:38Z</time>
      </trkpt>
      <trkpt lat="49.33293" lon="-0.67986">
        <ele>60.3</ele>
        <time>2020-06-17T07:31:39Z</time>
      </trkpt>
      <trkpt lat="49.33291" lon="-0.67978">
        <ele>60.3</ele>
        <time>2020-06-17T07:31:40Z</time>
      </trkpt>
      <trkpt lat="49.33289" lon="-0.6797">
        <ele>60.3</ele>
        <time>2020-06-17T07:31:41Z</time>
      </trkpt>
      <trkpt lat="49.33287" lon="-0.67962">
        <ele>60.3</ele>
        <time>2020-06-17T07:31:42Z</time>
      </trkpt>
      <trkpt lat="49.33284" lon="-0.67952">
        <ele>60.3</ele>
        <time>2020-06-17T07:31:43Z</time>
      </trkpt>
      <trkpt lat="49.33281" lon="-0.67942">
        <ele>60.3</ele>
        <time>2020-06-17T07:31:44Z</time>
      </trkpt>
      <trkpt lat="49.33278" lon="-0.67933">
        <ele>60.3</ele>
        <time>2020-06-17T07:31:45Z</time>
      </trkpt>
      <trkpt lat="49.33276" lon="-0.67924">
        <ele>60.3</ele>
        <time>2020-06-17T07:31:46Z</time>
      </trkpt>
      <trkpt lat="49.33273" lon="-0.67915">
        <ele>60.3</ele>
        <time>2020-06-17T07:31:47Z</time>
      </trkpt>
      <trkpt lat="49.33271" lon="-0.67905">
        <ele>60.3</ele>
        <time>2020-06-17T07:31:48Z</time>
      </trkpt>
      <trkpt lat="49.33269" lon="-0.67896">
        <ele>60.3</ele>
        <time>2020-06-17T07:31:49Z</time>
      </trkpt>
      <trkpt lat="49.33267" lon="-0.67888">
        <ele>60.3</ele>
        <time>2020-06-17T07:31:50Z</time>
      </trkpt>
      <trkpt lat="49.33265" lon="-0.6788">
        <ele>60.3</ele>
        <time>2020-06-17T07:31:51Z</time>
      </trkpt>
      <trkpt lat="49.33264" lon="-0.67872">
        <ele>60.3</ele>
        <time>2020-06-17T07:31:52Z</time>
      </trkpt>
      <trkpt lat="49.33263" lon="-0.67864">
        <ele>60.4</ele>
        <time>2020-06-17T07:31:53Z</time>
      </trkpt>
      <trkpt lat="49.33262" lon="-0.67855">
        <ele>60.4</ele>
        <time>2020-06-17T07:31:54Z</time>
      </trkpt>
      <trkpt lat="49.33261" lon="-0.67846">
        <ele>60.4</ele>
        <time>2020-06-17T07:31:55Z</time>
      </trkpt>
      <trkpt lat="49.3326" lon="-0.67838">
        <ele>60.4</ele>
        <time>2020-06-17T07:31:56Z</time>
      </trkpt>
      <trkpt lat="49.33259" lon="-0.67829">
        <ele>60.5</ele>
        <time>2020-06-17T07:31:57Z</time>
      </trkpt>
      <trkpt lat="49.33259" lon="-0.67821">
        <ele>60.5</ele>
        <time>2020-06-17T07:31:58Z</time>
      </trkpt>
      <trkpt lat="49.33259" lon="-0.67812">
        <ele>60.6</ele>
        <time>2020-06-17T07:31:59Z</time>
      </trkpt>
      <trkpt lat="49.33259" lon="-0.678">
        <ele>60.7</ele>
        <time>2020-06-17T07:32:00Z</time>
      </trkpt>
      <trkpt lat="49.33259" lon="-0.67788">
        <ele>60.8</ele>
        <time>2020-06-17T07:32:01Z</time>
      </trkpt>
      <trkpt lat="49.33259" lon="-0.67777">
        <ele>61</ele>
        <time>2020-06-17T07:32:02Z</time>
      </trkpt>
      <trkpt lat="49.33259" lon="-0.67768">
        <ele>61</ele>
        <time>2020-06-17T07:32:03Z</time>
      </trkpt>
      <trkpt lat="49.33259" lon="-0.67756">
        <ele>61.1</ele>
        <time>2020-06-17T07:32:04Z</time>
      </trkpt>
      <trkpt lat="49.33259" lon="-0.67744">
        <ele>61.2</ele>
        <time>2020-06-17T07:32:05Z</time>
      </trkpt>
      <trkpt lat="49.33258" lon="-0.67732">
        <ele>61.3</ele>
        <time>2020-06-17T07:32:06Z</time>
      </trkpt>
      <trkpt lat="49.33259" lon="-0.67721">
        <ele>61.3</ele>
        <time>2020-06-17T07:32:07Z</time>
      </trkpt>
      <trkpt lat="49.33259" lon="-0.67709">
        <ele>61.4</ele>
        <time>2020-06-17T07:32:08Z</time>
      </trkpt>
      <trkpt lat="49.33259" lon="-0.677">
        <ele>61.5</ele>
        <time>2020-06-17T07:32:09Z</time>
      </trkpt>
      <trkpt lat="49.33259" lon="-0.67691">
        <ele>61.6</ele>
        <time>2020-06-17T07:32:10Z</time>
      </trkpt>
      <trkpt lat="49.33258" lon="-0.67681">
        <ele>61.6</ele>
        <time>2020-06-17T07:32:11Z</time>
      </trkpt>
      <trkpt lat="49.33258" lon="-0.67672">
        <ele>61.7</ele>
        <time>2020-06-17T07:32:12Z</time>
      </trkpt>
      <trkpt lat="49.33256" lon="-0.67663">
        <ele>61.8</ele>
        <time>2020-06-17T07:32:13Z</time>
      </trkpt>
      <trkpt lat="49.33255" lon="-0.67652">
        <ele>61.9</ele>
        <time>2020-06-17T07:32:14Z</time>
      </trkpt>
      <trkpt lat="49.33253" lon="-0.67644">
        <ele>61.9</ele>
        <time>2020-06-17T07:32:15Z</time>
      </trkpt>
      <trkpt lat="49.33252" lon="-0.67635">
        <ele>61.9</ele>
        <time>2020-06-17T07:32:16Z</time>
      </trkpt>
      <trkpt lat="49.33251" lon="-0.67625">
        <ele>61.9</ele>
        <time>2020-06-17T07:32:17Z</time>
      </trkpt>
      <trkpt lat="49.3325" lon="-0.67615">
        <ele>61.9</ele>
        <time>2020-06-17T07:32:18Z</time>
      </trkpt>
      <trkpt lat="49.33249" lon="-0.67607">
        <ele>61.9</ele>
        <time>2020-06-17T07:32:19Z</time>
      </trkpt>
      <trkpt lat="49.33248" lon="-0.67598">
        <ele>61.9</ele>
        <time>2020-06-17T07:32:20Z</time>
      </trkpt>
      <trkpt lat="49.33247" lon="-0.67589">
        <ele>62</ele>
        <time>2020-06-17T07:32:21Z</time>
      </trkpt>
      <trkpt lat="49.33246" lon="-0.67579">
        <ele>62</ele>
        <time>2020-06-17T07:32:22Z</time>
      </trkpt>
      <trkpt lat="49.33244" lon="-0.67568">
        <ele>62</ele>
        <time>2020-06-17T07:32:23Z</time>
      </trkpt>
      <trkpt lat="49.33242" lon="-0.67558">
        <ele>62.1</ele>
        <time>2020-06-17T07:32:24Z</time>
      </trkpt>
      <trkpt lat="49.3324" lon="-0.67549">
        <ele>62.1</ele>
        <time>2020-06-17T07:32:25Z</time>
      </trkpt>
      <trkpt lat="49.33238" lon="-0.67539">
        <ele>62.1</ele>
        <time>2020-06-17T07:32:26Z</time>
      </trkpt>
      <trkpt lat="49.33235" lon="-0.67529">
        <ele>62</ele>
        <time>2020-06-17T07:32:27Z</time>
      </trkpt>
      <trkpt lat="49.33232" lon="-0.67519">
        <ele>62</ele>
        <time>2020-06-17T07:32:28Z</time>
      </trkpt>
      <trkpt lat="49.3323" lon="-0.6751">
        <ele>62</ele>
        <time>2020-06-17T07:32:29Z</time>
      </trkpt>
      <trkpt lat="49.33227" lon="-0.675">
        <ele>61.9</ele>
        <time>2020-06-17T07:32:30Z</time>
      </trkpt>
      <trkpt lat="49.33225" lon="-0.67491">
        <ele>61.9</ele>
        <time>2020-06-17T07:32:31Z</time>
      </trkpt>
      <trkpt lat="49.33223" lon="-0.67481">
        <ele>61.9</ele>
        <time>2020-06-17T07:32:32Z</time>
      </trkpt>
      <trkpt lat="49.33222" lon="-0.67473">
        <ele>61.9</ele>
        <time>2020-06-17T07:32:33Z</time>
      </trkpt>
      <trkpt lat="49.33219" lon="-0.67465">
        <ele>61.9</ele>
        <time>2020-06-17T07:32:34Z</time>
      </trkpt>
      <trkpt lat="49.33217" lon="-0.67455">
        <ele>61.9</ele>
        <time>2020-06-17T07:32:35Z</time>
      </trkpt>
      <trkpt lat="49.33214" lon="-0.67445">
        <ele>61.9</ele>
        <time>2020-06-17T07:32:36Z</time>
      </trkpt>
      <trkpt lat="49.33211" lon="-0.67437">
        <ele>61.9</ele>
        <time>2020-06-17T07:32:37Z</time>
      </trkpt>
      <trkpt lat="49.33208" lon="-0.67428">
        <ele>61.9</ele>
        <time>2020-06-17T07:32:38Z</time>
      </trkpt>
      <trkpt lat="49.33205" lon="-0.67421">
        <ele>61.9</ele>
        <time>2020-06-17T07:32:39Z</time>
      </trkpt>
      <trkpt lat="49.33202" lon="-0.67413">
        <ele>61.9</ele>
        <time>2020-06-17T07:32:40Z</time>
      </trkpt>
      <trkpt lat="49.332" lon="-0.67405">
        <ele>61.9</ele>
        <time>2020-06-17T07:32:41Z</time>
      </trkpt>
      <trkpt lat="49.33198" lon="-0.67398">
        <ele>61.9</ele>
        <time>2020-06-17T07:32:42Z</time>
      </trkpt>
      <trkpt lat="49.33195" lon="-0.67389">
        <ele>61.9</ele>
        <time>2020-06-17T07:32:43Z</time>
      </trkpt>
      <trkpt lat="49.33193" lon="-0.67381">
        <ele>61.9</ele>
        <time>2020-06-17T07:32:44Z</time>
      </trkpt>
      <trkpt lat="49.3319" lon="-0.67374">
        <ele>61.9</ele>
        <time>2020-06-17T07:32:45Z</time>
      </trkpt>
      <trkpt lat="49.33188" lon="-0.67366">
        <ele>61.9</ele>
        <time>2020-06-17T07:32:46Z</time>
      </trkpt>
      <trkpt lat="49.33186" lon="-0.67358">
        <ele>61.9</ele>
        <time>2020-06-17T07:32:47Z</time>
      </trkpt>
      <trkpt lat="49.33184" lon="-0.6735">
        <ele>61.9</ele>
        <time>2020-06-17T07:32:48Z</time>
      </trkpt>
      <trkpt lat="49.33183" lon="-0.6734">
        <ele>61.9</ele>
        <time>2020-06-17T07:32:49Z</time>
      </trkpt>
      <trkpt lat="49.33182" lon="-0.67331">
        <ele>61.9</ele>
        <time>2020-06-17T07:32:50Z</time>
      </trkpt>
      <trkpt lat="49.33181" lon="-0.67321">
        <ele>61.9</ele>
        <time>2020-06-17T07:32:51Z</time>
      </trkpt>
      <trkpt lat="49.33181" lon="-0.67312">
        <ele>61.9</ele>
        <time>2020-06-17T07:32:52Z</time>
      </trkpt>
      <trkpt lat="49.3318" lon="-0.67302">
        <ele>61.9</ele>
        <time>2020-06-17T07:32:53Z</time>
      </trkpt>
      <trkpt lat="49.3318" lon="-0.67292">
        <ele>61.9</ele>
        <time>2020-06-17T07:32:54Z</time>
      </trkpt>
      <trkpt lat="49.3318" lon="-0.67281">
        <ele>62</ele>
        <time>2020-06-17T07:32:55Z</time>
      </trkpt>
      <trkpt lat="49.3318" lon="-0.67271">
        <ele>62</ele>
        <time>2020-06-17T07:32:56Z</time>
      </trkpt>
      <trkpt lat="49.33181" lon="-0.6726">
        <ele>62</ele>
        <time>2020-06-17T07:32:57Z</time>
      </trkpt>
      <trkpt lat="49.33182" lon="-0.67249">
        <ele>62</ele>
        <time>2020-06-17T07:32:58Z</time>
      </trkpt>
      <trkpt lat="49.33183" lon="-0.67238">
        <ele>62.1</ele>
        <time>2020-06-17T07:32:59Z</time>
      </trkpt>
      <trkpt lat="49.33184" lon="-0.67227">
        <ele>62</ele>
        <time>2020-06-17T07:33:00Z</time>
      </trkpt>
      <trkpt lat="49.33186" lon="-0.67216">
        <ele>62</ele>
        <time>2020-06-17T07:33:01Z</time>
      </trkpt>
      <trkpt lat="49.33187" lon="-0.67206">
        <ele>62</ele>
        <time>2020-06-17T07:33:02Z</time>
      </trkpt>
      <trkpt lat="49.33189" lon="-0.67198">
        <ele>62</ele>
        <time>2020-06-17T07:33:03Z</time>
      </trkpt>
      <trkpt lat="49.33191" lon="-0.67187">
        <ele>62</ele>
        <time>2020-06-17T07:33:04Z</time>
      </trkpt>
      <trkpt lat="49.33192" lon="-0.67177">
        <ele>62</ele>
        <time>2020-06-17T07:33:05Z</time>
      </trkpt>
      <trkpt lat="49.33194" lon="-0.67169">
        <ele>62</ele>
        <time>2020-06-17T07:33:06Z</time>
      </trkpt>
      <trkpt lat="49.33196" lon="-0.67161">
        <ele>62</ele>
        <time>2020-06-17T07:33:07Z</time>
      </trkpt>
      <trkpt lat="49.33197" lon="-0.67152">
        <ele>62</ele>
        <time>2020-06-17T07:33:08Z</time>
      </trkpt>
      <trkpt lat="49.33199" lon="-0.67144">
        <ele>62</ele>
        <time>2020-06-17T07:33:09Z</time>
      </trkpt>
      <trkpt lat="49.33201" lon="-0.67135">
        <ele>62</ele>
        <time>2020-06-17T07:33:10Z</time>
      </trkpt>
      <trkpt lat="49.33203" lon="-0.67125">
        <ele>62</ele>
        <time>2020-06-17T07:33:11Z</time>
      </trkpt>
      <trkpt lat="49.33205" lon="-0.67117">
        <ele>62</ele>
        <time>2020-06-17T07:33:12Z</time>
      </trkpt>
      <trkpt lat="49.33207" lon="-0.67107">
        <ele>62</ele>
        <time>2020-06-17T07:33:13Z</time>
      </trkpt>
      <trkpt lat="49.33209" lon="-0.67097">
        <ele>62</ele>
        <time>2020-06-17T07:33:14Z</time>
      </trkpt>
      <trkpt lat="49.33212" lon="-0.67088">
        <ele>62.1</ele>
        <time>2020-06-17T07:33:15Z</time>
      </trkpt>
      <trkpt lat="49.33214" lon="-0.6708">
        <ele>62.1</ele>
        <time>2020-06-17T07:33:16Z</time>
      </trkpt>
      <trkpt lat="49.33216" lon="-0.67071">
        <ele>62.1</ele>
        <time>2020-06-17T07:33:17Z</time>
      </trkpt>
      <trkpt lat="49.33218" lon="-0.67062">
        <ele>62.1</ele>
        <time>2020-06-17T07:33:18Z</time>
      </trkpt>
      <trkpt lat="49.3322" lon="-0.67054">
        <ele>62.2</ele>
        <time>2020-06-17T07:33:19Z</time>
      </trkpt>
      <trkpt lat="49.33222" lon="-0.67046">
        <ele>62.2</ele>
        <time>2020-06-17T07:33:20Z</time>
      </trkpt>
      <trkpt lat="49.33224" lon="-0.67036">
        <ele>62.2</ele>
        <time>2020-06-17T07:33:21Z</time>
      </trkpt>
      <trkpt lat="49.33227" lon="-0.67027">
        <ele>62.2</ele>
        <time>2020-06-17T07:33:22Z</time>
      </trkpt>
      <trkpt lat="49.33229" lon="-0.67018">
        <ele>62.2</ele>
        <time>2020-06-17T07:33:23Z</time>
      </trkpt>
      <trkpt lat="49.33231" lon="-0.6701">
        <ele>62.2</ele>
        <time>2020-06-17T07:33:24Z</time>
      </trkpt>
      <trkpt lat="49.33233" lon="-0.67">
        <ele>62.2</ele>
        <time>2020-06-17T07:33:25Z</time>
      </trkpt>
      <trkpt lat="49.33235" lon="-0.66991">
        <ele>62.2</ele>
        <time>2020-06-17T07:33:26Z</time>
      </trkpt>
      <trkpt lat="49.33236" lon="-0.66982">
        <ele>62.2</ele>
        <time>2020-06-17T07:33:27Z</time>
      </trkpt>
      <trkpt lat="49.33239" lon="-0.66972">
        <ele>62.1</ele>
        <time>2020-06-17T07:33:28Z</time>
      </trkpt>
      <trkpt lat="49.33241" lon="-0.66963">
        <ele>62.1</ele>
        <time>2020-06-17T07:33:29Z</time>
      </trkpt>
      <trkpt lat="49.33243" lon="-0.66953">
        <ele>62.1</ele>
        <time>2020-06-17T07:33:30Z</time>
      </trkpt>
      <trkpt lat="49.33246" lon="-0.66943">
        <ele>62.1</ele>
        <time>2020-06-17T07:33:31Z</time>
      </trkpt>
      <trkpt lat="49.33248" lon="-0.66933">
        <ele>62</ele>
        <time>2020-06-17T07:33:32Z</time>
      </trkpt>
      <trkpt lat="49.3325" lon="-0.66923">
        <ele>62</ele>
        <time>2020-06-17T07:33:33Z</time>
      </trkpt>
      <trkpt lat="49.33252" lon="-0.66914">
        <ele>62</ele>
        <time>2020-06-17T07:33:34Z</time>
      </trkpt>
      <trkpt lat="49.33255" lon="-0.66904">
        <ele>62</ele>
        <time>2020-06-17T07:33:35Z</time>
      </trkpt>
      <trkpt lat="49.33258" lon="-0.66896">
        <ele>62</ele>
        <time>2020-06-17T07:33:36Z</time>
      </trkpt>
      <trkpt lat="49.33261" lon="-0.66886">
        <ele>62</ele>
        <time>2020-06-17T07:33:37Z</time>
      </trkpt>
      <trkpt lat="49.33265" lon="-0.66877">
        <ele>62</ele>
        <time>2020-06-17T07:33:38Z</time>
      </trkpt>
      <trkpt lat="49.33269" lon="-0.66868">
        <ele>62</ele>
        <time>2020-06-17T07:33:39Z</time>
      </trkpt>
      <trkpt lat="49.33274" lon="-0.6686">
        <ele>62</ele>
        <time>2020-06-17T07:33:40Z</time>
      </trkpt>
      <trkpt lat="49.33278" lon="-0.66851">
        <ele>61.9</ele>
        <time>2020-06-17T07:33:41Z</time>
      </trkpt>
      <trkpt lat="49.33284" lon="-0.66842">
        <ele>61.9</ele>
        <time>2020-06-17T07:33:42Z</time>
      </trkpt>
      <trkpt lat="49.33289" lon="-0.66832">
        <ele>61.9</ele>
        <time>2020-06-17T07:33:43Z</time>
      </trkpt>
      <trkpt lat="49.33294" lon="-0.66825">
        <ele>61.9</ele>
        <time>2020-06-17T07:33:44Z</time>
      </trkpt>
      <trkpt lat="49.33299" lon="-0.66818">
        <ele>61.9</ele>
        <time>2020-06-17T07:33:45Z</time>
      </trkpt>
      <trkpt lat="49.33304" lon="-0.6681">
        <ele>61.9</ele>
        <time>2020-06-17T07:33:46Z</time>
      </trkpt>
      <trkpt lat="49.33309" lon="-0.66803">
        <ele>61.9</ele>
        <time>2020-06-17T07:33:47Z</time>
      </trkpt>
      <trkpt lat="49.33315" lon="-0.66795">
        <ele>61.9</ele>
        <time>2020-06-17T07:33:48Z</time>
      </trkpt>
      <trkpt lat="49.3332" lon="-0.66788">
        <ele>61.9</ele>
        <time>2020-06-17T07:33:49Z</time>
      </trkpt>
      <trkpt lat="49.33326" lon="-0.6678">
        <ele>62</ele>
        <time>2020-06-17T07:33:50Z</time>
      </trkpt>
      <trkpt lat="49.33331" lon="-0.66772">
        <ele>61.9</ele>
        <time>2020-06-17T07:33:51Z</time>
      </trkpt>
      <trkpt lat="49.33336" lon="-0.66765">
        <ele>61.9</ele>
        <time>2020-06-17T07:33:52Z</time>
      </trkpt>
      <trkpt lat="49.3334" lon="-0.66758">
        <ele>61.9</ele>
        <time>2020-06-17T07:33:53Z</time>
      </trkpt>
      <trkpt lat="49.33345" lon="-0.66752">
        <ele>61.9</ele>
        <time>2020-06-17T07:33:54Z</time>
      </trkpt>
      <trkpt lat="49.3335" lon="-0.66744">
        <ele>61.9</ele>
        <time>2020-06-17T07:33:55Z</time>
      </trkpt>
      <trkpt lat="49.33356" lon="-0.66736">
        <ele>61.9</ele>
        <time>2020-06-17T07:33:56Z</time>
      </trkpt>
      <trkpt lat="49.33361" lon="-0.66728">
        <ele>61.9</ele>
        <time>2020-06-17T07:33:57Z</time>
      </trkpt>
      <trkpt lat="49.33366" lon="-0.6672">
        <ele>61.9</ele>
        <time>2020-06-17T07:33:58Z</time>
      </trkpt>
      <trkpt lat="49.33371" lon="-0.66712">
        <ele>61.9</ele>
        <time>2020-06-17T07:33:59Z</time>
      </trkpt>
      <trkpt lat="49.33375" lon="-0.66704">
        <ele>61.9</ele>
        <time>2020-06-17T07:34:00Z</time>
      </trkpt>
      <trkpt lat="49.3338" lon="-0.66696">
        <ele>61.9</ele>
        <time>2020-06-17T07:34:01Z</time>
      </trkpt>
      <trkpt lat="49.33385" lon="-0.66687">
        <ele>61.9</ele>
        <time>2020-06-17T07:34:02Z</time>
      </trkpt>
      <trkpt lat="49.3339" lon="-0.66678">
        <ele>61.9</ele>
        <time>2020-06-17T07:34:03Z</time>
      </trkpt>
      <trkpt lat="49.33394" lon="-0.66669">
        <ele>61.9</ele>
        <time>2020-06-17T07:34:04Z</time>
      </trkpt>
      <trkpt lat="49.33399" lon="-0.6666">
        <ele>61.9</ele>
        <time>2020-06-17T07:34:05Z</time>
      </trkpt>
      <trkpt lat="49.33403" lon="-0.66652">
        <ele>61.8</ele>
        <time>2020-06-17T07:34:06Z</time>
      </trkpt>
      <trkpt lat="49.33408" lon="-0.66644">
        <ele>61.8</ele>
        <time>2020-06-17T07:34:07Z</time>
      </trkpt>
      <trkpt lat="49.33411" lon="-0.66636">
        <ele>61.7</ele>
        <time>2020-06-17T07:34:08Z</time>
      </trkpt>
      <trkpt lat="49.33415" lon="-0.66626">
        <ele>61.7</ele>
        <time>2020-06-17T07:34:09Z</time>
      </trkpt>
      <trkpt lat="49.33419" lon="-0.66617">
        <ele>61.6</ele>
        <time>2020-06-17T07:34:10Z</time>
      </trkpt>
      <trkpt lat="49.33423" lon="-0.66607">
        <ele>61.6</ele>
        <time>2020-06-17T07:34:11Z</time>
      </trkpt>
      <trkpt lat="49.33426" lon="-0.66598">
        <ele>61.5</ele>
        <time>2020-06-17T07:34:12Z</time>
      </trkpt>
      <trkpt lat="49.33429" lon="-0.66589">
        <ele>61.5</ele>
        <time>2020-06-17T07:34:13Z</time>
      </trkpt>
      <trkpt lat="49.33432" lon="-0.66579">
        <ele>61.4</ele>
        <time>2020-06-17T07:34:14Z</time>
      </trkpt>
      <trkpt lat="49.33435" lon="-0.66569">
        <ele>61.4</ele>
        <time>2020-06-17T07:34:15Z</time>
      </trkpt>
      <trkpt lat="49.33439" lon="-0.66559">
        <ele>61.2</ele>
        <time>2020-06-17T07:34:16Z</time>
      </trkpt>
      <trkpt lat="49.33442" lon="-0.66548">
        <ele>61.1</ele>
        <time>2020-06-17T07:34:17Z</time>
      </trkpt>
      <trkpt lat="49.33445" lon="-0.66538">
        <ele>61</ele>
        <time>2020-06-17T07:34:18Z</time>
      </trkpt>
      <trkpt lat="49.33448" lon="-0.66528">
        <ele>60.8</ele>
        <time>2020-06-17T07:34:19Z</time>
      </trkpt>
      <trkpt lat="49.33451" lon="-0.66518">
        <ele>60.7</ele>
        <time>2020-06-17T07:34:20Z</time>
      </trkpt>
      <trkpt lat="49.33454" lon="-0.66508">
        <ele>60.5</ele>
        <time>2020-06-17T07:34:21Z</time>
      </trkpt>
      <trkpt lat="49.33456" lon="-0.66497">
        <ele>60.4</ele>
        <time>2020-06-17T07:34:22Z</time>
      </trkpt>
      <trkpt lat="49.33459" lon="-0.66486">
        <ele>60.3</ele>
        <time>2020-06-17T07:34:23Z</time>
      </trkpt>
      <trkpt lat="49.33462" lon="-0.66474">
        <ele>60.1</ele>
        <time>2020-06-17T07:34:24Z</time>
      </trkpt>
      <trkpt lat="49.33465" lon="-0.66464">
        <ele>60</ele>
        <time>2020-06-17T07:34:25Z</time>
      </trkpt>
      <trkpt lat="49.33468" lon="-0.66454">
        <ele>59.8</ele>
        <time>2020-06-17T07:34:26Z</time>
      </trkpt>
      <trkpt lat="49.33471" lon="-0.66444">
        <ele>59.6</ele>
        <time>2020-06-17T07:34:27Z</time>
      </trkpt>
      <trkpt lat="49.33473" lon="-0.66433">
        <ele>59.5</ele>
        <time>2020-06-17T07:34:28Z</time>
      </trkpt>
      <trkpt lat="49.33476" lon="-0.66422">
        <ele>59.3</ele>
        <time>2020-06-17T07:34:29Z</time>
      </trkpt>
      <trkpt lat="49.33479" lon="-0.6641">
        <ele>59.2</ele>
        <time>2020-06-17T07:34:30Z</time>
      </trkpt>
      <trkpt lat="49.33483" lon="-0.66397">
        <ele>59</ele>
        <time>2020-06-17T07:34:31Z</time>
      </trkpt>
      <trkpt lat="49.33487" lon="-0.66385">
        <ele>58.9</ele>
        <time>2020-06-17T07:34:32Z</time>
      </trkpt>
      <trkpt lat="49.33491" lon="-0.66373">
        <ele>58.7</ele>
        <time>2020-06-17T07:34:33Z</time>
      </trkpt>
      <trkpt lat="49.33494" lon="-0.66362">
        <ele>58.6</ele>
        <time>2020-06-17T07:34:34Z</time>
      </trkpt>
      <trkpt lat="49.33497" lon="-0.66351">
        <ele>58.5</ele>
        <time>2020-06-17T07:34:35Z</time>
      </trkpt>
      <trkpt lat="49.33499" lon="-0.66341">
        <ele>58.4</ele>
        <time>2020-06-17T07:34:36Z</time>
      </trkpt>
      <trkpt lat="49.33502" lon="-0.6633">
        <ele>58.2</ele>
        <time>2020-06-17T07:34:37Z</time>
      </trkpt>
      <trkpt lat="49.33504" lon="-0.6632">
        <ele>58</ele>
        <time>2020-06-17T07:34:38Z</time>
      </trkpt>
      <trkpt lat="49.33507" lon="-0.66308">
        <ele>57.8</ele>
        <time>2020-06-17T07:34:39Z</time>
      </trkpt>
      <trkpt lat="49.3351" lon="-0.66297">
        <ele>57.6</ele>
        <time>2020-06-17T07:34:40Z</time>
      </trkpt>
      <trkpt lat="49.33513" lon="-0.66286">
        <ele>57.5</ele>
        <time>2020-06-17T07:34:41Z</time>
      </trkpt>
      <trkpt lat="49.33516" lon="-0.66276">
        <ele>57.3</ele>
        <time>2020-06-17T07:34:42Z</time>
      </trkpt>
      <trkpt lat="49.33519" lon="-0.66264">
        <ele>57</ele>
        <time>2020-06-17T07:34:43Z</time>
      </trkpt>
      <trkpt lat="49.33523" lon="-0.66254">
        <ele>56.8</ele>
        <time>2020-06-17T07:34:44Z</time>
      </trkpt>
      <trkpt lat="49.33526" lon="-0.66244">
        <ele>56.6</ele>
        <time>2020-06-17T07:34:45Z</time>
      </trkpt>
      <trkpt lat="49.33529" lon="-0.66233">
        <ele>56.4</ele>
        <time>2020-06-17T07:34:46Z</time>
      </trkpt>
      <trkpt lat="49.33532" lon="-0.66221">
        <ele>56.2</ele>
        <time>2020-06-17T07:34:47Z</time>
      </trkpt>
      <trkpt lat="49.33534" lon="-0.66208">
        <ele>55.9</ele>
        <time>2020-06-17T07:34:48Z</time>
      </trkpt>
      <trkpt lat="49.33536" lon="-0.66196">
        <ele>55.7</ele>
        <time>2020-06-17T07:34:49Z</time>
      </trkpt>
      <trkpt lat="49.33539" lon="-0.66184">
        <ele>55.5</ele>
        <time>2020-06-17T07:34:50Z</time>
      </trkpt>
      <trkpt lat="49.33541" lon="-0.66171">
        <ele>55.2</ele>
        <time>2020-06-17T07:34:51Z</time>
      </trkpt>
      <trkpt lat="49.33543" lon="-0.66159">
        <ele>55</ele>
        <time>2020-06-17T07:34:52Z</time>
      </trkpt>
      <trkpt lat="49.33545" lon="-0.66146">
        <ele>54.8</ele>
        <time>2020-06-17T07:34:53Z</time>
      </trkpt>
      <trkpt lat="49.33547" lon="-0.66134">
        <ele>54.5</ele>
        <time>2020-06-17T07:34:54Z</time>
      </trkpt>
      <trkpt lat="49.33549" lon="-0.66122">
        <ele>54.3</ele>
        <time>2020-06-17T07:34:55Z</time>
      </trkpt>
      <trkpt lat="49.33552" lon="-0.66112">
        <ele>54.2</ele>
        <time>2020-06-17T07:34:56Z</time>
      </trkpt>
      <trkpt lat="49.33554" lon="-0.661">
        <ele>54</ele>
        <time>2020-06-17T07:34:57Z</time>
      </trkpt>
      <trkpt lat="49.33557" lon="-0.6609">
        <ele>53.9</ele>
        <time>2020-06-17T07:34:58Z</time>
      </trkpt>
      <trkpt lat="49.33559" lon="-0.6608">
        <ele>53.7</ele>
        <time>2020-06-17T07:34:59Z</time>
      </trkpt>
      <trkpt lat="49.33561" lon="-0.6607">
        <ele>53.6</ele>
        <time>2020-06-17T07:35:00Z</time>
      </trkpt>
      <trkpt lat="49.33565" lon="-0.66059">
        <ele>53.4</ele>
        <time>2020-06-17T07:35:01Z</time>
      </trkpt>
      <trkpt lat="49.3357" lon="-0.66048">
        <ele>53.3</ele>
        <time>2020-06-17T07:35:02Z</time>
      </trkpt>
      <trkpt lat="49.33575" lon="-0.66038">
        <ele>53.1</ele>
        <time>2020-06-17T07:35:03Z</time>
      </trkpt>
      <trkpt lat="49.33579" lon="-0.66028">
        <ele>52.8</ele>
        <time>2020-06-17T07:35:04Z</time>
      </trkpt>
      <trkpt lat="49.33583" lon="-0.66019">
        <ele>52.8</ele>
        <time>2020-06-17T07:35:05Z</time>
      </trkpt>
      <trkpt lat="49.33587" lon="-0.66009">
        <ele>52.8</ele>
        <time>2020-06-17T07:35:06Z</time>
      </trkpt>
      <trkpt lat="49.33591" lon="-0.66">
        <ele>52.7</ele>
        <time>2020-06-17T07:35:07Z</time>
      </trkpt>
      <trkpt lat="49.33595" lon="-0.65991">
        <ele>52.6</ele>
        <time>2020-06-17T07:35:08Z</time>
      </trkpt>
      <trkpt lat="49.33599" lon="-0.65981">
        <ele>52.5</ele>
        <time>2020-06-17T07:35:09Z</time>
      </trkpt>
      <trkpt lat="49.33603" lon="-0.65971">
        <ele>52.5</ele>
        <time>2020-06-17T07:35:10Z</time>
      </trkpt>
      <trkpt lat="49.33606" lon="-0.65961">
        <ele>52.4</ele>
        <time>2020-06-17T07:35:11Z</time>
      </trkpt>
      <trkpt lat="49.3361" lon="-0.6595">
        <ele>52.3</ele>
        <time>2020-06-17T07:35:12Z</time>
      </trkpt>
      <trkpt lat="49.33614" lon="-0.65938">
        <ele>52.2</ele>
        <time>2020-06-17T07:35:13Z</time>
      </trkpt>
      <trkpt lat="49.33618" lon="-0.65927">
        <ele>52</ele>
        <time>2020-06-17T07:35:14Z</time>
      </trkpt>
      <trkpt lat="49.33622" lon="-0.65916">
        <ele>51.9</ele>
        <time>2020-06-17T07:35:15Z</time>
      </trkpt>
      <trkpt lat="49.33626" lon="-0.65904">
        <ele>51.8</ele>
        <time>2020-06-17T07:35:16Z</time>
      </trkpt>
      <trkpt lat="49.3363" lon="-0.65892">
        <ele>51.6</ele>
        <time>2020-06-17T07:35:17Z</time>
      </trkpt>
      <trkpt lat="49.33634" lon="-0.65881">
        <ele>51.6</ele>
        <time>2020-06-17T07:35:18Z</time>
      </trkpt>
      <trkpt lat="49.33639" lon="-0.6587">
        <ele>51.6</ele>
        <time>2020-06-17T07:35:19Z</time>
      </trkpt>
      <trkpt lat="49.33644" lon="-0.6586">
        <ele>51.6</ele>
        <time>2020-06-17T07:35:20Z</time>
      </trkpt>
      <trkpt lat="49.33647" lon="-0.6585">
        <ele>51.6</ele>
        <time>2020-06-17T07:35:21Z</time>
      </trkpt>
      <trkpt lat="49.33652" lon="-0.6584">
        <ele>51.5</ele>
        <time>2020-06-17T07:35:22Z</time>
      </trkpt>
      <trkpt lat="49.33655" lon="-0.65828">
        <ele>51.5</ele>
        <time>2020-06-17T07:35:23Z</time>
      </trkpt>
      <trkpt lat="49.33657" lon="-0.65817">
        <ele>51.5</ele>
        <time>2020-06-17T07:35:24Z</time>
      </trkpt>
      <trkpt lat="49.3366" lon="-0.65807">
        <ele>51.5</ele>
        <time>2020-06-17T07:35:25Z</time>
      </trkpt>
      <trkpt lat="49.33662" lon="-0.65795">
        <ele>51.4</ele>
        <time>2020-06-17T07:35:26Z</time>
      </trkpt>
      <trkpt lat="49.33666" lon="-0.65784">
        <ele>51.4</ele>
        <time>2020-06-17T07:35:27Z</time>
      </trkpt>
      <trkpt lat="49.33671" lon="-0.65773">
        <ele>51.4</ele>
        <time>2020-06-17T07:35:28Z</time>
      </trkpt>
      <trkpt lat="49.33674" lon="-0.65763">
        <ele>51.3</ele>
        <time>2020-06-17T07:35:29Z</time>
      </trkpt>
      <trkpt lat="49.33679" lon="-0.65752">
        <ele>51.3</ele>
        <time>2020-06-17T07:35:30Z</time>
      </trkpt>
      <trkpt lat="49.33684" lon="-0.65741">
        <ele>51.4</ele>
        <time>2020-06-17T07:35:31Z</time>
      </trkpt>
      <trkpt lat="49.3369" lon="-0.65732">
        <ele>51.4</ele>
        <time>2020-06-17T07:35:32Z</time>
      </trkpt>
      <trkpt lat="49.33694" lon="-0.65722">
        <ele>51.4</ele>
        <time>2020-06-17T07:35:33Z</time>
      </trkpt>
      <trkpt lat="49.33699" lon="-0.65711">
        <ele>51.3</ele>
        <time>2020-06-17T07:35:34Z</time>
      </trkpt>
      <trkpt lat="49.33704" lon="-0.65701">
        <ele>51.3</ele>
        <time>2020-06-17T07:35:35Z</time>
      </trkpt>
      <trkpt lat="49.33708" lon="-0.65691">
        <ele>51.4</ele>
        <time>2020-06-17T07:35:36Z</time>
      </trkpt>
      <trkpt lat="49.33712" lon="-0.6568">
        <ele>51.4</ele>
        <time>2020-06-17T07:35:37Z</time>
      </trkpt>
      <trkpt lat="49.33716" lon="-0.6567">
        <ele>51.4</ele>
        <time>2020-06-17T07:35:38Z</time>
      </trkpt>
      <trkpt lat="49.33719" lon="-0.65661">
        <ele>51.3</ele>
        <time>2020-06-17T07:35:39Z</time>
      </trkpt>
      <trkpt lat="49.33722" lon="-0.65651">
        <ele>51.3</ele>
        <time>2020-06-17T07:35:40Z</time>
      </trkpt>
      <trkpt lat="49.33725" lon="-0.65639">
        <ele>51.3</ele>
        <time>2020-06-17T07:35:41Z</time>
      </trkpt>
      <trkpt lat="49.33727" lon="-0.65628">
        <ele>51.3</ele>
        <time>2020-06-17T07:35:42Z</time>
      </trkpt>
      <trkpt lat="49.33727" lon="-0.65618">
        <ele>51.3</ele>
        <time>2020-06-17T07:35:43Z</time>
      </trkpt>
      <trkpt lat="49.33727" lon="-0.65609">
        <ele>51.2</ele>
        <time>2020-06-17T07:35:44Z</time>
      </trkpt>
      <trkpt lat="49.33725" lon="-0.65602">
        <ele>51.2</ele>
        <time>2020-06-17T07:35:45Z</time>
      </trkpt>
      <trkpt lat="49.33722" lon="-0.65597">
        <ele>51.2</ele>
        <time>2020-06-17T07:35:46Z</time>
      </trkpt>
      <trkpt lat="49.33717" lon="-0.65592">
        <ele>51.2</ele>
        <time>2020-06-17T07:35:47Z</time>
      </trkpt>
      <trkpt lat="49.33713" lon="-0.65587">
        <ele>51.2</ele>
        <time>2020-06-17T07:35:48Z</time>
      </trkpt>
      <trkpt lat="49.33709" lon="-0.65583">
        <ele>51.3</ele>
        <time>2020-06-17T07:35:49Z</time>
      </trkpt>
      <trkpt lat="49.33707" lon="-0.65579">
        <ele>51.3</ele>
        <time>2020-06-17T07:35:50Z</time>
      </trkpt>
      <trkpt lat="49.33706" lon="-0.65574">
        <ele>51.3</ele>
        <time>2020-06-17T07:35:51Z</time>
      </trkpt>
      <trkpt lat="49.33705" lon="-0.65567">
        <ele>51.3</ele>
        <time>2020-06-17T07:35:52Z</time>
      </trkpt>
      <trkpt lat="49.33704" lon="-0.65562">
        <ele>51.3</ele>
        <time>2020-06-17T07:35:53Z</time>
      </trkpt>
      <trkpt lat="49.33703" lon="-0.65556">
        <ele>51.3</ele>
        <time>2020-06-17T07:35:54Z</time>
      </trkpt>
      <trkpt lat="49.33702" lon="-0.6555">
        <ele>51.3</ele>
        <time>2020-06-17T07:35:55Z</time>
      </trkpt>
      <trkpt lat="49.33701" lon="-0.65542">
        <ele>51.2</ele>
        <time>2020-06-17T07:35:56Z</time>
      </trkpt>
      <trkpt lat="49.33699" lon="-0.65534">
        <ele>51.2</ele>
        <time>2020-06-17T07:35:57Z</time>
      </trkpt>
      <trkpt lat="49.33698" lon="-0.65525">
        <ele>51.1</ele>
        <time>2020-06-17T07:35:58Z</time>
      </trkpt>
      <trkpt lat="49.33698" lon="-0.65514">
        <ele>51.1</ele>
        <time>2020-06-17T07:35:59Z</time>
      </trkpt>
      <trkpt lat="49.33698" lon="-0.65504">
        <ele>51</ele>
        <time>2020-06-17T07:36:00Z</time>
      </trkpt>
      <trkpt lat="49.33696" lon="-0.65496">
        <ele>51</ele>
        <time>2020-06-17T07:36:01Z</time>
      </trkpt>
      <trkpt lat="49.33694" lon="-0.65485">
        <ele>50.9</ele>
        <time>2020-06-17T07:36:02Z</time>
      </trkpt>
      <trkpt lat="49.33692" lon="-0.65476">
        <ele>50.7</ele>
        <time>2020-06-17T07:36:03Z</time>
      </trkpt>
      <trkpt lat="49.33688" lon="-0.65466">
        <ele>50.5</ele>
        <time>2020-06-17T07:36:04Z</time>
      </trkpt>
      <trkpt lat="49.33685" lon="-0.65455">
        <ele>50.3</ele>
        <time>2020-06-17T07:36:05Z</time>
      </trkpt>
      <trkpt lat="49.33683" lon="-0.65444">
        <ele>50.1</ele>
        <time>2020-06-17T07:36:06Z</time>
      </trkpt>
      <trkpt lat="49.33682" lon="-0.65435">
        <ele>49.9</ele>
        <time>2020-06-17T07:36:07Z</time>
      </trkpt>
      <trkpt lat="49.33681" lon="-0.65425">
        <ele>49.7</ele>
        <time>2020-06-17T07:36:08Z</time>
      </trkpt>
      <trkpt lat="49.33681" lon="-0.65411">
        <ele>49.5</ele>
        <time>2020-06-17T07:36:09Z</time>
      </trkpt>
      <trkpt lat="49.33681" lon="-0.65395">
        <ele>49.4</ele>
        <time>2020-06-17T07:36:10Z</time>
      </trkpt>
      <trkpt lat="49.33681" lon="-0.6538">
        <ele>49.3</ele>
        <time>2020-06-17T07:36:11Z</time>
      </trkpt>
      <trkpt lat="49.33683" lon="-0.65365">
        <ele>49.2</ele>
        <time>2020-06-17T07:36:12Z</time>
      </trkpt>
      <trkpt lat="49.33685" lon="-0.65352">
        <ele>49.1</ele>
        <time>2020-06-17T07:36:13Z</time>
      </trkpt>
      <trkpt lat="49.33686" lon="-0.65339">
        <ele>49.1</ele>
        <time>2020-06-17T07:36:14Z</time>
      </trkpt>
      <trkpt lat="49.33687" lon="-0.65328">
        <ele>49</ele>
        <time>2020-06-17T07:36:15Z</time>
      </trkpt>
      <trkpt lat="49.33689" lon="-0.65318">
        <ele>49</ele>
        <time>2020-06-17T07:36:16Z</time>
      </trkpt>
      <trkpt lat="49.33691" lon="-0.65307">
        <ele>48.8</ele>
        <time>2020-06-17T07:36:17Z</time>
      </trkpt>
      <trkpt lat="49.33692" lon="-0.65294">
        <ele>48.6</ele>
        <time>2020-06-17T07:36:18Z</time>
      </trkpt>
      <trkpt lat="49.33693" lon="-0.65282">
        <ele>48.4</ele>
        <time>2020-06-17T07:36:19Z</time>
      </trkpt>
      <trkpt lat="49.33694" lon="-0.65271">
        <ele>48.3</ele>
        <time>2020-06-17T07:36:20Z</time>
      </trkpt>
      <trkpt lat="49.33694" lon="-0.65259">
        <ele>48</ele>
        <time>2020-06-17T07:36:21Z</time>
      </trkpt>
      <trkpt lat="49.33695" lon="-0.65247">
        <ele>47.8</ele>
        <time>2020-06-17T07:36:22Z</time>
      </trkpt>
      <trkpt lat="49.33696" lon="-0.65235">
        <ele>47.5</ele>
        <time>2020-06-17T07:36:23Z</time>
      </trkpt>
      <trkpt lat="49.33695" lon="-0.65221">
        <ele>47.2</ele>
        <time>2020-06-17T07:36:24Z</time>
      </trkpt>
      <trkpt lat="49.33696" lon="-0.65209">
        <ele>47</ele>
        <time>2020-06-17T07:36:25Z</time>
      </trkpt>
      <trkpt lat="49.33697" lon="-0.65196">
        <ele>46.7</ele>
        <time>2020-06-17T07:36:26Z</time>
      </trkpt>
      <trkpt lat="49.33699" lon="-0.65183">
        <ele>46.4</ele>
        <time>2020-06-17T07:36:27Z</time>
      </trkpt>
      <trkpt lat="49.337" lon="-0.65169">
        <ele>46.1</ele>
        <time>2020-06-17T07:36:28Z</time>
      </trkpt>
      <trkpt lat="49.337" lon="-0.65155">
        <ele>45.8</ele>
        <time>2020-06-17T07:36:29Z</time>
      </trkpt>
      <trkpt lat="49.33701" lon="-0.6514">
        <ele>45.5</ele>
        <time>2020-06-17T07:36:30Z</time>
      </trkpt>
      <trkpt lat="49.337" lon="-0.65128">
        <ele>45.4</ele>
        <time>2020-06-17T07:36:31Z</time>
      </trkpt>
      <trkpt lat="49.337" lon="-0.65115">
        <ele>45.3</ele>
        <time>2020-06-17T07:36:32Z</time>
      </trkpt>
      <trkpt lat="49.337" lon="-0.65102">
        <ele>45.2</ele>
        <time>2020-06-17T07:36:33Z</time>
      </trkpt>
      <trkpt lat="49.337" lon="-0.6509">
        <ele>45.3</ele>
        <time>2020-06-17T07:36:34Z</time>
      </trkpt>
      <trkpt lat="49.33699" lon="-0.65078">
        <ele>45.3</ele>
        <time>2020-06-17T07:36:35Z</time>
      </trkpt>
      <trkpt lat="49.33698" lon="-0.65068">
        <ele>45.4</ele>
        <time>2020-06-17T07:36:36Z</time>
      </trkpt>
      <trkpt lat="49.33698" lon="-0.65057">
        <ele>45.5</ele>
        <time>2020-06-17T07:36:37Z</time>
      </trkpt>
      <trkpt lat="49.33697" lon="-0.65046">
        <ele>45.7</ele>
        <time>2020-06-17T07:36:38Z</time>
      </trkpt>
      <trkpt lat="49.33695" lon="-0.65036">
        <ele>46</ele>
        <time>2020-06-17T07:36:39Z</time>
      </trkpt>
      <trkpt lat="49.33693" lon="-0.65026">
        <ele>46.2</ele>
        <time>2020-06-17T07:36:40Z</time>
      </trkpt>
      <trkpt lat="49.33691" lon="-0.65016">
        <ele>46.5</ele>
        <time>2020-06-17T07:36:41Z</time>
      </trkpt>
      <trkpt lat="49.33689" lon="-0.65008">
        <ele>46.7</ele>
        <time>2020-06-17T07:36:42Z</time>
      </trkpt>
      <trkpt lat="49.33687" lon="-0.64999">
        <ele>47</ele>
        <time>2020-06-17T07:36:43Z</time>
      </trkpt>
      <trkpt lat="49.33684" lon="-0.64991">
        <ele>47.2</ele>
        <time>2020-06-17T07:36:44Z</time>
      </trkpt>
      <trkpt lat="49.33682" lon="-0.64983">
        <ele>47.4</ele>
        <time>2020-06-17T07:36:45Z</time>
      </trkpt>
      <trkpt lat="49.3368" lon="-0.64976">
        <ele>47.7</ele>
        <time>2020-06-17T07:36:46Z</time>
      </trkpt>
      <trkpt lat="49.33678" lon="-0.64968">
        <ele>47.9</ele>
        <time>2020-06-17T07:36:47Z</time>
      </trkpt>
      <trkpt lat="49.33676" lon="-0.6496">
        <ele>48.2</ele>
        <time>2020-06-17T07:36:48Z</time>
      </trkpt>
      <trkpt lat="49.33674" lon="-0.64952">
        <ele>48.5</ele>
        <time>2020-06-17T07:36:49Z</time>
      </trkpt>
      <trkpt lat="49.33672" lon="-0.64945">
        <ele>48.8</ele>
        <time>2020-06-17T07:36:50Z</time>
      </trkpt>
      <trkpt lat="49.33671" lon="-0.6494">
        <ele>49</ele>
        <time>2020-06-17T07:36:51Z</time>
      </trkpt>
      <trkpt lat="49.3367" lon="-0.64934">
        <ele>49.2</ele>
        <time>2020-06-17T07:36:52Z</time>
      </trkpt>
      <trkpt lat="49.33669" lon="-0.64929">
        <ele>49.4</ele>
        <time>2020-06-17T07:36:53Z</time>
      </trkpt>
      <trkpt lat="49.33669" lon="-0.64924">
        <ele>49.6</ele>
        <time>2020-06-17T07:36:54Z</time>
      </trkpt>
      <trkpt lat="49.33669" lon="-0.64918">
        <ele>49.8</ele>
        <time>2020-06-17T07:36:55Z</time>
      </trkpt>
      <trkpt lat="49.3367" lon="-0.64911">
        <ele>50</ele>
        <time>2020-06-17T07:36:56Z</time>
      </trkpt>
      <trkpt lat="49.33671" lon="-0.64904">
        <ele>50.3</ele>
        <time>2020-06-17T07:36:57Z</time>
      </trkpt>
      <trkpt lat="49.33672" lon="-0.64897">
        <ele>50.6</ele>
        <time>2020-06-17T07:36:58Z</time>
      </trkpt>
      <trkpt lat="49.33673" lon="-0.6489">
        <ele>50.8</ele>
        <time>2020-06-17T07:36:59Z</time>
      </trkpt>
      <trkpt lat="49.33674" lon="-0.64884">
        <ele>51.1</ele>
        <time>2020-06-17T07:37:00Z</time>
      </trkpt>
      <trkpt lat="49.33675" lon="-0.64879">
        <ele>51.3</ele>
        <time>2020-06-17T07:37:01Z</time>
      </trkpt>
      <trkpt lat="49.33676" lon="-0.64874">
        <ele>51.5</ele>
        <time>2020-06-17T07:37:02Z</time>
      </trkpt>
      <trkpt lat="49.33677" lon="-0.64866">
        <ele>51.8</ele>
        <time>2020-06-17T07:37:03Z</time>
      </trkpt>
      <trkpt lat="49.33678" lon="-0.6486">
        <ele>52</ele>
        <time>2020-06-17T07:37:04Z</time>
      </trkpt>
      <trkpt lat="49.33679" lon="-0.64854">
        <ele>52.2</ele>
        <time>2020-06-17T07:37:05Z</time>
      </trkpt>
      <trkpt lat="49.3368" lon="-0.64849">
        <ele>52.4</ele>
        <time>2020-06-17T07:37:06Z</time>
      </trkpt>
      <trkpt lat="49.3368" lon="-0.64843">
        <ele>52.6</ele>
        <time>2020-06-17T07:37:07Z</time>
      </trkpt>
      <trkpt lat="49.3368" lon="-0.64837">
        <ele>52.7</ele>
        <time>2020-06-17T07:37:08Z</time>
      </trkpt>
      <trkpt lat="49.33679" lon="-0.64833">
        <ele>52.8</ele>
        <time>2020-06-17T07:37:09Z</time>
      </trkpt>
      <trkpt lat="49.33678" lon="-0.64829">
        <ele>53</ele>
        <time>2020-06-17T07:37:10Z</time>
      </trkpt>
      <trkpt lat="49.33676" lon="-0.64825">
        <ele>53.1</ele>
        <time>2020-06-17T07:37:11Z</time>
      </trkpt>
      <trkpt lat="49.33675" lon="-0.64821">
        <ele>53.2</ele>
        <time>2020-06-17T07:37:12Z</time>
      </trkpt>
      <trkpt lat="49.33674" lon="-0.64817">
        <ele>53.3</ele>
        <time>2020-06-17T07:37:13Z</time>
      </trkpt>
      <trkpt lat="49.33672" lon="-0.64813">
        <ele>53.4</ele>
        <time>2020-06-17T07:37:14Z</time>
      </trkpt>
      <trkpt lat="49.33671" lon="-0.64808">
        <ele>53.5</ele>
        <time>2020-06-17T07:37:15Z</time>
      </trkpt>
      <trkpt lat="49.33669" lon="-0.64803">
        <ele>53.6</ele>
        <time>2020-06-17T07:37:16Z</time>
      </trkpt>
      <trkpt lat="49.33669" lon="-0.64797">
        <ele>53.7</ele>
        <time>2020-06-17T07:37:17Z</time>
      </trkpt>
      <trkpt lat="49.33668" lon="-0.64792">
        <ele>53.8</ele>
        <time>2020-06-17T07:37:18Z</time>
      </trkpt>
      <trkpt lat="49.33668" lon="-0.64787">
        <ele>53.9</ele>
        <time>2020-06-17T07:37:19Z</time>
      </trkpt>
      <trkpt lat="49.33667" lon="-0.64781">
        <ele>54</ele>
        <time>2020-06-17T07:37:20Z</time>
      </trkpt>
      <trkpt lat="49.33666" lon="-0.64776">
        <ele>54.1</ele>
        <time>2020-06-17T07:37:21Z</time>
      </trkpt>
      <trkpt lat="49.33665" lon="-0.64769">
        <ele>54.2</ele>
        <time>2020-06-17T07:37:22Z</time>
      </trkpt>
      <trkpt lat="49.33665" lon="-0.64762">
        <ele>54.3</ele>
        <time>2020-06-17T07:37:23Z</time>
      </trkpt>
      <trkpt lat="49.33664" lon="-0.64754">
        <ele>54.4</ele>
        <time>2020-06-17T07:37:24Z</time>
      </trkpt>
      <trkpt lat="49.33663" lon="-0.64747">
        <ele>54.5</ele>
        <time>2020-06-17T07:37:25Z</time>
      </trkpt>
      <trkpt lat="49.33662" lon="-0.64739">
        <ele>54.6</ele>
        <time>2020-06-17T07:37:26Z</time>
      </trkpt>
      <trkpt lat="49.33661" lon="-0.64732">
        <ele>54.7</ele>
        <time>2020-06-17T07:37:27Z</time>
      </trkpt>
      <trkpt lat="49.3366" lon="-0.64726">
        <ele>54.7</ele>
        <time>2020-06-17T07:37:28Z</time>
      </trkpt>
      <trkpt lat="49.33659" lon="-0.64718">
        <ele>54.8</ele>
        <time>2020-06-17T07:37:29Z</time>
      </trkpt>
      <trkpt lat="49.33659" lon="-0.64712">
        <ele>54.9</ele>
        <time>2020-06-17T07:37:30Z</time>
      </trkpt>
      <trkpt lat="49.33659" lon="-0.64705">
        <ele>54.9</ele>
        <time>2020-06-17T07:37:31Z</time>
      </trkpt>
      <trkpt lat="49.33658" lon="-0.64699">
        <ele>54.9</ele>
        <time>2020-06-17T07:37:32Z</time>
      </trkpt>
      <trkpt lat="49.33658" lon="-0.64693">
        <ele>54.9</ele>
        <time>2020-06-17T07:37:33Z</time>
      </trkpt>
      <trkpt lat="49.33658" lon="-0.64687">
        <ele>55</ele>
        <time>2020-06-17T07:37:34Z</time>
      </trkpt>
      <trkpt lat="49.33658" lon="-0.6468">
        <ele>55</ele>
        <time>2020-06-17T07:37:35Z</time>
      </trkpt>
      <trkpt lat="49.33658" lon="-0.64673">
        <ele>55</ele>
        <time>2020-06-17T07:37:36Z</time>
      </trkpt>
      <trkpt lat="49.33658" lon="-0.64668">
        <ele>55</ele>
        <time>2020-06-17T07:37:37Z</time>
      </trkpt>
      <trkpt lat="49.33658" lon="-0.64663">
        <ele>55.1</ele>
        <time>2020-06-17T07:37:38Z</time>
      </trkpt>
      <trkpt lat="49.33658" lon="-0.64657">
        <ele>55.1</ele>
        <time>2020-06-17T07:37:39Z</time>
      </trkpt>
      <trkpt lat="49.3366" lon="-0.64649">
        <ele>55.1</ele>
        <time>2020-06-17T07:37:40Z</time>
      </trkpt>
      <trkpt lat="49.33661" lon="-0.64642">
        <ele>55.2</ele>
        <time>2020-06-17T07:37:41Z</time>
      </trkpt>
      <trkpt lat="49.33661" lon="-0.64635">
        <ele>55.2</ele>
        <time>2020-06-17T07:37:42Z</time>
      </trkpt>
      <trkpt lat="49.33662" lon="-0.64626">
        <ele>55.2</ele>
        <time>2020-06-17T07:37:43Z</time>
      </trkpt>
      <trkpt lat="49.3366" lon="-0.64616">
        <ele>55.2</ele>
        <time>2020-06-17T07:37:44Z</time>
      </trkpt>
      <trkpt lat="49.33657" lon="-0.64608">
        <ele>55.3</ele>
        <time>2020-06-17T07:37:45Z</time>
      </trkpt>
      <trkpt lat="49.33656" lon="-0.64599">
        <ele>55.3</ele>
        <time>2020-06-17T07:37:46Z</time>
      </trkpt>
      <trkpt lat="49.33654" lon="-0.6459">
        <ele>55.3</ele>
        <time>2020-06-17T07:37:47Z</time>
      </trkpt>
      <trkpt lat="49.33653" lon="-0.64583">
        <ele>55.3</ele>
        <time>2020-06-17T07:37:48Z</time>
      </trkpt>
      <trkpt lat="49.33652" lon="-0.64577">
        <ele>55.3</ele>
        <time>2020-06-17T07:37:49Z</time>
      </trkpt>
      <trkpt lat="49.33651" lon="-0.6457">
        <ele>55.3</ele>
        <time>2020-06-17T07:37:50Z</time>
      </trkpt>
      <trkpt lat="49.3365" lon="-0.64562">
        <ele>55.4</ele>
        <time>2020-06-17T07:37:51Z</time>
      </trkpt>
      <trkpt lat="49.33649" lon="-0.64554">
        <ele>55.4</ele>
        <time>2020-06-17T07:37:52Z</time>
      </trkpt>
      <trkpt lat="49.33647" lon="-0.64546">
        <ele>55.5</ele>
        <time>2020-06-17T07:37:53Z</time>
      </trkpt>
      <trkpt lat="49.33646" lon="-0.64537">
        <ele>55.6</ele>
        <time>2020-06-17T07:37:54Z</time>
      </trkpt>
      <trkpt lat="49.33644" lon="-0.64529">
        <ele>55.7</ele>
        <time>2020-06-17T07:37:55Z</time>
      </trkpt>
      <trkpt lat="49.33641" lon="-0.64521">
        <ele>55.7</ele>
        <time>2020-06-17T07:37:56Z</time>
      </trkpt>
      <trkpt lat="49.33639" lon="-0.64513">
        <ele>55.8</ele>
        <time>2020-06-17T07:37:57Z</time>
      </trkpt>
      <trkpt lat="49.33635" lon="-0.64505">
        <ele>55.9</ele>
        <time>2020-06-17T07:37:58Z</time>
      </trkpt>
      <trkpt lat="49.33632" lon="-0.64498">
        <ele>55.9</ele>
        <time>2020-06-17T07:37:59Z</time>
      </trkpt>
      <trkpt lat="49.3363" lon="-0.64491">
        <ele>56</ele>
        <time>2020-06-17T07:38:00Z</time>
      </trkpt>
      <trkpt lat="49.33629" lon="-0.64484">
        <ele>56</ele>
        <time>2020-06-17T07:38:01Z</time>
      </trkpt>
      <trkpt lat="49.33627" lon="-0.64478">
        <ele>56.1</ele>
        <time>2020-06-17T07:38:02Z</time>
      </trkpt>
      <trkpt lat="49.33626" lon="-0.64471">
        <ele>56.1</ele>
        <time>2020-06-17T07:38:03Z</time>
      </trkpt>
      <trkpt lat="49.33626" lon="-0.64463">
        <ele>56.2</ele>
        <time>2020-06-17T07:38:04Z</time>
      </trkpt>
      <trkpt lat="49.33626" lon="-0.64454">
        <ele>56.3</ele>
        <time>2020-06-17T07:38:05Z</time>
      </trkpt>
      <trkpt lat="49.33627" lon="-0.64445">
        <ele>56.3</ele>
        <time>2020-06-17T07:38:06Z</time>
      </trkpt>
      <trkpt lat="49.33629" lon="-0.64438">
        <ele>56.3</ele>
        <time>2020-06-17T07:38:07Z</time>
      </trkpt>
      <trkpt lat="49.33632" lon="-0.64431">
        <ele>56.3</ele>
        <time>2020-06-17T07:38:08Z</time>
      </trkpt>
      <trkpt lat="49.33635" lon="-0.64424">
        <ele>56.3</ele>
        <time>2020-06-17T07:38:09Z</time>
      </trkpt>
      <trkpt lat="49.33637" lon="-0.64417">
        <ele>56.3</ele>
        <time>2020-06-17T07:38:10Z</time>
      </trkpt>
      <trkpt lat="49.33639" lon="-0.64412">
        <ele>56.3</ele>
        <time>2020-06-17T07:38:11Z</time>
      </trkpt>
      <trkpt lat="49.33643" lon="-0.64406">
        <ele>56.3</ele>
        <time>2020-06-17T07:38:12Z</time>
      </trkpt>
      <trkpt lat="49.33646" lon="-0.64402">
        <ele>56.3</ele>
        <time>2020-06-17T07:38:13Z</time>
      </trkpt>
      <trkpt lat="49.33649" lon="-0.64397">
        <ele>56.4</ele>
        <time>2020-06-17T07:38:14Z</time>
      </trkpt>
      <trkpt lat="49.33652" lon="-0.64391">
        <ele>56.4</ele>
        <time>2020-06-17T07:38:15Z</time>
      </trkpt>
      <trkpt lat="49.33655" lon="-0.64384">
        <ele>56.4</ele>
        <time>2020-06-17T07:38:16Z</time>
      </trkpt>
      <trkpt lat="49.33656" lon="-0.64377">
        <ele>56.3</ele>
        <time>2020-06-17T07:38:17Z</time>
      </trkpt>
      <trkpt lat="49.33658" lon="-0.6437">
        <ele>56.3</ele>
        <time>2020-06-17T07:38:18Z</time>
      </trkpt>
      <trkpt lat="49.33661" lon="-0.64362">
        <ele>56.3</ele>
        <time>2020-06-17T07:38:19Z</time>
      </trkpt>
      <trkpt lat="49.33662" lon="-0.64355">
        <ele>56.3</ele>
        <time>2020-06-17T07:38:20Z</time>
      </trkpt>
      <trkpt lat="49.33662" lon="-0.64347">
        <ele>56.3</ele>
        <time>2020-06-17T07:38:21Z</time>
      </trkpt>
      <trkpt lat="49.33662" lon="-0.64339">
        <ele>56.3</ele>
        <time>2020-06-17T07:38:22Z</time>
      </trkpt>
      <trkpt lat="49.33663" lon="-0.64331">
        <ele>56.3</ele>
        <time>2020-06-17T07:38:23Z</time>
      </trkpt>
      <trkpt lat="49.33664" lon="-0.64323">
        <ele>56.3</ele>
        <time>2020-06-17T07:38:24Z</time>
      </trkpt>
      <trkpt lat="49.33663" lon="-0.64315">
        <ele>56.3</ele>
        <time>2020-06-17T07:38:25Z</time>
      </trkpt>
      <trkpt lat="49.33662" lon="-0.64307">
        <ele>56.2</ele>
        <time>2020-06-17T07:38:26Z</time>
      </trkpt>
      <trkpt lat="49.33661" lon="-0.643">
        <ele>56.2</ele>
        <time>2020-06-17T07:38:27Z</time>
      </trkpt>
      <trkpt lat="49.33659" lon="-0.64293">
        <ele>56.2</ele>
        <time>2020-06-17T07:38:28Z</time>
      </trkpt>
      <trkpt lat="49.33657" lon="-0.64287">
        <ele>56.2</ele>
        <time>2020-06-17T07:38:29Z</time>
      </trkpt>
      <trkpt lat="49.33655" lon="-0.6428">
        <ele>56.2</ele>
        <time>2020-06-17T07:38:30Z</time>
      </trkpt>
      <trkpt lat="49.33653" lon="-0.64274">
        <ele>56.1</ele>
        <time>2020-06-17T07:38:31Z</time>
      </trkpt>
      <trkpt lat="49.3365" lon="-0.64266">
        <ele>56.1</ele>
        <time>2020-06-17T07:38:32Z</time>
      </trkpt>
      <trkpt lat="49.33647" lon="-0.64259">
        <ele>56.1</ele>
        <time>2020-06-17T07:38:33Z</time>
      </trkpt>
      <trkpt lat="49.33644" lon="-0.64251">
        <ele>56</ele>
        <time>2020-06-17T07:38:34Z</time>
      </trkpt>
      <trkpt lat="49.33641" lon="-0.64241">
        <ele>56</ele>
        <time>2020-06-17T07:38:35Z</time>
      </trkpt>
      <trkpt lat="49.33639" lon="-0.64232">
        <ele>56</ele>
        <time>2020-06-17T07:38:36Z</time>
      </trkpt>
      <trkpt lat="49.33637" lon="-0.64223">
        <ele>56</ele>
        <time>2020-06-17T07:38:37Z</time>
      </trkpt>
      <trkpt lat="49.33635" lon="-0.64213">
        <ele>56</ele>
        <time>2020-06-17T07:38:38Z</time>
      </trkpt>
      <trkpt lat="49.33633" lon="-0.64204">
        <ele>56</ele>
        <time>2020-06-17T07:38:39Z</time>
      </trkpt>
      <trkpt lat="49.33631" lon="-0.64195">
        <ele>56</ele>
        <time>2020-06-17T07:38:40Z</time>
      </trkpt>
      <trkpt lat="49.33629" lon="-0.64186">
        <ele>56</ele>
        <time>2020-06-17T07:38:41Z</time>
      </trkpt>
      <trkpt lat="49.33627" lon="-0.64178">
        <ele>56</ele>
        <time>2020-06-17T07:38:42Z</time>
      </trkpt>
      <trkpt lat="49.33624" lon="-0.64171">
        <ele>55.9</ele>
        <time>2020-06-17T07:38:43Z</time>
      </trkpt>
      <trkpt lat="49.33621" lon="-0.64165">
        <ele>55.9</ele>
        <time>2020-06-17T07:38:44Z</time>
      </trkpt>
      <trkpt lat="49.33617" lon="-0.64159">
        <ele>55.9</ele>
        <time>2020-06-17T07:38:45Z</time>
      </trkpt>
      <trkpt lat="49.33613" lon="-0.64154">
        <ele>55.9</ele>
        <time>2020-06-17T07:38:46Z</time>
      </trkpt>
      <trkpt lat="49.3361" lon="-0.64149">
        <ele>55.8</ele>
        <time>2020-06-17T07:38:47Z</time>
      </trkpt>
      <trkpt lat="49.33607" lon="-0.64144">
        <ele>55.8</ele>
        <time>2020-06-17T07:38:48Z</time>
      </trkpt>
      <trkpt lat="49.33603" lon="-0.64139">
        <ele>55.8</ele>
        <time>2020-06-17T07:38:49Z</time>
      </trkpt>
      <trkpt lat="49.33601" lon="-0.64134">
        <ele>55.8</ele>
        <time>2020-06-17T07:38:50Z</time>
      </trkpt>
      <trkpt lat="49.33598" lon="-0.64129">
        <ele>55.8</ele>
        <time>2020-06-17T07:38:51Z</time>
      </trkpt>
      <trkpt lat="49.33594" lon="-0.64124">
        <ele>55.7</ele>
        <time>2020-06-17T07:38:52Z</time>
      </trkpt>
      <trkpt lat="49.3359" lon="-0.64119">
        <ele>55.7</ele>
        <time>2020-06-17T07:38:53Z</time>
      </trkpt>
      <trkpt lat="49.33586" lon="-0.64113">
        <ele>55.7</ele>
        <time>2020-06-17T07:38:54Z</time>
      </trkpt>
      <trkpt lat="49.33582" lon="-0.64106">
        <ele>55.7</ele>
        <time>2020-06-17T07:38:55Z</time>
      </trkpt>
      <trkpt lat="49.33579" lon="-0.64099">
        <ele>55.6</ele>
        <time>2020-06-17T07:38:56Z</time>
      </trkpt>
      <trkpt lat="49.33575" lon="-0.64093">
        <ele>55.6</ele>
        <time>2020-06-17T07:38:57Z</time>
      </trkpt>
      <trkpt lat="49.33573" lon="-0.64087">
        <ele>55.6</ele>
        <time>2020-06-17T07:38:58Z</time>
      </trkpt>
      <trkpt lat="49.33569" lon="-0.6408">
        <ele>55.5</ele>
        <time>2020-06-17T07:38:59Z</time>
      </trkpt>
      <trkpt lat="49.33566" lon="-0.64074">
        <ele>55.5</ele>
        <time>2020-06-17T07:39:00Z</time>
      </trkpt>
      <trkpt lat="49.33563" lon="-0.64066">
        <ele>55.4</ele>
        <time>2020-06-17T07:39:01Z</time>
      </trkpt>
      <trkpt lat="49.33559" lon="-0.64057">
        <ele>55.4</ele>
        <time>2020-06-17T07:39:02Z</time>
      </trkpt>
      <trkpt lat="49.33556" lon="-0.6405">
        <ele>55.4</ele>
        <time>2020-06-17T07:39:03Z</time>
      </trkpt>
      <trkpt lat="49.33553" lon="-0.64043">
        <ele>55.3</ele>
        <time>2020-06-17T07:39:04Z</time>
      </trkpt>
      <trkpt lat="49.3355" lon="-0.64035">
        <ele>55.3</ele>
        <time>2020-06-17T07:39:05Z</time>
      </trkpt>
      <trkpt lat="49.33547" lon="-0.64028">
        <ele>55.3</ele>
        <time>2020-06-17T07:39:06Z</time>
      </trkpt>
      <trkpt lat="49.33544" lon="-0.64023">
        <ele>55.3</ele>
        <time>2020-06-17T07:39:07Z</time>
      </trkpt>
      <trkpt lat="49.33541" lon="-0.64018">
        <ele>55.3</ele>
        <time>2020-06-17T07:39:08Z</time>
      </trkpt>
      <trkpt lat="49.33538" lon="-0.64012">
        <ele>55.2</ele>
        <time>2020-06-17T07:39:09Z</time>
      </trkpt>
      <trkpt lat="49.33535" lon="-0.64006">
        <ele>55.2</ele>
        <time>2020-06-17T07:39:10Z</time>
      </trkpt>
      <trkpt lat="49.33533" lon="-0.64">
        <ele>55.2</ele>
        <time>2020-06-17T07:39:11Z</time>
      </trkpt>
      <trkpt lat="49.33531" lon="-0.63994">
        <ele>55.2</ele>
        <time>2020-06-17T07:39:12Z</time>
      </trkpt>
      <trkpt lat="49.33529" lon="-0.63989">
        <ele>55.1</ele>
        <time>2020-06-17T07:39:13Z</time>
      </trkpt>
      <trkpt lat="49.33527" lon="-0.63981">
        <ele>55.1</ele>
        <time>2020-06-17T07:39:14Z</time>
      </trkpt>
      <trkpt lat="49.33526" lon="-0.63975">
        <ele>55.1</ele>
        <time>2020-06-17T07:39:15Z</time>
      </trkpt>
      <trkpt lat="49.33523" lon="-0.63969">
        <ele>55.1</ele>
        <time>2020-06-17T07:39:16Z</time>
      </trkpt>
      <trkpt lat="49.3352" lon="-0.63963">
        <ele>55</ele>
        <time>2020-06-17T07:39:17Z</time>
      </trkpt>
      <trkpt lat="49.33518" lon="-0.63955">
        <ele>55</ele>
        <time>2020-06-17T07:39:18Z</time>
      </trkpt>
      <trkpt lat="49.33514" lon="-0.63947">
        <ele>54.9</ele>
        <time>2020-06-17T07:39:19Z</time>
      </trkpt>
      <trkpt lat="49.33511" lon="-0.6394">
        <ele>54.8</ele>
        <time>2020-06-17T07:39:20Z</time>
      </trkpt>
      <trkpt lat="49.33508" lon="-0.63932">
        <ele>54.7</ele>
        <time>2020-06-17T07:39:21Z</time>
      </trkpt>
      <trkpt lat="49.33505" lon="-0.63924">
        <ele>54.6</ele>
        <time>2020-06-17T07:39:22Z</time>
      </trkpt>
      <trkpt lat="49.33501" lon="-0.63916">
        <ele>54.6</ele>
        <time>2020-06-17T07:39:23Z</time>
      </trkpt>
      <trkpt lat="49.33498" lon="-0.63908">
        <ele>54.5</ele>
        <time>2020-06-17T07:39:24Z</time>
      </trkpt>
      <trkpt lat="49.33494" lon="-0.639">
        <ele>54.4</ele>
        <time>2020-06-17T07:39:25Z</time>
      </trkpt>
      <trkpt lat="49.33491" lon="-0.63891">
        <ele>54.3</ele>
        <time>2020-06-17T07:39:26Z</time>
      </trkpt>
      <trkpt lat="49.33489" lon="-0.63882">
        <ele>54.3</ele>
        <time>2020-06-17T07:39:27Z</time>
      </trkpt>
      <trkpt lat="49.33487" lon="-0.63873">
        <ele>54.3</ele>
        <time>2020-06-17T07:39:28Z</time>
      </trkpt>
      <trkpt lat="49.33484" lon="-0.63865">
        <ele>54.2</ele>
        <time>2020-06-17T07:39:29Z</time>
      </trkpt>
      <trkpt lat="49.33481" lon="-0.63856">
        <ele>54.2</ele>
        <time>2020-06-17T07:39:30Z</time>
      </trkpt>
      <trkpt lat="49.33478" lon="-0.63847">
        <ele>54.2</ele>
        <time>2020-06-17T07:39:31Z</time>
      </trkpt>
      <trkpt lat="49.33474" lon="-0.63838">
        <ele>54.2</ele>
        <time>2020-06-17T07:39:32Z</time>
      </trkpt>
      <trkpt lat="49.33471" lon="-0.63829">
        <ele>54.2</ele>
        <time>2020-06-17T07:39:33Z</time>
      </trkpt>
      <trkpt lat="49.33469" lon="-0.63819">
        <ele>54.3</ele>
        <time>2020-06-17T07:39:34Z</time>
      </trkpt>
      <trkpt lat="49.33466" lon="-0.6381">
        <ele>54.3</ele>
        <time>2020-06-17T07:39:35Z</time>
      </trkpt>
      <trkpt lat="49.33464" lon="-0.63802">
        <ele>54.4</ele>
        <time>2020-06-17T07:39:36Z</time>
      </trkpt>
      <trkpt lat="49.33462" lon="-0.63793">
        <ele>54.5</ele>
        <time>2020-06-17T07:39:37Z</time>
      </trkpt>
      <trkpt lat="49.3346" lon="-0.63786">
        <ele>54.6</ele>
        <time>2020-06-17T07:39:38Z</time>
      </trkpt>
      <trkpt lat="49.33457" lon="-0.63778">
        <ele>54.6</ele>
        <time>2020-06-17T07:39:39Z</time>
      </trkpt>
      <trkpt lat="49.33455" lon="-0.6377">
        <ele>54.7</ele>
        <time>2020-06-17T07:39:40Z</time>
      </trkpt>
      <trkpt lat="49.33453" lon="-0.63761">
        <ele>54.8</ele>
        <time>2020-06-17T07:39:41Z</time>
      </trkpt>
      <trkpt lat="49.33451" lon="-0.63753">
        <ele>54.9</ele>
        <time>2020-06-17T07:39:42Z</time>
      </trkpt>
      <trkpt lat="49.33449" lon="-0.63745">
        <ele>55</ele>
        <time>2020-06-17T07:39:43Z</time>
      </trkpt>
      <trkpt lat="49.33447" lon="-0.63737">
        <ele>55.1</ele>
        <time>2020-06-17T07:39:44Z</time>
      </trkpt>
      <trkpt lat="49.33445" lon="-0.6373">
        <ele>55.2</ele>
        <time>2020-06-17T07:39:45Z</time>
      </trkpt>
      <trkpt lat="49.33443" lon="-0.63724">
        <ele>55.3</ele>
        <time>2020-06-17T07:39:46Z</time>
      </trkpt>
      <trkpt lat="49.33441" lon="-0.63716">
        <ele>55.4</ele>
        <time>2020-06-17T07:39:47Z</time>
      </trkpt>
      <trkpt lat="49.33438" lon="-0.63709">
        <ele>55.5</ele>
        <time>2020-06-17T07:39:48Z</time>
      </trkpt>
      <trkpt lat="49.33436" lon="-0.63701">
        <ele>55.7</ele>
        <time>2020-06-17T07:39:49Z</time>
      </trkpt>
      <trkpt lat="49.33434" lon="-0.63694">
        <ele>55.8</ele>
        <time>2020-06-17T07:39:50Z</time>
      </trkpt>
      <trkpt lat="49.33432" lon="-0.63688">
        <ele>55.9</ele>
        <time>2020-06-17T07:39:51Z</time>
      </trkpt>
      <trkpt lat="49.3343" lon="-0.63682">
        <ele>56</ele>
        <time>2020-06-17T07:39:52Z</time>
      </trkpt>
      <trkpt lat="49.33428" lon="-0.63676">
        <ele>56.1</ele>
        <time>2020-06-17T07:39:53Z</time>
      </trkpt>
      <trkpt lat="49.33426" lon="-0.63668">
        <ele>56.2</ele>
        <time>2020-06-17T07:39:54Z</time>
      </trkpt>
      <trkpt lat="49.33424" lon="-0.63662">
        <ele>56.2</ele>
        <time>2020-06-17T07:39:55Z</time>
      </trkpt>
      <trkpt lat="49.33421" lon="-0.63656">
        <ele>56.3</ele>
        <time>2020-06-17T07:39:56Z</time>
      </trkpt>
      <trkpt lat="49.33418" lon="-0.6365">
        <ele>56.3</ele>
        <time>2020-06-17T07:39:57Z</time>
      </trkpt>
      <trkpt lat="49.33415" lon="-0.63643">
        <ele>56.3</ele>
        <time>2020-06-17T07:39:58Z</time>
      </trkpt>
      <trkpt lat="49.33413" lon="-0.63637">
        <ele>56.3</ele>
        <time>2020-06-17T07:39:59Z</time>
      </trkpt>
      <trkpt lat="49.33409" lon="-0.6363">
        <ele>56.4</ele>
        <time>2020-06-17T07:40:00Z</time>
      </trkpt>
      <trkpt lat="49.33406" lon="-0.63621">
        <ele>56.4</ele>
        <time>2020-06-17T07:40:01Z</time>
      </trkpt>
      <trkpt lat="49.33403" lon="-0.63612">
        <ele>56.5</ele>
        <time>2020-06-17T07:40:02Z</time>
      </trkpt>
      <trkpt lat="49.33402" lon="-0.63606">
        <ele>56.5</ele>
        <time>2020-06-17T07:40:03Z</time>
      </trkpt>
      <trkpt lat="49.33403" lon="-0.636">
        <ele>56.5</ele>
        <time>2020-06-17T07:40:04Z</time>
      </trkpt>
      <trkpt lat="49.33405" lon="-0.63595">
        <ele>56.5</ele>
        <time>2020-06-17T07:40:05Z</time>
      </trkpt>
      <trkpt lat="49.3341" lon="-0.63591">
        <ele>56.7</ele>
        <time>2020-06-17T07:40:06Z</time>
      </trkpt>
      <trkpt lat="49.33414" lon="-0.63588">
        <ele>56.7</ele>
        <time>2020-06-17T07:40:07Z</time>
      </trkpt>
      <trkpt lat="49.33418" lon="-0.63586">
        <ele>56.7</ele>
        <time>2020-06-17T07:40:08Z</time>
      </trkpt>
      <trkpt lat="49.33422" lon="-0.63585">
        <ele>56.6</ele>
        <time>2020-06-17T07:40:09Z</time>
      </trkpt>
      <trkpt lat="49.33426" lon="-0.63584">
        <ele>56.4</ele>
        <time>2020-06-17T07:40:10Z</time>
      </trkpt>
      <trkpt lat="49.33431" lon="-0.63581">
        <ele>56.3</ele>
        <time>2020-06-17T07:40:11Z</time>
      </trkpt>
      <trkpt lat="49.33436" lon="-0.63579">
        <ele>56.2</ele>
        <time>2020-06-17T07:40:12Z</time>
      </trkpt>
      <trkpt lat="49.33442" lon="-0.63576">
        <ele>56.1</ele>
        <time>2020-06-17T07:40:13Z</time>
      </trkpt>
      <trkpt lat="49.33447" lon="-0.63572">
        <ele>56</ele>
        <time>2020-06-17T07:40:14Z</time>
      </trkpt>
      <trkpt lat="49.33453" lon="-0.63568">
        <ele>55.9</ele>
        <time>2020-06-17T07:40:15Z</time>
      </trkpt>
      <trkpt lat="49.33458" lon="-0.63565">
        <ele>55.9</ele>
        <time>2020-06-17T07:40:16Z</time>
      </trkpt>
      <trkpt lat="49.33463" lon="-0.6356">
        <ele>55.8</ele>
        <time>2020-06-17T07:40:17Z</time>
      </trkpt>
      <trkpt lat="49.33468" lon="-0.63554">
        <ele>55.7</ele>
        <time>2020-06-17T07:40:18Z</time>
      </trkpt>
      <trkpt lat="49.33473" lon="-0.63548">
        <ele>55.6</ele>
        <time>2020-06-17T07:40:19Z</time>
      </trkpt>
      <trkpt lat="49.33478" lon="-0.63541">
        <ele>55.5</ele>
        <time>2020-06-17T07:40:20Z</time>
      </trkpt>
      <trkpt lat="49.33483" lon="-0.63536">
        <ele>55.4</ele>
        <time>2020-06-17T07:40:21Z</time>
      </trkpt>
      <trkpt lat="49.33488" lon="-0.63529">
        <ele>55.3</ele>
        <time>2020-06-17T07:40:22Z</time>
      </trkpt>
      <trkpt lat="49.33493" lon="-0.63523">
        <ele>55.2</ele>
        <time>2020-06-17T07:40:23Z</time>
      </trkpt>
      <trkpt lat="49.33498" lon="-0.63517">
        <ele>55</ele>
        <time>2020-06-17T07:40:24Z</time>
      </trkpt>
      <trkpt lat="49.33503" lon="-0.6351">
        <ele>54.9</ele>
        <time>2020-06-17T07:40:25Z</time>
      </trkpt>
      <trkpt lat="49.33507" lon="-0.63503">
        <ele>54.8</ele>
        <time>2020-06-17T07:40:26Z</time>
      </trkpt>
      <trkpt lat="49.33512" lon="-0.63495">
        <ele>54.6</ele>
        <time>2020-06-17T07:40:27Z</time>
      </trkpt>
      <trkpt lat="49.33518" lon="-0.63486">
        <ele>54.3</ele>
        <time>2020-06-17T07:40:28Z</time>
      </trkpt>
      <trkpt lat="49.33523" lon="-0.63479">
        <ele>54.1</ele>
        <time>2020-06-17T07:40:29Z</time>
      </trkpt>
      <trkpt lat="49.33528" lon="-0.63471">
        <ele>53.8</ele>
        <time>2020-06-17T07:40:30Z</time>
      </trkpt>
      <trkpt lat="49.33534" lon="-0.63464">
        <ele>53.5</ele>
        <time>2020-06-17T07:40:31Z</time>
      </trkpt>
      <trkpt lat="49.33538" lon="-0.63457">
        <ele>53.2</ele>
        <time>2020-06-17T07:40:32Z</time>
      </trkpt>
      <trkpt lat="49.33542" lon="-0.63449">
        <ele>53</ele>
        <time>2020-06-17T07:40:33Z</time>
      </trkpt>
      <trkpt lat="49.33547" lon="-0.63441">
        <ele>52.6</ele>
        <time>2020-06-17T07:40:34Z</time>
      </trkpt>
      <trkpt lat="49.33552" lon="-0.63433">
        <ele>52.2</ele>
        <time>2020-06-17T07:40:35Z</time>
      </trkpt>
      <trkpt lat="49.33557" lon="-0.63426">
        <ele>51.8</ele>
        <time>2020-06-17T07:40:36Z</time>
      </trkpt>
      <trkpt lat="49.33562" lon="-0.63419">
        <ele>51.4</ele>
        <time>2020-06-17T07:40:37Z</time>
      </trkpt>
      <trkpt lat="49.33566" lon="-0.63412">
        <ele>51</ele>
        <time>2020-06-17T07:40:38Z</time>
      </trkpt>
      <trkpt lat="49.33571" lon="-0.63404">
        <ele>50.5</ele>
        <time>2020-06-17T07:40:39Z</time>
      </trkpt>
      <trkpt lat="49.33577" lon="-0.63396">
        <ele>50</ele>
        <time>2020-06-17T07:40:40Z</time>
      </trkpt>
      <trkpt lat="49.33582" lon="-0.63388">
        <ele>49.4</ele>
        <time>2020-06-17T07:40:41Z</time>
      </trkpt>
      <trkpt lat="49.33588" lon="-0.63378">
        <ele>48.7</ele>
        <time>2020-06-17T07:40:42Z</time>
      </trkpt>
      <trkpt lat="49.33595" lon="-0.63367">
        <ele>47.9</ele>
        <time>2020-06-17T07:40:43Z</time>
      </trkpt>
      <trkpt lat="49.33602" lon="-0.63357">
        <ele>47.1</ele>
        <time>2020-06-17T07:40:44Z</time>
      </trkpt>
      <trkpt lat="49.33608" lon="-0.63348">
        <ele>46.3</ele>
        <time>2020-06-17T07:40:45Z</time>
      </trkpt>
      <trkpt lat="49.33615" lon="-0.63338">
        <ele>45.5</ele>
        <time>2020-06-17T07:40:46Z</time>
      </trkpt>
      <trkpt lat="49.33623" lon="-0.63327">
        <ele>44.6</ele>
        <time>2020-06-17T07:40:47Z</time>
      </trkpt>
      <trkpt lat="49.33631" lon="-0.63317">
        <ele>43.8</ele>
        <time>2020-06-17T07:40:48Z</time>
      </trkpt>
      <trkpt lat="49.3364" lon="-0.63307">
        <ele>42.9</ele>
        <time>2020-06-17T07:40:49Z</time>
      </trkpt>
      <trkpt lat="49.33648" lon="-0.63297">
        <ele>42</ele>
        <time>2020-06-17T07:40:50Z</time>
      </trkpt>
      <trkpt lat="49.33656" lon="-0.63285">
        <ele>41</ele>
        <time>2020-06-17T07:40:51Z</time>
      </trkpt>
      <trkpt lat="49.33664" lon="-0.63272">
        <ele>39.9</ele>
        <time>2020-06-17T07:40:52Z</time>
      </trkpt>
      <trkpt lat="49.33671" lon="-0.6326">
        <ele>38.9</ele>
        <time>2020-06-17T07:40:53Z</time>
      </trkpt>
      <trkpt lat="49.3368" lon="-0.63249">
        <ele>37.9</ele>
        <time>2020-06-17T07:40:54Z</time>
      </trkpt>
      <trkpt lat="49.33688" lon="-0.63238">
        <ele>36.9</ele>
        <time>2020-06-17T07:40:55Z</time>
      </trkpt>
      <trkpt lat="49.33698" lon="-0.63227">
        <ele>35.8</ele>
        <time>2020-06-17T07:40:56Z</time>
      </trkpt>
      <trkpt lat="49.33708" lon="-0.63217">
        <ele>34.8</ele>
        <time>2020-06-17T07:40:57Z</time>
      </trkpt>
      <trkpt lat="49.33717" lon="-0.63207">
        <ele>33.7</ele>
        <time>2020-06-17T07:40:58Z</time>
      </trkpt>
      <trkpt lat="49.33728" lon="-0.63197">
        <ele>32.7</ele>
        <time>2020-06-17T07:40:59Z</time>
      </trkpt>
      <trkpt lat="49.33737" lon="-0.63187">
        <ele>31.7</ele>
        <time>2020-06-17T07:41:00Z</time>
      </trkpt>
      <trkpt lat="49.33747" lon="-0.63177">
        <ele>30.7</ele>
        <time>2020-06-17T07:41:01Z</time>
      </trkpt>
      <trkpt lat="49.33756" lon="-0.63168">
        <ele>29.7</ele>
        <time>2020-06-17T07:41:02Z</time>
      </trkpt>
      <trkpt lat="49.33766" lon="-0.63158">
        <ele>28.8</ele>
        <time>2020-06-17T07:41:03Z</time>
      </trkpt>
      <trkpt lat="49.33775" lon="-0.63148">
        <ele>28</ele>
        <time>2020-06-17T07:41:04Z</time>
      </trkpt>
      <trkpt lat="49.33785" lon="-0.63138">
        <ele>27.2</ele>
        <time>2020-06-17T07:41:05Z</time>
      </trkpt>
      <trkpt lat="49.33794" lon="-0.63127">
        <ele>26.4</ele>
        <time>2020-06-17T07:41:06Z</time>
      </trkpt>
      <trkpt lat="49.33802" lon="-0.63117">
        <ele>25.8</ele>
        <time>2020-06-17T07:41:07Z</time>
      </trkpt>
      <trkpt lat="49.3381" lon="-0.63107">
        <ele>25.2</ele>
        <time>2020-06-17T07:41:08Z</time>
      </trkpt>
      <trkpt lat="49.33818" lon="-0.63097">
        <ele>24.7</ele>
        <time>2020-06-17T07:41:09Z</time>
      </trkpt>
      <trkpt lat="49.33824" lon="-0.63088">
        <ele>24.4</ele>
        <time>2020-06-17T07:41:10Z</time>
      </trkpt>
      <trkpt lat="49.33829" lon="-0.63078">
        <ele>24.2</ele>
        <time>2020-06-17T07:41:11Z</time>
      </trkpt>
      <trkpt lat="49.33833" lon="-0.63069">
        <ele>23.9</ele>
        <time>2020-06-17T07:41:12Z</time>
      </trkpt>
      <trkpt lat="49.33836" lon="-0.63059">
        <ele>23.7</ele>
        <time>2020-06-17T07:41:13Z</time>
      </trkpt>
      <trkpt lat="49.33839" lon="-0.63049">
        <ele>23.4</ele>
        <time>2020-06-17T07:41:14Z</time>
      </trkpt>
      <trkpt lat="49.33841" lon="-0.63039">
        <ele>23.3</ele>
        <time>2020-06-17T07:41:15Z</time>
      </trkpt>
      <trkpt lat="49.33842" lon="-0.63029">
        <ele>23.1</ele>
        <time>2020-06-17T07:41:16Z</time>
      </trkpt>
      <trkpt lat="49.33842" lon="-0.63019">
        <ele>23</ele>
        <time>2020-06-17T07:41:17Z</time>
      </trkpt>
      <trkpt lat="49.33842" lon="-0.6301">
        <ele>22.4</ele>
        <time>2020-06-17T07:41:18Z</time>
      </trkpt>
      <trkpt lat="49.3384" lon="-0.63004">
        <ele>22.1</ele>
        <time>2020-06-17T07:41:19Z</time>
      </trkpt>
      <trkpt lat="49.33839" lon="-0.62999">
        <ele>21.8</ele>
        <time>2020-06-17T07:41:20Z</time>
      </trkpt>
      <trkpt lat="49.3384" lon="-0.62993">
        <ele>21.6</ele>
        <time>2020-06-17T07:41:21Z</time>
      </trkpt>
      <trkpt lat="49.3384" lon="-0.62991">
        <ele>21.5</ele>
        <time>2020-06-17T07:41:22Z</time>
      </trkpt>
      <trkpt lat="49.3384" lon="-0.62988">
        <ele>21.3</ele>
        <time>2020-06-17T07:41:23Z</time>
      </trkpt>
      <trkpt lat="49.33841" lon="-0.62987">
        <ele>21.3</ele>
        <time>2020-06-17T07:41:24Z</time>
      </trkpt>
      <trkpt lat="49.33842" lon="-0.62988">
        <ele>21.3</ele>
        <time>2020-06-17T07:41:25Z</time>
      </trkpt>
      <trkpt lat="49.33842" lon="-0.62989">
        <ele>21.2</ele>
        <time>2020-06-17T07:41:26Z</time>
      </trkpt>
      <trkpt lat="49.33842" lon="-0.6299">
        <ele>21.1</ele>
        <time>2020-06-17T07:41:27Z</time>
      </trkpt>
      <trkpt lat="49.33842" lon="-0.6299">
        <ele>21.1</ele>
        <time>2020-06-17T07:41:28Z</time>
      </trkpt>
      <trkpt lat="49.33843" lon="-0.6299">
        <ele>21</ele>
        <time>2020-06-17T07:41:29Z</time>
      </trkpt>
      <trkpt lat="49.33843" lon="-0.62991">
        <ele>21</ele>
        <time>2020-06-17T07:41:30Z</time>
      </trkpt>
      <trkpt lat="49.33844" lon="-0.62992">
        <ele>20.9</ele>
        <time>2020-06-17T07:41:31Z</time>
      </trkpt>
      <trkpt lat="49.33844" lon="-0.62995">
        <ele>20.8</ele>
        <time>2020-06-17T07:41:32Z</time>
      </trkpt>
      <trkpt lat="49.33846" lon="-0.62999">
        <ele>20.6</ele>
        <time>2020-06-17T07:41:33Z</time>
      </trkpt>
      <trkpt lat="49.33846" lon="-0.63001">
        <ele>20.5</ele>
        <time>2020-06-17T07:41:34Z</time>
      </trkpt>
      <trkpt lat="49.33847" lon="-0.63001">
        <ele>20.4</ele>
        <time>2020-06-17T07:41:35Z</time>
      </trkpt>
      <trkpt lat="49.33848" lon="-0.63">
        <ele>20.4</ele>
        <time>2020-06-17T07:41:36Z</time>
      </trkpt>
      <trkpt lat="49.33849" lon="-0.62998">
        <ele>20.3</ele>
        <time>2020-06-17T07:41:37Z</time>
      </trkpt>
      <trkpt lat="49.33852" lon="-0.62996">
        <ele>20.1</ele>
        <time>2020-06-17T07:41:38Z</time>
      </trkpt>
      <trkpt lat="49.33853" lon="-0.62994">
        <ele>20</ele>
        <time>2020-06-17T07:41:39Z</time>
      </trkpt>
      <trkpt lat="49.33856" lon="-0.62991">
        <ele>19.8</ele>
        <time>2020-06-17T07:41:40Z</time>
      </trkpt>
      <trkpt lat="49.33857" lon="-0.6299">
        <ele>19.7</ele>
        <time>2020-06-17T07:41:41Z</time>
      </trkpt>
      <trkpt lat="49.3386" lon="-0.62987">
        <ele>19.5</ele>
        <time>2020-06-17T07:41:42Z</time>
      </trkpt>
      <trkpt lat="49.33863" lon="-0.62986">
        <ele>19.3</ele>
        <time>2020-06-17T07:41:43Z</time>
      </trkpt>
      <trkpt lat="49.33865" lon="-0.62984">
        <ele>19.1</ele>
        <time>2020-06-17T07:41:44Z</time>
      </trkpt>
      <trkpt lat="49.33869" lon="-0.62983">
        <ele>18.9</ele>
        <time>2020-06-17T07:41:45Z</time>
      </trkpt>
      <trkpt lat="49.3387" lon="-0.62982">
        <ele>18.9</ele>
        <time>2020-06-17T07:41:46Z</time>
      </trkpt>
      <trkpt lat="49.33873" lon="-0.62981">
        <ele>18.7</ele>
        <time>2020-06-17T07:41:47Z</time>
      </trkpt>
      <trkpt lat="49.33874" lon="-0.6298">
        <ele>18.6</ele>
        <time>2020-06-17T07:41:48Z</time>
      </trkpt>
      <trkpt lat="49.33876" lon="-0.62978">
        <ele>18.5</ele>
        <time>2020-06-17T07:41:49Z</time>
      </trkpt>
      <trkpt lat="49.33879" lon="-0.62974">
        <ele>18.3</ele>
        <time>2020-06-17T07:41:50Z</time>
      </trkpt>
      <trkpt lat="49.33882" lon="-0.62971">
        <ele>18.1</ele>
        <time>2020-06-17T07:41:51Z</time>
      </trkpt>
      <trkpt lat="49.33886" lon="-0.62967">
        <ele>17.9</ele>
        <time>2020-06-17T07:41:52Z</time>
      </trkpt>
      <trkpt lat="49.33889" lon="-0.62963">
        <ele>17.7</ele>
        <time>2020-06-17T07:41:53Z</time>
      </trkpt>
      <trkpt lat="49.33893" lon="-0.62958">
        <ele>17.4</ele>
        <time>2020-06-17T07:41:54Z</time>
      </trkpt>
      <trkpt lat="49.33898" lon="-0.62952">
        <ele>17.2</ele>
        <time>2020-06-17T07:41:55Z</time>
      </trkpt>
      <trkpt lat="49.33902" lon="-0.62946">
        <ele>17</ele>
        <time>2020-06-17T07:41:56Z</time>
      </trkpt>
      <trkpt lat="49.33906" lon="-0.6294">
        <ele>16.7</ele>
        <time>2020-06-17T07:41:57Z</time>
      </trkpt>
      <trkpt lat="49.3391" lon="-0.62935">
        <ele>16.5</ele>
        <time>2020-06-17T07:41:58Z</time>
      </trkpt>
      <trkpt lat="49.33915" lon="-0.6293">
        <ele>16.3</ele>
        <time>2020-06-17T07:41:59Z</time>
      </trkpt>
      <trkpt lat="49.3392" lon="-0.62924">
        <ele>16</ele>
        <time>2020-06-17T07:42:00Z</time>
      </trkpt>
      <trkpt lat="49.33924" lon="-0.62918">
        <ele>15.8</ele>
        <time>2020-06-17T07:42:01Z</time>
      </trkpt>
      <trkpt lat="49.33929" lon="-0.62911">
        <ele>15.5</ele>
        <time>2020-06-17T07:42:02Z</time>
      </trkpt>
      <trkpt lat="49.33934" lon="-0.62904">
        <ele>15.2</ele>
        <time>2020-06-17T07:42:03Z</time>
      </trkpt>
      <trkpt lat="49.33939" lon="-0.62898">
        <ele>14.9</ele>
        <time>2020-06-17T07:42:04Z</time>
      </trkpt>
      <trkpt lat="49.33944" lon="-0.62891">
        <ele>14.6</ele>
        <time>2020-06-17T07:42:05Z</time>
      </trkpt>
      <trkpt lat="49.33949" lon="-0.62883">
        <ele>14.3</ele>
        <time>2020-06-17T07:42:06Z</time>
      </trkpt>
      <trkpt lat="49.33955" lon="-0.62877">
        <ele>14</ele>
        <time>2020-06-17T07:42:07Z</time>
      </trkpt>
      <trkpt lat="49.33961" lon="-0.62871">
        <ele>13.7</ele>
        <time>2020-06-17T07:42:08Z</time>
      </trkpt>
      <trkpt lat="49.33967" lon="-0.62864">
        <ele>13.4</ele>
        <time>2020-06-17T07:42:09Z</time>
      </trkpt>
      <trkpt lat="49.33973" lon="-0.62857">
        <ele>13.2</ele>
        <time>2020-06-17T07:42:10Z</time>
      </trkpt>
      <trkpt lat="49.33979" lon="-0.6285">
        <ele>13</ele>
        <time>2020-06-17T07:42:11Z</time>
      </trkpt>
      <trkpt lat="49.33985" lon="-0.62842">
        <ele>12.7</ele>
        <time>2020-06-17T07:42:12Z</time>
      </trkpt>
      <trkpt lat="49.3399" lon="-0.62835">
        <ele>12.5</ele>
        <time>2020-06-17T07:42:13Z</time>
      </trkpt>
      <trkpt lat="49.33996" lon="-0.62828">
        <ele>12.3</ele>
        <time>2020-06-17T07:42:14Z</time>
      </trkpt>
      <trkpt lat="49.34002" lon="-0.62821">
        <ele>12.1</ele>
        <time>2020-06-17T07:42:15Z</time>
      </trkpt>
      <trkpt lat="49.34007" lon="-0.62814">
        <ele>11.9</ele>
        <time>2020-06-17T07:42:16Z</time>
      </trkpt>
      <trkpt lat="49.34012" lon="-0.62807">
        <ele>11.8</ele>
        <time>2020-06-17T07:42:17Z</time>
      </trkpt>
      <trkpt lat="49.34017" lon="-0.628">
        <ele>11.6</ele>
        <time>2020-06-17T07:42:18Z</time>
      </trkpt>
      <trkpt lat="49.34021" lon="-0.62793">
        <ele>11.4</ele>
        <time>2020-06-17T07:42:19Z</time>
      </trkpt>
      <trkpt lat="49.34025" lon="-0.62785">
        <ele>11.2</ele>
        <time>2020-06-17T07:42:20Z</time>
      </trkpt>
      <trkpt lat="49.34028" lon="-0.62778">
        <ele>11.1</ele>
        <time>2020-06-17T07:42:21Z</time>
      </trkpt>
      <trkpt lat="49.3403" lon="-0.62771">
        <ele>10.9</ele>
        <time>2020-06-17T07:42:22Z</time>
      </trkpt>
      <trkpt lat="49.3403" lon="-0.62764">
        <ele>10.8</ele>
        <time>2020-06-17T07:42:23Z</time>
      </trkpt>
      <trkpt lat="49.34029" lon="-0.62757">
        <ele>10.6</ele>
        <time>2020-06-17T07:42:24Z</time>
      </trkpt>
      <trkpt lat="49.34026" lon="-0.62752">
        <ele>10.5</ele>
        <time>2020-06-17T07:42:25Z</time>
      </trkpt>
      <trkpt lat="49.34024" lon="-0.62747">
        <ele>10.4</ele>
        <time>2020-06-17T07:42:26Z</time>
      </trkpt>
      <trkpt lat="49.34021" lon="-0.62739">
        <ele>10.1</ele>
        <time>2020-06-17T07:42:27Z</time>
      </trkpt>
      <trkpt lat="49.34015" lon="-0.6273">
        <ele>9.9</ele>
        <time>2020-06-17T07:42:28Z</time>
      </trkpt>
      <trkpt lat="49.3401" lon="-0.62721">
        <ele>9.6</ele>
        <time>2020-06-17T07:42:29Z</time>
      </trkpt>
      <trkpt lat="49.34004" lon="-0.62713">
        <ele>9.3</ele>
        <time>2020-06-17T07:42:30Z</time>
      </trkpt>
      <trkpt lat="49.33998" lon="-0.62704">
        <ele>9</ele>
        <time>2020-06-17T07:42:31Z</time>
      </trkpt>
      <trkpt lat="49.33994" lon="-0.62695">
        <ele>8.8</ele>
        <time>2020-06-17T07:42:32Z</time>
      </trkpt>
      <trkpt lat="49.33989" lon="-0.62686">
        <ele>8.6</ele>
        <time>2020-06-17T07:42:33Z</time>
      </trkpt>
      <trkpt lat="49.33983" lon="-0.62677">
        <ele>8.4</ele>
        <time>2020-06-17T07:42:34Z</time>
      </trkpt>
      <trkpt lat="49.33979" lon="-0.62668">
        <ele>8.1</ele>
        <time>2020-06-17T07:42:35Z</time>
      </trkpt>
      <trkpt lat="49.33975" lon="-0.62659">
        <ele>7.8</ele>
        <time>2020-06-17T07:42:36Z</time>
      </trkpt>
      <trkpt lat="49.33971" lon="-0.6265">
        <ele>7.7</ele>
        <time>2020-06-17T07:42:37Z</time>
      </trkpt>
      <trkpt lat="49.33967" lon="-0.62641">
        <ele>7.5</ele>
        <time>2020-06-17T07:42:38Z</time>
      </trkpt>
      <trkpt lat="49.33964" lon="-0.6263">
        <ele>7.4</ele>
        <time>2020-06-17T07:42:39Z</time>
      </trkpt>
      <trkpt lat="49.33962" lon="-0.6262">
        <ele>7.3</ele>
        <time>2020-06-17T07:42:40Z</time>
      </trkpt>
      <trkpt lat="49.33961" lon="-0.62609">
        <ele>7.2</ele>
        <time>2020-06-17T07:42:41Z</time>
      </trkpt>
      <trkpt lat="49.33959" lon="-0.62598">
        <ele>7.1</ele>
        <time>2020-06-17T07:42:42Z</time>
      </trkpt>
      <trkpt lat="49.33958" lon="-0.62587">
        <ele>7.1</ele>
        <time>2020-06-17T07:42:43Z</time>
      </trkpt>
      <trkpt lat="49.33958" lon="-0.62578">
        <ele>7</ele>
        <time>2020-06-17T07:42:44Z</time>
      </trkpt>
      <trkpt lat="49.33958" lon="-0.62568">
        <ele>7</ele>
        <time>2020-06-17T07:42:45Z</time>
      </trkpt>
      <trkpt lat="49.33957" lon="-0.62559">
        <ele>7</ele>
        <time>2020-06-17T07:42:46Z</time>
      </trkpt>
      <trkpt lat="49.33958" lon="-0.62549">
        <ele>6.9</ele>
        <time>2020-06-17T07:42:47Z</time>
      </trkpt>
      <trkpt lat="49.33957" lon="-0.6254">
        <ele>6.9</ele>
        <time>2020-06-17T07:42:48Z</time>
      </trkpt>
      <trkpt lat="49.33958" lon="-0.62531">
        <ele>6.9</ele>
        <time>2020-06-17T07:42:49Z</time>
      </trkpt>
      <trkpt lat="49.33958" lon="-0.62522">
        <ele>6.9</ele>
        <time>2020-06-17T07:42:50Z</time>
      </trkpt>
      <trkpt lat="49.33959" lon="-0.62514">
        <ele>6.9</ele>
        <time>2020-06-17T07:42:51Z</time>
      </trkpt>
      <trkpt lat="49.3396" lon="-0.62507">
        <ele>6.9</ele>
        <time>2020-06-17T07:42:52Z</time>
      </trkpt>
      <trkpt lat="49.33961" lon="-0.62499">
        <ele>6.9</ele>
        <time>2020-06-17T07:42:53Z</time>
      </trkpt>
      <trkpt lat="49.33963" lon="-0.62492">
        <ele>6.9</ele>
        <time>2020-06-17T07:42:54Z</time>
      </trkpt>
      <trkpt lat="49.33964" lon="-0.62484">
        <ele>6.9</ele>
        <time>2020-06-17T07:42:55Z</time>
      </trkpt>
      <trkpt lat="49.33965" lon="-0.62477">
        <ele>6.9</ele>
        <time>2020-06-17T07:42:56Z</time>
      </trkpt>
      <trkpt lat="49.33966" lon="-0.62469">
        <ele>6.9</ele>
        <time>2020-06-17T07:42:57Z</time>
      </trkpt>
      <trkpt lat="49.33967" lon="-0.62462">
        <ele>6.9</ele>
        <time>2020-06-17T07:42:58Z</time>
      </trkpt>
      <trkpt lat="49.33969" lon="-0.62455">
        <ele>7</ele>
        <time>2020-06-17T07:42:59Z</time>
      </trkpt>
      <trkpt lat="49.3397" lon="-0.62448">
        <ele>7</ele>
        <time>2020-06-17T07:43:00Z</time>
      </trkpt>
      <trkpt lat="49.33972" lon="-0.6244">
        <ele>7</ele>
        <time>2020-06-17T07:43:01Z</time>
      </trkpt>
      <trkpt lat="49.33974" lon="-0.62434">
        <ele>7</ele>
        <time>2020-06-17T07:43:02Z</time>
      </trkpt>
      <trkpt lat="49.33975" lon="-0.62427">
        <ele>7.1</ele>
        <time>2020-06-17T07:43:03Z</time>
      </trkpt>
      <trkpt lat="49.33976" lon="-0.6242">
        <ele>7.1</ele>
        <time>2020-06-17T07:43:04Z</time>
      </trkpt>
      <trkpt lat="49.33978" lon="-0.62414">
        <ele>7.1</ele>
        <time>2020-06-17T07:43:05Z</time>
      </trkpt>
      <trkpt lat="49.33981" lon="-0.62409">
        <ele>7.2</ele>
        <time>2020-06-17T07:43:06Z</time>
      </trkpt>
      <trkpt lat="49.33983" lon="-0.62403">
        <ele>7.2</ele>
        <time>2020-06-17T07:43:07Z</time>
      </trkpt>
      <trkpt lat="49.33985" lon="-0.62397">
        <ele>7.2</ele>
        <time>2020-06-17T07:43:08Z</time>
      </trkpt>
      <trkpt lat="49.33987" lon="-0.62391">
        <ele>7.3</ele>
        <time>2020-06-17T07:43:09Z</time>
      </trkpt>
      <trkpt lat="49.33988" lon="-0.62385">
        <ele>7.3</ele>
        <time>2020-06-17T07:43:10Z</time>
      </trkpt>
      <trkpt lat="49.3399" lon="-0.62378">
        <ele>7.4</ele>
        <time>2020-06-17T07:43:11Z</time>
      </trkpt>
      <trkpt lat="49.3399" lon="-0.62371">
        <ele>7.5</ele>
        <time>2020-06-17T07:43:12Z</time>
      </trkpt>
      <trkpt lat="49.3399" lon="-0.62367">
        <ele>7.5</ele>
        <time>2020-06-17T07:43:13Z</time>
      </trkpt>
      <trkpt lat="49.33989" lon="-0.62366">
        <ele>7.6</ele>
        <time>2020-06-17T07:43:14Z</time>
      </trkpt>
      <trkpt lat="49.33986" lon="-0.62366">
        <ele>7.5</ele>
        <time>2020-06-17T07:43:15Z</time>
      </trkpt>
      <trkpt lat="49.33985" lon="-0.62366">
        <ele>7.5</ele>
        <time>2020-06-17T07:43:16Z</time>
      </trkpt>
      <trkpt lat="49.3398" lon="-0.62369">
        <ele>7.5</ele>
        <time>2020-06-17T07:43:17Z</time>
      </trkpt>
      <trkpt lat="49.33976" lon="-0.6237">
        <ele>7.5</ele>
        <time>2020-06-17T07:43:18Z</time>
      </trkpt>
      <trkpt lat="49.33971" lon="-0.62371">
        <ele>7.5</ele>
        <time>2020-06-17T07:43:19Z</time>
      </trkpt>
      <trkpt lat="49.33966" lon="-0.62371">
        <ele>7.5</ele>
        <time>2020-06-17T07:43:20Z</time>
      </trkpt>
      <trkpt lat="49.33962" lon="-0.62371">
        <ele>7.5</ele>
        <time>2020-06-17T07:43:21Z</time>
      </trkpt>
      <trkpt lat="49.33958" lon="-0.62371">
        <ele>7.5</ele>
        <time>2020-06-17T07:43:22Z</time>
      </trkpt>
      <trkpt lat="49.33954" lon="-0.62371">
        <ele>7.6</ele>
        <time>2020-06-17T07:43:23Z</time>
      </trkpt>
      <trkpt lat="49.3395" lon="-0.62372">
        <ele>7.6</ele>
        <time>2020-06-17T07:43:24Z</time>
      </trkpt>
      <trkpt lat="49.33945" lon="-0.62372">
        <ele>7.7</ele>
        <time>2020-06-17T07:43:25Z</time>
      </trkpt>
      <trkpt lat="49.3394" lon="-0.62372">
        <ele>7.7</ele>
        <time>2020-06-17T07:43:26Z</time>
      </trkpt>
      <trkpt lat="49.33936" lon="-0.62371">
        <ele>7.8</ele>
        <time>2020-06-17T07:43:27Z</time>
      </trkpt>
      <trkpt lat="49.33931" lon="-0.62372">
        <ele>7.8</ele>
        <time>2020-06-17T07:43:28Z</time>
      </trkpt>
      <trkpt lat="49.33927" lon="-0.62374">
        <ele>7.9</ele>
        <time>2020-06-17T07:43:29Z</time>
      </trkpt>
      <trkpt lat="49.33922" lon="-0.62376">
        <ele>8</ele>
        <time>2020-06-17T07:43:30Z</time>
      </trkpt>
      <trkpt lat="49.33918" lon="-0.62379">
        <ele>8.1</ele>
        <time>2020-06-17T07:43:31Z</time>
      </trkpt>
      <trkpt lat="49.33914" lon="-0.6238">
        <ele>8.2</ele>
        <time>2020-06-17T07:43:32Z</time>
      </trkpt>
      <trkpt lat="49.3391" lon="-0.62382">
        <ele>8.4</ele>
        <time>2020-06-17T07:43:33Z</time>
      </trkpt>
      <trkpt lat="49.33906" lon="-0.62384">
        <ele>8.5</ele>
        <time>2020-06-17T07:43:34Z</time>
      </trkpt>
      <trkpt lat="49.33902" lon="-0.62386">
        <ele>8.7</ele>
        <time>2020-06-17T07:43:35Z</time>
      </trkpt>
      <trkpt lat="49.33898" lon="-0.62387">
        <ele>8.8</ele>
        <time>2020-06-17T07:43:36Z</time>
      </trkpt>
      <trkpt lat="49.33893" lon="-0.62387">
        <ele>9</ele>
        <time>2020-06-17T07:43:37Z</time>
      </trkpt>
      <trkpt lat="49.33889" lon="-0.62388">
        <ele>9.1</ele>
        <time>2020-06-17T07:43:38Z</time>
      </trkpt>
      <trkpt lat="49.33885" lon="-0.62388">
        <ele>9.2</ele>
        <time>2020-06-17T07:43:39Z</time>
      </trkpt>
      <trkpt lat="49.3388" lon="-0.6239">
        <ele>9.6</ele>
        <time>2020-06-17T07:43:40Z</time>
      </trkpt>
      <trkpt lat="49.33875" lon="-0.62391">
        <ele>10</ele>
        <time>2020-06-17T07:43:41Z</time>
      </trkpt>
      <trkpt lat="49.3387" lon="-0.62392">
        <ele>10.4</ele>
        <time>2020-06-17T07:43:42Z</time>
      </trkpt>
      <trkpt lat="49.33866" lon="-0.62394">
        <ele>10.8</ele>
        <time>2020-06-17T07:43:43Z</time>
      </trkpt>
      <trkpt lat="49.33861" lon="-0.62395">
        <ele>11.1</ele>
        <time>2020-06-17T07:43:44Z</time>
      </trkpt>
      <trkpt lat="49.33857" lon="-0.62396">
        <ele>11.5</ele>
        <time>2020-06-17T07:43:45Z</time>
      </trkpt>
      <trkpt lat="49.33852" lon="-0.62397">
        <ele>11.9</ele>
        <time>2020-06-17T07:43:46Z</time>
      </trkpt>
      <trkpt lat="49.33847" lon="-0.62397">
        <ele>12.2</ele>
        <time>2020-06-17T07:43:47Z</time>
      </trkpt>
      <trkpt lat="49.33843" lon="-0.62397">
        <ele>12.6</ele>
        <time>2020-06-17T07:43:48Z</time>
      </trkpt>
      <trkpt lat="49.33839" lon="-0.62396">
        <ele>12.7</ele>
        <time>2020-06-17T07:43:49Z</time>
      </trkpt>
      <trkpt lat="49.33835" lon="-0.62396">
        <ele>12.8</ele>
        <time>2020-06-17T07:43:50Z</time>
      </trkpt>
      <trkpt lat="49.33832" lon="-0.62396">
        <ele>12.8</ele>
        <time>2020-06-17T07:43:51Z</time>
      </trkpt>
      <trkpt lat="49.33828" lon="-0.62396">
        <ele>13.1</ele>
        <time>2020-06-17T07:43:52Z</time>
      </trkpt>
      <trkpt lat="49.33824" lon="-0.62397">
        <ele>13.3</ele>
        <time>2020-06-17T07:43:53Z</time>
      </trkpt>
      <trkpt lat="49.3382" lon="-0.62398">
        <ele>13.5</ele>
        <time>2020-06-17T07:43:54Z</time>
      </trkpt>
      <trkpt lat="49.33817" lon="-0.62398">
        <ele>13.6</ele>
        <time>2020-06-17T07:43:55Z</time>
      </trkpt>
      <trkpt lat="49.33813" lon="-0.62399">
        <ele>13.8</ele>
        <time>2020-06-17T07:43:56Z</time>
      </trkpt>
      <trkpt lat="49.33809" lon="-0.624">
        <ele>14.1</ele>
        <time>2020-06-17T07:43:57Z</time>
      </trkpt>
      <trkpt lat="49.33805" lon="-0.62401">
        <ele>14.3</ele>
        <time>2020-06-17T07:43:58Z</time>
      </trkpt>
      <trkpt lat="49.33802" lon="-0.62402">
        <ele>14.5</ele>
        <time>2020-06-17T07:43:59Z</time>
      </trkpt>
      <trkpt lat="49.33798" lon="-0.62403">
        <ele>14.7</ele>
        <time>2020-06-17T07:44:00Z</time>
      </trkpt>
      <trkpt lat="49.33795" lon="-0.62405">
        <ele>14.9</ele>
        <time>2020-06-17T07:44:01Z</time>
      </trkpt>
      <trkpt lat="49.33791" lon="-0.62406">
        <ele>15.1</ele>
        <time>2020-06-17T07:44:02Z</time>
      </trkpt>
      <trkpt lat="49.33788" lon="-0.62407">
        <ele>15.4</ele>
        <time>2020-06-17T07:44:03Z</time>
      </trkpt>
      <trkpt lat="49.33784" lon="-0.62409">
        <ele>15.6</ele>
        <time>2020-06-17T07:44:04Z</time>
      </trkpt>
      <trkpt lat="49.33781" lon="-0.62409">
        <ele>15.8</ele>
        <time>2020-06-17T07:44:05Z</time>
      </trkpt>
      <trkpt lat="49.33777" lon="-0.6241">
        <ele>16</ele>
        <time>2020-06-17T07:44:06Z</time>
      </trkpt>
      <trkpt lat="49.33774" lon="-0.6241">
        <ele>16.2</ele>
        <time>2020-06-17T07:44:07Z</time>
      </trkpt>
      <trkpt lat="49.33771" lon="-0.62409">
        <ele>16.4</ele>
        <time>2020-06-17T07:44:08Z</time>
      </trkpt>
      <trkpt lat="49.33767" lon="-0.62407">
        <ele>16.4</ele>
        <time>2020-06-17T07:44:09Z</time>
      </trkpt>
      <trkpt lat="49.33765" lon="-0.62404">
        <ele>16.5</ele>
        <time>2020-06-17T07:44:10Z</time>
      </trkpt>
      <trkpt lat="49.33764" lon="-0.624">
        <ele>16.5</ele>
        <time>2020-06-17T07:44:11Z</time>
      </trkpt>
      <trkpt lat="49.33763" lon="-0.62395">
        <ele>16.5</ele>
        <time>2020-06-17T07:44:12Z</time>
      </trkpt>
      <trkpt lat="49.33763" lon="-0.62391">
        <ele>16.5</ele>
        <time>2020-06-17T07:44:13Z</time>
      </trkpt>
      <trkpt lat="49.33762" lon="-0.62385">
        <ele>16.5</ele>
        <time>2020-06-17T07:44:14Z</time>
      </trkpt>
      <trkpt lat="49.33761" lon="-0.62382">
        <ele>16.5</ele>
        <time>2020-06-17T07:44:15Z</time>
      </trkpt>
      <trkpt lat="49.3376" lon="-0.62377">
        <ele>16.5</ele>
        <time>2020-06-17T07:44:16Z</time>
      </trkpt>
      <trkpt lat="49.33761" lon="-0.62371">
        <ele>16.5</ele>
        <time>2020-06-17T07:44:17Z</time>
      </trkpt>
      <trkpt lat="49.3376" lon="-0.62364">
        <ele>16.6</ele>
        <time>2020-06-17T07:44:18Z</time>
      </trkpt>
      <trkpt lat="49.33761" lon="-0.62358">
        <ele>16.6</ele>
        <time>2020-06-17T07:44:19Z</time>
      </trkpt>
      <trkpt lat="49.3376" lon="-0.62353">
        <ele>16.6</ele>
        <time>2020-06-17T07:44:20Z</time>
      </trkpt>
      <trkpt lat="49.3376" lon="-0.62348">
        <ele>16.7</ele>
        <time>2020-06-17T07:44:21Z</time>
      </trkpt>
      <trkpt lat="49.33759" lon="-0.62343">
        <ele>16.7</ele>
        <time>2020-06-17T07:44:22Z</time>
      </trkpt>
      <trkpt lat="49.3376" lon="-0.62338">
        <ele>16.7</ele>
        <time>2020-06-17T07:44:23Z</time>
      </trkpt>
      <trkpt lat="49.3376" lon="-0.62332">
        <ele>16.7</ele>
        <time>2020-06-17T07:44:24Z</time>
      </trkpt>
      <trkpt lat="49.3376" lon="-0.62328">
        <ele>16.8</ele>
        <time>2020-06-17T07:44:25Z</time>
      </trkpt>
      <trkpt lat="49.3376" lon="-0.62323">
        <ele>16.8</ele>
        <time>2020-06-17T07:44:26Z</time>
      </trkpt>
      <trkpt lat="49.3376" lon="-0.62317">
        <ele>16.8</ele>
        <time>2020-06-17T07:44:27Z</time>
      </trkpt>
      <trkpt lat="49.33759" lon="-0.62311">
        <ele>16.8</ele>
        <time>2020-06-17T07:44:28Z</time>
      </trkpt>
      <trkpt lat="49.33759" lon="-0.62306">
        <ele>16.9</ele>
        <time>2020-06-17T07:44:29Z</time>
      </trkpt>
      <trkpt lat="49.33758" lon="-0.62301">
        <ele>16.9</ele>
        <time>2020-06-17T07:44:30Z</time>
      </trkpt>
      <trkpt lat="49.33758" lon="-0.62297">
        <ele>16.9</ele>
        <time>2020-06-17T07:44:31Z</time>
      </trkpt>
      <trkpt lat="49.33758" lon="-0.62291">
        <ele>16.9</ele>
        <time>2020-06-17T07:44:32Z</time>
      </trkpt>
      <trkpt lat="49.33758" lon="-0.62288">
        <ele>16.9</ele>
        <time>2020-06-17T07:44:33Z</time>
      </trkpt>
      <trkpt lat="49.33759" lon="-0.62282">
        <ele>16.9</ele>
        <time>2020-06-17T07:44:34Z</time>
      </trkpt>
      <trkpt lat="49.33758" lon="-0.6228">
        <ele>16.9</ele>
        <time>2020-06-17T07:44:35Z</time>
      </trkpt>
      <trkpt lat="49.33756" lon="-0.62273">
        <ele>16.9</ele>
        <time>2020-06-17T07:44:36Z</time>
      </trkpt>
      <trkpt lat="49.33753" lon="-0.62269">
        <ele>16.9</ele>
        <time>2020-06-17T07:44:37Z</time>
      </trkpt>
      <trkpt lat="49.33752" lon="-0.62267">
        <ele>16.9</ele>
        <time>2020-06-17T07:44:38Z</time>
      </trkpt>
      <trkpt lat="49.3375" lon="-0.62264">
        <ele>16.9</ele>
        <time>2020-06-17T07:44:39Z</time>
      </trkpt>
      <trkpt lat="49.33749" lon="-0.62259">
        <ele>16.9</ele>
        <time>2020-06-17T07:44:40Z</time>
      </trkpt>
      <trkpt lat="49.33748" lon="-0.62252">
        <ele>16.9</ele>
        <time>2020-06-17T07:44:41Z</time>
      </trkpt>
      <trkpt lat="49.3375" lon="-0.62245">
        <ele>16.9</ele>
        <time>2020-06-17T07:44:42Z</time>
      </trkpt>
      <trkpt lat="49.33751" lon="-0.62238">
        <ele>16.8</ele>
        <time>2020-06-17T07:44:43Z</time>
      </trkpt>
      <trkpt lat="49.33751" lon="-0.62232">
        <ele>16.6</ele>
        <time>2020-06-17T07:44:44Z</time>
      </trkpt>
      <trkpt lat="49.33751" lon="-0.62224">
        <ele>16.4</ele>
        <time>2020-06-17T07:44:45Z</time>
      </trkpt>
      <trkpt lat="49.33751" lon="-0.62214">
        <ele>16.1</ele>
        <time>2020-06-17T07:44:46Z</time>
      </trkpt>
      <trkpt lat="49.33751" lon="-0.62204">
        <ele>15.8</ele>
        <time>2020-06-17T07:44:47Z</time>
      </trkpt>
      <trkpt lat="49.33752" lon="-0.62192">
        <ele>15.5</ele>
        <time>2020-06-17T07:44:48Z</time>
      </trkpt>
      <trkpt lat="49.33752" lon="-0.62182">
        <ele>15.3</ele>
        <time>2020-06-17T07:44:49Z</time>
      </trkpt>
      <trkpt lat="49.33752" lon="-0.62172">
        <ele>15.1</ele>
        <time>2020-06-17T07:44:50Z</time>
      </trkpt>
      <trkpt lat="49.33752" lon="-0.62163">
        <ele>15</ele>
        <time>2020-06-17T07:44:51Z</time>
      </trkpt>
      <trkpt lat="49.33753" lon="-0.62153">
        <ele>14.9</ele>
        <time>2020-06-17T07:44:52Z</time>
      </trkpt>
      <trkpt lat="49.33755" lon="-0.62144">
        <ele>14.8</ele>
        <time>2020-06-17T07:44:53Z</time>
      </trkpt>
      <trkpt lat="49.33755" lon="-0.62133">
        <ele>14.7</ele>
        <time>2020-06-17T07:44:54Z</time>
      </trkpt>
      <trkpt lat="49.33755" lon="-0.62124">
        <ele>14.7</ele>
        <time>2020-06-17T07:44:55Z</time>
      </trkpt>
      <trkpt lat="49.33755" lon="-0.62115">
        <ele>14.8</ele>
        <time>2020-06-17T07:44:56Z</time>
      </trkpt>
      <trkpt lat="49.33755" lon="-0.62107">
        <ele>14.9</ele>
        <time>2020-06-17T07:44:57Z</time>
      </trkpt>
      <trkpt lat="49.33754" lon="-0.621">
        <ele>15</ele>
        <time>2020-06-17T07:44:58Z</time>
      </trkpt>
      <trkpt lat="49.33754" lon="-0.62094">
        <ele>15.1</ele>
        <time>2020-06-17T07:44:59Z</time>
      </trkpt>
      <trkpt lat="49.33751" lon="-0.6209">
        <ele>15.2</ele>
        <time>2020-06-17T07:45:00Z</time>
      </trkpt>
      <trkpt lat="49.33748" lon="-0.62087">
        <ele>15.2</ele>
        <time>2020-06-17T07:45:01Z</time>
      </trkpt>
      <trkpt lat="49.33746" lon="-0.62084">
        <ele>15.3</ele>
        <time>2020-06-17T07:45:02Z</time>
      </trkpt>
      <trkpt lat="49.33745" lon="-0.62083">
        <ele>15.8</ele>
        <time>2020-06-17T07:45:03Z</time>
      </trkpt>
      <trkpt lat="49.33743" lon="-0.62083">
        <ele>15.9</ele>
        <time>2020-06-17T07:45:04Z</time>
      </trkpt>
      <trkpt lat="49.33742" lon="-0.62083">
        <ele>16</ele>
        <time>2020-06-17T07:45:05Z</time>
      </trkpt>
      <trkpt lat="49.33741" lon="-0.62084">
        <ele>16.1</ele>
        <time>2020-06-17T07:45:06Z</time>
      </trkpt>
      <trkpt lat="49.3374" lon="-0.62083">
        <ele>16.2</ele>
        <time>2020-06-17T07:45:07Z</time>
      </trkpt>
      <trkpt lat="49.33737" lon="-0.62084">
        <ele>16.4</ele>
        <time>2020-06-17T07:45:08Z</time>
      </trkpt>
      <trkpt lat="49.33736" lon="-0.62084">
        <ele>16.5</ele>
        <time>2020-06-17T07:45:09Z</time>
      </trkpt>
      <trkpt lat="49.33733" lon="-0.62086">
        <ele>16.7</ele>
        <time>2020-06-17T07:45:10Z</time>
      </trkpt>
      <trkpt lat="49.33732" lon="-0.62086">
        <ele>16.8</ele>
        <time>2020-06-17T07:45:11Z</time>
      </trkpt>
      <trkpt lat="49.33729" lon="-0.62087">
        <ele>17</ele>
        <time>2020-06-17T07:45:12Z</time>
      </trkpt>
      <trkpt lat="49.33728" lon="-0.62087">
        <ele>17.1</ele>
        <time>2020-06-17T07:45:13Z</time>
      </trkpt>
      <trkpt lat="49.33726" lon="-0.62088">
        <ele>17.3</ele>
        <time>2020-06-17T07:45:14Z</time>
      </trkpt>
      <trkpt lat="49.33725" lon="-0.62088">
        <ele>17.4</ele>
        <time>2020-06-17T07:45:15Z</time>
      </trkpt>
      <trkpt lat="49.33724" lon="-0.62089">
        <ele>17.5</ele>
        <time>2020-06-17T07:45:16Z</time>
      </trkpt>
      <trkpt lat="49.33721" lon="-0.62091">
        <ele>17.8</ele>
        <time>2020-06-17T07:45:17Z</time>
      </trkpt>
      <trkpt lat="49.3372" lon="-0.62091">
        <ele>17.9</ele>
        <time>2020-06-17T07:45:18Z</time>
      </trkpt>
      <trkpt lat="49.33717" lon="-0.62092">
        <ele>18.1</ele>
        <time>2020-06-17T07:45:19Z</time>
      </trkpt>
      <trkpt lat="49.33714" lon="-0.62094">
        <ele>18.4</ele>
        <time>2020-06-17T07:45:20Z</time>
      </trkpt>
      <trkpt lat="49.33711" lon="-0.62095">
        <ele>18.7</ele>
        <time>2020-06-17T07:45:21Z</time>
      </trkpt>
      <trkpt lat="49.33708" lon="-0.62097">
        <ele>19</ele>
        <time>2020-06-17T07:45:22Z</time>
      </trkpt>
      <trkpt lat="49.33705" lon="-0.62098">
        <ele>19.3</ele>
        <time>2020-06-17T07:45:23Z</time>
      </trkpt>
      <trkpt lat="49.33702" lon="-0.62099">
        <ele>19.5</ele>
        <time>2020-06-17T07:45:24Z</time>
      </trkpt>
      <trkpt lat="49.33701" lon="-0.62099">
        <ele>19.6</ele>
        <time>2020-06-17T07:45:25Z</time>
      </trkpt>
      <trkpt lat="49.33697" lon="-0.621">
        <ele>20</ele>
        <time>2020-06-17T07:45:26Z</time>
      </trkpt>
      <trkpt lat="49.33695" lon="-0.62101">
        <ele>20.1</ele>
        <time>2020-06-17T07:45:27Z</time>
      </trkpt>
      <trkpt lat="49.33692" lon="-0.62102">
        <ele>20.4</ele>
        <time>2020-06-17T07:45:28Z</time>
      </trkpt>
      <trkpt lat="49.33691" lon="-0.62102">
        <ele>20.5</ele>
        <time>2020-06-17T07:45:29Z</time>
      </trkpt>
      <trkpt lat="49.33687" lon="-0.62103">
        <ele>20.8</ele>
        <time>2020-06-17T07:45:30Z</time>
      </trkpt>
      <trkpt lat="49.33686" lon="-0.62103">
        <ele>20.9</ele>
        <time>2020-06-17T07:45:31Z</time>
      </trkpt>
      <trkpt lat="49.33683" lon="-0.62105">
        <ele>21.2</ele>
        <time>2020-06-17T07:45:32Z</time>
      </trkpt>
      <trkpt lat="49.33682" lon="-0.62106">
        <ele>21.4</ele>
        <time>2020-06-17T07:45:33Z</time>
      </trkpt>
      <trkpt lat="49.33678" lon="-0.62107">
        <ele>21.7</ele>
        <time>2020-06-17T07:45:34Z</time>
      </trkpt>
      <trkpt lat="49.33677" lon="-0.62107">
        <ele>21.8</ele>
        <time>2020-06-17T07:45:35Z</time>
      </trkpt>
      <trkpt lat="49.33674" lon="-0.62109">
        <ele>22.2</ele>
        <time>2020-06-17T07:45:36Z</time>
      </trkpt>
      <trkpt lat="49.33673" lon="-0.62109">
        <ele>22.3</ele>
        <time>2020-06-17T07:45:37Z</time>
      </trkpt>
      <trkpt lat="49.33669" lon="-0.6211">
        <ele>22.7</ele>
        <time>2020-06-17T07:45:38Z</time>
      </trkpt>
      <trkpt lat="49.33668" lon="-0.6211">
        <ele>22.8</ele>
        <time>2020-06-17T07:45:39Z</time>
      </trkpt>
      <trkpt lat="49.33664" lon="-0.62111">
        <ele>23.2</ele>
        <time>2020-06-17T07:45:40Z</time>
      </trkpt>
      <trkpt lat="49.33663" lon="-0.62112">
        <ele>23.3</ele>
        <time>2020-06-17T07:45:41Z</time>
      </trkpt>
      <trkpt lat="49.3366" lon="-0.62113">
        <ele>23.6</ele>
        <time>2020-06-17T07:45:42Z</time>
      </trkpt>
      <trkpt lat="49.33657" lon="-0.62114">
        <ele>23.9</ele>
        <time>2020-06-17T07:45:43Z</time>
      </trkpt>
      <trkpt lat="49.33656" lon="-0.62114">
        <ele>24</ele>
        <time>2020-06-17T07:45:44Z</time>
      </trkpt>
      <trkpt lat="49.33653" lon="-0.62115">
        <ele>24.3</ele>
        <time>2020-06-17T07:45:45Z</time>
      </trkpt>
      <trkpt lat="49.33652" lon="-0.62115">
        <ele>24.4</ele>
        <time>2020-06-17T07:45:46Z</time>
      </trkpt>
      <trkpt lat="49.33649" lon="-0.62115">
        <ele>24.7</ele>
        <time>2020-06-17T07:45:47Z</time>
      </trkpt>
      <trkpt lat="49.33648" lon="-0.62115">
        <ele>24.9</ele>
        <time>2020-06-17T07:45:48Z</time>
      </trkpt>
      <trkpt lat="49.33645" lon="-0.62115">
        <ele>25.2</ele>
        <time>2020-06-17T07:45:49Z</time>
      </trkpt>
      <trkpt lat="49.33644" lon="-0.62115">
        <ele>25.3</ele>
        <time>2020-06-17T07:45:50Z</time>
      </trkpt>
      <trkpt lat="49.33641" lon="-0.62114">
        <ele>25.6</ele>
        <time>2020-06-17T07:45:51Z</time>
      </trkpt>
      <trkpt lat="49.3364" lon="-0.62114">
        <ele>25.7</ele>
        <time>2020-06-17T07:45:52Z</time>
      </trkpt>
      <trkpt lat="49.33637" lon="-0.62112">
        <ele>26</ele>
        <time>2020-06-17T07:45:53Z</time>
      </trkpt>
      <trkpt lat="49.33636" lon="-0.62112">
        <ele>26.1</ele>
        <time>2020-06-17T07:45:54Z</time>
      </trkpt>
      <trkpt lat="49.33633" lon="-0.62109">
        <ele>26.5</ele>
        <time>2020-06-17T07:45:55Z</time>
      </trkpt>
      <trkpt lat="49.33632" lon="-0.62108">
        <ele>26.6</ele>
        <time>2020-06-17T07:45:56Z</time>
      </trkpt>
      <trkpt lat="49.33629" lon="-0.62105">
        <ele>27</ele>
        <time>2020-06-17T07:45:57Z</time>
      </trkpt>
      <trkpt lat="49.33628" lon="-0.62103">
        <ele>27.1</ele>
        <time>2020-06-17T07:45:58Z</time>
      </trkpt>
      <trkpt lat="49.33626" lon="-0.621">
        <ele>27.4</ele>
        <time>2020-06-17T07:45:59Z</time>
      </trkpt>
      <trkpt lat="49.33625" lon="-0.62099">
        <ele>27.5</ele>
        <time>2020-06-17T07:46:00Z</time>
      </trkpt>
      <trkpt lat="49.33623" lon="-0.62097">
        <ele>27.8</ele>
        <time>2020-06-17T07:46:01Z</time>
      </trkpt>
      <trkpt lat="49.3362" lon="-0.62093">
        <ele>28.2</ele>
        <time>2020-06-17T07:46:02Z</time>
      </trkpt>
      <trkpt lat="49.33619" lon="-0.62091">
        <ele>28.3</ele>
        <time>2020-06-17T07:46:03Z</time>
      </trkpt>
      <trkpt lat="49.33616" lon="-0.62088">
        <ele>28.6</ele>
        <time>2020-06-17T07:46:04Z</time>
      </trkpt>
      <trkpt lat="49.33613" lon="-0.62085">
        <ele>28.9</ele>
        <time>2020-06-17T07:46:05Z</time>
      </trkpt>
      <trkpt lat="49.3361" lon="-0.62083">
        <ele>29.2</ele>
        <time>2020-06-17T07:46:06Z</time>
      </trkpt>
      <trkpt lat="49.33607" lon="-0.62082">
        <ele>29.5</ele>
        <time>2020-06-17T07:46:07Z</time>
      </trkpt>
      <trkpt lat="49.33604" lon="-0.6208">
        <ele>29.8</ele>
        <time>2020-06-17T07:46:08Z</time>
      </trkpt>
      <trkpt lat="49.33601" lon="-0.62078">
        <ele>30.1</ele>
        <time>2020-06-17T07:46:09Z</time>
      </trkpt>
      <trkpt lat="49.336" lon="-0.62078">
        <ele>30.2</ele>
        <time>2020-06-17T07:46:10Z</time>
      </trkpt>
      <trkpt lat="49.33598" lon="-0.62075">
        <ele>30.4</ele>
        <time>2020-06-17T07:46:11Z</time>
      </trkpt>
      <trkpt lat="49.33597" lon="-0.62074">
        <ele>30.5</ele>
        <time>2020-06-17T07:46:12Z</time>
      </trkpt>
      <trkpt lat="49.33594" lon="-0.62071">
        <ele>30.8</ele>
        <time>2020-06-17T07:46:13Z</time>
      </trkpt>
      <trkpt lat="49.33594" lon="-0.6207">
        <ele>30.9</ele>
        <time>2020-06-17T07:46:14Z</time>
      </trkpt>
      <trkpt lat="49.33592" lon="-0.62067">
        <ele>31.1</ele>
        <time>2020-06-17T07:46:15Z</time>
      </trkpt>
      <trkpt lat="49.33591" lon="-0.62065">
        <ele>31.2</ele>
        <time>2020-06-17T07:46:16Z</time>
      </trkpt>
      <trkpt lat="49.33588" lon="-0.62061">
        <ele>31.6</ele>
        <time>2020-06-17T07:46:17Z</time>
      </trkpt>
      <trkpt lat="49.33587" lon="-0.6206">
        <ele>31.7</ele>
        <time>2020-06-17T07:46:18Z</time>
      </trkpt>
      <trkpt lat="49.33585" lon="-0.62056">
        <ele>32</ele>
        <time>2020-06-17T07:46:19Z</time>
      </trkpt>
      <trkpt lat="49.33584" lon="-0.62055">
        <ele>32.1</ele>
        <time>2020-06-17T07:46:20Z</time>
      </trkpt>
      <trkpt lat="49.33582" lon="-0.62052">
        <ele>32.4</ele>
        <time>2020-06-17T07:46:21Z</time>
      </trkpt>
      <trkpt lat="49.33579" lon="-0.62048">
        <ele>32.8</ele>
        <time>2020-06-17T07:46:22Z</time>
      </trkpt>
      <trkpt lat="49.33578" lon="-0.62047">
        <ele>32.9</ele>
        <time>2020-06-17T07:46:23Z</time>
      </trkpt>
      <trkpt lat="49.33575" lon="-0.62043">
        <ele>33.2</ele>
        <time>2020-06-17T07:46:24Z</time>
      </trkpt>
      <trkpt lat="49.33574" lon="-0.62042">
        <ele>33.3</ele>
        <time>2020-06-17T07:46:25Z</time>
      </trkpt>
      <trkpt lat="49.33572" lon="-0.62039">
        <ele>33.6</ele>
        <time>2020-06-17T07:46:26Z</time>
      </trkpt>
      <trkpt lat="49.33571" lon="-0.62038">
        <ele>33.7</ele>
        <time>2020-06-17T07:46:27Z</time>
      </trkpt>
      <trkpt lat="49.33568" lon="-0.62035">
        <ele>34.1</ele>
        <time>2020-06-17T07:46:28Z</time>
      </trkpt>
      <trkpt lat="49.33567" lon="-0.62034">
        <ele>34.2</ele>
        <time>2020-06-17T07:46:29Z</time>
      </trkpt>
      <trkpt lat="49.33564" lon="-0.6203">
        <ele>34.6</ele>
        <time>2020-06-17T07:46:30Z</time>
      </trkpt>
      <trkpt lat="49.33561" lon="-0.62024">
        <ele>35.1</ele>
        <time>2020-06-17T07:46:31Z</time>
      </trkpt>
      <trkpt lat="49.33559" lon="-0.62018">
        <ele>35.6</ele>
        <time>2020-06-17T07:46:32Z</time>
      </trkpt>
      <trkpt lat="49.33557" lon="-0.62015">
        <ele>35.7</ele>
        <time>2020-06-17T07:46:33Z</time>
      </trkpt>
      <trkpt lat="49.33556" lon="-0.62014">
        <ele>35.9</ele>
        <time>2020-06-17T07:46:34Z</time>
      </trkpt>
      <trkpt lat="49.33554" lon="-0.62011">
        <ele>36.2</ele>
        <time>2020-06-17T07:46:35Z</time>
      </trkpt>
      <trkpt lat="49.33553" lon="-0.6201">
        <ele>36.3</ele>
        <time>2020-06-17T07:46:36Z</time>
      </trkpt>
      <trkpt lat="49.33551" lon="-0.62007">
        <ele>36.5</ele>
        <time>2020-06-17T07:46:37Z</time>
      </trkpt>
      <trkpt lat="49.33551" lon="-0.62006">
        <ele>36.6</ele>
        <time>2020-06-17T07:46:38Z</time>
      </trkpt>
      <trkpt lat="49.33549" lon="-0.62002">
        <ele>36.8</ele>
        <time>2020-06-17T07:46:39Z</time>
      </trkpt>
      <trkpt lat="49.33549" lon="-0.62">
        <ele>36.9</ele>
        <time>2020-06-17T07:46:40Z</time>
      </trkpt>
      <trkpt lat="49.33548" lon="-0.61994">
        <ele>37.2</ele>
        <time>2020-06-17T07:46:41Z</time>
      </trkpt>
      <trkpt lat="49.33548" lon="-0.61993">
        <ele>37.2</ele>
        <time>2020-06-17T07:46:42Z</time>
      </trkpt>
      <trkpt lat="49.33547" lon="-0.61987">
        <ele>37.4</ele>
        <time>2020-06-17T07:46:43Z</time>
      </trkpt>
      <trkpt lat="49.33547" lon="-0.61985">
        <ele>37.5</ele>
        <time>2020-06-17T07:46:44Z</time>
      </trkpt>
      <trkpt lat="49.33548" lon="-0.6198">
        <ele>37.6</ele>
        <time>2020-06-17T07:46:45Z</time>
      </trkpt>
      <trkpt lat="49.33549" lon="-0.61976">
        <ele>37.7</ele>
        <time>2020-06-17T07:46:46Z</time>
      </trkpt>
      <trkpt lat="49.33549" lon="-0.61971">
        <ele>37.8</ele>
        <time>2020-06-17T07:46:47Z</time>
      </trkpt>
      <trkpt lat="49.33548" lon="-0.61969">
        <ele>37.8</ele>
        <time>2020-06-17T07:46:48Z</time>
      </trkpt>
      <trkpt lat="49.33548" lon="-0.61964">
        <ele>37.9</ele>
        <time>2020-06-17T07:46:49Z</time>
      </trkpt>
      <trkpt lat="49.33548" lon="-0.61962">
        <ele>38</ele>
        <time>2020-06-17T07:46:50Z</time>
      </trkpt>
      <trkpt lat="49.33549" lon="-0.61957">
        <ele>38.1</ele>
        <time>2020-06-17T07:46:51Z</time>
      </trkpt>
      <trkpt lat="49.3355" lon="-0.61952">
        <ele>38.4</ele>
        <time>2020-06-17T07:46:52Z</time>
      </trkpt>
      <trkpt lat="49.3355" lon="-0.61947">
        <ele>38.6</ele>
        <time>2020-06-17T07:46:53Z</time>
      </trkpt>
      <trkpt lat="49.33551" lon="-0.61942">
        <ele>38.9</ele>
        <time>2020-06-17T07:46:54Z</time>
      </trkpt>
      <trkpt lat="49.33552" lon="-0.61937">
        <ele>39.2</ele>
        <time>2020-06-17T07:46:55Z</time>
      </trkpt>
      <trkpt lat="49.33552" lon="-0.61935">
        <ele>39.2</ele>
        <time>2020-06-17T07:46:56Z</time>
      </trkpt>
      <trkpt lat="49.33553" lon="-0.6193">
        <ele>39.5</ele>
        <time>2020-06-17T07:46:57Z</time>
      </trkpt>
      <trkpt lat="49.33554" lon="-0.61928">
        <ele>39.7</ele>
        <time>2020-06-17T07:46:58Z</time>
      </trkpt>
      <trkpt lat="49.33556" lon="-0.61923">
        <ele>40</ele>
        <time>2020-06-17T07:46:59Z</time>
      </trkpt>
      <trkpt lat="49.33556" lon="-0.61921">
        <ele>40.1</ele>
        <time>2020-06-17T07:47:00Z</time>
      </trkpt>
      <trkpt lat="49.33558" lon="-0.61917">
        <ele>40.3</ele>
        <time>2020-06-17T07:47:01Z</time>
      </trkpt>
      <trkpt lat="49.33559" lon="-0.61912">
        <ele>40.6</ele>
        <time>2020-06-17T07:47:02Z</time>
      </trkpt>
      <trkpt lat="49.3356" lon="-0.61911">
        <ele>40.7</ele>
        <time>2020-06-17T07:47:03Z</time>
      </trkpt>
      <trkpt lat="49.3356" lon="-0.61905">
        <ele>41</ele>
        <time>2020-06-17T07:47:04Z</time>
      </trkpt>
      <trkpt lat="49.33561" lon="-0.61904">
        <ele>41.1</ele>
        <time>2020-06-17T07:47:05Z</time>
      </trkpt>
      <trkpt lat="49.33561" lon="-0.61899">
        <ele>41.4</ele>
        <time>2020-06-17T07:47:06Z</time>
      </trkpt>
      <trkpt lat="49.33562" lon="-0.61897">
        <ele>41.5</ele>
        <time>2020-06-17T07:47:07Z</time>
      </trkpt>
      <trkpt lat="49.33563" lon="-0.61891">
        <ele>41.8</ele>
        <time>2020-06-17T07:47:08Z</time>
      </trkpt>
      <trkpt lat="49.33563" lon="-0.61889">
        <ele>41.9</ele>
        <time>2020-06-17T07:47:09Z</time>
      </trkpt>
      <trkpt lat="49.33564" lon="-0.61885">
        <ele>42.2</ele>
        <time>2020-06-17T07:47:10Z</time>
      </trkpt>
      <trkpt lat="49.33565" lon="-0.61881">
        <ele>42.4</ele>
        <time>2020-06-17T07:47:11Z</time>
      </trkpt>
      <trkpt lat="49.33567" lon="-0.61876">
        <ele>42.7</ele>
        <time>2020-06-17T07:47:12Z</time>
      </trkpt>
      <trkpt lat="49.33567" lon="-0.61875">
        <ele>42.8</ele>
        <time>2020-06-17T07:47:13Z</time>
      </trkpt>
      <trkpt lat="49.33568" lon="-0.61873">
        <ele>43</ele>
        <time>2020-06-17T07:47:14Z</time>
      </trkpt>
      <trkpt lat="49.33569" lon="-0.61871">
        <ele>43.1</ele>
        <time>2020-06-17T07:47:15Z</time>
      </trkpt>
      <trkpt lat="49.3357" lon="-0.61869">
        <ele>43.3</ele>
        <time>2020-06-17T07:47:16Z</time>
      </trkpt>
      <trkpt lat="49.33571" lon="-0.61868">
        <ele>43.4</ele>
        <time>2020-06-17T07:47:17Z</time>
      </trkpt>
      <trkpt lat="49.33571" lon="-0.61866">
        <ele>43.5</ele>
        <time>2020-06-17T07:47:18Z</time>
      </trkpt>
      <trkpt lat="49.33572" lon="-0.61864">
        <ele>43.6</ele>
        <time>2020-06-17T07:47:19Z</time>
      </trkpt>
      <trkpt lat="49.33572" lon="-0.61863">
        <ele>43.7</ele>
        <time>2020-06-17T07:47:20Z</time>
      </trkpt>
      <trkpt lat="49.33573" lon="-0.61862">
        <ele>43.7</ele>
        <time>2020-06-17T07:47:21Z</time>
      </trkpt>
      <trkpt lat="49.33573" lon="-0.61861">
        <ele>43.8</ele>
        <time>2020-06-17T07:47:22Z</time>
      </trkpt>
      <trkpt lat="49.33573" lon="-0.6186">
        <ele>43.9</ele>
        <time>2020-06-17T07:47:23Z</time>
      </trkpt>
      <trkpt lat="49.33574" lon="-0.61858">
        <ele>44</ele>
        <time>2020-06-17T07:47:24Z</time>
      </trkpt>
      <trkpt lat="49.33575" lon="-0.61856">
        <ele>44.1</ele>
        <time>2020-06-17T07:47:25Z</time>
      </trkpt>
      <trkpt lat="49.33575" lon="-0.61855">
        <ele>44.2</ele>
        <time>2020-06-17T07:47:26Z</time>
      </trkpt>
      <trkpt lat="49.33576" lon="-0.61854">
        <ele>44.3</ele>
        <time>2020-06-17T07:47:27Z</time>
      </trkpt>
      <trkpt lat="49.33576" lon="-0.61853">
        <ele>44.3</ele>
        <time>2020-06-17T07:47:28Z</time>
      </trkpt>
      <trkpt lat="49.33577" lon="-0.61852">
        <ele>44.4</ele>
        <time>2020-06-17T07:47:29Z</time>
      </trkpt>
      <trkpt lat="49.33578" lon="-0.61851">
        <ele>44.5</ele>
        <time>2020-06-17T07:47:30Z</time>
      </trkpt>
      <trkpt lat="49.33579" lon="-0.61849">
        <ele>44.7</ele>
        <time>2020-06-17T07:47:31Z</time>
      </trkpt>
      <trkpt lat="49.3358" lon="-0.61848">
        <ele>44.7</ele>
        <time>2020-06-17T07:47:32Z</time>
      </trkpt>
      <trkpt lat="49.3358" lon="-0.61847">
        <ele>44.8</ele>
        <time>2020-06-17T07:47:33Z</time>
      </trkpt>
      <trkpt lat="49.33582" lon="-0.61843">
        <ele>45.1</ele>
        <time>2020-06-17T07:47:34Z</time>
      </trkpt>
      <trkpt lat="49.33582" lon="-0.61842">
        <ele>45.1</ele>
        <time>2020-06-17T07:47:35Z</time>
      </trkpt>
      <trkpt lat="49.33583" lon="-0.6184">
        <ele>45.2</ele>
        <time>2020-06-17T07:47:36Z</time>
      </trkpt>
      <trkpt lat="49.33584" lon="-0.61839">
        <ele>45.4</ele>
        <time>2020-06-17T07:47:37Z</time>
      </trkpt>
      <trkpt lat="49.33587" lon="-0.61837">
        <ele>45.6</ele>
        <time>2020-06-17T07:47:38Z</time>
      </trkpt>
      <trkpt lat="49.33587" lon="-0.61836">
        <ele>45.7</ele>
        <time>2020-06-17T07:47:39Z</time>
      </trkpt>
      <trkpt lat="49.33591" lon="-0.61835">
        <ele>46</ele>
        <time>2020-06-17T07:47:40Z</time>
      </trkpt>
      <trkpt lat="49.33592" lon="-0.61835">
        <ele>46.1</ele>
        <time>2020-06-17T07:47:41Z</time>
      </trkpt>
      <trkpt lat="49.33594" lon="-0.61835">
        <ele>46.2</ele>
        <time>2020-06-17T07:47:42Z</time>
      </trkpt>
      <trkpt lat="49.33595" lon="-0.61833">
        <ele>46.3</ele>
        <time>2020-06-17T07:47:43Z</time>
      </trkpt>
      <trkpt lat="49.33597" lon="-0.61832">
        <ele>46.5</ele>
        <time>2020-06-17T07:47:44Z</time>
      </trkpt>
      <trkpt lat="49.33598" lon="-0.61831">
        <ele>46.6</ele>
        <time>2020-06-17T07:47:45Z</time>
      </trkpt>
      <trkpt lat="49.336" lon="-0.61829">
        <ele>46.7</ele>
        <time>2020-06-17T07:47:46Z</time>
      </trkpt>
      <trkpt lat="49.33601" lon="-0.61828">
        <ele>46.8</ele>
        <time>2020-06-17T07:47:47Z</time>
      </trkpt>
      <trkpt lat="49.33602" lon="-0.61828">
        <ele>46.9</ele>
        <time>2020-06-17T07:47:48Z</time>
      </trkpt>
      <trkpt lat="49.33604" lon="-0.61827">
        <ele>47</ele>
        <time>2020-06-17T07:47:49Z</time>
      </trkpt>
      <trkpt lat="49.33606" lon="-0.61825">
        <ele>47.1</ele>
        <time>2020-06-17T07:47:50Z</time>
      </trkpt>
      <trkpt lat="49.33608" lon="-0.61825">
        <ele>47.2</ele>
        <time>2020-06-17T07:47:51Z</time>
      </trkpt>
      <trkpt lat="49.33611" lon="-0.61824">
        <ele>47.4</ele>
        <time>2020-06-17T07:47:52Z</time>
      </trkpt>
      <trkpt lat="49.33614" lon="-0.61822">
        <ele>47.6</ele>
        <time>2020-06-17T07:47:53Z</time>
      </trkpt>
      <trkpt lat="49.33617" lon="-0.61821">
        <ele>47.8</ele>
        <time>2020-06-17T07:47:54Z</time>
      </trkpt>
      <trkpt lat="49.33621" lon="-0.61821">
        <ele>47.9</ele>
        <time>2020-06-17T07:47:55Z</time>
      </trkpt>
      <trkpt lat="49.33624" lon="-0.6182">
        <ele>48.2</ele>
        <time>2020-06-17T07:47:56Z</time>
      </trkpt>
      <trkpt lat="49.33628" lon="-0.61819">
        <ele>48.4</ele>
        <time>2020-06-17T07:47:57Z</time>
      </trkpt>
      <trkpt lat="49.33631" lon="-0.61818">
        <ele>48.6</ele>
        <time>2020-06-17T07:47:58Z</time>
      </trkpt>
      <trkpt lat="49.33634" lon="-0.61816">
        <ele>48.8</ele>
        <time>2020-06-17T07:47:59Z</time>
      </trkpt>
      <trkpt lat="49.33637" lon="-0.61814">
        <ele>49</ele>
        <time>2020-06-17T07:48:00Z</time>
      </trkpt>
      <trkpt lat="49.33641" lon="-0.61813">
        <ele>49.2</ele>
        <time>2020-06-17T07:48:01Z</time>
      </trkpt>
      <trkpt lat="49.33644" lon="-0.61813">
        <ele>49.3</ele>
        <time>2020-06-17T07:48:02Z</time>
      </trkpt>
      <trkpt lat="49.33647" lon="-0.61811">
        <ele>49.5</ele>
        <time>2020-06-17T07:48:03Z</time>
      </trkpt>
      <trkpt lat="49.3365" lon="-0.61811">
        <ele>49.6</ele>
        <time>2020-06-17T07:48:04Z</time>
      </trkpt>
      <trkpt lat="49.33653" lon="-0.6181">
        <ele>49.8</ele>
        <time>2020-06-17T07:48:05Z</time>
      </trkpt>
      <trkpt lat="49.33654" lon="-0.61809">
        <ele>49.8</ele>
        <time>2020-06-17T07:48:06Z</time>
      </trkpt>
      <trkpt lat="49.33658" lon="-0.61808">
        <ele>50</ele>
        <time>2020-06-17T07:48:07Z</time>
      </trkpt>
      <trkpt lat="49.3366" lon="-0.61808">
        <ele>50.1</ele>
        <time>2020-06-17T07:48:08Z</time>
      </trkpt>
      <trkpt lat="49.33664" lon="-0.61807">
        <ele>50.3</ele>
        <time>2020-06-17T07:48:09Z</time>
      </trkpt>
      <trkpt lat="49.33667" lon="-0.61806">
        <ele>50.4</ele>
        <time>2020-06-17T07:48:10Z</time>
      </trkpt>
      <trkpt lat="49.33671" lon="-0.61804">
        <ele>50.6</ele>
        <time>2020-06-17T07:48:11Z</time>
      </trkpt>
      <trkpt lat="49.33676" lon="-0.618">
        <ele>50.7</ele>
        <time>2020-06-17T07:48:12Z</time>
      </trkpt>
      <trkpt lat="49.33681" lon="-0.61799">
        <ele>50.9</ele>
        <time>2020-06-17T07:48:13Z</time>
      </trkpt>
      <trkpt lat="49.33687" lon="-0.61798">
        <ele>51</ele>
        <time>2020-06-17T07:48:14Z</time>
      </trkpt>
      <trkpt lat="49.33691" lon="-0.61797">
        <ele>51.2</ele>
        <time>2020-06-17T07:48:15Z</time>
      </trkpt>
      <trkpt lat="49.33697" lon="-0.61796">
        <ele>51.3</ele>
        <time>2020-06-17T07:48:16Z</time>
      </trkpt>
      <trkpt lat="49.33702" lon="-0.61794">
        <ele>51.4</ele>
        <time>2020-06-17T07:48:17Z</time>
      </trkpt>
      <trkpt lat="49.33707" lon="-0.61792">
        <ele>51.6</ele>
        <time>2020-06-17T07:48:18Z</time>
      </trkpt>
      <trkpt lat="49.33714" lon="-0.61792">
        <ele>51.7</ele>
        <time>2020-06-17T07:48:19Z</time>
      </trkpt>
      <trkpt lat="49.33719" lon="-0.6179">
        <ele>51.8</ele>
        <time>2020-06-17T07:48:20Z</time>
      </trkpt>
      <trkpt lat="49.33725" lon="-0.61788">
        <ele>51.8</ele>
        <time>2020-06-17T07:48:21Z</time>
      </trkpt>
      <trkpt lat="49.33731" lon="-0.61784">
        <ele>51.9</ele>
        <time>2020-06-17T07:48:22Z</time>
      </trkpt>
      <trkpt lat="49.33737" lon="-0.61779">
        <ele>52</ele>
        <time>2020-06-17T07:48:23Z</time>
      </trkpt>
      <trkpt lat="49.33742" lon="-0.61776">
        <ele>52</ele>
        <time>2020-06-17T07:48:24Z</time>
      </trkpt>
      <trkpt lat="49.33748" lon="-0.61772">
        <ele>52</ele>
        <time>2020-06-17T07:48:25Z</time>
      </trkpt>
      <trkpt lat="49.33752" lon="-0.61768">
        <ele>52.1</ele>
        <time>2020-06-17T07:48:26Z</time>
      </trkpt>
      <trkpt lat="49.33756" lon="-0.61764">
        <ele>52.2</ele>
        <time>2020-06-17T07:48:27Z</time>
      </trkpt>
      <trkpt lat="49.33759" lon="-0.61759">
        <ele>52.4</ele>
        <time>2020-06-17T07:48:28Z</time>
      </trkpt>
      <trkpt lat="49.33763" lon="-0.61753">
        <ele>52.5</ele>
        <time>2020-06-17T07:48:29Z</time>
      </trkpt>
      <trkpt lat="49.33766" lon="-0.61747">
        <ele>52.7</ele>
        <time>2020-06-17T07:48:30Z</time>
      </trkpt>
      <trkpt lat="49.33769" lon="-0.61741">
        <ele>53.1</ele>
        <time>2020-06-17T07:48:31Z</time>
      </trkpt>
      <trkpt lat="49.33772" lon="-0.61735">
        <ele>53.3</ele>
        <time>2020-06-17T07:48:32Z</time>
      </trkpt>
      <trkpt lat="49.33775" lon="-0.61728">
        <ele>53.5</ele>
        <time>2020-06-17T07:48:33Z</time>
      </trkpt>
      <trkpt lat="49.33778" lon="-0.6172">
        <ele>53.7</ele>
        <time>2020-06-17T07:48:34Z</time>
      </trkpt>
      <trkpt lat="49.3378" lon="-0.61711">
        <ele>53.9</ele>
        <time>2020-06-17T07:48:35Z</time>
      </trkpt>
      <trkpt lat="49.3378" lon="-0.61703">
        <ele>54</ele>
        <time>2020-06-17T07:48:36Z</time>
      </trkpt>
      <trkpt lat="49.33782" lon="-0.61694">
        <ele>54</ele>
        <time>2020-06-17T07:48:37Z</time>
      </trkpt>
      <trkpt lat="49.33783" lon="-0.61686">
        <ele>54.1</ele>
        <time>2020-06-17T07:48:38Z</time>
      </trkpt>
      <trkpt lat="49.33784" lon="-0.61677">
        <ele>54.1</ele>
        <time>2020-06-17T07:48:39Z</time>
      </trkpt>
      <trkpt lat="49.33786" lon="-0.61669">
        <ele>54.1</ele>
        <time>2020-06-17T07:48:40Z</time>
      </trkpt>
      <trkpt lat="49.33788" lon="-0.6166">
        <ele>54.2</ele>
        <time>2020-06-17T07:48:41Z</time>
      </trkpt>
      <trkpt lat="49.33789" lon="-0.6165">
        <ele>54.3</ele>
        <time>2020-06-17T07:48:42Z</time>
      </trkpt>
      <trkpt lat="49.3379" lon="-0.6164">
        <ele>54.5</ele>
        <time>2020-06-17T07:48:43Z</time>
      </trkpt>
      <trkpt lat="49.33791" lon="-0.61631">
        <ele>54.5</ele>
        <time>2020-06-17T07:48:44Z</time>
      </trkpt>
      <trkpt lat="49.33793" lon="-0.61623">
        <ele>54.6</ele>
        <time>2020-06-17T07:48:45Z</time>
      </trkpt>
      <trkpt lat="49.33795" lon="-0.61614">
        <ele>54.8</ele>
        <time>2020-06-17T07:48:46Z</time>
      </trkpt>
      <trkpt lat="49.33797" lon="-0.61605">
        <ele>54.9</ele>
        <time>2020-06-17T07:48:47Z</time>
      </trkpt>
      <trkpt lat="49.33798" lon="-0.61596">
        <ele>55.1</ele>
        <time>2020-06-17T07:48:48Z</time>
      </trkpt>
      <trkpt lat="49.33798" lon="-0.61586">
        <ele>55.2</ele>
        <time>2020-06-17T07:48:49Z</time>
      </trkpt>
      <trkpt lat="49.33797" lon="-0.61577">
        <ele>55.3</ele>
        <time>2020-06-17T07:48:50Z</time>
      </trkpt>
      <trkpt lat="49.33797" lon="-0.61568">
        <ele>55.4</ele>
        <time>2020-06-17T07:48:51Z</time>
      </trkpt>
      <trkpt lat="49.33799" lon="-0.6156">
        <ele>55.4</ele>
        <time>2020-06-17T07:48:52Z</time>
      </trkpt>
      <trkpt lat="49.338" lon="-0.61552">
        <ele>55.4</ele>
        <time>2020-06-17T07:48:53Z</time>
      </trkpt>
      <trkpt lat="49.33801" lon="-0.61546">
        <ele>55.5</ele>
        <time>2020-06-17T07:48:54Z</time>
      </trkpt>
      <trkpt lat="49.33802" lon="-0.61542">
        <ele>55.4</ele>
        <time>2020-06-17T07:48:55Z</time>
      </trkpt>
      <trkpt lat="49.33805" lon="-0.61543">
        <ele>55.4</ele>
        <time>2020-06-17T07:48:56Z</time>
      </trkpt>
      <trkpt lat="49.33806" lon="-0.61544">
        <ele>55.4</ele>
        <time>2020-06-17T07:48:57Z</time>
      </trkpt>
      <trkpt lat="49.33807" lon="-0.61548">
        <ele>55.4</ele>
        <time>2020-06-17T07:48:58Z</time>
      </trkpt>
      <trkpt lat="49.33807" lon="-0.61551">
        <ele>55.5</ele>
        <time>2020-06-17T07:48:59Z</time>
      </trkpt>
      <trkpt lat="49.33807" lon="-0.61553">
        <ele>55.4</ele>
        <time>2020-06-17T07:49:00Z</time>
      </trkpt>
      <trkpt lat="49.33811" lon="-0.61554">
        <ele>55.4</ele>
        <time>2020-06-17T07:49:01Z</time>
      </trkpt>
      <trkpt lat="49.33813" lon="-0.61553">
        <ele>55.4</ele>
        <time>2020-06-17T07:49:02Z</time>
      </trkpt>
      <trkpt lat="49.33816" lon="-0.61555">
        <ele>55.5</ele>
        <time>2020-06-17T07:49:03Z</time>
      </trkpt>
      <trkpt lat="49.33818" lon="-0.61556">
        <ele>55.5</ele>
        <time>2020-06-17T07:49:04Z</time>
      </trkpt>
      <trkpt lat="49.3382" lon="-0.61558">
        <ele>55.6</ele>
        <time>2020-06-17T07:49:05Z</time>
      </trkpt>
      <trkpt lat="49.33822" lon="-0.61562">
        <ele>55.7</ele>
        <time>2020-06-17T07:49:06Z</time>
      </trkpt>
      <trkpt lat="49.33822" lon="-0.61565">
        <ele>55.7</ele>
        <time>2020-06-17T07:49:07Z</time>
      </trkpt>
      <trkpt lat="49.33821" lon="-0.61567">
        <ele>55.7</ele>
        <time>2020-06-17T07:49:08Z</time>
      </trkpt>
      <trkpt lat="49.33821" lon="-0.6157">
        <ele>55.7</ele>
        <time>2020-06-17T07:49:09Z</time>
      </trkpt>
      <trkpt lat="49.33821" lon="-0.61572">
        <ele>55.7</ele>
        <time>2020-06-17T07:49:10Z</time>
      </trkpt>
      <trkpt lat="49.33821" lon="-0.61573">
        <ele>55.8</ele>
        <time>2020-06-17T07:49:11Z</time>
      </trkpt>
      <trkpt lat="49.33824" lon="-0.61571">
        <ele>55.9</ele>
        <time>2020-06-17T07:49:12Z</time>
      </trkpt>
      <trkpt lat="49.33827" lon="-0.61568">
        <ele>56</ele>
        <time>2020-06-17T07:49:13Z</time>
      </trkpt>
      <trkpt lat="49.3383" lon="-0.61565">
        <ele>56.1</ele>
        <time>2020-06-17T07:49:14Z</time>
      </trkpt>
      <trkpt lat="49.33832" lon="-0.61562">
        <ele>56.2</ele>
        <time>2020-06-17T07:49:15Z</time>
      </trkpt>
      <trkpt lat="49.33834" lon="-0.61562">
        <ele>56.2</ele>
        <time>2020-06-17T07:49:16Z</time>
      </trkpt>
      <trkpt lat="49.33834" lon="-0.61563">
        <ele>56.2</ele>
        <time>2020-06-17T07:49:17Z</time>
      </trkpt>
      <trkpt lat="49.33835" lon="-0.61564">
        <ele>56.2</ele>
        <time>2020-06-17T07:49:18Z</time>
      </trkpt>
      <trkpt lat="49.33836" lon="-0.61564">
        <ele>56.3</ele>
        <time>2020-06-17T07:49:19Z</time>
      </trkpt>
      <trkpt lat="49.33838" lon="-0.61567">
        <ele>56.1</ele>
        <time>2020-06-17T07:49:20Z</time>
      </trkpt>
      <trkpt lat="49.33839" lon="-0.61568">
        <ele>56.2</ele>
        <time>2020-06-17T07:49:21Z</time>
      </trkpt>
      <trkpt lat="49.33841" lon="-0.6157">
        <ele>56</ele>
        <time>2020-06-17T07:49:22Z</time>
      </trkpt>
      <trkpt lat="49.33844" lon="-0.61573">
        <ele>55.7</ele>
        <time>2020-06-17T07:49:23Z</time>
      </trkpt>
      <trkpt lat="49.33844" lon="-0.61574">
        <ele>55.8</ele>
        <time>2020-06-17T07:49:24Z</time>
      </trkpt>
      <trkpt lat="49.33848" lon="-0.61577">
        <ele>55.4</ele>
        <time>2020-06-17T07:49:25Z</time>
      </trkpt>
      <trkpt lat="49.33849" lon="-0.61577">
        <ele>55.4</ele>
        <time>2020-06-17T07:49:26Z</time>
      </trkpt>
      <trkpt lat="49.33851" lon="-0.6158">
        <ele>55</ele>
        <time>2020-06-17T07:49:27Z</time>
      </trkpt>
      <trkpt lat="49.33854" lon="-0.61582">
        <ele>54.5</ele>
        <time>2020-06-17T07:49:28Z</time>
      </trkpt>
      <trkpt lat="49.33857" lon="-0.61584">
        <ele>54</ele>
        <time>2020-06-17T07:49:29Z</time>
      </trkpt>
      <trkpt lat="49.3386" lon="-0.61586">
        <ele>52.8</ele>
        <time>2020-06-17T07:49:30Z</time>
      </trkpt>
      <trkpt lat="49.33864" lon="-0.61589">
        <ele>52.2</ele>
        <time>2020-06-17T07:49:31Z</time>
      </trkpt>
      <trkpt lat="49.33866" lon="-0.61594">
        <ele>51.5</ele>
        <time>2020-06-17T07:49:32Z</time>
      </trkpt>
      <trkpt lat="49.33869" lon="-0.61598">
        <ele>50.9</ele>
        <time>2020-06-17T07:49:33Z</time>
      </trkpt>
      <trkpt lat="49.33871" lon="-0.61604">
        <ele>50.9</ele>
        <time>2020-06-17T07:49:34Z</time>
      </trkpt>
      <trkpt lat="49.33874" lon="-0.61608">
        <ele>50.3</ele>
        <time>2020-06-17T07:49:35Z</time>
      </trkpt>
      <trkpt lat="49.33875" lon="-0.61613">
        <ele>49.8</ele>
        <time>2020-06-17T07:49:36Z</time>
      </trkpt>
      <trkpt lat="49.33877" lon="-0.61618">
        <ele>49.3</ele>
        <time>2020-06-17T07:49:37Z</time>
      </trkpt>
      <trkpt lat="49.33878" lon="-0.6162">
        <ele>49.3</ele>
        <time>2020-06-17T07:49:38Z</time>
      </trkpt>
      <trkpt lat="49.33878" lon="-0.61625">
        <ele>49.4</ele>
        <time>2020-06-17T07:49:39Z</time>
      </trkpt>
      <trkpt lat="49.33879" lon="-0.61629">
        <ele>49.4</ele>
        <time>2020-06-17T07:49:40Z</time>
      </trkpt>
      <trkpt lat="49.33879" lon="-0.61631">
        <ele>49.4</ele>
        <time>2020-06-17T07:49:41Z</time>
      </trkpt>
      <trkpt lat="49.3388" lon="-0.61635">
        <ele>49</ele>
        <time>2020-06-17T07:49:42Z</time>
      </trkpt>
      <trkpt lat="49.33881" lon="-0.61636">
        <ele>49</ele>
        <time>2020-06-17T07:49:43Z</time>
      </trkpt>
      <trkpt lat="49.33882" lon="-0.61638">
        <ele>49</ele>
        <time>2020-06-17T07:49:44Z</time>
      </trkpt>
      <trkpt lat="49.33883" lon="-0.6164">
        <ele>48.7</ele>
        <time>2020-06-17T07:49:45Z</time>
      </trkpt>
      <trkpt lat="49.33885" lon="-0.61642">
        <ele>48.7</ele>
        <time>2020-06-17T07:49:46Z</time>
      </trkpt>
      <trkpt lat="49.33886" lon="-0.61644">
        <ele>48.4</ele>
        <time>2020-06-17T07:49:47Z</time>
      </trkpt>
      <trkpt lat="49.33888" lon="-0.61647">
        <ele>48.4</ele>
        <time>2020-06-17T07:49:48Z</time>
      </trkpt>
      <trkpt lat="49.33889" lon="-0.61649">
        <ele>48.1</ele>
        <time>2020-06-17T07:49:49Z</time>
      </trkpt>
      <trkpt lat="49.33892" lon="-0.61653">
        <ele>47.8</ele>
        <time>2020-06-17T07:49:50Z</time>
      </trkpt>
      <trkpt lat="49.33893" lon="-0.61654">
        <ele>47.8</ele>
        <time>2020-06-17T07:49:51Z</time>
      </trkpt>
      <trkpt lat="49.33896" lon="-0.61658">
        <ele>47.7</ele>
        <time>2020-06-17T07:49:52Z</time>
      </trkpt>
      <trkpt lat="49.33896" lon="-0.61659">
        <ele>47.7</ele>
        <time>2020-06-17T07:49:53Z</time>
      </trkpt>
      <trkpt lat="49.33898" lon="-0.61663">
        <ele>47.7</ele>
        <time>2020-06-17T07:49:54Z</time>
      </trkpt>
      <trkpt lat="49.33899" lon="-0.61664">
        <ele>47.7</ele>
        <time>2020-06-17T07:49:55Z</time>
      </trkpt>
      <trkpt lat="49.33901" lon="-0.61667">
        <ele>47.7</ele>
        <time>2020-06-17T07:49:56Z</time>
      </trkpt>
      <trkpt lat="49.33902" lon="-0.61667">
        <ele>47.7</ele>
        <time>2020-06-17T07:49:57Z</time>
      </trkpt>
      <trkpt lat="49.33903" lon="-0.61669">
        <ele>47.9</ele>
        <time>2020-06-17T07:49:58Z</time>
      </trkpt>
      <trkpt lat="49.33904" lon="-0.61669">
        <ele>47.9</ele>
        <time>2020-06-17T07:49:59Z</time>
      </trkpt>
      <trkpt lat="49.33905" lon="-0.61667">
        <ele>48</ele>
        <time>2020-06-17T07:50:00Z</time>
      </trkpt>
      <trkpt lat="49.33908" lon="-0.61665">
        <ele>48.5</ele>
        <time>2020-06-17T07:50:01Z</time>
      </trkpt>
      <trkpt lat="49.33911" lon="-0.61662">
        <ele>48.5</ele>
        <time>2020-06-17T07:50:02Z</time>
      </trkpt>
      <trkpt lat="49.33911" lon="-0.61662">
        <ele>48.8</ele>
        <time>2020-06-17T07:50:03Z</time>
      </trkpt>
      <trkpt lat="49.33912" lon="-0.61661">
        <ele>48.8</ele>
        <time>2020-06-17T07:50:04Z</time>
      </trkpt>
      <trkpt lat="49.33913" lon="-0.6166">
        <ele>49</ele>
        <time>2020-06-17T07:50:05Z</time>
      </trkpt>
      <trkpt lat="49.33915" lon="-0.61659">
        <ele>49.2</ele>
        <time>2020-06-17T07:50:06Z</time>
      </trkpt>
      <trkpt lat="49.33915" lon="-0.61659">
        <ele>49.3</ele>
        <time>2020-06-17T07:50:07Z</time>
      </trkpt>
      <trkpt lat="49.33915" lon="-0.61659">
        <ele>49.3</ele>
        <time>2020-06-17T07:50:08Z</time>
      </trkpt>
      <trkpt lat="49.33915" lon="-0.61659">
        <ele>49.3</ele>
        <time>2020-06-17T07:50:09Z</time>
      </trkpt>
      <trkpt lat="49.33915" lon="-0.61659">
        <ele>49.4</ele>
        <time>2020-06-17T07:50:10Z</time>
      </trkpt>
      <trkpt lat="49.33926" lon="-0.61678">
        <ele>48.9</ele>
        <time>2020-06-17T07:51:51Z</time>
      </trkpt>
      <trkpt lat="49.33926" lon="-0.61678">
        <ele>48.9</ele>
        <time>2020-06-17T07:51:52Z</time>
      </trkpt>
      <trkpt lat="49.33925" lon="-0.61679">
        <ele>48.9</ele>
        <time>2020-06-17T07:51:53Z</time>
      </trkpt>
      <trkpt lat="49.33924" lon="-0.6168">
        <ele>48.9</ele>
        <time>2020-06-17T07:51:54Z</time>
      </trkpt>
      <trkpt lat="49.33924" lon="-0.61681">
        <ele>48.9</ele>
        <time>2020-06-17T07:51:55Z</time>
      </trkpt>
      <trkpt lat="49.33923" lon="-0.61682">
        <ele>48.9</ele>
        <time>2020-06-17T07:51:56Z</time>
      </trkpt>
      <trkpt lat="49.33922" lon="-0.61682">
        <ele>48.9</ele>
        <time>2020-06-17T07:51:57Z</time>
      </trkpt>
      <trkpt lat="49.33922" lon="-0.61682">
        <ele>48.9</ele>
        <time>2020-06-17T07:51:58Z</time>
      </trkpt>
      <trkpt lat="49.33923" lon="-0.61682">
        <ele>48.9</ele>
        <time>2020-06-17T07:51:59Z</time>
      </trkpt>
      <trkpt lat="49.33923" lon="-0.61683">
        <ele>48.9</ele>
        <time>2020-06-17T07:52:00Z</time>
      </trkpt>
      <trkpt lat="49.33923" lon="-0.61681">
        <ele>49</ele>
        <time>2020-06-17T07:52:01Z</time>
      </trkpt>
      <trkpt lat="49.33923" lon="-0.61681">
        <ele>49</ele>
        <time>2020-06-17T07:52:02Z</time>
      </trkpt>
      <trkpt lat="49.33922" lon="-0.61681">
        <ele>49</ele>
        <time>2020-06-17T07:52:03Z</time>
      </trkpt>
      <trkpt lat="49.33922" lon="-0.6168">
        <ele>49</ele>
        <time>2020-06-17T07:52:04Z</time>
      </trkpt>
      <trkpt lat="49.33922" lon="-0.6168">
        <ele>49</ele>
        <time>2020-06-17T07:52:05Z</time>
      </trkpt>
      <trkpt lat="49.33922" lon="-0.6168">
        <ele>49</ele>
        <time>2020-06-17T07:52:06Z</time>
      </trkpt>
      <trkpt lat="49.33923" lon="-0.61679">
        <ele>49</ele>
        <time>2020-06-17T07:52:07Z</time>
      </trkpt>
      <trkpt lat="49.33923" lon="-0.61678">
        <ele>49</ele>
        <time>2020-06-17T07:52:08Z</time>
      </trkpt>
      <trkpt lat="49.33923" lon="-0.61677">
        <ele>49</ele>
        <time>2020-06-17T07:52:09Z</time>
      </trkpt>
      <trkpt lat="49.33923" lon="-0.61675">
        <ele>49</ele>
        <time>2020-06-17T07:52:10Z</time>
      </trkpt>
      <trkpt lat="49.33924" lon="-0.61675">
        <ele>49</ele>
        <time>2020-06-17T07:52:11Z</time>
      </trkpt>
      <trkpt lat="49.33924" lon="-0.61675">
        <ele>49</ele>
        <time>2020-06-17T07:52:12Z</time>
      </trkpt>
      <trkpt lat="49.33925" lon="-0.61675">
        <ele>49</ele>
        <time>2020-06-17T07:52:13Z</time>
      </trkpt>
      <trkpt lat="49.33925" lon="-0.61676">
        <ele>49</ele>
        <time>2020-06-17T07:52:14Z</time>
      </trkpt>
      <trkpt lat="49.33925" lon="-0.61676">
        <ele>49</ele>
        <time>2020-06-17T07:52:15Z</time>
      </trkpt>
      <trkpt lat="49.33925" lon="-0.61676">
        <ele>49</ele>
        <time>2020-06-17T07:52:16Z</time>
      </trkpt>
      <trkpt lat="49.33925" lon="-0.61675">
        <ele>49</ele>
        <time>2020-06-17T07:52:17Z</time>
      </trkpt>
      <trkpt lat="49.33926" lon="-0.61675">
        <ele>49</ele>
        <time>2020-06-17T07:52:18Z</time>
      </trkpt>
      <trkpt lat="49.33926" lon="-0.61674">
        <ele>49</ele>
        <time>2020-06-17T07:52:19Z</time>
      </trkpt>
      <trkpt lat="49.33926" lon="-0.61674">
        <ele>49</ele>
        <time>2020-06-17T07:52:20Z</time>
      </trkpt>
      <trkpt lat="49.33926" lon="-0.61674">
        <ele>49</ele>
        <time>2020-06-17T07:52:21Z</time>
      </trkpt>
      <trkpt lat="49.33926" lon="-0.61674">
        <ele>49</ele>
        <time>2020-06-17T07:52:22Z</time>
      </trkpt>
      <trkpt lat="49.33926" lon="-0.61674">
        <ele>49</ele>
        <time>2020-06-17T07:52:23Z</time>
      </trkpt>
      <trkpt lat="49.33926" lon="-0.61674">
        <ele>49</ele>
        <time>2020-06-17T07:52:24Z</time>
      </trkpt>
      <trkpt lat="49.33926" lon="-0.61674">
        <ele>49</ele>
        <time>2020-06-17T07:52:25Z</time>
      </trkpt>
      <trkpt lat="49.33926" lon="-0.61674">
        <ele>49</ele>
        <time>2020-06-17T07:52:26Z</time>
      </trkpt>
      <trkpt lat="49.33925" lon="-0.61675">
        <ele>49</ele>
        <time>2020-06-17T07:52:27Z</time>
      </trkpt>
      <trkpt lat="49.33924" lon="-0.61677">
        <ele>49</ele>
        <time>2020-06-17T07:52:28Z</time>
      </trkpt>
      <trkpt lat="49.33923" lon="-0.61678">
        <ele>49</ele>
        <time>2020-06-17T07:52:29Z</time>
      </trkpt>
      <trkpt lat="49.33923" lon="-0.6168">
        <ele>49</ele>
        <time>2020-06-17T07:52:30Z</time>
      </trkpt>
      <trkpt lat="49.33922" lon="-0.61682">
        <ele>49</ele>
        <time>2020-06-17T07:52:31Z</time>
      </trkpt>
      <trkpt lat="49.33922" lon="-0.61683">
        <ele>49</ele>
        <time>2020-06-17T07:52:32Z</time>
      </trkpt>
      <trkpt lat="49.33922" lon="-0.61685">
        <ele>49</ele>
        <time>2020-06-17T07:52:33Z</time>
      </trkpt>
      <trkpt lat="49.33922" lon="-0.61687">
        <ele>49</ele>
        <time>2020-06-17T07:52:34Z</time>
      </trkpt>
      <trkpt lat="49.33921" lon="-0.61689">
        <ele>49</ele>
        <time>2020-06-17T07:52:35Z</time>
      </trkpt>
      <trkpt lat="49.33921" lon="-0.6169">
        <ele>49</ele>
        <time>2020-06-17T07:52:36Z</time>
      </trkpt>
      <trkpt lat="49.33921" lon="-0.61691">
        <ele>49</ele>
        <time>2020-06-17T07:52:37Z</time>
      </trkpt>
      <trkpt lat="49.33922" lon="-0.61693">
        <ele>49</ele>
        <time>2020-06-17T07:52:38Z</time>
      </trkpt>
      <trkpt lat="49.33922" lon="-0.61692">
        <ele>49</ele>
        <time>2020-06-17T07:52:39Z</time>
      </trkpt>
      <trkpt lat="49.33922" lon="-0.61694">
        <ele>49</ele>
        <time>2020-06-17T07:52:40Z</time>
      </trkpt>
      <trkpt lat="49.33923" lon="-0.61695">
        <ele>49</ele>
        <time>2020-06-17T07:52:41Z</time>
      </trkpt>
      <trkpt lat="49.33923" lon="-0.61697">
        <ele>49</ele>
        <time>2020-06-17T07:52:42Z</time>
      </trkpt>
      <trkpt lat="49.33924" lon="-0.61699">
        <ele>49</ele>
        <time>2020-06-17T07:52:43Z</time>
      </trkpt>
      <trkpt lat="49.33924" lon="-0.617">
        <ele>49</ele>
        <time>2020-06-17T07:52:44Z</time>
      </trkpt>
      <trkpt lat="49.33924" lon="-0.61701">
        <ele>49</ele>
        <time>2020-06-17T07:52:45Z</time>
      </trkpt>
      <trkpt lat="49.33924" lon="-0.61703">
        <ele>49</ele>
        <time>2020-06-17T07:52:46Z</time>
      </trkpt>
      <trkpt lat="49.33924" lon="-0.61704">
        <ele>49</ele>
        <time>2020-06-17T07:52:47Z</time>
      </trkpt>
      <trkpt lat="49.33925" lon="-0.61705">
        <ele>49</ele>
        <time>2020-06-17T07:52:48Z</time>
      </trkpt>
      <trkpt lat="49.33926" lon="-0.61706">
        <ele>49</ele>
        <time>2020-06-17T07:52:49Z</time>
      </trkpt>
      <trkpt lat="49.33926" lon="-0.61708">
        <ele>49</ele>
        <time>2020-06-17T07:52:50Z</time>
      </trkpt>
      <trkpt lat="49.33926" lon="-0.61709">
        <ele>49</ele>
        <time>2020-06-17T07:52:51Z</time>
      </trkpt>
      <trkpt lat="49.33926" lon="-0.61711">
        <ele>49</ele>
        <time>2020-06-17T07:52:52Z</time>
      </trkpt>
      <trkpt lat="49.33927" lon="-0.61713">
        <ele>49</ele>
        <time>2020-06-17T07:52:53Z</time>
      </trkpt>
      <trkpt lat="49.33927" lon="-0.61715">
        <ele>49</ele>
        <time>2020-06-17T07:52:54Z</time>
      </trkpt>
      <trkpt lat="49.33927" lon="-0.61715">
        <ele>49</ele>
        <time>2020-06-17T07:52:55Z</time>
      </trkpt>
      <trkpt lat="49.33928" lon="-0.61715">
        <ele>49</ele>
        <time>2020-06-17T07:52:56Z</time>
      </trkpt>
      <trkpt lat="49.33929" lon="-0.61715">
        <ele>49</ele>
        <time>2020-06-17T07:52:57Z</time>
      </trkpt>
      <trkpt lat="49.3393" lon="-0.61714">
        <ele>49</ele>
        <time>2020-06-17T07:52:58Z</time>
      </trkpt>
      <trkpt lat="49.33931" lon="-0.61713">
        <ele>49</ele>
        <time>2020-06-17T07:52:59Z</time>
      </trkpt>
      <trkpt lat="49.33932" lon="-0.61712">
        <ele>49</ele>
        <time>2020-06-17T07:53:00Z</time>
      </trkpt>
      <trkpt lat="49.33933" lon="-0.61712">
        <ele>49</ele>
        <time>2020-06-17T07:53:01Z</time>
      </trkpt>
      <trkpt lat="49.33934" lon="-0.61711">
        <ele>49</ele>
        <time>2020-06-17T07:53:02Z</time>
      </trkpt>
      <trkpt lat="49.33935" lon="-0.6171">
        <ele>49</ele>
        <time>2020-06-17T07:53:03Z</time>
      </trkpt>
      <trkpt lat="49.33936" lon="-0.61709">
        <ele>49</ele>
        <time>2020-06-17T07:53:04Z</time>
      </trkpt>
      <trkpt lat="49.33937" lon="-0.61709">
        <ele>49</ele>
        <time>2020-06-17T07:53:05Z</time>
      </trkpt>
      <trkpt lat="49.33937" lon="-0.61708">
        <ele>49</ele>
        <time>2020-06-17T07:53:06Z</time>
      </trkpt>
      <trkpt lat="49.33938" lon="-0.61707">
        <ele>49</ele>
        <time>2020-06-17T07:53:34Z</time>
      </trkpt>
      <trkpt lat="49.33939" lon="-0.61707">
        <ele>49</ele>
        <time>2020-06-17T07:53:35Z</time>
      </trkpt>
      <trkpt lat="49.3394" lon="-0.61706">
        <ele>49</ele>
        <time>2020-06-17T07:53:36Z</time>
      </trkpt>
      <trkpt lat="49.33941" lon="-0.61705">
        <ele>49</ele>
        <time>2020-06-17T07:53:37Z</time>
      </trkpt>
      <trkpt lat="49.33941" lon="-0.61705">
        <ele>49</ele>
        <time>2020-06-17T07:53:38Z</time>
      </trkpt>
      <trkpt lat="49.33942" lon="-0.61704">
        <ele>49</ele>
        <time>2020-06-17T07:53:39Z</time>
      </trkpt>
      <trkpt lat="49.33942" lon="-0.61703">
        <ele>49</ele>
        <time>2020-06-17T07:53:40Z</time>
      </trkpt>
      <trkpt lat="49.33942" lon="-0.61702">
        <ele>49</ele>
        <time>2020-06-17T07:53:41Z</time>
      </trkpt>
      <trkpt lat="49.33942" lon="-0.61701">
        <ele>49</ele>
        <time>2020-06-17T07:53:42Z</time>
      </trkpt>
      <trkpt lat="49.33942" lon="-0.617">
        <ele>49</ele>
        <time>2020-06-17T07:53:43Z</time>
      </trkpt>
      <trkpt lat="49.33941" lon="-0.61699">
        <ele>49</ele>
        <time>2020-06-17T07:53:44Z</time>
      </trkpt>
      <trkpt lat="49.33941" lon="-0.61697">
        <ele>49</ele>
        <time>2020-06-17T07:53:45Z</time>
      </trkpt>
      <trkpt lat="49.33941" lon="-0.61695">
        <ele>49</ele>
        <time>2020-06-17T07:53:46Z</time>
      </trkpt>
      <trkpt lat="49.33941" lon="-0.61694">
        <ele>49</ele>
        <time>2020-06-17T07:53:47Z</time>
      </trkpt>
      <trkpt lat="49.33941" lon="-0.61693">
        <ele>49</ele>
        <time>2020-06-17T07:53:48Z</time>
      </trkpt>
      <trkpt lat="49.3394" lon="-0.61692">
        <ele>49</ele>
        <time>2020-06-17T07:53:49Z</time>
      </trkpt>
      <trkpt lat="49.3394" lon="-0.61691">
        <ele>49</ele>
        <time>2020-06-17T07:53:50Z</time>
      </trkpt>
      <trkpt lat="49.3394" lon="-0.61691">
        <ele>49</ele>
        <time>2020-06-17T07:53:51Z</time>
      </trkpt>
      <trkpt lat="49.3394" lon="-0.6169">
        <ele>49</ele>
        <time>2020-06-17T07:53:52Z</time>
      </trkpt>
      <trkpt lat="49.3394" lon="-0.61689">
        <ele>49</ele>
        <time>2020-06-17T07:53:53Z</time>
      </trkpt>
      <trkpt lat="49.33939" lon="-0.61689">
        <ele>49</ele>
        <time>2020-06-17T07:53:54Z</time>
      </trkpt>
      <trkpt lat="49.33939" lon="-0.61687">
        <ele>49</ele>
        <time>2020-06-17T07:53:55Z</time>
      </trkpt>
      <trkpt lat="49.33939" lon="-0.61686">
        <ele>49</ele>
        <time>2020-06-17T07:53:56Z</time>
      </trkpt>
      <trkpt lat="49.33938" lon="-0.61684">
        <ele>49</ele>
        <time>2020-06-17T07:53:57Z</time>
      </trkpt>
      <trkpt lat="49.33938" lon="-0.61683">
        <ele>49</ele>
        <time>2020-06-17T07:53:58Z</time>
      </trkpt>
      <trkpt lat="49.33938" lon="-0.61683">
        <ele>49</ele>
        <time>2020-06-17T07:53:59Z</time>
      </trkpt>
      <trkpt lat="49.33938" lon="-0.61681">
        <ele>49</ele>
        <time>2020-06-17T07:54:00Z</time>
      </trkpt>
      <trkpt lat="49.33938" lon="-0.61679">
        <ele>49</ele>
        <time>2020-06-17T07:54:01Z</time>
      </trkpt>
      <trkpt lat="49.33938" lon="-0.61679">
        <ele>49</ele>
        <time>2020-06-17T07:54:02Z</time>
      </trkpt>
      <trkpt lat="49.33938" lon="-0.61678">
        <ele>49</ele>
        <time>2020-06-17T07:54:03Z</time>
      </trkpt>
      <trkpt lat="49.33937" lon="-0.61677">
        <ele>49</ele>
        <time>2020-06-17T07:54:04Z</time>
      </trkpt>
      <trkpt lat="49.33937" lon="-0.61676">
        <ele>49</ele>
        <time>2020-06-17T07:54:05Z</time>
      </trkpt>
      <trkpt lat="49.33937" lon="-0.61674">
        <ele>49</ele>
        <time>2020-06-17T07:54:06Z</time>
      </trkpt>
      <trkpt lat="49.33937" lon="-0.61674">
        <ele>49</ele>
        <time>2020-06-17T07:54:07Z</time>
      </trkpt>
      <trkpt lat="49.33938" lon="-0.61672">
        <ele>49</ele>
        <time>2020-06-17T07:54:08Z</time>
      </trkpt>
      <trkpt lat="49.33937" lon="-0.61671">
        <ele>49</ele>
        <time>2020-06-17T07:54:09Z</time>
      </trkpt>
      <trkpt lat="49.33936" lon="-0.61671">
        <ele>49</ele>
        <time>2020-06-17T07:54:10Z</time>
      </trkpt>
      <trkpt lat="49.33936" lon="-0.61671">
        <ele>49</ele>
        <time>2020-06-17T07:54:11Z</time>
      </trkpt>
      <trkpt lat="49.33936" lon="-0.61671">
        <ele>49</ele>
        <time>2020-06-17T07:54:12Z</time>
      </trkpt>
      <trkpt lat="49.33936" lon="-0.6167">
        <ele>49</ele>
        <time>2020-06-17T07:54:13Z</time>
      </trkpt>
      <trkpt lat="49.33935" lon="-0.6167">
        <ele>49</ele>
        <time>2020-06-17T07:54:14Z</time>
      </trkpt>
      <trkpt lat="49.33935" lon="-0.61669">
        <ele>49</ele>
        <time>2020-06-17T07:54:15Z</time>
      </trkpt>
      <trkpt lat="49.33935" lon="-0.61669">
        <ele>49</ele>
        <time>2020-06-17T07:54:16Z</time>
      </trkpt>
      <trkpt lat="49.33935" lon="-0.61669">
        <ele>49</ele>
        <time>2020-06-17T07:54:17Z</time>
      </trkpt>
      <trkpt lat="49.33934" lon="-0.61669">
        <ele>49</ele>
        <time>2020-06-17T07:54:18Z</time>
      </trkpt>
      <trkpt lat="49.33934" lon="-0.61669">
        <ele>49</ele>
        <time>2020-06-17T07:54:19Z</time>
      </trkpt>
      <trkpt lat="49.33934" lon="-0.61669">
        <ele>49</ele>
        <time>2020-06-17T07:54:20Z</time>
      </trkpt>
      <trkpt lat="49.33933" lon="-0.61651">
        <ele>49.1</ele>
        <time>2020-06-17T07:55:22Z</time>
      </trkpt>
      <trkpt lat="49.33934" lon="-0.61648">
        <ele>49.1</ele>
        <time>2020-06-17T07:55:23Z</time>
      </trkpt>
      <trkpt lat="49.33934" lon="-0.61645">
        <ele>49.1</ele>
        <time>2020-06-17T07:55:24Z</time>
      </trkpt>
      <trkpt lat="49.33935" lon="-0.61644">
        <ele>49.1</ele>
        <time>2020-06-17T07:55:25Z</time>
      </trkpt>
      <trkpt lat="49.33936" lon="-0.61643">
        <ele>49.1</ele>
        <time>2020-06-17T07:55:26Z</time>
      </trkpt>
      <trkpt lat="49.33937" lon="-0.61639">
        <ele>49.1</ele>
        <time>2020-06-17T07:55:27Z</time>
      </trkpt>
      <trkpt lat="49.33937" lon="-0.61637">
        <ele>49.1</ele>
        <time>2020-06-17T07:55:28Z</time>
      </trkpt>
      <trkpt lat="49.33939" lon="-0.61631">
        <ele>49.1</ele>
        <time>2020-06-17T07:55:29Z</time>
      </trkpt>
      <trkpt lat="49.33939" lon="-0.61629">
        <ele>49.2</ele>
        <time>2020-06-17T07:55:30Z</time>
      </trkpt>
      <trkpt lat="49.33941" lon="-0.61624">
        <ele>49.2</ele>
        <time>2020-06-17T07:55:31Z</time>
      </trkpt>
      <trkpt lat="49.33941" lon="-0.61619">
        <ele>49.3</ele>
        <time>2020-06-17T07:55:32Z</time>
      </trkpt>
      <trkpt lat="49.33942" lon="-0.61614">
        <ele>49.3</ele>
        <time>2020-06-17T07:55:33Z</time>
      </trkpt>
      <trkpt lat="49.33942" lon="-0.6161">
        <ele>49.4</ele>
        <time>2020-06-17T07:55:34Z</time>
      </trkpt>
      <trkpt lat="49.33941" lon="-0.61604">
        <ele>49.4</ele>
        <time>2020-06-17T07:55:35Z</time>
      </trkpt>
      <trkpt lat="49.3394" lon="-0.61598">
        <ele>49.5</ele>
        <time>2020-06-17T07:55:36Z</time>
      </trkpt>
      <trkpt lat="49.33938" lon="-0.61594">
        <ele>49.5</ele>
        <time>2020-06-17T07:55:37Z</time>
      </trkpt>
      <trkpt lat="49.33936" lon="-0.6159">
        <ele>49.5</ele>
        <time>2020-06-17T07:55:38Z</time>
      </trkpt>
      <trkpt lat="49.33933" lon="-0.61586">
        <ele>49.6</ele>
        <time>2020-06-17T07:55:39Z</time>
      </trkpt>
      <trkpt lat="49.3393" lon="-0.61583">
        <ele>49.6</ele>
        <time>2020-06-17T07:55:40Z</time>
      </trkpt>
      <trkpt lat="49.33926" lon="-0.6158">
        <ele>49.7</ele>
        <time>2020-06-17T07:55:41Z</time>
      </trkpt>
      <trkpt lat="49.33923" lon="-0.61577">
        <ele>49.7</ele>
        <time>2020-06-17T07:55:42Z</time>
      </trkpt>
      <trkpt lat="49.3392" lon="-0.61574">
        <ele>49.8</ele>
        <time>2020-06-17T07:55:43Z</time>
      </trkpt>
      <trkpt lat="49.33917" lon="-0.6157">
        <ele>49.8</ele>
        <time>2020-06-17T07:55:44Z</time>
      </trkpt>
      <trkpt lat="49.33914" lon="-0.61567">
        <ele>49.9</ele>
        <time>2020-06-17T07:55:45Z</time>
      </trkpt>
      <trkpt lat="49.33912" lon="-0.61562">
        <ele>50</ele>
        <time>2020-06-17T07:55:46Z</time>
      </trkpt>
      <trkpt lat="49.3391" lon="-0.61557">
        <ele>50.1</ele>
        <time>2020-06-17T07:55:47Z</time>
      </trkpt>
      <trkpt lat="49.33909" lon="-0.61551">
        <ele>50.2</ele>
        <time>2020-06-17T07:55:48Z</time>
      </trkpt>
      <trkpt lat="49.33908" lon="-0.61545">
        <ele>50.3</ele>
        <time>2020-06-17T07:55:49Z</time>
      </trkpt>
      <trkpt lat="49.33907" lon="-0.6154">
        <ele>50.4</ele>
        <time>2020-06-17T07:55:50Z</time>
      </trkpt>
      <trkpt lat="49.33905" lon="-0.61535">
        <ele>50.4</ele>
        <time>2020-06-17T07:55:51Z</time>
      </trkpt>
      <trkpt lat="49.33906" lon="-0.61529">
        <ele>50.5</ele>
        <time>2020-06-17T07:55:52Z</time>
      </trkpt>
      <trkpt lat="49.33906" lon="-0.61525">
        <ele>50.6</ele>
        <time>2020-06-17T07:55:53Z</time>
      </trkpt>
      <trkpt lat="49.33905" lon="-0.61519">
        <ele>50.8</ele>
        <time>2020-06-17T07:55:54Z</time>
      </trkpt>
      <trkpt lat="49.33905" lon="-0.61517">
        <ele>50.8</ele>
        <time>2020-06-17T07:55:55Z</time>
      </trkpt>
      <trkpt lat="49.33905" lon="-0.61512">
        <ele>50.7</ele>
        <time>2020-06-17T07:55:56Z</time>
      </trkpt>
      <trkpt lat="49.33904" lon="-0.61507">
        <ele>50.7</ele>
        <time>2020-06-17T07:55:57Z</time>
      </trkpt>
      <trkpt lat="49.33903" lon="-0.61505">
        <ele>50.7</ele>
        <time>2020-06-17T07:55:58Z</time>
      </trkpt>
      <trkpt lat="49.33903" lon="-0.61503">
        <ele>50.7</ele>
        <time>2020-06-17T07:55:59Z</time>
      </trkpt>
      <trkpt lat="49.33903" lon="-0.615">
        <ele>50.7</ele>
        <time>2020-06-17T07:56:00Z</time>
      </trkpt>
      <trkpt lat="49.33902" lon="-0.61499">
        <ele>50.7</ele>
        <time>2020-06-17T07:56:01Z</time>
      </trkpt>
      <trkpt lat="49.33901" lon="-0.61497">
        <ele>50.7</ele>
        <time>2020-06-17T07:56:02Z</time>
      </trkpt>
      <trkpt lat="49.33901" lon="-0.61496">
        <ele>50.7</ele>
        <time>2020-06-17T07:56:03Z</time>
      </trkpt>
      <trkpt lat="49.33901" lon="-0.61495">
        <ele>50.7</ele>
        <time>2020-06-17T07:56:04Z</time>
      </trkpt>
      <trkpt lat="49.339" lon="-0.61494">
        <ele>50.7</ele>
        <time>2020-06-17T07:56:05Z</time>
      </trkpt>
      <trkpt lat="49.339" lon="-0.61493">
        <ele>50.7</ele>
        <time>2020-06-17T07:56:06Z</time>
      </trkpt>
      <trkpt lat="49.339" lon="-0.61494">
        <ele>50.7</ele>
        <time>2020-06-17T07:56:07Z</time>
      </trkpt>
      <trkpt lat="49.33901" lon="-0.61493">
        <ele>50.7</ele>
        <time>2020-06-17T07:56:08Z</time>
      </trkpt>
      <trkpt lat="49.33901" lon="-0.61493">
        <ele>50.7</ele>
        <time>2020-06-17T07:56:09Z</time>
      </trkpt>
      <trkpt lat="49.33902" lon="-0.61493">
        <ele>50.6</ele>
        <time>2020-06-17T07:56:10Z</time>
      </trkpt>
      <trkpt lat="49.33902" lon="-0.61493">
        <ele>50.6</ele>
        <time>2020-06-17T07:56:11Z</time>
      </trkpt>
      <trkpt lat="49.33902" lon="-0.61492">
        <ele>50.6</ele>
        <time>2020-06-17T07:56:12Z</time>
      </trkpt>
      <trkpt lat="49.33902" lon="-0.61491">
        <ele>50.6</ele>
        <time>2020-06-17T07:56:13Z</time>
      </trkpt>
      <trkpt lat="49.33902" lon="-0.61491">
        <ele>50.6</ele>
        <time>2020-06-17T07:56:14Z</time>
      </trkpt>
      <trkpt lat="49.33902" lon="-0.61491">
        <ele>50.6</ele>
        <time>2020-06-17T07:56:15Z</time>
      </trkpt>
      <trkpt lat="49.33902" lon="-0.61491">
        <ele>50.6</ele>
        <time>2020-06-17T07:56:16Z</time>
      </trkpt>
      <trkpt lat="49.33902" lon="-0.61491">
        <ele>50.6</ele>
        <time>2020-06-17T07:56:17Z</time>
      </trkpt>
      <trkpt lat="49.33902" lon="-0.61491">
        <ele>50.6</ele>
        <time>2020-06-17T07:56:18Z</time>
      </trkpt>
      <trkpt lat="49.33902" lon="-0.61491">
        <ele>50.6</ele>
        <time>2020-06-17T07:56:19Z</time>
      </trkpt>
      <trkpt lat="49.33902" lon="-0.61492">
        <ele>50.6</ele>
        <time>2020-06-17T07:56:20Z</time>
      </trkpt>
      <trkpt lat="49.33902" lon="-0.61492">
        <ele>50.6</ele>
        <time>2020-06-17T07:56:21Z</time>
      </trkpt>
      <trkpt lat="49.33899" lon="-0.61491">
        <ele>50.6</ele>
        <time>2020-06-17T08:00:11Z</time>
      </trkpt>
      <trkpt lat="49.33899" lon="-0.6149">
        <ele>50.6</ele>
        <time>2020-06-17T08:00:12Z</time>
      </trkpt>
      <trkpt lat="49.33898" lon="-0.6149">
        <ele>50.6</ele>
        <time>2020-06-17T08:00:13Z</time>
      </trkpt>
      <trkpt lat="49.33898" lon="-0.6149">
        <ele>50.6</ele>
        <time>2020-06-17T08:00:14Z</time>
      </trkpt>
      <trkpt lat="49.33898" lon="-0.6149">
        <ele>50.6</ele>
        <time>2020-06-17T08:00:15Z</time>
      </trkpt>
      <trkpt lat="49.33899" lon="-0.6149">
        <ele>50.6</ele>
        <time>2020-06-17T08:00:16Z</time>
      </trkpt>
      <trkpt lat="49.33899" lon="-0.61491">
        <ele>50.6</ele>
        <time>2020-06-17T08:00:17Z</time>
      </trkpt>
      <trkpt lat="49.339" lon="-0.61491">
        <ele>50.6</ele>
        <time>2020-06-17T08:00:18Z</time>
      </trkpt>
      <trkpt lat="49.339" lon="-0.61491">
        <ele>50.5</ele>
        <time>2020-06-17T08:00:19Z</time>
      </trkpt>
      <trkpt lat="49.339" lon="-0.6149">
        <ele>50.5</ele>
        <time>2020-06-17T08:00:20Z</time>
      </trkpt>
      <trkpt lat="49.339" lon="-0.6149">
        <ele>50.5</ele>
        <time>2020-06-17T08:00:21Z</time>
      </trkpt>
      <trkpt lat="49.33899" lon="-0.61489">
        <ele>50.5</ele>
        <time>2020-06-17T08:00:22Z</time>
      </trkpt>
      <trkpt lat="49.33899" lon="-0.61489">
        <ele>50.5</ele>
        <time>2020-06-17T08:00:23Z</time>
      </trkpt>
      <trkpt lat="49.33899" lon="-0.61489">
        <ele>50.5</ele>
        <time>2020-06-17T08:00:24Z</time>
      </trkpt>
      <trkpt lat="49.339" lon="-0.61488">
        <ele>50.5</ele>
        <time>2020-06-17T08:00:25Z</time>
      </trkpt>
      <trkpt lat="49.339" lon="-0.61487">
        <ele>50.5</ele>
        <time>2020-06-17T08:00:26Z</time>
      </trkpt>
      <trkpt lat="49.339" lon="-0.61486">
        <ele>50.5</ele>
        <time>2020-06-17T08:00:27Z</time>
      </trkpt>
      <trkpt lat="49.339" lon="-0.61486">
        <ele>50.5</ele>
        <time>2020-06-17T08:00:28Z</time>
      </trkpt>
      <trkpt lat="49.339" lon="-0.61486">
        <ele>50.5</ele>
        <time>2020-06-17T08:00:29Z</time>
      </trkpt>
      <trkpt lat="49.339" lon="-0.61488">
        <ele>50.5</ele>
        <time>2020-06-17T08:00:30Z</time>
      </trkpt>
      <trkpt lat="49.339" lon="-0.61488">
        <ele>50.5</ele>
        <time>2020-06-17T08:00:31Z</time>
      </trkpt>
      <trkpt lat="49.33901" lon="-0.61488">
        <ele>50.5</ele>
        <time>2020-06-17T08:00:32Z</time>
      </trkpt>
      <trkpt lat="49.33901" lon="-0.61489">
        <ele>50.4</ele>
        <time>2020-06-17T08:00:33Z</time>
      </trkpt>
      <trkpt lat="49.33902" lon="-0.61488">
        <ele>50.4</ele>
        <time>2020-06-17T08:00:34Z</time>
      </trkpt>
      <trkpt lat="49.33902" lon="-0.61489">
        <ele>50.4</ele>
        <time>2020-06-17T08:00:35Z</time>
      </trkpt>
      <trkpt lat="49.33902" lon="-0.61491">
        <ele>50.4</ele>
        <time>2020-06-17T08:00:36Z</time>
      </trkpt>
      <trkpt lat="49.33902" lon="-0.61491">
        <ele>50.4</ele>
        <time>2020-06-17T08:00:37Z</time>
      </trkpt>
      <trkpt lat="49.33902" lon="-0.61492">
        <ele>50.4</ele>
        <time>2020-06-17T08:00:38Z</time>
      </trkpt>
      <trkpt lat="49.33902" lon="-0.61492">
        <ele>50.4</ele>
        <time>2020-06-17T08:00:39Z</time>
      </trkpt>
      <trkpt lat="49.33902" lon="-0.61492">
        <ele>50.4</ele>
        <time>2020-06-17T08:00:40Z</time>
      </trkpt>
      <trkpt lat="49.33902" lon="-0.61492">
        <ele>50.4</ele>
        <time>2020-06-17T08:00:41Z</time>
      </trkpt>
      <trkpt lat="49.33902" lon="-0.61492">
        <ele>50.4</ele>
        <time>2020-06-17T08:00:42Z</time>
      </trkpt>
      <trkpt lat="49.33902" lon="-0.61492">
        <ele>50.4</ele>
        <time>2020-06-17T08:00:43Z</time>
      </trkpt>
      <trkpt lat="49.33902" lon="-0.61492">
        <ele>50.4</ele>
        <time>2020-06-17T08:00:44Z</time>
      </trkpt>
      <trkpt lat="49.33902" lon="-0.61492">
        <ele>50.4</ele>
        <time>2020-06-17T08:00:45Z</time>
      </trkpt>
      <trkpt lat="49.33902" lon="-0.61492">
        <ele>50.4</ele>
        <time>2020-06-17T08:00:46Z</time>
      </trkpt>
      <trkpt lat="49.33903" lon="-0.6149">
        <ele>50.4</ele>
        <time>2020-06-17T08:00:47Z</time>
      </trkpt>
      <trkpt lat="49.33902" lon="-0.6149">
        <ele>50.4</ele>
        <time>2020-06-17T08:00:48Z</time>
      </trkpt>
      <trkpt lat="49.33902" lon="-0.6149">
        <ele>50.4</ele>
        <time>2020-06-17T08:00:49Z</time>
      </trkpt>
      <trkpt lat="49.33905" lon="-0.6149">
        <ele>50.4</ele>
        <time>2020-06-17T08:00:59Z</time>
      </trkpt>
      <trkpt lat="49.33905" lon="-0.61489">
        <ele>50.4</ele>
        <time>2020-06-17T08:01:00Z</time>
      </trkpt>
      <trkpt lat="49.33905" lon="-0.61489">
        <ele>50.4</ele>
        <time>2020-06-17T08:01:01Z</time>
      </trkpt>
      <trkpt lat="49.33906" lon="-0.61489">
        <ele>50.3</ele>
        <time>2020-06-17T08:01:02Z</time>
      </trkpt>
      <trkpt lat="49.33906" lon="-0.61489">
        <ele>50.3</ele>
        <time>2020-06-17T08:01:03Z</time>
      </trkpt>
      <trkpt lat="49.33906" lon="-0.6149">
        <ele>50.3</ele>
        <time>2020-06-17T08:01:04Z</time>
      </trkpt>
      <trkpt lat="49.33905" lon="-0.6149">
        <ele>50.3</ele>
        <time>2020-06-17T08:01:05Z</time>
      </trkpt>
      <trkpt lat="49.33905" lon="-0.6149">
        <ele>50.3</ele>
        <time>2020-06-17T08:01:06Z</time>
      </trkpt>
      <trkpt lat="49.33906" lon="-0.61491">
        <ele>50.3</ele>
        <time>2020-06-17T08:01:07Z</time>
      </trkpt>
      <trkpt lat="49.33906" lon="-0.61491">
        <ele>50.3</ele>
        <time>2020-06-17T08:01:08Z</time>
      </trkpt>
      <trkpt lat="49.33906" lon="-0.61491">
        <ele>50.3</ele>
        <time>2020-06-17T08:01:09Z</time>
      </trkpt>
      <trkpt lat="49.33906" lon="-0.61492">
        <ele>50.3</ele>
        <time>2020-06-17T08:01:10Z</time>
      </trkpt>
      <trkpt lat="49.33906" lon="-0.61492">
        <ele>50.3</ele>
        <time>2020-06-17T08:01:11Z</time>
      </trkpt>
      <trkpt lat="49.33905" lon="-0.61493">
        <ele>50.3</ele>
        <time>2020-06-17T08:01:12Z</time>
      </trkpt>
      <trkpt lat="49.33904" lon="-0.61493">
        <ele>50.3</ele>
        <time>2020-06-17T08:01:13Z</time>
      </trkpt>
      <trkpt lat="49.339" lon="-0.61485">
        <ele>50.2</ele>
        <time>2020-06-17T08:04:49Z</time>
      </trkpt>
      <trkpt lat="49.33901" lon="-0.61486">
        <ele>50.2</ele>
        <time>2020-06-17T08:04:50Z</time>
      </trkpt>
      <trkpt lat="49.33901" lon="-0.61486">
        <ele>50.2</ele>
        <time>2020-06-17T08:04:51Z</time>
      </trkpt>
      <trkpt lat="49.33901" lon="-0.61486">
        <ele>50.2</ele>
        <time>2020-06-17T08:04:52Z</time>
      </trkpt>
      <trkpt lat="49.33902" lon="-0.61487">
        <ele>50.2</ele>
        <time>2020-06-17T08:04:53Z</time>
      </trkpt>
      <trkpt lat="49.33902" lon="-0.61487">
        <ele>50.2</ele>
        <time>2020-06-17T08:04:54Z</time>
      </trkpt>
      <trkpt lat="49.33902" lon="-0.61488">
        <ele>50.1</ele>
        <time>2020-06-17T08:04:55Z</time>
      </trkpt>
      <trkpt lat="49.33902" lon="-0.61487">
        <ele>50.1</ele>
        <time>2020-06-17T08:04:56Z</time>
      </trkpt>
      <trkpt lat="49.33902" lon="-0.61487">
        <ele>50.1</ele>
        <time>2020-06-17T08:04:57Z</time>
      </trkpt>
      <trkpt lat="49.33902" lon="-0.61486">
        <ele>50.1</ele>
        <time>2020-06-17T08:04:58Z</time>
      </trkpt>
      <trkpt lat="49.33902" lon="-0.61485">
        <ele>50.1</ele>
        <time>2020-06-17T08:04:59Z</time>
      </trkpt>
      <trkpt lat="49.33902" lon="-0.61485">
        <ele>50.1</ele>
        <time>2020-06-17T08:05:00Z</time>
      </trkpt>
      <trkpt lat="49.33902" lon="-0.61484">
        <ele>50.1</ele>
        <time>2020-06-17T08:05:01Z</time>
      </trkpt>
      <trkpt lat="49.33902" lon="-0.61483">
        <ele>50.1</ele>
        <time>2020-06-17T08:05:02Z</time>
      </trkpt>
      <trkpt lat="49.33902" lon="-0.61483">
        <ele>50.1</ele>
        <time>2020-06-17T08:05:03Z</time>
      </trkpt>
      <trkpt lat="49.33903" lon="-0.61482">
        <ele>50.1</ele>
        <time>2020-06-17T08:05:04Z</time>
      </trkpt>
      <trkpt lat="49.33903" lon="-0.61481">
        <ele>50.1</ele>
        <time>2020-06-17T08:05:05Z</time>
      </trkpt>
      <trkpt lat="49.33903" lon="-0.6148">
        <ele>50.1</ele>
        <time>2020-06-17T08:05:06Z</time>
      </trkpt>
      <trkpt lat="49.33903" lon="-0.6148">
        <ele>50.1</ele>
        <time>2020-06-17T08:05:07Z</time>
      </trkpt>
      <trkpt lat="49.33903" lon="-0.61479">
        <ele>50.1</ele>
        <time>2020-06-17T08:06:56Z</time>
      </trkpt>
      <trkpt lat="49.33903" lon="-0.61478">
        <ele>50.1</ele>
        <time>2020-06-17T08:06:57Z</time>
      </trkpt>
      <trkpt lat="49.33903" lon="-0.61472">
        <ele>50</ele>
        <time>2020-06-17T08:06:58Z</time>
      </trkpt>
      <trkpt lat="49.33903" lon="-0.61465">
        <ele>50</ele>
        <time>2020-06-17T08:06:59Z</time>
      </trkpt>
      <trkpt lat="49.33903" lon="-0.61456">
        <ele>49.9</ele>
        <time>2020-06-17T08:07:00Z</time>
      </trkpt>
      <trkpt lat="49.33903" lon="-0.61448">
        <ele>49.9</ele>
        <time>2020-06-17T08:07:01Z</time>
      </trkpt>
      <trkpt lat="49.33902" lon="-0.6144">
        <ele>49.8</ele>
        <time>2020-06-17T08:07:02Z</time>
      </trkpt>
      <trkpt lat="49.33901" lon="-0.61432">
        <ele>49.8</ele>
        <time>2020-06-17T08:07:03Z</time>
      </trkpt>
      <trkpt lat="49.33901" lon="-0.61423">
        <ele>49.7</ele>
        <time>2020-06-17T08:07:04Z</time>
      </trkpt>
      <trkpt lat="49.33901" lon="-0.61414">
        <ele>49.7</ele>
        <time>2020-06-17T08:07:05Z</time>
      </trkpt>
      <trkpt lat="49.339" lon="-0.61407">
        <ele>49.7</ele>
        <time>2020-06-17T08:07:06Z</time>
      </trkpt>
      <trkpt lat="49.33898" lon="-0.61401">
        <ele>49.6</ele>
        <time>2020-06-17T08:07:07Z</time>
      </trkpt>
      <trkpt lat="49.33897" lon="-0.61393">
        <ele>49.6</ele>
        <time>2020-06-17T08:07:08Z</time>
      </trkpt>
      <trkpt lat="49.33897" lon="-0.61387">
        <ele>49.5</ele>
        <time>2020-06-17T08:07:09Z</time>
      </trkpt>
      <trkpt lat="49.33896" lon="-0.6138">
        <ele>49.5</ele>
        <time>2020-06-17T08:07:10Z</time>
      </trkpt>
      <trkpt lat="49.33896" lon="-0.61371">
        <ele>49.4</ele>
        <time>2020-06-17T08:07:11Z</time>
      </trkpt>
      <trkpt lat="49.33895" lon="-0.61365">
        <ele>49.3</ele>
        <time>2020-06-17T08:07:12Z</time>
      </trkpt>
      <trkpt lat="49.33894" lon="-0.61358">
        <ele>49.3</ele>
        <time>2020-06-17T08:07:13Z</time>
      </trkpt>
      <trkpt lat="49.33893" lon="-0.61351">
        <ele>49.2</ele>
        <time>2020-06-17T08:07:14Z</time>
      </trkpt>
      <trkpt lat="49.33893" lon="-0.61344">
        <ele>49.1</ele>
        <time>2020-06-17T08:07:15Z</time>
      </trkpt>
      <trkpt lat="49.33892" lon="-0.61336">
        <ele>49</ele>
        <time>2020-06-17T08:07:16Z</time>
      </trkpt>
      <trkpt lat="49.3389" lon="-0.61329">
        <ele>49</ele>
        <time>2020-06-17T08:07:17Z</time>
      </trkpt>
      <trkpt lat="49.33889" lon="-0.61322">
        <ele>49</ele>
        <time>2020-06-17T08:07:18Z</time>
      </trkpt>
      <trkpt lat="49.33889" lon="-0.61315">
        <ele>48.9</ele>
        <time>2020-06-17T08:07:19Z</time>
      </trkpt>
      <trkpt lat="49.33888" lon="-0.61308">
        <ele>48.9</ele>
        <time>2020-06-17T08:07:20Z</time>
      </trkpt>
      <trkpt lat="49.33887" lon="-0.613">
        <ele>48.8</ele>
        <time>2020-06-17T08:07:21Z</time>
      </trkpt>
      <trkpt lat="49.33887" lon="-0.61292">
        <ele>48.7</ele>
        <time>2020-06-17T08:07:22Z</time>
      </trkpt>
      <trkpt lat="49.33885" lon="-0.61284">
        <ele>48.7</ele>
        <time>2020-06-17T08:07:23Z</time>
      </trkpt>
      <trkpt lat="49.33884" lon="-0.61277">
        <ele>48.6</ele>
        <time>2020-06-17T08:07:24Z</time>
      </trkpt>
      <trkpt lat="49.33884" lon="-0.61269">
        <ele>48.5</ele>
        <time>2020-06-17T08:07:25Z</time>
      </trkpt>
      <trkpt lat="49.33883" lon="-0.61264">
        <ele>48.5</ele>
        <time>2020-06-17T08:07:26Z</time>
      </trkpt>
      <trkpt lat="49.33882" lon="-0.61258">
        <ele>48.5</ele>
        <time>2020-06-17T08:07:27Z</time>
      </trkpt>
      <trkpt lat="49.33882" lon="-0.61251">
        <ele>48.4</ele>
        <time>2020-06-17T08:07:28Z</time>
      </trkpt>
      <trkpt lat="49.33881" lon="-0.61243">
        <ele>48.4</ele>
        <time>2020-06-17T08:07:29Z</time>
      </trkpt>
      <trkpt lat="49.33881" lon="-0.61236">
        <ele>48.3</ele>
        <time>2020-06-17T08:07:30Z</time>
      </trkpt>
      <trkpt lat="49.33881" lon="-0.61229">
        <ele>48.3</ele>
        <time>2020-06-17T08:07:31Z</time>
      </trkpt>
      <trkpt lat="49.33881" lon="-0.61222">
        <ele>48.3</ele>
        <time>2020-06-17T08:07:32Z</time>
      </trkpt>
      <trkpt lat="49.3388" lon="-0.61215">
        <ele>48.2</ele>
        <time>2020-06-17T08:07:33Z</time>
      </trkpt>
      <trkpt lat="49.3388" lon="-0.61208">
        <ele>48.2</ele>
        <time>2020-06-17T08:07:34Z</time>
      </trkpt>
      <trkpt lat="49.3388" lon="-0.61201">
        <ele>48.1</ele>
        <time>2020-06-17T08:07:35Z</time>
      </trkpt>
      <trkpt lat="49.3388" lon="-0.61194">
        <ele>48</ele>
        <time>2020-06-17T08:07:36Z</time>
      </trkpt>
      <trkpt lat="49.3388" lon="-0.61186">
        <ele>48</ele>
        <time>2020-06-17T08:07:37Z</time>
      </trkpt>
      <trkpt lat="49.33879" lon="-0.61178">
        <ele>47.9</ele>
        <time>2020-06-17T08:07:38Z</time>
      </trkpt>
      <trkpt lat="49.33878" lon="-0.61171">
        <ele>47.8</ele>
        <time>2020-06-17T08:07:39Z</time>
      </trkpt>
      <trkpt lat="49.33879" lon="-0.61164">
        <ele>47.8</ele>
        <time>2020-06-17T08:07:40Z</time>
      </trkpt>
      <trkpt lat="49.33879" lon="-0.61157">
        <ele>47.7</ele>
        <time>2020-06-17T08:07:41Z</time>
      </trkpt>
      <trkpt lat="49.33879" lon="-0.6115">
        <ele>47.6</ele>
        <time>2020-06-17T08:07:42Z</time>
      </trkpt>
      <trkpt lat="49.33879" lon="-0.61144">
        <ele>47.6</ele>
        <time>2020-06-17T08:07:43Z</time>
      </trkpt>
      <trkpt lat="49.33879" lon="-0.61137">
        <ele>47.5</ele>
        <time>2020-06-17T08:07:44Z</time>
      </trkpt>
      <trkpt lat="49.33878" lon="-0.6113">
        <ele>47.4</ele>
        <time>2020-06-17T08:07:45Z</time>
      </trkpt>
      <trkpt lat="49.33879" lon="-0.61122">
        <ele>47.4</ele>
        <time>2020-06-17T08:07:46Z</time>
      </trkpt>
      <trkpt lat="49.33879" lon="-0.61114">
        <ele>47.3</ele>
        <time>2020-06-17T08:07:47Z</time>
      </trkpt>
      <trkpt lat="49.3388" lon="-0.61107">
        <ele>47.2</ele>
        <time>2020-06-17T08:07:48Z</time>
      </trkpt>
      <trkpt lat="49.33879" lon="-0.61099">
        <ele>47.1</ele>
        <time>2020-06-17T08:07:49Z</time>
      </trkpt>
      <trkpt lat="49.33879" lon="-0.61092">
        <ele>47</ele>
        <time>2020-06-17T08:07:50Z</time>
      </trkpt>
      <trkpt lat="49.33879" lon="-0.61085">
        <ele>46.9</ele>
        <time>2020-06-17T08:07:51Z</time>
      </trkpt>
      <trkpt lat="49.33879" lon="-0.61078">
        <ele>46.8</ele>
        <time>2020-06-17T08:07:52Z</time>
      </trkpt>
      <trkpt lat="49.33879" lon="-0.61072">
        <ele>46.7</ele>
        <time>2020-06-17T08:07:53Z</time>
      </trkpt>
      <trkpt lat="49.33879" lon="-0.61065">
        <ele>46.6</ele>
        <time>2020-06-17T08:07:54Z</time>
      </trkpt>
      <trkpt lat="49.3388" lon="-0.61057">
        <ele>46.4</ele>
        <time>2020-06-17T08:07:55Z</time>
      </trkpt>
      <trkpt lat="49.33881" lon="-0.6105">
        <ele>46.3</ele>
        <time>2020-06-17T08:07:56Z</time>
      </trkpt>
      <trkpt lat="49.33882" lon="-0.61043">
        <ele>46.1</ele>
        <time>2020-06-17T08:07:57Z</time>
      </trkpt>
      <trkpt lat="49.33883" lon="-0.61037">
        <ele>45.9</ele>
        <time>2020-06-17T08:07:58Z</time>
      </trkpt>
      <trkpt lat="49.33883" lon="-0.6103">
        <ele>45.8</ele>
        <time>2020-06-17T08:07:59Z</time>
      </trkpt>
      <trkpt lat="49.33883" lon="-0.61023">
        <ele>45.6</ele>
        <time>2020-06-17T08:08:00Z</time>
      </trkpt>
      <trkpt lat="49.33883" lon="-0.61015">
        <ele>45.4</ele>
        <time>2020-06-17T08:08:01Z</time>
      </trkpt>
      <trkpt lat="49.33884" lon="-0.61009">
        <ele>45.2</ele>
        <time>2020-06-17T08:08:02Z</time>
      </trkpt>
      <trkpt lat="49.33884" lon="-0.61002">
        <ele>45.1</ele>
        <time>2020-06-17T08:08:03Z</time>
      </trkpt>
      <trkpt lat="49.33885" lon="-0.60997">
        <ele>44.9</ele>
        <time>2020-06-17T08:08:04Z</time>
      </trkpt>
      <trkpt lat="49.33886" lon="-0.60991">
        <ele>44.7</ele>
        <time>2020-06-17T08:08:05Z</time>
      </trkpt>
      <trkpt lat="49.33887" lon="-0.60984">
        <ele>44.5</ele>
        <time>2020-06-17T08:08:06Z</time>
      </trkpt>
      <trkpt lat="49.33888" lon="-0.60977">
        <ele>44.3</ele>
        <time>2020-06-17T08:08:07Z</time>
      </trkpt>
      <trkpt lat="49.3389" lon="-0.60971">
        <ele>44.1</ele>
        <time>2020-06-17T08:08:08Z</time>
      </trkpt>
      <trkpt lat="49.3389" lon="-0.60963">
        <ele>43.8</ele>
        <time>2020-06-17T08:08:09Z</time>
      </trkpt>
      <trkpt lat="49.33889" lon="-0.60955">
        <ele>43.5</ele>
        <time>2020-06-17T08:08:10Z</time>
      </trkpt>
      <trkpt lat="49.33889" lon="-0.60948">
        <ele>43.3</ele>
        <time>2020-06-17T08:08:11Z</time>
      </trkpt>
      <trkpt lat="49.33889" lon="-0.60941">
        <ele>43</ele>
        <time>2020-06-17T08:08:12Z</time>
      </trkpt>
      <trkpt lat="49.33888" lon="-0.60934">
        <ele>42.8</ele>
        <time>2020-06-17T08:08:13Z</time>
      </trkpt>
      <trkpt lat="49.33887" lon="-0.60928">
        <ele>42.5</ele>
        <time>2020-06-17T08:08:14Z</time>
      </trkpt>
      <trkpt lat="49.33888" lon="-0.6092">
        <ele>42.2</ele>
        <time>2020-06-17T08:08:15Z</time>
      </trkpt>
      <trkpt lat="49.33888" lon="-0.60913">
        <ele>41.9</ele>
        <time>2020-06-17T08:08:16Z</time>
      </trkpt>
      <trkpt lat="49.33889" lon="-0.60905">
        <ele>41.6</ele>
        <time>2020-06-17T08:08:17Z</time>
      </trkpt>
      <trkpt lat="49.3389" lon="-0.60898">
        <ele>41.3</ele>
        <time>2020-06-17T08:08:18Z</time>
      </trkpt>
      <trkpt lat="49.33891" lon="-0.6089">
        <ele>40.9</ele>
        <time>2020-06-17T08:08:19Z</time>
      </trkpt>
      <trkpt lat="49.33892" lon="-0.60884">
        <ele>40.6</ele>
        <time>2020-06-17T08:08:20Z</time>
      </trkpt>
      <trkpt lat="49.33893" lon="-0.60878">
        <ele>40.3</ele>
        <time>2020-06-17T08:08:21Z</time>
      </trkpt>
      <trkpt lat="49.33894" lon="-0.60871">
        <ele>40</ele>
        <time>2020-06-17T08:08:22Z</time>
      </trkpt>
      <trkpt lat="49.33895" lon="-0.60864">
        <ele>39.6</ele>
        <time>2020-06-17T08:08:23Z</time>
      </trkpt>
      <trkpt lat="49.33896" lon="-0.60857">
        <ele>39.2</ele>
        <time>2020-06-17T08:08:24Z</time>
      </trkpt>
      <trkpt lat="49.33896" lon="-0.60851">
        <ele>38.9</ele>
        <time>2020-06-17T08:08:25Z</time>
      </trkpt>
      <trkpt lat="49.33895" lon="-0.60844">
        <ele>38.5</ele>
        <time>2020-06-17T08:08:26Z</time>
      </trkpt>
      <trkpt lat="49.33894" lon="-0.60837">
        <ele>38.1</ele>
        <time>2020-06-17T08:08:27Z</time>
      </trkpt>
      <trkpt lat="49.33893" lon="-0.60828">
        <ele>37.6</ele>
        <time>2020-06-17T08:08:28Z</time>
      </trkpt>
      <trkpt lat="49.33892" lon="-0.6082">
        <ele>37.2</ele>
        <time>2020-06-17T08:08:29Z</time>
      </trkpt>
      <trkpt lat="49.33892" lon="-0.60811">
        <ele>36.7</ele>
        <time>2020-06-17T08:08:30Z</time>
      </trkpt>
      <trkpt lat="49.33893" lon="-0.608">
        <ele>36.1</ele>
        <time>2020-06-17T08:08:31Z</time>
      </trkpt>
      <trkpt lat="49.33893" lon="-0.60789">
        <ele>35.5</ele>
        <time>2020-06-17T08:08:32Z</time>
      </trkpt>
      <trkpt lat="49.33894" lon="-0.60777">
        <ele>34.9</ele>
        <time>2020-06-17T08:08:33Z</time>
      </trkpt>
      <trkpt lat="49.33893" lon="-0.60764">
        <ele>34.2</ele>
        <time>2020-06-17T08:08:34Z</time>
      </trkpt>
      <trkpt lat="49.33892" lon="-0.60752">
        <ele>33.5</ele>
        <time>2020-06-17T08:08:35Z</time>
      </trkpt>
      <trkpt lat="49.3389" lon="-0.60738">
        <ele>32.7</ele>
        <time>2020-06-17T08:08:36Z</time>
      </trkpt>
      <trkpt lat="49.33887" lon="-0.60723">
        <ele>31.9</ele>
        <time>2020-06-17T08:08:37Z</time>
      </trkpt>
      <trkpt lat="49.33885" lon="-0.60708">
        <ele>31.1</ele>
        <time>2020-06-17T08:08:38Z</time>
      </trkpt>
      <trkpt lat="49.33881" lon="-0.60693">
        <ele>30.2</ele>
        <time>2020-06-17T08:08:39Z</time>
      </trkpt>
      <trkpt lat="49.33877" lon="-0.60677">
        <ele>29.2</ele>
        <time>2020-06-17T08:08:40Z</time>
      </trkpt>
      <trkpt lat="49.33873" lon="-0.60661">
        <ele>28.2</ele>
        <time>2020-06-17T08:08:41Z</time>
      </trkpt>
      <trkpt lat="49.33868" lon="-0.60646">
        <ele>27.3</ele>
        <time>2020-06-17T08:08:42Z</time>
      </trkpt>
      <trkpt lat="49.33863" lon="-0.60631">
        <ele>26.4</ele>
        <time>2020-06-17T08:08:43Z</time>
      </trkpt>
      <trkpt lat="49.33858" lon="-0.60616">
        <ele>25.5</ele>
        <time>2020-06-17T08:08:44Z</time>
      </trkpt>
      <trkpt lat="49.33853" lon="-0.60601">
        <ele>24.6</ele>
        <time>2020-06-17T08:08:45Z</time>
      </trkpt>
      <trkpt lat="49.33849" lon="-0.60586">
        <ele>23.7</ele>
        <time>2020-06-17T08:08:46Z</time>
      </trkpt>
      <trkpt lat="49.33844" lon="-0.60572">
        <ele>22.8</ele>
        <time>2020-06-17T08:08:47Z</time>
      </trkpt>
      <trkpt lat="49.3384" lon="-0.60558">
        <ele>22</ele>
        <time>2020-06-17T08:08:48Z</time>
      </trkpt>
      <trkpt lat="49.33835" lon="-0.60544">
        <ele>21.2</ele>
        <time>2020-06-17T08:08:49Z</time>
      </trkpt>
      <trkpt lat="49.33832" lon="-0.60531">
        <ele>20.4</ele>
        <time>2020-06-17T08:08:50Z</time>
      </trkpt>
      <trkpt lat="49.33828" lon="-0.6052">
        <ele>19.7</ele>
        <time>2020-06-17T08:08:51Z</time>
      </trkpt>
      <trkpt lat="49.33826" lon="-0.60509">
        <ele>19.2</ele>
        <time>2020-06-17T08:08:52Z</time>
      </trkpt>
      <trkpt lat="49.33823" lon="-0.60502">
        <ele>18.8</ele>
        <time>2020-06-17T08:08:53Z</time>
      </trkpt>
      <trkpt lat="49.33821" lon="-0.60495">
        <ele>18.4</ele>
        <time>2020-06-17T08:08:54Z</time>
      </trkpt>
      <trkpt lat="49.3382" lon="-0.60489">
        <ele>18</ele>
        <time>2020-06-17T08:08:55Z</time>
      </trkpt>
      <trkpt lat="49.33819" lon="-0.60485">
        <ele>17.7</ele>
        <time>2020-06-17T08:08:56Z</time>
      </trkpt>
      <trkpt lat="49.33816" lon="-0.60479">
        <ele>17.4</ele>
        <time>2020-06-17T08:08:57Z</time>
      </trkpt>
      <trkpt lat="49.33814" lon="-0.60471">
        <ele>16.9</ele>
        <time>2020-06-17T08:08:58Z</time>
      </trkpt>
      <trkpt lat="49.33812" lon="-0.60462">
        <ele>16.4</ele>
        <time>2020-06-17T08:08:59Z</time>
      </trkpt>
      <trkpt lat="49.3381" lon="-0.60454">
        <ele>15.9</ele>
        <time>2020-06-17T08:09:00Z</time>
      </trkpt>
      <trkpt lat="49.33807" lon="-0.60446">
        <ele>15.4</ele>
        <time>2020-06-17T08:09:01Z</time>
      </trkpt>
      <trkpt lat="49.33804" lon="-0.60437">
        <ele>14.9</ele>
        <time>2020-06-17T08:09:02Z</time>
      </trkpt>
      <trkpt lat="49.33801" lon="-0.60426">
        <ele>14.2</ele>
        <time>2020-06-17T08:09:03Z</time>
      </trkpt>
      <trkpt lat="49.33799" lon="-0.60415">
        <ele>13.5</ele>
        <time>2020-06-17T08:09:04Z</time>
      </trkpt>
      <trkpt lat="49.33796" lon="-0.60403">
        <ele>12.8</ele>
        <time>2020-06-17T08:09:05Z</time>
      </trkpt>
      <trkpt lat="49.33795" lon="-0.6039">
        <ele>12.2</ele>
        <time>2020-06-17T08:09:06Z</time>
      </trkpt>
      <trkpt lat="49.33793" lon="-0.60378">
        <ele>11.5</ele>
        <time>2020-06-17T08:09:07Z</time>
      </trkpt>
      <trkpt lat="49.33791" lon="-0.60365">
        <ele>10.8</ele>
        <time>2020-06-17T08:09:08Z</time>
      </trkpt>
      <trkpt lat="49.33789" lon="-0.6035">
        <ele>10.1</ele>
        <time>2020-06-17T08:09:09Z</time>
      </trkpt>
      <trkpt lat="49.33788" lon="-0.60337">
        <ele>9.5</ele>
        <time>2020-06-17T08:09:10Z</time>
      </trkpt>
      <trkpt lat="49.33786" lon="-0.6032">
        <ele>8.8</ele>
        <time>2020-06-17T08:09:11Z</time>
      </trkpt>
      <trkpt lat="49.33784" lon="-0.60305">
        <ele>8.3</ele>
        <time>2020-06-17T08:09:12Z</time>
      </trkpt>
      <trkpt lat="49.33783" lon="-0.60289">
        <ele>7.7</ele>
        <time>2020-06-17T08:09:13Z</time>
      </trkpt>
      <trkpt lat="49.33781" lon="-0.60274">
        <ele>7.3</ele>
        <time>2020-06-17T08:09:14Z</time>
      </trkpt>
      <trkpt lat="49.3378" lon="-0.60258">
        <ele>6.8</ele>
        <time>2020-06-17T08:09:15Z</time>
      </trkpt>
      <trkpt lat="49.33779" lon="-0.60243">
        <ele>6.5</ele>
        <time>2020-06-17T08:09:16Z</time>
      </trkpt>
      <trkpt lat="49.33779" lon="-0.60228">
        <ele>6.1</ele>
        <time>2020-06-17T08:09:17Z</time>
      </trkpt>
      <trkpt lat="49.33779" lon="-0.60212">
        <ele>5.8</ele>
        <time>2020-06-17T08:09:18Z</time>
      </trkpt>
      <trkpt lat="49.33779" lon="-0.60197">
        <ele>5.5</ele>
        <time>2020-06-17T08:09:19Z</time>
      </trkpt>
      <trkpt lat="49.33779" lon="-0.60182">
        <ele>5.3</ele>
        <time>2020-06-17T08:09:20Z</time>
      </trkpt>
      <trkpt lat="49.3378" lon="-0.60167">
        <ele>5.1</ele>
        <time>2020-06-17T08:09:21Z</time>
      </trkpt>
      <trkpt lat="49.3378" lon="-0.60153">
        <ele>4.9</ele>
        <time>2020-06-17T08:09:22Z</time>
      </trkpt>
      <trkpt lat="49.3378" lon="-0.60139">
        <ele>4.8</ele>
        <time>2020-06-17T08:09:23Z</time>
      </trkpt>
      <trkpt lat="49.3378" lon="-0.60124">
        <ele>4.7</ele>
        <time>2020-06-17T08:09:24Z</time>
      </trkpt>
      <trkpt lat="49.33781" lon="-0.6011">
        <ele>4.6</ele>
        <time>2020-06-17T08:09:25Z</time>
      </trkpt>
      <trkpt lat="49.33782" lon="-0.60099">
        <ele>4.5</ele>
        <time>2020-06-17T08:09:26Z</time>
      </trkpt>
      <trkpt lat="49.33783" lon="-0.60087">
        <ele>4.4</ele>
        <time>2020-06-17T08:09:27Z</time>
      </trkpt>
      <trkpt lat="49.33784" lon="-0.60075">
        <ele>4.4</ele>
        <time>2020-06-17T08:09:28Z</time>
      </trkpt>
      <trkpt lat="49.33785" lon="-0.60064">
        <ele>4.3</ele>
        <time>2020-06-17T08:09:29Z</time>
      </trkpt>
      <trkpt lat="49.33787" lon="-0.60053">
        <ele>4.3</ele>
        <time>2020-06-17T08:09:30Z</time>
      </trkpt>
      <trkpt lat="49.33789" lon="-0.60042">
        <ele>4.2</ele>
        <time>2020-06-17T08:09:31Z</time>
      </trkpt>
      <trkpt lat="49.33791" lon="-0.6003">
        <ele>4.2</ele>
        <time>2020-06-17T08:09:32Z</time>
      </trkpt>
      <trkpt lat="49.33793" lon="-0.60018">
        <ele>4.1</ele>
        <time>2020-06-17T08:09:33Z</time>
      </trkpt>
      <trkpt lat="49.33795" lon="-0.60005">
        <ele>4.1</ele>
        <time>2020-06-17T08:09:34Z</time>
      </trkpt>
      <trkpt lat="49.33798" lon="-0.59993">
        <ele>4.1</ele>
        <time>2020-06-17T08:09:35Z</time>
      </trkpt>
      <trkpt lat="49.338" lon="-0.59981">
        <ele>4</ele>
        <time>2020-06-17T08:09:36Z</time>
      </trkpt>
      <trkpt lat="49.33803" lon="-0.59969">
        <ele>4.1</ele>
        <time>2020-06-17T08:09:37Z</time>
      </trkpt>
      <trkpt lat="49.33805" lon="-0.59958">
        <ele>4.1</ele>
        <time>2020-06-17T08:09:38Z</time>
      </trkpt>
      <trkpt lat="49.33807" lon="-0.59946">
        <ele>4.1</ele>
        <time>2020-06-17T08:09:39Z</time>
      </trkpt>
      <trkpt lat="49.3381" lon="-0.59934">
        <ele>4</ele>
        <time>2020-06-17T08:09:40Z</time>
      </trkpt>
      <trkpt lat="49.33813" lon="-0.59923">
        <ele>4</ele>
        <time>2020-06-17T08:09:41Z</time>
      </trkpt>
      <trkpt lat="49.33816" lon="-0.59913">
        <ele>3.9</ele>
        <time>2020-06-17T08:09:42Z</time>
      </trkpt>
      <trkpt lat="49.33819" lon="-0.59904">
        <ele>3.8</ele>
        <time>2020-06-17T08:09:43Z</time>
      </trkpt>
      <trkpt lat="49.33822" lon="-0.59894">
        <ele>3.8</ele>
        <time>2020-06-17T08:09:44Z</time>
      </trkpt>
      <trkpt lat="49.33825" lon="-0.59884">
        <ele>3.8</ele>
        <time>2020-06-17T08:09:45Z</time>
      </trkpt>
      <trkpt lat="49.33829" lon="-0.59874">
        <ele>3.8</ele>
        <time>2020-06-17T08:09:46Z</time>
      </trkpt>
      <trkpt lat="49.33832" lon="-0.59866">
        <ele>3.8</ele>
        <time>2020-06-17T08:09:47Z</time>
      </trkpt>
      <trkpt lat="49.33836" lon="-0.59856">
        <ele>3.8</ele>
        <time>2020-06-17T08:09:48Z</time>
      </trkpt>
      <trkpt lat="49.33839" lon="-0.59845">
        <ele>3.8</ele>
        <time>2020-06-17T08:09:49Z</time>
      </trkpt>
      <trkpt lat="49.33843" lon="-0.59835">
        <ele>3.9</ele>
        <time>2020-06-17T08:09:50Z</time>
      </trkpt>
      <trkpt lat="49.33846" lon="-0.59825">
        <ele>3.9</ele>
        <time>2020-06-17T08:09:51Z</time>
      </trkpt>
      <trkpt lat="49.3385" lon="-0.59815">
        <ele>3.9</ele>
        <time>2020-06-17T08:09:52Z</time>
      </trkpt>
      <trkpt lat="49.33854" lon="-0.59806">
        <ele>4</ele>
        <time>2020-06-17T08:09:53Z</time>
      </trkpt>
      <trkpt lat="49.33859" lon="-0.59797">
        <ele>4</ele>
        <time>2020-06-17T08:09:54Z</time>
      </trkpt>
      <trkpt lat="49.33862" lon="-0.59789">
        <ele>4.1</ele>
        <time>2020-06-17T08:09:55Z</time>
      </trkpt>
      <trkpt lat="49.33865" lon="-0.5978">
        <ele>4.1</ele>
        <time>2020-06-17T08:09:56Z</time>
      </trkpt>
      <trkpt lat="49.3387" lon="-0.59771">
        <ele>4.2</ele>
        <time>2020-06-17T08:09:57Z</time>
      </trkpt>
      <trkpt lat="49.33874" lon="-0.59762">
        <ele>4.2</ele>
        <time>2020-06-17T08:09:58Z</time>
      </trkpt>
      <trkpt lat="49.33878" lon="-0.59753">
        <ele>4.3</ele>
        <time>2020-06-17T08:09:59Z</time>
      </trkpt>
      <trkpt lat="49.33882" lon="-0.59744">
        <ele>4.3</ele>
        <time>2020-06-17T08:10:00Z</time>
      </trkpt>
      <trkpt lat="49.33886" lon="-0.59736">
        <ele>4.4</ele>
        <time>2020-06-17T08:10:01Z</time>
      </trkpt>
      <trkpt lat="49.3389" lon="-0.59727">
        <ele>4.4</ele>
        <time>2020-06-17T08:10:02Z</time>
      </trkpt>
      <trkpt lat="49.33895" lon="-0.59719">
        <ele>4.4</ele>
        <time>2020-06-17T08:10:03Z</time>
      </trkpt>
      <trkpt lat="49.339" lon="-0.59709">
        <ele>4.4</ele>
        <time>2020-06-17T08:10:04Z</time>
      </trkpt>
      <trkpt lat="49.33904" lon="-0.59701">
        <ele>4.4</ele>
        <time>2020-06-17T08:10:05Z</time>
      </trkpt>
      <trkpt lat="49.33908" lon="-0.59692">
        <ele>4.4</ele>
        <time>2020-06-17T08:10:06Z</time>
      </trkpt>
      <trkpt lat="49.33913" lon="-0.59684">
        <ele>4.4</ele>
        <time>2020-06-17T08:10:07Z</time>
      </trkpt>
      <trkpt lat="49.33917" lon="-0.59675">
        <ele>4.4</ele>
        <time>2020-06-17T08:10:08Z</time>
      </trkpt>
      <trkpt lat="49.33921" lon="-0.59666">
        <ele>4.4</ele>
        <time>2020-06-17T08:10:09Z</time>
      </trkpt>
      <trkpt lat="49.33925" lon="-0.59657">
        <ele>4.5</ele>
        <time>2020-06-17T08:10:10Z</time>
      </trkpt>
      <trkpt lat="49.33928" lon="-0.59648">
        <ele>4.4</ele>
        <time>2020-06-17T08:10:11Z</time>
      </trkpt>
      <trkpt lat="49.33932" lon="-0.59638">
        <ele>4.4</ele>
        <time>2020-06-17T08:10:12Z</time>
      </trkpt>
      <trkpt lat="49.33936" lon="-0.59628">
        <ele>4.4</ele>
        <time>2020-06-17T08:10:13Z</time>
      </trkpt>
      <trkpt lat="49.3394" lon="-0.59619">
        <ele>4.4</ele>
        <time>2020-06-17T08:10:14Z</time>
      </trkpt>
      <trkpt lat="49.33944" lon="-0.5961">
        <ele>4.4</ele>
        <time>2020-06-17T08:10:15Z</time>
      </trkpt>
      <trkpt lat="49.33947" lon="-0.59602">
        <ele>4.4</ele>
        <time>2020-06-17T08:10:16Z</time>
      </trkpt>
      <trkpt lat="49.33951" lon="-0.59595">
        <ele>4.3</ele>
        <time>2020-06-17T08:10:17Z</time>
      </trkpt>
      <trkpt lat="49.33954" lon="-0.59587">
        <ele>4.2</ele>
        <time>2020-06-17T08:10:18Z</time>
      </trkpt>
      <trkpt lat="49.33958" lon="-0.59579">
        <ele>4.1</ele>
        <time>2020-06-17T08:10:19Z</time>
      </trkpt>
      <trkpt lat="49.33962" lon="-0.59571">
        <ele>4.1</ele>
        <time>2020-06-17T08:10:20Z</time>
      </trkpt>
      <trkpt lat="49.33965" lon="-0.59563">
        <ele>4.1</ele>
        <time>2020-06-17T08:10:21Z</time>
      </trkpt>
      <trkpt lat="49.33968" lon="-0.59555">
        <ele>4.1</ele>
        <time>2020-06-17T08:10:22Z</time>
      </trkpt>
      <trkpt lat="49.33971" lon="-0.59547">
        <ele>4.1</ele>
        <time>2020-06-17T08:10:23Z</time>
      </trkpt>
      <trkpt lat="49.33973" lon="-0.59539">
        <ele>4.1</ele>
        <time>2020-06-17T08:10:24Z</time>
      </trkpt>
      <trkpt lat="49.33975" lon="-0.5953">
        <ele>4</ele>
        <time>2020-06-17T08:10:25Z</time>
      </trkpt>
      <trkpt lat="49.33977" lon="-0.59521">
        <ele>4</ele>
        <time>2020-06-17T08:10:26Z</time>
      </trkpt>
      <trkpt lat="49.33979" lon="-0.59513">
        <ele>4</ele>
        <time>2020-06-17T08:10:27Z</time>
      </trkpt>
      <trkpt lat="49.33981" lon="-0.59505">
        <ele>4</ele>
        <time>2020-06-17T08:10:28Z</time>
      </trkpt>
      <trkpt lat="49.33983" lon="-0.59497">
        <ele>4</ele>
        <time>2020-06-17T08:10:29Z</time>
      </trkpt>
      <trkpt lat="49.33984" lon="-0.59488">
        <ele>3.9</ele>
        <time>2020-06-17T08:10:30Z</time>
      </trkpt>
      <trkpt lat="49.33986" lon="-0.59479">
        <ele>3.9</ele>
        <time>2020-06-17T08:10:31Z</time>
      </trkpt>
      <trkpt lat="49.33987" lon="-0.59469">
        <ele>3.9</ele>
        <time>2020-06-17T08:10:32Z</time>
      </trkpt>
      <trkpt lat="49.33988" lon="-0.59461">
        <ele>3.9</ele>
        <time>2020-06-17T08:10:33Z</time>
      </trkpt>
      <trkpt lat="49.3399" lon="-0.59451">
        <ele>3.9</ele>
        <time>2020-06-17T08:10:34Z</time>
      </trkpt>
      <trkpt lat="49.33991" lon="-0.59441">
        <ele>3.9</ele>
        <time>2020-06-17T08:10:35Z</time>
      </trkpt>
      <trkpt lat="49.33993" lon="-0.59432">
        <ele>3.9</ele>
        <time>2020-06-17T08:10:36Z</time>
      </trkpt>
      <trkpt lat="49.33993" lon="-0.59422">
        <ele>3.9</ele>
        <time>2020-06-17T08:10:37Z</time>
      </trkpt>
      <trkpt lat="49.33993" lon="-0.59413">
        <ele>3.9</ele>
        <time>2020-06-17T08:10:38Z</time>
      </trkpt>
      <trkpt lat="49.33993" lon="-0.59404">
        <ele>3.9</ele>
        <time>2020-06-17T08:10:39Z</time>
      </trkpt>
      <trkpt lat="49.33991" lon="-0.59394">
        <ele>3.8</ele>
        <time>2020-06-17T08:10:40Z</time>
      </trkpt>
      <trkpt lat="49.3399" lon="-0.59384">
        <ele>3.8</ele>
        <time>2020-06-17T08:10:41Z</time>
      </trkpt>
      <trkpt lat="49.33988" lon="-0.59374">
        <ele>3.8</ele>
        <time>2020-06-17T08:10:42Z</time>
      </trkpt>
      <trkpt lat="49.33988" lon="-0.59364">
        <ele>3.8</ele>
        <time>2020-06-17T08:10:43Z</time>
      </trkpt>
      <trkpt lat="49.33988" lon="-0.59354">
        <ele>3.8</ele>
        <time>2020-06-17T08:10:44Z</time>
      </trkpt>
      <trkpt lat="49.33988" lon="-0.59343">
        <ele>3.8</ele>
        <time>2020-06-17T08:10:45Z</time>
      </trkpt>
      <trkpt lat="49.33988" lon="-0.59334">
        <ele>3.8</ele>
        <time>2020-06-17T08:10:46Z</time>
      </trkpt>
      <trkpt lat="49.33987" lon="-0.59325">
        <ele>3.8</ele>
        <time>2020-06-17T08:10:47Z</time>
      </trkpt>
      <trkpt lat="49.33987" lon="-0.59316">
        <ele>3.9</ele>
        <time>2020-06-17T08:10:48Z</time>
      </trkpt>
      <trkpt lat="49.33987" lon="-0.59308">
        <ele>3.9</ele>
        <time>2020-06-17T08:10:49Z</time>
      </trkpt>
      <trkpt lat="49.33987" lon="-0.593">
        <ele>3.9</ele>
        <time>2020-06-17T08:10:50Z</time>
      </trkpt>
      <trkpt lat="49.33986" lon="-0.59292">
        <ele>3.9</ele>
        <time>2020-06-17T08:10:51Z</time>
      </trkpt>
      <trkpt lat="49.33986" lon="-0.59283">
        <ele>3.9</ele>
        <time>2020-06-17T08:10:52Z</time>
      </trkpt>
      <trkpt lat="49.33986" lon="-0.59274">
        <ele>3.9</ele>
        <time>2020-06-17T08:10:53Z</time>
      </trkpt>
      <trkpt lat="49.33986" lon="-0.59265">
        <ele>3.9</ele>
        <time>2020-06-17T08:10:54Z</time>
      </trkpt>
      <trkpt lat="49.33987" lon="-0.59256">
        <ele>3.8</ele>
        <time>2020-06-17T08:10:55Z</time>
      </trkpt>
      <trkpt lat="49.33988" lon="-0.59246">
        <ele>3.8</ele>
        <time>2020-06-17T08:10:56Z</time>
      </trkpt>
      <trkpt lat="49.33988" lon="-0.59238">
        <ele>3.8</ele>
        <time>2020-06-17T08:10:57Z</time>
      </trkpt>
      <trkpt lat="49.33989" lon="-0.59229">
        <ele>3.8</ele>
        <time>2020-06-17T08:10:58Z</time>
      </trkpt>
      <trkpt lat="49.33989" lon="-0.59222">
        <ele>3.8</ele>
        <time>2020-06-17T08:10:59Z</time>
      </trkpt>
      <trkpt lat="49.3399" lon="-0.59214">
        <ele>3.8</ele>
        <time>2020-06-17T08:11:00Z</time>
      </trkpt>
      <trkpt lat="49.3399" lon="-0.59203">
        <ele>3.9</ele>
        <time>2020-06-17T08:11:01Z</time>
      </trkpt>
      <trkpt lat="49.33989" lon="-0.59194">
        <ele>3.9</ele>
        <time>2020-06-17T08:11:02Z</time>
      </trkpt>
      <trkpt lat="49.33989" lon="-0.59183">
        <ele>3.9</ele>
        <time>2020-06-17T08:11:03Z</time>
      </trkpt>
      <trkpt lat="49.33988" lon="-0.59173">
        <ele>3.9</ele>
        <time>2020-06-17T08:11:04Z</time>
      </trkpt>
      <trkpt lat="49.33988" lon="-0.59163">
        <ele>3.9</ele>
        <time>2020-06-17T08:11:05Z</time>
      </trkpt>
      <trkpt lat="49.33988" lon="-0.59152">
        <ele>3.9</ele>
        <time>2020-06-17T08:11:06Z</time>
      </trkpt>
      <trkpt lat="49.33989" lon="-0.59141">
        <ele>4</ele>
        <time>2020-06-17T08:11:07Z</time>
      </trkpt>
      <trkpt lat="49.3399" lon="-0.5913">
        <ele>4</ele>
        <time>2020-06-17T08:11:08Z</time>
      </trkpt>
      <trkpt lat="49.3399" lon="-0.59119">
        <ele>4</ele>
        <time>2020-06-17T08:11:09Z</time>
      </trkpt>
      <trkpt lat="49.3399" lon="-0.59107">
        <ele>4.1</ele>
        <time>2020-06-17T08:11:10Z</time>
      </trkpt>
      <trkpt lat="49.33991" lon="-0.59095">
        <ele>4.1</ele>
        <time>2020-06-17T08:11:11Z</time>
      </trkpt>
      <trkpt lat="49.3399" lon="-0.59081">
        <ele>4.1</ele>
        <time>2020-06-17T08:11:12Z</time>
      </trkpt>
      <trkpt lat="49.33989" lon="-0.59068">
        <ele>4.1</ele>
        <time>2020-06-17T08:11:13Z</time>
      </trkpt>
      <trkpt lat="49.33988" lon="-0.59055">
        <ele>4.1</ele>
        <time>2020-06-17T08:11:14Z</time>
      </trkpt>
      <trkpt lat="49.33987" lon="-0.59042">
        <ele>4.2</ele>
        <time>2020-06-17T08:11:15Z</time>
      </trkpt>
      <trkpt lat="49.33988" lon="-0.59031">
        <ele>4.2</ele>
        <time>2020-06-17T08:11:16Z</time>
      </trkpt>
      <trkpt lat="49.33988" lon="-0.59021">
        <ele>4.3</ele>
        <time>2020-06-17T08:11:17Z</time>
      </trkpt>
      <trkpt lat="49.33988" lon="-0.5901">
        <ele>4.4</ele>
        <time>2020-06-17T08:11:18Z</time>
      </trkpt>
      <trkpt lat="49.33989" lon="-0.59">
        <ele>4.4</ele>
        <time>2020-06-17T08:11:19Z</time>
      </trkpt>
      <trkpt lat="49.33989" lon="-0.58989">
        <ele>4.5</ele>
        <time>2020-06-17T08:11:20Z</time>
      </trkpt>
      <trkpt lat="49.33988" lon="-0.58978">
        <ele>4.6</ele>
        <time>2020-06-17T08:11:21Z</time>
      </trkpt>
      <trkpt lat="49.33988" lon="-0.58967">
        <ele>4.7</ele>
        <time>2020-06-17T08:11:22Z</time>
      </trkpt>
      <trkpt lat="49.33987" lon="-0.58957">
        <ele>4.8</ele>
        <time>2020-06-17T08:11:23Z</time>
      </trkpt>
      <trkpt lat="49.33987" lon="-0.58946">
        <ele>4.8</ele>
        <time>2020-06-17T08:11:24Z</time>
      </trkpt>
      <trkpt lat="49.33987" lon="-0.58936">
        <ele>4.9</ele>
        <time>2020-06-17T08:11:25Z</time>
      </trkpt>
      <trkpt lat="49.33986" lon="-0.58926">
        <ele>4.9</ele>
        <time>2020-06-17T08:11:26Z</time>
      </trkpt>
      <trkpt lat="49.33986" lon="-0.58917">
        <ele>4.9</ele>
        <time>2020-06-17T08:11:27Z</time>
      </trkpt>
      <trkpt lat="49.33985" lon="-0.58906">
        <ele>5</ele>
        <time>2020-06-17T08:11:28Z</time>
      </trkpt>
      <trkpt lat="49.33985" lon="-0.58895">
        <ele>5</ele>
        <time>2020-06-17T08:11:29Z</time>
      </trkpt>
      <trkpt lat="49.33986" lon="-0.58884">
        <ele>5</ele>
        <time>2020-06-17T08:11:30Z</time>
      </trkpt>
      <trkpt lat="49.33986" lon="-0.58873">
        <ele>5</ele>
        <time>2020-06-17T08:11:31Z</time>
      </trkpt>
      <trkpt lat="49.33986" lon="-0.58863">
        <ele>5</ele>
        <time>2020-06-17T08:11:32Z</time>
      </trkpt>
      <trkpt lat="49.33986" lon="-0.58851">
        <ele>5</ele>
        <time>2020-06-17T08:11:33Z</time>
      </trkpt>
      <trkpt lat="49.33986" lon="-0.58841">
        <ele>5</ele>
        <time>2020-06-17T08:11:34Z</time>
      </trkpt>
      <trkpt lat="49.33986" lon="-0.58832">
        <ele>4.9</ele>
        <time>2020-06-17T08:11:35Z</time>
      </trkpt>
      <trkpt lat="49.33986" lon="-0.58822">
        <ele>4.9</ele>
        <time>2020-06-17T08:11:36Z</time>
      </trkpt>
      <trkpt lat="49.33985" lon="-0.58813">
        <ele>4.9</ele>
        <time>2020-06-17T08:11:37Z</time>
      </trkpt>
      <trkpt lat="49.33985" lon="-0.58802">
        <ele>4.9</ele>
        <time>2020-06-17T08:11:38Z</time>
      </trkpt>
      <trkpt lat="49.33985" lon="-0.58792">
        <ele>4.8</ele>
        <time>2020-06-17T08:11:39Z</time>
      </trkpt>
      <trkpt lat="49.33983" lon="-0.58781">
        <ele>4.8</ele>
        <time>2020-06-17T08:11:40Z</time>
      </trkpt>
      <trkpt lat="49.33983" lon="-0.5877">
        <ele>4.8</ele>
        <time>2020-06-17T08:11:41Z</time>
      </trkpt>
      <trkpt lat="49.33982" lon="-0.5876">
        <ele>4.8</ele>
        <time>2020-06-17T08:11:42Z</time>
      </trkpt>
      <trkpt lat="49.33982" lon="-0.58749">
        <ele>4.8</ele>
        <time>2020-06-17T08:11:43Z</time>
      </trkpt>
      <trkpt lat="49.33983" lon="-0.58738">
        <ele>4.8</ele>
        <time>2020-06-17T08:11:44Z</time>
      </trkpt>
      <trkpt lat="49.33983" lon="-0.58729">
        <ele>4.7</ele>
        <time>2020-06-17T08:11:45Z</time>
      </trkpt>
      <trkpt lat="49.33983" lon="-0.5872">
        <ele>4.7</ele>
        <time>2020-06-17T08:11:46Z</time>
      </trkpt>
      <trkpt lat="49.33983" lon="-0.58711">
        <ele>4.7</ele>
        <time>2020-06-17T08:11:47Z</time>
      </trkpt>
      <trkpt lat="49.33983" lon="-0.58701">
        <ele>4.7</ele>
        <time>2020-06-17T08:11:48Z</time>
      </trkpt>
      <trkpt lat="49.33983" lon="-0.58692">
        <ele>4.7</ele>
        <time>2020-06-17T08:11:49Z</time>
      </trkpt>
      <trkpt lat="49.33983" lon="-0.58684">
        <ele>4.6</ele>
        <time>2020-06-17T08:11:50Z</time>
      </trkpt>
      <trkpt lat="49.33983" lon="-0.58678">
        <ele>4.6</ele>
        <time>2020-06-17T08:11:51Z</time>
      </trkpt>
      <trkpt lat="49.33983" lon="-0.58671">
        <ele>4.6</ele>
        <time>2020-06-17T08:11:52Z</time>
      </trkpt>
      <trkpt lat="49.33983" lon="-0.58663">
        <ele>4.6</ele>
        <time>2020-06-17T08:11:53Z</time>
      </trkpt>
      <trkpt lat="49.33983" lon="-0.58654">
        <ele>4.5</ele>
        <time>2020-06-17T08:11:54Z</time>
      </trkpt>
      <trkpt lat="49.33982" lon="-0.58645">
        <ele>4.4</ele>
        <time>2020-06-17T08:11:55Z</time>
      </trkpt>
      <trkpt lat="49.33981" lon="-0.58635">
        <ele>4.4</ele>
        <time>2020-06-17T08:11:56Z</time>
      </trkpt>
      <trkpt lat="49.3398" lon="-0.58625">
        <ele>4.3</ele>
        <time>2020-06-17T08:11:57Z</time>
      </trkpt>
      <trkpt lat="49.33977" lon="-0.58613">
        <ele>4.2</ele>
        <time>2020-06-17T08:11:58Z</time>
      </trkpt>
      <trkpt lat="49.33974" lon="-0.58601">
        <ele>4.1</ele>
        <time>2020-06-17T08:11:59Z</time>
      </trkpt>
      <trkpt lat="49.33973" lon="-0.5859">
        <ele>4</ele>
        <time>2020-06-17T08:12:00Z</time>
      </trkpt>
      <trkpt lat="49.33973" lon="-0.58577">
        <ele>3.9</ele>
        <time>2020-06-17T08:12:01Z</time>
      </trkpt>
      <trkpt lat="49.33973" lon="-0.58567">
        <ele>3.9</ele>
        <time>2020-06-17T08:12:02Z</time>
      </trkpt>
      <trkpt lat="49.33973" lon="-0.58558">
        <ele>3.8</ele>
        <time>2020-06-17T08:12:03Z</time>
      </trkpt>
      <trkpt lat="49.33973" lon="-0.58548">
        <ele>3.8</ele>
        <time>2020-06-17T08:12:04Z</time>
      </trkpt>
      <trkpt lat="49.33973" lon="-0.58538">
        <ele>3.7</ele>
        <time>2020-06-17T08:12:05Z</time>
      </trkpt>
      <trkpt lat="49.33972" lon="-0.58528">
        <ele>3.7</ele>
        <time>2020-06-17T08:12:06Z</time>
      </trkpt>
      <trkpt lat="49.33971" lon="-0.58519">
        <ele>3.6</ele>
        <time>2020-06-17T08:12:07Z</time>
      </trkpt>
      <trkpt lat="49.3397" lon="-0.58509">
        <ele>3.5</ele>
        <time>2020-06-17T08:12:08Z</time>
      </trkpt>
      <trkpt lat="49.3397" lon="-0.58497">
        <ele>3.5</ele>
        <time>2020-06-17T08:12:09Z</time>
      </trkpt>
      <trkpt lat="49.33968" lon="-0.58484">
        <ele>3.5</ele>
        <time>2020-06-17T08:12:10Z</time>
      </trkpt>
      <trkpt lat="49.33967" lon="-0.58473">
        <ele>3.4</ele>
        <time>2020-06-17T08:12:11Z</time>
      </trkpt>
      <trkpt lat="49.33965" lon="-0.58463">
        <ele>3.4</ele>
        <time>2020-06-17T08:12:12Z</time>
      </trkpt>
      <trkpt lat="49.33964" lon="-0.58453">
        <ele>3.3</ele>
        <time>2020-06-17T08:12:13Z</time>
      </trkpt>
      <trkpt lat="49.33963" lon="-0.58443">
        <ele>3.3</ele>
        <time>2020-06-17T08:12:14Z</time>
      </trkpt>
      <trkpt lat="49.33962" lon="-0.58432">
        <ele>3.2</ele>
        <time>2020-06-17T08:12:15Z</time>
      </trkpt>
      <trkpt lat="49.33961" lon="-0.58422">
        <ele>3.2</ele>
        <time>2020-06-17T08:12:16Z</time>
      </trkpt>
      <trkpt lat="49.3396" lon="-0.58413">
        <ele>3.2</ele>
        <time>2020-06-17T08:12:17Z</time>
      </trkpt>
      <trkpt lat="49.33959" lon="-0.58402">
        <ele>3.1</ele>
        <time>2020-06-17T08:12:18Z</time>
      </trkpt>
      <trkpt lat="49.33958" lon="-0.58391">
        <ele>3.1</ele>
        <time>2020-06-17T08:12:19Z</time>
      </trkpt>
      <trkpt lat="49.33957" lon="-0.58379">
        <ele>3.1</ele>
        <time>2020-06-17T08:12:20Z</time>
      </trkpt>
      <trkpt lat="49.33956" lon="-0.58367">
        <ele>3</ele>
        <time>2020-06-17T08:12:21Z</time>
      </trkpt>
      <trkpt lat="49.33955" lon="-0.58356">
        <ele>3</ele>
        <time>2020-06-17T08:12:22Z</time>
      </trkpt>
      <trkpt lat="49.33954" lon="-0.58345">
        <ele>2.9</ele>
        <time>2020-06-17T08:12:23Z</time>
      </trkpt>
      <trkpt lat="49.33953" lon="-0.58335">
        <ele>2.9</ele>
        <time>2020-06-17T08:12:24Z</time>
      </trkpt>
      <trkpt lat="49.33952" lon="-0.58324">
        <ele>2.8</ele>
        <time>2020-06-17T08:12:25Z</time>
      </trkpt>
      <trkpt lat="49.33951" lon="-0.58313">
        <ele>2.8</ele>
        <time>2020-06-17T08:12:26Z</time>
      </trkpt>
      <trkpt lat="49.3395" lon="-0.58301">
        <ele>2.9</ele>
        <time>2020-06-17T08:12:27Z</time>
      </trkpt>
      <trkpt lat="49.3395" lon="-0.5829">
        <ele>3</ele>
        <time>2020-06-17T08:12:28Z</time>
      </trkpt>
      <trkpt lat="49.33949" lon="-0.58279">
        <ele>3</ele>
        <time>2020-06-17T08:12:29Z</time>
      </trkpt>
      <trkpt lat="49.33947" lon="-0.58268">
        <ele>2.9</ele>
        <time>2020-06-17T08:12:30Z</time>
      </trkpt>
      <trkpt lat="49.33946" lon="-0.58258">
        <ele>2.8</ele>
        <time>2020-06-17T08:12:31Z</time>
      </trkpt>
      <trkpt lat="49.33945" lon="-0.58247">
        <ele>2.7</ele>
        <time>2020-06-17T08:12:32Z</time>
      </trkpt>
      <trkpt lat="49.33944" lon="-0.58236">
        <ele>2.7</ele>
        <time>2020-06-17T08:12:33Z</time>
      </trkpt>
      <trkpt lat="49.33944" lon="-0.58226">
        <ele>2.7</ele>
        <time>2020-06-17T08:12:34Z</time>
      </trkpt>
      <trkpt lat="49.33943" lon="-0.58217">
        <ele>2.7</ele>
        <time>2020-06-17T08:12:35Z</time>
      </trkpt>
      <trkpt lat="49.33942" lon="-0.58207">
        <ele>2.7</ele>
        <time>2020-06-17T08:12:36Z</time>
      </trkpt>
      <trkpt lat="49.33941" lon="-0.58196">
        <ele>2.7</ele>
        <time>2020-06-17T08:12:37Z</time>
      </trkpt>
      <trkpt lat="49.3394" lon="-0.58186">
        <ele>2.7</ele>
        <time>2020-06-17T08:12:38Z</time>
      </trkpt>
      <trkpt lat="49.33939" lon="-0.58176">
        <ele>2.7</ele>
        <time>2020-06-17T08:12:39Z</time>
      </trkpt>
      <trkpt lat="49.33938" lon="-0.58165">
        <ele>2.7</ele>
        <time>2020-06-17T08:12:40Z</time>
      </trkpt>
      <trkpt lat="49.33936" lon="-0.58154">
        <ele>2.8</ele>
        <time>2020-06-17T08:12:41Z</time>
      </trkpt>
      <trkpt lat="49.33935" lon="-0.58144">
        <ele>2.8</ele>
        <time>2020-06-17T08:12:42Z</time>
      </trkpt>
      <trkpt lat="49.33934" lon="-0.58134">
        <ele>2.8</ele>
        <time>2020-06-17T08:12:43Z</time>
      </trkpt>
      <trkpt lat="49.33932" lon="-0.58123">
        <ele>2.9</ele>
        <time>2020-06-17T08:12:44Z</time>
      </trkpt>
      <trkpt lat="49.33931" lon="-0.58113">
        <ele>2.9</ele>
        <time>2020-06-17T08:12:45Z</time>
      </trkpt>
      <trkpt lat="49.3393" lon="-0.58104">
        <ele>2.9</ele>
        <time>2020-06-17T08:12:46Z</time>
      </trkpt>
      <trkpt lat="49.33928" lon="-0.58095">
        <ele>2.9</ele>
        <time>2020-06-17T08:12:47Z</time>
      </trkpt>
      <trkpt lat="49.33927" lon="-0.58086">
        <ele>3</ele>
        <time>2020-06-17T08:12:48Z</time>
      </trkpt>
      <trkpt lat="49.33926" lon="-0.58078">
        <ele>3</ele>
        <time>2020-06-17T08:12:49Z</time>
      </trkpt>
      <trkpt lat="49.33925" lon="-0.58069">
        <ele>3.1</ele>
        <time>2020-06-17T08:12:50Z</time>
      </trkpt>
      <trkpt lat="49.33925" lon="-0.58061">
        <ele>3.1</ele>
        <time>2020-06-17T08:12:51Z</time>
      </trkpt>
      <trkpt lat="49.33924" lon="-0.58052">
        <ele>3.2</ele>
        <time>2020-06-17T08:12:52Z</time>
      </trkpt>
      <trkpt lat="49.33924" lon="-0.58042">
        <ele>3.3</ele>
        <time>2020-06-17T08:12:53Z</time>
      </trkpt>
      <trkpt lat="49.33923" lon="-0.58032">
        <ele>3.3</ele>
        <time>2020-06-17T08:12:54Z</time>
      </trkpt>
      <trkpt lat="49.33922" lon="-0.58023">
        <ele>3.4</ele>
        <time>2020-06-17T08:12:55Z</time>
      </trkpt>
      <trkpt lat="49.33922" lon="-0.58015">
        <ele>3.4</ele>
        <time>2020-06-17T08:12:56Z</time>
      </trkpt>
      <trkpt lat="49.33922" lon="-0.58005">
        <ele>3.4</ele>
        <time>2020-06-17T08:12:57Z</time>
      </trkpt>
      <trkpt lat="49.33921" lon="-0.57995">
        <ele>3.5</ele>
        <time>2020-06-17T08:12:58Z</time>
      </trkpt>
      <trkpt lat="49.33921" lon="-0.57986">
        <ele>3.6</ele>
        <time>2020-06-17T08:12:59Z</time>
      </trkpt>
      <trkpt lat="49.3392" lon="-0.57977">
        <ele>3.7</ele>
        <time>2020-06-17T08:13:00Z</time>
      </trkpt>
      <trkpt lat="49.3392" lon="-0.57969">
        <ele>3.7</ele>
        <time>2020-06-17T08:13:01Z</time>
      </trkpt>
      <trkpt lat="49.33919" lon="-0.5796">
        <ele>3.8</ele>
        <time>2020-06-17T08:13:02Z</time>
      </trkpt>
      <trkpt lat="49.33918" lon="-0.57951">
        <ele>3.8</ele>
        <time>2020-06-17T08:13:03Z</time>
      </trkpt>
      <trkpt lat="49.33916" lon="-0.57942">
        <ele>3.9</ele>
        <time>2020-06-17T08:13:04Z</time>
      </trkpt>
      <trkpt lat="49.33914" lon="-0.5793">
        <ele>3.9</ele>
        <time>2020-06-17T08:13:05Z</time>
      </trkpt>
      <trkpt lat="49.33912" lon="-0.57918">
        <ele>3.9</ele>
        <time>2020-06-17T08:13:06Z</time>
      </trkpt>
      <trkpt lat="49.3391" lon="-0.57909">
        <ele>3.9</ele>
        <time>2020-06-17T08:13:07Z</time>
      </trkpt>
      <trkpt lat="49.33909" lon="-0.57901">
        <ele>3.9</ele>
        <time>2020-06-17T08:13:08Z</time>
      </trkpt>
      <trkpt lat="49.33907" lon="-0.57891">
        <ele>3.9</ele>
        <time>2020-06-17T08:13:09Z</time>
      </trkpt>
      <trkpt lat="49.33906" lon="-0.57881">
        <ele>4</ele>
        <time>2020-06-17T08:13:10Z</time>
      </trkpt>
      <trkpt lat="49.33904" lon="-0.57868">
        <ele>4</ele>
        <time>2020-06-17T08:13:11Z</time>
      </trkpt>
      <trkpt lat="49.33902" lon="-0.57858">
        <ele>4</ele>
        <time>2020-06-17T08:13:12Z</time>
      </trkpt>
      <trkpt lat="49.33902" lon="-0.57848">
        <ele>4.1</ele>
        <time>2020-06-17T08:13:13Z</time>
      </trkpt>
      <trkpt lat="49.33902" lon="-0.57838">
        <ele>4.1</ele>
        <time>2020-06-17T08:13:14Z</time>
      </trkpt>
      <trkpt lat="49.33901" lon="-0.57828">
        <ele>4.1</ele>
        <time>2020-06-17T08:13:15Z</time>
      </trkpt>
      <trkpt lat="49.339" lon="-0.57817">
        <ele>4.1</ele>
        <time>2020-06-17T08:13:16Z</time>
      </trkpt>
      <trkpt lat="49.33899" lon="-0.57809">
        <ele>4.1</ele>
        <time>2020-06-17T08:13:17Z</time>
      </trkpt>
      <trkpt lat="49.33899" lon="-0.578">
        <ele>4.1</ele>
        <time>2020-06-17T08:13:18Z</time>
      </trkpt>
      <trkpt lat="49.33899" lon="-0.5779">
        <ele>4.2</ele>
        <time>2020-06-17T08:13:19Z</time>
      </trkpt>
      <trkpt lat="49.33897" lon="-0.5778">
        <ele>4.2</ele>
        <time>2020-06-17T08:13:20Z</time>
      </trkpt>
      <trkpt lat="49.33897" lon="-0.5777">
        <ele>4.2</ele>
        <time>2020-06-17T08:13:21Z</time>
      </trkpt>
      <trkpt lat="49.33896" lon="-0.5776">
        <ele>4.3</ele>
        <time>2020-06-17T08:13:22Z</time>
      </trkpt>
      <trkpt lat="49.33895" lon="-0.5775">
        <ele>4.3</ele>
        <time>2020-06-17T08:13:23Z</time>
      </trkpt>
      <trkpt lat="49.33895" lon="-0.57741">
        <ele>4.4</ele>
        <time>2020-06-17T08:13:24Z</time>
      </trkpt>
      <trkpt lat="49.33894" lon="-0.57731">
        <ele>4.4</ele>
        <time>2020-06-17T08:13:25Z</time>
      </trkpt>
      <trkpt lat="49.33894" lon="-0.57723">
        <ele>4.4</ele>
        <time>2020-06-17T08:13:26Z</time>
      </trkpt>
      <trkpt lat="49.33894" lon="-0.57713">
        <ele>4.5</ele>
        <time>2020-06-17T08:13:27Z</time>
      </trkpt>
      <trkpt lat="49.33893" lon="-0.57702">
        <ele>4.6</ele>
        <time>2020-06-17T08:13:28Z</time>
      </trkpt>
      <trkpt lat="49.33894" lon="-0.57691">
        <ele>4.6</ele>
        <time>2020-06-17T08:13:29Z</time>
      </trkpt>
      <trkpt lat="49.33894" lon="-0.57681">
        <ele>4.7</ele>
        <time>2020-06-17T08:13:30Z</time>
      </trkpt>
      <trkpt lat="49.33894" lon="-0.57672">
        <ele>4.7</ele>
        <time>2020-06-17T08:13:31Z</time>
      </trkpt>
      <trkpt lat="49.33893" lon="-0.57662">
        <ele>4.7</ele>
        <time>2020-06-17T08:13:32Z</time>
      </trkpt>
      <trkpt lat="49.33892" lon="-0.57652">
        <ele>4.8</ele>
        <time>2020-06-17T08:13:33Z</time>
      </trkpt>
      <trkpt lat="49.33891" lon="-0.57642">
        <ele>4.8</ele>
        <time>2020-06-17T08:13:34Z</time>
      </trkpt>
      <trkpt lat="49.33891" lon="-0.57632">
        <ele>4.9</ele>
        <time>2020-06-17T08:13:35Z</time>
      </trkpt>
      <trkpt lat="49.33891" lon="-0.57622">
        <ele>4.9</ele>
        <time>2020-06-17T08:13:36Z</time>
      </trkpt>
      <trkpt lat="49.33891" lon="-0.57611">
        <ele>4.9</ele>
        <time>2020-06-17T08:13:37Z</time>
      </trkpt>
      <trkpt lat="49.3389" lon="-0.57602">
        <ele>4.9</ele>
        <time>2020-06-17T08:13:38Z</time>
      </trkpt>
      <trkpt lat="49.33889" lon="-0.57595">
        <ele>5</ele>
        <time>2020-06-17T08:13:39Z</time>
      </trkpt>
      <trkpt lat="49.33888" lon="-0.57586">
        <ele>5</ele>
        <time>2020-06-17T08:13:40Z</time>
      </trkpt>
      <trkpt lat="49.33886" lon="-0.57576">
        <ele>5</ele>
        <time>2020-06-17T08:13:41Z</time>
      </trkpt>
      <trkpt lat="49.33885" lon="-0.57565">
        <ele>5.1</ele>
        <time>2020-06-17T08:13:42Z</time>
      </trkpt>
      <trkpt lat="49.33884" lon="-0.57556">
        <ele>5.1</ele>
        <time>2020-06-17T08:13:43Z</time>
      </trkpt>
      <trkpt lat="49.33883" lon="-0.57545">
        <ele>5.1</ele>
        <time>2020-06-17T08:13:44Z</time>
      </trkpt>
      <trkpt lat="49.33882" lon="-0.57535">
        <ele>5.2</ele>
        <time>2020-06-17T08:13:45Z</time>
      </trkpt>
      <trkpt lat="49.33881" lon="-0.57525">
        <ele>5.2</ele>
        <time>2020-06-17T08:13:46Z</time>
      </trkpt>
      <trkpt lat="49.33879" lon="-0.57516">
        <ele>5.3</ele>
        <time>2020-06-17T08:13:47Z</time>
      </trkpt>
      <trkpt lat="49.33876" lon="-0.57506">
        <ele>5.3</ele>
        <time>2020-06-17T08:13:48Z</time>
      </trkpt>
      <trkpt lat="49.33875" lon="-0.57496">
        <ele>5.3</ele>
        <time>2020-06-17T08:13:49Z</time>
      </trkpt>
      <trkpt lat="49.33874" lon="-0.57487">
        <ele>5.3</ele>
        <time>2020-06-17T08:13:50Z</time>
      </trkpt>
      <trkpt lat="49.33873" lon="-0.57476">
        <ele>5.3</ele>
        <time>2020-06-17T08:13:51Z</time>
      </trkpt>
      <trkpt lat="49.33873" lon="-0.57466">
        <ele>5.2</ele>
        <time>2020-06-17T08:13:52Z</time>
      </trkpt>
      <trkpt lat="49.33872" lon="-0.57457">
        <ele>5.2</ele>
        <time>2020-06-17T08:13:53Z</time>
      </trkpt>
      <trkpt lat="49.33873" lon="-0.57445">
        <ele>5.2</ele>
        <time>2020-06-17T08:13:54Z</time>
      </trkpt>
      <trkpt lat="49.33874" lon="-0.57435">
        <ele>5.2</ele>
        <time>2020-06-17T08:13:55Z</time>
      </trkpt>
      <trkpt lat="49.33874" lon="-0.57426">
        <ele>5.2</ele>
        <time>2020-06-17T08:13:56Z</time>
      </trkpt>
      <trkpt lat="49.33875" lon="-0.57415">
        <ele>5.2</ele>
        <time>2020-06-17T08:13:57Z</time>
      </trkpt>
      <trkpt lat="49.33874" lon="-0.57404">
        <ele>5.2</ele>
        <time>2020-06-17T08:13:58Z</time>
      </trkpt>
      <trkpt lat="49.33873" lon="-0.57393">
        <ele>5.1</ele>
        <time>2020-06-17T08:13:59Z</time>
      </trkpt>
      <trkpt lat="49.33872" lon="-0.57383">
        <ele>5.1</ele>
        <time>2020-06-17T08:14:00Z</time>
      </trkpt>
      <trkpt lat="49.3387" lon="-0.57371">
        <ele>5</ele>
        <time>2020-06-17T08:14:01Z</time>
      </trkpt>
      <trkpt lat="49.33868" lon="-0.57359">
        <ele>5</ele>
        <time>2020-06-17T08:14:02Z</time>
      </trkpt>
      <trkpt lat="49.33866" lon="-0.57348">
        <ele>5</ele>
        <time>2020-06-17T08:14:03Z</time>
      </trkpt>
      <trkpt lat="49.33865" lon="-0.57338">
        <ele>4.9</ele>
        <time>2020-06-17T08:14:04Z</time>
      </trkpt>
      <trkpt lat="49.33863" lon="-0.5733">
        <ele>4.9</ele>
        <time>2020-06-17T08:14:05Z</time>
      </trkpt>
      <trkpt lat="49.3386" lon="-0.57316">
        <ele>4.8</ele>
        <time>2020-06-17T08:14:06Z</time>
      </trkpt>
      <trkpt lat="49.33858" lon="-0.57303">
        <ele>4.7</ele>
        <time>2020-06-17T08:14:07Z</time>
      </trkpt>
      <trkpt lat="49.33857" lon="-0.5729">
        <ele>4.7</ele>
        <time>2020-06-17T08:14:08Z</time>
      </trkpt>
      <trkpt lat="49.33855" lon="-0.57278">
        <ele>4.6</ele>
        <time>2020-06-17T08:14:09Z</time>
      </trkpt>
      <trkpt lat="49.33854" lon="-0.57268">
        <ele>4.6</ele>
        <time>2020-06-17T08:14:10Z</time>
      </trkpt>
      <trkpt lat="49.33852" lon="-0.57259">
        <ele>4.6</ele>
        <time>2020-06-17T08:14:11Z</time>
      </trkpt>
      <trkpt lat="49.3385" lon="-0.57246">
        <ele>4.6</ele>
        <time>2020-06-17T08:14:12Z</time>
      </trkpt>
      <trkpt lat="49.33849" lon="-0.57234">
        <ele>4.6</ele>
        <time>2020-06-17T08:14:13Z</time>
      </trkpt>
      <trkpt lat="49.33848" lon="-0.57223">
        <ele>4.5</ele>
        <time>2020-06-17T08:14:14Z</time>
      </trkpt>
      <trkpt lat="49.33847" lon="-0.57212">
        <ele>4.5</ele>
        <time>2020-06-17T08:14:15Z</time>
      </trkpt>
      <trkpt lat="49.33845" lon="-0.57201">
        <ele>4.5</ele>
        <time>2020-06-17T08:14:16Z</time>
      </trkpt>
      <trkpt lat="49.33844" lon="-0.57189">
        <ele>4.4</ele>
        <time>2020-06-17T08:14:17Z</time>
      </trkpt>
      <trkpt lat="49.33842" lon="-0.57176">
        <ele>4.4</ele>
        <time>2020-06-17T08:14:18Z</time>
      </trkpt>
      <trkpt lat="49.33841" lon="-0.57163">
        <ele>4.3</ele>
        <time>2020-06-17T08:14:19Z</time>
      </trkpt>
      <trkpt lat="49.33839" lon="-0.57149">
        <ele>4.2</ele>
        <time>2020-06-17T08:14:20Z</time>
      </trkpt>
      <trkpt lat="49.33837" lon="-0.57135">
        <ele>4.1</ele>
        <time>2020-06-17T08:14:21Z</time>
      </trkpt>
      <trkpt lat="49.33835" lon="-0.57122">
        <ele>4</ele>
        <time>2020-06-17T08:14:22Z</time>
      </trkpt>
      <trkpt lat="49.33833" lon="-0.57108">
        <ele>3.9</ele>
        <time>2020-06-17T08:14:23Z</time>
      </trkpt>
      <trkpt lat="49.3383" lon="-0.57096">
        <ele>3.8</ele>
        <time>2020-06-17T08:14:24Z</time>
      </trkpt>
      <trkpt lat="49.33828" lon="-0.57084">
        <ele>3.7</ele>
        <time>2020-06-17T08:14:25Z</time>
      </trkpt>
      <trkpt lat="49.33827" lon="-0.57072">
        <ele>3.7</ele>
        <time>2020-06-17T08:14:26Z</time>
      </trkpt>
      <trkpt lat="49.33825" lon="-0.5706">
        <ele>3.7</ele>
        <time>2020-06-17T08:14:27Z</time>
      </trkpt>
      <trkpt lat="49.33823" lon="-0.57048">
        <ele>3.7</ele>
        <time>2020-06-17T08:14:28Z</time>
      </trkpt>
      <trkpt lat="49.33823" lon="-0.57036">
        <ele>3.7</ele>
        <time>2020-06-17T08:14:29Z</time>
      </trkpt>
      <trkpt lat="49.33822" lon="-0.57023">
        <ele>3.8</ele>
        <time>2020-06-17T08:14:30Z</time>
      </trkpt>
      <trkpt lat="49.33822" lon="-0.57012">
        <ele>3.8</ele>
        <time>2020-06-17T08:14:31Z</time>
      </trkpt>
      <trkpt lat="49.33821" lon="-0.57003">
        <ele>3.9</ele>
        <time>2020-06-17T08:14:32Z</time>
      </trkpt>
      <trkpt lat="49.33821" lon="-0.56993">
        <ele>3.9</ele>
        <time>2020-06-17T08:14:33Z</time>
      </trkpt>
      <trkpt lat="49.3382" lon="-0.56983">
        <ele>3.9</ele>
        <time>2020-06-17T08:14:34Z</time>
      </trkpt>
      <trkpt lat="49.33819" lon="-0.56973">
        <ele>3.9</ele>
        <time>2020-06-17T08:14:35Z</time>
      </trkpt>
      <trkpt lat="49.33819" lon="-0.56963">
        <ele>3.8</ele>
        <time>2020-06-17T08:14:36Z</time>
      </trkpt>
      <trkpt lat="49.33817" lon="-0.56951">
        <ele>3.7</ele>
        <time>2020-06-17T08:14:37Z</time>
      </trkpt>
      <trkpt lat="49.33816" lon="-0.5694">
        <ele>3.7</ele>
        <time>2020-06-17T08:14:38Z</time>
      </trkpt>
      <trkpt lat="49.33815" lon="-0.56927">
        <ele>3.7</ele>
        <time>2020-06-17T08:14:39Z</time>
      </trkpt>
      <trkpt lat="49.33813" lon="-0.56914">
        <ele>3.7</ele>
        <time>2020-06-17T08:14:40Z</time>
      </trkpt>
      <trkpt lat="49.33811" lon="-0.56901">
        <ele>3.8</ele>
        <time>2020-06-17T08:14:41Z</time>
      </trkpt>
      <trkpt lat="49.33809" lon="-0.56891">
        <ele>3.8</ele>
        <time>2020-06-17T08:14:42Z</time>
      </trkpt>
      <trkpt lat="49.33809" lon="-0.56881">
        <ele>3.8</ele>
        <time>2020-06-17T08:14:43Z</time>
      </trkpt>
      <trkpt lat="49.33808" lon="-0.56871">
        <ele>3.8</ele>
        <time>2020-06-17T08:14:44Z</time>
      </trkpt>
      <trkpt lat="49.33808" lon="-0.56861">
        <ele>3.8</ele>
        <time>2020-06-17T08:14:45Z</time>
      </trkpt>
      <trkpt lat="49.33807" lon="-0.5685">
        <ele>3.8</ele>
        <time>2020-06-17T08:14:46Z</time>
      </trkpt>
      <trkpt lat="49.33805" lon="-0.5684">
        <ele>3.8</ele>
        <time>2020-06-17T08:14:47Z</time>
      </trkpt>
      <trkpt lat="49.33804" lon="-0.56831">
        <ele>3.8</ele>
        <time>2020-06-17T08:14:48Z</time>
      </trkpt>
      <trkpt lat="49.33804" lon="-0.5682">
        <ele>3.8</ele>
        <time>2020-06-17T08:14:49Z</time>
      </trkpt>
      <trkpt lat="49.33803" lon="-0.5681">
        <ele>3.8</ele>
        <time>2020-06-17T08:14:50Z</time>
      </trkpt>
      <trkpt lat="49.33801" lon="-0.56799">
        <ele>3.8</ele>
        <time>2020-06-17T08:14:51Z</time>
      </trkpt>
      <trkpt lat="49.338" lon="-0.56791">
        <ele>3.8</ele>
        <time>2020-06-17T08:14:52Z</time>
      </trkpt>
      <trkpt lat="49.338" lon="-0.56783">
        <ele>3.8</ele>
        <time>2020-06-17T08:14:53Z</time>
      </trkpt>
      <trkpt lat="49.338" lon="-0.56775">
        <ele>3.8</ele>
        <time>2020-06-17T08:14:54Z</time>
      </trkpt>
      <trkpt lat="49.338" lon="-0.56767">
        <ele>3.8</ele>
        <time>2020-06-17T08:14:55Z</time>
      </trkpt>
      <trkpt lat="49.33801" lon="-0.56758">
        <ele>3.8</ele>
        <time>2020-06-17T08:14:56Z</time>
      </trkpt>
      <trkpt lat="49.33801" lon="-0.56747">
        <ele>3.8</ele>
        <time>2020-06-17T08:14:57Z</time>
      </trkpt>
      <trkpt lat="49.33801" lon="-0.56735">
        <ele>3.9</ele>
        <time>2020-06-17T08:14:58Z</time>
      </trkpt>
      <trkpt lat="49.338" lon="-0.56725">
        <ele>3.9</ele>
        <time>2020-06-17T08:14:59Z</time>
      </trkpt>
      <trkpt lat="49.33799" lon="-0.56715">
        <ele>3.9</ele>
        <time>2020-06-17T08:15:00Z</time>
      </trkpt>
      <trkpt lat="49.33798" lon="-0.56706">
        <ele>3.9</ele>
        <time>2020-06-17T08:15:01Z</time>
      </trkpt>
      <trkpt lat="49.33798" lon="-0.56697">
        <ele>3.9</ele>
        <time>2020-06-17T08:15:02Z</time>
      </trkpt>
      <trkpt lat="49.33798" lon="-0.56686">
        <ele>3.9</ele>
        <time>2020-06-17T08:15:03Z</time>
      </trkpt>
      <trkpt lat="49.33798" lon="-0.56677">
        <ele>3.9</ele>
        <time>2020-06-17T08:15:04Z</time>
      </trkpt>
      <trkpt lat="49.33798" lon="-0.56669">
        <ele>3.9</ele>
        <time>2020-06-17T08:15:05Z</time>
      </trkpt>
      <trkpt lat="49.33799" lon="-0.5666">
        <ele>4</ele>
        <time>2020-06-17T08:15:06Z</time>
      </trkpt>
      <trkpt lat="49.33798" lon="-0.56649">
        <ele>4</ele>
        <time>2020-06-17T08:15:07Z</time>
      </trkpt>
      <trkpt lat="49.33796" lon="-0.56637">
        <ele>4.1</ele>
        <time>2020-06-17T08:15:08Z</time>
      </trkpt>
      <trkpt lat="49.33795" lon="-0.56625">
        <ele>4.1</ele>
        <time>2020-06-17T08:15:09Z</time>
      </trkpt>
      <trkpt lat="49.33794" lon="-0.56614">
        <ele>4.2</ele>
        <time>2020-06-17T08:15:10Z</time>
      </trkpt>
      <trkpt lat="49.33793" lon="-0.56602">
        <ele>4.3</ele>
        <time>2020-06-17T08:15:11Z</time>
      </trkpt>
      <trkpt lat="49.33791" lon="-0.5659">
        <ele>4.5</ele>
        <time>2020-06-17T08:15:12Z</time>
      </trkpt>
      <trkpt lat="49.3379" lon="-0.56579">
        <ele>4.5</ele>
        <time>2020-06-17T08:15:13Z</time>
      </trkpt>
      <trkpt lat="49.33789" lon="-0.56567">
        <ele>4.6</ele>
        <time>2020-06-17T08:15:14Z</time>
      </trkpt>
      <trkpt lat="49.33789" lon="-0.56557">
        <ele>4.6</ele>
        <time>2020-06-17T08:15:15Z</time>
      </trkpt>
      <trkpt lat="49.3379" lon="-0.56546">
        <ele>4.6</ele>
        <time>2020-06-17T08:15:16Z</time>
      </trkpt>
      <trkpt lat="49.33789" lon="-0.56535">
        <ele>4.6</ele>
        <time>2020-06-17T08:15:17Z</time>
      </trkpt>
      <trkpt lat="49.33788" lon="-0.56523">
        <ele>4.6</ele>
        <time>2020-06-17T08:15:18Z</time>
      </trkpt>
      <trkpt lat="49.33788" lon="-0.56512">
        <ele>4.6</ele>
        <time>2020-06-17T08:15:19Z</time>
      </trkpt>
      <trkpt lat="49.33788" lon="-0.56501">
        <ele>4.6</ele>
        <time>2020-06-17T08:15:20Z</time>
      </trkpt>
      <trkpt lat="49.33788" lon="-0.56489">
        <ele>4.6</ele>
        <time>2020-06-17T08:15:21Z</time>
      </trkpt>
      <trkpt lat="49.33789" lon="-0.56477">
        <ele>4.5</ele>
        <time>2020-06-17T08:15:22Z</time>
      </trkpt>
      <trkpt lat="49.33789" lon="-0.56466">
        <ele>4.5</ele>
        <time>2020-06-17T08:15:23Z</time>
      </trkpt>
      <trkpt lat="49.33789" lon="-0.56456">
        <ele>4.5</ele>
        <time>2020-06-17T08:15:24Z</time>
      </trkpt>
      <trkpt lat="49.33788" lon="-0.56447">
        <ele>4.5</ele>
        <time>2020-06-17T08:15:25Z</time>
      </trkpt>
      <trkpt lat="49.33788" lon="-0.56437">
        <ele>4.5</ele>
        <time>2020-06-17T08:15:26Z</time>
      </trkpt>
      <trkpt lat="49.33787" lon="-0.56426">
        <ele>4.5</ele>
        <time>2020-06-17T08:15:27Z</time>
      </trkpt>
      <trkpt lat="49.33787" lon="-0.56416">
        <ele>4.5</ele>
        <time>2020-06-17T08:15:28Z</time>
      </trkpt>
      <trkpt lat="49.33787" lon="-0.56405">
        <ele>4.6</ele>
        <time>2020-06-17T08:15:29Z</time>
      </trkpt>
      <trkpt lat="49.33788" lon="-0.56395">
        <ele>4.6</ele>
        <time>2020-06-17T08:15:30Z</time>
      </trkpt>
      <trkpt lat="49.33789" lon="-0.56385">
        <ele>4.7</ele>
        <time>2020-06-17T08:15:31Z</time>
      </trkpt>
      <trkpt lat="49.33788" lon="-0.56375">
        <ele>4.7</ele>
        <time>2020-06-17T08:15:32Z</time>
      </trkpt>
      <trkpt lat="49.33788" lon="-0.56364">
        <ele>4.7</ele>
        <time>2020-06-17T08:15:33Z</time>
      </trkpt>
      <trkpt lat="49.33788" lon="-0.56355">
        <ele>4.7</ele>
        <time>2020-06-17T08:15:34Z</time>
      </trkpt>
      <trkpt lat="49.33788" lon="-0.56344">
        <ele>4.7</ele>
        <time>2020-06-17T08:15:35Z</time>
      </trkpt>
      <trkpt lat="49.33789" lon="-0.56334">
        <ele>4.7</ele>
        <time>2020-06-17T08:15:36Z</time>
      </trkpt>
      <trkpt lat="49.3379" lon="-0.56323">
        <ele>4.8</ele>
        <time>2020-06-17T08:15:37Z</time>
      </trkpt>
      <trkpt lat="49.3379" lon="-0.56313">
        <ele>4.8</ele>
        <time>2020-06-17T08:15:38Z</time>
      </trkpt>
      <trkpt lat="49.3379" lon="-0.56303">
        <ele>4.8</ele>
        <time>2020-06-17T08:15:39Z</time>
      </trkpt>
      <trkpt lat="49.33789" lon="-0.56292">
        <ele>4.8</ele>
        <time>2020-06-17T08:15:40Z</time>
      </trkpt>
      <trkpt lat="49.3379" lon="-0.56279">
        <ele>4.8</ele>
        <time>2020-06-17T08:15:41Z</time>
      </trkpt>
      <trkpt lat="49.3379" lon="-0.56267">
        <ele>4.8</ele>
        <time>2020-06-17T08:15:42Z</time>
      </trkpt>
      <trkpt lat="49.33791" lon="-0.56258">
        <ele>4.8</ele>
        <time>2020-06-17T08:15:43Z</time>
      </trkpt>
      <trkpt lat="49.33791" lon="-0.56248">
        <ele>4.8</ele>
        <time>2020-06-17T08:15:44Z</time>
      </trkpt>
      <trkpt lat="49.33792" lon="-0.56238">
        <ele>4.8</ele>
        <time>2020-06-17T08:15:45Z</time>
      </trkpt>
      <trkpt lat="49.33792" lon="-0.56229">
        <ele>4.9</ele>
        <time>2020-06-17T08:15:46Z</time>
      </trkpt>
      <trkpt lat="49.33792" lon="-0.5622">
        <ele>4.9</ele>
        <time>2020-06-17T08:15:47Z</time>
      </trkpt>
      <trkpt lat="49.33793" lon="-0.56212">
        <ele>4.9</ele>
        <time>2020-06-17T08:15:48Z</time>
      </trkpt>
      <trkpt lat="49.33794" lon="-0.56204">
        <ele>4.9</ele>
        <time>2020-06-17T08:15:49Z</time>
      </trkpt>
      <trkpt lat="49.33794" lon="-0.56195">
        <ele>4.9</ele>
        <time>2020-06-17T08:15:50Z</time>
      </trkpt>
      <trkpt lat="49.33794" lon="-0.56184">
        <ele>4.9</ele>
        <time>2020-06-17T08:15:51Z</time>
      </trkpt>
      <trkpt lat="49.33794" lon="-0.56173">
        <ele>4.9</ele>
        <time>2020-06-17T08:15:52Z</time>
      </trkpt>
      <trkpt lat="49.33794" lon="-0.56165">
        <ele>5</ele>
        <time>2020-06-17T08:15:53Z</time>
      </trkpt>
      <trkpt lat="49.33796" lon="-0.56155">
        <ele>5</ele>
        <time>2020-06-17T08:15:54Z</time>
      </trkpt>
      <trkpt lat="49.33796" lon="-0.56145">
        <ele>5.1</ele>
        <time>2020-06-17T08:15:55Z</time>
      </trkpt>
      <trkpt lat="49.33796" lon="-0.56134">
        <ele>5.3</ele>
        <time>2020-06-17T08:15:56Z</time>
      </trkpt>
      <trkpt lat="49.33797" lon="-0.56123">
        <ele>5.5</ele>
        <time>2020-06-17T08:15:57Z</time>
      </trkpt>
      <trkpt lat="49.33797" lon="-0.56112">
        <ele>5.8</ele>
        <time>2020-06-17T08:15:58Z</time>
      </trkpt>
      <trkpt lat="49.33797" lon="-0.561">
        <ele>5.9</ele>
        <time>2020-06-17T08:15:59Z</time>
      </trkpt>
      <trkpt lat="49.33798" lon="-0.56089">
        <ele>5.9</ele>
        <time>2020-06-17T08:16:00Z</time>
      </trkpt>
      <trkpt lat="49.33798" lon="-0.56077">
        <ele>5.9</ele>
        <time>2020-06-17T08:16:01Z</time>
      </trkpt>
      <trkpt lat="49.33799" lon="-0.56066">
        <ele>6</ele>
        <time>2020-06-17T08:16:02Z</time>
      </trkpt>
      <trkpt lat="49.33799" lon="-0.56055">
        <ele>6.1</ele>
        <time>2020-06-17T08:16:03Z</time>
      </trkpt>
      <trkpt lat="49.338" lon="-0.56044">
        <ele>6.2</ele>
        <time>2020-06-17T08:16:04Z</time>
      </trkpt>
      <trkpt lat="49.338" lon="-0.56032">
        <ele>6.3</ele>
        <time>2020-06-17T08:16:05Z</time>
      </trkpt>
      <trkpt lat="49.338" lon="-0.56022">
        <ele>6.3</ele>
        <time>2020-06-17T08:16:06Z</time>
      </trkpt>
      <trkpt lat="49.338" lon="-0.56012">
        <ele>6.4</ele>
        <time>2020-06-17T08:16:07Z</time>
      </trkpt>
      <trkpt lat="49.338" lon="-0.56001">
        <ele>6.5</ele>
        <time>2020-06-17T08:16:08Z</time>
      </trkpt>
      <trkpt lat="49.338" lon="-0.5599">
        <ele>6.6</ele>
        <time>2020-06-17T08:16:09Z</time>
      </trkpt>
      <trkpt lat="49.338" lon="-0.5598">
        <ele>6.6</ele>
        <time>2020-06-17T08:16:10Z</time>
      </trkpt>
      <trkpt lat="49.338" lon="-0.55971">
        <ele>6.7</ele>
        <time>2020-06-17T08:16:11Z</time>
      </trkpt>
      <trkpt lat="49.33801" lon="-0.55962">
        <ele>6.8</ele>
        <time>2020-06-17T08:16:12Z</time>
      </trkpt>
      <trkpt lat="49.33802" lon="-0.55952">
        <ele>6.9</ele>
        <time>2020-06-17T08:16:13Z</time>
      </trkpt>
      <trkpt lat="49.33803" lon="-0.55943">
        <ele>7</ele>
        <time>2020-06-17T08:16:14Z</time>
      </trkpt>
      <trkpt lat="49.33804" lon="-0.55934">
        <ele>7.1</ele>
        <time>2020-06-17T08:16:15Z</time>
      </trkpt>
      <trkpt lat="49.33805" lon="-0.55925">
        <ele>7.2</ele>
        <time>2020-06-17T08:16:16Z</time>
      </trkpt>
      <trkpt lat="49.33806" lon="-0.55917">
        <ele>7.2</ele>
        <time>2020-06-17T08:16:17Z</time>
      </trkpt>
      <trkpt lat="49.33807" lon="-0.55908">
        <ele>7.3</ele>
        <time>2020-06-17T08:16:18Z</time>
      </trkpt>
      <trkpt lat="49.33807" lon="-0.55899">
        <ele>7.4</ele>
        <time>2020-06-17T08:16:19Z</time>
      </trkpt>
      <trkpt lat="49.33807" lon="-0.55891">
        <ele>7.5</ele>
        <time>2020-06-17T08:16:20Z</time>
      </trkpt>
      <trkpt lat="49.33807" lon="-0.55882">
        <ele>7.5</ele>
        <time>2020-06-17T08:16:21Z</time>
      </trkpt>
      <trkpt lat="49.33807" lon="-0.55874">
        <ele>7.6</ele>
        <time>2020-06-17T08:16:22Z</time>
      </trkpt>
      <trkpt lat="49.33807" lon="-0.55864">
        <ele>7.6</ele>
        <time>2020-06-17T08:16:23Z</time>
      </trkpt>
      <trkpt lat="49.33808" lon="-0.55855">
        <ele>7.7</ele>
        <time>2020-06-17T08:16:24Z</time>
      </trkpt>
      <trkpt lat="49.33809" lon="-0.55844">
        <ele>7.8</ele>
        <time>2020-06-17T08:16:25Z</time>
      </trkpt>
      <trkpt lat="49.3381" lon="-0.55833">
        <ele>7.8</ele>
        <time>2020-06-17T08:16:26Z</time>
      </trkpt>
      <trkpt lat="49.33812" lon="-0.55823">
        <ele>7.9</ele>
        <time>2020-06-17T08:16:27Z</time>
      </trkpt>
      <trkpt lat="49.33812" lon="-0.55813">
        <ele>8</ele>
        <time>2020-06-17T08:16:28Z</time>
      </trkpt>
      <trkpt lat="49.33813" lon="-0.55802">
        <ele>8.1</ele>
        <time>2020-06-17T08:16:29Z</time>
      </trkpt>
      <trkpt lat="49.33813" lon="-0.55792">
        <ele>8.2</ele>
        <time>2020-06-17T08:16:30Z</time>
      </trkpt>
      <trkpt lat="49.33815" lon="-0.55782">
        <ele>8.2</ele>
        <time>2020-06-17T08:16:31Z</time>
      </trkpt>
      <trkpt lat="49.33816" lon="-0.55772">
        <ele>8.3</ele>
        <time>2020-06-17T08:16:32Z</time>
      </trkpt>
      <trkpt lat="49.33817" lon="-0.55762">
        <ele>8.4</ele>
        <time>2020-06-17T08:16:33Z</time>
      </trkpt>
      <trkpt lat="49.33817" lon="-0.55751">
        <ele>8.5</ele>
        <time>2020-06-17T08:16:34Z</time>
      </trkpt>
      <trkpt lat="49.33818" lon="-0.55741">
        <ele>8.6</ele>
        <time>2020-06-17T08:16:35Z</time>
      </trkpt>
      <trkpt lat="49.33819" lon="-0.55731">
        <ele>8.7</ele>
        <time>2020-06-17T08:16:36Z</time>
      </trkpt>
      <trkpt lat="49.33819" lon="-0.55721">
        <ele>8.8</ele>
        <time>2020-06-17T08:16:37Z</time>
      </trkpt>
      <trkpt lat="49.3382" lon="-0.55712">
        <ele>8.9</ele>
        <time>2020-06-17T08:16:38Z</time>
      </trkpt>
      <trkpt lat="49.33822" lon="-0.55702">
        <ele>9</ele>
        <time>2020-06-17T08:16:39Z</time>
      </trkpt>
      <trkpt lat="49.33823" lon="-0.55693">
        <ele>9.1</ele>
        <time>2020-06-17T08:16:40Z</time>
      </trkpt>
      <trkpt lat="49.33824" lon="-0.55683">
        <ele>9.2</ele>
        <time>2020-06-17T08:16:41Z</time>
      </trkpt>
      <trkpt lat="49.33826" lon="-0.55674">
        <ele>9.3</ele>
        <time>2020-06-17T08:16:42Z</time>
      </trkpt>
      <trkpt lat="49.33827" lon="-0.55665">
        <ele>9.4</ele>
        <time>2020-06-17T08:16:43Z</time>
      </trkpt>
      <trkpt lat="49.33828" lon="-0.55655">
        <ele>9.4</ele>
        <time>2020-06-17T08:16:44Z</time>
      </trkpt>
      <trkpt lat="49.33827" lon="-0.55645">
        <ele>9.5</ele>
        <time>2020-06-17T08:16:45Z</time>
      </trkpt>
      <trkpt lat="49.33827" lon="-0.55635">
        <ele>9.5</ele>
        <time>2020-06-17T08:16:46Z</time>
      </trkpt>
      <trkpt lat="49.33827" lon="-0.55625">
        <ele>9.6</ele>
        <time>2020-06-17T08:16:47Z</time>
      </trkpt>
      <trkpt lat="49.33828" lon="-0.55613">
        <ele>9.7</ele>
        <time>2020-06-17T08:16:48Z</time>
      </trkpt>
      <trkpt lat="49.33828" lon="-0.55603">
        <ele>9.7</ele>
        <time>2020-06-17T08:16:49Z</time>
      </trkpt>
      <trkpt lat="49.33829" lon="-0.55593">
        <ele>9.8</ele>
        <time>2020-06-17T08:16:50Z</time>
      </trkpt>
      <trkpt lat="49.3383" lon="-0.55584">
        <ele>9.8</ele>
        <time>2020-06-17T08:16:51Z</time>
      </trkpt>
      <trkpt lat="49.33831" lon="-0.55575">
        <ele>9.9</ele>
        <time>2020-06-17T08:16:52Z</time>
      </trkpt>
      <trkpt lat="49.33831" lon="-0.55566">
        <ele>9.9</ele>
        <time>2020-06-17T08:16:53Z</time>
      </trkpt>
      <trkpt lat="49.33833" lon="-0.55555">
        <ele>10</ele>
        <time>2020-06-17T08:16:54Z</time>
      </trkpt>
      <trkpt lat="49.33834" lon="-0.55545">
        <ele>10.1</ele>
        <time>2020-06-17T08:16:55Z</time>
      </trkpt>
      <trkpt lat="49.33835" lon="-0.55535">
        <ele>10.2</ele>
        <time>2020-06-17T08:16:56Z</time>
      </trkpt>
      <trkpt lat="49.33836" lon="-0.55527">
        <ele>10.2</ele>
        <time>2020-06-17T08:16:57Z</time>
      </trkpt>
      <trkpt lat="49.33836" lon="-0.55519">
        <ele>10.3</ele>
        <time>2020-06-17T08:16:58Z</time>
      </trkpt>
      <trkpt lat="49.33836" lon="-0.55512">
        <ele>10.3</ele>
        <time>2020-06-17T08:16:59Z</time>
      </trkpt>
      <trkpt lat="49.33836" lon="-0.55503">
        <ele>10.3</ele>
        <time>2020-06-17T08:17:00Z</time>
      </trkpt>
      <trkpt lat="49.33837" lon="-0.55495">
        <ele>10.4</ele>
        <time>2020-06-17T08:17:01Z</time>
      </trkpt>
      <trkpt lat="49.33838" lon="-0.55483">
        <ele>10.4</ele>
        <time>2020-06-17T08:17:02Z</time>
      </trkpt>
      <trkpt lat="49.33839" lon="-0.55474">
        <ele>10.4</ele>
        <time>2020-06-17T08:17:03Z</time>
      </trkpt>
      <trkpt lat="49.33841" lon="-0.55465">
        <ele>10.4</ele>
        <time>2020-06-17T08:17:04Z</time>
      </trkpt>
      <trkpt lat="49.33841" lon="-0.55457">
        <ele>10.4</ele>
        <time>2020-06-17T08:17:05Z</time>
      </trkpt>
      <trkpt lat="49.33842" lon="-0.55448">
        <ele>10.5</ele>
        <time>2020-06-17T08:17:06Z</time>
      </trkpt>
      <trkpt lat="49.33843" lon="-0.55438">
        <ele>10.5</ele>
        <time>2020-06-17T08:17:07Z</time>
      </trkpt>
      <trkpt lat="49.33844" lon="-0.55428">
        <ele>10.6</ele>
        <time>2020-06-17T08:17:08Z</time>
      </trkpt>
      <trkpt lat="49.33846" lon="-0.55418">
        <ele>10.6</ele>
        <time>2020-06-17T08:17:09Z</time>
      </trkpt>
      <trkpt lat="49.33847" lon="-0.5541">
        <ele>10.6</ele>
        <time>2020-06-17T08:17:10Z</time>
      </trkpt>
      <trkpt lat="49.33849" lon="-0.55402">
        <ele>10.7</ele>
        <time>2020-06-17T08:17:11Z</time>
      </trkpt>
      <trkpt lat="49.3385" lon="-0.55394">
        <ele>10.7</ele>
        <time>2020-06-17T08:17:12Z</time>
      </trkpt>
      <trkpt lat="49.33851" lon="-0.55385">
        <ele>10.7</ele>
        <time>2020-06-17T08:17:13Z</time>
      </trkpt>
      <trkpt lat="49.33851" lon="-0.55377">
        <ele>10.8</ele>
        <time>2020-06-17T08:17:14Z</time>
      </trkpt>
      <trkpt lat="49.33852" lon="-0.55368">
        <ele>10.8</ele>
        <time>2020-06-17T08:17:15Z</time>
      </trkpt>
      <trkpt lat="49.33852" lon="-0.55359">
        <ele>10.8</ele>
        <time>2020-06-17T08:17:16Z</time>
      </trkpt>
      <trkpt lat="49.33853" lon="-0.55351">
        <ele>10.9</ele>
        <time>2020-06-17T08:17:17Z</time>
      </trkpt>
      <trkpt lat="49.33854" lon="-0.55342">
        <ele>10.9</ele>
        <time>2020-06-17T08:17:18Z</time>
      </trkpt>
      <trkpt lat="49.33854" lon="-0.55333">
        <ele>11</ele>
        <time>2020-06-17T08:17:19Z</time>
      </trkpt>
      <trkpt lat="49.33856" lon="-0.55325">
        <ele>11</ele>
        <time>2020-06-17T08:17:20Z</time>
      </trkpt>
      <trkpt lat="49.33857" lon="-0.55314">
        <ele>11.1</ele>
        <time>2020-06-17T08:17:21Z</time>
      </trkpt>
      <trkpt lat="49.33858" lon="-0.55304">
        <ele>11.2</ele>
        <time>2020-06-17T08:17:22Z</time>
      </trkpt>
      <trkpt lat="49.33859" lon="-0.55294">
        <ele>11.3</ele>
        <time>2020-06-17T08:17:23Z</time>
      </trkpt>
      <trkpt lat="49.3386" lon="-0.55284">
        <ele>11.4</ele>
        <time>2020-06-17T08:17:24Z</time>
      </trkpt>
      <trkpt lat="49.33862" lon="-0.55276">
        <ele>11.4</ele>
        <time>2020-06-17T08:17:25Z</time>
      </trkpt>
      <trkpt lat="49.33863" lon="-0.55267">
        <ele>11.5</ele>
        <time>2020-06-17T08:17:26Z</time>
      </trkpt>
      <trkpt lat="49.33865" lon="-0.55261">
        <ele>11.5</ele>
        <time>2020-06-17T08:17:27Z</time>
      </trkpt>
      <trkpt lat="49.33866" lon="-0.55251">
        <ele>11.5</ele>
        <time>2020-06-17T08:17:28Z</time>
      </trkpt>
      <trkpt lat="49.33867" lon="-0.55242">
        <ele>11.5</ele>
        <time>2020-06-17T08:17:29Z</time>
      </trkpt>
      <trkpt lat="49.33867" lon="-0.55232">
        <ele>11.5</ele>
        <time>2020-06-17T08:17:30Z</time>
      </trkpt>
      <trkpt lat="49.33868" lon="-0.55223">
        <ele>11.6</ele>
        <time>2020-06-17T08:17:31Z</time>
      </trkpt>
      <trkpt lat="49.33869" lon="-0.55213">
        <ele>11.6</ele>
        <time>2020-06-17T08:17:32Z</time>
      </trkpt>
      <trkpt lat="49.3387" lon="-0.55201">
        <ele>11.7</ele>
        <time>2020-06-17T08:17:33Z</time>
      </trkpt>
      <trkpt lat="49.33871" lon="-0.55188">
        <ele>11.8</ele>
        <time>2020-06-17T08:17:34Z</time>
      </trkpt>
      <trkpt lat="49.33872" lon="-0.55176">
        <ele>11.9</ele>
        <time>2020-06-17T08:17:35Z</time>
      </trkpt>
      <trkpt lat="49.33874" lon="-0.55164">
        <ele>12</ele>
        <time>2020-06-17T08:17:36Z</time>
      </trkpt>
      <trkpt lat="49.33876" lon="-0.55155">
        <ele>12.1</ele>
        <time>2020-06-17T08:17:37Z</time>
      </trkpt>
      <trkpt lat="49.33878" lon="-0.55145">
        <ele>12.2</ele>
        <time>2020-06-17T08:17:38Z</time>
      </trkpt>
      <trkpt lat="49.33878" lon="-0.55134">
        <ele>12.2</ele>
        <time>2020-06-17T08:17:39Z</time>
      </trkpt>
      <trkpt lat="49.33879" lon="-0.55123">
        <ele>12.3</ele>
        <time>2020-06-17T08:17:40Z</time>
      </trkpt>
      <trkpt lat="49.33879" lon="-0.55111">
        <ele>12.4</ele>
        <time>2020-06-17T08:17:41Z</time>
      </trkpt>
      <trkpt lat="49.3388" lon="-0.55101">
        <ele>12.4</ele>
        <time>2020-06-17T08:17:42Z</time>
      </trkpt>
      <trkpt lat="49.3388" lon="-0.5509">
        <ele>12.5</ele>
        <time>2020-06-17T08:17:43Z</time>
      </trkpt>
      <trkpt lat="49.33879" lon="-0.55079">
        <ele>12.6</ele>
        <time>2020-06-17T08:17:44Z</time>
      </trkpt>
      <trkpt lat="49.3388" lon="-0.55067">
        <ele>12.6</ele>
        <time>2020-06-17T08:17:45Z</time>
      </trkpt>
      <trkpt lat="49.33881" lon="-0.55058">
        <ele>12.6</ele>
        <time>2020-06-17T08:17:46Z</time>
      </trkpt>
      <trkpt lat="49.33882" lon="-0.55048">
        <ele>12.7</ele>
        <time>2020-06-17T08:17:47Z</time>
      </trkpt>
      <trkpt lat="49.33884" lon="-0.55039">
        <ele>12.7</ele>
        <time>2020-06-17T08:17:48Z</time>
      </trkpt>
      <trkpt lat="49.33885" lon="-0.55031">
        <ele>12.7</ele>
        <time>2020-06-17T08:17:49Z</time>
      </trkpt>
      <trkpt lat="49.33887" lon="-0.55024">
        <ele>12.8</ele>
        <time>2020-06-17T08:17:50Z</time>
      </trkpt>
      <trkpt lat="49.33888" lon="-0.55014">
        <ele>12.8</ele>
        <time>2020-06-17T08:17:51Z</time>
      </trkpt>
      <trkpt lat="49.33889" lon="-0.55006">
        <ele>12.8</ele>
        <time>2020-06-17T08:17:52Z</time>
      </trkpt>
      <trkpt lat="49.33891" lon="-0.54996">
        <ele>12.9</ele>
        <time>2020-06-17T08:17:53Z</time>
      </trkpt>
      <trkpt lat="49.33892" lon="-0.54987">
        <ele>12.9</ele>
        <time>2020-06-17T08:17:54Z</time>
      </trkpt>
      <trkpt lat="49.33893" lon="-0.54978">
        <ele>13</ele>
        <time>2020-06-17T08:17:55Z</time>
      </trkpt>
      <trkpt lat="49.33895" lon="-0.54969">
        <ele>13.1</ele>
        <time>2020-06-17T08:17:56Z</time>
      </trkpt>
      <trkpt lat="49.33898" lon="-0.5496">
        <ele>13.2</ele>
        <time>2020-06-17T08:17:57Z</time>
      </trkpt>
      <trkpt lat="49.339" lon="-0.54951">
        <ele>13.3</ele>
        <time>2020-06-17T08:17:58Z</time>
      </trkpt>
      <trkpt lat="49.33901" lon="-0.54941">
        <ele>13.4</ele>
        <time>2020-06-17T08:17:59Z</time>
      </trkpt>
      <trkpt lat="49.33902" lon="-0.54932">
        <ele>13.5</ele>
        <time>2020-06-17T08:18:00Z</time>
      </trkpt>
      <trkpt lat="49.33903" lon="-0.54924">
        <ele>13.5</ele>
        <time>2020-06-17T08:18:01Z</time>
      </trkpt>
      <trkpt lat="49.33904" lon="-0.54915">
        <ele>13.6</ele>
        <time>2020-06-17T08:18:02Z</time>
      </trkpt>
      <trkpt lat="49.33906" lon="-0.54907">
        <ele>13.6</ele>
        <time>2020-06-17T08:18:03Z</time>
      </trkpt>
      <trkpt lat="49.33909" lon="-0.54898">
        <ele>13.7</ele>
        <time>2020-06-17T08:18:04Z</time>
      </trkpt>
      <trkpt lat="49.33909" lon="-0.5489">
        <ele>13.7</ele>
        <time>2020-06-17T08:18:05Z</time>
      </trkpt>
      <trkpt lat="49.33911" lon="-0.5488">
        <ele>13.8</ele>
        <time>2020-06-17T08:18:06Z</time>
      </trkpt>
      <trkpt lat="49.33911" lon="-0.54871">
        <ele>13.8</ele>
        <time>2020-06-17T08:18:07Z</time>
      </trkpt>
      <trkpt lat="49.3391" lon="-0.54862">
        <ele>13.9</ele>
        <time>2020-06-17T08:18:08Z</time>
      </trkpt>
      <trkpt lat="49.3391" lon="-0.54854">
        <ele>13.9</ele>
        <time>2020-06-17T08:18:09Z</time>
      </trkpt>
      <trkpt lat="49.33912" lon="-0.54843">
        <ele>14</ele>
        <time>2020-06-17T08:18:10Z</time>
      </trkpt>
      <trkpt lat="49.33913" lon="-0.54833">
        <ele>14.1</ele>
        <time>2020-06-17T08:18:11Z</time>
      </trkpt>
      <trkpt lat="49.33916" lon="-0.54825">
        <ele>14.2</ele>
        <time>2020-06-17T08:18:12Z</time>
      </trkpt>
      <trkpt lat="49.33918" lon="-0.54816">
        <ele>14.3</ele>
        <time>2020-06-17T08:18:13Z</time>
      </trkpt>
      <trkpt lat="49.33921" lon="-0.54806">
        <ele>14.3</ele>
        <time>2020-06-17T08:18:14Z</time>
      </trkpt>
      <trkpt lat="49.33923" lon="-0.54797">
        <ele>14.3</ele>
        <time>2020-06-17T08:18:15Z</time>
      </trkpt>
      <trkpt lat="49.33924" lon="-0.54786">
        <ele>14.4</ele>
        <time>2020-06-17T08:18:16Z</time>
      </trkpt>
      <trkpt lat="49.33925" lon="-0.54777">
        <ele>14.4</ele>
        <time>2020-06-17T08:18:17Z</time>
      </trkpt>
      <trkpt lat="49.33925" lon="-0.54768">
        <ele>14.4</ele>
        <time>2020-06-17T08:18:18Z</time>
      </trkpt>
      <trkpt lat="49.33926" lon="-0.54758">
        <ele>14.5</ele>
        <time>2020-06-17T08:18:19Z</time>
      </trkpt>
      <trkpt lat="49.33927" lon="-0.54748">
        <ele>14.5</ele>
        <time>2020-06-17T08:18:20Z</time>
      </trkpt>
      <trkpt lat="49.33927" lon="-0.54738">
        <ele>14.5</ele>
        <time>2020-06-17T08:18:21Z</time>
      </trkpt>
      <trkpt lat="49.33928" lon="-0.54727">
        <ele>14.5</ele>
        <time>2020-06-17T08:18:22Z</time>
      </trkpt>
      <trkpt lat="49.33929" lon="-0.54717">
        <ele>14.6</ele>
        <time>2020-06-17T08:18:23Z</time>
      </trkpt>
      <trkpt lat="49.3393" lon="-0.54707">
        <ele>14.6</ele>
        <time>2020-06-17T08:18:24Z</time>
      </trkpt>
      <trkpt lat="49.33931" lon="-0.54697">
        <ele>14.6</ele>
        <time>2020-06-17T08:18:25Z</time>
      </trkpt>
      <trkpt lat="49.33932" lon="-0.54687">
        <ele>14.6</ele>
        <time>2020-06-17T08:18:26Z</time>
      </trkpt>
      <trkpt lat="49.33933" lon="-0.54677">
        <ele>14.7</ele>
        <time>2020-06-17T08:18:27Z</time>
      </trkpt>
      <trkpt lat="49.33935" lon="-0.54667">
        <ele>14.7</ele>
        <time>2020-06-17T08:18:28Z</time>
      </trkpt>
      <trkpt lat="49.33936" lon="-0.54655">
        <ele>14.8</ele>
        <time>2020-06-17T08:18:29Z</time>
      </trkpt>
      <trkpt lat="49.33936" lon="-0.54647">
        <ele>14.8</ele>
        <time>2020-06-17T08:18:30Z</time>
      </trkpt>
      <trkpt lat="49.33936" lon="-0.54639">
        <ele>14.8</ele>
        <time>2020-06-17T08:18:31Z</time>
      </trkpt>
      <trkpt lat="49.33936" lon="-0.54631">
        <ele>14.8</ele>
        <time>2020-06-17T08:18:32Z</time>
      </trkpt>
      <trkpt lat="49.33937" lon="-0.54623">
        <ele>14.9</ele>
        <time>2020-06-17T08:18:33Z</time>
      </trkpt>
      <trkpt lat="49.33938" lon="-0.54613">
        <ele>14.9</ele>
        <time>2020-06-17T08:18:34Z</time>
      </trkpt>
      <trkpt lat="49.33939" lon="-0.54604">
        <ele>14.9</ele>
        <time>2020-06-17T08:18:35Z</time>
      </trkpt>
      <trkpt lat="49.33941" lon="-0.54596">
        <ele>15</ele>
        <time>2020-06-17T08:18:36Z</time>
      </trkpt>
      <trkpt lat="49.33942" lon="-0.54588">
        <ele>15.1</ele>
        <time>2020-06-17T08:18:37Z</time>
      </trkpt>
      <trkpt lat="49.33943" lon="-0.54579">
        <ele>15.1</ele>
        <time>2020-06-17T08:18:38Z</time>
      </trkpt>
      <trkpt lat="49.33945" lon="-0.5457">
        <ele>15.2</ele>
        <time>2020-06-17T08:18:39Z</time>
      </trkpt>
      <trkpt lat="49.33946" lon="-0.5456">
        <ele>15.2</ele>
        <time>2020-06-17T08:18:40Z</time>
      </trkpt>
      <trkpt lat="49.33948" lon="-0.5455">
        <ele>15.2</ele>
        <time>2020-06-17T08:18:41Z</time>
      </trkpt>
      <trkpt lat="49.33949" lon="-0.5454">
        <ele>15.2</ele>
        <time>2020-06-17T08:18:42Z</time>
      </trkpt>
      <trkpt lat="49.33949" lon="-0.54533">
        <ele>15.3</ele>
        <time>2020-06-17T08:18:43Z</time>
      </trkpt>
      <trkpt lat="49.3395" lon="-0.54524">
        <ele>15.3</ele>
        <time>2020-06-17T08:18:44Z</time>
      </trkpt>
      <trkpt lat="49.3395" lon="-0.54515">
        <ele>15.3</ele>
        <time>2020-06-17T08:18:45Z</time>
      </trkpt>
      <trkpt lat="49.3395" lon="-0.54507">
        <ele>15.4</ele>
        <time>2020-06-17T08:18:46Z</time>
      </trkpt>
      <trkpt lat="49.3395" lon="-0.54499">
        <ele>15.4</ele>
        <time>2020-06-17T08:18:47Z</time>
      </trkpt>
      <trkpt lat="49.3395" lon="-0.54492">
        <ele>15.4</ele>
        <time>2020-06-17T08:18:48Z</time>
      </trkpt>
      <trkpt lat="49.33951" lon="-0.54483">
        <ele>15.5</ele>
        <time>2020-06-17T08:18:49Z</time>
      </trkpt>
      <trkpt lat="49.33952" lon="-0.54473">
        <ele>15.5</ele>
        <time>2020-06-17T08:18:50Z</time>
      </trkpt>
      <trkpt lat="49.33952" lon="-0.54462">
        <ele>15.5</ele>
        <time>2020-06-17T08:18:51Z</time>
      </trkpt>
      <trkpt lat="49.33954" lon="-0.5445">
        <ele>15.6</ele>
        <time>2020-06-17T08:18:52Z</time>
      </trkpt>
      <trkpt lat="49.33954" lon="-0.5444">
        <ele>15.6</ele>
        <time>2020-06-17T08:18:53Z</time>
      </trkpt>
      <trkpt lat="49.33955" lon="-0.54429">
        <ele>15.6</ele>
        <time>2020-06-17T08:18:54Z</time>
      </trkpt>
      <trkpt lat="49.33954" lon="-0.54419">
        <ele>15.7</ele>
        <time>2020-06-17T08:18:55Z</time>
      </trkpt>
      <trkpt lat="49.33954" lon="-0.54409">
        <ele>15.7</ele>
        <time>2020-06-17T08:18:56Z</time>
      </trkpt>
      <trkpt lat="49.33956" lon="-0.54399">
        <ele>15.8</ele>
        <time>2020-06-17T08:18:57Z</time>
      </trkpt>
      <trkpt lat="49.33958" lon="-0.54389">
        <ele>15.8</ele>
        <time>2020-06-17T08:18:58Z</time>
      </trkpt>
      <trkpt lat="49.3396" lon="-0.54378">
        <ele>15.8</ele>
        <time>2020-06-17T08:18:59Z</time>
      </trkpt>
      <trkpt lat="49.33962" lon="-0.54368">
        <ele>15.9</ele>
        <time>2020-06-17T08:19:00Z</time>
      </trkpt>
      <trkpt lat="49.33963" lon="-0.54357">
        <ele>15.9</ele>
        <time>2020-06-17T08:19:01Z</time>
      </trkpt>
      <trkpt lat="49.33965" lon="-0.54346">
        <ele>15.9</ele>
        <time>2020-06-17T08:19:02Z</time>
      </trkpt>
      <trkpt lat="49.33967" lon="-0.54335">
        <ele>15.9</ele>
        <time>2020-06-17T08:19:03Z</time>
      </trkpt>
      <trkpt lat="49.33968" lon="-0.54323">
        <ele>15.9</ele>
        <time>2020-06-17T08:19:04Z</time>
      </trkpt>
      <trkpt lat="49.33971" lon="-0.54311">
        <ele>16</ele>
        <time>2020-06-17T08:19:05Z</time>
      </trkpt>
      <trkpt lat="49.33973" lon="-0.54299">
        <ele>16</ele>
        <time>2020-06-17T08:19:06Z</time>
      </trkpt>
      <trkpt lat="49.33974" lon="-0.54286">
        <ele>16.1</ele>
        <time>2020-06-17T08:19:07Z</time>
      </trkpt>
      <trkpt lat="49.33976" lon="-0.54273">
        <ele>16.1</ele>
        <time>2020-06-17T08:19:08Z</time>
      </trkpt>
      <trkpt lat="49.33978" lon="-0.5426">
        <ele>16.2</ele>
        <time>2020-06-17T08:19:09Z</time>
      </trkpt>
      <trkpt lat="49.3398" lon="-0.54247">
        <ele>16.3</ele>
        <time>2020-06-17T08:19:10Z</time>
      </trkpt>
      <trkpt lat="49.33982" lon="-0.54235">
        <ele>16.4</ele>
        <time>2020-06-17T08:19:11Z</time>
      </trkpt>
      <trkpt lat="49.33985" lon="-0.54222">
        <ele>16.5</ele>
        <time>2020-06-17T08:19:12Z</time>
      </trkpt>
      <trkpt lat="49.33987" lon="-0.5421">
        <ele>16.6</ele>
        <time>2020-06-17T08:19:13Z</time>
      </trkpt>
      <trkpt lat="49.33988" lon="-0.54198">
        <ele>16.7</ele>
        <time>2020-06-17T08:19:14Z</time>
      </trkpt>
      <trkpt lat="49.33989" lon="-0.54186">
        <ele>16.9</ele>
        <time>2020-06-17T08:19:15Z</time>
      </trkpt>
      <trkpt lat="49.33991" lon="-0.54174">
        <ele>17</ele>
        <time>2020-06-17T08:19:16Z</time>
      </trkpt>
      <trkpt lat="49.33993" lon="-0.54161">
        <ele>16.8</ele>
        <time>2020-06-17T08:19:17Z</time>
      </trkpt>
      <trkpt lat="49.33993" lon="-0.54148">
        <ele>16.8</ele>
        <time>2020-06-17T08:19:18Z</time>
      </trkpt>
      <trkpt lat="49.33996" lon="-0.54134">
        <ele>16.8</ele>
        <time>2020-06-17T08:19:19Z</time>
      </trkpt>
      <trkpt lat="49.33997" lon="-0.54121">
        <ele>16.8</ele>
        <time>2020-06-17T08:19:20Z</time>
      </trkpt>
      <trkpt lat="49.33999" lon="-0.5411">
        <ele>16.8</ele>
        <time>2020-06-17T08:19:21Z</time>
      </trkpt>
      <trkpt lat="49.34" lon="-0.54099">
        <ele>16.8</ele>
        <time>2020-06-17T08:19:22Z</time>
      </trkpt>
      <trkpt lat="49.34001" lon="-0.54088">
        <ele>16.9</ele>
        <time>2020-06-17T08:19:23Z</time>
      </trkpt>
      <trkpt lat="49.34002" lon="-0.54078">
        <ele>17</ele>
        <time>2020-06-17T08:19:24Z</time>
      </trkpt>
      <trkpt lat="49.34003" lon="-0.54067">
        <ele>17</ele>
        <time>2020-06-17T08:19:25Z</time>
      </trkpt>
      <trkpt lat="49.34005" lon="-0.54055">
        <ele>17.1</ele>
        <time>2020-06-17T08:19:26Z</time>
      </trkpt>
      <trkpt lat="49.34005" lon="-0.54045">
        <ele>17.2</ele>
        <time>2020-06-17T08:19:27Z</time>
      </trkpt>
      <trkpt lat="49.34007" lon="-0.54034">
        <ele>17.2</ele>
        <time>2020-06-17T08:19:28Z</time>
      </trkpt>
      <trkpt lat="49.34007" lon="-0.54024">
        <ele>17.3</ele>
        <time>2020-06-17T08:19:29Z</time>
      </trkpt>
      <trkpt lat="49.34007" lon="-0.54014">
        <ele>17.4</ele>
        <time>2020-06-17T08:19:30Z</time>
      </trkpt>
      <trkpt lat="49.34008" lon="-0.54004">
        <ele>17.4</ele>
        <time>2020-06-17T08:19:31Z</time>
      </trkpt>
      <trkpt lat="49.34009" lon="-0.53995">
        <ele>17.5</ele>
        <time>2020-06-17T08:19:32Z</time>
      </trkpt>
      <trkpt lat="49.34011" lon="-0.53986">
        <ele>17.5</ele>
        <time>2020-06-17T08:19:33Z</time>
      </trkpt>
      <trkpt lat="49.34012" lon="-0.53977">
        <ele>17.6</ele>
        <time>2020-06-17T08:19:34Z</time>
      </trkpt>
      <trkpt lat="49.34014" lon="-0.53968">
        <ele>17.6</ele>
        <time>2020-06-17T08:19:35Z</time>
      </trkpt>
      <trkpt lat="49.34016" lon="-0.53958">
        <ele>17.7</ele>
        <time>2020-06-17T08:19:36Z</time>
      </trkpt>
      <trkpt lat="49.34018" lon="-0.53949">
        <ele>17.7</ele>
        <time>2020-06-17T08:19:37Z</time>
      </trkpt>
      <trkpt lat="49.3402" lon="-0.5394">
        <ele>17.8</ele>
        <time>2020-06-17T08:19:38Z</time>
      </trkpt>
      <trkpt lat="49.34021" lon="-0.53929">
        <ele>17.8</ele>
        <time>2020-06-17T08:19:39Z</time>
      </trkpt>
      <trkpt lat="49.34022" lon="-0.53918">
        <ele>17.9</ele>
        <time>2020-06-17T08:19:40Z</time>
      </trkpt>
      <trkpt lat="49.34022" lon="-0.53906">
        <ele>18</ele>
        <time>2020-06-17T08:19:41Z</time>
      </trkpt>
      <trkpt lat="49.34023" lon="-0.53895">
        <ele>18.1</ele>
        <time>2020-06-17T08:19:42Z</time>
      </trkpt>
      <trkpt lat="49.34025" lon="-0.53883">
        <ele>18.2</ele>
        <time>2020-06-17T08:19:43Z</time>
      </trkpt>
      <trkpt lat="49.34025" lon="-0.53871">
        <ele>18.3</ele>
        <time>2020-06-17T08:19:44Z</time>
      </trkpt>
      <trkpt lat="49.34027" lon="-0.53859">
        <ele>18.4</ele>
        <time>2020-06-17T08:19:45Z</time>
      </trkpt>
      <trkpt lat="49.34028" lon="-0.53846">
        <ele>18.5</ele>
        <time>2020-06-17T08:19:46Z</time>
      </trkpt>
      <trkpt lat="49.34029" lon="-0.53837">
        <ele>18.5</ele>
        <time>2020-06-17T08:19:47Z</time>
      </trkpt>
      <trkpt lat="49.3403" lon="-0.53827">
        <ele>18.5</ele>
        <time>2020-06-17T08:19:48Z</time>
      </trkpt>
      <trkpt lat="49.3403" lon="-0.53816">
        <ele>18.5</ele>
        <time>2020-06-17T08:19:49Z</time>
      </trkpt>
      <trkpt lat="49.3403" lon="-0.53807">
        <ele>18.6</ele>
        <time>2020-06-17T08:19:50Z</time>
      </trkpt>
      <trkpt lat="49.34031" lon="-0.53798">
        <ele>18.6</ele>
        <time>2020-06-17T08:19:51Z</time>
      </trkpt>
      <trkpt lat="49.34031" lon="-0.53788">
        <ele>18.6</ele>
        <time>2020-06-17T08:19:52Z</time>
      </trkpt>
      <trkpt lat="49.34033" lon="-0.53777">
        <ele>18.7</ele>
        <time>2020-06-17T08:19:53Z</time>
      </trkpt>
      <trkpt lat="49.34035" lon="-0.53767">
        <ele>18.8</ele>
        <time>2020-06-17T08:19:54Z</time>
      </trkpt>
      <trkpt lat="49.34036" lon="-0.53757">
        <ele>18.9</ele>
        <time>2020-06-17T08:19:55Z</time>
      </trkpt>
      <trkpt lat="49.34036" lon="-0.53747">
        <ele>18.9</ele>
        <time>2020-06-17T08:19:56Z</time>
      </trkpt>
      <trkpt lat="49.34036" lon="-0.53736">
        <ele>19</ele>
        <time>2020-06-17T08:19:57Z</time>
      </trkpt>
      <trkpt lat="49.34037" lon="-0.53726">
        <ele>19</ele>
        <time>2020-06-17T08:19:58Z</time>
      </trkpt>
      <trkpt lat="49.34038" lon="-0.53716">
        <ele>19.1</ele>
        <time>2020-06-17T08:19:59Z</time>
      </trkpt>
      <trkpt lat="49.34038" lon="-0.53706">
        <ele>19.1</ele>
        <time>2020-06-17T08:20:00Z</time>
      </trkpt>
      <trkpt lat="49.34038" lon="-0.53695">
        <ele>19.2</ele>
        <time>2020-06-17T08:20:01Z</time>
      </trkpt>
      <trkpt lat="49.34039" lon="-0.53685">
        <ele>19.3</ele>
        <time>2020-06-17T08:20:02Z</time>
      </trkpt>
      <trkpt lat="49.3404" lon="-0.53673">
        <ele>19.3</ele>
        <time>2020-06-17T08:20:03Z</time>
      </trkpt>
      <trkpt lat="49.34041" lon="-0.53662">
        <ele>19.4</ele>
        <time>2020-06-17T08:20:04Z</time>
      </trkpt>
      <trkpt lat="49.34042" lon="-0.53652">
        <ele>19.4</ele>
        <time>2020-06-17T08:20:05Z</time>
      </trkpt>
      <trkpt lat="49.34043" lon="-0.53641">
        <ele>19.4</ele>
        <time>2020-06-17T08:20:06Z</time>
      </trkpt>
      <trkpt lat="49.34044" lon="-0.5363">
        <ele>19.4</ele>
        <time>2020-06-17T08:20:07Z</time>
      </trkpt>
      <trkpt lat="49.34046" lon="-0.5362">
        <ele>19.4</ele>
        <time>2020-06-17T08:20:08Z</time>
      </trkpt>
      <trkpt lat="49.34047" lon="-0.5361">
        <ele>19.4</ele>
        <time>2020-06-17T08:20:09Z</time>
      </trkpt>
      <trkpt lat="49.34048" lon="-0.53599">
        <ele>19.5</ele>
        <time>2020-06-17T08:20:10Z</time>
      </trkpt>
      <trkpt lat="49.34048" lon="-0.53588">
        <ele>19.5</ele>
        <time>2020-06-17T08:20:11Z</time>
      </trkpt>
      <trkpt lat="49.34049" lon="-0.53577">
        <ele>19.6</ele>
        <time>2020-06-17T08:20:12Z</time>
      </trkpt>
      <trkpt lat="49.34051" lon="-0.53566">
        <ele>19.6</ele>
        <time>2020-06-17T08:20:13Z</time>
      </trkpt>
      <trkpt lat="49.34052" lon="-0.53554">
        <ele>19.7</ele>
        <time>2020-06-17T08:20:14Z</time>
      </trkpt>
      <trkpt lat="49.34053" lon="-0.53543">
        <ele>19.7</ele>
        <time>2020-06-17T08:20:15Z</time>
      </trkpt>
      <trkpt lat="49.34055" lon="-0.53533">
        <ele>19.8</ele>
        <time>2020-06-17T08:20:16Z</time>
      </trkpt>
      <trkpt lat="49.34056" lon="-0.53523">
        <ele>19.8</ele>
        <time>2020-06-17T08:20:17Z</time>
      </trkpt>
      <trkpt lat="49.34057" lon="-0.53512">
        <ele>19.8</ele>
        <time>2020-06-17T08:20:18Z</time>
      </trkpt>
      <trkpt lat="49.34057" lon="-0.53502">
        <ele>19.8</ele>
        <time>2020-06-17T08:20:19Z</time>
      </trkpt>
      <trkpt lat="49.34057" lon="-0.53491">
        <ele>19.8</ele>
        <time>2020-06-17T08:20:20Z</time>
      </trkpt>
      <trkpt lat="49.34058" lon="-0.5348">
        <ele>19.9</ele>
        <time>2020-06-17T08:20:21Z</time>
      </trkpt>
      <trkpt lat="49.3406" lon="-0.5347">
        <ele>19.9</ele>
        <time>2020-06-17T08:20:22Z</time>
      </trkpt>
      <trkpt lat="49.34061" lon="-0.53458">
        <ele>20</ele>
        <time>2020-06-17T08:20:23Z</time>
      </trkpt>
      <trkpt lat="49.34062" lon="-0.53448">
        <ele>20.1</ele>
        <time>2020-06-17T08:20:24Z</time>
      </trkpt>
      <trkpt lat="49.34063" lon="-0.53438">
        <ele>20.1</ele>
        <time>2020-06-17T08:20:25Z</time>
      </trkpt>
      <trkpt lat="49.34064" lon="-0.53427">
        <ele>20.1</ele>
        <time>2020-06-17T08:20:26Z</time>
      </trkpt>
      <trkpt lat="49.34065" lon="-0.53416">
        <ele>20.1</ele>
        <time>2020-06-17T08:20:27Z</time>
      </trkpt>
      <trkpt lat="49.34066" lon="-0.53405">
        <ele>20.2</ele>
        <time>2020-06-17T08:20:28Z</time>
      </trkpt>
      <trkpt lat="49.34067" lon="-0.53395">
        <ele>20.2</ele>
        <time>2020-06-17T08:20:29Z</time>
      </trkpt>
      <trkpt lat="49.34068" lon="-0.53384">
        <ele>20.2</ele>
        <time>2020-06-17T08:20:30Z</time>
      </trkpt>
      <trkpt lat="49.34069" lon="-0.53374">
        <ele>20.2</ele>
        <time>2020-06-17T08:20:31Z</time>
      </trkpt>
      <trkpt lat="49.34071" lon="-0.53362">
        <ele>20.2</ele>
        <time>2020-06-17T08:20:32Z</time>
      </trkpt>
      <trkpt lat="49.34072" lon="-0.53352">
        <ele>20.2</ele>
        <time>2020-06-17T08:20:33Z</time>
      </trkpt>
      <trkpt lat="49.34073" lon="-0.5334">
        <ele>20.2</ele>
        <time>2020-06-17T08:20:34Z</time>
      </trkpt>
      <trkpt lat="49.34074" lon="-0.53329">
        <ele>20.2</ele>
        <time>2020-06-17T08:20:35Z</time>
      </trkpt>
      <trkpt lat="49.34077" lon="-0.53318">
        <ele>20.1</ele>
        <time>2020-06-17T08:20:36Z</time>
      </trkpt>
      <trkpt lat="49.34078" lon="-0.53307">
        <ele>20.1</ele>
        <time>2020-06-17T08:20:37Z</time>
      </trkpt>
      <trkpt lat="49.3408" lon="-0.53298">
        <ele>20.1</ele>
        <time>2020-06-17T08:20:38Z</time>
      </trkpt>
      <trkpt lat="49.34082" lon="-0.53288">
        <ele>20</ele>
        <time>2020-06-17T08:20:39Z</time>
      </trkpt>
      <trkpt lat="49.34084" lon="-0.53278">
        <ele>20</ele>
        <time>2020-06-17T08:20:40Z</time>
      </trkpt>
      <trkpt lat="49.34086" lon="-0.53267">
        <ele>19.9</ele>
        <time>2020-06-17T08:20:41Z</time>
      </trkpt>
      <trkpt lat="49.34087" lon="-0.53257">
        <ele>19.9</ele>
        <time>2020-06-17T08:20:42Z</time>
      </trkpt>
      <trkpt lat="49.34088" lon="-0.53246">
        <ele>19.8</ele>
        <time>2020-06-17T08:20:43Z</time>
      </trkpt>
      <trkpt lat="49.34089" lon="-0.53235">
        <ele>19.7</ele>
        <time>2020-06-17T08:20:44Z</time>
      </trkpt>
      <trkpt lat="49.3409" lon="-0.53223">
        <ele>19.6</ele>
        <time>2020-06-17T08:20:45Z</time>
      </trkpt>
      <trkpt lat="49.34092" lon="-0.53212">
        <ele>19.5</ele>
        <time>2020-06-17T08:20:46Z</time>
      </trkpt>
      <trkpt lat="49.34092" lon="-0.53201">
        <ele>19.4</ele>
        <time>2020-06-17T08:20:47Z</time>
      </trkpt>
      <trkpt lat="49.34094" lon="-0.53189">
        <ele>19.3</ele>
        <time>2020-06-17T08:20:48Z</time>
      </trkpt>
      <trkpt lat="49.34095" lon="-0.53177">
        <ele>19.2</ele>
        <time>2020-06-17T08:20:49Z</time>
      </trkpt>
      <trkpt lat="49.34097" lon="-0.53166">
        <ele>19.1</ele>
        <time>2020-06-17T08:20:50Z</time>
      </trkpt>
      <trkpt lat="49.341" lon="-0.53153">
        <ele>19.1</ele>
        <time>2020-06-17T08:20:51Z</time>
      </trkpt>
      <trkpt lat="49.34101" lon="-0.53142">
        <ele>19.1</ele>
        <time>2020-06-17T08:20:52Z</time>
      </trkpt>
      <trkpt lat="49.34103" lon="-0.53129">
        <ele>19</ele>
        <time>2020-06-17T08:20:53Z</time>
      </trkpt>
      <trkpt lat="49.34105" lon="-0.53117">
        <ele>19</ele>
        <time>2020-06-17T08:20:54Z</time>
      </trkpt>
      <trkpt lat="49.34107" lon="-0.53105">
        <ele>18.9</ele>
        <time>2020-06-17T08:20:55Z</time>
      </trkpt>
      <trkpt lat="49.34109" lon="-0.53092">
        <ele>18.9</ele>
        <time>2020-06-17T08:20:56Z</time>
      </trkpt>
      <trkpt lat="49.3411" lon="-0.53079">
        <ele>18.8</ele>
        <time>2020-06-17T08:20:57Z</time>
      </trkpt>
      <trkpt lat="49.34112" lon="-0.53067">
        <ele>18.7</ele>
        <time>2020-06-17T08:20:58Z</time>
      </trkpt>
      <trkpt lat="49.34114" lon="-0.53055">
        <ele>18.6</ele>
        <time>2020-06-17T08:20:59Z</time>
      </trkpt>
      <trkpt lat="49.34116" lon="-0.53042">
        <ele>18.5</ele>
        <time>2020-06-17T08:21:00Z</time>
      </trkpt>
      <trkpt lat="49.34118" lon="-0.5303">
        <ele>18.5</ele>
        <time>2020-06-17T08:21:01Z</time>
      </trkpt>
      <trkpt lat="49.3412" lon="-0.53018">
        <ele>18.4</ele>
        <time>2020-06-17T08:21:02Z</time>
      </trkpt>
      <trkpt lat="49.34122" lon="-0.53004">
        <ele>18.3</ele>
        <time>2020-06-17T08:21:03Z</time>
      </trkpt>
      <trkpt lat="49.34125" lon="-0.52993">
        <ele>18.2</ele>
        <time>2020-06-17T08:21:04Z</time>
      </trkpt>
      <trkpt lat="49.34128" lon="-0.52981">
        <ele>18</ele>
        <time>2020-06-17T08:21:05Z</time>
      </trkpt>
      <trkpt lat="49.34131" lon="-0.52969">
        <ele>17.9</ele>
        <time>2020-06-17T08:21:06Z</time>
      </trkpt>
      <trkpt lat="49.34133" lon="-0.52956">
        <ele>17.7</ele>
        <time>2020-06-17T08:21:07Z</time>
      </trkpt>
      <trkpt lat="49.34135" lon="-0.52945">
        <ele>17.6</ele>
        <time>2020-06-17T08:21:08Z</time>
      </trkpt>
      <trkpt lat="49.34138" lon="-0.52933">
        <ele>17.5</ele>
        <time>2020-06-17T08:21:09Z</time>
      </trkpt>
      <trkpt lat="49.3414" lon="-0.52922">
        <ele>17.4</ele>
        <time>2020-06-17T08:21:10Z</time>
      </trkpt>
      <trkpt lat="49.34142" lon="-0.52911">
        <ele>17.3</ele>
        <time>2020-06-17T08:21:11Z</time>
      </trkpt>
      <trkpt lat="49.34145" lon="-0.529">
        <ele>17.2</ele>
        <time>2020-06-17T08:21:12Z</time>
      </trkpt>
      <trkpt lat="49.34147" lon="-0.52888">
        <ele>17.2</ele>
        <time>2020-06-17T08:21:13Z</time>
      </trkpt>
      <trkpt lat="49.34149" lon="-0.52877">
        <ele>17.1</ele>
        <time>2020-06-17T08:21:14Z</time>
      </trkpt>
      <trkpt lat="49.34151" lon="-0.52865">
        <ele>17.1</ele>
        <time>2020-06-17T08:21:15Z</time>
      </trkpt>
      <trkpt lat="49.34154" lon="-0.52852">
        <ele>17</ele>
        <time>2020-06-17T08:21:16Z</time>
      </trkpt>
      <trkpt lat="49.34156" lon="-0.52841">
        <ele>16.9</ele>
        <time>2020-06-17T08:21:17Z</time>
      </trkpt>
      <trkpt lat="49.34159" lon="-0.52828">
        <ele>16.8</ele>
        <time>2020-06-17T08:21:18Z</time>
      </trkpt>
      <trkpt lat="49.34162" lon="-0.52817">
        <ele>16.7</ele>
        <time>2020-06-17T08:21:19Z</time>
      </trkpt>
      <trkpt lat="49.34164" lon="-0.52805">
        <ele>16.6</ele>
        <time>2020-06-17T08:21:20Z</time>
      </trkpt>
      <trkpt lat="49.34166" lon="-0.52793">
        <ele>16.5</ele>
        <time>2020-06-17T08:21:21Z</time>
      </trkpt>
      <trkpt lat="49.34168" lon="-0.52782">
        <ele>16.4</ele>
        <time>2020-06-17T08:21:22Z</time>
      </trkpt>
      <trkpt lat="49.3417" lon="-0.5277">
        <ele>16.3</ele>
        <time>2020-06-17T08:21:23Z</time>
      </trkpt>
      <trkpt lat="49.34173" lon="-0.52758">
        <ele>16.2</ele>
        <time>2020-06-17T08:21:24Z</time>
      </trkpt>
      <trkpt lat="49.34176" lon="-0.52745">
        <ele>16</ele>
        <time>2020-06-17T08:21:25Z</time>
      </trkpt>
      <trkpt lat="49.34178" lon="-0.52734">
        <ele>15.8</ele>
        <time>2020-06-17T08:21:26Z</time>
      </trkpt>
      <trkpt lat="49.34179" lon="-0.52722">
        <ele>15.5</ele>
        <time>2020-06-17T08:21:27Z</time>
      </trkpt>
      <trkpt lat="49.34182" lon="-0.52711">
        <ele>15.2</ele>
        <time>2020-06-17T08:21:28Z</time>
      </trkpt>
      <trkpt lat="49.34184" lon="-0.52699">
        <ele>15</ele>
        <time>2020-06-17T08:21:29Z</time>
      </trkpt>
      <trkpt lat="49.34186" lon="-0.52686">
        <ele>14.7</ele>
        <time>2020-06-17T08:21:30Z</time>
      </trkpt>
      <trkpt lat="49.34189" lon="-0.52674">
        <ele>14.4</ele>
        <time>2020-06-17T08:21:31Z</time>
      </trkpt>
      <trkpt lat="49.34191" lon="-0.52661">
        <ele>14.2</ele>
        <time>2020-06-17T08:21:32Z</time>
      </trkpt>
      <trkpt lat="49.34193" lon="-0.52648">
        <ele>14</ele>
        <time>2020-06-17T08:21:33Z</time>
      </trkpt>
      <trkpt lat="49.34195" lon="-0.52635">
        <ele>13.8</ele>
        <time>2020-06-17T08:21:34Z</time>
      </trkpt>
      <trkpt lat="49.34197" lon="-0.52623">
        <ele>13.6</ele>
        <time>2020-06-17T08:21:35Z</time>
      </trkpt>
      <trkpt lat="49.34199" lon="-0.52609">
        <ele>13.3</ele>
        <time>2020-06-17T08:21:36Z</time>
      </trkpt>
      <trkpt lat="49.342" lon="-0.52596">
        <ele>13</ele>
        <time>2020-06-17T08:21:37Z</time>
      </trkpt>
      <trkpt lat="49.34201" lon="-0.52584">
        <ele>12.8</ele>
        <time>2020-06-17T08:21:38Z</time>
      </trkpt>
      <trkpt lat="49.34203" lon="-0.52571">
        <ele>12.6</ele>
        <time>2020-06-17T08:21:39Z</time>
      </trkpt>
      <trkpt lat="49.34204" lon="-0.52558">
        <ele>12.3</ele>
        <time>2020-06-17T08:21:40Z</time>
      </trkpt>
      <trkpt lat="49.34205" lon="-0.52546">
        <ele>12.1</ele>
        <time>2020-06-17T08:21:41Z</time>
      </trkpt>
      <trkpt lat="49.34206" lon="-0.52532">
        <ele>11.8</ele>
        <time>2020-06-17T08:21:42Z</time>
      </trkpt>
      <trkpt lat="49.34208" lon="-0.5252">
        <ele>11.6</ele>
        <time>2020-06-17T08:21:43Z</time>
      </trkpt>
      <trkpt lat="49.3421" lon="-0.52506">
        <ele>11.3</ele>
        <time>2020-06-17T08:21:44Z</time>
      </trkpt>
      <trkpt lat="49.34212" lon="-0.52492">
        <ele>11.1</ele>
        <time>2020-06-17T08:21:45Z</time>
      </trkpt>
      <trkpt lat="49.34215" lon="-0.52479">
        <ele>10.8</ele>
        <time>2020-06-17T08:21:46Z</time>
      </trkpt>
      <trkpt lat="49.34216" lon="-0.52464">
        <ele>10.6</ele>
        <time>2020-06-17T08:21:47Z</time>
      </trkpt>
      <trkpt lat="49.34218" lon="-0.52449">
        <ele>10.3</ele>
        <time>2020-06-17T08:21:48Z</time>
      </trkpt>
      <trkpt lat="49.3422" lon="-0.52435">
        <ele>10</ele>
        <time>2020-06-17T08:21:49Z</time>
      </trkpt>
      <trkpt lat="49.34222" lon="-0.52421">
        <ele>9.8</ele>
        <time>2020-06-17T08:21:50Z</time>
      </trkpt>
      <trkpt lat="49.34223" lon="-0.52408">
        <ele>9.5</ele>
        <time>2020-06-17T08:21:51Z</time>
      </trkpt>
      <trkpt lat="49.34224" lon="-0.52395">
        <ele>9.2</ele>
        <time>2020-06-17T08:21:52Z</time>
      </trkpt>
      <trkpt lat="49.34226" lon="-0.52381">
        <ele>8.9</ele>
        <time>2020-06-17T08:21:53Z</time>
      </trkpt>
      <trkpt lat="49.34229" lon="-0.52368">
        <ele>8.6</ele>
        <time>2020-06-17T08:21:54Z</time>
      </trkpt>
      <trkpt lat="49.34231" lon="-0.52355">
        <ele>8.3</ele>
        <time>2020-06-17T08:21:55Z</time>
      </trkpt>
      <trkpt lat="49.34233" lon="-0.52341">
        <ele>8</ele>
        <time>2020-06-17T08:21:56Z</time>
      </trkpt>
      <trkpt lat="49.34234" lon="-0.52328">
        <ele>7.8</ele>
        <time>2020-06-17T08:21:57Z</time>
      </trkpt>
      <trkpt lat="49.34236" lon="-0.52314">
        <ele>7.6</ele>
        <time>2020-06-17T08:21:58Z</time>
      </trkpt>
      <trkpt lat="49.34238" lon="-0.523">
        <ele>7.3</ele>
        <time>2020-06-17T08:21:59Z</time>
      </trkpt>
      <trkpt lat="49.34239" lon="-0.52286">
        <ele>7.1</ele>
        <time>2020-06-17T08:22:00Z</time>
      </trkpt>
      <trkpt lat="49.34241" lon="-0.52273">
        <ele>6.9</ele>
        <time>2020-06-17T08:22:01Z</time>
      </trkpt>
      <trkpt lat="49.34244" lon="-0.5226">
        <ele>6.7</ele>
        <time>2020-06-17T08:22:02Z</time>
      </trkpt>
      <trkpt lat="49.34245" lon="-0.52246">
        <ele>6.5</ele>
        <time>2020-06-17T08:22:03Z</time>
      </trkpt>
      <trkpt lat="49.34248" lon="-0.52232">
        <ele>6.4</ele>
        <time>2020-06-17T08:22:04Z</time>
      </trkpt>
      <trkpt lat="49.34251" lon="-0.52217">
        <ele>6.2</ele>
        <time>2020-06-17T08:22:05Z</time>
      </trkpt>
      <trkpt lat="49.34257" lon="-0.522">
        <ele>6</ele>
        <time>2020-06-17T08:22:06Z</time>
      </trkpt>
      <trkpt lat="49.34259" lon="-0.52186">
        <ele>5.8</ele>
        <time>2020-06-17T08:22:07Z</time>
      </trkpt>
      <trkpt lat="49.34262" lon="-0.52171">
        <ele>5.7</ele>
        <time>2020-06-17T08:22:08Z</time>
      </trkpt>
      <trkpt lat="49.34265" lon="-0.52158">
        <ele>5.7</ele>
        <time>2020-06-17T08:22:09Z</time>
      </trkpt>
      <trkpt lat="49.34268" lon="-0.52144">
        <ele>5.7</ele>
        <time>2020-06-17T08:22:10Z</time>
      </trkpt>
      <trkpt lat="49.34271" lon="-0.52129">
        <ele>5.7</ele>
        <time>2020-06-17T08:22:11Z</time>
      </trkpt>
      <trkpt lat="49.34274" lon="-0.52114">
        <ele>5.6</ele>
        <time>2020-06-17T08:22:12Z</time>
      </trkpt>
      <trkpt lat="49.34275" lon="-0.521">
        <ele>5.5</ele>
        <time>2020-06-17T08:22:13Z</time>
      </trkpt>
      <trkpt lat="49.34277" lon="-0.52086">
        <ele>5.5</ele>
        <time>2020-06-17T08:22:14Z</time>
      </trkpt>
      <trkpt lat="49.34279" lon="-0.52072">
        <ele>5.4</ele>
        <time>2020-06-17T08:22:15Z</time>
      </trkpt>
      <trkpt lat="49.34281" lon="-0.52058">
        <ele>5.4</ele>
        <time>2020-06-17T08:22:16Z</time>
      </trkpt>
      <trkpt lat="49.34283" lon="-0.52043">
        <ele>5.3</ele>
        <time>2020-06-17T08:22:17Z</time>
      </trkpt>
      <trkpt lat="49.34285" lon="-0.52029">
        <ele>5.2</ele>
        <time>2020-06-17T08:22:18Z</time>
      </trkpt>
      <trkpt lat="49.34287" lon="-0.52014">
        <ele>5.2</ele>
        <time>2020-06-17T08:22:19Z</time>
      </trkpt>
      <trkpt lat="49.34289" lon="-0.52001">
        <ele>5.2</ele>
        <time>2020-06-17T08:22:20Z</time>
      </trkpt>
      <trkpt lat="49.34292" lon="-0.51988">
        <ele>5.2</ele>
        <time>2020-06-17T08:22:21Z</time>
      </trkpt>
      <trkpt lat="49.34294" lon="-0.51977">
        <ele>5.2</ele>
        <time>2020-06-17T08:22:22Z</time>
      </trkpt>
      <trkpt lat="49.34297" lon="-0.51964">
        <ele>5.1</ele>
        <time>2020-06-17T08:22:23Z</time>
      </trkpt>
      <trkpt lat="49.34301" lon="-0.5195">
        <ele>5</ele>
        <time>2020-06-17T08:22:24Z</time>
      </trkpt>
      <trkpt lat="49.34305" lon="-0.51938">
        <ele>5</ele>
        <time>2020-06-17T08:22:25Z</time>
      </trkpt>
      <trkpt lat="49.34308" lon="-0.51925">
        <ele>4.9</ele>
        <time>2020-06-17T08:22:26Z</time>
      </trkpt>
      <trkpt lat="49.3431" lon="-0.51913">
        <ele>4.8</ele>
        <time>2020-06-17T08:22:27Z</time>
      </trkpt>
      <trkpt lat="49.34312" lon="-0.51901">
        <ele>4.8</ele>
        <time>2020-06-17T08:22:28Z</time>
      </trkpt>
      <trkpt lat="49.34314" lon="-0.51887">
        <ele>4.7</ele>
        <time>2020-06-17T08:22:29Z</time>
      </trkpt>
      <trkpt lat="49.34316" lon="-0.51875">
        <ele>4.7</ele>
        <time>2020-06-17T08:22:30Z</time>
      </trkpt>
      <trkpt lat="49.34318" lon="-0.51862">
        <ele>4.6</ele>
        <time>2020-06-17T08:22:31Z</time>
      </trkpt>
      <trkpt lat="49.3432" lon="-0.51851">
        <ele>4.6</ele>
        <time>2020-06-17T08:22:32Z</time>
      </trkpt>
      <trkpt lat="49.34322" lon="-0.51838">
        <ele>4.5</ele>
        <time>2020-06-17T08:22:33Z</time>
      </trkpt>
      <trkpt lat="49.34324" lon="-0.51823">
        <ele>4.4</ele>
        <time>2020-06-17T08:22:34Z</time>
      </trkpt>
      <trkpt lat="49.34327" lon="-0.51809">
        <ele>4.4</ele>
        <time>2020-06-17T08:22:35Z</time>
      </trkpt>
      <trkpt lat="49.34331" lon="-0.51796">
        <ele>4.3</ele>
        <time>2020-06-17T08:22:36Z</time>
      </trkpt>
      <trkpt lat="49.34333" lon="-0.51784">
        <ele>4.2</ele>
        <time>2020-06-17T08:22:37Z</time>
      </trkpt>
      <trkpt lat="49.34336" lon="-0.51772">
        <ele>4.2</ele>
        <time>2020-06-17T08:22:38Z</time>
      </trkpt>
      <trkpt lat="49.34339" lon="-0.51759">
        <ele>4.1</ele>
        <time>2020-06-17T08:22:39Z</time>
      </trkpt>
      <trkpt lat="49.34341" lon="-0.51745">
        <ele>4.1</ele>
        <time>2020-06-17T08:22:40Z</time>
      </trkpt>
      <trkpt lat="49.34342" lon="-0.51733">
        <ele>4.1</ele>
        <time>2020-06-17T08:22:41Z</time>
      </trkpt>
      <trkpt lat="49.34342" lon="-0.5172">
        <ele>4.2</ele>
        <time>2020-06-17T08:22:42Z</time>
      </trkpt>
      <trkpt lat="49.34343" lon="-0.51706">
        <ele>4.2</ele>
        <time>2020-06-17T08:22:43Z</time>
      </trkpt>
      <trkpt lat="49.34343" lon="-0.51693">
        <ele>4.3</ele>
        <time>2020-06-17T08:22:44Z</time>
      </trkpt>
      <trkpt lat="49.34344" lon="-0.5168">
        <ele>4.3</ele>
        <time>2020-06-17T08:22:45Z</time>
      </trkpt>
      <trkpt lat="49.34345" lon="-0.51667">
        <ele>4.3</ele>
        <time>2020-06-17T08:22:46Z</time>
      </trkpt>
      <trkpt lat="49.34345" lon="-0.51654">
        <ele>4.4</ele>
        <time>2020-06-17T08:22:47Z</time>
      </trkpt>
      <trkpt lat="49.34346" lon="-0.51642">
        <ele>4.4</ele>
        <time>2020-06-17T08:22:48Z</time>
      </trkpt>
      <trkpt lat="49.34345" lon="-0.51628">
        <ele>4.4</ele>
        <time>2020-06-17T08:22:49Z</time>
      </trkpt>
      <trkpt lat="49.34344" lon="-0.51616">
        <ele>4.4</ele>
        <time>2020-06-17T08:22:50Z</time>
      </trkpt>
      <trkpt lat="49.34344" lon="-0.51604">
        <ele>4.4</ele>
        <time>2020-06-17T08:22:51Z</time>
      </trkpt>
      <trkpt lat="49.34342" lon="-0.51592">
        <ele>4.4</ele>
        <time>2020-06-17T08:22:52Z</time>
      </trkpt>
      <trkpt lat="49.3434" lon="-0.5158">
        <ele>4.4</ele>
        <time>2020-06-17T08:22:53Z</time>
      </trkpt>
      <trkpt lat="49.34338" lon="-0.51567">
        <ele>4.4</ele>
        <time>2020-06-17T08:22:54Z</time>
      </trkpt>
      <trkpt lat="49.34336" lon="-0.51553">
        <ele>4.3</ele>
        <time>2020-06-17T08:22:55Z</time>
      </trkpt>
      <trkpt lat="49.34333" lon="-0.5154">
        <ele>4.2</ele>
        <time>2020-06-17T08:22:56Z</time>
      </trkpt>
      <trkpt lat="49.34331" lon="-0.51527">
        <ele>4.1</ele>
        <time>2020-06-17T08:22:57Z</time>
      </trkpt>
      <trkpt lat="49.34329" lon="-0.51515">
        <ele>4</ele>
        <time>2020-06-17T08:22:58Z</time>
      </trkpt>
      <trkpt lat="49.34327" lon="-0.51502">
        <ele>3.9</ele>
        <time>2020-06-17T08:22:59Z</time>
      </trkpt>
      <trkpt lat="49.34326" lon="-0.5149">
        <ele>3.8</ele>
        <time>2020-06-17T08:23:00Z</time>
      </trkpt>
      <trkpt lat="49.34324" lon="-0.51475">
        <ele>3.8</ele>
        <time>2020-06-17T08:23:01Z</time>
      </trkpt>
      <trkpt lat="49.34323" lon="-0.51462">
        <ele>3.7</ele>
        <time>2020-06-17T08:23:02Z</time>
      </trkpt>
      <trkpt lat="49.34322" lon="-0.51449">
        <ele>3.7</ele>
        <time>2020-06-17T08:23:03Z</time>
      </trkpt>
      <trkpt lat="49.34321" lon="-0.51435">
        <ele>3.7</ele>
        <time>2020-06-17T08:23:04Z</time>
      </trkpt>
      <trkpt lat="49.3432" lon="-0.51423">
        <ele>3.6</ele>
        <time>2020-06-17T08:23:05Z</time>
      </trkpt>
      <trkpt lat="49.34318" lon="-0.51409">
        <ele>3.6</ele>
        <time>2020-06-17T08:23:06Z</time>
      </trkpt>
      <trkpt lat="49.34318" lon="-0.51397">
        <ele>3.5</ele>
        <time>2020-06-17T08:23:07Z</time>
      </trkpt>
      <trkpt lat="49.34317" lon="-0.51384">
        <ele>3.5</ele>
        <time>2020-06-17T08:23:08Z</time>
      </trkpt>
      <trkpt lat="49.34316" lon="-0.51372">
        <ele>3.5</ele>
        <time>2020-06-17T08:23:09Z</time>
      </trkpt>
      <trkpt lat="49.34315" lon="-0.5136">
        <ele>3.5</ele>
        <time>2020-06-17T08:23:10Z</time>
      </trkpt>
      <trkpt lat="49.34314" lon="-0.51348">
        <ele>3.5</ele>
        <time>2020-06-17T08:23:11Z</time>
      </trkpt>
      <trkpt lat="49.34313" lon="-0.51335">
        <ele>3.5</ele>
        <time>2020-06-17T08:23:12Z</time>
      </trkpt>
      <trkpt lat="49.34311" lon="-0.51323">
        <ele>3.5</ele>
        <time>2020-06-17T08:23:13Z</time>
      </trkpt>
      <trkpt lat="49.3431" lon="-0.5131">
        <ele>3.5</ele>
        <time>2020-06-17T08:23:14Z</time>
      </trkpt>
      <trkpt lat="49.34308" lon="-0.51299">
        <ele>3.5</ele>
        <time>2020-06-17T08:23:15Z</time>
      </trkpt>
      <trkpt lat="49.34307" lon="-0.51286">
        <ele>3.4</ele>
        <time>2020-06-17T08:23:16Z</time>
      </trkpt>
      <trkpt lat="49.34306" lon="-0.51274">
        <ele>3.4</ele>
        <time>2020-06-17T08:23:17Z</time>
      </trkpt>
      <trkpt lat="49.34304" lon="-0.51261">
        <ele>3.4</ele>
        <time>2020-06-17T08:23:18Z</time>
      </trkpt>
      <trkpt lat="49.34303" lon="-0.51248">
        <ele>3.4</ele>
        <time>2020-06-17T08:23:19Z</time>
      </trkpt>
      <trkpt lat="49.34302" lon="-0.51236">
        <ele>3.4</ele>
        <time>2020-06-17T08:23:20Z</time>
      </trkpt>
      <trkpt lat="49.343" lon="-0.51225">
        <ele>3.4</ele>
        <time>2020-06-17T08:23:21Z</time>
      </trkpt>
      <trkpt lat="49.34299" lon="-0.51213">
        <ele>3.4</ele>
        <time>2020-06-17T08:23:22Z</time>
      </trkpt>
      <trkpt lat="49.34297" lon="-0.512">
        <ele>3.4</ele>
        <time>2020-06-17T08:23:23Z</time>
      </trkpt>
      <trkpt lat="49.34295" lon="-0.51188">
        <ele>3.4</ele>
        <time>2020-06-17T08:23:24Z</time>
      </trkpt>
      <trkpt lat="49.34294" lon="-0.51176">
        <ele>3.3</ele>
        <time>2020-06-17T08:23:25Z</time>
      </trkpt>
      <trkpt lat="49.34293" lon="-0.51164">
        <ele>3.3</ele>
        <time>2020-06-17T08:23:26Z</time>
      </trkpt>
      <trkpt lat="49.34291" lon="-0.51153">
        <ele>3.3</ele>
        <time>2020-06-17T08:23:27Z</time>
      </trkpt>
      <trkpt lat="49.34289" lon="-0.5114">
        <ele>3.3</ele>
        <time>2020-06-17T08:23:28Z</time>
      </trkpt>
      <trkpt lat="49.34288" lon="-0.51127">
        <ele>3.3</ele>
        <time>2020-06-17T08:23:29Z</time>
      </trkpt>
      <trkpt lat="49.34287" lon="-0.51114">
        <ele>3.3</ele>
        <time>2020-06-17T08:23:30Z</time>
      </trkpt>
      <trkpt lat="49.34285" lon="-0.51101">
        <ele>3.3</ele>
        <time>2020-06-17T08:23:31Z</time>
      </trkpt>
      <trkpt lat="49.34283" lon="-0.51084">
        <ele>3.3</ele>
        <time>2020-06-17T08:23:32Z</time>
      </trkpt>
      <trkpt lat="49.34281" lon="-0.51067">
        <ele>3.3</ele>
        <time>2020-06-17T08:23:33Z</time>
      </trkpt>
      <trkpt lat="49.3428" lon="-0.51049">
        <ele>3.3</ele>
        <time>2020-06-17T08:23:34Z</time>
      </trkpt>
      <trkpt lat="49.34278" lon="-0.51034">
        <ele>3.3</ele>
        <time>2020-06-17T08:23:35Z</time>
      </trkpt>
      <trkpt lat="49.34277" lon="-0.5102">
        <ele>3.3</ele>
        <time>2020-06-17T08:23:36Z</time>
      </trkpt>
      <trkpt lat="49.34275" lon="-0.51005">
        <ele>3.4</ele>
        <time>2020-06-17T08:23:37Z</time>
      </trkpt>
      <trkpt lat="49.34274" lon="-0.50991">
        <ele>3.4</ele>
        <time>2020-06-17T08:23:38Z</time>
      </trkpt>
      <trkpt lat="49.34273" lon="-0.50977">
        <ele>3.4</ele>
        <time>2020-06-17T08:23:39Z</time>
      </trkpt>
      <trkpt lat="49.34273" lon="-0.5096">
        <ele>3.5</ele>
        <time>2020-06-17T08:23:40Z</time>
      </trkpt>
      <trkpt lat="49.34271" lon="-0.5095">
        <ele>3.5</ele>
        <time>2020-06-17T08:23:41Z</time>
      </trkpt>
      <trkpt lat="49.3427" lon="-0.50937">
        <ele>3.5</ele>
        <time>2020-06-17T08:23:42Z</time>
      </trkpt>
      <trkpt lat="49.3427" lon="-0.50922">
        <ele>3.6</ele>
        <time>2020-06-17T08:23:43Z</time>
      </trkpt>
      <trkpt lat="49.3427" lon="-0.50906">
        <ele>3.6</ele>
        <time>2020-06-17T08:23:44Z</time>
      </trkpt>
      <trkpt lat="49.34269" lon="-0.5089">
        <ele>3.6</ele>
        <time>2020-06-17T08:23:45Z</time>
      </trkpt>
      <trkpt lat="49.34268" lon="-0.50875">
        <ele>3.5</ele>
        <time>2020-06-17T08:23:46Z</time>
      </trkpt>
      <trkpt lat="49.34267" lon="-0.50861">
        <ele>3.5</ele>
        <time>2020-06-17T08:23:47Z</time>
      </trkpt>
      <trkpt lat="49.34266" lon="-0.50849">
        <ele>3.4</ele>
        <time>2020-06-17T08:23:48Z</time>
      </trkpt>
      <trkpt lat="49.34266" lon="-0.50838">
        <ele>3.4</ele>
        <time>2020-06-17T08:23:49Z</time>
      </trkpt>
      <trkpt lat="49.34265" lon="-0.50827">
        <ele>3.4</ele>
        <time>2020-06-17T08:23:50Z</time>
      </trkpt>
      <trkpt lat="49.34266" lon="-0.50817">
        <ele>3.4</ele>
        <time>2020-06-17T08:23:51Z</time>
      </trkpt>
      <trkpt lat="49.34265" lon="-0.50809">
        <ele>3.4</ele>
        <time>2020-06-17T08:23:52Z</time>
      </trkpt>
      <trkpt lat="49.34264" lon="-0.50798">
        <ele>3.4</ele>
        <time>2020-06-17T08:23:53Z</time>
      </trkpt>
      <trkpt lat="49.34263" lon="-0.50787">
        <ele>3.4</ele>
        <time>2020-06-17T08:23:54Z</time>
      </trkpt>
      <trkpt lat="49.34261" lon="-0.50778">
        <ele>3.4</ele>
        <time>2020-06-17T08:23:55Z</time>
      </trkpt>
      <trkpt lat="49.34261" lon="-0.50769">
        <ele>3.4</ele>
        <time>2020-06-17T08:23:56Z</time>
      </trkpt>
      <trkpt lat="49.34261" lon="-0.50762">
        <ele>3.5</ele>
        <time>2020-06-17T08:23:57Z</time>
      </trkpt>
      <trkpt lat="49.3426" lon="-0.50753">
        <ele>3.5</ele>
        <time>2020-06-17T08:23:58Z</time>
      </trkpt>
      <trkpt lat="49.3426" lon="-0.50745">
        <ele>3.5</ele>
        <time>2020-06-17T08:23:59Z</time>
      </trkpt>
      <trkpt lat="49.34259" lon="-0.50738">
        <ele>3.5</ele>
        <time>2020-06-17T08:24:00Z</time>
      </trkpt>
      <trkpt lat="49.34259" lon="-0.50729">
        <ele>3.5</ele>
        <time>2020-06-17T08:24:01Z</time>
      </trkpt>
      <trkpt lat="49.34259" lon="-0.50721">
        <ele>3.5</ele>
        <time>2020-06-17T08:24:02Z</time>
      </trkpt>
      <trkpt lat="49.34259" lon="-0.50714">
        <ele>3.5</ele>
        <time>2020-06-17T08:24:03Z</time>
      </trkpt>
      <trkpt lat="49.34258" lon="-0.50707">
        <ele>3.4</ele>
        <time>2020-06-17T08:24:04Z</time>
      </trkpt>
      <trkpt lat="49.34258" lon="-0.50699">
        <ele>3.3</ele>
        <time>2020-06-17T08:24:05Z</time>
      </trkpt>
      <trkpt lat="49.34257" lon="-0.50692">
        <ele>3.3</ele>
        <time>2020-06-17T08:24:06Z</time>
      </trkpt>
      <trkpt lat="49.34256" lon="-0.50685">
        <ele>3.2</ele>
        <time>2020-06-17T08:24:07Z</time>
      </trkpt>
      <trkpt lat="49.34255" lon="-0.50677">
        <ele>3.2</ele>
        <time>2020-06-17T08:24:08Z</time>
      </trkpt>
      <trkpt lat="49.34254" lon="-0.5067">
        <ele>3.1</ele>
        <time>2020-06-17T08:24:09Z</time>
      </trkpt>
      <trkpt lat="49.34253" lon="-0.50664">
        <ele>3.1</ele>
        <time>2020-06-17T08:24:10Z</time>
      </trkpt>
      <trkpt lat="49.34252" lon="-0.50657">
        <ele>3.1</ele>
        <time>2020-06-17T08:24:11Z</time>
      </trkpt>
      <trkpt lat="49.34252" lon="-0.5065">
        <ele>3</ele>
        <time>2020-06-17T08:24:12Z</time>
      </trkpt>
      <trkpt lat="49.34252" lon="-0.50644">
        <ele>3</ele>
        <time>2020-06-17T08:24:13Z</time>
      </trkpt>
      <trkpt lat="49.34252" lon="-0.50639">
        <ele>3</ele>
        <time>2020-06-17T08:24:14Z</time>
      </trkpt>
      <trkpt lat="49.3425" lon="-0.50633">
        <ele>2.9</ele>
        <time>2020-06-17T08:24:15Z</time>
      </trkpt>
      <trkpt lat="49.3425" lon="-0.50628">
        <ele>2.9</ele>
        <time>2020-06-17T08:24:16Z</time>
      </trkpt>
      <trkpt lat="49.34248" lon="-0.50623">
        <ele>2.9</ele>
        <time>2020-06-17T08:24:17Z</time>
      </trkpt>
      <trkpt lat="49.34245" lon="-0.50621">
        <ele>2.8</ele>
        <time>2020-06-17T08:24:18Z</time>
      </trkpt>
      <trkpt lat="49.34244" lon="-0.50619">
        <ele>2.8</ele>
        <time>2020-06-17T08:24:19Z</time>
      </trkpt>
      <trkpt lat="49.34244" lon="-0.50617">
        <ele>2.8</ele>
        <time>2020-06-17T08:24:20Z</time>
      </trkpt>
      <trkpt lat="49.34245" lon="-0.50616">
        <ele>2.8</ele>
        <time>2020-06-17T08:24:21Z</time>
      </trkpt>
      <trkpt lat="49.34245" lon="-0.50614">
        <ele>2.8</ele>
        <time>2020-06-17T08:24:22Z</time>
      </trkpt>
      <trkpt lat="49.34245" lon="-0.50614">
        <ele>2.8</ele>
        <time>2020-06-17T08:24:23Z</time>
      </trkpt>
      <trkpt lat="49.34244" lon="-0.50612">
        <ele>2.8</ele>
        <time>2020-06-17T08:24:24Z</time>
      </trkpt>
      <trkpt lat="49.34244" lon="-0.50611">
        <ele>2.8</ele>
        <time>2020-06-17T08:24:25Z</time>
      </trkpt>
      <trkpt lat="49.34244" lon="-0.50611">
        <ele>2.8</ele>
        <time>2020-06-17T08:24:26Z</time>
      </trkpt>
      <trkpt lat="49.34244" lon="-0.50611">
        <ele>2.8</ele>
        <time>2020-06-17T08:24:27Z</time>
      </trkpt>
      <trkpt lat="49.34244" lon="-0.50611">
        <ele>2.8</ele>
        <time>2020-06-17T08:24:28Z</time>
      </trkpt>
      <trkpt lat="49.34244" lon="-0.5061">
        <ele>2.8</ele>
        <time>2020-06-17T08:24:29Z</time>
      </trkpt>
      <trkpt lat="49.34244" lon="-0.5061">
        <ele>2.8</ele>
        <time>2020-06-17T08:24:30Z</time>
      </trkpt>
      <trkpt lat="49.34244" lon="-0.50606">
        <ele>2.8</ele>
        <time>2020-06-17T08:24:31Z</time>
      </trkpt>
      <trkpt lat="49.34244" lon="-0.50607">
        <ele>2.8</ele>
        <time>2020-06-17T08:24:32Z</time>
      </trkpt>
      <trkpt lat="49.34245" lon="-0.50607">
        <ele>2.8</ele>
        <time>2020-06-17T08:24:33Z</time>
      </trkpt>
      <trkpt lat="49.34245" lon="-0.50607">
        <ele>2.8</ele>
        <time>2020-06-17T08:24:34Z</time>
      </trkpt>
      <trkpt lat="49.34245" lon="-0.50607">
        <ele>2.8</ele>
        <time>2020-06-17T08:24:35Z</time>
      </trkpt>
      <trkpt lat="49.34246" lon="-0.50607">
        <ele>2.8</ele>
        <time>2020-06-17T08:24:36Z</time>
      </trkpt>
      <trkpt lat="49.34246" lon="-0.50607">
        <ele>2.8</ele>
        <time>2020-06-17T08:24:37Z</time>
      </trkpt>
      <trkpt lat="49.34245" lon="-0.50607">
        <ele>2.8</ele>
        <time>2020-06-17T08:24:38Z</time>
      </trkpt>
      <trkpt lat="49.34246" lon="-0.50607">
        <ele>2.8</ele>
        <time>2020-06-17T08:24:39Z</time>
      </trkpt>
      <trkpt lat="49.34239" lon="-0.50604">
        <ele>2.7</ele>
        <time>2020-06-17T08:25:55Z</time>
      </trkpt>
      <trkpt lat="49.34239" lon="-0.50602">
        <ele>2.7</ele>
        <time>2020-06-17T08:25:56Z</time>
      </trkpt>
      <trkpt lat="49.34239" lon="-0.506">
        <ele>2.7</ele>
        <time>2020-06-17T08:25:57Z</time>
      </trkpt>
      <trkpt lat="49.34239" lon="-0.50598">
        <ele>2.7</ele>
        <time>2020-06-17T08:25:58Z</time>
      </trkpt>
      <trkpt lat="49.34239" lon="-0.50596">
        <ele>2.7</ele>
        <time>2020-06-17T08:25:59Z</time>
      </trkpt>
      <trkpt lat="49.34239" lon="-0.50594">
        <ele>2.7</ele>
        <time>2020-06-17T08:26:00Z</time>
      </trkpt>
      <trkpt lat="49.34241" lon="-0.50591">
        <ele>2.7</ele>
        <time>2020-06-17T08:26:01Z</time>
      </trkpt>
      <trkpt lat="49.34242" lon="-0.50589">
        <ele>2.7</ele>
        <time>2020-06-17T08:26:02Z</time>
      </trkpt>
      <trkpt lat="49.34242" lon="-0.50584">
        <ele>2.8</ele>
        <time>2020-06-17T08:26:03Z</time>
      </trkpt>
      <trkpt lat="49.34242" lon="-0.50581">
        <ele>2.8</ele>
        <time>2020-06-17T08:26:04Z</time>
      </trkpt>
      <trkpt lat="49.34242" lon="-0.50577">
        <ele>2.8</ele>
        <time>2020-06-17T08:26:05Z</time>
      </trkpt>
      <trkpt lat="49.34241" lon="-0.50572">
        <ele>2.8</ele>
        <time>2020-06-17T08:26:06Z</time>
      </trkpt>
      <trkpt lat="49.3424" lon="-0.50567">
        <ele>2.8</ele>
        <time>2020-06-17T08:26:07Z</time>
      </trkpt>
      <trkpt lat="49.3424" lon="-0.50562">
        <ele>2.8</ele>
        <time>2020-06-17T08:26:08Z</time>
      </trkpt>
      <trkpt lat="49.34239" lon="-0.50557">
        <ele>2.8</ele>
        <time>2020-06-17T08:26:09Z</time>
      </trkpt>
      <trkpt lat="49.3424" lon="-0.50551">
        <ele>2.7</ele>
        <time>2020-06-17T08:26:10Z</time>
      </trkpt>
      <trkpt lat="49.34239" lon="-0.50545">
        <ele>2.7</ele>
        <time>2020-06-17T08:26:11Z</time>
      </trkpt>
      <trkpt lat="49.34238" lon="-0.50538">
        <ele>2.7</ele>
        <time>2020-06-17T08:26:12Z</time>
      </trkpt>
      <trkpt lat="49.34236" lon="-0.50532">
        <ele>2.7</ele>
        <time>2020-06-17T08:26:13Z</time>
      </trkpt>
      <trkpt lat="49.34236" lon="-0.50525">
        <ele>2.6</ele>
        <time>2020-06-17T08:26:14Z</time>
      </trkpt>
      <trkpt lat="49.34235" lon="-0.50518">
        <ele>2.6</ele>
        <time>2020-06-17T08:26:15Z</time>
      </trkpt>
      <trkpt lat="49.34235" lon="-0.50511">
        <ele>2.6</ele>
        <time>2020-06-17T08:26:16Z</time>
      </trkpt>
      <trkpt lat="49.34235" lon="-0.50504">
        <ele>2.6</ele>
        <time>2020-06-17T08:26:17Z</time>
      </trkpt>
      <trkpt lat="49.34234" lon="-0.50497">
        <ele>2.6</ele>
        <time>2020-06-17T08:26:18Z</time>
      </trkpt>
      <trkpt lat="49.34235" lon="-0.50489">
        <ele>2.6</ele>
        <time>2020-06-17T08:26:19Z</time>
      </trkpt>
      <trkpt lat="49.34235" lon="-0.5048">
        <ele>2.5</ele>
        <time>2020-06-17T08:26:20Z</time>
      </trkpt>
      <trkpt lat="49.34235" lon="-0.50472">
        <ele>2.5</ele>
        <time>2020-06-17T08:26:21Z</time>
      </trkpt>
      <trkpt lat="49.34235" lon="-0.50463">
        <ele>2.5</ele>
        <time>2020-06-17T08:26:22Z</time>
      </trkpt>
      <trkpt lat="49.34234" lon="-0.50454">
        <ele>2.4</ele>
        <time>2020-06-17T08:26:23Z</time>
      </trkpt>
      <trkpt lat="49.34233" lon="-0.50445">
        <ele>2.4</ele>
        <time>2020-06-17T08:26:24Z</time>
      </trkpt>
      <trkpt lat="49.34233" lon="-0.50435">
        <ele>2.4</ele>
        <time>2020-06-17T08:26:25Z</time>
      </trkpt>
      <trkpt lat="49.34233" lon="-0.50426">
        <ele>2.3</ele>
        <time>2020-06-17T08:26:26Z</time>
      </trkpt>
      <trkpt lat="49.34232" lon="-0.50417">
        <ele>2.3</ele>
        <time>2020-06-17T08:26:27Z</time>
      </trkpt>
      <trkpt lat="49.34232" lon="-0.50407">
        <ele>2.3</ele>
        <time>2020-06-17T08:26:28Z</time>
      </trkpt>
      <trkpt lat="49.34232" lon="-0.50398">
        <ele>2.3</ele>
        <time>2020-06-17T08:26:29Z</time>
      </trkpt>
      <trkpt lat="49.34232" lon="-0.50388">
        <ele>2.3</ele>
        <time>2020-06-17T08:26:30Z</time>
      </trkpt>
      <trkpt lat="49.34231" lon="-0.50378">
        <ele>2.3</ele>
        <time>2020-06-17T08:26:31Z</time>
      </trkpt>
      <trkpt lat="49.3423" lon="-0.50368">
        <ele>2.4</ele>
        <time>2020-06-17T08:26:32Z</time>
      </trkpt>
      <trkpt lat="49.34227" lon="-0.50357">
        <ele>2.4</ele>
        <time>2020-06-17T08:26:33Z</time>
      </trkpt>
      <trkpt lat="49.34226" lon="-0.50346">
        <ele>2.4</ele>
        <time>2020-06-17T08:26:34Z</time>
      </trkpt>
      <trkpt lat="49.34225" lon="-0.50335">
        <ele>2.4</ele>
        <time>2020-06-17T08:26:35Z</time>
      </trkpt>
      <trkpt lat="49.34224" lon="-0.50324">
        <ele>2.4</ele>
        <time>2020-06-17T08:26:36Z</time>
      </trkpt>
      <trkpt lat="49.34223" lon="-0.50313">
        <ele>2.3</ele>
        <time>2020-06-17T08:26:37Z</time>
      </trkpt>
      <trkpt lat="49.34223" lon="-0.50302">
        <ele>2.3</ele>
        <time>2020-06-17T08:26:38Z</time>
      </trkpt>
      <trkpt lat="49.34223" lon="-0.5029">
        <ele>2.3</ele>
        <time>2020-06-17T08:26:39Z</time>
      </trkpt>
      <trkpt lat="49.34223" lon="-0.50278">
        <ele>2.3</ele>
        <time>2020-06-17T08:26:40Z</time>
      </trkpt>
      <trkpt lat="49.34221" lon="-0.50266">
        <ele>2.3</ele>
        <time>2020-06-17T08:26:41Z</time>
      </trkpt>
      <trkpt lat="49.34219" lon="-0.50253">
        <ele>2.3</ele>
        <time>2020-06-17T08:26:42Z</time>
      </trkpt>
      <trkpt lat="49.34217" lon="-0.50239">
        <ele>2.3</ele>
        <time>2020-06-17T08:26:43Z</time>
      </trkpt>
      <trkpt lat="49.34215" lon="-0.50226">
        <ele>2.2</ele>
        <time>2020-06-17T08:26:44Z</time>
      </trkpt>
      <trkpt lat="49.34214" lon="-0.50214">
        <ele>2.2</ele>
        <time>2020-06-17T08:26:45Z</time>
      </trkpt>
      <trkpt lat="49.34213" lon="-0.50202">
        <ele>2.2</ele>
        <time>2020-06-17T08:26:46Z</time>
      </trkpt>
      <trkpt lat="49.34212" lon="-0.5019">
        <ele>2.2</ele>
        <time>2020-06-17T08:26:47Z</time>
      </trkpt>
      <trkpt lat="49.34211" lon="-0.50179">
        <ele>2.1</ele>
        <time>2020-06-17T08:26:48Z</time>
      </trkpt>
      <trkpt lat="49.34209" lon="-0.50168">
        <ele>2.1</ele>
        <time>2020-06-17T08:26:49Z</time>
      </trkpt>
      <trkpt lat="49.34208" lon="-0.50157">
        <ele>2.1</ele>
        <time>2020-06-17T08:26:50Z</time>
      </trkpt>
      <trkpt lat="49.34208" lon="-0.50147">
        <ele>2</ele>
        <time>2020-06-17T08:26:51Z</time>
      </trkpt>
      <trkpt lat="49.34207" lon="-0.50138">
        <ele>2</ele>
        <time>2020-06-17T08:26:52Z</time>
      </trkpt>
      <trkpt lat="49.34205" lon="-0.50127">
        <ele>2</ele>
        <time>2020-06-17T08:26:53Z</time>
      </trkpt>
      <trkpt lat="49.34203" lon="-0.50117">
        <ele>2</ele>
        <time>2020-06-17T08:26:54Z</time>
      </trkpt>
      <trkpt lat="49.34201" lon="-0.50107">
        <ele>2</ele>
        <time>2020-06-17T08:26:55Z</time>
      </trkpt>
      <trkpt lat="49.342" lon="-0.50096">
        <ele>2</ele>
        <time>2020-06-17T08:26:56Z</time>
      </trkpt>
      <trkpt lat="49.342" lon="-0.50085">
        <ele>2</ele>
        <time>2020-06-17T08:26:57Z</time>
      </trkpt>
      <trkpt lat="49.34199" lon="-0.50075">
        <ele>1.9</ele>
        <time>2020-06-17T08:26:58Z</time>
      </trkpt>
      <trkpt lat="49.34197" lon="-0.50065">
        <ele>1.9</ele>
        <time>2020-06-17T08:26:59Z</time>
      </trkpt>
      <trkpt lat="49.34196" lon="-0.50055">
        <ele>1.9</ele>
        <time>2020-06-17T08:27:00Z</time>
      </trkpt>
      <trkpt lat="49.34195" lon="-0.50046">
        <ele>1.9</ele>
        <time>2020-06-17T08:27:01Z</time>
      </trkpt>
      <trkpt lat="49.34193" lon="-0.50037">
        <ele>1.9</ele>
        <time>2020-06-17T08:27:02Z</time>
      </trkpt>
      <trkpt lat="49.34192" lon="-0.50027">
        <ele>1.9</ele>
        <time>2020-06-17T08:27:03Z</time>
      </trkpt>
      <trkpt lat="49.3419" lon="-0.50018">
        <ele>1.9</ele>
        <time>2020-06-17T08:27:04Z</time>
      </trkpt>
      <trkpt lat="49.34189" lon="-0.50009">
        <ele>1.9</ele>
        <time>2020-06-17T08:27:05Z</time>
      </trkpt>
      <trkpt lat="49.34187" lon="-0.50001">
        <ele>1.9</ele>
        <time>2020-06-17T08:27:06Z</time>
      </trkpt>
      <trkpt lat="49.34186" lon="-0.49991">
        <ele>1.9</ele>
        <time>2020-06-17T08:27:07Z</time>
      </trkpt>
      <trkpt lat="49.34184" lon="-0.49982">
        <ele>1.9</ele>
        <time>2020-06-17T08:27:08Z</time>
      </trkpt>
      <trkpt lat="49.34182" lon="-0.49971">
        <ele>1.9</ele>
        <time>2020-06-17T08:27:09Z</time>
      </trkpt>
      <trkpt lat="49.34181" lon="-0.49961">
        <ele>1.9</ele>
        <time>2020-06-17T08:27:10Z</time>
      </trkpt>
      <trkpt lat="49.34179" lon="-0.49953">
        <ele>1.9</ele>
        <time>2020-06-17T08:27:11Z</time>
      </trkpt>
      <trkpt lat="49.34177" lon="-0.49942">
        <ele>1.9</ele>
        <time>2020-06-17T08:27:12Z</time>
      </trkpt>
      <trkpt lat="49.34175" lon="-0.49931">
        <ele>1.9</ele>
        <time>2020-06-17T08:27:13Z</time>
      </trkpt>
      <trkpt lat="49.34174" lon="-0.49921">
        <ele>1.8</ele>
        <time>2020-06-17T08:27:14Z</time>
      </trkpt>
      <trkpt lat="49.34173" lon="-0.49912">
        <ele>1.8</ele>
        <time>2020-06-17T08:27:15Z</time>
      </trkpt>
      <trkpt lat="49.34172" lon="-0.49902">
        <ele>1.8</ele>
        <time>2020-06-17T08:27:16Z</time>
      </trkpt>
      <trkpt lat="49.3417" lon="-0.49892">
        <ele>1.8</ele>
        <time>2020-06-17T08:27:17Z</time>
      </trkpt>
      <trkpt lat="49.34169" lon="-0.49882">
        <ele>1.8</ele>
        <time>2020-06-17T08:27:18Z</time>
      </trkpt>
      <trkpt lat="49.34167" lon="-0.49871">
        <ele>1.8</ele>
        <time>2020-06-17T08:27:19Z</time>
      </trkpt>
      <trkpt lat="49.34167" lon="-0.49861">
        <ele>1.8</ele>
        <time>2020-06-17T08:27:20Z</time>
      </trkpt>
      <trkpt lat="49.34166" lon="-0.49851">
        <ele>1.8</ele>
        <time>2020-06-17T08:27:21Z</time>
      </trkpt>
      <trkpt lat="49.34164" lon="-0.49841">
        <ele>1.8</ele>
        <time>2020-06-17T08:27:22Z</time>
      </trkpt>
      <trkpt lat="49.34163" lon="-0.49831">
        <ele>1.8</ele>
        <time>2020-06-17T08:27:23Z</time>
      </trkpt>
      <trkpt lat="49.34161" lon="-0.49821">
        <ele>1.8</ele>
        <time>2020-06-17T08:27:24Z</time>
      </trkpt>
      <trkpt lat="49.34159" lon="-0.49811">
        <ele>1.7</ele>
        <time>2020-06-17T08:27:25Z</time>
      </trkpt>
      <trkpt lat="49.34158" lon="-0.49802">
        <ele>1.7</ele>
        <time>2020-06-17T08:27:26Z</time>
      </trkpt>
      <trkpt lat="49.34157" lon="-0.49793">
        <ele>1.7</ele>
        <time>2020-06-17T08:27:27Z</time>
      </trkpt>
      <trkpt lat="49.34155" lon="-0.49783">
        <ele>1.7</ele>
        <time>2020-06-17T08:27:28Z</time>
      </trkpt>
      <trkpt lat="49.34153" lon="-0.49773">
        <ele>1.7</ele>
        <time>2020-06-17T08:27:29Z</time>
      </trkpt>
      <trkpt lat="49.34151" lon="-0.49764">
        <ele>1.7</ele>
        <time>2020-06-17T08:27:30Z</time>
      </trkpt>
      <trkpt lat="49.34149" lon="-0.49755">
        <ele>1.8</ele>
        <time>2020-06-17T08:27:31Z</time>
      </trkpt>
      <trkpt lat="49.34148" lon="-0.49744">
        <ele>1.8</ele>
        <time>2020-06-17T08:27:32Z</time>
      </trkpt>
      <trkpt lat="49.34146" lon="-0.49734">
        <ele>1.8</ele>
        <time>2020-06-17T08:27:33Z</time>
      </trkpt>
      <trkpt lat="49.34145" lon="-0.49724">
        <ele>1.8</ele>
        <time>2020-06-17T08:27:34Z</time>
      </trkpt>
      <trkpt lat="49.34144" lon="-0.49714">
        <ele>1.8</ele>
        <time>2020-06-17T08:27:35Z</time>
      </trkpt>
      <trkpt lat="49.34143" lon="-0.49703">
        <ele>1.8</ele>
        <time>2020-06-17T08:27:36Z</time>
      </trkpt>
      <trkpt lat="49.34141" lon="-0.49693">
        <ele>1.8</ele>
        <time>2020-06-17T08:27:37Z</time>
      </trkpt>
      <trkpt lat="49.34139" lon="-0.49681">
        <ele>1.7</ele>
        <time>2020-06-17T08:27:38Z</time>
      </trkpt>
      <trkpt lat="49.34136" lon="-0.49671">
        <ele>1.7</ele>
        <time>2020-06-17T08:27:39Z</time>
      </trkpt>
      <trkpt lat="49.34133" lon="-0.49661">
        <ele>1.7</ele>
        <time>2020-06-17T08:27:40Z</time>
      </trkpt>
      <trkpt lat="49.34131" lon="-0.49651">
        <ele>1.7</ele>
        <time>2020-06-17T08:27:41Z</time>
      </trkpt>
      <trkpt lat="49.3413" lon="-0.4964">
        <ele>1.7</ele>
        <time>2020-06-17T08:27:42Z</time>
      </trkpt>
      <trkpt lat="49.34128" lon="-0.49629">
        <ele>1.7</ele>
        <time>2020-06-17T08:27:43Z</time>
      </trkpt>
      <trkpt lat="49.34126" lon="-0.49617">
        <ele>1.7</ele>
        <time>2020-06-17T08:27:44Z</time>
      </trkpt>
      <trkpt lat="49.34125" lon="-0.49607">
        <ele>1.7</ele>
        <time>2020-06-17T08:27:45Z</time>
      </trkpt>
      <trkpt lat="49.34125" lon="-0.49598">
        <ele>1.7</ele>
        <time>2020-06-17T08:27:46Z</time>
      </trkpt>
      <trkpt lat="49.34124" lon="-0.49588">
        <ele>1.7</ele>
        <time>2020-06-17T08:27:47Z</time>
      </trkpt>
      <trkpt lat="49.34123" lon="-0.49578">
        <ele>1.7</ele>
        <time>2020-06-17T08:27:48Z</time>
      </trkpt>
      <trkpt lat="49.34122" lon="-0.4957">
        <ele>1.7</ele>
        <time>2020-06-17T08:27:49Z</time>
      </trkpt>
      <trkpt lat="49.3412" lon="-0.49558">
        <ele>1.7</ele>
        <time>2020-06-17T08:27:50Z</time>
      </trkpt>
      <trkpt lat="49.34118" lon="-0.49547">
        <ele>1.8</ele>
        <time>2020-06-17T08:27:51Z</time>
      </trkpt>
      <trkpt lat="49.34117" lon="-0.49538">
        <ele>1.9</ele>
        <time>2020-06-17T08:27:52Z</time>
      </trkpt>
      <trkpt lat="49.34116" lon="-0.49529">
        <ele>1.9</ele>
        <time>2020-06-17T08:27:53Z</time>
      </trkpt>
      <trkpt lat="49.34114" lon="-0.4952">
        <ele>2</ele>
        <time>2020-06-17T08:27:54Z</time>
      </trkpt>
      <trkpt lat="49.34113" lon="-0.4951">
        <ele>2.1</ele>
        <time>2020-06-17T08:27:55Z</time>
      </trkpt>
      <trkpt lat="49.34112" lon="-0.49499">
        <ele>2.2</ele>
        <time>2020-06-17T08:27:56Z</time>
      </trkpt>
      <trkpt lat="49.3411" lon="-0.49489">
        <ele>2.2</ele>
        <time>2020-06-17T08:27:57Z</time>
      </trkpt>
      <trkpt lat="49.34109" lon="-0.49479">
        <ele>2.2</ele>
        <time>2020-06-17T08:27:58Z</time>
      </trkpt>
      <trkpt lat="49.34107" lon="-0.49469">
        <ele>2.2</ele>
        <time>2020-06-17T08:27:59Z</time>
      </trkpt>
      <trkpt lat="49.34105" lon="-0.49459">
        <ele>2.2</ele>
        <time>2020-06-17T08:28:00Z</time>
      </trkpt>
      <trkpt lat="49.34103" lon="-0.49449">
        <ele>2.3</ele>
        <time>2020-06-17T08:28:01Z</time>
      </trkpt>
      <trkpt lat="49.34101" lon="-0.49438">
        <ele>2.3</ele>
        <time>2020-06-17T08:28:02Z</time>
      </trkpt>
      <trkpt lat="49.34099" lon="-0.49428">
        <ele>2.3</ele>
        <time>2020-06-17T08:28:03Z</time>
      </trkpt>
      <trkpt lat="49.34098" lon="-0.49418">
        <ele>2.3</ele>
        <time>2020-06-17T08:28:04Z</time>
      </trkpt>
      <trkpt lat="49.34096" lon="-0.49407">
        <ele>2.3</ele>
        <time>2020-06-17T08:28:05Z</time>
      </trkpt>
      <trkpt lat="49.34094" lon="-0.49396">
        <ele>2.3</ele>
        <time>2020-06-17T08:28:06Z</time>
      </trkpt>
      <trkpt lat="49.34092" lon="-0.49385">
        <ele>2.3</ele>
        <time>2020-06-17T08:28:07Z</time>
      </trkpt>
      <trkpt lat="49.3409" lon="-0.49375">
        <ele>2.3</ele>
        <time>2020-06-17T08:28:08Z</time>
      </trkpt>
      <trkpt lat="49.34087" lon="-0.49365">
        <ele>2.3</ele>
        <time>2020-06-17T08:28:09Z</time>
      </trkpt>
      <trkpt lat="49.34085" lon="-0.49356">
        <ele>2.3</ele>
        <time>2020-06-17T08:28:10Z</time>
      </trkpt>
      <trkpt lat="49.34083" lon="-0.49347">
        <ele>2.3</ele>
        <time>2020-06-17T08:28:11Z</time>
      </trkpt>
      <trkpt lat="49.34081" lon="-0.49337">
        <ele>2.3</ele>
        <time>2020-06-17T08:28:12Z</time>
      </trkpt>
      <trkpt lat="49.34079" lon="-0.49326">
        <ele>2.3</ele>
        <time>2020-06-17T08:28:13Z</time>
      </trkpt>
      <trkpt lat="49.34076" lon="-0.49315">
        <ele>2.3</ele>
        <time>2020-06-17T08:28:14Z</time>
      </trkpt>
      <trkpt lat="49.34075" lon="-0.49305">
        <ele>2.2</ele>
        <time>2020-06-17T08:28:15Z</time>
      </trkpt>
      <trkpt lat="49.34072" lon="-0.49295">
        <ele>2.2</ele>
        <time>2020-06-17T08:28:16Z</time>
      </trkpt>
      <trkpt lat="49.3407" lon="-0.49284">
        <ele>2.2</ele>
        <time>2020-06-17T08:28:17Z</time>
      </trkpt>
      <trkpt lat="49.34068" lon="-0.49273">
        <ele>2.2</ele>
        <time>2020-06-17T08:28:18Z</time>
      </trkpt>
      <trkpt lat="49.34066" lon="-0.49262">
        <ele>2.2</ele>
        <time>2020-06-17T08:28:19Z</time>
      </trkpt>
      <trkpt lat="49.34064" lon="-0.49251">
        <ele>2.3</ele>
        <time>2020-06-17T08:28:20Z</time>
      </trkpt>
      <trkpt lat="49.34061" lon="-0.4924">
        <ele>2.3</ele>
        <time>2020-06-17T08:28:21Z</time>
      </trkpt>
      <trkpt lat="49.34058" lon="-0.49228">
        <ele>2.3</ele>
        <time>2020-06-17T08:28:22Z</time>
      </trkpt>
      <trkpt lat="49.34056" lon="-0.49218">
        <ele>2.3</ele>
        <time>2020-06-17T08:28:23Z</time>
      </trkpt>
      <trkpt lat="49.34053" lon="-0.49207">
        <ele>2.3</ele>
        <time>2020-06-17T08:28:24Z</time>
      </trkpt>
      <trkpt lat="49.34052" lon="-0.49196">
        <ele>2.3</ele>
        <time>2020-06-17T08:28:25Z</time>
      </trkpt>
      <trkpt lat="49.3405" lon="-0.49184">
        <ele>2.3</ele>
        <time>2020-06-17T08:28:26Z</time>
      </trkpt>
      <trkpt lat="49.34048" lon="-0.49172">
        <ele>2.3</ele>
        <time>2020-06-17T08:28:27Z</time>
      </trkpt>
      <trkpt lat="49.34046" lon="-0.4916">
        <ele>2.3</ele>
        <time>2020-06-17T08:28:28Z</time>
      </trkpt>
      <trkpt lat="49.34044" lon="-0.49149">
        <ele>2.3</ele>
        <time>2020-06-17T08:28:29Z</time>
      </trkpt>
      <trkpt lat="49.34042" lon="-0.49138">
        <ele>2.3</ele>
        <time>2020-06-17T08:28:30Z</time>
      </trkpt>
      <trkpt lat="49.3404" lon="-0.49126">
        <ele>2.3</ele>
        <time>2020-06-17T08:28:31Z</time>
      </trkpt>
      <trkpt lat="49.34038" lon="-0.49114">
        <ele>2.4</ele>
        <time>2020-06-17T08:28:32Z</time>
      </trkpt>
      <trkpt lat="49.34036" lon="-0.49102">
        <ele>2.4</ele>
        <time>2020-06-17T08:28:33Z</time>
      </trkpt>
      <trkpt lat="49.34033" lon="-0.49091">
        <ele>2.4</ele>
        <time>2020-06-17T08:28:34Z</time>
      </trkpt>
      <trkpt lat="49.3403" lon="-0.4908">
        <ele>2.3</ele>
        <time>2020-06-17T08:28:35Z</time>
      </trkpt>
      <trkpt lat="49.34028" lon="-0.49068">
        <ele>2.3</ele>
        <time>2020-06-17T08:28:36Z</time>
      </trkpt>
      <trkpt lat="49.34025" lon="-0.49057">
        <ele>2.3</ele>
        <time>2020-06-17T08:28:37Z</time>
      </trkpt>
      <trkpt lat="49.34022" lon="-0.49047">
        <ele>2.2</ele>
        <time>2020-06-17T08:28:38Z</time>
      </trkpt>
      <trkpt lat="49.3402" lon="-0.49036">
        <ele>2.2</ele>
        <time>2020-06-17T08:28:39Z</time>
      </trkpt>
      <trkpt lat="49.34018" lon="-0.49026">
        <ele>2.2</ele>
        <time>2020-06-17T08:28:40Z</time>
      </trkpt>
      <trkpt lat="49.34015" lon="-0.49016">
        <ele>2.2</ele>
        <time>2020-06-17T08:28:41Z</time>
      </trkpt>
      <trkpt lat="49.34013" lon="-0.49005">
        <ele>2.1</ele>
        <time>2020-06-17T08:28:42Z</time>
      </trkpt>
      <trkpt lat="49.3401" lon="-0.48995">
        <ele>2.1</ele>
        <time>2020-06-17T08:28:43Z</time>
      </trkpt>
      <trkpt lat="49.34008" lon="-0.48984">
        <ele>2.1</ele>
        <time>2020-06-17T08:28:44Z</time>
      </trkpt>
      <trkpt lat="49.34005" lon="-0.48973">
        <ele>2.1</ele>
        <time>2020-06-17T08:28:45Z</time>
      </trkpt>
      <trkpt lat="49.34003" lon="-0.48962">
        <ele>2.1</ele>
        <time>2020-06-17T08:28:46Z</time>
      </trkpt>
      <trkpt lat="49.34002" lon="-0.48951">
        <ele>2.1</ele>
        <time>2020-06-17T08:28:47Z</time>
      </trkpt>
      <trkpt lat="49.34001" lon="-0.4894">
        <ele>2.1</ele>
        <time>2020-06-17T08:28:48Z</time>
      </trkpt>
      <trkpt lat="49.33999" lon="-0.48929">
        <ele>2.1</ele>
        <time>2020-06-17T08:28:49Z</time>
      </trkpt>
      <trkpt lat="49.33996" lon="-0.48918">
        <ele>2.1</ele>
        <time>2020-06-17T08:28:50Z</time>
      </trkpt>
      <trkpt lat="49.33994" lon="-0.48907">
        <ele>2.1</ele>
        <time>2020-06-17T08:28:51Z</time>
      </trkpt>
      <trkpt lat="49.33992" lon="-0.48896">
        <ele>2.1</ele>
        <time>2020-06-17T08:28:52Z</time>
      </trkpt>
      <trkpt lat="49.3399" lon="-0.48885">
        <ele>2.1</ele>
        <time>2020-06-17T08:28:53Z</time>
      </trkpt>
      <trkpt lat="49.33987" lon="-0.48873">
        <ele>2.1</ele>
        <time>2020-06-17T08:28:54Z</time>
      </trkpt>
      <trkpt lat="49.33985" lon="-0.48862">
        <ele>2.1</ele>
        <time>2020-06-17T08:28:55Z</time>
      </trkpt>
      <trkpt lat="49.33982" lon="-0.48851">
        <ele>2.1</ele>
        <time>2020-06-17T08:28:56Z</time>
      </trkpt>
      <trkpt lat="49.3398" lon="-0.48841">
        <ele>2.1</ele>
        <time>2020-06-17T08:28:57Z</time>
      </trkpt>
      <trkpt lat="49.33979" lon="-0.48831">
        <ele>2.1</ele>
        <time>2020-06-17T08:28:58Z</time>
      </trkpt>
      <trkpt lat="49.33977" lon="-0.4882">
        <ele>2.2</ele>
        <time>2020-06-17T08:28:59Z</time>
      </trkpt>
      <trkpt lat="49.33975" lon="-0.48808">
        <ele>2.2</ele>
        <time>2020-06-17T08:29:00Z</time>
      </trkpt>
      <trkpt lat="49.33973" lon="-0.48797">
        <ele>2.2</ele>
        <time>2020-06-17T08:29:01Z</time>
      </trkpt>
      <trkpt lat="49.3397" lon="-0.48786">
        <ele>2.2</ele>
        <time>2020-06-17T08:29:02Z</time>
      </trkpt>
      <trkpt lat="49.33969" lon="-0.48776">
        <ele>2.2</ele>
        <time>2020-06-17T08:29:03Z</time>
      </trkpt>
      <trkpt lat="49.33967" lon="-0.48766">
        <ele>2.2</ele>
        <time>2020-06-17T08:29:04Z</time>
      </trkpt>
      <trkpt lat="49.33965" lon="-0.48757">
        <ele>2.3</ele>
        <time>2020-06-17T08:29:05Z</time>
      </trkpt>
      <trkpt lat="49.33964" lon="-0.48748">
        <ele>2.3</ele>
        <time>2020-06-17T08:29:06Z</time>
      </trkpt>
      <trkpt lat="49.33962" lon="-0.48738">
        <ele>2.3</ele>
        <time>2020-06-17T08:29:07Z</time>
      </trkpt>
      <trkpt lat="49.3396" lon="-0.48728">
        <ele>2.3</ele>
        <time>2020-06-17T08:29:08Z</time>
      </trkpt>
      <trkpt lat="49.33958" lon="-0.48718">
        <ele>2.3</ele>
        <time>2020-06-17T08:29:09Z</time>
      </trkpt>
      <trkpt lat="49.33955" lon="-0.48708">
        <ele>2.3</ele>
        <time>2020-06-17T08:29:10Z</time>
      </trkpt>
      <trkpt lat="49.33953" lon="-0.48698">
        <ele>2.3</ele>
        <time>2020-06-17T08:29:11Z</time>
      </trkpt>
      <trkpt lat="49.33951" lon="-0.48688">
        <ele>2.3</ele>
        <time>2020-06-17T08:29:12Z</time>
      </trkpt>
      <trkpt lat="49.33948" lon="-0.48679">
        <ele>2.3</ele>
        <time>2020-06-17T08:29:13Z</time>
      </trkpt>
      <trkpt lat="49.33946" lon="-0.48669">
        <ele>2.3</ele>
        <time>2020-06-17T08:29:14Z</time>
      </trkpt>
      <trkpt lat="49.33944" lon="-0.48659">
        <ele>2.3</ele>
        <time>2020-06-17T08:29:15Z</time>
      </trkpt>
      <trkpt lat="49.33942" lon="-0.48648">
        <ele>2.3</ele>
        <time>2020-06-17T08:29:16Z</time>
      </trkpt>
      <trkpt lat="49.33939" lon="-0.48637">
        <ele>2.4</ele>
        <time>2020-06-17T08:29:17Z</time>
      </trkpt>
      <trkpt lat="49.33936" lon="-0.48626">
        <ele>2.4</ele>
        <time>2020-06-17T08:29:18Z</time>
      </trkpt>
      <trkpt lat="49.33934" lon="-0.48616">
        <ele>2.4</ele>
        <time>2020-06-17T08:29:19Z</time>
      </trkpt>
      <trkpt lat="49.33932" lon="-0.48606">
        <ele>2.3</ele>
        <time>2020-06-17T08:29:20Z</time>
      </trkpt>
      <trkpt lat="49.33929" lon="-0.48595">
        <ele>2.2</ele>
        <time>2020-06-17T08:29:21Z</time>
      </trkpt>
      <trkpt lat="49.33926" lon="-0.48584">
        <ele>2.2</ele>
        <time>2020-06-17T08:29:22Z</time>
      </trkpt>
      <trkpt lat="49.33923" lon="-0.48574">
        <ele>2.2</ele>
        <time>2020-06-17T08:29:23Z</time>
      </trkpt>
      <trkpt lat="49.3392" lon="-0.48563">
        <ele>2.1</ele>
        <time>2020-06-17T08:29:24Z</time>
      </trkpt>
      <trkpt lat="49.33917" lon="-0.48552">
        <ele>2.1</ele>
        <time>2020-06-17T08:29:25Z</time>
      </trkpt>
      <trkpt lat="49.33914" lon="-0.48541">
        <ele>2.1</ele>
        <time>2020-06-17T08:29:26Z</time>
      </trkpt>
      <trkpt lat="49.33911" lon="-0.4853">
        <ele>2</ele>
        <time>2020-06-17T08:29:27Z</time>
      </trkpt>
      <trkpt lat="49.33907" lon="-0.48518">
        <ele>2</ele>
        <time>2020-06-17T08:29:28Z</time>
      </trkpt>
      <trkpt lat="49.33904" lon="-0.48507">
        <ele>2</ele>
        <time>2020-06-17T08:29:29Z</time>
      </trkpt>
      <trkpt lat="49.33902" lon="-0.48498">
        <ele>2</ele>
        <time>2020-06-17T08:29:30Z</time>
      </trkpt>
      <trkpt lat="49.33899" lon="-0.48489">
        <ele>2</ele>
        <time>2020-06-17T08:29:31Z</time>
      </trkpt>
      <trkpt lat="49.33897" lon="-0.48478">
        <ele>2</ele>
        <time>2020-06-17T08:29:32Z</time>
      </trkpt>
      <trkpt lat="49.33894" lon="-0.48468">
        <ele>2</ele>
        <time>2020-06-17T08:29:33Z</time>
      </trkpt>
      <trkpt lat="49.33891" lon="-0.48457">
        <ele>2</ele>
        <time>2020-06-17T08:29:34Z</time>
      </trkpt>
      <trkpt lat="49.33887" lon="-0.48446">
        <ele>1.9</ele>
        <time>2020-06-17T08:29:35Z</time>
      </trkpt>
      <trkpt lat="49.33883" lon="-0.48434">
        <ele>1.9</ele>
        <time>2020-06-17T08:29:36Z</time>
      </trkpt>
      <trkpt lat="49.3388" lon="-0.48423">
        <ele>1.8</ele>
        <time>2020-06-17T08:29:37Z</time>
      </trkpt>
      <trkpt lat="49.33877" lon="-0.48412">
        <ele>1.8</ele>
        <time>2020-06-17T08:29:38Z</time>
      </trkpt>
      <trkpt lat="49.33874" lon="-0.48401">
        <ele>1.7</ele>
        <time>2020-06-17T08:29:39Z</time>
      </trkpt>
      <trkpt lat="49.33871" lon="-0.4839">
        <ele>1.7</ele>
        <time>2020-06-17T08:29:40Z</time>
      </trkpt>
      <trkpt lat="49.33868" lon="-0.48378">
        <ele>1.7</ele>
        <time>2020-06-17T08:29:41Z</time>
      </trkpt>
      <trkpt lat="49.33865" lon="-0.48367">
        <ele>1.8</ele>
        <time>2020-06-17T08:29:42Z</time>
      </trkpt>
      <trkpt lat="49.33862" lon="-0.48355">
        <ele>1.8</ele>
        <time>2020-06-17T08:29:43Z</time>
      </trkpt>
      <trkpt lat="49.33858" lon="-0.48344">
        <ele>1.8</ele>
        <time>2020-06-17T08:29:44Z</time>
      </trkpt>
      <trkpt lat="49.33854" lon="-0.48333">
        <ele>1.8</ele>
        <time>2020-06-17T08:29:45Z</time>
      </trkpt>
      <trkpt lat="49.3385" lon="-0.48321">
        <ele>1.8</ele>
        <time>2020-06-17T08:29:46Z</time>
      </trkpt>
      <trkpt lat="49.33846" lon="-0.48309">
        <ele>1.8</ele>
        <time>2020-06-17T08:29:47Z</time>
      </trkpt>
      <trkpt lat="49.33842" lon="-0.48298">
        <ele>1.8</ele>
        <time>2020-06-17T08:29:48Z</time>
      </trkpt>
      <trkpt lat="49.33838" lon="-0.48288">
        <ele>1.7</ele>
        <time>2020-06-17T08:29:49Z</time>
      </trkpt>
      <trkpt lat="49.33835" lon="-0.48277">
        <ele>1.7</ele>
        <time>2020-06-17T08:29:50Z</time>
      </trkpt>
      <trkpt lat="49.33832" lon="-0.48266">
        <ele>1.8</ele>
        <time>2020-06-17T08:29:51Z</time>
      </trkpt>
      <trkpt lat="49.33829" lon="-0.48255">
        <ele>1.8</ele>
        <time>2020-06-17T08:29:52Z</time>
      </trkpt>
      <trkpt lat="49.33827" lon="-0.48246">
        <ele>1.8</ele>
        <time>2020-06-17T08:29:53Z</time>
      </trkpt>
      <trkpt lat="49.33824" lon="-0.48237">
        <ele>1.8</ele>
        <time>2020-06-17T08:29:54Z</time>
      </trkpt>
      <trkpt lat="49.33821" lon="-0.48228">
        <ele>1.8</ele>
        <time>2020-06-17T08:29:55Z</time>
      </trkpt>
      <trkpt lat="49.33819" lon="-0.48219">
        <ele>1.8</ele>
        <time>2020-06-17T08:29:56Z</time>
      </trkpt>
      <trkpt lat="49.33817" lon="-0.48209">
        <ele>1.8</ele>
        <time>2020-06-17T08:29:57Z</time>
      </trkpt>
      <trkpt lat="49.33814" lon="-0.48198">
        <ele>1.8</ele>
        <time>2020-06-17T08:29:58Z</time>
      </trkpt>
      <trkpt lat="49.33811" lon="-0.48187">
        <ele>1.8</ele>
        <time>2020-06-17T08:29:59Z</time>
      </trkpt>
      <trkpt lat="49.33809" lon="-0.48175">
        <ele>1.7</ele>
        <time>2020-06-17T08:30:00Z</time>
      </trkpt>
      <trkpt lat="49.33806" lon="-0.48164">
        <ele>1.7</ele>
        <time>2020-06-17T08:30:01Z</time>
      </trkpt>
      <trkpt lat="49.33804" lon="-0.48154">
        <ele>1.7</ele>
        <time>2020-06-17T08:30:02Z</time>
      </trkpt>
      <trkpt lat="49.33801" lon="-0.48143">
        <ele>1.7</ele>
        <time>2020-06-17T08:30:03Z</time>
      </trkpt>
      <trkpt lat="49.33798" lon="-0.48133">
        <ele>1.7</ele>
        <time>2020-06-17T08:30:04Z</time>
      </trkpt>
      <trkpt lat="49.33796" lon="-0.48123">
        <ele>1.8</ele>
        <time>2020-06-17T08:30:05Z</time>
      </trkpt>
      <trkpt lat="49.33793" lon="-0.48114">
        <ele>1.8</ele>
        <time>2020-06-17T08:30:06Z</time>
      </trkpt>
      <trkpt lat="49.3379" lon="-0.48104">
        <ele>1.9</ele>
        <time>2020-06-17T08:30:07Z</time>
      </trkpt>
      <trkpt lat="49.33787" lon="-0.48093">
        <ele>2.1</ele>
        <time>2020-06-17T08:30:08Z</time>
      </trkpt>
      <trkpt lat="49.33784" lon="-0.48083">
        <ele>2.1</ele>
        <time>2020-06-17T08:30:09Z</time>
      </trkpt>
      <trkpt lat="49.33781" lon="-0.48073">
        <ele>2.1</ele>
        <time>2020-06-17T08:30:10Z</time>
      </trkpt>
      <trkpt lat="49.33779" lon="-0.48063">
        <ele>2</ele>
        <time>2020-06-17T08:30:11Z</time>
      </trkpt>
      <trkpt lat="49.33776" lon="-0.48053">
        <ele>2</ele>
        <time>2020-06-17T08:30:12Z</time>
      </trkpt>
      <trkpt lat="49.33774" lon="-0.48043">
        <ele>2</ele>
        <time>2020-06-17T08:30:13Z</time>
      </trkpt>
      <trkpt lat="49.33771" lon="-0.48034">
        <ele>2</ele>
        <time>2020-06-17T08:30:14Z</time>
      </trkpt>
      <trkpt lat="49.33769" lon="-0.48024">
        <ele>1.9</ele>
        <time>2020-06-17T08:30:15Z</time>
      </trkpt>
      <trkpt lat="49.33766" lon="-0.48014">
        <ele>1.9</ele>
        <time>2020-06-17T08:30:16Z</time>
      </trkpt>
      <trkpt lat="49.33763" lon="-0.48003">
        <ele>1.9</ele>
        <time>2020-06-17T08:30:17Z</time>
      </trkpt>
      <trkpt lat="49.33761" lon="-0.47993">
        <ele>1.9</ele>
        <time>2020-06-17T08:30:18Z</time>
      </trkpt>
      <trkpt lat="49.33758" lon="-0.47982">
        <ele>1.9</ele>
        <time>2020-06-17T08:30:19Z</time>
      </trkpt>
      <trkpt lat="49.33756" lon="-0.47973">
        <ele>1.9</ele>
        <time>2020-06-17T08:30:20Z</time>
      </trkpt>
      <trkpt lat="49.33754" lon="-0.47963">
        <ele>1.9</ele>
        <time>2020-06-17T08:30:21Z</time>
      </trkpt>
      <trkpt lat="49.3375" lon="-0.47953">
        <ele>1.9</ele>
        <time>2020-06-17T08:30:22Z</time>
      </trkpt>
      <trkpt lat="49.33747" lon="-0.47943">
        <ele>1.9</ele>
        <time>2020-06-17T08:30:23Z</time>
      </trkpt>
      <trkpt lat="49.33744" lon="-0.47933">
        <ele>1.9</ele>
        <time>2020-06-17T08:30:24Z</time>
      </trkpt>
      <trkpt lat="49.3374" lon="-0.47924">
        <ele>1.9</ele>
        <time>2020-06-17T08:30:25Z</time>
      </trkpt>
      <trkpt lat="49.33736" lon="-0.47914">
        <ele>1.9</ele>
        <time>2020-06-17T08:30:26Z</time>
      </trkpt>
      <trkpt lat="49.33733" lon="-0.47903">
        <ele>1.9</ele>
        <time>2020-06-17T08:30:27Z</time>
      </trkpt>
      <trkpt lat="49.3373" lon="-0.47893">
        <ele>1.8</ele>
        <time>2020-06-17T08:30:28Z</time>
      </trkpt>
      <trkpt lat="49.33727" lon="-0.47883">
        <ele>1.8</ele>
        <time>2020-06-17T08:30:29Z</time>
      </trkpt>
      <trkpt lat="49.33724" lon="-0.47871">
        <ele>1.9</ele>
        <time>2020-06-17T08:30:30Z</time>
      </trkpt>
      <trkpt lat="49.33722" lon="-0.4786">
        <ele>1.9</ele>
        <time>2020-06-17T08:30:31Z</time>
      </trkpt>
      <trkpt lat="49.33719" lon="-0.47849">
        <ele>2</ele>
        <time>2020-06-17T08:30:32Z</time>
      </trkpt>
      <trkpt lat="49.33716" lon="-0.4784">
        <ele>2</ele>
        <time>2020-06-17T08:30:33Z</time>
      </trkpt>
      <trkpt lat="49.33714" lon="-0.47831">
        <ele>2.1</ele>
        <time>2020-06-17T08:30:34Z</time>
      </trkpt>
      <trkpt lat="49.33711" lon="-0.4782">
        <ele>2.2</ele>
        <time>2020-06-17T08:30:35Z</time>
      </trkpt>
      <trkpt lat="49.33709" lon="-0.47811">
        <ele>2.3</ele>
        <time>2020-06-17T08:30:36Z</time>
      </trkpt>
      <trkpt lat="49.33707" lon="-0.47801">
        <ele>2.3</ele>
        <time>2020-06-17T08:30:37Z</time>
      </trkpt>
      <trkpt lat="49.33704" lon="-0.47792">
        <ele>2.3</ele>
        <time>2020-06-17T08:30:38Z</time>
      </trkpt>
      <trkpt lat="49.33701" lon="-0.47782">
        <ele>2.4</ele>
        <time>2020-06-17T08:30:39Z</time>
      </trkpt>
      <trkpt lat="49.33699" lon="-0.47773">
        <ele>2.4</ele>
        <time>2020-06-17T08:30:40Z</time>
      </trkpt>
      <trkpt lat="49.33696" lon="-0.47764">
        <ele>2.4</ele>
        <time>2020-06-17T08:30:41Z</time>
      </trkpt>
      <trkpt lat="49.33693" lon="-0.47754">
        <ele>2.4</ele>
        <time>2020-06-17T08:30:42Z</time>
      </trkpt>
      <trkpt lat="49.3369" lon="-0.47744">
        <ele>2.4</ele>
        <time>2020-06-17T08:30:43Z</time>
      </trkpt>
      <trkpt lat="49.33687" lon="-0.47734">
        <ele>2.4</ele>
        <time>2020-06-17T08:30:44Z</time>
      </trkpt>
      <trkpt lat="49.33685" lon="-0.47724">
        <ele>2.4</ele>
        <time>2020-06-17T08:30:45Z</time>
      </trkpt>
      <trkpt lat="49.33683" lon="-0.47714">
        <ele>2.4</ele>
        <time>2020-06-17T08:30:46Z</time>
      </trkpt>
      <trkpt lat="49.33681" lon="-0.47703">
        <ele>2.3</ele>
        <time>2020-06-17T08:30:47Z</time>
      </trkpt>
      <trkpt lat="49.33678" lon="-0.47694">
        <ele>2.3</ele>
        <time>2020-06-17T08:30:48Z</time>
      </trkpt>
      <trkpt lat="49.33675" lon="-0.47684">
        <ele>2.2</ele>
        <time>2020-06-17T08:30:49Z</time>
      </trkpt>
      <trkpt lat="49.33672" lon="-0.47674">
        <ele>2.2</ele>
        <time>2020-06-17T08:30:50Z</time>
      </trkpt>
      <trkpt lat="49.33669" lon="-0.47663">
        <ele>2.2</ele>
        <time>2020-06-17T08:30:51Z</time>
      </trkpt>
      <trkpt lat="49.33666" lon="-0.47653">
        <ele>2.3</ele>
        <time>2020-06-17T08:30:52Z</time>
      </trkpt>
      <trkpt lat="49.33662" lon="-0.47642">
        <ele>2.3</ele>
        <time>2020-06-17T08:30:53Z</time>
      </trkpt>
      <trkpt lat="49.33659" lon="-0.47632">
        <ele>2.4</ele>
        <time>2020-06-17T08:30:54Z</time>
      </trkpt>
      <trkpt lat="49.33656" lon="-0.47621">
        <ele>2.4</ele>
        <time>2020-06-17T08:30:55Z</time>
      </trkpt>
      <trkpt lat="49.33652" lon="-0.4761">
        <ele>2.4</ele>
        <time>2020-06-17T08:30:56Z</time>
      </trkpt>
      <trkpt lat="49.33648" lon="-0.47599">
        <ele>2.4</ele>
        <time>2020-06-17T08:30:57Z</time>
      </trkpt>
      <trkpt lat="49.33645" lon="-0.4759">
        <ele>2.4</ele>
        <time>2020-06-17T08:30:58Z</time>
      </trkpt>
      <trkpt lat="49.33641" lon="-0.47581">
        <ele>2.4</ele>
        <time>2020-06-17T08:30:59Z</time>
      </trkpt>
      <trkpt lat="49.33638" lon="-0.47571">
        <ele>2.4</ele>
        <time>2020-06-17T08:31:00Z</time>
      </trkpt>
      <trkpt lat="49.33635" lon="-0.47561">
        <ele>2.4</ele>
        <time>2020-06-17T08:31:01Z</time>
      </trkpt>
      <trkpt lat="49.33632" lon="-0.47551">
        <ele>2.4</ele>
        <time>2020-06-17T08:31:02Z</time>
      </trkpt>
      <trkpt lat="49.3363" lon="-0.47542">
        <ele>2.4</ele>
        <time>2020-06-17T08:31:03Z</time>
      </trkpt>
      <trkpt lat="49.33627" lon="-0.47533">
        <ele>2.4</ele>
        <time>2020-06-17T08:31:04Z</time>
      </trkpt>
      <trkpt lat="49.33625" lon="-0.47524">
        <ele>2.4</ele>
        <time>2020-06-17T08:31:05Z</time>
      </trkpt>
      <trkpt lat="49.33622" lon="-0.47516">
        <ele>2.4</ele>
        <time>2020-06-17T08:31:06Z</time>
      </trkpt>
      <trkpt lat="49.33619" lon="-0.47506">
        <ele>2.3</ele>
        <time>2020-06-17T08:31:07Z</time>
      </trkpt>
      <trkpt lat="49.33616" lon="-0.47496">
        <ele>2.3</ele>
        <time>2020-06-17T08:31:08Z</time>
      </trkpt>
      <trkpt lat="49.33613" lon="-0.47485">
        <ele>2.3</ele>
        <time>2020-06-17T08:31:09Z</time>
      </trkpt>
      <trkpt lat="49.3361" lon="-0.47474">
        <ele>2.2</ele>
        <time>2020-06-17T08:31:10Z</time>
      </trkpt>
      <trkpt lat="49.33607" lon="-0.47463">
        <ele>2.2</ele>
        <time>2020-06-17T08:31:11Z</time>
      </trkpt>
      <trkpt lat="49.33603" lon="-0.47451">
        <ele>2.2</ele>
        <time>2020-06-17T08:31:12Z</time>
      </trkpt>
      <trkpt lat="49.33599" lon="-0.47439">
        <ele>2.2</ele>
        <time>2020-06-17T08:31:13Z</time>
      </trkpt>
      <trkpt lat="49.33596" lon="-0.47428">
        <ele>2.2</ele>
        <time>2020-06-17T08:31:14Z</time>
      </trkpt>
      <trkpt lat="49.33593" lon="-0.47419">
        <ele>2.2</ele>
        <time>2020-06-17T08:31:15Z</time>
      </trkpt>
      <trkpt lat="49.33589" lon="-0.47408">
        <ele>2.2</ele>
        <time>2020-06-17T08:31:16Z</time>
      </trkpt>
      <trkpt lat="49.33586" lon="-0.47397">
        <ele>2.2</ele>
        <time>2020-06-17T08:31:17Z</time>
      </trkpt>
      <trkpt lat="49.33583" lon="-0.47387">
        <ele>2.2</ele>
        <time>2020-06-17T08:31:18Z</time>
      </trkpt>
      <trkpt lat="49.33581" lon="-0.47377">
        <ele>2.1</ele>
        <time>2020-06-17T08:31:19Z</time>
      </trkpt>
      <trkpt lat="49.33578" lon="-0.47366">
        <ele>2.1</ele>
        <time>2020-06-17T08:31:20Z</time>
      </trkpt>
      <trkpt lat="49.33576" lon="-0.47355">
        <ele>2.1</ele>
        <time>2020-06-17T08:31:21Z</time>
      </trkpt>
      <trkpt lat="49.33573" lon="-0.47345">
        <ele>2.1</ele>
        <time>2020-06-17T08:31:22Z</time>
      </trkpt>
      <trkpt lat="49.3357" lon="-0.47334">
        <ele>2.1</ele>
        <time>2020-06-17T08:31:23Z</time>
      </trkpt>
      <trkpt lat="49.33567" lon="-0.47324">
        <ele>2.1</ele>
        <time>2020-06-17T08:31:24Z</time>
      </trkpt>
      <trkpt lat="49.33564" lon="-0.47313">
        <ele>2.1</ele>
        <time>2020-06-17T08:31:25Z</time>
      </trkpt>
      <trkpt lat="49.33561" lon="-0.47303">
        <ele>2.1</ele>
        <time>2020-06-17T08:31:26Z</time>
      </trkpt>
      <trkpt lat="49.33559" lon="-0.47293">
        <ele>2.1</ele>
        <time>2020-06-17T08:31:27Z</time>
      </trkpt>
      <trkpt lat="49.33556" lon="-0.47283">
        <ele>2.1</ele>
        <time>2020-06-17T08:31:28Z</time>
      </trkpt>
      <trkpt lat="49.33553" lon="-0.47273">
        <ele>2</ele>
        <time>2020-06-17T08:31:29Z</time>
      </trkpt>
      <trkpt lat="49.33551" lon="-0.47261">
        <ele>2</ele>
        <time>2020-06-17T08:31:30Z</time>
      </trkpt>
      <trkpt lat="49.33549" lon="-0.47252">
        <ele>2</ele>
        <time>2020-06-17T08:31:31Z</time>
      </trkpt>
      <trkpt lat="49.33546" lon="-0.47242">
        <ele>2</ele>
        <time>2020-06-17T08:31:32Z</time>
      </trkpt>
      <trkpt lat="49.33543" lon="-0.47233">
        <ele>2</ele>
        <time>2020-06-17T08:31:33Z</time>
      </trkpt>
      <trkpt lat="49.3354" lon="-0.47223">
        <ele>2.1</ele>
        <time>2020-06-17T08:31:34Z</time>
      </trkpt>
      <trkpt lat="49.33537" lon="-0.47213">
        <ele>2.1</ele>
        <time>2020-06-17T08:31:35Z</time>
      </trkpt>
      <trkpt lat="49.33534" lon="-0.47203">
        <ele>2.1</ele>
        <time>2020-06-17T08:31:36Z</time>
      </trkpt>
      <trkpt lat="49.33531" lon="-0.47195">
        <ele>2.1</ele>
        <time>2020-06-17T08:31:37Z</time>
      </trkpt>
      <trkpt lat="49.33528" lon="-0.47185">
        <ele>2.2</ele>
        <time>2020-06-17T08:31:38Z</time>
      </trkpt>
      <trkpt lat="49.33525" lon="-0.47175">
        <ele>2.2</ele>
        <time>2020-06-17T08:31:39Z</time>
      </trkpt>
      <trkpt lat="49.33522" lon="-0.47165">
        <ele>2.2</ele>
        <time>2020-06-17T08:31:40Z</time>
      </trkpt>
      <trkpt lat="49.33519" lon="-0.47156">
        <ele>2.2</ele>
        <time>2020-06-17T08:31:41Z</time>
      </trkpt>
      <trkpt lat="49.33516" lon="-0.47147">
        <ele>2.2</ele>
        <time>2020-06-17T08:31:42Z</time>
      </trkpt>
      <trkpt lat="49.33513" lon="-0.47138">
        <ele>2.2</ele>
        <time>2020-06-17T08:31:43Z</time>
      </trkpt>
      <trkpt lat="49.3351" lon="-0.47127">
        <ele>2.3</ele>
        <time>2020-06-17T08:31:44Z</time>
      </trkpt>
      <trkpt lat="49.33506" lon="-0.47117">
        <ele>2.4</ele>
        <time>2020-06-17T08:31:45Z</time>
      </trkpt>
      <trkpt lat="49.33502" lon="-0.47109">
        <ele>2.4</ele>
        <time>2020-06-17T08:31:46Z</time>
      </trkpt>
      <trkpt lat="49.33499" lon="-0.471">
        <ele>2.5</ele>
        <time>2020-06-17T08:31:47Z</time>
      </trkpt>
      <trkpt lat="49.33495" lon="-0.47092">
        <ele>2.7</ele>
        <time>2020-06-17T08:31:48Z</time>
      </trkpt>
      <trkpt lat="49.33492" lon="-0.47083">
        <ele>2.8</ele>
        <time>2020-06-17T08:31:49Z</time>
      </trkpt>
      <trkpt lat="49.33491" lon="-0.47074">
        <ele>2.9</ele>
        <time>2020-06-17T08:31:50Z</time>
      </trkpt>
      <trkpt lat="49.3349" lon="-0.47065">
        <ele>2.9</ele>
        <time>2020-06-17T08:31:51Z</time>
      </trkpt>
      <trkpt lat="49.33489" lon="-0.47056">
        <ele>3</ele>
        <time>2020-06-17T08:31:52Z</time>
      </trkpt>
      <trkpt lat="49.33488" lon="-0.47045">
        <ele>3</ele>
        <time>2020-06-17T08:31:53Z</time>
      </trkpt>
      <trkpt lat="49.33487" lon="-0.47035">
        <ele>3</ele>
        <time>2020-06-17T08:31:54Z</time>
      </trkpt>
      <trkpt lat="49.33486" lon="-0.47025">
        <ele>3</ele>
        <time>2020-06-17T08:31:55Z</time>
      </trkpt>
      <trkpt lat="49.33485" lon="-0.47016">
        <ele>3</ele>
        <time>2020-06-17T08:31:56Z</time>
      </trkpt>
      <trkpt lat="49.33484" lon="-0.47008">
        <ele>3</ele>
        <time>2020-06-17T08:31:57Z</time>
      </trkpt>
      <trkpt lat="49.33482" lon="-0.46999">
        <ele>3</ele>
        <time>2020-06-17T08:31:58Z</time>
      </trkpt>
      <trkpt lat="49.33481" lon="-0.4699">
        <ele>3</ele>
        <time>2020-06-17T08:31:59Z</time>
      </trkpt>
      <trkpt lat="49.3348" lon="-0.46981">
        <ele>3</ele>
        <time>2020-06-17T08:32:00Z</time>
      </trkpt>
      <trkpt lat="49.33479" lon="-0.46972">
        <ele>3.1</ele>
        <time>2020-06-17T08:32:01Z</time>
      </trkpt>
      <trkpt lat="49.33479" lon="-0.46963">
        <ele>3.1</ele>
        <time>2020-06-17T08:32:02Z</time>
      </trkpt>
      <trkpt lat="49.33478" lon="-0.46954">
        <ele>3.1</ele>
        <time>2020-06-17T08:32:03Z</time>
      </trkpt>
      <trkpt lat="49.33478" lon="-0.46945">
        <ele>3.1</ele>
        <time>2020-06-17T08:32:04Z</time>
      </trkpt>
      <trkpt lat="49.33478" lon="-0.46935">
        <ele>3.2</ele>
        <time>2020-06-17T08:32:05Z</time>
      </trkpt>
      <trkpt lat="49.33478" lon="-0.46925">
        <ele>3.3</ele>
        <time>2020-06-17T08:32:06Z</time>
      </trkpt>
      <trkpt lat="49.33478" lon="-0.46915">
        <ele>3.4</ele>
        <time>2020-06-17T08:32:07Z</time>
      </trkpt>
      <trkpt lat="49.33478" lon="-0.46905">
        <ele>3.4</ele>
        <time>2020-06-17T08:32:08Z</time>
      </trkpt>
      <trkpt lat="49.33477" lon="-0.46896">
        <ele>3.5</ele>
        <time>2020-06-17T08:32:09Z</time>
      </trkpt>
      <trkpt lat="49.33477" lon="-0.46887">
        <ele>3.5</ele>
        <time>2020-06-17T08:32:10Z</time>
      </trkpt>
      <trkpt lat="49.33477" lon="-0.46877">
        <ele>3.6</ele>
        <time>2020-06-17T08:32:11Z</time>
      </trkpt>
      <trkpt lat="49.33477" lon="-0.46868">
        <ele>3.7</ele>
        <time>2020-06-17T08:32:12Z</time>
      </trkpt>
      <trkpt lat="49.33477" lon="-0.46859">
        <ele>3.7</ele>
        <time>2020-06-17T08:32:13Z</time>
      </trkpt>
      <trkpt lat="49.33476" lon="-0.46851">
        <ele>3.8</ele>
        <time>2020-06-17T08:32:14Z</time>
      </trkpt>
      <trkpt lat="49.33475" lon="-0.4684">
        <ele>3.8</ele>
        <time>2020-06-17T08:32:15Z</time>
      </trkpt>
      <trkpt lat="49.33475" lon="-0.4683">
        <ele>3.9</ele>
        <time>2020-06-17T08:32:16Z</time>
      </trkpt>
      <trkpt lat="49.33474" lon="-0.4682">
        <ele>3.9</ele>
        <time>2020-06-17T08:32:17Z</time>
      </trkpt>
      <trkpt lat="49.33474" lon="-0.4681">
        <ele>3.9</ele>
        <time>2020-06-17T08:32:18Z</time>
      </trkpt>
      <trkpt lat="49.33474" lon="-0.46801">
        <ele>3.8</ele>
        <time>2020-06-17T08:32:19Z</time>
      </trkpt>
      <trkpt lat="49.33474" lon="-0.46794">
        <ele>3.8</ele>
        <time>2020-06-17T08:32:20Z</time>
      </trkpt>
      <trkpt lat="49.33474" lon="-0.46786">
        <ele>3.8</ele>
        <time>2020-06-17T08:32:21Z</time>
      </trkpt>
      <trkpt lat="49.33474" lon="-0.46778">
        <ele>3.8</ele>
        <time>2020-06-17T08:32:22Z</time>
      </trkpt>
      <trkpt lat="49.33475" lon="-0.4677">
        <ele>3.7</ele>
        <time>2020-06-17T08:32:23Z</time>
      </trkpt>
      <trkpt lat="49.33475" lon="-0.46762">
        <ele>3.7</ele>
        <time>2020-06-17T08:32:24Z</time>
      </trkpt>
      <trkpt lat="49.33476" lon="-0.46754">
        <ele>3.6</ele>
        <time>2020-06-17T08:32:25Z</time>
      </trkpt>
      <trkpt lat="49.33476" lon="-0.46747">
        <ele>3.5</ele>
        <time>2020-06-17T08:32:26Z</time>
      </trkpt>
      <trkpt lat="49.33476" lon="-0.4674">
        <ele>3.5</ele>
        <time>2020-06-17T08:32:27Z</time>
      </trkpt>
      <trkpt lat="49.33476" lon="-0.46732">
        <ele>3.4</ele>
        <time>2020-06-17T08:32:28Z</time>
      </trkpt>
      <trkpt lat="49.33476" lon="-0.46725">
        <ele>3.3</ele>
        <time>2020-06-17T08:32:29Z</time>
      </trkpt>
      <trkpt lat="49.33476" lon="-0.46718">
        <ele>3.3</ele>
        <time>2020-06-17T08:32:30Z</time>
      </trkpt>
      <trkpt lat="49.33476" lon="-0.46709">
        <ele>3.2</ele>
        <time>2020-06-17T08:32:31Z</time>
      </trkpt>
      <trkpt lat="49.33475" lon="-0.46701">
        <ele>3.1</ele>
        <time>2020-06-17T08:32:32Z</time>
      </trkpt>
      <trkpt lat="49.33475" lon="-0.46692">
        <ele>3.1</ele>
        <time>2020-06-17T08:32:33Z</time>
      </trkpt>
      <trkpt lat="49.33475" lon="-0.46685">
        <ele>3</ele>
        <time>2020-06-17T08:32:34Z</time>
      </trkpt>
      <trkpt lat="49.33474" lon="-0.46677">
        <ele>3</ele>
        <time>2020-06-17T08:32:35Z</time>
      </trkpt>
      <trkpt lat="49.33474" lon="-0.46669">
        <ele>3</ele>
        <time>2020-06-17T08:32:36Z</time>
      </trkpt>
      <trkpt lat="49.33473" lon="-0.46661">
        <ele>3</ele>
        <time>2020-06-17T08:32:37Z</time>
      </trkpt>
      <trkpt lat="49.33474" lon="-0.46653">
        <ele>3</ele>
        <time>2020-06-17T08:32:38Z</time>
      </trkpt>
      <trkpt lat="49.33474" lon="-0.46645">
        <ele>3</ele>
        <time>2020-06-17T08:32:39Z</time>
      </trkpt>
      <trkpt lat="49.33475" lon="-0.46639">
        <ele>3</ele>
        <time>2020-06-17T08:32:40Z</time>
      </trkpt>
      <trkpt lat="49.33475" lon="-0.46632">
        <ele>3</ele>
        <time>2020-06-17T08:32:41Z</time>
      </trkpt>
      <trkpt lat="49.33475" lon="-0.46624">
        <ele>2.9</ele>
        <time>2020-06-17T08:32:42Z</time>
      </trkpt>
      <trkpt lat="49.33475" lon="-0.46615">
        <ele>2.9</ele>
        <time>2020-06-17T08:32:43Z</time>
      </trkpt>
      <trkpt lat="49.33475" lon="-0.46605">
        <ele>2.8</ele>
        <time>2020-06-17T08:32:44Z</time>
      </trkpt>
      <trkpt lat="49.33475" lon="-0.46594">
        <ele>2.8</ele>
        <time>2020-06-17T08:32:45Z</time>
      </trkpt>
      <trkpt lat="49.33475" lon="-0.46585">
        <ele>2.8</ele>
        <time>2020-06-17T08:32:46Z</time>
      </trkpt>
      <trkpt lat="49.33475" lon="-0.46577">
        <ele>2.7</ele>
        <time>2020-06-17T08:32:47Z</time>
      </trkpt>
      <trkpt lat="49.33475" lon="-0.4657">
        <ele>2.7</ele>
        <time>2020-06-17T08:32:48Z</time>
      </trkpt>
      <trkpt lat="49.33476" lon="-0.46563">
        <ele>2.7</ele>
        <time>2020-06-17T08:32:49Z</time>
      </trkpt>
      <trkpt lat="49.33476" lon="-0.46556">
        <ele>2.7</ele>
        <time>2020-06-17T08:32:50Z</time>
      </trkpt>
      <trkpt lat="49.33477" lon="-0.46548">
        <ele>2.7</ele>
        <time>2020-06-17T08:32:51Z</time>
      </trkpt>
      <trkpt lat="49.33477" lon="-0.46541">
        <ele>2.8</ele>
        <time>2020-06-17T08:32:52Z</time>
      </trkpt>
      <trkpt lat="49.33476" lon="-0.46535">
        <ele>2.8</ele>
        <time>2020-06-17T08:32:53Z</time>
      </trkpt>
      <trkpt lat="49.33476" lon="-0.46529">
        <ele>2.8</ele>
        <time>2020-06-17T08:32:54Z</time>
      </trkpt>
      <trkpt lat="49.33475" lon="-0.46524">
        <ele>2.8</ele>
        <time>2020-06-17T08:32:55Z</time>
      </trkpt>
      <trkpt lat="49.33477" lon="-0.46518">
        <ele>2.9</ele>
        <time>2020-06-17T08:32:56Z</time>
      </trkpt>
      <trkpt lat="49.33477" lon="-0.46511">
        <ele>2.9</ele>
        <time>2020-06-17T08:32:57Z</time>
      </trkpt>
      <trkpt lat="49.33478" lon="-0.46504">
        <ele>2.9</ele>
        <time>2020-06-17T08:32:58Z</time>
      </trkpt>
      <trkpt lat="49.33479" lon="-0.46496">
        <ele>2.9</ele>
        <time>2020-06-17T08:32:59Z</time>
      </trkpt>
      <trkpt lat="49.33479" lon="-0.46487">
        <ele>3</ele>
        <time>2020-06-17T08:33:00Z</time>
      </trkpt>
      <trkpt lat="49.33477" lon="-0.46476">
        <ele>3</ele>
        <time>2020-06-17T08:33:01Z</time>
      </trkpt>
      <trkpt lat="49.33476" lon="-0.46466">
        <ele>3.1</ele>
        <time>2020-06-17T08:33:02Z</time>
      </trkpt>
      <trkpt lat="49.33474" lon="-0.46457">
        <ele>3.1</ele>
        <time>2020-06-17T08:33:03Z</time>
      </trkpt>
      <trkpt lat="49.33474" lon="-0.46447">
        <ele>3.2</ele>
        <time>2020-06-17T08:33:04Z</time>
      </trkpt>
      <trkpt lat="49.33473" lon="-0.46439">
        <ele>3.1</ele>
        <time>2020-06-17T08:33:05Z</time>
      </trkpt>
      <trkpt lat="49.33473" lon="-0.46432">
        <ele>3.1</ele>
        <time>2020-06-17T08:33:06Z</time>
      </trkpt>
      <trkpt lat="49.33473" lon="-0.46425">
        <ele>3.1</ele>
        <time>2020-06-17T08:33:07Z</time>
      </trkpt>
      <trkpt lat="49.33473" lon="-0.46418">
        <ele>3.1</ele>
        <time>2020-06-17T08:33:08Z</time>
      </trkpt>
      <trkpt lat="49.33473" lon="-0.4641">
        <ele>3.1</ele>
        <time>2020-06-17T08:33:09Z</time>
      </trkpt>
      <trkpt lat="49.33473" lon="-0.46401">
        <ele>3.2</ele>
        <time>2020-06-17T08:33:10Z</time>
      </trkpt>
      <trkpt lat="49.33473" lon="-0.46394">
        <ele>3.2</ele>
        <time>2020-06-17T08:33:11Z</time>
      </trkpt>
      <trkpt lat="49.33473" lon="-0.46387">
        <ele>3.2</ele>
        <time>2020-06-17T08:33:12Z</time>
      </trkpt>
      <trkpt lat="49.33474" lon="-0.46379">
        <ele>3.3</ele>
        <time>2020-06-17T08:33:13Z</time>
      </trkpt>
      <trkpt lat="49.33475" lon="-0.46372">
        <ele>3.3</ele>
        <time>2020-06-17T08:33:14Z</time>
      </trkpt>
      <trkpt lat="49.33476" lon="-0.46365">
        <ele>3.3</ele>
        <time>2020-06-17T08:33:15Z</time>
      </trkpt>
      <trkpt lat="49.33476" lon="-0.46358">
        <ele>3.4</ele>
        <time>2020-06-17T08:33:16Z</time>
      </trkpt>
      <trkpt lat="49.33477" lon="-0.4635">
        <ele>3.5</ele>
        <time>2020-06-17T08:33:17Z</time>
      </trkpt>
      <trkpt lat="49.33476" lon="-0.46342">
        <ele>3.5</ele>
        <time>2020-06-17T08:33:18Z</time>
      </trkpt>
      <trkpt lat="49.33477" lon="-0.46333">
        <ele>3.6</ele>
        <time>2020-06-17T08:33:19Z</time>
      </trkpt>
      <trkpt lat="49.33477" lon="-0.46325">
        <ele>3.6</ele>
        <time>2020-06-17T08:33:20Z</time>
      </trkpt>
      <trkpt lat="49.33476" lon="-0.46316">
        <ele>3.6</ele>
        <time>2020-06-17T08:33:21Z</time>
      </trkpt>
      <trkpt lat="49.33476" lon="-0.46308">
        <ele>3.7</ele>
        <time>2020-06-17T08:33:22Z</time>
      </trkpt>
      <trkpt lat="49.33476" lon="-0.463">
        <ele>3.7</ele>
        <time>2020-06-17T08:33:23Z</time>
      </trkpt>
      <trkpt lat="49.33474" lon="-0.46294">
        <ele>3.7</ele>
        <time>2020-06-17T08:33:24Z</time>
      </trkpt>
      <trkpt lat="49.33471" lon="-0.46288">
        <ele>3.8</ele>
        <time>2020-06-17T08:33:25Z</time>
      </trkpt>
      <trkpt lat="49.33466" lon="-0.46283">
        <ele>3.8</ele>
        <time>2020-06-17T08:33:26Z</time>
      </trkpt>
      <trkpt lat="49.33461" lon="-0.46278">
        <ele>3.8</ele>
        <time>2020-06-17T08:33:27Z</time>
      </trkpt>
      <trkpt lat="49.33456" lon="-0.46273">
        <ele>3.8</ele>
        <time>2020-06-17T08:33:28Z</time>
      </trkpt>
      <trkpt lat="49.33451" lon="-0.46268">
        <ele>3.8</ele>
        <time>2020-06-17T08:33:29Z</time>
      </trkpt>
      <trkpt lat="49.33445" lon="-0.46263">
        <ele>3.8</ele>
        <time>2020-06-17T08:33:30Z</time>
      </trkpt>
      <trkpt lat="49.33439" lon="-0.4626">
        <ele>3.8</ele>
        <time>2020-06-17T08:33:31Z</time>
      </trkpt>
      <trkpt lat="49.33434" lon="-0.46257">
        <ele>3.8</ele>
        <time>2020-06-17T08:33:32Z</time>
      </trkpt>
      <trkpt lat="49.33428" lon="-0.46253">
        <ele>3.8</ele>
        <time>2020-06-17T08:33:33Z</time>
      </trkpt>
      <trkpt lat="49.33422" lon="-0.4625">
        <ele>3.8</ele>
        <time>2020-06-17T08:33:34Z</time>
      </trkpt>
      <trkpt lat="49.33417" lon="-0.46247">
        <ele>3.8</ele>
        <time>2020-06-17T08:33:35Z</time>
      </trkpt>
      <trkpt lat="49.33412" lon="-0.46244">
        <ele>3.8</ele>
        <time>2020-06-17T08:33:36Z</time>
      </trkpt>
      <trkpt lat="49.33408" lon="-0.46241">
        <ele>3.7</ele>
        <time>2020-06-17T08:33:37Z</time>
      </trkpt>
      <trkpt lat="49.33403" lon="-0.46239">
        <ele>3.7</ele>
        <time>2020-06-17T08:33:38Z</time>
      </trkpt>
      <trkpt lat="49.33399" lon="-0.46236">
        <ele>3.7</ele>
        <time>2020-06-17T08:33:39Z</time>
      </trkpt>
      <trkpt lat="49.33395" lon="-0.46234">
        <ele>3.7</ele>
        <time>2020-06-17T08:33:40Z</time>
      </trkpt>
      <trkpt lat="49.3339" lon="-0.46233">
        <ele>3.7</ele>
        <time>2020-06-17T08:33:41Z</time>
      </trkpt>
      <trkpt lat="49.33386" lon="-0.46234">
        <ele>3.7</ele>
        <time>2020-06-17T08:33:42Z</time>
      </trkpt>
      <trkpt lat="49.33383" lon="-0.46238">
        <ele>3.6</ele>
        <time>2020-06-17T08:33:43Z</time>
      </trkpt>
      <trkpt lat="49.33379" lon="-0.46242">
        <ele>3.5</ele>
        <time>2020-06-17T08:33:44Z</time>
      </trkpt>
      <trkpt lat="49.33377" lon="-0.46247">
        <ele>3.5</ele>
        <time>2020-06-17T08:33:45Z</time>
      </trkpt>
      <trkpt lat="49.33374" lon="-0.4625">
        <ele>3.4</ele>
        <time>2020-06-17T08:33:46Z</time>
      </trkpt>
      <trkpt lat="49.33371" lon="-0.46254">
        <ele>3.4</ele>
        <time>2020-06-17T08:33:47Z</time>
      </trkpt>
      <trkpt lat="49.33369" lon="-0.46259">
        <ele>3.3</ele>
        <time>2020-06-17T08:33:48Z</time>
      </trkpt>
      <trkpt lat="49.33366" lon="-0.46264">
        <ele>3.3</ele>
        <time>2020-06-17T08:33:49Z</time>
      </trkpt>
      <trkpt lat="49.33363" lon="-0.46268">
        <ele>3.3</ele>
        <time>2020-06-17T08:33:50Z</time>
      </trkpt>
      <trkpt lat="49.3336" lon="-0.46271">
        <ele>3.2</ele>
        <time>2020-06-17T08:33:51Z</time>
      </trkpt>
      <trkpt lat="49.33356" lon="-0.46275">
        <ele>3.2</ele>
        <time>2020-06-17T08:33:52Z</time>
      </trkpt>
      <trkpt lat="49.33353" lon="-0.46279">
        <ele>3.1</ele>
        <time>2020-06-17T08:33:53Z</time>
      </trkpt>
      <trkpt lat="49.33349" lon="-0.46283">
        <ele>3.1</ele>
        <time>2020-06-17T08:33:54Z</time>
      </trkpt>
      <trkpt lat="49.33345" lon="-0.46287">
        <ele>3.1</ele>
        <time>2020-06-17T08:33:55Z</time>
      </trkpt>
      <trkpt lat="49.33342" lon="-0.46292">
        <ele>3.1</ele>
        <time>2020-06-17T08:33:56Z</time>
      </trkpt>
      <trkpt lat="49.33338" lon="-0.46298">
        <ele>3</ele>
        <time>2020-06-17T08:33:57Z</time>
      </trkpt>
      <trkpt lat="49.33334" lon="-0.46304">
        <ele>3</ele>
        <time>2020-06-17T08:33:58Z</time>
      </trkpt>
      <trkpt lat="49.3333" lon="-0.4631">
        <ele>3</ele>
        <time>2020-06-17T08:33:59Z</time>
      </trkpt>
      <trkpt lat="49.33326" lon="-0.46317">
        <ele>3</ele>
        <time>2020-06-17T08:34:00Z</time>
      </trkpt>
      <trkpt lat="49.33322" lon="-0.46324">
        <ele>3</ele>
        <time>2020-06-17T08:34:01Z</time>
      </trkpt>
      <trkpt lat="49.33318" lon="-0.46331">
        <ele>2.9</ele>
        <time>2020-06-17T08:34:02Z</time>
      </trkpt>
      <trkpt lat="49.33314" lon="-0.46337">
        <ele>2.9</ele>
        <time>2020-06-17T08:34:03Z</time>
      </trkpt>
      <trkpt lat="49.3331" lon="-0.46342">
        <ele>2.9</ele>
        <time>2020-06-17T08:34:04Z</time>
      </trkpt>
      <trkpt lat="49.33306" lon="-0.4635">
        <ele>2.9</ele>
        <time>2020-06-17T08:34:05Z</time>
      </trkpt>
      <trkpt lat="49.33301" lon="-0.46357">
        <ele>2.9</ele>
        <time>2020-06-17T08:34:06Z</time>
      </trkpt>
      <trkpt lat="49.33297" lon="-0.46365">
        <ele>2.9</ele>
        <time>2020-06-17T08:34:07Z</time>
      </trkpt>
      <trkpt lat="49.33292" lon="-0.46372">
        <ele>2.9</ele>
        <time>2020-06-17T08:34:08Z</time>
      </trkpt>
      <trkpt lat="49.33287" lon="-0.46379">
        <ele>3</ele>
        <time>2020-06-17T08:34:09Z</time>
      </trkpt>
      <trkpt lat="49.33284" lon="-0.46385">
        <ele>3</ele>
        <time>2020-06-17T08:34:10Z</time>
      </trkpt>
      <trkpt lat="49.33279" lon="-0.46391">
        <ele>3</ele>
        <time>2020-06-17T08:34:11Z</time>
      </trkpt>
      <trkpt lat="49.33275" lon="-0.46398">
        <ele>3</ele>
        <time>2020-06-17T08:34:12Z</time>
      </trkpt>
      <trkpt lat="49.33271" lon="-0.46405">
        <ele>3</ele>
        <time>2020-06-17T08:34:13Z</time>
      </trkpt>
      <trkpt lat="49.33266" lon="-0.46412">
        <ele>3</ele>
        <time>2020-06-17T08:34:14Z</time>
      </trkpt>
      <trkpt lat="49.33261" lon="-0.46418">
        <ele>3.1</ele>
        <time>2020-06-17T08:34:15Z</time>
      </trkpt>
      <trkpt lat="49.33256" lon="-0.46424">
        <ele>3.1</ele>
        <time>2020-06-17T08:34:16Z</time>
      </trkpt>
      <trkpt lat="49.33251" lon="-0.46431">
        <ele>3.1</ele>
        <time>2020-06-17T08:34:17Z</time>
      </trkpt>
      <trkpt lat="49.33247" lon="-0.46438">
        <ele>3.2</ele>
        <time>2020-06-17T08:34:18Z</time>
      </trkpt>
      <trkpt lat="49.33242" lon="-0.46445">
        <ele>3.2</ele>
        <time>2020-06-17T08:34:19Z</time>
      </trkpt>
      <trkpt lat="49.33238" lon="-0.46452">
        <ele>3.2</ele>
        <time>2020-06-17T08:34:20Z</time>
      </trkpt>
      <trkpt lat="49.33233" lon="-0.46459">
        <ele>3.1</ele>
        <time>2020-06-17T08:34:21Z</time>
      </trkpt>
      <trkpt lat="49.33229" lon="-0.46465">
        <ele>3.1</ele>
        <time>2020-06-17T08:34:22Z</time>
      </trkpt>
      <trkpt lat="49.33225" lon="-0.4647">
        <ele>3</ele>
        <time>2020-06-17T08:34:23Z</time>
      </trkpt>
      <trkpt lat="49.33221" lon="-0.46475">
        <ele>3</ele>
        <time>2020-06-17T08:34:24Z</time>
      </trkpt>
      <trkpt lat="49.33216" lon="-0.46479">
        <ele>2.9</ele>
        <time>2020-06-17T08:34:25Z</time>
      </trkpt>
      <trkpt lat="49.33212" lon="-0.46483">
        <ele>2.9</ele>
        <time>2020-06-17T08:34:26Z</time>
      </trkpt>
      <trkpt lat="49.33207" lon="-0.46486">
        <ele>2.9</ele>
        <time>2020-06-17T08:34:27Z</time>
      </trkpt>
      <trkpt lat="49.33202" lon="-0.46487">
        <ele>2.8</ele>
        <time>2020-06-17T08:34:28Z</time>
      </trkpt>
      <trkpt lat="49.33197" lon="-0.46487">
        <ele>2.8</ele>
        <time>2020-06-17T08:34:29Z</time>
      </trkpt>
      <trkpt lat="49.33192" lon="-0.46487">
        <ele>2.8</ele>
        <time>2020-06-17T08:34:30Z</time>
      </trkpt>
      <trkpt lat="49.33188" lon="-0.46486">
        <ele>2.8</ele>
        <time>2020-06-17T08:34:31Z</time>
      </trkpt>
      <trkpt lat="49.33184" lon="-0.46484">
        <ele>2.8</ele>
        <time>2020-06-17T08:34:32Z</time>
      </trkpt>
      <trkpt lat="49.3318" lon="-0.46481">
        <ele>2.8</ele>
        <time>2020-06-17T08:34:33Z</time>
      </trkpt>
      <trkpt lat="49.33176" lon="-0.46477">
        <ele>2.8</ele>
        <time>2020-06-17T08:34:34Z</time>
      </trkpt>
      <trkpt lat="49.33173" lon="-0.46472">
        <ele>2.8</ele>
        <time>2020-06-17T08:34:35Z</time>
      </trkpt>
      <trkpt lat="49.33169" lon="-0.46468">
        <ele>2.8</ele>
        <time>2020-06-17T08:34:36Z</time>
      </trkpt>
      <trkpt lat="49.33165" lon="-0.46464">
        <ele>2.8</ele>
        <time>2020-06-17T08:34:37Z</time>
      </trkpt>
      <trkpt lat="49.33162" lon="-0.46459">
        <ele>2.8</ele>
        <time>2020-06-17T08:34:38Z</time>
      </trkpt>
      <trkpt lat="49.33159" lon="-0.46453">
        <ele>2.8</ele>
        <time>2020-06-17T08:34:39Z</time>
      </trkpt>
      <trkpt lat="49.33157" lon="-0.46446">
        <ele>2.8</ele>
        <time>2020-06-17T08:34:40Z</time>
      </trkpt>
      <trkpt lat="49.33154" lon="-0.46437">
        <ele>2.8</ele>
        <time>2020-06-17T08:34:41Z</time>
      </trkpt>
      <trkpt lat="49.33152" lon="-0.46429">
        <ele>2.8</ele>
        <time>2020-06-17T08:34:42Z</time>
      </trkpt>
      <trkpt lat="49.3315" lon="-0.4642">
        <ele>2.8</ele>
        <time>2020-06-17T08:34:43Z</time>
      </trkpt>
      <trkpt lat="49.33151" lon="-0.46411">
        <ele>2.8</ele>
        <time>2020-06-17T08:34:44Z</time>
      </trkpt>
      <trkpt lat="49.33152" lon="-0.46403">
        <ele>2.8</ele>
        <time>2020-06-17T08:34:45Z</time>
      </trkpt>
      <trkpt lat="49.33154" lon="-0.46396">
        <ele>2.8</ele>
        <time>2020-06-17T08:34:46Z</time>
      </trkpt>
      <trkpt lat="49.33156" lon="-0.4639">
        <ele>2.9</ele>
        <time>2020-06-17T08:34:47Z</time>
      </trkpt>
      <trkpt lat="49.33159" lon="-0.46386">
        <ele>2.9</ele>
        <time>2020-06-17T08:34:48Z</time>
      </trkpt>
      <trkpt lat="49.33162" lon="-0.46382">
        <ele>2.9</ele>
        <time>2020-06-17T08:34:49Z</time>
      </trkpt>
      <trkpt lat="49.33165" lon="-0.46378">
        <ele>3</ele>
        <time>2020-06-17T08:34:50Z</time>
      </trkpt>
      <trkpt lat="49.33168" lon="-0.46374">
        <ele>3</ele>
        <time>2020-06-17T08:34:51Z</time>
      </trkpt>
      <trkpt lat="49.33172" lon="-0.4637">
        <ele>3</ele>
        <time>2020-06-17T08:34:52Z</time>
      </trkpt>
      <trkpt lat="49.33175" lon="-0.46365">
        <ele>3.1</ele>
        <time>2020-06-17T08:34:53Z</time>
      </trkpt>
      <trkpt lat="49.33178" lon="-0.46361">
        <ele>3.1</ele>
        <time>2020-06-17T08:34:54Z</time>
      </trkpt>
      <trkpt lat="49.3318" lon="-0.46356">
        <ele>3.1</ele>
        <time>2020-06-17T08:34:55Z</time>
      </trkpt>
      <trkpt lat="49.33182" lon="-0.46351">
        <ele>3.1</ele>
        <time>2020-06-17T08:34:56Z</time>
      </trkpt>
      <trkpt lat="49.33183" lon="-0.46348">
        <ele>3.2</ele>
        <time>2020-06-17T08:34:57Z</time>
      </trkpt>
      <trkpt lat="49.33185" lon="-0.46344">
        <ele>3.2</ele>
        <time>2020-06-17T08:34:58Z</time>
      </trkpt>
      <trkpt lat="49.33186" lon="-0.46338">
        <ele>3.3</ele>
        <time>2020-06-17T08:34:59Z</time>
      </trkpt>
      <trkpt lat="49.33186" lon="-0.46331">
        <ele>3.3</ele>
        <time>2020-06-17T08:35:00Z</time>
      </trkpt>
      <trkpt lat="49.33185" lon="-0.46326">
        <ele>3.3</ele>
        <time>2020-06-17T08:35:01Z</time>
      </trkpt>
      <trkpt lat="49.33184" lon="-0.46321">
        <ele>3.3</ele>
        <time>2020-06-17T08:35:02Z</time>
      </trkpt>
      <trkpt lat="49.33182" lon="-0.46315">
        <ele>3.3</ele>
        <time>2020-06-17T08:35:03Z</time>
      </trkpt>
      <trkpt lat="49.33179" lon="-0.46309">
        <ele>3.3</ele>
        <time>2020-06-17T08:35:04Z</time>
      </trkpt>
      <trkpt lat="49.33177" lon="-0.46304">
        <ele>3.3</ele>
        <time>2020-06-17T08:35:05Z</time>
      </trkpt>
      <trkpt lat="49.33174" lon="-0.46299">
        <ele>3.3</ele>
        <time>2020-06-17T08:35:06Z</time>
      </trkpt>
      <trkpt lat="49.33172" lon="-0.46294">
        <ele>3.3</ele>
        <time>2020-06-17T08:35:07Z</time>
      </trkpt>
      <trkpt lat="49.33168" lon="-0.46289">
        <ele>3.4</ele>
        <time>2020-06-17T08:35:08Z</time>
      </trkpt>
      <trkpt lat="49.33165" lon="-0.46283">
        <ele>3.4</ele>
        <time>2020-06-17T08:35:09Z</time>
      </trkpt>
      <trkpt lat="49.33161" lon="-0.46278">
        <ele>3.4</ele>
        <time>2020-06-17T08:35:10Z</time>
      </trkpt>
      <trkpt lat="49.33158" lon="-0.46273">
        <ele>3.4</ele>
        <time>2020-06-17T08:35:11Z</time>
      </trkpt>
      <trkpt lat="49.33155" lon="-0.46267">
        <ele>3.4</ele>
        <time>2020-06-17T08:35:12Z</time>
      </trkpt>
      <trkpt lat="49.33152" lon="-0.4626">
        <ele>3.4</ele>
        <time>2020-06-17T08:35:13Z</time>
      </trkpt>
      <trkpt lat="49.33149" lon="-0.46255">
        <ele>3.4</ele>
        <time>2020-06-17T08:35:14Z</time>
      </trkpt>
      <trkpt lat="49.33145" lon="-0.46248">
        <ele>3.5</ele>
        <time>2020-06-17T08:35:15Z</time>
      </trkpt>
      <trkpt lat="49.33142" lon="-0.46243">
        <ele>3.5</ele>
        <time>2020-06-17T08:35:16Z</time>
      </trkpt>
      <trkpt lat="49.33138" lon="-0.46236">
        <ele>3.5</ele>
        <time>2020-06-17T08:35:17Z</time>
      </trkpt>
      <trkpt lat="49.33135" lon="-0.46228">
        <ele>3.4</ele>
        <time>2020-06-17T08:35:18Z</time>
      </trkpt>
      <trkpt lat="49.33131" lon="-0.46222">
        <ele>3.4</ele>
        <time>2020-06-17T08:35:19Z</time>
      </trkpt>
      <trkpt lat="49.33125" lon="-0.46214">
        <ele>3.3</ele>
        <time>2020-06-17T08:35:20Z</time>
      </trkpt>
      <trkpt lat="49.33121" lon="-0.46205">
        <ele>3.2</ele>
        <time>2020-06-17T08:35:21Z</time>
      </trkpt>
      <trkpt lat="49.33117" lon="-0.46197">
        <ele>3.1</ele>
        <time>2020-06-17T08:35:22Z</time>
      </trkpt>
      <trkpt lat="49.33113" lon="-0.46189">
        <ele>3.1</ele>
        <time>2020-06-17T08:35:23Z</time>
      </trkpt>
      <trkpt lat="49.3311" lon="-0.46181">
        <ele>3</ele>
        <time>2020-06-17T08:35:24Z</time>
      </trkpt>
      <trkpt lat="49.33106" lon="-0.46173">
        <ele>3</ele>
        <time>2020-06-17T08:35:25Z</time>
      </trkpt>
      <trkpt lat="49.33102" lon="-0.46165">
        <ele>3</ele>
        <time>2020-06-17T08:35:26Z</time>
      </trkpt>
      <trkpt lat="49.33098" lon="-0.46158">
        <ele>2.9</ele>
        <time>2020-06-17T08:35:27Z</time>
      </trkpt>
      <trkpt lat="49.33093" lon="-0.46151">
        <ele>2.9</ele>
        <time>2020-06-17T08:35:28Z</time>
      </trkpt>
      <trkpt lat="49.33088" lon="-0.46144">
        <ele>3</ele>
        <time>2020-06-17T08:35:29Z</time>
      </trkpt>
      <trkpt lat="49.33083" lon="-0.46138">
        <ele>3</ele>
        <time>2020-06-17T08:35:30Z</time>
      </trkpt>
      <trkpt lat="49.33079" lon="-0.4613">
        <ele>3</ele>
        <time>2020-06-17T08:35:31Z</time>
      </trkpt>
      <trkpt lat="49.33075" lon="-0.46123">
        <ele>3.1</ele>
        <time>2020-06-17T08:35:32Z</time>
      </trkpt>
      <trkpt lat="49.33071" lon="-0.46115">
        <ele>3.1</ele>
        <time>2020-06-17T08:35:33Z</time>
      </trkpt>
      <trkpt lat="49.33067" lon="-0.46108">
        <ele>3.2</ele>
        <time>2020-06-17T08:35:34Z</time>
      </trkpt>
      <trkpt lat="49.33063" lon="-0.46099">
        <ele>3.3</ele>
        <time>2020-06-17T08:35:35Z</time>
      </trkpt>
      <trkpt lat="49.33059" lon="-0.46091">
        <ele>3.4</ele>
        <time>2020-06-17T08:35:36Z</time>
      </trkpt>
      <trkpt lat="49.33056" lon="-0.46083">
        <ele>3.5</ele>
        <time>2020-06-17T08:35:37Z</time>
      </trkpt>
      <trkpt lat="49.33053" lon="-0.46074">
        <ele>3.6</ele>
        <time>2020-06-17T08:35:38Z</time>
      </trkpt>
      <trkpt lat="49.33051" lon="-0.46066">
        <ele>3.7</ele>
        <time>2020-06-17T08:35:39Z</time>
      </trkpt>
      <trkpt lat="49.33049" lon="-0.46058">
        <ele>3.9</ele>
        <time>2020-06-17T08:35:40Z</time>
      </trkpt>
      <trkpt lat="49.33047" lon="-0.46049">
        <ele>4</ele>
        <time>2020-06-17T08:35:41Z</time>
      </trkpt>
      <trkpt lat="49.33046" lon="-0.4604">
        <ele>4.1</ele>
        <time>2020-06-17T08:35:42Z</time>
      </trkpt>
      <trkpt lat="49.33045" lon="-0.46032">
        <ele>4.3</ele>
        <time>2020-06-17T08:35:43Z</time>
      </trkpt>
      <trkpt lat="49.33044" lon="-0.46024">
        <ele>4.5</ele>
        <time>2020-06-17T08:35:44Z</time>
      </trkpt>
      <trkpt lat="49.33043" lon="-0.46015">
        <ele>4.7</ele>
        <time>2020-06-17T08:35:45Z</time>
      </trkpt>
      <trkpt lat="49.33041" lon="-0.46006">
        <ele>4.9</ele>
        <time>2020-06-17T08:35:46Z</time>
      </trkpt>
      <trkpt lat="49.3304" lon="-0.45997">
        <ele>5</ele>
        <time>2020-06-17T08:35:47Z</time>
      </trkpt>
      <trkpt lat="49.33039" lon="-0.45989">
        <ele>5.2</ele>
        <time>2020-06-17T08:35:48Z</time>
      </trkpt>
      <trkpt lat="49.33039" lon="-0.45982">
        <ele>5.3</ele>
        <time>2020-06-17T08:35:49Z</time>
      </trkpt>
      <trkpt lat="49.33039" lon="-0.45975">
        <ele>5.5</ele>
        <time>2020-06-17T08:35:50Z</time>
      </trkpt>
      <trkpt lat="49.33039" lon="-0.45968">
        <ele>5.7</ele>
        <time>2020-06-17T08:35:51Z</time>
      </trkpt>
      <trkpt lat="49.33037" lon="-0.4596">
        <ele>5.8</ele>
        <time>2020-06-17T08:35:52Z</time>
      </trkpt>
      <trkpt lat="49.33035" lon="-0.45953">
        <ele>6</ele>
        <time>2020-06-17T08:35:53Z</time>
      </trkpt>
      <trkpt lat="49.33034" lon="-0.45946">
        <ele>6.2</ele>
        <time>2020-06-17T08:35:54Z</time>
      </trkpt>
      <trkpt lat="49.33033" lon="-0.45939">
        <ele>6.4</ele>
        <time>2020-06-17T08:35:55Z</time>
      </trkpt>
      <trkpt lat="49.33032" lon="-0.45933">
        <ele>6.5</ele>
        <time>2020-06-17T08:35:56Z</time>
      </trkpt>
      <trkpt lat="49.33031" lon="-0.45926">
        <ele>6.7</ele>
        <time>2020-06-17T08:35:57Z</time>
      </trkpt>
      <trkpt lat="49.3303" lon="-0.45919">
        <ele>6.8</ele>
        <time>2020-06-17T08:35:58Z</time>
      </trkpt>
      <trkpt lat="49.33029" lon="-0.45912">
        <ele>7</ele>
        <time>2020-06-17T08:35:59Z</time>
      </trkpt>
      <trkpt lat="49.33028" lon="-0.45906">
        <ele>7.1</ele>
        <time>2020-06-17T08:36:00Z</time>
      </trkpt>
      <trkpt lat="49.33026" lon="-0.459">
        <ele>7.2</ele>
        <time>2020-06-17T08:36:01Z</time>
      </trkpt>
      <trkpt lat="49.33025" lon="-0.45895">
        <ele>7.5</ele>
        <time>2020-06-17T08:36:02Z</time>
      </trkpt>
      <trkpt lat="49.33023" lon="-0.45888">
        <ele>7.6</ele>
        <time>2020-06-17T08:36:03Z</time>
      </trkpt>
      <trkpt lat="49.33021" lon="-0.45882">
        <ele>7.7</ele>
        <time>2020-06-17T08:36:04Z</time>
      </trkpt>
      <trkpt lat="49.33019" lon="-0.45878">
        <ele>7.8</ele>
        <time>2020-06-17T08:36:05Z</time>
      </trkpt>
      <trkpt lat="49.33017" lon="-0.45872">
        <ele>7.9</ele>
        <time>2020-06-17T08:36:06Z</time>
      </trkpt>
      <trkpt lat="49.33015" lon="-0.45867">
        <ele>8</ele>
        <time>2020-06-17T08:36:07Z</time>
      </trkpt>
      <trkpt lat="49.33012" lon="-0.45861">
        <ele>8.1</ele>
        <time>2020-06-17T08:36:08Z</time>
      </trkpt>
      <trkpt lat="49.3301" lon="-0.45856">
        <ele>8.2</ele>
        <time>2020-06-17T08:36:09Z</time>
      </trkpt>
      <trkpt lat="49.33007" lon="-0.4585">
        <ele>8.3</ele>
        <time>2020-06-17T08:36:10Z</time>
      </trkpt>
      <trkpt lat="49.33004" lon="-0.45846">
        <ele>8.4</ele>
        <time>2020-06-17T08:36:11Z</time>
      </trkpt>
      <trkpt lat="49.33001" lon="-0.4584">
        <ele>8.5</ele>
        <time>2020-06-17T08:36:12Z</time>
      </trkpt>
      <trkpt lat="49.32997" lon="-0.45835">
        <ele>8.6</ele>
        <time>2020-06-17T08:36:13Z</time>
      </trkpt>
      <trkpt lat="49.32994" lon="-0.45831">
        <ele>8.8</ele>
        <time>2020-06-17T08:36:14Z</time>
      </trkpt>
      <trkpt lat="49.32991" lon="-0.45826">
        <ele>8.9</ele>
        <time>2020-06-17T08:36:15Z</time>
      </trkpt>
      <trkpt lat="49.32988" lon="-0.45822">
        <ele>9.1</ele>
        <time>2020-06-17T08:36:16Z</time>
      </trkpt>
      <trkpt lat="49.32986" lon="-0.45817">
        <ele>9.2</ele>
        <time>2020-06-17T08:36:17Z</time>
      </trkpt>
      <trkpt lat="49.32983" lon="-0.45814">
        <ele>9.4</ele>
        <time>2020-06-17T08:36:18Z</time>
      </trkpt>
      <trkpt lat="49.3298" lon="-0.45811">
        <ele>9.5</ele>
        <time>2020-06-17T08:36:19Z</time>
      </trkpt>
      <trkpt lat="49.32977" lon="-0.45808">
        <ele>9.6</ele>
        <time>2020-06-17T08:36:20Z</time>
      </trkpt>
      <trkpt lat="49.32973" lon="-0.45803">
        <ele>9.8</ele>
        <time>2020-06-17T08:36:21Z</time>
      </trkpt>
      <trkpt lat="49.32971" lon="-0.45799">
        <ele>10</ele>
        <time>2020-06-17T08:36:22Z</time>
      </trkpt>
      <trkpt lat="49.32968" lon="-0.45793">
        <ele>10.2</ele>
        <time>2020-06-17T08:36:23Z</time>
      </trkpt>
      <trkpt lat="49.32966" lon="-0.45791">
        <ele>10.3</ele>
        <time>2020-06-17T08:36:24Z</time>
      </trkpt>
      <trkpt lat="49.32963" lon="-0.45787">
        <ele>10.4</ele>
        <time>2020-06-17T08:36:25Z</time>
      </trkpt>
      <trkpt lat="49.32963" lon="-0.45785">
        <ele>10.5</ele>
        <time>2020-06-17T08:36:26Z</time>
      </trkpt>
      <trkpt lat="49.32962" lon="-0.4578">
        <ele>10.6</ele>
        <time>2020-06-17T08:36:27Z</time>
      </trkpt>
      <trkpt lat="49.32961" lon="-0.45774">
        <ele>10.8</ele>
        <time>2020-06-17T08:36:28Z</time>
      </trkpt>
      <trkpt lat="49.32961" lon="-0.45772">
        <ele>10.7</ele>
        <time>2020-06-17T08:36:29Z</time>
      </trkpt>
      <trkpt lat="49.32959" lon="-0.45767">
        <ele>10.6</ele>
        <time>2020-06-17T08:36:30Z</time>
      </trkpt>
      <trkpt lat="49.32959" lon="-0.45765">
        <ele>10.6</ele>
        <time>2020-06-17T08:36:31Z</time>
      </trkpt>
      <trkpt lat="49.32958" lon="-0.4576">
        <ele>10.5</ele>
        <time>2020-06-17T08:36:32Z</time>
      </trkpt>
      <trkpt lat="49.32956" lon="-0.45756">
        <ele>10.4</ele>
        <time>2020-06-17T08:36:33Z</time>
      </trkpt>
      <trkpt lat="49.32954" lon="-0.45751">
        <ele>10.3</ele>
        <time>2020-06-17T08:36:34Z</time>
      </trkpt>
      <trkpt lat="49.32952" lon="-0.45746">
        <ele>10.1</ele>
        <time>2020-06-17T08:36:35Z</time>
      </trkpt>
      <trkpt lat="49.32951" lon="-0.45742">
        <ele>10</ele>
        <time>2020-06-17T08:36:36Z</time>
      </trkpt>
      <trkpt lat="49.32949" lon="-0.45738">
        <ele>9.9</ele>
        <time>2020-06-17T08:36:37Z</time>
      </trkpt>
      <trkpt lat="49.32948" lon="-0.45733">
        <ele>9.8</ele>
        <time>2020-06-17T08:36:38Z</time>
      </trkpt>
      <trkpt lat="49.32947" lon="-0.45728">
        <ele>9.7</ele>
        <time>2020-06-17T08:36:39Z</time>
      </trkpt>
      <trkpt lat="49.32947" lon="-0.45727">
        <ele>9.6</ele>
        <time>2020-06-17T08:36:40Z</time>
      </trkpt>
      <trkpt lat="49.32946" lon="-0.45724">
        <ele>9.6</ele>
        <time>2020-06-17T08:36:41Z</time>
      </trkpt>
      <trkpt lat="49.32946" lon="-0.45722">
        <ele>9.5</ele>
        <time>2020-06-17T08:36:42Z</time>
      </trkpt>
      <trkpt lat="49.32948" lon="-0.45717">
        <ele>9.4</ele>
        <time>2020-06-17T08:36:43Z</time>
      </trkpt>
      <trkpt lat="49.32949" lon="-0.45716">
        <ele>9.4</ele>
        <time>2020-06-17T08:36:44Z</time>
      </trkpt>
      <trkpt lat="49.3295" lon="-0.45714">
        <ele>9.3</ele>
        <time>2020-06-17T08:36:45Z</time>
      </trkpt>
      <trkpt lat="49.32951" lon="-0.45715">
        <ele>9.2</ele>
        <time>2020-06-17T08:36:46Z</time>
      </trkpt>
      <trkpt lat="49.32952" lon="-0.45713">
        <ele>9.2</ele>
        <time>2020-06-17T08:36:47Z</time>
      </trkpt>
      <trkpt lat="49.32953" lon="-0.45709">
        <ele>9.1</ele>
        <time>2020-06-17T08:36:48Z</time>
      </trkpt>
      <trkpt lat="49.32956" lon="-0.45705">
        <ele>8.6</ele>
        <time>2020-06-17T08:36:49Z</time>
      </trkpt>
      <trkpt lat="49.32956" lon="-0.45703">
        <ele>8.5</ele>
        <time>2020-06-17T08:36:50Z</time>
      </trkpt>
      <trkpt lat="49.32959" lon="-0.45701">
        <ele>8.4</ele>
        <time>2020-06-17T08:36:51Z</time>
      </trkpt>
      <trkpt lat="49.32961" lon="-0.45699">
        <ele>8.3</ele>
        <time>2020-06-17T08:36:52Z</time>
      </trkpt>
      <trkpt lat="49.32964" lon="-0.45696">
        <ele>8.2</ele>
        <time>2020-06-17T08:36:53Z</time>
      </trkpt>
      <trkpt lat="49.32969" lon="-0.45691">
        <ele>8</ele>
        <time>2020-06-17T08:36:54Z</time>
      </trkpt>
      <trkpt lat="49.32972" lon="-0.45687">
        <ele>7.8</ele>
        <time>2020-06-17T08:36:55Z</time>
      </trkpt>
      <trkpt lat="49.32975" lon="-0.45682">
        <ele>7.7</ele>
        <time>2020-06-17T08:36:56Z</time>
      </trkpt>
      <trkpt lat="49.32977" lon="-0.45676">
        <ele>7.5</ele>
        <time>2020-06-17T08:36:57Z</time>
      </trkpt>
      <trkpt lat="49.32979" lon="-0.45669">
        <ele>7.1</ele>
        <time>2020-06-17T08:36:58Z</time>
      </trkpt>
      <trkpt lat="49.32982" lon="-0.45662">
        <ele>7</ele>
        <time>2020-06-17T08:36:59Z</time>
      </trkpt>
      <trkpt lat="49.32985" lon="-0.45656">
        <ele>6.8</ele>
        <time>2020-06-17T08:37:00Z</time>
      </trkpt>
      <trkpt lat="49.32987" lon="-0.45649">
        <ele>6.6</ele>
        <time>2020-06-17T08:37:01Z</time>
      </trkpt>
      <trkpt lat="49.3299" lon="-0.45644">
        <ele>6.4</ele>
        <time>2020-06-17T08:37:02Z</time>
      </trkpt>
      <trkpt lat="49.32992" lon="-0.45637">
        <ele>6.2</ele>
        <time>2020-06-17T08:37:03Z</time>
      </trkpt>
      <trkpt lat="49.32995" lon="-0.45632">
        <ele>6.1</ele>
        <time>2020-06-17T08:37:04Z</time>
      </trkpt>
      <trkpt lat="49.32997" lon="-0.45626">
        <ele>5.9</ele>
        <time>2020-06-17T08:37:05Z</time>
      </trkpt>
      <trkpt lat="49.32998" lon="-0.45621">
        <ele>5.8</ele>
        <time>2020-06-17T08:37:06Z</time>
      </trkpt>
      <trkpt lat="49.32999" lon="-0.45615">
        <ele>5.7</ele>
        <time>2020-06-17T08:37:07Z</time>
      </trkpt>
      <trkpt lat="49.33" lon="-0.45609">
        <ele>5.6</ele>
        <time>2020-06-17T08:37:08Z</time>
      </trkpt>
      <trkpt lat="49.33" lon="-0.45603">
        <ele>5.5</ele>
        <time>2020-06-17T08:37:09Z</time>
      </trkpt>
      <trkpt lat="49.33" lon="-0.45597">
        <ele>5.4</ele>
        <time>2020-06-17T08:37:10Z</time>
      </trkpt>
      <trkpt lat="49.32998" lon="-0.45592">
        <ele>5.3</ele>
        <time>2020-06-17T08:37:11Z</time>
      </trkpt>
      <trkpt lat="49.32997" lon="-0.45588">
        <ele>5.3</ele>
        <time>2020-06-17T08:37:12Z</time>
      </trkpt>
      <trkpt lat="49.32996" lon="-0.45582">
        <ele>5.2</ele>
        <time>2020-06-17T08:37:13Z</time>
      </trkpt>
      <trkpt lat="49.32995" lon="-0.45577">
        <ele>5.1</ele>
        <time>2020-06-17T08:37:14Z</time>
      </trkpt>
      <trkpt lat="49.32993" lon="-0.45572">
        <ele>5.1</ele>
        <time>2020-06-17T08:37:15Z</time>
      </trkpt>
      <trkpt lat="49.32991" lon="-0.45567">
        <ele>5</ele>
        <time>2020-06-17T08:37:16Z</time>
      </trkpt>
      <trkpt lat="49.3299" lon="-0.45561">
        <ele>5</ele>
        <time>2020-06-17T08:37:17Z</time>
      </trkpt>
      <trkpt lat="49.32989" lon="-0.45557">
        <ele>4.9</ele>
        <time>2020-06-17T08:37:18Z</time>
      </trkpt>
      <trkpt lat="49.32988" lon="-0.45551">
        <ele>4.9</ele>
        <time>2020-06-17T08:37:19Z</time>
      </trkpt>
      <trkpt lat="49.32987" lon="-0.45545">
        <ele>4.8</ele>
        <time>2020-06-17T08:37:20Z</time>
      </trkpt>
      <trkpt lat="49.32987" lon="-0.45538">
        <ele>4.8</ele>
        <time>2020-06-17T08:37:21Z</time>
      </trkpt>
      <trkpt lat="49.32987" lon="-0.45532">
        <ele>4.7</ele>
        <time>2020-06-17T08:37:22Z</time>
      </trkpt>
      <trkpt lat="49.32986" lon="-0.45527">
        <ele>4.7</ele>
        <time>2020-06-17T08:37:23Z</time>
      </trkpt>
      <trkpt lat="49.32986" lon="-0.45521">
        <ele>4.5</ele>
        <time>2020-06-17T08:37:24Z</time>
      </trkpt>
      <trkpt lat="49.32987" lon="-0.45514">
        <ele>4.5</ele>
        <time>2020-06-17T08:37:25Z</time>
      </trkpt>
      <trkpt lat="49.32988" lon="-0.45506">
        <ele>4.5</ele>
        <time>2020-06-17T08:37:26Z</time>
      </trkpt>
      <trkpt lat="49.32988" lon="-0.45499">
        <ele>4.6</ele>
        <time>2020-06-17T08:37:27Z</time>
      </trkpt>
      <trkpt lat="49.3299" lon="-0.4549">
        <ele>4.7</ele>
        <time>2020-06-17T08:37:28Z</time>
      </trkpt>
      <trkpt lat="49.32991" lon="-0.4548">
        <ele>4.8</ele>
        <time>2020-06-17T08:37:29Z</time>
      </trkpt>
      <trkpt lat="49.32992" lon="-0.45472">
        <ele>4.9</ele>
        <time>2020-06-17T08:37:30Z</time>
      </trkpt>
      <trkpt lat="49.32993" lon="-0.45464">
        <ele>5</ele>
        <time>2020-06-17T08:37:31Z</time>
      </trkpt>
      <trkpt lat="49.32993" lon="-0.45456">
        <ele>5.1</ele>
        <time>2020-06-17T08:37:32Z</time>
      </trkpt>
      <trkpt lat="49.32994" lon="-0.45447">
        <ele>5.1</ele>
        <time>2020-06-17T08:37:33Z</time>
      </trkpt>
      <trkpt lat="49.32995" lon="-0.45439">
        <ele>5.2</ele>
        <time>2020-06-17T08:37:34Z</time>
      </trkpt>
      <trkpt lat="49.32995" lon="-0.45431">
        <ele>5.2</ele>
        <time>2020-06-17T08:37:35Z</time>
      </trkpt>
      <trkpt lat="49.32996" lon="-0.45423">
        <ele>5.3</ele>
        <time>2020-06-17T08:37:36Z</time>
      </trkpt>
      <trkpt lat="49.32996" lon="-0.45416">
        <ele>5.3</ele>
        <time>2020-06-17T08:37:37Z</time>
      </trkpt>
      <trkpt lat="49.32996" lon="-0.45409">
        <ele>5.3</ele>
        <time>2020-06-17T08:37:38Z</time>
      </trkpt>
      <trkpt lat="49.32995" lon="-0.454">
        <ele>5.3</ele>
        <time>2020-06-17T08:37:39Z</time>
      </trkpt>
      <trkpt lat="49.32995" lon="-0.45393">
        <ele>5.4</ele>
        <time>2020-06-17T08:37:40Z</time>
      </trkpt>
      <trkpt lat="49.32995" lon="-0.45386">
        <ele>5.4</ele>
        <time>2020-06-17T08:37:41Z</time>
      </trkpt>
      <trkpt lat="49.32995" lon="-0.45377">
        <ele>5.4</ele>
        <time>2020-06-17T08:37:42Z</time>
      </trkpt>
      <trkpt lat="49.32994" lon="-0.45369">
        <ele>5.5</ele>
        <time>2020-06-17T08:37:43Z</time>
      </trkpt>
      <trkpt lat="49.32994" lon="-0.45361">
        <ele>5.6</ele>
        <time>2020-06-17T08:37:44Z</time>
      </trkpt>
      <trkpt lat="49.32993" lon="-0.45354">
        <ele>5.7</ele>
        <time>2020-06-17T08:37:45Z</time>
      </trkpt>
      <trkpt lat="49.32993" lon="-0.45348">
        <ele>5.8</ele>
        <time>2020-06-17T08:37:46Z</time>
      </trkpt>
      <trkpt lat="49.32992" lon="-0.45342">
        <ele>5.9</ele>
        <time>2020-06-17T08:37:47Z</time>
      </trkpt>
      <trkpt lat="49.32992" lon="-0.45335">
        <ele>5.9</ele>
        <time>2020-06-17T08:37:48Z</time>
      </trkpt>
      <trkpt lat="49.32991" lon="-0.4533">
        <ele>6</ele>
        <time>2020-06-17T08:37:49Z</time>
      </trkpt>
      <trkpt lat="49.32991" lon="-0.45322">
        <ele>6.1</ele>
        <time>2020-06-17T08:37:50Z</time>
      </trkpt>
      <trkpt lat="49.32992" lon="-0.45313">
        <ele>6.2</ele>
        <time>2020-06-17T08:37:51Z</time>
      </trkpt>
      <trkpt lat="49.32993" lon="-0.45304">
        <ele>6.3</ele>
        <time>2020-06-17T08:37:52Z</time>
      </trkpt>
      <trkpt lat="49.32994" lon="-0.45293">
        <ele>6.4</ele>
        <time>2020-06-17T08:37:53Z</time>
      </trkpt>
      <trkpt lat="49.32994" lon="-0.45283">
        <ele>6.6</ele>
        <time>2020-06-17T08:37:54Z</time>
      </trkpt>
      <trkpt lat="49.32994" lon="-0.45271">
        <ele>6.7</ele>
        <time>2020-06-17T08:37:55Z</time>
      </trkpt>
      <trkpt lat="49.32995" lon="-0.45262">
        <ele>6.8</ele>
        <time>2020-06-17T08:37:56Z</time>
      </trkpt>
      <trkpt lat="49.32996" lon="-0.45252">
        <ele>7</ele>
        <time>2020-06-17T08:37:57Z</time>
      </trkpt>
      <trkpt lat="49.32995" lon="-0.45241">
        <ele>7.1</ele>
        <time>2020-06-17T08:37:58Z</time>
      </trkpt>
      <trkpt lat="49.32994" lon="-0.4523">
        <ele>7.1</ele>
        <time>2020-06-17T08:37:59Z</time>
      </trkpt>
      <trkpt lat="49.32993" lon="-0.4522">
        <ele>7.1</ele>
        <time>2020-06-17T08:38:00Z</time>
      </trkpt>
      <trkpt lat="49.32992" lon="-0.4521">
        <ele>7.2</ele>
        <time>2020-06-17T08:38:01Z</time>
      </trkpt>
      <trkpt lat="49.32992" lon="-0.452">
        <ele>7.2</ele>
        <time>2020-06-17T08:38:02Z</time>
      </trkpt>
      <trkpt lat="49.32993" lon="-0.45189">
        <ele>7.2</ele>
        <time>2020-06-17T08:38:03Z</time>
      </trkpt>
      <trkpt lat="49.32995" lon="-0.4518">
        <ele>7.2</ele>
        <time>2020-06-17T08:38:04Z</time>
      </trkpt>
      <trkpt lat="49.32997" lon="-0.45168">
        <ele>7.2</ele>
        <time>2020-06-17T08:38:05Z</time>
      </trkpt>
      <trkpt lat="49.32999" lon="-0.45159">
        <ele>7.2</ele>
        <time>2020-06-17T08:38:06Z</time>
      </trkpt>
      <trkpt lat="49.33002" lon="-0.4515">
        <ele>7.2</ele>
        <time>2020-06-17T08:38:07Z</time>
      </trkpt>
      <trkpt lat="49.33004" lon="-0.45142">
        <ele>7.2</ele>
        <time>2020-06-17T08:38:08Z</time>
      </trkpt>
      <trkpt lat="49.33006" lon="-0.45136">
        <ele>7.2</ele>
        <time>2020-06-17T08:38:09Z</time>
      </trkpt>
      <trkpt lat="49.33008" lon="-0.45128">
        <ele>7.2</ele>
        <time>2020-06-17T08:38:10Z</time>
      </trkpt>
      <trkpt lat="49.3301" lon="-0.4512">
        <ele>7.1</ele>
        <time>2020-06-17T08:38:11Z</time>
      </trkpt>
      <trkpt lat="49.33012" lon="-0.45112">
        <ele>7.1</ele>
        <time>2020-06-17T08:38:12Z</time>
      </trkpt>
      <trkpt lat="49.33014" lon="-0.45104">
        <ele>7</ele>
        <time>2020-06-17T08:38:13Z</time>
      </trkpt>
      <trkpt lat="49.33017" lon="-0.45095">
        <ele>7</ele>
        <time>2020-06-17T08:38:14Z</time>
      </trkpt>
      <trkpt lat="49.33019" lon="-0.45086">
        <ele>7</ele>
        <time>2020-06-17T08:38:15Z</time>
      </trkpt>
      <trkpt lat="49.33021" lon="-0.45078">
        <ele>7</ele>
        <time>2020-06-17T08:38:16Z</time>
      </trkpt>
      <trkpt lat="49.33023" lon="-0.45068">
        <ele>7</ele>
        <time>2020-06-17T08:38:17Z</time>
      </trkpt>
      <trkpt lat="49.33025" lon="-0.4506">
        <ele>7</ele>
        <time>2020-06-17T08:38:18Z</time>
      </trkpt>
      <trkpt lat="49.33028" lon="-0.45052">
        <ele>7</ele>
        <time>2020-06-17T08:38:19Z</time>
      </trkpt>
      <trkpt lat="49.3303" lon="-0.45045">
        <ele>7</ele>
        <time>2020-06-17T08:38:20Z</time>
      </trkpt>
      <trkpt lat="49.33032" lon="-0.45037">
        <ele>7</ele>
        <time>2020-06-17T08:38:21Z</time>
      </trkpt>
      <trkpt lat="49.33034" lon="-0.45029">
        <ele>7</ele>
        <time>2020-06-17T08:38:22Z</time>
      </trkpt>
      <trkpt lat="49.33037" lon="-0.4502">
        <ele>7</ele>
        <time>2020-06-17T08:38:23Z</time>
      </trkpt>
      <trkpt lat="49.33039" lon="-0.4501">
        <ele>6.9</ele>
        <time>2020-06-17T08:38:24Z</time>
      </trkpt>
      <trkpt lat="49.3304" lon="-0.44997">
        <ele>6.9</ele>
        <time>2020-06-17T08:38:25Z</time>
      </trkpt>
      <trkpt lat="49.33041" lon="-0.44984">
        <ele>7</ele>
        <time>2020-06-17T08:38:26Z</time>
      </trkpt>
      <trkpt lat="49.33041" lon="-0.44966">
        <ele>7.1</ele>
        <time>2020-06-17T08:38:27Z</time>
      </trkpt>
      <trkpt lat="49.3304" lon="-0.4495">
        <ele>7.2</ele>
        <time>2020-06-17T08:38:28Z</time>
      </trkpt>
      <trkpt lat="49.33041" lon="-0.44934">
        <ele>7.2</ele>
        <time>2020-06-17T08:38:29Z</time>
      </trkpt>
      <trkpt lat="49.33041" lon="-0.44918">
        <ele>7.3</ele>
        <time>2020-06-17T08:38:30Z</time>
      </trkpt>
      <trkpt lat="49.3304" lon="-0.44904">
        <ele>7.3</ele>
        <time>2020-06-17T08:38:31Z</time>
      </trkpt>
      <trkpt lat="49.3304" lon="-0.44894">
        <ele>7.4</ele>
        <time>2020-06-17T08:38:32Z</time>
      </trkpt>
      <trkpt lat="49.33039" lon="-0.44881">
        <ele>7.5</ele>
        <time>2020-06-17T08:38:33Z</time>
      </trkpt>
      <trkpt lat="49.33038" lon="-0.44872">
        <ele>7.5</ele>
        <time>2020-06-17T08:38:34Z</time>
      </trkpt>
      <trkpt lat="49.33037" lon="-0.44859">
        <ele>7.6</ele>
        <time>2020-06-17T08:38:35Z</time>
      </trkpt>
      <trkpt lat="49.33037" lon="-0.44848">
        <ele>7.7</ele>
        <time>2020-06-17T08:38:36Z</time>
      </trkpt>
      <trkpt lat="49.33037" lon="-0.44838">
        <ele>7.7</ele>
        <time>2020-06-17T08:38:37Z</time>
      </trkpt>
      <trkpt lat="49.33036" lon="-0.44828">
        <ele>7.8</ele>
        <time>2020-06-17T08:38:38Z</time>
      </trkpt>
      <trkpt lat="49.33036" lon="-0.44818">
        <ele>7.9</ele>
        <time>2020-06-17T08:38:39Z</time>
      </trkpt>
      <trkpt lat="49.33036" lon="-0.44809">
        <ele>8</ele>
        <time>2020-06-17T08:38:40Z</time>
      </trkpt>
      <trkpt lat="49.33035" lon="-0.44799">
        <ele>8.2</ele>
        <time>2020-06-17T08:38:41Z</time>
      </trkpt>
      <trkpt lat="49.33035" lon="-0.44789">
        <ele>8.3</ele>
        <time>2020-06-17T08:38:42Z</time>
      </trkpt>
      <trkpt lat="49.33035" lon="-0.44779">
        <ele>8.4</ele>
        <time>2020-06-17T08:38:43Z</time>
      </trkpt>
      <trkpt lat="49.33034" lon="-0.44771">
        <ele>8.4</ele>
        <time>2020-06-17T08:38:44Z</time>
      </trkpt>
      <trkpt lat="49.33032" lon="-0.44763">
        <ele>8.5</ele>
        <time>2020-06-17T08:38:45Z</time>
      </trkpt>
      <trkpt lat="49.33031" lon="-0.44755">
        <ele>8.5</ele>
        <time>2020-06-17T08:38:46Z</time>
      </trkpt>
      <trkpt lat="49.33029" lon="-0.44749">
        <ele>8.5</ele>
        <time>2020-06-17T08:38:47Z</time>
      </trkpt>
      <trkpt lat="49.33028" lon="-0.44743">
        <ele>8.6</ele>
        <time>2020-06-17T08:38:48Z</time>
      </trkpt>
      <trkpt lat="49.33027" lon="-0.44737">
        <ele>8.5</ele>
        <time>2020-06-17T08:38:49Z</time>
      </trkpt>
      <trkpt lat="49.33026" lon="-0.4473">
        <ele>8.5</ele>
        <time>2020-06-17T08:38:50Z</time>
      </trkpt>
      <trkpt lat="49.33026" lon="-0.44723">
        <ele>8.4</ele>
        <time>2020-06-17T08:38:51Z</time>
      </trkpt>
      <trkpt lat="49.33027" lon="-0.44716">
        <ele>8.4</ele>
        <time>2020-06-17T08:38:52Z</time>
      </trkpt>
      <trkpt lat="49.33027" lon="-0.44708">
        <ele>8.4</ele>
        <time>2020-06-17T08:38:53Z</time>
      </trkpt>
      <trkpt lat="49.33026" lon="-0.447">
        <ele>8.4</ele>
        <time>2020-06-17T08:38:54Z</time>
      </trkpt>
      <trkpt lat="49.33026" lon="-0.44692">
        <ele>8.4</ele>
        <time>2020-06-17T08:38:55Z</time>
      </trkpt>
      <trkpt lat="49.33025" lon="-0.44686">
        <ele>8.3</ele>
        <time>2020-06-17T08:38:56Z</time>
      </trkpt>
      <trkpt lat="49.33024" lon="-0.4468">
        <ele>8.3</ele>
        <time>2020-06-17T08:38:57Z</time>
      </trkpt>
      <trkpt lat="49.33024" lon="-0.44675">
        <ele>8.2</ele>
        <time>2020-06-17T08:38:58Z</time>
      </trkpt>
      <trkpt lat="49.33024" lon="-0.44667">
        <ele>8.2</ele>
        <time>2020-06-17T08:38:59Z</time>
      </trkpt>
      <trkpt lat="49.33024" lon="-0.4466">
        <ele>8.1</ele>
        <time>2020-06-17T08:39:00Z</time>
      </trkpt>
      <trkpt lat="49.33024" lon="-0.44652">
        <ele>8.1</ele>
        <time>2020-06-17T08:39:01Z</time>
      </trkpt>
      <trkpt lat="49.33024" lon="-0.44644">
        <ele>8.1</ele>
        <time>2020-06-17T08:39:02Z</time>
      </trkpt>
      <trkpt lat="49.33023" lon="-0.44636">
        <ele>8.2</ele>
        <time>2020-06-17T08:39:03Z</time>
      </trkpt>
      <trkpt lat="49.33022" lon="-0.44629">
        <ele>8.2</ele>
        <time>2020-06-17T08:39:04Z</time>
      </trkpt>
      <trkpt lat="49.33022" lon="-0.44621">
        <ele>8.2</ele>
        <time>2020-06-17T08:39:05Z</time>
      </trkpt>
      <trkpt lat="49.33021" lon="-0.44614">
        <ele>8.1</ele>
        <time>2020-06-17T08:39:06Z</time>
      </trkpt>
      <trkpt lat="49.3302" lon="-0.44607">
        <ele>8.1</ele>
        <time>2020-06-17T08:39:07Z</time>
      </trkpt>
      <trkpt lat="49.3302" lon="-0.44601">
        <ele>8.1</ele>
        <time>2020-06-17T08:39:08Z</time>
      </trkpt>
      <trkpt lat="49.33019" lon="-0.44595">
        <ele>8.1</ele>
        <time>2020-06-17T08:39:09Z</time>
      </trkpt>
      <trkpt lat="49.33018" lon="-0.44589">
        <ele>8.1</ele>
        <time>2020-06-17T08:39:10Z</time>
      </trkpt>
      <trkpt lat="49.33017" lon="-0.44583">
        <ele>8.1</ele>
        <time>2020-06-17T08:39:11Z</time>
      </trkpt>
      <trkpt lat="49.33018" lon="-0.44577">
        <ele>8.1</ele>
        <time>2020-06-17T08:39:12Z</time>
      </trkpt>
      <trkpt lat="49.33018" lon="-0.44571">
        <ele>8.1</ele>
        <time>2020-06-17T08:39:13Z</time>
      </trkpt>
      <trkpt lat="49.33018" lon="-0.44566">
        <ele>8.1</ele>
        <time>2020-06-17T08:39:14Z</time>
      </trkpt>
      <trkpt lat="49.33017" lon="-0.44561">
        <ele>8.1</ele>
        <time>2020-06-17T08:39:15Z</time>
      </trkpt>
      <trkpt lat="49.33016" lon="-0.44556">
        <ele>8.1</ele>
        <time>2020-06-17T08:39:16Z</time>
      </trkpt>
      <trkpt lat="49.33016" lon="-0.4455">
        <ele>8.1</ele>
        <time>2020-06-17T08:39:17Z</time>
      </trkpt>
      <trkpt lat="49.33015" lon="-0.44544">
        <ele>8.1</ele>
        <time>2020-06-17T08:39:18Z</time>
      </trkpt>
      <trkpt lat="49.33015" lon="-0.44537">
        <ele>8.1</ele>
        <time>2020-06-17T08:39:19Z</time>
      </trkpt>
      <trkpt lat="49.33015" lon="-0.4453">
        <ele>8.1</ele>
        <time>2020-06-17T08:39:20Z</time>
      </trkpt>
      <trkpt lat="49.33015" lon="-0.44524">
        <ele>8.1</ele>
        <time>2020-06-17T08:39:21Z</time>
      </trkpt>
      <trkpt lat="49.33015" lon="-0.44517">
        <ele>8.1</ele>
        <time>2020-06-17T08:39:22Z</time>
      </trkpt>
      <trkpt lat="49.33015" lon="-0.4451">
        <ele>8.1</ele>
        <time>2020-06-17T08:39:23Z</time>
      </trkpt>
      <trkpt lat="49.33014" lon="-0.44502">
        <ele>8.1</ele>
        <time>2020-06-17T08:39:24Z</time>
      </trkpt>
      <trkpt lat="49.33013" lon="-0.44494">
        <ele>8.1</ele>
        <time>2020-06-17T08:39:25Z</time>
      </trkpt>
      <trkpt lat="49.33013" lon="-0.44486">
        <ele>8.1</ele>
        <time>2020-06-17T08:39:26Z</time>
      </trkpt>
      <trkpt lat="49.33013" lon="-0.44478">
        <ele>8.1</ele>
        <time>2020-06-17T08:39:27Z</time>
      </trkpt>
      <trkpt lat="49.33013" lon="-0.4447">
        <ele>8.1</ele>
        <time>2020-06-17T08:39:28Z</time>
      </trkpt>
      <trkpt lat="49.33012" lon="-0.44462">
        <ele>8.1</ele>
        <time>2020-06-17T08:39:29Z</time>
      </trkpt>
      <trkpt lat="49.33013" lon="-0.44454">
        <ele>8.1</ele>
        <time>2020-06-17T08:39:30Z</time>
      </trkpt>
      <trkpt lat="49.33013" lon="-0.44446">
        <ele>8.2</ele>
        <time>2020-06-17T08:39:31Z</time>
      </trkpt>
      <trkpt lat="49.33013" lon="-0.44439">
        <ele>8.2</ele>
        <time>2020-06-17T08:39:32Z</time>
      </trkpt>
      <trkpt lat="49.33013" lon="-0.44431">
        <ele>8.2</ele>
        <time>2020-06-17T08:39:33Z</time>
      </trkpt>
      <trkpt lat="49.33012" lon="-0.44423">
        <ele>8.2</ele>
        <time>2020-06-17T08:39:34Z</time>
      </trkpt>
      <trkpt lat="49.33013" lon="-0.44416">
        <ele>8.2</ele>
        <time>2020-06-17T08:39:35Z</time>
      </trkpt>
      <trkpt lat="49.33013" lon="-0.44409">
        <ele>8.3</ele>
        <time>2020-06-17T08:39:36Z</time>
      </trkpt>
      <trkpt lat="49.33013" lon="-0.44402">
        <ele>8.3</ele>
        <time>2020-06-17T08:39:37Z</time>
      </trkpt>
      <trkpt lat="49.33013" lon="-0.44395">
        <ele>8.3</ele>
        <time>2020-06-17T08:39:38Z</time>
      </trkpt>
      <trkpt lat="49.33013" lon="-0.44389">
        <ele>8.3</ele>
        <time>2020-06-17T08:39:39Z</time>
      </trkpt>
      <trkpt lat="49.33012" lon="-0.44383">
        <ele>8.4</ele>
        <time>2020-06-17T08:39:40Z</time>
      </trkpt>
      <trkpt lat="49.3301" lon="-0.44377">
        <ele>8.4</ele>
        <time>2020-06-17T08:39:41Z</time>
      </trkpt>
      <trkpt lat="49.33009" lon="-0.44371">
        <ele>8.4</ele>
        <time>2020-06-17T08:39:42Z</time>
      </trkpt>
      <trkpt lat="49.33009" lon="-0.44366">
        <ele>8.5</ele>
        <time>2020-06-17T08:39:43Z</time>
      </trkpt>
      <trkpt lat="49.33008" lon="-0.44361">
        <ele>8.5</ele>
        <time>2020-06-17T08:39:44Z</time>
      </trkpt>
      <trkpt lat="49.33008" lon="-0.44356">
        <ele>8.5</ele>
        <time>2020-06-17T08:39:45Z</time>
      </trkpt>
      <trkpt lat="49.33008" lon="-0.44351">
        <ele>8.5</ele>
        <time>2020-06-17T08:39:46Z</time>
      </trkpt>
      <trkpt lat="49.33006" lon="-0.44345">
        <ele>8.5</ele>
        <time>2020-06-17T08:39:47Z</time>
      </trkpt>
      <trkpt lat="49.33005" lon="-0.44338">
        <ele>8.5</ele>
        <time>2020-06-17T08:39:48Z</time>
      </trkpt>
      <trkpt lat="49.33004" lon="-0.4433">
        <ele>8.5</ele>
        <time>2020-06-17T08:39:49Z</time>
      </trkpt>
      <trkpt lat="49.33002" lon="-0.44322">
        <ele>8.5</ele>
        <time>2020-06-17T08:39:50Z</time>
      </trkpt>
      <trkpt lat="49.33001" lon="-0.44314">
        <ele>8.6</ele>
        <time>2020-06-17T08:39:51Z</time>
      </trkpt>
      <trkpt lat="49.33" lon="-0.44305">
        <ele>8.6</ele>
        <time>2020-06-17T08:39:52Z</time>
      </trkpt>
      <trkpt lat="49.33" lon="-0.44298">
        <ele>8.6</ele>
        <time>2020-06-17T08:39:53Z</time>
      </trkpt>
      <trkpt lat="49.32999" lon="-0.4429">
        <ele>8.6</ele>
        <time>2020-06-17T08:39:54Z</time>
      </trkpt>
      <trkpt lat="49.32998" lon="-0.44282">
        <ele>8.6</ele>
        <time>2020-06-17T08:39:55Z</time>
      </trkpt>
      <trkpt lat="49.32997" lon="-0.44274">
        <ele>8.6</ele>
        <time>2020-06-17T08:39:56Z</time>
      </trkpt>
      <trkpt lat="49.32996" lon="-0.44265">
        <ele>8.6</ele>
        <time>2020-06-17T08:39:57Z</time>
      </trkpt>
      <trkpt lat="49.32995" lon="-0.44257">
        <ele>8.6</ele>
        <time>2020-06-17T08:39:58Z</time>
      </trkpt>
      <trkpt lat="49.32993" lon="-0.44247">
        <ele>8.6</ele>
        <time>2020-06-17T08:39:59Z</time>
      </trkpt>
      <trkpt lat="49.32992" lon="-0.44239">
        <ele>8.6</ele>
        <time>2020-06-17T08:40:00Z</time>
      </trkpt>
      <trkpt lat="49.32991" lon="-0.44231">
        <ele>8.7</ele>
        <time>2020-06-17T08:40:01Z</time>
      </trkpt>
      <trkpt lat="49.3299" lon="-0.44222">
        <ele>8.7</ele>
        <time>2020-06-17T08:40:02Z</time>
      </trkpt>
      <trkpt lat="49.3299" lon="-0.44215">
        <ele>8.7</ele>
        <time>2020-06-17T08:40:03Z</time>
      </trkpt>
      <trkpt lat="49.32989" lon="-0.44206">
        <ele>8.7</ele>
        <time>2020-06-17T08:40:04Z</time>
      </trkpt>
      <trkpt lat="49.32989" lon="-0.44198">
        <ele>8.7</ele>
        <time>2020-06-17T08:40:05Z</time>
      </trkpt>
      <trkpt lat="49.32989" lon="-0.44191">
        <ele>8.8</ele>
        <time>2020-06-17T08:40:06Z</time>
      </trkpt>
      <trkpt lat="49.32989" lon="-0.44182">
        <ele>8.8</ele>
        <time>2020-06-17T08:40:07Z</time>
      </trkpt>
      <trkpt lat="49.32989" lon="-0.44173">
        <ele>8.8</ele>
        <time>2020-06-17T08:40:08Z</time>
      </trkpt>
      <trkpt lat="49.32989" lon="-0.44165">
        <ele>8.8</ele>
        <time>2020-06-17T08:40:09Z</time>
      </trkpt>
      <trkpt lat="49.3299" lon="-0.44155">
        <ele>8.8</ele>
        <time>2020-06-17T08:40:10Z</time>
      </trkpt>
      <trkpt lat="49.3299" lon="-0.44146">
        <ele>8.9</ele>
        <time>2020-06-17T08:40:11Z</time>
      </trkpt>
      <trkpt lat="49.3299" lon="-0.44137">
        <ele>8.9</ele>
        <time>2020-06-17T08:40:12Z</time>
      </trkpt>
      <trkpt lat="49.3299" lon="-0.44127">
        <ele>8.9</ele>
        <time>2020-06-17T08:40:13Z</time>
      </trkpt>
      <trkpt lat="49.32991" lon="-0.44118">
        <ele>8.9</ele>
        <time>2020-06-17T08:40:14Z</time>
      </trkpt>
      <trkpt lat="49.3299" lon="-0.44109">
        <ele>8.9</ele>
        <time>2020-06-17T08:40:15Z</time>
      </trkpt>
      <trkpt lat="49.3299" lon="-0.44099">
        <ele>8.9</ele>
        <time>2020-06-17T08:40:16Z</time>
      </trkpt>
      <trkpt lat="49.32989" lon="-0.44088">
        <ele>9</ele>
        <time>2020-06-17T08:40:17Z</time>
      </trkpt>
      <trkpt lat="49.32988" lon="-0.44076">
        <ele>9</ele>
        <time>2020-06-17T08:40:18Z</time>
      </trkpt>
      <trkpt lat="49.32986" lon="-0.44065">
        <ele>9.1</ele>
        <time>2020-06-17T08:40:19Z</time>
      </trkpt>
      <trkpt lat="49.32984" lon="-0.44055">
        <ele>9.1</ele>
        <time>2020-06-17T08:40:20Z</time>
      </trkpt>
      <trkpt lat="49.32983" lon="-0.44046">
        <ele>9.1</ele>
        <time>2020-06-17T08:40:21Z</time>
      </trkpt>
      <trkpt lat="49.32982" lon="-0.44037">
        <ele>9.2</ele>
        <time>2020-06-17T08:40:22Z</time>
      </trkpt>
      <trkpt lat="49.32982" lon="-0.44028">
        <ele>9.2</ele>
        <time>2020-06-17T08:40:23Z</time>
      </trkpt>
      <trkpt lat="49.32981" lon="-0.4402">
        <ele>9.2</ele>
        <time>2020-06-17T08:40:24Z</time>
      </trkpt>
      <trkpt lat="49.32981" lon="-0.44012">
        <ele>9.2</ele>
        <time>2020-06-17T08:40:25Z</time>
      </trkpt>
      <trkpt lat="49.3298" lon="-0.44004">
        <ele>9.2</ele>
        <time>2020-06-17T08:40:26Z</time>
      </trkpt>
      <trkpt lat="49.3298" lon="-0.43995">
        <ele>9.3</ele>
        <time>2020-06-17T08:40:27Z</time>
      </trkpt>
      <trkpt lat="49.32979" lon="-0.43985">
        <ele>9.3</ele>
        <time>2020-06-17T08:40:28Z</time>
      </trkpt>
      <trkpt lat="49.32979" lon="-0.43975">
        <ele>9.3</ele>
        <time>2020-06-17T08:40:29Z</time>
      </trkpt>
      <trkpt lat="49.32978" lon="-0.43966">
        <ele>9.3</ele>
        <time>2020-06-17T08:40:30Z</time>
      </trkpt>
      <trkpt lat="49.32977" lon="-0.43956">
        <ele>9.3</ele>
        <time>2020-06-17T08:40:31Z</time>
      </trkpt>
      <trkpt lat="49.32977" lon="-0.43947">
        <ele>9.3</ele>
        <time>2020-06-17T08:40:32Z</time>
      </trkpt>
      <trkpt lat="49.32977" lon="-0.43938">
        <ele>9.3</ele>
        <time>2020-06-17T08:40:33Z</time>
      </trkpt>
      <trkpt lat="49.32977" lon="-0.43928">
        <ele>9.3</ele>
        <time>2020-06-17T08:40:34Z</time>
      </trkpt>
      <trkpt lat="49.32977" lon="-0.43918">
        <ele>9.2</ele>
        <time>2020-06-17T08:40:35Z</time>
      </trkpt>
      <trkpt lat="49.32976" lon="-0.43909">
        <ele>9.2</ele>
        <time>2020-06-17T08:40:36Z</time>
      </trkpt>
      <trkpt lat="49.32976" lon="-0.43899">
        <ele>9.2</ele>
        <time>2020-06-17T08:40:37Z</time>
      </trkpt>
      <trkpt lat="49.32976" lon="-0.43889">
        <ele>9.1</ele>
        <time>2020-06-17T08:40:38Z</time>
      </trkpt>
      <trkpt lat="49.32975" lon="-0.43876">
        <ele>9.1</ele>
        <time>2020-06-17T08:40:39Z</time>
      </trkpt>
      <trkpt lat="49.32975" lon="-0.43864">
        <ele>9.1</ele>
        <time>2020-06-17T08:40:40Z</time>
      </trkpt>
      <trkpt lat="49.32974" lon="-0.43851">
        <ele>9.1</ele>
        <time>2020-06-17T08:40:41Z</time>
      </trkpt>
      <trkpt lat="49.32974" lon="-0.4384">
        <ele>9.1</ele>
        <time>2020-06-17T08:40:42Z</time>
      </trkpt>
      <trkpt lat="49.32973" lon="-0.43828">
        <ele>9.1</ele>
        <time>2020-06-17T08:40:43Z</time>
      </trkpt>
      <trkpt lat="49.32972" lon="-0.43814">
        <ele>9.1</ele>
        <time>2020-06-17T08:40:44Z</time>
      </trkpt>
      <trkpt lat="49.32972" lon="-0.43803">
        <ele>9.1</ele>
        <time>2020-06-17T08:40:45Z</time>
      </trkpt>
      <trkpt lat="49.32972" lon="-0.43791">
        <ele>9</ele>
        <time>2020-06-17T08:40:46Z</time>
      </trkpt>
      <trkpt lat="49.32971" lon="-0.4378">
        <ele>9</ele>
        <time>2020-06-17T08:40:47Z</time>
      </trkpt>
      <trkpt lat="49.3297" lon="-0.43768">
        <ele>9</ele>
        <time>2020-06-17T08:40:48Z</time>
      </trkpt>
      <trkpt lat="49.32969" lon="-0.43755">
        <ele>9</ele>
        <time>2020-06-17T08:40:49Z</time>
      </trkpt>
      <trkpt lat="49.32969" lon="-0.43744">
        <ele>8.9</ele>
        <time>2020-06-17T08:40:50Z</time>
      </trkpt>
      <trkpt lat="49.32968" lon="-0.43732">
        <ele>8.9</ele>
        <time>2020-06-17T08:40:51Z</time>
      </trkpt>
      <trkpt lat="49.32967" lon="-0.4372">
        <ele>9</ele>
        <time>2020-06-17T08:40:52Z</time>
      </trkpt>
      <trkpt lat="49.32966" lon="-0.43707">
        <ele>8.9</ele>
        <time>2020-06-17T08:40:53Z</time>
      </trkpt>
      <trkpt lat="49.32966" lon="-0.43695">
        <ele>8.9</ele>
        <time>2020-06-17T08:40:54Z</time>
      </trkpt>
      <trkpt lat="49.32966" lon="-0.43683">
        <ele>8.9</ele>
        <time>2020-06-17T08:40:55Z</time>
      </trkpt>
      <trkpt lat="49.32965" lon="-0.43671">
        <ele>8.8</ele>
        <time>2020-06-17T08:40:56Z</time>
      </trkpt>
      <trkpt lat="49.32965" lon="-0.4366">
        <ele>8.8</ele>
        <time>2020-06-17T08:40:57Z</time>
      </trkpt>
      <trkpt lat="49.32964" lon="-0.4365">
        <ele>8.8</ele>
        <time>2020-06-17T08:40:58Z</time>
      </trkpt>
      <trkpt lat="49.32963" lon="-0.43638">
        <ele>8.9</ele>
        <time>2020-06-17T08:40:59Z</time>
      </trkpt>
      <trkpt lat="49.32962" lon="-0.43626">
        <ele>8.9</ele>
        <time>2020-06-17T08:41:00Z</time>
      </trkpt>
      <trkpt lat="49.32961" lon="-0.43615">
        <ele>8.9</ele>
        <time>2020-06-17T08:41:01Z</time>
      </trkpt>
      <trkpt lat="49.3296" lon="-0.43603">
        <ele>8.9</ele>
        <time>2020-06-17T08:41:02Z</time>
      </trkpt>
      <trkpt lat="49.32959" lon="-0.43591">
        <ele>8.9</ele>
        <time>2020-06-17T08:41:03Z</time>
      </trkpt>
      <trkpt lat="49.32957" lon="-0.43579">
        <ele>8.9</ele>
        <time>2020-06-17T08:41:04Z</time>
      </trkpt>
      <trkpt lat="49.32956" lon="-0.43567">
        <ele>8.9</ele>
        <time>2020-06-17T08:41:05Z</time>
      </trkpt>
      <trkpt lat="49.32954" lon="-0.43554">
        <ele>8.9</ele>
        <time>2020-06-17T08:41:06Z</time>
      </trkpt>
      <trkpt lat="49.32954" lon="-0.43542">
        <ele>8.8</ele>
        <time>2020-06-17T08:41:07Z</time>
      </trkpt>
      <trkpt lat="49.32953" lon="-0.43533">
        <ele>8.8</ele>
        <time>2020-06-17T08:41:08Z</time>
      </trkpt>
      <trkpt lat="49.32953" lon="-0.43522">
        <ele>8.7</ele>
        <time>2020-06-17T08:41:09Z</time>
      </trkpt>
      <trkpt lat="49.32953" lon="-0.43511">
        <ele>8.7</ele>
        <time>2020-06-17T08:41:10Z</time>
      </trkpt>
      <trkpt lat="49.32953" lon="-0.435">
        <ele>8.7</ele>
        <time>2020-06-17T08:41:11Z</time>
      </trkpt>
      <trkpt lat="49.32953" lon="-0.43488">
        <ele>8.6</ele>
        <time>2020-06-17T08:41:12Z</time>
      </trkpt>
      <trkpt lat="49.32953" lon="-0.43477">
        <ele>8.6</ele>
        <time>2020-06-17T08:41:13Z</time>
      </trkpt>
      <trkpt lat="49.32954" lon="-0.43468">
        <ele>8.7</ele>
        <time>2020-06-17T08:41:14Z</time>
      </trkpt>
      <trkpt lat="49.32954" lon="-0.43459">
        <ele>8.7</ele>
        <time>2020-06-17T08:41:15Z</time>
      </trkpt>
      <trkpt lat="49.32954" lon="-0.4345">
        <ele>8.7</ele>
        <time>2020-06-17T08:41:16Z</time>
      </trkpt>
      <trkpt lat="49.32955" lon="-0.4344">
        <ele>8.7</ele>
        <time>2020-06-17T08:41:17Z</time>
      </trkpt>
      <trkpt lat="49.32955" lon="-0.43429">
        <ele>8.6</ele>
        <time>2020-06-17T08:41:18Z</time>
      </trkpt>
      <trkpt lat="49.32955" lon="-0.43418">
        <ele>8.6</ele>
        <time>2020-06-17T08:41:19Z</time>
      </trkpt>
      <trkpt lat="49.32954" lon="-0.43408">
        <ele>8.6</ele>
        <time>2020-06-17T08:41:20Z</time>
      </trkpt>
      <trkpt lat="49.32953" lon="-0.43399">
        <ele>8.6</ele>
        <time>2020-06-17T08:41:21Z</time>
      </trkpt>
      <trkpt lat="49.32951" lon="-0.43391">
        <ele>8.6</ele>
        <time>2020-06-17T08:41:22Z</time>
      </trkpt>
      <trkpt lat="49.3295" lon="-0.43384">
        <ele>8.7</ele>
        <time>2020-06-17T08:41:23Z</time>
      </trkpt>
      <trkpt lat="49.32949" lon="-0.43378">
        <ele>8.7</ele>
        <time>2020-06-17T08:41:24Z</time>
      </trkpt>
      <trkpt lat="49.32948" lon="-0.43375">
        <ele>8.7</ele>
        <time>2020-06-17T08:41:25Z</time>
      </trkpt>
      <trkpt lat="49.32948" lon="-0.43371">
        <ele>8.7</ele>
        <time>2020-06-17T08:41:26Z</time>
      </trkpt>
      <trkpt lat="49.32948" lon="-0.43366">
        <ele>8.7</ele>
        <time>2020-06-17T08:41:27Z</time>
      </trkpt>
      <trkpt lat="49.32949" lon="-0.43362">
        <ele>8.7</ele>
        <time>2020-06-17T08:41:28Z</time>
      </trkpt>
      <trkpt lat="49.32949" lon="-0.43359">
        <ele>8.7</ele>
        <time>2020-06-17T08:41:29Z</time>
      </trkpt>
      <trkpt lat="49.3295" lon="-0.43357">
        <ele>8.7</ele>
        <time>2020-06-17T08:41:30Z</time>
      </trkpt>
      <trkpt lat="49.32953" lon="-0.43355">
        <ele>8.7</ele>
        <time>2020-06-17T08:41:31Z</time>
      </trkpt>
      <trkpt lat="49.32954" lon="-0.43355">
        <ele>8.7</ele>
        <time>2020-06-17T08:41:32Z</time>
      </trkpt>
      <trkpt lat="49.32957" lon="-0.43354">
        <ele>8.6</ele>
        <time>2020-06-17T08:41:33Z</time>
      </trkpt>
      <trkpt lat="49.32958" lon="-0.43353">
        <ele>8.6</ele>
        <time>2020-06-17T08:41:34Z</time>
      </trkpt>
      <trkpt lat="49.3296" lon="-0.43348">
        <ele>8.5</ele>
        <time>2020-06-17T08:41:35Z</time>
      </trkpt>
      <trkpt lat="49.32961" lon="-0.43346">
        <ele>8.5</ele>
        <time>2020-06-17T08:41:36Z</time>
      </trkpt>
      <trkpt lat="49.32962" lon="-0.43341">
        <ele>8.5</ele>
        <time>2020-06-17T08:41:37Z</time>
      </trkpt>
      <trkpt lat="49.32963" lon="-0.4334">
        <ele>8.4</ele>
        <time>2020-06-17T08:41:38Z</time>
      </trkpt>
      <trkpt lat="49.32965" lon="-0.43336">
        <ele>8.4</ele>
        <time>2020-06-17T08:41:39Z</time>
      </trkpt>
      <trkpt lat="49.32967" lon="-0.43333">
        <ele>8.3</ele>
        <time>2020-06-17T08:41:40Z</time>
      </trkpt>
      <trkpt lat="49.32969" lon="-0.4333">
        <ele>8.3</ele>
        <time>2020-06-17T08:41:41Z</time>
      </trkpt>
      <trkpt lat="49.3297" lon="-0.43325">
        <ele>8.2</ele>
        <time>2020-06-17T08:41:42Z</time>
      </trkpt>
      <trkpt lat="49.32971" lon="-0.43324">
        <ele>8.2</ele>
        <time>2020-06-17T08:41:43Z</time>
      </trkpt>
      <trkpt lat="49.32973" lon="-0.4332">
        <ele>8.1</ele>
        <time>2020-06-17T08:41:44Z</time>
      </trkpt>
      <trkpt lat="49.32975" lon="-0.43316">
        <ele>8.1</ele>
        <time>2020-06-17T08:41:45Z</time>
      </trkpt>
      <trkpt lat="49.32977" lon="-0.43312">
        <ele>8</ele>
        <time>2020-06-17T08:41:46Z</time>
      </trkpt>
      <trkpt lat="49.3298" lon="-0.43307">
        <ele>7.9</ele>
        <time>2020-06-17T08:41:47Z</time>
      </trkpt>
      <trkpt lat="49.32982" lon="-0.43302">
        <ele>7.9</ele>
        <time>2020-06-17T08:41:48Z</time>
      </trkpt>
      <trkpt lat="49.32985" lon="-0.43297">
        <ele>7.8</ele>
        <time>2020-06-17T08:41:49Z</time>
      </trkpt>
      <trkpt lat="49.32989" lon="-0.43291">
        <ele>7.7</ele>
        <time>2020-06-17T08:41:50Z</time>
      </trkpt>
      <trkpt lat="49.32992" lon="-0.43286">
        <ele>7.6</ele>
        <time>2020-06-17T08:41:51Z</time>
      </trkpt>
      <trkpt lat="49.32997" lon="-0.43281">
        <ele>7.5</ele>
        <time>2020-06-17T08:41:52Z</time>
      </trkpt>
      <trkpt lat="49.33" lon="-0.43275">
        <ele>7.5</ele>
        <time>2020-06-17T08:41:53Z</time>
      </trkpt>
      <trkpt lat="49.33004" lon="-0.43271">
        <ele>7.4</ele>
        <time>2020-06-17T08:41:54Z</time>
      </trkpt>
      <trkpt lat="49.33007" lon="-0.43266">
        <ele>7.3</ele>
        <time>2020-06-17T08:41:55Z</time>
      </trkpt>
      <trkpt lat="49.33011" lon="-0.43261">
        <ele>7.2</ele>
        <time>2020-06-17T08:41:56Z</time>
      </trkpt>
      <trkpt lat="49.33015" lon="-0.43257">
        <ele>7.1</ele>
        <time>2020-06-17T08:41:57Z</time>
      </trkpt>
      <trkpt lat="49.33019" lon="-0.43253">
        <ele>7</ele>
        <time>2020-06-17T08:41:58Z</time>
      </trkpt>
      <trkpt lat="49.33023" lon="-0.43248">
        <ele>6.9</ele>
        <time>2020-06-17T08:41:59Z</time>
      </trkpt>
      <trkpt lat="49.33028" lon="-0.43242">
        <ele>6.7</ele>
        <time>2020-06-17T08:42:00Z</time>
      </trkpt>
      <trkpt lat="49.33033" lon="-0.43237">
        <ele>6.6</ele>
        <time>2020-06-17T08:42:01Z</time>
      </trkpt>
      <trkpt lat="49.33036" lon="-0.43231">
        <ele>6.5</ele>
        <time>2020-06-17T08:42:02Z</time>
      </trkpt>
      <trkpt lat="49.33041" lon="-0.43227">
        <ele>6.4</ele>
        <time>2020-06-17T08:42:03Z</time>
      </trkpt>
      <trkpt lat="49.33044" lon="-0.4322">
        <ele>6.2</ele>
        <time>2020-06-17T08:42:04Z</time>
      </trkpt>
      <trkpt lat="49.33049" lon="-0.43213">
        <ele>6.1</ele>
        <time>2020-06-17T08:42:05Z</time>
      </trkpt>
      <trkpt lat="49.33054" lon="-0.43208">
        <ele>5.9</ele>
        <time>2020-06-17T08:42:06Z</time>
      </trkpt>
      <trkpt lat="49.3306" lon="-0.43203">
        <ele>5.8</ele>
        <time>2020-06-17T08:42:07Z</time>
      </trkpt>
      <trkpt lat="49.33065" lon="-0.43198">
        <ele>5.7</ele>
        <time>2020-06-17T08:42:08Z</time>
      </trkpt>
      <trkpt lat="49.33071" lon="-0.43194">
        <ele>5.6</ele>
        <time>2020-06-17T08:42:09Z</time>
      </trkpt>
      <trkpt lat="49.33077" lon="-0.43189">
        <ele>5.5</ele>
        <time>2020-06-17T08:42:10Z</time>
      </trkpt>
      <trkpt lat="49.33084" lon="-0.43185">
        <ele>5.3</ele>
        <time>2020-06-17T08:42:11Z</time>
      </trkpt>
      <trkpt lat="49.33091" lon="-0.43182">
        <ele>5.2</ele>
        <time>2020-06-17T08:42:12Z</time>
      </trkpt>
      <trkpt lat="49.33098" lon="-0.43179">
        <ele>5.1</ele>
        <time>2020-06-17T08:42:13Z</time>
      </trkpt>
      <trkpt lat="49.33104" lon="-0.43175">
        <ele>4.9</ele>
        <time>2020-06-17T08:42:14Z</time>
      </trkpt>
      <trkpt lat="49.33112" lon="-0.4317">
        <ele>4.8</ele>
        <time>2020-06-17T08:42:15Z</time>
      </trkpt>
      <trkpt lat="49.33121" lon="-0.43166">
        <ele>4.6</ele>
        <time>2020-06-17T08:42:16Z</time>
      </trkpt>
      <trkpt lat="49.33129" lon="-0.43161">
        <ele>4.5</ele>
        <time>2020-06-17T08:42:17Z</time>
      </trkpt>
      <trkpt lat="49.33136" lon="-0.43155">
        <ele>4.3</ele>
        <time>2020-06-17T08:42:18Z</time>
      </trkpt>
      <trkpt lat="49.33143" lon="-0.43149">
        <ele>4.2</ele>
        <time>2020-06-17T08:42:19Z</time>
      </trkpt>
      <trkpt lat="49.33149" lon="-0.43144">
        <ele>4.2</ele>
        <time>2020-06-17T08:42:20Z</time>
      </trkpt>
      <trkpt lat="49.33156" lon="-0.43137">
        <ele>4</ele>
        <time>2020-06-17T08:42:21Z</time>
      </trkpt>
      <trkpt lat="49.33162" lon="-0.43131">
        <ele>3.9</ele>
        <time>2020-06-17T08:42:22Z</time>
      </trkpt>
      <trkpt lat="49.33167" lon="-0.43124">
        <ele>3.9</ele>
        <time>2020-06-17T08:42:23Z</time>
      </trkpt>
      <trkpt lat="49.33171" lon="-0.43116">
        <ele>3.8</ele>
        <time>2020-06-17T08:42:24Z</time>
      </trkpt>
      <trkpt lat="49.33176" lon="-0.43109">
        <ele>3.7</ele>
        <time>2020-06-17T08:42:25Z</time>
      </trkpt>
      <trkpt lat="49.33181" lon="-0.43102">
        <ele>3.7</ele>
        <time>2020-06-17T08:42:26Z</time>
      </trkpt>
      <trkpt lat="49.33185" lon="-0.43093">
        <ele>3.6</ele>
        <time>2020-06-17T08:42:27Z</time>
      </trkpt>
      <trkpt lat="49.33189" lon="-0.43086">
        <ele>3.6</ele>
        <time>2020-06-17T08:42:28Z</time>
      </trkpt>
      <trkpt lat="49.33193" lon="-0.43078">
        <ele>3.5</ele>
        <time>2020-06-17T08:42:29Z</time>
      </trkpt>
      <trkpt lat="49.33196" lon="-0.43069">
        <ele>3.4</ele>
        <time>2020-06-17T08:42:30Z</time>
      </trkpt>
      <trkpt lat="49.332" lon="-0.43061">
        <ele>3.4</ele>
        <time>2020-06-17T08:42:31Z</time>
      </trkpt>
      <trkpt lat="49.33203" lon="-0.43053">
        <ele>3.3</ele>
        <time>2020-06-17T08:42:32Z</time>
      </trkpt>
      <trkpt lat="49.33207" lon="-0.43044">
        <ele>3.3</ele>
        <time>2020-06-17T08:42:33Z</time>
      </trkpt>
      <trkpt lat="49.33211" lon="-0.43036">
        <ele>3.3</ele>
        <time>2020-06-17T08:42:34Z</time>
      </trkpt>
      <trkpt lat="49.33214" lon="-0.43028">
        <ele>3.2</ele>
        <time>2020-06-17T08:42:35Z</time>
      </trkpt>
      <trkpt lat="49.33217" lon="-0.43019">
        <ele>3.2</ele>
        <time>2020-06-17T08:42:36Z</time>
      </trkpt>
      <trkpt lat="49.33221" lon="-0.4301">
        <ele>3.1</ele>
        <time>2020-06-17T08:42:37Z</time>
      </trkpt>
      <trkpt lat="49.33224" lon="-0.43001">
        <ele>3.1</ele>
        <time>2020-06-17T08:42:38Z</time>
      </trkpt>
      <trkpt lat="49.33228" lon="-0.42991">
        <ele>3</ele>
        <time>2020-06-17T08:42:39Z</time>
      </trkpt>
      <trkpt lat="49.3323" lon="-0.42982">
        <ele>3</ele>
        <time>2020-06-17T08:42:40Z</time>
      </trkpt>
      <trkpt lat="49.33234" lon="-0.42971">
        <ele>2.9</ele>
        <time>2020-06-17T08:42:41Z</time>
      </trkpt>
      <trkpt lat="49.33239" lon="-0.4296">
        <ele>2.9</ele>
        <time>2020-06-17T08:42:42Z</time>
      </trkpt>
      <trkpt lat="49.33242" lon="-0.4295">
        <ele>2.9</ele>
        <time>2020-06-17T08:42:43Z</time>
      </trkpt>
      <trkpt lat="49.33245" lon="-0.4294">
        <ele>2.9</ele>
        <time>2020-06-17T08:42:44Z</time>
      </trkpt>
      <trkpt lat="49.33247" lon="-0.4293">
        <ele>2.9</ele>
        <time>2020-06-17T08:42:45Z</time>
      </trkpt>
      <trkpt lat="49.3325" lon="-0.4292">
        <ele>2.9</ele>
        <time>2020-06-17T08:42:46Z</time>
      </trkpt>
      <trkpt lat="49.33253" lon="-0.42909">
        <ele>2.8</ele>
        <time>2020-06-17T08:42:47Z</time>
      </trkpt>
      <trkpt lat="49.33254" lon="-0.42896">
        <ele>2.8</ele>
        <time>2020-06-17T08:42:48Z</time>
      </trkpt>
      <trkpt lat="49.33255" lon="-0.42884">
        <ele>2.9</ele>
        <time>2020-06-17T08:42:49Z</time>
      </trkpt>
      <trkpt lat="49.33259" lon="-0.42873">
        <ele>2.9</ele>
        <time>2020-06-17T08:42:50Z</time>
      </trkpt>
      <trkpt lat="49.33261" lon="-0.42863">
        <ele>2.9</ele>
        <time>2020-06-17T08:42:51Z</time>
      </trkpt>
      <trkpt lat="49.33264" lon="-0.42851">
        <ele>2.8</ele>
        <time>2020-06-17T08:42:52Z</time>
      </trkpt>
      <trkpt lat="49.33267" lon="-0.42842">
        <ele>2.8</ele>
        <time>2020-06-17T08:42:53Z</time>
      </trkpt>
      <trkpt lat="49.3327" lon="-0.42832">
        <ele>2.8</ele>
        <time>2020-06-17T08:42:54Z</time>
      </trkpt>
      <trkpt lat="49.33274" lon="-0.42823">
        <ele>2.8</ele>
        <time>2020-06-17T08:42:55Z</time>
      </trkpt>
      <trkpt lat="49.3328" lon="-0.42814">
        <ele>2.8</ele>
        <time>2020-06-17T08:42:56Z</time>
      </trkpt>
      <trkpt lat="49.33284" lon="-0.42807">
        <ele>2.8</ele>
        <time>2020-06-17T08:42:57Z</time>
      </trkpt>
      <trkpt lat="49.33289" lon="-0.42799">
        <ele>2.7</ele>
        <time>2020-06-17T08:42:58Z</time>
      </trkpt>
      <trkpt lat="49.33294" lon="-0.42793">
        <ele>2.7</ele>
        <time>2020-06-17T08:42:59Z</time>
      </trkpt>
      <trkpt lat="49.33299" lon="-0.42785">
        <ele>2.6</ele>
        <time>2020-06-17T08:43:00Z</time>
      </trkpt>
      <trkpt lat="49.33304" lon="-0.42778">
        <ele>2.6</ele>
        <time>2020-06-17T08:43:01Z</time>
      </trkpt>
      <trkpt lat="49.33309" lon="-0.42771">
        <ele>2.6</ele>
        <time>2020-06-17T08:43:02Z</time>
      </trkpt>
      <trkpt lat="49.33315" lon="-0.42765">
        <ele>2.6</ele>
        <time>2020-06-17T08:43:03Z</time>
      </trkpt>
      <trkpt lat="49.3332" lon="-0.42759">
        <ele>2.6</ele>
        <time>2020-06-17T08:43:04Z</time>
      </trkpt>
      <trkpt lat="49.33326" lon="-0.42752">
        <ele>2.6</ele>
        <time>2020-06-17T08:43:05Z</time>
      </trkpt>
      <trkpt lat="49.33331" lon="-0.42746">
        <ele>2.6</ele>
        <time>2020-06-17T08:43:06Z</time>
      </trkpt>
      <trkpt lat="49.33336" lon="-0.4274">
        <ele>2.6</ele>
        <time>2020-06-17T08:43:07Z</time>
      </trkpt>
      <trkpt lat="49.33342" lon="-0.42735">
        <ele>2.6</ele>
        <time>2020-06-17T08:43:08Z</time>
      </trkpt>
      <trkpt lat="49.33349" lon="-0.4273">
        <ele>2.6</ele>
        <time>2020-06-17T08:43:09Z</time>
      </trkpt>
      <trkpt lat="49.33354" lon="-0.42726">
        <ele>2.6</ele>
        <time>2020-06-17T08:43:10Z</time>
      </trkpt>
      <trkpt lat="49.33359" lon="-0.42721">
        <ele>2.6</ele>
        <time>2020-06-17T08:43:11Z</time>
      </trkpt>
      <trkpt lat="49.33364" lon="-0.42717">
        <ele>2.6</ele>
        <time>2020-06-17T08:43:12Z</time>
      </trkpt>
      <trkpt lat="49.33369" lon="-0.42713">
        <ele>2.6</ele>
        <time>2020-06-17T08:43:13Z</time>
      </trkpt>
      <trkpt lat="49.33374" lon="-0.42707">
        <ele>2.6</ele>
        <time>2020-06-17T08:43:14Z</time>
      </trkpt>
      <trkpt lat="49.33381" lon="-0.42703">
        <ele>2.6</ele>
        <time>2020-06-17T08:43:15Z</time>
      </trkpt>
      <trkpt lat="49.33387" lon="-0.42698">
        <ele>2.6</ele>
        <time>2020-06-17T08:43:16Z</time>
      </trkpt>
      <trkpt lat="49.33393" lon="-0.42692">
        <ele>2.6</ele>
        <time>2020-06-17T08:43:17Z</time>
      </trkpt>
      <trkpt lat="49.33399" lon="-0.42687">
        <ele>2.7</ele>
        <time>2020-06-17T08:43:18Z</time>
      </trkpt>
      <trkpt lat="49.33405" lon="-0.42682">
        <ele>2.7</ele>
        <time>2020-06-17T08:43:19Z</time>
      </trkpt>
      <trkpt lat="49.33411" lon="-0.42678">
        <ele>2.7</ele>
        <time>2020-06-17T08:43:20Z</time>
      </trkpt>
      <trkpt lat="49.33417" lon="-0.42672">
        <ele>2.7</ele>
        <time>2020-06-17T08:43:21Z</time>
      </trkpt>
      <trkpt lat="49.33423" lon="-0.42667">
        <ele>2.8</ele>
        <time>2020-06-17T08:43:22Z</time>
      </trkpt>
      <trkpt lat="49.33429" lon="-0.42662">
        <ele>2.8</ele>
        <time>2020-06-17T08:43:23Z</time>
      </trkpt>
      <trkpt lat="49.33434" lon="-0.42658">
        <ele>2.8</ele>
        <time>2020-06-17T08:43:24Z</time>
      </trkpt>
      <trkpt lat="49.33439" lon="-0.42655">
        <ele>2.8</ele>
        <time>2020-06-17T08:43:25Z</time>
      </trkpt>
      <trkpt lat="49.33445" lon="-0.42649">
        <ele>2.9</ele>
        <time>2020-06-17T08:43:26Z</time>
      </trkpt>
      <trkpt lat="49.33451" lon="-0.42644">
        <ele>2.9</ele>
        <time>2020-06-17T08:43:27Z</time>
      </trkpt>
      <trkpt lat="49.33456" lon="-0.42639">
        <ele>2.9</ele>
        <time>2020-06-17T08:43:28Z</time>
      </trkpt>
      <trkpt lat="49.3346" lon="-0.42632">
        <ele>3</ele>
        <time>2020-06-17T08:43:29Z</time>
      </trkpt>
      <trkpt lat="49.33465" lon="-0.42626">
        <ele>3</ele>
        <time>2020-06-17T08:43:30Z</time>
      </trkpt>
      <trkpt lat="49.33467" lon="-0.4262">
        <ele>3.1</ele>
        <time>2020-06-17T08:43:31Z</time>
      </trkpt>
      <trkpt lat="49.33471" lon="-0.42613">
        <ele>3.1</ele>
        <time>2020-06-17T08:43:32Z</time>
      </trkpt>
      <trkpt lat="49.33474" lon="-0.42606">
        <ele>3.1</ele>
        <time>2020-06-17T08:43:33Z</time>
      </trkpt>
      <trkpt lat="49.33479" lon="-0.42597">
        <ele>3.1</ele>
        <time>2020-06-17T08:43:34Z</time>
      </trkpt>
      <trkpt lat="49.33482" lon="-0.42588">
        <ele>3.1</ele>
        <time>2020-06-17T08:43:35Z</time>
      </trkpt>
      <trkpt lat="49.33485" lon="-0.42579">
        <ele>3.2</ele>
        <time>2020-06-17T08:43:36Z</time>
      </trkpt>
      <trkpt lat="49.33488" lon="-0.42571">
        <ele>3.2</ele>
        <time>2020-06-17T08:43:37Z</time>
      </trkpt>
      <trkpt lat="49.33491" lon="-0.42563">
        <ele>3.3</ele>
        <time>2020-06-17T08:43:38Z</time>
      </trkpt>
      <trkpt lat="49.33493" lon="-0.42556">
        <ele>3.4</ele>
        <time>2020-06-17T08:43:39Z</time>
      </trkpt>
      <trkpt lat="49.33495" lon="-0.42548">
        <ele>3.4</ele>
        <time>2020-06-17T08:43:40Z</time>
      </trkpt>
      <trkpt lat="49.33497" lon="-0.4254">
        <ele>3.5</ele>
        <time>2020-06-17T08:43:41Z</time>
      </trkpt>
      <trkpt lat="49.33498" lon="-0.42531">
        <ele>3.6</ele>
        <time>2020-06-17T08:43:42Z</time>
      </trkpt>
      <trkpt lat="49.33499" lon="-0.42522">
        <ele>3.6</ele>
        <time>2020-06-17T08:43:43Z</time>
      </trkpt>
      <trkpt lat="49.33499" lon="-0.42514">
        <ele>3.7</ele>
        <time>2020-06-17T08:43:44Z</time>
      </trkpt>
      <trkpt lat="49.33499" lon="-0.42504">
        <ele>3.8</ele>
        <time>2020-06-17T08:43:45Z</time>
      </trkpt>
      <trkpt lat="49.33498" lon="-0.42495">
        <ele>3.9</ele>
        <time>2020-06-17T08:43:46Z</time>
      </trkpt>
      <trkpt lat="49.33498" lon="-0.42484">
        <ele>3.9</ele>
        <time>2020-06-17T08:43:47Z</time>
      </trkpt>
      <trkpt lat="49.33497" lon="-0.42476">
        <ele>4</ele>
        <time>2020-06-17T08:43:48Z</time>
      </trkpt>
      <trkpt lat="49.33496" lon="-0.42468">
        <ele>4</ele>
        <time>2020-06-17T08:43:49Z</time>
      </trkpt>
      <trkpt lat="49.33495" lon="-0.42458">
        <ele>4.1</ele>
        <time>2020-06-17T08:43:50Z</time>
      </trkpt>
      <trkpt lat="49.33495" lon="-0.4245">
        <ele>4.1</ele>
        <time>2020-06-17T08:43:51Z</time>
      </trkpt>
      <trkpt lat="49.33495" lon="-0.42441">
        <ele>4.2</ele>
        <time>2020-06-17T08:43:52Z</time>
      </trkpt>
      <trkpt lat="49.33494" lon="-0.42432">
        <ele>4.1</ele>
        <time>2020-06-17T08:43:53Z</time>
      </trkpt>
      <trkpt lat="49.33494" lon="-0.42424">
        <ele>4.1</ele>
        <time>2020-06-17T08:43:54Z</time>
      </trkpt>
      <trkpt lat="49.33492" lon="-0.42417">
        <ele>4.1</ele>
        <time>2020-06-17T08:43:55Z</time>
      </trkpt>
      <trkpt lat="49.33491" lon="-0.42408">
        <ele>4.1</ele>
        <time>2020-06-17T08:43:56Z</time>
      </trkpt>
      <trkpt lat="49.3349" lon="-0.42399">
        <ele>4</ele>
        <time>2020-06-17T08:43:57Z</time>
      </trkpt>
      <trkpt lat="49.33489" lon="-0.42389">
        <ele>3.9</ele>
        <time>2020-06-17T08:43:58Z</time>
      </trkpt>
      <trkpt lat="49.33488" lon="-0.42378">
        <ele>3.9</ele>
        <time>2020-06-17T08:43:59Z</time>
      </trkpt>
      <trkpt lat="49.33487" lon="-0.42368">
        <ele>3.8</ele>
        <time>2020-06-17T08:44:00Z</time>
      </trkpt>
      <trkpt lat="49.33487" lon="-0.42357">
        <ele>3.7</ele>
        <time>2020-06-17T08:44:01Z</time>
      </trkpt>
      <trkpt lat="49.33486" lon="-0.42347">
        <ele>3.7</ele>
        <time>2020-06-17T08:44:02Z</time>
      </trkpt>
      <trkpt lat="49.33485" lon="-0.42338">
        <ele>3.6</ele>
        <time>2020-06-17T08:44:03Z</time>
      </trkpt>
      <trkpt lat="49.33484" lon="-0.42327">
        <ele>3.6</ele>
        <time>2020-06-17T08:44:04Z</time>
      </trkpt>
      <trkpt lat="49.33484" lon="-0.42316">
        <ele>3.6</ele>
        <time>2020-06-17T08:44:05Z</time>
      </trkpt>
      <trkpt lat="49.33483" lon="-0.42306">
        <ele>3.5</ele>
        <time>2020-06-17T08:44:06Z</time>
      </trkpt>
      <trkpt lat="49.33482" lon="-0.42295">
        <ele>3.5</ele>
        <time>2020-06-17T08:44:07Z</time>
      </trkpt>
      <trkpt lat="49.33482" lon="-0.42285">
        <ele>3.5</ele>
        <time>2020-06-17T08:44:08Z</time>
      </trkpt>
      <trkpt lat="49.33481" lon="-0.42275">
        <ele>3.5</ele>
        <time>2020-06-17T08:44:09Z</time>
      </trkpt>
      <trkpt lat="49.33481" lon="-0.42266">
        <ele>3.4</ele>
        <time>2020-06-17T08:44:10Z</time>
      </trkpt>
      <trkpt lat="49.33481" lon="-0.42257">
        <ele>3.3</ele>
        <time>2020-06-17T08:44:11Z</time>
      </trkpt>
      <trkpt lat="49.3348" lon="-0.42249">
        <ele>3.3</ele>
        <time>2020-06-17T08:44:12Z</time>
      </trkpt>
      <trkpt lat="49.3348" lon="-0.42239">
        <ele>3.2</ele>
        <time>2020-06-17T08:44:13Z</time>
      </trkpt>
      <trkpt lat="49.3348" lon="-0.4223">
        <ele>3.1</ele>
        <time>2020-06-17T08:44:14Z</time>
      </trkpt>
      <trkpt lat="49.33479" lon="-0.42218">
        <ele>3</ele>
        <time>2020-06-17T08:44:15Z</time>
      </trkpt>
      <trkpt lat="49.33479" lon="-0.42208">
        <ele>3</ele>
        <time>2020-06-17T08:44:16Z</time>
      </trkpt>
      <trkpt lat="49.33478" lon="-0.422">
        <ele>2.9</ele>
        <time>2020-06-17T08:44:17Z</time>
      </trkpt>
      <trkpt lat="49.33478" lon="-0.42191">
        <ele>2.9</ele>
        <time>2020-06-17T08:44:18Z</time>
      </trkpt>
      <trkpt lat="49.33477" lon="-0.42181">
        <ele>2.9</ele>
        <time>2020-06-17T08:44:19Z</time>
      </trkpt>
      <trkpt lat="49.33477" lon="-0.4217">
        <ele>2.8</ele>
        <time>2020-06-17T08:44:20Z</time>
      </trkpt>
      <trkpt lat="49.33476" lon="-0.42161">
        <ele>2.8</ele>
        <time>2020-06-17T08:44:21Z</time>
      </trkpt>
      <trkpt lat="49.33476" lon="-0.42151">
        <ele>2.8</ele>
        <time>2020-06-17T08:44:22Z</time>
      </trkpt>
      <trkpt lat="49.33476" lon="-0.42139">
        <ele>2.9</ele>
        <time>2020-06-17T08:44:23Z</time>
      </trkpt>
      <trkpt lat="49.33475" lon="-0.42128">
        <ele>2.9</ele>
        <time>2020-06-17T08:44:24Z</time>
      </trkpt>
      <trkpt lat="49.33475" lon="-0.42116">
        <ele>2.9</ele>
        <time>2020-06-17T08:44:25Z</time>
      </trkpt>
      <trkpt lat="49.33475" lon="-0.42106">
        <ele>2.9</ele>
        <time>2020-06-17T08:44:26Z</time>
      </trkpt>
      <trkpt lat="49.33475" lon="-0.42094">
        <ele>2.8</ele>
        <time>2020-06-17T08:44:27Z</time>
      </trkpt>
      <trkpt lat="49.33475" lon="-0.42083">
        <ele>2.8</ele>
        <time>2020-06-17T08:44:28Z</time>
      </trkpt>
      <trkpt lat="49.33475" lon="-0.42073">
        <ele>2.7</ele>
        <time>2020-06-17T08:44:29Z</time>
      </trkpt>
      <trkpt lat="49.33475" lon="-0.42062">
        <ele>2.7</ele>
        <time>2020-06-17T08:44:30Z</time>
      </trkpt>
      <trkpt lat="49.33474" lon="-0.42051">
        <ele>2.7</ele>
        <time>2020-06-17T08:44:31Z</time>
      </trkpt>
      <trkpt lat="49.33473" lon="-0.42041">
        <ele>2.6</ele>
        <time>2020-06-17T08:44:32Z</time>
      </trkpt>
      <trkpt lat="49.33473" lon="-0.4203">
        <ele>2.6</ele>
        <time>2020-06-17T08:44:33Z</time>
      </trkpt>
      <trkpt lat="49.33472" lon="-0.4202">
        <ele>2.5</ele>
        <time>2020-06-17T08:44:34Z</time>
      </trkpt>
      <trkpt lat="49.33471" lon="-0.4201">
        <ele>2.5</ele>
        <time>2020-06-17T08:44:35Z</time>
      </trkpt>
      <trkpt lat="49.3347" lon="-0.42">
        <ele>2.5</ele>
        <time>2020-06-17T08:44:36Z</time>
      </trkpt>
      <trkpt lat="49.33469" lon="-0.41991">
        <ele>2.5</ele>
        <time>2020-06-17T08:44:37Z</time>
      </trkpt>
      <trkpt lat="49.33468" lon="-0.4198">
        <ele>2.5</ele>
        <time>2020-06-17T08:44:38Z</time>
      </trkpt>
      <trkpt lat="49.33468" lon="-0.4197">
        <ele>2.5</ele>
        <time>2020-06-17T08:44:39Z</time>
      </trkpt>
      <trkpt lat="49.33468" lon="-0.4196">
        <ele>2.5</ele>
        <time>2020-06-17T08:44:40Z</time>
      </trkpt>
      <trkpt lat="49.33468" lon="-0.41949">
        <ele>2.5</ele>
        <time>2020-06-17T08:44:41Z</time>
      </trkpt>
      <trkpt lat="49.33467" lon="-0.4194">
        <ele>2.6</ele>
        <time>2020-06-17T08:44:42Z</time>
      </trkpt>
      <trkpt lat="49.33468" lon="-0.41931">
        <ele>2.6</ele>
        <time>2020-06-17T08:44:43Z</time>
      </trkpt>
      <trkpt lat="49.33468" lon="-0.41923">
        <ele>2.7</ele>
        <time>2020-06-17T08:44:44Z</time>
      </trkpt>
      <trkpt lat="49.33467" lon="-0.41915">
        <ele>2.7</ele>
        <time>2020-06-17T08:44:45Z</time>
      </trkpt>
      <trkpt lat="49.33467" lon="-0.41907">
        <ele>2.8</ele>
        <time>2020-06-17T08:44:46Z</time>
      </trkpt>
      <trkpt lat="49.33467" lon="-0.41898">
        <ele>2.8</ele>
        <time>2020-06-17T08:44:47Z</time>
      </trkpt>
      <trkpt lat="49.33467" lon="-0.41888">
        <ele>2.9</ele>
        <time>2020-06-17T08:44:48Z</time>
      </trkpt>
      <trkpt lat="49.33468" lon="-0.41881">
        <ele>2.9</ele>
        <time>2020-06-17T08:44:49Z</time>
      </trkpt>
      <trkpt lat="49.33468" lon="-0.41872">
        <ele>2.9</ele>
        <time>2020-06-17T08:44:50Z</time>
      </trkpt>
      <trkpt lat="49.33468" lon="-0.41861">
        <ele>3</ele>
        <time>2020-06-17T08:44:51Z</time>
      </trkpt>
      <trkpt lat="49.33468" lon="-0.4185">
        <ele>3</ele>
        <time>2020-06-17T08:44:52Z</time>
      </trkpt>
      <trkpt lat="49.33469" lon="-0.41842">
        <ele>3.1</ele>
        <time>2020-06-17T08:44:53Z</time>
      </trkpt>
      <trkpt lat="49.3347" lon="-0.41832">
        <ele>3.1</ele>
        <time>2020-06-17T08:44:54Z</time>
      </trkpt>
      <trkpt lat="49.3347" lon="-0.41823">
        <ele>3.1</ele>
        <time>2020-06-17T08:44:55Z</time>
      </trkpt>
      <trkpt lat="49.3347" lon="-0.41814">
        <ele>3.2</ele>
        <time>2020-06-17T08:44:56Z</time>
      </trkpt>
      <trkpt lat="49.3347" lon="-0.41805">
        <ele>3.2</ele>
        <time>2020-06-17T08:44:57Z</time>
      </trkpt>
      <trkpt lat="49.3347" lon="-0.41797">
        <ele>3.2</ele>
        <time>2020-06-17T08:44:58Z</time>
      </trkpt>
      <trkpt lat="49.33469" lon="-0.4179">
        <ele>3.3</ele>
        <time>2020-06-17T08:44:59Z</time>
      </trkpt>
      <trkpt lat="49.33468" lon="-0.41783">
        <ele>3.3</ele>
        <time>2020-06-17T08:45:00Z</time>
      </trkpt>
      <trkpt lat="49.33468" lon="-0.41777">
        <ele>3.3</ele>
        <time>2020-06-17T08:45:01Z</time>
      </trkpt>
      <trkpt lat="49.33468" lon="-0.4177">
        <ele>3.4</ele>
        <time>2020-06-17T08:45:02Z</time>
      </trkpt>
      <trkpt lat="49.33468" lon="-0.41762">
        <ele>3.4</ele>
        <time>2020-06-17T08:45:03Z</time>
      </trkpt>
      <trkpt lat="49.33469" lon="-0.41756">
        <ele>3.4</ele>
        <time>2020-06-17T08:45:04Z</time>
      </trkpt>
      <trkpt lat="49.33471" lon="-0.41751">
        <ele>3.4</ele>
        <time>2020-06-17T08:45:05Z</time>
      </trkpt>
      <trkpt lat="49.33474" lon="-0.41749">
        <ele>3.4</ele>
        <time>2020-06-17T08:45:06Z</time>
      </trkpt>
      <trkpt lat="49.33477" lon="-0.41749">
        <ele>3.4</ele>
        <time>2020-06-17T08:45:07Z</time>
      </trkpt>
      <trkpt lat="49.33481" lon="-0.41747">
        <ele>3.4</ele>
        <time>2020-06-17T08:45:08Z</time>
      </trkpt>
      <trkpt lat="49.33485" lon="-0.41747">
        <ele>3.3</ele>
        <time>2020-06-17T08:45:09Z</time>
      </trkpt>
      <trkpt lat="49.3349" lon="-0.41745">
        <ele>3.3</ele>
        <time>2020-06-17T08:45:10Z</time>
      </trkpt>
      <trkpt lat="49.33495" lon="-0.41745">
        <ele>3.3</ele>
        <time>2020-06-17T08:45:11Z</time>
      </trkpt>
      <trkpt lat="49.33501" lon="-0.41745">
        <ele>3.3</ele>
        <time>2020-06-17T08:45:12Z</time>
      </trkpt>
      <trkpt lat="49.33507" lon="-0.41744">
        <ele>3.2</ele>
        <time>2020-06-17T08:45:13Z</time>
      </trkpt>
      <trkpt lat="49.33512" lon="-0.41744">
        <ele>3.2</ele>
        <time>2020-06-17T08:45:14Z</time>
      </trkpt>
      <trkpt lat="49.33517" lon="-0.41742">
        <ele>3.1</ele>
        <time>2020-06-17T08:45:15Z</time>
      </trkpt>
      <trkpt lat="49.33524" lon="-0.41742">
        <ele>3.1</ele>
        <time>2020-06-17T08:45:16Z</time>
      </trkpt>
      <trkpt lat="49.3353" lon="-0.41741">
        <ele>3.1</ele>
        <time>2020-06-17T08:45:17Z</time>
      </trkpt>
      <trkpt lat="49.33536" lon="-0.4174">
        <ele>3.1</ele>
        <time>2020-06-17T08:45:18Z</time>
      </trkpt>
      <trkpt lat="49.33542" lon="-0.41739">
        <ele>3.2</ele>
        <time>2020-06-17T08:45:19Z</time>
      </trkpt>
      <trkpt lat="49.33548" lon="-0.41738">
        <ele>3.2</ele>
        <time>2020-06-17T08:45:20Z</time>
      </trkpt>
      <trkpt lat="49.33552" lon="-0.41737">
        <ele>3.2</ele>
        <time>2020-06-17T08:45:21Z</time>
      </trkpt>
      <trkpt lat="49.33555" lon="-0.41736">
        <ele>3.2</ele>
        <time>2020-06-17T08:45:22Z</time>
      </trkpt>
      <trkpt lat="49.33558" lon="-0.41736">
        <ele>3.2</ele>
        <time>2020-06-17T08:45:23Z</time>
      </trkpt>
      <trkpt lat="49.33563" lon="-0.41735">
        <ele>3.2</ele>
        <time>2020-06-17T08:45:24Z</time>
      </trkpt>
      <trkpt lat="49.33567" lon="-0.41734">
        <ele>3.1</ele>
        <time>2020-06-17T08:45:25Z</time>
      </trkpt>
      <trkpt lat="49.3357" lon="-0.41733">
        <ele>3.1</ele>
        <time>2020-06-17T08:45:26Z</time>
      </trkpt>
      <trkpt lat="49.33573" lon="-0.41731">
        <ele>3.1</ele>
        <time>2020-06-17T08:45:27Z</time>
      </trkpt>
      <trkpt lat="49.33576" lon="-0.41729">
        <ele>3.1</ele>
        <time>2020-06-17T08:45:28Z</time>
      </trkpt>
      <trkpt lat="49.33578" lon="-0.41727">
        <ele>3.1</ele>
        <time>2020-06-17T08:45:29Z</time>
      </trkpt>
      <trkpt lat="49.33579" lon="-0.41725">
        <ele>3.1</ele>
        <time>2020-06-17T08:45:30Z</time>
      </trkpt>
      <trkpt lat="49.3358" lon="-0.41724">
        <ele>3.1</ele>
        <time>2020-06-17T08:45:31Z</time>
      </trkpt>
      <trkpt lat="49.33581" lon="-0.41722">
        <ele>3.1</ele>
        <time>2020-06-17T08:45:32Z</time>
      </trkpt>
      <trkpt lat="49.33582" lon="-0.41719">
        <ele>3.1</ele>
        <time>2020-06-17T08:45:33Z</time>
      </trkpt>
      <trkpt lat="49.33582" lon="-0.41717">
        <ele>3.1</ele>
        <time>2020-06-17T08:45:34Z</time>
      </trkpt>
      <trkpt lat="49.33581" lon="-0.41714">
        <ele>3.1</ele>
        <time>2020-06-17T08:45:35Z</time>
      </trkpt>
      <trkpt lat="49.33581" lon="-0.41712">
        <ele>3.1</ele>
        <time>2020-06-17T08:45:36Z</time>
      </trkpt>
      <trkpt lat="49.33581" lon="-0.4171">
        <ele>3.1</ele>
        <time>2020-06-17T08:45:37Z</time>
      </trkpt>
      <trkpt lat="49.33581" lon="-0.41708">
        <ele>3.1</ele>
        <time>2020-06-17T08:45:38Z</time>
      </trkpt>
      <trkpt lat="49.3358" lon="-0.41705">
        <ele>3.1</ele>
        <time>2020-06-17T08:45:39Z</time>
      </trkpt>
      <trkpt lat="49.3358" lon="-0.41703">
        <ele>3.1</ele>
        <time>2020-06-17T08:45:40Z</time>
      </trkpt>
      <trkpt lat="49.33579" lon="-0.41701">
        <ele>3.1</ele>
        <time>2020-06-17T08:45:41Z</time>
      </trkpt>
      <trkpt lat="49.3358" lon="-0.41699">
        <ele>3.1</ele>
        <time>2020-06-17T08:45:42Z</time>
      </trkpt>
      <trkpt lat="49.33579" lon="-0.41697">
        <ele>3.1</ele>
        <time>2020-06-17T08:45:43Z</time>
      </trkpt>
      <trkpt lat="49.33579" lon="-0.41695">
        <ele>3.1</ele>
        <time>2020-06-17T08:45:44Z</time>
      </trkpt>
      <trkpt lat="49.3358" lon="-0.41692">
        <ele>3.1</ele>
        <time>2020-06-17T08:45:45Z</time>
      </trkpt>
      <trkpt lat="49.33579" lon="-0.41688">
        <ele>3.1</ele>
        <time>2020-06-17T08:45:46Z</time>
      </trkpt>
      <trkpt lat="49.33579" lon="-0.41686">
        <ele>3.1</ele>
        <time>2020-06-17T08:45:47Z</time>
      </trkpt>
      <trkpt lat="49.33578" lon="-0.41681">
        <ele>3</ele>
        <time>2020-06-17T08:45:48Z</time>
      </trkpt>
      <trkpt lat="49.33577" lon="-0.41676">
        <ele>3</ele>
        <time>2020-06-17T08:45:49Z</time>
      </trkpt>
      <trkpt lat="49.33576" lon="-0.41671">
        <ele>3</ele>
        <time>2020-06-17T08:45:50Z</time>
      </trkpt>
      <trkpt lat="49.33575" lon="-0.41666">
        <ele>3</ele>
        <time>2020-06-17T08:45:51Z</time>
      </trkpt>
      <trkpt lat="49.33575" lon="-0.4166">
        <ele>3</ele>
        <time>2020-06-17T08:45:52Z</time>
      </trkpt>
      <trkpt lat="49.33574" lon="-0.41654">
        <ele>3</ele>
        <time>2020-06-17T08:45:53Z</time>
      </trkpt>
      <trkpt lat="49.33573" lon="-0.41648">
        <ele>3</ele>
        <time>2020-06-17T08:45:54Z</time>
      </trkpt>
      <trkpt lat="49.33573" lon="-0.41642">
        <ele>3</ele>
        <time>2020-06-17T08:45:55Z</time>
      </trkpt>
      <trkpt lat="49.33572" lon="-0.41637">
        <ele>3</ele>
        <time>2020-06-17T08:45:56Z</time>
      </trkpt>
      <trkpt lat="49.3357" lon="-0.41631">
        <ele>3</ele>
        <time>2020-06-17T08:45:57Z</time>
      </trkpt>
      <trkpt lat="49.33569" lon="-0.41626">
        <ele>3</ele>
        <time>2020-06-17T08:45:58Z</time>
      </trkpt>
      <trkpt lat="49.33569" lon="-0.41621">
        <ele>3</ele>
        <time>2020-06-17T08:45:59Z</time>
      </trkpt>
      <trkpt lat="49.33569" lon="-0.41616">
        <ele>3</ele>
        <time>2020-06-17T08:46:00Z</time>
      </trkpt>
      <trkpt lat="49.3357" lon="-0.41611">
        <ele>3</ele>
        <time>2020-06-17T08:46:01Z</time>
      </trkpt>
      <trkpt lat="49.33569" lon="-0.41606">
        <ele>3</ele>
        <time>2020-06-17T08:46:02Z</time>
      </trkpt>
      <trkpt lat="49.33569" lon="-0.41601">
        <ele>3</ele>
        <time>2020-06-17T08:46:03Z</time>
      </trkpt>
      <trkpt lat="49.33569" lon="-0.41595">
        <ele>3</ele>
        <time>2020-06-17T08:46:04Z</time>
      </trkpt>
      <trkpt lat="49.33569" lon="-0.4159">
        <ele>3</ele>
        <time>2020-06-17T08:46:05Z</time>
      </trkpt>
      <trkpt lat="49.3357" lon="-0.41585">
        <ele>3</ele>
        <time>2020-06-17T08:46:06Z</time>
      </trkpt>
      <trkpt lat="49.3357" lon="-0.4158">
        <ele>3</ele>
        <time>2020-06-17T08:46:07Z</time>
      </trkpt>
      <trkpt lat="49.3357" lon="-0.41574">
        <ele>3</ele>
        <time>2020-06-17T08:46:08Z</time>
      </trkpt>
      <trkpt lat="49.3357" lon="-0.41567">
        <ele>3</ele>
        <time>2020-06-17T08:46:09Z</time>
      </trkpt>
      <trkpt lat="49.33569" lon="-0.41559">
        <ele>3</ele>
        <time>2020-06-17T08:46:10Z</time>
      </trkpt>
      <trkpt lat="49.33569" lon="-0.41552">
        <ele>3</ele>
        <time>2020-06-17T08:46:11Z</time>
      </trkpt>
      <trkpt lat="49.33569" lon="-0.41546">
        <ele>3</ele>
        <time>2020-06-17T08:46:12Z</time>
      </trkpt>
      <trkpt lat="49.33568" lon="-0.4154">
        <ele>3</ele>
        <time>2020-06-17T08:46:13Z</time>
      </trkpt>
      <trkpt lat="49.33567" lon="-0.41534">
        <ele>3</ele>
        <time>2020-06-17T08:46:14Z</time>
      </trkpt>
      <trkpt lat="49.33568" lon="-0.41528">
        <ele>3.1</ele>
        <time>2020-06-17T08:46:15Z</time>
      </trkpt>
      <trkpt lat="49.33568" lon="-0.41522">
        <ele>3.1</ele>
        <time>2020-06-17T08:46:16Z</time>
      </trkpt>
      <trkpt lat="49.33569" lon="-0.41516">
        <ele>3.1</ele>
        <time>2020-06-17T08:46:17Z</time>
      </trkpt>
      <trkpt lat="49.33568" lon="-0.41509">
        <ele>3.1</ele>
        <time>2020-06-17T08:46:18Z</time>
      </trkpt>
      <trkpt lat="49.33567" lon="-0.41503">
        <ele>3.1</ele>
        <time>2020-06-17T08:46:19Z</time>
      </trkpt>
      <trkpt lat="49.33567" lon="-0.41497">
        <ele>3</ele>
        <time>2020-06-17T08:46:20Z</time>
      </trkpt>
      <trkpt lat="49.33566" lon="-0.41491">
        <ele>3</ele>
        <time>2020-06-17T08:46:21Z</time>
      </trkpt>
      <trkpt lat="49.33564" lon="-0.41485">
        <ele>3</ele>
        <time>2020-06-17T08:46:22Z</time>
      </trkpt>
      <trkpt lat="49.33564" lon="-0.4148">
        <ele>3</ele>
        <time>2020-06-17T08:46:23Z</time>
      </trkpt>
      <trkpt lat="49.33563" lon="-0.41474">
        <ele>3</ele>
        <time>2020-06-17T08:46:24Z</time>
      </trkpt>
      <trkpt lat="49.33562" lon="-0.41469">
        <ele>3</ele>
        <time>2020-06-17T08:46:25Z</time>
      </trkpt>
      <trkpt lat="49.3356" lon="-0.41463">
        <ele>3</ele>
        <time>2020-06-17T08:46:26Z</time>
      </trkpt>
      <trkpt lat="49.33559" lon="-0.41459">
        <ele>3</ele>
        <time>2020-06-17T08:46:27Z</time>
      </trkpt>
      <trkpt lat="49.33559" lon="-0.41453">
        <ele>3</ele>
        <time>2020-06-17T08:46:28Z</time>
      </trkpt>
      <trkpt lat="49.33559" lon="-0.41451">
        <ele>3</ele>
        <time>2020-06-17T08:46:29Z</time>
      </trkpt>
      <trkpt lat="49.3356" lon="-0.41447">
        <ele>3</ele>
        <time>2020-06-17T08:46:30Z</time>
      </trkpt>
      <trkpt lat="49.3356" lon="-0.41441">
        <ele>3</ele>
        <time>2020-06-17T08:46:31Z</time>
      </trkpt>
      <trkpt lat="49.3356" lon="-0.41435">
        <ele>3</ele>
        <time>2020-06-17T08:46:32Z</time>
      </trkpt>
      <trkpt lat="49.3356" lon="-0.41428">
        <ele>3.1</ele>
        <time>2020-06-17T08:46:33Z</time>
      </trkpt>
      <trkpt lat="49.33561" lon="-0.41422">
        <ele>3.1</ele>
        <time>2020-06-17T08:46:34Z</time>
      </trkpt>
      <trkpt lat="49.33561" lon="-0.41415">
        <ele>3.1</ele>
        <time>2020-06-17T08:46:35Z</time>
      </trkpt>
      <trkpt lat="49.33561" lon="-0.41408">
        <ele>3.1</ele>
        <time>2020-06-17T08:46:36Z</time>
      </trkpt>
      <trkpt lat="49.33561" lon="-0.41401">
        <ele>3.1</ele>
        <time>2020-06-17T08:46:37Z</time>
      </trkpt>
      <trkpt lat="49.33561" lon="-0.41394">
        <ele>3.1</ele>
        <time>2020-06-17T08:46:38Z</time>
      </trkpt>
      <trkpt lat="49.3356" lon="-0.41388">
        <ele>3.1</ele>
        <time>2020-06-17T08:46:39Z</time>
      </trkpt>
      <trkpt lat="49.3356" lon="-0.41382">
        <ele>3.1</ele>
        <time>2020-06-17T08:46:40Z</time>
      </trkpt>
      <trkpt lat="49.3356" lon="-0.41376">
        <ele>3.1</ele>
        <time>2020-06-17T08:46:41Z</time>
      </trkpt>
      <trkpt lat="49.3356" lon="-0.4137">
        <ele>3.1</ele>
        <time>2020-06-17T08:46:42Z</time>
      </trkpt>
      <trkpt lat="49.3356" lon="-0.41365">
        <ele>3.1</ele>
        <time>2020-06-17T08:46:43Z</time>
      </trkpt>
      <trkpt lat="49.3356" lon="-0.41359">
        <ele>3.1</ele>
        <time>2020-06-17T08:46:44Z</time>
      </trkpt>
      <trkpt lat="49.3356" lon="-0.41353">
        <ele>3.1</ele>
        <time>2020-06-17T08:46:45Z</time>
      </trkpt>
      <trkpt lat="49.33559" lon="-0.41346">
        <ele>3.1</ele>
        <time>2020-06-17T08:46:46Z</time>
      </trkpt>
      <trkpt lat="49.33559" lon="-0.41338">
        <ele>3.1</ele>
        <time>2020-06-17T08:46:47Z</time>
      </trkpt>
      <trkpt lat="49.33559" lon="-0.41328">
        <ele>3.1</ele>
        <time>2020-06-17T08:46:48Z</time>
      </trkpt>
      <trkpt lat="49.33558" lon="-0.41321">
        <ele>3.1</ele>
        <time>2020-06-17T08:46:49Z</time>
      </trkpt>
      <trkpt lat="49.33558" lon="-0.41315">
        <ele>3.1</ele>
        <time>2020-06-17T08:46:50Z</time>
      </trkpt>
      <trkpt lat="49.33557" lon="-0.41308">
        <ele>3.1</ele>
        <time>2020-06-17T08:46:51Z</time>
      </trkpt>
      <trkpt lat="49.33557" lon="-0.41301">
        <ele>3.1</ele>
        <time>2020-06-17T08:46:52Z</time>
      </trkpt>
      <trkpt lat="49.33557" lon="-0.41293">
        <ele>3.1</ele>
        <time>2020-06-17T08:46:53Z</time>
      </trkpt>
      <trkpt lat="49.33555" lon="-0.41285">
        <ele>3.1</ele>
        <time>2020-06-17T08:46:54Z</time>
      </trkpt>
      <trkpt lat="49.33554" lon="-0.41278">
        <ele>3.1</ele>
        <time>2020-06-17T08:46:55Z</time>
      </trkpt>
      <trkpt lat="49.33554" lon="-0.4127">
        <ele>3.1</ele>
        <time>2020-06-17T08:46:56Z</time>
      </trkpt>
      <trkpt lat="49.33552" lon="-0.41263">
        <ele>3.1</ele>
        <time>2020-06-17T08:46:57Z</time>
      </trkpt>
      <trkpt lat="49.3355" lon="-0.41255">
        <ele>3.1</ele>
        <time>2020-06-17T08:46:58Z</time>
      </trkpt>
      <trkpt lat="49.33549" lon="-0.41248">
        <ele>3.1</ele>
        <time>2020-06-17T08:46:59Z</time>
      </trkpt>
      <trkpt lat="49.33548" lon="-0.4124">
        <ele>3.1</ele>
        <time>2020-06-17T08:47:00Z</time>
      </trkpt>
      <trkpt lat="49.33547" lon="-0.41233">
        <ele>3.1</ele>
        <time>2020-06-17T08:47:01Z</time>
      </trkpt>
      <trkpt lat="49.33547" lon="-0.41225">
        <ele>3.1</ele>
        <time>2020-06-17T08:47:02Z</time>
      </trkpt>
      <trkpt lat="49.33547" lon="-0.41217">
        <ele>3.1</ele>
        <time>2020-06-17T08:47:03Z</time>
      </trkpt>
      <trkpt lat="49.33547" lon="-0.4121">
        <ele>3.1</ele>
        <time>2020-06-17T08:47:04Z</time>
      </trkpt>
      <trkpt lat="49.33546" lon="-0.41203">
        <ele>3.1</ele>
        <time>2020-06-17T08:47:05Z</time>
      </trkpt>
      <trkpt lat="49.33546" lon="-0.41197">
        <ele>3.1</ele>
        <time>2020-06-17T08:47:06Z</time>
      </trkpt>
      <trkpt lat="49.33545" lon="-0.4119">
        <ele>3.1</ele>
        <time>2020-06-17T08:47:07Z</time>
      </trkpt>
      <trkpt lat="49.33544" lon="-0.41183">
        <ele>3.1</ele>
        <time>2020-06-17T08:47:08Z</time>
      </trkpt>
      <trkpt lat="49.33543" lon="-0.41177">
        <ele>3.1</ele>
        <time>2020-06-17T08:47:09Z</time>
      </trkpt>
      <trkpt lat="49.33543" lon="-0.41171">
        <ele>3.1</ele>
        <time>2020-06-17T08:47:10Z</time>
      </trkpt>
      <trkpt lat="49.33543" lon="-0.41165">
        <ele>3.1</ele>
        <time>2020-06-17T08:47:11Z</time>
      </trkpt>
      <trkpt lat="49.33544" lon="-0.41158">
        <ele>3.1</ele>
        <time>2020-06-17T08:47:12Z</time>
      </trkpt>
      <trkpt lat="49.33544" lon="-0.41151">
        <ele>3.1</ele>
        <time>2020-06-17T08:47:13Z</time>
      </trkpt>
      <trkpt lat="49.33544" lon="-0.41145">
        <ele>3.1</ele>
        <time>2020-06-17T08:47:14Z</time>
      </trkpt>
      <trkpt lat="49.33544" lon="-0.41137">
        <ele>3.1</ele>
        <time>2020-06-17T08:47:15Z</time>
      </trkpt>
      <trkpt lat="49.33543" lon="-0.4113">
        <ele>3.2</ele>
        <time>2020-06-17T08:47:16Z</time>
      </trkpt>
      <trkpt lat="49.33542" lon="-0.41123">
        <ele>3.2</ele>
        <time>2020-06-17T08:47:17Z</time>
      </trkpt>
      <trkpt lat="49.33541" lon="-0.41117">
        <ele>3.2</ele>
        <time>2020-06-17T08:47:18Z</time>
      </trkpt>
      <trkpt lat="49.3354" lon="-0.41111">
        <ele>3.2</ele>
        <time>2020-06-17T08:47:19Z</time>
      </trkpt>
      <trkpt lat="49.33538" lon="-0.41105">
        <ele>3.3</ele>
        <time>2020-06-17T08:47:20Z</time>
      </trkpt>
      <trkpt lat="49.33537" lon="-0.41098">
        <ele>3.3</ele>
        <time>2020-06-17T08:47:21Z</time>
      </trkpt>
      <trkpt lat="49.33536" lon="-0.41092">
        <ele>3.3</ele>
        <time>2020-06-17T08:47:22Z</time>
      </trkpt>
      <trkpt lat="49.33535" lon="-0.41086">
        <ele>3.3</ele>
        <time>2020-06-17T08:47:23Z</time>
      </trkpt>
      <trkpt lat="49.33534" lon="-0.41081">
        <ele>3.3</ele>
        <time>2020-06-17T08:47:24Z</time>
      </trkpt>
      <trkpt lat="49.33533" lon="-0.41076">
        <ele>3.3</ele>
        <time>2020-06-17T08:47:25Z</time>
      </trkpt>
      <trkpt lat="49.33532" lon="-0.41071">
        <ele>3.3</ele>
        <time>2020-06-17T08:47:26Z</time>
      </trkpt>
      <trkpt lat="49.33531" lon="-0.41067">
        <ele>3.3</ele>
        <time>2020-06-17T08:47:27Z</time>
      </trkpt>
      <trkpt lat="49.3353" lon="-0.41062">
        <ele>3.2</ele>
        <time>2020-06-17T08:47:28Z</time>
      </trkpt>
      <trkpt lat="49.33529" lon="-0.4106">
        <ele>3.2</ele>
        <time>2020-06-17T08:47:29Z</time>
      </trkpt>
      <trkpt lat="49.33528" lon="-0.41057">
        <ele>3.2</ele>
        <time>2020-06-17T08:47:30Z</time>
      </trkpt>
      <trkpt lat="49.33527" lon="-0.41056">
        <ele>3.2</ele>
        <time>2020-06-17T08:47:31Z</time>
      </trkpt>
      <trkpt lat="49.33525" lon="-0.41054">
        <ele>3.2</ele>
        <time>2020-06-17T08:47:32Z</time>
      </trkpt>
      <trkpt lat="49.33524" lon="-0.41053">
        <ele>3.2</ele>
        <time>2020-06-17T08:47:33Z</time>
      </trkpt>
      <trkpt lat="49.33524" lon="-0.41052">
        <ele>3.2</ele>
        <time>2020-06-17T08:47:34Z</time>
      </trkpt>
      <trkpt lat="49.33523" lon="-0.41049">
        <ele>3.2</ele>
        <time>2020-06-17T08:47:35Z</time>
      </trkpt>
      <trkpt lat="49.33522" lon="-0.41044">
        <ele>3.2</ele>
        <time>2020-06-17T08:47:36Z</time>
      </trkpt>
      <trkpt lat="49.33523" lon="-0.41038">
        <ele>3.3</ele>
        <time>2020-06-17T08:47:37Z</time>
      </trkpt>
      <trkpt lat="49.33523" lon="-0.41036">
        <ele>3.3</ele>
        <time>2020-06-17T08:47:38Z</time>
      </trkpt>
      <trkpt lat="49.33524" lon="-0.41031">
        <ele>3.3</ele>
        <time>2020-06-17T08:47:39Z</time>
      </trkpt>
      <trkpt lat="49.33524" lon="-0.4103">
        <ele>3.3</ele>
        <time>2020-06-17T08:47:40Z</time>
      </trkpt>
      <trkpt lat="49.33526" lon="-0.41025">
        <ele>3.3</ele>
        <time>2020-06-17T08:47:41Z</time>
      </trkpt>
      <trkpt lat="49.33527" lon="-0.41023">
        <ele>3.3</ele>
        <time>2020-06-17T08:47:42Z</time>
      </trkpt>
      <trkpt lat="49.33527" lon="-0.41019">
        <ele>3.3</ele>
        <time>2020-06-17T08:47:43Z</time>
      </trkpt>
      <trkpt lat="49.33527" lon="-0.41014">
        <ele>3.3</ele>
        <time>2020-06-17T08:47:44Z</time>
      </trkpt>
      <trkpt lat="49.33527" lon="-0.41009">
        <ele>3.3</ele>
        <time>2020-06-17T08:47:45Z</time>
      </trkpt>
      <trkpt lat="49.33526" lon="-0.41004">
        <ele>3.3</ele>
        <time>2020-06-17T08:47:46Z</time>
      </trkpt>
      <trkpt lat="49.33525" lon="-0.40999">
        <ele>3.3</ele>
        <time>2020-06-17T08:47:47Z</time>
      </trkpt>
      <trkpt lat="49.33523" lon="-0.40994">
        <ele>3.3</ele>
        <time>2020-06-17T08:47:48Z</time>
      </trkpt>
      <trkpt lat="49.33522" lon="-0.40988">
        <ele>3.3</ele>
        <time>2020-06-17T08:47:49Z</time>
      </trkpt>
      <trkpt lat="49.33521" lon="-0.40982">
        <ele>3.3</ele>
        <time>2020-06-17T08:47:50Z</time>
      </trkpt>
      <trkpt lat="49.33521" lon="-0.40976">
        <ele>3.3</ele>
        <time>2020-06-17T08:47:51Z</time>
      </trkpt>
      <trkpt lat="49.33521" lon="-0.4097">
        <ele>3.3</ele>
        <time>2020-06-17T08:47:52Z</time>
      </trkpt>
      <trkpt lat="49.33521" lon="-0.40963">
        <ele>3.3</ele>
        <time>2020-06-17T08:47:53Z</time>
      </trkpt>
      <trkpt lat="49.33521" lon="-0.40957">
        <ele>3.3</ele>
        <time>2020-06-17T08:47:54Z</time>
      </trkpt>
      <trkpt lat="49.3352" lon="-0.40951">
        <ele>3.2</ele>
        <time>2020-06-17T08:47:55Z</time>
      </trkpt>
      <trkpt lat="49.3352" lon="-0.40946">
        <ele>3.2</ele>
        <time>2020-06-17T08:47:56Z</time>
      </trkpt>
      <trkpt lat="49.3352" lon="-0.40939">
        <ele>3.2</ele>
        <time>2020-06-17T08:47:57Z</time>
      </trkpt>
      <trkpt lat="49.33518" lon="-0.40934">
        <ele>3.2</ele>
        <time>2020-06-17T08:47:58Z</time>
      </trkpt>
      <trkpt lat="49.33516" lon="-0.40929">
        <ele>3.2</ele>
        <time>2020-06-17T08:47:59Z</time>
      </trkpt>
      <trkpt lat="49.33515" lon="-0.40923">
        <ele>3.2</ele>
        <time>2020-06-17T08:48:00Z</time>
      </trkpt>
      <trkpt lat="49.33513" lon="-0.40917">
        <ele>3.2</ele>
        <time>2020-06-17T08:48:01Z</time>
      </trkpt>
      <trkpt lat="49.33512" lon="-0.40911">
        <ele>3.2</ele>
        <time>2020-06-17T08:48:02Z</time>
      </trkpt>
      <trkpt lat="49.3351" lon="-0.40905">
        <ele>3.2</ele>
        <time>2020-06-17T08:48:03Z</time>
      </trkpt>
      <trkpt lat="49.33508" lon="-0.40898">
        <ele>3.2</ele>
        <time>2020-06-17T08:48:04Z</time>
      </trkpt>
      <trkpt lat="49.33506" lon="-0.40893">
        <ele>3.2</ele>
        <time>2020-06-17T08:48:05Z</time>
      </trkpt>
      <trkpt lat="49.33504" lon="-0.40887">
        <ele>3.2</ele>
        <time>2020-06-17T08:48:06Z</time>
      </trkpt>
      <trkpt lat="49.33503" lon="-0.40881">
        <ele>3.2</ele>
        <time>2020-06-17T08:48:07Z</time>
      </trkpt>
      <trkpt lat="49.33502" lon="-0.40875">
        <ele>3.2</ele>
        <time>2020-06-17T08:48:08Z</time>
      </trkpt>
      <trkpt lat="49.33501" lon="-0.40869">
        <ele>3.2</ele>
        <time>2020-06-17T08:48:09Z</time>
      </trkpt>
      <trkpt lat="49.335" lon="-0.40863">
        <ele>3.2</ele>
        <time>2020-06-17T08:48:10Z</time>
      </trkpt>
      <trkpt lat="49.33499" lon="-0.40856">
        <ele>3.2</ele>
        <time>2020-06-17T08:48:11Z</time>
      </trkpt>
      <trkpt lat="49.33497" lon="-0.40849">
        <ele>3.2</ele>
        <time>2020-06-17T08:48:12Z</time>
      </trkpt>
      <trkpt lat="49.33496" lon="-0.40843">
        <ele>3.2</ele>
        <time>2020-06-17T08:48:13Z</time>
      </trkpt>
      <trkpt lat="49.33495" lon="-0.40838">
        <ele>3.2</ele>
        <time>2020-06-17T08:48:14Z</time>
      </trkpt>
      <trkpt lat="49.33494" lon="-0.40833">
        <ele>3.2</ele>
        <time>2020-06-17T08:48:15Z</time>
      </trkpt>
      <trkpt lat="49.33492" lon="-0.40826">
        <ele>3.2</ele>
        <time>2020-06-17T08:48:16Z</time>
      </trkpt>
      <trkpt lat="49.33491" lon="-0.40819">
        <ele>3.2</ele>
        <time>2020-06-17T08:48:17Z</time>
      </trkpt>
      <trkpt lat="49.3349" lon="-0.40814">
        <ele>3.2</ele>
        <time>2020-06-17T08:48:18Z</time>
      </trkpt>
      <trkpt lat="49.33489" lon="-0.40809">
        <ele>3.2</ele>
        <time>2020-06-17T08:48:19Z</time>
      </trkpt>
      <trkpt lat="49.33488" lon="-0.40803">
        <ele>3.2</ele>
        <time>2020-06-17T08:48:20Z</time>
      </trkpt>
      <trkpt lat="49.33487" lon="-0.40797">
        <ele>3.2</ele>
        <time>2020-06-17T08:48:21Z</time>
      </trkpt>
      <trkpt lat="49.33486" lon="-0.40792">
        <ele>3.2</ele>
        <time>2020-06-17T08:48:22Z</time>
      </trkpt>
      <trkpt lat="49.33484" lon="-0.40787">
        <ele>3.2</ele>
        <time>2020-06-17T08:48:23Z</time>
      </trkpt>
      <trkpt lat="49.33483" lon="-0.4078">
        <ele>3.2</ele>
        <time>2020-06-17T08:48:24Z</time>
      </trkpt>
      <trkpt lat="49.3348" lon="-0.40773">
        <ele>3.2</ele>
        <time>2020-06-17T08:48:25Z</time>
      </trkpt>
      <trkpt lat="49.33479" lon="-0.40766">
        <ele>3.2</ele>
        <time>2020-06-17T08:48:26Z</time>
      </trkpt>
      <trkpt lat="49.33478" lon="-0.4076">
        <ele>3.2</ele>
        <time>2020-06-17T08:48:27Z</time>
      </trkpt>
      <trkpt lat="49.33477" lon="-0.40755">
        <ele>3.2</ele>
        <time>2020-06-17T08:48:28Z</time>
      </trkpt>
      <trkpt lat="49.33476" lon="-0.40751">
        <ele>3.2</ele>
        <time>2020-06-17T08:48:29Z</time>
      </trkpt>
      <trkpt lat="49.33474" lon="-0.40745">
        <ele>3.2</ele>
        <time>2020-06-17T08:48:30Z</time>
      </trkpt>
      <trkpt lat="49.33473" lon="-0.40739">
        <ele>3.2</ele>
        <time>2020-06-17T08:48:31Z</time>
      </trkpt>
      <trkpt lat="49.3347" lon="-0.40734">
        <ele>3.2</ele>
        <time>2020-06-17T08:48:32Z</time>
      </trkpt>
      <trkpt lat="49.33469" lon="-0.40728">
        <ele>3.2</ele>
        <time>2020-06-17T08:48:33Z</time>
      </trkpt>
      <trkpt lat="49.33469" lon="-0.40722">
        <ele>3.2</ele>
        <time>2020-06-17T08:48:34Z</time>
      </trkpt>
      <trkpt lat="49.33468" lon="-0.40717">
        <ele>3.2</ele>
        <time>2020-06-17T08:48:35Z</time>
      </trkpt>
      <trkpt lat="49.33468" lon="-0.40711">
        <ele>3.2</ele>
        <time>2020-06-17T08:48:36Z</time>
      </trkpt>
      <trkpt lat="49.33467" lon="-0.40706">
        <ele>3.2</ele>
        <time>2020-06-17T08:48:37Z</time>
      </trkpt>
      <trkpt lat="49.33467" lon="-0.40701">
        <ele>3.2</ele>
        <time>2020-06-17T08:48:38Z</time>
      </trkpt>
      <trkpt lat="49.33466" lon="-0.40696">
        <ele>3.2</ele>
        <time>2020-06-17T08:48:39Z</time>
      </trkpt>
      <trkpt lat="49.33465" lon="-0.40691">
        <ele>3.2</ele>
        <time>2020-06-17T08:48:40Z</time>
      </trkpt>
      <trkpt lat="49.33463" lon="-0.40684">
        <ele>3.2</ele>
        <time>2020-06-17T08:48:41Z</time>
      </trkpt>
      <trkpt lat="49.33462" lon="-0.40679">
        <ele>3.2</ele>
        <time>2020-06-17T08:48:42Z</time>
      </trkpt>
      <trkpt lat="49.33461" lon="-0.40673">
        <ele>3.3</ele>
        <time>2020-06-17T08:48:43Z</time>
      </trkpt>
      <trkpt lat="49.33461" lon="-0.40668">
        <ele>3.3</ele>
        <time>2020-06-17T08:48:44Z</time>
      </trkpt>
      <trkpt lat="49.3346" lon="-0.40662">
        <ele>3.3</ele>
        <time>2020-06-17T08:48:45Z</time>
      </trkpt>
      <trkpt lat="49.3346" lon="-0.40657">
        <ele>3.3</ele>
        <time>2020-06-17T08:48:46Z</time>
      </trkpt>
      <trkpt lat="49.3346" lon="-0.40652">
        <ele>3.3</ele>
        <time>2020-06-17T08:48:47Z</time>
      </trkpt>
      <trkpt lat="49.3346" lon="-0.40647">
        <ele>3.3</ele>
        <time>2020-06-17T08:48:48Z</time>
      </trkpt>
      <trkpt lat="49.3346" lon="-0.40641">
        <ele>3.3</ele>
        <time>2020-06-17T08:48:49Z</time>
      </trkpt>
      <trkpt lat="49.3346" lon="-0.40636">
        <ele>3.3</ele>
        <time>2020-06-17T08:48:50Z</time>
      </trkpt>
      <trkpt lat="49.33459" lon="-0.4063">
        <ele>3.3</ele>
        <time>2020-06-17T08:48:51Z</time>
      </trkpt>
      <trkpt lat="49.33458" lon="-0.40624">
        <ele>3.3</ele>
        <time>2020-06-17T08:48:52Z</time>
      </trkpt>
      <trkpt lat="49.33458" lon="-0.40618">
        <ele>3.3</ele>
        <time>2020-06-17T08:48:53Z</time>
      </trkpt>
      <trkpt lat="49.33457" lon="-0.40612">
        <ele>3.3</ele>
        <time>2020-06-17T08:48:54Z</time>
      </trkpt>
      <trkpt lat="49.33456" lon="-0.40607">
        <ele>3.3</ele>
        <time>2020-06-17T08:48:55Z</time>
      </trkpt>
      <trkpt lat="49.33456" lon="-0.40602">
        <ele>3.4</ele>
        <time>2020-06-17T08:48:56Z</time>
      </trkpt>
      <trkpt lat="49.33455" lon="-0.40597">
        <ele>3.4</ele>
        <time>2020-06-17T08:48:57Z</time>
      </trkpt>
      <trkpt lat="49.33455" lon="-0.40592">
        <ele>3.4</ele>
        <time>2020-06-17T08:48:58Z</time>
      </trkpt>
      <trkpt lat="49.33454" lon="-0.40587">
        <ele>3.4</ele>
        <time>2020-06-17T08:48:59Z</time>
      </trkpt>
      <trkpt lat="49.33453" lon="-0.4058">
        <ele>3.4</ele>
        <time>2020-06-17T08:49:00Z</time>
      </trkpt>
      <trkpt lat="49.33452" lon="-0.40574">
        <ele>3.4</ele>
        <time>2020-06-17T08:49:01Z</time>
      </trkpt>
      <trkpt lat="49.33451" lon="-0.40569">
        <ele>3.4</ele>
        <time>2020-06-17T08:49:02Z</time>
      </trkpt>
      <trkpt lat="49.33451" lon="-0.40564">
        <ele>3.4</ele>
        <time>2020-06-17T08:49:03Z</time>
      </trkpt>
      <trkpt lat="49.3345" lon="-0.40558">
        <ele>3.4</ele>
        <time>2020-06-17T08:49:04Z</time>
      </trkpt>
      <trkpt lat="49.33449" lon="-0.40553">
        <ele>3.4</ele>
        <time>2020-06-17T08:49:05Z</time>
      </trkpt>
      <trkpt lat="49.33448" lon="-0.40547">
        <ele>3.4</ele>
        <time>2020-06-17T08:49:06Z</time>
      </trkpt>
      <trkpt lat="49.33447" lon="-0.4054">
        <ele>3.4</ele>
        <time>2020-06-17T08:49:07Z</time>
      </trkpt>
      <trkpt lat="49.33446" lon="-0.40533">
        <ele>3.5</ele>
        <time>2020-06-17T08:49:08Z</time>
      </trkpt>
      <trkpt lat="49.33445" lon="-0.40526">
        <ele>3.5</ele>
        <time>2020-06-17T08:49:09Z</time>
      </trkpt>
      <trkpt lat="49.33443" lon="-0.40521">
        <ele>3.5</ele>
        <time>2020-06-17T08:49:10Z</time>
      </trkpt>
      <trkpt lat="49.33442" lon="-0.40515">
        <ele>3.5</ele>
        <time>2020-06-17T08:49:11Z</time>
      </trkpt>
      <trkpt lat="49.3344" lon="-0.40508">
        <ele>3.5</ele>
        <time>2020-06-17T08:49:12Z</time>
      </trkpt>
      <trkpt lat="49.33439" lon="-0.405">
        <ele>3.5</ele>
        <time>2020-06-17T08:49:13Z</time>
      </trkpt>
      <trkpt lat="49.33438" lon="-0.40494">
        <ele>3.5</ele>
        <time>2020-06-17T08:49:14Z</time>
      </trkpt>
      <trkpt lat="49.33437" lon="-0.40487">
        <ele>3.5</ele>
        <time>2020-06-17T08:49:15Z</time>
      </trkpt>
      <trkpt lat="49.33436" lon="-0.4048">
        <ele>3.5</ele>
        <time>2020-06-17T08:49:16Z</time>
      </trkpt>
      <trkpt lat="49.33435" lon="-0.40474">
        <ele>3.4</ele>
        <time>2020-06-17T08:49:17Z</time>
      </trkpt>
      <trkpt lat="49.33434" lon="-0.40468">
        <ele>3.4</ele>
        <time>2020-06-17T08:49:18Z</time>
      </trkpt>
      <trkpt lat="49.33433" lon="-0.40463">
        <ele>3.4</ele>
        <time>2020-06-17T08:49:19Z</time>
      </trkpt>
      <trkpt lat="49.33431" lon="-0.40458">
        <ele>3.4</ele>
        <time>2020-06-17T08:49:20Z</time>
      </trkpt>
      <trkpt lat="49.3343" lon="-0.40451">
        <ele>3.4</ele>
        <time>2020-06-17T08:49:21Z</time>
      </trkpt>
      <trkpt lat="49.33428" lon="-0.40445">
        <ele>3.4</ele>
        <time>2020-06-17T08:49:22Z</time>
      </trkpt>
      <trkpt lat="49.33427" lon="-0.40439">
        <ele>3.4</ele>
        <time>2020-06-17T08:49:23Z</time>
      </trkpt>
      <trkpt lat="49.33426" lon="-0.40434">
        <ele>3.4</ele>
        <time>2020-06-17T08:49:24Z</time>
      </trkpt>
      <trkpt lat="49.33424" lon="-0.40428">
        <ele>3.4</ele>
        <time>2020-06-17T08:49:25Z</time>
      </trkpt>
      <trkpt lat="49.33423" lon="-0.40421">
        <ele>3.5</ele>
        <time>2020-06-17T08:49:26Z</time>
      </trkpt>
      <trkpt lat="49.33421" lon="-0.40415">
        <ele>3.5</ele>
        <time>2020-06-17T08:49:27Z</time>
      </trkpt>
      <trkpt lat="49.3342" lon="-0.40408">
        <ele>3.5</ele>
        <time>2020-06-17T08:49:28Z</time>
      </trkpt>
      <trkpt lat="49.33419" lon="-0.404">
        <ele>3.5</ele>
        <time>2020-06-17T08:49:29Z</time>
      </trkpt>
      <trkpt lat="49.33418" lon="-0.40394">
        <ele>3.5</ele>
        <time>2020-06-17T08:49:30Z</time>
      </trkpt>
      <trkpt lat="49.33418" lon="-0.40389">
        <ele>3.5</ele>
        <time>2020-06-17T08:49:31Z</time>
      </trkpt>
      <trkpt lat="49.33418" lon="-0.40384">
        <ele>3.5</ele>
        <time>2020-06-17T08:49:32Z</time>
      </trkpt>
      <trkpt lat="49.33418" lon="-0.40379">
        <ele>3.6</ele>
        <time>2020-06-17T08:49:33Z</time>
      </trkpt>
      <trkpt lat="49.33417" lon="-0.40372">
        <ele>3.6</ele>
        <time>2020-06-17T08:49:34Z</time>
      </trkpt>
      <trkpt lat="49.33416" lon="-0.40365">
        <ele>3.6</ele>
        <time>2020-06-17T08:49:35Z</time>
      </trkpt>
      <trkpt lat="49.33416" lon="-0.40358">
        <ele>3.7</ele>
        <time>2020-06-17T08:49:36Z</time>
      </trkpt>
      <trkpt lat="49.33414" lon="-0.40351">
        <ele>3.7</ele>
        <time>2020-06-17T08:49:37Z</time>
      </trkpt>
      <trkpt lat="49.33413" lon="-0.40345">
        <ele>3.7</ele>
        <time>2020-06-17T08:49:38Z</time>
      </trkpt>
      <trkpt lat="49.33412" lon="-0.40338">
        <ele>3.8</ele>
        <time>2020-06-17T08:49:39Z</time>
      </trkpt>
      <trkpt lat="49.33411" lon="-0.4033">
        <ele>3.8</ele>
        <time>2020-06-17T08:49:40Z</time>
      </trkpt>
      <trkpt lat="49.33411" lon="-0.40323">
        <ele>3.9</ele>
        <time>2020-06-17T08:49:41Z</time>
      </trkpt>
      <trkpt lat="49.3341" lon="-0.40315">
        <ele>4</ele>
        <time>2020-06-17T08:49:42Z</time>
      </trkpt>
      <trkpt lat="49.3341" lon="-0.40309">
        <ele>4</ele>
        <time>2020-06-17T08:49:43Z</time>
      </trkpt>
      <trkpt lat="49.33408" lon="-0.40305">
        <ele>4</ele>
        <time>2020-06-17T08:49:44Z</time>
      </trkpt>
      <trkpt lat="49.33405" lon="-0.40301">
        <ele>4.1</ele>
        <time>2020-06-17T08:49:45Z</time>
      </trkpt>
      <trkpt lat="49.33402" lon="-0.40299">
        <ele>4.2</ele>
        <time>2020-06-17T08:49:46Z</time>
      </trkpt>
      <trkpt lat="49.33399" lon="-0.40297">
        <ele>4.2</ele>
        <time>2020-06-17T08:49:47Z</time>
      </trkpt>
      <trkpt lat="49.33396" lon="-0.40294">
        <ele>4.3</ele>
        <time>2020-06-17T08:49:48Z</time>
      </trkpt>
      <trkpt lat="49.33393" lon="-0.40291">
        <ele>4.3</ele>
        <time>2020-06-17T08:49:49Z</time>
      </trkpt>
      <trkpt lat="49.33392" lon="-0.4029">
        <ele>4.3</ele>
        <time>2020-06-17T08:49:50Z</time>
      </trkpt>
      <trkpt lat="49.33389" lon="-0.40287">
        <ele>4.4</ele>
        <time>2020-06-17T08:49:51Z</time>
      </trkpt>
      <trkpt lat="49.33388" lon="-0.40287">
        <ele>4.4</ele>
        <time>2020-06-17T08:49:52Z</time>
      </trkpt>
      <trkpt lat="49.33387" lon="-0.40283">
        <ele>4.4</ele>
        <time>2020-06-17T08:49:53Z</time>
      </trkpt>
      <trkpt lat="49.33386" lon="-0.40282">
        <ele>4.4</ele>
        <time>2020-06-17T08:49:54Z</time>
      </trkpt>
      <trkpt lat="49.33384" lon="-0.40277">
        <ele>4.5</ele>
        <time>2020-06-17T08:49:55Z</time>
      </trkpt>
      <trkpt lat="49.33383" lon="-0.40275">
        <ele>4.5</ele>
        <time>2020-06-17T08:49:56Z</time>
      </trkpt>
      <trkpt lat="49.33381" lon="-0.4027">
        <ele>4.5</ele>
        <time>2020-06-17T08:49:57Z</time>
      </trkpt>
      <trkpt lat="49.3338" lon="-0.40265">
        <ele>4.5</ele>
        <time>2020-06-17T08:49:58Z</time>
      </trkpt>
      <trkpt lat="49.33379" lon="-0.4026">
        <ele>4.5</ele>
        <time>2020-06-17T08:49:59Z</time>
      </trkpt>
      <trkpt lat="49.33377" lon="-0.40254">
        <ele>4.5</ele>
        <time>2020-06-17T08:50:00Z</time>
      </trkpt>
      <trkpt lat="49.33376" lon="-0.40249">
        <ele>4.5</ele>
        <time>2020-06-17T08:50:01Z</time>
      </trkpt>
      <trkpt lat="49.33374" lon="-0.40244">
        <ele>4.5</ele>
        <time>2020-06-17T08:50:02Z</time>
      </trkpt>
      <trkpt lat="49.33373" lon="-0.40239">
        <ele>4.6</ele>
        <time>2020-06-17T08:50:03Z</time>
      </trkpt>
      <trkpt lat="49.33372" lon="-0.40234">
        <ele>4.6</ele>
        <time>2020-06-17T08:50:04Z</time>
      </trkpt>
      <trkpt lat="49.33371" lon="-0.40229">
        <ele>4.6</ele>
        <time>2020-06-17T08:50:05Z</time>
      </trkpt>
      <trkpt lat="49.3337" lon="-0.40225">
        <ele>4.7</ele>
        <time>2020-06-17T08:50:06Z</time>
      </trkpt>
      <trkpt lat="49.33369" lon="-0.40219">
        <ele>4.7</ele>
        <time>2020-06-17T08:50:07Z</time>
      </trkpt>
      <trkpt lat="49.33368" lon="-0.40214">
        <ele>4.7</ele>
        <time>2020-06-17T08:50:08Z</time>
      </trkpt>
      <trkpt lat="49.33367" lon="-0.40208">
        <ele>4.7</ele>
        <time>2020-06-17T08:50:09Z</time>
      </trkpt>
      <trkpt lat="49.33368" lon="-0.402">
        <ele>4.8</ele>
        <time>2020-06-17T08:50:10Z</time>
      </trkpt>
      <trkpt lat="49.33367" lon="-0.40192">
        <ele>4.8</ele>
        <time>2020-06-17T08:50:11Z</time>
      </trkpt>
      <trkpt lat="49.33366" lon="-0.40184">
        <ele>4.8</ele>
        <time>2020-06-17T08:50:12Z</time>
      </trkpt>
      <trkpt lat="49.33365" lon="-0.40178">
        <ele>4.8</ele>
        <time>2020-06-17T08:50:13Z</time>
      </trkpt>
      <trkpt lat="49.33364" lon="-0.40172">
        <ele>4.8</ele>
        <time>2020-06-17T08:50:14Z</time>
      </trkpt>
      <trkpt lat="49.33363" lon="-0.40167">
        <ele>4.8</ele>
        <time>2020-06-17T08:50:15Z</time>
      </trkpt>
      <trkpt lat="49.33363" lon="-0.40161">
        <ele>4.9</ele>
        <time>2020-06-17T08:50:16Z</time>
      </trkpt>
      <trkpt lat="49.33362" lon="-0.40155">
        <ele>4.9</ele>
        <time>2020-06-17T08:50:17Z</time>
      </trkpt>
      <trkpt lat="49.33361" lon="-0.40148">
        <ele>4.9</ele>
        <time>2020-06-17T08:50:18Z</time>
      </trkpt>
      <trkpt lat="49.33359" lon="-0.40142">
        <ele>4.9</ele>
        <time>2020-06-17T08:50:19Z</time>
      </trkpt>
      <trkpt lat="49.33358" lon="-0.40135">
        <ele>4.9</ele>
        <time>2020-06-17T08:50:20Z</time>
      </trkpt>
      <trkpt lat="49.33357" lon="-0.40129">
        <ele>4.9</ele>
        <time>2020-06-17T08:50:21Z</time>
      </trkpt>
      <trkpt lat="49.33355" lon="-0.40125">
        <ele>5</ele>
        <time>2020-06-17T08:50:22Z</time>
      </trkpt>
      <trkpt lat="49.33352" lon="-0.40121">
        <ele>5</ele>
        <time>2020-06-17T08:50:23Z</time>
      </trkpt>
      <trkpt lat="49.3335" lon="-0.40117">
        <ele>5</ele>
        <time>2020-06-17T08:50:24Z</time>
      </trkpt>
      <trkpt lat="49.33347" lon="-0.40114">
        <ele>5</ele>
        <time>2020-06-17T08:50:25Z</time>
      </trkpt>
      <trkpt lat="49.33344" lon="-0.40111">
        <ele>5</ele>
        <time>2020-06-17T08:50:26Z</time>
      </trkpt>
      <trkpt lat="49.33343" lon="-0.40106">
        <ele>5</ele>
        <time>2020-06-17T08:50:27Z</time>
      </trkpt>
      <trkpt lat="49.33342" lon="-0.40104">
        <ele>5</ele>
        <time>2020-06-17T08:50:28Z</time>
      </trkpt>
      <trkpt lat="49.33341" lon="-0.401">
        <ele>5</ele>
        <time>2020-06-17T08:50:29Z</time>
      </trkpt>
      <trkpt lat="49.3334" lon="-0.40099">
        <ele>5</ele>
        <time>2020-06-17T08:50:30Z</time>
      </trkpt>
      <trkpt lat="49.33339" lon="-0.40095">
        <ele>5</ele>
        <time>2020-06-17T08:50:31Z</time>
      </trkpt>
      <trkpt lat="49.33338" lon="-0.40094">
        <ele>5.1</ele>
        <time>2020-06-17T08:50:32Z</time>
      </trkpt>
      <trkpt lat="49.33338" lon="-0.40092">
        <ele>5.1</ele>
        <time>2020-06-17T08:50:33Z</time>
      </trkpt>
      <trkpt lat="49.33338" lon="-0.40091">
        <ele>5.1</ele>
        <time>2020-06-17T08:50:34Z</time>
      </trkpt>
      <trkpt lat="49.33338" lon="-0.40091">
        <ele>5.1</ele>
        <time>2020-06-17T08:50:35Z</time>
      </trkpt>
      <trkpt lat="49.33338" lon="-0.4009">
        <ele>5.1</ele>
        <time>2020-06-17T08:50:36Z</time>
      </trkpt>
      <trkpt lat="49.33338" lon="-0.4009">
        <ele>5.1</ele>
        <time>2020-06-17T08:50:37Z</time>
      </trkpt>
      <trkpt lat="49.33338" lon="-0.4009">
        <ele>5.1</ele>
        <time>2020-06-17T08:50:38Z</time>
      </trkpt>
      <trkpt lat="49.33338" lon="-0.4009">
        <ele>5.1</ele>
        <time>2020-06-17T08:50:39Z</time>
      </trkpt>
      <trkpt lat="49.33338" lon="-0.4009">
        <ele>5.1</ele>
        <time>2020-06-17T08:50:40Z</time>
      </trkpt>
      <trkpt lat="49.33337" lon="-0.40089">
        <ele>5.1</ele>
        <time>2020-06-17T08:50:41Z</time>
      </trkpt>
      <trkpt lat="49.33337" lon="-0.40089">
        <ele>5.1</ele>
        <time>2020-06-17T08:50:42Z</time>
      </trkpt>
      <trkpt lat="49.33336" lon="-0.40089">
        <ele>5.1</ele>
        <time>2020-06-17T08:50:43Z</time>
      </trkpt>
      <trkpt lat="49.33337" lon="-0.40089">
        <ele>5.1</ele>
        <time>2020-06-17T08:50:44Z</time>
      </trkpt>
      <trkpt lat="49.33337" lon="-0.40088">
        <ele>5.1</ele>
        <time>2020-06-17T08:50:45Z</time>
      </trkpt>
      <trkpt lat="49.33337" lon="-0.40088">
        <ele>5.1</ele>
        <time>2020-06-17T08:50:46Z</time>
      </trkpt>
      <trkpt lat="49.33336" lon="-0.40088">
        <ele>5.1</ele>
        <time>2020-06-17T08:50:47Z</time>
      </trkpt>
      <trkpt lat="49.33335" lon="-0.40088">
        <ele>5.1</ele>
        <time>2020-06-17T08:50:48Z</time>
      </trkpt>
      <trkpt lat="49.33331" lon="-0.40087">
        <ele>5.4</ele>
        <time>2020-06-17T08:50:49Z</time>
      </trkpt>
      <trkpt lat="49.3333" lon="-0.40086">
        <ele>5.5</ele>
        <time>2020-06-17T08:50:50Z</time>
      </trkpt>
      <trkpt lat="49.33329" lon="-0.40085">
        <ele>5.5</ele>
        <time>2020-06-17T08:50:51Z</time>
      </trkpt>
      <trkpt lat="49.33328" lon="-0.40086">
        <ele>5.6</ele>
        <time>2020-06-17T08:50:52Z</time>
      </trkpt>
      <trkpt lat="49.33326" lon="-0.40086">
        <ele>5.6</ele>
        <time>2020-06-17T08:50:53Z</time>
      </trkpt>
      <trkpt lat="49.33324" lon="-0.40086">
        <ele>5.7</ele>
        <time>2020-06-17T08:50:54Z</time>
      </trkpt>
      <trkpt lat="49.33323" lon="-0.40086">
        <ele>5.7</ele>
        <time>2020-06-17T08:50:55Z</time>
      </trkpt>
      <trkpt lat="49.33322" lon="-0.40086">
        <ele>5.7</ele>
        <time>2020-06-17T08:50:56Z</time>
      </trkpt>
      <trkpt lat="49.33322" lon="-0.40087">
        <ele>5.7</ele>
        <time>2020-06-17T08:50:57Z</time>
      </trkpt>
      <trkpt lat="49.33322" lon="-0.40087">
        <ele>5.7</ele>
        <time>2020-06-17T08:50:58Z</time>
      </trkpt>
      <trkpt lat="49.33321" lon="-0.40087">
        <ele>5.8</ele>
        <time>2020-06-17T08:50:59Z</time>
      </trkpt>
      <trkpt lat="49.3332" lon="-0.40087">
        <ele>6.1</ele>
        <time>2020-06-17T08:51:00Z</time>
      </trkpt>
      <trkpt lat="49.3332" lon="-0.40086">
        <ele>6.2</ele>
        <time>2020-06-17T08:51:01Z</time>
      </trkpt>
      <trkpt lat="49.33319" lon="-0.40085">
        <ele>6.3</ele>
        <time>2020-06-17T08:51:02Z</time>
      </trkpt>
      <trkpt lat="49.33318" lon="-0.40085">
        <ele>6.4</ele>
        <time>2020-06-17T08:51:03Z</time>
      </trkpt>
      <trkpt lat="49.33317" lon="-0.40084">
        <ele>6.5</ele>
        <time>2020-06-17T08:51:04Z</time>
      </trkpt>
      <trkpt lat="49.33316" lon="-0.40084">
        <ele>6.7</ele>
        <time>2020-06-17T08:51:05Z</time>
      </trkpt>
      <trkpt lat="49.33314" lon="-0.40084">
        <ele>6.9</ele>
        <time>2020-06-17T08:51:06Z</time>
      </trkpt>
      <trkpt lat="49.33314" lon="-0.40083">
        <ele>7</ele>
        <time>2020-06-17T08:51:07Z</time>
      </trkpt>
      <trkpt lat="49.33313" lon="-0.40083">
        <ele>7.1</ele>
        <time>2020-06-17T08:51:08Z</time>
      </trkpt>
      <trkpt lat="49.33312" lon="-0.40083">
        <ele>7.2</ele>
        <time>2020-06-17T08:51:09Z</time>
      </trkpt>
      <trkpt lat="49.33311" lon="-0.40082">
        <ele>7.3</ele>
        <time>2020-06-17T08:51:10Z</time>
      </trkpt>
      <trkpt lat="49.33309" lon="-0.40082">
        <ele>7.5</ele>
        <time>2020-06-17T08:51:11Z</time>
      </trkpt>
      <trkpt lat="49.33308" lon="-0.40082">
        <ele>7.7</ele>
        <time>2020-06-17T08:51:12Z</time>
      </trkpt>
      <trkpt lat="49.33307" lon="-0.40082">
        <ele>7.9</ele>
        <time>2020-06-17T08:51:13Z</time>
      </trkpt>
      <trkpt lat="49.33306" lon="-0.40082">
        <ele>7.9</ele>
        <time>2020-06-17T08:51:14Z</time>
      </trkpt>
      <trkpt lat="49.33306" lon="-0.40083">
        <ele>8</ele>
        <time>2020-06-17T08:51:15Z</time>
      </trkpt>
      <trkpt lat="49.33305" lon="-0.40083">
        <ele>8.2</ele>
        <time>2020-06-17T08:51:16Z</time>
      </trkpt>
      <trkpt lat="49.33305" lon="-0.40083">
        <ele>8.2</ele>
        <time>2020-06-17T08:51:17Z</time>
      </trkpt>
      <trkpt lat="49.33305" lon="-0.40085">
        <ele>8.2</ele>
        <time>2020-06-17T08:51:18Z</time>
      </trkpt>
      <trkpt lat="49.33304" lon="-0.40085">
        <ele>8.2</ele>
        <time>2020-06-17T08:51:19Z</time>
      </trkpt>
      <trkpt lat="49.33304" lon="-0.40085">
        <ele>8.2</ele>
        <time>2020-06-17T08:51:20Z</time>
      </trkpt>
      <trkpt lat="49.33304" lon="-0.40086">
        <ele>8.2</ele>
        <time>2020-06-17T08:51:21Z</time>
      </trkpt>
      <trkpt lat="49.33304" lon="-0.40088">
        <ele>8.2</ele>
        <time>2020-06-17T08:51:22Z</time>
      </trkpt>
      <trkpt lat="49.33305" lon="-0.4009">
        <ele>8.2</ele>
        <time>2020-06-17T08:51:23Z</time>
      </trkpt>
      <trkpt lat="49.33305" lon="-0.40091">
        <ele>8.2</ele>
        <time>2020-06-17T08:51:24Z</time>
      </trkpt>
      <trkpt lat="49.33307" lon="-0.40094">
        <ele>8</ele>
        <time>2020-06-17T08:51:25Z</time>
      </trkpt>
      <trkpt lat="49.33308" lon="-0.40098">
        <ele>8.2</ele>
        <time>2020-06-17T08:51:26Z</time>
      </trkpt>
      <trkpt lat="49.33308" lon="-0.40099">
        <ele>8.2</ele>
        <time>2020-06-17T08:51:27Z</time>
      </trkpt>
      <trkpt lat="49.33308" lon="-0.40101">
        <ele>8.2</ele>
        <time>2020-06-17T08:51:28Z</time>
      </trkpt>
      <trkpt lat="49.33308" lon="-0.40101">
        <ele>8.2</ele>
        <time>2020-06-17T08:51:29Z</time>
      </trkpt>
      <trkpt lat="49.33307" lon="-0.40101">
        <ele>8.2</ele>
        <time>2020-06-17T08:51:30Z</time>
      </trkpt>
      <trkpt lat="49.33307" lon="-0.401">
        <ele>8.2</ele>
        <time>2020-06-17T08:51:31Z</time>
      </trkpt>
      <trkpt lat="49.33307" lon="-0.401">
        <ele>8.2</ele>
        <time>2020-06-17T08:51:32Z</time>
      </trkpt>
      <trkpt lat="49.33306" lon="-0.40099">
        <ele>8.2</ele>
        <time>2020-06-17T08:51:33Z</time>
      </trkpt>
      <trkpt lat="49.33306" lon="-0.40099">
        <ele>8.2</ele>
        <time>2020-06-17T08:51:34Z</time>
      </trkpt>
      <trkpt lat="49.33306" lon="-0.40099">
        <ele>8.2</ele>
        <time>2020-06-17T08:51:35Z</time>
      </trkpt>
      <trkpt lat="49.33306" lon="-0.40098">
        <ele>8.2</ele>
        <time>2020-06-17T08:51:36Z</time>
      </trkpt>
      <trkpt lat="49.33305" lon="-0.40098">
        <ele>8.2</ele>
        <time>2020-06-17T08:51:37Z</time>
      </trkpt>
      <trkpt lat="49.33305" lon="-0.40098">
        <ele>8.2</ele>
        <time>2020-06-17T08:51:38Z</time>
      </trkpt>
      <trkpt lat="49.33305" lon="-0.40097">
        <ele>8.2</ele>
        <time>2020-06-17T08:51:39Z</time>
      </trkpt>
      <trkpt lat="49.33304" lon="-0.40097">
        <ele>8.2</ele>
        <time>2020-06-17T08:51:40Z</time>
      </trkpt>
      <trkpt lat="49.33303" lon="-0.40096">
        <ele>8.2</ele>
        <time>2020-06-17T08:51:41Z</time>
      </trkpt>
      <trkpt lat="49.33302" lon="-0.40094">
        <ele>8.2</ele>
        <time>2020-06-17T08:51:42Z</time>
      </trkpt>
      <trkpt lat="49.33301" lon="-0.40092">
        <ele>8.2</ele>
        <time>2020-06-17T08:51:43Z</time>
      </trkpt>
      <trkpt lat="49.33301" lon="-0.4009">
        <ele>8.2</ele>
        <time>2020-06-17T08:51:44Z</time>
      </trkpt>
      <trkpt lat="49.333" lon="-0.40088">
        <ele>8.2</ele>
        <time>2020-06-17T08:51:45Z</time>
      </trkpt>
      <trkpt lat="49.333" lon="-0.40086">
        <ele>8.2</ele>
        <time>2020-06-17T08:51:51Z</time>
      </trkpt>
      <trkpt lat="49.33299" lon="-0.40084">
        <ele>8.2</ele>
        <time>2020-06-17T08:51:52Z</time>
      </trkpt>
      <trkpt lat="49.33299" lon="-0.4008">
        <ele>8.2</ele>
        <time>2020-06-17T08:51:53Z</time>
      </trkpt>
      <trkpt lat="49.33299" lon="-0.40076">
        <ele>8.2</ele>
        <time>2020-06-17T08:51:54Z</time>
      </trkpt>
      <trkpt lat="49.33299" lon="-0.40071">
        <ele>8.2</ele>
        <time>2020-06-17T08:51:55Z</time>
      </trkpt>
      <trkpt lat="49.33299" lon="-0.40067">
        <ele>8.2</ele>
        <time>2020-06-17T08:51:56Z</time>
      </trkpt>
      <trkpt lat="49.33299" lon="-0.40061">
        <ele>8.2</ele>
        <time>2020-06-17T08:51:57Z</time>
      </trkpt>
      <trkpt lat="49.33299" lon="-0.40055">
        <ele>8.3</ele>
        <time>2020-06-17T08:51:58Z</time>
      </trkpt>
      <trkpt lat="49.33298" lon="-0.4005">
        <ele>8.3</ele>
        <time>2020-06-17T08:51:59Z</time>
      </trkpt>
      <trkpt lat="49.33298" lon="-0.40043">
        <ele>8.3</ele>
        <time>2020-06-17T08:52:00Z</time>
      </trkpt>
      <trkpt lat="49.33297" lon="-0.40037">
        <ele>8.3</ele>
        <time>2020-06-17T08:52:01Z</time>
      </trkpt>
      <trkpt lat="49.33297" lon="-0.4003">
        <ele>8.3</ele>
        <time>2020-06-17T08:52:02Z</time>
      </trkpt>
      <trkpt lat="49.33297" lon="-0.40023">
        <ele>8.3</ele>
        <time>2020-06-17T08:52:03Z</time>
      </trkpt>
      <trkpt lat="49.33296" lon="-0.40016">
        <ele>8.3</ele>
        <time>2020-06-17T08:52:04Z</time>
      </trkpt>
      <trkpt lat="49.33296" lon="-0.40009">
        <ele>8.4</ele>
        <time>2020-06-17T08:52:05Z</time>
      </trkpt>
      <trkpt lat="49.33296" lon="-0.40002">
        <ele>8.4</ele>
        <time>2020-06-17T08:52:06Z</time>
      </trkpt>
      <trkpt lat="49.33296" lon="-0.39995">
        <ele>8.4</ele>
        <time>2020-06-17T08:52:07Z</time>
      </trkpt>
      <trkpt lat="49.33296" lon="-0.39988">
        <ele>8.4</ele>
        <time>2020-06-17T08:52:08Z</time>
      </trkpt>
      <trkpt lat="49.33295" lon="-0.39981">
        <ele>8.4</ele>
        <time>2020-06-17T08:52:09Z</time>
      </trkpt>
      <trkpt lat="49.33295" lon="-0.39973">
        <ele>8.4</ele>
        <time>2020-06-17T08:52:10Z</time>
      </trkpt>
      <trkpt lat="49.33294" lon="-0.39967">
        <ele>8.4</ele>
        <time>2020-06-17T08:52:11Z</time>
      </trkpt>
      <trkpt lat="49.33295" lon="-0.3996">
        <ele>8.4</ele>
        <time>2020-06-17T08:52:12Z</time>
      </trkpt>
      <trkpt lat="49.33293" lon="-0.39953">
        <ele>8.4</ele>
        <time>2020-06-17T08:52:13Z</time>
      </trkpt>
      <trkpt lat="49.33292" lon="-0.39945">
        <ele>8.4</ele>
        <time>2020-06-17T08:52:14Z</time>
      </trkpt>
      <trkpt lat="49.33292" lon="-0.39938">
        <ele>8.4</ele>
        <time>2020-06-17T08:52:15Z</time>
      </trkpt>
      <trkpt lat="49.33291" lon="-0.39932">
        <ele>8.3</ele>
        <time>2020-06-17T08:52:16Z</time>
      </trkpt>
      <trkpt lat="49.3329" lon="-0.39925">
        <ele>8.3</ele>
        <time>2020-06-17T08:52:17Z</time>
      </trkpt>
      <trkpt lat="49.3329" lon="-0.39917">
        <ele>8.3</ele>
        <time>2020-06-17T08:52:18Z</time>
      </trkpt>
      <trkpt lat="49.33289" lon="-0.39908">
        <ele>8.3</ele>
        <time>2020-06-17T08:52:19Z</time>
      </trkpt>
      <trkpt lat="49.33288" lon="-0.399">
        <ele>8.3</ele>
        <time>2020-06-17T08:52:20Z</time>
      </trkpt>
      <trkpt lat="49.33289" lon="-0.39891">
        <ele>8.3</ele>
        <time>2020-06-17T08:52:21Z</time>
      </trkpt>
      <trkpt lat="49.33286" lon="-0.39883">
        <ele>8.3</ele>
        <time>2020-06-17T08:52:22Z</time>
      </trkpt>
      <trkpt lat="49.33286" lon="-0.39875">
        <ele>8.2</ele>
        <time>2020-06-17T08:52:23Z</time>
      </trkpt>
      <trkpt lat="49.33286" lon="-0.39868">
        <ele>8.2</ele>
        <time>2020-06-17T08:52:24Z</time>
      </trkpt>
      <trkpt lat="49.33286" lon="-0.39859">
        <ele>8.2</ele>
        <time>2020-06-17T08:52:25Z</time>
      </trkpt>
      <trkpt lat="49.33285" lon="-0.39852">
        <ele>8.2</ele>
        <time>2020-06-17T08:52:26Z</time>
      </trkpt>
      <trkpt lat="49.33284" lon="-0.39843">
        <ele>8.2</ele>
        <time>2020-06-17T08:52:27Z</time>
      </trkpt>
      <trkpt lat="49.33283" lon="-0.39835">
        <ele>8.2</ele>
        <time>2020-06-17T08:52:28Z</time>
      </trkpt>
      <trkpt lat="49.33282" lon="-0.39827">
        <ele>8.2</ele>
        <time>2020-06-17T08:52:29Z</time>
      </trkpt>
      <trkpt lat="49.33282" lon="-0.39819">
        <ele>8.2</ele>
        <time>2020-06-17T08:52:30Z</time>
      </trkpt>
      <trkpt lat="49.33281" lon="-0.39811">
        <ele>8.2</ele>
        <time>2020-06-17T08:52:31Z</time>
      </trkpt>
      <trkpt lat="49.33281" lon="-0.39803">
        <ele>8.1</ele>
        <time>2020-06-17T08:52:32Z</time>
      </trkpt>
      <trkpt lat="49.33279" lon="-0.39794">
        <ele>8.1</ele>
        <time>2020-06-17T08:52:33Z</time>
      </trkpt>
      <trkpt lat="49.33279" lon="-0.39784">
        <ele>8.1</ele>
        <time>2020-06-17T08:52:34Z</time>
      </trkpt>
      <trkpt lat="49.33278" lon="-0.39775">
        <ele>8.1</ele>
        <time>2020-06-17T08:52:35Z</time>
      </trkpt>
      <trkpt lat="49.33277" lon="-0.39766">
        <ele>8.1</ele>
        <time>2020-06-17T08:52:36Z</time>
      </trkpt>
      <trkpt lat="49.33276" lon="-0.39758">
        <ele>8.1</ele>
        <time>2020-06-17T08:52:37Z</time>
      </trkpt>
      <trkpt lat="49.33275" lon="-0.3975">
        <ele>8</ele>
        <time>2020-06-17T08:52:38Z</time>
      </trkpt>
      <trkpt lat="49.33273" lon="-0.39743">
        <ele>8</ele>
        <time>2020-06-17T08:52:39Z</time>
      </trkpt>
      <trkpt lat="49.33273" lon="-0.39735">
        <ele>8</ele>
        <time>2020-06-17T08:52:40Z</time>
      </trkpt>
      <trkpt lat="49.33273" lon="-0.39727">
        <ele>8</ele>
        <time>2020-06-17T08:52:41Z</time>
      </trkpt>
      <trkpt lat="49.33272" lon="-0.3972">
        <ele>8</ele>
        <time>2020-06-17T08:52:42Z</time>
      </trkpt>
      <trkpt lat="49.33271" lon="-0.39713">
        <ele>8</ele>
        <time>2020-06-17T08:52:43Z</time>
      </trkpt>
      <trkpt lat="49.3327" lon="-0.39706">
        <ele>8</ele>
        <time>2020-06-17T08:52:44Z</time>
      </trkpt>
      <trkpt lat="49.33269" lon="-0.39698">
        <ele>8</ele>
        <time>2020-06-17T08:52:45Z</time>
      </trkpt>
      <trkpt lat="49.33268" lon="-0.39691">
        <ele>8</ele>
        <time>2020-06-17T08:52:46Z</time>
      </trkpt>
      <trkpt lat="49.33267" lon="-0.39684">
        <ele>8</ele>
        <time>2020-06-17T08:52:47Z</time>
      </trkpt>
      <trkpt lat="49.33266" lon="-0.39677">
        <ele>7.9</ele>
        <time>2020-06-17T08:52:48Z</time>
      </trkpt>
      <trkpt lat="49.33266" lon="-0.3967">
        <ele>7.9</ele>
        <time>2020-06-17T08:52:49Z</time>
      </trkpt>
      <trkpt lat="49.33265" lon="-0.39663">
        <ele>7.9</ele>
        <time>2020-06-17T08:52:50Z</time>
      </trkpt>
      <trkpt lat="49.33264" lon="-0.39655">
        <ele>7.9</ele>
        <time>2020-06-17T08:52:51Z</time>
      </trkpt>
      <trkpt lat="49.33263" lon="-0.39648">
        <ele>7.9</ele>
        <time>2020-06-17T08:52:52Z</time>
      </trkpt>
      <trkpt lat="49.33262" lon="-0.39641">
        <ele>7.9</ele>
        <time>2020-06-17T08:52:53Z</time>
      </trkpt>
      <trkpt lat="49.33261" lon="-0.39633">
        <ele>7.9</ele>
        <time>2020-06-17T08:52:54Z</time>
      </trkpt>
      <trkpt lat="49.3326" lon="-0.39626">
        <ele>7.9</ele>
        <time>2020-06-17T08:52:55Z</time>
      </trkpt>
      <trkpt lat="49.33259" lon="-0.39619">
        <ele>7.8</ele>
        <time>2020-06-17T08:52:56Z</time>
      </trkpt>
      <trkpt lat="49.33259" lon="-0.3961">
        <ele>7.8</ele>
        <time>2020-06-17T08:52:57Z</time>
      </trkpt>
      <trkpt lat="49.33258" lon="-0.39602">
        <ele>7.8</ele>
        <time>2020-06-17T08:52:58Z</time>
      </trkpt>
      <trkpt lat="49.33257" lon="-0.39594">
        <ele>7.8</ele>
        <time>2020-06-17T08:52:59Z</time>
      </trkpt>
      <trkpt lat="49.33256" lon="-0.39586">
        <ele>7.8</ele>
        <time>2020-06-17T08:53:00Z</time>
      </trkpt>
      <trkpt lat="49.33255" lon="-0.39578">
        <ele>7.8</ele>
        <time>2020-06-17T08:53:01Z</time>
      </trkpt>
      <trkpt lat="49.33254" lon="-0.39571">
        <ele>7.8</ele>
        <time>2020-06-17T08:53:02Z</time>
      </trkpt>
      <trkpt lat="49.33252" lon="-0.39563">
        <ele>7.8</ele>
        <time>2020-06-17T08:53:03Z</time>
      </trkpt>
      <trkpt lat="49.33251" lon="-0.39555">
        <ele>7.8</ele>
        <time>2020-06-17T08:53:04Z</time>
      </trkpt>
      <trkpt lat="49.3325" lon="-0.39546">
        <ele>7.7</ele>
        <time>2020-06-17T08:53:05Z</time>
      </trkpt>
      <trkpt lat="49.33249" lon="-0.39537">
        <ele>7.7</ele>
        <time>2020-06-17T08:53:06Z</time>
      </trkpt>
      <trkpt lat="49.33248" lon="-0.39527">
        <ele>7.7</ele>
        <time>2020-06-17T08:53:07Z</time>
      </trkpt>
      <trkpt lat="49.33247" lon="-0.39518">
        <ele>7.7</ele>
        <time>2020-06-17T08:53:08Z</time>
      </trkpt>
      <trkpt lat="49.33246" lon="-0.3951">
        <ele>7.7</ele>
        <time>2020-06-17T08:53:09Z</time>
      </trkpt>
      <trkpt lat="49.33245" lon="-0.39502">
        <ele>7.6</ele>
        <time>2020-06-17T08:53:10Z</time>
      </trkpt>
      <trkpt lat="49.33244" lon="-0.39494">
        <ele>7.6</ele>
        <time>2020-06-17T08:53:11Z</time>
      </trkpt>
      <trkpt lat="49.33244" lon="-0.39487">
        <ele>7.6</ele>
        <time>2020-06-17T08:53:12Z</time>
      </trkpt>
      <trkpt lat="49.33243" lon="-0.3948">
        <ele>7.5</ele>
        <time>2020-06-17T08:53:13Z</time>
      </trkpt>
      <trkpt lat="49.33242" lon="-0.39472">
        <ele>7.5</ele>
        <time>2020-06-17T08:53:14Z</time>
      </trkpt>
      <trkpt lat="49.33241" lon="-0.39465">
        <ele>7.5</ele>
        <time>2020-06-17T08:53:15Z</time>
      </trkpt>
      <trkpt lat="49.33241" lon="-0.39458">
        <ele>7.4</ele>
        <time>2020-06-17T08:53:16Z</time>
      </trkpt>
      <trkpt lat="49.33239" lon="-0.39452">
        <ele>7.4</ele>
        <time>2020-06-17T08:53:17Z</time>
      </trkpt>
      <trkpt lat="49.33238" lon="-0.39445">
        <ele>7.3</ele>
        <time>2020-06-17T08:53:18Z</time>
      </trkpt>
      <trkpt lat="49.33236" lon="-0.3944">
        <ele>7.3</ele>
        <time>2020-06-17T08:53:19Z</time>
      </trkpt>
      <trkpt lat="49.33235" lon="-0.39435">
        <ele>7.2</ele>
        <time>2020-06-17T08:53:20Z</time>
      </trkpt>
      <trkpt lat="49.33233" lon="-0.39431">
        <ele>7.2</ele>
        <time>2020-06-17T08:53:21Z</time>
      </trkpt>
      <trkpt lat="49.33231" lon="-0.39425">
        <ele>7</ele>
        <time>2020-06-17T08:53:22Z</time>
      </trkpt>
      <trkpt lat="49.3323" lon="-0.39424">
        <ele>7</ele>
        <time>2020-06-17T08:53:23Z</time>
      </trkpt>
      <trkpt lat="49.33228" lon="-0.3942">
        <ele>6.9</ele>
        <time>2020-06-17T08:53:24Z</time>
      </trkpt>
      <trkpt lat="49.33227" lon="-0.39415">
        <ele>6.6</ele>
        <time>2020-06-17T08:53:25Z</time>
      </trkpt>
      <trkpt lat="49.33225" lon="-0.39411">
        <ele>6.5</ele>
        <time>2020-06-17T08:53:26Z</time>
      </trkpt>
      <trkpt lat="49.33224" lon="-0.39407">
        <ele>6.5</ele>
        <time>2020-06-17T08:53:27Z</time>
      </trkpt>
      <trkpt lat="49.33222" lon="-0.39403">
        <ele>6.4</ele>
        <time>2020-06-17T08:53:28Z</time>
      </trkpt>
      <trkpt lat="49.3322" lon="-0.39399">
        <ele>6.4</ele>
        <time>2020-06-17T08:53:29Z</time>
      </trkpt>
      <trkpt lat="49.33218" lon="-0.39395">
        <ele>6.4</ele>
        <time>2020-06-17T08:53:30Z</time>
      </trkpt>
      <trkpt lat="49.33218" lon="-0.39391">
        <ele>6.3</ele>
        <time>2020-06-17T08:53:31Z</time>
      </trkpt>
      <trkpt lat="49.33216" lon="-0.39386">
        <ele>6.3</ele>
        <time>2020-06-17T08:53:32Z</time>
      </trkpt>
      <trkpt lat="49.33214" lon="-0.39383">
        <ele>6.2</ele>
        <time>2020-06-17T08:53:33Z</time>
      </trkpt>
      <trkpt lat="49.33212" lon="-0.39379">
        <ele>6.2</ele>
        <time>2020-06-17T08:53:34Z</time>
      </trkpt>
      <trkpt lat="49.3321" lon="-0.39375">
        <ele>6.1</ele>
        <time>2020-06-17T08:53:35Z</time>
      </trkpt>
      <trkpt lat="49.33208" lon="-0.39371">
        <ele>6.1</ele>
        <time>2020-06-17T08:53:36Z</time>
      </trkpt>
      <trkpt lat="49.33206" lon="-0.39366">
        <ele>6</ele>
        <time>2020-06-17T08:53:37Z</time>
      </trkpt>
      <trkpt lat="49.33203" lon="-0.39361">
        <ele>6</ele>
        <time>2020-06-17T08:53:38Z</time>
      </trkpt>
      <trkpt lat="49.33201" lon="-0.39355">
        <ele>6</ele>
        <time>2020-06-17T08:53:39Z</time>
      </trkpt>
      <trkpt lat="49.332" lon="-0.39351">
        <ele>5.9</ele>
        <time>2020-06-17T08:53:40Z</time>
      </trkpt>
      <trkpt lat="49.33198" lon="-0.39347">
        <ele>5.9</ele>
        <time>2020-06-17T08:53:41Z</time>
      </trkpt>
      <trkpt lat="49.33198" lon="-0.39341">
        <ele>5</ele>
        <time>2020-06-17T08:53:42Z</time>
      </trkpt>
      <trkpt lat="49.33198" lon="-0.39339">
        <ele>5</ele>
        <time>2020-06-17T08:53:43Z</time>
      </trkpt>
      <trkpt lat="49.33199" lon="-0.39333">
        <ele>5</ele>
        <time>2020-06-17T08:53:44Z</time>
      </trkpt>
      <trkpt lat="49.33199" lon="-0.39331">
        <ele>5</ele>
        <time>2020-06-17T08:53:45Z</time>
      </trkpt>
      <trkpt lat="49.332" lon="-0.39325">
        <ele>5</ele>
        <time>2020-06-17T08:53:46Z</time>
      </trkpt>
      <trkpt lat="49.332" lon="-0.39323">
        <ele>5</ele>
        <time>2020-06-17T08:53:47Z</time>
      </trkpt>
      <trkpt lat="49.332" lon="-0.39317">
        <ele>5</ele>
        <time>2020-06-17T08:53:48Z</time>
      </trkpt>
      <trkpt lat="49.332" lon="-0.39314">
        <ele>4.9</ele>
        <time>2020-06-17T08:53:49Z</time>
      </trkpt>
      <trkpt lat="49.33199" lon="-0.39308">
        <ele>4.9</ele>
        <time>2020-06-17T08:53:50Z</time>
      </trkpt>
      <trkpt lat="49.33199" lon="-0.39305">
        <ele>4.9</ele>
        <time>2020-06-17T08:53:51Z</time>
      </trkpt>
      <trkpt lat="49.33197" lon="-0.39301">
        <ele>4.9</ele>
        <time>2020-06-17T08:53:52Z</time>
      </trkpt>
      <trkpt lat="49.33196" lon="-0.39296">
        <ele>4.9</ele>
        <time>2020-06-17T08:53:53Z</time>
      </trkpt>
      <trkpt lat="49.33195" lon="-0.39291">
        <ele>4.9</ele>
        <time>2020-06-17T08:53:54Z</time>
      </trkpt>
      <trkpt lat="49.33193" lon="-0.39285">
        <ele>4.8</ele>
        <time>2020-06-17T08:53:55Z</time>
      </trkpt>
      <trkpt lat="49.33191" lon="-0.39279">
        <ele>4.8</ele>
        <time>2020-06-17T08:53:56Z</time>
      </trkpt>
      <trkpt lat="49.33189" lon="-0.39273">
        <ele>4.7</ele>
        <time>2020-06-17T08:53:57Z</time>
      </trkpt>
      <trkpt lat="49.33188" lon="-0.39268">
        <ele>4.7</ele>
        <time>2020-06-17T08:53:58Z</time>
      </trkpt>
      <trkpt lat="49.33187" lon="-0.39263">
        <ele>4.7</ele>
        <time>2020-06-17T08:53:59Z</time>
      </trkpt>
      <trkpt lat="49.33186" lon="-0.39257">
        <ele>4.6</ele>
        <time>2020-06-17T08:54:00Z</time>
      </trkpt>
      <trkpt lat="49.33184" lon="-0.39252">
        <ele>4.6</ele>
        <time>2020-06-17T08:54:01Z</time>
      </trkpt>
      <trkpt lat="49.33183" lon="-0.39247">
        <ele>4.6</ele>
        <time>2020-06-17T08:54:02Z</time>
      </trkpt>
      <trkpt lat="49.33181" lon="-0.39243">
        <ele>4.5</ele>
        <time>2020-06-17T08:54:03Z</time>
      </trkpt>
      <trkpt lat="49.33179" lon="-0.39239">
        <ele>4.5</ele>
        <time>2020-06-17T08:54:04Z</time>
      </trkpt>
      <trkpt lat="49.33177" lon="-0.39235">
        <ele>4.5</ele>
        <time>2020-06-17T08:54:05Z</time>
      </trkpt>
      <trkpt lat="49.33176" lon="-0.3923">
        <ele>4.5</ele>
        <time>2020-06-17T08:54:06Z</time>
      </trkpt>
      <trkpt lat="49.33174" lon="-0.39225">
        <ele>4.5</ele>
        <time>2020-06-17T08:54:07Z</time>
      </trkpt>
      <trkpt lat="49.33172" lon="-0.39219">
        <ele>4.5</ele>
        <time>2020-06-17T08:54:08Z</time>
      </trkpt>
      <trkpt lat="49.3317" lon="-0.39214">
        <ele>4.6</ele>
        <time>2020-06-17T08:54:09Z</time>
      </trkpt>
      <trkpt lat="49.33167" lon="-0.39209">
        <ele>4.6</ele>
        <time>2020-06-17T08:54:10Z</time>
      </trkpt>
      <trkpt lat="49.33165" lon="-0.39206">
        <ele>4.6</ele>
        <time>2020-06-17T08:54:11Z</time>
      </trkpt>
      <trkpt lat="49.33164" lon="-0.392">
        <ele>4.6</ele>
        <time>2020-06-17T08:54:12Z</time>
      </trkpt>
      <trkpt lat="49.33163" lon="-0.39198">
        <ele>4.6</ele>
        <time>2020-06-17T08:54:13Z</time>
      </trkpt>
      <trkpt lat="49.33162" lon="-0.39193">
        <ele>4.6</ele>
        <time>2020-06-17T08:54:14Z</time>
      </trkpt>
      <trkpt lat="49.33162" lon="-0.39192">
        <ele>4.6</ele>
        <time>2020-06-17T08:54:15Z</time>
      </trkpt>
      <trkpt lat="49.33162" lon="-0.39189">
        <ele>4.6</ele>
        <time>2020-06-17T08:54:16Z</time>
      </trkpt>
      <trkpt lat="49.33162" lon="-0.39188">
        <ele>4.6</ele>
        <time>2020-06-17T08:54:17Z</time>
      </trkpt>
      <trkpt lat="49.33162" lon="-0.39187">
        <ele>4.6</ele>
        <time>2020-06-17T08:54:18Z</time>
      </trkpt>
      <trkpt lat="49.33161" lon="-0.39185">
        <ele>4.6</ele>
        <time>2020-06-17T08:54:19Z</time>
      </trkpt>
      <trkpt lat="49.33161" lon="-0.39182">
        <ele>4.6</ele>
        <time>2020-06-17T08:54:20Z</time>
      </trkpt>
      <trkpt lat="49.33161" lon="-0.39179">
        <ele>4.6</ele>
        <time>2020-06-17T08:54:21Z</time>
      </trkpt>
      <trkpt lat="49.33161" lon="-0.39176">
        <ele>4.6</ele>
        <time>2020-06-17T08:54:22Z</time>
      </trkpt>
      <trkpt lat="49.33159" lon="-0.39172">
        <ele>4.7</ele>
        <time>2020-06-17T08:54:23Z</time>
      </trkpt>
      <trkpt lat="49.33158" lon="-0.39171">
        <ele>4.7</ele>
        <time>2020-06-17T08:54:24Z</time>
      </trkpt>
      <trkpt lat="49.33156" lon="-0.39166">
        <ele>4.7</ele>
        <time>2020-06-17T08:54:25Z</time>
      </trkpt>
      <trkpt lat="49.33156" lon="-0.39164">
        <ele>4.7</ele>
        <time>2020-06-17T08:54:26Z</time>
      </trkpt>
      <trkpt lat="49.33155" lon="-0.39162">
        <ele>4.7</ele>
        <time>2020-06-17T08:54:27Z</time>
      </trkpt>
      <trkpt lat="49.33154" lon="-0.39161">
        <ele>4.7</ele>
        <time>2020-06-17T08:54:28Z</time>
      </trkpt>
      <trkpt lat="49.33153" lon="-0.3916">
        <ele>4.7</ele>
        <time>2020-06-17T08:54:29Z</time>
      </trkpt>
      <trkpt lat="49.33151" lon="-0.39156">
        <ele>4.7</ele>
        <time>2020-06-17T08:54:30Z</time>
      </trkpt>
      <trkpt lat="49.3315" lon="-0.39155">
        <ele>4.7</ele>
        <time>2020-06-17T08:54:31Z</time>
      </trkpt>
      <trkpt lat="49.3315" lon="-0.39153">
        <ele>4.7</ele>
        <time>2020-06-17T08:54:32Z</time>
      </trkpt>
      <trkpt lat="49.3315" lon="-0.39152">
        <ele>4.7</ele>
        <time>2020-06-17T08:54:33Z</time>
      </trkpt>
      <trkpt lat="49.3315" lon="-0.39151">
        <ele>4.7</ele>
        <time>2020-06-17T08:54:34Z</time>
      </trkpt>
      <trkpt lat="49.33149" lon="-0.39149">
        <ele>4.7</ele>
        <time>2020-06-17T08:54:35Z</time>
      </trkpt>
      <trkpt lat="49.33148" lon="-0.39149">
        <ele>4.7</ele>
        <time>2020-06-17T08:54:36Z</time>
      </trkpt>
      <trkpt lat="49.33147" lon="-0.39148">
        <ele>4.7</ele>
        <time>2020-06-17T08:54:37Z</time>
      </trkpt>
      <trkpt lat="49.33147" lon="-0.39147">
        <ele>4.7</ele>
        <time>2020-06-17T08:54:38Z</time>
      </trkpt>
      <trkpt lat="49.33147" lon="-0.39143">
        <ele>4.6</ele>
        <time>2020-06-17T08:54:39Z</time>
      </trkpt>
      <trkpt lat="49.33143" lon="-0.3913">
        <ele>4.6</ele>
        <time>2020-06-17T08:54:57Z</time>
      </trkpt>
      <trkpt lat="49.33143" lon="-0.3913">
        <ele>4.6</ele>
        <time>2020-06-17T08:54:58Z</time>
      </trkpt>
      <trkpt lat="49.33143" lon="-0.3913">
        <ele>4.6</ele>
        <time>2020-06-17T08:54:59Z</time>
      </trkpt>
      <trkpt lat="49.33143" lon="-0.3913">
        <ele>4.6</ele>
        <time>2020-06-17T08:55:00Z</time>
      </trkpt>
      <trkpt lat="49.33143" lon="-0.3913">
        <ele>4.6</ele>
        <time>2020-06-17T08:55:01Z</time>
      </trkpt>
      <trkpt lat="49.33143" lon="-0.3913">
        <ele>4.6</ele>
        <time>2020-06-17T08:55:02Z</time>
      </trkpt>
      <trkpt lat="49.33143" lon="-0.39129">
        <ele>4.6</ele>
        <time>2020-06-17T08:55:03Z</time>
      </trkpt>
      <trkpt lat="49.33143" lon="-0.39129">
        <ele>4.6</ele>
        <time>2020-06-17T08:55:04Z</time>
      </trkpt>
      <trkpt lat="49.33143" lon="-0.39128">
        <ele>4.6</ele>
        <time>2020-06-17T08:55:05Z</time>
      </trkpt>
      <trkpt lat="49.33143" lon="-0.39128">
        <ele>4.6</ele>
        <time>2020-06-17T08:55:06Z</time>
      </trkpt>
      <trkpt lat="49.33143" lon="-0.39128">
        <ele>4.6</ele>
        <time>2020-06-17T08:55:07Z</time>
      </trkpt>
      <trkpt lat="49.33142" lon="-0.39129">
        <ele>4.6</ele>
        <time>2020-06-17T08:55:08Z</time>
      </trkpt>
      <trkpt lat="49.33142" lon="-0.3913">
        <ele>4.6</ele>
        <time>2020-06-17T08:55:09Z</time>
      </trkpt>
      <trkpt lat="49.33144" lon="-0.39152">
        <ele>4.7</ele>
        <time>2020-06-17T08:55:28Z</time>
      </trkpt>
      <trkpt lat="49.33145" lon="-0.39153">
        <ele>4.7</ele>
        <time>2020-06-17T08:55:29Z</time>
      </trkpt>
      <trkpt lat="49.33146" lon="-0.39154">
        <ele>4.7</ele>
        <time>2020-06-17T08:55:30Z</time>
      </trkpt>
      <trkpt lat="49.33146" lon="-0.39155">
        <ele>4.7</ele>
        <time>2020-06-17T08:55:31Z</time>
      </trkpt>
      <trkpt lat="49.33146" lon="-0.39155">
        <ele>4.7</ele>
        <time>2020-06-17T08:55:32Z</time>
      </trkpt>
      <trkpt lat="49.33146" lon="-0.39156">
        <ele>4.7</ele>
        <time>2020-06-17T08:55:33Z</time>
      </trkpt>
      <trkpt lat="49.33146" lon="-0.39156">
        <ele>4.7</ele>
        <time>2020-06-17T08:55:34Z</time>
      </trkpt>
      <trkpt lat="49.33146" lon="-0.39157">
        <ele>4.7</ele>
        <time>2020-06-17T08:55:35Z</time>
      </trkpt>
      <trkpt lat="49.33147" lon="-0.39158">
        <ele>4.7</ele>
        <time>2020-06-17T08:55:36Z</time>
      </trkpt>
      <trkpt lat="49.33148" lon="-0.39159">
        <ele>4.7</ele>
        <time>2020-06-17T08:55:37Z</time>
      </trkpt>
      <trkpt lat="49.33148" lon="-0.3916">
        <ele>4.7</ele>
        <time>2020-06-17T08:55:38Z</time>
      </trkpt>
      <trkpt lat="49.33149" lon="-0.39162">
        <ele>4.7</ele>
        <time>2020-06-17T08:55:39Z</time>
      </trkpt>
      <trkpt lat="49.33149" lon="-0.39164">
        <ele>4.7</ele>
        <time>2020-06-17T08:55:40Z</time>
      </trkpt>
      <trkpt lat="49.3315" lon="-0.39164">
        <ele>4.7</ele>
        <time>2020-06-17T08:55:41Z</time>
      </trkpt>
      <trkpt lat="49.3315" lon="-0.39164">
        <ele>4.7</ele>
        <time>2020-06-17T08:55:42Z</time>
      </trkpt>
      <trkpt lat="49.33151" lon="-0.39165">
        <ele>4.7</ele>
        <time>2020-06-17T08:55:43Z</time>
      </trkpt>
      <trkpt lat="49.33151" lon="-0.39166">
        <ele>4.7</ele>
        <time>2020-06-17T08:55:44Z</time>
      </trkpt>
      <trkpt lat="49.33152" lon="-0.39166">
        <ele>4.7</ele>
        <time>2020-06-17T08:55:45Z</time>
      </trkpt>
      <trkpt lat="49.33145" lon="-0.3916">
        <ele>4.7</ele>
        <time>2020-06-17T08:57:14Z</time>
      </trkpt>
      <trkpt lat="49.33145" lon="-0.39157">
        <ele>4.7</ele>
        <time>2020-06-17T08:57:15Z</time>
      </trkpt>
      <trkpt lat="49.33146" lon="-0.39156">
        <ele>4.7</ele>
        <time>2020-06-17T08:57:16Z</time>
      </trkpt>
      <trkpt lat="49.33147" lon="-0.39157">
        <ele>4.7</ele>
        <time>2020-06-17T08:57:17Z</time>
      </trkpt>
      <trkpt lat="49.33148" lon="-0.39157">
        <ele>4.7</ele>
        <time>2020-06-17T08:57:18Z</time>
      </trkpt>
      <trkpt lat="49.33149" lon="-0.39158">
        <ele>4.7</ele>
        <time>2020-06-17T08:57:19Z</time>
      </trkpt>
      <trkpt lat="49.33149" lon="-0.39159">
        <ele>4.7</ele>
        <time>2020-06-17T08:57:20Z</time>
      </trkpt>
      <trkpt lat="49.33149" lon="-0.39158">
        <ele>4.7</ele>
        <time>2020-06-17T08:57:21Z</time>
      </trkpt>
      <trkpt lat="49.33149" lon="-0.39158">
        <ele>4.7</ele>
        <time>2020-06-17T08:57:22Z</time>
      </trkpt>
      <trkpt lat="49.3315" lon="-0.39158">
        <ele>4.7</ele>
        <time>2020-06-17T08:57:23Z</time>
      </trkpt>
      <trkpt lat="49.3315" lon="-0.39158">
        <ele>4.7</ele>
        <time>2020-06-17T08:57:24Z</time>
      </trkpt>
      <trkpt lat="49.33149" lon="-0.39158">
        <ele>4.7</ele>
        <time>2020-06-17T08:57:25Z</time>
      </trkpt>
      <trkpt lat="49.33149" lon="-0.39157">
        <ele>4.7</ele>
        <time>2020-06-17T08:57:26Z</time>
      </trkpt>
      <trkpt lat="49.33149" lon="-0.39155">
        <ele>4.7</ele>
        <time>2020-06-17T08:57:27Z</time>
      </trkpt>
      <trkpt lat="49.33149" lon="-0.39153">
        <ele>4.7</ele>
        <time>2020-06-17T08:57:28Z</time>
      </trkpt>
      <trkpt lat="49.33149" lon="-0.39152">
        <ele>4.7</ele>
        <time>2020-06-17T08:57:29Z</time>
      </trkpt>
      <trkpt lat="49.3315" lon="-0.3915">
        <ele>4.7</ele>
        <time>2020-06-17T08:57:30Z</time>
      </trkpt>
      <trkpt lat="49.33149" lon="-0.39148">
        <ele>4.7</ele>
        <time>2020-06-17T08:57:34Z</time>
      </trkpt>
      <trkpt lat="49.33149" lon="-0.39148">
        <ele>4.7</ele>
        <time>2020-06-17T08:57:35Z</time>
      </trkpt>
      <trkpt lat="49.33148" lon="-0.39148">
        <ele>4.7</ele>
        <time>2020-06-17T08:57:36Z</time>
      </trkpt>
      <trkpt lat="49.33148" lon="-0.39147">
        <ele>4.7</ele>
        <time>2020-06-17T08:57:37Z</time>
      </trkpt>
      <trkpt lat="49.33148" lon="-0.39144">
        <ele>4.7</ele>
        <time>2020-06-17T08:57:38Z</time>
      </trkpt>
      <trkpt lat="49.33148" lon="-0.39142">
        <ele>4.7</ele>
        <time>2020-06-17T08:57:39Z</time>
      </trkpt>
      <trkpt lat="49.33148" lon="-0.3914">
        <ele>4.7</ele>
        <time>2020-06-17T08:57:40Z</time>
      </trkpt>
      <trkpt lat="49.33148" lon="-0.39139">
        <ele>4.7</ele>
        <time>2020-06-17T08:57:41Z</time>
      </trkpt>
      <trkpt lat="49.33148" lon="-0.39138">
        <ele>4.7</ele>
        <time>2020-06-17T08:57:42Z</time>
      </trkpt>
      <trkpt lat="49.33149" lon="-0.39137">
        <ele>4.7</ele>
        <time>2020-06-17T08:57:43Z</time>
      </trkpt>
      <trkpt lat="49.33149" lon="-0.39136">
        <ele>4.7</ele>
        <time>2020-06-17T08:57:44Z</time>
      </trkpt>
      <trkpt lat="49.33149" lon="-0.39136">
        <ele>4.7</ele>
        <time>2020-06-17T08:57:45Z</time>
      </trkpt>
      <trkpt lat="49.3315" lon="-0.39135">
        <ele>4.7</ele>
        <time>2020-06-17T08:57:46Z</time>
      </trkpt>
      <trkpt lat="49.3315" lon="-0.39136">
        <ele>4.7</ele>
        <time>2020-06-17T08:57:47Z</time>
      </trkpt>
      <trkpt lat="49.33149" lon="-0.39136">
        <ele>4.7</ele>
        <time>2020-06-17T08:57:48Z</time>
      </trkpt>
      <trkpt lat="49.33147" lon="-0.39136">
        <ele>4.7</ele>
        <time>2020-06-17T08:59:07Z</time>
      </trkpt>
      <trkpt lat="49.33147" lon="-0.39136">
        <ele>4.7</ele>
        <time>2020-06-17T08:59:08Z</time>
      </trkpt>
      <trkpt lat="49.33147" lon="-0.39136">
        <ele>4.7</ele>
        <time>2020-06-17T08:59:09Z</time>
      </trkpt>
      <trkpt lat="49.33147" lon="-0.39136">
        <ele>4.7</ele>
        <time>2020-06-17T08:59:10Z</time>
      </trkpt>
      <trkpt lat="49.33147" lon="-0.39137">
        <ele>4.7</ele>
        <time>2020-06-17T08:59:11Z</time>
      </trkpt>
      <trkpt lat="49.33147" lon="-0.39137">
        <ele>4.7</ele>
        <time>2020-06-17T08:59:12Z</time>
      </trkpt>
      <trkpt lat="49.33147" lon="-0.39137">
        <ele>4.7</ele>
        <time>2020-06-17T08:59:13Z</time>
      </trkpt>
      <trkpt lat="49.33147" lon="-0.39137">
        <ele>4.7</ele>
        <time>2020-06-17T08:59:14Z</time>
      </trkpt>
      <trkpt lat="49.33146" lon="-0.39137">
        <ele>4.7</ele>
        <time>2020-06-17T08:59:15Z</time>
      </trkpt>
      <trkpt lat="49.33146" lon="-0.39137">
        <ele>4.7</ele>
        <time>2020-06-17T08:59:16Z</time>
      </trkpt>
      <trkpt lat="49.33146" lon="-0.39137">
        <ele>4.7</ele>
        <time>2020-06-17T08:59:17Z</time>
      </trkpt>
      <trkpt lat="49.33146" lon="-0.39137">
        <ele>4.7</ele>
        <time>2020-06-17T08:59:18Z</time>
      </trkpt>
      <trkpt lat="49.33146" lon="-0.39137">
        <ele>4.7</ele>
        <time>2020-06-17T08:59:19Z</time>
      </trkpt>
      <trkpt lat="49.33137" lon="-0.39135">
        <ele>4.7</ele>
        <time>2020-06-17T09:00:28Z</time>
      </trkpt>
      <trkpt lat="49.33137" lon="-0.39134">
        <ele>4.7</ele>
        <time>2020-06-17T09:00:29Z</time>
      </trkpt>
      <trkpt lat="49.33137" lon="-0.39134">
        <ele>4.7</ele>
        <time>2020-06-17T09:00:30Z</time>
      </trkpt>
      <trkpt lat="49.33136" lon="-0.39134">
        <ele>4.7</ele>
        <time>2020-06-17T09:00:31Z</time>
      </trkpt>
      <trkpt lat="49.33136" lon="-0.39134">
        <ele>4.7</ele>
        <time>2020-06-17T09:00:32Z</time>
      </trkpt>
      <trkpt lat="49.33135" lon="-0.39134">
        <ele>4.7</ele>
        <time>2020-06-17T09:00:33Z</time>
      </trkpt>
      <trkpt lat="49.33135" lon="-0.39134">
        <ele>4.7</ele>
        <time>2020-06-17T09:00:34Z</time>
      </trkpt>
      <trkpt lat="49.33135" lon="-0.39134">
        <ele>4.7</ele>
        <time>2020-06-17T09:00:35Z</time>
      </trkpt>
      <trkpt lat="49.33135" lon="-0.39133">
        <ele>4.7</ele>
        <time>2020-06-17T09:00:36Z</time>
      </trkpt>
      <trkpt lat="49.33136" lon="-0.39133">
        <ele>4.7</ele>
        <time>2020-06-17T09:00:37Z</time>
      </trkpt>
      <trkpt lat="49.33136" lon="-0.39132">
        <ele>4.7</ele>
        <time>2020-06-17T09:00:38Z</time>
      </trkpt>
      <trkpt lat="49.33137" lon="-0.39133">
        <ele>4.7</ele>
        <time>2020-06-17T09:00:39Z</time>
      </trkpt>
      <trkpt lat="49.33138" lon="-0.39133">
        <ele>4.7</ele>
        <time>2020-06-17T09:00:40Z</time>
      </trkpt>
      <trkpt lat="49.33138" lon="-0.39133">
        <ele>4.7</ele>
        <time>2020-06-17T09:00:41Z</time>
      </trkpt>
      <trkpt lat="49.33138" lon="-0.39134">
        <ele>4.7</ele>
        <time>2020-06-17T09:00:42Z</time>
      </trkpt>
      <trkpt lat="49.33139" lon="-0.39134">
        <ele>4.7</ele>
        <time>2020-06-17T09:00:43Z</time>
      </trkpt>
      <trkpt lat="49.33139" lon="-0.39133">
        <ele>4.7</ele>
        <time>2020-06-17T09:00:44Z</time>
      </trkpt>
      <trkpt lat="49.33139" lon="-0.39134">
        <ele>4.7</ele>
        <time>2020-06-17T09:00:45Z</time>
      </trkpt>
      <trkpt lat="49.33139" lon="-0.39134">
        <ele>4.7</ele>
        <time>2020-06-17T09:00:46Z</time>
      </trkpt>
      <trkpt lat="49.33139" lon="-0.39133">
        <ele>4.7</ele>
        <time>2020-06-17T09:00:47Z</time>
      </trkpt>
      <trkpt lat="49.3314" lon="-0.39133">
        <ele>4.7</ele>
        <time>2020-06-17T09:00:48Z</time>
      </trkpt>
      <trkpt lat="49.3314" lon="-0.39133">
        <ele>4.7</ele>
        <time>2020-06-17T09:00:49Z</time>
      </trkpt>
      <trkpt lat="49.3314" lon="-0.39133">
        <ele>4.7</ele>
        <time>2020-06-17T09:00:50Z</time>
      </trkpt>
      <trkpt lat="49.3314" lon="-0.39133">
        <ele>4.7</ele>
        <time>2020-06-17T09:00:51Z</time>
      </trkpt>
      <trkpt lat="49.3314" lon="-0.39133">
        <ele>4.7</ele>
        <time>2020-06-17T09:00:52Z</time>
      </trkpt>
      <trkpt lat="49.3314" lon="-0.39134">
        <ele>4.7</ele>
        <time>2020-06-17T09:00:53Z</time>
      </trkpt>
      <trkpt lat="49.3314" lon="-0.39134">
        <ele>4.7</ele>
        <time>2020-06-17T09:00:54Z</time>
      </trkpt>
      <trkpt lat="49.3314" lon="-0.39135">
        <ele>4.7</ele>
        <time>2020-06-17T09:00:55Z</time>
      </trkpt>
      <trkpt lat="49.33145" lon="-0.39133">
        <ele>4.7</ele>
        <time>2020-06-17T09:01:15Z</time>
      </trkpt>
      <trkpt lat="49.33145" lon="-0.39133">
        <ele>4.7</ele>
        <time>2020-06-17T09:01:16Z</time>
      </trkpt>
      <trkpt lat="49.33146" lon="-0.39133">
        <ele>4.7</ele>
        <time>2020-06-17T09:01:17Z</time>
      </trkpt>
      <trkpt lat="49.33146" lon="-0.39132">
        <ele>4.7</ele>
        <time>2020-06-17T09:01:18Z</time>
      </trkpt>
      <trkpt lat="49.33146" lon="-0.39132">
        <ele>4.7</ele>
        <time>2020-06-17T09:01:19Z</time>
      </trkpt>
      <trkpt lat="49.33146" lon="-0.39132">
        <ele>4.7</ele>
        <time>2020-06-17T09:01:20Z</time>
      </trkpt>
      <trkpt lat="49.33146" lon="-0.39133">
        <ele>4.7</ele>
        <time>2020-06-17T09:01:21Z</time>
      </trkpt>
      <trkpt lat="49.33146" lon="-0.39133">
        <ele>4.7</ele>
        <time>2020-06-17T09:01:22Z</time>
      </trkpt>
      <trkpt lat="49.33147" lon="-0.39133">
        <ele>4.7</ele>
        <time>2020-06-17T09:01:23Z</time>
      </trkpt>
      <trkpt lat="49.33147" lon="-0.39132">
        <ele>4.7</ele>
        <time>2020-06-17T09:01:24Z</time>
      </trkpt>
      <trkpt lat="49.33147" lon="-0.39132">
        <ele>4.7</ele>
        <time>2020-06-17T09:01:25Z</time>
      </trkpt>
      <trkpt lat="49.33146" lon="-0.39132">
        <ele>4.7</ele>
        <time>2020-06-17T09:01:26Z</time>
      </trkpt>
      <trkpt lat="49.33146" lon="-0.39133">
        <ele>4.7</ele>
        <time>2020-06-17T09:01:27Z</time>
      </trkpt>
      <trkpt lat="49.33146" lon="-0.39133">
        <ele>4.7</ele>
        <time>2020-06-17T09:01:28Z</time>
      </trkpt>
      <trkpt lat="49.33147" lon="-0.39133">
        <ele>4.7</ele>
        <time>2020-06-17T09:01:29Z</time>
      </trkpt>
      <trkpt lat="49.33147" lon="-0.39134">
        <ele>4.7</ele>
        <time>2020-06-17T09:01:30Z</time>
      </trkpt>
      <trkpt lat="49.33146" lon="-0.39134">
        <ele>4.7</ele>
        <time>2020-06-17T09:01:31Z</time>
      </trkpt>
      <trkpt lat="49.33146" lon="-0.39134">
        <ele>4.7</ele>
        <time>2020-06-17T09:01:32Z</time>
      </trkpt>
      <trkpt lat="49.33146" lon="-0.39134">
        <ele>4.7</ele>
        <time>2020-06-17T09:01:33Z</time>
      </trkpt>
      <trkpt lat="49.33145" lon="-0.39134">
        <ele>4.7</ele>
        <time>2020-06-17T09:01:34Z</time>
      </trkpt>
      <trkpt lat="49.33145" lon="-0.39134">
        <ele>4.7</ele>
        <time>2020-06-17T09:01:35Z</time>
      </trkpt>
      <trkpt lat="49.33145" lon="-0.39134">
        <ele>4.7</ele>
        <time>2020-06-17T09:01:36Z</time>
      </trkpt>
      <trkpt lat="49.33146" lon="-0.39134">
        <ele>4.7</ele>
        <time>2020-06-17T09:01:37Z</time>
      </trkpt>
      <trkpt lat="49.33146" lon="-0.39134">
        <ele>4.7</ele>
        <time>2020-06-17T09:01:38Z</time>
      </trkpt>
      <trkpt lat="49.33146" lon="-0.39134">
        <ele>4.7</ele>
        <time>2020-06-17T09:01:39Z</time>
      </trkpt>
      <trkpt lat="49.33146" lon="-0.39134">
        <ele>4.7</ele>
        <time>2020-06-17T09:01:40Z</time>
      </trkpt>
      <trkpt lat="49.33146" lon="-0.39134">
        <ele>4.7</ele>
        <time>2020-06-17T09:01:41Z</time>
      </trkpt>
      <trkpt lat="49.33146" lon="-0.39134">
        <ele>4.7</ele>
        <time>2020-06-17T09:01:42Z</time>
      </trkpt>
      <trkpt lat="49.33146" lon="-0.39134">
        <ele>4.7</ele>
        <time>2020-06-17T09:01:43Z</time>
      </trkpt>
      <trkpt lat="49.33146" lon="-0.39134">
        <ele>4.7</ele>
        <time>2020-06-17T09:01:44Z</time>
      </trkpt>
      <trkpt lat="49.33152" lon="-0.39136">
        <ele>4.7</ele>
        <time>2020-06-17T09:02:23Z</time>
      </trkpt>
      <trkpt lat="49.33152" lon="-0.39136">
        <ele>4.7</ele>
        <time>2020-06-17T09:02:24Z</time>
      </trkpt>
      <trkpt lat="49.33152" lon="-0.39136">
        <ele>4.7</ele>
        <time>2020-06-17T09:02:25Z</time>
      </trkpt>
      <trkpt lat="49.33152" lon="-0.39136">
        <ele>4.7</ele>
        <time>2020-06-17T09:02:26Z</time>
      </trkpt>
      <trkpt lat="49.33153" lon="-0.39136">
        <ele>4.7</ele>
        <time>2020-06-17T09:02:27Z</time>
      </trkpt>
      <trkpt lat="49.33153" lon="-0.39136">
        <ele>4.7</ele>
        <time>2020-06-17T09:02:28Z</time>
      </trkpt>
      <trkpt lat="49.33153" lon="-0.39136">
        <ele>4.7</ele>
        <time>2020-06-17T09:02:29Z</time>
      </trkpt>
      <trkpt lat="49.33154" lon="-0.39136">
        <ele>4.7</ele>
        <time>2020-06-17T09:02:30Z</time>
      </trkpt>
      <trkpt lat="49.33154" lon="-0.39136">
        <ele>4.7</ele>
        <time>2020-06-17T09:02:31Z</time>
      </trkpt>
      <trkpt lat="49.33154" lon="-0.39136">
        <ele>4.7</ele>
        <time>2020-06-17T09:02:32Z</time>
      </trkpt>
      <trkpt lat="49.33155" lon="-0.39135">
        <ele>4.7</ele>
        <time>2020-06-17T09:02:33Z</time>
      </trkpt>
      <trkpt lat="49.33154" lon="-0.39135">
        <ele>4.7</ele>
        <time>2020-06-17T09:02:34Z</time>
      </trkpt>
      <trkpt lat="49.33155" lon="-0.39136">
        <ele>4.7</ele>
        <time>2020-06-17T09:02:35Z</time>
      </trkpt>
      <trkpt lat="49.33154" lon="-0.39136">
        <ele>4.7</ele>
        <time>2020-06-17T09:02:36Z</time>
      </trkpt>
      <trkpt lat="49.33154" lon="-0.39135">
        <ele>4.7</ele>
        <time>2020-06-17T09:02:37Z</time>
      </trkpt>
      <trkpt lat="49.33155" lon="-0.39135">
        <ele>4.7</ele>
        <time>2020-06-17T09:02:38Z</time>
      </trkpt>
      <trkpt lat="49.33154" lon="-0.39134">
        <ele>4.7</ele>
        <time>2020-06-17T09:02:39Z</time>
      </trkpt>
      <trkpt lat="49.33154" lon="-0.39135">
        <ele>4.7</ele>
        <time>2020-06-17T09:02:40Z</time>
      </trkpt>
      <trkpt lat="49.33154" lon="-0.39135">
        <ele>4.7</ele>
        <time>2020-06-17T09:02:41Z</time>
      </trkpt>
      <trkpt lat="49.33153" lon="-0.39135">
        <ele>4.7</ele>
        <time>2020-06-17T09:02:42Z</time>
      </trkpt>
      <trkpt lat="49.33153" lon="-0.39135">
        <ele>4.7</ele>
        <time>2020-06-17T09:02:43Z</time>
      </trkpt>
      <trkpt lat="49.33154" lon="-0.39136">
        <ele>4.7</ele>
        <time>2020-06-17T09:02:44Z</time>
      </trkpt>
      <trkpt lat="49.33154" lon="-0.39136">
        <ele>4.7</ele>
        <time>2020-06-17T09:02:45Z</time>
      </trkpt>
      <trkpt lat="49.33155" lon="-0.39135">
        <ele>4.7</ele>
        <time>2020-06-17T09:02:46Z</time>
      </trkpt>
      <trkpt lat="49.33155" lon="-0.39135">
        <ele>4.7</ele>
        <time>2020-06-17T09:02:47Z</time>
      </trkpt>
      <trkpt lat="49.33155" lon="-0.39134">
        <ele>4.7</ele>
        <time>2020-06-17T09:02:48Z</time>
      </trkpt>
      <trkpt lat="49.33156" lon="-0.39134">
        <ele>4.7</ele>
        <time>2020-06-17T09:02:49Z</time>
      </trkpt>
      <trkpt lat="49.33155" lon="-0.39134">
        <ele>4.7</ele>
        <time>2020-06-17T09:02:50Z</time>
      </trkpt>
      <trkpt lat="49.33155" lon="-0.39133">
        <ele>4.7</ele>
        <time>2020-06-17T09:02:51Z</time>
      </trkpt>
      <trkpt lat="49.33155" lon="-0.39133">
        <ele>4.7</ele>
        <time>2020-06-17T09:02:52Z</time>
      </trkpt>
      <trkpt lat="49.33156" lon="-0.39133">
        <ele>4.7</ele>
        <time>2020-06-17T09:02:53Z</time>
      </trkpt>
      <trkpt lat="49.3315" lon="-0.39138">
        <ele>4.7</ele>
        <time>2020-06-17T09:03:47Z</time>
      </trkpt>
      <trkpt lat="49.3315" lon="-0.39138">
        <ele>4.7</ele>
        <time>2020-06-17T09:03:48Z</time>
      </trkpt>
      <trkpt lat="49.3315" lon="-0.39137">
        <ele>4.7</ele>
        <time>2020-06-17T09:03:49Z</time>
      </trkpt>
      <trkpt lat="49.33149" lon="-0.39136">
        <ele>4.7</ele>
        <time>2020-06-17T09:03:50Z</time>
      </trkpt>
      <trkpt lat="49.33148" lon="-0.39135">
        <ele>4.7</ele>
        <time>2020-06-17T09:03:51Z</time>
      </trkpt>
      <trkpt lat="49.33147" lon="-0.39135">
        <ele>4.7</ele>
        <time>2020-06-17T09:03:52Z</time>
      </trkpt>
      <trkpt lat="49.33146" lon="-0.39134">
        <ele>4.7</ele>
        <time>2020-06-17T09:03:53Z</time>
      </trkpt>
      <trkpt lat="49.33145" lon="-0.39133">
        <ele>4.7</ele>
        <time>2020-06-17T09:03:54Z</time>
      </trkpt>
      <trkpt lat="49.33144" lon="-0.39134">
        <ele>4.7</ele>
        <time>2020-06-17T09:03:55Z</time>
      </trkpt>
      <trkpt lat="49.33144" lon="-0.39135">
        <ele>4.7</ele>
        <time>2020-06-17T09:03:56Z</time>
      </trkpt>
      <trkpt lat="49.33144" lon="-0.39135">
        <ele>4.7</ele>
        <time>2020-06-17T09:03:57Z</time>
      </trkpt>
      <trkpt lat="49.33143" lon="-0.39136">
        <ele>4.7</ele>
        <time>2020-06-17T09:03:58Z</time>
      </trkpt>
      <trkpt lat="49.33143" lon="-0.39136">
        <ele>4.7</ele>
        <time>2020-06-17T09:03:59Z</time>
      </trkpt>
      <trkpt lat="49.33143" lon="-0.39136">
        <ele>4.7</ele>
        <time>2020-06-17T09:04:00Z</time>
      </trkpt>
      <trkpt lat="49.33143" lon="-0.39136">
        <ele>4.7</ele>
        <time>2020-06-17T09:04:01Z</time>
      </trkpt>
      <trkpt lat="49.33143" lon="-0.39136">
        <ele>4.7</ele>
        <time>2020-06-17T09:04:02Z</time>
      </trkpt>
      <trkpt lat="49.33143" lon="-0.39136">
        <ele>4.7</ele>
        <time>2020-06-17T09:04:03Z</time>
      </trkpt>
      <trkpt lat="49.33143" lon="-0.39136">
        <ele>4.7</ele>
        <time>2020-06-17T09:04:04Z</time>
      </trkpt>
      <trkpt lat="49.33143" lon="-0.39136">
        <ele>4.7</ele>
        <time>2020-06-17T09:04:05Z</time>
      </trkpt>
      <trkpt lat="49.33143" lon="-0.39135">
        <ele>4.7</ele>
        <time>2020-06-17T09:04:06Z</time>
      </trkpt>
      <trkpt lat="49.33151" lon="-0.39139">
        <ele>4.7</ele>
        <time>2020-06-17T09:04:31Z</time>
      </trkpt>
      <trkpt lat="49.33152" lon="-0.39139">
        <ele>4.7</ele>
        <time>2020-06-17T09:04:32Z</time>
      </trkpt>
      <trkpt lat="49.33152" lon="-0.3914">
        <ele>4.7</ele>
        <time>2020-06-17T09:04:33Z</time>
      </trkpt>
      <trkpt lat="49.33153" lon="-0.39141">
        <ele>4.7</ele>
        <time>2020-06-17T09:04:34Z</time>
      </trkpt>
      <trkpt lat="49.33152" lon="-0.39141">
        <ele>4.7</ele>
        <time>2020-06-17T09:04:35Z</time>
      </trkpt>
      <trkpt lat="49.33152" lon="-0.39141">
        <ele>4.7</ele>
        <time>2020-06-17T09:04:36Z</time>
      </trkpt>
      <trkpt lat="49.33152" lon="-0.39142">
        <ele>4.7</ele>
        <time>2020-06-17T09:04:37Z</time>
      </trkpt>
      <trkpt lat="49.33151" lon="-0.39142">
        <ele>4.7</ele>
        <time>2020-06-17T09:04:38Z</time>
      </trkpt>
      <trkpt lat="49.33151" lon="-0.39142">
        <ele>4.7</ele>
        <time>2020-06-17T09:04:39Z</time>
      </trkpt>
      <trkpt lat="49.33151" lon="-0.39142">
        <ele>4.7</ele>
        <time>2020-06-17T09:04:40Z</time>
      </trkpt>
      <trkpt lat="49.33151" lon="-0.39143">
        <ele>4.7</ele>
        <time>2020-06-17T09:04:41Z</time>
      </trkpt>
      <trkpt lat="49.33151" lon="-0.39143">
        <ele>4.7</ele>
        <time>2020-06-17T09:04:42Z</time>
      </trkpt>
      <trkpt lat="49.33151" lon="-0.39143">
        <ele>4.7</ele>
        <time>2020-06-17T09:04:43Z</time>
      </trkpt>
      <trkpt lat="49.33151" lon="-0.39144">
        <ele>4.7</ele>
        <time>2020-06-17T09:04:44Z</time>
      </trkpt>
      <trkpt lat="49.3315" lon="-0.39144">
        <ele>4.7</ele>
        <time>2020-06-17T09:04:45Z</time>
      </trkpt>
      <trkpt lat="49.3315" lon="-0.39144">
        <ele>4.7</ele>
        <time>2020-06-17T09:04:46Z</time>
      </trkpt>
      <trkpt lat="49.3315" lon="-0.39143">
        <ele>4.7</ele>
        <time>2020-06-17T09:04:47Z</time>
      </trkpt>
      <trkpt lat="49.3315" lon="-0.39143">
        <ele>4.7</ele>
        <time>2020-06-17T09:04:48Z</time>
      </trkpt>
      <trkpt lat="49.3315" lon="-0.39143">
        <ele>4.7</ele>
        <time>2020-06-17T09:04:49Z</time>
      </trkpt>
      <trkpt lat="49.3315" lon="-0.39143">
        <ele>4.7</ele>
        <time>2020-06-17T09:04:50Z</time>
      </trkpt>
      <trkpt lat="49.33149" lon="-0.39143">
        <ele>4.7</ele>
        <time>2020-06-17T09:04:51Z</time>
      </trkpt>
      <trkpt lat="49.33148" lon="-0.39142">
        <ele>4.7</ele>
        <time>2020-06-17T09:04:52Z</time>
      </trkpt>
      <trkpt lat="49.33148" lon="-0.39141">
        <ele>4.7</ele>
        <time>2020-06-17T09:04:53Z</time>
      </trkpt>
      <trkpt lat="49.33147" lon="-0.3914">
        <ele>4.7</ele>
        <time>2020-06-17T09:04:54Z</time>
      </trkpt>
      <trkpt lat="49.33147" lon="-0.39139">
        <ele>4.7</ele>
        <time>2020-06-17T09:04:55Z</time>
      </trkpt>
      <trkpt lat="49.33147" lon="-0.39139">
        <ele>4.7</ele>
        <time>2020-06-17T09:04:56Z</time>
      </trkpt>
      <trkpt lat="49.33147" lon="-0.39139">
        <ele>4.7</ele>
        <time>2020-06-17T09:04:57Z</time>
      </trkpt>
      <trkpt lat="49.33143" lon="-0.39139">
        <ele>4.7</ele>
        <time>2020-06-17T09:06:31Z</time>
      </trkpt>
      <trkpt lat="49.33144" lon="-0.39141">
        <ele>4.7</ele>
        <time>2020-06-17T09:06:32Z</time>
      </trkpt>
      <trkpt lat="49.33144" lon="-0.39142">
        <ele>4.7</ele>
        <time>2020-06-17T09:06:33Z</time>
      </trkpt>
      <trkpt lat="49.33144" lon="-0.39143">
        <ele>4.7</ele>
        <time>2020-06-17T09:06:34Z</time>
      </trkpt>
      <trkpt lat="49.33145" lon="-0.39144">
        <ele>4.7</ele>
        <time>2020-06-17T09:06:35Z</time>
      </trkpt>
      <trkpt lat="49.33145" lon="-0.39146">
        <ele>4.7</ele>
        <time>2020-06-17T09:06:36Z</time>
      </trkpt>
      <trkpt lat="49.33146" lon="-0.39148">
        <ele>4.7</ele>
        <time>2020-06-17T09:06:37Z</time>
      </trkpt>
      <trkpt lat="49.33147" lon="-0.3915">
        <ele>4.7</ele>
        <time>2020-06-17T09:06:38Z</time>
      </trkpt>
      <trkpt lat="49.33147" lon="-0.39152">
        <ele>4.7</ele>
        <time>2020-06-17T09:06:39Z</time>
      </trkpt>
      <trkpt lat="49.33148" lon="-0.39154">
        <ele>4.7</ele>
        <time>2020-06-17T09:06:40Z</time>
      </trkpt>
      <trkpt lat="49.33148" lon="-0.39155">
        <ele>4.7</ele>
        <time>2020-06-17T09:06:41Z</time>
      </trkpt>
      <trkpt lat="49.33149" lon="-0.39157">
        <ele>4.7</ele>
        <time>2020-06-17T09:06:42Z</time>
      </trkpt>
      <trkpt lat="49.3315" lon="-0.39158">
        <ele>4.7</ele>
        <time>2020-06-17T09:06:43Z</time>
      </trkpt>
      <trkpt lat="49.3315" lon="-0.39159">
        <ele>4.7</ele>
        <time>2020-06-17T09:06:44Z</time>
      </trkpt>
      <trkpt lat="49.33151" lon="-0.3916">
        <ele>4.7</ele>
        <time>2020-06-17T09:06:45Z</time>
      </trkpt>
      <trkpt lat="49.33151" lon="-0.39162">
        <ele>4.7</ele>
        <time>2020-06-17T09:06:46Z</time>
      </trkpt>
      <trkpt lat="49.33151" lon="-0.39164">
        <ele>4.7</ele>
        <time>2020-06-17T09:06:47Z</time>
      </trkpt>
      <trkpt lat="49.33151" lon="-0.39166">
        <ele>4.7</ele>
        <time>2020-06-17T09:06:48Z</time>
      </trkpt>
      <trkpt lat="49.33151" lon="-0.39167">
        <ele>4.7</ele>
        <time>2020-06-17T09:06:49Z</time>
      </trkpt>
      <trkpt lat="49.33151" lon="-0.39168">
        <ele>4.7</ele>
        <time>2020-06-17T09:06:50Z</time>
      </trkpt>
      <trkpt lat="49.33151" lon="-0.39168">
        <ele>4.7</ele>
        <time>2020-06-17T09:06:51Z</time>
      </trkpt>
      <trkpt lat="49.33151" lon="-0.39168">
        <ele>4.7</ele>
        <time>2020-06-17T09:06:52Z</time>
      </trkpt>
      <trkpt lat="49.3315" lon="-0.39169">
        <ele>4.7</ele>
        <time>2020-06-17T09:06:53Z</time>
      </trkpt>
      <trkpt lat="49.33149" lon="-0.3917">
        <ele>4.7</ele>
        <time>2020-06-17T09:06:54Z</time>
      </trkpt>
      <trkpt lat="49.33146" lon="-0.39176">
        <ele>5.2</ele>
        <time>2020-06-17T09:07:06Z</time>
      </trkpt>
      <trkpt lat="49.33145" lon="-0.39178">
        <ele>5.2</ele>
        <time>2020-06-17T09:07:07Z</time>
      </trkpt>
      <trkpt lat="49.33144" lon="-0.39178">
        <ele>5.2</ele>
        <time>2020-06-17T09:07:08Z</time>
      </trkpt>
      <trkpt lat="49.33144" lon="-0.39178">
        <ele>5.2</ele>
        <time>2020-06-17T09:07:09Z</time>
      </trkpt>
      <trkpt lat="49.33143" lon="-0.39178">
        <ele>5.2</ele>
        <time>2020-06-17T09:07:10Z</time>
      </trkpt>
      <trkpt lat="49.33143" lon="-0.39178">
        <ele>5.2</ele>
        <time>2020-06-17T09:07:11Z</time>
      </trkpt>
      <trkpt lat="49.33143" lon="-0.39178">
        <ele>5.2</ele>
        <time>2020-06-17T09:07:12Z</time>
      </trkpt>
      <trkpt lat="49.33143" lon="-0.39177">
        <ele>5.2</ele>
        <time>2020-06-17T09:07:13Z</time>
      </trkpt>
      <trkpt lat="49.33143" lon="-0.39177">
        <ele>5.2</ele>
        <time>2020-06-17T09:07:14Z</time>
      </trkpt>
      <trkpt lat="49.33143" lon="-0.39177">
        <ele>5.2</ele>
        <time>2020-06-17T09:07:15Z</time>
      </trkpt>
      <trkpt lat="49.33143" lon="-0.39176">
        <ele>5.2</ele>
        <time>2020-06-17T09:07:16Z</time>
      </trkpt>
      <trkpt lat="49.33144" lon="-0.39176">
        <ele>5.2</ele>
        <time>2020-06-17T09:07:17Z</time>
      </trkpt>
      <trkpt lat="49.33144" lon="-0.39177">
        <ele>5.2</ele>
        <time>2020-06-17T09:07:18Z</time>
      </trkpt>
      <trkpt lat="49.33145" lon="-0.39178">
        <ele>5.2</ele>
        <time>2020-06-17T09:07:19Z</time>
      </trkpt>
      <trkpt lat="49.33145" lon="-0.39178">
        <ele>5.2</ele>
        <time>2020-06-17T09:07:20Z</time>
      </trkpt>
      <trkpt lat="49.33145" lon="-0.39178">
        <ele>5.2</ele>
        <time>2020-06-17T09:07:21Z</time>
      </trkpt>
      <trkpt lat="49.33145" lon="-0.39179">
        <ele>5.3</ele>
        <time>2020-06-17T09:07:22Z</time>
      </trkpt>
      <trkpt lat="49.33146" lon="-0.39179">
        <ele>5.3</ele>
        <time>2020-06-17T09:07:23Z</time>
      </trkpt>
      <trkpt lat="49.33146" lon="-0.39179">
        <ele>5.3</ele>
        <time>2020-06-17T09:07:24Z</time>
      </trkpt>
      <trkpt lat="49.33146" lon="-0.39179">
        <ele>5.3</ele>
        <time>2020-06-17T09:07:25Z</time>
      </trkpt>
      <trkpt lat="49.33147" lon="-0.39179">
        <ele>5.3</ele>
        <time>2020-06-17T09:07:26Z</time>
      </trkpt>
      <trkpt lat="49.33147" lon="-0.39179">
        <ele>5.3</ele>
        <time>2020-06-17T09:07:27Z</time>
      </trkpt>
      <trkpt lat="49.33148" lon="-0.3918">
        <ele>5.3</ele>
        <time>2020-06-17T09:07:28Z</time>
      </trkpt>
      <trkpt lat="49.33148" lon="-0.3918">
        <ele>5.3</ele>
        <time>2020-06-17T09:07:29Z</time>
      </trkpt>
      <trkpt lat="49.33149" lon="-0.3918">
        <ele>5.3</ele>
        <time>2020-06-17T09:07:30Z</time>
      </trkpt>
      <trkpt lat="49.33149" lon="-0.3918">
        <ele>5.3</ele>
        <time>2020-06-17T09:07:31Z</time>
      </trkpt>
      <trkpt lat="49.33149" lon="-0.3918">
        <ele>5.3</ele>
        <time>2020-06-17T09:07:32Z</time>
      </trkpt>
      <trkpt lat="49.33149" lon="-0.3918">
        <ele>5.3</ele>
        <time>2020-06-17T09:07:33Z</time>
      </trkpt>
      <trkpt lat="49.33149" lon="-0.3918">
        <ele>5.3</ele>
        <time>2020-06-17T09:07:34Z</time>
      </trkpt>
      <trkpt lat="49.33149" lon="-0.3918">
        <ele>5.3</ele>
        <time>2020-06-17T09:07:35Z</time>
      </trkpt>
      <trkpt lat="49.33149" lon="-0.3918">
        <ele>5.3</ele>
        <time>2020-06-17T09:07:36Z</time>
      </trkpt>
      <trkpt lat="49.33149" lon="-0.3918">
        <ele>5.3</ele>
        <time>2020-06-17T09:07:37Z</time>
      </trkpt>
      <trkpt lat="49.33149" lon="-0.3918">
        <ele>5.3</ele>
        <time>2020-06-17T09:07:38Z</time>
      </trkpt>
      <trkpt lat="49.33161" lon="-0.39162">
        <ele>5.3</ele>
        <time>2020-06-17T09:11:11Z</time>
      </trkpt>
      <trkpt lat="49.33162" lon="-0.39163">
        <ele>5.3</ele>
        <time>2020-06-17T09:11:12Z</time>
      </trkpt>
      <trkpt lat="49.33163" lon="-0.39164">
        <ele>5.3</ele>
        <time>2020-06-17T09:11:13Z</time>
      </trkpt>
      <trkpt lat="49.33163" lon="-0.39164">
        <ele>5.3</ele>
        <time>2020-06-17T09:11:14Z</time>
      </trkpt>
      <trkpt lat="49.33163" lon="-0.39164">
        <ele>5.3</ele>
        <time>2020-06-17T09:11:15Z</time>
      </trkpt>
      <trkpt lat="49.33163" lon="-0.39164">
        <ele>5.3</ele>
        <time>2020-06-17T09:11:16Z</time>
      </trkpt>
      <trkpt lat="49.33163" lon="-0.39164">
        <ele>5.3</ele>
        <time>2020-06-17T09:11:17Z</time>
      </trkpt>
      <trkpt lat="49.33164" lon="-0.39163">
        <ele>5.3</ele>
        <time>2020-06-17T09:11:18Z</time>
      </trkpt>
      <trkpt lat="49.33164" lon="-0.39163">
        <ele>5.3</ele>
        <time>2020-06-17T09:11:19Z</time>
      </trkpt>
      <trkpt lat="49.33164" lon="-0.39163">
        <ele>5.3</ele>
        <time>2020-06-17T09:11:20Z</time>
      </trkpt>
      <trkpt lat="49.33164" lon="-0.39163">
        <ele>5.3</ele>
        <time>2020-06-17T09:11:21Z</time>
      </trkpt>
      <trkpt lat="49.33164" lon="-0.39163">
        <ele>5.3</ele>
        <time>2020-06-17T09:11:22Z</time>
      </trkpt>
      <trkpt lat="49.33164" lon="-0.39162">
        <ele>5.3</ele>
        <time>2020-06-17T09:11:23Z</time>
      </trkpt>
      <trkpt lat="49.33164" lon="-0.39162">
        <ele>5.3</ele>
        <time>2020-06-17T09:11:24Z</time>
      </trkpt>
      <trkpt lat="49.33164" lon="-0.39162">
        <ele>5.3</ele>
        <time>2020-06-17T09:11:25Z</time>
      </trkpt>
      <trkpt lat="49.33164" lon="-0.39162">
        <ele>5.3</ele>
        <time>2020-06-17T09:11:26Z</time>
      </trkpt>
      <trkpt lat="49.33165" lon="-0.39161">
        <ele>5.3</ele>
        <time>2020-06-17T09:11:27Z</time>
      </trkpt>
      <trkpt lat="49.33164" lon="-0.3916">
        <ele>5.3</ele>
        <time>2020-06-17T09:11:28Z</time>
      </trkpt>
      <trkpt lat="49.33164" lon="-0.3916">
        <ele>5.3</ele>
        <time>2020-06-17T09:11:29Z</time>
      </trkpt>
      <trkpt lat="49.33164" lon="-0.3916">
        <ele>5.3</ele>
        <time>2020-06-17T09:11:30Z</time>
      </trkpt>
      <trkpt lat="49.33164" lon="-0.3916">
        <ele>5.3</ele>
        <time>2020-06-17T09:11:31Z</time>
      </trkpt>
      <trkpt lat="49.33164" lon="-0.39161">
        <ele>5.3</ele>
        <time>2020-06-17T09:11:32Z</time>
      </trkpt>
      <trkpt lat="49.33164" lon="-0.39162">
        <ele>5.3</ele>
        <time>2020-06-17T09:11:33Z</time>
      </trkpt>
      <trkpt lat="49.33165" lon="-0.39163">
        <ele>5.3</ele>
        <time>2020-06-17T09:11:34Z</time>
      </trkpt>
      <trkpt lat="49.33165" lon="-0.39164">
        <ele>5.3</ele>
        <time>2020-06-17T09:11:35Z</time>
      </trkpt>
      <trkpt lat="49.33165" lon="-0.39166">
        <ele>5.3</ele>
        <time>2020-06-17T09:11:36Z</time>
      </trkpt>
      <trkpt lat="49.33164" lon="-0.39166">
        <ele>5.3</ele>
        <time>2020-06-17T09:11:37Z</time>
      </trkpt>
      <trkpt lat="49.33164" lon="-0.39166">
        <ele>5.3</ele>
        <time>2020-06-17T09:11:38Z</time>
      </trkpt>
      <trkpt lat="49.33164" lon="-0.39167">
        <ele>5.3</ele>
        <time>2020-06-17T09:11:39Z</time>
      </trkpt>
      <trkpt lat="49.33164" lon="-0.39167">
        <ele>5.3</ele>
        <time>2020-06-17T09:11:40Z</time>
      </trkpt>
      <trkpt lat="49.33164" lon="-0.39167">
        <ele>5.3</ele>
        <time>2020-06-17T09:11:41Z</time>
      </trkpt>
      <trkpt lat="49.33163" lon="-0.39167">
        <ele>5.3</ele>
        <time>2020-06-17T09:11:42Z</time>
      </trkpt>
      <trkpt lat="49.33162" lon="-0.39167">
        <ele>5.3</ele>
        <time>2020-06-17T09:11:43Z</time>
      </trkpt>
      <trkpt lat="49.33162" lon="-0.39167">
        <ele>5.3</ele>
        <time>2020-06-17T09:11:44Z</time>
      </trkpt>
      <trkpt lat="49.33162" lon="-0.39168">
        <ele>5.3</ele>
        <time>2020-06-17T09:11:45Z</time>
      </trkpt>
      <trkpt lat="49.33161" lon="-0.39169">
        <ele>5.3</ele>
        <time>2020-06-17T09:11:46Z</time>
      </trkpt>
      <trkpt lat="49.33161" lon="-0.39168">
        <ele>5.3</ele>
        <time>2020-06-17T09:11:47Z</time>
      </trkpt>
      <trkpt lat="49.33153" lon="-0.39159">
        <ele>5.3</ele>
        <time>2020-06-17T09:11:57Z</time>
      </trkpt>
      <trkpt lat="49.33152" lon="-0.39157">
        <ele>5.3</ele>
        <time>2020-06-17T09:11:58Z</time>
      </trkpt>
      <trkpt lat="49.33151" lon="-0.39155">
        <ele>5.3</ele>
        <time>2020-06-17T09:11:59Z</time>
      </trkpt>
      <trkpt lat="49.3315" lon="-0.39153">
        <ele>5.3</ele>
        <time>2020-06-17T09:12:00Z</time>
      </trkpt>
      <trkpt lat="49.33149" lon="-0.39151">
        <ele>5.3</ele>
        <time>2020-06-17T09:12:01Z</time>
      </trkpt>
      <trkpt lat="49.33148" lon="-0.3915">
        <ele>5.3</ele>
        <time>2020-06-17T09:12:02Z</time>
      </trkpt>
      <trkpt lat="49.33147" lon="-0.39149">
        <ele>5.3</ele>
        <time>2020-06-17T09:12:03Z</time>
      </trkpt>
      <trkpt lat="49.33146" lon="-0.39147">
        <ele>5.3</ele>
        <time>2020-06-17T09:12:04Z</time>
      </trkpt>
      <trkpt lat="49.33145" lon="-0.39144">
        <ele>5.3</ele>
        <time>2020-06-17T09:12:05Z</time>
      </trkpt>
      <trkpt lat="49.33144" lon="-0.39143">
        <ele>5.3</ele>
        <time>2020-06-17T09:12:06Z</time>
      </trkpt>
      <trkpt lat="49.33144" lon="-0.39142">
        <ele>5.3</ele>
        <time>2020-06-17T09:12:07Z</time>
      </trkpt>
      <trkpt lat="49.33143" lon="-0.3914">
        <ele>5.3</ele>
        <time>2020-06-17T09:12:08Z</time>
      </trkpt>
      <trkpt lat="49.33142" lon="-0.39138">
        <ele>5.3</ele>
        <time>2020-06-17T09:12:09Z</time>
      </trkpt>
      <trkpt lat="49.33141" lon="-0.39137">
        <ele>5.3</ele>
        <time>2020-06-17T09:12:10Z</time>
      </trkpt>
      <trkpt lat="49.33141" lon="-0.39136">
        <ele>5.3</ele>
        <time>2020-06-17T09:12:11Z</time>
      </trkpt>
      <trkpt lat="49.3314" lon="-0.39134">
        <ele>5.3</ele>
        <time>2020-06-17T09:12:12Z</time>
      </trkpt>
      <trkpt lat="49.33139" lon="-0.39133">
        <ele>5.3</ele>
        <time>2020-06-17T09:12:13Z</time>
      </trkpt>
      <trkpt lat="49.33139" lon="-0.39132">
        <ele>5.3</ele>
        <time>2020-06-17T09:12:14Z</time>
      </trkpt>
      <trkpt lat="49.33139" lon="-0.39132">
        <ele>5.3</ele>
        <time>2020-06-17T09:12:15Z</time>
      </trkpt>
      <trkpt lat="49.33139" lon="-0.39131">
        <ele>5.3</ele>
        <time>2020-06-17T09:12:16Z</time>
      </trkpt>
      <trkpt lat="49.33139" lon="-0.39132">
        <ele>5.3</ele>
        <time>2020-06-17T09:12:17Z</time>
      </trkpt>
      <trkpt lat="49.3314" lon="-0.39132">
        <ele>5.3</ele>
        <time>2020-06-17T09:12:18Z</time>
      </trkpt>
      <trkpt lat="49.3314" lon="-0.39133">
        <ele>5.3</ele>
        <time>2020-06-17T09:12:19Z</time>
      </trkpt>
      <trkpt lat="49.33142" lon="-0.39134">
        <ele>5.3</ele>
        <time>2020-06-17T09:12:20Z</time>
      </trkpt>
      <trkpt lat="49.33142" lon="-0.39135">
        <ele>5.3</ele>
        <time>2020-06-17T09:12:21Z</time>
      </trkpt>
      <trkpt lat="49.33143" lon="-0.39136">
        <ele>5.3</ele>
        <time>2020-06-17T09:12:22Z</time>
      </trkpt>
      <trkpt lat="49.33143" lon="-0.39136">
        <ele>5.3</ele>
        <time>2020-06-17T09:12:23Z</time>
      </trkpt>
      <trkpt lat="49.33143" lon="-0.39137">
        <ele>5.3</ele>
        <time>2020-06-17T09:12:24Z</time>
      </trkpt>
      <trkpt lat="49.33143" lon="-0.39137">
        <ele>5.3</ele>
        <time>2020-06-17T09:12:25Z</time>
      </trkpt>
      <trkpt lat="49.33144" lon="-0.39137">
        <ele>5.3</ele>
        <time>2020-06-17T09:12:26Z</time>
      </trkpt>
      <trkpt lat="49.33143" lon="-0.39137">
        <ele>5.3</ele>
        <time>2020-06-17T09:12:27Z</time>
      </trkpt>
      <trkpt lat="49.33143" lon="-0.39137">
        <ele>5.3</ele>
        <time>2020-06-17T09:12:28Z</time>
      </trkpt>
      <trkpt lat="49.33143" lon="-0.39137">
        <ele>5.3</ele>
        <time>2020-06-17T09:12:29Z</time>
      </trkpt>
      <trkpt lat="49.33143" lon="-0.39137">
        <ele>5.3</ele>
        <time>2020-06-17T09:12:30Z</time>
      </trkpt>
      <trkpt lat="49.33143" lon="-0.39137">
        <ele>5.3</ele>
        <time>2020-06-17T09:12:31Z</time>
      </trkpt>
      <trkpt lat="49.33144" lon="-0.39137">
        <ele>5.3</ele>
        <time>2020-06-17T09:12:32Z</time>
      </trkpt>
      <trkpt lat="49.33145" lon="-0.39136">
        <ele>5.3</ele>
        <time>2020-06-17T09:12:33Z</time>
      </trkpt>
      <trkpt lat="49.33145" lon="-0.39136">
        <ele>5.3</ele>
        <time>2020-06-17T09:12:34Z</time>
      </trkpt>
      <trkpt lat="49.33145" lon="-0.39136">
        <ele>5.3</ele>
        <time>2020-06-17T09:12:35Z</time>
      </trkpt>
      <trkpt lat="49.33145" lon="-0.39136">
        <ele>5.3</ele>
        <time>2020-06-17T09:12:36Z</time>
      </trkpt>
      <trkpt lat="49.33145" lon="-0.39136">
        <ele>5.3</ele>
        <time>2020-06-17T09:12:37Z</time>
      </trkpt>
      <trkpt lat="49.33145" lon="-0.39136">
        <ele>5.3</ele>
        <time>2020-06-17T09:12:38Z</time>
      </trkpt>
      <trkpt lat="49.33145" lon="-0.39136">
        <ele>5.3</ele>
        <time>2020-06-17T09:12:39Z</time>
      </trkpt>
      <trkpt lat="49.33145" lon="-0.39137">
        <ele>5.3</ele>
        <time>2020-06-17T09:12:40Z</time>
      </trkpt>
      <trkpt lat="49.33145" lon="-0.39137">
        <ele>5.3</ele>
        <time>2020-06-17T09:12:41Z</time>
      </trkpt>
      <trkpt lat="49.33145" lon="-0.39137">
        <ele>5.3</ele>
        <time>2020-06-17T09:12:42Z</time>
      </trkpt>
      <trkpt lat="49.33145" lon="-0.39137">
        <ele>5.3</ele>
        <time>2020-06-17T09:12:43Z</time>
      </trkpt>
      <trkpt lat="49.33144" lon="-0.39137">
        <ele>5.3</ele>
        <time>2020-06-17T09:12:44Z</time>
      </trkpt>
      <trkpt lat="49.33144" lon="-0.39136">
        <ele>5.3</ele>
        <time>2020-06-17T09:12:45Z</time>
      </trkpt>
      <trkpt lat="49.33144" lon="-0.39136">
        <ele>5.3</ele>
        <time>2020-06-17T09:12:46Z</time>
      </trkpt>
      <trkpt lat="49.33143" lon="-0.39137">
        <ele>5.3</ele>
        <time>2020-06-17T09:12:47Z</time>
      </trkpt>
      <trkpt lat="49.33144" lon="-0.39137">
        <ele>5.3</ele>
        <time>2020-06-17T09:12:48Z</time>
      </trkpt>
      <trkpt lat="49.33143" lon="-0.39137">
        <ele>5.3</ele>
        <time>2020-06-17T09:12:49Z</time>
      </trkpt>
      <trkpt lat="49.33143" lon="-0.39138">
        <ele>5.3</ele>
        <time>2020-06-17T09:12:50Z</time>
      </trkpt>
      <trkpt lat="49.33143" lon="-0.39138">
        <ele>5.3</ele>
        <time>2020-06-17T09:12:51Z</time>
      </trkpt>
      <trkpt lat="49.33143" lon="-0.39137">
        <ele>5.3</ele>
        <time>2020-06-17T09:12:52Z</time>
      </trkpt>
      <trkpt lat="49.33143" lon="-0.39137">
        <ele>5.3</ele>
        <time>2020-06-17T09:12:53Z</time>
      </trkpt>
      <trkpt lat="49.33143" lon="-0.39138">
        <ele>5.3</ele>
        <time>2020-06-17T09:12:54Z</time>
      </trkpt>
      <trkpt lat="49.33142" lon="-0.39138">
        <ele>5.3</ele>
        <time>2020-06-17T09:12:55Z</time>
      </trkpt>
      <trkpt lat="49.33142" lon="-0.39138">
        <ele>5.3</ele>
        <time>2020-06-17T09:12:56Z</time>
      </trkpt>
      <trkpt lat="49.33141" lon="-0.39137">
        <ele>5.3</ele>
        <time>2020-06-17T09:12:57Z</time>
      </trkpt>
      <trkpt lat="49.33141" lon="-0.39137">
        <ele>5.3</ele>
        <time>2020-06-17T09:12:58Z</time>
      </trkpt>
      <trkpt lat="49.3314" lon="-0.39136">
        <ele>5.3</ele>
        <time>2020-06-17T09:12:59Z</time>
      </trkpt>
      <trkpt lat="49.3314" lon="-0.39136">
        <ele>5.3</ele>
        <time>2020-06-17T09:13:00Z</time>
      </trkpt>
      <trkpt lat="49.3314" lon="-0.39135">
        <ele>5.3</ele>
        <time>2020-06-17T09:13:01Z</time>
      </trkpt>
      <trkpt lat="49.33139" lon="-0.39134">
        <ele>5.3</ele>
        <time>2020-06-17T09:13:02Z</time>
      </trkpt>
      <trkpt lat="49.33138" lon="-0.39135">
        <ele>5.3</ele>
        <time>2020-06-17T09:13:03Z</time>
      </trkpt>
      <trkpt lat="49.33137" lon="-0.39135">
        <ele>5.3</ele>
        <time>2020-06-17T09:13:04Z</time>
      </trkpt>
      <trkpt lat="49.33137" lon="-0.39135">
        <ele>5.3</ele>
        <time>2020-06-17T09:13:05Z</time>
      </trkpt>
      <trkpt lat="49.33138" lon="-0.39135">
        <ele>5.3</ele>
        <time>2020-06-17T09:13:06Z</time>
      </trkpt>
      <trkpt lat="49.33138" lon="-0.39135">
        <ele>5.3</ele>
        <time>2020-06-17T09:13:07Z</time>
      </trkpt>
      <trkpt lat="49.33138" lon="-0.39134">
        <ele>5.3</ele>
        <time>2020-06-17T09:13:08Z</time>
      </trkpt>
      <trkpt lat="49.33138" lon="-0.39133">
        <ele>5.3</ele>
        <time>2020-06-17T09:13:09Z</time>
      </trkpt>
      <trkpt lat="49.33138" lon="-0.39133">
        <ele>5.3</ele>
        <time>2020-06-17T09:13:10Z</time>
      </trkpt>
      <trkpt lat="49.33137" lon="-0.39132">
        <ele>5.3</ele>
        <time>2020-06-17T09:13:11Z</time>
      </trkpt>
      <trkpt lat="49.33136" lon="-0.39132">
        <ele>5.3</ele>
        <time>2020-06-17T09:13:12Z</time>
      </trkpt>
      <trkpt lat="49.33135" lon="-0.39133">
        <ele>5.3</ele>
        <time>2020-06-17T09:13:13Z</time>
      </trkpt>
      <trkpt lat="49.33135" lon="-0.39133">
        <ele>5.5</ele>
        <time>2020-06-17T09:13:14Z</time>
      </trkpt>
      <trkpt lat="49.33134" lon="-0.39134">
        <ele>5.5</ele>
        <time>2020-06-17T09:13:15Z</time>
      </trkpt>
      <trkpt lat="49.33134" lon="-0.39135">
        <ele>5.5</ele>
        <time>2020-06-17T09:13:16Z</time>
      </trkpt>
      <trkpt lat="49.33134" lon="-0.39135">
        <ele>5.5</ele>
        <time>2020-06-17T09:13:17Z</time>
      </trkpt>
      <trkpt lat="49.33134" lon="-0.39136">
        <ele>5.5</ele>
        <time>2020-06-17T09:13:18Z</time>
      </trkpt>
      <trkpt lat="49.33133" lon="-0.39136">
        <ele>5.5</ele>
        <time>2020-06-17T09:13:19Z</time>
      </trkpt>
      <trkpt lat="49.33134" lon="-0.39137">
        <ele>5.5</ele>
        <time>2020-06-17T09:13:20Z</time>
      </trkpt>
      <trkpt lat="49.33134" lon="-0.39137">
        <ele>5.5</ele>
        <time>2020-06-17T09:13:21Z</time>
      </trkpt>
      <trkpt lat="49.33134" lon="-0.39137">
        <ele>5.5</ele>
        <time>2020-06-17T09:13:22Z</time>
      </trkpt>
      <trkpt lat="49.33134" lon="-0.39137">
        <ele>5.5</ele>
        <time>2020-06-17T09:13:23Z</time>
      </trkpt>
      <trkpt lat="49.33134" lon="-0.39136">
        <ele>5.5</ele>
        <time>2020-06-17T09:13:24Z</time>
      </trkpt>
      <trkpt lat="49.33135" lon="-0.39136">
        <ele>5.5</ele>
        <time>2020-06-17T09:13:25Z</time>
      </trkpt>
      <trkpt lat="49.33135" lon="-0.39135">
        <ele>5.5</ele>
        <time>2020-06-17T09:13:26Z</time>
      </trkpt>
      <trkpt lat="49.33135" lon="-0.39135">
        <ele>5.5</ele>
        <time>2020-06-17T09:13:27Z</time>
      </trkpt>
      <trkpt lat="49.33135" lon="-0.39135">
        <ele>5.5</ele>
        <time>2020-06-17T09:13:28Z</time>
      </trkpt>
      <trkpt lat="49.33136" lon="-0.39135">
        <ele>5.3</ele>
        <time>2020-06-17T09:13:29Z</time>
      </trkpt>
      <trkpt lat="49.33137" lon="-0.39135">
        <ele>5.3</ele>
        <time>2020-06-17T09:13:30Z</time>
      </trkpt>
      <trkpt lat="49.33137" lon="-0.39135">
        <ele>5.3</ele>
        <time>2020-06-17T09:13:31Z</time>
      </trkpt>
      <trkpt lat="49.33131" lon="-0.39137">
        <ele>5.7</ele>
        <time>2020-06-17T09:15:58Z</time>
      </trkpt>
      <trkpt lat="49.33131" lon="-0.39137">
        <ele>5.7</ele>
        <time>2020-06-17T09:15:59Z</time>
      </trkpt>
      <trkpt lat="49.33131" lon="-0.39137">
        <ele>5.7</ele>
        <time>2020-06-17T09:16:00Z</time>
      </trkpt>
      <trkpt lat="49.33132" lon="-0.39136">
        <ele>5.7</ele>
        <time>2020-06-17T09:16:01Z</time>
      </trkpt>
      <trkpt lat="49.33132" lon="-0.39135">
        <ele>5.7</ele>
        <time>2020-06-17T09:16:02Z</time>
      </trkpt>
      <trkpt lat="49.33132" lon="-0.39136">
        <ele>5.7</ele>
        <time>2020-06-17T09:16:03Z</time>
      </trkpt>
      <trkpt lat="49.33132" lon="-0.39135">
        <ele>5.7</ele>
        <time>2020-06-17T09:16:04Z</time>
      </trkpt>
      <trkpt lat="49.33133" lon="-0.39135">
        <ele>5.8</ele>
        <time>2020-06-17T09:16:05Z</time>
      </trkpt>
      <trkpt lat="49.33133" lon="-0.39135">
        <ele>5.8</ele>
        <time>2020-06-17T09:16:06Z</time>
      </trkpt>
      <trkpt lat="49.33133" lon="-0.39135">
        <ele>5.8</ele>
        <time>2020-06-17T09:16:07Z</time>
      </trkpt>
      <trkpt lat="49.33133" lon="-0.39134">
        <ele>5.8</ele>
        <time>2020-06-17T09:16:08Z</time>
      </trkpt>
      <trkpt lat="49.33133" lon="-0.39134">
        <ele>5.8</ele>
        <time>2020-06-17T09:16:09Z</time>
      </trkpt>
      <trkpt lat="49.33132" lon="-0.39133">
        <ele>5.8</ele>
        <time>2020-06-17T09:16:10Z</time>
      </trkpt>
      <trkpt lat="49.33132" lon="-0.39133">
        <ele>5.8</ele>
        <time>2020-06-17T09:16:11Z</time>
      </trkpt>
      <trkpt lat="49.33132" lon="-0.39133">
        <ele>5.8</ele>
        <time>2020-06-17T09:16:12Z</time>
      </trkpt>
      <trkpt lat="49.33132" lon="-0.39133">
        <ele>5.8</ele>
        <time>2020-06-17T09:16:13Z</time>
      </trkpt>
      <trkpt lat="49.3313" lon="-0.39132">
        <ele>5.9</ele>
        <time>2020-06-17T09:16:19Z</time>
      </trkpt>
      <trkpt lat="49.33131" lon="-0.39132">
        <ele>5.9</ele>
        <time>2020-06-17T09:16:20Z</time>
      </trkpt>
      <trkpt lat="49.33131" lon="-0.39133">
        <ele>5.9</ele>
        <time>2020-06-17T09:16:21Z</time>
      </trkpt>
      <trkpt lat="49.33131" lon="-0.39133">
        <ele>5.9</ele>
        <time>2020-06-17T09:16:22Z</time>
      </trkpt>
      <trkpt lat="49.33131" lon="-0.39133">
        <ele>5.9</ele>
        <time>2020-06-17T09:16:23Z</time>
      </trkpt>
      <trkpt lat="49.3313" lon="-0.39132">
        <ele>5.9</ele>
        <time>2020-06-17T09:16:24Z</time>
      </trkpt>
      <trkpt lat="49.33131" lon="-0.39132">
        <ele>5.9</ele>
        <time>2020-06-17T09:16:25Z</time>
      </trkpt>
      <trkpt lat="49.3313" lon="-0.39132">
        <ele>5.9</ele>
        <time>2020-06-17T09:16:26Z</time>
      </trkpt>
      <trkpt lat="49.3313" lon="-0.39132">
        <ele>5.9</ele>
        <time>2020-06-17T09:16:27Z</time>
      </trkpt>
      <trkpt lat="49.3313" lon="-0.39132">
        <ele>5.9</ele>
        <time>2020-06-17T09:16:28Z</time>
      </trkpt>
      <trkpt lat="49.3313" lon="-0.39132">
        <ele>6</ele>
        <time>2020-06-17T09:16:29Z</time>
      </trkpt>
      <trkpt lat="49.3313" lon="-0.39132">
        <ele>6</ele>
        <time>2020-06-17T09:16:30Z</time>
      </trkpt>
      <trkpt lat="49.3313" lon="-0.39132">
        <ele>6</ele>
        <time>2020-06-17T09:16:31Z</time>
      </trkpt>
      <trkpt lat="49.3313" lon="-0.39132">
        <ele>6</ele>
        <time>2020-06-17T09:16:32Z</time>
      </trkpt>
      <trkpt lat="49.33129" lon="-0.39132">
        <ele>6</ele>
        <time>2020-06-17T09:16:33Z</time>
      </trkpt>
      <trkpt lat="49.33129" lon="-0.39131">
        <ele>6</ele>
        <time>2020-06-17T09:16:34Z</time>
      </trkpt>
      <trkpt lat="49.33129" lon="-0.39132">
        <ele>6</ele>
        <time>2020-06-17T09:16:35Z</time>
      </trkpt>
      <trkpt lat="49.33129" lon="-0.39132">
        <ele>6</ele>
        <time>2020-06-17T09:16:36Z</time>
      </trkpt>
      <trkpt lat="49.33129" lon="-0.39132">
        <ele>6</ele>
        <time>2020-06-17T09:16:37Z</time>
      </trkpt>
      <trkpt lat="49.33129" lon="-0.39133">
        <ele>6</ele>
        <time>2020-06-17T09:16:38Z</time>
      </trkpt>
      <trkpt lat="49.33129" lon="-0.39133">
        <ele>6</ele>
        <time>2020-06-17T09:16:39Z</time>
      </trkpt>
      <trkpt lat="49.33129" lon="-0.39133">
        <ele>6</ele>
        <time>2020-06-17T09:16:40Z</time>
      </trkpt>
      <trkpt lat="49.33129" lon="-0.39133">
        <ele>6</ele>
        <time>2020-06-17T09:16:41Z</time>
      </trkpt>
      <trkpt lat="49.33129" lon="-0.39133">
        <ele>6</ele>
        <time>2020-06-17T09:16:42Z</time>
      </trkpt>
      <trkpt lat="49.33129" lon="-0.39133">
        <ele>6</ele>
        <time>2020-06-17T09:16:43Z</time>
      </trkpt>
      <trkpt lat="49.33129" lon="-0.39134">
        <ele>6</ele>
        <time>2020-06-17T09:16:44Z</time>
      </trkpt>
      <trkpt lat="49.33129" lon="-0.39134">
        <ele>6.1</ele>
        <time>2020-06-17T09:16:45Z</time>
      </trkpt>
      <trkpt lat="49.33129" lon="-0.39135">
        <ele>6.1</ele>
        <time>2020-06-17T09:16:46Z</time>
      </trkpt>
      <trkpt lat="49.33129" lon="-0.39136">
        <ele>6.1</ele>
        <time>2020-06-17T09:16:47Z</time>
      </trkpt>
      <trkpt lat="49.33129" lon="-0.39135">
        <ele>6.1</ele>
        <time>2020-06-17T09:16:48Z</time>
      </trkpt>
      <trkpt lat="49.33129" lon="-0.39135">
        <ele>6.1</ele>
        <time>2020-06-17T09:16:49Z</time>
      </trkpt>
      <trkpt lat="49.3313" lon="-0.39135">
        <ele>6.1</ele>
        <time>2020-06-17T09:16:50Z</time>
      </trkpt>
      <trkpt lat="49.3313" lon="-0.39136">
        <ele>6.1</ele>
        <time>2020-06-17T09:16:51Z</time>
      </trkpt>
      <trkpt lat="49.33129" lon="-0.39136">
        <ele>6.1</ele>
        <time>2020-06-17T09:16:52Z</time>
      </trkpt>
      <trkpt lat="49.33129" lon="-0.39136">
        <ele>6.2</ele>
        <time>2020-06-17T09:16:53Z</time>
      </trkpt>
      <trkpt lat="49.33129" lon="-0.39135">
        <ele>6.2</ele>
        <time>2020-06-17T09:16:54Z</time>
      </trkpt>
      <trkpt lat="49.33128" lon="-0.39135">
        <ele>6.2</ele>
        <time>2020-06-17T09:16:55Z</time>
      </trkpt>
      <trkpt lat="49.33129" lon="-0.39135">
        <ele>6.2</ele>
        <time>2020-06-17T09:16:56Z</time>
      </trkpt>
      <trkpt lat="49.33128" lon="-0.39134">
        <ele>6.2</ele>
        <time>2020-06-17T09:16:57Z</time>
      </trkpt>
      <trkpt lat="49.33128" lon="-0.39134">
        <ele>6.2</ele>
        <time>2020-06-17T09:16:58Z</time>
      </trkpt>
      <trkpt lat="49.33128" lon="-0.39135">
        <ele>6.2</ele>
        <time>2020-06-17T09:16:59Z</time>
      </trkpt>
      <trkpt lat="49.33128" lon="-0.39134">
        <ele>6.2</ele>
        <time>2020-06-17T09:17:00Z</time>
      </trkpt>
      <trkpt lat="49.33128" lon="-0.39135">
        <ele>6.2</ele>
        <time>2020-06-17T09:17:01Z</time>
      </trkpt>
      <trkpt lat="49.33128" lon="-0.39134">
        <ele>6.2</ele>
        <time>2020-06-17T09:17:02Z</time>
      </trkpt>
      <trkpt lat="49.33128" lon="-0.39135">
        <ele>6.3</ele>
        <time>2020-06-17T09:17:03Z</time>
      </trkpt>
      <trkpt lat="49.33128" lon="-0.39135">
        <ele>6.3</ele>
        <time>2020-06-17T09:17:04Z</time>
      </trkpt>
      <trkpt lat="49.33128" lon="-0.39135">
        <ele>6.3</ele>
        <time>2020-06-17T09:17:05Z</time>
      </trkpt>
      <trkpt lat="49.33128" lon="-0.39135">
        <ele>6.3</ele>
        <time>2020-06-17T09:17:06Z</time>
      </trkpt>
      <trkpt lat="49.33128" lon="-0.39135">
        <ele>6.3</ele>
        <time>2020-06-17T09:17:07Z</time>
      </trkpt>
      <trkpt lat="49.33128" lon="-0.39135">
        <ele>6.3</ele>
        <time>2020-06-17T09:17:08Z</time>
      </trkpt>
      <trkpt lat="49.33129" lon="-0.39141">
        <ele>6.4</ele>
        <time>2020-06-17T09:17:22Z</time>
      </trkpt>
      <trkpt lat="49.33131" lon="-0.39143">
        <ele>6.4</ele>
        <time>2020-06-17T09:17:23Z</time>
      </trkpt>
      <trkpt lat="49.33133" lon="-0.39145">
        <ele>6.5</ele>
        <time>2020-06-17T09:17:24Z</time>
      </trkpt>
      <trkpt lat="49.33136" lon="-0.39147">
        <ele>6.6</ele>
        <time>2020-06-17T09:17:25Z</time>
      </trkpt>
      <trkpt lat="49.33137" lon="-0.3915">
        <ele>6.6</ele>
        <time>2020-06-17T09:17:26Z</time>
      </trkpt>
      <trkpt lat="49.33137" lon="-0.39152">
        <ele>6.6</ele>
        <time>2020-06-17T09:17:27Z</time>
      </trkpt>
      <trkpt lat="49.33137" lon="-0.39154">
        <ele>6.7</ele>
        <time>2020-06-17T09:17:28Z</time>
      </trkpt>
      <trkpt lat="49.33137" lon="-0.39155">
        <ele>6.7</ele>
        <time>2020-06-17T09:17:29Z</time>
      </trkpt>
      <trkpt lat="49.33136" lon="-0.39156">
        <ele>6.7</ele>
        <time>2020-06-17T09:17:30Z</time>
      </trkpt>
      <trkpt lat="49.33136" lon="-0.39158">
        <ele>6.7</ele>
        <time>2020-06-17T09:17:31Z</time>
      </trkpt>
      <trkpt lat="49.33135" lon="-0.39158">
        <ele>6.7</ele>
        <time>2020-06-17T09:17:32Z</time>
      </trkpt>
      <trkpt lat="49.33135" lon="-0.39158">
        <ele>6.7</ele>
        <time>2020-06-17T09:17:33Z</time>
      </trkpt>
      <trkpt lat="49.33135" lon="-0.39158">
        <ele>6.7</ele>
        <time>2020-06-17T09:17:34Z</time>
      </trkpt>
      <trkpt lat="49.33135" lon="-0.39158">
        <ele>6.8</ele>
        <time>2020-06-17T09:17:35Z</time>
      </trkpt>
      <trkpt lat="49.33136" lon="-0.39159">
        <ele>6.8</ele>
        <time>2020-06-17T09:17:36Z</time>
      </trkpt>
      <trkpt lat="49.33136" lon="-0.3916">
        <ele>6.8</ele>
        <time>2020-06-17T09:17:37Z</time>
      </trkpt>
      <trkpt lat="49.33136" lon="-0.39161">
        <ele>6.8</ele>
        <time>2020-06-17T09:17:38Z</time>
      </trkpt>
      <trkpt lat="49.33134" lon="-0.39161">
        <ele>6.8</ele>
        <time>2020-06-17T09:17:39Z</time>
      </trkpt>
      <trkpt lat="49.33133" lon="-0.39162">
        <ele>6.9</ele>
        <time>2020-06-17T09:17:40Z</time>
      </trkpt>
      <trkpt lat="49.33132" lon="-0.39163">
        <ele>6.9</ele>
        <time>2020-06-17T09:17:41Z</time>
      </trkpt>
      <trkpt lat="49.33131" lon="-0.39165">
        <ele>6.9</ele>
        <time>2020-06-17T09:17:42Z</time>
      </trkpt>
      <trkpt lat="49.33129" lon="-0.39167">
        <ele>7</ele>
        <time>2020-06-17T09:17:43Z</time>
      </trkpt>
      <trkpt lat="49.33129" lon="-0.39169">
        <ele>7</ele>
        <time>2020-06-17T09:17:44Z</time>
      </trkpt>
      <trkpt lat="49.33127" lon="-0.39171">
        <ele>7.1</ele>
        <time>2020-06-17T09:17:45Z</time>
      </trkpt>
      <trkpt lat="49.33127" lon="-0.39172">
        <ele>7.1</ele>
        <time>2020-06-17T09:17:46Z</time>
      </trkpt>
      <trkpt lat="49.33126" lon="-0.39173">
        <ele>7.1</ele>
        <time>2020-06-17T09:17:47Z</time>
      </trkpt>
      <trkpt lat="49.33125" lon="-0.39175">
        <ele>7.1</ele>
        <time>2020-06-17T09:17:48Z</time>
      </trkpt>
      <trkpt lat="49.33125" lon="-0.39176">
        <ele>7.1</ele>
        <time>2020-06-17T09:17:49Z</time>
      </trkpt>
      <trkpt lat="49.33124" lon="-0.39176">
        <ele>7.1</ele>
        <time>2020-06-17T09:17:50Z</time>
      </trkpt>
      <trkpt lat="49.33123" lon="-0.39177">
        <ele>7.1</ele>
        <time>2020-06-17T09:17:51Z</time>
      </trkpt>
      <trkpt lat="49.33122" lon="-0.39178">
        <ele>7.2</ele>
        <time>2020-06-17T09:17:52Z</time>
      </trkpt>
      <trkpt lat="49.33122" lon="-0.3918">
        <ele>7.2</ele>
        <time>2020-06-17T09:17:53Z</time>
      </trkpt>
      <trkpt lat="49.3312" lon="-0.3918">
        <ele>7.2</ele>
        <time>2020-06-17T09:17:54Z</time>
      </trkpt>
      <trkpt lat="49.3312" lon="-0.39181">
        <ele>7.2</ele>
        <time>2020-06-17T09:17:55Z</time>
      </trkpt>
      <trkpt lat="49.33119" lon="-0.39182">
        <ele>7.3</ele>
        <time>2020-06-17T09:17:56Z</time>
      </trkpt>
      <trkpt lat="49.33118" lon="-0.39182">
        <ele>7.3</ele>
        <time>2020-06-17T09:17:57Z</time>
      </trkpt>
      <trkpt lat="49.33118" lon="-0.39183">
        <ele>7.3</ele>
        <time>2020-06-17T09:17:58Z</time>
      </trkpt>
      <trkpt lat="49.33117" lon="-0.39183">
        <ele>7.3</ele>
        <time>2020-06-17T09:17:59Z</time>
      </trkpt>
      <trkpt lat="49.33117" lon="-0.39182">
        <ele>7.3</ele>
        <time>2020-06-17T09:18:00Z</time>
      </trkpt>
      <trkpt lat="49.33117" lon="-0.39182">
        <ele>7.3</ele>
        <time>2020-06-17T09:18:01Z</time>
      </trkpt>
      <trkpt lat="49.33117" lon="-0.39181">
        <ele>7.3</ele>
        <time>2020-06-17T09:18:02Z</time>
      </trkpt>
      <trkpt lat="49.33117" lon="-0.39181">
        <ele>7.3</ele>
        <time>2020-06-17T09:18:03Z</time>
      </trkpt>
      <trkpt lat="49.33116" lon="-0.3918">
        <ele>7.3</ele>
        <time>2020-06-17T09:18:04Z</time>
      </trkpt>
      <trkpt lat="49.33116" lon="-0.3918">
        <ele>7.3</ele>
        <time>2020-06-17T09:18:05Z</time>
      </trkpt>
      <trkpt lat="49.33112" lon="-0.39179">
        <ele>7.5</ele>
        <time>2020-06-17T09:18:06Z</time>
      </trkpt>
      <trkpt lat="49.3311" lon="-0.39178">
        <ele>7.5</ele>
        <time>2020-06-17T09:18:07Z</time>
      </trkpt>
      <trkpt lat="49.33108" lon="-0.39177">
        <ele>7.5</ele>
        <time>2020-06-17T09:18:08Z</time>
      </trkpt>
      <trkpt lat="49.33106" lon="-0.39177">
        <ele>7.5</ele>
        <time>2020-06-17T09:18:09Z</time>
      </trkpt>
      <trkpt lat="49.33104" lon="-0.39176">
        <ele>7.4</ele>
        <time>2020-06-17T09:18:20Z</time>
      </trkpt>
      <trkpt lat="49.33102" lon="-0.39175">
        <ele>7.4</ele>
        <time>2020-06-17T09:18:21Z</time>
      </trkpt>
      <trkpt lat="49.33099" lon="-0.39177">
        <ele>7.4</ele>
        <time>2020-06-17T09:18:22Z</time>
      </trkpt>
      <trkpt lat="49.33096" lon="-0.39175">
        <ele>7.4</ele>
        <time>2020-06-17T09:18:23Z</time>
      </trkpt>
      <trkpt lat="49.33094" lon="-0.39174">
        <ele>7.4</ele>
        <time>2020-06-17T09:18:24Z</time>
      </trkpt>
      <trkpt lat="49.3309" lon="-0.39175">
        <ele>7.4</ele>
        <time>2020-06-17T09:18:25Z</time>
      </trkpt>
      <trkpt lat="49.33088" lon="-0.39175">
        <ele>7.4</ele>
        <time>2020-06-17T09:18:26Z</time>
      </trkpt>
      <trkpt lat="49.33084" lon="-0.39175">
        <ele>7.4</ele>
        <time>2020-06-17T09:18:27Z</time>
      </trkpt>
      <trkpt lat="49.33083" lon="-0.39175">
        <ele>7.4</ele>
        <time>2020-06-17T09:18:28Z</time>
      </trkpt>
      <trkpt lat="49.3308" lon="-0.39176">
        <ele>7.4</ele>
        <time>2020-06-17T09:18:29Z</time>
      </trkpt>
      <trkpt lat="49.33077" lon="-0.39177">
        <ele>7.4</ele>
        <time>2020-06-17T09:18:30Z</time>
      </trkpt>
      <trkpt lat="49.33074" lon="-0.3918">
        <ele>7.4</ele>
        <time>2020-06-17T09:18:31Z</time>
      </trkpt>
      <trkpt lat="49.33071" lon="-0.39182">
        <ele>7.4</ele>
        <time>2020-06-17T09:18:32Z</time>
      </trkpt>
      <trkpt lat="49.33068" lon="-0.39186">
        <ele>7.4</ele>
        <time>2020-06-17T09:18:33Z</time>
      </trkpt>
      <trkpt lat="49.33065" lon="-0.39187">
        <ele>7.4</ele>
        <time>2020-06-17T09:18:34Z</time>
      </trkpt>
      <trkpt lat="49.33062" lon="-0.39189">
        <ele>7.4</ele>
        <time>2020-06-17T09:18:35Z</time>
      </trkpt>
      <trkpt lat="49.3306" lon="-0.3919">
        <ele>7.4</ele>
        <time>2020-06-17T09:18:36Z</time>
      </trkpt>
      <trkpt lat="49.33059" lon="-0.39191">
        <ele>7.4</ele>
        <time>2020-06-17T09:18:37Z</time>
      </trkpt>
      <trkpt lat="49.33056" lon="-0.39192">
        <ele>7.4</ele>
        <time>2020-06-17T09:18:38Z</time>
      </trkpt>
      <trkpt lat="49.33055" lon="-0.39193">
        <ele>7.4</ele>
        <time>2020-06-17T09:18:39Z</time>
      </trkpt>
      <trkpt lat="49.33054" lon="-0.39193">
        <ele>7.4</ele>
        <time>2020-06-17T09:18:40Z</time>
      </trkpt>
      <trkpt lat="49.3305" lon="-0.39194">
        <ele>7.3</ele>
        <time>2020-06-17T09:18:41Z</time>
      </trkpt>
      <trkpt lat="49.33048" lon="-0.39194">
        <ele>7.3</ele>
        <time>2020-06-17T09:18:42Z</time>
      </trkpt>
      <trkpt lat="49.33044" lon="-0.39194">
        <ele>7.3</ele>
        <time>2020-06-17T09:18:43Z</time>
      </trkpt>
      <trkpt lat="49.33041" lon="-0.39195">
        <ele>7.3</ele>
        <time>2020-06-17T09:18:44Z</time>
      </trkpt>
      <trkpt lat="49.33037" lon="-0.39196">
        <ele>7.2</ele>
        <time>2020-06-17T09:18:45Z</time>
      </trkpt>
      <trkpt lat="49.33034" lon="-0.39198">
        <ele>7.2</ele>
        <time>2020-06-17T09:18:46Z</time>
      </trkpt>
      <trkpt lat="49.33031" lon="-0.392">
        <ele>7.2</ele>
        <time>2020-06-17T09:18:47Z</time>
      </trkpt>
      <trkpt lat="49.33028" lon="-0.39203">
        <ele>7.2</ele>
        <time>2020-06-17T09:18:48Z</time>
      </trkpt>
      <trkpt lat="49.33025" lon="-0.39207">
        <ele>7.1</ele>
        <time>2020-06-17T09:18:49Z</time>
      </trkpt>
      <trkpt lat="49.33022" lon="-0.39211">
        <ele>7</ele>
        <time>2020-06-17T09:18:50Z</time>
      </trkpt>
      <trkpt lat="49.33019" lon="-0.39217">
        <ele>7</ele>
        <time>2020-06-17T09:18:51Z</time>
      </trkpt>
      <trkpt lat="49.33016" lon="-0.3922">
        <ele>7.1</ele>
        <time>2020-06-17T09:18:52Z</time>
      </trkpt>
      <trkpt lat="49.33013" lon="-0.39225">
        <ele>7.1</ele>
        <time>2020-06-17T09:18:53Z</time>
      </trkpt>
      <trkpt lat="49.33007" lon="-0.39232">
        <ele>7.1</ele>
        <time>2020-06-17T09:18:54Z</time>
      </trkpt>
      <trkpt lat="49.33005" lon="-0.39234">
        <ele>7.1</ele>
        <time>2020-06-17T09:18:55Z</time>
      </trkpt>
      <trkpt lat="49.33003" lon="-0.39236">
        <ele>7.1</ele>
        <time>2020-06-17T09:18:56Z</time>
      </trkpt>
      <trkpt lat="49.32999" lon="-0.39241">
        <ele>7.1</ele>
        <time>2020-06-17T09:18:57Z</time>
      </trkpt>
      <trkpt lat="49.32995" lon="-0.39244">
        <ele>7.1</ele>
        <time>2020-06-17T09:18:58Z</time>
      </trkpt>
      <trkpt lat="49.32991" lon="-0.39247">
        <ele>7.1</ele>
        <time>2020-06-17T09:18:59Z</time>
      </trkpt>
      <trkpt lat="49.32988" lon="-0.39248">
        <ele>7.1</ele>
        <time>2020-06-17T09:19:00Z</time>
      </trkpt>
      <trkpt lat="49.32984" lon="-0.3925">
        <ele>7.2</ele>
        <time>2020-06-17T09:19:01Z</time>
      </trkpt>
      <trkpt lat="49.32983" lon="-0.3925">
        <ele>7.2</ele>
        <time>2020-06-17T09:19:02Z</time>
      </trkpt>
      <trkpt lat="49.32979" lon="-0.39249">
        <ele>7.2</ele>
        <time>2020-06-17T09:19:03Z</time>
      </trkpt>
      <trkpt lat="49.32975" lon="-0.39249">
        <ele>7.2</ele>
        <time>2020-06-17T09:19:04Z</time>
      </trkpt>
      <trkpt lat="49.32974" lon="-0.39248">
        <ele>7.2</ele>
        <time>2020-06-17T09:19:05Z</time>
      </trkpt>
      <trkpt lat="49.32973" lon="-0.39248">
        <ele>7.2</ele>
        <time>2020-06-17T09:19:06Z</time>
      </trkpt>
      <trkpt lat="49.32972" lon="-0.39249">
        <ele>7.2</ele>
        <time>2020-06-17T09:19:07Z</time>
      </trkpt>
      <trkpt lat="49.3297" lon="-0.3925">
        <ele>7.2</ele>
        <time>2020-06-17T09:19:08Z</time>
      </trkpt>
      <trkpt lat="49.3297" lon="-0.3925">
        <ele>7.2</ele>
        <time>2020-06-17T09:19:09Z</time>
      </trkpt>
      <trkpt lat="49.32969" lon="-0.39251">
        <ele>7.2</ele>
        <time>2020-06-17T09:19:10Z</time>
      </trkpt>
      <trkpt lat="49.32968" lon="-0.39251">
        <ele>7.2</ele>
        <time>2020-06-17T09:19:11Z</time>
      </trkpt>
      <trkpt lat="49.32968" lon="-0.39251">
        <ele>7.2</ele>
        <time>2020-06-17T09:19:12Z</time>
      </trkpt>
      <trkpt lat="49.32965" lon="-0.39251">
        <ele>7.2</ele>
        <time>2020-06-17T09:19:13Z</time>
      </trkpt>
      <trkpt lat="49.32964" lon="-0.39251">
        <ele>7.2</ele>
        <time>2020-06-17T09:19:14Z</time>
      </trkpt>
      <trkpt lat="49.32963" lon="-0.39251">
        <ele>7.2</ele>
        <time>2020-06-17T09:19:15Z</time>
      </trkpt>
      <trkpt lat="49.32961" lon="-0.3925">
        <ele>7.2</ele>
        <time>2020-06-17T09:19:16Z</time>
      </trkpt>
      <trkpt lat="49.3296" lon="-0.39251">
        <ele>7.2</ele>
        <time>2020-06-17T09:19:17Z</time>
      </trkpt>
      <trkpt lat="49.3296" lon="-0.39251">
        <ele>7.2</ele>
        <time>2020-06-17T09:19:18Z</time>
      </trkpt>
      <trkpt lat="49.32959" lon="-0.39251">
        <ele>7.2</ele>
        <time>2020-06-17T09:19:19Z</time>
      </trkpt>
      <trkpt lat="49.3296" lon="-0.39251">
        <ele>7.2</ele>
        <time>2020-06-17T09:19:20Z</time>
      </trkpt>
      <trkpt lat="49.3296" lon="-0.39251">
        <ele>7.2</ele>
        <time>2020-06-17T09:19:21Z</time>
      </trkpt>
      <trkpt lat="49.3296" lon="-0.39251">
        <ele>7.2</ele>
        <time>2020-06-17T09:19:22Z</time>
      </trkpt>
      <trkpt lat="49.3296" lon="-0.39251">
        <ele>7.2</ele>
        <time>2020-06-17T09:19:23Z</time>
      </trkpt>
      <trkpt lat="49.32959" lon="-0.3925">
        <ele>7.2</ele>
        <time>2020-06-17T09:19:24Z</time>
      </trkpt>
      <trkpt lat="49.32959" lon="-0.3925">
        <ele>7.2</ele>
        <time>2020-06-17T09:19:25Z</time>
      </trkpt>
      <trkpt lat="49.32959" lon="-0.39251">
        <ele>7.2</ele>
        <time>2020-06-17T09:19:26Z</time>
      </trkpt>
      <trkpt lat="49.32959" lon="-0.39251">
        <ele>7.2</ele>
        <time>2020-06-17T09:19:27Z</time>
      </trkpt>
      <trkpt lat="49.32958" lon="-0.39251">
        <ele>7.2</ele>
        <time>2020-06-17T09:19:28Z</time>
      </trkpt>
      <trkpt lat="49.32957" lon="-0.39249">
        <ele>7.2</ele>
        <time>2020-06-17T09:19:29Z</time>
      </trkpt>
      <trkpt lat="49.32956" lon="-0.39247">
        <ele>7.2</ele>
        <time>2020-06-17T09:19:30Z</time>
      </trkpt>
      <trkpt lat="49.32956" lon="-0.39245">
        <ele>7.2</ele>
        <time>2020-06-17T09:19:31Z</time>
      </trkpt>
      <trkpt lat="49.32955" lon="-0.39243">
        <ele>7.2</ele>
        <time>2020-06-17T09:19:32Z</time>
      </trkpt>
      <trkpt lat="49.32955" lon="-0.39241">
        <ele>7.2</ele>
        <time>2020-06-17T09:19:33Z</time>
      </trkpt>
      <trkpt lat="49.32954" lon="-0.3924">
        <ele>7.2</ele>
        <time>2020-06-17T09:19:34Z</time>
      </trkpt>
      <trkpt lat="49.32954" lon="-0.39237">
        <ele>7.2</ele>
        <time>2020-06-17T09:19:35Z</time>
      </trkpt>
      <trkpt lat="49.32953" lon="-0.39236">
        <ele>7.3</ele>
        <time>2020-06-17T09:19:36Z</time>
      </trkpt>
      <trkpt lat="49.32952" lon="-0.39236">
        <ele>7.3</ele>
        <time>2020-06-17T09:19:37Z</time>
      </trkpt>
      <trkpt lat="49.32952" lon="-0.39236">
        <ele>7.3</ele>
        <time>2020-06-17T09:19:38Z</time>
      </trkpt>
      <trkpt lat="49.32952" lon="-0.39236">
        <ele>7.3</ele>
        <time>2020-06-17T09:19:39Z</time>
      </trkpt>
      <trkpt lat="49.32952" lon="-0.39236">
        <ele>7.3</ele>
        <time>2020-06-17T09:19:40Z</time>
      </trkpt>
      <trkpt lat="49.32951" lon="-0.39236">
        <ele>7.3</ele>
        <time>2020-06-17T09:19:41Z</time>
      </trkpt>
      <trkpt lat="49.3295" lon="-0.39237">
        <ele>7.3</ele>
        <time>2020-06-17T09:19:42Z</time>
      </trkpt>
      <trkpt lat="49.3295" lon="-0.39239">
        <ele>7.3</ele>
        <time>2020-06-17T09:19:43Z</time>
      </trkpt>
      <trkpt lat="49.3295" lon="-0.39241">
        <ele>7.3</ele>
        <time>2020-06-17T09:19:44Z</time>
      </trkpt>
      <trkpt lat="49.3295" lon="-0.39242">
        <ele>7.3</ele>
        <time>2020-06-17T09:19:45Z</time>
      </trkpt>
      <trkpt lat="49.32951" lon="-0.39244">
        <ele>7.3</ele>
        <time>2020-06-17T09:19:46Z</time>
      </trkpt>
      <trkpt lat="49.32951" lon="-0.39244">
        <ele>7.3</ele>
        <time>2020-06-17T09:19:47Z</time>
      </trkpt>
      <trkpt lat="49.32952" lon="-0.39245">
        <ele>7.3</ele>
        <time>2020-06-17T09:19:48Z</time>
      </trkpt>
      <trkpt lat="49.32952" lon="-0.39245">
        <ele>7.3</ele>
        <time>2020-06-17T09:19:49Z</time>
      </trkpt>
      <trkpt lat="49.32952" lon="-0.39245">
        <ele>7.3</ele>
        <time>2020-06-17T09:19:50Z</time>
      </trkpt>
      <trkpt lat="49.32952" lon="-0.39244">
        <ele>7.3</ele>
        <time>2020-06-17T09:19:51Z</time>
      </trkpt>
      <trkpt lat="49.32961" lon="-0.39242">
        <ele>7.3</ele>
        <time>2020-06-17T09:20:00Z</time>
      </trkpt>
      <trkpt lat="49.32962" lon="-0.39241">
        <ele>7.3</ele>
        <time>2020-06-17T09:20:01Z</time>
      </trkpt>
      <trkpt lat="49.32964" lon="-0.3924">
        <ele>7.3</ele>
        <time>2020-06-17T09:20:02Z</time>
      </trkpt>
      <trkpt lat="49.32965" lon="-0.39239">
        <ele>7.3</ele>
        <time>2020-06-17T09:20:03Z</time>
      </trkpt>
      <trkpt lat="49.32965" lon="-0.39238">
        <ele>7.3</ele>
        <time>2020-06-17T09:20:04Z</time>
      </trkpt>
      <trkpt lat="49.32965" lon="-0.39238">
        <ele>7.3</ele>
        <time>2020-06-17T09:20:05Z</time>
      </trkpt>
      <trkpt lat="49.32965" lon="-0.39238">
        <ele>7.3</ele>
        <time>2020-06-17T09:20:06Z</time>
      </trkpt>
      <trkpt lat="49.32965" lon="-0.39238">
        <ele>7.3</ele>
        <time>2020-06-17T09:20:07Z</time>
      </trkpt>
      <trkpt lat="49.32965" lon="-0.39238">
        <ele>7.3</ele>
        <time>2020-06-17T09:20:08Z</time>
      </trkpt>
      <trkpt lat="49.32965" lon="-0.39238">
        <ele>7.3</ele>
        <time>2020-06-17T09:20:09Z</time>
      </trkpt>
      <trkpt lat="49.32965" lon="-0.39239">
        <ele>7.3</ele>
        <time>2020-06-17T09:20:10Z</time>
      </trkpt>
      <trkpt lat="49.32966" lon="-0.39239">
        <ele>7.3</ele>
        <time>2020-06-17T09:20:11Z</time>
      </trkpt>
      <trkpt lat="49.32966" lon="-0.39238">
        <ele>7.3</ele>
        <time>2020-06-17T09:20:12Z</time>
      </trkpt>
      <trkpt lat="49.32966" lon="-0.39239">
        <ele>7.3</ele>
        <time>2020-06-17T09:20:13Z</time>
      </trkpt>
      <trkpt lat="49.32966" lon="-0.3924">
        <ele>7.3</ele>
        <time>2020-06-17T09:20:14Z</time>
      </trkpt>
      <trkpt lat="49.32966" lon="-0.39242">
        <ele>7.3</ele>
        <time>2020-06-17T09:20:15Z</time>
      </trkpt>
      <trkpt lat="49.32965" lon="-0.39242">
        <ele>7.3</ele>
        <time>2020-06-17T09:20:16Z</time>
      </trkpt>
      <trkpt lat="49.32965" lon="-0.39243">
        <ele>7.3</ele>
        <time>2020-06-17T09:20:17Z</time>
      </trkpt>
      <trkpt lat="49.32969" lon="-0.39245">
        <ele>7.3</ele>
        <time>2020-06-17T09:20:34Z</time>
      </trkpt>
      <trkpt lat="49.3297" lon="-0.39247">
        <ele>7.3</ele>
        <time>2020-06-17T09:20:35Z</time>
      </trkpt>
      <trkpt lat="49.3297" lon="-0.39247">
        <ele>7.3</ele>
        <time>2020-06-17T09:20:36Z</time>
      </trkpt>
      <trkpt lat="49.32971" lon="-0.39248">
        <ele>7.3</ele>
        <time>2020-06-17T09:20:37Z</time>
      </trkpt>
      <trkpt lat="49.32972" lon="-0.3925">
        <ele>7.3</ele>
        <time>2020-06-17T09:20:38Z</time>
      </trkpt>
      <trkpt lat="49.32973" lon="-0.39251">
        <ele>7.3</ele>
        <time>2020-06-17T09:20:39Z</time>
      </trkpt>
      <trkpt lat="49.32973" lon="-0.39251">
        <ele>7.3</ele>
        <time>2020-06-17T09:20:40Z</time>
      </trkpt>
      <trkpt lat="49.32974" lon="-0.39252">
        <ele>7.3</ele>
        <time>2020-06-17T09:20:41Z</time>
      </trkpt>
      <trkpt lat="49.32974" lon="-0.39253">
        <ele>7.3</ele>
        <time>2020-06-17T09:20:42Z</time>
      </trkpt>
      <trkpt lat="49.32974" lon="-0.39253">
        <ele>7.3</ele>
        <time>2020-06-17T09:20:43Z</time>
      </trkpt>
      <trkpt lat="49.32975" lon="-0.39253">
        <ele>7.3</ele>
        <time>2020-06-17T09:20:44Z</time>
      </trkpt>
      <trkpt lat="49.32975" lon="-0.39254">
        <ele>7.3</ele>
        <time>2020-06-17T09:20:45Z</time>
      </trkpt>
      <trkpt lat="49.32974" lon="-0.39252">
        <ele>7.3</ele>
        <time>2020-06-17T09:20:46Z</time>
      </trkpt>
      <trkpt lat="49.32974" lon="-0.39252">
        <ele>7.3</ele>
        <time>2020-06-17T09:20:47Z</time>
      </trkpt>
      <trkpt lat="49.32975" lon="-0.39253">
        <ele>7.3</ele>
        <time>2020-06-17T09:20:48Z</time>
      </trkpt>
      <trkpt lat="49.32975" lon="-0.39253">
        <ele>7.3</ele>
        <time>2020-06-17T09:20:49Z</time>
      </trkpt>
      <trkpt lat="49.32975" lon="-0.39253">
        <ele>7.3</ele>
        <time>2020-06-17T09:20:50Z</time>
      </trkpt>
      <trkpt lat="49.32975" lon="-0.39253">
        <ele>7.3</ele>
        <time>2020-06-17T09:20:51Z</time>
      </trkpt>
      <trkpt lat="49.32975" lon="-0.39251">
        <ele>7.3</ele>
        <time>2020-06-17T09:20:52Z</time>
      </trkpt>
      <trkpt lat="49.32975" lon="-0.3925">
        <ele>7.3</ele>
        <time>2020-06-17T09:20:53Z</time>
      </trkpt>
      <trkpt lat="49.32975" lon="-0.39251">
        <ele>7.3</ele>
        <time>2020-06-17T09:20:54Z</time>
      </trkpt>
      <trkpt lat="49.32976" lon="-0.39251">
        <ele>7.3</ele>
        <time>2020-06-17T09:20:55Z</time>
      </trkpt>
      <trkpt lat="49.32976" lon="-0.39252">
        <ele>7.3</ele>
        <time>2020-06-17T09:20:56Z</time>
      </trkpt>
      <trkpt lat="49.32976" lon="-0.39251">
        <ele>7.3</ele>
        <time>2020-06-17T09:20:57Z</time>
      </trkpt>
      <trkpt lat="49.32976" lon="-0.3925">
        <ele>7.3</ele>
        <time>2020-06-17T09:20:58Z</time>
      </trkpt>
      <trkpt lat="49.32977" lon="-0.3925">
        <ele>7.3</ele>
        <time>2020-06-17T09:20:59Z</time>
      </trkpt>
      <trkpt lat="49.32977" lon="-0.3925">
        <ele>7.3</ele>
        <time>2020-06-17T09:21:00Z</time>
      </trkpt>
      <trkpt lat="49.32977" lon="-0.3925">
        <ele>7.3</ele>
        <time>2020-06-17T09:21:01Z</time>
      </trkpt>
      <trkpt lat="49.32977" lon="-0.39249">
        <ele>7.3</ele>
        <time>2020-06-17T09:21:02Z</time>
      </trkpt>
      <trkpt lat="49.32978" lon="-0.39249">
        <ele>7.3</ele>
        <time>2020-06-17T09:21:03Z</time>
      </trkpt>
      <trkpt lat="49.32979" lon="-0.39249">
        <ele>7.3</ele>
        <time>2020-06-17T09:21:04Z</time>
      </trkpt>
      <trkpt lat="49.3298" lon="-0.3925">
        <ele>7.3</ele>
        <time>2020-06-17T09:21:05Z</time>
      </trkpt>
      <trkpt lat="49.32981" lon="-0.39251">
        <ele>7.3</ele>
        <time>2020-06-17T09:21:06Z</time>
      </trkpt>
      <trkpt lat="49.32982" lon="-0.39251">
        <ele>7.3</ele>
        <time>2020-06-17T09:21:07Z</time>
      </trkpt>
      <trkpt lat="49.32984" lon="-0.3925">
        <ele>7.3</ele>
        <time>2020-06-17T09:21:08Z</time>
      </trkpt>
      <trkpt lat="49.32984" lon="-0.3925">
        <ele>7.3</ele>
        <time>2020-06-17T09:21:09Z</time>
      </trkpt>
      <trkpt lat="49.32984" lon="-0.39249">
        <ele>7.3</ele>
        <time>2020-06-17T09:21:10Z</time>
      </trkpt>
      <trkpt lat="49.32983" lon="-0.39249">
        <ele>7.3</ele>
        <time>2020-06-17T09:21:11Z</time>
      </trkpt>
      <trkpt lat="49.32983" lon="-0.39248">
        <ele>7.3</ele>
        <time>2020-06-17T09:21:12Z</time>
      </trkpt>
      <trkpt lat="49.32982" lon="-0.39248">
        <ele>7.3</ele>
        <time>2020-06-17T09:21:13Z</time>
      </trkpt>
      <trkpt lat="49.32982" lon="-0.39247">
        <ele>7.3</ele>
        <time>2020-06-17T09:21:14Z</time>
      </trkpt>
      <trkpt lat="49.32981" lon="-0.39246">
        <ele>7.3</ele>
        <time>2020-06-17T09:21:15Z</time>
      </trkpt>
      <trkpt lat="49.32981" lon="-0.39246">
        <ele>7.3</ele>
        <time>2020-06-17T09:21:16Z</time>
      </trkpt>
      <trkpt lat="49.32978" lon="-0.39244">
        <ele>7.3</ele>
        <time>2020-06-17T09:21:17Z</time>
      </trkpt>
      <trkpt lat="49.32978" lon="-0.39244">
        <ele>7.3</ele>
        <time>2020-06-17T09:21:18Z</time>
      </trkpt>
      <trkpt lat="49.32977" lon="-0.39244">
        <ele>7.3</ele>
        <time>2020-06-17T09:21:19Z</time>
      </trkpt>
      <trkpt lat="49.32977" lon="-0.39243">
        <ele>7.3</ele>
        <time>2020-06-17T09:21:20Z</time>
      </trkpt>
      <trkpt lat="49.32976" lon="-0.39244">
        <ele>7.3</ele>
        <time>2020-06-17T09:21:21Z</time>
      </trkpt>
      <trkpt lat="49.32974" lon="-0.39242">
        <ele>7.3</ele>
        <time>2020-06-17T09:21:22Z</time>
      </trkpt>
      <trkpt lat="49.32973" lon="-0.39242">
        <ele>7.4</ele>
        <time>2020-06-17T09:21:23Z</time>
      </trkpt>
      <trkpt lat="49.32972" lon="-0.39243">
        <ele>7.4</ele>
        <time>2020-06-17T09:21:24Z</time>
      </trkpt>
      <trkpt lat="49.32971" lon="-0.39242">
        <ele>7.4</ele>
        <time>2020-06-17T09:21:25Z</time>
      </trkpt>
      <trkpt lat="49.32971" lon="-0.39242">
        <ele>7.4</ele>
        <time>2020-06-17T09:21:26Z</time>
      </trkpt>
      <trkpt lat="49.3297" lon="-0.39241">
        <ele>7.4</ele>
        <time>2020-06-17T09:21:27Z</time>
      </trkpt>
      <trkpt lat="49.3297" lon="-0.39241">
        <ele>7.4</ele>
        <time>2020-06-17T09:21:28Z</time>
      </trkpt>
      <trkpt lat="49.3297" lon="-0.39241">
        <ele>7.4</ele>
        <time>2020-06-17T09:21:29Z</time>
      </trkpt>
      <trkpt lat="49.3297" lon="-0.39242">
        <ele>7.4</ele>
        <time>2020-06-17T09:21:30Z</time>
      </trkpt>
      <trkpt lat="49.3297" lon="-0.39242">
        <ele>7.4</ele>
        <time>2020-06-17T09:21:31Z</time>
      </trkpt>
      <trkpt lat="49.3297" lon="-0.39242">
        <ele>7.4</ele>
        <time>2020-06-17T09:21:32Z</time>
      </trkpt>
      <trkpt lat="49.3297" lon="-0.39242">
        <ele>7.4</ele>
        <time>2020-06-17T09:21:33Z</time>
      </trkpt>
      <trkpt lat="49.3297" lon="-0.39242">
        <ele>7.4</ele>
        <time>2020-06-17T09:21:34Z</time>
      </trkpt>
      <trkpt lat="49.3297" lon="-0.39242">
        <ele>7.4</ele>
        <time>2020-06-17T09:21:35Z</time>
      </trkpt>
      <trkpt lat="49.32969" lon="-0.39242">
        <ele>7.4</ele>
        <time>2020-06-17T09:21:36Z</time>
      </trkpt>
      <trkpt lat="49.32968" lon="-0.39242">
        <ele>7.4</ele>
        <time>2020-06-17T09:21:37Z</time>
      </trkpt>
      <trkpt lat="49.32968" lon="-0.39242">
        <ele>7.4</ele>
        <time>2020-06-17T09:21:38Z</time>
      </trkpt>
      <trkpt lat="49.32968" lon="-0.39243">
        <ele>7.4</ele>
        <time>2020-06-17T09:21:39Z</time>
      </trkpt>
      <trkpt lat="49.32968" lon="-0.39244">
        <ele>7.4</ele>
        <time>2020-06-17T09:21:40Z</time>
      </trkpt>
      <trkpt lat="49.32969" lon="-0.39245">
        <ele>7.4</ele>
        <time>2020-06-17T09:21:41Z</time>
      </trkpt>
      <trkpt lat="49.3297" lon="-0.39245">
        <ele>7.4</ele>
        <time>2020-06-17T09:21:42Z</time>
      </trkpt>
      <trkpt lat="49.3297" lon="-0.39245">
        <ele>7.4</ele>
        <time>2020-06-17T09:21:43Z</time>
      </trkpt>
      <trkpt lat="49.3297" lon="-0.39246">
        <ele>7.4</ele>
        <time>2020-06-17T09:21:44Z</time>
      </trkpt>
      <trkpt lat="49.3297" lon="-0.39247">
        <ele>7.4</ele>
        <time>2020-06-17T09:21:45Z</time>
      </trkpt>
      <trkpt lat="49.3297" lon="-0.39247">
        <ele>7.4</ele>
        <time>2020-06-17T09:21:46Z</time>
      </trkpt>
      <trkpt lat="49.32971" lon="-0.39247">
        <ele>7.4</ele>
        <time>2020-06-17T09:21:47Z</time>
      </trkpt>
      <trkpt lat="49.32972" lon="-0.39246">
        <ele>7.4</ele>
        <time>2020-06-17T09:21:48Z</time>
      </trkpt>
      <trkpt lat="49.32972" lon="-0.39246">
        <ele>7.4</ele>
        <time>2020-06-17T09:21:49Z</time>
      </trkpt>
      <trkpt lat="49.32972" lon="-0.39246">
        <ele>7.4</ele>
        <time>2020-06-17T09:21:50Z</time>
      </trkpt>
      <trkpt lat="49.32972" lon="-0.39246">
        <ele>7.4</ele>
        <time>2020-06-17T09:21:51Z</time>
      </trkpt>
      <trkpt lat="49.32972" lon="-0.39245">
        <ele>7.4</ele>
        <time>2020-06-17T09:21:52Z</time>
      </trkpt>
      <trkpt lat="49.32972" lon="-0.39244">
        <ele>7.4</ele>
        <time>2020-06-17T09:21:53Z</time>
      </trkpt>
      <trkpt lat="49.32973" lon="-0.39244">
        <ele>7.4</ele>
        <time>2020-06-17T09:21:54Z</time>
      </trkpt>
      <trkpt lat="49.32973" lon="-0.39244">
        <ele>7.4</ele>
        <time>2020-06-17T09:21:55Z</time>
      </trkpt>
      <trkpt lat="49.32973" lon="-0.39244">
        <ele>7.4</ele>
        <time>2020-06-17T09:21:56Z</time>
      </trkpt>
      <trkpt lat="49.32973" lon="-0.39244">
        <ele>7.4</ele>
        <time>2020-06-17T09:21:57Z</time>
      </trkpt>
      <trkpt lat="49.32973" lon="-0.39244">
        <ele>7.4</ele>
        <time>2020-06-17T09:21:58Z</time>
      </trkpt>
      <trkpt lat="49.32973" lon="-0.39246">
        <ele>7.4</ele>
        <time>2020-06-17T09:21:59Z</time>
      </trkpt>
      <trkpt lat="49.32973" lon="-0.39246">
        <ele>7.4</ele>
        <time>2020-06-17T09:22:00Z</time>
      </trkpt>
      <trkpt lat="49.32973" lon="-0.39245">
        <ele>7.4</ele>
        <time>2020-06-17T09:22:01Z</time>
      </trkpt>
      <trkpt lat="49.32972" lon="-0.39245">
        <ele>7.4</ele>
        <time>2020-06-17T09:22:02Z</time>
      </trkpt>
      <trkpt lat="49.32972" lon="-0.39244">
        <ele>7.4</ele>
        <time>2020-06-17T09:22:03Z</time>
      </trkpt>
      <trkpt lat="49.32972" lon="-0.39244">
        <ele>7.4</ele>
        <time>2020-06-17T09:22:04Z</time>
      </trkpt>
      <trkpt lat="49.32972" lon="-0.39245">
        <ele>7.4</ele>
        <time>2020-06-17T09:22:05Z</time>
      </trkpt>
      <trkpt lat="49.32972" lon="-0.39245">
        <ele>7.4</ele>
        <time>2020-06-17T09:22:06Z</time>
      </trkpt>
      <trkpt lat="49.32973" lon="-0.39246">
        <ele>7.4</ele>
        <time>2020-06-17T09:22:07Z</time>
      </trkpt>
      <trkpt lat="49.32973" lon="-0.39247">
        <ele>7.4</ele>
        <time>2020-06-17T09:22:08Z</time>
      </trkpt>
      <trkpt lat="49.32973" lon="-0.39247">
        <ele>7.4</ele>
        <time>2020-06-17T09:22:09Z</time>
      </trkpt>
      <trkpt lat="49.32974" lon="-0.39248">
        <ele>7.4</ele>
        <time>2020-06-17T09:22:10Z</time>
      </trkpt>
      <trkpt lat="49.32974" lon="-0.39249">
        <ele>7.4</ele>
        <time>2020-06-17T09:22:11Z</time>
      </trkpt>
      <trkpt lat="49.32974" lon="-0.39249">
        <ele>7.4</ele>
        <time>2020-06-17T09:22:12Z</time>
      </trkpt>
      <trkpt lat="49.32973" lon="-0.3925">
        <ele>7.4</ele>
        <time>2020-06-17T09:22:13Z</time>
      </trkpt>
      <trkpt lat="49.32974" lon="-0.3925">
        <ele>7.4</ele>
        <time>2020-06-17T09:22:14Z</time>
      </trkpt>
      <trkpt lat="49.32973" lon="-0.39249">
        <ele>7.4</ele>
        <time>2020-06-17T09:22:15Z</time>
      </trkpt>
      <trkpt lat="49.32973" lon="-0.39249">
        <ele>7.4</ele>
        <time>2020-06-17T09:22:16Z</time>
      </trkpt>
      <trkpt lat="49.32973" lon="-0.39248">
        <ele>7.4</ele>
        <time>2020-06-17T09:22:17Z</time>
      </trkpt>
      <trkpt lat="49.32973" lon="-0.39248">
        <ele>7.4</ele>
        <time>2020-06-17T09:22:18Z</time>
      </trkpt>
      <trkpt lat="49.32973" lon="-0.39249">
        <ele>7.4</ele>
        <time>2020-06-17T09:22:19Z</time>
      </trkpt>
      <trkpt lat="49.32974" lon="-0.39249">
        <ele>7.4</ele>
        <time>2020-06-17T09:22:20Z</time>
      </trkpt>
      <trkpt lat="49.32974" lon="-0.39249">
        <ele>7.4</ele>
        <time>2020-06-17T09:22:21Z</time>
      </trkpt>
      <trkpt lat="49.32974" lon="-0.39249">
        <ele>7.4</ele>
        <time>2020-06-17T09:22:22Z</time>
      </trkpt>
      <trkpt lat="49.32973" lon="-0.39246">
        <ele>7.4</ele>
        <time>2020-06-17T09:22:23Z</time>
      </trkpt>
      <trkpt lat="49.32973" lon="-0.39246">
        <ele>7.4</ele>
        <time>2020-06-17T09:22:24Z</time>
      </trkpt>
      <trkpt lat="49.32973" lon="-0.39245">
        <ele>7.4</ele>
        <time>2020-06-17T09:22:25Z</time>
      </trkpt>
      <trkpt lat="49.32973" lon="-0.39245">
        <ele>7.4</ele>
        <time>2020-06-17T09:22:26Z</time>
      </trkpt>
      <trkpt lat="49.32973" lon="-0.39245">
        <ele>7.4</ele>
        <time>2020-06-17T09:22:27Z</time>
      </trkpt>
      <trkpt lat="49.32973" lon="-0.39245">
        <ele>7.4</ele>
        <time>2020-06-17T09:22:28Z</time>
      </trkpt>
      <trkpt lat="49.32973" lon="-0.39245">
        <ele>7.4</ele>
        <time>2020-06-17T09:22:29Z</time>
      </trkpt>
      <trkpt lat="49.32973" lon="-0.39244">
        <ele>7.4</ele>
        <time>2020-06-17T09:22:30Z</time>
      </trkpt>
      <trkpt lat="49.32973" lon="-0.39244">
        <ele>7.4</ele>
        <time>2020-06-17T09:22:31Z</time>
      </trkpt>
      <trkpt lat="49.32969" lon="-0.39246">
        <ele>7.4</ele>
        <time>2020-06-17T09:22:42Z</time>
      </trkpt>
      <trkpt lat="49.32968" lon="-0.39247">
        <ele>7.4</ele>
        <time>2020-06-17T09:22:43Z</time>
      </trkpt>
      <trkpt lat="49.32967" lon="-0.39247">
        <ele>7.4</ele>
        <time>2020-06-17T09:22:44Z</time>
      </trkpt>
      <trkpt lat="49.32966" lon="-0.39245">
        <ele>7.4</ele>
        <time>2020-06-17T09:22:45Z</time>
      </trkpt>
      <trkpt lat="49.32966" lon="-0.39245">
        <ele>7.4</ele>
        <time>2020-06-17T09:22:46Z</time>
      </trkpt>
      <trkpt lat="49.32965" lon="-0.39245">
        <ele>7.5</ele>
        <time>2020-06-17T09:22:47Z</time>
      </trkpt>
      <trkpt lat="49.32964" lon="-0.39245">
        <ele>7.5</ele>
        <time>2020-06-17T09:22:48Z</time>
      </trkpt>
      <trkpt lat="49.32964" lon="-0.39245">
        <ele>7.5</ele>
        <time>2020-06-17T09:22:49Z</time>
      </trkpt>
      <trkpt lat="49.32964" lon="-0.39244">
        <ele>7.5</ele>
        <time>2020-06-17T09:22:50Z</time>
      </trkpt>
      <trkpt lat="49.32964" lon="-0.39243">
        <ele>7.5</ele>
        <time>2020-06-17T09:22:51Z</time>
      </trkpt>
      <trkpt lat="49.32964" lon="-0.39242">
        <ele>7.5</ele>
        <time>2020-06-17T09:22:52Z</time>
      </trkpt>
      <trkpt lat="49.32964" lon="-0.39242">
        <ele>7.5</ele>
        <time>2020-06-17T09:22:53Z</time>
      </trkpt>
      <trkpt lat="49.32964" lon="-0.39243">
        <ele>7.5</ele>
        <time>2020-06-17T09:22:54Z</time>
      </trkpt>
      <trkpt lat="49.32964" lon="-0.39243">
        <ele>7.5</ele>
        <time>2020-06-17T09:22:55Z</time>
      </trkpt>
      <trkpt lat="49.32968" lon="-0.39249">
        <ele>7.5</ele>
        <time>2020-06-17T09:23:07Z</time>
      </trkpt>
      <trkpt lat="49.32969" lon="-0.3925">
        <ele>7.5</ele>
        <time>2020-06-17T09:23:08Z</time>
      </trkpt>
      <trkpt lat="49.32968" lon="-0.39249">
        <ele>7.5</ele>
        <time>2020-06-17T09:23:09Z</time>
      </trkpt>
      <trkpt lat="49.32968" lon="-0.39248">
        <ele>7.5</ele>
        <time>2020-06-17T09:23:10Z</time>
      </trkpt>
      <trkpt lat="49.32967" lon="-0.39248">
        <ele>7.5</ele>
        <time>2020-06-17T09:23:11Z</time>
      </trkpt>
      <trkpt lat="49.32967" lon="-0.39247">
        <ele>7.5</ele>
        <time>2020-06-17T09:23:12Z</time>
      </trkpt>
      <trkpt lat="49.32967" lon="-0.39246">
        <ele>7.5</ele>
        <time>2020-06-17T09:23:13Z</time>
      </trkpt>
      <trkpt lat="49.32966" lon="-0.39246">
        <ele>7.5</ele>
        <time>2020-06-17T09:23:14Z</time>
      </trkpt>
      <trkpt lat="49.32966" lon="-0.39246">
        <ele>7.5</ele>
        <time>2020-06-17T09:23:15Z</time>
      </trkpt>
      <trkpt lat="49.32965" lon="-0.39245">
        <ele>7.5</ele>
        <time>2020-06-17T09:23:16Z</time>
      </trkpt>
      <trkpt lat="49.32965" lon="-0.39246">
        <ele>7.5</ele>
        <time>2020-06-17T09:23:17Z</time>
      </trkpt>
      <trkpt lat="49.32965" lon="-0.39246">
        <ele>7.5</ele>
        <time>2020-06-17T09:23:18Z</time>
      </trkpt>
      <trkpt lat="49.32965" lon="-0.39246">
        <ele>7.5</ele>
        <time>2020-06-17T09:23:19Z</time>
      </trkpt>
      <trkpt lat="49.32965" lon="-0.39245">
        <ele>7.5</ele>
        <time>2020-06-17T09:23:20Z</time>
      </trkpt>
      <trkpt lat="49.32964" lon="-0.39245">
        <ele>7.5</ele>
        <time>2020-06-17T09:23:21Z</time>
      </trkpt>
      <trkpt lat="49.32964" lon="-0.39245">
        <ele>7.5</ele>
        <time>2020-06-17T09:23:22Z</time>
      </trkpt>
      <trkpt lat="49.32963" lon="-0.39242">
        <ele>7.5</ele>
        <time>2020-06-17T09:23:23Z</time>
      </trkpt>
      <trkpt lat="49.32962" lon="-0.39239">
        <ele>7.5</ele>
        <time>2020-06-17T09:23:24Z</time>
      </trkpt>
      <trkpt lat="49.32962" lon="-0.39238">
        <ele>7.5</ele>
        <time>2020-06-17T09:23:25Z</time>
      </trkpt>
      <trkpt lat="49.32961" lon="-0.39238">
        <ele>7.5</ele>
        <time>2020-06-17T09:23:26Z</time>
      </trkpt>
      <trkpt lat="49.32961" lon="-0.39237">
        <ele>7.5</ele>
        <time>2020-06-17T09:23:27Z</time>
      </trkpt>
      <trkpt lat="49.32961" lon="-0.39237">
        <ele>7.5</ele>
        <time>2020-06-17T09:23:28Z</time>
      </trkpt>
      <trkpt lat="49.32961" lon="-0.39238">
        <ele>7.5</ele>
        <time>2020-06-17T09:23:29Z</time>
      </trkpt>
      <trkpt lat="49.32961" lon="-0.39238">
        <ele>7.5</ele>
        <time>2020-06-17T09:23:30Z</time>
      </trkpt>
      <trkpt lat="49.32961" lon="-0.39238">
        <ele>7.5</ele>
        <time>2020-06-17T09:23:31Z</time>
      </trkpt>
      <trkpt lat="49.32961" lon="-0.39238">
        <ele>7.5</ele>
        <time>2020-06-17T09:23:32Z</time>
      </trkpt>
      <trkpt lat="49.32962" lon="-0.39238">
        <ele>7.5</ele>
        <time>2020-06-17T09:23:33Z</time>
      </trkpt>
      <trkpt lat="49.32962" lon="-0.39238">
        <ele>7.5</ele>
        <time>2020-06-17T09:23:34Z</time>
      </trkpt>
      <trkpt lat="49.32962" lon="-0.39238">
        <ele>7.5</ele>
        <time>2020-06-17T09:23:35Z</time>
      </trkpt>
      <trkpt lat="49.32962" lon="-0.39239">
        <ele>7.6</ele>
        <time>2020-06-17T09:23:36Z</time>
      </trkpt>
      <trkpt lat="49.32962" lon="-0.3924">
        <ele>7.6</ele>
        <time>2020-06-17T09:23:37Z</time>
      </trkpt>
      <trkpt lat="49.32962" lon="-0.39242">
        <ele>7.6</ele>
        <time>2020-06-17T09:23:38Z</time>
      </trkpt>
      <trkpt lat="49.32962" lon="-0.39243">
        <ele>7.6</ele>
        <time>2020-06-17T09:23:39Z</time>
      </trkpt>
      <trkpt lat="49.32962" lon="-0.39244">
        <ele>7.6</ele>
        <time>2020-06-17T09:23:40Z</time>
      </trkpt>
      <trkpt lat="49.32962" lon="-0.39244">
        <ele>7.6</ele>
        <time>2020-06-17T09:23:41Z</time>
      </trkpt>
      <trkpt lat="49.32961" lon="-0.39246">
        <ele>7.6</ele>
        <time>2020-06-17T09:23:42Z</time>
      </trkpt>
      <trkpt lat="49.3296" lon="-0.39246">
        <ele>7.6</ele>
        <time>2020-06-17T09:23:43Z</time>
      </trkpt>
      <trkpt lat="49.3296" lon="-0.39246">
        <ele>7.6</ele>
        <time>2020-06-17T09:23:44Z</time>
      </trkpt>
      <trkpt lat="49.32959" lon="-0.39246">
        <ele>7.6</ele>
        <time>2020-06-17T09:23:45Z</time>
      </trkpt>
      <trkpt lat="49.32958" lon="-0.39246">
        <ele>7.6</ele>
        <time>2020-06-17T09:23:46Z</time>
      </trkpt>
      <trkpt lat="49.32958" lon="-0.39246">
        <ele>7.6</ele>
        <time>2020-06-17T09:23:47Z</time>
      </trkpt>
      <trkpt lat="49.32956" lon="-0.39245">
        <ele>7.6</ele>
        <time>2020-06-17T09:23:48Z</time>
      </trkpt>
      <trkpt lat="49.32955" lon="-0.39244">
        <ele>7.6</ele>
        <time>2020-06-17T09:23:49Z</time>
      </trkpt>
      <trkpt lat="49.32955" lon="-0.39244">
        <ele>7.6</ele>
        <time>2020-06-17T09:23:50Z</time>
      </trkpt>
      <trkpt lat="49.32954" lon="-0.39244">
        <ele>7.6</ele>
        <time>2020-06-17T09:23:51Z</time>
      </trkpt>
      <trkpt lat="49.32954" lon="-0.39244">
        <ele>7.6</ele>
        <time>2020-06-17T09:23:52Z</time>
      </trkpt>
      <trkpt lat="49.32955" lon="-0.39243">
        <ele>7.6</ele>
        <time>2020-06-17T09:23:53Z</time>
      </trkpt>
      <trkpt lat="49.32955" lon="-0.39243">
        <ele>7.6</ele>
        <time>2020-06-17T09:23:54Z</time>
      </trkpt>
      <trkpt lat="49.32954" lon="-0.39243">
        <ele>7.6</ele>
        <time>2020-06-17T09:23:55Z</time>
      </trkpt>
      <trkpt lat="49.32954" lon="-0.39242">
        <ele>7.6</ele>
        <time>2020-06-17T09:23:56Z</time>
      </trkpt>
      <trkpt lat="49.32954" lon="-0.39243">
        <ele>7.6</ele>
        <time>2020-06-17T09:23:57Z</time>
      </trkpt>
      <trkpt lat="49.32954" lon="-0.39243">
        <ele>7.6</ele>
        <time>2020-06-17T09:23:58Z</time>
      </trkpt>
      <trkpt lat="49.32954" lon="-0.39243">
        <ele>7.7</ele>
        <time>2020-06-17T09:23:59Z</time>
      </trkpt>
      <trkpt lat="49.32954" lon="-0.39243">
        <ele>7.7</ele>
        <time>2020-06-17T09:24:00Z</time>
      </trkpt>
      <trkpt lat="49.32954" lon="-0.39243">
        <ele>7.7</ele>
        <time>2020-06-17T09:24:01Z</time>
      </trkpt>
      <trkpt lat="49.32954" lon="-0.39243">
        <ele>7.7</ele>
        <time>2020-06-17T09:24:02Z</time>
      </trkpt>
      <trkpt lat="49.32967" lon="-0.39241">
        <ele>7.7</ele>
        <time>2020-06-17T09:24:41Z</time>
      </trkpt>
      <trkpt lat="49.32967" lon="-0.3924">
        <ele>7.7</ele>
        <time>2020-06-17T09:24:42Z</time>
      </trkpt>
      <trkpt lat="49.32968" lon="-0.39241">
        <ele>7.7</ele>
        <time>2020-06-17T09:24:43Z</time>
      </trkpt>
      <trkpt lat="49.32969" lon="-0.39241">
        <ele>7.7</ele>
        <time>2020-06-17T09:24:44Z</time>
      </trkpt>
      <trkpt lat="49.32969" lon="-0.39241">
        <ele>7.7</ele>
        <time>2020-06-17T09:24:45Z</time>
      </trkpt>
      <trkpt lat="49.32968" lon="-0.39241">
        <ele>7.7</ele>
        <time>2020-06-17T09:24:46Z</time>
      </trkpt>
      <trkpt lat="49.32969" lon="-0.39242">
        <ele>7.7</ele>
        <time>2020-06-17T09:24:47Z</time>
      </trkpt>
      <trkpt lat="49.32969" lon="-0.39242">
        <ele>7.7</ele>
        <time>2020-06-17T09:24:48Z</time>
      </trkpt>
      <trkpt lat="49.32969" lon="-0.39242">
        <ele>7.7</ele>
        <time>2020-06-17T09:24:49Z</time>
      </trkpt>
      <trkpt lat="49.32969" lon="-0.39243">
        <ele>7.7</ele>
        <time>2020-06-17T09:24:50Z</time>
      </trkpt>
      <trkpt lat="49.32969" lon="-0.39242">
        <ele>7.7</ele>
        <time>2020-06-17T09:24:51Z</time>
      </trkpt>
      <trkpt lat="49.32969" lon="-0.39243">
        <ele>7.7</ele>
        <time>2020-06-17T09:24:52Z</time>
      </trkpt>
      <trkpt lat="49.32969" lon="-0.39242">
        <ele>7.7</ele>
        <time>2020-06-17T09:24:53Z</time>
      </trkpt>
      <trkpt lat="49.32969" lon="-0.39243">
        <ele>7.7</ele>
        <time>2020-06-17T09:24:54Z</time>
      </trkpt>
      <trkpt lat="49.32969" lon="-0.39243">
        <ele>7.7</ele>
        <time>2020-06-17T09:24:55Z</time>
      </trkpt>
      <trkpt lat="49.32969" lon="-0.39243">
        <ele>7.7</ele>
        <time>2020-06-17T09:24:56Z</time>
      </trkpt>
      <trkpt lat="49.32969" lon="-0.39243">
        <ele>7.7</ele>
        <time>2020-06-17T09:24:57Z</time>
      </trkpt>
      <trkpt lat="49.32969" lon="-0.39243">
        <ele>7.7</ele>
        <time>2020-06-17T09:24:58Z</time>
      </trkpt>
      <trkpt lat="49.32969" lon="-0.39243">
        <ele>7.7</ele>
        <time>2020-06-17T09:24:59Z</time>
      </trkpt>
      <trkpt lat="49.32969" lon="-0.39242">
        <ele>7.7</ele>
        <time>2020-06-17T09:25:00Z</time>
      </trkpt>
      <trkpt lat="49.32969" lon="-0.39242">
        <ele>7.7</ele>
        <time>2020-06-17T09:25:01Z</time>
      </trkpt>
      <trkpt lat="49.32969" lon="-0.39242">
        <ele>7.7</ele>
        <time>2020-06-17T09:25:02Z</time>
      </trkpt>
      <trkpt lat="49.32969" lon="-0.39241">
        <ele>7.7</ele>
        <time>2020-06-17T09:25:03Z</time>
      </trkpt>
      <trkpt lat="49.32968" lon="-0.39241">
        <ele>7.7</ele>
        <time>2020-06-17T09:25:04Z</time>
      </trkpt>
      <trkpt lat="49.32968" lon="-0.39241">
        <ele>7.7</ele>
        <time>2020-06-17T09:25:05Z</time>
      </trkpt>
      <trkpt lat="49.32968" lon="-0.39241">
        <ele>7.7</ele>
        <time>2020-06-17T09:25:06Z</time>
      </trkpt>
      <trkpt lat="49.32968" lon="-0.39242">
        <ele>7.7</ele>
        <time>2020-06-17T09:25:07Z</time>
      </trkpt>
      <trkpt lat="49.32967" lon="-0.39242">
        <ele>7.7</ele>
        <time>2020-06-17T09:25:08Z</time>
      </trkpt>
      <trkpt lat="49.32967" lon="-0.39242">
        <ele>7.7</ele>
        <time>2020-06-17T09:25:09Z</time>
      </trkpt>
      <trkpt lat="49.32968" lon="-0.39242">
        <ele>7.7</ele>
        <time>2020-06-17T09:25:10Z</time>
      </trkpt>
      <trkpt lat="49.32968" lon="-0.39244">
        <ele>7.7</ele>
        <time>2020-06-17T09:25:11Z</time>
      </trkpt>
      <trkpt lat="49.32968" lon="-0.39244">
        <ele>7.7</ele>
        <time>2020-06-17T09:25:12Z</time>
      </trkpt>
      <trkpt lat="49.32968" lon="-0.39244">
        <ele>7.7</ele>
        <time>2020-06-17T09:25:13Z</time>
      </trkpt>
      <trkpt lat="49.32968" lon="-0.39244">
        <ele>7.7</ele>
        <time>2020-06-17T09:25:14Z</time>
      </trkpt>
      <trkpt lat="49.32967" lon="-0.39243">
        <ele>7.7</ele>
        <time>2020-06-17T09:25:15Z</time>
      </trkpt>
      <trkpt lat="49.32967" lon="-0.39243">
        <ele>7.7</ele>
        <time>2020-06-17T09:25:16Z</time>
      </trkpt>
      <trkpt lat="49.32967" lon="-0.39243">
        <ele>7.7</ele>
        <time>2020-06-17T09:25:17Z</time>
      </trkpt>
      <trkpt lat="49.32966" lon="-0.39243">
        <ele>7.7</ele>
        <time>2020-06-17T09:25:18Z</time>
      </trkpt>
      <trkpt lat="49.32966" lon="-0.39242">
        <ele>7.8</ele>
        <time>2020-06-17T09:25:19Z</time>
      </trkpt>
      <trkpt lat="49.32964" lon="-0.39241">
        <ele>7.8</ele>
        <time>2020-06-17T09:25:20Z</time>
      </trkpt>
      <trkpt lat="49.32964" lon="-0.3924">
        <ele>7.8</ele>
        <time>2020-06-17T09:25:21Z</time>
      </trkpt>
      <trkpt lat="49.32963" lon="-0.39239">
        <ele>7.8</ele>
        <time>2020-06-17T09:25:22Z</time>
      </trkpt>
      <trkpt lat="49.32962" lon="-0.39238">
        <ele>7.8</ele>
        <time>2020-06-17T09:25:23Z</time>
      </trkpt>
      <trkpt lat="49.32962" lon="-0.39237">
        <ele>7.8</ele>
        <time>2020-06-17T09:25:24Z</time>
      </trkpt>
      <trkpt lat="49.32961" lon="-0.39237">
        <ele>7.8</ele>
        <time>2020-06-17T09:25:25Z</time>
      </trkpt>
      <trkpt lat="49.3296" lon="-0.39236">
        <ele>7.8</ele>
        <time>2020-06-17T09:25:26Z</time>
      </trkpt>
      <trkpt lat="49.3296" lon="-0.39235">
        <ele>7.8</ele>
        <time>2020-06-17T09:25:27Z</time>
      </trkpt>
      <trkpt lat="49.32959" lon="-0.39234">
        <ele>7.8</ele>
        <time>2020-06-17T09:25:28Z</time>
      </trkpt>
      <trkpt lat="49.32958" lon="-0.39234">
        <ele>7.8</ele>
        <time>2020-06-17T09:25:29Z</time>
      </trkpt>
      <trkpt lat="49.32958" lon="-0.39233">
        <ele>7.8</ele>
        <time>2020-06-17T09:26:34Z</time>
      </trkpt>
      <trkpt lat="49.32957" lon="-0.39232">
        <ele>7.8</ele>
        <time>2020-06-17T09:26:35Z</time>
      </trkpt>
      <trkpt lat="49.32957" lon="-0.39231">
        <ele>7.8</ele>
        <time>2020-06-17T09:26:36Z</time>
      </trkpt>
      <trkpt lat="49.32956" lon="-0.3923">
        <ele>7.8</ele>
        <time>2020-06-17T09:26:37Z</time>
      </trkpt>
      <trkpt lat="49.32955" lon="-0.39228">
        <ele>7.9</ele>
        <time>2020-06-17T09:26:38Z</time>
      </trkpt>
      <trkpt lat="49.32955" lon="-0.39225">
        <ele>7.9</ele>
        <time>2020-06-17T09:26:39Z</time>
      </trkpt>
      <trkpt lat="49.32956" lon="-0.3922">
        <ele>8</ele>
        <time>2020-06-17T09:26:40Z</time>
      </trkpt>
      <trkpt lat="49.32956" lon="-0.39218">
        <ele>8</ele>
        <time>2020-06-17T09:26:41Z</time>
      </trkpt>
      <trkpt lat="49.32955" lon="-0.39213">
        <ele>8</ele>
        <time>2020-06-17T09:26:42Z</time>
      </trkpt>
      <trkpt lat="49.32955" lon="-0.39211">
        <ele>8.1</ele>
        <time>2020-06-17T09:26:43Z</time>
      </trkpt>
      <trkpt lat="49.32953" lon="-0.39206">
        <ele>8.1</ele>
        <time>2020-06-17T09:26:44Z</time>
      </trkpt>
      <trkpt lat="49.32953" lon="-0.39205">
        <ele>8.1</ele>
        <time>2020-06-17T09:26:45Z</time>
      </trkpt>
      <trkpt lat="49.32951" lon="-0.392">
        <ele>8.2</ele>
        <time>2020-06-17T09:26:46Z</time>
      </trkpt>
      <trkpt lat="49.3295" lon="-0.39199">
        <ele>8.2</ele>
        <time>2020-06-17T09:26:47Z</time>
      </trkpt>
      <trkpt lat="49.3295" lon="-0.39197">
        <ele>8.2</ele>
        <time>2020-06-17T09:26:48Z</time>
      </trkpt>
      <trkpt lat="49.32948" lon="-0.39194">
        <ele>8.3</ele>
        <time>2020-06-17T09:26:49Z</time>
      </trkpt>
      <trkpt lat="49.32947" lon="-0.39189">
        <ele>8.3</ele>
        <time>2020-06-17T09:26:50Z</time>
      </trkpt>
      <trkpt lat="49.32946" lon="-0.39187">
        <ele>8.4</ele>
        <time>2020-06-17T09:26:51Z</time>
      </trkpt>
      <trkpt lat="49.32944" lon="-0.39184">
        <ele>8.4</ele>
        <time>2020-06-17T09:26:52Z</time>
      </trkpt>
      <trkpt lat="49.32941" lon="-0.3918">
        <ele>8.5</ele>
        <time>2020-06-17T09:26:53Z</time>
      </trkpt>
      <trkpt lat="49.3294" lon="-0.39179">
        <ele>8.5</ele>
        <time>2020-06-17T09:26:54Z</time>
      </trkpt>
      <trkpt lat="49.32938" lon="-0.39176">
        <ele>8.5</ele>
        <time>2020-06-17T09:26:55Z</time>
      </trkpt>
      <trkpt lat="49.32936" lon="-0.39172">
        <ele>8.7</ele>
        <time>2020-06-17T09:26:56Z</time>
      </trkpt>
      <trkpt lat="49.32935" lon="-0.39171">
        <ele>8.7</ele>
        <time>2020-06-17T09:26:57Z</time>
      </trkpt>
      <trkpt lat="49.32933" lon="-0.39167">
        <ele>8.8</ele>
        <time>2020-06-17T09:26:58Z</time>
      </trkpt>
      <trkpt lat="49.32931" lon="-0.39162">
        <ele>8.9</ele>
        <time>2020-06-17T09:26:59Z</time>
      </trkpt>
      <trkpt lat="49.32929" lon="-0.39156">
        <ele>9.1</ele>
        <time>2020-06-17T09:27:00Z</time>
      </trkpt>
      <trkpt lat="49.32927" lon="-0.39151">
        <ele>9.1</ele>
        <time>2020-06-17T09:27:01Z</time>
      </trkpt>
      <trkpt lat="49.32925" lon="-0.39147">
        <ele>9</ele>
        <time>2020-06-17T09:27:02Z</time>
      </trkpt>
      <trkpt lat="49.32922" lon="-0.39143">
        <ele>9</ele>
        <time>2020-06-17T09:27:03Z</time>
      </trkpt>
      <trkpt lat="49.3292" lon="-0.39139">
        <ele>8.9</ele>
        <time>2020-06-17T09:27:04Z</time>
      </trkpt>
      <trkpt lat="49.32918" lon="-0.39134">
        <ele>8.9</ele>
        <time>2020-06-17T09:27:05Z</time>
      </trkpt>
      <trkpt lat="49.32917" lon="-0.39129">
        <ele>8.8</ele>
        <time>2020-06-17T09:27:06Z</time>
      </trkpt>
      <trkpt lat="49.32916" lon="-0.39124">
        <ele>8.8</ele>
        <time>2020-06-17T09:27:07Z</time>
      </trkpt>
      <trkpt lat="49.32914" lon="-0.39118">
        <ele>8.8</ele>
        <time>2020-06-17T09:27:08Z</time>
      </trkpt>
      <trkpt lat="49.32912" lon="-0.39112">
        <ele>8.7</ele>
        <time>2020-06-17T09:27:09Z</time>
      </trkpt>
      <trkpt lat="49.3291" lon="-0.39107">
        <ele>8.7</ele>
        <time>2020-06-17T09:27:10Z</time>
      </trkpt>
      <trkpt lat="49.32908" lon="-0.39101">
        <ele>8.7</ele>
        <time>2020-06-17T09:27:11Z</time>
      </trkpt>
      <trkpt lat="49.32906" lon="-0.39096">
        <ele>8.6</ele>
        <time>2020-06-17T09:27:12Z</time>
      </trkpt>
      <trkpt lat="49.32904" lon="-0.39089">
        <ele>8.6</ele>
        <time>2020-06-17T09:27:13Z</time>
      </trkpt>
      <trkpt lat="49.32903" lon="-0.39083">
        <ele>8.6</ele>
        <time>2020-06-17T09:27:14Z</time>
      </trkpt>
      <trkpt lat="49.32902" lon="-0.39076">
        <ele>8.6</ele>
        <time>2020-06-17T09:27:15Z</time>
      </trkpt>
      <trkpt lat="49.329" lon="-0.3907">
        <ele>8.6</ele>
        <time>2020-06-17T09:27:16Z</time>
      </trkpt>
      <trkpt lat="49.32897" lon="-0.39062">
        <ele>8.6</ele>
        <time>2020-06-17T09:27:17Z</time>
      </trkpt>
      <trkpt lat="49.32895" lon="-0.39057">
        <ele>8.6</ele>
        <time>2020-06-17T09:27:18Z</time>
      </trkpt>
      <trkpt lat="49.32892" lon="-0.3905">
        <ele>8.6</ele>
        <time>2020-06-17T09:27:19Z</time>
      </trkpt>
      <trkpt lat="49.32889" lon="-0.39043">
        <ele>8.6</ele>
        <time>2020-06-17T09:27:20Z</time>
      </trkpt>
      <trkpt lat="49.32887" lon="-0.39037">
        <ele>8.6</ele>
        <time>2020-06-17T09:27:21Z</time>
      </trkpt>
      <trkpt lat="49.32885" lon="-0.39032">
        <ele>8.6</ele>
        <time>2020-06-17T09:27:22Z</time>
      </trkpt>
      <trkpt lat="49.32883" lon="-0.39027">
        <ele>8.6</ele>
        <time>2020-06-17T09:27:23Z</time>
      </trkpt>
      <trkpt lat="49.32881" lon="-0.39022">
        <ele>8.6</ele>
        <time>2020-06-17T09:27:24Z</time>
      </trkpt>
      <trkpt lat="49.3288" lon="-0.39017">
        <ele>8.6</ele>
        <time>2020-06-17T09:27:25Z</time>
      </trkpt>
      <trkpt lat="49.32878" lon="-0.3901">
        <ele>8.7</ele>
        <time>2020-06-17T09:27:26Z</time>
      </trkpt>
      <trkpt lat="49.32876" lon="-0.39004">
        <ele>8.7</ele>
        <time>2020-06-17T09:27:27Z</time>
      </trkpt>
      <trkpt lat="49.32874" lon="-0.38997">
        <ele>8.7</ele>
        <time>2020-06-17T09:27:28Z</time>
      </trkpt>
      <trkpt lat="49.32873" lon="-0.3899">
        <ele>8.7</ele>
        <time>2020-06-17T09:27:29Z</time>
      </trkpt>
      <trkpt lat="49.32871" lon="-0.38984">
        <ele>8.7</ele>
        <time>2020-06-17T09:27:30Z</time>
      </trkpt>
      <trkpt lat="49.32868" lon="-0.38978">
        <ele>8.8</ele>
        <time>2020-06-17T09:27:31Z</time>
      </trkpt>
      <trkpt lat="49.32866" lon="-0.38973">
        <ele>8.8</ele>
        <time>2020-06-17T09:27:32Z</time>
      </trkpt>
      <trkpt lat="49.32864" lon="-0.38969">
        <ele>8.8</ele>
        <time>2020-06-17T09:27:33Z</time>
      </trkpt>
      <trkpt lat="49.32863" lon="-0.38964">
        <ele>8.8</ele>
        <time>2020-06-17T09:27:34Z</time>
      </trkpt>
      <trkpt lat="49.32861" lon="-0.3896">
        <ele>8.8</ele>
        <time>2020-06-17T09:27:35Z</time>
      </trkpt>
      <trkpt lat="49.32858" lon="-0.38955">
        <ele>8.8</ele>
        <time>2020-06-17T09:27:36Z</time>
      </trkpt>
      <trkpt lat="49.32855" lon="-0.3895">
        <ele>8.9</ele>
        <time>2020-06-17T09:27:37Z</time>
      </trkpt>
      <trkpt lat="49.32852" lon="-0.38944">
        <ele>8.9</ele>
        <time>2020-06-17T09:27:38Z</time>
      </trkpt>
      <trkpt lat="49.3285" lon="-0.38938">
        <ele>8.9</ele>
        <time>2020-06-17T09:27:39Z</time>
      </trkpt>
      <trkpt lat="49.32847" lon="-0.38933">
        <ele>8.9</ele>
        <time>2020-06-17T09:27:40Z</time>
      </trkpt>
      <trkpt lat="49.32844" lon="-0.38927">
        <ele>8.9</ele>
        <time>2020-06-17T09:27:41Z</time>
      </trkpt>
      <trkpt lat="49.32841" lon="-0.38922">
        <ele>8.9</ele>
        <time>2020-06-17T09:27:42Z</time>
      </trkpt>
      <trkpt lat="49.32838" lon="-0.38916">
        <ele>8.9</ele>
        <time>2020-06-17T09:27:43Z</time>
      </trkpt>
      <trkpt lat="49.32834" lon="-0.38908">
        <ele>8.9</ele>
        <time>2020-06-17T09:27:44Z</time>
      </trkpt>
      <trkpt lat="49.32831" lon="-0.38901">
        <ele>8.9</ele>
        <time>2020-06-17T09:27:45Z</time>
      </trkpt>
      <trkpt lat="49.32828" lon="-0.38895">
        <ele>8.9</ele>
        <time>2020-06-17T09:27:46Z</time>
      </trkpt>
      <trkpt lat="49.32825" lon="-0.3889">
        <ele>8.9</ele>
        <time>2020-06-17T09:27:47Z</time>
      </trkpt>
      <trkpt lat="49.32821" lon="-0.38885">
        <ele>8.9</ele>
        <time>2020-06-17T09:27:48Z</time>
      </trkpt>
      <trkpt lat="49.32818" lon="-0.38881">
        <ele>8.9</ele>
        <time>2020-06-17T09:27:49Z</time>
      </trkpt>
      <trkpt lat="49.32815" lon="-0.38876">
        <ele>8.9</ele>
        <time>2020-06-17T09:27:50Z</time>
      </trkpt>
      <trkpt lat="49.32811" lon="-0.3887">
        <ele>8.9</ele>
        <time>2020-06-17T09:27:51Z</time>
      </trkpt>
      <trkpt lat="49.32806" lon="-0.38865">
        <ele>8.9</ele>
        <time>2020-06-17T09:27:52Z</time>
      </trkpt>
      <trkpt lat="49.32802" lon="-0.3886">
        <ele>8.8</ele>
        <time>2020-06-17T09:27:53Z</time>
      </trkpt>
      <trkpt lat="49.32799" lon="-0.38856">
        <ele>8.8</ele>
        <time>2020-06-17T09:27:54Z</time>
      </trkpt>
      <trkpt lat="49.32796" lon="-0.38852">
        <ele>8.7</ele>
        <time>2020-06-17T09:27:55Z</time>
      </trkpt>
      <trkpt lat="49.32793" lon="-0.38846">
        <ele>8.7</ele>
        <time>2020-06-17T09:27:56Z</time>
      </trkpt>
      <trkpt lat="49.32791" lon="-0.3884">
        <ele>8.7</ele>
        <time>2020-06-17T09:27:57Z</time>
      </trkpt>
      <trkpt lat="49.32788" lon="-0.38833">
        <ele>8.6</ele>
        <time>2020-06-17T09:27:58Z</time>
      </trkpt>
      <trkpt lat="49.32784" lon="-0.38827">
        <ele>8.6</ele>
        <time>2020-06-17T09:27:59Z</time>
      </trkpt>
      <trkpt lat="49.32779" lon="-0.38821">
        <ele>8.6</ele>
        <time>2020-06-17T09:28:00Z</time>
      </trkpt>
      <trkpt lat="49.32774" lon="-0.38814">
        <ele>8.6</ele>
        <time>2020-06-17T09:28:01Z</time>
      </trkpt>
      <trkpt lat="49.3277" lon="-0.38808">
        <ele>8.6</ele>
        <time>2020-06-17T09:28:02Z</time>
      </trkpt>
      <trkpt lat="49.32765" lon="-0.38802">
        <ele>8.6</ele>
        <time>2020-06-17T09:28:03Z</time>
      </trkpt>
      <trkpt lat="49.32761" lon="-0.38797">
        <ele>8.5</ele>
        <time>2020-06-17T09:28:04Z</time>
      </trkpt>
      <trkpt lat="49.32757" lon="-0.38791">
        <ele>8.5</ele>
        <time>2020-06-17T09:28:05Z</time>
      </trkpt>
      <trkpt lat="49.32753" lon="-0.38786">
        <ele>8.5</ele>
        <time>2020-06-17T09:28:06Z</time>
      </trkpt>
      <trkpt lat="49.32749" lon="-0.38778">
        <ele>8.5</ele>
        <time>2020-06-17T09:28:07Z</time>
      </trkpt>
      <trkpt lat="49.32745" lon="-0.38772">
        <ele>8.5</ele>
        <time>2020-06-17T09:28:08Z</time>
      </trkpt>
      <trkpt lat="49.32742" lon="-0.38765">
        <ele>8.5</ele>
        <time>2020-06-17T09:28:09Z</time>
      </trkpt>
      <trkpt lat="49.32739" lon="-0.38757">
        <ele>8.5</ele>
        <time>2020-06-17T09:28:10Z</time>
      </trkpt>
      <trkpt lat="49.32736" lon="-0.38751">
        <ele>8.5</ele>
        <time>2020-06-17T09:28:11Z</time>
      </trkpt>
      <trkpt lat="49.32733" lon="-0.38744">
        <ele>8.5</ele>
        <time>2020-06-17T09:28:12Z</time>
      </trkpt>
      <trkpt lat="49.3273" lon="-0.38739">
        <ele>8.6</ele>
        <time>2020-06-17T09:28:13Z</time>
      </trkpt>
      <trkpt lat="49.32726" lon="-0.38734">
        <ele>8.6</ele>
        <time>2020-06-17T09:28:14Z</time>
      </trkpt>
      <trkpt lat="49.32722" lon="-0.38729">
        <ele>8.6</ele>
        <time>2020-06-17T09:28:15Z</time>
      </trkpt>
      <trkpt lat="49.32719" lon="-0.38725">
        <ele>8.7</ele>
        <time>2020-06-17T09:28:16Z</time>
      </trkpt>
      <trkpt lat="49.32714" lon="-0.38722">
        <ele>8.6</ele>
        <time>2020-06-17T09:28:17Z</time>
      </trkpt>
      <trkpt lat="49.3271" lon="-0.38718">
        <ele>8.4</ele>
        <time>2020-06-17T09:28:18Z</time>
      </trkpt>
      <trkpt lat="49.32707" lon="-0.38713">
        <ele>8.4</ele>
        <time>2020-06-17T09:28:19Z</time>
      </trkpt>
      <trkpt lat="49.32705" lon="-0.38708">
        <ele>8.3</ele>
        <time>2020-06-17T09:28:20Z</time>
      </trkpt>
      <trkpt lat="49.32703" lon="-0.38702">
        <ele>8.3</ele>
        <time>2020-06-17T09:28:21Z</time>
      </trkpt>
      <trkpt lat="49.32702" lon="-0.38696">
        <ele>8.2</ele>
        <time>2020-06-17T09:28:22Z</time>
      </trkpt>
      <trkpt lat="49.32701" lon="-0.3869">
        <ele>8.2</ele>
        <time>2020-06-17T09:28:23Z</time>
      </trkpt>
      <trkpt lat="49.32699" lon="-0.38683">
        <ele>8</ele>
        <time>2020-06-17T09:28:24Z</time>
      </trkpt>
      <trkpt lat="49.32697" lon="-0.38676">
        <ele>7.9</ele>
        <time>2020-06-17T09:28:25Z</time>
      </trkpt>
      <trkpt lat="49.32695" lon="-0.38669">
        <ele>7.8</ele>
        <time>2020-06-17T09:28:26Z</time>
      </trkpt>
      <trkpt lat="49.32693" lon="-0.38663">
        <ele>7.7</ele>
        <time>2020-06-17T09:28:27Z</time>
      </trkpt>
      <trkpt lat="49.32691" lon="-0.38657">
        <ele>7.6</ele>
        <time>2020-06-17T09:28:28Z</time>
      </trkpt>
      <trkpt lat="49.32688" lon="-0.38651">
        <ele>7.5</ele>
        <time>2020-06-17T09:28:29Z</time>
      </trkpt>
      <trkpt lat="49.32685" lon="-0.38644">
        <ele>7.5</ele>
        <time>2020-06-17T09:28:30Z</time>
      </trkpt>
      <trkpt lat="49.32683" lon="-0.38639">
        <ele>7.4</ele>
        <time>2020-06-17T09:28:31Z</time>
      </trkpt>
      <trkpt lat="49.3268" lon="-0.38633">
        <ele>7.4</ele>
        <time>2020-06-17T09:28:32Z</time>
      </trkpt>
      <trkpt lat="49.32678" lon="-0.38628">
        <ele>7.4</ele>
        <time>2020-06-17T09:28:33Z</time>
      </trkpt>
      <trkpt lat="49.32675" lon="-0.38621">
        <ele>7.3</ele>
        <time>2020-06-17T09:28:34Z</time>
      </trkpt>
      <trkpt lat="49.32673" lon="-0.38614">
        <ele>7.2</ele>
        <time>2020-06-17T09:28:35Z</time>
      </trkpt>
      <trkpt lat="49.3267" lon="-0.38607">
        <ele>7.2</ele>
        <time>2020-06-17T09:28:36Z</time>
      </trkpt>
      <trkpt lat="49.32668" lon="-0.386">
        <ele>7.1</ele>
        <time>2020-06-17T09:28:37Z</time>
      </trkpt>
      <trkpt lat="49.32666" lon="-0.38593">
        <ele>7</ele>
        <time>2020-06-17T09:28:38Z</time>
      </trkpt>
      <trkpt lat="49.32664" lon="-0.38586">
        <ele>7</ele>
        <time>2020-06-17T09:28:39Z</time>
      </trkpt>
      <trkpt lat="49.32661" lon="-0.38579">
        <ele>6.9</ele>
        <time>2020-06-17T09:28:40Z</time>
      </trkpt>
      <trkpt lat="49.32659" lon="-0.38573">
        <ele>6.8</ele>
        <time>2020-06-17T09:28:41Z</time>
      </trkpt>
      <trkpt lat="49.32656" lon="-0.38566">
        <ele>6.8</ele>
        <time>2020-06-17T09:28:42Z</time>
      </trkpt>
      <trkpt lat="49.32654" lon="-0.3856">
        <ele>6.7</ele>
        <time>2020-06-17T09:28:43Z</time>
      </trkpt>
      <trkpt lat="49.3265" lon="-0.38555">
        <ele>6.7</ele>
        <time>2020-06-17T09:28:44Z</time>
      </trkpt>
      <trkpt lat="49.32647" lon="-0.3855">
        <ele>6.7</ele>
        <time>2020-06-17T09:28:45Z</time>
      </trkpt>
      <trkpt lat="49.32643" lon="-0.38545">
        <ele>6.6</ele>
        <time>2020-06-17T09:28:46Z</time>
      </trkpt>
      <trkpt lat="49.3264" lon="-0.38539">
        <ele>6.6</ele>
        <time>2020-06-17T09:28:47Z</time>
      </trkpt>
      <trkpt lat="49.32636" lon="-0.38532">
        <ele>6.6</ele>
        <time>2020-06-17T09:28:48Z</time>
      </trkpt>
      <trkpt lat="49.32632" lon="-0.38525">
        <ele>6.6</ele>
        <time>2020-06-17T09:28:49Z</time>
      </trkpt>
      <trkpt lat="49.32629" lon="-0.38519">
        <ele>6.6</ele>
        <time>2020-06-17T09:28:50Z</time>
      </trkpt>
      <trkpt lat="49.32625" lon="-0.38512">
        <ele>6.6</ele>
        <time>2020-06-17T09:28:51Z</time>
      </trkpt>
      <trkpt lat="49.32622" lon="-0.38504">
        <ele>6.6</ele>
        <time>2020-06-17T09:28:52Z</time>
      </trkpt>
      <trkpt lat="49.32619" lon="-0.38497">
        <ele>6.7</ele>
        <time>2020-06-17T09:28:53Z</time>
      </trkpt>
      <trkpt lat="49.32617" lon="-0.3849">
        <ele>6.7</ele>
        <time>2020-06-17T09:28:54Z</time>
      </trkpt>
      <trkpt lat="49.32614" lon="-0.38484">
        <ele>6.8</ele>
        <time>2020-06-17T09:28:55Z</time>
      </trkpt>
      <trkpt lat="49.3261" lon="-0.38478">
        <ele>6.5</ele>
        <time>2020-06-17T09:28:56Z</time>
      </trkpt>
      <trkpt lat="49.32607" lon="-0.3847">
        <ele>6.4</ele>
        <time>2020-06-17T09:28:57Z</time>
      </trkpt>
      <trkpt lat="49.32603" lon="-0.38464">
        <ele>6.5</ele>
        <time>2020-06-17T09:28:58Z</time>
      </trkpt>
      <trkpt lat="49.326" lon="-0.38457">
        <ele>6.6</ele>
        <time>2020-06-17T09:28:59Z</time>
      </trkpt>
      <trkpt lat="49.32596" lon="-0.3845">
        <ele>6.7</ele>
        <time>2020-06-17T09:29:00Z</time>
      </trkpt>
      <trkpt lat="49.32594" lon="-0.38443">
        <ele>6.7</ele>
        <time>2020-06-17T09:29:01Z</time>
      </trkpt>
      <trkpt lat="49.32589" lon="-0.38436">
        <ele>6.8</ele>
        <time>2020-06-17T09:29:02Z</time>
      </trkpt>
      <trkpt lat="49.32587" lon="-0.3843">
        <ele>6.9</ele>
        <time>2020-06-17T09:29:03Z</time>
      </trkpt>
      <trkpt lat="49.32584" lon="-0.38425">
        <ele>7</ele>
        <time>2020-06-17T09:29:04Z</time>
      </trkpt>
      <trkpt lat="49.32581" lon="-0.38419">
        <ele>7.1</ele>
        <time>2020-06-17T09:29:05Z</time>
      </trkpt>
      <trkpt lat="49.32578" lon="-0.38414">
        <ele>7.2</ele>
        <time>2020-06-17T09:29:06Z</time>
      </trkpt>
      <trkpt lat="49.32575" lon="-0.38409">
        <ele>7.1</ele>
        <time>2020-06-17T09:29:07Z</time>
      </trkpt>
      <trkpt lat="49.32572" lon="-0.38403">
        <ele>7</ele>
        <time>2020-06-17T09:29:08Z</time>
      </trkpt>
      <trkpt lat="49.32569" lon="-0.38398">
        <ele>7</ele>
        <time>2020-06-17T09:29:09Z</time>
      </trkpt>
      <trkpt lat="49.32566" lon="-0.38392">
        <ele>7</ele>
        <time>2020-06-17T09:29:10Z</time>
      </trkpt>
      <trkpt lat="49.32563" lon="-0.38386">
        <ele>6.9</ele>
        <time>2020-06-17T09:29:11Z</time>
      </trkpt>
      <trkpt lat="49.3256" lon="-0.38379">
        <ele>7</ele>
        <time>2020-06-17T09:29:12Z</time>
      </trkpt>
      <trkpt lat="49.32558" lon="-0.38373">
        <ele>7</ele>
        <time>2020-06-17T09:29:13Z</time>
      </trkpt>
      <trkpt lat="49.32556" lon="-0.38366">
        <ele>7.1</ele>
        <time>2020-06-17T09:29:14Z</time>
      </trkpt>
      <trkpt lat="49.32552" lon="-0.3836">
        <ele>7.2</ele>
        <time>2020-06-17T09:29:15Z</time>
      </trkpt>
      <trkpt lat="49.32549" lon="-0.38352">
        <ele>7.3</ele>
        <time>2020-06-17T09:29:16Z</time>
      </trkpt>
      <trkpt lat="49.32545" lon="-0.38345">
        <ele>7.4</ele>
        <time>2020-06-17T09:29:17Z</time>
      </trkpt>
      <trkpt lat="49.32542" lon="-0.38338">
        <ele>7.5</ele>
        <time>2020-06-17T09:29:18Z</time>
      </trkpt>
      <trkpt lat="49.32538" lon="-0.38331">
        <ele>7.6</ele>
        <time>2020-06-17T09:29:19Z</time>
      </trkpt>
      <trkpt lat="49.32535" lon="-0.38325">
        <ele>7.8</ele>
        <time>2020-06-17T09:29:20Z</time>
      </trkpt>
      <trkpt lat="49.32533" lon="-0.38317">
        <ele>7.9</ele>
        <time>2020-06-17T09:29:21Z</time>
      </trkpt>
      <trkpt lat="49.32529" lon="-0.38309">
        <ele>8</ele>
        <time>2020-06-17T09:29:22Z</time>
      </trkpt>
      <trkpt lat="49.32526" lon="-0.38302">
        <ele>8.1</ele>
        <time>2020-06-17T09:29:23Z</time>
      </trkpt>
      <trkpt lat="49.32523" lon="-0.38294">
        <ele>8.3</ele>
        <time>2020-06-17T09:29:24Z</time>
      </trkpt>
      <trkpt lat="49.3252" lon="-0.38286">
        <ele>8.4</ele>
        <time>2020-06-17T09:29:25Z</time>
      </trkpt>
      <trkpt lat="49.32516" lon="-0.38277">
        <ele>8.5</ele>
        <time>2020-06-17T09:29:26Z</time>
      </trkpt>
      <trkpt lat="49.32512" lon="-0.3827">
        <ele>8.6</ele>
        <time>2020-06-17T09:29:27Z</time>
      </trkpt>
      <trkpt lat="49.32509" lon="-0.38259">
        <ele>8.7</ele>
        <time>2020-06-17T09:29:28Z</time>
      </trkpt>
      <trkpt lat="49.32504" lon="-0.38249">
        <ele>8.8</ele>
        <time>2020-06-17T09:29:29Z</time>
      </trkpt>
      <trkpt lat="49.32501" lon="-0.38242">
        <ele>8.9</ele>
        <time>2020-06-17T09:29:30Z</time>
      </trkpt>
      <trkpt lat="49.32496" lon="-0.38235">
        <ele>8.9</ele>
        <time>2020-06-17T09:29:31Z</time>
      </trkpt>
      <trkpt lat="49.32492" lon="-0.38227">
        <ele>8.9</ele>
        <time>2020-06-17T09:29:32Z</time>
      </trkpt>
      <trkpt lat="49.32488" lon="-0.3822">
        <ele>9</ele>
        <time>2020-06-17T09:29:33Z</time>
      </trkpt>
      <trkpt lat="49.32484" lon="-0.38213">
        <ele>9.1</ele>
        <time>2020-06-17T09:29:34Z</time>
      </trkpt>
      <trkpt lat="49.3248" lon="-0.38205">
        <ele>9.1</ele>
        <time>2020-06-17T09:29:35Z</time>
      </trkpt>
      <trkpt lat="49.32476" lon="-0.38196">
        <ele>9.2</ele>
        <time>2020-06-17T09:29:36Z</time>
      </trkpt>
      <trkpt lat="49.32471" lon="-0.38188">
        <ele>9.3</ele>
        <time>2020-06-17T09:29:37Z</time>
      </trkpt>
      <trkpt lat="49.32467" lon="-0.3818">
        <ele>9.3</ele>
        <time>2020-06-17T09:29:38Z</time>
      </trkpt>
      <trkpt lat="49.32462" lon="-0.38172">
        <ele>9.4</ele>
        <time>2020-06-17T09:29:39Z</time>
      </trkpt>
      <trkpt lat="49.32458" lon="-0.38165">
        <ele>9.4</ele>
        <time>2020-06-17T09:29:40Z</time>
      </trkpt>
      <trkpt lat="49.32455" lon="-0.38158">
        <ele>9.5</ele>
        <time>2020-06-17T09:29:41Z</time>
      </trkpt>
      <trkpt lat="49.32451" lon="-0.38151">
        <ele>9.5</ele>
        <time>2020-06-17T09:29:42Z</time>
      </trkpt>
      <trkpt lat="49.32447" lon="-0.38144">
        <ele>9.5</ele>
        <time>2020-06-17T09:29:43Z</time>
      </trkpt>
      <trkpt lat="49.32443" lon="-0.38135">
        <ele>9.5</ele>
        <time>2020-06-17T09:29:44Z</time>
      </trkpt>
      <trkpt lat="49.32439" lon="-0.38127">
        <ele>9.6</ele>
        <time>2020-06-17T09:29:45Z</time>
      </trkpt>
      <trkpt lat="49.32436" lon="-0.3812">
        <ele>9.6</ele>
        <time>2020-06-17T09:29:46Z</time>
      </trkpt>
      <trkpt lat="49.32432" lon="-0.38113">
        <ele>9.6</ele>
        <time>2020-06-17T09:29:47Z</time>
      </trkpt>
      <trkpt lat="49.32429" lon="-0.38106">
        <ele>9.6</ele>
        <time>2020-06-17T09:29:48Z</time>
      </trkpt>
      <trkpt lat="49.32426" lon="-0.38099">
        <ele>9.6</ele>
        <time>2020-06-17T09:29:49Z</time>
      </trkpt>
      <trkpt lat="49.32423" lon="-0.38091">
        <ele>9.6</ele>
        <time>2020-06-17T09:29:50Z</time>
      </trkpt>
      <trkpt lat="49.32419" lon="-0.38084">
        <ele>9.6</ele>
        <time>2020-06-17T09:29:51Z</time>
      </trkpt>
      <trkpt lat="49.32415" lon="-0.38077">
        <ele>9.6</ele>
        <time>2020-06-17T09:29:52Z</time>
      </trkpt>
      <trkpt lat="49.32412" lon="-0.3807">
        <ele>9.7</ele>
        <time>2020-06-17T09:29:53Z</time>
      </trkpt>
      <trkpt lat="49.32408" lon="-0.38062">
        <ele>9.7</ele>
        <time>2020-06-17T09:29:54Z</time>
      </trkpt>
      <trkpt lat="49.32405" lon="-0.38055">
        <ele>9.7</ele>
        <time>2020-06-17T09:29:55Z</time>
      </trkpt>
      <trkpt lat="49.32401" lon="-0.38047">
        <ele>9.7</ele>
        <time>2020-06-17T09:29:56Z</time>
      </trkpt>
      <trkpt lat="49.32397" lon="-0.38039">
        <ele>9.7</ele>
        <time>2020-06-17T09:29:57Z</time>
      </trkpt>
      <trkpt lat="49.32393" lon="-0.3803">
        <ele>9.7</ele>
        <time>2020-06-17T09:29:58Z</time>
      </trkpt>
      <trkpt lat="49.3239" lon="-0.38022">
        <ele>9.7</ele>
        <time>2020-06-17T09:29:59Z</time>
      </trkpt>
      <trkpt lat="49.32386" lon="-0.38014">
        <ele>9.7</ele>
        <time>2020-06-17T09:30:00Z</time>
      </trkpt>
      <trkpt lat="49.32382" lon="-0.38004">
        <ele>9.7</ele>
        <time>2020-06-17T09:30:01Z</time>
      </trkpt>
      <trkpt lat="49.32377" lon="-0.37994">
        <ele>9.7</ele>
        <time>2020-06-17T09:30:02Z</time>
      </trkpt>
      <trkpt lat="49.32373" lon="-0.37986">
        <ele>9.8</ele>
        <time>2020-06-17T09:30:03Z</time>
      </trkpt>
      <trkpt lat="49.32369" lon="-0.37978">
        <ele>9.8</ele>
        <time>2020-06-17T09:30:04Z</time>
      </trkpt>
      <trkpt lat="49.32364" lon="-0.37971">
        <ele>9.8</ele>
        <time>2020-06-17T09:30:05Z</time>
      </trkpt>
      <trkpt lat="49.32361" lon="-0.37965">
        <ele>9.8</ele>
        <time>2020-06-17T09:30:06Z</time>
      </trkpt>
      <trkpt lat="49.32357" lon="-0.37958">
        <ele>9.8</ele>
        <time>2020-06-17T09:30:07Z</time>
      </trkpt>
      <trkpt lat="49.32353" lon="-0.37951">
        <ele>9.8</ele>
        <time>2020-06-17T09:30:08Z</time>
      </trkpt>
      <trkpt lat="49.32349" lon="-0.37944">
        <ele>9.8</ele>
        <time>2020-06-17T09:30:09Z</time>
      </trkpt>
      <trkpt lat="49.32345" lon="-0.37938">
        <ele>9.9</ele>
        <time>2020-06-17T09:30:10Z</time>
      </trkpt>
      <trkpt lat="49.32341" lon="-0.37932">
        <ele>9.9</ele>
        <time>2020-06-17T09:30:11Z</time>
      </trkpt>
      <trkpt lat="49.32337" lon="-0.37925">
        <ele>9.9</ele>
        <time>2020-06-17T09:30:12Z</time>
      </trkpt>
      <trkpt lat="49.32334" lon="-0.37919">
        <ele>9.9</ele>
        <time>2020-06-17T09:30:13Z</time>
      </trkpt>
      <trkpt lat="49.32331" lon="-0.37912">
        <ele>9.9</ele>
        <time>2020-06-17T09:30:14Z</time>
      </trkpt>
      <trkpt lat="49.32328" lon="-0.37906">
        <ele>9.9</ele>
        <time>2020-06-17T09:30:15Z</time>
      </trkpt>
      <trkpt lat="49.32326" lon="-0.379">
        <ele>10</ele>
        <time>2020-06-17T09:30:16Z</time>
      </trkpt>
      <trkpt lat="49.32323" lon="-0.37894">
        <ele>10</ele>
        <time>2020-06-17T09:30:17Z</time>
      </trkpt>
      <trkpt lat="49.32321" lon="-0.37889">
        <ele>10</ele>
        <time>2020-06-17T09:30:18Z</time>
      </trkpt>
      <trkpt lat="49.32318" lon="-0.37882">
        <ele>10</ele>
        <time>2020-06-17T09:30:19Z</time>
      </trkpt>
      <trkpt lat="49.32316" lon="-0.37875">
        <ele>10</ele>
        <time>2020-06-17T09:30:20Z</time>
      </trkpt>
      <trkpt lat="49.32314" lon="-0.37867">
        <ele>10</ele>
        <time>2020-06-17T09:30:21Z</time>
      </trkpt>
      <trkpt lat="49.32311" lon="-0.37859">
        <ele>10</ele>
        <time>2020-06-17T09:30:22Z</time>
      </trkpt>
      <trkpt lat="49.32308" lon="-0.37851">
        <ele>10</ele>
        <time>2020-06-17T09:30:23Z</time>
      </trkpt>
      <trkpt lat="49.32304" lon="-0.37843">
        <ele>10</ele>
        <time>2020-06-17T09:30:24Z</time>
      </trkpt>
      <trkpt lat="49.32301" lon="-0.37836">
        <ele>10.1</ele>
        <time>2020-06-17T09:30:25Z</time>
      </trkpt>
      <trkpt lat="49.32298" lon="-0.37831">
        <ele>10.1</ele>
        <time>2020-06-17T09:30:26Z</time>
      </trkpt>
      <trkpt lat="49.32295" lon="-0.37826">
        <ele>10.1</ele>
        <time>2020-06-17T09:30:27Z</time>
      </trkpt>
      <trkpt lat="49.32292" lon="-0.37821">
        <ele>10.1</ele>
        <time>2020-06-17T09:30:28Z</time>
      </trkpt>
      <trkpt lat="49.32288" lon="-0.37816">
        <ele>10.1</ele>
        <time>2020-06-17T09:30:29Z</time>
      </trkpt>
      <trkpt lat="49.32285" lon="-0.37809">
        <ele>10.1</ele>
        <time>2020-06-17T09:30:30Z</time>
      </trkpt>
      <trkpt lat="49.32283" lon="-0.37802">
        <ele>10.1</ele>
        <time>2020-06-17T09:30:31Z</time>
      </trkpt>
      <trkpt lat="49.32279" lon="-0.37796">
        <ele>10.1</ele>
        <time>2020-06-17T09:30:32Z</time>
      </trkpt>
      <trkpt lat="49.32275" lon="-0.3779">
        <ele>10.1</ele>
        <time>2020-06-17T09:30:33Z</time>
      </trkpt>
      <trkpt lat="49.32271" lon="-0.37782">
        <ele>10</ele>
        <time>2020-06-17T09:30:34Z</time>
      </trkpt>
      <trkpt lat="49.32267" lon="-0.37774">
        <ele>10</ele>
        <time>2020-06-17T09:30:35Z</time>
      </trkpt>
      <trkpt lat="49.32264" lon="-0.37766">
        <ele>9.9</ele>
        <time>2020-06-17T09:30:36Z</time>
      </trkpt>
      <trkpt lat="49.3226" lon="-0.37759">
        <ele>9.9</ele>
        <time>2020-06-17T09:30:37Z</time>
      </trkpt>
      <trkpt lat="49.32257" lon="-0.37753">
        <ele>9.9</ele>
        <time>2020-06-17T09:30:38Z</time>
      </trkpt>
      <trkpt lat="49.32254" lon="-0.37747">
        <ele>9.8</ele>
        <time>2020-06-17T09:30:39Z</time>
      </trkpt>
      <trkpt lat="49.32251" lon="-0.37739">
        <ele>9.8</ele>
        <time>2020-06-17T09:30:40Z</time>
      </trkpt>
      <trkpt lat="49.32248" lon="-0.37732">
        <ele>9.7</ele>
        <time>2020-06-17T09:30:41Z</time>
      </trkpt>
      <trkpt lat="49.32246" lon="-0.37726">
        <ele>9.7</ele>
        <time>2020-06-17T09:30:42Z</time>
      </trkpt>
      <trkpt lat="49.32244" lon="-0.37721">
        <ele>9.6</ele>
        <time>2020-06-17T09:30:43Z</time>
      </trkpt>
      <trkpt lat="49.32241" lon="-0.37716">
        <ele>9.6</ele>
        <time>2020-06-17T09:30:44Z</time>
      </trkpt>
      <trkpt lat="49.32241" lon="-0.37715">
        <ele>9.5</ele>
        <time>2020-06-17T09:30:45Z</time>
      </trkpt>
      <trkpt lat="49.32241" lon="-0.37715">
        <ele>9.5</ele>
        <time>2020-06-17T09:30:46Z</time>
      </trkpt>
      <trkpt lat="49.32241" lon="-0.37715">
        <ele>9.5</ele>
        <time>2020-06-17T09:30:47Z</time>
      </trkpt>
      <trkpt lat="49.32241" lon="-0.37717">
        <ele>9.5</ele>
        <time>2020-06-17T09:30:48Z</time>
      </trkpt>
      <trkpt lat="49.32242" lon="-0.37717">
        <ele>9.5</ele>
        <time>2020-06-17T09:30:49Z</time>
      </trkpt>
      <trkpt lat="49.32242" lon="-0.37718">
        <ele>9.5</ele>
        <time>2020-06-17T09:30:50Z</time>
      </trkpt>
      <trkpt lat="49.32242" lon="-0.37718">
        <ele>9.5</ele>
        <time>2020-06-17T09:30:51Z</time>
      </trkpt>
      <trkpt lat="49.32242" lon="-0.37717">
        <ele>9.5</ele>
        <time>2020-06-17T09:30:52Z</time>
      </trkpt>
      <trkpt lat="49.32242" lon="-0.37716">
        <ele>9.5</ele>
        <time>2020-06-17T09:30:53Z</time>
      </trkpt>
      <trkpt lat="49.32241" lon="-0.37714">
        <ele>9.4</ele>
        <time>2020-06-17T09:30:54Z</time>
      </trkpt>
      <trkpt lat="49.3224" lon="-0.37714">
        <ele>9.4</ele>
        <time>2020-06-17T09:30:55Z</time>
      </trkpt>
      <trkpt lat="49.32239" lon="-0.37713">
        <ele>9.4</ele>
        <time>2020-06-17T09:30:56Z</time>
      </trkpt>
      <trkpt lat="49.32238" lon="-0.37713">
        <ele>9.4</ele>
        <time>2020-06-17T09:30:57Z</time>
      </trkpt>
      <trkpt lat="49.32237" lon="-0.37709">
        <ele>9.3</ele>
        <time>2020-06-17T09:30:58Z</time>
      </trkpt>
      <trkpt lat="49.32235" lon="-0.37706">
        <ele>9.3</ele>
        <time>2020-06-17T09:30:59Z</time>
      </trkpt>
      <trkpt lat="49.32234" lon="-0.37703">
        <ele>9.2</ele>
        <time>2020-06-17T09:31:38Z</time>
      </trkpt>
      <trkpt lat="49.32232" lon="-0.37699">
        <ele>9.2</ele>
        <time>2020-06-17T09:31:39Z</time>
      </trkpt>
      <trkpt lat="49.3223" lon="-0.37697">
        <ele>9.1</ele>
        <time>2020-06-17T09:31:40Z</time>
      </trkpt>
      <trkpt lat="49.32227" lon="-0.37692">
        <ele>9</ele>
        <time>2020-06-17T09:31:41Z</time>
      </trkpt>
      <trkpt lat="49.32224" lon="-0.37687">
        <ele>8.9</ele>
        <time>2020-06-17T09:31:42Z</time>
      </trkpt>
      <trkpt lat="49.32222" lon="-0.37681">
        <ele>8.8</ele>
        <time>2020-06-17T09:31:43Z</time>
      </trkpt>
      <trkpt lat="49.32219" lon="-0.37676">
        <ele>8.8</ele>
        <time>2020-06-17T09:31:44Z</time>
      </trkpt>
      <trkpt lat="49.32216" lon="-0.3767">
        <ele>8.7</ele>
        <time>2020-06-17T09:31:45Z</time>
      </trkpt>
      <trkpt lat="49.32213" lon="-0.37664">
        <ele>8.6</ele>
        <time>2020-06-17T09:31:46Z</time>
      </trkpt>
      <trkpt lat="49.3221" lon="-0.37659">
        <ele>8.5</ele>
        <time>2020-06-17T09:31:47Z</time>
      </trkpt>
      <trkpt lat="49.32207" lon="-0.37653">
        <ele>8.4</ele>
        <time>2020-06-17T09:31:48Z</time>
      </trkpt>
      <trkpt lat="49.32203" lon="-0.37649">
        <ele>8.4</ele>
        <time>2020-06-17T09:31:49Z</time>
      </trkpt>
      <trkpt lat="49.322" lon="-0.37644">
        <ele>8.3</ele>
        <time>2020-06-17T09:31:50Z</time>
      </trkpt>
      <trkpt lat="49.32196" lon="-0.37641">
        <ele>8.2</ele>
        <time>2020-06-17T09:31:51Z</time>
      </trkpt>
      <trkpt lat="49.32193" lon="-0.37638">
        <ele>8</ele>
        <time>2020-06-17T09:31:52Z</time>
      </trkpt>
      <trkpt lat="49.32189" lon="-0.37634">
        <ele>7.8</ele>
        <time>2020-06-17T09:31:53Z</time>
      </trkpt>
      <trkpt lat="49.32184" lon="-0.3763">
        <ele>7.6</ele>
        <time>2020-06-17T09:31:54Z</time>
      </trkpt>
      <trkpt lat="49.3218" lon="-0.37626">
        <ele>7.4</ele>
        <time>2020-06-17T09:31:55Z</time>
      </trkpt>
      <trkpt lat="49.32175" lon="-0.37621">
        <ele>7.1</ele>
        <time>2020-06-17T09:31:56Z</time>
      </trkpt>
      <trkpt lat="49.32171" lon="-0.37616">
        <ele>6.9</ele>
        <time>2020-06-17T09:31:57Z</time>
      </trkpt>
      <trkpt lat="49.32168" lon="-0.37612">
        <ele>6.8</ele>
        <time>2020-06-17T09:31:58Z</time>
      </trkpt>
      <trkpt lat="49.32164" lon="-0.37608">
        <ele>6.7</ele>
        <time>2020-06-17T09:31:59Z</time>
      </trkpt>
      <trkpt lat="49.32161" lon="-0.37605">
        <ele>6.6</ele>
        <time>2020-06-17T09:32:00Z</time>
      </trkpt>
      <trkpt lat="49.32157" lon="-0.37601">
        <ele>6.5</ele>
        <time>2020-06-17T09:32:01Z</time>
      </trkpt>
      <trkpt lat="49.32153" lon="-0.37598">
        <ele>6.4</ele>
        <time>2020-06-17T09:32:02Z</time>
      </trkpt>
      <trkpt lat="49.32148" lon="-0.37595">
        <ele>6.3</ele>
        <time>2020-06-17T09:32:03Z</time>
      </trkpt>
      <trkpt lat="49.32145" lon="-0.37591">
        <ele>6.2</ele>
        <time>2020-06-17T09:32:04Z</time>
      </trkpt>
      <trkpt lat="49.32141" lon="-0.37586">
        <ele>6.1</ele>
        <time>2020-06-17T09:32:05Z</time>
      </trkpt>
      <trkpt lat="49.32138" lon="-0.37579">
        <ele>6</ele>
        <time>2020-06-17T09:32:06Z</time>
      </trkpt>
      <trkpt lat="49.32136" lon="-0.37573">
        <ele>6</ele>
        <time>2020-06-17T09:32:07Z</time>
      </trkpt>
      <trkpt lat="49.32133" lon="-0.37567">
        <ele>6</ele>
        <time>2020-06-17T09:32:08Z</time>
      </trkpt>
      <trkpt lat="49.3213" lon="-0.37562">
        <ele>5.9</ele>
        <time>2020-06-17T09:32:09Z</time>
      </trkpt>
      <trkpt lat="49.32125" lon="-0.37557">
        <ele>5.9</ele>
        <time>2020-06-17T09:32:10Z</time>
      </trkpt>
      <trkpt lat="49.32121" lon="-0.37552">
        <ele>5.9</ele>
        <time>2020-06-17T09:32:11Z</time>
      </trkpt>
      <trkpt lat="49.32118" lon="-0.37551">
        <ele>5.8</ele>
        <time>2020-06-17T09:32:12Z</time>
      </trkpt>
      <trkpt lat="49.32115" lon="-0.37548">
        <ele>5.8</ele>
        <time>2020-06-17T09:32:13Z</time>
      </trkpt>
      <trkpt lat="49.32112" lon="-0.37545">
        <ele>5.8</ele>
        <time>2020-06-17T09:32:14Z</time>
      </trkpt>
      <trkpt lat="49.32108" lon="-0.37541">
        <ele>5.7</ele>
        <time>2020-06-17T09:32:15Z</time>
      </trkpt>
      <trkpt lat="49.32105" lon="-0.37538">
        <ele>5.7</ele>
        <time>2020-06-17T09:32:16Z</time>
      </trkpt>
      <trkpt lat="49.32102" lon="-0.37534">
        <ele>5.7</ele>
        <time>2020-06-17T09:32:17Z</time>
      </trkpt>
      <trkpt lat="49.321" lon="-0.3753">
        <ele>5.7</ele>
        <time>2020-06-17T09:32:18Z</time>
      </trkpt>
      <trkpt lat="49.32097" lon="-0.37524">
        <ele>5.7</ele>
        <time>2020-06-17T09:32:19Z</time>
      </trkpt>
      <trkpt lat="49.32095" lon="-0.37521">
        <ele>5.7</ele>
        <time>2020-06-17T09:32:20Z</time>
      </trkpt>
      <trkpt lat="49.32092" lon="-0.37517">
        <ele>5.7</ele>
        <time>2020-06-17T09:32:21Z</time>
      </trkpt>
      <trkpt lat="49.32089" lon="-0.37514">
        <ele>5.8</ele>
        <time>2020-06-17T09:32:22Z</time>
      </trkpt>
      <trkpt lat="49.32085" lon="-0.37509">
        <ele>5.8</ele>
        <time>2020-06-17T09:32:23Z</time>
      </trkpt>
      <trkpt lat="49.32081" lon="-0.37504">
        <ele>5.8</ele>
        <time>2020-06-17T09:32:24Z</time>
      </trkpt>
      <trkpt lat="49.32077" lon="-0.37498">
        <ele>5.8</ele>
        <time>2020-06-17T09:32:25Z</time>
      </trkpt>
      <trkpt lat="49.32074" lon="-0.37492">
        <ele>5.8</ele>
        <time>2020-06-17T09:32:26Z</time>
      </trkpt>
      <trkpt lat="49.32071" lon="-0.37486">
        <ele>5.9</ele>
        <time>2020-06-17T09:32:27Z</time>
      </trkpt>
      <trkpt lat="49.32068" lon="-0.37479">
        <ele>5.9</ele>
        <time>2020-06-17T09:32:28Z</time>
      </trkpt>
      <trkpt lat="49.32065" lon="-0.37472">
        <ele>5.9</ele>
        <time>2020-06-17T09:32:29Z</time>
      </trkpt>
      <trkpt lat="49.32062" lon="-0.37465">
        <ele>5.9</ele>
        <time>2020-06-17T09:32:30Z</time>
      </trkpt>
      <trkpt lat="49.32058" lon="-0.37458">
        <ele>6</ele>
        <time>2020-06-17T09:32:31Z</time>
      </trkpt>
      <trkpt lat="49.32054" lon="-0.37452">
        <ele>6</ele>
        <time>2020-06-17T09:32:32Z</time>
      </trkpt>
      <trkpt lat="49.32049" lon="-0.37446">
        <ele>6.1</ele>
        <time>2020-06-17T09:32:33Z</time>
      </trkpt>
      <trkpt lat="49.32044" lon="-0.37439">
        <ele>6.1</ele>
        <time>2020-06-17T09:32:34Z</time>
      </trkpt>
      <trkpt lat="49.32038" lon="-0.37434">
        <ele>6.1</ele>
        <time>2020-06-17T09:32:35Z</time>
      </trkpt>
      <trkpt lat="49.32032" lon="-0.37428">
        <ele>6.2</ele>
        <time>2020-06-17T09:32:36Z</time>
      </trkpt>
      <trkpt lat="49.32025" lon="-0.37422">
        <ele>6.3</ele>
        <time>2020-06-17T09:32:37Z</time>
      </trkpt>
      <trkpt lat="49.32019" lon="-0.37416">
        <ele>6.3</ele>
        <time>2020-06-17T09:32:38Z</time>
      </trkpt>
      <trkpt lat="49.32013" lon="-0.3741">
        <ele>6.4</ele>
        <time>2020-06-17T09:32:39Z</time>
      </trkpt>
      <trkpt lat="49.32009" lon="-0.37404">
        <ele>6.4</ele>
        <time>2020-06-17T09:32:40Z</time>
      </trkpt>
      <trkpt lat="49.32005" lon="-0.37398">
        <ele>6.5</ele>
        <time>2020-06-17T09:32:41Z</time>
      </trkpt>
      <trkpt lat="49.32001" lon="-0.37392">
        <ele>6.6</ele>
        <time>2020-06-17T09:32:42Z</time>
      </trkpt>
      <trkpt lat="49.31996" lon="-0.37386">
        <ele>6.6</ele>
        <time>2020-06-17T09:32:43Z</time>
      </trkpt>
      <trkpt lat="49.31991" lon="-0.3738">
        <ele>6.7</ele>
        <time>2020-06-17T09:32:44Z</time>
      </trkpt>
      <trkpt lat="49.31986" lon="-0.37375">
        <ele>6.8</ele>
        <time>2020-06-17T09:32:45Z</time>
      </trkpt>
      <trkpt lat="49.31981" lon="-0.3737">
        <ele>6.9</ele>
        <time>2020-06-17T09:32:46Z</time>
      </trkpt>
      <trkpt lat="49.31975" lon="-0.37366">
        <ele>7</ele>
        <time>2020-06-17T09:32:47Z</time>
      </trkpt>
      <trkpt lat="49.31969" lon="-0.37361">
        <ele>7.1</ele>
        <time>2020-06-17T09:32:48Z</time>
      </trkpt>
      <trkpt lat="49.31963" lon="-0.37357">
        <ele>7.2</ele>
        <time>2020-06-17T09:32:49Z</time>
      </trkpt>
      <trkpt lat="49.31955" lon="-0.37354">
        <ele>7.4</ele>
        <time>2020-06-17T09:32:50Z</time>
      </trkpt>
      <trkpt lat="49.31949" lon="-0.37351">
        <ele>7.5</ele>
        <time>2020-06-17T09:32:51Z</time>
      </trkpt>
      <trkpt lat="49.31943" lon="-0.3735">
        <ele>7.7</ele>
        <time>2020-06-17T09:32:52Z</time>
      </trkpt>
      <trkpt lat="49.31936" lon="-0.37349">
        <ele>7.9</ele>
        <time>2020-06-17T09:32:53Z</time>
      </trkpt>
      <trkpt lat="49.3193" lon="-0.37348">
        <ele>8.1</ele>
        <time>2020-06-17T09:32:54Z</time>
      </trkpt>
      <trkpt lat="49.31925" lon="-0.37348">
        <ele>8.3</ele>
        <time>2020-06-17T09:32:55Z</time>
      </trkpt>
      <trkpt lat="49.3192" lon="-0.37348">
        <ele>8.3</ele>
        <time>2020-06-17T09:32:56Z</time>
      </trkpt>
      <trkpt lat="49.31914" lon="-0.37348">
        <ele>8.4</ele>
        <time>2020-06-17T09:32:57Z</time>
      </trkpt>
      <trkpt lat="49.3191" lon="-0.37348">
        <ele>8.4</ele>
        <time>2020-06-17T09:32:58Z</time>
      </trkpt>
      <trkpt lat="49.31905" lon="-0.37349">
        <ele>8.5</ele>
        <time>2020-06-17T09:32:59Z</time>
      </trkpt>
      <trkpt lat="49.31898" lon="-0.3735">
        <ele>8.5</ele>
        <time>2020-06-17T09:33:00Z</time>
      </trkpt>
      <trkpt lat="49.31892" lon="-0.37352">
        <ele>8.6</ele>
        <time>2020-06-17T09:33:01Z</time>
      </trkpt>
      <trkpt lat="49.31886" lon="-0.37354">
        <ele>8.7</ele>
        <time>2020-06-17T09:33:02Z</time>
      </trkpt>
      <trkpt lat="49.3188" lon="-0.37356">
        <ele>8.8</ele>
        <time>2020-06-17T09:33:03Z</time>
      </trkpt>
      <trkpt lat="49.31874" lon="-0.37358">
        <ele>8.8</ele>
        <time>2020-06-17T09:33:04Z</time>
      </trkpt>
      <trkpt lat="49.31868" lon="-0.3736">
        <ele>8.9</ele>
        <time>2020-06-17T09:33:05Z</time>
      </trkpt>
      <trkpt lat="49.31859" lon="-0.3736">
        <ele>8.9</ele>
        <time>2020-06-17T09:33:06Z</time>
      </trkpt>
      <trkpt lat="49.31851" lon="-0.3736">
        <ele>9</ele>
        <time>2020-06-17T09:33:07Z</time>
      </trkpt>
      <trkpt lat="49.31844" lon="-0.37359">
        <ele>9.1</ele>
        <time>2020-06-17T09:33:08Z</time>
      </trkpt>
      <trkpt lat="49.31838" lon="-0.37359">
        <ele>9.2</ele>
        <time>2020-06-17T09:33:09Z</time>
      </trkpt>
      <trkpt lat="49.31831" lon="-0.37361">
        <ele>9.3</ele>
        <time>2020-06-17T09:33:10Z</time>
      </trkpt>
      <trkpt lat="49.31825" lon="-0.37363">
        <ele>9.3</ele>
        <time>2020-06-17T09:33:11Z</time>
      </trkpt>
      <trkpt lat="49.3182" lon="-0.37365">
        <ele>9.4</ele>
        <time>2020-06-17T09:33:12Z</time>
      </trkpt>
      <trkpt lat="49.31815" lon="-0.37366">
        <ele>9.4</ele>
        <time>2020-06-17T09:33:13Z</time>
      </trkpt>
      <trkpt lat="49.31809" lon="-0.37367">
        <ele>9.5</ele>
        <time>2020-06-17T09:33:14Z</time>
      </trkpt>
      <trkpt lat="49.31803" lon="-0.37369">
        <ele>9.5</ele>
        <time>2020-06-17T09:33:15Z</time>
      </trkpt>
      <trkpt lat="49.31796" lon="-0.37369">
        <ele>9.6</ele>
        <time>2020-06-17T09:33:16Z</time>
      </trkpt>
      <trkpt lat="49.31788" lon="-0.37368">
        <ele>9.6</ele>
        <time>2020-06-17T09:33:17Z</time>
      </trkpt>
      <trkpt lat="49.31783" lon="-0.37367">
        <ele>9.7</ele>
        <time>2020-06-17T09:33:18Z</time>
      </trkpt>
      <trkpt lat="49.31777" lon="-0.37367">
        <ele>9.8</ele>
        <time>2020-06-17T09:33:19Z</time>
      </trkpt>
      <trkpt lat="49.31772" lon="-0.37366">
        <ele>9.8</ele>
        <time>2020-06-17T09:33:20Z</time>
      </trkpt>
      <trkpt lat="49.31768" lon="-0.37364">
        <ele>9.8</ele>
        <time>2020-06-17T09:33:21Z</time>
      </trkpt>
      <trkpt lat="49.31763" lon="-0.37363">
        <ele>9.8</ele>
        <time>2020-06-17T09:33:22Z</time>
      </trkpt>
      <trkpt lat="49.31759" lon="-0.3736">
        <ele>9.9</ele>
        <time>2020-06-17T09:33:23Z</time>
      </trkpt>
      <trkpt lat="49.31754" lon="-0.37359">
        <ele>9.9</ele>
        <time>2020-06-17T09:33:24Z</time>
      </trkpt>
      <trkpt lat="49.31749" lon="-0.37358">
        <ele>9.9</ele>
        <time>2020-06-17T09:33:25Z</time>
      </trkpt>
      <trkpt lat="49.31745" lon="-0.37356">
        <ele>10</ele>
        <time>2020-06-17T09:33:26Z</time>
      </trkpt>
      <trkpt lat="49.3174" lon="-0.37354">
        <ele>10</ele>
        <time>2020-06-17T09:33:27Z</time>
      </trkpt>
      <trkpt lat="49.31735" lon="-0.37353">
        <ele>10</ele>
        <time>2020-06-17T09:33:28Z</time>
      </trkpt>
      <trkpt lat="49.31729" lon="-0.37352">
        <ele>10.1</ele>
        <time>2020-06-17T09:33:29Z</time>
      </trkpt>
      <trkpt lat="49.31724" lon="-0.37351">
        <ele>10.1</ele>
        <time>2020-06-17T09:33:30Z</time>
      </trkpt>
      <trkpt lat="49.31719" lon="-0.37349">
        <ele>10.1</ele>
        <time>2020-06-17T09:33:31Z</time>
      </trkpt>
      <trkpt lat="49.31714" lon="-0.37348">
        <ele>10.2</ele>
        <time>2020-06-17T09:33:32Z</time>
      </trkpt>
      <trkpt lat="49.31709" lon="-0.37347">
        <ele>10.2</ele>
        <time>2020-06-17T09:33:33Z</time>
      </trkpt>
      <trkpt lat="49.31703" lon="-0.37346">
        <ele>10.3</ele>
        <time>2020-06-17T09:33:34Z</time>
      </trkpt>
      <trkpt lat="49.31698" lon="-0.37345">
        <ele>10.3</ele>
        <time>2020-06-17T09:33:35Z</time>
      </trkpt>
      <trkpt lat="49.31694" lon="-0.37343">
        <ele>10.3</ele>
        <time>2020-06-17T09:33:36Z</time>
      </trkpt>
      <trkpt lat="49.31689" lon="-0.37342">
        <ele>10.4</ele>
        <time>2020-06-17T09:33:37Z</time>
      </trkpt>
      <trkpt lat="49.31685" lon="-0.37342">
        <ele>10.4</ele>
        <time>2020-06-17T09:33:38Z</time>
      </trkpt>
      <trkpt lat="49.3168" lon="-0.37341">
        <ele>10.5</ele>
        <time>2020-06-17T09:33:39Z</time>
      </trkpt>
      <trkpt lat="49.31676" lon="-0.37341">
        <ele>10.5</ele>
        <time>2020-06-17T09:33:40Z</time>
      </trkpt>
      <trkpt lat="49.31673" lon="-0.3734">
        <ele>10.5</ele>
        <time>2020-06-17T09:33:41Z</time>
      </trkpt>
      <trkpt lat="49.31668" lon="-0.37339">
        <ele>10.6</ele>
        <time>2020-06-17T09:33:42Z</time>
      </trkpt>
      <trkpt lat="49.31665" lon="-0.37339">
        <ele>10.6</ele>
        <time>2020-06-17T09:33:43Z</time>
      </trkpt>
      <trkpt lat="49.31661" lon="-0.37339">
        <ele>10.7</ele>
        <time>2020-06-17T09:33:44Z</time>
      </trkpt>
      <trkpt lat="49.31657" lon="-0.37337">
        <ele>10.7</ele>
        <time>2020-06-17T09:33:45Z</time>
      </trkpt>
      <trkpt lat="49.31653" lon="-0.37335">
        <ele>10.8</ele>
        <time>2020-06-17T09:33:46Z</time>
      </trkpt>
      <trkpt lat="49.31649" lon="-0.37334">
        <ele>10.9</ele>
        <time>2020-06-17T09:33:47Z</time>
      </trkpt>
      <trkpt lat="49.31645" lon="-0.37332">
        <ele>10.9</ele>
        <time>2020-06-17T09:33:48Z</time>
      </trkpt>
      <trkpt lat="49.31641" lon="-0.37331">
        <ele>10.9</ele>
        <time>2020-06-17T09:33:49Z</time>
      </trkpt>
      <trkpt lat="49.31638" lon="-0.3733">
        <ele>11</ele>
        <time>2020-06-17T09:33:50Z</time>
      </trkpt>
      <trkpt lat="49.31635" lon="-0.37328">
        <ele>11</ele>
        <time>2020-06-17T09:33:51Z</time>
      </trkpt>
      <trkpt lat="49.31633" lon="-0.37327">
        <ele>11</ele>
        <time>2020-06-17T09:33:52Z</time>
      </trkpt>
      <trkpt lat="49.31632" lon="-0.37326">
        <ele>11</ele>
        <time>2020-06-17T09:33:53Z</time>
      </trkpt>
      <trkpt lat="49.3163" lon="-0.37326">
        <ele>11</ele>
        <time>2020-06-17T09:33:54Z</time>
      </trkpt>
      <trkpt lat="49.31629" lon="-0.37326">
        <ele>11.1</ele>
        <time>2020-06-17T09:33:55Z</time>
      </trkpt>
      <trkpt lat="49.31628" lon="-0.37325">
        <ele>11.1</ele>
        <time>2020-06-17T09:33:56Z</time>
      </trkpt>
      <trkpt lat="49.31628" lon="-0.37325">
        <ele>11.1</ele>
        <time>2020-06-17T09:33:57Z</time>
      </trkpt>
      <trkpt lat="49.31628" lon="-0.37325">
        <ele>11.1</ele>
        <time>2020-06-17T09:33:58Z</time>
      </trkpt>
      <trkpt lat="49.31628" lon="-0.37326">
        <ele>11.1</ele>
        <time>2020-06-17T09:33:59Z</time>
      </trkpt>
      <trkpt lat="49.31628" lon="-0.37326">
        <ele>11.1</ele>
        <time>2020-06-17T09:34:00Z</time>
      </trkpt>
      <trkpt lat="49.31628" lon="-0.37326">
        <ele>11.1</ele>
        <time>2020-06-17T09:34:01Z</time>
      </trkpt>
      <trkpt lat="49.31628" lon="-0.37326">
        <ele>11.1</ele>
        <time>2020-06-17T09:34:02Z</time>
      </trkpt>
      <trkpt lat="49.31628" lon="-0.37326">
        <ele>11.1</ele>
        <time>2020-06-17T09:34:03Z</time>
      </trkpt>
      <trkpt lat="49.31627" lon="-0.37326">
        <ele>11.1</ele>
        <time>2020-06-17T09:34:04Z</time>
      </trkpt>
      <trkpt lat="49.31627" lon="-0.37326">
        <ele>11.1</ele>
        <time>2020-06-17T09:34:05Z</time>
      </trkpt>
      <trkpt lat="49.31627" lon="-0.37326">
        <ele>11.1</ele>
        <time>2020-06-17T09:34:06Z</time>
      </trkpt>
      <trkpt lat="49.31627" lon="-0.37326">
        <ele>11.1</ele>
        <time>2020-06-17T09:34:07Z</time>
      </trkpt>
      <trkpt lat="49.31627" lon="-0.37326">
        <ele>11.1</ele>
        <time>2020-06-17T09:34:08Z</time>
      </trkpt>
      <trkpt lat="49.31627" lon="-0.37327">
        <ele>11.1</ele>
        <time>2020-06-17T09:34:09Z</time>
      </trkpt>
      <trkpt lat="49.31626" lon="-0.37327">
        <ele>11.1</ele>
        <time>2020-06-17T09:34:10Z</time>
      </trkpt>
      <trkpt lat="49.31626" lon="-0.37328">
        <ele>11.1</ele>
        <time>2020-06-17T09:34:11Z</time>
      </trkpt>
      <trkpt lat="49.31626" lon="-0.37327">
        <ele>11.1</ele>
        <time>2020-06-17T09:34:12Z</time>
      </trkpt>
      <trkpt lat="49.31625" lon="-0.37327">
        <ele>11.1</ele>
        <time>2020-06-17T09:34:13Z</time>
      </trkpt>
      <trkpt lat="49.31625" lon="-0.37328">
        <ele>11.1</ele>
        <time>2020-06-17T09:34:14Z</time>
      </trkpt>
      <trkpt lat="49.31625" lon="-0.37328">
        <ele>11.1</ele>
        <time>2020-06-17T09:34:15Z</time>
      </trkpt>
      <trkpt lat="49.31624" lon="-0.37329">
        <ele>11.1</ele>
        <time>2020-06-17T09:34:16Z</time>
      </trkpt>
      <trkpt lat="49.31623" lon="-0.3733">
        <ele>11.1</ele>
        <time>2020-06-17T09:34:17Z</time>
      </trkpt>
      <trkpt lat="49.31623" lon="-0.37329">
        <ele>11.1</ele>
        <time>2020-06-17T09:34:18Z</time>
      </trkpt>
      <trkpt lat="49.31622" lon="-0.3733">
        <ele>11.1</ele>
        <time>2020-06-17T09:34:19Z</time>
      </trkpt>
      <trkpt lat="49.31622" lon="-0.37331">
        <ele>11.2</ele>
        <time>2020-06-17T09:34:20Z</time>
      </trkpt>
      <trkpt lat="49.3162" lon="-0.3733">
        <ele>11.2</ele>
        <time>2020-06-17T09:34:21Z</time>
      </trkpt>
      <trkpt lat="49.31619" lon="-0.3733">
        <ele>11.2</ele>
        <time>2020-06-17T09:34:22Z</time>
      </trkpt>
      <trkpt lat="49.31619" lon="-0.37331">
        <ele>11.2</ele>
        <time>2020-06-17T09:34:23Z</time>
      </trkpt>
      <trkpt lat="49.31618" lon="-0.37331">
        <ele>11.2</ele>
        <time>2020-06-17T09:34:24Z</time>
      </trkpt>
      <trkpt lat="49.31615" lon="-0.3733">
        <ele>11.2</ele>
        <time>2020-06-17T09:34:25Z</time>
      </trkpt>
      <trkpt lat="49.31614" lon="-0.3733">
        <ele>11.2</ele>
        <time>2020-06-17T09:34:26Z</time>
      </trkpt>
      <trkpt lat="49.3161" lon="-0.3733">
        <ele>11.3</ele>
        <time>2020-06-17T09:34:27Z</time>
      </trkpt>
      <trkpt lat="49.31609" lon="-0.3733">
        <ele>11.3</ele>
        <time>2020-06-17T09:34:28Z</time>
      </trkpt>
      <trkpt lat="49.31606" lon="-0.37329">
        <ele>11.3</ele>
        <time>2020-06-17T09:34:29Z</time>
      </trkpt>
      <trkpt lat="49.31601" lon="-0.37329">
        <ele>11.4</ele>
        <time>2020-06-17T09:34:30Z</time>
      </trkpt>
      <trkpt lat="49.31598" lon="-0.37329">
        <ele>11.4</ele>
        <time>2020-06-17T09:34:31Z</time>
      </trkpt>
      <trkpt lat="49.31594" lon="-0.3733">
        <ele>11.4</ele>
        <time>2020-06-17T09:34:32Z</time>
      </trkpt>
      <trkpt lat="49.31589" lon="-0.37329">
        <ele>11.5</ele>
        <time>2020-06-17T09:34:33Z</time>
      </trkpt>
      <trkpt lat="49.31585" lon="-0.3733">
        <ele>11.5</ele>
        <time>2020-06-17T09:34:34Z</time>
      </trkpt>
      <trkpt lat="49.31581" lon="-0.3733">
        <ele>11.6</ele>
        <time>2020-06-17T09:34:35Z</time>
      </trkpt>
      <trkpt lat="49.31577" lon="-0.3733">
        <ele>11.6</ele>
        <time>2020-06-17T09:34:36Z</time>
      </trkpt>
      <trkpt lat="49.31572" lon="-0.37329">
        <ele>11.7</ele>
        <time>2020-06-17T09:34:37Z</time>
      </trkpt>
      <trkpt lat="49.31568" lon="-0.37327">
        <ele>11.7</ele>
        <time>2020-06-17T09:34:38Z</time>
      </trkpt>
      <trkpt lat="49.31564" lon="-0.37326">
        <ele>11.8</ele>
        <time>2020-06-17T09:34:39Z</time>
      </trkpt>
      <trkpt lat="49.31559" lon="-0.37325">
        <ele>11.8</ele>
        <time>2020-06-17T09:34:40Z</time>
      </trkpt>
      <trkpt lat="49.31555" lon="-0.37324">
        <ele>11.9</ele>
        <time>2020-06-17T09:34:41Z</time>
      </trkpt>
      <trkpt lat="49.3155" lon="-0.37323">
        <ele>12</ele>
        <time>2020-06-17T09:34:42Z</time>
      </trkpt>
      <trkpt lat="49.31546" lon="-0.37321">
        <ele>12</ele>
        <time>2020-06-17T09:34:43Z</time>
      </trkpt>
      <trkpt lat="49.31542" lon="-0.3732">
        <ele>12.1</ele>
        <time>2020-06-17T09:34:44Z</time>
      </trkpt>
      <trkpt lat="49.31538" lon="-0.37318">
        <ele>12.2</ele>
        <time>2020-06-17T09:34:45Z</time>
      </trkpt>
      <trkpt lat="49.31533" lon="-0.37317">
        <ele>12.3</ele>
        <time>2020-06-17T09:34:46Z</time>
      </trkpt>
      <trkpt lat="49.31528" lon="-0.37315">
        <ele>12.4</ele>
        <time>2020-06-17T09:34:47Z</time>
      </trkpt>
      <trkpt lat="49.31523" lon="-0.37313">
        <ele>12.4</ele>
        <time>2020-06-17T09:34:48Z</time>
      </trkpt>
      <trkpt lat="49.31518" lon="-0.37312">
        <ele>12.5</ele>
        <time>2020-06-17T09:34:49Z</time>
      </trkpt>
      <trkpt lat="49.31513" lon="-0.3731">
        <ele>12.6</ele>
        <time>2020-06-17T09:34:50Z</time>
      </trkpt>
      <trkpt lat="49.31508" lon="-0.37309">
        <ele>12.7</ele>
        <time>2020-06-17T09:34:51Z</time>
      </trkpt>
      <trkpt lat="49.31503" lon="-0.37307">
        <ele>12.7</ele>
        <time>2020-06-17T09:34:52Z</time>
      </trkpt>
      <trkpt lat="49.31498" lon="-0.37306">
        <ele>12.8</ele>
        <time>2020-06-17T09:34:53Z</time>
      </trkpt>
      <trkpt lat="49.31494" lon="-0.37305">
        <ele>12.8</ele>
        <time>2020-06-17T09:34:54Z</time>
      </trkpt>
      <trkpt lat="49.31488" lon="-0.37304">
        <ele>12.9</ele>
        <time>2020-06-17T09:34:55Z</time>
      </trkpt>
      <trkpt lat="49.31483" lon="-0.37302">
        <ele>12.9</ele>
        <time>2020-06-17T09:34:56Z</time>
      </trkpt>
      <trkpt lat="49.31478" lon="-0.37301">
        <ele>13</ele>
        <time>2020-06-17T09:34:57Z</time>
      </trkpt>
      <trkpt lat="49.31474" lon="-0.37299">
        <ele>13.1</ele>
        <time>2020-06-17T09:34:58Z</time>
      </trkpt>
      <trkpt lat="49.31469" lon="-0.37298">
        <ele>13.2</ele>
        <time>2020-06-17T09:34:59Z</time>
      </trkpt>
      <trkpt lat="49.31464" lon="-0.37297">
        <ele>13.2</ele>
        <time>2020-06-17T09:35:00Z</time>
      </trkpt>
      <trkpt lat="49.31459" lon="-0.37295">
        <ele>13.3</ele>
        <time>2020-06-17T09:35:01Z</time>
      </trkpt>
      <trkpt lat="49.31454" lon="-0.37293">
        <ele>13.4</ele>
        <time>2020-06-17T09:35:02Z</time>
      </trkpt>
      <trkpt lat="49.31448" lon="-0.37292">
        <ele>13.5</ele>
        <time>2020-06-17T09:35:03Z</time>
      </trkpt>
      <trkpt lat="49.31443" lon="-0.3729">
        <ele>13.6</ele>
        <time>2020-06-17T09:35:04Z</time>
      </trkpt>
      <trkpt lat="49.31437" lon="-0.37289">
        <ele>13.7</ele>
        <time>2020-06-17T09:35:05Z</time>
      </trkpt>
      <trkpt lat="49.31432" lon="-0.37287">
        <ele>13.8</ele>
        <time>2020-06-17T09:35:06Z</time>
      </trkpt>
      <trkpt lat="49.31427" lon="-0.37285">
        <ele>13.9</ele>
        <time>2020-06-17T09:35:07Z</time>
      </trkpt>
      <trkpt lat="49.31422" lon="-0.37283">
        <ele>14</ele>
        <time>2020-06-17T09:35:08Z</time>
      </trkpt>
      <trkpt lat="49.31417" lon="-0.37282">
        <ele>14</ele>
        <time>2020-06-17T09:35:09Z</time>
      </trkpt>
      <trkpt lat="49.31412" lon="-0.3728">
        <ele>14.1</ele>
        <time>2020-06-17T09:35:10Z</time>
      </trkpt>
      <trkpt lat="49.31407" lon="-0.37278">
        <ele>14.1</ele>
        <time>2020-06-17T09:35:11Z</time>
      </trkpt>
      <trkpt lat="49.31402" lon="-0.37276">
        <ele>14.1</ele>
        <time>2020-06-17T09:35:12Z</time>
      </trkpt>
      <trkpt lat="49.31396" lon="-0.37274">
        <ele>14.2</ele>
        <time>2020-06-17T09:35:13Z</time>
      </trkpt>
      <trkpt lat="49.31391" lon="-0.37273">
        <ele>14.2</ele>
        <time>2020-06-17T09:35:14Z</time>
      </trkpt>
      <trkpt lat="49.31386" lon="-0.37272">
        <ele>14.3</ele>
        <time>2020-06-17T09:35:15Z</time>
      </trkpt>
      <trkpt lat="49.3138" lon="-0.37271">
        <ele>14.4</ele>
        <time>2020-06-17T09:35:16Z</time>
      </trkpt>
      <trkpt lat="49.31374" lon="-0.37269">
        <ele>14.5</ele>
        <time>2020-06-17T09:35:17Z</time>
      </trkpt>
      <trkpt lat="49.31368" lon="-0.37268">
        <ele>14.5</ele>
        <time>2020-06-17T09:35:18Z</time>
      </trkpt>
      <trkpt lat="49.31362" lon="-0.37267">
        <ele>14.6</ele>
        <time>2020-06-17T09:35:19Z</time>
      </trkpt>
      <trkpt lat="49.31356" lon="-0.37266">
        <ele>14.7</ele>
        <time>2020-06-17T09:35:20Z</time>
      </trkpt>
      <trkpt lat="49.3135" lon="-0.37264">
        <ele>14.8</ele>
        <time>2020-06-17T09:35:21Z</time>
      </trkpt>
      <trkpt lat="49.31344" lon="-0.37263">
        <ele>14.8</ele>
        <time>2020-06-17T09:35:22Z</time>
      </trkpt>
      <trkpt lat="49.31339" lon="-0.37261">
        <ele>14.9</ele>
        <time>2020-06-17T09:35:23Z</time>
      </trkpt>
      <trkpt lat="49.31333" lon="-0.37259">
        <ele>15</ele>
        <time>2020-06-17T09:35:24Z</time>
      </trkpt>
      <trkpt lat="49.31327" lon="-0.37258">
        <ele>15</ele>
        <time>2020-06-17T09:35:25Z</time>
      </trkpt>
      <trkpt lat="49.31322" lon="-0.37256">
        <ele>15.1</ele>
        <time>2020-06-17T09:35:26Z</time>
      </trkpt>
      <trkpt lat="49.31316" lon="-0.37254">
        <ele>15.2</ele>
        <time>2020-06-17T09:35:27Z</time>
      </trkpt>
      <trkpt lat="49.31311" lon="-0.37253">
        <ele>15.2</ele>
        <time>2020-06-17T09:35:28Z</time>
      </trkpt>
      <trkpt lat="49.31305" lon="-0.37251">
        <ele>15.3</ele>
        <time>2020-06-17T09:35:29Z</time>
      </trkpt>
      <trkpt lat="49.313" lon="-0.3725">
        <ele>15.4</ele>
        <time>2020-06-17T09:35:30Z</time>
      </trkpt>
      <trkpt lat="49.31295" lon="-0.37248">
        <ele>15.5</ele>
        <time>2020-06-17T09:35:31Z</time>
      </trkpt>
      <trkpt lat="49.3129" lon="-0.37247">
        <ele>15.6</ele>
        <time>2020-06-17T09:35:32Z</time>
      </trkpt>
      <trkpt lat="49.31285" lon="-0.37246">
        <ele>15.7</ele>
        <time>2020-06-17T09:35:33Z</time>
      </trkpt>
      <trkpt lat="49.3128" lon="-0.37244">
        <ele>15.8</ele>
        <time>2020-06-17T09:35:34Z</time>
      </trkpt>
      <trkpt lat="49.31275" lon="-0.37242">
        <ele>15.9</ele>
        <time>2020-06-17T09:35:35Z</time>
      </trkpt>
      <trkpt lat="49.3127" lon="-0.3724">
        <ele>16</ele>
        <time>2020-06-17T09:35:36Z</time>
      </trkpt>
      <trkpt lat="49.31265" lon="-0.37238">
        <ele>16.2</ele>
        <time>2020-06-17T09:35:37Z</time>
      </trkpt>
      <trkpt lat="49.3126" lon="-0.37237">
        <ele>16.3</ele>
        <time>2020-06-17T09:35:38Z</time>
      </trkpt>
      <trkpt lat="49.31254" lon="-0.37235">
        <ele>16.4</ele>
        <time>2020-06-17T09:35:39Z</time>
      </trkpt>
      <trkpt lat="49.31249" lon="-0.37234">
        <ele>16.5</ele>
        <time>2020-06-17T09:35:40Z</time>
      </trkpt>
      <trkpt lat="49.31243" lon="-0.37233">
        <ele>16.6</ele>
        <time>2020-06-17T09:35:41Z</time>
      </trkpt>
      <trkpt lat="49.31238" lon="-0.37232">
        <ele>16.7</ele>
        <time>2020-06-17T09:35:42Z</time>
      </trkpt>
      <trkpt lat="49.31232" lon="-0.37233">
        <ele>16.9</ele>
        <time>2020-06-17T09:35:43Z</time>
      </trkpt>
      <trkpt lat="49.31227" lon="-0.37234">
        <ele>17</ele>
        <time>2020-06-17T09:35:44Z</time>
      </trkpt>
      <trkpt lat="49.31222" lon="-0.37234">
        <ele>17.1</ele>
        <time>2020-06-17T09:35:45Z</time>
      </trkpt>
      <trkpt lat="49.31217" lon="-0.37235">
        <ele>17.3</ele>
        <time>2020-06-17T09:35:46Z</time>
      </trkpt>
      <trkpt lat="49.31212" lon="-0.37236">
        <ele>17.5</ele>
        <time>2020-06-17T09:35:47Z</time>
      </trkpt>
      <trkpt lat="49.31207" lon="-0.37237">
        <ele>17.6</ele>
        <time>2020-06-17T09:35:48Z</time>
      </trkpt>
      <trkpt lat="49.31202" lon="-0.37238">
        <ele>17.8</ele>
        <time>2020-06-17T09:35:49Z</time>
      </trkpt>
      <trkpt lat="49.31197" lon="-0.3724">
        <ele>17.9</ele>
        <time>2020-06-17T09:35:50Z</time>
      </trkpt>
      <trkpt lat="49.31192" lon="-0.37241">
        <ele>18.1</ele>
        <time>2020-06-17T09:35:51Z</time>
      </trkpt>
      <trkpt lat="49.31187" lon="-0.37243">
        <ele>18.3</ele>
        <time>2020-06-17T09:35:52Z</time>
      </trkpt>
      <trkpt lat="49.31182" lon="-0.37244">
        <ele>18.4</ele>
        <time>2020-06-17T09:35:53Z</time>
      </trkpt>
      <trkpt lat="49.31178" lon="-0.37246">
        <ele>18.6</ele>
        <time>2020-06-17T09:35:54Z</time>
      </trkpt>
      <trkpt lat="49.31173" lon="-0.37247">
        <ele>18.7</ele>
        <time>2020-06-17T09:35:55Z</time>
      </trkpt>
      <trkpt lat="49.31169" lon="-0.37248">
        <ele>18.8</ele>
        <time>2020-06-17T09:35:56Z</time>
      </trkpt>
      <trkpt lat="49.31164" lon="-0.3725">
        <ele>18.9</ele>
        <time>2020-06-17T09:35:57Z</time>
      </trkpt>
      <trkpt lat="49.3116" lon="-0.37252">
        <ele>19.1</ele>
        <time>2020-06-17T09:35:58Z</time>
      </trkpt>
      <trkpt lat="49.31155" lon="-0.37254">
        <ele>19.2</ele>
        <time>2020-06-17T09:35:59Z</time>
      </trkpt>
      <trkpt lat="49.31151" lon="-0.37256">
        <ele>19.3</ele>
        <time>2020-06-17T09:36:00Z</time>
      </trkpt>
      <trkpt lat="49.31146" lon="-0.37258">
        <ele>19.5</ele>
        <time>2020-06-17T09:36:01Z</time>
      </trkpt>
      <trkpt lat="49.31142" lon="-0.3726">
        <ele>19.6</ele>
        <time>2020-06-17T09:36:02Z</time>
      </trkpt>
      <trkpt lat="49.31137" lon="-0.37262">
        <ele>19.8</ele>
        <time>2020-06-17T09:36:03Z</time>
      </trkpt>
      <trkpt lat="49.31132" lon="-0.37264">
        <ele>19.9</ele>
        <time>2020-06-17T09:36:04Z</time>
      </trkpt>
      <trkpt lat="49.31127" lon="-0.37266">
        <ele>20.1</ele>
        <time>2020-06-17T09:36:05Z</time>
      </trkpt>
      <trkpt lat="49.31122" lon="-0.37268">
        <ele>20.2</ele>
        <time>2020-06-17T09:36:06Z</time>
      </trkpt>
      <trkpt lat="49.31117" lon="-0.3727">
        <ele>20.4</ele>
        <time>2020-06-17T09:36:07Z</time>
      </trkpt>
      <trkpt lat="49.31111" lon="-0.37272">
        <ele>20.5</ele>
        <time>2020-06-17T09:36:08Z</time>
      </trkpt>
      <trkpt lat="49.31106" lon="-0.37274">
        <ele>20.6</ele>
        <time>2020-06-17T09:36:09Z</time>
      </trkpt>
      <trkpt lat="49.31101" lon="-0.37276">
        <ele>20.8</ele>
        <time>2020-06-17T09:36:10Z</time>
      </trkpt>
      <trkpt lat="49.31096" lon="-0.37278">
        <ele>20.9</ele>
        <time>2020-06-17T09:36:11Z</time>
      </trkpt>
      <trkpt lat="49.31091" lon="-0.3728">
        <ele>21</ele>
        <time>2020-06-17T09:36:12Z</time>
      </trkpt>
      <trkpt lat="49.31086" lon="-0.37281">
        <ele>21.2</ele>
        <time>2020-06-17T09:36:13Z</time>
      </trkpt>
      <trkpt lat="49.31081" lon="-0.37284">
        <ele>21.3</ele>
        <time>2020-06-17T09:36:14Z</time>
      </trkpt>
      <trkpt lat="49.31075" lon="-0.37285">
        <ele>21.5</ele>
        <time>2020-06-17T09:36:15Z</time>
      </trkpt>
      <trkpt lat="49.3107" lon="-0.37287">
        <ele>21.6</ele>
        <time>2020-06-17T09:36:16Z</time>
      </trkpt>
      <trkpt lat="49.31065" lon="-0.37288">
        <ele>21.7</ele>
        <time>2020-06-17T09:36:17Z</time>
      </trkpt>
      <trkpt lat="49.31059" lon="-0.37289">
        <ele>21.8</ele>
        <time>2020-06-17T09:36:18Z</time>
      </trkpt>
      <trkpt lat="49.31054" lon="-0.3729">
        <ele>21.9</ele>
        <time>2020-06-17T09:36:19Z</time>
      </trkpt>
      <trkpt lat="49.31049" lon="-0.37291">
        <ele>22</ele>
        <time>2020-06-17T09:36:20Z</time>
      </trkpt>
      <trkpt lat="49.31044" lon="-0.37292">
        <ele>22.1</ele>
        <time>2020-06-17T09:36:21Z</time>
      </trkpt>
      <trkpt lat="49.31039" lon="-0.37294">
        <ele>22.2</ele>
        <time>2020-06-17T09:36:22Z</time>
      </trkpt>
      <trkpt lat="49.31035" lon="-0.37296">
        <ele>22.3</ele>
        <time>2020-06-17T09:36:23Z</time>
      </trkpt>
      <trkpt lat="49.31031" lon="-0.37298">
        <ele>22.4</ele>
        <time>2020-06-17T09:36:24Z</time>
      </trkpt>
      <trkpt lat="49.31026" lon="-0.37301">
        <ele>22.5</ele>
        <time>2020-06-17T09:36:25Z</time>
      </trkpt>
      <trkpt lat="49.31021" lon="-0.37303">
        <ele>22.6</ele>
        <time>2020-06-17T09:36:26Z</time>
      </trkpt>
      <trkpt lat="49.31016" lon="-0.37305">
        <ele>22.6</ele>
        <time>2020-06-17T09:36:27Z</time>
      </trkpt>
      <trkpt lat="49.31011" lon="-0.37306">
        <ele>22.7</ele>
        <time>2020-06-17T09:36:28Z</time>
      </trkpt>
      <trkpt lat="49.31007" lon="-0.37308">
        <ele>22.7</ele>
        <time>2020-06-17T09:36:29Z</time>
      </trkpt>
      <trkpt lat="49.31002" lon="-0.3731">
        <ele>22.8</ele>
        <time>2020-06-17T09:36:30Z</time>
      </trkpt>
      <trkpt lat="49.30997" lon="-0.37312">
        <ele>22.9</ele>
        <time>2020-06-17T09:36:31Z</time>
      </trkpt>
      <trkpt lat="49.30992" lon="-0.37314">
        <ele>22.9</ele>
        <time>2020-06-17T09:36:32Z</time>
      </trkpt>
      <trkpt lat="49.30987" lon="-0.37315">
        <ele>23</ele>
        <time>2020-06-17T09:36:33Z</time>
      </trkpt>
      <trkpt lat="49.30982" lon="-0.37317">
        <ele>23</ele>
        <time>2020-06-17T09:36:34Z</time>
      </trkpt>
      <trkpt lat="49.30977" lon="-0.37318">
        <ele>23.1</ele>
        <time>2020-06-17T09:36:35Z</time>
      </trkpt>
      <trkpt lat="49.30971" lon="-0.3732">
        <ele>23.1</ele>
        <time>2020-06-17T09:36:36Z</time>
      </trkpt>
      <trkpt lat="49.30965" lon="-0.37322">
        <ele>23.2</ele>
        <time>2020-06-17T09:36:37Z</time>
      </trkpt>
      <trkpt lat="49.30959" lon="-0.37323">
        <ele>23.3</ele>
        <time>2020-06-17T09:36:38Z</time>
      </trkpt>
      <trkpt lat="49.30954" lon="-0.37324">
        <ele>23.3</ele>
        <time>2020-06-17T09:36:39Z</time>
      </trkpt>
      <trkpt lat="49.30948" lon="-0.37326">
        <ele>23.4</ele>
        <time>2020-06-17T09:36:40Z</time>
      </trkpt>
      <trkpt lat="49.30943" lon="-0.37328">
        <ele>23.4</ele>
        <time>2020-06-17T09:36:41Z</time>
      </trkpt>
      <trkpt lat="49.30938" lon="-0.37331">
        <ele>23.5</ele>
        <time>2020-06-17T09:36:42Z</time>
      </trkpt>
      <trkpt lat="49.30932" lon="-0.37333">
        <ele>23.5</ele>
        <time>2020-06-17T09:36:43Z</time>
      </trkpt>
      <trkpt lat="49.30928" lon="-0.37336">
        <ele>23.5</ele>
        <time>2020-06-17T09:36:44Z</time>
      </trkpt>
      <trkpt lat="49.30922" lon="-0.37338">
        <ele>23.6</ele>
        <time>2020-06-17T09:36:45Z</time>
      </trkpt>
      <trkpt lat="49.30917" lon="-0.37341">
        <ele>23.6</ele>
        <time>2020-06-17T09:36:46Z</time>
      </trkpt>
      <trkpt lat="49.30911" lon="-0.37343">
        <ele>23.7</ele>
        <time>2020-06-17T09:36:47Z</time>
      </trkpt>
      <trkpt lat="49.30905" lon="-0.37345">
        <ele>23.7</ele>
        <time>2020-06-17T09:36:48Z</time>
      </trkpt>
      <trkpt lat="49.30899" lon="-0.37347">
        <ele>23.7</ele>
        <time>2020-06-17T09:36:49Z</time>
      </trkpt>
      <trkpt lat="49.30893" lon="-0.37348">
        <ele>23.6</ele>
        <time>2020-06-17T09:36:50Z</time>
      </trkpt>
      <trkpt lat="49.30887" lon="-0.37349">
        <ele>23.6</ele>
        <time>2020-06-17T09:36:51Z</time>
      </trkpt>
      <trkpt lat="49.30882" lon="-0.37352">
        <ele>23.6</ele>
        <time>2020-06-17T09:36:52Z</time>
      </trkpt>
      <trkpt lat="49.30876" lon="-0.37354">
        <ele>23.6</ele>
        <time>2020-06-17T09:36:53Z</time>
      </trkpt>
      <trkpt lat="49.3087" lon="-0.37356">
        <ele>23.6</ele>
        <time>2020-06-17T09:36:54Z</time>
      </trkpt>
      <trkpt lat="49.30865" lon="-0.37358">
        <ele>23.6</ele>
        <time>2020-06-17T09:36:55Z</time>
      </trkpt>
      <trkpt lat="49.30859" lon="-0.37359">
        <ele>23.6</ele>
        <time>2020-06-17T09:36:56Z</time>
      </trkpt>
      <trkpt lat="49.30855" lon="-0.37361">
        <ele>23.6</ele>
        <time>2020-06-17T09:36:57Z</time>
      </trkpt>
      <trkpt lat="49.3085" lon="-0.37363">
        <ele>23.6</ele>
        <time>2020-06-17T09:36:58Z</time>
      </trkpt>
      <trkpt lat="49.30844" lon="-0.37365">
        <ele>23.6</ele>
        <time>2020-06-17T09:36:59Z</time>
      </trkpt>
      <trkpt lat="49.30838" lon="-0.37367">
        <ele>23.6</ele>
        <time>2020-06-17T09:37:00Z</time>
      </trkpt>
      <trkpt lat="49.30833" lon="-0.37369">
        <ele>23.6</ele>
        <time>2020-06-17T09:37:01Z</time>
      </trkpt>
      <trkpt lat="49.30828" lon="-0.3737">
        <ele>23.6</ele>
        <time>2020-06-17T09:37:02Z</time>
      </trkpt>
      <trkpt lat="49.30822" lon="-0.37371">
        <ele>23.6</ele>
        <time>2020-06-17T09:37:03Z</time>
      </trkpt>
      <trkpt lat="49.30817" lon="-0.37373">
        <ele>23.6</ele>
        <time>2020-06-17T09:37:04Z</time>
      </trkpt>
      <trkpt lat="49.30812" lon="-0.37375">
        <ele>23.6</ele>
        <time>2020-06-17T09:37:05Z</time>
      </trkpt>
      <trkpt lat="49.30807" lon="-0.37376">
        <ele>23.6</ele>
        <time>2020-06-17T09:37:06Z</time>
      </trkpt>
      <trkpt lat="49.30801" lon="-0.37378">
        <ele>23.6</ele>
        <time>2020-06-17T09:37:07Z</time>
      </trkpt>
      <trkpt lat="49.30796" lon="-0.3738">
        <ele>23.6</ele>
        <time>2020-06-17T09:37:08Z</time>
      </trkpt>
      <trkpt lat="49.30791" lon="-0.37382">
        <ele>23.6</ele>
        <time>2020-06-17T09:37:09Z</time>
      </trkpt>
      <trkpt lat="49.30785" lon="-0.37384">
        <ele>23.6</ele>
        <time>2020-06-17T09:37:10Z</time>
      </trkpt>
      <trkpt lat="49.30781" lon="-0.37387">
        <ele>23.6</ele>
        <time>2020-06-17T09:37:11Z</time>
      </trkpt>
      <trkpt lat="49.30776" lon="-0.37389">
        <ele>23.6</ele>
        <time>2020-06-17T09:37:12Z</time>
      </trkpt>
      <trkpt lat="49.3077" lon="-0.37391">
        <ele>23.7</ele>
        <time>2020-06-17T09:37:13Z</time>
      </trkpt>
      <trkpt lat="49.30765" lon="-0.37392">
        <ele>23.7</ele>
        <time>2020-06-17T09:37:14Z</time>
      </trkpt>
      <trkpt lat="49.30759" lon="-0.37393">
        <ele>23.7</ele>
        <time>2020-06-17T09:37:15Z</time>
      </trkpt>
      <trkpt lat="49.30754" lon="-0.37394">
        <ele>23.7</ele>
        <time>2020-06-17T09:37:16Z</time>
      </trkpt>
      <trkpt lat="49.30748" lon="-0.37396">
        <ele>23.7</ele>
        <time>2020-06-17T09:37:17Z</time>
      </trkpt>
      <trkpt lat="49.30743" lon="-0.37397">
        <ele>23.7</ele>
        <time>2020-06-17T09:37:18Z</time>
      </trkpt>
      <trkpt lat="49.30738" lon="-0.37398">
        <ele>23.7</ele>
        <time>2020-06-17T09:37:19Z</time>
      </trkpt>
      <trkpt lat="49.30733" lon="-0.37399">
        <ele>23.7</ele>
        <time>2020-06-17T09:37:20Z</time>
      </trkpt>
      <trkpt lat="49.30729" lon="-0.37401">
        <ele>23.7</ele>
        <time>2020-06-17T09:37:21Z</time>
      </trkpt>
      <trkpt lat="49.30724" lon="-0.37403">
        <ele>23.7</ele>
        <time>2020-06-17T09:37:22Z</time>
      </trkpt>
      <trkpt lat="49.3072" lon="-0.37405">
        <ele>23.7</ele>
        <time>2020-06-17T09:37:23Z</time>
      </trkpt>
      <trkpt lat="49.30716" lon="-0.37407">
        <ele>23.7</ele>
        <time>2020-06-17T09:37:24Z</time>
      </trkpt>
      <trkpt lat="49.30712" lon="-0.37409">
        <ele>23.8</ele>
        <time>2020-06-17T09:37:25Z</time>
      </trkpt>
      <trkpt lat="49.30707" lon="-0.37411">
        <ele>23.8</ele>
        <time>2020-06-17T09:37:26Z</time>
      </trkpt>
      <trkpt lat="49.30702" lon="-0.37413">
        <ele>23.8</ele>
        <time>2020-06-17T09:37:27Z</time>
      </trkpt>
      <trkpt lat="49.30697" lon="-0.37414">
        <ele>23.8</ele>
        <time>2020-06-17T09:37:28Z</time>
      </trkpt>
      <trkpt lat="49.30692" lon="-0.37415">
        <ele>23.8</ele>
        <time>2020-06-17T09:37:29Z</time>
      </trkpt>
      <trkpt lat="49.30687" lon="-0.37416">
        <ele>23.8</ele>
        <time>2020-06-17T09:37:30Z</time>
      </trkpt>
      <trkpt lat="49.30682" lon="-0.37416">
        <ele>23.8</ele>
        <time>2020-06-17T09:37:31Z</time>
      </trkpt>
      <trkpt lat="49.30676" lon="-0.37417">
        <ele>23.8</ele>
        <time>2020-06-17T09:37:32Z</time>
      </trkpt>
      <trkpt lat="49.30671" lon="-0.37418">
        <ele>23.7</ele>
        <time>2020-06-17T09:37:33Z</time>
      </trkpt>
      <trkpt lat="49.30666" lon="-0.37419">
        <ele>23.7</ele>
        <time>2020-06-17T09:37:34Z</time>
      </trkpt>
      <trkpt lat="49.30662" lon="-0.3742">
        <ele>23.7</ele>
        <time>2020-06-17T09:37:35Z</time>
      </trkpt>
      <trkpt lat="49.30657" lon="-0.37421">
        <ele>23.7</ele>
        <time>2020-06-17T09:37:36Z</time>
      </trkpt>
      <trkpt lat="49.30653" lon="-0.37422">
        <ele>23.8</ele>
        <time>2020-06-17T09:37:37Z</time>
      </trkpt>
      <trkpt lat="49.30648" lon="-0.37422">
        <ele>23.8</ele>
        <time>2020-06-17T09:37:38Z</time>
      </trkpt>
      <trkpt lat="49.30643" lon="-0.37424">
        <ele>23.8</ele>
        <time>2020-06-17T09:37:39Z</time>
      </trkpt>
      <trkpt lat="49.30638" lon="-0.37426">
        <ele>23.8</ele>
        <time>2020-06-17T09:37:40Z</time>
      </trkpt>
      <trkpt lat="49.30634" lon="-0.37429">
        <ele>23.8</ele>
        <time>2020-06-17T09:37:41Z</time>
      </trkpt>
      <trkpt lat="49.30628" lon="-0.37431">
        <ele>23.9</ele>
        <time>2020-06-17T09:37:42Z</time>
      </trkpt>
      <trkpt lat="49.30623" lon="-0.37433">
        <ele>23.9</ele>
        <time>2020-06-17T09:37:43Z</time>
      </trkpt>
      <trkpt lat="49.30618" lon="-0.37436">
        <ele>23.9</ele>
        <time>2020-06-17T09:37:44Z</time>
      </trkpt>
      <trkpt lat="49.30612" lon="-0.37438">
        <ele>23.9</ele>
        <time>2020-06-17T09:37:45Z</time>
      </trkpt>
      <trkpt lat="49.30607" lon="-0.37439">
        <ele>23.9</ele>
        <time>2020-06-17T09:37:46Z</time>
      </trkpt>
      <trkpt lat="49.30602" lon="-0.37441">
        <ele>23.9</ele>
        <time>2020-06-17T09:37:47Z</time>
      </trkpt>
      <trkpt lat="49.30597" lon="-0.37443">
        <ele>23.9</ele>
        <time>2020-06-17T09:37:48Z</time>
      </trkpt>
      <trkpt lat="49.30592" lon="-0.37446">
        <ele>24</ele>
        <time>2020-06-17T09:37:49Z</time>
      </trkpt>
      <trkpt lat="49.30586" lon="-0.37447">
        <ele>23.9</ele>
        <time>2020-06-17T09:37:50Z</time>
      </trkpt>
      <trkpt lat="49.3058" lon="-0.37449">
        <ele>23.9</ele>
        <time>2020-06-17T09:37:51Z</time>
      </trkpt>
      <trkpt lat="49.30574" lon="-0.37451">
        <ele>23.9</ele>
        <time>2020-06-17T09:37:52Z</time>
      </trkpt>
      <trkpt lat="49.30569" lon="-0.37452">
        <ele>23.9</ele>
        <time>2020-06-17T09:37:53Z</time>
      </trkpt>
      <trkpt lat="49.30564" lon="-0.37454">
        <ele>23.9</ele>
        <time>2020-06-17T09:37:54Z</time>
      </trkpt>
      <trkpt lat="49.30558" lon="-0.37455">
        <ele>23.9</ele>
        <time>2020-06-17T09:37:55Z</time>
      </trkpt>
      <trkpt lat="49.30552" lon="-0.37457">
        <ele>23.9</ele>
        <time>2020-06-17T09:37:56Z</time>
      </trkpt>
      <trkpt lat="49.30547" lon="-0.37458">
        <ele>23.9</ele>
        <time>2020-06-17T09:37:57Z</time>
      </trkpt>
      <trkpt lat="49.30541" lon="-0.3746">
        <ele>24</ele>
        <time>2020-06-17T09:37:58Z</time>
      </trkpt>
      <trkpt lat="49.30536" lon="-0.37462">
        <ele>24</ele>
        <time>2020-06-17T09:37:59Z</time>
      </trkpt>
      <trkpt lat="49.3053" lon="-0.37464">
        <ele>24</ele>
        <time>2020-06-17T09:38:00Z</time>
      </trkpt>
      <trkpt lat="49.30524" lon="-0.37465">
        <ele>24.1</ele>
        <time>2020-06-17T09:38:01Z</time>
      </trkpt>
      <trkpt lat="49.30518" lon="-0.37467">
        <ele>24.1</ele>
        <time>2020-06-17T09:38:02Z</time>
      </trkpt>
      <trkpt lat="49.30512" lon="-0.37469">
        <ele>24.2</ele>
        <time>2020-06-17T09:38:03Z</time>
      </trkpt>
      <trkpt lat="49.30507" lon="-0.37471">
        <ele>24.2</ele>
        <time>2020-06-17T09:38:04Z</time>
      </trkpt>
      <trkpt lat="49.30502" lon="-0.37473">
        <ele>24.2</ele>
        <time>2020-06-17T09:38:05Z</time>
      </trkpt>
      <trkpt lat="49.30496" lon="-0.37476">
        <ele>24.3</ele>
        <time>2020-06-17T09:38:06Z</time>
      </trkpt>
      <trkpt lat="49.30491" lon="-0.37478">
        <ele>24.3</ele>
        <time>2020-06-17T09:38:07Z</time>
      </trkpt>
      <trkpt lat="49.30485" lon="-0.3748">
        <ele>24.3</ele>
        <time>2020-06-17T09:38:08Z</time>
      </trkpt>
      <trkpt lat="49.30478" lon="-0.37482">
        <ele>24.3</ele>
        <time>2020-06-17T09:38:09Z</time>
      </trkpt>
      <trkpt lat="49.30472" lon="-0.37485">
        <ele>24.4</ele>
        <time>2020-06-17T09:38:10Z</time>
      </trkpt>
      <trkpt lat="49.30465" lon="-0.37486">
        <ele>24.4</ele>
        <time>2020-06-17T09:38:11Z</time>
      </trkpt>
      <trkpt lat="49.3046" lon="-0.37488">
        <ele>24.5</ele>
        <time>2020-06-17T09:38:12Z</time>
      </trkpt>
      <trkpt lat="49.30455" lon="-0.3749">
        <ele>24.5</ele>
        <time>2020-06-17T09:38:13Z</time>
      </trkpt>
      <trkpt lat="49.3045" lon="-0.37492">
        <ele>24.5</ele>
        <time>2020-06-17T09:38:14Z</time>
      </trkpt>
      <trkpt lat="49.30445" lon="-0.37494">
        <ele>24.6</ele>
        <time>2020-06-17T09:38:15Z</time>
      </trkpt>
      <trkpt lat="49.3044" lon="-0.37496">
        <ele>24.6</ele>
        <time>2020-06-17T09:38:16Z</time>
      </trkpt>
      <trkpt lat="49.30436" lon="-0.37497">
        <ele>24.6</ele>
        <time>2020-06-17T09:38:17Z</time>
      </trkpt>
      <trkpt lat="49.30432" lon="-0.37499">
        <ele>24.6</ele>
        <time>2020-06-17T09:38:18Z</time>
      </trkpt>
      <trkpt lat="49.30426" lon="-0.375">
        <ele>24.7</ele>
        <time>2020-06-17T09:38:19Z</time>
      </trkpt>
      <trkpt lat="49.30422" lon="-0.37502">
        <ele>24.7</ele>
        <time>2020-06-17T09:38:20Z</time>
      </trkpt>
      <trkpt lat="49.30416" lon="-0.37503">
        <ele>24.7</ele>
        <time>2020-06-17T09:38:21Z</time>
      </trkpt>
      <trkpt lat="49.3041" lon="-0.37505">
        <ele>24.7</ele>
        <time>2020-06-17T09:38:22Z</time>
      </trkpt>
      <trkpt lat="49.30405" lon="-0.37506">
        <ele>24.7</ele>
        <time>2020-06-17T09:38:23Z</time>
      </trkpt>
      <trkpt lat="49.30399" lon="-0.37507">
        <ele>24.7</ele>
        <time>2020-06-17T09:38:24Z</time>
      </trkpt>
      <trkpt lat="49.30393" lon="-0.37509">
        <ele>24.7</ele>
        <time>2020-06-17T09:38:25Z</time>
      </trkpt>
      <trkpt lat="49.30387" lon="-0.3751">
        <ele>24.7</ele>
        <time>2020-06-17T09:38:26Z</time>
      </trkpt>
      <trkpt lat="49.30382" lon="-0.37512">
        <ele>24.7</ele>
        <time>2020-06-17T09:38:27Z</time>
      </trkpt>
      <trkpt lat="49.30377" lon="-0.37514">
        <ele>24.8</ele>
        <time>2020-06-17T09:38:28Z</time>
      </trkpt>
      <trkpt lat="49.30372" lon="-0.37515">
        <ele>24.9</ele>
        <time>2020-06-17T09:38:29Z</time>
      </trkpt>
      <trkpt lat="49.30367" lon="-0.37517">
        <ele>25</ele>
        <time>2020-06-17T09:38:30Z</time>
      </trkpt>
      <trkpt lat="49.30361" lon="-0.37519">
        <ele>25</ele>
        <time>2020-06-17T09:38:31Z</time>
      </trkpt>
      <trkpt lat="49.30355" lon="-0.3752">
        <ele>25.1</ele>
        <time>2020-06-17T09:38:32Z</time>
      </trkpt>
      <trkpt lat="49.3035" lon="-0.37521">
        <ele>25.1</ele>
        <time>2020-06-17T09:38:33Z</time>
      </trkpt>
      <trkpt lat="49.30344" lon="-0.37523">
        <ele>25.1</ele>
        <time>2020-06-17T09:38:34Z</time>
      </trkpt>
      <trkpt lat="49.30339" lon="-0.37524">
        <ele>25.1</ele>
        <time>2020-06-17T09:38:35Z</time>
      </trkpt>
      <trkpt lat="49.30334" lon="-0.37527">
        <ele>25.1</ele>
        <time>2020-06-17T09:38:36Z</time>
      </trkpt>
      <trkpt lat="49.30329" lon="-0.37529">
        <ele>25.1</ele>
        <time>2020-06-17T09:38:37Z</time>
      </trkpt>
      <trkpt lat="49.30324" lon="-0.37531">
        <ele>25.1</ele>
        <time>2020-06-17T09:38:38Z</time>
      </trkpt>
      <trkpt lat="49.3032" lon="-0.37533">
        <ele>25.2</ele>
        <time>2020-06-17T09:38:39Z</time>
      </trkpt>
      <trkpt lat="49.30315" lon="-0.37534">
        <ele>25.2</ele>
        <time>2020-06-17T09:38:40Z</time>
      </trkpt>
      <trkpt lat="49.30311" lon="-0.37536">
        <ele>25.2</ele>
        <time>2020-06-17T09:38:41Z</time>
      </trkpt>
      <trkpt lat="49.30307" lon="-0.37538">
        <ele>25.3</ele>
        <time>2020-06-17T09:38:42Z</time>
      </trkpt>
      <trkpt lat="49.30302" lon="-0.37538">
        <ele>25.3</ele>
        <time>2020-06-17T09:38:43Z</time>
      </trkpt>
      <trkpt lat="49.30298" lon="-0.3754">
        <ele>25.4</ele>
        <time>2020-06-17T09:38:44Z</time>
      </trkpt>
      <trkpt lat="49.30293" lon="-0.37542">
        <ele>25.5</ele>
        <time>2020-06-17T09:38:45Z</time>
      </trkpt>
      <trkpt lat="49.30289" lon="-0.37544">
        <ele>25.5</ele>
        <time>2020-06-17T09:38:46Z</time>
      </trkpt>
      <trkpt lat="49.30284" lon="-0.37547">
        <ele>25.5</ele>
        <time>2020-06-17T09:38:47Z</time>
      </trkpt>
      <trkpt lat="49.30278" lon="-0.3755">
        <ele>25.5</ele>
        <time>2020-06-17T09:38:48Z</time>
      </trkpt>
      <trkpt lat="49.30273" lon="-0.37554">
        <ele>25.6</ele>
        <time>2020-06-17T09:38:49Z</time>
      </trkpt>
      <trkpt lat="49.30268" lon="-0.37556">
        <ele>25.6</ele>
        <time>2020-06-17T09:38:50Z</time>
      </trkpt>
      <trkpt lat="49.30263" lon="-0.37559">
        <ele>25.7</ele>
        <time>2020-06-17T09:38:51Z</time>
      </trkpt>
      <trkpt lat="49.3026" lon="-0.37563">
        <ele>25.7</ele>
        <time>2020-06-17T09:38:52Z</time>
      </trkpt>
      <trkpt lat="49.30256" lon="-0.37566">
        <ele>25.7</ele>
        <time>2020-06-17T09:38:53Z</time>
      </trkpt>
      <trkpt lat="49.30253" lon="-0.37568">
        <ele>25.8</ele>
        <time>2020-06-17T09:38:54Z</time>
      </trkpt>
      <trkpt lat="49.30249" lon="-0.3757">
        <ele>25.8</ele>
        <time>2020-06-17T09:38:55Z</time>
      </trkpt>
      <trkpt lat="49.30246" lon="-0.37572">
        <ele>25.9</ele>
        <time>2020-06-17T09:38:56Z</time>
      </trkpt>
      <trkpt lat="49.30245" lon="-0.37573">
        <ele>25.9</ele>
        <time>2020-06-17T09:38:57Z</time>
      </trkpt>
      <trkpt lat="49.30244" lon="-0.37573">
        <ele>25.9</ele>
        <time>2020-06-17T09:38:58Z</time>
      </trkpt>
      <trkpt lat="49.30243" lon="-0.37574">
        <ele>25.9</ele>
        <time>2020-06-17T09:38:59Z</time>
      </trkpt>
      <trkpt lat="49.30242" lon="-0.37574">
        <ele>25.9</ele>
        <time>2020-06-17T09:39:00Z</time>
      </trkpt>
      <trkpt lat="49.30241" lon="-0.37575">
        <ele>25.9</ele>
        <time>2020-06-17T09:39:01Z</time>
      </trkpt>
      <trkpt lat="49.30239" lon="-0.37574">
        <ele>25.9</ele>
        <time>2020-06-17T09:39:02Z</time>
      </trkpt>
      <trkpt lat="49.30236" lon="-0.37573">
        <ele>26</ele>
        <time>2020-06-17T09:39:03Z</time>
      </trkpt>
      <trkpt lat="49.30235" lon="-0.37573">
        <ele>26</ele>
        <time>2020-06-17T09:39:04Z</time>
      </trkpt>
      <trkpt lat="49.30231" lon="-0.37571">
        <ele>26</ele>
        <time>2020-06-17T09:39:05Z</time>
      </trkpt>
      <trkpt lat="49.3023" lon="-0.37571">
        <ele>26.1</ele>
        <time>2020-06-17T09:39:06Z</time>
      </trkpt>
      <trkpt lat="49.30226" lon="-0.3757">
        <ele>26.1</ele>
        <time>2020-06-17T09:39:07Z</time>
      </trkpt>
      <trkpt lat="49.30222" lon="-0.37571">
        <ele>26.1</ele>
        <time>2020-06-17T09:39:08Z</time>
      </trkpt>
      <trkpt lat="49.30219" lon="-0.37572">
        <ele>26.1</ele>
        <time>2020-06-17T09:39:09Z</time>
      </trkpt>
      <trkpt lat="49.30214" lon="-0.37574">
        <ele>26.2</ele>
        <time>2020-06-17T09:39:10Z</time>
      </trkpt>
      <trkpt lat="49.3021" lon="-0.37577">
        <ele>26.2</ele>
        <time>2020-06-17T09:39:11Z</time>
      </trkpt>
      <trkpt lat="49.30204" lon="-0.37579">
        <ele>26.3</ele>
        <time>2020-06-17T09:39:12Z</time>
      </trkpt>
      <trkpt lat="49.302" lon="-0.37581">
        <ele>26.3</ele>
        <time>2020-06-17T09:39:13Z</time>
      </trkpt>
      <trkpt lat="49.30196" lon="-0.37582">
        <ele>26.3</ele>
        <time>2020-06-17T09:39:14Z</time>
      </trkpt>
      <trkpt lat="49.30191" lon="-0.37585">
        <ele>26.4</ele>
        <time>2020-06-17T09:39:15Z</time>
      </trkpt>
      <trkpt lat="49.30186" lon="-0.37586">
        <ele>26.5</ele>
        <time>2020-06-17T09:39:16Z</time>
      </trkpt>
      <trkpt lat="49.30181" lon="-0.37587">
        <ele>26.5</ele>
        <time>2020-06-17T09:39:17Z</time>
      </trkpt>
      <trkpt lat="49.30177" lon="-0.37588">
        <ele>26.6</ele>
        <time>2020-06-17T09:39:18Z</time>
      </trkpt>
      <trkpt lat="49.30172" lon="-0.3759">
        <ele>26.7</ele>
        <time>2020-06-17T09:39:19Z</time>
      </trkpt>
      <trkpt lat="49.30168" lon="-0.37592">
        <ele>26.8</ele>
        <time>2020-06-17T09:39:20Z</time>
      </trkpt>
      <trkpt lat="49.30165" lon="-0.37595">
        <ele>26.9</ele>
        <time>2020-06-17T09:39:21Z</time>
      </trkpt>
      <trkpt lat="49.30163" lon="-0.37598">
        <ele>27</ele>
        <time>2020-06-17T09:39:22Z</time>
      </trkpt>
      <trkpt lat="49.3016" lon="-0.37601">
        <ele>27</ele>
        <time>2020-06-17T09:39:23Z</time>
      </trkpt>
      <trkpt lat="49.30159" lon="-0.37602">
        <ele>27.1</ele>
        <time>2020-06-17T09:39:24Z</time>
      </trkpt>
      <trkpt lat="49.30156" lon="-0.37604">
        <ele>27.1</ele>
        <time>2020-06-17T09:39:25Z</time>
      </trkpt>
      <trkpt lat="49.30155" lon="-0.37604">
        <ele>27.1</ele>
        <time>2020-06-17T09:39:26Z</time>
      </trkpt>
      <trkpt lat="49.30152" lon="-0.37603">
        <ele>27.2</ele>
        <time>2020-06-17T09:39:27Z</time>
      </trkpt>
      <trkpt lat="49.30149" lon="-0.376">
        <ele>27.2</ele>
        <time>2020-06-17T09:39:28Z</time>
      </trkpt>
      <trkpt lat="49.30148" lon="-0.37598">
        <ele>27.2</ele>
        <time>2020-06-17T09:39:29Z</time>
      </trkpt>
      <trkpt lat="49.30145" lon="-0.37594">
        <ele>27.2</ele>
        <time>2020-06-17T09:39:30Z</time>
      </trkpt>
      <trkpt lat="49.30144" lon="-0.37589">
        <ele>27.2</ele>
        <time>2020-06-17T09:39:31Z</time>
      </trkpt>
      <trkpt lat="49.30142" lon="-0.37583">
        <ele>27</ele>
        <time>2020-06-17T09:39:32Z</time>
      </trkpt>
      <trkpt lat="49.30142" lon="-0.37581">
        <ele>27</ele>
        <time>2020-06-17T09:39:33Z</time>
      </trkpt>
      <trkpt lat="49.30141" lon="-0.37576">
        <ele>26.9</ele>
        <time>2020-06-17T09:39:34Z</time>
      </trkpt>
      <trkpt lat="49.3014" lon="-0.37574">
        <ele>26.9</ele>
        <time>2020-06-17T09:39:35Z</time>
      </trkpt>
      <trkpt lat="49.30139" lon="-0.3757">
        <ele>26.9</ele>
        <time>2020-06-17T09:39:36Z</time>
      </trkpt>
      <trkpt lat="49.30138" lon="-0.37566">
        <ele>26.9</ele>
        <time>2020-06-17T09:39:37Z</time>
      </trkpt>
      <trkpt lat="49.30136" lon="-0.37562">
        <ele>26.9</ele>
        <time>2020-06-17T09:39:38Z</time>
      </trkpt>
      <trkpt lat="49.30135" lon="-0.37561">
        <ele>26.9</ele>
        <time>2020-06-17T09:39:39Z</time>
      </trkpt>
      <trkpt lat="49.30133" lon="-0.37557">
        <ele>26.9</ele>
        <time>2020-06-17T09:39:40Z</time>
      </trkpt>
      <trkpt lat="49.30132" lon="-0.37555">
        <ele>26.9</ele>
        <time>2020-06-17T09:39:41Z</time>
      </trkpt>
      <trkpt lat="49.3013" lon="-0.37552">
        <ele>26.9</ele>
        <time>2020-06-17T09:39:42Z</time>
      </trkpt>
      <trkpt lat="49.30128" lon="-0.37549">
        <ele>26.9</ele>
        <time>2020-06-17T09:39:43Z</time>
      </trkpt>
      <trkpt lat="49.30125" lon="-0.37545">
        <ele>26.8</ele>
        <time>2020-06-17T09:39:44Z</time>
      </trkpt>
      <trkpt lat="49.30122" lon="-0.37541">
        <ele>26.8</ele>
        <time>2020-06-17T09:39:45Z</time>
      </trkpt>
      <trkpt lat="49.3012" lon="-0.37537">
        <ele>26.8</ele>
        <time>2020-06-17T09:39:46Z</time>
      </trkpt>
      <trkpt lat="49.30117" lon="-0.37533">
        <ele>26.8</ele>
        <time>2020-06-17T09:39:47Z</time>
      </trkpt>
      <trkpt lat="49.30114" lon="-0.37529">
        <ele>26.8</ele>
        <time>2020-06-17T09:39:48Z</time>
      </trkpt>
      <trkpt lat="49.30112" lon="-0.37525">
        <ele>26.7</ele>
        <time>2020-06-17T09:39:49Z</time>
      </trkpt>
      <trkpt lat="49.30109" lon="-0.37522">
        <ele>26.7</ele>
        <time>2020-06-17T09:39:50Z</time>
      </trkpt>
      <trkpt lat="49.30107" lon="-0.37518">
        <ele>26.7</ele>
        <time>2020-06-17T09:39:51Z</time>
      </trkpt>
      <trkpt lat="49.30104" lon="-0.37515">
        <ele>26.7</ele>
        <time>2020-06-17T09:39:52Z</time>
      </trkpt>
      <trkpt lat="49.30101" lon="-0.37512">
        <ele>26.7</ele>
        <time>2020-06-17T09:39:53Z</time>
      </trkpt>
      <trkpt lat="49.30099" lon="-0.37509">
        <ele>26.6</ele>
        <time>2020-06-17T09:39:54Z</time>
      </trkpt>
      <trkpt lat="49.30096" lon="-0.37506">
        <ele>26.6</ele>
        <time>2020-06-17T09:39:55Z</time>
      </trkpt>
      <trkpt lat="49.30093" lon="-0.37502">
        <ele>26.6</ele>
        <time>2020-06-17T09:39:56Z</time>
      </trkpt>
      <trkpt lat="49.3009" lon="-0.375">
        <ele>26.6</ele>
        <time>2020-06-17T09:39:57Z</time>
      </trkpt>
      <trkpt lat="49.30088" lon="-0.37497">
        <ele>26.5</ele>
        <time>2020-06-17T09:39:58Z</time>
      </trkpt>
      <trkpt lat="49.30085" lon="-0.37493">
        <ele>26.5</ele>
        <time>2020-06-17T09:39:59Z</time>
      </trkpt>
      <trkpt lat="49.30084" lon="-0.37489">
        <ele>26.5</ele>
        <time>2020-06-17T09:40:00Z</time>
      </trkpt>
      <trkpt lat="49.30082" lon="-0.37485">
        <ele>26.5</ele>
        <time>2020-06-17T09:40:01Z</time>
      </trkpt>
      <trkpt lat="49.30079" lon="-0.3748">
        <ele>26.4</ele>
        <time>2020-06-17T09:40:02Z</time>
      </trkpt>
      <trkpt lat="49.30076" lon="-0.37476">
        <ele>26.4</ele>
        <time>2020-06-17T09:40:03Z</time>
      </trkpt>
      <trkpt lat="49.30073" lon="-0.37471">
        <ele>26.3</ele>
        <time>2020-06-17T09:40:04Z</time>
      </trkpt>
      <trkpt lat="49.3007" lon="-0.37466">
        <ele>26.3</ele>
        <time>2020-06-17T09:40:05Z</time>
      </trkpt>
      <trkpt lat="49.30067" lon="-0.37461">
        <ele>26.2</ele>
        <time>2020-06-17T09:40:06Z</time>
      </trkpt>
      <trkpt lat="49.30063" lon="-0.37454">
        <ele>26.1</ele>
        <time>2020-06-17T09:40:07Z</time>
      </trkpt>
      <trkpt lat="49.30059" lon="-0.37448">
        <ele>26</ele>
        <time>2020-06-17T09:40:08Z</time>
      </trkpt>
      <trkpt lat="49.30055" lon="-0.37444">
        <ele>26</ele>
        <time>2020-06-17T09:40:09Z</time>
      </trkpt>
      <trkpt lat="49.30051" lon="-0.37439">
        <ele>25.9</ele>
        <time>2020-06-17T09:40:10Z</time>
      </trkpt>
      <trkpt lat="49.30048" lon="-0.37436">
        <ele>25.8</ele>
        <time>2020-06-17T09:40:11Z</time>
      </trkpt>
      <trkpt lat="49.30045" lon="-0.37433">
        <ele>25.8</ele>
        <time>2020-06-17T09:40:12Z</time>
      </trkpt>
      <trkpt lat="49.30042" lon="-0.3743">
        <ele>25.8</ele>
        <time>2020-06-17T09:40:13Z</time>
      </trkpt>
      <trkpt lat="49.3004" lon="-0.37427">
        <ele>25.7</ele>
        <time>2020-06-17T09:40:14Z</time>
      </trkpt>
      <trkpt lat="49.30037" lon="-0.37424">
        <ele>25.7</ele>
        <time>2020-06-17T09:40:15Z</time>
      </trkpt>
      <trkpt lat="49.30036" lon="-0.3742">
        <ele>26.1</ele>
        <time>2020-06-17T09:40:16Z</time>
      </trkpt>
      <trkpt lat="49.30035" lon="-0.37416">
        <ele>26.1</ele>
        <time>2020-06-17T09:40:17Z</time>
      </trkpt>
      <trkpt lat="49.30036" lon="-0.37411">
        <ele>26.2</ele>
        <time>2020-06-17T09:40:18Z</time>
      </trkpt>
      <trkpt lat="49.30036" lon="-0.37405">
        <ele>26.2</ele>
        <time>2020-06-17T09:40:19Z</time>
      </trkpt>
      <trkpt lat="49.30035" lon="-0.374">
        <ele>26.2</ele>
        <time>2020-06-17T09:40:20Z</time>
      </trkpt>
      <trkpt lat="49.30032" lon="-0.37394">
        <ele>25.4</ele>
        <time>2020-06-17T09:40:21Z</time>
      </trkpt>
      <trkpt lat="49.3003" lon="-0.3739">
        <ele>25.4</ele>
        <time>2020-06-17T09:40:22Z</time>
      </trkpt>
      <trkpt lat="49.30026" lon="-0.37385">
        <ele>25.3</ele>
        <time>2020-06-17T09:40:23Z</time>
      </trkpt>
      <trkpt lat="49.30022" lon="-0.37381">
        <ele>25.2</ele>
        <time>2020-06-17T09:40:24Z</time>
      </trkpt>
      <trkpt lat="49.30018" lon="-0.37377">
        <ele>25.2</ele>
        <time>2020-06-17T09:40:25Z</time>
      </trkpt>
      <trkpt lat="49.30013" lon="-0.37372">
        <ele>25.1</ele>
        <time>2020-06-17T09:40:26Z</time>
      </trkpt>
      <trkpt lat="49.30008" lon="-0.37368">
        <ele>25</ele>
        <time>2020-06-17T09:40:27Z</time>
      </trkpt>
      <trkpt lat="49.30004" lon="-0.37364">
        <ele>24.9</ele>
        <time>2020-06-17T09:40:28Z</time>
      </trkpt>
      <trkpt lat="49.30001" lon="-0.3736">
        <ele>24.8</ele>
        <time>2020-06-17T09:40:29Z</time>
      </trkpt>
      <trkpt lat="49.29998" lon="-0.37354">
        <ele>24.7</ele>
        <time>2020-06-17T09:40:30Z</time>
      </trkpt>
      <trkpt lat="49.29995" lon="-0.3735">
        <ele>24.7</ele>
        <time>2020-06-17T09:40:31Z</time>
      </trkpt>
      <trkpt lat="49.2999" lon="-0.37343">
        <ele>24.5</ele>
        <time>2020-06-17T09:40:32Z</time>
      </trkpt>
      <trkpt lat="49.29986" lon="-0.37337">
        <ele>24.4</ele>
        <time>2020-06-17T09:40:33Z</time>
      </trkpt>
      <trkpt lat="49.29982" lon="-0.37331">
        <ele>24.3</ele>
        <time>2020-06-17T09:40:34Z</time>
      </trkpt>
      <trkpt lat="49.29978" lon="-0.37326">
        <ele>24.2</ele>
        <time>2020-06-17T09:40:35Z</time>
      </trkpt>
      <trkpt lat="49.29973" lon="-0.37322">
        <ele>24.1</ele>
        <time>2020-06-17T09:40:36Z</time>
      </trkpt>
      <trkpt lat="49.29968" lon="-0.37318">
        <ele>24</ele>
        <time>2020-06-17T09:40:37Z</time>
      </trkpt>
      <trkpt lat="49.29964" lon="-0.37313">
        <ele>24</ele>
        <time>2020-06-17T09:40:38Z</time>
      </trkpt>
      <trkpt lat="49.2996" lon="-0.37309">
        <ele>23.9</ele>
        <time>2020-06-17T09:40:39Z</time>
      </trkpt>
      <trkpt lat="49.29956" lon="-0.37306">
        <ele>23.9</ele>
        <time>2020-06-17T09:40:40Z</time>
      </trkpt>
      <trkpt lat="49.29953" lon="-0.37303">
        <ele>23.8</ele>
        <time>2020-06-17T09:40:41Z</time>
      </trkpt>
      <trkpt lat="49.29949" lon="-0.37299">
        <ele>23.8</ele>
        <time>2020-06-17T09:40:42Z</time>
      </trkpt>
      <trkpt lat="49.29943" lon="-0.37295">
        <ele>23.8</ele>
        <time>2020-06-17T09:40:43Z</time>
      </trkpt>
      <trkpt lat="49.29941" lon="-0.37294">
        <ele>23.6</ele>
        <time>2020-06-17T09:40:44Z</time>
      </trkpt>
      <trkpt lat="49.29936" lon="-0.37288">
        <ele>23.4</ele>
        <time>2020-06-17T09:40:45Z</time>
      </trkpt>
      <trkpt lat="49.29933" lon="-0.37285">
        <ele>23.4</ele>
        <time>2020-06-17T09:40:46Z</time>
      </trkpt>
      <trkpt lat="49.29931" lon="-0.37282">
        <ele>23.3</ele>
        <time>2020-06-17T09:40:47Z</time>
      </trkpt>
      <trkpt lat="49.29928" lon="-0.37279">
        <ele>23.2</ele>
        <time>2020-06-17T09:40:48Z</time>
      </trkpt>
      <trkpt lat="49.29926" lon="-0.37276">
        <ele>23.1</ele>
        <time>2020-06-17T09:40:49Z</time>
      </trkpt>
      <trkpt lat="49.29923" lon="-0.37273">
        <ele>23.1</ele>
        <time>2020-06-17T09:40:50Z</time>
      </trkpt>
      <trkpt lat="49.2992" lon="-0.3727">
        <ele>23</ele>
        <time>2020-06-17T09:40:51Z</time>
      </trkpt>
      <trkpt lat="49.29918" lon="-0.37267">
        <ele>22.9</ele>
        <time>2020-06-17T09:40:52Z</time>
      </trkpt>
      <trkpt lat="49.29915" lon="-0.37264">
        <ele>22.9</ele>
        <time>2020-06-17T09:40:53Z</time>
      </trkpt>
      <trkpt lat="49.29913" lon="-0.37261">
        <ele>22.8</ele>
        <time>2020-06-17T09:40:54Z</time>
      </trkpt>
      <trkpt lat="49.2991" lon="-0.37256">
        <ele>22.7</ele>
        <time>2020-06-17T09:40:55Z</time>
      </trkpt>
      <trkpt lat="49.2991" lon="-0.37255">
        <ele>22.7</ele>
        <time>2020-06-17T09:40:56Z</time>
      </trkpt>
      <trkpt lat="49.29911" lon="-0.37257">
        <ele>22.7</ele>
        <time>2020-06-17T09:40:57Z</time>
      </trkpt>
      <trkpt lat="49.29911" lon="-0.37258">
        <ele>22.6</ele>
        <time>2020-06-17T09:40:58Z</time>
      </trkpt>
      <trkpt lat="49.2991" lon="-0.37256">
        <ele>22.6</ele>
        <time>2020-06-17T09:40:59Z</time>
      </trkpt>
      <trkpt lat="49.29909" lon="-0.37255">
        <ele>22.6</ele>
        <time>2020-06-17T09:41:00Z</time>
      </trkpt>
      <trkpt lat="49.29909" lon="-0.37253">
        <ele>22.5</ele>
        <time>2020-06-17T09:41:01Z</time>
      </trkpt>
      <trkpt lat="49.29907" lon="-0.37249">
        <ele>22.5</ele>
        <time>2020-06-17T09:41:02Z</time>
      </trkpt>
      <trkpt lat="49.29907" lon="-0.37248">
        <ele>22.4</ele>
        <time>2020-06-17T09:41:03Z</time>
      </trkpt>
      <trkpt lat="49.29906" lon="-0.37244">
        <ele>22.4</ele>
        <time>2020-06-17T09:41:04Z</time>
      </trkpt>
      <trkpt lat="49.29906" lon="-0.37242">
        <ele>22.3</ele>
        <time>2020-06-17T09:41:05Z</time>
      </trkpt>
      <trkpt lat="49.29905" lon="-0.3724">
        <ele>22.3</ele>
        <time>2020-06-17T09:41:06Z</time>
      </trkpt>
      <trkpt lat="49.29901" lon="-0.37236">
        <ele>22.2</ele>
        <time>2020-06-17T09:41:07Z</time>
      </trkpt>
      <trkpt lat="49.29899" lon="-0.37235">
        <ele>22.1</ele>
        <time>2020-06-17T09:41:08Z</time>
      </trkpt>
      <trkpt lat="49.29895" lon="-0.37232">
        <ele>22</ele>
        <time>2020-06-17T09:41:09Z</time>
      </trkpt>
      <trkpt lat="49.29892" lon="-0.37229">
        <ele>21.9</ele>
        <time>2020-06-17T09:41:10Z</time>
      </trkpt>
      <trkpt lat="49.29889" lon="-0.37227">
        <ele>21.9</ele>
        <time>2020-06-17T09:41:11Z</time>
      </trkpt>
      <trkpt lat="49.29886" lon="-0.37224">
        <ele>21.8</ele>
        <time>2020-06-17T09:41:12Z</time>
      </trkpt>
      <trkpt lat="49.29883" lon="-0.37222">
        <ele>21.7</ele>
        <time>2020-06-17T09:41:13Z</time>
      </trkpt>
      <trkpt lat="49.29879" lon="-0.37221">
        <ele>21.7</ele>
        <time>2020-06-17T09:41:14Z</time>
      </trkpt>
      <trkpt lat="49.29878" lon="-0.37221">
        <ele>21.7</ele>
        <time>2020-06-17T09:41:15Z</time>
      </trkpt>
      <trkpt lat="49.29877" lon="-0.37221">
        <ele>21.6</ele>
        <time>2020-06-17T09:41:16Z</time>
      </trkpt>
      <trkpt lat="49.29876" lon="-0.37221">
        <ele>21.6</ele>
        <time>2020-06-17T09:41:17Z</time>
      </trkpt>
      <trkpt lat="49.29876" lon="-0.37221">
        <ele>21.6</ele>
        <time>2020-06-17T09:41:18Z</time>
      </trkpt>
      <trkpt lat="49.29875" lon="-0.3722">
        <ele>21.3</ele>
        <time>2020-06-17T09:41:19Z</time>
      </trkpt>
      <trkpt lat="49.29873" lon="-0.3722">
        <ele>21.3</ele>
        <time>2020-06-17T09:41:20Z</time>
      </trkpt>
      <trkpt lat="49.2987" lon="-0.37218">
        <ele>21.1</ele>
        <time>2020-06-17T09:41:21Z</time>
      </trkpt>
      <trkpt lat="49.29869" lon="-0.37217">
        <ele>21.1</ele>
        <time>2020-06-17T09:41:22Z</time>
      </trkpt>
      <trkpt lat="49.29866" lon="-0.37216">
        <ele>21</ele>
        <time>2020-06-17T09:41:23Z</time>
      </trkpt>
      <trkpt lat="49.29863" lon="-0.37214">
        <ele>20.8</ele>
        <time>2020-06-17T09:41:24Z</time>
      </trkpt>
      <trkpt lat="49.29859" lon="-0.37209">
        <ele>20.6</ele>
        <time>2020-06-17T09:41:25Z</time>
      </trkpt>
      <trkpt lat="49.29856" lon="-0.37202">
        <ele>20.4</ele>
        <time>2020-06-17T09:41:26Z</time>
      </trkpt>
      <trkpt lat="49.29852" lon="-0.37195">
        <ele>20.2</ele>
        <time>2020-06-17T09:41:27Z</time>
      </trkpt>
      <trkpt lat="49.29848" lon="-0.37188">
        <ele>19.8</ele>
        <time>2020-06-17T09:41:28Z</time>
      </trkpt>
      <trkpt lat="49.29845" lon="-0.37181">
        <ele>19.7</ele>
        <time>2020-06-17T09:41:29Z</time>
      </trkpt>
      <trkpt lat="49.2984" lon="-0.37174">
        <ele>19.5</ele>
        <time>2020-06-17T09:41:30Z</time>
      </trkpt>
      <trkpt lat="49.29837" lon="-0.37168">
        <ele>19.4</ele>
        <time>2020-06-17T09:41:31Z</time>
      </trkpt>
      <trkpt lat="49.29834" lon="-0.37161">
        <ele>19.3</ele>
        <time>2020-06-17T09:41:32Z</time>
      </trkpt>
      <trkpt lat="49.29831" lon="-0.37155">
        <ele>19.3</ele>
        <time>2020-06-17T09:41:33Z</time>
      </trkpt>
      <trkpt lat="49.29829" lon="-0.37148">
        <ele>19.2</ele>
        <time>2020-06-17T09:41:34Z</time>
      </trkpt>
      <trkpt lat="49.29826" lon="-0.37142">
        <ele>19.1</ele>
        <time>2020-06-17T09:41:35Z</time>
      </trkpt>
      <trkpt lat="49.29823" lon="-0.37138">
        <ele>19</ele>
        <time>2020-06-17T09:41:36Z</time>
      </trkpt>
      <trkpt lat="49.29821" lon="-0.37136">
        <ele>19</ele>
        <time>2020-06-17T09:41:37Z</time>
      </trkpt>
      <trkpt lat="49.2982" lon="-0.37134">
        <ele>19</ele>
        <time>2020-06-17T09:41:38Z</time>
      </trkpt>
      <trkpt lat="49.29819" lon="-0.37133">
        <ele>18.9</ele>
        <time>2020-06-17T09:41:39Z</time>
      </trkpt>
      <trkpt lat="49.29818" lon="-0.37131">
        <ele>18.9</ele>
        <time>2020-06-17T09:41:40Z</time>
      </trkpt>
      <trkpt lat="49.29817" lon="-0.37131">
        <ele>18.9</ele>
        <time>2020-06-17T09:41:41Z</time>
      </trkpt>
      <trkpt lat="49.29817" lon="-0.37131">
        <ele>18.9</ele>
        <time>2020-06-17T09:41:42Z</time>
      </trkpt>
      <trkpt lat="49.29816" lon="-0.3713">
        <ele>18.9</ele>
        <time>2020-06-17T09:41:43Z</time>
      </trkpt>
      <trkpt lat="49.29816" lon="-0.3713">
        <ele>18.9</ele>
        <time>2020-06-17T09:41:44Z</time>
      </trkpt>
      <trkpt lat="49.29815" lon="-0.37129">
        <ele>18.9</ele>
        <time>2020-06-17T09:41:45Z</time>
      </trkpt>
      <trkpt lat="49.29814" lon="-0.37128">
        <ele>18.9</ele>
        <time>2020-06-17T09:41:46Z</time>
      </trkpt>
      <trkpt lat="49.29813" lon="-0.37126">
        <ele>18.9</ele>
        <time>2020-06-17T09:41:47Z</time>
      </trkpt>
      <trkpt lat="49.29813" lon="-0.37126">
        <ele>18.9</ele>
        <time>2020-06-17T09:41:48Z</time>
      </trkpt>
      <trkpt lat="49.29812" lon="-0.37124">
        <ele>18.9</ele>
        <time>2020-06-17T09:41:49Z</time>
      </trkpt>
      <trkpt lat="49.29811" lon="-0.37123">
        <ele>18.9</ele>
        <time>2020-06-17T09:41:50Z</time>
      </trkpt>
      <trkpt lat="49.2981" lon="-0.37122">
        <ele>18.9</ele>
        <time>2020-06-17T09:41:51Z</time>
      </trkpt>
      <trkpt lat="49.29809" lon="-0.37121">
        <ele>18.9</ele>
        <time>2020-06-17T09:41:52Z</time>
      </trkpt>
      <trkpt lat="49.29808" lon="-0.37121">
        <ele>18.9</ele>
        <time>2020-06-17T09:41:53Z</time>
      </trkpt>
      <trkpt lat="49.29807" lon="-0.37121">
        <ele>18.9</ele>
        <time>2020-06-17T09:41:54Z</time>
      </trkpt>
      <trkpt lat="49.29807" lon="-0.3712">
        <ele>18.9</ele>
        <time>2020-06-17T09:41:55Z</time>
      </trkpt>
      <trkpt lat="49.29806" lon="-0.3712">
        <ele>18.9</ele>
        <time>2020-06-17T09:41:56Z</time>
      </trkpt>
      <trkpt lat="49.29806" lon="-0.37119">
        <ele>18.9</ele>
        <time>2020-06-17T09:41:57Z</time>
      </trkpt>
      <trkpt lat="49.29802" lon="-0.37113">
        <ele>18.9</ele>
        <time>2020-06-17T09:42:10Z</time>
      </trkpt>
      <trkpt lat="49.29802" lon="-0.37111">
        <ele>18.9</ele>
        <time>2020-06-17T09:42:11Z</time>
      </trkpt>
      <trkpt lat="49.29801" lon="-0.37106">
        <ele>18.9</ele>
        <time>2020-06-17T09:42:12Z</time>
      </trkpt>
      <trkpt lat="49.298" lon="-0.37105">
        <ele>18.9</ele>
        <time>2020-06-17T09:42:13Z</time>
      </trkpt>
      <trkpt lat="49.29798" lon="-0.37099">
        <ele>18.9</ele>
        <time>2020-06-17T09:42:14Z</time>
      </trkpt>
      <trkpt lat="49.29797" lon="-0.37097">
        <ele>18.9</ele>
        <time>2020-06-17T09:42:15Z</time>
      </trkpt>
      <trkpt lat="49.29794" lon="-0.37094">
        <ele>18.9</ele>
        <time>2020-06-17T09:42:16Z</time>
      </trkpt>
      <trkpt lat="49.29791" lon="-0.3709">
        <ele>18.9</ele>
        <time>2020-06-17T09:42:17Z</time>
      </trkpt>
      <trkpt lat="49.29787" lon="-0.37086">
        <ele>18.9</ele>
        <time>2020-06-17T09:42:18Z</time>
      </trkpt>
      <trkpt lat="49.29783" lon="-0.37083">
        <ele>18.9</ele>
        <time>2020-06-17T09:42:19Z</time>
      </trkpt>
      <trkpt lat="49.29779" lon="-0.37079">
        <ele>18.9</ele>
        <time>2020-06-17T09:42:20Z</time>
      </trkpt>
      <trkpt lat="49.29776" lon="-0.37074">
        <ele>18.9</ele>
        <time>2020-06-17T09:42:21Z</time>
      </trkpt>
      <trkpt lat="49.29774" lon="-0.37069">
        <ele>18.9</ele>
        <time>2020-06-17T09:42:22Z</time>
      </trkpt>
      <trkpt lat="49.29771" lon="-0.37065">
        <ele>18.9</ele>
        <time>2020-06-17T09:42:23Z</time>
      </trkpt>
      <trkpt lat="49.29767" lon="-0.3706">
        <ele>19</ele>
        <time>2020-06-17T09:42:24Z</time>
      </trkpt>
      <trkpt lat="49.29764" lon="-0.37056">
        <ele>19</ele>
        <time>2020-06-17T09:42:25Z</time>
      </trkpt>
      <trkpt lat="49.29761" lon="-0.37051">
        <ele>19</ele>
        <time>2020-06-17T09:42:26Z</time>
      </trkpt>
      <trkpt lat="49.29758" lon="-0.37047">
        <ele>19</ele>
        <time>2020-06-17T09:42:27Z</time>
      </trkpt>
      <trkpt lat="49.29755" lon="-0.37042">
        <ele>19.1</ele>
        <time>2020-06-17T09:42:28Z</time>
      </trkpt>
      <trkpt lat="49.29753" lon="-0.37036">
        <ele>19.2</ele>
        <time>2020-06-17T09:42:29Z</time>
      </trkpt>
      <trkpt lat="49.29751" lon="-0.37031">
        <ele>19.2</ele>
        <time>2020-06-17T09:42:30Z</time>
      </trkpt>
      <trkpt lat="49.29748" lon="-0.37026">
        <ele>19.3</ele>
        <time>2020-06-17T09:42:31Z</time>
      </trkpt>
      <trkpt lat="49.29746" lon="-0.3702">
        <ele>19.4</ele>
        <time>2020-06-17T09:42:32Z</time>
      </trkpt>
      <trkpt lat="49.29743" lon="-0.37015">
        <ele>19.5</ele>
        <time>2020-06-17T09:42:33Z</time>
      </trkpt>
      <trkpt lat="49.2974" lon="-0.3701">
        <ele>19.6</ele>
        <time>2020-06-17T09:42:34Z</time>
      </trkpt>
      <trkpt lat="49.29737" lon="-0.37005">
        <ele>19.7</ele>
        <time>2020-06-17T09:42:35Z</time>
      </trkpt>
      <trkpt lat="49.29734" lon="-0.36999">
        <ele>19.9</ele>
        <time>2020-06-17T09:42:36Z</time>
      </trkpt>
      <trkpt lat="49.2973" lon="-0.36994">
        <ele>20</ele>
        <time>2020-06-17T09:42:37Z</time>
      </trkpt>
      <trkpt lat="49.29726" lon="-0.3699">
        <ele>20.1</ele>
        <time>2020-06-17T09:42:38Z</time>
      </trkpt>
      <trkpt lat="49.29722" lon="-0.36987">
        <ele>20.2</ele>
        <time>2020-06-17T09:42:39Z</time>
      </trkpt>
      <trkpt lat="49.29716" lon="-0.36984">
        <ele>20.4</ele>
        <time>2020-06-17T09:42:40Z</time>
      </trkpt>
      <trkpt lat="49.29713" lon="-0.36978">
        <ele>20.5</ele>
        <time>2020-06-17T09:42:41Z</time>
      </trkpt>
      <trkpt lat="49.29709" lon="-0.36973">
        <ele>20.7</ele>
        <time>2020-06-17T09:42:42Z</time>
      </trkpt>
      <trkpt lat="49.29706" lon="-0.36969">
        <ele>20.9</ele>
        <time>2020-06-17T09:42:43Z</time>
      </trkpt>
      <trkpt lat="49.29702" lon="-0.36966">
        <ele>21</ele>
        <time>2020-06-17T09:42:44Z</time>
      </trkpt>
      <trkpt lat="49.29698" lon="-0.36963">
        <ele>21.2</ele>
        <time>2020-06-17T09:42:45Z</time>
      </trkpt>
      <trkpt lat="49.29694" lon="-0.36959">
        <ele>21.3</ele>
        <time>2020-06-17T09:42:46Z</time>
      </trkpt>
      <trkpt lat="49.29691" lon="-0.36956">
        <ele>21.5</ele>
        <time>2020-06-17T09:42:47Z</time>
      </trkpt>
      <trkpt lat="49.29687" lon="-0.36952">
        <ele>21.6</ele>
        <time>2020-06-17T09:42:48Z</time>
      </trkpt>
      <trkpt lat="49.29684" lon="-0.36949">
        <ele>21.8</ele>
        <time>2020-06-17T09:42:49Z</time>
      </trkpt>
      <trkpt lat="49.2968" lon="-0.36945">
        <ele>21.9</ele>
        <time>2020-06-17T09:42:50Z</time>
      </trkpt>
      <trkpt lat="49.29677" lon="-0.3694">
        <ele>22.1</ele>
        <time>2020-06-17T09:42:51Z</time>
      </trkpt>
      <trkpt lat="49.29673" lon="-0.36936">
        <ele>22.2</ele>
        <time>2020-06-17T09:42:52Z</time>
      </trkpt>
      <trkpt lat="49.29669" lon="-0.36932">
        <ele>22.4</ele>
        <time>2020-06-17T09:42:53Z</time>
      </trkpt>
      <trkpt lat="49.29665" lon="-0.36929">
        <ele>22.6</ele>
        <time>2020-06-17T09:42:54Z</time>
      </trkpt>
      <trkpt lat="49.29661" lon="-0.36926">
        <ele>22.7</ele>
        <time>2020-06-17T09:42:55Z</time>
      </trkpt>
      <trkpt lat="49.29656" lon="-0.36921">
        <ele>22.9</ele>
        <time>2020-06-17T09:42:56Z</time>
      </trkpt>
      <trkpt lat="49.29653" lon="-0.36917">
        <ele>23.1</ele>
        <time>2020-06-17T09:42:57Z</time>
      </trkpt>
      <trkpt lat="49.29649" lon="-0.36913">
        <ele>23.2</ele>
        <time>2020-06-17T09:42:58Z</time>
      </trkpt>
      <trkpt lat="49.29645" lon="-0.36909">
        <ele>23.4</ele>
        <time>2020-06-17T09:42:59Z</time>
      </trkpt>
      <trkpt lat="49.29642" lon="-0.36907">
        <ele>23.5</ele>
        <time>2020-06-17T09:43:00Z</time>
      </trkpt>
      <trkpt lat="49.29638" lon="-0.36903">
        <ele>23.6</ele>
        <time>2020-06-17T09:43:01Z</time>
      </trkpt>
      <trkpt lat="49.29635" lon="-0.369">
        <ele>23.7</ele>
        <time>2020-06-17T09:43:02Z</time>
      </trkpt>
      <trkpt lat="49.29633" lon="-0.36895">
        <ele>23.8</ele>
        <time>2020-06-17T09:43:03Z</time>
      </trkpt>
      <trkpt lat="49.2963" lon="-0.36891">
        <ele>23.9</ele>
        <time>2020-06-17T09:43:04Z</time>
      </trkpt>
      <trkpt lat="49.29627" lon="-0.36886">
        <ele>24.1</ele>
        <time>2020-06-17T09:43:05Z</time>
      </trkpt>
      <trkpt lat="49.29624" lon="-0.36881">
        <ele>24.2</ele>
        <time>2020-06-17T09:43:06Z</time>
      </trkpt>
      <trkpt lat="49.29621" lon="-0.36876">
        <ele>24.3</ele>
        <time>2020-06-17T09:43:07Z</time>
      </trkpt>
      <trkpt lat="49.29618" lon="-0.3687">
        <ele>24.4</ele>
        <time>2020-06-17T09:43:08Z</time>
      </trkpt>
      <trkpt lat="49.29615" lon="-0.36865">
        <ele>24.5</ele>
        <time>2020-06-17T09:43:09Z</time>
      </trkpt>
      <trkpt lat="49.29612" lon="-0.3686">
        <ele>24.7</ele>
        <time>2020-06-17T09:43:10Z</time>
      </trkpt>
      <trkpt lat="49.29609" lon="-0.36854">
        <ele>24.8</ele>
        <time>2020-06-17T09:43:11Z</time>
      </trkpt>
      <trkpt lat="49.29605" lon="-0.36848">
        <ele>24.9</ele>
        <time>2020-06-17T09:43:12Z</time>
      </trkpt>
      <trkpt lat="49.29601" lon="-0.36842">
        <ele>25.1</ele>
        <time>2020-06-17T09:43:13Z</time>
      </trkpt>
      <trkpt lat="49.29598" lon="-0.36836">
        <ele>25.2</ele>
        <time>2020-06-17T09:43:14Z</time>
      </trkpt>
      <trkpt lat="49.29594" lon="-0.36829">
        <ele>25.3</ele>
        <time>2020-06-17T09:43:15Z</time>
      </trkpt>
      <trkpt lat="49.2959" lon="-0.36821">
        <ele>25.5</ele>
        <time>2020-06-17T09:43:16Z</time>
      </trkpt>
      <trkpt lat="49.29587" lon="-0.36815">
        <ele>25.6</ele>
        <time>2020-06-17T09:43:17Z</time>
      </trkpt>
      <trkpt lat="49.29584" lon="-0.36808">
        <ele>25.7</ele>
        <time>2020-06-17T09:43:18Z</time>
      </trkpt>
      <trkpt lat="49.2958" lon="-0.36801">
        <ele>25.8</ele>
        <time>2020-06-17T09:43:19Z</time>
      </trkpt>
      <trkpt lat="49.29576" lon="-0.36795">
        <ele>25.9</ele>
        <time>2020-06-17T09:43:20Z</time>
      </trkpt>
      <trkpt lat="49.29573" lon="-0.36789">
        <ele>26</ele>
        <time>2020-06-17T09:43:21Z</time>
      </trkpt>
      <trkpt lat="49.29569" lon="-0.36782">
        <ele>26.1</ele>
        <time>2020-06-17T09:43:22Z</time>
      </trkpt>
      <trkpt lat="49.29565" lon="-0.36775">
        <ele>26.2</ele>
        <time>2020-06-17T09:43:23Z</time>
      </trkpt>
      <trkpt lat="49.29561" lon="-0.36768">
        <ele>26.3</ele>
        <time>2020-06-17T09:43:24Z</time>
      </trkpt>
      <trkpt lat="49.29557" lon="-0.36762">
        <ele>26.4</ele>
        <time>2020-06-17T09:43:25Z</time>
      </trkpt>
      <trkpt lat="49.29554" lon="-0.36755">
        <ele>26.5</ele>
        <time>2020-06-17T09:43:26Z</time>
      </trkpt>
      <trkpt lat="49.2955" lon="-0.36748">
        <ele>26.6</ele>
        <time>2020-06-17T09:43:27Z</time>
      </trkpt>
      <trkpt lat="49.29548" lon="-0.36741">
        <ele>26.7</ele>
        <time>2020-06-17T09:43:28Z</time>
      </trkpt>
      <trkpt lat="49.29544" lon="-0.36735">
        <ele>26.7</ele>
        <time>2020-06-17T09:43:29Z</time>
      </trkpt>
      <trkpt lat="49.2954" lon="-0.36728">
        <ele>26.8</ele>
        <time>2020-06-17T09:43:30Z</time>
      </trkpt>
      <trkpt lat="49.29536" lon="-0.36721">
        <ele>26.9</ele>
        <time>2020-06-17T09:43:31Z</time>
      </trkpt>
      <trkpt lat="49.29531" lon="-0.36714">
        <ele>27</ele>
        <time>2020-06-17T09:43:32Z</time>
      </trkpt>
      <trkpt lat="49.29528" lon="-0.36706">
        <ele>27.1</ele>
        <time>2020-06-17T09:43:33Z</time>
      </trkpt>
      <trkpt lat="49.29524" lon="-0.36698">
        <ele>27.2</ele>
        <time>2020-06-17T09:43:34Z</time>
      </trkpt>
      <trkpt lat="49.29521" lon="-0.36692">
        <ele>27.3</ele>
        <time>2020-06-17T09:43:35Z</time>
      </trkpt>
      <trkpt lat="49.29518" lon="-0.36685">
        <ele>27.4</ele>
        <time>2020-06-17T09:43:36Z</time>
      </trkpt>
      <trkpt lat="49.29515" lon="-0.36678">
        <ele>27.5</ele>
        <time>2020-06-17T09:43:37Z</time>
      </trkpt>
      <trkpt lat="49.29511" lon="-0.36671">
        <ele>27.5</ele>
        <time>2020-06-17T09:43:38Z</time>
      </trkpt>
      <trkpt lat="49.29508" lon="-0.36664">
        <ele>27.6</ele>
        <time>2020-06-17T09:43:39Z</time>
      </trkpt>
      <trkpt lat="49.29505" lon="-0.36659">
        <ele>27.7</ele>
        <time>2020-06-17T09:43:40Z</time>
      </trkpt>
      <trkpt lat="49.29502" lon="-0.36652">
        <ele>27.8</ele>
        <time>2020-06-17T09:43:41Z</time>
      </trkpt>
      <trkpt lat="49.29499" lon="-0.36646">
        <ele>27.8</ele>
        <time>2020-06-17T09:43:42Z</time>
      </trkpt>
      <trkpt lat="49.29495" lon="-0.3664">
        <ele>27.9</ele>
        <time>2020-06-17T09:43:43Z</time>
      </trkpt>
      <trkpt lat="49.29492" lon="-0.36634">
        <ele>28</ele>
        <time>2020-06-17T09:43:44Z</time>
      </trkpt>
      <trkpt lat="49.2949" lon="-0.36627">
        <ele>28</ele>
        <time>2020-06-17T09:43:45Z</time>
      </trkpt>
      <trkpt lat="49.29487" lon="-0.36621">
        <ele>28.1</ele>
        <time>2020-06-17T09:43:46Z</time>
      </trkpt>
      <trkpt lat="49.29484" lon="-0.36613">
        <ele>28.2</ele>
        <time>2020-06-17T09:43:47Z</time>
      </trkpt>
      <trkpt lat="49.29482" lon="-0.36605">
        <ele>28.3</ele>
        <time>2020-06-17T09:43:48Z</time>
      </trkpt>
      <trkpt lat="49.29479" lon="-0.36598">
        <ele>28.4</ele>
        <time>2020-06-17T09:43:49Z</time>
      </trkpt>
      <trkpt lat="49.29476" lon="-0.36592">
        <ele>28.5</ele>
        <time>2020-06-17T09:43:50Z</time>
      </trkpt>
      <trkpt lat="49.29474" lon="-0.36585">
        <ele>28.6</ele>
        <time>2020-06-17T09:43:51Z</time>
      </trkpt>
      <trkpt lat="49.29471" lon="-0.36579">
        <ele>28.6</ele>
        <time>2020-06-17T09:43:52Z</time>
      </trkpt>
      <trkpt lat="49.29467" lon="-0.36573">
        <ele>28.7</ele>
        <time>2020-06-17T09:43:53Z</time>
      </trkpt>
      <trkpt lat="49.29464" lon="-0.36567">
        <ele>28.8</ele>
        <time>2020-06-17T09:43:54Z</time>
      </trkpt>
      <trkpt lat="49.29461" lon="-0.36561">
        <ele>28.9</ele>
        <time>2020-06-17T09:43:55Z</time>
      </trkpt>
      <trkpt lat="49.29458" lon="-0.36556">
        <ele>28.9</ele>
        <time>2020-06-17T09:43:56Z</time>
      </trkpt>
      <trkpt lat="49.29455" lon="-0.3655">
        <ele>29</ele>
        <time>2020-06-17T09:43:57Z</time>
      </trkpt>
      <trkpt lat="49.29452" lon="-0.36544">
        <ele>29.1</ele>
        <time>2020-06-17T09:43:58Z</time>
      </trkpt>
      <trkpt lat="49.29449" lon="-0.36537">
        <ele>29.2</ele>
        <time>2020-06-17T09:43:59Z</time>
      </trkpt>
      <trkpt lat="49.29446" lon="-0.36529">
        <ele>29.2</ele>
        <time>2020-06-17T09:44:00Z</time>
      </trkpt>
      <trkpt lat="49.29442" lon="-0.36521">
        <ele>29.3</ele>
        <time>2020-06-17T09:44:01Z</time>
      </trkpt>
      <trkpt lat="49.29439" lon="-0.36514">
        <ele>29.3</ele>
        <time>2020-06-17T09:44:02Z</time>
      </trkpt>
      <trkpt lat="49.29436" lon="-0.36507">
        <ele>29.4</ele>
        <time>2020-06-17T09:44:03Z</time>
      </trkpt>
      <trkpt lat="49.29432" lon="-0.36499">
        <ele>29.4</ele>
        <time>2020-06-17T09:44:04Z</time>
      </trkpt>
      <trkpt lat="49.29429" lon="-0.36491">
        <ele>29.6</ele>
        <time>2020-06-17T09:44:05Z</time>
      </trkpt>
      <trkpt lat="49.29425" lon="-0.36483">
        <ele>29.7</ele>
        <time>2020-06-17T09:44:06Z</time>
      </trkpt>
      <trkpt lat="49.29422" lon="-0.36476">
        <ele>29.8</ele>
        <time>2020-06-17T09:44:07Z</time>
      </trkpt>
      <trkpt lat="49.29418" lon="-0.36469">
        <ele>29.9</ele>
        <time>2020-06-17T09:44:08Z</time>
      </trkpt>
      <trkpt lat="49.29414" lon="-0.36462">
        <ele>29.9</ele>
        <time>2020-06-17T09:44:09Z</time>
      </trkpt>
      <trkpt lat="49.29409" lon="-0.36454">
        <ele>30</ele>
        <time>2020-06-17T09:44:10Z</time>
      </trkpt>
      <trkpt lat="49.29405" lon="-0.36447">
        <ele>30.1</ele>
        <time>2020-06-17T09:44:11Z</time>
      </trkpt>
      <trkpt lat="49.29401" lon="-0.3644">
        <ele>30.1</ele>
        <time>2020-06-17T09:44:12Z</time>
      </trkpt>
      <trkpt lat="49.29397" lon="-0.36433">
        <ele>30.2</ele>
        <time>2020-06-17T09:44:13Z</time>
      </trkpt>
      <trkpt lat="49.29394" lon="-0.36427">
        <ele>30.3</ele>
        <time>2020-06-17T09:44:14Z</time>
      </trkpt>
      <trkpt lat="49.2939" lon="-0.36419">
        <ele>30.4</ele>
        <time>2020-06-17T09:44:15Z</time>
      </trkpt>
      <trkpt lat="49.29386" lon="-0.36411">
        <ele>30.4</ele>
        <time>2020-06-17T09:44:16Z</time>
      </trkpt>
      <trkpt lat="49.29382" lon="-0.36404">
        <ele>30.5</ele>
        <time>2020-06-17T09:44:17Z</time>
      </trkpt>
      <trkpt lat="49.29379" lon="-0.36397">
        <ele>30.6</ele>
        <time>2020-06-17T09:44:18Z</time>
      </trkpt>
      <trkpt lat="49.29375" lon="-0.36389">
        <ele>30.6</ele>
        <time>2020-06-17T09:44:19Z</time>
      </trkpt>
      <trkpt lat="49.29371" lon="-0.36381">
        <ele>30.7</ele>
        <time>2020-06-17T09:44:20Z</time>
      </trkpt>
      <trkpt lat="49.29368" lon="-0.36374">
        <ele>30.7</ele>
        <time>2020-06-17T09:44:21Z</time>
      </trkpt>
      <trkpt lat="49.29365" lon="-0.36366">
        <ele>30.8</ele>
        <time>2020-06-17T09:44:22Z</time>
      </trkpt>
      <trkpt lat="49.29362" lon="-0.3636">
        <ele>30.8</ele>
        <time>2020-06-17T09:44:23Z</time>
      </trkpt>
      <trkpt lat="49.29359" lon="-0.36354">
        <ele>30.9</ele>
        <time>2020-06-17T09:44:24Z</time>
      </trkpt>
      <trkpt lat="49.29356" lon="-0.36347">
        <ele>30.9</ele>
        <time>2020-06-17T09:44:25Z</time>
      </trkpt>
      <trkpt lat="49.29352" lon="-0.3634">
        <ele>31</ele>
        <time>2020-06-17T09:44:26Z</time>
      </trkpt>
      <trkpt lat="49.29349" lon="-0.36332">
        <ele>31</ele>
        <time>2020-06-17T09:44:27Z</time>
      </trkpt>
      <trkpt lat="49.29345" lon="-0.36324">
        <ele>31</ele>
        <time>2020-06-17T09:44:28Z</time>
      </trkpt>
      <trkpt lat="49.29341" lon="-0.36317">
        <ele>31.1</ele>
        <time>2020-06-17T09:44:29Z</time>
      </trkpt>
      <trkpt lat="49.29338" lon="-0.36309">
        <ele>31</ele>
        <time>2020-06-17T09:44:30Z</time>
      </trkpt>
      <trkpt lat="49.29334" lon="-0.36301">
        <ele>31</ele>
        <time>2020-06-17T09:44:31Z</time>
      </trkpt>
      <trkpt lat="49.2933" lon="-0.36295">
        <ele>31</ele>
        <time>2020-06-17T09:44:32Z</time>
      </trkpt>
      <trkpt lat="49.29327" lon="-0.36288">
        <ele>31</ele>
        <time>2020-06-17T09:44:33Z</time>
      </trkpt>
      <trkpt lat="49.29322" lon="-0.3628">
        <ele>30.9</ele>
        <time>2020-06-17T09:44:34Z</time>
      </trkpt>
      <trkpt lat="49.29318" lon="-0.36272">
        <ele>30.9</ele>
        <time>2020-06-17T09:44:35Z</time>
      </trkpt>
      <trkpt lat="49.29315" lon="-0.36266">
        <ele>30.9</ele>
        <time>2020-06-17T09:44:36Z</time>
      </trkpt>
      <trkpt lat="49.29311" lon="-0.36257">
        <ele>30.8</ele>
        <time>2020-06-17T09:44:37Z</time>
      </trkpt>
      <trkpt lat="49.29307" lon="-0.36249">
        <ele>30.8</ele>
        <time>2020-06-17T09:44:38Z</time>
      </trkpt>
      <trkpt lat="49.29303" lon="-0.36241">
        <ele>30.7</ele>
        <time>2020-06-17T09:44:39Z</time>
      </trkpt>
      <trkpt lat="49.29299" lon="-0.36232">
        <ele>30.6</ele>
        <time>2020-06-17T09:44:40Z</time>
      </trkpt>
      <trkpt lat="49.29295" lon="-0.36223">
        <ele>30.6</ele>
        <time>2020-06-17T09:44:41Z</time>
      </trkpt>
      <trkpt lat="49.29292" lon="-0.36214">
        <ele>30.5</ele>
        <time>2020-06-17T09:44:42Z</time>
      </trkpt>
      <trkpt lat="49.29289" lon="-0.36204">
        <ele>30.4</ele>
        <time>2020-06-17T09:44:43Z</time>
      </trkpt>
      <trkpt lat="49.29286" lon="-0.36194">
        <ele>30.3</ele>
        <time>2020-06-17T09:44:44Z</time>
      </trkpt>
      <trkpt lat="49.29283" lon="-0.36184">
        <ele>30.2</ele>
        <time>2020-06-17T09:44:45Z</time>
      </trkpt>
      <trkpt lat="49.2928" lon="-0.36174">
        <ele>30.1</ele>
        <time>2020-06-17T09:44:46Z</time>
      </trkpt>
      <trkpt lat="49.29276" lon="-0.36163">
        <ele>30.1</ele>
        <time>2020-06-17T09:44:47Z</time>
      </trkpt>
      <trkpt lat="49.29274" lon="-0.36153">
        <ele>30</ele>
        <time>2020-06-17T09:44:48Z</time>
      </trkpt>
      <trkpt lat="49.29271" lon="-0.36142">
        <ele>30</ele>
        <time>2020-06-17T09:44:49Z</time>
      </trkpt>
      <trkpt lat="49.29269" lon="-0.36134">
        <ele>29.9</ele>
        <time>2020-06-17T09:44:50Z</time>
      </trkpt>
      <trkpt lat="49.29265" lon="-0.36125">
        <ele>29.9</ele>
        <time>2020-06-17T09:44:51Z</time>
      </trkpt>
      <trkpt lat="49.29262" lon="-0.36116">
        <ele>29.8</ele>
        <time>2020-06-17T09:44:52Z</time>
      </trkpt>
      <trkpt lat="49.29259" lon="-0.36107">
        <ele>29.7</ele>
        <time>2020-06-17T09:44:53Z</time>
      </trkpt>
      <trkpt lat="49.29256" lon="-0.36099">
        <ele>29.6</ele>
        <time>2020-06-17T09:44:54Z</time>
      </trkpt>
      <trkpt lat="49.29254" lon="-0.36089">
        <ele>29.5</ele>
        <time>2020-06-17T09:44:55Z</time>
      </trkpt>
      <trkpt lat="49.29251" lon="-0.3608">
        <ele>29.4</ele>
        <time>2020-06-17T09:44:56Z</time>
      </trkpt>
      <trkpt lat="49.29249" lon="-0.36072">
        <ele>29.3</ele>
        <time>2020-06-17T09:44:57Z</time>
      </trkpt>
      <trkpt lat="49.29245" lon="-0.36064">
        <ele>29.3</ele>
        <time>2020-06-17T09:44:58Z</time>
      </trkpt>
      <trkpt lat="49.29242" lon="-0.36056">
        <ele>29.2</ele>
        <time>2020-06-17T09:44:59Z</time>
      </trkpt>
      <trkpt lat="49.29239" lon="-0.36047">
        <ele>29.2</ele>
        <time>2020-06-17T09:45:00Z</time>
      </trkpt>
      <trkpt lat="49.29237" lon="-0.36039">
        <ele>29.2</ele>
        <time>2020-06-17T09:45:01Z</time>
      </trkpt>
      <trkpt lat="49.29234" lon="-0.3603">
        <ele>29.1</ele>
        <time>2020-06-17T09:45:02Z</time>
      </trkpt>
      <trkpt lat="49.29231" lon="-0.36019">
        <ele>29</ele>
        <time>2020-06-17T09:45:03Z</time>
      </trkpt>
      <trkpt lat="49.29228" lon="-0.36007">
        <ele>28.9</ele>
        <time>2020-06-17T09:45:04Z</time>
      </trkpt>
      <trkpt lat="49.29225" lon="-0.35996">
        <ele>28.8</ele>
        <time>2020-06-17T09:45:05Z</time>
      </trkpt>
      <trkpt lat="49.29222" lon="-0.35985">
        <ele>28.6</ele>
        <time>2020-06-17T09:45:06Z</time>
      </trkpt>
      <trkpt lat="49.2922" lon="-0.35974">
        <ele>28.5</ele>
        <time>2020-06-17T09:45:07Z</time>
      </trkpt>
      <trkpt lat="49.29216" lon="-0.35961">
        <ele>28.4</ele>
        <time>2020-06-17T09:45:08Z</time>
      </trkpt>
      <trkpt lat="49.29213" lon="-0.35948">
        <ele>28.3</ele>
        <time>2020-06-17T09:45:09Z</time>
      </trkpt>
      <trkpt lat="49.2921" lon="-0.35935">
        <ele>28.3</ele>
        <time>2020-06-17T09:45:10Z</time>
      </trkpt>
      <trkpt lat="49.29208" lon="-0.35925">
        <ele>28.2</ele>
        <time>2020-06-17T09:45:11Z</time>
      </trkpt>
      <trkpt lat="49.29205" lon="-0.35913">
        <ele>28.1</ele>
        <time>2020-06-17T09:45:12Z</time>
      </trkpt>
      <trkpt lat="49.29202" lon="-0.35901">
        <ele>27.9</ele>
        <time>2020-06-17T09:45:13Z</time>
      </trkpt>
      <trkpt lat="49.29199" lon="-0.35891">
        <ele>27.8</ele>
        <time>2020-06-17T09:45:14Z</time>
      </trkpt>
      <trkpt lat="49.29195" lon="-0.35881">
        <ele>27.7</ele>
        <time>2020-06-17T09:45:15Z</time>
      </trkpt>
      <trkpt lat="49.29192" lon="-0.35871">
        <ele>27.5</ele>
        <time>2020-06-17T09:45:16Z</time>
      </trkpt>
      <trkpt lat="49.29188" lon="-0.3586">
        <ele>27.4</ele>
        <time>2020-06-17T09:45:17Z</time>
      </trkpt>
      <trkpt lat="49.29186" lon="-0.35849">
        <ele>27.2</ele>
        <time>2020-06-17T09:45:18Z</time>
      </trkpt>
      <trkpt lat="49.29183" lon="-0.35837">
        <ele>27</ele>
        <time>2020-06-17T09:45:19Z</time>
      </trkpt>
      <trkpt lat="49.29181" lon="-0.35827">
        <ele>26.9</ele>
        <time>2020-06-17T09:45:20Z</time>
      </trkpt>
      <trkpt lat="49.29178" lon="-0.35816">
        <ele>26.6</ele>
        <time>2020-06-17T09:45:21Z</time>
      </trkpt>
      <trkpt lat="49.29174" lon="-0.35804">
        <ele>26.4</ele>
        <time>2020-06-17T09:45:22Z</time>
      </trkpt>
      <trkpt lat="49.29171" lon="-0.35792">
        <ele>26.2</ele>
        <time>2020-06-17T09:45:23Z</time>
      </trkpt>
      <trkpt lat="49.29168" lon="-0.35781">
        <ele>26.1</ele>
        <time>2020-06-17T09:45:24Z</time>
      </trkpt>
      <trkpt lat="49.29166" lon="-0.35771">
        <ele>25.9</ele>
        <time>2020-06-17T09:45:25Z</time>
      </trkpt>
      <trkpt lat="49.29163" lon="-0.35762">
        <ele>25.8</ele>
        <time>2020-06-17T09:45:26Z</time>
      </trkpt>
      <trkpt lat="49.2916" lon="-0.35752">
        <ele>25.6</ele>
        <time>2020-06-17T09:45:27Z</time>
      </trkpt>
      <trkpt lat="49.29157" lon="-0.35742">
        <ele>25.4</ele>
        <time>2020-06-17T09:45:28Z</time>
      </trkpt>
      <trkpt lat="49.29155" lon="-0.35733">
        <ele>25.3</ele>
        <time>2020-06-17T09:45:29Z</time>
      </trkpt>
      <trkpt lat="49.29152" lon="-0.35724">
        <ele>25.1</ele>
        <time>2020-06-17T09:45:30Z</time>
      </trkpt>
      <trkpt lat="49.29149" lon="-0.35713">
        <ele>25</ele>
        <time>2020-06-17T09:45:31Z</time>
      </trkpt>
      <trkpt lat="49.29146" lon="-0.35702">
        <ele>24.8</ele>
        <time>2020-06-17T09:45:32Z</time>
      </trkpt>
      <trkpt lat="49.29144" lon="-0.3569">
        <ele>24.6</ele>
        <time>2020-06-17T09:45:33Z</time>
      </trkpt>
      <trkpt lat="49.29141" lon="-0.35678">
        <ele>24.4</ele>
        <time>2020-06-17T09:45:34Z</time>
      </trkpt>
      <trkpt lat="49.29138" lon="-0.35668">
        <ele>24.2</ele>
        <time>2020-06-17T09:45:35Z</time>
      </trkpt>
      <trkpt lat="49.29136" lon="-0.35657">
        <ele>24</ele>
        <time>2020-06-17T09:45:36Z</time>
      </trkpt>
      <trkpt lat="49.29133" lon="-0.35646">
        <ele>23.9</ele>
        <time>2020-06-17T09:45:37Z</time>
      </trkpt>
      <trkpt lat="49.29131" lon="-0.35635">
        <ele>23.8</ele>
        <time>2020-06-17T09:45:38Z</time>
      </trkpt>
      <trkpt lat="49.29129" lon="-0.35625">
        <ele>23.7</ele>
        <time>2020-06-17T09:45:39Z</time>
      </trkpt>
      <trkpt lat="49.29127" lon="-0.35615">
        <ele>23.7</ele>
        <time>2020-06-17T09:45:40Z</time>
      </trkpt>
      <trkpt lat="49.29124" lon="-0.35604">
        <ele>23.7</ele>
        <time>2020-06-17T09:45:41Z</time>
      </trkpt>
      <trkpt lat="49.29121" lon="-0.35593">
        <ele>23.7</ele>
        <time>2020-06-17T09:45:42Z</time>
      </trkpt>
      <trkpt lat="49.29118" lon="-0.35581">
        <ele>23.7</ele>
        <time>2020-06-17T09:45:43Z</time>
      </trkpt>
      <trkpt lat="49.29115" lon="-0.35569">
        <ele>23.9</ele>
        <time>2020-06-17T09:45:44Z</time>
      </trkpt>
      <trkpt lat="49.29112" lon="-0.35561">
        <ele>23.7</ele>
        <time>2020-06-17T09:45:45Z</time>
      </trkpt>
      <trkpt lat="49.29109" lon="-0.35551">
        <ele>23.6</ele>
        <time>2020-06-17T09:45:46Z</time>
      </trkpt>
      <trkpt lat="49.29106" lon="-0.35542">
        <ele>23.4</ele>
        <time>2020-06-17T09:45:47Z</time>
      </trkpt>
      <trkpt lat="49.29103" lon="-0.35534">
        <ele>23.2</ele>
        <time>2020-06-17T09:45:48Z</time>
      </trkpt>
      <trkpt lat="49.29101" lon="-0.35526">
        <ele>23</ele>
        <time>2020-06-17T09:45:49Z</time>
      </trkpt>
      <trkpt lat="49.291" lon="-0.35522">
        <ele>22.9</ele>
        <time>2020-06-17T09:45:50Z</time>
      </trkpt>
      <trkpt lat="49.29098" lon="-0.35517">
        <ele>22.9</ele>
        <time>2020-06-17T09:45:51Z</time>
      </trkpt>
      <trkpt lat="49.29096" lon="-0.3551">
        <ele>22.7</ele>
        <time>2020-06-17T09:45:52Z</time>
      </trkpt>
      <trkpt lat="49.29094" lon="-0.35503">
        <ele>22.6</ele>
        <time>2020-06-17T09:45:53Z</time>
      </trkpt>
      <trkpt lat="49.29092" lon="-0.35495">
        <ele>22.5</ele>
        <time>2020-06-17T09:45:54Z</time>
      </trkpt>
      <trkpt lat="49.2909" lon="-0.35485">
        <ele>22.3</ele>
        <time>2020-06-17T09:45:55Z</time>
      </trkpt>
      <trkpt lat="49.29088" lon="-0.35475">
        <ele>22.2</ele>
        <time>2020-06-17T09:45:56Z</time>
      </trkpt>
      <trkpt lat="49.29086" lon="-0.35465">
        <ele>22.1</ele>
        <time>2020-06-17T09:45:57Z</time>
      </trkpt>
      <trkpt lat="49.29084" lon="-0.35457">
        <ele>22.1</ele>
        <time>2020-06-17T09:45:58Z</time>
      </trkpt>
      <trkpt lat="49.29082" lon="-0.35448">
        <ele>22.1</ele>
        <time>2020-06-17T09:45:59Z</time>
      </trkpt>
      <trkpt lat="49.2908" lon="-0.35441">
        <ele>22</ele>
        <time>2020-06-17T09:46:00Z</time>
      </trkpt>
      <trkpt lat="49.29077" lon="-0.35431">
        <ele>22</ele>
        <time>2020-06-17T09:46:01Z</time>
      </trkpt>
      <trkpt lat="49.29073" lon="-0.35422">
        <ele>22</ele>
        <time>2020-06-17T09:46:02Z</time>
      </trkpt>
      <trkpt lat="49.29069" lon="-0.35413">
        <ele>22</ele>
        <time>2020-06-17T09:46:03Z</time>
      </trkpt>
      <trkpt lat="49.29065" lon="-0.35405">
        <ele>22</ele>
        <time>2020-06-17T09:46:04Z</time>
      </trkpt>
      <trkpt lat="49.29062" lon="-0.35395">
        <ele>22.1</ele>
        <time>2020-06-17T09:46:05Z</time>
      </trkpt>
      <trkpt lat="49.29059" lon="-0.35386">
        <ele>22.1</ele>
        <time>2020-06-17T09:46:06Z</time>
      </trkpt>
      <trkpt lat="49.29055" lon="-0.35377">
        <ele>22.2</ele>
        <time>2020-06-17T09:46:07Z</time>
      </trkpt>
      <trkpt lat="49.29051" lon="-0.35368">
        <ele>22.3</ele>
        <time>2020-06-17T09:46:08Z</time>
      </trkpt>
      <trkpt lat="49.29048" lon="-0.3536">
        <ele>22.4</ele>
        <time>2020-06-17T09:46:09Z</time>
      </trkpt>
      <trkpt lat="49.29045" lon="-0.35352">
        <ele>22.4</ele>
        <time>2020-06-17T09:46:10Z</time>
      </trkpt>
      <trkpt lat="49.29042" lon="-0.35342">
        <ele>22.5</ele>
        <time>2020-06-17T09:46:11Z</time>
      </trkpt>
      <trkpt lat="49.29039" lon="-0.35334">
        <ele>22.6</ele>
        <time>2020-06-17T09:46:12Z</time>
      </trkpt>
      <trkpt lat="49.29035" lon="-0.35323">
        <ele>22.5</ele>
        <time>2020-06-17T09:46:13Z</time>
      </trkpt>
      <trkpt lat="49.29033" lon="-0.35313">
        <ele>22.5</ele>
        <time>2020-06-17T09:46:14Z</time>
      </trkpt>
      <trkpt lat="49.29031" lon="-0.35304">
        <ele>22.5</ele>
        <time>2020-06-17T09:46:15Z</time>
      </trkpt>
      <trkpt lat="49.29029" lon="-0.35296">
        <ele>22.6</ele>
        <time>2020-06-17T09:46:16Z</time>
      </trkpt>
      <trkpt lat="49.29025" lon="-0.35281">
        <ele>22.6</ele>
        <time>2020-06-17T09:46:17Z</time>
      </trkpt>
      <trkpt lat="49.29023" lon="-0.35275">
        <ele>22.6</ele>
        <time>2020-06-17T09:46:18Z</time>
      </trkpt>
      <trkpt lat="49.29022" lon="-0.35269">
        <ele>22.6</ele>
        <time>2020-06-17T09:46:19Z</time>
      </trkpt>
      <trkpt lat="49.2902" lon="-0.35262">
        <ele>22.6</ele>
        <time>2020-06-17T09:46:20Z</time>
      </trkpt>
      <trkpt lat="49.29017" lon="-0.35254">
        <ele>22.6</ele>
        <time>2020-06-17T09:46:21Z</time>
      </trkpt>
      <trkpt lat="49.29014" lon="-0.35245">
        <ele>22.6</ele>
        <time>2020-06-17T09:46:22Z</time>
      </trkpt>
      <trkpt lat="49.2901" lon="-0.35236">
        <ele>22.6</ele>
        <time>2020-06-17T09:46:23Z</time>
      </trkpt>
      <trkpt lat="49.29009" lon="-0.35227">
        <ele>22.7</ele>
        <time>2020-06-17T09:46:24Z</time>
      </trkpt>
      <trkpt lat="49.29007" lon="-0.35219">
        <ele>22.8</ele>
        <time>2020-06-17T09:46:25Z</time>
      </trkpt>
      <trkpt lat="49.29006" lon="-0.35211">
        <ele>22.8</ele>
        <time>2020-06-17T09:46:26Z</time>
      </trkpt>
      <trkpt lat="49.29005" lon="-0.35206">
        <ele>22.9</ele>
        <time>2020-06-17T09:46:27Z</time>
      </trkpt>
      <trkpt lat="49.29003" lon="-0.35198">
        <ele>23</ele>
        <time>2020-06-17T09:46:28Z</time>
      </trkpt>
      <trkpt lat="49.29001" lon="-0.35189">
        <ele>23.1</ele>
        <time>2020-06-17T09:46:29Z</time>
      </trkpt>
      <trkpt lat="49.28999" lon="-0.35179">
        <ele>23.2</ele>
        <time>2020-06-17T09:46:30Z</time>
      </trkpt>
      <trkpt lat="49.28996" lon="-0.35168">
        <ele>23.4</ele>
        <time>2020-06-17T09:46:31Z</time>
      </trkpt>
      <trkpt lat="49.28994" lon="-0.35156">
        <ele>23.7</ele>
        <time>2020-06-17T09:46:32Z</time>
      </trkpt>
      <trkpt lat="49.28991" lon="-0.35147">
        <ele>24</ele>
        <time>2020-06-17T09:46:33Z</time>
      </trkpt>
      <trkpt lat="49.28988" lon="-0.3514">
        <ele>24.2</ele>
        <time>2020-06-17T09:46:34Z</time>
      </trkpt>
      <trkpt lat="49.28985" lon="-0.35134">
        <ele>24.4</ele>
        <time>2020-06-17T09:46:35Z</time>
      </trkpt>
      <trkpt lat="49.28982" lon="-0.35127">
        <ele>24.5</ele>
        <time>2020-06-17T09:46:36Z</time>
      </trkpt>
      <trkpt lat="49.2898" lon="-0.35121">
        <ele>24.7</ele>
        <time>2020-06-17T09:46:37Z</time>
      </trkpt>
      <trkpt lat="49.28979" lon="-0.35116">
        <ele>24.8</ele>
        <time>2020-06-17T09:46:38Z</time>
      </trkpt>
      <trkpt lat="49.28977" lon="-0.35111">
        <ele>25</ele>
        <time>2020-06-17T09:46:39Z</time>
      </trkpt>
      <trkpt lat="49.28976" lon="-0.35105">
        <ele>25.1</ele>
        <time>2020-06-17T09:46:40Z</time>
      </trkpt>
      <trkpt lat="49.28975" lon="-0.351">
        <ele>25.2</ele>
        <time>2020-06-17T09:46:41Z</time>
      </trkpt>
      <trkpt lat="49.28973" lon="-0.35093">
        <ele>25.3</ele>
        <time>2020-06-17T09:46:42Z</time>
      </trkpt>
      <trkpt lat="49.28971" lon="-0.35086">
        <ele>25.4</ele>
        <time>2020-06-17T09:46:43Z</time>
      </trkpt>
      <trkpt lat="49.2897" lon="-0.35079">
        <ele>25.6</ele>
        <time>2020-06-17T09:46:44Z</time>
      </trkpt>
      <trkpt lat="49.28968" lon="-0.35072">
        <ele>25.6</ele>
        <time>2020-06-17T09:46:45Z</time>
      </trkpt>
      <trkpt lat="49.28967" lon="-0.35067">
        <ele>25.7</ele>
        <time>2020-06-17T09:46:46Z</time>
      </trkpt>
      <trkpt lat="49.28965" lon="-0.35061">
        <ele>25.8</ele>
        <time>2020-06-17T09:46:47Z</time>
      </trkpt>
      <trkpt lat="49.28963" lon="-0.35055">
        <ele>25.9</ele>
        <time>2020-06-17T09:46:48Z</time>
      </trkpt>
      <trkpt lat="49.2896" lon="-0.35048">
        <ele>26</ele>
        <time>2020-06-17T09:46:49Z</time>
      </trkpt>
      <trkpt lat="49.28959" lon="-0.35042">
        <ele>26.1</ele>
        <time>2020-06-17T09:46:50Z</time>
      </trkpt>
      <trkpt lat="49.28958" lon="-0.35036">
        <ele>26.2</ele>
        <time>2020-06-17T09:46:51Z</time>
      </trkpt>
      <trkpt lat="49.28958" lon="-0.35031">
        <ele>26.2</ele>
        <time>2020-06-17T09:46:52Z</time>
      </trkpt>
      <trkpt lat="49.28957" lon="-0.35026">
        <ele>26.2</ele>
        <time>2020-06-17T09:46:53Z</time>
      </trkpt>
      <trkpt lat="49.28957" lon="-0.3502">
        <ele>26.3</ele>
        <time>2020-06-17T09:46:54Z</time>
      </trkpt>
      <trkpt lat="49.28957" lon="-0.35014">
        <ele>26.4</ele>
        <time>2020-06-17T09:46:55Z</time>
      </trkpt>
      <trkpt lat="49.28956" lon="-0.35008">
        <ele>26.3</ele>
        <time>2020-06-17T09:46:56Z</time>
      </trkpt>
      <trkpt lat="49.28956" lon="-0.35002">
        <ele>26.3</ele>
        <time>2020-06-17T09:46:57Z</time>
      </trkpt>
      <trkpt lat="49.28954" lon="-0.34995">
        <ele>26.3</ele>
        <time>2020-06-17T09:46:58Z</time>
      </trkpt>
      <trkpt lat="49.28952" lon="-0.34989">
        <ele>26.3</ele>
        <time>2020-06-17T09:46:59Z</time>
      </trkpt>
      <trkpt lat="49.28951" lon="-0.34983">
        <ele>26.3</ele>
        <time>2020-06-17T09:47:00Z</time>
      </trkpt>
      <trkpt lat="49.28949" lon="-0.34977">
        <ele>26.3</ele>
        <time>2020-06-17T09:47:01Z</time>
      </trkpt>
      <trkpt lat="49.28948" lon="-0.34971">
        <ele>26.3</ele>
        <time>2020-06-17T09:47:02Z</time>
      </trkpt>
      <trkpt lat="49.28947" lon="-0.34964">
        <ele>26.3</ele>
        <time>2020-06-17T09:47:03Z</time>
      </trkpt>
      <trkpt lat="49.28946" lon="-0.34958">
        <ele>26.3</ele>
        <time>2020-06-17T09:47:04Z</time>
      </trkpt>
      <trkpt lat="49.28946" lon="-0.34951">
        <ele>26.3</ele>
        <time>2020-06-17T09:47:05Z</time>
      </trkpt>
      <trkpt lat="49.28944" lon="-0.34944">
        <ele>26.3</ele>
        <time>2020-06-17T09:47:06Z</time>
      </trkpt>
      <trkpt lat="49.28943" lon="-0.34937">
        <ele>26.2</ele>
        <time>2020-06-17T09:47:07Z</time>
      </trkpt>
      <trkpt lat="49.28941" lon="-0.3493">
        <ele>26.2</ele>
        <time>2020-06-17T09:47:08Z</time>
      </trkpt>
      <trkpt lat="49.28939" lon="-0.34922">
        <ele>26.1</ele>
        <time>2020-06-17T09:47:09Z</time>
      </trkpt>
      <trkpt lat="49.28938" lon="-0.34915">
        <ele>26.1</ele>
        <time>2020-06-17T09:47:10Z</time>
      </trkpt>
      <trkpt lat="49.28936" lon="-0.34909">
        <ele>26</ele>
        <time>2020-06-17T09:47:11Z</time>
      </trkpt>
      <trkpt lat="49.28933" lon="-0.34901">
        <ele>25.9</ele>
        <time>2020-06-17T09:47:12Z</time>
      </trkpt>
      <trkpt lat="49.28931" lon="-0.34893">
        <ele>25.9</ele>
        <time>2020-06-17T09:47:13Z</time>
      </trkpt>
      <trkpt lat="49.28929" lon="-0.34885">
        <ele>25.8</ele>
        <time>2020-06-17T09:47:14Z</time>
      </trkpt>
      <trkpt lat="49.28927" lon="-0.34876">
        <ele>25.8</ele>
        <time>2020-06-17T09:47:15Z</time>
      </trkpt>
      <trkpt lat="49.28925" lon="-0.34867">
        <ele>25.7</ele>
        <time>2020-06-17T09:47:16Z</time>
      </trkpt>
      <trkpt lat="49.28922" lon="-0.34857">
        <ele>25.6</ele>
        <time>2020-06-17T09:47:17Z</time>
      </trkpt>
      <trkpt lat="49.2892" lon="-0.34849">
        <ele>25.5</ele>
        <time>2020-06-17T09:47:18Z</time>
      </trkpt>
      <trkpt lat="49.28917" lon="-0.34839">
        <ele>25.4</ele>
        <time>2020-06-17T09:47:19Z</time>
      </trkpt>
      <trkpt lat="49.28914" lon="-0.3483">
        <ele>25.3</ele>
        <time>2020-06-17T09:47:20Z</time>
      </trkpt>
      <trkpt lat="49.28911" lon="-0.3482">
        <ele>25.2</ele>
        <time>2020-06-17T09:47:21Z</time>
      </trkpt>
      <trkpt lat="49.28909" lon="-0.34811">
        <ele>25.1</ele>
        <time>2020-06-17T09:47:22Z</time>
      </trkpt>
      <trkpt lat="49.28906" lon="-0.34801">
        <ele>25</ele>
        <time>2020-06-17T09:47:23Z</time>
      </trkpt>
      <trkpt lat="49.28904" lon="-0.34792">
        <ele>24.9</ele>
        <time>2020-06-17T09:47:24Z</time>
      </trkpt>
      <trkpt lat="49.28901" lon="-0.34782">
        <ele>24.7</ele>
        <time>2020-06-17T09:47:25Z</time>
      </trkpt>
      <trkpt lat="49.28898" lon="-0.34772">
        <ele>24.6</ele>
        <time>2020-06-17T09:47:26Z</time>
      </trkpt>
      <trkpt lat="49.28895" lon="-0.34763">
        <ele>24.5</ele>
        <time>2020-06-17T09:47:27Z</time>
      </trkpt>
      <trkpt lat="49.28892" lon="-0.34754">
        <ele>24.4</ele>
        <time>2020-06-17T09:47:28Z</time>
      </trkpt>
      <trkpt lat="49.28889" lon="-0.34744">
        <ele>24.2</ele>
        <time>2020-06-17T09:47:29Z</time>
      </trkpt>
      <trkpt lat="49.28886" lon="-0.34735">
        <ele>24.1</ele>
        <time>2020-06-17T09:47:30Z</time>
      </trkpt>
      <trkpt lat="49.28883" lon="-0.34723">
        <ele>24</ele>
        <time>2020-06-17T09:47:31Z</time>
      </trkpt>
      <trkpt lat="49.2888" lon="-0.34712">
        <ele>23.8</ele>
        <time>2020-06-17T09:47:32Z</time>
      </trkpt>
      <trkpt lat="49.28877" lon="-0.34701">
        <ele>23.6</ele>
        <time>2020-06-17T09:47:33Z</time>
      </trkpt>
      <trkpt lat="49.28873" lon="-0.34691">
        <ele>23.5</ele>
        <time>2020-06-17T09:47:34Z</time>
      </trkpt>
      <trkpt lat="49.28871" lon="-0.34681">
        <ele>23.3</ele>
        <time>2020-06-17T09:47:35Z</time>
      </trkpt>
      <trkpt lat="49.28869" lon="-0.34672">
        <ele>23.2</ele>
        <time>2020-06-17T09:47:36Z</time>
      </trkpt>
      <trkpt lat="49.28868" lon="-0.34662">
        <ele>23.1</ele>
        <time>2020-06-17T09:47:37Z</time>
      </trkpt>
      <trkpt lat="49.28866" lon="-0.34652">
        <ele>23</ele>
        <time>2020-06-17T09:47:38Z</time>
      </trkpt>
      <trkpt lat="49.28865" lon="-0.34641">
        <ele>22.9</ele>
        <time>2020-06-17T09:47:39Z</time>
      </trkpt>
      <trkpt lat="49.28863" lon="-0.3463">
        <ele>22.7</ele>
        <time>2020-06-17T09:47:40Z</time>
      </trkpt>
      <trkpt lat="49.28861" lon="-0.34621">
        <ele>22.7</ele>
        <time>2020-06-17T09:47:41Z</time>
      </trkpt>
      <trkpt lat="49.28859" lon="-0.34612">
        <ele>22.7</ele>
        <time>2020-06-17T09:47:42Z</time>
      </trkpt>
      <trkpt lat="49.28856" lon="-0.34603">
        <ele>22.7</ele>
        <time>2020-06-17T09:47:43Z</time>
      </trkpt>
      <trkpt lat="49.28853" lon="-0.34596">
        <ele>22.6</ele>
        <time>2020-06-17T09:47:44Z</time>
      </trkpt>
      <trkpt lat="49.2885" lon="-0.34589">
        <ele>22.6</ele>
        <time>2020-06-17T09:47:45Z</time>
      </trkpt>
      <trkpt lat="49.28846" lon="-0.34581">
        <ele>22.5</ele>
        <time>2020-06-17T09:47:46Z</time>
      </trkpt>
      <trkpt lat="49.28843" lon="-0.34574">
        <ele>22.4</ele>
        <time>2020-06-17T09:47:47Z</time>
      </trkpt>
      <trkpt lat="49.28838" lon="-0.34564">
        <ele>22.3</ele>
        <time>2020-06-17T09:47:48Z</time>
      </trkpt>
      <trkpt lat="49.28835" lon="-0.34555">
        <ele>22.2</ele>
        <time>2020-06-17T09:47:49Z</time>
      </trkpt>
      <trkpt lat="49.28831" lon="-0.34547">
        <ele>22.2</ele>
        <time>2020-06-17T09:47:50Z</time>
      </trkpt>
      <trkpt lat="49.28827" lon="-0.34537">
        <ele>22.1</ele>
        <time>2020-06-17T09:47:51Z</time>
      </trkpt>
      <trkpt lat="49.28824" lon="-0.34528">
        <ele>22.1</ele>
        <time>2020-06-17T09:47:52Z</time>
      </trkpt>
      <trkpt lat="49.28821" lon="-0.34518">
        <ele>22</ele>
        <time>2020-06-17T09:47:53Z</time>
      </trkpt>
      <trkpt lat="49.28819" lon="-0.34509">
        <ele>22</ele>
        <time>2020-06-17T09:47:54Z</time>
      </trkpt>
      <trkpt lat="49.28816" lon="-0.34499">
        <ele>22</ele>
        <time>2020-06-17T09:47:55Z</time>
      </trkpt>
      <trkpt lat="49.28814" lon="-0.34489">
        <ele>21.9</ele>
        <time>2020-06-17T09:47:56Z</time>
      </trkpt>
      <trkpt lat="49.28812" lon="-0.34479">
        <ele>21.9</ele>
        <time>2020-06-17T09:47:57Z</time>
      </trkpt>
      <trkpt lat="49.28809" lon="-0.34468">
        <ele>21.9</ele>
        <time>2020-06-17T09:47:58Z</time>
      </trkpt>
      <trkpt lat="49.28807" lon="-0.3446">
        <ele>21.8</ele>
        <time>2020-06-17T09:47:59Z</time>
      </trkpt>
      <trkpt lat="49.28804" lon="-0.3445">
        <ele>21.8</ele>
        <time>2020-06-17T09:48:00Z</time>
      </trkpt>
      <trkpt lat="49.28801" lon="-0.3444">
        <ele>21.8</ele>
        <time>2020-06-17T09:48:01Z</time>
      </trkpt>
      <trkpt lat="49.28797" lon="-0.3443">
        <ele>21.8</ele>
        <time>2020-06-17T09:48:02Z</time>
      </trkpt>
      <trkpt lat="49.28795" lon="-0.34421">
        <ele>21.7</ele>
        <time>2020-06-17T09:48:03Z</time>
      </trkpt>
      <trkpt lat="49.28792" lon="-0.34411">
        <ele>21.7</ele>
        <time>2020-06-17T09:48:04Z</time>
      </trkpt>
      <trkpt lat="49.28789" lon="-0.34401">
        <ele>21.7</ele>
        <time>2020-06-17T09:48:05Z</time>
      </trkpt>
      <trkpt lat="49.28787" lon="-0.34393">
        <ele>21.6</ele>
        <time>2020-06-17T09:48:06Z</time>
      </trkpt>
      <trkpt lat="49.28784" lon="-0.34385">
        <ele>21.6</ele>
        <time>2020-06-17T09:48:07Z</time>
      </trkpt>
      <trkpt lat="49.28782" lon="-0.34378">
        <ele>21.6</ele>
        <time>2020-06-17T09:48:08Z</time>
      </trkpt>
      <trkpt lat="49.2878" lon="-0.3437">
        <ele>21.5</ele>
        <time>2020-06-17T09:48:09Z</time>
      </trkpt>
      <trkpt lat="49.28778" lon="-0.34362">
        <ele>21.5</ele>
        <time>2020-06-17T09:48:10Z</time>
      </trkpt>
      <trkpt lat="49.28777" lon="-0.34354">
        <ele>21.5</ele>
        <time>2020-06-17T09:48:11Z</time>
      </trkpt>
      <trkpt lat="49.28775" lon="-0.34347">
        <ele>21.5</ele>
        <time>2020-06-17T09:48:12Z</time>
      </trkpt>
      <trkpt lat="49.28772" lon="-0.3434">
        <ele>21.5</ele>
        <time>2020-06-17T09:48:13Z</time>
      </trkpt>
      <trkpt lat="49.2877" lon="-0.34331">
        <ele>21.5</ele>
        <time>2020-06-17T09:48:14Z</time>
      </trkpt>
      <trkpt lat="49.28767" lon="-0.34323">
        <ele>21.5</ele>
        <time>2020-06-17T09:48:15Z</time>
      </trkpt>
      <trkpt lat="49.28765" lon="-0.34314">
        <ele>21.6</ele>
        <time>2020-06-17T09:48:16Z</time>
      </trkpt>
      <trkpt lat="49.28763" lon="-0.34303">
        <ele>21.6</ele>
        <time>2020-06-17T09:48:17Z</time>
      </trkpt>
      <trkpt lat="49.2876" lon="-0.34292">
        <ele>21.5</ele>
        <time>2020-06-17T09:48:18Z</time>
      </trkpt>
      <trkpt lat="49.28758" lon="-0.34281">
        <ele>21.5</ele>
        <time>2020-06-17T09:48:19Z</time>
      </trkpt>
      <trkpt lat="49.28756" lon="-0.34271">
        <ele>21.5</ele>
        <time>2020-06-17T09:48:20Z</time>
      </trkpt>
      <trkpt lat="49.28754" lon="-0.34259">
        <ele>21.5</ele>
        <time>2020-06-17T09:48:21Z</time>
      </trkpt>
      <trkpt lat="49.28751" lon="-0.34249">
        <ele>21.5</ele>
        <time>2020-06-17T09:48:22Z</time>
      </trkpt>
      <trkpt lat="49.28749" lon="-0.34239">
        <ele>21.5</ele>
        <time>2020-06-17T09:48:23Z</time>
      </trkpt>
      <trkpt lat="49.28747" lon="-0.3423">
        <ele>21.5</ele>
        <time>2020-06-17T09:48:24Z</time>
      </trkpt>
      <trkpt lat="49.28745" lon="-0.3422">
        <ele>21.5</ele>
        <time>2020-06-17T09:48:25Z</time>
      </trkpt>
      <trkpt lat="49.28743" lon="-0.34211">
        <ele>21.6</ele>
        <time>2020-06-17T09:48:26Z</time>
      </trkpt>
      <trkpt lat="49.28741" lon="-0.34202">
        <ele>21.6</ele>
        <time>2020-06-17T09:48:27Z</time>
      </trkpt>
      <trkpt lat="49.28739" lon="-0.3419">
        <ele>21.6</ele>
        <time>2020-06-17T09:48:28Z</time>
      </trkpt>
      <trkpt lat="49.28737" lon="-0.34179">
        <ele>21.7</ele>
        <time>2020-06-17T09:48:29Z</time>
      </trkpt>
      <trkpt lat="49.28735" lon="-0.34168">
        <ele>21.7</ele>
        <time>2020-06-17T09:48:30Z</time>
      </trkpt>
      <trkpt lat="49.28732" lon="-0.34156">
        <ele>21.6</ele>
        <time>2020-06-17T09:48:31Z</time>
      </trkpt>
      <trkpt lat="49.2873" lon="-0.34145">
        <ele>21.5</ele>
        <time>2020-06-17T09:48:32Z</time>
      </trkpt>
      <trkpt lat="49.28727" lon="-0.34133">
        <ele>21.5</ele>
        <time>2020-06-17T09:48:33Z</time>
      </trkpt>
      <trkpt lat="49.28724" lon="-0.34122">
        <ele>21.5</ele>
        <time>2020-06-17T09:48:34Z</time>
      </trkpt>
      <trkpt lat="49.28721" lon="-0.34111">
        <ele>21.5</ele>
        <time>2020-06-17T09:48:35Z</time>
      </trkpt>
      <trkpt lat="49.28718" lon="-0.34101">
        <ele>21.5</ele>
        <time>2020-06-17T09:48:36Z</time>
      </trkpt>
      <trkpt lat="49.28715" lon="-0.34092">
        <ele>21.5</ele>
        <time>2020-06-17T09:48:37Z</time>
      </trkpt>
      <trkpt lat="49.28711" lon="-0.34083">
        <ele>21.5</ele>
        <time>2020-06-17T09:48:38Z</time>
      </trkpt>
      <trkpt lat="49.28709" lon="-0.34074">
        <ele>21.5</ele>
        <time>2020-06-17T09:48:39Z</time>
      </trkpt>
      <trkpt lat="49.28706" lon="-0.34063">
        <ele>21.5</ele>
        <time>2020-06-17T09:48:40Z</time>
      </trkpt>
      <trkpt lat="49.28704" lon="-0.34052">
        <ele>21.5</ele>
        <time>2020-06-17T09:48:41Z</time>
      </trkpt>
      <trkpt lat="49.28701" lon="-0.34041">
        <ele>21.4</ele>
        <time>2020-06-17T09:48:42Z</time>
      </trkpt>
      <trkpt lat="49.28699" lon="-0.34033">
        <ele>21.4</ele>
        <time>2020-06-17T09:48:43Z</time>
      </trkpt>
      <trkpt lat="49.28697" lon="-0.34022">
        <ele>21.4</ele>
        <time>2020-06-17T09:48:44Z</time>
      </trkpt>
      <trkpt lat="49.28694" lon="-0.34013">
        <ele>21.4</ele>
        <time>2020-06-17T09:48:45Z</time>
      </trkpt>
      <trkpt lat="49.2869" lon="-0.34002">
        <ele>21.3</ele>
        <time>2020-06-17T09:48:46Z</time>
      </trkpt>
      <trkpt lat="49.28687" lon="-0.3399">
        <ele>21.3</ele>
        <time>2020-06-17T09:48:47Z</time>
      </trkpt>
      <trkpt lat="49.28683" lon="-0.33978">
        <ele>21.2</ele>
        <time>2020-06-17T09:48:48Z</time>
      </trkpt>
      <trkpt lat="49.2868" lon="-0.33967">
        <ele>21.1</ele>
        <time>2020-06-17T09:48:49Z</time>
      </trkpt>
      <trkpt lat="49.28677" lon="-0.33957">
        <ele>21</ele>
        <time>2020-06-17T09:48:50Z</time>
      </trkpt>
      <trkpt lat="49.28675" lon="-0.33945">
        <ele>20.9</ele>
        <time>2020-06-17T09:48:51Z</time>
      </trkpt>
      <trkpt lat="49.28672" lon="-0.33936">
        <ele>20.8</ele>
        <time>2020-06-17T09:48:52Z</time>
      </trkpt>
      <trkpt lat="49.28669" lon="-0.33926">
        <ele>20.8</ele>
        <time>2020-06-17T09:48:53Z</time>
      </trkpt>
      <trkpt lat="49.28667" lon="-0.33915">
        <ele>20.7</ele>
        <time>2020-06-17T09:48:54Z</time>
      </trkpt>
      <trkpt lat="49.28665" lon="-0.33905">
        <ele>20.7</ele>
        <time>2020-06-17T09:48:55Z</time>
      </trkpt>
      <trkpt lat="49.28662" lon="-0.33896">
        <ele>20.6</ele>
        <time>2020-06-17T09:48:56Z</time>
      </trkpt>
      <trkpt lat="49.28659" lon="-0.33887">
        <ele>20.6</ele>
        <time>2020-06-17T09:48:57Z</time>
      </trkpt>
      <trkpt lat="49.28657" lon="-0.33877">
        <ele>20.5</ele>
        <time>2020-06-17T09:48:58Z</time>
      </trkpt>
      <trkpt lat="49.28655" lon="-0.33866">
        <ele>20.5</ele>
        <time>2020-06-17T09:48:59Z</time>
      </trkpt>
      <trkpt lat="49.28652" lon="-0.33856">
        <ele>20.5</ele>
        <time>2020-06-17T09:49:00Z</time>
      </trkpt>
      <trkpt lat="49.2865" lon="-0.33846">
        <ele>20.4</ele>
        <time>2020-06-17T09:49:01Z</time>
      </trkpt>
      <trkpt lat="49.28647" lon="-0.33835">
        <ele>20.3</ele>
        <time>2020-06-17T09:49:02Z</time>
      </trkpt>
      <trkpt lat="49.28644" lon="-0.33824">
        <ele>20.2</ele>
        <time>2020-06-17T09:49:03Z</time>
      </trkpt>
      <trkpt lat="49.28642" lon="-0.33814">
        <ele>20.1</ele>
        <time>2020-06-17T09:49:04Z</time>
      </trkpt>
      <trkpt lat="49.28639" lon="-0.33803">
        <ele>20.1</ele>
        <time>2020-06-17T09:49:05Z</time>
      </trkpt>
      <trkpt lat="49.28636" lon="-0.33792">
        <ele>20</ele>
        <time>2020-06-17T09:49:06Z</time>
      </trkpt>
      <trkpt lat="49.28633" lon="-0.33781">
        <ele>20</ele>
        <time>2020-06-17T09:49:07Z</time>
      </trkpt>
      <trkpt lat="49.2863" lon="-0.33772">
        <ele>19.9</ele>
        <time>2020-06-17T09:49:08Z</time>
      </trkpt>
      <trkpt lat="49.28627" lon="-0.33763">
        <ele>19.9</ele>
        <time>2020-06-17T09:49:09Z</time>
      </trkpt>
      <trkpt lat="49.28624" lon="-0.33754">
        <ele>20</ele>
        <time>2020-06-17T09:49:10Z</time>
      </trkpt>
      <trkpt lat="49.28621" lon="-0.33743">
        <ele>20</ele>
        <time>2020-06-17T09:49:11Z</time>
      </trkpt>
      <trkpt lat="49.28618" lon="-0.33733">
        <ele>20</ele>
        <time>2020-06-17T09:49:12Z</time>
      </trkpt>
      <trkpt lat="49.28615" lon="-0.33723">
        <ele>20.1</ele>
        <time>2020-06-17T09:49:13Z</time>
      </trkpt>
      <trkpt lat="49.28612" lon="-0.33713">
        <ele>20.1</ele>
        <time>2020-06-17T09:49:14Z</time>
      </trkpt>
      <trkpt lat="49.28609" lon="-0.33703">
        <ele>20.2</ele>
        <time>2020-06-17T09:49:15Z</time>
      </trkpt>
      <trkpt lat="49.28606" lon="-0.33694">
        <ele>20.3</ele>
        <time>2020-06-17T09:49:16Z</time>
      </trkpt>
      <trkpt lat="49.28604" lon="-0.33684">
        <ele>20.4</ele>
        <time>2020-06-17T09:49:17Z</time>
      </trkpt>
      <trkpt lat="49.28602" lon="-0.33673">
        <ele>20.6</ele>
        <time>2020-06-17T09:49:18Z</time>
      </trkpt>
      <trkpt lat="49.286" lon="-0.33664">
        <ele>20.7</ele>
        <time>2020-06-17T09:49:19Z</time>
      </trkpt>
      <trkpt lat="49.28597" lon="-0.33653">
        <ele>20.9</ele>
        <time>2020-06-17T09:49:20Z</time>
      </trkpt>
      <trkpt lat="49.28594" lon="-0.33645">
        <ele>21</ele>
        <time>2020-06-17T09:49:21Z</time>
      </trkpt>
      <trkpt lat="49.28592" lon="-0.33637">
        <ele>21.1</ele>
        <time>2020-06-17T09:49:22Z</time>
      </trkpt>
      <trkpt lat="49.2859" lon="-0.33629">
        <ele>21.2</ele>
        <time>2020-06-17T09:49:23Z</time>
      </trkpt>
      <trkpt lat="49.28587" lon="-0.3362">
        <ele>21.4</ele>
        <time>2020-06-17T09:49:24Z</time>
      </trkpt>
      <trkpt lat="49.28584" lon="-0.3361">
        <ele>21.6</ele>
        <time>2020-06-17T09:49:25Z</time>
      </trkpt>
      <trkpt lat="49.28582" lon="-0.33601">
        <ele>21.7</ele>
        <time>2020-06-17T09:49:26Z</time>
      </trkpt>
      <trkpt lat="49.28579" lon="-0.33593">
        <ele>21.8</ele>
        <time>2020-06-17T09:49:27Z</time>
      </trkpt>
      <trkpt lat="49.28577" lon="-0.33585">
        <ele>21.9</ele>
        <time>2020-06-17T09:49:28Z</time>
      </trkpt>
      <trkpt lat="49.28574" lon="-0.33576">
        <ele>22</ele>
        <time>2020-06-17T09:49:29Z</time>
      </trkpt>
      <trkpt lat="49.28573" lon="-0.33569">
        <ele>22.1</ele>
        <time>2020-06-17T09:49:30Z</time>
      </trkpt>
      <trkpt lat="49.28571" lon="-0.33562">
        <ele>22.2</ele>
        <time>2020-06-17T09:49:31Z</time>
      </trkpt>
      <trkpt lat="49.28568" lon="-0.33554">
        <ele>22.3</ele>
        <time>2020-06-17T09:49:32Z</time>
      </trkpt>
      <trkpt lat="49.28565" lon="-0.33545">
        <ele>22.4</ele>
        <time>2020-06-17T09:49:33Z</time>
      </trkpt>
      <trkpt lat="49.28563" lon="-0.33536">
        <ele>22.5</ele>
        <time>2020-06-17T09:49:34Z</time>
      </trkpt>
      <trkpt lat="49.28561" lon="-0.33528">
        <ele>22.6</ele>
        <time>2020-06-17T09:49:35Z</time>
      </trkpt>
      <trkpt lat="49.28559" lon="-0.33519">
        <ele>22.6</ele>
        <time>2020-06-17T09:49:36Z</time>
      </trkpt>
      <trkpt lat="49.28556" lon="-0.33511">
        <ele>22.7</ele>
        <time>2020-06-17T09:49:37Z</time>
      </trkpt>
      <trkpt lat="49.28554" lon="-0.33503">
        <ele>22.8</ele>
        <time>2020-06-17T09:49:38Z</time>
      </trkpt>
      <trkpt lat="49.28552" lon="-0.33495">
        <ele>22.8</ele>
        <time>2020-06-17T09:49:39Z</time>
      </trkpt>
      <trkpt lat="49.2855" lon="-0.33487">
        <ele>22.9</ele>
        <time>2020-06-17T09:49:40Z</time>
      </trkpt>
      <trkpt lat="49.28548" lon="-0.3348">
        <ele>23</ele>
        <time>2020-06-17T09:49:41Z</time>
      </trkpt>
      <trkpt lat="49.28546" lon="-0.33472">
        <ele>23</ele>
        <time>2020-06-17T09:49:42Z</time>
      </trkpt>
      <trkpt lat="49.28544" lon="-0.33465">
        <ele>23.1</ele>
        <time>2020-06-17T09:49:43Z</time>
      </trkpt>
      <trkpt lat="49.28542" lon="-0.33456">
        <ele>23.2</ele>
        <time>2020-06-17T09:49:44Z</time>
      </trkpt>
      <trkpt lat="49.2854" lon="-0.33446">
        <ele>23.3</ele>
        <time>2020-06-17T09:49:45Z</time>
      </trkpt>
      <trkpt lat="49.28537" lon="-0.33436">
        <ele>23.4</ele>
        <time>2020-06-17T09:49:46Z</time>
      </trkpt>
      <trkpt lat="49.28535" lon="-0.33426">
        <ele>23.5</ele>
        <time>2020-06-17T09:49:47Z</time>
      </trkpt>
      <trkpt lat="49.28533" lon="-0.33417">
        <ele>23.5</ele>
        <time>2020-06-17T09:49:48Z</time>
      </trkpt>
      <trkpt lat="49.28531" lon="-0.33408">
        <ele>23.6</ele>
        <time>2020-06-17T09:49:49Z</time>
      </trkpt>
      <trkpt lat="49.28529" lon="-0.334">
        <ele>23.6</ele>
        <time>2020-06-17T09:49:50Z</time>
      </trkpt>
      <trkpt lat="49.28527" lon="-0.33392">
        <ele>23.6</ele>
        <time>2020-06-17T09:49:51Z</time>
      </trkpt>
      <trkpt lat="49.28525" lon="-0.33383">
        <ele>23.6</ele>
        <time>2020-06-17T09:49:52Z</time>
      </trkpt>
      <trkpt lat="49.28523" lon="-0.33374">
        <ele>23.6</ele>
        <time>2020-06-17T09:49:53Z</time>
      </trkpt>
      <trkpt lat="49.28521" lon="-0.33365">
        <ele>23.6</ele>
        <time>2020-06-17T09:49:54Z</time>
      </trkpt>
      <trkpt lat="49.28518" lon="-0.33355">
        <ele>23.6</ele>
        <time>2020-06-17T09:49:55Z</time>
      </trkpt>
      <trkpt lat="49.28516" lon="-0.33348">
        <ele>23.5</ele>
        <time>2020-06-17T09:49:56Z</time>
      </trkpt>
      <trkpt lat="49.28513" lon="-0.33339">
        <ele>23.5</ele>
        <time>2020-06-17T09:49:57Z</time>
      </trkpt>
      <trkpt lat="49.28509" lon="-0.33329">
        <ele>23.5</ele>
        <time>2020-06-17T09:49:58Z</time>
      </trkpt>
      <trkpt lat="49.28506" lon="-0.3332">
        <ele>23.5</ele>
        <time>2020-06-17T09:49:59Z</time>
      </trkpt>
      <trkpt lat="49.28503" lon="-0.3331">
        <ele>23.5</ele>
        <time>2020-06-17T09:50:00Z</time>
      </trkpt>
      <trkpt lat="49.28501" lon="-0.33301">
        <ele>23.4</ele>
        <time>2020-06-17T09:50:01Z</time>
      </trkpt>
      <trkpt lat="49.28498" lon="-0.33293">
        <ele>23.4</ele>
        <time>2020-06-17T09:50:02Z</time>
      </trkpt>
      <trkpt lat="49.28495" lon="-0.33283">
        <ele>23.3</ele>
        <time>2020-06-17T09:50:03Z</time>
      </trkpt>
      <trkpt lat="49.28492" lon="-0.33276">
        <ele>23.3</ele>
        <time>2020-06-17T09:50:04Z</time>
      </trkpt>
      <trkpt lat="49.28489" lon="-0.33267">
        <ele>23.3</ele>
        <time>2020-06-17T09:50:05Z</time>
      </trkpt>
      <trkpt lat="49.28486" lon="-0.33257">
        <ele>23.2</ele>
        <time>2020-06-17T09:50:06Z</time>
      </trkpt>
      <trkpt lat="49.28483" lon="-0.33247">
        <ele>23.2</ele>
        <time>2020-06-17T09:50:07Z</time>
      </trkpt>
      <trkpt lat="49.2848" lon="-0.33237">
        <ele>23.2</ele>
        <time>2020-06-17T09:50:08Z</time>
      </trkpt>
      <trkpt lat="49.28477" lon="-0.33227">
        <ele>23.2</ele>
        <time>2020-06-17T09:50:09Z</time>
      </trkpt>
      <trkpt lat="49.28474" lon="-0.33217">
        <ele>23.2</ele>
        <time>2020-06-17T09:50:10Z</time>
      </trkpt>
      <trkpt lat="49.28471" lon="-0.33209">
        <ele>23.2</ele>
        <time>2020-06-17T09:50:11Z</time>
      </trkpt>
      <trkpt lat="49.28468" lon="-0.332">
        <ele>23.2</ele>
        <time>2020-06-17T09:50:12Z</time>
      </trkpt>
      <trkpt lat="49.28465" lon="-0.33191">
        <ele>23.1</ele>
        <time>2020-06-17T09:50:13Z</time>
      </trkpt>
      <trkpt lat="49.28462" lon="-0.33182">
        <ele>23.1</ele>
        <time>2020-06-17T09:50:14Z</time>
      </trkpt>
      <trkpt lat="49.28458" lon="-0.33171">
        <ele>23.1</ele>
        <time>2020-06-17T09:50:15Z</time>
      </trkpt>
      <trkpt lat="49.28454" lon="-0.33162">
        <ele>23</ele>
        <time>2020-06-17T09:50:16Z</time>
      </trkpt>
      <trkpt lat="49.28451" lon="-0.33153">
        <ele>23</ele>
        <time>2020-06-17T09:50:17Z</time>
      </trkpt>
      <trkpt lat="49.28448" lon="-0.33143">
        <ele>22.9</ele>
        <time>2020-06-17T09:50:18Z</time>
      </trkpt>
      <trkpt lat="49.28444" lon="-0.33134">
        <ele>22.8</ele>
        <time>2020-06-17T09:50:19Z</time>
      </trkpt>
      <trkpt lat="49.28442" lon="-0.33124">
        <ele>22.6</ele>
        <time>2020-06-17T09:50:20Z</time>
      </trkpt>
      <trkpt lat="49.28438" lon="-0.33114">
        <ele>22.5</ele>
        <time>2020-06-17T09:50:21Z</time>
      </trkpt>
      <trkpt lat="49.28435" lon="-0.33104">
        <ele>22.4</ele>
        <time>2020-06-17T09:50:22Z</time>
      </trkpt>
      <trkpt lat="49.28432" lon="-0.33095">
        <ele>22.2</ele>
        <time>2020-06-17T09:50:23Z</time>
      </trkpt>
      <trkpt lat="49.28428" lon="-0.33087">
        <ele>22.1</ele>
        <time>2020-06-17T09:50:24Z</time>
      </trkpt>
      <trkpt lat="49.28425" lon="-0.33078">
        <ele>22</ele>
        <time>2020-06-17T09:50:25Z</time>
      </trkpt>
      <trkpt lat="49.28422" lon="-0.3307">
        <ele>22</ele>
        <time>2020-06-17T09:50:26Z</time>
      </trkpt>
      <trkpt lat="49.28419" lon="-0.33062">
        <ele>21.9</ele>
        <time>2020-06-17T09:50:27Z</time>
      </trkpt>
      <trkpt lat="49.28416" lon="-0.33052">
        <ele>21.8</ele>
        <time>2020-06-17T09:50:28Z</time>
      </trkpt>
      <trkpt lat="49.28414" lon="-0.33042">
        <ele>21.7</ele>
        <time>2020-06-17T09:50:29Z</time>
      </trkpt>
      <trkpt lat="49.28411" lon="-0.33032">
        <ele>21.6</ele>
        <time>2020-06-17T09:50:30Z</time>
      </trkpt>
      <trkpt lat="49.28408" lon="-0.33022">
        <ele>21.6</ele>
        <time>2020-06-17T09:50:31Z</time>
      </trkpt>
      <trkpt lat="49.28406" lon="-0.33011">
        <ele>21.6</ele>
        <time>2020-06-17T09:50:32Z</time>
      </trkpt>
      <trkpt lat="49.28404" lon="-0.33">
        <ele>21.6</ele>
        <time>2020-06-17T09:50:33Z</time>
      </trkpt>
      <trkpt lat="49.28402" lon="-0.3299">
        <ele>21.6</ele>
        <time>2020-06-17T09:50:34Z</time>
      </trkpt>
      <trkpt lat="49.28399" lon="-0.32979">
        <ele>21.3</ele>
        <time>2020-06-17T09:50:35Z</time>
      </trkpt>
      <trkpt lat="49.28396" lon="-0.32968">
        <ele>21.1</ele>
        <time>2020-06-17T09:50:36Z</time>
      </trkpt>
      <trkpt lat="49.28393" lon="-0.32956">
        <ele>20.9</ele>
        <time>2020-06-17T09:50:37Z</time>
      </trkpt>
      <trkpt lat="49.2839" lon="-0.32944">
        <ele>20.7</ele>
        <time>2020-06-17T09:50:38Z</time>
      </trkpt>
      <trkpt lat="49.28387" lon="-0.32933">
        <ele>20.5</ele>
        <time>2020-06-17T09:50:39Z</time>
      </trkpt>
      <trkpt lat="49.28385" lon="-0.32923">
        <ele>20.4</ele>
        <time>2020-06-17T09:50:40Z</time>
      </trkpt>
      <trkpt lat="49.28382" lon="-0.32911">
        <ele>20.2</ele>
        <time>2020-06-17T09:50:41Z</time>
      </trkpt>
      <trkpt lat="49.2838" lon="-0.329">
        <ele>20</ele>
        <time>2020-06-17T09:50:42Z</time>
      </trkpt>
      <trkpt lat="49.28378" lon="-0.32889">
        <ele>19.8</ele>
        <time>2020-06-17T09:50:43Z</time>
      </trkpt>
      <trkpt lat="49.28376" lon="-0.32879">
        <ele>19.6</ele>
        <time>2020-06-17T09:50:44Z</time>
      </trkpt>
      <trkpt lat="49.28374" lon="-0.32868">
        <ele>19.4</ele>
        <time>2020-06-17T09:50:45Z</time>
      </trkpt>
      <trkpt lat="49.28372" lon="-0.32858">
        <ele>19.2</ele>
        <time>2020-06-17T09:50:46Z</time>
      </trkpt>
      <trkpt lat="49.28369" lon="-0.32848">
        <ele>19</ele>
        <time>2020-06-17T09:50:47Z</time>
      </trkpt>
      <trkpt lat="49.28367" lon="-0.32837">
        <ele>18.8</ele>
        <time>2020-06-17T09:50:48Z</time>
      </trkpt>
      <trkpt lat="49.28364" lon="-0.32826">
        <ele>18.6</ele>
        <time>2020-06-17T09:50:49Z</time>
      </trkpt>
      <trkpt lat="49.28361" lon="-0.32815">
        <ele>18.4</ele>
        <time>2020-06-17T09:50:50Z</time>
      </trkpt>
      <trkpt lat="49.28358" lon="-0.32804">
        <ele>18.2</ele>
        <time>2020-06-17T09:50:51Z</time>
      </trkpt>
      <trkpt lat="49.28355" lon="-0.32791">
        <ele>18</ele>
        <time>2020-06-17T09:50:52Z</time>
      </trkpt>
      <trkpt lat="49.28353" lon="-0.32781">
        <ele>17.8</ele>
        <time>2020-06-17T09:50:53Z</time>
      </trkpt>
      <trkpt lat="49.28351" lon="-0.32769">
        <ele>17.7</ele>
        <time>2020-06-17T09:50:54Z</time>
      </trkpt>
      <trkpt lat="49.28348" lon="-0.32757">
        <ele>17.5</ele>
        <time>2020-06-17T09:50:55Z</time>
      </trkpt>
      <trkpt lat="49.28345" lon="-0.32746">
        <ele>17.4</ele>
        <time>2020-06-17T09:50:56Z</time>
      </trkpt>
      <trkpt lat="49.28343" lon="-0.32735">
        <ele>17.3</ele>
        <time>2020-06-17T09:50:57Z</time>
      </trkpt>
      <trkpt lat="49.2834" lon="-0.32723">
        <ele>17.1</ele>
        <time>2020-06-17T09:50:58Z</time>
      </trkpt>
      <trkpt lat="49.28337" lon="-0.32711">
        <ele>17</ele>
        <time>2020-06-17T09:50:59Z</time>
      </trkpt>
      <trkpt lat="49.28334" lon="-0.327">
        <ele>16.8</ele>
        <time>2020-06-17T09:51:00Z</time>
      </trkpt>
      <trkpt lat="49.28331" lon="-0.32689">
        <ele>16.7</ele>
        <time>2020-06-17T09:51:01Z</time>
      </trkpt>
      <trkpt lat="49.28327" lon="-0.32677">
        <ele>16.6</ele>
        <time>2020-06-17T09:51:02Z</time>
      </trkpt>
      <trkpt lat="49.28324" lon="-0.32665">
        <ele>16.5</ele>
        <time>2020-06-17T09:51:03Z</time>
      </trkpt>
      <trkpt lat="49.28321" lon="-0.32653">
        <ele>16.4</ele>
        <time>2020-06-17T09:51:04Z</time>
      </trkpt>
      <trkpt lat="49.28316" lon="-0.3264">
        <ele>16.3</ele>
        <time>2020-06-17T09:51:05Z</time>
      </trkpt>
      <trkpt lat="49.28312" lon="-0.32626">
        <ele>16.4</ele>
        <time>2020-06-17T09:51:06Z</time>
      </trkpt>
      <trkpt lat="49.28307" lon="-0.32615">
        <ele>16.4</ele>
        <time>2020-06-17T09:51:07Z</time>
      </trkpt>
      <trkpt lat="49.28303" lon="-0.32604">
        <ele>16.4</ele>
        <time>2020-06-17T09:51:08Z</time>
      </trkpt>
      <trkpt lat="49.28299" lon="-0.32594">
        <ele>16.4</ele>
        <time>2020-06-17T09:51:09Z</time>
      </trkpt>
      <trkpt lat="49.28296" lon="-0.32584">
        <ele>16.5</ele>
        <time>2020-06-17T09:51:10Z</time>
      </trkpt>
      <trkpt lat="49.28293" lon="-0.32574">
        <ele>16.4</ele>
        <time>2020-06-17T09:51:11Z</time>
      </trkpt>
      <trkpt lat="49.2829" lon="-0.32565">
        <ele>16.5</ele>
        <time>2020-06-17T09:51:12Z</time>
      </trkpt>
      <trkpt lat="49.28286" lon="-0.32552">
        <ele>16.5</ele>
        <time>2020-06-17T09:51:13Z</time>
      </trkpt>
      <trkpt lat="49.28283" lon="-0.32541">
        <ele>16.4</ele>
        <time>2020-06-17T09:51:14Z</time>
      </trkpt>
      <trkpt lat="49.28279" lon="-0.3253">
        <ele>16.4</ele>
        <time>2020-06-17T09:51:15Z</time>
      </trkpt>
      <trkpt lat="49.28276" lon="-0.32519">
        <ele>16.4</ele>
        <time>2020-06-17T09:51:16Z</time>
      </trkpt>
      <trkpt lat="49.28272" lon="-0.3251">
        <ele>16.4</ele>
        <time>2020-06-17T09:51:17Z</time>
      </trkpt>
      <trkpt lat="49.28269" lon="-0.32501">
        <ele>16.5</ele>
        <time>2020-06-17T09:51:18Z</time>
      </trkpt>
      <trkpt lat="49.28268" lon="-0.32491">
        <ele>16.6</ele>
        <time>2020-06-17T09:51:19Z</time>
      </trkpt>
      <trkpt lat="49.28266" lon="-0.32481">
        <ele>16.7</ele>
        <time>2020-06-17T09:51:20Z</time>
      </trkpt>
      <trkpt lat="49.28264" lon="-0.32471">
        <ele>16.7</ele>
        <time>2020-06-17T09:51:21Z</time>
      </trkpt>
      <trkpt lat="49.28261" lon="-0.32462">
        <ele>16.8</ele>
        <time>2020-06-17T09:51:22Z</time>
      </trkpt>
      <trkpt lat="49.28259" lon="-0.32453">
        <ele>16.9</ele>
        <time>2020-06-17T09:51:23Z</time>
      </trkpt>
      <trkpt lat="49.28257" lon="-0.32444">
        <ele>17</ele>
        <time>2020-06-17T09:51:24Z</time>
      </trkpt>
      <trkpt lat="49.28256" lon="-0.32435">
        <ele>17</ele>
        <time>2020-06-17T09:51:25Z</time>
      </trkpt>
      <trkpt lat="49.28253" lon="-0.32426">
        <ele>17.1</ele>
        <time>2020-06-17T09:51:26Z</time>
      </trkpt>
      <trkpt lat="49.28251" lon="-0.32415">
        <ele>17.2</ele>
        <time>2020-06-17T09:51:27Z</time>
      </trkpt>
      <trkpt lat="49.28249" lon="-0.32406">
        <ele>17.3</ele>
        <time>2020-06-17T09:51:28Z</time>
      </trkpt>
      <trkpt lat="49.28247" lon="-0.32398">
        <ele>17.4</ele>
        <time>2020-06-17T09:51:29Z</time>
      </trkpt>
      <trkpt lat="49.28245" lon="-0.3239">
        <ele>17.4</ele>
        <time>2020-06-17T09:51:30Z</time>
      </trkpt>
      <trkpt lat="49.28243" lon="-0.32382">
        <ele>17.5</ele>
        <time>2020-06-17T09:51:31Z</time>
      </trkpt>
      <trkpt lat="49.28241" lon="-0.32373">
        <ele>17.5</ele>
        <time>2020-06-17T09:51:32Z</time>
      </trkpt>
      <trkpt lat="49.28238" lon="-0.32364">
        <ele>17.5</ele>
        <time>2020-06-17T09:51:33Z</time>
      </trkpt>
      <trkpt lat="49.28235" lon="-0.32354">
        <ele>17.5</ele>
        <time>2020-06-17T09:51:34Z</time>
      </trkpt>
      <trkpt lat="49.28232" lon="-0.32342">
        <ele>17.6</ele>
        <time>2020-06-17T09:51:35Z</time>
      </trkpt>
      <trkpt lat="49.2823" lon="-0.32333">
        <ele>17.6</ele>
        <time>2020-06-17T09:51:36Z</time>
      </trkpt>
      <trkpt lat="49.28228" lon="-0.32324">
        <ele>17.6</ele>
        <time>2020-06-17T09:51:37Z</time>
      </trkpt>
      <trkpt lat="49.28226" lon="-0.32316">
        <ele>17.5</ele>
        <time>2020-06-17T09:51:38Z</time>
      </trkpt>
      <trkpt lat="49.28225" lon="-0.32307">
        <ele>17.5</ele>
        <time>2020-06-17T09:51:39Z</time>
      </trkpt>
      <trkpt lat="49.28223" lon="-0.32298">
        <ele>17.5</ele>
        <time>2020-06-17T09:51:40Z</time>
      </trkpt>
      <trkpt lat="49.28222" lon="-0.32289">
        <ele>17.5</ele>
        <time>2020-06-17T09:51:41Z</time>
      </trkpt>
      <trkpt lat="49.2822" lon="-0.3228">
        <ele>17.4</ele>
        <time>2020-06-17T09:51:42Z</time>
      </trkpt>
      <trkpt lat="49.28219" lon="-0.3227">
        <ele>17.4</ele>
        <time>2020-06-17T09:51:43Z</time>
      </trkpt>
      <trkpt lat="49.28217" lon="-0.32261">
        <ele>17.3</ele>
        <time>2020-06-17T09:51:44Z</time>
      </trkpt>
      <trkpt lat="49.28215" lon="-0.3225">
        <ele>17.1</ele>
        <time>2020-06-17T09:51:45Z</time>
      </trkpt>
      <trkpt lat="49.28213" lon="-0.32241">
        <ele>17</ele>
        <time>2020-06-17T09:51:46Z</time>
      </trkpt>
      <trkpt lat="49.28211" lon="-0.3223">
        <ele>17</ele>
        <time>2020-06-17T09:51:47Z</time>
      </trkpt>
      <trkpt lat="49.28208" lon="-0.3222">
        <ele>16.9</ele>
        <time>2020-06-17T09:51:48Z</time>
      </trkpt>
      <trkpt lat="49.28206" lon="-0.32209">
        <ele>16.8</ele>
        <time>2020-06-17T09:51:49Z</time>
      </trkpt>
      <trkpt lat="49.28204" lon="-0.32199">
        <ele>16.7</ele>
        <time>2020-06-17T09:51:50Z</time>
      </trkpt>
      <trkpt lat="49.28202" lon="-0.32189">
        <ele>16.6</ele>
        <time>2020-06-17T09:51:51Z</time>
      </trkpt>
      <trkpt lat="49.282" lon="-0.32178">
        <ele>16.4</ele>
        <time>2020-06-17T09:51:52Z</time>
      </trkpt>
      <trkpt lat="49.28197" lon="-0.32168">
        <ele>16.3</ele>
        <time>2020-06-17T09:51:53Z</time>
      </trkpt>
      <trkpt lat="49.28195" lon="-0.32158">
        <ele>16.1</ele>
        <time>2020-06-17T09:51:54Z</time>
      </trkpt>
      <trkpt lat="49.28193" lon="-0.32148">
        <ele>16</ele>
        <time>2020-06-17T09:51:55Z</time>
      </trkpt>
      <trkpt lat="49.2819" lon="-0.32137">
        <ele>15.8</ele>
        <time>2020-06-17T09:51:56Z</time>
      </trkpt>
      <trkpt lat="49.28187" lon="-0.32128">
        <ele>15.7</ele>
        <time>2020-06-17T09:51:57Z</time>
      </trkpt>
      <trkpt lat="49.28185" lon="-0.3212">
        <ele>15.6</ele>
        <time>2020-06-17T09:51:58Z</time>
      </trkpt>
      <trkpt lat="49.28182" lon="-0.32112">
        <ele>15.5</ele>
        <time>2020-06-17T09:51:59Z</time>
      </trkpt>
      <trkpt lat="49.2818" lon="-0.32104">
        <ele>15.5</ele>
        <time>2020-06-17T09:52:00Z</time>
      </trkpt>
      <trkpt lat="49.28178" lon="-0.32095">
        <ele>15.4</ele>
        <time>2020-06-17T09:52:01Z</time>
      </trkpt>
      <trkpt lat="49.28175" lon="-0.32086">
        <ele>15.3</ele>
        <time>2020-06-17T09:52:02Z</time>
      </trkpt>
      <trkpt lat="49.28172" lon="-0.32078">
        <ele>15.2</ele>
        <time>2020-06-17T09:52:03Z</time>
      </trkpt>
      <trkpt lat="49.28169" lon="-0.32069">
        <ele>15.1</ele>
        <time>2020-06-17T09:52:04Z</time>
      </trkpt>
      <trkpt lat="49.28166" lon="-0.32058">
        <ele>15</ele>
        <time>2020-06-17T09:52:05Z</time>
      </trkpt>
      <trkpt lat="49.28163" lon="-0.32047">
        <ele>14.9</ele>
        <time>2020-06-17T09:52:06Z</time>
      </trkpt>
      <trkpt lat="49.2816" lon="-0.32038">
        <ele>14.8</ele>
        <time>2020-06-17T09:52:07Z</time>
      </trkpt>
      <trkpt lat="49.28157" lon="-0.32028">
        <ele>14.8</ele>
        <time>2020-06-17T09:52:08Z</time>
      </trkpt>
      <trkpt lat="49.28154" lon="-0.32017">
        <ele>14.8</ele>
        <time>2020-06-17T09:52:09Z</time>
      </trkpt>
      <trkpt lat="49.28152" lon="-0.32006">
        <ele>14.8</ele>
        <time>2020-06-17T09:52:10Z</time>
      </trkpt>
      <trkpt lat="49.28149" lon="-0.31996">
        <ele>14.6</ele>
        <time>2020-06-17T09:52:11Z</time>
      </trkpt>
      <trkpt lat="49.28146" lon="-0.31987">
        <ele>14.5</ele>
        <time>2020-06-17T09:52:12Z</time>
      </trkpt>
      <trkpt lat="49.28143" lon="-0.31978">
        <ele>14.4</ele>
        <time>2020-06-17T09:52:13Z</time>
      </trkpt>
      <trkpt lat="49.2814" lon="-0.31969">
        <ele>14.3</ele>
        <time>2020-06-17T09:52:14Z</time>
      </trkpt>
      <trkpt lat="49.28137" lon="-0.3196">
        <ele>14.3</ele>
        <time>2020-06-17T09:52:15Z</time>
      </trkpt>
      <trkpt lat="49.28133" lon="-0.31948">
        <ele>14.2</ele>
        <time>2020-06-17T09:52:16Z</time>
      </trkpt>
      <trkpt lat="49.2813" lon="-0.31935">
        <ele>14.2</ele>
        <time>2020-06-17T09:52:17Z</time>
      </trkpt>
      <trkpt lat="49.28128" lon="-0.31925">
        <ele>14.1</ele>
        <time>2020-06-17T09:52:18Z</time>
      </trkpt>
      <trkpt lat="49.28125" lon="-0.31915">
        <ele>14.1</ele>
        <time>2020-06-17T09:52:19Z</time>
      </trkpt>
      <trkpt lat="49.28123" lon="-0.31904">
        <ele>14.1</ele>
        <time>2020-06-17T09:52:20Z</time>
      </trkpt>
      <trkpt lat="49.2812" lon="-0.31895">
        <ele>14.1</ele>
        <time>2020-06-17T09:52:21Z</time>
      </trkpt>
      <trkpt lat="49.28117" lon="-0.31885">
        <ele>14.1</ele>
        <time>2020-06-17T09:52:22Z</time>
      </trkpt>
      <trkpt lat="49.28114" lon="-0.31875">
        <ele>14.1</ele>
        <time>2020-06-17T09:52:23Z</time>
      </trkpt>
      <trkpt lat="49.28111" lon="-0.31866">
        <ele>14.1</ele>
        <time>2020-06-17T09:52:24Z</time>
      </trkpt>
      <trkpt lat="49.28108" lon="-0.31856">
        <ele>14.1</ele>
        <time>2020-06-17T09:52:25Z</time>
      </trkpt>
      <trkpt lat="49.28105" lon="-0.31846">
        <ele>14.1</ele>
        <time>2020-06-17T09:52:26Z</time>
      </trkpt>
      <trkpt lat="49.28102" lon="-0.31837">
        <ele>14.2</ele>
        <time>2020-06-17T09:52:27Z</time>
      </trkpt>
      <trkpt lat="49.281" lon="-0.31829">
        <ele>14.2</ele>
        <time>2020-06-17T09:52:28Z</time>
      </trkpt>
      <trkpt lat="49.28097" lon="-0.31821">
        <ele>14.2</ele>
        <time>2020-06-17T09:52:29Z</time>
      </trkpt>
      <trkpt lat="49.28095" lon="-0.31813">
        <ele>14.2</ele>
        <time>2020-06-17T09:52:30Z</time>
      </trkpt>
      <trkpt lat="49.28093" lon="-0.31808">
        <ele>14.2</ele>
        <time>2020-06-17T09:52:31Z</time>
      </trkpt>
      <trkpt lat="49.2809" lon="-0.31801">
        <ele>14.3</ele>
        <time>2020-06-17T09:52:32Z</time>
      </trkpt>
      <trkpt lat="49.28088" lon="-0.31795">
        <ele>14.3</ele>
        <time>2020-06-17T09:52:33Z</time>
      </trkpt>
      <trkpt lat="49.28087" lon="-0.3179">
        <ele>14.3</ele>
        <time>2020-06-17T09:52:34Z</time>
      </trkpt>
      <trkpt lat="49.28084" lon="-0.31783">
        <ele>14.3</ele>
        <time>2020-06-17T09:52:35Z</time>
      </trkpt>
      <trkpt lat="49.28082" lon="-0.31777">
        <ele>14.3</ele>
        <time>2020-06-17T09:52:36Z</time>
      </trkpt>
      <trkpt lat="49.28081" lon="-0.31771">
        <ele>14.3</ele>
        <time>2020-06-17T09:52:37Z</time>
      </trkpt>
      <trkpt lat="49.28081" lon="-0.31767">
        <ele>14.3</ele>
        <time>2020-06-17T09:52:38Z</time>
      </trkpt>
      <trkpt lat="49.28081" lon="-0.31762">
        <ele>14.2</ele>
        <time>2020-06-17T09:52:39Z</time>
      </trkpt>
      <trkpt lat="49.28081" lon="-0.31757">
        <ele>14.2</ele>
        <time>2020-06-17T09:52:40Z</time>
      </trkpt>
      <trkpt lat="49.28083" lon="-0.31752">
        <ele>14.2</ele>
        <time>2020-06-17T09:52:41Z</time>
      </trkpt>
      <trkpt lat="49.28085" lon="-0.31748">
        <ele>14.1</ele>
        <time>2020-06-17T09:52:42Z</time>
      </trkpt>
      <trkpt lat="49.28087" lon="-0.31744">
        <ele>14.1</ele>
        <time>2020-06-17T09:52:43Z</time>
      </trkpt>
      <trkpt lat="49.2809" lon="-0.31739">
        <ele>14.1</ele>
        <time>2020-06-17T09:52:44Z</time>
      </trkpt>
      <trkpt lat="49.28091" lon="-0.31733">
        <ele>14</ele>
        <time>2020-06-17T09:52:45Z</time>
      </trkpt>
      <trkpt lat="49.28091" lon="-0.31731">
        <ele>14</ele>
        <time>2020-06-17T09:52:46Z</time>
      </trkpt>
      <trkpt lat="49.2809" lon="-0.31727">
        <ele>14</ele>
        <time>2020-06-17T09:52:47Z</time>
      </trkpt>
      <trkpt lat="49.28087" lon="-0.31724">
        <ele>13.9</ele>
        <time>2020-06-17T09:52:48Z</time>
      </trkpt>
      <trkpt lat="49.28083" lon="-0.31721">
        <ele>13.9</ele>
        <time>2020-06-17T09:52:49Z</time>
      </trkpt>
      <trkpt lat="49.28081" lon="-0.31719">
        <ele>13.9</ele>
        <time>2020-06-17T09:52:50Z</time>
      </trkpt>
      <trkpt lat="49.28078" lon="-0.31713">
        <ele>13.9</ele>
        <time>2020-06-17T09:52:51Z</time>
      </trkpt>
      <trkpt lat="49.28076" lon="-0.31705">
        <ele>13.9</ele>
        <time>2020-06-17T09:52:52Z</time>
      </trkpt>
      <trkpt lat="49.28073" lon="-0.317">
        <ele>13.9</ele>
        <time>2020-06-17T09:52:53Z</time>
      </trkpt>
      <trkpt lat="49.2807" lon="-0.31694">
        <ele>13.9</ele>
        <time>2020-06-17T09:52:54Z</time>
      </trkpt>
      <trkpt lat="49.28068" lon="-0.31688">
        <ele>13.9</ele>
        <time>2020-06-17T09:52:55Z</time>
      </trkpt>
      <trkpt lat="49.28065" lon="-0.31681">
        <ele>13.9</ele>
        <time>2020-06-17T09:52:56Z</time>
      </trkpt>
      <trkpt lat="49.28062" lon="-0.31673">
        <ele>13.9</ele>
        <time>2020-06-17T09:52:57Z</time>
      </trkpt>
      <trkpt lat="49.28059" lon="-0.31667">
        <ele>13.9</ele>
        <time>2020-06-17T09:52:58Z</time>
      </trkpt>
      <trkpt lat="49.28057" lon="-0.3166">
        <ele>13.9</ele>
        <time>2020-06-17T09:52:59Z</time>
      </trkpt>
      <trkpt lat="49.28055" lon="-0.31652">
        <ele>13.9</ele>
        <time>2020-06-17T09:53:00Z</time>
      </trkpt>
      <trkpt lat="49.28054" lon="-0.31645">
        <ele>13.9</ele>
        <time>2020-06-17T09:53:01Z</time>
      </trkpt>
      <trkpt lat="49.28052" lon="-0.31638">
        <ele>14</ele>
        <time>2020-06-17T09:53:02Z</time>
      </trkpt>
      <trkpt lat="49.2805" lon="-0.31632">
        <ele>14</ele>
        <time>2020-06-17T09:53:03Z</time>
      </trkpt>
      <trkpt lat="49.28049" lon="-0.31626">
        <ele>14.1</ele>
        <time>2020-06-17T09:53:04Z</time>
      </trkpt>
      <trkpt lat="49.28047" lon="-0.31618">
        <ele>14.1</ele>
        <time>2020-06-17T09:53:05Z</time>
      </trkpt>
      <trkpt lat="49.28046" lon="-0.3161">
        <ele>14.2</ele>
        <time>2020-06-17T09:53:06Z</time>
      </trkpt>
      <trkpt lat="49.28044" lon="-0.31603">
        <ele>14.2</ele>
        <time>2020-06-17T09:53:07Z</time>
      </trkpt>
      <trkpt lat="49.28043" lon="-0.31596">
        <ele>14.3</ele>
        <time>2020-06-17T09:53:08Z</time>
      </trkpt>
      <trkpt lat="49.28041" lon="-0.31589">
        <ele>14.3</ele>
        <time>2020-06-17T09:53:09Z</time>
      </trkpt>
      <trkpt lat="49.28039" lon="-0.31581">
        <ele>14.4</ele>
        <time>2020-06-17T09:53:10Z</time>
      </trkpt>
      <trkpt lat="49.28036" lon="-0.31573">
        <ele>14.4</ele>
        <time>2020-06-17T09:53:11Z</time>
      </trkpt>
      <trkpt lat="49.28034" lon="-0.31564">
        <ele>14.5</ele>
        <time>2020-06-17T09:53:12Z</time>
      </trkpt>
      <trkpt lat="49.28032" lon="-0.31556">
        <ele>14.5</ele>
        <time>2020-06-17T09:53:13Z</time>
      </trkpt>
      <trkpt lat="49.2803" lon="-0.31548">
        <ele>14.5</ele>
        <time>2020-06-17T09:53:14Z</time>
      </trkpt>
      <trkpt lat="49.28029" lon="-0.3154">
        <ele>14.5</ele>
        <time>2020-06-17T09:53:15Z</time>
      </trkpt>
      <trkpt lat="49.28027" lon="-0.31532">
        <ele>14.5</ele>
        <time>2020-06-17T09:53:16Z</time>
      </trkpt>
      <trkpt lat="49.28025" lon="-0.31524">
        <ele>14.5</ele>
        <time>2020-06-17T09:53:17Z</time>
      </trkpt>
      <trkpt lat="49.28024" lon="-0.31516">
        <ele>14.5</ele>
        <time>2020-06-17T09:53:18Z</time>
      </trkpt>
      <trkpt lat="49.28022" lon="-0.31508">
        <ele>14.6</ele>
        <time>2020-06-17T09:53:19Z</time>
      </trkpt>
      <trkpt lat="49.2802" lon="-0.315">
        <ele>14.6</ele>
        <time>2020-06-17T09:53:20Z</time>
      </trkpt>
      <trkpt lat="49.28019" lon="-0.31492">
        <ele>14.7</ele>
        <time>2020-06-17T09:53:21Z</time>
      </trkpt>
      <trkpt lat="49.28017" lon="-0.31484">
        <ele>14.8</ele>
        <time>2020-06-17T09:53:22Z</time>
      </trkpt>
      <trkpt lat="49.28016" lon="-0.31476">
        <ele>14.8</ele>
        <time>2020-06-17T09:53:23Z</time>
      </trkpt>
      <trkpt lat="49.28014" lon="-0.31468">
        <ele>14.9</ele>
        <time>2020-06-17T09:53:24Z</time>
      </trkpt>
      <trkpt lat="49.28012" lon="-0.31461">
        <ele>14.9</ele>
        <time>2020-06-17T09:53:25Z</time>
      </trkpt>
      <trkpt lat="49.28011" lon="-0.31455">
        <ele>15</ele>
        <time>2020-06-17T09:53:26Z</time>
      </trkpt>
      <trkpt lat="49.28009" lon="-0.31448">
        <ele>15.1</ele>
        <time>2020-06-17T09:53:27Z</time>
      </trkpt>
      <trkpt lat="49.28007" lon="-0.31441">
        <ele>15.2</ele>
        <time>2020-06-17T09:53:28Z</time>
      </trkpt>
      <trkpt lat="49.28005" lon="-0.31434">
        <ele>15.3</ele>
        <time>2020-06-17T09:53:29Z</time>
      </trkpt>
      <trkpt lat="49.28003" lon="-0.31427">
        <ele>15.4</ele>
        <time>2020-06-17T09:53:30Z</time>
      </trkpt>
      <trkpt lat="49.28001" lon="-0.3142">
        <ele>15.4</ele>
        <time>2020-06-17T09:53:31Z</time>
      </trkpt>
      <trkpt lat="49.27999" lon="-0.31412">
        <ele>15.4</ele>
        <time>2020-06-17T09:53:32Z</time>
      </trkpt>
      <trkpt lat="49.27998" lon="-0.31405">
        <ele>15.4</ele>
        <time>2020-06-17T09:53:33Z</time>
      </trkpt>
      <trkpt lat="49.27996" lon="-0.31397">
        <ele>15.3</ele>
        <time>2020-06-17T09:53:34Z</time>
      </trkpt>
      <trkpt lat="49.27994" lon="-0.31389">
        <ele>15.3</ele>
        <time>2020-06-17T09:53:35Z</time>
      </trkpt>
      <trkpt lat="49.27992" lon="-0.31382">
        <ele>15.3</ele>
        <time>2020-06-17T09:53:36Z</time>
      </trkpt>
      <trkpt lat="49.27989" lon="-0.31375">
        <ele>15.3</ele>
        <time>2020-06-17T09:53:37Z</time>
      </trkpt>
      <trkpt lat="49.27986" lon="-0.31369">
        <ele>15.4</ele>
        <time>2020-06-17T09:53:38Z</time>
      </trkpt>
      <trkpt lat="49.27983" lon="-0.31362">
        <ele>15.4</ele>
        <time>2020-06-17T09:53:39Z</time>
      </trkpt>
      <trkpt lat="49.27981" lon="-0.31356">
        <ele>15.4</ele>
        <time>2020-06-17T09:53:40Z</time>
      </trkpt>
      <trkpt lat="49.2798" lon="-0.31351">
        <ele>15.4</ele>
        <time>2020-06-17T09:53:41Z</time>
      </trkpt>
      <trkpt lat="49.27977" lon="-0.31344">
        <ele>15.5</ele>
        <time>2020-06-17T09:53:42Z</time>
      </trkpt>
      <trkpt lat="49.27975" lon="-0.31336">
        <ele>15.5</ele>
        <time>2020-06-17T09:53:43Z</time>
      </trkpt>
      <trkpt lat="49.27973" lon="-0.31328">
        <ele>15.6</ele>
        <time>2020-06-17T09:53:44Z</time>
      </trkpt>
      <trkpt lat="49.2797" lon="-0.31318">
        <ele>15.7</ele>
        <time>2020-06-17T09:53:45Z</time>
      </trkpt>
      <trkpt lat="49.27968" lon="-0.31309">
        <ele>15.7</ele>
        <time>2020-06-17T09:53:46Z</time>
      </trkpt>
      <trkpt lat="49.27966" lon="-0.313">
        <ele>15.7</ele>
        <time>2020-06-17T09:53:47Z</time>
      </trkpt>
      <trkpt lat="49.27964" lon="-0.31291">
        <ele>15.8</ele>
        <time>2020-06-17T09:53:48Z</time>
      </trkpt>
      <trkpt lat="49.27962" lon="-0.31281">
        <ele>15.8</ele>
        <time>2020-06-17T09:53:49Z</time>
      </trkpt>
      <trkpt lat="49.27959" lon="-0.31271">
        <ele>15.8</ele>
        <time>2020-06-17T09:53:50Z</time>
      </trkpt>
      <trkpt lat="49.27957" lon="-0.3126">
        <ele>15.9</ele>
        <time>2020-06-17T09:53:51Z</time>
      </trkpt>
      <trkpt lat="49.27954" lon="-0.3125">
        <ele>15.9</ele>
        <time>2020-06-17T09:53:52Z</time>
      </trkpt>
      <trkpt lat="49.27951" lon="-0.31241">
        <ele>16</ele>
        <time>2020-06-17T09:53:53Z</time>
      </trkpt>
      <trkpt lat="49.27948" lon="-0.31232">
        <ele>16</ele>
        <time>2020-06-17T09:53:54Z</time>
      </trkpt>
      <trkpt lat="49.27946" lon="-0.31223">
        <ele>15.9</ele>
        <time>2020-06-17T09:53:55Z</time>
      </trkpt>
      <trkpt lat="49.27944" lon="-0.31215">
        <ele>15.9</ele>
        <time>2020-06-17T09:53:56Z</time>
      </trkpt>
      <trkpt lat="49.27942" lon="-0.31206">
        <ele>15.9</ele>
        <time>2020-06-17T09:53:57Z</time>
      </trkpt>
      <trkpt lat="49.2794" lon="-0.31197">
        <ele>15.8</ele>
        <time>2020-06-17T09:53:58Z</time>
      </trkpt>
      <trkpt lat="49.27937" lon="-0.31188">
        <ele>15.8</ele>
        <time>2020-06-17T09:53:59Z</time>
      </trkpt>
      <trkpt lat="49.27934" lon="-0.31181">
        <ele>15.8</ele>
        <time>2020-06-17T09:54:00Z</time>
      </trkpt>
      <trkpt lat="49.27932" lon="-0.31173">
        <ele>15.7</ele>
        <time>2020-06-17T09:54:01Z</time>
      </trkpt>
      <trkpt lat="49.27929" lon="-0.31164">
        <ele>15.7</ele>
        <time>2020-06-17T09:54:02Z</time>
      </trkpt>
      <trkpt lat="49.27927" lon="-0.31155">
        <ele>15.7</ele>
        <time>2020-06-17T09:54:03Z</time>
      </trkpt>
      <trkpt lat="49.27925" lon="-0.31147">
        <ele>15.6</ele>
        <time>2020-06-17T09:54:04Z</time>
      </trkpt>
      <trkpt lat="49.27922" lon="-0.31138">
        <ele>15.6</ele>
        <time>2020-06-17T09:54:05Z</time>
      </trkpt>
      <trkpt lat="49.2792" lon="-0.3113">
        <ele>15.6</ele>
        <time>2020-06-17T09:54:06Z</time>
      </trkpt>
      <trkpt lat="49.27918" lon="-0.31122">
        <ele>15.6</ele>
        <time>2020-06-17T09:54:07Z</time>
      </trkpt>
      <trkpt lat="49.27916" lon="-0.31114">
        <ele>15.5</ele>
        <time>2020-06-17T09:54:08Z</time>
      </trkpt>
      <trkpt lat="49.27913" lon="-0.31105">
        <ele>15.5</ele>
        <time>2020-06-17T09:54:09Z</time>
      </trkpt>
      <trkpt lat="49.27911" lon="-0.31097">
        <ele>15.5</ele>
        <time>2020-06-17T09:54:10Z</time>
      </trkpt>
      <trkpt lat="49.27909" lon="-0.31089">
        <ele>15.4</ele>
        <time>2020-06-17T09:54:11Z</time>
      </trkpt>
      <trkpt lat="49.27906" lon="-0.3108">
        <ele>15.3</ele>
        <time>2020-06-17T09:54:12Z</time>
      </trkpt>
      <trkpt lat="49.27903" lon="-0.31071">
        <ele>15.3</ele>
        <time>2020-06-17T09:54:13Z</time>
      </trkpt>
      <trkpt lat="49.279" lon="-0.31061">
        <ele>15.2</ele>
        <time>2020-06-17T09:54:14Z</time>
      </trkpt>
      <trkpt lat="49.27897" lon="-0.31053">
        <ele>15.1</ele>
        <time>2020-06-17T09:54:15Z</time>
      </trkpt>
      <trkpt lat="49.27894" lon="-0.31043">
        <ele>15</ele>
        <time>2020-06-17T09:54:16Z</time>
      </trkpt>
      <trkpt lat="49.2789" lon="-0.31033">
        <ele>14.9</ele>
        <time>2020-06-17T09:54:17Z</time>
      </trkpt>
      <trkpt lat="49.27887" lon="-0.31025">
        <ele>14.9</ele>
        <time>2020-06-17T09:54:18Z</time>
      </trkpt>
      <trkpt lat="49.27884" lon="-0.31015">
        <ele>14.9</ele>
        <time>2020-06-17T09:54:19Z</time>
      </trkpt>
      <trkpt lat="49.27882" lon="-0.31006">
        <ele>14.9</ele>
        <time>2020-06-17T09:54:20Z</time>
      </trkpt>
      <trkpt lat="49.2788" lon="-0.30996">
        <ele>15</ele>
        <time>2020-06-17T09:54:21Z</time>
      </trkpt>
      <trkpt lat="49.27878" lon="-0.30986">
        <ele>14.9</ele>
        <time>2020-06-17T09:54:22Z</time>
      </trkpt>
      <trkpt lat="49.27875" lon="-0.30975">
        <ele>14.9</ele>
        <time>2020-06-17T09:54:23Z</time>
      </trkpt>
      <trkpt lat="49.27873" lon="-0.30966">
        <ele>14.8</ele>
        <time>2020-06-17T09:54:24Z</time>
      </trkpt>
      <trkpt lat="49.2787" lon="-0.30956">
        <ele>14.7</ele>
        <time>2020-06-17T09:54:25Z</time>
      </trkpt>
      <trkpt lat="49.27868" lon="-0.30947">
        <ele>14.7</ele>
        <time>2020-06-17T09:54:26Z</time>
      </trkpt>
      <trkpt lat="49.27865" lon="-0.30938">
        <ele>14.6</ele>
        <time>2020-06-17T09:54:27Z</time>
      </trkpt>
      <trkpt lat="49.27863" lon="-0.30928">
        <ele>14.6</ele>
        <time>2020-06-17T09:54:28Z</time>
      </trkpt>
      <trkpt lat="49.27861" lon="-0.30919">
        <ele>14.5</ele>
        <time>2020-06-17T09:54:29Z</time>
      </trkpt>
      <trkpt lat="49.27858" lon="-0.30911">
        <ele>14.5</ele>
        <time>2020-06-17T09:54:30Z</time>
      </trkpt>
      <trkpt lat="49.27856" lon="-0.30904">
        <ele>14.5</ele>
        <time>2020-06-17T09:54:31Z</time>
      </trkpt>
      <trkpt lat="49.27853" lon="-0.30896">
        <ele>14.5</ele>
        <time>2020-06-17T09:54:32Z</time>
      </trkpt>
      <trkpt lat="49.27851" lon="-0.30888">
        <ele>14.5</ele>
        <time>2020-06-17T09:54:33Z</time>
      </trkpt>
      <trkpt lat="49.27849" lon="-0.30879">
        <ele>14.4</ele>
        <time>2020-06-17T09:54:34Z</time>
      </trkpt>
      <trkpt lat="49.27847" lon="-0.30871">
        <ele>14.4</ele>
        <time>2020-06-17T09:54:35Z</time>
      </trkpt>
      <trkpt lat="49.27844" lon="-0.30862">
        <ele>14.5</ele>
        <time>2020-06-17T09:54:36Z</time>
      </trkpt>
      <trkpt lat="49.27842" lon="-0.30854">
        <ele>14.5</ele>
        <time>2020-06-17T09:54:37Z</time>
      </trkpt>
      <trkpt lat="49.27839" lon="-0.30847">
        <ele>14.5</ele>
        <time>2020-06-17T09:54:38Z</time>
      </trkpt>
      <trkpt lat="49.27838" lon="-0.30839">
        <ele>14.6</ele>
        <time>2020-06-17T09:54:39Z</time>
      </trkpt>
      <trkpt lat="49.27835" lon="-0.30833">
        <ele>14.7</ele>
        <time>2020-06-17T09:54:40Z</time>
      </trkpt>
      <trkpt lat="49.27833" lon="-0.30824">
        <ele>14.8</ele>
        <time>2020-06-17T09:54:41Z</time>
      </trkpt>
      <trkpt lat="49.2783" lon="-0.30816">
        <ele>14.8</ele>
        <time>2020-06-17T09:54:42Z</time>
      </trkpt>
      <trkpt lat="49.27829" lon="-0.30809">
        <ele>14.8</ele>
        <time>2020-06-17T09:54:43Z</time>
      </trkpt>
      <trkpt lat="49.27827" lon="-0.30803">
        <ele>14.8</ele>
        <time>2020-06-17T09:54:44Z</time>
      </trkpt>
      <trkpt lat="49.27825" lon="-0.30795">
        <ele>14.9</ele>
        <time>2020-06-17T09:54:45Z</time>
      </trkpt>
      <trkpt lat="49.27824" lon="-0.30789">
        <ele>14.9</ele>
        <time>2020-06-17T09:54:46Z</time>
      </trkpt>
      <trkpt lat="49.27822" lon="-0.30782">
        <ele>14.9</ele>
        <time>2020-06-17T09:54:47Z</time>
      </trkpt>
      <trkpt lat="49.2782" lon="-0.30775">
        <ele>15</ele>
        <time>2020-06-17T09:54:48Z</time>
      </trkpt>
      <trkpt lat="49.27818" lon="-0.30767">
        <ele>15</ele>
        <time>2020-06-17T09:54:49Z</time>
      </trkpt>
      <trkpt lat="49.27816" lon="-0.30759">
        <ele>15</ele>
        <time>2020-06-17T09:54:50Z</time>
      </trkpt>
      <trkpt lat="49.27814" lon="-0.30752">
        <ele>15</ele>
        <time>2020-06-17T09:54:51Z</time>
      </trkpt>
      <trkpt lat="49.27812" lon="-0.30744">
        <ele>15</ele>
        <time>2020-06-17T09:54:52Z</time>
      </trkpt>
      <trkpt lat="49.27809" lon="-0.30735">
        <ele>15</ele>
        <time>2020-06-17T09:54:53Z</time>
      </trkpt>
      <trkpt lat="49.27807" lon="-0.30726">
        <ele>15</ele>
        <time>2020-06-17T09:54:54Z</time>
      </trkpt>
      <trkpt lat="49.27805" lon="-0.30718">
        <ele>14.9</ele>
        <time>2020-06-17T09:54:55Z</time>
      </trkpt>
      <trkpt lat="49.27804" lon="-0.3071">
        <ele>14.9</ele>
        <time>2020-06-17T09:54:56Z</time>
      </trkpt>
      <trkpt lat="49.27802" lon="-0.30702">
        <ele>14.9</ele>
        <time>2020-06-17T09:54:57Z</time>
      </trkpt>
      <trkpt lat="49.278" lon="-0.30693">
        <ele>14.9</ele>
        <time>2020-06-17T09:54:58Z</time>
      </trkpt>
      <trkpt lat="49.27799" lon="-0.30685">
        <ele>14.8</ele>
        <time>2020-06-17T09:54:59Z</time>
      </trkpt>
      <trkpt lat="49.27798" lon="-0.30677">
        <ele>14.8</ele>
        <time>2020-06-17T09:55:00Z</time>
      </trkpt>
      <trkpt lat="49.27796" lon="-0.3067">
        <ele>14.8</ele>
        <time>2020-06-17T09:55:01Z</time>
      </trkpt>
      <trkpt lat="49.27794" lon="-0.30662">
        <ele>14.8</ele>
        <time>2020-06-17T09:55:02Z</time>
      </trkpt>
      <trkpt lat="49.27793" lon="-0.30655">
        <ele>14.8</ele>
        <time>2020-06-17T09:55:03Z</time>
      </trkpt>
      <trkpt lat="49.27792" lon="-0.30648">
        <ele>14.8</ele>
        <time>2020-06-17T09:55:04Z</time>
      </trkpt>
      <trkpt lat="49.27791" lon="-0.30642">
        <ele>14.8</ele>
        <time>2020-06-17T09:55:05Z</time>
      </trkpt>
      <trkpt lat="49.27789" lon="-0.30635">
        <ele>14.8</ele>
        <time>2020-06-17T09:55:06Z</time>
      </trkpt>
      <trkpt lat="49.27788" lon="-0.30629">
        <ele>14.7</ele>
        <time>2020-06-17T09:55:07Z</time>
      </trkpt>
      <trkpt lat="49.27786" lon="-0.30622">
        <ele>14.7</ele>
        <time>2020-06-17T09:55:08Z</time>
      </trkpt>
      <trkpt lat="49.27785" lon="-0.30616">
        <ele>14.6</ele>
        <time>2020-06-17T09:55:09Z</time>
      </trkpt>
      <trkpt lat="49.27784" lon="-0.30609">
        <ele>14.6</ele>
        <time>2020-06-17T09:55:10Z</time>
      </trkpt>
      <trkpt lat="49.27783" lon="-0.30601">
        <ele>14.5</ele>
        <time>2020-06-17T09:55:11Z</time>
      </trkpt>
      <trkpt lat="49.27782" lon="-0.30593">
        <ele>14.5</ele>
        <time>2020-06-17T09:55:12Z</time>
      </trkpt>
      <trkpt lat="49.27781" lon="-0.30586">
        <ele>14.4</ele>
        <time>2020-06-17T09:55:13Z</time>
      </trkpt>
      <trkpt lat="49.27779" lon="-0.30578">
        <ele>14.3</ele>
        <time>2020-06-17T09:55:14Z</time>
      </trkpt>
      <trkpt lat="49.27778" lon="-0.30571">
        <ele>14.3</ele>
        <time>2020-06-17T09:55:15Z</time>
      </trkpt>
      <trkpt lat="49.27776" lon="-0.30563">
        <ele>14.2</ele>
        <time>2020-06-17T09:55:16Z</time>
      </trkpt>
      <trkpt lat="49.27774" lon="-0.30557">
        <ele>14.2</ele>
        <time>2020-06-17T09:55:17Z</time>
      </trkpt>
      <trkpt lat="49.27772" lon="-0.30551">
        <ele>14.2</ele>
        <time>2020-06-17T09:55:18Z</time>
      </trkpt>
      <trkpt lat="49.2777" lon="-0.30546">
        <ele>14.1</ele>
        <time>2020-06-17T09:55:19Z</time>
      </trkpt>
      <trkpt lat="49.27769" lon="-0.3054">
        <ele>14.1</ele>
        <time>2020-06-17T09:55:20Z</time>
      </trkpt>
      <trkpt lat="49.27767" lon="-0.30534">
        <ele>14.2</ele>
        <time>2020-06-17T09:55:21Z</time>
      </trkpt>
      <trkpt lat="49.27765" lon="-0.30528">
        <ele>14.2</ele>
        <time>2020-06-17T09:55:22Z</time>
      </trkpt>
      <trkpt lat="49.27764" lon="-0.30522">
        <ele>14.2</ele>
        <time>2020-06-17T09:55:23Z</time>
      </trkpt>
      <trkpt lat="49.27762" lon="-0.30516">
        <ele>14.2</ele>
        <time>2020-06-17T09:55:24Z</time>
      </trkpt>
      <trkpt lat="49.27761" lon="-0.3051">
        <ele>14.2</ele>
        <time>2020-06-17T09:55:25Z</time>
      </trkpt>
      <trkpt lat="49.27759" lon="-0.30504">
        <ele>14.2</ele>
        <time>2020-06-17T09:55:26Z</time>
      </trkpt>
      <trkpt lat="49.27758" lon="-0.30498">
        <ele>14.2</ele>
        <time>2020-06-17T09:55:27Z</time>
      </trkpt>
      <trkpt lat="49.27756" lon="-0.30493">
        <ele>14.1</ele>
        <time>2020-06-17T09:55:28Z</time>
      </trkpt>
      <trkpt lat="49.27755" lon="-0.30488">
        <ele>14.1</ele>
        <time>2020-06-17T09:55:29Z</time>
      </trkpt>
      <trkpt lat="49.27754" lon="-0.30484">
        <ele>14.1</ele>
        <time>2020-06-17T09:55:30Z</time>
      </trkpt>
      <trkpt lat="49.27752" lon="-0.30479">
        <ele>14.1</ele>
        <time>2020-06-17T09:55:31Z</time>
      </trkpt>
      <trkpt lat="49.27751" lon="-0.30475">
        <ele>14.1</ele>
        <time>2020-06-17T09:55:32Z</time>
      </trkpt>
      <trkpt lat="49.2775" lon="-0.30474">
        <ele>14.1</ele>
        <time>2020-06-17T09:55:33Z</time>
      </trkpt>
      <trkpt lat="49.2775" lon="-0.30474">
        <ele>14.1</ele>
        <time>2020-06-17T09:55:34Z</time>
      </trkpt>
      <trkpt lat="49.2775" lon="-0.30473">
        <ele>14.1</ele>
        <time>2020-06-17T09:55:35Z</time>
      </trkpt>
      <trkpt lat="49.2775" lon="-0.30474">
        <ele>14.1</ele>
        <time>2020-06-17T09:55:36Z</time>
      </trkpt>
      <trkpt lat="49.2775" lon="-0.30475">
        <ele>14.1</ele>
        <time>2020-06-17T09:55:37Z</time>
      </trkpt>
      <trkpt lat="49.2775" lon="-0.30476">
        <ele>14.1</ele>
        <time>2020-06-17T09:55:38Z</time>
      </trkpt>
      <trkpt lat="49.2775" lon="-0.30477">
        <ele>14.1</ele>
        <time>2020-06-17T09:55:39Z</time>
      </trkpt>
      <trkpt lat="49.2775" lon="-0.30477">
        <ele>14.1</ele>
        <time>2020-06-17T09:55:40Z</time>
      </trkpt>
      <trkpt lat="49.2775" lon="-0.30477">
        <ele>14.1</ele>
        <time>2020-06-17T09:55:41Z</time>
      </trkpt>
      <trkpt lat="49.2775" lon="-0.30477">
        <ele>14.1</ele>
        <time>2020-06-17T09:55:42Z</time>
      </trkpt>
      <trkpt lat="49.2775" lon="-0.30478">
        <ele>14.1</ele>
        <time>2020-06-17T09:55:43Z</time>
      </trkpt>
      <trkpt lat="49.2775" lon="-0.30478">
        <ele>14.1</ele>
        <time>2020-06-17T09:55:44Z</time>
      </trkpt>
      <trkpt lat="49.2775" lon="-0.30478">
        <ele>14.1</ele>
        <time>2020-06-17T09:55:45Z</time>
      </trkpt>
      <trkpt lat="49.2775" lon="-0.30476">
        <ele>14.1</ele>
        <time>2020-06-17T09:55:46Z</time>
      </trkpt>
      <trkpt lat="49.27751" lon="-0.30474">
        <ele>14.1</ele>
        <time>2020-06-17T09:55:47Z</time>
      </trkpt>
      <trkpt lat="49.27751" lon="-0.30472">
        <ele>14</ele>
        <time>2020-06-17T09:55:48Z</time>
      </trkpt>
      <trkpt lat="49.27751" lon="-0.30471">
        <ele>14</ele>
        <time>2020-06-17T09:55:49Z</time>
      </trkpt>
      <trkpt lat="49.27751" lon="-0.30469">
        <ele>14</ele>
        <time>2020-06-17T09:57:42Z</time>
      </trkpt>
      <trkpt lat="49.27751" lon="-0.30467">
        <ele>14</ele>
        <time>2020-06-17T09:57:43Z</time>
      </trkpt>
      <trkpt lat="49.27751" lon="-0.30465">
        <ele>14</ele>
        <time>2020-06-17T09:57:44Z</time>
      </trkpt>
      <trkpt lat="49.27751" lon="-0.30463">
        <ele>14</ele>
        <time>2020-06-17T09:57:45Z</time>
      </trkpt>
      <trkpt lat="49.27751" lon="-0.30461">
        <ele>14</ele>
        <time>2020-06-17T09:57:46Z</time>
      </trkpt>
      <trkpt lat="49.2775" lon="-0.30458">
        <ele>14</ele>
        <time>2020-06-17T09:57:47Z</time>
      </trkpt>
      <trkpt lat="49.27749" lon="-0.30454">
        <ele>14</ele>
        <time>2020-06-17T09:57:48Z</time>
      </trkpt>
      <trkpt lat="49.27748" lon="-0.3045">
        <ele>14</ele>
        <time>2020-06-17T09:57:49Z</time>
      </trkpt>
      <trkpt lat="49.27746" lon="-0.30444">
        <ele>13.9</ele>
        <time>2020-06-17T09:57:50Z</time>
      </trkpt>
      <trkpt lat="49.27745" lon="-0.30439">
        <ele>13.9</ele>
        <time>2020-06-17T09:57:51Z</time>
      </trkpt>
      <trkpt lat="49.27744" lon="-0.30433">
        <ele>13.9</ele>
        <time>2020-06-17T09:57:52Z</time>
      </trkpt>
      <trkpt lat="49.27743" lon="-0.30427">
        <ele>13.9</ele>
        <time>2020-06-17T09:57:53Z</time>
      </trkpt>
      <trkpt lat="49.27742" lon="-0.30421">
        <ele>13.8</ele>
        <time>2020-06-17T09:57:54Z</time>
      </trkpt>
      <trkpt lat="49.27741" lon="-0.30415">
        <ele>13.8</ele>
        <time>2020-06-17T09:57:55Z</time>
      </trkpt>
      <trkpt lat="49.27741" lon="-0.30408">
        <ele>13.8</ele>
        <time>2020-06-17T09:57:56Z</time>
      </trkpt>
      <trkpt lat="49.2774" lon="-0.30402">
        <ele>13.8</ele>
        <time>2020-06-17T09:57:57Z</time>
      </trkpt>
      <trkpt lat="49.27738" lon="-0.30395">
        <ele>13.7</ele>
        <time>2020-06-17T09:57:58Z</time>
      </trkpt>
      <trkpt lat="49.27735" lon="-0.30389">
        <ele>13.7</ele>
        <time>2020-06-17T09:57:59Z</time>
      </trkpt>
      <trkpt lat="49.27731" lon="-0.30383">
        <ele>13.7</ele>
        <time>2020-06-17T09:58:00Z</time>
      </trkpt>
      <trkpt lat="49.27726" lon="-0.30378">
        <ele>13.7</ele>
        <time>2020-06-17T09:58:01Z</time>
      </trkpt>
      <trkpt lat="49.27722" lon="-0.30374">
        <ele>13.7</ele>
        <time>2020-06-17T09:58:02Z</time>
      </trkpt>
      <trkpt lat="49.27718" lon="-0.30369">
        <ele>13.7</ele>
        <time>2020-06-17T09:58:03Z</time>
      </trkpt>
      <trkpt lat="49.27713" lon="-0.30364">
        <ele>13.7</ele>
        <time>2020-06-17T09:58:04Z</time>
      </trkpt>
      <trkpt lat="49.27709" lon="-0.3036">
        <ele>13.8</ele>
        <time>2020-06-17T09:58:05Z</time>
      </trkpt>
      <trkpt lat="49.27704" lon="-0.30356">
        <ele>13.8</ele>
        <time>2020-06-17T09:58:06Z</time>
      </trkpt>
      <trkpt lat="49.27699" lon="-0.30352">
        <ele>13.8</ele>
        <time>2020-06-17T09:58:07Z</time>
      </trkpt>
      <trkpt lat="49.27695" lon="-0.30348">
        <ele>13.9</ele>
        <time>2020-06-17T09:58:08Z</time>
      </trkpt>
      <trkpt lat="49.27689" lon="-0.30343">
        <ele>13.9</ele>
        <time>2020-06-17T09:58:09Z</time>
      </trkpt>
      <trkpt lat="49.27684" lon="-0.30338">
        <ele>14</ele>
        <time>2020-06-17T09:58:10Z</time>
      </trkpt>
      <trkpt lat="49.27679" lon="-0.30334">
        <ele>14</ele>
        <time>2020-06-17T09:58:11Z</time>
      </trkpt>
      <trkpt lat="49.27674" lon="-0.3033">
        <ele>14</ele>
        <time>2020-06-17T09:58:12Z</time>
      </trkpt>
      <trkpt lat="49.27668" lon="-0.30326">
        <ele>14.1</ele>
        <time>2020-06-17T09:58:13Z</time>
      </trkpt>
      <trkpt lat="49.27662" lon="-0.30321">
        <ele>14.1</ele>
        <time>2020-06-17T09:58:14Z</time>
      </trkpt>
      <trkpt lat="49.27657" lon="-0.30317">
        <ele>14.2</ele>
        <time>2020-06-17T09:58:15Z</time>
      </trkpt>
      <trkpt lat="49.27651" lon="-0.30313">
        <ele>14.2</ele>
        <time>2020-06-17T09:58:16Z</time>
      </trkpt>
      <trkpt lat="49.27646" lon="-0.30309">
        <ele>14.3</ele>
        <time>2020-06-17T09:58:17Z</time>
      </trkpt>
      <trkpt lat="49.2764" lon="-0.30305">
        <ele>14.4</ele>
        <time>2020-06-17T09:58:18Z</time>
      </trkpt>
      <trkpt lat="49.27635" lon="-0.30301">
        <ele>14.5</ele>
        <time>2020-06-17T09:58:19Z</time>
      </trkpt>
      <trkpt lat="49.27631" lon="-0.30298">
        <ele>14.5</ele>
        <time>2020-06-17T09:58:20Z</time>
      </trkpt>
      <trkpt lat="49.27626" lon="-0.30295">
        <ele>14.6</ele>
        <time>2020-06-17T09:58:21Z</time>
      </trkpt>
      <trkpt lat="49.27622" lon="-0.30291">
        <ele>14.6</ele>
        <time>2020-06-17T09:58:22Z</time>
      </trkpt>
      <trkpt lat="49.27618" lon="-0.30288">
        <ele>14.6</ele>
        <time>2020-06-17T09:58:23Z</time>
      </trkpt>
      <trkpt lat="49.27613" lon="-0.30285">
        <ele>14.7</ele>
        <time>2020-06-17T09:58:24Z</time>
      </trkpt>
      <trkpt lat="49.27608" lon="-0.30282">
        <ele>14.7</ele>
        <time>2020-06-17T09:58:25Z</time>
      </trkpt>
      <trkpt lat="49.27604" lon="-0.30279">
        <ele>14.7</ele>
        <time>2020-06-17T09:58:26Z</time>
      </trkpt>
      <trkpt lat="49.27599" lon="-0.30276">
        <ele>14.7</ele>
        <time>2020-06-17T09:58:27Z</time>
      </trkpt>
      <trkpt lat="49.27594" lon="-0.30271">
        <ele>14.7</ele>
        <time>2020-06-17T09:58:28Z</time>
      </trkpt>
      <trkpt lat="49.27589" lon="-0.30267">
        <ele>14.8</ele>
        <time>2020-06-17T09:58:29Z</time>
      </trkpt>
      <trkpt lat="49.27584" lon="-0.30263">
        <ele>14.8</ele>
        <time>2020-06-17T09:58:30Z</time>
      </trkpt>
      <trkpt lat="49.27579" lon="-0.3026">
        <ele>14.9</ele>
        <time>2020-06-17T09:58:31Z</time>
      </trkpt>
      <trkpt lat="49.27574" lon="-0.30256">
        <ele>15</ele>
        <time>2020-06-17T09:58:32Z</time>
      </trkpt>
      <trkpt lat="49.27569" lon="-0.30252">
        <ele>15</ele>
        <time>2020-06-17T09:58:33Z</time>
      </trkpt>
      <trkpt lat="49.27564" lon="-0.30249">
        <ele>15.1</ele>
        <time>2020-06-17T09:58:34Z</time>
      </trkpt>
      <trkpt lat="49.27559" lon="-0.30245">
        <ele>15.1</ele>
        <time>2020-06-17T09:58:35Z</time>
      </trkpt>
      <trkpt lat="49.27554" lon="-0.30241">
        <ele>15.1</ele>
        <time>2020-06-17T09:58:36Z</time>
      </trkpt>
      <trkpt lat="49.27549" lon="-0.30238">
        <ele>15.1</ele>
        <time>2020-06-17T09:58:37Z</time>
      </trkpt>
      <trkpt lat="49.27544" lon="-0.30234">
        <ele>15.1</ele>
        <time>2020-06-17T09:58:38Z</time>
      </trkpt>
      <trkpt lat="49.27539" lon="-0.3023">
        <ele>15.2</ele>
        <time>2020-06-17T09:58:39Z</time>
      </trkpt>
      <trkpt lat="49.27535" lon="-0.30226">
        <ele>15.2</ele>
        <time>2020-06-17T09:58:40Z</time>
      </trkpt>
      <trkpt lat="49.2753" lon="-0.30223">
        <ele>15.2</ele>
        <time>2020-06-17T09:58:41Z</time>
      </trkpt>
      <trkpt lat="49.27526" lon="-0.3022">
        <ele>15.2</ele>
        <time>2020-06-17T09:58:42Z</time>
      </trkpt>
      <trkpt lat="49.27521" lon="-0.30216">
        <ele>15.3</ele>
        <time>2020-06-17T09:58:43Z</time>
      </trkpt>
      <trkpt lat="49.27517" lon="-0.30213">
        <ele>15.3</ele>
        <time>2020-06-17T09:58:44Z</time>
      </trkpt>
      <trkpt lat="49.27512" lon="-0.30211">
        <ele>15.3</ele>
        <time>2020-06-17T09:58:45Z</time>
      </trkpt>
      <trkpt lat="49.27507" lon="-0.30207">
        <ele>15.3</ele>
        <time>2020-06-17T09:58:46Z</time>
      </trkpt>
      <trkpt lat="49.27503" lon="-0.30205">
        <ele>15.3</ele>
        <time>2020-06-17T09:58:47Z</time>
      </trkpt>
      <trkpt lat="49.27498" lon="-0.30202">
        <ele>15.4</ele>
        <time>2020-06-17T09:58:48Z</time>
      </trkpt>
      <trkpt lat="49.27493" lon="-0.30201">
        <ele>15.4</ele>
        <time>2020-06-17T09:58:49Z</time>
      </trkpt>
      <trkpt lat="49.27488" lon="-0.30199">
        <ele>15.4</ele>
        <time>2020-06-17T09:58:50Z</time>
      </trkpt>
      <trkpt lat="49.27483" lon="-0.30196">
        <ele>15.5</ele>
        <time>2020-06-17T09:58:51Z</time>
      </trkpt>
      <trkpt lat="49.27478" lon="-0.30194">
        <ele>15.5</ele>
        <time>2020-06-17T09:58:52Z</time>
      </trkpt>
      <trkpt lat="49.27472" lon="-0.30192">
        <ele>15.5</ele>
        <time>2020-06-17T09:58:53Z</time>
      </trkpt>
      <trkpt lat="49.27467" lon="-0.3019">
        <ele>15.6</ele>
        <time>2020-06-17T09:58:54Z</time>
      </trkpt>
      <trkpt lat="49.27462" lon="-0.30188">
        <ele>15.6</ele>
        <time>2020-06-17T09:58:55Z</time>
      </trkpt>
      <trkpt lat="49.27456" lon="-0.30187">
        <ele>15.7</ele>
        <time>2020-06-17T09:58:56Z</time>
      </trkpt>
      <trkpt lat="49.27451" lon="-0.30186">
        <ele>15.7</ele>
        <time>2020-06-17T09:58:57Z</time>
      </trkpt>
      <trkpt lat="49.27445" lon="-0.30185">
        <ele>15.8</ele>
        <time>2020-06-17T09:58:58Z</time>
      </trkpt>
      <trkpt lat="49.2744" lon="-0.30184">
        <ele>15.8</ele>
        <time>2020-06-17T09:58:59Z</time>
      </trkpt>
      <trkpt lat="49.27435" lon="-0.30183">
        <ele>15.9</ele>
        <time>2020-06-17T09:59:00Z</time>
      </trkpt>
      <trkpt lat="49.2743" lon="-0.30183">
        <ele>16</ele>
        <time>2020-06-17T09:59:01Z</time>
      </trkpt>
      <trkpt lat="49.27425" lon="-0.30183">
        <ele>16.1</ele>
        <time>2020-06-17T09:59:02Z</time>
      </trkpt>
      <trkpt lat="49.2742" lon="-0.30183">
        <ele>16.2</ele>
        <time>2020-06-17T09:59:03Z</time>
      </trkpt>
      <trkpt lat="49.27414" lon="-0.30182">
        <ele>16.3</ele>
        <time>2020-06-17T09:59:04Z</time>
      </trkpt>
      <trkpt lat="49.27409" lon="-0.30179">
        <ele>16.4</ele>
        <time>2020-06-17T09:59:05Z</time>
      </trkpt>
      <trkpt lat="49.27404" lon="-0.30177">
        <ele>16.4</ele>
        <time>2020-06-17T09:59:06Z</time>
      </trkpt>
      <trkpt lat="49.274" lon="-0.30174">
        <ele>16.4</ele>
        <time>2020-06-17T09:59:07Z</time>
      </trkpt>
      <trkpt lat="49.27395" lon="-0.30172">
        <ele>16.4</ele>
        <time>2020-06-17T09:59:08Z</time>
      </trkpt>
      <trkpt lat="49.27389" lon="-0.30171">
        <ele>16.4</ele>
        <time>2020-06-17T09:59:09Z</time>
      </trkpt>
      <trkpt lat="49.27385" lon="-0.30171">
        <ele>16.5</ele>
        <time>2020-06-17T09:59:10Z</time>
      </trkpt>
      <trkpt lat="49.2738" lon="-0.3017">
        <ele>16.5</ele>
        <time>2020-06-17T09:59:11Z</time>
      </trkpt>
      <trkpt lat="49.27375" lon="-0.30169">
        <ele>16.5</ele>
        <time>2020-06-17T09:59:12Z</time>
      </trkpt>
      <trkpt lat="49.2737" lon="-0.30167">
        <ele>16.4</ele>
        <time>2020-06-17T09:59:13Z</time>
      </trkpt>
      <trkpt lat="49.27364" lon="-0.30166">
        <ele>16.4</ele>
        <time>2020-06-17T09:59:14Z</time>
      </trkpt>
      <trkpt lat="49.2736" lon="-0.30164">
        <ele>16.3</ele>
        <time>2020-06-17T09:59:15Z</time>
      </trkpt>
      <trkpt lat="49.27355" lon="-0.30163">
        <ele>16.3</ele>
        <time>2020-06-17T09:59:16Z</time>
      </trkpt>
      <trkpt lat="49.2735" lon="-0.30162">
        <ele>16.2</ele>
        <time>2020-06-17T09:59:17Z</time>
      </trkpt>
      <trkpt lat="49.27345" lon="-0.30159">
        <ele>16.2</ele>
        <time>2020-06-17T09:59:18Z</time>
      </trkpt>
      <trkpt lat="49.2734" lon="-0.30157">
        <ele>16.1</ele>
        <time>2020-06-17T09:59:19Z</time>
      </trkpt>
      <trkpt lat="49.27335" lon="-0.30155">
        <ele>16.1</ele>
        <time>2020-06-17T09:59:20Z</time>
      </trkpt>
      <trkpt lat="49.2733" lon="-0.30153">
        <ele>16</ele>
        <time>2020-06-17T09:59:21Z</time>
      </trkpt>
      <trkpt lat="49.27325" lon="-0.30151">
        <ele>15.9</ele>
        <time>2020-06-17T09:59:22Z</time>
      </trkpt>
      <trkpt lat="49.2732" lon="-0.30147">
        <ele>15.9</ele>
        <time>2020-06-17T09:59:23Z</time>
      </trkpt>
      <trkpt lat="49.27316" lon="-0.30144">
        <ele>15.8</ele>
        <time>2020-06-17T09:59:24Z</time>
      </trkpt>
      <trkpt lat="49.27313" lon="-0.30141">
        <ele>15.7</ele>
        <time>2020-06-17T09:59:25Z</time>
      </trkpt>
      <trkpt lat="49.2731" lon="-0.30137">
        <ele>15.6</ele>
        <time>2020-06-17T09:59:26Z</time>
      </trkpt>
      <trkpt lat="49.27307" lon="-0.30133">
        <ele>15.6</ele>
        <time>2020-06-17T09:59:27Z</time>
      </trkpt>
      <trkpt lat="49.27304" lon="-0.30128">
        <ele>15.5</ele>
        <time>2020-06-17T09:59:28Z</time>
      </trkpt>
      <trkpt lat="49.27301" lon="-0.30125">
        <ele>15.5</ele>
        <time>2020-06-17T09:59:29Z</time>
      </trkpt>
      <trkpt lat="49.27299" lon="-0.30122">
        <ele>15.4</ele>
        <time>2020-06-17T09:59:30Z</time>
      </trkpt>
      <trkpt lat="49.27297" lon="-0.30119">
        <ele>15.4</ele>
        <time>2020-06-17T09:59:31Z</time>
      </trkpt>
      <trkpt lat="49.27295" lon="-0.30115">
        <ele>15.3</ele>
        <time>2020-06-17T09:59:32Z</time>
      </trkpt>
      <trkpt lat="49.27293" lon="-0.30109">
        <ele>15.2</ele>
        <time>2020-06-17T09:59:33Z</time>
      </trkpt>
      <trkpt lat="49.27292" lon="-0.30104">
        <ele>15.1</ele>
        <time>2020-06-17T09:59:34Z</time>
      </trkpt>
      <trkpt lat="49.2729" lon="-0.30099">
        <ele>15.1</ele>
        <time>2020-06-17T09:59:35Z</time>
      </trkpt>
      <trkpt lat="49.27288" lon="-0.30094">
        <ele>15.1</ele>
        <time>2020-06-17T09:59:36Z</time>
      </trkpt>
      <trkpt lat="49.27286" lon="-0.30088">
        <ele>15.1</ele>
        <time>2020-06-17T09:59:37Z</time>
      </trkpt>
      <trkpt lat="49.27284" lon="-0.30082">
        <ele>15.1</ele>
        <time>2020-06-17T09:59:38Z</time>
      </trkpt>
      <trkpt lat="49.27283" lon="-0.30077">
        <ele>15.1</ele>
        <time>2020-06-17T09:59:39Z</time>
      </trkpt>
      <trkpt lat="49.2728" lon="-0.30071">
        <ele>15.2</ele>
        <time>2020-06-17T09:59:40Z</time>
      </trkpt>
      <trkpt lat="49.27278" lon="-0.30066">
        <ele>15.2</ele>
        <time>2020-06-17T09:59:41Z</time>
      </trkpt>
      <trkpt lat="49.27276" lon="-0.3006">
        <ele>15.3</ele>
        <time>2020-06-17T09:59:42Z</time>
      </trkpt>
      <trkpt lat="49.27273" lon="-0.30053">
        <ele>15.4</ele>
        <time>2020-06-17T09:59:43Z</time>
      </trkpt>
      <trkpt lat="49.27271" lon="-0.30046">
        <ele>15.5</ele>
        <time>2020-06-17T09:59:44Z</time>
      </trkpt>
      <trkpt lat="49.27268" lon="-0.30038">
        <ele>15.7</ele>
        <time>2020-06-17T09:59:45Z</time>
      </trkpt>
      <trkpt lat="49.27266" lon="-0.30031">
        <ele>15.8</ele>
        <time>2020-06-17T09:59:46Z</time>
      </trkpt>
      <trkpt lat="49.27263" lon="-0.30024">
        <ele>15.9</ele>
        <time>2020-06-17T09:59:47Z</time>
      </trkpt>
      <trkpt lat="49.27261" lon="-0.30016">
        <ele>16.1</ele>
        <time>2020-06-17T09:59:48Z</time>
      </trkpt>
      <trkpt lat="49.27257" lon="-0.30009">
        <ele>16.3</ele>
        <time>2020-06-17T09:59:49Z</time>
      </trkpt>
      <trkpt lat="49.27254" lon="-0.30001">
        <ele>16.4</ele>
        <time>2020-06-17T09:59:50Z</time>
      </trkpt>
      <trkpt lat="49.27251" lon="-0.29994">
        <ele>16.7</ele>
        <time>2020-06-17T09:59:51Z</time>
      </trkpt>
      <trkpt lat="49.27249" lon="-0.29987">
        <ele>16.9</ele>
        <time>2020-06-17T09:59:52Z</time>
      </trkpt>
      <trkpt lat="49.27246" lon="-0.29979">
        <ele>17.1</ele>
        <time>2020-06-17T09:59:53Z</time>
      </trkpt>
      <trkpt lat="49.27243" lon="-0.29972">
        <ele>17.3</ele>
        <time>2020-06-17T09:59:54Z</time>
      </trkpt>
      <trkpt lat="49.2724" lon="-0.29965">
        <ele>17.4</ele>
        <time>2020-06-17T09:59:55Z</time>
      </trkpt>
      <trkpt lat="49.27236" lon="-0.29959">
        <ele>17.5</ele>
        <time>2020-06-17T09:59:56Z</time>
      </trkpt>
      <trkpt lat="49.27233" lon="-0.29954">
        <ele>17.6</ele>
        <time>2020-06-17T09:59:57Z</time>
      </trkpt>
      <trkpt lat="49.27229" lon="-0.29949">
        <ele>17.7</ele>
        <time>2020-06-17T09:59:58Z</time>
      </trkpt>
      <trkpt lat="49.27224" lon="-0.29945">
        <ele>17.8</ele>
        <time>2020-06-17T09:59:59Z</time>
      </trkpt>
      <trkpt lat="49.27219" lon="-0.2994">
        <ele>17.9</ele>
        <time>2020-06-17T10:00:00Z</time>
      </trkpt>
      <trkpt lat="49.27215" lon="-0.29937">
        <ele>18</ele>
        <time>2020-06-17T10:00:01Z</time>
      </trkpt>
      <trkpt lat="49.27211" lon="-0.29934">
        <ele>18.1</ele>
        <time>2020-06-17T10:00:02Z</time>
      </trkpt>
      <trkpt lat="49.27208" lon="-0.29931">
        <ele>18.2</ele>
        <time>2020-06-17T10:00:03Z</time>
      </trkpt>
      <trkpt lat="49.27204" lon="-0.29928">
        <ele>18.3</ele>
        <time>2020-06-17T10:00:04Z</time>
      </trkpt>
      <trkpt lat="49.27201" lon="-0.29925">
        <ele>18.3</ele>
        <time>2020-06-17T10:00:05Z</time>
      </trkpt>
      <trkpt lat="49.27197" lon="-0.29922">
        <ele>18.4</ele>
        <time>2020-06-17T10:00:06Z</time>
      </trkpt>
      <trkpt lat="49.27193" lon="-0.29918">
        <ele>18.5</ele>
        <time>2020-06-17T10:00:07Z</time>
      </trkpt>
      <trkpt lat="49.27188" lon="-0.29914">
        <ele>18.6</ele>
        <time>2020-06-17T10:00:08Z</time>
      </trkpt>
      <trkpt lat="49.27182" lon="-0.2991">
        <ele>18.6</ele>
        <time>2020-06-17T10:00:09Z</time>
      </trkpt>
      <trkpt lat="49.27177" lon="-0.29906">
        <ele>18.7</ele>
        <time>2020-06-17T10:00:10Z</time>
      </trkpt>
      <trkpt lat="49.27172" lon="-0.29903">
        <ele>18.7</ele>
        <time>2020-06-17T10:00:11Z</time>
      </trkpt>
      <trkpt lat="49.27166" lon="-0.299">
        <ele>18.8</ele>
        <time>2020-06-17T10:00:12Z</time>
      </trkpt>
      <trkpt lat="49.27161" lon="-0.29899">
        <ele>18.8</ele>
        <time>2020-06-17T10:00:13Z</time>
      </trkpt>
      <trkpt lat="49.27156" lon="-0.29899">
        <ele>18.8</ele>
        <time>2020-06-17T10:00:14Z</time>
      </trkpt>
      <trkpt lat="49.27151" lon="-0.29896">
        <ele>18.9</ele>
        <time>2020-06-17T10:00:15Z</time>
      </trkpt>
      <trkpt lat="49.27146" lon="-0.29893">
        <ele>19</ele>
        <time>2020-06-17T10:00:16Z</time>
      </trkpt>
      <trkpt lat="49.2714" lon="-0.29889">
        <ele>19</ele>
        <time>2020-06-17T10:00:17Z</time>
      </trkpt>
      <trkpt lat="49.27134" lon="-0.29887">
        <ele>19.1</ele>
        <time>2020-06-17T10:00:18Z</time>
      </trkpt>
      <trkpt lat="49.27129" lon="-0.29885">
        <ele>19.2</ele>
        <time>2020-06-17T10:00:19Z</time>
      </trkpt>
      <trkpt lat="49.27123" lon="-0.29881">
        <ele>19.3</ele>
        <time>2020-06-17T10:00:20Z</time>
      </trkpt>
      <trkpt lat="49.27117" lon="-0.29876">
        <ele>19.4</ele>
        <time>2020-06-17T10:00:21Z</time>
      </trkpt>
      <trkpt lat="49.27112" lon="-0.29873">
        <ele>19.5</ele>
        <time>2020-06-17T10:00:22Z</time>
      </trkpt>
      <trkpt lat="49.27107" lon="-0.29869">
        <ele>19.6</ele>
        <time>2020-06-17T10:00:23Z</time>
      </trkpt>
      <trkpt lat="49.27102" lon="-0.29865">
        <ele>19.7</ele>
        <time>2020-06-17T10:00:24Z</time>
      </trkpt>
      <trkpt lat="49.27097" lon="-0.29862">
        <ele>19.8</ele>
        <time>2020-06-17T10:00:25Z</time>
      </trkpt>
      <trkpt lat="49.27093" lon="-0.2986">
        <ele>19.9</ele>
        <time>2020-06-17T10:00:26Z</time>
      </trkpt>
      <trkpt lat="49.27087" lon="-0.29858">
        <ele>19.9</ele>
        <time>2020-06-17T10:00:27Z</time>
      </trkpt>
      <trkpt lat="49.27082" lon="-0.29855">
        <ele>19.9</ele>
        <time>2020-06-17T10:00:28Z</time>
      </trkpt>
      <trkpt lat="49.27077" lon="-0.29851">
        <ele>20</ele>
        <time>2020-06-17T10:00:29Z</time>
      </trkpt>
      <trkpt lat="49.27072" lon="-0.29848">
        <ele>20</ele>
        <time>2020-06-17T10:00:30Z</time>
      </trkpt>
      <trkpt lat="49.27066" lon="-0.29844">
        <ele>20.1</ele>
        <time>2020-06-17T10:00:31Z</time>
      </trkpt>
      <trkpt lat="49.27061" lon="-0.29842">
        <ele>20.1</ele>
        <time>2020-06-17T10:00:32Z</time>
      </trkpt>
      <trkpt lat="49.27056" lon="-0.29838">
        <ele>20.2</ele>
        <time>2020-06-17T10:00:33Z</time>
      </trkpt>
      <trkpt lat="49.27051" lon="-0.29836">
        <ele>20.2</ele>
        <time>2020-06-17T10:00:34Z</time>
      </trkpt>
      <trkpt lat="49.27045" lon="-0.29833">
        <ele>20.3</ele>
        <time>2020-06-17T10:00:35Z</time>
      </trkpt>
      <trkpt lat="49.2704" lon="-0.29831">
        <ele>20.4</ele>
        <time>2020-06-17T10:00:36Z</time>
      </trkpt>
      <trkpt lat="49.27035" lon="-0.29829">
        <ele>20.4</ele>
        <time>2020-06-17T10:00:37Z</time>
      </trkpt>
      <trkpt lat="49.2703" lon="-0.29826">
        <ele>20.5</ele>
        <time>2020-06-17T10:00:38Z</time>
      </trkpt>
      <trkpt lat="49.27025" lon="-0.29823">
        <ele>20.6</ele>
        <time>2020-06-17T10:00:39Z</time>
      </trkpt>
      <trkpt lat="49.27019" lon="-0.29821">
        <ele>20.6</ele>
        <time>2020-06-17T10:00:40Z</time>
      </trkpt>
      <trkpt lat="49.27014" lon="-0.29817">
        <ele>20.7</ele>
        <time>2020-06-17T10:00:41Z</time>
      </trkpt>
      <trkpt lat="49.27009" lon="-0.29814">
        <ele>20.7</ele>
        <time>2020-06-17T10:00:42Z</time>
      </trkpt>
      <trkpt lat="49.27004" lon="-0.29813">
        <ele>20.8</ele>
        <time>2020-06-17T10:00:43Z</time>
      </trkpt>
      <trkpt lat="49.26999" lon="-0.2981">
        <ele>20.8</ele>
        <time>2020-06-17T10:00:44Z</time>
      </trkpt>
      <trkpt lat="49.26994" lon="-0.29807">
        <ele>20.9</ele>
        <time>2020-06-17T10:00:45Z</time>
      </trkpt>
      <trkpt lat="49.26989" lon="-0.29804">
        <ele>20.9</ele>
        <time>2020-06-17T10:00:46Z</time>
      </trkpt>
      <trkpt lat="49.26984" lon="-0.29801">
        <ele>21</ele>
        <time>2020-06-17T10:00:47Z</time>
      </trkpt>
      <trkpt lat="49.26979" lon="-0.29797">
        <ele>21.1</ele>
        <time>2020-06-17T10:00:48Z</time>
      </trkpt>
      <trkpt lat="49.26974" lon="-0.29794">
        <ele>21.1</ele>
        <time>2020-06-17T10:00:49Z</time>
      </trkpt>
      <trkpt lat="49.26969" lon="-0.29792">
        <ele>21.2</ele>
        <time>2020-06-17T10:00:50Z</time>
      </trkpt>
      <trkpt lat="49.26964" lon="-0.2979">
        <ele>21.2</ele>
        <time>2020-06-17T10:00:51Z</time>
      </trkpt>
      <trkpt lat="49.26959" lon="-0.29787">
        <ele>21.2</ele>
        <time>2020-06-17T10:00:52Z</time>
      </trkpt>
      <trkpt lat="49.26954" lon="-0.29783">
        <ele>21.3</ele>
        <time>2020-06-17T10:00:53Z</time>
      </trkpt>
      <trkpt lat="49.2695" lon="-0.29779">
        <ele>21.3</ele>
        <time>2020-06-17T10:00:54Z</time>
      </trkpt>
      <trkpt lat="49.26945" lon="-0.29775">
        <ele>21.4</ele>
        <time>2020-06-17T10:00:55Z</time>
      </trkpt>
      <trkpt lat="49.26939" lon="-0.2977">
        <ele>21.4</ele>
        <time>2020-06-17T10:00:56Z</time>
      </trkpt>
      <trkpt lat="49.26933" lon="-0.29767">
        <ele>21.5</ele>
        <time>2020-06-17T10:00:57Z</time>
      </trkpt>
      <trkpt lat="49.26928" lon="-0.29764">
        <ele>21.5</ele>
        <time>2020-06-17T10:00:58Z</time>
      </trkpt>
      <trkpt lat="49.26923" lon="-0.29762">
        <ele>21.6</ele>
        <time>2020-06-17T10:00:59Z</time>
      </trkpt>
      <trkpt lat="49.26918" lon="-0.29758">
        <ele>21.6</ele>
        <time>2020-06-17T10:01:00Z</time>
      </trkpt>
      <trkpt lat="49.26913" lon="-0.29754">
        <ele>21.7</ele>
        <time>2020-06-17T10:01:01Z</time>
      </trkpt>
      <trkpt lat="49.26908" lon="-0.29751">
        <ele>21.8</ele>
        <time>2020-06-17T10:01:02Z</time>
      </trkpt>
      <trkpt lat="49.26904" lon="-0.29748">
        <ele>21.8</ele>
        <time>2020-06-17T10:01:03Z</time>
      </trkpt>
      <trkpt lat="49.26899" lon="-0.29745">
        <ele>21.9</ele>
        <time>2020-06-17T10:01:04Z</time>
      </trkpt>
      <trkpt lat="49.26895" lon="-0.29741">
        <ele>22</ele>
        <time>2020-06-17T10:01:05Z</time>
      </trkpt>
      <trkpt lat="49.2689" lon="-0.29738">
        <ele>22</ele>
        <time>2020-06-17T10:01:06Z</time>
      </trkpt>
      <trkpt lat="49.26885" lon="-0.29734">
        <ele>22.1</ele>
        <time>2020-06-17T10:01:07Z</time>
      </trkpt>
      <trkpt lat="49.26881" lon="-0.29732">
        <ele>22.2</ele>
        <time>2020-06-17T10:01:08Z</time>
      </trkpt>
      <trkpt lat="49.26876" lon="-0.29728">
        <ele>22.2</ele>
        <time>2020-06-17T10:01:09Z</time>
      </trkpt>
      <trkpt lat="49.26871" lon="-0.29725">
        <ele>22.3</ele>
        <time>2020-06-17T10:01:10Z</time>
      </trkpt>
      <trkpt lat="49.26865" lon="-0.29722">
        <ele>22.4</ele>
        <time>2020-06-17T10:01:11Z</time>
      </trkpt>
      <trkpt lat="49.2686" lon="-0.29719">
        <ele>22.5</ele>
        <time>2020-06-17T10:01:12Z</time>
      </trkpt>
      <trkpt lat="49.26856" lon="-0.29716">
        <ele>22.6</ele>
        <time>2020-06-17T10:01:13Z</time>
      </trkpt>
      <trkpt lat="49.26852" lon="-0.29714">
        <ele>22.7</ele>
        <time>2020-06-17T10:01:14Z</time>
      </trkpt>
      <trkpt lat="49.26847" lon="-0.29711">
        <ele>22.8</ele>
        <time>2020-06-17T10:01:15Z</time>
      </trkpt>
      <trkpt lat="49.26841" lon="-0.29709">
        <ele>22.9</ele>
        <time>2020-06-17T10:01:16Z</time>
      </trkpt>
      <trkpt lat="49.26836" lon="-0.29705">
        <ele>23.1</ele>
        <time>2020-06-17T10:01:17Z</time>
      </trkpt>
      <trkpt lat="49.2683" lon="-0.29701">
        <ele>23.2</ele>
        <time>2020-06-17T10:01:18Z</time>
      </trkpt>
      <trkpt lat="49.26825" lon="-0.29697">
        <ele>23.4</ele>
        <time>2020-06-17T10:01:19Z</time>
      </trkpt>
      <trkpt lat="49.2682" lon="-0.29694">
        <ele>23.5</ele>
        <time>2020-06-17T10:01:20Z</time>
      </trkpt>
      <trkpt lat="49.26814" lon="-0.29689">
        <ele>23.7</ele>
        <time>2020-06-17T10:01:21Z</time>
      </trkpt>
      <trkpt lat="49.26809" lon="-0.29684">
        <ele>23.9</ele>
        <time>2020-06-17T10:01:22Z</time>
      </trkpt>
      <trkpt lat="49.26804" lon="-0.29681">
        <ele>24</ele>
        <time>2020-06-17T10:01:23Z</time>
      </trkpt>
      <trkpt lat="49.26799" lon="-0.29677">
        <ele>24.1</ele>
        <time>2020-06-17T10:01:24Z</time>
      </trkpt>
      <trkpt lat="49.26794" lon="-0.29672">
        <ele>24.3</ele>
        <time>2020-06-17T10:01:25Z</time>
      </trkpt>
      <trkpt lat="49.2679" lon="-0.29669">
        <ele>24.4</ele>
        <time>2020-06-17T10:01:26Z</time>
      </trkpt>
      <trkpt lat="49.26785" lon="-0.29666">
        <ele>24.6</ele>
        <time>2020-06-17T10:01:27Z</time>
      </trkpt>
      <trkpt lat="49.2678" lon="-0.29662">
        <ele>24.7</ele>
        <time>2020-06-17T10:01:28Z</time>
      </trkpt>
      <trkpt lat="49.26775" lon="-0.29659">
        <ele>24.9</ele>
        <time>2020-06-17T10:01:29Z</time>
      </trkpt>
      <trkpt lat="49.2677" lon="-0.29656">
        <ele>25.1</ele>
        <time>2020-06-17T10:01:30Z</time>
      </trkpt>
      <trkpt lat="49.26765" lon="-0.29653">
        <ele>25.2</ele>
        <time>2020-06-17T10:01:31Z</time>
      </trkpt>
      <trkpt lat="49.26761" lon="-0.2965">
        <ele>25.3</ele>
        <time>2020-06-17T10:01:32Z</time>
      </trkpt>
      <trkpt lat="49.26756" lon="-0.29648">
        <ele>25.5</ele>
        <time>2020-06-17T10:01:33Z</time>
      </trkpt>
      <trkpt lat="49.26751" lon="-0.29645">
        <ele>25.6</ele>
        <time>2020-06-17T10:01:34Z</time>
      </trkpt>
      <trkpt lat="49.26746" lon="-0.29643">
        <ele>25.7</ele>
        <time>2020-06-17T10:01:35Z</time>
      </trkpt>
      <trkpt lat="49.2674" lon="-0.29641">
        <ele>25.8</ele>
        <time>2020-06-17T10:01:36Z</time>
      </trkpt>
      <trkpt lat="49.26735" lon="-0.29638">
        <ele>25.9</ele>
        <time>2020-06-17T10:01:37Z</time>
      </trkpt>
      <trkpt lat="49.26731" lon="-0.29635">
        <ele>25.9</ele>
        <time>2020-06-17T10:01:38Z</time>
      </trkpt>
      <trkpt lat="49.26725" lon="-0.29632">
        <ele>26</ele>
        <time>2020-06-17T10:01:39Z</time>
      </trkpt>
      <trkpt lat="49.2672" lon="-0.2963">
        <ele>26.1</ele>
        <time>2020-06-17T10:01:40Z</time>
      </trkpt>
      <trkpt lat="49.26715" lon="-0.29628">
        <ele>26.2</ele>
        <time>2020-06-17T10:01:41Z</time>
      </trkpt>
      <trkpt lat="49.26709" lon="-0.29623">
        <ele>26.3</ele>
        <time>2020-06-17T10:01:42Z</time>
      </trkpt>
      <trkpt lat="49.26704" lon="-0.2962">
        <ele>26.4</ele>
        <time>2020-06-17T10:01:43Z</time>
      </trkpt>
      <trkpt lat="49.26699" lon="-0.29618">
        <ele>26.5</ele>
        <time>2020-06-17T10:01:44Z</time>
      </trkpt>
      <trkpt lat="49.26694" lon="-0.29615">
        <ele>26.6</ele>
        <time>2020-06-17T10:01:45Z</time>
      </trkpt>
      <trkpt lat="49.26689" lon="-0.29612">
        <ele>26.6</ele>
        <time>2020-06-17T10:01:46Z</time>
      </trkpt>
      <trkpt lat="49.26684" lon="-0.29608">
        <ele>26.7</ele>
        <time>2020-06-17T10:01:47Z</time>
      </trkpt>
      <trkpt lat="49.26679" lon="-0.29606">
        <ele>26.8</ele>
        <time>2020-06-17T10:01:48Z</time>
      </trkpt>
      <trkpt lat="49.26674" lon="-0.29603">
        <ele>26.9</ele>
        <time>2020-06-17T10:01:49Z</time>
      </trkpt>
      <trkpt lat="49.26669" lon="-0.29602">
        <ele>27.1</ele>
        <time>2020-06-17T10:01:50Z</time>
      </trkpt>
      <trkpt lat="49.26664" lon="-0.29599">
        <ele>27.2</ele>
        <time>2020-06-17T10:01:51Z</time>
      </trkpt>
      <trkpt lat="49.26659" lon="-0.29597">
        <ele>27.1</ele>
        <time>2020-06-17T10:01:52Z</time>
      </trkpt>
      <trkpt lat="49.26655" lon="-0.29595">
        <ele>27.1</ele>
        <time>2020-06-17T10:01:53Z</time>
      </trkpt>
      <trkpt lat="49.26651" lon="-0.29593">
        <ele>27.2</ele>
        <time>2020-06-17T10:01:54Z</time>
      </trkpt>
      <trkpt lat="49.26646" lon="-0.2959">
        <ele>27.2</ele>
        <time>2020-06-17T10:01:55Z</time>
      </trkpt>
      <trkpt lat="49.26641" lon="-0.29586">
        <ele>27.3</ele>
        <time>2020-06-17T10:01:56Z</time>
      </trkpt>
      <trkpt lat="49.26636" lon="-0.29583">
        <ele>27.3</ele>
        <time>2020-06-17T10:01:57Z</time>
      </trkpt>
      <trkpt lat="49.26631" lon="-0.2958">
        <ele>27.4</ele>
        <time>2020-06-17T10:01:58Z</time>
      </trkpt>
      <trkpt lat="49.26626" lon="-0.29577">
        <ele>27.5</ele>
        <time>2020-06-17T10:01:59Z</time>
      </trkpt>
      <trkpt lat="49.2662" lon="-0.29574">
        <ele>27.5</ele>
        <time>2020-06-17T10:02:00Z</time>
      </trkpt>
      <trkpt lat="49.26615" lon="-0.29572">
        <ele>27.6</ele>
        <time>2020-06-17T10:02:01Z</time>
      </trkpt>
      <trkpt lat="49.2661" lon="-0.29568">
        <ele>27.7</ele>
        <time>2020-06-17T10:02:02Z</time>
      </trkpt>
      <trkpt lat="49.26605" lon="-0.29565">
        <ele>27.8</ele>
        <time>2020-06-17T10:02:03Z</time>
      </trkpt>
      <trkpt lat="49.266" lon="-0.29562">
        <ele>27.9</ele>
        <time>2020-06-17T10:02:04Z</time>
      </trkpt>
      <trkpt lat="49.26594" lon="-0.29559">
        <ele>27.9</ele>
        <time>2020-06-17T10:02:05Z</time>
      </trkpt>
      <trkpt lat="49.26589" lon="-0.29556">
        <ele>28</ele>
        <time>2020-06-17T10:02:06Z</time>
      </trkpt>
      <trkpt lat="49.26585" lon="-0.29553">
        <ele>28.1</ele>
        <time>2020-06-17T10:02:07Z</time>
      </trkpt>
      <trkpt lat="49.2658" lon="-0.29551">
        <ele>28.1</ele>
        <time>2020-06-17T10:02:08Z</time>
      </trkpt>
      <trkpt lat="49.26575" lon="-0.29548">
        <ele>28.2</ele>
        <time>2020-06-17T10:02:09Z</time>
      </trkpt>
      <trkpt lat="49.26569" lon="-0.29545">
        <ele>28.3</ele>
        <time>2020-06-17T10:02:10Z</time>
      </trkpt>
      <trkpt lat="49.26564" lon="-0.29542">
        <ele>28.4</ele>
        <time>2020-06-17T10:02:11Z</time>
      </trkpt>
      <trkpt lat="49.26559" lon="-0.29538">
        <ele>28.5</ele>
        <time>2020-06-17T10:02:12Z</time>
      </trkpt>
      <trkpt lat="49.26554" lon="-0.29536">
        <ele>28.6</ele>
        <time>2020-06-17T10:02:13Z</time>
      </trkpt>
      <trkpt lat="49.26549" lon="-0.29533">
        <ele>28.7</ele>
        <time>2020-06-17T10:02:14Z</time>
      </trkpt>
      <trkpt lat="49.26544" lon="-0.2953">
        <ele>28.8</ele>
        <time>2020-06-17T10:02:15Z</time>
      </trkpt>
      <trkpt lat="49.26539" lon="-0.29528">
        <ele>28.9</ele>
        <time>2020-06-17T10:02:16Z</time>
      </trkpt>
      <trkpt lat="49.26534" lon="-0.29525">
        <ele>29</ele>
        <time>2020-06-17T10:02:17Z</time>
      </trkpt>
      <trkpt lat="49.26529" lon="-0.29522">
        <ele>29.1</ele>
        <time>2020-06-17T10:02:18Z</time>
      </trkpt>
      <trkpt lat="49.26524" lon="-0.29519">
        <ele>29.2</ele>
        <time>2020-06-17T10:02:19Z</time>
      </trkpt>
      <trkpt lat="49.26518" lon="-0.29515">
        <ele>29.2</ele>
        <time>2020-06-17T10:02:20Z</time>
      </trkpt>
      <trkpt lat="49.26513" lon="-0.29512">
        <ele>29.3</ele>
        <time>2020-06-17T10:02:21Z</time>
      </trkpt>
      <trkpt lat="49.26508" lon="-0.29509">
        <ele>29.4</ele>
        <time>2020-06-17T10:02:22Z</time>
      </trkpt>
      <trkpt lat="49.26503" lon="-0.29505">
        <ele>29.5</ele>
        <time>2020-06-17T10:02:23Z</time>
      </trkpt>
      <trkpt lat="49.26498" lon="-0.29501">
        <ele>29.6</ele>
        <time>2020-06-17T10:02:24Z</time>
      </trkpt>
      <trkpt lat="49.26492" lon="-0.29498">
        <ele>29.8</ele>
        <time>2020-06-17T10:02:25Z</time>
      </trkpt>
      <trkpt lat="49.26487" lon="-0.29495">
        <ele>30</ele>
        <time>2020-06-17T10:02:26Z</time>
      </trkpt>
      <trkpt lat="49.26482" lon="-0.29493">
        <ele>30.2</ele>
        <time>2020-06-17T10:02:27Z</time>
      </trkpt>
      <trkpt lat="49.26477" lon="-0.2949">
        <ele>30.4</ele>
        <time>2020-06-17T10:02:28Z</time>
      </trkpt>
      <trkpt lat="49.26473" lon="-0.29487">
        <ele>30.5</ele>
        <time>2020-06-17T10:02:29Z</time>
      </trkpt>
      <trkpt lat="49.26468" lon="-0.29483">
        <ele>30.8</ele>
        <time>2020-06-17T10:02:30Z</time>
      </trkpt>
      <trkpt lat="49.26464" lon="-0.2948">
        <ele>31</ele>
        <time>2020-06-17T10:02:31Z</time>
      </trkpt>
      <trkpt lat="49.2646" lon="-0.29477">
        <ele>31.2</ele>
        <time>2020-06-17T10:02:32Z</time>
      </trkpt>
      <trkpt lat="49.26456" lon="-0.29474">
        <ele>31.3</ele>
        <time>2020-06-17T10:02:33Z</time>
      </trkpt>
      <trkpt lat="49.26453" lon="-0.29471">
        <ele>31.4</ele>
        <time>2020-06-17T10:02:34Z</time>
      </trkpt>
      <trkpt lat="49.26449" lon="-0.29468">
        <ele>31.6</ele>
        <time>2020-06-17T10:02:35Z</time>
      </trkpt>
      <trkpt lat="49.26446" lon="-0.29465">
        <ele>31.7</ele>
        <time>2020-06-17T10:02:36Z</time>
      </trkpt>
      <trkpt lat="49.26442" lon="-0.29461">
        <ele>31.8</ele>
        <time>2020-06-17T10:02:37Z</time>
      </trkpt>
      <trkpt lat="49.26439" lon="-0.29457">
        <ele>32</ele>
        <time>2020-06-17T10:02:38Z</time>
      </trkpt>
      <trkpt lat="49.26436" lon="-0.29453">
        <ele>32.1</ele>
        <time>2020-06-17T10:02:39Z</time>
      </trkpt>
      <trkpt lat="49.26433" lon="-0.2945">
        <ele>32.2</ele>
        <time>2020-06-17T10:02:40Z</time>
      </trkpt>
      <trkpt lat="49.26429" lon="-0.29447">
        <ele>32.3</ele>
        <time>2020-06-17T10:02:41Z</time>
      </trkpt>
      <trkpt lat="49.26426" lon="-0.29444">
        <ele>32.5</ele>
        <time>2020-06-17T10:02:42Z</time>
      </trkpt>
      <trkpt lat="49.26423" lon="-0.29441">
        <ele>32.6</ele>
        <time>2020-06-17T10:02:43Z</time>
      </trkpt>
      <trkpt lat="49.26419" lon="-0.29437">
        <ele>32.7</ele>
        <time>2020-06-17T10:02:44Z</time>
      </trkpt>
      <trkpt lat="49.26415" lon="-0.29433">
        <ele>32.8</ele>
        <time>2020-06-17T10:02:45Z</time>
      </trkpt>
      <trkpt lat="49.2641" lon="-0.2943">
        <ele>33</ele>
        <time>2020-06-17T10:02:46Z</time>
      </trkpt>
      <trkpt lat="49.26406" lon="-0.29427">
        <ele>33.2</ele>
        <time>2020-06-17T10:02:47Z</time>
      </trkpt>
      <trkpt lat="49.26402" lon="-0.29423">
        <ele>33.3</ele>
        <time>2020-06-17T10:02:48Z</time>
      </trkpt>
      <trkpt lat="49.26398" lon="-0.29419">
        <ele>33.5</ele>
        <time>2020-06-17T10:02:49Z</time>
      </trkpt>
      <trkpt lat="49.26394" lon="-0.29416">
        <ele>33.7</ele>
        <time>2020-06-17T10:02:50Z</time>
      </trkpt>
      <trkpt lat="49.2639" lon="-0.29412">
        <ele>33.8</ele>
        <time>2020-06-17T10:02:51Z</time>
      </trkpt>
      <trkpt lat="49.26386" lon="-0.29408">
        <ele>33.9</ele>
        <time>2020-06-17T10:02:52Z</time>
      </trkpt>
      <trkpt lat="49.26382" lon="-0.29405">
        <ele>34</ele>
        <time>2020-06-17T10:02:53Z</time>
      </trkpt>
      <trkpt lat="49.26378" lon="-0.29401">
        <ele>34.2</ele>
        <time>2020-06-17T10:02:54Z</time>
      </trkpt>
      <trkpt lat="49.26374" lon="-0.29397">
        <ele>34.3</ele>
        <time>2020-06-17T10:02:55Z</time>
      </trkpt>
      <trkpt lat="49.26369" lon="-0.29394">
        <ele>34.5</ele>
        <time>2020-06-17T10:02:56Z</time>
      </trkpt>
      <trkpt lat="49.26365" lon="-0.2939">
        <ele>34.6</ele>
        <time>2020-06-17T10:02:57Z</time>
      </trkpt>
      <trkpt lat="49.2636" lon="-0.29387">
        <ele>34.8</ele>
        <time>2020-06-17T10:02:58Z</time>
      </trkpt>
      <trkpt lat="49.26355" lon="-0.29383">
        <ele>34.9</ele>
        <time>2020-06-17T10:02:59Z</time>
      </trkpt>
      <trkpt lat="49.26351" lon="-0.2938">
        <ele>35.1</ele>
        <time>2020-06-17T10:03:00Z</time>
      </trkpt>
      <trkpt lat="49.26346" lon="-0.29377">
        <ele>35.2</ele>
        <time>2020-06-17T10:03:01Z</time>
      </trkpt>
      <trkpt lat="49.26343" lon="-0.29375">
        <ele>35.3</ele>
        <time>2020-06-17T10:03:02Z</time>
      </trkpt>
      <trkpt lat="49.26338" lon="-0.29371">
        <ele>35.5</ele>
        <time>2020-06-17T10:03:03Z</time>
      </trkpt>
      <trkpt lat="49.26333" lon="-0.29367">
        <ele>35.6</ele>
        <time>2020-06-17T10:03:04Z</time>
      </trkpt>
      <trkpt lat="49.26329" lon="-0.29364">
        <ele>35.7</ele>
        <time>2020-06-17T10:03:05Z</time>
      </trkpt>
      <trkpt lat="49.26325" lon="-0.29362">
        <ele>35.8</ele>
        <time>2020-06-17T10:03:06Z</time>
      </trkpt>
      <trkpt lat="49.2632" lon="-0.2936">
        <ele>35.9</ele>
        <time>2020-06-17T10:03:07Z</time>
      </trkpt>
      <trkpt lat="49.26316" lon="-0.29356">
        <ele>36</ele>
        <time>2020-06-17T10:03:08Z</time>
      </trkpt>
      <trkpt lat="49.26313" lon="-0.29354">
        <ele>36.1</ele>
        <time>2020-06-17T10:03:09Z</time>
      </trkpt>
      <trkpt lat="49.2631" lon="-0.29352">
        <ele>36.1</ele>
        <time>2020-06-17T10:03:10Z</time>
      </trkpt>
      <trkpt lat="49.26306" lon="-0.29348">
        <ele>36.2</ele>
        <time>2020-06-17T10:03:11Z</time>
      </trkpt>
      <trkpt lat="49.26302" lon="-0.29345">
        <ele>36.3</ele>
        <time>2020-06-17T10:03:12Z</time>
      </trkpt>
      <trkpt lat="49.26298" lon="-0.29341">
        <ele>36.3</ele>
        <time>2020-06-17T10:03:13Z</time>
      </trkpt>
      <trkpt lat="49.26294" lon="-0.29337">
        <ele>36.4</ele>
        <time>2020-06-17T10:03:14Z</time>
      </trkpt>
      <trkpt lat="49.2629" lon="-0.29333">
        <ele>36.4</ele>
        <time>2020-06-17T10:03:15Z</time>
      </trkpt>
      <trkpt lat="49.26287" lon="-0.2933">
        <ele>36.4</ele>
        <time>2020-06-17T10:03:16Z</time>
      </trkpt>
      <trkpt lat="49.26284" lon="-0.29327">
        <ele>36.4</ele>
        <time>2020-06-17T10:03:17Z</time>
      </trkpt>
      <trkpt lat="49.26281" lon="-0.29323">
        <ele>36.5</ele>
        <time>2020-06-17T10:03:18Z</time>
      </trkpt>
      <trkpt lat="49.26278" lon="-0.29319">
        <ele>36.5</ele>
        <time>2020-06-17T10:03:19Z</time>
      </trkpt>
      <trkpt lat="49.26274" lon="-0.29313">
        <ele>36.6</ele>
        <time>2020-06-17T10:03:20Z</time>
      </trkpt>
      <trkpt lat="49.26271" lon="-0.29309">
        <ele>36.6</ele>
        <time>2020-06-17T10:03:21Z</time>
      </trkpt>
      <trkpt lat="49.26267" lon="-0.29305">
        <ele>36.7</ele>
        <time>2020-06-17T10:03:22Z</time>
      </trkpt>
      <trkpt lat="49.26263" lon="-0.29299">
        <ele>36.7</ele>
        <time>2020-06-17T10:03:23Z</time>
      </trkpt>
      <trkpt lat="49.26259" lon="-0.29294">
        <ele>36.8</ele>
        <time>2020-06-17T10:03:24Z</time>
      </trkpt>
      <trkpt lat="49.26256" lon="-0.29289">
        <ele>36.8</ele>
        <time>2020-06-17T10:03:25Z</time>
      </trkpt>
      <trkpt lat="49.26253" lon="-0.29285">
        <ele>36.8</ele>
        <time>2020-06-17T10:03:26Z</time>
      </trkpt>
      <trkpt lat="49.2625" lon="-0.29279">
        <ele>36.9</ele>
        <time>2020-06-17T10:03:27Z</time>
      </trkpt>
      <trkpt lat="49.26248" lon="-0.29272">
        <ele>36.9</ele>
        <time>2020-06-17T10:03:28Z</time>
      </trkpt>
      <trkpt lat="49.26246" lon="-0.29265">
        <ele>36.9</ele>
        <time>2020-06-17T10:03:29Z</time>
      </trkpt>
      <trkpt lat="49.26245" lon="-0.29258">
        <ele>37</ele>
        <time>2020-06-17T10:03:30Z</time>
      </trkpt>
      <trkpt lat="49.26244" lon="-0.29249">
        <ele>37</ele>
        <time>2020-06-17T10:03:31Z</time>
      </trkpt>
      <trkpt lat="49.26243" lon="-0.29242">
        <ele>37</ele>
        <time>2020-06-17T10:03:32Z</time>
      </trkpt>
      <trkpt lat="49.26243" lon="-0.29235">
        <ele>37.1</ele>
        <time>2020-06-17T10:03:33Z</time>
      </trkpt>
      <trkpt lat="49.26243" lon="-0.29229">
        <ele>37</ele>
        <time>2020-06-17T10:03:34Z</time>
      </trkpt>
      <trkpt lat="49.26243" lon="-0.2922">
        <ele>36.9</ele>
        <time>2020-06-17T10:03:35Z</time>
      </trkpt>
      <trkpt lat="49.26242" lon="-0.29211">
        <ele>36.9</ele>
        <time>2020-06-17T10:03:36Z</time>
      </trkpt>
      <trkpt lat="49.26242" lon="-0.29201">
        <ele>36.8</ele>
        <time>2020-06-17T10:03:37Z</time>
      </trkpt>
      <trkpt lat="49.26242" lon="-0.29193">
        <ele>36.7</ele>
        <time>2020-06-17T10:03:38Z</time>
      </trkpt>
      <trkpt lat="49.26242" lon="-0.29185">
        <ele>36.7</ele>
        <time>2020-06-17T10:03:39Z</time>
      </trkpt>
      <trkpt lat="49.26243" lon="-0.29178">
        <ele>36.6</ele>
        <time>2020-06-17T10:03:40Z</time>
      </trkpt>
      <trkpt lat="49.26243" lon="-0.2917">
        <ele>36.5</ele>
        <time>2020-06-17T10:03:41Z</time>
      </trkpt>
      <trkpt lat="49.26244" lon="-0.29161">
        <ele>36.4</ele>
        <time>2020-06-17T10:03:42Z</time>
      </trkpt>
      <trkpt lat="49.26245" lon="-0.29154">
        <ele>36.3</ele>
        <time>2020-06-17T10:03:43Z</time>
      </trkpt>
      <trkpt lat="49.26245" lon="-0.29146">
        <ele>36.2</ele>
        <time>2020-06-17T10:03:44Z</time>
      </trkpt>
      <trkpt lat="49.26247" lon="-0.29139">
        <ele>36.1</ele>
        <time>2020-06-17T10:03:45Z</time>
      </trkpt>
      <trkpt lat="49.26248" lon="-0.29133">
        <ele>36.1</ele>
        <time>2020-06-17T10:03:46Z</time>
      </trkpt>
      <trkpt lat="49.26248" lon="-0.29126">
        <ele>36</ele>
        <time>2020-06-17T10:03:47Z</time>
      </trkpt>
      <trkpt lat="49.26249" lon="-0.29119">
        <ele>35.9</ele>
        <time>2020-06-17T10:03:48Z</time>
      </trkpt>
      <trkpt lat="49.26249" lon="-0.29112">
        <ele>35.8</ele>
        <time>2020-06-17T10:03:49Z</time>
      </trkpt>
      <trkpt lat="49.26249" lon="-0.29103">
        <ele>35.7</ele>
        <time>2020-06-17T10:03:50Z</time>
      </trkpt>
      <trkpt lat="49.26248" lon="-0.29096">
        <ele>35.6</ele>
        <time>2020-06-17T10:03:51Z</time>
      </trkpt>
      <trkpt lat="49.26247" lon="-0.29088">
        <ele>35.5</ele>
        <time>2020-06-17T10:03:52Z</time>
      </trkpt>
      <trkpt lat="49.26244" lon="-0.29079">
        <ele>35.4</ele>
        <time>2020-06-17T10:03:53Z</time>
      </trkpt>
      <trkpt lat="49.26242" lon="-0.29072">
        <ele>35.3</ele>
        <time>2020-06-17T10:03:54Z</time>
      </trkpt>
      <trkpt lat="49.26239" lon="-0.29064">
        <ele>35.2</ele>
        <time>2020-06-17T10:03:55Z</time>
      </trkpt>
      <trkpt lat="49.26236" lon="-0.29055">
        <ele>35.1</ele>
        <time>2020-06-17T10:03:56Z</time>
      </trkpt>
      <trkpt lat="49.26233" lon="-0.29047">
        <ele>35.1</ele>
        <time>2020-06-17T10:03:57Z</time>
      </trkpt>
      <trkpt lat="49.2623" lon="-0.29039">
        <ele>35</ele>
        <time>2020-06-17T10:03:58Z</time>
      </trkpt>
      <trkpt lat="49.26229" lon="-0.2903">
        <ele>35.1</ele>
        <time>2020-06-17T10:03:59Z</time>
      </trkpt>
      <trkpt lat="49.26225" lon="-0.29021">
        <ele>35.2</ele>
        <time>2020-06-17T10:04:00Z</time>
      </trkpt>
      <trkpt lat="49.26222" lon="-0.29012">
        <ele>35.3</ele>
        <time>2020-06-17T10:04:01Z</time>
      </trkpt>
      <trkpt lat="49.26219" lon="-0.29004">
        <ele>35.3</ele>
        <time>2020-06-17T10:04:02Z</time>
      </trkpt>
      <trkpt lat="49.26216" lon="-0.28996">
        <ele>35.3</ele>
        <time>2020-06-17T10:04:03Z</time>
      </trkpt>
      <trkpt lat="49.26214" lon="-0.28987">
        <ele>35.3</ele>
        <time>2020-06-17T10:04:04Z</time>
      </trkpt>
      <trkpt lat="49.26211" lon="-0.28979">
        <ele>35.3</ele>
        <time>2020-06-17T10:04:05Z</time>
      </trkpt>
      <trkpt lat="49.26209" lon="-0.2897">
        <ele>35.4</ele>
        <time>2020-06-17T10:04:06Z</time>
      </trkpt>
      <trkpt lat="49.26207" lon="-0.28962">
        <ele>35.4</ele>
        <time>2020-06-17T10:04:07Z</time>
      </trkpt>
      <trkpt lat="49.26205" lon="-0.28953">
        <ele>35.5</ele>
        <time>2020-06-17T10:04:08Z</time>
      </trkpt>
      <trkpt lat="49.26203" lon="-0.28945">
        <ele>35.5</ele>
        <time>2020-06-17T10:04:09Z</time>
      </trkpt>
      <trkpt lat="49.26201" lon="-0.28936">
        <ele>35.6</ele>
        <time>2020-06-17T10:04:10Z</time>
      </trkpt>
      <trkpt lat="49.26198" lon="-0.28928">
        <ele>35.6</ele>
        <time>2020-06-17T10:04:11Z</time>
      </trkpt>
      <trkpt lat="49.26196" lon="-0.28921">
        <ele>35.6</ele>
        <time>2020-06-17T10:04:12Z</time>
      </trkpt>
      <trkpt lat="49.26193" lon="-0.28913">
        <ele>35.7</ele>
        <time>2020-06-17T10:04:13Z</time>
      </trkpt>
      <trkpt lat="49.2619" lon="-0.28906">
        <ele>35.7</ele>
        <time>2020-06-17T10:04:14Z</time>
      </trkpt>
      <trkpt lat="49.26187" lon="-0.28899">
        <ele>35.7</ele>
        <time>2020-06-17T10:04:15Z</time>
      </trkpt>
      <trkpt lat="49.26184" lon="-0.28892">
        <ele>35.8</ele>
        <time>2020-06-17T10:04:16Z</time>
      </trkpt>
      <trkpt lat="49.26181" lon="-0.28886">
        <ele>35.8</ele>
        <time>2020-06-17T10:04:17Z</time>
      </trkpt>
      <trkpt lat="49.26178" lon="-0.2888">
        <ele>35.8</ele>
        <time>2020-06-17T10:04:18Z</time>
      </trkpt>
      <trkpt lat="49.26173" lon="-0.28872">
        <ele>35.9</ele>
        <time>2020-06-17T10:04:19Z</time>
      </trkpt>
      <trkpt lat="49.26171" lon="-0.28868">
        <ele>35.9</ele>
        <time>2020-06-17T10:04:20Z</time>
      </trkpt>
      <trkpt lat="49.26168" lon="-0.28863">
        <ele>35.9</ele>
        <time>2020-06-17T10:04:21Z</time>
      </trkpt>
      <trkpt lat="49.26164" lon="-0.28858">
        <ele>35.9</ele>
        <time>2020-06-17T10:04:22Z</time>
      </trkpt>
      <trkpt lat="49.26162" lon="-0.28852">
        <ele>35.9</ele>
        <time>2020-06-17T10:04:23Z</time>
      </trkpt>
      <trkpt lat="49.26159" lon="-0.28848">
        <ele>35.9</ele>
        <time>2020-06-17T10:04:24Z</time>
      </trkpt>
      <trkpt lat="49.26157" lon="-0.28842">
        <ele>35.9</ele>
        <time>2020-06-17T10:04:25Z</time>
      </trkpt>
      <trkpt lat="49.26153" lon="-0.28835">
        <ele>35.9</ele>
        <time>2020-06-17T10:04:26Z</time>
      </trkpt>
      <trkpt lat="49.26151" lon="-0.28831">
        <ele>35.9</ele>
        <time>2020-06-17T10:04:27Z</time>
      </trkpt>
      <trkpt lat="49.26148" lon="-0.28826">
        <ele>35.9</ele>
        <time>2020-06-17T10:04:28Z</time>
      </trkpt>
      <trkpt lat="49.26145" lon="-0.28821">
        <ele>35.9</ele>
        <time>2020-06-17T10:04:29Z</time>
      </trkpt>
      <trkpt lat="49.26143" lon="-0.28815">
        <ele>35.9</ele>
        <time>2020-06-17T10:04:30Z</time>
      </trkpt>
      <trkpt lat="49.2614" lon="-0.28809">
        <ele>35.9</ele>
        <time>2020-06-17T10:04:31Z</time>
      </trkpt>
      <trkpt lat="49.26137" lon="-0.28803">
        <ele>35.9</ele>
        <time>2020-06-17T10:04:32Z</time>
      </trkpt>
      <trkpt lat="49.26134" lon="-0.28797">
        <ele>35.9</ele>
        <time>2020-06-17T10:04:33Z</time>
      </trkpt>
      <trkpt lat="49.2613" lon="-0.2879">
        <ele>35.9</ele>
        <time>2020-06-17T10:04:34Z</time>
      </trkpt>
      <trkpt lat="49.26127" lon="-0.28784">
        <ele>35.9</ele>
        <time>2020-06-17T10:04:35Z</time>
      </trkpt>
      <trkpt lat="49.26124" lon="-0.28778">
        <ele>35.9</ele>
        <time>2020-06-17T10:04:36Z</time>
      </trkpt>
      <trkpt lat="49.26121" lon="-0.28773">
        <ele>35.9</ele>
        <time>2020-06-17T10:04:37Z</time>
      </trkpt>
      <trkpt lat="49.26116" lon="-0.28768">
        <ele>35.9</ele>
        <time>2020-06-17T10:04:38Z</time>
      </trkpt>
      <trkpt lat="49.26112" lon="-0.28763">
        <ele>35.9</ele>
        <time>2020-06-17T10:04:39Z</time>
      </trkpt>
      <trkpt lat="49.26109" lon="-0.28756">
        <ele>35.9</ele>
        <time>2020-06-17T10:04:40Z</time>
      </trkpt>
      <trkpt lat="49.26105" lon="-0.2875">
        <ele>36</ele>
        <time>2020-06-17T10:04:41Z</time>
      </trkpt>
      <trkpt lat="49.26101" lon="-0.28743">
        <ele>36.1</ele>
        <time>2020-06-17T10:04:42Z</time>
      </trkpt>
      <trkpt lat="49.26097" lon="-0.28738">
        <ele>36.2</ele>
        <time>2020-06-17T10:04:43Z</time>
      </trkpt>
      <trkpt lat="49.26093" lon="-0.28733">
        <ele>36.3</ele>
        <time>2020-06-17T10:04:44Z</time>
      </trkpt>
      <trkpt lat="49.26089" lon="-0.28729">
        <ele>36.5</ele>
        <time>2020-06-17T10:04:45Z</time>
      </trkpt>
      <trkpt lat="49.26086" lon="-0.28724">
        <ele>36.5</ele>
        <time>2020-06-17T10:04:46Z</time>
      </trkpt>
      <trkpt lat="49.26083" lon="-0.28718">
        <ele>36.6</ele>
        <time>2020-06-17T10:04:47Z</time>
      </trkpt>
      <trkpt lat="49.26079" lon="-0.28711">
        <ele>36.6</ele>
        <time>2020-06-17T10:04:48Z</time>
      </trkpt>
      <trkpt lat="49.26075" lon="-0.28704">
        <ele>36.7</ele>
        <time>2020-06-17T10:04:49Z</time>
      </trkpt>
      <trkpt lat="49.26071" lon="-0.28696">
        <ele>36.8</ele>
        <time>2020-06-17T10:04:50Z</time>
      </trkpt>
      <trkpt lat="49.26067" lon="-0.28691">
        <ele>36.8</ele>
        <time>2020-06-17T10:04:51Z</time>
      </trkpt>
      <trkpt lat="49.26064" lon="-0.28686">
        <ele>36.9</ele>
        <time>2020-06-17T10:04:52Z</time>
      </trkpt>
      <trkpt lat="49.2606" lon="-0.28681">
        <ele>36.9</ele>
        <time>2020-06-17T10:04:53Z</time>
      </trkpt>
      <trkpt lat="49.26056" lon="-0.28676">
        <ele>36.9</ele>
        <time>2020-06-17T10:04:54Z</time>
      </trkpt>
      <trkpt lat="49.26052" lon="-0.28672">
        <ele>37</ele>
        <time>2020-06-17T10:04:55Z</time>
      </trkpt>
      <trkpt lat="49.26047" lon="-0.28668">
        <ele>37</ele>
        <time>2020-06-17T10:04:56Z</time>
      </trkpt>
      <trkpt lat="49.26043" lon="-0.28663">
        <ele>37.1</ele>
        <time>2020-06-17T10:04:57Z</time>
      </trkpt>
      <trkpt lat="49.26038" lon="-0.28657">
        <ele>37.1</ele>
        <time>2020-06-17T10:04:58Z</time>
      </trkpt>
      <trkpt lat="49.26034" lon="-0.28651">
        <ele>37.1</ele>
        <time>2020-06-17T10:04:59Z</time>
      </trkpt>
      <trkpt lat="49.26029" lon="-0.28646">
        <ele>37.2</ele>
        <time>2020-06-17T10:05:00Z</time>
      </trkpt>
      <trkpt lat="49.26024" lon="-0.2864">
        <ele>37.2</ele>
        <time>2020-06-17T10:05:01Z</time>
      </trkpt>
      <trkpt lat="49.26019" lon="-0.28635">
        <ele>37.1</ele>
        <time>2020-06-17T10:05:02Z</time>
      </trkpt>
      <trkpt lat="49.26015" lon="-0.28631">
        <ele>37.1</ele>
        <time>2020-06-17T10:05:03Z</time>
      </trkpt>
      <trkpt lat="49.26011" lon="-0.28626">
        <ele>37.1</ele>
        <time>2020-06-17T10:05:04Z</time>
      </trkpt>
      <trkpt lat="49.26007" lon="-0.28621">
        <ele>37.1</ele>
        <time>2020-06-17T10:05:05Z</time>
      </trkpt>
      <trkpt lat="49.26002" lon="-0.28615">
        <ele>37.1</ele>
        <time>2020-06-17T10:05:06Z</time>
      </trkpt>
      <trkpt lat="49.25998" lon="-0.28608">
        <ele>37</ele>
        <time>2020-06-17T10:05:07Z</time>
      </trkpt>
      <trkpt lat="49.25994" lon="-0.28602">
        <ele>37</ele>
        <time>2020-06-17T10:05:08Z</time>
      </trkpt>
      <trkpt lat="49.2599" lon="-0.28595">
        <ele>37</ele>
        <time>2020-06-17T10:05:09Z</time>
      </trkpt>
      <trkpt lat="49.25986" lon="-0.28588">
        <ele>37</ele>
        <time>2020-06-17T10:05:10Z</time>
      </trkpt>
      <trkpt lat="49.25982" lon="-0.28582">
        <ele>37</ele>
        <time>2020-06-17T10:05:11Z</time>
      </trkpt>
      <trkpt lat="49.25979" lon="-0.28575">
        <ele>37</ele>
        <time>2020-06-17T10:05:12Z</time>
      </trkpt>
      <trkpt lat="49.25976" lon="-0.28568">
        <ele>37</ele>
        <time>2020-06-17T10:05:13Z</time>
      </trkpt>
      <trkpt lat="49.25973" lon="-0.28561">
        <ele>37</ele>
        <time>2020-06-17T10:05:14Z</time>
      </trkpt>
      <trkpt lat="49.25971" lon="-0.28554">
        <ele>37</ele>
        <time>2020-06-17T10:05:15Z</time>
      </trkpt>
      <trkpt lat="49.25968" lon="-0.28549">
        <ele>37</ele>
        <time>2020-06-17T10:05:16Z</time>
      </trkpt>
      <trkpt lat="49.25965" lon="-0.28543">
        <ele>37</ele>
        <time>2020-06-17T10:05:17Z</time>
      </trkpt>
      <trkpt lat="49.25961" lon="-0.28537">
        <ele>37</ele>
        <time>2020-06-17T10:05:18Z</time>
      </trkpt>
      <trkpt lat="49.25957" lon="-0.2853">
        <ele>37</ele>
        <time>2020-06-17T10:05:19Z</time>
      </trkpt>
      <trkpt lat="49.25953" lon="-0.28523">
        <ele>37</ele>
        <time>2020-06-17T10:05:20Z</time>
      </trkpt>
      <trkpt lat="49.25949" lon="-0.28515">
        <ele>37</ele>
        <time>2020-06-17T10:05:21Z</time>
      </trkpt>
      <trkpt lat="49.25946" lon="-0.28507">
        <ele>37</ele>
        <time>2020-06-17T10:05:22Z</time>
      </trkpt>
      <trkpt lat="49.25941" lon="-0.285">
        <ele>37.1</ele>
        <time>2020-06-17T10:05:23Z</time>
      </trkpt>
      <trkpt lat="49.25935" lon="-0.28494">
        <ele>37.1</ele>
        <time>2020-06-17T10:05:24Z</time>
      </trkpt>
      <trkpt lat="49.2593" lon="-0.28489">
        <ele>37.2</ele>
        <time>2020-06-17T10:05:25Z</time>
      </trkpt>
      <trkpt lat="49.25923" lon="-0.28482">
        <ele>37.2</ele>
        <time>2020-06-17T10:05:26Z</time>
      </trkpt>
      <trkpt lat="49.25917" lon="-0.28477">
        <ele>37.2</ele>
        <time>2020-06-17T10:05:27Z</time>
      </trkpt>
      <trkpt lat="49.25911" lon="-0.28472">
        <ele>37.2</ele>
        <time>2020-06-17T10:05:28Z</time>
      </trkpt>
      <trkpt lat="49.25905" lon="-0.28467">
        <ele>37.2</ele>
        <time>2020-06-17T10:05:29Z</time>
      </trkpt>
      <trkpt lat="49.25899" lon="-0.28464">
        <ele>37.3</ele>
        <time>2020-06-17T10:05:30Z</time>
      </trkpt>
      <trkpt lat="49.25891" lon="-0.2846">
        <ele>37.3</ele>
        <time>2020-06-17T10:05:31Z</time>
      </trkpt>
      <trkpt lat="49.25885" lon="-0.28456">
        <ele>37.3</ele>
        <time>2020-06-17T10:05:32Z</time>
      </trkpt>
      <trkpt lat="49.25879" lon="-0.28451">
        <ele>37.3</ele>
        <time>2020-06-17T10:05:33Z</time>
      </trkpt>
      <trkpt lat="49.25873" lon="-0.28447">
        <ele>37.3</ele>
        <time>2020-06-17T10:05:34Z</time>
      </trkpt>
      <trkpt lat="49.25868" lon="-0.28443">
        <ele>37.3</ele>
        <time>2020-06-17T10:05:35Z</time>
      </trkpt>
      <trkpt lat="49.25862" lon="-0.28439">
        <ele>37.3</ele>
        <time>2020-06-17T10:05:36Z</time>
      </trkpt>
      <trkpt lat="49.25857" lon="-0.28435">
        <ele>37.3</ele>
        <time>2020-06-17T10:05:37Z</time>
      </trkpt>
      <trkpt lat="49.25852" lon="-0.28433">
        <ele>37.3</ele>
        <time>2020-06-17T10:05:38Z</time>
      </trkpt>
      <trkpt lat="49.25847" lon="-0.28432">
        <ele>37.3</ele>
        <time>2020-06-17T10:05:39Z</time>
      </trkpt>
      <trkpt lat="49.25842" lon="-0.28429">
        <ele>37.3</ele>
        <time>2020-06-17T10:05:40Z</time>
      </trkpt>
      <trkpt lat="49.25837" lon="-0.28421">
        <ele>37.3</ele>
        <time>2020-06-17T10:05:41Z</time>
      </trkpt>
      <trkpt lat="49.25831" lon="-0.28417">
        <ele>37.3</ele>
        <time>2020-06-17T10:05:42Z</time>
      </trkpt>
      <trkpt lat="49.25826" lon="-0.28413">
        <ele>37.3</ele>
        <time>2020-06-17T10:05:43Z</time>
      </trkpt>
      <trkpt lat="49.2582" lon="-0.28409">
        <ele>37.3</ele>
        <time>2020-06-17T10:05:44Z</time>
      </trkpt>
      <trkpt lat="49.25814" lon="-0.28406">
        <ele>37.3</ele>
        <time>2020-06-17T10:05:45Z</time>
      </trkpt>
      <trkpt lat="49.25807" lon="-0.28402">
        <ele>37.3</ele>
        <time>2020-06-17T10:05:46Z</time>
      </trkpt>
      <trkpt lat="49.258" lon="-0.28397">
        <ele>37.2</ele>
        <time>2020-06-17T10:05:47Z</time>
      </trkpt>
      <trkpt lat="49.25793" lon="-0.28393">
        <ele>37.2</ele>
        <time>2020-06-17T10:05:48Z</time>
      </trkpt>
      <trkpt lat="49.25786" lon="-0.28388">
        <ele>37.2</ele>
        <time>2020-06-17T10:05:49Z</time>
      </trkpt>
      <trkpt lat="49.2578" lon="-0.28384">
        <ele>37.2</ele>
        <time>2020-06-17T10:05:50Z</time>
      </trkpt>
      <trkpt lat="49.25773" lon="-0.2838">
        <ele>37.2</ele>
        <time>2020-06-17T10:05:51Z</time>
      </trkpt>
      <trkpt lat="49.25767" lon="-0.28376">
        <ele>37.2</ele>
        <time>2020-06-17T10:05:52Z</time>
      </trkpt>
      <trkpt lat="49.25761" lon="-0.28372">
        <ele>37.2</ele>
        <time>2020-06-17T10:05:53Z</time>
      </trkpt>
      <trkpt lat="49.25756" lon="-0.2837">
        <ele>37.2</ele>
        <time>2020-06-17T10:05:54Z</time>
      </trkpt>
      <trkpt lat="49.2575" lon="-0.28368">
        <ele>37.2</ele>
        <time>2020-06-17T10:05:55Z</time>
      </trkpt>
      <trkpt lat="49.25743" lon="-0.28364">
        <ele>37.2</ele>
        <time>2020-06-17T10:05:56Z</time>
      </trkpt>
      <trkpt lat="49.25738" lon="-0.28362">
        <ele>37.2</ele>
        <time>2020-06-17T10:05:57Z</time>
      </trkpt>
      <trkpt lat="49.25731" lon="-0.28359">
        <ele>37.2</ele>
        <time>2020-06-17T10:05:58Z</time>
      </trkpt>
      <trkpt lat="49.25726" lon="-0.28357">
        <ele>37.2</ele>
        <time>2020-06-17T10:05:59Z</time>
      </trkpt>
      <trkpt lat="49.25722" lon="-0.28355">
        <ele>37.2</ele>
        <time>2020-06-17T10:06:00Z</time>
      </trkpt>
      <trkpt lat="49.25718" lon="-0.28353">
        <ele>37.2</ele>
        <time>2020-06-17T10:06:01Z</time>
      </trkpt>
      <trkpt lat="49.25714" lon="-0.28352">
        <ele>37.2</ele>
        <time>2020-06-17T10:06:02Z</time>
      </trkpt>
      <trkpt lat="49.25709" lon="-0.28349">
        <ele>37.2</ele>
        <time>2020-06-17T10:06:03Z</time>
      </trkpt>
      <trkpt lat="49.25703" lon="-0.28348">
        <ele>37.2</ele>
        <time>2020-06-17T10:06:04Z</time>
      </trkpt>
      <trkpt lat="49.25699" lon="-0.28347">
        <ele>37.2</ele>
        <time>2020-06-17T10:06:05Z</time>
      </trkpt>
      <trkpt lat="49.25694" lon="-0.28345">
        <ele>37.1</ele>
        <time>2020-06-17T10:06:06Z</time>
      </trkpt>
      <trkpt lat="49.25689" lon="-0.28343">
        <ele>37.1</ele>
        <time>2020-06-17T10:06:07Z</time>
      </trkpt>
      <trkpt lat="49.25683" lon="-0.2834">
        <ele>37.1</ele>
        <time>2020-06-17T10:06:08Z</time>
      </trkpt>
      <trkpt lat="49.25677" lon="-0.28337">
        <ele>37.1</ele>
        <time>2020-06-17T10:06:09Z</time>
      </trkpt>
      <trkpt lat="49.25672" lon="-0.28334">
        <ele>37</ele>
        <time>2020-06-17T10:06:10Z</time>
      </trkpt>
      <trkpt lat="49.25667" lon="-0.28331">
        <ele>37</ele>
        <time>2020-06-17T10:06:11Z</time>
      </trkpt>
      <trkpt lat="49.25662" lon="-0.28329">
        <ele>37</ele>
        <time>2020-06-17T10:06:12Z</time>
      </trkpt>
      <trkpt lat="49.25657" lon="-0.28326">
        <ele>36.9</ele>
        <time>2020-06-17T10:06:13Z</time>
      </trkpt>
      <trkpt lat="49.25651" lon="-0.28323">
        <ele>36.9</ele>
        <time>2020-06-17T10:06:14Z</time>
      </trkpt>
      <trkpt lat="49.25645" lon="-0.28319">
        <ele>36.9</ele>
        <time>2020-06-17T10:06:15Z</time>
      </trkpt>
      <trkpt lat="49.25639" lon="-0.28315">
        <ele>36.9</ele>
        <time>2020-06-17T10:06:16Z</time>
      </trkpt>
      <trkpt lat="49.25634" lon="-0.28312">
        <ele>36.8</ele>
        <time>2020-06-17T10:06:17Z</time>
      </trkpt>
      <trkpt lat="49.25628" lon="-0.28309">
        <ele>36.8</ele>
        <time>2020-06-17T10:06:18Z</time>
      </trkpt>
      <trkpt lat="49.25622" lon="-0.28307">
        <ele>36.8</ele>
        <time>2020-06-17T10:06:19Z</time>
      </trkpt>
      <trkpt lat="49.25617" lon="-0.28304">
        <ele>36.7</ele>
        <time>2020-06-17T10:06:20Z</time>
      </trkpt>
      <trkpt lat="49.25611" lon="-0.28302">
        <ele>36.7</ele>
        <time>2020-06-17T10:06:21Z</time>
      </trkpt>
      <trkpt lat="49.25605" lon="-0.283">
        <ele>36.7</ele>
        <time>2020-06-17T10:06:22Z</time>
      </trkpt>
      <trkpt lat="49.256" lon="-0.28297">
        <ele>36.6</ele>
        <time>2020-06-17T10:06:23Z</time>
      </trkpt>
      <trkpt lat="49.25594" lon="-0.28294">
        <ele>36.6</ele>
        <time>2020-06-17T10:06:24Z</time>
      </trkpt>
      <trkpt lat="49.25589" lon="-0.28291">
        <ele>36.6</ele>
        <time>2020-06-17T10:06:25Z</time>
      </trkpt>
      <trkpt lat="49.25584" lon="-0.28289">
        <ele>36.5</ele>
        <time>2020-06-17T10:06:26Z</time>
      </trkpt>
      <trkpt lat="49.25578" lon="-0.28286">
        <ele>36.5</ele>
        <time>2020-06-17T10:06:27Z</time>
      </trkpt>
      <trkpt lat="49.25573" lon="-0.28282">
        <ele>36.5</ele>
        <time>2020-06-17T10:06:28Z</time>
      </trkpt>
      <trkpt lat="49.25567" lon="-0.28278">
        <ele>36.5</ele>
        <time>2020-06-17T10:06:29Z</time>
      </trkpt>
      <trkpt lat="49.25561" lon="-0.28275">
        <ele>36.4</ele>
        <time>2020-06-17T10:06:30Z</time>
      </trkpt>
      <trkpt lat="49.25554" lon="-0.2827">
        <ele>36.4</ele>
        <time>2020-06-17T10:06:31Z</time>
      </trkpt>
      <trkpt lat="49.25548" lon="-0.28267">
        <ele>36.4</ele>
        <time>2020-06-17T10:06:32Z</time>
      </trkpt>
      <trkpt lat="49.25542" lon="-0.28263">
        <ele>36.4</ele>
        <time>2020-06-17T10:06:33Z</time>
      </trkpt>
      <trkpt lat="49.25536" lon="-0.2826">
        <ele>36.3</ele>
        <time>2020-06-17T10:06:34Z</time>
      </trkpt>
      <trkpt lat="49.2553" lon="-0.28257">
        <ele>36.2</ele>
        <time>2020-06-17T10:06:35Z</time>
      </trkpt>
      <trkpt lat="49.25524" lon="-0.28255">
        <ele>36.1</ele>
        <time>2020-06-17T10:06:36Z</time>
      </trkpt>
      <trkpt lat="49.25517" lon="-0.28253">
        <ele>36</ele>
        <time>2020-06-17T10:06:37Z</time>
      </trkpt>
      <trkpt lat="49.25511" lon="-0.2825">
        <ele>36</ele>
        <time>2020-06-17T10:06:38Z</time>
      </trkpt>
      <trkpt lat="49.25505" lon="-0.28246">
        <ele>35.9</ele>
        <time>2020-06-17T10:06:39Z</time>
      </trkpt>
      <trkpt lat="49.25498" lon="-0.28243">
        <ele>35.9</ele>
        <time>2020-06-17T10:06:40Z</time>
      </trkpt>
      <trkpt lat="49.25492" lon="-0.2824">
        <ele>35.9</ele>
        <time>2020-06-17T10:06:41Z</time>
      </trkpt>
      <trkpt lat="49.25485" lon="-0.28237">
        <ele>35.8</ele>
        <time>2020-06-17T10:06:42Z</time>
      </trkpt>
      <trkpt lat="49.25479" lon="-0.28234">
        <ele>35.8</ele>
        <time>2020-06-17T10:06:43Z</time>
      </trkpt>
      <trkpt lat="49.25472" lon="-0.28231">
        <ele>35.8</ele>
        <time>2020-06-17T10:06:44Z</time>
      </trkpt>
      <trkpt lat="49.25466" lon="-0.28228">
        <ele>35.9</ele>
        <time>2020-06-17T10:06:45Z</time>
      </trkpt>
      <trkpt lat="49.25459" lon="-0.28225">
        <ele>35.9</ele>
        <time>2020-06-17T10:06:46Z</time>
      </trkpt>
      <trkpt lat="49.25453" lon="-0.28222">
        <ele>35.9</ele>
        <time>2020-06-17T10:06:47Z</time>
      </trkpt>
      <trkpt lat="49.25446" lon="-0.28217">
        <ele>35.9</ele>
        <time>2020-06-17T10:06:48Z</time>
      </trkpt>
      <trkpt lat="49.2544" lon="-0.28213">
        <ele>35.8</ele>
        <time>2020-06-17T10:06:49Z</time>
      </trkpt>
      <trkpt lat="49.25433" lon="-0.28209">
        <ele>35.8</ele>
        <time>2020-06-17T10:06:50Z</time>
      </trkpt>
      <trkpt lat="49.25428" lon="-0.28205">
        <ele>35.7</ele>
        <time>2020-06-17T10:06:51Z</time>
      </trkpt>
      <trkpt lat="49.25422" lon="-0.28202">
        <ele>35.6</ele>
        <time>2020-06-17T10:06:52Z</time>
      </trkpt>
      <trkpt lat="49.25416" lon="-0.28199">
        <ele>35.5</ele>
        <time>2020-06-17T10:06:53Z</time>
      </trkpt>
      <trkpt lat="49.2541" lon="-0.28196">
        <ele>35.4</ele>
        <time>2020-06-17T10:06:54Z</time>
      </trkpt>
      <trkpt lat="49.25404" lon="-0.28192">
        <ele>35.4</ele>
        <time>2020-06-17T10:06:55Z</time>
      </trkpt>
      <trkpt lat="49.25399" lon="-0.28187">
        <ele>35.4</ele>
        <time>2020-06-17T10:06:56Z</time>
      </trkpt>
      <trkpt lat="49.25392" lon="-0.28183">
        <ele>35.3</ele>
        <time>2020-06-17T10:06:57Z</time>
      </trkpt>
      <trkpt lat="49.25385" lon="-0.28179">
        <ele>35.3</ele>
        <time>2020-06-17T10:06:58Z</time>
      </trkpt>
      <trkpt lat="49.25379" lon="-0.28174">
        <ele>35.2</ele>
        <time>2020-06-17T10:06:59Z</time>
      </trkpt>
      <trkpt lat="49.25373" lon="-0.28171">
        <ele>35.2</ele>
        <time>2020-06-17T10:07:00Z</time>
      </trkpt>
      <trkpt lat="49.25367" lon="-0.28167">
        <ele>35.1</ele>
        <time>2020-06-17T10:07:01Z</time>
      </trkpt>
      <trkpt lat="49.25362" lon="-0.28163">
        <ele>35.1</ele>
        <time>2020-06-17T10:07:02Z</time>
      </trkpt>
      <trkpt lat="49.25355" lon="-0.28159">
        <ele>35</ele>
        <time>2020-06-17T10:07:03Z</time>
      </trkpt>
      <trkpt lat="49.25349" lon="-0.28155">
        <ele>34.9</ele>
        <time>2020-06-17T10:07:04Z</time>
      </trkpt>
      <trkpt lat="49.25343" lon="-0.28151">
        <ele>34.8</ele>
        <time>2020-06-17T10:07:05Z</time>
      </trkpt>
      <trkpt lat="49.25337" lon="-0.28147">
        <ele>34.7</ele>
        <time>2020-06-17T10:07:06Z</time>
      </trkpt>
      <trkpt lat="49.25331" lon="-0.28143">
        <ele>34.6</ele>
        <time>2020-06-17T10:07:07Z</time>
      </trkpt>
      <trkpt lat="49.25325" lon="-0.28138">
        <ele>34.5</ele>
        <time>2020-06-17T10:07:08Z</time>
      </trkpt>
      <trkpt lat="49.25319" lon="-0.28134">
        <ele>34.4</ele>
        <time>2020-06-17T10:07:09Z</time>
      </trkpt>
      <trkpt lat="49.25313" lon="-0.28131">
        <ele>34.3</ele>
        <time>2020-06-17T10:07:10Z</time>
      </trkpt>
      <trkpt lat="49.25307" lon="-0.28127">
        <ele>34.3</ele>
        <time>2020-06-17T10:07:11Z</time>
      </trkpt>
      <trkpt lat="49.25301" lon="-0.28124">
        <ele>34.2</ele>
        <time>2020-06-17T10:07:12Z</time>
      </trkpt>
      <trkpt lat="49.25295" lon="-0.28119">
        <ele>34.1</ele>
        <time>2020-06-17T10:07:13Z</time>
      </trkpt>
      <trkpt lat="49.25289" lon="-0.28114">
        <ele>34.1</ele>
        <time>2020-06-17T10:07:14Z</time>
      </trkpt>
      <trkpt lat="49.25283" lon="-0.28109">
        <ele>34</ele>
        <time>2020-06-17T10:07:15Z</time>
      </trkpt>
      <trkpt lat="49.25277" lon="-0.28104">
        <ele>33.9</ele>
        <time>2020-06-17T10:07:16Z</time>
      </trkpt>
      <trkpt lat="49.25271" lon="-0.28099">
        <ele>33.8</ele>
        <time>2020-06-17T10:07:17Z</time>
      </trkpt>
      <trkpt lat="49.25265" lon="-0.28096">
        <ele>33.7</ele>
        <time>2020-06-17T10:07:18Z</time>
      </trkpt>
      <trkpt lat="49.2526" lon="-0.28092">
        <ele>33.6</ele>
        <time>2020-06-17T10:07:19Z</time>
      </trkpt>
      <trkpt lat="49.25255" lon="-0.28088">
        <ele>33.6</ele>
        <time>2020-06-17T10:07:20Z</time>
      </trkpt>
      <trkpt lat="49.2525" lon="-0.28084">
        <ele>33.5</ele>
        <time>2020-06-17T10:07:21Z</time>
      </trkpt>
      <trkpt lat="49.25244" lon="-0.28079">
        <ele>33.4</ele>
        <time>2020-06-17T10:07:22Z</time>
      </trkpt>
      <trkpt lat="49.25238" lon="-0.28075">
        <ele>33.3</ele>
        <time>2020-06-17T10:07:23Z</time>
      </trkpt>
      <trkpt lat="49.25232" lon="-0.2807">
        <ele>33.2</ele>
        <time>2020-06-17T10:07:24Z</time>
      </trkpt>
      <trkpt lat="49.25227" lon="-0.28067">
        <ele>33.1</ele>
        <time>2020-06-17T10:07:25Z</time>
      </trkpt>
      <trkpt lat="49.25222" lon="-0.28062">
        <ele>33.1</ele>
        <time>2020-06-17T10:07:26Z</time>
      </trkpt>
      <trkpt lat="49.25217" lon="-0.28058">
        <ele>33</ele>
        <time>2020-06-17T10:07:27Z</time>
      </trkpt>
      <trkpt lat="49.25211" lon="-0.28054">
        <ele>32.9</ele>
        <time>2020-06-17T10:07:28Z</time>
      </trkpt>
      <trkpt lat="49.25205" lon="-0.28049">
        <ele>32.8</ele>
        <time>2020-06-17T10:07:29Z</time>
      </trkpt>
      <trkpt lat="49.252" lon="-0.28044">
        <ele>32.8</ele>
        <time>2020-06-17T10:07:30Z</time>
      </trkpt>
      <trkpt lat="49.25195" lon="-0.2804">
        <ele>32.7</ele>
        <time>2020-06-17T10:07:31Z</time>
      </trkpt>
      <trkpt lat="49.25189" lon="-0.28036">
        <ele>32.6</ele>
        <time>2020-06-17T10:07:32Z</time>
      </trkpt>
      <trkpt lat="49.25183" lon="-0.28032">
        <ele>32.6</ele>
        <time>2020-06-17T10:07:33Z</time>
      </trkpt>
      <trkpt lat="49.25177" lon="-0.28028">
        <ele>32.5</ele>
        <time>2020-06-17T10:07:34Z</time>
      </trkpt>
      <trkpt lat="49.25171" lon="-0.28026">
        <ele>32.4</ele>
        <time>2020-06-17T10:07:35Z</time>
      </trkpt>
      <trkpt lat="49.25165" lon="-0.28022">
        <ele>32.3</ele>
        <time>2020-06-17T10:07:36Z</time>
      </trkpt>
      <trkpt lat="49.25159" lon="-0.28019">
        <ele>32.3</ele>
        <time>2020-06-17T10:07:37Z</time>
      </trkpt>
      <trkpt lat="49.25154" lon="-0.28016">
        <ele>32.2</ele>
        <time>2020-06-17T10:07:38Z</time>
      </trkpt>
      <trkpt lat="49.25148" lon="-0.28012">
        <ele>32</ele>
        <time>2020-06-17T10:07:39Z</time>
      </trkpt>
      <trkpt lat="49.25142" lon="-0.28009">
        <ele>31.9</ele>
        <time>2020-06-17T10:07:40Z</time>
      </trkpt>
      <trkpt lat="49.25136" lon="-0.28005">
        <ele>31.8</ele>
        <time>2020-06-17T10:07:41Z</time>
      </trkpt>
      <trkpt lat="49.25129" lon="-0.28002">
        <ele>31.6</ele>
        <time>2020-06-17T10:07:42Z</time>
      </trkpt>
      <trkpt lat="49.25123" lon="-0.27999">
        <ele>31.5</ele>
        <time>2020-06-17T10:07:43Z</time>
      </trkpt>
      <trkpt lat="49.25118" lon="-0.27996">
        <ele>31.4</ele>
        <time>2020-06-17T10:07:44Z</time>
      </trkpt>
      <trkpt lat="49.25112" lon="-0.27994">
        <ele>31.3</ele>
        <time>2020-06-17T10:07:45Z</time>
      </trkpt>
      <trkpt lat="49.25107" lon="-0.27991">
        <ele>31.2</ele>
        <time>2020-06-17T10:07:46Z</time>
      </trkpt>
      <trkpt lat="49.25101" lon="-0.27987">
        <ele>31.1</ele>
        <time>2020-06-17T10:07:47Z</time>
      </trkpt>
      <trkpt lat="49.25095" lon="-0.27982">
        <ele>31</ele>
        <time>2020-06-17T10:07:48Z</time>
      </trkpt>
      <trkpt lat="49.2509" lon="-0.27978">
        <ele>30.9</ele>
        <time>2020-06-17T10:07:49Z</time>
      </trkpt>
      <trkpt lat="49.25084" lon="-0.27973">
        <ele>30.7</ele>
        <time>2020-06-17T10:07:50Z</time>
      </trkpt>
      <trkpt lat="49.25079" lon="-0.27968">
        <ele>30.5</ele>
        <time>2020-06-17T10:07:51Z</time>
      </trkpt>
      <trkpt lat="49.25073" lon="-0.27964">
        <ele>30.3</ele>
        <time>2020-06-17T10:07:52Z</time>
      </trkpt>
      <trkpt lat="49.25068" lon="-0.27959">
        <ele>30.1</ele>
        <time>2020-06-17T10:07:53Z</time>
      </trkpt>
      <trkpt lat="49.25063" lon="-0.27953">
        <ele>29.9</ele>
        <time>2020-06-17T10:07:54Z</time>
      </trkpt>
      <trkpt lat="49.25057" lon="-0.27947">
        <ele>29.6</ele>
        <time>2020-06-17T10:07:55Z</time>
      </trkpt>
      <trkpt lat="49.25052" lon="-0.27941">
        <ele>29.2</ele>
        <time>2020-06-17T10:07:56Z</time>
      </trkpt>
      <trkpt lat="49.25045" lon="-0.27934">
        <ele>28.9</ele>
        <time>2020-06-17T10:07:57Z</time>
      </trkpt>
      <trkpt lat="49.25039" lon="-0.27928">
        <ele>28.4</ele>
        <time>2020-06-17T10:07:58Z</time>
      </trkpt>
      <trkpt lat="49.25031" lon="-0.27921">
        <ele>27.9</ele>
        <time>2020-06-17T10:07:59Z</time>
      </trkpt>
      <trkpt lat="49.25024" lon="-0.27912">
        <ele>27.4</ele>
        <time>2020-06-17T10:08:00Z</time>
      </trkpt>
      <trkpt lat="49.25017" lon="-0.27904">
        <ele>26.9</ele>
        <time>2020-06-17T10:08:01Z</time>
      </trkpt>
      <trkpt lat="49.25011" lon="-0.27897">
        <ele>26.4</ele>
        <time>2020-06-17T10:08:02Z</time>
      </trkpt>
      <trkpt lat="49.25005" lon="-0.2789">
        <ele>25.9</ele>
        <time>2020-06-17T10:08:03Z</time>
      </trkpt>
      <trkpt lat="49.25" lon="-0.27883">
        <ele>25.4</ele>
        <time>2020-06-17T10:08:04Z</time>
      </trkpt>
      <trkpt lat="49.24995" lon="-0.27876">
        <ele>24.9</ele>
        <time>2020-06-17T10:08:05Z</time>
      </trkpt>
      <trkpt lat="49.24991" lon="-0.27869">
        <ele>24.5</ele>
        <time>2020-06-17T10:08:06Z</time>
      </trkpt>
      <trkpt lat="49.24985" lon="-0.27861">
        <ele>23.9</ele>
        <time>2020-06-17T10:08:07Z</time>
      </trkpt>
      <trkpt lat="49.24979" lon="-0.27852">
        <ele>23.3</ele>
        <time>2020-06-17T10:08:08Z</time>
      </trkpt>
      <trkpt lat="49.24973" lon="-0.27842">
        <ele>22.6</ele>
        <time>2020-06-17T10:08:09Z</time>
      </trkpt>
      <trkpt lat="49.24967" lon="-0.27831">
        <ele>22</ele>
        <time>2020-06-17T10:08:10Z</time>
      </trkpt>
      <trkpt lat="49.24961" lon="-0.27821">
        <ele>21.3</ele>
        <time>2020-06-17T10:08:11Z</time>
      </trkpt>
      <trkpt lat="49.24954" lon="-0.2781">
        <ele>20.6</ele>
        <time>2020-06-17T10:08:12Z</time>
      </trkpt>
      <trkpt lat="49.24947" lon="-0.27797">
        <ele>19.9</ele>
        <time>2020-06-17T10:08:13Z</time>
      </trkpt>
      <trkpt lat="49.24941" lon="-0.27785">
        <ele>19.4</ele>
        <time>2020-06-17T10:08:14Z</time>
      </trkpt>
      <trkpt lat="49.24934" lon="-0.27772">
        <ele>18.8</ele>
        <time>2020-06-17T10:08:15Z</time>
      </trkpt>
      <trkpt lat="49.24928" lon="-0.27762">
        <ele>18.3</ele>
        <time>2020-06-17T10:08:16Z</time>
      </trkpt>
      <trkpt lat="49.24922" lon="-0.27751">
        <ele>17.8</ele>
        <time>2020-06-17T10:08:17Z</time>
      </trkpt>
      <trkpt lat="49.24916" lon="-0.27741">
        <ele>17.3</ele>
        <time>2020-06-17T10:08:18Z</time>
      </trkpt>
      <trkpt lat="49.2491" lon="-0.27733">
        <ele>16.9</ele>
        <time>2020-06-17T10:08:19Z</time>
      </trkpt>
      <trkpt lat="49.24903" lon="-0.27726">
        <ele>16.5</ele>
        <time>2020-06-17T10:08:20Z</time>
      </trkpt>
      <trkpt lat="49.24896" lon="-0.27717">
        <ele>16</ele>
        <time>2020-06-17T10:08:21Z</time>
      </trkpt>
      <trkpt lat="49.2489" lon="-0.27711">
        <ele>15.7</ele>
        <time>2020-06-17T10:08:22Z</time>
      </trkpt>
      <trkpt lat="49.24882" lon="-0.27703">
        <ele>15.3</ele>
        <time>2020-06-17T10:08:23Z</time>
      </trkpt>
      <trkpt lat="49.24875" lon="-0.27696">
        <ele>15</ele>
        <time>2020-06-17T10:08:24Z</time>
      </trkpt>
      <trkpt lat="49.24868" lon="-0.2769">
        <ele>14.7</ele>
        <time>2020-06-17T10:08:25Z</time>
      </trkpt>
      <trkpt lat="49.24862" lon="-0.27685">
        <ele>14.5</ele>
        <time>2020-06-17T10:08:26Z</time>
      </trkpt>
      <trkpt lat="49.24856" lon="-0.27679">
        <ele>14.2</ele>
        <time>2020-06-17T10:08:27Z</time>
      </trkpt>
      <trkpt lat="49.24849" lon="-0.27674">
        <ele>14</ele>
        <time>2020-06-17T10:08:28Z</time>
      </trkpt>
      <trkpt lat="49.24843" lon="-0.27669">
        <ele>13.7</ele>
        <time>2020-06-17T10:08:29Z</time>
      </trkpt>
      <trkpt lat="49.24837" lon="-0.27662">
        <ele>13.5</ele>
        <time>2020-06-17T10:08:30Z</time>
      </trkpt>
      <trkpt lat="49.24831" lon="-0.27657">
        <ele>13.4</ele>
        <time>2020-06-17T10:08:31Z</time>
      </trkpt>
      <trkpt lat="49.24824" lon="-0.27652">
        <ele>13.3</ele>
        <time>2020-06-17T10:08:32Z</time>
      </trkpt>
      <trkpt lat="49.24819" lon="-0.27649">
        <ele>13.3</ele>
        <time>2020-06-17T10:08:33Z</time>
      </trkpt>
      <trkpt lat="49.24814" lon="-0.27644">
        <ele>13.2</ele>
        <time>2020-06-17T10:08:34Z</time>
      </trkpt>
      <trkpt lat="49.24809" lon="-0.27639">
        <ele>13.2</ele>
        <time>2020-06-17T10:08:35Z</time>
      </trkpt>
      <trkpt lat="49.24805" lon="-0.27634">
        <ele>13.2</ele>
        <time>2020-06-17T10:08:36Z</time>
      </trkpt>
      <trkpt lat="49.24801" lon="-0.27627">
        <ele>13.2</ele>
        <time>2020-06-17T10:08:37Z</time>
      </trkpt>
      <trkpt lat="49.24797" lon="-0.27623">
        <ele>13.2</ele>
        <time>2020-06-17T10:08:38Z</time>
      </trkpt>
      <trkpt lat="49.2479" lon="-0.27622">
        <ele>13.4</ele>
        <time>2020-06-17T10:08:39Z</time>
      </trkpt>
      <trkpt lat="49.24784" lon="-0.27623">
        <ele>13.3</ele>
        <time>2020-06-17T10:08:40Z</time>
      </trkpt>
      <trkpt lat="49.24779" lon="-0.27625">
        <ele>13</ele>
        <time>2020-06-17T10:08:41Z</time>
      </trkpt>
      <trkpt lat="49.24772" lon="-0.27629">
        <ele>12.9</ele>
        <time>2020-06-17T10:08:42Z</time>
      </trkpt>
      <trkpt lat="49.24767" lon="-0.27629">
        <ele>12.8</ele>
        <time>2020-06-17T10:08:43Z</time>
      </trkpt>
      <trkpt lat="49.2476" lon="-0.27631">
        <ele>12.7</ele>
        <time>2020-06-17T10:08:44Z</time>
      </trkpt>
      <trkpt lat="49.24753" lon="-0.27633">
        <ele>12.6</ele>
        <time>2020-06-17T10:08:45Z</time>
      </trkpt>
      <trkpt lat="49.24744" lon="-0.27633">
        <ele>12.5</ele>
        <time>2020-06-17T10:08:46Z</time>
      </trkpt>
      <trkpt lat="49.24736" lon="-0.27633">
        <ele>12.3</ele>
        <time>2020-06-17T10:08:47Z</time>
      </trkpt>
      <trkpt lat="49.2473" lon="-0.27632">
        <ele>12.2</ele>
        <time>2020-06-17T10:08:48Z</time>
      </trkpt>
      <trkpt lat="49.24724" lon="-0.27631">
        <ele>12.2</ele>
        <time>2020-06-17T10:08:49Z</time>
      </trkpt>
      <trkpt lat="49.24718" lon="-0.27631">
        <ele>12.1</ele>
        <time>2020-06-17T10:08:50Z</time>
      </trkpt>
      <trkpt lat="49.24712" lon="-0.27637">
        <ele>12</ele>
        <time>2020-06-17T10:08:51Z</time>
      </trkpt>
      <trkpt lat="49.24705" lon="-0.27643">
        <ele>12</ele>
        <time>2020-06-17T10:08:52Z</time>
      </trkpt>
      <trkpt lat="49.24698" lon="-0.27648">
        <ele>12</ele>
        <time>2020-06-17T10:08:53Z</time>
      </trkpt>
      <trkpt lat="49.24689" lon="-0.27652">
        <ele>12</ele>
        <time>2020-06-17T10:08:54Z</time>
      </trkpt>
      <trkpt lat="49.24682" lon="-0.27654">
        <ele>12</ele>
        <time>2020-06-17T10:08:55Z</time>
      </trkpt>
      <trkpt lat="49.24675" lon="-0.27654">
        <ele>11.9</ele>
        <time>2020-06-17T10:08:56Z</time>
      </trkpt>
      <trkpt lat="49.24668" lon="-0.27656">
        <ele>11.9</ele>
        <time>2020-06-17T10:08:57Z</time>
      </trkpt>
      <trkpt lat="49.24661" lon="-0.27655">
        <ele>11.8</ele>
        <time>2020-06-17T10:08:58Z</time>
      </trkpt>
      <trkpt lat="49.24654" lon="-0.27653">
        <ele>11.8</ele>
        <time>2020-06-17T10:08:59Z</time>
      </trkpt>
      <trkpt lat="49.24648" lon="-0.27652">
        <ele>11.8</ele>
        <time>2020-06-17T10:09:00Z</time>
      </trkpt>
      <trkpt lat="49.24641" lon="-0.27653">
        <ele>11.7</ele>
        <time>2020-06-17T10:09:01Z</time>
      </trkpt>
      <trkpt lat="49.24635" lon="-0.27653">
        <ele>11.5</ele>
        <time>2020-06-17T10:09:02Z</time>
      </trkpt>
      <trkpt lat="49.24628" lon="-0.27655">
        <ele>11.4</ele>
        <time>2020-06-17T10:09:03Z</time>
      </trkpt>
      <trkpt lat="49.24623" lon="-0.27657">
        <ele>11.2</ele>
        <time>2020-06-17T10:09:04Z</time>
      </trkpt>
      <trkpt lat="49.24617" lon="-0.2766">
        <ele>11.1</ele>
        <time>2020-06-17T10:09:05Z</time>
      </trkpt>
      <trkpt lat="49.24611" lon="-0.27662">
        <ele>10.9</ele>
        <time>2020-06-17T10:09:06Z</time>
      </trkpt>
      <trkpt lat="49.24605" lon="-0.27664">
        <ele>10.7</ele>
        <time>2020-06-17T10:09:07Z</time>
      </trkpt>
      <trkpt lat="49.24599" lon="-0.27667">
        <ele>10.4</ele>
        <time>2020-06-17T10:09:08Z</time>
      </trkpt>
      <trkpt lat="49.24592" lon="-0.27671">
        <ele>10.1</ele>
        <time>2020-06-17T10:09:09Z</time>
      </trkpt>
      <trkpt lat="49.24586" lon="-0.27677">
        <ele>9.8</ele>
        <time>2020-06-17T10:09:10Z</time>
      </trkpt>
      <trkpt lat="49.24579" lon="-0.27685">
        <ele>9.4</ele>
        <time>2020-06-17T10:09:11Z</time>
      </trkpt>
      <trkpt lat="49.24572" lon="-0.27691">
        <ele>8.9</ele>
        <time>2020-06-17T10:09:12Z</time>
      </trkpt>
      <trkpt lat="49.24564" lon="-0.27697">
        <ele>8.3</ele>
        <time>2020-06-17T10:09:13Z</time>
      </trkpt>
      <trkpt lat="49.24558" lon="-0.27704">
        <ele>7.8</ele>
        <time>2020-06-17T10:09:14Z</time>
      </trkpt>
      <trkpt lat="49.24552" lon="-0.2771">
        <ele>7.4</ele>
        <time>2020-06-17T10:09:15Z</time>
      </trkpt>
      <trkpt lat="49.24545" lon="-0.27715">
        <ele>6.9</ele>
        <time>2020-06-17T10:09:16Z</time>
      </trkpt>
      <trkpt lat="49.24537" lon="-0.27721">
        <ele>6.5</ele>
        <time>2020-06-17T10:09:17Z</time>
      </trkpt>
      <trkpt lat="49.2453" lon="-0.27725">
        <ele>6.2</ele>
        <time>2020-06-17T10:09:18Z</time>
      </trkpt>
      <trkpt lat="49.24522" lon="-0.27729">
        <ele>6.1</ele>
        <time>2020-06-17T10:09:19Z</time>
      </trkpt>
      <trkpt lat="49.24515" lon="-0.27732">
        <ele>6</ele>
        <time>2020-06-17T10:09:20Z</time>
      </trkpt>
      <trkpt lat="49.24508" lon="-0.27734">
        <ele>6</ele>
        <time>2020-06-17T10:09:21Z</time>
      </trkpt>
      <trkpt lat="49.24501" lon="-0.27737">
        <ele>5.7</ele>
        <time>2020-06-17T10:09:22Z</time>
      </trkpt>
      <trkpt lat="49.24493" lon="-0.2774">
        <ele>5.6</ele>
        <time>2020-06-17T10:09:23Z</time>
      </trkpt>
      <trkpt lat="49.24485" lon="-0.27743">
        <ele>5.4</ele>
        <time>2020-06-17T10:09:24Z</time>
      </trkpt>
      <trkpt lat="49.24478" lon="-0.27744">
        <ele>5.4</ele>
        <time>2020-06-17T10:09:25Z</time>
      </trkpt>
      <trkpt lat="49.2447" lon="-0.27746">
        <ele>5.4</ele>
        <time>2020-06-17T10:09:26Z</time>
      </trkpt>
      <trkpt lat="49.24462" lon="-0.27748">
        <ele>5.4</ele>
        <time>2020-06-17T10:09:27Z</time>
      </trkpt>
      <trkpt lat="49.24455" lon="-0.2775">
        <ele>5.4</ele>
        <time>2020-06-17T10:09:28Z</time>
      </trkpt>
      <trkpt lat="49.24448" lon="-0.27752">
        <ele>5.5</ele>
        <time>2020-06-17T10:09:29Z</time>
      </trkpt>
      <trkpt lat="49.24442" lon="-0.27753">
        <ele>5.6</ele>
        <time>2020-06-17T10:09:30Z</time>
      </trkpt>
      <trkpt lat="49.24436" lon="-0.27756">
        <ele>5.6</ele>
        <time>2020-06-17T10:09:31Z</time>
      </trkpt>
      <trkpt lat="49.2443" lon="-0.27757">
        <ele>5.7</ele>
        <time>2020-06-17T10:09:32Z</time>
      </trkpt>
      <trkpt lat="49.24425" lon="-0.27759">
        <ele>5.9</ele>
        <time>2020-06-17T10:09:33Z</time>
      </trkpt>
      <trkpt lat="49.2442" lon="-0.27763">
        <ele>6.2</ele>
        <time>2020-06-17T10:09:34Z</time>
      </trkpt>
      <trkpt lat="49.24415" lon="-0.27768">
        <ele>6.4</ele>
        <time>2020-06-17T10:09:35Z</time>
      </trkpt>
      <trkpt lat="49.2441" lon="-0.27772">
        <ele>6.7</ele>
        <time>2020-06-17T10:09:36Z</time>
      </trkpt>
      <trkpt lat="49.24405" lon="-0.27776">
        <ele>7</ele>
        <time>2020-06-17T10:09:37Z</time>
      </trkpt>
      <trkpt lat="49.24401" lon="-0.27781">
        <ele>7.3</ele>
        <time>2020-06-17T10:09:38Z</time>
      </trkpt>
      <trkpt lat="49.24397" lon="-0.27783">
        <ele>7.5</ele>
        <time>2020-06-17T10:09:39Z</time>
      </trkpt>
      <trkpt lat="49.24394" lon="-0.27787">
        <ele>7.8</ele>
        <time>2020-06-17T10:09:40Z</time>
      </trkpt>
      <trkpt lat="49.24392" lon="-0.2779">
        <ele>8</ele>
        <time>2020-06-17T10:09:41Z</time>
      </trkpt>
      <trkpt lat="49.2439" lon="-0.27794">
        <ele>8.2</ele>
        <time>2020-06-17T10:09:42Z</time>
      </trkpt>
      <trkpt lat="49.24388" lon="-0.27797">
        <ele>8.4</ele>
        <time>2020-06-17T10:09:43Z</time>
      </trkpt>
      <trkpt lat="49.24386" lon="-0.27801">
        <ele>8.5</ele>
        <time>2020-06-17T10:09:44Z</time>
      </trkpt>
      <trkpt lat="49.24384" lon="-0.27804">
        <ele>8.7</ele>
        <time>2020-06-17T10:09:45Z</time>
      </trkpt>
      <trkpt lat="49.24383" lon="-0.27805">
        <ele>8.8</ele>
        <time>2020-06-17T10:09:46Z</time>
      </trkpt>
      <trkpt lat="49.24382" lon="-0.2781">
        <ele>9.1</ele>
        <time>2020-06-17T10:09:47Z</time>
      </trkpt>
      <trkpt lat="49.24381" lon="-0.27812">
        <ele>9.1</ele>
        <time>2020-06-17T10:09:48Z</time>
      </trkpt>
      <trkpt lat="49.2438" lon="-0.27817">
        <ele>9.3</ele>
        <time>2020-06-17T10:09:49Z</time>
      </trkpt>
      <trkpt lat="49.24379" lon="-0.27819">
        <ele>9.3</ele>
        <time>2020-06-17T10:09:50Z</time>
      </trkpt>
      <trkpt lat="49.24377" lon="-0.27824">
        <ele>9.6</ele>
        <time>2020-06-17T10:09:51Z</time>
      </trkpt>
      <trkpt lat="49.24374" lon="-0.2783">
        <ele>9.6</ele>
        <time>2020-06-17T10:09:52Z</time>
      </trkpt>
      <trkpt lat="49.24371" lon="-0.27834">
        <ele>9.6</ele>
        <time>2020-06-17T10:09:53Z</time>
      </trkpt>
      <trkpt lat="49.24368" lon="-0.27836">
        <ele>9.6</ele>
        <time>2020-06-17T10:09:54Z</time>
      </trkpt>
      <trkpt lat="49.24365" lon="-0.27839">
        <ele>9.6</ele>
        <time>2020-06-17T10:09:55Z</time>
      </trkpt>
      <trkpt lat="49.24361" lon="-0.2784">
        <ele>9.6</ele>
        <time>2020-06-17T10:09:56Z</time>
      </trkpt>
      <trkpt lat="49.24357" lon="-0.27839">
        <ele>9.6</ele>
        <time>2020-06-17T10:09:57Z</time>
      </trkpt>
      <trkpt lat="49.24355" lon="-0.27836">
        <ele>9.6</ele>
        <time>2020-06-17T10:09:58Z</time>
      </trkpt>
      <trkpt lat="49.24353" lon="-0.27832">
        <ele>9.7</ele>
        <time>2020-06-17T10:09:59Z</time>
      </trkpt>
      <trkpt lat="49.24353" lon="-0.27826">
        <ele>9.7</ele>
        <time>2020-06-17T10:10:00Z</time>
      </trkpt>
      <trkpt lat="49.24356" lon="-0.27821">
        <ele>9.7</ele>
        <time>2020-06-17T10:10:01Z</time>
      </trkpt>
      <trkpt lat="49.2436" lon="-0.27816">
        <ele>9.7</ele>
        <time>2020-06-17T10:10:02Z</time>
      </trkpt>
      <trkpt lat="49.24364" lon="-0.27813">
        <ele>9.7</ele>
        <time>2020-06-17T10:10:03Z</time>
      </trkpt>
      <trkpt lat="49.24367" lon="-0.27811">
        <ele>9.7</ele>
        <time>2020-06-17T10:10:04Z</time>
      </trkpt>
      <trkpt lat="49.24371" lon="-0.27812">
        <ele>9.7</ele>
        <time>2020-06-17T10:10:05Z</time>
      </trkpt>
      <trkpt lat="49.24375" lon="-0.27815">
        <ele>9.8</ele>
        <time>2020-06-17T10:10:06Z</time>
      </trkpt>
      <trkpt lat="49.24379" lon="-0.27819">
        <ele>9.8</ele>
        <time>2020-06-17T10:10:07Z</time>
      </trkpt>
      <trkpt lat="49.24382" lon="-0.27823">
        <ele>9.8</ele>
        <time>2020-06-17T10:10:08Z</time>
      </trkpt>
      <trkpt lat="49.24384" lon="-0.27829">
        <ele>9.8</ele>
        <time>2020-06-17T10:10:09Z</time>
      </trkpt>
      <trkpt lat="49.24384" lon="-0.27835">
        <ele>9.8</ele>
        <time>2020-06-17T10:10:10Z</time>
      </trkpt>
      <trkpt lat="49.24383" lon="-0.27843">
        <ele>9.8</ele>
        <time>2020-06-17T10:10:11Z</time>
      </trkpt>
      <trkpt lat="49.24381" lon="-0.27851">
        <ele>9.9</ele>
        <time>2020-06-17T10:10:12Z</time>
      </trkpt>
      <trkpt lat="49.2438" lon="-0.27858">
        <ele>10</ele>
        <time>2020-06-17T10:10:13Z</time>
      </trkpt>
      <trkpt lat="49.24379" lon="-0.27865">
        <ele>10.1</ele>
        <time>2020-06-17T10:10:14Z</time>
      </trkpt>
      <trkpt lat="49.24377" lon="-0.27872">
        <ele>10.2</ele>
        <time>2020-06-17T10:10:15Z</time>
      </trkpt>
      <trkpt lat="49.24376" lon="-0.27878">
        <ele>10.3</ele>
        <time>2020-06-17T10:10:16Z</time>
      </trkpt>
      <trkpt lat="49.24376" lon="-0.27885">
        <ele>10.5</ele>
        <time>2020-06-17T10:10:17Z</time>
      </trkpt>
      <trkpt lat="49.24376" lon="-0.27892">
        <ele>10.6</ele>
        <time>2020-06-17T10:10:18Z</time>
      </trkpt>
      <trkpt lat="49.24375" lon="-0.279">
        <ele>10.7</ele>
        <time>2020-06-17T10:10:19Z</time>
      </trkpt>
      <trkpt lat="49.24376" lon="-0.27907">
        <ele>10.8</ele>
        <time>2020-06-17T10:10:20Z</time>
      </trkpt>
      <trkpt lat="49.24376" lon="-0.27914">
        <ele>10.8</ele>
        <time>2020-06-17T10:10:21Z</time>
      </trkpt>
      <trkpt lat="49.24377" lon="-0.27924">
        <ele>10.9</ele>
        <time>2020-06-17T10:10:22Z</time>
      </trkpt>
      <trkpt lat="49.24377" lon="-0.27931">
        <ele>10.9</ele>
        <time>2020-06-17T10:10:23Z</time>
      </trkpt>
      <trkpt lat="49.24377" lon="-0.27936">
        <ele>10.9</ele>
        <time>2020-06-17T10:10:24Z</time>
      </trkpt>
      <trkpt lat="49.24377" lon="-0.27938">
        <ele>11</ele>
        <time>2020-06-17T10:10:25Z</time>
      </trkpt>
      <trkpt lat="49.24377" lon="-0.2794">
        <ele>11</ele>
        <time>2020-06-17T10:10:26Z</time>
      </trkpt>
      <trkpt lat="49.24377" lon="-0.27941">
        <ele>11</ele>
        <time>2020-06-17T10:10:27Z</time>
      </trkpt>
      <trkpt lat="49.24377" lon="-0.27942">
        <ele>11</ele>
        <time>2020-06-17T10:10:28Z</time>
      </trkpt>
      <trkpt lat="49.24377" lon="-0.27942">
        <ele>11</ele>
        <time>2020-06-17T10:10:29Z</time>
      </trkpt>
      <trkpt lat="49.24377" lon="-0.27942">
        <ele>11</ele>
        <time>2020-06-17T10:10:30Z</time>
      </trkpt>
      <trkpt lat="49.24377" lon="-0.27941">
        <ele>11</ele>
        <time>2020-06-17T10:10:31Z</time>
      </trkpt>
      <trkpt lat="49.24377" lon="-0.27941">
        <ele>11</ele>
        <time>2020-06-17T10:10:32Z</time>
      </trkpt>
      <trkpt lat="49.24378" lon="-0.2794">
        <ele>11</ele>
        <time>2020-06-17T10:10:33Z</time>
      </trkpt>
      <trkpt lat="49.24379" lon="-0.27939">
        <ele>11</ele>
        <time>2020-06-17T10:10:34Z</time>
      </trkpt>
      <trkpt lat="49.24379" lon="-0.27937">
        <ele>11</ele>
        <time>2020-06-17T10:10:35Z</time>
      </trkpt>
      <trkpt lat="49.2438" lon="-0.27934">
        <ele>11</ele>
        <time>2020-06-17T10:10:36Z</time>
      </trkpt>
      <trkpt lat="49.2438" lon="-0.27932">
        <ele>11</ele>
        <time>2020-06-17T10:10:37Z</time>
      </trkpt>
      <trkpt lat="49.2438" lon="-0.27929">
        <ele>11</ele>
        <time>2020-06-17T10:10:38Z</time>
      </trkpt>
      <trkpt lat="49.24379" lon="-0.27924">
        <ele>11</ele>
        <time>2020-06-17T10:10:39Z</time>
      </trkpt>
      <trkpt lat="49.24379" lon="-0.27922">
        <ele>11</ele>
        <time>2020-06-17T10:10:40Z</time>
      </trkpt>
      <trkpt lat="49.24379" lon="-0.27918">
        <ele>10.9</ele>
        <time>2020-06-17T10:10:41Z</time>
      </trkpt>
      <trkpt lat="49.24379" lon="-0.27913">
        <ele>10.9</ele>
        <time>2020-06-17T10:10:42Z</time>
      </trkpt>
      <trkpt lat="49.24378" lon="-0.27909">
        <ele>10.9</ele>
        <time>2020-06-17T10:10:43Z</time>
      </trkpt>
      <trkpt lat="49.24375" lon="-0.27903">
        <ele>10.8</ele>
        <time>2020-06-17T10:10:44Z</time>
      </trkpt>
      <trkpt lat="49.24374" lon="-0.27901">
        <ele>10.8</ele>
        <time>2020-06-17T10:10:45Z</time>
      </trkpt>
      <trkpt lat="49.24372" lon="-0.27897">
        <ele>10.7</ele>
        <time>2020-06-17T10:10:46Z</time>
      </trkpt>
      <trkpt lat="49.2437" lon="-0.27892">
        <ele>10.7</ele>
        <time>2020-06-17T10:10:47Z</time>
      </trkpt>
      <trkpt lat="49.24367" lon="-0.27887">
        <ele>10.5</ele>
        <time>2020-06-17T10:10:48Z</time>
      </trkpt>
      <trkpt lat="49.24366" lon="-0.27881">
        <ele>10.4</ele>
        <time>2020-06-17T10:10:49Z</time>
      </trkpt>
      <trkpt lat="49.24364" lon="-0.27874">
        <ele>10.3</ele>
        <time>2020-06-17T10:10:50Z</time>
      </trkpt>
      <trkpt lat="49.24364" lon="-0.27869">
        <ele>10.2</ele>
        <time>2020-06-17T10:10:51Z</time>
      </trkpt>
      <trkpt lat="49.24363" lon="-0.27865">
        <ele>10.2</ele>
        <time>2020-06-17T10:10:52Z</time>
      </trkpt>
      <trkpt lat="49.24364" lon="-0.2786">
        <ele>10.1</ele>
        <time>2020-06-17T10:10:53Z</time>
      </trkpt>
      <trkpt lat="49.24366" lon="-0.27855">
        <ele>10</ele>
        <time>2020-06-17T10:10:54Z</time>
      </trkpt>
      <trkpt lat="49.24367" lon="-0.27848">
        <ele>10</ele>
        <time>2020-06-17T10:10:55Z</time>
      </trkpt>
      <trkpt lat="49.24366" lon="-0.2784">
        <ele>9.9</ele>
        <time>2020-06-17T10:10:56Z</time>
      </trkpt>
      <trkpt lat="49.24366" lon="-0.27832">
        <ele>9.7</ele>
        <time>2020-06-17T10:10:57Z</time>
      </trkpt>
      <trkpt lat="49.24364" lon="-0.27824">
        <ele>9.6</ele>
        <time>2020-06-17T10:10:58Z</time>
      </trkpt>
      <trkpt lat="49.24362" lon="-0.27816">
        <ele>9.8</ele>
        <time>2020-06-17T10:10:59Z</time>
      </trkpt>
      <trkpt lat="49.24361" lon="-0.27809">
        <ele>10</ele>
        <time>2020-06-17T10:11:00Z</time>
      </trkpt>
      <trkpt lat="49.24358" lon="-0.27803">
        <ele>10.1</ele>
        <time>2020-06-17T10:11:01Z</time>
      </trkpt>
      <trkpt lat="49.24356" lon="-0.27797">
        <ele>10.1</ele>
        <time>2020-06-17T10:11:02Z</time>
      </trkpt>
      <trkpt lat="49.24354" lon="-0.27791">
        <ele>10.1</ele>
        <time>2020-06-17T10:11:03Z</time>
      </trkpt>
      <trkpt lat="49.24352" lon="-0.27785">
        <ele>10.1</ele>
        <time>2020-06-17T10:11:04Z</time>
      </trkpt>
      <trkpt lat="49.2435" lon="-0.27779">
        <ele>10.1</ele>
        <time>2020-06-17T10:11:05Z</time>
      </trkpt>
      <trkpt lat="49.24347" lon="-0.27773">
        <ele>10.1</ele>
        <time>2020-06-17T10:11:06Z</time>
      </trkpt>
      <trkpt lat="49.24345" lon="-0.27768">
        <ele>10.1</ele>
        <time>2020-06-17T10:11:07Z</time>
      </trkpt>
      <trkpt lat="49.24342" lon="-0.27761">
        <ele>10.1</ele>
        <time>2020-06-17T10:11:08Z</time>
      </trkpt>
      <trkpt lat="49.24339" lon="-0.27755">
        <ele>10</ele>
        <time>2020-06-17T10:11:09Z</time>
      </trkpt>
      <trkpt lat="49.24336" lon="-0.27749">
        <ele>9.9</ele>
        <time>2020-06-17T10:11:10Z</time>
      </trkpt>
      <trkpt lat="49.24332" lon="-0.27741">
        <ele>9.8</ele>
        <time>2020-06-17T10:11:11Z</time>
      </trkpt>
      <trkpt lat="49.24329" lon="-0.27731">
        <ele>9.6</ele>
        <time>2020-06-17T10:11:12Z</time>
      </trkpt>
      <trkpt lat="49.24326" lon="-0.27723">
        <ele>9.5</ele>
        <time>2020-06-17T10:11:13Z</time>
      </trkpt>
      <trkpt lat="49.24323" lon="-0.27714">
        <ele>9.4</ele>
        <time>2020-06-17T10:11:14Z</time>
      </trkpt>
      <trkpt lat="49.2432" lon="-0.27707">
        <ele>9.3</ele>
        <time>2020-06-17T10:11:15Z</time>
      </trkpt>
      <trkpt lat="49.24318" lon="-0.27698">
        <ele>9.2</ele>
        <time>2020-06-17T10:11:16Z</time>
      </trkpt>
      <trkpt lat="49.24315" lon="-0.2769">
        <ele>9</ele>
        <time>2020-06-17T10:11:17Z</time>
      </trkpt>
      <trkpt lat="49.24313" lon="-0.2768">
        <ele>8.9</ele>
        <time>2020-06-17T10:11:18Z</time>
      </trkpt>
      <trkpt lat="49.24311" lon="-0.27672">
        <ele>8.8</ele>
        <time>2020-06-17T10:11:19Z</time>
      </trkpt>
      <trkpt lat="49.24309" lon="-0.27666">
        <ele>8.7</ele>
        <time>2020-06-17T10:11:20Z</time>
      </trkpt>
      <trkpt lat="49.24306" lon="-0.27658">
        <ele>8.6</ele>
        <time>2020-06-17T10:11:21Z</time>
      </trkpt>
      <trkpt lat="49.24303" lon="-0.27651">
        <ele>8.5</ele>
        <time>2020-06-17T10:11:22Z</time>
      </trkpt>
      <trkpt lat="49.243" lon="-0.27644">
        <ele>8.4</ele>
        <time>2020-06-17T10:11:23Z</time>
      </trkpt>
      <trkpt lat="49.24297" lon="-0.27637">
        <ele>8.3</ele>
        <time>2020-06-17T10:11:24Z</time>
      </trkpt>
      <trkpt lat="49.24295" lon="-0.2763">
        <ele>8.2</ele>
        <time>2020-06-17T10:11:25Z</time>
      </trkpt>
      <trkpt lat="49.24294" lon="-0.27623">
        <ele>8.1</ele>
        <time>2020-06-17T10:11:26Z</time>
      </trkpt>
      <trkpt lat="49.24292" lon="-0.27615">
        <ele>8</ele>
        <time>2020-06-17T10:11:27Z</time>
      </trkpt>
      <trkpt lat="49.2429" lon="-0.27605">
        <ele>8.1</ele>
        <time>2020-06-17T10:11:28Z</time>
      </trkpt>
      <trkpt lat="49.24288" lon="-0.27597">
        <ele>8.1</ele>
        <time>2020-06-17T10:11:29Z</time>
      </trkpt>
      <trkpt lat="49.24286" lon="-0.27589">
        <ele>8</ele>
        <time>2020-06-17T10:11:30Z</time>
      </trkpt>
      <trkpt lat="49.24282" lon="-0.27579">
        <ele>7.9</ele>
        <time>2020-06-17T10:11:31Z</time>
      </trkpt>
      <trkpt lat="49.2428" lon="-0.2757">
        <ele>7.8</ele>
        <time>2020-06-17T10:11:32Z</time>
      </trkpt>
      <trkpt lat="49.24277" lon="-0.27561">
        <ele>7.7</ele>
        <time>2020-06-17T10:11:33Z</time>
      </trkpt>
      <trkpt lat="49.24274" lon="-0.27553">
        <ele>7.6</ele>
        <time>2020-06-17T10:11:34Z</time>
      </trkpt>
      <trkpt lat="49.24271" lon="-0.27545">
        <ele>7.5</ele>
        <time>2020-06-17T10:11:35Z</time>
      </trkpt>
      <trkpt lat="49.24268" lon="-0.27536">
        <ele>7.3</ele>
        <time>2020-06-17T10:11:36Z</time>
      </trkpt>
      <trkpt lat="49.24265" lon="-0.27528">
        <ele>7.2</ele>
        <time>2020-06-17T10:11:37Z</time>
      </trkpt>
      <trkpt lat="49.24263" lon="-0.27519">
        <ele>7.1</ele>
        <time>2020-06-17T10:11:38Z</time>
      </trkpt>
      <trkpt lat="49.2426" lon="-0.27511">
        <ele>7</ele>
        <time>2020-06-17T10:11:39Z</time>
      </trkpt>
      <trkpt lat="49.24258" lon="-0.27504">
        <ele>6.9</ele>
        <time>2020-06-17T10:11:40Z</time>
      </trkpt>
      <trkpt lat="49.24257" lon="-0.27498">
        <ele>6.8</ele>
        <time>2020-06-17T10:11:41Z</time>
      </trkpt>
      <trkpt lat="49.24255" lon="-0.27492">
        <ele>6.7</ele>
        <time>2020-06-17T10:11:42Z</time>
      </trkpt>
      <trkpt lat="49.24254" lon="-0.27485">
        <ele>6.7</ele>
        <time>2020-06-17T10:11:43Z</time>
      </trkpt>
      <trkpt lat="49.24253" lon="-0.27479">
        <ele>6.8</ele>
        <time>2020-06-17T10:11:44Z</time>
      </trkpt>
      <trkpt lat="49.24253" lon="-0.27474">
        <ele>6.8</ele>
        <time>2020-06-17T10:11:45Z</time>
      </trkpt>
      <trkpt lat="49.24253" lon="-0.2747">
        <ele>6.8</ele>
        <time>2020-06-17T10:11:46Z</time>
      </trkpt>
      <trkpt lat="49.24252" lon="-0.27464">
        <ele>6.8</ele>
        <time>2020-06-17T10:11:47Z</time>
      </trkpt>
      <trkpt lat="49.24251" lon="-0.27462">
        <ele>6.8</ele>
        <time>2020-06-17T10:11:48Z</time>
      </trkpt>
      <trkpt lat="49.2425" lon="-0.27457">
        <ele>6.8</ele>
        <time>2020-06-17T10:11:49Z</time>
      </trkpt>
      <trkpt lat="49.24249" lon="-0.27456">
        <ele>6.8</ele>
        <time>2020-06-17T10:11:50Z</time>
      </trkpt>
      <trkpt lat="49.24247" lon="-0.27451">
        <ele>6.8</ele>
        <time>2020-06-17T10:11:51Z</time>
      </trkpt>
      <trkpt lat="49.24246" lon="-0.27449">
        <ele>6.8</ele>
        <time>2020-06-17T10:11:52Z</time>
      </trkpt>
      <trkpt lat="49.24245" lon="-0.27445">
        <ele>6.8</ele>
        <time>2020-06-17T10:11:53Z</time>
      </trkpt>
      <trkpt lat="49.24243" lon="-0.2744">
        <ele>6.8</ele>
        <time>2020-06-17T10:11:54Z</time>
      </trkpt>
      <trkpt lat="49.24242" lon="-0.27436">
        <ele>6.8</ele>
        <time>2020-06-17T10:11:55Z</time>
      </trkpt>
      <trkpt lat="49.2424" lon="-0.27432">
        <ele>6.8</ele>
        <time>2020-06-17T10:11:56Z</time>
      </trkpt>
      <trkpt lat="49.2424" lon="-0.27427">
        <ele>6.8</ele>
        <time>2020-06-17T10:11:57Z</time>
      </trkpt>
      <trkpt lat="49.24239" lon="-0.27422">
        <ele>6.8</ele>
        <time>2020-06-17T10:11:58Z</time>
      </trkpt>
      <trkpt lat="49.24237" lon="-0.27418">
        <ele>6.8</ele>
        <time>2020-06-17T10:11:59Z</time>
      </trkpt>
      <trkpt lat="49.24236" lon="-0.27417">
        <ele>6.8</ele>
        <time>2020-06-17T10:12:00Z</time>
      </trkpt>
      <trkpt lat="49.24236" lon="-0.27415">
        <ele>6.8</ele>
        <time>2020-06-17T10:12:01Z</time>
      </trkpt>
      <trkpt lat="49.24236" lon="-0.27412">
        <ele>6.7</ele>
        <time>2020-06-17T10:12:02Z</time>
      </trkpt>
      <trkpt lat="49.24235" lon="-0.27407">
        <ele>6.7</ele>
        <time>2020-06-17T10:12:03Z</time>
      </trkpt>
      <trkpt lat="49.24234" lon="-0.27405">
        <ele>6.7</ele>
        <time>2020-06-17T10:12:04Z</time>
      </trkpt>
      <trkpt lat="49.24233" lon="-0.274">
        <ele>6.7</ele>
        <time>2020-06-17T10:12:05Z</time>
      </trkpt>
      <trkpt lat="49.24233" lon="-0.27395">
        <ele>6.7</ele>
        <time>2020-06-17T10:12:06Z</time>
      </trkpt>
      <trkpt lat="49.24232" lon="-0.27391">
        <ele>6.7</ele>
        <time>2020-06-17T10:12:07Z</time>
      </trkpt>
      <trkpt lat="49.24231" lon="-0.27386">
        <ele>6.7</ele>
        <time>2020-06-17T10:12:08Z</time>
      </trkpt>
      <trkpt lat="49.2423" lon="-0.27382">
        <ele>6.7</ele>
        <time>2020-06-17T10:12:09Z</time>
      </trkpt>
      <trkpt lat="49.24228" lon="-0.27377">
        <ele>6.7</ele>
        <time>2020-06-17T10:12:10Z</time>
      </trkpt>
      <trkpt lat="49.24227" lon="-0.27375">
        <ele>6.7</ele>
        <time>2020-06-17T10:12:11Z</time>
      </trkpt>
      <trkpt lat="49.24225" lon="-0.27372">
        <ele>6.7</ele>
        <time>2020-06-17T10:12:12Z</time>
      </trkpt>
      <trkpt lat="49.24222" lon="-0.27368">
        <ele>6.5</ele>
        <time>2020-06-17T10:12:13Z</time>
      </trkpt>
      <trkpt lat="49.24221" lon="-0.27365">
        <ele>6.4</ele>
        <time>2020-06-17T10:12:14Z</time>
      </trkpt>
      <trkpt lat="49.24219" lon="-0.27362">
        <ele>6.3</ele>
        <time>2020-06-17T10:12:15Z</time>
      </trkpt>
      <trkpt lat="49.24219" lon="-0.27361">
        <ele>6.2</ele>
        <time>2020-06-17T10:12:16Z</time>
      </trkpt>
      <trkpt lat="49.24218" lon="-0.2736">
        <ele>6.2</ele>
        <time>2020-06-17T10:12:17Z</time>
      </trkpt>
      <trkpt lat="49.24217" lon="-0.27359">
        <ele>6.2</ele>
        <time>2020-06-17T10:12:18Z</time>
      </trkpt>
      <trkpt lat="49.24217" lon="-0.27357">
        <ele>6.2</ele>
        <time>2020-06-17T10:12:19Z</time>
      </trkpt>
      <trkpt lat="49.24217" lon="-0.27356">
        <ele>6.2</ele>
        <time>2020-06-17T10:12:20Z</time>
      </trkpt>
      <trkpt lat="49.24217" lon="-0.27356">
        <ele>6.2</ele>
        <time>2020-06-17T10:12:21Z</time>
      </trkpt>
      <trkpt lat="49.24218" lon="-0.27354">
        <ele>6.1</ele>
        <time>2020-06-17T10:12:22Z</time>
      </trkpt>
      <trkpt lat="49.24218" lon="-0.27353">
        <ele>6.1</ele>
        <time>2020-06-17T10:12:23Z</time>
      </trkpt>
      <trkpt lat="49.24219" lon="-0.27351">
        <ele>6.1</ele>
        <time>2020-06-17T10:12:24Z</time>
      </trkpt>
      <trkpt lat="49.2422" lon="-0.27351">
        <ele>6.1</ele>
        <time>2020-06-17T10:12:25Z</time>
      </trkpt>
      <trkpt lat="49.2422" lon="-0.27351">
        <ele>6.1</ele>
        <time>2020-06-17T10:12:26Z</time>
      </trkpt>
      <trkpt lat="49.2422" lon="-0.27351">
        <ele>6.1</ele>
        <time>2020-06-17T10:12:27Z</time>
      </trkpt>
      <trkpt lat="49.2422" lon="-0.27351">
        <ele>6.1</ele>
        <time>2020-06-17T10:12:28Z</time>
      </trkpt>
      <trkpt lat="49.2422" lon="-0.27352">
        <ele>6.1</ele>
        <time>2020-06-17T10:12:29Z</time>
      </trkpt>
      <trkpt lat="49.24221" lon="-0.27352">
        <ele>6.1</ele>
        <time>2020-06-17T10:12:30Z</time>
      </trkpt>
      <trkpt lat="49.2422" lon="-0.27352">
        <ele>6.1</ele>
        <time>2020-06-17T10:12:31Z</time>
      </trkpt>
      <trkpt lat="49.2422" lon="-0.27352">
        <ele>6.1</ele>
        <time>2020-06-17T10:12:32Z</time>
      </trkpt>
      <trkpt lat="49.24219" lon="-0.27352">
        <ele>6.1</ele>
        <time>2020-06-17T10:12:33Z</time>
      </trkpt>
      <trkpt lat="49.24219" lon="-0.27354">
        <ele>6.1</ele>
        <time>2020-06-17T10:12:34Z</time>
      </trkpt>
      <trkpt lat="49.24219" lon="-0.27355">
        <ele>6</ele>
        <time>2020-06-17T10:12:35Z</time>
      </trkpt>
      <trkpt lat="49.2422" lon="-0.27355">
        <ele>6</ele>
        <time>2020-06-17T10:12:36Z</time>
      </trkpt>
      <trkpt lat="49.24221" lon="-0.27355">
        <ele>6</ele>
        <time>2020-06-17T10:12:37Z</time>
      </trkpt>
      <trkpt lat="49.24222" lon="-0.27354">
        <ele>6</ele>
        <time>2020-06-17T10:12:38Z</time>
      </trkpt>
      <trkpt lat="49.24222" lon="-0.27354">
        <ele>6</ele>
        <time>2020-06-17T10:12:39Z</time>
      </trkpt>
      <trkpt lat="49.24222" lon="-0.27355">
        <ele>6</ele>
        <time>2020-06-17T10:12:40Z</time>
      </trkpt>
      <trkpt lat="49.24222" lon="-0.27355">
        <ele>6</ele>
        <time>2020-06-17T10:12:41Z</time>
      </trkpt>
      <trkpt lat="49.24222" lon="-0.27354">
        <ele>6</ele>
        <time>2020-06-17T10:12:42Z</time>
      </trkpt>
      <trkpt lat="49.24221" lon="-0.27355">
        <ele>6</ele>
        <time>2020-06-17T10:12:43Z</time>
      </trkpt>
      <trkpt lat="49.24221" lon="-0.27354">
        <ele>6</ele>
        <time>2020-06-17T10:12:44Z</time>
      </trkpt>
      <trkpt lat="49.2422" lon="-0.27354">
        <ele>5.9</ele>
        <time>2020-06-17T10:12:45Z</time>
      </trkpt>
      <trkpt lat="49.24219" lon="-0.27354">
        <ele>5.9</ele>
        <time>2020-06-17T10:12:46Z</time>
      </trkpt>
      <trkpt lat="49.24219" lon="-0.27352">
        <ele>5.9</ele>
        <time>2020-06-17T10:12:47Z</time>
      </trkpt>
      <trkpt lat="49.24218" lon="-0.2735">
        <ele>5.9</ele>
        <time>2020-06-17T10:12:48Z</time>
      </trkpt>
      <trkpt lat="49.24217" lon="-0.27349">
        <ele>5.9</ele>
        <time>2020-06-17T10:12:49Z</time>
      </trkpt>
      <trkpt lat="49.24216" lon="-0.27349">
        <ele>5.9</ele>
        <time>2020-06-17T10:12:50Z</time>
      </trkpt>
      <trkpt lat="49.24215" lon="-0.27348">
        <ele>5.8</ele>
        <time>2020-06-17T10:12:51Z</time>
      </trkpt>
      <trkpt lat="49.24214" lon="-0.27347">
        <ele>5.8</ele>
        <time>2020-06-17T10:12:52Z</time>
      </trkpt>
      <trkpt lat="49.24212" lon="-0.27344">
        <ele>5.8</ele>
        <time>2020-06-17T10:12:53Z</time>
      </trkpt>
      <trkpt lat="49.24209" lon="-0.27339">
        <ele>5.7</ele>
        <time>2020-06-17T10:12:54Z</time>
      </trkpt>
      <trkpt lat="49.24207" lon="-0.27334">
        <ele>5.6</ele>
        <time>2020-06-17T10:12:55Z</time>
      </trkpt>
      <trkpt lat="49.24204" lon="-0.27328">
        <ele>5.5</ele>
        <time>2020-06-17T10:12:56Z</time>
      </trkpt>
      <trkpt lat="49.24202" lon="-0.27322">
        <ele>5.4</ele>
        <time>2020-06-17T10:12:57Z</time>
      </trkpt>
      <trkpt lat="49.242" lon="-0.27316">
        <ele>5.4</ele>
        <time>2020-06-17T10:12:58Z</time>
      </trkpt>
      <trkpt lat="49.24197" lon="-0.27311">
        <ele>5.3</ele>
        <time>2020-06-17T10:12:59Z</time>
      </trkpt>
      <trkpt lat="49.24194" lon="-0.27304">
        <ele>5.2</ele>
        <time>2020-06-17T10:13:00Z</time>
      </trkpt>
      <trkpt lat="49.24191" lon="-0.27296">
        <ele>5.1</ele>
        <time>2020-06-17T10:13:01Z</time>
      </trkpt>
      <trkpt lat="49.2419" lon="-0.27289">
        <ele>5</ele>
        <time>2020-06-17T10:13:02Z</time>
      </trkpt>
      <trkpt lat="49.24188" lon="-0.27283">
        <ele>5</ele>
        <time>2020-06-17T10:13:03Z</time>
      </trkpt>
      <trkpt lat="49.24186" lon="-0.27276">
        <ele>4.9</ele>
        <time>2020-06-17T10:13:04Z</time>
      </trkpt>
      <trkpt lat="49.24184" lon="-0.27269">
        <ele>4.9</ele>
        <time>2020-06-17T10:13:05Z</time>
      </trkpt>
      <trkpt lat="49.24182" lon="-0.27261">
        <ele>4.8</ele>
        <time>2020-06-17T10:13:06Z</time>
      </trkpt>
      <trkpt lat="49.2418" lon="-0.27252">
        <ele>4.8</ele>
        <time>2020-06-17T10:13:07Z</time>
      </trkpt>
      <trkpt lat="49.24177" lon="-0.27245">
        <ele>4.7</ele>
        <time>2020-06-17T10:13:08Z</time>
      </trkpt>
      <trkpt lat="49.24174" lon="-0.27237">
        <ele>4.7</ele>
        <time>2020-06-17T10:13:09Z</time>
      </trkpt>
      <trkpt lat="49.24171" lon="-0.27229">
        <ele>4.6</ele>
        <time>2020-06-17T10:13:10Z</time>
      </trkpt>
      <trkpt lat="49.24167" lon="-0.2722">
        <ele>4.6</ele>
        <time>2020-06-17T10:13:11Z</time>
      </trkpt>
      <trkpt lat="49.24164" lon="-0.2721">
        <ele>4.5</ele>
        <time>2020-06-17T10:13:12Z</time>
      </trkpt>
      <trkpt lat="49.24161" lon="-0.272">
        <ele>4.5</ele>
        <time>2020-06-17T10:13:13Z</time>
      </trkpt>
      <trkpt lat="49.24158" lon="-0.27189">
        <ele>4.4</ele>
        <time>2020-06-17T10:13:14Z</time>
      </trkpt>
      <trkpt lat="49.24155" lon="-0.27178">
        <ele>4.4</ele>
        <time>2020-06-17T10:13:15Z</time>
      </trkpt>
      <trkpt lat="49.24153" lon="-0.27168">
        <ele>4.4</ele>
        <time>2020-06-17T10:13:16Z</time>
      </trkpt>
      <trkpt lat="49.24151" lon="-0.2716">
        <ele>4.4</ele>
        <time>2020-06-17T10:13:17Z</time>
      </trkpt>
      <trkpt lat="49.24148" lon="-0.2715">
        <ele>4.3</ele>
        <time>2020-06-17T10:13:18Z</time>
      </trkpt>
      <trkpt lat="49.24145" lon="-0.27141">
        <ele>4.2</ele>
        <time>2020-06-17T10:13:19Z</time>
      </trkpt>
      <trkpt lat="49.24143" lon="-0.27132">
        <ele>4.2</ele>
        <time>2020-06-17T10:13:20Z</time>
      </trkpt>
      <trkpt lat="49.24142" lon="-0.27125">
        <ele>4.2</ele>
        <time>2020-06-17T10:13:21Z</time>
      </trkpt>
      <trkpt lat="49.24139" lon="-0.27116">
        <ele>4.2</ele>
        <time>2020-06-17T10:13:22Z</time>
      </trkpt>
      <trkpt lat="49.24137" lon="-0.27107">
        <ele>4.1</ele>
        <time>2020-06-17T10:13:23Z</time>
      </trkpt>
      <trkpt lat="49.24135" lon="-0.27099">
        <ele>4.2</ele>
        <time>2020-06-17T10:13:24Z</time>
      </trkpt>
      <trkpt lat="49.24133" lon="-0.27089">
        <ele>4.2</ele>
        <time>2020-06-17T10:13:25Z</time>
      </trkpt>
      <trkpt lat="49.2413" lon="-0.27078">
        <ele>4.2</ele>
        <time>2020-06-17T10:13:26Z</time>
      </trkpt>
      <trkpt lat="49.24126" lon="-0.27068">
        <ele>4.3</ele>
        <time>2020-06-17T10:13:27Z</time>
      </trkpt>
      <trkpt lat="49.24124" lon="-0.27058">
        <ele>4.4</ele>
        <time>2020-06-17T10:13:28Z</time>
      </trkpt>
      <trkpt lat="49.24121" lon="-0.2705">
        <ele>4.5</ele>
        <time>2020-06-17T10:13:29Z</time>
      </trkpt>
      <trkpt lat="49.24119" lon="-0.27041">
        <ele>4.5</ele>
        <time>2020-06-17T10:13:30Z</time>
      </trkpt>
      <trkpt lat="49.24118" lon="-0.27034">
        <ele>4.6</ele>
        <time>2020-06-17T10:13:31Z</time>
      </trkpt>
      <trkpt lat="49.24116" lon="-0.27026">
        <ele>4.6</ele>
        <time>2020-06-17T10:13:32Z</time>
      </trkpt>
      <trkpt lat="49.24114" lon="-0.27017">
        <ele>4.6</ele>
        <time>2020-06-17T10:13:33Z</time>
      </trkpt>
      <trkpt lat="49.24113" lon="-0.27009">
        <ele>4.7</ele>
        <time>2020-06-17T10:13:34Z</time>
      </trkpt>
      <trkpt lat="49.2411" lon="-0.26999">
        <ele>4.7</ele>
        <time>2020-06-17T10:13:35Z</time>
      </trkpt>
      <trkpt lat="49.24108" lon="-0.2699">
        <ele>4.8</ele>
        <time>2020-06-17T10:13:36Z</time>
      </trkpt>
      <trkpt lat="49.24106" lon="-0.26981">
        <ele>4.8</ele>
        <time>2020-06-17T10:13:37Z</time>
      </trkpt>
      <trkpt lat="49.24104" lon="-0.26974">
        <ele>4.8</ele>
        <time>2020-06-17T10:13:38Z</time>
      </trkpt>
      <trkpt lat="49.24101" lon="-0.26968">
        <ele>4.9</ele>
        <time>2020-06-17T10:13:39Z</time>
      </trkpt>
      <trkpt lat="49.24098" lon="-0.26961">
        <ele>4.9</ele>
        <time>2020-06-17T10:13:40Z</time>
      </trkpt>
      <trkpt lat="49.24096" lon="-0.26957">
        <ele>4.9</ele>
        <time>2020-06-17T10:13:41Z</time>
      </trkpt>
      <trkpt lat="49.24093" lon="-0.26955">
        <ele>4.9</ele>
        <time>2020-06-17T10:13:42Z</time>
      </trkpt>
      <trkpt lat="49.2409" lon="-0.26954">
        <ele>5</ele>
        <time>2020-06-17T10:13:43Z</time>
      </trkpt>
      <trkpt lat="49.24088" lon="-0.26954">
        <ele>5</ele>
        <time>2020-06-17T10:13:44Z</time>
      </trkpt>
      <trkpt lat="49.24087" lon="-0.26954">
        <ele>5</ele>
        <time>2020-06-17T10:13:45Z</time>
      </trkpt>
      <trkpt lat="49.24086" lon="-0.26955">
        <ele>5</ele>
        <time>2020-06-17T10:13:46Z</time>
      </trkpt>
      <trkpt lat="49.24086" lon="-0.26955">
        <ele>5</ele>
        <time>2020-06-17T10:13:47Z</time>
      </trkpt>
      <trkpt lat="49.24084" lon="-0.26952">
        <ele>5.1</ele>
        <time>2020-06-17T10:13:48Z</time>
      </trkpt>
      <trkpt lat="49.24082" lon="-0.26947">
        <ele>5.1</ele>
        <time>2020-06-17T10:13:49Z</time>
      </trkpt>
      <trkpt lat="49.2408" lon="-0.26943">
        <ele>5.1</ele>
        <time>2020-06-17T10:13:50Z</time>
      </trkpt>
      <trkpt lat="49.24079" lon="-0.26938">
        <ele>5.1</ele>
        <time>2020-06-17T10:13:51Z</time>
      </trkpt>
      <trkpt lat="49.24078" lon="-0.26933">
        <ele>5.1</ele>
        <time>2020-06-17T10:13:52Z</time>
      </trkpt>
      <trkpt lat="49.24079" lon="-0.26928">
        <ele>5.2</ele>
        <time>2020-06-17T10:13:53Z</time>
      </trkpt>
      <trkpt lat="49.24081" lon="-0.26921">
        <ele>5.2</ele>
        <time>2020-06-17T10:13:54Z</time>
      </trkpt>
      <trkpt lat="49.24082" lon="-0.26916">
        <ele>5.3</ele>
        <time>2020-06-17T10:13:55Z</time>
      </trkpt>
      <trkpt lat="49.24083" lon="-0.26911">
        <ele>5.3</ele>
        <time>2020-06-17T10:13:56Z</time>
      </trkpt>
      <trkpt lat="49.24082" lon="-0.26904">
        <ele>5.5</ele>
        <time>2020-06-17T10:13:57Z</time>
      </trkpt>
      <trkpt lat="49.24081" lon="-0.26898">
        <ele>5.5</ele>
        <time>2020-06-17T10:13:58Z</time>
      </trkpt>
      <trkpt lat="49.2408" lon="-0.26892">
        <ele>5.5</ele>
        <time>2020-06-17T10:13:59Z</time>
      </trkpt>
      <trkpt lat="49.24078" lon="-0.26886">
        <ele>5.5</ele>
        <time>2020-06-17T10:14:00Z</time>
      </trkpt>
      <trkpt lat="49.24076" lon="-0.2688">
        <ele>5.6</ele>
        <time>2020-06-17T10:14:01Z</time>
      </trkpt>
      <trkpt lat="49.24074" lon="-0.26873">
        <ele>5.6</ele>
        <time>2020-06-17T10:14:02Z</time>
      </trkpt>
      <trkpt lat="49.24072" lon="-0.26867">
        <ele>5.6</ele>
        <time>2020-06-17T10:14:03Z</time>
      </trkpt>
      <trkpt lat="49.2407" lon="-0.2686">
        <ele>5.7</ele>
        <time>2020-06-17T10:14:04Z</time>
      </trkpt>
      <trkpt lat="49.24069" lon="-0.26854">
        <ele>5.7</ele>
        <time>2020-06-17T10:14:05Z</time>
      </trkpt>
      <trkpt lat="49.24068" lon="-0.26846">
        <ele>5.7</ele>
        <time>2020-06-17T10:14:06Z</time>
      </trkpt>
      <trkpt lat="49.24066" lon="-0.26838">
        <ele>5.8</ele>
        <time>2020-06-17T10:14:07Z</time>
      </trkpt>
      <trkpt lat="49.24065" lon="-0.2683">
        <ele>5.9</ele>
        <time>2020-06-17T10:14:08Z</time>
      </trkpt>
      <trkpt lat="49.24063" lon="-0.26823">
        <ele>6</ele>
        <time>2020-06-17T10:14:09Z</time>
      </trkpt>
      <trkpt lat="49.2406" lon="-0.26816">
        <ele>6.1</ele>
        <time>2020-06-17T10:14:10Z</time>
      </trkpt>
      <trkpt lat="49.24058" lon="-0.26808">
        <ele>6.1</ele>
        <time>2020-06-17T10:14:11Z</time>
      </trkpt>
      <trkpt lat="49.24056" lon="-0.268">
        <ele>6.2</ele>
        <time>2020-06-17T10:14:12Z</time>
      </trkpt>
      <trkpt lat="49.24055" lon="-0.26793">
        <ele>6.3</ele>
        <time>2020-06-17T10:14:13Z</time>
      </trkpt>
      <trkpt lat="49.24053" lon="-0.26785">
        <ele>6.3</ele>
        <time>2020-06-17T10:14:14Z</time>
      </trkpt>
      <trkpt lat="49.24051" lon="-0.26778">
        <ele>6.3</ele>
        <time>2020-06-17T10:14:15Z</time>
      </trkpt>
      <trkpt lat="49.2405" lon="-0.2677">
        <ele>6.4</ele>
        <time>2020-06-17T10:14:16Z</time>
      </trkpt>
      <trkpt lat="49.2405" lon="-0.26764">
        <ele>6.4</ele>
        <time>2020-06-17T10:14:17Z</time>
      </trkpt>
      <trkpt lat="49.24049" lon="-0.2676">
        <ele>6.4</ele>
        <time>2020-06-17T10:14:18Z</time>
      </trkpt>
      <trkpt lat="49.24049" lon="-0.26756">
        <ele>6.5</ele>
        <time>2020-06-17T10:14:19Z</time>
      </trkpt>
      <trkpt lat="49.24047" lon="-0.26749">
        <ele>6.5</ele>
        <time>2020-06-17T10:14:20Z</time>
      </trkpt>
      <trkpt lat="49.24045" lon="-0.26744">
        <ele>6.6</ele>
        <time>2020-06-17T10:14:21Z</time>
      </trkpt>
      <trkpt lat="49.24043" lon="-0.26737">
        <ele>6.6</ele>
        <time>2020-06-17T10:14:22Z</time>
      </trkpt>
      <trkpt lat="49.24042" lon="-0.2673">
        <ele>6.7</ele>
        <time>2020-06-17T10:14:23Z</time>
      </trkpt>
      <trkpt lat="49.2404" lon="-0.26722">
        <ele>6.7</ele>
        <time>2020-06-17T10:14:24Z</time>
      </trkpt>
      <trkpt lat="49.24039" lon="-0.26716">
        <ele>6.7</ele>
        <time>2020-06-17T10:14:25Z</time>
      </trkpt>
      <trkpt lat="49.24037" lon="-0.2671">
        <ele>6.8</ele>
        <time>2020-06-17T10:14:26Z</time>
      </trkpt>
      <trkpt lat="49.24035" lon="-0.26702">
        <ele>6.8</ele>
        <time>2020-06-17T10:14:27Z</time>
      </trkpt>
      <trkpt lat="49.24034" lon="-0.26695">
        <ele>6.8</ele>
        <time>2020-06-17T10:14:28Z</time>
      </trkpt>
      <trkpt lat="49.24031" lon="-0.26689">
        <ele>6.8</ele>
        <time>2020-06-17T10:14:29Z</time>
      </trkpt>
      <trkpt lat="49.2403" lon="-0.26682">
        <ele>6.8</ele>
        <time>2020-06-17T10:14:30Z</time>
      </trkpt>
      <trkpt lat="49.24028" lon="-0.26674">
        <ele>6.8</ele>
        <time>2020-06-17T10:14:31Z</time>
      </trkpt>
      <trkpt lat="49.24027" lon="-0.26666">
        <ele>6.8</ele>
        <time>2020-06-17T10:14:32Z</time>
      </trkpt>
      <trkpt lat="49.24025" lon="-0.26657">
        <ele>6.8</ele>
        <time>2020-06-17T10:14:33Z</time>
      </trkpt>
      <trkpt lat="49.24024" lon="-0.26649">
        <ele>6.8</ele>
        <time>2020-06-17T10:14:34Z</time>
      </trkpt>
      <trkpt lat="49.24021" lon="-0.26641">
        <ele>6.8</ele>
        <time>2020-06-17T10:14:35Z</time>
      </trkpt>
      <trkpt lat="49.2402" lon="-0.26631">
        <ele>6.8</ele>
        <time>2020-06-17T10:14:36Z</time>
      </trkpt>
      <trkpt lat="49.24017" lon="-0.26623">
        <ele>6.9</ele>
        <time>2020-06-17T10:14:37Z</time>
      </trkpt>
      <trkpt lat="49.24015" lon="-0.26614">
        <ele>6.9</ele>
        <time>2020-06-17T10:14:38Z</time>
      </trkpt>
      <trkpt lat="49.24012" lon="-0.26605">
        <ele>6.8</ele>
        <time>2020-06-17T10:14:39Z</time>
      </trkpt>
      <trkpt lat="49.2401" lon="-0.26596">
        <ele>6.8</ele>
        <time>2020-06-17T10:14:40Z</time>
      </trkpt>
      <trkpt lat="49.24008" lon="-0.26587">
        <ele>6.7</ele>
        <time>2020-06-17T10:14:41Z</time>
      </trkpt>
      <trkpt lat="49.24005" lon="-0.26579">
        <ele>6.7</ele>
        <time>2020-06-17T10:14:42Z</time>
      </trkpt>
      <trkpt lat="49.24003" lon="-0.2657">
        <ele>6.7</ele>
        <time>2020-06-17T10:14:43Z</time>
      </trkpt>
      <trkpt lat="49.24001" lon="-0.26561">
        <ele>6.7</ele>
        <time>2020-06-17T10:14:44Z</time>
      </trkpt>
      <trkpt lat="49.23999" lon="-0.26554">
        <ele>6.7</ele>
        <time>2020-06-17T10:14:45Z</time>
      </trkpt>
      <trkpt lat="49.23997" lon="-0.26545">
        <ele>6.7</ele>
        <time>2020-06-17T10:14:46Z</time>
      </trkpt>
      <trkpt lat="49.23995" lon="-0.26537">
        <ele>6.7</ele>
        <time>2020-06-17T10:14:47Z</time>
      </trkpt>
      <trkpt lat="49.23993" lon="-0.26529">
        <ele>6.7</ele>
        <time>2020-06-17T10:14:48Z</time>
      </trkpt>
      <trkpt lat="49.2399" lon="-0.26521">
        <ele>6.7</ele>
        <time>2020-06-17T10:14:49Z</time>
      </trkpt>
      <trkpt lat="49.23988" lon="-0.26513">
        <ele>6.7</ele>
        <time>2020-06-17T10:14:50Z</time>
      </trkpt>
      <trkpt lat="49.23986" lon="-0.26505">
        <ele>6.7</ele>
        <time>2020-06-17T10:14:51Z</time>
      </trkpt>
      <trkpt lat="49.23984" lon="-0.26496">
        <ele>6.7</ele>
        <time>2020-06-17T10:14:52Z</time>
      </trkpt>
      <trkpt lat="49.23981" lon="-0.26487">
        <ele>6.8</ele>
        <time>2020-06-17T10:14:53Z</time>
      </trkpt>
      <trkpt lat="49.23979" lon="-0.26478">
        <ele>6.8</ele>
        <time>2020-06-17T10:14:54Z</time>
      </trkpt>
      <trkpt lat="49.23976" lon="-0.26471">
        <ele>6.8</ele>
        <time>2020-06-17T10:14:55Z</time>
      </trkpt>
      <trkpt lat="49.23974" lon="-0.26464">
        <ele>6.8</ele>
        <time>2020-06-17T10:14:56Z</time>
      </trkpt>
      <trkpt lat="49.23972" lon="-0.26457">
        <ele>6.8</ele>
        <time>2020-06-17T10:14:57Z</time>
      </trkpt>
      <trkpt lat="49.2397" lon="-0.26451">
        <ele>6.8</ele>
        <time>2020-06-17T10:14:58Z</time>
      </trkpt>
      <trkpt lat="49.23968" lon="-0.26445">
        <ele>6.7</ele>
        <time>2020-06-17T10:14:59Z</time>
      </trkpt>
      <trkpt lat="49.23965" lon="-0.26438">
        <ele>6.6</ele>
        <time>2020-06-17T10:15:00Z</time>
      </trkpt>
      <trkpt lat="49.23961" lon="-0.26432">
        <ele>6.5</ele>
        <time>2020-06-17T10:15:01Z</time>
      </trkpt>
      <trkpt lat="49.23958" lon="-0.26427">
        <ele>6.6</ele>
        <time>2020-06-17T10:15:02Z</time>
      </trkpt>
      <trkpt lat="49.23954" lon="-0.26423">
        <ele>6.6</ele>
        <time>2020-06-17T10:15:03Z</time>
      </trkpt>
      <trkpt lat="49.2395" lon="-0.2642">
        <ele>6.6</ele>
        <time>2020-06-17T10:15:04Z</time>
      </trkpt>
      <trkpt lat="49.23945" lon="-0.2642">
        <ele>6.6</ele>
        <time>2020-06-17T10:15:05Z</time>
      </trkpt>
      <trkpt lat="49.23939" lon="-0.26421">
        <ele>6.7</ele>
        <time>2020-06-17T10:15:06Z</time>
      </trkpt>
      <trkpt lat="49.23933" lon="-0.2642">
        <ele>6.7</ele>
        <time>2020-06-17T10:15:07Z</time>
      </trkpt>
      <trkpt lat="49.23928" lon="-0.26417">
        <ele>6.7</ele>
        <time>2020-06-17T10:15:08Z</time>
      </trkpt>
      <trkpt lat="49.23923" lon="-0.26412">
        <ele>6.7</ele>
        <time>2020-06-17T10:15:09Z</time>
      </trkpt>
      <trkpt lat="49.23919" lon="-0.26406">
        <ele>6.7</ele>
        <time>2020-06-17T10:15:10Z</time>
      </trkpt>
      <trkpt lat="49.23917" lon="-0.26398">
        <ele>6.7</ele>
        <time>2020-06-17T10:15:11Z</time>
      </trkpt>
      <trkpt lat="49.23915" lon="-0.26392">
        <ele>6.7</ele>
        <time>2020-06-17T10:15:12Z</time>
      </trkpt>
      <trkpt lat="49.23914" lon="-0.26383">
        <ele>6.7</ele>
        <time>2020-06-17T10:15:13Z</time>
      </trkpt>
      <trkpt lat="49.23914" lon="-0.26375">
        <ele>6.7</ele>
        <time>2020-06-17T10:15:14Z</time>
      </trkpt>
      <trkpt lat="49.23915" lon="-0.26368">
        <ele>6.6</ele>
        <time>2020-06-17T10:15:15Z</time>
      </trkpt>
      <trkpt lat="49.23917" lon="-0.26361">
        <ele>6.6</ele>
        <time>2020-06-17T10:15:16Z</time>
      </trkpt>
      <trkpt lat="49.23919" lon="-0.26354">
        <ele>6.5</ele>
        <time>2020-06-17T10:15:17Z</time>
      </trkpt>
      <trkpt lat="49.23923" lon="-0.26348">
        <ele>6.5</ele>
        <time>2020-06-17T10:15:18Z</time>
      </trkpt>
      <trkpt lat="49.23927" lon="-0.26343">
        <ele>6.4</ele>
        <time>2020-06-17T10:15:19Z</time>
      </trkpt>
      <trkpt lat="49.2393" lon="-0.26337">
        <ele>6.6</ele>
        <time>2020-06-17T10:15:20Z</time>
      </trkpt>
      <trkpt lat="49.23934" lon="-0.26332">
        <ele>6.6</ele>
        <time>2020-06-17T10:15:21Z</time>
      </trkpt>
      <trkpt lat="49.23937" lon="-0.26326">
        <ele>6.6</ele>
        <time>2020-06-17T10:15:22Z</time>
      </trkpt>
      <trkpt lat="49.23939" lon="-0.2632">
        <ele>6.6</ele>
        <time>2020-06-17T10:15:23Z</time>
      </trkpt>
      <trkpt lat="49.23941" lon="-0.26315">
        <ele>6.6</ele>
        <time>2020-06-17T10:15:24Z</time>
      </trkpt>
      <trkpt lat="49.23943" lon="-0.26309">
        <ele>6.6</ele>
        <time>2020-06-17T10:15:25Z</time>
      </trkpt>
      <trkpt lat="49.23945" lon="-0.26304">
        <ele>6.6</ele>
        <time>2020-06-17T10:15:26Z</time>
      </trkpt>
      <trkpt lat="49.23945" lon="-0.26297">
        <ele>6.6</ele>
        <time>2020-06-17T10:15:27Z</time>
      </trkpt>
      <trkpt lat="49.23944" lon="-0.2629">
        <ele>6.7</ele>
        <time>2020-06-17T10:15:28Z</time>
      </trkpt>
      <trkpt lat="49.23942" lon="-0.26282">
        <ele>6.8</ele>
        <time>2020-06-17T10:15:29Z</time>
      </trkpt>
      <trkpt lat="49.23941" lon="-0.26272">
        <ele>6.9</ele>
        <time>2020-06-17T10:15:30Z</time>
      </trkpt>
      <trkpt lat="49.2394" lon="-0.26263">
        <ele>7</ele>
        <time>2020-06-17T10:15:31Z</time>
      </trkpt>
      <trkpt lat="49.23939" lon="-0.26254">
        <ele>7.1</ele>
        <time>2020-06-17T10:15:32Z</time>
      </trkpt>
      <trkpt lat="49.23939" lon="-0.26246">
        <ele>7.2</ele>
        <time>2020-06-17T10:15:33Z</time>
      </trkpt>
      <trkpt lat="49.23937" lon="-0.26238">
        <ele>7.3</ele>
        <time>2020-06-17T10:15:34Z</time>
      </trkpt>
      <trkpt lat="49.23936" lon="-0.26228">
        <ele>7.4</ele>
        <time>2020-06-17T10:15:35Z</time>
      </trkpt>
      <trkpt lat="49.23935" lon="-0.2622">
        <ele>7.6</ele>
        <time>2020-06-17T10:15:36Z</time>
      </trkpt>
      <trkpt lat="49.23935" lon="-0.26212">
        <ele>7.8</ele>
        <time>2020-06-17T10:15:37Z</time>
      </trkpt>
      <trkpt lat="49.23933" lon="-0.26203">
        <ele>8</ele>
        <time>2020-06-17T10:15:38Z</time>
      </trkpt>
      <trkpt lat="49.23931" lon="-0.26196">
        <ele>8.2</ele>
        <time>2020-06-17T10:15:39Z</time>
      </trkpt>
      <trkpt lat="49.23929" lon="-0.26188">
        <ele>8.5</ele>
        <time>2020-06-17T10:15:40Z</time>
      </trkpt>
      <trkpt lat="49.23927" lon="-0.26179">
        <ele>8.8</ele>
        <time>2020-06-17T10:15:41Z</time>
      </trkpt>
      <trkpt lat="49.23926" lon="-0.2617">
        <ele>9.1</ele>
        <time>2020-06-17T10:15:42Z</time>
      </trkpt>
      <trkpt lat="49.23925" lon="-0.2616">
        <ele>9.5</ele>
        <time>2020-06-17T10:15:43Z</time>
      </trkpt>
      <trkpt lat="49.23925" lon="-0.26151">
        <ele>9.9</ele>
        <time>2020-06-17T10:15:44Z</time>
      </trkpt>
      <trkpt lat="49.23924" lon="-0.26144">
        <ele>10.2</ele>
        <time>2020-06-17T10:15:45Z</time>
      </trkpt>
      <trkpt lat="49.23923" lon="-0.26137">
        <ele>10.6</ele>
        <time>2020-06-17T10:15:46Z</time>
      </trkpt>
      <trkpt lat="49.23922" lon="-0.26128">
        <ele>11</ele>
        <time>2020-06-17T10:15:47Z</time>
      </trkpt>
      <trkpt lat="49.23921" lon="-0.26121">
        <ele>11.4</ele>
        <time>2020-06-17T10:15:48Z</time>
      </trkpt>
      <trkpt lat="49.2392" lon="-0.26113">
        <ele>11.8</ele>
        <time>2020-06-17T10:15:49Z</time>
      </trkpt>
      <trkpt lat="49.23919" lon="-0.26105">
        <ele>12.2</ele>
        <time>2020-06-17T10:15:50Z</time>
      </trkpt>
      <trkpt lat="49.23918" lon="-0.26098">
        <ele>12.6</ele>
        <time>2020-06-17T10:15:51Z</time>
      </trkpt>
      <trkpt lat="49.23917" lon="-0.2609">
        <ele>13</ele>
        <time>2020-06-17T10:15:52Z</time>
      </trkpt>
      <trkpt lat="49.23916" lon="-0.26084">
        <ele>13.4</ele>
        <time>2020-06-17T10:15:53Z</time>
      </trkpt>
      <trkpt lat="49.23915" lon="-0.26077">
        <ele>13.8</ele>
        <time>2020-06-17T10:15:54Z</time>
      </trkpt>
      <trkpt lat="49.23914" lon="-0.26069">
        <ele>14.2</ele>
        <time>2020-06-17T10:15:55Z</time>
      </trkpt>
      <trkpt lat="49.23914" lon="-0.26062">
        <ele>14.6</ele>
        <time>2020-06-17T10:15:56Z</time>
      </trkpt>
      <trkpt lat="49.23913" lon="-0.26056">
        <ele>15</ele>
        <time>2020-06-17T10:15:57Z</time>
      </trkpt>
      <trkpt lat="49.23912" lon="-0.2605">
        <ele>15.3</ele>
        <time>2020-06-17T10:15:58Z</time>
      </trkpt>
      <trkpt lat="49.23911" lon="-0.26044">
        <ele>15.6</ele>
        <time>2020-06-17T10:15:59Z</time>
      </trkpt>
      <trkpt lat="49.2391" lon="-0.26039">
        <ele>15.9</ele>
        <time>2020-06-17T10:16:00Z</time>
      </trkpt>
      <trkpt lat="49.2391" lon="-0.26031">
        <ele>16.3</ele>
        <time>2020-06-17T10:16:01Z</time>
      </trkpt>
      <trkpt lat="49.2391" lon="-0.26024">
        <ele>16.6</ele>
        <time>2020-06-17T10:16:02Z</time>
      </trkpt>
      <trkpt lat="49.23911" lon="-0.26017">
        <ele>16.9</ele>
        <time>2020-06-17T10:16:03Z</time>
      </trkpt>
      <trkpt lat="49.23911" lon="-0.26012">
        <ele>17.1</ele>
        <time>2020-06-17T10:16:04Z</time>
      </trkpt>
      <trkpt lat="49.23911" lon="-0.26005">
        <ele>17.4</ele>
        <time>2020-06-17T10:16:05Z</time>
      </trkpt>
      <trkpt lat="49.23911" lon="-0.25999">
        <ele>17.7</ele>
        <time>2020-06-17T10:16:06Z</time>
      </trkpt>
      <trkpt lat="49.23911" lon="-0.25993">
        <ele>17.9</ele>
        <time>2020-06-17T10:16:07Z</time>
      </trkpt>
      <trkpt lat="49.23912" lon="-0.25987">
        <ele>18.2</ele>
        <time>2020-06-17T10:16:08Z</time>
      </trkpt>
      <trkpt lat="49.23912" lon="-0.25981">
        <ele>18.5</ele>
        <time>2020-06-17T10:16:09Z</time>
      </trkpt>
      <trkpt lat="49.23912" lon="-0.25975">
        <ele>18.7</ele>
        <time>2020-06-17T10:16:10Z</time>
      </trkpt>
      <trkpt lat="49.23912" lon="-0.2597">
        <ele>18.9</ele>
        <time>2020-06-17T10:16:11Z</time>
      </trkpt>
      <trkpt lat="49.23912" lon="-0.25964">
        <ele>19.2</ele>
        <time>2020-06-17T10:16:12Z</time>
      </trkpt>
      <trkpt lat="49.23913" lon="-0.25959">
        <ele>19.4</ele>
        <time>2020-06-17T10:16:13Z</time>
      </trkpt>
      <trkpt lat="49.23913" lon="-0.25954">
        <ele>19.6</ele>
        <time>2020-06-17T10:16:14Z</time>
      </trkpt>
      <trkpt lat="49.23913" lon="-0.2595">
        <ele>19.8</ele>
        <time>2020-06-17T10:16:15Z</time>
      </trkpt>
      <trkpt lat="49.23913" lon="-0.25945">
        <ele>20</ele>
        <time>2020-06-17T10:16:16Z</time>
      </trkpt>
      <trkpt lat="49.23913" lon="-0.2594">
        <ele>20.2</ele>
        <time>2020-06-17T10:16:17Z</time>
      </trkpt>
      <trkpt lat="49.23913" lon="-0.25935">
        <ele>20.3</ele>
        <time>2020-06-17T10:16:18Z</time>
      </trkpt>
      <trkpt lat="49.23914" lon="-0.2593">
        <ele>20.5</ele>
        <time>2020-06-17T10:16:19Z</time>
      </trkpt>
      <trkpt lat="49.23915" lon="-0.25924">
        <ele>20.7</ele>
        <time>2020-06-17T10:16:20Z</time>
      </trkpt>
      <trkpt lat="49.23916" lon="-0.25922">
        <ele>20.8</ele>
        <time>2020-06-17T10:16:21Z</time>
      </trkpt>
      <trkpt lat="49.23917" lon="-0.25918">
        <ele>21</ele>
        <time>2020-06-17T10:16:22Z</time>
      </trkpt>
      <trkpt lat="49.23918" lon="-0.25916">
        <ele>21</ele>
        <time>2020-06-17T10:16:23Z</time>
      </trkpt>
      <trkpt lat="49.23918" lon="-0.25911">
        <ele>21.2</ele>
        <time>2020-06-17T10:16:24Z</time>
      </trkpt>
      <trkpt lat="49.23918" lon="-0.25909">
        <ele>21.3</ele>
        <time>2020-06-17T10:16:25Z</time>
      </trkpt>
      <trkpt lat="49.23919" lon="-0.25904">
        <ele>21.5</ele>
        <time>2020-06-17T10:16:26Z</time>
      </trkpt>
      <trkpt lat="49.23919" lon="-0.259">
        <ele>21.7</ele>
        <time>2020-06-17T10:16:27Z</time>
      </trkpt>
      <trkpt lat="49.23919" lon="-0.25895">
        <ele>21.9</ele>
        <time>2020-06-17T10:16:28Z</time>
      </trkpt>
      <trkpt lat="49.23919" lon="-0.2589">
        <ele>22.1</ele>
        <time>2020-06-17T10:16:29Z</time>
      </trkpt>
      <trkpt lat="49.23919" lon="-0.25884">
        <ele>22.3</ele>
        <time>2020-06-17T10:16:30Z</time>
      </trkpt>
      <trkpt lat="49.23918" lon="-0.25879">
        <ele>22.4</ele>
        <time>2020-06-17T10:16:31Z</time>
      </trkpt>
      <trkpt lat="49.23918" lon="-0.25873">
        <ele>22.6</ele>
        <time>2020-06-17T10:16:32Z</time>
      </trkpt>
      <trkpt lat="49.23918" lon="-0.25867">
        <ele>22.8</ele>
        <time>2020-06-17T10:16:33Z</time>
      </trkpt>
      <trkpt lat="49.23918" lon="-0.25862">
        <ele>23</ele>
        <time>2020-06-17T10:16:34Z</time>
      </trkpt>
      <trkpt lat="49.23918" lon="-0.25857">
        <ele>23.1</ele>
        <time>2020-06-17T10:16:35Z</time>
      </trkpt>
      <trkpt lat="49.23918" lon="-0.25852">
        <ele>23.3</ele>
        <time>2020-06-17T10:16:36Z</time>
      </trkpt>
      <trkpt lat="49.23918" lon="-0.25846">
        <ele>23.5</ele>
        <time>2020-06-17T10:16:37Z</time>
      </trkpt>
      <trkpt lat="49.23919" lon="-0.2584">
        <ele>23.7</ele>
        <time>2020-06-17T10:16:38Z</time>
      </trkpt>
      <trkpt lat="49.2392" lon="-0.25834">
        <ele>23.8</ele>
        <time>2020-06-17T10:16:39Z</time>
      </trkpt>
      <trkpt lat="49.2392" lon="-0.2583">
        <ele>23.9</ele>
        <time>2020-06-17T10:16:40Z</time>
      </trkpt>
      <trkpt lat="49.23921" lon="-0.25823">
        <ele>24.1</ele>
        <time>2020-06-17T10:16:41Z</time>
      </trkpt>
      <trkpt lat="49.23922" lon="-0.25816">
        <ele>24.3</ele>
        <time>2020-06-17T10:16:42Z</time>
      </trkpt>
      <trkpt lat="49.23923" lon="-0.25809">
        <ele>24.4</ele>
        <time>2020-06-17T10:16:43Z</time>
      </trkpt>
      <trkpt lat="49.23924" lon="-0.25803">
        <ele>24.5</ele>
        <time>2020-06-17T10:16:44Z</time>
      </trkpt>
      <trkpt lat="49.23925" lon="-0.25797">
        <ele>24.7</ele>
        <time>2020-06-17T10:16:45Z</time>
      </trkpt>
      <trkpt lat="49.23926" lon="-0.2579">
        <ele>24.8</ele>
        <time>2020-06-17T10:16:46Z</time>
      </trkpt>
      <trkpt lat="49.23927" lon="-0.25784">
        <ele>24.9</ele>
        <time>2020-06-17T10:16:47Z</time>
      </trkpt>
      <trkpt lat="49.23928" lon="-0.25778">
        <ele>25.1</ele>
        <time>2020-06-17T10:16:48Z</time>
      </trkpt>
      <trkpt lat="49.23929" lon="-0.25771">
        <ele>25.2</ele>
        <time>2020-06-17T10:16:49Z</time>
      </trkpt>
      <trkpt lat="49.23931" lon="-0.25763">
        <ele>25.3</ele>
        <time>2020-06-17T10:16:50Z</time>
      </trkpt>
      <trkpt lat="49.23934" lon="-0.25756">
        <ele>25.5</ele>
        <time>2020-06-17T10:16:51Z</time>
      </trkpt>
      <trkpt lat="49.23937" lon="-0.25749">
        <ele>25.6</ele>
        <time>2020-06-17T10:16:52Z</time>
      </trkpt>
      <trkpt lat="49.23939" lon="-0.25742">
        <ele>25.7</ele>
        <time>2020-06-17T10:16:53Z</time>
      </trkpt>
      <trkpt lat="49.23941" lon="-0.25736">
        <ele>25.8</ele>
        <time>2020-06-17T10:16:54Z</time>
      </trkpt>
      <trkpt lat="49.23943" lon="-0.25728">
        <ele>25.9</ele>
        <time>2020-06-17T10:16:55Z</time>
      </trkpt>
      <trkpt lat="49.23945" lon="-0.25721">
        <ele>26</ele>
        <time>2020-06-17T10:16:56Z</time>
      </trkpt>
      <trkpt lat="49.23948" lon="-0.25714">
        <ele>26.1</ele>
        <time>2020-06-17T10:16:57Z</time>
      </trkpt>
      <trkpt lat="49.23952" lon="-0.25706">
        <ele>26.2</ele>
        <time>2020-06-17T10:16:58Z</time>
      </trkpt>
      <trkpt lat="49.23955" lon="-0.25699">
        <ele>26.3</ele>
        <time>2020-06-17T10:16:59Z</time>
      </trkpt>
      <trkpt lat="49.23958" lon="-0.25692">
        <ele>26.3</ele>
        <time>2020-06-17T10:17:00Z</time>
      </trkpt>
      <trkpt lat="49.23961" lon="-0.25686">
        <ele>26.4</ele>
        <time>2020-06-17T10:17:01Z</time>
      </trkpt>
      <trkpt lat="49.23964" lon="-0.25679">
        <ele>26.4</ele>
        <time>2020-06-17T10:17:02Z</time>
      </trkpt>
      <trkpt lat="49.23968" lon="-0.25671">
        <ele>26.5</ele>
        <time>2020-06-17T10:17:03Z</time>
      </trkpt>
      <trkpt lat="49.23972" lon="-0.25665">
        <ele>26.6</ele>
        <time>2020-06-17T10:17:04Z</time>
      </trkpt>
      <trkpt lat="49.23975" lon="-0.25658">
        <ele>26.6</ele>
        <time>2020-06-17T10:17:05Z</time>
      </trkpt>
      <trkpt lat="49.23981" lon="-0.25646">
        <ele>26.7</ele>
        <time>2020-06-17T10:17:06Z</time>
      </trkpt>
      <trkpt lat="49.23986" lon="-0.25635">
        <ele>26.7</ele>
        <time>2020-06-17T10:17:07Z</time>
      </trkpt>
      <trkpt lat="49.23989" lon="-0.25625">
        <ele>26.7</ele>
        <time>2020-06-17T10:17:08Z</time>
      </trkpt>
      <trkpt lat="49.23992" lon="-0.25616">
        <ele>26.7</ele>
        <time>2020-06-17T10:17:09Z</time>
      </trkpt>
      <trkpt lat="49.23993" lon="-0.25603">
        <ele>26.7</ele>
        <time>2020-06-17T10:17:10Z</time>
      </trkpt>
      <trkpt lat="49.23996" lon="-0.25594">
        <ele>26.7</ele>
        <time>2020-06-17T10:17:11Z</time>
      </trkpt>
      <trkpt lat="49.24" lon="-0.25585">
        <ele>26.6</ele>
        <time>2020-06-17T10:17:12Z</time>
      </trkpt>
      <trkpt lat="49.24003" lon="-0.25576">
        <ele>26.6</ele>
        <time>2020-06-17T10:17:13Z</time>
      </trkpt>
      <trkpt lat="49.24006" lon="-0.25567">
        <ele>26.5</ele>
        <time>2020-06-17T10:17:14Z</time>
      </trkpt>
      <trkpt lat="49.24009" lon="-0.25559">
        <ele>26.5</ele>
        <time>2020-06-17T10:17:15Z</time>
      </trkpt>
      <trkpt lat="49.24013" lon="-0.25552">
        <ele>26.5</ele>
        <time>2020-06-17T10:17:16Z</time>
      </trkpt>
      <trkpt lat="49.24016" lon="-0.25546">
        <ele>26.5</ele>
        <time>2020-06-17T10:17:17Z</time>
      </trkpt>
      <trkpt lat="49.2402" lon="-0.25538">
        <ele>26.5</ele>
        <time>2020-06-17T10:17:18Z</time>
      </trkpt>
      <trkpt lat="49.24023" lon="-0.25532">
        <ele>26.4</ele>
        <time>2020-06-17T10:17:19Z</time>
      </trkpt>
      <trkpt lat="49.24027" lon="-0.25524">
        <ele>26.4</ele>
        <time>2020-06-17T10:17:20Z</time>
      </trkpt>
      <trkpt lat="49.24031" lon="-0.25516">
        <ele>26.3</ele>
        <time>2020-06-17T10:17:21Z</time>
      </trkpt>
      <trkpt lat="49.24035" lon="-0.2551">
        <ele>26.3</ele>
        <time>2020-06-17T10:17:22Z</time>
      </trkpt>
      <trkpt lat="49.24039" lon="-0.25504">
        <ele>26.3</ele>
        <time>2020-06-17T10:17:23Z</time>
      </trkpt>
      <trkpt lat="49.24043" lon="-0.25498">
        <ele>26.2</ele>
        <time>2020-06-17T10:17:24Z</time>
      </trkpt>
      <trkpt lat="49.24048" lon="-0.25492">
        <ele>26.2</ele>
        <time>2020-06-17T10:17:25Z</time>
      </trkpt>
      <trkpt lat="49.24052" lon="-0.25486">
        <ele>26.1</ele>
        <time>2020-06-17T10:17:26Z</time>
      </trkpt>
      <trkpt lat="49.24056" lon="-0.25481">
        <ele>26</ele>
        <time>2020-06-17T10:17:27Z</time>
      </trkpt>
      <trkpt lat="49.2406" lon="-0.25476">
        <ele>26</ele>
        <time>2020-06-17T10:17:28Z</time>
      </trkpt>
      <trkpt lat="49.24064" lon="-0.25471">
        <ele>25.9</ele>
        <time>2020-06-17T10:17:29Z</time>
      </trkpt>
      <trkpt lat="49.24068" lon="-0.25467">
        <ele>25.8</ele>
        <time>2020-06-17T10:17:30Z</time>
      </trkpt>
      <trkpt lat="49.24072" lon="-0.25462">
        <ele>25.8</ele>
        <time>2020-06-17T10:17:31Z</time>
      </trkpt>
      <trkpt lat="49.24077" lon="-0.25457">
        <ele>25.7</ele>
        <time>2020-06-17T10:17:32Z</time>
      </trkpt>
      <trkpt lat="49.24081" lon="-0.25452">
        <ele>25.7</ele>
        <time>2020-06-17T10:17:33Z</time>
      </trkpt>
      <trkpt lat="49.24086" lon="-0.25447">
        <ele>25.6</ele>
        <time>2020-06-17T10:17:34Z</time>
      </trkpt>
      <trkpt lat="49.24092" lon="-0.25442">
        <ele>25.6</ele>
        <time>2020-06-17T10:17:35Z</time>
      </trkpt>
      <trkpt lat="49.24097" lon="-0.25437">
        <ele>25.5</ele>
        <time>2020-06-17T10:17:36Z</time>
      </trkpt>
      <trkpt lat="49.24102" lon="-0.25432">
        <ele>25.5</ele>
        <time>2020-06-17T10:17:37Z</time>
      </trkpt>
      <trkpt lat="49.24107" lon="-0.25426">
        <ele>25.4</ele>
        <time>2020-06-17T10:17:38Z</time>
      </trkpt>
      <trkpt lat="49.24113" lon="-0.25421">
        <ele>25.4</ele>
        <time>2020-06-17T10:17:39Z</time>
      </trkpt>
      <trkpt lat="49.24119" lon="-0.25416">
        <ele>25.3</ele>
        <time>2020-06-17T10:17:40Z</time>
      </trkpt>
      <trkpt lat="49.24125" lon="-0.25411">
        <ele>25.3</ele>
        <time>2020-06-17T10:17:41Z</time>
      </trkpt>
      <trkpt lat="49.24131" lon="-0.25406">
        <ele>25.2</ele>
        <time>2020-06-17T10:17:42Z</time>
      </trkpt>
      <trkpt lat="49.24138" lon="-0.25401">
        <ele>25.1</ele>
        <time>2020-06-17T10:17:43Z</time>
      </trkpt>
      <trkpt lat="49.24144" lon="-0.25396">
        <ele>25</ele>
        <time>2020-06-17T10:17:44Z</time>
      </trkpt>
      <trkpt lat="49.24151" lon="-0.25391">
        <ele>24.9</ele>
        <time>2020-06-17T10:17:45Z</time>
      </trkpt>
      <trkpt lat="49.24158" lon="-0.25386">
        <ele>24.9</ele>
        <time>2020-06-17T10:17:46Z</time>
      </trkpt>
      <trkpt lat="49.24165" lon="-0.25381">
        <ele>24.8</ele>
        <time>2020-06-17T10:17:47Z</time>
      </trkpt>
      <trkpt lat="49.24172" lon="-0.25376">
        <ele>24.7</ele>
        <time>2020-06-17T10:17:48Z</time>
      </trkpt>
      <trkpt lat="49.24179" lon="-0.25371">
        <ele>24.7</ele>
        <time>2020-06-17T10:17:49Z</time>
      </trkpt>
      <trkpt lat="49.24187" lon="-0.25366">
        <ele>24.6</ele>
        <time>2020-06-17T10:17:50Z</time>
      </trkpt>
      <trkpt lat="49.24195" lon="-0.25361">
        <ele>24.6</ele>
        <time>2020-06-17T10:17:51Z</time>
      </trkpt>
      <trkpt lat="49.24202" lon="-0.25356">
        <ele>24.6</ele>
        <time>2020-06-17T10:17:52Z</time>
      </trkpt>
      <trkpt lat="49.24209" lon="-0.25351">
        <ele>24.5</ele>
        <time>2020-06-17T10:17:53Z</time>
      </trkpt>
      <trkpt lat="49.24217" lon="-0.25346">
        <ele>24.5</ele>
        <time>2020-06-17T10:17:54Z</time>
      </trkpt>
      <trkpt lat="49.24225" lon="-0.25341">
        <ele>24.5</ele>
        <time>2020-06-17T10:17:55Z</time>
      </trkpt>
      <trkpt lat="49.24232" lon="-0.25336">
        <ele>24.6</ele>
        <time>2020-06-17T10:17:56Z</time>
      </trkpt>
      <trkpt lat="49.24239" lon="-0.25331">
        <ele>24.6</ele>
        <time>2020-06-17T10:17:57Z</time>
      </trkpt>
      <trkpt lat="49.24247" lon="-0.25326">
        <ele>24.6</ele>
        <time>2020-06-17T10:17:58Z</time>
      </trkpt>
      <trkpt lat="49.24254" lon="-0.25321">
        <ele>24.7</ele>
        <time>2020-06-17T10:17:59Z</time>
      </trkpt>
      <trkpt lat="49.24262" lon="-0.25315">
        <ele>24.7</ele>
        <time>2020-06-17T10:18:00Z</time>
      </trkpt>
      <trkpt lat="49.24269" lon="-0.2531">
        <ele>24.8</ele>
        <time>2020-06-17T10:18:01Z</time>
      </trkpt>
      <trkpt lat="49.24277" lon="-0.25305">
        <ele>24.8</ele>
        <time>2020-06-17T10:18:02Z</time>
      </trkpt>
      <trkpt lat="49.24284" lon="-0.253">
        <ele>24.8</ele>
        <time>2020-06-17T10:18:03Z</time>
      </trkpt>
      <trkpt lat="49.24291" lon="-0.25294">
        <ele>24.9</ele>
        <time>2020-06-17T10:18:04Z</time>
      </trkpt>
      <trkpt lat="49.24299" lon="-0.2529">
        <ele>25</ele>
        <time>2020-06-17T10:18:05Z</time>
      </trkpt>
      <trkpt lat="49.24306" lon="-0.25285">
        <ele>25.2</ele>
        <time>2020-06-17T10:18:06Z</time>
      </trkpt>
      <trkpt lat="49.24313" lon="-0.2528">
        <ele>25.2</ele>
        <time>2020-06-17T10:18:07Z</time>
      </trkpt>
      <trkpt lat="49.2432" lon="-0.25275">
        <ele>25.2</ele>
        <time>2020-06-17T10:18:08Z</time>
      </trkpt>
      <trkpt lat="49.24327" lon="-0.25269">
        <ele>25.3</ele>
        <time>2020-06-17T10:18:09Z</time>
      </trkpt>
      <trkpt lat="49.24334" lon="-0.25264">
        <ele>25.4</ele>
        <time>2020-06-17T10:18:10Z</time>
      </trkpt>
      <trkpt lat="49.24341" lon="-0.25259">
        <ele>25.5</ele>
        <time>2020-06-17T10:18:11Z</time>
      </trkpt>
      <trkpt lat="49.24348" lon="-0.25254">
        <ele>25.6</ele>
        <time>2020-06-17T10:18:12Z</time>
      </trkpt>
      <trkpt lat="49.24355" lon="-0.25249">
        <ele>25.8</ele>
        <time>2020-06-17T10:18:13Z</time>
      </trkpt>
      <trkpt lat="49.24362" lon="-0.25243">
        <ele>25.9</ele>
        <time>2020-06-17T10:18:14Z</time>
      </trkpt>
      <trkpt lat="49.2437" lon="-0.25238">
        <ele>26</ele>
        <time>2020-06-17T10:18:15Z</time>
      </trkpt>
      <trkpt lat="49.24377" lon="-0.25233">
        <ele>26.1</ele>
        <time>2020-06-17T10:18:16Z</time>
      </trkpt>
      <trkpt lat="49.24384" lon="-0.2523">
        <ele>26.2</ele>
        <time>2020-06-17T10:18:17Z</time>
      </trkpt>
      <trkpt lat="49.24391" lon="-0.25225">
        <ele>26.2</ele>
        <time>2020-06-17T10:18:18Z</time>
      </trkpt>
      <trkpt lat="49.24398" lon="-0.2522">
        <ele>26.3</ele>
        <time>2020-06-17T10:18:19Z</time>
      </trkpt>
      <trkpt lat="49.24405" lon="-0.25214">
        <ele>26.4</ele>
        <time>2020-06-17T10:18:20Z</time>
      </trkpt>
      <trkpt lat="49.24412" lon="-0.2521">
        <ele>26.4</ele>
        <time>2020-06-17T10:18:21Z</time>
      </trkpt>
      <trkpt lat="49.24419" lon="-0.25206">
        <ele>26.5</ele>
        <time>2020-06-17T10:18:22Z</time>
      </trkpt>
      <trkpt lat="49.24426" lon="-0.25201">
        <ele>26.5</ele>
        <time>2020-06-17T10:18:23Z</time>
      </trkpt>
      <trkpt lat="49.24433" lon="-0.25197">
        <ele>26.6</ele>
        <time>2020-06-17T10:18:24Z</time>
      </trkpt>
      <trkpt lat="49.2444" lon="-0.25192">
        <ele>26.6</ele>
        <time>2020-06-17T10:18:25Z</time>
      </trkpt>
      <trkpt lat="49.24446" lon="-0.25186">
        <ele>26.6</ele>
        <time>2020-06-17T10:18:26Z</time>
      </trkpt>
      <trkpt lat="49.24453" lon="-0.25181">
        <ele>26.7</ele>
        <time>2020-06-17T10:18:27Z</time>
      </trkpt>
      <trkpt lat="49.2446" lon="-0.25176">
        <ele>26.7</ele>
        <time>2020-06-17T10:18:28Z</time>
      </trkpt>
      <trkpt lat="49.24467" lon="-0.2517">
        <ele>26.7</ele>
        <time>2020-06-17T10:18:29Z</time>
      </trkpt>
      <trkpt lat="49.24474" lon="-0.25164">
        <ele>26.8</ele>
        <time>2020-06-17T10:18:30Z</time>
      </trkpt>
      <trkpt lat="49.24481" lon="-0.2516">
        <ele>26.9</ele>
        <time>2020-06-17T10:18:31Z</time>
      </trkpt>
      <trkpt lat="49.24488" lon="-0.25155">
        <ele>27</ele>
        <time>2020-06-17T10:18:32Z</time>
      </trkpt>
      <trkpt lat="49.24496" lon="-0.25151">
        <ele>27.1</ele>
        <time>2020-06-17T10:18:33Z</time>
      </trkpt>
      <trkpt lat="49.24503" lon="-0.25146">
        <ele>27.2</ele>
        <time>2020-06-17T10:18:34Z</time>
      </trkpt>
      <trkpt lat="49.24509" lon="-0.25139">
        <ele>27.3</ele>
        <time>2020-06-17T10:18:35Z</time>
      </trkpt>
      <trkpt lat="49.24516" lon="-0.25132">
        <ele>27.3</ele>
        <time>2020-06-17T10:18:36Z</time>
      </trkpt>
      <trkpt lat="49.24523" lon="-0.25126">
        <ele>27.3</ele>
        <time>2020-06-17T10:18:37Z</time>
      </trkpt>
      <trkpt lat="49.2453" lon="-0.2512">
        <ele>27.3</ele>
        <time>2020-06-17T10:18:38Z</time>
      </trkpt>
      <trkpt lat="49.24536" lon="-0.25113">
        <ele>27.4</ele>
        <time>2020-06-17T10:18:39Z</time>
      </trkpt>
      <trkpt lat="49.24543" lon="-0.25106">
        <ele>27.4</ele>
        <time>2020-06-17T10:18:40Z</time>
      </trkpt>
      <trkpt lat="49.24549" lon="-0.251">
        <ele>27.5</ele>
        <time>2020-06-17T10:18:41Z</time>
      </trkpt>
      <trkpt lat="49.24555" lon="-0.25093">
        <ele>27.5</ele>
        <time>2020-06-17T10:18:42Z</time>
      </trkpt>
      <trkpt lat="49.24561" lon="-0.25086">
        <ele>27.6</ele>
        <time>2020-06-17T10:18:43Z</time>
      </trkpt>
      <trkpt lat="49.24566" lon="-0.25079">
        <ele>27.6</ele>
        <time>2020-06-17T10:18:44Z</time>
      </trkpt>
      <trkpt lat="49.24572" lon="-0.25073">
        <ele>27.6</ele>
        <time>2020-06-17T10:18:45Z</time>
      </trkpt>
      <trkpt lat="49.24578" lon="-0.25066">
        <ele>27.7</ele>
        <time>2020-06-17T10:18:46Z</time>
      </trkpt>
      <trkpt lat="49.24583" lon="-0.25058">
        <ele>27.7</ele>
        <time>2020-06-17T10:18:47Z</time>
      </trkpt>
      <trkpt lat="49.24588" lon="-0.2505">
        <ele>27.8</ele>
        <time>2020-06-17T10:18:48Z</time>
      </trkpt>
      <trkpt lat="49.24593" lon="-0.25042">
        <ele>27.8</ele>
        <time>2020-06-17T10:18:49Z</time>
      </trkpt>
      <trkpt lat="49.24599" lon="-0.25036">
        <ele>27.9</ele>
        <time>2020-06-17T10:18:50Z</time>
      </trkpt>
      <trkpt lat="49.24604" lon="-0.25028">
        <ele>28</ele>
        <time>2020-06-17T10:18:51Z</time>
      </trkpt>
      <trkpt lat="49.24609" lon="-0.2502">
        <ele>28</ele>
        <time>2020-06-17T10:18:52Z</time>
      </trkpt>
      <trkpt lat="49.24614" lon="-0.25013">
        <ele>28.1</ele>
        <time>2020-06-17T10:18:53Z</time>
      </trkpt>
      <trkpt lat="49.2462" lon="-0.25005">
        <ele>28.1</ele>
        <time>2020-06-17T10:18:54Z</time>
      </trkpt>
      <trkpt lat="49.24625" lon="-0.24997">
        <ele>28.1</ele>
        <time>2020-06-17T10:18:55Z</time>
      </trkpt>
      <trkpt lat="49.2463" lon="-0.24989">
        <ele>28.1</ele>
        <time>2020-06-17T10:18:56Z</time>
      </trkpt>
      <trkpt lat="49.24635" lon="-0.24981">
        <ele>28.1</ele>
        <time>2020-06-17T10:18:57Z</time>
      </trkpt>
      <trkpt lat="49.2464" lon="-0.24972">
        <ele>28</ele>
        <time>2020-06-17T10:18:58Z</time>
      </trkpt>
      <trkpt lat="49.24645" lon="-0.24963">
        <ele>27.9</ele>
        <time>2020-06-17T10:18:59Z</time>
      </trkpt>
      <trkpt lat="49.2465" lon="-0.24955">
        <ele>27.9</ele>
        <time>2020-06-17T10:19:00Z</time>
      </trkpt>
      <trkpt lat="49.24655" lon="-0.24946">
        <ele>27.9</ele>
        <time>2020-06-17T10:19:01Z</time>
      </trkpt>
      <trkpt lat="49.2466" lon="-0.24938">
        <ele>27.8</ele>
        <time>2020-06-17T10:19:02Z</time>
      </trkpt>
      <trkpt lat="49.24665" lon="-0.24929">
        <ele>27.9</ele>
        <time>2020-06-17T10:19:03Z</time>
      </trkpt>
      <trkpt lat="49.24671" lon="-0.24921">
        <ele>27.9</ele>
        <time>2020-06-17T10:19:04Z</time>
      </trkpt>
      <trkpt lat="49.24677" lon="-0.24913">
        <ele>27.9</ele>
        <time>2020-06-17T10:19:05Z</time>
      </trkpt>
      <trkpt lat="49.24682" lon="-0.24905">
        <ele>27.9</ele>
        <time>2020-06-17T10:19:06Z</time>
      </trkpt>
      <trkpt lat="49.24687" lon="-0.24897">
        <ele>27.9</ele>
        <time>2020-06-17T10:19:07Z</time>
      </trkpt>
      <trkpt lat="49.24692" lon="-0.24888">
        <ele>27.8</ele>
        <time>2020-06-17T10:19:08Z</time>
      </trkpt>
      <trkpt lat="49.24698" lon="-0.2488">
        <ele>27.8</ele>
        <time>2020-06-17T10:19:09Z</time>
      </trkpt>
      <trkpt lat="49.24703" lon="-0.24872">
        <ele>27.7</ele>
        <time>2020-06-17T10:19:10Z</time>
      </trkpt>
      <trkpt lat="49.24708" lon="-0.24864">
        <ele>27.7</ele>
        <time>2020-06-17T10:19:11Z</time>
      </trkpt>
      <trkpt lat="49.24714" lon="-0.24856">
        <ele>27.7</ele>
        <time>2020-06-17T10:19:12Z</time>
      </trkpt>
      <trkpt lat="49.24719" lon="-0.24848">
        <ele>27.6</ele>
        <time>2020-06-17T10:19:13Z</time>
      </trkpt>
      <trkpt lat="49.24724" lon="-0.2484">
        <ele>27.6</ele>
        <time>2020-06-17T10:19:14Z</time>
      </trkpt>
      <trkpt lat="49.2473" lon="-0.24832">
        <ele>27.5</ele>
        <time>2020-06-17T10:19:15Z</time>
      </trkpt>
      <trkpt lat="49.24735" lon="-0.24824">
        <ele>27.4</ele>
        <time>2020-06-17T10:19:16Z</time>
      </trkpt>
      <trkpt lat="49.24741" lon="-0.24817">
        <ele>27.3</ele>
        <time>2020-06-17T10:19:17Z</time>
      </trkpt>
      <trkpt lat="49.24747" lon="-0.2481">
        <ele>27.2</ele>
        <time>2020-06-17T10:19:18Z</time>
      </trkpt>
      <trkpt lat="49.24752" lon="-0.24802">
        <ele>27.2</ele>
        <time>2020-06-17T10:19:19Z</time>
      </trkpt>
      <trkpt lat="49.24758" lon="-0.24795">
        <ele>27.1</ele>
        <time>2020-06-17T10:19:20Z</time>
      </trkpt>
      <trkpt lat="49.24763" lon="-0.24787">
        <ele>27</ele>
        <time>2020-06-17T10:19:21Z</time>
      </trkpt>
      <trkpt lat="49.24768" lon="-0.24779">
        <ele>26.9</ele>
        <time>2020-06-17T10:19:22Z</time>
      </trkpt>
      <trkpt lat="49.24773" lon="-0.2477">
        <ele>26.8</ele>
        <time>2020-06-17T10:19:23Z</time>
      </trkpt>
      <trkpt lat="49.24778" lon="-0.24762">
        <ele>26.6</ele>
        <time>2020-06-17T10:19:24Z</time>
      </trkpt>
      <trkpt lat="49.24783" lon="-0.24753">
        <ele>26.4</ele>
        <time>2020-06-17T10:19:25Z</time>
      </trkpt>
      <trkpt lat="49.24789" lon="-0.24745">
        <ele>26.3</ele>
        <time>2020-06-17T10:19:26Z</time>
      </trkpt>
      <trkpt lat="49.24795" lon="-0.24737">
        <ele>26.1</ele>
        <time>2020-06-17T10:19:27Z</time>
      </trkpt>
      <trkpt lat="49.248" lon="-0.24729">
        <ele>26</ele>
        <time>2020-06-17T10:19:28Z</time>
      </trkpt>
      <trkpt lat="49.24806" lon="-0.2472">
        <ele>25.9</ele>
        <time>2020-06-17T10:19:29Z</time>
      </trkpt>
      <trkpt lat="49.24811" lon="-0.24712">
        <ele>25.7</ele>
        <time>2020-06-17T10:19:30Z</time>
      </trkpt>
      <trkpt lat="49.24817" lon="-0.24703">
        <ele>25.5</ele>
        <time>2020-06-17T10:19:31Z</time>
      </trkpt>
      <trkpt lat="49.24822" lon="-0.24695">
        <ele>25.3</ele>
        <time>2020-06-17T10:19:32Z</time>
      </trkpt>
      <trkpt lat="49.24828" lon="-0.24686">
        <ele>25.2</ele>
        <time>2020-06-17T10:19:33Z</time>
      </trkpt>
      <trkpt lat="49.24834" lon="-0.24678">
        <ele>25.1</ele>
        <time>2020-06-17T10:19:34Z</time>
      </trkpt>
      <trkpt lat="49.2484" lon="-0.24669">
        <ele>25</ele>
        <time>2020-06-17T10:19:35Z</time>
      </trkpt>
      <trkpt lat="49.24845" lon="-0.2466">
        <ele>24.9</ele>
        <time>2020-06-17T10:19:36Z</time>
      </trkpt>
      <trkpt lat="49.24851" lon="-0.2465">
        <ele>24.8</ele>
        <time>2020-06-17T10:19:37Z</time>
      </trkpt>
      <trkpt lat="49.24857" lon="-0.24641">
        <ele>24.7</ele>
        <time>2020-06-17T10:19:38Z</time>
      </trkpt>
      <trkpt lat="49.24863" lon="-0.24632">
        <ele>24.7</ele>
        <time>2020-06-17T10:19:39Z</time>
      </trkpt>
      <trkpt lat="49.24869" lon="-0.24623">
        <ele>24.6</ele>
        <time>2020-06-17T10:19:40Z</time>
      </trkpt>
      <trkpt lat="49.24875" lon="-0.24614">
        <ele>24.5</ele>
        <time>2020-06-17T10:19:41Z</time>
      </trkpt>
      <trkpt lat="49.24882" lon="-0.24605">
        <ele>24.4</ele>
        <time>2020-06-17T10:19:42Z</time>
      </trkpt>
      <trkpt lat="49.24888" lon="-0.24597">
        <ele>24.2</ele>
        <time>2020-06-17T10:19:43Z</time>
      </trkpt>
      <trkpt lat="49.24894" lon="-0.24588">
        <ele>24</ele>
        <time>2020-06-17T10:19:44Z</time>
      </trkpt>
      <trkpt lat="49.24901" lon="-0.24579">
        <ele>23.9</ele>
        <time>2020-06-17T10:19:45Z</time>
      </trkpt>
      <trkpt lat="49.24907" lon="-0.2457">
        <ele>23.7</ele>
        <time>2020-06-17T10:19:46Z</time>
      </trkpt>
      <trkpt lat="49.24913" lon="-0.24562">
        <ele>23.6</ele>
        <time>2020-06-17T10:19:47Z</time>
      </trkpt>
      <trkpt lat="49.24919" lon="-0.24553">
        <ele>23.4</ele>
        <time>2020-06-17T10:19:48Z</time>
      </trkpt>
      <trkpt lat="49.24925" lon="-0.24544">
        <ele>23.3</ele>
        <time>2020-06-17T10:19:49Z</time>
      </trkpt>
      <trkpt lat="49.24931" lon="-0.24537">
        <ele>23.2</ele>
        <time>2020-06-17T10:19:50Z</time>
      </trkpt>
      <trkpt lat="49.24938" lon="-0.24529">
        <ele>23.1</ele>
        <time>2020-06-17T10:19:51Z</time>
      </trkpt>
      <trkpt lat="49.24944" lon="-0.2452">
        <ele>23</ele>
        <time>2020-06-17T10:19:52Z</time>
      </trkpt>
      <trkpt lat="49.24951" lon="-0.24513">
        <ele>22.9</ele>
        <time>2020-06-17T10:19:53Z</time>
      </trkpt>
      <trkpt lat="49.24958" lon="-0.24506">
        <ele>22.7</ele>
        <time>2020-06-17T10:19:54Z</time>
      </trkpt>
      <trkpt lat="49.24964" lon="-0.24499">
        <ele>22.6</ele>
        <time>2020-06-17T10:19:55Z</time>
      </trkpt>
      <trkpt lat="49.24971" lon="-0.24491">
        <ele>22.4</ele>
        <time>2020-06-17T10:19:56Z</time>
      </trkpt>
      <trkpt lat="49.24978" lon="-0.24483">
        <ele>22.3</ele>
        <time>2020-06-17T10:19:57Z</time>
      </trkpt>
      <trkpt lat="49.24984" lon="-0.24476">
        <ele>22.2</ele>
        <time>2020-06-17T10:19:58Z</time>
      </trkpt>
      <trkpt lat="49.24991" lon="-0.24468">
        <ele>22.1</ele>
        <time>2020-06-17T10:19:59Z</time>
      </trkpt>
      <trkpt lat="49.24998" lon="-0.24461">
        <ele>22</ele>
        <time>2020-06-17T10:20:00Z</time>
      </trkpt>
      <trkpt lat="49.25005" lon="-0.24455">
        <ele>21.9</ele>
        <time>2020-06-17T10:20:01Z</time>
      </trkpt>
      <trkpt lat="49.25012" lon="-0.24449">
        <ele>21.9</ele>
        <time>2020-06-17T10:20:02Z</time>
      </trkpt>
      <trkpt lat="49.25019" lon="-0.24443">
        <ele>21.8</ele>
        <time>2020-06-17T10:20:03Z</time>
      </trkpt>
      <trkpt lat="49.25025" lon="-0.24435">
        <ele>21.8</ele>
        <time>2020-06-17T10:20:04Z</time>
      </trkpt>
      <trkpt lat="49.25032" lon="-0.2443">
        <ele>21.7</ele>
        <time>2020-06-17T10:20:05Z</time>
      </trkpt>
      <trkpt lat="49.25039" lon="-0.24424">
        <ele>21.7</ele>
        <time>2020-06-17T10:20:06Z</time>
      </trkpt>
      <trkpt lat="49.25046" lon="-0.24418">
        <ele>21.7</ele>
        <time>2020-06-17T10:20:07Z</time>
      </trkpt>
      <trkpt lat="49.25053" lon="-0.24411">
        <ele>21.7</ele>
        <time>2020-06-17T10:20:08Z</time>
      </trkpt>
      <trkpt lat="49.2506" lon="-0.24405">
        <ele>21.7</ele>
        <time>2020-06-17T10:20:09Z</time>
      </trkpt>
      <trkpt lat="49.25067" lon="-0.24401">
        <ele>21.7</ele>
        <time>2020-06-17T10:20:10Z</time>
      </trkpt>
      <trkpt lat="49.25074" lon="-0.24396">
        <ele>21.8</ele>
        <time>2020-06-17T10:20:11Z</time>
      </trkpt>
      <trkpt lat="49.25082" lon="-0.24391">
        <ele>21.9</ele>
        <time>2020-06-17T10:20:12Z</time>
      </trkpt>
      <trkpt lat="49.25089" lon="-0.24386">
        <ele>22</ele>
        <time>2020-06-17T10:20:13Z</time>
      </trkpt>
      <trkpt lat="49.25096" lon="-0.24381">
        <ele>22.1</ele>
        <time>2020-06-17T10:20:14Z</time>
      </trkpt>
      <trkpt lat="49.25103" lon="-0.24377">
        <ele>22.2</ele>
        <time>2020-06-17T10:20:15Z</time>
      </trkpt>
      <trkpt lat="49.25109" lon="-0.24371">
        <ele>22.4</ele>
        <time>2020-06-17T10:20:16Z</time>
      </trkpt>
      <trkpt lat="49.25116" lon="-0.24366">
        <ele>22.5</ele>
        <time>2020-06-17T10:20:17Z</time>
      </trkpt>
      <trkpt lat="49.25122" lon="-0.2436">
        <ele>22.7</ele>
        <time>2020-06-17T10:20:18Z</time>
      </trkpt>
      <trkpt lat="49.25129" lon="-0.24355">
        <ele>22.8</ele>
        <time>2020-06-17T10:20:19Z</time>
      </trkpt>
      <trkpt lat="49.25136" lon="-0.2435">
        <ele>22.9</ele>
        <time>2020-06-17T10:20:20Z</time>
      </trkpt>
      <trkpt lat="49.25142" lon="-0.24345">
        <ele>23</ele>
        <time>2020-06-17T10:20:21Z</time>
      </trkpt>
      <trkpt lat="49.25149" lon="-0.24341">
        <ele>23.1</ele>
        <time>2020-06-17T10:20:22Z</time>
      </trkpt>
      <trkpt lat="49.25157" lon="-0.24336">
        <ele>23.2</ele>
        <time>2020-06-17T10:20:23Z</time>
      </trkpt>
      <trkpt lat="49.25164" lon="-0.24331">
        <ele>23.3</ele>
        <time>2020-06-17T10:20:24Z</time>
      </trkpt>
      <trkpt lat="49.25171" lon="-0.24327">
        <ele>23.5</ele>
        <time>2020-06-17T10:20:25Z</time>
      </trkpt>
      <trkpt lat="49.25179" lon="-0.24323">
        <ele>23.6</ele>
        <time>2020-06-17T10:20:26Z</time>
      </trkpt>
      <trkpt lat="49.25186" lon="-0.24319">
        <ele>23.8</ele>
        <time>2020-06-17T10:20:27Z</time>
      </trkpt>
      <trkpt lat="49.25193" lon="-0.24315">
        <ele>23.9</ele>
        <time>2020-06-17T10:20:28Z</time>
      </trkpt>
      <trkpt lat="49.252" lon="-0.2431">
        <ele>24</ele>
        <time>2020-06-17T10:20:29Z</time>
      </trkpt>
      <trkpt lat="49.25207" lon="-0.24305">
        <ele>24.1</ele>
        <time>2020-06-17T10:20:30Z</time>
      </trkpt>
      <trkpt lat="49.25214" lon="-0.24301">
        <ele>24.2</ele>
        <time>2020-06-17T10:20:31Z</time>
      </trkpt>
      <trkpt lat="49.25221" lon="-0.24296">
        <ele>24.2</ele>
        <time>2020-06-17T10:20:32Z</time>
      </trkpt>
      <trkpt lat="49.25228" lon="-0.24292">
        <ele>24.3</ele>
        <time>2020-06-17T10:20:33Z</time>
      </trkpt>
      <trkpt lat="49.25235" lon="-0.24288">
        <ele>24.4</ele>
        <time>2020-06-17T10:20:34Z</time>
      </trkpt>
      <trkpt lat="49.25242" lon="-0.24284">
        <ele>24.4</ele>
        <time>2020-06-17T10:20:35Z</time>
      </trkpt>
      <trkpt lat="49.25249" lon="-0.24279">
        <ele>24.5</ele>
        <time>2020-06-17T10:20:36Z</time>
      </trkpt>
      <trkpt lat="49.25256" lon="-0.24276">
        <ele>24.5</ele>
        <time>2020-06-17T10:20:37Z</time>
      </trkpt>
      <trkpt lat="49.25263" lon="-0.24272">
        <ele>24.6</ele>
        <time>2020-06-17T10:20:38Z</time>
      </trkpt>
      <trkpt lat="49.2527" lon="-0.24268">
        <ele>24.7</ele>
        <time>2020-06-17T10:20:39Z</time>
      </trkpt>
      <trkpt lat="49.25277" lon="-0.24265">
        <ele>24.7</ele>
        <time>2020-06-17T10:20:40Z</time>
      </trkpt>
      <trkpt lat="49.25284" lon="-0.24261">
        <ele>24.8</ele>
        <time>2020-06-17T10:20:41Z</time>
      </trkpt>
      <trkpt lat="49.2529" lon="-0.24257">
        <ele>24.8</ele>
        <time>2020-06-17T10:20:42Z</time>
      </trkpt>
      <trkpt lat="49.25297" lon="-0.24254">
        <ele>24.9</ele>
        <time>2020-06-17T10:20:43Z</time>
      </trkpt>
      <trkpt lat="49.25304" lon="-0.2425">
        <ele>24.9</ele>
        <time>2020-06-17T10:20:44Z</time>
      </trkpt>
      <trkpt lat="49.25312" lon="-0.24247">
        <ele>24.9</ele>
        <time>2020-06-17T10:20:45Z</time>
      </trkpt>
      <trkpt lat="49.25319" lon="-0.24244">
        <ele>24.8</ele>
        <time>2020-06-17T10:20:46Z</time>
      </trkpt>
      <trkpt lat="49.25326" lon="-0.24242">
        <ele>24.8</ele>
        <time>2020-06-17T10:20:47Z</time>
      </trkpt>
      <trkpt lat="49.25334" lon="-0.24239">
        <ele>24.7</ele>
        <time>2020-06-17T10:20:48Z</time>
      </trkpt>
      <trkpt lat="49.25341" lon="-0.24237">
        <ele>24.7</ele>
        <time>2020-06-17T10:20:49Z</time>
      </trkpt>
      <trkpt lat="49.25349" lon="-0.24235">
        <ele>24.6</ele>
        <time>2020-06-17T10:20:50Z</time>
      </trkpt>
      <trkpt lat="49.25356" lon="-0.24232">
        <ele>24.5</ele>
        <time>2020-06-17T10:20:51Z</time>
      </trkpt>
      <trkpt lat="49.25363" lon="-0.2423">
        <ele>24.4</ele>
        <time>2020-06-17T10:20:52Z</time>
      </trkpt>
      <trkpt lat="49.25371" lon="-0.24227">
        <ele>24.3</ele>
        <time>2020-06-17T10:20:53Z</time>
      </trkpt>
      <trkpt lat="49.25378" lon="-0.24224">
        <ele>24.1</ele>
        <time>2020-06-17T10:20:54Z</time>
      </trkpt>
      <trkpt lat="49.25386" lon="-0.24221">
        <ele>23.9</ele>
        <time>2020-06-17T10:20:55Z</time>
      </trkpt>
      <trkpt lat="49.25393" lon="-0.24218">
        <ele>23.8</ele>
        <time>2020-06-17T10:20:56Z</time>
      </trkpt>
      <trkpt lat="49.25401" lon="-0.24215">
        <ele>23.6</ele>
        <time>2020-06-17T10:20:57Z</time>
      </trkpt>
      <trkpt lat="49.25408" lon="-0.24211">
        <ele>23.4</ele>
        <time>2020-06-17T10:20:58Z</time>
      </trkpt>
      <trkpt lat="49.25416" lon="-0.24208">
        <ele>23.1</ele>
        <time>2020-06-17T10:20:59Z</time>
      </trkpt>
      <trkpt lat="49.25424" lon="-0.24203">
        <ele>22.9</ele>
        <time>2020-06-17T10:21:00Z</time>
      </trkpt>
      <trkpt lat="49.25431" lon="-0.24198">
        <ele>22.7</ele>
        <time>2020-06-17T10:21:01Z</time>
      </trkpt>
      <trkpt lat="49.25439" lon="-0.24193">
        <ele>22.4</ele>
        <time>2020-06-17T10:21:02Z</time>
      </trkpt>
      <trkpt lat="49.25447" lon="-0.24188">
        <ele>22.2</ele>
        <time>2020-06-17T10:21:03Z</time>
      </trkpt>
      <trkpt lat="49.25455" lon="-0.24182">
        <ele>22</ele>
        <time>2020-06-17T10:21:04Z</time>
      </trkpt>
      <trkpt lat="49.25462" lon="-0.24175">
        <ele>21.7</ele>
        <time>2020-06-17T10:21:05Z</time>
      </trkpt>
      <trkpt lat="49.2547" lon="-0.24169">
        <ele>21.5</ele>
        <time>2020-06-17T10:21:06Z</time>
      </trkpt>
      <trkpt lat="49.25478" lon="-0.24162">
        <ele>21.2</ele>
        <time>2020-06-17T10:21:07Z</time>
      </trkpt>
      <trkpt lat="49.25486" lon="-0.24156">
        <ele>21</ele>
        <time>2020-06-17T10:21:08Z</time>
      </trkpt>
      <trkpt lat="49.25493" lon="-0.24148">
        <ele>20.9</ele>
        <time>2020-06-17T10:21:09Z</time>
      </trkpt>
      <trkpt lat="49.255" lon="-0.2414">
        <ele>20.8</ele>
        <time>2020-06-17T10:21:10Z</time>
      </trkpt>
      <trkpt lat="49.25507" lon="-0.24133">
        <ele>20.7</ele>
        <time>2020-06-17T10:21:11Z</time>
      </trkpt>
      <trkpt lat="49.25514" lon="-0.24125">
        <ele>20.6</ele>
        <time>2020-06-17T10:21:12Z</time>
      </trkpt>
      <trkpt lat="49.25522" lon="-0.24117">
        <ele>20.6</ele>
        <time>2020-06-17T10:21:13Z</time>
      </trkpt>
      <trkpt lat="49.25529" lon="-0.2411">
        <ele>20.4</ele>
        <time>2020-06-17T10:21:14Z</time>
      </trkpt>
      <trkpt lat="49.25536" lon="-0.24102">
        <ele>20.3</ele>
        <time>2020-06-17T10:21:15Z</time>
      </trkpt>
      <trkpt lat="49.25543" lon="-0.24094">
        <ele>20.2</ele>
        <time>2020-06-17T10:21:16Z</time>
      </trkpt>
      <trkpt lat="49.2555" lon="-0.24086">
        <ele>20.1</ele>
        <time>2020-06-17T10:21:17Z</time>
      </trkpt>
      <trkpt lat="49.25556" lon="-0.24078">
        <ele>20</ele>
        <time>2020-06-17T10:21:18Z</time>
      </trkpt>
      <trkpt lat="49.25563" lon="-0.24069">
        <ele>19.9</ele>
        <time>2020-06-17T10:21:19Z</time>
      </trkpt>
      <trkpt lat="49.25569" lon="-0.24062">
        <ele>19.9</ele>
        <time>2020-06-17T10:21:20Z</time>
      </trkpt>
      <trkpt lat="49.25576" lon="-0.24054">
        <ele>19.8</ele>
        <time>2020-06-17T10:21:21Z</time>
      </trkpt>
      <trkpt lat="49.25582" lon="-0.24047">
        <ele>19.7</ele>
        <time>2020-06-17T10:21:22Z</time>
      </trkpt>
      <trkpt lat="49.25589" lon="-0.2404">
        <ele>19.6</ele>
        <time>2020-06-17T10:21:23Z</time>
      </trkpt>
      <trkpt lat="49.25595" lon="-0.24032">
        <ele>19.4</ele>
        <time>2020-06-17T10:21:24Z</time>
      </trkpt>
      <trkpt lat="49.25602" lon="-0.24025">
        <ele>19.3</ele>
        <time>2020-06-17T10:21:25Z</time>
      </trkpt>
      <trkpt lat="49.25609" lon="-0.24019">
        <ele>19.2</ele>
        <time>2020-06-17T10:21:26Z</time>
      </trkpt>
      <trkpt lat="49.25615" lon="-0.24012">
        <ele>19.1</ele>
        <time>2020-06-17T10:21:27Z</time>
      </trkpt>
      <trkpt lat="49.25621" lon="-0.24005">
        <ele>19</ele>
        <time>2020-06-17T10:21:28Z</time>
      </trkpt>
      <trkpt lat="49.25628" lon="-0.23998">
        <ele>19</ele>
        <time>2020-06-17T10:21:29Z</time>
      </trkpt>
      <trkpt lat="49.25634" lon="-0.23991">
        <ele>18.9</ele>
        <time>2020-06-17T10:21:30Z</time>
      </trkpt>
      <trkpt lat="49.25641" lon="-0.23985">
        <ele>18.8</ele>
        <time>2020-06-17T10:21:31Z</time>
      </trkpt>
      <trkpt lat="49.25647" lon="-0.23978">
        <ele>18.6</ele>
        <time>2020-06-17T10:21:32Z</time>
      </trkpt>
      <trkpt lat="49.25654" lon="-0.23972">
        <ele>18.4</ele>
        <time>2020-06-17T10:21:33Z</time>
      </trkpt>
      <trkpt lat="49.25661" lon="-0.23964">
        <ele>18.2</ele>
        <time>2020-06-17T10:21:34Z</time>
      </trkpt>
      <trkpt lat="49.25668" lon="-0.23957">
        <ele>18.1</ele>
        <time>2020-06-17T10:21:35Z</time>
      </trkpt>
      <trkpt lat="49.25675" lon="-0.2395">
        <ele>17.9</ele>
        <time>2020-06-17T10:21:36Z</time>
      </trkpt>
      <trkpt lat="49.25682" lon="-0.23942">
        <ele>17.8</ele>
        <time>2020-06-17T10:21:37Z</time>
      </trkpt>
      <trkpt lat="49.25689" lon="-0.23935">
        <ele>17.7</ele>
        <time>2020-06-17T10:21:38Z</time>
      </trkpt>
      <trkpt lat="49.25697" lon="-0.23928">
        <ele>17.6</ele>
        <time>2020-06-17T10:21:39Z</time>
      </trkpt>
      <trkpt lat="49.25704" lon="-0.23921">
        <ele>17.5</ele>
        <time>2020-06-17T10:21:40Z</time>
      </trkpt>
      <trkpt lat="49.25711" lon="-0.23914">
        <ele>17.4</ele>
        <time>2020-06-17T10:21:41Z</time>
      </trkpt>
      <trkpt lat="49.25719" lon="-0.23907">
        <ele>17.3</ele>
        <time>2020-06-17T10:21:42Z</time>
      </trkpt>
      <trkpt lat="49.25726" lon="-0.239">
        <ele>17.2</ele>
        <time>2020-06-17T10:21:43Z</time>
      </trkpt>
      <trkpt lat="49.25733" lon="-0.23893">
        <ele>17.2</ele>
        <time>2020-06-17T10:21:44Z</time>
      </trkpt>
      <trkpt lat="49.2574" lon="-0.23886">
        <ele>17.1</ele>
        <time>2020-06-17T10:21:45Z</time>
      </trkpt>
      <trkpt lat="49.25747" lon="-0.23878">
        <ele>17</ele>
        <time>2020-06-17T10:21:46Z</time>
      </trkpt>
      <trkpt lat="49.25753" lon="-0.2387">
        <ele>16.9</ele>
        <time>2020-06-17T10:21:47Z</time>
      </trkpt>
      <trkpt lat="49.2576" lon="-0.23861">
        <ele>16.7</ele>
        <time>2020-06-17T10:21:48Z</time>
      </trkpt>
      <trkpt lat="49.25766" lon="-0.23853">
        <ele>16.5</ele>
        <time>2020-06-17T10:21:49Z</time>
      </trkpt>
      <trkpt lat="49.25773" lon="-0.23845">
        <ele>16.3</ele>
        <time>2020-06-17T10:21:50Z</time>
      </trkpt>
      <trkpt lat="49.2578" lon="-0.23838">
        <ele>16.1</ele>
        <time>2020-06-17T10:21:51Z</time>
      </trkpt>
      <trkpt lat="49.25787" lon="-0.2383">
        <ele>15.9</ele>
        <time>2020-06-17T10:21:52Z</time>
      </trkpt>
      <trkpt lat="49.25795" lon="-0.23822">
        <ele>15.7</ele>
        <time>2020-06-17T10:21:53Z</time>
      </trkpt>
      <trkpt lat="49.25802" lon="-0.23814">
        <ele>15.5</ele>
        <time>2020-06-17T10:21:54Z</time>
      </trkpt>
      <trkpt lat="49.25808" lon="-0.23805">
        <ele>15.2</ele>
        <time>2020-06-17T10:21:55Z</time>
      </trkpt>
      <trkpt lat="49.25815" lon="-0.23796">
        <ele>15</ele>
        <time>2020-06-17T10:21:56Z</time>
      </trkpt>
      <trkpt lat="49.25822" lon="-0.23787">
        <ele>14.7</ele>
        <time>2020-06-17T10:21:57Z</time>
      </trkpt>
      <trkpt lat="49.2583" lon="-0.23777">
        <ele>14.4</ele>
        <time>2020-06-17T10:21:58Z</time>
      </trkpt>
      <trkpt lat="49.25837" lon="-0.23768">
        <ele>14.1</ele>
        <time>2020-06-17T10:21:59Z</time>
      </trkpt>
      <trkpt lat="49.25845" lon="-0.23759">
        <ele>13.9</ele>
        <time>2020-06-17T10:22:00Z</time>
      </trkpt>
      <trkpt lat="49.25852" lon="-0.2375">
        <ele>13.5</ele>
        <time>2020-06-17T10:22:01Z</time>
      </trkpt>
      <trkpt lat="49.2586" lon="-0.23741">
        <ele>13.1</ele>
        <time>2020-06-17T10:22:02Z</time>
      </trkpt>
      <trkpt lat="49.25868" lon="-0.23732">
        <ele>12.6</ele>
        <time>2020-06-17T10:22:03Z</time>
      </trkpt>
      <trkpt lat="49.25876" lon="-0.23724">
        <ele>12.2</ele>
        <time>2020-06-17T10:22:04Z</time>
      </trkpt>
      <trkpt lat="49.25884" lon="-0.23715">
        <ele>11.8</ele>
        <time>2020-06-17T10:22:05Z</time>
      </trkpt>
      <trkpt lat="49.25893" lon="-0.23708">
        <ele>11.4</ele>
        <time>2020-06-17T10:22:06Z</time>
      </trkpt>
      <trkpt lat="49.25903" lon="-0.23703">
        <ele>11</ele>
        <time>2020-06-17T10:22:07Z</time>
      </trkpt>
      <trkpt lat="49.25913" lon="-0.23697">
        <ele>10.7</ele>
        <time>2020-06-17T10:22:08Z</time>
      </trkpt>
      <trkpt lat="49.25922" lon="-0.23691">
        <ele>10.4</ele>
        <time>2020-06-17T10:22:09Z</time>
      </trkpt>
      <trkpt lat="49.25932" lon="-0.23685">
        <ele>10.1</ele>
        <time>2020-06-17T10:22:10Z</time>
      </trkpt>
      <trkpt lat="49.25941" lon="-0.23679">
        <ele>9.9</ele>
        <time>2020-06-17T10:22:11Z</time>
      </trkpt>
      <trkpt lat="49.25951" lon="-0.23674">
        <ele>9.5</ele>
        <time>2020-06-17T10:22:12Z</time>
      </trkpt>
      <trkpt lat="49.2596" lon="-0.2367">
        <ele>9.2</ele>
        <time>2020-06-17T10:22:13Z</time>
      </trkpt>
      <trkpt lat="49.2597" lon="-0.23667">
        <ele>9</ele>
        <time>2020-06-17T10:22:14Z</time>
      </trkpt>
      <trkpt lat="49.2598" lon="-0.23662">
        <ele>8.7</ele>
        <time>2020-06-17T10:22:15Z</time>
      </trkpt>
      <trkpt lat="49.25989" lon="-0.23658">
        <ele>8.4</ele>
        <time>2020-06-17T10:22:16Z</time>
      </trkpt>
      <trkpt lat="49.25999" lon="-0.23651">
        <ele>8.3</ele>
        <time>2020-06-17T10:22:17Z</time>
      </trkpt>
      <trkpt lat="49.26008" lon="-0.23644">
        <ele>8.1</ele>
        <time>2020-06-17T10:22:18Z</time>
      </trkpt>
      <trkpt lat="49.26017" lon="-0.23637">
        <ele>7.9</ele>
        <time>2020-06-17T10:22:19Z</time>
      </trkpt>
      <trkpt lat="49.26026" lon="-0.2363">
        <ele>7.8</ele>
        <time>2020-06-17T10:22:20Z</time>
      </trkpt>
      <trkpt lat="49.26035" lon="-0.23622">
        <ele>7.8</ele>
        <time>2020-06-17T10:22:21Z</time>
      </trkpt>
      <trkpt lat="49.26044" lon="-0.23614">
        <ele>7.9</ele>
        <time>2020-06-17T10:22:22Z</time>
      </trkpt>
      <trkpt lat="49.26053" lon="-0.23606">
        <ele>8</ele>
        <time>2020-06-17T10:22:23Z</time>
      </trkpt>
      <trkpt lat="49.26061" lon="-0.23598">
        <ele>8.2</ele>
        <time>2020-06-17T10:22:24Z</time>
      </trkpt>
      <trkpt lat="49.26069" lon="-0.2359">
        <ele>8.3</ele>
        <time>2020-06-17T10:22:25Z</time>
      </trkpt>
      <trkpt lat="49.26077" lon="-0.2358">
        <ele>8.4</ele>
        <time>2020-06-17T10:22:26Z</time>
      </trkpt>
      <trkpt lat="49.26084" lon="-0.2357">
        <ele>8.4</ele>
        <time>2020-06-17T10:22:27Z</time>
      </trkpt>
      <trkpt lat="49.26091" lon="-0.2356">
        <ele>8.5</ele>
        <time>2020-06-17T10:22:28Z</time>
      </trkpt>
      <trkpt lat="49.26098" lon="-0.2355">
        <ele>8.6</ele>
        <time>2020-06-17T10:22:29Z</time>
      </trkpt>
      <trkpt lat="49.26104" lon="-0.23541">
        <ele>8.7</ele>
        <time>2020-06-17T10:22:30Z</time>
      </trkpt>
      <trkpt lat="49.26111" lon="-0.23531">
        <ele>8.8</ele>
        <time>2020-06-17T10:22:31Z</time>
      </trkpt>
      <trkpt lat="49.26116" lon="-0.2352">
        <ele>8.8</ele>
        <time>2020-06-17T10:22:32Z</time>
      </trkpt>
      <trkpt lat="49.26123" lon="-0.2351">
        <ele>8.9</ele>
        <time>2020-06-17T10:22:33Z</time>
      </trkpt>
      <trkpt lat="49.26129" lon="-0.235">
        <ele>8.9</ele>
        <time>2020-06-17T10:22:34Z</time>
      </trkpt>
      <trkpt lat="49.26135" lon="-0.2349">
        <ele>9</ele>
        <time>2020-06-17T10:22:35Z</time>
      </trkpt>
      <trkpt lat="49.26141" lon="-0.23479">
        <ele>9</ele>
        <time>2020-06-17T10:22:36Z</time>
      </trkpt>
      <trkpt lat="49.26147" lon="-0.23469">
        <ele>9</ele>
        <time>2020-06-17T10:22:37Z</time>
      </trkpt>
      <trkpt lat="49.26153" lon="-0.23459">
        <ele>8.9</ele>
        <time>2020-06-17T10:22:38Z</time>
      </trkpt>
      <trkpt lat="49.26158" lon="-0.23447">
        <ele>8.9</ele>
        <time>2020-06-17T10:22:39Z</time>
      </trkpt>
      <trkpt lat="49.26163" lon="-0.23436">
        <ele>8.9</ele>
        <time>2020-06-17T10:22:40Z</time>
      </trkpt>
      <trkpt lat="49.26169" lon="-0.23426">
        <ele>8.9</ele>
        <time>2020-06-17T10:22:41Z</time>
      </trkpt>
      <trkpt lat="49.26173" lon="-0.23415">
        <ele>8.8</ele>
        <time>2020-06-17T10:22:42Z</time>
      </trkpt>
      <trkpt lat="49.26178" lon="-0.23404">
        <ele>8.8</ele>
        <time>2020-06-17T10:22:43Z</time>
      </trkpt>
      <trkpt lat="49.26183" lon="-0.23392">
        <ele>8.8</ele>
        <time>2020-06-17T10:22:44Z</time>
      </trkpt>
      <trkpt lat="49.26188" lon="-0.23381">
        <ele>8.8</ele>
        <time>2020-06-17T10:22:45Z</time>
      </trkpt>
      <trkpt lat="49.26192" lon="-0.2337">
        <ele>8.7</ele>
        <time>2020-06-17T10:22:46Z</time>
      </trkpt>
      <trkpt lat="49.26196" lon="-0.23358">
        <ele>8.7</ele>
        <time>2020-06-17T10:22:47Z</time>
      </trkpt>
      <trkpt lat="49.26201" lon="-0.23347">
        <ele>8.7</ele>
        <time>2020-06-17T10:22:48Z</time>
      </trkpt>
      <trkpt lat="49.26205" lon="-0.23335">
        <ele>8.7</ele>
        <time>2020-06-17T10:22:49Z</time>
      </trkpt>
      <trkpt lat="49.2621" lon="-0.23324">
        <ele>8.7</ele>
        <time>2020-06-17T10:22:50Z</time>
      </trkpt>
      <trkpt lat="49.26214" lon="-0.23313">
        <ele>8.6</ele>
        <time>2020-06-17T10:22:51Z</time>
      </trkpt>
      <trkpt lat="49.26219" lon="-0.23302">
        <ele>8.6</ele>
        <time>2020-06-17T10:22:52Z</time>
      </trkpt>
      <trkpt lat="49.26224" lon="-0.23291">
        <ele>8.6</ele>
        <time>2020-06-17T10:22:53Z</time>
      </trkpt>
      <trkpt lat="49.26228" lon="-0.23279">
        <ele>8.5</ele>
        <time>2020-06-17T10:22:54Z</time>
      </trkpt>
      <trkpt lat="49.26233" lon="-0.23269">
        <ele>8.5</ele>
        <time>2020-06-17T10:22:55Z</time>
      </trkpt>
      <trkpt lat="49.26237" lon="-0.23259">
        <ele>8.5</ele>
        <time>2020-06-17T10:22:56Z</time>
      </trkpt>
      <trkpt lat="49.26241" lon="-0.23248">
        <ele>8.4</ele>
        <time>2020-06-17T10:22:57Z</time>
      </trkpt>
      <trkpt lat="49.26245" lon="-0.2324">
        <ele>8.4</ele>
        <time>2020-06-17T10:22:58Z</time>
      </trkpt>
      <trkpt lat="49.26248" lon="-0.23231">
        <ele>8.3</ele>
        <time>2020-06-17T10:22:59Z</time>
      </trkpt>
      <trkpt lat="49.26251" lon="-0.23223">
        <ele>8.3</ele>
        <time>2020-06-17T10:23:00Z</time>
      </trkpt>
      <trkpt lat="49.26254" lon="-0.23216">
        <ele>8.2</ele>
        <time>2020-06-17T10:23:01Z</time>
      </trkpt>
      <trkpt lat="49.26258" lon="-0.23208">
        <ele>8.1</ele>
        <time>2020-06-17T10:23:02Z</time>
      </trkpt>
      <trkpt lat="49.26261" lon="-0.232">
        <ele>8</ele>
        <time>2020-06-17T10:23:03Z</time>
      </trkpt>
      <trkpt lat="49.26265" lon="-0.23192">
        <ele>7.8</ele>
        <time>2020-06-17T10:23:04Z</time>
      </trkpt>
      <trkpt lat="49.26269" lon="-0.23184">
        <ele>7.7</ele>
        <time>2020-06-17T10:23:05Z</time>
      </trkpt>
      <trkpt lat="49.26274" lon="-0.23176">
        <ele>7.6</ele>
        <time>2020-06-17T10:23:06Z</time>
      </trkpt>
      <trkpt lat="49.26279" lon="-0.23167">
        <ele>7.4</ele>
        <time>2020-06-17T10:23:07Z</time>
      </trkpt>
      <trkpt lat="49.26284" lon="-0.23159">
        <ele>7.3</ele>
        <time>2020-06-17T10:23:08Z</time>
      </trkpt>
      <trkpt lat="49.26289" lon="-0.23151">
        <ele>7.2</ele>
        <time>2020-06-17T10:23:09Z</time>
      </trkpt>
      <trkpt lat="49.26294" lon="-0.23142">
        <ele>7.1</ele>
        <time>2020-06-17T10:23:10Z</time>
      </trkpt>
      <trkpt lat="49.26298" lon="-0.23132">
        <ele>7</ele>
        <time>2020-06-17T10:23:11Z</time>
      </trkpt>
      <trkpt lat="49.26302" lon="-0.23124">
        <ele>6.9</ele>
        <time>2020-06-17T10:23:12Z</time>
      </trkpt>
      <trkpt lat="49.26306" lon="-0.23115">
        <ele>6.9</ele>
        <time>2020-06-17T10:23:13Z</time>
      </trkpt>
      <trkpt lat="49.2631" lon="-0.23106">
        <ele>6.9</ele>
        <time>2020-06-17T10:23:14Z</time>
      </trkpt>
      <trkpt lat="49.26314" lon="-0.23098">
        <ele>6.9</ele>
        <time>2020-06-17T10:23:15Z</time>
      </trkpt>
      <trkpt lat="49.26318" lon="-0.2309">
        <ele>6.9</ele>
        <time>2020-06-17T10:23:16Z</time>
      </trkpt>
      <trkpt lat="49.26322" lon="-0.23082">
        <ele>6.9</ele>
        <time>2020-06-17T10:23:17Z</time>
      </trkpt>
      <trkpt lat="49.26325" lon="-0.23074">
        <ele>7</ele>
        <time>2020-06-17T10:23:18Z</time>
      </trkpt>
      <trkpt lat="49.26328" lon="-0.23066">
        <ele>7</ele>
        <time>2020-06-17T10:23:19Z</time>
      </trkpt>
      <trkpt lat="49.26331" lon="-0.23057">
        <ele>7.1</ele>
        <time>2020-06-17T10:23:20Z</time>
      </trkpt>
      <trkpt lat="49.26334" lon="-0.23049">
        <ele>7.1</ele>
        <time>2020-06-17T10:23:21Z</time>
      </trkpt>
      <trkpt lat="49.26336" lon="-0.23041">
        <ele>7.2</ele>
        <time>2020-06-17T10:23:22Z</time>
      </trkpt>
      <trkpt lat="49.26338" lon="-0.23033">
        <ele>7.2</ele>
        <time>2020-06-17T10:23:23Z</time>
      </trkpt>
      <trkpt lat="49.2634" lon="-0.23026">
        <ele>7.2</ele>
        <time>2020-06-17T10:23:24Z</time>
      </trkpt>
      <trkpt lat="49.26342" lon="-0.23019">
        <ele>7.3</ele>
        <time>2020-06-17T10:23:25Z</time>
      </trkpt>
      <trkpt lat="49.26342" lon="-0.23012">
        <ele>7.3</ele>
        <time>2020-06-17T10:23:26Z</time>
      </trkpt>
      <trkpt lat="49.26342" lon="-0.23004">
        <ele>7.3</ele>
        <time>2020-06-17T10:23:27Z</time>
      </trkpt>
      <trkpt lat="49.26343" lon="-0.22996">
        <ele>7.3</ele>
        <time>2020-06-17T10:23:28Z</time>
      </trkpt>
      <trkpt lat="49.26344" lon="-0.22987">
        <ele>7.3</ele>
        <time>2020-06-17T10:23:29Z</time>
      </trkpt>
      <trkpt lat="49.26346" lon="-0.22978">
        <ele>7.2</ele>
        <time>2020-06-17T10:23:30Z</time>
      </trkpt>
      <trkpt lat="49.26347" lon="-0.2297">
        <ele>7.1</ele>
        <time>2020-06-17T10:23:31Z</time>
      </trkpt>
      <trkpt lat="49.2635" lon="-0.22962">
        <ele>7.1</ele>
        <time>2020-06-17T10:23:32Z</time>
      </trkpt>
      <trkpt lat="49.26354" lon="-0.22954">
        <ele>7</ele>
        <time>2020-06-17T10:23:33Z</time>
      </trkpt>
      <trkpt lat="49.26358" lon="-0.22946">
        <ele>7</ele>
        <time>2020-06-17T10:23:34Z</time>
      </trkpt>
      <trkpt lat="49.26361" lon="-0.22938">
        <ele>6.9</ele>
        <time>2020-06-17T10:23:35Z</time>
      </trkpt>
      <trkpt lat="49.26364" lon="-0.2293">
        <ele>6.9</ele>
        <time>2020-06-17T10:23:36Z</time>
      </trkpt>
      <trkpt lat="49.26367" lon="-0.22921">
        <ele>6.9</ele>
        <time>2020-06-17T10:23:37Z</time>
      </trkpt>
      <trkpt lat="49.26369" lon="-0.22913">
        <ele>6.8</ele>
        <time>2020-06-17T10:23:38Z</time>
      </trkpt>
      <trkpt lat="49.2637" lon="-0.22903">
        <ele>6.8</ele>
        <time>2020-06-17T10:23:39Z</time>
      </trkpt>
      <trkpt lat="49.26372" lon="-0.22895">
        <ele>6.8</ele>
        <time>2020-06-17T10:23:40Z</time>
      </trkpt>
      <trkpt lat="49.26375" lon="-0.22886">
        <ele>6.7</ele>
        <time>2020-06-17T10:23:41Z</time>
      </trkpt>
      <trkpt lat="49.26377" lon="-0.22878">
        <ele>6.7</ele>
        <time>2020-06-17T10:23:42Z</time>
      </trkpt>
      <trkpt lat="49.2638" lon="-0.22871">
        <ele>6.7</ele>
        <time>2020-06-17T10:23:43Z</time>
      </trkpt>
      <trkpt lat="49.26381" lon="-0.22864">
        <ele>6.6</ele>
        <time>2020-06-17T10:23:44Z</time>
      </trkpt>
      <trkpt lat="49.26383" lon="-0.22858">
        <ele>6.6</ele>
        <time>2020-06-17T10:23:45Z</time>
      </trkpt>
      <trkpt lat="49.26384" lon="-0.22853">
        <ele>6.6</ele>
        <time>2020-06-17T10:23:46Z</time>
      </trkpt>
      <trkpt lat="49.26387" lon="-0.22848">
        <ele>6.5</ele>
        <time>2020-06-17T10:23:47Z</time>
      </trkpt>
      <trkpt lat="49.26389" lon="-0.22843">
        <ele>6.5</ele>
        <time>2020-06-17T10:23:48Z</time>
      </trkpt>
      <trkpt lat="49.2639" lon="-0.22836">
        <ele>6.4</ele>
        <time>2020-06-17T10:23:49Z</time>
      </trkpt>
      <trkpt lat="49.26393" lon="-0.22829">
        <ele>6.4</ele>
        <time>2020-06-17T10:23:50Z</time>
      </trkpt>
      <trkpt lat="49.26396" lon="-0.22822">
        <ele>6.3</ele>
        <time>2020-06-17T10:23:51Z</time>
      </trkpt>
      <trkpt lat="49.26399" lon="-0.22814">
        <ele>6.3</ele>
        <time>2020-06-17T10:23:52Z</time>
      </trkpt>
      <trkpt lat="49.26402" lon="-0.22806">
        <ele>6.3</ele>
        <time>2020-06-17T10:23:53Z</time>
      </trkpt>
      <trkpt lat="49.26405" lon="-0.22799">
        <ele>6.2</ele>
        <time>2020-06-17T10:23:54Z</time>
      </trkpt>
      <trkpt lat="49.26409" lon="-0.22792">
        <ele>6.2</ele>
        <time>2020-06-17T10:23:55Z</time>
      </trkpt>
      <trkpt lat="49.26412" lon="-0.22784">
        <ele>6.2</ele>
        <time>2020-06-17T10:23:56Z</time>
      </trkpt>
      <trkpt lat="49.26416" lon="-0.22777">
        <ele>6.2</ele>
        <time>2020-06-17T10:23:57Z</time>
      </trkpt>
      <trkpt lat="49.26419" lon="-0.2277">
        <ele>6.2</ele>
        <time>2020-06-17T10:23:58Z</time>
      </trkpt>
      <trkpt lat="49.26422" lon="-0.22762">
        <ele>6.2</ele>
        <time>2020-06-17T10:23:59Z</time>
      </trkpt>
      <trkpt lat="49.26425" lon="-0.22754">
        <ele>6.2</ele>
        <time>2020-06-17T10:24:00Z</time>
      </trkpt>
      <trkpt lat="49.26429" lon="-0.22747">
        <ele>6.2</ele>
        <time>2020-06-17T10:24:01Z</time>
      </trkpt>
      <trkpt lat="49.26432" lon="-0.2274">
        <ele>6.1</ele>
        <time>2020-06-17T10:24:02Z</time>
      </trkpt>
      <trkpt lat="49.26436" lon="-0.22733">
        <ele>6.1</ele>
        <time>2020-06-17T10:24:03Z</time>
      </trkpt>
      <trkpt lat="49.26439" lon="-0.22726">
        <ele>6</ele>
        <time>2020-06-17T10:24:04Z</time>
      </trkpt>
      <trkpt lat="49.26441" lon="-0.22719">
        <ele>6</ele>
        <time>2020-06-17T10:24:05Z</time>
      </trkpt>
      <trkpt lat="49.26444" lon="-0.22712">
        <ele>5.9</ele>
        <time>2020-06-17T10:24:06Z</time>
      </trkpt>
      <trkpt lat="49.26447" lon="-0.22705">
        <ele>5.8</ele>
        <time>2020-06-17T10:24:07Z</time>
      </trkpt>
      <trkpt lat="49.26449" lon="-0.22697">
        <ele>5.7</ele>
        <time>2020-06-17T10:24:08Z</time>
      </trkpt>
      <trkpt lat="49.26452" lon="-0.22689">
        <ele>5.6</ele>
        <time>2020-06-17T10:24:09Z</time>
      </trkpt>
      <trkpt lat="49.26455" lon="-0.22681">
        <ele>5.5</ele>
        <time>2020-06-17T10:24:10Z</time>
      </trkpt>
      <trkpt lat="49.26457" lon="-0.22672">
        <ele>5.5</ele>
        <time>2020-06-17T10:24:11Z</time>
      </trkpt>
      <trkpt lat="49.2646" lon="-0.22663">
        <ele>5.4</ele>
        <time>2020-06-17T10:24:12Z</time>
      </trkpt>
      <trkpt lat="49.26462" lon="-0.22654">
        <ele>5.3</ele>
        <time>2020-06-17T10:24:13Z</time>
      </trkpt>
      <trkpt lat="49.26465" lon="-0.22644">
        <ele>5.3</ele>
        <time>2020-06-17T10:24:14Z</time>
      </trkpt>
      <trkpt lat="49.26467" lon="-0.22634">
        <ele>5.2</ele>
        <time>2020-06-17T10:24:15Z</time>
      </trkpt>
      <trkpt lat="49.2647" lon="-0.22624">
        <ele>5.1</ele>
        <time>2020-06-17T10:24:16Z</time>
      </trkpt>
      <trkpt lat="49.26473" lon="-0.22613">
        <ele>5.1</ele>
        <time>2020-06-17T10:24:17Z</time>
      </trkpt>
      <trkpt lat="49.26476" lon="-0.22604">
        <ele>5</ele>
        <time>2020-06-17T10:24:18Z</time>
      </trkpt>
      <trkpt lat="49.26478" lon="-0.22594">
        <ele>5</ele>
        <time>2020-06-17T10:24:19Z</time>
      </trkpt>
      <trkpt lat="49.26481" lon="-0.22585">
        <ele>5</ele>
        <time>2020-06-17T10:24:20Z</time>
      </trkpt>
      <trkpt lat="49.26484" lon="-0.22575">
        <ele>5</ele>
        <time>2020-06-17T10:24:21Z</time>
      </trkpt>
      <trkpt lat="49.26487" lon="-0.22566">
        <ele>5</ele>
        <time>2020-06-17T10:24:22Z</time>
      </trkpt>
      <trkpt lat="49.26488" lon="-0.22556">
        <ele>5</ele>
        <time>2020-06-17T10:24:23Z</time>
      </trkpt>
      <trkpt lat="49.2649" lon="-0.22545">
        <ele>5</ele>
        <time>2020-06-17T10:24:24Z</time>
      </trkpt>
      <trkpt lat="49.26492" lon="-0.22535">
        <ele>5</ele>
        <time>2020-06-17T10:24:25Z</time>
      </trkpt>
      <trkpt lat="49.26494" lon="-0.22525">
        <ele>5</ele>
        <time>2020-06-17T10:24:26Z</time>
      </trkpt>
      <trkpt lat="49.26496" lon="-0.22515">
        <ele>5</ele>
        <time>2020-06-17T10:24:27Z</time>
      </trkpt>
      <trkpt lat="49.26499" lon="-0.22505">
        <ele>5.1</ele>
        <time>2020-06-17T10:24:28Z</time>
      </trkpt>
      <trkpt lat="49.26502" lon="-0.22496">
        <ele>5.1</ele>
        <time>2020-06-17T10:24:29Z</time>
      </trkpt>
      <trkpt lat="49.26504" lon="-0.22486">
        <ele>5.1</ele>
        <time>2020-06-17T10:24:30Z</time>
      </trkpt>
      <trkpt lat="49.26507" lon="-0.22476">
        <ele>5.1</ele>
        <time>2020-06-17T10:24:31Z</time>
      </trkpt>
      <trkpt lat="49.26509" lon="-0.22465">
        <ele>5</ele>
        <time>2020-06-17T10:24:32Z</time>
      </trkpt>
      <trkpt lat="49.26512" lon="-0.22456">
        <ele>4.9</ele>
        <time>2020-06-17T10:24:33Z</time>
      </trkpt>
      <trkpt lat="49.26515" lon="-0.22446">
        <ele>4.9</ele>
        <time>2020-06-17T10:24:34Z</time>
      </trkpt>
      <trkpt lat="49.26518" lon="-0.22436">
        <ele>4.8</ele>
        <time>2020-06-17T10:24:35Z</time>
      </trkpt>
      <trkpt lat="49.26521" lon="-0.22426">
        <ele>4.8</ele>
        <time>2020-06-17T10:24:36Z</time>
      </trkpt>
      <trkpt lat="49.26524" lon="-0.22417">
        <ele>4.8</ele>
        <time>2020-06-17T10:24:37Z</time>
      </trkpt>
      <trkpt lat="49.26527" lon="-0.22407">
        <ele>4.7</ele>
        <time>2020-06-17T10:24:38Z</time>
      </trkpt>
      <trkpt lat="49.2653" lon="-0.22398">
        <ele>4.7</ele>
        <time>2020-06-17T10:24:39Z</time>
      </trkpt>
      <trkpt lat="49.26534" lon="-0.22388">
        <ele>4.7</ele>
        <time>2020-06-17T10:24:40Z</time>
      </trkpt>
      <trkpt lat="49.26536" lon="-0.22379">
        <ele>4.6</ele>
        <time>2020-06-17T10:24:41Z</time>
      </trkpt>
      <trkpt lat="49.26539" lon="-0.22369">
        <ele>4.6</ele>
        <time>2020-06-17T10:24:42Z</time>
      </trkpt>
      <trkpt lat="49.26542" lon="-0.22359">
        <ele>4.6</ele>
        <time>2020-06-17T10:24:43Z</time>
      </trkpt>
      <trkpt lat="49.26545" lon="-0.22349">
        <ele>4.5</ele>
        <time>2020-06-17T10:24:44Z</time>
      </trkpt>
      <trkpt lat="49.26548" lon="-0.2234">
        <ele>4.5</ele>
        <time>2020-06-17T10:24:45Z</time>
      </trkpt>
      <trkpt lat="49.26551" lon="-0.22331">
        <ele>4.6</ele>
        <time>2020-06-17T10:24:46Z</time>
      </trkpt>
      <trkpt lat="49.26554" lon="-0.22321">
        <ele>4.6</ele>
        <time>2020-06-17T10:24:47Z</time>
      </trkpt>
      <trkpt lat="49.26556" lon="-0.22312">
        <ele>4.7</ele>
        <time>2020-06-17T10:24:48Z</time>
      </trkpt>
      <trkpt lat="49.26559" lon="-0.22303">
        <ele>4.7</ele>
        <time>2020-06-17T10:24:49Z</time>
      </trkpt>
      <trkpt lat="49.26561" lon="-0.22294">
        <ele>4.7</ele>
        <time>2020-06-17T10:24:50Z</time>
      </trkpt>
      <trkpt lat="49.26564" lon="-0.22284">
        <ele>4.7</ele>
        <time>2020-06-17T10:24:51Z</time>
      </trkpt>
      <trkpt lat="49.26567" lon="-0.22276">
        <ele>4.6</ele>
        <time>2020-06-17T10:24:52Z</time>
      </trkpt>
      <trkpt lat="49.26571" lon="-0.22268">
        <ele>4.6</ele>
        <time>2020-06-17T10:24:53Z</time>
      </trkpt>
      <trkpt lat="49.26575" lon="-0.2226">
        <ele>4.5</ele>
        <time>2020-06-17T10:24:54Z</time>
      </trkpt>
      <trkpt lat="49.26579" lon="-0.22252">
        <ele>4.4</ele>
        <time>2020-06-17T10:24:55Z</time>
      </trkpt>
      <trkpt lat="49.26583" lon="-0.22244">
        <ele>4.4</ele>
        <time>2020-06-17T10:24:56Z</time>
      </trkpt>
      <trkpt lat="49.26587" lon="-0.22236">
        <ele>4.3</ele>
        <time>2020-06-17T10:24:57Z</time>
      </trkpt>
      <trkpt lat="49.26591" lon="-0.22228">
        <ele>4.3</ele>
        <time>2020-06-17T10:24:58Z</time>
      </trkpt>
      <trkpt lat="49.26595" lon="-0.2222">
        <ele>4.3</ele>
        <time>2020-06-17T10:24:59Z</time>
      </trkpt>
      <trkpt lat="49.26599" lon="-0.22212">
        <ele>4.3</ele>
        <time>2020-06-17T10:25:00Z</time>
      </trkpt>
      <trkpt lat="49.26604" lon="-0.22204">
        <ele>4.3</ele>
        <time>2020-06-17T10:25:01Z</time>
      </trkpt>
      <trkpt lat="49.26609" lon="-0.22197">
        <ele>4.4</ele>
        <time>2020-06-17T10:25:02Z</time>
      </trkpt>
      <trkpt lat="49.26614" lon="-0.2219">
        <ele>4.4</ele>
        <time>2020-06-17T10:25:03Z</time>
      </trkpt>
      <trkpt lat="49.26619" lon="-0.22184">
        <ele>4.4</ele>
        <time>2020-06-17T10:25:04Z</time>
      </trkpt>
      <trkpt lat="49.26625" lon="-0.22178">
        <ele>4.4</ele>
        <time>2020-06-17T10:25:05Z</time>
      </trkpt>
      <trkpt lat="49.2663" lon="-0.22171">
        <ele>4.4</ele>
        <time>2020-06-17T10:25:06Z</time>
      </trkpt>
      <trkpt lat="49.26635" lon="-0.22165">
        <ele>4.4</ele>
        <time>2020-06-17T10:25:07Z</time>
      </trkpt>
      <trkpt lat="49.2664" lon="-0.22159">
        <ele>4.4</ele>
        <time>2020-06-17T10:25:08Z</time>
      </trkpt>
      <trkpt lat="49.26646" lon="-0.22154">
        <ele>4.4</ele>
        <time>2020-06-17T10:25:09Z</time>
      </trkpt>
      <trkpt lat="49.2665" lon="-0.22149">
        <ele>4.5</ele>
        <time>2020-06-17T10:25:10Z</time>
      </trkpt>
      <trkpt lat="49.26655" lon="-0.22144">
        <ele>4.5</ele>
        <time>2020-06-17T10:25:11Z</time>
      </trkpt>
      <trkpt lat="49.2666" lon="-0.22138">
        <ele>4.5</ele>
        <time>2020-06-17T10:25:12Z</time>
      </trkpt>
      <trkpt lat="49.26664" lon="-0.22134">
        <ele>4.5</ele>
        <time>2020-06-17T10:25:13Z</time>
      </trkpt>
      <trkpt lat="49.26669" lon="-0.2213">
        <ele>4.5</ele>
        <time>2020-06-17T10:25:14Z</time>
      </trkpt>
      <trkpt lat="49.26673" lon="-0.22128">
        <ele>4.6</ele>
        <time>2020-06-17T10:25:15Z</time>
      </trkpt>
      <trkpt lat="49.26678" lon="-0.22125">
        <ele>4.6</ele>
        <time>2020-06-17T10:25:16Z</time>
      </trkpt>
      <trkpt lat="49.26683" lon="-0.22122">
        <ele>4.6</ele>
        <time>2020-06-17T10:25:17Z</time>
      </trkpt>
      <trkpt lat="49.26688" lon="-0.22118">
        <ele>4.7</ele>
        <time>2020-06-17T10:25:18Z</time>
      </trkpt>
      <trkpt lat="49.26693" lon="-0.22115">
        <ele>4.8</ele>
        <time>2020-06-17T10:25:19Z</time>
      </trkpt>
      <trkpt lat="49.26698" lon="-0.22112">
        <ele>4.8</ele>
        <time>2020-06-17T10:25:20Z</time>
      </trkpt>
      <trkpt lat="49.26703" lon="-0.22109">
        <ele>4.9</ele>
        <time>2020-06-17T10:25:21Z</time>
      </trkpt>
      <trkpt lat="49.26708" lon="-0.22105">
        <ele>4.9</ele>
        <time>2020-06-17T10:25:22Z</time>
      </trkpt>
      <trkpt lat="49.26713" lon="-0.22103">
        <ele>5</ele>
        <time>2020-06-17T10:25:23Z</time>
      </trkpt>
      <trkpt lat="49.26718" lon="-0.221">
        <ele>5</ele>
        <time>2020-06-17T10:25:24Z</time>
      </trkpt>
      <trkpt lat="49.26722" lon="-0.22098">
        <ele>5</ele>
        <time>2020-06-17T10:25:25Z</time>
      </trkpt>
      <trkpt lat="49.26726" lon="-0.22098">
        <ele>4.9</ele>
        <time>2020-06-17T10:25:26Z</time>
      </trkpt>
      <trkpt lat="49.26729" lon="-0.22098">
        <ele>4.9</ele>
        <time>2020-06-17T10:25:27Z</time>
      </trkpt>
      <trkpt lat="49.26733" lon="-0.22096">
        <ele>5</ele>
        <time>2020-06-17T10:25:28Z</time>
      </trkpt>
      <trkpt lat="49.26733" lon="-0.22095">
        <ele>5</ele>
        <time>2020-06-17T10:25:29Z</time>
      </trkpt>
      <trkpt lat="49.26737" lon="-0.22094">
        <ele>5</ele>
        <time>2020-06-17T10:25:30Z</time>
      </trkpt>
      <trkpt lat="49.26738" lon="-0.22093">
        <ele>5</ele>
        <time>2020-06-17T10:25:31Z</time>
      </trkpt>
      <trkpt lat="49.26741" lon="-0.22092">
        <ele>5</ele>
        <time>2020-06-17T10:25:32Z</time>
      </trkpt>
      <trkpt lat="49.26744" lon="-0.22092">
        <ele>5</ele>
        <time>2020-06-17T10:25:33Z</time>
      </trkpt>
      <trkpt lat="49.26748" lon="-0.22092">
        <ele>4.9</ele>
        <time>2020-06-17T10:25:34Z</time>
      </trkpt>
      <trkpt lat="49.26752" lon="-0.22092">
        <ele>4.9</ele>
        <time>2020-06-17T10:25:35Z</time>
      </trkpt>
      <trkpt lat="49.26756" lon="-0.22091">
        <ele>4.9</ele>
        <time>2020-06-17T10:25:36Z</time>
      </trkpt>
      <trkpt lat="49.2676" lon="-0.2209">
        <ele>4.9</ele>
        <time>2020-06-17T10:25:37Z</time>
      </trkpt>
      <trkpt lat="49.26765" lon="-0.22089">
        <ele>4.9</ele>
        <time>2020-06-17T10:25:38Z</time>
      </trkpt>
      <trkpt lat="49.2677" lon="-0.22087">
        <ele>4.9</ele>
        <time>2020-06-17T10:25:39Z</time>
      </trkpt>
      <trkpt lat="49.26775" lon="-0.22086">
        <ele>4.9</ele>
        <time>2020-06-17T10:25:40Z</time>
      </trkpt>
      <trkpt lat="49.2678" lon="-0.22083">
        <ele>4.9</ele>
        <time>2020-06-17T10:25:41Z</time>
      </trkpt>
      <trkpt lat="49.26785" lon="-0.22082">
        <ele>4.9</ele>
        <time>2020-06-17T10:25:42Z</time>
      </trkpt>
      <trkpt lat="49.2679" lon="-0.2208">
        <ele>4.9</ele>
        <time>2020-06-17T10:25:43Z</time>
      </trkpt>
      <trkpt lat="49.26796" lon="-0.22078">
        <ele>4.9</ele>
        <time>2020-06-17T10:25:44Z</time>
      </trkpt>
      <trkpt lat="49.26801" lon="-0.22076">
        <ele>4.9</ele>
        <time>2020-06-17T10:25:45Z</time>
      </trkpt>
      <trkpt lat="49.26806" lon="-0.22074">
        <ele>4.9</ele>
        <time>2020-06-17T10:25:46Z</time>
      </trkpt>
      <trkpt lat="49.26811" lon="-0.22072">
        <ele>4.9</ele>
        <time>2020-06-17T10:25:47Z</time>
      </trkpt>
      <trkpt lat="49.26816" lon="-0.2207">
        <ele>4.9</ele>
        <time>2020-06-17T10:25:48Z</time>
      </trkpt>
      <trkpt lat="49.26821" lon="-0.22068">
        <ele>4.9</ele>
        <time>2020-06-17T10:25:49Z</time>
      </trkpt>
      <trkpt lat="49.26827" lon="-0.22066">
        <ele>5</ele>
        <time>2020-06-17T10:25:50Z</time>
      </trkpt>
      <trkpt lat="49.26834" lon="-0.22063">
        <ele>5</ele>
        <time>2020-06-17T10:25:51Z</time>
      </trkpt>
      <trkpt lat="49.26839" lon="-0.22062">
        <ele>5</ele>
        <time>2020-06-17T10:25:52Z</time>
      </trkpt>
      <trkpt lat="49.26846" lon="-0.22059">
        <ele>5</ele>
        <time>2020-06-17T10:25:53Z</time>
      </trkpt>
      <trkpt lat="49.26852" lon="-0.22058">
        <ele>5</ele>
        <time>2020-06-17T10:25:54Z</time>
      </trkpt>
      <trkpt lat="49.26858" lon="-0.22056">
        <ele>5</ele>
        <time>2020-06-17T10:25:55Z</time>
      </trkpt>
      <trkpt lat="49.26865" lon="-0.22055">
        <ele>5</ele>
        <time>2020-06-17T10:25:56Z</time>
      </trkpt>
      <trkpt lat="49.26872" lon="-0.22054">
        <ele>5</ele>
        <time>2020-06-17T10:25:57Z</time>
      </trkpt>
      <trkpt lat="49.26878" lon="-0.22052">
        <ele>5</ele>
        <time>2020-06-17T10:25:58Z</time>
      </trkpt>
      <trkpt lat="49.26885" lon="-0.22051">
        <ele>5.1</ele>
        <time>2020-06-17T10:25:59Z</time>
      </trkpt>
      <trkpt lat="49.2689" lon="-0.22049">
        <ele>5</ele>
        <time>2020-06-17T10:26:00Z</time>
      </trkpt>
      <trkpt lat="49.26896" lon="-0.22047">
        <ele>5</ele>
        <time>2020-06-17T10:26:01Z</time>
      </trkpt>
      <trkpt lat="49.26903" lon="-0.22045">
        <ele>4.9</ele>
        <time>2020-06-17T10:26:02Z</time>
      </trkpt>
      <trkpt lat="49.26909" lon="-0.22043">
        <ele>4.9</ele>
        <time>2020-06-17T10:26:03Z</time>
      </trkpt>
      <trkpt lat="49.26913" lon="-0.22041">
        <ele>4.8</ele>
        <time>2020-06-17T10:26:04Z</time>
      </trkpt>
      <trkpt lat="49.26919" lon="-0.22039">
        <ele>4.8</ele>
        <time>2020-06-17T10:26:05Z</time>
      </trkpt>
      <trkpt lat="49.26925" lon="-0.22038">
        <ele>4.8</ele>
        <time>2020-06-17T10:26:06Z</time>
      </trkpt>
      <trkpt lat="49.2693" lon="-0.22036">
        <ele>4.7</ele>
        <time>2020-06-17T10:26:07Z</time>
      </trkpt>
      <trkpt lat="49.26935" lon="-0.22034">
        <ele>4.7</ele>
        <time>2020-06-17T10:26:08Z</time>
      </trkpt>
      <trkpt lat="49.26942" lon="-0.22032">
        <ele>4.7</ele>
        <time>2020-06-17T10:26:09Z</time>
      </trkpt>
      <trkpt lat="49.26949" lon="-0.22031">
        <ele>4.7</ele>
        <time>2020-06-17T10:26:10Z</time>
      </trkpt>
      <trkpt lat="49.26955" lon="-0.2203">
        <ele>4.7</ele>
        <time>2020-06-17T10:26:11Z</time>
      </trkpt>
      <trkpt lat="49.26961" lon="-0.22029">
        <ele>4.6</ele>
        <time>2020-06-17T10:26:12Z</time>
      </trkpt>
      <trkpt lat="49.26966" lon="-0.22027">
        <ele>4.6</ele>
        <time>2020-06-17T10:26:13Z</time>
      </trkpt>
      <trkpt lat="49.26972" lon="-0.22024">
        <ele>4.5</ele>
        <time>2020-06-17T10:26:14Z</time>
      </trkpt>
      <trkpt lat="49.26978" lon="-0.22022">
        <ele>4.5</ele>
        <time>2020-06-17T10:26:15Z</time>
      </trkpt>
      <trkpt lat="49.26983" lon="-0.22018">
        <ele>4.4</ele>
        <time>2020-06-17T10:26:16Z</time>
      </trkpt>
      <trkpt lat="49.26987" lon="-0.22016">
        <ele>4.4</ele>
        <time>2020-06-17T10:26:17Z</time>
      </trkpt>
      <trkpt lat="49.26994" lon="-0.22013">
        <ele>4.4</ele>
        <time>2020-06-17T10:26:18Z</time>
      </trkpt>
      <trkpt lat="49.27" lon="-0.2201">
        <ele>4.4</ele>
        <time>2020-06-17T10:26:19Z</time>
      </trkpt>
      <trkpt lat="49.27005" lon="-0.22008">
        <ele>4.3</ele>
        <time>2020-06-17T10:26:20Z</time>
      </trkpt>
      <trkpt lat="49.27011" lon="-0.22006">
        <ele>4.3</ele>
        <time>2020-06-17T10:26:21Z</time>
      </trkpt>
      <trkpt lat="49.27016" lon="-0.22003">
        <ele>4.4</ele>
        <time>2020-06-17T10:26:22Z</time>
      </trkpt>
      <trkpt lat="49.27021" lon="-0.21999">
        <ele>4.4</ele>
        <time>2020-06-17T10:26:23Z</time>
      </trkpt>
      <trkpt lat="49.27026" lon="-0.21996">
        <ele>4.4</ele>
        <time>2020-06-17T10:26:24Z</time>
      </trkpt>
      <trkpt lat="49.27031" lon="-0.21992">
        <ele>4.4</ele>
        <time>2020-06-17T10:26:25Z</time>
      </trkpt>
      <trkpt lat="49.27037" lon="-0.21987">
        <ele>4.4</ele>
        <time>2020-06-17T10:26:26Z</time>
      </trkpt>
      <trkpt lat="49.27043" lon="-0.21982">
        <ele>4.4</ele>
        <time>2020-06-17T10:26:27Z</time>
      </trkpt>
      <trkpt lat="49.27048" lon="-0.21976">
        <ele>4.4</ele>
        <time>2020-06-17T10:26:28Z</time>
      </trkpt>
      <trkpt lat="49.27053" lon="-0.21972">
        <ele>4.4</ele>
        <time>2020-06-17T10:26:29Z</time>
      </trkpt>
      <trkpt lat="49.27058" lon="-0.21967">
        <ele>4.3</ele>
        <time>2020-06-17T10:26:30Z</time>
      </trkpt>
      <trkpt lat="49.27063" lon="-0.2196">
        <ele>4.3</ele>
        <time>2020-06-17T10:26:31Z</time>
      </trkpt>
      <trkpt lat="49.27068" lon="-0.21953">
        <ele>4.3</ele>
        <time>2020-06-17T10:26:32Z</time>
      </trkpt>
      <trkpt lat="49.27073" lon="-0.21946">
        <ele>4.2</ele>
        <time>2020-06-17T10:26:33Z</time>
      </trkpt>
      <trkpt lat="49.27077" lon="-0.2194">
        <ele>4.2</ele>
        <time>2020-06-17T10:26:34Z</time>
      </trkpt>
      <trkpt lat="49.27082" lon="-0.21933">
        <ele>4.2</ele>
        <time>2020-06-17T10:26:35Z</time>
      </trkpt>
      <trkpt lat="49.27087" lon="-0.21925">
        <ele>4.2</ele>
        <time>2020-06-17T10:26:36Z</time>
      </trkpt>
      <trkpt lat="49.27091" lon="-0.21917">
        <ele>4.2</ele>
        <time>2020-06-17T10:26:37Z</time>
      </trkpt>
      <trkpt lat="49.27096" lon="-0.21911">
        <ele>4.2</ele>
        <time>2020-06-17T10:26:38Z</time>
      </trkpt>
      <trkpt lat="49.27101" lon="-0.21904">
        <ele>4.2</ele>
        <time>2020-06-17T10:26:39Z</time>
      </trkpt>
      <trkpt lat="49.27106" lon="-0.21898">
        <ele>4.1</ele>
        <time>2020-06-17T10:26:40Z</time>
      </trkpt>
      <trkpt lat="49.2711" lon="-0.21891">
        <ele>4.2</ele>
        <time>2020-06-17T10:26:41Z</time>
      </trkpt>
      <trkpt lat="49.27115" lon="-0.21884">
        <ele>4.2</ele>
        <time>2020-06-17T10:26:42Z</time>
      </trkpt>
      <trkpt lat="49.27119" lon="-0.21878">
        <ele>4.2</ele>
        <time>2020-06-17T10:26:43Z</time>
      </trkpt>
      <trkpt lat="49.27124" lon="-0.21871">
        <ele>4.3</ele>
        <time>2020-06-17T10:26:44Z</time>
      </trkpt>
      <trkpt lat="49.27129" lon="-0.21865">
        <ele>4.2</ele>
        <time>2020-06-17T10:26:45Z</time>
      </trkpt>
      <trkpt lat="49.27133" lon="-0.21858">
        <ele>4.2</ele>
        <time>2020-06-17T10:26:46Z</time>
      </trkpt>
      <trkpt lat="49.27137" lon="-0.21851">
        <ele>4.2</ele>
        <time>2020-06-17T10:26:47Z</time>
      </trkpt>
      <trkpt lat="49.27142" lon="-0.21844">
        <ele>4.2</ele>
        <time>2020-06-17T10:26:48Z</time>
      </trkpt>
      <trkpt lat="49.27146" lon="-0.21838">
        <ele>4.2</ele>
        <time>2020-06-17T10:26:49Z</time>
      </trkpt>
      <trkpt lat="49.27151" lon="-0.21831">
        <ele>4.2</ele>
        <time>2020-06-17T10:26:50Z</time>
      </trkpt>
      <trkpt lat="49.27156" lon="-0.21824">
        <ele>4.2</ele>
        <time>2020-06-17T10:26:51Z</time>
      </trkpt>
      <trkpt lat="49.2716" lon="-0.21817">
        <ele>4.2</ele>
        <time>2020-06-17T10:26:52Z</time>
      </trkpt>
      <trkpt lat="49.27165" lon="-0.2181">
        <ele>4.2</ele>
        <time>2020-06-17T10:26:53Z</time>
      </trkpt>
      <trkpt lat="49.27169" lon="-0.21802">
        <ele>4.2</ele>
        <time>2020-06-17T10:26:54Z</time>
      </trkpt>
      <trkpt lat="49.27174" lon="-0.21796">
        <ele>4.2</ele>
        <time>2020-06-17T10:26:55Z</time>
      </trkpt>
      <trkpt lat="49.27178" lon="-0.21789">
        <ele>4.2</ele>
        <time>2020-06-17T10:26:56Z</time>
      </trkpt>
      <trkpt lat="49.27184" lon="-0.21783">
        <ele>4.2</ele>
        <time>2020-06-17T10:26:57Z</time>
      </trkpt>
      <trkpt lat="49.27189" lon="-0.21776">
        <ele>4.2</ele>
        <time>2020-06-17T10:26:58Z</time>
      </trkpt>
      <trkpt lat="49.27193" lon="-0.21769">
        <ele>4.2</ele>
        <time>2020-06-17T10:26:59Z</time>
      </trkpt>
      <trkpt lat="49.27199" lon="-0.21762">
        <ele>4.2</ele>
        <time>2020-06-17T10:27:00Z</time>
      </trkpt>
      <trkpt lat="49.27204" lon="-0.21754">
        <ele>4.2</ele>
        <time>2020-06-17T10:27:01Z</time>
      </trkpt>
      <trkpt lat="49.27209" lon="-0.21748">
        <ele>4.1</ele>
        <time>2020-06-17T10:27:02Z</time>
      </trkpt>
      <trkpt lat="49.27214" lon="-0.21741">
        <ele>4.2</ele>
        <time>2020-06-17T10:27:03Z</time>
      </trkpt>
      <trkpt lat="49.27219" lon="-0.21734">
        <ele>4.2</ele>
        <time>2020-06-17T10:27:04Z</time>
      </trkpt>
      <trkpt lat="49.27224" lon="-0.21726">
        <ele>4.2</ele>
        <time>2020-06-17T10:27:05Z</time>
      </trkpt>
      <trkpt lat="49.27229" lon="-0.21718">
        <ele>4.3</ele>
        <time>2020-06-17T10:27:06Z</time>
      </trkpt>
      <trkpt lat="49.27234" lon="-0.21712">
        <ele>4.3</ele>
        <time>2020-06-17T10:27:07Z</time>
      </trkpt>
      <trkpt lat="49.27239" lon="-0.21705">
        <ele>4.4</ele>
        <time>2020-06-17T10:27:08Z</time>
      </trkpt>
      <trkpt lat="49.27243" lon="-0.21698">
        <ele>4.4</ele>
        <time>2020-06-17T10:27:09Z</time>
      </trkpt>
      <trkpt lat="49.27248" lon="-0.21691">
        <ele>4.3</ele>
        <time>2020-06-17T10:27:10Z</time>
      </trkpt>
      <trkpt lat="49.27253" lon="-0.21685">
        <ele>4.3</ele>
        <time>2020-06-17T10:27:11Z</time>
      </trkpt>
      <trkpt lat="49.27258" lon="-0.21677">
        <ele>4.3</ele>
        <time>2020-06-17T10:27:12Z</time>
      </trkpt>
      <trkpt lat="49.27263" lon="-0.2167">
        <ele>4.3</ele>
        <time>2020-06-17T10:27:13Z</time>
      </trkpt>
      <trkpt lat="49.27268" lon="-0.21663">
        <ele>4.3</ele>
        <time>2020-06-17T10:27:14Z</time>
      </trkpt>
      <trkpt lat="49.27273" lon="-0.21657">
        <ele>4.2</ele>
        <time>2020-06-17T10:27:15Z</time>
      </trkpt>
      <trkpt lat="49.27278" lon="-0.2165">
        <ele>4.2</ele>
        <time>2020-06-17T10:27:16Z</time>
      </trkpt>
      <trkpt lat="49.27283" lon="-0.21643">
        <ele>4.2</ele>
        <time>2020-06-17T10:27:17Z</time>
      </trkpt>
      <trkpt lat="49.27288" lon="-0.21637">
        <ele>4.2</ele>
        <time>2020-06-17T10:27:18Z</time>
      </trkpt>
      <trkpt lat="49.27293" lon="-0.21629">
        <ele>4.2</ele>
        <time>2020-06-17T10:27:19Z</time>
      </trkpt>
      <trkpt lat="49.27298" lon="-0.21622">
        <ele>4.2</ele>
        <time>2020-06-17T10:27:20Z</time>
      </trkpt>
      <trkpt lat="49.27303" lon="-0.21615">
        <ele>4.2</ele>
        <time>2020-06-17T10:27:21Z</time>
      </trkpt>
      <trkpt lat="49.27308" lon="-0.21608">
        <ele>4.2</ele>
        <time>2020-06-17T10:27:22Z</time>
      </trkpt>
      <trkpt lat="49.27313" lon="-0.21601">
        <ele>4.2</ele>
        <time>2020-06-17T10:27:23Z</time>
      </trkpt>
      <trkpt lat="49.27318" lon="-0.21594">
        <ele>4.2</ele>
        <time>2020-06-17T10:27:24Z</time>
      </trkpt>
      <trkpt lat="49.27323" lon="-0.21586">
        <ele>4.3</ele>
        <time>2020-06-17T10:27:25Z</time>
      </trkpt>
      <trkpt lat="49.27328" lon="-0.21578">
        <ele>4.3</ele>
        <time>2020-06-17T10:27:26Z</time>
      </trkpt>
      <trkpt lat="49.27333" lon="-0.21571">
        <ele>4.3</ele>
        <time>2020-06-17T10:27:27Z</time>
      </trkpt>
      <trkpt lat="49.27337" lon="-0.21563">
        <ele>4.3</ele>
        <time>2020-06-17T10:27:28Z</time>
      </trkpt>
      <trkpt lat="49.27342" lon="-0.21555">
        <ele>4.4</ele>
        <time>2020-06-17T10:27:29Z</time>
      </trkpt>
      <trkpt lat="49.27346" lon="-0.21547">
        <ele>4.4</ele>
        <time>2020-06-17T10:27:30Z</time>
      </trkpt>
      <trkpt lat="49.2735" lon="-0.2154">
        <ele>4.4</ele>
        <time>2020-06-17T10:27:31Z</time>
      </trkpt>
      <trkpt lat="49.27354" lon="-0.21533">
        <ele>4.4</ele>
        <time>2020-06-17T10:27:32Z</time>
      </trkpt>
      <trkpt lat="49.27358" lon="-0.21526">
        <ele>4.4</ele>
        <time>2020-06-17T10:27:33Z</time>
      </trkpt>
      <trkpt lat="49.27362" lon="-0.21519">
        <ele>4.4</ele>
        <time>2020-06-17T10:27:34Z</time>
      </trkpt>
      <trkpt lat="49.27366" lon="-0.21513">
        <ele>4.5</ele>
        <time>2020-06-17T10:27:35Z</time>
      </trkpt>
      <trkpt lat="49.2737" lon="-0.21507">
        <ele>4.5</ele>
        <time>2020-06-17T10:27:36Z</time>
      </trkpt>
      <trkpt lat="49.27375" lon="-0.21502">
        <ele>4.5</ele>
        <time>2020-06-17T10:27:37Z</time>
      </trkpt>
      <trkpt lat="49.27378" lon="-0.21495">
        <ele>4.6</ele>
        <time>2020-06-17T10:27:38Z</time>
      </trkpt>
      <trkpt lat="49.27381" lon="-0.21491">
        <ele>4.6</ele>
        <time>2020-06-17T10:27:39Z</time>
      </trkpt>
      <trkpt lat="49.27384" lon="-0.21487">
        <ele>4.6</ele>
        <time>2020-06-17T10:27:40Z</time>
      </trkpt>
      <trkpt lat="49.27387" lon="-0.21484">
        <ele>4.6</ele>
        <time>2020-06-17T10:27:41Z</time>
      </trkpt>
      <trkpt lat="49.27389" lon="-0.21481">
        <ele>4.6</ele>
        <time>2020-06-17T10:27:42Z</time>
      </trkpt>
      <trkpt lat="49.27392" lon="-0.21477">
        <ele>4.7</ele>
        <time>2020-06-17T10:27:43Z</time>
      </trkpt>
      <trkpt lat="49.27394" lon="-0.21474">
        <ele>4.7</ele>
        <time>2020-06-17T10:27:44Z</time>
      </trkpt>
      <trkpt lat="49.27397" lon="-0.21472">
        <ele>4.7</ele>
        <time>2020-06-17T10:27:45Z</time>
      </trkpt>
      <trkpt lat="49.27399" lon="-0.21469">
        <ele>4.7</ele>
        <time>2020-06-17T10:27:46Z</time>
      </trkpt>
      <trkpt lat="49.27401" lon="-0.21468">
        <ele>4.7</ele>
        <time>2020-06-17T10:27:47Z</time>
      </trkpt>
      <trkpt lat="49.27402" lon="-0.21469">
        <ele>4.7</ele>
        <time>2020-06-17T10:27:48Z</time>
      </trkpt>
      <trkpt lat="49.27403" lon="-0.21469">
        <ele>4.7</ele>
        <time>2020-06-17T10:27:49Z</time>
      </trkpt>
      <trkpt lat="49.27403" lon="-0.21469">
        <ele>4.7</ele>
        <time>2020-06-17T10:27:50Z</time>
      </trkpt>
      <trkpt lat="49.27403" lon="-0.2147">
        <ele>4.7</ele>
        <time>2020-06-17T10:27:51Z</time>
      </trkpt>
      <trkpt lat="49.27404" lon="-0.21471">
        <ele>4.7</ele>
        <time>2020-06-17T10:27:52Z</time>
      </trkpt>
      <trkpt lat="49.27403" lon="-0.21471">
        <ele>4.7</ele>
        <time>2020-06-17T10:27:53Z</time>
      </trkpt>
      <trkpt lat="49.27403" lon="-0.21471">
        <ele>4.7</ele>
        <time>2020-06-17T10:27:54Z</time>
      </trkpt>
      <trkpt lat="49.27403" lon="-0.21469">
        <ele>4.7</ele>
        <time>2020-06-17T10:27:55Z</time>
      </trkpt>
      <trkpt lat="49.27403" lon="-0.21468">
        <ele>4.7</ele>
        <time>2020-06-17T10:27:56Z</time>
      </trkpt>
      <trkpt lat="49.27403" lon="-0.21467">
        <ele>4.7</ele>
        <time>2020-06-17T10:27:57Z</time>
      </trkpt>
      <trkpt lat="49.27403" lon="-0.21468">
        <ele>4.7</ele>
        <time>2020-06-17T10:27:58Z</time>
      </trkpt>
      <trkpt lat="49.27403" lon="-0.2147">
        <ele>4.7</ele>
        <time>2020-06-17T10:27:59Z</time>
      </trkpt>
      <trkpt lat="49.27404" lon="-0.21471">
        <ele>4.7</ele>
        <time>2020-06-17T10:28:00Z</time>
      </trkpt>
      <trkpt lat="49.27406" lon="-0.21482">
        <ele>4.8</ele>
        <time>2020-06-17T10:28:38Z</time>
      </trkpt>
      <trkpt lat="49.27406" lon="-0.21483">
        <ele>4.8</ele>
        <time>2020-06-17T10:28:39Z</time>
      </trkpt>
      <trkpt lat="49.27407" lon="-0.21484">
        <ele>4.8</ele>
        <time>2020-06-17T10:28:40Z</time>
      </trkpt>
      <trkpt lat="49.27406" lon="-0.21486">
        <ele>4.9</ele>
        <time>2020-06-17T10:28:41Z</time>
      </trkpt>
      <trkpt lat="49.27407" lon="-0.21488">
        <ele>4.9</ele>
        <time>2020-06-17T10:28:42Z</time>
      </trkpt>
      <trkpt lat="49.27408" lon="-0.2149">
        <ele>4.9</ele>
        <time>2020-06-17T10:28:43Z</time>
      </trkpt>
      <trkpt lat="49.27408" lon="-0.21491">
        <ele>4.9</ele>
        <time>2020-06-17T10:28:44Z</time>
      </trkpt>
      <trkpt lat="49.27412" lon="-0.21494">
        <ele>5</ele>
        <time>2020-06-17T10:28:45Z</time>
      </trkpt>
      <trkpt lat="49.27413" lon="-0.21495">
        <ele>5</ele>
        <time>2020-06-17T10:28:46Z</time>
      </trkpt>
      <trkpt lat="49.27416" lon="-0.21498">
        <ele>5.1</ele>
        <time>2020-06-17T10:28:47Z</time>
      </trkpt>
      <trkpt lat="49.27418" lon="-0.21501">
        <ele>5.1</ele>
        <time>2020-06-17T10:28:48Z</time>
      </trkpt>
      <trkpt lat="49.27421" lon="-0.21504">
        <ele>5.2</ele>
        <time>2020-06-17T10:28:49Z</time>
      </trkpt>
      <trkpt lat="49.27424" lon="-0.21506">
        <ele>5.2</ele>
        <time>2020-06-17T10:28:50Z</time>
      </trkpt>
      <trkpt lat="49.27426" lon="-0.21509">
        <ele>5.2</ele>
        <time>2020-06-17T10:28:51Z</time>
      </trkpt>
      <trkpt lat="49.27429" lon="-0.21512">
        <ele>5.2</ele>
        <time>2020-06-17T10:28:52Z</time>
      </trkpt>
      <trkpt lat="49.2743" lon="-0.21513">
        <ele>5.2</ele>
        <time>2020-06-17T10:28:53Z</time>
      </trkpt>
      <trkpt lat="49.27433" lon="-0.21517">
        <ele>5.1</ele>
        <time>2020-06-17T10:28:54Z</time>
      </trkpt>
      <trkpt lat="49.27434" lon="-0.21519">
        <ele>5.1</ele>
        <time>2020-06-17T10:28:55Z</time>
      </trkpt>
      <trkpt lat="49.27435" lon="-0.21522">
        <ele>5</ele>
        <time>2020-06-17T10:28:56Z</time>
      </trkpt>
      <trkpt lat="49.27437" lon="-0.21526">
        <ele>4.9</ele>
        <time>2020-06-17T10:28:57Z</time>
      </trkpt>
      <trkpt lat="49.27439" lon="-0.21531">
        <ele>4.8</ele>
        <time>2020-06-17T10:28:58Z</time>
      </trkpt>
      <trkpt lat="49.27441" lon="-0.21536">
        <ele>4.6</ele>
        <time>2020-06-17T10:28:59Z</time>
      </trkpt>
      <trkpt lat="49.27444" lon="-0.21542">
        <ele>4.5</ele>
        <time>2020-06-17T10:29:00Z</time>
      </trkpt>
      <trkpt lat="49.27447" lon="-0.21549">
        <ele>4.4</ele>
        <time>2020-06-17T10:29:01Z</time>
      </trkpt>
      <trkpt lat="49.27448" lon="-0.21554">
        <ele>4.4</ele>
        <time>2020-06-17T10:29:02Z</time>
      </trkpt>
      <trkpt lat="49.2745" lon="-0.21558">
        <ele>4.3</ele>
        <time>2020-06-17T10:29:03Z</time>
      </trkpt>
      <trkpt lat="49.27453" lon="-0.21564">
        <ele>4.3</ele>
        <time>2020-06-17T10:29:04Z</time>
      </trkpt>
      <trkpt lat="49.27455" lon="-0.21568">
        <ele>4.2</ele>
        <time>2020-06-17T10:29:05Z</time>
      </trkpt>
      <trkpt lat="49.27457" lon="-0.21571">
        <ele>4.2</ele>
        <time>2020-06-17T10:29:06Z</time>
      </trkpt>
      <trkpt lat="49.27461" lon="-0.21576">
        <ele>4.1</ele>
        <time>2020-06-17T10:29:07Z</time>
      </trkpt>
      <trkpt lat="49.27464" lon="-0.21579">
        <ele>4.1</ele>
        <time>2020-06-17T10:29:08Z</time>
      </trkpt>
      <trkpt lat="49.27467" lon="-0.21583">
        <ele>4</ele>
        <time>2020-06-17T10:29:09Z</time>
      </trkpt>
      <trkpt lat="49.27471" lon="-0.21583">
        <ele>4</ele>
        <time>2020-06-17T10:29:10Z</time>
      </trkpt>
      <trkpt lat="49.27476" lon="-0.21582">
        <ele>4</ele>
        <time>2020-06-17T10:29:11Z</time>
      </trkpt>
      <trkpt lat="49.27479" lon="-0.21579">
        <ele>4</ele>
        <time>2020-06-17T10:29:12Z</time>
      </trkpt>
      <trkpt lat="49.27484" lon="-0.21575">
        <ele>4</ele>
        <time>2020-06-17T10:29:13Z</time>
      </trkpt>
      <trkpt lat="49.27489" lon="-0.21572">
        <ele>3.9</ele>
        <time>2020-06-17T10:29:14Z</time>
      </trkpt>
      <trkpt lat="49.27493" lon="-0.21569">
        <ele>3.9</ele>
        <time>2020-06-17T10:29:15Z</time>
      </trkpt>
      <trkpt lat="49.27498" lon="-0.21566">
        <ele>3.9</ele>
        <time>2020-06-17T10:29:16Z</time>
      </trkpt>
      <trkpt lat="49.27502" lon="-0.21563">
        <ele>3.9</ele>
        <time>2020-06-17T10:29:17Z</time>
      </trkpt>
      <trkpt lat="49.27508" lon="-0.2156">
        <ele>4</ele>
        <time>2020-06-17T10:29:18Z</time>
      </trkpt>
      <trkpt lat="49.27513" lon="-0.21557">
        <ele>4</ele>
        <time>2020-06-17T10:29:19Z</time>
      </trkpt>
      <trkpt lat="49.27518" lon="-0.21556">
        <ele>4</ele>
        <time>2020-06-17T10:29:20Z</time>
      </trkpt>
      <trkpt lat="49.27524" lon="-0.21555">
        <ele>4</ele>
        <time>2020-06-17T10:29:21Z</time>
      </trkpt>
      <trkpt lat="49.2753" lon="-0.21551">
        <ele>4</ele>
        <time>2020-06-17T10:29:22Z</time>
      </trkpt>
      <trkpt lat="49.27535" lon="-0.2155">
        <ele>4</ele>
        <time>2020-06-17T10:29:23Z</time>
      </trkpt>
      <trkpt lat="49.27541" lon="-0.21548">
        <ele>3.9</ele>
        <time>2020-06-17T10:29:24Z</time>
      </trkpt>
      <trkpt lat="49.27546" lon="-0.21548">
        <ele>3.9</ele>
        <time>2020-06-17T10:29:25Z</time>
      </trkpt>
      <trkpt lat="49.27552" lon="-0.21546">
        <ele>3.9</ele>
        <time>2020-06-17T10:29:26Z</time>
      </trkpt>
      <trkpt lat="49.27558" lon="-0.21545">
        <ele>3.9</ele>
        <time>2020-06-17T10:29:27Z</time>
      </trkpt>
      <trkpt lat="49.27563" lon="-0.21545">
        <ele>3.8</ele>
        <time>2020-06-17T10:29:28Z</time>
      </trkpt>
      <trkpt lat="49.27568" lon="-0.21546">
        <ele>3.8</ele>
        <time>2020-06-17T10:29:29Z</time>
      </trkpt>
      <trkpt lat="49.27574" lon="-0.21546">
        <ele>3.8</ele>
        <time>2020-06-17T10:29:30Z</time>
      </trkpt>
      <trkpt lat="49.27579" lon="-0.21545">
        <ele>3.8</ele>
        <time>2020-06-17T10:29:31Z</time>
      </trkpt>
      <trkpt lat="49.27585" lon="-0.21544">
        <ele>3.8</ele>
        <time>2020-06-17T10:29:32Z</time>
      </trkpt>
      <trkpt lat="49.2759" lon="-0.21542">
        <ele>3.8</ele>
        <time>2020-06-17T10:29:33Z</time>
      </trkpt>
      <trkpt lat="49.27594" lon="-0.21539">
        <ele>3.8</ele>
        <time>2020-06-17T10:29:34Z</time>
      </trkpt>
      <trkpt lat="49.27599" lon="-0.21537">
        <ele>3.8</ele>
        <time>2020-06-17T10:29:35Z</time>
      </trkpt>
      <trkpt lat="49.27604" lon="-0.21535">
        <ele>3.8</ele>
        <time>2020-06-17T10:29:36Z</time>
      </trkpt>
      <trkpt lat="49.2761" lon="-0.21534">
        <ele>3.8</ele>
        <time>2020-06-17T10:29:37Z</time>
      </trkpt>
      <trkpt lat="49.27616" lon="-0.21534">
        <ele>3.8</ele>
        <time>2020-06-17T10:29:38Z</time>
      </trkpt>
      <trkpt lat="49.27622" lon="-0.21534">
        <ele>3.8</ele>
        <time>2020-06-17T10:29:39Z</time>
      </trkpt>
      <trkpt lat="49.27627" lon="-0.21534">
        <ele>3.8</ele>
        <time>2020-06-17T10:29:40Z</time>
      </trkpt>
      <trkpt lat="49.27632" lon="-0.21534">
        <ele>3.8</ele>
        <time>2020-06-17T10:29:41Z</time>
      </trkpt>
      <trkpt lat="49.27638" lon="-0.21534">
        <ele>3.8</ele>
        <time>2020-06-17T10:29:42Z</time>
      </trkpt>
      <trkpt lat="49.27644" lon="-0.21534">
        <ele>3.8</ele>
        <time>2020-06-17T10:29:43Z</time>
      </trkpt>
      <trkpt lat="49.27649" lon="-0.21533">
        <ele>3.8</ele>
        <time>2020-06-17T10:29:44Z</time>
      </trkpt>
      <trkpt lat="49.27655" lon="-0.21534">
        <ele>3.8</ele>
        <time>2020-06-17T10:29:45Z</time>
      </trkpt>
      <trkpt lat="49.27661" lon="-0.21534">
        <ele>3.8</ele>
        <time>2020-06-17T10:29:46Z</time>
      </trkpt>
      <trkpt lat="49.27667" lon="-0.21535">
        <ele>3.8</ele>
        <time>2020-06-17T10:29:47Z</time>
      </trkpt>
      <trkpt lat="49.27676" lon="-0.21535">
        <ele>3.8</ele>
        <time>2020-06-17T10:29:48Z</time>
      </trkpt>
      <trkpt lat="49.27683" lon="-0.21535">
        <ele>3.9</ele>
        <time>2020-06-17T10:29:49Z</time>
      </trkpt>
      <trkpt lat="49.2769" lon="-0.21536">
        <ele>3.9</ele>
        <time>2020-06-17T10:29:50Z</time>
      </trkpt>
      <trkpt lat="49.27697" lon="-0.21538">
        <ele>3.8</ele>
        <time>2020-06-17T10:29:51Z</time>
      </trkpt>
      <trkpt lat="49.27703" lon="-0.21541">
        <ele>3.8</ele>
        <time>2020-06-17T10:29:52Z</time>
      </trkpt>
      <trkpt lat="49.27708" lon="-0.21545">
        <ele>3.8</ele>
        <time>2020-06-17T10:29:53Z</time>
      </trkpt>
      <trkpt lat="49.27713" lon="-0.21548">
        <ele>3.8</ele>
        <time>2020-06-17T10:29:54Z</time>
      </trkpt>
      <trkpt lat="49.27717" lon="-0.21551">
        <ele>3.7</ele>
        <time>2020-06-17T10:29:55Z</time>
      </trkpt>
      <trkpt lat="49.27722" lon="-0.21553">
        <ele>3.7</ele>
        <time>2020-06-17T10:29:56Z</time>
      </trkpt>
      <trkpt lat="49.27726" lon="-0.21554">
        <ele>3.7</ele>
        <time>2020-06-17T10:29:57Z</time>
      </trkpt>
      <trkpt lat="49.27731" lon="-0.21555">
        <ele>3.7</ele>
        <time>2020-06-17T10:29:58Z</time>
      </trkpt>
      <trkpt lat="49.27737" lon="-0.21556">
        <ele>3.7</ele>
        <time>2020-06-17T10:29:59Z</time>
      </trkpt>
      <trkpt lat="49.27743" lon="-0.21559">
        <ele>3.6</ele>
        <time>2020-06-17T10:30:00Z</time>
      </trkpt>
      <trkpt lat="49.2775" lon="-0.21562">
        <ele>3.6</ele>
        <time>2020-06-17T10:30:01Z</time>
      </trkpt>
      <trkpt lat="49.27755" lon="-0.21565">
        <ele>3.6</ele>
        <time>2020-06-17T10:30:02Z</time>
      </trkpt>
      <trkpt lat="49.27761" lon="-0.21567">
        <ele>3.6</ele>
        <time>2020-06-17T10:30:03Z</time>
      </trkpt>
      <trkpt lat="49.27767" lon="-0.2157">
        <ele>3.6</ele>
        <time>2020-06-17T10:30:04Z</time>
      </trkpt>
      <trkpt lat="49.27772" lon="-0.21572">
        <ele>3.6</ele>
        <time>2020-06-17T10:30:05Z</time>
      </trkpt>
      <trkpt lat="49.27778" lon="-0.21575">
        <ele>3.6</ele>
        <time>2020-06-17T10:30:06Z</time>
      </trkpt>
      <trkpt lat="49.27782" lon="-0.2158">
        <ele>3.6</ele>
        <time>2020-06-17T10:30:07Z</time>
      </trkpt>
      <trkpt lat="49.27788" lon="-0.21584">
        <ele>3.6</ele>
        <time>2020-06-17T10:30:08Z</time>
      </trkpt>
      <trkpt lat="49.27795" lon="-0.21589">
        <ele>3.5</ele>
        <time>2020-06-17T10:30:09Z</time>
      </trkpt>
      <trkpt lat="49.278" lon="-0.21592">
        <ele>3.5</ele>
        <time>2020-06-17T10:30:10Z</time>
      </trkpt>
      <trkpt lat="49.27805" lon="-0.21596">
        <ele>3.5</ele>
        <time>2020-06-17T10:30:11Z</time>
      </trkpt>
      <trkpt lat="49.27811" lon="-0.21599">
        <ele>3.5</ele>
        <time>2020-06-17T10:30:12Z</time>
      </trkpt>
      <trkpt lat="49.27816" lon="-0.21603">
        <ele>3.5</ele>
        <time>2020-06-17T10:30:13Z</time>
      </trkpt>
      <trkpt lat="49.2782" lon="-0.21606">
        <ele>3.6</ele>
        <time>2020-06-17T10:30:14Z</time>
      </trkpt>
      <trkpt lat="49.27825" lon="-0.2161">
        <ele>3.6</ele>
        <time>2020-06-17T10:30:15Z</time>
      </trkpt>
      <trkpt lat="49.27831" lon="-0.21615">
        <ele>3.6</ele>
        <time>2020-06-17T10:30:16Z</time>
      </trkpt>
      <trkpt lat="49.27835" lon="-0.21619">
        <ele>3.6</ele>
        <time>2020-06-17T10:30:17Z</time>
      </trkpt>
      <trkpt lat="49.2784" lon="-0.21624">
        <ele>3.6</ele>
        <time>2020-06-17T10:30:18Z</time>
      </trkpt>
      <trkpt lat="49.27846" lon="-0.2163">
        <ele>3.6</ele>
        <time>2020-06-17T10:30:19Z</time>
      </trkpt>
      <trkpt lat="49.27851" lon="-0.21635">
        <ele>3.6</ele>
        <time>2020-06-17T10:30:20Z</time>
      </trkpt>
      <trkpt lat="49.27857" lon="-0.2164">
        <ele>3.6</ele>
        <time>2020-06-17T10:30:21Z</time>
      </trkpt>
      <trkpt lat="49.27862" lon="-0.21644">
        <ele>3.6</ele>
        <time>2020-06-17T10:30:22Z</time>
      </trkpt>
      <trkpt lat="49.27868" lon="-0.21649">
        <ele>3.6</ele>
        <time>2020-06-17T10:30:23Z</time>
      </trkpt>
      <trkpt lat="49.27872" lon="-0.21654">
        <ele>3.6</ele>
        <time>2020-06-17T10:30:24Z</time>
      </trkpt>
      <trkpt lat="49.27877" lon="-0.21658">
        <ele>3.6</ele>
        <time>2020-06-17T10:30:25Z</time>
      </trkpt>
      <trkpt lat="49.27883" lon="-0.21663">
        <ele>3.6</ele>
        <time>2020-06-17T10:30:26Z</time>
      </trkpt>
      <trkpt lat="49.27888" lon="-0.21668">
        <ele>3.6</ele>
        <time>2020-06-17T10:30:27Z</time>
      </trkpt>
      <trkpt lat="49.27894" lon="-0.21672">
        <ele>3.6</ele>
        <time>2020-06-17T10:30:28Z</time>
      </trkpt>
      <trkpt lat="49.27898" lon="-0.21675">
        <ele>3.6</ele>
        <time>2020-06-17T10:30:29Z</time>
      </trkpt>
      <trkpt lat="49.27905" lon="-0.21681">
        <ele>3.6</ele>
        <time>2020-06-17T10:30:30Z</time>
      </trkpt>
      <trkpt lat="49.27909" lon="-0.21684">
        <ele>3.6</ele>
        <time>2020-06-17T10:30:31Z</time>
      </trkpt>
      <trkpt lat="49.27914" lon="-0.21687">
        <ele>3.6</ele>
        <time>2020-06-17T10:30:32Z</time>
      </trkpt>
      <trkpt lat="49.27919" lon="-0.2169">
        <ele>3.6</ele>
        <time>2020-06-17T10:30:33Z</time>
      </trkpt>
      <trkpt lat="49.27925" lon="-0.21693">
        <ele>3.6</ele>
        <time>2020-06-17T10:30:34Z</time>
      </trkpt>
      <trkpt lat="49.27931" lon="-0.21693">
        <ele>3.6</ele>
        <time>2020-06-17T10:30:35Z</time>
      </trkpt>
      <trkpt lat="49.27938" lon="-0.21693">
        <ele>3.6</ele>
        <time>2020-06-17T10:30:36Z</time>
      </trkpt>
      <trkpt lat="49.27943" lon="-0.21694">
        <ele>3.7</ele>
        <time>2020-06-17T10:30:37Z</time>
      </trkpt>
      <trkpt lat="49.27948" lon="-0.21695">
        <ele>3.7</ele>
        <time>2020-06-17T10:30:38Z</time>
      </trkpt>
      <trkpt lat="49.27952" lon="-0.21696">
        <ele>3.7</ele>
        <time>2020-06-17T10:30:39Z</time>
      </trkpt>
      <trkpt lat="49.27957" lon="-0.21698">
        <ele>3.7</ele>
        <time>2020-06-17T10:30:40Z</time>
      </trkpt>
      <trkpt lat="49.27963" lon="-0.21702">
        <ele>3.7</ele>
        <time>2020-06-17T10:30:41Z</time>
      </trkpt>
      <trkpt lat="49.27968" lon="-0.21706">
        <ele>3.7</ele>
        <time>2020-06-17T10:30:42Z</time>
      </trkpt>
      <trkpt lat="49.27974" lon="-0.21711">
        <ele>3.7</ele>
        <time>2020-06-17T10:30:43Z</time>
      </trkpt>
      <trkpt lat="49.27979" lon="-0.21715">
        <ele>3.7</ele>
        <time>2020-06-17T10:30:44Z</time>
      </trkpt>
      <trkpt lat="49.27984" lon="-0.2172">
        <ele>3.6</ele>
        <time>2020-06-17T10:30:45Z</time>
      </trkpt>
      <trkpt lat="49.27989" lon="-0.21724">
        <ele>3.6</ele>
        <time>2020-06-17T10:30:46Z</time>
      </trkpt>
      <trkpt lat="49.27995" lon="-0.21728">
        <ele>3.6</ele>
        <time>2020-06-17T10:30:47Z</time>
      </trkpt>
      <trkpt lat="49.28" lon="-0.21732">
        <ele>3.6</ele>
        <time>2020-06-17T10:30:48Z</time>
      </trkpt>
      <trkpt lat="49.28006" lon="-0.21736">
        <ele>3.6</ele>
        <time>2020-06-17T10:30:49Z</time>
      </trkpt>
      <trkpt lat="49.28011" lon="-0.2174">
        <ele>3.6</ele>
        <time>2020-06-17T10:30:50Z</time>
      </trkpt>
      <trkpt lat="49.28016" lon="-0.21745">
        <ele>3.6</ele>
        <time>2020-06-17T10:30:51Z</time>
      </trkpt>
      <trkpt lat="49.28021" lon="-0.21749">
        <ele>3.6</ele>
        <time>2020-06-17T10:30:52Z</time>
      </trkpt>
      <trkpt lat="49.28025" lon="-0.21755">
        <ele>3.6</ele>
        <time>2020-06-17T10:30:53Z</time>
      </trkpt>
      <trkpt lat="49.2803" lon="-0.2176">
        <ele>3.6</ele>
        <time>2020-06-17T10:30:54Z</time>
      </trkpt>
      <trkpt lat="49.28036" lon="-0.21764">
        <ele>3.6</ele>
        <time>2020-06-17T10:30:55Z</time>
      </trkpt>
      <trkpt lat="49.28042" lon="-0.21769">
        <ele>3.6</ele>
        <time>2020-06-17T10:30:56Z</time>
      </trkpt>
      <trkpt lat="49.28047" lon="-0.21775">
        <ele>3.6</ele>
        <time>2020-06-17T10:30:57Z</time>
      </trkpt>
      <trkpt lat="49.28051" lon="-0.2178">
        <ele>3.6</ele>
        <time>2020-06-17T10:30:58Z</time>
      </trkpt>
      <trkpt lat="49.28056" lon="-0.21786">
        <ele>3.6</ele>
        <time>2020-06-17T10:30:59Z</time>
      </trkpt>
      <trkpt lat="49.28062" lon="-0.2179">
        <ele>3.6</ele>
        <time>2020-06-17T10:31:00Z</time>
      </trkpt>
      <trkpt lat="49.28067" lon="-0.21795">
        <ele>3.7</ele>
        <time>2020-06-17T10:31:01Z</time>
      </trkpt>
      <trkpt lat="49.28071" lon="-0.21799">
        <ele>3.7</ele>
        <time>2020-06-17T10:31:02Z</time>
      </trkpt>
      <trkpt lat="49.28075" lon="-0.21804">
        <ele>3.7</ele>
        <time>2020-06-17T10:31:03Z</time>
      </trkpt>
      <trkpt lat="49.28079" lon="-0.21809">
        <ele>3.7</ele>
        <time>2020-06-17T10:31:04Z</time>
      </trkpt>
      <trkpt lat="49.28083" lon="-0.21816">
        <ele>3.7</ele>
        <time>2020-06-17T10:31:05Z</time>
      </trkpt>
      <trkpt lat="49.28087" lon="-0.21825">
        <ele>3.7</ele>
        <time>2020-06-17T10:31:06Z</time>
      </trkpt>
      <trkpt lat="49.2809" lon="-0.21834">
        <ele>3.7</ele>
        <time>2020-06-17T10:31:07Z</time>
      </trkpt>
      <trkpt lat="49.28092" lon="-0.21842">
        <ele>3.8</ele>
        <time>2020-06-17T10:31:08Z</time>
      </trkpt>
      <trkpt lat="49.28095" lon="-0.21849">
        <ele>3.8</ele>
        <time>2020-06-17T10:31:09Z</time>
      </trkpt>
      <trkpt lat="49.28099" lon="-0.21855">
        <ele>3.8</ele>
        <time>2020-06-17T10:31:10Z</time>
      </trkpt>
      <trkpt lat="49.28102" lon="-0.21862">
        <ele>3.9</ele>
        <time>2020-06-17T10:31:11Z</time>
      </trkpt>
      <trkpt lat="49.28107" lon="-0.21868">
        <ele>3.9</ele>
        <time>2020-06-17T10:31:12Z</time>
      </trkpt>
      <trkpt lat="49.28111" lon="-0.21874">
        <ele>3.9</ele>
        <time>2020-06-17T10:31:13Z</time>
      </trkpt>
      <trkpt lat="49.28114" lon="-0.21881">
        <ele>3.8</ele>
        <time>2020-06-17T10:31:14Z</time>
      </trkpt>
      <trkpt lat="49.28118" lon="-0.21888">
        <ele>3.8</ele>
        <time>2020-06-17T10:31:15Z</time>
      </trkpt>
      <trkpt lat="49.28122" lon="-0.21894">
        <ele>3.8</ele>
        <time>2020-06-17T10:31:16Z</time>
      </trkpt>
      <trkpt lat="49.28126" lon="-0.21901">
        <ele>3.8</ele>
        <time>2020-06-17T10:31:17Z</time>
      </trkpt>
      <trkpt lat="49.2813" lon="-0.21908">
        <ele>3.7</ele>
        <time>2020-06-17T10:31:18Z</time>
      </trkpt>
      <trkpt lat="49.28133" lon="-0.21914">
        <ele>3.6</ele>
        <time>2020-06-17T10:31:19Z</time>
      </trkpt>
      <trkpt lat="49.28135" lon="-0.2192">
        <ele>3.5</ele>
        <time>2020-06-17T10:31:20Z</time>
      </trkpt>
      <trkpt lat="49.28137" lon="-0.21929">
        <ele>3.3</ele>
        <time>2020-06-17T10:31:21Z</time>
      </trkpt>
      <trkpt lat="49.28136" lon="-0.21937">
        <ele>3.2</ele>
        <time>2020-06-17T10:31:22Z</time>
      </trkpt>
      <trkpt lat="49.28134" lon="-0.21946">
        <ele>3.2</ele>
        <time>2020-06-17T10:31:23Z</time>
      </trkpt>
      <trkpt lat="49.28132" lon="-0.21954">
        <ele>3.2</ele>
        <time>2020-06-17T10:31:24Z</time>
      </trkpt>
      <trkpt lat="49.2813" lon="-0.21962">
        <ele>3.2</ele>
        <time>2020-06-17T10:31:25Z</time>
      </trkpt>
      <trkpt lat="49.28128" lon="-0.21971">
        <ele>3.2</ele>
        <time>2020-06-17T10:31:26Z</time>
      </trkpt>
      <trkpt lat="49.28126" lon="-0.2198">
        <ele>3.3</ele>
        <time>2020-06-17T10:31:27Z</time>
      </trkpt>
      <trkpt lat="49.28125" lon="-0.21988">
        <ele>3.3</ele>
        <time>2020-06-17T10:31:28Z</time>
      </trkpt>
      <trkpt lat="49.28125" lon="-0.21996">
        <ele>3.3</ele>
        <time>2020-06-17T10:31:29Z</time>
      </trkpt>
      <trkpt lat="49.28127" lon="-0.22002">
        <ele>3.4</ele>
        <time>2020-06-17T10:31:30Z</time>
      </trkpt>
      <trkpt lat="49.28131" lon="-0.22003">
        <ele>3.4</ele>
        <time>2020-06-17T10:31:31Z</time>
      </trkpt>
      <trkpt lat="49.28135" lon="-0.22002">
        <ele>3.4</ele>
        <time>2020-06-17T10:31:32Z</time>
      </trkpt>
      <trkpt lat="49.28139" lon="-0.22">
        <ele>3.5</ele>
        <time>2020-06-17T10:31:33Z</time>
      </trkpt>
      <trkpt lat="49.28142" lon="-0.21996">
        <ele>3.5</ele>
        <time>2020-06-17T10:31:34Z</time>
      </trkpt>
      <trkpt lat="49.28146" lon="-0.21992">
        <ele>3.5</ele>
        <time>2020-06-17T10:31:35Z</time>
      </trkpt>
      <trkpt lat="49.28149" lon="-0.21987">
        <ele>3.6</ele>
        <time>2020-06-17T10:31:36Z</time>
      </trkpt>
      <trkpt lat="49.28152" lon="-0.21983">
        <ele>3.6</ele>
        <time>2020-06-17T10:31:37Z</time>
      </trkpt>
      <trkpt lat="49.28155" lon="-0.21978">
        <ele>3.6</ele>
        <time>2020-06-17T10:31:38Z</time>
      </trkpt>
      <trkpt lat="49.28158" lon="-0.21974">
        <ele>3.7</ele>
        <time>2020-06-17T10:31:39Z</time>
      </trkpt>
      <trkpt lat="49.28161" lon="-0.21969">
        <ele>3.7</ele>
        <time>2020-06-17T10:31:40Z</time>
      </trkpt>
      <trkpt lat="49.28164" lon="-0.21964">
        <ele>3.8</ele>
        <time>2020-06-17T10:31:41Z</time>
      </trkpt>
      <trkpt lat="49.28166" lon="-0.21961">
        <ele>3.8</ele>
        <time>2020-06-17T10:31:42Z</time>
      </trkpt>
      <trkpt lat="49.28169" lon="-0.21959">
        <ele>3.8</ele>
        <time>2020-06-17T10:31:43Z</time>
      </trkpt>
      <trkpt lat="49.28172" lon="-0.21959">
        <ele>3.9</ele>
        <time>2020-06-17T10:31:44Z</time>
      </trkpt>
      <trkpt lat="49.28176" lon="-0.21963">
        <ele>3.9</ele>
        <time>2020-06-17T10:31:45Z</time>
      </trkpt>
      <trkpt lat="49.28177" lon="-0.21968">
        <ele>4</ele>
        <time>2020-06-17T10:31:46Z</time>
      </trkpt>
      <trkpt lat="49.28178" lon="-0.21973">
        <ele>4</ele>
        <time>2020-06-17T10:31:47Z</time>
      </trkpt>
      <trkpt lat="49.28178" lon="-0.21979">
        <ele>4.1</ele>
        <time>2020-06-17T10:31:48Z</time>
      </trkpt>
      <trkpt lat="49.28178" lon="-0.21984">
        <ele>4.2</ele>
        <time>2020-06-17T10:31:49Z</time>
      </trkpt>
      <trkpt lat="49.28179" lon="-0.21989">
        <ele>4.2</ele>
        <time>2020-06-17T10:31:50Z</time>
      </trkpt>
      <trkpt lat="49.28178" lon="-0.21993">
        <ele>4.2</ele>
        <time>2020-06-17T10:31:51Z</time>
      </trkpt>
      <trkpt lat="49.28179" lon="-0.21998">
        <ele>4.3</ele>
        <time>2020-06-17T10:31:52Z</time>
      </trkpt>
      <trkpt lat="49.2818" lon="-0.21999">
        <ele>4.3</ele>
        <time>2020-06-17T10:31:53Z</time>
      </trkpt>
      <trkpt lat="49.28182" lon="-0.22">
        <ele>4.3</ele>
        <time>2020-06-17T10:31:54Z</time>
      </trkpt>
      <trkpt lat="49.28185" lon="-0.21998">
        <ele>4.5</ele>
        <time>2020-06-17T10:31:55Z</time>
      </trkpt>
      <trkpt lat="49.28188" lon="-0.21994">
        <ele>4.5</ele>
        <time>2020-06-17T10:31:56Z</time>
      </trkpt>
      <trkpt lat="49.28191" lon="-0.21989">
        <ele>4.5</ele>
        <time>2020-06-17T10:31:57Z</time>
      </trkpt>
      <trkpt lat="49.28194" lon="-0.21985">
        <ele>4.6</ele>
        <time>2020-06-17T10:31:58Z</time>
      </trkpt>
      <trkpt lat="49.28198" lon="-0.21981">
        <ele>4.7</ele>
        <time>2020-06-17T10:31:59Z</time>
      </trkpt>
      <trkpt lat="49.28202" lon="-0.21977">
        <ele>4.8</ele>
        <time>2020-06-17T10:32:00Z</time>
      </trkpt>
      <trkpt lat="49.28206" lon="-0.21973">
        <ele>4.9</ele>
        <time>2020-06-17T10:32:01Z</time>
      </trkpt>
      <trkpt lat="49.28209" lon="-0.21972">
        <ele>5</ele>
        <time>2020-06-17T10:32:02Z</time>
      </trkpt>
      <trkpt lat="49.28212" lon="-0.21971">
        <ele>5</ele>
        <time>2020-06-17T10:32:03Z</time>
      </trkpt>
      <trkpt lat="49.28215" lon="-0.21968">
        <ele>5</ele>
        <time>2020-06-17T10:32:04Z</time>
      </trkpt>
      <trkpt lat="49.28218" lon="-0.21966">
        <ele>5.1</ele>
        <time>2020-06-17T10:32:05Z</time>
      </trkpt>
      <trkpt lat="49.28222" lon="-0.21962">
        <ele>5.1</ele>
        <time>2020-06-17T10:32:06Z</time>
      </trkpt>
      <trkpt lat="49.28225" lon="-0.2196">
        <ele>5.1</ele>
        <time>2020-06-17T10:32:07Z</time>
      </trkpt>
      <trkpt lat="49.28229" lon="-0.21958">
        <ele>5.2</ele>
        <time>2020-06-17T10:32:08Z</time>
      </trkpt>
      <trkpt lat="49.28234" lon="-0.21956">
        <ele>5.2</ele>
        <time>2020-06-17T10:32:09Z</time>
      </trkpt>
      <trkpt lat="49.28239" lon="-0.21954">
        <ele>5.3</ele>
        <time>2020-06-17T10:32:10Z</time>
      </trkpt>
      <trkpt lat="49.28243" lon="-0.21953">
        <ele>5.3</ele>
        <time>2020-06-17T10:32:11Z</time>
      </trkpt>
      <trkpt lat="49.28248" lon="-0.21953">
        <ele>5.4</ele>
        <time>2020-06-17T10:32:12Z</time>
      </trkpt>
      <trkpt lat="49.28254" lon="-0.21953">
        <ele>5.5</ele>
        <time>2020-06-17T10:32:13Z</time>
      </trkpt>
      <trkpt lat="49.28258" lon="-0.21953">
        <ele>5.6</ele>
        <time>2020-06-17T10:32:14Z</time>
      </trkpt>
      <trkpt lat="49.28263" lon="-0.21952">
        <ele>5.6</ele>
        <time>2020-06-17T10:32:15Z</time>
      </trkpt>
      <trkpt lat="49.28268" lon="-0.21953">
        <ele>5.7</ele>
        <time>2020-06-17T10:32:16Z</time>
      </trkpt>
      <trkpt lat="49.28272" lon="-0.21956">
        <ele>5.8</ele>
        <time>2020-06-17T10:32:17Z</time>
      </trkpt>
      <trkpt lat="49.28277" lon="-0.2196">
        <ele>6</ele>
        <time>2020-06-17T10:32:18Z</time>
      </trkpt>
      <trkpt lat="49.2828" lon="-0.21965">
        <ele>6.1</ele>
        <time>2020-06-17T10:32:19Z</time>
      </trkpt>
      <trkpt lat="49.28285" lon="-0.21968">
        <ele>6.3</ele>
        <time>2020-06-17T10:32:20Z</time>
      </trkpt>
      <trkpt lat="49.28289" lon="-0.21969">
        <ele>6.4</ele>
        <time>2020-06-17T10:32:21Z</time>
      </trkpt>
      <trkpt lat="49.28294" lon="-0.21968">
        <ele>6.6</ele>
        <time>2020-06-17T10:32:22Z</time>
      </trkpt>
      <trkpt lat="49.28298" lon="-0.21967">
        <ele>6.7</ele>
        <time>2020-06-17T10:32:23Z</time>
      </trkpt>
      <trkpt lat="49.28301" lon="-0.21964">
        <ele>6.8</ele>
        <time>2020-06-17T10:32:24Z</time>
      </trkpt>
      <trkpt lat="49.28304" lon="-0.2196">
        <ele>7</ele>
        <time>2020-06-17T10:32:25Z</time>
      </trkpt>
      <trkpt lat="49.28306" lon="-0.21955">
        <ele>7.2</ele>
        <time>2020-06-17T10:32:26Z</time>
      </trkpt>
      <trkpt lat="49.28309" lon="-0.2195">
        <ele>7.4</ele>
        <time>2020-06-17T10:32:27Z</time>
      </trkpt>
      <trkpt lat="49.28311" lon="-0.21944">
        <ele>7.5</ele>
        <time>2020-06-17T10:32:28Z</time>
      </trkpt>
      <trkpt lat="49.28313" lon="-0.21939">
        <ele>7.6</ele>
        <time>2020-06-17T10:32:29Z</time>
      </trkpt>
      <trkpt lat="49.28316" lon="-0.21932">
        <ele>7.7</ele>
        <time>2020-06-17T10:32:30Z</time>
      </trkpt>
      <trkpt lat="49.28318" lon="-0.21927">
        <ele>7.7</ele>
        <time>2020-06-17T10:32:31Z</time>
      </trkpt>
      <trkpt lat="49.28321" lon="-0.21923">
        <ele>7.6</ele>
        <time>2020-06-17T10:32:32Z</time>
      </trkpt>
      <trkpt lat="49.28325" lon="-0.21919">
        <ele>7.5</ele>
        <time>2020-06-17T10:32:33Z</time>
      </trkpt>
      <trkpt lat="49.28328" lon="-0.21916">
        <ele>7.3</ele>
        <time>2020-06-17T10:32:34Z</time>
      </trkpt>
      <trkpt lat="49.28332" lon="-0.21913">
        <ele>7.2</ele>
        <time>2020-06-17T10:32:35Z</time>
      </trkpt>
      <trkpt lat="49.28336" lon="-0.21911">
        <ele>7</ele>
        <time>2020-06-17T10:32:36Z</time>
      </trkpt>
      <trkpt lat="49.28341" lon="-0.21907">
        <ele>6.8</ele>
        <time>2020-06-17T10:32:37Z</time>
      </trkpt>
      <trkpt lat="49.28346" lon="-0.21903">
        <ele>6.5</ele>
        <time>2020-06-17T10:32:38Z</time>
      </trkpt>
      <trkpt lat="49.28351" lon="-0.21897">
        <ele>6.3</ele>
        <time>2020-06-17T10:32:39Z</time>
      </trkpt>
      <trkpt lat="49.28356" lon="-0.21892">
        <ele>6</ele>
        <time>2020-06-17T10:32:40Z</time>
      </trkpt>
      <trkpt lat="49.28361" lon="-0.21886">
        <ele>5.8</ele>
        <time>2020-06-17T10:32:41Z</time>
      </trkpt>
      <trkpt lat="49.28366" lon="-0.2188">
        <ele>5.6</ele>
        <time>2020-06-17T10:32:42Z</time>
      </trkpt>
      <trkpt lat="49.28372" lon="-0.21873">
        <ele>5.5</ele>
        <time>2020-06-17T10:32:43Z</time>
      </trkpt>
      <trkpt lat="49.28376" lon="-0.21866">
        <ele>5.3</ele>
        <time>2020-06-17T10:32:44Z</time>
      </trkpt>
      <trkpt lat="49.2838" lon="-0.21858">
        <ele>5.3</ele>
        <time>2020-06-17T10:32:45Z</time>
      </trkpt>
      <trkpt lat="49.28382" lon="-0.21851">
        <ele>5.2</ele>
        <time>2020-06-17T10:32:46Z</time>
      </trkpt>
      <trkpt lat="49.28383" lon="-0.21845">
        <ele>5.2</ele>
        <time>2020-06-17T10:32:47Z</time>
      </trkpt>
      <trkpt lat="49.28383" lon="-0.21839">
        <ele>5.2</ele>
        <time>2020-06-17T10:32:48Z</time>
      </trkpt>
      <trkpt lat="49.28381" lon="-0.21833">
        <ele>5.1</ele>
        <time>2020-06-17T10:32:49Z</time>
      </trkpt>
      <trkpt lat="49.28381" lon="-0.21825">
        <ele>5.1</ele>
        <time>2020-06-17T10:32:50Z</time>
      </trkpt>
      <trkpt lat="49.28381" lon="-0.21818">
        <ele>5.1</ele>
        <time>2020-06-17T10:32:51Z</time>
      </trkpt>
      <trkpt lat="49.28382" lon="-0.21806">
        <ele>5.1</ele>
        <time>2020-06-17T10:32:52Z</time>
      </trkpt>
      <trkpt lat="49.28385" lon="-0.21799">
        <ele>5.1</ele>
        <time>2020-06-17T10:32:53Z</time>
      </trkpt>
      <trkpt lat="49.28388" lon="-0.21792">
        <ele>5.1</ele>
        <time>2020-06-17T10:32:54Z</time>
      </trkpt>
      <trkpt lat="49.28391" lon="-0.21784">
        <ele>5.2</ele>
        <time>2020-06-17T10:32:55Z</time>
      </trkpt>
      <trkpt lat="49.28393" lon="-0.21778">
        <ele>5.3</ele>
        <time>2020-06-17T10:32:56Z</time>
      </trkpt>
      <trkpt lat="49.28396" lon="-0.2177">
        <ele>5.4</ele>
        <time>2020-06-17T10:32:57Z</time>
      </trkpt>
      <trkpt lat="49.28399" lon="-0.21762">
        <ele>5.6</ele>
        <time>2020-06-17T10:32:58Z</time>
      </trkpt>
      <trkpt lat="49.28401" lon="-0.21752">
        <ele>5.7</ele>
        <time>2020-06-17T10:32:59Z</time>
      </trkpt>
      <trkpt lat="49.28401" lon="-0.21745">
        <ele>5.7</ele>
        <time>2020-06-17T10:33:00Z</time>
      </trkpt>
      <trkpt lat="49.28399" lon="-0.21739">
        <ele>5.8</ele>
        <time>2020-06-17T10:33:01Z</time>
      </trkpt>
      <trkpt lat="49.28398" lon="-0.21733">
        <ele>5.8</ele>
        <time>2020-06-17T10:33:02Z</time>
      </trkpt>
      <trkpt lat="49.28398" lon="-0.21727">
        <ele>5.8</ele>
        <time>2020-06-17T10:33:03Z</time>
      </trkpt>
      <trkpt lat="49.28398" lon="-0.2172">
        <ele>5.7</ele>
        <time>2020-06-17T10:33:04Z</time>
      </trkpt>
      <trkpt lat="49.28398" lon="-0.21712">
        <ele>5.7</ele>
        <time>2020-06-17T10:33:05Z</time>
      </trkpt>
      <trkpt lat="49.28399" lon="-0.21705">
        <ele>5.6</ele>
        <time>2020-06-17T10:33:06Z</time>
      </trkpt>
      <trkpt lat="49.284" lon="-0.21697">
        <ele>5.6</ele>
        <time>2020-06-17T10:33:07Z</time>
      </trkpt>
      <trkpt lat="49.284" lon="-0.2169">
        <ele>5.6</ele>
        <time>2020-06-17T10:33:08Z</time>
      </trkpt>
      <trkpt lat="49.284" lon="-0.21682">
        <ele>5.6</ele>
        <time>2020-06-17T10:33:09Z</time>
      </trkpt>
      <trkpt lat="49.28399" lon="-0.21672">
        <ele>5.7</ele>
        <time>2020-06-17T10:33:10Z</time>
      </trkpt>
      <trkpt lat="49.28398" lon="-0.21665">
        <ele>5.7</ele>
        <time>2020-06-17T10:33:11Z</time>
      </trkpt>
      <trkpt lat="49.28397" lon="-0.21657">
        <ele>5.8</ele>
        <time>2020-06-17T10:33:12Z</time>
      </trkpt>
      <trkpt lat="49.28396" lon="-0.2165">
        <ele>5.8</ele>
        <time>2020-06-17T10:33:13Z</time>
      </trkpt>
      <trkpt lat="49.28396" lon="-0.21645">
        <ele>5.9</ele>
        <time>2020-06-17T10:33:14Z</time>
      </trkpt>
      <trkpt lat="49.28396" lon="-0.21639">
        <ele>5.9</ele>
        <time>2020-06-17T10:33:15Z</time>
      </trkpt>
      <trkpt lat="49.28397" lon="-0.21632">
        <ele>5.9</ele>
        <time>2020-06-17T10:33:16Z</time>
      </trkpt>
      <trkpt lat="49.28399" lon="-0.21621">
        <ele>5.8</ele>
        <time>2020-06-17T10:33:17Z</time>
      </trkpt>
      <trkpt lat="49.28401" lon="-0.21612">
        <ele>5.8</ele>
        <time>2020-06-17T10:33:18Z</time>
      </trkpt>
      <trkpt lat="49.28402" lon="-0.21604">
        <ele>5.8</ele>
        <time>2020-06-17T10:33:19Z</time>
      </trkpt>
      <trkpt lat="49.28405" lon="-0.21596">
        <ele>5.8</ele>
        <time>2020-06-17T10:33:20Z</time>
      </trkpt>
      <trkpt lat="49.28407" lon="-0.21588">
        <ele>5.8</ele>
        <time>2020-06-17T10:33:21Z</time>
      </trkpt>
      <trkpt lat="49.2841" lon="-0.21581">
        <ele>5.7</ele>
        <time>2020-06-17T10:33:22Z</time>
      </trkpt>
      <trkpt lat="49.28412" lon="-0.21573">
        <ele>5.6</ele>
        <time>2020-06-17T10:33:23Z</time>
      </trkpt>
      <trkpt lat="49.28413" lon="-0.21565">
        <ele>5.5</ele>
        <time>2020-06-17T10:33:24Z</time>
      </trkpt>
      <trkpt lat="49.28414" lon="-0.21559">
        <ele>5.5</ele>
        <time>2020-06-17T10:33:25Z</time>
      </trkpt>
      <trkpt lat="49.28414" lon="-0.21551">
        <ele>5.4</ele>
        <time>2020-06-17T10:33:26Z</time>
      </trkpt>
      <trkpt lat="49.28414" lon="-0.21541">
        <ele>5.3</ele>
        <time>2020-06-17T10:33:27Z</time>
      </trkpt>
      <trkpt lat="49.28415" lon="-0.21531">
        <ele>5.2</ele>
        <time>2020-06-17T10:33:28Z</time>
      </trkpt>
      <trkpt lat="49.28416" lon="-0.2152">
        <ele>5.2</ele>
        <time>2020-06-17T10:33:29Z</time>
      </trkpt>
      <trkpt lat="49.28417" lon="-0.21511">
        <ele>5.2</ele>
        <time>2020-06-17T10:33:30Z</time>
      </trkpt>
      <trkpt lat="49.28418" lon="-0.21502">
        <ele>5.1</ele>
        <time>2020-06-17T10:33:31Z</time>
      </trkpt>
      <trkpt lat="49.2842" lon="-0.21492">
        <ele>5.1</ele>
        <time>2020-06-17T10:33:32Z</time>
      </trkpt>
      <trkpt lat="49.28421" lon="-0.21484">
        <ele>5.1</ele>
        <time>2020-06-17T10:33:33Z</time>
      </trkpt>
      <trkpt lat="49.28422" lon="-0.21477">
        <ele>5</ele>
        <time>2020-06-17T10:33:34Z</time>
      </trkpt>
      <trkpt lat="49.28425" lon="-0.21469">
        <ele>5</ele>
        <time>2020-06-17T10:33:35Z</time>
      </trkpt>
      <trkpt lat="49.28427" lon="-0.2146">
        <ele>4.9</ele>
        <time>2020-06-17T10:33:36Z</time>
      </trkpt>
      <trkpt lat="49.28429" lon="-0.21449">
        <ele>4.8</ele>
        <time>2020-06-17T10:33:37Z</time>
      </trkpt>
      <trkpt lat="49.28431" lon="-0.21441">
        <ele>4.8</ele>
        <time>2020-06-17T10:33:38Z</time>
      </trkpt>
      <trkpt lat="49.28433" lon="-0.21433">
        <ele>4.8</ele>
        <time>2020-06-17T10:33:39Z</time>
      </trkpt>
      <trkpt lat="49.28435" lon="-0.21422">
        <ele>4.9</ele>
        <time>2020-06-17T10:33:40Z</time>
      </trkpt>
      <trkpt lat="49.28437" lon="-0.21411">
        <ele>5</ele>
        <time>2020-06-17T10:33:41Z</time>
      </trkpt>
      <trkpt lat="49.28438" lon="-0.21402">
        <ele>5</ele>
        <time>2020-06-17T10:33:42Z</time>
      </trkpt>
      <trkpt lat="49.2844" lon="-0.21393">
        <ele>5.1</ele>
        <time>2020-06-17T10:33:43Z</time>
      </trkpt>
      <trkpt lat="49.28441" lon="-0.21384">
        <ele>5.1</ele>
        <time>2020-06-17T10:33:44Z</time>
      </trkpt>
      <trkpt lat="49.28442" lon="-0.21376">
        <ele>5.2</ele>
        <time>2020-06-17T10:33:45Z</time>
      </trkpt>
      <trkpt lat="49.28444" lon="-0.21368">
        <ele>5.2</ele>
        <time>2020-06-17T10:33:46Z</time>
      </trkpt>
      <trkpt lat="49.28444" lon="-0.21359">
        <ele>5.2</ele>
        <time>2020-06-17T10:33:47Z</time>
      </trkpt>
      <trkpt lat="49.28445" lon="-0.21352">
        <ele>5.2</ele>
        <time>2020-06-17T10:33:48Z</time>
      </trkpt>
      <trkpt lat="49.28444" lon="-0.21344">
        <ele>5.3</ele>
        <time>2020-06-17T10:33:49Z</time>
      </trkpt>
      <trkpt lat="49.28444" lon="-0.21335">
        <ele>5.3</ele>
        <time>2020-06-17T10:33:50Z</time>
      </trkpt>
      <trkpt lat="49.28446" lon="-0.21326">
        <ele>5.3</ele>
        <time>2020-06-17T10:33:51Z</time>
      </trkpt>
      <trkpt lat="49.28447" lon="-0.21316">
        <ele>5.4</ele>
        <time>2020-06-17T10:33:52Z</time>
      </trkpt>
      <trkpt lat="49.2845" lon="-0.21309">
        <ele>5.4</ele>
        <time>2020-06-17T10:33:53Z</time>
      </trkpt>
      <trkpt lat="49.28453" lon="-0.21304">
        <ele>5.4</ele>
        <time>2020-06-17T10:33:54Z</time>
      </trkpt>
      <trkpt lat="49.28454" lon="-0.21301">
        <ele>5.4</ele>
        <time>2020-06-17T10:33:55Z</time>
      </trkpt>
      <trkpt lat="49.28454" lon="-0.213">
        <ele>5.4</ele>
        <time>2020-06-17T10:33:56Z</time>
      </trkpt>
      <trkpt lat="49.28453" lon="-0.21302">
        <ele>5.4</ele>
        <time>2020-06-17T10:33:57Z</time>
      </trkpt>
      <trkpt lat="49.28453" lon="-0.21303">
        <ele>5.4</ele>
        <time>2020-06-17T10:33:58Z</time>
      </trkpt>
      <trkpt lat="49.28452" lon="-0.21304">
        <ele>5.4</ele>
        <time>2020-06-17T10:33:59Z</time>
      </trkpt>
      <trkpt lat="49.28452" lon="-0.21304">
        <ele>5.4</ele>
        <time>2020-06-17T10:34:00Z</time>
      </trkpt>
      <trkpt lat="49.28452" lon="-0.21305">
        <ele>5.4</ele>
        <time>2020-06-17T10:34:01Z</time>
      </trkpt>
      <trkpt lat="49.28452" lon="-0.21305">
        <ele>5.4</ele>
        <time>2020-06-17T10:34:02Z</time>
      </trkpt>
      <trkpt lat="49.28453" lon="-0.21304">
        <ele>5.4</ele>
        <time>2020-06-17T10:34:03Z</time>
      </trkpt>
      <trkpt lat="49.28453" lon="-0.21302">
        <ele>5.4</ele>
        <time>2020-06-17T10:34:04Z</time>
      </trkpt>
      <trkpt lat="49.28454" lon="-0.21301">
        <ele>5.4</ele>
        <time>2020-06-17T10:34:05Z</time>
      </trkpt>
      <trkpt lat="49.28454" lon="-0.213">
        <ele>5.4</ele>
        <time>2020-06-17T10:34:06Z</time>
      </trkpt>
      <trkpt lat="49.28454" lon="-0.21299">
        <ele>5.4</ele>
        <time>2020-06-17T10:34:07Z</time>
      </trkpt>
      <trkpt lat="49.28455" lon="-0.21298">
        <ele>5.4</ele>
        <time>2020-06-17T10:34:08Z</time>
      </trkpt>
      <trkpt lat="49.28455" lon="-0.21296">
        <ele>5.4</ele>
        <time>2020-06-17T10:34:09Z</time>
      </trkpt>
      <trkpt lat="49.28456" lon="-0.21295">
        <ele>5.4</ele>
        <time>2020-06-17T10:34:10Z</time>
      </trkpt>
      <trkpt lat="49.28456" lon="-0.21294">
        <ele>5.5</ele>
        <time>2020-06-17T10:43:15Z</time>
      </trkpt>
      <trkpt lat="49.28456" lon="-0.21293">
        <ele>5.5</ele>
        <time>2020-06-17T10:43:16Z</time>
      </trkpt>
      <trkpt lat="49.28458" lon="-0.21289">
        <ele>5.5</ele>
        <time>2020-06-17T10:43:17Z</time>
      </trkpt>
      <trkpt lat="49.28458" lon="-0.21284">
        <ele>5.5</ele>
        <time>2020-06-17T10:43:18Z</time>
      </trkpt>
      <trkpt lat="49.28458" lon="-0.21279">
        <ele>5.5</ele>
        <time>2020-06-17T10:43:19Z</time>
      </trkpt>
      <trkpt lat="49.28459" lon="-0.21272">
        <ele>5.5</ele>
        <time>2020-06-17T10:43:20Z</time>
      </trkpt>
      <trkpt lat="49.28458" lon="-0.2127">
        <ele>5.5</ele>
        <time>2020-06-17T10:43:21Z</time>
      </trkpt>
      <trkpt lat="49.28458" lon="-0.21263">
        <ele>5.5</ele>
        <time>2020-06-17T10:43:22Z</time>
      </trkpt>
      <trkpt lat="49.28458" lon="-0.21257">
        <ele>5.5</ele>
        <time>2020-06-17T10:43:23Z</time>
      </trkpt>
      <trkpt lat="49.28457" lon="-0.2125">
        <ele>5.5</ele>
        <time>2020-06-17T10:43:24Z</time>
      </trkpt>
      <trkpt lat="49.28458" lon="-0.21243">
        <ele>5.4</ele>
        <time>2020-06-17T10:43:25Z</time>
      </trkpt>
      <trkpt lat="49.28457" lon="-0.21237">
        <ele>5.4</ele>
        <time>2020-06-17T10:43:26Z</time>
      </trkpt>
      <trkpt lat="49.28458" lon="-0.2123">
        <ele>5.4</ele>
        <time>2020-06-17T10:43:27Z</time>
      </trkpt>
      <trkpt lat="49.28459" lon="-0.21224">
        <ele>5.4</ele>
        <time>2020-06-17T10:43:28Z</time>
      </trkpt>
      <trkpt lat="49.28461" lon="-0.21218">
        <ele>5.4</ele>
        <time>2020-06-17T10:43:29Z</time>
      </trkpt>
      <trkpt lat="49.28463" lon="-0.21213">
        <ele>5.5</ele>
        <time>2020-06-17T10:43:30Z</time>
      </trkpt>
      <trkpt lat="49.28464" lon="-0.21209">
        <ele>5.5</ele>
        <time>2020-06-17T10:43:31Z</time>
      </trkpt>
      <trkpt lat="49.28465" lon="-0.21205">
        <ele>5.5</ele>
        <time>2020-06-17T10:43:32Z</time>
      </trkpt>
      <trkpt lat="49.28466" lon="-0.21203">
        <ele>5.5</ele>
        <time>2020-06-17T10:43:33Z</time>
      </trkpt>
      <trkpt lat="49.28466" lon="-0.21201">
        <ele>5.5</ele>
        <time>2020-06-17T10:43:34Z</time>
      </trkpt>
      <trkpt lat="49.28468" lon="-0.21195">
        <ele>5.5</ele>
        <time>2020-06-17T10:43:35Z</time>
      </trkpt>
      <trkpt lat="49.28468" lon="-0.21193">
        <ele>5.5</ele>
        <time>2020-06-17T10:43:36Z</time>
      </trkpt>
      <trkpt lat="49.28469" lon="-0.21188">
        <ele>5.5</ele>
        <time>2020-06-17T10:43:37Z</time>
      </trkpt>
      <trkpt lat="49.28471" lon="-0.21183">
        <ele>5.5</ele>
        <time>2020-06-17T10:43:38Z</time>
      </trkpt>
      <trkpt lat="49.28471" lon="-0.21177">
        <ele>5.5</ele>
        <time>2020-06-17T10:43:39Z</time>
      </trkpt>
      <trkpt lat="49.28472" lon="-0.21173">
        <ele>5.5</ele>
        <time>2020-06-17T10:43:40Z</time>
      </trkpt>
      <trkpt lat="49.28472" lon="-0.21167">
        <ele>5.6</ele>
        <time>2020-06-17T10:43:41Z</time>
      </trkpt>
      <trkpt lat="49.28472" lon="-0.21162">
        <ele>5.6</ele>
        <time>2020-06-17T10:43:42Z</time>
      </trkpt>
      <trkpt lat="49.28472" lon="-0.21155">
        <ele>5.6</ele>
        <time>2020-06-17T10:43:43Z</time>
      </trkpt>
      <trkpt lat="49.28472" lon="-0.21153">
        <ele>5.6</ele>
        <time>2020-06-17T10:43:44Z</time>
      </trkpt>
      <trkpt lat="49.28472" lon="-0.21148">
        <ele>5.6</ele>
        <time>2020-06-17T10:43:45Z</time>
      </trkpt>
      <trkpt lat="49.28472" lon="-0.21142">
        <ele>5.7</ele>
        <time>2020-06-17T10:43:46Z</time>
      </trkpt>
      <trkpt lat="49.28472" lon="-0.2114">
        <ele>5.7</ele>
        <time>2020-06-17T10:43:47Z</time>
      </trkpt>
      <trkpt lat="49.28472" lon="-0.21136">
        <ele>5.7</ele>
        <time>2020-06-17T10:43:48Z</time>
      </trkpt>
      <trkpt lat="49.28472" lon="-0.21134">
        <ele>5.7</ele>
        <time>2020-06-17T10:43:49Z</time>
      </trkpt>
      <trkpt lat="49.28473" lon="-0.21128">
        <ele>5.7</ele>
        <time>2020-06-17T10:43:50Z</time>
      </trkpt>
      <trkpt lat="49.28473" lon="-0.21125">
        <ele>5.6</ele>
        <time>2020-06-17T10:43:51Z</time>
      </trkpt>
      <trkpt lat="49.28473" lon="-0.2112">
        <ele>5.6</ele>
        <time>2020-06-17T10:43:52Z</time>
      </trkpt>
      <trkpt lat="49.28473" lon="-0.21119">
        <ele>5.6</ele>
        <time>2020-06-17T10:43:53Z</time>
      </trkpt>
      <trkpt lat="49.28473" lon="-0.21118">
        <ele>5.6</ele>
        <time>2020-06-17T10:43:54Z</time>
      </trkpt>
      <trkpt lat="49.28471" lon="-0.21118">
        <ele>5.6</ele>
        <time>2020-06-17T10:43:55Z</time>
      </trkpt>
      <trkpt lat="49.28471" lon="-0.21119">
        <ele>5.5</ele>
        <time>2020-06-17T10:43:56Z</time>
      </trkpt>
      <trkpt lat="49.2847" lon="-0.21116">
        <ele>5.5</ele>
        <time>2020-06-17T10:43:57Z</time>
      </trkpt>
      <trkpt lat="49.2847" lon="-0.21111">
        <ele>5.5</ele>
        <time>2020-06-17T10:43:58Z</time>
      </trkpt>
      <trkpt lat="49.2847" lon="-0.21109">
        <ele>5.5</ele>
        <time>2020-06-17T10:43:59Z</time>
      </trkpt>
      <trkpt lat="49.28471" lon="-0.21101">
        <ele>5.4</ele>
        <time>2020-06-17T10:44:00Z</time>
      </trkpt>
      <trkpt lat="49.28471" lon="-0.21093">
        <ele>5.4</ele>
        <time>2020-06-17T10:44:01Z</time>
      </trkpt>
      <trkpt lat="49.28472" lon="-0.21085">
        <ele>5.4</ele>
        <time>2020-06-17T10:44:02Z</time>
      </trkpt>
      <trkpt lat="49.28472" lon="-0.21077">
        <ele>5.4</ele>
        <time>2020-06-17T10:44:03Z</time>
      </trkpt>
      <trkpt lat="49.28473" lon="-0.2107">
        <ele>5.4</ele>
        <time>2020-06-17T10:44:04Z</time>
      </trkpt>
      <trkpt lat="49.28474" lon="-0.21064">
        <ele>5.4</ele>
        <time>2020-06-17T10:44:05Z</time>
      </trkpt>
      <trkpt lat="49.28475" lon="-0.21057">
        <ele>5.4</ele>
        <time>2020-06-17T10:44:06Z</time>
      </trkpt>
      <trkpt lat="49.28476" lon="-0.2105">
        <ele>5.4</ele>
        <time>2020-06-17T10:44:07Z</time>
      </trkpt>
      <trkpt lat="49.28476" lon="-0.21043">
        <ele>5.4</ele>
        <time>2020-06-17T10:44:08Z</time>
      </trkpt>
      <trkpt lat="49.28477" lon="-0.21035">
        <ele>5.5</ele>
        <time>2020-06-17T10:44:09Z</time>
      </trkpt>
      <trkpt lat="49.28478" lon="-0.21027">
        <ele>5.5</ele>
        <time>2020-06-17T10:44:10Z</time>
      </trkpt>
      <trkpt lat="49.28479" lon="-0.2102">
        <ele>5.5</ele>
        <time>2020-06-17T10:44:11Z</time>
      </trkpt>
      <trkpt lat="49.2848" lon="-0.21011">
        <ele>5.5</ele>
        <time>2020-06-17T10:44:12Z</time>
      </trkpt>
      <trkpt lat="49.28482" lon="-0.21004">
        <ele>5.6</ele>
        <time>2020-06-17T10:44:13Z</time>
      </trkpt>
      <trkpt lat="49.28483" lon="-0.20996">
        <ele>5.6</ele>
        <time>2020-06-17T10:44:14Z</time>
      </trkpt>
      <trkpt lat="49.28484" lon="-0.20986">
        <ele>5.6</ele>
        <time>2020-06-17T10:44:15Z</time>
      </trkpt>
      <trkpt lat="49.28484" lon="-0.20979">
        <ele>5.6</ele>
        <time>2020-06-17T10:44:16Z</time>
      </trkpt>
      <trkpt lat="49.28484" lon="-0.2097">
        <ele>5.6</ele>
        <time>2020-06-17T10:44:17Z</time>
      </trkpt>
      <trkpt lat="49.28485" lon="-0.20962">
        <ele>5.6</ele>
        <time>2020-06-17T10:44:18Z</time>
      </trkpt>
      <trkpt lat="49.28486" lon="-0.20953">
        <ele>5.6</ele>
        <time>2020-06-17T10:44:19Z</time>
      </trkpt>
      <trkpt lat="49.28486" lon="-0.20946">
        <ele>5.6</ele>
        <time>2020-06-17T10:44:20Z</time>
      </trkpt>
      <trkpt lat="49.28487" lon="-0.20937">
        <ele>5.6</ele>
        <time>2020-06-17T10:44:21Z</time>
      </trkpt>
      <trkpt lat="49.28487" lon="-0.20929">
        <ele>5.6</ele>
        <time>2020-06-17T10:44:22Z</time>
      </trkpt>
      <trkpt lat="49.28488" lon="-0.20922">
        <ele>5.5</ele>
        <time>2020-06-17T10:44:23Z</time>
      </trkpt>
      <trkpt lat="49.28488" lon="-0.20913">
        <ele>5.5</ele>
        <time>2020-06-17T10:44:24Z</time>
      </trkpt>
      <trkpt lat="49.28488" lon="-0.20903">
        <ele>5.5</ele>
        <time>2020-06-17T10:44:25Z</time>
      </trkpt>
      <trkpt lat="49.28489" lon="-0.20893">
        <ele>5.5</ele>
        <time>2020-06-17T10:44:26Z</time>
      </trkpt>
      <trkpt lat="49.2849" lon="-0.20885">
        <ele>5.6</ele>
        <time>2020-06-17T10:44:27Z</time>
      </trkpt>
      <trkpt lat="49.28491" lon="-0.20877">
        <ele>5.6</ele>
        <time>2020-06-17T10:44:28Z</time>
      </trkpt>
      <trkpt lat="49.28492" lon="-0.20868">
        <ele>5.6</ele>
        <time>2020-06-17T10:44:29Z</time>
      </trkpt>
      <trkpt lat="49.28492" lon="-0.2086">
        <ele>5.6</ele>
        <time>2020-06-17T10:44:30Z</time>
      </trkpt>
      <trkpt lat="49.28493" lon="-0.20852">
        <ele>5.7</ele>
        <time>2020-06-17T10:44:31Z</time>
      </trkpt>
      <trkpt lat="49.28495" lon="-0.20844">
        <ele>5.7</ele>
        <time>2020-06-17T10:44:32Z</time>
      </trkpt>
      <trkpt lat="49.28496" lon="-0.20836">
        <ele>5.7</ele>
        <time>2020-06-17T10:44:33Z</time>
      </trkpt>
      <trkpt lat="49.28498" lon="-0.20829">
        <ele>5.7</ele>
        <time>2020-06-17T10:44:34Z</time>
      </trkpt>
      <trkpt lat="49.28499" lon="-0.2082">
        <ele>5.6</ele>
        <time>2020-06-17T10:44:35Z</time>
      </trkpt>
      <trkpt lat="49.285" lon="-0.2081">
        <ele>5.6</ele>
        <time>2020-06-17T10:44:36Z</time>
      </trkpt>
      <trkpt lat="49.28501" lon="-0.20801">
        <ele>5.6</ele>
        <time>2020-06-17T10:44:37Z</time>
      </trkpt>
      <trkpt lat="49.28502" lon="-0.20794">
        <ele>5.7</ele>
        <time>2020-06-17T10:44:38Z</time>
      </trkpt>
      <trkpt lat="49.28503" lon="-0.20785">
        <ele>5.7</ele>
        <time>2020-06-17T10:44:39Z</time>
      </trkpt>
      <trkpt lat="49.28502" lon="-0.20776">
        <ele>5.7</ele>
        <time>2020-06-17T10:44:40Z</time>
      </trkpt>
      <trkpt lat="49.28503" lon="-0.20767">
        <ele>5.8</ele>
        <time>2020-06-17T10:44:41Z</time>
      </trkpt>
      <trkpt lat="49.28504" lon="-0.20759">
        <ele>5.8</ele>
        <time>2020-06-17T10:44:42Z</time>
      </trkpt>
      <trkpt lat="49.28504" lon="-0.2075">
        <ele>5.9</ele>
        <time>2020-06-17T10:44:43Z</time>
      </trkpt>
      <trkpt lat="49.28505" lon="-0.20742">
        <ele>5.9</ele>
        <time>2020-06-17T10:44:44Z</time>
      </trkpt>
      <trkpt lat="49.28506" lon="-0.20733">
        <ele>6</ele>
        <time>2020-06-17T10:44:45Z</time>
      </trkpt>
      <trkpt lat="49.28507" lon="-0.20725">
        <ele>6</ele>
        <time>2020-06-17T10:44:46Z</time>
      </trkpt>
      <trkpt lat="49.28508" lon="-0.20716">
        <ele>6.1</ele>
        <time>2020-06-17T10:44:47Z</time>
      </trkpt>
      <trkpt lat="49.28509" lon="-0.20709">
        <ele>6.1</ele>
        <time>2020-06-17T10:44:48Z</time>
      </trkpt>
      <trkpt lat="49.2851" lon="-0.20701">
        <ele>6.1</ele>
        <time>2020-06-17T10:44:49Z</time>
      </trkpt>
      <trkpt lat="49.28511" lon="-0.20692">
        <ele>6.2</ele>
        <time>2020-06-17T10:44:50Z</time>
      </trkpt>
      <trkpt lat="49.28512" lon="-0.20684">
        <ele>6.2</ele>
        <time>2020-06-17T10:44:51Z</time>
      </trkpt>
      <trkpt lat="49.28512" lon="-0.20675">
        <ele>6.3</ele>
        <time>2020-06-17T10:44:52Z</time>
      </trkpt>
      <trkpt lat="49.28514" lon="-0.20666">
        <ele>6.3</ele>
        <time>2020-06-17T10:44:53Z</time>
      </trkpt>
      <trkpt lat="49.28515" lon="-0.20658">
        <ele>6.4</ele>
        <time>2020-06-17T10:44:54Z</time>
      </trkpt>
      <trkpt lat="49.28516" lon="-0.20649">
        <ele>6.4</ele>
        <time>2020-06-17T10:44:55Z</time>
      </trkpt>
      <trkpt lat="49.28516" lon="-0.2064">
        <ele>6.5</ele>
        <time>2020-06-17T10:44:56Z</time>
      </trkpt>
      <trkpt lat="49.28517" lon="-0.20631">
        <ele>6.5</ele>
        <time>2020-06-17T10:44:57Z</time>
      </trkpt>
      <trkpt lat="49.28518" lon="-0.20623">
        <ele>6.6</ele>
        <time>2020-06-17T10:44:58Z</time>
      </trkpt>
      <trkpt lat="49.28519" lon="-0.20616">
        <ele>6.6</ele>
        <time>2020-06-17T10:44:59Z</time>
      </trkpt>
      <trkpt lat="49.2852" lon="-0.20608">
        <ele>6.7</ele>
        <time>2020-06-17T10:45:00Z</time>
      </trkpt>
      <trkpt lat="49.28521" lon="-0.206">
        <ele>6.7</ele>
        <time>2020-06-17T10:45:01Z</time>
      </trkpt>
      <trkpt lat="49.28522" lon="-0.20592">
        <ele>6.8</ele>
        <time>2020-06-17T10:45:02Z</time>
      </trkpt>
      <trkpt lat="49.28522" lon="-0.20584">
        <ele>6.8</ele>
        <time>2020-06-17T10:45:03Z</time>
      </trkpt>
      <trkpt lat="49.28523" lon="-0.20577">
        <ele>6.9</ele>
        <time>2020-06-17T10:45:04Z</time>
      </trkpt>
      <trkpt lat="49.28524" lon="-0.2057">
        <ele>6.9</ele>
        <time>2020-06-17T10:45:05Z</time>
      </trkpt>
      <trkpt lat="49.28524" lon="-0.20563">
        <ele>6.9</ele>
        <time>2020-06-17T10:45:06Z</time>
      </trkpt>
      <trkpt lat="49.28526" lon="-0.20556">
        <ele>7</ele>
        <time>2020-06-17T10:45:07Z</time>
      </trkpt>
      <trkpt lat="49.28526" lon="-0.20549">
        <ele>7</ele>
        <time>2020-06-17T10:45:08Z</time>
      </trkpt>
      <trkpt lat="49.28526" lon="-0.2054">
        <ele>7</ele>
        <time>2020-06-17T10:45:09Z</time>
      </trkpt>
      <trkpt lat="49.28527" lon="-0.20533">
        <ele>7</ele>
        <time>2020-06-17T10:45:10Z</time>
      </trkpt>
      <trkpt lat="49.28528" lon="-0.20524">
        <ele>7.1</ele>
        <time>2020-06-17T10:45:11Z</time>
      </trkpt>
      <trkpt lat="49.28528" lon="-0.20516">
        <ele>7.1</ele>
        <time>2020-06-17T10:45:12Z</time>
      </trkpt>
      <trkpt lat="49.28528" lon="-0.20508">
        <ele>7.1</ele>
        <time>2020-06-17T10:45:13Z</time>
      </trkpt>
      <trkpt lat="49.28528" lon="-0.205">
        <ele>7.1</ele>
        <time>2020-06-17T10:45:14Z</time>
      </trkpt>
      <trkpt lat="49.28528" lon="-0.20492">
        <ele>7.1</ele>
        <time>2020-06-17T10:45:15Z</time>
      </trkpt>
      <trkpt lat="49.28528" lon="-0.20484">
        <ele>7.1</ele>
        <time>2020-06-17T10:45:16Z</time>
      </trkpt>
      <trkpt lat="49.28529" lon="-0.20475">
        <ele>7.2</ele>
        <time>2020-06-17T10:45:17Z</time>
      </trkpt>
      <trkpt lat="49.28531" lon="-0.20467">
        <ele>7.2</ele>
        <time>2020-06-17T10:45:18Z</time>
      </trkpt>
      <trkpt lat="49.28531" lon="-0.20459">
        <ele>7.2</ele>
        <time>2020-06-17T10:45:19Z</time>
      </trkpt>
      <trkpt lat="49.28532" lon="-0.20452">
        <ele>7.2</ele>
        <time>2020-06-17T10:45:20Z</time>
      </trkpt>
      <trkpt lat="49.28533" lon="-0.20443">
        <ele>7.3</ele>
        <time>2020-06-17T10:45:21Z</time>
      </trkpt>
      <trkpt lat="49.28535" lon="-0.20435">
        <ele>7.4</ele>
        <time>2020-06-17T10:45:22Z</time>
      </trkpt>
      <trkpt lat="49.28536" lon="-0.20428">
        <ele>7.4</ele>
        <time>2020-06-17T10:45:23Z</time>
      </trkpt>
      <trkpt lat="49.28537" lon="-0.20421">
        <ele>7.5</ele>
        <time>2020-06-17T10:45:24Z</time>
      </trkpt>
      <trkpt lat="49.28538" lon="-0.20413">
        <ele>7.6</ele>
        <time>2020-06-17T10:45:25Z</time>
      </trkpt>
      <trkpt lat="49.28538" lon="-0.20405">
        <ele>7.6</ele>
        <time>2020-06-17T10:45:26Z</time>
      </trkpt>
      <trkpt lat="49.28539" lon="-0.20397">
        <ele>7.7</ele>
        <time>2020-06-17T10:45:27Z</time>
      </trkpt>
      <trkpt lat="49.28539" lon="-0.20389">
        <ele>7.7</ele>
        <time>2020-06-17T10:45:28Z</time>
      </trkpt>
      <trkpt lat="49.28541" lon="-0.20382">
        <ele>7.8</ele>
        <time>2020-06-17T10:45:29Z</time>
      </trkpt>
      <trkpt lat="49.28543" lon="-0.20374">
        <ele>7.8</ele>
        <time>2020-06-17T10:45:30Z</time>
      </trkpt>
      <trkpt lat="49.28543" lon="-0.20365">
        <ele>7.8</ele>
        <time>2020-06-17T10:45:31Z</time>
      </trkpt>
      <trkpt lat="49.28544" lon="-0.20357">
        <ele>7.8</ele>
        <time>2020-06-17T10:45:32Z</time>
      </trkpt>
      <trkpt lat="49.28545" lon="-0.20349">
        <ele>7.9</ele>
        <time>2020-06-17T10:45:33Z</time>
      </trkpt>
      <trkpt lat="49.28547" lon="-0.20341">
        <ele>7.9</ele>
        <time>2020-06-17T10:45:34Z</time>
      </trkpt>
      <trkpt lat="49.28548" lon="-0.20333">
        <ele>8</ele>
        <time>2020-06-17T10:45:35Z</time>
      </trkpt>
      <trkpt lat="49.2855" lon="-0.20325">
        <ele>8</ele>
        <time>2020-06-17T10:45:36Z</time>
      </trkpt>
      <trkpt lat="49.28552" lon="-0.20316">
        <ele>8.1</ele>
        <time>2020-06-17T10:45:37Z</time>
      </trkpt>
      <trkpt lat="49.28553" lon="-0.20308">
        <ele>8.1</ele>
        <time>2020-06-17T10:45:38Z</time>
      </trkpt>
      <trkpt lat="49.28554" lon="-0.20299">
        <ele>8.2</ele>
        <time>2020-06-17T10:45:39Z</time>
      </trkpt>
      <trkpt lat="49.28555" lon="-0.20292">
        <ele>8.2</ele>
        <time>2020-06-17T10:45:40Z</time>
      </trkpt>
      <trkpt lat="49.28556" lon="-0.20284">
        <ele>8.2</ele>
        <time>2020-06-17T10:45:41Z</time>
      </trkpt>
      <trkpt lat="49.28557" lon="-0.20277">
        <ele>8.3</ele>
        <time>2020-06-17T10:45:42Z</time>
      </trkpt>
      <trkpt lat="49.28557" lon="-0.20271">
        <ele>8.3</ele>
        <time>2020-06-17T10:45:43Z</time>
      </trkpt>
      <trkpt lat="49.28556" lon="-0.20263">
        <ele>8.3</ele>
        <time>2020-06-17T10:45:44Z</time>
      </trkpt>
      <trkpt lat="49.28555" lon="-0.20255">
        <ele>8.4</ele>
        <time>2020-06-17T10:45:45Z</time>
      </trkpt>
      <trkpt lat="49.28554" lon="-0.20249">
        <ele>8.4</ele>
        <time>2020-06-17T10:45:46Z</time>
      </trkpt>
      <trkpt lat="49.28555" lon="-0.20242">
        <ele>8.4</ele>
        <time>2020-06-17T10:45:47Z</time>
      </trkpt>
      <trkpt lat="49.28556" lon="-0.20235">
        <ele>8.3</ele>
        <time>2020-06-17T10:45:48Z</time>
      </trkpt>
      <trkpt lat="49.28557" lon="-0.20227">
        <ele>8.3</ele>
        <time>2020-06-17T10:45:49Z</time>
      </trkpt>
      <trkpt lat="49.28557" lon="-0.20221">
        <ele>8.3</ele>
        <time>2020-06-17T10:45:50Z</time>
      </trkpt>
      <trkpt lat="49.28558" lon="-0.20213">
        <ele>8.3</ele>
        <time>2020-06-17T10:45:51Z</time>
      </trkpt>
      <trkpt lat="49.28558" lon="-0.20206">
        <ele>8.3</ele>
        <time>2020-06-17T10:45:52Z</time>
      </trkpt>
      <trkpt lat="49.28559" lon="-0.20198">
        <ele>8.2</ele>
        <time>2020-06-17T10:45:53Z</time>
      </trkpt>
      <trkpt lat="49.28561" lon="-0.2019">
        <ele>8.2</ele>
        <time>2020-06-17T10:45:54Z</time>
      </trkpt>
      <trkpt lat="49.28561" lon="-0.20182">
        <ele>8.2</ele>
        <time>2020-06-17T10:45:55Z</time>
      </trkpt>
      <trkpt lat="49.28562" lon="-0.20174">
        <ele>8.2</ele>
        <time>2020-06-17T10:45:56Z</time>
      </trkpt>
      <trkpt lat="49.28562" lon="-0.20166">
        <ele>8.2</ele>
        <time>2020-06-17T10:45:57Z</time>
      </trkpt>
      <trkpt lat="49.28563" lon="-0.20157">
        <ele>8.2</ele>
        <time>2020-06-17T10:45:58Z</time>
      </trkpt>
      <trkpt lat="49.28563" lon="-0.20149">
        <ele>8.2</ele>
        <time>2020-06-17T10:45:59Z</time>
      </trkpt>
      <trkpt lat="49.28562" lon="-0.20141">
        <ele>8.2</ele>
        <time>2020-06-17T10:46:00Z</time>
      </trkpt>
      <trkpt lat="49.28561" lon="-0.20132">
        <ele>8.2</ele>
        <time>2020-06-17T10:46:01Z</time>
      </trkpt>
      <trkpt lat="49.2856" lon="-0.20123">
        <ele>8.2</ele>
        <time>2020-06-17T10:46:02Z</time>
      </trkpt>
      <trkpt lat="49.2856" lon="-0.20115">
        <ele>8.2</ele>
        <time>2020-06-17T10:46:03Z</time>
      </trkpt>
      <trkpt lat="49.2856" lon="-0.20107">
        <ele>8.2</ele>
        <time>2020-06-17T10:46:04Z</time>
      </trkpt>
      <trkpt lat="49.2856" lon="-0.20099">
        <ele>8.2</ele>
        <time>2020-06-17T10:46:05Z</time>
      </trkpt>
      <trkpt lat="49.28561" lon="-0.20092">
        <ele>8.3</ele>
        <time>2020-06-17T10:46:06Z</time>
      </trkpt>
      <trkpt lat="49.28561" lon="-0.20085">
        <ele>8.3</ele>
        <time>2020-06-17T10:46:07Z</time>
      </trkpt>
      <trkpt lat="49.28559" lon="-0.20079">
        <ele>8.3</ele>
        <time>2020-06-17T10:46:08Z</time>
      </trkpt>
      <trkpt lat="49.28555" lon="-0.20074">
        <ele>8.2</ele>
        <time>2020-06-17T10:46:09Z</time>
      </trkpt>
      <trkpt lat="49.2855" lon="-0.20073">
        <ele>8.2</ele>
        <time>2020-06-17T10:46:10Z</time>
      </trkpt>
      <trkpt lat="49.28544" lon="-0.20073">
        <ele>8.1</ele>
        <time>2020-06-17T10:46:11Z</time>
      </trkpt>
      <trkpt lat="49.28539" lon="-0.20073">
        <ele>8.1</ele>
        <time>2020-06-17T10:46:12Z</time>
      </trkpt>
      <trkpt lat="49.28533" lon="-0.20074">
        <ele>8</ele>
        <time>2020-06-17T10:46:13Z</time>
      </trkpt>
      <trkpt lat="49.28527" lon="-0.20074">
        <ele>7.9</ele>
        <time>2020-06-17T10:46:14Z</time>
      </trkpt>
      <trkpt lat="49.28521" lon="-0.20074">
        <ele>7.9</ele>
        <time>2020-06-17T10:46:15Z</time>
      </trkpt>
      <trkpt lat="49.28516" lon="-0.20072">
        <ele>7.8</ele>
        <time>2020-06-17T10:46:16Z</time>
      </trkpt>
      <trkpt lat="49.28511" lon="-0.20071">
        <ele>7.7</ele>
        <time>2020-06-17T10:46:17Z</time>
      </trkpt>
      <trkpt lat="49.28505" lon="-0.2007">
        <ele>7.7</ele>
        <time>2020-06-17T10:46:18Z</time>
      </trkpt>
      <trkpt lat="49.285" lon="-0.20068">
        <ele>7.7</ele>
        <time>2020-06-17T10:46:19Z</time>
      </trkpt>
      <trkpt lat="49.28494" lon="-0.20066">
        <ele>7.7</ele>
        <time>2020-06-17T10:46:20Z</time>
      </trkpt>
      <trkpt lat="49.28488" lon="-0.20063">
        <ele>7.6</ele>
        <time>2020-06-17T10:46:21Z</time>
      </trkpt>
      <trkpt lat="49.28483" lon="-0.20061">
        <ele>7.6</ele>
        <time>2020-06-17T10:46:22Z</time>
      </trkpt>
      <trkpt lat="49.28476" lon="-0.20058">
        <ele>7.6</ele>
        <time>2020-06-17T10:46:23Z</time>
      </trkpt>
      <trkpt lat="49.28472" lon="-0.20052">
        <ele>7.5</ele>
        <time>2020-06-17T10:46:24Z</time>
      </trkpt>
      <trkpt lat="49.28471" lon="-0.20045">
        <ele>7.4</ele>
        <time>2020-06-17T10:46:25Z</time>
      </trkpt>
      <trkpt lat="49.28475" lon="-0.20035">
        <ele>7.4</ele>
        <time>2020-06-17T10:46:26Z</time>
      </trkpt>
      <trkpt lat="49.28477" lon="-0.20024">
        <ele>7.3</ele>
        <time>2020-06-17T10:46:27Z</time>
      </trkpt>
      <trkpt lat="49.28478" lon="-0.20013">
        <ele>7.3</ele>
        <time>2020-06-17T10:46:28Z</time>
      </trkpt>
      <trkpt lat="49.2848" lon="-0.20002">
        <ele>7.2</ele>
        <time>2020-06-17T10:46:29Z</time>
      </trkpt>
      <trkpt lat="49.28481" lon="-0.19991">
        <ele>7.2</ele>
        <time>2020-06-17T10:46:30Z</time>
      </trkpt>
      <trkpt lat="49.28482" lon="-0.1998">
        <ele>7.2</ele>
        <time>2020-06-17T10:46:31Z</time>
      </trkpt>
      <trkpt lat="49.28484" lon="-0.19971">
        <ele>7.1</ele>
        <time>2020-06-17T10:46:32Z</time>
      </trkpt>
      <trkpt lat="49.28486" lon="-0.19959">
        <ele>7.1</ele>
        <time>2020-06-17T10:46:33Z</time>
      </trkpt>
      <trkpt lat="49.28487" lon="-0.19949">
        <ele>7.1</ele>
        <time>2020-06-17T10:46:34Z</time>
      </trkpt>
      <trkpt lat="49.28487" lon="-0.1994">
        <ele>7.1</ele>
        <time>2020-06-17T10:46:35Z</time>
      </trkpt>
      <trkpt lat="49.28487" lon="-0.1993">
        <ele>7.1</ele>
        <time>2020-06-17T10:46:36Z</time>
      </trkpt>
      <trkpt lat="49.28489" lon="-0.1992">
        <ele>7.2</ele>
        <time>2020-06-17T10:46:37Z</time>
      </trkpt>
      <trkpt lat="49.2849" lon="-0.19912">
        <ele>7.2</ele>
        <time>2020-06-17T10:46:38Z</time>
      </trkpt>
      <trkpt lat="49.28491" lon="-0.19904">
        <ele>7.2</ele>
        <time>2020-06-17T10:46:39Z</time>
      </trkpt>
      <trkpt lat="49.28492" lon="-0.19893">
        <ele>7.2</ele>
        <time>2020-06-17T10:46:40Z</time>
      </trkpt>
      <trkpt lat="49.28493" lon="-0.19885">
        <ele>7.2</ele>
        <time>2020-06-17T10:46:41Z</time>
      </trkpt>
      <trkpt lat="49.28494" lon="-0.19876">
        <ele>7.2</ele>
        <time>2020-06-17T10:46:42Z</time>
      </trkpt>
      <trkpt lat="49.28495" lon="-0.19867">
        <ele>7.3</ele>
        <time>2020-06-17T10:46:43Z</time>
      </trkpt>
      <trkpt lat="49.28496" lon="-0.19859">
        <ele>7.3</ele>
        <time>2020-06-17T10:46:44Z</time>
      </trkpt>
      <trkpt lat="49.28496" lon="-0.19854">
        <ele>7.3</ele>
        <time>2020-06-17T10:46:45Z</time>
      </trkpt>
      <trkpt lat="49.28497" lon="-0.19847">
        <ele>7.4</ele>
        <time>2020-06-17T10:46:46Z</time>
      </trkpt>
      <trkpt lat="49.28498" lon="-0.1984">
        <ele>7.4</ele>
        <time>2020-06-17T10:46:47Z</time>
      </trkpt>
      <trkpt lat="49.28497" lon="-0.19835">
        <ele>7.4</ele>
        <time>2020-06-17T10:46:48Z</time>
      </trkpt>
      <trkpt lat="49.28494" lon="-0.19831">
        <ele>7.4</ele>
        <time>2020-06-17T10:46:49Z</time>
      </trkpt>
      <trkpt lat="49.28489" lon="-0.19829">
        <ele>7.4</ele>
        <time>2020-06-17T10:46:50Z</time>
      </trkpt>
      <trkpt lat="49.28484" lon="-0.19825">
        <ele>7.4</ele>
        <time>2020-06-17T10:46:51Z</time>
      </trkpt>
      <trkpt lat="49.28479" lon="-0.1982">
        <ele>7.4</ele>
        <time>2020-06-17T10:46:52Z</time>
      </trkpt>
      <trkpt lat="49.28473" lon="-0.19815">
        <ele>7.4</ele>
        <time>2020-06-17T10:46:53Z</time>
      </trkpt>
      <trkpt lat="49.28468" lon="-0.19811">
        <ele>7.4</ele>
        <time>2020-06-17T10:46:54Z</time>
      </trkpt>
      <trkpt lat="49.28463" lon="-0.19807">
        <ele>7.4</ele>
        <time>2020-06-17T10:46:55Z</time>
      </trkpt>
      <trkpt lat="49.28458" lon="-0.19802">
        <ele>7.4</ele>
        <time>2020-06-17T10:46:56Z</time>
      </trkpt>
      <trkpt lat="49.28453" lon="-0.19797">
        <ele>7.4</ele>
        <time>2020-06-17T10:46:57Z</time>
      </trkpt>
      <trkpt lat="49.28448" lon="-0.19792">
        <ele>7.4</ele>
        <time>2020-06-17T10:46:58Z</time>
      </trkpt>
      <trkpt lat="49.28444" lon="-0.19786">
        <ele>7.4</ele>
        <time>2020-06-17T10:46:59Z</time>
      </trkpt>
      <trkpt lat="49.28438" lon="-0.19781">
        <ele>7.3</ele>
        <time>2020-06-17T10:47:00Z</time>
      </trkpt>
      <trkpt lat="49.28433" lon="-0.19777">
        <ele>7.3</ele>
        <time>2020-06-17T10:47:01Z</time>
      </trkpt>
      <trkpt lat="49.28428" lon="-0.19773">
        <ele>7.3</ele>
        <time>2020-06-17T10:47:02Z</time>
      </trkpt>
      <trkpt lat="49.28423" lon="-0.19768">
        <ele>7.3</ele>
        <time>2020-06-17T10:47:03Z</time>
      </trkpt>
      <trkpt lat="49.28418" lon="-0.19764">
        <ele>7.3</ele>
        <time>2020-06-17T10:47:04Z</time>
      </trkpt>
      <trkpt lat="49.28413" lon="-0.1976">
        <ele>7.3</ele>
        <time>2020-06-17T10:47:05Z</time>
      </trkpt>
      <trkpt lat="49.2841" lon="-0.19756">
        <ele>7.3</ele>
        <time>2020-06-17T10:47:06Z</time>
      </trkpt>
      <trkpt lat="49.28405" lon="-0.19752">
        <ele>7.3</ele>
        <time>2020-06-17T10:47:07Z</time>
      </trkpt>
      <trkpt lat="49.284" lon="-0.19748">
        <ele>7.3</ele>
        <time>2020-06-17T10:47:08Z</time>
      </trkpt>
      <trkpt lat="49.28397" lon="-0.19743">
        <ele>7.3</ele>
        <time>2020-06-17T10:47:09Z</time>
      </trkpt>
      <trkpt lat="49.28394" lon="-0.1974">
        <ele>7.3</ele>
        <time>2020-06-17T10:47:10Z</time>
      </trkpt>
      <trkpt lat="49.28389" lon="-0.19735">
        <ele>7.3</ele>
        <time>2020-06-17T10:47:11Z</time>
      </trkpt>
      <trkpt lat="49.28384" lon="-0.19731">
        <ele>7.3</ele>
        <time>2020-06-17T10:47:12Z</time>
      </trkpt>
      <trkpt lat="49.28379" lon="-0.19726">
        <ele>7.3</ele>
        <time>2020-06-17T10:47:13Z</time>
      </trkpt>
      <trkpt lat="49.28374" lon="-0.19723">
        <ele>7.3</ele>
        <time>2020-06-17T10:47:14Z</time>
      </trkpt>
      <trkpt lat="49.28369" lon="-0.19719">
        <ele>7.3</ele>
        <time>2020-06-17T10:47:15Z</time>
      </trkpt>
      <trkpt lat="49.28364" lon="-0.19711">
        <ele>7.3</ele>
        <time>2020-06-17T10:47:16Z</time>
      </trkpt>
      <trkpt lat="49.28359" lon="-0.19706">
        <ele>7.3</ele>
        <time>2020-06-17T10:47:17Z</time>
      </trkpt>
      <trkpt lat="49.28353" lon="-0.19699">
        <ele>7.3</ele>
        <time>2020-06-17T10:47:18Z</time>
      </trkpt>
      <trkpt lat="49.28347" lon="-0.19693">
        <ele>7.3</ele>
        <time>2020-06-17T10:47:19Z</time>
      </trkpt>
      <trkpt lat="49.28343" lon="-0.19688">
        <ele>7.3</ele>
        <time>2020-06-17T10:47:20Z</time>
      </trkpt>
      <trkpt lat="49.28338" lon="-0.19683">
        <ele>7.3</ele>
        <time>2020-06-17T10:47:21Z</time>
      </trkpt>
      <trkpt lat="49.28333" lon="-0.19678">
        <ele>7.3</ele>
        <time>2020-06-17T10:47:22Z</time>
      </trkpt>
      <trkpt lat="49.28328" lon="-0.19674">
        <ele>7.3</ele>
        <time>2020-06-17T10:47:23Z</time>
      </trkpt>
      <trkpt lat="49.28323" lon="-0.19668">
        <ele>7.3</ele>
        <time>2020-06-17T10:47:24Z</time>
      </trkpt>
      <trkpt lat="49.28318" lon="-0.19663">
        <ele>7.3</ele>
        <time>2020-06-17T10:47:25Z</time>
      </trkpt>
      <trkpt lat="49.28312" lon="-0.19658">
        <ele>7.3</ele>
        <time>2020-06-17T10:47:26Z</time>
      </trkpt>
      <trkpt lat="49.28306" lon="-0.19654">
        <ele>7.3</ele>
        <time>2020-06-17T10:47:27Z</time>
      </trkpt>
      <trkpt lat="49.28301" lon="-0.1965">
        <ele>7.3</ele>
        <time>2020-06-17T10:47:28Z</time>
      </trkpt>
      <trkpt lat="49.28296" lon="-0.19645">
        <ele>7.3</ele>
        <time>2020-06-17T10:47:29Z</time>
      </trkpt>
      <trkpt lat="49.28292" lon="-0.19641">
        <ele>7.3</ele>
        <time>2020-06-17T10:47:30Z</time>
      </trkpt>
      <trkpt lat="49.28288" lon="-0.19635">
        <ele>7.3</ele>
        <time>2020-06-17T10:47:31Z</time>
      </trkpt>
      <trkpt lat="49.28283" lon="-0.1963">
        <ele>7.2</ele>
        <time>2020-06-17T10:47:32Z</time>
      </trkpt>
      <trkpt lat="49.28277" lon="-0.19624">
        <ele>7.1</ele>
        <time>2020-06-17T10:47:33Z</time>
      </trkpt>
      <trkpt lat="49.28272" lon="-0.19619">
        <ele>7</ele>
        <time>2020-06-17T10:47:34Z</time>
      </trkpt>
      <trkpt lat="49.28268" lon="-0.19615">
        <ele>7</ele>
        <time>2020-06-17T10:47:35Z</time>
      </trkpt>
      <trkpt lat="49.28263" lon="-0.19611">
        <ele>6.9</ele>
        <time>2020-06-17T10:47:36Z</time>
      </trkpt>
      <trkpt lat="49.28257" lon="-0.19606">
        <ele>6.8</ele>
        <time>2020-06-17T10:47:37Z</time>
      </trkpt>
      <trkpt lat="49.28252" lon="-0.19601">
        <ele>6.8</ele>
        <time>2020-06-17T10:47:38Z</time>
      </trkpt>
      <trkpt lat="49.28247" lon="-0.19596">
        <ele>6.7</ele>
        <time>2020-06-17T10:47:39Z</time>
      </trkpt>
      <trkpt lat="49.28243" lon="-0.19592">
        <ele>6.7</ele>
        <time>2020-06-17T10:47:40Z</time>
      </trkpt>
      <trkpt lat="49.28239" lon="-0.19586">
        <ele>6.6</ele>
        <time>2020-06-17T10:47:41Z</time>
      </trkpt>
      <trkpt lat="49.28235" lon="-0.19581">
        <ele>6.6</ele>
        <time>2020-06-17T10:47:42Z</time>
      </trkpt>
      <trkpt lat="49.28234" lon="-0.19573">
        <ele>6.6</ele>
        <time>2020-06-17T10:47:43Z</time>
      </trkpt>
      <trkpt lat="49.28236" lon="-0.19566">
        <ele>6.6</ele>
        <time>2020-06-17T10:47:44Z</time>
      </trkpt>
      <trkpt lat="49.28239" lon="-0.19559">
        <ele>6.6</ele>
        <time>2020-06-17T10:47:45Z</time>
      </trkpt>
      <trkpt lat="49.28242" lon="-0.19555">
        <ele>6.6</ele>
        <time>2020-06-17T10:47:46Z</time>
      </trkpt>
      <trkpt lat="49.28245" lon="-0.1955">
        <ele>6.6</ele>
        <time>2020-06-17T10:47:47Z</time>
      </trkpt>
      <trkpt lat="49.28248" lon="-0.19546">
        <ele>6.6</ele>
        <time>2020-06-17T10:47:48Z</time>
      </trkpt>
      <trkpt lat="49.2825" lon="-0.19539">
        <ele>6.6</ele>
        <time>2020-06-17T10:47:49Z</time>
      </trkpt>
      <trkpt lat="49.28252" lon="-0.19533">
        <ele>6.6</ele>
        <time>2020-06-17T10:47:50Z</time>
      </trkpt>
      <trkpt lat="49.28256" lon="-0.19526">
        <ele>6.7</ele>
        <time>2020-06-17T10:47:51Z</time>
      </trkpt>
      <trkpt lat="49.2826" lon="-0.19518">
        <ele>6.8</ele>
        <time>2020-06-17T10:47:52Z</time>
      </trkpt>
      <trkpt lat="49.28264" lon="-0.1951">
        <ele>6.8</ele>
        <time>2020-06-17T10:47:53Z</time>
      </trkpt>
      <trkpt lat="49.28267" lon="-0.19503">
        <ele>6.9</ele>
        <time>2020-06-17T10:47:54Z</time>
      </trkpt>
      <trkpt lat="49.2827" lon="-0.19496">
        <ele>7</ele>
        <time>2020-06-17T10:47:55Z</time>
      </trkpt>
      <trkpt lat="49.28274" lon="-0.19489">
        <ele>7.1</ele>
        <time>2020-06-17T10:47:56Z</time>
      </trkpt>
      <trkpt lat="49.28277" lon="-0.19483">
        <ele>7.2</ele>
        <time>2020-06-17T10:47:57Z</time>
      </trkpt>
      <trkpt lat="49.2828" lon="-0.19475">
        <ele>7.2</ele>
        <time>2020-06-17T10:47:58Z</time>
      </trkpt>
      <trkpt lat="49.28283" lon="-0.19469">
        <ele>7.3</ele>
        <time>2020-06-17T10:47:59Z</time>
      </trkpt>
      <trkpt lat="49.28285" lon="-0.19463">
        <ele>7.3</ele>
        <time>2020-06-17T10:48:00Z</time>
      </trkpt>
      <trkpt lat="49.28288" lon="-0.19457">
        <ele>7.2</ele>
        <time>2020-06-17T10:48:01Z</time>
      </trkpt>
      <trkpt lat="49.2829" lon="-0.19451">
        <ele>7.2</ele>
        <time>2020-06-17T10:48:02Z</time>
      </trkpt>
      <trkpt lat="49.28293" lon="-0.19444">
        <ele>7.2</ele>
        <time>2020-06-17T10:48:03Z</time>
      </trkpt>
      <trkpt lat="49.28294" lon="-0.19438">
        <ele>7.2</ele>
        <time>2020-06-17T10:48:04Z</time>
      </trkpt>
      <trkpt lat="49.28298" lon="-0.19429">
        <ele>7.1</ele>
        <time>2020-06-17T10:48:05Z</time>
      </trkpt>
      <trkpt lat="49.283" lon="-0.19424">
        <ele>7.1</ele>
        <time>2020-06-17T10:48:06Z</time>
      </trkpt>
      <trkpt lat="49.28302" lon="-0.19416">
        <ele>7</ele>
        <time>2020-06-17T10:48:07Z</time>
      </trkpt>
      <trkpt lat="49.28305" lon="-0.19408">
        <ele>6.9</ele>
        <time>2020-06-17T10:48:08Z</time>
      </trkpt>
      <trkpt lat="49.28309" lon="-0.19403">
        <ele>6.8</ele>
        <time>2020-06-17T10:48:09Z</time>
      </trkpt>
      <trkpt lat="49.28313" lon="-0.19395">
        <ele>6.8</ele>
        <time>2020-06-17T10:48:10Z</time>
      </trkpt>
      <trkpt lat="49.28315" lon="-0.19387">
        <ele>6.7</ele>
        <time>2020-06-17T10:48:11Z</time>
      </trkpt>
      <trkpt lat="49.28317" lon="-0.19378">
        <ele>6.7</ele>
        <time>2020-06-17T10:48:12Z</time>
      </trkpt>
      <trkpt lat="49.2832" lon="-0.19371">
        <ele>6.6</ele>
        <time>2020-06-17T10:48:13Z</time>
      </trkpt>
      <trkpt lat="49.28324" lon="-0.19364">
        <ele>6.5</ele>
        <time>2020-06-17T10:48:14Z</time>
      </trkpt>
      <trkpt lat="49.28327" lon="-0.19359">
        <ele>6.5</ele>
        <time>2020-06-17T10:48:15Z</time>
      </trkpt>
      <trkpt lat="49.2833" lon="-0.19355">
        <ele>6.4</ele>
        <time>2020-06-17T10:48:16Z</time>
      </trkpt>
      <trkpt lat="49.28331" lon="-0.19349">
        <ele>6.3</ele>
        <time>2020-06-17T10:48:17Z</time>
      </trkpt>
      <trkpt lat="49.28331" lon="-0.19342">
        <ele>6.1</ele>
        <time>2020-06-17T10:48:18Z</time>
      </trkpt>
      <trkpt lat="49.28326" lon="-0.19336">
        <ele>5.9</ele>
        <time>2020-06-17T10:48:19Z</time>
      </trkpt>
      <trkpt lat="49.2832" lon="-0.19332">
        <ele>5.8</ele>
        <time>2020-06-17T10:48:20Z</time>
      </trkpt>
      <trkpt lat="49.28314" lon="-0.19328">
        <ele>5.6</ele>
        <time>2020-06-17T10:48:21Z</time>
      </trkpt>
      <trkpt lat="49.28308" lon="-0.19323">
        <ele>5.4</ele>
        <time>2020-06-17T10:48:22Z</time>
      </trkpt>
      <trkpt lat="49.28301" lon="-0.19316">
        <ele>5.3</ele>
        <time>2020-06-17T10:48:23Z</time>
      </trkpt>
      <trkpt lat="49.28296" lon="-0.19311">
        <ele>5.2</ele>
        <time>2020-06-17T10:48:24Z</time>
      </trkpt>
      <trkpt lat="49.28291" lon="-0.19308">
        <ele>5.1</ele>
        <time>2020-06-17T10:48:25Z</time>
      </trkpt>
      <trkpt lat="49.28283" lon="-0.19305">
        <ele>5</ele>
        <time>2020-06-17T10:48:26Z</time>
      </trkpt>
      <trkpt lat="49.28278" lon="-0.193">
        <ele>4.9</ele>
        <time>2020-06-17T10:48:27Z</time>
      </trkpt>
      <trkpt lat="49.28273" lon="-0.19297">
        <ele>4.9</ele>
        <time>2020-06-17T10:48:28Z</time>
      </trkpt>
      <trkpt lat="49.28267" lon="-0.19293">
        <ele>4.8</ele>
        <time>2020-06-17T10:48:29Z</time>
      </trkpt>
      <trkpt lat="49.28263" lon="-0.19291">
        <ele>4.8</ele>
        <time>2020-06-17T10:48:30Z</time>
      </trkpt>
      <trkpt lat="49.28258" lon="-0.19288">
        <ele>4.8</ele>
        <time>2020-06-17T10:48:31Z</time>
      </trkpt>
      <trkpt lat="49.28253" lon="-0.19285">
        <ele>4.8</ele>
        <time>2020-06-17T10:48:32Z</time>
      </trkpt>
      <trkpt lat="49.28249" lon="-0.19281">
        <ele>4.8</ele>
        <time>2020-06-17T10:48:33Z</time>
      </trkpt>
      <trkpt lat="49.28248" lon="-0.1928">
        <ele>4.8</ele>
        <time>2020-06-17T10:48:34Z</time>
      </trkpt>
      <trkpt lat="49.28249" lon="-0.19279">
        <ele>4.8</ele>
        <time>2020-06-17T10:48:35Z</time>
      </trkpt>
      <trkpt lat="49.28249" lon="-0.19276">
        <ele>4.8</ele>
        <time>2020-06-17T10:48:36Z</time>
      </trkpt>
      <trkpt lat="49.2825" lon="-0.1927">
        <ele>4.8</ele>
        <time>2020-06-17T10:48:37Z</time>
      </trkpt>
      <trkpt lat="49.28251" lon="-0.19267">
        <ele>4.8</ele>
        <time>2020-06-17T10:48:38Z</time>
      </trkpt>
      <trkpt lat="49.28255" lon="-0.19258">
        <ele>4.8</ele>
        <time>2020-06-17T10:48:39Z</time>
      </trkpt>
      <trkpt lat="49.28258" lon="-0.19251">
        <ele>4.8</ele>
        <time>2020-06-17T10:48:40Z</time>
      </trkpt>
      <trkpt lat="49.28259" lon="-0.19245">
        <ele>4.8</ele>
        <time>2020-06-17T10:48:41Z</time>
      </trkpt>
      <trkpt lat="49.28261" lon="-0.19238">
        <ele>4.8</ele>
        <time>2020-06-17T10:48:42Z</time>
      </trkpt>
      <trkpt lat="49.28263" lon="-0.19231">
        <ele>4.7</ele>
        <time>2020-06-17T10:48:43Z</time>
      </trkpt>
      <trkpt lat="49.28264" lon="-0.19222">
        <ele>4.7</ele>
        <time>2020-06-17T10:48:44Z</time>
      </trkpt>
      <trkpt lat="49.28266" lon="-0.19216">
        <ele>4.7</ele>
        <time>2020-06-17T10:48:45Z</time>
      </trkpt>
      <trkpt lat="49.28268" lon="-0.19209">
        <ele>4.7</ele>
        <time>2020-06-17T10:48:46Z</time>
      </trkpt>
      <trkpt lat="49.2827" lon="-0.19202">
        <ele>4.7</ele>
        <time>2020-06-17T10:48:47Z</time>
      </trkpt>
      <trkpt lat="49.28274" lon="-0.19198">
        <ele>4.7</ele>
        <time>2020-06-17T10:48:48Z</time>
      </trkpt>
      <trkpt lat="49.28276" lon="-0.19192">
        <ele>4.6</ele>
        <time>2020-06-17T10:48:49Z</time>
      </trkpt>
      <trkpt lat="49.28278" lon="-0.19185">
        <ele>4.6</ele>
        <time>2020-06-17T10:48:50Z</time>
      </trkpt>
      <trkpt lat="49.28281" lon="-0.19179">
        <ele>4.6</ele>
        <time>2020-06-17T10:48:51Z</time>
      </trkpt>
      <trkpt lat="49.28283" lon="-0.19171">
        <ele>4.6</ele>
        <time>2020-06-17T10:48:52Z</time>
      </trkpt>
      <trkpt lat="49.28285" lon="-0.19164">
        <ele>4.6</ele>
        <time>2020-06-17T10:48:53Z</time>
      </trkpt>
      <trkpt lat="49.28287" lon="-0.19157">
        <ele>4.6</ele>
        <time>2020-06-17T10:48:54Z</time>
      </trkpt>
      <trkpt lat="49.28288" lon="-0.19149">
        <ele>4.6</ele>
        <time>2020-06-17T10:48:55Z</time>
      </trkpt>
      <trkpt lat="49.28291" lon="-0.1914">
        <ele>4.6</ele>
        <time>2020-06-17T10:48:56Z</time>
      </trkpt>
      <trkpt lat="49.28294" lon="-0.19131">
        <ele>4.5</ele>
        <time>2020-06-17T10:48:57Z</time>
      </trkpt>
      <trkpt lat="49.28296" lon="-0.19126">
        <ele>4.5</ele>
        <time>2020-06-17T10:48:58Z</time>
      </trkpt>
      <trkpt lat="49.28298" lon="-0.19119">
        <ele>4.5</ele>
        <time>2020-06-17T10:48:59Z</time>
      </trkpt>
      <trkpt lat="49.28301" lon="-0.19112">
        <ele>4.5</ele>
        <time>2020-06-17T10:49:00Z</time>
      </trkpt>
      <trkpt lat="49.28303" lon="-0.19105">
        <ele>4.5</ele>
        <time>2020-06-17T10:49:01Z</time>
      </trkpt>
      <trkpt lat="49.28306" lon="-0.19098">
        <ele>4.5</ele>
        <time>2020-06-17T10:49:02Z</time>
      </trkpt>
      <trkpt lat="49.28308" lon="-0.1909">
        <ele>4.5</ele>
        <time>2020-06-17T10:49:03Z</time>
      </trkpt>
      <trkpt lat="49.28311" lon="-0.19084">
        <ele>4.5</ele>
        <time>2020-06-17T10:49:04Z</time>
      </trkpt>
      <trkpt lat="49.28313" lon="-0.19076">
        <ele>4.5</ele>
        <time>2020-06-17T10:49:05Z</time>
      </trkpt>
      <trkpt lat="49.28315" lon="-0.19069">
        <ele>4.5</ele>
        <time>2020-06-17T10:49:06Z</time>
      </trkpt>
      <trkpt lat="49.28317" lon="-0.19064">
        <ele>4.5</ele>
        <time>2020-06-17T10:49:07Z</time>
      </trkpt>
      <trkpt lat="49.28318" lon="-0.19057">
        <ele>4.5</ele>
        <time>2020-06-17T10:49:08Z</time>
      </trkpt>
      <trkpt lat="49.28319" lon="-0.1905">
        <ele>4.6</ele>
        <time>2020-06-17T10:49:09Z</time>
      </trkpt>
      <trkpt lat="49.2832" lon="-0.19044">
        <ele>4.6</ele>
        <time>2020-06-17T10:49:10Z</time>
      </trkpt>
      <trkpt lat="49.28322" lon="-0.19037">
        <ele>4.5</ele>
        <time>2020-06-17T10:49:11Z</time>
      </trkpt>
      <trkpt lat="49.28322" lon="-0.1903">
        <ele>4.5</ele>
        <time>2020-06-17T10:49:12Z</time>
      </trkpt>
      <trkpt lat="49.28323" lon="-0.19021">
        <ele>4.5</ele>
        <time>2020-06-17T10:49:13Z</time>
      </trkpt>
      <trkpt lat="49.28324" lon="-0.19014">
        <ele>4.5</ele>
        <time>2020-06-17T10:49:14Z</time>
      </trkpt>
      <trkpt lat="49.28326" lon="-0.19008">
        <ele>4.4</ele>
        <time>2020-06-17T10:49:15Z</time>
      </trkpt>
      <trkpt lat="49.28326" lon="-0.18999">
        <ele>4.4</ele>
        <time>2020-06-17T10:49:16Z</time>
      </trkpt>
      <trkpt lat="49.28328" lon="-0.18992">
        <ele>4.4</ele>
        <time>2020-06-17T10:49:17Z</time>
      </trkpt>
      <trkpt lat="49.28329" lon="-0.18984">
        <ele>4.4</ele>
        <time>2020-06-17T10:49:18Z</time>
      </trkpt>
      <trkpt lat="49.28331" lon="-0.18976">
        <ele>4.4</ele>
        <time>2020-06-17T10:49:19Z</time>
      </trkpt>
      <trkpt lat="49.28333" lon="-0.18968">
        <ele>4.4</ele>
        <time>2020-06-17T10:49:20Z</time>
      </trkpt>
      <trkpt lat="49.28333" lon="-0.18959">
        <ele>4.4</ele>
        <time>2020-06-17T10:49:21Z</time>
      </trkpt>
      <trkpt lat="49.28335" lon="-0.1895">
        <ele>4.4</ele>
        <time>2020-06-17T10:49:22Z</time>
      </trkpt>
      <trkpt lat="49.28337" lon="-0.18941">
        <ele>4.5</ele>
        <time>2020-06-17T10:49:23Z</time>
      </trkpt>
      <trkpt lat="49.28338" lon="-0.18934">
        <ele>4.5</ele>
        <time>2020-06-17T10:49:24Z</time>
      </trkpt>
      <trkpt lat="49.28339" lon="-0.18925">
        <ele>4.5</ele>
        <time>2020-06-17T10:49:25Z</time>
      </trkpt>
      <trkpt lat="49.28341" lon="-0.18917">
        <ele>4.5</ele>
        <time>2020-06-17T10:49:26Z</time>
      </trkpt>
      <trkpt lat="49.28342" lon="-0.18909">
        <ele>4.5</ele>
        <time>2020-06-17T10:49:27Z</time>
      </trkpt>
      <trkpt lat="49.28343" lon="-0.189">
        <ele>4.5</ele>
        <time>2020-06-17T10:49:28Z</time>
      </trkpt>
      <trkpt lat="49.28345" lon="-0.18892">
        <ele>4.5</ele>
        <time>2020-06-17T10:49:29Z</time>
      </trkpt>
      <trkpt lat="49.28346" lon="-0.18883">
        <ele>4.5</ele>
        <time>2020-06-17T10:49:30Z</time>
      </trkpt>
      <trkpt lat="49.28348" lon="-0.18875">
        <ele>4.5</ele>
        <time>2020-06-17T10:49:31Z</time>
      </trkpt>
      <trkpt lat="49.2835" lon="-0.18867">
        <ele>4.5</ele>
        <time>2020-06-17T10:49:32Z</time>
      </trkpt>
      <trkpt lat="49.28352" lon="-0.1886">
        <ele>4.5</ele>
        <time>2020-06-17T10:49:33Z</time>
      </trkpt>
      <trkpt lat="49.28353" lon="-0.18852">
        <ele>4.5</ele>
        <time>2020-06-17T10:49:34Z</time>
      </trkpt>
      <trkpt lat="49.28355" lon="-0.18844">
        <ele>4.6</ele>
        <time>2020-06-17T10:49:35Z</time>
      </trkpt>
      <trkpt lat="49.28357" lon="-0.18837">
        <ele>4.6</ele>
        <time>2020-06-17T10:49:36Z</time>
      </trkpt>
      <trkpt lat="49.28359" lon="-0.18829">
        <ele>4.6</ele>
        <time>2020-06-17T10:49:37Z</time>
      </trkpt>
      <trkpt lat="49.28361" lon="-0.18821">
        <ele>4.6</ele>
        <time>2020-06-17T10:49:38Z</time>
      </trkpt>
      <trkpt lat="49.28364" lon="-0.18813">
        <ele>4.5</ele>
        <time>2020-06-17T10:49:39Z</time>
      </trkpt>
      <trkpt lat="49.28366" lon="-0.18805">
        <ele>4.5</ele>
        <time>2020-06-17T10:49:40Z</time>
      </trkpt>
      <trkpt lat="49.28369" lon="-0.18797">
        <ele>4.5</ele>
        <time>2020-06-17T10:49:41Z</time>
      </trkpt>
      <trkpt lat="49.28371" lon="-0.18789">
        <ele>4.5</ele>
        <time>2020-06-17T10:49:42Z</time>
      </trkpt>
      <trkpt lat="49.28374" lon="-0.18781">
        <ele>4.5</ele>
        <time>2020-06-17T10:49:43Z</time>
      </trkpt>
      <trkpt lat="49.28375" lon="-0.18772">
        <ele>4.5</ele>
        <time>2020-06-17T10:49:44Z</time>
      </trkpt>
      <trkpt lat="49.28377" lon="-0.18764">
        <ele>4.5</ele>
        <time>2020-06-17T10:49:45Z</time>
      </trkpt>
      <trkpt lat="49.28379" lon="-0.18756">
        <ele>4.5</ele>
        <time>2020-06-17T10:49:46Z</time>
      </trkpt>
      <trkpt lat="49.28381" lon="-0.18748">
        <ele>4.5</ele>
        <time>2020-06-17T10:49:47Z</time>
      </trkpt>
      <trkpt lat="49.28384" lon="-0.18742">
        <ele>4.5</ele>
        <time>2020-06-17T10:49:48Z</time>
      </trkpt>
      <trkpt lat="49.28386" lon="-0.18736">
        <ele>4.5</ele>
        <time>2020-06-17T10:49:49Z</time>
      </trkpt>
      <trkpt lat="49.28388" lon="-0.18729">
        <ele>4.5</ele>
        <time>2020-06-17T10:49:50Z</time>
      </trkpt>
      <trkpt lat="49.2839" lon="-0.18722">
        <ele>4.5</ele>
        <time>2020-06-17T10:49:51Z</time>
      </trkpt>
      <trkpt lat="49.28393" lon="-0.18715">
        <ele>4.5</ele>
        <time>2020-06-17T10:49:52Z</time>
      </trkpt>
      <trkpt lat="49.28396" lon="-0.18708">
        <ele>4.5</ele>
        <time>2020-06-17T10:49:53Z</time>
      </trkpt>
      <trkpt lat="49.28399" lon="-0.18702">
        <ele>4.5</ele>
        <time>2020-06-17T10:49:54Z</time>
      </trkpt>
      <trkpt lat="49.28401" lon="-0.18695">
        <ele>4.5</ele>
        <time>2020-06-17T10:49:55Z</time>
      </trkpt>
      <trkpt lat="49.28404" lon="-0.18688">
        <ele>4.5</ele>
        <time>2020-06-17T10:49:56Z</time>
      </trkpt>
      <trkpt lat="49.28407" lon="-0.1868">
        <ele>4.5</ele>
        <time>2020-06-17T10:49:57Z</time>
      </trkpt>
      <trkpt lat="49.28409" lon="-0.18671">
        <ele>4.5</ele>
        <time>2020-06-17T10:49:58Z</time>
      </trkpt>
      <trkpt lat="49.28412" lon="-0.18663">
        <ele>4.5</ele>
        <time>2020-06-17T10:49:59Z</time>
      </trkpt>
      <trkpt lat="49.28415" lon="-0.18654">
        <ele>4.5</ele>
        <time>2020-06-17T10:50:00Z</time>
      </trkpt>
      <trkpt lat="49.28418" lon="-0.18646">
        <ele>4.5</ele>
        <time>2020-06-17T10:50:01Z</time>
      </trkpt>
      <trkpt lat="49.2842" lon="-0.18638">
        <ele>4.5</ele>
        <time>2020-06-17T10:50:02Z</time>
      </trkpt>
      <trkpt lat="49.28424" lon="-0.1863">
        <ele>4.5</ele>
        <time>2020-06-17T10:50:03Z</time>
      </trkpt>
      <trkpt lat="49.28427" lon="-0.18623">
        <ele>4.5</ele>
        <time>2020-06-17T10:50:04Z</time>
      </trkpt>
      <trkpt lat="49.28431" lon="-0.18616">
        <ele>4.5</ele>
        <time>2020-06-17T10:50:05Z</time>
      </trkpt>
      <trkpt lat="49.28434" lon="-0.18608">
        <ele>4.6</ele>
        <time>2020-06-17T10:50:06Z</time>
      </trkpt>
      <trkpt lat="49.28436" lon="-0.18599">
        <ele>4.6</ele>
        <time>2020-06-17T10:50:07Z</time>
      </trkpt>
      <trkpt lat="49.28439" lon="-0.18591">
        <ele>4.6</ele>
        <time>2020-06-17T10:50:08Z</time>
      </trkpt>
      <trkpt lat="49.28441" lon="-0.18583">
        <ele>4.7</ele>
        <time>2020-06-17T10:50:09Z</time>
      </trkpt>
      <trkpt lat="49.28444" lon="-0.18575">
        <ele>4.7</ele>
        <time>2020-06-17T10:50:10Z</time>
      </trkpt>
      <trkpt lat="49.28446" lon="-0.18566">
        <ele>4.7</ele>
        <time>2020-06-17T10:50:11Z</time>
      </trkpt>
      <trkpt lat="49.2845" lon="-0.18558">
        <ele>4.7</ele>
        <time>2020-06-17T10:50:12Z</time>
      </trkpt>
      <trkpt lat="49.28452" lon="-0.18548">
        <ele>4.7</ele>
        <time>2020-06-17T10:50:13Z</time>
      </trkpt>
      <trkpt lat="49.28455" lon="-0.18537">
        <ele>4.7</ele>
        <time>2020-06-17T10:50:14Z</time>
      </trkpt>
      <trkpt lat="49.28457" lon="-0.18527">
        <ele>4.6</ele>
        <time>2020-06-17T10:50:15Z</time>
      </trkpt>
      <trkpt lat="49.28459" lon="-0.18519">
        <ele>4.6</ele>
        <time>2020-06-17T10:50:16Z</time>
      </trkpt>
      <trkpt lat="49.28461" lon="-0.18509">
        <ele>4.6</ele>
        <time>2020-06-17T10:50:17Z</time>
      </trkpt>
      <trkpt lat="49.28463" lon="-0.18498">
        <ele>4.6</ele>
        <time>2020-06-17T10:50:18Z</time>
      </trkpt>
      <trkpt lat="49.28465" lon="-0.18489">
        <ele>4.6</ele>
        <time>2020-06-17T10:50:19Z</time>
      </trkpt>
      <trkpt lat="49.28466" lon="-0.18478">
        <ele>4.7</ele>
        <time>2020-06-17T10:50:20Z</time>
      </trkpt>
      <trkpt lat="49.28468" lon="-0.18467">
        <ele>4.7</ele>
        <time>2020-06-17T10:50:21Z</time>
      </trkpt>
      <trkpt lat="49.2847" lon="-0.18456">
        <ele>4.7</ele>
        <time>2020-06-17T10:50:22Z</time>
      </trkpt>
      <trkpt lat="49.28471" lon="-0.18447">
        <ele>4.7</ele>
        <time>2020-06-17T10:50:23Z</time>
      </trkpt>
      <trkpt lat="49.28473" lon="-0.18437">
        <ele>4.7</ele>
        <time>2020-06-17T10:50:24Z</time>
      </trkpt>
      <trkpt lat="49.28474" lon="-0.18427">
        <ele>4.7</ele>
        <time>2020-06-17T10:50:25Z</time>
      </trkpt>
      <trkpt lat="49.28474" lon="-0.18417">
        <ele>4.7</ele>
        <time>2020-06-17T10:50:26Z</time>
      </trkpt>
      <trkpt lat="49.28475" lon="-0.18407">
        <ele>4.7</ele>
        <time>2020-06-17T10:50:27Z</time>
      </trkpt>
      <trkpt lat="49.28474" lon="-0.18396">
        <ele>4.7</ele>
        <time>2020-06-17T10:50:28Z</time>
      </trkpt>
      <trkpt lat="49.28475" lon="-0.18386">
        <ele>4.7</ele>
        <time>2020-06-17T10:50:29Z</time>
      </trkpt>
      <trkpt lat="49.28475" lon="-0.18376">
        <ele>4.7</ele>
        <time>2020-06-17T10:50:30Z</time>
      </trkpt>
      <trkpt lat="49.28475" lon="-0.18365">
        <ele>4.7</ele>
        <time>2020-06-17T10:50:31Z</time>
      </trkpt>
      <trkpt lat="49.28475" lon="-0.18355">
        <ele>4.7</ele>
        <time>2020-06-17T10:50:32Z</time>
      </trkpt>
      <trkpt lat="49.28475" lon="-0.18344">
        <ele>4.7</ele>
        <time>2020-06-17T10:50:33Z</time>
      </trkpt>
      <trkpt lat="49.28474" lon="-0.18334">
        <ele>4.7</ele>
        <time>2020-06-17T10:50:34Z</time>
      </trkpt>
      <trkpt lat="49.28474" lon="-0.18323">
        <ele>4.8</ele>
        <time>2020-06-17T10:50:35Z</time>
      </trkpt>
      <trkpt lat="49.28473" lon="-0.18313">
        <ele>4.8</ele>
        <time>2020-06-17T10:50:36Z</time>
      </trkpt>
      <trkpt lat="49.28472" lon="-0.18303">
        <ele>4.8</ele>
        <time>2020-06-17T10:50:37Z</time>
      </trkpt>
      <trkpt lat="49.28472" lon="-0.18293">
        <ele>4.9</ele>
        <time>2020-06-17T10:50:38Z</time>
      </trkpt>
      <trkpt lat="49.28471" lon="-0.18283">
        <ele>4.9</ele>
        <time>2020-06-17T10:50:39Z</time>
      </trkpt>
      <trkpt lat="49.28471" lon="-0.18273">
        <ele>4.9</ele>
        <time>2020-06-17T10:50:40Z</time>
      </trkpt>
      <trkpt lat="49.2847" lon="-0.18263">
        <ele>5</ele>
        <time>2020-06-17T10:50:41Z</time>
      </trkpt>
      <trkpt lat="49.2847" lon="-0.18253">
        <ele>5</ele>
        <time>2020-06-17T10:50:42Z</time>
      </trkpt>
      <trkpt lat="49.28469" lon="-0.18244">
        <ele>5</ele>
        <time>2020-06-17T10:50:43Z</time>
      </trkpt>
      <trkpt lat="49.28469" lon="-0.18234">
        <ele>5</ele>
        <time>2020-06-17T10:50:44Z</time>
      </trkpt>
      <trkpt lat="49.28469" lon="-0.18223">
        <ele>5</ele>
        <time>2020-06-17T10:50:45Z</time>
      </trkpt>
      <trkpt lat="49.28468" lon="-0.18213">
        <ele>4.9</ele>
        <time>2020-06-17T10:50:46Z</time>
      </trkpt>
      <trkpt lat="49.28468" lon="-0.18203">
        <ele>4.9</ele>
        <time>2020-06-17T10:50:47Z</time>
      </trkpt>
      <trkpt lat="49.28467" lon="-0.18193">
        <ele>4.9</ele>
        <time>2020-06-17T10:50:48Z</time>
      </trkpt>
      <trkpt lat="49.28466" lon="-0.18183">
        <ele>4.8</ele>
        <time>2020-06-17T10:50:49Z</time>
      </trkpt>
      <trkpt lat="49.28464" lon="-0.18172">
        <ele>4.8</ele>
        <time>2020-06-17T10:50:50Z</time>
      </trkpt>
      <trkpt lat="49.28464" lon="-0.18161">
        <ele>4.8</ele>
        <time>2020-06-17T10:50:51Z</time>
      </trkpt>
      <trkpt lat="49.28463" lon="-0.1815">
        <ele>4.7</ele>
        <time>2020-06-17T10:50:52Z</time>
      </trkpt>
      <trkpt lat="49.28462" lon="-0.18139">
        <ele>4.7</ele>
        <time>2020-06-17T10:50:53Z</time>
      </trkpt>
      <trkpt lat="49.28461" lon="-0.18128">
        <ele>4.7</ele>
        <time>2020-06-17T10:50:54Z</time>
      </trkpt>
      <trkpt lat="49.28461" lon="-0.18117">
        <ele>4.7</ele>
        <time>2020-06-17T10:50:55Z</time>
      </trkpt>
      <trkpt lat="49.2846" lon="-0.18106">
        <ele>4.7</ele>
        <time>2020-06-17T10:50:56Z</time>
      </trkpt>
      <trkpt lat="49.28459" lon="-0.18096">
        <ele>4.7</ele>
        <time>2020-06-17T10:50:57Z</time>
      </trkpt>
      <trkpt lat="49.28458" lon="-0.18087">
        <ele>4.7</ele>
        <time>2020-06-17T10:50:58Z</time>
      </trkpt>
      <trkpt lat="49.28458" lon="-0.18076">
        <ele>4.7</ele>
        <time>2020-06-17T10:50:59Z</time>
      </trkpt>
      <trkpt lat="49.28457" lon="-0.18065">
        <ele>4.7</ele>
        <time>2020-06-17T10:51:00Z</time>
      </trkpt>
      <trkpt lat="49.28456" lon="-0.18054">
        <ele>4.6</ele>
        <time>2020-06-17T10:51:01Z</time>
      </trkpt>
      <trkpt lat="49.28456" lon="-0.18043">
        <ele>4.6</ele>
        <time>2020-06-17T10:51:02Z</time>
      </trkpt>
      <trkpt lat="49.28456" lon="-0.18032">
        <ele>4.6</ele>
        <time>2020-06-17T10:51:03Z</time>
      </trkpt>
      <trkpt lat="49.28455" lon="-0.18021">
        <ele>4.6</ele>
        <time>2020-06-17T10:51:04Z</time>
      </trkpt>
      <trkpt lat="49.28454" lon="-0.18011">
        <ele>4.6</ele>
        <time>2020-06-17T10:51:05Z</time>
      </trkpt>
      <trkpt lat="49.28453" lon="-0.18001">
        <ele>4.6</ele>
        <time>2020-06-17T10:51:06Z</time>
      </trkpt>
      <trkpt lat="49.28452" lon="-0.1799">
        <ele>4.6</ele>
        <time>2020-06-17T10:51:07Z</time>
      </trkpt>
      <trkpt lat="49.28452" lon="-0.1798">
        <ele>4.5</ele>
        <time>2020-06-17T10:51:08Z</time>
      </trkpt>
      <trkpt lat="49.28452" lon="-0.17969">
        <ele>4.5</ele>
        <time>2020-06-17T10:51:09Z</time>
      </trkpt>
      <trkpt lat="49.28452" lon="-0.17958">
        <ele>4.5</ele>
        <time>2020-06-17T10:51:10Z</time>
      </trkpt>
      <trkpt lat="49.28452" lon="-0.17947">
        <ele>4.5</ele>
        <time>2020-06-17T10:51:11Z</time>
      </trkpt>
      <trkpt lat="49.28453" lon="-0.17936">
        <ele>4.5</ele>
        <time>2020-06-17T10:51:12Z</time>
      </trkpt>
      <trkpt lat="49.28453" lon="-0.17926">
        <ele>4.5</ele>
        <time>2020-06-17T10:51:13Z</time>
      </trkpt>
      <trkpt lat="49.28454" lon="-0.17915">
        <ele>4.5</ele>
        <time>2020-06-17T10:51:14Z</time>
      </trkpt>
      <trkpt lat="49.28455" lon="-0.17905">
        <ele>4.5</ele>
        <time>2020-06-17T10:51:15Z</time>
      </trkpt>
      <trkpt lat="49.28457" lon="-0.17895">
        <ele>4.5</ele>
        <time>2020-06-17T10:51:16Z</time>
      </trkpt>
      <trkpt lat="49.28459" lon="-0.17885">
        <ele>4.5</ele>
        <time>2020-06-17T10:51:17Z</time>
      </trkpt>
      <trkpt lat="49.28459" lon="-0.17876">
        <ele>4.6</ele>
        <time>2020-06-17T10:51:18Z</time>
      </trkpt>
      <trkpt lat="49.28461" lon="-0.17867">
        <ele>4.6</ele>
        <time>2020-06-17T10:51:19Z</time>
      </trkpt>
      <trkpt lat="49.28462" lon="-0.17858">
        <ele>4.6</ele>
        <time>2020-06-17T10:51:20Z</time>
      </trkpt>
      <trkpt lat="49.28463" lon="-0.1785">
        <ele>4.6</ele>
        <time>2020-06-17T10:51:21Z</time>
      </trkpt>
      <trkpt lat="49.28464" lon="-0.17842">
        <ele>4.7</ele>
        <time>2020-06-17T10:51:22Z</time>
      </trkpt>
      <trkpt lat="49.28466" lon="-0.17835">
        <ele>4.7</ele>
        <time>2020-06-17T10:51:23Z</time>
      </trkpt>
      <trkpt lat="49.28467" lon="-0.17828">
        <ele>4.7</ele>
        <time>2020-06-17T10:51:24Z</time>
      </trkpt>
      <trkpt lat="49.28468" lon="-0.1782">
        <ele>4.7</ele>
        <time>2020-06-17T10:51:25Z</time>
      </trkpt>
      <trkpt lat="49.28468" lon="-0.17813">
        <ele>4.7</ele>
        <time>2020-06-17T10:51:26Z</time>
      </trkpt>
      <trkpt lat="49.28465" lon="-0.17807">
        <ele>4.7</ele>
        <time>2020-06-17T10:51:27Z</time>
      </trkpt>
      <trkpt lat="49.28465" lon="-0.178">
        <ele>4.7</ele>
        <time>2020-06-17T10:51:28Z</time>
      </trkpt>
      <trkpt lat="49.28466" lon="-0.17793">
        <ele>4.7</ele>
        <time>2020-06-17T10:51:29Z</time>
      </trkpt>
      <trkpt lat="49.28468" lon="-0.17787">
        <ele>4.8</ele>
        <time>2020-06-17T10:51:30Z</time>
      </trkpt>
      <trkpt lat="49.28471" lon="-0.17784">
        <ele>4.8</ele>
        <time>2020-06-17T10:51:31Z</time>
      </trkpt>
      <trkpt lat="49.28474" lon="-0.17779">
        <ele>4.8</ele>
        <time>2020-06-17T10:51:32Z</time>
      </trkpt>
      <trkpt lat="49.28476" lon="-0.17773">
        <ele>4.8</ele>
        <time>2020-06-17T10:51:33Z</time>
      </trkpt>
      <trkpt lat="49.28477" lon="-0.17766">
        <ele>4.8</ele>
        <time>2020-06-17T10:51:34Z</time>
      </trkpt>
      <trkpt lat="49.28477" lon="-0.17759">
        <ele>4.8</ele>
        <time>2020-06-17T10:51:35Z</time>
      </trkpt>
      <trkpt lat="49.28478" lon="-0.17752">
        <ele>4.8</ele>
        <time>2020-06-17T10:51:36Z</time>
      </trkpt>
      <trkpt lat="49.2848" lon="-0.17745">
        <ele>4.8</ele>
        <time>2020-06-17T10:51:37Z</time>
      </trkpt>
      <trkpt lat="49.28482" lon="-0.17737">
        <ele>4.7</ele>
        <time>2020-06-17T10:51:38Z</time>
      </trkpt>
      <trkpt lat="49.28483" lon="-0.17729">
        <ele>4.7</ele>
        <time>2020-06-17T10:51:39Z</time>
      </trkpt>
      <trkpt lat="49.28484" lon="-0.17721">
        <ele>4.7</ele>
        <time>2020-06-17T10:51:40Z</time>
      </trkpt>
      <trkpt lat="49.28485" lon="-0.17713">
        <ele>4.7</ele>
        <time>2020-06-17T10:51:41Z</time>
      </trkpt>
      <trkpt lat="49.28486" lon="-0.17705">
        <ele>4.7</ele>
        <time>2020-06-17T10:51:42Z</time>
      </trkpt>
      <trkpt lat="49.28486" lon="-0.17696">
        <ele>4.7</ele>
        <time>2020-06-17T10:51:43Z</time>
      </trkpt>
      <trkpt lat="49.28487" lon="-0.17687">
        <ele>4.7</ele>
        <time>2020-06-17T10:51:44Z</time>
      </trkpt>
      <trkpt lat="49.28487" lon="-0.17678">
        <ele>4.7</ele>
        <time>2020-06-17T10:51:45Z</time>
      </trkpt>
      <trkpt lat="49.28489" lon="-0.17669">
        <ele>4.7</ele>
        <time>2020-06-17T10:51:46Z</time>
      </trkpt>
      <trkpt lat="49.2849" lon="-0.17661">
        <ele>4.7</ele>
        <time>2020-06-17T10:51:47Z</time>
      </trkpt>
      <trkpt lat="49.28491" lon="-0.17652">
        <ele>4.7</ele>
        <time>2020-06-17T10:51:48Z</time>
      </trkpt>
      <trkpt lat="49.28492" lon="-0.17644">
        <ele>4.7</ele>
        <time>2020-06-17T10:51:49Z</time>
      </trkpt>
      <trkpt lat="49.28492" lon="-0.17635">
        <ele>4.7</ele>
        <time>2020-06-17T10:51:50Z</time>
      </trkpt>
      <trkpt lat="49.28493" lon="-0.17626">
        <ele>4.6</ele>
        <time>2020-06-17T10:51:51Z</time>
      </trkpt>
      <trkpt lat="49.28493" lon="-0.17616">
        <ele>4.6</ele>
        <time>2020-06-17T10:51:52Z</time>
      </trkpt>
      <trkpt lat="49.28492" lon="-0.17607">
        <ele>4.7</ele>
        <time>2020-06-17T10:51:53Z</time>
      </trkpt>
      <trkpt lat="49.28492" lon="-0.17598">
        <ele>4.7</ele>
        <time>2020-06-17T10:51:54Z</time>
      </trkpt>
      <trkpt lat="49.28492" lon="-0.17588">
        <ele>4.7</ele>
        <time>2020-06-17T10:51:55Z</time>
      </trkpt>
      <trkpt lat="49.28492" lon="-0.17579">
        <ele>4.6</ele>
        <time>2020-06-17T10:51:56Z</time>
      </trkpt>
      <trkpt lat="49.28491" lon="-0.17569">
        <ele>4.6</ele>
        <time>2020-06-17T10:51:57Z</time>
      </trkpt>
      <trkpt lat="49.2849" lon="-0.1756">
        <ele>4.6</ele>
        <time>2020-06-17T10:51:58Z</time>
      </trkpt>
      <trkpt lat="49.28488" lon="-0.1755">
        <ele>4.5</ele>
        <time>2020-06-17T10:51:59Z</time>
      </trkpt>
      <trkpt lat="49.28487" lon="-0.1754">
        <ele>4.5</ele>
        <time>2020-06-17T10:52:00Z</time>
      </trkpt>
      <trkpt lat="49.28486" lon="-0.1753">
        <ele>4.4</ele>
        <time>2020-06-17T10:52:01Z</time>
      </trkpt>
      <trkpt lat="49.28484" lon="-0.1752">
        <ele>4.4</ele>
        <time>2020-06-17T10:52:02Z</time>
      </trkpt>
      <trkpt lat="49.28483" lon="-0.1751">
        <ele>4.3</ele>
        <time>2020-06-17T10:52:03Z</time>
      </trkpt>
      <trkpt lat="49.28482" lon="-0.175">
        <ele>4.3</ele>
        <time>2020-06-17T10:52:04Z</time>
      </trkpt>
      <trkpt lat="49.2848" lon="-0.1749">
        <ele>4.3</ele>
        <time>2020-06-17T10:52:05Z</time>
      </trkpt>
      <trkpt lat="49.28479" lon="-0.1748">
        <ele>4.3</ele>
        <time>2020-06-17T10:52:06Z</time>
      </trkpt>
      <trkpt lat="49.28478" lon="-0.17469">
        <ele>4.3</ele>
        <time>2020-06-17T10:52:07Z</time>
      </trkpt>
      <trkpt lat="49.28476" lon="-0.17459">
        <ele>4.3</ele>
        <time>2020-06-17T10:52:08Z</time>
      </trkpt>
      <trkpt lat="49.28475" lon="-0.17449">
        <ele>4.3</ele>
        <time>2020-06-17T10:52:09Z</time>
      </trkpt>
      <trkpt lat="49.28474" lon="-0.17438">
        <ele>4.3</ele>
        <time>2020-06-17T10:52:10Z</time>
      </trkpt>
      <trkpt lat="49.28473" lon="-0.17428">
        <ele>4.3</ele>
        <time>2020-06-17T10:52:11Z</time>
      </trkpt>
      <trkpt lat="49.28472" lon="-0.17417">
        <ele>4.3</ele>
        <time>2020-06-17T10:52:12Z</time>
      </trkpt>
      <trkpt lat="49.28471" lon="-0.17407">
        <ele>4.3</ele>
        <time>2020-06-17T10:52:13Z</time>
      </trkpt>
      <trkpt lat="49.2847" lon="-0.17396">
        <ele>4.3</ele>
        <time>2020-06-17T10:52:14Z</time>
      </trkpt>
      <trkpt lat="49.28468" lon="-0.17385">
        <ele>4.4</ele>
        <time>2020-06-17T10:52:15Z</time>
      </trkpt>
      <trkpt lat="49.28467" lon="-0.17375">
        <ele>4.4</ele>
        <time>2020-06-17T10:52:16Z</time>
      </trkpt>
      <trkpt lat="49.28465" lon="-0.17364">
        <ele>4.3</ele>
        <time>2020-06-17T10:52:17Z</time>
      </trkpt>
      <trkpt lat="49.28464" lon="-0.17354">
        <ele>4.3</ele>
        <time>2020-06-17T10:52:18Z</time>
      </trkpt>
      <trkpt lat="49.28462" lon="-0.17343">
        <ele>4.3</ele>
        <time>2020-06-17T10:52:19Z</time>
      </trkpt>
      <trkpt lat="49.28461" lon="-0.17332">
        <ele>4.2</ele>
        <time>2020-06-17T10:52:20Z</time>
      </trkpt>
      <trkpt lat="49.28459" lon="-0.17321">
        <ele>4.2</ele>
        <time>2020-06-17T10:52:21Z</time>
      </trkpt>
      <trkpt lat="49.28458" lon="-0.1731">
        <ele>4.2</ele>
        <time>2020-06-17T10:52:22Z</time>
      </trkpt>
      <trkpt lat="49.28457" lon="-0.17299">
        <ele>4.1</ele>
        <time>2020-06-17T10:52:23Z</time>
      </trkpt>
      <trkpt lat="49.28456" lon="-0.17288">
        <ele>4.1</ele>
        <time>2020-06-17T10:52:24Z</time>
      </trkpt>
      <trkpt lat="49.28454" lon="-0.17277">
        <ele>4.1</ele>
        <time>2020-06-17T10:52:25Z</time>
      </trkpt>
      <trkpt lat="49.28453" lon="-0.17266">
        <ele>4.1</ele>
        <time>2020-06-17T10:52:26Z</time>
      </trkpt>
      <trkpt lat="49.28451" lon="-0.17255">
        <ele>4.1</ele>
        <time>2020-06-17T10:52:27Z</time>
      </trkpt>
      <trkpt lat="49.2845" lon="-0.17244">
        <ele>4.1</ele>
        <time>2020-06-17T10:52:28Z</time>
      </trkpt>
      <trkpt lat="49.28449" lon="-0.17234">
        <ele>4.1</ele>
        <time>2020-06-17T10:52:29Z</time>
      </trkpt>
      <trkpt lat="49.28448" lon="-0.17223">
        <ele>4.1</ele>
        <time>2020-06-17T10:52:30Z</time>
      </trkpt>
      <trkpt lat="49.28446" lon="-0.17211">
        <ele>4.1</ele>
        <time>2020-06-17T10:52:31Z</time>
      </trkpt>
      <trkpt lat="49.28445" lon="-0.172">
        <ele>4.1</ele>
        <time>2020-06-17T10:52:32Z</time>
      </trkpt>
      <trkpt lat="49.28444" lon="-0.17189">
        <ele>4.1</ele>
        <time>2020-06-17T10:52:33Z</time>
      </trkpt>
      <trkpt lat="49.28442" lon="-0.17178">
        <ele>4.1</ele>
        <time>2020-06-17T10:52:34Z</time>
      </trkpt>
      <trkpt lat="49.28441" lon="-0.17167">
        <ele>4.1</ele>
        <time>2020-06-17T10:52:35Z</time>
      </trkpt>
      <trkpt lat="49.2844" lon="-0.17157">
        <ele>4.1</ele>
        <time>2020-06-17T10:52:36Z</time>
      </trkpt>
      <trkpt lat="49.28438" lon="-0.17146">
        <ele>4.1</ele>
        <time>2020-06-17T10:52:37Z</time>
      </trkpt>
      <trkpt lat="49.28437" lon="-0.17137">
        <ele>4.1</ele>
        <time>2020-06-17T10:52:38Z</time>
      </trkpt>
      <trkpt lat="49.28436" lon="-0.17127">
        <ele>4.2</ele>
        <time>2020-06-17T10:52:39Z</time>
      </trkpt>
      <trkpt lat="49.28435" lon="-0.17117">
        <ele>4.3</ele>
        <time>2020-06-17T10:52:40Z</time>
      </trkpt>
      <trkpt lat="49.28435" lon="-0.17108">
        <ele>4.3</ele>
        <time>2020-06-17T10:52:41Z</time>
      </trkpt>
      <trkpt lat="49.28434" lon="-0.17098">
        <ele>4.4</ele>
        <time>2020-06-17T10:52:42Z</time>
      </trkpt>
      <trkpt lat="49.28433" lon="-0.17089">
        <ele>4.4</ele>
        <time>2020-06-17T10:52:43Z</time>
      </trkpt>
      <trkpt lat="49.28431" lon="-0.17079">
        <ele>4.4</ele>
        <time>2020-06-17T10:52:44Z</time>
      </trkpt>
      <trkpt lat="49.28431" lon="-0.1707">
        <ele>4.4</ele>
        <time>2020-06-17T10:52:45Z</time>
      </trkpt>
      <trkpt lat="49.2843" lon="-0.17061">
        <ele>4.4</ele>
        <time>2020-06-17T10:52:46Z</time>
      </trkpt>
      <trkpt lat="49.28428" lon="-0.17051">
        <ele>4.4</ele>
        <time>2020-06-17T10:52:47Z</time>
      </trkpt>
      <trkpt lat="49.28427" lon="-0.17041">
        <ele>4.4</ele>
        <time>2020-06-17T10:52:48Z</time>
      </trkpt>
      <trkpt lat="49.28426" lon="-0.17032">
        <ele>4.4</ele>
        <time>2020-06-17T10:52:49Z</time>
      </trkpt>
      <trkpt lat="49.28425" lon="-0.17023">
        <ele>4.4</ele>
        <time>2020-06-17T10:52:50Z</time>
      </trkpt>
      <trkpt lat="49.28425" lon="-0.17014">
        <ele>4.4</ele>
        <time>2020-06-17T10:52:51Z</time>
      </trkpt>
      <trkpt lat="49.28425" lon="-0.17005">
        <ele>4.4</ele>
        <time>2020-06-17T10:52:52Z</time>
      </trkpt>
      <trkpt lat="49.28426" lon="-0.16996">
        <ele>4.4</ele>
        <time>2020-06-17T10:52:53Z</time>
      </trkpt>
      <trkpt lat="49.28425" lon="-0.16987">
        <ele>4.5</ele>
        <time>2020-06-17T10:52:54Z</time>
      </trkpt>
      <trkpt lat="49.28425" lon="-0.16979">
        <ele>4.5</ele>
        <time>2020-06-17T10:52:55Z</time>
      </trkpt>
      <trkpt lat="49.28426" lon="-0.16971">
        <ele>4.6</ele>
        <time>2020-06-17T10:52:56Z</time>
      </trkpt>
      <trkpt lat="49.28427" lon="-0.16963">
        <ele>4.6</ele>
        <time>2020-06-17T10:52:57Z</time>
      </trkpt>
      <trkpt lat="49.28427" lon="-0.16956">
        <ele>4.6</ele>
        <time>2020-06-17T10:52:58Z</time>
      </trkpt>
      <trkpt lat="49.28428" lon="-0.16949">
        <ele>4.6</ele>
        <time>2020-06-17T10:52:59Z</time>
      </trkpt>
      <trkpt lat="49.28429" lon="-0.16942">
        <ele>4.6</ele>
        <time>2020-06-17T10:53:00Z</time>
      </trkpt>
      <trkpt lat="49.28429" lon="-0.16934">
        <ele>4.6</ele>
        <time>2020-06-17T10:53:01Z</time>
      </trkpt>
      <trkpt lat="49.2843" lon="-0.16927">
        <ele>4.6</ele>
        <time>2020-06-17T10:53:02Z</time>
      </trkpt>
      <trkpt lat="49.28431" lon="-0.16919">
        <ele>4.6</ele>
        <time>2020-06-17T10:53:03Z</time>
      </trkpt>
      <trkpt lat="49.28433" lon="-0.16912">
        <ele>4.5</ele>
        <time>2020-06-17T10:53:04Z</time>
      </trkpt>
      <trkpt lat="49.28434" lon="-0.16904">
        <ele>4.5</ele>
        <time>2020-06-17T10:53:05Z</time>
      </trkpt>
      <trkpt lat="49.28436" lon="-0.16895">
        <ele>4.5</ele>
        <time>2020-06-17T10:53:06Z</time>
      </trkpt>
      <trkpt lat="49.28437" lon="-0.16886">
        <ele>4.5</ele>
        <time>2020-06-17T10:53:07Z</time>
      </trkpt>
      <trkpt lat="49.28438" lon="-0.16877">
        <ele>4.5</ele>
        <time>2020-06-17T10:53:08Z</time>
      </trkpt>
      <trkpt lat="49.2844" lon="-0.16869">
        <ele>4.5</ele>
        <time>2020-06-17T10:53:09Z</time>
      </trkpt>
      <trkpt lat="49.2844" lon="-0.16862">
        <ele>4.5</ele>
        <time>2020-06-17T10:53:10Z</time>
      </trkpt>
      <trkpt lat="49.2844" lon="-0.16854">
        <ele>4.5</ele>
        <time>2020-06-17T10:53:11Z</time>
      </trkpt>
      <trkpt lat="49.28439" lon="-0.16846">
        <ele>4.5</ele>
        <time>2020-06-17T10:53:12Z</time>
      </trkpt>
      <trkpt lat="49.28441" lon="-0.16838">
        <ele>4.5</ele>
        <time>2020-06-17T10:53:13Z</time>
      </trkpt>
      <trkpt lat="49.28441" lon="-0.16829">
        <ele>4.5</ele>
        <time>2020-06-17T10:53:14Z</time>
      </trkpt>
      <trkpt lat="49.28442" lon="-0.1682">
        <ele>4.5</ele>
        <time>2020-06-17T10:53:15Z</time>
      </trkpt>
      <trkpt lat="49.28443" lon="-0.16811">
        <ele>4.5</ele>
        <time>2020-06-17T10:53:16Z</time>
      </trkpt>
      <trkpt lat="49.28443" lon="-0.16803">
        <ele>4.5</ele>
        <time>2020-06-17T10:53:17Z</time>
      </trkpt>
      <trkpt lat="49.28444" lon="-0.16794">
        <ele>4.4</ele>
        <time>2020-06-17T10:53:18Z</time>
      </trkpt>
      <trkpt lat="49.28446" lon="-0.16785">
        <ele>4.5</ele>
        <time>2020-06-17T10:53:19Z</time>
      </trkpt>
      <trkpt lat="49.28447" lon="-0.16776">
        <ele>4.5</ele>
        <time>2020-06-17T10:53:20Z</time>
      </trkpt>
      <trkpt lat="49.28448" lon="-0.16767">
        <ele>4.5</ele>
        <time>2020-06-17T10:53:21Z</time>
      </trkpt>
      <trkpt lat="49.28449" lon="-0.16759">
        <ele>4.6</ele>
        <time>2020-06-17T10:53:22Z</time>
      </trkpt>
      <trkpt lat="49.28449" lon="-0.16751">
        <ele>4.6</ele>
        <time>2020-06-17T10:53:23Z</time>
      </trkpt>
      <trkpt lat="49.28449" lon="-0.16743">
        <ele>4.7</ele>
        <time>2020-06-17T10:53:24Z</time>
      </trkpt>
      <trkpt lat="49.2845" lon="-0.16734">
        <ele>4.7</ele>
        <time>2020-06-17T10:53:25Z</time>
      </trkpt>
      <trkpt lat="49.28449" lon="-0.16726">
        <ele>4.8</ele>
        <time>2020-06-17T10:53:26Z</time>
      </trkpt>
      <trkpt lat="49.28448" lon="-0.16718">
        <ele>4.9</ele>
        <time>2020-06-17T10:53:27Z</time>
      </trkpt>
      <trkpt lat="49.28447" lon="-0.16709">
        <ele>5</ele>
        <time>2020-06-17T10:53:28Z</time>
      </trkpt>
      <trkpt lat="49.28447" lon="-0.16701">
        <ele>5</ele>
        <time>2020-06-17T10:53:29Z</time>
      </trkpt>
      <trkpt lat="49.28447" lon="-0.16693">
        <ele>5.1</ele>
        <time>2020-06-17T10:53:30Z</time>
      </trkpt>
      <trkpt lat="49.28445" lon="-0.16688">
        <ele>5.2</ele>
        <time>2020-06-17T10:53:31Z</time>
      </trkpt>
      <trkpt lat="49.28443" lon="-0.16683">
        <ele>5.2</ele>
        <time>2020-06-17T10:53:32Z</time>
      </trkpt>
      <trkpt lat="49.28439" lon="-0.16685">
        <ele>5.2</ele>
        <time>2020-06-17T10:53:33Z</time>
      </trkpt>
      <trkpt lat="49.28435" lon="-0.16685">
        <ele>5.1</ele>
        <time>2020-06-17T10:53:34Z</time>
      </trkpt>
      <trkpt lat="49.28431" lon="-0.16685">
        <ele>5.1</ele>
        <time>2020-06-17T10:53:35Z</time>
      </trkpt>
      <trkpt lat="49.28427" lon="-0.16685">
        <ele>5.1</ele>
        <time>2020-06-17T10:53:36Z</time>
      </trkpt>
      <trkpt lat="49.28423" lon="-0.16683">
        <ele>5.1</ele>
        <time>2020-06-17T10:53:37Z</time>
      </trkpt>
      <trkpt lat="49.28419" lon="-0.16681">
        <ele>5.2</ele>
        <time>2020-06-17T10:53:38Z</time>
      </trkpt>
      <trkpt lat="49.28415" lon="-0.1668">
        <ele>5.2</ele>
        <time>2020-06-17T10:53:39Z</time>
      </trkpt>
      <trkpt lat="49.2841" lon="-0.1668">
        <ele>5.3</ele>
        <time>2020-06-17T10:53:40Z</time>
      </trkpt>
      <trkpt lat="49.28406" lon="-0.1668">
        <ele>5.4</ele>
        <time>2020-06-17T10:53:41Z</time>
      </trkpt>
      <trkpt lat="49.28401" lon="-0.16681">
        <ele>5.5</ele>
        <time>2020-06-17T10:53:42Z</time>
      </trkpt>
      <trkpt lat="49.28396" lon="-0.16681">
        <ele>5.7</ele>
        <time>2020-06-17T10:53:43Z</time>
      </trkpt>
      <trkpt lat="49.28391" lon="-0.1668">
        <ele>5.8</ele>
        <time>2020-06-17T10:53:44Z</time>
      </trkpt>
      <trkpt lat="49.28387" lon="-0.16679">
        <ele>5.9</ele>
        <time>2020-06-17T10:53:45Z</time>
      </trkpt>
      <trkpt lat="49.28381" lon="-0.16681">
        <ele>6</ele>
        <time>2020-06-17T10:53:46Z</time>
      </trkpt>
      <trkpt lat="49.28377" lon="-0.1668">
        <ele>6.1</ele>
        <time>2020-06-17T10:53:47Z</time>
      </trkpt>
      <trkpt lat="49.28372" lon="-0.16679">
        <ele>6.1</ele>
        <time>2020-06-17T10:53:48Z</time>
      </trkpt>
      <trkpt lat="49.28368" lon="-0.16678">
        <ele>6.2</ele>
        <time>2020-06-17T10:53:49Z</time>
      </trkpt>
      <trkpt lat="49.28364" lon="-0.16677">
        <ele>6.3</ele>
        <time>2020-06-17T10:53:50Z</time>
      </trkpt>
      <trkpt lat="49.2836" lon="-0.16676">
        <ele>6.3</ele>
        <time>2020-06-17T10:53:51Z</time>
      </trkpt>
      <trkpt lat="49.28355" lon="-0.16674">
        <ele>6.4</ele>
        <time>2020-06-17T10:53:52Z</time>
      </trkpt>
      <trkpt lat="49.28351" lon="-0.16672">
        <ele>6.5</ele>
        <time>2020-06-17T10:53:53Z</time>
      </trkpt>
      <trkpt lat="49.28349" lon="-0.16665">
        <ele>6.6</ele>
        <time>2020-06-17T10:53:54Z</time>
      </trkpt>
      <trkpt lat="49.28349" lon="-0.16661">
        <ele>6.5</ele>
        <time>2020-06-17T10:53:55Z</time>
      </trkpt>
      <trkpt lat="49.28349" lon="-0.16653">
        <ele>6.4</ele>
        <time>2020-06-17T10:53:56Z</time>
      </trkpt>
      <trkpt lat="49.28349" lon="-0.16645">
        <ele>6.4</ele>
        <time>2020-06-17T10:53:57Z</time>
      </trkpt>
      <trkpt lat="49.28349" lon="-0.16637">
        <ele>6.3</ele>
        <time>2020-06-17T10:53:58Z</time>
      </trkpt>
      <trkpt lat="49.28349" lon="-0.16628">
        <ele>6.3</ele>
        <time>2020-06-17T10:53:59Z</time>
      </trkpt>
      <trkpt lat="49.28348" lon="-0.16621">
        <ele>6.2</ele>
        <time>2020-06-17T10:54:00Z</time>
      </trkpt>
      <trkpt lat="49.28348" lon="-0.16612">
        <ele>6.2</ele>
        <time>2020-06-17T10:54:01Z</time>
      </trkpt>
      <trkpt lat="49.28349" lon="-0.16604">
        <ele>6.1</ele>
        <time>2020-06-17T10:54:02Z</time>
      </trkpt>
      <trkpt lat="49.28349" lon="-0.16595">
        <ele>6</ele>
        <time>2020-06-17T10:54:03Z</time>
      </trkpt>
      <trkpt lat="49.28349" lon="-0.16587">
        <ele>6</ele>
        <time>2020-06-17T10:54:04Z</time>
      </trkpt>
      <trkpt lat="49.2835" lon="-0.16579">
        <ele>6</ele>
        <time>2020-06-17T10:54:05Z</time>
      </trkpt>
      <trkpt lat="49.28352" lon="-0.16569">
        <ele>6</ele>
        <time>2020-06-17T10:54:06Z</time>
      </trkpt>
      <trkpt lat="49.28353" lon="-0.16561">
        <ele>6</ele>
        <time>2020-06-17T10:54:07Z</time>
      </trkpt>
      <trkpt lat="49.28353" lon="-0.16549">
        <ele>5.9</ele>
        <time>2020-06-17T10:54:08Z</time>
      </trkpt>
      <trkpt lat="49.28353" lon="-0.1654">
        <ele>5.8</ele>
        <time>2020-06-17T10:54:09Z</time>
      </trkpt>
      <trkpt lat="49.28353" lon="-0.16531">
        <ele>5.8</ele>
        <time>2020-06-17T10:54:10Z</time>
      </trkpt>
      <trkpt lat="49.28353" lon="-0.1652">
        <ele>5.7</ele>
        <time>2020-06-17T10:54:11Z</time>
      </trkpt>
      <trkpt lat="49.28352" lon="-0.1651">
        <ele>5.7</ele>
        <time>2020-06-17T10:54:12Z</time>
      </trkpt>
      <trkpt lat="49.28353" lon="-0.16502">
        <ele>5.7</ele>
        <time>2020-06-17T10:54:13Z</time>
      </trkpt>
      <trkpt lat="49.28353" lon="-0.16495">
        <ele>5.6</ele>
        <time>2020-06-17T10:54:14Z</time>
      </trkpt>
      <trkpt lat="49.28352" lon="-0.16488">
        <ele>5.6</ele>
        <time>2020-06-17T10:54:15Z</time>
      </trkpt>
      <trkpt lat="49.28352" lon="-0.1648">
        <ele>5.6</ele>
        <time>2020-06-17T10:54:16Z</time>
      </trkpt>
      <trkpt lat="49.28353" lon="-0.16474">
        <ele>5.5</ele>
        <time>2020-06-17T10:54:17Z</time>
      </trkpt>
      <trkpt lat="49.28354" lon="-0.16467">
        <ele>5.5</ele>
        <time>2020-06-17T10:54:18Z</time>
      </trkpt>
      <trkpt lat="49.28355" lon="-0.16458">
        <ele>5.5</ele>
        <time>2020-06-17T10:54:19Z</time>
      </trkpt>
      <trkpt lat="49.28356" lon="-0.16451">
        <ele>5.5</ele>
        <time>2020-06-17T10:54:20Z</time>
      </trkpt>
      <trkpt lat="49.28356" lon="-0.16445">
        <ele>5.5</ele>
        <time>2020-06-17T10:54:21Z</time>
      </trkpt>
      <trkpt lat="49.28356" lon="-0.16438">
        <ele>5.4</ele>
        <time>2020-06-17T10:54:22Z</time>
      </trkpt>
      <trkpt lat="49.28357" lon="-0.16431">
        <ele>5.4</ele>
        <time>2020-06-17T10:54:23Z</time>
      </trkpt>
      <trkpt lat="49.28357" lon="-0.16423">
        <ele>5.4</ele>
        <time>2020-06-17T10:54:24Z</time>
      </trkpt>
      <trkpt lat="49.28358" lon="-0.16417">
        <ele>5.4</ele>
        <time>2020-06-17T10:54:25Z</time>
      </trkpt>
      <trkpt lat="49.28358" lon="-0.16409">
        <ele>5.4</ele>
        <time>2020-06-17T10:54:26Z</time>
      </trkpt>
      <trkpt lat="49.28358" lon="-0.16402">
        <ele>5.4</ele>
        <time>2020-06-17T10:54:27Z</time>
      </trkpt>
      <trkpt lat="49.28359" lon="-0.16394">
        <ele>5.4</ele>
        <time>2020-06-17T10:54:28Z</time>
      </trkpt>
      <trkpt lat="49.28359" lon="-0.16384">
        <ele>5.3</ele>
        <time>2020-06-17T10:54:29Z</time>
      </trkpt>
      <trkpt lat="49.28359" lon="-0.16376">
        <ele>5.3</ele>
        <time>2020-06-17T10:54:30Z</time>
      </trkpt>
      <trkpt lat="49.2836" lon="-0.16367">
        <ele>5.2</ele>
        <time>2020-06-17T10:54:31Z</time>
      </trkpt>
      <trkpt lat="49.2836" lon="-0.16357">
        <ele>5.2</ele>
        <time>2020-06-17T10:54:32Z</time>
      </trkpt>
      <trkpt lat="49.2836" lon="-0.16348">
        <ele>5.2</ele>
        <time>2020-06-17T10:54:33Z</time>
      </trkpt>
      <trkpt lat="49.2836" lon="-0.1634">
        <ele>5.2</ele>
        <time>2020-06-17T10:54:34Z</time>
      </trkpt>
      <trkpt lat="49.28361" lon="-0.16331">
        <ele>5.2</ele>
        <time>2020-06-17T10:54:35Z</time>
      </trkpt>
      <trkpt lat="49.28362" lon="-0.16321">
        <ele>5.1</ele>
        <time>2020-06-17T10:54:36Z</time>
      </trkpt>
      <trkpt lat="49.28362" lon="-0.16311">
        <ele>5.1</ele>
        <time>2020-06-17T10:54:37Z</time>
      </trkpt>
      <trkpt lat="49.28362" lon="-0.16303">
        <ele>5</ele>
        <time>2020-06-17T10:54:38Z</time>
      </trkpt>
      <trkpt lat="49.28363" lon="-0.16294">
        <ele>5</ele>
        <time>2020-06-17T10:54:39Z</time>
      </trkpt>
      <trkpt lat="49.28363" lon="-0.16284">
        <ele>4.9</ele>
        <time>2020-06-17T10:54:40Z</time>
      </trkpt>
      <trkpt lat="49.28364" lon="-0.16276">
        <ele>4.8</ele>
        <time>2020-06-17T10:54:41Z</time>
      </trkpt>
      <trkpt lat="49.28364" lon="-0.16267">
        <ele>4.8</ele>
        <time>2020-06-17T10:54:42Z</time>
      </trkpt>
      <trkpt lat="49.28364" lon="-0.16259">
        <ele>4.7</ele>
        <time>2020-06-17T10:54:43Z</time>
      </trkpt>
      <trkpt lat="49.28363" lon="-0.16249">
        <ele>4.7</ele>
        <time>2020-06-17T10:54:44Z</time>
      </trkpt>
      <trkpt lat="49.28362" lon="-0.1624">
        <ele>4.6</ele>
        <time>2020-06-17T10:54:45Z</time>
      </trkpt>
      <trkpt lat="49.28362" lon="-0.16232">
        <ele>4.6</ele>
        <time>2020-06-17T10:54:46Z</time>
      </trkpt>
      <trkpt lat="49.28363" lon="-0.16225">
        <ele>4.6</ele>
        <time>2020-06-17T10:54:47Z</time>
      </trkpt>
      <trkpt lat="49.28364" lon="-0.16218">
        <ele>4.5</ele>
        <time>2020-06-17T10:54:48Z</time>
      </trkpt>
      <trkpt lat="49.28365" lon="-0.16211">
        <ele>4.5</ele>
        <time>2020-06-17T10:54:49Z</time>
      </trkpt>
      <trkpt lat="49.28365" lon="-0.16203">
        <ele>4.5</ele>
        <time>2020-06-17T10:54:50Z</time>
      </trkpt>
      <trkpt lat="49.28366" lon="-0.16197">
        <ele>4.5</ele>
        <time>2020-06-17T10:54:51Z</time>
      </trkpt>
      <trkpt lat="49.28366" lon="-0.1619">
        <ele>4.5</ele>
        <time>2020-06-17T10:54:52Z</time>
      </trkpt>
      <trkpt lat="49.28367" lon="-0.16183">
        <ele>4.5</ele>
        <time>2020-06-17T10:54:53Z</time>
      </trkpt>
      <trkpt lat="49.28368" lon="-0.16177">
        <ele>4.5</ele>
        <time>2020-06-17T10:54:54Z</time>
      </trkpt>
      <trkpt lat="49.28367" lon="-0.16171">
        <ele>4.5</ele>
        <time>2020-06-17T10:54:55Z</time>
      </trkpt>
      <trkpt lat="49.28368" lon="-0.16166">
        <ele>4.5</ele>
        <time>2020-06-17T10:54:56Z</time>
      </trkpt>
      <trkpt lat="49.28369" lon="-0.16161">
        <ele>4.5</ele>
        <time>2020-06-17T10:54:57Z</time>
      </trkpt>
      <trkpt lat="49.28372" lon="-0.16161">
        <ele>4.5</ele>
        <time>2020-06-17T10:54:58Z</time>
      </trkpt>
      <trkpt lat="49.28377" lon="-0.16162">
        <ele>4.4</ele>
        <time>2020-06-17T10:54:59Z</time>
      </trkpt>
      <trkpt lat="49.28381" lon="-0.16161">
        <ele>4.4</ele>
        <time>2020-06-17T10:55:00Z</time>
      </trkpt>
      <trkpt lat="49.28385" lon="-0.16161">
        <ele>4.4</ele>
        <time>2020-06-17T10:55:01Z</time>
      </trkpt>
      <trkpt lat="49.28391" lon="-0.16161">
        <ele>4.3</ele>
        <time>2020-06-17T10:55:02Z</time>
      </trkpt>
      <trkpt lat="49.28396" lon="-0.16158">
        <ele>4.3</ele>
        <time>2020-06-17T10:55:03Z</time>
      </trkpt>
      <trkpt lat="49.28399" lon="-0.16158">
        <ele>4.3</ele>
        <time>2020-06-17T10:55:04Z</time>
      </trkpt>
      <trkpt lat="49.28401" lon="-0.16157">
        <ele>4.3</ele>
        <time>2020-06-17T10:55:05Z</time>
      </trkpt>
      <trkpt lat="49.28401" lon="-0.16151">
        <ele>4.3</ele>
        <time>2020-06-17T10:55:06Z</time>
      </trkpt>
      <trkpt lat="49.284" lon="-0.16149">
        <ele>4.2</ele>
        <time>2020-06-17T10:55:07Z</time>
      </trkpt>
      <trkpt lat="49.28402" lon="-0.16143">
        <ele>4.2</ele>
        <time>2020-06-17T10:55:08Z</time>
      </trkpt>
      <trkpt lat="49.28406" lon="-0.16139">
        <ele>4.2</ele>
        <time>2020-06-17T10:55:09Z</time>
      </trkpt>
      <trkpt lat="49.28409" lon="-0.16133">
        <ele>4.2</ele>
        <time>2020-06-17T10:55:10Z</time>
      </trkpt>
      <trkpt lat="49.28413" lon="-0.16128">
        <ele>4.2</ele>
        <time>2020-06-17T10:55:11Z</time>
      </trkpt>
      <trkpt lat="49.28416" lon="-0.16122">
        <ele>4.2</ele>
        <time>2020-06-17T10:55:12Z</time>
      </trkpt>
      <trkpt lat="49.2842" lon="-0.16118">
        <ele>4.2</ele>
        <time>2020-06-17T10:55:13Z</time>
      </trkpt>
      <trkpt lat="49.28423" lon="-0.16114">
        <ele>4.2</ele>
        <time>2020-06-17T10:55:14Z</time>
      </trkpt>
      <trkpt lat="49.28427" lon="-0.16109">
        <ele>4.3</ele>
        <time>2020-06-17T10:55:15Z</time>
      </trkpt>
      <trkpt lat="49.28431" lon="-0.16104">
        <ele>4.3</ele>
        <time>2020-06-17T10:55:16Z</time>
      </trkpt>
      <trkpt lat="49.28435" lon="-0.16101">
        <ele>4.3</ele>
        <time>2020-06-17T10:55:17Z</time>
      </trkpt>
      <trkpt lat="49.28439" lon="-0.16095">
        <ele>4.3</ele>
        <time>2020-06-17T10:55:18Z</time>
      </trkpt>
      <trkpt lat="49.28443" lon="-0.16089">
        <ele>4.4</ele>
        <time>2020-06-17T10:55:19Z</time>
      </trkpt>
      <trkpt lat="49.28446" lon="-0.16085">
        <ele>4.4</ele>
        <time>2020-06-17T10:55:20Z</time>
      </trkpt>
      <trkpt lat="49.28449" lon="-0.16081">
        <ele>4.5</ele>
        <time>2020-06-17T10:55:21Z</time>
      </trkpt>
      <trkpt lat="49.28452" lon="-0.16078">
        <ele>4.5</ele>
        <time>2020-06-17T10:55:22Z</time>
      </trkpt>
      <trkpt lat="49.28453" lon="-0.16077">
        <ele>4.5</ele>
        <time>2020-06-17T10:55:23Z</time>
      </trkpt>
      <trkpt lat="49.28455" lon="-0.16073">
        <ele>4.6</ele>
        <time>2020-06-17T10:55:24Z</time>
      </trkpt>
      <trkpt lat="49.28456" lon="-0.16072">
        <ele>4.6</ele>
        <time>2020-06-17T10:55:25Z</time>
      </trkpt>
      <trkpt lat="49.28459" lon="-0.16067">
        <ele>4.6</ele>
        <time>2020-06-17T10:55:26Z</time>
      </trkpt>
      <trkpt lat="49.2846" lon="-0.16064">
        <ele>4.6</ele>
        <time>2020-06-17T10:55:27Z</time>
      </trkpt>
      <trkpt lat="49.28462" lon="-0.16059">
        <ele>4.6</ele>
        <time>2020-06-17T10:55:28Z</time>
      </trkpt>
      <trkpt lat="49.28461" lon="-0.1605">
        <ele>4.6</ele>
        <time>2020-06-17T10:55:29Z</time>
      </trkpt>
      <trkpt lat="49.28459" lon="-0.16043">
        <ele>4.6</ele>
        <time>2020-06-17T10:55:30Z</time>
      </trkpt>
      <trkpt lat="49.28459" lon="-0.16036">
        <ele>4.6</ele>
        <time>2020-06-17T10:55:31Z</time>
      </trkpt>
      <trkpt lat="49.28459" lon="-0.16028">
        <ele>4.6</ele>
        <time>2020-06-17T10:55:32Z</time>
      </trkpt>
      <trkpt lat="49.28461" lon="-0.16021">
        <ele>4.7</ele>
        <time>2020-06-17T10:55:33Z</time>
      </trkpt>
      <trkpt lat="49.28461" lon="-0.16013">
        <ele>4.7</ele>
        <time>2020-06-17T10:55:34Z</time>
      </trkpt>
      <trkpt lat="49.28461" lon="-0.16006">
        <ele>4.7</ele>
        <time>2020-06-17T10:55:35Z</time>
      </trkpt>
      <trkpt lat="49.2846" lon="-0.15998">
        <ele>4.7</ele>
        <time>2020-06-17T10:55:36Z</time>
      </trkpt>
      <trkpt lat="49.28459" lon="-0.1599">
        <ele>4.7</ele>
        <time>2020-06-17T10:55:37Z</time>
      </trkpt>
      <trkpt lat="49.28458" lon="-0.15984">
        <ele>4.7</ele>
        <time>2020-06-17T10:55:38Z</time>
      </trkpt>
      <trkpt lat="49.28458" lon="-0.15975">
        <ele>4.6</ele>
        <time>2020-06-17T10:55:39Z</time>
      </trkpt>
      <trkpt lat="49.28456" lon="-0.15965">
        <ele>4.6</ele>
        <time>2020-06-17T10:55:40Z</time>
      </trkpt>
      <trkpt lat="49.28455" lon="-0.15957">
        <ele>4.6</ele>
        <time>2020-06-17T10:55:41Z</time>
      </trkpt>
      <trkpt lat="49.28454" lon="-0.15948">
        <ele>4.6</ele>
        <time>2020-06-17T10:55:42Z</time>
      </trkpt>
      <trkpt lat="49.28454" lon="-0.15939">
        <ele>4.6</ele>
        <time>2020-06-17T10:55:43Z</time>
      </trkpt>
      <trkpt lat="49.28454" lon="-0.15929">
        <ele>4.6</ele>
        <time>2020-06-17T10:55:44Z</time>
      </trkpt>
      <trkpt lat="49.28453" lon="-0.1592">
        <ele>4.6</ele>
        <time>2020-06-17T10:55:45Z</time>
      </trkpt>
      <trkpt lat="49.28453" lon="-0.15913">
        <ele>4.6</ele>
        <time>2020-06-17T10:55:46Z</time>
      </trkpt>
      <trkpt lat="49.28453" lon="-0.15905">
        <ele>4.6</ele>
        <time>2020-06-17T10:55:47Z</time>
      </trkpt>
      <trkpt lat="49.28453" lon="-0.15896">
        <ele>4.6</ele>
        <time>2020-06-17T10:55:48Z</time>
      </trkpt>
      <trkpt lat="49.28452" lon="-0.1589">
        <ele>4.6</ele>
        <time>2020-06-17T10:55:49Z</time>
      </trkpt>
      <trkpt lat="49.28451" lon="-0.15882">
        <ele>4.6</ele>
        <time>2020-06-17T10:55:50Z</time>
      </trkpt>
      <trkpt lat="49.2845" lon="-0.15873">
        <ele>4.6</ele>
        <time>2020-06-17T10:55:51Z</time>
      </trkpt>
      <trkpt lat="49.2845" lon="-0.15864">
        <ele>4.6</ele>
        <time>2020-06-17T10:55:52Z</time>
      </trkpt>
      <trkpt lat="49.28449" lon="-0.15855">
        <ele>4.6</ele>
        <time>2020-06-17T10:55:53Z</time>
      </trkpt>
      <trkpt lat="49.28448" lon="-0.15847">
        <ele>4.6</ele>
        <time>2020-06-17T10:55:54Z</time>
      </trkpt>
      <trkpt lat="49.28448" lon="-0.1584">
        <ele>4.6</ele>
        <time>2020-06-17T10:55:55Z</time>
      </trkpt>
      <trkpt lat="49.28449" lon="-0.1583">
        <ele>4.6</ele>
        <time>2020-06-17T10:55:56Z</time>
      </trkpt>
      <trkpt lat="49.28448" lon="-0.15823">
        <ele>4.6</ele>
        <time>2020-06-17T10:55:57Z</time>
      </trkpt>
      <trkpt lat="49.28448" lon="-0.15819">
        <ele>4.6</ele>
        <time>2020-06-17T10:55:58Z</time>
      </trkpt>
      <trkpt lat="49.28447" lon="-0.15814">
        <ele>4.5</ele>
        <time>2020-06-17T10:55:59Z</time>
      </trkpt>
      <trkpt lat="49.28446" lon="-0.1581">
        <ele>4.5</ele>
        <time>2020-06-17T10:56:00Z</time>
      </trkpt>
      <trkpt lat="49.28446" lon="-0.15803">
        <ele>4.5</ele>
        <time>2020-06-17T10:56:01Z</time>
      </trkpt>
      <trkpt lat="49.28445" lon="-0.15797">
        <ele>4.5</ele>
        <time>2020-06-17T10:56:02Z</time>
      </trkpt>
      <trkpt lat="49.28444" lon="-0.15791">
        <ele>4.5</ele>
        <time>2020-06-17T10:56:03Z</time>
      </trkpt>
      <trkpt lat="49.28444" lon="-0.15785">
        <ele>4.5</ele>
        <time>2020-06-17T10:56:04Z</time>
      </trkpt>
      <trkpt lat="49.28444" lon="-0.15781">
        <ele>4.5</ele>
        <time>2020-06-17T10:56:05Z</time>
      </trkpt>
      <trkpt lat="49.28444" lon="-0.15776">
        <ele>4.5</ele>
        <time>2020-06-17T10:56:06Z</time>
      </trkpt>
      <trkpt lat="49.28443" lon="-0.15768">
        <ele>4.5</ele>
        <time>2020-06-17T10:56:07Z</time>
      </trkpt>
      <trkpt lat="49.28443" lon="-0.15763">
        <ele>4.5</ele>
        <time>2020-06-17T10:56:08Z</time>
      </trkpt>
      <trkpt lat="49.28442" lon="-0.15757">
        <ele>4.5</ele>
        <time>2020-06-17T10:56:09Z</time>
      </trkpt>
      <trkpt lat="49.28442" lon="-0.1575">
        <ele>4.5</ele>
        <time>2020-06-17T10:56:10Z</time>
      </trkpt>
      <trkpt lat="49.28442" lon="-0.15746">
        <ele>4.5</ele>
        <time>2020-06-17T10:56:11Z</time>
      </trkpt>
      <trkpt lat="49.28442" lon="-0.15741">
        <ele>4.5</ele>
        <time>2020-06-17T10:56:12Z</time>
      </trkpt>
      <trkpt lat="49.28442" lon="-0.15735">
        <ele>4.5</ele>
        <time>2020-06-17T10:56:13Z</time>
      </trkpt>
      <trkpt lat="49.28442" lon="-0.15732">
        <ele>4.5</ele>
        <time>2020-06-17T10:56:14Z</time>
      </trkpt>
      <trkpt lat="49.28442" lon="-0.15728">
        <ele>4.5</ele>
        <time>2020-06-17T10:56:15Z</time>
      </trkpt>
      <trkpt lat="49.28442" lon="-0.15722">
        <ele>4.5</ele>
        <time>2020-06-17T10:56:16Z</time>
      </trkpt>
      <trkpt lat="49.28442" lon="-0.15714">
        <ele>4.5</ele>
        <time>2020-06-17T10:56:17Z</time>
      </trkpt>
      <trkpt lat="49.28442" lon="-0.15706">
        <ele>4.5</ele>
        <time>2020-06-17T10:56:18Z</time>
      </trkpt>
      <trkpt lat="49.28442" lon="-0.15698">
        <ele>4.5</ele>
        <time>2020-06-17T10:56:19Z</time>
      </trkpt>
      <trkpt lat="49.28442" lon="-0.15692">
        <ele>4.5</ele>
        <time>2020-06-17T10:56:20Z</time>
      </trkpt>
      <trkpt lat="49.28442" lon="-0.15684">
        <ele>4.5</ele>
        <time>2020-06-17T10:56:21Z</time>
      </trkpt>
      <trkpt lat="49.28441" lon="-0.15676">
        <ele>4.5</ele>
        <time>2020-06-17T10:56:22Z</time>
      </trkpt>
      <trkpt lat="49.28441" lon="-0.15668">
        <ele>4.4</ele>
        <time>2020-06-17T10:56:23Z</time>
      </trkpt>
      <trkpt lat="49.2844" lon="-0.15659">
        <ele>4.4</ele>
        <time>2020-06-17T10:56:24Z</time>
      </trkpt>
      <trkpt lat="49.28439" lon="-0.15651">
        <ele>4.4</ele>
        <time>2020-06-17T10:56:25Z</time>
      </trkpt>
      <trkpt lat="49.28439" lon="-0.15644">
        <ele>4.3</ele>
        <time>2020-06-17T10:56:26Z</time>
      </trkpt>
      <trkpt lat="49.28439" lon="-0.15636">
        <ele>4.3</ele>
        <time>2020-06-17T10:56:27Z</time>
      </trkpt>
      <trkpt lat="49.28439" lon="-0.15627">
        <ele>4.3</ele>
        <time>2020-06-17T10:56:28Z</time>
      </trkpt>
      <trkpt lat="49.28439" lon="-0.15619">
        <ele>4.3</ele>
        <time>2020-06-17T10:56:29Z</time>
      </trkpt>
      <trkpt lat="49.28439" lon="-0.1561">
        <ele>4.3</ele>
        <time>2020-06-17T10:56:30Z</time>
      </trkpt>
      <trkpt lat="49.28438" lon="-0.15601">
        <ele>4.3</ele>
        <time>2020-06-17T10:56:31Z</time>
      </trkpt>
      <trkpt lat="49.28438" lon="-0.15592">
        <ele>4.3</ele>
        <time>2020-06-17T10:56:32Z</time>
      </trkpt>
      <trkpt lat="49.28438" lon="-0.15582">
        <ele>4.3</ele>
        <time>2020-06-17T10:56:33Z</time>
      </trkpt>
      <trkpt lat="49.28437" lon="-0.15574">
        <ele>4.3</ele>
        <time>2020-06-17T10:56:34Z</time>
      </trkpt>
      <trkpt lat="49.28437" lon="-0.15567">
        <ele>4.3</ele>
        <time>2020-06-17T10:56:35Z</time>
      </trkpt>
      <trkpt lat="49.28436" lon="-0.15559">
        <ele>4.3</ele>
        <time>2020-06-17T10:56:36Z</time>
      </trkpt>
      <trkpt lat="49.28435" lon="-0.1555">
        <ele>4.3</ele>
        <time>2020-06-17T10:56:37Z</time>
      </trkpt>
      <trkpt lat="49.28435" lon="-0.15542">
        <ele>4.3</ele>
        <time>2020-06-17T10:56:38Z</time>
      </trkpt>
      <trkpt lat="49.28434" lon="-0.15535">
        <ele>4.3</ele>
        <time>2020-06-17T10:56:39Z</time>
      </trkpt>
      <trkpt lat="49.28434" lon="-0.15528">
        <ele>4.3</ele>
        <time>2020-06-17T10:56:40Z</time>
      </trkpt>
      <trkpt lat="49.28434" lon="-0.15522">
        <ele>4.4</ele>
        <time>2020-06-17T10:56:41Z</time>
      </trkpt>
      <trkpt lat="49.28434" lon="-0.15517">
        <ele>4.4</ele>
        <time>2020-06-17T10:56:42Z</time>
      </trkpt>
      <trkpt lat="49.28434" lon="-0.15511">
        <ele>4.4</ele>
        <time>2020-06-17T10:56:43Z</time>
      </trkpt>
      <trkpt lat="49.28433" lon="-0.15505">
        <ele>4.4</ele>
        <time>2020-06-17T10:56:44Z</time>
      </trkpt>
      <trkpt lat="49.28432" lon="-0.155">
        <ele>4.5</ele>
        <time>2020-06-17T10:56:45Z</time>
      </trkpt>
      <trkpt lat="49.2843" lon="-0.15495">
        <ele>4.5</ele>
        <time>2020-06-17T10:56:46Z</time>
      </trkpt>
      <trkpt lat="49.2843" lon="-0.15488">
        <ele>4.5</ele>
        <time>2020-06-17T10:56:47Z</time>
      </trkpt>
      <trkpt lat="49.28431" lon="-0.15483">
        <ele>4.5</ele>
        <time>2020-06-17T10:56:48Z</time>
      </trkpt>
      <trkpt lat="49.28432" lon="-0.15479">
        <ele>4.1</ele>
        <time>2020-06-17T10:56:49Z</time>
      </trkpt>
      <trkpt lat="49.28434" lon="-0.15474">
        <ele>4</ele>
        <time>2020-06-17T10:56:50Z</time>
      </trkpt>
      <trkpt lat="49.28434" lon="-0.15472">
        <ele>4</ele>
        <time>2020-06-17T10:56:51Z</time>
      </trkpt>
      <trkpt lat="49.28435" lon="-0.15468">
        <ele>4</ele>
        <time>2020-06-17T10:56:52Z</time>
      </trkpt>
      <trkpt lat="49.28435" lon="-0.15467">
        <ele>4</ele>
        <time>2020-06-17T10:56:53Z</time>
      </trkpt>
      <trkpt lat="49.28434" lon="-0.15464">
        <ele>4</ele>
        <time>2020-06-17T10:56:54Z</time>
      </trkpt>
      <trkpt lat="49.28433" lon="-0.15459">
        <ele>3.9</ele>
        <time>2020-06-17T10:56:55Z</time>
      </trkpt>
      <trkpt lat="49.28433" lon="-0.15458">
        <ele>3.9</ele>
        <time>2020-06-17T10:56:56Z</time>
      </trkpt>
      <trkpt lat="49.28432" lon="-0.15453">
        <ele>3.9</ele>
        <time>2020-06-17T10:56:57Z</time>
      </trkpt>
      <trkpt lat="49.28432" lon="-0.15448">
        <ele>3.9</ele>
        <time>2020-06-17T10:56:58Z</time>
      </trkpt>
      <trkpt lat="49.28432" lon="-0.15442">
        <ele>3.9</ele>
        <time>2020-06-17T10:56:59Z</time>
      </trkpt>
      <trkpt lat="49.28433" lon="-0.15436">
        <ele>3.9</ele>
        <time>2020-06-17T10:57:00Z</time>
      </trkpt>
      <trkpt lat="49.28433" lon="-0.15428">
        <ele>3.9</ele>
        <time>2020-06-17T10:57:01Z</time>
      </trkpt>
      <trkpt lat="49.28432" lon="-0.1542">
        <ele>3.8</ele>
        <time>2020-06-17T10:57:02Z</time>
      </trkpt>
      <trkpt lat="49.28432" lon="-0.15413">
        <ele>3.8</ele>
        <time>2020-06-17T10:57:03Z</time>
      </trkpt>
      <trkpt lat="49.28433" lon="-0.15405">
        <ele>3.8</ele>
        <time>2020-06-17T10:57:04Z</time>
      </trkpt>
      <trkpt lat="49.28433" lon="-0.15399">
        <ele>3.8</ele>
        <time>2020-06-17T10:57:05Z</time>
      </trkpt>
      <trkpt lat="49.28433" lon="-0.15392">
        <ele>3.7</ele>
        <time>2020-06-17T10:57:06Z</time>
      </trkpt>
      <trkpt lat="49.28432" lon="-0.15383">
        <ele>3.7</ele>
        <time>2020-06-17T10:57:07Z</time>
      </trkpt>
      <trkpt lat="49.28432" lon="-0.15374">
        <ele>3.7</ele>
        <time>2020-06-17T10:57:08Z</time>
      </trkpt>
      <trkpt lat="49.28432" lon="-0.15365">
        <ele>3.6</ele>
        <time>2020-06-17T10:57:09Z</time>
      </trkpt>
      <trkpt lat="49.28432" lon="-0.15357">
        <ele>3.6</ele>
        <time>2020-06-17T10:57:10Z</time>
      </trkpt>
      <trkpt lat="49.28432" lon="-0.15348">
        <ele>3.6</ele>
        <time>2020-06-17T10:57:11Z</time>
      </trkpt>
      <trkpt lat="49.28431" lon="-0.15339">
        <ele>3.6</ele>
        <time>2020-06-17T10:57:12Z</time>
      </trkpt>
      <trkpt lat="49.2843" lon="-0.15331">
        <ele>3.6</ele>
        <time>2020-06-17T10:57:13Z</time>
      </trkpt>
      <trkpt lat="49.2843" lon="-0.15323">
        <ele>3.6</ele>
        <time>2020-06-17T10:57:14Z</time>
      </trkpt>
      <trkpt lat="49.28429" lon="-0.15316">
        <ele>3.6</ele>
        <time>2020-06-17T10:57:15Z</time>
      </trkpt>
      <trkpt lat="49.28428" lon="-0.15308">
        <ele>3.6</ele>
        <time>2020-06-17T10:57:16Z</time>
      </trkpt>
      <trkpt lat="49.28427" lon="-0.153">
        <ele>3.6</ele>
        <time>2020-06-17T10:57:17Z</time>
      </trkpt>
      <trkpt lat="49.28427" lon="-0.15291">
        <ele>3.6</ele>
        <time>2020-06-17T10:57:18Z</time>
      </trkpt>
      <trkpt lat="49.28426" lon="-0.15284">
        <ele>3.6</ele>
        <time>2020-06-17T10:57:19Z</time>
      </trkpt>
      <trkpt lat="49.28426" lon="-0.15277">
        <ele>3.7</ele>
        <time>2020-06-17T10:57:20Z</time>
      </trkpt>
      <trkpt lat="49.28428" lon="-0.15268">
        <ele>3.7</ele>
        <time>2020-06-17T10:57:21Z</time>
      </trkpt>
      <trkpt lat="49.28429" lon="-0.15261">
        <ele>3.7</ele>
        <time>2020-06-17T10:57:22Z</time>
      </trkpt>
      <trkpt lat="49.28431" lon="-0.15254">
        <ele>3.7</ele>
        <time>2020-06-17T10:57:23Z</time>
      </trkpt>
      <trkpt lat="49.28431" lon="-0.15245">
        <ele>3.8</ele>
        <time>2020-06-17T10:57:24Z</time>
      </trkpt>
      <trkpt lat="49.28432" lon="-0.15237">
        <ele>3.9</ele>
        <time>2020-06-17T10:57:25Z</time>
      </trkpt>
      <trkpt lat="49.28433" lon="-0.15229">
        <ele>3.8</ele>
        <time>2020-06-17T10:57:26Z</time>
      </trkpt>
      <trkpt lat="49.28433" lon="-0.15219">
        <ele>3.8</ele>
        <time>2020-06-17T10:57:27Z</time>
      </trkpt>
      <trkpt lat="49.28433" lon="-0.1521">
        <ele>3.8</ele>
        <time>2020-06-17T10:57:28Z</time>
      </trkpt>
      <trkpt lat="49.28433" lon="-0.152">
        <ele>3.8</ele>
        <time>2020-06-17T10:57:29Z</time>
      </trkpt>
      <trkpt lat="49.28434" lon="-0.15192">
        <ele>3.8</ele>
        <time>2020-06-17T10:57:30Z</time>
      </trkpt>
      <trkpt lat="49.28434" lon="-0.15183">
        <ele>3.8</ele>
        <time>2020-06-17T10:57:31Z</time>
      </trkpt>
      <trkpt lat="49.28434" lon="-0.15175">
        <ele>3.8</ele>
        <time>2020-06-17T10:57:32Z</time>
      </trkpt>
      <trkpt lat="49.28434" lon="-0.15168">
        <ele>3.8</ele>
        <time>2020-06-17T10:57:33Z</time>
      </trkpt>
      <trkpt lat="49.28433" lon="-0.15159">
        <ele>3.8</ele>
        <time>2020-06-17T10:57:34Z</time>
      </trkpt>
      <trkpt lat="49.28432" lon="-0.15149">
        <ele>3.8</ele>
        <time>2020-06-17T10:57:35Z</time>
      </trkpt>
      <trkpt lat="49.28431" lon="-0.15139">
        <ele>3.8</ele>
        <time>2020-06-17T10:57:36Z</time>
      </trkpt>
      <trkpt lat="49.2843" lon="-0.15129">
        <ele>3.8</ele>
        <time>2020-06-17T10:57:37Z</time>
      </trkpt>
      <trkpt lat="49.28431" lon="-0.15116">
        <ele>3.8</ele>
        <time>2020-06-17T10:57:38Z</time>
      </trkpt>
      <trkpt lat="49.28431" lon="-0.15103">
        <ele>3.9</ele>
        <time>2020-06-17T10:57:39Z</time>
      </trkpt>
      <trkpt lat="49.28431" lon="-0.15094">
        <ele>3.9</ele>
        <time>2020-06-17T10:57:40Z</time>
      </trkpt>
      <trkpt lat="49.28431" lon="-0.15085">
        <ele>3.9</ele>
        <time>2020-06-17T10:57:41Z</time>
      </trkpt>
      <trkpt lat="49.28431" lon="-0.15075">
        <ele>3.9</ele>
        <time>2020-06-17T10:57:42Z</time>
      </trkpt>
      <trkpt lat="49.28431" lon="-0.15069">
        <ele>3.9</ele>
        <time>2020-06-17T10:57:43Z</time>
      </trkpt>
      <trkpt lat="49.28432" lon="-0.1506">
        <ele>3.9</ele>
        <time>2020-06-17T10:57:44Z</time>
      </trkpt>
      <trkpt lat="49.28432" lon="-0.15051">
        <ele>3.9</ele>
        <time>2020-06-17T10:57:45Z</time>
      </trkpt>
      <trkpt lat="49.28433" lon="-0.15041">
        <ele>3.9</ele>
        <time>2020-06-17T10:57:46Z</time>
      </trkpt>
      <trkpt lat="49.28434" lon="-0.15032">
        <ele>3.9</ele>
        <time>2020-06-17T10:57:47Z</time>
      </trkpt>
      <trkpt lat="49.28435" lon="-0.15023">
        <ele>3.9</ele>
        <time>2020-06-17T10:57:48Z</time>
      </trkpt>
      <trkpt lat="49.28436" lon="-0.15014">
        <ele>3.9</ele>
        <time>2020-06-17T10:57:49Z</time>
      </trkpt>
      <trkpt lat="49.28437" lon="-0.15006">
        <ele>3.9</ele>
        <time>2020-06-17T10:57:50Z</time>
      </trkpt>
      <trkpt lat="49.28437" lon="-0.14996">
        <ele>4</ele>
        <time>2020-06-17T10:57:51Z</time>
      </trkpt>
      <trkpt lat="49.28437" lon="-0.14986">
        <ele>4</ele>
        <time>2020-06-17T10:57:52Z</time>
      </trkpt>
      <trkpt lat="49.28438" lon="-0.14977">
        <ele>4.1</ele>
        <time>2020-06-17T10:57:53Z</time>
      </trkpt>
      <trkpt lat="49.28438" lon="-0.14966">
        <ele>4.1</ele>
        <time>2020-06-17T10:57:54Z</time>
      </trkpt>
      <trkpt lat="49.28439" lon="-0.14956">
        <ele>4</ele>
        <time>2020-06-17T10:57:55Z</time>
      </trkpt>
      <trkpt lat="49.2844" lon="-0.14945">
        <ele>4</ele>
        <time>2020-06-17T10:57:56Z</time>
      </trkpt>
      <trkpt lat="49.2844" lon="-0.14936">
        <ele>4</ele>
        <time>2020-06-17T10:57:57Z</time>
      </trkpt>
      <trkpt lat="49.2844" lon="-0.14927">
        <ele>4</ele>
        <time>2020-06-17T10:57:58Z</time>
      </trkpt>
      <trkpt lat="49.2844" lon="-0.14915">
        <ele>4</ele>
        <time>2020-06-17T10:57:59Z</time>
      </trkpt>
      <trkpt lat="49.2844" lon="-0.14906">
        <ele>4</ele>
        <time>2020-06-17T10:58:00Z</time>
      </trkpt>
      <trkpt lat="49.28441" lon="-0.14897">
        <ele>3.9</ele>
        <time>2020-06-17T10:58:01Z</time>
      </trkpt>
      <trkpt lat="49.28441" lon="-0.14887">
        <ele>3.9</ele>
        <time>2020-06-17T10:58:02Z</time>
      </trkpt>
      <trkpt lat="49.28441" lon="-0.14877">
        <ele>3.9</ele>
        <time>2020-06-17T10:58:03Z</time>
      </trkpt>
      <trkpt lat="49.28442" lon="-0.14867">
        <ele>3.9</ele>
        <time>2020-06-17T10:58:04Z</time>
      </trkpt>
      <trkpt lat="49.28443" lon="-0.14859">
        <ele>3.9</ele>
        <time>2020-06-17T10:58:05Z</time>
      </trkpt>
      <trkpt lat="49.28443" lon="-0.14849">
        <ele>3.9</ele>
        <time>2020-06-17T10:58:06Z</time>
      </trkpt>
      <trkpt lat="49.28444" lon="-0.14839">
        <ele>3.9</ele>
        <time>2020-06-17T10:58:07Z</time>
      </trkpt>
      <trkpt lat="49.28445" lon="-0.14829">
        <ele>3.9</ele>
        <time>2020-06-17T10:58:08Z</time>
      </trkpt>
      <trkpt lat="49.28446" lon="-0.14819">
        <ele>3.9</ele>
        <time>2020-06-17T10:58:09Z</time>
      </trkpt>
      <trkpt lat="49.28446" lon="-0.14809">
        <ele>3.9</ele>
        <time>2020-06-17T10:58:10Z</time>
      </trkpt>
      <trkpt lat="49.28447" lon="-0.148">
        <ele>3.9</ele>
        <time>2020-06-17T10:58:11Z</time>
      </trkpt>
      <trkpt lat="49.28448" lon="-0.1479">
        <ele>3.9</ele>
        <time>2020-06-17T10:58:12Z</time>
      </trkpt>
      <trkpt lat="49.28449" lon="-0.14782">
        <ele>4</ele>
        <time>2020-06-17T10:58:13Z</time>
      </trkpt>
      <trkpt lat="49.2845" lon="-0.14773">
        <ele>4</ele>
        <time>2020-06-17T10:58:14Z</time>
      </trkpt>
      <trkpt lat="49.28451" lon="-0.14763">
        <ele>3.9</ele>
        <time>2020-06-17T10:58:15Z</time>
      </trkpt>
      <trkpt lat="49.28451" lon="-0.14753">
        <ele>3.9</ele>
        <time>2020-06-17T10:58:16Z</time>
      </trkpt>
      <trkpt lat="49.28451" lon="-0.14743">
        <ele>3.9</ele>
        <time>2020-06-17T10:58:17Z</time>
      </trkpt>
      <trkpt lat="49.28452" lon="-0.14732">
        <ele>3.9</ele>
        <time>2020-06-17T10:58:18Z</time>
      </trkpt>
      <trkpt lat="49.28452" lon="-0.14722">
        <ele>3.9</ele>
        <time>2020-06-17T10:58:19Z</time>
      </trkpt>
      <trkpt lat="49.28453" lon="-0.14713">
        <ele>3.9</ele>
        <time>2020-06-17T10:58:20Z</time>
      </trkpt>
      <trkpt lat="49.28453" lon="-0.14704">
        <ele>3.9</ele>
        <time>2020-06-17T10:58:21Z</time>
      </trkpt>
      <trkpt lat="49.28455" lon="-0.14694">
        <ele>3.9</ele>
        <time>2020-06-17T10:58:22Z</time>
      </trkpt>
      <trkpt lat="49.28455" lon="-0.14684">
        <ele>3.9</ele>
        <time>2020-06-17T10:58:23Z</time>
      </trkpt>
      <trkpt lat="49.28456" lon="-0.14675">
        <ele>3.8</ele>
        <time>2020-06-17T10:58:24Z</time>
      </trkpt>
      <trkpt lat="49.28458" lon="-0.14664">
        <ele>3.8</ele>
        <time>2020-06-17T10:58:25Z</time>
      </trkpt>
      <trkpt lat="49.28458" lon="-0.14656">
        <ele>3.8</ele>
        <time>2020-06-17T10:58:26Z</time>
      </trkpt>
      <trkpt lat="49.28459" lon="-0.14645">
        <ele>3.8</ele>
        <time>2020-06-17T10:58:27Z</time>
      </trkpt>
      <trkpt lat="49.2846" lon="-0.14634">
        <ele>3.8</ele>
        <time>2020-06-17T10:58:28Z</time>
      </trkpt>
      <trkpt lat="49.2846" lon="-0.14624">
        <ele>3.8</ele>
        <time>2020-06-17T10:58:29Z</time>
      </trkpt>
      <trkpt lat="49.28461" lon="-0.14613">
        <ele>3.8</ele>
        <time>2020-06-17T10:58:30Z</time>
      </trkpt>
      <trkpt lat="49.28461" lon="-0.14604">
        <ele>3.8</ele>
        <time>2020-06-17T10:58:31Z</time>
      </trkpt>
      <trkpt lat="49.28462" lon="-0.14595">
        <ele>3.8</ele>
        <time>2020-06-17T10:58:32Z</time>
      </trkpt>
      <trkpt lat="49.28462" lon="-0.14585">
        <ele>3.8</ele>
        <time>2020-06-17T10:58:33Z</time>
      </trkpt>
      <trkpt lat="49.28464" lon="-0.14576">
        <ele>3.8</ele>
        <time>2020-06-17T10:58:34Z</time>
      </trkpt>
      <trkpt lat="49.28465" lon="-0.14566">
        <ele>3.8</ele>
        <time>2020-06-17T10:58:35Z</time>
      </trkpt>
      <trkpt lat="49.28466" lon="-0.14557">
        <ele>3.8</ele>
        <time>2020-06-17T10:58:36Z</time>
      </trkpt>
      <trkpt lat="49.28466" lon="-0.14547">
        <ele>3.8</ele>
        <time>2020-06-17T10:58:37Z</time>
      </trkpt>
      <trkpt lat="49.28467" lon="-0.14537">
        <ele>3.8</ele>
        <time>2020-06-17T10:58:38Z</time>
      </trkpt>
      <trkpt lat="49.28468" lon="-0.14528">
        <ele>3.8</ele>
        <time>2020-06-17T10:58:39Z</time>
      </trkpt>
      <trkpt lat="49.2847" lon="-0.14519">
        <ele>3.8</ele>
        <time>2020-06-17T10:58:40Z</time>
      </trkpt>
      <trkpt lat="49.28472" lon="-0.1451">
        <ele>3.8</ele>
        <time>2020-06-17T10:58:41Z</time>
      </trkpt>
      <trkpt lat="49.28474" lon="-0.14501">
        <ele>3.8</ele>
        <time>2020-06-17T10:58:42Z</time>
      </trkpt>
      <trkpt lat="49.28476" lon="-0.14492">
        <ele>3.8</ele>
        <time>2020-06-17T10:58:43Z</time>
      </trkpt>
      <trkpt lat="49.28477" lon="-0.14482">
        <ele>3.8</ele>
        <time>2020-06-17T10:58:44Z</time>
      </trkpt>
      <trkpt lat="49.2848" lon="-0.14472">
        <ele>3.9</ele>
        <time>2020-06-17T10:58:45Z</time>
      </trkpt>
      <trkpt lat="49.28481" lon="-0.14463">
        <ele>3.9</ele>
        <time>2020-06-17T10:58:46Z</time>
      </trkpt>
      <trkpt lat="49.28484" lon="-0.14453">
        <ele>3.9</ele>
        <time>2020-06-17T10:58:47Z</time>
      </trkpt>
      <trkpt lat="49.28486" lon="-0.14444">
        <ele>3.9</ele>
        <time>2020-06-17T10:58:48Z</time>
      </trkpt>
      <trkpt lat="49.28489" lon="-0.14435">
        <ele>3.9</ele>
        <time>2020-06-17T10:58:49Z</time>
      </trkpt>
      <trkpt lat="49.28491" lon="-0.14425">
        <ele>3.9</ele>
        <time>2020-06-17T10:58:50Z</time>
      </trkpt>
      <trkpt lat="49.28493" lon="-0.14415">
        <ele>3.9</ele>
        <time>2020-06-17T10:58:51Z</time>
      </trkpt>
      <trkpt lat="49.28495" lon="-0.14406">
        <ele>4</ele>
        <time>2020-06-17T10:58:52Z</time>
      </trkpt>
      <trkpt lat="49.28497" lon="-0.14396">
        <ele>4</ele>
        <time>2020-06-17T10:58:53Z</time>
      </trkpt>
      <trkpt lat="49.28499" lon="-0.14387">
        <ele>4</ele>
        <time>2020-06-17T10:58:54Z</time>
      </trkpt>
      <trkpt lat="49.28501" lon="-0.14377">
        <ele>4.1</ele>
        <time>2020-06-17T10:58:55Z</time>
      </trkpt>
      <trkpt lat="49.28502" lon="-0.14367">
        <ele>4.1</ele>
        <time>2020-06-17T10:58:56Z</time>
      </trkpt>
      <trkpt lat="49.28504" lon="-0.14358">
        <ele>4.2</ele>
        <time>2020-06-17T10:58:57Z</time>
      </trkpt>
      <trkpt lat="49.28506" lon="-0.14348">
        <ele>4.1</ele>
        <time>2020-06-17T10:58:58Z</time>
      </trkpt>
      <trkpt lat="49.28507" lon="-0.14339">
        <ele>4.1</ele>
        <time>2020-06-17T10:58:59Z</time>
      </trkpt>
      <trkpt lat="49.28509" lon="-0.14329">
        <ele>4</ele>
        <time>2020-06-17T10:59:00Z</time>
      </trkpt>
      <trkpt lat="49.2851" lon="-0.14319">
        <ele>4</ele>
        <time>2020-06-17T10:59:01Z</time>
      </trkpt>
      <trkpt lat="49.28511" lon="-0.14309">
        <ele>4.1</ele>
        <time>2020-06-17T10:59:02Z</time>
      </trkpt>
      <trkpt lat="49.28513" lon="-0.143">
        <ele>4.1</ele>
        <time>2020-06-17T10:59:03Z</time>
      </trkpt>
      <trkpt lat="49.28514" lon="-0.1429">
        <ele>4.2</ele>
        <time>2020-06-17T10:59:04Z</time>
      </trkpt>
      <trkpt lat="49.28515" lon="-0.14281">
        <ele>4.2</ele>
        <time>2020-06-17T10:59:05Z</time>
      </trkpt>
      <trkpt lat="49.28517" lon="-0.14271">
        <ele>4.2</ele>
        <time>2020-06-17T10:59:06Z</time>
      </trkpt>
      <trkpt lat="49.28518" lon="-0.14262">
        <ele>4.3</ele>
        <time>2020-06-17T10:59:07Z</time>
      </trkpt>
      <trkpt lat="49.28519" lon="-0.14253">
        <ele>4.3</ele>
        <time>2020-06-17T10:59:08Z</time>
      </trkpt>
      <trkpt lat="49.2852" lon="-0.14244">
        <ele>4.3</ele>
        <time>2020-06-17T10:59:09Z</time>
      </trkpt>
      <trkpt lat="49.2852" lon="-0.14235">
        <ele>4.3</ele>
        <time>2020-06-17T10:59:10Z</time>
      </trkpt>
      <trkpt lat="49.28522" lon="-0.14227">
        <ele>4.3</ele>
        <time>2020-06-17T10:59:11Z</time>
      </trkpt>
      <trkpt lat="49.28524" lon="-0.14218">
        <ele>4.3</ele>
        <time>2020-06-17T10:59:12Z</time>
      </trkpt>
      <trkpt lat="49.28525" lon="-0.1421">
        <ele>4.2</ele>
        <time>2020-06-17T10:59:13Z</time>
      </trkpt>
      <trkpt lat="49.28527" lon="-0.14201">
        <ele>4.2</ele>
        <time>2020-06-17T10:59:14Z</time>
      </trkpt>
      <trkpt lat="49.28528" lon="-0.14192">
        <ele>4.2</ele>
        <time>2020-06-17T10:59:15Z</time>
      </trkpt>
      <trkpt lat="49.28529" lon="-0.14183">
        <ele>4.2</ele>
        <time>2020-06-17T10:59:16Z</time>
      </trkpt>
      <trkpt lat="49.2853" lon="-0.14175">
        <ele>4.2</ele>
        <time>2020-06-17T10:59:17Z</time>
      </trkpt>
      <trkpt lat="49.28532" lon="-0.14166">
        <ele>4.2</ele>
        <time>2020-06-17T10:59:18Z</time>
      </trkpt>
      <trkpt lat="49.28533" lon="-0.14158">
        <ele>4.3</ele>
        <time>2020-06-17T10:59:19Z</time>
      </trkpt>
      <trkpt lat="49.28534" lon="-0.14149">
        <ele>4.3</ele>
        <time>2020-06-17T10:59:20Z</time>
      </trkpt>
      <trkpt lat="49.28535" lon="-0.14141">
        <ele>4.3</ele>
        <time>2020-06-17T10:59:21Z</time>
      </trkpt>
      <trkpt lat="49.28536" lon="-0.14133">
        <ele>4.2</ele>
        <time>2020-06-17T10:59:22Z</time>
      </trkpt>
      <trkpt lat="49.28538" lon="-0.14124">
        <ele>4.2</ele>
        <time>2020-06-17T10:59:23Z</time>
      </trkpt>
      <trkpt lat="49.28539" lon="-0.14116">
        <ele>4.1</ele>
        <time>2020-06-17T10:59:24Z</time>
      </trkpt>
      <trkpt lat="49.28539" lon="-0.14108">
        <ele>4.1</ele>
        <time>2020-06-17T10:59:25Z</time>
      </trkpt>
      <trkpt lat="49.2854" lon="-0.14099">
        <ele>4.1</ele>
        <time>2020-06-17T10:59:26Z</time>
      </trkpt>
      <trkpt lat="49.28541" lon="-0.1409">
        <ele>4.1</ele>
        <time>2020-06-17T10:59:27Z</time>
      </trkpt>
      <trkpt lat="49.28542" lon="-0.14081">
        <ele>4.1</ele>
        <time>2020-06-17T10:59:28Z</time>
      </trkpt>
      <trkpt lat="49.28543" lon="-0.14073">
        <ele>4.1</ele>
        <time>2020-06-17T10:59:29Z</time>
      </trkpt>
      <trkpt lat="49.28544" lon="-0.14065">
        <ele>4.1</ele>
        <time>2020-06-17T10:59:30Z</time>
      </trkpt>
      <trkpt lat="49.28545" lon="-0.14057">
        <ele>4.1</ele>
        <time>2020-06-17T10:59:31Z</time>
      </trkpt>
      <trkpt lat="49.28545" lon="-0.14048">
        <ele>4.1</ele>
        <time>2020-06-17T10:59:32Z</time>
      </trkpt>
      <trkpt lat="49.28545" lon="-0.14039">
        <ele>4.1</ele>
        <time>2020-06-17T10:59:33Z</time>
      </trkpt>
      <trkpt lat="49.28545" lon="-0.14031">
        <ele>4.1</ele>
        <time>2020-06-17T10:59:34Z</time>
      </trkpt>
      <trkpt lat="49.28546" lon="-0.14023">
        <ele>4.1</ele>
        <time>2020-06-17T10:59:35Z</time>
      </trkpt>
      <trkpt lat="49.28546" lon="-0.14014">
        <ele>4.1</ele>
        <time>2020-06-17T10:59:36Z</time>
      </trkpt>
      <trkpt lat="49.28546" lon="-0.14006">
        <ele>4.1</ele>
        <time>2020-06-17T10:59:37Z</time>
      </trkpt>
      <trkpt lat="49.28546" lon="-0.13998">
        <ele>4.1</ele>
        <time>2020-06-17T10:59:38Z</time>
      </trkpt>
      <trkpt lat="49.28546" lon="-0.1399">
        <ele>4.1</ele>
        <time>2020-06-17T10:59:39Z</time>
      </trkpt>
      <trkpt lat="49.28545" lon="-0.13982">
        <ele>4.1</ele>
        <time>2020-06-17T10:59:40Z</time>
      </trkpt>
      <trkpt lat="49.28545" lon="-0.13974">
        <ele>4.1</ele>
        <time>2020-06-17T10:59:41Z</time>
      </trkpt>
      <trkpt lat="49.28545" lon="-0.13966">
        <ele>4.1</ele>
        <time>2020-06-17T10:59:42Z</time>
      </trkpt>
      <trkpt lat="49.28545" lon="-0.13958">
        <ele>4.1</ele>
        <time>2020-06-17T10:59:43Z</time>
      </trkpt>
      <trkpt lat="49.28546" lon="-0.1395">
        <ele>4</ele>
        <time>2020-06-17T10:59:44Z</time>
      </trkpt>
      <trkpt lat="49.28546" lon="-0.13944">
        <ele>4</ele>
        <time>2020-06-17T10:59:45Z</time>
      </trkpt>
      <trkpt lat="49.28546" lon="-0.13938">
        <ele>4</ele>
        <time>2020-06-17T10:59:46Z</time>
      </trkpt>
      <trkpt lat="49.28549" lon="-0.13935">
        <ele>4</ele>
        <time>2020-06-17T10:59:47Z</time>
      </trkpt>
      <trkpt lat="49.28553" lon="-0.13936">
        <ele>4.1</ele>
        <time>2020-06-17T10:59:48Z</time>
      </trkpt>
      <trkpt lat="49.28556" lon="-0.13935">
        <ele>4.1</ele>
        <time>2020-06-17T10:59:49Z</time>
      </trkpt>
      <trkpt lat="49.2856" lon="-0.13934">
        <ele>4.1</ele>
        <time>2020-06-17T10:59:50Z</time>
      </trkpt>
      <trkpt lat="49.28563" lon="-0.13933">
        <ele>4.1</ele>
        <time>2020-06-17T10:59:51Z</time>
      </trkpt>
      <trkpt lat="49.28567" lon="-0.13932">
        <ele>4.1</ele>
        <time>2020-06-17T10:59:52Z</time>
      </trkpt>
      <trkpt lat="49.28571" lon="-0.13932">
        <ele>4.1</ele>
        <time>2020-06-17T10:59:53Z</time>
      </trkpt>
      <trkpt lat="49.28574" lon="-0.13931">
        <ele>4.1</ele>
        <time>2020-06-17T10:59:54Z</time>
      </trkpt>
      <trkpt lat="49.28577" lon="-0.1393">
        <ele>4.1</ele>
        <time>2020-06-17T10:59:55Z</time>
      </trkpt>
      <trkpt lat="49.2858" lon="-0.1393">
        <ele>4.1</ele>
        <time>2020-06-17T10:59:56Z</time>
      </trkpt>
      <trkpt lat="49.28583" lon="-0.13927">
        <ele>4.1</ele>
        <time>2020-06-17T10:59:57Z</time>
      </trkpt>
      <trkpt lat="49.28586" lon="-0.13929">
        <ele>4.1</ele>
        <time>2020-06-17T10:59:58Z</time>
      </trkpt>
      <trkpt lat="49.28588" lon="-0.1393">
        <ele>4.1</ele>
        <time>2020-06-17T10:59:59Z</time>
      </trkpt>
      <trkpt lat="49.2859" lon="-0.13931">
        <ele>4.1</ele>
        <time>2020-06-17T11:00:00Z</time>
      </trkpt>
      <trkpt lat="49.28594" lon="-0.1393">
        <ele>4.1</ele>
        <time>2020-06-17T11:00:01Z</time>
      </trkpt>
      <trkpt lat="49.28598" lon="-0.13928">
        <ele>4.1</ele>
        <time>2020-06-17T11:00:02Z</time>
      </trkpt>
      <trkpt lat="49.28602" lon="-0.13926">
        <ele>4.2</ele>
        <time>2020-06-17T11:00:03Z</time>
      </trkpt>
      <trkpt lat="49.28606" lon="-0.13925">
        <ele>4.2</ele>
        <time>2020-06-17T11:00:04Z</time>
      </trkpt>
      <trkpt lat="49.28611" lon="-0.13926">
        <ele>4.2</ele>
        <time>2020-06-17T11:00:05Z</time>
      </trkpt>
      <trkpt lat="49.28615" lon="-0.13926">
        <ele>4.2</ele>
        <time>2020-06-17T11:00:06Z</time>
      </trkpt>
      <trkpt lat="49.28618" lon="-0.1393">
        <ele>4.2</ele>
        <time>2020-06-17T11:00:07Z</time>
      </trkpt>
      <trkpt lat="49.28621" lon="-0.13935">
        <ele>4.2</ele>
        <time>2020-06-17T11:00:08Z</time>
      </trkpt>
      <trkpt lat="49.28625" lon="-0.13937">
        <ele>4.3</ele>
        <time>2020-06-17T11:00:09Z</time>
      </trkpt>
      <trkpt lat="49.28629" lon="-0.13936">
        <ele>4.3</ele>
        <time>2020-06-17T11:00:10Z</time>
      </trkpt>
      <trkpt lat="49.28634" lon="-0.13934">
        <ele>4.3</ele>
        <time>2020-06-17T11:00:11Z</time>
      </trkpt>
      <trkpt lat="49.28639" lon="-0.13932">
        <ele>4.3</ele>
        <time>2020-06-17T11:00:12Z</time>
      </trkpt>
      <trkpt lat="49.28645" lon="-0.13931">
        <ele>4.3</ele>
        <time>2020-06-17T11:00:13Z</time>
      </trkpt>
      <trkpt lat="49.2865" lon="-0.1393">
        <ele>4.3</ele>
        <time>2020-06-17T11:00:14Z</time>
      </trkpt>
      <trkpt lat="49.28656" lon="-0.1393">
        <ele>4.3</ele>
        <time>2020-06-17T11:00:15Z</time>
      </trkpt>
      <trkpt lat="49.28662" lon="-0.1393">
        <ele>4.2</ele>
        <time>2020-06-17T11:00:16Z</time>
      </trkpt>
      <trkpt lat="49.28668" lon="-0.13929">
        <ele>4.2</ele>
        <time>2020-06-17T11:00:17Z</time>
      </trkpt>
      <trkpt lat="49.28674" lon="-0.1393">
        <ele>4.2</ele>
        <time>2020-06-17T11:00:18Z</time>
      </trkpt>
      <trkpt lat="49.28679" lon="-0.13932">
        <ele>4.2</ele>
        <time>2020-06-17T11:00:19Z</time>
      </trkpt>
      <trkpt lat="49.28685" lon="-0.13934">
        <ele>4.2</ele>
        <time>2020-06-17T11:00:20Z</time>
      </trkpt>
      <trkpt lat="49.2869" lon="-0.13934">
        <ele>4.2</ele>
        <time>2020-06-17T11:00:21Z</time>
      </trkpt>
      <trkpt lat="49.28696" lon="-0.13935">
        <ele>4.2</ele>
        <time>2020-06-17T11:00:22Z</time>
      </trkpt>
      <trkpt lat="49.28701" lon="-0.13933">
        <ele>4.2</ele>
        <time>2020-06-17T11:00:23Z</time>
      </trkpt>
      <trkpt lat="49.28706" lon="-0.13932">
        <ele>4.2</ele>
        <time>2020-06-17T11:00:24Z</time>
      </trkpt>
      <trkpt lat="49.28711" lon="-0.13931">
        <ele>4.2</ele>
        <time>2020-06-17T11:00:25Z</time>
      </trkpt>
      <trkpt lat="49.28716" lon="-0.1393">
        <ele>4.2</ele>
        <time>2020-06-17T11:00:26Z</time>
      </trkpt>
      <trkpt lat="49.28722" lon="-0.13929">
        <ele>4.2</ele>
        <time>2020-06-17T11:00:27Z</time>
      </trkpt>
      <trkpt lat="49.28727" lon="-0.13928">
        <ele>4.3</ele>
        <time>2020-06-17T11:00:28Z</time>
      </trkpt>
      <trkpt lat="49.28735" lon="-0.13928">
        <ele>4.3</ele>
        <time>2020-06-17T11:00:29Z</time>
      </trkpt>
      <trkpt lat="49.28741" lon="-0.13928">
        <ele>4.3</ele>
        <time>2020-06-17T11:00:30Z</time>
      </trkpt>
      <trkpt lat="49.28747" lon="-0.13929">
        <ele>4.3</ele>
        <time>2020-06-17T11:00:31Z</time>
      </trkpt>
      <trkpt lat="49.28753" lon="-0.1393">
        <ele>4.4</ele>
        <time>2020-06-17T11:00:32Z</time>
      </trkpt>
      <trkpt lat="49.28759" lon="-0.13929">
        <ele>4.4</ele>
        <time>2020-06-17T11:00:33Z</time>
      </trkpt>
      <trkpt lat="49.28765" lon="-0.13929">
        <ele>4.4</ele>
        <time>2020-06-17T11:00:34Z</time>
      </trkpt>
      <trkpt lat="49.28771" lon="-0.13928">
        <ele>4.4</ele>
        <time>2020-06-17T11:00:35Z</time>
      </trkpt>
      <trkpt lat="49.28776" lon="-0.13928">
        <ele>4.5</ele>
        <time>2020-06-17T11:00:36Z</time>
      </trkpt>
      <trkpt lat="49.28781" lon="-0.13929">
        <ele>4.5</ele>
        <time>2020-06-17T11:00:37Z</time>
      </trkpt>
      <trkpt lat="49.28786" lon="-0.13928">
        <ele>4.6</ele>
        <time>2020-06-17T11:00:38Z</time>
      </trkpt>
      <trkpt lat="49.2879" lon="-0.13928">
        <ele>4.6</ele>
        <time>2020-06-17T11:00:39Z</time>
      </trkpt>
      <trkpt lat="49.28794" lon="-0.13927">
        <ele>4.6</ele>
        <time>2020-06-17T11:00:40Z</time>
      </trkpt>
      <trkpt lat="49.288" lon="-0.13927">
        <ele>4.7</ele>
        <time>2020-06-17T11:00:41Z</time>
      </trkpt>
      <trkpt lat="49.28806" lon="-0.13927">
        <ele>4.8</ele>
        <time>2020-06-17T11:00:42Z</time>
      </trkpt>
      <trkpt lat="49.2881" lon="-0.13927">
        <ele>4.8</ele>
        <time>2020-06-17T11:00:43Z</time>
      </trkpt>
      <trkpt lat="49.28816" lon="-0.13926">
        <ele>4.9</ele>
        <time>2020-06-17T11:00:44Z</time>
      </trkpt>
      <trkpt lat="49.28819" lon="-0.13926">
        <ele>4.9</ele>
        <time>2020-06-17T11:00:45Z</time>
      </trkpt>
      <trkpt lat="49.28822" lon="-0.13925">
        <ele>5</ele>
        <time>2020-06-17T11:00:46Z</time>
      </trkpt>
      <trkpt lat="49.28827" lon="-0.13924">
        <ele>5</ele>
        <time>2020-06-17T11:00:47Z</time>
      </trkpt>
      <trkpt lat="49.28831" lon="-0.13924">
        <ele>5.1</ele>
        <time>2020-06-17T11:00:48Z</time>
      </trkpt>
      <trkpt lat="49.28834" lon="-0.13924">
        <ele>5.2</ele>
        <time>2020-06-17T11:00:49Z</time>
      </trkpt>
      <trkpt lat="49.28838" lon="-0.13924">
        <ele>5.3</ele>
        <time>2020-06-17T11:00:50Z</time>
      </trkpt>
      <trkpt lat="49.28841" lon="-0.13924">
        <ele>5.3</ele>
        <time>2020-06-17T11:00:51Z</time>
      </trkpt>
      <trkpt lat="49.28845" lon="-0.13925">
        <ele>5.4</ele>
        <time>2020-06-17T11:00:52Z</time>
      </trkpt>
      <trkpt lat="49.2885" lon="-0.13926">
        <ele>5.5</ele>
        <time>2020-06-17T11:00:53Z</time>
      </trkpt>
      <trkpt lat="49.28854" lon="-0.13926">
        <ele>5.6</ele>
        <time>2020-06-17T11:00:54Z</time>
      </trkpt>
      <trkpt lat="49.2886" lon="-0.13927">
        <ele>5.8</ele>
        <time>2020-06-17T11:00:55Z</time>
      </trkpt>
      <trkpt lat="49.28866" lon="-0.13927">
        <ele>6.1</ele>
        <time>2020-06-17T11:00:56Z</time>
      </trkpt>
      <trkpt lat="49.28871" lon="-0.13927">
        <ele>6.3</ele>
        <time>2020-06-17T11:00:57Z</time>
      </trkpt>
      <trkpt lat="49.28875" lon="-0.13927">
        <ele>6.4</ele>
        <time>2020-06-17T11:00:58Z</time>
      </trkpt>
      <trkpt lat="49.28879" lon="-0.13927">
        <ele>6.6</ele>
        <time>2020-06-17T11:00:59Z</time>
      </trkpt>
      <trkpt lat="49.28885" lon="-0.13924">
        <ele>6.9</ele>
        <time>2020-06-17T11:01:00Z</time>
      </trkpt>
      <trkpt lat="49.28889" lon="-0.13924">
        <ele>7.1</ele>
        <time>2020-06-17T11:01:01Z</time>
      </trkpt>
      <trkpt lat="49.28893" lon="-0.13923">
        <ele>7.3</ele>
        <time>2020-06-17T11:01:02Z</time>
      </trkpt>
      <trkpt lat="49.28896" lon="-0.13923">
        <ele>7.4</ele>
        <time>2020-06-17T11:01:03Z</time>
      </trkpt>
      <trkpt lat="49.28901" lon="-0.13922">
        <ele>7.7</ele>
        <time>2020-06-17T11:01:04Z</time>
      </trkpt>
      <trkpt lat="49.28905" lon="-0.13923">
        <ele>8.1</ele>
        <time>2020-06-17T11:01:05Z</time>
      </trkpt>
      <trkpt lat="49.28909" lon="-0.13924">
        <ele>8.1</ele>
        <time>2020-06-17T11:01:06Z</time>
      </trkpt>
      <trkpt lat="49.2891" lon="-0.13924">
        <ele>8.2</ele>
        <time>2020-06-17T11:01:07Z</time>
      </trkpt>
      <trkpt lat="49.28914" lon="-0.13925">
        <ele>8.2</ele>
        <time>2020-06-17T11:01:08Z</time>
      </trkpt>
      <trkpt lat="49.28917" lon="-0.13924">
        <ele>8.3</ele>
        <time>2020-06-17T11:01:09Z</time>
      </trkpt>
      <trkpt lat="49.28922" lon="-0.13923">
        <ele>8.4</ele>
        <time>2020-06-17T11:01:10Z</time>
      </trkpt>
      <trkpt lat="49.28925" lon="-0.13924">
        <ele>8.4</ele>
        <time>2020-06-17T11:01:11Z</time>
      </trkpt>
      <trkpt lat="49.28928" lon="-0.13924">
        <ele>8.4</ele>
        <time>2020-06-17T11:01:12Z</time>
      </trkpt>
      <trkpt lat="49.28929" lon="-0.13924">
        <ele>8.4</ele>
        <time>2020-06-17T11:01:13Z</time>
      </trkpt>
      <trkpt lat="49.28933" lon="-0.13925">
        <ele>8.5</ele>
        <time>2020-06-17T11:01:14Z</time>
      </trkpt>
      <trkpt lat="49.28934" lon="-0.13925">
        <ele>8.5</ele>
        <time>2020-06-17T11:01:15Z</time>
      </trkpt>
      <trkpt lat="49.28937" lon="-0.13924">
        <ele>8.5</ele>
        <time>2020-06-17T11:01:16Z</time>
      </trkpt>
      <trkpt lat="49.28939" lon="-0.13924">
        <ele>8.5</ele>
        <time>2020-06-17T11:01:17Z</time>
      </trkpt>
      <trkpt lat="49.28941" lon="-0.13923">
        <ele>8.4</ele>
        <time>2020-06-17T11:01:18Z</time>
      </trkpt>
      <trkpt lat="49.28942" lon="-0.13922">
        <ele>8.4</ele>
        <time>2020-06-17T11:01:19Z</time>
      </trkpt>
      <trkpt lat="49.28945" lon="-0.13921">
        <ele>8.4</ele>
        <time>2020-06-17T11:01:20Z</time>
      </trkpt>
      <trkpt lat="49.28946" lon="-0.1392">
        <ele>8.4</ele>
        <time>2020-06-17T11:01:21Z</time>
      </trkpt>
      <trkpt lat="49.2895" lon="-0.13917">
        <ele>8.3</ele>
        <time>2020-06-17T11:01:22Z</time>
      </trkpt>
      <trkpt lat="49.28951" lon="-0.13916">
        <ele>8.3</ele>
        <time>2020-06-17T11:01:23Z</time>
      </trkpt>
      <trkpt lat="49.28954" lon="-0.13914">
        <ele>8.2</ele>
        <time>2020-06-17T11:01:24Z</time>
      </trkpt>
      <trkpt lat="49.28955" lon="-0.13913">
        <ele>8.2</ele>
        <time>2020-06-17T11:01:25Z</time>
      </trkpt>
      <trkpt lat="49.28957" lon="-0.1391">
        <ele>8</ele>
        <time>2020-06-17T11:01:26Z</time>
      </trkpt>
      <trkpt lat="49.28959" lon="-0.13906">
        <ele>8</ele>
        <time>2020-06-17T11:01:27Z</time>
      </trkpt>
      <trkpt lat="49.2896" lon="-0.13901">
        <ele>7.8</ele>
        <time>2020-06-17T11:01:28Z</time>
      </trkpt>
      <trkpt lat="49.28962" lon="-0.13896">
        <ele>7.7</ele>
        <time>2020-06-17T11:01:29Z</time>
      </trkpt>
      <trkpt lat="49.28964" lon="-0.13891">
        <ele>7.6</ele>
        <time>2020-06-17T11:01:30Z</time>
      </trkpt>
      <trkpt lat="49.28967" lon="-0.13885">
        <ele>7.4</ele>
        <time>2020-06-17T11:01:31Z</time>
      </trkpt>
      <trkpt lat="49.28969" lon="-0.1388">
        <ele>7.2</ele>
        <time>2020-06-17T11:01:32Z</time>
      </trkpt>
      <trkpt lat="49.28972" lon="-0.13873">
        <ele>7</ele>
        <time>2020-06-17T11:01:33Z</time>
      </trkpt>
      <trkpt lat="49.28975" lon="-0.13867">
        <ele>7</ele>
        <time>2020-06-17T11:01:34Z</time>
      </trkpt>
      <trkpt lat="49.28976" lon="-0.1386">
        <ele>6.9</ele>
        <time>2020-06-17T11:01:35Z</time>
      </trkpt>
      <trkpt lat="49.28977" lon="-0.13853">
        <ele>6.8</ele>
        <time>2020-06-17T11:01:36Z</time>
      </trkpt>
      <trkpt lat="49.28978" lon="-0.13845">
        <ele>6.7</ele>
        <time>2020-06-17T11:01:37Z</time>
      </trkpt>
      <trkpt lat="49.2898" lon="-0.13838">
        <ele>6.7</ele>
        <time>2020-06-17T11:01:38Z</time>
      </trkpt>
      <trkpt lat="49.28982" lon="-0.1383">
        <ele>6.7</ele>
        <time>2020-06-17T11:01:39Z</time>
      </trkpt>
      <trkpt lat="49.28983" lon="-0.13823">
        <ele>6.6</ele>
        <time>2020-06-17T11:01:40Z</time>
      </trkpt>
      <trkpt lat="49.28983" lon="-0.13815">
        <ele>6.6</ele>
        <time>2020-06-17T11:01:41Z</time>
      </trkpt>
      <trkpt lat="49.28984" lon="-0.13809">
        <ele>6.5</ele>
        <time>2020-06-17T11:01:42Z</time>
      </trkpt>
      <trkpt lat="49.28985" lon="-0.13805">
        <ele>6.5</ele>
        <time>2020-06-17T11:01:43Z</time>
      </trkpt>
      <trkpt lat="49.28986" lon="-0.13798">
        <ele>6.5</ele>
        <time>2020-06-17T11:01:44Z</time>
      </trkpt>
      <trkpt lat="49.28987" lon="-0.13791">
        <ele>6.4</ele>
        <time>2020-06-17T11:01:45Z</time>
      </trkpt>
      <trkpt lat="49.28987" lon="-0.13785">
        <ele>6.4</ele>
        <time>2020-06-17T11:01:46Z</time>
      </trkpt>
      <trkpt lat="49.28989" lon="-0.13779">
        <ele>6.4</ele>
        <time>2020-06-17T11:01:47Z</time>
      </trkpt>
      <trkpt lat="49.28989" lon="-0.13771">
        <ele>6.4</ele>
        <time>2020-06-17T11:01:48Z</time>
      </trkpt>
      <trkpt lat="49.28991" lon="-0.13766">
        <ele>6.4</ele>
        <time>2020-06-17T11:01:49Z</time>
      </trkpt>
      <trkpt lat="49.28991" lon="-0.13762">
        <ele>6.3</ele>
        <time>2020-06-17T11:01:50Z</time>
      </trkpt>
      <trkpt lat="49.28993" lon="-0.13757">
        <ele>6.3</ele>
        <time>2020-06-17T11:01:51Z</time>
      </trkpt>
      <trkpt lat="49.28993" lon="-0.13749">
        <ele>6.3</ele>
        <time>2020-06-17T11:01:52Z</time>
      </trkpt>
      <trkpt lat="49.28994" lon="-0.13745">
        <ele>6.3</ele>
        <time>2020-06-17T11:01:53Z</time>
      </trkpt>
      <trkpt lat="49.28994" lon="-0.13737">
        <ele>6.3</ele>
        <time>2020-06-17T11:01:54Z</time>
      </trkpt>
      <trkpt lat="49.28995" lon="-0.13731">
        <ele>6.2</ele>
        <time>2020-06-17T11:01:55Z</time>
      </trkpt>
      <trkpt lat="49.28995" lon="-0.13728">
        <ele>6.2</ele>
        <time>2020-06-17T11:01:56Z</time>
      </trkpt>
      <trkpt lat="49.28996" lon="-0.13724">
        <ele>6.2</ele>
        <time>2020-06-17T11:01:57Z</time>
      </trkpt>
      <trkpt lat="49.28997" lon="-0.13719">
        <ele>6.2</ele>
        <time>2020-06-17T11:01:58Z</time>
      </trkpt>
      <trkpt lat="49.28999" lon="-0.13712">
        <ele>6.2</ele>
        <time>2020-06-17T11:01:59Z</time>
      </trkpt>
      <trkpt lat="49.29" lon="-0.13706">
        <ele>6.2</ele>
        <time>2020-06-17T11:02:00Z</time>
      </trkpt>
      <trkpt lat="49.29001" lon="-0.137">
        <ele>6.2</ele>
        <time>2020-06-17T11:02:01Z</time>
      </trkpt>
      <trkpt lat="49.29003" lon="-0.13692">
        <ele>6.2</ele>
        <time>2020-06-17T11:02:02Z</time>
      </trkpt>
      <trkpt lat="49.29004" lon="-0.13686">
        <ele>6.2</ele>
        <time>2020-06-17T11:02:03Z</time>
      </trkpt>
      <trkpt lat="49.29005" lon="-0.1368">
        <ele>6.2</ele>
        <time>2020-06-17T11:02:04Z</time>
      </trkpt>
      <trkpt lat="49.29007" lon="-0.13675">
        <ele>6.1</ele>
        <time>2020-06-17T11:02:05Z</time>
      </trkpt>
      <trkpt lat="49.29009" lon="-0.1367">
        <ele>6.1</ele>
        <time>2020-06-17T11:02:06Z</time>
      </trkpt>
      <trkpt lat="49.2901" lon="-0.13665">
        <ele>6</ele>
        <time>2020-06-17T11:02:07Z</time>
      </trkpt>
      <trkpt lat="49.29011" lon="-0.13658">
        <ele>6</ele>
        <time>2020-06-17T11:02:08Z</time>
      </trkpt>
      <trkpt lat="49.29012" lon="-0.1365">
        <ele>5.9</ele>
        <time>2020-06-17T11:02:09Z</time>
      </trkpt>
      <trkpt lat="49.29014" lon="-0.13643">
        <ele>5.8</ele>
        <time>2020-06-17T11:02:10Z</time>
      </trkpt>
      <trkpt lat="49.29015" lon="-0.13635">
        <ele>5.8</ele>
        <time>2020-06-17T11:02:11Z</time>
      </trkpt>
      <trkpt lat="49.29017" lon="-0.13627">
        <ele>5.7</ele>
        <time>2020-06-17T11:02:12Z</time>
      </trkpt>
      <trkpt lat="49.29018" lon="-0.13618">
        <ele>5.7</ele>
        <time>2020-06-17T11:02:13Z</time>
      </trkpt>
      <trkpt lat="49.29019" lon="-0.13612">
        <ele>5.7</ele>
        <time>2020-06-17T11:02:14Z</time>
      </trkpt>
      <trkpt lat="49.2902" lon="-0.13607">
        <ele>5.7</ele>
        <time>2020-06-17T11:02:15Z</time>
      </trkpt>
      <trkpt lat="49.29021" lon="-0.136">
        <ele>5.7</ele>
        <time>2020-06-17T11:02:16Z</time>
      </trkpt>
      <trkpt lat="49.29023" lon="-0.13593">
        <ele>5.7</ele>
        <time>2020-06-17T11:02:17Z</time>
      </trkpt>
      <trkpt lat="49.29023" lon="-0.13584">
        <ele>5.7</ele>
        <time>2020-06-17T11:02:18Z</time>
      </trkpt>
      <trkpt lat="49.29025" lon="-0.13576">
        <ele>5.7</ele>
        <time>2020-06-17T11:02:19Z</time>
      </trkpt>
      <trkpt lat="49.29026" lon="-0.13568">
        <ele>5.7</ele>
        <time>2020-06-17T11:02:20Z</time>
      </trkpt>
      <trkpt lat="49.29027" lon="-0.1356">
        <ele>5.7</ele>
        <time>2020-06-17T11:02:21Z</time>
      </trkpt>
      <trkpt lat="49.29029" lon="-0.13553">
        <ele>5.7</ele>
        <time>2020-06-17T11:02:22Z</time>
      </trkpt>
      <trkpt lat="49.2903" lon="-0.13547">
        <ele>5.7</ele>
        <time>2020-06-17T11:02:23Z</time>
      </trkpt>
      <trkpt lat="49.29031" lon="-0.13541">
        <ele>5.7</ele>
        <time>2020-06-17T11:02:24Z</time>
      </trkpt>
      <trkpt lat="49.29033" lon="-0.13533">
        <ele>5.7</ele>
        <time>2020-06-17T11:02:25Z</time>
      </trkpt>
      <trkpt lat="49.29034" lon="-0.13526">
        <ele>5.8</ele>
        <time>2020-06-17T11:02:26Z</time>
      </trkpt>
      <trkpt lat="49.29036" lon="-0.13519">
        <ele>5.8</ele>
        <time>2020-06-17T11:02:27Z</time>
      </trkpt>
      <trkpt lat="49.29037" lon="-0.13511">
        <ele>5.8</ele>
        <time>2020-06-17T11:02:28Z</time>
      </trkpt>
      <trkpt lat="49.29039" lon="-0.13504">
        <ele>5.8</ele>
        <time>2020-06-17T11:02:29Z</time>
      </trkpt>
      <trkpt lat="49.2904" lon="-0.13497">
        <ele>5.8</ele>
        <time>2020-06-17T11:02:30Z</time>
      </trkpt>
      <trkpt lat="49.29042" lon="-0.13489">
        <ele>5.8</ele>
        <time>2020-06-17T11:02:31Z</time>
      </trkpt>
      <trkpt lat="49.29043" lon="-0.13481">
        <ele>5.8</ele>
        <time>2020-06-17T11:02:32Z</time>
      </trkpt>
      <trkpt lat="49.29045" lon="-0.13474">
        <ele>5.8</ele>
        <time>2020-06-17T11:02:33Z</time>
      </trkpt>
      <trkpt lat="49.29046" lon="-0.13466">
        <ele>5.8</ele>
        <time>2020-06-17T11:02:34Z</time>
      </trkpt>
      <trkpt lat="49.29047" lon="-0.13458">
        <ele>5.8</ele>
        <time>2020-06-17T11:02:35Z</time>
      </trkpt>
      <trkpt lat="49.29048" lon="-0.13452">
        <ele>5.8</ele>
        <time>2020-06-17T11:02:36Z</time>
      </trkpt>
      <trkpt lat="49.2905" lon="-0.13445">
        <ele>5.8</ele>
        <time>2020-06-17T11:02:37Z</time>
      </trkpt>
      <trkpt lat="49.29051" lon="-0.13438">
        <ele>5.7</ele>
        <time>2020-06-17T11:02:38Z</time>
      </trkpt>
      <trkpt lat="49.29051" lon="-0.13429">
        <ele>5.7</ele>
        <time>2020-06-17T11:02:39Z</time>
      </trkpt>
      <trkpt lat="49.29053" lon="-0.13422">
        <ele>5.7</ele>
        <time>2020-06-17T11:02:40Z</time>
      </trkpt>
      <trkpt lat="49.29054" lon="-0.13415">
        <ele>5.7</ele>
        <time>2020-06-17T11:02:41Z</time>
      </trkpt>
      <trkpt lat="49.29055" lon="-0.13406">
        <ele>5.7</ele>
        <time>2020-06-17T11:02:42Z</time>
      </trkpt>
      <trkpt lat="49.29056" lon="-0.13398">
        <ele>5.7</ele>
        <time>2020-06-17T11:02:43Z</time>
      </trkpt>
      <trkpt lat="49.29058" lon="-0.13391">
        <ele>5.6</ele>
        <time>2020-06-17T11:02:44Z</time>
      </trkpt>
      <trkpt lat="49.29058" lon="-0.13383">
        <ele>5.6</ele>
        <time>2020-06-17T11:02:45Z</time>
      </trkpt>
      <trkpt lat="49.29059" lon="-0.13375">
        <ele>5.6</ele>
        <time>2020-06-17T11:02:46Z</time>
      </trkpt>
      <trkpt lat="49.2906" lon="-0.13368">
        <ele>5.6</ele>
        <time>2020-06-17T11:02:47Z</time>
      </trkpt>
      <trkpt lat="49.29061" lon="-0.13362">
        <ele>5.6</ele>
        <time>2020-06-17T11:02:48Z</time>
      </trkpt>
      <trkpt lat="49.29062" lon="-0.13356">
        <ele>5.6</ele>
        <time>2020-06-17T11:02:49Z</time>
      </trkpt>
      <trkpt lat="49.29063" lon="-0.13348">
        <ele>5.6</ele>
        <time>2020-06-17T11:02:50Z</time>
      </trkpt>
      <trkpt lat="49.29064" lon="-0.13342">
        <ele>5.6</ele>
        <time>2020-06-17T11:02:51Z</time>
      </trkpt>
      <trkpt lat="49.29066" lon="-0.13334">
        <ele>5.6</ele>
        <time>2020-06-17T11:02:52Z</time>
      </trkpt>
      <trkpt lat="49.29068" lon="-0.13326">
        <ele>5.6</ele>
        <time>2020-06-17T11:02:53Z</time>
      </trkpt>
      <trkpt lat="49.29069" lon="-0.13319">
        <ele>5.6</ele>
        <time>2020-06-17T11:02:54Z</time>
      </trkpt>
      <trkpt lat="49.2907" lon="-0.13312">
        <ele>5.6</ele>
        <time>2020-06-17T11:02:55Z</time>
      </trkpt>
      <trkpt lat="49.29071" lon="-0.13304">
        <ele>5.6</ele>
        <time>2020-06-17T11:02:56Z</time>
      </trkpt>
      <trkpt lat="49.29073" lon="-0.13297">
        <ele>5.6</ele>
        <time>2020-06-17T11:02:57Z</time>
      </trkpt>
      <trkpt lat="49.29074" lon="-0.13288">
        <ele>5.6</ele>
        <time>2020-06-17T11:02:58Z</time>
      </trkpt>
      <trkpt lat="49.29075" lon="-0.1328">
        <ele>5.6</ele>
        <time>2020-06-17T11:02:59Z</time>
      </trkpt>
      <trkpt lat="49.29076" lon="-0.13274">
        <ele>5.6</ele>
        <time>2020-06-17T11:03:00Z</time>
      </trkpt>
      <trkpt lat="49.29078" lon="-0.13268">
        <ele>5.6</ele>
        <time>2020-06-17T11:03:01Z</time>
      </trkpt>
      <trkpt lat="49.2908" lon="-0.13261">
        <ele>5.6</ele>
        <time>2020-06-17T11:03:02Z</time>
      </trkpt>
      <trkpt lat="49.29082" lon="-0.13254">
        <ele>5.6</ele>
        <time>2020-06-17T11:03:03Z</time>
      </trkpt>
      <trkpt lat="49.29083" lon="-0.13246">
        <ele>5.6</ele>
        <time>2020-06-17T11:03:04Z</time>
      </trkpt>
      <trkpt lat="49.29085" lon="-0.13236">
        <ele>5.6</ele>
        <time>2020-06-17T11:03:05Z</time>
      </trkpt>
      <trkpt lat="49.29086" lon="-0.13228">
        <ele>5.6</ele>
        <time>2020-06-17T11:03:06Z</time>
      </trkpt>
      <trkpt lat="49.29087" lon="-0.13219">
        <ele>5.7</ele>
        <time>2020-06-17T11:03:07Z</time>
      </trkpt>
      <trkpt lat="49.29089" lon="-0.13209">
        <ele>5.7</ele>
        <time>2020-06-17T11:03:08Z</time>
      </trkpt>
      <trkpt lat="49.2909" lon="-0.13203">
        <ele>5.7</ele>
        <time>2020-06-17T11:03:09Z</time>
      </trkpt>
      <trkpt lat="49.29091" lon="-0.13195">
        <ele>5.7</ele>
        <time>2020-06-17T11:03:10Z</time>
      </trkpt>
      <trkpt lat="49.29092" lon="-0.13187">
        <ele>5.7</ele>
        <time>2020-06-17T11:03:11Z</time>
      </trkpt>
      <trkpt lat="49.29094" lon="-0.13178">
        <ele>5</ele>
        <time>2020-06-17T11:03:12Z</time>
      </trkpt>
      <trkpt lat="49.29095" lon="-0.13172">
        <ele>5</ele>
        <time>2020-06-17T11:03:13Z</time>
      </trkpt>
      <trkpt lat="49.29096" lon="-0.13166">
        <ele>5</ele>
        <time>2020-06-17T11:03:14Z</time>
      </trkpt>
      <trkpt lat="49.29097" lon="-0.13159">
        <ele>5</ele>
        <time>2020-06-17T11:03:15Z</time>
      </trkpt>
      <trkpt lat="49.29098" lon="-0.13152">
        <ele>5</ele>
        <time>2020-06-17T11:03:16Z</time>
      </trkpt>
      <trkpt lat="49.29099" lon="-0.13144">
        <ele>5</ele>
        <time>2020-06-17T11:03:17Z</time>
      </trkpt>
      <trkpt lat="49.291" lon="-0.13135">
        <ele>5</ele>
        <time>2020-06-17T11:03:18Z</time>
      </trkpt>
      <trkpt lat="49.29102" lon="-0.13128">
        <ele>5</ele>
        <time>2020-06-17T11:03:19Z</time>
      </trkpt>
      <trkpt lat="49.29103" lon="-0.13121">
        <ele>5</ele>
        <time>2020-06-17T11:03:20Z</time>
      </trkpt>
      <trkpt lat="49.29105" lon="-0.13114">
        <ele>5</ele>
        <time>2020-06-17T11:03:21Z</time>
      </trkpt>
      <trkpt lat="49.29107" lon="-0.13105">
        <ele>5</ele>
        <time>2020-06-17T11:03:22Z</time>
      </trkpt>
      <trkpt lat="49.29108" lon="-0.13097">
        <ele>5</ele>
        <time>2020-06-17T11:03:23Z</time>
      </trkpt>
      <trkpt lat="49.2911" lon="-0.13088">
        <ele>5</ele>
        <time>2020-06-17T11:03:24Z</time>
      </trkpt>
      <trkpt lat="49.29111" lon="-0.13079">
        <ele>5</ele>
        <time>2020-06-17T11:03:25Z</time>
      </trkpt>
      <trkpt lat="49.29112" lon="-0.13072">
        <ele>5</ele>
        <time>2020-06-17T11:03:26Z</time>
      </trkpt>
      <trkpt lat="49.29113" lon="-0.13065">
        <ele>5</ele>
        <time>2020-06-17T11:03:27Z</time>
      </trkpt>
      <trkpt lat="49.29115" lon="-0.13057">
        <ele>5.1</ele>
        <time>2020-06-17T11:03:28Z</time>
      </trkpt>
      <trkpt lat="49.29116" lon="-0.1305">
        <ele>5.2</ele>
        <time>2020-06-17T11:03:29Z</time>
      </trkpt>
      <trkpt lat="49.29117" lon="-0.13043">
        <ele>5.2</ele>
        <time>2020-06-17T11:03:30Z</time>
      </trkpt>
      <trkpt lat="49.29119" lon="-0.13035">
        <ele>5.2</ele>
        <time>2020-06-17T11:03:31Z</time>
      </trkpt>
      <trkpt lat="49.29121" lon="-0.13026">
        <ele>5.3</ele>
        <time>2020-06-17T11:03:32Z</time>
      </trkpt>
      <trkpt lat="49.29122" lon="-0.13018">
        <ele>5.3</ele>
        <time>2020-06-17T11:03:33Z</time>
      </trkpt>
      <trkpt lat="49.29124" lon="-0.1301">
        <ele>5.4</ele>
        <time>2020-06-17T11:03:34Z</time>
      </trkpt>
      <trkpt lat="49.29125" lon="-0.13003">
        <ele>5.4</ele>
        <time>2020-06-17T11:03:35Z</time>
      </trkpt>
      <trkpt lat="49.29126" lon="-0.12994">
        <ele>5.4</ele>
        <time>2020-06-17T11:03:36Z</time>
      </trkpt>
      <trkpt lat="49.29128" lon="-0.12987">
        <ele>5.5</ele>
        <time>2020-06-17T11:03:37Z</time>
      </trkpt>
      <trkpt lat="49.2913" lon="-0.12982">
        <ele>5.5</ele>
        <time>2020-06-17T11:03:38Z</time>
      </trkpt>
      <trkpt lat="49.29132" lon="-0.12974">
        <ele>5.6</ele>
        <time>2020-06-17T11:03:39Z</time>
      </trkpt>
      <trkpt lat="49.29134" lon="-0.12968">
        <ele>5.6</ele>
        <time>2020-06-17T11:03:40Z</time>
      </trkpt>
      <trkpt lat="49.29135" lon="-0.12959">
        <ele>5.6</ele>
        <time>2020-06-17T11:03:41Z</time>
      </trkpt>
      <trkpt lat="49.29137" lon="-0.12951">
        <ele>5.6</ele>
        <time>2020-06-17T11:03:42Z</time>
      </trkpt>
      <trkpt lat="49.29138" lon="-0.12943">
        <ele>5.6</ele>
        <time>2020-06-17T11:03:43Z</time>
      </trkpt>
      <trkpt lat="49.29139" lon="-0.12936">
        <ele>5.6</ele>
        <time>2020-06-17T11:03:44Z</time>
      </trkpt>
      <trkpt lat="49.29141" lon="-0.12927">
        <ele>5.6</ele>
        <time>2020-06-17T11:03:45Z</time>
      </trkpt>
      <trkpt lat="49.29143" lon="-0.12918">
        <ele>5.6</ele>
        <time>2020-06-17T11:03:46Z</time>
      </trkpt>
      <trkpt lat="49.29144" lon="-0.1291">
        <ele>5.6</ele>
        <time>2020-06-17T11:03:47Z</time>
      </trkpt>
      <trkpt lat="49.29146" lon="-0.12902">
        <ele>5.6</ele>
        <time>2020-06-17T11:03:48Z</time>
      </trkpt>
      <trkpt lat="49.29148" lon="-0.12892">
        <ele>5.6</ele>
        <time>2020-06-17T11:03:49Z</time>
      </trkpt>
      <trkpt lat="49.29149" lon="-0.12885">
        <ele>5.6</ele>
        <time>2020-06-17T11:03:50Z</time>
      </trkpt>
      <trkpt lat="49.29151" lon="-0.12877">
        <ele>5.6</ele>
        <time>2020-06-17T11:03:51Z</time>
      </trkpt>
      <trkpt lat="49.29152" lon="-0.12868">
        <ele>5.6</ele>
        <time>2020-06-17T11:03:52Z</time>
      </trkpt>
      <trkpt lat="49.29154" lon="-0.12861">
        <ele>5.6</ele>
        <time>2020-06-17T11:03:53Z</time>
      </trkpt>
      <trkpt lat="49.29155" lon="-0.12852">
        <ele>5.7</ele>
        <time>2020-06-17T11:03:54Z</time>
      </trkpt>
      <trkpt lat="49.29158" lon="-0.12845">
        <ele>5.7</ele>
        <time>2020-06-17T11:03:55Z</time>
      </trkpt>
      <trkpt lat="49.2916" lon="-0.12837">
        <ele>5.7</ele>
        <time>2020-06-17T11:03:56Z</time>
      </trkpt>
      <trkpt lat="49.29162" lon="-0.12829">
        <ele>5.7</ele>
        <time>2020-06-17T11:03:57Z</time>
      </trkpt>
      <trkpt lat="49.29164" lon="-0.12819">
        <ele>5.7</ele>
        <time>2020-06-17T11:03:58Z</time>
      </trkpt>
      <trkpt lat="49.29165" lon="-0.12813">
        <ele>5.8</ele>
        <time>2020-06-17T11:03:59Z</time>
      </trkpt>
      <trkpt lat="49.29167" lon="-0.12806">
        <ele>5.8</ele>
        <time>2020-06-17T11:04:00Z</time>
      </trkpt>
      <trkpt lat="49.29169" lon="-0.12799">
        <ele>5.9</ele>
        <time>2020-06-17T11:04:01Z</time>
      </trkpt>
      <trkpt lat="49.29171" lon="-0.12791">
        <ele>5.9</ele>
        <time>2020-06-17T11:04:02Z</time>
      </trkpt>
      <trkpt lat="49.29172" lon="-0.12785">
        <ele>5.9</ele>
        <time>2020-06-17T11:04:03Z</time>
      </trkpt>
      <trkpt lat="49.29174" lon="-0.12778">
        <ele>6</ele>
        <time>2020-06-17T11:04:04Z</time>
      </trkpt>
      <trkpt lat="49.29175" lon="-0.1277">
        <ele>6</ele>
        <time>2020-06-17T11:04:05Z</time>
      </trkpt>
      <trkpt lat="49.29176" lon="-0.12763">
        <ele>6</ele>
        <time>2020-06-17T11:04:06Z</time>
      </trkpt>
      <trkpt lat="49.29178" lon="-0.12756">
        <ele>6.1</ele>
        <time>2020-06-17T11:04:07Z</time>
      </trkpt>
      <trkpt lat="49.29179" lon="-0.12751">
        <ele>6.1</ele>
        <time>2020-06-17T11:04:08Z</time>
      </trkpt>
      <trkpt lat="49.29181" lon="-0.12741">
        <ele>6.1</ele>
        <time>2020-06-17T11:04:09Z</time>
      </trkpt>
      <trkpt lat="49.29183" lon="-0.12732">
        <ele>6.1</ele>
        <time>2020-06-17T11:04:10Z</time>
      </trkpt>
      <trkpt lat="49.29184" lon="-0.12727">
        <ele>6.1</ele>
        <time>2020-06-17T11:04:11Z</time>
      </trkpt>
      <trkpt lat="49.29186" lon="-0.12721">
        <ele>6.1</ele>
        <time>2020-06-17T11:04:12Z</time>
      </trkpt>
      <trkpt lat="49.29187" lon="-0.12714">
        <ele>6.1</ele>
        <time>2020-06-17T11:04:13Z</time>
      </trkpt>
      <trkpt lat="49.2919" lon="-0.12707">
        <ele>6</ele>
        <time>2020-06-17T11:04:14Z</time>
      </trkpt>
      <trkpt lat="49.29191" lon="-0.12699">
        <ele>6</ele>
        <time>2020-06-17T11:04:15Z</time>
      </trkpt>
      <trkpt lat="49.29192" lon="-0.12692">
        <ele>6</ele>
        <time>2020-06-17T11:04:16Z</time>
      </trkpt>
      <trkpt lat="49.29193" lon="-0.12684">
        <ele>6</ele>
        <time>2020-06-17T11:04:17Z</time>
      </trkpt>
      <trkpt lat="49.29194" lon="-0.12675">
        <ele>6</ele>
        <time>2020-06-17T11:04:18Z</time>
      </trkpt>
      <trkpt lat="49.29196" lon="-0.1267">
        <ele>6</ele>
        <time>2020-06-17T11:04:19Z</time>
      </trkpt>
      <trkpt lat="49.29197" lon="-0.12662">
        <ele>6</ele>
        <time>2020-06-17T11:04:20Z</time>
      </trkpt>
      <trkpt lat="49.29198" lon="-0.12654">
        <ele>6</ele>
        <time>2020-06-17T11:04:21Z</time>
      </trkpt>
      <trkpt lat="49.292" lon="-0.12646">
        <ele>6</ele>
        <time>2020-06-17T11:04:22Z</time>
      </trkpt>
      <trkpt lat="49.29202" lon="-0.12639">
        <ele>6</ele>
        <time>2020-06-17T11:04:23Z</time>
      </trkpt>
      <trkpt lat="49.29203" lon="-0.12632">
        <ele>6</ele>
        <time>2020-06-17T11:04:24Z</time>
      </trkpt>
      <trkpt lat="49.29205" lon="-0.12626">
        <ele>6</ele>
        <time>2020-06-17T11:04:25Z</time>
      </trkpt>
      <trkpt lat="49.29206" lon="-0.12619">
        <ele>6</ele>
        <time>2020-06-17T11:04:26Z</time>
      </trkpt>
      <trkpt lat="49.29207" lon="-0.12611">
        <ele>6</ele>
        <time>2020-06-17T11:04:27Z</time>
      </trkpt>
      <trkpt lat="49.29208" lon="-0.12606">
        <ele>6</ele>
        <time>2020-06-17T11:04:28Z</time>
      </trkpt>
      <trkpt lat="49.29209" lon="-0.126">
        <ele>6</ele>
        <time>2020-06-17T11:04:29Z</time>
      </trkpt>
      <trkpt lat="49.29211" lon="-0.12596">
        <ele>6</ele>
        <time>2020-06-17T11:04:30Z</time>
      </trkpt>
      <trkpt lat="49.29212" lon="-0.12591">
        <ele>6</ele>
        <time>2020-06-17T11:04:31Z</time>
      </trkpt>
      <trkpt lat="49.29214" lon="-0.12585">
        <ele>6</ele>
        <time>2020-06-17T11:04:32Z</time>
      </trkpt>
      <trkpt lat="49.29215" lon="-0.12579">
        <ele>6</ele>
        <time>2020-06-17T11:04:33Z</time>
      </trkpt>
      <trkpt lat="49.29217" lon="-0.12574">
        <ele>6.1</ele>
        <time>2020-06-17T11:04:34Z</time>
      </trkpt>
      <trkpt lat="49.29218" lon="-0.12569">
        <ele>6.1</ele>
        <time>2020-06-17T11:04:35Z</time>
      </trkpt>
      <trkpt lat="49.29218" lon="-0.12562">
        <ele>6.1</ele>
        <time>2020-06-17T11:04:36Z</time>
      </trkpt>
      <trkpt lat="49.2922" lon="-0.12556">
        <ele>6.1</ele>
        <time>2020-06-17T11:04:37Z</time>
      </trkpt>
      <trkpt lat="49.29221" lon="-0.12548">
        <ele>6.1</ele>
        <time>2020-06-17T11:04:38Z</time>
      </trkpt>
      <trkpt lat="49.29222" lon="-0.12542">
        <ele>6.1</ele>
        <time>2020-06-17T11:04:39Z</time>
      </trkpt>
      <trkpt lat="49.29222" lon="-0.12536">
        <ele>6.1</ele>
        <time>2020-06-17T11:04:40Z</time>
      </trkpt>
      <trkpt lat="49.29223" lon="-0.1253">
        <ele>6.1</ele>
        <time>2020-06-17T11:04:41Z</time>
      </trkpt>
      <trkpt lat="49.29222" lon="-0.12522">
        <ele>6.1</ele>
        <time>2020-06-17T11:04:42Z</time>
      </trkpt>
      <trkpt lat="49.29223" lon="-0.12515">
        <ele>6.2</ele>
        <time>2020-06-17T11:04:43Z</time>
      </trkpt>
      <trkpt lat="49.29225" lon="-0.1251">
        <ele>6.2</ele>
        <time>2020-06-17T11:04:44Z</time>
      </trkpt>
      <trkpt lat="49.29226" lon="-0.12504">
        <ele>6.2</ele>
        <time>2020-06-17T11:04:45Z</time>
      </trkpt>
      <trkpt lat="49.29229" lon="-0.12496">
        <ele>6.2</ele>
        <time>2020-06-17T11:04:46Z</time>
      </trkpt>
      <trkpt lat="49.29231" lon="-0.12489">
        <ele>6.2</ele>
        <time>2020-06-17T11:04:47Z</time>
      </trkpt>
      <trkpt lat="49.29233" lon="-0.12484">
        <ele>6.3</ele>
        <time>2020-06-17T11:04:48Z</time>
      </trkpt>
      <trkpt lat="49.29235" lon="-0.12477">
        <ele>6.3</ele>
        <time>2020-06-17T11:04:49Z</time>
      </trkpt>
      <trkpt lat="49.29236" lon="-0.12471">
        <ele>6.3</ele>
        <time>2020-06-17T11:04:50Z</time>
      </trkpt>
      <trkpt lat="49.29237" lon="-0.12464">
        <ele>6.4</ele>
        <time>2020-06-17T11:04:51Z</time>
      </trkpt>
      <trkpt lat="49.29238" lon="-0.12458">
        <ele>6.4</ele>
        <time>2020-06-17T11:04:52Z</time>
      </trkpt>
      <trkpt lat="49.29239" lon="-0.1245">
        <ele>6.4</ele>
        <time>2020-06-17T11:04:53Z</time>
      </trkpt>
      <trkpt lat="49.2924" lon="-0.12444">
        <ele>6.4</ele>
        <time>2020-06-17T11:04:54Z</time>
      </trkpt>
      <trkpt lat="49.29242" lon="-0.12438">
        <ele>6.4</ele>
        <time>2020-06-17T11:04:55Z</time>
      </trkpt>
      <trkpt lat="49.29243" lon="-0.12433">
        <ele>6.4</ele>
        <time>2020-06-17T11:04:56Z</time>
      </trkpt>
      <trkpt lat="49.29244" lon="-0.12426">
        <ele>6.4</ele>
        <time>2020-06-17T11:04:57Z</time>
      </trkpt>
      <trkpt lat="49.29244" lon="-0.12423">
        <ele>6.4</ele>
        <time>2020-06-17T11:04:58Z</time>
      </trkpt>
      <trkpt lat="49.29246" lon="-0.12418">
        <ele>6.4</ele>
        <time>2020-06-17T11:04:59Z</time>
      </trkpt>
      <trkpt lat="49.29246" lon="-0.12413">
        <ele>6.4</ele>
        <time>2020-06-17T11:05:00Z</time>
      </trkpt>
      <trkpt lat="49.29246" lon="-0.12411">
        <ele>6.4</ele>
        <time>2020-06-17T11:05:01Z</time>
      </trkpt>
      <trkpt lat="49.29246" lon="-0.1241">
        <ele>6.4</ele>
        <time>2020-06-17T11:05:02Z</time>
      </trkpt>
      <trkpt lat="49.29245" lon="-0.12407">
        <ele>6.4</ele>
        <time>2020-06-17T11:05:03Z</time>
      </trkpt>
      <trkpt lat="49.29245" lon="-0.12406">
        <ele>6.4</ele>
        <time>2020-06-17T11:05:04Z</time>
      </trkpt>
      <trkpt lat="49.29245" lon="-0.12407">
        <ele>6.4</ele>
        <time>2020-06-17T11:05:05Z</time>
      </trkpt>
      <trkpt lat="49.29246" lon="-0.12407">
        <ele>6.4</ele>
        <time>2020-06-17T11:05:06Z</time>
      </trkpt>
      <trkpt lat="49.29246" lon="-0.12408">
        <ele>6.4</ele>
        <time>2020-06-17T11:05:07Z</time>
      </trkpt>
      <trkpt lat="49.29247" lon="-0.12408">
        <ele>6.4</ele>
        <time>2020-06-17T11:05:08Z</time>
      </trkpt>
      <trkpt lat="49.29246" lon="-0.12407">
        <ele>6.4</ele>
        <time>2020-06-17T11:05:09Z</time>
      </trkpt>
      <trkpt lat="49.29247" lon="-0.12407">
        <ele>6.4</ele>
        <time>2020-06-17T11:05:10Z</time>
      </trkpt>
      <trkpt lat="49.29247" lon="-0.12407">
        <ele>6.4</ele>
        <time>2020-06-17T11:05:11Z</time>
      </trkpt>
      <trkpt lat="49.29247" lon="-0.12407">
        <ele>6.4</ele>
        <time>2020-06-17T11:05:12Z</time>
      </trkpt>
      <trkpt lat="49.29247" lon="-0.12407">
        <ele>6.4</ele>
        <time>2020-06-17T11:05:13Z</time>
      </trkpt>
      <trkpt lat="49.29247" lon="-0.12407">
        <ele>6.4</ele>
        <time>2020-06-17T11:05:14Z</time>
      </trkpt>
      <trkpt lat="49.29247" lon="-0.12406">
        <ele>6.4</ele>
        <time>2020-06-17T11:05:15Z</time>
      </trkpt>
      <trkpt lat="49.29247" lon="-0.12405">
        <ele>6.4</ele>
        <time>2020-06-17T11:05:16Z</time>
      </trkpt>
      <trkpt lat="49.29247" lon="-0.12405">
        <ele>6.4</ele>
        <time>2020-06-17T11:05:17Z</time>
      </trkpt>
      <trkpt lat="49.29247" lon="-0.12405">
        <ele>6.4</ele>
        <time>2020-06-17T11:05:18Z</time>
      </trkpt>
      <trkpt lat="49.29247" lon="-0.12403">
        <ele>6.4</ele>
        <time>2020-06-17T11:05:19Z</time>
      </trkpt>
      <trkpt lat="49.29248" lon="-0.124">
        <ele>6.4</ele>
        <time>2020-06-17T11:05:20Z</time>
      </trkpt>
      <trkpt lat="49.29248" lon="-0.12398">
        <ele>6.4</ele>
        <time>2020-06-17T11:05:21Z</time>
      </trkpt>
      <trkpt lat="49.29248" lon="-0.12397">
        <ele>6.4</ele>
        <time>2020-06-17T11:05:22Z</time>
      </trkpt>
      <trkpt lat="49.29249" lon="-0.12397">
        <ele>6.4</ele>
        <time>2020-06-17T11:05:23Z</time>
      </trkpt>
      <trkpt lat="49.2925" lon="-0.12394">
        <ele>6.4</ele>
        <time>2020-06-17T11:05:24Z</time>
      </trkpt>
      <trkpt lat="49.29252" lon="-0.12389">
        <ele>6.3</ele>
        <time>2020-06-17T11:05:25Z</time>
      </trkpt>
      <trkpt lat="49.29253" lon="-0.12382">
        <ele>6.3</ele>
        <time>2020-06-17T11:05:26Z</time>
      </trkpt>
      <trkpt lat="49.29253" lon="-0.12377">
        <ele>6.4</ele>
        <time>2020-06-17T11:05:27Z</time>
      </trkpt>
      <trkpt lat="49.29254" lon="-0.1237">
        <ele>6.4</ele>
        <time>2020-06-17T11:05:28Z</time>
      </trkpt>
      <trkpt lat="49.29255" lon="-0.12366">
        <ele>6.4</ele>
        <time>2020-06-17T11:05:29Z</time>
      </trkpt>
      <trkpt lat="49.29256" lon="-0.12359">
        <ele>6.5</ele>
        <time>2020-06-17T11:05:30Z</time>
      </trkpt>
      <trkpt lat="49.29259" lon="-0.12354">
        <ele>6.5</ele>
        <time>2020-06-17T11:05:31Z</time>
      </trkpt>
      <trkpt lat="49.2926" lon="-0.12349">
        <ele>6.5</ele>
        <time>2020-06-17T11:05:32Z</time>
      </trkpt>
      <trkpt lat="49.29261" lon="-0.12342">
        <ele>6.6</ele>
        <time>2020-06-17T11:05:33Z</time>
      </trkpt>
      <trkpt lat="49.29262" lon="-0.12336">
        <ele>6.6</ele>
        <time>2020-06-17T11:05:34Z</time>
      </trkpt>
      <trkpt lat="49.29262" lon="-0.12328">
        <ele>6.6</ele>
        <time>2020-06-17T11:05:35Z</time>
      </trkpt>
      <trkpt lat="49.29264" lon="-0.12319">
        <ele>6.7</ele>
        <time>2020-06-17T11:05:36Z</time>
      </trkpt>
      <trkpt lat="49.29266" lon="-0.12311">
        <ele>6.8</ele>
        <time>2020-06-17T11:05:37Z</time>
      </trkpt>
      <trkpt lat="49.29268" lon="-0.12304">
        <ele>6.7</ele>
        <time>2020-06-17T11:05:38Z</time>
      </trkpt>
      <trkpt lat="49.2927" lon="-0.12298">
        <ele>6.7</ele>
        <time>2020-06-17T11:05:39Z</time>
      </trkpt>
      <trkpt lat="49.29271" lon="-0.1229">
        <ele>6.8</ele>
        <time>2020-06-17T11:05:40Z</time>
      </trkpt>
      <trkpt lat="49.29274" lon="-0.12284">
        <ele>6.8</ele>
        <time>2020-06-17T11:05:41Z</time>
      </trkpt>
      <trkpt lat="49.29276" lon="-0.12278">
        <ele>6.8</ele>
        <time>2020-06-17T11:05:42Z</time>
      </trkpt>
      <trkpt lat="49.29277" lon="-0.12271">
        <ele>6.8</ele>
        <time>2020-06-17T11:05:43Z</time>
      </trkpt>
      <trkpt lat="49.29278" lon="-0.12264">
        <ele>6.8</ele>
        <time>2020-06-17T11:05:44Z</time>
      </trkpt>
      <trkpt lat="49.29278" lon="-0.12257">
        <ele>6.8</ele>
        <time>2020-06-17T11:05:45Z</time>
      </trkpt>
      <trkpt lat="49.29279" lon="-0.1225">
        <ele>6.9</ele>
        <time>2020-06-17T11:05:46Z</time>
      </trkpt>
      <trkpt lat="49.2928" lon="-0.12244">
        <ele>6.9</ele>
        <time>2020-06-17T11:05:47Z</time>
      </trkpt>
      <trkpt lat="49.29283" lon="-0.12239">
        <ele>6.9</ele>
        <time>2020-06-17T11:05:48Z</time>
      </trkpt>
      <trkpt lat="49.29285" lon="-0.12234">
        <ele>6.9</ele>
        <time>2020-06-17T11:05:49Z</time>
      </trkpt>
      <trkpt lat="49.29286" lon="-0.12227">
        <ele>7</ele>
        <time>2020-06-17T11:05:50Z</time>
      </trkpt>
      <trkpt lat="49.29287" lon="-0.12219">
        <ele>7</ele>
        <time>2020-06-17T11:05:51Z</time>
      </trkpt>
      <trkpt lat="49.29288" lon="-0.12213">
        <ele>7</ele>
        <time>2020-06-17T11:05:52Z</time>
      </trkpt>
      <trkpt lat="49.29289" lon="-0.12206">
        <ele>7</ele>
        <time>2020-06-17T11:05:53Z</time>
      </trkpt>
      <trkpt lat="49.29291" lon="-0.12199">
        <ele>7</ele>
        <time>2020-06-17T11:05:54Z</time>
      </trkpt>
      <trkpt lat="49.29292" lon="-0.12192">
        <ele>7</ele>
        <time>2020-06-17T11:05:55Z</time>
      </trkpt>
      <trkpt lat="49.29293" lon="-0.12186">
        <ele>7</ele>
        <time>2020-06-17T11:05:56Z</time>
      </trkpt>
      <trkpt lat="49.29295" lon="-0.12179">
        <ele>7</ele>
        <time>2020-06-17T11:05:57Z</time>
      </trkpt>
      <trkpt lat="49.29296" lon="-0.12173">
        <ele>7</ele>
        <time>2020-06-17T11:05:58Z</time>
      </trkpt>
      <trkpt lat="49.29298" lon="-0.12167">
        <ele>7.1</ele>
        <time>2020-06-17T11:05:59Z</time>
      </trkpt>
      <trkpt lat="49.293" lon="-0.12161">
        <ele>7.1</ele>
        <time>2020-06-17T11:06:00Z</time>
      </trkpt>
      <trkpt lat="49.29301" lon="-0.12156">
        <ele>7.1</ele>
        <time>2020-06-17T11:06:01Z</time>
      </trkpt>
      <trkpt lat="49.29302" lon="-0.12151">
        <ele>7.1</ele>
        <time>2020-06-17T11:06:02Z</time>
      </trkpt>
      <trkpt lat="49.29304" lon="-0.12146">
        <ele>7.1</ele>
        <time>2020-06-17T11:06:03Z</time>
      </trkpt>
      <trkpt lat="49.29305" lon="-0.12141">
        <ele>7.2</ele>
        <time>2020-06-17T11:06:04Z</time>
      </trkpt>
      <trkpt lat="49.29306" lon="-0.12135">
        <ele>7.2</ele>
        <time>2020-06-17T11:06:05Z</time>
      </trkpt>
      <trkpt lat="49.29307" lon="-0.12128">
        <ele>7.2</ele>
        <time>2020-06-17T11:06:06Z</time>
      </trkpt>
      <trkpt lat="49.29307" lon="-0.12122">
        <ele>7.2</ele>
        <time>2020-06-17T11:06:07Z</time>
      </trkpt>
      <trkpt lat="49.29308" lon="-0.12114">
        <ele>7.2</ele>
        <time>2020-06-17T11:06:08Z</time>
      </trkpt>
      <trkpt lat="49.29309" lon="-0.12108">
        <ele>7.2</ele>
        <time>2020-06-17T11:06:09Z</time>
      </trkpt>
      <trkpt lat="49.2931" lon="-0.12102">
        <ele>7.2</ele>
        <time>2020-06-17T11:06:10Z</time>
      </trkpt>
      <trkpt lat="49.29312" lon="-0.12096">
        <ele>7.2</ele>
        <time>2020-06-17T11:06:11Z</time>
      </trkpt>
      <trkpt lat="49.29314" lon="-0.12089">
        <ele>7.3</ele>
        <time>2020-06-17T11:06:12Z</time>
      </trkpt>
      <trkpt lat="49.29316" lon="-0.12084">
        <ele>7.3</ele>
        <time>2020-06-17T11:06:13Z</time>
      </trkpt>
      <trkpt lat="49.29317" lon="-0.12078">
        <ele>7.3</ele>
        <time>2020-06-17T11:06:14Z</time>
      </trkpt>
      <trkpt lat="49.29318" lon="-0.12072">
        <ele>7.3</ele>
        <time>2020-06-17T11:06:15Z</time>
      </trkpt>
      <trkpt lat="49.2932" lon="-0.12067">
        <ele>7.3</ele>
        <time>2020-06-17T11:06:16Z</time>
      </trkpt>
      <trkpt lat="49.2932" lon="-0.12062">
        <ele>7.3</ele>
        <time>2020-06-17T11:06:17Z</time>
      </trkpt>
      <trkpt lat="49.29321" lon="-0.12057">
        <ele>7.3</ele>
        <time>2020-06-17T11:06:18Z</time>
      </trkpt>
      <trkpt lat="49.29322" lon="-0.12052">
        <ele>7.3</ele>
        <time>2020-06-17T11:06:19Z</time>
      </trkpt>
      <trkpt lat="49.29324" lon="-0.12044">
        <ele>7.3</ele>
        <time>2020-06-17T11:06:20Z</time>
      </trkpt>
      <trkpt lat="49.29325" lon="-0.12037">
        <ele>7.3</ele>
        <time>2020-06-17T11:06:21Z</time>
      </trkpt>
      <trkpt lat="49.29325" lon="-0.12031">
        <ele>7.3</ele>
        <time>2020-06-17T11:06:22Z</time>
      </trkpt>
      <trkpt lat="49.29326" lon="-0.12025">
        <ele>7.3</ele>
        <time>2020-06-17T11:06:23Z</time>
      </trkpt>
      <trkpt lat="49.29327" lon="-0.1202">
        <ele>7.3</ele>
        <time>2020-06-17T11:06:24Z</time>
      </trkpt>
      <trkpt lat="49.29328" lon="-0.12014">
        <ele>7.3</ele>
        <time>2020-06-17T11:06:25Z</time>
      </trkpt>
      <trkpt lat="49.29329" lon="-0.12008">
        <ele>7.3</ele>
        <time>2020-06-17T11:06:26Z</time>
      </trkpt>
      <trkpt lat="49.29331" lon="-0.12001">
        <ele>7.3</ele>
        <time>2020-06-17T11:06:27Z</time>
      </trkpt>
      <trkpt lat="49.29332" lon="-0.11995">
        <ele>7.4</ele>
        <time>2020-06-17T11:06:28Z</time>
      </trkpt>
      <trkpt lat="49.29335" lon="-0.11989">
        <ele>7.4</ele>
        <time>2020-06-17T11:06:29Z</time>
      </trkpt>
      <trkpt lat="49.29337" lon="-0.11983">
        <ele>7.4</ele>
        <time>2020-06-17T11:06:30Z</time>
      </trkpt>
      <trkpt lat="49.29339" lon="-0.11976">
        <ele>7.4</ele>
        <time>2020-06-17T11:06:31Z</time>
      </trkpt>
      <trkpt lat="49.29341" lon="-0.1197">
        <ele>7.4</ele>
        <time>2020-06-17T11:06:32Z</time>
      </trkpt>
      <trkpt lat="49.29341" lon="-0.11963">
        <ele>7.4</ele>
        <time>2020-06-17T11:06:33Z</time>
      </trkpt>
      <trkpt lat="49.29342" lon="-0.11957">
        <ele>7.4</ele>
        <time>2020-06-17T11:06:34Z</time>
      </trkpt>
      <trkpt lat="49.29342" lon="-0.11951">
        <ele>7.4</ele>
        <time>2020-06-17T11:06:35Z</time>
      </trkpt>
      <trkpt lat="49.29343" lon="-0.11946">
        <ele>7.4</ele>
        <time>2020-06-17T11:06:36Z</time>
      </trkpt>
      <trkpt lat="49.29344" lon="-0.11941">
        <ele>7.4</ele>
        <time>2020-06-17T11:06:37Z</time>
      </trkpt>
      <trkpt lat="49.29345" lon="-0.11937">
        <ele>7.4</ele>
        <time>2020-06-17T11:06:38Z</time>
      </trkpt>
      <trkpt lat="49.29348" lon="-0.11932">
        <ele>7.4</ele>
        <time>2020-06-17T11:06:39Z</time>
      </trkpt>
      <trkpt lat="49.29349" lon="-0.11926">
        <ele>7.4</ele>
        <time>2020-06-17T11:06:40Z</time>
      </trkpt>
      <trkpt lat="49.2935" lon="-0.1192">
        <ele>7.4</ele>
        <time>2020-06-17T11:06:41Z</time>
      </trkpt>
      <trkpt lat="49.29351" lon="-0.11914">
        <ele>7.4</ele>
        <time>2020-06-17T11:06:42Z</time>
      </trkpt>
      <trkpt lat="49.29351" lon="-0.11908">
        <ele>7.4</ele>
        <time>2020-06-17T11:06:43Z</time>
      </trkpt>
      <trkpt lat="49.29353" lon="-0.11903">
        <ele>7.4</ele>
        <time>2020-06-17T11:06:44Z</time>
      </trkpt>
      <trkpt lat="49.29354" lon="-0.11896">
        <ele>7.4</ele>
        <time>2020-06-17T11:06:45Z</time>
      </trkpt>
      <trkpt lat="49.29356" lon="-0.1189">
        <ele>7.4</ele>
        <time>2020-06-17T11:06:46Z</time>
      </trkpt>
      <trkpt lat="49.29357" lon="-0.11884">
        <ele>7.4</ele>
        <time>2020-06-17T11:06:47Z</time>
      </trkpt>
      <trkpt lat="49.29358" lon="-0.11879">
        <ele>7.4</ele>
        <time>2020-06-17T11:06:48Z</time>
      </trkpt>
      <trkpt lat="49.29359" lon="-0.11872">
        <ele>7.4</ele>
        <time>2020-06-17T11:06:49Z</time>
      </trkpt>
      <trkpt lat="49.2936" lon="-0.11866">
        <ele>7.4</ele>
        <time>2020-06-17T11:06:50Z</time>
      </trkpt>
      <trkpt lat="49.29361" lon="-0.11862">
        <ele>7.5</ele>
        <time>2020-06-17T11:06:51Z</time>
      </trkpt>
      <trkpt lat="49.29361" lon="-0.11856">
        <ele>7.5</ele>
        <time>2020-06-17T11:06:52Z</time>
      </trkpt>
      <trkpt lat="49.29361" lon="-0.11851">
        <ele>7.5</ele>
        <time>2020-06-17T11:06:53Z</time>
      </trkpt>
      <trkpt lat="49.29362" lon="-0.11846">
        <ele>7.5</ele>
        <time>2020-06-17T11:06:54Z</time>
      </trkpt>
      <trkpt lat="49.29364" lon="-0.11842">
        <ele>7.5</ele>
        <time>2020-06-17T11:06:55Z</time>
      </trkpt>
      <trkpt lat="49.29365" lon="-0.11836">
        <ele>7.5</ele>
        <time>2020-06-17T11:06:56Z</time>
      </trkpt>
      <trkpt lat="49.29365" lon="-0.11832">
        <ele>7.5</ele>
        <time>2020-06-17T11:06:57Z</time>
      </trkpt>
      <trkpt lat="49.29366" lon="-0.11827">
        <ele>7.5</ele>
        <time>2020-06-17T11:06:58Z</time>
      </trkpt>
      <trkpt lat="49.29367" lon="-0.11825">
        <ele>7.5</ele>
        <time>2020-06-17T11:06:59Z</time>
      </trkpt>
      <trkpt lat="49.29368" lon="-0.1182">
        <ele>7.5</ele>
        <time>2020-06-17T11:07:00Z</time>
      </trkpt>
      <trkpt lat="49.29368" lon="-0.11815">
        <ele>7.6</ele>
        <time>2020-06-17T11:07:01Z</time>
      </trkpt>
      <trkpt lat="49.2937" lon="-0.1181">
        <ele>7.6</ele>
        <time>2020-06-17T11:07:02Z</time>
      </trkpt>
      <trkpt lat="49.2937" lon="-0.11802">
        <ele>7.6</ele>
        <time>2020-06-17T11:07:03Z</time>
      </trkpt>
      <trkpt lat="49.29372" lon="-0.11795">
        <ele>7.6</ele>
        <time>2020-06-17T11:07:04Z</time>
      </trkpt>
      <trkpt lat="49.29375" lon="-0.11788">
        <ele>7.6</ele>
        <time>2020-06-17T11:07:05Z</time>
      </trkpt>
      <trkpt lat="49.29377" lon="-0.11782">
        <ele>7.6</ele>
        <time>2020-06-17T11:07:06Z</time>
      </trkpt>
      <trkpt lat="49.29378" lon="-0.11777">
        <ele>7.6</ele>
        <time>2020-06-17T11:07:07Z</time>
      </trkpt>
      <trkpt lat="49.29379" lon="-0.1177">
        <ele>7.6</ele>
        <time>2020-06-17T11:07:08Z</time>
      </trkpt>
      <trkpt lat="49.2938" lon="-0.11765">
        <ele>7.6</ele>
        <time>2020-06-17T11:07:09Z</time>
      </trkpt>
      <trkpt lat="49.29381" lon="-0.1176">
        <ele>7.6</ele>
        <time>2020-06-17T11:07:10Z</time>
      </trkpt>
      <trkpt lat="49.29382" lon="-0.11754">
        <ele>7.7</ele>
        <time>2020-06-17T11:07:11Z</time>
      </trkpt>
      <trkpt lat="49.29384" lon="-0.11749">
        <ele>7.7</ele>
        <time>2020-06-17T11:07:12Z</time>
      </trkpt>
      <trkpt lat="49.29385" lon="-0.11744">
        <ele>7.7</ele>
        <time>2020-06-17T11:07:13Z</time>
      </trkpt>
      <trkpt lat="49.29387" lon="-0.11738">
        <ele>7.7</ele>
        <time>2020-06-17T11:07:14Z</time>
      </trkpt>
      <trkpt lat="49.29388" lon="-0.11733">
        <ele>7.8</ele>
        <time>2020-06-17T11:07:15Z</time>
      </trkpt>
      <trkpt lat="49.2939" lon="-0.11728">
        <ele>7.8</ele>
        <time>2020-06-17T11:07:16Z</time>
      </trkpt>
      <trkpt lat="49.2939" lon="-0.11724">
        <ele>7.8</ele>
        <time>2020-06-17T11:07:17Z</time>
      </trkpt>
      <trkpt lat="49.29392" lon="-0.11719">
        <ele>7.8</ele>
        <time>2020-06-17T11:07:18Z</time>
      </trkpt>
      <trkpt lat="49.29393" lon="-0.11714">
        <ele>7.8</ele>
        <time>2020-06-17T11:07:19Z</time>
      </trkpt>
      <trkpt lat="49.29393" lon="-0.1171">
        <ele>7.8</ele>
        <time>2020-06-17T11:07:20Z</time>
      </trkpt>
      <trkpt lat="49.29393" lon="-0.11705">
        <ele>7.8</ele>
        <time>2020-06-17T11:07:21Z</time>
      </trkpt>
      <trkpt lat="49.29394" lon="-0.117">
        <ele>7.9</ele>
        <time>2020-06-17T11:07:22Z</time>
      </trkpt>
      <trkpt lat="49.29394" lon="-0.11698">
        <ele>7.9</ele>
        <time>2020-06-17T11:07:23Z</time>
      </trkpt>
      <trkpt lat="49.29394" lon="-0.11693">
        <ele>7.9</ele>
        <time>2020-06-17T11:07:24Z</time>
      </trkpt>
      <trkpt lat="49.29393" lon="-0.11692">
        <ele>7.9</ele>
        <time>2020-06-17T11:07:25Z</time>
      </trkpt>
      <trkpt lat="49.29393" lon="-0.11687">
        <ele>7.8</ele>
        <time>2020-06-17T11:07:26Z</time>
      </trkpt>
      <trkpt lat="49.29393" lon="-0.11686">
        <ele>7.8</ele>
        <time>2020-06-17T11:07:27Z</time>
      </trkpt>
      <trkpt lat="49.29393" lon="-0.1168">
        <ele>7.8</ele>
        <time>2020-06-17T11:07:28Z</time>
      </trkpt>
      <trkpt lat="49.29393" lon="-0.11675">
        <ele>7.8</ele>
        <time>2020-06-17T11:07:29Z</time>
      </trkpt>
      <trkpt lat="49.29394" lon="-0.11673">
        <ele>7.7</ele>
        <time>2020-06-17T11:07:30Z</time>
      </trkpt>
      <trkpt lat="49.29395" lon="-0.11668">
        <ele>7.7</ele>
        <time>2020-06-17T11:07:31Z</time>
      </trkpt>
      <trkpt lat="49.29395" lon="-0.11666">
        <ele>7.7</ele>
        <time>2020-06-17T11:07:32Z</time>
      </trkpt>
      <trkpt lat="49.29396" lon="-0.11662">
        <ele>7.7</ele>
        <time>2020-06-17T11:07:33Z</time>
      </trkpt>
      <trkpt lat="49.29397" lon="-0.11658">
        <ele>7.6</ele>
        <time>2020-06-17T11:07:34Z</time>
      </trkpt>
      <trkpt lat="49.29398" lon="-0.11652">
        <ele>7.6</ele>
        <time>2020-06-17T11:07:35Z</time>
      </trkpt>
      <trkpt lat="49.29398" lon="-0.1165">
        <ele>7.6</ele>
        <time>2020-06-17T11:07:36Z</time>
      </trkpt>
      <trkpt lat="49.29399" lon="-0.11645">
        <ele>7.6</ele>
        <time>2020-06-17T11:07:37Z</time>
      </trkpt>
      <trkpt lat="49.294" lon="-0.1164">
        <ele>7.5</ele>
        <time>2020-06-17T11:07:38Z</time>
      </trkpt>
      <trkpt lat="49.29402" lon="-0.11634">
        <ele>7.5</ele>
        <time>2020-06-17T11:07:39Z</time>
      </trkpt>
      <trkpt lat="49.29403" lon="-0.11632">
        <ele>7.5</ele>
        <time>2020-06-17T11:07:40Z</time>
      </trkpt>
      <trkpt lat="49.29403" lon="-0.11626">
        <ele>7.5</ele>
        <time>2020-06-17T11:07:41Z</time>
      </trkpt>
      <trkpt lat="49.29404" lon="-0.11624">
        <ele>7.5</ele>
        <time>2020-06-17T11:07:42Z</time>
      </trkpt>
      <trkpt lat="49.29404" lon="-0.11619">
        <ele>7.5</ele>
        <time>2020-06-17T11:07:43Z</time>
      </trkpt>
      <trkpt lat="49.29405" lon="-0.11616">
        <ele>7.5</ele>
        <time>2020-06-17T11:07:44Z</time>
      </trkpt>
      <trkpt lat="49.29405" lon="-0.11612">
        <ele>7.4</ele>
        <time>2020-06-17T11:07:45Z</time>
      </trkpt>
      <trkpt lat="49.29406" lon="-0.11606">
        <ele>7.4</ele>
        <time>2020-06-17T11:07:46Z</time>
      </trkpt>
      <trkpt lat="49.29407" lon="-0.11601">
        <ele>7.4</ele>
        <time>2020-06-17T11:07:47Z</time>
      </trkpt>
      <trkpt lat="49.29408" lon="-0.11597">
        <ele>7.3</ele>
        <time>2020-06-17T11:07:48Z</time>
      </trkpt>
      <trkpt lat="49.29409" lon="-0.11592">
        <ele>7.3</ele>
        <time>2020-06-17T11:07:49Z</time>
      </trkpt>
      <trkpt lat="49.2941" lon="-0.11588">
        <ele>7.2</ele>
        <time>2020-06-17T11:07:50Z</time>
      </trkpt>
      <trkpt lat="49.29411" lon="-0.11583">
        <ele>7.2</ele>
        <time>2020-06-17T11:07:51Z</time>
      </trkpt>
      <trkpt lat="49.29412" lon="-0.11578">
        <ele>7.1</ele>
        <time>2020-06-17T11:07:52Z</time>
      </trkpt>
      <trkpt lat="49.29412" lon="-0.11576">
        <ele>7.1</ele>
        <time>2020-06-17T11:07:53Z</time>
      </trkpt>
      <trkpt lat="49.29413" lon="-0.11571">
        <ele>7.1</ele>
        <time>2020-06-17T11:07:54Z</time>
      </trkpt>
      <trkpt lat="49.29414" lon="-0.11565">
        <ele>7</ele>
        <time>2020-06-17T11:07:55Z</time>
      </trkpt>
      <trkpt lat="49.29415" lon="-0.11563">
        <ele>7</ele>
        <time>2020-06-17T11:07:56Z</time>
      </trkpt>
      <trkpt lat="49.29416" lon="-0.11557">
        <ele>7</ele>
        <time>2020-06-17T11:07:57Z</time>
      </trkpt>
      <trkpt lat="49.29416" lon="-0.11555">
        <ele>7</ele>
        <time>2020-06-17T11:07:58Z</time>
      </trkpt>
      <trkpt lat="49.29417" lon="-0.11551">
        <ele>6.9</ele>
        <time>2020-06-17T11:07:59Z</time>
      </trkpt>
      <trkpt lat="49.29417" lon="-0.11549">
        <ele>6.9</ele>
        <time>2020-06-17T11:08:00Z</time>
      </trkpt>
      <trkpt lat="49.29418" lon="-0.11544">
        <ele>6.9</ele>
        <time>2020-06-17T11:08:01Z</time>
      </trkpt>
      <trkpt lat="49.29419" lon="-0.11542">
        <ele>6.9</ele>
        <time>2020-06-17T11:08:02Z</time>
      </trkpt>
      <trkpt lat="49.29419" lon="-0.11537">
        <ele>6.9</ele>
        <time>2020-06-17T11:08:03Z</time>
      </trkpt>
      <trkpt lat="49.2942" lon="-0.11533">
        <ele>6.9</ele>
        <time>2020-06-17T11:08:04Z</time>
      </trkpt>
      <trkpt lat="49.29421" lon="-0.11528">
        <ele>6.9</ele>
        <time>2020-06-17T11:08:05Z</time>
      </trkpt>
      <trkpt lat="49.29422" lon="-0.11526">
        <ele>6.9</ele>
        <time>2020-06-17T11:08:06Z</time>
      </trkpt>
      <trkpt lat="49.29424" lon="-0.1152">
        <ele>6.8</ele>
        <time>2020-06-17T11:08:07Z</time>
      </trkpt>
      <trkpt lat="49.29425" lon="-0.11518">
        <ele>6.8</ele>
        <time>2020-06-17T11:08:08Z</time>
      </trkpt>
      <trkpt lat="49.29426" lon="-0.11513">
        <ele>6.8</ele>
        <time>2020-06-17T11:08:09Z</time>
      </trkpt>
      <trkpt lat="49.29427" lon="-0.11507">
        <ele>6.7</ele>
        <time>2020-06-17T11:08:10Z</time>
      </trkpt>
      <trkpt lat="49.29428" lon="-0.11505">
        <ele>6.7</ele>
        <time>2020-06-17T11:08:11Z</time>
      </trkpt>
      <trkpt lat="49.29429" lon="-0.115">
        <ele>6.6</ele>
        <time>2020-06-17T11:08:12Z</time>
      </trkpt>
      <trkpt lat="49.29429" lon="-0.11496">
        <ele>6.6</ele>
        <time>2020-06-17T11:08:13Z</time>
      </trkpt>
      <trkpt lat="49.2943" lon="-0.11491">
        <ele>6.6</ele>
        <time>2020-06-17T11:08:14Z</time>
      </trkpt>
      <trkpt lat="49.29431" lon="-0.11488">
        <ele>6.6</ele>
        <time>2020-06-17T11:08:15Z</time>
      </trkpt>
      <trkpt lat="49.29432" lon="-0.11483">
        <ele>6.5</ele>
        <time>2020-06-17T11:08:16Z</time>
      </trkpt>
      <trkpt lat="49.29433" lon="-0.11478">
        <ele>6.5</ele>
        <time>2020-06-17T11:08:17Z</time>
      </trkpt>
      <trkpt lat="49.29434" lon="-0.11474">
        <ele>6.5</ele>
        <time>2020-06-17T11:08:18Z</time>
      </trkpt>
      <trkpt lat="49.29436" lon="-0.11468">
        <ele>6.5</ele>
        <time>2020-06-17T11:08:19Z</time>
      </trkpt>
      <trkpt lat="49.29436" lon="-0.11466">
        <ele>6.5</ele>
        <time>2020-06-17T11:08:20Z</time>
      </trkpt>
      <trkpt lat="49.29437" lon="-0.11461">
        <ele>6.5</ele>
        <time>2020-06-17T11:08:21Z</time>
      </trkpt>
      <trkpt lat="49.29436" lon="-0.11457">
        <ele>6.6</ele>
        <time>2020-06-17T11:08:22Z</time>
      </trkpt>
      <trkpt lat="49.29436" lon="-0.11456">
        <ele>6.7</ele>
        <time>2020-06-17T11:08:23Z</time>
      </trkpt>
      <trkpt lat="49.29433" lon="-0.11456">
        <ele>6.8</ele>
        <time>2020-06-17T11:08:24Z</time>
      </trkpt>
      <trkpt lat="49.2943" lon="-0.11454">
        <ele>6.9</ele>
        <time>2020-06-17T11:08:25Z</time>
      </trkpt>
      <trkpt lat="49.29426" lon="-0.11454">
        <ele>7.1</ele>
        <time>2020-06-17T11:08:26Z</time>
      </trkpt>
      <trkpt lat="49.29422" lon="-0.11453">
        <ele>7.2</ele>
        <time>2020-06-17T11:08:27Z</time>
      </trkpt>
      <trkpt lat="49.29419" lon="-0.11452">
        <ele>7.4</ele>
        <time>2020-06-17T11:08:28Z</time>
      </trkpt>
      <trkpt lat="49.29418" lon="-0.11451">
        <ele>7.4</ele>
        <time>2020-06-17T11:08:29Z</time>
      </trkpt>
      <trkpt lat="49.29415" lon="-0.1145">
        <ele>7.6</ele>
        <time>2020-06-17T11:08:30Z</time>
      </trkpt>
      <trkpt lat="49.29412" lon="-0.1145">
        <ele>7.7</ele>
        <time>2020-06-17T11:08:31Z</time>
      </trkpt>
      <trkpt lat="49.29408" lon="-0.1145">
        <ele>7.8</ele>
        <time>2020-06-17T11:08:32Z</time>
      </trkpt>
      <trkpt lat="49.29404" lon="-0.11451">
        <ele>8</ele>
        <time>2020-06-17T11:08:33Z</time>
      </trkpt>
      <trkpt lat="49.29401" lon="-0.11451">
        <ele>8.1</ele>
        <time>2020-06-17T11:08:34Z</time>
      </trkpt>
      <trkpt lat="49.29399" lon="-0.11451">
        <ele>8.2</ele>
        <time>2020-06-17T11:08:35Z</time>
      </trkpt>
      <trkpt lat="49.29398" lon="-0.1145">
        <ele>8.3</ele>
        <time>2020-06-17T11:08:36Z</time>
      </trkpt>
      <trkpt lat="49.29396" lon="-0.11449">
        <ele>8.3</ele>
        <time>2020-06-17T11:08:37Z</time>
      </trkpt>
      <trkpt lat="49.29395" lon="-0.11449">
        <ele>8.4</ele>
        <time>2020-06-17T11:08:38Z</time>
      </trkpt>
      <trkpt lat="49.29395" lon="-0.11449">
        <ele>8.4</ele>
        <time>2020-06-17T11:08:39Z</time>
      </trkpt>
      <trkpt lat="49.29394" lon="-0.11449">
        <ele>8.4</ele>
        <time>2020-06-17T11:08:40Z</time>
      </trkpt>
      <trkpt lat="49.29394" lon="-0.11448">
        <ele>8.4</ele>
        <time>2020-06-17T11:08:41Z</time>
      </trkpt>
      <trkpt lat="49.29392" lon="-0.11449">
        <ele>8.5</ele>
        <time>2020-06-17T11:08:42Z</time>
      </trkpt>
      <trkpt lat="49.29391" lon="-0.11449">
        <ele>8.5</ele>
        <time>2020-06-17T11:08:43Z</time>
      </trkpt>
      <trkpt lat="49.29389" lon="-0.1145">
        <ele>8.5</ele>
        <time>2020-06-17T11:08:44Z</time>
      </trkpt>
      <trkpt lat="49.29389" lon="-0.11451">
        <ele>8.5</ele>
        <time>2020-06-17T11:08:45Z</time>
      </trkpt>
      <trkpt lat="49.29388" lon="-0.11454">
        <ele>8.5</ele>
        <time>2020-06-17T11:08:46Z</time>
      </trkpt>
      <trkpt lat="49.29386" lon="-0.11459">
        <ele>8.5</ele>
        <time>2020-06-17T11:08:47Z</time>
      </trkpt>
      <trkpt lat="49.29385" lon="-0.11461">
        <ele>8.5</ele>
        <time>2020-06-17T11:08:48Z</time>
      </trkpt>
      <trkpt lat="49.29384" lon="-0.11465">
        <ele>8.5</ele>
        <time>2020-06-17T11:08:49Z</time>
      </trkpt>
      <trkpt lat="49.29383" lon="-0.11469">
        <ele>8.5</ele>
        <time>2020-06-17T11:08:50Z</time>
      </trkpt>
      <trkpt lat="49.29383" lon="-0.11475">
        <ele>8.5</ele>
        <time>2020-06-17T11:08:51Z</time>
      </trkpt>
      <trkpt lat="49.29382" lon="-0.11477">
        <ele>8.5</ele>
        <time>2020-06-17T11:08:52Z</time>
      </trkpt>
      <trkpt lat="49.29382" lon="-0.11482">
        <ele>8.5</ele>
        <time>2020-06-17T11:08:53Z</time>
      </trkpt>
      <trkpt lat="49.29381" lon="-0.11489">
        <ele>8.5</ele>
        <time>2020-06-17T11:08:54Z</time>
      </trkpt>
      <trkpt lat="49.2938" lon="-0.11496">
        <ele>8.6</ele>
        <time>2020-06-17T11:08:55Z</time>
      </trkpt>
      <trkpt lat="49.29379" lon="-0.11501">
        <ele>8.6</ele>
        <time>2020-06-17T11:08:56Z</time>
      </trkpt>
      <trkpt lat="49.29379" lon="-0.11505">
        <ele>8.6</ele>
        <time>2020-06-17T11:08:57Z</time>
      </trkpt>
      <trkpt lat="49.29378" lon="-0.11511">
        <ele>8.6</ele>
        <time>2020-06-17T11:08:58Z</time>
      </trkpt>
      <trkpt lat="49.29377" lon="-0.11516">
        <ele>8.6</ele>
        <time>2020-06-17T11:08:59Z</time>
      </trkpt>
      <trkpt lat="49.29376" lon="-0.11521">
        <ele>8.6</ele>
        <time>2020-06-17T11:09:00Z</time>
      </trkpt>
      <trkpt lat="49.29375" lon="-0.11525">
        <ele>8.7</ele>
        <time>2020-06-17T11:09:01Z</time>
      </trkpt>
      <trkpt lat="49.29375" lon="-0.11526">
        <ele>8.7</ele>
        <time>2020-06-17T11:09:02Z</time>
      </trkpt>
      <trkpt lat="49.29375" lon="-0.11527">
        <ele>8.7</ele>
        <time>2020-06-17T11:09:03Z</time>
      </trkpt>
      <trkpt lat="49.29375" lon="-0.11527">
        <ele>8.7</ele>
        <time>2020-06-17T11:09:04Z</time>
      </trkpt>
      <trkpt lat="49.29372" lon="-0.11527">
        <ele>8.5</ele>
        <time>2020-06-17T11:09:05Z</time>
      </trkpt>
      <trkpt lat="49.29372" lon="-0.11528">
        <ele>8.5</ele>
        <time>2020-06-17T11:09:06Z</time>
      </trkpt>
      <trkpt lat="49.2937" lon="-0.11531">
        <ele>8.5</ele>
        <time>2020-06-17T11:09:07Z</time>
      </trkpt>
      <trkpt lat="49.29369" lon="-0.11533">
        <ele>8.5</ele>
        <time>2020-06-17T11:09:08Z</time>
      </trkpt>
      <trkpt lat="49.29369" lon="-0.11537">
        <ele>8.5</ele>
        <time>2020-06-17T11:09:09Z</time>
      </trkpt>
      <trkpt lat="49.29368" lon="-0.11539">
        <ele>8.5</ele>
        <time>2020-06-17T11:09:10Z</time>
      </trkpt>
      <trkpt lat="49.29367" lon="-0.11543">
        <ele>8.5</ele>
        <time>2020-06-17T11:09:11Z</time>
      </trkpt>
      <trkpt lat="49.29365" lon="-0.11548">
        <ele>8.5</ele>
        <time>2020-06-17T11:09:12Z</time>
      </trkpt>
      <trkpt lat="49.29363" lon="-0.11552">
        <ele>8.5</ele>
        <time>2020-06-17T11:09:13Z</time>
      </trkpt>
      <trkpt lat="49.29362" lon="-0.11554">
        <ele>8.5</ele>
        <time>2020-06-17T11:09:14Z</time>
      </trkpt>
      <trkpt lat="49.29361" lon="-0.11558">
        <ele>8.5</ele>
        <time>2020-06-17T11:09:15Z</time>
      </trkpt>
      <trkpt lat="49.2936" lon="-0.11561">
        <ele>8.5</ele>
        <time>2020-06-17T11:09:16Z</time>
      </trkpt>
      <trkpt lat="49.29359" lon="-0.11567">
        <ele>8.5</ele>
        <time>2020-06-17T11:09:17Z</time>
      </trkpt>
      <trkpt lat="49.29359" lon="-0.11569">
        <ele>8.5</ele>
        <time>2020-06-17T11:09:18Z</time>
      </trkpt>
      <trkpt lat="49.29357" lon="-0.11573">
        <ele>8.5</ele>
        <time>2020-06-17T11:09:19Z</time>
      </trkpt>
      <trkpt lat="49.29356" lon="-0.11579">
        <ele>8.6</ele>
        <time>2020-06-17T11:09:20Z</time>
      </trkpt>
      <trkpt lat="49.29356" lon="-0.11581">
        <ele>8.6</ele>
        <time>2020-06-17T11:09:21Z</time>
      </trkpt>
      <trkpt lat="49.29355" lon="-0.11586">
        <ele>8.6</ele>
        <time>2020-06-17T11:09:22Z</time>
      </trkpt>
      <trkpt lat="49.29354" lon="-0.11593">
        <ele>8.6</ele>
        <time>2020-06-17T11:09:23Z</time>
      </trkpt>
      <trkpt lat="49.29352" lon="-0.11597">
        <ele>8.6</ele>
        <time>2020-06-17T11:09:24Z</time>
      </trkpt>
      <trkpt lat="49.29349" lon="-0.11598">
        <ele>8.6</ele>
        <time>2020-06-17T11:09:25Z</time>
      </trkpt>
      <trkpt lat="49.29345" lon="-0.116">
        <ele>8.6</ele>
        <time>2020-06-17T11:09:26Z</time>
      </trkpt>
      <trkpt lat="49.29342" lon="-0.11601">
        <ele>8.6</ele>
        <time>2020-06-17T11:09:27Z</time>
      </trkpt>
      <trkpt lat="49.29339" lon="-0.11602">
        <ele>8.6</ele>
        <time>2020-06-17T11:09:28Z</time>
      </trkpt>
      <trkpt lat="49.29336" lon="-0.11603">
        <ele>8.6</ele>
        <time>2020-06-17T11:09:29Z</time>
      </trkpt>
      <trkpt lat="49.29332" lon="-0.11604">
        <ele>8.6</ele>
        <time>2020-06-17T11:09:30Z</time>
      </trkpt>
      <trkpt lat="49.29329" lon="-0.11605">
        <ele>8.6</ele>
        <time>2020-06-17T11:09:31Z</time>
      </trkpt>
      <trkpt lat="49.29327" lon="-0.11604">
        <ele>8.5</ele>
        <time>2020-06-17T11:09:32Z</time>
      </trkpt>
      <trkpt lat="49.29324" lon="-0.11603">
        <ele>8.4</ele>
        <time>2020-06-17T11:09:33Z</time>
      </trkpt>
      <trkpt lat="49.29321" lon="-0.11602">
        <ele>8.3</ele>
        <time>2020-06-17T11:09:34Z</time>
      </trkpt>
      <trkpt lat="49.29317" lon="-0.11601">
        <ele>8.3</ele>
        <time>2020-06-17T11:09:35Z</time>
      </trkpt>
      <trkpt lat="49.29313" lon="-0.11599">
        <ele>8.2</ele>
        <time>2020-06-17T11:09:36Z</time>
      </trkpt>
      <trkpt lat="49.2931" lon="-0.11596">
        <ele>8.2</ele>
        <time>2020-06-17T11:09:37Z</time>
      </trkpt>
      <trkpt lat="49.29306" lon="-0.11593">
        <ele>8.1</ele>
        <time>2020-06-17T11:09:38Z</time>
      </trkpt>
      <trkpt lat="49.29302" lon="-0.11591">
        <ele>8</ele>
        <time>2020-06-17T11:09:39Z</time>
      </trkpt>
      <trkpt lat="49.29298" lon="-0.11589">
        <ele>7.9</ele>
        <time>2020-06-17T11:09:40Z</time>
      </trkpt>
      <trkpt lat="49.29293" lon="-0.11586">
        <ele>7.8</ele>
        <time>2020-06-17T11:09:41Z</time>
      </trkpt>
      <trkpt lat="49.2929" lon="-0.11584">
        <ele>7.6</ele>
        <time>2020-06-17T11:09:42Z</time>
      </trkpt>
      <trkpt lat="49.29285" lon="-0.11583">
        <ele>7.4</ele>
        <time>2020-06-17T11:09:43Z</time>
      </trkpt>
      <trkpt lat="49.2928" lon="-0.11582">
        <ele>7.2</ele>
        <time>2020-06-17T11:09:44Z</time>
      </trkpt>
      <trkpt lat="49.29275" lon="-0.1158">
        <ele>7</ele>
        <time>2020-06-17T11:09:45Z</time>
      </trkpt>
      <trkpt lat="49.2927" lon="-0.11579">
        <ele>6.8</ele>
        <time>2020-06-17T11:09:46Z</time>
      </trkpt>
      <trkpt lat="49.29264" lon="-0.11578">
        <ele>6.6</ele>
        <time>2020-06-17T11:09:47Z</time>
      </trkpt>
      <trkpt lat="49.29259" lon="-0.11577">
        <ele>6.4</ele>
        <time>2020-06-17T11:09:48Z</time>
      </trkpt>
      <trkpt lat="49.29255" lon="-0.11576">
        <ele>6.2</ele>
        <time>2020-06-17T11:09:49Z</time>
      </trkpt>
      <trkpt lat="49.29251" lon="-0.11576">
        <ele>6.1</ele>
        <time>2020-06-17T11:09:50Z</time>
      </trkpt>
      <trkpt lat="49.29248" lon="-0.11576">
        <ele>6</ele>
        <time>2020-06-17T11:09:51Z</time>
      </trkpt>
      <trkpt lat="49.29244" lon="-0.11576">
        <ele>5.9</ele>
        <time>2020-06-17T11:09:52Z</time>
      </trkpt>
      <trkpt lat="49.29243" lon="-0.11576">
        <ele>5.8</ele>
        <time>2020-06-17T11:09:53Z</time>
      </trkpt>
      <trkpt lat="49.29242" lon="-0.11576">
        <ele>5.8</ele>
        <time>2020-06-17T11:09:54Z</time>
      </trkpt>
      <trkpt lat="49.29239" lon="-0.11577">
        <ele>5.8</ele>
        <time>2020-06-17T11:09:55Z</time>
      </trkpt>
      <trkpt lat="49.29237" lon="-0.11579">
        <ele>5.7</ele>
        <time>2020-06-17T11:09:56Z</time>
      </trkpt>
      <trkpt lat="49.29234" lon="-0.1158">
        <ele>5.7</ele>
        <time>2020-06-17T11:09:57Z</time>
      </trkpt>
      <trkpt lat="49.29232" lon="-0.1158">
        <ele>5.7</ele>
        <time>2020-06-17T11:09:58Z</time>
      </trkpt>
      <trkpt lat="49.29228" lon="-0.1158">
        <ele>5.6</ele>
        <time>2020-06-17T11:09:59Z</time>
      </trkpt>
      <trkpt lat="49.29227" lon="-0.1158">
        <ele>5.6</ele>
        <time>2020-06-17T11:10:00Z</time>
      </trkpt>
      <trkpt lat="49.29223" lon="-0.11581">
        <ele>5.6</ele>
        <time>2020-06-17T11:10:01Z</time>
      </trkpt>
      <trkpt lat="49.2922" lon="-0.11583">
        <ele>5.5</ele>
        <time>2020-06-17T11:10:02Z</time>
      </trkpt>
      <trkpt lat="49.29217" lon="-0.11584">
        <ele>5.5</ele>
        <time>2020-06-17T11:10:03Z</time>
      </trkpt>
      <trkpt lat="49.29213" lon="-0.11585">
        <ele>5.5</ele>
        <time>2020-06-17T11:10:04Z</time>
      </trkpt>
      <trkpt lat="49.2921" lon="-0.11586">
        <ele>5.4</ele>
        <time>2020-06-17T11:10:05Z</time>
      </trkpt>
      <trkpt lat="49.29207" lon="-0.11586">
        <ele>5.4</ele>
        <time>2020-06-17T11:10:06Z</time>
      </trkpt>
      <trkpt lat="49.29205" lon="-0.11586">
        <ele>5.4</ele>
        <time>2020-06-17T11:10:07Z</time>
      </trkpt>
      <trkpt lat="49.29202" lon="-0.11587">
        <ele>5.3</ele>
        <time>2020-06-17T11:10:08Z</time>
      </trkpt>
      <trkpt lat="49.292" lon="-0.11588">
        <ele>5.3</ele>
        <time>2020-06-17T11:10:09Z</time>
      </trkpt>
      <trkpt lat="49.29197" lon="-0.11589">
        <ele>5.3</ele>
        <time>2020-06-17T11:10:10Z</time>
      </trkpt>
      <trkpt lat="49.29196" lon="-0.11589">
        <ele>5.3</ele>
        <time>2020-06-17T11:10:11Z</time>
      </trkpt>
      <trkpt lat="49.29193" lon="-0.1159">
        <ele>5.2</ele>
        <time>2020-06-17T11:10:12Z</time>
      </trkpt>
      <trkpt lat="49.29189" lon="-0.11591">
        <ele>5.2</ele>
        <time>2020-06-17T11:10:13Z</time>
      </trkpt>
      <trkpt lat="49.29186" lon="-0.11592">
        <ele>5.2</ele>
        <time>2020-06-17T11:10:14Z</time>
      </trkpt>
      <trkpt lat="49.29182" lon="-0.11594">
        <ele>5.2</ele>
        <time>2020-06-17T11:10:15Z</time>
      </trkpt>
      <trkpt lat="49.29178" lon="-0.11593">
        <ele>5.2</ele>
        <time>2020-06-17T11:10:16Z</time>
      </trkpt>
      <trkpt lat="49.29174" lon="-0.11594">
        <ele>5.2</ele>
        <time>2020-06-17T11:10:17Z</time>
      </trkpt>
      <trkpt lat="49.2917" lon="-0.11594">
        <ele>5.2</ele>
        <time>2020-06-17T11:10:18Z</time>
      </trkpt>
      <trkpt lat="49.29169" lon="-0.11594">
        <ele>5.2</ele>
        <time>2020-06-17T11:10:19Z</time>
      </trkpt>
      <trkpt lat="49.29165" lon="-0.11594">
        <ele>5.2</ele>
        <time>2020-06-17T11:10:20Z</time>
      </trkpt>
      <trkpt lat="49.29164" lon="-0.11594">
        <ele>5.2</ele>
        <time>2020-06-17T11:10:21Z</time>
      </trkpt>
      <trkpt lat="49.2916" lon="-0.11594">
        <ele>5.2</ele>
        <time>2020-06-17T11:10:22Z</time>
      </trkpt>
      <trkpt lat="49.29157" lon="-0.11594">
        <ele>5.2</ele>
        <time>2020-06-17T11:10:23Z</time>
      </trkpt>
      <trkpt lat="49.29154" lon="-0.11593">
        <ele>5.2</ele>
        <time>2020-06-17T11:10:24Z</time>
      </trkpt>
      <trkpt lat="49.29153" lon="-0.11593">
        <ele>5.2</ele>
        <time>2020-06-17T11:10:25Z</time>
      </trkpt>
      <trkpt lat="49.2915" lon="-0.11592">
        <ele>5.2</ele>
        <time>2020-06-17T11:10:26Z</time>
      </trkpt>
      <trkpt lat="49.29149" lon="-0.11592">
        <ele>5.2</ele>
        <time>2020-06-17T11:10:27Z</time>
      </trkpt>
      <trkpt lat="49.29146" lon="-0.11592">
        <ele>5.2</ele>
        <time>2020-06-17T11:10:28Z</time>
      </trkpt>
      <trkpt lat="49.29145" lon="-0.11592">
        <ele>5.2</ele>
        <time>2020-06-17T11:10:29Z</time>
      </trkpt>
      <trkpt lat="49.29141" lon="-0.11593">
        <ele>5.2</ele>
        <time>2020-06-17T11:10:30Z</time>
      </trkpt>
      <trkpt lat="49.2914" lon="-0.11593">
        <ele>5.2</ele>
        <time>2020-06-17T11:10:31Z</time>
      </trkpt>
      <trkpt lat="49.29137" lon="-0.11593">
        <ele>5.2</ele>
        <time>2020-06-17T11:10:32Z</time>
      </trkpt>
      <trkpt lat="49.29135" lon="-0.11594">
        <ele>5.2</ele>
        <time>2020-06-17T11:10:33Z</time>
      </trkpt>
      <trkpt lat="49.29134" lon="-0.11595">
        <ele>5.2</ele>
        <time>2020-06-17T11:10:34Z</time>
      </trkpt>
      <trkpt lat="49.29132" lon="-0.11592">
        <ele>5.3</ele>
        <time>2020-06-17T11:10:35Z</time>
      </trkpt>
      <trkpt lat="49.2913" lon="-0.11592">
        <ele>5.3</ele>
        <time>2020-06-17T11:10:36Z</time>
      </trkpt>
      <trkpt lat="49.29129" lon="-0.11592">
        <ele>5.3</ele>
        <time>2020-06-17T11:10:37Z</time>
      </trkpt>
      <trkpt lat="49.29125" lon="-0.11594">
        <ele>5.3</ele>
        <time>2020-06-17T11:10:38Z</time>
      </trkpt>
      <trkpt lat="49.29124" lon="-0.11595">
        <ele>5.3</ele>
        <time>2020-06-17T11:10:39Z</time>
      </trkpt>
      <trkpt lat="49.29121" lon="-0.11597">
        <ele>5.3</ele>
        <time>2020-06-17T11:10:40Z</time>
      </trkpt>
      <trkpt lat="49.2912" lon="-0.11598">
        <ele>5.3</ele>
        <time>2020-06-17T11:10:41Z</time>
      </trkpt>
      <trkpt lat="49.29116" lon="-0.11599">
        <ele>5.3</ele>
        <time>2020-06-17T11:10:42Z</time>
      </trkpt>
      <trkpt lat="49.29115" lon="-0.11601">
        <ele>5.3</ele>
        <time>2020-06-17T11:10:43Z</time>
      </trkpt>
      <trkpt lat="49.29113" lon="-0.11601">
        <ele>5.4</ele>
        <time>2020-06-17T11:10:44Z</time>
      </trkpt>
      <trkpt lat="49.29112" lon="-0.11601">
        <ele>5.4</ele>
        <time>2020-06-17T11:10:45Z</time>
      </trkpt>
      <trkpt lat="49.2911" lon="-0.11601">
        <ele>5.4</ele>
        <time>2020-06-17T11:10:46Z</time>
      </trkpt>
      <trkpt lat="49.29109" lon="-0.11601">
        <ele>5.4</ele>
        <time>2020-06-17T11:10:47Z</time>
      </trkpt>
      <trkpt lat="49.29108" lon="-0.116">
        <ele>5.4</ele>
        <time>2020-06-17T11:10:48Z</time>
      </trkpt>
      <trkpt lat="49.29107" lon="-0.11601">
        <ele>5.4</ele>
        <time>2020-06-17T11:10:49Z</time>
      </trkpt>
      <trkpt lat="49.29105" lon="-0.11602">
        <ele>5.4</ele>
        <time>2020-06-17T11:10:50Z</time>
      </trkpt>
      <trkpt lat="49.29104" lon="-0.11603">
        <ele>5.4</ele>
        <time>2020-06-17T11:10:51Z</time>
      </trkpt>
      <trkpt lat="49.29103" lon="-0.11601">
        <ele>5.4</ele>
        <time>2020-06-17T11:10:52Z</time>
      </trkpt>
      <trkpt lat="49.29103" lon="-0.116">
        <ele>5.4</ele>
        <time>2020-06-17T11:10:53Z</time>
      </trkpt>
      <trkpt lat="49.29102" lon="-0.116">
        <ele>5.4</ele>
        <time>2020-06-17T11:10:54Z</time>
      </trkpt>
      <trkpt lat="49.29101" lon="-0.116">
        <ele>5.4</ele>
        <time>2020-06-17T11:10:55Z</time>
      </trkpt>
      <trkpt lat="49.29101" lon="-0.116">
        <ele>5.4</ele>
        <time>2020-06-17T11:10:56Z</time>
      </trkpt>
      <trkpt lat="49.291" lon="-0.116">
        <ele>5.4</ele>
        <time>2020-06-17T11:10:57Z</time>
      </trkpt>
      <trkpt lat="49.291" lon="-0.11601">
        <ele>5.4</ele>
        <time>2020-06-17T11:10:58Z</time>
      </trkpt>
      <trkpt lat="49.29099" lon="-0.11601">
        <ele>5.4</ele>
        <time>2020-06-17T11:10:59Z</time>
      </trkpt>
      <trkpt lat="49.29097" lon="-0.11603">
        <ele>5.5</ele>
        <time>2020-06-17T11:11:00Z</time>
      </trkpt>
      <trkpt lat="49.29096" lon="-0.11604">
        <ele>5.5</ele>
        <time>2020-06-17T11:11:01Z</time>
      </trkpt>
      <trkpt lat="49.29094" lon="-0.11606">
        <ele>5.5</ele>
        <time>2020-06-17T11:11:02Z</time>
      </trkpt>
      <trkpt lat="49.29093" lon="-0.11608">
        <ele>5.5</ele>
        <time>2020-06-17T11:11:03Z</time>
      </trkpt>
      <trkpt lat="49.29091" lon="-0.11607">
        <ele>5.5</ele>
        <time>2020-06-17T11:11:04Z</time>
      </trkpt>
      <trkpt lat="49.2909" lon="-0.11607">
        <ele>5.5</ele>
        <time>2020-06-17T11:11:05Z</time>
      </trkpt>
      <trkpt lat="49.29089" lon="-0.11606">
        <ele>5.5</ele>
        <time>2020-06-17T11:11:06Z</time>
      </trkpt>
      <trkpt lat="49.29087" lon="-0.11604">
        <ele>5.5</ele>
        <time>2020-06-17T11:11:07Z</time>
      </trkpt>
      <trkpt lat="49.29083" lon="-0.11604">
        <ele>5.5</ele>
        <time>2020-06-17T11:11:08Z</time>
      </trkpt>
      <trkpt lat="49.29082" lon="-0.11604">
        <ele>5.5</ele>
        <time>2020-06-17T11:11:09Z</time>
      </trkpt>
      <trkpt lat="49.29078" lon="-0.11605">
        <ele>5.5</ele>
        <time>2020-06-17T11:11:10Z</time>
      </trkpt>
      <trkpt lat="49.29077" lon="-0.11605">
        <ele>5.5</ele>
        <time>2020-06-17T11:11:11Z</time>
      </trkpt>
      <trkpt lat="49.29074" lon="-0.11605">
        <ele>5.5</ele>
        <time>2020-06-17T11:11:12Z</time>
      </trkpt>
      <trkpt lat="49.29071" lon="-0.11605">
        <ele>5.5</ele>
        <time>2020-06-17T11:11:13Z</time>
      </trkpt>
      <trkpt lat="49.29068" lon="-0.11607">
        <ele>5.5</ele>
        <time>2020-06-17T11:11:14Z</time>
      </trkpt>
      <trkpt lat="49.29066" lon="-0.11608">
        <ele>5.5</ele>
        <time>2020-06-17T11:11:15Z</time>
      </trkpt>
      <trkpt lat="49.29063" lon="-0.11606">
        <ele>5.5</ele>
        <time>2020-06-17T11:11:16Z</time>
      </trkpt>
      <trkpt lat="49.2906" lon="-0.11607">
        <ele>5.5</ele>
        <time>2020-06-17T11:11:17Z</time>
      </trkpt>
      <trkpt lat="49.29057" lon="-0.11608">
        <ele>5.5</ele>
        <time>2020-06-17T11:11:18Z</time>
      </trkpt>
      <trkpt lat="49.29056" lon="-0.11612">
        <ele>5.6</ele>
        <time>2020-06-17T11:11:19Z</time>
      </trkpt>
      <trkpt lat="49.29054" lon="-0.11617">
        <ele>5.6</ele>
        <time>2020-06-17T11:11:20Z</time>
      </trkpt>
      <trkpt lat="49.29053" lon="-0.11619">
        <ele>5.6</ele>
        <time>2020-06-17T11:11:21Z</time>
      </trkpt>
      <trkpt lat="49.29052" lon="-0.11619">
        <ele>5.6</ele>
        <time>2020-06-17T11:11:22Z</time>
      </trkpt>
      <trkpt lat="49.29051" lon="-0.11619">
        <ele>5.6</ele>
        <time>2020-06-17T11:11:23Z</time>
      </trkpt>
      <trkpt lat="49.29047" lon="-0.11618">
        <ele>5.6</ele>
        <time>2020-06-17T11:11:24Z</time>
      </trkpt>
      <trkpt lat="49.29045" lon="-0.11618">
        <ele>5.6</ele>
        <time>2020-06-17T11:11:25Z</time>
      </trkpt>
      <trkpt lat="49.29042" lon="-0.11619">
        <ele>5.6</ele>
        <time>2020-06-17T11:11:26Z</time>
      </trkpt>
      <trkpt lat="49.29041" lon="-0.11619">
        <ele>5.6</ele>
        <time>2020-06-17T11:11:27Z</time>
      </trkpt>
      <trkpt lat="49.29038" lon="-0.11618">
        <ele>5.6</ele>
        <time>2020-06-17T11:11:28Z</time>
      </trkpt>
      <trkpt lat="49.29037" lon="-0.11617">
        <ele>5.6</ele>
        <time>2020-06-17T11:11:29Z</time>
      </trkpt>
      <trkpt lat="49.29033" lon="-0.11618">
        <ele>5.6</ele>
        <time>2020-06-17T11:11:30Z</time>
      </trkpt>
      <trkpt lat="49.29032" lon="-0.11618">
        <ele>5.6</ele>
        <time>2020-06-17T11:11:31Z</time>
      </trkpt>
      <trkpt lat="49.29028" lon="-0.11617">
        <ele>5.6</ele>
        <time>2020-06-17T11:11:32Z</time>
      </trkpt>
      <trkpt lat="49.29027" lon="-0.11617">
        <ele>5.6</ele>
        <time>2020-06-17T11:11:33Z</time>
      </trkpt>
      <trkpt lat="49.29024" lon="-0.11618">
        <ele>5.5</ele>
        <time>2020-06-17T11:11:34Z</time>
      </trkpt>
      <trkpt lat="49.29021" lon="-0.11618">
        <ele>5.5</ele>
        <time>2020-06-17T11:11:35Z</time>
      </trkpt>
      <trkpt lat="49.29018" lon="-0.11618">
        <ele>5.5</ele>
        <time>2020-06-17T11:11:36Z</time>
      </trkpt>
      <trkpt lat="49.29014" lon="-0.11619">
        <ele>5.5</ele>
        <time>2020-06-17T11:11:37Z</time>
      </trkpt>
      <trkpt lat="49.29013" lon="-0.11619">
        <ele>5.5</ele>
        <time>2020-06-17T11:11:38Z</time>
      </trkpt>
      <trkpt lat="49.2901" lon="-0.11621">
        <ele>5.5</ele>
        <time>2020-06-17T11:11:39Z</time>
      </trkpt>
      <trkpt lat="49.29009" lon="-0.11621">
        <ele>5.5</ele>
        <time>2020-06-17T11:11:40Z</time>
      </trkpt>
      <trkpt lat="49.29006" lon="-0.11622">
        <ele>5.5</ele>
        <time>2020-06-17T11:11:41Z</time>
      </trkpt>
      <trkpt lat="49.29005" lon="-0.11622">
        <ele>5.5</ele>
        <time>2020-06-17T11:11:42Z</time>
      </trkpt>
      <trkpt lat="49.29002" lon="-0.11624">
        <ele>5.5</ele>
        <time>2020-06-17T11:11:43Z</time>
      </trkpt>
      <trkpt lat="49.28998" lon="-0.11625">
        <ele>5.5</ele>
        <time>2020-06-17T11:11:44Z</time>
      </trkpt>
      <trkpt lat="49.28995" lon="-0.11626">
        <ele>5.5</ele>
        <time>2020-06-17T11:11:45Z</time>
      </trkpt>
      <trkpt lat="49.28993" lon="-0.11625">
        <ele>5.5</ele>
        <time>2020-06-17T11:11:46Z</time>
      </trkpt>
      <trkpt lat="49.2899" lon="-0.11625">
        <ele>5.5</ele>
        <time>2020-06-17T11:11:47Z</time>
      </trkpt>
      <trkpt lat="49.28989" lon="-0.11625">
        <ele>5.5</ele>
        <time>2020-06-17T11:11:48Z</time>
      </trkpt>
      <trkpt lat="49.28985" lon="-0.11626">
        <ele>5.5</ele>
        <time>2020-06-17T11:11:49Z</time>
      </trkpt>
      <trkpt lat="49.28984" lon="-0.11627">
        <ele>5.5</ele>
        <time>2020-06-17T11:11:50Z</time>
      </trkpt>
      <trkpt lat="49.28982" lon="-0.11628">
        <ele>5.5</ele>
        <time>2020-06-17T11:11:51Z</time>
      </trkpt>
      <trkpt lat="49.28979" lon="-0.11628">
        <ele>5.4</ele>
        <time>2020-06-17T11:11:52Z</time>
      </trkpt>
      <trkpt lat="49.28975" lon="-0.11629">
        <ele>5.4</ele>
        <time>2020-06-17T11:11:53Z</time>
      </trkpt>
      <trkpt lat="49.28972" lon="-0.11629">
        <ele>5.4</ele>
        <time>2020-06-17T11:11:54Z</time>
      </trkpt>
      <trkpt lat="49.28969" lon="-0.11631">
        <ele>5.4</ele>
        <time>2020-06-17T11:11:55Z</time>
      </trkpt>
      <trkpt lat="49.28966" lon="-0.11632">
        <ele>5.3</ele>
        <time>2020-06-17T11:11:56Z</time>
      </trkpt>
      <trkpt lat="49.28963" lon="-0.11632">
        <ele>5.3</ele>
        <time>2020-06-17T11:11:57Z</time>
      </trkpt>
      <trkpt lat="49.2896" lon="-0.11631">
        <ele>5.3</ele>
        <time>2020-06-17T11:11:58Z</time>
      </trkpt>
      <trkpt lat="49.28957" lon="-0.1163">
        <ele>5.3</ele>
        <time>2020-06-17T11:11:59Z</time>
      </trkpt>
      <trkpt lat="49.28954" lon="-0.11632">
        <ele>5.3</ele>
        <time>2020-06-17T11:12:00Z</time>
      </trkpt>
      <trkpt lat="49.28953" lon="-0.11632">
        <ele>5.3</ele>
        <time>2020-06-17T11:12:01Z</time>
      </trkpt>
      <trkpt lat="49.28952" lon="-0.11634">
        <ele>5.3</ele>
        <time>2020-06-17T11:12:02Z</time>
      </trkpt>
      <trkpt lat="49.2895" lon="-0.11634">
        <ele>5.3</ele>
        <time>2020-06-17T11:12:03Z</time>
      </trkpt>
      <trkpt lat="49.28949" lon="-0.11637">
        <ele>5.3</ele>
        <time>2020-06-17T11:12:04Z</time>
      </trkpt>
      <trkpt lat="49.28948" lon="-0.11638">
        <ele>5.3</ele>
        <time>2020-06-17T11:12:05Z</time>
      </trkpt>
      <trkpt lat="49.28947" lon="-0.11638">
        <ele>5.3</ele>
        <time>2020-06-17T11:12:06Z</time>
      </trkpt>
      <trkpt lat="49.28946" lon="-0.11638">
        <ele>5.3</ele>
        <time>2020-06-17T11:12:07Z</time>
      </trkpt>
      <trkpt lat="49.28945" lon="-0.11636">
        <ele>5.3</ele>
        <time>2020-06-17T11:12:08Z</time>
      </trkpt>
      <trkpt lat="49.28944" lon="-0.11635">
        <ele>5.3</ele>
        <time>2020-06-17T11:12:09Z</time>
      </trkpt>
      <trkpt lat="49.28942" lon="-0.11634">
        <ele>5.3</ele>
        <time>2020-06-17T11:12:10Z</time>
      </trkpt>
      <trkpt lat="49.28941" lon="-0.11636">
        <ele>5.3</ele>
        <time>2020-06-17T11:12:11Z</time>
      </trkpt>
      <trkpt lat="49.28939" lon="-0.11637">
        <ele>5.3</ele>
        <time>2020-06-17T11:12:12Z</time>
      </trkpt>
      <trkpt lat="49.28939" lon="-0.11637">
        <ele>5.3</ele>
        <time>2020-06-17T11:12:13Z</time>
      </trkpt>
      <trkpt lat="49.28939" lon="-0.11636">
        <ele>5.3</ele>
        <time>2020-06-17T11:12:14Z</time>
      </trkpt>
      <trkpt lat="49.28938" lon="-0.11635">
        <ele>5.3</ele>
        <time>2020-06-17T11:12:15Z</time>
      </trkpt>
      <trkpt lat="49.28938" lon="-0.11633">
        <ele>5.3</ele>
        <time>2020-06-17T11:12:16Z</time>
      </trkpt>
      <trkpt lat="49.28938" lon="-0.11631">
        <ele>5.3</ele>
        <time>2020-06-17T11:12:17Z</time>
      </trkpt>
      <trkpt lat="49.28938" lon="-0.11632">
        <ele>5.3</ele>
        <time>2020-06-17T11:12:18Z</time>
      </trkpt>
      <trkpt lat="49.28937" lon="-0.11633">
        <ele>5.3</ele>
        <time>2020-06-17T11:12:19Z</time>
      </trkpt>
      <trkpt lat="49.28936" lon="-0.11635">
        <ele>5.3</ele>
        <time>2020-06-17T11:12:20Z</time>
      </trkpt>
      <trkpt lat="49.28936" lon="-0.11633">
        <ele>5.3</ele>
        <time>2020-06-17T11:12:21Z</time>
      </trkpt>
      <trkpt lat="49.28935" lon="-0.11633">
        <ele>5.3</ele>
        <time>2020-06-17T11:12:22Z</time>
      </trkpt>
      <trkpt lat="49.28935" lon="-0.11632">
        <ele>5.2</ele>
        <time>2020-06-17T11:12:23Z</time>
      </trkpt>
      <trkpt lat="49.28934" lon="-0.11631">
        <ele>5.2</ele>
        <time>2020-06-17T11:12:24Z</time>
      </trkpt>
      <trkpt lat="49.28934" lon="-0.11632">
        <ele>5.2</ele>
        <time>2020-06-17T11:12:25Z</time>
      </trkpt>
      <trkpt lat="49.28934" lon="-0.11632">
        <ele>5.2</ele>
        <time>2020-06-17T11:12:26Z</time>
      </trkpt>
      <trkpt lat="49.28933" lon="-0.11632">
        <ele>5.2</ele>
        <time>2020-06-17T11:12:27Z</time>
      </trkpt>
      <trkpt lat="49.28933" lon="-0.11632">
        <ele>5.2</ele>
        <time>2020-06-17T11:12:28Z</time>
      </trkpt>
      <trkpt lat="49.28933" lon="-0.11633">
        <ele>5.2</ele>
        <time>2020-06-17T11:12:29Z</time>
      </trkpt>
      <trkpt lat="49.28932" lon="-0.11633">
        <ele>5.2</ele>
        <time>2020-06-17T11:12:30Z</time>
      </trkpt>
      <trkpt lat="49.28932" lon="-0.11632">
        <ele>5.2</ele>
        <time>2020-06-17T11:12:31Z</time>
      </trkpt>
      <trkpt lat="49.28932" lon="-0.11633">
        <ele>5.2</ele>
        <time>2020-06-17T11:12:32Z</time>
      </trkpt>
      <trkpt lat="49.28932" lon="-0.11632">
        <ele>5.2</ele>
        <time>2020-06-17T11:12:33Z</time>
      </trkpt>
      <trkpt lat="49.28931" lon="-0.11633">
        <ele>5.2</ele>
        <time>2020-06-17T11:12:34Z</time>
      </trkpt>
      <trkpt lat="49.28931" lon="-0.11633">
        <ele>5.2</ele>
        <time>2020-06-17T11:12:35Z</time>
      </trkpt>
      <trkpt lat="49.28931" lon="-0.11633">
        <ele>5.2</ele>
        <time>2020-06-17T11:12:36Z</time>
      </trkpt>
      <trkpt lat="49.28931" lon="-0.11633">
        <ele>5.2</ele>
        <time>2020-06-17T11:12:37Z</time>
      </trkpt>
      <trkpt lat="49.28931" lon="-0.11633">
        <ele>5.2</ele>
        <time>2020-06-17T11:12:38Z</time>
      </trkpt>
      <trkpt lat="49.28931" lon="-0.11633">
        <ele>5.2</ele>
        <time>2020-06-17T11:12:39Z</time>
      </trkpt>
      <trkpt lat="49.28931" lon="-0.11633">
        <ele>5.2</ele>
        <time>2020-06-17T11:12:40Z</time>
      </trkpt>
      <trkpt lat="49.28931" lon="-0.11633">
        <ele>5.2</ele>
        <time>2020-06-17T11:12:41Z</time>
      </trkpt>
      <trkpt lat="49.28931" lon="-0.11633">
        <ele>5.2</ele>
        <time>2020-06-17T11:12:42Z</time>
      </trkpt>
      <trkpt lat="49.28931" lon="-0.11633">
        <ele>5.2</ele>
        <time>2020-06-17T11:12:43Z</time>
      </trkpt>
      <trkpt lat="49.28931" lon="-0.11633">
        <ele>5.2</ele>
        <time>2020-06-17T11:12:44Z</time>
      </trkpt>
      <trkpt lat="49.28931" lon="-0.11633">
        <ele>5.2</ele>
        <time>2020-06-17T11:12:45Z</time>
      </trkpt>
      <trkpt lat="49.28933" lon="-0.1163">
        <ele>5.2</ele>
        <time>2020-06-17T11:14:51Z</time>
      </trkpt>
      <trkpt lat="49.28932" lon="-0.11632">
        <ele>5.2</ele>
        <time>2020-06-17T11:14:52Z</time>
      </trkpt>
      <trkpt lat="49.28931" lon="-0.11634">
        <ele>5.2</ele>
        <time>2020-06-17T11:14:53Z</time>
      </trkpt>
      <trkpt lat="49.2893" lon="-0.11635">
        <ele>5.2</ele>
        <time>2020-06-17T11:14:54Z</time>
      </trkpt>
      <trkpt lat="49.2893" lon="-0.11636">
        <ele>5.2</ele>
        <time>2020-06-17T11:14:55Z</time>
      </trkpt>
      <trkpt lat="49.2893" lon="-0.11637">
        <ele>5.2</ele>
        <time>2020-06-17T11:14:56Z</time>
      </trkpt>
      <trkpt lat="49.28929" lon="-0.11638">
        <ele>5.2</ele>
        <time>2020-06-17T11:14:57Z</time>
      </trkpt>
      <trkpt lat="49.28929" lon="-0.11639">
        <ele>5.2</ele>
        <time>2020-06-17T11:14:58Z</time>
      </trkpt>
      <trkpt lat="49.28928" lon="-0.1164">
        <ele>5.2</ele>
        <time>2020-06-17T11:14:59Z</time>
      </trkpt>
      <trkpt lat="49.28928" lon="-0.11641">
        <ele>5.2</ele>
        <time>2020-06-17T11:15:00Z</time>
      </trkpt>
      <trkpt lat="49.28927" lon="-0.11642">
        <ele>5.2</ele>
        <time>2020-06-17T11:15:01Z</time>
      </trkpt>
      <trkpt lat="49.28927" lon="-0.11643">
        <ele>5.2</ele>
        <time>2020-06-17T11:15:02Z</time>
      </trkpt>
      <trkpt lat="49.28926" lon="-0.11645">
        <ele>5.2</ele>
        <time>2020-06-17T11:15:03Z</time>
      </trkpt>
      <trkpt lat="49.28926" lon="-0.11646">
        <ele>5.2</ele>
        <time>2020-06-17T11:15:04Z</time>
      </trkpt>
      <trkpt lat="49.28926" lon="-0.11646">
        <ele>5.2</ele>
        <time>2020-06-17T11:15:05Z</time>
      </trkpt>
      <trkpt lat="49.28926" lon="-0.1165">
        <ele>5.2</ele>
        <time>2020-06-17T11:15:20Z</time>
      </trkpt>
      <trkpt lat="49.28925" lon="-0.11652">
        <ele>5.2</ele>
        <time>2020-06-17T11:15:21Z</time>
      </trkpt>
      <trkpt lat="49.28925" lon="-0.11652">
        <ele>5.2</ele>
        <time>2020-06-17T11:15:22Z</time>
      </trkpt>
      <trkpt lat="49.28924" lon="-0.11653">
        <ele>5.2</ele>
        <time>2020-06-17T11:15:23Z</time>
      </trkpt>
      <trkpt lat="49.28924" lon="-0.11654">
        <ele>5.2</ele>
        <time>2020-06-17T11:15:24Z</time>
      </trkpt>
      <trkpt lat="49.28923" lon="-0.11657">
        <ele>5.2</ele>
        <time>2020-06-17T11:15:25Z</time>
      </trkpt>
      <trkpt lat="49.28923" lon="-0.11657">
        <ele>5.2</ele>
        <time>2020-06-17T11:15:26Z</time>
      </trkpt>
      <trkpt lat="49.28922" lon="-0.11658">
        <ele>5.2</ele>
        <time>2020-06-17T11:15:27Z</time>
      </trkpt>
      <trkpt lat="49.28921" lon="-0.1166">
        <ele>5.2</ele>
        <time>2020-06-17T11:15:28Z</time>
      </trkpt>
      <trkpt lat="49.28922" lon="-0.11661">
        <ele>5.2</ele>
        <time>2020-06-17T11:15:29Z</time>
      </trkpt>
      <trkpt lat="49.28923" lon="-0.11658">
        <ele>5.2</ele>
        <time>2020-06-17T11:15:30Z</time>
      </trkpt>
      <trkpt lat="49.28923" lon="-0.11657">
        <ele>5.2</ele>
        <time>2020-06-17T11:15:31Z</time>
      </trkpt>
      <trkpt lat="49.28923" lon="-0.11656">
        <ele>5.2</ele>
        <time>2020-06-17T11:15:32Z</time>
      </trkpt>
      <trkpt lat="49.28924" lon="-0.11656">
        <ele>5.2</ele>
        <time>2020-06-17T11:15:33Z</time>
      </trkpt>
      <trkpt lat="49.28924" lon="-0.11655">
        <ele>5.2</ele>
        <time>2020-06-17T11:15:34Z</time>
      </trkpt>
      <trkpt lat="49.28924" lon="-0.11653">
        <ele>5.2</ele>
        <time>2020-06-17T11:15:35Z</time>
      </trkpt>
      <trkpt lat="49.28925" lon="-0.11652">
        <ele>5.2</ele>
        <time>2020-06-17T11:15:36Z</time>
      </trkpt>
      <trkpt lat="49.28925" lon="-0.1165">
        <ele>5.2</ele>
        <time>2020-06-17T11:15:37Z</time>
      </trkpt>
      <trkpt lat="49.28925" lon="-0.1165">
        <ele>5.2</ele>
        <time>2020-06-17T11:15:38Z</time>
      </trkpt>
      <trkpt lat="49.28925" lon="-0.11649">
        <ele>5.2</ele>
        <time>2020-06-17T11:15:39Z</time>
      </trkpt>
      <trkpt lat="49.28925" lon="-0.1165">
        <ele>5.2</ele>
        <time>2020-06-17T11:15:40Z</time>
      </trkpt>
      <trkpt lat="49.28925" lon="-0.1165">
        <ele>5.2</ele>
        <time>2020-06-17T11:15:41Z</time>
      </trkpt>
      <trkpt lat="49.28925" lon="-0.1165">
        <ele>5.2</ele>
        <time>2020-06-17T11:15:42Z</time>
      </trkpt>
      <trkpt lat="49.28925" lon="-0.1165">
        <ele>5.2</ele>
        <time>2020-06-17T11:15:43Z</time>
      </trkpt>
      <trkpt lat="49.28926" lon="-0.11649">
        <ele>5.2</ele>
        <time>2020-06-17T11:15:44Z</time>
      </trkpt>
      <trkpt lat="49.28926" lon="-0.11649">
        <ele>5.2</ele>
        <time>2020-06-17T11:15:45Z</time>
      </trkpt>
      <trkpt lat="49.28926" lon="-0.11648">
        <ele>5.2</ele>
        <time>2020-06-17T11:15:46Z</time>
      </trkpt>
      <trkpt lat="49.28926" lon="-0.11648">
        <ele>5.2</ele>
        <time>2020-06-17T11:15:47Z</time>
      </trkpt>
      <trkpt lat="49.28926" lon="-0.11648">
        <ele>5.2</ele>
        <time>2020-06-17T11:15:48Z</time>
      </trkpt>
      <trkpt lat="49.28927" lon="-0.11619">
        <ele>5.2</ele>
        <time>2020-06-17T11:16:50Z</time>
      </trkpt>
      <trkpt lat="49.28927" lon="-0.11618">
        <ele>5.2</ele>
        <time>2020-06-17T11:16:51Z</time>
      </trkpt>
      <trkpt lat="49.28926" lon="-0.11617">
        <ele>5.2</ele>
        <time>2020-06-17T11:16:52Z</time>
      </trkpt>
      <trkpt lat="49.28926" lon="-0.11617">
        <ele>5.2</ele>
        <time>2020-06-17T11:16:53Z</time>
      </trkpt>
      <trkpt lat="49.28926" lon="-0.11617">
        <ele>5.2</ele>
        <time>2020-06-17T11:16:54Z</time>
      </trkpt>
      <trkpt lat="49.28926" lon="-0.11618">
        <ele>5.2</ele>
        <time>2020-06-17T11:16:55Z</time>
      </trkpt>
      <trkpt lat="49.28926" lon="-0.11619">
        <ele>5.2</ele>
        <time>2020-06-17T11:16:56Z</time>
      </trkpt>
      <trkpt lat="49.28926" lon="-0.1162">
        <ele>5.2</ele>
        <time>2020-06-17T11:16:57Z</time>
      </trkpt>
      <trkpt lat="49.28926" lon="-0.1162">
        <ele>5.2</ele>
        <time>2020-06-17T11:16:58Z</time>
      </trkpt>
      <trkpt lat="49.28926" lon="-0.11618">
        <ele>5.2</ele>
        <time>2020-06-17T11:16:59Z</time>
      </trkpt>
      <trkpt lat="49.28926" lon="-0.11617">
        <ele>5.2</ele>
        <time>2020-06-17T11:17:00Z</time>
      </trkpt>
      <trkpt lat="49.28926" lon="-0.11616">
        <ele>5.2</ele>
        <time>2020-06-17T11:17:01Z</time>
      </trkpt>
      <trkpt lat="49.28926" lon="-0.11616">
        <ele>5.2</ele>
        <time>2020-06-17T11:17:02Z</time>
      </trkpt>
      <trkpt lat="49.28926" lon="-0.11615">
        <ele>5.2</ele>
        <time>2020-06-17T11:17:03Z</time>
      </trkpt>
      <trkpt lat="49.28926" lon="-0.11615">
        <ele>5.2</ele>
        <time>2020-06-17T11:17:04Z</time>
      </trkpt>
      <trkpt lat="49.28926" lon="-0.11615">
        <ele>5.2</ele>
        <time>2020-06-17T11:17:05Z</time>
      </trkpt>
      <trkpt lat="49.28926" lon="-0.11615">
        <ele>5.2</ele>
        <time>2020-06-17T11:17:06Z</time>
      </trkpt>
      <trkpt lat="49.28927" lon="-0.11614">
        <ele>5.2</ele>
        <time>2020-06-17T11:17:07Z</time>
      </trkpt>
      <trkpt lat="49.28927" lon="-0.11614">
        <ele>5.2</ele>
        <time>2020-06-17T11:17:08Z</time>
      </trkpt>
      <trkpt lat="49.28927" lon="-0.11614">
        <ele>5.2</ele>
        <time>2020-06-17T11:17:09Z</time>
      </trkpt>
      <trkpt lat="49.28928" lon="-0.11614">
        <ele>5.2</ele>
        <time>2020-06-17T11:17:10Z</time>
      </trkpt>
      <trkpt lat="49.28928" lon="-0.11615">
        <ele>5.2</ele>
        <time>2020-06-17T11:17:11Z</time>
      </trkpt>
      <trkpt lat="49.28928" lon="-0.11616">
        <ele>5.2</ele>
        <time>2020-06-17T11:17:12Z</time>
      </trkpt>
      <trkpt lat="49.28927" lon="-0.11615">
        <ele>5.2</ele>
        <time>2020-06-17T11:17:13Z</time>
      </trkpt>
      <trkpt lat="49.28927" lon="-0.11614">
        <ele>5.2</ele>
        <time>2020-06-17T11:17:14Z</time>
      </trkpt>
      <trkpt lat="49.28927" lon="-0.11613">
        <ele>5.2</ele>
        <time>2020-06-17T11:17:15Z</time>
      </trkpt>
      <trkpt lat="49.28927" lon="-0.11612">
        <ele>5.2</ele>
        <time>2020-06-17T11:17:16Z</time>
      </trkpt>
      <trkpt lat="49.28928" lon="-0.11612">
        <ele>5.2</ele>
        <time>2020-06-17T11:17:17Z</time>
      </trkpt>
      <trkpt lat="49.28927" lon="-0.11612">
        <ele>5.2</ele>
        <time>2020-06-17T11:17:18Z</time>
      </trkpt>
      <trkpt lat="49.28927" lon="-0.11611">
        <ele>5.2</ele>
        <time>2020-06-17T11:17:19Z</time>
      </trkpt>
      <trkpt lat="49.28928" lon="-0.11612">
        <ele>5.2</ele>
        <time>2020-06-17T11:17:20Z</time>
      </trkpt>
      <trkpt lat="49.28928" lon="-0.11612">
        <ele>5.2</ele>
        <time>2020-06-17T11:17:21Z</time>
      </trkpt>
      <trkpt lat="49.28927" lon="-0.11612">
        <ele>5.2</ele>
        <time>2020-06-17T11:17:22Z</time>
      </trkpt>
      <trkpt lat="49.28927" lon="-0.11613">
        <ele>5.2</ele>
        <time>2020-06-17T11:17:23Z</time>
      </trkpt>
      <trkpt lat="49.28926" lon="-0.11613">
        <ele>5.2</ele>
        <time>2020-06-17T11:17:24Z</time>
      </trkpt>
      <trkpt lat="49.28926" lon="-0.11613">
        <ele>5.2</ele>
        <time>2020-06-17T11:17:25Z</time>
      </trkpt>
      <trkpt lat="49.28926" lon="-0.11613">
        <ele>5.2</ele>
        <time>2020-06-17T11:17:26Z</time>
      </trkpt>
      <trkpt lat="49.28926" lon="-0.11612">
        <ele>5.2</ele>
        <time>2020-06-17T11:17:27Z</time>
      </trkpt>
      <trkpt lat="49.28926" lon="-0.11612">
        <ele>5.2</ele>
        <time>2020-06-17T11:17:28Z</time>
      </trkpt>
      <trkpt lat="49.28925" lon="-0.11612">
        <ele>5.2</ele>
        <time>2020-06-17T11:17:29Z</time>
      </trkpt>
      <trkpt lat="49.28925" lon="-0.11611">
        <ele>5.2</ele>
        <time>2020-06-17T11:17:30Z</time>
      </trkpt>
      <trkpt lat="49.28925" lon="-0.11611">
        <ele>5.2</ele>
        <time>2020-06-17T11:17:31Z</time>
      </trkpt>
      <trkpt lat="49.28924" lon="-0.11612">
        <ele>5.2</ele>
        <time>2020-06-17T11:17:32Z</time>
      </trkpt>
      <trkpt lat="49.28923" lon="-0.11612">
        <ele>5.2</ele>
        <time>2020-06-17T11:17:33Z</time>
      </trkpt>
      <trkpt lat="49.28922" lon="-0.11612">
        <ele>5.2</ele>
        <time>2020-06-17T11:17:34Z</time>
      </trkpt>
      <trkpt lat="49.28922" lon="-0.11611">
        <ele>5.2</ele>
        <time>2020-06-17T11:17:35Z</time>
      </trkpt>
      <trkpt lat="49.28921" lon="-0.11611">
        <ele>5.2</ele>
        <time>2020-06-17T11:17:36Z</time>
      </trkpt>
      <trkpt lat="49.28921" lon="-0.11611">
        <ele>5.2</ele>
        <time>2020-06-17T11:17:37Z</time>
      </trkpt>
      <trkpt lat="49.2892" lon="-0.1161">
        <ele>5.2</ele>
        <time>2020-06-17T11:17:38Z</time>
      </trkpt>
      <trkpt lat="49.2892" lon="-0.1161">
        <ele>5.2</ele>
        <time>2020-06-17T11:17:39Z</time>
      </trkpt>
      <trkpt lat="49.2892" lon="-0.1161">
        <ele>5.2</ele>
        <time>2020-06-17T11:17:40Z</time>
      </trkpt>
      <trkpt lat="49.2892" lon="-0.1161">
        <ele>5.2</ele>
        <time>2020-06-17T11:17:41Z</time>
      </trkpt>
      <trkpt lat="49.28921" lon="-0.1161">
        <ele>5.2</ele>
        <time>2020-06-17T11:17:42Z</time>
      </trkpt>
      <trkpt lat="49.28921" lon="-0.1161">
        <ele>5.2</ele>
        <time>2020-06-17T11:17:43Z</time>
      </trkpt>
      <trkpt lat="49.28922" lon="-0.1161">
        <ele>5.2</ele>
        <time>2020-06-17T11:17:44Z</time>
      </trkpt>
      <trkpt lat="49.28922" lon="-0.1161">
        <ele>5.2</ele>
        <time>2020-06-17T11:17:45Z</time>
      </trkpt>
      <trkpt lat="49.28923" lon="-0.1161">
        <ele>5.2</ele>
        <time>2020-06-17T11:17:46Z</time>
      </trkpt>
      <trkpt lat="49.28923" lon="-0.1161">
        <ele>5.2</ele>
        <time>2020-06-17T11:17:47Z</time>
      </trkpt>
      <trkpt lat="49.28923" lon="-0.1161">
        <ele>5.2</ele>
        <time>2020-06-17T11:17:48Z</time>
      </trkpt>
      <trkpt lat="49.28924" lon="-0.1161">
        <ele>5.2</ele>
        <time>2020-06-17T11:17:49Z</time>
      </trkpt>
      <trkpt lat="49.28924" lon="-0.11609">
        <ele>5.2</ele>
        <time>2020-06-17T11:17:50Z</time>
      </trkpt>
      <trkpt lat="49.28924" lon="-0.11608">
        <ele>5.2</ele>
        <time>2020-06-17T11:17:51Z</time>
      </trkpt>
      <trkpt lat="49.28925" lon="-0.11607">
        <ele>5.2</ele>
        <time>2020-06-17T11:17:52Z</time>
      </trkpt>
      <trkpt lat="49.28925" lon="-0.11606">
        <ele>5.2</ele>
        <time>2020-06-17T11:17:53Z</time>
      </trkpt>
      <trkpt lat="49.28925" lon="-0.11606">
        <ele>5.2</ele>
        <time>2020-06-17T11:17:54Z</time>
      </trkpt>
      <trkpt lat="49.28925" lon="-0.11604">
        <ele>5.2</ele>
        <time>2020-06-17T11:17:55Z</time>
      </trkpt>
      <trkpt lat="49.28925" lon="-0.11603">
        <ele>5.2</ele>
        <time>2020-06-17T11:17:56Z</time>
      </trkpt>
      <trkpt lat="49.28925" lon="-0.11602">
        <ele>5.2</ele>
        <time>2020-06-17T11:17:57Z</time>
      </trkpt>
      <trkpt lat="49.28925" lon="-0.11602">
        <ele>5.2</ele>
        <time>2020-06-17T11:17:58Z</time>
      </trkpt>
      <trkpt lat="49.28926" lon="-0.11601">
        <ele>5.2</ele>
        <time>2020-06-17T11:17:59Z</time>
      </trkpt>
      <trkpt lat="49.28926" lon="-0.116">
        <ele>5.2</ele>
        <time>2020-06-17T11:18:00Z</time>
      </trkpt>
      <trkpt lat="49.28926" lon="-0.116">
        <ele>5.2</ele>
        <time>2020-06-17T11:18:01Z</time>
      </trkpt>
      <trkpt lat="49.28926" lon="-0.11599">
        <ele>5.2</ele>
        <time>2020-06-17T11:18:02Z</time>
      </trkpt>
      <trkpt lat="49.28927" lon="-0.11599">
        <ele>5.2</ele>
        <time>2020-06-17T11:18:03Z</time>
      </trkpt>
      <trkpt lat="49.28926" lon="-0.11599">
        <ele>5.2</ele>
        <time>2020-06-17T11:18:04Z</time>
      </trkpt>
      <trkpt lat="49.28927" lon="-0.11598">
        <ele>5.2</ele>
        <time>2020-06-17T11:18:05Z</time>
      </trkpt>
      <trkpt lat="49.28927" lon="-0.11597">
        <ele>5.2</ele>
        <time>2020-06-17T11:18:06Z</time>
      </trkpt>
      <trkpt lat="49.28927" lon="-0.11597">
        <ele>5.2</ele>
        <time>2020-06-17T11:18:07Z</time>
      </trkpt>
      <trkpt lat="49.28926" lon="-0.11597">
        <ele>5.2</ele>
        <time>2020-06-17T11:18:08Z</time>
      </trkpt>
      <trkpt lat="49.28927" lon="-0.11597">
        <ele>5.2</ele>
        <time>2020-06-17T11:18:09Z</time>
      </trkpt>
      <trkpt lat="49.28928" lon="-0.11596">
        <ele>5.2</ele>
        <time>2020-06-17T11:18:10Z</time>
      </trkpt>
      <trkpt lat="49.28928" lon="-0.11595">
        <ele>5.2</ele>
        <time>2020-06-17T11:18:11Z</time>
      </trkpt>
      <trkpt lat="49.28929" lon="-0.11595">
        <ele>5.2</ele>
        <time>2020-06-17T11:18:12Z</time>
      </trkpt>
      <trkpt lat="49.2893" lon="-0.11594">
        <ele>5.2</ele>
        <time>2020-06-17T11:18:13Z</time>
      </trkpt>
      <trkpt lat="49.2893" lon="-0.11593">
        <ele>5.2</ele>
        <time>2020-06-17T11:18:14Z</time>
      </trkpt>
      <trkpt lat="49.28931" lon="-0.11592">
        <ele>5.2</ele>
        <time>2020-06-17T11:18:15Z</time>
      </trkpt>
      <trkpt lat="49.28932" lon="-0.11592">
        <ele>5.2</ele>
        <time>2020-06-17T11:18:16Z</time>
      </trkpt>
      <trkpt lat="49.28932" lon="-0.11592">
        <ele>5.2</ele>
        <time>2020-06-17T11:18:17Z</time>
      </trkpt>
      <trkpt lat="49.28933" lon="-0.11592">
        <ele>5.2</ele>
        <time>2020-06-17T11:18:18Z</time>
      </trkpt>
      <trkpt lat="49.28933" lon="-0.11593">
        <ele>5.2</ele>
        <time>2020-06-17T11:18:19Z</time>
      </trkpt>
      <trkpt lat="49.28934" lon="-0.11593">
        <ele>5.2</ele>
        <time>2020-06-17T11:18:20Z</time>
      </trkpt>
      <trkpt lat="49.28934" lon="-0.11595">
        <ele>5.2</ele>
        <time>2020-06-17T11:18:21Z</time>
      </trkpt>
      <trkpt lat="49.28934" lon="-0.11595">
        <ele>5.2</ele>
        <time>2020-06-17T11:18:22Z</time>
      </trkpt>
      <trkpt lat="49.28935" lon="-0.11595">
        <ele>5.2</ele>
        <time>2020-06-17T11:18:23Z</time>
      </trkpt>
      <trkpt lat="49.28935" lon="-0.11595">
        <ele>5.2</ele>
        <time>2020-06-17T11:18:24Z</time>
      </trkpt>
      <trkpt lat="49.28935" lon="-0.11595">
        <ele>5.2</ele>
        <time>2020-06-17T11:18:25Z</time>
      </trkpt>
      <trkpt lat="49.28936" lon="-0.11596">
        <ele>5.2</ele>
        <time>2020-06-17T11:18:26Z</time>
      </trkpt>
      <trkpt lat="49.28936" lon="-0.11595">
        <ele>5.2</ele>
        <time>2020-06-17T11:18:27Z</time>
      </trkpt>
      <trkpt lat="49.28936" lon="-0.11593">
        <ele>5.2</ele>
        <time>2020-06-17T11:18:28Z</time>
      </trkpt>
      <trkpt lat="49.28936" lon="-0.11592">
        <ele>5.2</ele>
        <time>2020-06-17T11:18:29Z</time>
      </trkpt>
      <trkpt lat="49.28937" lon="-0.11591">
        <ele>5.2</ele>
        <time>2020-06-17T11:18:30Z</time>
      </trkpt>
      <trkpt lat="49.28937" lon="-0.11589">
        <ele>5.2</ele>
        <time>2020-06-17T11:18:31Z</time>
      </trkpt>
      <trkpt lat="49.28936" lon="-0.11592">
        <ele>5.2</ele>
        <time>2020-06-17T11:18:32Z</time>
      </trkpt>
      <trkpt lat="49.28935" lon="-0.11595">
        <ele>5.2</ele>
        <time>2020-06-17T11:18:33Z</time>
      </trkpt>
      <trkpt lat="49.28935" lon="-0.11597">
        <ele>5.2</ele>
        <time>2020-06-17T11:18:34Z</time>
      </trkpt>
      <trkpt lat="49.28935" lon="-0.11598">
        <ele>5.2</ele>
        <time>2020-06-17T11:18:35Z</time>
      </trkpt>
      <trkpt lat="49.28935" lon="-0.11599">
        <ele>5.2</ele>
        <time>2020-06-17T11:18:36Z</time>
      </trkpt>
      <trkpt lat="49.28936" lon="-0.116">
        <ele>5.2</ele>
        <time>2020-06-17T11:18:37Z</time>
      </trkpt>
      <trkpt lat="49.28936" lon="-0.11602">
        <ele>5.2</ele>
        <time>2020-06-17T11:18:38Z</time>
      </trkpt>
      <trkpt lat="49.28934" lon="-0.11603">
        <ele>5.2</ele>
        <time>2020-06-17T11:18:39Z</time>
      </trkpt>
      <trkpt lat="49.28932" lon="-0.11606">
        <ele>5.2</ele>
        <time>2020-06-17T11:18:40Z</time>
      </trkpt>
      <trkpt lat="49.28931" lon="-0.11607">
        <ele>5.2</ele>
        <time>2020-06-17T11:18:41Z</time>
      </trkpt>
      <trkpt lat="49.28931" lon="-0.11609">
        <ele>5.2</ele>
        <time>2020-06-17T11:18:42Z</time>
      </trkpt>
      <trkpt lat="49.2893" lon="-0.1161">
        <ele>5.2</ele>
        <time>2020-06-17T11:18:43Z</time>
      </trkpt>
      <trkpt lat="49.28928" lon="-0.11611">
        <ele>5.2</ele>
        <time>2020-06-17T11:18:44Z</time>
      </trkpt>
      <trkpt lat="49.28926" lon="-0.11611">
        <ele>5.2</ele>
        <time>2020-06-17T11:18:45Z</time>
      </trkpt>
      <trkpt lat="49.28925" lon="-0.11612">
        <ele>5.2</ele>
        <time>2020-06-17T11:18:46Z</time>
      </trkpt>
      <trkpt lat="49.28923" lon="-0.11613">
        <ele>5.2</ele>
        <time>2020-06-17T11:18:47Z</time>
      </trkpt>
      <trkpt lat="49.28922" lon="-0.11614">
        <ele>5.2</ele>
        <time>2020-06-17T11:18:48Z</time>
      </trkpt>
      <trkpt lat="49.28921" lon="-0.11615">
        <ele>5.2</ele>
        <time>2020-06-17T11:18:49Z</time>
      </trkpt>
      <trkpt lat="49.28917" lon="-0.11615">
        <ele>5.2</ele>
        <time>2020-06-17T11:18:50Z</time>
      </trkpt>
      <trkpt lat="49.28916" lon="-0.11615">
        <ele>5.2</ele>
        <time>2020-06-17T11:18:51Z</time>
      </trkpt>
      <trkpt lat="49.28914" lon="-0.11616">
        <ele>5.2</ele>
        <time>2020-06-17T11:18:52Z</time>
      </trkpt>
      <trkpt lat="49.28913" lon="-0.11616">
        <ele>5.2</ele>
        <time>2020-06-17T11:18:53Z</time>
      </trkpt>
      <trkpt lat="49.28912" lon="-0.11617">
        <ele>5.2</ele>
        <time>2020-06-17T11:18:54Z</time>
      </trkpt>
      <trkpt lat="49.28911" lon="-0.11618">
        <ele>5.2</ele>
        <time>2020-06-17T11:18:55Z</time>
      </trkpt>
      <trkpt lat="49.28909" lon="-0.11618">
        <ele>5.2</ele>
        <time>2020-06-17T11:18:56Z</time>
      </trkpt>
      <trkpt lat="49.28908" lon="-0.11619">
        <ele>5.2</ele>
        <time>2020-06-17T11:18:57Z</time>
      </trkpt>
      <trkpt lat="49.28906" lon="-0.11619">
        <ele>5.1</ele>
        <time>2020-06-17T11:18:58Z</time>
      </trkpt>
      <trkpt lat="49.28903" lon="-0.1162">
        <ele>5.1</ele>
        <time>2020-06-17T11:18:59Z</time>
      </trkpt>
      <trkpt lat="49.28902" lon="-0.1162">
        <ele>5.1</ele>
        <time>2020-06-17T11:19:00Z</time>
      </trkpt>
      <trkpt lat="49.28901" lon="-0.11621">
        <ele>5.1</ele>
        <time>2020-06-17T11:19:01Z</time>
      </trkpt>
      <trkpt lat="49.28899" lon="-0.11623">
        <ele>5.1</ele>
        <time>2020-06-17T11:19:02Z</time>
      </trkpt>
      <trkpt lat="49.28898" lon="-0.11623">
        <ele>5.1</ele>
        <time>2020-06-17T11:19:03Z</time>
      </trkpt>
      <trkpt lat="49.28897" lon="-0.11625">
        <ele>5.1</ele>
        <time>2020-06-17T11:19:04Z</time>
      </trkpt>
      <trkpt lat="49.28896" lon="-0.11625">
        <ele>5.1</ele>
        <time>2020-06-17T11:19:05Z</time>
      </trkpt>
      <trkpt lat="49.28894" lon="-0.11625">
        <ele>5.1</ele>
        <time>2020-06-17T11:19:06Z</time>
      </trkpt>
      <trkpt lat="49.28892" lon="-0.11627">
        <ele>5.1</ele>
        <time>2020-06-17T11:19:07Z</time>
      </trkpt>
      <trkpt lat="49.28891" lon="-0.11627">
        <ele>5.1</ele>
        <time>2020-06-17T11:19:08Z</time>
      </trkpt>
      <trkpt lat="49.2889" lon="-0.11627">
        <ele>5.1</ele>
        <time>2020-06-17T11:19:09Z</time>
      </trkpt>
      <trkpt lat="49.28889" lon="-0.11628">
        <ele>5.1</ele>
        <time>2020-06-17T11:19:10Z</time>
      </trkpt>
      <trkpt lat="49.28888" lon="-0.11628">
        <ele>5.1</ele>
        <time>2020-06-17T11:19:11Z</time>
      </trkpt>
      <trkpt lat="49.28888" lon="-0.11629">
        <ele>5.1</ele>
        <time>2020-06-17T11:19:12Z</time>
      </trkpt>
      <trkpt lat="49.28887" lon="-0.1163">
        <ele>5.1</ele>
        <time>2020-06-17T11:19:13Z</time>
      </trkpt>
      <trkpt lat="49.28886" lon="-0.1163">
        <ele>5.1</ele>
        <time>2020-06-17T11:19:14Z</time>
      </trkpt>
      <trkpt lat="49.28886" lon="-0.11631">
        <ele>5.1</ele>
        <time>2020-06-17T11:19:15Z</time>
      </trkpt>
      <trkpt lat="49.28885" lon="-0.11632">
        <ele>5.1</ele>
        <time>2020-06-17T11:19:16Z</time>
      </trkpt>
      <trkpt lat="49.28885" lon="-0.11632">
        <ele>5.1</ele>
        <time>2020-06-17T11:19:17Z</time>
      </trkpt>
      <trkpt lat="49.28885" lon="-0.11632">
        <ele>5.1</ele>
        <time>2020-06-17T11:19:18Z</time>
      </trkpt>
      <trkpt lat="49.28885" lon="-0.11632">
        <ele>5.1</ele>
        <time>2020-06-17T11:19:19Z</time>
      </trkpt>
      <trkpt lat="49.28884" lon="-0.11633">
        <ele>5.1</ele>
        <time>2020-06-17T11:19:20Z</time>
      </trkpt>
      <trkpt lat="49.28884" lon="-0.11633">
        <ele>5.1</ele>
        <time>2020-06-17T11:19:21Z</time>
      </trkpt>
      <trkpt lat="49.28884" lon="-0.11633">
        <ele>5.1</ele>
        <time>2020-06-17T11:19:22Z</time>
      </trkpt>
      <trkpt lat="49.28884" lon="-0.11634">
        <ele>5.1</ele>
        <time>2020-06-17T11:19:23Z</time>
      </trkpt>
      <trkpt lat="49.28883" lon="-0.11635">
        <ele>5.1</ele>
        <time>2020-06-17T11:19:24Z</time>
      </trkpt>
      <trkpt lat="49.28883" lon="-0.11635">
        <ele>5.1</ele>
        <time>2020-06-17T11:19:25Z</time>
      </trkpt>
      <trkpt lat="49.28801" lon="-0.11613">
        <ele>4.8</ele>
        <time>2020-06-17T11:22:13Z</time>
      </trkpt>
      <trkpt lat="49.28801" lon="-0.11611">
        <ele>4.8</ele>
        <time>2020-06-17T11:22:14Z</time>
      </trkpt>
      <trkpt lat="49.28802" lon="-0.1161">
        <ele>4.8</ele>
        <time>2020-06-17T11:22:15Z</time>
      </trkpt>
      <trkpt lat="49.28802" lon="-0.1161">
        <ele>4.8</ele>
        <time>2020-06-17T11:22:16Z</time>
      </trkpt>
      <trkpt lat="49.28801" lon="-0.11607">
        <ele>4.8</ele>
        <time>2020-06-17T11:22:17Z</time>
      </trkpt>
      <trkpt lat="49.28801" lon="-0.11605">
        <ele>4.8</ele>
        <time>2020-06-17T11:22:18Z</time>
      </trkpt>
      <trkpt lat="49.28801" lon="-0.11603">
        <ele>4.8</ele>
        <time>2020-06-17T11:22:19Z</time>
      </trkpt>
      <trkpt lat="49.288" lon="-0.11601">
        <ele>4.8</ele>
        <time>2020-06-17T11:22:20Z</time>
      </trkpt>
      <trkpt lat="49.28798" lon="-0.11596">
        <ele>4.8</ele>
        <time>2020-06-17T11:22:21Z</time>
      </trkpt>
      <trkpt lat="49.28798" lon="-0.11594">
        <ele>4.8</ele>
        <time>2020-06-17T11:22:22Z</time>
      </trkpt>
      <trkpt lat="49.28797" lon="-0.11592">
        <ele>4.8</ele>
        <time>2020-06-17T11:22:23Z</time>
      </trkpt>
      <trkpt lat="49.28796" lon="-0.1159">
        <ele>4.8</ele>
        <time>2020-06-17T11:22:24Z</time>
      </trkpt>
      <trkpt lat="49.28795" lon="-0.11587">
        <ele>4.8</ele>
        <time>2020-06-17T11:22:25Z</time>
      </trkpt>
      <trkpt lat="49.28796" lon="-0.11587">
        <ele>4.8</ele>
        <time>2020-06-17T11:22:26Z</time>
      </trkpt>
      <trkpt lat="49.28799" lon="-0.1159">
        <ele>4.8</ele>
        <time>2020-06-17T11:22:27Z</time>
      </trkpt>
      <trkpt lat="49.288" lon="-0.1159">
        <ele>4.8</ele>
        <time>2020-06-17T11:22:28Z</time>
      </trkpt>
      <trkpt lat="49.28801" lon="-0.1159">
        <ele>4.8</ele>
        <time>2020-06-17T11:22:29Z</time>
      </trkpt>
      <trkpt lat="49.28802" lon="-0.11592">
        <ele>4.8</ele>
        <time>2020-06-17T11:22:30Z</time>
      </trkpt>
      <trkpt lat="49.28802" lon="-0.11592">
        <ele>4.8</ele>
        <time>2020-06-17T11:22:31Z</time>
      </trkpt>
      <trkpt lat="49.28802" lon="-0.11592">
        <ele>4.8</ele>
        <time>2020-06-17T11:22:32Z</time>
      </trkpt>
      <trkpt lat="49.28801" lon="-0.11594">
        <ele>4.8</ele>
        <time>2020-06-17T11:22:33Z</time>
      </trkpt>
      <trkpt lat="49.28801" lon="-0.11594">
        <ele>4.8</ele>
        <time>2020-06-17T11:22:34Z</time>
      </trkpt>
      <trkpt lat="49.28802" lon="-0.11592">
        <ele>4.8</ele>
        <time>2020-06-17T11:22:35Z</time>
      </trkpt>
      <trkpt lat="49.28804" lon="-0.11591">
        <ele>4.8</ele>
        <time>2020-06-17T11:22:36Z</time>
      </trkpt>
      <trkpt lat="49.28804" lon="-0.11591">
        <ele>4.8</ele>
        <time>2020-06-17T11:22:37Z</time>
      </trkpt>
      <trkpt lat="49.28804" lon="-0.1159">
        <ele>4.8</ele>
        <time>2020-06-17T11:22:38Z</time>
      </trkpt>
      <trkpt lat="49.28803" lon="-0.11592">
        <ele>4.8</ele>
        <time>2020-06-17T11:22:39Z</time>
      </trkpt>
      <trkpt lat="49.28803" lon="-0.11591">
        <ele>4.8</ele>
        <time>2020-06-17T11:22:40Z</time>
      </trkpt>
      <trkpt lat="49.28803" lon="-0.11591">
        <ele>4.8</ele>
        <time>2020-06-17T11:22:41Z</time>
      </trkpt>
      <trkpt lat="49.28803" lon="-0.11591">
        <ele>4.8</ele>
        <time>2020-06-17T11:22:42Z</time>
      </trkpt>
      <trkpt lat="49.28802" lon="-0.11591">
        <ele>4.8</ele>
        <time>2020-06-17T11:22:43Z</time>
      </trkpt>
      <trkpt lat="49.28805" lon="-0.11591">
        <ele>4.8</ele>
        <time>2020-06-17T11:22:44Z</time>
      </trkpt>
      <trkpt lat="49.28806" lon="-0.1159">
        <ele>4.8</ele>
        <time>2020-06-17T11:22:45Z</time>
      </trkpt>
      <trkpt lat="49.28804" lon="-0.11591">
        <ele>4.8</ele>
        <time>2020-06-17T11:22:46Z</time>
      </trkpt>
      <trkpt lat="49.28802" lon="-0.11592">
        <ele>4.8</ele>
        <time>2020-06-17T11:22:47Z</time>
      </trkpt>
      <trkpt lat="49.288" lon="-0.11593">
        <ele>4.8</ele>
        <time>2020-06-17T11:22:48Z</time>
      </trkpt>
      <trkpt lat="49.28799" lon="-0.11594">
        <ele>4.8</ele>
        <time>2020-06-17T11:22:49Z</time>
      </trkpt>
      <trkpt lat="49.28799" lon="-0.11594">
        <ele>4.8</ele>
        <time>2020-06-17T11:22:50Z</time>
      </trkpt>
      <trkpt lat="49.288" lon="-0.11594">
        <ele>4.8</ele>
        <time>2020-06-17T11:22:51Z</time>
      </trkpt>
      <trkpt lat="49.28801" lon="-0.11594">
        <ele>4.8</ele>
        <time>2020-06-17T11:22:52Z</time>
      </trkpt>
      <trkpt lat="49.28802" lon="-0.11594">
        <ele>4.8</ele>
        <time>2020-06-17T11:22:53Z</time>
      </trkpt>
      <trkpt lat="49.28804" lon="-0.11594">
        <ele>4.8</ele>
        <time>2020-06-17T11:22:54Z</time>
      </trkpt>
      <trkpt lat="49.28805" lon="-0.11594">
        <ele>4.8</ele>
        <time>2020-06-17T11:22:55Z</time>
      </trkpt>
      <trkpt lat="49.28806" lon="-0.11594">
        <ele>4.8</ele>
        <time>2020-06-17T11:22:56Z</time>
      </trkpt>
      <trkpt lat="49.28807" lon="-0.11594">
        <ele>4.8</ele>
        <time>2020-06-17T11:22:57Z</time>
      </trkpt>
      <trkpt lat="49.28808" lon="-0.11594">
        <ele>4.8</ele>
        <time>2020-06-17T11:22:58Z</time>
      </trkpt>
      <trkpt lat="49.2881" lon="-0.11593">
        <ele>4.8</ele>
        <time>2020-06-17T11:22:59Z</time>
      </trkpt>
      <trkpt lat="49.2881" lon="-0.11593">
        <ele>4.8</ele>
        <time>2020-06-17T11:23:00Z</time>
      </trkpt>
      <trkpt lat="49.2881" lon="-0.11593">
        <ele>4.8</ele>
        <time>2020-06-17T11:23:01Z</time>
      </trkpt>
      <trkpt lat="49.2881" lon="-0.11593">
        <ele>4.8</ele>
        <time>2020-06-17T11:23:02Z</time>
      </trkpt>
      <trkpt lat="49.2881" lon="-0.11593">
        <ele>4.8</ele>
        <time>2020-06-17T11:23:03Z</time>
      </trkpt>
      <trkpt lat="49.28844" lon="-0.11626">
        <ele>4.8</ele>
        <time>2020-06-17T11:24:05Z</time>
      </trkpt>
      <trkpt lat="49.28844" lon="-0.11626">
        <ele>4.8</ele>
        <time>2020-06-17T11:24:06Z</time>
      </trkpt>
      <trkpt lat="49.28844" lon="-0.1163">
        <ele>4.8</ele>
        <time>2020-06-17T11:24:07Z</time>
      </trkpt>
      <trkpt lat="49.28845" lon="-0.11629">
        <ele>4.8</ele>
        <time>2020-06-17T11:24:08Z</time>
      </trkpt>
      <trkpt lat="49.28847" lon="-0.11627">
        <ele>4.9</ele>
        <time>2020-06-17T11:24:09Z</time>
      </trkpt>
      <trkpt lat="49.28848" lon="-0.11629">
        <ele>4.9</ele>
        <time>2020-06-17T11:24:10Z</time>
      </trkpt>
      <trkpt lat="49.28852" lon="-0.11632">
        <ele>4.9</ele>
        <time>2020-06-17T11:24:11Z</time>
      </trkpt>
      <trkpt lat="49.28856" lon="-0.11636">
        <ele>4.9</ele>
        <time>2020-06-17T11:24:12Z</time>
      </trkpt>
      <trkpt lat="49.28858" lon="-0.11637">
        <ele>4.9</ele>
        <time>2020-06-17T11:24:13Z</time>
      </trkpt>
      <trkpt lat="49.28861" lon="-0.11638">
        <ele>4.9</ele>
        <time>2020-06-17T11:24:14Z</time>
      </trkpt>
      <trkpt lat="49.28865" lon="-0.11639">
        <ele>4.9</ele>
        <time>2020-06-17T11:24:15Z</time>
      </trkpt>
      <trkpt lat="49.28868" lon="-0.11639">
        <ele>5</ele>
        <time>2020-06-17T11:24:16Z</time>
      </trkpt>
      <trkpt lat="49.28869" lon="-0.11639">
        <ele>5</ele>
        <time>2020-06-17T11:24:17Z</time>
      </trkpt>
      <trkpt lat="49.28871" lon="-0.11639">
        <ele>5</ele>
        <time>2020-06-17T11:24:18Z</time>
      </trkpt>
      <trkpt lat="49.28872" lon="-0.11639">
        <ele>5</ele>
        <time>2020-06-17T11:24:19Z</time>
      </trkpt>
      <trkpt lat="49.28873" lon="-0.11639">
        <ele>5</ele>
        <time>2020-06-17T11:24:20Z</time>
      </trkpt>
      <trkpt lat="49.28873" lon="-0.11639">
        <ele>5</ele>
        <time>2020-06-17T11:24:21Z</time>
      </trkpt>
      <trkpt lat="49.28874" lon="-0.11639">
        <ele>5</ele>
        <time>2020-06-17T11:24:22Z</time>
      </trkpt>
      <trkpt lat="49.28874" lon="-0.11639">
        <ele>5</ele>
        <time>2020-06-17T11:24:23Z</time>
      </trkpt>
      <trkpt lat="49.28874" lon="-0.11639">
        <ele>5</ele>
        <time>2020-06-17T11:24:24Z</time>
      </trkpt>
      <trkpt lat="49.28874" lon="-0.11639">
        <ele>5</ele>
        <time>2020-06-17T11:24:25Z</time>
      </trkpt>
      <trkpt lat="49.28874" lon="-0.11639">
        <ele>5</ele>
        <time>2020-06-17T11:24:26Z</time>
      </trkpt>
      <trkpt lat="49.28888" lon="-0.11632">
        <ele>5.1</ele>
        <time>2020-06-17T11:26:07Z</time>
      </trkpt>
      <trkpt lat="49.28889" lon="-0.11633">
        <ele>5.2</ele>
        <time>2020-06-17T11:26:08Z</time>
      </trkpt>
      <trkpt lat="49.28892" lon="-0.11635">
        <ele>5.2</ele>
        <time>2020-06-17T11:26:09Z</time>
      </trkpt>
      <trkpt lat="49.28893" lon="-0.11636">
        <ele>5.2</ele>
        <time>2020-06-17T11:26:10Z</time>
      </trkpt>
      <trkpt lat="49.28894" lon="-0.11636">
        <ele>5.2</ele>
        <time>2020-06-17T11:26:11Z</time>
      </trkpt>
      <trkpt lat="49.28895" lon="-0.11637">
        <ele>5.2</ele>
        <time>2020-06-17T11:26:12Z</time>
      </trkpt>
      <trkpt lat="49.28897" lon="-0.11638">
        <ele>5.2</ele>
        <time>2020-06-17T11:26:13Z</time>
      </trkpt>
      <trkpt lat="49.28898" lon="-0.11639">
        <ele>5.2</ele>
        <time>2020-06-17T11:26:14Z</time>
      </trkpt>
      <trkpt lat="49.28899" lon="-0.11639">
        <ele>5.2</ele>
        <time>2020-06-17T11:26:15Z</time>
      </trkpt>
      <trkpt lat="49.289" lon="-0.1164">
        <ele>5.2</ele>
        <time>2020-06-17T11:26:16Z</time>
      </trkpt>
      <trkpt lat="49.28901" lon="-0.1164">
        <ele>5.2</ele>
        <time>2020-06-17T11:26:17Z</time>
      </trkpt>
      <trkpt lat="49.28902" lon="-0.11639">
        <ele>5.2</ele>
        <time>2020-06-17T11:26:18Z</time>
      </trkpt>
      <trkpt lat="49.28903" lon="-0.11638">
        <ele>5.2</ele>
        <time>2020-06-17T11:26:19Z</time>
      </trkpt>
      <trkpt lat="49.28905" lon="-0.11638">
        <ele>5.2</ele>
        <time>2020-06-17T11:26:20Z</time>
      </trkpt>
      <trkpt lat="49.28907" lon="-0.11637">
        <ele>5.2</ele>
        <time>2020-06-17T11:26:21Z</time>
      </trkpt>
      <trkpt lat="49.28908" lon="-0.11637">
        <ele>5.2</ele>
        <time>2020-06-17T11:26:22Z</time>
      </trkpt>
      <trkpt lat="49.2891" lon="-0.11636">
        <ele>5.2</ele>
        <time>2020-06-17T11:26:23Z</time>
      </trkpt>
      <trkpt lat="49.28911" lon="-0.11635">
        <ele>5.2</ele>
        <time>2020-06-17T11:26:24Z</time>
      </trkpt>
      <trkpt lat="49.28915" lon="-0.11633">
        <ele>5.2</ele>
        <time>2020-06-17T11:26:25Z</time>
      </trkpt>
      <trkpt lat="49.28917" lon="-0.11632">
        <ele>5.2</ele>
        <time>2020-06-17T11:26:26Z</time>
      </trkpt>
      <trkpt lat="49.28921" lon="-0.11629">
        <ele>5.2</ele>
        <time>2020-06-17T11:26:27Z</time>
      </trkpt>
      <trkpt lat="49.28925" lon="-0.11626">
        <ele>5.2</ele>
        <time>2020-06-17T11:26:28Z</time>
      </trkpt>
      <trkpt lat="49.28928" lon="-0.11624">
        <ele>5.2</ele>
        <time>2020-06-17T11:26:29Z</time>
      </trkpt>
      <trkpt lat="49.28931" lon="-0.11624">
        <ele>5.2</ele>
        <time>2020-06-17T11:26:30Z</time>
      </trkpt>
      <trkpt lat="49.28935" lon="-0.11624">
        <ele>5.2</ele>
        <time>2020-06-17T11:26:31Z</time>
      </trkpt>
      <trkpt lat="49.28936" lon="-0.11623">
        <ele>5.2</ele>
        <time>2020-06-17T11:26:32Z</time>
      </trkpt>
      <trkpt lat="49.2894" lon="-0.11621">
        <ele>5.2</ele>
        <time>2020-06-17T11:26:33Z</time>
      </trkpt>
      <trkpt lat="49.28941" lon="-0.1162">
        <ele>5.3</ele>
        <time>2020-06-17T11:26:34Z</time>
      </trkpt>
      <trkpt lat="49.28943" lon="-0.11618">
        <ele>5.3</ele>
        <time>2020-06-17T11:26:35Z</time>
      </trkpt>
      <trkpt lat="49.28946" lon="-0.11616">
        <ele>5.3</ele>
        <time>2020-06-17T11:26:36Z</time>
      </trkpt>
      <trkpt lat="49.2895" lon="-0.11614">
        <ele>5.3</ele>
        <time>2020-06-17T11:26:37Z</time>
      </trkpt>
      <trkpt lat="49.28951" lon="-0.11614">
        <ele>5.3</ele>
        <time>2020-06-17T11:26:38Z</time>
      </trkpt>
      <trkpt lat="49.28955" lon="-0.11612">
        <ele>5.3</ele>
        <time>2020-06-17T11:26:39Z</time>
      </trkpt>
      <trkpt lat="49.28956" lon="-0.11611">
        <ele>5.3</ele>
        <time>2020-06-17T11:26:40Z</time>
      </trkpt>
      <trkpt lat="49.28959" lon="-0.1161">
        <ele>5.3</ele>
        <time>2020-06-17T11:26:41Z</time>
      </trkpt>
      <trkpt lat="49.2896" lon="-0.11609">
        <ele>5.3</ele>
        <time>2020-06-17T11:26:42Z</time>
      </trkpt>
      <trkpt lat="49.28963" lon="-0.11606">
        <ele>5.3</ele>
        <time>2020-06-17T11:26:43Z</time>
      </trkpt>
      <trkpt lat="49.28964" lon="-0.11606">
        <ele>5.3</ele>
        <time>2020-06-17T11:26:44Z</time>
      </trkpt>
      <trkpt lat="49.28967" lon="-0.11602">
        <ele>5.3</ele>
        <time>2020-06-17T11:26:45Z</time>
      </trkpt>
      <trkpt lat="49.2897" lon="-0.11599">
        <ele>5.3</ele>
        <time>2020-06-17T11:26:46Z</time>
      </trkpt>
      <trkpt lat="49.28973" lon="-0.11596">
        <ele>5.3</ele>
        <time>2020-06-17T11:26:47Z</time>
      </trkpt>
      <trkpt lat="49.28974" lon="-0.11595">
        <ele>5.3</ele>
        <time>2020-06-17T11:26:48Z</time>
      </trkpt>
      <trkpt lat="49.28977" lon="-0.11592">
        <ele>5.3</ele>
        <time>2020-06-17T11:26:49Z</time>
      </trkpt>
      <trkpt lat="49.2898" lon="-0.1159">
        <ele>5.2</ele>
        <time>2020-06-17T11:26:50Z</time>
      </trkpt>
      <trkpt lat="49.28981" lon="-0.11589">
        <ele>5.2</ele>
        <time>2020-06-17T11:26:51Z</time>
      </trkpt>
      <trkpt lat="49.28984" lon="-0.11588">
        <ele>5.2</ele>
        <time>2020-06-17T11:26:52Z</time>
      </trkpt>
      <trkpt lat="49.28985" lon="-0.11588">
        <ele>5.2</ele>
        <time>2020-06-17T11:26:53Z</time>
      </trkpt>
      <trkpt lat="49.28989" lon="-0.11585">
        <ele>5.2</ele>
        <time>2020-06-17T11:26:54Z</time>
      </trkpt>
      <trkpt lat="49.2899" lon="-0.11584">
        <ele>5.2</ele>
        <time>2020-06-17T11:26:55Z</time>
      </trkpt>
      <trkpt lat="49.28993" lon="-0.11582">
        <ele>5.2</ele>
        <time>2020-06-17T11:26:56Z</time>
      </trkpt>
      <trkpt lat="49.28994" lon="-0.11581">
        <ele>5.2</ele>
        <time>2020-06-17T11:26:57Z</time>
      </trkpt>
      <trkpt lat="49.28997" lon="-0.1158">
        <ele>5.1</ele>
        <time>2020-06-17T11:26:58Z</time>
      </trkpt>
      <trkpt lat="49.28998" lon="-0.11579">
        <ele>5.1</ele>
        <time>2020-06-17T11:26:59Z</time>
      </trkpt>
      <trkpt lat="49.29" lon="-0.11578">
        <ele>5.1</ele>
        <time>2020-06-17T11:27:00Z</time>
      </trkpt>
      <trkpt lat="49.29002" lon="-0.11577">
        <ele>5.1</ele>
        <time>2020-06-17T11:27:01Z</time>
      </trkpt>
      <trkpt lat="49.29003" lon="-0.11576">
        <ele>5.1</ele>
        <time>2020-06-17T11:27:02Z</time>
      </trkpt>
      <trkpt lat="49.29004" lon="-0.11575">
        <ele>5.1</ele>
        <time>2020-06-17T11:27:03Z</time>
      </trkpt>
      <trkpt lat="49.29008" lon="-0.11576">
        <ele>5</ele>
        <time>2020-06-17T11:27:04Z</time>
      </trkpt>
      <trkpt lat="49.29009" lon="-0.11576">
        <ele>5</ele>
        <time>2020-06-17T11:27:05Z</time>
      </trkpt>
      <trkpt lat="49.29014" lon="-0.11576">
        <ele>5</ele>
        <time>2020-06-17T11:27:06Z</time>
      </trkpt>
      <trkpt lat="49.29016" lon="-0.11577">
        <ele>4.9</ele>
        <time>2020-06-17T11:27:07Z</time>
      </trkpt>
      <trkpt lat="49.29017" lon="-0.11576">
        <ele>4.9</ele>
        <time>2020-06-17T11:27:08Z</time>
      </trkpt>
      <trkpt lat="49.29019" lon="-0.11576">
        <ele>4.9</ele>
        <time>2020-06-17T11:27:09Z</time>
      </trkpt>
      <trkpt lat="49.29023" lon="-0.11575">
        <ele>4.9</ele>
        <time>2020-06-17T11:27:10Z</time>
      </trkpt>
      <trkpt lat="49.29025" lon="-0.11575">
        <ele>4.8</ele>
        <time>2020-06-17T11:27:11Z</time>
      </trkpt>
      <trkpt lat="49.29027" lon="-0.11573">
        <ele>4.8</ele>
        <time>2020-06-17T11:27:12Z</time>
      </trkpt>
      <trkpt lat="49.2903" lon="-0.11573">
        <ele>4.8</ele>
        <time>2020-06-17T11:27:13Z</time>
      </trkpt>
      <trkpt lat="49.29034" lon="-0.11572">
        <ele>4.7</ele>
        <time>2020-06-17T11:27:14Z</time>
      </trkpt>
      <trkpt lat="49.29035" lon="-0.11571">
        <ele>4.7</ele>
        <time>2020-06-17T11:27:15Z</time>
      </trkpt>
      <trkpt lat="49.29043" lon="-0.1157">
        <ele>4.6</ele>
        <time>2020-06-17T11:27:16Z</time>
      </trkpt>
      <trkpt lat="49.29046" lon="-0.11568">
        <ele>4.6</ele>
        <time>2020-06-17T11:27:17Z</time>
      </trkpt>
      <trkpt lat="49.29047" lon="-0.11567">
        <ele>4.6</ele>
        <time>2020-06-17T11:27:18Z</time>
      </trkpt>
      <trkpt lat="49.2905" lon="-0.11567">
        <ele>4.5</ele>
        <time>2020-06-17T11:27:19Z</time>
      </trkpt>
      <trkpt lat="49.29051" lon="-0.11566">
        <ele>4.5</ele>
        <time>2020-06-17T11:27:20Z</time>
      </trkpt>
      <trkpt lat="49.29054" lon="-0.11563">
        <ele>4.5</ele>
        <time>2020-06-17T11:27:21Z</time>
      </trkpt>
      <trkpt lat="49.29057" lon="-0.11562">
        <ele>4.5</ele>
        <time>2020-06-17T11:27:22Z</time>
      </trkpt>
      <trkpt lat="49.29058" lon="-0.11562">
        <ele>4.5</ele>
        <time>2020-06-17T11:27:23Z</time>
      </trkpt>
      <trkpt lat="49.29061" lon="-0.11561">
        <ele>4.5</ele>
        <time>2020-06-17T11:27:24Z</time>
      </trkpt>
      <trkpt lat="49.29062" lon="-0.11561">
        <ele>4.5</ele>
        <time>2020-06-17T11:27:25Z</time>
      </trkpt>
      <trkpt lat="49.29066" lon="-0.1156">
        <ele>4.5</ele>
        <time>2020-06-17T11:27:26Z</time>
      </trkpt>
      <trkpt lat="49.29069" lon="-0.1156">
        <ele>4.4</ele>
        <time>2020-06-17T11:27:27Z</time>
      </trkpt>
      <trkpt lat="49.29071" lon="-0.1156">
        <ele>4.4</ele>
        <time>2020-06-17T11:27:28Z</time>
      </trkpt>
      <trkpt lat="49.29075" lon="-0.1156">
        <ele>4.5</ele>
        <time>2020-06-17T11:27:29Z</time>
      </trkpt>
      <trkpt lat="49.29078" lon="-0.11558">
        <ele>4.5</ele>
        <time>2020-06-17T11:27:30Z</time>
      </trkpt>
      <trkpt lat="49.29081" lon="-0.11557">
        <ele>4.5</ele>
        <time>2020-06-17T11:27:31Z</time>
      </trkpt>
      <trkpt lat="49.29083" lon="-0.11553">
        <ele>4.5</ele>
        <time>2020-06-17T11:27:32Z</time>
      </trkpt>
      <trkpt lat="49.29084" lon="-0.11548">
        <ele>4.4</ele>
        <time>2020-06-17T11:27:33Z</time>
      </trkpt>
      <trkpt lat="49.29085" lon="-0.11539">
        <ele>4.4</ele>
        <time>2020-06-17T11:27:34Z</time>
      </trkpt>
      <trkpt lat="49.29086" lon="-0.11532">
        <ele>4.4</ele>
        <time>2020-06-17T11:27:35Z</time>
      </trkpt>
      <trkpt lat="49.29087" lon="-0.11524">
        <ele>4.4</ele>
        <time>2020-06-17T11:27:36Z</time>
      </trkpt>
      <trkpt lat="49.29087" lon="-0.11517">
        <ele>4.4</ele>
        <time>2020-06-17T11:27:37Z</time>
      </trkpt>
      <trkpt lat="49.29089" lon="-0.1151">
        <ele>4.4</ele>
        <time>2020-06-17T11:27:38Z</time>
      </trkpt>
      <trkpt lat="49.2909" lon="-0.11503">
        <ele>4.4</ele>
        <time>2020-06-17T11:27:39Z</time>
      </trkpt>
      <trkpt lat="49.29092" lon="-0.11497">
        <ele>4.4</ele>
        <time>2020-06-17T11:27:40Z</time>
      </trkpt>
      <trkpt lat="49.29094" lon="-0.11491">
        <ele>4.4</ele>
        <time>2020-06-17T11:27:41Z</time>
      </trkpt>
      <trkpt lat="49.29097" lon="-0.11487">
        <ele>4.4</ele>
        <time>2020-06-17T11:27:42Z</time>
      </trkpt>
      <trkpt lat="49.291" lon="-0.11487">
        <ele>4.4</ele>
        <time>2020-06-17T11:27:43Z</time>
      </trkpt>
      <trkpt lat="49.29105" lon="-0.11488">
        <ele>4.4</ele>
        <time>2020-06-17T11:27:44Z</time>
      </trkpt>
      <trkpt lat="49.29109" lon="-0.11488">
        <ele>4.4</ele>
        <time>2020-06-17T11:27:45Z</time>
      </trkpt>
      <trkpt lat="49.29114" lon="-0.1149">
        <ele>4.4</ele>
        <time>2020-06-17T11:27:46Z</time>
      </trkpt>
      <trkpt lat="49.29117" lon="-0.11489">
        <ele>4.4</ele>
        <time>2020-06-17T11:27:47Z</time>
      </trkpt>
      <trkpt lat="49.29126" lon="-0.11483">
        <ele>4.4</ele>
        <time>2020-06-17T11:27:48Z</time>
      </trkpt>
      <trkpt lat="49.29133" lon="-0.11481">
        <ele>4.4</ele>
        <time>2020-06-17T11:27:49Z</time>
      </trkpt>
      <trkpt lat="49.29141" lon="-0.11478">
        <ele>4.4</ele>
        <time>2020-06-17T11:27:50Z</time>
      </trkpt>
      <trkpt lat="49.2915" lon="-0.11475">
        <ele>4.5</ele>
        <time>2020-06-17T11:27:51Z</time>
      </trkpt>
      <trkpt lat="49.29156" lon="-0.1147">
        <ele>4.5</ele>
        <time>2020-06-17T11:27:52Z</time>
      </trkpt>
      <trkpt lat="49.29164" lon="-0.11467">
        <ele>4.6</ele>
        <time>2020-06-17T11:27:53Z</time>
      </trkpt>
      <trkpt lat="49.29172" lon="-0.11464">
        <ele>4.7</ele>
        <time>2020-06-17T11:27:54Z</time>
      </trkpt>
      <trkpt lat="49.2918" lon="-0.11463">
        <ele>4.8</ele>
        <time>2020-06-17T11:27:55Z</time>
      </trkpt>
      <trkpt lat="49.29188" lon="-0.11462">
        <ele>4.9</ele>
        <time>2020-06-17T11:27:56Z</time>
      </trkpt>
      <trkpt lat="49.29195" lon="-0.11462">
        <ele>5.1</ele>
        <time>2020-06-17T11:27:57Z</time>
      </trkpt>
      <trkpt lat="49.29201" lon="-0.11462">
        <ele>5.2</ele>
        <time>2020-06-17T11:27:58Z</time>
      </trkpt>
      <trkpt lat="49.29209" lon="-0.11466">
        <ele>5.4</ele>
        <time>2020-06-17T11:27:59Z</time>
      </trkpt>
      <trkpt lat="49.29215" lon="-0.11469">
        <ele>5.6</ele>
        <time>2020-06-17T11:28:00Z</time>
      </trkpt>
      <trkpt lat="49.29222" lon="-0.11472">
        <ele>5.7</ele>
        <time>2020-06-17T11:28:01Z</time>
      </trkpt>
      <trkpt lat="49.29229" lon="-0.11473">
        <ele>5.8</ele>
        <time>2020-06-17T11:28:02Z</time>
      </trkpt>
      <trkpt lat="49.29236" lon="-0.11474">
        <ele>6</ele>
        <time>2020-06-17T11:28:03Z</time>
      </trkpt>
      <trkpt lat="49.29243" lon="-0.11475">
        <ele>6</ele>
        <time>2020-06-17T11:28:04Z</time>
      </trkpt>
      <trkpt lat="49.29249" lon="-0.11477">
        <ele>6.2</ele>
        <time>2020-06-17T11:28:05Z</time>
      </trkpt>
      <trkpt lat="49.29255" lon="-0.11479">
        <ele>6.3</ele>
        <time>2020-06-17T11:28:06Z</time>
      </trkpt>
      <trkpt lat="49.29261" lon="-0.11482">
        <ele>6.4</ele>
        <time>2020-06-17T11:28:07Z</time>
      </trkpt>
      <trkpt lat="49.29267" lon="-0.11485">
        <ele>6.6</ele>
        <time>2020-06-17T11:28:08Z</time>
      </trkpt>
      <trkpt lat="49.29275" lon="-0.11487">
        <ele>6.7</ele>
        <time>2020-06-17T11:28:09Z</time>
      </trkpt>
      <trkpt lat="49.29282" lon="-0.11489">
        <ele>7</ele>
        <time>2020-06-17T11:28:10Z</time>
      </trkpt>
      <trkpt lat="49.29288" lon="-0.11488">
        <ele>7.1</ele>
        <time>2020-06-17T11:28:11Z</time>
      </trkpt>
      <trkpt lat="49.29325" lon="-0.11518">
        <ele>8.4</ele>
        <time>2020-06-17T11:28:12Z</time>
      </trkpt>
      <trkpt lat="49.29327" lon="-0.11516">
        <ele>8.4</ele>
        <time>2020-06-17T11:28:13Z</time>
      </trkpt>
      <trkpt lat="49.29329" lon="-0.11513">
        <ele>8.4</ele>
        <time>2020-06-17T11:28:14Z</time>
      </trkpt>
      <trkpt lat="49.29332" lon="-0.1151">
        <ele>8.4</ele>
        <time>2020-06-17T11:28:15Z</time>
      </trkpt>
      <trkpt lat="49.29335" lon="-0.11506">
        <ele>8.3</ele>
        <time>2020-06-17T11:28:16Z</time>
      </trkpt>
      <trkpt lat="49.2934" lon="-0.115">
        <ele>8.3</ele>
        <time>2020-06-17T11:28:17Z</time>
      </trkpt>
      <trkpt lat="49.29343" lon="-0.11496">
        <ele>8.3</ele>
        <time>2020-06-17T11:28:18Z</time>
      </trkpt>
      <trkpt lat="49.29344" lon="-0.11492">
        <ele>8.2</ele>
        <time>2020-06-17T11:28:19Z</time>
      </trkpt>
      <trkpt lat="49.29347" lon="-0.11487">
        <ele>8.2</ele>
        <time>2020-06-17T11:28:20Z</time>
      </trkpt>
      <trkpt lat="49.29348" lon="-0.11485">
        <ele>8.2</ele>
        <time>2020-06-17T11:28:21Z</time>
      </trkpt>
      <trkpt lat="49.2935" lon="-0.11482">
        <ele>8.2</ele>
        <time>2020-06-17T11:28:22Z</time>
      </trkpt>
      <trkpt lat="49.29354" lon="-0.1148">
        <ele>8.2</ele>
        <time>2020-06-17T11:28:23Z</time>
      </trkpt>
      <trkpt lat="49.29356" lon="-0.1148">
        <ele>8.2</ele>
        <time>2020-06-17T11:28:24Z</time>
      </trkpt>
      <trkpt lat="49.29359" lon="-0.11477">
        <ele>8.2</ele>
        <time>2020-06-17T11:28:25Z</time>
      </trkpt>
      <trkpt lat="49.29361" lon="-0.11474">
        <ele>8.2</ele>
        <time>2020-06-17T11:28:26Z</time>
      </trkpt>
      <trkpt lat="49.29365" lon="-0.11471">
        <ele>8.2</ele>
        <time>2020-06-17T11:28:27Z</time>
      </trkpt>
      <trkpt lat="49.29366" lon="-0.1147">
        <ele>8.2</ele>
        <time>2020-06-17T11:28:28Z</time>
      </trkpt>
      <trkpt lat="49.29367" lon="-0.11468">
        <ele>8.2</ele>
        <time>2020-06-17T11:28:29Z</time>
      </trkpt>
      <trkpt lat="49.29368" lon="-0.11467">
        <ele>8.2</ele>
        <time>2020-06-17T11:28:30Z</time>
      </trkpt>
      <trkpt lat="49.2937" lon="-0.11465">
        <ele>8.2</ele>
        <time>2020-06-17T11:28:31Z</time>
      </trkpt>
      <trkpt lat="49.29371" lon="-0.11464">
        <ele>8.2</ele>
        <time>2020-06-17T11:28:32Z</time>
      </trkpt>
      <trkpt lat="49.29372" lon="-0.11463">
        <ele>8.2</ele>
        <time>2020-06-17T11:28:33Z</time>
      </trkpt>
      <trkpt lat="49.29374" lon="-0.11462">
        <ele>8.1</ele>
        <time>2020-06-17T11:28:34Z</time>
      </trkpt>
      <trkpt lat="49.29375" lon="-0.1146">
        <ele>8.1</ele>
        <time>2020-06-17T11:28:35Z</time>
      </trkpt>
      <trkpt lat="49.29377" lon="-0.1146">
        <ele>8.1</ele>
        <time>2020-06-17T11:28:36Z</time>
      </trkpt>
      <trkpt lat="49.29377" lon="-0.11459">
        <ele>8.2</ele>
        <time>2020-06-17T11:28:37Z</time>
      </trkpt>
      <trkpt lat="49.29378" lon="-0.11459">
        <ele>8.2</ele>
        <time>2020-06-17T11:28:38Z</time>
      </trkpt>
      <trkpt lat="49.29387" lon="-0.11459">
        <ele>8.3</ele>
        <time>2020-06-17T11:28:43Z</time>
      </trkpt>
      <trkpt lat="49.29388" lon="-0.11459">
        <ele>8.4</ele>
        <time>2020-06-17T11:28:44Z</time>
      </trkpt>
      <trkpt lat="49.2939" lon="-0.11458">
        <ele>8.4</ele>
        <time>2020-06-17T11:28:45Z</time>
      </trkpt>
      <trkpt lat="49.2939" lon="-0.11458">
        <ele>8.4</ele>
        <time>2020-06-17T11:28:46Z</time>
      </trkpt>
      <trkpt lat="49.29392" lon="-0.11457">
        <ele>8.4</ele>
        <time>2020-06-17T11:28:47Z</time>
      </trkpt>
      <trkpt lat="49.29394" lon="-0.11453">
        <ele>8.4</ele>
        <time>2020-06-17T11:28:48Z</time>
      </trkpt>
      <trkpt lat="49.29397" lon="-0.1145">
        <ele>8.3</ele>
        <time>2020-06-17T11:28:49Z</time>
      </trkpt>
      <trkpt lat="49.29398" lon="-0.1145">
        <ele>8.2</ele>
        <time>2020-06-17T11:28:50Z</time>
      </trkpt>
      <trkpt lat="49.29401" lon="-0.11452">
        <ele>8.1</ele>
        <time>2020-06-17T11:28:51Z</time>
      </trkpt>
      <trkpt lat="49.29403" lon="-0.11453">
        <ele>8</ele>
        <time>2020-06-17T11:28:52Z</time>
      </trkpt>
      <trkpt lat="49.29406" lon="-0.11455">
        <ele>7.9</ele>
        <time>2020-06-17T11:28:53Z</time>
      </trkpt>
      <trkpt lat="49.29408" lon="-0.11457">
        <ele>7.8</ele>
        <time>2020-06-17T11:28:54Z</time>
      </trkpt>
      <trkpt lat="49.29411" lon="-0.11459">
        <ele>7.7</ele>
        <time>2020-06-17T11:28:55Z</time>
      </trkpt>
      <trkpt lat="49.29414" lon="-0.1146">
        <ele>7.6</ele>
        <time>2020-06-17T11:28:56Z</time>
      </trkpt>
      <trkpt lat="49.29415" lon="-0.1146">
        <ele>7.5</ele>
        <time>2020-06-17T11:28:57Z</time>
      </trkpt>
      <trkpt lat="49.29417" lon="-0.11461">
        <ele>7.4</ele>
        <time>2020-06-17T11:28:58Z</time>
      </trkpt>
      <trkpt lat="49.29418" lon="-0.1146">
        <ele>7.4</ele>
        <time>2020-06-17T11:28:59Z</time>
      </trkpt>
      <trkpt lat="49.29419" lon="-0.1146">
        <ele>7.4</ele>
        <time>2020-06-17T11:29:00Z</time>
      </trkpt>
      <trkpt lat="49.2942" lon="-0.1146">
        <ele>7.3</ele>
        <time>2020-06-17T11:29:01Z</time>
      </trkpt>
      <trkpt lat="49.29421" lon="-0.1146">
        <ele>7.3</ele>
        <time>2020-06-17T11:29:02Z</time>
      </trkpt>
      <trkpt lat="49.29424" lon="-0.11458">
        <ele>7.2</ele>
        <time>2020-06-17T11:29:03Z</time>
      </trkpt>
      <trkpt lat="49.29424" lon="-0.11455">
        <ele>6.5</ele>
        <time>2020-06-17T11:29:04Z</time>
      </trkpt>
      <trkpt lat="49.29425" lon="-0.11453">
        <ele>6.5</ele>
        <time>2020-06-17T11:29:05Z</time>
      </trkpt>
      <trkpt lat="49.29427" lon="-0.11453">
        <ele>6.5</ele>
        <time>2020-06-17T11:29:06Z</time>
      </trkpt>
      <trkpt lat="49.29428" lon="-0.1145">
        <ele>6.5</ele>
        <time>2020-06-17T11:29:07Z</time>
      </trkpt>
      <trkpt lat="49.29429" lon="-0.11448">
        <ele>6.5</ele>
        <time>2020-06-17T11:29:08Z</time>
      </trkpt>
      <trkpt lat="49.2943" lon="-0.11447">
        <ele>6.5</ele>
        <time>2020-06-17T11:29:09Z</time>
      </trkpt>
      <trkpt lat="49.2943" lon="-0.11446">
        <ele>6.5</ele>
        <time>2020-06-17T11:29:10Z</time>
      </trkpt>
      <trkpt lat="49.29431" lon="-0.11441">
        <ele>6.5</ele>
        <time>2020-06-17T11:29:11Z</time>
      </trkpt>
      <trkpt lat="49.29431" lon="-0.11435">
        <ele>6.5</ele>
        <time>2020-06-17T11:29:12Z</time>
      </trkpt>
      <trkpt lat="49.29432" lon="-0.11429">
        <ele>6.5</ele>
        <time>2020-06-17T11:29:13Z</time>
      </trkpt>
      <trkpt lat="49.29434" lon="-0.11423">
        <ele>6.5</ele>
        <time>2020-06-17T11:29:14Z</time>
      </trkpt>
      <trkpt lat="49.29435" lon="-0.11418">
        <ele>6.4</ele>
        <time>2020-06-17T11:29:15Z</time>
      </trkpt>
      <trkpt lat="49.29436" lon="-0.11412">
        <ele>6.4</ele>
        <time>2020-06-17T11:29:16Z</time>
      </trkpt>
      <trkpt lat="49.29438" lon="-0.11406">
        <ele>6.4</ele>
        <time>2020-06-17T11:29:17Z</time>
      </trkpt>
      <trkpt lat="49.2944" lon="-0.114">
        <ele>6.4</ele>
        <time>2020-06-17T11:29:18Z</time>
      </trkpt>
      <trkpt lat="49.29443" lon="-0.11394">
        <ele>6.4</ele>
        <time>2020-06-17T11:29:19Z</time>
      </trkpt>
      <trkpt lat="49.29445" lon="-0.11387">
        <ele>6.4</ele>
        <time>2020-06-17T11:29:20Z</time>
      </trkpt>
      <trkpt lat="49.29448" lon="-0.11381">
        <ele>6.5</ele>
        <time>2020-06-17T11:29:21Z</time>
      </trkpt>
      <trkpt lat="49.2945" lon="-0.11375">
        <ele>6.5</ele>
        <time>2020-06-17T11:29:22Z</time>
      </trkpt>
      <trkpt lat="49.29451" lon="-0.11368">
        <ele>6.5</ele>
        <time>2020-06-17T11:29:23Z</time>
      </trkpt>
      <trkpt lat="49.29453" lon="-0.11362">
        <ele>6.6</ele>
        <time>2020-06-17T11:29:24Z</time>
      </trkpt>
      <trkpt lat="49.29454" lon="-0.11356">
        <ele>6.6</ele>
        <time>2020-06-17T11:29:25Z</time>
      </trkpt>
      <trkpt lat="49.29455" lon="-0.1135">
        <ele>6.6</ele>
        <time>2020-06-17T11:29:26Z</time>
      </trkpt>
      <trkpt lat="49.29457" lon="-0.11345">
        <ele>6.6</ele>
        <time>2020-06-17T11:29:27Z</time>
      </trkpt>
      <trkpt lat="49.29458" lon="-0.1134">
        <ele>6.7</ele>
        <time>2020-06-17T11:29:28Z</time>
      </trkpt>
      <trkpt lat="49.29459" lon="-0.11335">
        <ele>6.7</ele>
        <time>2020-06-17T11:29:29Z</time>
      </trkpt>
      <trkpt lat="49.2946" lon="-0.1133">
        <ele>6.7</ele>
        <time>2020-06-17T11:29:30Z</time>
      </trkpt>
      <trkpt lat="49.29461" lon="-0.11326">
        <ele>6.8</ele>
        <time>2020-06-17T11:29:31Z</time>
      </trkpt>
      <trkpt lat="49.29462" lon="-0.11321">
        <ele>6.8</ele>
        <time>2020-06-17T11:29:32Z</time>
      </trkpt>
      <trkpt lat="49.29462" lon="-0.11319">
        <ele>6.8</ele>
        <time>2020-06-17T11:29:33Z</time>
      </trkpt>
      <trkpt lat="49.29465" lon="-0.11319">
        <ele>6.8</ele>
        <time>2020-06-17T11:29:34Z</time>
      </trkpt>
      <trkpt lat="49.29466" lon="-0.11314">
        <ele>6.8</ele>
        <time>2020-06-17T11:29:35Z</time>
      </trkpt>
      <trkpt lat="49.29466" lon="-0.11312">
        <ele>6.8</ele>
        <time>2020-06-17T11:29:36Z</time>
      </trkpt>
      <trkpt lat="49.29467" lon="-0.11307">
        <ele>6.8</ele>
        <time>2020-06-17T11:29:37Z</time>
      </trkpt>
      <trkpt lat="49.29467" lon="-0.11306">
        <ele>6.8</ele>
        <time>2020-06-17T11:29:38Z</time>
      </trkpt>
      <trkpt lat="49.29468" lon="-0.11303">
        <ele>6.8</ele>
        <time>2020-06-17T11:29:39Z</time>
      </trkpt>
      <trkpt lat="49.2947" lon="-0.11303">
        <ele>6.8</ele>
        <time>2020-06-17T11:29:40Z</time>
      </trkpt>
      <trkpt lat="49.2947" lon="-0.11303">
        <ele>6.8</ele>
        <time>2020-06-17T11:29:41Z</time>
      </trkpt>
      <trkpt lat="49.2947" lon="-0.11302">
        <ele>6.8</ele>
        <time>2020-06-17T11:29:42Z</time>
      </trkpt>
      <trkpt lat="49.2947" lon="-0.11302">
        <ele>6.8</ele>
        <time>2020-06-17T11:29:43Z</time>
      </trkpt>
      <trkpt lat="49.2947" lon="-0.11301">
        <ele>6.8</ele>
        <time>2020-06-17T11:29:44Z</time>
      </trkpt>
      <trkpt lat="49.2947" lon="-0.113">
        <ele>6.8</ele>
        <time>2020-06-17T11:29:45Z</time>
      </trkpt>
      <trkpt lat="49.2947" lon="-0.113">
        <ele>6.8</ele>
        <time>2020-06-17T11:29:46Z</time>
      </trkpt>
      <trkpt lat="49.2947" lon="-0.11299">
        <ele>6.8</ele>
        <time>2020-06-17T11:29:47Z</time>
      </trkpt>
      <trkpt lat="49.2947" lon="-0.11298">
        <ele>6.8</ele>
        <time>2020-06-17T11:29:48Z</time>
      </trkpt>
      <trkpt lat="49.2947" lon="-0.11298">
        <ele>6.8</ele>
        <time>2020-06-17T11:29:49Z</time>
      </trkpt>
      <trkpt lat="49.2947" lon="-0.11296">
        <ele>6.8</ele>
        <time>2020-06-17T11:29:50Z</time>
      </trkpt>
      <trkpt lat="49.2947" lon="-0.11295">
        <ele>6.8</ele>
        <time>2020-06-17T11:29:51Z</time>
      </trkpt>
      <trkpt lat="49.2947" lon="-0.11294">
        <ele>6.8</ele>
        <time>2020-06-17T11:29:52Z</time>
      </trkpt>
      <trkpt lat="49.29469" lon="-0.11294">
        <ele>6.8</ele>
        <time>2020-06-17T11:29:53Z</time>
      </trkpt>
      <trkpt lat="49.29469" lon="-0.11295">
        <ele>6.8</ele>
        <time>2020-06-17T11:29:54Z</time>
      </trkpt>
      <trkpt lat="49.29468" lon="-0.11296">
        <ele>6.8</ele>
        <time>2020-06-17T11:29:55Z</time>
      </trkpt>
      <trkpt lat="49.29468" lon="-0.11295">
        <ele>6.8</ele>
        <time>2020-06-17T11:29:56Z</time>
      </trkpt>
      <trkpt lat="49.29468" lon="-0.11295">
        <ele>6.8</ele>
        <time>2020-06-17T11:29:57Z</time>
      </trkpt>
      <trkpt lat="49.29468" lon="-0.11296">
        <ele>6.8</ele>
        <time>2020-06-17T11:29:58Z</time>
      </trkpt>
      <trkpt lat="49.29468" lon="-0.11297">
        <ele>6.8</ele>
        <time>2020-06-17T11:29:59Z</time>
      </trkpt>
      <trkpt lat="49.29468" lon="-0.11297">
        <ele>6.8</ele>
        <time>2020-06-17T11:30:00Z</time>
      </trkpt>
      <trkpt lat="49.29468" lon="-0.11297">
        <ele>6.8</ele>
        <time>2020-06-17T11:30:01Z</time>
      </trkpt>
      <trkpt lat="49.29455" lon="-0.113">
        <ele>6.8</ele>
        <time>2020-06-17T11:35:06Z</time>
      </trkpt>
      <trkpt lat="49.29455" lon="-0.11301">
        <ele>6.8</ele>
        <time>2020-06-17T11:35:07Z</time>
      </trkpt>
      <trkpt lat="49.29454" lon="-0.11301">
        <ele>6.8</ele>
        <time>2020-06-17T11:35:08Z</time>
      </trkpt>
      <trkpt lat="49.29455" lon="-0.113">
        <ele>6.8</ele>
        <time>2020-06-17T11:35:09Z</time>
      </trkpt>
      <trkpt lat="49.29455" lon="-0.113">
        <ele>6.8</ele>
        <time>2020-06-17T11:35:10Z</time>
      </trkpt>
      <trkpt lat="49.29456" lon="-0.113">
        <ele>6.8</ele>
        <time>2020-06-17T11:35:11Z</time>
      </trkpt>
      <trkpt lat="49.29456" lon="-0.113">
        <ele>6.8</ele>
        <time>2020-06-17T11:35:12Z</time>
      </trkpt>
      <trkpt lat="49.29456" lon="-0.113">
        <ele>6.8</ele>
        <time>2020-06-17T11:35:13Z</time>
      </trkpt>
      <trkpt lat="49.29455" lon="-0.113">
        <ele>6.8</ele>
        <time>2020-06-17T11:35:14Z</time>
      </trkpt>
      <trkpt lat="49.29455" lon="-0.113">
        <ele>6.8</ele>
        <time>2020-06-17T11:35:15Z</time>
      </trkpt>
      <trkpt lat="49.29455" lon="-0.113">
        <ele>6.8</ele>
        <time>2020-06-17T11:35:16Z</time>
      </trkpt>
      <trkpt lat="49.29455" lon="-0.11299">
        <ele>6.8</ele>
        <time>2020-06-17T11:35:17Z</time>
      </trkpt>
      <trkpt lat="49.29454" lon="-0.11299">
        <ele>6.8</ele>
        <time>2020-06-17T11:35:18Z</time>
      </trkpt>
      <trkpt lat="49.29453" lon="-0.11299">
        <ele>6.8</ele>
        <time>2020-06-17T11:35:19Z</time>
      </trkpt>
      <trkpt lat="49.29453" lon="-0.11299">
        <ele>6.8</ele>
        <time>2020-06-17T11:35:20Z</time>
      </trkpt>
      <trkpt lat="49.29452" lon="-0.11299">
        <ele>6.8</ele>
        <time>2020-06-17T11:35:21Z</time>
      </trkpt>
      <trkpt lat="49.29451" lon="-0.11299">
        <ele>6.8</ele>
        <time>2020-06-17T11:35:22Z</time>
      </trkpt>
      <trkpt lat="49.29451" lon="-0.11299">
        <ele>6.8</ele>
        <time>2020-06-17T11:35:23Z</time>
      </trkpt>
      <trkpt lat="49.2945" lon="-0.11299">
        <ele>6.8</ele>
        <time>2020-06-17T11:35:24Z</time>
      </trkpt>
      <trkpt lat="49.2945" lon="-0.11299">
        <ele>6.8</ele>
        <time>2020-06-17T11:35:25Z</time>
      </trkpt>
      <trkpt lat="49.2945" lon="-0.11299">
        <ele>6.8</ele>
        <time>2020-06-17T11:35:26Z</time>
      </trkpt>
      <trkpt lat="49.29449" lon="-0.11299">
        <ele>6.8</ele>
        <time>2020-06-17T11:35:27Z</time>
      </trkpt>
      <trkpt lat="49.29449" lon="-0.11299">
        <ele>6.8</ele>
        <time>2020-06-17T11:35:28Z</time>
      </trkpt>
      <trkpt lat="49.29449" lon="-0.11299">
        <ele>6.8</ele>
        <time>2020-06-17T11:35:29Z</time>
      </trkpt>
      <trkpt lat="49.29449" lon="-0.11299">
        <ele>6.8</ele>
        <time>2020-06-17T11:35:30Z</time>
      </trkpt>
      <trkpt lat="49.29449" lon="-0.11299">
        <ele>6.8</ele>
        <time>2020-06-17T11:35:31Z</time>
      </trkpt>
      <trkpt lat="49.29449" lon="-0.11299">
        <ele>6.8</ele>
        <time>2020-06-17T11:35:32Z</time>
      </trkpt>
      <trkpt lat="49.29447" lon="-0.11298">
        <ele>6.8</ele>
        <time>2020-06-17T11:35:33Z</time>
      </trkpt>
      <trkpt lat="49.29446" lon="-0.11298">
        <ele>6.8</ele>
        <time>2020-06-17T11:35:34Z</time>
      </trkpt>
      <trkpt lat="49.29446" lon="-0.11298">
        <ele>6.8</ele>
        <time>2020-06-17T11:35:35Z</time>
      </trkpt>
      <trkpt lat="49.29446" lon="-0.11298">
        <ele>6.8</ele>
        <time>2020-06-17T11:35:36Z</time>
      </trkpt>
      <trkpt lat="49.29446" lon="-0.11298">
        <ele>6.8</ele>
        <time>2020-06-17T11:35:37Z</time>
      </trkpt>
      <trkpt lat="49.29446" lon="-0.11298">
        <ele>6.8</ele>
        <time>2020-06-17T11:35:38Z</time>
      </trkpt>
      <trkpt lat="49.29445" lon="-0.11298">
        <ele>6.8</ele>
        <time>2020-06-17T11:35:39Z</time>
      </trkpt>
      <trkpt lat="49.29444" lon="-0.11298">
        <ele>6.8</ele>
        <time>2020-06-17T11:35:40Z</time>
      </trkpt>
      <trkpt lat="49.29443" lon="-0.11299">
        <ele>6.8</ele>
        <time>2020-06-17T11:35:41Z</time>
      </trkpt>
      <trkpt lat="49.29444" lon="-0.11298">
        <ele>6.8</ele>
        <time>2020-06-17T11:35:42Z</time>
      </trkpt>
      <trkpt lat="49.29443" lon="-0.11298">
        <ele>6.8</ele>
        <time>2020-06-17T11:35:43Z</time>
      </trkpt>
      <trkpt lat="49.29443" lon="-0.11298">
        <ele>6.8</ele>
        <time>2020-06-17T11:35:44Z</time>
      </trkpt>
      <trkpt lat="49.29443" lon="-0.11298">
        <ele>6.8</ele>
        <time>2020-06-17T11:35:45Z</time>
      </trkpt>
      <trkpt lat="49.29443" lon="-0.11298">
        <ele>6.8</ele>
        <time>2020-06-17T11:35:46Z</time>
      </trkpt>
      <trkpt lat="49.29443" lon="-0.11298">
        <ele>6.8</ele>
        <time>2020-06-17T11:35:47Z</time>
      </trkpt>
      <trkpt lat="49.29443" lon="-0.11298">
        <ele>6.8</ele>
        <time>2020-06-17T11:35:48Z</time>
      </trkpt>
      <trkpt lat="49.29443" lon="-0.11297">
        <ele>6.8</ele>
        <time>2020-06-17T11:35:49Z</time>
      </trkpt>
      <trkpt lat="49.29443" lon="-0.11297">
        <ele>6.8</ele>
        <time>2020-06-17T11:35:50Z</time>
      </trkpt>
      <trkpt lat="49.29443" lon="-0.11297">
        <ele>6.8</ele>
        <time>2020-06-17T11:35:51Z</time>
      </trkpt>
      <trkpt lat="49.29443" lon="-0.11298">
        <ele>6.8</ele>
        <time>2020-06-17T11:35:52Z</time>
      </trkpt>
      <trkpt lat="49.29442" lon="-0.11298">
        <ele>6.8</ele>
        <time>2020-06-17T11:35:53Z</time>
      </trkpt>
      <trkpt lat="49.29442" lon="-0.11298">
        <ele>6.8</ele>
        <time>2020-06-17T11:35:54Z</time>
      </trkpt>
      <trkpt lat="49.29441" lon="-0.11298">
        <ele>6.8</ele>
        <time>2020-06-17T11:35:55Z</time>
      </trkpt>
      <trkpt lat="49.29441" lon="-0.11299">
        <ele>6.9</ele>
        <time>2020-06-17T11:35:56Z</time>
      </trkpt>
      <trkpt lat="49.2944" lon="-0.11299">
        <ele>6.9</ele>
        <time>2020-06-17T11:35:57Z</time>
      </trkpt>
      <trkpt lat="49.2944" lon="-0.11299">
        <ele>6.9</ele>
        <time>2020-06-17T11:35:58Z</time>
      </trkpt>
      <trkpt lat="49.29439" lon="-0.11299">
        <ele>6.9</ele>
        <time>2020-06-17T11:35:59Z</time>
      </trkpt>
      <trkpt lat="49.29439" lon="-0.113">
        <ele>6.9</ele>
        <time>2020-06-17T11:36:00Z</time>
      </trkpt>
      <trkpt lat="49.29439" lon="-0.113">
        <ele>6.9</ele>
        <time>2020-06-17T11:36:01Z</time>
      </trkpt>
      <trkpt lat="49.29439" lon="-0.113">
        <ele>6.9</ele>
        <time>2020-06-17T11:36:02Z</time>
      </trkpt>
      <trkpt lat="49.29439" lon="-0.113">
        <ele>6.9</ele>
        <time>2020-06-17T11:36:03Z</time>
      </trkpt>
      <trkpt lat="49.29439" lon="-0.113">
        <ele>6.9</ele>
        <time>2020-06-17T11:36:04Z</time>
      </trkpt>
      <trkpt lat="49.29439" lon="-0.113">
        <ele>6.9</ele>
        <time>2020-06-17T11:36:05Z</time>
      </trkpt>
      <trkpt lat="49.29439" lon="-0.113">
        <ele>6.9</ele>
        <time>2020-06-17T11:36:06Z</time>
      </trkpt>
      <trkpt lat="49.29439" lon="-0.113">
        <ele>6.9</ele>
        <time>2020-06-17T11:36:07Z</time>
      </trkpt>
      <trkpt lat="49.29439" lon="-0.113">
        <ele>6.9</ele>
        <time>2020-06-17T11:36:08Z</time>
      </trkpt>
      <trkpt lat="49.29439" lon="-0.113">
        <ele>6.9</ele>
        <time>2020-06-17T11:36:09Z</time>
      </trkpt>
      <trkpt lat="49.29439" lon="-0.11299">
        <ele>6.9</ele>
        <time>2020-06-17T11:36:10Z</time>
      </trkpt>
      <trkpt lat="49.29439" lon="-0.11299">
        <ele>6.9</ele>
        <time>2020-06-17T11:36:11Z</time>
      </trkpt>
      <trkpt lat="49.29451" lon="-0.11299">
        <ele>6.9</ele>
        <time>2020-06-17T11:40:13Z</time>
      </trkpt>
      <trkpt lat="49.29451" lon="-0.11299">
        <ele>6.9</ele>
        <time>2020-06-17T11:40:14Z</time>
      </trkpt>
      <trkpt lat="49.29451" lon="-0.11299">
        <ele>6.9</ele>
        <time>2020-06-17T11:40:15Z</time>
      </trkpt>
      <trkpt lat="49.29451" lon="-0.11299">
        <ele>6.9</ele>
        <time>2020-06-17T11:40:16Z</time>
      </trkpt>
      <trkpt lat="49.2945" lon="-0.11299">
        <ele>6.9</ele>
        <time>2020-06-17T11:40:17Z</time>
      </trkpt>
      <trkpt lat="49.29449" lon="-0.11299">
        <ele>6.9</ele>
        <time>2020-06-17T11:40:18Z</time>
      </trkpt>
      <trkpt lat="49.29448" lon="-0.11299">
        <ele>6.9</ele>
        <time>2020-06-17T11:40:19Z</time>
      </trkpt>
      <trkpt lat="49.29447" lon="-0.11299">
        <ele>6.9</ele>
        <time>2020-06-17T11:40:20Z</time>
      </trkpt>
      <trkpt lat="49.29447" lon="-0.11299">
        <ele>6.9</ele>
        <time>2020-06-17T11:40:21Z</time>
      </trkpt>
      <trkpt lat="49.29447" lon="-0.11299">
        <ele>6.9</ele>
        <time>2020-06-17T11:40:22Z</time>
      </trkpt>
      <trkpt lat="49.29446" lon="-0.11299">
        <ele>6.9</ele>
        <time>2020-06-17T11:40:23Z</time>
      </trkpt>
      <trkpt lat="49.29445" lon="-0.11298">
        <ele>6.9</ele>
        <time>2020-06-17T11:40:24Z</time>
      </trkpt>
      <trkpt lat="49.29444" lon="-0.11297">
        <ele>6.9</ele>
        <time>2020-06-17T11:40:25Z</time>
      </trkpt>
      <trkpt lat="49.29445" lon="-0.11297">
        <ele>6.9</ele>
        <time>2020-06-17T11:40:26Z</time>
      </trkpt>
      <trkpt lat="49.29445" lon="-0.11296">
        <ele>6.9</ele>
        <time>2020-06-17T11:40:27Z</time>
      </trkpt>
      <trkpt lat="49.29445" lon="-0.11296">
        <ele>6.9</ele>
        <time>2020-06-17T11:40:28Z</time>
      </trkpt>
      <trkpt lat="49.29446" lon="-0.11295">
        <ele>6.9</ele>
        <time>2020-06-17T11:40:29Z</time>
      </trkpt>
      <trkpt lat="49.29447" lon="-0.11295">
        <ele>6.9</ele>
        <time>2020-06-17T11:40:30Z</time>
      </trkpt>
      <trkpt lat="49.29447" lon="-0.11295">
        <ele>6.9</ele>
        <time>2020-06-17T11:40:31Z</time>
      </trkpt>
      <trkpt lat="49.29447" lon="-0.11295">
        <ele>6.9</ele>
        <time>2020-06-17T11:40:32Z</time>
      </trkpt>
      <trkpt lat="49.29446" lon="-0.11296">
        <ele>6.9</ele>
        <time>2020-06-17T11:40:33Z</time>
      </trkpt>
      <trkpt lat="49.29446" lon="-0.11297">
        <ele>6.9</ele>
        <time>2020-06-17T11:40:34Z</time>
      </trkpt>
      <trkpt lat="49.29446" lon="-0.11297">
        <ele>6.9</ele>
        <time>2020-06-17T11:40:35Z</time>
      </trkpt>
      <trkpt lat="49.29446" lon="-0.11297">
        <ele>6.9</ele>
        <time>2020-06-17T11:40:36Z</time>
      </trkpt>
      <trkpt lat="49.29446" lon="-0.11298">
        <ele>6.9</ele>
        <time>2020-06-17T11:40:37Z</time>
      </trkpt>
      <trkpt lat="49.29446" lon="-0.11298">
        <ele>6.9</ele>
        <time>2020-06-17T11:40:38Z</time>
      </trkpt>
      <trkpt lat="49.29446" lon="-0.11299">
        <ele>6.9</ele>
        <time>2020-06-17T11:40:39Z</time>
      </trkpt>
      <trkpt lat="49.29446" lon="-0.113">
        <ele>6.9</ele>
        <time>2020-06-17T11:40:40Z</time>
      </trkpt>
      <trkpt lat="49.29446" lon="-0.11302">
        <ele>6.9</ele>
        <time>2020-06-17T11:40:41Z</time>
      </trkpt>
      <trkpt lat="49.29447" lon="-0.11302">
        <ele>6.9</ele>
        <time>2020-06-17T11:40:42Z</time>
      </trkpt>
      <trkpt lat="49.29447" lon="-0.11302">
        <ele>6.9</ele>
        <time>2020-06-17T11:40:43Z</time>
      </trkpt>
      <trkpt lat="49.29447" lon="-0.11302">
        <ele>6.9</ele>
        <time>2020-06-17T11:40:44Z</time>
      </trkpt>
      <trkpt lat="49.29447" lon="-0.11301">
        <ele>6.9</ele>
        <time>2020-06-17T11:40:45Z</time>
      </trkpt>
      <trkpt lat="49.29447" lon="-0.11301">
        <ele>6.9</ele>
        <time>2020-06-17T11:40:46Z</time>
      </trkpt>
      <trkpt lat="49.29447" lon="-0.113">
        <ele>6.9</ele>
        <time>2020-06-17T11:40:47Z</time>
      </trkpt>
      <trkpt lat="49.29447" lon="-0.113">
        <ele>6.9</ele>
        <time>2020-06-17T11:40:48Z</time>
      </trkpt>
      <trkpt lat="49.29448" lon="-0.113">
        <ele>6.9</ele>
        <time>2020-06-17T11:40:49Z</time>
      </trkpt>
      <trkpt lat="49.29448" lon="-0.11299">
        <ele>6.9</ele>
        <time>2020-06-17T11:40:50Z</time>
      </trkpt>
      <trkpt lat="49.29448" lon="-0.11299">
        <ele>6.9</ele>
        <time>2020-06-17T11:40:51Z</time>
      </trkpt>
      <trkpt lat="49.29449" lon="-0.11299">
        <ele>6.9</ele>
        <time>2020-06-17T11:40:52Z</time>
      </trkpt>
      <trkpt lat="49.2945" lon="-0.11299">
        <ele>6.9</ele>
        <time>2020-06-17T11:40:53Z</time>
      </trkpt>
      <trkpt lat="49.29451" lon="-0.11299">
        <ele>6.9</ele>
        <time>2020-06-17T11:40:54Z</time>
      </trkpt>
      <trkpt lat="49.29451" lon="-0.11299">
        <ele>6.9</ele>
        <time>2020-06-17T11:40:55Z</time>
      </trkpt>
      <trkpt lat="49.29452" lon="-0.11299">
        <ele>6.9</ele>
        <time>2020-06-17T11:40:56Z</time>
      </trkpt>
      <trkpt lat="49.29453" lon="-0.11299">
        <ele>6.9</ele>
        <time>2020-06-17T11:40:57Z</time>
      </trkpt>
      <trkpt lat="49.29453" lon="-0.11298">
        <ele>6.9</ele>
        <time>2020-06-17T11:40:58Z</time>
      </trkpt>
      <trkpt lat="49.29453" lon="-0.11298">
        <ele>6.9</ele>
        <time>2020-06-17T11:40:59Z</time>
      </trkpt>
      <trkpt lat="49.29453" lon="-0.11298">
        <ele>6.9</ele>
        <time>2020-06-17T11:41:00Z</time>
      </trkpt>
      <trkpt lat="49.29452" lon="-0.11297">
        <ele>7</ele>
        <time>2020-06-17T11:41:01Z</time>
      </trkpt>
      <trkpt lat="49.29452" lon="-0.11297">
        <ele>7</ele>
        <time>2020-06-17T11:41:02Z</time>
      </trkpt>
      <trkpt lat="49.29452" lon="-0.11298">
        <ele>7</ele>
        <time>2020-06-17T11:41:03Z</time>
      </trkpt>
      <trkpt lat="49.29453" lon="-0.11298">
        <ele>7</ele>
        <time>2020-06-17T11:41:04Z</time>
      </trkpt>
      <trkpt lat="49.29453" lon="-0.11299">
        <ele>7</ele>
        <time>2020-06-17T11:41:05Z</time>
      </trkpt>
      <trkpt lat="49.29453" lon="-0.11299">
        <ele>7</ele>
        <time>2020-06-17T11:41:06Z</time>
      </trkpt>
      <trkpt lat="49.29453" lon="-0.11299">
        <ele>7</ele>
        <time>2020-06-17T11:41:07Z</time>
      </trkpt>
      <trkpt lat="49.29453" lon="-0.11299">
        <ele>7</ele>
        <time>2020-06-17T11:41:08Z</time>
      </trkpt>
      <trkpt lat="49.29453" lon="-0.11299">
        <ele>7</ele>
        <time>2020-06-17T11:41:09Z</time>
      </trkpt>
      <trkpt lat="49.29458" lon="-0.11294">
        <ele>7</ele>
        <time>2020-06-17T11:44:46Z</time>
      </trkpt>
      <trkpt lat="49.29459" lon="-0.11294">
        <ele>7</ele>
        <time>2020-06-17T11:44:47Z</time>
      </trkpt>
      <trkpt lat="49.29459" lon="-0.11294">
        <ele>7</ele>
        <time>2020-06-17T11:44:48Z</time>
      </trkpt>
      <trkpt lat="49.29459" lon="-0.11294">
        <ele>7</ele>
        <time>2020-06-17T11:44:49Z</time>
      </trkpt>
      <trkpt lat="49.29459" lon="-0.11295">
        <ele>7</ele>
        <time>2020-06-17T11:44:50Z</time>
      </trkpt>
      <trkpt lat="49.2946" lon="-0.11294">
        <ele>7</ele>
        <time>2020-06-17T11:44:51Z</time>
      </trkpt>
      <trkpt lat="49.2946" lon="-0.11294">
        <ele>7</ele>
        <time>2020-06-17T11:44:52Z</time>
      </trkpt>
      <trkpt lat="49.29459" lon="-0.11295">
        <ele>7</ele>
        <time>2020-06-17T11:44:53Z</time>
      </trkpt>
      <trkpt lat="49.29459" lon="-0.11296">
        <ele>7</ele>
        <time>2020-06-17T11:44:54Z</time>
      </trkpt>
      <trkpt lat="49.29459" lon="-0.11296">
        <ele>7</ele>
        <time>2020-06-17T11:44:55Z</time>
      </trkpt>
      <trkpt lat="49.29459" lon="-0.11297">
        <ele>7</ele>
        <time>2020-06-17T11:44:56Z</time>
      </trkpt>
      <trkpt lat="49.29459" lon="-0.11297">
        <ele>7</ele>
        <time>2020-06-17T11:44:57Z</time>
      </trkpt>
      <trkpt lat="49.29459" lon="-0.11296">
        <ele>7</ele>
        <time>2020-06-17T11:44:58Z</time>
      </trkpt>
      <trkpt lat="49.29459" lon="-0.11296">
        <ele>7</ele>
        <time>2020-06-17T11:44:59Z</time>
      </trkpt>
      <trkpt lat="49.29459" lon="-0.11296">
        <ele>7</ele>
        <time>2020-06-17T11:45:00Z</time>
      </trkpt>
      <trkpt lat="49.29457" lon="-0.11301">
        <ele>7</ele>
        <time>2020-06-17T11:52:40Z</time>
      </trkpt>
      <trkpt lat="49.29456" lon="-0.113">
        <ele>7</ele>
        <time>2020-06-17T11:52:41Z</time>
      </trkpt>
      <trkpt lat="49.29454" lon="-0.11299">
        <ele>7</ele>
        <time>2020-06-17T11:52:42Z</time>
      </trkpt>
      <trkpt lat="49.29452" lon="-0.11298">
        <ele>7</ele>
        <time>2020-06-17T11:52:43Z</time>
      </trkpt>
      <trkpt lat="49.29452" lon="-0.11298">
        <ele>7</ele>
        <time>2020-06-17T11:52:44Z</time>
      </trkpt>
      <trkpt lat="49.29451" lon="-0.11297">
        <ele>7</ele>
        <time>2020-06-17T11:52:45Z</time>
      </trkpt>
      <trkpt lat="49.29451" lon="-0.11297">
        <ele>7</ele>
        <time>2020-06-17T11:52:46Z</time>
      </trkpt>
      <trkpt lat="49.29451" lon="-0.11297">
        <ele>7</ele>
        <time>2020-06-17T11:52:47Z</time>
      </trkpt>
      <trkpt lat="49.29451" lon="-0.11297">
        <ele>7</ele>
        <time>2020-06-17T11:52:48Z</time>
      </trkpt>
      <trkpt lat="49.29451" lon="-0.11297">
        <ele>7</ele>
        <time>2020-06-17T11:52:49Z</time>
      </trkpt>
      <trkpt lat="49.29451" lon="-0.11297">
        <ele>7</ele>
        <time>2020-06-17T11:52:50Z</time>
      </trkpt>
      <trkpt lat="49.2945" lon="-0.11297">
        <ele>7</ele>
        <time>2020-06-17T11:52:51Z</time>
      </trkpt>
      <trkpt lat="49.2945" lon="-0.11297">
        <ele>7</ele>
        <time>2020-06-17T11:52:52Z</time>
      </trkpt>
      <trkpt lat="49.29451" lon="-0.11299">
        <ele>7</ele>
        <time>2020-06-17T11:52:53Z</time>
      </trkpt>
      <trkpt lat="49.29452" lon="-0.113">
        <ele>7</ele>
        <time>2020-06-17T11:52:54Z</time>
      </trkpt>
      <trkpt lat="49.29452" lon="-0.11301">
        <ele>7</ele>
        <time>2020-06-17T11:52:55Z</time>
      </trkpt>
      <trkpt lat="49.29453" lon="-0.11304">
        <ele>7</ele>
        <time>2020-06-17T11:52:56Z</time>
      </trkpt>
      <trkpt lat="49.29444" lon="-0.11295">
        <ele>7</ele>
        <time>2020-06-17T11:57:08Z</time>
      </trkpt>
      <trkpt lat="49.29444" lon="-0.11296">
        <ele>7</ele>
        <time>2020-06-17T11:57:09Z</time>
      </trkpt>
      <trkpt lat="49.29443" lon="-0.11295">
        <ele>7.1</ele>
        <time>2020-06-17T11:57:10Z</time>
      </trkpt>
      <trkpt lat="49.29444" lon="-0.11296">
        <ele>7.1</ele>
        <time>2020-06-17T11:57:11Z</time>
      </trkpt>
      <trkpt lat="49.29443" lon="-0.11295">
        <ele>7.1</ele>
        <time>2020-06-17T11:57:12Z</time>
      </trkpt>
      <trkpt lat="49.29442" lon="-0.11293">
        <ele>7.1</ele>
        <time>2020-06-17T11:57:13Z</time>
      </trkpt>
      <trkpt lat="49.29442" lon="-0.11292">
        <ele>7.1</ele>
        <time>2020-06-17T11:57:14Z</time>
      </trkpt>
      <trkpt lat="49.29441" lon="-0.1129">
        <ele>7.1</ele>
        <time>2020-06-17T11:57:15Z</time>
      </trkpt>
      <trkpt lat="49.29441" lon="-0.1129">
        <ele>7.1</ele>
        <time>2020-06-17T11:57:16Z</time>
      </trkpt>
      <trkpt lat="49.29441" lon="-0.1129">
        <ele>7.1</ele>
        <time>2020-06-17T11:57:17Z</time>
      </trkpt>
      <trkpt lat="49.29441" lon="-0.1129">
        <ele>7.1</ele>
        <time>2020-06-17T11:57:18Z</time>
      </trkpt>
      <trkpt lat="49.29441" lon="-0.1129">
        <ele>7.1</ele>
        <time>2020-06-17T11:57:19Z</time>
      </trkpt>
      <trkpt lat="49.29441" lon="-0.1129">
        <ele>7.1</ele>
        <time>2020-06-17T11:57:20Z</time>
      </trkpt>
      <trkpt lat="49.29441" lon="-0.1129">
        <ele>7.1</ele>
        <time>2020-06-17T11:57:21Z</time>
      </trkpt>
      <trkpt lat="49.29441" lon="-0.11287">
        <ele>7.1</ele>
        <time>2020-06-17T11:57:33Z</time>
      </trkpt>
      <trkpt lat="49.29441" lon="-0.11287">
        <ele>7.1</ele>
        <time>2020-06-17T11:57:34Z</time>
      </trkpt>
      <trkpt lat="49.29441" lon="-0.11287">
        <ele>7.1</ele>
        <time>2020-06-17T11:57:35Z</time>
      </trkpt>
      <trkpt lat="49.29441" lon="-0.11287">
        <ele>7.1</ele>
        <time>2020-06-17T11:57:36Z</time>
      </trkpt>
      <trkpt lat="49.29441" lon="-0.11287">
        <ele>7.1</ele>
        <time>2020-06-17T11:57:37Z</time>
      </trkpt>
      <trkpt lat="49.29441" lon="-0.11287">
        <ele>7.1</ele>
        <time>2020-06-17T11:57:38Z</time>
      </trkpt>
      <trkpt lat="49.29441" lon="-0.11287">
        <ele>7.1</ele>
        <time>2020-06-17T11:57:39Z</time>
      </trkpt>
      <trkpt lat="49.29441" lon="-0.11287">
        <ele>7.1</ele>
        <time>2020-06-17T11:57:40Z</time>
      </trkpt>
      <trkpt lat="49.29441" lon="-0.11287">
        <ele>7.1</ele>
        <time>2020-06-17T11:57:41Z</time>
      </trkpt>
      <trkpt lat="49.29441" lon="-0.11287">
        <ele>7.1</ele>
        <time>2020-06-17T11:57:42Z</time>
      </trkpt>
      <trkpt lat="49.29441" lon="-0.11287">
        <ele>7.1</ele>
        <time>2020-06-17T11:57:43Z</time>
      </trkpt>
      <trkpt lat="49.29441" lon="-0.11287">
        <ele>7.1</ele>
        <time>2020-06-17T11:57:44Z</time>
      </trkpt>
      <trkpt lat="49.29441" lon="-0.11287">
        <ele>7.1</ele>
        <time>2020-06-17T11:57:45Z</time>
      </trkpt>
      <trkpt lat="49.29441" lon="-0.11286">
        <ele>7.1</ele>
        <time>2020-06-17T11:57:46Z</time>
      </trkpt>
      <trkpt lat="49.29443" lon="-0.11284">
        <ele>7.1</ele>
        <time>2020-06-17T11:57:54Z</time>
      </trkpt>
      <trkpt lat="49.29443" lon="-0.11284">
        <ele>7.1</ele>
        <time>2020-06-17T11:57:55Z</time>
      </trkpt>
      <trkpt lat="49.29443" lon="-0.11284">
        <ele>7.1</ele>
        <time>2020-06-17T11:57:56Z</time>
      </trkpt>
      <trkpt lat="49.29443" lon="-0.11284">
        <ele>7.1</ele>
        <time>2020-06-17T11:57:57Z</time>
      </trkpt>
      <trkpt lat="49.29443" lon="-0.11284">
        <ele>7.1</ele>
        <time>2020-06-17T11:57:58Z</time>
      </trkpt>
      <trkpt lat="49.29442" lon="-0.11283">
        <ele>7.1</ele>
        <time>2020-06-17T11:57:59Z</time>
      </trkpt>
      <trkpt lat="49.29442" lon="-0.11282">
        <ele>7.1</ele>
        <time>2020-06-17T11:58:00Z</time>
      </trkpt>
      <trkpt lat="49.29442" lon="-0.11281">
        <ele>7.1</ele>
        <time>2020-06-17T11:58:01Z</time>
      </trkpt>
      <trkpt lat="49.29442" lon="-0.1128">
        <ele>7.1</ele>
        <time>2020-06-17T11:58:02Z</time>
      </trkpt>
      <trkpt lat="49.29442" lon="-0.1128">
        <ele>7.1</ele>
        <time>2020-06-17T11:58:03Z</time>
      </trkpt>
      <trkpt lat="49.29441" lon="-0.1128">
        <ele>7.1</ele>
        <time>2020-06-17T11:58:04Z</time>
      </trkpt>
      <trkpt lat="49.29441" lon="-0.1128">
        <ele>7.1</ele>
        <time>2020-06-17T11:58:05Z</time>
      </trkpt>
      <trkpt lat="49.2944" lon="-0.11281">
        <ele>7.1</ele>
        <time>2020-06-17T11:58:06Z</time>
      </trkpt>
      <trkpt lat="49.29439" lon="-0.11281">
        <ele>7.1</ele>
        <time>2020-06-17T11:58:07Z</time>
      </trkpt>
      <trkpt lat="49.29438" lon="-0.11282">
        <ele>7.1</ele>
        <time>2020-06-17T11:58:08Z</time>
      </trkpt>
      <trkpt lat="49.29438" lon="-0.11282">
        <ele>7.1</ele>
        <time>2020-06-17T11:58:09Z</time>
      </trkpt>
      <trkpt lat="49.29438" lon="-0.11282">
        <ele>7.1</ele>
        <time>2020-06-17T11:58:10Z</time>
      </trkpt>
      <trkpt lat="49.29437" lon="-0.11282">
        <ele>7.1</ele>
        <time>2020-06-17T11:58:11Z</time>
      </trkpt>
      <trkpt lat="49.29437" lon="-0.11283">
        <ele>7.1</ele>
        <time>2020-06-17T11:58:12Z</time>
      </trkpt>
      <trkpt lat="49.29438" lon="-0.11283">
        <ele>7.1</ele>
        <time>2020-06-17T11:58:13Z</time>
      </trkpt>
      <trkpt lat="49.29438" lon="-0.11282">
        <ele>7.1</ele>
        <time>2020-06-17T11:58:14Z</time>
      </trkpt>
      <trkpt lat="49.29438" lon="-0.11282">
        <ele>7.1</ele>
        <time>2020-06-17T11:58:15Z</time>
      </trkpt>
      <trkpt lat="49.29438" lon="-0.11285">
        <ele>7.1</ele>
        <time>2020-06-17T11:58:16Z</time>
      </trkpt>
      <trkpt lat="49.29438" lon="-0.11286">
        <ele>7.1</ele>
        <time>2020-06-17T11:58:17Z</time>
      </trkpt>
      <trkpt lat="49.29438" lon="-0.11288">
        <ele>7.1</ele>
        <time>2020-06-17T11:58:18Z</time>
      </trkpt>
      <trkpt lat="49.29439" lon="-0.11289">
        <ele>7.1</ele>
        <time>2020-06-17T11:58:19Z</time>
      </trkpt>
      <trkpt lat="49.29439" lon="-0.1129">
        <ele>7.1</ele>
        <time>2020-06-17T11:58:20Z</time>
      </trkpt>
      <trkpt lat="49.29439" lon="-0.11291">
        <ele>7.1</ele>
        <time>2020-06-17T11:58:21Z</time>
      </trkpt>
      <trkpt lat="49.2944" lon="-0.11291">
        <ele>7.1</ele>
        <time>2020-06-17T11:58:22Z</time>
      </trkpt>
      <trkpt lat="49.2944" lon="-0.11291">
        <ele>7.1</ele>
        <time>2020-06-17T11:58:23Z</time>
      </trkpt>
      <trkpt lat="49.2944" lon="-0.11292">
        <ele>7.1</ele>
        <time>2020-06-17T11:58:24Z</time>
      </trkpt>
      <trkpt lat="49.2944" lon="-0.11293">
        <ele>7.1</ele>
        <time>2020-06-17T11:58:25Z</time>
      </trkpt>
      <trkpt lat="49.29453" lon="-0.11299">
        <ele>7.2</ele>
        <time>2020-06-17T11:59:35Z</time>
      </trkpt>
      <trkpt lat="49.29453" lon="-0.11298">
        <ele>7.2</ele>
        <time>2020-06-17T11:59:36Z</time>
      </trkpt>
      <trkpt lat="49.29453" lon="-0.11298">
        <ele>7.2</ele>
        <time>2020-06-17T11:59:37Z</time>
      </trkpt>
      <trkpt lat="49.29453" lon="-0.11298">
        <ele>7.2</ele>
        <time>2020-06-17T11:59:38Z</time>
      </trkpt>
      <trkpt lat="49.29453" lon="-0.11298">
        <ele>7.2</ele>
        <time>2020-06-17T11:59:39Z</time>
      </trkpt>
      <trkpt lat="49.29452" lon="-0.11299">
        <ele>7.2</ele>
        <time>2020-06-17T11:59:40Z</time>
      </trkpt>
      <trkpt lat="49.29452" lon="-0.11299">
        <ele>7.2</ele>
        <time>2020-06-17T11:59:41Z</time>
      </trkpt>
      <trkpt lat="49.29452" lon="-0.11298">
        <ele>7.2</ele>
        <time>2020-06-17T11:59:42Z</time>
      </trkpt>
      <trkpt lat="49.29452" lon="-0.11299">
        <ele>7.2</ele>
        <time>2020-06-17T11:59:43Z</time>
      </trkpt>
      <trkpt lat="49.29452" lon="-0.11299">
        <ele>7.2</ele>
        <time>2020-06-17T11:59:44Z</time>
      </trkpt>
      <trkpt lat="49.29451" lon="-0.11299">
        <ele>7.2</ele>
        <time>2020-06-17T11:59:45Z</time>
      </trkpt>
      <trkpt lat="49.29451" lon="-0.11299">
        <ele>7.2</ele>
        <time>2020-06-17T11:59:46Z</time>
      </trkpt>
      <trkpt lat="49.29458" lon="-0.11303">
        <ele>7.2</ele>
        <time>2020-06-17T12:00:05Z</time>
      </trkpt>
      <trkpt lat="49.29459" lon="-0.11304">
        <ele>7.2</ele>
        <time>2020-06-17T12:00:06Z</time>
      </trkpt>
      <trkpt lat="49.2946" lon="-0.11305">
        <ele>7.2</ele>
        <time>2020-06-17T12:00:07Z</time>
      </trkpt>
      <trkpt lat="49.29461" lon="-0.11306">
        <ele>7.2</ele>
        <time>2020-06-17T12:00:08Z</time>
      </trkpt>
      <trkpt lat="49.29462" lon="-0.11306">
        <ele>7.2</ele>
        <time>2020-06-17T12:00:09Z</time>
      </trkpt>
      <trkpt lat="49.29464" lon="-0.11305">
        <ele>7.2</ele>
        <time>2020-06-17T12:00:10Z</time>
      </trkpt>
      <trkpt lat="49.29466" lon="-0.11305">
        <ele>7.2</ele>
        <time>2020-06-17T12:00:11Z</time>
      </trkpt>
      <trkpt lat="49.29468" lon="-0.11304">
        <ele>7.2</ele>
        <time>2020-06-17T12:00:12Z</time>
      </trkpt>
      <trkpt lat="49.29469" lon="-0.11304">
        <ele>7.2</ele>
        <time>2020-06-17T12:00:13Z</time>
      </trkpt>
      <trkpt lat="49.29471" lon="-0.11303">
        <ele>7.2</ele>
        <time>2020-06-17T12:00:14Z</time>
      </trkpt>
      <trkpt lat="49.29473" lon="-0.11302">
        <ele>7.2</ele>
        <time>2020-06-17T12:00:15Z</time>
      </trkpt>
      <trkpt lat="49.29475" lon="-0.11302">
        <ele>7.2</ele>
        <time>2020-06-17T12:00:16Z</time>
      </trkpt>
      <trkpt lat="49.29477" lon="-0.11301">
        <ele>7.2</ele>
        <time>2020-06-17T12:00:17Z</time>
      </trkpt>
      <trkpt lat="49.29478" lon="-0.113">
        <ele>7.2</ele>
        <time>2020-06-17T12:00:18Z</time>
      </trkpt>
      <trkpt lat="49.2948" lon="-0.113">
        <ele>7.2</ele>
        <time>2020-06-17T12:00:19Z</time>
      </trkpt>
      <trkpt lat="49.29482" lon="-0.11299">
        <ele>7.2</ele>
        <time>2020-06-17T12:00:20Z</time>
      </trkpt>
      <trkpt lat="49.29484" lon="-0.11298">
        <ele>7.2</ele>
        <time>2020-06-17T12:01:53Z</time>
      </trkpt>
      <trkpt lat="49.29486" lon="-0.11298">
        <ele>7.2</ele>
        <time>2020-06-17T12:01:54Z</time>
      </trkpt>
      <trkpt lat="49.29487" lon="-0.11297">
        <ele>7.2</ele>
        <time>2020-06-17T12:01:55Z</time>
      </trkpt>
      <trkpt lat="49.29489" lon="-0.11297">
        <ele>7.2</ele>
        <time>2020-06-17T12:01:56Z</time>
      </trkpt>
      <trkpt lat="49.29491" lon="-0.11296">
        <ele>7.2</ele>
        <time>2020-06-17T12:01:57Z</time>
      </trkpt>
      <trkpt lat="49.29493" lon="-0.11295">
        <ele>7.2</ele>
        <time>2020-06-17T12:01:58Z</time>
      </trkpt>
      <trkpt lat="49.29495" lon="-0.11292">
        <ele>7.2</ele>
        <time>2020-06-17T12:01:59Z</time>
      </trkpt>
      <trkpt lat="49.29496" lon="-0.11291">
        <ele>7.2</ele>
        <time>2020-06-17T12:02:00Z</time>
      </trkpt>
      <trkpt lat="49.29498" lon="-0.11289">
        <ele>7.2</ele>
        <time>2020-06-17T12:02:01Z</time>
      </trkpt>
      <trkpt lat="49.29498" lon="-0.11288">
        <ele>7.2</ele>
        <time>2020-06-17T12:02:02Z</time>
      </trkpt>
      <trkpt lat="49.29499" lon="-0.11287">
        <ele>7.2</ele>
        <time>2020-06-17T12:02:03Z</time>
      </trkpt>
      <trkpt lat="49.29501" lon="-0.11284">
        <ele>7.2</ele>
        <time>2020-06-17T12:02:04Z</time>
      </trkpt>
      <trkpt lat="49.29502" lon="-0.11283">
        <ele>7.2</ele>
        <time>2020-06-17T12:02:05Z</time>
      </trkpt>
      <trkpt lat="49.29503" lon="-0.11281">
        <ele>7.2</ele>
        <time>2020-06-17T12:02:06Z</time>
      </trkpt>
      <trkpt lat="49.29504" lon="-0.11279">
        <ele>7.2</ele>
        <time>2020-06-17T12:02:07Z</time>
      </trkpt>
      <trkpt lat="49.29505" lon="-0.11277">
        <ele>7.2</ele>
        <time>2020-06-17T12:02:08Z</time>
      </trkpt>
      <trkpt lat="49.29506" lon="-0.11275">
        <ele>7.2</ele>
        <time>2020-06-17T12:02:09Z</time>
      </trkpt>
      <trkpt lat="49.29507" lon="-0.11273">
        <ele>7.3</ele>
        <time>2020-06-17T12:02:10Z</time>
      </trkpt>
      <trkpt lat="49.29507" lon="-0.11272">
        <ele>7.3</ele>
        <time>2020-06-17T12:02:11Z</time>
      </trkpt>
      <trkpt lat="49.29508" lon="-0.1127">
        <ele>7.3</ele>
        <time>2020-06-17T12:02:12Z</time>
      </trkpt>
      <trkpt lat="49.29509" lon="-0.11269">
        <ele>7.3</ele>
        <time>2020-06-17T12:02:13Z</time>
      </trkpt>
      <trkpt lat="49.29511" lon="-0.11267">
        <ele>7.3</ele>
        <time>2020-06-17T12:02:14Z</time>
      </trkpt>
      <trkpt lat="49.29513" lon="-0.11265">
        <ele>7.3</ele>
        <time>2020-06-17T12:02:15Z</time>
      </trkpt>
      <trkpt lat="49.29514" lon="-0.11265">
        <ele>7.3</ele>
        <time>2020-06-17T12:02:16Z</time>
      </trkpt>
      <trkpt lat="49.29513" lon="-0.11266">
        <ele>7.3</ele>
        <time>2020-06-17T12:02:17Z</time>
      </trkpt>
      <trkpt lat="49.29511" lon="-0.11268">
        <ele>7.3</ele>
        <time>2020-06-17T12:02:18Z</time>
      </trkpt>
      <trkpt lat="49.29511" lon="-0.11269">
        <ele>7.3</ele>
        <time>2020-06-17T12:02:19Z</time>
      </trkpt>
      <trkpt lat="49.29511" lon="-0.1127">
        <ele>7.3</ele>
        <time>2020-06-17T12:02:20Z</time>
      </trkpt>
      <trkpt lat="49.2951" lon="-0.1127">
        <ele>7.3</ele>
        <time>2020-06-17T12:02:21Z</time>
      </trkpt>
      <trkpt lat="49.2951" lon="-0.11271">
        <ele>7.3</ele>
        <time>2020-06-17T12:02:22Z</time>
      </trkpt>
      <trkpt lat="49.2951" lon="-0.11272">
        <ele>7.3</ele>
        <time>2020-06-17T12:02:23Z</time>
      </trkpt>
      <trkpt lat="49.2951" lon="-0.11272">
        <ele>7.3</ele>
        <time>2020-06-17T12:02:24Z</time>
      </trkpt>
      <trkpt lat="49.2951" lon="-0.11273">
        <ele>7.3</ele>
        <time>2020-06-17T12:02:25Z</time>
      </trkpt>
      <trkpt lat="49.29509" lon="-0.11274">
        <ele>7.3</ele>
        <time>2020-06-17T12:02:26Z</time>
      </trkpt>
      <trkpt lat="49.29509" lon="-0.11275">
        <ele>7.3</ele>
        <time>2020-06-17T12:02:27Z</time>
      </trkpt>
      <trkpt lat="49.29508" lon="-0.11275">
        <ele>7.3</ele>
        <time>2020-06-17T12:02:28Z</time>
      </trkpt>
      <trkpt lat="49.29508" lon="-0.11276">
        <ele>7.3</ele>
        <time>2020-06-17T12:02:29Z</time>
      </trkpt>
      <trkpt lat="49.29507" lon="-0.11278">
        <ele>7.3</ele>
        <time>2020-06-17T12:02:30Z</time>
      </trkpt>
      <trkpt lat="49.29506" lon="-0.11279">
        <ele>7.3</ele>
        <time>2020-06-17T12:02:31Z</time>
      </trkpt>
      <trkpt lat="49.29506" lon="-0.11282">
        <ele>7.2</ele>
        <time>2020-06-17T12:02:32Z</time>
      </trkpt>
      <trkpt lat="49.29505" lon="-0.11283">
        <ele>7.2</ele>
        <time>2020-06-17T12:02:33Z</time>
      </trkpt>
      <trkpt lat="49.29503" lon="-0.11285">
        <ele>7.2</ele>
        <time>2020-06-17T12:02:34Z</time>
      </trkpt>
      <trkpt lat="49.29485" lon="-0.11311">
        <ele>7</ele>
        <time>2020-06-17T12:03:27Z</time>
      </trkpt>
      <trkpt lat="49.29486" lon="-0.11311">
        <ele>7</ele>
        <time>2020-06-17T12:03:28Z</time>
      </trkpt>
      <trkpt lat="49.29484" lon="-0.1131">
        <ele>7</ele>
        <time>2020-06-17T12:03:29Z</time>
      </trkpt>
      <trkpt lat="49.29485" lon="-0.1131">
        <ele>7</ele>
        <time>2020-06-17T12:03:30Z</time>
      </trkpt>
      <trkpt lat="49.29486" lon="-0.1131">
        <ele>7</ele>
        <time>2020-06-17T12:03:31Z</time>
      </trkpt>
      <trkpt lat="49.29486" lon="-0.1131">
        <ele>7</ele>
        <time>2020-06-17T12:03:32Z</time>
      </trkpt>
      <trkpt lat="49.29487" lon="-0.1131">
        <ele>7</ele>
        <time>2020-06-17T12:03:33Z</time>
      </trkpt>
      <trkpt lat="49.29487" lon="-0.1131">
        <ele>7</ele>
        <time>2020-06-17T12:03:34Z</time>
      </trkpt>
      <trkpt lat="49.29488" lon="-0.11309">
        <ele>7</ele>
        <time>2020-06-17T12:03:35Z</time>
      </trkpt>
      <trkpt lat="49.29488" lon="-0.11309">
        <ele>7</ele>
        <time>2020-06-17T12:03:36Z</time>
      </trkpt>
      <trkpt lat="49.29488" lon="-0.11309">
        <ele>7</ele>
        <time>2020-06-17T12:03:37Z</time>
      </trkpt>
      <trkpt lat="49.29488" lon="-0.11309">
        <ele>7</ele>
        <time>2020-06-17T12:03:38Z</time>
      </trkpt>
      <trkpt lat="49.29488" lon="-0.11308">
        <ele>7</ele>
        <time>2020-06-17T12:03:39Z</time>
      </trkpt>
      <trkpt lat="49.29488" lon="-0.11308">
        <ele>7</ele>
        <time>2020-06-17T12:03:40Z</time>
      </trkpt>
      <trkpt lat="49.29488" lon="-0.11308">
        <ele>7</ele>
        <time>2020-06-17T12:03:41Z</time>
      </trkpt>
      <trkpt lat="49.29488" lon="-0.11308">
        <ele>7</ele>
        <time>2020-06-17T12:03:42Z</time>
      </trkpt>
      <trkpt lat="49.29488" lon="-0.11308">
        <ele>7</ele>
        <time>2020-06-17T12:03:43Z</time>
      </trkpt>
      <trkpt lat="49.29488" lon="-0.11307">
        <ele>7</ele>
        <time>2020-06-17T12:03:44Z</time>
      </trkpt>
      <trkpt lat="49.29488" lon="-0.11307">
        <ele>7</ele>
        <time>2020-06-17T12:03:45Z</time>
      </trkpt>
      <trkpt lat="49.29488" lon="-0.11307">
        <ele>7</ele>
        <time>2020-06-17T12:03:46Z</time>
      </trkpt>
      <trkpt lat="49.29488" lon="-0.11306">
        <ele>7</ele>
        <time>2020-06-17T12:03:47Z</time>
      </trkpt>
      <trkpt lat="49.29488" lon="-0.11306">
        <ele>7</ele>
        <time>2020-06-17T12:03:48Z</time>
      </trkpt>
      <trkpt lat="49.29481" lon="-0.11297">
        <ele>7</ele>
        <time>2020-06-17T12:04:39Z</time>
      </trkpt>
      <trkpt lat="49.29482" lon="-0.11295">
        <ele>7</ele>
        <time>2020-06-17T12:04:40Z</time>
      </trkpt>
      <trkpt lat="49.29482" lon="-0.11292">
        <ele>7</ele>
        <time>2020-06-17T12:04:41Z</time>
      </trkpt>
      <trkpt lat="49.29482" lon="-0.1129">
        <ele>7</ele>
        <time>2020-06-17T12:04:42Z</time>
      </trkpt>
      <trkpt lat="49.29482" lon="-0.11289">
        <ele>7</ele>
        <time>2020-06-17T12:04:43Z</time>
      </trkpt>
      <trkpt lat="49.29482" lon="-0.11286">
        <ele>7</ele>
        <time>2020-06-17T12:04:44Z</time>
      </trkpt>
      <trkpt lat="49.29482" lon="-0.11285">
        <ele>7</ele>
        <time>2020-06-17T12:04:45Z</time>
      </trkpt>
      <trkpt lat="49.29482" lon="-0.11283">
        <ele>7</ele>
        <time>2020-06-17T12:04:46Z</time>
      </trkpt>
      <trkpt lat="49.29481" lon="-0.11282">
        <ele>7</ele>
        <time>2020-06-17T12:04:47Z</time>
      </trkpt>
      <trkpt lat="49.29482" lon="-0.1128">
        <ele>7</ele>
        <time>2020-06-17T12:04:48Z</time>
      </trkpt>
      <trkpt lat="49.29481" lon="-0.11279">
        <ele>7</ele>
        <time>2020-06-17T12:04:49Z</time>
      </trkpt>
      <trkpt lat="49.29481" lon="-0.11276">
        <ele>7</ele>
        <time>2020-06-17T12:04:50Z</time>
      </trkpt>
      <trkpt lat="49.29481" lon="-0.11274">
        <ele>7</ele>
        <time>2020-06-17T12:04:51Z</time>
      </trkpt>
      <trkpt lat="49.29481" lon="-0.11273">
        <ele>7</ele>
        <time>2020-06-17T12:04:52Z</time>
      </trkpt>
      <trkpt lat="49.29481" lon="-0.11273">
        <ele>7</ele>
        <time>2020-06-17T12:04:53Z</time>
      </trkpt>
      <trkpt lat="49.29481" lon="-0.11275">
        <ele>7</ele>
        <time>2020-06-17T12:04:54Z</time>
      </trkpt>
      <trkpt lat="49.2948" lon="-0.11275">
        <ele>7</ele>
        <time>2020-06-17T12:04:55Z</time>
      </trkpt>
      <trkpt lat="49.29479" lon="-0.11276">
        <ele>7</ele>
        <time>2020-06-17T12:04:56Z</time>
      </trkpt>
      <trkpt lat="49.29478" lon="-0.11277">
        <ele>7</ele>
        <time>2020-06-17T12:04:57Z</time>
      </trkpt>
      <trkpt lat="49.29477" lon="-0.11279">
        <ele>7</ele>
        <time>2020-06-17T12:04:58Z</time>
      </trkpt>
      <trkpt lat="49.29477" lon="-0.11282">
        <ele>7</ele>
        <time>2020-06-17T12:04:59Z</time>
      </trkpt>
      <trkpt lat="49.29476" lon="-0.11285">
        <ele>7</ele>
        <time>2020-06-17T12:05:00Z</time>
      </trkpt>
      <trkpt lat="49.29476" lon="-0.11287">
        <ele>7</ele>
        <time>2020-06-17T12:05:01Z</time>
      </trkpt>
      <trkpt lat="49.29476" lon="-0.11289">
        <ele>7</ele>
        <time>2020-06-17T12:05:02Z</time>
      </trkpt>
      <trkpt lat="49.29476" lon="-0.1129">
        <ele>7</ele>
        <time>2020-06-17T12:05:03Z</time>
      </trkpt>
      <trkpt lat="49.29476" lon="-0.11292">
        <ele>7</ele>
        <time>2020-06-17T12:05:04Z</time>
      </trkpt>
      <trkpt lat="49.29475" lon="-0.11293">
        <ele>7</ele>
        <time>2020-06-17T12:05:05Z</time>
      </trkpt>
      <trkpt lat="49.29475" lon="-0.11295">
        <ele>7</ele>
        <time>2020-06-17T12:05:06Z</time>
      </trkpt>
      <trkpt lat="49.29475" lon="-0.11295">
        <ele>7</ele>
        <time>2020-06-17T12:05:07Z</time>
      </trkpt>
      <trkpt lat="49.29475" lon="-0.11295">
        <ele>7</ele>
        <time>2020-06-17T12:05:08Z</time>
      </trkpt>
      <trkpt lat="49.29475" lon="-0.11295">
        <ele>7</ele>
        <time>2020-06-17T12:05:09Z</time>
      </trkpt>
      <trkpt lat="49.29476" lon="-0.11296">
        <ele>7</ele>
        <time>2020-06-17T12:05:10Z</time>
      </trkpt>
      <trkpt lat="49.29476" lon="-0.11297">
        <ele>7</ele>
        <time>2020-06-17T12:05:11Z</time>
      </trkpt>
      <trkpt lat="49.29477" lon="-0.11297">
        <ele>7</ele>
        <time>2020-06-17T12:05:12Z</time>
      </trkpt>
      <trkpt lat="49.29477" lon="-0.11297">
        <ele>7</ele>
        <time>2020-06-17T12:05:13Z</time>
      </trkpt>
      <trkpt lat="49.29477" lon="-0.11297">
        <ele>7</ele>
        <time>2020-06-17T12:05:14Z</time>
      </trkpt>
      <trkpt lat="49.29476" lon="-0.11298">
        <ele>7</ele>
        <time>2020-06-17T12:05:15Z</time>
      </trkpt>
      <trkpt lat="49.29477" lon="-0.11296">
        <ele>7</ele>
        <time>2020-06-17T12:08:05Z</time>
      </trkpt>
      <trkpt lat="49.29478" lon="-0.11295">
        <ele>7</ele>
        <time>2020-06-17T12:08:06Z</time>
      </trkpt>
      <trkpt lat="49.29478" lon="-0.11296">
        <ele>7</ele>
        <time>2020-06-17T12:08:07Z</time>
      </trkpt>
      <trkpt lat="49.29478" lon="-0.11296">
        <ele>7</ele>
        <time>2020-06-17T12:08:08Z</time>
      </trkpt>
      <trkpt lat="49.29479" lon="-0.11297">
        <ele>7</ele>
        <time>2020-06-17T12:08:09Z</time>
      </trkpt>
      <trkpt lat="49.29479" lon="-0.11297">
        <ele>7</ele>
        <time>2020-06-17T12:08:10Z</time>
      </trkpt>
      <trkpt lat="49.29479" lon="-0.11298">
        <ele>7</ele>
        <time>2020-06-17T12:08:11Z</time>
      </trkpt>
      <trkpt lat="49.2948" lon="-0.11298">
        <ele>7</ele>
        <time>2020-06-17T12:08:12Z</time>
      </trkpt>
      <trkpt lat="49.2948" lon="-0.11298">
        <ele>7</ele>
        <time>2020-06-17T12:08:13Z</time>
      </trkpt>
      <trkpt lat="49.29481" lon="-0.11298">
        <ele>7</ele>
        <time>2020-06-17T12:08:14Z</time>
      </trkpt>
      <trkpt lat="49.29481" lon="-0.11299">
        <ele>7</ele>
        <time>2020-06-17T12:08:15Z</time>
      </trkpt>
      <trkpt lat="49.2948" lon="-0.11299">
        <ele>7</ele>
        <time>2020-06-17T12:08:16Z</time>
      </trkpt>
      <trkpt lat="49.2948" lon="-0.11298">
        <ele>7</ele>
        <time>2020-06-17T12:08:17Z</time>
      </trkpt>
      <trkpt lat="49.2948" lon="-0.11297">
        <ele>7</ele>
        <time>2020-06-17T12:08:18Z</time>
      </trkpt>
      <trkpt lat="49.2948" lon="-0.11297">
        <ele>7</ele>
        <time>2020-06-17T12:08:19Z</time>
      </trkpt>
      <trkpt lat="49.2948" lon="-0.11297">
        <ele>7</ele>
        <time>2020-06-17T12:08:20Z</time>
      </trkpt>
      <trkpt lat="49.29479" lon="-0.11303">
        <ele>7</ele>
        <time>2020-06-17T12:09:03Z</time>
      </trkpt>
      <trkpt lat="49.29479" lon="-0.11303">
        <ele>7</ele>
        <time>2020-06-17T12:09:04Z</time>
      </trkpt>
      <trkpt lat="49.2948" lon="-0.11303">
        <ele>7</ele>
        <time>2020-06-17T12:09:05Z</time>
      </trkpt>
      <trkpt lat="49.2948" lon="-0.11304">
        <ele>7</ele>
        <time>2020-06-17T12:09:06Z</time>
      </trkpt>
      <trkpt lat="49.2948" lon="-0.11304">
        <ele>7</ele>
        <time>2020-06-17T12:09:07Z</time>
      </trkpt>
      <trkpt lat="49.2948" lon="-0.11305">
        <ele>7</ele>
        <time>2020-06-17T12:09:08Z</time>
      </trkpt>
      <trkpt lat="49.2948" lon="-0.11305">
        <ele>7</ele>
        <time>2020-06-17T12:09:09Z</time>
      </trkpt>
      <trkpt lat="49.2948" lon="-0.11305">
        <ele>7</ele>
        <time>2020-06-17T12:09:10Z</time>
      </trkpt>
      <trkpt lat="49.2948" lon="-0.11305">
        <ele>7</ele>
        <time>2020-06-17T12:09:11Z</time>
      </trkpt>
      <trkpt lat="49.2948" lon="-0.11305">
        <ele>7</ele>
        <time>2020-06-17T12:09:12Z</time>
      </trkpt>
      <trkpt lat="49.29479" lon="-0.11304">
        <ele>7</ele>
        <time>2020-06-17T12:09:13Z</time>
      </trkpt>
      <trkpt lat="49.29479" lon="-0.11305">
        <ele>7</ele>
        <time>2020-06-17T12:09:14Z</time>
      </trkpt>
      <trkpt lat="49.29478" lon="-0.11305">
        <ele>7</ele>
        <time>2020-06-17T12:09:15Z</time>
      </trkpt>
      <trkpt lat="49.29478" lon="-0.11305">
        <ele>7</ele>
        <time>2020-06-17T12:09:16Z</time>
      </trkpt>
      <trkpt lat="49.29477" lon="-0.11305">
        <ele>7</ele>
        <time>2020-06-17T12:09:17Z</time>
      </trkpt>
      <trkpt lat="49.29477" lon="-0.11306">
        <ele>7</ele>
        <time>2020-06-17T12:09:18Z</time>
      </trkpt>
      <trkpt lat="49.29476" lon="-0.11306">
        <ele>7</ele>
        <time>2020-06-17T12:09:19Z</time>
      </trkpt>
      <trkpt lat="49.29476" lon="-0.11306">
        <ele>7</ele>
        <time>2020-06-17T12:09:20Z</time>
      </trkpt>
      <trkpt lat="49.29475" lon="-0.11306">
        <ele>7</ele>
        <time>2020-06-17T12:09:21Z</time>
      </trkpt>
      <trkpt lat="49.29475" lon="-0.11306">
        <ele>7</ele>
        <time>2020-06-17T12:09:22Z</time>
      </trkpt>
      <trkpt lat="49.29475" lon="-0.11306">
        <ele>7</ele>
        <time>2020-06-17T12:09:23Z</time>
      </trkpt>
      <trkpt lat="49.29475" lon="-0.11306">
        <ele>7</ele>
        <time>2020-06-17T12:09:24Z</time>
      </trkpt>
      <trkpt lat="49.29475" lon="-0.11306">
        <ele>7</ele>
        <time>2020-06-17T12:09:25Z</time>
      </trkpt>
      <trkpt lat="49.29474" lon="-0.11306">
        <ele>7</ele>
        <time>2020-06-17T12:09:26Z</time>
      </trkpt>
      <trkpt lat="49.29474" lon="-0.11306">
        <ele>7</ele>
        <time>2020-06-17T12:09:27Z</time>
      </trkpt>
      <trkpt lat="49.29474" lon="-0.11305">
        <ele>7</ele>
        <time>2020-06-17T12:09:28Z</time>
      </trkpt>
      <trkpt lat="49.29474" lon="-0.11305">
        <ele>7</ele>
        <time>2020-06-17T12:09:29Z</time>
      </trkpt>
      <trkpt lat="49.29474" lon="-0.11305">
        <ele>7</ele>
        <time>2020-06-17T12:09:30Z</time>
      </trkpt>
      <trkpt lat="49.29474" lon="-0.11304">
        <ele>7</ele>
        <time>2020-06-17T12:09:31Z</time>
      </trkpt>
      <trkpt lat="49.29473" lon="-0.11304">
        <ele>7</ele>
        <time>2020-06-17T12:09:32Z</time>
      </trkpt>
      <trkpt lat="49.29473" lon="-0.11304">
        <ele>7</ele>
        <time>2020-06-17T12:09:33Z</time>
      </trkpt>
      <trkpt lat="49.29473" lon="-0.11304">
        <ele>7</ele>
        <time>2020-06-17T12:09:34Z</time>
      </trkpt>
      <trkpt lat="49.29473" lon="-0.11304">
        <ele>7</ele>
        <time>2020-06-17T12:09:35Z</time>
      </trkpt>
      <trkpt lat="49.29473" lon="-0.11304">
        <ele>7</ele>
        <time>2020-06-17T12:09:36Z</time>
      </trkpt>
      <trkpt lat="49.29473" lon="-0.11304">
        <ele>7</ele>
        <time>2020-06-17T12:09:37Z</time>
      </trkpt>
      <trkpt lat="49.29473" lon="-0.11303">
        <ele>7</ele>
        <time>2020-06-17T12:09:38Z</time>
      </trkpt>
      <trkpt lat="49.29472" lon="-0.11304">
        <ele>7</ele>
        <time>2020-06-17T12:09:39Z</time>
      </trkpt>
      <trkpt lat="49.29472" lon="-0.11303">
        <ele>7</ele>
        <time>2020-06-17T12:09:40Z</time>
      </trkpt>
      <trkpt lat="49.29472" lon="-0.11303">
        <ele>7</ele>
        <time>2020-06-17T12:09:41Z</time>
      </trkpt>
      <trkpt lat="49.29471" lon="-0.11303">
        <ele>7</ele>
        <time>2020-06-17T12:09:42Z</time>
      </trkpt>
      <trkpt lat="49.29471" lon="-0.11302">
        <ele>7</ele>
        <time>2020-06-17T12:09:43Z</time>
      </trkpt>
      <trkpt lat="49.29471" lon="-0.11302">
        <ele>7</ele>
        <time>2020-06-17T12:09:44Z</time>
      </trkpt>
      <trkpt lat="49.29471" lon="-0.11301">
        <ele>7</ele>
        <time>2020-06-17T12:09:45Z</time>
      </trkpt>
      <trkpt lat="49.2947" lon="-0.11301">
        <ele>7</ele>
        <time>2020-06-17T12:09:46Z</time>
      </trkpt>
      <trkpt lat="49.2947" lon="-0.11301">
        <ele>7</ele>
        <time>2020-06-17T12:09:47Z</time>
      </trkpt>
      <trkpt lat="49.29469" lon="-0.11302">
        <ele>7</ele>
        <time>2020-06-17T12:09:48Z</time>
      </trkpt>
      <trkpt lat="49.29471" lon="-0.11296">
        <ele>7</ele>
        <time>2020-06-17T12:10:17Z</time>
      </trkpt>
      <trkpt lat="49.29472" lon="-0.11295">
        <ele>7</ele>
        <time>2020-06-17T12:10:18Z</time>
      </trkpt>
      <trkpt lat="49.29472" lon="-0.11295">
        <ele>7</ele>
        <time>2020-06-17T12:10:19Z</time>
      </trkpt>
      <trkpt lat="49.29473" lon="-0.11294">
        <ele>7</ele>
        <time>2020-06-17T12:10:20Z</time>
      </trkpt>
      <trkpt lat="49.29473" lon="-0.11293">
        <ele>7</ele>
        <time>2020-06-17T12:10:21Z</time>
      </trkpt>
      <trkpt lat="49.29474" lon="-0.11292">
        <ele>7</ele>
        <time>2020-06-17T12:10:22Z</time>
      </trkpt>
      <trkpt lat="49.29474" lon="-0.11292">
        <ele>7</ele>
        <time>2020-06-17T12:10:23Z</time>
      </trkpt>
      <trkpt lat="49.29473" lon="-0.11291">
        <ele>7</ele>
        <time>2020-06-17T12:10:24Z</time>
      </trkpt>
      <trkpt lat="49.29473" lon="-0.11292">
        <ele>7</ele>
        <time>2020-06-17T12:10:25Z</time>
      </trkpt>
      <trkpt lat="49.29473" lon="-0.11292">
        <ele>7</ele>
        <time>2020-06-17T12:10:26Z</time>
      </trkpt>
      <trkpt lat="49.29472" lon="-0.11293">
        <ele>7</ele>
        <time>2020-06-17T12:10:27Z</time>
      </trkpt>
      <trkpt lat="49.29473" lon="-0.11293">
        <ele>7</ele>
        <time>2020-06-17T12:10:28Z</time>
      </trkpt>
      <trkpt lat="49.29473" lon="-0.11294">
        <ele>7</ele>
        <time>2020-06-17T12:10:29Z</time>
      </trkpt>
      <trkpt lat="49.29472" lon="-0.11295">
        <ele>7.1</ele>
        <time>2020-06-17T12:10:30Z</time>
      </trkpt>
      <trkpt lat="49.29473" lon="-0.11295">
        <ele>7.1</ele>
        <time>2020-06-17T12:10:31Z</time>
      </trkpt>
      <trkpt lat="49.29473" lon="-0.11295">
        <ele>7.1</ele>
        <time>2020-06-17T12:10:32Z</time>
      </trkpt>
      <trkpt lat="49.29473" lon="-0.11295">
        <ele>7.1</ele>
        <time>2020-06-17T12:10:33Z</time>
      </trkpt>
      <trkpt lat="49.29463" lon="-0.11303">
        <ele>6.9</ele>
        <time>2020-06-17T12:12:27Z</time>
      </trkpt>
      <trkpt lat="49.29464" lon="-0.11303">
        <ele>6.9</ele>
        <time>2020-06-17T12:12:28Z</time>
      </trkpt>
      <trkpt lat="49.29464" lon="-0.11303">
        <ele>6.9</ele>
        <time>2020-06-17T12:12:29Z</time>
      </trkpt>
      <trkpt lat="49.29464" lon="-0.11303">
        <ele>6.9</ele>
        <time>2020-06-17T12:12:30Z</time>
      </trkpt>
      <trkpt lat="49.29464" lon="-0.11303">
        <ele>6.9</ele>
        <time>2020-06-17T12:12:31Z</time>
      </trkpt>
      <trkpt lat="49.29465" lon="-0.11302">
        <ele>7</ele>
        <time>2020-06-17T12:12:32Z</time>
      </trkpt>
      <trkpt lat="49.29466" lon="-0.11301">
        <ele>7</ele>
        <time>2020-06-17T12:12:33Z</time>
      </trkpt>
      <trkpt lat="49.29466" lon="-0.113">
        <ele>7</ele>
        <time>2020-06-17T12:12:34Z</time>
      </trkpt>
      <trkpt lat="49.29466" lon="-0.11299">
        <ele>7</ele>
        <time>2020-06-17T12:12:35Z</time>
      </trkpt>
      <trkpt lat="49.29467" lon="-0.11297">
        <ele>7</ele>
        <time>2020-06-17T12:12:36Z</time>
      </trkpt>
      <trkpt lat="49.29468" lon="-0.11295">
        <ele>7</ele>
        <time>2020-06-17T12:12:37Z</time>
      </trkpt>
      <trkpt lat="49.29468" lon="-0.11295">
        <ele>7</ele>
        <time>2020-06-17T12:12:38Z</time>
      </trkpt>
      <trkpt lat="49.29469" lon="-0.11294">
        <ele>7</ele>
        <time>2020-06-17T12:12:39Z</time>
      </trkpt>
      <trkpt lat="49.29471" lon="-0.11292">
        <ele>7.1</ele>
        <time>2020-06-17T12:12:40Z</time>
      </trkpt>
      <trkpt lat="49.29471" lon="-0.1129">
        <ele>7.1</ele>
        <time>2020-06-17T12:12:41Z</time>
      </trkpt>
      <trkpt lat="49.29472" lon="-0.11288">
        <ele>7.1</ele>
        <time>2020-06-17T12:12:42Z</time>
      </trkpt>
      <trkpt lat="49.29473" lon="-0.11286">
        <ele>7.1</ele>
        <time>2020-06-17T12:12:43Z</time>
      </trkpt>
      <trkpt lat="49.29474" lon="-0.11284">
        <ele>7.1</ele>
        <time>2020-06-17T12:12:44Z</time>
      </trkpt>
      <trkpt lat="49.29475" lon="-0.11282">
        <ele>7.2</ele>
        <time>2020-06-17T12:12:45Z</time>
      </trkpt>
      <trkpt lat="49.29475" lon="-0.11281">
        <ele>7.2</ele>
        <time>2020-06-17T12:12:46Z</time>
      </trkpt>
      <trkpt lat="49.29475" lon="-0.11281">
        <ele>7.2</ele>
        <time>2020-06-17T12:12:47Z</time>
      </trkpt>
      <trkpt lat="49.29475" lon="-0.11282">
        <ele>7.2</ele>
        <time>2020-06-17T12:12:48Z</time>
      </trkpt>
      <trkpt lat="49.29475" lon="-0.11282">
        <ele>7.2</ele>
        <time>2020-06-17T12:12:49Z</time>
      </trkpt>
      <trkpt lat="49.29475" lon="-0.11282">
        <ele>7.2</ele>
        <time>2020-06-17T12:12:50Z</time>
      </trkpt>
      <trkpt lat="49.29475" lon="-0.11282">
        <ele>7.2</ele>
        <time>2020-06-17T12:12:51Z</time>
      </trkpt>
      <trkpt lat="49.29476" lon="-0.11282">
        <ele>7.2</ele>
        <time>2020-06-17T12:12:52Z</time>
      </trkpt>
      <trkpt lat="49.29476" lon="-0.11282">
        <ele>7.2</ele>
        <time>2020-06-17T12:12:53Z</time>
      </trkpt>
      <trkpt lat="49.29476" lon="-0.11281">
        <ele>7.2</ele>
        <time>2020-06-17T12:12:54Z</time>
      </trkpt>
      <trkpt lat="49.29476" lon="-0.1128">
        <ele>7.2</ele>
        <time>2020-06-17T12:12:55Z</time>
      </trkpt>
      <trkpt lat="49.29477" lon="-0.11281">
        <ele>7.2</ele>
        <time>2020-06-17T12:12:56Z</time>
      </trkpt>
      <trkpt lat="49.29477" lon="-0.11281">
        <ele>7.2</ele>
        <time>2020-06-17T12:12:57Z</time>
      </trkpt>
      <trkpt lat="49.29477" lon="-0.11281">
        <ele>7.2</ele>
        <time>2020-06-17T12:12:58Z</time>
      </trkpt>
      <trkpt lat="49.29478" lon="-0.1128">
        <ele>7.2</ele>
        <time>2020-06-17T12:12:59Z</time>
      </trkpt>
      <trkpt lat="49.29478" lon="-0.11279">
        <ele>7.2</ele>
        <time>2020-06-17T12:13:00Z</time>
      </trkpt>
      <trkpt lat="49.29478" lon="-0.11278">
        <ele>7.2</ele>
        <time>2020-06-17T12:13:01Z</time>
      </trkpt>
      <trkpt lat="49.29478" lon="-0.11278">
        <ele>7.2</ele>
        <time>2020-06-17T12:13:02Z</time>
      </trkpt>
      <trkpt lat="49.29478" lon="-0.11278">
        <ele>7.2</ele>
        <time>2020-06-17T12:13:03Z</time>
      </trkpt>
      <trkpt lat="49.29478" lon="-0.11277">
        <ele>7.2</ele>
        <time>2020-06-17T12:13:04Z</time>
      </trkpt>
      <trkpt lat="49.29477" lon="-0.11275">
        <ele>7.2</ele>
        <time>2020-06-17T12:13:05Z</time>
      </trkpt>
      <trkpt lat="49.29478" lon="-0.11273">
        <ele>7.2</ele>
        <time>2020-06-17T12:13:06Z</time>
      </trkpt>
      <trkpt lat="49.29478" lon="-0.1127">
        <ele>7.2</ele>
        <time>2020-06-17T12:13:07Z</time>
      </trkpt>
      <trkpt lat="49.2948" lon="-0.11266">
        <ele>7.3</ele>
        <time>2020-06-17T12:13:08Z</time>
      </trkpt>
      <trkpt lat="49.2948" lon="-0.11264">
        <ele>7.3</ele>
        <time>2020-06-17T12:13:09Z</time>
      </trkpt>
      <trkpt lat="49.29482" lon="-0.11258">
        <ele>7.3</ele>
        <time>2020-06-17T12:13:10Z</time>
      </trkpt>
      <trkpt lat="49.29482" lon="-0.11256">
        <ele>7.3</ele>
        <time>2020-06-17T12:13:11Z</time>
      </trkpt>
      <trkpt lat="49.29483" lon="-0.11252">
        <ele>7.3</ele>
        <time>2020-06-17T12:13:12Z</time>
      </trkpt>
      <trkpt lat="49.29484" lon="-0.11248">
        <ele>7.3</ele>
        <time>2020-06-17T12:13:13Z</time>
      </trkpt>
      <trkpt lat="49.29484" lon="-0.11243">
        <ele>7.4</ele>
        <time>2020-06-17T12:13:14Z</time>
      </trkpt>
      <trkpt lat="49.29485" lon="-0.11239">
        <ele>7.4</ele>
        <time>2020-06-17T12:13:15Z</time>
      </trkpt>
      <trkpt lat="49.29486" lon="-0.11234">
        <ele>7.4</ele>
        <time>2020-06-17T12:13:16Z</time>
      </trkpt>
      <trkpt lat="49.29487" lon="-0.1123">
        <ele>7.5</ele>
        <time>2020-06-17T12:13:17Z</time>
      </trkpt>
      <trkpt lat="49.29488" lon="-0.11225">
        <ele>7.5</ele>
        <time>2020-06-17T12:13:18Z</time>
      </trkpt>
      <trkpt lat="49.29489" lon="-0.11219">
        <ele>7.5</ele>
        <time>2020-06-17T12:13:19Z</time>
      </trkpt>
      <trkpt lat="49.2949" lon="-0.11215">
        <ele>7.6</ele>
        <time>2020-06-17T12:13:20Z</time>
      </trkpt>
      <trkpt lat="49.29492" lon="-0.1121">
        <ele>7.6</ele>
        <time>2020-06-17T12:13:21Z</time>
      </trkpt>
      <trkpt lat="49.29492" lon="-0.11208">
        <ele>7.6</ele>
        <time>2020-06-17T12:13:22Z</time>
      </trkpt>
      <trkpt lat="49.29493" lon="-0.11202">
        <ele>7.7</ele>
        <time>2020-06-17T12:13:23Z</time>
      </trkpt>
      <trkpt lat="49.29493" lon="-0.112">
        <ele>7.7</ele>
        <time>2020-06-17T12:13:24Z</time>
      </trkpt>
      <trkpt lat="49.29494" lon="-0.11195">
        <ele>7.8</ele>
        <time>2020-06-17T12:13:25Z</time>
      </trkpt>
      <trkpt lat="49.29494" lon="-0.1119">
        <ele>7.8</ele>
        <time>2020-06-17T12:13:26Z</time>
      </trkpt>
      <trkpt lat="49.29494" lon="-0.11184">
        <ele>7.8</ele>
        <time>2020-06-17T12:13:27Z</time>
      </trkpt>
      <trkpt lat="49.29495" lon="-0.11179">
        <ele>7.9</ele>
        <time>2020-06-17T12:13:28Z</time>
      </trkpt>
      <trkpt lat="49.29496" lon="-0.11175">
        <ele>7.9</ele>
        <time>2020-06-17T12:13:29Z</time>
      </trkpt>
      <trkpt lat="49.29497" lon="-0.1117">
        <ele>7.9</ele>
        <time>2020-06-17T12:13:30Z</time>
      </trkpt>
      <trkpt lat="49.29498" lon="-0.11164">
        <ele>7.9</ele>
        <time>2020-06-17T12:13:31Z</time>
      </trkpt>
      <trkpt lat="49.29499" lon="-0.1116">
        <ele>7.9</ele>
        <time>2020-06-17T12:13:32Z</time>
      </trkpt>
      <trkpt lat="49.295" lon="-0.11156">
        <ele>7.9</ele>
        <time>2020-06-17T12:13:33Z</time>
      </trkpt>
      <trkpt lat="49.295" lon="-0.11151">
        <ele>7.9</ele>
        <time>2020-06-17T12:13:34Z</time>
      </trkpt>
      <trkpt lat="49.29501" lon="-0.11147">
        <ele>7.9</ele>
        <time>2020-06-17T12:13:35Z</time>
      </trkpt>
      <trkpt lat="49.29502" lon="-0.11143">
        <ele>7.9</ele>
        <time>2020-06-17T12:13:36Z</time>
      </trkpt>
      <trkpt lat="49.29503" lon="-0.11139">
        <ele>7.9</ele>
        <time>2020-06-17T12:13:37Z</time>
      </trkpt>
      <trkpt lat="49.29504" lon="-0.11134">
        <ele>7.9</ele>
        <time>2020-06-17T12:13:38Z</time>
      </trkpt>
      <trkpt lat="49.29505" lon="-0.11129">
        <ele>7.9</ele>
        <time>2020-06-17T12:13:39Z</time>
      </trkpt>
      <trkpt lat="49.29506" lon="-0.11123">
        <ele>7.9</ele>
        <time>2020-06-17T12:13:40Z</time>
      </trkpt>
      <trkpt lat="49.29507" lon="-0.11119">
        <ele>7.9</ele>
        <time>2020-06-17T12:13:41Z</time>
      </trkpt>
      <trkpt lat="49.29508" lon="-0.11114">
        <ele>7.9</ele>
        <time>2020-06-17T12:13:42Z</time>
      </trkpt>
      <trkpt lat="49.2951" lon="-0.11108">
        <ele>7.9</ele>
        <time>2020-06-17T12:13:43Z</time>
      </trkpt>
      <trkpt lat="49.29512" lon="-0.11102">
        <ele>7.9</ele>
        <time>2020-06-17T12:13:44Z</time>
      </trkpt>
      <trkpt lat="49.29513" lon="-0.11095">
        <ele>7.9</ele>
        <time>2020-06-17T12:13:45Z</time>
      </trkpt>
      <trkpt lat="49.29514" lon="-0.1109">
        <ele>7.9</ele>
        <time>2020-06-17T12:13:46Z</time>
      </trkpt>
      <trkpt lat="49.29515" lon="-0.11084">
        <ele>7.9</ele>
        <time>2020-06-17T12:13:47Z</time>
      </trkpt>
      <trkpt lat="49.29516" lon="-0.11078">
        <ele>7.9</ele>
        <time>2020-06-17T12:13:48Z</time>
      </trkpt>
      <trkpt lat="49.29518" lon="-0.11073">
        <ele>7.9</ele>
        <time>2020-06-17T12:13:49Z</time>
      </trkpt>
      <trkpt lat="49.29519" lon="-0.11067">
        <ele>7.9</ele>
        <time>2020-06-17T12:13:50Z</time>
      </trkpt>
      <trkpt lat="49.2952" lon="-0.11061">
        <ele>7.9</ele>
        <time>2020-06-17T12:13:51Z</time>
      </trkpt>
      <trkpt lat="49.29521" lon="-0.11056">
        <ele>7.9</ele>
        <time>2020-06-17T12:13:52Z</time>
      </trkpt>
      <trkpt lat="49.29522" lon="-0.1105">
        <ele>7.9</ele>
        <time>2020-06-17T12:13:53Z</time>
      </trkpt>
      <trkpt lat="49.29523" lon="-0.11044">
        <ele>7.9</ele>
        <time>2020-06-17T12:13:54Z</time>
      </trkpt>
      <trkpt lat="49.29524" lon="-0.11039">
        <ele>7.9</ele>
        <time>2020-06-17T12:13:55Z</time>
      </trkpt>
      <trkpt lat="49.29526" lon="-0.11033">
        <ele>7.9</ele>
        <time>2020-06-17T12:13:56Z</time>
      </trkpt>
      <trkpt lat="49.29527" lon="-0.11027">
        <ele>7.9</ele>
        <time>2020-06-17T12:13:57Z</time>
      </trkpt>
      <trkpt lat="49.29528" lon="-0.11022">
        <ele>7.9</ele>
        <time>2020-06-17T12:13:58Z</time>
      </trkpt>
      <trkpt lat="49.2953" lon="-0.11016">
        <ele>7.9</ele>
        <time>2020-06-17T12:13:59Z</time>
      </trkpt>
      <trkpt lat="49.29533" lon="-0.1101">
        <ele>7.9</ele>
        <time>2020-06-17T12:14:00Z</time>
      </trkpt>
      <trkpt lat="49.29535" lon="-0.11005">
        <ele>7.9</ele>
        <time>2020-06-17T12:14:01Z</time>
      </trkpt>
      <trkpt lat="49.29537" lon="-0.10999">
        <ele>7.9</ele>
        <time>2020-06-17T12:14:02Z</time>
      </trkpt>
      <trkpt lat="49.29539" lon="-0.10993">
        <ele>8</ele>
        <time>2020-06-17T12:14:03Z</time>
      </trkpt>
      <trkpt lat="49.2954" lon="-0.10988">
        <ele>8</ele>
        <time>2020-06-17T12:14:04Z</time>
      </trkpt>
      <trkpt lat="49.29542" lon="-0.10982">
        <ele>8</ele>
        <time>2020-06-17T12:14:05Z</time>
      </trkpt>
      <trkpt lat="49.29543" lon="-0.10975">
        <ele>8</ele>
        <time>2020-06-17T12:14:06Z</time>
      </trkpt>
      <trkpt lat="49.29544" lon="-0.10969">
        <ele>8</ele>
        <time>2020-06-17T12:14:07Z</time>
      </trkpt>
      <trkpt lat="49.29546" lon="-0.10963">
        <ele>8</ele>
        <time>2020-06-17T12:14:08Z</time>
      </trkpt>
      <trkpt lat="49.29548" lon="-0.10958">
        <ele>8</ele>
        <time>2020-06-17T12:14:09Z</time>
      </trkpt>
      <trkpt lat="49.2955" lon="-0.10952">
        <ele>8</ele>
        <time>2020-06-17T12:14:10Z</time>
      </trkpt>
      <trkpt lat="49.29551" lon="-0.10946">
        <ele>8</ele>
        <time>2020-06-17T12:14:11Z</time>
      </trkpt>
      <trkpt lat="49.29551" lon="-0.1094">
        <ele>8</ele>
        <time>2020-06-17T12:14:12Z</time>
      </trkpt>
      <trkpt lat="49.29552" lon="-0.10934">
        <ele>8</ele>
        <time>2020-06-17T12:14:13Z</time>
      </trkpt>
      <trkpt lat="49.29553" lon="-0.1093">
        <ele>8</ele>
        <time>2020-06-17T12:14:14Z</time>
      </trkpt>
      <trkpt lat="49.29554" lon="-0.10925">
        <ele>8</ele>
        <time>2020-06-17T12:14:15Z</time>
      </trkpt>
      <trkpt lat="49.29555" lon="-0.1092">
        <ele>7.9</ele>
        <time>2020-06-17T12:14:16Z</time>
      </trkpt>
      <trkpt lat="49.29556" lon="-0.10914">
        <ele>7.9</ele>
        <time>2020-06-17T12:14:17Z</time>
      </trkpt>
      <trkpt lat="49.29558" lon="-0.10908">
        <ele>7.9</ele>
        <time>2020-06-17T12:14:18Z</time>
      </trkpt>
      <trkpt lat="49.29559" lon="-0.10901">
        <ele>7.9</ele>
        <time>2020-06-17T12:14:19Z</time>
      </trkpt>
      <trkpt lat="49.2956" lon="-0.10895">
        <ele>7.9</ele>
        <time>2020-06-17T12:14:20Z</time>
      </trkpt>
      <trkpt lat="49.29562" lon="-0.10888">
        <ele>7.9</ele>
        <time>2020-06-17T12:14:21Z</time>
      </trkpt>
      <trkpt lat="49.29564" lon="-0.10881">
        <ele>8</ele>
        <time>2020-06-17T12:14:22Z</time>
      </trkpt>
      <trkpt lat="49.29565" lon="-0.10874">
        <ele>8</ele>
        <time>2020-06-17T12:14:23Z</time>
      </trkpt>
      <trkpt lat="49.29566" lon="-0.10868">
        <ele>8</ele>
        <time>2020-06-17T12:14:24Z</time>
      </trkpt>
      <trkpt lat="49.29567" lon="-0.10861">
        <ele>8</ele>
        <time>2020-06-17T12:14:25Z</time>
      </trkpt>
      <trkpt lat="49.29569" lon="-0.10854">
        <ele>8</ele>
        <time>2020-06-17T12:14:26Z</time>
      </trkpt>
      <trkpt lat="49.2957" lon="-0.10847">
        <ele>8</ele>
        <time>2020-06-17T12:14:27Z</time>
      </trkpt>
      <trkpt lat="49.29571" lon="-0.1084">
        <ele>8</ele>
        <time>2020-06-17T12:14:28Z</time>
      </trkpt>
      <trkpt lat="49.29572" lon="-0.10834">
        <ele>8</ele>
        <time>2020-06-17T12:14:29Z</time>
      </trkpt>
      <trkpt lat="49.29573" lon="-0.10827">
        <ele>8</ele>
        <time>2020-06-17T12:14:30Z</time>
      </trkpt>
      <trkpt lat="49.29574" lon="-0.1082">
        <ele>8</ele>
        <time>2020-06-17T12:14:31Z</time>
      </trkpt>
      <trkpt lat="49.29575" lon="-0.10814">
        <ele>8</ele>
        <time>2020-06-17T12:14:32Z</time>
      </trkpt>
      <trkpt lat="49.29577" lon="-0.10808">
        <ele>7.9</ele>
        <time>2020-06-17T12:14:33Z</time>
      </trkpt>
      <trkpt lat="49.2958" lon="-0.10801">
        <ele>7.9</ele>
        <time>2020-06-17T12:14:34Z</time>
      </trkpt>
      <trkpt lat="49.29582" lon="-0.10795">
        <ele>7.9</ele>
        <time>2020-06-17T12:14:35Z</time>
      </trkpt>
      <trkpt lat="49.29583" lon="-0.10789">
        <ele>7.9</ele>
        <time>2020-06-17T12:14:36Z</time>
      </trkpt>
      <trkpt lat="49.29584" lon="-0.10785">
        <ele>7.9</ele>
        <time>2020-06-17T12:14:37Z</time>
      </trkpt>
      <trkpt lat="49.29585" lon="-0.10781">
        <ele>7.9</ele>
        <time>2020-06-17T12:14:38Z</time>
      </trkpt>
      <trkpt lat="49.29586" lon="-0.10777">
        <ele>7.9</ele>
        <time>2020-06-17T12:14:39Z</time>
      </trkpt>
      <trkpt lat="49.29587" lon="-0.10771">
        <ele>7.9</ele>
        <time>2020-06-17T12:14:40Z</time>
      </trkpt>
      <trkpt lat="49.29589" lon="-0.10765">
        <ele>7.9</ele>
        <time>2020-06-17T12:14:41Z</time>
      </trkpt>
      <trkpt lat="49.2959" lon="-0.1076">
        <ele>7.9</ele>
        <time>2020-06-17T12:14:42Z</time>
      </trkpt>
      <trkpt lat="49.29591" lon="-0.10754">
        <ele>7.9</ele>
        <time>2020-06-17T12:14:43Z</time>
      </trkpt>
      <trkpt lat="49.29592" lon="-0.10749">
        <ele>7.9</ele>
        <time>2020-06-17T12:14:44Z</time>
      </trkpt>
      <trkpt lat="49.29593" lon="-0.10743">
        <ele>7.9</ele>
        <time>2020-06-17T12:14:45Z</time>
      </trkpt>
      <trkpt lat="49.29594" lon="-0.10737">
        <ele>7.9</ele>
        <time>2020-06-17T12:14:46Z</time>
      </trkpt>
      <trkpt lat="49.29595" lon="-0.10731">
        <ele>7.9</ele>
        <time>2020-06-17T12:14:47Z</time>
      </trkpt>
      <trkpt lat="49.29596" lon="-0.10726">
        <ele>8</ele>
        <time>2020-06-17T12:14:48Z</time>
      </trkpt>
      <trkpt lat="49.29596" lon="-0.10719">
        <ele>8</ele>
        <time>2020-06-17T12:14:49Z</time>
      </trkpt>
      <trkpt lat="49.29597" lon="-0.10712">
        <ele>8</ele>
        <time>2020-06-17T12:14:50Z</time>
      </trkpt>
      <trkpt lat="49.29597" lon="-0.10706">
        <ele>8</ele>
        <time>2020-06-17T12:14:51Z</time>
      </trkpt>
      <trkpt lat="49.29597" lon="-0.107">
        <ele>8</ele>
        <time>2020-06-17T12:14:52Z</time>
      </trkpt>
      <trkpt lat="49.29599" lon="-0.10693">
        <ele>8</ele>
        <time>2020-06-17T12:14:53Z</time>
      </trkpt>
      <trkpt lat="49.296" lon="-0.10689">
        <ele>8</ele>
        <time>2020-06-17T12:14:54Z</time>
      </trkpt>
      <trkpt lat="49.29602" lon="-0.10684">
        <ele>8</ele>
        <time>2020-06-17T12:14:55Z</time>
      </trkpt>
      <trkpt lat="49.29604" lon="-0.1068">
        <ele>8.1</ele>
        <time>2020-06-17T12:14:56Z</time>
      </trkpt>
      <trkpt lat="49.29605" lon="-0.10673">
        <ele>8.1</ele>
        <time>2020-06-17T12:14:57Z</time>
      </trkpt>
      <trkpt lat="49.29606" lon="-0.10666">
        <ele>8.1</ele>
        <time>2020-06-17T12:14:58Z</time>
      </trkpt>
      <trkpt lat="49.29607" lon="-0.1066">
        <ele>8.1</ele>
        <time>2020-06-17T12:14:59Z</time>
      </trkpt>
      <trkpt lat="49.29608" lon="-0.10653">
        <ele>8.1</ele>
        <time>2020-06-17T12:15:00Z</time>
      </trkpt>
      <trkpt lat="49.2961" lon="-0.10647">
        <ele>8.1</ele>
        <time>2020-06-17T12:15:01Z</time>
      </trkpt>
      <trkpt lat="49.29611" lon="-0.10642">
        <ele>8.1</ele>
        <time>2020-06-17T12:15:02Z</time>
      </trkpt>
      <trkpt lat="49.29612" lon="-0.10635">
        <ele>8.2</ele>
        <time>2020-06-17T12:15:03Z</time>
      </trkpt>
      <trkpt lat="49.29613" lon="-0.10629">
        <ele>8.2</ele>
        <time>2020-06-17T12:15:04Z</time>
      </trkpt>
      <trkpt lat="49.29614" lon="-0.10623">
        <ele>8.2</ele>
        <time>2020-06-17T12:15:05Z</time>
      </trkpt>
      <trkpt lat="49.29615" lon="-0.10618">
        <ele>8.2</ele>
        <time>2020-06-17T12:15:06Z</time>
      </trkpt>
      <trkpt lat="49.29617" lon="-0.10613">
        <ele>8.2</ele>
        <time>2020-06-17T12:15:07Z</time>
      </trkpt>
      <trkpt lat="49.29618" lon="-0.10608">
        <ele>8.2</ele>
        <time>2020-06-17T12:15:08Z</time>
      </trkpt>
      <trkpt lat="49.29619" lon="-0.10604">
        <ele>8.2</ele>
        <time>2020-06-17T12:15:09Z</time>
      </trkpt>
      <trkpt lat="49.2962" lon="-0.10599">
        <ele>8.2</ele>
        <time>2020-06-17T12:15:10Z</time>
      </trkpt>
      <trkpt lat="49.29621" lon="-0.10594">
        <ele>8.2</ele>
        <time>2020-06-17T12:15:11Z</time>
      </trkpt>
      <trkpt lat="49.29622" lon="-0.1059">
        <ele>8.2</ele>
        <time>2020-06-17T12:15:12Z</time>
      </trkpt>
      <trkpt lat="49.29624" lon="-0.10585">
        <ele>8.2</ele>
        <time>2020-06-17T12:15:13Z</time>
      </trkpt>
      <trkpt lat="49.29625" lon="-0.10582">
        <ele>8.2</ele>
        <time>2020-06-17T12:15:14Z</time>
      </trkpt>
      <trkpt lat="49.29625" lon="-0.10577">
        <ele>8.2</ele>
        <time>2020-06-17T12:15:15Z</time>
      </trkpt>
      <trkpt lat="49.29625" lon="-0.10575">
        <ele>8.2</ele>
        <time>2020-06-17T12:15:16Z</time>
      </trkpt>
      <trkpt lat="49.29625" lon="-0.10573">
        <ele>8.2</ele>
        <time>2020-06-17T12:15:17Z</time>
      </trkpt>
      <trkpt lat="49.29625" lon="-0.10574">
        <ele>8.2</ele>
        <time>2020-06-17T12:15:18Z</time>
      </trkpt>
      <trkpt lat="49.29625" lon="-0.10574">
        <ele>8.2</ele>
        <time>2020-06-17T12:15:19Z</time>
      </trkpt>
      <trkpt lat="49.29625" lon="-0.10573">
        <ele>8.2</ele>
        <time>2020-06-17T12:15:20Z</time>
      </trkpt>
      <trkpt lat="49.29625" lon="-0.10573">
        <ele>8.2</ele>
        <time>2020-06-17T12:15:21Z</time>
      </trkpt>
      <trkpt lat="49.29624" lon="-0.10574">
        <ele>8.2</ele>
        <time>2020-06-17T12:15:22Z</time>
      </trkpt>
      <trkpt lat="49.29624" lon="-0.10573">
        <ele>8.2</ele>
        <time>2020-06-17T12:15:23Z</time>
      </trkpt>
      <trkpt lat="49.29624" lon="-0.10573">
        <ele>8.2</ele>
        <time>2020-06-17T12:15:24Z</time>
      </trkpt>
      <trkpt lat="49.29624" lon="-0.10573">
        <ele>8.2</ele>
        <time>2020-06-17T12:15:25Z</time>
      </trkpt>
      <trkpt lat="49.29623" lon="-0.10572">
        <ele>8.2</ele>
        <time>2020-06-17T12:15:26Z</time>
      </trkpt>
      <trkpt lat="49.29623" lon="-0.10572">
        <ele>8.2</ele>
        <time>2020-06-17T12:15:27Z</time>
      </trkpt>
      <trkpt lat="49.29624" lon="-0.10571">
        <ele>8.2</ele>
        <time>2020-06-17T12:15:28Z</time>
      </trkpt>
      <trkpt lat="49.29624" lon="-0.1057">
        <ele>8.1</ele>
        <time>2020-06-17T12:15:29Z</time>
      </trkpt>
      <trkpt lat="49.29625" lon="-0.10569">
        <ele>8.1</ele>
        <time>2020-06-17T12:15:30Z</time>
      </trkpt>
      <trkpt lat="49.29625" lon="-0.10568">
        <ele>8.1</ele>
        <time>2020-06-17T12:15:31Z</time>
      </trkpt>
      <trkpt lat="49.29626" lon="-0.10567">
        <ele>8.1</ele>
        <time>2020-06-17T12:15:32Z</time>
      </trkpt>
      <trkpt lat="49.29626" lon="-0.10561">
        <ele>8.1</ele>
        <time>2020-06-17T12:15:33Z</time>
      </trkpt>
      <trkpt lat="49.29627" lon="-0.10558">
        <ele>8.1</ele>
        <time>2020-06-17T12:15:34Z</time>
      </trkpt>
      <trkpt lat="49.29627" lon="-0.10554">
        <ele>8</ele>
        <time>2020-06-17T12:15:35Z</time>
      </trkpt>
      <trkpt lat="49.29628" lon="-0.10548">
        <ele>8</ele>
        <time>2020-06-17T12:15:36Z</time>
      </trkpt>
      <trkpt lat="49.29629" lon="-0.10542">
        <ele>7.9</ele>
        <time>2020-06-17T12:15:37Z</time>
      </trkpt>
      <trkpt lat="49.2963" lon="-0.10536">
        <ele>7.9</ele>
        <time>2020-06-17T12:15:38Z</time>
      </trkpt>
      <trkpt lat="49.29632" lon="-0.1053">
        <ele>7.9</ele>
        <time>2020-06-17T12:15:39Z</time>
      </trkpt>
      <trkpt lat="49.29633" lon="-0.10523">
        <ele>7.9</ele>
        <time>2020-06-17T12:15:40Z</time>
      </trkpt>
      <trkpt lat="49.29634" lon="-0.10517">
        <ele>7.9</ele>
        <time>2020-06-17T12:15:41Z</time>
      </trkpt>
      <trkpt lat="49.29636" lon="-0.1051">
        <ele>7.8</ele>
        <time>2020-06-17T12:15:42Z</time>
      </trkpt>
      <trkpt lat="49.29638" lon="-0.10504">
        <ele>7.8</ele>
        <time>2020-06-17T12:15:43Z</time>
      </trkpt>
      <trkpt lat="49.29639" lon="-0.10498">
        <ele>7.7</ele>
        <time>2020-06-17T12:15:44Z</time>
      </trkpt>
      <trkpt lat="49.29641" lon="-0.1049">
        <ele>7.7</ele>
        <time>2020-06-17T12:15:45Z</time>
      </trkpt>
      <trkpt lat="49.29643" lon="-0.10483">
        <ele>7.6</ele>
        <time>2020-06-17T12:15:46Z</time>
      </trkpt>
      <trkpt lat="49.29644" lon="-0.10477">
        <ele>7.6</ele>
        <time>2020-06-17T12:15:47Z</time>
      </trkpt>
      <trkpt lat="49.29645" lon="-0.10471">
        <ele>7.6</ele>
        <time>2020-06-17T12:15:48Z</time>
      </trkpt>
      <trkpt lat="49.29646" lon="-0.10464">
        <ele>7.5</ele>
        <time>2020-06-17T12:15:49Z</time>
      </trkpt>
      <trkpt lat="49.29648" lon="-0.10458">
        <ele>7.5</ele>
        <time>2020-06-17T12:15:50Z</time>
      </trkpt>
      <trkpt lat="49.29649" lon="-0.10452">
        <ele>7.5</ele>
        <time>2020-06-17T12:15:51Z</time>
      </trkpt>
      <trkpt lat="49.29651" lon="-0.10445">
        <ele>7.4</ele>
        <time>2020-06-17T12:15:52Z</time>
      </trkpt>
      <trkpt lat="49.29653" lon="-0.10438">
        <ele>7.4</ele>
        <time>2020-06-17T12:15:53Z</time>
      </trkpt>
      <trkpt lat="49.29655" lon="-0.1043">
        <ele>7.3</ele>
        <time>2020-06-17T12:15:54Z</time>
      </trkpt>
      <trkpt lat="49.29656" lon="-0.10422">
        <ele>7.3</ele>
        <time>2020-06-17T12:15:55Z</time>
      </trkpt>
      <trkpt lat="49.29658" lon="-0.10414">
        <ele>7.2</ele>
        <time>2020-06-17T12:15:56Z</time>
      </trkpt>
      <trkpt lat="49.2966" lon="-0.10406">
        <ele>7.1</ele>
        <time>2020-06-17T12:15:57Z</time>
      </trkpt>
      <trkpt lat="49.29661" lon="-0.10398">
        <ele>7.1</ele>
        <time>2020-06-17T12:15:58Z</time>
      </trkpt>
      <trkpt lat="49.29663" lon="-0.1039">
        <ele>7</ele>
        <time>2020-06-17T12:15:59Z</time>
      </trkpt>
      <trkpt lat="49.29664" lon="-0.1038">
        <ele>6.9</ele>
        <time>2020-06-17T12:16:00Z</time>
      </trkpt>
      <trkpt lat="49.29666" lon="-0.10372">
        <ele>6.9</ele>
        <time>2020-06-17T12:16:01Z</time>
      </trkpt>
      <trkpt lat="49.29667" lon="-0.10363">
        <ele>6.9</ele>
        <time>2020-06-17T12:16:02Z</time>
      </trkpt>
      <trkpt lat="49.29668" lon="-0.10356">
        <ele>6.8</ele>
        <time>2020-06-17T12:16:03Z</time>
      </trkpt>
      <trkpt lat="49.29669" lon="-0.10349">
        <ele>6.8</ele>
        <time>2020-06-17T12:16:04Z</time>
      </trkpt>
      <trkpt lat="49.2967" lon="-0.10343">
        <ele>6.8</ele>
        <time>2020-06-17T12:16:05Z</time>
      </trkpt>
      <trkpt lat="49.29672" lon="-0.10336">
        <ele>6.8</ele>
        <time>2020-06-17T12:16:06Z</time>
      </trkpt>
      <trkpt lat="49.29674" lon="-0.1033">
        <ele>6.7</ele>
        <time>2020-06-17T12:16:07Z</time>
      </trkpt>
      <trkpt lat="49.29675" lon="-0.10324">
        <ele>6.7</ele>
        <time>2020-06-17T12:16:08Z</time>
      </trkpt>
      <trkpt lat="49.29676" lon="-0.10319">
        <ele>6.7</ele>
        <time>2020-06-17T12:16:09Z</time>
      </trkpt>
      <trkpt lat="49.29678" lon="-0.10313">
        <ele>6.7</ele>
        <time>2020-06-17T12:16:10Z</time>
      </trkpt>
      <trkpt lat="49.2968" lon="-0.10307">
        <ele>6.6</ele>
        <time>2020-06-17T12:16:11Z</time>
      </trkpt>
      <trkpt lat="49.29681" lon="-0.10302">
        <ele>6.6</ele>
        <time>2020-06-17T12:16:12Z</time>
      </trkpt>
      <trkpt lat="49.29682" lon="-0.10296">
        <ele>6.5</ele>
        <time>2020-06-17T12:16:13Z</time>
      </trkpt>
      <trkpt lat="49.29683" lon="-0.1029">
        <ele>6.5</ele>
        <time>2020-06-17T12:16:14Z</time>
      </trkpt>
      <trkpt lat="49.29684" lon="-0.10284">
        <ele>6.4</ele>
        <time>2020-06-17T12:16:15Z</time>
      </trkpt>
      <trkpt lat="49.29686" lon="-0.10278">
        <ele>6.4</ele>
        <time>2020-06-17T12:16:16Z</time>
      </trkpt>
      <trkpt lat="49.29687" lon="-0.10273">
        <ele>6.4</ele>
        <time>2020-06-17T12:16:17Z</time>
      </trkpt>
      <trkpt lat="49.29688" lon="-0.10267">
        <ele>6.3</ele>
        <time>2020-06-17T12:16:18Z</time>
      </trkpt>
      <trkpt lat="49.29689" lon="-0.10262">
        <ele>6.3</ele>
        <time>2020-06-17T12:16:19Z</time>
      </trkpt>
      <trkpt lat="49.29689" lon="-0.10258">
        <ele>6.3</ele>
        <time>2020-06-17T12:16:20Z</time>
      </trkpt>
      <trkpt lat="49.2969" lon="-0.10252">
        <ele>6.3</ele>
        <time>2020-06-17T12:16:21Z</time>
      </trkpt>
      <trkpt lat="49.2969" lon="-0.1025">
        <ele>6.3</ele>
        <time>2020-06-17T12:16:22Z</time>
      </trkpt>
      <trkpt lat="49.2969" lon="-0.10249">
        <ele>6.3</ele>
        <time>2020-06-17T12:16:23Z</time>
      </trkpt>
      <trkpt lat="49.29689" lon="-0.10248">
        <ele>6.3</ele>
        <time>2020-06-17T12:16:24Z</time>
      </trkpt>
      <trkpt lat="49.29689" lon="-0.10247">
        <ele>6.3</ele>
        <time>2020-06-17T12:16:25Z</time>
      </trkpt>
      <trkpt lat="49.29689" lon="-0.10245">
        <ele>6.2</ele>
        <time>2020-06-17T12:16:26Z</time>
      </trkpt>
      <trkpt lat="49.29687" lon="-0.10243">
        <ele>6.2</ele>
        <time>2020-06-17T12:16:27Z</time>
      </trkpt>
      <trkpt lat="49.29686" lon="-0.10242">
        <ele>6.2</ele>
        <time>2020-06-17T12:16:28Z</time>
      </trkpt>
      <trkpt lat="49.29682" lon="-0.1024">
        <ele>6.2</ele>
        <time>2020-06-17T12:16:29Z</time>
      </trkpt>
      <trkpt lat="49.2968" lon="-0.10239">
        <ele>6.2</ele>
        <time>2020-06-17T12:16:30Z</time>
      </trkpt>
      <trkpt lat="49.29676" lon="-0.10236">
        <ele>6.1</ele>
        <time>2020-06-17T12:16:31Z</time>
      </trkpt>
      <trkpt lat="49.29672" lon="-0.10234">
        <ele>6</ele>
        <time>2020-06-17T12:16:32Z</time>
      </trkpt>
      <trkpt lat="49.29667" lon="-0.10233">
        <ele>5.9</ele>
        <time>2020-06-17T12:16:33Z</time>
      </trkpt>
      <trkpt lat="49.29664" lon="-0.10233">
        <ele>5.8</ele>
        <time>2020-06-17T12:16:34Z</time>
      </trkpt>
      <trkpt lat="49.2966" lon="-0.10235">
        <ele>5.8</ele>
        <time>2020-06-17T12:16:35Z</time>
      </trkpt>
      <trkpt lat="49.29656" lon="-0.10238">
        <ele>5.8</ele>
        <time>2020-06-17T12:16:36Z</time>
      </trkpt>
      <trkpt lat="49.29653" lon="-0.10242">
        <ele>5.8</ele>
        <time>2020-06-17T12:16:37Z</time>
      </trkpt>
      <trkpt lat="49.29651" lon="-0.10247">
        <ele>5.7</ele>
        <time>2020-06-17T12:16:38Z</time>
      </trkpt>
      <trkpt lat="49.29648" lon="-0.1025">
        <ele>5.7</ele>
        <time>2020-06-17T12:16:39Z</time>
      </trkpt>
      <trkpt lat="49.29646" lon="-0.10253">
        <ele>5.7</ele>
        <time>2020-06-17T12:16:40Z</time>
      </trkpt>
      <trkpt lat="49.29645" lon="-0.10253">
        <ele>5.7</ele>
        <time>2020-06-17T12:16:41Z</time>
      </trkpt>
      <trkpt lat="49.29644" lon="-0.10254">
        <ele>5.7</ele>
        <time>2020-06-17T12:16:42Z</time>
      </trkpt>
      <trkpt lat="49.29643" lon="-0.10255">
        <ele>5.7</ele>
        <time>2020-06-17T12:16:43Z</time>
      </trkpt>
      <trkpt lat="49.29642" lon="-0.10255">
        <ele>5.7</ele>
        <time>2020-06-17T12:16:44Z</time>
      </trkpt>
      <trkpt lat="49.29642" lon="-0.10254">
        <ele>5.6</ele>
        <time>2020-06-17T12:16:45Z</time>
      </trkpt>
      <trkpt lat="49.29642" lon="-0.10254">
        <ele>5.6</ele>
        <time>2020-06-17T12:16:46Z</time>
      </trkpt>
      <trkpt lat="49.29641" lon="-0.10254">
        <ele>5.6</ele>
        <time>2020-06-17T12:16:47Z</time>
      </trkpt>
      <trkpt lat="49.29641" lon="-0.10254">
        <ele>5.6</ele>
        <time>2020-06-17T12:16:48Z</time>
      </trkpt>
      <trkpt lat="49.29641" lon="-0.10254">
        <ele>5.6</ele>
        <time>2020-06-17T12:16:49Z</time>
      </trkpt>
      <trkpt lat="49.29641" lon="-0.10254">
        <ele>5.6</ele>
        <time>2020-06-17T12:16:50Z</time>
      </trkpt>
      <trkpt lat="49.29641" lon="-0.10254">
        <ele>5.6</ele>
        <time>2020-06-17T12:16:51Z</time>
      </trkpt>
      <trkpt lat="49.29641" lon="-0.10253">
        <ele>5.6</ele>
        <time>2020-06-17T12:16:52Z</time>
      </trkpt>
      <trkpt lat="49.29641" lon="-0.10253">
        <ele>5.6</ele>
        <time>2020-06-17T12:16:53Z</time>
      </trkpt>
      <trkpt lat="49.29641" lon="-0.10253">
        <ele>5.6</ele>
        <time>2020-06-17T12:16:54Z</time>
      </trkpt>
      <trkpt lat="49.2964" lon="-0.10253">
        <ele>5.6</ele>
        <time>2020-06-17T12:16:55Z</time>
      </trkpt>
      <trkpt lat="49.2964" lon="-0.10253">
        <ele>5.6</ele>
        <time>2020-06-17T12:16:56Z</time>
      </trkpt>
      <trkpt lat="49.2964" lon="-0.10252">
        <ele>5.6</ele>
        <time>2020-06-17T12:16:57Z</time>
      </trkpt>
      <trkpt lat="49.2964" lon="-0.10252">
        <ele>5.6</ele>
        <time>2020-06-17T12:16:58Z</time>
      </trkpt>
      <trkpt lat="49.2964" lon="-0.10252">
        <ele>5.6</ele>
        <time>2020-06-17T12:16:59Z</time>
      </trkpt>
      <trkpt lat="49.2964" lon="-0.10252">
        <ele>5.6</ele>
        <time>2020-06-17T12:17:00Z</time>
      </trkpt>
      <trkpt lat="49.2964" lon="-0.10252">
        <ele>5.6</ele>
        <time>2020-06-17T12:17:01Z</time>
      </trkpt>
      <trkpt lat="49.29639" lon="-0.10252">
        <ele>5.6</ele>
        <time>2020-06-17T12:17:02Z</time>
      </trkpt>
      <trkpt lat="49.29639" lon="-0.10251">
        <ele>5.6</ele>
        <time>2020-06-17T12:17:03Z</time>
      </trkpt>
      <trkpt lat="49.29639" lon="-0.10251">
        <ele>5.6</ele>
        <time>2020-06-17T12:17:04Z</time>
      </trkpt>
      <trkpt lat="49.29639" lon="-0.10251">
        <ele>5.6</ele>
        <time>2020-06-17T12:17:05Z</time>
      </trkpt>
      <trkpt lat="49.29639" lon="-0.10251">
        <ele>5.6</ele>
        <time>2020-06-17T12:17:06Z</time>
      </trkpt>
      <trkpt lat="49.29639" lon="-0.10251">
        <ele>5.6</ele>
        <time>2020-06-17T12:17:07Z</time>
      </trkpt>
      <trkpt lat="49.29638" lon="-0.1025">
        <ele>5.6</ele>
        <time>2020-06-17T12:17:08Z</time>
      </trkpt>
      <trkpt lat="49.29636" lon="-0.10248">
        <ele>5.5</ele>
        <time>2020-06-17T12:17:09Z</time>
      </trkpt>
      <trkpt lat="49.29634" lon="-0.10246">
        <ele>5.5</ele>
        <time>2020-06-17T12:17:10Z</time>
      </trkpt>
      <trkpt lat="49.29633" lon="-0.10246">
        <ele>5.5</ele>
        <time>2020-06-17T12:17:11Z</time>
      </trkpt>
      <trkpt lat="49.29632" lon="-0.10246">
        <ele>5.5</ele>
        <time>2020-06-17T12:17:12Z</time>
      </trkpt>
      <trkpt lat="49.29631" lon="-0.10245">
        <ele>5.5</ele>
        <time>2020-06-17T12:17:13Z</time>
      </trkpt>
      <trkpt lat="49.29629" lon="-0.10245">
        <ele>5.5</ele>
        <time>2020-06-17T12:17:14Z</time>
      </trkpt>
      <trkpt lat="49.29628" lon="-0.10246">
        <ele>5.5</ele>
        <time>2020-06-17T12:17:15Z</time>
      </trkpt>
      <trkpt lat="49.29628" lon="-0.10246">
        <ele>5.5</ele>
        <time>2020-06-17T12:17:16Z</time>
      </trkpt>
      <trkpt lat="49.29628" lon="-0.10247">
        <ele>5.5</ele>
        <time>2020-06-17T12:17:17Z</time>
      </trkpt>
      <trkpt lat="49.29628" lon="-0.10248">
        <ele>5.5</ele>
        <time>2020-06-17T12:17:18Z</time>
      </trkpt>
      <trkpt lat="49.29627" lon="-0.10249">
        <ele>5.5</ele>
        <time>2020-06-17T12:17:19Z</time>
      </trkpt>
      <trkpt lat="49.29627" lon="-0.10249">
        <ele>5.5</ele>
        <time>2020-06-17T12:17:20Z</time>
      </trkpt>
      <trkpt lat="49.29627" lon="-0.1025">
        <ele>5.5</ele>
        <time>2020-06-17T12:17:21Z</time>
      </trkpt>
      <trkpt lat="49.29627" lon="-0.10251">
        <ele>5.5</ele>
        <time>2020-06-17T12:17:22Z</time>
      </trkpt>
      <trkpt lat="49.29626" lon="-0.10251">
        <ele>5.5</ele>
        <time>2020-06-17T12:17:23Z</time>
      </trkpt>
      <trkpt lat="49.29626" lon="-0.10254">
        <ele>5.5</ele>
        <time>2020-06-17T12:17:24Z</time>
      </trkpt>
      <trkpt lat="49.29626" lon="-0.10254">
        <ele>5.5</ele>
        <time>2020-06-17T12:17:25Z</time>
      </trkpt>
      <trkpt lat="49.29626" lon="-0.10255">
        <ele>5.5</ele>
        <time>2020-06-17T12:17:26Z</time>
      </trkpt>
      <trkpt lat="49.29626" lon="-0.10256">
        <ele>5.5</ele>
        <time>2020-06-17T12:17:27Z</time>
      </trkpt>
      <trkpt lat="49.29626" lon="-0.10257">
        <ele>5.5</ele>
        <time>2020-06-17T12:17:28Z</time>
      </trkpt>
      <trkpt lat="49.29625" lon="-0.10259">
        <ele>5.5</ele>
        <time>2020-06-17T12:17:29Z</time>
      </trkpt>
      <trkpt lat="49.29625" lon="-0.1026">
        <ele>5.5</ele>
        <time>2020-06-17T12:17:30Z</time>
      </trkpt>
      <trkpt lat="49.29625" lon="-0.10261">
        <ele>5.5</ele>
        <time>2020-06-17T12:17:31Z</time>
      </trkpt>
      <trkpt lat="49.29624" lon="-0.10263">
        <ele>5.5</ele>
        <time>2020-06-17T12:17:32Z</time>
      </trkpt>
      <trkpt lat="49.29624" lon="-0.10265">
        <ele>5.6</ele>
        <time>2020-06-17T12:17:33Z</time>
      </trkpt>
      <trkpt lat="49.29624" lon="-0.10267">
        <ele>5.6</ele>
        <time>2020-06-17T12:17:34Z</time>
      </trkpt>
      <trkpt lat="49.29623" lon="-0.10269">
        <ele>5.6</ele>
        <time>2020-06-17T12:17:35Z</time>
      </trkpt>
      <trkpt lat="49.29623" lon="-0.10271">
        <ele>5.7</ele>
        <time>2020-06-17T12:17:36Z</time>
      </trkpt>
      <trkpt lat="49.29622" lon="-0.10274">
        <ele>5.7</ele>
        <time>2020-06-17T12:17:37Z</time>
      </trkpt>
      <trkpt lat="49.29622" lon="-0.10277">
        <ele>5.8</ele>
        <time>2020-06-17T12:17:38Z</time>
      </trkpt>
      <trkpt lat="49.29621" lon="-0.10279">
        <ele>5.8</ele>
        <time>2020-06-17T12:17:39Z</time>
      </trkpt>
      <trkpt lat="49.29621" lon="-0.1028">
        <ele>5.9</ele>
        <time>2020-06-17T12:17:40Z</time>
      </trkpt>
      <trkpt lat="49.29621" lon="-0.10283">
        <ele>6.3</ele>
        <time>2020-06-17T12:17:41Z</time>
      </trkpt>
      <trkpt lat="49.2962" lon="-0.10285">
        <ele>6.3</ele>
        <time>2020-06-17T12:17:42Z</time>
      </trkpt>
      <trkpt lat="49.29619" lon="-0.10287">
        <ele>6.3</ele>
        <time>2020-06-17T12:17:43Z</time>
      </trkpt>
      <trkpt lat="49.29617" lon="-0.10285">
        <ele>6.4</ele>
        <time>2020-06-17T12:17:44Z</time>
      </trkpt>
      <trkpt lat="49.29615" lon="-0.10282">
        <ele>6.4</ele>
        <time>2020-06-17T12:17:45Z</time>
      </trkpt>
      <trkpt lat="49.29611" lon="-0.10278">
        <ele>6.7</ele>
        <time>2020-06-17T12:17:46Z</time>
      </trkpt>
      <trkpt lat="49.29609" lon="-0.10277">
        <ele>6.8</ele>
        <time>2020-06-17T12:17:47Z</time>
      </trkpt>
      <trkpt lat="49.29606" lon="-0.10275">
        <ele>6.9</ele>
        <time>2020-06-17T12:17:48Z</time>
      </trkpt>
      <trkpt lat="49.29602" lon="-0.10273">
        <ele>7.1</ele>
        <time>2020-06-17T12:17:49Z</time>
      </trkpt>
      <trkpt lat="49.29599" lon="-0.10272">
        <ele>7.3</ele>
        <time>2020-06-17T12:17:50Z</time>
      </trkpt>
      <trkpt lat="49.29598" lon="-0.10271">
        <ele>7.3</ele>
        <time>2020-06-17T12:17:51Z</time>
      </trkpt>
      <trkpt lat="49.29594" lon="-0.1027">
        <ele>7.5</ele>
        <time>2020-06-17T12:17:52Z</time>
      </trkpt>
      <trkpt lat="49.29593" lon="-0.10269">
        <ele>7.5</ele>
        <time>2020-06-17T12:17:53Z</time>
      </trkpt>
      <trkpt lat="49.29591" lon="-0.10268">
        <ele>7.6</ele>
        <time>2020-06-17T12:17:54Z</time>
      </trkpt>
      <trkpt lat="49.29589" lon="-0.10268">
        <ele>7.6</ele>
        <time>2020-06-17T12:17:55Z</time>
      </trkpt>
      <trkpt lat="49.29586" lon="-0.10267">
        <ele>7.7</ele>
        <time>2020-06-17T12:17:56Z</time>
      </trkpt>
      <trkpt lat="49.29583" lon="-0.10265">
        <ele>7.8</ele>
        <time>2020-06-17T12:17:57Z</time>
      </trkpt>
      <trkpt lat="49.2958" lon="-0.10263">
        <ele>7.9</ele>
        <time>2020-06-17T12:17:58Z</time>
      </trkpt>
      <trkpt lat="49.29577" lon="-0.10262">
        <ele>8</ele>
        <time>2020-06-17T12:17:59Z</time>
      </trkpt>
      <trkpt lat="49.29575" lon="-0.10262">
        <ele>8</ele>
        <time>2020-06-17T12:18:00Z</time>
      </trkpt>
      <trkpt lat="49.29572" lon="-0.10261">
        <ele>8.1</ele>
        <time>2020-06-17T12:18:01Z</time>
      </trkpt>
      <trkpt lat="49.29571" lon="-0.1026">
        <ele>8.1</ele>
        <time>2020-06-17T12:18:02Z</time>
      </trkpt>
      <trkpt lat="49.29568" lon="-0.10259">
        <ele>8.1</ele>
        <time>2020-06-17T12:18:03Z</time>
      </trkpt>
      <trkpt lat="49.29567" lon="-0.10258">
        <ele>8.2</ele>
        <time>2020-06-17T12:18:04Z</time>
      </trkpt>
      <trkpt lat="49.29565" lon="-0.10258">
        <ele>8.2</ele>
        <time>2020-06-17T12:18:05Z</time>
      </trkpt>
      <trkpt lat="49.29563" lon="-0.10258">
        <ele>8.2</ele>
        <time>2020-06-17T12:18:06Z</time>
      </trkpt>
      <trkpt lat="49.29561" lon="-0.10257">
        <ele>8.2</ele>
        <time>2020-06-17T12:18:07Z</time>
      </trkpt>
      <trkpt lat="49.2956" lon="-0.10256">
        <ele>8.2</ele>
        <time>2020-06-17T12:18:08Z</time>
      </trkpt>
      <trkpt lat="49.29559" lon="-0.10256">
        <ele>8.2</ele>
        <time>2020-06-17T12:18:09Z</time>
      </trkpt>
      <trkpt lat="49.29559" lon="-0.10255">
        <ele>8.2</ele>
        <time>2020-06-17T12:18:10Z</time>
      </trkpt>
      <trkpt lat="49.29558" lon="-0.10254">
        <ele>8.2</ele>
        <time>2020-06-17T12:18:11Z</time>
      </trkpt>
      <trkpt lat="49.29557" lon="-0.10253">
        <ele>8.2</ele>
        <time>2020-06-17T12:18:12Z</time>
      </trkpt>
      <trkpt lat="49.29556" lon="-0.10251">
        <ele>8.2</ele>
        <time>2020-06-17T12:18:13Z</time>
      </trkpt>
      <trkpt lat="49.29555" lon="-0.10249">
        <ele>8.1</ele>
        <time>2020-06-17T12:18:14Z</time>
      </trkpt>
      <trkpt lat="49.29553" lon="-0.10247">
        <ele>8.1</ele>
        <time>2020-06-17T12:18:15Z</time>
      </trkpt>
      <trkpt lat="49.29552" lon="-0.10246">
        <ele>8.1</ele>
        <time>2020-06-17T12:18:16Z</time>
      </trkpt>
      <trkpt lat="49.2955" lon="-0.10245">
        <ele>8</ele>
        <time>2020-06-17T12:18:17Z</time>
      </trkpt>
      <trkpt lat="49.29549" lon="-0.10244">
        <ele>8</ele>
        <time>2020-06-17T12:18:18Z</time>
      </trkpt>
      <trkpt lat="49.29547" lon="-0.10242">
        <ele>8</ele>
        <time>2020-06-17T12:18:19Z</time>
      </trkpt>
      <trkpt lat="49.29546" lon="-0.10241">
        <ele>7.9</ele>
        <time>2020-06-17T12:18:20Z</time>
      </trkpt>
      <trkpt lat="49.29546" lon="-0.1024">
        <ele>7.9</ele>
        <time>2020-06-17T12:18:21Z</time>
      </trkpt>
      <trkpt lat="49.29544" lon="-0.10239">
        <ele>7.9</ele>
        <time>2020-06-17T12:18:22Z</time>
      </trkpt>
      <trkpt lat="49.29543" lon="-0.10238">
        <ele>7.8</ele>
        <time>2020-06-17T12:18:23Z</time>
      </trkpt>
      <trkpt lat="49.29543" lon="-0.10237">
        <ele>7.8</ele>
        <time>2020-06-17T12:18:24Z</time>
      </trkpt>
      <trkpt lat="49.29542" lon="-0.10237">
        <ele>7.8</ele>
        <time>2020-06-17T12:18:25Z</time>
      </trkpt>
      <trkpt lat="49.29541" lon="-0.10235">
        <ele>7.8</ele>
        <time>2020-06-17T12:18:26Z</time>
      </trkpt>
      <trkpt lat="49.29541" lon="-0.10234">
        <ele>7.7</ele>
        <time>2020-06-17T12:18:27Z</time>
      </trkpt>
      <trkpt lat="49.2954" lon="-0.10232">
        <ele>7.7</ele>
        <time>2020-06-17T12:18:28Z</time>
      </trkpt>
      <trkpt lat="49.29539" lon="-0.10231">
        <ele>7.7</ele>
        <time>2020-06-17T12:18:29Z</time>
      </trkpt>
      <trkpt lat="49.29538" lon="-0.1023">
        <ele>7.7</ele>
        <time>2020-06-17T12:18:30Z</time>
      </trkpt>
      <trkpt lat="49.29538" lon="-0.1023">
        <ele>7.6</ele>
        <time>2020-06-17T12:18:31Z</time>
      </trkpt>
      <trkpt lat="49.29537" lon="-0.10229">
        <ele>7.6</ele>
        <time>2020-06-17T12:18:32Z</time>
      </trkpt>
      <trkpt lat="49.29537" lon="-0.10229">
        <ele>7.6</ele>
        <time>2020-06-17T12:18:33Z</time>
      </trkpt>
      <trkpt lat="49.29536" lon="-0.10229">
        <ele>7.6</ele>
        <time>2020-06-17T12:18:34Z</time>
      </trkpt>
      <trkpt lat="49.29536" lon="-0.10228">
        <ele>7.6</ele>
        <time>2020-06-17T12:18:35Z</time>
      </trkpt>
      <trkpt lat="49.29536" lon="-0.10228">
        <ele>7.6</ele>
        <time>2020-06-17T12:18:36Z</time>
      </trkpt>
      <trkpt lat="49.29535" lon="-0.10228">
        <ele>7.6</ele>
        <time>2020-06-17T12:18:37Z</time>
      </trkpt>
      <trkpt lat="49.29534" lon="-0.10227">
        <ele>7.5</ele>
        <time>2020-06-17T12:18:38Z</time>
      </trkpt>
      <trkpt lat="49.29533" lon="-0.10226">
        <ele>7.5</ele>
        <time>2020-06-17T12:18:39Z</time>
      </trkpt>
      <trkpt lat="49.29533" lon="-0.10226">
        <ele>7.5</ele>
        <time>2020-06-17T12:18:40Z</time>
      </trkpt>
      <trkpt lat="49.29532" lon="-0.10225">
        <ele>7.4</ele>
        <time>2020-06-17T12:18:41Z</time>
      </trkpt>
      <trkpt lat="49.29531" lon="-0.10224">
        <ele>7.4</ele>
        <time>2020-06-17T12:18:42Z</time>
      </trkpt>
      <trkpt lat="49.2953" lon="-0.10223">
        <ele>7.4</ele>
        <time>2020-06-17T12:18:43Z</time>
      </trkpt>
      <trkpt lat="49.29529" lon="-0.10223">
        <ele>7.4</ele>
        <time>2020-06-17T12:18:44Z</time>
      </trkpt>
      <trkpt lat="49.29528" lon="-0.10221">
        <ele>7.3</ele>
        <time>2020-06-17T12:18:45Z</time>
      </trkpt>
      <trkpt lat="49.29527" lon="-0.1022">
        <ele>7.3</ele>
        <time>2020-06-17T12:18:46Z</time>
      </trkpt>
      <trkpt lat="49.29526" lon="-0.10219">
        <ele>7.2</ele>
        <time>2020-06-17T12:18:47Z</time>
      </trkpt>
      <trkpt lat="49.29525" lon="-0.10218">
        <ele>7.2</ele>
        <time>2020-06-17T12:18:48Z</time>
      </trkpt>
      <trkpt lat="49.29524" lon="-0.10217">
        <ele>7.1</ele>
        <time>2020-06-17T12:18:49Z</time>
      </trkpt>
      <trkpt lat="49.29523" lon="-0.10216">
        <ele>7.1</ele>
        <time>2020-06-17T12:18:50Z</time>
      </trkpt>
      <trkpt lat="49.29522" lon="-0.10215">
        <ele>7.1</ele>
        <time>2020-06-17T12:18:51Z</time>
      </trkpt>
      <trkpt lat="49.29522" lon="-0.10214">
        <ele>7</ele>
        <time>2020-06-17T12:18:52Z</time>
      </trkpt>
      <trkpt lat="49.2952" lon="-0.10213">
        <ele>7</ele>
        <time>2020-06-17T12:18:53Z</time>
      </trkpt>
      <trkpt lat="49.29518" lon="-0.10212">
        <ele>6.9</ele>
        <time>2020-06-17T12:18:54Z</time>
      </trkpt>
      <trkpt lat="49.29517" lon="-0.10212">
        <ele>6.9</ele>
        <time>2020-06-17T12:18:55Z</time>
      </trkpt>
      <trkpt lat="49.29514" lon="-0.10211">
        <ele>6.8</ele>
        <time>2020-06-17T12:18:56Z</time>
      </trkpt>
      <trkpt lat="49.29514" lon="-0.1021">
        <ele>6.7</ele>
        <time>2020-06-17T12:18:57Z</time>
      </trkpt>
      <trkpt lat="49.29513" lon="-0.1021">
        <ele>6.7</ele>
        <time>2020-06-17T12:18:58Z</time>
      </trkpt>
      <trkpt lat="49.29512" lon="-0.10208">
        <ele>6.7</ele>
        <time>2020-06-17T12:18:59Z</time>
      </trkpt>
      <trkpt lat="49.29512" lon="-0.10208">
        <ele>6.7</ele>
        <time>2020-06-17T12:19:00Z</time>
      </trkpt>
      <trkpt lat="49.29511" lon="-0.10208">
        <ele>6.6</ele>
        <time>2020-06-17T12:19:01Z</time>
      </trkpt>
      <trkpt lat="49.29511" lon="-0.10207">
        <ele>6.6</ele>
        <time>2020-06-17T12:19:02Z</time>
      </trkpt>
      <trkpt lat="49.29511" lon="-0.10207">
        <ele>6.6</ele>
        <time>2020-06-17T12:19:03Z</time>
      </trkpt>
      <trkpt lat="49.2951" lon="-0.10205">
        <ele>6.6</ele>
        <time>2020-06-17T12:19:04Z</time>
      </trkpt>
      <trkpt lat="49.29511" lon="-0.10205">
        <ele>6.5</ele>
        <time>2020-06-17T12:19:05Z</time>
      </trkpt>
      <trkpt lat="49.29511" lon="-0.10205">
        <ele>6.5</ele>
        <time>2020-06-17T12:19:06Z</time>
      </trkpt>
      <trkpt lat="49.29511" lon="-0.10204">
        <ele>6.5</ele>
        <time>2020-06-17T12:19:07Z</time>
      </trkpt>
      <trkpt lat="49.2951" lon="-0.10204">
        <ele>6.5</ele>
        <time>2020-06-17T12:19:08Z</time>
      </trkpt>
      <trkpt lat="49.2951" lon="-0.10203">
        <ele>6.5</ele>
        <time>2020-06-17T12:19:09Z</time>
      </trkpt>
      <trkpt lat="49.29509" lon="-0.10202">
        <ele>6.5</ele>
        <time>2020-06-17T12:19:10Z</time>
      </trkpt>
      <trkpt lat="49.29509" lon="-0.10202">
        <ele>6.4</ele>
        <time>2020-06-17T12:19:11Z</time>
      </trkpt>
      <trkpt lat="49.29509" lon="-0.10202">
        <ele>6.4</ele>
        <time>2020-06-17T12:19:12Z</time>
      </trkpt>
      <trkpt lat="49.29508" lon="-0.10202">
        <ele>6.4</ele>
        <time>2020-06-17T12:19:13Z</time>
      </trkpt>
      <trkpt lat="49.29508" lon="-0.10201">
        <ele>6.4</ele>
        <time>2020-06-17T12:19:14Z</time>
      </trkpt>
      <trkpt lat="49.29506" lon="-0.10201">
        <ele>6.3</ele>
        <time>2020-06-17T12:19:15Z</time>
      </trkpt>
      <trkpt lat="49.29503" lon="-0.10199">
        <ele>6.2</ele>
        <time>2020-06-17T12:19:16Z</time>
      </trkpt>
      <trkpt lat="49.29502" lon="-0.10198">
        <ele>6.1</ele>
        <time>2020-06-17T12:19:17Z</time>
      </trkpt>
      <trkpt lat="49.29498" lon="-0.10196">
        <ele>6</ele>
        <time>2020-06-17T12:19:18Z</time>
      </trkpt>
      <trkpt lat="49.29497" lon="-0.10195">
        <ele>6</ele>
        <time>2020-06-17T12:19:19Z</time>
      </trkpt>
      <trkpt lat="49.29495" lon="-0.10193">
        <ele>5.9</ele>
        <time>2020-06-17T12:19:20Z</time>
      </trkpt>
      <trkpt lat="49.29492" lon="-0.10191">
        <ele>5.8</ele>
        <time>2020-06-17T12:19:21Z</time>
      </trkpt>
      <trkpt lat="49.29489" lon="-0.10187">
        <ele>5.8</ele>
        <time>2020-06-17T12:19:22Z</time>
      </trkpt>
      <trkpt lat="49.29486" lon="-0.10185">
        <ele>5.7</ele>
        <time>2020-06-17T12:19:23Z</time>
      </trkpt>
      <trkpt lat="49.29482" lon="-0.10183">
        <ele>5.6</ele>
        <time>2020-06-17T12:19:24Z</time>
      </trkpt>
      <trkpt lat="49.29478" lon="-0.10179">
        <ele>5.5</ele>
        <time>2020-06-17T12:19:25Z</time>
      </trkpt>
      <trkpt lat="49.29475" lon="-0.10177">
        <ele>5.5</ele>
        <time>2020-06-17T12:19:26Z</time>
      </trkpt>
      <trkpt lat="49.29472" lon="-0.10176">
        <ele>5.4</ele>
        <time>2020-06-17T12:19:27Z</time>
      </trkpt>
      <trkpt lat="49.29467" lon="-0.10175">
        <ele>5.6</ele>
        <time>2020-06-17T12:19:28Z</time>
      </trkpt>
      <trkpt lat="49.29463" lon="-0.10173">
        <ele>5.7</ele>
        <time>2020-06-17T12:19:29Z</time>
      </trkpt>
      <trkpt lat="49.2946" lon="-0.1017">
        <ele>5.8</ele>
        <time>2020-06-17T12:19:30Z</time>
      </trkpt>
      <trkpt lat="49.29457" lon="-0.10167">
        <ele>5.8</ele>
        <time>2020-06-17T12:19:31Z</time>
      </trkpt>
      <trkpt lat="49.29454" lon="-0.10164">
        <ele>5.9</ele>
        <time>2020-06-17T12:19:32Z</time>
      </trkpt>
      <trkpt lat="49.29451" lon="-0.10161">
        <ele>6</ele>
        <time>2020-06-17T12:19:33Z</time>
      </trkpt>
      <trkpt lat="49.29449" lon="-0.10159">
        <ele>6.1</ele>
        <time>2020-06-17T12:19:34Z</time>
      </trkpt>
      <trkpt lat="49.29446" lon="-0.10157">
        <ele>6.2</ele>
        <time>2020-06-17T12:19:35Z</time>
      </trkpt>
      <trkpt lat="49.29444" lon="-0.10154">
        <ele>6.2</ele>
        <time>2020-06-17T12:19:36Z</time>
      </trkpt>
      <trkpt lat="49.29443" lon="-0.10154">
        <ele>6.2</ele>
        <time>2020-06-17T12:19:37Z</time>
      </trkpt>
      <trkpt lat="49.2944" lon="-0.10152">
        <ele>6.3</ele>
        <time>2020-06-17T12:19:38Z</time>
      </trkpt>
      <trkpt lat="49.29439" lon="-0.10152">
        <ele>6.3</ele>
        <time>2020-06-17T12:19:39Z</time>
      </trkpt>
      <trkpt lat="49.29435" lon="-0.10151">
        <ele>6.5</ele>
        <time>2020-06-17T12:19:40Z</time>
      </trkpt>
      <trkpt lat="49.29434" lon="-0.10152">
        <ele>6.5</ele>
        <time>2020-06-17T12:19:41Z</time>
      </trkpt>
      <trkpt lat="49.29431" lon="-0.10151">
        <ele>6.6</ele>
        <time>2020-06-17T12:19:42Z</time>
      </trkpt>
      <trkpt lat="49.29427" lon="-0.10151">
        <ele>6.6</ele>
        <time>2020-06-17T12:19:43Z</time>
      </trkpt>
      <trkpt lat="49.29426" lon="-0.10151">
        <ele>6.8</ele>
        <time>2020-06-17T12:19:44Z</time>
      </trkpt>
      <trkpt lat="49.29423" lon="-0.10152">
        <ele>6.8</ele>
        <time>2020-06-17T12:19:45Z</time>
      </trkpt>
      <trkpt lat="49.2942" lon="-0.1015">
        <ele>6.8</ele>
        <time>2020-06-17T12:19:46Z</time>
      </trkpt>
      <trkpt lat="49.29417" lon="-0.10148">
        <ele>6.8</ele>
        <time>2020-06-17T12:19:47Z</time>
      </trkpt>
      <trkpt lat="49.29413" lon="-0.10146">
        <ele>6.8</ele>
        <time>2020-06-17T12:19:48Z</time>
      </trkpt>
      <trkpt lat="49.29412" lon="-0.10145">
        <ele>6.8</ele>
        <time>2020-06-17T12:19:49Z</time>
      </trkpt>
      <trkpt lat="49.29409" lon="-0.10143">
        <ele>6.8</ele>
        <time>2020-06-17T12:19:50Z</time>
      </trkpt>
      <trkpt lat="49.29407" lon="-0.10141">
        <ele>6.8</ele>
        <time>2020-06-17T12:19:51Z</time>
      </trkpt>
      <trkpt lat="49.29404" lon="-0.10139">
        <ele>6.8</ele>
        <time>2020-06-17T12:19:52Z</time>
      </trkpt>
      <trkpt lat="49.29403" lon="-0.10138">
        <ele>6.8</ele>
        <time>2020-06-17T12:19:53Z</time>
      </trkpt>
      <trkpt lat="49.294" lon="-0.10135">
        <ele>6.8</ele>
        <time>2020-06-17T12:19:54Z</time>
      </trkpt>
      <trkpt lat="49.294" lon="-0.10134">
        <ele>6.8</ele>
        <time>2020-06-17T12:19:55Z</time>
      </trkpt>
      <trkpt lat="49.29397" lon="-0.1013">
        <ele>6.8</ele>
        <time>2020-06-17T12:19:56Z</time>
      </trkpt>
      <trkpt lat="49.29396" lon="-0.10129">
        <ele>6.8</ele>
        <time>2020-06-17T12:19:57Z</time>
      </trkpt>
      <trkpt lat="49.29392" lon="-0.10127">
        <ele>6.8</ele>
        <time>2020-06-17T12:19:58Z</time>
      </trkpt>
      <trkpt lat="49.29391" lon="-0.10126">
        <ele>6.8</ele>
        <time>2020-06-17T12:19:59Z</time>
      </trkpt>
      <trkpt lat="49.29388" lon="-0.10123">
        <ele>6.7</ele>
        <time>2020-06-17T12:20:00Z</time>
      </trkpt>
      <trkpt lat="49.29386" lon="-0.10121">
        <ele>6.7</ele>
        <time>2020-06-17T12:20:01Z</time>
      </trkpt>
      <trkpt lat="49.29383" lon="-0.10118">
        <ele>6.7</ele>
        <time>2020-06-17T12:20:02Z</time>
      </trkpt>
      <trkpt lat="49.2938" lon="-0.10116">
        <ele>6.7</ele>
        <time>2020-06-17T12:20:03Z</time>
      </trkpt>
      <trkpt lat="49.29376" lon="-0.10114">
        <ele>6.7</ele>
        <time>2020-06-17T12:20:04Z</time>
      </trkpt>
      <trkpt lat="49.29373" lon="-0.1011">
        <ele>6.7</ele>
        <time>2020-06-17T12:20:05Z</time>
      </trkpt>
      <trkpt lat="49.29369" lon="-0.10108">
        <ele>6.7</ele>
        <time>2020-06-17T12:20:06Z</time>
      </trkpt>
      <trkpt lat="49.29364" lon="-0.10104">
        <ele>6.7</ele>
        <time>2020-06-17T12:20:07Z</time>
      </trkpt>
      <trkpt lat="49.29358" lon="-0.10101">
        <ele>6.7</ele>
        <time>2020-06-17T12:20:08Z</time>
      </trkpt>
      <trkpt lat="49.29352" lon="-0.10097">
        <ele>6.7</ele>
        <time>2020-06-17T12:20:09Z</time>
      </trkpt>
      <trkpt lat="49.29347" lon="-0.10095">
        <ele>6.8</ele>
        <time>2020-06-17T12:20:10Z</time>
      </trkpt>
      <trkpt lat="49.29343" lon="-0.10091">
        <ele>6.8</ele>
        <time>2020-06-17T12:20:11Z</time>
      </trkpt>
      <trkpt lat="49.2934" lon="-0.10089">
        <ele>6.8</ele>
        <time>2020-06-17T12:20:12Z</time>
      </trkpt>
      <trkpt lat="49.29336" lon="-0.10087">
        <ele>6.8</ele>
        <time>2020-06-17T12:20:13Z</time>
      </trkpt>
      <trkpt lat="49.29333" lon="-0.10082">
        <ele>6.8</ele>
        <time>2020-06-17T12:20:14Z</time>
      </trkpt>
      <trkpt lat="49.2933" lon="-0.10078">
        <ele>6.8</ele>
        <time>2020-06-17T12:20:15Z</time>
      </trkpt>
      <trkpt lat="49.29328" lon="-0.10074">
        <ele>6.8</ele>
        <time>2020-06-17T12:20:16Z</time>
      </trkpt>
      <trkpt lat="49.29325" lon="-0.10071">
        <ele>6.8</ele>
        <time>2020-06-17T12:20:17Z</time>
      </trkpt>
      <trkpt lat="49.29322" lon="-0.10068">
        <ele>6.8</ele>
        <time>2020-06-17T12:20:18Z</time>
      </trkpt>
      <trkpt lat="49.29319" lon="-0.10066">
        <ele>6.8</ele>
        <time>2020-06-17T12:20:19Z</time>
      </trkpt>
      <trkpt lat="49.29316" lon="-0.10063">
        <ele>6.8</ele>
        <time>2020-06-17T12:20:20Z</time>
      </trkpt>
      <trkpt lat="49.29313" lon="-0.10061">
        <ele>6.8</ele>
        <time>2020-06-17T12:20:21Z</time>
      </trkpt>
      <trkpt lat="49.2931" lon="-0.10058">
        <ele>6.8</ele>
        <time>2020-06-17T12:20:22Z</time>
      </trkpt>
      <trkpt lat="49.29309" lon="-0.10056">
        <ele>6.8</ele>
        <time>2020-06-17T12:20:23Z</time>
      </trkpt>
      <trkpt lat="49.29305" lon="-0.10054">
        <ele>6.8</ele>
        <time>2020-06-17T12:20:24Z</time>
      </trkpt>
      <trkpt lat="49.29302" lon="-0.10053">
        <ele>6.8</ele>
        <time>2020-06-17T12:20:25Z</time>
      </trkpt>
      <trkpt lat="49.29297" lon="-0.10053">
        <ele>6.8</ele>
        <time>2020-06-17T12:20:26Z</time>
      </trkpt>
      <trkpt lat="49.29293" lon="-0.10051">
        <ele>6.8</ele>
        <time>2020-06-17T12:20:27Z</time>
      </trkpt>
      <trkpt lat="49.2929" lon="-0.1005">
        <ele>6.8</ele>
        <time>2020-06-17T12:20:28Z</time>
      </trkpt>
      <trkpt lat="49.29286" lon="-0.10048">
        <ele>6.7</ele>
        <time>2020-06-17T12:20:29Z</time>
      </trkpt>
      <trkpt lat="49.29282" lon="-0.10046">
        <ele>6.7</ele>
        <time>2020-06-17T12:20:30Z</time>
      </trkpt>
      <trkpt lat="49.29277" lon="-0.10046">
        <ele>6.6</ele>
        <time>2020-06-17T12:20:31Z</time>
      </trkpt>
      <trkpt lat="49.29273" lon="-0.10044">
        <ele>6.5</ele>
        <time>2020-06-17T12:20:32Z</time>
      </trkpt>
      <trkpt lat="49.2927" lon="-0.10042">
        <ele>6.4</ele>
        <time>2020-06-17T12:20:33Z</time>
      </trkpt>
      <trkpt lat="49.29267" lon="-0.10039">
        <ele>6.3</ele>
        <time>2020-06-17T12:20:34Z</time>
      </trkpt>
      <trkpt lat="49.29263" lon="-0.10037">
        <ele>6.2</ele>
        <time>2020-06-17T12:20:35Z</time>
      </trkpt>
      <trkpt lat="49.29259" lon="-0.10034">
        <ele>6.1</ele>
        <time>2020-06-17T12:20:36Z</time>
      </trkpt>
      <trkpt lat="49.29255" lon="-0.10032">
        <ele>5.9</ele>
        <time>2020-06-17T12:20:37Z</time>
      </trkpt>
      <trkpt lat="49.2925" lon="-0.1003">
        <ele>5.7</ele>
        <time>2020-06-17T12:20:38Z</time>
      </trkpt>
      <trkpt lat="49.29246" lon="-0.1003">
        <ele>5.6</ele>
        <time>2020-06-17T12:20:39Z</time>
      </trkpt>
      <trkpt lat="49.2924" lon="-0.10029">
        <ele>5.4</ele>
        <time>2020-06-17T12:20:40Z</time>
      </trkpt>
      <trkpt lat="49.29236" lon="-0.10028">
        <ele>5.2</ele>
        <time>2020-06-17T12:20:41Z</time>
      </trkpt>
      <trkpt lat="49.29232" lon="-0.10028">
        <ele>5</ele>
        <time>2020-06-17T12:20:42Z</time>
      </trkpt>
      <trkpt lat="49.29226" lon="-0.10028">
        <ele>4.8</ele>
        <time>2020-06-17T12:20:43Z</time>
      </trkpt>
      <trkpt lat="49.29221" lon="-0.10029">
        <ele>4.6</ele>
        <time>2020-06-17T12:20:44Z</time>
      </trkpt>
      <trkpt lat="49.29215" lon="-0.10029">
        <ele>4.5</ele>
        <time>2020-06-17T12:20:45Z</time>
      </trkpt>
      <trkpt lat="49.29211" lon="-0.10028">
        <ele>4.4</ele>
        <time>2020-06-17T12:20:46Z</time>
      </trkpt>
      <trkpt lat="49.29207" lon="-0.10026">
        <ele>4.3</ele>
        <time>2020-06-17T12:20:47Z</time>
      </trkpt>
      <trkpt lat="49.29203" lon="-0.10023">
        <ele>4.3</ele>
        <time>2020-06-17T12:20:48Z</time>
      </trkpt>
      <trkpt lat="49.29199" lon="-0.10021">
        <ele>4.2</ele>
        <time>2020-06-17T12:20:49Z</time>
      </trkpt>
      <trkpt lat="49.29194" lon="-0.10019">
        <ele>4.2</ele>
        <time>2020-06-17T12:20:50Z</time>
      </trkpt>
      <trkpt lat="49.29189" lon="-0.10018">
        <ele>4.2</ele>
        <time>2020-06-17T12:20:51Z</time>
      </trkpt>
      <trkpt lat="49.29185" lon="-0.10016">
        <ele>4.1</ele>
        <time>2020-06-17T12:20:52Z</time>
      </trkpt>
      <trkpt lat="49.29181" lon="-0.10014">
        <ele>4.1</ele>
        <time>2020-06-17T12:20:53Z</time>
      </trkpt>
      <trkpt lat="49.29177" lon="-0.10013">
        <ele>4.1</ele>
        <time>2020-06-17T12:20:54Z</time>
      </trkpt>
      <trkpt lat="49.29174" lon="-0.10013">
        <ele>4.1</ele>
        <time>2020-06-17T12:20:55Z</time>
      </trkpt>
      <trkpt lat="49.29171" lon="-0.10014">
        <ele>4</ele>
        <time>2020-06-17T12:20:56Z</time>
      </trkpt>
      <trkpt lat="49.29168" lon="-0.10016">
        <ele>4</ele>
        <time>2020-06-17T12:20:57Z</time>
      </trkpt>
      <trkpt lat="49.29165" lon="-0.10018">
        <ele>4</ele>
        <time>2020-06-17T12:20:58Z</time>
      </trkpt>
      <trkpt lat="49.29162" lon="-0.10018">
        <ele>4</ele>
        <time>2020-06-17T12:20:59Z</time>
      </trkpt>
      <trkpt lat="49.29159" lon="-0.10017">
        <ele>4</ele>
        <time>2020-06-17T12:21:00Z</time>
      </trkpt>
      <trkpt lat="49.29158" lon="-0.10016">
        <ele>4</ele>
        <time>2020-06-17T12:21:01Z</time>
      </trkpt>
      <trkpt lat="49.29157" lon="-0.10016">
        <ele>4</ele>
        <time>2020-06-17T12:21:02Z</time>
      </trkpt>
      <trkpt lat="49.29156" lon="-0.10016">
        <ele>4</ele>
        <time>2020-06-17T12:21:03Z</time>
      </trkpt>
      <trkpt lat="49.29155" lon="-0.10017">
        <ele>4</ele>
        <time>2020-06-17T12:21:04Z</time>
      </trkpt>
      <trkpt lat="49.29153" lon="-0.10018">
        <ele>4</ele>
        <time>2020-06-17T12:21:05Z</time>
      </trkpt>
      <trkpt lat="49.29152" lon="-0.10017">
        <ele>4</ele>
        <time>2020-06-17T12:21:06Z</time>
      </trkpt>
      <trkpt lat="49.29152" lon="-0.10017">
        <ele>4</ele>
        <time>2020-06-17T12:21:07Z</time>
      </trkpt>
      <trkpt lat="49.29151" lon="-0.10017">
        <ele>4</ele>
        <time>2020-06-17T12:21:08Z</time>
      </trkpt>
      <trkpt lat="49.29151" lon="-0.10016">
        <ele>4</ele>
        <time>2020-06-17T12:21:09Z</time>
      </trkpt>
      <trkpt lat="49.29152" lon="-0.10015">
        <ele>4</ele>
        <time>2020-06-17T12:21:10Z</time>
      </trkpt>
      <trkpt lat="49.29153" lon="-0.10014">
        <ele>4</ele>
        <time>2020-06-17T12:21:11Z</time>
      </trkpt>
      <trkpt lat="49.29154" lon="-0.10013">
        <ele>4</ele>
        <time>2020-06-17T12:21:12Z</time>
      </trkpt>
      <trkpt lat="49.29156" lon="-0.10009">
        <ele>4</ele>
        <time>2020-06-17T12:21:13Z</time>
      </trkpt>
      <trkpt lat="49.29159" lon="-0.10004">
        <ele>4</ele>
        <time>2020-06-17T12:21:14Z</time>
      </trkpt>
      <trkpt lat="49.29162" lon="-0.09999">
        <ele>4</ele>
        <time>2020-06-17T12:21:15Z</time>
      </trkpt>
      <trkpt lat="49.29164" lon="-0.09994">
        <ele>4</ele>
        <time>2020-06-17T12:21:16Z</time>
      </trkpt>
      <trkpt lat="49.29167" lon="-0.0999">
        <ele>4</ele>
        <time>2020-06-17T12:21:17Z</time>
      </trkpt>
      <trkpt lat="49.2917" lon="-0.09984">
        <ele>4</ele>
        <time>2020-06-17T12:21:18Z</time>
      </trkpt>
      <trkpt lat="49.29173" lon="-0.09979">
        <ele>4</ele>
        <time>2020-06-17T12:21:19Z</time>
      </trkpt>
      <trkpt lat="49.29176" lon="-0.09974">
        <ele>4</ele>
        <time>2020-06-17T12:21:20Z</time>
      </trkpt>
      <trkpt lat="49.29179" lon="-0.09969">
        <ele>4</ele>
        <time>2020-06-17T12:21:21Z</time>
      </trkpt>
      <trkpt lat="49.29183" lon="-0.09965">
        <ele>4</ele>
        <time>2020-06-17T12:21:22Z</time>
      </trkpt>
      <trkpt lat="49.29186" lon="-0.09961">
        <ele>4</ele>
        <time>2020-06-17T12:21:23Z</time>
      </trkpt>
      <trkpt lat="49.29189" lon="-0.09955">
        <ele>4</ele>
        <time>2020-06-17T12:21:24Z</time>
      </trkpt>
      <trkpt lat="49.29191" lon="-0.09949">
        <ele>4</ele>
        <time>2020-06-17T12:21:25Z</time>
      </trkpt>
      <trkpt lat="49.29195" lon="-0.09944">
        <ele>4</ele>
        <time>2020-06-17T12:21:26Z</time>
      </trkpt>
      <trkpt lat="49.29198" lon="-0.09939">
        <ele>4.1</ele>
        <time>2020-06-17T12:21:27Z</time>
      </trkpt>
      <trkpt lat="49.292" lon="-0.09934">
        <ele>4.1</ele>
        <time>2020-06-17T12:21:28Z</time>
      </trkpt>
      <trkpt lat="49.29204" lon="-0.09927">
        <ele>4.1</ele>
        <time>2020-06-17T12:21:29Z</time>
      </trkpt>
      <trkpt lat="49.29207" lon="-0.09921">
        <ele>4.1</ele>
        <time>2020-06-17T12:21:30Z</time>
      </trkpt>
      <trkpt lat="49.2921" lon="-0.09915">
        <ele>4.1</ele>
        <time>2020-06-17T12:21:31Z</time>
      </trkpt>
      <trkpt lat="49.29212" lon="-0.09909">
        <ele>4.2</ele>
        <time>2020-06-17T12:21:32Z</time>
      </trkpt>
      <trkpt lat="49.29215" lon="-0.09904">
        <ele>4.2</ele>
        <time>2020-06-17T12:21:33Z</time>
      </trkpt>
      <trkpt lat="49.29218" lon="-0.09899">
        <ele>4.2</ele>
        <time>2020-06-17T12:21:34Z</time>
      </trkpt>
      <trkpt lat="49.29222" lon="-0.09894">
        <ele>4.2</ele>
        <time>2020-06-17T12:21:35Z</time>
      </trkpt>
      <trkpt lat="49.29224" lon="-0.09889">
        <ele>4.2</ele>
        <time>2020-06-17T12:21:36Z</time>
      </trkpt>
      <trkpt lat="49.29226" lon="-0.09883">
        <ele>4.2</ele>
        <time>2020-06-17T12:21:37Z</time>
      </trkpt>
      <trkpt lat="49.29228" lon="-0.09877">
        <ele>4.2</ele>
        <time>2020-06-17T12:21:38Z</time>
      </trkpt>
      <trkpt lat="49.29231" lon="-0.09872">
        <ele>4.2</ele>
        <time>2020-06-17T12:21:39Z</time>
      </trkpt>
      <trkpt lat="49.29234" lon="-0.09866">
        <ele>4.2</ele>
        <time>2020-06-17T12:21:40Z</time>
      </trkpt>
      <trkpt lat="49.29237" lon="-0.0986">
        <ele>4.2</ele>
        <time>2020-06-17T12:21:41Z</time>
      </trkpt>
      <trkpt lat="49.29239" lon="-0.09854">
        <ele>4.2</ele>
        <time>2020-06-17T12:21:42Z</time>
      </trkpt>
      <trkpt lat="49.29242" lon="-0.09847">
        <ele>4.2</ele>
        <time>2020-06-17T12:21:43Z</time>
      </trkpt>
      <trkpt lat="49.29245" lon="-0.0984">
        <ele>4.2</ele>
        <time>2020-06-17T12:21:44Z</time>
      </trkpt>
      <trkpt lat="49.29248" lon="-0.09834">
        <ele>4.2</ele>
        <time>2020-06-17T12:21:45Z</time>
      </trkpt>
      <trkpt lat="49.2925" lon="-0.09827">
        <ele>4.2</ele>
        <time>2020-06-17T12:21:46Z</time>
      </trkpt>
      <trkpt lat="49.29252" lon="-0.09821">
        <ele>4.2</ele>
        <time>2020-06-17T12:21:47Z</time>
      </trkpt>
      <trkpt lat="49.29254" lon="-0.09814">
        <ele>4.1</ele>
        <time>2020-06-17T12:21:48Z</time>
      </trkpt>
      <trkpt lat="49.29256" lon="-0.09807">
        <ele>4.1</ele>
        <time>2020-06-17T12:21:49Z</time>
      </trkpt>
      <trkpt lat="49.29257" lon="-0.098">
        <ele>4.1</ele>
        <time>2020-06-17T12:21:50Z</time>
      </trkpt>
      <trkpt lat="49.29259" lon="-0.09793">
        <ele>4.1</ele>
        <time>2020-06-17T12:21:51Z</time>
      </trkpt>
      <trkpt lat="49.29261" lon="-0.09787">
        <ele>4.1</ele>
        <time>2020-06-17T12:21:52Z</time>
      </trkpt>
      <trkpt lat="49.29262" lon="-0.09781">
        <ele>4.1</ele>
        <time>2020-06-17T12:21:53Z</time>
      </trkpt>
      <trkpt lat="49.29264" lon="-0.09774">
        <ele>4.2</ele>
        <time>2020-06-17T12:21:54Z</time>
      </trkpt>
      <trkpt lat="49.29266" lon="-0.09767">
        <ele>4.2</ele>
        <time>2020-06-17T12:21:55Z</time>
      </trkpt>
      <trkpt lat="49.29268" lon="-0.0976">
        <ele>4.3</ele>
        <time>2020-06-17T12:21:56Z</time>
      </trkpt>
      <trkpt lat="49.2927" lon="-0.09754">
        <ele>4.3</ele>
        <time>2020-06-17T12:21:57Z</time>
      </trkpt>
      <trkpt lat="49.29272" lon="-0.09747">
        <ele>4.3</ele>
        <time>2020-06-17T12:21:58Z</time>
      </trkpt>
      <trkpt lat="49.29274" lon="-0.09741">
        <ele>4.3</ele>
        <time>2020-06-17T12:21:59Z</time>
      </trkpt>
      <trkpt lat="49.29276" lon="-0.09734">
        <ele>4.3</ele>
        <time>2020-06-17T12:22:00Z</time>
      </trkpt>
      <trkpt lat="49.29278" lon="-0.09728">
        <ele>4.3</ele>
        <time>2020-06-17T12:22:01Z</time>
      </trkpt>
      <trkpt lat="49.2928" lon="-0.09721">
        <ele>4.3</ele>
        <time>2020-06-17T12:22:02Z</time>
      </trkpt>
      <trkpt lat="49.29283" lon="-0.09712">
        <ele>4.2</ele>
        <time>2020-06-17T12:22:03Z</time>
      </trkpt>
      <trkpt lat="49.29285" lon="-0.09704">
        <ele>4.2</ele>
        <time>2020-06-17T12:22:04Z</time>
      </trkpt>
      <trkpt lat="49.29287" lon="-0.09696">
        <ele>4.2</ele>
        <time>2020-06-17T12:22:05Z</time>
      </trkpt>
      <trkpt lat="49.2929" lon="-0.09687">
        <ele>4.2</ele>
        <time>2020-06-17T12:22:06Z</time>
      </trkpt>
      <trkpt lat="49.29292" lon="-0.0968">
        <ele>4.2</ele>
        <time>2020-06-17T12:22:07Z</time>
      </trkpt>
      <trkpt lat="49.29295" lon="-0.09672">
        <ele>4.2</ele>
        <time>2020-06-17T12:22:08Z</time>
      </trkpt>
      <trkpt lat="49.29297" lon="-0.09665">
        <ele>4.2</ele>
        <time>2020-06-17T12:22:09Z</time>
      </trkpt>
      <trkpt lat="49.29298" lon="-0.09657">
        <ele>4.2</ele>
        <time>2020-06-17T12:22:10Z</time>
      </trkpt>
      <trkpt lat="49.293" lon="-0.0965">
        <ele>4.2</ele>
        <time>2020-06-17T12:22:11Z</time>
      </trkpt>
      <trkpt lat="49.29302" lon="-0.09643">
        <ele>4.2</ele>
        <time>2020-06-17T12:22:12Z</time>
      </trkpt>
      <trkpt lat="49.29304" lon="-0.09636">
        <ele>4.2</ele>
        <time>2020-06-17T12:22:13Z</time>
      </trkpt>
      <trkpt lat="49.29306" lon="-0.09628">
        <ele>4.2</ele>
        <time>2020-06-17T12:22:14Z</time>
      </trkpt>
      <trkpt lat="49.29308" lon="-0.0962">
        <ele>4.2</ele>
        <time>2020-06-17T12:22:15Z</time>
      </trkpt>
      <trkpt lat="49.29311" lon="-0.09612">
        <ele>4.2</ele>
        <time>2020-06-17T12:22:16Z</time>
      </trkpt>
      <trkpt lat="49.29313" lon="-0.09604">
        <ele>4.2</ele>
        <time>2020-06-17T12:22:17Z</time>
      </trkpt>
      <trkpt lat="49.29316" lon="-0.09596">
        <ele>4.1</ele>
        <time>2020-06-17T12:22:18Z</time>
      </trkpt>
      <trkpt lat="49.29319" lon="-0.09588">
        <ele>4.1</ele>
        <time>2020-06-17T12:22:19Z</time>
      </trkpt>
      <trkpt lat="49.2932" lon="-0.09581">
        <ele>4.1</ele>
        <time>2020-06-17T12:22:20Z</time>
      </trkpt>
      <trkpt lat="49.29322" lon="-0.09574">
        <ele>4.1</ele>
        <time>2020-06-17T12:22:21Z</time>
      </trkpt>
      <trkpt lat="49.29324" lon="-0.09567">
        <ele>4.1</ele>
        <time>2020-06-17T12:22:22Z</time>
      </trkpt>
      <trkpt lat="49.29326" lon="-0.0956">
        <ele>4.1</ele>
        <time>2020-06-17T12:22:23Z</time>
      </trkpt>
      <trkpt lat="49.29328" lon="-0.09552">
        <ele>4</ele>
        <time>2020-06-17T12:22:24Z</time>
      </trkpt>
      <trkpt lat="49.2933" lon="-0.09545">
        <ele>4</ele>
        <time>2020-06-17T12:22:25Z</time>
      </trkpt>
      <trkpt lat="49.29332" lon="-0.09538">
        <ele>4</ele>
        <time>2020-06-17T12:22:26Z</time>
      </trkpt>
      <trkpt lat="49.29334" lon="-0.0953">
        <ele>4.1</ele>
        <time>2020-06-17T12:22:27Z</time>
      </trkpt>
      <trkpt lat="49.29336" lon="-0.09523">
        <ele>4.1</ele>
        <time>2020-06-17T12:22:28Z</time>
      </trkpt>
      <trkpt lat="49.29337" lon="-0.09516">
        <ele>4.1</ele>
        <time>2020-06-17T12:22:29Z</time>
      </trkpt>
      <trkpt lat="49.29339" lon="-0.09509">
        <ele>4.2</ele>
        <time>2020-06-17T12:22:30Z</time>
      </trkpt>
      <trkpt lat="49.29341" lon="-0.09502">
        <ele>4.2</ele>
        <time>2020-06-17T12:22:31Z</time>
      </trkpt>
      <trkpt lat="49.29343" lon="-0.09495">
        <ele>4.1</ele>
        <time>2020-06-17T12:22:32Z</time>
      </trkpt>
      <trkpt lat="49.29345" lon="-0.09489">
        <ele>4.1</ele>
        <time>2020-06-17T12:22:33Z</time>
      </trkpt>
      <trkpt lat="49.29346" lon="-0.09482">
        <ele>4.1</ele>
        <time>2020-06-17T12:22:34Z</time>
      </trkpt>
      <trkpt lat="49.29348" lon="-0.09475">
        <ele>4.1</ele>
        <time>2020-06-17T12:22:35Z</time>
      </trkpt>
      <trkpt lat="49.2935" lon="-0.09468">
        <ele>4.1</ele>
        <time>2020-06-17T12:22:36Z</time>
      </trkpt>
      <trkpt lat="49.29353" lon="-0.0946">
        <ele>4.1</ele>
        <time>2020-06-17T12:22:37Z</time>
      </trkpt>
      <trkpt lat="49.29355" lon="-0.09453">
        <ele>4.1</ele>
        <time>2020-06-17T12:22:38Z</time>
      </trkpt>
      <trkpt lat="49.29357" lon="-0.09445">
        <ele>4.1</ele>
        <time>2020-06-17T12:22:39Z</time>
      </trkpt>
      <trkpt lat="49.29359" lon="-0.09437">
        <ele>4.1</ele>
        <time>2020-06-17T12:22:40Z</time>
      </trkpt>
      <trkpt lat="49.29361" lon="-0.0943">
        <ele>4.1</ele>
        <time>2020-06-17T12:22:41Z</time>
      </trkpt>
      <trkpt lat="49.29363" lon="-0.09423">
        <ele>4.1</ele>
        <time>2020-06-17T12:22:42Z</time>
      </trkpt>
      <trkpt lat="49.29365" lon="-0.09416">
        <ele>4.1</ele>
        <time>2020-06-17T12:22:43Z</time>
      </trkpt>
      <trkpt lat="49.29367" lon="-0.09408">
        <ele>4.1</ele>
        <time>2020-06-17T12:22:44Z</time>
      </trkpt>
      <trkpt lat="49.29368" lon="-0.09401">
        <ele>4.1</ele>
        <time>2020-06-17T12:22:45Z</time>
      </trkpt>
      <trkpt lat="49.2937" lon="-0.09396">
        <ele>4.1</ele>
        <time>2020-06-17T12:22:46Z</time>
      </trkpt>
      <trkpt lat="49.29372" lon="-0.09389">
        <ele>4.1</ele>
        <time>2020-06-17T12:22:47Z</time>
      </trkpt>
      <trkpt lat="49.29374" lon="-0.09382">
        <ele>4.1</ele>
        <time>2020-06-17T12:22:48Z</time>
      </trkpt>
      <trkpt lat="49.29377" lon="-0.09375">
        <ele>4.1</ele>
        <time>2020-06-17T12:22:49Z</time>
      </trkpt>
      <trkpt lat="49.29378" lon="-0.09369">
        <ele>4.1</ele>
        <time>2020-06-17T12:22:50Z</time>
      </trkpt>
      <trkpt lat="49.2938" lon="-0.09362">
        <ele>4.1</ele>
        <time>2020-06-17T12:22:51Z</time>
      </trkpt>
      <trkpt lat="49.29383" lon="-0.09355">
        <ele>4.2</ele>
        <time>2020-06-17T12:22:52Z</time>
      </trkpt>
      <trkpt lat="49.29385" lon="-0.09348">
        <ele>4.2</ele>
        <time>2020-06-17T12:22:53Z</time>
      </trkpt>
      <trkpt lat="49.29387" lon="-0.09341">
        <ele>4.2</ele>
        <time>2020-06-17T12:22:54Z</time>
      </trkpt>
      <trkpt lat="49.29388" lon="-0.09335">
        <ele>4.2</ele>
        <time>2020-06-17T12:22:55Z</time>
      </trkpt>
      <trkpt lat="49.29389" lon="-0.09331">
        <ele>4.2</ele>
        <time>2020-06-17T12:22:56Z</time>
      </trkpt>
      <trkpt lat="49.29391" lon="-0.09326">
        <ele>4.2</ele>
        <time>2020-06-17T12:22:57Z</time>
      </trkpt>
      <trkpt lat="49.29392" lon="-0.09324">
        <ele>4.3</ele>
        <time>2020-06-17T12:22:58Z</time>
      </trkpt>
      <trkpt lat="49.29394" lon="-0.09319">
        <ele>4.2</ele>
        <time>2020-06-17T12:22:59Z</time>
      </trkpt>
      <trkpt lat="49.29395" lon="-0.09318">
        <ele>4.2</ele>
        <time>2020-06-17T12:23:00Z</time>
      </trkpt>
      <trkpt lat="49.29398" lon="-0.09313">
        <ele>4.2</ele>
        <time>2020-06-17T12:23:01Z</time>
      </trkpt>
      <trkpt lat="49.29398" lon="-0.09312">
        <ele>4.2</ele>
        <time>2020-06-17T12:23:02Z</time>
      </trkpt>
      <trkpt lat="49.294" lon="-0.09308">
        <ele>4.2</ele>
        <time>2020-06-17T12:23:03Z</time>
      </trkpt>
      <trkpt lat="49.29402" lon="-0.09305">
        <ele>4.2</ele>
        <time>2020-06-17T12:23:04Z</time>
      </trkpt>
      <trkpt lat="49.29404" lon="-0.09301">
        <ele>4.2</ele>
        <time>2020-06-17T12:23:05Z</time>
      </trkpt>
      <trkpt lat="49.29406" lon="-0.09297">
        <ele>4.2</ele>
        <time>2020-06-17T12:23:06Z</time>
      </trkpt>
      <trkpt lat="49.29407" lon="-0.09295">
        <ele>4.2</ele>
        <time>2020-06-17T12:23:07Z</time>
      </trkpt>
      <trkpt lat="49.29408" lon="-0.09294">
        <ele>4.2</ele>
        <time>2020-06-17T12:23:08Z</time>
      </trkpt>
      <trkpt lat="49.2941" lon="-0.09293">
        <ele>4.2</ele>
        <time>2020-06-17T12:23:09Z</time>
      </trkpt>
      <trkpt lat="49.29413" lon="-0.09291">
        <ele>4.1</ele>
        <time>2020-06-17T12:23:10Z</time>
      </trkpt>
      <trkpt lat="49.29413" lon="-0.0929">
        <ele>4.1</ele>
        <time>2020-06-17T12:23:11Z</time>
      </trkpt>
      <trkpt lat="49.29414" lon="-0.0929">
        <ele>4.1</ele>
        <time>2020-06-17T12:23:12Z</time>
      </trkpt>
      <trkpt lat="49.29415" lon="-0.0929">
        <ele>4.1</ele>
        <time>2020-06-17T12:23:13Z</time>
      </trkpt>
      <trkpt lat="49.29416" lon="-0.0929">
        <ele>4.1</ele>
        <time>2020-06-17T12:23:14Z</time>
      </trkpt>
      <trkpt lat="49.29417" lon="-0.09288">
        <ele>4.1</ele>
        <time>2020-06-17T12:23:15Z</time>
      </trkpt>
      <trkpt lat="49.29419" lon="-0.09286">
        <ele>4.1</ele>
        <time>2020-06-17T12:23:16Z</time>
      </trkpt>
      <trkpt lat="49.2942" lon="-0.09282">
        <ele>4.1</ele>
        <time>2020-06-17T12:23:17Z</time>
      </trkpt>
      <trkpt lat="49.29421" lon="-0.09277">
        <ele>4.1</ele>
        <time>2020-06-17T12:23:18Z</time>
      </trkpt>
      <trkpt lat="49.29421" lon="-0.09275">
        <ele>4.1</ele>
        <time>2020-06-17T12:23:19Z</time>
      </trkpt>
      <trkpt lat="49.29421" lon="-0.09269">
        <ele>4.1</ele>
        <time>2020-06-17T12:23:20Z</time>
      </trkpt>
      <trkpt lat="49.29421" lon="-0.09267">
        <ele>4.1</ele>
        <time>2020-06-17T12:23:21Z</time>
      </trkpt>
      <trkpt lat="49.2942" lon="-0.09262">
        <ele>4.1</ele>
        <time>2020-06-17T12:23:22Z</time>
      </trkpt>
      <trkpt lat="49.29421" lon="-0.09258">
        <ele>4.1</ele>
        <time>2020-06-17T12:23:23Z</time>
      </trkpt>
      <trkpt lat="49.29421" lon="-0.09252">
        <ele>4.1</ele>
        <time>2020-06-17T12:23:24Z</time>
      </trkpt>
      <trkpt lat="49.29421" lon="-0.09246">
        <ele>4.2</ele>
        <time>2020-06-17T12:23:25Z</time>
      </trkpt>
      <trkpt lat="49.2942" lon="-0.09239">
        <ele>4.2</ele>
        <time>2020-06-17T12:23:26Z</time>
      </trkpt>
      <trkpt lat="49.2942" lon="-0.09233">
        <ele>4.2</ele>
        <time>2020-06-17T12:23:27Z</time>
      </trkpt>
      <trkpt lat="49.2942" lon="-0.09227">
        <ele>4.2</ele>
        <time>2020-06-17T12:23:28Z</time>
      </trkpt>
      <trkpt lat="49.29421" lon="-0.0922">
        <ele>4.2</ele>
        <time>2020-06-17T12:23:29Z</time>
      </trkpt>
      <trkpt lat="49.29423" lon="-0.09213">
        <ele>4.2</ele>
        <time>2020-06-17T12:23:30Z</time>
      </trkpt>
      <trkpt lat="49.29425" lon="-0.09206">
        <ele>4.1</ele>
        <time>2020-06-17T12:23:31Z</time>
      </trkpt>
      <trkpt lat="49.29426" lon="-0.092">
        <ele>4.1</ele>
        <time>2020-06-17T12:23:32Z</time>
      </trkpt>
      <trkpt lat="49.29428" lon="-0.09193">
        <ele>4.1</ele>
        <time>2020-06-17T12:23:33Z</time>
      </trkpt>
      <trkpt lat="49.2943" lon="-0.09185">
        <ele>4</ele>
        <time>2020-06-17T12:23:34Z</time>
      </trkpt>
      <trkpt lat="49.29432" lon="-0.09179">
        <ele>4</ele>
        <time>2020-06-17T12:23:35Z</time>
      </trkpt>
      <trkpt lat="49.29433" lon="-0.09173">
        <ele>4</ele>
        <time>2020-06-17T12:23:36Z</time>
      </trkpt>
      <trkpt lat="49.29434" lon="-0.09167">
        <ele>4</ele>
        <time>2020-06-17T12:23:37Z</time>
      </trkpt>
      <trkpt lat="49.29435" lon="-0.09161">
        <ele>4</ele>
        <time>2020-06-17T12:23:38Z</time>
      </trkpt>
      <trkpt lat="49.29437" lon="-0.09154">
        <ele>4</ele>
        <time>2020-06-17T12:23:39Z</time>
      </trkpt>
      <trkpt lat="49.29439" lon="-0.09147">
        <ele>4.1</ele>
        <time>2020-06-17T12:23:40Z</time>
      </trkpt>
      <trkpt lat="49.29441" lon="-0.0914">
        <ele>4.1</ele>
        <time>2020-06-17T12:23:41Z</time>
      </trkpt>
      <trkpt lat="49.29443" lon="-0.09135">
        <ele>4.2</ele>
        <time>2020-06-17T12:23:42Z</time>
      </trkpt>
      <trkpt lat="49.29446" lon="-0.09128">
        <ele>4.3</ele>
        <time>2020-06-17T12:23:43Z</time>
      </trkpt>
      <trkpt lat="49.29449" lon="-0.09121">
        <ele>4.4</ele>
        <time>2020-06-17T12:23:44Z</time>
      </trkpt>
      <trkpt lat="49.29451" lon="-0.09114">
        <ele>4.5</ele>
        <time>2020-06-17T12:23:45Z</time>
      </trkpt>
      <trkpt lat="49.29451" lon="-0.09105">
        <ele>4.7</ele>
        <time>2020-06-17T12:23:46Z</time>
      </trkpt>
      <trkpt lat="49.29451" lon="-0.09098">
        <ele>4.8</ele>
        <time>2020-06-17T12:23:47Z</time>
      </trkpt>
      <trkpt lat="49.29452" lon="-0.09091">
        <ele>4.9</ele>
        <time>2020-06-17T12:23:48Z</time>
      </trkpt>
      <trkpt lat="49.29453" lon="-0.09085">
        <ele>5</ele>
        <time>2020-06-17T12:23:49Z</time>
      </trkpt>
      <trkpt lat="49.29453" lon="-0.0908">
        <ele>5.1</ele>
        <time>2020-06-17T12:23:50Z</time>
      </trkpt>
      <trkpt lat="49.29454" lon="-0.09076">
        <ele>5.2</ele>
        <time>2020-06-17T12:23:51Z</time>
      </trkpt>
      <trkpt lat="49.29456" lon="-0.09072">
        <ele>5.3</ele>
        <time>2020-06-17T12:23:52Z</time>
      </trkpt>
      <trkpt lat="49.29458" lon="-0.09067">
        <ele>5.4</ele>
        <time>2020-06-17T12:23:53Z</time>
      </trkpt>
      <trkpt lat="49.29458" lon="-0.09066">
        <ele>5.5</ele>
        <time>2020-06-17T12:23:54Z</time>
      </trkpt>
      <trkpt lat="49.29459" lon="-0.09064">
        <ele>5.5</ele>
        <time>2020-06-17T12:23:55Z</time>
      </trkpt>
      <trkpt lat="49.29458" lon="-0.09061">
        <ele>5.5</ele>
        <time>2020-06-17T12:23:56Z</time>
      </trkpt>
      <trkpt lat="49.29455" lon="-0.09058">
        <ele>5.5</ele>
        <time>2020-06-17T12:23:57Z</time>
      </trkpt>
      <trkpt lat="49.29454" lon="-0.09057">
        <ele>5.5</ele>
        <time>2020-06-17T12:23:58Z</time>
      </trkpt>
      <trkpt lat="49.29452" lon="-0.09055">
        <ele>5.5</ele>
        <time>2020-06-17T12:23:59Z</time>
      </trkpt>
      <trkpt lat="49.29451" lon="-0.09054">
        <ele>5.5</ele>
        <time>2020-06-17T12:24:00Z</time>
      </trkpt>
      <trkpt lat="49.2945" lon="-0.09051">
        <ele>5.5</ele>
        <time>2020-06-17T12:24:01Z</time>
      </trkpt>
      <trkpt lat="49.29449" lon="-0.0905">
        <ele>5.5</ele>
        <time>2020-06-17T12:24:02Z</time>
      </trkpt>
      <trkpt lat="49.29447" lon="-0.0905">
        <ele>5.5</ele>
        <time>2020-06-17T12:24:03Z</time>
      </trkpt>
      <trkpt lat="49.29445" lon="-0.0905">
        <ele>5.5</ele>
        <time>2020-06-17T12:24:04Z</time>
      </trkpt>
      <trkpt lat="49.29442" lon="-0.09049">
        <ele>5.5</ele>
        <time>2020-06-17T12:24:05Z</time>
      </trkpt>
      <trkpt lat="49.29441" lon="-0.09049">
        <ele>5.2</ele>
        <time>2020-06-17T12:24:06Z</time>
      </trkpt>
      <trkpt lat="49.29438" lon="-0.09049">
        <ele>5.1</ele>
        <time>2020-06-17T12:24:07Z</time>
      </trkpt>
      <trkpt lat="49.29437" lon="-0.09048">
        <ele>5.1</ele>
        <time>2020-06-17T12:24:08Z</time>
      </trkpt>
      <trkpt lat="49.29435" lon="-0.09046">
        <ele>5.1</ele>
        <time>2020-06-17T12:24:09Z</time>
      </trkpt>
      <trkpt lat="49.29436" lon="-0.09043">
        <ele>5.1</ele>
        <time>2020-06-17T12:24:10Z</time>
      </trkpt>
      <trkpt lat="49.29437" lon="-0.09039">
        <ele>5</ele>
        <time>2020-06-17T12:24:11Z</time>
      </trkpt>
      <trkpt lat="49.29439" lon="-0.09036">
        <ele>5</ele>
        <time>2020-06-17T12:24:12Z</time>
      </trkpt>
      <trkpt lat="49.2944" lon="-0.09032">
        <ele>5</ele>
        <time>2020-06-17T12:24:13Z</time>
      </trkpt>
      <trkpt lat="49.29442" lon="-0.09028">
        <ele>4.9</ele>
        <time>2020-06-17T12:24:14Z</time>
      </trkpt>
      <trkpt lat="49.29443" lon="-0.09024">
        <ele>4.9</ele>
        <time>2020-06-17T12:24:15Z</time>
      </trkpt>
      <trkpt lat="49.29445" lon="-0.0902">
        <ele>4.9</ele>
        <time>2020-06-17T12:24:16Z</time>
      </trkpt>
      <trkpt lat="49.29447" lon="-0.09017">
        <ele>4.8</ele>
        <time>2020-06-17T12:24:17Z</time>
      </trkpt>
      <trkpt lat="49.29449" lon="-0.09014">
        <ele>4.9</ele>
        <time>2020-06-17T12:24:18Z</time>
      </trkpt>
      <trkpt lat="49.29452" lon="-0.0901">
        <ele>4.9</ele>
        <time>2020-06-17T12:24:19Z</time>
      </trkpt>
      <trkpt lat="49.29454" lon="-0.09006">
        <ele>5</ele>
        <time>2020-06-17T12:24:20Z</time>
      </trkpt>
      <trkpt lat="49.29456" lon="-0.09002">
        <ele>5</ele>
        <time>2020-06-17T12:24:21Z</time>
      </trkpt>
      <trkpt lat="49.29459" lon="-0.08998">
        <ele>5.1</ele>
        <time>2020-06-17T12:24:22Z</time>
      </trkpt>
      <trkpt lat="49.29461" lon="-0.08994">
        <ele>5.1</ele>
        <time>2020-06-17T12:24:23Z</time>
      </trkpt>
      <trkpt lat="49.29464" lon="-0.08989">
        <ele>5.1</ele>
        <time>2020-06-17T12:24:24Z</time>
      </trkpt>
      <trkpt lat="49.29467" lon="-0.08984">
        <ele>5.1</ele>
        <time>2020-06-17T12:24:25Z</time>
      </trkpt>
      <trkpt lat="49.2947" lon="-0.08978">
        <ele>5.1</ele>
        <time>2020-06-17T12:24:26Z</time>
      </trkpt>
      <trkpt lat="49.29473" lon="-0.08972">
        <ele>5.1</ele>
        <time>2020-06-17T12:24:27Z</time>
      </trkpt>
      <trkpt lat="49.29475" lon="-0.08965">
        <ele>5.1</ele>
        <time>2020-06-17T12:24:28Z</time>
      </trkpt>
      <trkpt lat="49.29476" lon="-0.08957">
        <ele>5.1</ele>
        <time>2020-06-17T12:24:29Z</time>
      </trkpt>
      <trkpt lat="49.29478" lon="-0.0895">
        <ele>5.1</ele>
        <time>2020-06-17T12:24:30Z</time>
      </trkpt>
      <trkpt lat="49.2948" lon="-0.08943">
        <ele>5.1</ele>
        <time>2020-06-17T12:24:31Z</time>
      </trkpt>
      <trkpt lat="49.29481" lon="-0.08937">
        <ele>5</ele>
        <time>2020-06-17T12:24:32Z</time>
      </trkpt>
      <trkpt lat="49.29483" lon="-0.08929">
        <ele>5</ele>
        <time>2020-06-17T12:24:33Z</time>
      </trkpt>
      <trkpt lat="49.29485" lon="-0.08922">
        <ele>5</ele>
        <time>2020-06-17T12:24:34Z</time>
      </trkpt>
      <trkpt lat="49.29486" lon="-0.08915">
        <ele>5</ele>
        <time>2020-06-17T12:24:35Z</time>
      </trkpt>
      <trkpt lat="49.29488" lon="-0.08909">
        <ele>4.9</ele>
        <time>2020-06-17T12:24:36Z</time>
      </trkpt>
      <trkpt lat="49.2949" lon="-0.08903">
        <ele>4.9</ele>
        <time>2020-06-17T12:24:37Z</time>
      </trkpt>
      <trkpt lat="49.29492" lon="-0.08897">
        <ele>4.9</ele>
        <time>2020-06-17T12:24:38Z</time>
      </trkpt>
      <trkpt lat="49.29495" lon="-0.0889">
        <ele>4.9</ele>
        <time>2020-06-17T12:24:39Z</time>
      </trkpt>
      <trkpt lat="49.29498" lon="-0.08883">
        <ele>4.8</ele>
        <time>2020-06-17T12:24:40Z</time>
      </trkpt>
      <trkpt lat="49.29502" lon="-0.08877">
        <ele>4.8</ele>
        <time>2020-06-17T12:24:41Z</time>
      </trkpt>
      <trkpt lat="49.29505" lon="-0.08871">
        <ele>4.8</ele>
        <time>2020-06-17T12:24:42Z</time>
      </trkpt>
      <trkpt lat="49.29509" lon="-0.08866">
        <ele>4.8</ele>
        <time>2020-06-17T12:24:43Z</time>
      </trkpt>
      <trkpt lat="49.29511" lon="-0.08861">
        <ele>4.8</ele>
        <time>2020-06-17T12:24:44Z</time>
      </trkpt>
      <trkpt lat="49.29514" lon="-0.08856">
        <ele>4.8</ele>
        <time>2020-06-17T12:24:45Z</time>
      </trkpt>
      <trkpt lat="49.29517" lon="-0.0885">
        <ele>4.9</ele>
        <time>2020-06-17T12:24:46Z</time>
      </trkpt>
      <trkpt lat="49.2952" lon="-0.08844">
        <ele>4.9</ele>
        <time>2020-06-17T12:24:47Z</time>
      </trkpt>
      <trkpt lat="49.29522" lon="-0.08839">
        <ele>4.9</ele>
        <time>2020-06-17T12:24:48Z</time>
      </trkpt>
      <trkpt lat="49.29525" lon="-0.08835">
        <ele>4.9</ele>
        <time>2020-06-17T12:24:49Z</time>
      </trkpt>
      <trkpt lat="49.29526" lon="-0.08832">
        <ele>4.9</ele>
        <time>2020-06-17T12:24:50Z</time>
      </trkpt>
      <trkpt lat="49.29529" lon="-0.08829">
        <ele>4.9</ele>
        <time>2020-06-17T12:24:51Z</time>
      </trkpt>
      <trkpt lat="49.29533" lon="-0.08828">
        <ele>4.9</ele>
        <time>2020-06-17T12:24:52Z</time>
      </trkpt>
      <trkpt lat="49.29536" lon="-0.08826">
        <ele>4.9</ele>
        <time>2020-06-17T12:24:53Z</time>
      </trkpt>
      <trkpt lat="49.29536" lon="-0.08824">
        <ele>4.8</ele>
        <time>2020-06-17T12:24:54Z</time>
      </trkpt>
      <trkpt lat="49.29536" lon="-0.08822">
        <ele>4.8</ele>
        <time>2020-06-17T12:24:55Z</time>
      </trkpt>
      <trkpt lat="49.29536" lon="-0.08821">
        <ele>4.8</ele>
        <time>2020-06-17T12:24:56Z</time>
      </trkpt>
      <trkpt lat="49.29537" lon="-0.08821">
        <ele>4.8</ele>
        <time>2020-06-17T12:24:57Z</time>
      </trkpt>
      <trkpt lat="49.29537" lon="-0.08819">
        <ele>4.8</ele>
        <time>2020-06-17T12:24:58Z</time>
      </trkpt>
      <trkpt lat="49.29538" lon="-0.08819">
        <ele>4.8</ele>
        <time>2020-06-17T12:24:59Z</time>
      </trkpt>
      <trkpt lat="49.2954" lon="-0.08818">
        <ele>4.8</ele>
        <time>2020-06-17T12:25:00Z</time>
      </trkpt>
      <trkpt lat="49.29541" lon="-0.08818">
        <ele>4.8</ele>
        <time>2020-06-17T12:25:01Z</time>
      </trkpt>
      <trkpt lat="49.29541" lon="-0.08817">
        <ele>4.8</ele>
        <time>2020-06-17T12:25:02Z</time>
      </trkpt>
      <trkpt lat="49.29541" lon="-0.08816">
        <ele>4.8</ele>
        <time>2020-06-17T12:25:03Z</time>
      </trkpt>
      <trkpt lat="49.29541" lon="-0.08816">
        <ele>4.8</ele>
        <time>2020-06-17T12:25:04Z</time>
      </trkpt>
      <trkpt lat="49.29542" lon="-0.08817">
        <ele>4.8</ele>
        <time>2020-06-17T12:25:05Z</time>
      </trkpt>
      <trkpt lat="49.2954" lon="-0.0882">
        <ele>4.8</ele>
        <time>2020-06-17T12:25:06Z</time>
      </trkpt>
      <trkpt lat="49.29539" lon="-0.08822">
        <ele>4.8</ele>
        <time>2020-06-17T12:25:07Z</time>
      </trkpt>
      <trkpt lat="49.29539" lon="-0.08823">
        <ele>4.8</ele>
        <time>2020-06-17T12:25:08Z</time>
      </trkpt>
      <trkpt lat="49.29539" lon="-0.08823">
        <ele>4.8</ele>
        <time>2020-06-17T12:25:09Z</time>
      </trkpt>
      <trkpt lat="49.29539" lon="-0.08823">
        <ele>4.8</ele>
        <time>2020-06-17T12:25:10Z</time>
      </trkpt>
      <trkpt lat="49.29538" lon="-0.08824">
        <ele>4.8</ele>
        <time>2020-06-17T12:25:11Z</time>
      </trkpt>
      <trkpt lat="49.29538" lon="-0.08824">
        <ele>4.8</ele>
        <time>2020-06-17T12:25:12Z</time>
      </trkpt>
      <trkpt lat="49.29539" lon="-0.08825">
        <ele>4.8</ele>
        <time>2020-06-17T12:25:13Z</time>
      </trkpt>
      <trkpt lat="49.29539" lon="-0.08826">
        <ele>4.8</ele>
        <time>2020-06-17T12:25:14Z</time>
      </trkpt>
      <trkpt lat="49.29539" lon="-0.08825">
        <ele>4.8</ele>
        <time>2020-06-17T12:25:15Z</time>
      </trkpt>
      <trkpt lat="49.29539" lon="-0.08825">
        <ele>4.8</ele>
        <time>2020-06-17T12:25:16Z</time>
      </trkpt>
      <trkpt lat="49.29539" lon="-0.08824">
        <ele>4.8</ele>
        <time>2020-06-17T12:25:17Z</time>
      </trkpt>
      <trkpt lat="49.29538" lon="-0.08825">
        <ele>4.8</ele>
        <time>2020-06-17T12:25:18Z</time>
      </trkpt>
      <trkpt lat="49.29538" lon="-0.08825">
        <ele>4.8</ele>
        <time>2020-06-17T12:25:19Z</time>
      </trkpt>
      <trkpt lat="49.29538" lon="-0.08825">
        <ele>4.8</ele>
        <time>2020-06-17T12:25:20Z</time>
      </trkpt>
      <trkpt lat="49.29538" lon="-0.08825">
        <ele>4.8</ele>
        <time>2020-06-17T12:25:21Z</time>
      </trkpt>
      <trkpt lat="49.29538" lon="-0.08825">
        <ele>4.8</ele>
        <time>2020-06-17T12:25:22Z</time>
      </trkpt>
      <trkpt lat="49.29538" lon="-0.08825">
        <ele>4.8</ele>
        <time>2020-06-17T12:25:23Z</time>
      </trkpt>
      <trkpt lat="49.29538" lon="-0.08825">
        <ele>4.8</ele>
        <time>2020-06-17T12:25:24Z</time>
      </trkpt>
      <trkpt lat="49.29538" lon="-0.08825">
        <ele>4.8</ele>
        <time>2020-06-17T12:25:25Z</time>
      </trkpt>
      <trkpt lat="49.29539" lon="-0.08821">
        <ele>4.8</ele>
        <time>2020-06-17T12:25:52Z</time>
      </trkpt>
      <trkpt lat="49.2954" lon="-0.08819">
        <ele>4.8</ele>
        <time>2020-06-17T12:25:53Z</time>
      </trkpt>
      <trkpt lat="49.2954" lon="-0.08819">
        <ele>4.8</ele>
        <time>2020-06-17T12:25:54Z</time>
      </trkpt>
      <trkpt lat="49.2954" lon="-0.08819">
        <ele>4.8</ele>
        <time>2020-06-17T12:25:55Z</time>
      </trkpt>
      <trkpt lat="49.2954" lon="-0.08818">
        <ele>4.8</ele>
        <time>2020-06-17T12:25:56Z</time>
      </trkpt>
      <trkpt lat="49.2954" lon="-0.08818">
        <ele>4.8</ele>
        <time>2020-06-17T12:25:57Z</time>
      </trkpt>
      <trkpt lat="49.2954" lon="-0.08818">
        <ele>4.8</ele>
        <time>2020-06-17T12:25:58Z</time>
      </trkpt>
      <trkpt lat="49.2954" lon="-0.08817">
        <ele>4.8</ele>
        <time>2020-06-17T12:25:59Z</time>
      </trkpt>
      <trkpt lat="49.2954" lon="-0.08817">
        <ele>4.8</ele>
        <time>2020-06-17T12:26:00Z</time>
      </trkpt>
      <trkpt lat="49.2954" lon="-0.08817">
        <ele>4.8</ele>
        <time>2020-06-17T12:26:01Z</time>
      </trkpt>
      <trkpt lat="49.29539" lon="-0.08817">
        <ele>4.8</ele>
        <time>2020-06-17T12:26:02Z</time>
      </trkpt>
      <trkpt lat="49.29539" lon="-0.08817">
        <ele>4.8</ele>
        <time>2020-06-17T12:26:03Z</time>
      </trkpt>
      <trkpt lat="49.29539" lon="-0.08817">
        <ele>4.8</ele>
        <time>2020-06-17T12:26:04Z</time>
      </trkpt>
      <trkpt lat="49.29539" lon="-0.08817">
        <ele>4.8</ele>
        <time>2020-06-17T12:26:05Z</time>
      </trkpt>
      <trkpt lat="49.29534" lon="-0.08813">
        <ele>4.8</ele>
        <time>2020-06-17T12:26:15Z</time>
      </trkpt>
      <trkpt lat="49.29534" lon="-0.08812">
        <ele>4.8</ele>
        <time>2020-06-17T12:26:16Z</time>
      </trkpt>
      <trkpt lat="49.29534" lon="-0.08811">
        <ele>4.8</ele>
        <time>2020-06-17T12:26:17Z</time>
      </trkpt>
      <trkpt lat="49.29534" lon="-0.0881">
        <ele>4.8</ele>
        <time>2020-06-17T12:26:18Z</time>
      </trkpt>
      <trkpt lat="49.29534" lon="-0.08809">
        <ele>4.8</ele>
        <time>2020-06-17T12:26:19Z</time>
      </trkpt>
      <trkpt lat="49.29535" lon="-0.08808">
        <ele>4.8</ele>
        <time>2020-06-17T12:26:20Z</time>
      </trkpt>
      <trkpt lat="49.29535" lon="-0.08806">
        <ele>4.8</ele>
        <time>2020-06-17T12:26:21Z</time>
      </trkpt>
      <trkpt lat="49.29535" lon="-0.08806">
        <ele>4.8</ele>
        <time>2020-06-17T12:26:22Z</time>
      </trkpt>
      <trkpt lat="49.29535" lon="-0.08805">
        <ele>4.8</ele>
        <time>2020-06-17T12:26:23Z</time>
      </trkpt>
      <trkpt lat="49.29536" lon="-0.08805">
        <ele>4.8</ele>
        <time>2020-06-17T12:26:24Z</time>
      </trkpt>
      <trkpt lat="49.29538" lon="-0.08804">
        <ele>4.8</ele>
        <time>2020-06-17T12:26:25Z</time>
      </trkpt>
      <trkpt lat="49.29541" lon="-0.088">
        <ele>4.8</ele>
        <time>2020-06-17T12:26:26Z</time>
      </trkpt>
      <trkpt lat="49.29542" lon="-0.08799">
        <ele>4.8</ele>
        <time>2020-06-17T12:26:27Z</time>
      </trkpt>
      <trkpt lat="49.29544" lon="-0.08795">
        <ele>4.9</ele>
        <time>2020-06-17T12:26:28Z</time>
      </trkpt>
      <trkpt lat="49.29547" lon="-0.08791">
        <ele>4.9</ele>
        <time>2020-06-17T12:26:29Z</time>
      </trkpt>
      <trkpt lat="49.2955" lon="-0.08788">
        <ele>4.9</ele>
        <time>2020-06-17T12:26:30Z</time>
      </trkpt>
      <trkpt lat="49.29553" lon="-0.08784">
        <ele>4.9</ele>
        <time>2020-06-17T12:26:31Z</time>
      </trkpt>
      <trkpt lat="49.29557" lon="-0.08781">
        <ele>4.9</ele>
        <time>2020-06-17T12:26:32Z</time>
      </trkpt>
      <trkpt lat="49.2956" lon="-0.08778">
        <ele>4.9</ele>
        <time>2020-06-17T12:26:33Z</time>
      </trkpt>
      <trkpt lat="49.29564" lon="-0.08774">
        <ele>4.9</ele>
        <time>2020-06-17T12:26:34Z</time>
      </trkpt>
      <trkpt lat="49.29568" lon="-0.08769">
        <ele>4.9</ele>
        <time>2020-06-17T12:26:35Z</time>
      </trkpt>
      <trkpt lat="49.29572" lon="-0.08764">
        <ele>4.9</ele>
        <time>2020-06-17T12:26:36Z</time>
      </trkpt>
      <trkpt lat="49.29576" lon="-0.0876">
        <ele>4.9</ele>
        <time>2020-06-17T12:26:37Z</time>
      </trkpt>
      <trkpt lat="49.29581" lon="-0.08754">
        <ele>4.9</ele>
        <time>2020-06-17T12:26:38Z</time>
      </trkpt>
      <trkpt lat="49.29586" lon="-0.08749">
        <ele>5</ele>
        <time>2020-06-17T12:26:39Z</time>
      </trkpt>
      <trkpt lat="49.2959" lon="-0.08746">
        <ele>5</ele>
        <time>2020-06-17T12:26:40Z</time>
      </trkpt>
      <trkpt lat="49.29595" lon="-0.08743">
        <ele>5</ele>
        <time>2020-06-17T12:26:41Z</time>
      </trkpt>
      <trkpt lat="49.29599" lon="-0.08739">
        <ele>5</ele>
        <time>2020-06-17T12:26:42Z</time>
      </trkpt>
      <trkpt lat="49.29603" lon="-0.08736">
        <ele>5</ele>
        <time>2020-06-17T12:26:43Z</time>
      </trkpt>
      <trkpt lat="49.29608" lon="-0.08732">
        <ele>4.9</ele>
        <time>2020-06-17T12:26:44Z</time>
      </trkpt>
      <trkpt lat="49.29613" lon="-0.08728">
        <ele>4.9</ele>
        <time>2020-06-17T12:26:45Z</time>
      </trkpt>
      <trkpt lat="49.29618" lon="-0.08725">
        <ele>4.9</ele>
        <time>2020-06-17T12:26:46Z</time>
      </trkpt>
      <trkpt lat="49.29624" lon="-0.08721">
        <ele>4.9</ele>
        <time>2020-06-17T12:26:47Z</time>
      </trkpt>
      <trkpt lat="49.29629" lon="-0.08718">
        <ele>4.8</ele>
        <time>2020-06-17T12:26:48Z</time>
      </trkpt>
      <trkpt lat="49.29633" lon="-0.08715">
        <ele>4.8</ele>
        <time>2020-06-17T12:26:49Z</time>
      </trkpt>
      <trkpt lat="49.29638" lon="-0.08712">
        <ele>4.8</ele>
        <time>2020-06-17T12:26:50Z</time>
      </trkpt>
      <trkpt lat="49.29643" lon="-0.08708">
        <ele>4.8</ele>
        <time>2020-06-17T12:26:51Z</time>
      </trkpt>
      <trkpt lat="49.29648" lon="-0.08704">
        <ele>4.8</ele>
        <time>2020-06-17T12:26:52Z</time>
      </trkpt>
      <trkpt lat="49.29653" lon="-0.08701">
        <ele>4.8</ele>
        <time>2020-06-17T12:26:53Z</time>
      </trkpt>
      <trkpt lat="49.29658" lon="-0.08697">
        <ele>4.8</ele>
        <time>2020-06-17T12:26:54Z</time>
      </trkpt>
      <trkpt lat="49.29663" lon="-0.08693">
        <ele>4.8</ele>
        <time>2020-06-17T12:26:55Z</time>
      </trkpt>
      <trkpt lat="49.29667" lon="-0.08689">
        <ele>4.8</ele>
        <time>2020-06-17T12:26:56Z</time>
      </trkpt>
      <trkpt lat="49.29672" lon="-0.08684">
        <ele>4.7</ele>
        <time>2020-06-17T12:26:57Z</time>
      </trkpt>
      <trkpt lat="49.29676" lon="-0.08679">
        <ele>4.7</ele>
        <time>2020-06-17T12:26:58Z</time>
      </trkpt>
      <trkpt lat="49.2968" lon="-0.08675">
        <ele>4.7</ele>
        <time>2020-06-17T12:26:59Z</time>
      </trkpt>
      <trkpt lat="49.29683" lon="-0.08671">
        <ele>4.7</ele>
        <time>2020-06-17T12:27:00Z</time>
      </trkpt>
      <trkpt lat="49.29687" lon="-0.08667">
        <ele>4.8</ele>
        <time>2020-06-17T12:27:01Z</time>
      </trkpt>
      <trkpt lat="49.29692" lon="-0.08663">
        <ele>4.8</ele>
        <time>2020-06-17T12:27:02Z</time>
      </trkpt>
      <trkpt lat="49.29696" lon="-0.08658">
        <ele>4.8</ele>
        <time>2020-06-17T12:27:03Z</time>
      </trkpt>
      <trkpt lat="49.29701" lon="-0.08655">
        <ele>4.8</ele>
        <time>2020-06-17T12:27:04Z</time>
      </trkpt>
      <trkpt lat="49.29705" lon="-0.08651">
        <ele>4.8</ele>
        <time>2020-06-17T12:27:05Z</time>
      </trkpt>
      <trkpt lat="49.2971" lon="-0.08646">
        <ele>4.9</ele>
        <time>2020-06-17T12:27:06Z</time>
      </trkpt>
      <trkpt lat="49.29714" lon="-0.08642">
        <ele>4.9</ele>
        <time>2020-06-17T12:27:07Z</time>
      </trkpt>
      <trkpt lat="49.29719" lon="-0.08638">
        <ele>4.9</ele>
        <time>2020-06-17T12:27:08Z</time>
      </trkpt>
      <trkpt lat="49.29723" lon="-0.08634">
        <ele>4.9</ele>
        <time>2020-06-17T12:27:09Z</time>
      </trkpt>
      <trkpt lat="49.29728" lon="-0.08629">
        <ele>4.9</ele>
        <time>2020-06-17T12:27:10Z</time>
      </trkpt>
      <trkpt lat="49.29732" lon="-0.08625">
        <ele>5</ele>
        <time>2020-06-17T12:27:11Z</time>
      </trkpt>
      <trkpt lat="49.29736" lon="-0.0862">
        <ele>5</ele>
        <time>2020-06-17T12:27:12Z</time>
      </trkpt>
      <trkpt lat="49.2974" lon="-0.08616">
        <ele>5</ele>
        <time>2020-06-17T12:27:13Z</time>
      </trkpt>
      <trkpt lat="49.29744" lon="-0.08612">
        <ele>5</ele>
        <time>2020-06-17T12:27:14Z</time>
      </trkpt>
      <trkpt lat="49.29748" lon="-0.08608">
        <ele>5</ele>
        <time>2020-06-17T12:27:15Z</time>
      </trkpt>
      <trkpt lat="49.29752" lon="-0.08604">
        <ele>5</ele>
        <time>2020-06-17T12:27:16Z</time>
      </trkpt>
      <trkpt lat="49.29756" lon="-0.08599">
        <ele>5.1</ele>
        <time>2020-06-17T12:27:17Z</time>
      </trkpt>
      <trkpt lat="49.2976" lon="-0.08595">
        <ele>5.1</ele>
        <time>2020-06-17T12:27:18Z</time>
      </trkpt>
      <trkpt lat="49.29763" lon="-0.08591">
        <ele>5.1</ele>
        <time>2020-06-17T12:27:19Z</time>
      </trkpt>
      <trkpt lat="49.29767" lon="-0.08587">
        <ele>5.1</ele>
        <time>2020-06-17T12:27:20Z</time>
      </trkpt>
      <trkpt lat="49.29771" lon="-0.08583">
        <ele>5.2</ele>
        <time>2020-06-17T12:27:21Z</time>
      </trkpt>
      <trkpt lat="49.29775" lon="-0.08579">
        <ele>5.2</ele>
        <time>2020-06-17T12:27:22Z</time>
      </trkpt>
      <trkpt lat="49.2978" lon="-0.08575">
        <ele>5.3</ele>
        <time>2020-06-17T12:27:23Z</time>
      </trkpt>
      <trkpt lat="49.29785" lon="-0.08572">
        <ele>5.3</ele>
        <time>2020-06-17T12:27:24Z</time>
      </trkpt>
      <trkpt lat="49.2979" lon="-0.08568">
        <ele>5.3</ele>
        <time>2020-06-17T12:27:25Z</time>
      </trkpt>
      <trkpt lat="49.29796" lon="-0.08565">
        <ele>5.3</ele>
        <time>2020-06-17T12:27:26Z</time>
      </trkpt>
      <trkpt lat="49.29802" lon="-0.08561">
        <ele>5.4</ele>
        <time>2020-06-17T12:27:27Z</time>
      </trkpt>
      <trkpt lat="49.29807" lon="-0.08556">
        <ele>5.4</ele>
        <time>2020-06-17T12:27:28Z</time>
      </trkpt>
      <trkpt lat="49.29811" lon="-0.08551">
        <ele>5.4</ele>
        <time>2020-06-17T12:27:29Z</time>
      </trkpt>
      <trkpt lat="49.29816" lon="-0.08546">
        <ele>5.4</ele>
        <time>2020-06-17T12:27:30Z</time>
      </trkpt>
      <trkpt lat="49.29823" lon="-0.08541">
        <ele>5.4</ele>
        <time>2020-06-17T12:27:31Z</time>
      </trkpt>
      <trkpt lat="49.29827" lon="-0.08536">
        <ele>5.3</ele>
        <time>2020-06-17T12:27:32Z</time>
      </trkpt>
      <trkpt lat="49.29831" lon="-0.08532">
        <ele>5.3</ele>
        <time>2020-06-17T12:27:33Z</time>
      </trkpt>
      <trkpt lat="49.29836" lon="-0.08527">
        <ele>5.3</ele>
        <time>2020-06-17T12:27:34Z</time>
      </trkpt>
      <trkpt lat="49.29841" lon="-0.08522">
        <ele>5.3</ele>
        <time>2020-06-17T12:27:35Z</time>
      </trkpt>
      <trkpt lat="49.29846" lon="-0.08517">
        <ele>5.4</ele>
        <time>2020-06-17T12:27:36Z</time>
      </trkpt>
      <trkpt lat="49.29851" lon="-0.08511">
        <ele>5.4</ele>
        <time>2020-06-17T12:27:37Z</time>
      </trkpt>
      <trkpt lat="49.29855" lon="-0.08506">
        <ele>5.4</ele>
        <time>2020-06-17T12:27:38Z</time>
      </trkpt>
      <trkpt lat="49.29859" lon="-0.08501">
        <ele>5.5</ele>
        <time>2020-06-17T12:27:39Z</time>
      </trkpt>
      <trkpt lat="49.29864" lon="-0.08496">
        <ele>5.5</ele>
        <time>2020-06-17T12:27:40Z</time>
      </trkpt>
      <trkpt lat="49.29869" lon="-0.08492">
        <ele>5.5</ele>
        <time>2020-06-17T12:27:41Z</time>
      </trkpt>
      <trkpt lat="49.29873" lon="-0.08487">
        <ele>5.5</ele>
        <time>2020-06-17T12:27:42Z</time>
      </trkpt>
      <trkpt lat="49.29878" lon="-0.08484">
        <ele>5.5</ele>
        <time>2020-06-17T12:27:43Z</time>
      </trkpt>
      <trkpt lat="49.29881" lon="-0.0848">
        <ele>5.5</ele>
        <time>2020-06-17T12:27:44Z</time>
      </trkpt>
      <trkpt lat="49.29885" lon="-0.08477">
        <ele>5.5</ele>
        <time>2020-06-17T12:27:45Z</time>
      </trkpt>
      <trkpt lat="49.29889" lon="-0.08474">
        <ele>5.5</ele>
        <time>2020-06-17T12:27:46Z</time>
      </trkpt>
      <trkpt lat="49.29892" lon="-0.08471">
        <ele>5.6</ele>
        <time>2020-06-17T12:27:47Z</time>
      </trkpt>
      <trkpt lat="49.29896" lon="-0.08467">
        <ele>5.6</ele>
        <time>2020-06-17T12:27:48Z</time>
      </trkpt>
      <trkpt lat="49.299" lon="-0.08464">
        <ele>5.6</ele>
        <time>2020-06-17T12:27:49Z</time>
      </trkpt>
      <trkpt lat="49.29903" lon="-0.08461">
        <ele>5.6</ele>
        <time>2020-06-17T12:27:50Z</time>
      </trkpt>
      <trkpt lat="49.29907" lon="-0.08458">
        <ele>5.7</ele>
        <time>2020-06-17T12:27:51Z</time>
      </trkpt>
      <trkpt lat="49.29911" lon="-0.08456">
        <ele>5.8</ele>
        <time>2020-06-17T12:27:52Z</time>
      </trkpt>
      <trkpt lat="49.29915" lon="-0.08453">
        <ele>5.8</ele>
        <time>2020-06-17T12:27:53Z</time>
      </trkpt>
      <trkpt lat="49.29919" lon="-0.08449">
        <ele>5.9</ele>
        <time>2020-06-17T12:27:54Z</time>
      </trkpt>
      <trkpt lat="49.29922" lon="-0.08447">
        <ele>5.9</ele>
        <time>2020-06-17T12:27:55Z</time>
      </trkpt>
      <trkpt lat="49.29924" lon="-0.08445">
        <ele>6</ele>
        <time>2020-06-17T12:27:56Z</time>
      </trkpt>
      <trkpt lat="49.29927" lon="-0.08442">
        <ele>6.1</ele>
        <time>2020-06-17T12:27:57Z</time>
      </trkpt>
      <trkpt lat="49.29929" lon="-0.08438">
        <ele>6.1</ele>
        <time>2020-06-17T12:27:58Z</time>
      </trkpt>
      <trkpt lat="49.29932" lon="-0.08435">
        <ele>6.2</ele>
        <time>2020-06-17T12:27:59Z</time>
      </trkpt>
      <trkpt lat="49.29935" lon="-0.08431">
        <ele>6.3</ele>
        <time>2020-06-17T12:28:00Z</time>
      </trkpt>
      <trkpt lat="49.29938" lon="-0.08428">
        <ele>6.4</ele>
        <time>2020-06-17T12:28:01Z</time>
      </trkpt>
      <trkpt lat="49.2994" lon="-0.08425">
        <ele>6.5</ele>
        <time>2020-06-17T12:28:02Z</time>
      </trkpt>
      <trkpt lat="49.29943" lon="-0.08421">
        <ele>6.6</ele>
        <time>2020-06-17T12:28:03Z</time>
      </trkpt>
      <trkpt lat="49.29947" lon="-0.08415">
        <ele>6.7</ele>
        <time>2020-06-17T12:28:04Z</time>
      </trkpt>
      <trkpt lat="49.29951" lon="-0.0841">
        <ele>6.7</ele>
        <time>2020-06-17T12:28:05Z</time>
      </trkpt>
      <trkpt lat="49.29954" lon="-0.08405">
        <ele>6.8</ele>
        <time>2020-06-17T12:28:06Z</time>
      </trkpt>
      <trkpt lat="49.29958" lon="-0.084">
        <ele>6.9</ele>
        <time>2020-06-17T12:28:07Z</time>
      </trkpt>
      <trkpt lat="49.29961" lon="-0.08395">
        <ele>6.9</ele>
        <time>2020-06-17T12:28:08Z</time>
      </trkpt>
      <trkpt lat="49.29965" lon="-0.08391">
        <ele>6.9</ele>
        <time>2020-06-17T12:28:09Z</time>
      </trkpt>
      <trkpt lat="49.29969" lon="-0.08386">
        <ele>6.8</ele>
        <time>2020-06-17T12:28:10Z</time>
      </trkpt>
      <trkpt lat="49.29974" lon="-0.08383">
        <ele>6.7</ele>
        <time>2020-06-17T12:28:11Z</time>
      </trkpt>
      <trkpt lat="49.29979" lon="-0.08379">
        <ele>6.6</ele>
        <time>2020-06-17T12:28:12Z</time>
      </trkpt>
      <trkpt lat="49.29984" lon="-0.08376">
        <ele>6.3</ele>
        <time>2020-06-17T12:28:13Z</time>
      </trkpt>
      <trkpt lat="49.29989" lon="-0.08373">
        <ele>6.2</ele>
        <time>2020-06-17T12:28:14Z</time>
      </trkpt>
      <trkpt lat="49.29994" lon="-0.08369">
        <ele>6.2</ele>
        <time>2020-06-17T12:28:15Z</time>
      </trkpt>
      <trkpt lat="49.29998" lon="-0.08366">
        <ele>6.1</ele>
        <time>2020-06-17T12:28:16Z</time>
      </trkpt>
      <trkpt lat="49.30003" lon="-0.08362">
        <ele>6</ele>
        <time>2020-06-17T12:28:17Z</time>
      </trkpt>
      <trkpt lat="49.30008" lon="-0.08358">
        <ele>5.9</ele>
        <time>2020-06-17T12:28:18Z</time>
      </trkpt>
      <trkpt lat="49.30013" lon="-0.08353">
        <ele>5.8</ele>
        <time>2020-06-17T12:28:19Z</time>
      </trkpt>
      <trkpt lat="49.30018" lon="-0.08349">
        <ele>5.8</ele>
        <time>2020-06-17T12:28:20Z</time>
      </trkpt>
      <trkpt lat="49.30022" lon="-0.08343">
        <ele>5.7</ele>
        <time>2020-06-17T12:28:21Z</time>
      </trkpt>
      <trkpt lat="49.30027" lon="-0.08338">
        <ele>5.7</ele>
        <time>2020-06-17T12:28:22Z</time>
      </trkpt>
      <trkpt lat="49.30032" lon="-0.08332">
        <ele>5.6</ele>
        <time>2020-06-17T12:28:23Z</time>
      </trkpt>
      <trkpt lat="49.30037" lon="-0.08326">
        <ele>5.6</ele>
        <time>2020-06-17T12:28:24Z</time>
      </trkpt>
      <trkpt lat="49.30042" lon="-0.08321">
        <ele>5.5</ele>
        <time>2020-06-17T12:28:25Z</time>
      </trkpt>
      <trkpt lat="49.30047" lon="-0.08315">
        <ele>5.5</ele>
        <time>2020-06-17T12:28:26Z</time>
      </trkpt>
      <trkpt lat="49.30051" lon="-0.0831">
        <ele>5.5</ele>
        <time>2020-06-17T12:28:27Z</time>
      </trkpt>
      <trkpt lat="49.30055" lon="-0.08306">
        <ele>5.5</ele>
        <time>2020-06-17T12:28:28Z</time>
      </trkpt>
      <trkpt lat="49.30058" lon="-0.08301">
        <ele>5.5</ele>
        <time>2020-06-17T12:28:29Z</time>
      </trkpt>
      <trkpt lat="49.30062" lon="-0.08296">
        <ele>5.5</ele>
        <time>2020-06-17T12:28:30Z</time>
      </trkpt>
      <trkpt lat="49.30065" lon="-0.08293">
        <ele>5.5</ele>
        <time>2020-06-17T12:28:31Z</time>
      </trkpt>
      <trkpt lat="49.30069" lon="-0.08289">
        <ele>5.5</ele>
        <time>2020-06-17T12:28:32Z</time>
      </trkpt>
      <trkpt lat="49.30072" lon="-0.08286">
        <ele>5.4</ele>
        <time>2020-06-17T12:28:33Z</time>
      </trkpt>
      <trkpt lat="49.30076" lon="-0.08282">
        <ele>5.4</ele>
        <time>2020-06-17T12:28:34Z</time>
      </trkpt>
      <trkpt lat="49.30079" lon="-0.08278">
        <ele>5.4</ele>
        <time>2020-06-17T12:28:35Z</time>
      </trkpt>
      <trkpt lat="49.30084" lon="-0.08274">
        <ele>5.4</ele>
        <time>2020-06-17T12:28:36Z</time>
      </trkpt>
      <trkpt lat="49.30087" lon="-0.0827">
        <ele>5.4</ele>
        <time>2020-06-17T12:28:37Z</time>
      </trkpt>
      <trkpt lat="49.30091" lon="-0.08265">
        <ele>5.4</ele>
        <time>2020-06-17T12:28:38Z</time>
      </trkpt>
      <trkpt lat="49.30094" lon="-0.08261">
        <ele>5.4</ele>
        <time>2020-06-17T12:28:39Z</time>
      </trkpt>
      <trkpt lat="49.30098" lon="-0.08257">
        <ele>5.3</ele>
        <time>2020-06-17T12:28:40Z</time>
      </trkpt>
      <trkpt lat="49.30103" lon="-0.08253">
        <ele>5.3</ele>
        <time>2020-06-17T12:28:41Z</time>
      </trkpt>
      <trkpt lat="49.30107" lon="-0.08249">
        <ele>5.3</ele>
        <time>2020-06-17T12:28:42Z</time>
      </trkpt>
      <trkpt lat="49.30112" lon="-0.08245">
        <ele>5.3</ele>
        <time>2020-06-17T12:28:43Z</time>
      </trkpt>
      <trkpt lat="49.30116" lon="-0.08241">
        <ele>5.3</ele>
        <time>2020-06-17T12:28:44Z</time>
      </trkpt>
      <trkpt lat="49.3012" lon="-0.08237">
        <ele>5.3</ele>
        <time>2020-06-17T12:28:45Z</time>
      </trkpt>
      <trkpt lat="49.30124" lon="-0.08233">
        <ele>5.3</ele>
        <time>2020-06-17T12:28:46Z</time>
      </trkpt>
      <trkpt lat="49.30128" lon="-0.0823">
        <ele>5.3</ele>
        <time>2020-06-17T12:28:47Z</time>
      </trkpt>
      <trkpt lat="49.30132" lon="-0.08225">
        <ele>5.2</ele>
        <time>2020-06-17T12:28:48Z</time>
      </trkpt>
      <trkpt lat="49.30137" lon="-0.08221">
        <ele>5.2</ele>
        <time>2020-06-17T12:28:49Z</time>
      </trkpt>
      <trkpt lat="49.30142" lon="-0.08216">
        <ele>5.1</ele>
        <time>2020-06-17T12:28:50Z</time>
      </trkpt>
      <trkpt lat="49.30146" lon="-0.08212">
        <ele>5.1</ele>
        <time>2020-06-17T12:28:51Z</time>
      </trkpt>
      <trkpt lat="49.3015" lon="-0.08208">
        <ele>5.1</ele>
        <time>2020-06-17T12:28:52Z</time>
      </trkpt>
      <trkpt lat="49.30155" lon="-0.08204">
        <ele>5.1</ele>
        <time>2020-06-17T12:28:53Z</time>
      </trkpt>
      <trkpt lat="49.3016" lon="-0.082">
        <ele>5.2</ele>
        <time>2020-06-17T12:28:54Z</time>
      </trkpt>
      <trkpt lat="49.30164" lon="-0.08196">
        <ele>5.2</ele>
        <time>2020-06-17T12:28:55Z</time>
      </trkpt>
      <trkpt lat="49.30169" lon="-0.08192">
        <ele>5.3</ele>
        <time>2020-06-17T12:28:56Z</time>
      </trkpt>
      <trkpt lat="49.30173" lon="-0.08187">
        <ele>5.4</ele>
        <time>2020-06-17T12:28:57Z</time>
      </trkpt>
      <trkpt lat="49.30177" lon="-0.08181">
        <ele>5.5</ele>
        <time>2020-06-17T12:28:58Z</time>
      </trkpt>
      <trkpt lat="49.30182" lon="-0.08174">
        <ele>5.5</ele>
        <time>2020-06-17T12:28:59Z</time>
      </trkpt>
      <trkpt lat="49.30185" lon="-0.08167">
        <ele>5.5</ele>
        <time>2020-06-17T12:29:00Z</time>
      </trkpt>
      <trkpt lat="49.30189" lon="-0.0816">
        <ele>5.6</ele>
        <time>2020-06-17T12:29:01Z</time>
      </trkpt>
      <trkpt lat="49.30192" lon="-0.08154">
        <ele>5.6</ele>
        <time>2020-06-17T12:29:02Z</time>
      </trkpt>
      <trkpt lat="49.30195" lon="-0.08148">
        <ele>5.7</ele>
        <time>2020-06-17T12:29:03Z</time>
      </trkpt>
      <trkpt lat="49.30198" lon="-0.08141">
        <ele>5.7</ele>
        <time>2020-06-17T12:29:04Z</time>
      </trkpt>
      <trkpt lat="49.30201" lon="-0.08133">
        <ele>5.8</ele>
        <time>2020-06-17T12:29:05Z</time>
      </trkpt>
      <trkpt lat="49.30204" lon="-0.08127">
        <ele>5.9</ele>
        <time>2020-06-17T12:29:06Z</time>
      </trkpt>
      <trkpt lat="49.30206" lon="-0.0812">
        <ele>5.9</ele>
        <time>2020-06-17T12:29:07Z</time>
      </trkpt>
      <trkpt lat="49.30209" lon="-0.08111">
        <ele>6</ele>
        <time>2020-06-17T12:29:08Z</time>
      </trkpt>
      <trkpt lat="49.30211" lon="-0.08104">
        <ele>6</ele>
        <time>2020-06-17T12:29:09Z</time>
      </trkpt>
      <trkpt lat="49.30213" lon="-0.08096">
        <ele>6</ele>
        <time>2020-06-17T12:29:10Z</time>
      </trkpt>
      <trkpt lat="49.30216" lon="-0.08089">
        <ele>6.1</ele>
        <time>2020-06-17T12:29:11Z</time>
      </trkpt>
      <trkpt lat="49.30218" lon="-0.08083">
        <ele>6.1</ele>
        <time>2020-06-17T12:29:12Z</time>
      </trkpt>
      <trkpt lat="49.3022" lon="-0.08077">
        <ele>6.2</ele>
        <time>2020-06-17T12:29:13Z</time>
      </trkpt>
      <trkpt lat="49.30222" lon="-0.08071">
        <ele>6.3</ele>
        <time>2020-06-17T12:29:14Z</time>
      </trkpt>
      <trkpt lat="49.30224" lon="-0.08065">
        <ele>6.3</ele>
        <time>2020-06-17T12:29:15Z</time>
      </trkpt>
      <trkpt lat="49.30226" lon="-0.08059">
        <ele>6.4</ele>
        <time>2020-06-17T12:29:16Z</time>
      </trkpt>
      <trkpt lat="49.30227" lon="-0.08054">
        <ele>6.5</ele>
        <time>2020-06-17T12:29:17Z</time>
      </trkpt>
      <trkpt lat="49.3023" lon="-0.08049">
        <ele>6.6</ele>
        <time>2020-06-17T12:29:18Z</time>
      </trkpt>
      <trkpt lat="49.30232" lon="-0.08043">
        <ele>6.7</ele>
        <time>2020-06-17T12:29:19Z</time>
      </trkpt>
      <trkpt lat="49.30233" lon="-0.08039">
        <ele>6.8</ele>
        <time>2020-06-17T12:29:20Z</time>
      </trkpt>
      <trkpt lat="49.30234" lon="-0.08034">
        <ele>6.9</ele>
        <time>2020-06-17T12:29:21Z</time>
      </trkpt>
      <trkpt lat="49.30235" lon="-0.0803">
        <ele>6.9</ele>
        <time>2020-06-17T12:29:22Z</time>
      </trkpt>
      <trkpt lat="49.30236" lon="-0.08026">
        <ele>7</ele>
        <time>2020-06-17T12:29:23Z</time>
      </trkpt>
      <trkpt lat="49.30237" lon="-0.08024">
        <ele>7</ele>
        <time>2020-06-17T12:29:24Z</time>
      </trkpt>
      <trkpt lat="49.30238" lon="-0.08022">
        <ele>7.1</ele>
        <time>2020-06-17T12:29:25Z</time>
      </trkpt>
      <trkpt lat="49.30239" lon="-0.0802">
        <ele>7.1</ele>
        <time>2020-06-17T12:29:26Z</time>
      </trkpt>
      <trkpt lat="49.30239" lon="-0.08018">
        <ele>7.1</ele>
        <time>2020-06-17T12:29:27Z</time>
      </trkpt>
      <trkpt lat="49.30239" lon="-0.08016">
        <ele>7.1</ele>
        <time>2020-06-17T12:29:28Z</time>
      </trkpt>
      <trkpt lat="49.30239" lon="-0.08015">
        <ele>7.1</ele>
        <time>2020-06-17T12:29:29Z</time>
      </trkpt>
      <trkpt lat="49.30239" lon="-0.08014">
        <ele>7.1</ele>
        <time>2020-06-17T12:29:30Z</time>
      </trkpt>
      <trkpt lat="49.3024" lon="-0.08012">
        <ele>7.2</ele>
        <time>2020-06-17T12:29:31Z</time>
      </trkpt>
      <trkpt lat="49.30239" lon="-0.08012">
        <ele>7.2</ele>
        <time>2020-06-17T12:29:32Z</time>
      </trkpt>
      <trkpt lat="49.3024" lon="-0.0801">
        <ele>7.2</ele>
        <time>2020-06-17T12:29:33Z</time>
      </trkpt>
      <trkpt lat="49.30241" lon="-0.08009">
        <ele>7.2</ele>
        <time>2020-06-17T12:29:34Z</time>
      </trkpt>
      <trkpt lat="49.30241" lon="-0.08008">
        <ele>7.2</ele>
        <time>2020-06-17T12:29:35Z</time>
      </trkpt>
      <trkpt lat="49.30241" lon="-0.08007">
        <ele>7.2</ele>
        <time>2020-06-17T12:29:36Z</time>
      </trkpt>
      <trkpt lat="49.30241" lon="-0.08006">
        <ele>7.2</ele>
        <time>2020-06-17T12:29:37Z</time>
      </trkpt>
      <trkpt lat="49.30241" lon="-0.08005">
        <ele>7.2</ele>
        <time>2020-06-17T12:29:38Z</time>
      </trkpt>
      <trkpt lat="49.30241" lon="-0.08003">
        <ele>7.3</ele>
        <time>2020-06-17T12:29:39Z</time>
      </trkpt>
      <trkpt lat="49.30242" lon="-0.08002">
        <ele>7.3</ele>
        <time>2020-06-17T12:29:40Z</time>
      </trkpt>
      <trkpt lat="49.30242" lon="-0.08001">
        <ele>7.3</ele>
        <time>2020-06-17T12:29:41Z</time>
      </trkpt>
      <trkpt lat="49.30242" lon="-0.08">
        <ele>7.3</ele>
        <time>2020-06-17T12:29:42Z</time>
      </trkpt>
      <trkpt lat="49.30242" lon="-0.08">
        <ele>7.3</ele>
        <time>2020-06-17T12:29:43Z</time>
      </trkpt>
      <trkpt lat="49.30242" lon="-0.07999">
        <ele>7.3</ele>
        <time>2020-06-17T12:29:44Z</time>
      </trkpt>
      <trkpt lat="49.30243" lon="-0.07998">
        <ele>7.3</ele>
        <time>2020-06-17T12:29:45Z</time>
      </trkpt>
      <trkpt lat="49.30244" lon="-0.07998">
        <ele>7.4</ele>
        <time>2020-06-17T12:29:46Z</time>
      </trkpt>
      <trkpt lat="49.30245" lon="-0.07998">
        <ele>7.4</ele>
        <time>2020-06-17T12:29:47Z</time>
      </trkpt>
      <trkpt lat="49.30245" lon="-0.07998">
        <ele>7.4</ele>
        <time>2020-06-17T12:29:48Z</time>
      </trkpt>
      <trkpt lat="49.30246" lon="-0.07998">
        <ele>7.4</ele>
        <time>2020-06-17T12:29:49Z</time>
      </trkpt>
      <trkpt lat="49.30248" lon="-0.07995">
        <ele>7.5</ele>
        <time>2020-06-17T12:29:50Z</time>
      </trkpt>
      <trkpt lat="49.30248" lon="-0.07994">
        <ele>7.5</ele>
        <time>2020-06-17T12:29:51Z</time>
      </trkpt>
      <trkpt lat="49.30249" lon="-0.07991">
        <ele>7.5</ele>
        <time>2020-06-17T12:29:52Z</time>
      </trkpt>
      <trkpt lat="49.3025" lon="-0.07986">
        <ele>7.6</ele>
        <time>2020-06-17T12:29:53Z</time>
      </trkpt>
      <trkpt lat="49.3025" lon="-0.07984">
        <ele>7.7</ele>
        <time>2020-06-17T12:29:54Z</time>
      </trkpt>
      <trkpt lat="49.30252" lon="-0.07979">
        <ele>7.8</ele>
        <time>2020-06-17T12:29:55Z</time>
      </trkpt>
      <trkpt lat="49.30252" lon="-0.07977">
        <ele>7.8</ele>
        <time>2020-06-17T12:29:56Z</time>
      </trkpt>
      <trkpt lat="49.30253" lon="-0.07973">
        <ele>7.9</ele>
        <time>2020-06-17T12:29:57Z</time>
      </trkpt>
      <trkpt lat="49.30255" lon="-0.07969">
        <ele>8</ele>
        <time>2020-06-17T12:29:58Z</time>
      </trkpt>
      <trkpt lat="49.30257" lon="-0.07965">
        <ele>8.1</ele>
        <time>2020-06-17T12:29:59Z</time>
      </trkpt>
      <trkpt lat="49.30258" lon="-0.07961">
        <ele>8.2</ele>
        <time>2020-06-17T12:30:00Z</time>
      </trkpt>
      <trkpt lat="49.3026" lon="-0.07956">
        <ele>8.3</ele>
        <time>2020-06-17T12:30:01Z</time>
      </trkpt>
      <trkpt lat="49.30262" lon="-0.07952">
        <ele>8.4</ele>
        <time>2020-06-17T12:30:02Z</time>
      </trkpt>
      <trkpt lat="49.30263" lon="-0.07947">
        <ele>8.5</ele>
        <time>2020-06-17T12:30:03Z</time>
      </trkpt>
      <trkpt lat="49.30263" lon="-0.07942">
        <ele>8.6</ele>
        <time>2020-06-17T12:30:04Z</time>
      </trkpt>
      <trkpt lat="49.30264" lon="-0.0794">
        <ele>8.6</ele>
        <time>2020-06-17T12:30:05Z</time>
      </trkpt>
      <trkpt lat="49.30265" lon="-0.07935">
        <ele>8.7</ele>
        <time>2020-06-17T12:30:06Z</time>
      </trkpt>
      <trkpt lat="49.30266" lon="-0.07934">
        <ele>8.7</ele>
        <time>2020-06-17T12:30:07Z</time>
      </trkpt>
      <trkpt lat="49.30267" lon="-0.07929">
        <ele>8.8</ele>
        <time>2020-06-17T12:30:08Z</time>
      </trkpt>
      <trkpt lat="49.30268" lon="-0.07927">
        <ele>8.8</ele>
        <time>2020-06-17T12:30:09Z</time>
      </trkpt>
      <trkpt lat="49.3027" lon="-0.07923">
        <ele>8.8</ele>
        <time>2020-06-17T12:30:10Z</time>
      </trkpt>
      <trkpt lat="49.30271" lon="-0.07921">
        <ele>8.8</ele>
        <time>2020-06-17T12:30:11Z</time>
      </trkpt>
      <trkpt lat="49.30273" lon="-0.07917">
        <ele>8.8</ele>
        <time>2020-06-17T12:30:12Z</time>
      </trkpt>
      <trkpt lat="49.30275" lon="-0.07914">
        <ele>8.8</ele>
        <time>2020-06-17T12:30:13Z</time>
      </trkpt>
      <trkpt lat="49.30276" lon="-0.0791">
        <ele>8.8</ele>
        <time>2020-06-17T12:30:14Z</time>
      </trkpt>
      <trkpt lat="49.30278" lon="-0.07906">
        <ele>8.8</ele>
        <time>2020-06-17T12:30:15Z</time>
      </trkpt>
      <trkpt lat="49.30281" lon="-0.07901">
        <ele>8.8</ele>
        <time>2020-06-17T12:30:16Z</time>
      </trkpt>
      <trkpt lat="49.30282" lon="-0.07896">
        <ele>8.9</ele>
        <time>2020-06-17T12:30:17Z</time>
      </trkpt>
      <trkpt lat="49.30285" lon="-0.0789">
        <ele>9</ele>
        <time>2020-06-17T12:30:18Z</time>
      </trkpt>
      <trkpt lat="49.30287" lon="-0.07885">
        <ele>9</ele>
        <time>2020-06-17T12:30:19Z</time>
      </trkpt>
      <trkpt lat="49.30289" lon="-0.07881">
        <ele>9</ele>
        <time>2020-06-17T12:30:20Z</time>
      </trkpt>
      <trkpt lat="49.30291" lon="-0.07876">
        <ele>9.1</ele>
        <time>2020-06-17T12:30:21Z</time>
      </trkpt>
      <trkpt lat="49.30293" lon="-0.07872">
        <ele>9.1</ele>
        <time>2020-06-17T12:30:22Z</time>
      </trkpt>
      <trkpt lat="49.30295" lon="-0.07867">
        <ele>9.2</ele>
        <time>2020-06-17T12:30:23Z</time>
      </trkpt>
      <trkpt lat="49.30297" lon="-0.07862">
        <ele>9.2</ele>
        <time>2020-06-17T12:30:24Z</time>
      </trkpt>
      <trkpt lat="49.30299" lon="-0.07857">
        <ele>9.3</ele>
        <time>2020-06-17T12:30:25Z</time>
      </trkpt>
      <trkpt lat="49.30301" lon="-0.07852">
        <ele>9.3</ele>
        <time>2020-06-17T12:30:26Z</time>
      </trkpt>
      <trkpt lat="49.30304" lon="-0.07847">
        <ele>9.3</ele>
        <time>2020-06-17T12:30:27Z</time>
      </trkpt>
      <trkpt lat="49.30306" lon="-0.0784">
        <ele>9.4</ele>
        <time>2020-06-17T12:30:28Z</time>
      </trkpt>
      <trkpt lat="49.30308" lon="-0.07835">
        <ele>9.4</ele>
        <time>2020-06-17T12:30:29Z</time>
      </trkpt>
      <trkpt lat="49.3031" lon="-0.0783">
        <ele>9.4</ele>
        <time>2020-06-17T12:30:30Z</time>
      </trkpt>
      <trkpt lat="49.30312" lon="-0.07823">
        <ele>9.4</ele>
        <time>2020-06-17T12:30:31Z</time>
      </trkpt>
      <trkpt lat="49.30314" lon="-0.07817">
        <ele>9.4</ele>
        <time>2020-06-17T12:30:32Z</time>
      </trkpt>
      <trkpt lat="49.30316" lon="-0.07811">
        <ele>9.5</ele>
        <time>2020-06-17T12:30:33Z</time>
      </trkpt>
      <trkpt lat="49.30319" lon="-0.07805">
        <ele>9.5</ele>
        <time>2020-06-17T12:30:34Z</time>
      </trkpt>
      <trkpt lat="49.3032" lon="-0.07799">
        <ele>9.5</ele>
        <time>2020-06-17T12:30:35Z</time>
      </trkpt>
      <trkpt lat="49.30322" lon="-0.07794">
        <ele>9.5</ele>
        <time>2020-06-17T12:30:36Z</time>
      </trkpt>
      <trkpt lat="49.30326" lon="-0.07788">
        <ele>9.6</ele>
        <time>2020-06-17T12:30:37Z</time>
      </trkpt>
      <trkpt lat="49.30328" lon="-0.07782">
        <ele>9.6</ele>
        <time>2020-06-17T12:30:38Z</time>
      </trkpt>
      <trkpt lat="49.3033" lon="-0.07777">
        <ele>9.7</ele>
        <time>2020-06-17T12:30:39Z</time>
      </trkpt>
      <trkpt lat="49.30333" lon="-0.0777">
        <ele>9.8</ele>
        <time>2020-06-17T12:30:40Z</time>
      </trkpt>
      <trkpt lat="49.30335" lon="-0.07763">
        <ele>9.9</ele>
        <time>2020-06-17T12:30:41Z</time>
      </trkpt>
      <trkpt lat="49.30338" lon="-0.07756">
        <ele>10</ele>
        <time>2020-06-17T12:30:42Z</time>
      </trkpt>
      <trkpt lat="49.3034" lon="-0.07749">
        <ele>10.2</ele>
        <time>2020-06-17T12:30:43Z</time>
      </trkpt>
      <trkpt lat="49.30342" lon="-0.07742">
        <ele>10.3</ele>
        <time>2020-06-17T12:30:44Z</time>
      </trkpt>
      <trkpt lat="49.30345" lon="-0.07735">
        <ele>10.4</ele>
        <time>2020-06-17T12:30:45Z</time>
      </trkpt>
      <trkpt lat="49.30348" lon="-0.07728">
        <ele>10.5</ele>
        <time>2020-06-17T12:30:46Z</time>
      </trkpt>
      <trkpt lat="49.3035" lon="-0.07723">
        <ele>10.6</ele>
        <time>2020-06-17T12:30:47Z</time>
      </trkpt>
      <trkpt lat="49.30353" lon="-0.07717">
        <ele>10.6</ele>
        <time>2020-06-17T12:30:48Z</time>
      </trkpt>
      <trkpt lat="49.30355" lon="-0.07711">
        <ele>10.7</ele>
        <time>2020-06-17T12:30:49Z</time>
      </trkpt>
      <trkpt lat="49.30358" lon="-0.07705">
        <ele>10.9</ele>
        <time>2020-06-17T12:30:50Z</time>
      </trkpt>
      <trkpt lat="49.3036" lon="-0.07699">
        <ele>10.9</ele>
        <time>2020-06-17T12:30:51Z</time>
      </trkpt>
      <trkpt lat="49.30363" lon="-0.07692">
        <ele>10.9</ele>
        <time>2020-06-17T12:30:52Z</time>
      </trkpt>
      <trkpt lat="49.30365" lon="-0.07686">
        <ele>11</ele>
        <time>2020-06-17T12:30:53Z</time>
      </trkpt>
      <trkpt lat="49.30367" lon="-0.0768">
        <ele>11</ele>
        <time>2020-06-17T12:30:54Z</time>
      </trkpt>
      <trkpt lat="49.30369" lon="-0.07675">
        <ele>11.1</ele>
        <time>2020-06-17T12:30:55Z</time>
      </trkpt>
      <trkpt lat="49.30371" lon="-0.07667">
        <ele>11.1</ele>
        <time>2020-06-17T12:30:56Z</time>
      </trkpt>
      <trkpt lat="49.30373" lon="-0.07661">
        <ele>11.2</ele>
        <time>2020-06-17T12:30:57Z</time>
      </trkpt>
      <trkpt lat="49.30374" lon="-0.07653">
        <ele>11.2</ele>
        <time>2020-06-17T12:30:58Z</time>
      </trkpt>
      <trkpt lat="49.30376" lon="-0.07647">
        <ele>11.3</ele>
        <time>2020-06-17T12:30:59Z</time>
      </trkpt>
      <trkpt lat="49.30377" lon="-0.0764">
        <ele>11.4</ele>
        <time>2020-06-17T12:31:00Z</time>
      </trkpt>
      <trkpt lat="49.30378" lon="-0.07634">
        <ele>11.4</ele>
        <time>2020-06-17T12:31:01Z</time>
      </trkpt>
      <trkpt lat="49.30379" lon="-0.07627">
        <ele>11.5</ele>
        <time>2020-06-17T12:31:02Z</time>
      </trkpt>
      <trkpt lat="49.30381" lon="-0.0762">
        <ele>11.5</ele>
        <time>2020-06-17T12:31:03Z</time>
      </trkpt>
      <trkpt lat="49.30383" lon="-0.07614">
        <ele>11.6</ele>
        <time>2020-06-17T12:31:04Z</time>
      </trkpt>
      <trkpt lat="49.30384" lon="-0.0761">
        <ele>11.6</ele>
        <time>2020-06-17T12:31:05Z</time>
      </trkpt>
      <trkpt lat="49.30386" lon="-0.07604">
        <ele>11.6</ele>
        <time>2020-06-17T12:31:06Z</time>
      </trkpt>
      <trkpt lat="49.30387" lon="-0.07598">
        <ele>11.7</ele>
        <time>2020-06-17T12:31:07Z</time>
      </trkpt>
      <trkpt lat="49.30389" lon="-0.07592">
        <ele>11.7</ele>
        <time>2020-06-17T12:31:08Z</time>
      </trkpt>
      <trkpt lat="49.3039" lon="-0.07586">
        <ele>11.7</ele>
        <time>2020-06-17T12:31:09Z</time>
      </trkpt>
      <trkpt lat="49.30392" lon="-0.07579">
        <ele>11.8</ele>
        <time>2020-06-17T12:31:10Z</time>
      </trkpt>
      <trkpt lat="49.30393" lon="-0.07574">
        <ele>11.8</ele>
        <time>2020-06-17T12:31:11Z</time>
      </trkpt>
      <trkpt lat="49.30395" lon="-0.07566">
        <ele>11.9</ele>
        <time>2020-06-17T12:31:12Z</time>
      </trkpt>
      <trkpt lat="49.30396" lon="-0.0756">
        <ele>11.9</ele>
        <time>2020-06-17T12:31:13Z</time>
      </trkpt>
      <trkpt lat="49.30399" lon="-0.07553">
        <ele>12</ele>
        <time>2020-06-17T12:31:14Z</time>
      </trkpt>
      <trkpt lat="49.304" lon="-0.07545">
        <ele>12.1</ele>
        <time>2020-06-17T12:31:15Z</time>
      </trkpt>
      <trkpt lat="49.30401" lon="-0.07539">
        <ele>12.2</ele>
        <time>2020-06-17T12:31:16Z</time>
      </trkpt>
      <trkpt lat="49.30402" lon="-0.07535">
        <ele>12.2</ele>
        <time>2020-06-17T12:31:17Z</time>
      </trkpt>
      <trkpt lat="49.30405" lon="-0.07531">
        <ele>12.3</ele>
        <time>2020-06-17T12:31:18Z</time>
      </trkpt>
      <trkpt lat="49.30406" lon="-0.0753">
        <ele>12.3</ele>
        <time>2020-06-17T12:31:19Z</time>
      </trkpt>
      <trkpt lat="49.3041" lon="-0.07526">
        <ele>12.4</ele>
        <time>2020-06-17T12:31:20Z</time>
      </trkpt>
      <trkpt lat="49.30411" lon="-0.07525">
        <ele>12.4</ele>
        <time>2020-06-17T12:31:21Z</time>
      </trkpt>
      <trkpt lat="49.30414" lon="-0.07522">
        <ele>12.4</ele>
        <time>2020-06-17T12:31:22Z</time>
      </trkpt>
      <trkpt lat="49.30415" lon="-0.07521">
        <ele>12.5</ele>
        <time>2020-06-17T12:31:23Z</time>
      </trkpt>
      <trkpt lat="49.30418" lon="-0.07518">
        <ele>12.5</ele>
        <time>2020-06-17T12:31:24Z</time>
      </trkpt>
      <trkpt lat="49.30419" lon="-0.07517">
        <ele>12.5</ele>
        <time>2020-06-17T12:31:25Z</time>
      </trkpt>
      <trkpt lat="49.30421" lon="-0.07515">
        <ele>12.5</ele>
        <time>2020-06-17T12:31:26Z</time>
      </trkpt>
      <trkpt lat="49.30421" lon="-0.07514">
        <ele>12.6</ele>
        <time>2020-06-17T12:31:27Z</time>
      </trkpt>
      <trkpt lat="49.30422" lon="-0.07514">
        <ele>12.6</ele>
        <time>2020-06-17T12:31:28Z</time>
      </trkpt>
      <trkpt lat="49.30424" lon="-0.07512">
        <ele>12.6</ele>
        <time>2020-06-17T12:31:29Z</time>
      </trkpt>
      <trkpt lat="49.30425" lon="-0.07511">
        <ele>12.6</ele>
        <time>2020-06-17T12:31:30Z</time>
      </trkpt>
      <trkpt lat="49.30429" lon="-0.07507">
        <ele>12.7</ele>
        <time>2020-06-17T12:31:31Z</time>
      </trkpt>
      <trkpt lat="49.30431" lon="-0.07505">
        <ele>12.7</ele>
        <time>2020-06-17T12:31:32Z</time>
      </trkpt>
      <trkpt lat="49.30433" lon="-0.07501">
        <ele>12.8</ele>
        <time>2020-06-17T12:31:33Z</time>
      </trkpt>
      <trkpt lat="49.30435" lon="-0.07497">
        <ele>12.8</ele>
        <time>2020-06-17T12:31:34Z</time>
      </trkpt>
      <trkpt lat="49.30435" lon="-0.07492">
        <ele>12.9</ele>
        <time>2020-06-17T12:31:35Z</time>
      </trkpt>
      <trkpt lat="49.30435" lon="-0.07487">
        <ele>12.9</ele>
        <time>2020-06-17T12:31:36Z</time>
      </trkpt>
      <trkpt lat="49.30436" lon="-0.07481">
        <ele>13</ele>
        <time>2020-06-17T12:31:37Z</time>
      </trkpt>
      <trkpt lat="49.30437" lon="-0.07477">
        <ele>13</ele>
        <time>2020-06-17T12:31:38Z</time>
      </trkpt>
      <trkpt lat="49.30437" lon="-0.07472">
        <ele>13</ele>
        <time>2020-06-17T12:31:39Z</time>
      </trkpt>
      <trkpt lat="49.30437" lon="-0.07467">
        <ele>13.1</ele>
        <time>2020-06-17T12:31:40Z</time>
      </trkpt>
      <trkpt lat="49.30438" lon="-0.07456">
        <ele>13</ele>
        <time>2020-06-17T12:31:41Z</time>
      </trkpt>
      <trkpt lat="49.30439" lon="-0.07447">
        <ele>13.1</ele>
        <time>2020-06-17T12:31:42Z</time>
      </trkpt>
      <trkpt lat="49.3044" lon="-0.0744">
        <ele>13.1</ele>
        <time>2020-06-17T12:31:43Z</time>
      </trkpt>
      <trkpt lat="49.30441" lon="-0.07431">
        <ele>13.1</ele>
        <time>2020-06-17T12:31:44Z</time>
      </trkpt>
      <trkpt lat="49.30442" lon="-0.07422">
        <ele>13.2</ele>
        <time>2020-06-17T12:31:45Z</time>
      </trkpt>
      <trkpt lat="49.30443" lon="-0.07414">
        <ele>13.2</ele>
        <time>2020-06-17T12:31:46Z</time>
      </trkpt>
      <trkpt lat="49.30444" lon="-0.07407">
        <ele>13.3</ele>
        <time>2020-06-17T12:31:47Z</time>
      </trkpt>
      <trkpt lat="49.30444" lon="-0.07397">
        <ele>13.3</ele>
        <time>2020-06-17T12:31:48Z</time>
      </trkpt>
      <trkpt lat="49.30444" lon="-0.0739">
        <ele>13.4</ele>
        <time>2020-06-17T12:31:49Z</time>
      </trkpt>
      <trkpt lat="49.30445" lon="-0.07385">
        <ele>13.5</ele>
        <time>2020-06-17T12:31:50Z</time>
      </trkpt>
      <trkpt lat="49.30447" lon="-0.07379">
        <ele>13.6</ele>
        <time>2020-06-17T12:31:51Z</time>
      </trkpt>
      <trkpt lat="49.30452" lon="-0.07376">
        <ele>13.7</ele>
        <time>2020-06-17T12:31:52Z</time>
      </trkpt>
      <trkpt lat="49.30455" lon="-0.07373">
        <ele>13.8</ele>
        <time>2020-06-17T12:31:53Z</time>
      </trkpt>
      <trkpt lat="49.3046" lon="-0.0737">
        <ele>13.9</ele>
        <time>2020-06-17T12:31:54Z</time>
      </trkpt>
      <trkpt lat="49.30463" lon="-0.07365">
        <ele>13.9</ele>
        <time>2020-06-17T12:31:55Z</time>
      </trkpt>
      <trkpt lat="49.30466" lon="-0.07363">
        <ele>14</ele>
        <time>2020-06-17T12:31:56Z</time>
      </trkpt>
      <trkpt lat="49.30469" lon="-0.07359">
        <ele>14</ele>
        <time>2020-06-17T12:31:57Z</time>
      </trkpt>
      <trkpt lat="49.30472" lon="-0.07357">
        <ele>14.2</ele>
        <time>2020-06-17T12:31:58Z</time>
      </trkpt>
      <trkpt lat="49.30476" lon="-0.07355">
        <ele>14.3</ele>
        <time>2020-06-17T12:31:59Z</time>
      </trkpt>
      <trkpt lat="49.30479" lon="-0.07352">
        <ele>14.4</ele>
        <time>2020-06-17T12:32:00Z</time>
      </trkpt>
      <trkpt lat="49.30481" lon="-0.07348">
        <ele>14.6</ele>
        <time>2020-06-17T12:32:01Z</time>
      </trkpt>
      <trkpt lat="49.30482" lon="-0.07344">
        <ele>14.7</ele>
        <time>2020-06-17T12:32:02Z</time>
      </trkpt>
      <trkpt lat="49.30484" lon="-0.0734">
        <ele>14.8</ele>
        <time>2020-06-17T12:32:03Z</time>
      </trkpt>
      <trkpt lat="49.30485" lon="-0.07336">
        <ele>14.9</ele>
        <time>2020-06-17T12:32:04Z</time>
      </trkpt>
      <trkpt lat="49.30488" lon="-0.07331">
        <ele>15.1</ele>
        <time>2020-06-17T12:32:05Z</time>
      </trkpt>
      <trkpt lat="49.30488" lon="-0.07329">
        <ele>15.1</ele>
        <time>2020-06-17T12:32:06Z</time>
      </trkpt>
      <trkpt lat="49.30491" lon="-0.07325">
        <ele>15.2</ele>
        <time>2020-06-17T12:32:07Z</time>
      </trkpt>
      <trkpt lat="49.30493" lon="-0.07321">
        <ele>15.4</ele>
        <time>2020-06-17T12:32:08Z</time>
      </trkpt>
      <trkpt lat="49.30494" lon="-0.07316">
        <ele>15.6</ele>
        <time>2020-06-17T12:32:09Z</time>
      </trkpt>
      <trkpt lat="49.30495" lon="-0.07311">
        <ele>15.7</ele>
        <time>2020-06-17T12:32:10Z</time>
      </trkpt>
      <trkpt lat="49.30497" lon="-0.07306">
        <ele>15.9</ele>
        <time>2020-06-17T12:32:11Z</time>
      </trkpt>
      <trkpt lat="49.30498" lon="-0.07304">
        <ele>16</ele>
        <time>2020-06-17T12:32:12Z</time>
      </trkpt>
      <trkpt lat="49.30499" lon="-0.07298">
        <ele>16.2</ele>
        <time>2020-06-17T12:32:13Z</time>
      </trkpt>
      <trkpt lat="49.305" lon="-0.07296">
        <ele>16.3</ele>
        <time>2020-06-17T12:32:14Z</time>
      </trkpt>
      <trkpt lat="49.30501" lon="-0.07291">
        <ele>16.5</ele>
        <time>2020-06-17T12:32:15Z</time>
      </trkpt>
      <trkpt lat="49.30502" lon="-0.07286">
        <ele>16.7</ele>
        <time>2020-06-17T12:32:16Z</time>
      </trkpt>
      <trkpt lat="49.30503" lon="-0.0728">
        <ele>17</ele>
        <time>2020-06-17T12:32:17Z</time>
      </trkpt>
      <trkpt lat="49.30504" lon="-0.07276">
        <ele>17.2</ele>
        <time>2020-06-17T12:32:18Z</time>
      </trkpt>
      <trkpt lat="49.30505" lon="-0.07271">
        <ele>17.4</ele>
        <time>2020-06-17T12:32:19Z</time>
      </trkpt>
      <trkpt lat="49.30507" lon="-0.07267">
        <ele>17.7</ele>
        <time>2020-06-17T12:32:20Z</time>
      </trkpt>
      <trkpt lat="49.30509" lon="-0.07262">
        <ele>18</ele>
        <time>2020-06-17T12:32:21Z</time>
      </trkpt>
      <trkpt lat="49.3051" lon="-0.07256">
        <ele>18.4</ele>
        <time>2020-06-17T12:32:22Z</time>
      </trkpt>
      <trkpt lat="49.30512" lon="-0.07252">
        <ele>18.7</ele>
        <time>2020-06-17T12:32:23Z</time>
      </trkpt>
      <trkpt lat="49.30513" lon="-0.07247">
        <ele>18.9</ele>
        <time>2020-06-17T12:32:24Z</time>
      </trkpt>
      <trkpt lat="49.30514" lon="-0.07243">
        <ele>19.2</ele>
        <time>2020-06-17T12:32:25Z</time>
      </trkpt>
      <trkpt lat="49.30516" lon="-0.07239">
        <ele>19.5</ele>
        <time>2020-06-17T12:32:26Z</time>
      </trkpt>
      <trkpt lat="49.30517" lon="-0.07235">
        <ele>19.7</ele>
        <time>2020-06-17T12:32:27Z</time>
      </trkpt>
      <trkpt lat="49.30519" lon="-0.07229">
        <ele>20</ele>
        <time>2020-06-17T12:32:28Z</time>
      </trkpt>
      <trkpt lat="49.3052" lon="-0.07224">
        <ele>20.3</ele>
        <time>2020-06-17T12:32:29Z</time>
      </trkpt>
      <trkpt lat="49.30521" lon="-0.07223">
        <ele>20.5</ele>
        <time>2020-06-17T12:32:30Z</time>
      </trkpt>
      <trkpt lat="49.30522" lon="-0.07217">
        <ele>20.8</ele>
        <time>2020-06-17T12:32:31Z</time>
      </trkpt>
      <trkpt lat="49.30523" lon="-0.07215">
        <ele>20.9</ele>
        <time>2020-06-17T12:32:32Z</time>
      </trkpt>
      <trkpt lat="49.30525" lon="-0.0721">
        <ele>21.3</ele>
        <time>2020-06-17T12:32:33Z</time>
      </trkpt>
      <trkpt lat="49.30525" lon="-0.07209">
        <ele>21.4</ele>
        <time>2020-06-17T12:32:34Z</time>
      </trkpt>
      <trkpt lat="49.30526" lon="-0.07205">
        <ele>21.6</ele>
        <time>2020-06-17T12:32:35Z</time>
      </trkpt>
      <trkpt lat="49.30526" lon="-0.07203">
        <ele>21.7</ele>
        <time>2020-06-17T12:32:36Z</time>
      </trkpt>
      <trkpt lat="49.30527" lon="-0.07199">
        <ele>22</ele>
        <time>2020-06-17T12:32:37Z</time>
      </trkpt>
      <trkpt lat="49.30527" lon="-0.07197">
        <ele>22.2</ele>
        <time>2020-06-17T12:32:38Z</time>
      </trkpt>
      <trkpt lat="49.30528" lon="-0.07192">
        <ele>22.5</ele>
        <time>2020-06-17T12:32:39Z</time>
      </trkpt>
      <trkpt lat="49.30528" lon="-0.0719">
        <ele>22.6</ele>
        <time>2020-06-17T12:32:40Z</time>
      </trkpt>
      <trkpt lat="49.30528" lon="-0.07188">
        <ele>22.7</ele>
        <time>2020-06-17T12:32:41Z</time>
      </trkpt>
      <trkpt lat="49.30528" lon="-0.07187">
        <ele>22.9</ele>
        <time>2020-06-17T12:32:42Z</time>
      </trkpt>
      <trkpt lat="49.30528" lon="-0.07185">
        <ele>23</ele>
        <time>2020-06-17T12:32:43Z</time>
      </trkpt>
      <trkpt lat="49.30527" lon="-0.07183">
        <ele>23.2</ele>
        <time>2020-06-17T12:32:44Z</time>
      </trkpt>
      <trkpt lat="49.30527" lon="-0.07181">
        <ele>23.3</ele>
        <time>2020-06-17T12:32:45Z</time>
      </trkpt>
      <trkpt lat="49.30527" lon="-0.07177">
        <ele>23.6</ele>
        <time>2020-06-17T12:32:46Z</time>
      </trkpt>
      <trkpt lat="49.30527" lon="-0.07176">
        <ele>23.8</ele>
        <time>2020-06-17T12:32:47Z</time>
      </trkpt>
      <trkpt lat="49.30527" lon="-0.07174">
        <ele>23.9</ele>
        <time>2020-06-17T12:32:48Z</time>
      </trkpt>
      <trkpt lat="49.30527" lon="-0.07168">
        <ele>24.3</ele>
        <time>2020-06-17T12:32:49Z</time>
      </trkpt>
      <trkpt lat="49.30526" lon="-0.07167">
        <ele>24.5</ele>
        <time>2020-06-17T12:32:50Z</time>
      </trkpt>
      <trkpt lat="49.30527" lon="-0.07163">
        <ele>24.8</ele>
        <time>2020-06-17T12:32:51Z</time>
      </trkpt>
      <trkpt lat="49.30527" lon="-0.07161">
        <ele>25</ele>
        <time>2020-06-17T12:32:52Z</time>
      </trkpt>
      <trkpt lat="49.30527" lon="-0.07158">
        <ele>25.2</ele>
        <time>2020-06-17T12:32:53Z</time>
      </trkpt>
      <trkpt lat="49.30527" lon="-0.07155">
        <ele>25.5</ele>
        <time>2020-06-17T12:32:54Z</time>
      </trkpt>
      <trkpt lat="49.30527" lon="-0.07154">
        <ele>25.6</ele>
        <time>2020-06-17T12:32:55Z</time>
      </trkpt>
      <trkpt lat="49.30526" lon="-0.07151">
        <ele>25.9</ele>
        <time>2020-06-17T12:32:56Z</time>
      </trkpt>
      <trkpt lat="49.30527" lon="-0.07149">
        <ele>26.1</ele>
        <time>2020-06-17T12:32:57Z</time>
      </trkpt>
      <trkpt lat="49.30527" lon="-0.07148">
        <ele>26.2</ele>
        <time>2020-06-17T12:32:58Z</time>
      </trkpt>
      <trkpt lat="49.30527" lon="-0.07146">
        <ele>26.3</ele>
        <time>2020-06-17T12:32:59Z</time>
      </trkpt>
      <trkpt lat="49.30528" lon="-0.07145">
        <ele>26.5</ele>
        <time>2020-06-17T12:33:00Z</time>
      </trkpt>
      <trkpt lat="49.30528" lon="-0.07144">
        <ele>26.6</ele>
        <time>2020-06-17T12:33:01Z</time>
      </trkpt>
      <trkpt lat="49.30527" lon="-0.07142">
        <ele>26.8</ele>
        <time>2020-06-17T12:33:02Z</time>
      </trkpt>
      <trkpt lat="49.30527" lon="-0.0714">
        <ele>26.9</ele>
        <time>2020-06-17T12:33:03Z</time>
      </trkpt>
      <trkpt lat="49.30527" lon="-0.0714">
        <ele>27</ele>
        <time>2020-06-17T12:33:04Z</time>
      </trkpt>
      <trkpt lat="49.30527" lon="-0.0714">
        <ele>27</ele>
        <time>2020-06-17T12:33:05Z</time>
      </trkpt>
      <trkpt lat="49.30527" lon="-0.07139">
        <ele>27</ele>
        <time>2020-06-17T12:33:06Z</time>
      </trkpt>
      <trkpt lat="49.30527" lon="-0.07137">
        <ele>27.3</ele>
        <time>2020-06-17T12:33:07Z</time>
      </trkpt>
      <trkpt lat="49.30527" lon="-0.07135">
        <ele>27.5</ele>
        <time>2020-06-17T12:33:08Z</time>
      </trkpt>
      <trkpt lat="49.30527" lon="-0.07132">
        <ele>27.9</ele>
        <time>2020-06-17T12:33:09Z</time>
      </trkpt>
      <trkpt lat="49.30526" lon="-0.07127">
        <ele>28.5</ele>
        <time>2020-06-17T12:33:10Z</time>
      </trkpt>
      <trkpt lat="49.30526" lon="-0.07126">
        <ele>28.7</ele>
        <time>2020-06-17T12:33:11Z</time>
      </trkpt>
      <trkpt lat="49.30526" lon="-0.07121">
        <ele>29.3</ele>
        <time>2020-06-17T12:33:12Z</time>
      </trkpt>
      <trkpt lat="49.30526" lon="-0.0712">
        <ele>29.5</ele>
        <time>2020-06-17T12:33:13Z</time>
      </trkpt>
      <trkpt lat="49.30524" lon="-0.07115">
        <ele>30.2</ele>
        <time>2020-06-17T12:33:14Z</time>
      </trkpt>
      <trkpt lat="49.30524" lon="-0.07113">
        <ele>30.4</ele>
        <time>2020-06-17T12:33:15Z</time>
      </trkpt>
      <trkpt lat="49.30524" lon="-0.07108">
        <ele>31.1</ele>
        <time>2020-06-17T12:33:16Z</time>
      </trkpt>
      <trkpt lat="49.30524" lon="-0.07107">
        <ele>31.3</ele>
        <time>2020-06-17T12:33:17Z</time>
      </trkpt>
      <trkpt lat="49.30525" lon="-0.07104">
        <ele>31.8</ele>
        <time>2020-06-17T12:33:18Z</time>
      </trkpt>
      <trkpt lat="49.30525" lon="-0.07102">
        <ele>32</ele>
        <time>2020-06-17T12:33:19Z</time>
      </trkpt>
      <trkpt lat="49.30526" lon="-0.07097">
        <ele>32.9</ele>
        <time>2020-06-17T12:33:20Z</time>
      </trkpt>
      <trkpt lat="49.30526" lon="-0.07095">
        <ele>33</ele>
        <time>2020-06-17T12:33:21Z</time>
      </trkpt>
      <trkpt lat="49.30527" lon="-0.07091">
        <ele>33.4</ele>
        <time>2020-06-17T12:33:22Z</time>
      </trkpt>
      <trkpt lat="49.30527" lon="-0.07089">
        <ele>33.5</ele>
        <time>2020-06-17T12:33:23Z</time>
      </trkpt>
      <trkpt lat="49.30527" lon="-0.07084">
        <ele>33.9</ele>
        <time>2020-06-17T12:33:24Z</time>
      </trkpt>
      <trkpt lat="49.30528" lon="-0.07082">
        <ele>34.3</ele>
        <time>2020-06-17T12:33:25Z</time>
      </trkpt>
      <trkpt lat="49.30527" lon="-0.07077">
        <ele>34.9</ele>
        <time>2020-06-17T12:33:26Z</time>
      </trkpt>
      <trkpt lat="49.30527" lon="-0.07075">
        <ele>35.2</ele>
        <time>2020-06-17T12:33:27Z</time>
      </trkpt>
      <trkpt lat="49.30526" lon="-0.07073">
        <ele>35.5</ele>
        <time>2020-06-17T12:33:28Z</time>
      </trkpt>
      <trkpt lat="49.30527" lon="-0.0707">
        <ele>35.9</ele>
        <time>2020-06-17T12:33:29Z</time>
      </trkpt>
      <trkpt lat="49.30527" lon="-0.07068">
        <ele>36.2</ele>
        <time>2020-06-17T12:33:30Z</time>
      </trkpt>
      <trkpt lat="49.30527" lon="-0.07066">
        <ele>36.5</ele>
        <time>2020-06-17T12:33:31Z</time>
      </trkpt>
      <trkpt lat="49.30526" lon="-0.07064">
        <ele>36.7</ele>
        <time>2020-06-17T12:33:32Z</time>
      </trkpt>
      <trkpt lat="49.30525" lon="-0.07063">
        <ele>37</ele>
        <time>2020-06-17T12:33:33Z</time>
      </trkpt>
      <trkpt lat="49.30525" lon="-0.07061">
        <ele>37.2</ele>
        <time>2020-06-17T12:33:34Z</time>
      </trkpt>
      <trkpt lat="49.30525" lon="-0.07059">
        <ele>37.4</ele>
        <time>2020-06-17T12:33:35Z</time>
      </trkpt>
      <trkpt lat="49.30525" lon="-0.07057">
        <ele>37.7</ele>
        <time>2020-06-17T12:33:36Z</time>
      </trkpt>
      <trkpt lat="49.30525" lon="-0.07056">
        <ele>37.8</ele>
        <time>2020-06-17T12:33:37Z</time>
      </trkpt>
      <trkpt lat="49.30524" lon="-0.07054">
        <ele>38</ele>
        <time>2020-06-17T12:33:38Z</time>
      </trkpt>
      <trkpt lat="49.30524" lon="-0.07053">
        <ele>38.2</ele>
        <time>2020-06-17T12:33:39Z</time>
      </trkpt>
      <trkpt lat="49.30524" lon="-0.07051">
        <ele>38.4</ele>
        <time>2020-06-17T12:33:40Z</time>
      </trkpt>
      <trkpt lat="49.30523" lon="-0.07049">
        <ele>38.7</ele>
        <time>2020-06-17T12:33:41Z</time>
      </trkpt>
      <trkpt lat="49.30523" lon="-0.07046">
        <ele>39</ele>
        <time>2020-06-17T12:33:42Z</time>
      </trkpt>
      <trkpt lat="49.30523" lon="-0.07044">
        <ele>39.2</ele>
        <time>2020-06-17T12:33:43Z</time>
      </trkpt>
      <trkpt lat="49.30523" lon="-0.07042">
        <ele>39.6</ele>
        <time>2020-06-17T12:33:44Z</time>
      </trkpt>
      <trkpt lat="49.30523" lon="-0.07039">
        <ele>39.8</ele>
        <time>2020-06-17T12:33:45Z</time>
      </trkpt>
      <trkpt lat="49.30523" lon="-0.07037">
        <ele>40.1</ele>
        <time>2020-06-17T12:33:46Z</time>
      </trkpt>
      <trkpt lat="49.30522" lon="-0.07036">
        <ele>40.3</ele>
        <time>2020-06-17T12:33:47Z</time>
      </trkpt>
      <trkpt lat="49.30522" lon="-0.07035">
        <ele>40.5</ele>
        <time>2020-06-17T12:33:48Z</time>
      </trkpt>
      <trkpt lat="49.30521" lon="-0.07033">
        <ele>40.7</ele>
        <time>2020-06-17T12:33:49Z</time>
      </trkpt>
      <trkpt lat="49.30521" lon="-0.0703">
        <ele>41</ele>
        <time>2020-06-17T12:33:50Z</time>
      </trkpt>
      <trkpt lat="49.30521" lon="-0.07029">
        <ele>41.1</ele>
        <time>2020-06-17T12:33:51Z</time>
      </trkpt>
      <trkpt lat="49.30521" lon="-0.07028">
        <ele>41.3</ele>
        <time>2020-06-17T12:33:52Z</time>
      </trkpt>
      <trkpt lat="49.30521" lon="-0.07026">
        <ele>41.5</ele>
        <time>2020-06-17T12:33:53Z</time>
      </trkpt>
      <trkpt lat="49.3052" lon="-0.07024">
        <ele>41.8</ele>
        <time>2020-06-17T12:33:54Z</time>
      </trkpt>
      <trkpt lat="49.3052" lon="-0.07022">
        <ele>41.9</ele>
        <time>2020-06-17T12:33:55Z</time>
      </trkpt>
      <trkpt lat="49.3052" lon="-0.07021">
        <ele>42.1</ele>
        <time>2020-06-17T12:33:56Z</time>
      </trkpt>
      <trkpt lat="49.30519" lon="-0.07019">
        <ele>42.3</ele>
        <time>2020-06-17T12:33:57Z</time>
      </trkpt>
      <trkpt lat="49.30519" lon="-0.07017">
        <ele>42.5</ele>
        <time>2020-06-17T12:33:58Z</time>
      </trkpt>
      <trkpt lat="49.3052" lon="-0.07015">
        <ele>42.7</ele>
        <time>2020-06-17T12:33:59Z</time>
      </trkpt>
      <trkpt lat="49.3052" lon="-0.07012">
        <ele>43.1</ele>
        <time>2020-06-17T12:34:00Z</time>
      </trkpt>
      <trkpt lat="49.3052" lon="-0.0701">
        <ele>43.3</ele>
        <time>2020-06-17T12:34:01Z</time>
      </trkpt>
      <trkpt lat="49.3052" lon="-0.07007">
        <ele>43.6</ele>
        <time>2020-06-17T12:34:02Z</time>
      </trkpt>
      <trkpt lat="49.30519" lon="-0.07003">
        <ele>44</ele>
        <time>2020-06-17T12:34:03Z</time>
      </trkpt>
      <trkpt lat="49.30519" lon="-0.07001">
        <ele>44.2</ele>
        <time>2020-06-17T12:34:04Z</time>
      </trkpt>
      <trkpt lat="49.30518" lon="-0.06996">
        <ele>44.8</ele>
        <time>2020-06-17T12:34:05Z</time>
      </trkpt>
      <trkpt lat="49.30518" lon="-0.06995">
        <ele>44.9</ele>
        <time>2020-06-17T12:34:06Z</time>
      </trkpt>
      <trkpt lat="49.30517" lon="-0.06993">
        <ele>45.2</ele>
        <time>2020-06-17T12:34:07Z</time>
      </trkpt>
      <trkpt lat="49.30515" lon="-0.06992">
        <ele>46.3</ele>
        <time>2020-06-17T12:34:08Z</time>
      </trkpt>
      <trkpt lat="49.30514" lon="-0.0699">
        <ele>46.5</ele>
        <time>2020-06-17T12:34:09Z</time>
      </trkpt>
      <trkpt lat="49.30512" lon="-0.06991">
        <ele>46.6</ele>
        <time>2020-06-17T12:34:10Z</time>
      </trkpt>
      <trkpt lat="49.30511" lon="-0.06992">
        <ele>46.8</ele>
        <time>2020-06-17T12:34:11Z</time>
      </trkpt>
      <trkpt lat="49.3051" lon="-0.06992">
        <ele>46.9</ele>
        <time>2020-06-17T12:34:12Z</time>
      </trkpt>
      <trkpt lat="49.3051" lon="-0.06991">
        <ele>47</ele>
        <time>2020-06-17T12:34:13Z</time>
      </trkpt>
      <trkpt lat="49.30511" lon="-0.06989">
        <ele>47.1</ele>
        <time>2020-06-17T12:34:14Z</time>
      </trkpt>
      <trkpt lat="49.3051" lon="-0.0699">
        <ele>47.2</ele>
        <time>2020-06-17T12:34:15Z</time>
      </trkpt>
      <trkpt lat="49.30509" lon="-0.0699">
        <ele>47.3</ele>
        <time>2020-06-17T12:34:16Z</time>
      </trkpt>
      <trkpt lat="49.30508" lon="-0.0699">
        <ele>47.4</ele>
        <time>2020-06-17T12:34:17Z</time>
      </trkpt>
      <trkpt lat="49.30507" lon="-0.0699">
        <ele>47.4</ele>
        <time>2020-06-17T12:34:18Z</time>
      </trkpt>
      <trkpt lat="49.30506" lon="-0.0699">
        <ele>47.5</ele>
        <time>2020-06-17T12:34:19Z</time>
      </trkpt>
      <trkpt lat="49.30506" lon="-0.0699">
        <ele>47.5</ele>
        <time>2020-06-17T12:34:20Z</time>
      </trkpt>
      <trkpt lat="49.30506" lon="-0.0699">
        <ele>47.5</ele>
        <time>2020-06-17T12:34:21Z</time>
      </trkpt>
      <trkpt lat="49.30506" lon="-0.0699">
        <ele>47.6</ele>
        <time>2020-06-17T12:34:22Z</time>
      </trkpt>
      <trkpt lat="49.30505" lon="-0.06989">
        <ele>47.6</ele>
        <time>2020-06-17T12:34:23Z</time>
      </trkpt>
      <trkpt lat="49.30504" lon="-0.06988">
        <ele>47.7</ele>
        <time>2020-06-17T12:34:24Z</time>
      </trkpt>
      <trkpt lat="49.30505" lon="-0.06989">
        <ele>47.7</ele>
        <time>2020-06-17T12:34:25Z</time>
      </trkpt>
      <trkpt lat="49.30505" lon="-0.06989">
        <ele>47.7</ele>
        <time>2020-06-17T12:34:26Z</time>
      </trkpt>
      <trkpt lat="49.30505" lon="-0.06989">
        <ele>47.8</ele>
        <time>2020-06-17T12:34:27Z</time>
      </trkpt>
      <trkpt lat="49.30505" lon="-0.06989">
        <ele>47.8</ele>
        <time>2020-06-17T12:34:28Z</time>
      </trkpt>
      <trkpt lat="49.30505" lon="-0.06988">
        <ele>47.8</ele>
        <time>2020-06-17T12:34:29Z</time>
      </trkpt>
      <trkpt lat="49.30505" lon="-0.06987">
        <ele>47.8</ele>
        <time>2020-06-17T12:34:30Z</time>
      </trkpt>
      <trkpt lat="49.30504" lon="-0.06987">
        <ele>47.9</ele>
        <time>2020-06-17T12:34:31Z</time>
      </trkpt>
      <trkpt lat="49.30504" lon="-0.06987">
        <ele>47.9</ele>
        <time>2020-06-17T12:34:32Z</time>
      </trkpt>
      <trkpt lat="49.30504" lon="-0.06987">
        <ele>47.9</ele>
        <time>2020-06-17T12:34:33Z</time>
      </trkpt>
      <trkpt lat="49.30504" lon="-0.06987">
        <ele>47.9</ele>
        <time>2020-06-17T12:34:34Z</time>
      </trkpt>
      <trkpt lat="49.30504" lon="-0.06987">
        <ele>47.9</ele>
        <time>2020-06-17T12:34:35Z</time>
      </trkpt>
      <trkpt lat="49.30496" lon="-0.06987">
        <ele>48.2</ele>
        <time>2020-06-17T12:35:20Z</time>
      </trkpt>
      <trkpt lat="49.30495" lon="-0.06987">
        <ele>48.2</ele>
        <time>2020-06-17T12:35:21Z</time>
      </trkpt>
      <trkpt lat="49.30493" lon="-0.06987">
        <ele>48.3</ele>
        <time>2020-06-17T12:35:22Z</time>
      </trkpt>
      <trkpt lat="49.30492" lon="-0.06988">
        <ele>48.3</ele>
        <time>2020-06-17T12:35:23Z</time>
      </trkpt>
      <trkpt lat="49.30491" lon="-0.06988">
        <ele>48.3</ele>
        <time>2020-06-17T12:35:24Z</time>
      </trkpt>
      <trkpt lat="49.3049" lon="-0.06988">
        <ele>48.4</ele>
        <time>2020-06-17T12:35:25Z</time>
      </trkpt>
      <trkpt lat="49.30489" lon="-0.06988">
        <ele>48.4</ele>
        <time>2020-06-17T12:35:26Z</time>
      </trkpt>
      <trkpt lat="49.30487" lon="-0.06987">
        <ele>48.4</ele>
        <time>2020-06-17T12:35:27Z</time>
      </trkpt>
      <trkpt lat="49.30486" lon="-0.06987">
        <ele>48.4</ele>
        <time>2020-06-17T12:35:28Z</time>
      </trkpt>
      <trkpt lat="49.30484" lon="-0.06987">
        <ele>48.5</ele>
        <time>2020-06-17T12:35:29Z</time>
      </trkpt>
      <trkpt lat="49.30483" lon="-0.06986">
        <ele>48.5</ele>
        <time>2020-06-17T12:35:30Z</time>
      </trkpt>
      <trkpt lat="49.30482" lon="-0.06986">
        <ele>48.5</ele>
        <time>2020-06-17T12:35:31Z</time>
      </trkpt>
      <trkpt lat="49.3048" lon="-0.06986">
        <ele>48.5</ele>
        <time>2020-06-17T12:35:32Z</time>
      </trkpt>
      <trkpt lat="49.30479" lon="-0.06987">
        <ele>48.5</ele>
        <time>2020-06-17T12:35:33Z</time>
      </trkpt>
      <trkpt lat="49.30475" lon="-0.06988">
        <ele>48.6</ele>
        <time>2020-06-17T12:35:34Z</time>
      </trkpt>
      <trkpt lat="49.30474" lon="-0.06988">
        <ele>48.6</ele>
        <time>2020-06-17T12:35:35Z</time>
      </trkpt>
      <trkpt lat="49.30471" lon="-0.0699">
        <ele>48.6</ele>
        <time>2020-06-17T12:35:36Z</time>
      </trkpt>
      <trkpt lat="49.30467" lon="-0.06991">
        <ele>48.7</ele>
        <time>2020-06-17T12:35:37Z</time>
      </trkpt>
      <trkpt lat="49.30463" lon="-0.06993">
        <ele>48.7</ele>
        <time>2020-06-17T12:35:38Z</time>
      </trkpt>
      <trkpt lat="49.30459" lon="-0.06994">
        <ele>48.7</ele>
        <time>2020-06-17T12:35:39Z</time>
      </trkpt>
      <trkpt lat="49.30456" lon="-0.06995">
        <ele>48.8</ele>
        <time>2020-06-17T12:35:40Z</time>
      </trkpt>
      <trkpt lat="49.30452" lon="-0.06996">
        <ele>48.8</ele>
        <time>2020-06-17T12:35:41Z</time>
      </trkpt>
      <trkpt lat="49.30448" lon="-0.06997">
        <ele>48.8</ele>
        <time>2020-06-17T12:35:42Z</time>
      </trkpt>
      <trkpt lat="49.30444" lon="-0.06997">
        <ele>48.8</ele>
        <time>2020-06-17T12:35:43Z</time>
      </trkpt>
      <trkpt lat="49.3044" lon="-0.06998">
        <ele>48.8</ele>
        <time>2020-06-17T12:35:44Z</time>
      </trkpt>
      <trkpt lat="49.30436" lon="-0.06999">
        <ele>48.9</ele>
        <time>2020-06-17T12:35:45Z</time>
      </trkpt>
      <trkpt lat="49.30432" lon="-0.06999">
        <ele>48.9</ele>
        <time>2020-06-17T12:35:46Z</time>
      </trkpt>
      <trkpt lat="49.30428" lon="-0.06998">
        <ele>48.9</ele>
        <time>2020-06-17T12:35:47Z</time>
      </trkpt>
      <trkpt lat="49.30423" lon="-0.06998">
        <ele>48.9</ele>
        <time>2020-06-17T12:35:48Z</time>
      </trkpt>
      <trkpt lat="49.30419" lon="-0.06999">
        <ele>48.9</ele>
        <time>2020-06-17T12:35:49Z</time>
      </trkpt>
      <trkpt lat="49.30415" lon="-0.06999">
        <ele>49</ele>
        <time>2020-06-17T12:35:50Z</time>
      </trkpt>
      <trkpt lat="49.30411" lon="-0.07">
        <ele>49</ele>
        <time>2020-06-17T12:35:51Z</time>
      </trkpt>
      <trkpt lat="49.30407" lon="-0.07">
        <ele>49</ele>
        <time>2020-06-17T12:35:52Z</time>
      </trkpt>
      <trkpt lat="49.30403" lon="-0.06999">
        <ele>49</ele>
        <time>2020-06-17T12:35:53Z</time>
      </trkpt>
      <trkpt lat="49.30399" lon="-0.06999">
        <ele>49.1</ele>
        <time>2020-06-17T12:35:54Z</time>
      </trkpt>
      <trkpt lat="49.30394" lon="-0.06999">
        <ele>49.1</ele>
        <time>2020-06-17T12:35:55Z</time>
      </trkpt>
      <trkpt lat="49.30391" lon="-0.07">
        <ele>49.1</ele>
        <time>2020-06-17T12:35:56Z</time>
      </trkpt>
      <trkpt lat="49.30387" lon="-0.07">
        <ele>49.2</ele>
        <time>2020-06-17T12:35:57Z</time>
      </trkpt>
      <trkpt lat="49.30384" lon="-0.07001">
        <ele>49.2</ele>
        <time>2020-06-17T12:35:58Z</time>
      </trkpt>
      <trkpt lat="49.3038" lon="-0.07002">
        <ele>49.2</ele>
        <time>2020-06-17T12:35:59Z</time>
      </trkpt>
      <trkpt lat="49.30376" lon="-0.07002">
        <ele>49.3</ele>
        <time>2020-06-17T12:36:00Z</time>
      </trkpt>
      <trkpt lat="49.30372" lon="-0.07003">
        <ele>49.4</ele>
        <time>2020-06-17T12:36:01Z</time>
      </trkpt>
      <trkpt lat="49.30368" lon="-0.07003">
        <ele>49.4</ele>
        <time>2020-06-17T12:36:02Z</time>
      </trkpt>
      <trkpt lat="49.30364" lon="-0.07003">
        <ele>49.5</ele>
        <time>2020-06-17T12:36:03Z</time>
      </trkpt>
      <trkpt lat="49.30359" lon="-0.07002">
        <ele>49.6</ele>
        <time>2020-06-17T12:36:04Z</time>
      </trkpt>
      <trkpt lat="49.30356" lon="-0.07002">
        <ele>49.7</ele>
        <time>2020-06-17T12:36:05Z</time>
      </trkpt>
      <trkpt lat="49.30351" lon="-0.07003">
        <ele>49.9</ele>
        <time>2020-06-17T12:36:06Z</time>
      </trkpt>
      <trkpt lat="49.30348" lon="-0.07003">
        <ele>50</ele>
        <time>2020-06-17T12:36:07Z</time>
      </trkpt>
      <trkpt lat="49.30345" lon="-0.07003">
        <ele>50.1</ele>
        <time>2020-06-17T12:36:08Z</time>
      </trkpt>
      <trkpt lat="49.30342" lon="-0.07002">
        <ele>50.2</ele>
        <time>2020-06-17T12:36:09Z</time>
      </trkpt>
      <trkpt lat="49.30339" lon="-0.07002">
        <ele>50.3</ele>
        <time>2020-06-17T12:36:10Z</time>
      </trkpt>
      <trkpt lat="49.30335" lon="-0.07002">
        <ele>50.4</ele>
        <time>2020-06-17T12:36:11Z</time>
      </trkpt>
      <trkpt lat="49.30332" lon="-0.07002">
        <ele>50.6</ele>
        <time>2020-06-17T12:36:12Z</time>
      </trkpt>
      <trkpt lat="49.30327" lon="-0.07002">
        <ele>50.7</ele>
        <time>2020-06-17T12:36:13Z</time>
      </trkpt>
      <trkpt lat="49.30325" lon="-0.07002">
        <ele>50.8</ele>
        <time>2020-06-17T12:36:14Z</time>
      </trkpt>
      <trkpt lat="49.30321" lon="-0.07001">
        <ele>50.9</ele>
        <time>2020-06-17T12:36:15Z</time>
      </trkpt>
      <trkpt lat="49.30318" lon="-0.06999">
        <ele>51</ele>
        <time>2020-06-17T12:36:16Z</time>
      </trkpt>
      <trkpt lat="49.30317" lon="-0.06998">
        <ele>51.1</ele>
        <time>2020-06-17T12:36:17Z</time>
      </trkpt>
      <trkpt lat="49.30316" lon="-0.06998">
        <ele>51.1</ele>
        <time>2020-06-17T12:36:18Z</time>
      </trkpt>
      <trkpt lat="49.30316" lon="-0.06998">
        <ele>51.1</ele>
        <time>2020-06-17T12:36:19Z</time>
      </trkpt>
      <trkpt lat="49.30316" lon="-0.06998">
        <ele>51.1</ele>
        <time>2020-06-17T12:36:20Z</time>
      </trkpt>
      <trkpt lat="49.30316" lon="-0.06998">
        <ele>51.1</ele>
        <time>2020-06-17T12:36:21Z</time>
      </trkpt>
      <trkpt lat="49.30317" lon="-0.06996">
        <ele>51.2</ele>
        <time>2020-06-17T12:36:22Z</time>
      </trkpt>
      <trkpt lat="49.30319" lon="-0.06994">
        <ele>51.3</ele>
        <time>2020-06-17T12:36:23Z</time>
      </trkpt>
      <trkpt lat="49.30321" lon="-0.06991">
        <ele>51.4</ele>
        <time>2020-06-17T12:36:24Z</time>
      </trkpt>
      <trkpt lat="49.30323" lon="-0.06988">
        <ele>52.8</ele>
        <time>2020-06-17T12:36:25Z</time>
      </trkpt>
      <trkpt lat="49.30326" lon="-0.06985">
        <ele>52.9</ele>
        <time>2020-06-17T12:36:26Z</time>
      </trkpt>
      <trkpt lat="49.30329" lon="-0.06982">
        <ele>53</ele>
        <time>2020-06-17T12:36:27Z</time>
      </trkpt>
      <trkpt lat="49.30332" lon="-0.06978">
        <ele>53.1</ele>
        <time>2020-06-17T12:36:28Z</time>
      </trkpt>
      <trkpt lat="49.30335" lon="-0.06975">
        <ele>53.1</ele>
        <time>2020-06-17T12:36:29Z</time>
      </trkpt>
      <trkpt lat="49.30338" lon="-0.06973">
        <ele>53.2</ele>
        <time>2020-06-17T12:36:30Z</time>
      </trkpt>
      <trkpt lat="49.30341" lon="-0.06971">
        <ele>53.3</ele>
        <time>2020-06-17T12:36:31Z</time>
      </trkpt>
      <trkpt lat="49.30345" lon="-0.06968">
        <ele>53.4</ele>
        <time>2020-06-17T12:36:32Z</time>
      </trkpt>
      <trkpt lat="49.30348" lon="-0.06966">
        <ele>53.5</ele>
        <time>2020-06-17T12:36:33Z</time>
      </trkpt>
      <trkpt lat="49.30351" lon="-0.06964">
        <ele>53.6</ele>
        <time>2020-06-17T12:36:34Z</time>
      </trkpt>
      <trkpt lat="49.30354" lon="-0.06962">
        <ele>53.7</ele>
        <time>2020-06-17T12:36:35Z</time>
      </trkpt>
      <trkpt lat="49.30358" lon="-0.06961">
        <ele>54.1</ele>
        <time>2020-06-17T12:36:36Z</time>
      </trkpt>
      <trkpt lat="49.30362" lon="-0.06959">
        <ele>54.4</ele>
        <time>2020-06-17T12:36:37Z</time>
      </trkpt>
      <trkpt lat="49.30366" lon="-0.06957">
        <ele>54.7</ele>
        <time>2020-06-17T12:36:38Z</time>
      </trkpt>
      <trkpt lat="49.30369" lon="-0.06955">
        <ele>54.9</ele>
        <time>2020-06-17T12:36:39Z</time>
      </trkpt>
      <trkpt lat="49.30372" lon="-0.06954">
        <ele>55.1</ele>
        <time>2020-06-17T12:36:40Z</time>
      </trkpt>
      <trkpt lat="49.30374" lon="-0.06952">
        <ele>55.3</ele>
        <time>2020-06-17T12:36:41Z</time>
      </trkpt>
      <trkpt lat="49.30378" lon="-0.0695">
        <ele>55.5</ele>
        <time>2020-06-17T12:36:42Z</time>
      </trkpt>
      <trkpt lat="49.30381" lon="-0.06949">
        <ele>55.7</ele>
        <time>2020-06-17T12:36:43Z</time>
      </trkpt>
      <trkpt lat="49.30384" lon="-0.06947">
        <ele>55.9</ele>
        <time>2020-06-17T12:36:44Z</time>
      </trkpt>
      <trkpt lat="49.30384" lon="-0.06947">
        <ele>56</ele>
        <time>2020-06-17T12:36:45Z</time>
      </trkpt>
      <trkpt lat="49.30387" lon="-0.06944">
        <ele>56.2</ele>
        <time>2020-06-17T12:36:46Z</time>
      </trkpt>
      <trkpt lat="49.30389" lon="-0.0694">
        <ele>56.4</ele>
        <time>2020-06-17T12:36:47Z</time>
      </trkpt>
      <trkpt lat="49.30392" lon="-0.06938">
        <ele>56.6</ele>
        <time>2020-06-17T12:36:48Z</time>
      </trkpt>
      <trkpt lat="49.30396" lon="-0.06936">
        <ele>56.9</ele>
        <time>2020-06-17T12:36:49Z</time>
      </trkpt>
      <trkpt lat="49.30397" lon="-0.06935">
        <ele>57</ele>
        <time>2020-06-17T12:36:50Z</time>
      </trkpt>
      <trkpt lat="49.304" lon="-0.06933">
        <ele>57.3</ele>
        <time>2020-06-17T12:36:51Z</time>
      </trkpt>
      <trkpt lat="49.30402" lon="-0.0693">
        <ele>57.5</ele>
        <time>2020-06-17T12:36:52Z</time>
      </trkpt>
      <trkpt lat="49.30405" lon="-0.06927">
        <ele>57.8</ele>
        <time>2020-06-17T12:36:53Z</time>
      </trkpt>
      <trkpt lat="49.30408" lon="-0.06924">
        <ele>58</ele>
        <time>2020-06-17T12:36:54Z</time>
      </trkpt>
      <trkpt lat="49.30412" lon="-0.06921">
        <ele>58.3</ele>
        <time>2020-06-17T12:36:55Z</time>
      </trkpt>
      <trkpt lat="49.30412" lon="-0.0692">
        <ele>58.4</ele>
        <time>2020-06-17T12:36:56Z</time>
      </trkpt>
      <trkpt lat="49.30416" lon="-0.06918">
        <ele>58.7</ele>
        <time>2020-06-17T12:36:57Z</time>
      </trkpt>
      <trkpt lat="49.30417" lon="-0.06917">
        <ele>58.8</ele>
        <time>2020-06-17T12:36:58Z</time>
      </trkpt>
      <trkpt lat="49.3042" lon="-0.06914">
        <ele>59.1</ele>
        <time>2020-06-17T12:36:59Z</time>
      </trkpt>
      <trkpt lat="49.30422" lon="-0.06911">
        <ele>59.3</ele>
        <time>2020-06-17T12:37:00Z</time>
      </trkpt>
      <trkpt lat="49.30424" lon="-0.06908">
        <ele>59.6</ele>
        <time>2020-06-17T12:37:01Z</time>
      </trkpt>
      <trkpt lat="49.30427" lon="-0.06905">
        <ele>59.8</ele>
        <time>2020-06-17T12:37:02Z</time>
      </trkpt>
      <trkpt lat="49.30428" lon="-0.06904">
        <ele>59.9</ele>
        <time>2020-06-17T12:37:03Z</time>
      </trkpt>
      <trkpt lat="49.3043" lon="-0.06901">
        <ele>60.2</ele>
        <time>2020-06-17T12:37:04Z</time>
      </trkpt>
      <trkpt lat="49.30431" lon="-0.069">
        <ele>60.3</ele>
        <time>2020-06-17T12:37:05Z</time>
      </trkpt>
      <trkpt lat="49.30433" lon="-0.06896">
        <ele>60.6</ele>
        <time>2020-06-17T12:37:06Z</time>
      </trkpt>
      <trkpt lat="49.30436" lon="-0.06892">
        <ele>60.9</ele>
        <time>2020-06-17T12:37:07Z</time>
      </trkpt>
      <trkpt lat="49.30436" lon="-0.0689">
        <ele>61</ele>
        <time>2020-06-17T12:37:08Z</time>
      </trkpt>
      <trkpt lat="49.30438" lon="-0.06887">
        <ele>61.3</ele>
        <time>2020-06-17T12:37:09Z</time>
      </trkpt>
      <trkpt lat="49.30439" lon="-0.06886">
        <ele>61.4</ele>
        <time>2020-06-17T12:37:10Z</time>
      </trkpt>
      <trkpt lat="49.3044" lon="-0.06884">
        <ele>61.5</ele>
        <time>2020-06-17T12:37:11Z</time>
      </trkpt>
      <trkpt lat="49.30442" lon="-0.06882">
        <ele>61.7</ele>
        <time>2020-06-17T12:37:12Z</time>
      </trkpt>
      <trkpt lat="49.30444" lon="-0.06879">
        <ele>62</ele>
        <time>2020-06-17T12:37:13Z</time>
      </trkpt>
      <trkpt lat="49.30445" lon="-0.06878">
        <ele>62.1</ele>
        <time>2020-06-17T12:37:14Z</time>
      </trkpt>
      <trkpt lat="49.30448" lon="-0.06875">
        <ele>62.5</ele>
        <time>2020-06-17T12:37:15Z</time>
      </trkpt>
      <trkpt lat="49.30449" lon="-0.06875">
        <ele>62.6</ele>
        <time>2020-06-17T12:37:16Z</time>
      </trkpt>
      <trkpt lat="49.30452" lon="-0.06873">
        <ele>62.9</ele>
        <time>2020-06-17T12:37:17Z</time>
      </trkpt>
      <trkpt lat="49.30452" lon="-0.06872">
        <ele>63</ele>
        <time>2020-06-17T12:37:18Z</time>
      </trkpt>
      <trkpt lat="49.30454" lon="-0.06871">
        <ele>63.2</ele>
        <time>2020-06-17T12:37:19Z</time>
      </trkpt>
      <trkpt lat="49.30455" lon="-0.0687">
        <ele>63.4</ele>
        <time>2020-06-17T12:37:20Z</time>
      </trkpt>
      <trkpt lat="49.30456" lon="-0.06869">
        <ele>63.5</ele>
        <time>2020-06-17T12:37:21Z</time>
      </trkpt>
      <trkpt lat="49.30457" lon="-0.06867">
        <ele>63.8</ele>
        <time>2020-06-17T12:37:22Z</time>
      </trkpt>
      <trkpt lat="49.30459" lon="-0.06865">
        <ele>64</ele>
        <time>2020-06-17T12:37:23Z</time>
      </trkpt>
      <trkpt lat="49.3046" lon="-0.06863">
        <ele>64.2</ele>
        <time>2020-06-17T12:37:24Z</time>
      </trkpt>
      <trkpt lat="49.30462" lon="-0.0686">
        <ele>64.5</ele>
        <time>2020-06-17T12:37:25Z</time>
      </trkpt>
      <trkpt lat="49.30462" lon="-0.06859">
        <ele>64.6</ele>
        <time>2020-06-17T12:37:26Z</time>
      </trkpt>
      <trkpt lat="49.30462" lon="-0.06858">
        <ele>64.7</ele>
        <time>2020-06-17T12:37:27Z</time>
      </trkpt>
      <trkpt lat="49.30463" lon="-0.06856">
        <ele>64.9</ele>
        <time>2020-06-17T12:37:28Z</time>
      </trkpt>
      <trkpt lat="49.30463" lon="-0.06855">
        <ele>65</ele>
        <time>2020-06-17T12:37:29Z</time>
      </trkpt>
      <trkpt lat="49.30463" lon="-0.06855">
        <ele>65</ele>
        <time>2020-06-17T12:37:30Z</time>
      </trkpt>
      <trkpt lat="49.30463" lon="-0.06853">
        <ele>65.2</ele>
        <time>2020-06-17T12:37:31Z</time>
      </trkpt>
      <trkpt lat="49.30463" lon="-0.06851">
        <ele>65.4</ele>
        <time>2020-06-17T12:37:32Z</time>
      </trkpt>
      <trkpt lat="49.30464" lon="-0.0685">
        <ele>65.5</ele>
        <time>2020-06-17T12:37:33Z</time>
      </trkpt>
      <trkpt lat="49.30464" lon="-0.06849">
        <ele>65.6</ele>
        <time>2020-06-17T12:37:34Z</time>
      </trkpt>
      <trkpt lat="49.30464" lon="-0.06847">
        <ele>65.7</ele>
        <time>2020-06-17T12:37:35Z</time>
      </trkpt>
      <trkpt lat="49.30464" lon="-0.06844">
        <ele>66</ele>
        <time>2020-06-17T12:37:36Z</time>
      </trkpt>
      <trkpt lat="49.30464" lon="-0.06843">
        <ele>66.1</ele>
        <time>2020-06-17T12:37:37Z</time>
      </trkpt>
      <trkpt lat="49.30464" lon="-0.06841">
        <ele>66.2</ele>
        <time>2020-06-17T12:37:38Z</time>
      </trkpt>
      <trkpt lat="49.30463" lon="-0.0684">
        <ele>66.4</ele>
        <time>2020-06-17T12:37:39Z</time>
      </trkpt>
      <trkpt lat="49.30463" lon="-0.06838">
        <ele>66.5</ele>
        <time>2020-06-17T12:37:40Z</time>
      </trkpt>
      <trkpt lat="49.30463" lon="-0.06837">
        <ele>67.5</ele>
        <time>2020-06-17T12:37:41Z</time>
      </trkpt>
      <trkpt lat="49.30463" lon="-0.06835">
        <ele>67.6</ele>
        <time>2020-06-17T12:37:42Z</time>
      </trkpt>
      <trkpt lat="49.30462" lon="-0.06833">
        <ele>67.8</ele>
        <time>2020-06-17T12:37:43Z</time>
      </trkpt>
      <trkpt lat="49.30461" lon="-0.06828">
        <ele>68.2</ele>
        <time>2020-06-17T12:37:44Z</time>
      </trkpt>
      <trkpt lat="49.30461" lon="-0.06827">
        <ele>68.2</ele>
        <time>2020-06-17T12:37:45Z</time>
      </trkpt>
      <trkpt lat="49.3046" lon="-0.06823">
        <ele>68.5</ele>
        <time>2020-06-17T12:37:46Z</time>
      </trkpt>
      <trkpt lat="49.30459" lon="-0.06822">
        <ele>68.6</ele>
        <time>2020-06-17T12:37:47Z</time>
      </trkpt>
      <trkpt lat="49.30458" lon="-0.0682">
        <ele>68.8</ele>
        <time>2020-06-17T12:37:48Z</time>
      </trkpt>
      <trkpt lat="49.30457" lon="-0.06818">
        <ele>69</ele>
        <time>2020-06-17T12:37:49Z</time>
      </trkpt>
      <trkpt lat="49.30456" lon="-0.06816">
        <ele>69.2</ele>
        <time>2020-06-17T12:37:50Z</time>
      </trkpt>
      <trkpt lat="49.30454" lon="-0.06814">
        <ele>69.3</ele>
        <time>2020-06-17T12:37:51Z</time>
      </trkpt>
      <trkpt lat="49.30454" lon="-0.06813">
        <ele>69.4</ele>
        <time>2020-06-17T12:37:52Z</time>
      </trkpt>
      <trkpt lat="49.30453" lon="-0.06812">
        <ele>69.5</ele>
        <time>2020-06-17T12:37:53Z</time>
      </trkpt>
      <trkpt lat="49.30452" lon="-0.0681">
        <ele>69.7</ele>
        <time>2020-06-17T12:37:54Z</time>
      </trkpt>
      <trkpt lat="49.3045" lon="-0.06808">
        <ele>69.9</ele>
        <time>2020-06-17T12:37:55Z</time>
      </trkpt>
      <trkpt lat="49.30449" lon="-0.06806">
        <ele>70</ele>
        <time>2020-06-17T12:37:56Z</time>
      </trkpt>
      <trkpt lat="49.30448" lon="-0.06804">
        <ele>70</ele>
        <time>2020-06-17T12:37:57Z</time>
      </trkpt>
      <trkpt lat="49.30447" lon="-0.06802">
        <ele>70.4</ele>
        <time>2020-06-17T12:37:58Z</time>
      </trkpt>
      <trkpt lat="49.30446" lon="-0.068">
        <ele>71.2</ele>
        <time>2020-06-17T12:37:59Z</time>
      </trkpt>
      <trkpt lat="49.30445" lon="-0.06799">
        <ele>71.2</ele>
        <time>2020-06-17T12:38:00Z</time>
      </trkpt>
      <trkpt lat="49.30444" lon="-0.06798">
        <ele>72.5</ele>
        <time>2020-06-17T12:38:01Z</time>
      </trkpt>
      <trkpt lat="49.30443" lon="-0.06796">
        <ele>72.5</ele>
        <time>2020-06-17T12:38:02Z</time>
      </trkpt>
      <trkpt lat="49.30442" lon="-0.06795">
        <ele>72.9</ele>
        <time>2020-06-17T12:38:03Z</time>
      </trkpt>
      <trkpt lat="49.30441" lon="-0.06793">
        <ele>73.7</ele>
        <time>2020-06-17T12:38:04Z</time>
      </trkpt>
      <trkpt lat="49.3044" lon="-0.06791">
        <ele>73.7</ele>
        <time>2020-06-17T12:38:05Z</time>
      </trkpt>
      <trkpt lat="49.30439" lon="-0.0679">
        <ele>74.2</ele>
        <time>2020-06-17T12:38:06Z</time>
      </trkpt>
      <trkpt lat="49.30438" lon="-0.06788">
        <ele>75</ele>
        <time>2020-06-17T12:38:07Z</time>
      </trkpt>
      <trkpt lat="49.30437" lon="-0.06787">
        <ele>75</ele>
        <time>2020-06-17T12:38:08Z</time>
      </trkpt>
      <trkpt lat="49.30435" lon="-0.06786">
        <ele>75.4</ele>
        <time>2020-06-17T12:38:09Z</time>
      </trkpt>
      <trkpt lat="49.30434" lon="-0.06784">
        <ele>76.3</ele>
        <time>2020-06-17T12:38:10Z</time>
      </trkpt>
      <trkpt lat="49.30433" lon="-0.06783">
        <ele>76.6</ele>
        <time>2020-06-17T12:38:11Z</time>
      </trkpt>
      <trkpt lat="49.30432" lon="-0.06782">
        <ele>76.6</ele>
        <time>2020-06-17T12:38:12Z</time>
      </trkpt>
      <trkpt lat="49.30431" lon="-0.0678">
        <ele>77.5</ele>
        <time>2020-06-17T12:38:13Z</time>
      </trkpt>
      <trkpt lat="49.30429" lon="-0.06778">
        <ele>77.8</ele>
        <time>2020-06-17T12:38:14Z</time>
      </trkpt>
      <trkpt lat="49.30428" lon="-0.06777">
        <ele>77.8</ele>
        <time>2020-06-17T12:38:15Z</time>
      </trkpt>
      <trkpt lat="49.30427" lon="-0.06777">
        <ele>78</ele>
        <time>2020-06-17T12:38:16Z</time>
      </trkpt>
      <trkpt lat="49.30426" lon="-0.06775">
        <ele>78.8</ele>
        <time>2020-06-17T12:38:17Z</time>
      </trkpt>
      <trkpt lat="49.30424" lon="-0.06774">
        <ele>79.1</ele>
        <time>2020-06-17T12:38:18Z</time>
      </trkpt>
      <trkpt lat="49.30423" lon="-0.06774">
        <ele>79.1</ele>
        <time>2020-06-17T12:38:19Z</time>
      </trkpt>
      <trkpt lat="49.30422" lon="-0.06772">
        <ele>79.4</ele>
        <time>2020-06-17T12:38:20Z</time>
      </trkpt>
      <trkpt lat="49.30421" lon="-0.0677">
        <ele>80.1</ele>
        <time>2020-06-17T12:38:21Z</time>
      </trkpt>
      <trkpt lat="49.30419" lon="-0.06769">
        <ele>80.4</ele>
        <time>2020-06-17T12:38:22Z</time>
      </trkpt>
      <trkpt lat="49.30417" lon="-0.06766">
        <ele>81.4</ele>
        <time>2020-06-17T12:38:23Z</time>
      </trkpt>
      <trkpt lat="49.30416" lon="-0.06765">
        <ele>81.4</ele>
        <time>2020-06-17T12:38:24Z</time>
      </trkpt>
      <trkpt lat="49.30414" lon="-0.06762">
        <ele>82.1</ele>
        <time>2020-06-17T12:38:25Z</time>
      </trkpt>
      <trkpt lat="49.3041" lon="-0.0676">
        <ele>82.6</ele>
        <time>2020-06-17T12:38:26Z</time>
      </trkpt>
      <trkpt lat="49.30408" lon="-0.06759">
        <ele>82.6</ele>
        <time>2020-06-17T12:38:27Z</time>
      </trkpt>
      <trkpt lat="49.30406" lon="-0.06757">
        <ele>83.5</ele>
        <time>2020-06-17T12:38:28Z</time>
      </trkpt>
      <trkpt lat="49.30403" lon="-0.06756">
        <ele>83.8</ele>
        <time>2020-06-17T12:38:29Z</time>
      </trkpt>
      <trkpt lat="49.30399" lon="-0.06755">
        <ele>83.9</ele>
        <time>2020-06-17T12:38:30Z</time>
      </trkpt>
      <trkpt lat="49.30396" lon="-0.06754">
        <ele>85</ele>
        <time>2020-06-17T12:38:31Z</time>
      </trkpt>
      <trkpt lat="49.30393" lon="-0.06752">
        <ele>85.1</ele>
        <time>2020-06-17T12:38:32Z</time>
      </trkpt>
      <trkpt lat="49.3039" lon="-0.06751">
        <ele>85.3</ele>
        <time>2020-06-17T12:38:33Z</time>
      </trkpt>
      <trkpt lat="49.30389" lon="-0.06751">
        <ele>85.4</ele>
        <time>2020-06-17T12:38:34Z</time>
      </trkpt>
      <trkpt lat="49.30387" lon="-0.06751">
        <ele>85.4</ele>
        <time>2020-06-17T12:38:35Z</time>
      </trkpt>
      <trkpt lat="49.30385" lon="-0.06751">
        <ele>85.6</ele>
        <time>2020-06-17T12:38:36Z</time>
      </trkpt>
      <trkpt lat="49.30384" lon="-0.06747">
        <ele>86.6</ele>
        <time>2020-06-17T12:38:37Z</time>
      </trkpt>
      <trkpt lat="49.30385" lon="-0.06746">
        <ele>87.8</ele>
        <time>2020-06-17T12:38:38Z</time>
      </trkpt>
      <trkpt lat="49.30385" lon="-0.06744">
        <ele>87.8</ele>
        <time>2020-06-17T12:38:39Z</time>
      </trkpt>
      <trkpt lat="49.30384" lon="-0.06739">
        <ele>88.9</ele>
        <time>2020-06-17T12:38:40Z</time>
      </trkpt>
      <trkpt lat="49.30381" lon="-0.0674">
        <ele>89.1</ele>
        <time>2020-06-17T12:38:41Z</time>
      </trkpt>
      <trkpt lat="49.3038" lon="-0.06741">
        <ele>89.3</ele>
        <time>2020-06-17T12:38:42Z</time>
      </trkpt>
      <trkpt lat="49.30377" lon="-0.0674">
        <ele>89.5</ele>
        <time>2020-06-17T12:38:43Z</time>
      </trkpt>
      <trkpt lat="49.30376" lon="-0.06739">
        <ele>89.5</ele>
        <time>2020-06-17T12:38:44Z</time>
      </trkpt>
      <trkpt lat="49.30375" lon="-0.06738">
        <ele>89.7</ele>
        <time>2020-06-17T12:38:45Z</time>
      </trkpt>
      <trkpt lat="49.30373" lon="-0.06738">
        <ele>89.7</ele>
        <time>2020-06-17T12:38:46Z</time>
      </trkpt>
      <trkpt lat="49.3037" lon="-0.06738">
        <ele>89.9</ele>
        <time>2020-06-17T12:38:47Z</time>
      </trkpt>
      <trkpt lat="49.30368" lon="-0.06738">
        <ele>90</ele>
        <time>2020-06-17T12:38:48Z</time>
      </trkpt>
      <trkpt lat="49.30365" lon="-0.06738">
        <ele>90.2</ele>
        <time>2020-06-17T12:38:49Z</time>
      </trkpt>
      <trkpt lat="49.30364" lon="-0.06738">
        <ele>90.2</ele>
        <time>2020-06-17T12:38:50Z</time>
      </trkpt>
      <trkpt lat="49.30361" lon="-0.06739">
        <ele>90.4</ele>
        <time>2020-06-17T12:38:51Z</time>
      </trkpt>
      <trkpt lat="49.3036" lon="-0.06739">
        <ele>90.4</ele>
        <time>2020-06-17T12:38:52Z</time>
      </trkpt>
      <trkpt lat="49.30357" lon="-0.0674">
        <ele>90.5</ele>
        <time>2020-06-17T12:38:53Z</time>
      </trkpt>
      <trkpt lat="49.30355" lon="-0.06738">
        <ele>90.5</ele>
        <time>2020-06-17T12:38:54Z</time>
      </trkpt>
      <trkpt lat="49.30353" lon="-0.06737">
        <ele>91.5</ele>
        <time>2020-06-17T12:38:55Z</time>
      </trkpt>
      <trkpt lat="49.30351" lon="-0.06736">
        <ele>91.5</ele>
        <time>2020-06-17T12:38:56Z</time>
      </trkpt>
      <trkpt lat="49.30349" lon="-0.06735">
        <ele>91.4</ele>
        <time>2020-06-17T12:38:57Z</time>
      </trkpt>
      <trkpt lat="49.30348" lon="-0.06734">
        <ele>91.4</ele>
        <time>2020-06-17T12:38:58Z</time>
      </trkpt>
      <trkpt lat="49.30345" lon="-0.06731">
        <ele>92.3</ele>
        <time>2020-06-17T12:38:59Z</time>
      </trkpt>
      <trkpt lat="49.30344" lon="-0.0673">
        <ele>92.2</ele>
        <time>2020-06-17T12:39:00Z</time>
      </trkpt>
      <trkpt lat="49.30341" lon="-0.06728">
        <ele>92.9</ele>
        <time>2020-06-17T12:39:01Z</time>
      </trkpt>
      <trkpt lat="49.30339" lon="-0.06724">
        <ele>93.8</ele>
        <time>2020-06-17T12:39:02Z</time>
      </trkpt>
      <trkpt lat="49.30338" lon="-0.06723">
        <ele>93.5</ele>
        <time>2020-06-17T12:39:03Z</time>
      </trkpt>
      <trkpt lat="49.30334" lon="-0.06723">
        <ele>93.3</ele>
        <time>2020-06-17T12:39:04Z</time>
      </trkpt>
      <trkpt lat="49.30332" lon="-0.0672">
        <ele>93.7</ele>
        <time>2020-06-17T12:39:05Z</time>
      </trkpt>
      <trkpt lat="49.3033" lon="-0.06718">
        <ele>93.3</ele>
        <time>2020-06-17T12:39:06Z</time>
      </trkpt>
      <trkpt lat="49.30327" lon="-0.06716">
        <ele>93.6</ele>
        <time>2020-06-17T12:39:07Z</time>
      </trkpt>
      <trkpt lat="49.30323" lon="-0.06714">
        <ele>93.2</ele>
        <time>2020-06-17T12:39:08Z</time>
      </trkpt>
      <trkpt lat="49.30322" lon="-0.06714">
        <ele>92.7</ele>
        <time>2020-06-17T12:39:09Z</time>
      </trkpt>
      <trkpt lat="49.30319" lon="-0.06713">
        <ele>92.1</ele>
        <time>2020-06-17T12:39:10Z</time>
      </trkpt>
      <trkpt lat="49.30315" lon="-0.06713">
        <ele>91.5</ele>
        <time>2020-06-17T12:39:11Z</time>
      </trkpt>
      <trkpt lat="49.30312" lon="-0.06713">
        <ele>90.8</ele>
        <time>2020-06-17T12:39:12Z</time>
      </trkpt>
      <trkpt lat="49.30309" lon="-0.06712">
        <ele>90.9</ele>
        <time>2020-06-17T12:39:13Z</time>
      </trkpt>
      <trkpt lat="49.30308" lon="-0.06711">
        <ele>90.9</ele>
        <time>2020-06-17T12:39:14Z</time>
      </trkpt>
      <trkpt lat="49.30305" lon="-0.06708">
        <ele>90.2</ele>
        <time>2020-06-17T12:39:15Z</time>
      </trkpt>
      <trkpt lat="49.30303" lon="-0.06704">
        <ele>90.2</ele>
        <time>2020-06-17T12:39:16Z</time>
      </trkpt>
      <trkpt lat="49.303" lon="-0.067">
        <ele>90.3</ele>
        <time>2020-06-17T12:39:17Z</time>
      </trkpt>
      <trkpt lat="49.30299" lon="-0.06698">
        <ele>90.5</ele>
        <time>2020-06-17T12:39:18Z</time>
      </trkpt>
      <trkpt lat="49.30297" lon="-0.06694">
        <ele>91.3</ele>
        <time>2020-06-17T12:39:19Z</time>
      </trkpt>
      <trkpt lat="49.30295" lon="-0.0669">
        <ele>91.5</ele>
        <time>2020-06-17T12:39:20Z</time>
      </trkpt>
      <trkpt lat="49.30292" lon="-0.06685">
        <ele>91.7</ele>
        <time>2020-06-17T12:39:21Z</time>
      </trkpt>
      <trkpt lat="49.30288" lon="-0.06686">
        <ele>91.1</ele>
        <time>2020-06-17T12:39:22Z</time>
      </trkpt>
      <trkpt lat="49.30285" lon="-0.06687">
        <ele>89.6</ele>
        <time>2020-06-17T12:39:23Z</time>
      </trkpt>
      <trkpt lat="49.30282" lon="-0.06688">
        <ele>88.4</ele>
        <time>2020-06-17T12:39:24Z</time>
      </trkpt>
      <trkpt lat="49.30279" lon="-0.06687">
        <ele>87.8</ele>
        <time>2020-06-17T12:39:25Z</time>
      </trkpt>
      <trkpt lat="49.30276" lon="-0.06685">
        <ele>87.9</ele>
        <time>2020-06-17T12:39:26Z</time>
      </trkpt>
      <trkpt lat="49.30273" lon="-0.06682">
        <ele>87.9</ele>
        <time>2020-06-17T12:39:27Z</time>
      </trkpt>
      <trkpt lat="49.30271" lon="-0.06677">
        <ele>87.9</ele>
        <time>2020-06-17T12:39:28Z</time>
      </trkpt>
      <trkpt lat="49.30269" lon="-0.06675">
        <ele>87.9</ele>
        <time>2020-06-17T12:39:29Z</time>
      </trkpt>
      <trkpt lat="49.30266" lon="-0.06673">
        <ele>87.8</ele>
        <time>2020-06-17T12:39:30Z</time>
      </trkpt>
      <trkpt lat="49.30263" lon="-0.06671">
        <ele>87.2</ele>
        <time>2020-06-17T12:39:31Z</time>
      </trkpt>
      <trkpt lat="49.30261" lon="-0.0667">
        <ele>86.5</ele>
        <time>2020-06-17T12:39:32Z</time>
      </trkpt>
      <trkpt lat="49.30258" lon="-0.06667">
        <ele>86.3</ele>
        <time>2020-06-17T12:39:33Z</time>
      </trkpt>
      <trkpt lat="49.30256" lon="-0.06664">
        <ele>86</ele>
        <time>2020-06-17T12:39:34Z</time>
      </trkpt>
      <trkpt lat="49.30254" lon="-0.06661">
        <ele>85.3</ele>
        <time>2020-06-17T12:39:35Z</time>
      </trkpt>
      <trkpt lat="49.30253" lon="-0.06659">
        <ele>85.7</ele>
        <time>2020-06-17T12:39:36Z</time>
      </trkpt>
      <trkpt lat="49.3025" lon="-0.06656">
        <ele>85.5</ele>
        <time>2020-06-17T12:39:37Z</time>
      </trkpt>
      <trkpt lat="49.30249" lon="-0.06653">
        <ele>84.8</ele>
        <time>2020-06-17T12:39:38Z</time>
      </trkpt>
      <trkpt lat="49.30245" lon="-0.06649">
        <ele>84.8</ele>
        <time>2020-06-17T12:39:39Z</time>
      </trkpt>
      <trkpt lat="49.30243" lon="-0.06645">
        <ele>84.9</ele>
        <time>2020-06-17T12:39:40Z</time>
      </trkpt>
      <trkpt lat="49.30241" lon="-0.0664">
        <ele>85.5</ele>
        <time>2020-06-17T12:39:41Z</time>
      </trkpt>
      <trkpt lat="49.30239" lon="-0.06634">
        <ele>86.4</ele>
        <time>2020-06-17T12:39:42Z</time>
      </trkpt>
      <trkpt lat="49.30236" lon="-0.06629">
        <ele>86.5</ele>
        <time>2020-06-17T12:39:43Z</time>
      </trkpt>
      <trkpt lat="49.30233" lon="-0.06624">
        <ele>86.7</ele>
        <time>2020-06-17T12:39:44Z</time>
      </trkpt>
      <trkpt lat="49.30231" lon="-0.0662">
        <ele>86.8</ele>
        <time>2020-06-17T12:39:45Z</time>
      </trkpt>
      <trkpt lat="49.30228" lon="-0.06614">
        <ele>87</ele>
        <time>2020-06-17T12:39:46Z</time>
      </trkpt>
      <trkpt lat="49.30226" lon="-0.06611">
        <ele>87.1</ele>
        <time>2020-06-17T12:39:47Z</time>
      </trkpt>
      <trkpt lat="49.30224" lon="-0.06608">
        <ele>87.2</ele>
        <time>2020-06-17T12:39:48Z</time>
      </trkpt>
      <trkpt lat="49.30222" lon="-0.06603">
        <ele>87.4</ele>
        <time>2020-06-17T12:39:49Z</time>
      </trkpt>
      <trkpt lat="49.30221" lon="-0.06599">
        <ele>87.5</ele>
        <time>2020-06-17T12:39:50Z</time>
      </trkpt>
      <trkpt lat="49.30221" lon="-0.06594">
        <ele>87.6</ele>
        <time>2020-06-17T12:39:51Z</time>
      </trkpt>
      <trkpt lat="49.3022" lon="-0.06589">
        <ele>87.7</ele>
        <time>2020-06-17T12:39:52Z</time>
      </trkpt>
      <trkpt lat="49.30219" lon="-0.06584">
        <ele>87.8</ele>
        <time>2020-06-17T12:39:53Z</time>
      </trkpt>
      <trkpt lat="49.30217" lon="-0.0658">
        <ele>87.9</ele>
        <time>2020-06-17T12:39:54Z</time>
      </trkpt>
      <trkpt lat="49.30216" lon="-0.06577">
        <ele>87.9</ele>
        <time>2020-06-17T12:39:55Z</time>
      </trkpt>
      <trkpt lat="49.30215" lon="-0.06571">
        <ele>88</ele>
        <time>2020-06-17T12:39:56Z</time>
      </trkpt>
      <trkpt lat="49.30215" lon="-0.0657">
        <ele>88</ele>
        <time>2020-06-17T12:39:57Z</time>
      </trkpt>
      <trkpt lat="49.30215" lon="-0.06565">
        <ele>88.1</ele>
        <time>2020-06-17T12:39:58Z</time>
      </trkpt>
      <trkpt lat="49.30215" lon="-0.06563">
        <ele>88.1</ele>
        <time>2020-06-17T12:39:59Z</time>
      </trkpt>
      <trkpt lat="49.30216" lon="-0.06558">
        <ele>88.2</ele>
        <time>2020-06-17T12:40:00Z</time>
      </trkpt>
      <trkpt lat="49.30216" lon="-0.06557">
        <ele>88.2</ele>
        <time>2020-06-17T12:40:01Z</time>
      </trkpt>
      <trkpt lat="49.30216" lon="-0.06553">
        <ele>88.2</ele>
        <time>2020-06-17T12:40:02Z</time>
      </trkpt>
      <trkpt lat="49.30216" lon="-0.06547">
        <ele>88.3</ele>
        <time>2020-06-17T12:40:03Z</time>
      </trkpt>
      <trkpt lat="49.30216" lon="-0.06542">
        <ele>88.4</ele>
        <time>2020-06-17T12:40:04Z</time>
      </trkpt>
      <trkpt lat="49.30216" lon="-0.06537">
        <ele>88.4</ele>
        <time>2020-06-17T12:40:05Z</time>
      </trkpt>
      <trkpt lat="49.30216" lon="-0.06535">
        <ele>88.4</ele>
        <time>2020-06-17T12:40:06Z</time>
      </trkpt>
      <trkpt lat="49.30215" lon="-0.06532">
        <ele>88.5</ele>
        <time>2020-06-17T12:40:07Z</time>
      </trkpt>
      <trkpt lat="49.30214" lon="-0.06528">
        <ele>88.5</ele>
        <time>2020-06-17T12:40:08Z</time>
      </trkpt>
      <trkpt lat="49.30214" lon="-0.06526">
        <ele>88.6</ele>
        <time>2020-06-17T12:40:09Z</time>
      </trkpt>
      <trkpt lat="49.30213" lon="-0.0652">
        <ele>88.6</ele>
        <time>2020-06-17T12:40:10Z</time>
      </trkpt>
      <trkpt lat="49.30211" lon="-0.06516">
        <ele>88.7</ele>
        <time>2020-06-17T12:40:11Z</time>
      </trkpt>
      <trkpt lat="49.30211" lon="-0.06514">
        <ele>88.7</ele>
        <time>2020-06-17T12:40:12Z</time>
      </trkpt>
      <trkpt lat="49.3021" lon="-0.06512">
        <ele>88.8</ele>
        <time>2020-06-17T12:40:13Z</time>
      </trkpt>
      <trkpt lat="49.30209" lon="-0.06511">
        <ele>88.8</ele>
        <time>2020-06-17T12:40:14Z</time>
      </trkpt>
      <trkpt lat="49.30208" lon="-0.0651">
        <ele>88.8</ele>
        <time>2020-06-17T12:40:15Z</time>
      </trkpt>
      <trkpt lat="49.30207" lon="-0.06509">
        <ele>88.8</ele>
        <time>2020-06-17T12:40:16Z</time>
      </trkpt>
      <trkpt lat="49.30206" lon="-0.06506">
        <ele>88.9</ele>
        <time>2020-06-17T12:40:17Z</time>
      </trkpt>
      <trkpt lat="49.30207" lon="-0.06503">
        <ele>88.9</ele>
        <time>2020-06-17T12:40:18Z</time>
      </trkpt>
      <trkpt lat="49.30207" lon="-0.06498">
        <ele>89</ele>
        <time>2020-06-17T12:40:19Z</time>
      </trkpt>
      <trkpt lat="49.30207" lon="-0.06496">
        <ele>89.1</ele>
        <time>2020-06-17T12:40:20Z</time>
      </trkpt>
      <trkpt lat="49.30206" lon="-0.06491">
        <ele>89.2</ele>
        <time>2020-06-17T12:40:21Z</time>
      </trkpt>
      <trkpt lat="49.30206" lon="-0.06489">
        <ele>89.2</ele>
        <time>2020-06-17T12:40:22Z</time>
      </trkpt>
      <trkpt lat="49.30204" lon="-0.06483">
        <ele>89.3</ele>
        <time>2020-06-17T12:40:23Z</time>
      </trkpt>
      <trkpt lat="49.30203" lon="-0.06481">
        <ele>89.4</ele>
        <time>2020-06-17T12:40:24Z</time>
      </trkpt>
      <trkpt lat="49.30201" lon="-0.06476">
        <ele>89.5</ele>
        <time>2020-06-17T12:40:25Z</time>
      </trkpt>
      <trkpt lat="49.30199" lon="-0.0647">
        <ele>89.7</ele>
        <time>2020-06-17T12:40:26Z</time>
      </trkpt>
      <trkpt lat="49.30198" lon="-0.06467">
        <ele>89.8</ele>
        <time>2020-06-17T12:40:27Z</time>
      </trkpt>
      <trkpt lat="49.30196" lon="-0.06463">
        <ele>89.9</ele>
        <time>2020-06-17T12:40:28Z</time>
      </trkpt>
      <trkpt lat="49.30195" lon="-0.06458">
        <ele>90</ele>
        <time>2020-06-17T12:40:29Z</time>
      </trkpt>
      <trkpt lat="49.30192" lon="-0.06454">
        <ele>90.2</ele>
        <time>2020-06-17T12:40:30Z</time>
      </trkpt>
      <trkpt lat="49.30192" lon="-0.06449">
        <ele>90.3</ele>
        <time>2020-06-17T12:40:31Z</time>
      </trkpt>
      <trkpt lat="49.30191" lon="-0.06445">
        <ele>90.5</ele>
        <time>2020-06-17T12:40:32Z</time>
      </trkpt>
      <trkpt lat="49.30191" lon="-0.06439">
        <ele>90.6</ele>
        <time>2020-06-17T12:40:33Z</time>
      </trkpt>
      <trkpt lat="49.3019" lon="-0.06435">
        <ele>90.7</ele>
        <time>2020-06-17T12:40:34Z</time>
      </trkpt>
      <trkpt lat="49.30189" lon="-0.0643">
        <ele>90.9</ele>
        <time>2020-06-17T12:40:35Z</time>
      </trkpt>
      <trkpt lat="49.30188" lon="-0.06424">
        <ele>91.1</ele>
        <time>2020-06-17T12:40:36Z</time>
      </trkpt>
      <trkpt lat="49.30188" lon="-0.06422">
        <ele>91.2</ele>
        <time>2020-06-17T12:40:37Z</time>
      </trkpt>
      <trkpt lat="49.30187" lon="-0.06417">
        <ele>91.3</ele>
        <time>2020-06-17T12:40:38Z</time>
      </trkpt>
      <trkpt lat="49.30185" lon="-0.06416">
        <ele>91.4</ele>
        <time>2020-06-17T12:40:39Z</time>
      </trkpt>
      <trkpt lat="49.30185" lon="-0.06414">
        <ele>91.5</ele>
        <time>2020-06-17T12:40:40Z</time>
      </trkpt>
      <trkpt lat="49.30184" lon="-0.06409">
        <ele>91.7</ele>
        <time>2020-06-17T12:40:41Z</time>
      </trkpt>
      <trkpt lat="49.30184" lon="-0.06408">
        <ele>91.7</ele>
        <time>2020-06-17T12:40:42Z</time>
      </trkpt>
      <trkpt lat="49.30183" lon="-0.06402">
        <ele>92</ele>
        <time>2020-06-17T12:40:43Z</time>
      </trkpt>
      <trkpt lat="49.30183" lon="-0.064">
        <ele>92.1</ele>
        <time>2020-06-17T12:40:44Z</time>
      </trkpt>
      <trkpt lat="49.30182" lon="-0.06395">
        <ele>92.2</ele>
        <time>2020-06-17T12:40:45Z</time>
      </trkpt>
      <trkpt lat="49.30182" lon="-0.06391">
        <ele>92.4</ele>
        <time>2020-06-17T12:40:46Z</time>
      </trkpt>
      <trkpt lat="49.30183" lon="-0.06386">
        <ele>92.7</ele>
        <time>2020-06-17T12:40:47Z</time>
      </trkpt>
      <trkpt lat="49.30183" lon="-0.06384">
        <ele>92.8</ele>
        <time>2020-06-17T12:40:48Z</time>
      </trkpt>
      <trkpt lat="49.30183" lon="-0.06378">
        <ele>93</ele>
        <time>2020-06-17T12:40:49Z</time>
      </trkpt>
      <trkpt lat="49.30183" lon="-0.06373">
        <ele>93.3</ele>
        <time>2020-06-17T12:40:50Z</time>
      </trkpt>
      <trkpt lat="49.30182" lon="-0.06367">
        <ele>93.6</ele>
        <time>2020-06-17T12:40:51Z</time>
      </trkpt>
      <trkpt lat="49.30181" lon="-0.06361">
        <ele>93.8</ele>
        <time>2020-06-17T12:40:52Z</time>
      </trkpt>
      <trkpt lat="49.3018" lon="-0.06359">
        <ele>93.9</ele>
        <time>2020-06-17T12:40:53Z</time>
      </trkpt>
      <trkpt lat="49.30177" lon="-0.06356">
        <ele>94.2</ele>
        <time>2020-06-17T12:40:54Z</time>
      </trkpt>
      <trkpt lat="49.30176" lon="-0.06355">
        <ele>94.3</ele>
        <time>2020-06-17T12:40:55Z</time>
      </trkpt>
      <trkpt lat="49.30175" lon="-0.06351">
        <ele>94.5</ele>
        <time>2020-06-17T12:40:56Z</time>
      </trkpt>
      <trkpt lat="49.30174" lon="-0.06345">
        <ele>94.8</ele>
        <time>2020-06-17T12:40:57Z</time>
      </trkpt>
      <trkpt lat="49.30172" lon="-0.06339">
        <ele>95.1</ele>
        <time>2020-06-17T12:40:58Z</time>
      </trkpt>
      <trkpt lat="49.3017" lon="-0.06331">
        <ele>95.4</ele>
        <time>2020-06-17T12:40:59Z</time>
      </trkpt>
      <trkpt lat="49.30169" lon="-0.06322">
        <ele>95.8</ele>
        <time>2020-06-17T12:41:00Z</time>
      </trkpt>
      <trkpt lat="49.30166" lon="-0.06313">
        <ele>96.3</ele>
        <time>2020-06-17T12:41:01Z</time>
      </trkpt>
      <trkpt lat="49.30165" lon="-0.06305">
        <ele>96.6</ele>
        <time>2020-06-17T12:41:02Z</time>
      </trkpt>
      <trkpt lat="49.30163" lon="-0.06298">
        <ele>97</ele>
        <time>2020-06-17T12:41:03Z</time>
      </trkpt>
      <trkpt lat="49.30161" lon="-0.06289">
        <ele>97.3</ele>
        <time>2020-06-17T12:41:04Z</time>
      </trkpt>
      <trkpt lat="49.3016" lon="-0.06283">
        <ele>97.6</ele>
        <time>2020-06-17T12:41:05Z</time>
      </trkpt>
      <trkpt lat="49.30161" lon="-0.06276">
        <ele>97.9</ele>
        <time>2020-06-17T12:41:06Z</time>
      </trkpt>
      <trkpt lat="49.30161" lon="-0.06271">
        <ele>98.1</ele>
        <time>2020-06-17T12:41:07Z</time>
      </trkpt>
      <trkpt lat="49.3016" lon="-0.06266">
        <ele>98.2</ele>
        <time>2020-06-17T12:41:08Z</time>
      </trkpt>
      <trkpt lat="49.3016" lon="-0.0626">
        <ele>98.4</ele>
        <time>2020-06-17T12:41:09Z</time>
      </trkpt>
      <trkpt lat="49.3016" lon="-0.06254">
        <ele>98.6</ele>
        <time>2020-06-17T12:41:10Z</time>
      </trkpt>
      <trkpt lat="49.3016" lon="-0.06247">
        <ele>98.8</ele>
        <time>2020-06-17T12:41:11Z</time>
      </trkpt>
      <trkpt lat="49.3016" lon="-0.06239">
        <ele>99.1</ele>
        <time>2020-06-17T12:41:12Z</time>
      </trkpt>
      <trkpt lat="49.3016" lon="-0.06231">
        <ele>99.4</ele>
        <time>2020-06-17T12:41:13Z</time>
      </trkpt>
      <trkpt lat="49.3016" lon="-0.06227">
        <ele>99.6</ele>
        <time>2020-06-17T12:41:14Z</time>
      </trkpt>
      <trkpt lat="49.3016" lon="-0.06221">
        <ele>99.8</ele>
        <time>2020-06-17T12:41:15Z</time>
      </trkpt>
      <trkpt lat="49.3016" lon="-0.06216">
        <ele>100</ele>
        <time>2020-06-17T12:41:16Z</time>
      </trkpt>
      <trkpt lat="49.30161" lon="-0.06211">
        <ele>100.1</ele>
        <time>2020-06-17T12:41:17Z</time>
      </trkpt>
      <trkpt lat="49.30161" lon="-0.06206">
        <ele>100.3</ele>
        <time>2020-06-17T12:41:18Z</time>
      </trkpt>
      <trkpt lat="49.30162" lon="-0.06201">
        <ele>100.5</ele>
        <time>2020-06-17T12:41:19Z</time>
      </trkpt>
      <trkpt lat="49.30162" lon="-0.06197">
        <ele>100.6</ele>
        <time>2020-06-17T12:41:20Z</time>
      </trkpt>
      <trkpt lat="49.30163" lon="-0.06193">
        <ele>100.8</ele>
        <time>2020-06-17T12:41:21Z</time>
      </trkpt>
      <trkpt lat="49.30164" lon="-0.06188">
        <ele>100.9</ele>
        <time>2020-06-17T12:41:22Z</time>
      </trkpt>
      <trkpt lat="49.30164" lon="-0.06182">
        <ele>101.1</ele>
        <time>2020-06-17T12:41:23Z</time>
      </trkpt>
      <trkpt lat="49.30164" lon="-0.0618">
        <ele>101.2</ele>
        <time>2020-06-17T12:41:24Z</time>
      </trkpt>
      <trkpt lat="49.30165" lon="-0.06175">
        <ele>101.4</ele>
        <time>2020-06-17T12:41:25Z</time>
      </trkpt>
      <trkpt lat="49.30165" lon="-0.06169">
        <ele>101.6</ele>
        <time>2020-06-17T12:41:26Z</time>
      </trkpt>
      <trkpt lat="49.30166" lon="-0.06164">
        <ele>101.8</ele>
        <time>2020-06-17T12:41:27Z</time>
      </trkpt>
      <trkpt lat="49.30166" lon="-0.0616">
        <ele>102</ele>
        <time>2020-06-17T12:41:28Z</time>
      </trkpt>
      <trkpt lat="49.30168" lon="-0.06156">
        <ele>102.2</ele>
        <time>2020-06-17T12:41:29Z</time>
      </trkpt>
      <trkpt lat="49.30168" lon="-0.06151">
        <ele>102.3</ele>
        <time>2020-06-17T12:41:30Z</time>
      </trkpt>
      <trkpt lat="49.30168" lon="-0.06146">
        <ele>102.5</ele>
        <time>2020-06-17T12:41:31Z</time>
      </trkpt>
      <trkpt lat="49.30169" lon="-0.06141">
        <ele>102.6</ele>
        <time>2020-06-17T12:41:32Z</time>
      </trkpt>
      <trkpt lat="49.30168" lon="-0.06137">
        <ele>102.8</ele>
        <time>2020-06-17T12:41:33Z</time>
      </trkpt>
      <trkpt lat="49.30169" lon="-0.06131">
        <ele>103</ele>
        <time>2020-06-17T12:41:34Z</time>
      </trkpt>
      <trkpt lat="49.30169" lon="-0.06129">
        <ele>103.1</ele>
        <time>2020-06-17T12:41:35Z</time>
      </trkpt>
      <trkpt lat="49.30168" lon="-0.06125">
        <ele>103.2</ele>
        <time>2020-06-17T12:41:36Z</time>
      </trkpt>
      <trkpt lat="49.30168" lon="-0.06122">
        <ele>103.3</ele>
        <time>2020-06-17T12:41:37Z</time>
      </trkpt>
      <trkpt lat="49.30168" lon="-0.06119">
        <ele>103.4</ele>
        <time>2020-06-17T12:41:38Z</time>
      </trkpt>
      <trkpt lat="49.30168" lon="-0.06115">
        <ele>103.5</ele>
        <time>2020-06-17T12:41:39Z</time>
      </trkpt>
      <trkpt lat="49.30168" lon="-0.06114">
        <ele>103.6</ele>
        <time>2020-06-17T12:41:40Z</time>
      </trkpt>
      <trkpt lat="49.30168" lon="-0.06112">
        <ele>103.7</ele>
        <time>2020-06-17T12:41:41Z</time>
      </trkpt>
      <trkpt lat="49.30168" lon="-0.06109">
        <ele>103.8</ele>
        <time>2020-06-17T12:41:42Z</time>
      </trkpt>
      <trkpt lat="49.30169" lon="-0.06103">
        <ele>104</ele>
        <time>2020-06-17T12:41:43Z</time>
      </trkpt>
      <trkpt lat="49.30169" lon="-0.06101">
        <ele>104</ele>
        <time>2020-06-17T12:41:44Z</time>
      </trkpt>
      <trkpt lat="49.30169" lon="-0.06095">
        <ele>104.2</ele>
        <time>2020-06-17T12:41:45Z</time>
      </trkpt>
      <trkpt lat="49.30169" lon="-0.06093">
        <ele>104.3</ele>
        <time>2020-06-17T12:41:46Z</time>
      </trkpt>
      <trkpt lat="49.30169" lon="-0.06088">
        <ele>104.5</ele>
        <time>2020-06-17T12:41:47Z</time>
      </trkpt>
      <trkpt lat="49.30169" lon="-0.06084">
        <ele>104.6</ele>
        <time>2020-06-17T12:41:48Z</time>
      </trkpt>
      <trkpt lat="49.3017" lon="-0.06079">
        <ele>104.8</ele>
        <time>2020-06-17T12:41:49Z</time>
      </trkpt>
      <trkpt lat="49.30171" lon="-0.06078">
        <ele>104.8</ele>
        <time>2020-06-17T12:41:50Z</time>
      </trkpt>
      <trkpt lat="49.30171" lon="-0.06073">
        <ele>105</ele>
        <time>2020-06-17T12:41:51Z</time>
      </trkpt>
      <trkpt lat="49.30171" lon="-0.06069">
        <ele>105.1</ele>
        <time>2020-06-17T12:41:52Z</time>
      </trkpt>
      <trkpt lat="49.30171" lon="-0.06064">
        <ele>105.3</ele>
        <time>2020-06-17T12:41:53Z</time>
      </trkpt>
      <trkpt lat="49.30172" lon="-0.06059">
        <ele>105.5</ele>
        <time>2020-06-17T12:41:54Z</time>
      </trkpt>
      <trkpt lat="49.30172" lon="-0.06052">
        <ele>105.7</ele>
        <time>2020-06-17T12:41:55Z</time>
      </trkpt>
      <trkpt lat="49.30173" lon="-0.06049">
        <ele>105.8</ele>
        <time>2020-06-17T12:41:56Z</time>
      </trkpt>
      <trkpt lat="49.30173" lon="-0.06044">
        <ele>106</ele>
        <time>2020-06-17T12:41:57Z</time>
      </trkpt>
      <trkpt lat="49.30173" lon="-0.06039">
        <ele>106.2</ele>
        <time>2020-06-17T12:41:58Z</time>
      </trkpt>
      <trkpt lat="49.30174" lon="-0.06033">
        <ele>106.4</ele>
        <time>2020-06-17T12:41:59Z</time>
      </trkpt>
      <trkpt lat="49.30173" lon="-0.06031">
        <ele>106.5</ele>
        <time>2020-06-17T12:42:00Z</time>
      </trkpt>
      <trkpt lat="49.30173" lon="-0.06025">
        <ele>106.7</ele>
        <time>2020-06-17T12:42:01Z</time>
      </trkpt>
      <trkpt lat="49.30173" lon="-0.06023">
        <ele>106.8</ele>
        <time>2020-06-17T12:42:02Z</time>
      </trkpt>
      <trkpt lat="49.30172" lon="-0.06018">
        <ele>107</ele>
        <time>2020-06-17T12:42:03Z</time>
      </trkpt>
      <trkpt lat="49.30172" lon="-0.06016">
        <ele>107.1</ele>
        <time>2020-06-17T12:42:04Z</time>
      </trkpt>
      <trkpt lat="49.30172" lon="-0.06011">
        <ele>107.2</ele>
        <time>2020-06-17T12:42:05Z</time>
      </trkpt>
      <trkpt lat="49.30171" lon="-0.06005">
        <ele>107.5</ele>
        <time>2020-06-17T12:42:06Z</time>
      </trkpt>
      <trkpt lat="49.30171" lon="-0.05998">
        <ele>107.7</ele>
        <time>2020-06-17T12:42:07Z</time>
      </trkpt>
      <trkpt lat="49.3017" lon="-0.05992">
        <ele>107.9</ele>
        <time>2020-06-17T12:42:08Z</time>
      </trkpt>
      <trkpt lat="49.3017" lon="-0.0599">
        <ele>108</ele>
        <time>2020-06-17T12:42:09Z</time>
      </trkpt>
      <trkpt lat="49.3017" lon="-0.05986">
        <ele>108.2</ele>
        <time>2020-06-17T12:42:10Z</time>
      </trkpt>
      <trkpt lat="49.30171" lon="-0.0598">
        <ele>108.4</ele>
        <time>2020-06-17T12:42:11Z</time>
      </trkpt>
      <trkpt lat="49.30171" lon="-0.05975">
        <ele>108.6</ele>
        <time>2020-06-17T12:42:12Z</time>
      </trkpt>
      <trkpt lat="49.30172" lon="-0.05973">
        <ele>108.6</ele>
        <time>2020-06-17T12:42:13Z</time>
      </trkpt>
      <trkpt lat="49.30172" lon="-0.05969">
        <ele>108.8</ele>
        <time>2020-06-17T12:42:14Z</time>
      </trkpt>
      <trkpt lat="49.30173" lon="-0.05967">
        <ele>108.9</ele>
        <time>2020-06-17T12:42:15Z</time>
      </trkpt>
      <trkpt lat="49.30175" lon="-0.05963">
        <ele>109</ele>
        <time>2020-06-17T12:42:16Z</time>
      </trkpt>
      <trkpt lat="49.30176" lon="-0.05962">
        <ele>109.1</ele>
        <time>2020-06-17T12:42:17Z</time>
      </trkpt>
      <trkpt lat="49.30178" lon="-0.05957">
        <ele>109.3</ele>
        <time>2020-06-17T12:42:18Z</time>
      </trkpt>
      <trkpt lat="49.30178" lon="-0.05955">
        <ele>109.4</ele>
        <time>2020-06-17T12:42:19Z</time>
      </trkpt>
      <trkpt lat="49.30179" lon="-0.05953">
        <ele>109.4</ele>
        <time>2020-06-17T12:42:20Z</time>
      </trkpt>
      <trkpt lat="49.30179" lon="-0.0595">
        <ele>109.5</ele>
        <time>2020-06-17T12:42:21Z</time>
      </trkpt>
      <trkpt lat="49.30179" lon="-0.05943">
        <ele>109.8</ele>
        <time>2020-06-17T12:42:22Z</time>
      </trkpt>
      <trkpt lat="49.3018" lon="-0.05937">
        <ele>110</ele>
        <time>2020-06-17T12:42:23Z</time>
      </trkpt>
      <trkpt lat="49.30181" lon="-0.05932">
        <ele>110.2</ele>
        <time>2020-06-17T12:42:24Z</time>
      </trkpt>
      <trkpt lat="49.3018" lon="-0.05927">
        <ele>110.3</ele>
        <time>2020-06-17T12:42:25Z</time>
      </trkpt>
      <trkpt lat="49.3018" lon="-0.05925">
        <ele>110.3</ele>
        <time>2020-06-17T12:42:26Z</time>
      </trkpt>
      <trkpt lat="49.3018" lon="-0.05925">
        <ele>110.3</ele>
        <time>2020-06-17T12:42:27Z</time>
      </trkpt>
      <trkpt lat="49.3018" lon="-0.05925">
        <ele>110.3</ele>
        <time>2020-06-17T12:42:28Z</time>
      </trkpt>
      <trkpt lat="49.3018" lon="-0.05925">
        <ele>110.3</ele>
        <time>2020-06-17T12:42:29Z</time>
      </trkpt>
      <trkpt lat="49.30181" lon="-0.05911">
        <ele>110.7</ele>
        <time>2020-06-17T12:42:38Z</time>
      </trkpt>
      <trkpt lat="49.30183" lon="-0.05905">
        <ele>110.8</ele>
        <time>2020-06-17T12:42:39Z</time>
      </trkpt>
      <trkpt lat="49.30184" lon="-0.059">
        <ele>110.9</ele>
        <time>2020-06-17T12:42:40Z</time>
      </trkpt>
      <trkpt lat="49.30186" lon="-0.05895">
        <ele>111</ele>
        <time>2020-06-17T12:42:41Z</time>
      </trkpt>
      <trkpt lat="49.30187" lon="-0.0589">
        <ele>111.1</ele>
        <time>2020-06-17T12:42:42Z</time>
      </trkpt>
      <trkpt lat="49.30188" lon="-0.05884">
        <ele>111.2</ele>
        <time>2020-06-17T12:42:43Z</time>
      </trkpt>
      <trkpt lat="49.3019" lon="-0.05879">
        <ele>111.2</ele>
        <time>2020-06-17T12:42:44Z</time>
      </trkpt>
      <trkpt lat="49.30192" lon="-0.05874">
        <ele>111.2</ele>
        <time>2020-06-17T12:42:45Z</time>
      </trkpt>
      <trkpt lat="49.30194" lon="-0.05869">
        <ele>111.2</ele>
        <time>2020-06-17T12:42:46Z</time>
      </trkpt>
      <trkpt lat="49.30196" lon="-0.05863">
        <ele>111.2</ele>
        <time>2020-06-17T12:42:47Z</time>
      </trkpt>
      <trkpt lat="49.30199" lon="-0.05857">
        <ele>111.2</ele>
        <time>2020-06-17T12:42:48Z</time>
      </trkpt>
      <trkpt lat="49.30201" lon="-0.05851">
        <ele>111.2</ele>
        <time>2020-06-17T12:42:49Z</time>
      </trkpt>
      <trkpt lat="49.30204" lon="-0.05843">
        <ele>111.1</ele>
        <time>2020-06-17T12:42:50Z</time>
      </trkpt>
      <trkpt lat="49.30206" lon="-0.05836">
        <ele>111</ele>
        <time>2020-06-17T12:42:51Z</time>
      </trkpt>
      <trkpt lat="49.30209" lon="-0.05831">
        <ele>110.9</ele>
        <time>2020-06-17T12:42:52Z</time>
      </trkpt>
      <trkpt lat="49.30212" lon="-0.05826">
        <ele>110.8</ele>
        <time>2020-06-17T12:42:53Z</time>
      </trkpt>
      <trkpt lat="49.30215" lon="-0.05821">
        <ele>110.6</ele>
        <time>2020-06-17T12:42:54Z</time>
      </trkpt>
      <trkpt lat="49.30217" lon="-0.05816">
        <ele>110.4</ele>
        <time>2020-06-17T12:42:55Z</time>
      </trkpt>
      <trkpt lat="49.30221" lon="-0.05811">
        <ele>110.2</ele>
        <time>2020-06-17T12:42:56Z</time>
      </trkpt>
      <trkpt lat="49.30224" lon="-0.05805">
        <ele>110</ele>
        <time>2020-06-17T12:42:57Z</time>
      </trkpt>
      <trkpt lat="49.30228" lon="-0.05799">
        <ele>109.8</ele>
        <time>2020-06-17T12:42:58Z</time>
      </trkpt>
      <trkpt lat="49.30232" lon="-0.05793">
        <ele>109.6</ele>
        <time>2020-06-17T12:42:59Z</time>
      </trkpt>
      <trkpt lat="49.30237" lon="-0.05787">
        <ele>109.3</ele>
        <time>2020-06-17T12:43:00Z</time>
      </trkpt>
      <trkpt lat="49.30241" lon="-0.05783">
        <ele>109.1</ele>
        <time>2020-06-17T12:43:01Z</time>
      </trkpt>
      <trkpt lat="49.30246" lon="-0.0578">
        <ele>108.8</ele>
        <time>2020-06-17T12:43:02Z</time>
      </trkpt>
      <trkpt lat="49.30251" lon="-0.05777">
        <ele>108.6</ele>
        <time>2020-06-17T12:43:03Z</time>
      </trkpt>
      <trkpt lat="49.30255" lon="-0.05774">
        <ele>108.4</ele>
        <time>2020-06-17T12:43:04Z</time>
      </trkpt>
      <trkpt lat="49.3026" lon="-0.05773">
        <ele>108.2</ele>
        <time>2020-06-17T12:43:05Z</time>
      </trkpt>
      <trkpt lat="49.30265" lon="-0.05771">
        <ele>108.1</ele>
        <time>2020-06-17T12:43:06Z</time>
      </trkpt>
      <trkpt lat="49.30271" lon="-0.05769">
        <ele>108.1</ele>
        <time>2020-06-17T12:43:07Z</time>
      </trkpt>
      <trkpt lat="49.30276" lon="-0.05767">
        <ele>108.4</ele>
        <time>2020-06-17T12:43:08Z</time>
      </trkpt>
      <trkpt lat="49.30282" lon="-0.05764">
        <ele>108.6</ele>
        <time>2020-06-17T12:43:09Z</time>
      </trkpt>
      <trkpt lat="49.30286" lon="-0.05763">
        <ele>108.8</ele>
        <time>2020-06-17T12:43:10Z</time>
      </trkpt>
      <trkpt lat="49.30289" lon="-0.05762">
        <ele>108.9</ele>
        <time>2020-06-17T12:43:11Z</time>
      </trkpt>
      <trkpt lat="49.30292" lon="-0.0576">
        <ele>109</ele>
        <time>2020-06-17T12:43:12Z</time>
      </trkpt>
      <trkpt lat="49.30295" lon="-0.0576">
        <ele>109.2</ele>
        <time>2020-06-17T12:43:13Z</time>
      </trkpt>
      <trkpt lat="49.30299" lon="-0.05759">
        <ele>109.4</ele>
        <time>2020-06-17T12:43:14Z</time>
      </trkpt>
      <trkpt lat="49.30302" lon="-0.05758">
        <ele>109.5</ele>
        <time>2020-06-17T12:43:15Z</time>
      </trkpt>
      <trkpt lat="49.30305" lon="-0.05756">
        <ele>109.7</ele>
        <time>2020-06-17T12:43:16Z</time>
      </trkpt>
      <trkpt lat="49.30308" lon="-0.05756">
        <ele>109.8</ele>
        <time>2020-06-17T12:43:17Z</time>
      </trkpt>
      <trkpt lat="49.30312" lon="-0.05756">
        <ele>110</ele>
        <time>2020-06-17T12:43:18Z</time>
      </trkpt>
      <trkpt lat="49.30313" lon="-0.05757">
        <ele>110.1</ele>
        <time>2020-06-17T12:43:19Z</time>
      </trkpt>
      <trkpt lat="49.30316" lon="-0.05758">
        <ele>110.2</ele>
        <time>2020-06-17T12:43:20Z</time>
      </trkpt>
      <trkpt lat="49.30317" lon="-0.05759">
        <ele>110.3</ele>
        <time>2020-06-17T12:43:21Z</time>
      </trkpt>
      <trkpt lat="49.3032" lon="-0.05756">
        <ele>110.4</ele>
        <time>2020-06-17T12:43:22Z</time>
      </trkpt>
      <trkpt lat="49.30323" lon="-0.05756">
        <ele>110.5</ele>
        <time>2020-06-17T12:43:23Z</time>
      </trkpt>
      <trkpt lat="49.30324" lon="-0.05756">
        <ele>110.6</ele>
        <time>2020-06-17T12:43:24Z</time>
      </trkpt>
      <trkpt lat="49.30328" lon="-0.05756">
        <ele>110.7</ele>
        <time>2020-06-17T12:43:25Z</time>
      </trkpt>
      <trkpt lat="49.30329" lon="-0.05755">
        <ele>110.7</ele>
        <time>2020-06-17T12:43:26Z</time>
      </trkpt>
      <trkpt lat="49.30333" lon="-0.05757">
        <ele>110.9</ele>
        <time>2020-06-17T12:43:27Z</time>
      </trkpt>
      <trkpt lat="49.30334" lon="-0.05757">
        <ele>110.9</ele>
        <time>2020-06-17T12:43:28Z</time>
      </trkpt>
      <trkpt lat="49.30338" lon="-0.05758">
        <ele>111</ele>
        <time>2020-06-17T12:43:29Z</time>
      </trkpt>
      <trkpt lat="49.30342" lon="-0.05758">
        <ele>111.1</ele>
        <time>2020-06-17T12:43:30Z</time>
      </trkpt>
      <trkpt lat="49.30343" lon="-0.05756">
        <ele>111.2</ele>
        <time>2020-06-17T12:43:31Z</time>
      </trkpt>
      <trkpt lat="49.30347" lon="-0.05755">
        <ele>111.3</ele>
        <time>2020-06-17T12:43:32Z</time>
      </trkpt>
      <trkpt lat="49.30349" lon="-0.05755">
        <ele>111.3</ele>
        <time>2020-06-17T12:43:33Z</time>
      </trkpt>
      <trkpt lat="49.30352" lon="-0.05756">
        <ele>111.3</ele>
        <time>2020-06-17T12:43:34Z</time>
      </trkpt>
      <trkpt lat="49.30356" lon="-0.05757">
        <ele>111.4</ele>
        <time>2020-06-17T12:43:35Z</time>
      </trkpt>
      <trkpt lat="49.30359" lon="-0.05758">
        <ele>111.4</ele>
        <time>2020-06-17T12:43:36Z</time>
      </trkpt>
      <trkpt lat="49.30362" lon="-0.05759">
        <ele>111.4</ele>
        <time>2020-06-17T12:43:37Z</time>
      </trkpt>
      <trkpt lat="49.30366" lon="-0.05761">
        <ele>111.4</ele>
        <time>2020-06-17T12:43:38Z</time>
      </trkpt>
      <trkpt lat="49.30369" lon="-0.05762">
        <ele>111.5</ele>
        <time>2020-06-17T12:43:39Z</time>
      </trkpt>
      <trkpt lat="49.30373" lon="-0.05763">
        <ele>111.4</ele>
        <time>2020-06-17T12:43:40Z</time>
      </trkpt>
      <trkpt lat="49.30377" lon="-0.05764">
        <ele>111.4</ele>
        <time>2020-06-17T12:43:41Z</time>
      </trkpt>
      <trkpt lat="49.30382" lon="-0.05765">
        <ele>111.3</ele>
        <time>2020-06-17T12:43:42Z</time>
      </trkpt>
      <trkpt lat="49.30386" lon="-0.05765">
        <ele>111.3</ele>
        <time>2020-06-17T12:43:43Z</time>
      </trkpt>
      <trkpt lat="49.30391" lon="-0.05765">
        <ele>111.2</ele>
        <time>2020-06-17T12:43:44Z</time>
      </trkpt>
      <trkpt lat="49.30395" lon="-0.05764">
        <ele>111.1</ele>
        <time>2020-06-17T12:43:45Z</time>
      </trkpt>
      <trkpt lat="49.30399" lon="-0.05764">
        <ele>111</ele>
        <time>2020-06-17T12:43:46Z</time>
      </trkpt>
      <trkpt lat="49.30403" lon="-0.05764">
        <ele>111</ele>
        <time>2020-06-17T12:43:47Z</time>
      </trkpt>
      <trkpt lat="49.30406" lon="-0.05766">
        <ele>110.9</ele>
        <time>2020-06-17T12:43:48Z</time>
      </trkpt>
      <trkpt lat="49.3041" lon="-0.05767">
        <ele>110.8</ele>
        <time>2020-06-17T12:43:49Z</time>
      </trkpt>
      <trkpt lat="49.30413" lon="-0.05768">
        <ele>110.7</ele>
        <time>2020-06-17T12:43:50Z</time>
      </trkpt>
      <trkpt lat="49.30417" lon="-0.05769">
        <ele>110.6</ele>
        <time>2020-06-17T12:43:51Z</time>
      </trkpt>
      <trkpt lat="49.30421" lon="-0.05769">
        <ele>110.5</ele>
        <time>2020-06-17T12:43:52Z</time>
      </trkpt>
      <trkpt lat="49.30426" lon="-0.05769">
        <ele>110.4</ele>
        <time>2020-06-17T12:43:53Z</time>
      </trkpt>
      <trkpt lat="49.30431" lon="-0.05767">
        <ele>110.2</ele>
        <time>2020-06-17T12:43:54Z</time>
      </trkpt>
      <trkpt lat="49.30436" lon="-0.05764">
        <ele>110</ele>
        <time>2020-06-17T12:43:55Z</time>
      </trkpt>
      <trkpt lat="49.3044" lon="-0.05762">
        <ele>109.8</ele>
        <time>2020-06-17T12:43:56Z</time>
      </trkpt>
      <trkpt lat="49.30447" lon="-0.0576">
        <ele>109.4</ele>
        <time>2020-06-17T12:43:57Z</time>
      </trkpt>
      <trkpt lat="49.30454" lon="-0.05755">
        <ele>109.1</ele>
        <time>2020-06-17T12:43:58Z</time>
      </trkpt>
      <trkpt lat="49.30462" lon="-0.0575">
        <ele>108.7</ele>
        <time>2020-06-17T12:43:59Z</time>
      </trkpt>
      <trkpt lat="49.30468" lon="-0.0574">
        <ele>108.2</ele>
        <time>2020-06-17T12:44:00Z</time>
      </trkpt>
      <trkpt lat="49.30474" lon="-0.05732">
        <ele>108</ele>
        <time>2020-06-17T12:44:01Z</time>
      </trkpt>
      <trkpt lat="49.30478" lon="-0.05723">
        <ele>107.8</ele>
        <time>2020-06-17T12:44:02Z</time>
      </trkpt>
      <trkpt lat="49.30483" lon="-0.05716">
        <ele>107.8</ele>
        <time>2020-06-17T12:44:03Z</time>
      </trkpt>
      <trkpt lat="49.30487" lon="-0.05709">
        <ele>107.7</ele>
        <time>2020-06-17T12:44:04Z</time>
      </trkpt>
      <trkpt lat="49.30492" lon="-0.05702">
        <ele>107.8</ele>
        <time>2020-06-17T12:44:05Z</time>
      </trkpt>
      <trkpt lat="49.30495" lon="-0.05695">
        <ele>107.8</ele>
        <time>2020-06-17T12:44:06Z</time>
      </trkpt>
      <trkpt lat="49.30499" lon="-0.05689">
        <ele>107.9</ele>
        <time>2020-06-17T12:44:07Z</time>
      </trkpt>
      <trkpt lat="49.30502" lon="-0.05683">
        <ele>107.9</ele>
        <time>2020-06-17T12:44:08Z</time>
      </trkpt>
      <trkpt lat="49.30505" lon="-0.05678">
        <ele>108</ele>
        <time>2020-06-17T12:44:09Z</time>
      </trkpt>
      <trkpt lat="49.30509" lon="-0.05673">
        <ele>108.1</ele>
        <time>2020-06-17T12:44:10Z</time>
      </trkpt>
      <trkpt lat="49.30511" lon="-0.05669">
        <ele>108.1</ele>
        <time>2020-06-17T12:44:11Z</time>
      </trkpt>
      <trkpt lat="49.30514" lon="-0.05665">
        <ele>108.2</ele>
        <time>2020-06-17T12:44:12Z</time>
      </trkpt>
      <trkpt lat="49.30516" lon="-0.05659">
        <ele>108.3</ele>
        <time>2020-06-17T12:44:13Z</time>
      </trkpt>
      <trkpt lat="49.30518" lon="-0.05655">
        <ele>108.4</ele>
        <time>2020-06-17T12:44:14Z</time>
      </trkpt>
      <trkpt lat="49.30522" lon="-0.05649">
        <ele>108.5</ele>
        <time>2020-06-17T12:44:15Z</time>
      </trkpt>
      <trkpt lat="49.30525" lon="-0.05643">
        <ele>108.6</ele>
        <time>2020-06-17T12:44:16Z</time>
      </trkpt>
      <trkpt lat="49.30528" lon="-0.05635">
        <ele>108.6</ele>
        <time>2020-06-17T12:44:17Z</time>
      </trkpt>
      <trkpt lat="49.3053" lon="-0.0563">
        <ele>108.7</ele>
        <time>2020-06-17T12:44:18Z</time>
      </trkpt>
      <trkpt lat="49.30533" lon="-0.05621">
        <ele>108.8</ele>
        <time>2020-06-17T12:44:19Z</time>
      </trkpt>
      <trkpt lat="49.30534" lon="-0.05617">
        <ele>108.8</ele>
        <time>2020-06-17T12:44:20Z</time>
      </trkpt>
      <trkpt lat="49.30536" lon="-0.0561">
        <ele>108.9</ele>
        <time>2020-06-17T12:44:21Z</time>
      </trkpt>
      <trkpt lat="49.30539" lon="-0.05606">
        <ele>108.9</ele>
        <time>2020-06-17T12:44:22Z</time>
      </trkpt>
      <trkpt lat="49.30541" lon="-0.056">
        <ele>109</ele>
        <time>2020-06-17T12:44:23Z</time>
      </trkpt>
      <trkpt lat="49.30544" lon="-0.05595">
        <ele>109</ele>
        <time>2020-06-17T12:44:24Z</time>
      </trkpt>
      <trkpt lat="49.30546" lon="-0.05589">
        <ele>109</ele>
        <time>2020-06-17T12:44:25Z</time>
      </trkpt>
      <trkpt lat="49.30548" lon="-0.05586">
        <ele>109.1</ele>
        <time>2020-06-17T12:44:26Z</time>
      </trkpt>
      <trkpt lat="49.30551" lon="-0.05581">
        <ele>109.2</ele>
        <time>2020-06-17T12:44:27Z</time>
      </trkpt>
      <trkpt lat="49.30553" lon="-0.05576">
        <ele>109.3</ele>
        <time>2020-06-17T12:44:28Z</time>
      </trkpt>
      <trkpt lat="49.30555" lon="-0.05569">
        <ele>109.4</ele>
        <time>2020-06-17T12:44:29Z</time>
      </trkpt>
      <trkpt lat="49.30556" lon="-0.05564">
        <ele>109.4</ele>
        <time>2020-06-17T12:44:30Z</time>
      </trkpt>
      <trkpt lat="49.30557" lon="-0.05557">
        <ele>109.5</ele>
        <time>2020-06-17T12:44:31Z</time>
      </trkpt>
      <trkpt lat="49.30559" lon="-0.05551">
        <ele>109.6</ele>
        <time>2020-06-17T12:44:32Z</time>
      </trkpt>
      <trkpt lat="49.30561" lon="-0.05545">
        <ele>109.7</ele>
        <time>2020-06-17T12:44:33Z</time>
      </trkpt>
      <trkpt lat="49.30563" lon="-0.05539">
        <ele>109.7</ele>
        <time>2020-06-17T12:44:34Z</time>
      </trkpt>
      <trkpt lat="49.30565" lon="-0.05534">
        <ele>109.8</ele>
        <time>2020-06-17T12:44:35Z</time>
      </trkpt>
      <trkpt lat="49.30567" lon="-0.05529">
        <ele>109.9</ele>
        <time>2020-06-17T12:44:36Z</time>
      </trkpt>
      <trkpt lat="49.30569" lon="-0.05523">
        <ele>110</ele>
        <time>2020-06-17T12:44:37Z</time>
      </trkpt>
      <trkpt lat="49.30571" lon="-0.05518">
        <ele>110</ele>
        <time>2020-06-17T12:44:38Z</time>
      </trkpt>
      <trkpt lat="49.30572" lon="-0.05513">
        <ele>110.1</ele>
        <time>2020-06-17T12:44:39Z</time>
      </trkpt>
      <trkpt lat="49.30573" lon="-0.05508">
        <ele>110.2</ele>
        <time>2020-06-17T12:44:40Z</time>
      </trkpt>
      <trkpt lat="49.30574" lon="-0.05503">
        <ele>110.3</ele>
        <time>2020-06-17T12:44:41Z</time>
      </trkpt>
      <trkpt lat="49.30576" lon="-0.05499">
        <ele>110.4</ele>
        <time>2020-06-17T12:44:42Z</time>
      </trkpt>
      <trkpt lat="49.30578" lon="-0.05493">
        <ele>110.5</ele>
        <time>2020-06-17T12:44:43Z</time>
      </trkpt>
      <trkpt lat="49.30579" lon="-0.05488">
        <ele>110.6</ele>
        <time>2020-06-17T12:44:44Z</time>
      </trkpt>
      <trkpt lat="49.3058" lon="-0.05483">
        <ele>110.6</ele>
        <time>2020-06-17T12:44:45Z</time>
      </trkpt>
      <trkpt lat="49.30581" lon="-0.05478">
        <ele>110.7</ele>
        <time>2020-06-17T12:44:46Z</time>
      </trkpt>
      <trkpt lat="49.30582" lon="-0.05474">
        <ele>110.7</ele>
        <time>2020-06-17T12:44:47Z</time>
      </trkpt>
      <trkpt lat="49.30583" lon="-0.05469">
        <ele>110.8</ele>
        <time>2020-06-17T12:44:48Z</time>
      </trkpt>
      <trkpt lat="49.30585" lon="-0.05462">
        <ele>110.8</ele>
        <time>2020-06-17T12:44:49Z</time>
      </trkpt>
      <trkpt lat="49.30586" lon="-0.05456">
        <ele>110.9</ele>
        <time>2020-06-17T12:44:50Z</time>
      </trkpt>
      <trkpt lat="49.30588" lon="-0.05449">
        <ele>111</ele>
        <time>2020-06-17T12:44:51Z</time>
      </trkpt>
      <trkpt lat="49.30589" lon="-0.05443">
        <ele>111.1</ele>
        <time>2020-06-17T12:44:52Z</time>
      </trkpt>
      <trkpt lat="49.3059" lon="-0.05437">
        <ele>111.2</ele>
        <time>2020-06-17T12:44:53Z</time>
      </trkpt>
      <trkpt lat="49.30591" lon="-0.0543">
        <ele>111.3</ele>
        <time>2020-06-17T12:44:54Z</time>
      </trkpt>
      <trkpt lat="49.30591" lon="-0.05423">
        <ele>111.4</ele>
        <time>2020-06-17T12:44:55Z</time>
      </trkpt>
      <trkpt lat="49.30591" lon="-0.05416">
        <ele>111.6</ele>
        <time>2020-06-17T12:44:56Z</time>
      </trkpt>
      <trkpt lat="49.30592" lon="-0.05409">
        <ele>111.7</ele>
        <time>2020-06-17T12:44:57Z</time>
      </trkpt>
      <trkpt lat="49.30593" lon="-0.05403">
        <ele>111.8</ele>
        <time>2020-06-17T12:44:58Z</time>
      </trkpt>
      <trkpt lat="49.30594" lon="-0.05397">
        <ele>112</ele>
        <time>2020-06-17T12:44:59Z</time>
      </trkpt>
      <trkpt lat="49.30594" lon="-0.0539">
        <ele>112.1</ele>
        <time>2020-06-17T12:45:00Z</time>
      </trkpt>
      <trkpt lat="49.30594" lon="-0.05384">
        <ele>112.2</ele>
        <time>2020-06-17T12:45:01Z</time>
      </trkpt>
      <trkpt lat="49.30595" lon="-0.05377">
        <ele>112.3</ele>
        <time>2020-06-17T12:45:02Z</time>
      </trkpt>
      <trkpt lat="49.30596" lon="-0.0537">
        <ele>112.4</ele>
        <time>2020-06-17T12:45:03Z</time>
      </trkpt>
      <trkpt lat="49.30596" lon="-0.05362">
        <ele>112.6</ele>
        <time>2020-06-17T12:45:04Z</time>
      </trkpt>
      <trkpt lat="49.30597" lon="-0.05355">
        <ele>112.7</ele>
        <time>2020-06-17T12:45:05Z</time>
      </trkpt>
      <trkpt lat="49.30598" lon="-0.05347">
        <ele>112.9</ele>
        <time>2020-06-17T12:45:06Z</time>
      </trkpt>
      <trkpt lat="49.30599" lon="-0.0534">
        <ele>113</ele>
        <time>2020-06-17T12:45:07Z</time>
      </trkpt>
      <trkpt lat="49.306" lon="-0.05333">
        <ele>113</ele>
        <time>2020-06-17T12:45:08Z</time>
      </trkpt>
      <trkpt lat="49.30602" lon="-0.05325">
        <ele>113.1</ele>
        <time>2020-06-17T12:45:09Z</time>
      </trkpt>
      <trkpt lat="49.30603" lon="-0.05319">
        <ele>113.2</ele>
        <time>2020-06-17T12:45:10Z</time>
      </trkpt>
      <trkpt lat="49.30604" lon="-0.05312">
        <ele>113.2</ele>
        <time>2020-06-17T12:45:11Z</time>
      </trkpt>
      <trkpt lat="49.30605" lon="-0.05305">
        <ele>113.3</ele>
        <time>2020-06-17T12:45:12Z</time>
      </trkpt>
      <trkpt lat="49.30605" lon="-0.05299">
        <ele>113.4</ele>
        <time>2020-06-17T12:45:13Z</time>
      </trkpt>
      <trkpt lat="49.30606" lon="-0.05293">
        <ele>113.4</ele>
        <time>2020-06-17T12:45:14Z</time>
      </trkpt>
      <trkpt lat="49.30606" lon="-0.05286">
        <ele>113.4</ele>
        <time>2020-06-17T12:45:15Z</time>
      </trkpt>
      <trkpt lat="49.30606" lon="-0.0528">
        <ele>113.5</ele>
        <time>2020-06-17T12:45:16Z</time>
      </trkpt>
      <trkpt lat="49.30606" lon="-0.05274">
        <ele>113.5</ele>
        <time>2020-06-17T12:45:17Z</time>
      </trkpt>
      <trkpt lat="49.30607" lon="-0.05268">
        <ele>113.6</ele>
        <time>2020-06-17T12:45:18Z</time>
      </trkpt>
      <trkpt lat="49.30607" lon="-0.05262">
        <ele>113.6</ele>
        <time>2020-06-17T12:45:19Z</time>
      </trkpt>
      <trkpt lat="49.30607" lon="-0.05258">
        <ele>113.6</ele>
        <time>2020-06-17T12:45:20Z</time>
      </trkpt>
      <trkpt lat="49.30608" lon="-0.05249">
        <ele>113.6</ele>
        <time>2020-06-17T12:45:21Z</time>
      </trkpt>
      <trkpt lat="49.30609" lon="-0.05242">
        <ele>113.7</ele>
        <time>2020-06-17T12:45:22Z</time>
      </trkpt>
      <trkpt lat="49.30609" lon="-0.05233">
        <ele>113.7</ele>
        <time>2020-06-17T12:45:23Z</time>
      </trkpt>
      <trkpt lat="49.30609" lon="-0.05226">
        <ele>113.7</ele>
        <time>2020-06-17T12:45:24Z</time>
      </trkpt>
      <trkpt lat="49.3061" lon="-0.05219">
        <ele>113.8</ele>
        <time>2020-06-17T12:45:25Z</time>
      </trkpt>
      <trkpt lat="49.30611" lon="-0.0521">
        <ele>113.8</ele>
        <time>2020-06-17T12:45:26Z</time>
      </trkpt>
      <trkpt lat="49.30612" lon="-0.05201">
        <ele>113.8</ele>
        <time>2020-06-17T12:45:27Z</time>
      </trkpt>
      <trkpt lat="49.30613" lon="-0.05193">
        <ele>113.8</ele>
        <time>2020-06-17T12:45:28Z</time>
      </trkpt>
      <trkpt lat="49.30615" lon="-0.05184">
        <ele>113.8</ele>
        <time>2020-06-17T12:45:29Z</time>
      </trkpt>
      <trkpt lat="49.30615" lon="-0.05175">
        <ele>113.7</ele>
        <time>2020-06-17T12:45:30Z</time>
      </trkpt>
      <trkpt lat="49.30616" lon="-0.05167">
        <ele>113.7</ele>
        <time>2020-06-17T12:45:31Z</time>
      </trkpt>
      <trkpt lat="49.30617" lon="-0.05158">
        <ele>113.7</ele>
        <time>2020-06-17T12:45:32Z</time>
      </trkpt>
      <trkpt lat="49.30617" lon="-0.05145">
        <ele>113.6</ele>
        <time>2020-06-17T12:45:33Z</time>
      </trkpt>
      <trkpt lat="49.30618" lon="-0.05138">
        <ele>113.6</ele>
        <time>2020-06-17T12:45:34Z</time>
      </trkpt>
      <trkpt lat="49.30618" lon="-0.05127">
        <ele>113.6</ele>
        <time>2020-06-17T12:45:35Z</time>
      </trkpt>
      <trkpt lat="49.30619" lon="-0.0512">
        <ele>113.5</ele>
        <time>2020-06-17T12:45:36Z</time>
      </trkpt>
      <trkpt lat="49.30619" lon="-0.05111">
        <ele>113.5</ele>
        <time>2020-06-17T12:45:37Z</time>
      </trkpt>
      <trkpt lat="49.30619" lon="-0.05105">
        <ele>113.5</ele>
        <time>2020-06-17T12:45:38Z</time>
      </trkpt>
      <trkpt lat="49.3062" lon="-0.05095">
        <ele>113.5</ele>
        <time>2020-06-17T12:45:39Z</time>
      </trkpt>
      <trkpt lat="49.30621" lon="-0.05087">
        <ele>113.5</ele>
        <time>2020-06-17T12:45:40Z</time>
      </trkpt>
      <trkpt lat="49.30621" lon="-0.05079">
        <ele>113.4</ele>
        <time>2020-06-17T12:45:41Z</time>
      </trkpt>
      <trkpt lat="49.30622" lon="-0.0507">
        <ele>113.4</ele>
        <time>2020-06-17T12:45:42Z</time>
      </trkpt>
      <trkpt lat="49.30623" lon="-0.05062">
        <ele>113.4</ele>
        <time>2020-06-17T12:45:43Z</time>
      </trkpt>
      <trkpt lat="49.30623" lon="-0.05054">
        <ele>113.3</ele>
        <time>2020-06-17T12:45:44Z</time>
      </trkpt>
      <trkpt lat="49.30624" lon="-0.05045">
        <ele>113.3</ele>
        <time>2020-06-17T12:45:45Z</time>
      </trkpt>
      <trkpt lat="49.30624" lon="-0.05037">
        <ele>113.3</ele>
        <time>2020-06-17T12:45:46Z</time>
      </trkpt>
      <trkpt lat="49.30624" lon="-0.05028">
        <ele>113.2</ele>
        <time>2020-06-17T12:45:47Z</time>
      </trkpt>
      <trkpt lat="49.30624" lon="-0.05022">
        <ele>113.2</ele>
        <time>2020-06-17T12:45:48Z</time>
      </trkpt>
      <trkpt lat="49.30624" lon="-0.05014">
        <ele>113.2</ele>
        <time>2020-06-17T12:45:49Z</time>
      </trkpt>
      <trkpt lat="49.30625" lon="-0.05009">
        <ele>113.2</ele>
        <time>2020-06-17T12:45:50Z</time>
      </trkpt>
      <trkpt lat="49.30625" lon="-0.05">
        <ele>113.1</ele>
        <time>2020-06-17T12:45:51Z</time>
      </trkpt>
      <trkpt lat="49.30626" lon="-0.04992">
        <ele>113.1</ele>
        <time>2020-06-17T12:45:52Z</time>
      </trkpt>
      <trkpt lat="49.30626" lon="-0.04984">
        <ele>113.1</ele>
        <time>2020-06-17T12:45:53Z</time>
      </trkpt>
      <trkpt lat="49.30628" lon="-0.04975">
        <ele>113.1</ele>
        <time>2020-06-17T12:45:54Z</time>
      </trkpt>
      <trkpt lat="49.30629" lon="-0.04968">
        <ele>113</ele>
        <time>2020-06-17T12:45:55Z</time>
      </trkpt>
      <trkpt lat="49.3063" lon="-0.0496">
        <ele>113</ele>
        <time>2020-06-17T12:45:56Z</time>
      </trkpt>
      <trkpt lat="49.30631" lon="-0.0495">
        <ele>113</ele>
        <time>2020-06-17T12:45:57Z</time>
      </trkpt>
      <trkpt lat="49.30631" lon="-0.0494">
        <ele>113</ele>
        <time>2020-06-17T12:45:58Z</time>
      </trkpt>
      <trkpt lat="49.30632" lon="-0.04931">
        <ele>113</ele>
        <time>2020-06-17T12:45:59Z</time>
      </trkpt>
      <trkpt lat="49.30632" lon="-0.04922">
        <ele>113</ele>
        <time>2020-06-17T12:46:00Z</time>
      </trkpt>
      <trkpt lat="49.30633" lon="-0.04913">
        <ele>113</ele>
        <time>2020-06-17T12:46:01Z</time>
      </trkpt>
      <trkpt lat="49.30634" lon="-0.04906">
        <ele>113.1</ele>
        <time>2020-06-17T12:46:02Z</time>
      </trkpt>
      <trkpt lat="49.30634" lon="-0.04898">
        <ele>113.1</ele>
        <time>2020-06-17T12:46:03Z</time>
      </trkpt>
      <trkpt lat="49.30634" lon="-0.04891">
        <ele>113.2</ele>
        <time>2020-06-17T12:46:04Z</time>
      </trkpt>
      <trkpt lat="49.30635" lon="-0.04883">
        <ele>113.3</ele>
        <time>2020-06-17T12:46:05Z</time>
      </trkpt>
      <trkpt lat="49.30635" lon="-0.04874">
        <ele>113.4</ele>
        <time>2020-06-17T12:46:06Z</time>
      </trkpt>
      <trkpt lat="49.30635" lon="-0.04867">
        <ele>113.5</ele>
        <time>2020-06-17T12:46:07Z</time>
      </trkpt>
      <trkpt lat="49.30636" lon="-0.0486">
        <ele>113.6</ele>
        <time>2020-06-17T12:46:08Z</time>
      </trkpt>
      <trkpt lat="49.30636" lon="-0.04853">
        <ele>113.7</ele>
        <time>2020-06-17T12:46:09Z</time>
      </trkpt>
      <trkpt lat="49.30637" lon="-0.04847">
        <ele>113.8</ele>
        <time>2020-06-17T12:46:10Z</time>
      </trkpt>
      <trkpt lat="49.30638" lon="-0.0484">
        <ele>113.9</ele>
        <time>2020-06-17T12:46:11Z</time>
      </trkpt>
      <trkpt lat="49.3064" lon="-0.04833">
        <ele>114</ele>
        <time>2020-06-17T12:46:12Z</time>
      </trkpt>
      <trkpt lat="49.30641" lon="-0.04826">
        <ele>114</ele>
        <time>2020-06-17T12:46:13Z</time>
      </trkpt>
      <trkpt lat="49.30643" lon="-0.04819">
        <ele>114.1</ele>
        <time>2020-06-17T12:46:14Z</time>
      </trkpt>
      <trkpt lat="49.30644" lon="-0.04812">
        <ele>114.1</ele>
        <time>2020-06-17T12:46:15Z</time>
      </trkpt>
      <trkpt lat="49.30646" lon="-0.04804">
        <ele>114.3</ele>
        <time>2020-06-17T12:46:16Z</time>
      </trkpt>
      <trkpt lat="49.30647" lon="-0.04785">
        <ele>114.6</ele>
        <time>2020-06-17T12:46:17Z</time>
      </trkpt>
      <trkpt lat="49.3065" lon="-0.04777">
        <ele>114.7</ele>
        <time>2020-06-17T12:46:18Z</time>
      </trkpt>
      <trkpt lat="49.30653" lon="-0.0477">
        <ele>114.9</ele>
        <time>2020-06-17T12:46:19Z</time>
      </trkpt>
      <trkpt lat="49.30655" lon="-0.04763">
        <ele>115</ele>
        <time>2020-06-17T12:46:20Z</time>
      </trkpt>
      <trkpt lat="49.30657" lon="-0.04756">
        <ele>115.1</ele>
        <time>2020-06-17T12:46:21Z</time>
      </trkpt>
      <trkpt lat="49.30658" lon="-0.04747">
        <ele>115.2</ele>
        <time>2020-06-17T12:46:22Z</time>
      </trkpt>
      <trkpt lat="49.30659" lon="-0.04739">
        <ele>115.2</ele>
        <time>2020-06-17T12:46:23Z</time>
      </trkpt>
      <trkpt lat="49.3066" lon="-0.04731">
        <ele>115.3</ele>
        <time>2020-06-17T12:46:24Z</time>
      </trkpt>
      <trkpt lat="49.30661" lon="-0.04722">
        <ele>115.4</ele>
        <time>2020-06-17T12:46:25Z</time>
      </trkpt>
      <trkpt lat="49.30662" lon="-0.04713">
        <ele>115.5</ele>
        <time>2020-06-17T12:46:26Z</time>
      </trkpt>
      <trkpt lat="49.30663" lon="-0.04704">
        <ele>115.6</ele>
        <time>2020-06-17T12:46:27Z</time>
      </trkpt>
      <trkpt lat="49.30665" lon="-0.04696">
        <ele>115.7</ele>
        <time>2020-06-17T12:46:28Z</time>
      </trkpt>
      <trkpt lat="49.30666" lon="-0.04689">
        <ele>115.7</ele>
        <time>2020-06-17T12:46:29Z</time>
      </trkpt>
      <trkpt lat="49.30667" lon="-0.04682">
        <ele>115.8</ele>
        <time>2020-06-17T12:46:30Z</time>
      </trkpt>
      <trkpt lat="49.30668" lon="-0.04676">
        <ele>115.9</ele>
        <time>2020-06-17T12:46:31Z</time>
      </trkpt>
      <trkpt lat="49.3067" lon="-0.0467">
        <ele>115.9</ele>
        <time>2020-06-17T12:46:32Z</time>
      </trkpt>
      <trkpt lat="49.30671" lon="-0.04663">
        <ele>115.9</ele>
        <time>2020-06-17T12:46:33Z</time>
      </trkpt>
      <trkpt lat="49.30673" lon="-0.04656">
        <ele>116</ele>
        <time>2020-06-17T12:46:34Z</time>
      </trkpt>
      <trkpt lat="49.30674" lon="-0.04649">
        <ele>116</ele>
        <time>2020-06-17T12:46:35Z</time>
      </trkpt>
      <trkpt lat="49.30675" lon="-0.04644">
        <ele>116.1</ele>
        <time>2020-06-17T12:46:36Z</time>
      </trkpt>
      <trkpt lat="49.30676" lon="-0.04637">
        <ele>116.1</ele>
        <time>2020-06-17T12:46:37Z</time>
      </trkpt>
      <trkpt lat="49.30677" lon="-0.04629">
        <ele>116.2</ele>
        <time>2020-06-17T12:46:38Z</time>
      </trkpt>
      <trkpt lat="49.30679" lon="-0.0462">
        <ele>116.3</ele>
        <time>2020-06-17T12:46:39Z</time>
      </trkpt>
      <trkpt lat="49.30679" lon="-0.04611">
        <ele>116.4</ele>
        <time>2020-06-17T12:46:40Z</time>
      </trkpt>
      <trkpt lat="49.30679" lon="-0.04603">
        <ele>116.5</ele>
        <time>2020-06-17T12:46:41Z</time>
      </trkpt>
      <trkpt lat="49.30679" lon="-0.04595">
        <ele>116.6</ele>
        <time>2020-06-17T12:46:42Z</time>
      </trkpt>
      <trkpt lat="49.30681" lon="-0.04589">
        <ele>116.6</ele>
        <time>2020-06-17T12:46:43Z</time>
      </trkpt>
      <trkpt lat="49.30681" lon="-0.04582">
        <ele>116.7</ele>
        <time>2020-06-17T12:46:44Z</time>
      </trkpt>
      <trkpt lat="49.30683" lon="-0.04574">
        <ele>116.8</ele>
        <time>2020-06-17T12:46:45Z</time>
      </trkpt>
      <trkpt lat="49.30685" lon="-0.04566">
        <ele>116.8</ele>
        <time>2020-06-17T12:46:46Z</time>
      </trkpt>
      <trkpt lat="49.30687" lon="-0.04559">
        <ele>116.9</ele>
        <time>2020-06-17T12:46:47Z</time>
      </trkpt>
      <trkpt lat="49.30688" lon="-0.04552">
        <ele>117</ele>
        <time>2020-06-17T12:46:48Z</time>
      </trkpt>
      <trkpt lat="49.30688" lon="-0.04539">
        <ele>117.1</ele>
        <time>2020-06-17T12:46:49Z</time>
      </trkpt>
      <trkpt lat="49.30689" lon="-0.04528">
        <ele>117.2</ele>
        <time>2020-06-17T12:46:50Z</time>
      </trkpt>
      <trkpt lat="49.30689" lon="-0.04517">
        <ele>117.3</ele>
        <time>2020-06-17T12:46:51Z</time>
      </trkpt>
      <trkpt lat="49.3069" lon="-0.04507">
        <ele>117.4</ele>
        <time>2020-06-17T12:46:52Z</time>
      </trkpt>
      <trkpt lat="49.30691" lon="-0.04498">
        <ele>117.4</ele>
        <time>2020-06-17T12:46:53Z</time>
      </trkpt>
      <trkpt lat="49.30692" lon="-0.04489">
        <ele>117.5</ele>
        <time>2020-06-17T12:46:54Z</time>
      </trkpt>
      <trkpt lat="49.30694" lon="-0.0448">
        <ele>117.6</ele>
        <time>2020-06-17T12:46:55Z</time>
      </trkpt>
      <trkpt lat="49.30696" lon="-0.04472">
        <ele>117.6</ele>
        <time>2020-06-17T12:46:56Z</time>
      </trkpt>
      <trkpt lat="49.30697" lon="-0.04463">
        <ele>117.7</ele>
        <time>2020-06-17T12:46:57Z</time>
      </trkpt>
      <trkpt lat="49.30699" lon="-0.04455">
        <ele>117.7</ele>
        <time>2020-06-17T12:46:58Z</time>
      </trkpt>
      <trkpt lat="49.30701" lon="-0.04447">
        <ele>117.7</ele>
        <time>2020-06-17T12:46:59Z</time>
      </trkpt>
      <trkpt lat="49.30704" lon="-0.0444">
        <ele>117.7</ele>
        <time>2020-06-17T12:47:00Z</time>
      </trkpt>
      <trkpt lat="49.30706" lon="-0.04433">
        <ele>117.7</ele>
        <time>2020-06-17T12:47:01Z</time>
      </trkpt>
      <trkpt lat="49.30708" lon="-0.04425">
        <ele>117.8</ele>
        <time>2020-06-17T12:47:02Z</time>
      </trkpt>
      <trkpt lat="49.30711" lon="-0.04418">
        <ele>117.8</ele>
        <time>2020-06-17T12:47:03Z</time>
      </trkpt>
      <trkpt lat="49.30713" lon="-0.0441">
        <ele>117.9</ele>
        <time>2020-06-17T12:47:04Z</time>
      </trkpt>
      <trkpt lat="49.30716" lon="-0.04402">
        <ele>117.9</ele>
        <time>2020-06-17T12:47:05Z</time>
      </trkpt>
      <trkpt lat="49.30719" lon="-0.04393">
        <ele>118</ele>
        <time>2020-06-17T12:47:06Z</time>
      </trkpt>
      <trkpt lat="49.30722" lon="-0.04385">
        <ele>118</ele>
        <time>2020-06-17T12:47:07Z</time>
      </trkpt>
      <trkpt lat="49.30724" lon="-0.04377">
        <ele>118.1</ele>
        <time>2020-06-17T12:47:08Z</time>
      </trkpt>
      <trkpt lat="49.30727" lon="-0.0437">
        <ele>118.2</ele>
        <time>2020-06-17T12:47:09Z</time>
      </trkpt>
      <trkpt lat="49.30729" lon="-0.04363">
        <ele>118.2</ele>
        <time>2020-06-17T12:47:10Z</time>
      </trkpt>
      <trkpt lat="49.30733" lon="-0.04356">
        <ele>118.2</ele>
        <time>2020-06-17T12:47:11Z</time>
      </trkpt>
      <trkpt lat="49.30735" lon="-0.04349">
        <ele>118.2</ele>
        <time>2020-06-17T12:47:12Z</time>
      </trkpt>
      <trkpt lat="49.30738" lon="-0.04343">
        <ele>118.3</ele>
        <time>2020-06-17T12:47:13Z</time>
      </trkpt>
      <trkpt lat="49.3074" lon="-0.04336">
        <ele>118.3</ele>
        <time>2020-06-17T12:47:14Z</time>
      </trkpt>
      <trkpt lat="49.30742" lon="-0.04329">
        <ele>118.3</ele>
        <time>2020-06-17T12:47:15Z</time>
      </trkpt>
      <trkpt lat="49.30743" lon="-0.04323">
        <ele>118.3</ele>
        <time>2020-06-17T12:47:16Z</time>
      </trkpt>
      <trkpt lat="49.30746" lon="-0.04317">
        <ele>118.3</ele>
        <time>2020-06-17T12:47:17Z</time>
      </trkpt>
      <trkpt lat="49.30748" lon="-0.04309">
        <ele>118.3</ele>
        <time>2020-06-17T12:47:18Z</time>
      </trkpt>
      <trkpt lat="49.3075" lon="-0.04302">
        <ele>118.3</ele>
        <time>2020-06-17T12:47:19Z</time>
      </trkpt>
      <trkpt lat="49.30751" lon="-0.04296">
        <ele>118.3</ele>
        <time>2020-06-17T12:47:20Z</time>
      </trkpt>
      <trkpt lat="49.30752" lon="-0.04291">
        <ele>118.4</ele>
        <time>2020-06-17T12:47:21Z</time>
      </trkpt>
      <trkpt lat="49.30753" lon="-0.04286">
        <ele>118.5</ele>
        <time>2020-06-17T12:47:22Z</time>
      </trkpt>
      <trkpt lat="49.30755" lon="-0.0428">
        <ele>118.6</ele>
        <time>2020-06-17T12:47:23Z</time>
      </trkpt>
      <trkpt lat="49.30757" lon="-0.04274">
        <ele>118.8</ele>
        <time>2020-06-17T12:47:24Z</time>
      </trkpt>
      <trkpt lat="49.30758" lon="-0.04269">
        <ele>118.9</ele>
        <time>2020-06-17T12:47:25Z</time>
      </trkpt>
      <trkpt lat="49.30759" lon="-0.04262">
        <ele>119</ele>
        <time>2020-06-17T12:47:26Z</time>
      </trkpt>
      <trkpt lat="49.3076" lon="-0.04256">
        <ele>119.1</ele>
        <time>2020-06-17T12:47:27Z</time>
      </trkpt>
      <trkpt lat="49.3076" lon="-0.0425">
        <ele>119.2</ele>
        <time>2020-06-17T12:47:28Z</time>
      </trkpt>
      <trkpt lat="49.30761" lon="-0.04245">
        <ele>119.2</ele>
        <time>2020-06-17T12:47:29Z</time>
      </trkpt>
      <trkpt lat="49.30762" lon="-0.04241">
        <ele>119.3</ele>
        <time>2020-06-17T12:47:30Z</time>
      </trkpt>
      <trkpt lat="49.30762" lon="-0.04236">
        <ele>119.3</ele>
        <time>2020-06-17T12:47:31Z</time>
      </trkpt>
      <trkpt lat="49.30762" lon="-0.04231">
        <ele>119.4</ele>
        <time>2020-06-17T12:47:32Z</time>
      </trkpt>
      <trkpt lat="49.30763" lon="-0.04226">
        <ele>119.4</ele>
        <time>2020-06-17T12:47:33Z</time>
      </trkpt>
      <trkpt lat="49.30764" lon="-0.0422">
        <ele>119.5</ele>
        <time>2020-06-17T12:47:34Z</time>
      </trkpt>
      <trkpt lat="49.30765" lon="-0.04214">
        <ele>119.5</ele>
        <time>2020-06-17T12:47:35Z</time>
      </trkpt>
      <trkpt lat="49.30765" lon="-0.04208">
        <ele>119.6</ele>
        <time>2020-06-17T12:47:36Z</time>
      </trkpt>
      <trkpt lat="49.30766" lon="-0.04201">
        <ele>119.7</ele>
        <time>2020-06-17T12:47:37Z</time>
      </trkpt>
      <trkpt lat="49.30766" lon="-0.04195">
        <ele>119.7</ele>
        <time>2020-06-17T12:47:38Z</time>
      </trkpt>
      <trkpt lat="49.30767" lon="-0.0419">
        <ele>119.8</ele>
        <time>2020-06-17T12:47:39Z</time>
      </trkpt>
      <trkpt lat="49.30766" lon="-0.04184">
        <ele>119.8</ele>
        <time>2020-06-17T12:47:40Z</time>
      </trkpt>
      <trkpt lat="49.30766" lon="-0.0418">
        <ele>119.8</ele>
        <time>2020-06-17T12:47:41Z</time>
      </trkpt>
      <trkpt lat="49.30766" lon="-0.04175">
        <ele>119.9</ele>
        <time>2020-06-17T12:47:42Z</time>
      </trkpt>
      <trkpt lat="49.30766" lon="-0.04168">
        <ele>119.9</ele>
        <time>2020-06-17T12:47:43Z</time>
      </trkpt>
      <trkpt lat="49.30767" lon="-0.0416">
        <ele>120</ele>
        <time>2020-06-17T12:47:44Z</time>
      </trkpt>
      <trkpt lat="49.30768" lon="-0.0415">
        <ele>120</ele>
        <time>2020-06-17T12:47:45Z</time>
      </trkpt>
      <trkpt lat="49.30769" lon="-0.04144">
        <ele>120.1</ele>
        <time>2020-06-17T12:47:46Z</time>
      </trkpt>
      <trkpt lat="49.3077" lon="-0.04136">
        <ele>120.2</ele>
        <time>2020-06-17T12:47:47Z</time>
      </trkpt>
      <trkpt lat="49.30772" lon="-0.04129">
        <ele>120.2</ele>
        <time>2020-06-17T12:47:48Z</time>
      </trkpt>
      <trkpt lat="49.30773" lon="-0.04123">
        <ele>120.3</ele>
        <time>2020-06-17T12:47:49Z</time>
      </trkpt>
      <trkpt lat="49.30774" lon="-0.04115">
        <ele>120.3</ele>
        <time>2020-06-17T12:47:50Z</time>
      </trkpt>
      <trkpt lat="49.30775" lon="-0.04107">
        <ele>120.4</ele>
        <time>2020-06-17T12:47:51Z</time>
      </trkpt>
      <trkpt lat="49.30775" lon="-0.04098">
        <ele>120.5</ele>
        <time>2020-06-17T12:47:52Z</time>
      </trkpt>
      <trkpt lat="49.30776" lon="-0.04092">
        <ele>120.5</ele>
        <time>2020-06-17T12:47:53Z</time>
      </trkpt>
      <trkpt lat="49.30778" lon="-0.04084">
        <ele>120.6</ele>
        <time>2020-06-17T12:47:54Z</time>
      </trkpt>
      <trkpt lat="49.30779" lon="-0.04077">
        <ele>120.6</ele>
        <time>2020-06-17T12:47:55Z</time>
      </trkpt>
      <trkpt lat="49.30779" lon="-0.04067">
        <ele>120.7</ele>
        <time>2020-06-17T12:47:56Z</time>
      </trkpt>
      <trkpt lat="49.30779" lon="-0.04053">
        <ele>120.7</ele>
        <time>2020-06-17T12:47:57Z</time>
      </trkpt>
      <trkpt lat="49.30779" lon="-0.04044">
        <ele>120.8</ele>
        <time>2020-06-17T12:47:58Z</time>
      </trkpt>
      <trkpt lat="49.3078" lon="-0.04037">
        <ele>120.8</ele>
        <time>2020-06-17T12:47:59Z</time>
      </trkpt>
      <trkpt lat="49.3078" lon="-0.0403">
        <ele>120.9</ele>
        <time>2020-06-17T12:48:00Z</time>
      </trkpt>
      <trkpt lat="49.30782" lon="-0.04023">
        <ele>120.9</ele>
        <time>2020-06-17T12:48:01Z</time>
      </trkpt>
      <trkpt lat="49.30782" lon="-0.04016">
        <ele>120.9</ele>
        <time>2020-06-17T12:48:02Z</time>
      </trkpt>
      <trkpt lat="49.30783" lon="-0.04008">
        <ele>120.9</ele>
        <time>2020-06-17T12:48:03Z</time>
      </trkpt>
      <trkpt lat="49.30784" lon="-0.04001">
        <ele>121</ele>
        <time>2020-06-17T12:48:04Z</time>
      </trkpt>
      <trkpt lat="49.30784" lon="-0.03993">
        <ele>121</ele>
        <time>2020-06-17T12:48:05Z</time>
      </trkpt>
      <trkpt lat="49.30784" lon="-0.03985">
        <ele>121</ele>
        <time>2020-06-17T12:48:06Z</time>
      </trkpt>
      <trkpt lat="49.30784" lon="-0.03977">
        <ele>121</ele>
        <time>2020-06-17T12:48:07Z</time>
      </trkpt>
      <trkpt lat="49.30785" lon="-0.03968">
        <ele>121.1</ele>
        <time>2020-06-17T12:48:08Z</time>
      </trkpt>
      <trkpt lat="49.30785" lon="-0.0396">
        <ele>121.1</ele>
        <time>2020-06-17T12:48:09Z</time>
      </trkpt>
      <trkpt lat="49.30787" lon="-0.03952">
        <ele>121.2</ele>
        <time>2020-06-17T12:48:10Z</time>
      </trkpt>
      <trkpt lat="49.30789" lon="-0.03943">
        <ele>121.3</ele>
        <time>2020-06-17T12:48:11Z</time>
      </trkpt>
      <trkpt lat="49.30791" lon="-0.03934">
        <ele>121.3</ele>
        <time>2020-06-17T12:48:12Z</time>
      </trkpt>
      <trkpt lat="49.30792" lon="-0.03924">
        <ele>121.4</ele>
        <time>2020-06-17T12:48:13Z</time>
      </trkpt>
      <trkpt lat="49.30793" lon="-0.03915">
        <ele>121.5</ele>
        <time>2020-06-17T12:48:14Z</time>
      </trkpt>
      <trkpt lat="49.30794" lon="-0.03907">
        <ele>121.5</ele>
        <time>2020-06-17T12:48:15Z</time>
      </trkpt>
      <trkpt lat="49.30796" lon="-0.03899">
        <ele>121.6</ele>
        <time>2020-06-17T12:48:16Z</time>
      </trkpt>
      <trkpt lat="49.30796" lon="-0.03892">
        <ele>121.6</ele>
        <time>2020-06-17T12:48:17Z</time>
      </trkpt>
      <trkpt lat="49.30796" lon="-0.03883">
        <ele>121.7</ele>
        <time>2020-06-17T12:48:18Z</time>
      </trkpt>
      <trkpt lat="49.30795" lon="-0.03873">
        <ele>121.7</ele>
        <time>2020-06-17T12:48:19Z</time>
      </trkpt>
      <trkpt lat="49.30795" lon="-0.03865">
        <ele>121.7</ele>
        <time>2020-06-17T12:48:20Z</time>
      </trkpt>
      <trkpt lat="49.30795" lon="-0.03857">
        <ele>121.7</ele>
        <time>2020-06-17T12:48:21Z</time>
      </trkpt>
      <trkpt lat="49.30794" lon="-0.03847">
        <ele>121.7</ele>
        <time>2020-06-17T12:48:22Z</time>
      </trkpt>
      <trkpt lat="49.30793" lon="-0.03838">
        <ele>121.8</ele>
        <time>2020-06-17T12:48:23Z</time>
      </trkpt>
      <trkpt lat="49.30792" lon="-0.03829">
        <ele>121.9</ele>
        <time>2020-06-17T12:48:24Z</time>
      </trkpt>
      <trkpt lat="49.3079" lon="-0.0382">
        <ele>121.9</ele>
        <time>2020-06-17T12:48:25Z</time>
      </trkpt>
      <trkpt lat="49.30789" lon="-0.03811">
        <ele>122</ele>
        <time>2020-06-17T12:48:26Z</time>
      </trkpt>
      <trkpt lat="49.30787" lon="-0.03803">
        <ele>122.1</ele>
        <time>2020-06-17T12:48:27Z</time>
      </trkpt>
      <trkpt lat="49.30786" lon="-0.03794">
        <ele>122.1</ele>
        <time>2020-06-17T12:48:28Z</time>
      </trkpt>
      <trkpt lat="49.30784" lon="-0.03785">
        <ele>122.2</ele>
        <time>2020-06-17T12:48:29Z</time>
      </trkpt>
      <trkpt lat="49.30782" lon="-0.03776">
        <ele>122.3</ele>
        <time>2020-06-17T12:48:30Z</time>
      </trkpt>
      <trkpt lat="49.3078" lon="-0.03766">
        <ele>122.3</ele>
        <time>2020-06-17T12:48:31Z</time>
      </trkpt>
      <trkpt lat="49.30779" lon="-0.03756">
        <ele>122.4</ele>
        <time>2020-06-17T12:48:32Z</time>
      </trkpt>
      <trkpt lat="49.30775" lon="-0.03747">
        <ele>122.5</ele>
        <time>2020-06-17T12:48:33Z</time>
      </trkpt>
      <trkpt lat="49.30772" lon="-0.03737">
        <ele>122.7</ele>
        <time>2020-06-17T12:48:34Z</time>
      </trkpt>
      <trkpt lat="49.3077" lon="-0.03729">
        <ele>122.8</ele>
        <time>2020-06-17T12:48:35Z</time>
      </trkpt>
      <trkpt lat="49.30768" lon="-0.03721">
        <ele>122.9</ele>
        <time>2020-06-17T12:48:36Z</time>
      </trkpt>
      <trkpt lat="49.30766" lon="-0.03713">
        <ele>123</ele>
        <time>2020-06-17T12:48:37Z</time>
      </trkpt>
      <trkpt lat="49.30764" lon="-0.03707">
        <ele>123.1</ele>
        <time>2020-06-17T12:48:38Z</time>
      </trkpt>
      <trkpt lat="49.30762" lon="-0.03702">
        <ele>123.1</ele>
        <time>2020-06-17T12:48:39Z</time>
      </trkpt>
      <trkpt lat="49.30761" lon="-0.03697">
        <ele>123.1</ele>
        <time>2020-06-17T12:48:40Z</time>
      </trkpt>
      <trkpt lat="49.30758" lon="-0.03689">
        <ele>123.2</ele>
        <time>2020-06-17T12:48:41Z</time>
      </trkpt>
      <trkpt lat="49.30756" lon="-0.03684">
        <ele>123.2</ele>
        <time>2020-06-17T12:48:42Z</time>
      </trkpt>
      <trkpt lat="49.30753" lon="-0.03676">
        <ele>123.3</ele>
        <time>2020-06-17T12:48:43Z</time>
      </trkpt>
      <trkpt lat="49.30751" lon="-0.03669">
        <ele>123.3</ele>
        <time>2020-06-17T12:48:44Z</time>
      </trkpt>
      <trkpt lat="49.30749" lon="-0.03661">
        <ele>123.4</ele>
        <time>2020-06-17T12:48:45Z</time>
      </trkpt>
      <trkpt lat="49.30747" lon="-0.03652">
        <ele>123.4</ele>
        <time>2020-06-17T12:48:46Z</time>
      </trkpt>
      <trkpt lat="49.30745" lon="-0.03645">
        <ele>123.5</ele>
        <time>2020-06-17T12:48:47Z</time>
      </trkpt>
      <trkpt lat="49.30744" lon="-0.03638">
        <ele>123.5</ele>
        <time>2020-06-17T12:48:48Z</time>
      </trkpt>
      <trkpt lat="49.30743" lon="-0.03632">
        <ele>123.6</ele>
        <time>2020-06-17T12:48:49Z</time>
      </trkpt>
      <trkpt lat="49.30743" lon="-0.03624">
        <ele>123.6</ele>
        <time>2020-06-17T12:48:50Z</time>
      </trkpt>
      <trkpt lat="49.30743" lon="-0.03616">
        <ele>123.7</ele>
        <time>2020-06-17T12:48:51Z</time>
      </trkpt>
      <trkpt lat="49.30743" lon="-0.03608">
        <ele>123.7</ele>
        <time>2020-06-17T12:48:52Z</time>
      </trkpt>
      <trkpt lat="49.30743" lon="-0.036">
        <ele>123.8</ele>
        <time>2020-06-17T12:48:53Z</time>
      </trkpt>
      <trkpt lat="49.30743" lon="-0.03592">
        <ele>123.9</ele>
        <time>2020-06-17T12:48:54Z</time>
      </trkpt>
      <trkpt lat="49.30742" lon="-0.03585">
        <ele>124</ele>
        <time>2020-06-17T12:48:55Z</time>
      </trkpt>
      <trkpt lat="49.30742" lon="-0.03577">
        <ele>124.1</ele>
        <time>2020-06-17T12:48:56Z</time>
      </trkpt>
      <trkpt lat="49.30741" lon="-0.03569">
        <ele>124.1</ele>
        <time>2020-06-17T12:48:57Z</time>
      </trkpt>
      <trkpt lat="49.30741" lon="-0.0356">
        <ele>124.2</ele>
        <time>2020-06-17T12:48:58Z</time>
      </trkpt>
      <trkpt lat="49.3074" lon="-0.0355">
        <ele>124.3</ele>
        <time>2020-06-17T12:48:59Z</time>
      </trkpt>
      <trkpt lat="49.30739" lon="-0.03541">
        <ele>124.3</ele>
        <time>2020-06-17T12:49:00Z</time>
      </trkpt>
      <trkpt lat="49.30738" lon="-0.03532">
        <ele>124.4</ele>
        <time>2020-06-17T12:49:01Z</time>
      </trkpt>
      <trkpt lat="49.30738" lon="-0.03525">
        <ele>124.5</ele>
        <time>2020-06-17T12:49:02Z</time>
      </trkpt>
      <trkpt lat="49.30738" lon="-0.03518">
        <ele>124.6</ele>
        <time>2020-06-17T12:49:03Z</time>
      </trkpt>
      <trkpt lat="49.30737" lon="-0.0351">
        <ele>124.6</ele>
        <time>2020-06-17T12:49:04Z</time>
      </trkpt>
      <trkpt lat="49.30737" lon="-0.03503">
        <ele>124.7</ele>
        <time>2020-06-17T12:49:05Z</time>
      </trkpt>
      <trkpt lat="49.30737" lon="-0.03495">
        <ele>124.8</ele>
        <time>2020-06-17T12:49:06Z</time>
      </trkpt>
      <trkpt lat="49.30737" lon="-0.03489">
        <ele>124.8</ele>
        <time>2020-06-17T12:49:07Z</time>
      </trkpt>
      <trkpt lat="49.30737" lon="-0.03482">
        <ele>124.9</ele>
        <time>2020-06-17T12:49:08Z</time>
      </trkpt>
      <trkpt lat="49.30737" lon="-0.03476">
        <ele>124.9</ele>
        <time>2020-06-17T12:49:09Z</time>
      </trkpt>
      <trkpt lat="49.30737" lon="-0.03469">
        <ele>125</ele>
        <time>2020-06-17T12:49:10Z</time>
      </trkpt>
      <trkpt lat="49.30737" lon="-0.03462">
        <ele>125</ele>
        <time>2020-06-17T12:49:11Z</time>
      </trkpt>
      <trkpt lat="49.30737" lon="-0.03456">
        <ele>125.1</ele>
        <time>2020-06-17T12:49:12Z</time>
      </trkpt>
      <trkpt lat="49.30737" lon="-0.03449">
        <ele>125.2</ele>
        <time>2020-06-17T12:49:13Z</time>
      </trkpt>
      <trkpt lat="49.30737" lon="-0.03444">
        <ele>125.2</ele>
        <time>2020-06-17T12:49:14Z</time>
      </trkpt>
      <trkpt lat="49.30737" lon="-0.03439">
        <ele>125.3</ele>
        <time>2020-06-17T12:49:15Z</time>
      </trkpt>
      <trkpt lat="49.30737" lon="-0.03434">
        <ele>125.4</ele>
        <time>2020-06-17T12:49:16Z</time>
      </trkpt>
      <trkpt lat="49.30737" lon="-0.03429">
        <ele>125.4</ele>
        <time>2020-06-17T12:49:17Z</time>
      </trkpt>
      <trkpt lat="49.30737" lon="-0.03422">
        <ele>125.5</ele>
        <time>2020-06-17T12:49:18Z</time>
      </trkpt>
      <trkpt lat="49.30737" lon="-0.03416">
        <ele>125.5</ele>
        <time>2020-06-17T12:49:19Z</time>
      </trkpt>
      <trkpt lat="49.30737" lon="-0.03408">
        <ele>125.6</ele>
        <time>2020-06-17T12:49:20Z</time>
      </trkpt>
      <trkpt lat="49.30736" lon="-0.03402">
        <ele>125.6</ele>
        <time>2020-06-17T12:49:21Z</time>
      </trkpt>
      <trkpt lat="49.30735" lon="-0.03394">
        <ele>125.6</ele>
        <time>2020-06-17T12:49:22Z</time>
      </trkpt>
      <trkpt lat="49.30735" lon="-0.03385">
        <ele>125.7</ele>
        <time>2020-06-17T12:49:23Z</time>
      </trkpt>
      <trkpt lat="49.30735" lon="-0.03378">
        <ele>125.8</ele>
        <time>2020-06-17T12:49:24Z</time>
      </trkpt>
      <trkpt lat="49.30735" lon="-0.0337">
        <ele>125.9</ele>
        <time>2020-06-17T12:49:25Z</time>
      </trkpt>
      <trkpt lat="49.30735" lon="-0.03362">
        <ele>126</ele>
        <time>2020-06-17T12:49:26Z</time>
      </trkpt>
      <trkpt lat="49.30735" lon="-0.03353">
        <ele>126.1</ele>
        <time>2020-06-17T12:49:27Z</time>
      </trkpt>
      <trkpt lat="49.30735" lon="-0.03345">
        <ele>126.1</ele>
        <time>2020-06-17T12:49:28Z</time>
      </trkpt>
      <trkpt lat="49.30736" lon="-0.03338">
        <ele>126.2</ele>
        <time>2020-06-17T12:49:29Z</time>
      </trkpt>
      <trkpt lat="49.30737" lon="-0.0333">
        <ele>126.3</ele>
        <time>2020-06-17T12:49:30Z</time>
      </trkpt>
      <trkpt lat="49.30737" lon="-0.03323">
        <ele>126.3</ele>
        <time>2020-06-17T12:49:31Z</time>
      </trkpt>
      <trkpt lat="49.30737" lon="-0.03316">
        <ele>126.4</ele>
        <time>2020-06-17T12:49:32Z</time>
      </trkpt>
      <trkpt lat="49.30738" lon="-0.03309">
        <ele>126.4</ele>
        <time>2020-06-17T12:49:33Z</time>
      </trkpt>
      <trkpt lat="49.30738" lon="-0.03301">
        <ele>126.5</ele>
        <time>2020-06-17T12:49:34Z</time>
      </trkpt>
      <trkpt lat="49.30738" lon="-0.03293">
        <ele>126.5</ele>
        <time>2020-06-17T12:49:35Z</time>
      </trkpt>
      <trkpt lat="49.30739" lon="-0.03286">
        <ele>126.5</ele>
        <time>2020-06-17T12:49:36Z</time>
      </trkpt>
      <trkpt lat="49.30739" lon="-0.03277">
        <ele>126.5</ele>
        <time>2020-06-17T12:49:37Z</time>
      </trkpt>
      <trkpt lat="49.30739" lon="-0.0327">
        <ele>126.5</ele>
        <time>2020-06-17T12:49:38Z</time>
      </trkpt>
      <trkpt lat="49.30739" lon="-0.03262">
        <ele>126.6</ele>
        <time>2020-06-17T12:49:39Z</time>
      </trkpt>
      <trkpt lat="49.30738" lon="-0.03255">
        <ele>126.6</ele>
        <time>2020-06-17T12:49:40Z</time>
      </trkpt>
      <trkpt lat="49.30738" lon="-0.03248">
        <ele>126.6</ele>
        <time>2020-06-17T12:49:41Z</time>
      </trkpt>
      <trkpt lat="49.30737" lon="-0.03241">
        <ele>126.7</ele>
        <time>2020-06-17T12:49:42Z</time>
      </trkpt>
      <trkpt lat="49.30737" lon="-0.03234">
        <ele>126.7</ele>
        <time>2020-06-17T12:49:43Z</time>
      </trkpt>
      <trkpt lat="49.30737" lon="-0.03228">
        <ele>126.7</ele>
        <time>2020-06-17T12:49:44Z</time>
      </trkpt>
      <trkpt lat="49.30737" lon="-0.03222">
        <ele>126.7</ele>
        <time>2020-06-17T12:49:45Z</time>
      </trkpt>
      <trkpt lat="49.30737" lon="-0.03215">
        <ele>126.8</ele>
        <time>2020-06-17T12:49:46Z</time>
      </trkpt>
      <trkpt lat="49.30736" lon="-0.03208">
        <ele>126.8</ele>
        <time>2020-06-17T12:49:47Z</time>
      </trkpt>
      <trkpt lat="49.30735" lon="-0.03202">
        <ele>126.8</ele>
        <time>2020-06-17T12:49:48Z</time>
      </trkpt>
      <trkpt lat="49.30734" lon="-0.03194">
        <ele>126.9</ele>
        <time>2020-06-17T12:49:49Z</time>
      </trkpt>
      <trkpt lat="49.30734" lon="-0.03187">
        <ele>126.9</ele>
        <time>2020-06-17T12:49:50Z</time>
      </trkpt>
      <trkpt lat="49.30734" lon="-0.03181">
        <ele>126.9</ele>
        <time>2020-06-17T12:49:51Z</time>
      </trkpt>
      <trkpt lat="49.30734" lon="-0.03175">
        <ele>126.9</ele>
        <time>2020-06-17T12:49:52Z</time>
      </trkpt>
      <trkpt lat="49.30732" lon="-0.03168">
        <ele>126.9</ele>
        <time>2020-06-17T12:49:53Z</time>
      </trkpt>
      <trkpt lat="49.30729" lon="-0.03161">
        <ele>127</ele>
        <time>2020-06-17T12:49:54Z</time>
      </trkpt>
      <trkpt lat="49.30726" lon="-0.03153">
        <ele>127</ele>
        <time>2020-06-17T12:49:55Z</time>
      </trkpt>
      <trkpt lat="49.30724" lon="-0.03147">
        <ele>127</ele>
        <time>2020-06-17T12:49:56Z</time>
      </trkpt>
      <trkpt lat="49.30719" lon="-0.03136">
        <ele>127</ele>
        <time>2020-06-17T12:49:57Z</time>
      </trkpt>
      <trkpt lat="49.30715" lon="-0.03125">
        <ele>127.1</ele>
        <time>2020-06-17T12:49:58Z</time>
      </trkpt>
      <trkpt lat="49.3071" lon="-0.03113">
        <ele>127.1</ele>
        <time>2020-06-17T12:49:59Z</time>
      </trkpt>
      <trkpt lat="49.30708" lon="-0.03105">
        <ele>127.1</ele>
        <time>2020-06-17T12:50:00Z</time>
      </trkpt>
      <trkpt lat="49.30704" lon="-0.03096">
        <ele>127.1</ele>
        <time>2020-06-17T12:50:01Z</time>
      </trkpt>
      <trkpt lat="49.307" lon="-0.03087">
        <ele>127.1</ele>
        <time>2020-06-17T12:50:02Z</time>
      </trkpt>
      <trkpt lat="49.30696" lon="-0.03081">
        <ele>127.1</ele>
        <time>2020-06-17T12:50:03Z</time>
      </trkpt>
      <trkpt lat="49.30692" lon="-0.03076">
        <ele>127.1</ele>
        <time>2020-06-17T12:50:04Z</time>
      </trkpt>
      <trkpt lat="49.30686" lon="-0.0307">
        <ele>127.2</ele>
        <time>2020-06-17T12:50:05Z</time>
      </trkpt>
      <trkpt lat="49.30679" lon="-0.03066">
        <ele>127.2</ele>
        <time>2020-06-17T12:50:06Z</time>
      </trkpt>
      <trkpt lat="49.30673" lon="-0.03063">
        <ele>127.3</ele>
        <time>2020-06-17T12:50:07Z</time>
      </trkpt>
      <trkpt lat="49.30667" lon="-0.0306">
        <ele>127.4</ele>
        <time>2020-06-17T12:50:08Z</time>
      </trkpt>
      <trkpt lat="49.3066" lon="-0.03057">
        <ele>127.5</ele>
        <time>2020-06-17T12:50:09Z</time>
      </trkpt>
      <trkpt lat="49.30654" lon="-0.03056">
        <ele>127.6</ele>
        <time>2020-06-17T12:50:10Z</time>
      </trkpt>
      <trkpt lat="49.30648" lon="-0.03053">
        <ele>127.8</ele>
        <time>2020-06-17T12:50:11Z</time>
      </trkpt>
      <trkpt lat="49.30642" lon="-0.03051">
        <ele>127.9</ele>
        <time>2020-06-17T12:50:12Z</time>
      </trkpt>
      <trkpt lat="49.30636" lon="-0.03049">
        <ele>128.1</ele>
        <time>2020-06-17T12:50:13Z</time>
      </trkpt>
      <trkpt lat="49.30632" lon="-0.03046">
        <ele>128.2</ele>
        <time>2020-06-17T12:50:14Z</time>
      </trkpt>
      <trkpt lat="49.30627" lon="-0.03044">
        <ele>128.3</ele>
        <time>2020-06-17T12:50:15Z</time>
      </trkpt>
      <trkpt lat="49.30623" lon="-0.03043">
        <ele>128.4</ele>
        <time>2020-06-17T12:50:16Z</time>
      </trkpt>
      <trkpt lat="49.3062" lon="-0.03042">
        <ele>128.5</ele>
        <time>2020-06-17T12:50:17Z</time>
      </trkpt>
      <trkpt lat="49.30619" lon="-0.03041">
        <ele>128.5</ele>
        <time>2020-06-17T12:50:18Z</time>
      </trkpt>
      <trkpt lat="49.30618" lon="-0.03041">
        <ele>128.5</ele>
        <time>2020-06-17T12:50:19Z</time>
      </trkpt>
      <trkpt lat="49.30617" lon="-0.03041">
        <ele>128.5</ele>
        <time>2020-06-17T12:50:20Z</time>
      </trkpt>
      <trkpt lat="49.30616" lon="-0.0304">
        <ele>128.5</ele>
        <time>2020-06-17T12:50:21Z</time>
      </trkpt>
      <trkpt lat="49.30615" lon="-0.0304">
        <ele>128.6</ele>
        <time>2020-06-17T12:50:22Z</time>
      </trkpt>
      <trkpt lat="49.30613" lon="-0.03037">
        <ele>128.6</ele>
        <time>2020-06-17T12:50:23Z</time>
      </trkpt>
      <trkpt lat="49.30612" lon="-0.03035">
        <ele>128.6</ele>
        <time>2020-06-17T12:50:24Z</time>
      </trkpt>
      <trkpt lat="49.3061" lon="-0.03032">
        <ele>128.7</ele>
        <time>2020-06-17T12:50:25Z</time>
      </trkpt>
      <trkpt lat="49.30609" lon="-0.0303">
        <ele>128.7</ele>
        <time>2020-06-17T12:50:26Z</time>
      </trkpt>
      <trkpt lat="49.30608" lon="-0.03028">
        <ele>128.7</ele>
        <time>2020-06-17T12:50:27Z</time>
      </trkpt>
      <trkpt lat="49.30609" lon="-0.03025">
        <ele>128.6</ele>
        <time>2020-06-17T12:50:28Z</time>
      </trkpt>
      <trkpt lat="49.30611" lon="-0.03022">
        <ele>128.6</ele>
        <time>2020-06-17T12:50:29Z</time>
      </trkpt>
      <trkpt lat="49.30613" lon="-0.03018">
        <ele>128.6</ele>
        <time>2020-06-17T12:50:30Z</time>
      </trkpt>
      <trkpt lat="49.30615" lon="-0.03012">
        <ele>128.5</ele>
        <time>2020-06-17T12:50:31Z</time>
      </trkpt>
      <trkpt lat="49.30617" lon="-0.03006">
        <ele>128.6</ele>
        <time>2020-06-17T12:50:32Z</time>
      </trkpt>
      <trkpt lat="49.30619" lon="-0.02999">
        <ele>128.6</ele>
        <time>2020-06-17T12:50:33Z</time>
      </trkpt>
      <trkpt lat="49.30621" lon="-0.02993">
        <ele>128.6</ele>
        <time>2020-06-17T12:50:34Z</time>
      </trkpt>
      <trkpt lat="49.30623" lon="-0.02987">
        <ele>128.6</ele>
        <time>2020-06-17T12:50:35Z</time>
      </trkpt>
      <trkpt lat="49.30625" lon="-0.02981">
        <ele>128.6</ele>
        <time>2020-06-17T12:50:36Z</time>
      </trkpt>
      <trkpt lat="49.30627" lon="-0.02974">
        <ele>128.6</ele>
        <time>2020-06-17T12:50:37Z</time>
      </trkpt>
      <trkpt lat="49.30629" lon="-0.02969">
        <ele>128.7</ele>
        <time>2020-06-17T12:50:38Z</time>
      </trkpt>
      <trkpt lat="49.30631" lon="-0.02963">
        <ele>128.7</ele>
        <time>2020-06-17T12:50:39Z</time>
      </trkpt>
      <trkpt lat="49.30633" lon="-0.02956">
        <ele>128.7</ele>
        <time>2020-06-17T12:50:40Z</time>
      </trkpt>
      <trkpt lat="49.30635" lon="-0.02951">
        <ele>128.8</ele>
        <time>2020-06-17T12:50:41Z</time>
      </trkpt>
      <trkpt lat="49.30637" lon="-0.02945">
        <ele>128.8</ele>
        <time>2020-06-17T12:50:42Z</time>
      </trkpt>
      <trkpt lat="49.30638" lon="-0.02938">
        <ele>128.8</ele>
        <time>2020-06-17T12:50:43Z</time>
      </trkpt>
      <trkpt lat="49.3064" lon="-0.02933">
        <ele>128.9</ele>
        <time>2020-06-17T12:50:44Z</time>
      </trkpt>
      <trkpt lat="49.30642" lon="-0.02927">
        <ele>128.9</ele>
        <time>2020-06-17T12:50:45Z</time>
      </trkpt>
      <trkpt lat="49.30644" lon="-0.02921">
        <ele>129</ele>
        <time>2020-06-17T12:50:46Z</time>
      </trkpt>
      <trkpt lat="49.30645" lon="-0.02915">
        <ele>129.1</ele>
        <time>2020-06-17T12:50:47Z</time>
      </trkpt>
      <trkpt lat="49.30647" lon="-0.02908">
        <ele>129.1</ele>
        <time>2020-06-17T12:50:48Z</time>
      </trkpt>
      <trkpt lat="49.30649" lon="-0.02901">
        <ele>129.2</ele>
        <time>2020-06-17T12:50:49Z</time>
      </trkpt>
      <trkpt lat="49.30651" lon="-0.02894">
        <ele>129.3</ele>
        <time>2020-06-17T12:50:50Z</time>
      </trkpt>
      <trkpt lat="49.30653" lon="-0.02888">
        <ele>129.3</ele>
        <time>2020-06-17T12:50:51Z</time>
      </trkpt>
      <trkpt lat="49.30655" lon="-0.0288">
        <ele>129.4</ele>
        <time>2020-06-17T12:50:52Z</time>
      </trkpt>
      <trkpt lat="49.30657" lon="-0.02873">
        <ele>129.4</ele>
        <time>2020-06-17T12:50:53Z</time>
      </trkpt>
      <trkpt lat="49.30659" lon="-0.02866">
        <ele>129.5</ele>
        <time>2020-06-17T12:50:54Z</time>
      </trkpt>
      <trkpt lat="49.30662" lon="-0.02858">
        <ele>129.5</ele>
        <time>2020-06-17T12:50:55Z</time>
      </trkpt>
      <trkpt lat="49.30664" lon="-0.02851">
        <ele>129.5</ele>
        <time>2020-06-17T12:50:56Z</time>
      </trkpt>
      <trkpt lat="49.30665" lon="-0.02843">
        <ele>129.6</ele>
        <time>2020-06-17T12:50:57Z</time>
      </trkpt>
      <trkpt lat="49.30666" lon="-0.02835">
        <ele>129.7</ele>
        <time>2020-06-17T12:50:58Z</time>
      </trkpt>
      <trkpt lat="49.30668" lon="-0.02826">
        <ele>129.7</ele>
        <time>2020-06-17T12:50:59Z</time>
      </trkpt>
      <trkpt lat="49.30669" lon="-0.02819">
        <ele>129.8</ele>
        <time>2020-06-17T12:51:00Z</time>
      </trkpt>
      <trkpt lat="49.3067" lon="-0.02812">
        <ele>129.8</ele>
        <time>2020-06-17T12:51:01Z</time>
      </trkpt>
      <trkpt lat="49.30672" lon="-0.02805">
        <ele>129.8</ele>
        <time>2020-06-17T12:51:02Z</time>
      </trkpt>
      <trkpt lat="49.30674" lon="-0.02798">
        <ele>129.9</ele>
        <time>2020-06-17T12:51:03Z</time>
      </trkpt>
      <trkpt lat="49.30676" lon="-0.02791">
        <ele>129.9</ele>
        <time>2020-06-17T12:51:04Z</time>
      </trkpt>
      <trkpt lat="49.30678" lon="-0.02783">
        <ele>130.1</ele>
        <time>2020-06-17T12:51:05Z</time>
      </trkpt>
      <trkpt lat="49.3068" lon="-0.02775">
        <ele>130.1</ele>
        <time>2020-06-17T12:51:06Z</time>
      </trkpt>
      <trkpt lat="49.30681" lon="-0.02766">
        <ele>130.2</ele>
        <time>2020-06-17T12:51:07Z</time>
      </trkpt>
      <trkpt lat="49.30682" lon="-0.02757">
        <ele>130.3</ele>
        <time>2020-06-17T12:51:08Z</time>
      </trkpt>
      <trkpt lat="49.30684" lon="-0.02749">
        <ele>130.4</ele>
        <time>2020-06-17T12:51:09Z</time>
      </trkpt>
      <trkpt lat="49.30686" lon="-0.02741">
        <ele>130.5</ele>
        <time>2020-06-17T12:51:10Z</time>
      </trkpt>
      <trkpt lat="49.30688" lon="-0.02733">
        <ele>130.6</ele>
        <time>2020-06-17T12:51:11Z</time>
      </trkpt>
      <trkpt lat="49.30689" lon="-0.02726">
        <ele>130.7</ele>
        <time>2020-06-17T12:51:12Z</time>
      </trkpt>
      <trkpt lat="49.30691" lon="-0.02717">
        <ele>130.6</ele>
        <time>2020-06-17T12:51:13Z</time>
      </trkpt>
      <trkpt lat="49.30693" lon="-0.02709">
        <ele>130.6</ele>
        <time>2020-06-17T12:51:14Z</time>
      </trkpt>
      <trkpt lat="49.30694" lon="-0.02701">
        <ele>130.6</ele>
        <time>2020-06-17T12:51:15Z</time>
      </trkpt>
      <trkpt lat="49.30695" lon="-0.02694">
        <ele>130.5</ele>
        <time>2020-06-17T12:51:16Z</time>
      </trkpt>
      <trkpt lat="49.30694" lon="-0.02687">
        <ele>130.5</ele>
        <time>2020-06-17T12:51:17Z</time>
      </trkpt>
      <trkpt lat="49.30694" lon="-0.0268">
        <ele>130.5</ele>
        <time>2020-06-17T12:51:18Z</time>
      </trkpt>
      <trkpt lat="49.30693" lon="-0.02672">
        <ele>130.4</ele>
        <time>2020-06-17T12:51:19Z</time>
      </trkpt>
      <trkpt lat="49.30692" lon="-0.02665">
        <ele>130.4</ele>
        <time>2020-06-17T12:51:20Z</time>
      </trkpt>
      <trkpt lat="49.30693" lon="-0.02656">
        <ele>131</ele>
        <time>2020-06-17T12:51:21Z</time>
      </trkpt>
      <trkpt lat="49.30694" lon="-0.02646">
        <ele>130.7</ele>
        <time>2020-06-17T12:51:22Z</time>
      </trkpt>
      <trkpt lat="49.30695" lon="-0.0264">
        <ele>130.4</ele>
        <time>2020-06-17T12:51:23Z</time>
      </trkpt>
      <trkpt lat="49.30697" lon="-0.02635">
        <ele>130.6</ele>
        <time>2020-06-17T12:51:24Z</time>
      </trkpt>
      <trkpt lat="49.30701" lon="-0.02629">
        <ele>130.5</ele>
        <time>2020-06-17T12:51:25Z</time>
      </trkpt>
      <trkpt lat="49.30704" lon="-0.02624">
        <ele>130.3</ele>
        <time>2020-06-17T12:51:26Z</time>
      </trkpt>
      <trkpt lat="49.30707" lon="-0.02618">
        <ele>130.1</ele>
        <time>2020-06-17T12:51:27Z</time>
      </trkpt>
      <trkpt lat="49.3071" lon="-0.02612">
        <ele>130</ele>
        <time>2020-06-17T12:51:28Z</time>
      </trkpt>
      <trkpt lat="49.30713" lon="-0.02604">
        <ele>129.8</ele>
        <time>2020-06-17T12:51:29Z</time>
      </trkpt>
      <trkpt lat="49.30716" lon="-0.02597">
        <ele>129.8</ele>
        <time>2020-06-17T12:51:30Z</time>
      </trkpt>
      <trkpt lat="49.30719" lon="-0.0259">
        <ele>129.8</ele>
        <time>2020-06-17T12:51:31Z</time>
      </trkpt>
      <trkpt lat="49.30722" lon="-0.02582">
        <ele>129.8</ele>
        <time>2020-06-17T12:51:32Z</time>
      </trkpt>
      <trkpt lat="49.30725" lon="-0.02574">
        <ele>129.8</ele>
        <time>2020-06-17T12:51:33Z</time>
      </trkpt>
      <trkpt lat="49.30727" lon="-0.02566">
        <ele>129.9</ele>
        <time>2020-06-17T12:51:34Z</time>
      </trkpt>
      <trkpt lat="49.30729" lon="-0.02558">
        <ele>129.9</ele>
        <time>2020-06-17T12:51:35Z</time>
      </trkpt>
      <trkpt lat="49.30731" lon="-0.02549">
        <ele>129.8</ele>
        <time>2020-06-17T12:51:36Z</time>
      </trkpt>
      <trkpt lat="49.30733" lon="-0.02541">
        <ele>129.8</ele>
        <time>2020-06-17T12:51:37Z</time>
      </trkpt>
      <trkpt lat="49.30735" lon="-0.02531">
        <ele>129.8</ele>
        <time>2020-06-17T12:51:38Z</time>
      </trkpt>
      <trkpt lat="49.30736" lon="-0.02523">
        <ele>129.7</ele>
        <time>2020-06-17T12:51:39Z</time>
      </trkpt>
      <trkpt lat="49.30738" lon="-0.02515">
        <ele>129.7</ele>
        <time>2020-06-17T12:51:40Z</time>
      </trkpt>
      <trkpt lat="49.3074" lon="-0.02506">
        <ele>129.6</ele>
        <time>2020-06-17T12:51:41Z</time>
      </trkpt>
      <trkpt lat="49.30742" lon="-0.02497">
        <ele>129.6</ele>
        <time>2020-06-17T12:51:42Z</time>
      </trkpt>
      <trkpt lat="49.30744" lon="-0.02488">
        <ele>129.6</ele>
        <time>2020-06-17T12:51:43Z</time>
      </trkpt>
      <trkpt lat="49.30746" lon="-0.02479">
        <ele>129.6</ele>
        <time>2020-06-17T12:51:44Z</time>
      </trkpt>
      <trkpt lat="49.30748" lon="-0.0247">
        <ele>129.5</ele>
        <time>2020-06-17T12:51:45Z</time>
      </trkpt>
      <trkpt lat="49.3075" lon="-0.0246">
        <ele>129.5</ele>
        <time>2020-06-17T12:51:46Z</time>
      </trkpt>
      <trkpt lat="49.30753" lon="-0.02452">
        <ele>129.5</ele>
        <time>2020-06-17T12:51:47Z</time>
      </trkpt>
      <trkpt lat="49.30756" lon="-0.02443">
        <ele>129.4</ele>
        <time>2020-06-17T12:51:48Z</time>
      </trkpt>
      <trkpt lat="49.30759" lon="-0.02435">
        <ele>129.4</ele>
        <time>2020-06-17T12:51:49Z</time>
      </trkpt>
      <trkpt lat="49.3076" lon="-0.02426">
        <ele>129.4</ele>
        <time>2020-06-17T12:51:50Z</time>
      </trkpt>
      <trkpt lat="49.30763" lon="-0.02417">
        <ele>129.3</ele>
        <time>2020-06-17T12:51:51Z</time>
      </trkpt>
      <trkpt lat="49.30766" lon="-0.02408">
        <ele>129.3</ele>
        <time>2020-06-17T12:51:52Z</time>
      </trkpt>
      <trkpt lat="49.30769" lon="-0.02399">
        <ele>129.2</ele>
        <time>2020-06-17T12:51:53Z</time>
      </trkpt>
      <trkpt lat="49.30771" lon="-0.0239">
        <ele>129.1</ele>
        <time>2020-06-17T12:51:54Z</time>
      </trkpt>
      <trkpt lat="49.30774" lon="-0.0238">
        <ele>129.1</ele>
        <time>2020-06-17T12:51:55Z</time>
      </trkpt>
      <trkpt lat="49.30777" lon="-0.02371">
        <ele>129</ele>
        <time>2020-06-17T12:51:56Z</time>
      </trkpt>
      <trkpt lat="49.3078" lon="-0.02361">
        <ele>128.9</ele>
        <time>2020-06-17T12:51:57Z</time>
      </trkpt>
      <trkpt lat="49.30782" lon="-0.02351">
        <ele>128.8</ele>
        <time>2020-06-17T12:51:58Z</time>
      </trkpt>
      <trkpt lat="49.30785" lon="-0.02341">
        <ele>128.8</ele>
        <time>2020-06-17T12:51:59Z</time>
      </trkpt>
      <trkpt lat="49.30787" lon="-0.02329">
        <ele>128.7</ele>
        <time>2020-06-17T12:52:00Z</time>
      </trkpt>
      <trkpt lat="49.30789" lon="-0.02319">
        <ele>128.7</ele>
        <time>2020-06-17T12:52:01Z</time>
      </trkpt>
      <trkpt lat="49.30791" lon="-0.0231">
        <ele>128.6</ele>
        <time>2020-06-17T12:52:02Z</time>
      </trkpt>
      <trkpt lat="49.30792" lon="-0.02301">
        <ele>128.5</ele>
        <time>2020-06-17T12:52:03Z</time>
      </trkpt>
      <trkpt lat="49.30793" lon="-0.02291">
        <ele>128.4</ele>
        <time>2020-06-17T12:52:04Z</time>
      </trkpt>
      <trkpt lat="49.30795" lon="-0.0228">
        <ele>128.4</ele>
        <time>2020-06-17T12:52:05Z</time>
      </trkpt>
      <trkpt lat="49.30797" lon="-0.02271">
        <ele>128.3</ele>
        <time>2020-06-17T12:52:06Z</time>
      </trkpt>
      <trkpt lat="49.30799" lon="-0.02262">
        <ele>128.2</ele>
        <time>2020-06-17T12:52:07Z</time>
      </trkpt>
      <trkpt lat="49.308" lon="-0.02252">
        <ele>128.1</ele>
        <time>2020-06-17T12:52:08Z</time>
      </trkpt>
      <trkpt lat="49.30802" lon="-0.02243">
        <ele>128</ele>
        <time>2020-06-17T12:52:09Z</time>
      </trkpt>
      <trkpt lat="49.30803" lon="-0.02233">
        <ele>127.9</ele>
        <time>2020-06-17T12:52:10Z</time>
      </trkpt>
      <trkpt lat="49.30805" lon="-0.02223">
        <ele>127.8</ele>
        <time>2020-06-17T12:52:11Z</time>
      </trkpt>
      <trkpt lat="49.30808" lon="-0.02213">
        <ele>127.7</ele>
        <time>2020-06-17T12:52:12Z</time>
      </trkpt>
      <trkpt lat="49.3081" lon="-0.02204">
        <ele>127.6</ele>
        <time>2020-06-17T12:52:13Z</time>
      </trkpt>
      <trkpt lat="49.30812" lon="-0.02193">
        <ele>127.5</ele>
        <time>2020-06-17T12:52:14Z</time>
      </trkpt>
      <trkpt lat="49.30815" lon="-0.02184">
        <ele>127.4</ele>
        <time>2020-06-17T12:52:15Z</time>
      </trkpt>
      <trkpt lat="49.30817" lon="-0.02175">
        <ele>127.4</ele>
        <time>2020-06-17T12:52:16Z</time>
      </trkpt>
      <trkpt lat="49.3082" lon="-0.02165">
        <ele>127.2</ele>
        <time>2020-06-17T12:52:17Z</time>
      </trkpt>
      <trkpt lat="49.30822" lon="-0.02156">
        <ele>127.1</ele>
        <time>2020-06-17T12:52:18Z</time>
      </trkpt>
      <trkpt lat="49.30824" lon="-0.02146">
        <ele>127</ele>
        <time>2020-06-17T12:52:19Z</time>
      </trkpt>
      <trkpt lat="49.30826" lon="-0.02136">
        <ele>126.9</ele>
        <time>2020-06-17T12:52:20Z</time>
      </trkpt>
      <trkpt lat="49.30827" lon="-0.02126">
        <ele>126.8</ele>
        <time>2020-06-17T12:52:21Z</time>
      </trkpt>
      <trkpt lat="49.30829" lon="-0.02117">
        <ele>126.7</ele>
        <time>2020-06-17T12:52:22Z</time>
      </trkpt>
      <trkpt lat="49.30831" lon="-0.02107">
        <ele>126.6</ele>
        <time>2020-06-17T12:52:23Z</time>
      </trkpt>
      <trkpt lat="49.30833" lon="-0.02097">
        <ele>126.5</ele>
        <time>2020-06-17T12:52:24Z</time>
      </trkpt>
      <trkpt lat="49.30835" lon="-0.02087">
        <ele>126.5</ele>
        <time>2020-06-17T12:52:25Z</time>
      </trkpt>
      <trkpt lat="49.30837" lon="-0.02076">
        <ele>126.3</ele>
        <time>2020-06-17T12:52:26Z</time>
      </trkpt>
      <trkpt lat="49.30839" lon="-0.02066">
        <ele>126.2</ele>
        <time>2020-06-17T12:52:27Z</time>
      </trkpt>
      <trkpt lat="49.30841" lon="-0.02056">
        <ele>126</ele>
        <time>2020-06-17T12:52:28Z</time>
      </trkpt>
      <trkpt lat="49.30843" lon="-0.02045">
        <ele>125.8</ele>
        <time>2020-06-17T12:52:29Z</time>
      </trkpt>
      <trkpt lat="49.30846" lon="-0.02034">
        <ele>125.6</ele>
        <time>2020-06-17T12:52:30Z</time>
      </trkpt>
      <trkpt lat="49.30848" lon="-0.02024">
        <ele>125.5</ele>
        <time>2020-06-17T12:52:31Z</time>
      </trkpt>
      <trkpt lat="49.3085" lon="-0.02015">
        <ele>125.3</ele>
        <time>2020-06-17T12:52:32Z</time>
      </trkpt>
      <trkpt lat="49.30852" lon="-0.02004">
        <ele>125.2</ele>
        <time>2020-06-17T12:52:33Z</time>
      </trkpt>
      <trkpt lat="49.30854" lon="-0.01994">
        <ele>125.1</ele>
        <time>2020-06-17T12:52:34Z</time>
      </trkpt>
      <trkpt lat="49.30857" lon="-0.01983">
        <ele>125</ele>
        <time>2020-06-17T12:52:35Z</time>
      </trkpt>
      <trkpt lat="49.30859" lon="-0.01973">
        <ele>124.8</ele>
        <time>2020-06-17T12:52:36Z</time>
      </trkpt>
      <trkpt lat="49.30862" lon="-0.01962">
        <ele>124.6</ele>
        <time>2020-06-17T12:52:37Z</time>
      </trkpt>
      <trkpt lat="49.30864" lon="-0.01951">
        <ele>124.1</ele>
        <time>2020-06-17T12:52:38Z</time>
      </trkpt>
      <trkpt lat="49.30867" lon="-0.0194">
        <ele>123.7</ele>
        <time>2020-06-17T12:52:39Z</time>
      </trkpt>
      <trkpt lat="49.30869" lon="-0.01929">
        <ele>123.3</ele>
        <time>2020-06-17T12:52:40Z</time>
      </trkpt>
      <trkpt lat="49.30871" lon="-0.01917">
        <ele>123</ele>
        <time>2020-06-17T12:52:41Z</time>
      </trkpt>
      <trkpt lat="49.30873" lon="-0.01905">
        <ele>122.6</ele>
        <time>2020-06-17T12:52:42Z</time>
      </trkpt>
      <trkpt lat="49.30874" lon="-0.01893">
        <ele>122.2</ele>
        <time>2020-06-17T12:52:43Z</time>
      </trkpt>
      <trkpt lat="49.30876" lon="-0.01881">
        <ele>121.8</ele>
        <time>2020-06-17T12:52:44Z</time>
      </trkpt>
      <trkpt lat="49.30877" lon="-0.01868">
        <ele>121.4</ele>
        <time>2020-06-17T12:52:45Z</time>
      </trkpt>
      <trkpt lat="49.30879" lon="-0.01858">
        <ele>121.1</ele>
        <time>2020-06-17T12:52:46Z</time>
      </trkpt>
      <trkpt lat="49.3088" lon="-0.01846">
        <ele>120.7</ele>
        <time>2020-06-17T12:52:47Z</time>
      </trkpt>
      <trkpt lat="49.30881" lon="-0.01832">
        <ele>120.2</ele>
        <time>2020-06-17T12:52:48Z</time>
      </trkpt>
      <trkpt lat="49.30882" lon="-0.01817">
        <ele>119.6</ele>
        <time>2020-06-17T12:52:49Z</time>
      </trkpt>
      <trkpt lat="49.30883" lon="-0.01802">
        <ele>118.9</ele>
        <time>2020-06-17T12:52:50Z</time>
      </trkpt>
      <trkpt lat="49.30883" lon="-0.01786">
        <ele>118.2</ele>
        <time>2020-06-17T12:52:51Z</time>
      </trkpt>
      <trkpt lat="49.30883" lon="-0.01771">
        <ele>117.5</ele>
        <time>2020-06-17T12:52:52Z</time>
      </trkpt>
      <trkpt lat="49.30884" lon="-0.01756">
        <ele>116.7</ele>
        <time>2020-06-17T12:52:53Z</time>
      </trkpt>
      <trkpt lat="49.30885" lon="-0.01741">
        <ele>116</ele>
        <time>2020-06-17T12:52:54Z</time>
      </trkpt>
      <trkpt lat="49.30886" lon="-0.01724">
        <ele>115.2</ele>
        <time>2020-06-17T12:52:55Z</time>
      </trkpt>
      <trkpt lat="49.30887" lon="-0.01705">
        <ele>114.3</ele>
        <time>2020-06-17T12:52:56Z</time>
      </trkpt>
      <trkpt lat="49.30889" lon="-0.01687">
        <ele>113.3</ele>
        <time>2020-06-17T12:52:57Z</time>
      </trkpt>
      <trkpt lat="49.30891" lon="-0.01669">
        <ele>112.4</ele>
        <time>2020-06-17T12:52:58Z</time>
      </trkpt>
      <trkpt lat="49.30894" lon="-0.01655">
        <ele>111.5</ele>
        <time>2020-06-17T12:52:59Z</time>
      </trkpt>
      <trkpt lat="49.30897" lon="-0.01638">
        <ele>110.7</ele>
        <time>2020-06-17T12:53:00Z</time>
      </trkpt>
      <trkpt lat="49.30901" lon="-0.01624">
        <ele>109.9</ele>
        <time>2020-06-17T12:53:01Z</time>
      </trkpt>
      <trkpt lat="49.30905" lon="-0.01613">
        <ele>109.3</ele>
        <time>2020-06-17T12:53:02Z</time>
      </trkpt>
      <trkpt lat="49.30909" lon="-0.01598">
        <ele>108.4</ele>
        <time>2020-06-17T12:53:03Z</time>
      </trkpt>
      <trkpt lat="49.30914" lon="-0.01585">
        <ele>107.6</ele>
        <time>2020-06-17T12:53:04Z</time>
      </trkpt>
      <trkpt lat="49.30921" lon="-0.01571">
        <ele>106.6</ele>
        <time>2020-06-17T12:53:05Z</time>
      </trkpt>
      <trkpt lat="49.30929" lon="-0.01559">
        <ele>105.5</ele>
        <time>2020-06-17T12:53:06Z</time>
      </trkpt>
      <trkpt lat="49.30939" lon="-0.01549">
        <ele>104.4</ele>
        <time>2020-06-17T12:53:07Z</time>
      </trkpt>
      <trkpt lat="49.30948" lon="-0.01539">
        <ele>103.3</ele>
        <time>2020-06-17T12:53:08Z</time>
      </trkpt>
      <trkpt lat="49.30958" lon="-0.01531">
        <ele>102.2</ele>
        <time>2020-06-17T12:53:09Z</time>
      </trkpt>
      <trkpt lat="49.30967" lon="-0.01523">
        <ele>101.2</ele>
        <time>2020-06-17T12:53:10Z</time>
      </trkpt>
      <trkpt lat="49.30977" lon="-0.01516">
        <ele>100.3</ele>
        <time>2020-06-17T12:53:11Z</time>
      </trkpt>
      <trkpt lat="49.30986" lon="-0.01509">
        <ele>99.5</ele>
        <time>2020-06-17T12:53:12Z</time>
      </trkpt>
      <trkpt lat="49.30996" lon="-0.01503">
        <ele>98.6</ele>
        <time>2020-06-17T12:53:13Z</time>
      </trkpt>
      <trkpt lat="49.31005" lon="-0.01497">
        <ele>97.8</ele>
        <time>2020-06-17T12:53:14Z</time>
      </trkpt>
      <trkpt lat="49.31016" lon="-0.01491">
        <ele>96.8</ele>
        <time>2020-06-17T12:53:15Z</time>
      </trkpt>
      <trkpt lat="49.31026" lon="-0.01485">
        <ele>95.8</ele>
        <time>2020-06-17T12:53:16Z</time>
      </trkpt>
      <trkpt lat="49.31038" lon="-0.0148">
        <ele>94.7</ele>
        <time>2020-06-17T12:53:17Z</time>
      </trkpt>
      <trkpt lat="49.31049" lon="-0.01474">
        <ele>93.6</ele>
        <time>2020-06-17T12:53:18Z</time>
      </trkpt>
      <trkpt lat="49.3106" lon="-0.01467">
        <ele>92.5</ele>
        <time>2020-06-17T12:53:19Z</time>
      </trkpt>
      <trkpt lat="49.31071" lon="-0.01461">
        <ele>91.5</ele>
        <time>2020-06-17T12:53:20Z</time>
      </trkpt>
      <trkpt lat="49.31082" lon="-0.01454">
        <ele>90.4</ele>
        <time>2020-06-17T12:53:21Z</time>
      </trkpt>
      <trkpt lat="49.31093" lon="-0.01446">
        <ele>89.4</ele>
        <time>2020-06-17T12:53:22Z</time>
      </trkpt>
      <trkpt lat="49.31104" lon="-0.01437">
        <ele>88.3</ele>
        <time>2020-06-17T12:53:23Z</time>
      </trkpt>
      <trkpt lat="49.31118" lon="-0.01429">
        <ele>87.2</ele>
        <time>2020-06-17T12:53:24Z</time>
      </trkpt>
      <trkpt lat="49.3113" lon="-0.0142">
        <ele>86.2</ele>
        <time>2020-06-17T12:53:25Z</time>
      </trkpt>
      <trkpt lat="49.3114" lon="-0.01411">
        <ele>85.4</ele>
        <time>2020-06-17T12:53:26Z</time>
      </trkpt>
      <trkpt lat="49.31151" lon="-0.01403">
        <ele>84.7</ele>
        <time>2020-06-17T12:53:27Z</time>
      </trkpt>
      <trkpt lat="49.31161" lon="-0.01395">
        <ele>84.2</ele>
        <time>2020-06-17T12:53:28Z</time>
      </trkpt>
      <trkpt lat="49.31172" lon="-0.01385">
        <ele>83.6</ele>
        <time>2020-06-17T12:53:29Z</time>
      </trkpt>
      <trkpt lat="49.31181" lon="-0.01376">
        <ele>83.2</ele>
        <time>2020-06-17T12:53:30Z</time>
      </trkpt>
      <trkpt lat="49.31191" lon="-0.01367">
        <ele>82.9</ele>
        <time>2020-06-17T12:53:31Z</time>
      </trkpt>
      <trkpt lat="49.31201" lon="-0.0136">
        <ele>82.6</ele>
        <time>2020-06-17T12:53:32Z</time>
      </trkpt>
      <trkpt lat="49.31209" lon="-0.01351">
        <ele>82.4</ele>
        <time>2020-06-17T12:53:33Z</time>
      </trkpt>
      <trkpt lat="49.31217" lon="-0.01341">
        <ele>82.3</ele>
        <time>2020-06-17T12:53:34Z</time>
      </trkpt>
      <trkpt lat="49.31225" lon="-0.01331">
        <ele>82.3</ele>
        <time>2020-06-17T12:53:35Z</time>
      </trkpt>
      <trkpt lat="49.31232" lon="-0.01321">
        <ele>82.2</ele>
        <time>2020-06-17T12:53:36Z</time>
      </trkpt>
      <trkpt lat="49.31242" lon="-0.01312">
        <ele>82</ele>
        <time>2020-06-17T12:53:37Z</time>
      </trkpt>
      <trkpt lat="49.31249" lon="-0.01303">
        <ele>81.8</ele>
        <time>2020-06-17T12:53:38Z</time>
      </trkpt>
      <trkpt lat="49.31258" lon="-0.01295">
        <ele>81.5</ele>
        <time>2020-06-17T12:53:39Z</time>
      </trkpt>
      <trkpt lat="49.31266" lon="-0.01286">
        <ele>81.3</ele>
        <time>2020-06-17T12:53:40Z</time>
      </trkpt>
      <trkpt lat="49.31271" lon="-0.01278">
        <ele>81.1</ele>
        <time>2020-06-17T12:53:41Z</time>
      </trkpt>
      <trkpt lat="49.31279" lon="-0.0127">
        <ele>80.9</ele>
        <time>2020-06-17T12:53:42Z</time>
      </trkpt>
      <trkpt lat="49.31285" lon="-0.01263">
        <ele>80.7</ele>
        <time>2020-06-17T12:53:43Z</time>
      </trkpt>
      <trkpt lat="49.31291" lon="-0.01255">
        <ele>80.5</ele>
        <time>2020-06-17T12:53:44Z</time>
      </trkpt>
      <trkpt lat="49.31295" lon="-0.01248">
        <ele>80.4</ele>
        <time>2020-06-17T12:53:45Z</time>
      </trkpt>
      <trkpt lat="49.313" lon="-0.01243">
        <ele>80.4</ele>
        <time>2020-06-17T12:53:46Z</time>
      </trkpt>
      <trkpt lat="49.31304" lon="-0.01237">
        <ele>80.2</ele>
        <time>2020-06-17T12:53:47Z</time>
      </trkpt>
      <trkpt lat="49.31307" lon="-0.01232">
        <ele>79.9</ele>
        <time>2020-06-17T12:53:48Z</time>
      </trkpt>
      <trkpt lat="49.31311" lon="-0.01228">
        <ele>79.7</ele>
        <time>2020-06-17T12:53:49Z</time>
      </trkpt>
      <trkpt lat="49.31314" lon="-0.01223">
        <ele>79.4</ele>
        <time>2020-06-17T12:53:50Z</time>
      </trkpt>
      <trkpt lat="49.31317" lon="-0.01219">
        <ele>79.2</ele>
        <time>2020-06-17T12:53:51Z</time>
      </trkpt>
      <trkpt lat="49.3132" lon="-0.01215">
        <ele>78.9</ele>
        <time>2020-06-17T12:53:52Z</time>
      </trkpt>
      <trkpt lat="49.31324" lon="-0.01211">
        <ele>78.5</ele>
        <time>2020-06-17T12:53:53Z</time>
      </trkpt>
      <trkpt lat="49.31329" lon="-0.01207">
        <ele>78.1</ele>
        <time>2020-06-17T12:53:54Z</time>
      </trkpt>
      <trkpt lat="49.31334" lon="-0.01201">
        <ele>77.8</ele>
        <time>2020-06-17T12:53:55Z</time>
      </trkpt>
      <trkpt lat="49.3134" lon="-0.01195">
        <ele>77.4</ele>
        <time>2020-06-17T12:53:56Z</time>
      </trkpt>
      <trkpt lat="49.31346" lon="-0.01188">
        <ele>77</ele>
        <time>2020-06-17T12:53:57Z</time>
      </trkpt>
      <trkpt lat="49.31351" lon="-0.01184">
        <ele>76.6</ele>
        <time>2020-06-17T12:53:58Z</time>
      </trkpt>
      <trkpt lat="49.31357" lon="-0.01178">
        <ele>76.2</ele>
        <time>2020-06-17T12:53:59Z</time>
      </trkpt>
      <trkpt lat="49.31362" lon="-0.01171">
        <ele>75.8</ele>
        <time>2020-06-17T12:54:00Z</time>
      </trkpt>
      <trkpt lat="49.31367" lon="-0.01164">
        <ele>75.4</ele>
        <time>2020-06-17T12:54:01Z</time>
      </trkpt>
      <trkpt lat="49.31373" lon="-0.01155">
        <ele>74.8</ele>
        <time>2020-06-17T12:54:02Z</time>
      </trkpt>
      <trkpt lat="49.31379" lon="-0.01147">
        <ele>74.2</ele>
        <time>2020-06-17T12:54:03Z</time>
      </trkpt>
      <trkpt lat="49.31386" lon="-0.01138">
        <ele>73.6</ele>
        <time>2020-06-17T12:54:04Z</time>
      </trkpt>
      <trkpt lat="49.31393" lon="-0.0113">
        <ele>73.1</ele>
        <time>2020-06-17T12:54:05Z</time>
      </trkpt>
      <trkpt lat="49.314" lon="-0.01122">
        <ele>72.5</ele>
        <time>2020-06-17T12:54:06Z</time>
      </trkpt>
      <trkpt lat="49.31407" lon="-0.01115">
        <ele>71.8</ele>
        <time>2020-06-17T12:54:07Z</time>
      </trkpt>
      <trkpt lat="49.31414" lon="-0.01107">
        <ele>71.1</ele>
        <time>2020-06-17T12:54:08Z</time>
      </trkpt>
      <trkpt lat="49.31422" lon="-0.01099">
        <ele>70.4</ele>
        <time>2020-06-17T12:54:09Z</time>
      </trkpt>
      <trkpt lat="49.31431" lon="-0.01091">
        <ele>69.6</ele>
        <time>2020-06-17T12:54:10Z</time>
      </trkpt>
      <trkpt lat="49.31439" lon="-0.01082">
        <ele>68.8</ele>
        <time>2020-06-17T12:54:11Z</time>
      </trkpt>
      <trkpt lat="49.31448" lon="-0.01073">
        <ele>68.1</ele>
        <time>2020-06-17T12:54:12Z</time>
      </trkpt>
      <trkpt lat="49.31457" lon="-0.01063">
        <ele>67.3</ele>
        <time>2020-06-17T12:54:13Z</time>
      </trkpt>
      <trkpt lat="49.31466" lon="-0.01055">
        <ele>66.5</ele>
        <time>2020-06-17T12:54:14Z</time>
      </trkpt>
      <trkpt lat="49.31475" lon="-0.01046">
        <ele>65.7</ele>
        <time>2020-06-17T12:54:15Z</time>
      </trkpt>
      <trkpt lat="49.31485" lon="-0.01038">
        <ele>65</ele>
        <time>2020-06-17T12:54:16Z</time>
      </trkpt>
      <trkpt lat="49.31494" lon="-0.0103">
        <ele>64.3</ele>
        <time>2020-06-17T12:54:17Z</time>
      </trkpt>
      <trkpt lat="49.31504" lon="-0.01022">
        <ele>63.5</ele>
        <time>2020-06-17T12:54:18Z</time>
      </trkpt>
      <trkpt lat="49.31514" lon="-0.01014">
        <ele>62.9</ele>
        <time>2020-06-17T12:54:19Z</time>
      </trkpt>
      <trkpt lat="49.31524" lon="-0.01006">
        <ele>62.2</ele>
        <time>2020-06-17T12:54:20Z</time>
      </trkpt>
      <trkpt lat="49.31534" lon="-0.00998">
        <ele>61.5</ele>
        <time>2020-06-17T12:54:21Z</time>
      </trkpt>
      <trkpt lat="49.31544" lon="-0.00991">
        <ele>60.8</ele>
        <time>2020-06-17T12:54:22Z</time>
      </trkpt>
      <trkpt lat="49.31554" lon="-0.00983">
        <ele>60.2</ele>
        <time>2020-06-17T12:54:23Z</time>
      </trkpt>
      <trkpt lat="49.31564" lon="-0.00975">
        <ele>59.4</ele>
        <time>2020-06-17T12:54:24Z</time>
      </trkpt>
      <trkpt lat="49.31574" lon="-0.00966">
        <ele>58.7</ele>
        <time>2020-06-17T12:54:25Z</time>
      </trkpt>
      <trkpt lat="49.31585" lon="-0.00957">
        <ele>58</ele>
        <time>2020-06-17T12:54:26Z</time>
      </trkpt>
      <trkpt lat="49.31596" lon="-0.00949">
        <ele>57.1</ele>
        <time>2020-06-17T12:54:27Z</time>
      </trkpt>
      <trkpt lat="49.31607" lon="-0.00941">
        <ele>56.4</ele>
        <time>2020-06-17T12:54:28Z</time>
      </trkpt>
      <trkpt lat="49.31618" lon="-0.00932">
        <ele>55.7</ele>
        <time>2020-06-17T12:54:29Z</time>
      </trkpt>
      <trkpt lat="49.31629" lon="-0.00924">
        <ele>55.1</ele>
        <time>2020-06-17T12:54:30Z</time>
      </trkpt>
      <trkpt lat="49.31639" lon="-0.00916">
        <ele>54.4</ele>
        <time>2020-06-17T12:54:31Z</time>
      </trkpt>
      <trkpt lat="49.31649" lon="-0.00908">
        <ele>53.8</ele>
        <time>2020-06-17T12:54:32Z</time>
      </trkpt>
      <trkpt lat="49.31659" lon="-0.00901">
        <ele>53.1</ele>
        <time>2020-06-17T12:54:33Z</time>
      </trkpt>
      <trkpt lat="49.31668" lon="-0.00894">
        <ele>52.5</ele>
        <time>2020-06-17T12:54:34Z</time>
      </trkpt>
      <trkpt lat="49.31677" lon="-0.00887">
        <ele>51.8</ele>
        <time>2020-06-17T12:54:35Z</time>
      </trkpt>
      <trkpt lat="49.31687" lon="-0.00879">
        <ele>51.1</ele>
        <time>2020-06-17T12:54:36Z</time>
      </trkpt>
      <trkpt lat="49.31696" lon="-0.00872">
        <ele>50.4</ele>
        <time>2020-06-17T12:54:37Z</time>
      </trkpt>
      <trkpt lat="49.31705" lon="-0.00867">
        <ele>49.8</ele>
        <time>2020-06-17T12:54:38Z</time>
      </trkpt>
      <trkpt lat="49.31713" lon="-0.00862">
        <ele>49.1</ele>
        <time>2020-06-17T12:54:39Z</time>
      </trkpt>
      <trkpt lat="49.31721" lon="-0.00856">
        <ele>48.5</ele>
        <time>2020-06-17T12:54:40Z</time>
      </trkpt>
      <trkpt lat="49.31728" lon="-0.00851">
        <ele>47.8</ele>
        <time>2020-06-17T12:54:41Z</time>
      </trkpt>
      <trkpt lat="49.31737" lon="-0.00844">
        <ele>47.1</ele>
        <time>2020-06-17T12:54:42Z</time>
      </trkpt>
      <trkpt lat="49.31744" lon="-0.00838">
        <ele>46.4</ele>
        <time>2020-06-17T12:54:43Z</time>
      </trkpt>
      <trkpt lat="49.31752" lon="-0.0083">
        <ele>45.6</ele>
        <time>2020-06-17T12:54:44Z</time>
      </trkpt>
      <trkpt lat="49.3176" lon="-0.00823">
        <ele>44.9</ele>
        <time>2020-06-17T12:54:45Z</time>
      </trkpt>
      <trkpt lat="49.31769" lon="-0.00815">
        <ele>44.1</ele>
        <time>2020-06-17T12:54:46Z</time>
      </trkpt>
      <trkpt lat="49.31777" lon="-0.00807">
        <ele>43.4</ele>
        <time>2020-06-17T12:54:47Z</time>
      </trkpt>
      <trkpt lat="49.31788" lon="-0.00798">
        <ele>42.4</ele>
        <time>2020-06-17T12:54:48Z</time>
      </trkpt>
      <trkpt lat="49.31796" lon="-0.00791">
        <ele>41.6</ele>
        <time>2020-06-17T12:54:49Z</time>
      </trkpt>
      <trkpt lat="49.31805" lon="-0.00785">
        <ele>40.8</ele>
        <time>2020-06-17T12:54:50Z</time>
      </trkpt>
      <trkpt lat="49.31813" lon="-0.00779">
        <ele>40.1</ele>
        <time>2020-06-17T12:54:51Z</time>
      </trkpt>
      <trkpt lat="49.31824" lon="-0.0077">
        <ele>39</ele>
        <time>2020-06-17T12:54:52Z</time>
      </trkpt>
      <trkpt lat="49.31837" lon="-0.00759">
        <ele>37.8</ele>
        <time>2020-06-17T12:54:53Z</time>
      </trkpt>
      <trkpt lat="49.31845" lon="-0.00751">
        <ele>37</ele>
        <time>2020-06-17T12:54:54Z</time>
      </trkpt>
      <trkpt lat="49.31852" lon="-0.00744">
        <ele>36.3</ele>
        <time>2020-06-17T12:54:55Z</time>
      </trkpt>
      <trkpt lat="49.3186" lon="-0.00738">
        <ele>35.6</ele>
        <time>2020-06-17T12:54:56Z</time>
      </trkpt>
      <trkpt lat="49.31869" lon="-0.00733">
        <ele>34.9</ele>
        <time>2020-06-17T12:54:57Z</time>
      </trkpt>
      <trkpt lat="49.31877" lon="-0.00729">
        <ele>34.2</ele>
        <time>2020-06-17T12:54:58Z</time>
      </trkpt>
      <trkpt lat="49.31883" lon="-0.00724">
        <ele>33.7</ele>
        <time>2020-06-17T12:54:59Z</time>
      </trkpt>
      <trkpt lat="49.3189" lon="-0.00721">
        <ele>33.1</ele>
        <time>2020-06-17T12:55:00Z</time>
      </trkpt>
      <trkpt lat="49.31895" lon="-0.00718">
        <ele>32.7</ele>
        <time>2020-06-17T12:55:01Z</time>
      </trkpt>
      <trkpt lat="49.31901" lon="-0.00716">
        <ele>32.2</ele>
        <time>2020-06-17T12:55:02Z</time>
      </trkpt>
      <trkpt lat="49.31904" lon="-0.00714">
        <ele>31.9</ele>
        <time>2020-06-17T12:55:03Z</time>
      </trkpt>
      <trkpt lat="49.31909" lon="-0.00713">
        <ele>31.5</ele>
        <time>2020-06-17T12:55:04Z</time>
      </trkpt>
      <trkpt lat="49.31913" lon="-0.00707">
        <ele>31.6</ele>
        <time>2020-06-17T12:55:05Z</time>
      </trkpt>
      <trkpt lat="49.31916" lon="-0.00705">
        <ele>31.6</ele>
        <time>2020-06-17T12:55:06Z</time>
      </trkpt>
      <trkpt lat="49.31919" lon="-0.00704">
        <ele>31.1</ele>
        <time>2020-06-17T12:55:07Z</time>
      </trkpt>
      <trkpt lat="49.3192" lon="-0.00704">
        <ele>31.1</ele>
        <time>2020-06-17T12:55:08Z</time>
      </trkpt>
      <trkpt lat="49.31923" lon="-0.00704">
        <ele>30.8</ele>
        <time>2020-06-17T12:55:09Z</time>
      </trkpt>
      <trkpt lat="49.31925" lon="-0.00703">
        <ele>30.6</ele>
        <time>2020-06-17T12:55:10Z</time>
      </trkpt>
      <trkpt lat="49.31929" lon="-0.00703">
        <ele>30.3</ele>
        <time>2020-06-17T12:55:11Z</time>
      </trkpt>
      <trkpt lat="49.31936" lon="-0.00699">
        <ele>29.7</ele>
        <time>2020-06-17T12:55:12Z</time>
      </trkpt>
      <trkpt lat="49.31941" lon="-0.00697">
        <ele>29.2</ele>
        <time>2020-06-17T12:55:13Z</time>
      </trkpt>
      <trkpt lat="49.31945" lon="-0.00693">
        <ele>28.8</ele>
        <time>2020-06-17T12:55:14Z</time>
      </trkpt>
      <trkpt lat="49.31949" lon="-0.00688">
        <ele>28.4</ele>
        <time>2020-06-17T12:55:15Z</time>
      </trkpt>
      <trkpt lat="49.31954" lon="-0.00681">
        <ele>27.9</ele>
        <time>2020-06-17T12:55:16Z</time>
      </trkpt>
      <trkpt lat="49.31959" lon="-0.00674">
        <ele>27.4</ele>
        <time>2020-06-17T12:55:17Z</time>
      </trkpt>
      <trkpt lat="49.31963" lon="-0.00668">
        <ele>27</ele>
        <time>2020-06-17T12:55:18Z</time>
      </trkpt>
      <trkpt lat="49.31966" lon="-0.00664">
        <ele>26.7</ele>
        <time>2020-06-17T12:55:19Z</time>
      </trkpt>
      <trkpt lat="49.3197" lon="-0.00661">
        <ele>26.4</ele>
        <time>2020-06-17T12:55:20Z</time>
      </trkpt>
      <trkpt lat="49.31973" lon="-0.00657">
        <ele>26.1</ele>
        <time>2020-06-17T12:55:21Z</time>
      </trkpt>
      <trkpt lat="49.3198" lon="-0.00654">
        <ele>25.7</ele>
        <time>2020-06-17T12:55:22Z</time>
      </trkpt>
      <trkpt lat="49.31986" lon="-0.0065">
        <ele>25.4</ele>
        <time>2020-06-17T12:55:23Z</time>
      </trkpt>
      <trkpt lat="49.31991" lon="-0.00647">
        <ele>25.1</ele>
        <time>2020-06-17T12:55:24Z</time>
      </trkpt>
      <trkpt lat="49.31997" lon="-0.00643">
        <ele>24.8</ele>
        <time>2020-06-17T12:55:25Z</time>
      </trkpt>
      <trkpt lat="49.32002" lon="-0.0064">
        <ele>24.5</ele>
        <time>2020-06-17T12:55:26Z</time>
      </trkpt>
      <trkpt lat="49.32006" lon="-0.00636">
        <ele>24.3</ele>
        <time>2020-06-17T12:55:27Z</time>
      </trkpt>
      <trkpt lat="49.32008" lon="-0.00631">
        <ele>24.1</ele>
        <time>2020-06-17T12:55:28Z</time>
      </trkpt>
      <trkpt lat="49.32011" lon="-0.00626">
        <ele>23.9</ele>
        <time>2020-06-17T12:55:29Z</time>
      </trkpt>
      <trkpt lat="49.32014" lon="-0.0062">
        <ele>23.6</ele>
        <time>2020-06-17T12:55:30Z</time>
      </trkpt>
      <trkpt lat="49.32016" lon="-0.00615">
        <ele>23.4</ele>
        <time>2020-06-17T12:55:31Z</time>
      </trkpt>
      <trkpt lat="49.32019" lon="-0.00611">
        <ele>23.2</ele>
        <time>2020-06-17T12:55:32Z</time>
      </trkpt>
      <trkpt lat="49.32022" lon="-0.00606">
        <ele>23</ele>
        <time>2020-06-17T12:55:33Z</time>
      </trkpt>
      <trkpt lat="49.32025" lon="-0.00604">
        <ele>22.8</ele>
        <time>2020-06-17T12:55:34Z</time>
      </trkpt>
      <trkpt lat="49.32028" lon="-0.00602">
        <ele>22.6</ele>
        <time>2020-06-17T12:55:35Z</time>
      </trkpt>
      <trkpt lat="49.32031" lon="-0.00601">
        <ele>22.4</ele>
        <time>2020-06-17T12:55:36Z</time>
      </trkpt>
      <trkpt lat="49.32033" lon="-0.00599">
        <ele>22.3</ele>
        <time>2020-06-17T12:55:37Z</time>
      </trkpt>
      <trkpt lat="49.32038" lon="-0.006">
        <ele>22</ele>
        <time>2020-06-17T12:55:38Z</time>
      </trkpt>
      <trkpt lat="49.32043" lon="-0.006">
        <ele>21.7</ele>
        <time>2020-06-17T12:55:39Z</time>
      </trkpt>
      <trkpt lat="49.32049" lon="-0.00601">
        <ele>21.3</ele>
        <time>2020-06-17T12:55:40Z</time>
      </trkpt>
      <trkpt lat="49.32053" lon="-0.006">
        <ele>21</ele>
        <time>2020-06-17T12:55:41Z</time>
      </trkpt>
      <trkpt lat="49.32057" lon="-0.00598">
        <ele>20.7</ele>
        <time>2020-06-17T12:55:42Z</time>
      </trkpt>
      <trkpt lat="49.32061" lon="-0.00595">
        <ele>20.3</ele>
        <time>2020-06-17T12:55:43Z</time>
      </trkpt>
      <trkpt lat="49.32063" lon="-0.0059">
        <ele>20.3</ele>
        <time>2020-06-17T12:55:44Z</time>
      </trkpt>
      <trkpt lat="49.32065" lon="-0.00588">
        <ele>20.4</ele>
        <time>2020-06-17T12:55:45Z</time>
      </trkpt>
      <trkpt lat="49.32068" lon="-0.00585">
        <ele>20.4</ele>
        <time>2020-06-17T12:55:46Z</time>
      </trkpt>
      <trkpt lat="49.32071" lon="-0.00583">
        <ele>19.9</ele>
        <time>2020-06-17T12:55:47Z</time>
      </trkpt>
      <trkpt lat="49.32073" lon="-0.0058">
        <ele>19.5</ele>
        <time>2020-06-17T12:55:48Z</time>
      </trkpt>
      <trkpt lat="49.32077" lon="-0.00579">
        <ele>19.2</ele>
        <time>2020-06-17T12:55:49Z</time>
      </trkpt>
      <trkpt lat="49.3208" lon="-0.00579">
        <ele>19</ele>
        <time>2020-06-17T12:55:50Z</time>
      </trkpt>
      <trkpt lat="49.32084" lon="-0.00578">
        <ele>18.8</ele>
        <time>2020-06-17T12:55:51Z</time>
      </trkpt>
      <trkpt lat="49.32088" lon="-0.00576">
        <ele>18.6</ele>
        <time>2020-06-17T12:55:52Z</time>
      </trkpt>
      <trkpt lat="49.32091" lon="-0.00575">
        <ele>18.5</ele>
        <time>2020-06-17T12:55:53Z</time>
      </trkpt>
      <trkpt lat="49.32094" lon="-0.00574">
        <ele>18.3</ele>
        <time>2020-06-17T12:55:54Z</time>
      </trkpt>
      <trkpt lat="49.32099" lon="-0.00574">
        <ele>18</ele>
        <time>2020-06-17T12:55:55Z</time>
      </trkpt>
      <trkpt lat="49.32104" lon="-0.00574">
        <ele>17.8</ele>
        <time>2020-06-17T12:55:56Z</time>
      </trkpt>
      <trkpt lat="49.32108" lon="-0.00574">
        <ele>17.7</ele>
        <time>2020-06-17T12:55:57Z</time>
      </trkpt>
      <trkpt lat="49.32113" lon="-0.00574">
        <ele>17.4</ele>
        <time>2020-06-17T12:55:58Z</time>
      </trkpt>
      <trkpt lat="49.32117" lon="-0.00574">
        <ele>17.2</ele>
        <time>2020-06-17T12:55:59Z</time>
      </trkpt>
      <trkpt lat="49.32122" lon="-0.00575">
        <ele>17</ele>
        <time>2020-06-17T12:56:00Z</time>
      </trkpt>
      <trkpt lat="49.32126" lon="-0.00572">
        <ele>16.8</ele>
        <time>2020-06-17T12:56:01Z</time>
      </trkpt>
      <trkpt lat="49.32129" lon="-0.00571">
        <ele>16.6</ele>
        <time>2020-06-17T12:56:02Z</time>
      </trkpt>
      <trkpt lat="49.32133" lon="-0.00571">
        <ele>16.5</ele>
        <time>2020-06-17T12:56:03Z</time>
      </trkpt>
      <trkpt lat="49.32138" lon="-0.00573">
        <ele>16.3</ele>
        <time>2020-06-17T12:56:04Z</time>
      </trkpt>
      <trkpt lat="49.32141" lon="-0.00575">
        <ele>16.2</ele>
        <time>2020-06-17T12:56:05Z</time>
      </trkpt>
      <trkpt lat="49.32144" lon="-0.00573">
        <ele>16</ele>
        <time>2020-06-17T12:56:06Z</time>
      </trkpt>
      <trkpt lat="49.32146" lon="-0.00571">
        <ele>15.9</ele>
        <time>2020-06-17T12:56:07Z</time>
      </trkpt>
      <trkpt lat="49.3215" lon="-0.00567">
        <ele>15.7</ele>
        <time>2020-06-17T12:56:08Z</time>
      </trkpt>
      <trkpt lat="49.32152" lon="-0.00565">
        <ele>15.6</ele>
        <time>2020-06-17T12:56:09Z</time>
      </trkpt>
      <trkpt lat="49.32155" lon="-0.00562">
        <ele>15.4</ele>
        <time>2020-06-17T12:56:10Z</time>
      </trkpt>
      <trkpt lat="49.32158" lon="-0.0056">
        <ele>15.2</ele>
        <time>2020-06-17T12:56:11Z</time>
      </trkpt>
      <trkpt lat="49.32162" lon="-0.00558">
        <ele>15.1</ele>
        <time>2020-06-17T12:56:12Z</time>
      </trkpt>
      <trkpt lat="49.32169" lon="-0.00559">
        <ele>14.9</ele>
        <time>2020-06-17T12:56:13Z</time>
      </trkpt>
      <trkpt lat="49.32175" lon="-0.00558">
        <ele>14.7</ele>
        <time>2020-06-17T12:56:14Z</time>
      </trkpt>
      <trkpt lat="49.3218" lon="-0.00557">
        <ele>14.6</ele>
        <time>2020-06-17T12:56:15Z</time>
      </trkpt>
      <trkpt lat="49.32184" lon="-0.00554">
        <ele>14.5</ele>
        <time>2020-06-17T12:56:16Z</time>
      </trkpt>
      <trkpt lat="49.32189" lon="-0.0055">
        <ele>14.4</ele>
        <time>2020-06-17T12:56:17Z</time>
      </trkpt>
      <trkpt lat="49.32194" lon="-0.00546">
        <ele>14.3</ele>
        <time>2020-06-17T12:56:18Z</time>
      </trkpt>
      <trkpt lat="49.32197" lon="-0.00544">
        <ele>14.2</ele>
        <time>2020-06-17T12:56:19Z</time>
      </trkpt>
      <trkpt lat="49.32202" lon="-0.00538">
        <ele>13.9</ele>
        <time>2020-06-17T12:56:20Z</time>
      </trkpt>
      <trkpt lat="49.32207" lon="-0.00535">
        <ele>13.7</ele>
        <time>2020-06-17T12:56:21Z</time>
      </trkpt>
      <trkpt lat="49.3221" lon="-0.00533">
        <ele>13.6</ele>
        <time>2020-06-17T12:56:22Z</time>
      </trkpt>
      <trkpt lat="49.32214" lon="-0.00531">
        <ele>13.4</ele>
        <time>2020-06-17T12:56:23Z</time>
      </trkpt>
      <trkpt lat="49.32218" lon="-0.0053">
        <ele>13.3</ele>
        <time>2020-06-17T12:56:24Z</time>
      </trkpt>
      <trkpt lat="49.32221" lon="-0.00529">
        <ele>13.1</ele>
        <time>2020-06-17T12:56:25Z</time>
      </trkpt>
      <trkpt lat="49.32224" lon="-0.00528">
        <ele>13</ele>
        <time>2020-06-17T12:56:26Z</time>
      </trkpt>
      <trkpt lat="49.32228" lon="-0.00529">
        <ele>12.8</ele>
        <time>2020-06-17T12:56:27Z</time>
      </trkpt>
      <trkpt lat="49.32232" lon="-0.00528">
        <ele>12.7</ele>
        <time>2020-06-17T12:56:28Z</time>
      </trkpt>
      <trkpt lat="49.32235" lon="-0.00526">
        <ele>12.5</ele>
        <time>2020-06-17T12:56:29Z</time>
      </trkpt>
      <trkpt lat="49.32239" lon="-0.00526">
        <ele>12.3</ele>
        <time>2020-06-17T12:56:30Z</time>
      </trkpt>
      <trkpt lat="49.32243" lon="-0.00524">
        <ele>12.1</ele>
        <time>2020-06-17T12:56:31Z</time>
      </trkpt>
      <trkpt lat="49.32248" lon="-0.00524">
        <ele>11.9</ele>
        <time>2020-06-17T12:56:32Z</time>
      </trkpt>
      <trkpt lat="49.32252" lon="-0.00523">
        <ele>11.8</ele>
        <time>2020-06-17T12:56:33Z</time>
      </trkpt>
      <trkpt lat="49.32256" lon="-0.00523">
        <ele>11.6</ele>
        <time>2020-06-17T12:56:34Z</time>
      </trkpt>
      <trkpt lat="49.3226" lon="-0.00522">
        <ele>11.5</ele>
        <time>2020-06-17T12:56:35Z</time>
      </trkpt>
      <trkpt lat="49.32264" lon="-0.00521">
        <ele>11.4</ele>
        <time>2020-06-17T12:56:36Z</time>
      </trkpt>
      <trkpt lat="49.32268" lon="-0.00519">
        <ele>11.2</ele>
        <time>2020-06-17T12:56:37Z</time>
      </trkpt>
      <trkpt lat="49.32271" lon="-0.00518">
        <ele>11.1</ele>
        <time>2020-06-17T12:56:38Z</time>
      </trkpt>
      <trkpt lat="49.32275" lon="-0.00518">
        <ele>11</ele>
        <time>2020-06-17T12:56:39Z</time>
      </trkpt>
      <trkpt lat="49.32278" lon="-0.00515">
        <ele>10.9</ele>
        <time>2020-06-17T12:56:40Z</time>
      </trkpt>
      <trkpt lat="49.32281" lon="-0.00513">
        <ele>10.8</ele>
        <time>2020-06-17T12:56:41Z</time>
      </trkpt>
      <trkpt lat="49.32284" lon="-0.00511">
        <ele>10.7</ele>
        <time>2020-06-17T12:56:42Z</time>
      </trkpt>
      <trkpt lat="49.32287" lon="-0.0051">
        <ele>10.6</ele>
        <time>2020-06-17T12:56:43Z</time>
      </trkpt>
      <trkpt lat="49.3229" lon="-0.00509">
        <ele>10.5</ele>
        <time>2020-06-17T12:56:44Z</time>
      </trkpt>
      <trkpt lat="49.32293" lon="-0.00508">
        <ele>10.4</ele>
        <time>2020-06-17T12:56:45Z</time>
      </trkpt>
      <trkpt lat="49.32296" lon="-0.00507">
        <ele>10.3</ele>
        <time>2020-06-17T12:56:46Z</time>
      </trkpt>
      <trkpt lat="49.32299" lon="-0.00507">
        <ele>10.1</ele>
        <time>2020-06-17T12:56:47Z</time>
      </trkpt>
      <trkpt lat="49.32304" lon="-0.00504">
        <ele>10.1</ele>
        <time>2020-06-17T12:56:48Z</time>
      </trkpt>
      <trkpt lat="49.32309" lon="-0.00502">
        <ele>10</ele>
        <time>2020-06-17T12:56:49Z</time>
      </trkpt>
      <trkpt lat="49.32313" lon="-0.00499">
        <ele>9.9</ele>
        <time>2020-06-17T12:56:50Z</time>
      </trkpt>
      <trkpt lat="49.32318" lon="-0.00494">
        <ele>9.8</ele>
        <time>2020-06-17T12:56:51Z</time>
      </trkpt>
      <trkpt lat="49.32321" lon="-0.00489">
        <ele>9.7</ele>
        <time>2020-06-17T12:56:52Z</time>
      </trkpt>
      <trkpt lat="49.32324" lon="-0.00483">
        <ele>9.2</ele>
        <time>2020-06-17T12:56:53Z</time>
      </trkpt>
      <trkpt lat="49.32327" lon="-0.00477">
        <ele>8.8</ele>
        <time>2020-06-17T12:56:54Z</time>
      </trkpt>
      <trkpt lat="49.3233" lon="-0.00469">
        <ele>8.7</ele>
        <time>2020-06-17T12:56:55Z</time>
      </trkpt>
      <trkpt lat="49.32332" lon="-0.00463">
        <ele>8.8</ele>
        <time>2020-06-17T12:56:56Z</time>
      </trkpt>
      <trkpt lat="49.32334" lon="-0.00456">
        <ele>8.7</ele>
        <time>2020-06-17T12:56:57Z</time>
      </trkpt>
      <trkpt lat="49.32337" lon="-0.00449">
        <ele>8.6</ele>
        <time>2020-06-17T12:56:58Z</time>
      </trkpt>
      <trkpt lat="49.32339" lon="-0.00442">
        <ele>8.7</ele>
        <time>2020-06-17T12:56:59Z</time>
      </trkpt>
      <trkpt lat="49.32341" lon="-0.00434">
        <ele>8.4</ele>
        <time>2020-06-17T12:57:00Z</time>
      </trkpt>
      <trkpt lat="49.32343" lon="-0.00427">
        <ele>7.9</ele>
        <time>2020-06-17T12:57:01Z</time>
      </trkpt>
      <trkpt lat="49.32346" lon="-0.0042">
        <ele>7.6</ele>
        <time>2020-06-17T12:57:02Z</time>
      </trkpt>
      <trkpt lat="49.32349" lon="-0.00412">
        <ele>7</ele>
        <time>2020-06-17T12:57:03Z</time>
      </trkpt>
      <trkpt lat="49.32351" lon="-0.00406">
        <ele>6.5</ele>
        <time>2020-06-17T12:57:04Z</time>
      </trkpt>
      <trkpt lat="49.32355" lon="-0.00399">
        <ele>6.4</ele>
        <time>2020-06-17T12:57:05Z</time>
      </trkpt>
      <trkpt lat="49.32357" lon="-0.00393">
        <ele>5.9</ele>
        <time>2020-06-17T12:57:06Z</time>
      </trkpt>
      <trkpt lat="49.3236" lon="-0.00387">
        <ele>5.4</ele>
        <time>2020-06-17T12:57:07Z</time>
      </trkpt>
      <trkpt lat="49.32363" lon="-0.00381">
        <ele>5.1</ele>
        <time>2020-06-17T12:57:08Z</time>
      </trkpt>
      <trkpt lat="49.32366" lon="-0.00376">
        <ele>4.8</ele>
        <time>2020-06-17T12:57:09Z</time>
      </trkpt>
      <trkpt lat="49.32369" lon="-0.00369">
        <ele>4.5</ele>
        <time>2020-06-17T12:57:10Z</time>
      </trkpt>
      <trkpt lat="49.32372" lon="-0.00361">
        <ele>4.4</ele>
        <time>2020-06-17T12:57:11Z</time>
      </trkpt>
      <trkpt lat="49.32376" lon="-0.00354">
        <ele>4.2</ele>
        <time>2020-06-17T12:57:12Z</time>
      </trkpt>
      <trkpt lat="49.3238" lon="-0.00347">
        <ele>3.9</ele>
        <time>2020-06-17T12:57:13Z</time>
      </trkpt>
      <trkpt lat="49.32384" lon="-0.0034">
        <ele>3.6</ele>
        <time>2020-06-17T12:57:14Z</time>
      </trkpt>
      <trkpt lat="49.32389" lon="-0.00332">
        <ele>3.3</ele>
        <time>2020-06-17T12:57:15Z</time>
      </trkpt>
      <trkpt lat="49.32394" lon="-0.00325">
        <ele>3.2</ele>
        <time>2020-06-17T12:57:16Z</time>
      </trkpt>
      <trkpt lat="49.32398" lon="-0.00319">
        <ele>2.9</ele>
        <time>2020-06-17T12:57:17Z</time>
      </trkpt>
      <trkpt lat="49.32402" lon="-0.00311">
        <ele>2.4</ele>
        <time>2020-06-17T12:57:18Z</time>
      </trkpt>
      <trkpt lat="49.32407" lon="-0.00302">
        <ele>2.1</ele>
        <time>2020-06-17T12:57:19Z</time>
      </trkpt>
      <trkpt lat="49.32411" lon="-0.00295">
        <ele>1.7</ele>
        <time>2020-06-17T12:57:20Z</time>
      </trkpt>
      <trkpt lat="49.32415" lon="-0.00288">
        <ele>1.4</ele>
        <time>2020-06-17T12:57:21Z</time>
      </trkpt>
      <trkpt lat="49.32424" lon="-0.00281">
        <ele>2.1</ele>
        <time>2020-06-17T12:57:22Z</time>
      </trkpt>
      <trkpt lat="49.32427" lon="-0.00275">
        <ele>2.6</ele>
        <time>2020-06-17T12:57:23Z</time>
      </trkpt>
      <trkpt lat="49.32431" lon="-0.00267">
        <ele>2.9</ele>
        <time>2020-06-17T12:57:24Z</time>
      </trkpt>
      <trkpt lat="49.32434" lon="-0.00259">
        <ele>3.2</ele>
        <time>2020-06-17T12:57:25Z</time>
      </trkpt>
      <trkpt lat="49.32438" lon="-0.00252">
        <ele>3.5</ele>
        <time>2020-06-17T12:57:26Z</time>
      </trkpt>
      <trkpt lat="49.32442" lon="-0.00245">
        <ele>3.6</ele>
        <time>2020-06-17T12:57:27Z</time>
      </trkpt>
      <trkpt lat="49.32444" lon="-0.00238">
        <ele>3.5</ele>
        <time>2020-06-17T12:57:28Z</time>
      </trkpt>
      <trkpt lat="49.32452" lon="-0.00232">
        <ele>3.7</ele>
        <time>2020-06-17T12:57:29Z</time>
      </trkpt>
      <trkpt lat="49.32458" lon="-0.00225">
        <ele>4.6</ele>
        <time>2020-06-17T12:57:30Z</time>
      </trkpt>
      <trkpt lat="49.32462" lon="-0.00218">
        <ele>5.3</ele>
        <time>2020-06-17T12:57:31Z</time>
      </trkpt>
      <trkpt lat="49.32467" lon="-0.00212">
        <ele>6.2</ele>
        <time>2020-06-17T12:57:32Z</time>
      </trkpt>
      <trkpt lat="49.32471" lon="-0.00205">
        <ele>6.2</ele>
        <time>2020-06-17T12:57:33Z</time>
      </trkpt>
      <trkpt lat="49.32473" lon="-0.00198">
        <ele>6.2</ele>
        <time>2020-06-17T12:57:34Z</time>
      </trkpt>
      <trkpt lat="49.32476" lon="-0.00191">
        <ele>6.2</ele>
        <time>2020-06-17T12:57:35Z</time>
      </trkpt>
      <trkpt lat="49.32479" lon="-0.00184">
        <ele>6.2</ele>
        <time>2020-06-17T12:57:36Z</time>
      </trkpt>
      <trkpt lat="49.32482" lon="-0.00178">
        <ele>6.2</ele>
        <time>2020-06-17T12:57:37Z</time>
      </trkpt>
      <trkpt lat="49.32485" lon="-0.00172">
        <ele>6.2</ele>
        <time>2020-06-17T12:57:38Z</time>
      </trkpt>
      <trkpt lat="49.32487" lon="-0.00166">
        <ele>6.2</ele>
        <time>2020-06-17T12:57:39Z</time>
      </trkpt>
      <trkpt lat="49.3249" lon="-0.00162">
        <ele>6.1</ele>
        <time>2020-06-17T12:57:40Z</time>
      </trkpt>
      <trkpt lat="49.32492" lon="-0.00157">
        <ele>6.1</ele>
        <time>2020-06-17T12:57:41Z</time>
      </trkpt>
      <trkpt lat="49.32494" lon="-0.00152">
        <ele>6.1</ele>
        <time>2020-06-17T12:57:42Z</time>
      </trkpt>
      <trkpt lat="49.32496" lon="-0.00146">
        <ele>6.1</ele>
        <time>2020-06-17T12:57:43Z</time>
      </trkpt>
      <trkpt lat="49.32499" lon="-0.0014">
        <ele>6.1</ele>
        <time>2020-06-17T12:57:44Z</time>
      </trkpt>
      <trkpt lat="49.32501" lon="-0.00134">
        <ele>6.1</ele>
        <time>2020-06-17T12:57:45Z</time>
      </trkpt>
      <trkpt lat="49.32504" lon="-0.00127">
        <ele>6</ele>
        <time>2020-06-17T12:57:46Z</time>
      </trkpt>
      <trkpt lat="49.32506" lon="-0.00122">
        <ele>6</ele>
        <time>2020-06-17T12:57:47Z</time>
      </trkpt>
      <trkpt lat="49.32509" lon="-0.00115">
        <ele>6</ele>
        <time>2020-06-17T12:57:48Z</time>
      </trkpt>
      <trkpt lat="49.32511" lon="-0.00109">
        <ele>5.9</ele>
        <time>2020-06-17T12:57:49Z</time>
      </trkpt>
      <trkpt lat="49.32514" lon="-0.00102">
        <ele>5.9</ele>
        <time>2020-06-17T12:57:50Z</time>
      </trkpt>
      <trkpt lat="49.32516" lon="-0.00096">
        <ele>5.9</ele>
        <time>2020-06-17T12:57:51Z</time>
      </trkpt>
      <trkpt lat="49.32519" lon="-0.00088">
        <ele>5.9</ele>
        <time>2020-06-17T12:57:52Z</time>
      </trkpt>
      <trkpt lat="49.3252" lon="-0.00081">
        <ele>6</ele>
        <time>2020-06-17T12:57:53Z</time>
      </trkpt>
      <trkpt lat="49.32523" lon="-0.00074">
        <ele>6</ele>
        <time>2020-06-17T12:57:54Z</time>
      </trkpt>
      <trkpt lat="49.32525" lon="-0.0007">
        <ele>5.9</ele>
        <time>2020-06-17T12:57:55Z</time>
      </trkpt>
      <trkpt lat="49.32527" lon="-0.00064">
        <ele>5.9</ele>
        <time>2020-06-17T12:57:56Z</time>
      </trkpt>
      <trkpt lat="49.3253" lon="-0.00058">
        <ele>5.9</ele>
        <time>2020-06-17T12:57:57Z</time>
      </trkpt>
      <trkpt lat="49.32533" lon="-0.00051">
        <ele>5.9</ele>
        <time>2020-06-17T12:57:58Z</time>
      </trkpt>
      <trkpt lat="49.32537" lon="-0.00045">
        <ele>5.8</ele>
        <time>2020-06-17T12:57:59Z</time>
      </trkpt>
      <trkpt lat="49.3254" lon="-0.00039">
        <ele>5.8</ele>
        <time>2020-06-17T12:58:00Z</time>
      </trkpt>
      <trkpt lat="49.32543" lon="-0.00031">
        <ele>5.8</ele>
        <time>2020-06-17T12:58:01Z</time>
      </trkpt>
      <trkpt lat="49.32545" lon="-0.00023">
        <ele>5.8</ele>
        <time>2020-06-17T12:58:02Z</time>
      </trkpt>
      <trkpt lat="49.32548" lon="-0.00016">
        <ele>5.7</ele>
        <time>2020-06-17T12:58:03Z</time>
      </trkpt>
      <trkpt lat="49.3255" lon="-9.0E-5">
        <ele>5.7</ele>
        <time>2020-06-17T12:58:04Z</time>
      </trkpt>
      <trkpt lat="49.32552" lon="-1.0E-5">
        <ele>5.7</ele>
        <time>2020-06-17T12:58:05Z</time>
      </trkpt>
      <trkpt lat="49.32554" lon="6.0E-5">
        <ele>5.7</ele>
        <time>2020-06-17T12:58:06Z</time>
      </trkpt>
      <trkpt lat="49.32556" lon="0.00013">
        <ele>5.7</ele>
        <time>2020-06-17T12:58:07Z</time>
      </trkpt>
      <trkpt lat="49.32557" lon="0.00019">
        <ele>5.7</ele>
        <time>2020-06-17T12:58:08Z</time>
      </trkpt>
      <trkpt lat="49.3256" lon="0.00024">
        <ele>5.7</ele>
        <time>2020-06-17T12:58:09Z</time>
      </trkpt>
      <trkpt lat="49.32563" lon="0.0003">
        <ele>5.7</ele>
        <time>2020-06-17T12:58:10Z</time>
      </trkpt>
      <trkpt lat="49.32566" lon="0.00034">
        <ele>5.6</ele>
        <time>2020-06-17T12:58:11Z</time>
      </trkpt>
      <trkpt lat="49.32569" lon="0.00039">
        <ele>5.6</ele>
        <time>2020-06-17T12:58:12Z</time>
      </trkpt>
      <trkpt lat="49.32571" lon="0.00043">
        <ele>5.6</ele>
        <time>2020-06-17T12:58:13Z</time>
      </trkpt>
      <trkpt lat="49.32573" lon="0.00048">
        <ele>5.6</ele>
        <time>2020-06-17T12:58:14Z</time>
      </trkpt>
      <trkpt lat="49.32574" lon="0.00054">
        <ele>5.5</ele>
        <time>2020-06-17T12:58:15Z</time>
      </trkpt>
      <trkpt lat="49.32576" lon="0.0006">
        <ele>5.5</ele>
        <time>2020-06-17T12:58:16Z</time>
      </trkpt>
      <trkpt lat="49.32578" lon="0.00065">
        <ele>5.5</ele>
        <time>2020-06-17T12:58:17Z</time>
      </trkpt>
      <trkpt lat="49.32582" lon="0.0007">
        <ele>5.5</ele>
        <time>2020-06-17T12:58:18Z</time>
      </trkpt>
      <trkpt lat="49.32585" lon="0.00075">
        <ele>5.4</ele>
        <time>2020-06-17T12:58:19Z</time>
      </trkpt>
      <trkpt lat="49.32588" lon="0.00081">
        <ele>5.4</ele>
        <time>2020-06-17T12:58:20Z</time>
      </trkpt>
      <trkpt lat="49.32591" lon="0.00087">
        <ele>5.4</ele>
        <time>2020-06-17T12:58:21Z</time>
      </trkpt>
      <trkpt lat="49.32593" lon="0.00093">
        <ele>5.4</ele>
        <time>2020-06-17T12:58:22Z</time>
      </trkpt>
      <trkpt lat="49.32595" lon="0.00099">
        <ele>5.4</ele>
        <time>2020-06-17T12:58:23Z</time>
      </trkpt>
      <trkpt lat="49.32597" lon="0.00105">
        <ele>5.4</ele>
        <time>2020-06-17T12:58:24Z</time>
      </trkpt>
      <trkpt lat="49.326" lon="0.00111">
        <ele>5.4</ele>
        <time>2020-06-17T12:58:25Z</time>
      </trkpt>
      <trkpt lat="49.32603" lon="0.00118">
        <ele>5.4</ele>
        <time>2020-06-17T12:58:26Z</time>
      </trkpt>
      <trkpt lat="49.32607" lon="0.00125">
        <ele>5.3</ele>
        <time>2020-06-17T12:58:27Z</time>
      </trkpt>
      <trkpt lat="49.3261" lon="0.00132">
        <ele>5.3</ele>
        <time>2020-06-17T12:58:28Z</time>
      </trkpt>
      <trkpt lat="49.32614" lon="0.00139">
        <ele>5.3</ele>
        <time>2020-06-17T12:58:29Z</time>
      </trkpt>
      <trkpt lat="49.32617" lon="0.00146">
        <ele>5.3</ele>
        <time>2020-06-17T12:58:30Z</time>
      </trkpt>
      <trkpt lat="49.32621" lon="0.00153">
        <ele>5.3</ele>
        <time>2020-06-17T12:58:31Z</time>
      </trkpt>
      <trkpt lat="49.32625" lon="0.0016">
        <ele>5.3</ele>
        <time>2020-06-17T12:58:32Z</time>
      </trkpt>
      <trkpt lat="49.32628" lon="0.00168">
        <ele>5.3</ele>
        <time>2020-06-17T12:58:33Z</time>
      </trkpt>
      <trkpt lat="49.32631" lon="0.00175">
        <ele>5.2</ele>
        <time>2020-06-17T12:58:34Z</time>
      </trkpt>
      <trkpt lat="49.32634" lon="0.00183">
        <ele>5.2</ele>
        <time>2020-06-17T12:58:35Z</time>
      </trkpt>
      <trkpt lat="49.32637" lon="0.0019">
        <ele>5.2</ele>
        <time>2020-06-17T12:58:36Z</time>
      </trkpt>
      <trkpt lat="49.32641" lon="0.00197">
        <ele>5.2</ele>
        <time>2020-06-17T12:58:37Z</time>
      </trkpt>
      <trkpt lat="49.32645" lon="0.00206">
        <ele>5.2</ele>
        <time>2020-06-17T12:58:38Z</time>
      </trkpt>
      <trkpt lat="49.32648" lon="0.00214">
        <ele>5.2</ele>
        <time>2020-06-17T12:58:39Z</time>
      </trkpt>
      <trkpt lat="49.32651" lon="0.00222">
        <ele>5.2</ele>
        <time>2020-06-17T12:58:40Z</time>
      </trkpt>
      <trkpt lat="49.32653" lon="0.00229">
        <ele>5.2</ele>
        <time>2020-06-17T12:58:41Z</time>
      </trkpt>
      <trkpt lat="49.32655" lon="0.00236">
        <ele>5.2</ele>
        <time>2020-06-17T12:58:42Z</time>
      </trkpt>
      <trkpt lat="49.32657" lon="0.00242">
        <ele>5.2</ele>
        <time>2020-06-17T12:58:43Z</time>
      </trkpt>
      <trkpt lat="49.32661" lon="0.00251">
        <ele>5.2</ele>
        <time>2020-06-17T12:58:44Z</time>
      </trkpt>
      <trkpt lat="49.32664" lon="0.00259">
        <ele>5.2</ele>
        <time>2020-06-17T12:58:45Z</time>
      </trkpt>
      <trkpt lat="49.32668" lon="0.00268">
        <ele>5.2</ele>
        <time>2020-06-17T12:58:46Z</time>
      </trkpt>
      <trkpt lat="49.3267" lon="0.00275">
        <ele>5.2</ele>
        <time>2020-06-17T12:58:47Z</time>
      </trkpt>
      <trkpt lat="49.32672" lon="0.00282">
        <ele>5.2</ele>
        <time>2020-06-17T12:58:48Z</time>
      </trkpt>
      <trkpt lat="49.32675" lon="0.0029">
        <ele>5.2</ele>
        <time>2020-06-17T12:58:49Z</time>
      </trkpt>
      <trkpt lat="49.32679" lon="0.00299">
        <ele>5.2</ele>
        <time>2020-06-17T12:58:50Z</time>
      </trkpt>
      <trkpt lat="49.32682" lon="0.00307">
        <ele>5.2</ele>
        <time>2020-06-17T12:58:51Z</time>
      </trkpt>
      <trkpt lat="49.32685" lon="0.00315">
        <ele>5.2</ele>
        <time>2020-06-17T12:58:52Z</time>
      </trkpt>
      <trkpt lat="49.32688" lon="0.00323">
        <ele>5.3</ele>
        <time>2020-06-17T12:58:53Z</time>
      </trkpt>
      <trkpt lat="49.32691" lon="0.00331">
        <ele>5.3</ele>
        <time>2020-06-17T12:58:54Z</time>
      </trkpt>
      <trkpt lat="49.32695" lon="0.00339">
        <ele>5.3</ele>
        <time>2020-06-17T12:58:55Z</time>
      </trkpt>
      <trkpt lat="49.32698" lon="0.00347">
        <ele>5.3</ele>
        <time>2020-06-17T12:58:56Z</time>
      </trkpt>
      <trkpt lat="49.32701" lon="0.00355">
        <ele>5.3</ele>
        <time>2020-06-17T12:58:57Z</time>
      </trkpt>
      <trkpt lat="49.32704" lon="0.00362">
        <ele>5.3</ele>
        <time>2020-06-17T12:58:58Z</time>
      </trkpt>
      <trkpt lat="49.32707" lon="0.00368">
        <ele>5.4</ele>
        <time>2020-06-17T12:58:59Z</time>
      </trkpt>
      <trkpt lat="49.32711" lon="0.00374">
        <ele>5.4</ele>
        <time>2020-06-17T12:59:00Z</time>
      </trkpt>
      <trkpt lat="49.32714" lon="0.00381">
        <ele>5.4</ele>
        <time>2020-06-17T12:59:01Z</time>
      </trkpt>
      <trkpt lat="49.32718" lon="0.00388">
        <ele>5.4</ele>
        <time>2020-06-17T12:59:02Z</time>
      </trkpt>
      <trkpt lat="49.32721" lon="0.00395">
        <ele>5.4</ele>
        <time>2020-06-17T12:59:03Z</time>
      </trkpt>
      <trkpt lat="49.32724" lon="0.00403">
        <ele>5.4</ele>
        <time>2020-06-17T12:59:04Z</time>
      </trkpt>
      <trkpt lat="49.32727" lon="0.00411">
        <ele>5.4</ele>
        <time>2020-06-17T12:59:05Z</time>
      </trkpt>
      <trkpt lat="49.32731" lon="0.00418">
        <ele>5.4</ele>
        <time>2020-06-17T12:59:06Z</time>
      </trkpt>
      <trkpt lat="49.32734" lon="0.00425">
        <ele>5.4</ele>
        <time>2020-06-17T12:59:07Z</time>
      </trkpt>
      <trkpt lat="49.32737" lon="0.00433">
        <ele>5.5</ele>
        <time>2020-06-17T12:59:08Z</time>
      </trkpt>
      <trkpt lat="49.32741" lon="0.00441">
        <ele>5.5</ele>
        <time>2020-06-17T12:59:09Z</time>
      </trkpt>
      <trkpt lat="49.32744" lon="0.00449">
        <ele>5.5</ele>
        <time>2020-06-17T12:59:10Z</time>
      </trkpt>
      <trkpt lat="49.32747" lon="0.00458">
        <ele>5.5</ele>
        <time>2020-06-17T12:59:11Z</time>
      </trkpt>
      <trkpt lat="49.32751" lon="0.00464">
        <ele>5.5</ele>
        <time>2020-06-17T12:59:12Z</time>
      </trkpt>
      <trkpt lat="49.32754" lon="0.00471">
        <ele>5.5</ele>
        <time>2020-06-17T12:59:13Z</time>
      </trkpt>
      <trkpt lat="49.32758" lon="0.00479">
        <ele>5.4</ele>
        <time>2020-06-17T12:59:14Z</time>
      </trkpt>
      <trkpt lat="49.32762" lon="0.00487">
        <ele>5.4</ele>
        <time>2020-06-17T12:59:15Z</time>
      </trkpt>
      <trkpt lat="49.32766" lon="0.00495">
        <ele>5.4</ele>
        <time>2020-06-17T12:59:16Z</time>
      </trkpt>
      <trkpt lat="49.3277" lon="0.00502">
        <ele>5.4</ele>
        <time>2020-06-17T12:59:17Z</time>
      </trkpt>
      <trkpt lat="49.32774" lon="0.0051">
        <ele>5.4</ele>
        <time>2020-06-17T12:59:18Z</time>
      </trkpt>
      <trkpt lat="49.32777" lon="0.00517">
        <ele>5.4</ele>
        <time>2020-06-17T12:59:19Z</time>
      </trkpt>
      <trkpt lat="49.3278" lon="0.00524">
        <ele>5.4</ele>
        <time>2020-06-17T12:59:20Z</time>
      </trkpt>
      <trkpt lat="49.32783" lon="0.00531">
        <ele>5.4</ele>
        <time>2020-06-17T12:59:21Z</time>
      </trkpt>
      <trkpt lat="49.32787" lon="0.00539">
        <ele>5.4</ele>
        <time>2020-06-17T12:59:22Z</time>
      </trkpt>
      <trkpt lat="49.3279" lon="0.00547">
        <ele>5.4</ele>
        <time>2020-06-17T12:59:23Z</time>
      </trkpt>
      <trkpt lat="49.32793" lon="0.00555">
        <ele>5.4</ele>
        <time>2020-06-17T12:59:24Z</time>
      </trkpt>
      <trkpt lat="49.32797" lon="0.00563">
        <ele>5.4</ele>
        <time>2020-06-17T12:59:25Z</time>
      </trkpt>
      <trkpt lat="49.328" lon="0.0057">
        <ele>5.4</ele>
        <time>2020-06-17T12:59:26Z</time>
      </trkpt>
      <trkpt lat="49.32803" lon="0.00577">
        <ele>5.4</ele>
        <time>2020-06-17T12:59:27Z</time>
      </trkpt>
      <trkpt lat="49.32805" lon="0.00583">
        <ele>5.4</ele>
        <time>2020-06-17T12:59:28Z</time>
      </trkpt>
      <trkpt lat="49.32808" lon="0.0059">
        <ele>5.4</ele>
        <time>2020-06-17T12:59:29Z</time>
      </trkpt>
      <trkpt lat="49.32812" lon="0.00598">
        <ele>5.4</ele>
        <time>2020-06-17T12:59:30Z</time>
      </trkpt>
      <trkpt lat="49.32816" lon="0.00605">
        <ele>5.4</ele>
        <time>2020-06-17T12:59:31Z</time>
      </trkpt>
      <trkpt lat="49.3282" lon="0.00614">
        <ele>5.3</ele>
        <time>2020-06-17T12:59:32Z</time>
      </trkpt>
      <trkpt lat="49.32822" lon="0.00621">
        <ele>5.3</ele>
        <time>2020-06-17T12:59:33Z</time>
      </trkpt>
      <trkpt lat="49.32824" lon="0.00629">
        <ele>5.3</ele>
        <time>2020-06-17T12:59:34Z</time>
      </trkpt>
      <trkpt lat="49.32826" lon="0.00636">
        <ele>5.3</ele>
        <time>2020-06-17T12:59:35Z</time>
      </trkpt>
      <trkpt lat="49.32829" lon="0.00643">
        <ele>5.4</ele>
        <time>2020-06-17T12:59:36Z</time>
      </trkpt>
      <trkpt lat="49.32831" lon="0.00651">
        <ele>5.4</ele>
        <time>2020-06-17T12:59:37Z</time>
      </trkpt>
      <trkpt lat="49.32834" lon="0.00657">
        <ele>5.4</ele>
        <time>2020-06-17T12:59:38Z</time>
      </trkpt>
      <trkpt lat="49.32836" lon="0.00663">
        <ele>5.4</ele>
        <time>2020-06-17T12:59:39Z</time>
      </trkpt>
      <trkpt lat="49.32839" lon="0.00671">
        <ele>5.4</ele>
        <time>2020-06-17T12:59:40Z</time>
      </trkpt>
      <trkpt lat="49.32841" lon="0.00679">
        <ele>5.4</ele>
        <time>2020-06-17T12:59:41Z</time>
      </trkpt>
      <trkpt lat="49.32843" lon="0.00685">
        <ele>5.5</ele>
        <time>2020-06-17T12:59:42Z</time>
      </trkpt>
      <trkpt lat="49.32846" lon="0.00692">
        <ele>5.5</ele>
        <time>2020-06-17T12:59:43Z</time>
      </trkpt>
      <trkpt lat="49.3285" lon="0.00699">
        <ele>5.5</ele>
        <time>2020-06-17T12:59:44Z</time>
      </trkpt>
      <trkpt lat="49.32854" lon="0.00706">
        <ele>5.5</ele>
        <time>2020-06-17T12:59:45Z</time>
      </trkpt>
      <trkpt lat="49.32858" lon="0.00713">
        <ele>5.5</ele>
        <time>2020-06-17T12:59:46Z</time>
      </trkpt>
      <trkpt lat="49.32861" lon="0.0072">
        <ele>5.5</ele>
        <time>2020-06-17T12:59:47Z</time>
      </trkpt>
      <trkpt lat="49.32864" lon="0.00726">
        <ele>5.6</ele>
        <time>2020-06-17T12:59:48Z</time>
      </trkpt>
      <trkpt lat="49.32868" lon="0.00732">
        <ele>5.6</ele>
        <time>2020-06-17T12:59:49Z</time>
      </trkpt>
      <trkpt lat="49.32872" lon="0.00739">
        <ele>5.6</ele>
        <time>2020-06-17T12:59:50Z</time>
      </trkpt>
      <trkpt lat="49.32876" lon="0.00747">
        <ele>5.6</ele>
        <time>2020-06-17T12:59:51Z</time>
      </trkpt>
      <trkpt lat="49.32879" lon="0.00756">
        <ele>5.7</ele>
        <time>2020-06-17T12:59:52Z</time>
      </trkpt>
      <trkpt lat="49.32883" lon="0.00762">
        <ele>5.7</ele>
        <time>2020-06-17T12:59:53Z</time>
      </trkpt>
      <trkpt lat="49.32887" lon="0.00769">
        <ele>5.7</ele>
        <time>2020-06-17T12:59:54Z</time>
      </trkpt>
      <trkpt lat="49.3289" lon="0.00775">
        <ele>5.7</ele>
        <time>2020-06-17T12:59:55Z</time>
      </trkpt>
      <trkpt lat="49.32894" lon="0.00781">
        <ele>5.7</ele>
        <time>2020-06-17T12:59:56Z</time>
      </trkpt>
      <trkpt lat="49.32897" lon="0.00785">
        <ele>5.7</ele>
        <time>2020-06-17T12:59:57Z</time>
      </trkpt>
      <trkpt lat="49.329" lon="0.00792">
        <ele>5.7</ele>
        <time>2020-06-17T12:59:58Z</time>
      </trkpt>
      <trkpt lat="49.32903" lon="0.008">
        <ele>5.7</ele>
        <time>2020-06-17T12:59:59Z</time>
      </trkpt>
      <trkpt lat="49.32906" lon="0.00808">
        <ele>5.7</ele>
        <time>2020-06-17T13:00:00Z</time>
      </trkpt>
      <trkpt lat="49.32908" lon="0.00815">
        <ele>5.8</ele>
        <time>2020-06-17T13:00:01Z</time>
      </trkpt>
      <trkpt lat="49.32912" lon="0.00822">
        <ele>5.8</ele>
        <time>2020-06-17T13:00:02Z</time>
      </trkpt>
      <trkpt lat="49.32917" lon="0.00829">
        <ele>5.8</ele>
        <time>2020-06-17T13:00:03Z</time>
      </trkpt>
      <trkpt lat="49.32921" lon="0.00835">
        <ele>5.8</ele>
        <time>2020-06-17T13:00:04Z</time>
      </trkpt>
      <trkpt lat="49.32924" lon="0.00841">
        <ele>5.8</ele>
        <time>2020-06-17T13:00:05Z</time>
      </trkpt>
      <trkpt lat="49.32928" lon="0.00847">
        <ele>5.8</ele>
        <time>2020-06-17T13:00:06Z</time>
      </trkpt>
      <trkpt lat="49.32931" lon="0.00853">
        <ele>5.8</ele>
        <time>2020-06-17T13:00:07Z</time>
      </trkpt>
      <trkpt lat="49.32934" lon="0.00859">
        <ele>5.9</ele>
        <time>2020-06-17T13:00:08Z</time>
      </trkpt>
      <trkpt lat="49.32938" lon="0.00865">
        <ele>5.9</ele>
        <time>2020-06-17T13:00:09Z</time>
      </trkpt>
      <trkpt lat="49.32941" lon="0.00871">
        <ele>5.9</ele>
        <time>2020-06-17T13:00:10Z</time>
      </trkpt>
      <trkpt lat="49.32945" lon="0.00877">
        <ele>5.9</ele>
        <time>2020-06-17T13:00:11Z</time>
      </trkpt>
      <trkpt lat="49.32948" lon="0.00883">
        <ele>5.9</ele>
        <time>2020-06-17T13:00:12Z</time>
      </trkpt>
      <trkpt lat="49.32951" lon="0.0089">
        <ele>6</ele>
        <time>2020-06-17T13:00:13Z</time>
      </trkpt>
      <trkpt lat="49.32955" lon="0.00897">
        <ele>6</ele>
        <time>2020-06-17T13:00:14Z</time>
      </trkpt>
      <trkpt lat="49.32959" lon="0.00903">
        <ele>6</ele>
        <time>2020-06-17T13:00:15Z</time>
      </trkpt>
      <trkpt lat="49.32962" lon="0.0091">
        <ele>6</ele>
        <time>2020-06-17T13:00:16Z</time>
      </trkpt>
      <trkpt lat="49.32966" lon="0.00916">
        <ele>6</ele>
        <time>2020-06-17T13:00:17Z</time>
      </trkpt>
      <trkpt lat="49.32969" lon="0.00922">
        <ele>6</ele>
        <time>2020-06-17T13:00:18Z</time>
      </trkpt>
      <trkpt lat="49.32971" lon="0.00928">
        <ele>6</ele>
        <time>2020-06-17T13:00:19Z</time>
      </trkpt>
      <trkpt lat="49.32974" lon="0.00935">
        <ele>6</ele>
        <time>2020-06-17T13:00:20Z</time>
      </trkpt>
      <trkpt lat="49.32977" lon="0.00941">
        <ele>6</ele>
        <time>2020-06-17T13:00:21Z</time>
      </trkpt>
      <trkpt lat="49.3298" lon="0.00947">
        <ele>6</ele>
        <time>2020-06-17T13:00:22Z</time>
      </trkpt>
      <trkpt lat="49.32983" lon="0.00952">
        <ele>6</ele>
        <time>2020-06-17T13:00:23Z</time>
      </trkpt>
      <trkpt lat="49.32985" lon="0.00957">
        <ele>6</ele>
        <time>2020-06-17T13:00:24Z</time>
      </trkpt>
      <trkpt lat="49.32988" lon="0.00962">
        <ele>6</ele>
        <time>2020-06-17T13:00:25Z</time>
      </trkpt>
      <trkpt lat="49.32991" lon="0.00968">
        <ele>6</ele>
        <time>2020-06-17T13:00:26Z</time>
      </trkpt>
      <trkpt lat="49.32994" lon="0.00974">
        <ele>6</ele>
        <time>2020-06-17T13:00:27Z</time>
      </trkpt>
      <trkpt lat="49.32997" lon="0.00979">
        <ele>6</ele>
        <time>2020-06-17T13:00:28Z</time>
      </trkpt>
      <trkpt lat="49.33" lon="0.00984">
        <ele>6</ele>
        <time>2020-06-17T13:00:29Z</time>
      </trkpt>
      <trkpt lat="49.33003" lon="0.0099">
        <ele>6.1</ele>
        <time>2020-06-17T13:00:30Z</time>
      </trkpt>
      <trkpt lat="49.33006" lon="0.00995">
        <ele>6.1</ele>
        <time>2020-06-17T13:00:31Z</time>
      </trkpt>
      <trkpt lat="49.33009" lon="0.01001">
        <ele>6.1</ele>
        <time>2020-06-17T13:00:32Z</time>
      </trkpt>
      <trkpt lat="49.33011" lon="0.01007">
        <ele>6.1</ele>
        <time>2020-06-17T13:00:33Z</time>
      </trkpt>
      <trkpt lat="49.33012" lon="0.01013">
        <ele>6.1</ele>
        <time>2020-06-17T13:00:34Z</time>
      </trkpt>
      <trkpt lat="49.33013" lon="0.01019">
        <ele>6.2</ele>
        <time>2020-06-17T13:00:35Z</time>
      </trkpt>
      <trkpt lat="49.33013" lon="0.01025">
        <ele>6.2</ele>
        <time>2020-06-17T13:00:36Z</time>
      </trkpt>
      <trkpt lat="49.33012" lon="0.01031">
        <ele>6.2</ele>
        <time>2020-06-17T13:00:37Z</time>
      </trkpt>
      <trkpt lat="49.33011" lon="0.01037">
        <ele>6.2</ele>
        <time>2020-06-17T13:00:38Z</time>
      </trkpt>
      <trkpt lat="49.3301" lon="0.01043">
        <ele>6.2</ele>
        <time>2020-06-17T13:00:39Z</time>
      </trkpt>
      <trkpt lat="49.33009" lon="0.0105">
        <ele>6.2</ele>
        <time>2020-06-17T13:00:40Z</time>
      </trkpt>
      <trkpt lat="49.33009" lon="0.01056">
        <ele>6.3</ele>
        <time>2020-06-17T13:00:41Z</time>
      </trkpt>
      <trkpt lat="49.33011" lon="0.0106">
        <ele>6.3</ele>
        <time>2020-06-17T13:00:42Z</time>
      </trkpt>
      <trkpt lat="49.33014" lon="0.01063">
        <ele>6.3</ele>
        <time>2020-06-17T13:00:43Z</time>
      </trkpt>
      <trkpt lat="49.33017" lon="0.01063">
        <ele>6.3</ele>
        <time>2020-06-17T13:00:44Z</time>
      </trkpt>
      <trkpt lat="49.33021" lon="0.01062">
        <ele>6.3</ele>
        <time>2020-06-17T13:00:45Z</time>
      </trkpt>
      <trkpt lat="49.33025" lon="0.01062">
        <ele>6.3</ele>
        <time>2020-06-17T13:00:46Z</time>
      </trkpt>
      <trkpt lat="49.33026" lon="0.01062">
        <ele>6.3</ele>
        <time>2020-06-17T13:00:47Z</time>
      </trkpt>
      <trkpt lat="49.3303" lon="0.01063">
        <ele>6.3</ele>
        <time>2020-06-17T13:00:48Z</time>
      </trkpt>
      <trkpt lat="49.33034" lon="0.01068">
        <ele>6.3</ele>
        <time>2020-06-17T13:00:49Z</time>
      </trkpt>
      <trkpt lat="49.33038" lon="0.01073">
        <ele>6.3</ele>
        <time>2020-06-17T13:00:50Z</time>
      </trkpt>
      <trkpt lat="49.33041" lon="0.01078">
        <ele>6.4</ele>
        <time>2020-06-17T13:00:51Z</time>
      </trkpt>
      <trkpt lat="49.33043" lon="0.01082">
        <ele>6.4</ele>
        <time>2020-06-17T13:00:52Z</time>
      </trkpt>
      <trkpt lat="49.33045" lon="0.01087">
        <ele>6.4</ele>
        <time>2020-06-17T13:00:53Z</time>
      </trkpt>
      <trkpt lat="49.3305" lon="0.01092">
        <ele>6.4</ele>
        <time>2020-06-17T13:00:54Z</time>
      </trkpt>
      <trkpt lat="49.33053" lon="0.01097">
        <ele>6.4</ele>
        <time>2020-06-17T13:00:55Z</time>
      </trkpt>
      <trkpt lat="49.33056" lon="0.01103">
        <ele>6.4</ele>
        <time>2020-06-17T13:00:56Z</time>
      </trkpt>
      <trkpt lat="49.33059" lon="0.0111">
        <ele>6.4</ele>
        <time>2020-06-17T13:00:57Z</time>
      </trkpt>
      <trkpt lat="49.33063" lon="0.01117">
        <ele>6.4</ele>
        <time>2020-06-17T13:00:58Z</time>
      </trkpt>
      <trkpt lat="49.33068" lon="0.01124">
        <ele>6.4</ele>
        <time>2020-06-17T13:00:59Z</time>
      </trkpt>
      <trkpt lat="49.33071" lon="0.0113">
        <ele>6.5</ele>
        <time>2020-06-17T13:01:00Z</time>
      </trkpt>
      <trkpt lat="49.33075" lon="0.01137">
        <ele>6.5</ele>
        <time>2020-06-17T13:01:01Z</time>
      </trkpt>
      <trkpt lat="49.33078" lon="0.01144">
        <ele>6.5</ele>
        <time>2020-06-17T13:01:02Z</time>
      </trkpt>
      <trkpt lat="49.33081" lon="0.0115">
        <ele>6.5</ele>
        <time>2020-06-17T13:01:03Z</time>
      </trkpt>
      <trkpt lat="49.33085" lon="0.01157">
        <ele>6.5</ele>
        <time>2020-06-17T13:01:04Z</time>
      </trkpt>
      <trkpt lat="49.33088" lon="0.01163">
        <ele>6.5</ele>
        <time>2020-06-17T13:01:05Z</time>
      </trkpt>
      <trkpt lat="49.33091" lon="0.0117">
        <ele>6.5</ele>
        <time>2020-06-17T13:01:06Z</time>
      </trkpt>
      <trkpt lat="49.33095" lon="0.01177">
        <ele>6.5</ele>
        <time>2020-06-17T13:01:07Z</time>
      </trkpt>
      <trkpt lat="49.33098" lon="0.01183">
        <ele>6.4</ele>
        <time>2020-06-17T13:01:08Z</time>
      </trkpt>
      <trkpt lat="49.33102" lon="0.0119">
        <ele>6.5</ele>
        <time>2020-06-17T13:01:09Z</time>
      </trkpt>
      <trkpt lat="49.33105" lon="0.01197">
        <ele>6.5</ele>
        <time>2020-06-17T13:01:10Z</time>
      </trkpt>
      <trkpt lat="49.33109" lon="0.01203">
        <ele>6.5</ele>
        <time>2020-06-17T13:01:11Z</time>
      </trkpt>
      <trkpt lat="49.33112" lon="0.01209">
        <ele>6.5</ele>
        <time>2020-06-17T13:01:12Z</time>
      </trkpt>
      <trkpt lat="49.33115" lon="0.01215">
        <ele>6.5</ele>
        <time>2020-06-17T13:01:13Z</time>
      </trkpt>
      <trkpt lat="49.33117" lon="0.0122">
        <ele>6.6</ele>
        <time>2020-06-17T13:01:14Z</time>
      </trkpt>
      <trkpt lat="49.3312" lon="0.01225">
        <ele>6.6</ele>
        <time>2020-06-17T13:01:15Z</time>
      </trkpt>
      <trkpt lat="49.33123" lon="0.0123">
        <ele>6.6</ele>
        <time>2020-06-17T13:01:16Z</time>
      </trkpt>
      <trkpt lat="49.33126" lon="0.01235">
        <ele>6.6</ele>
        <time>2020-06-17T13:01:17Z</time>
      </trkpt>
      <trkpt lat="49.33129" lon="0.0124">
        <ele>6.6</ele>
        <time>2020-06-17T13:01:18Z</time>
      </trkpt>
      <trkpt lat="49.33131" lon="0.01245">
        <ele>6.6</ele>
        <time>2020-06-17T13:01:19Z</time>
      </trkpt>
      <trkpt lat="49.33133" lon="0.0125">
        <ele>6.7</ele>
        <time>2020-06-17T13:01:20Z</time>
      </trkpt>
      <trkpt lat="49.33137" lon="0.01256">
        <ele>6.7</ele>
        <time>2020-06-17T13:01:21Z</time>
      </trkpt>
      <trkpt lat="49.33139" lon="0.01263">
        <ele>6.7</ele>
        <time>2020-06-17T13:01:22Z</time>
      </trkpt>
      <trkpt lat="49.33142" lon="0.01271">
        <ele>6.7</ele>
        <time>2020-06-17T13:01:23Z</time>
      </trkpt>
      <trkpt lat="49.33145" lon="0.01278">
        <ele>6.7</ele>
        <time>2020-06-17T13:01:24Z</time>
      </trkpt>
      <trkpt lat="49.33148" lon="0.01284">
        <ele>6.8</ele>
        <time>2020-06-17T13:01:25Z</time>
      </trkpt>
      <trkpt lat="49.3315" lon="0.01291">
        <ele>6.8</ele>
        <time>2020-06-17T13:01:26Z</time>
      </trkpt>
      <trkpt lat="49.33153" lon="0.01297">
        <ele>6.8</ele>
        <time>2020-06-17T13:01:27Z</time>
      </trkpt>
      <trkpt lat="49.33157" lon="0.01303">
        <ele>6.9</ele>
        <time>2020-06-17T13:01:28Z</time>
      </trkpt>
      <trkpt lat="49.3316" lon="0.01309">
        <ele>6.9</ele>
        <time>2020-06-17T13:01:29Z</time>
      </trkpt>
      <trkpt lat="49.33162" lon="0.01314">
        <ele>6.9</ele>
        <time>2020-06-17T13:01:30Z</time>
      </trkpt>
      <trkpt lat="49.33166" lon="0.01319">
        <ele>7</ele>
        <time>2020-06-17T13:01:31Z</time>
      </trkpt>
      <trkpt lat="49.33168" lon="0.01325">
        <ele>7</ele>
        <time>2020-06-17T13:01:32Z</time>
      </trkpt>
      <trkpt lat="49.33172" lon="0.0133">
        <ele>7.1</ele>
        <time>2020-06-17T13:01:33Z</time>
      </trkpt>
      <trkpt lat="49.33174" lon="0.01337">
        <ele>7.1</ele>
        <time>2020-06-17T13:01:34Z</time>
      </trkpt>
      <trkpt lat="49.33177" lon="0.01342">
        <ele>7.1</ele>
        <time>2020-06-17T13:01:35Z</time>
      </trkpt>
      <trkpt lat="49.33179" lon="0.01347">
        <ele>7.2</ele>
        <time>2020-06-17T13:01:36Z</time>
      </trkpt>
      <trkpt lat="49.33182" lon="0.01353">
        <ele>7.2</ele>
        <time>2020-06-17T13:01:37Z</time>
      </trkpt>
      <trkpt lat="49.33185" lon="0.01358">
        <ele>7.2</ele>
        <time>2020-06-17T13:01:38Z</time>
      </trkpt>
      <trkpt lat="49.33187" lon="0.01364">
        <ele>7.2</ele>
        <time>2020-06-17T13:01:39Z</time>
      </trkpt>
      <trkpt lat="49.33189" lon="0.0137">
        <ele>7.2</ele>
        <time>2020-06-17T13:01:40Z</time>
      </trkpt>
      <trkpt lat="49.33191" lon="0.01375">
        <ele>7.2</ele>
        <time>2020-06-17T13:01:41Z</time>
      </trkpt>
      <trkpt lat="49.33194" lon="0.0138">
        <ele>7.2</ele>
        <time>2020-06-17T13:01:42Z</time>
      </trkpt>
      <trkpt lat="49.33197" lon="0.01385">
        <ele>7.2</ele>
        <time>2020-06-17T13:01:43Z</time>
      </trkpt>
      <trkpt lat="49.332" lon="0.0139">
        <ele>7.2</ele>
        <time>2020-06-17T13:01:44Z</time>
      </trkpt>
      <trkpt lat="49.33202" lon="0.01396">
        <ele>7.2</ele>
        <time>2020-06-17T13:01:45Z</time>
      </trkpt>
      <trkpt lat="49.33205" lon="0.01401">
        <ele>7.2</ele>
        <time>2020-06-17T13:01:46Z</time>
      </trkpt>
      <trkpt lat="49.33206" lon="0.01407">
        <ele>7.2</ele>
        <time>2020-06-17T13:01:47Z</time>
      </trkpt>
      <trkpt lat="49.33209" lon="0.01412">
        <ele>7.2</ele>
        <time>2020-06-17T13:01:48Z</time>
      </trkpt>
      <trkpt lat="49.33211" lon="0.01416">
        <ele>7.2</ele>
        <time>2020-06-17T13:01:49Z</time>
      </trkpt>
      <trkpt lat="49.33213" lon="0.0142">
        <ele>7.3</ele>
        <time>2020-06-17T13:01:50Z</time>
      </trkpt>
      <trkpt lat="49.33215" lon="0.01425">
        <ele>7.3</ele>
        <time>2020-06-17T13:01:51Z</time>
      </trkpt>
      <trkpt lat="49.33217" lon="0.01429">
        <ele>7.3</ele>
        <time>2020-06-17T13:01:52Z</time>
      </trkpt>
      <trkpt lat="49.3322" lon="0.01433">
        <ele>7.3</ele>
        <time>2020-06-17T13:01:53Z</time>
      </trkpt>
      <trkpt lat="49.33222" lon="0.01437">
        <ele>7.3</ele>
        <time>2020-06-17T13:01:54Z</time>
      </trkpt>
      <trkpt lat="49.33224" lon="0.01442">
        <ele>7.2</ele>
        <time>2020-06-17T13:01:55Z</time>
      </trkpt>
      <trkpt lat="49.33226" lon="0.01447">
        <ele>7.2</ele>
        <time>2020-06-17T13:01:56Z</time>
      </trkpt>
      <trkpt lat="49.33229" lon="0.01452">
        <ele>7.2</ele>
        <time>2020-06-17T13:01:57Z</time>
      </trkpt>
      <trkpt lat="49.33231" lon="0.01457">
        <ele>7.2</ele>
        <time>2020-06-17T13:01:58Z</time>
      </trkpt>
      <trkpt lat="49.33233" lon="0.01462">
        <ele>7.1</ele>
        <time>2020-06-17T13:01:59Z</time>
      </trkpt>
      <trkpt lat="49.33236" lon="0.01466">
        <ele>7.1</ele>
        <time>2020-06-17T13:02:00Z</time>
      </trkpt>
      <trkpt lat="49.33239" lon="0.0147">
        <ele>7.1</ele>
        <time>2020-06-17T13:02:01Z</time>
      </trkpt>
      <trkpt lat="49.33241" lon="0.01475">
        <ele>7.1</ele>
        <time>2020-06-17T13:02:02Z</time>
      </trkpt>
      <trkpt lat="49.33244" lon="0.01479">
        <ele>7</ele>
        <time>2020-06-17T13:02:03Z</time>
      </trkpt>
      <trkpt lat="49.33246" lon="0.01483">
        <ele>7</ele>
        <time>2020-06-17T13:02:04Z</time>
      </trkpt>
      <trkpt lat="49.33247" lon="0.01487">
        <ele>7</ele>
        <time>2020-06-17T13:02:05Z</time>
      </trkpt>
      <trkpt lat="49.33248" lon="0.01491">
        <ele>6.9</ele>
        <time>2020-06-17T13:02:06Z</time>
      </trkpt>
      <trkpt lat="49.3325" lon="0.01497">
        <ele>6.9</ele>
        <time>2020-06-17T13:02:07Z</time>
      </trkpt>
      <trkpt lat="49.33252" lon="0.01503">
        <ele>6.9</ele>
        <time>2020-06-17T13:02:08Z</time>
      </trkpt>
      <trkpt lat="49.33254" lon="0.01509">
        <ele>6.8</ele>
        <time>2020-06-17T13:02:09Z</time>
      </trkpt>
      <trkpt lat="49.33257" lon="0.01514">
        <ele>6.8</ele>
        <time>2020-06-17T13:02:10Z</time>
      </trkpt>
      <trkpt lat="49.33261" lon="0.01519">
        <ele>6.7</ele>
        <time>2020-06-17T13:02:11Z</time>
      </trkpt>
      <trkpt lat="49.33264" lon="0.01525">
        <ele>6.7</ele>
        <time>2020-06-17T13:02:12Z</time>
      </trkpt>
      <trkpt lat="49.33266" lon="0.01531">
        <ele>6.7</ele>
        <time>2020-06-17T13:02:13Z</time>
      </trkpt>
      <trkpt lat="49.3327" lon="0.01538">
        <ele>6.6</ele>
        <time>2020-06-17T13:02:14Z</time>
      </trkpt>
      <trkpt lat="49.33273" lon="0.01545">
        <ele>6.6</ele>
        <time>2020-06-17T13:02:15Z</time>
      </trkpt>
      <trkpt lat="49.33278" lon="0.01552">
        <ele>6.6</ele>
        <time>2020-06-17T13:02:16Z</time>
      </trkpt>
      <trkpt lat="49.33281" lon="0.01559">
        <ele>6.6</ele>
        <time>2020-06-17T13:02:17Z</time>
      </trkpt>
      <trkpt lat="49.33284" lon="0.01565">
        <ele>6.5</ele>
        <time>2020-06-17T13:02:18Z</time>
      </trkpt>
      <trkpt lat="49.33288" lon="0.01571">
        <ele>6.5</ele>
        <time>2020-06-17T13:02:19Z</time>
      </trkpt>
      <trkpt lat="49.33292" lon="0.01576">
        <ele>6.5</ele>
        <time>2020-06-17T13:02:20Z</time>
      </trkpt>
      <trkpt lat="49.33295" lon="0.01582">
        <ele>6.5</ele>
        <time>2020-06-17T13:02:21Z</time>
      </trkpt>
      <trkpt lat="49.33298" lon="0.01588">
        <ele>6.5</ele>
        <time>2020-06-17T13:02:22Z</time>
      </trkpt>
      <trkpt lat="49.333" lon="0.01593">
        <ele>6.4</ele>
        <time>2020-06-17T13:02:23Z</time>
      </trkpt>
      <trkpt lat="49.33303" lon="0.01598">
        <ele>6.4</ele>
        <time>2020-06-17T13:02:24Z</time>
      </trkpt>
      <trkpt lat="49.33305" lon="0.01604">
        <ele>6.3</ele>
        <time>2020-06-17T13:02:25Z</time>
      </trkpt>
      <trkpt lat="49.33306" lon="0.01608">
        <ele>6.3</ele>
        <time>2020-06-17T13:02:26Z</time>
      </trkpt>
      <trkpt lat="49.33308" lon="0.01613">
        <ele>6.3</ele>
        <time>2020-06-17T13:02:27Z</time>
      </trkpt>
      <trkpt lat="49.33309" lon="0.01617">
        <ele>6.3</ele>
        <time>2020-06-17T13:02:28Z</time>
      </trkpt>
      <trkpt lat="49.3331" lon="0.01623">
        <ele>6.3</ele>
        <time>2020-06-17T13:02:29Z</time>
      </trkpt>
      <trkpt lat="49.3331" lon="0.01628">
        <ele>6.3</ele>
        <time>2020-06-17T13:02:30Z</time>
      </trkpt>
      <trkpt lat="49.33312" lon="0.01634">
        <ele>6.2</ele>
        <time>2020-06-17T13:02:31Z</time>
      </trkpt>
      <trkpt lat="49.33315" lon="0.01638">
        <ele>6.2</ele>
        <time>2020-06-17T13:02:32Z</time>
      </trkpt>
      <trkpt lat="49.33318" lon="0.01643">
        <ele>6.2</ele>
        <time>2020-06-17T13:02:33Z</time>
      </trkpt>
      <trkpt lat="49.3332" lon="0.01648">
        <ele>6.2</ele>
        <time>2020-06-17T13:02:34Z</time>
      </trkpt>
      <trkpt lat="49.33323" lon="0.01654">
        <ele>6.2</ele>
        <time>2020-06-17T13:02:35Z</time>
      </trkpt>
      <trkpt lat="49.33326" lon="0.01659">
        <ele>6.2</ele>
        <time>2020-06-17T13:02:36Z</time>
      </trkpt>
      <trkpt lat="49.33329" lon="0.01665">
        <ele>6.2</ele>
        <time>2020-06-17T13:02:37Z</time>
      </trkpt>
      <trkpt lat="49.33332" lon="0.0167">
        <ele>6.2</ele>
        <time>2020-06-17T13:02:38Z</time>
      </trkpt>
      <trkpt lat="49.33336" lon="0.01676">
        <ele>6.2</ele>
        <time>2020-06-17T13:02:39Z</time>
      </trkpt>
      <trkpt lat="49.33338" lon="0.01682">
        <ele>6.2</ele>
        <time>2020-06-17T13:02:40Z</time>
      </trkpt>
      <trkpt lat="49.33341" lon="0.01687">
        <ele>6.2</ele>
        <time>2020-06-17T13:02:41Z</time>
      </trkpt>
      <trkpt lat="49.33344" lon="0.01693">
        <ele>6.2</ele>
        <time>2020-06-17T13:02:42Z</time>
      </trkpt>
      <trkpt lat="49.33347" lon="0.01699">
        <ele>6.2</ele>
        <time>2020-06-17T13:02:43Z</time>
      </trkpt>
      <trkpt lat="49.3335" lon="0.01705">
        <ele>6.2</ele>
        <time>2020-06-17T13:02:44Z</time>
      </trkpt>
      <trkpt lat="49.33353" lon="0.01711">
        <ele>6.3</ele>
        <time>2020-06-17T13:02:45Z</time>
      </trkpt>
      <trkpt lat="49.33357" lon="0.01719">
        <ele>6.3</ele>
        <time>2020-06-17T13:02:46Z</time>
      </trkpt>
      <trkpt lat="49.3336" lon="0.01726">
        <ele>6.2</ele>
        <time>2020-06-17T13:02:47Z</time>
      </trkpt>
      <trkpt lat="49.33363" lon="0.01733">
        <ele>6.2</ele>
        <time>2020-06-17T13:02:48Z</time>
      </trkpt>
      <trkpt lat="49.33366" lon="0.01742">
        <ele>6.3</ele>
        <time>2020-06-17T13:02:49Z</time>
      </trkpt>
      <trkpt lat="49.33369" lon="0.01749">
        <ele>6.3</ele>
        <time>2020-06-17T13:02:50Z</time>
      </trkpt>
      <trkpt lat="49.33372" lon="0.01756">
        <ele>6.3</ele>
        <time>2020-06-17T13:02:51Z</time>
      </trkpt>
      <trkpt lat="49.33375" lon="0.01762">
        <ele>6.3</ele>
        <time>2020-06-17T13:02:52Z</time>
      </trkpt>
      <trkpt lat="49.33378" lon="0.01769">
        <ele>6.3</ele>
        <time>2020-06-17T13:02:53Z</time>
      </trkpt>
      <trkpt lat="49.33382" lon="0.01775">
        <ele>6.3</ele>
        <time>2020-06-17T13:02:54Z</time>
      </trkpt>
      <trkpt lat="49.33386" lon="0.01782">
        <ele>6.3</ele>
        <time>2020-06-17T13:02:55Z</time>
      </trkpt>
      <trkpt lat="49.3339" lon="0.01789">
        <ele>6.3</ele>
        <time>2020-06-17T13:02:56Z</time>
      </trkpt>
      <trkpt lat="49.33394" lon="0.01795">
        <ele>6.3</ele>
        <time>2020-06-17T13:02:57Z</time>
      </trkpt>
      <trkpt lat="49.33398" lon="0.01801">
        <ele>6.3</ele>
        <time>2020-06-17T13:02:58Z</time>
      </trkpt>
      <trkpt lat="49.33401" lon="0.01807">
        <ele>6.4</ele>
        <time>2020-06-17T13:02:59Z</time>
      </trkpt>
      <trkpt lat="49.33405" lon="0.01813">
        <ele>6.4</ele>
        <time>2020-06-17T13:03:00Z</time>
      </trkpt>
      <trkpt lat="49.3341" lon="0.01819">
        <ele>6.4</ele>
        <time>2020-06-17T13:03:01Z</time>
      </trkpt>
      <trkpt lat="49.33414" lon="0.01825">
        <ele>6.4</ele>
        <time>2020-06-17T13:03:02Z</time>
      </trkpt>
      <trkpt lat="49.33418" lon="0.01831">
        <ele>6.4</ele>
        <time>2020-06-17T13:03:03Z</time>
      </trkpt>
      <trkpt lat="49.33422" lon="0.01836">
        <ele>6.4</ele>
        <time>2020-06-17T13:03:04Z</time>
      </trkpt>
      <trkpt lat="49.33426" lon="0.01843">
        <ele>6.4</ele>
        <time>2020-06-17T13:03:05Z</time>
      </trkpt>
      <trkpt lat="49.33429" lon="0.01849">
        <ele>6.4</ele>
        <time>2020-06-17T13:03:06Z</time>
      </trkpt>
      <trkpt lat="49.33433" lon="0.01856">
        <ele>6.4</ele>
        <time>2020-06-17T13:03:07Z</time>
      </trkpt>
      <trkpt lat="49.33436" lon="0.01862">
        <ele>6.4</ele>
        <time>2020-06-17T13:03:08Z</time>
      </trkpt>
      <trkpt lat="49.3344" lon="0.01869">
        <ele>6.4</ele>
        <time>2020-06-17T13:03:09Z</time>
      </trkpt>
      <trkpt lat="49.33442" lon="0.01877">
        <ele>6.4</ele>
        <time>2020-06-17T13:03:10Z</time>
      </trkpt>
      <trkpt lat="49.33445" lon="0.01885">
        <ele>6.4</ele>
        <time>2020-06-17T13:03:11Z</time>
      </trkpt>
      <trkpt lat="49.33449" lon="0.01893">
        <ele>6.4</ele>
        <time>2020-06-17T13:03:12Z</time>
      </trkpt>
      <trkpt lat="49.33452" lon="0.019">
        <ele>6.4</ele>
        <time>2020-06-17T13:03:13Z</time>
      </trkpt>
      <trkpt lat="49.33456" lon="0.01907">
        <ele>6.3</ele>
        <time>2020-06-17T13:03:14Z</time>
      </trkpt>
      <trkpt lat="49.3346" lon="0.01915">
        <ele>6.3</ele>
        <time>2020-06-17T13:03:15Z</time>
      </trkpt>
      <trkpt lat="49.33463" lon="0.01922">
        <ele>6.3</ele>
        <time>2020-06-17T13:03:16Z</time>
      </trkpt>
      <trkpt lat="49.33467" lon="0.01929">
        <ele>6.3</ele>
        <time>2020-06-17T13:03:17Z</time>
      </trkpt>
      <trkpt lat="49.3347" lon="0.01936">
        <ele>6.3</ele>
        <time>2020-06-17T13:03:18Z</time>
      </trkpt>
      <trkpt lat="49.33473" lon="0.01943">
        <ele>6.3</ele>
        <time>2020-06-17T13:03:19Z</time>
      </trkpt>
      <trkpt lat="49.33476" lon="0.01951">
        <ele>6.3</ele>
        <time>2020-06-17T13:03:20Z</time>
      </trkpt>
      <trkpt lat="49.3348" lon="0.01959">
        <ele>6.4</ele>
        <time>2020-06-17T13:03:21Z</time>
      </trkpt>
      <trkpt lat="49.33484" lon="0.01967">
        <ele>6.4</ele>
        <time>2020-06-17T13:03:22Z</time>
      </trkpt>
      <trkpt lat="49.33488" lon="0.01975">
        <ele>6.4</ele>
        <time>2020-06-17T13:03:23Z</time>
      </trkpt>
      <trkpt lat="49.33492" lon="0.01982">
        <ele>6.5</ele>
        <time>2020-06-17T13:03:24Z</time>
      </trkpt>
      <trkpt lat="49.33496" lon="0.01988">
        <ele>6.5</ele>
        <time>2020-06-17T13:03:25Z</time>
      </trkpt>
      <trkpt lat="49.335" lon="0.01995">
        <ele>6.5</ele>
        <time>2020-06-17T13:03:26Z</time>
      </trkpt>
      <trkpt lat="49.33505" lon="0.02003">
        <ele>6.5</ele>
        <time>2020-06-17T13:03:27Z</time>
      </trkpt>
      <trkpt lat="49.33509" lon="0.02011">
        <ele>6.5</ele>
        <time>2020-06-17T13:03:28Z</time>
      </trkpt>
      <trkpt lat="49.33512" lon="0.02018">
        <ele>6.6</ele>
        <time>2020-06-17T13:03:29Z</time>
      </trkpt>
      <trkpt lat="49.33515" lon="0.02025">
        <ele>6.6</ele>
        <time>2020-06-17T13:03:30Z</time>
      </trkpt>
      <trkpt lat="49.33518" lon="0.02031">
        <ele>6.6</ele>
        <time>2020-06-17T13:03:31Z</time>
      </trkpt>
      <trkpt lat="49.33522" lon="0.02039">
        <ele>6.6</ele>
        <time>2020-06-17T13:03:32Z</time>
      </trkpt>
      <trkpt lat="49.33525" lon="0.02047">
        <ele>6.6</ele>
        <time>2020-06-17T13:03:33Z</time>
      </trkpt>
      <trkpt lat="49.33529" lon="0.02054">
        <ele>6.6</ele>
        <time>2020-06-17T13:03:34Z</time>
      </trkpt>
      <trkpt lat="49.33532" lon="0.0206">
        <ele>6.6</ele>
        <time>2020-06-17T13:03:35Z</time>
      </trkpt>
      <trkpt lat="49.33535" lon="0.02067">
        <ele>6.6</ele>
        <time>2020-06-17T13:03:36Z</time>
      </trkpt>
      <trkpt lat="49.33538" lon="0.02073">
        <ele>6.6</ele>
        <time>2020-06-17T13:03:37Z</time>
      </trkpt>
      <trkpt lat="49.33541" lon="0.0208">
        <ele>6.6</ele>
        <time>2020-06-17T13:03:38Z</time>
      </trkpt>
      <trkpt lat="49.33544" lon="0.02087">
        <ele>6.6</ele>
        <time>2020-06-17T13:03:39Z</time>
      </trkpt>
      <trkpt lat="49.33547" lon="0.02095">
        <ele>6.6</ele>
        <time>2020-06-17T13:03:40Z</time>
      </trkpt>
      <trkpt lat="49.33551" lon="0.02103">
        <ele>6.6</ele>
        <time>2020-06-17T13:03:41Z</time>
      </trkpt>
      <trkpt lat="49.33555" lon="0.0211">
        <ele>6.5</ele>
        <time>2020-06-17T13:03:42Z</time>
      </trkpt>
      <trkpt lat="49.33559" lon="0.02118">
        <ele>6.5</ele>
        <time>2020-06-17T13:03:43Z</time>
      </trkpt>
      <trkpt lat="49.33562" lon="0.02126">
        <ele>6.5</ele>
        <time>2020-06-17T13:03:44Z</time>
      </trkpt>
      <trkpt lat="49.33567" lon="0.02135">
        <ele>6.5</ele>
        <time>2020-06-17T13:03:45Z</time>
      </trkpt>
      <trkpt lat="49.33571" lon="0.02143">
        <ele>6.5</ele>
        <time>2020-06-17T13:03:46Z</time>
      </trkpt>
      <trkpt lat="49.33574" lon="0.02151">
        <ele>6.5</ele>
        <time>2020-06-17T13:03:47Z</time>
      </trkpt>
      <trkpt lat="49.33578" lon="0.02158">
        <ele>6.5</ele>
        <time>2020-06-17T13:03:48Z</time>
      </trkpt>
      <trkpt lat="49.3358" lon="0.02167">
        <ele>6.5</ele>
        <time>2020-06-17T13:03:49Z</time>
      </trkpt>
      <trkpt lat="49.33583" lon="0.02176">
        <ele>6.5</ele>
        <time>2020-06-17T13:03:50Z</time>
      </trkpt>
      <trkpt lat="49.33587" lon="0.02183">
        <ele>6.5</ele>
        <time>2020-06-17T13:03:51Z</time>
      </trkpt>
      <trkpt lat="49.3359" lon="0.0219">
        <ele>6.5</ele>
        <time>2020-06-17T13:03:52Z</time>
      </trkpt>
      <trkpt lat="49.33594" lon="0.02197">
        <ele>6.5</ele>
        <time>2020-06-17T13:03:53Z</time>
      </trkpt>
      <trkpt lat="49.33597" lon="0.02203">
        <ele>6.5</ele>
        <time>2020-06-17T13:03:54Z</time>
      </trkpt>
      <trkpt lat="49.33601" lon="0.0221">
        <ele>6.5</ele>
        <time>2020-06-17T13:03:55Z</time>
      </trkpt>
      <trkpt lat="49.33604" lon="0.02217">
        <ele>6.5</ele>
        <time>2020-06-17T13:03:56Z</time>
      </trkpt>
      <trkpt lat="49.33608" lon="0.02223">
        <ele>6.5</ele>
        <time>2020-06-17T13:03:57Z</time>
      </trkpt>
      <trkpt lat="49.33611" lon="0.0223">
        <ele>6.5</ele>
        <time>2020-06-17T13:03:58Z</time>
      </trkpt>
      <trkpt lat="49.33614" lon="0.02236">
        <ele>6.5</ele>
        <time>2020-06-17T13:03:59Z</time>
      </trkpt>
      <trkpt lat="49.33618" lon="0.02242">
        <ele>6.5</ele>
        <time>2020-06-17T13:04:00Z</time>
      </trkpt>
      <trkpt lat="49.33622" lon="0.0225">
        <ele>6.5</ele>
        <time>2020-06-17T13:04:01Z</time>
      </trkpt>
      <trkpt lat="49.33625" lon="0.02255">
        <ele>6.5</ele>
        <time>2020-06-17T13:04:02Z</time>
      </trkpt>
      <trkpt lat="49.33629" lon="0.02262">
        <ele>6.5</ele>
        <time>2020-06-17T13:04:03Z</time>
      </trkpt>
      <trkpt lat="49.33633" lon="0.0227">
        <ele>6.5</ele>
        <time>2020-06-17T13:04:04Z</time>
      </trkpt>
      <trkpt lat="49.33638" lon="0.02277">
        <ele>6.5</ele>
        <time>2020-06-17T13:04:05Z</time>
      </trkpt>
      <trkpt lat="49.33642" lon="0.02283">
        <ele>6.5</ele>
        <time>2020-06-17T13:04:06Z</time>
      </trkpt>
      <trkpt lat="49.33645" lon="0.0229">
        <ele>6.5</ele>
        <time>2020-06-17T13:04:07Z</time>
      </trkpt>
      <trkpt lat="49.33649" lon="0.02298">
        <ele>6.5</ele>
        <time>2020-06-17T13:04:08Z</time>
      </trkpt>
      <trkpt lat="49.33653" lon="0.02305">
        <ele>6.5</ele>
        <time>2020-06-17T13:04:09Z</time>
      </trkpt>
      <trkpt lat="49.33656" lon="0.02312">
        <ele>6.5</ele>
        <time>2020-06-17T13:04:10Z</time>
      </trkpt>
      <trkpt lat="49.3366" lon="0.02318">
        <ele>6.5</ele>
        <time>2020-06-17T13:04:11Z</time>
      </trkpt>
      <trkpt lat="49.33664" lon="0.02325">
        <ele>6.5</ele>
        <time>2020-06-17T13:04:12Z</time>
      </trkpt>
      <trkpt lat="49.33667" lon="0.02332">
        <ele>6.6</ele>
        <time>2020-06-17T13:04:13Z</time>
      </trkpt>
      <trkpt lat="49.3367" lon="0.02341">
        <ele>6.5</ele>
        <time>2020-06-17T13:04:14Z</time>
      </trkpt>
      <trkpt lat="49.33674" lon="0.02349">
        <ele>6.5</ele>
        <time>2020-06-17T13:04:15Z</time>
      </trkpt>
      <trkpt lat="49.33678" lon="0.02358">
        <ele>6.5</ele>
        <time>2020-06-17T13:04:16Z</time>
      </trkpt>
      <trkpt lat="49.33681" lon="0.02365">
        <ele>6.5</ele>
        <time>2020-06-17T13:04:17Z</time>
      </trkpt>
      <trkpt lat="49.33685" lon="0.02372">
        <ele>6.5</ele>
        <time>2020-06-17T13:04:18Z</time>
      </trkpt>
      <trkpt lat="49.33689" lon="0.0238">
        <ele>6.5</ele>
        <time>2020-06-17T13:04:19Z</time>
      </trkpt>
      <trkpt lat="49.33693" lon="0.02387">
        <ele>6.5</ele>
        <time>2020-06-17T13:04:20Z</time>
      </trkpt>
      <trkpt lat="49.33695" lon="0.02394">
        <ele>6.5</ele>
        <time>2020-06-17T13:04:21Z</time>
      </trkpt>
      <trkpt lat="49.33699" lon="0.02401">
        <ele>6.5</ele>
        <time>2020-06-17T13:04:22Z</time>
      </trkpt>
      <trkpt lat="49.33703" lon="0.02408">
        <ele>6.5</ele>
        <time>2020-06-17T13:04:23Z</time>
      </trkpt>
      <trkpt lat="49.33707" lon="0.02415">
        <ele>6.5</ele>
        <time>2020-06-17T13:04:24Z</time>
      </trkpt>
      <trkpt lat="49.3371" lon="0.02423">
        <ele>6.5</ele>
        <time>2020-06-17T13:04:25Z</time>
      </trkpt>
      <trkpt lat="49.33713" lon="0.0243">
        <ele>6.5</ele>
        <time>2020-06-17T13:04:26Z</time>
      </trkpt>
      <trkpt lat="49.33716" lon="0.02438">
        <ele>6.5</ele>
        <time>2020-06-17T13:04:27Z</time>
      </trkpt>
      <trkpt lat="49.33719" lon="0.02445">
        <ele>6.5</ele>
        <time>2020-06-17T13:04:28Z</time>
      </trkpt>
      <trkpt lat="49.33723" lon="0.02452">
        <ele>6.5</ele>
        <time>2020-06-17T13:04:29Z</time>
      </trkpt>
      <trkpt lat="49.33727" lon="0.02458">
        <ele>6.5</ele>
        <time>2020-06-17T13:04:30Z</time>
      </trkpt>
      <trkpt lat="49.33731" lon="0.02465">
        <ele>6.5</ele>
        <time>2020-06-17T13:04:31Z</time>
      </trkpt>
      <trkpt lat="49.33734" lon="0.02472">
        <ele>6.6</ele>
        <time>2020-06-17T13:04:32Z</time>
      </trkpt>
      <trkpt lat="49.33738" lon="0.02479">
        <ele>6.6</ele>
        <time>2020-06-17T13:04:33Z</time>
      </trkpt>
      <trkpt lat="49.33741" lon="0.02485">
        <ele>6.6</ele>
        <time>2020-06-17T13:04:34Z</time>
      </trkpt>
      <trkpt lat="49.33745" lon="0.02492">
        <ele>6.6</ele>
        <time>2020-06-17T13:04:35Z</time>
      </trkpt>
      <trkpt lat="49.33749" lon="0.02499">
        <ele>6.6</ele>
        <time>2020-06-17T13:04:36Z</time>
      </trkpt>
      <trkpt lat="49.33753" lon="0.02507">
        <ele>6.6</ele>
        <time>2020-06-17T13:04:37Z</time>
      </trkpt>
      <trkpt lat="49.33757" lon="0.02515">
        <ele>6.7</ele>
        <time>2020-06-17T13:04:38Z</time>
      </trkpt>
      <trkpt lat="49.3376" lon="0.02522">
        <ele>6.7</ele>
        <time>2020-06-17T13:04:39Z</time>
      </trkpt>
      <trkpt lat="49.33764" lon="0.02531">
        <ele>6.7</ele>
        <time>2020-06-17T13:04:40Z</time>
      </trkpt>
      <trkpt lat="49.33768" lon="0.02539">
        <ele>6.7</ele>
        <time>2020-06-17T13:04:41Z</time>
      </trkpt>
      <trkpt lat="49.33771" lon="0.02547">
        <ele>6.7</ele>
        <time>2020-06-17T13:04:42Z</time>
      </trkpt>
      <trkpt lat="49.33774" lon="0.02555">
        <ele>6.7</ele>
        <time>2020-06-17T13:04:43Z</time>
      </trkpt>
      <trkpt lat="49.33777" lon="0.02563">
        <ele>6.7</ele>
        <time>2020-06-17T13:04:44Z</time>
      </trkpt>
      <trkpt lat="49.3378" lon="0.02571">
        <ele>6.7</ele>
        <time>2020-06-17T13:04:45Z</time>
      </trkpt>
      <trkpt lat="49.33784" lon="0.0258">
        <ele>6.7</ele>
        <time>2020-06-17T13:04:46Z</time>
      </trkpt>
      <trkpt lat="49.33787" lon="0.02587">
        <ele>6.7</ele>
        <time>2020-06-17T13:04:47Z</time>
      </trkpt>
      <trkpt lat="49.3379" lon="0.02595">
        <ele>6.7</ele>
        <time>2020-06-17T13:04:48Z</time>
      </trkpt>
      <trkpt lat="49.33793" lon="0.02603">
        <ele>6.7</ele>
        <time>2020-06-17T13:04:49Z</time>
      </trkpt>
      <trkpt lat="49.33797" lon="0.02612">
        <ele>6.7</ele>
        <time>2020-06-17T13:04:50Z</time>
      </trkpt>
      <trkpt lat="49.338" lon="0.02619">
        <ele>6.6</ele>
        <time>2020-06-17T13:04:51Z</time>
      </trkpt>
      <trkpt lat="49.33802" lon="0.02626">
        <ele>6.6</ele>
        <time>2020-06-17T13:04:52Z</time>
      </trkpt>
      <trkpt lat="49.33805" lon="0.02633">
        <ele>6.6</ele>
        <time>2020-06-17T13:04:53Z</time>
      </trkpt>
      <trkpt lat="49.33808" lon="0.0264">
        <ele>6.6</ele>
        <time>2020-06-17T13:04:54Z</time>
      </trkpt>
      <trkpt lat="49.33811" lon="0.02648">
        <ele>6.6</ele>
        <time>2020-06-17T13:04:55Z</time>
      </trkpt>
      <trkpt lat="49.33814" lon="0.02656">
        <ele>6.5</ele>
        <time>2020-06-17T13:04:56Z</time>
      </trkpt>
      <trkpt lat="49.33816" lon="0.02664">
        <ele>6.5</ele>
        <time>2020-06-17T13:04:57Z</time>
      </trkpt>
      <trkpt lat="49.33818" lon="0.02672">
        <ele>6.5</ele>
        <time>2020-06-17T13:04:58Z</time>
      </trkpt>
      <trkpt lat="49.33819" lon="0.0268">
        <ele>6.4</ele>
        <time>2020-06-17T13:04:59Z</time>
      </trkpt>
      <trkpt lat="49.3382" lon="0.02686">
        <ele>6.4</ele>
        <time>2020-06-17T13:05:00Z</time>
      </trkpt>
      <trkpt lat="49.33822" lon="0.02693">
        <ele>6.4</ele>
        <time>2020-06-17T13:05:01Z</time>
      </trkpt>
      <trkpt lat="49.33823" lon="0.02701">
        <ele>6.4</ele>
        <time>2020-06-17T13:05:02Z</time>
      </trkpt>
      <trkpt lat="49.33827" lon="0.02712">
        <ele>6.4</ele>
        <time>2020-06-17T13:05:03Z</time>
      </trkpt>
      <trkpt lat="49.33829" lon="0.02718">
        <ele>6.4</ele>
        <time>2020-06-17T13:05:04Z</time>
      </trkpt>
      <trkpt lat="49.33831" lon="0.02726">
        <ele>6.5</ele>
        <time>2020-06-17T13:05:05Z</time>
      </trkpt>
      <trkpt lat="49.33834" lon="0.02733">
        <ele>6.5</ele>
        <time>2020-06-17T13:05:06Z</time>
      </trkpt>
      <trkpt lat="49.33836" lon="0.0274">
        <ele>6.5</ele>
        <time>2020-06-17T13:05:07Z</time>
      </trkpt>
      <trkpt lat="49.33839" lon="0.02748">
        <ele>6.5</ele>
        <time>2020-06-17T13:05:08Z</time>
      </trkpt>
      <trkpt lat="49.33841" lon="0.02756">
        <ele>6.5</ele>
        <time>2020-06-17T13:05:09Z</time>
      </trkpt>
      <trkpt lat="49.33842" lon="0.02765">
        <ele>6.5</ele>
        <time>2020-06-17T13:05:10Z</time>
      </trkpt>
      <trkpt lat="49.33844" lon="0.02773">
        <ele>6.6</ele>
        <time>2020-06-17T13:05:11Z</time>
      </trkpt>
      <trkpt lat="49.33845" lon="0.02781">
        <ele>6.5</ele>
        <time>2020-06-17T13:05:12Z</time>
      </trkpt>
      <trkpt lat="49.33847" lon="0.0279">
        <ele>6.5</ele>
        <time>2020-06-17T13:05:13Z</time>
      </trkpt>
      <trkpt lat="49.33849" lon="0.028">
        <ele>6.5</ele>
        <time>2020-06-17T13:05:14Z</time>
      </trkpt>
      <trkpt lat="49.3385" lon="0.02809">
        <ele>6.5</ele>
        <time>2020-06-17T13:05:15Z</time>
      </trkpt>
      <trkpt lat="49.33851" lon="0.02816">
        <ele>6.5</ele>
        <time>2020-06-17T13:05:16Z</time>
      </trkpt>
      <trkpt lat="49.33852" lon="0.02824">
        <ele>6.5</ele>
        <time>2020-06-17T13:05:17Z</time>
      </trkpt>
      <trkpt lat="49.33854" lon="0.02832">
        <ele>6.5</ele>
        <time>2020-06-17T13:05:18Z</time>
      </trkpt>
      <trkpt lat="49.33856" lon="0.02839">
        <ele>6.5</ele>
        <time>2020-06-17T13:05:19Z</time>
      </trkpt>
      <trkpt lat="49.33858" lon="0.02847">
        <ele>6.5</ele>
        <time>2020-06-17T13:05:20Z</time>
      </trkpt>
      <trkpt lat="49.3386" lon="0.02855">
        <ele>6.5</ele>
        <time>2020-06-17T13:05:21Z</time>
      </trkpt>
      <trkpt lat="49.33862" lon="0.02863">
        <ele>6.5</ele>
        <time>2020-06-17T13:05:22Z</time>
      </trkpt>
      <trkpt lat="49.33864" lon="0.02869">
        <ele>6.6</ele>
        <time>2020-06-17T13:05:23Z</time>
      </trkpt>
      <trkpt lat="49.33866" lon="0.02878">
        <ele>6.6</ele>
        <time>2020-06-17T13:05:24Z</time>
      </trkpt>
      <trkpt lat="49.33868" lon="0.02887">
        <ele>6.6</ele>
        <time>2020-06-17T13:05:25Z</time>
      </trkpt>
      <trkpt lat="49.3387" lon="0.02894">
        <ele>6.7</ele>
        <time>2020-06-17T13:05:26Z</time>
      </trkpt>
      <trkpt lat="49.33872" lon="0.02904">
        <ele>6.7</ele>
        <time>2020-06-17T13:05:27Z</time>
      </trkpt>
      <trkpt lat="49.33875" lon="0.02911">
        <ele>6.8</ele>
        <time>2020-06-17T13:05:28Z</time>
      </trkpt>
      <trkpt lat="49.33878" lon="0.02919">
        <ele>6.9</ele>
        <time>2020-06-17T13:05:29Z</time>
      </trkpt>
      <trkpt lat="49.3388" lon="0.02927">
        <ele>7.1</ele>
        <time>2020-06-17T13:05:30Z</time>
      </trkpt>
      <trkpt lat="49.33883" lon="0.02935">
        <ele>7.4</ele>
        <time>2020-06-17T13:05:31Z</time>
      </trkpt>
      <trkpt lat="49.33885" lon="0.02942">
        <ele>7.6</ele>
        <time>2020-06-17T13:05:32Z</time>
      </trkpt>
      <trkpt lat="49.33886" lon="0.02949">
        <ele>7.8</ele>
        <time>2020-06-17T13:05:33Z</time>
      </trkpt>
      <trkpt lat="49.33887" lon="0.02954">
        <ele>7.9</ele>
        <time>2020-06-17T13:05:34Z</time>
      </trkpt>
      <trkpt lat="49.33888" lon="0.0296">
        <ele>8.1</ele>
        <time>2020-06-17T13:05:35Z</time>
      </trkpt>
      <trkpt lat="49.33889" lon="0.02965">
        <ele>8.2</ele>
        <time>2020-06-17T13:05:36Z</time>
      </trkpt>
      <trkpt lat="49.3389" lon="0.02971">
        <ele>8.2</ele>
        <time>2020-06-17T13:05:37Z</time>
      </trkpt>
      <trkpt lat="49.33894" lon="0.02976">
        <ele>8.1</ele>
        <time>2020-06-17T13:05:38Z</time>
      </trkpt>
      <trkpt lat="49.33896" lon="0.02981">
        <ele>8.1</ele>
        <time>2020-06-17T13:05:39Z</time>
      </trkpt>
      <trkpt lat="49.33898" lon="0.02987">
        <ele>8.1</ele>
        <time>2020-06-17T13:05:40Z</time>
      </trkpt>
      <trkpt lat="49.33901" lon="0.02992">
        <ele>8.4</ele>
        <time>2020-06-17T13:05:41Z</time>
      </trkpt>
      <trkpt lat="49.33905" lon="0.02996">
        <ele>8.5</ele>
        <time>2020-06-17T13:05:42Z</time>
      </trkpt>
      <trkpt lat="49.33908" lon="0.03001">
        <ele>8.6</ele>
        <time>2020-06-17T13:05:43Z</time>
      </trkpt>
      <trkpt lat="49.33911" lon="0.03006">
        <ele>8.7</ele>
        <time>2020-06-17T13:05:44Z</time>
      </trkpt>
      <trkpt lat="49.33914" lon="0.03011">
        <ele>8.9</ele>
        <time>2020-06-17T13:05:45Z</time>
      </trkpt>
      <trkpt lat="49.33916" lon="0.03015">
        <ele>9</ele>
        <time>2020-06-17T13:05:46Z</time>
      </trkpt>
      <trkpt lat="49.3392" lon="0.0302">
        <ele>9.1</ele>
        <time>2020-06-17T13:05:47Z</time>
      </trkpt>
      <trkpt lat="49.33923" lon="0.03024">
        <ele>9.2</ele>
        <time>2020-06-17T13:05:48Z</time>
      </trkpt>
      <trkpt lat="49.33926" lon="0.03027">
        <ele>9.4</ele>
        <time>2020-06-17T13:05:49Z</time>
      </trkpt>
      <trkpt lat="49.33928" lon="0.03031">
        <ele>9.6</ele>
        <time>2020-06-17T13:05:50Z</time>
      </trkpt>
      <trkpt lat="49.3393" lon="0.03034">
        <ele>9.8</ele>
        <time>2020-06-17T13:05:51Z</time>
      </trkpt>
      <trkpt lat="49.33932" lon="0.03038">
        <ele>10.1</ele>
        <time>2020-06-17T13:05:52Z</time>
      </trkpt>
      <trkpt lat="49.33935" lon="0.03041">
        <ele>10.3</ele>
        <time>2020-06-17T13:05:53Z</time>
      </trkpt>
      <trkpt lat="49.33937" lon="0.03044">
        <ele>10.5</ele>
        <time>2020-06-17T13:05:54Z</time>
      </trkpt>
      <trkpt lat="49.3394" lon="0.03047">
        <ele>10.8</ele>
        <time>2020-06-17T13:05:55Z</time>
      </trkpt>
      <trkpt lat="49.33942" lon="0.03049">
        <ele>11</ele>
        <time>2020-06-17T13:05:56Z</time>
      </trkpt>
      <trkpt lat="49.33945" lon="0.03052">
        <ele>11.2</ele>
        <time>2020-06-17T13:05:57Z</time>
      </trkpt>
      <trkpt lat="49.33947" lon="0.03055">
        <ele>11.3</ele>
        <time>2020-06-17T13:05:58Z</time>
      </trkpt>
      <trkpt lat="49.3395" lon="0.03058">
        <ele>11.5</ele>
        <time>2020-06-17T13:05:59Z</time>
      </trkpt>
      <trkpt lat="49.33952" lon="0.0306">
        <ele>11.6</ele>
        <time>2020-06-17T13:06:00Z</time>
      </trkpt>
      <trkpt lat="49.33954" lon="0.03064">
        <ele>11.7</ele>
        <time>2020-06-17T13:06:01Z</time>
      </trkpt>
      <trkpt lat="49.33957" lon="0.03068">
        <ele>11.9</ele>
        <time>2020-06-17T13:06:02Z</time>
      </trkpt>
      <trkpt lat="49.33959" lon="0.03073">
        <ele>12</ele>
        <time>2020-06-17T13:06:03Z</time>
      </trkpt>
      <trkpt lat="49.33961" lon="0.03077">
        <ele>12.2</ele>
        <time>2020-06-17T13:06:04Z</time>
      </trkpt>
      <trkpt lat="49.33963" lon="0.03081">
        <ele>12.3</ele>
        <time>2020-06-17T13:06:05Z</time>
      </trkpt>
      <trkpt lat="49.33965" lon="0.03085">
        <ele>12.5</ele>
        <time>2020-06-17T13:06:06Z</time>
      </trkpt>
      <trkpt lat="49.33966" lon="0.03088">
        <ele>12.6</ele>
        <time>2020-06-17T13:06:07Z</time>
      </trkpt>
      <trkpt lat="49.33969" lon="0.03093">
        <ele>12.8</ele>
        <time>2020-06-17T13:06:08Z</time>
      </trkpt>
      <trkpt lat="49.33971" lon="0.03097">
        <ele>12.9</ele>
        <time>2020-06-17T13:06:09Z</time>
      </trkpt>
      <trkpt lat="49.33974" lon="0.03101">
        <ele>13.1</ele>
        <time>2020-06-17T13:06:10Z</time>
      </trkpt>
      <trkpt lat="49.33976" lon="0.03106">
        <ele>13.3</ele>
        <time>2020-06-17T13:06:11Z</time>
      </trkpt>
      <trkpt lat="49.33979" lon="0.03111">
        <ele>13.4</ele>
        <time>2020-06-17T13:06:12Z</time>
      </trkpt>
      <trkpt lat="49.33981" lon="0.03115">
        <ele>13.6</ele>
        <time>2020-06-17T13:06:13Z</time>
      </trkpt>
      <trkpt lat="49.33984" lon="0.03119">
        <ele>14.2</ele>
        <time>2020-06-17T13:06:14Z</time>
      </trkpt>
      <trkpt lat="49.33986" lon="0.03123">
        <ele>14.5</ele>
        <time>2020-06-17T13:06:15Z</time>
      </trkpt>
      <trkpt lat="49.33987" lon="0.03127">
        <ele>14.7</ele>
        <time>2020-06-17T13:06:16Z</time>
      </trkpt>
      <trkpt lat="49.33989" lon="0.03131">
        <ele>14.9</ele>
        <time>2020-06-17T13:06:17Z</time>
      </trkpt>
      <trkpt lat="49.33992" lon="0.03135">
        <ele>15.2</ele>
        <time>2020-06-17T13:06:18Z</time>
      </trkpt>
      <trkpt lat="49.33993" lon="0.03139">
        <ele>15.4</ele>
        <time>2020-06-17T13:06:19Z</time>
      </trkpt>
      <trkpt lat="49.33995" lon="0.03142">
        <ele>15.6</ele>
        <time>2020-06-17T13:06:20Z</time>
      </trkpt>
      <trkpt lat="49.33998" lon="0.03145">
        <ele>15.8</ele>
        <time>2020-06-17T13:06:21Z</time>
      </trkpt>
      <trkpt lat="49.34001" lon="0.03148">
        <ele>16</ele>
        <time>2020-06-17T13:06:22Z</time>
      </trkpt>
      <trkpt lat="49.34003" lon="0.03151">
        <ele>16.2</ele>
        <time>2020-06-17T13:06:23Z</time>
      </trkpt>
      <trkpt lat="49.34006" lon="0.03154">
        <ele>16.4</ele>
        <time>2020-06-17T13:06:24Z</time>
      </trkpt>
      <trkpt lat="49.34008" lon="0.03157">
        <ele>16.6</ele>
        <time>2020-06-17T13:06:25Z</time>
      </trkpt>
      <trkpt lat="49.3401" lon="0.03161">
        <ele>16.9</ele>
        <time>2020-06-17T13:06:26Z</time>
      </trkpt>
      <trkpt lat="49.34012" lon="0.03164">
        <ele>17</ele>
        <time>2020-06-17T13:06:27Z</time>
      </trkpt>
      <trkpt lat="49.34015" lon="0.03166">
        <ele>17.2</ele>
        <time>2020-06-17T13:06:28Z</time>
      </trkpt>
      <trkpt lat="49.34017" lon="0.03169">
        <ele>17.4</ele>
        <time>2020-06-17T13:06:29Z</time>
      </trkpt>
      <trkpt lat="49.3402" lon="0.03173">
        <ele>17.6</ele>
        <time>2020-06-17T13:06:30Z</time>
      </trkpt>
      <trkpt lat="49.3402" lon="0.03175">
        <ele>17.7</ele>
        <time>2020-06-17T13:06:31Z</time>
      </trkpt>
      <trkpt lat="49.34023" lon="0.03178">
        <ele>17.9</ele>
        <time>2020-06-17T13:06:32Z</time>
      </trkpt>
      <trkpt lat="49.34025" lon="0.03183">
        <ele>18.2</ele>
        <time>2020-06-17T13:06:33Z</time>
      </trkpt>
      <trkpt lat="49.34026" lon="0.03185">
        <ele>18.3</ele>
        <time>2020-06-17T13:06:34Z</time>
      </trkpt>
      <trkpt lat="49.34028" lon="0.03188">
        <ele>18.5</ele>
        <time>2020-06-17T13:06:35Z</time>
      </trkpt>
      <trkpt lat="49.3403" lon="0.03192">
        <ele>18.8</ele>
        <time>2020-06-17T13:06:36Z</time>
      </trkpt>
      <trkpt lat="49.34032" lon="0.03196">
        <ele>19</ele>
        <time>2020-06-17T13:06:37Z</time>
      </trkpt>
      <trkpt lat="49.34034" lon="0.032">
        <ele>19.3</ele>
        <time>2020-06-17T13:06:38Z</time>
      </trkpt>
      <trkpt lat="49.34036" lon="0.03205">
        <ele>19.6</ele>
        <time>2020-06-17T13:06:39Z</time>
      </trkpt>
      <trkpt lat="49.34037" lon="0.03206">
        <ele>19.7</ele>
        <time>2020-06-17T13:06:40Z</time>
      </trkpt>
      <trkpt lat="49.3404" lon="0.0321">
        <ele>19.9</ele>
        <time>2020-06-17T13:06:41Z</time>
      </trkpt>
      <trkpt lat="49.34042" lon="0.03213">
        <ele>20.1</ele>
        <time>2020-06-17T13:06:42Z</time>
      </trkpt>
      <trkpt lat="49.34044" lon="0.03217">
        <ele>20.3</ele>
        <time>2020-06-17T13:06:43Z</time>
      </trkpt>
      <trkpt lat="49.34046" lon="0.03221">
        <ele>20.5</ele>
        <time>2020-06-17T13:06:44Z</time>
      </trkpt>
      <trkpt lat="49.34048" lon="0.03225">
        <ele>20.7</ele>
        <time>2020-06-17T13:06:45Z</time>
      </trkpt>
      <trkpt lat="49.3405" lon="0.0323">
        <ele>20.9</ele>
        <time>2020-06-17T13:06:46Z</time>
      </trkpt>
      <trkpt lat="49.3405" lon="0.03232">
        <ele>21</ele>
        <time>2020-06-17T13:06:47Z</time>
      </trkpt>
      <trkpt lat="49.34052" lon="0.03236">
        <ele>21</ele>
        <time>2020-06-17T13:06:48Z</time>
      </trkpt>
      <trkpt lat="49.34054" lon="0.0324">
        <ele>21.2</ele>
        <time>2020-06-17T13:06:49Z</time>
      </trkpt>
      <trkpt lat="49.34055" lon="0.03242">
        <ele>21.2</ele>
        <time>2020-06-17T13:06:50Z</time>
      </trkpt>
      <trkpt lat="49.34057" lon="0.03246">
        <ele>21.3</ele>
        <time>2020-06-17T13:06:51Z</time>
      </trkpt>
      <trkpt lat="49.34059" lon="0.03251">
        <ele>21.4</ele>
        <time>2020-06-17T13:06:52Z</time>
      </trkpt>
      <trkpt lat="49.3406" lon="0.03255">
        <ele>21.5</ele>
        <time>2020-06-17T13:06:53Z</time>
      </trkpt>
      <trkpt lat="49.34062" lon="0.03259">
        <ele>21.6</ele>
        <time>2020-06-17T13:06:54Z</time>
      </trkpt>
      <trkpt lat="49.34064" lon="0.03263">
        <ele>22.2</ele>
        <time>2020-06-17T13:06:55Z</time>
      </trkpt>
      <trkpt lat="49.34065" lon="0.03267">
        <ele>22.4</ele>
        <time>2020-06-17T13:06:56Z</time>
      </trkpt>
      <trkpt lat="49.34068" lon="0.0327">
        <ele>22.6</ele>
        <time>2020-06-17T13:06:57Z</time>
      </trkpt>
      <trkpt lat="49.3407" lon="0.03273">
        <ele>22.9</ele>
        <time>2020-06-17T13:06:58Z</time>
      </trkpt>
      <trkpt lat="49.34073" lon="0.03277">
        <ele>23.1</ele>
        <time>2020-06-17T13:06:59Z</time>
      </trkpt>
      <trkpt lat="49.34075" lon="0.0328">
        <ele>23.3</ele>
        <time>2020-06-17T13:07:00Z</time>
      </trkpt>
      <trkpt lat="49.34077" lon="0.03283">
        <ele>23.5</ele>
        <time>2020-06-17T13:07:01Z</time>
      </trkpt>
      <trkpt lat="49.3408" lon="0.03287">
        <ele>23.7</ele>
        <time>2020-06-17T13:07:02Z</time>
      </trkpt>
      <trkpt lat="49.34083" lon="0.0329">
        <ele>24</ele>
        <time>2020-06-17T13:07:03Z</time>
      </trkpt>
      <trkpt lat="49.34085" lon="0.03293">
        <ele>24.2</ele>
        <time>2020-06-17T13:07:04Z</time>
      </trkpt>
      <trkpt lat="49.34087" lon="0.03296">
        <ele>24.4</ele>
        <time>2020-06-17T13:07:05Z</time>
      </trkpt>
      <trkpt lat="49.3409" lon="0.033">
        <ele>24.6</ele>
        <time>2020-06-17T13:07:06Z</time>
      </trkpt>
      <trkpt lat="49.34091" lon="0.03302">
        <ele>24.7</ele>
        <time>2020-06-17T13:07:07Z</time>
      </trkpt>
      <trkpt lat="49.34094" lon="0.03305">
        <ele>24.9</ele>
        <time>2020-06-17T13:07:08Z</time>
      </trkpt>
      <trkpt lat="49.34096" lon="0.03308">
        <ele>25.2</ele>
        <time>2020-06-17T13:07:09Z</time>
      </trkpt>
      <trkpt lat="49.34097" lon="0.0331">
        <ele>25.3</ele>
        <time>2020-06-17T13:07:10Z</time>
      </trkpt>
      <trkpt lat="49.341" lon="0.03313">
        <ele>25.5</ele>
        <time>2020-06-17T13:07:11Z</time>
      </trkpt>
      <trkpt lat="49.341" lon="0.03314">
        <ele>25.6</ele>
        <time>2020-06-17T13:07:12Z</time>
      </trkpt>
      <trkpt lat="49.34103" lon="0.03317">
        <ele>25.8</ele>
        <time>2020-06-17T13:07:13Z</time>
      </trkpt>
      <trkpt lat="49.34105" lon="0.03318">
        <ele>25.9</ele>
        <time>2020-06-17T13:07:14Z</time>
      </trkpt>
      <trkpt lat="49.34107" lon="0.03319">
        <ele>26.1</ele>
        <time>2020-06-17T13:07:15Z</time>
      </trkpt>
      <trkpt lat="49.3411" lon="0.03321">
        <ele>26.3</ele>
        <time>2020-06-17T13:07:16Z</time>
      </trkpt>
      <trkpt lat="49.34113" lon="0.03323">
        <ele>26.6</ele>
        <time>2020-06-17T13:07:17Z</time>
      </trkpt>
      <trkpt lat="49.34115" lon="0.03326">
        <ele>26.9</ele>
        <time>2020-06-17T13:07:18Z</time>
      </trkpt>
      <trkpt lat="49.34117" lon="0.03329">
        <ele>27.1</ele>
        <time>2020-06-17T13:07:19Z</time>
      </trkpt>
      <trkpt lat="49.34118" lon="0.03334">
        <ele>27.4</ele>
        <time>2020-06-17T13:07:20Z</time>
      </trkpt>
      <trkpt lat="49.34118" lon="0.03335">
        <ele>27.5</ele>
        <time>2020-06-17T13:07:21Z</time>
      </trkpt>
      <trkpt lat="49.3412" lon="0.03339">
        <ele>27.7</ele>
        <time>2020-06-17T13:07:22Z</time>
      </trkpt>
      <trkpt lat="49.34121" lon="0.03344">
        <ele>28</ele>
        <time>2020-06-17T13:07:23Z</time>
      </trkpt>
      <trkpt lat="49.34122" lon="0.03346">
        <ele>28.1</ele>
        <time>2020-06-17T13:07:24Z</time>
      </trkpt>
      <trkpt lat="49.34124" lon="0.03349">
        <ele>28.3</ele>
        <time>2020-06-17T13:07:25Z</time>
      </trkpt>
      <trkpt lat="49.34126" lon="0.03353">
        <ele>28.6</ele>
        <time>2020-06-17T13:07:26Z</time>
      </trkpt>
      <trkpt lat="49.34127" lon="0.03357">
        <ele>28.8</ele>
        <time>2020-06-17T13:07:27Z</time>
      </trkpt>
      <trkpt lat="49.34128" lon="0.03361">
        <ele>28.9</ele>
        <time>2020-06-17T13:07:28Z</time>
      </trkpt>
      <trkpt lat="49.3413" lon="0.03366">
        <ele>29.2</ele>
        <time>2020-06-17T13:07:29Z</time>
      </trkpt>
      <trkpt lat="49.3413" lon="0.03368">
        <ele>29.3</ele>
        <time>2020-06-17T13:07:30Z</time>
      </trkpt>
      <trkpt lat="49.34131" lon="0.03374">
        <ele>29.6</ele>
        <time>2020-06-17T13:07:31Z</time>
      </trkpt>
      <trkpt lat="49.34131" lon="0.03376">
        <ele>29.7</ele>
        <time>2020-06-17T13:07:32Z</time>
      </trkpt>
      <trkpt lat="49.34133" lon="0.03381">
        <ele>30</ele>
        <time>2020-06-17T13:07:33Z</time>
      </trkpt>
      <trkpt lat="49.34133" lon="0.03383">
        <ele>30.1</ele>
        <time>2020-06-17T13:07:34Z</time>
      </trkpt>
      <trkpt lat="49.34135" lon="0.03387">
        <ele>30.3</ele>
        <time>2020-06-17T13:07:35Z</time>
      </trkpt>
      <trkpt lat="49.34137" lon="0.03392">
        <ele>30.7</ele>
        <time>2020-06-17T13:07:36Z</time>
      </trkpt>
      <trkpt lat="49.34138" lon="0.03395">
        <ele>30.7</ele>
        <time>2020-06-17T13:07:37Z</time>
      </trkpt>
      <trkpt lat="49.34139" lon="0.03399">
        <ele>30.7</ele>
        <time>2020-06-17T13:07:38Z</time>
      </trkpt>
      <trkpt lat="49.34141" lon="0.03404">
        <ele>30.7</ele>
        <time>2020-06-17T13:07:39Z</time>
      </trkpt>
      <trkpt lat="49.34141" lon="0.03406">
        <ele>30.8</ele>
        <time>2020-06-17T13:07:40Z</time>
      </trkpt>
      <trkpt lat="49.34143" lon="0.0341">
        <ele>31</ele>
        <time>2020-06-17T13:07:41Z</time>
      </trkpt>
      <trkpt lat="49.34144" lon="0.03414">
        <ele>31.2</ele>
        <time>2020-06-17T13:07:42Z</time>
      </trkpt>
      <trkpt lat="49.34145" lon="0.03419">
        <ele>31.4</ele>
        <time>2020-06-17T13:07:43Z</time>
      </trkpt>
      <trkpt lat="49.34146" lon="0.0342">
        <ele>31.4</ele>
        <time>2020-06-17T13:07:44Z</time>
      </trkpt>
      <trkpt lat="49.34148" lon="0.03425">
        <ele>31.7</ele>
        <time>2020-06-17T13:07:45Z</time>
      </trkpt>
      <trkpt lat="49.34149" lon="0.03427">
        <ele>31.7</ele>
        <time>2020-06-17T13:07:46Z</time>
      </trkpt>
      <trkpt lat="49.3415" lon="0.0343">
        <ele>31.9</ele>
        <time>2020-06-17T13:07:47Z</time>
      </trkpt>
      <trkpt lat="49.34152" lon="0.03434">
        <ele>32</ele>
        <time>2020-06-17T13:07:48Z</time>
      </trkpt>
      <trkpt lat="49.34154" lon="0.03438">
        <ele>32.2</ele>
        <time>2020-06-17T13:07:49Z</time>
      </trkpt>
      <trkpt lat="49.34155" lon="0.03443">
        <ele>32.4</ele>
        <time>2020-06-17T13:07:50Z</time>
      </trkpt>
      <trkpt lat="49.34156" lon="0.03447">
        <ele>32.6</ele>
        <time>2020-06-17T13:07:51Z</time>
      </trkpt>
      <trkpt lat="49.34157" lon="0.03452">
        <ele>32.8</ele>
        <time>2020-06-17T13:07:52Z</time>
      </trkpt>
      <trkpt lat="49.34158" lon="0.03456">
        <ele>33</ele>
        <time>2020-06-17T13:07:53Z</time>
      </trkpt>
      <trkpt lat="49.34159" lon="0.0346">
        <ele>33.1</ele>
        <time>2020-06-17T13:07:54Z</time>
      </trkpt>
      <trkpt lat="49.34161" lon="0.03464">
        <ele>33.3</ele>
        <time>2020-06-17T13:07:55Z</time>
      </trkpt>
      <trkpt lat="49.34163" lon="0.03468">
        <ele>33.5</ele>
        <time>2020-06-17T13:07:56Z</time>
      </trkpt>
      <trkpt lat="49.34165" lon="0.03471">
        <ele>33.7</ele>
        <time>2020-06-17T13:07:57Z</time>
      </trkpt>
      <trkpt lat="49.34167" lon="0.03474">
        <ele>33.8</ele>
        <time>2020-06-17T13:07:58Z</time>
      </trkpt>
      <trkpt lat="49.34169" lon="0.03477">
        <ele>34</ele>
        <time>2020-06-17T13:07:59Z</time>
      </trkpt>
      <trkpt lat="49.34171" lon="0.0348">
        <ele>34.2</ele>
        <time>2020-06-17T13:08:00Z</time>
      </trkpt>
      <trkpt lat="49.34173" lon="0.03483">
        <ele>34.4</ele>
        <time>2020-06-17T13:08:01Z</time>
      </trkpt>
      <trkpt lat="49.34175" lon="0.03487">
        <ele>34.5</ele>
        <time>2020-06-17T13:08:02Z</time>
      </trkpt>
      <trkpt lat="49.34176" lon="0.03491">
        <ele>34.7</ele>
        <time>2020-06-17T13:08:03Z</time>
      </trkpt>
      <trkpt lat="49.34178" lon="0.03495">
        <ele>34.9</ele>
        <time>2020-06-17T13:08:04Z</time>
      </trkpt>
      <trkpt lat="49.3418" lon="0.03499">
        <ele>35.1</ele>
        <time>2020-06-17T13:08:05Z</time>
      </trkpt>
      <trkpt lat="49.34183" lon="0.03502">
        <ele>35.3</ele>
        <time>2020-06-17T13:08:06Z</time>
      </trkpt>
      <trkpt lat="49.34185" lon="0.03505">
        <ele>35.4</ele>
        <time>2020-06-17T13:08:07Z</time>
      </trkpt>
      <trkpt lat="49.34187" lon="0.03509">
        <ele>35.6</ele>
        <time>2020-06-17T13:08:08Z</time>
      </trkpt>
      <trkpt lat="49.3419" lon="0.03512">
        <ele>35.8</ele>
        <time>2020-06-17T13:08:09Z</time>
      </trkpt>
      <trkpt lat="49.34193" lon="0.03516">
        <ele>36</ele>
        <time>2020-06-17T13:08:10Z</time>
      </trkpt>
      <trkpt lat="49.34196" lon="0.0352">
        <ele>36.2</ele>
        <time>2020-06-17T13:08:11Z</time>
      </trkpt>
      <trkpt lat="49.34198" lon="0.03524">
        <ele>36.3</ele>
        <time>2020-06-17T13:08:12Z</time>
      </trkpt>
      <trkpt lat="49.34202" lon="0.03528">
        <ele>36.5</ele>
        <time>2020-06-17T13:08:13Z</time>
      </trkpt>
      <trkpt lat="49.34206" lon="0.03532">
        <ele>36.6</ele>
        <time>2020-06-17T13:08:14Z</time>
      </trkpt>
      <trkpt lat="49.34208" lon="0.03536">
        <ele>36.8</ele>
        <time>2020-06-17T13:08:15Z</time>
      </trkpt>
      <trkpt lat="49.34211" lon="0.0354">
        <ele>36.9</ele>
        <time>2020-06-17T13:08:16Z</time>
      </trkpt>
      <trkpt lat="49.34216" lon="0.03544">
        <ele>37</ele>
        <time>2020-06-17T13:08:17Z</time>
      </trkpt>
      <trkpt lat="49.34223" lon="0.03547">
        <ele>37.1</ele>
        <time>2020-06-17T13:08:18Z</time>
      </trkpt>
      <trkpt lat="49.34231" lon="0.03549">
        <ele>37.2</ele>
        <time>2020-06-17T13:08:19Z</time>
      </trkpt>
      <trkpt lat="49.34238" lon="0.03553">
        <ele>37.3</ele>
        <time>2020-06-17T13:08:20Z</time>
      </trkpt>
      <trkpt lat="49.34242" lon="0.03558">
        <ele>37.3</ele>
        <time>2020-06-17T13:08:21Z</time>
      </trkpt>
      <trkpt lat="49.34247" lon="0.03562">
        <ele>37.3</ele>
        <time>2020-06-17T13:08:22Z</time>
      </trkpt>
      <trkpt lat="49.34253" lon="0.03566">
        <ele>37.3</ele>
        <time>2020-06-17T13:08:23Z</time>
      </trkpt>
      <trkpt lat="49.34259" lon="0.03571">
        <ele>37.3</ele>
        <time>2020-06-17T13:08:24Z</time>
      </trkpt>
      <trkpt lat="49.34264" lon="0.03577">
        <ele>37.3</ele>
        <time>2020-06-17T13:08:25Z</time>
      </trkpt>
      <trkpt lat="49.3427" lon="0.03583">
        <ele>37.3</ele>
        <time>2020-06-17T13:08:26Z</time>
      </trkpt>
      <trkpt lat="49.34275" lon="0.03589">
        <ele>37.3</ele>
        <time>2020-06-17T13:08:27Z</time>
      </trkpt>
      <trkpt lat="49.34279" lon="0.03595">
        <ele>37.3</ele>
        <time>2020-06-17T13:08:28Z</time>
      </trkpt>
      <trkpt lat="49.34284" lon="0.03602">
        <ele>37.4</ele>
        <time>2020-06-17T13:08:29Z</time>
      </trkpt>
      <trkpt lat="49.34288" lon="0.03608">
        <ele>37.4</ele>
        <time>2020-06-17T13:08:30Z</time>
      </trkpt>
      <trkpt lat="49.34292" lon="0.03614">
        <ele>37.4</ele>
        <time>2020-06-17T13:08:31Z</time>
      </trkpt>
      <trkpt lat="49.34296" lon="0.03621">
        <ele>37.5</ele>
        <time>2020-06-17T13:08:32Z</time>
      </trkpt>
      <trkpt lat="49.343" lon="0.03627">
        <ele>37.5</ele>
        <time>2020-06-17T13:08:33Z</time>
      </trkpt>
      <trkpt lat="49.34305" lon="0.03634">
        <ele>37.6</ele>
        <time>2020-06-17T13:08:34Z</time>
      </trkpt>
      <trkpt lat="49.34309" lon="0.0364">
        <ele>37.6</ele>
        <time>2020-06-17T13:08:35Z</time>
      </trkpt>
      <trkpt lat="49.34313" lon="0.03647">
        <ele>37.6</ele>
        <time>2020-06-17T13:08:36Z</time>
      </trkpt>
      <trkpt lat="49.34318" lon="0.03654">
        <ele>37.7</ele>
        <time>2020-06-17T13:08:37Z</time>
      </trkpt>
      <trkpt lat="49.34322" lon="0.03661">
        <ele>37.7</ele>
        <time>2020-06-17T13:08:38Z</time>
      </trkpt>
      <trkpt lat="49.34326" lon="0.03668">
        <ele>37.7</ele>
        <time>2020-06-17T13:08:39Z</time>
      </trkpt>
      <trkpt lat="49.34329" lon="0.03675">
        <ele>37.7</ele>
        <time>2020-06-17T13:08:40Z</time>
      </trkpt>
      <trkpt lat="49.34334" lon="0.03682">
        <ele>37.7</ele>
        <time>2020-06-17T13:08:41Z</time>
      </trkpt>
      <trkpt lat="49.34338" lon="0.03688">
        <ele>37.8</ele>
        <time>2020-06-17T13:08:42Z</time>
      </trkpt>
      <trkpt lat="49.34343" lon="0.03695">
        <ele>37.8</ele>
        <time>2020-06-17T13:08:43Z</time>
      </trkpt>
      <trkpt lat="49.34348" lon="0.03702">
        <ele>37.8</ele>
        <time>2020-06-17T13:08:44Z</time>
      </trkpt>
      <trkpt lat="49.34352" lon="0.0371">
        <ele>37.8</ele>
        <time>2020-06-17T13:08:45Z</time>
      </trkpt>
      <trkpt lat="49.34357" lon="0.03717">
        <ele>37.8</ele>
        <time>2020-06-17T13:08:46Z</time>
      </trkpt>
      <trkpt lat="49.34361" lon="0.03726">
        <ele>37.8</ele>
        <time>2020-06-17T13:08:47Z</time>
      </trkpt>
      <trkpt lat="49.34366" lon="0.03734">
        <ele>37.8</ele>
        <time>2020-06-17T13:08:48Z</time>
      </trkpt>
      <trkpt lat="49.3437" lon="0.03743">
        <ele>37.8</ele>
        <time>2020-06-17T13:08:49Z</time>
      </trkpt>
      <trkpt lat="49.34374" lon="0.03752">
        <ele>37.8</ele>
        <time>2020-06-17T13:08:50Z</time>
      </trkpt>
      <trkpt lat="49.34378" lon="0.03763">
        <ele>37.9</ele>
        <time>2020-06-17T13:08:51Z</time>
      </trkpt>
      <trkpt lat="49.34379" lon="0.03771">
        <ele>37.9</ele>
        <time>2020-06-17T13:08:52Z</time>
      </trkpt>
      <trkpt lat="49.34381" lon="0.0378">
        <ele>37.9</ele>
        <time>2020-06-17T13:08:53Z</time>
      </trkpt>
      <trkpt lat="49.34383" lon="0.03789">
        <ele>38</ele>
        <time>2020-06-17T13:08:54Z</time>
      </trkpt>
      <trkpt lat="49.34384" lon="0.03798">
        <ele>38.1</ele>
        <time>2020-06-17T13:08:55Z</time>
      </trkpt>
      <trkpt lat="49.34386" lon="0.03807">
        <ele>38.2</ele>
        <time>2020-06-17T13:08:56Z</time>
      </trkpt>
      <trkpt lat="49.34387" lon="0.03815">
        <ele>38.2</ele>
        <time>2020-06-17T13:08:57Z</time>
      </trkpt>
      <trkpt lat="49.34389" lon="0.03823">
        <ele>38.2</ele>
        <time>2020-06-17T13:08:58Z</time>
      </trkpt>
      <trkpt lat="49.34389" lon="0.0383">
        <ele>38.1</ele>
        <time>2020-06-17T13:08:59Z</time>
      </trkpt>
      <trkpt lat="49.34392" lon="0.03839">
        <ele>38.1</ele>
        <time>2020-06-17T13:09:00Z</time>
      </trkpt>
      <trkpt lat="49.34394" lon="0.03848">
        <ele>38</ele>
        <time>2020-06-17T13:09:01Z</time>
      </trkpt>
      <trkpt lat="49.34396" lon="0.03857">
        <ele>38</ele>
        <time>2020-06-17T13:09:02Z</time>
      </trkpt>
      <trkpt lat="49.34398" lon="0.03867">
        <ele>38</ele>
        <time>2020-06-17T13:09:03Z</time>
      </trkpt>
      <trkpt lat="49.344" lon="0.03876">
        <ele>37.9</ele>
        <time>2020-06-17T13:09:04Z</time>
      </trkpt>
      <trkpt lat="49.34402" lon="0.03885">
        <ele>37.9</ele>
        <time>2020-06-17T13:09:05Z</time>
      </trkpt>
      <trkpt lat="49.34404" lon="0.03893">
        <ele>37.8</ele>
        <time>2020-06-17T13:09:06Z</time>
      </trkpt>
      <trkpt lat="49.34406" lon="0.03902">
        <ele>37.8</ele>
        <time>2020-06-17T13:09:07Z</time>
      </trkpt>
      <trkpt lat="49.34408" lon="0.03911">
        <ele>37.7</ele>
        <time>2020-06-17T13:09:08Z</time>
      </trkpt>
      <trkpt lat="49.3441" lon="0.03919">
        <ele>37.7</ele>
        <time>2020-06-17T13:09:09Z</time>
      </trkpt>
      <trkpt lat="49.34413" lon="0.03927">
        <ele>37.6</ele>
        <time>2020-06-17T13:09:10Z</time>
      </trkpt>
      <trkpt lat="49.34416" lon="0.03936">
        <ele>37.6</ele>
        <time>2020-06-17T13:09:11Z</time>
      </trkpt>
      <trkpt lat="49.34418" lon="0.03943">
        <ele>37.5</ele>
        <time>2020-06-17T13:09:12Z</time>
      </trkpt>
      <trkpt lat="49.3442" lon="0.03952">
        <ele>37.5</ele>
        <time>2020-06-17T13:09:13Z</time>
      </trkpt>
      <trkpt lat="49.34423" lon="0.03959">
        <ele>37.4</ele>
        <time>2020-06-17T13:09:14Z</time>
      </trkpt>
      <trkpt lat="49.34426" lon="0.03966">
        <ele>37.4</ele>
        <time>2020-06-17T13:09:15Z</time>
      </trkpt>
      <trkpt lat="49.34429" lon="0.03974">
        <ele>37.3</ele>
        <time>2020-06-17T13:09:16Z</time>
      </trkpt>
      <trkpt lat="49.34431" lon="0.03982">
        <ele>37.2</ele>
        <time>2020-06-17T13:09:17Z</time>
      </trkpt>
      <trkpt lat="49.34433" lon="0.03989">
        <ele>37.2</ele>
        <time>2020-06-17T13:09:18Z</time>
      </trkpt>
      <trkpt lat="49.34436" lon="0.03996">
        <ele>37.1</ele>
        <time>2020-06-17T13:09:19Z</time>
      </trkpt>
      <trkpt lat="49.34438" lon="0.04003">
        <ele>37</ele>
        <time>2020-06-17T13:09:20Z</time>
      </trkpt>
      <trkpt lat="49.3444" lon="0.0401">
        <ele>37</ele>
        <time>2020-06-17T13:09:21Z</time>
      </trkpt>
      <trkpt lat="49.34442" lon="0.04018">
        <ele>36.9</ele>
        <time>2020-06-17T13:09:22Z</time>
      </trkpt>
      <trkpt lat="49.34443" lon="0.04024">
        <ele>36.8</ele>
        <time>2020-06-17T13:09:23Z</time>
      </trkpt>
      <trkpt lat="49.34445" lon="0.04031">
        <ele>36.8</ele>
        <time>2020-06-17T13:09:24Z</time>
      </trkpt>
      <trkpt lat="49.34447" lon="0.04038">
        <ele>36.7</ele>
        <time>2020-06-17T13:09:25Z</time>
      </trkpt>
      <trkpt lat="49.3445" lon="0.04046">
        <ele>36.6</ele>
        <time>2020-06-17T13:09:26Z</time>
      </trkpt>
      <trkpt lat="49.34452" lon="0.04053">
        <ele>36.5</ele>
        <time>2020-06-17T13:09:27Z</time>
      </trkpt>
      <trkpt lat="49.34455" lon="0.04061">
        <ele>36.4</ele>
        <time>2020-06-17T13:09:28Z</time>
      </trkpt>
      <trkpt lat="49.34457" lon="0.04069">
        <ele>36.3</ele>
        <time>2020-06-17T13:09:29Z</time>
      </trkpt>
      <trkpt lat="49.34459" lon="0.04076">
        <ele>36.2</ele>
        <time>2020-06-17T13:09:30Z</time>
      </trkpt>
      <trkpt lat="49.34461" lon="0.04084">
        <ele>36.1</ele>
        <time>2020-06-17T13:09:31Z</time>
      </trkpt>
      <trkpt lat="49.34463" lon="0.04091">
        <ele>36.1</ele>
        <time>2020-06-17T13:09:32Z</time>
      </trkpt>
      <trkpt lat="49.34465" lon="0.04099">
        <ele>36</ele>
        <time>2020-06-17T13:09:33Z</time>
      </trkpt>
      <trkpt lat="49.34469" lon="0.04107">
        <ele>36</ele>
        <time>2020-06-17T13:09:34Z</time>
      </trkpt>
      <trkpt lat="49.34471" lon="0.04116">
        <ele>35.9</ele>
        <time>2020-06-17T13:09:35Z</time>
      </trkpt>
      <trkpt lat="49.34473" lon="0.04125">
        <ele>35.8</ele>
        <time>2020-06-17T13:09:36Z</time>
      </trkpt>
      <trkpt lat="49.34476" lon="0.04135">
        <ele>35.7</ele>
        <time>2020-06-17T13:09:37Z</time>
      </trkpt>
      <trkpt lat="49.34478" lon="0.04144">
        <ele>35.6</ele>
        <time>2020-06-17T13:09:38Z</time>
      </trkpt>
      <trkpt lat="49.3448" lon="0.04155">
        <ele>35.5</ele>
        <time>2020-06-17T13:09:39Z</time>
      </trkpt>
      <trkpt lat="49.34481" lon="0.04166">
        <ele>35.4</ele>
        <time>2020-06-17T13:09:40Z</time>
      </trkpt>
      <trkpt lat="49.34483" lon="0.04178">
        <ele>35.2</ele>
        <time>2020-06-17T13:09:41Z</time>
      </trkpt>
      <trkpt lat="49.34484" lon="0.0419">
        <ele>35.1</ele>
        <time>2020-06-17T13:09:42Z</time>
      </trkpt>
      <trkpt lat="49.34486" lon="0.04199">
        <ele>35</ele>
        <time>2020-06-17T13:09:43Z</time>
      </trkpt>
      <trkpt lat="49.34488" lon="0.0421">
        <ele>34.8</ele>
        <time>2020-06-17T13:09:44Z</time>
      </trkpt>
      <trkpt lat="49.3449" lon="0.0422">
        <ele>34.7</ele>
        <time>2020-06-17T13:09:45Z</time>
      </trkpt>
      <trkpt lat="49.34493" lon="0.0423">
        <ele>34.5</ele>
        <time>2020-06-17T13:09:46Z</time>
      </trkpt>
      <trkpt lat="49.34495" lon="0.0424">
        <ele>34.2</ele>
        <time>2020-06-17T13:09:47Z</time>
      </trkpt>
      <trkpt lat="49.34499" lon="0.04249">
        <ele>33.9</ele>
        <time>2020-06-17T13:09:48Z</time>
      </trkpt>
      <trkpt lat="49.34502" lon="0.04258">
        <ele>33.6</ele>
        <time>2020-06-17T13:09:49Z</time>
      </trkpt>
      <trkpt lat="49.34507" lon="0.04266">
        <ele>33.1</ele>
        <time>2020-06-17T13:09:50Z</time>
      </trkpt>
      <trkpt lat="49.34513" lon="0.04274">
        <ele>32.6</ele>
        <time>2020-06-17T13:09:51Z</time>
      </trkpt>
      <trkpt lat="49.3452" lon="0.04281">
        <ele>32</ele>
        <time>2020-06-17T13:09:52Z</time>
      </trkpt>
      <trkpt lat="49.34526" lon="0.04288">
        <ele>31.5</ele>
        <time>2020-06-17T13:09:53Z</time>
      </trkpt>
      <trkpt lat="49.34533" lon="0.04297">
        <ele>30.8</ele>
        <time>2020-06-17T13:09:54Z</time>
      </trkpt>
      <trkpt lat="49.34539" lon="0.04306">
        <ele>30.2</ele>
        <time>2020-06-17T13:09:55Z</time>
      </trkpt>
      <trkpt lat="49.34546" lon="0.04316">
        <ele>29.6</ele>
        <time>2020-06-17T13:09:56Z</time>
      </trkpt>
      <trkpt lat="49.34554" lon="0.04326">
        <ele>28.9</ele>
        <time>2020-06-17T13:09:57Z</time>
      </trkpt>
      <trkpt lat="49.34563" lon="0.04339">
        <ele>28</ele>
        <time>2020-06-17T13:09:58Z</time>
      </trkpt>
      <trkpt lat="49.34571" lon="0.04351">
        <ele>27.2</ele>
        <time>2020-06-17T13:09:59Z</time>
      </trkpt>
      <trkpt lat="49.3458" lon="0.04364">
        <ele>26.2</ele>
        <time>2020-06-17T13:10:00Z</time>
      </trkpt>
      <trkpt lat="49.34588" lon="0.04375">
        <ele>25.5</ele>
        <time>2020-06-17T13:10:01Z</time>
      </trkpt>
      <trkpt lat="49.34595" lon="0.04385">
        <ele>24.8</ele>
        <time>2020-06-17T13:10:02Z</time>
      </trkpt>
      <trkpt lat="49.34604" lon="0.04394">
        <ele>24.1</ele>
        <time>2020-06-17T13:10:03Z</time>
      </trkpt>
      <trkpt lat="49.34612" lon="0.04402">
        <ele>23.5</ele>
        <time>2020-06-17T13:10:04Z</time>
      </trkpt>
      <trkpt lat="49.3462" lon="0.04408">
        <ele>22.9</ele>
        <time>2020-06-17T13:10:05Z</time>
      </trkpt>
      <trkpt lat="49.34628" lon="0.04418">
        <ele>22.2</ele>
        <time>2020-06-17T13:10:06Z</time>
      </trkpt>
      <trkpt lat="49.34636" lon="0.04424">
        <ele>21.6</ele>
        <time>2020-06-17T13:10:07Z</time>
      </trkpt>
      <trkpt lat="49.34645" lon="0.04433">
        <ele>20.8</ele>
        <time>2020-06-17T13:10:08Z</time>
      </trkpt>
      <trkpt lat="49.34652" lon="0.04438">
        <ele>20.3</ele>
        <time>2020-06-17T13:10:09Z</time>
      </trkpt>
      <trkpt lat="49.34659" lon="0.04446">
        <ele>19.6</ele>
        <time>2020-06-17T13:10:10Z</time>
      </trkpt>
      <trkpt lat="49.34666" lon="0.04454">
        <ele>18.9</ele>
        <time>2020-06-17T13:10:11Z</time>
      </trkpt>
      <trkpt lat="49.34672" lon="0.04461">
        <ele>18.3</ele>
        <time>2020-06-17T13:10:12Z</time>
      </trkpt>
      <trkpt lat="49.34678" lon="0.04469">
        <ele>17.8</ele>
        <time>2020-06-17T13:10:13Z</time>
      </trkpt>
      <trkpt lat="49.34684" lon="0.04479">
        <ele>17.1</ele>
        <time>2020-06-17T13:10:14Z</time>
      </trkpt>
      <trkpt lat="49.3469" lon="0.04489">
        <ele>16.5</ele>
        <time>2020-06-17T13:10:15Z</time>
      </trkpt>
      <trkpt lat="49.34694" lon="0.04498">
        <ele>16</ele>
        <time>2020-06-17T13:10:16Z</time>
      </trkpt>
      <trkpt lat="49.34698" lon="0.04507">
        <ele>15.4</ele>
        <time>2020-06-17T13:10:17Z</time>
      </trkpt>
      <trkpt lat="49.34702" lon="0.04518">
        <ele>14.8</ele>
        <time>2020-06-17T13:10:18Z</time>
      </trkpt>
      <trkpt lat="49.34706" lon="0.04531">
        <ele>14.1</ele>
        <time>2020-06-17T13:10:19Z</time>
      </trkpt>
      <trkpt lat="49.34708" lon="0.04544">
        <ele>13.5</ele>
        <time>2020-06-17T13:10:20Z</time>
      </trkpt>
      <trkpt lat="49.34711" lon="0.04556">
        <ele>12.8</ele>
        <time>2020-06-17T13:10:21Z</time>
      </trkpt>
      <trkpt lat="49.34713" lon="0.0457">
        <ele>12.6</ele>
        <time>2020-06-17T13:10:22Z</time>
      </trkpt>
      <trkpt lat="49.34717" lon="0.04583">
        <ele>12.3</ele>
        <time>2020-06-17T13:10:23Z</time>
      </trkpt>
      <trkpt lat="49.34721" lon="0.04595">
        <ele>11.6</ele>
        <time>2020-06-17T13:10:24Z</time>
      </trkpt>
      <trkpt lat="49.34726" lon="0.04608">
        <ele>11</ele>
        <time>2020-06-17T13:10:25Z</time>
      </trkpt>
      <trkpt lat="49.3473" lon="0.04622">
        <ele>10.3</ele>
        <time>2020-06-17T13:10:26Z</time>
      </trkpt>
      <trkpt lat="49.34736" lon="0.04635">
        <ele>9.8</ele>
        <time>2020-06-17T13:10:27Z</time>
      </trkpt>
      <trkpt lat="49.3474" lon="0.04648">
        <ele>9.3</ele>
        <time>2020-06-17T13:10:28Z</time>
      </trkpt>
      <trkpt lat="49.34744" lon="0.0466">
        <ele>8.9</ele>
        <time>2020-06-17T13:10:29Z</time>
      </trkpt>
      <trkpt lat="49.34748" lon="0.04673">
        <ele>8.5</ele>
        <time>2020-06-17T13:10:30Z</time>
      </trkpt>
      <trkpt lat="49.34751" lon="0.04687">
        <ele>8.2</ele>
        <time>2020-06-17T13:10:31Z</time>
      </trkpt>
      <trkpt lat="49.34755" lon="0.04698">
        <ele>8</ele>
        <time>2020-06-17T13:10:32Z</time>
      </trkpt>
      <trkpt lat="49.3476" lon="0.04712">
        <ele>7.9</ele>
        <time>2020-06-17T13:10:33Z</time>
      </trkpt>
      <trkpt lat="49.34764" lon="0.04723">
        <ele>7.8</ele>
        <time>2020-06-17T13:10:34Z</time>
      </trkpt>
      <trkpt lat="49.34769" lon="0.04733">
        <ele>7.7</ele>
        <time>2020-06-17T13:10:35Z</time>
      </trkpt>
      <trkpt lat="49.34774" lon="0.04744">
        <ele>7.7</ele>
        <time>2020-06-17T13:10:36Z</time>
      </trkpt>
      <trkpt lat="49.34778" lon="0.04753">
        <ele>7.6</ele>
        <time>2020-06-17T13:10:37Z</time>
      </trkpt>
      <trkpt lat="49.34782" lon="0.04761">
        <ele>7.6</ele>
        <time>2020-06-17T13:10:38Z</time>
      </trkpt>
      <trkpt lat="49.34786" lon="0.0477">
        <ele>7.6</ele>
        <time>2020-06-17T13:10:39Z</time>
      </trkpt>
      <trkpt lat="49.34791" lon="0.0478">
        <ele>7.5</ele>
        <time>2020-06-17T13:10:40Z</time>
      </trkpt>
      <trkpt lat="49.34795" lon="0.04789">
        <ele>7.4</ele>
        <time>2020-06-17T13:10:41Z</time>
      </trkpt>
      <trkpt lat="49.34798" lon="0.04798">
        <ele>7.4</ele>
        <time>2020-06-17T13:10:42Z</time>
      </trkpt>
      <trkpt lat="49.34802" lon="0.04807">
        <ele>7.4</ele>
        <time>2020-06-17T13:10:43Z</time>
      </trkpt>
      <trkpt lat="49.34805" lon="0.04814">
        <ele>7.4</ele>
        <time>2020-06-17T13:10:44Z</time>
      </trkpt>
      <trkpt lat="49.34808" lon="0.04823">
        <ele>7.4</ele>
        <time>2020-06-17T13:10:45Z</time>
      </trkpt>
      <trkpt lat="49.3481" lon="0.04831">
        <ele>7.4</ele>
        <time>2020-06-17T13:10:46Z</time>
      </trkpt>
      <trkpt lat="49.34813" lon="0.04839">
        <ele>7.3</ele>
        <time>2020-06-17T13:10:47Z</time>
      </trkpt>
      <trkpt lat="49.34816" lon="0.04847">
        <ele>7.3</ele>
        <time>2020-06-17T13:10:48Z</time>
      </trkpt>
      <trkpt lat="49.34819" lon="0.04857">
        <ele>7.3</ele>
        <time>2020-06-17T13:10:49Z</time>
      </trkpt>
      <trkpt lat="49.34822" lon="0.04866">
        <ele>7.3</ele>
        <time>2020-06-17T13:10:50Z</time>
      </trkpt>
      <trkpt lat="49.34825" lon="0.04876">
        <ele>7.4</ele>
        <time>2020-06-17T13:10:51Z</time>
      </trkpt>
      <trkpt lat="49.34829" lon="0.04885">
        <ele>7.4</ele>
        <time>2020-06-17T13:10:52Z</time>
      </trkpt>
      <trkpt lat="49.34832" lon="0.04895">
        <ele>7.5</ele>
        <time>2020-06-17T13:10:53Z</time>
      </trkpt>
      <trkpt lat="49.34836" lon="0.04905">
        <ele>7.5</ele>
        <time>2020-06-17T13:10:54Z</time>
      </trkpt>
      <trkpt lat="49.34839" lon="0.04916">
        <ele>7.5</ele>
        <time>2020-06-17T13:10:55Z</time>
      </trkpt>
      <trkpt lat="49.34842" lon="0.04927">
        <ele>7.5</ele>
        <time>2020-06-17T13:10:56Z</time>
      </trkpt>
      <trkpt lat="49.34845" lon="0.04936">
        <ele>7.5</ele>
        <time>2020-06-17T13:10:57Z</time>
      </trkpt>
      <trkpt lat="49.34847" lon="0.04946">
        <ele>7.5</ele>
        <time>2020-06-17T13:10:58Z</time>
      </trkpt>
      <trkpt lat="49.3485" lon="0.04955">
        <ele>7.5</ele>
        <time>2020-06-17T13:10:59Z</time>
      </trkpt>
      <trkpt lat="49.34854" lon="0.04965">
        <ele>7.5</ele>
        <time>2020-06-17T13:11:00Z</time>
      </trkpt>
      <trkpt lat="49.34857" lon="0.04973">
        <ele>7.5</ele>
        <time>2020-06-17T13:11:01Z</time>
      </trkpt>
      <trkpt lat="49.3486" lon="0.04981">
        <ele>7.6</ele>
        <time>2020-06-17T13:11:02Z</time>
      </trkpt>
      <trkpt lat="49.34862" lon="0.04991">
        <ele>7.6</ele>
        <time>2020-06-17T13:11:03Z</time>
      </trkpt>
      <trkpt lat="49.34864" lon="0.04998">
        <ele>7.6</ele>
        <time>2020-06-17T13:11:04Z</time>
      </trkpt>
      <trkpt lat="49.34865" lon="0.05006">
        <ele>7.6</ele>
        <time>2020-06-17T13:11:05Z</time>
      </trkpt>
      <trkpt lat="49.34865" lon="0.05018">
        <ele>7.6</ele>
        <time>2020-06-17T13:11:06Z</time>
      </trkpt>
      <trkpt lat="49.34868" lon="0.05027">
        <ele>7.6</ele>
        <time>2020-06-17T13:11:07Z</time>
      </trkpt>
      <trkpt lat="49.34871" lon="0.05035">
        <ele>7.7</ele>
        <time>2020-06-17T13:11:08Z</time>
      </trkpt>
      <trkpt lat="49.34872" lon="0.05048">
        <ele>7.7</ele>
        <time>2020-06-17T13:11:09Z</time>
      </trkpt>
      <trkpt lat="49.34875" lon="0.05058">
        <ele>7.6</ele>
        <time>2020-06-17T13:11:10Z</time>
      </trkpt>
      <trkpt lat="49.34877" lon="0.05066">
        <ele>7.6</ele>
        <time>2020-06-17T13:11:11Z</time>
      </trkpt>
      <trkpt lat="49.3488" lon="0.05073">
        <ele>7.6</ele>
        <time>2020-06-17T13:11:12Z</time>
      </trkpt>
      <trkpt lat="49.34883" lon="0.05082">
        <ele>7.6</ele>
        <time>2020-06-17T13:11:13Z</time>
      </trkpt>
      <trkpt lat="49.34886" lon="0.05089">
        <ele>7.6</ele>
        <time>2020-06-17T13:11:14Z</time>
      </trkpt>
      <trkpt lat="49.34889" lon="0.05095">
        <ele>7.5</ele>
        <time>2020-06-17T13:11:15Z</time>
      </trkpt>
      <trkpt lat="49.34892" lon="0.05104">
        <ele>7.4</ele>
        <time>2020-06-17T13:11:16Z</time>
      </trkpt>
      <trkpt lat="49.34894" lon="0.0511">
        <ele>7.3</ele>
        <time>2020-06-17T13:11:17Z</time>
      </trkpt>
      <trkpt lat="49.34895" lon="0.05117">
        <ele>7.3</ele>
        <time>2020-06-17T13:11:18Z</time>
      </trkpt>
      <trkpt lat="49.34898" lon="0.05125">
        <ele>7.2</ele>
        <time>2020-06-17T13:11:19Z</time>
      </trkpt>
      <trkpt lat="49.349" lon="0.05134">
        <ele>7.1</ele>
        <time>2020-06-17T13:11:20Z</time>
      </trkpt>
      <trkpt lat="49.34903" lon="0.05142">
        <ele>7</ele>
        <time>2020-06-17T13:11:21Z</time>
      </trkpt>
      <trkpt lat="49.34905" lon="0.05151">
        <ele>7</ele>
        <time>2020-06-17T13:11:22Z</time>
      </trkpt>
      <trkpt lat="49.34908" lon="0.0516">
        <ele>6.9</ele>
        <time>2020-06-17T13:11:23Z</time>
      </trkpt>
      <trkpt lat="49.3491" lon="0.0517">
        <ele>6.8</ele>
        <time>2020-06-17T13:11:24Z</time>
      </trkpt>
      <trkpt lat="49.34912" lon="0.05179">
        <ele>6.8</ele>
        <time>2020-06-17T13:11:25Z</time>
      </trkpt>
      <trkpt lat="49.34915" lon="0.05188">
        <ele>6.8</ele>
        <time>2020-06-17T13:11:26Z</time>
      </trkpt>
      <trkpt lat="49.34918" lon="0.05197">
        <ele>6.7</ele>
        <time>2020-06-17T13:11:27Z</time>
      </trkpt>
      <trkpt lat="49.34921" lon="0.05204">
        <ele>6.7</ele>
        <time>2020-06-17T13:11:28Z</time>
      </trkpt>
      <trkpt lat="49.34925" lon="0.05212">
        <ele>6.7</ele>
        <time>2020-06-17T13:11:29Z</time>
      </trkpt>
      <trkpt lat="49.34928" lon="0.0522">
        <ele>6.7</ele>
        <time>2020-06-17T13:11:30Z</time>
      </trkpt>
      <trkpt lat="49.34931" lon="0.05227">
        <ele>6.6</ele>
        <time>2020-06-17T13:11:31Z</time>
      </trkpt>
      <trkpt lat="49.34935" lon="0.05235">
        <ele>6.6</ele>
        <time>2020-06-17T13:11:32Z</time>
      </trkpt>
      <trkpt lat="49.34938" lon="0.05242">
        <ele>6.6</ele>
        <time>2020-06-17T13:11:33Z</time>
      </trkpt>
      <trkpt lat="49.34942" lon="0.05249">
        <ele>6.6</ele>
        <time>2020-06-17T13:11:34Z</time>
      </trkpt>
      <trkpt lat="49.34945" lon="0.05256">
        <ele>6.6</ele>
        <time>2020-06-17T13:11:35Z</time>
      </trkpt>
      <trkpt lat="49.3495" lon="0.05265">
        <ele>6.6</ele>
        <time>2020-06-17T13:11:36Z</time>
      </trkpt>
      <trkpt lat="49.34953" lon="0.05273">
        <ele>6.6</ele>
        <time>2020-06-17T13:11:37Z</time>
      </trkpt>
      <trkpt lat="49.34956" lon="0.05282">
        <ele>6.6</ele>
        <time>2020-06-17T13:11:38Z</time>
      </trkpt>
      <trkpt lat="49.34959" lon="0.0529">
        <ele>6.6</ele>
        <time>2020-06-17T13:11:39Z</time>
      </trkpt>
      <trkpt lat="49.34962" lon="0.05298">
        <ele>6.6</ele>
        <time>2020-06-17T13:11:40Z</time>
      </trkpt>
      <trkpt lat="49.34965" lon="0.05306">
        <ele>6.6</ele>
        <time>2020-06-17T13:11:41Z</time>
      </trkpt>
      <trkpt lat="49.34967" lon="0.05314">
        <ele>6.6</ele>
        <time>2020-06-17T13:11:42Z</time>
      </trkpt>
      <trkpt lat="49.3497" lon="0.05322">
        <ele>6.6</ele>
        <time>2020-06-17T13:11:43Z</time>
      </trkpt>
      <trkpt lat="49.34974" lon="0.0533">
        <ele>6.6</ele>
        <time>2020-06-17T13:11:44Z</time>
      </trkpt>
      <trkpt lat="49.34977" lon="0.05338">
        <ele>6.6</ele>
        <time>2020-06-17T13:11:45Z</time>
      </trkpt>
      <trkpt lat="49.34982" lon="0.05347">
        <ele>6.6</ele>
        <time>2020-06-17T13:11:46Z</time>
      </trkpt>
      <trkpt lat="49.34986" lon="0.05357">
        <ele>6.6</ele>
        <time>2020-06-17T13:11:47Z</time>
      </trkpt>
      <trkpt lat="49.3499" lon="0.05366">
        <ele>6.7</ele>
        <time>2020-06-17T13:11:48Z</time>
      </trkpt>
      <trkpt lat="49.34993" lon="0.05374">
        <ele>6.7</ele>
        <time>2020-06-17T13:11:49Z</time>
      </trkpt>
      <trkpt lat="49.34996" lon="0.05382">
        <ele>6.8</ele>
        <time>2020-06-17T13:11:50Z</time>
      </trkpt>
      <trkpt lat="49.35001" lon="0.05392">
        <ele>6.8</ele>
        <time>2020-06-17T13:11:51Z</time>
      </trkpt>
      <trkpt lat="49.35004" lon="0.05402">
        <ele>6.9</ele>
        <time>2020-06-17T13:11:52Z</time>
      </trkpt>
      <trkpt lat="49.35008" lon="0.05411">
        <ele>7</ele>
        <time>2020-06-17T13:11:53Z</time>
      </trkpt>
      <trkpt lat="49.35011" lon="0.05421">
        <ele>7.1</ele>
        <time>2020-06-17T13:11:54Z</time>
      </trkpt>
      <trkpt lat="49.35014" lon="0.05429">
        <ele>7.1</ele>
        <time>2020-06-17T13:11:55Z</time>
      </trkpt>
      <trkpt lat="49.35018" lon="0.05437">
        <ele>7.2</ele>
        <time>2020-06-17T13:11:56Z</time>
      </trkpt>
      <trkpt lat="49.35021" lon="0.05445">
        <ele>6.9</ele>
        <time>2020-06-17T13:11:57Z</time>
      </trkpt>
      <trkpt lat="49.35024" lon="0.05454">
        <ele>6.8</ele>
        <time>2020-06-17T13:11:58Z</time>
      </trkpt>
      <trkpt lat="49.35028" lon="0.05462">
        <ele>6.7</ele>
        <time>2020-06-17T13:11:59Z</time>
      </trkpt>
      <trkpt lat="49.35031" lon="0.05472">
        <ele>6.5</ele>
        <time>2020-06-17T13:12:00Z</time>
      </trkpt>
      <trkpt lat="49.35035" lon="0.05481">
        <ele>6.5</ele>
        <time>2020-06-17T13:12:01Z</time>
      </trkpt>
      <trkpt lat="49.35037" lon="0.0549">
        <ele>6.5</ele>
        <time>2020-06-17T13:12:02Z</time>
      </trkpt>
      <trkpt lat="49.35041" lon="0.05499">
        <ele>6.5</ele>
        <time>2020-06-17T13:12:03Z</time>
      </trkpt>
      <trkpt lat="49.35046" lon="0.05507">
        <ele>6.4</ele>
        <time>2020-06-17T13:12:04Z</time>
      </trkpt>
      <trkpt lat="49.35051" lon="0.05515">
        <ele>6.4</ele>
        <time>2020-06-17T13:12:05Z</time>
      </trkpt>
      <trkpt lat="49.35056" lon="0.05524">
        <ele>6.4</ele>
        <time>2020-06-17T13:12:06Z</time>
      </trkpt>
      <trkpt lat="49.3506" lon="0.05531">
        <ele>6.4</ele>
        <time>2020-06-17T13:12:07Z</time>
      </trkpt>
      <trkpt lat="49.35064" lon="0.05541">
        <ele>6.4</ele>
        <time>2020-06-17T13:12:08Z</time>
      </trkpt>
      <trkpt lat="49.35066" lon="0.0555">
        <ele>6.3</ele>
        <time>2020-06-17T13:12:09Z</time>
      </trkpt>
      <trkpt lat="49.35068" lon="0.05558">
        <ele>6.3</ele>
        <time>2020-06-17T13:12:10Z</time>
      </trkpt>
      <trkpt lat="49.35071" lon="0.05568">
        <ele>6.3</ele>
        <time>2020-06-17T13:12:11Z</time>
      </trkpt>
      <trkpt lat="49.35074" lon="0.05577">
        <ele>6.3</ele>
        <time>2020-06-17T13:12:12Z</time>
      </trkpt>
      <trkpt lat="49.35077" lon="0.05585">
        <ele>6.3</ele>
        <time>2020-06-17T13:12:13Z</time>
      </trkpt>
      <trkpt lat="49.35081" lon="0.05594">
        <ele>6.2</ele>
        <time>2020-06-17T13:12:14Z</time>
      </trkpt>
      <trkpt lat="49.35084" lon="0.05603">
        <ele>6.2</ele>
        <time>2020-06-17T13:12:15Z</time>
      </trkpt>
      <trkpt lat="49.35086" lon="0.05611">
        <ele>6.2</ele>
        <time>2020-06-17T13:12:16Z</time>
      </trkpt>
      <trkpt lat="49.35089" lon="0.0562">
        <ele>6.2</ele>
        <time>2020-06-17T13:12:17Z</time>
      </trkpt>
      <trkpt lat="49.35091" lon="0.05628">
        <ele>6.2</ele>
        <time>2020-06-17T13:12:18Z</time>
      </trkpt>
      <trkpt lat="49.35093" lon="0.05636">
        <ele>6.1</ele>
        <time>2020-06-17T13:12:19Z</time>
      </trkpt>
      <trkpt lat="49.35096" lon="0.05644">
        <ele>6.1</ele>
        <time>2020-06-17T13:12:20Z</time>
      </trkpt>
      <trkpt lat="49.35099" lon="0.05653">
        <ele>6.1</ele>
        <time>2020-06-17T13:12:21Z</time>
      </trkpt>
      <trkpt lat="49.35103" lon="0.05661">
        <ele>6.1</ele>
        <time>2020-06-17T13:12:22Z</time>
      </trkpt>
      <trkpt lat="49.35106" lon="0.05669">
        <ele>6</ele>
        <time>2020-06-17T13:12:23Z</time>
      </trkpt>
      <trkpt lat="49.35108" lon="0.05676">
        <ele>6</ele>
        <time>2020-06-17T13:12:24Z</time>
      </trkpt>
      <trkpt lat="49.3511" lon="0.05684">
        <ele>6</ele>
        <time>2020-06-17T13:12:25Z</time>
      </trkpt>
      <trkpt lat="49.35113" lon="0.0569">
        <ele>6</ele>
        <time>2020-06-17T13:12:26Z</time>
      </trkpt>
      <trkpt lat="49.35116" lon="0.05699">
        <ele>6</ele>
        <time>2020-06-17T13:12:27Z</time>
      </trkpt>
      <trkpt lat="49.35119" lon="0.05708">
        <ele>6</ele>
        <time>2020-06-17T13:12:28Z</time>
      </trkpt>
      <trkpt lat="49.35121" lon="0.05717">
        <ele>6</ele>
        <time>2020-06-17T13:12:29Z</time>
      </trkpt>
      <trkpt lat="49.35124" lon="0.05724">
        <ele>5.9</ele>
        <time>2020-06-17T13:12:30Z</time>
      </trkpt>
      <trkpt lat="49.35127" lon="0.05732">
        <ele>5.8</ele>
        <time>2020-06-17T13:12:31Z</time>
      </trkpt>
      <trkpt lat="49.3513" lon="0.0574">
        <ele>5.8</ele>
        <time>2020-06-17T13:12:32Z</time>
      </trkpt>
      <trkpt lat="49.35133" lon="0.05749">
        <ele>5.7</ele>
        <time>2020-06-17T13:12:33Z</time>
      </trkpt>
      <trkpt lat="49.35136" lon="0.05758">
        <ele>5.7</ele>
        <time>2020-06-17T13:12:34Z</time>
      </trkpt>
      <trkpt lat="49.3514" lon="0.05766">
        <ele>5.7</ele>
        <time>2020-06-17T13:12:35Z</time>
      </trkpt>
      <trkpt lat="49.35143" lon="0.05774">
        <ele>5.6</ele>
        <time>2020-06-17T13:12:36Z</time>
      </trkpt>
      <trkpt lat="49.35147" lon="0.05783">
        <ele>5.6</ele>
        <time>2020-06-17T13:12:37Z</time>
      </trkpt>
      <trkpt lat="49.35151" lon="0.05791">
        <ele>5.6</ele>
        <time>2020-06-17T13:12:38Z</time>
      </trkpt>
      <trkpt lat="49.35154" lon="0.058">
        <ele>5.6</ele>
        <time>2020-06-17T13:12:39Z</time>
      </trkpt>
      <trkpt lat="49.35158" lon="0.05809">
        <ele>5.6</ele>
        <time>2020-06-17T13:12:40Z</time>
      </trkpt>
      <trkpt lat="49.35162" lon="0.05818">
        <ele>5.6</ele>
        <time>2020-06-17T13:12:41Z</time>
      </trkpt>
      <trkpt lat="49.35165" lon="0.05827">
        <ele>5.5</ele>
        <time>2020-06-17T13:12:42Z</time>
      </trkpt>
      <trkpt lat="49.35168" lon="0.05835">
        <ele>5.5</ele>
        <time>2020-06-17T13:12:43Z</time>
      </trkpt>
      <trkpt lat="49.3517" lon="0.05843">
        <ele>5.5</ele>
        <time>2020-06-17T13:12:44Z</time>
      </trkpt>
      <trkpt lat="49.35172" lon="0.05852">
        <ele>5.5</ele>
        <time>2020-06-17T13:12:45Z</time>
      </trkpt>
      <trkpt lat="49.35174" lon="0.0586">
        <ele>5.5</ele>
        <time>2020-06-17T13:12:46Z</time>
      </trkpt>
      <trkpt lat="49.35175" lon="0.05868">
        <ele>5.5</ele>
        <time>2020-06-17T13:12:47Z</time>
      </trkpt>
      <trkpt lat="49.35178" lon="0.05877">
        <ele>5.5</ele>
        <time>2020-06-17T13:12:48Z</time>
      </trkpt>
      <trkpt lat="49.3518" lon="0.05886">
        <ele>5.4</ele>
        <time>2020-06-17T13:12:49Z</time>
      </trkpt>
      <trkpt lat="49.35183" lon="0.05896">
        <ele>5.4</ele>
        <time>2020-06-17T13:12:50Z</time>
      </trkpt>
      <trkpt lat="49.35185" lon="0.05905">
        <ele>5.4</ele>
        <time>2020-06-17T13:12:51Z</time>
      </trkpt>
      <trkpt lat="49.35188" lon="0.05914">
        <ele>5.4</ele>
        <time>2020-06-17T13:12:52Z</time>
      </trkpt>
      <trkpt lat="49.3519" lon="0.05922">
        <ele>5.5</ele>
        <time>2020-06-17T13:12:53Z</time>
      </trkpt>
      <trkpt lat="49.35194" lon="0.05931">
        <ele>5.5</ele>
        <time>2020-06-17T13:12:54Z</time>
      </trkpt>
      <trkpt lat="49.35197" lon="0.0594">
        <ele>5.4</ele>
        <time>2020-06-17T13:12:55Z</time>
      </trkpt>
      <trkpt lat="49.35199" lon="0.05948">
        <ele>5.4</ele>
        <time>2020-06-17T13:12:56Z</time>
      </trkpt>
      <trkpt lat="49.35202" lon="0.05959">
        <ele>5.4</ele>
        <time>2020-06-17T13:12:57Z</time>
      </trkpt>
      <trkpt lat="49.35205" lon="0.05967">
        <ele>5.4</ele>
        <time>2020-06-17T13:12:58Z</time>
      </trkpt>
      <trkpt lat="49.35208" lon="0.05977">
        <ele>5.4</ele>
        <time>2020-06-17T13:12:59Z</time>
      </trkpt>
      <trkpt lat="49.35212" lon="0.05984">
        <ele>5.4</ele>
        <time>2020-06-17T13:13:00Z</time>
      </trkpt>
      <trkpt lat="49.35216" lon="0.05993">
        <ele>5.4</ele>
        <time>2020-06-17T13:13:01Z</time>
      </trkpt>
      <trkpt lat="49.35219" lon="0.06002">
        <ele>5.4</ele>
        <time>2020-06-17T13:13:02Z</time>
      </trkpt>
      <trkpt lat="49.35222" lon="0.06011">
        <ele>5.4</ele>
        <time>2020-06-17T13:13:03Z</time>
      </trkpt>
      <trkpt lat="49.35226" lon="0.06019">
        <ele>5.4</ele>
        <time>2020-06-17T13:13:04Z</time>
      </trkpt>
      <trkpt lat="49.3523" lon="0.06028">
        <ele>5.4</ele>
        <time>2020-06-17T13:13:05Z</time>
      </trkpt>
      <trkpt lat="49.35233" lon="0.06037">
        <ele>5.4</ele>
        <time>2020-06-17T13:13:06Z</time>
      </trkpt>
      <trkpt lat="49.35236" lon="0.06046">
        <ele>5.4</ele>
        <time>2020-06-17T13:13:07Z</time>
      </trkpt>
      <trkpt lat="49.3524" lon="0.06055">
        <ele>5.5</ele>
        <time>2020-06-17T13:13:08Z</time>
      </trkpt>
      <trkpt lat="49.35244" lon="0.06065">
        <ele>5.5</ele>
        <time>2020-06-17T13:13:09Z</time>
      </trkpt>
      <trkpt lat="49.35247" lon="0.06074">
        <ele>5.6</ele>
        <time>2020-06-17T13:13:10Z</time>
      </trkpt>
      <trkpt lat="49.35251" lon="0.06081">
        <ele>5.6</ele>
        <time>2020-06-17T13:13:11Z</time>
      </trkpt>
      <trkpt lat="49.35254" lon="0.06089">
        <ele>5.5</ele>
        <time>2020-06-17T13:13:12Z</time>
      </trkpt>
      <trkpt lat="49.35257" lon="0.06097">
        <ele>5.5</ele>
        <time>2020-06-17T13:13:13Z</time>
      </trkpt>
      <trkpt lat="49.3526" lon="0.06104">
        <ele>5.4</ele>
        <time>2020-06-17T13:13:14Z</time>
      </trkpt>
      <trkpt lat="49.35263" lon="0.06111">
        <ele>5.3</ele>
        <time>2020-06-17T13:13:15Z</time>
      </trkpt>
      <trkpt lat="49.35267" lon="0.06118">
        <ele>5.3</ele>
        <time>2020-06-17T13:13:16Z</time>
      </trkpt>
      <trkpt lat="49.3527" lon="0.06126">
        <ele>5.3</ele>
        <time>2020-06-17T13:13:17Z</time>
      </trkpt>
      <trkpt lat="49.35273" lon="0.06134">
        <ele>5.3</ele>
        <time>2020-06-17T13:13:18Z</time>
      </trkpt>
      <trkpt lat="49.35276" lon="0.06142">
        <ele>5.3</ele>
        <time>2020-06-17T13:13:19Z</time>
      </trkpt>
      <trkpt lat="49.35279" lon="0.0615">
        <ele>5.3</ele>
        <time>2020-06-17T13:13:20Z</time>
      </trkpt>
      <trkpt lat="49.35282" lon="0.06158">
        <ele>5.3</ele>
        <time>2020-06-17T13:13:21Z</time>
      </trkpt>
      <trkpt lat="49.35285" lon="0.06167">
        <ele>5.3</ele>
        <time>2020-06-17T13:13:22Z</time>
      </trkpt>
      <trkpt lat="49.35289" lon="0.06176">
        <ele>5.3</ele>
        <time>2020-06-17T13:13:23Z</time>
      </trkpt>
      <trkpt lat="49.35291" lon="0.06184">
        <ele>5.3</ele>
        <time>2020-06-17T13:13:24Z</time>
      </trkpt>
      <trkpt lat="49.35293" lon="0.06193">
        <ele>5.3</ele>
        <time>2020-06-17T13:13:25Z</time>
      </trkpt>
      <trkpt lat="49.35295" lon="0.06203">
        <ele>5.3</ele>
        <time>2020-06-17T13:13:26Z</time>
      </trkpt>
      <trkpt lat="49.35298" lon="0.06211">
        <ele>5.3</ele>
        <time>2020-06-17T13:13:27Z</time>
      </trkpt>
      <trkpt lat="49.35301" lon="0.0622">
        <ele>5.2</ele>
        <time>2020-06-17T13:13:28Z</time>
      </trkpt>
      <trkpt lat="49.35304" lon="0.0623">
        <ele>5.2</ele>
        <time>2020-06-17T13:13:29Z</time>
      </trkpt>
      <trkpt lat="49.35307" lon="0.0624">
        <ele>5.2</ele>
        <time>2020-06-17T13:13:30Z</time>
      </trkpt>
      <trkpt lat="49.3531" lon="0.06248">
        <ele>5.2</ele>
        <time>2020-06-17T13:13:31Z</time>
      </trkpt>
      <trkpt lat="49.35313" lon="0.06257">
        <ele>5.2</ele>
        <time>2020-06-17T13:13:32Z</time>
      </trkpt>
      <trkpt lat="49.35315" lon="0.06267">
        <ele>5.2</ele>
        <time>2020-06-17T13:13:33Z</time>
      </trkpt>
      <trkpt lat="49.35318" lon="0.06275">
        <ele>5.2</ele>
        <time>2020-06-17T13:13:34Z</time>
      </trkpt>
      <trkpt lat="49.35321" lon="0.06285">
        <ele>5.2</ele>
        <time>2020-06-17T13:13:35Z</time>
      </trkpt>
      <trkpt lat="49.35323" lon="0.06294">
        <ele>5.2</ele>
        <time>2020-06-17T13:13:36Z</time>
      </trkpt>
      <trkpt lat="49.35325" lon="0.06302">
        <ele>5.2</ele>
        <time>2020-06-17T13:13:37Z</time>
      </trkpt>
      <trkpt lat="49.35328" lon="0.0631">
        <ele>5.2</ele>
        <time>2020-06-17T13:13:38Z</time>
      </trkpt>
      <trkpt lat="49.35331" lon="0.0632">
        <ele>5.2</ele>
        <time>2020-06-17T13:13:39Z</time>
      </trkpt>
      <trkpt lat="49.35334" lon="0.0633">
        <ele>5.2</ele>
        <time>2020-06-17T13:13:40Z</time>
      </trkpt>
      <trkpt lat="49.35337" lon="0.06339">
        <ele>5.2</ele>
        <time>2020-06-17T13:13:41Z</time>
      </trkpt>
      <trkpt lat="49.3534" lon="0.06348">
        <ele>5.2</ele>
        <time>2020-06-17T13:13:42Z</time>
      </trkpt>
      <trkpt lat="49.35344" lon="0.06357">
        <ele>5.2</ele>
        <time>2020-06-17T13:13:43Z</time>
      </trkpt>
      <trkpt lat="49.35348" lon="0.06364">
        <ele>5.2</ele>
        <time>2020-06-17T13:13:44Z</time>
      </trkpt>
      <trkpt lat="49.35351" lon="0.06372">
        <ele>5.2</ele>
        <time>2020-06-17T13:13:45Z</time>
      </trkpt>
      <trkpt lat="49.35354" lon="0.06379">
        <ele>5.2</ele>
        <time>2020-06-17T13:13:46Z</time>
      </trkpt>
      <trkpt lat="49.35358" lon="0.06387">
        <ele>5.2</ele>
        <time>2020-06-17T13:13:47Z</time>
      </trkpt>
      <trkpt lat="49.3536" lon="0.06394">
        <ele>5.3</ele>
        <time>2020-06-17T13:13:48Z</time>
      </trkpt>
      <trkpt lat="49.35362" lon="0.064">
        <ele>5.4</ele>
        <time>2020-06-17T13:13:49Z</time>
      </trkpt>
      <trkpt lat="49.35365" lon="0.06408">
        <ele>5.6</ele>
        <time>2020-06-17T13:13:50Z</time>
      </trkpt>
      <trkpt lat="49.35368" lon="0.06415">
        <ele>5.7</ele>
        <time>2020-06-17T13:13:51Z</time>
      </trkpt>
      <trkpt lat="49.3537" lon="0.06421">
        <ele>5.8</ele>
        <time>2020-06-17T13:13:52Z</time>
      </trkpt>
      <trkpt lat="49.35373" lon="0.06427">
        <ele>5.8</ele>
        <time>2020-06-17T13:13:53Z</time>
      </trkpt>
      <trkpt lat="49.35375" lon="0.0643">
        <ele>5.9</ele>
        <time>2020-06-17T13:13:54Z</time>
      </trkpt>
      <trkpt lat="49.35377" lon="0.06434">
        <ele>5.9</ele>
        <time>2020-06-17T13:13:55Z</time>
      </trkpt>
      <trkpt lat="49.35379" lon="0.06439">
        <ele>6</ele>
        <time>2020-06-17T13:13:56Z</time>
      </trkpt>
      <trkpt lat="49.3538" lon="0.06445">
        <ele>6</ele>
        <time>2020-06-17T13:13:57Z</time>
      </trkpt>
      <trkpt lat="49.35382" lon="0.06451">
        <ele>6.1</ele>
        <time>2020-06-17T13:13:58Z</time>
      </trkpt>
      <trkpt lat="49.35383" lon="0.06453">
        <ele>6.1</ele>
        <time>2020-06-17T13:13:59Z</time>
      </trkpt>
      <trkpt lat="49.35385" lon="0.06457">
        <ele>6.2</ele>
        <time>2020-06-17T13:14:00Z</time>
      </trkpt>
      <trkpt lat="49.35386" lon="0.06458">
        <ele>6.2</ele>
        <time>2020-06-17T13:14:01Z</time>
      </trkpt>
      <trkpt lat="49.35389" lon="0.06463">
        <ele>6.2</ele>
        <time>2020-06-17T13:14:02Z</time>
      </trkpt>
      <trkpt lat="49.35391" lon="0.06467">
        <ele>6.3</ele>
        <time>2020-06-17T13:14:03Z</time>
      </trkpt>
      <trkpt lat="49.35393" lon="0.06473">
        <ele>6.3</ele>
        <time>2020-06-17T13:14:04Z</time>
      </trkpt>
      <trkpt lat="49.35393" lon="0.06476">
        <ele>6.3</ele>
        <time>2020-06-17T13:14:05Z</time>
      </trkpt>
      <trkpt lat="49.35393" lon="0.0648">
        <ele>6.4</ele>
        <time>2020-06-17T13:14:06Z</time>
      </trkpt>
      <trkpt lat="49.35394" lon="0.06485">
        <ele>6.4</ele>
        <time>2020-06-17T13:14:07Z</time>
      </trkpt>
      <trkpt lat="49.35394" lon="0.06486">
        <ele>6.4</ele>
        <time>2020-06-17T13:14:08Z</time>
      </trkpt>
      <trkpt lat="49.35395" lon="0.06487">
        <ele>6.4</ele>
        <time>2020-06-17T13:14:09Z</time>
      </trkpt>
      <trkpt lat="49.35396" lon="0.06488">
        <ele>6.5</ele>
        <time>2020-06-17T13:14:10Z</time>
      </trkpt>
      <trkpt lat="49.35396" lon="0.06488">
        <ele>6.5</ele>
        <time>2020-06-17T13:14:11Z</time>
      </trkpt>
      <trkpt lat="49.35397" lon="0.0649">
        <ele>6.5</ele>
        <time>2020-06-17T13:14:12Z</time>
      </trkpt>
      <trkpt lat="49.35396" lon="0.06491">
        <ele>6.5</ele>
        <time>2020-06-17T13:14:13Z</time>
      </trkpt>
      <trkpt lat="49.35396" lon="0.06493">
        <ele>6.5</ele>
        <time>2020-06-17T13:14:14Z</time>
      </trkpt>
      <trkpt lat="49.35396" lon="0.06494">
        <ele>6.5</ele>
        <time>2020-06-17T13:14:15Z</time>
      </trkpt>
      <trkpt lat="49.35396" lon="0.06495">
        <ele>6.5</ele>
        <time>2020-06-17T13:14:16Z</time>
      </trkpt>
      <trkpt lat="49.35396" lon="0.06496">
        <ele>6.5</ele>
        <time>2020-06-17T13:14:17Z</time>
      </trkpt>
      <trkpt lat="49.35396" lon="0.06498">
        <ele>6.5</ele>
        <time>2020-06-17T13:14:18Z</time>
      </trkpt>
      <trkpt lat="49.35396" lon="0.06499">
        <ele>6.5</ele>
        <time>2020-06-17T13:14:19Z</time>
      </trkpt>
      <trkpt lat="49.35396" lon="0.065">
        <ele>6.6</ele>
        <time>2020-06-17T13:14:20Z</time>
      </trkpt>
      <trkpt lat="49.35395" lon="0.06502">
        <ele>6.6</ele>
        <time>2020-06-17T13:14:21Z</time>
      </trkpt>
      <trkpt lat="49.35395" lon="0.06503">
        <ele>6.6</ele>
        <time>2020-06-17T13:14:22Z</time>
      </trkpt>
      <trkpt lat="49.35395" lon="0.06504">
        <ele>6.6</ele>
        <time>2020-06-17T13:16:19Z</time>
      </trkpt>
      <trkpt lat="49.35395" lon="0.06506">
        <ele>6.6</ele>
        <time>2020-06-17T13:16:20Z</time>
      </trkpt>
      <trkpt lat="49.35398" lon="0.0651">
        <ele>6.6</ele>
        <time>2020-06-17T13:16:21Z</time>
      </trkpt>
      <trkpt lat="49.35398" lon="0.06511">
        <ele>6.7</ele>
        <time>2020-06-17T13:16:22Z</time>
      </trkpt>
      <trkpt lat="49.354" lon="0.06515">
        <ele>6.7</ele>
        <time>2020-06-17T13:16:23Z</time>
      </trkpt>
      <trkpt lat="49.35401" lon="0.06517">
        <ele>6.7</ele>
        <time>2020-06-17T13:16:24Z</time>
      </trkpt>
      <trkpt lat="49.35401" lon="0.06518">
        <ele>6.7</ele>
        <time>2020-06-17T13:16:25Z</time>
      </trkpt>
      <trkpt lat="49.35402" lon="0.0652">
        <ele>6.7</ele>
        <time>2020-06-17T13:16:26Z</time>
      </trkpt>
      <trkpt lat="49.35402" lon="0.06522">
        <ele>6.8</ele>
        <time>2020-06-17T13:16:27Z</time>
      </trkpt>
      <trkpt lat="49.35403" lon="0.06523">
        <ele>6.8</ele>
        <time>2020-06-17T13:16:28Z</time>
      </trkpt>
      <trkpt lat="49.35404" lon="0.06526">
        <ele>6.8</ele>
        <time>2020-06-17T13:16:29Z</time>
      </trkpt>
      <trkpt lat="49.35406" lon="0.0653">
        <ele>6.9</ele>
        <time>2020-06-17T13:16:30Z</time>
      </trkpt>
      <trkpt lat="49.35406" lon="0.06532">
        <ele>6.9</ele>
        <time>2020-06-17T13:16:31Z</time>
      </trkpt>
      <trkpt lat="49.35408" lon="0.06535">
        <ele>6.9</ele>
        <time>2020-06-17T13:16:32Z</time>
      </trkpt>
      <trkpt lat="49.35411" lon="0.06541">
        <ele>7</ele>
        <time>2020-06-17T13:16:33Z</time>
      </trkpt>
      <trkpt lat="49.35414" lon="0.06546">
        <ele>7.1</ele>
        <time>2020-06-17T13:16:34Z</time>
      </trkpt>
      <trkpt lat="49.35416" lon="0.06552">
        <ele>7.2</ele>
        <time>2020-06-17T13:16:35Z</time>
      </trkpt>
      <trkpt lat="49.35419" lon="0.06558">
        <ele>7.2</ele>
        <time>2020-06-17T13:16:36Z</time>
      </trkpt>
      <trkpt lat="49.35421" lon="0.06563">
        <ele>7.2</ele>
        <time>2020-06-17T13:16:37Z</time>
      </trkpt>
      <trkpt lat="49.35424" lon="0.06569">
        <ele>7.1</ele>
        <time>2020-06-17T13:16:38Z</time>
      </trkpt>
      <trkpt lat="49.35426" lon="0.06575">
        <ele>7</ele>
        <time>2020-06-17T13:16:39Z</time>
      </trkpt>
      <trkpt lat="49.35429" lon="0.06581">
        <ele>6.9</ele>
        <time>2020-06-17T13:16:40Z</time>
      </trkpt>
      <trkpt lat="49.35431" lon="0.06588">
        <ele>6.8</ele>
        <time>2020-06-17T13:16:41Z</time>
      </trkpt>
      <trkpt lat="49.35434" lon="0.06594">
        <ele>6.7</ele>
        <time>2020-06-17T13:16:42Z</time>
      </trkpt>
      <trkpt lat="49.35436" lon="0.066">
        <ele>6.6</ele>
        <time>2020-06-17T13:16:43Z</time>
      </trkpt>
      <trkpt lat="49.35439" lon="0.06606">
        <ele>6.5</ele>
        <time>2020-06-17T13:16:44Z</time>
      </trkpt>
      <trkpt lat="49.35441" lon="0.06613">
        <ele>6.4</ele>
        <time>2020-06-17T13:16:45Z</time>
      </trkpt>
      <trkpt lat="49.35443" lon="0.0662">
        <ele>6.3</ele>
        <time>2020-06-17T13:16:46Z</time>
      </trkpt>
      <trkpt lat="49.35446" lon="0.06626">
        <ele>6.2</ele>
        <time>2020-06-17T13:16:47Z</time>
      </trkpt>
      <trkpt lat="49.35449" lon="0.06633">
        <ele>6.1</ele>
        <time>2020-06-17T13:16:48Z</time>
      </trkpt>
      <trkpt lat="49.35452" lon="0.06639">
        <ele>6</ele>
        <time>2020-06-17T13:16:49Z</time>
      </trkpt>
      <trkpt lat="49.35455" lon="0.06646">
        <ele>5.9</ele>
        <time>2020-06-17T13:16:50Z</time>
      </trkpt>
      <trkpt lat="49.35458" lon="0.06652">
        <ele>5.8</ele>
        <time>2020-06-17T13:16:51Z</time>
      </trkpt>
      <trkpt lat="49.3546" lon="0.06659">
        <ele>5.7</ele>
        <time>2020-06-17T13:16:52Z</time>
      </trkpt>
      <trkpt lat="49.35463" lon="0.06665">
        <ele>5.7</ele>
        <time>2020-06-17T13:16:53Z</time>
      </trkpt>
      <trkpt lat="49.35465" lon="0.06671">
        <ele>5.6</ele>
        <time>2020-06-17T13:16:54Z</time>
      </trkpt>
      <trkpt lat="49.35468" lon="0.06677">
        <ele>5.5</ele>
        <time>2020-06-17T13:16:55Z</time>
      </trkpt>
      <trkpt lat="49.3547" lon="0.06684">
        <ele>5.5</ele>
        <time>2020-06-17T13:16:56Z</time>
      </trkpt>
      <trkpt lat="49.35473" lon="0.0669">
        <ele>5.5</ele>
        <time>2020-06-17T13:16:57Z</time>
      </trkpt>
      <trkpt lat="49.35476" lon="0.06697">
        <ele>5.5</ele>
        <time>2020-06-17T13:16:58Z</time>
      </trkpt>
      <trkpt lat="49.35479" lon="0.06704">
        <ele>5.4</ele>
        <time>2020-06-17T13:16:59Z</time>
      </trkpt>
      <trkpt lat="49.35482" lon="0.06711">
        <ele>5.4</ele>
        <time>2020-06-17T13:17:00Z</time>
      </trkpt>
      <trkpt lat="49.35484" lon="0.06719">
        <ele>5.4</ele>
        <time>2020-06-17T13:17:01Z</time>
      </trkpt>
      <trkpt lat="49.35487" lon="0.06725">
        <ele>5.4</ele>
        <time>2020-06-17T13:17:02Z</time>
      </trkpt>
      <trkpt lat="49.35489" lon="0.06732">
        <ele>5.4</ele>
        <time>2020-06-17T13:17:03Z</time>
      </trkpt>
      <trkpt lat="49.35492" lon="0.0674">
        <ele>5.4</ele>
        <time>2020-06-17T13:17:04Z</time>
      </trkpt>
      <trkpt lat="49.35495" lon="0.06746">
        <ele>5.4</ele>
        <time>2020-06-17T13:17:05Z</time>
      </trkpt>
      <trkpt lat="49.35497" lon="0.06754">
        <ele>5.4</ele>
        <time>2020-06-17T13:17:06Z</time>
      </trkpt>
      <trkpt lat="49.355" lon="0.06763">
        <ele>5.4</ele>
        <time>2020-06-17T13:17:07Z</time>
      </trkpt>
      <trkpt lat="49.35502" lon="0.06771">
        <ele>5.4</ele>
        <time>2020-06-17T13:17:08Z</time>
      </trkpt>
      <trkpt lat="49.35504" lon="0.06779">
        <ele>5.4</ele>
        <time>2020-06-17T13:17:09Z</time>
      </trkpt>
      <trkpt lat="49.35507" lon="0.06787">
        <ele>5.4</ele>
        <time>2020-06-17T13:17:10Z</time>
      </trkpt>
      <trkpt lat="49.35509" lon="0.06794">
        <ele>5.4</ele>
        <time>2020-06-17T13:17:11Z</time>
      </trkpt>
      <trkpt lat="49.35511" lon="0.06803">
        <ele>5.4</ele>
        <time>2020-06-17T13:17:12Z</time>
      </trkpt>
      <trkpt lat="49.35513" lon="0.06811">
        <ele>5.4</ele>
        <time>2020-06-17T13:17:13Z</time>
      </trkpt>
      <trkpt lat="49.35516" lon="0.0682">
        <ele>5.4</ele>
        <time>2020-06-17T13:17:14Z</time>
      </trkpt>
      <trkpt lat="49.35519" lon="0.06829">
        <ele>5.4</ele>
        <time>2020-06-17T13:17:15Z</time>
      </trkpt>
      <trkpt lat="49.35522" lon="0.06836">
        <ele>5.4</ele>
        <time>2020-06-17T13:17:16Z</time>
      </trkpt>
      <trkpt lat="49.35524" lon="0.06845">
        <ele>5.3</ele>
        <time>2020-06-17T13:17:17Z</time>
      </trkpt>
      <trkpt lat="49.35527" lon="0.06853">
        <ele>5.3</ele>
        <time>2020-06-17T13:17:18Z</time>
      </trkpt>
      <trkpt lat="49.3553" lon="0.0686">
        <ele>5.3</ele>
        <time>2020-06-17T13:17:19Z</time>
      </trkpt>
      <trkpt lat="49.35533" lon="0.06868">
        <ele>5.3</ele>
        <time>2020-06-17T13:17:20Z</time>
      </trkpt>
      <trkpt lat="49.35536" lon="0.06877">
        <ele>5.3</ele>
        <time>2020-06-17T13:17:21Z</time>
      </trkpt>
      <trkpt lat="49.35538" lon="0.06884">
        <ele>5.3</ele>
        <time>2020-06-17T13:17:22Z</time>
      </trkpt>
      <trkpt lat="49.35541" lon="0.06892">
        <ele>5.3</ele>
        <time>2020-06-17T13:17:23Z</time>
      </trkpt>
      <trkpt lat="49.35544" lon="0.06899">
        <ele>5.4</ele>
        <time>2020-06-17T13:17:24Z</time>
      </trkpt>
      <trkpt lat="49.35547" lon="0.06905">
        <ele>5.4</ele>
        <time>2020-06-17T13:17:25Z</time>
      </trkpt>
      <trkpt lat="49.35549" lon="0.06913">
        <ele>5.4</ele>
        <time>2020-06-17T13:17:26Z</time>
      </trkpt>
      <trkpt lat="49.35552" lon="0.0692">
        <ele>5.4</ele>
        <time>2020-06-17T13:17:27Z</time>
      </trkpt>
      <trkpt lat="49.35554" lon="0.06928">
        <ele>5.5</ele>
        <time>2020-06-17T13:17:28Z</time>
      </trkpt>
      <trkpt lat="49.35556" lon="0.06934">
        <ele>5.5</ele>
        <time>2020-06-17T13:17:29Z</time>
      </trkpt>
      <trkpt lat="49.35559" lon="0.0694">
        <ele>5.5</ele>
        <time>2020-06-17T13:17:30Z</time>
      </trkpt>
      <trkpt lat="49.35561" lon="0.06945">
        <ele>5.5</ele>
        <time>2020-06-17T13:17:31Z</time>
      </trkpt>
      <trkpt lat="49.35564" lon="0.06952">
        <ele>5.6</ele>
        <time>2020-06-17T13:17:32Z</time>
      </trkpt>
      <trkpt lat="49.35568" lon="0.06958">
        <ele>5.6</ele>
        <time>2020-06-17T13:17:33Z</time>
      </trkpt>
      <trkpt lat="49.35571" lon="0.06964">
        <ele>5.6</ele>
        <time>2020-06-17T13:17:34Z</time>
      </trkpt>
      <trkpt lat="49.35573" lon="0.06971">
        <ele>5.6</ele>
        <time>2020-06-17T13:17:35Z</time>
      </trkpt>
      <trkpt lat="49.35576" lon="0.06977">
        <ele>5.6</ele>
        <time>2020-06-17T13:17:36Z</time>
      </trkpt>
      <trkpt lat="49.35579" lon="0.06985">
        <ele>5.7</ele>
        <time>2020-06-17T13:17:37Z</time>
      </trkpt>
      <trkpt lat="49.35582" lon="0.06992">
        <ele>5.7</ele>
        <time>2020-06-17T13:17:38Z</time>
      </trkpt>
      <trkpt lat="49.35585" lon="0.07">
        <ele>5.7</ele>
        <time>2020-06-17T13:17:39Z</time>
      </trkpt>
      <trkpt lat="49.35588" lon="0.07007">
        <ele>5.7</ele>
        <time>2020-06-17T13:17:40Z</time>
      </trkpt>
      <trkpt lat="49.3559" lon="0.07014">
        <ele>5.7</ele>
        <time>2020-06-17T13:17:41Z</time>
      </trkpt>
      <trkpt lat="49.35593" lon="0.07021">
        <ele>5.7</ele>
        <time>2020-06-17T13:17:42Z</time>
      </trkpt>
      <trkpt lat="49.35595" lon="0.07029">
        <ele>5.7</ele>
        <time>2020-06-17T13:17:43Z</time>
      </trkpt>
      <trkpt lat="49.35598" lon="0.07036">
        <ele>5.7</ele>
        <time>2020-06-17T13:17:44Z</time>
      </trkpt>
      <trkpt lat="49.356" lon="0.07044">
        <ele>5.7</ele>
        <time>2020-06-17T13:17:45Z</time>
      </trkpt>
      <trkpt lat="49.35603" lon="0.07051">
        <ele>5.7</ele>
        <time>2020-06-17T13:17:46Z</time>
      </trkpt>
      <trkpt lat="49.35606" lon="0.07058">
        <ele>5.7</ele>
        <time>2020-06-17T13:17:47Z</time>
      </trkpt>
      <trkpt lat="49.35609" lon="0.07065">
        <ele>5.7</ele>
        <time>2020-06-17T13:17:48Z</time>
      </trkpt>
      <trkpt lat="49.35611" lon="0.07072">
        <ele>5.7</ele>
        <time>2020-06-17T13:17:49Z</time>
      </trkpt>
      <trkpt lat="49.35615" lon="0.07077">
        <ele>5.7</ele>
        <time>2020-06-17T13:17:50Z</time>
      </trkpt>
      <trkpt lat="49.35617" lon="0.07083">
        <ele>5.7</ele>
        <time>2020-06-17T13:17:51Z</time>
      </trkpt>
      <trkpt lat="49.3562" lon="0.07089">
        <ele>5.6</ele>
        <time>2020-06-17T13:17:52Z</time>
      </trkpt>
      <trkpt lat="49.35622" lon="0.07094">
        <ele>5.6</ele>
        <time>2020-06-17T13:17:53Z</time>
      </trkpt>
      <trkpt lat="49.35625" lon="0.07101">
        <ele>5.6</ele>
        <time>2020-06-17T13:17:54Z</time>
      </trkpt>
      <trkpt lat="49.35628" lon="0.07108">
        <ele>5.6</ele>
        <time>2020-06-17T13:17:55Z</time>
      </trkpt>
      <trkpt lat="49.3563" lon="0.07114">
        <ele>5.6</ele>
        <time>2020-06-17T13:17:56Z</time>
      </trkpt>
      <trkpt lat="49.35632" lon="0.07121">
        <ele>5.6</ele>
        <time>2020-06-17T13:17:57Z</time>
      </trkpt>
      <trkpt lat="49.35633" lon="0.07129">
        <ele>5.6</ele>
        <time>2020-06-17T13:17:58Z</time>
      </trkpt>
      <trkpt lat="49.35636" lon="0.07136">
        <ele>5.6</ele>
        <time>2020-06-17T13:17:59Z</time>
      </trkpt>
      <trkpt lat="49.35639" lon="0.07143">
        <ele>5.6</ele>
        <time>2020-06-17T13:18:00Z</time>
      </trkpt>
      <trkpt lat="49.35642" lon="0.07151">
        <ele>5.7</ele>
        <time>2020-06-17T13:18:01Z</time>
      </trkpt>
      <trkpt lat="49.35644" lon="0.07157">
        <ele>5.7</ele>
        <time>2020-06-17T13:18:02Z</time>
      </trkpt>
      <trkpt lat="49.35646" lon="0.07163">
        <ele>5.8</ele>
        <time>2020-06-17T13:18:03Z</time>
      </trkpt>
      <trkpt lat="49.35649" lon="0.07171">
        <ele>5.9</ele>
        <time>2020-06-17T13:18:04Z</time>
      </trkpt>
      <trkpt lat="49.35652" lon="0.07178">
        <ele>5.9</ele>
        <time>2020-06-17T13:18:05Z</time>
      </trkpt>
      <trkpt lat="49.35655" lon="0.07186">
        <ele>6</ele>
        <time>2020-06-17T13:18:06Z</time>
      </trkpt>
      <trkpt lat="49.35657" lon="0.07194">
        <ele>6.1</ele>
        <time>2020-06-17T13:18:07Z</time>
      </trkpt>
      <trkpt lat="49.3566" lon="0.07202">
        <ele>6.2</ele>
        <time>2020-06-17T13:18:08Z</time>
      </trkpt>
      <trkpt lat="49.35663" lon="0.07209">
        <ele>6.2</ele>
        <time>2020-06-17T13:18:09Z</time>
      </trkpt>
      <trkpt lat="49.35666" lon="0.07216">
        <ele>6.3</ele>
        <time>2020-06-17T13:18:10Z</time>
      </trkpt>
      <trkpt lat="49.35668" lon="0.07221">
        <ele>6.3</ele>
        <time>2020-06-17T13:18:11Z</time>
      </trkpt>
      <trkpt lat="49.3567" lon="0.07226">
        <ele>6.3</ele>
        <time>2020-06-17T13:18:12Z</time>
      </trkpt>
      <trkpt lat="49.35672" lon="0.07232">
        <ele>6.3</ele>
        <time>2020-06-17T13:18:13Z</time>
      </trkpt>
      <trkpt lat="49.35675" lon="0.07237">
        <ele>6.4</ele>
        <time>2020-06-17T13:18:14Z</time>
      </trkpt>
      <trkpt lat="49.35677" lon="0.07242">
        <ele>6.4</ele>
        <time>2020-06-17T13:18:15Z</time>
      </trkpt>
      <trkpt lat="49.35679" lon="0.07248">
        <ele>6.4</ele>
        <time>2020-06-17T13:18:16Z</time>
      </trkpt>
      <trkpt lat="49.35682" lon="0.07253">
        <ele>6.3</ele>
        <time>2020-06-17T13:18:17Z</time>
      </trkpt>
      <trkpt lat="49.35684" lon="0.07259">
        <ele>6.2</ele>
        <time>2020-06-17T13:18:18Z</time>
      </trkpt>
      <trkpt lat="49.35686" lon="0.07264">
        <ele>6.2</ele>
        <time>2020-06-17T13:18:19Z</time>
      </trkpt>
      <trkpt lat="49.35688" lon="0.0727">
        <ele>6.1</ele>
        <time>2020-06-17T13:18:20Z</time>
      </trkpt>
      <trkpt lat="49.3569" lon="0.07275">
        <ele>6.1</ele>
        <time>2020-06-17T13:18:21Z</time>
      </trkpt>
      <trkpt lat="49.35692" lon="0.07281">
        <ele>6</ele>
        <time>2020-06-17T13:18:22Z</time>
      </trkpt>
      <trkpt lat="49.35695" lon="0.07287">
        <ele>6</ele>
        <time>2020-06-17T13:18:23Z</time>
      </trkpt>
      <trkpt lat="49.35698" lon="0.07293">
        <ele>5.9</ele>
        <time>2020-06-17T13:18:24Z</time>
      </trkpt>
      <trkpt lat="49.357" lon="0.07299">
        <ele>5.8</ele>
        <time>2020-06-17T13:18:25Z</time>
      </trkpt>
      <trkpt lat="49.35703" lon="0.07306">
        <ele>5.7</ele>
        <time>2020-06-17T13:18:26Z</time>
      </trkpt>
      <trkpt lat="49.35706" lon="0.07312">
        <ele>5.7</ele>
        <time>2020-06-17T13:18:27Z</time>
      </trkpt>
      <trkpt lat="49.35708" lon="0.07319">
        <ele>5.6</ele>
        <time>2020-06-17T13:18:28Z</time>
      </trkpt>
      <trkpt lat="49.3571" lon="0.07326">
        <ele>5.5</ele>
        <time>2020-06-17T13:18:29Z</time>
      </trkpt>
      <trkpt lat="49.35713" lon="0.07332">
        <ele>5.5</ele>
        <time>2020-06-17T13:18:30Z</time>
      </trkpt>
      <trkpt lat="49.35715" lon="0.07338">
        <ele>5.4</ele>
        <time>2020-06-17T13:18:31Z</time>
      </trkpt>
      <trkpt lat="49.35717" lon="0.07344">
        <ele>5.4</ele>
        <time>2020-06-17T13:18:32Z</time>
      </trkpt>
      <trkpt lat="49.3572" lon="0.0735">
        <ele>5.3</ele>
        <time>2020-06-17T13:18:33Z</time>
      </trkpt>
      <trkpt lat="49.35723" lon="0.07357">
        <ele>5.3</ele>
        <time>2020-06-17T13:18:34Z</time>
      </trkpt>
      <trkpt lat="49.35726" lon="0.07364">
        <ele>5.3</ele>
        <time>2020-06-17T13:18:35Z</time>
      </trkpt>
      <trkpt lat="49.35728" lon="0.07372">
        <ele>5.3</ele>
        <time>2020-06-17T13:18:36Z</time>
      </trkpt>
      <trkpt lat="49.35731" lon="0.07379">
        <ele>5.3</ele>
        <time>2020-06-17T13:18:37Z</time>
      </trkpt>
      <trkpt lat="49.35734" lon="0.07386">
        <ele>5.3</ele>
        <time>2020-06-17T13:18:38Z</time>
      </trkpt>
      <trkpt lat="49.35737" lon="0.07394">
        <ele>5.2</ele>
        <time>2020-06-17T13:18:39Z</time>
      </trkpt>
      <trkpt lat="49.35739" lon="0.07401">
        <ele>5.2</ele>
        <time>2020-06-17T13:18:40Z</time>
      </trkpt>
      <trkpt lat="49.35742" lon="0.07409">
        <ele>5.2</ele>
        <time>2020-06-17T13:18:41Z</time>
      </trkpt>
      <trkpt lat="49.35745" lon="0.07417">
        <ele>5.2</ele>
        <time>2020-06-17T13:18:42Z</time>
      </trkpt>
      <trkpt lat="49.35747" lon="0.07424">
        <ele>5.2</ele>
        <time>2020-06-17T13:18:43Z</time>
      </trkpt>
      <trkpt lat="49.3575" lon="0.07432">
        <ele>5.2</ele>
        <time>2020-06-17T13:18:44Z</time>
      </trkpt>
      <trkpt lat="49.35752" lon="0.07439">
        <ele>5.2</ele>
        <time>2020-06-17T13:18:45Z</time>
      </trkpt>
      <trkpt lat="49.35755" lon="0.07447">
        <ele>5.2</ele>
        <time>2020-06-17T13:18:46Z</time>
      </trkpt>
      <trkpt lat="49.35759" lon="0.07455">
        <ele>5.3</ele>
        <time>2020-06-17T13:18:47Z</time>
      </trkpt>
      <trkpt lat="49.35762" lon="0.07462">
        <ele>5.3</ele>
        <time>2020-06-17T13:18:48Z</time>
      </trkpt>
      <trkpt lat="49.35765" lon="0.0747">
        <ele>5.4</ele>
        <time>2020-06-17T13:18:49Z</time>
      </trkpt>
      <trkpt lat="49.35768" lon="0.07478">
        <ele>5.4</ele>
        <time>2020-06-17T13:18:50Z</time>
      </trkpt>
      <trkpt lat="49.3577" lon="0.07486">
        <ele>5.4</ele>
        <time>2020-06-17T13:18:51Z</time>
      </trkpt>
      <trkpt lat="49.35773" lon="0.07493">
        <ele>5.5</ele>
        <time>2020-06-17T13:18:52Z</time>
      </trkpt>
      <trkpt lat="49.35775" lon="0.07501">
        <ele>5.5</ele>
        <time>2020-06-17T13:18:53Z</time>
      </trkpt>
      <trkpt lat="49.35778" lon="0.07508">
        <ele>5.5</ele>
        <time>2020-06-17T13:18:54Z</time>
      </trkpt>
      <trkpt lat="49.3578" lon="0.07516">
        <ele>5.6</ele>
        <time>2020-06-17T13:18:55Z</time>
      </trkpt>
      <trkpt lat="49.35783" lon="0.07523">
        <ele>5.6</ele>
        <time>2020-06-17T13:18:56Z</time>
      </trkpt>
      <trkpt lat="49.35786" lon="0.07531">
        <ele>5.6</ele>
        <time>2020-06-17T13:18:57Z</time>
      </trkpt>
      <trkpt lat="49.3579" lon="0.07539">
        <ele>5.6</ele>
        <time>2020-06-17T13:18:58Z</time>
      </trkpt>
      <trkpt lat="49.35793" lon="0.07547">
        <ele>5.7</ele>
        <time>2020-06-17T13:18:59Z</time>
      </trkpt>
      <trkpt lat="49.35796" lon="0.07557">
        <ele>5.7</ele>
        <time>2020-06-17T13:19:00Z</time>
      </trkpt>
      <trkpt lat="49.35798" lon="0.07566">
        <ele>5.7</ele>
        <time>2020-06-17T13:19:01Z</time>
      </trkpt>
      <trkpt lat="49.35801" lon="0.07573">
        <ele>5.7</ele>
        <time>2020-06-17T13:19:02Z</time>
      </trkpt>
      <trkpt lat="49.35804" lon="0.0758">
        <ele>5.8</ele>
        <time>2020-06-17T13:19:03Z</time>
      </trkpt>
      <trkpt lat="49.35806" lon="0.07587">
        <ele>5.8</ele>
        <time>2020-06-17T13:19:04Z</time>
      </trkpt>
      <trkpt lat="49.35809" lon="0.07595">
        <ele>5.8</ele>
        <time>2020-06-17T13:19:05Z</time>
      </trkpt>
      <trkpt lat="49.35811" lon="0.07603">
        <ele>5.8</ele>
        <time>2020-06-17T13:19:06Z</time>
      </trkpt>
      <trkpt lat="49.35813" lon="0.0761">
        <ele>5.7</ele>
        <time>2020-06-17T13:19:07Z</time>
      </trkpt>
      <trkpt lat="49.35816" lon="0.07617">
        <ele>5.7</ele>
        <time>2020-06-17T13:19:08Z</time>
      </trkpt>
      <trkpt lat="49.35818" lon="0.07624">
        <ele>5.7</ele>
        <time>2020-06-17T13:19:09Z</time>
      </trkpt>
      <trkpt lat="49.35821" lon="0.0763">
        <ele>5.7</ele>
        <time>2020-06-17T13:19:10Z</time>
      </trkpt>
      <trkpt lat="49.35823" lon="0.07636">
        <ele>5.7</ele>
        <time>2020-06-17T13:19:11Z</time>
      </trkpt>
      <trkpt lat="49.35826" lon="0.07641">
        <ele>5.7</ele>
        <time>2020-06-17T13:19:12Z</time>
      </trkpt>
      <trkpt lat="49.35828" lon="0.07646">
        <ele>5.7</ele>
        <time>2020-06-17T13:19:13Z</time>
      </trkpt>
      <trkpt lat="49.35831" lon="0.07653">
        <ele>5.6</ele>
        <time>2020-06-17T13:19:14Z</time>
      </trkpt>
      <trkpt lat="49.35832" lon="0.07657">
        <ele>5.6</ele>
        <time>2020-06-17T13:19:15Z</time>
      </trkpt>
      <trkpt lat="49.35834" lon="0.07662">
        <ele>5.6</ele>
        <time>2020-06-17T13:19:16Z</time>
      </trkpt>
      <trkpt lat="49.35836" lon="0.07665">
        <ele>5.6</ele>
        <time>2020-06-17T13:19:17Z</time>
      </trkpt>
      <trkpt lat="49.35837" lon="0.0767">
        <ele>5.6</ele>
        <time>2020-06-17T13:19:18Z</time>
      </trkpt>
      <trkpt lat="49.35838" lon="0.07671">
        <ele>5.6</ele>
        <time>2020-06-17T13:19:19Z</time>
      </trkpt>
      <trkpt lat="49.35839" lon="0.07675">
        <ele>5.6</ele>
        <time>2020-06-17T13:19:20Z</time>
      </trkpt>
      <trkpt lat="49.3584" lon="0.07677">
        <ele>5.6</ele>
        <time>2020-06-17T13:19:21Z</time>
      </trkpt>
      <trkpt lat="49.35842" lon="0.07682">
        <ele>5.5</ele>
        <time>2020-06-17T13:19:22Z</time>
      </trkpt>
      <trkpt lat="49.35842" lon="0.07683">
        <ele>5.5</ele>
        <time>2020-06-17T13:19:23Z</time>
      </trkpt>
      <trkpt lat="49.35844" lon="0.07688">
        <ele>5.5</ele>
        <time>2020-06-17T13:19:24Z</time>
      </trkpt>
      <trkpt lat="49.35846" lon="0.07692">
        <ele>5.5</ele>
        <time>2020-06-17T13:19:25Z</time>
      </trkpt>
      <trkpt lat="49.35848" lon="0.07696">
        <ele>5.5</ele>
        <time>2020-06-17T13:19:26Z</time>
      </trkpt>
      <trkpt lat="49.3585" lon="0.077">
        <ele>5.4</ele>
        <time>2020-06-17T13:19:27Z</time>
      </trkpt>
      <trkpt lat="49.35852" lon="0.07705">
        <ele>5.4</ele>
        <time>2020-06-17T13:19:28Z</time>
      </trkpt>
      <trkpt lat="49.35854" lon="0.0771">
        <ele>5.4</ele>
        <time>2020-06-17T13:19:29Z</time>
      </trkpt>
      <trkpt lat="49.35856" lon="0.07715">
        <ele>5.4</ele>
        <time>2020-06-17T13:19:30Z</time>
      </trkpt>
      <trkpt lat="49.35859" lon="0.07721">
        <ele>5.3</ele>
        <time>2020-06-17T13:19:31Z</time>
      </trkpt>
      <trkpt lat="49.35861" lon="0.07728">
        <ele>5.3</ele>
        <time>2020-06-17T13:19:32Z</time>
      </trkpt>
      <trkpt lat="49.35864" lon="0.07734">
        <ele>5.3</ele>
        <time>2020-06-17T13:19:33Z</time>
      </trkpt>
      <trkpt lat="49.35866" lon="0.0774">
        <ele>5.3</ele>
        <time>2020-06-17T13:19:34Z</time>
      </trkpt>
      <trkpt lat="49.35869" lon="0.07746">
        <ele>5.3</ele>
        <time>2020-06-17T13:19:35Z</time>
      </trkpt>
      <trkpt lat="49.35872" lon="0.07753">
        <ele>5.3</ele>
        <time>2020-06-17T13:19:36Z</time>
      </trkpt>
      <trkpt lat="49.35874" lon="0.0776">
        <ele>5.3</ele>
        <time>2020-06-17T13:19:37Z</time>
      </trkpt>
      <trkpt lat="49.35876" lon="0.07767">
        <ele>5.3</ele>
        <time>2020-06-17T13:19:38Z</time>
      </trkpt>
      <trkpt lat="49.35879" lon="0.07774">
        <ele>5.3</ele>
        <time>2020-06-17T13:19:39Z</time>
      </trkpt>
      <trkpt lat="49.35881" lon="0.0778">
        <ele>5.3</ele>
        <time>2020-06-17T13:19:40Z</time>
      </trkpt>
      <trkpt lat="49.35882" lon="0.07787">
        <ele>5.3</ele>
        <time>2020-06-17T13:19:41Z</time>
      </trkpt>
      <trkpt lat="49.35885" lon="0.07792">
        <ele>5.3</ele>
        <time>2020-06-17T13:19:42Z</time>
      </trkpt>
      <trkpt lat="49.35887" lon="0.07798">
        <ele>5.2</ele>
        <time>2020-06-17T13:19:43Z</time>
      </trkpt>
      <trkpt lat="49.35889" lon="0.07804">
        <ele>5.2</ele>
        <time>2020-06-17T13:19:44Z</time>
      </trkpt>
      <trkpt lat="49.35891" lon="0.0781">
        <ele>5.2</ele>
        <time>2020-06-17T13:19:45Z</time>
      </trkpt>
      <trkpt lat="49.35893" lon="0.07816">
        <ele>5.2</ele>
        <time>2020-06-17T13:19:46Z</time>
      </trkpt>
      <trkpt lat="49.35895" lon="0.07822">
        <ele>5.2</ele>
        <time>2020-06-17T13:19:47Z</time>
      </trkpt>
      <trkpt lat="49.35897" lon="0.07828">
        <ele>5.3</ele>
        <time>2020-06-17T13:19:48Z</time>
      </trkpt>
      <trkpt lat="49.359" lon="0.07835">
        <ele>5.3</ele>
        <time>2020-06-17T13:19:49Z</time>
      </trkpt>
      <trkpt lat="49.35902" lon="0.07841">
        <ele>5.3</ele>
        <time>2020-06-17T13:19:50Z</time>
      </trkpt>
      <trkpt lat="49.35904" lon="0.07847">
        <ele>5.3</ele>
        <time>2020-06-17T13:19:51Z</time>
      </trkpt>
      <trkpt lat="49.35907" lon="0.07853">
        <ele>5.4</ele>
        <time>2020-06-17T13:19:52Z</time>
      </trkpt>
      <trkpt lat="49.3591" lon="0.07859">
        <ele>5.4</ele>
        <time>2020-06-17T13:19:53Z</time>
      </trkpt>
      <trkpt lat="49.35912" lon="0.07865">
        <ele>5.4</ele>
        <time>2020-06-17T13:19:54Z</time>
      </trkpt>
      <trkpt lat="49.35914" lon="0.07871">
        <ele>5.4</ele>
        <time>2020-06-17T13:19:55Z</time>
      </trkpt>
      <trkpt lat="49.35916" lon="0.07876">
        <ele>5.5</ele>
        <time>2020-06-17T13:19:56Z</time>
      </trkpt>
      <trkpt lat="49.35918" lon="0.07883">
        <ele>5.5</ele>
        <time>2020-06-17T13:19:57Z</time>
      </trkpt>
      <trkpt lat="49.3592" lon="0.0789">
        <ele>5.5</ele>
        <time>2020-06-17T13:19:58Z</time>
      </trkpt>
      <trkpt lat="49.35922" lon="0.07898">
        <ele>5.6</ele>
        <time>2020-06-17T13:19:59Z</time>
      </trkpt>
      <trkpt lat="49.35924" lon="0.07905">
        <ele>5.6</ele>
        <time>2020-06-17T13:20:00Z</time>
      </trkpt>
      <trkpt lat="49.35927" lon="0.0791">
        <ele>5.6</ele>
        <time>2020-06-17T13:20:01Z</time>
      </trkpt>
      <trkpt lat="49.35929" lon="0.07917">
        <ele>5.6</ele>
        <time>2020-06-17T13:20:02Z</time>
      </trkpt>
      <trkpt lat="49.35931" lon="0.07922">
        <ele>5.7</ele>
        <time>2020-06-17T13:20:03Z</time>
      </trkpt>
      <trkpt lat="49.35933" lon="0.07928">
        <ele>5.7</ele>
        <time>2020-06-17T13:20:04Z</time>
      </trkpt>
      <trkpt lat="49.35935" lon="0.07934">
        <ele>5.7</ele>
        <time>2020-06-17T13:20:05Z</time>
      </trkpt>
      <trkpt lat="49.35937" lon="0.0794">
        <ele>5.7</ele>
        <time>2020-06-17T13:20:06Z</time>
      </trkpt>
      <trkpt lat="49.35939" lon="0.07945">
        <ele>5.7</ele>
        <time>2020-06-17T13:20:07Z</time>
      </trkpt>
      <trkpt lat="49.35941" lon="0.07951">
        <ele>5.8</ele>
        <time>2020-06-17T13:20:08Z</time>
      </trkpt>
      <trkpt lat="49.35943" lon="0.07958">
        <ele>5.8</ele>
        <time>2020-06-17T13:20:09Z</time>
      </trkpt>
      <trkpt lat="49.35945" lon="0.07964">
        <ele>5.8</ele>
        <time>2020-06-17T13:20:10Z</time>
      </trkpt>
      <trkpt lat="49.35947" lon="0.07971">
        <ele>5.8</ele>
        <time>2020-06-17T13:20:11Z</time>
      </trkpt>
      <trkpt lat="49.35949" lon="0.07977">
        <ele>5.8</ele>
        <time>2020-06-17T13:20:12Z</time>
      </trkpt>
      <trkpt lat="49.35951" lon="0.07983">
        <ele>5.8</ele>
        <time>2020-06-17T13:20:13Z</time>
      </trkpt>
      <trkpt lat="49.35952" lon="0.07987">
        <ele>5.8</ele>
        <time>2020-06-17T13:20:14Z</time>
      </trkpt>
      <trkpt lat="49.35954" lon="0.07991">
        <ele>5.8</ele>
        <time>2020-06-17T13:20:15Z</time>
      </trkpt>
      <trkpt lat="49.35955" lon="0.07995">
        <ele>5.8</ele>
        <time>2020-06-17T13:20:16Z</time>
      </trkpt>
      <trkpt lat="49.35955" lon="0.07996">
        <ele>5.8</ele>
        <time>2020-06-17T13:20:17Z</time>
      </trkpt>
      <trkpt lat="49.35957" lon="0.07999">
        <ele>5.8</ele>
        <time>2020-06-17T13:20:18Z</time>
      </trkpt>
      <trkpt lat="49.35957" lon="0.08">
        <ele>5.8</ele>
        <time>2020-06-17T13:20:19Z</time>
      </trkpt>
      <trkpt lat="49.35958" lon="0.08001">
        <ele>5.8</ele>
        <time>2020-06-17T13:20:20Z</time>
      </trkpt>
      <trkpt lat="49.3596" lon="0.08003">
        <ele>5.8</ele>
        <time>2020-06-17T13:20:21Z</time>
      </trkpt>
      <trkpt lat="49.3596" lon="0.08004">
        <ele>5.8</ele>
        <time>2020-06-17T13:20:22Z</time>
      </trkpt>
      <trkpt lat="49.35961" lon="0.08004">
        <ele>5.8</ele>
        <time>2020-06-17T13:20:23Z</time>
      </trkpt>
      <trkpt lat="49.35961" lon="0.08005">
        <ele>5.8</ele>
        <time>2020-06-17T13:20:24Z</time>
      </trkpt>
      <trkpt lat="49.35961" lon="0.08005">
        <ele>5.8</ele>
        <time>2020-06-17T13:20:25Z</time>
      </trkpt>
      <trkpt lat="49.35962" lon="0.08005">
        <ele>5.8</ele>
        <time>2020-06-17T13:20:26Z</time>
      </trkpt>
      <trkpt lat="49.35962" lon="0.08004">
        <ele>5.8</ele>
        <time>2020-06-17T13:20:27Z</time>
      </trkpt>
      <trkpt lat="49.35962" lon="0.08003">
        <ele>5.8</ele>
        <time>2020-06-17T13:20:28Z</time>
      </trkpt>
      <trkpt lat="49.35962" lon="0.08003">
        <ele>5.8</ele>
        <time>2020-06-17T13:20:29Z</time>
      </trkpt>
      <trkpt lat="49.35962" lon="0.08003">
        <ele>5.8</ele>
        <time>2020-06-17T13:20:30Z</time>
      </trkpt>
      <trkpt lat="49.35961" lon="0.08003">
        <ele>5.8</ele>
        <time>2020-06-17T13:20:31Z</time>
      </trkpt>
      <trkpt lat="49.3596" lon="0.08002">
        <ele>5.8</ele>
        <time>2020-06-17T13:20:32Z</time>
      </trkpt>
      <trkpt lat="49.35959" lon="0.08002">
        <ele>5.8</ele>
        <time>2020-06-17T13:20:33Z</time>
      </trkpt>
      <trkpt lat="49.35959" lon="0.08003">
        <ele>5.8</ele>
        <time>2020-06-17T13:20:34Z</time>
      </trkpt>
      <trkpt lat="49.35959" lon="0.08002">
        <ele>5.8</ele>
        <time>2020-06-17T13:20:35Z</time>
      </trkpt>
      <trkpt lat="49.35964" lon="0.08002">
        <ele>5.8</ele>
        <time>2020-06-17T13:21:38Z</time>
      </trkpt>
      <trkpt lat="49.35964" lon="0.08002">
        <ele>5.8</ele>
        <time>2020-06-17T13:21:39Z</time>
      </trkpt>
      <trkpt lat="49.35964" lon="0.08002">
        <ele>5.8</ele>
        <time>2020-06-17T13:21:40Z</time>
      </trkpt>
      <trkpt lat="49.35964" lon="0.08002">
        <ele>5.8</ele>
        <time>2020-06-17T13:21:41Z</time>
      </trkpt>
      <trkpt lat="49.35964" lon="0.08002">
        <ele>5.8</ele>
        <time>2020-06-17T13:21:42Z</time>
      </trkpt>
      <trkpt lat="49.35964" lon="0.08002">
        <ele>5.8</ele>
        <time>2020-06-17T13:21:43Z</time>
      </trkpt>
      <trkpt lat="49.35964" lon="0.08001">
        <ele>5.8</ele>
        <time>2020-06-17T13:21:44Z</time>
      </trkpt>
      <trkpt lat="49.35965" lon="0.08002">
        <ele>5.8</ele>
        <time>2020-06-17T13:21:45Z</time>
      </trkpt>
      <trkpt lat="49.35966" lon="0.08002">
        <ele>5.8</ele>
        <time>2020-06-17T13:21:46Z</time>
      </trkpt>
      <trkpt lat="49.35966" lon="0.08004">
        <ele>5.8</ele>
        <time>2020-06-17T13:21:47Z</time>
      </trkpt>
      <trkpt lat="49.35967" lon="0.08004">
        <ele>5.8</ele>
        <time>2020-06-17T13:21:48Z</time>
      </trkpt>
      <trkpt lat="49.35967" lon="0.08004">
        <ele>5.8</ele>
        <time>2020-06-17T13:21:49Z</time>
      </trkpt>
      <trkpt lat="49.35967" lon="0.08005">
        <ele>5.8</ele>
        <time>2020-06-17T13:21:50Z</time>
      </trkpt>
      <trkpt lat="49.35967" lon="0.08005">
        <ele>5.8</ele>
        <time>2020-06-17T13:21:51Z</time>
      </trkpt>
      <trkpt lat="49.35968" lon="0.08004">
        <ele>5.8</ele>
        <time>2020-06-17T13:21:52Z</time>
      </trkpt>
      <trkpt lat="49.35968" lon="0.08004">
        <ele>5.8</ele>
        <time>2020-06-17T13:21:53Z</time>
      </trkpt>
      <trkpt lat="49.35968" lon="0.08005">
        <ele>5.8</ele>
        <time>2020-06-17T13:21:54Z</time>
      </trkpt>
      <trkpt lat="49.35968" lon="0.08005">
        <ele>5.8</ele>
        <time>2020-06-17T13:21:55Z</time>
      </trkpt>
      <trkpt lat="49.35968" lon="0.08006">
        <ele>5.8</ele>
        <time>2020-06-17T13:21:56Z</time>
      </trkpt>
      <trkpt lat="49.35968" lon="0.08005">
        <ele>5.8</ele>
        <time>2020-06-17T13:21:57Z</time>
      </trkpt>
      <trkpt lat="49.35967" lon="0.08005">
        <ele>5.8</ele>
        <time>2020-06-17T13:21:58Z</time>
      </trkpt>
      <trkpt lat="49.35967" lon="0.08005">
        <ele>5.8</ele>
        <time>2020-06-17T13:21:59Z</time>
      </trkpt>
      <trkpt lat="49.35966" lon="0.08003">
        <ele>5.8</ele>
        <time>2020-06-17T13:22:00Z</time>
      </trkpt>
      <trkpt lat="49.35966" lon="0.08003">
        <ele>5.8</ele>
        <time>2020-06-17T13:22:01Z</time>
      </trkpt>
      <trkpt lat="49.35965" lon="0.08001">
        <ele>5.8</ele>
        <time>2020-06-17T13:22:02Z</time>
      </trkpt>
      <trkpt lat="49.35964" lon="0.08">
        <ele>5.8</ele>
        <time>2020-06-17T13:22:03Z</time>
      </trkpt>
      <trkpt lat="49.35964" lon="0.07999">
        <ele>5.8</ele>
        <time>2020-06-17T13:22:04Z</time>
      </trkpt>
      <trkpt lat="49.35963" lon="0.07999">
        <ele>5.8</ele>
        <time>2020-06-17T13:22:05Z</time>
      </trkpt>
      <trkpt lat="49.35963" lon="0.07998">
        <ele>5.8</ele>
        <time>2020-06-17T13:22:06Z</time>
      </trkpt>
      <trkpt lat="49.35963" lon="0.07998">
        <ele>5.8</ele>
        <time>2020-06-17T13:22:07Z</time>
      </trkpt>
      <trkpt lat="49.35962" lon="0.07997">
        <ele>5.8</ele>
        <time>2020-06-17T13:22:08Z</time>
      </trkpt>
      <trkpt lat="49.35962" lon="0.07997">
        <ele>5.8</ele>
        <time>2020-06-17T13:22:09Z</time>
      </trkpt>
      <trkpt lat="49.35962" lon="0.07997">
        <ele>5.8</ele>
        <time>2020-06-17T13:22:10Z</time>
      </trkpt>
      <trkpt lat="49.35962" lon="0.07997">
        <ele>5.8</ele>
        <time>2020-06-17T13:22:11Z</time>
      </trkpt>
      <trkpt lat="49.35962" lon="0.07997">
        <ele>5.8</ele>
        <time>2020-06-17T13:22:12Z</time>
      </trkpt>
      <trkpt lat="49.35962" lon="0.08006">
        <ele>5.8</ele>
        <time>2020-06-17T13:23:20Z</time>
      </trkpt>
      <trkpt lat="49.35964" lon="0.08008">
        <ele>5.8</ele>
        <time>2020-06-17T13:23:21Z</time>
      </trkpt>
      <trkpt lat="49.35965" lon="0.0801">
        <ele>5.8</ele>
        <time>2020-06-17T13:23:22Z</time>
      </trkpt>
      <trkpt lat="49.35966" lon="0.08012">
        <ele>5.8</ele>
        <time>2020-06-17T13:23:23Z</time>
      </trkpt>
      <trkpt lat="49.35968" lon="0.08016">
        <ele>5.8</ele>
        <time>2020-06-17T13:23:24Z</time>
      </trkpt>
      <trkpt lat="49.35969" lon="0.08017">
        <ele>5.8</ele>
        <time>2020-06-17T13:23:25Z</time>
      </trkpt>
      <trkpt lat="49.3597" lon="0.08022">
        <ele>5.7</ele>
        <time>2020-06-17T13:23:26Z</time>
      </trkpt>
      <trkpt lat="49.35971" lon="0.08024">
        <ele>5.7</ele>
        <time>2020-06-17T13:23:27Z</time>
      </trkpt>
      <trkpt lat="49.35972" lon="0.0803">
        <ele>5.7</ele>
        <time>2020-06-17T13:23:28Z</time>
      </trkpt>
      <trkpt lat="49.35973" lon="0.08032">
        <ele>5.7</ele>
        <time>2020-06-17T13:23:29Z</time>
      </trkpt>
      <trkpt lat="49.35974" lon="0.08037">
        <ele>5.7</ele>
        <time>2020-06-17T13:23:30Z</time>
      </trkpt>
      <trkpt lat="49.35976" lon="0.08042">
        <ele>5.7</ele>
        <time>2020-06-17T13:23:31Z</time>
      </trkpt>
      <trkpt lat="49.35977" lon="0.08047">
        <ele>5.7</ele>
        <time>2020-06-17T13:23:32Z</time>
      </trkpt>
      <trkpt lat="49.35978" lon="0.08053">
        <ele>5.7</ele>
        <time>2020-06-17T13:23:33Z</time>
      </trkpt>
      <trkpt lat="49.35979" lon="0.0806">
        <ele>5.7</ele>
        <time>2020-06-17T13:23:34Z</time>
      </trkpt>
      <trkpt lat="49.35979" lon="0.08065">
        <ele>5.7</ele>
        <time>2020-06-17T13:23:35Z</time>
      </trkpt>
      <trkpt lat="49.3598" lon="0.08072">
        <ele>5.7</ele>
        <time>2020-06-17T13:23:36Z</time>
      </trkpt>
      <trkpt lat="49.3598" lon="0.08076">
        <ele>5.7</ele>
        <time>2020-06-17T13:23:37Z</time>
      </trkpt>
      <trkpt lat="49.35981" lon="0.08081">
        <ele>5.7</ele>
        <time>2020-06-17T13:23:38Z</time>
      </trkpt>
      <trkpt lat="49.35981" lon="0.08083">
        <ele>5.7</ele>
        <time>2020-06-17T13:23:39Z</time>
      </trkpt>
      <trkpt lat="49.35981" lon="0.08087">
        <ele>5.7</ele>
        <time>2020-06-17T13:23:40Z</time>
      </trkpt>
      <trkpt lat="49.35981" lon="0.08089">
        <ele>5.7</ele>
        <time>2020-06-17T13:23:41Z</time>
      </trkpt>
      <trkpt lat="49.35982" lon="0.08093">
        <ele>5.7</ele>
        <time>2020-06-17T13:23:42Z</time>
      </trkpt>
      <trkpt lat="49.35982" lon="0.08098">
        <ele>5.7</ele>
        <time>2020-06-17T13:23:43Z</time>
      </trkpt>
      <trkpt lat="49.35983" lon="0.08103">
        <ele>5.7</ele>
        <time>2020-06-17T13:23:44Z</time>
      </trkpt>
      <trkpt lat="49.35983" lon="0.08108">
        <ele>5.7</ele>
        <time>2020-06-17T13:23:45Z</time>
      </trkpt>
      <trkpt lat="49.35985" lon="0.08111">
        <ele>5.7</ele>
        <time>2020-06-17T13:23:46Z</time>
      </trkpt>
      <trkpt lat="49.35988" lon="0.08112">
        <ele>5.7</ele>
        <time>2020-06-17T13:23:47Z</time>
      </trkpt>
      <trkpt lat="49.35991" lon="0.08114">
        <ele>5.7</ele>
        <time>2020-06-17T13:23:48Z</time>
      </trkpt>
      <trkpt lat="49.35994" lon="0.08114">
        <ele>5.6</ele>
        <time>2020-06-17T13:23:49Z</time>
      </trkpt>
      <trkpt lat="49.35997" lon="0.08113">
        <ele>5.6</ele>
        <time>2020-06-17T13:23:50Z</time>
      </trkpt>
      <trkpt lat="49.35999" lon="0.0811">
        <ele>5.6</ele>
        <time>2020-06-17T13:23:51Z</time>
      </trkpt>
      <trkpt lat="49.36002" lon="0.08106">
        <ele>5.6</ele>
        <time>2020-06-17T13:23:52Z</time>
      </trkpt>
      <trkpt lat="49.36005" lon="0.08102">
        <ele>5.6</ele>
        <time>2020-06-17T13:23:53Z</time>
      </trkpt>
      <trkpt lat="49.36008" lon="0.08099">
        <ele>5.6</ele>
        <time>2020-06-17T13:23:54Z</time>
      </trkpt>
      <trkpt lat="49.36011" lon="0.08095">
        <ele>5.6</ele>
        <time>2020-06-17T13:23:55Z</time>
      </trkpt>
      <trkpt lat="49.36015" lon="0.08093">
        <ele>5.6</ele>
        <time>2020-06-17T13:23:56Z</time>
      </trkpt>
      <trkpt lat="49.36019" lon="0.0809">
        <ele>5.6</ele>
        <time>2020-06-17T13:23:57Z</time>
      </trkpt>
      <trkpt lat="49.36023" lon="0.08087">
        <ele>5.6</ele>
        <time>2020-06-17T13:23:58Z</time>
      </trkpt>
      <trkpt lat="49.36028" lon="0.08084">
        <ele>5.6</ele>
        <time>2020-06-17T13:23:59Z</time>
      </trkpt>
      <trkpt lat="49.36033" lon="0.08082">
        <ele>5.6</ele>
        <time>2020-06-17T13:24:00Z</time>
      </trkpt>
      <trkpt lat="49.36038" lon="0.0808">
        <ele>5.6</ele>
        <time>2020-06-17T13:24:01Z</time>
      </trkpt>
      <trkpt lat="49.36043" lon="0.08078">
        <ele>5.6</ele>
        <time>2020-06-17T13:24:02Z</time>
      </trkpt>
      <trkpt lat="49.36046" lon="0.08076">
        <ele>5.6</ele>
        <time>2020-06-17T13:24:03Z</time>
      </trkpt>
      <trkpt lat="49.3605" lon="0.08073">
        <ele>5.6</ele>
        <time>2020-06-17T13:24:04Z</time>
      </trkpt>
      <trkpt lat="49.36055" lon="0.08072">
        <ele>5.6</ele>
        <time>2020-06-17T13:24:05Z</time>
      </trkpt>
      <trkpt lat="49.3606" lon="0.0807">
        <ele>5.6</ele>
        <time>2020-06-17T13:24:06Z</time>
      </trkpt>
      <trkpt lat="49.36064" lon="0.08068">
        <ele>5.6</ele>
        <time>2020-06-17T13:24:07Z</time>
      </trkpt>
      <trkpt lat="49.36068" lon="0.08066">
        <ele>5.6</ele>
        <time>2020-06-17T13:24:08Z</time>
      </trkpt>
      <trkpt lat="49.36073" lon="0.08063">
        <ele>5.6</ele>
        <time>2020-06-17T13:24:09Z</time>
      </trkpt>
      <trkpt lat="49.36078" lon="0.0806">
        <ele>5.6</ele>
        <time>2020-06-17T13:24:10Z</time>
      </trkpt>
      <trkpt lat="49.36082" lon="0.08058">
        <ele>5.6</ele>
        <time>2020-06-17T13:24:11Z</time>
      </trkpt>
      <trkpt lat="49.36086" lon="0.08055">
        <ele>5.6</ele>
        <time>2020-06-17T13:24:12Z</time>
      </trkpt>
      <trkpt lat="49.36089" lon="0.08052">
        <ele>5.6</ele>
        <time>2020-06-17T13:24:13Z</time>
      </trkpt>
      <trkpt lat="49.36091" lon="0.0805">
        <ele>5.6</ele>
        <time>2020-06-17T13:24:14Z</time>
      </trkpt>
      <trkpt lat="49.36095" lon="0.08047">
        <ele>5.6</ele>
        <time>2020-06-17T13:24:15Z</time>
      </trkpt>
      <trkpt lat="49.36098" lon="0.08042">
        <ele>5.6</ele>
        <time>2020-06-17T13:24:16Z</time>
      </trkpt>
      <trkpt lat="49.36101" lon="0.0804">
        <ele>5.5</ele>
        <time>2020-06-17T13:24:17Z</time>
      </trkpt>
      <trkpt lat="49.36104" lon="0.08037">
        <ele>5.5</ele>
        <time>2020-06-17T13:24:18Z</time>
      </trkpt>
      <trkpt lat="49.36108" lon="0.08033">
        <ele>5.5</ele>
        <time>2020-06-17T13:24:19Z</time>
      </trkpt>
      <trkpt lat="49.36111" lon="0.0803">
        <ele>5.5</ele>
        <time>2020-06-17T13:24:20Z</time>
      </trkpt>
      <trkpt lat="49.36117" lon="0.08028">
        <ele>5.4</ele>
        <time>2020-06-17T13:24:21Z</time>
      </trkpt>
      <trkpt lat="49.36121" lon="0.08024">
        <ele>5.4</ele>
        <time>2020-06-17T13:24:22Z</time>
      </trkpt>
      <trkpt lat="49.36127" lon="0.0802">
        <ele>5.4</ele>
        <time>2020-06-17T13:24:23Z</time>
      </trkpt>
      <trkpt lat="49.36132" lon="0.08017">
        <ele>5.4</ele>
        <time>2020-06-17T13:24:24Z</time>
      </trkpt>
      <trkpt lat="49.36136" lon="0.08012">
        <ele>5.4</ele>
        <time>2020-06-17T13:24:25Z</time>
      </trkpt>
      <trkpt lat="49.36141" lon="0.08007">
        <ele>5.4</ele>
        <time>2020-06-17T13:24:26Z</time>
      </trkpt>
      <trkpt lat="49.36144" lon="0.08004">
        <ele>5.4</ele>
        <time>2020-06-17T13:24:27Z</time>
      </trkpt>
      <trkpt lat="49.36147" lon="0.08">
        <ele>5.4</ele>
        <time>2020-06-17T13:24:28Z</time>
      </trkpt>
      <trkpt lat="49.36152" lon="0.07998">
        <ele>5.4</ele>
        <time>2020-06-17T13:24:29Z</time>
      </trkpt>
      <trkpt lat="49.36156" lon="0.07997">
        <ele>5.4</ele>
        <time>2020-06-17T13:24:30Z</time>
      </trkpt>
      <trkpt lat="49.3616" lon="0.07993">
        <ele>5.4</ele>
        <time>2020-06-17T13:24:31Z</time>
      </trkpt>
      <trkpt lat="49.36162" lon="0.07989">
        <ele>5.4</ele>
        <time>2020-06-17T13:24:32Z</time>
      </trkpt>
      <trkpt lat="49.36165" lon="0.07986">
        <ele>5.4</ele>
        <time>2020-06-17T13:24:33Z</time>
      </trkpt>
      <trkpt lat="49.36168" lon="0.07983">
        <ele>5.4</ele>
        <time>2020-06-17T13:24:34Z</time>
      </trkpt>
      <trkpt lat="49.36171" lon="0.07981">
        <ele>5.4</ele>
        <time>2020-06-17T13:24:35Z</time>
      </trkpt>
      <trkpt lat="49.36174" lon="0.07979">
        <ele>5.4</ele>
        <time>2020-06-17T13:24:36Z</time>
      </trkpt>
      <trkpt lat="49.36181" lon="0.07978">
        <ele>5.4</ele>
        <time>2020-06-17T13:24:37Z</time>
      </trkpt>
      <trkpt lat="49.36185" lon="0.07975">
        <ele>5.4</ele>
        <time>2020-06-17T13:24:38Z</time>
      </trkpt>
      <trkpt lat="49.3619" lon="0.07972">
        <ele>5.4</ele>
        <time>2020-06-17T13:24:39Z</time>
      </trkpt>
      <trkpt lat="49.36194" lon="0.07968">
        <ele>5.4</ele>
        <time>2020-06-17T13:24:40Z</time>
      </trkpt>
      <trkpt lat="49.36199" lon="0.07965">
        <ele>5.4</ele>
        <time>2020-06-17T13:24:41Z</time>
      </trkpt>
      <trkpt lat="49.36206" lon="0.07963">
        <ele>5.4</ele>
        <time>2020-06-17T13:24:42Z</time>
      </trkpt>
      <trkpt lat="49.36213" lon="0.07962">
        <ele>5.4</ele>
        <time>2020-06-17T13:24:43Z</time>
      </trkpt>
      <trkpt lat="49.36218" lon="0.07959">
        <ele>5.4</ele>
        <time>2020-06-17T13:24:44Z</time>
      </trkpt>
      <trkpt lat="49.36224" lon="0.07956">
        <ele>5.4</ele>
        <time>2020-06-17T13:24:45Z</time>
      </trkpt>
      <trkpt lat="49.3623" lon="0.07954">
        <ele>5.4</ele>
        <time>2020-06-17T13:24:46Z</time>
      </trkpt>
      <trkpt lat="49.36234" lon="0.0795">
        <ele>5.4</ele>
        <time>2020-06-17T13:24:47Z</time>
      </trkpt>
      <trkpt lat="49.36238" lon="0.07946">
        <ele>5.4</ele>
        <time>2020-06-17T13:24:48Z</time>
      </trkpt>
      <trkpt lat="49.36242" lon="0.07942">
        <ele>5.4</ele>
        <time>2020-06-17T13:24:49Z</time>
      </trkpt>
      <trkpt lat="49.36247" lon="0.07939">
        <ele>5.4</ele>
        <time>2020-06-17T13:24:50Z</time>
      </trkpt>
      <trkpt lat="49.36251" lon="0.07936">
        <ele>5.3</ele>
        <time>2020-06-17T13:24:51Z</time>
      </trkpt>
      <trkpt lat="49.36255" lon="0.07933">
        <ele>5.3</ele>
        <time>2020-06-17T13:24:52Z</time>
      </trkpt>
      <trkpt lat="49.3626" lon="0.0793">
        <ele>5.3</ele>
        <time>2020-06-17T13:24:53Z</time>
      </trkpt>
      <trkpt lat="49.36265" lon="0.07927">
        <ele>5.2</ele>
        <time>2020-06-17T13:24:54Z</time>
      </trkpt>
      <trkpt lat="49.3627" lon="0.07925">
        <ele>5.2</ele>
        <time>2020-06-17T13:24:55Z</time>
      </trkpt>
      <trkpt lat="49.36275" lon="0.07924">
        <ele>5.2</ele>
        <time>2020-06-17T13:24:56Z</time>
      </trkpt>
      <trkpt lat="49.36281" lon="0.07922">
        <ele>5.1</ele>
        <time>2020-06-17T13:24:57Z</time>
      </trkpt>
      <trkpt lat="49.36286" lon="0.0792">
        <ele>5</ele>
        <time>2020-06-17T13:24:58Z</time>
      </trkpt>
      <trkpt lat="49.3629" lon="0.07917">
        <ele>5</ele>
        <time>2020-06-17T13:24:59Z</time>
      </trkpt>
      <trkpt lat="49.36296" lon="0.07915">
        <ele>4.9</ele>
        <time>2020-06-17T13:25:00Z</time>
      </trkpt>
      <trkpt lat="49.36301" lon="0.07914">
        <ele>4.9</ele>
        <time>2020-06-17T13:25:01Z</time>
      </trkpt>
      <trkpt lat="49.36307" lon="0.07913">
        <ele>4.8</ele>
        <time>2020-06-17T13:25:02Z</time>
      </trkpt>
      <trkpt lat="49.36311" lon="0.07912">
        <ele>4.8</ele>
        <time>2020-06-17T13:25:03Z</time>
      </trkpt>
      <trkpt lat="49.36315" lon="0.07909">
        <ele>4.8</ele>
        <time>2020-06-17T13:25:04Z</time>
      </trkpt>
      <trkpt lat="49.36319" lon="0.07906">
        <ele>4.8</ele>
        <time>2020-06-17T13:25:05Z</time>
      </trkpt>
      <trkpt lat="49.36323" lon="0.07903">
        <ele>4.7</ele>
        <time>2020-06-17T13:25:06Z</time>
      </trkpt>
      <trkpt lat="49.36326" lon="0.079">
        <ele>4.7</ele>
        <time>2020-06-17T13:25:07Z</time>
      </trkpt>
      <trkpt lat="49.36329" lon="0.07896">
        <ele>4.7</ele>
        <time>2020-06-17T13:25:08Z</time>
      </trkpt>
      <trkpt lat="49.36332" lon="0.07891">
        <ele>4.8</ele>
        <time>2020-06-17T13:25:09Z</time>
      </trkpt>
      <trkpt lat="49.36335" lon="0.07885">
        <ele>4.8</ele>
        <time>2020-06-17T13:25:10Z</time>
      </trkpt>
      <trkpt lat="49.36338" lon="0.0788">
        <ele>4.8</ele>
        <time>2020-06-17T13:25:11Z</time>
      </trkpt>
      <trkpt lat="49.3634" lon="0.07876">
        <ele>4.8</ele>
        <time>2020-06-17T13:25:12Z</time>
      </trkpt>
      <trkpt lat="49.36343" lon="0.07872">
        <ele>4.8</ele>
        <time>2020-06-17T13:25:13Z</time>
      </trkpt>
      <trkpt lat="49.36346" lon="0.07868">
        <ele>4.8</ele>
        <time>2020-06-17T13:25:14Z</time>
      </trkpt>
      <trkpt lat="49.36349" lon="0.07863">
        <ele>4.8</ele>
        <time>2020-06-17T13:25:15Z</time>
      </trkpt>
      <trkpt lat="49.36351" lon="0.07858">
        <ele>4.8</ele>
        <time>2020-06-17T13:25:16Z</time>
      </trkpt>
      <trkpt lat="49.36353" lon="0.07854">
        <ele>4.8</ele>
        <time>2020-06-17T13:25:17Z</time>
      </trkpt>
      <trkpt lat="49.36356" lon="0.07849">
        <ele>4.8</ele>
        <time>2020-06-17T13:25:18Z</time>
      </trkpt>
      <trkpt lat="49.36358" lon="0.07844">
        <ele>4.8</ele>
        <time>2020-06-17T13:25:19Z</time>
      </trkpt>
      <trkpt lat="49.3636" lon="0.07839">
        <ele>4.8</ele>
        <time>2020-06-17T13:25:20Z</time>
      </trkpt>
      <trkpt lat="49.36362" lon="0.07834">
        <ele>4.8</ele>
        <time>2020-06-17T13:25:21Z</time>
      </trkpt>
      <trkpt lat="49.36364" lon="0.07829">
        <ele>4.8</ele>
        <time>2020-06-17T13:25:22Z</time>
      </trkpt>
      <trkpt lat="49.36364" lon="0.07828">
        <ele>4.8</ele>
        <time>2020-06-17T13:25:23Z</time>
      </trkpt>
      <trkpt lat="49.36366" lon="0.07823">
        <ele>4.8</ele>
        <time>2020-06-17T13:25:24Z</time>
      </trkpt>
      <trkpt lat="49.36367" lon="0.07822">
        <ele>4.8</ele>
        <time>2020-06-17T13:25:25Z</time>
      </trkpt>
      <trkpt lat="49.3637" lon="0.07819">
        <ele>4.8</ele>
        <time>2020-06-17T13:25:26Z</time>
      </trkpt>
      <trkpt lat="49.3637" lon="0.07818">
        <ele>4.8</ele>
        <time>2020-06-17T13:25:27Z</time>
      </trkpt>
      <trkpt lat="49.36372" lon="0.07816">
        <ele>4.6</ele>
        <time>2020-06-17T13:25:28Z</time>
      </trkpt>
      <trkpt lat="49.36373" lon="0.07814">
        <ele>4.6</ele>
        <time>2020-06-17T13:25:29Z</time>
      </trkpt>
      <trkpt lat="49.36374" lon="0.07812">
        <ele>4.6</ele>
        <time>2020-06-17T13:25:30Z</time>
      </trkpt>
      <trkpt lat="49.36373" lon="0.0781">
        <ele>4.6</ele>
        <time>2020-06-17T13:25:31Z</time>
      </trkpt>
      <trkpt lat="49.36374" lon="0.07804">
        <ele>4.5</ele>
        <time>2020-06-17T13:25:32Z</time>
      </trkpt>
      <trkpt lat="49.36374" lon="0.07803">
        <ele>4.5</ele>
        <time>2020-06-17T13:25:33Z</time>
      </trkpt>
      <trkpt lat="49.36375" lon="0.07799">
        <ele>4.5</ele>
        <time>2020-06-17T13:25:34Z</time>
      </trkpt>
      <trkpt lat="49.36376" lon="0.07798">
        <ele>4.5</ele>
        <time>2020-06-17T13:25:35Z</time>
      </trkpt>
      <trkpt lat="49.36377" lon="0.07795">
        <ele>4.5</ele>
        <time>2020-06-17T13:25:36Z</time>
      </trkpt>
      <trkpt lat="49.36377" lon="0.07793">
        <ele>4.4</ele>
        <time>2020-06-17T13:25:37Z</time>
      </trkpt>
      <trkpt lat="49.36377" lon="0.0779">
        <ele>4.4</ele>
        <time>2020-06-17T13:25:38Z</time>
      </trkpt>
      <trkpt lat="49.36378" lon="0.07787">
        <ele>4.4</ele>
        <time>2020-06-17T13:25:39Z</time>
      </trkpt>
      <trkpt lat="49.36377" lon="0.07787">
        <ele>4.4</ele>
        <time>2020-06-17T13:25:40Z</time>
      </trkpt>
      <trkpt lat="49.36377" lon="0.07787">
        <ele>4.4</ele>
        <time>2020-06-17T13:25:41Z</time>
      </trkpt>
      <trkpt lat="49.36377" lon="0.07788">
        <ele>4.4</ele>
        <time>2020-06-17T13:25:42Z</time>
      </trkpt>
      <trkpt lat="49.36376" lon="0.07788">
        <ele>4.4</ele>
        <time>2020-06-17T13:25:43Z</time>
      </trkpt>
      <trkpt lat="49.36376" lon="0.07789">
        <ele>4.4</ele>
        <time>2020-06-17T13:25:44Z</time>
      </trkpt>
      <trkpt lat="49.36376" lon="0.07789">
        <ele>4.4</ele>
        <time>2020-06-17T13:25:45Z</time>
      </trkpt>
      <trkpt lat="49.36375" lon="0.0779">
        <ele>4.4</ele>
        <time>2020-06-17T13:25:46Z</time>
      </trkpt>
      <trkpt lat="49.36375" lon="0.0779">
        <ele>4.4</ele>
        <time>2020-06-17T13:25:47Z</time>
      </trkpt>
      <trkpt lat="49.36374" lon="0.07792">
        <ele>4.3</ele>
        <time>2020-06-17T13:25:48Z</time>
      </trkpt>
      <trkpt lat="49.36374" lon="0.07793">
        <ele>4.3</ele>
        <time>2020-06-17T13:25:49Z</time>
      </trkpt>
      <trkpt lat="49.36373" lon="0.07793">
        <ele>4.3</ele>
        <time>2020-06-17T13:25:50Z</time>
      </trkpt>
      <trkpt lat="49.36373" lon="0.078">
        <ele>4.3</ele>
        <time>2020-06-17T13:25:52Z</time>
      </trkpt>
      <trkpt lat="49.36374" lon="0.07804">
        <ele>4.2</ele>
        <time>2020-06-17T13:25:53Z</time>
      </trkpt>
      <trkpt lat="49.36375" lon="0.07809">
        <ele>4.2</ele>
        <time>2020-06-17T13:25:54Z</time>
      </trkpt>
      <trkpt lat="49.36376" lon="0.07813">
        <ele>4.2</ele>
        <time>2020-06-17T13:25:55Z</time>
      </trkpt>
      <trkpt lat="49.36378" lon="0.07816">
        <ele>4.1</ele>
        <time>2020-06-17T13:25:56Z</time>
      </trkpt>
      <trkpt lat="49.3638" lon="0.0782">
        <ele>4.1</ele>
        <time>2020-06-17T13:25:57Z</time>
      </trkpt>
      <trkpt lat="49.36383" lon="0.07822">
        <ele>4</ele>
        <time>2020-06-17T13:25:58Z</time>
      </trkpt>
      <trkpt lat="49.36384" lon="0.07822">
        <ele>4</ele>
        <time>2020-06-17T13:25:59Z</time>
      </trkpt>
      <trkpt lat="49.36387" lon="0.07823">
        <ele>4</ele>
        <time>2020-06-17T13:26:00Z</time>
      </trkpt>
      <trkpt lat="49.36388" lon="0.07823">
        <ele>4</ele>
        <time>2020-06-17T13:26:01Z</time>
      </trkpt>
      <trkpt lat="49.36391" lon="0.07824">
        <ele>4</ele>
        <time>2020-06-17T13:26:02Z</time>
      </trkpt>
      <trkpt lat="49.36395" lon="0.07825">
        <ele>3.9</ele>
        <time>2020-06-17T13:26:03Z</time>
      </trkpt>
      <trkpt lat="49.36398" lon="0.07826">
        <ele>3.9</ele>
        <time>2020-06-17T13:26:04Z</time>
      </trkpt>
      <trkpt lat="49.36401" lon="0.0783">
        <ele>3.9</ele>
        <time>2020-06-17T13:26:05Z</time>
      </trkpt>
      <trkpt lat="49.36401" lon="0.07831">
        <ele>3.8</ele>
        <time>2020-06-17T13:26:06Z</time>
      </trkpt>
      <trkpt lat="49.36403" lon="0.07836">
        <ele>3.8</ele>
        <time>2020-06-17T13:26:07Z</time>
      </trkpt>
      <trkpt lat="49.36402" lon="0.07842">
        <ele>3.8</ele>
        <time>2020-06-17T13:26:08Z</time>
      </trkpt>
      <trkpt lat="49.36402" lon="0.07844">
        <ele>3.8</ele>
        <time>2020-06-17T13:26:09Z</time>
      </trkpt>
      <trkpt lat="49.36403" lon="0.07849">
        <ele>3.8</ele>
        <time>2020-06-17T13:26:10Z</time>
      </trkpt>
      <trkpt lat="49.36404" lon="0.07852">
        <ele>3.9</ele>
        <time>2020-06-17T13:26:11Z</time>
      </trkpt>
      <trkpt lat="49.36407" lon="0.07856">
        <ele>3.9</ele>
        <time>2020-06-17T13:26:12Z</time>
      </trkpt>
      <trkpt lat="49.36408" lon="0.07857">
        <ele>3.9</ele>
        <time>2020-06-17T13:26:13Z</time>
      </trkpt>
      <trkpt lat="49.3641" lon="0.07861">
        <ele>4</ele>
        <time>2020-06-17T13:26:14Z</time>
      </trkpt>
      <trkpt lat="49.3641" lon="0.07862">
        <ele>4</ele>
        <time>2020-06-17T13:26:15Z</time>
      </trkpt>
      <trkpt lat="49.36413" lon="0.07865">
        <ele>4</ele>
        <time>2020-06-17T13:26:16Z</time>
      </trkpt>
      <trkpt lat="49.36413" lon="0.07867">
        <ele>4.1</ele>
        <time>2020-06-17T13:26:17Z</time>
      </trkpt>
      <trkpt lat="49.36415" lon="0.0787">
        <ele>4.1</ele>
        <time>2020-06-17T13:26:18Z</time>
      </trkpt>
      <trkpt lat="49.36416" lon="0.07871">
        <ele>4.1</ele>
        <time>2020-06-17T13:26:19Z</time>
      </trkpt>
      <trkpt lat="49.36417" lon="0.07873">
        <ele>4.1</ele>
        <time>2020-06-17T13:26:20Z</time>
      </trkpt>
      <trkpt lat="49.36418" lon="0.07874">
        <ele>4.2</ele>
        <time>2020-06-17T13:26:21Z</time>
      </trkpt>
      <trkpt lat="49.3642" lon="0.07878">
        <ele>4.2</ele>
        <time>2020-06-17T13:26:22Z</time>
      </trkpt>
      <trkpt lat="49.3642" lon="0.07879">
        <ele>4.2</ele>
        <time>2020-06-17T13:26:23Z</time>
      </trkpt>
      <trkpt lat="49.36421" lon="0.07882">
        <ele>4.2</ele>
        <time>2020-06-17T13:26:24Z</time>
      </trkpt>
      <trkpt lat="49.36422" lon="0.07884">
        <ele>4.3</ele>
        <time>2020-06-17T13:26:25Z</time>
      </trkpt>
      <trkpt lat="49.36423" lon="0.07885">
        <ele>4.3</ele>
        <time>2020-06-17T13:26:26Z</time>
      </trkpt>
      <trkpt lat="49.36424" lon="0.07886">
        <ele>4.2</ele>
        <time>2020-06-17T13:26:27Z</time>
      </trkpt>
      <trkpt lat="49.36426" lon="0.07888">
        <ele>4.2</ele>
        <time>2020-06-17T13:26:28Z</time>
      </trkpt>
      <trkpt lat="49.36427" lon="0.07889">
        <ele>4.1</ele>
        <time>2020-06-17T13:26:29Z</time>
      </trkpt>
      <trkpt lat="49.36427" lon="0.0789">
        <ele>4.1</ele>
        <time>2020-06-17T13:26:30Z</time>
      </trkpt>
      <trkpt lat="49.36428" lon="0.07891">
        <ele>4.1</ele>
        <time>2020-06-17T13:26:31Z</time>
      </trkpt>
      <trkpt lat="49.36429" lon="0.07891">
        <ele>4.1</ele>
        <time>2020-06-17T13:26:32Z</time>
      </trkpt>
      <trkpt lat="49.3643" lon="0.07892">
        <ele>4.1</ele>
        <time>2020-06-17T13:26:33Z</time>
      </trkpt>
      <trkpt lat="49.36433" lon="0.07894">
        <ele>4</ele>
        <time>2020-06-17T13:26:34Z</time>
      </trkpt>
      <trkpt lat="49.36434" lon="0.07895">
        <ele>4</ele>
        <time>2020-06-17T13:26:35Z</time>
      </trkpt>
      <trkpt lat="49.36436" lon="0.07895">
        <ele>3.9</ele>
        <time>2020-06-17T13:26:36Z</time>
      </trkpt>
      <trkpt lat="49.36437" lon="0.07895">
        <ele>3.9</ele>
        <time>2020-06-17T13:26:37Z</time>
      </trkpt>
      <trkpt lat="49.36438" lon="0.07896">
        <ele>3.9</ele>
        <time>2020-06-17T13:26:38Z</time>
      </trkpt>
      <trkpt lat="49.36439" lon="0.07897">
        <ele>3.8</ele>
        <time>2020-06-17T13:26:39Z</time>
      </trkpt>
      <trkpt lat="49.36441" lon="0.079">
        <ele>3.8</ele>
        <time>2020-06-17T13:26:40Z</time>
      </trkpt>
      <trkpt lat="49.36442" lon="0.07901">
        <ele>3.8</ele>
        <time>2020-06-17T13:26:41Z</time>
      </trkpt>
      <trkpt lat="49.36443" lon="0.07904">
        <ele>3.8</ele>
        <time>2020-06-17T13:26:42Z</time>
      </trkpt>
      <trkpt lat="49.36444" lon="0.07906">
        <ele>3.9</ele>
        <time>2020-06-17T13:26:43Z</time>
      </trkpt>
      <trkpt lat="49.36444" lon="0.07907">
        <ele>3.9</ele>
        <time>2020-06-17T13:26:44Z</time>
      </trkpt>
      <trkpt lat="49.36444" lon="0.07909">
        <ele>3.9</ele>
        <time>2020-06-17T13:26:45Z</time>
      </trkpt>
      <trkpt lat="49.36445" lon="0.07911">
        <ele>3.9</ele>
        <time>2020-06-17T13:26:46Z</time>
      </trkpt>
      <trkpt lat="49.36445" lon="0.07914">
        <ele>4</ele>
        <time>2020-06-17T13:26:47Z</time>
      </trkpt>
      <trkpt lat="49.36446" lon="0.07916">
        <ele>4</ele>
        <time>2020-06-17T13:26:48Z</time>
      </trkpt>
      <trkpt lat="49.36446" lon="0.07919">
        <ele>4</ele>
        <time>2020-06-17T13:26:49Z</time>
      </trkpt>
      <trkpt lat="49.36447" lon="0.07921">
        <ele>4</ele>
        <time>2020-06-17T13:26:50Z</time>
      </trkpt>
      <trkpt lat="49.36448" lon="0.07924">
        <ele>4</ele>
        <time>2020-06-17T13:26:51Z</time>
      </trkpt>
      <trkpt lat="49.36448" lon="0.07926">
        <ele>4.1</ele>
        <time>2020-06-17T13:26:52Z</time>
      </trkpt>
      <trkpt lat="49.36448" lon="0.07931">
        <ele>4.1</ele>
        <time>2020-06-17T13:26:53Z</time>
      </trkpt>
      <trkpt lat="49.36448" lon="0.07933">
        <ele>4.1</ele>
        <time>2020-06-17T13:26:54Z</time>
      </trkpt>
      <trkpt lat="49.36448" lon="0.07937">
        <ele>4.2</ele>
        <time>2020-06-17T13:26:55Z</time>
      </trkpt>
      <trkpt lat="49.36449" lon="0.07942">
        <ele>4.2</ele>
        <time>2020-06-17T13:26:56Z</time>
      </trkpt>
      <trkpt lat="49.3645" lon="0.07947">
        <ele>4.2</ele>
        <time>2020-06-17T13:26:57Z</time>
      </trkpt>
      <trkpt lat="49.36452" lon="0.0795">
        <ele>4.3</ele>
        <time>2020-06-17T13:26:58Z</time>
      </trkpt>
      <trkpt lat="49.36453" lon="0.07951">
        <ele>4.3</ele>
        <time>2020-06-17T13:26:59Z</time>
      </trkpt>
      <trkpt lat="49.36456" lon="0.07953">
        <ele>4.4</ele>
        <time>2020-06-17T13:27:00Z</time>
      </trkpt>
      <trkpt lat="49.36456" lon="0.07954">
        <ele>4.4</ele>
        <time>2020-06-17T13:27:01Z</time>
      </trkpt>
      <trkpt lat="49.3646" lon="0.07958">
        <ele>4.5</ele>
        <time>2020-06-17T13:27:02Z</time>
      </trkpt>
      <trkpt lat="49.36461" lon="0.0796">
        <ele>4.5</ele>
        <time>2020-06-17T13:27:03Z</time>
      </trkpt>
      <trkpt lat="49.36464" lon="0.07964">
        <ele>4.5</ele>
        <time>2020-06-17T13:27:04Z</time>
      </trkpt>
      <trkpt lat="49.36465" lon="0.07966">
        <ele>4.5</ele>
        <time>2020-06-17T13:27:05Z</time>
      </trkpt>
      <trkpt lat="49.36466" lon="0.0797">
        <ele>4.6</ele>
        <time>2020-06-17T13:27:06Z</time>
      </trkpt>
      <trkpt lat="49.36467" lon="0.07972">
        <ele>4.6</ele>
        <time>2020-06-17T13:27:07Z</time>
      </trkpt>
      <trkpt lat="49.36469" lon="0.07976">
        <ele>4.6</ele>
        <time>2020-06-17T13:27:08Z</time>
      </trkpt>
      <trkpt lat="49.3647" lon="0.07977">
        <ele>4.6</ele>
        <time>2020-06-17T13:27:09Z</time>
      </trkpt>
      <trkpt lat="49.36471" lon="0.07982">
        <ele>4.6</ele>
        <time>2020-06-17T13:27:10Z</time>
      </trkpt>
      <trkpt lat="49.36472" lon="0.07983">
        <ele>4.6</ele>
        <time>2020-06-17T13:27:11Z</time>
      </trkpt>
      <trkpt lat="49.36473" lon="0.07988">
        <ele>4.6</ele>
        <time>2020-06-17T13:27:12Z</time>
      </trkpt>
      <trkpt lat="49.36474" lon="0.0799">
        <ele>4.6</ele>
        <time>2020-06-17T13:27:13Z</time>
      </trkpt>
      <trkpt lat="49.36475" lon="0.07996">
        <ele>4.6</ele>
        <time>2020-06-17T13:27:14Z</time>
      </trkpt>
      <trkpt lat="49.36475" lon="0.07998">
        <ele>4.6</ele>
        <time>2020-06-17T13:27:15Z</time>
      </trkpt>
      <trkpt lat="49.36474" lon="0.08003">
        <ele>4.6</ele>
        <time>2020-06-17T13:27:16Z</time>
      </trkpt>
      <trkpt lat="49.36473" lon="0.08008">
        <ele>4.7</ele>
        <time>2020-06-17T13:27:17Z</time>
      </trkpt>
      <trkpt lat="49.36471" lon="0.08012">
        <ele>4.7</ele>
        <time>2020-06-17T13:27:18Z</time>
      </trkpt>
      <trkpt lat="49.36469" lon="0.08016">
        <ele>4.7</ele>
        <time>2020-06-17T13:27:19Z</time>
      </trkpt>
      <trkpt lat="49.36467" lon="0.08021">
        <ele>4.7</ele>
        <time>2020-06-17T13:27:20Z</time>
      </trkpt>
      <trkpt lat="49.36465" lon="0.08025">
        <ele>4.7</ele>
        <time>2020-06-17T13:27:21Z</time>
      </trkpt>
      <trkpt lat="49.36462" lon="0.0803">
        <ele>4.7</ele>
        <time>2020-06-17T13:27:22Z</time>
      </trkpt>
      <trkpt lat="49.36459" lon="0.08035">
        <ele>4.7</ele>
        <time>2020-06-17T13:27:23Z</time>
      </trkpt>
      <trkpt lat="49.36456" lon="0.08039">
        <ele>4.7</ele>
        <time>2020-06-17T13:27:24Z</time>
      </trkpt>
      <trkpt lat="49.36452" lon="0.08044">
        <ele>4.7</ele>
        <time>2020-06-17T13:27:25Z</time>
      </trkpt>
      <trkpt lat="49.36448" lon="0.08048">
        <ele>4.7</ele>
        <time>2020-06-17T13:27:26Z</time>
      </trkpt>
      <trkpt lat="49.36444" lon="0.08053">
        <ele>4.7</ele>
        <time>2020-06-17T13:27:27Z</time>
      </trkpt>
      <trkpt lat="49.36441" lon="0.08058">
        <ele>4.7</ele>
        <time>2020-06-17T13:27:28Z</time>
      </trkpt>
      <trkpt lat="49.36437" lon="0.08061">
        <ele>4.7</ele>
        <time>2020-06-17T13:27:29Z</time>
      </trkpt>
      <trkpt lat="49.36434" lon="0.08066">
        <ele>4.7</ele>
        <time>2020-06-17T13:27:30Z</time>
      </trkpt>
      <trkpt lat="49.3643" lon="0.08071">
        <ele>4.7</ele>
        <time>2020-06-17T13:27:31Z</time>
      </trkpt>
      <trkpt lat="49.36426" lon="0.08076">
        <ele>4.7</ele>
        <time>2020-06-17T13:27:32Z</time>
      </trkpt>
      <trkpt lat="49.36423" lon="0.08081">
        <ele>4.7</ele>
        <time>2020-06-17T13:27:33Z</time>
      </trkpt>
      <trkpt lat="49.3642" lon="0.08085">
        <ele>4.7</ele>
        <time>2020-06-17T13:27:34Z</time>
      </trkpt>
      <trkpt lat="49.36418" lon="0.0809">
        <ele>4.7</ele>
        <time>2020-06-17T13:27:35Z</time>
      </trkpt>
      <trkpt lat="49.36414" lon="0.08095">
        <ele>4.7</ele>
        <time>2020-06-17T13:27:36Z</time>
      </trkpt>
      <trkpt lat="49.36411" lon="0.08101">
        <ele>4.7</ele>
        <time>2020-06-17T13:27:37Z</time>
      </trkpt>
      <trkpt lat="49.36407" lon="0.08106">
        <ele>4.7</ele>
        <time>2020-06-17T13:27:38Z</time>
      </trkpt>
      <trkpt lat="49.36404" lon="0.08111">
        <ele>4.7</ele>
        <time>2020-06-17T13:27:39Z</time>
      </trkpt>
      <trkpt lat="49.36401" lon="0.08116">
        <ele>4.7</ele>
        <time>2020-06-17T13:27:40Z</time>
      </trkpt>
      <trkpt lat="49.36399" lon="0.0812">
        <ele>4.7</ele>
        <time>2020-06-17T13:27:41Z</time>
      </trkpt>
      <trkpt lat="49.36395" lon="0.08126">
        <ele>4.7</ele>
        <time>2020-06-17T13:27:42Z</time>
      </trkpt>
      <trkpt lat="49.36391" lon="0.08133">
        <ele>4.7</ele>
        <time>2020-06-17T13:27:43Z</time>
      </trkpt>
      <trkpt lat="49.36388" lon="0.08137">
        <ele>4.7</ele>
        <time>2020-06-17T13:27:44Z</time>
      </trkpt>
      <trkpt lat="49.36385" lon="0.08143">
        <ele>4.8</ele>
        <time>2020-06-17T13:27:45Z</time>
      </trkpt>
      <trkpt lat="49.36382" lon="0.08149">
        <ele>4.8</ele>
        <time>2020-06-17T13:27:46Z</time>
      </trkpt>
      <trkpt lat="49.36379" lon="0.08153">
        <ele>4.8</ele>
        <time>2020-06-17T13:27:47Z</time>
      </trkpt>
      <trkpt lat="49.36376" lon="0.08156">
        <ele>4.8</ele>
        <time>2020-06-17T13:27:48Z</time>
      </trkpt>
      <trkpt lat="49.36372" lon="0.08158">
        <ele>4.9</ele>
        <time>2020-06-17T13:27:49Z</time>
      </trkpt>
      <trkpt lat="49.36369" lon="0.0816">
        <ele>4.9</ele>
        <time>2020-06-17T13:27:50Z</time>
      </trkpt>
      <trkpt lat="49.36366" lon="0.08164">
        <ele>4.9</ele>
        <time>2020-06-17T13:27:51Z</time>
      </trkpt>
      <trkpt lat="49.36363" lon="0.08166">
        <ele>4.9</ele>
        <time>2020-06-17T13:27:52Z</time>
      </trkpt>
      <trkpt lat="49.3636" lon="0.08169">
        <ele>5</ele>
        <time>2020-06-17T13:27:53Z</time>
      </trkpt>
      <trkpt lat="49.36357" lon="0.08172">
        <ele>5</ele>
        <time>2020-06-17T13:27:54Z</time>
      </trkpt>
      <trkpt lat="49.36355" lon="0.08173">
        <ele>5</ele>
        <time>2020-06-17T13:27:55Z</time>
      </trkpt>
      <trkpt lat="49.36352" lon="0.08174">
        <ele>5.1</ele>
        <time>2020-06-17T13:27:56Z</time>
      </trkpt>
      <trkpt lat="49.36349" lon="0.08176">
        <ele>5.1</ele>
        <time>2020-06-17T13:27:57Z</time>
      </trkpt>
      <trkpt lat="49.36347" lon="0.08179">
        <ele>5.1</ele>
        <time>2020-06-17T13:27:58Z</time>
      </trkpt>
      <trkpt lat="49.36347" lon="0.0818">
        <ele>5.1</ele>
        <time>2020-06-17T13:27:59Z</time>
      </trkpt>
      <trkpt lat="49.36348" lon="0.08181">
        <ele>5.2</ele>
        <time>2020-06-17T13:28:00Z</time>
      </trkpt>
      <trkpt lat="49.36349" lon="0.08182">
        <ele>5.2</ele>
        <time>2020-06-17T13:28:01Z</time>
      </trkpt>
      <trkpt lat="49.36351" lon="0.08182">
        <ele>5.2</ele>
        <time>2020-06-17T13:28:02Z</time>
      </trkpt>
      <trkpt lat="49.36353" lon="0.08184">
        <ele>4.8</ele>
        <time>2020-06-17T13:28:03Z</time>
      </trkpt>
      <trkpt lat="49.36354" lon="0.08185">
        <ele>3.8</ele>
        <time>2020-06-17T13:28:04Z</time>
      </trkpt>
      <trkpt lat="49.36356" lon="0.08185">
        <ele>3.8</ele>
        <time>2020-06-17T13:28:05Z</time>
      </trkpt>
      <trkpt lat="49.36357" lon="0.08186">
        <ele>3.4</ele>
        <time>2020-06-17T13:28:06Z</time>
      </trkpt>
      <trkpt lat="49.36358" lon="0.0819">
        <ele>2.9</ele>
        <time>2020-06-17T13:28:07Z</time>
      </trkpt>
      <trkpt lat="49.36359" lon="0.08194">
        <ele>2.3</ele>
        <time>2020-06-17T13:28:08Z</time>
      </trkpt>
      <trkpt lat="49.3636" lon="0.08199">
        <ele>2.3</ele>
        <time>2020-06-17T13:28:09Z</time>
      </trkpt>
      <trkpt lat="49.36358" lon="0.08205">
        <ele>2.4</ele>
        <time>2020-06-17T13:28:10Z</time>
      </trkpt>
      <trkpt lat="49.36357" lon="0.08206">
        <ele>2.4</ele>
        <time>2020-06-17T13:28:11Z</time>
      </trkpt>
      <trkpt lat="49.36355" lon="0.0821">
        <ele>2.5</ele>
        <time>2020-06-17T13:28:12Z</time>
      </trkpt>
      <trkpt lat="49.36352" lon="0.08214">
        <ele>2.6</ele>
        <time>2020-06-17T13:28:13Z</time>
      </trkpt>
      <trkpt lat="49.3635" lon="0.08218">
        <ele>2.6</ele>
        <time>2020-06-17T13:28:14Z</time>
      </trkpt>
      <trkpt lat="49.36347" lon="0.08221">
        <ele>2.7</ele>
        <time>2020-06-17T13:28:15Z</time>
      </trkpt>
      <trkpt lat="49.36344" lon="0.08225">
        <ele>2.8</ele>
        <time>2020-06-17T13:28:16Z</time>
      </trkpt>
      <trkpt lat="49.36342" lon="0.0823">
        <ele>2.8</ele>
        <time>2020-06-17T13:28:17Z</time>
      </trkpt>
      <trkpt lat="49.3634" lon="0.08234">
        <ele>2.9</ele>
        <time>2020-06-17T13:28:18Z</time>
      </trkpt>
      <trkpt lat="49.36337" lon="0.08239">
        <ele>2.9</ele>
        <time>2020-06-17T13:28:19Z</time>
      </trkpt>
      <trkpt lat="49.36335" lon="0.08242">
        <ele>2.9</ele>
        <time>2020-06-17T13:28:20Z</time>
      </trkpt>
      <trkpt lat="49.36333" lon="0.08246">
        <ele>3</ele>
        <time>2020-06-17T13:28:21Z</time>
      </trkpt>
      <trkpt lat="49.36331" lon="0.0825">
        <ele>3</ele>
        <time>2020-06-17T13:28:22Z</time>
      </trkpt>
      <trkpt lat="49.36329" lon="0.08255">
        <ele>3</ele>
        <time>2020-06-17T13:28:23Z</time>
      </trkpt>
      <trkpt lat="49.36327" lon="0.08259">
        <ele>3</ele>
        <time>2020-06-17T13:28:24Z</time>
      </trkpt>
      <trkpt lat="49.36325" lon="0.08264">
        <ele>3.1</ele>
        <time>2020-06-17T13:28:25Z</time>
      </trkpt>
      <trkpt lat="49.36324" lon="0.08266">
        <ele>3.1</ele>
        <time>2020-06-17T13:28:26Z</time>
      </trkpt>
      <trkpt lat="49.36325" lon="0.08268">
        <ele>3.1</ele>
        <time>2020-06-17T13:28:27Z</time>
      </trkpt>
      <trkpt lat="49.36325" lon="0.0827">
        <ele>3.1</ele>
        <time>2020-06-17T13:28:28Z</time>
      </trkpt>
      <trkpt lat="49.36325" lon="0.08272">
        <ele>3.1</ele>
        <time>2020-06-17T13:28:29Z</time>
      </trkpt>
      <trkpt lat="49.36325" lon="0.08273">
        <ele>3.1</ele>
        <time>2020-06-17T13:28:30Z</time>
      </trkpt>
      <trkpt lat="49.36325" lon="0.08275">
        <ele>3.1</ele>
        <time>2020-06-17T13:28:31Z</time>
      </trkpt>
      <trkpt lat="49.36324" lon="0.08276">
        <ele>3.1</ele>
        <time>2020-06-17T13:28:32Z</time>
      </trkpt>
      <trkpt lat="49.36322" lon="0.08281">
        <ele>3.2</ele>
        <time>2020-06-17T13:28:33Z</time>
      </trkpt>
      <trkpt lat="49.36321" lon="0.08283">
        <ele>3.2</ele>
        <time>2020-06-17T13:28:34Z</time>
      </trkpt>
      <trkpt lat="49.36319" lon="0.08288">
        <ele>3.2</ele>
        <time>2020-06-17T13:28:35Z</time>
      </trkpt>
      <trkpt lat="49.36316" lon="0.08291">
        <ele>3.2</ele>
        <time>2020-06-17T13:28:36Z</time>
      </trkpt>
      <trkpt lat="49.36313" lon="0.08295">
        <ele>3.2</ele>
        <time>2020-06-17T13:28:37Z</time>
      </trkpt>
      <trkpt lat="49.3631" lon="0.08299">
        <ele>3.3</ele>
        <time>2020-06-17T13:28:38Z</time>
      </trkpt>
      <trkpt lat="49.36306" lon="0.08305">
        <ele>3.3</ele>
        <time>2020-06-17T13:28:39Z</time>
      </trkpt>
      <trkpt lat="49.36301" lon="0.0831">
        <ele>3.4</ele>
        <time>2020-06-17T13:28:40Z</time>
      </trkpt>
      <trkpt lat="49.36298" lon="0.08316">
        <ele>3.4</ele>
        <time>2020-06-17T13:28:41Z</time>
      </trkpt>
      <trkpt lat="49.36294" lon="0.08321">
        <ele>3.5</ele>
        <time>2020-06-17T13:28:42Z</time>
      </trkpt>
      <trkpt lat="49.3629" lon="0.08325">
        <ele>3.5</ele>
        <time>2020-06-17T13:28:43Z</time>
      </trkpt>
      <trkpt lat="49.36286" lon="0.08329">
        <ele>3.6</ele>
        <time>2020-06-17T13:28:44Z</time>
      </trkpt>
      <trkpt lat="49.36284" lon="0.08333">
        <ele>3.6</ele>
        <time>2020-06-17T13:28:45Z</time>
      </trkpt>
      <trkpt lat="49.36281" lon="0.08337">
        <ele>3.7</ele>
        <time>2020-06-17T13:28:46Z</time>
      </trkpt>
      <trkpt lat="49.36278" lon="0.08341">
        <ele>3.7</ele>
        <time>2020-06-17T13:28:47Z</time>
      </trkpt>
      <trkpt lat="49.36275" lon="0.08346">
        <ele>3.8</ele>
        <time>2020-06-17T13:28:48Z</time>
      </trkpt>
      <trkpt lat="49.36273" lon="0.0835">
        <ele>3.8</ele>
        <time>2020-06-17T13:28:49Z</time>
      </trkpt>
      <trkpt lat="49.3627" lon="0.08355">
        <ele>3.9</ele>
        <time>2020-06-17T13:28:50Z</time>
      </trkpt>
      <trkpt lat="49.36267" lon="0.08359">
        <ele>3.9</ele>
        <time>2020-06-17T13:28:51Z</time>
      </trkpt>
      <trkpt lat="49.36265" lon="0.08362">
        <ele>4</ele>
        <time>2020-06-17T13:28:52Z</time>
      </trkpt>
      <trkpt lat="49.36263" lon="0.08365">
        <ele>4</ele>
        <time>2020-06-17T13:28:53Z</time>
      </trkpt>
      <trkpt lat="49.3626" lon="0.08368">
        <ele>4</ele>
        <time>2020-06-17T13:28:54Z</time>
      </trkpt>
      <trkpt lat="49.36257" lon="0.08372">
        <ele>4.1</ele>
        <time>2020-06-17T13:28:55Z</time>
      </trkpt>
      <trkpt lat="49.36255" lon="0.08375">
        <ele>4.1</ele>
        <time>2020-06-17T13:28:56Z</time>
      </trkpt>
      <trkpt lat="49.36252" lon="0.08378">
        <ele>4.1</ele>
        <time>2020-06-17T13:28:57Z</time>
      </trkpt>
      <trkpt lat="49.3625" lon="0.08382">
        <ele>4.1</ele>
        <time>2020-06-17T13:28:58Z</time>
      </trkpt>
      <trkpt lat="49.36247" lon="0.08385">
        <ele>4.1</ele>
        <time>2020-06-17T13:28:59Z</time>
      </trkpt>
      <trkpt lat="49.36245" lon="0.08388">
        <ele>4.1</ele>
        <time>2020-06-17T13:29:00Z</time>
      </trkpt>
      <trkpt lat="49.36242" lon="0.08392">
        <ele>4.1</ele>
        <time>2020-06-17T13:29:01Z</time>
      </trkpt>
      <trkpt lat="49.36239" lon="0.08395">
        <ele>4.1</ele>
        <time>2020-06-17T13:29:02Z</time>
      </trkpt>
      <trkpt lat="49.36235" lon="0.08399">
        <ele>4.1</ele>
        <time>2020-06-17T13:29:03Z</time>
      </trkpt>
      <trkpt lat="49.36232" lon="0.08401">
        <ele>4.1</ele>
        <time>2020-06-17T13:29:04Z</time>
      </trkpt>
      <trkpt lat="49.36228" lon="0.08404">
        <ele>4.1</ele>
        <time>2020-06-17T13:29:05Z</time>
      </trkpt>
      <trkpt lat="49.36225" lon="0.08408">
        <ele>4.1</ele>
        <time>2020-06-17T13:29:06Z</time>
      </trkpt>
      <trkpt lat="49.36222" lon="0.08412">
        <ele>4.2</ele>
        <time>2020-06-17T13:29:07Z</time>
      </trkpt>
      <trkpt lat="49.36218" lon="0.08417">
        <ele>4.2</ele>
        <time>2020-06-17T13:29:08Z</time>
      </trkpt>
      <trkpt lat="49.36214" lon="0.0842">
        <ele>4.2</ele>
        <time>2020-06-17T13:29:09Z</time>
      </trkpt>
      <trkpt lat="49.36211" lon="0.08424">
        <ele>4.3</ele>
        <time>2020-06-17T13:29:10Z</time>
      </trkpt>
      <trkpt lat="49.36207" lon="0.08427">
        <ele>4.3</ele>
        <time>2020-06-17T13:29:11Z</time>
      </trkpt>
      <trkpt lat="49.36202" lon="0.08431">
        <ele>4.4</ele>
        <time>2020-06-17T13:29:12Z</time>
      </trkpt>
      <trkpt lat="49.36197" lon="0.08436">
        <ele>4.4</ele>
        <time>2020-06-17T13:29:13Z</time>
      </trkpt>
      <trkpt lat="49.36193" lon="0.0844">
        <ele>4.5</ele>
        <time>2020-06-17T13:29:14Z</time>
      </trkpt>
      <trkpt lat="49.36189" lon="0.08443">
        <ele>4.5</ele>
        <time>2020-06-17T13:29:15Z</time>
      </trkpt>
      <trkpt lat="49.36186" lon="0.08446">
        <ele>4.6</ele>
        <time>2020-06-17T13:29:16Z</time>
      </trkpt>
      <trkpt lat="49.36182" lon="0.08449">
        <ele>4.6</ele>
        <time>2020-06-17T13:29:17Z</time>
      </trkpt>
      <trkpt lat="49.36178" lon="0.08452">
        <ele>4.7</ele>
        <time>2020-06-17T13:29:18Z</time>
      </trkpt>
      <trkpt lat="49.36173" lon="0.08454">
        <ele>4.7</ele>
        <time>2020-06-17T13:29:19Z</time>
      </trkpt>
      <trkpt lat="49.36169" lon="0.08457">
        <ele>4.8</ele>
        <time>2020-06-17T13:29:20Z</time>
      </trkpt>
      <trkpt lat="49.36163" lon="0.08459">
        <ele>4.8</ele>
        <time>2020-06-17T13:29:21Z</time>
      </trkpt>
      <trkpt lat="49.36159" lon="0.08462">
        <ele>4.9</ele>
        <time>2020-06-17T13:29:22Z</time>
      </trkpt>
      <trkpt lat="49.36155" lon="0.08463">
        <ele>4.9</ele>
        <time>2020-06-17T13:29:23Z</time>
      </trkpt>
      <trkpt lat="49.36151" lon="0.08465">
        <ele>5</ele>
        <time>2020-06-17T13:29:24Z</time>
      </trkpt>
      <trkpt lat="49.36147" lon="0.08467">
        <ele>5.1</ele>
        <time>2020-06-17T13:29:25Z</time>
      </trkpt>
      <trkpt lat="49.36144" lon="0.08468">
        <ele>5.1</ele>
        <time>2020-06-17T13:29:26Z</time>
      </trkpt>
      <trkpt lat="49.3614" lon="0.0847">
        <ele>5.2</ele>
        <time>2020-06-17T13:29:27Z</time>
      </trkpt>
      <trkpt lat="49.36138" lon="0.08471">
        <ele>5.2</ele>
        <time>2020-06-17T13:29:28Z</time>
      </trkpt>
      <trkpt lat="49.36136" lon="0.08473">
        <ele>5.3</ele>
        <time>2020-06-17T13:29:29Z</time>
      </trkpt>
      <trkpt lat="49.36132" lon="0.08474">
        <ele>5.4</ele>
        <time>2020-06-17T13:29:30Z</time>
      </trkpt>
      <trkpt lat="49.3613" lon="0.08475">
        <ele>5.4</ele>
        <time>2020-06-17T13:29:31Z</time>
      </trkpt>
      <trkpt lat="49.36129" lon="0.08475">
        <ele>5.4</ele>
        <time>2020-06-17T13:29:32Z</time>
      </trkpt>
      <trkpt lat="49.36127" lon="0.08476">
        <ele>5.4</ele>
        <time>2020-06-17T13:29:33Z</time>
      </trkpt>
      <trkpt lat="49.36127" lon="0.08476">
        <ele>5.4</ele>
        <time>2020-06-17T13:29:34Z</time>
      </trkpt>
      <trkpt lat="49.36126" lon="0.08477">
        <ele>5.4</ele>
        <time>2020-06-17T13:29:35Z</time>
      </trkpt>
      <trkpt lat="49.36126" lon="0.08477">
        <ele>5.4</ele>
        <time>2020-06-17T13:29:36Z</time>
      </trkpt>
      <trkpt lat="49.36126" lon="0.08478">
        <ele>5.4</ele>
        <time>2020-06-17T13:29:37Z</time>
      </trkpt>
      <trkpt lat="49.36125" lon="0.08479">
        <ele>5.4</ele>
        <time>2020-06-17T13:29:38Z</time>
      </trkpt>
      <trkpt lat="49.36125" lon="0.08481">
        <ele>5.3</ele>
        <time>2020-06-17T13:29:39Z</time>
      </trkpt>
      <trkpt lat="49.36125" lon="0.08484">
        <ele>5.1</ele>
        <time>2020-06-17T13:29:40Z</time>
      </trkpt>
      <trkpt lat="49.36126" lon="0.08489">
        <ele>4.9</ele>
        <time>2020-06-17T13:29:41Z</time>
      </trkpt>
      <trkpt lat="49.36126" lon="0.08491">
        <ele>4.7</ele>
        <time>2020-06-17T13:29:42Z</time>
      </trkpt>
      <trkpt lat="49.36128" lon="0.08496">
        <ele>4.6</ele>
        <time>2020-06-17T13:29:43Z</time>
      </trkpt>
      <trkpt lat="49.36129" lon="0.08498">
        <ele>4.5</ele>
        <time>2020-06-17T13:29:44Z</time>
      </trkpt>
      <trkpt lat="49.3613" lon="0.08502">
        <ele>4.3</ele>
        <time>2020-06-17T13:29:45Z</time>
      </trkpt>
      <trkpt lat="49.36131" lon="0.08507">
        <ele>4.2</ele>
        <time>2020-06-17T13:29:46Z</time>
      </trkpt>
      <trkpt lat="49.36132" lon="0.08512">
        <ele>4</ele>
        <time>2020-06-17T13:29:47Z</time>
      </trkpt>
      <trkpt lat="49.36133" lon="0.08516">
        <ele>3.8</ele>
        <time>2020-06-17T13:29:48Z</time>
      </trkpt>
      <trkpt lat="49.36134" lon="0.0852">
        <ele>3.7</ele>
        <time>2020-06-17T13:29:49Z</time>
      </trkpt>
      <trkpt lat="49.36135" lon="0.08525">
        <ele>3.5</ele>
        <time>2020-06-17T13:29:50Z</time>
      </trkpt>
      <trkpt lat="49.36136" lon="0.08529">
        <ele>3.4</ele>
        <time>2020-06-17T13:29:51Z</time>
      </trkpt>
      <trkpt lat="49.36138" lon="0.08535">
        <ele>3.2</ele>
        <time>2020-06-17T13:29:52Z</time>
      </trkpt>
      <trkpt lat="49.36138" lon="0.08536">
        <ele>3.1</ele>
        <time>2020-06-17T13:29:53Z</time>
      </trkpt>
      <trkpt lat="49.36139" lon="0.0854">
        <ele>2.9</ele>
        <time>2020-06-17T13:29:54Z</time>
      </trkpt>
      <trkpt lat="49.36141" lon="0.08546">
        <ele>2.7</ele>
        <time>2020-06-17T13:29:55Z</time>
      </trkpt>
      <trkpt lat="49.36142" lon="0.08548">
        <ele>2.5</ele>
        <time>2020-06-17T13:29:56Z</time>
      </trkpt>
      <trkpt lat="49.36144" lon="0.08552">
        <ele>2.2</ele>
        <time>2020-06-17T13:29:57Z</time>
      </trkpt>
      <trkpt lat="49.36145" lon="0.08554">
        <ele>1.9</ele>
        <time>2020-06-17T13:29:58Z</time>
      </trkpt>
      <trkpt lat="49.36147" lon="0.08557">
        <ele>1.6</ele>
        <time>2020-06-17T13:29:59Z</time>
      </trkpt>
      <trkpt lat="49.3615" lon="0.08558">
        <ele>1.3</ele>
        <time>2020-06-17T13:30:00Z</time>
      </trkpt>
      <trkpt lat="49.36154" lon="0.08559">
        <ele>1</ele>
        <time>2020-06-17T13:30:01Z</time>
      </trkpt>
      <trkpt lat="49.36157" lon="0.08561">
        <ele>0.7</ele>
        <time>2020-06-17T13:30:02Z</time>
      </trkpt>
      <trkpt lat="49.36161" lon="0.08562">
        <ele>0.3</ele>
        <time>2020-06-17T13:30:03Z</time>
      </trkpt>
      <trkpt lat="49.36165" lon="0.08562">
        <ele>0.1</ele>
        <time>2020-06-17T13:30:04Z</time>
      </trkpt>
      <trkpt lat="49.36169" lon="0.08561">
        <ele>-0.2</ele>
        <time>2020-06-17T13:30:05Z</time>
      </trkpt>
      <trkpt lat="49.36174" lon="0.08561">
        <ele>-0.2</ele>
        <time>2020-06-17T13:30:06Z</time>
      </trkpt>
      <trkpt lat="49.36177" lon="0.0856">
        <ele>-0.2</ele>
        <time>2020-06-17T13:30:07Z</time>
      </trkpt>
      <trkpt lat="49.36182" lon="0.0856">
        <ele>0.2</ele>
        <time>2020-06-17T13:30:08Z</time>
      </trkpt>
      <trkpt lat="49.36185" lon="0.0856">
        <ele>0.4</ele>
        <time>2020-06-17T13:30:09Z</time>
      </trkpt>
      <trkpt lat="49.36189" lon="0.08559">
        <ele>0.7</ele>
        <time>2020-06-17T13:30:10Z</time>
      </trkpt>
      <trkpt lat="49.3619" lon="0.08559">
        <ele>1.1</ele>
        <time>2020-06-17T13:30:11Z</time>
      </trkpt>
      <trkpt lat="49.36193" lon="0.08559">
        <ele>1.5</ele>
        <time>2020-06-17T13:30:12Z</time>
      </trkpt>
      <trkpt lat="49.36193" lon="0.0856">
        <ele>1.4</ele>
        <time>2020-06-17T13:30:13Z</time>
      </trkpt>
      <trkpt lat="49.36195" lon="0.08561">
        <ele>1.8</ele>
        <time>2020-06-17T13:30:14Z</time>
      </trkpt>
      <trkpt lat="49.36196" lon="0.08562">
        <ele>2.2</ele>
        <time>2020-06-17T13:30:15Z</time>
      </trkpt>
      <trkpt lat="49.36197" lon="0.08563">
        <ele>2.1</ele>
        <time>2020-06-17T13:30:16Z</time>
      </trkpt>
      <trkpt lat="49.36199" lon="0.08564">
        <ele>2.6</ele>
        <time>2020-06-17T13:30:17Z</time>
      </trkpt>
      <trkpt lat="49.36199" lon="0.08566">
        <ele>2.4</ele>
        <time>2020-06-17T13:30:18Z</time>
      </trkpt>
      <trkpt lat="49.36201" lon="0.08565">
        <ele>2.9</ele>
        <time>2020-06-17T13:30:19Z</time>
      </trkpt>
      <trkpt lat="49.36203" lon="0.08565">
        <ele>2.7</ele>
        <time>2020-06-17T13:30:20Z</time>
      </trkpt>
      <trkpt lat="49.36207" lon="0.08563">
        <ele>3.6</ele>
        <time>2020-06-17T13:30:21Z</time>
      </trkpt>
      <trkpt lat="49.36208" lon="0.08562">
        <ele>2.4</ele>
        <time>2020-06-17T13:30:22Z</time>
      </trkpt>
      <trkpt lat="49.36211" lon="0.0856">
        <ele>2.5</ele>
        <time>2020-06-17T13:30:23Z</time>
      </trkpt>
      <trkpt lat="49.36214" lon="0.08558">
        <ele>2.7</ele>
        <time>2020-06-17T13:30:24Z</time>
      </trkpt>
      <trkpt lat="49.36215" lon="0.08557">
        <ele>1</ele>
        <time>2020-06-17T13:30:25Z</time>
      </trkpt>
      <trkpt lat="49.36218" lon="0.08555">
        <ele>0.8</ele>
        <time>2020-06-17T13:30:26Z</time>
      </trkpt>
      <trkpt lat="49.36219" lon="0.08555">
        <ele>0.7</ele>
        <time>2020-06-17T13:30:27Z</time>
      </trkpt>
      <trkpt lat="49.36221" lon="0.08557">
        <ele>0.5</ele>
        <time>2020-06-17T13:30:28Z</time>
      </trkpt>
      <trkpt lat="49.36223" lon="0.08559">
        <ele>2.1</ele>
        <time>2020-06-17T13:30:29Z</time>
      </trkpt>
      <trkpt lat="49.36225" lon="0.08561">
        <ele>2</ele>
        <time>2020-06-17T13:30:30Z</time>
      </trkpt>
      <trkpt lat="49.36227" lon="0.08563">
        <ele>3.8</ele>
        <time>2020-06-17T13:30:31Z</time>
      </trkpt>
      <trkpt lat="49.36228" lon="0.08564">
        <ele>3.6</ele>
        <time>2020-06-17T13:30:32Z</time>
      </trkpt>
      <trkpt lat="49.36229" lon="0.08565">
        <ele>3.7</ele>
        <time>2020-06-17T13:30:33Z</time>
      </trkpt>
      <trkpt lat="49.3623" lon="0.08566">
        <ele>3.5</ele>
        <time>2020-06-17T13:30:34Z</time>
      </trkpt>
      <trkpt lat="49.36232" lon="0.08567">
        <ele>5.1</ele>
        <time>2020-06-17T13:30:35Z</time>
      </trkpt>
      <trkpt lat="49.36233" lon="0.08567">
        <ele>5</ele>
        <time>2020-06-17T13:30:36Z</time>
      </trkpt>
      <trkpt lat="49.36234" lon="0.08568">
        <ele>5.1</ele>
        <time>2020-06-17T13:30:37Z</time>
      </trkpt>
      <trkpt lat="49.36237" lon="0.08567">
        <ele>5.1</ele>
        <time>2020-06-17T13:30:38Z</time>
      </trkpt>
      <trkpt lat="49.36238" lon="0.08567">
        <ele>5.1</ele>
        <time>2020-06-17T13:30:39Z</time>
      </trkpt>
      <trkpt lat="49.36241" lon="0.08566">
        <ele>5.1</ele>
        <time>2020-06-17T13:30:40Z</time>
      </trkpt>
      <trkpt lat="49.36245" lon="0.08564">
        <ele>5.1</ele>
        <time>2020-06-17T13:30:41Z</time>
      </trkpt>
      <trkpt lat="49.36248" lon="0.08563">
        <ele>5.1</ele>
        <time>2020-06-17T13:30:42Z</time>
      </trkpt>
      <trkpt lat="49.36251" lon="0.08561">
        <ele>5.1</ele>
        <time>2020-06-17T13:30:43Z</time>
      </trkpt>
      <trkpt lat="49.36255" lon="0.08558">
        <ele>5.1</ele>
        <time>2020-06-17T13:30:44Z</time>
      </trkpt>
      <trkpt lat="49.36259" lon="0.08555">
        <ele>5.1</ele>
        <time>2020-06-17T13:30:45Z</time>
      </trkpt>
      <trkpt lat="49.36262" lon="0.08552">
        <ele>5.1</ele>
        <time>2020-06-17T13:30:46Z</time>
      </trkpt>
      <trkpt lat="49.36266" lon="0.08549">
        <ele>5.1</ele>
        <time>2020-06-17T13:30:47Z</time>
      </trkpt>
      <trkpt lat="49.3627" lon="0.08545">
        <ele>5.1</ele>
        <time>2020-06-17T13:30:48Z</time>
      </trkpt>
      <trkpt lat="49.36274" lon="0.08541">
        <ele>5.1</ele>
        <time>2020-06-17T13:30:49Z</time>
      </trkpt>
      <trkpt lat="49.36276" lon="0.08538">
        <ele>5.1</ele>
        <time>2020-06-17T13:30:50Z</time>
      </trkpt>
      <trkpt lat="49.36278" lon="0.08535">
        <ele>5.1</ele>
        <time>2020-06-17T13:30:51Z</time>
      </trkpt>
      <trkpt lat="49.36281" lon="0.08531">
        <ele>5.1</ele>
        <time>2020-06-17T13:30:52Z</time>
      </trkpt>
      <trkpt lat="49.36283" lon="0.08527">
        <ele>5.1</ele>
        <time>2020-06-17T13:30:53Z</time>
      </trkpt>
      <trkpt lat="49.36286" lon="0.08523">
        <ele>5.1</ele>
        <time>2020-06-17T13:30:54Z</time>
      </trkpt>
      <trkpt lat="49.36289" lon="0.08518">
        <ele>5.1</ele>
        <time>2020-06-17T13:30:55Z</time>
      </trkpt>
      <trkpt lat="49.36292" lon="0.08513">
        <ele>5.1</ele>
        <time>2020-06-17T13:30:56Z</time>
      </trkpt>
      <trkpt lat="49.36295" lon="0.08508">
        <ele>5.1</ele>
        <time>2020-06-17T13:30:57Z</time>
      </trkpt>
      <trkpt lat="49.36298" lon="0.08504">
        <ele>5.1</ele>
        <time>2020-06-17T13:30:58Z</time>
      </trkpt>
      <trkpt lat="49.36302" lon="0.08499">
        <ele>5.1</ele>
        <time>2020-06-17T13:30:59Z</time>
      </trkpt>
      <trkpt lat="49.36305" lon="0.08495">
        <ele>5.1</ele>
        <time>2020-06-17T13:31:00Z</time>
      </trkpt>
      <trkpt lat="49.36308" lon="0.08491">
        <ele>5.2</ele>
        <time>2020-06-17T13:31:01Z</time>
      </trkpt>
      <trkpt lat="49.36311" lon="0.08487">
        <ele>5.2</ele>
        <time>2020-06-17T13:31:02Z</time>
      </trkpt>
      <trkpt lat="49.36315" lon="0.08482">
        <ele>5.2</ele>
        <time>2020-06-17T13:31:03Z</time>
      </trkpt>
      <trkpt lat="49.36318" lon="0.08478">
        <ele>5.2</ele>
        <time>2020-06-17T13:31:04Z</time>
      </trkpt>
      <trkpt lat="49.36322" lon="0.08474">
        <ele>5.2</ele>
        <time>2020-06-17T13:31:05Z</time>
      </trkpt>
      <trkpt lat="49.36325" lon="0.08469">
        <ele>5.2</ele>
        <time>2020-06-17T13:31:06Z</time>
      </trkpt>
      <trkpt lat="49.36328" lon="0.08465">
        <ele>5.2</ele>
        <time>2020-06-17T13:31:07Z</time>
      </trkpt>
      <trkpt lat="49.36332" lon="0.08459">
        <ele>5.2</ele>
        <time>2020-06-17T13:31:08Z</time>
      </trkpt>
      <trkpt lat="49.36335" lon="0.08454">
        <ele>5.2</ele>
        <time>2020-06-17T13:31:09Z</time>
      </trkpt>
      <trkpt lat="49.36339" lon="0.08449">
        <ele>5.2</ele>
        <time>2020-06-17T13:31:10Z</time>
      </trkpt>
      <trkpt lat="49.36342" lon="0.08444">
        <ele>5.2</ele>
        <time>2020-06-17T13:31:11Z</time>
      </trkpt>
      <trkpt lat="49.36345" lon="0.08439">
        <ele>5.2</ele>
        <time>2020-06-17T13:31:12Z</time>
      </trkpt>
      <trkpt lat="49.36348" lon="0.08433">
        <ele>5.2</ele>
        <time>2020-06-17T13:31:13Z</time>
      </trkpt>
      <trkpt lat="49.36352" lon="0.08428">
        <ele>5.2</ele>
        <time>2020-06-17T13:31:14Z</time>
      </trkpt>
      <trkpt lat="49.36356" lon="0.08423">
        <ele>5.3</ele>
        <time>2020-06-17T13:31:15Z</time>
      </trkpt>
      <trkpt lat="49.36359" lon="0.08418">
        <ele>5.3</ele>
        <time>2020-06-17T13:31:16Z</time>
      </trkpt>
      <trkpt lat="49.36364" lon="0.08413">
        <ele>5.2</ele>
        <time>2020-06-17T13:31:17Z</time>
      </trkpt>
      <trkpt lat="49.36368" lon="0.08409">
        <ele>5.2</ele>
        <time>2020-06-17T13:31:18Z</time>
      </trkpt>
      <trkpt lat="49.36371" lon="0.08404">
        <ele>5.2</ele>
        <time>2020-06-17T13:31:19Z</time>
      </trkpt>
      <trkpt lat="49.36374" lon="0.08399">
        <ele>5.2</ele>
        <time>2020-06-17T13:31:20Z</time>
      </trkpt>
      <trkpt lat="49.36378" lon="0.08393">
        <ele>5.2</ele>
        <time>2020-06-17T13:31:21Z</time>
      </trkpt>
      <trkpt lat="49.36382" lon="0.08389">
        <ele>5.3</ele>
        <time>2020-06-17T13:31:22Z</time>
      </trkpt>
      <trkpt lat="49.36385" lon="0.08385">
        <ele>5.3</ele>
        <time>2020-06-17T13:31:23Z</time>
      </trkpt>
      <trkpt lat="49.36389" lon="0.0838">
        <ele>5.3</ele>
        <time>2020-06-17T13:31:24Z</time>
      </trkpt>
      <trkpt lat="49.36393" lon="0.08374">
        <ele>5.3</ele>
        <time>2020-06-17T13:31:25Z</time>
      </trkpt>
      <trkpt lat="49.36397" lon="0.08369">
        <ele>5.3</ele>
        <time>2020-06-17T13:31:26Z</time>
      </trkpt>
      <trkpt lat="49.364" lon="0.08363">
        <ele>5.4</ele>
        <time>2020-06-17T13:31:27Z</time>
      </trkpt>
      <trkpt lat="49.36404" lon="0.08359">
        <ele>5.4</ele>
        <time>2020-06-17T13:31:28Z</time>
      </trkpt>
      <trkpt lat="49.36407" lon="0.08353">
        <ele>5.4</ele>
        <time>2020-06-17T13:31:29Z</time>
      </trkpt>
      <trkpt lat="49.36411" lon="0.08348">
        <ele>5.4</ele>
        <time>2020-06-17T13:31:30Z</time>
      </trkpt>
      <trkpt lat="49.36415" lon="0.08344">
        <ele>5.4</ele>
        <time>2020-06-17T13:31:31Z</time>
      </trkpt>
      <trkpt lat="49.36419" lon="0.0834">
        <ele>5.4</ele>
        <time>2020-06-17T13:31:32Z</time>
      </trkpt>
      <trkpt lat="49.36422" lon="0.08335">
        <ele>5.5</ele>
        <time>2020-06-17T13:31:33Z</time>
      </trkpt>
      <trkpt lat="49.36426" lon="0.0833">
        <ele>5.5</ele>
        <time>2020-06-17T13:31:34Z</time>
      </trkpt>
      <trkpt lat="49.36429" lon="0.08325">
        <ele>5.5</ele>
        <time>2020-06-17T13:31:35Z</time>
      </trkpt>
      <trkpt lat="49.36432" lon="0.08319">
        <ele>5.5</ele>
        <time>2020-06-17T13:31:36Z</time>
      </trkpt>
      <trkpt lat="49.36436" lon="0.08314">
        <ele>5.6</ele>
        <time>2020-06-17T13:31:37Z</time>
      </trkpt>
      <trkpt lat="49.36439" lon="0.08309">
        <ele>5.6</ele>
        <time>2020-06-17T13:31:38Z</time>
      </trkpt>
      <trkpt lat="49.36442" lon="0.08305">
        <ele>5.6</ele>
        <time>2020-06-17T13:31:39Z</time>
      </trkpt>
      <trkpt lat="49.36446" lon="0.08299">
        <ele>5.6</ele>
        <time>2020-06-17T13:31:40Z</time>
      </trkpt>
      <trkpt lat="49.3645" lon="0.08293">
        <ele>5.5</ele>
        <time>2020-06-17T13:31:41Z</time>
      </trkpt>
      <trkpt lat="49.36453" lon="0.08289">
        <ele>5.5</ele>
        <time>2020-06-17T13:31:42Z</time>
      </trkpt>
      <trkpt lat="49.36456" lon="0.08283">
        <ele>5.5</ele>
        <time>2020-06-17T13:31:43Z</time>
      </trkpt>
      <trkpt lat="49.3646" lon="0.08278">
        <ele>5.5</ele>
        <time>2020-06-17T13:31:44Z</time>
      </trkpt>
      <trkpt lat="49.36463" lon="0.08275">
        <ele>5.4</ele>
        <time>2020-06-17T13:31:45Z</time>
      </trkpt>
      <trkpt lat="49.36467" lon="0.08271">
        <ele>5.4</ele>
        <time>2020-06-17T13:31:46Z</time>
      </trkpt>
      <trkpt lat="49.3647" lon="0.08268">
        <ele>5.4</ele>
        <time>2020-06-17T13:31:47Z</time>
      </trkpt>
      <trkpt lat="49.36474" lon="0.08264">
        <ele>5.4</ele>
        <time>2020-06-17T13:31:48Z</time>
      </trkpt>
      <trkpt lat="49.36478" lon="0.0826">
        <ele>5.3</ele>
        <time>2020-06-17T13:31:49Z</time>
      </trkpt>
      <trkpt lat="49.36482" lon="0.08256">
        <ele>5.3</ele>
        <time>2020-06-17T13:31:50Z</time>
      </trkpt>
      <trkpt lat="49.36486" lon="0.08251">
        <ele>5.3</ele>
        <time>2020-06-17T13:31:51Z</time>
      </trkpt>
      <trkpt lat="49.36489" lon="0.08246">
        <ele>5.3</ele>
        <time>2020-06-17T13:31:52Z</time>
      </trkpt>
      <trkpt lat="49.36495" lon="0.08241">
        <ele>5.2</ele>
        <time>2020-06-17T13:31:53Z</time>
      </trkpt>
      <trkpt lat="49.365" lon="0.08236">
        <ele>5.2</ele>
        <time>2020-06-17T13:31:54Z</time>
      </trkpt>
      <trkpt lat="49.36503" lon="0.08232">
        <ele>5.2</ele>
        <time>2020-06-17T13:31:55Z</time>
      </trkpt>
      <trkpt lat="49.36507" lon="0.08228">
        <ele>5.2</ele>
        <time>2020-06-17T13:31:56Z</time>
      </trkpt>
      <trkpt lat="49.3651" lon="0.08225">
        <ele>5.2</ele>
        <time>2020-06-17T13:31:57Z</time>
      </trkpt>
      <trkpt lat="49.36514" lon="0.08221">
        <ele>5.2</ele>
        <time>2020-06-17T13:31:58Z</time>
      </trkpt>
      <trkpt lat="49.36518" lon="0.08216">
        <ele>5.2</ele>
        <time>2020-06-17T13:31:59Z</time>
      </trkpt>
      <trkpt lat="49.36521" lon="0.08212">
        <ele>5.3</ele>
        <time>2020-06-17T13:32:00Z</time>
      </trkpt>
      <trkpt lat="49.36524" lon="0.08207">
        <ele>5.3</ele>
        <time>2020-06-17T13:32:01Z</time>
      </trkpt>
      <trkpt lat="49.36528" lon="0.08202">
        <ele>5.3</ele>
        <time>2020-06-17T13:32:02Z</time>
      </trkpt>
      <trkpt lat="49.36531" lon="0.08196">
        <ele>5.3</ele>
        <time>2020-06-17T13:32:03Z</time>
      </trkpt>
      <trkpt lat="49.36534" lon="0.08192">
        <ele>5.3</ele>
        <time>2020-06-17T13:32:04Z</time>
      </trkpt>
      <trkpt lat="49.36537" lon="0.08187">
        <ele>5.3</ele>
        <time>2020-06-17T13:32:05Z</time>
      </trkpt>
      <trkpt lat="49.3654" lon="0.08181">
        <ele>5.2</ele>
        <time>2020-06-17T13:32:06Z</time>
      </trkpt>
      <trkpt lat="49.36543" lon="0.08175">
        <ele>5.2</ele>
        <time>2020-06-17T13:32:07Z</time>
      </trkpt>
      <trkpt lat="49.36545" lon="0.08169">
        <ele>5.2</ele>
        <time>2020-06-17T13:32:08Z</time>
      </trkpt>
      <trkpt lat="49.36548" lon="0.08164">
        <ele>5.2</ele>
        <time>2020-06-17T13:32:09Z</time>
      </trkpt>
      <trkpt lat="49.3655" lon="0.08158">
        <ele>5.2</ele>
        <time>2020-06-17T13:32:10Z</time>
      </trkpt>
      <trkpt lat="49.36553" lon="0.08152">
        <ele>5.2</ele>
        <time>2020-06-17T13:32:11Z</time>
      </trkpt>
      <trkpt lat="49.36555" lon="0.08146">
        <ele>5.3</ele>
        <time>2020-06-17T13:32:12Z</time>
      </trkpt>
      <trkpt lat="49.36558" lon="0.08138">
        <ele>5.3</ele>
        <time>2020-06-17T13:32:13Z</time>
      </trkpt>
      <trkpt lat="49.36561" lon="0.08132">
        <ele>5.3</ele>
        <time>2020-06-17T13:32:14Z</time>
      </trkpt>
      <trkpt lat="49.36564" lon="0.08126">
        <ele>5.3</ele>
        <time>2020-06-17T13:32:15Z</time>
      </trkpt>
      <trkpt lat="49.36567" lon="0.0812">
        <ele>5.4</ele>
        <time>2020-06-17T13:32:16Z</time>
      </trkpt>
      <trkpt lat="49.36571" lon="0.08115">
        <ele>5.4</ele>
        <time>2020-06-17T13:32:17Z</time>
      </trkpt>
      <trkpt lat="49.36574" lon="0.0811">
        <ele>5.4</ele>
        <time>2020-06-17T13:32:18Z</time>
      </trkpt>
      <trkpt lat="49.36578" lon="0.08106">
        <ele>5.4</ele>
        <time>2020-06-17T13:32:19Z</time>
      </trkpt>
      <trkpt lat="49.36582" lon="0.08101">
        <ele>5.5</ele>
        <time>2020-06-17T13:32:20Z</time>
      </trkpt>
      <trkpt lat="49.36585" lon="0.08096">
        <ele>5.5</ele>
        <time>2020-06-17T13:32:21Z</time>
      </trkpt>
      <trkpt lat="49.36587" lon="0.08092">
        <ele>5.5</ele>
        <time>2020-06-17T13:32:22Z</time>
      </trkpt>
      <trkpt lat="49.36589" lon="0.08087">
        <ele>5.5</ele>
        <time>2020-06-17T13:32:23Z</time>
      </trkpt>
      <trkpt lat="49.36591" lon="0.08083">
        <ele>5.5</ele>
        <time>2020-06-17T13:32:24Z</time>
      </trkpt>
      <trkpt lat="49.36592" lon="0.08082">
        <ele>5.5</ele>
        <time>2020-06-17T13:32:25Z</time>
      </trkpt>
      <trkpt lat="49.36592" lon="0.08081">
        <ele>5.5</ele>
        <time>2020-06-17T13:32:26Z</time>
      </trkpt>
      <trkpt lat="49.36593" lon="0.0808">
        <ele>5.5</ele>
        <time>2020-06-17T13:32:27Z</time>
      </trkpt>
      <trkpt lat="49.36593" lon="0.08081">
        <ele>5.5</ele>
        <time>2020-06-17T13:32:28Z</time>
      </trkpt>
      <trkpt lat="49.36594" lon="0.0808">
        <ele>5.5</ele>
        <time>2020-06-17T13:32:29Z</time>
      </trkpt>
      <trkpt lat="49.36594" lon="0.08078">
        <ele>5.6</ele>
        <time>2020-06-17T13:32:30Z</time>
      </trkpt>
      <trkpt lat="49.36597" lon="0.08075">
        <ele>5.6</ele>
        <time>2020-06-17T13:32:31Z</time>
      </trkpt>
      <trkpt lat="49.36598" lon="0.08073">
        <ele>5.6</ele>
        <time>2020-06-17T13:32:32Z</time>
      </trkpt>
      <trkpt lat="49.366" lon="0.0807">
        <ele>5.6</ele>
        <time>2020-06-17T13:32:33Z</time>
      </trkpt>
      <trkpt lat="49.36601" lon="0.08065">
        <ele>5.6</ele>
        <time>2020-06-17T13:32:34Z</time>
      </trkpt>
      <trkpt lat="49.36603" lon="0.08062">
        <ele>5.6</ele>
        <time>2020-06-17T13:32:35Z</time>
      </trkpt>
      <trkpt lat="49.36606" lon="0.08059">
        <ele>5.6</ele>
        <time>2020-06-17T13:32:36Z</time>
      </trkpt>
      <trkpt lat="49.36608" lon="0.08056">
        <ele>5.6</ele>
        <time>2020-06-17T13:32:37Z</time>
      </trkpt>
      <trkpt lat="49.3661" lon="0.08052">
        <ele>5.5</ele>
        <time>2020-06-17T13:32:38Z</time>
      </trkpt>
      <trkpt lat="49.36613" lon="0.08049">
        <ele>5.5</ele>
        <time>2020-06-17T13:32:39Z</time>
      </trkpt>
      <trkpt lat="49.36614" lon="0.08045">
        <ele>5.5</ele>
        <time>2020-06-17T13:32:40Z</time>
      </trkpt>
      <trkpt lat="49.36616" lon="0.08042">
        <ele>5.5</ele>
        <time>2020-06-17T13:32:41Z</time>
      </trkpt>
      <trkpt lat="49.36618" lon="0.08036">
        <ele>5.6</ele>
        <time>2020-06-17T13:32:42Z</time>
      </trkpt>
      <trkpt lat="49.36619" lon="0.08031">
        <ele>5.6</ele>
        <time>2020-06-17T13:32:43Z</time>
      </trkpt>
      <trkpt lat="49.36621" lon="0.08027">
        <ele>5.6</ele>
        <time>2020-06-17T13:32:44Z</time>
      </trkpt>
      <trkpt lat="49.36623" lon="0.08022">
        <ele>5.7</ele>
        <time>2020-06-17T13:32:45Z</time>
      </trkpt>
      <trkpt lat="49.36626" lon="0.08019">
        <ele>5.7</ele>
        <time>2020-06-17T13:32:46Z</time>
      </trkpt>
      <trkpt lat="49.36629" lon="0.08016">
        <ele>5.8</ele>
        <time>2020-06-17T13:32:47Z</time>
      </trkpt>
      <trkpt lat="49.36632" lon="0.08014">
        <ele>5.8</ele>
        <time>2020-06-17T13:32:48Z</time>
      </trkpt>
      <trkpt lat="49.36634" lon="0.08012">
        <ele>5.9</ele>
        <time>2020-06-17T13:32:49Z</time>
      </trkpt>
      <trkpt lat="49.36637" lon="0.0801">
        <ele>5.9</ele>
        <time>2020-06-17T13:32:50Z</time>
      </trkpt>
      <trkpt lat="49.3664" lon="0.08009">
        <ele>6</ele>
        <time>2020-06-17T13:32:51Z</time>
      </trkpt>
      <trkpt lat="49.36642" lon="0.08008">
        <ele>6</ele>
        <time>2020-06-17T13:32:52Z</time>
      </trkpt>
      <trkpt lat="49.36645" lon="0.08008">
        <ele>6.1</ele>
        <time>2020-06-17T13:32:53Z</time>
      </trkpt>
      <trkpt lat="49.36647" lon="0.08007">
        <ele>6.2</ele>
        <time>2020-06-17T13:32:54Z</time>
      </trkpt>
      <trkpt lat="49.3665" lon="0.08002">
        <ele>6.3</ele>
        <time>2020-06-17T13:32:55Z</time>
      </trkpt>
      <trkpt lat="49.36651" lon="0.07999">
        <ele>6.4</ele>
        <time>2020-06-17T13:32:56Z</time>
      </trkpt>
      <trkpt lat="49.36652" lon="0.07997">
        <ele>6.5</ele>
        <time>2020-06-17T13:32:57Z</time>
      </trkpt>
      <trkpt lat="49.36653" lon="0.07991">
        <ele>6.5</ele>
        <time>2020-06-17T13:32:58Z</time>
      </trkpt>
      <trkpt lat="49.36654" lon="0.07986">
        <ele>6.5</ele>
        <time>2020-06-17T13:32:59Z</time>
      </trkpt>
      <trkpt lat="49.36656" lon="0.0798">
        <ele>6.5</ele>
        <time>2020-06-17T13:33:00Z</time>
      </trkpt>
      <trkpt lat="49.36657" lon="0.07975">
        <ele>6.5</ele>
        <time>2020-06-17T13:33:01Z</time>
      </trkpt>
      <trkpt lat="49.36659" lon="0.07969">
        <ele>6.5</ele>
        <time>2020-06-17T13:33:02Z</time>
      </trkpt>
      <trkpt lat="49.36661" lon="0.07965">
        <ele>6.5</ele>
        <time>2020-06-17T13:33:03Z</time>
      </trkpt>
      <trkpt lat="49.36662" lon="0.0796">
        <ele>6.5</ele>
        <time>2020-06-17T13:33:04Z</time>
      </trkpt>
      <trkpt lat="49.36663" lon="0.07955">
        <ele>6.5</ele>
        <time>2020-06-17T13:33:05Z</time>
      </trkpt>
      <trkpt lat="49.36663" lon="0.07949">
        <ele>6.5</ele>
        <time>2020-06-17T13:33:06Z</time>
      </trkpt>
      <trkpt lat="49.36663" lon="0.07944">
        <ele>6.5</ele>
        <time>2020-06-17T13:33:07Z</time>
      </trkpt>
      <trkpt lat="49.36664" lon="0.07938">
        <ele>6.5</ele>
        <time>2020-06-17T13:33:08Z</time>
      </trkpt>
      <trkpt lat="49.36665" lon="0.07933">
        <ele>6.5</ele>
        <time>2020-06-17T13:33:09Z</time>
      </trkpt>
      <trkpt lat="49.36665" lon="0.07928">
        <ele>6.5</ele>
        <time>2020-06-17T13:33:10Z</time>
      </trkpt>
      <trkpt lat="49.36666" lon="0.07922">
        <ele>6.5</ele>
        <time>2020-06-17T13:33:11Z</time>
      </trkpt>
      <trkpt lat="49.36667" lon="0.07915">
        <ele>6.5</ele>
        <time>2020-06-17T13:33:12Z</time>
      </trkpt>
      <trkpt lat="49.36668" lon="0.0791">
        <ele>6.5</ele>
        <time>2020-06-17T13:33:13Z</time>
      </trkpt>
      <trkpt lat="49.36669" lon="0.07904">
        <ele>6.5</ele>
        <time>2020-06-17T13:33:14Z</time>
      </trkpt>
      <trkpt lat="49.36669" lon="0.07899">
        <ele>6.5</ele>
        <time>2020-06-17T13:33:15Z</time>
      </trkpt>
      <trkpt lat="49.3667" lon="0.07894">
        <ele>6.6</ele>
        <time>2020-06-17T13:33:16Z</time>
      </trkpt>
      <trkpt lat="49.3667" lon="0.07889">
        <ele>6.6</ele>
        <time>2020-06-17T13:33:17Z</time>
      </trkpt>
      <trkpt lat="49.3667" lon="0.07883">
        <ele>6.6</ele>
        <time>2020-06-17T13:33:18Z</time>
      </trkpt>
      <trkpt lat="49.36671" lon="0.07878">
        <ele>6.6</ele>
        <time>2020-06-17T13:33:19Z</time>
      </trkpt>
      <trkpt lat="49.36672" lon="0.07873">
        <ele>6.6</ele>
        <time>2020-06-17T13:33:20Z</time>
      </trkpt>
      <trkpt lat="49.36672" lon="0.07869">
        <ele>6.5</ele>
        <time>2020-06-17T13:33:21Z</time>
      </trkpt>
      <trkpt lat="49.36672" lon="0.07865">
        <ele>6.5</ele>
        <time>2020-06-17T13:33:22Z</time>
      </trkpt>
      <trkpt lat="49.36673" lon="0.0786">
        <ele>6.5</ele>
        <time>2020-06-17T13:33:23Z</time>
      </trkpt>
      <trkpt lat="49.36673" lon="0.07854">
        <ele>6.5</ele>
        <time>2020-06-17T13:33:24Z</time>
      </trkpt>
      <trkpt lat="49.36672" lon="0.07851">
        <ele>6.5</ele>
        <time>2020-06-17T13:33:25Z</time>
      </trkpt>
      <trkpt lat="49.36673" lon="0.07845">
        <ele>6.4</ele>
        <time>2020-06-17T13:33:26Z</time>
      </trkpt>
      <trkpt lat="49.36673" lon="0.07838">
        <ele>6.4</ele>
        <time>2020-06-17T13:33:27Z</time>
      </trkpt>
      <trkpt lat="49.36673" lon="0.07832">
        <ele>6.4</ele>
        <time>2020-06-17T13:33:28Z</time>
      </trkpt>
      <trkpt lat="49.36674" lon="0.07826">
        <ele>6.3</ele>
        <time>2020-06-17T13:33:29Z</time>
      </trkpt>
      <trkpt lat="49.36674" lon="0.07815">
        <ele>6.3</ele>
        <time>2020-06-17T13:33:30Z</time>
      </trkpt>
      <trkpt lat="49.36674" lon="0.07808">
        <ele>6.3</ele>
        <time>2020-06-17T13:33:31Z</time>
      </trkpt>
      <trkpt lat="49.36676" lon="0.07803">
        <ele>6</ele>
        <time>2020-06-17T13:33:32Z</time>
      </trkpt>
      <trkpt lat="49.36677" lon="0.07797">
        <ele>5.9</ele>
        <time>2020-06-17T13:33:33Z</time>
      </trkpt>
      <trkpt lat="49.36678" lon="0.07792">
        <ele>5.8</ele>
        <time>2020-06-17T13:33:34Z</time>
      </trkpt>
      <trkpt lat="49.3668" lon="0.07785">
        <ele>5.7</ele>
        <time>2020-06-17T13:33:35Z</time>
      </trkpt>
      <trkpt lat="49.3668" lon="0.07783">
        <ele>5.7</ele>
        <time>2020-06-17T13:33:36Z</time>
      </trkpt>
      <trkpt lat="49.36682" lon="0.07779">
        <ele>5.6</ele>
        <time>2020-06-17T13:33:37Z</time>
      </trkpt>
      <trkpt lat="49.36686" lon="0.07777">
        <ele>5.5</ele>
        <time>2020-06-17T13:33:38Z</time>
      </trkpt>
      <trkpt lat="49.36687" lon="0.07776">
        <ele>5.5</ele>
        <time>2020-06-17T13:33:39Z</time>
      </trkpt>
      <trkpt lat="49.36688" lon="0.07775">
        <ele>5.5</ele>
        <time>2020-06-17T13:33:40Z</time>
      </trkpt>
      <trkpt lat="49.3669" lon="0.07774">
        <ele>5.4</ele>
        <time>2020-06-17T13:33:41Z</time>
      </trkpt>
      <trkpt lat="49.36691" lon="0.07774">
        <ele>5.4</ele>
        <time>2020-06-17T13:33:42Z</time>
      </trkpt>
      <trkpt lat="49.36692" lon="0.07775">
        <ele>5.4</ele>
        <time>2020-06-17T13:33:43Z</time>
      </trkpt>
      <trkpt lat="49.36693" lon="0.07776">
        <ele>5.4</ele>
        <time>2020-06-17T13:33:44Z</time>
      </trkpt>
      <trkpt lat="49.36694" lon="0.07776">
        <ele>5.4</ele>
        <time>2020-06-17T13:33:45Z</time>
      </trkpt>
      <trkpt lat="49.36695" lon="0.07777">
        <ele>5.4</ele>
        <time>2020-06-17T13:33:46Z</time>
      </trkpt>
      <trkpt lat="49.36696" lon="0.07779">
        <ele>5.4</ele>
        <time>2020-06-17T13:33:47Z</time>
      </trkpt>
      <trkpt lat="49.36697" lon="0.0778">
        <ele>5.4</ele>
        <time>2020-06-17T13:33:48Z</time>
      </trkpt>
      <trkpt lat="49.36699" lon="0.07782">
        <ele>5.4</ele>
        <time>2020-06-17T13:33:49Z</time>
      </trkpt>
      <trkpt lat="49.36701" lon="0.07786">
        <ele>5.3</ele>
        <time>2020-06-17T13:33:50Z</time>
      </trkpt>
      <trkpt lat="49.36702" lon="0.07787">
        <ele>5.3</ele>
        <time>2020-06-17T13:33:51Z</time>
      </trkpt>
      <trkpt lat="49.36704" lon="0.07791">
        <ele>5.3</ele>
        <time>2020-06-17T13:33:52Z</time>
      </trkpt>
      <trkpt lat="49.36705" lon="0.07792">
        <ele>5.3</ele>
        <time>2020-06-17T13:33:53Z</time>
      </trkpt>
      <trkpt lat="49.36707" lon="0.07795">
        <ele>5.3</ele>
        <time>2020-06-17T13:33:54Z</time>
      </trkpt>
      <trkpt lat="49.36708" lon="0.07796">
        <ele>5.3</ele>
        <time>2020-06-17T13:33:55Z</time>
      </trkpt>
      <trkpt lat="49.36711" lon="0.07799">
        <ele>5.3</ele>
        <time>2020-06-17T13:33:56Z</time>
      </trkpt>
      <trkpt lat="49.36713" lon="0.078">
        <ele>5.3</ele>
        <time>2020-06-17T13:33:57Z</time>
      </trkpt>
      <trkpt lat="49.36716" lon="0.07804">
        <ele>5.3</ele>
        <time>2020-06-17T13:33:58Z</time>
      </trkpt>
      <trkpt lat="49.36717" lon="0.07805">
        <ele>5.3</ele>
        <time>2020-06-17T13:33:59Z</time>
      </trkpt>
      <trkpt lat="49.36719" lon="0.07808">
        <ele>5.3</ele>
        <time>2020-06-17T13:34:00Z</time>
      </trkpt>
      <trkpt lat="49.36722" lon="0.07811">
        <ele>5.3</ele>
        <time>2020-06-17T13:34:01Z</time>
      </trkpt>
      <trkpt lat="49.36723" lon="0.07812">
        <ele>5.3</ele>
        <time>2020-06-17T13:34:02Z</time>
      </trkpt>
      <trkpt lat="49.36727" lon="0.07814">
        <ele>5.3</ele>
        <time>2020-06-17T13:34:03Z</time>
      </trkpt>
      <trkpt lat="49.36727" lon="0.07814">
        <ele>5.3</ele>
        <time>2020-06-17T13:34:04Z</time>
      </trkpt>
      <trkpt lat="49.36729" lon="0.07816">
        <ele>5.3</ele>
        <time>2020-06-17T13:34:05Z</time>
      </trkpt>
      <trkpt lat="49.3673" lon="0.07817">
        <ele>5.3</ele>
        <time>2020-06-17T13:34:06Z</time>
      </trkpt>
      <trkpt lat="49.36732" lon="0.07818">
        <ele>5.3</ele>
        <time>2020-06-17T13:34:07Z</time>
      </trkpt>
      <trkpt lat="49.36733" lon="0.0782">
        <ele>5.3</ele>
        <time>2020-06-17T13:34:08Z</time>
      </trkpt>
      <trkpt lat="49.36736" lon="0.07822">
        <ele>5.3</ele>
        <time>2020-06-17T13:34:09Z</time>
      </trkpt>
      <trkpt lat="49.36737" lon="0.07823">
        <ele>5.3</ele>
        <time>2020-06-17T13:34:10Z</time>
      </trkpt>
      <trkpt lat="49.3674" lon="0.07826">
        <ele>5.3</ele>
        <time>2020-06-17T13:34:11Z</time>
      </trkpt>
      <trkpt lat="49.36741" lon="0.07828">
        <ele>5.3</ele>
        <time>2020-06-17T13:34:12Z</time>
      </trkpt>
      <trkpt lat="49.36744" lon="0.0783">
        <ele>5.3</ele>
        <time>2020-06-17T13:34:13Z</time>
      </trkpt>
      <trkpt lat="49.36744" lon="0.07831">
        <ele>5.3</ele>
        <time>2020-06-17T13:34:14Z</time>
      </trkpt>
      <trkpt lat="49.36747" lon="0.07834">
        <ele>5.3</ele>
        <time>2020-06-17T13:34:15Z</time>
      </trkpt>
      <trkpt lat="49.36748" lon="0.07835">
        <ele>5.3</ele>
        <time>2020-06-17T13:34:16Z</time>
      </trkpt>
      <trkpt lat="49.36751" lon="0.07837">
        <ele>5.3</ele>
        <time>2020-06-17T13:34:17Z</time>
      </trkpt>
      <trkpt lat="49.36752" lon="0.07838">
        <ele>5.3</ele>
        <time>2020-06-17T13:34:18Z</time>
      </trkpt>
      <trkpt lat="49.36755" lon="0.07841">
        <ele>5.3</ele>
        <time>2020-06-17T13:34:19Z</time>
      </trkpt>
      <trkpt lat="49.36756" lon="0.07842">
        <ele>5.3</ele>
        <time>2020-06-17T13:34:20Z</time>
      </trkpt>
      <trkpt lat="49.36758" lon="0.07844">
        <ele>5.3</ele>
        <time>2020-06-17T13:34:21Z</time>
      </trkpt>
      <trkpt lat="49.36759" lon="0.07845">
        <ele>5.3</ele>
        <time>2020-06-17T13:34:22Z</time>
      </trkpt>
      <trkpt lat="49.3676" lon="0.07847">
        <ele>5.3</ele>
        <time>2020-06-17T13:34:23Z</time>
      </trkpt>
      <trkpt lat="49.36762" lon="0.07848">
        <ele>5.3</ele>
        <time>2020-06-17T13:34:24Z</time>
      </trkpt>
      <trkpt lat="49.36765" lon="0.07851">
        <ele>5.4</ele>
        <time>2020-06-17T13:34:25Z</time>
      </trkpt>
      <trkpt lat="49.36767" lon="0.07854">
        <ele>5.4</ele>
        <time>2020-06-17T13:34:26Z</time>
      </trkpt>
      <trkpt lat="49.36769" lon="0.07857">
        <ele>5.4</ele>
        <time>2020-06-17T13:34:27Z</time>
      </trkpt>
      <trkpt lat="49.36772" lon="0.0786">
        <ele>5.4</ele>
        <time>2020-06-17T13:34:28Z</time>
      </trkpt>
      <trkpt lat="49.36774" lon="0.07863">
        <ele>5.5</ele>
        <time>2020-06-17T13:34:29Z</time>
      </trkpt>
      <trkpt lat="49.36776" lon="0.07866">
        <ele>5.5</ele>
        <time>2020-06-17T13:34:30Z</time>
      </trkpt>
      <trkpt lat="49.36779" lon="0.07868">
        <ele>5.5</ele>
        <time>2020-06-17T13:34:31Z</time>
      </trkpt>
      <trkpt lat="49.36781" lon="0.07871">
        <ele>5.5</ele>
        <time>2020-06-17T13:34:32Z</time>
      </trkpt>
      <trkpt lat="49.36784" lon="0.07874">
        <ele>5.5</ele>
        <time>2020-06-17T13:34:33Z</time>
      </trkpt>
      <trkpt lat="49.36787" lon="0.07878">
        <ele>5.6</ele>
        <time>2020-06-17T13:34:34Z</time>
      </trkpt>
      <trkpt lat="49.36788" lon="0.07879">
        <ele>5.6</ele>
        <time>2020-06-17T13:34:35Z</time>
      </trkpt>
      <trkpt lat="49.36791" lon="0.07881">
        <ele>5.6</ele>
        <time>2020-06-17T13:34:36Z</time>
      </trkpt>
      <trkpt lat="49.36794" lon="0.07883">
        <ele>5.6</ele>
        <time>2020-06-17T13:34:37Z</time>
      </trkpt>
      <trkpt lat="49.36797" lon="0.07885">
        <ele>5.6</ele>
        <time>2020-06-17T13:34:38Z</time>
      </trkpt>
      <trkpt lat="49.36799" lon="0.07887">
        <ele>5.6</ele>
        <time>2020-06-17T13:34:39Z</time>
      </trkpt>
      <trkpt lat="49.36803" lon="0.0789">
        <ele>5.6</ele>
        <time>2020-06-17T13:34:40Z</time>
      </trkpt>
      <trkpt lat="49.36804" lon="0.07891">
        <ele>5.6</ele>
        <time>2020-06-17T13:34:41Z</time>
      </trkpt>
      <trkpt lat="49.36807" lon="0.07896">
        <ele>5.6</ele>
        <time>2020-06-17T13:34:42Z</time>
      </trkpt>
      <trkpt lat="49.36809" lon="0.07898">
        <ele>5.6</ele>
        <time>2020-06-17T13:34:43Z</time>
      </trkpt>
      <trkpt lat="49.36812" lon="0.07902">
        <ele>5.6</ele>
        <time>2020-06-17T13:34:44Z</time>
      </trkpt>
      <trkpt lat="49.36815" lon="0.07904">
        <ele>5.6</ele>
        <time>2020-06-17T13:34:45Z</time>
      </trkpt>
      <trkpt lat="49.36817" lon="0.07908">
        <ele>5.6</ele>
        <time>2020-06-17T13:34:46Z</time>
      </trkpt>
      <trkpt lat="49.36821" lon="0.07912">
        <ele>5.7</ele>
        <time>2020-06-17T13:34:47Z</time>
      </trkpt>
      <trkpt lat="49.36823" lon="0.07916">
        <ele>5.7</ele>
        <time>2020-06-17T13:34:48Z</time>
      </trkpt>
      <trkpt lat="49.36827" lon="0.07919">
        <ele>5.7</ele>
        <time>2020-06-17T13:34:49Z</time>
      </trkpt>
      <trkpt lat="49.36831" lon="0.07921">
        <ele>5.7</ele>
        <time>2020-06-17T13:34:50Z</time>
      </trkpt>
      <trkpt lat="49.36833" lon="0.07924">
        <ele>5.7</ele>
        <time>2020-06-17T13:34:51Z</time>
      </trkpt>
      <trkpt lat="49.36837" lon="0.07928">
        <ele>5.7</ele>
        <time>2020-06-17T13:34:52Z</time>
      </trkpt>
      <trkpt lat="49.36838" lon="0.0793">
        <ele>5.7</ele>
        <time>2020-06-17T13:34:53Z</time>
      </trkpt>
      <trkpt lat="49.36841" lon="0.07932">
        <ele>5.7</ele>
        <time>2020-06-17T13:34:54Z</time>
      </trkpt>
      <trkpt lat="49.36844" lon="0.07935">
        <ele>5.7</ele>
        <time>2020-06-17T13:34:55Z</time>
      </trkpt>
      <trkpt lat="49.36847" lon="0.07938">
        <ele>5.7</ele>
        <time>2020-06-17T13:34:56Z</time>
      </trkpt>
      <trkpt lat="49.36847" lon="0.07939">
        <ele>5.7</ele>
        <time>2020-06-17T13:34:57Z</time>
      </trkpt>
      <trkpt lat="49.36848" lon="0.0794">
        <ele>5.7</ele>
        <time>2020-06-17T13:34:58Z</time>
      </trkpt>
      <trkpt lat="49.36849" lon="0.07942">
        <ele>5.7</ele>
        <time>2020-06-17T13:34:59Z</time>
      </trkpt>
      <trkpt lat="49.36849" lon="0.07943">
        <ele>5.7</ele>
        <time>2020-06-17T13:35:00Z</time>
      </trkpt>
      <trkpt lat="49.36849" lon="0.07944">
        <ele>5.7</ele>
        <time>2020-06-17T13:35:01Z</time>
      </trkpt>
      <trkpt lat="49.36848" lon="0.07945">
        <ele>5.7</ele>
        <time>2020-06-17T13:35:02Z</time>
      </trkpt>
      <trkpt lat="49.36847" lon="0.07945">
        <ele>5.7</ele>
        <time>2020-06-17T13:35:03Z</time>
      </trkpt>
      <trkpt lat="49.36847" lon="0.07945">
        <ele>5.7</ele>
        <time>2020-06-17T13:35:04Z</time>
      </trkpt>
      <trkpt lat="49.36847" lon="0.07946">
        <ele>5.7</ele>
        <time>2020-06-17T13:35:05Z</time>
      </trkpt>
      <trkpt lat="49.36846" lon="0.07947">
        <ele>5.7</ele>
        <time>2020-06-17T13:35:06Z</time>
      </trkpt>
      <trkpt lat="49.36847" lon="0.07948">
        <ele>5.7</ele>
        <time>2020-06-17T13:35:07Z</time>
      </trkpt>
      <trkpt lat="49.36847" lon="0.07948">
        <ele>5.7</ele>
        <time>2020-06-17T13:35:08Z</time>
      </trkpt>
      <trkpt lat="49.36847" lon="0.07949">
        <ele>5.7</ele>
        <time>2020-06-17T13:35:09Z</time>
      </trkpt>
      <trkpt lat="49.36847" lon="0.0795">
        <ele>5.7</ele>
        <time>2020-06-17T13:35:10Z</time>
      </trkpt>
      <trkpt lat="49.36847" lon="0.0795">
        <ele>5.7</ele>
        <time>2020-06-17T13:35:11Z</time>
      </trkpt>
      <trkpt lat="49.36847" lon="0.0795">
        <ele>5.7</ele>
        <time>2020-06-17T13:35:12Z</time>
      </trkpt>
      <trkpt lat="49.36847" lon="0.0795">
        <ele>5.7</ele>
        <time>2020-06-17T13:35:13Z</time>
      </trkpt>
      <trkpt lat="49.36847" lon="0.0795">
        <ele>5.7</ele>
        <time>2020-06-17T13:35:14Z</time>
      </trkpt>
      <trkpt lat="49.36847" lon="0.0795">
        <ele>5.7</ele>
        <time>2020-06-17T13:35:15Z</time>
      </trkpt>
      <trkpt lat="49.36847" lon="0.07951">
        <ele>5.7</ele>
        <time>2020-06-17T13:35:16Z</time>
      </trkpt>
      <trkpt lat="49.36847" lon="0.07952">
        <ele>5.7</ele>
        <time>2020-06-17T13:35:17Z</time>
      </trkpt>
      <trkpt lat="49.36847" lon="0.07952">
        <ele>5.7</ele>
        <time>2020-06-17T13:35:18Z</time>
      </trkpt>
      <trkpt lat="49.36847" lon="0.07951">
        <ele>5.7</ele>
        <time>2020-06-17T13:35:19Z</time>
      </trkpt>
      <trkpt lat="49.36847" lon="0.0795">
        <ele>5.7</ele>
        <time>2020-06-17T13:35:20Z</time>
      </trkpt>
      <trkpt lat="49.36846" lon="0.07949">
        <ele>5.7</ele>
        <time>2020-06-17T13:35:21Z</time>
      </trkpt>
      <trkpt lat="49.36846" lon="0.07949">
        <ele>5.7</ele>
        <time>2020-06-17T13:35:22Z</time>
      </trkpt>
      <trkpt lat="49.36846" lon="0.07948">
        <ele>5.7</ele>
        <time>2020-06-17T13:35:23Z</time>
      </trkpt>
      <trkpt lat="49.36846" lon="0.07947">
        <ele>5.7</ele>
        <time>2020-06-17T13:35:24Z</time>
      </trkpt>
      <trkpt lat="49.36845" lon="0.07946">
        <ele>5.7</ele>
        <time>2020-06-17T13:35:25Z</time>
      </trkpt>
      <trkpt lat="49.36846" lon="0.07945">
        <ele>5.7</ele>
        <time>2020-06-17T13:35:26Z</time>
      </trkpt>
      <trkpt lat="49.36847" lon="0.07944">
        <ele>5.7</ele>
        <time>2020-06-17T13:35:27Z</time>
      </trkpt>
      <trkpt lat="49.36847" lon="0.07944">
        <ele>5.7</ele>
        <time>2020-06-17T13:35:28Z</time>
      </trkpt>
      <trkpt lat="49.36848" lon="0.07944">
        <ele>5.7</ele>
        <time>2020-06-17T13:35:29Z</time>
      </trkpt>
      <trkpt lat="49.36849" lon="0.07943">
        <ele>5.7</ele>
        <time>2020-06-17T13:35:30Z</time>
      </trkpt>
      <trkpt lat="49.36849" lon="0.07943">
        <ele>5.7</ele>
        <time>2020-06-17T13:35:31Z</time>
      </trkpt>
      <trkpt lat="49.3685" lon="0.07943">
        <ele>5.7</ele>
        <time>2020-06-17T13:35:50Z</time>
      </trkpt>
      <trkpt lat="49.36851" lon="0.07943">
        <ele>5.7</ele>
        <time>2020-06-17T13:35:51Z</time>
      </trkpt>
      <trkpt lat="49.36852" lon="0.07942">
        <ele>5.7</ele>
        <time>2020-06-17T13:35:52Z</time>
      </trkpt>
      <trkpt lat="49.36853" lon="0.07943">
        <ele>5.7</ele>
        <time>2020-06-17T13:35:53Z</time>
      </trkpt>
      <trkpt lat="49.36854" lon="0.07944">
        <ele>5.7</ele>
        <time>2020-06-17T13:35:54Z</time>
      </trkpt>
      <trkpt lat="49.36855" lon="0.07945">
        <ele>5.7</ele>
        <time>2020-06-17T13:35:55Z</time>
      </trkpt>
      <trkpt lat="49.36856" lon="0.07945">
        <ele>5.7</ele>
        <time>2020-06-17T13:35:56Z</time>
      </trkpt>
      <trkpt lat="49.36859" lon="0.07945">
        <ele>5.7</ele>
        <time>2020-06-17T13:35:57Z</time>
      </trkpt>
      <trkpt lat="49.36859" lon="0.07944">
        <ele>5.7</ele>
        <time>2020-06-17T13:35:58Z</time>
      </trkpt>
      <trkpt lat="49.36861" lon="0.07941">
        <ele>5.7</ele>
        <time>2020-06-17T13:35:59Z</time>
      </trkpt>
      <trkpt lat="49.36861" lon="0.07939">
        <ele>5.7</ele>
        <time>2020-06-17T13:36:00Z</time>
      </trkpt>
      <trkpt lat="49.36862" lon="0.07936">
        <ele>5.7</ele>
        <time>2020-06-17T13:36:01Z</time>
      </trkpt>
      <trkpt lat="49.36862" lon="0.07935">
        <ele>5.7</ele>
        <time>2020-06-17T13:36:02Z</time>
      </trkpt>
      <trkpt lat="49.36863" lon="0.07934">
        <ele>5.7</ele>
        <time>2020-06-17T13:36:03Z</time>
      </trkpt>
      <trkpt lat="49.36864" lon="0.07931">
        <ele>5.7</ele>
        <time>2020-06-17T13:36:04Z</time>
      </trkpt>
      <trkpt lat="49.36865" lon="0.07929">
        <ele>5.7</ele>
        <time>2020-06-17T13:36:05Z</time>
      </trkpt>
      <trkpt lat="49.36866" lon="0.07928">
        <ele>5.7</ele>
        <time>2020-06-17T13:36:06Z</time>
      </trkpt>
      <trkpt lat="49.36867" lon="0.07926">
        <ele>5.7</ele>
        <time>2020-06-17T13:36:07Z</time>
      </trkpt>
      <trkpt lat="49.36868" lon="0.07925">
        <ele>5.7</ele>
        <time>2020-06-17T13:36:08Z</time>
      </trkpt>
      <trkpt lat="49.36869" lon="0.07924">
        <ele>5.7</ele>
        <time>2020-06-17T13:36:09Z</time>
      </trkpt>
      <trkpt lat="49.36869" lon="0.07925">
        <ele>5.7</ele>
        <time>2020-06-17T13:36:10Z</time>
      </trkpt>
      <trkpt lat="49.3687" lon="0.07925">
        <ele>5.7</ele>
        <time>2020-06-17T13:36:11Z</time>
      </trkpt>
      <trkpt lat="49.36871" lon="0.07926">
        <ele>5.7</ele>
        <time>2020-06-17T13:36:12Z</time>
      </trkpt>
      <trkpt lat="49.36872" lon="0.07926">
        <ele>5.7</ele>
        <time>2020-06-17T13:36:13Z</time>
      </trkpt>
      <trkpt lat="49.36872" lon="0.07927">
        <ele>5.7</ele>
        <time>2020-06-17T13:36:14Z</time>
      </trkpt>
      <trkpt lat="49.36872" lon="0.07927">
        <ele>5.7</ele>
        <time>2020-06-17T13:36:15Z</time>
      </trkpt>
      <trkpt lat="49.36872" lon="0.07926">
        <ele>5.7</ele>
        <time>2020-06-17T13:36:16Z</time>
      </trkpt>
      <trkpt lat="49.36873" lon="0.07927">
        <ele>5.7</ele>
        <time>2020-06-17T13:36:17Z</time>
      </trkpt>
      <trkpt lat="49.36873" lon="0.07927">
        <ele>5.7</ele>
        <time>2020-06-17T13:36:18Z</time>
      </trkpt>
      <trkpt lat="49.36874" lon="0.07927">
        <ele>5.7</ele>
        <time>2020-06-17T13:36:19Z</time>
      </trkpt>
      <trkpt lat="49.36874" lon="0.07926">
        <ele>5.7</ele>
        <time>2020-06-17T13:36:20Z</time>
      </trkpt>
      <trkpt lat="49.36874" lon="0.07926">
        <ele>5.7</ele>
        <time>2020-06-17T13:36:21Z</time>
      </trkpt>
      <trkpt lat="49.36875" lon="0.07926">
        <ele>5.7</ele>
        <time>2020-06-17T13:36:22Z</time>
      </trkpt>
      <trkpt lat="49.36875" lon="0.07926">
        <ele>5.7</ele>
        <time>2020-06-17T13:36:23Z</time>
      </trkpt>
      <trkpt lat="49.36875" lon="0.07927">
        <ele>5.7</ele>
        <time>2020-06-17T13:36:24Z</time>
      </trkpt>
      <trkpt lat="49.36875" lon="0.07927">
        <ele>5.7</ele>
        <time>2020-06-17T13:36:25Z</time>
      </trkpt>
      <trkpt lat="49.36878" lon="0.07926">
        <ele>5.7</ele>
        <time>2020-06-17T13:37:53Z</time>
      </trkpt>
      <trkpt lat="49.36878" lon="0.07924">
        <ele>5.7</ele>
        <time>2020-06-17T13:37:54Z</time>
      </trkpt>
      <trkpt lat="49.36879" lon="0.07922">
        <ele>5.7</ele>
        <time>2020-06-17T13:37:55Z</time>
      </trkpt>
      <trkpt lat="49.36879" lon="0.07921">
        <ele>5.7</ele>
        <time>2020-06-17T13:37:56Z</time>
      </trkpt>
      <trkpt lat="49.36879" lon="0.0792">
        <ele>5.7</ele>
        <time>2020-06-17T13:37:57Z</time>
      </trkpt>
      <trkpt lat="49.36879" lon="0.07919">
        <ele>5.7</ele>
        <time>2020-06-17T13:37:58Z</time>
      </trkpt>
      <trkpt lat="49.36879" lon="0.07918">
        <ele>5.7</ele>
        <time>2020-06-17T13:37:59Z</time>
      </trkpt>
      <trkpt lat="49.36879" lon="0.07918">
        <ele>5.7</ele>
        <time>2020-06-17T13:38:00Z</time>
      </trkpt>
      <trkpt lat="49.36879" lon="0.07917">
        <ele>5.7</ele>
        <time>2020-06-17T13:38:01Z</time>
      </trkpt>
      <trkpt lat="49.36879" lon="0.07916">
        <ele>5.7</ele>
        <time>2020-06-17T13:38:02Z</time>
      </trkpt>
      <trkpt lat="49.36879" lon="0.07916">
        <ele>5.7</ele>
        <time>2020-06-17T13:38:03Z</time>
      </trkpt>
      <trkpt lat="49.36879" lon="0.07915">
        <ele>5.7</ele>
        <time>2020-06-17T13:38:04Z</time>
      </trkpt>
      <trkpt lat="49.36879" lon="0.07915">
        <ele>5.7</ele>
        <time>2020-06-17T13:38:05Z</time>
      </trkpt>
      <trkpt lat="49.36879" lon="0.07915">
        <ele>5.7</ele>
        <time>2020-06-17T13:38:06Z</time>
      </trkpt>
      <trkpt lat="49.36879" lon="0.07915">
        <ele>5.7</ele>
        <time>2020-06-17T13:38:07Z</time>
      </trkpt>
      <trkpt lat="49.36879" lon="0.07915">
        <ele>5.7</ele>
        <time>2020-06-17T13:38:08Z</time>
      </trkpt>
      <trkpt lat="49.36879" lon="0.07915">
        <ele>5.7</ele>
        <time>2020-06-17T13:38:09Z</time>
      </trkpt>
      <trkpt lat="49.36879" lon="0.07915">
        <ele>5.7</ele>
        <time>2020-06-17T13:38:10Z</time>
      </trkpt>
      <trkpt lat="49.36879" lon="0.07915">
        <ele>5.7</ele>
        <time>2020-06-17T13:38:11Z</time>
      </trkpt>
      <trkpt lat="49.36879" lon="0.07915">
        <ele>5.7</ele>
        <time>2020-06-17T13:38:12Z</time>
      </trkpt>
      <trkpt lat="49.36879" lon="0.07915">
        <ele>5.7</ele>
        <time>2020-06-17T13:38:13Z</time>
      </trkpt>
      <trkpt lat="49.36879" lon="0.07915">
        <ele>5.7</ele>
        <time>2020-06-17T13:38:14Z</time>
      </trkpt>
      <trkpt lat="49.3688" lon="0.07915">
        <ele>5.7</ele>
        <time>2020-06-17T13:38:15Z</time>
      </trkpt>
      <trkpt lat="49.3688" lon="0.07925">
        <ele>5.7</ele>
        <time>2020-06-17T13:51:12Z</time>
      </trkpt>
      <trkpt lat="49.3688" lon="0.07925">
        <ele>5.7</ele>
        <time>2020-06-17T13:51:13Z</time>
      </trkpt>
      <trkpt lat="49.3688" lon="0.07925">
        <ele>5.7</ele>
        <time>2020-06-17T13:51:14Z</time>
      </trkpt>
      <trkpt lat="49.3688" lon="0.07925">
        <ele>5.7</ele>
        <time>2020-06-17T13:51:15Z</time>
      </trkpt>
      <trkpt lat="49.3688" lon="0.07925">
        <ele>5.7</ele>
        <time>2020-06-17T13:51:16Z</time>
      </trkpt>
      <trkpt lat="49.3688" lon="0.07925">
        <ele>5.7</ele>
        <time>2020-06-17T13:51:17Z</time>
      </trkpt>
      <trkpt lat="49.3688" lon="0.07925">
        <ele>5.7</ele>
        <time>2020-06-17T13:51:18Z</time>
      </trkpt>
      <trkpt lat="49.3688" lon="0.07925">
        <ele>5.7</ele>
        <time>2020-06-17T13:51:19Z</time>
      </trkpt>
      <trkpt lat="49.3688" lon="0.07925">
        <ele>5.7</ele>
        <time>2020-06-17T13:51:20Z</time>
      </trkpt>
      <trkpt lat="49.3688" lon="0.07925">
        <ele>5.7</ele>
        <time>2020-06-17T13:51:21Z</time>
      </trkpt>
      <trkpt lat="49.3688" lon="0.07925">
        <ele>5.7</ele>
        <time>2020-06-17T13:51:22Z</time>
      </trkpt>
      <trkpt lat="49.3688" lon="0.07925">
        <ele>5.7</ele>
        <time>2020-06-17T13:51:23Z</time>
      </trkpt>
      <trkpt lat="49.36879" lon="0.07923">
        <ele>5.7</ele>
        <time>2020-06-17T14:15:17Z</time>
      </trkpt>
      <trkpt lat="49.3688" lon="0.07923">
        <ele>5.7</ele>
        <time>2020-06-17T14:15:18Z</time>
      </trkpt>
      <trkpt lat="49.36881" lon="0.07922">
        <ele>5.7</ele>
        <time>2020-06-17T14:15:19Z</time>
      </trkpt>
      <trkpt lat="49.36881" lon="0.07922">
        <ele>5.7</ele>
        <time>2020-06-17T14:15:20Z</time>
      </trkpt>
      <trkpt lat="49.36881" lon="0.07922">
        <ele>5.7</ele>
        <time>2020-06-17T14:15:21Z</time>
      </trkpt>
      <trkpt lat="49.36881" lon="0.07923">
        <ele>5.7</ele>
        <time>2020-06-17T14:15:22Z</time>
      </trkpt>
      <trkpt lat="49.36881" lon="0.07923">
        <ele>5.7</ele>
        <time>2020-06-17T14:15:23Z</time>
      </trkpt>
      <trkpt lat="49.3688" lon="0.07924">
        <ele>5.7</ele>
        <time>2020-06-17T14:15:24Z</time>
      </trkpt>
      <trkpt lat="49.3688" lon="0.07924">
        <ele>5.7</ele>
        <time>2020-06-17T14:15:25Z</time>
      </trkpt>
      <trkpt lat="49.3688" lon="0.07925">
        <ele>5.7</ele>
        <time>2020-06-17T14:15:26Z</time>
      </trkpt>
      <trkpt lat="49.3688" lon="0.07925">
        <ele>5.7</ele>
        <time>2020-06-17T14:15:27Z</time>
      </trkpt>
      <trkpt lat="49.36879" lon="0.07926">
        <ele>5.7</ele>
        <time>2020-06-17T14:15:28Z</time>
      </trkpt>
      <trkpt lat="49.36879" lon="0.07927">
        <ele>5.7</ele>
        <time>2020-06-17T14:15:29Z</time>
      </trkpt>
      <trkpt lat="49.36879" lon="0.07927">
        <ele>5.7</ele>
        <time>2020-06-17T14:15:30Z</time>
      </trkpt>
      <trkpt lat="49.36878" lon="0.07928">
        <ele>5.7</ele>
        <time>2020-06-17T14:15:31Z</time>
      </trkpt>
      <trkpt lat="49.36877" lon="0.07928">
        <ele>5.7</ele>
        <time>2020-06-17T14:15:32Z</time>
      </trkpt>
      <trkpt lat="49.36873" lon="0.07926">
        <ele>5.7</ele>
        <time>2020-06-17T14:16:04Z</time>
      </trkpt>
      <trkpt lat="49.36872" lon="0.07925">
        <ele>5.7</ele>
        <time>2020-06-17T14:16:05Z</time>
      </trkpt>
      <trkpt lat="49.36872" lon="0.07924">
        <ele>5.7</ele>
        <time>2020-06-17T14:16:06Z</time>
      </trkpt>
      <trkpt lat="49.36871" lon="0.07923">
        <ele>5.7</ele>
        <time>2020-06-17T14:16:07Z</time>
      </trkpt>
      <trkpt lat="49.36871" lon="0.07922">
        <ele>5.7</ele>
        <time>2020-06-17T14:16:08Z</time>
      </trkpt>
      <trkpt lat="49.3687" lon="0.07921">
        <ele>5.7</ele>
        <time>2020-06-17T14:16:09Z</time>
      </trkpt>
      <trkpt lat="49.36869" lon="0.07919">
        <ele>5.7</ele>
        <time>2020-06-17T14:16:10Z</time>
      </trkpt>
      <trkpt lat="49.36869" lon="0.07918">
        <ele>5.7</ele>
        <time>2020-06-17T14:16:11Z</time>
      </trkpt>
      <trkpt lat="49.36868" lon="0.07916">
        <ele>5.7</ele>
        <time>2020-06-17T14:16:12Z</time>
      </trkpt>
      <trkpt lat="49.36868" lon="0.07916">
        <ele>5.7</ele>
        <time>2020-06-17T14:16:13Z</time>
      </trkpt>
      <trkpt lat="49.36868" lon="0.07916">
        <ele>5.7</ele>
        <time>2020-06-17T14:16:14Z</time>
      </trkpt>
      <trkpt lat="49.36868" lon="0.07916">
        <ele>5.7</ele>
        <time>2020-06-17T14:16:15Z</time>
      </trkpt>
      <trkpt lat="49.36868" lon="0.07916">
        <ele>5.7</ele>
        <time>2020-06-17T14:16:16Z</time>
      </trkpt>
      <trkpt lat="49.36868" lon="0.07915">
        <ele>5.7</ele>
        <time>2020-06-17T14:16:17Z</time>
      </trkpt>
      <trkpt lat="49.36868" lon="0.07915">
        <ele>5.7</ele>
        <time>2020-06-17T14:16:18Z</time>
      </trkpt>
      <trkpt lat="49.36868" lon="0.07915">
        <ele>5.7</ele>
        <time>2020-06-17T14:16:19Z</time>
      </trkpt>
      <trkpt lat="49.36868" lon="0.07914">
        <ele>5.7</ele>
        <time>2020-06-17T14:16:20Z</time>
      </trkpt>
      <trkpt lat="49.36868" lon="0.07913">
        <ele>5.7</ele>
        <time>2020-06-17T14:16:21Z</time>
      </trkpt>
      <trkpt lat="49.36868" lon="0.07913">
        <ele>5.7</ele>
        <time>2020-06-17T14:16:22Z</time>
      </trkpt>
      <trkpt lat="49.36868" lon="0.07912">
        <ele>5.7</ele>
        <time>2020-06-17T14:16:23Z</time>
      </trkpt>
      <trkpt lat="49.36868" lon="0.07913">
        <ele>5.7</ele>
        <time>2020-06-17T14:16:24Z</time>
      </trkpt>
      <trkpt lat="49.36868" lon="0.07912">
        <ele>5.7</ele>
        <time>2020-06-17T14:16:25Z</time>
      </trkpt>
      <trkpt lat="49.36868" lon="0.07912">
        <ele>5.7</ele>
        <time>2020-06-17T14:16:26Z</time>
      </trkpt>
      <trkpt lat="49.36867" lon="0.07912">
        <ele>5.7</ele>
        <time>2020-06-17T14:16:27Z</time>
      </trkpt>
      <trkpt lat="49.36867" lon="0.07912">
        <ele>5.7</ele>
        <time>2020-06-17T14:16:28Z</time>
      </trkpt>
      <trkpt lat="49.36867" lon="0.07912">
        <ele>5.7</ele>
        <time>2020-06-17T14:16:29Z</time>
      </trkpt>
      <trkpt lat="49.36867" lon="0.07912">
        <ele>5.7</ele>
        <time>2020-06-17T14:16:30Z</time>
      </trkpt>
      <trkpt lat="49.36867" lon="0.07912">
        <ele>5.7</ele>
        <time>2020-06-17T14:16:31Z</time>
      </trkpt>
      <trkpt lat="49.36867" lon="0.07911">
        <ele>5.7</ele>
        <time>2020-06-17T14:16:32Z</time>
      </trkpt>
      <trkpt lat="49.36874" lon="0.07924">
        <ele>5.8</ele>
        <time>2020-06-17T14:16:50Z</time>
      </trkpt>
      <trkpt lat="49.36876" lon="0.07925">
        <ele>5.8</ele>
        <time>2020-06-17T14:16:51Z</time>
      </trkpt>
      <trkpt lat="49.36877" lon="0.07926">
        <ele>5.8</ele>
        <time>2020-06-17T14:16:52Z</time>
      </trkpt>
      <trkpt lat="49.36878" lon="0.07927">
        <ele>5.8</ele>
        <time>2020-06-17T14:16:53Z</time>
      </trkpt>
      <trkpt lat="49.36879" lon="0.07929">
        <ele>5.8</ele>
        <time>2020-06-17T14:16:54Z</time>
      </trkpt>
      <trkpt lat="49.36879" lon="0.07931">
        <ele>5.8</ele>
        <time>2020-06-17T14:16:55Z</time>
      </trkpt>
      <trkpt lat="49.3688" lon="0.07932">
        <ele>5.8</ele>
        <time>2020-06-17T14:16:56Z</time>
      </trkpt>
      <trkpt lat="49.36879" lon="0.07933">
        <ele>5.8</ele>
        <time>2020-06-17T14:16:57Z</time>
      </trkpt>
      <trkpt lat="49.36879" lon="0.07934">
        <ele>5.8</ele>
        <time>2020-06-17T14:16:58Z</time>
      </trkpt>
      <trkpt lat="49.36879" lon="0.07935">
        <ele>5.8</ele>
        <time>2020-06-17T14:16:59Z</time>
      </trkpt>
      <trkpt lat="49.36878" lon="0.07936">
        <ele>5.8</ele>
        <time>2020-06-17T14:17:00Z</time>
      </trkpt>
      <trkpt lat="49.36878" lon="0.07936">
        <ele>5.8</ele>
        <time>2020-06-17T14:17:01Z</time>
      </trkpt>
      <trkpt lat="49.36878" lon="0.07936">
        <ele>5.8</ele>
        <time>2020-06-17T14:17:02Z</time>
      </trkpt>
      <trkpt lat="49.36878" lon="0.07936">
        <ele>5.8</ele>
        <time>2020-06-17T14:17:03Z</time>
      </trkpt>
      <trkpt lat="49.36878" lon="0.07937">
        <ele>5.8</ele>
        <time>2020-06-17T14:17:04Z</time>
      </trkpt>
      <trkpt lat="49.36878" lon="0.07937">
        <ele>5.8</ele>
        <time>2020-06-17T14:17:05Z</time>
      </trkpt>
      <trkpt lat="49.36879" lon="0.07937">
        <ele>5.8</ele>
        <time>2020-06-17T14:17:06Z</time>
      </trkpt>
      <trkpt lat="49.36879" lon="0.07936">
        <ele>5.8</ele>
        <time>2020-06-17T14:17:07Z</time>
      </trkpt>
      <trkpt lat="49.36879" lon="0.07936">
        <ele>5.8</ele>
        <time>2020-06-17T14:17:08Z</time>
      </trkpt>
      <trkpt lat="49.3688" lon="0.07935">
        <ele>5.8</ele>
        <time>2020-06-17T14:17:09Z</time>
      </trkpt>
      <trkpt lat="49.3688" lon="0.07934">
        <ele>5.8</ele>
        <time>2020-06-17T14:17:10Z</time>
      </trkpt>
      <trkpt lat="49.3688" lon="0.07935">
        <ele>5.8</ele>
        <time>2020-06-17T14:17:11Z</time>
      </trkpt>
      <trkpt lat="49.3688" lon="0.07935">
        <ele>5.8</ele>
        <time>2020-06-17T14:17:12Z</time>
      </trkpt>
      <trkpt lat="49.3688" lon="0.07934">
        <ele>5.8</ele>
        <time>2020-06-17T14:17:13Z</time>
      </trkpt>
      <trkpt lat="49.3688" lon="0.07934">
        <ele>5.8</ele>
        <time>2020-06-17T14:17:14Z</time>
      </trkpt>
      <trkpt lat="49.3688" lon="0.07933">
        <ele>5.8</ele>
        <time>2020-06-17T14:17:15Z</time>
      </trkpt>
      <trkpt lat="49.36881" lon="0.07933">
        <ele>5.8</ele>
        <time>2020-06-17T14:17:16Z</time>
      </trkpt>
      <trkpt lat="49.36881" lon="0.07933">
        <ele>5.8</ele>
        <time>2020-06-17T14:17:17Z</time>
      </trkpt>
      <trkpt lat="49.36881" lon="0.07932">
        <ele>5.8</ele>
        <time>2020-06-17T14:17:18Z</time>
      </trkpt>
      <trkpt lat="49.3688" lon="0.0793">
        <ele>5.8</ele>
        <time>2020-06-17T14:17:19Z</time>
      </trkpt>
      <trkpt lat="49.36879" lon="0.07928">
        <ele>5.8</ele>
        <time>2020-06-17T14:17:20Z</time>
      </trkpt>
      <trkpt lat="49.36877" lon="0.07926">
        <ele>5.8</ele>
        <time>2020-06-17T14:17:21Z</time>
      </trkpt>
      <trkpt lat="49.36876" lon="0.07925">
        <ele>5.8</ele>
        <time>2020-06-17T14:17:22Z</time>
      </trkpt>
      <trkpt lat="49.36873" lon="0.07923">
        <ele>5.8</ele>
        <time>2020-06-17T14:17:23Z</time>
      </trkpt>
      <trkpt lat="49.36872" lon="0.07922">
        <ele>5.8</ele>
        <time>2020-06-17T14:17:24Z</time>
      </trkpt>
      <trkpt lat="49.36871" lon="0.07921">
        <ele>5.8</ele>
        <time>2020-06-17T14:17:25Z</time>
      </trkpt>
      <trkpt lat="49.3687" lon="0.0792">
        <ele>5.8</ele>
        <time>2020-06-17T14:17:26Z</time>
      </trkpt>
      <trkpt lat="49.3687" lon="0.07919">
        <ele>5.8</ele>
        <time>2020-06-17T14:17:27Z</time>
      </trkpt>
      <trkpt lat="49.36869" lon="0.07918">
        <ele>5.8</ele>
        <time>2020-06-17T14:17:28Z</time>
      </trkpt>
      <trkpt lat="49.3687" lon="0.07918">
        <ele>5.8</ele>
        <time>2020-06-17T14:17:29Z</time>
      </trkpt>
      <trkpt lat="49.36869" lon="0.07917">
        <ele>5.8</ele>
        <time>2020-06-17T14:17:30Z</time>
      </trkpt>
      <trkpt lat="49.36869" lon="0.07917">
        <ele>5.8</ele>
        <time>2020-06-17T14:17:31Z</time>
      </trkpt>
      <trkpt lat="49.36869" lon="0.07917">
        <ele>5.8</ele>
        <time>2020-06-17T14:17:32Z</time>
      </trkpt>
      <trkpt lat="49.36869" lon="0.07917">
        <ele>5.8</ele>
        <time>2020-06-17T14:17:33Z</time>
      </trkpt>
      <trkpt lat="49.36869" lon="0.07917">
        <ele>5.8</ele>
        <time>2020-06-17T14:17:34Z</time>
      </trkpt>
      <trkpt lat="49.36869" lon="0.07917">
        <ele>5.8</ele>
        <time>2020-06-17T14:17:35Z</time>
      </trkpt>
      <trkpt lat="49.36869" lon="0.07917">
        <ele>5.8</ele>
        <time>2020-06-17T14:17:36Z</time>
      </trkpt>
      <trkpt lat="49.36869" lon="0.07917">
        <ele>5.8</ele>
        <time>2020-06-17T14:17:37Z</time>
      </trkpt>
      <trkpt lat="49.36869" lon="0.07917">
        <ele>5.8</ele>
        <time>2020-06-17T14:17:38Z</time>
      </trkpt>
      <trkpt lat="49.36869" lon="0.07917">
        <ele>5.8</ele>
        <time>2020-06-17T14:17:39Z</time>
      </trkpt>
      <trkpt lat="49.36866" lon="0.07915">
        <ele>5.8</ele>
        <time>2020-06-17T14:17:56Z</time>
      </trkpt>
      <trkpt lat="49.36865" lon="0.07914">
        <ele>5.8</ele>
        <time>2020-06-17T14:17:57Z</time>
      </trkpt>
      <trkpt lat="49.36864" lon="0.07912">
        <ele>5.8</ele>
        <time>2020-06-17T14:17:58Z</time>
      </trkpt>
      <trkpt lat="49.36863" lon="0.07911">
        <ele>5.8</ele>
        <time>2020-06-17T14:17:59Z</time>
      </trkpt>
      <trkpt lat="49.36862" lon="0.0791">
        <ele>5.8</ele>
        <time>2020-06-17T14:18:00Z</time>
      </trkpt>
      <trkpt lat="49.36858" lon="0.07907">
        <ele>5.8</ele>
        <time>2020-06-17T14:18:01Z</time>
      </trkpt>
      <trkpt lat="49.36857" lon="0.07907">
        <ele>5.8</ele>
        <time>2020-06-17T14:18:02Z</time>
      </trkpt>
      <trkpt lat="49.36854" lon="0.07904">
        <ele>5.8</ele>
        <time>2020-06-17T14:18:03Z</time>
      </trkpt>
      <trkpt lat="49.36853" lon="0.07903">
        <ele>5.8</ele>
        <time>2020-06-17T14:18:04Z</time>
      </trkpt>
      <trkpt lat="49.3685" lon="0.07901">
        <ele>5.7</ele>
        <time>2020-06-17T14:18:05Z</time>
      </trkpt>
      <trkpt lat="49.36849" lon="0.07901">
        <ele>5.7</ele>
        <time>2020-06-17T14:18:06Z</time>
      </trkpt>
      <trkpt lat="49.36847" lon="0.07898">
        <ele>5.7</ele>
        <time>2020-06-17T14:18:07Z</time>
      </trkpt>
      <trkpt lat="49.36846" lon="0.07897">
        <ele>5.7</ele>
        <time>2020-06-17T14:18:08Z</time>
      </trkpt>
      <trkpt lat="49.36843" lon="0.07894">
        <ele>5.7</ele>
        <time>2020-06-17T14:18:09Z</time>
      </trkpt>
      <trkpt lat="49.36843" lon="0.07893">
        <ele>5.7</ele>
        <time>2020-06-17T14:18:10Z</time>
      </trkpt>
      <trkpt lat="49.3684" lon="0.07891">
        <ele>5.7</ele>
        <time>2020-06-17T14:18:11Z</time>
      </trkpt>
      <trkpt lat="49.36839" lon="0.0789">
        <ele>5.7</ele>
        <time>2020-06-17T14:18:12Z</time>
      </trkpt>
      <trkpt lat="49.36836" lon="0.07893">
        <ele>5.7</ele>
        <time>2020-06-17T14:18:13Z</time>
      </trkpt>
      <trkpt lat="49.36835" lon="0.07894">
        <ele>5.7</ele>
        <time>2020-06-17T14:18:14Z</time>
      </trkpt>
      <trkpt lat="49.36835" lon="0.07897">
        <ele>5.7</ele>
        <time>2020-06-17T14:18:15Z</time>
      </trkpt>
      <trkpt lat="49.36834" lon="0.07899">
        <ele>5.7</ele>
        <time>2020-06-17T14:18:16Z</time>
      </trkpt>
      <trkpt lat="49.36833" lon="0.07901">
        <ele>5.7</ele>
        <time>2020-06-17T14:18:17Z</time>
      </trkpt>
      <trkpt lat="49.36831" lon="0.07903">
        <ele>5.7</ele>
        <time>2020-06-17T14:18:18Z</time>
      </trkpt>
      <trkpt lat="49.36832" lon="0.07905">
        <ele>5.7</ele>
        <time>2020-06-17T14:18:19Z</time>
      </trkpt>
      <trkpt lat="49.36832" lon="0.07908">
        <ele>5.7</ele>
        <time>2020-06-17T14:18:20Z</time>
      </trkpt>
      <trkpt lat="49.36835" lon="0.07912">
        <ele>5.7</ele>
        <time>2020-06-17T14:18:21Z</time>
      </trkpt>
      <trkpt lat="49.36835" lon="0.07913">
        <ele>5.7</ele>
        <time>2020-06-17T14:18:22Z</time>
      </trkpt>
      <trkpt lat="49.36838" lon="0.07915">
        <ele>5.7</ele>
        <time>2020-06-17T14:18:23Z</time>
      </trkpt>
      <trkpt lat="49.36839" lon="0.07916">
        <ele>5.7</ele>
        <time>2020-06-17T14:18:24Z</time>
      </trkpt>
      <trkpt lat="49.3684" lon="0.07917">
        <ele>5.7</ele>
        <time>2020-06-17T14:18:25Z</time>
      </trkpt>
      <trkpt lat="49.36842" lon="0.07918">
        <ele>5.7</ele>
        <time>2020-06-17T14:18:26Z</time>
      </trkpt>
      <trkpt lat="49.36844" lon="0.07919">
        <ele>5.7</ele>
        <time>2020-06-17T14:18:27Z</time>
      </trkpt>
      <trkpt lat="49.36844" lon="0.0792">
        <ele>5.7</ele>
        <time>2020-06-17T14:18:28Z</time>
      </trkpt>
      <trkpt lat="49.36844" lon="0.07921">
        <ele>5.7</ele>
        <time>2020-06-17T14:18:29Z</time>
      </trkpt>
      <trkpt lat="49.36845" lon="0.07922">
        <ele>5.7</ele>
        <time>2020-06-17T14:18:30Z</time>
      </trkpt>
      <trkpt lat="49.36845" lon="0.07922">
        <ele>5.7</ele>
        <time>2020-06-17T14:18:31Z</time>
      </trkpt>
      <trkpt lat="49.36846" lon="0.07923">
        <ele>5.7</ele>
        <time>2020-06-17T14:18:32Z</time>
      </trkpt>
      <trkpt lat="49.36846" lon="0.07924">
        <ele>5.7</ele>
        <time>2020-06-17T14:18:33Z</time>
      </trkpt>
      <trkpt lat="49.36846" lon="0.0793">
        <ele>5.7</ele>
        <time>2020-06-17T14:18:34Z</time>
      </trkpt>
      <trkpt lat="49.36847" lon="0.07932">
        <ele>5.7</ele>
        <time>2020-06-17T14:18:35Z</time>
      </trkpt>
      <trkpt lat="49.36846" lon="0.07935">
        <ele>5.7</ele>
        <time>2020-06-17T14:18:36Z</time>
      </trkpt>
      <trkpt lat="49.36846" lon="0.0794">
        <ele>5.9</ele>
        <time>2020-06-17T14:18:37Z</time>
      </trkpt>
      <trkpt lat="49.36846" lon="0.07945">
        <ele>6</ele>
        <time>2020-06-17T14:18:38Z</time>
      </trkpt>
      <trkpt lat="49.36845" lon="0.07949">
        <ele>6.1</ele>
        <time>2020-06-17T14:18:39Z</time>
      </trkpt>
      <trkpt lat="49.36844" lon="0.07954">
        <ele>6.2</ele>
        <time>2020-06-17T14:18:40Z</time>
      </trkpt>
      <trkpt lat="49.36844" lon="0.07956">
        <ele>6.2</ele>
        <time>2020-06-17T14:18:41Z</time>
      </trkpt>
      <trkpt lat="49.36843" lon="0.07958">
        <ele>6.2</ele>
        <time>2020-06-17T14:18:42Z</time>
      </trkpt>
      <trkpt lat="49.36842" lon="0.07963">
        <ele>6.3</ele>
        <time>2020-06-17T14:18:43Z</time>
      </trkpt>
      <trkpt lat="49.36841" lon="0.07965">
        <ele>6.4</ele>
        <time>2020-06-17T14:18:44Z</time>
      </trkpt>
      <trkpt lat="49.36839" lon="0.07971">
        <ele>6.5</ele>
        <time>2020-06-17T14:18:45Z</time>
      </trkpt>
      <trkpt lat="49.36839" lon="0.07974">
        <ele>6.6</ele>
        <time>2020-06-17T14:18:46Z</time>
      </trkpt>
      <trkpt lat="49.36838" lon="0.07977">
        <ele>6.5</ele>
        <time>2020-06-17T14:18:47Z</time>
      </trkpt>
      <trkpt lat="49.36837" lon="0.0798">
        <ele>6.8</ele>
        <time>2020-06-17T14:18:48Z</time>
      </trkpt>
      <trkpt lat="49.36837" lon="0.07984">
        <ele>7</ele>
        <time>2020-06-17T14:18:49Z</time>
      </trkpt>
      <trkpt lat="49.36836" lon="0.07991">
        <ele>7.4</ele>
        <time>2020-06-17T14:18:50Z</time>
      </trkpt>
      <trkpt lat="49.36836" lon="0.07993">
        <ele>7.8</ele>
        <time>2020-06-17T14:18:51Z</time>
      </trkpt>
      <trkpt lat="49.36835" lon="0.07999">
        <ele>8.3</ele>
        <time>2020-06-17T14:18:52Z</time>
      </trkpt>
      <trkpt lat="49.36833" lon="0.08005">
        <ele>9.7</ele>
        <time>2020-06-17T14:18:53Z</time>
      </trkpt>
      <trkpt lat="49.36831" lon="0.08011">
        <ele>10.6</ele>
        <time>2020-06-17T14:18:54Z</time>
      </trkpt>
      <trkpt lat="49.36831" lon="0.08017">
        <ele>11.7</ele>
        <time>2020-06-17T14:18:55Z</time>
      </trkpt>
      <trkpt lat="49.36831" lon="0.08019">
        <ele>11.7</ele>
        <time>2020-06-17T14:18:56Z</time>
      </trkpt>
      <trkpt lat="49.3683" lon="0.08024">
        <ele>12.1</ele>
        <time>2020-06-17T14:18:57Z</time>
      </trkpt>
      <trkpt lat="49.3683" lon="0.0803">
        <ele>12.9</ele>
        <time>2020-06-17T14:18:58Z</time>
      </trkpt>
      <trkpt lat="49.36829" lon="0.08034">
        <ele>13.1</ele>
        <time>2020-06-17T14:18:59Z</time>
      </trkpt>
      <trkpt lat="49.36828" lon="0.08038">
        <ele>13.3</ele>
        <time>2020-06-17T14:19:00Z</time>
      </trkpt>
      <trkpt lat="49.36827" lon="0.0804">
        <ele>13.4</ele>
        <time>2020-06-17T14:19:01Z</time>
      </trkpt>
      <trkpt lat="49.36827" lon="0.08042">
        <ele>13.4</ele>
        <time>2020-06-17T14:19:02Z</time>
      </trkpt>
      <trkpt lat="49.36828" lon="0.08044">
        <ele>13.5</ele>
        <time>2020-06-17T14:19:03Z</time>
      </trkpt>
      <trkpt lat="49.36829" lon="0.08046">
        <ele>13.2</ele>
        <time>2020-06-17T14:19:04Z</time>
      </trkpt>
      <trkpt lat="49.3683" lon="0.08046">
        <ele>13.2</ele>
        <time>2020-06-17T14:19:05Z</time>
      </trkpt>
      <trkpt lat="49.36829" lon="0.08046">
        <ele>13.4</ele>
        <time>2020-06-17T14:19:06Z</time>
      </trkpt>
      <trkpt lat="49.36828" lon="0.08046">
        <ele>13.3</ele>
        <time>2020-06-17T14:19:07Z</time>
      </trkpt>
      <trkpt lat="49.36827" lon="0.08047">
        <ele>13.3</ele>
        <time>2020-06-17T14:19:08Z</time>
      </trkpt>
      <trkpt lat="49.36827" lon="0.08048">
        <ele>13.3</ele>
        <time>2020-06-17T14:19:09Z</time>
      </trkpt>
      <trkpt lat="49.36826" lon="0.08049">
        <ele>13.4</ele>
        <time>2020-06-17T14:19:10Z</time>
      </trkpt>
      <trkpt lat="49.36825" lon="0.08051">
        <ele>13.4</ele>
        <time>2020-06-17T14:19:11Z</time>
      </trkpt>
      <trkpt lat="49.36823" lon="0.08054">
        <ele>13.4</ele>
        <time>2020-06-17T14:19:12Z</time>
      </trkpt>
      <trkpt lat="49.36822" lon="0.08056">
        <ele>13.3</ele>
        <time>2020-06-17T14:19:13Z</time>
      </trkpt>
      <trkpt lat="49.36821" lon="0.08058">
        <ele>13.2</ele>
        <time>2020-06-17T14:19:14Z</time>
      </trkpt>
      <trkpt lat="49.3682" lon="0.0806">
        <ele>13.1</ele>
        <time>2020-06-17T14:19:15Z</time>
      </trkpt>
      <trkpt lat="49.36819" lon="0.08065">
        <ele>12.9</ele>
        <time>2020-06-17T14:19:16Z</time>
      </trkpt>
      <trkpt lat="49.36818" lon="0.08066">
        <ele>12.9</ele>
        <time>2020-06-17T14:19:17Z</time>
      </trkpt>
      <trkpt lat="49.36819" lon="0.08071">
        <ele>12.7</ele>
        <time>2020-06-17T14:19:18Z</time>
      </trkpt>
      <trkpt lat="49.36819" lon="0.08073">
        <ele>12.5</ele>
        <time>2020-06-17T14:19:19Z</time>
      </trkpt>
      <trkpt lat="49.3682" lon="0.08078">
        <ele>12.4</ele>
        <time>2020-06-17T14:19:20Z</time>
      </trkpt>
      <trkpt lat="49.3682" lon="0.08079">
        <ele>12.4</ele>
        <time>2020-06-17T14:19:21Z</time>
      </trkpt>
      <trkpt lat="49.3682" lon="0.08082">
        <ele>12.2</ele>
        <time>2020-06-17T14:19:22Z</time>
      </trkpt>
      <trkpt lat="49.3682" lon="0.08083">
        <ele>12.2</ele>
        <time>2020-06-17T14:19:23Z</time>
      </trkpt>
      <trkpt lat="49.3682" lon="0.08084">
        <ele>12.2</ele>
        <time>2020-06-17T14:19:24Z</time>
      </trkpt>
      <trkpt lat="49.3682" lon="0.08085">
        <ele>12.1</ele>
        <time>2020-06-17T14:19:25Z</time>
      </trkpt>
      <trkpt lat="49.3682" lon="0.08086">
        <ele>12</ele>
        <time>2020-06-17T14:19:26Z</time>
      </trkpt>
      <trkpt lat="49.3682" lon="0.08086">
        <ele>12</ele>
        <time>2020-06-17T14:19:27Z</time>
      </trkpt>
      <trkpt lat="49.3682" lon="0.08086">
        <ele>12</ele>
        <time>2020-06-17T14:19:28Z</time>
      </trkpt>
      <trkpt lat="49.3682" lon="0.08087">
        <ele>11.9</ele>
        <time>2020-06-17T14:19:29Z</time>
      </trkpt>
      <trkpt lat="49.3682" lon="0.08088">
        <ele>11.9</ele>
        <time>2020-06-17T14:19:30Z</time>
      </trkpt>
      <trkpt lat="49.3682" lon="0.08089">
        <ele>11.9</ele>
        <time>2020-06-17T14:19:31Z</time>
      </trkpt>
      <trkpt lat="49.3682" lon="0.08093">
        <ele>11.7</ele>
        <time>2020-06-17T14:19:32Z</time>
      </trkpt>
      <trkpt lat="49.3682" lon="0.08094">
        <ele>11.6</ele>
        <time>2020-06-17T14:19:33Z</time>
      </trkpt>
      <trkpt lat="49.3682" lon="0.08096">
        <ele>11.6</ele>
        <time>2020-06-17T14:19:34Z</time>
      </trkpt>
      <trkpt lat="49.36822" lon="0.081">
        <ele>11.5</ele>
        <time>2020-06-17T14:19:35Z</time>
      </trkpt>
      <trkpt lat="49.36824" lon="0.08104">
        <ele>11.4</ele>
        <time>2020-06-17T14:19:36Z</time>
      </trkpt>
      <trkpt lat="49.36825" lon="0.08105">
        <ele>11.3</ele>
        <time>2020-06-17T14:19:37Z</time>
      </trkpt>
      <trkpt lat="49.36827" lon="0.08107">
        <ele>11.2</ele>
        <time>2020-06-17T14:19:38Z</time>
      </trkpt>
      <trkpt lat="49.36827" lon="0.0811">
        <ele>11.2</ele>
        <time>2020-06-17T14:19:39Z</time>
      </trkpt>
      <trkpt lat="49.36828" lon="0.0811">
        <ele>11.2</ele>
        <time>2020-06-17T14:19:40Z</time>
      </trkpt>
      <trkpt lat="49.3683" lon="0.0811">
        <ele>11.1</ele>
        <time>2020-06-17T14:19:41Z</time>
      </trkpt>
      <trkpt lat="49.36831" lon="0.08111">
        <ele>11.1</ele>
        <time>2020-06-17T14:19:42Z</time>
      </trkpt>
      <trkpt lat="49.36832" lon="0.08113">
        <ele>11</ele>
        <time>2020-06-17T14:19:43Z</time>
      </trkpt>
      <trkpt lat="49.36833" lon="0.08114">
        <ele>10.9</ele>
        <time>2020-06-17T14:19:44Z</time>
      </trkpt>
      <trkpt lat="49.36835" lon="0.08116">
        <ele>10.8</ele>
        <time>2020-06-17T14:19:45Z</time>
      </trkpt>
      <trkpt lat="49.36835" lon="0.08118">
        <ele>10.8</ele>
        <time>2020-06-17T14:19:46Z</time>
      </trkpt>
      <trkpt lat="49.36836" lon="0.08119">
        <ele>10.7</ele>
        <time>2020-06-17T14:19:47Z</time>
      </trkpt>
      <trkpt lat="49.36836" lon="0.0812">
        <ele>10.6</ele>
        <time>2020-06-17T14:19:48Z</time>
      </trkpt>
      <trkpt lat="49.36838" lon="0.08123">
        <ele>10.6</ele>
        <time>2020-06-17T14:19:49Z</time>
      </trkpt>
      <trkpt lat="49.36839" lon="0.08124">
        <ele>10.6</ele>
        <time>2020-06-17T14:19:50Z</time>
      </trkpt>
      <trkpt lat="49.3684" lon="0.08125">
        <ele>10.4</ele>
        <time>2020-06-17T14:19:51Z</time>
      </trkpt>
      <trkpt lat="49.36843" lon="0.08128">
        <ele>10.4</ele>
        <time>2020-06-17T14:19:52Z</time>
      </trkpt>
      <trkpt lat="49.36844" lon="0.08129">
        <ele>10.3</ele>
        <time>2020-06-17T14:19:53Z</time>
      </trkpt>
      <trkpt lat="49.36849" lon="0.08131">
        <ele>10.3</ele>
        <time>2020-06-17T14:19:54Z</time>
      </trkpt>
      <trkpt lat="49.36852" lon="0.08132">
        <ele>10.3</ele>
        <time>2020-06-17T14:19:55Z</time>
      </trkpt>
      <trkpt lat="49.36856" lon="0.08132">
        <ele>10.3</ele>
        <time>2020-06-17T14:19:56Z</time>
      </trkpt>
      <trkpt lat="49.36858" lon="0.08132">
        <ele>10.2</ele>
        <time>2020-06-17T14:19:57Z</time>
      </trkpt>
      <trkpt lat="49.36862" lon="0.08134">
        <ele>10.1</ele>
        <time>2020-06-17T14:19:58Z</time>
      </trkpt>
      <trkpt lat="49.36863" lon="0.08135">
        <ele>10.1</ele>
        <time>2020-06-17T14:19:59Z</time>
      </trkpt>
      <trkpt lat="49.36869" lon="0.0814">
        <ele>10</ele>
        <time>2020-06-17T14:20:00Z</time>
      </trkpt>
      <trkpt lat="49.36874" lon="0.08143">
        <ele>9.9</ele>
        <time>2020-06-17T14:20:01Z</time>
      </trkpt>
      <trkpt lat="49.36879" lon="0.08149">
        <ele>9.8</ele>
        <time>2020-06-17T14:20:02Z</time>
      </trkpt>
      <trkpt lat="49.36883" lon="0.08151">
        <ele>9.7</ele>
        <time>2020-06-17T14:20:03Z</time>
      </trkpt>
      <trkpt lat="49.36886" lon="0.08154">
        <ele>9.7</ele>
        <time>2020-06-17T14:20:04Z</time>
      </trkpt>
      <trkpt lat="49.36889" lon="0.08157">
        <ele>9.6</ele>
        <time>2020-06-17T14:20:05Z</time>
      </trkpt>
      <trkpt lat="49.3689" lon="0.08158">
        <ele>9.6</ele>
        <time>2020-06-17T14:20:06Z</time>
      </trkpt>
      <trkpt lat="49.36892" lon="0.08161">
        <ele>9.5</ele>
        <time>2020-06-17T14:20:07Z</time>
      </trkpt>
      <trkpt lat="49.36895" lon="0.08164">
        <ele>9.4</ele>
        <time>2020-06-17T14:20:08Z</time>
      </trkpt>
      <trkpt lat="49.36897" lon="0.08168">
        <ele>9.4</ele>
        <time>2020-06-17T14:20:09Z</time>
      </trkpt>
      <trkpt lat="49.369" lon="0.08171">
        <ele>9.3</ele>
        <time>2020-06-17T14:20:10Z</time>
      </trkpt>
      <trkpt lat="49.36903" lon="0.08174">
        <ele>9.2</ele>
        <time>2020-06-17T14:20:11Z</time>
      </trkpt>
      <trkpt lat="49.36905" lon="0.08176">
        <ele>9.1</ele>
        <time>2020-06-17T14:20:12Z</time>
      </trkpt>
      <trkpt lat="49.36908" lon="0.08179">
        <ele>9</ele>
        <time>2020-06-17T14:20:13Z</time>
      </trkpt>
      <trkpt lat="49.3691" lon="0.08183">
        <ele>9</ele>
        <time>2020-06-17T14:20:14Z</time>
      </trkpt>
      <trkpt lat="49.3691" lon="0.08185">
        <ele>8.9</ele>
        <time>2020-06-17T14:20:15Z</time>
      </trkpt>
      <trkpt lat="49.36914" lon="0.08189">
        <ele>8.9</ele>
        <time>2020-06-17T14:20:16Z</time>
      </trkpt>
      <trkpt lat="49.36918" lon="0.08194">
        <ele>8.8</ele>
        <time>2020-06-17T14:20:17Z</time>
      </trkpt>
      <trkpt lat="49.36921" lon="0.08198">
        <ele>8.7</ele>
        <time>2020-06-17T14:20:18Z</time>
      </trkpt>
      <trkpt lat="49.36925" lon="0.08202">
        <ele>8.8</ele>
        <time>2020-06-17T14:20:19Z</time>
      </trkpt>
      <trkpt lat="49.36929" lon="0.08207">
        <ele>8.9</ele>
        <time>2020-06-17T14:20:20Z</time>
      </trkpt>
      <trkpt lat="49.36932" lon="0.0821">
        <ele>8.9</ele>
        <time>2020-06-17T14:20:21Z</time>
      </trkpt>
      <trkpt lat="49.36936" lon="0.08212">
        <ele>9</ele>
        <time>2020-06-17T14:20:22Z</time>
      </trkpt>
      <trkpt lat="49.3694" lon="0.08215">
        <ele>9</ele>
        <time>2020-06-17T14:20:23Z</time>
      </trkpt>
      <trkpt lat="49.36945" lon="0.08217">
        <ele>9.1</ele>
        <time>2020-06-17T14:20:24Z</time>
      </trkpt>
      <trkpt lat="49.36947" lon="0.0822">
        <ele>9.1</ele>
        <time>2020-06-17T14:20:25Z</time>
      </trkpt>
      <trkpt lat="49.3695" lon="0.08222">
        <ele>9.1</ele>
        <time>2020-06-17T14:20:26Z</time>
      </trkpt>
      <trkpt lat="49.36954" lon="0.08226">
        <ele>9.2</ele>
        <time>2020-06-17T14:20:27Z</time>
      </trkpt>
      <trkpt lat="49.36959" lon="0.0823">
        <ele>9.2</ele>
        <time>2020-06-17T14:20:28Z</time>
      </trkpt>
      <trkpt lat="49.36964" lon="0.08234">
        <ele>9.2</ele>
        <time>2020-06-17T14:20:29Z</time>
      </trkpt>
      <trkpt lat="49.36968" lon="0.08236">
        <ele>9.2</ele>
        <time>2020-06-17T14:20:30Z</time>
      </trkpt>
      <trkpt lat="49.36971" lon="0.08238">
        <ele>9.2</ele>
        <time>2020-06-17T14:20:31Z</time>
      </trkpt>
      <trkpt lat="49.36978" lon="0.08238">
        <ele>9.4</ele>
        <time>2020-06-17T14:20:32Z</time>
      </trkpt>
      <trkpt lat="49.36983" lon="0.08239">
        <ele>9.5</ele>
        <time>2020-06-17T14:20:33Z</time>
      </trkpt>
      <trkpt lat="49.36988" lon="0.0824">
        <ele>9.6</ele>
        <time>2020-06-17T14:20:34Z</time>
      </trkpt>
      <trkpt lat="49.36994" lon="0.08241">
        <ele>9.7</ele>
        <time>2020-06-17T14:20:35Z</time>
      </trkpt>
      <trkpt lat="49.36999" lon="0.08243">
        <ele>9.7</ele>
        <time>2020-06-17T14:20:36Z</time>
      </trkpt>
      <trkpt lat="49.37003" lon="0.08245">
        <ele>9.8</ele>
        <time>2020-06-17T14:20:37Z</time>
      </trkpt>
      <trkpt lat="49.37008" lon="0.08248">
        <ele>9.9</ele>
        <time>2020-06-17T14:20:38Z</time>
      </trkpt>
      <trkpt lat="49.37013" lon="0.0825">
        <ele>9.9</ele>
        <time>2020-06-17T14:20:39Z</time>
      </trkpt>
      <trkpt lat="49.37018" lon="0.08252">
        <ele>10</ele>
        <time>2020-06-17T14:20:40Z</time>
      </trkpt>
      <trkpt lat="49.37022" lon="0.08254">
        <ele>10.1</ele>
        <time>2020-06-17T14:20:41Z</time>
      </trkpt>
      <trkpt lat="49.37026" lon="0.08256">
        <ele>10.2</ele>
        <time>2020-06-17T14:20:42Z</time>
      </trkpt>
      <trkpt lat="49.3703" lon="0.08258">
        <ele>10.3</ele>
        <time>2020-06-17T14:20:43Z</time>
      </trkpt>
      <trkpt lat="49.37034" lon="0.0826">
        <ele>10.3</ele>
        <time>2020-06-17T14:20:44Z</time>
      </trkpt>
      <trkpt lat="49.37038" lon="0.08262">
        <ele>10.4</ele>
        <time>2020-06-17T14:20:45Z</time>
      </trkpt>
      <trkpt lat="49.37042" lon="0.08263">
        <ele>10.5</ele>
        <time>2020-06-17T14:20:46Z</time>
      </trkpt>
      <trkpt lat="49.37046" lon="0.08265">
        <ele>10.7</ele>
        <time>2020-06-17T14:20:47Z</time>
      </trkpt>
      <trkpt lat="49.3705" lon="0.08266">
        <ele>10.8</ele>
        <time>2020-06-17T14:20:48Z</time>
      </trkpt>
      <trkpt lat="49.37054" lon="0.08267">
        <ele>10.9</ele>
        <time>2020-06-17T14:20:49Z</time>
      </trkpt>
      <trkpt lat="49.37058" lon="0.08268">
        <ele>11</ele>
        <time>2020-06-17T14:20:50Z</time>
      </trkpt>
      <trkpt lat="49.37064" lon="0.08273">
        <ele>11.2</ele>
        <time>2020-06-17T14:20:51Z</time>
      </trkpt>
      <trkpt lat="49.37068" lon="0.08274">
        <ele>11.3</ele>
        <time>2020-06-17T14:20:52Z</time>
      </trkpt>
      <trkpt lat="49.37072" lon="0.08277">
        <ele>11.4</ele>
        <time>2020-06-17T14:20:53Z</time>
      </trkpt>
      <trkpt lat="49.37075" lon="0.08279">
        <ele>11.4</ele>
        <time>2020-06-17T14:20:54Z</time>
      </trkpt>
      <trkpt lat="49.37078" lon="0.0828">
        <ele>11.5</ele>
        <time>2020-06-17T14:20:55Z</time>
      </trkpt>
      <trkpt lat="49.37082" lon="0.08282">
        <ele>10.7</ele>
        <time>2020-06-17T14:20:56Z</time>
      </trkpt>
      <trkpt lat="49.37087" lon="0.08284">
        <ele>10.9</ele>
        <time>2020-06-17T14:20:57Z</time>
      </trkpt>
      <trkpt lat="49.37093" lon="0.08288">
        <ele>11.1</ele>
        <time>2020-06-17T14:20:58Z</time>
      </trkpt>
      <trkpt lat="49.37098" lon="0.08291">
        <ele>11.3</ele>
        <time>2020-06-17T14:20:59Z</time>
      </trkpt>
      <trkpt lat="49.37103" lon="0.08295">
        <ele>11.5</ele>
        <time>2020-06-17T14:21:00Z</time>
      </trkpt>
      <trkpt lat="49.37108" lon="0.08299">
        <ele>11.7</ele>
        <time>2020-06-17T14:21:01Z</time>
      </trkpt>
      <trkpt lat="49.37114" lon="0.08302">
        <ele>11.8</ele>
        <time>2020-06-17T14:21:02Z</time>
      </trkpt>
      <trkpt lat="49.3712" lon="0.08305">
        <ele>12</ele>
        <time>2020-06-17T14:21:03Z</time>
      </trkpt>
      <trkpt lat="49.37126" lon="0.08309">
        <ele>12.1</ele>
        <time>2020-06-17T14:21:04Z</time>
      </trkpt>
      <trkpt lat="49.3713" lon="0.08312">
        <ele>12.2</ele>
        <time>2020-06-17T14:21:05Z</time>
      </trkpt>
      <trkpt lat="49.37135" lon="0.08316">
        <ele>12.4</ele>
        <time>2020-06-17T14:21:06Z</time>
      </trkpt>
      <trkpt lat="49.37139" lon="0.08319">
        <ele>12.5</ele>
        <time>2020-06-17T14:21:07Z</time>
      </trkpt>
      <trkpt lat="49.37143" lon="0.08322">
        <ele>12.6</ele>
        <time>2020-06-17T14:21:08Z</time>
      </trkpt>
      <trkpt lat="49.37147" lon="0.08325">
        <ele>12.7</ele>
        <time>2020-06-17T14:21:09Z</time>
      </trkpt>
      <trkpt lat="49.3715" lon="0.08327">
        <ele>12.7</ele>
        <time>2020-06-17T14:21:10Z</time>
      </trkpt>
      <trkpt lat="49.37154" lon="0.08329">
        <ele>12.8</ele>
        <time>2020-06-17T14:21:11Z</time>
      </trkpt>
      <trkpt lat="49.37156" lon="0.0833">
        <ele>12.9</ele>
        <time>2020-06-17T14:21:12Z</time>
      </trkpt>
      <trkpt lat="49.37164" lon="0.08352">
        <ele>13.3</ele>
        <time>2020-06-17T14:21:13Z</time>
      </trkpt>
      <trkpt lat="49.37166" lon="0.08354">
        <ele>13.3</ele>
        <time>2020-06-17T14:21:14Z</time>
      </trkpt>
      <trkpt lat="49.37169" lon="0.08356">
        <ele>13.4</ele>
        <time>2020-06-17T14:21:15Z</time>
      </trkpt>
      <trkpt lat="49.3717" lon="0.08356">
        <ele>13.4</ele>
        <time>2020-06-17T14:21:16Z</time>
      </trkpt>
      <trkpt lat="49.37173" lon="0.08358">
        <ele>13.5</ele>
        <time>2020-06-17T14:21:17Z</time>
      </trkpt>
      <trkpt lat="49.37174" lon="0.08359">
        <ele>13.5</ele>
        <time>2020-06-17T14:21:18Z</time>
      </trkpt>
      <trkpt lat="49.37176" lon="0.08361">
        <ele>13.6</ele>
        <time>2020-06-17T14:21:19Z</time>
      </trkpt>
      <trkpt lat="49.37177" lon="0.08363">
        <ele>13.6</ele>
        <time>2020-06-17T14:21:20Z</time>
      </trkpt>
      <trkpt lat="49.3718" lon="0.08366">
        <ele>13.7</ele>
        <time>2020-06-17T14:21:21Z</time>
      </trkpt>
      <trkpt lat="49.37181" lon="0.08367">
        <ele>13.7</ele>
        <time>2020-06-17T14:21:22Z</time>
      </trkpt>
      <trkpt lat="49.37183" lon="0.08371">
        <ele>13.8</ele>
        <time>2020-06-17T14:21:23Z</time>
      </trkpt>
      <trkpt lat="49.37184" lon="0.08372">
        <ele>13.8</ele>
        <time>2020-06-17T14:21:24Z</time>
      </trkpt>
      <trkpt lat="49.37186" lon="0.08375">
        <ele>13.9</ele>
        <time>2020-06-17T14:21:25Z</time>
      </trkpt>
      <trkpt lat="49.3719" lon="0.08379">
        <ele>14</ele>
        <time>2020-06-17T14:21:26Z</time>
      </trkpt>
      <trkpt lat="49.37191" lon="0.08383">
        <ele>14</ele>
        <time>2020-06-17T14:21:27Z</time>
      </trkpt>
      <trkpt lat="49.37192" lon="0.08385">
        <ele>14</ele>
        <time>2020-06-17T14:21:28Z</time>
      </trkpt>
      <trkpt lat="49.37195" lon="0.0839">
        <ele>14.1</ele>
        <time>2020-06-17T14:21:29Z</time>
      </trkpt>
      <trkpt lat="49.37195" lon="0.08391">
        <ele>14.1</ele>
        <time>2020-06-17T14:21:30Z</time>
      </trkpt>
      <trkpt lat="49.37197" lon="0.08394">
        <ele>14.1</ele>
        <time>2020-06-17T14:21:31Z</time>
      </trkpt>
      <trkpt lat="49.372" lon="0.08397">
        <ele>14.2</ele>
        <time>2020-06-17T14:21:32Z</time>
      </trkpt>
      <trkpt lat="49.37201" lon="0.08398">
        <ele>14.2</ele>
        <time>2020-06-17T14:21:33Z</time>
      </trkpt>
      <trkpt lat="49.37204" lon="0.08402">
        <ele>14.2</ele>
        <time>2020-06-17T14:21:34Z</time>
      </trkpt>
      <trkpt lat="49.37205" lon="0.08403">
        <ele>14.3</ele>
        <time>2020-06-17T14:21:35Z</time>
      </trkpt>
      <trkpt lat="49.37207" lon="0.08406">
        <ele>14.3</ele>
        <time>2020-06-17T14:21:36Z</time>
      </trkpt>
      <trkpt lat="49.3721" lon="0.08409">
        <ele>14.3</ele>
        <time>2020-06-17T14:21:37Z</time>
      </trkpt>
      <trkpt lat="49.37213" lon="0.08413">
        <ele>14.3</ele>
        <time>2020-06-17T14:21:38Z</time>
      </trkpt>
      <trkpt lat="49.37217" lon="0.08416">
        <ele>14.4</ele>
        <time>2020-06-17T14:21:39Z</time>
      </trkpt>
      <trkpt lat="49.37219" lon="0.0842">
        <ele>14.4</ele>
        <time>2020-06-17T14:21:40Z</time>
      </trkpt>
      <trkpt lat="49.37223" lon="0.08424">
        <ele>14.4</ele>
        <time>2020-06-17T14:21:41Z</time>
      </trkpt>
      <trkpt lat="49.37227" lon="0.08427">
        <ele>14.4</ele>
        <time>2020-06-17T14:21:42Z</time>
      </trkpt>
      <trkpt lat="49.3723" lon="0.08429">
        <ele>14.5</ele>
        <time>2020-06-17T14:21:43Z</time>
      </trkpt>
      <trkpt lat="49.37233" lon="0.08431">
        <ele>14.5</ele>
        <time>2020-06-17T14:21:44Z</time>
      </trkpt>
      <trkpt lat="49.37236" lon="0.08435">
        <ele>14.6</ele>
        <time>2020-06-17T14:21:45Z</time>
      </trkpt>
      <trkpt lat="49.3724" lon="0.08437">
        <ele>14.7</ele>
        <time>2020-06-17T14:21:46Z</time>
      </trkpt>
      <trkpt lat="49.37242" lon="0.0844">
        <ele>14.7</ele>
        <time>2020-06-17T14:21:47Z</time>
      </trkpt>
      <trkpt lat="49.37245" lon="0.08442">
        <ele>14.8</ele>
        <time>2020-06-17T14:21:48Z</time>
      </trkpt>
      <trkpt lat="49.37247" lon="0.08445">
        <ele>14.8</ele>
        <time>2020-06-17T14:21:49Z</time>
      </trkpt>
      <trkpt lat="49.37248" lon="0.08446">
        <ele>14.8</ele>
        <time>2020-06-17T14:21:50Z</time>
      </trkpt>
      <trkpt lat="49.37249" lon="0.08448">
        <ele>14.9</ele>
        <time>2020-06-17T14:21:51Z</time>
      </trkpt>
      <trkpt lat="49.37251" lon="0.08449">
        <ele>14.9</ele>
        <time>2020-06-17T14:21:52Z</time>
      </trkpt>
      <trkpt lat="49.37252" lon="0.08451">
        <ele>14.9</ele>
        <time>2020-06-17T14:21:53Z</time>
      </trkpt>
      <trkpt lat="49.37253" lon="0.08452">
        <ele>14.9</ele>
        <time>2020-06-17T14:21:54Z</time>
      </trkpt>
      <trkpt lat="49.37254" lon="0.08455">
        <ele>15</ele>
        <time>2020-06-17T14:21:55Z</time>
      </trkpt>
      <trkpt lat="49.37254" lon="0.08457">
        <ele>15</ele>
        <time>2020-06-17T14:21:56Z</time>
      </trkpt>
      <trkpt lat="49.37254" lon="0.08458">
        <ele>15</ele>
        <time>2020-06-17T14:21:57Z</time>
      </trkpt>
      <trkpt lat="49.37254" lon="0.0846">
        <ele>15.1</ele>
        <time>2020-06-17T14:21:58Z</time>
      </trkpt>
      <trkpt lat="49.37254" lon="0.0846">
        <ele>15.1</ele>
        <time>2020-06-17T14:21:59Z</time>
      </trkpt>
      <trkpt lat="49.37254" lon="0.08462">
        <ele>15.1</ele>
        <time>2020-06-17T14:22:00Z</time>
      </trkpt>
      <trkpt lat="49.37253" lon="0.08464">
        <ele>15.1</ele>
        <time>2020-06-17T14:22:01Z</time>
      </trkpt>
      <trkpt lat="49.37254" lon="0.08465">
        <ele>15.2</ele>
        <time>2020-06-17T14:22:02Z</time>
      </trkpt>
      <trkpt lat="49.37255" lon="0.08466">
        <ele>15.2</ele>
        <time>2020-06-17T14:22:03Z</time>
      </trkpt>
      <trkpt lat="49.37255" lon="0.08467">
        <ele>15.2</ele>
        <time>2020-06-17T14:22:04Z</time>
      </trkpt>
      <trkpt lat="49.37255" lon="0.08468">
        <ele>15.2</ele>
        <time>2020-06-17T14:22:05Z</time>
      </trkpt>
      <trkpt lat="49.37255" lon="0.0847">
        <ele>15.4</ele>
        <time>2020-06-17T14:22:06Z</time>
      </trkpt>
      <trkpt lat="49.37255" lon="0.08471">
        <ele>15.5</ele>
        <time>2020-06-17T14:22:07Z</time>
      </trkpt>
      <trkpt lat="49.37256" lon="0.08471">
        <ele>15.5</ele>
        <time>2020-06-17T14:22:08Z</time>
      </trkpt>
      <trkpt lat="49.37256" lon="0.08473">
        <ele>15.6</ele>
        <time>2020-06-17T14:22:09Z</time>
      </trkpt>
      <trkpt lat="49.37256" lon="0.08475">
        <ele>15.7</ele>
        <time>2020-06-17T14:22:10Z</time>
      </trkpt>
      <trkpt lat="49.37256" lon="0.08476">
        <ele>15.7</ele>
        <time>2020-06-17T14:22:11Z</time>
      </trkpt>
      <trkpt lat="49.37256" lon="0.08477">
        <ele>15.7</ele>
        <time>2020-06-17T14:22:12Z</time>
      </trkpt>
      <trkpt lat="49.37255" lon="0.08478">
        <ele>15.8</ele>
        <time>2020-06-17T14:22:13Z</time>
      </trkpt>
      <trkpt lat="49.37256" lon="0.08479">
        <ele>15.8</ele>
        <time>2020-06-17T14:22:14Z</time>
      </trkpt>
      <trkpt lat="49.37255" lon="0.08479">
        <ele>15.8</ele>
        <time>2020-06-17T14:22:15Z</time>
      </trkpt>
      <trkpt lat="49.37255" lon="0.0848">
        <ele>15.9</ele>
        <time>2020-06-17T14:22:16Z</time>
      </trkpt>
      <trkpt lat="49.37255" lon="0.0848">
        <ele>15.9</ele>
        <time>2020-06-17T14:22:17Z</time>
      </trkpt>
      <trkpt lat="49.37254" lon="0.08481">
        <ele>15.9</ele>
        <time>2020-06-17T14:22:18Z</time>
      </trkpt>
      <trkpt lat="49.37253" lon="0.08482">
        <ele>16</ele>
        <time>2020-06-17T14:22:19Z</time>
      </trkpt>
      <trkpt lat="49.37253" lon="0.08483">
        <ele>16</ele>
        <time>2020-06-17T14:22:20Z</time>
      </trkpt>
      <trkpt lat="49.37254" lon="0.08483">
        <ele>16.1</ele>
        <time>2020-06-17T14:22:21Z</time>
      </trkpt>
      <trkpt lat="49.37254" lon="0.08484">
        <ele>16.1</ele>
        <time>2020-06-17T14:22:22Z</time>
      </trkpt>
      <trkpt lat="49.37256" lon="0.08485">
        <ele>16.2</ele>
        <time>2020-06-17T14:22:23Z</time>
      </trkpt>
      <trkpt lat="49.37256" lon="0.08486">
        <ele>16.2</ele>
        <time>2020-06-17T14:22:24Z</time>
      </trkpt>
      <trkpt lat="49.37256" lon="0.08486">
        <ele>16.3</ele>
        <time>2020-06-17T14:22:25Z</time>
      </trkpt>
      <trkpt lat="49.37257" lon="0.08487">
        <ele>16.3</ele>
        <time>2020-06-17T14:22:26Z</time>
      </trkpt>
      <trkpt lat="49.37258" lon="0.08487">
        <ele>16.3</ele>
        <time>2020-06-17T14:22:27Z</time>
      </trkpt>
      <trkpt lat="49.37258" lon="0.08487">
        <ele>16.4</ele>
        <time>2020-06-17T14:22:28Z</time>
      </trkpt>
      <trkpt lat="49.37259" lon="0.08487">
        <ele>16.4</ele>
        <time>2020-06-17T14:22:29Z</time>
      </trkpt>
      <trkpt lat="49.37259" lon="0.08488">
        <ele>16.5</ele>
        <time>2020-06-17T14:22:30Z</time>
      </trkpt>
      <trkpt lat="49.37261" lon="0.08489">
        <ele>16.6</ele>
        <time>2020-06-17T14:22:31Z</time>
      </trkpt>
      <trkpt lat="49.37262" lon="0.0849">
        <ele>16.7</ele>
        <time>2020-06-17T14:22:32Z</time>
      </trkpt>
      <trkpt lat="49.37263" lon="0.08491">
        <ele>16.7</ele>
        <time>2020-06-17T14:22:33Z</time>
      </trkpt>
      <trkpt lat="49.37263" lon="0.08491">
        <ele>16.8</ele>
        <time>2020-06-17T14:22:34Z</time>
      </trkpt>
      <trkpt lat="49.37264" lon="0.08492">
        <ele>16.8</ele>
        <time>2020-06-17T14:22:35Z</time>
      </trkpt>
      <trkpt lat="49.37264" lon="0.08492">
        <ele>16.8</ele>
        <time>2020-06-17T14:22:36Z</time>
      </trkpt>
      <trkpt lat="49.37264" lon="0.08492">
        <ele>16.8</ele>
        <time>2020-06-17T14:22:37Z</time>
      </trkpt>
      <trkpt lat="49.37266" lon="0.08494">
        <ele>17</ele>
        <time>2020-06-17T14:22:38Z</time>
      </trkpt>
      <trkpt lat="49.37267" lon="0.08495">
        <ele>17</ele>
        <time>2020-06-17T14:22:39Z</time>
      </trkpt>
      <trkpt lat="49.37267" lon="0.08495">
        <ele>17</ele>
        <time>2020-06-17T14:22:40Z</time>
      </trkpt>
      <trkpt lat="49.37267" lon="0.08495">
        <ele>17</ele>
        <time>2020-06-17T14:22:41Z</time>
      </trkpt>
      <trkpt lat="49.37267" lon="0.08495">
        <ele>17</ele>
        <time>2020-06-17T14:22:42Z</time>
      </trkpt>
      <trkpt lat="49.37266" lon="0.08495">
        <ele>17.1</ele>
        <time>2020-06-17T14:22:43Z</time>
      </trkpt>
      <trkpt lat="49.37265" lon="0.08495">
        <ele>17.1</ele>
        <time>2020-06-17T14:22:44Z</time>
      </trkpt>
      <trkpt lat="49.37265" lon="0.08494">
        <ele>17.2</ele>
        <time>2020-06-17T14:22:45Z</time>
      </trkpt>
      <trkpt lat="49.37264" lon="0.08493">
        <ele>17.3</ele>
        <time>2020-06-17T14:22:46Z</time>
      </trkpt>
      <trkpt lat="49.37264" lon="0.08493">
        <ele>17.3</ele>
        <time>2020-06-17T14:22:47Z</time>
      </trkpt>
      <trkpt lat="49.37264" lon="0.08493">
        <ele>17.3</ele>
        <time>2020-06-17T14:22:48Z</time>
      </trkpt>
      <trkpt lat="49.37264" lon="0.08492">
        <ele>17.3</ele>
        <time>2020-06-17T14:22:49Z</time>
      </trkpt>
      <trkpt lat="49.37265" lon="0.08492">
        <ele>17.3</ele>
        <time>2020-06-17T14:22:50Z</time>
      </trkpt>
      <trkpt lat="49.37264" lon="0.08492">
        <ele>17.4</ele>
        <time>2020-06-17T14:22:51Z</time>
      </trkpt>
      <trkpt lat="49.37264" lon="0.08492">
        <ele>17.4</ele>
        <time>2020-06-17T14:22:52Z</time>
      </trkpt>
      <trkpt lat="49.37265" lon="0.08492">
        <ele>17.4</ele>
        <time>2020-06-17T14:22:53Z</time>
      </trkpt>
      <trkpt lat="49.37265" lon="0.08492">
        <ele>17.4</ele>
        <time>2020-06-17T14:22:54Z</time>
      </trkpt>
      <trkpt lat="49.37265" lon="0.08491">
        <ele>17.5</ele>
        <time>2020-06-17T14:22:55Z</time>
      </trkpt>
      <trkpt lat="49.37266" lon="0.08491">
        <ele>17.5</ele>
        <time>2020-06-17T14:22:56Z</time>
      </trkpt>
      <trkpt lat="49.37267" lon="0.0849">
        <ele>17.6</ele>
        <time>2020-06-17T14:22:57Z</time>
      </trkpt>
      <trkpt lat="49.37268" lon="0.0849">
        <ele>17.6</ele>
        <time>2020-06-17T14:22:58Z</time>
      </trkpt>
      <trkpt lat="49.3727" lon="0.08488">
        <ele>17.8</ele>
        <time>2020-06-17T14:22:59Z</time>
      </trkpt>
      <trkpt lat="49.3727" lon="0.08487">
        <ele>17.9</ele>
        <time>2020-06-17T14:23:00Z</time>
      </trkpt>
      <trkpt lat="49.37271" lon="0.08487">
        <ele>17.9</ele>
        <time>2020-06-17T14:23:01Z</time>
      </trkpt>
      <trkpt lat="49.37271" lon="0.08487">
        <ele>17.9</ele>
        <time>2020-06-17T14:23:02Z</time>
      </trkpt>
      <trkpt lat="49.37271" lon="0.08487">
        <ele>17.9</ele>
        <time>2020-06-17T14:23:03Z</time>
      </trkpt>
      <trkpt lat="49.37271" lon="0.08487">
        <ele>17.9</ele>
        <time>2020-06-17T14:23:04Z</time>
      </trkpt>
      <trkpt lat="49.3727" lon="0.08487">
        <ele>18</ele>
        <time>2020-06-17T14:23:05Z</time>
      </trkpt>
      <trkpt lat="49.3727" lon="0.08487">
        <ele>18</ele>
        <time>2020-06-17T14:23:06Z</time>
      </trkpt>
      <trkpt lat="49.3727" lon="0.08487">
        <ele>18</ele>
        <time>2020-06-17T14:23:07Z</time>
      </trkpt>
      <trkpt lat="49.37269" lon="0.08487">
        <ele>18</ele>
        <time>2020-06-17T14:23:08Z</time>
      </trkpt>
      <trkpt lat="49.37269" lon="0.08487">
        <ele>18.1</ele>
        <time>2020-06-17T14:23:09Z</time>
      </trkpt>
      <trkpt lat="49.37269" lon="0.08488">
        <ele>18.1</ele>
        <time>2020-06-17T14:23:10Z</time>
      </trkpt>
      <trkpt lat="49.37268" lon="0.08488">
        <ele>18.1</ele>
        <time>2020-06-17T14:23:11Z</time>
      </trkpt>
      <trkpt lat="49.37268" lon="0.08488">
        <ele>18.2</ele>
        <time>2020-06-17T14:23:12Z</time>
      </trkpt>
      <trkpt lat="49.37268" lon="0.08488">
        <ele>18.2</ele>
        <time>2020-06-17T14:23:13Z</time>
      </trkpt>
      <trkpt lat="49.37253" lon="0.08487">
        <ele>19.3</ele>
        <time>2020-06-17T14:25:35Z</time>
      </trkpt>
      <trkpt lat="49.37252" lon="0.08488">
        <ele>19.3</ele>
        <time>2020-06-17T14:25:36Z</time>
      </trkpt>
      <trkpt lat="49.37252" lon="0.08488">
        <ele>19.3</ele>
        <time>2020-06-17T14:25:37Z</time>
      </trkpt>
      <trkpt lat="49.37252" lon="0.08488">
        <ele>19.4</ele>
        <time>2020-06-17T14:25:38Z</time>
      </trkpt>
      <trkpt lat="49.37251" lon="0.08488">
        <ele>19.4</ele>
        <time>2020-06-17T14:25:39Z</time>
      </trkpt>
      <trkpt lat="49.3725" lon="0.08488">
        <ele>19.5</ele>
        <time>2020-06-17T14:25:40Z</time>
      </trkpt>
      <trkpt lat="49.37249" lon="0.08488">
        <ele>19.5</ele>
        <time>2020-06-17T14:25:41Z</time>
      </trkpt>
      <trkpt lat="49.37248" lon="0.08488">
        <ele>19.6</ele>
        <time>2020-06-17T14:25:42Z</time>
      </trkpt>
      <trkpt lat="49.37248" lon="0.08488">
        <ele>19.6</ele>
        <time>2020-06-17T14:25:43Z</time>
      </trkpt>
      <trkpt lat="49.37248" lon="0.08488">
        <ele>19.6</ele>
        <time>2020-06-17T14:25:44Z</time>
      </trkpt>
      <trkpt lat="49.37247" lon="0.08488">
        <ele>19.7</ele>
        <time>2020-06-17T14:25:45Z</time>
      </trkpt>
      <trkpt lat="49.37248" lon="0.08488">
        <ele>19.7</ele>
        <time>2020-06-17T14:25:46Z</time>
      </trkpt>
      <trkpt lat="49.37248" lon="0.08488">
        <ele>19.7</ele>
        <time>2020-06-17T14:25:47Z</time>
      </trkpt>
      <trkpt lat="49.37248" lon="0.08488">
        <ele>19.7</ele>
        <time>2020-06-17T14:25:48Z</time>
      </trkpt>
      <trkpt lat="49.37247" lon="0.08488">
        <ele>19.7</ele>
        <time>2020-06-17T14:25:49Z</time>
      </trkpt>
      <trkpt lat="49.37247" lon="0.08489">
        <ele>19.8</ele>
        <time>2020-06-17T14:25:50Z</time>
      </trkpt>
      <trkpt lat="49.37247" lon="0.08489">
        <ele>19.8</ele>
        <time>2020-06-17T14:25:51Z</time>
      </trkpt>
      <trkpt lat="49.37247" lon="0.0849">
        <ele>19.9</ele>
        <time>2020-06-17T14:25:52Z</time>
      </trkpt>
      <trkpt lat="49.37246" lon="0.08491">
        <ele>19.9</ele>
        <time>2020-06-17T14:25:53Z</time>
      </trkpt>
      <trkpt lat="49.37245" lon="0.08492">
        <ele>20</ele>
        <time>2020-06-17T14:25:54Z</time>
      </trkpt>
      <trkpt lat="49.37245" lon="0.08493">
        <ele>20</ele>
        <time>2020-06-17T14:25:55Z</time>
      </trkpt>
      <trkpt lat="49.37244" lon="0.08494">
        <ele>20.1</ele>
        <time>2020-06-17T14:25:56Z</time>
      </trkpt>
      <trkpt lat="49.37244" lon="0.08495">
        <ele>20.2</ele>
        <time>2020-06-17T14:25:57Z</time>
      </trkpt>
      <trkpt lat="49.37243" lon="0.08496">
        <ele>20.2</ele>
        <time>2020-06-17T14:25:58Z</time>
      </trkpt>
      <trkpt lat="49.37244" lon="0.08498">
        <ele>20.3</ele>
        <time>2020-06-17T14:25:59Z</time>
      </trkpt>
      <trkpt lat="49.37246" lon="0.08498">
        <ele>20.4</ele>
        <time>2020-06-17T14:26:00Z</time>
      </trkpt>
      <trkpt lat="49.37247" lon="0.08498">
        <ele>20.5</ele>
        <time>2020-06-17T14:26:01Z</time>
      </trkpt>
      <trkpt lat="49.37249" lon="0.08498">
        <ele>20.6</ele>
        <time>2020-06-17T14:26:02Z</time>
      </trkpt>
      <trkpt lat="49.3725" lon="0.08499">
        <ele>20.7</ele>
        <time>2020-06-17T14:26:03Z</time>
      </trkpt>
      <trkpt lat="49.37252" lon="0.08499">
        <ele>20.8</ele>
        <time>2020-06-17T14:26:04Z</time>
      </trkpt>
      <trkpt lat="49.37253" lon="0.08499">
        <ele>20.9</ele>
        <time>2020-06-17T14:26:05Z</time>
      </trkpt>
      <trkpt lat="49.37255" lon="0.085">
        <ele>21.1</ele>
        <time>2020-06-17T14:26:06Z</time>
      </trkpt>
      <trkpt lat="49.37256" lon="0.085">
        <ele>21.2</ele>
        <time>2020-06-17T14:26:07Z</time>
      </trkpt>
      <trkpt lat="49.37258" lon="0.085">
        <ele>21.3</ele>
        <time>2020-06-17T14:26:08Z</time>
      </trkpt>
      <trkpt lat="49.37259" lon="0.08501">
        <ele>21.4</ele>
        <time>2020-06-17T14:26:09Z</time>
      </trkpt>
      <trkpt lat="49.37261" lon="0.08501">
        <ele>21.5</ele>
        <time>2020-06-17T14:30:49Z</time>
      </trkpt>
      <trkpt lat="49.37263" lon="0.08501">
        <ele>21.6</ele>
        <time>2020-06-17T14:30:50Z</time>
      </trkpt>
      <trkpt lat="49.37265" lon="0.08504">
        <ele>21.8</ele>
        <time>2020-06-17T14:30:51Z</time>
      </trkpt>
      <trkpt lat="49.37266" lon="0.08506">
        <ele>21.9</ele>
        <time>2020-06-17T14:30:52Z</time>
      </trkpt>
      <trkpt lat="49.37268" lon="0.08509">
        <ele>22.1</ele>
        <time>2020-06-17T14:30:53Z</time>
      </trkpt>
      <trkpt lat="49.3727" lon="0.08512">
        <ele>22.4</ele>
        <time>2020-06-17T14:30:54Z</time>
      </trkpt>
      <trkpt lat="49.37271" lon="0.08513">
        <ele>22.5</ele>
        <time>2020-06-17T14:30:55Z</time>
      </trkpt>
      <trkpt lat="49.37274" lon="0.08517">
        <ele>22.7</ele>
        <time>2020-06-17T14:30:56Z</time>
      </trkpt>
      <trkpt lat="49.37276" lon="0.08518">
        <ele>22.8</ele>
        <time>2020-06-17T14:30:57Z</time>
      </trkpt>
      <trkpt lat="49.37278" lon="0.0852">
        <ele>23.1</ele>
        <time>2020-06-17T14:30:58Z</time>
      </trkpt>
      <trkpt lat="49.37282" lon="0.08523">
        <ele>23.3</ele>
        <time>2020-06-17T14:30:59Z</time>
      </trkpt>
      <trkpt lat="49.37283" lon="0.08524">
        <ele>23.4</ele>
        <time>2020-06-17T14:31:00Z</time>
      </trkpt>
      <trkpt lat="49.37286" lon="0.08527">
        <ele>23.7</ele>
        <time>2020-06-17T14:31:01Z</time>
      </trkpt>
      <trkpt lat="49.3729" lon="0.0853">
        <ele>24</ele>
        <time>2020-06-17T14:31:02Z</time>
      </trkpt>
      <trkpt lat="49.37293" lon="0.08532">
        <ele>24.2</ele>
        <time>2020-06-17T14:31:03Z</time>
      </trkpt>
      <trkpt lat="49.37296" lon="0.08534">
        <ele>24.5</ele>
        <time>2020-06-17T14:31:04Z</time>
      </trkpt>
      <trkpt lat="49.37299" lon="0.08537">
        <ele>24.7</ele>
        <time>2020-06-17T14:31:05Z</time>
      </trkpt>
      <trkpt lat="49.37302" lon="0.08539">
        <ele>24.9</ele>
        <time>2020-06-17T14:31:06Z</time>
      </trkpt>
      <trkpt lat="49.37305" lon="0.08543">
        <ele>25.2</ele>
        <time>2020-06-17T14:31:07Z</time>
      </trkpt>
      <trkpt lat="49.37306" lon="0.08544">
        <ele>25.3</ele>
        <time>2020-06-17T14:31:08Z</time>
      </trkpt>
      <trkpt lat="49.37309" lon="0.08548">
        <ele>25.6</ele>
        <time>2020-06-17T14:31:09Z</time>
      </trkpt>
      <trkpt lat="49.37312" lon="0.0855">
        <ele>25.9</ele>
        <time>2020-06-17T14:31:10Z</time>
      </trkpt>
      <trkpt lat="49.37314" lon="0.08551">
        <ele>26</ele>
        <time>2020-06-17T14:31:11Z</time>
      </trkpt>
      <trkpt lat="49.37317" lon="0.08555">
        <ele>26.3</ele>
        <time>2020-06-17T14:31:12Z</time>
      </trkpt>
      <trkpt lat="49.37319" lon="0.08557">
        <ele>26.4</ele>
        <time>2020-06-17T14:31:13Z</time>
      </trkpt>
      <trkpt lat="49.37321" lon="0.08559">
        <ele>26.6</ele>
        <time>2020-06-17T14:31:14Z</time>
      </trkpt>
      <trkpt lat="49.37323" lon="0.08563">
        <ele>26.9</ele>
        <time>2020-06-17T14:31:15Z</time>
      </trkpt>
      <trkpt lat="49.37326" lon="0.08563">
        <ele>27.1</ele>
        <time>2020-06-17T14:31:16Z</time>
      </trkpt>
      <trkpt lat="49.37328" lon="0.08564">
        <ele>27.2</ele>
        <time>2020-06-17T14:31:17Z</time>
      </trkpt>
      <trkpt lat="49.3733" lon="0.08566">
        <ele>27.4</ele>
        <time>2020-06-17T14:31:18Z</time>
      </trkpt>
      <trkpt lat="49.37331" lon="0.08566">
        <ele>27.5</ele>
        <time>2020-06-17T14:31:19Z</time>
      </trkpt>
      <trkpt lat="49.37334" lon="0.08568">
        <ele>27.7</ele>
        <time>2020-06-17T14:31:20Z</time>
      </trkpt>
      <trkpt lat="49.37335" lon="0.08569">
        <ele>27.8</ele>
        <time>2020-06-17T14:31:21Z</time>
      </trkpt>
      <trkpt lat="49.37338" lon="0.08571">
        <ele>28</ele>
        <time>2020-06-17T14:31:22Z</time>
      </trkpt>
      <trkpt lat="49.37341" lon="0.08574">
        <ele>28.3</ele>
        <time>2020-06-17T14:31:23Z</time>
      </trkpt>
      <trkpt lat="49.37344" lon="0.08575">
        <ele>28.5</ele>
        <time>2020-06-17T14:31:24Z</time>
      </trkpt>
      <trkpt lat="49.37347" lon="0.08578">
        <ele>28.7</ele>
        <time>2020-06-17T14:31:25Z</time>
      </trkpt>
      <trkpt lat="49.3735" lon="0.0858">
        <ele>29</ele>
        <time>2020-06-17T14:31:26Z</time>
      </trkpt>
      <trkpt lat="49.37353" lon="0.08583">
        <ele>29.3</ele>
        <time>2020-06-17T14:31:27Z</time>
      </trkpt>
      <trkpt lat="49.37356" lon="0.08586">
        <ele>29.5</ele>
        <time>2020-06-17T14:31:28Z</time>
      </trkpt>
      <trkpt lat="49.37359" lon="0.08589">
        <ele>29.8</ele>
        <time>2020-06-17T14:31:29Z</time>
      </trkpt>
      <trkpt lat="49.37362" lon="0.08593">
        <ele>30.1</ele>
        <time>2020-06-17T14:31:30Z</time>
      </trkpt>
      <trkpt lat="49.37363" lon="0.08594">
        <ele>30.2</ele>
        <time>2020-06-17T14:31:31Z</time>
      </trkpt>
      <trkpt lat="49.37367" lon="0.08596">
        <ele>30.5</ele>
        <time>2020-06-17T14:31:32Z</time>
      </trkpt>
      <trkpt lat="49.3737" lon="0.08598">
        <ele>30.8</ele>
        <time>2020-06-17T14:31:33Z</time>
      </trkpt>
      <trkpt lat="49.37371" lon="0.08598">
        <ele>30.9</ele>
        <time>2020-06-17T14:31:34Z</time>
      </trkpt>
      <trkpt lat="49.37374" lon="0.086">
        <ele>31.1</ele>
        <time>2020-06-17T14:31:35Z</time>
      </trkpt>
      <trkpt lat="49.37375" lon="0.08601">
        <ele>31.2</ele>
        <time>2020-06-17T14:31:36Z</time>
      </trkpt>
      <trkpt lat="49.37378" lon="0.08604">
        <ele>31.5</ele>
        <time>2020-06-17T14:31:37Z</time>
      </trkpt>
      <trkpt lat="49.3738" lon="0.08606">
        <ele>31.6</ele>
        <time>2020-06-17T14:31:38Z</time>
      </trkpt>
      <trkpt lat="49.37382" lon="0.08609">
        <ele>31.8</ele>
        <time>2020-06-17T14:31:39Z</time>
      </trkpt>
      <trkpt lat="49.37384" lon="0.08611">
        <ele>32.1</ele>
        <time>2020-06-17T14:31:40Z</time>
      </trkpt>
      <trkpt lat="49.37388" lon="0.08613">
        <ele>32.3</ele>
        <time>2020-06-17T14:31:41Z</time>
      </trkpt>
      <trkpt lat="49.37389" lon="0.08614">
        <ele>32.4</ele>
        <time>2020-06-17T14:31:42Z</time>
      </trkpt>
      <trkpt lat="49.37392" lon="0.08616">
        <ele>32.7</ele>
        <time>2020-06-17T14:31:43Z</time>
      </trkpt>
      <trkpt lat="49.37393" lon="0.08617">
        <ele>32.8</ele>
        <time>2020-06-17T14:31:44Z</time>
      </trkpt>
      <trkpt lat="49.37396" lon="0.08619">
        <ele>33</ele>
        <time>2020-06-17T14:31:45Z</time>
      </trkpt>
      <trkpt lat="49.37397" lon="0.0862">
        <ele>33.1</ele>
        <time>2020-06-17T14:31:46Z</time>
      </trkpt>
      <trkpt lat="49.374" lon="0.08624">
        <ele>33.4</ele>
        <time>2020-06-17T14:31:47Z</time>
      </trkpt>
      <trkpt lat="49.37403" lon="0.08626">
        <ele>33.7</ele>
        <time>2020-06-17T14:31:48Z</time>
      </trkpt>
      <trkpt lat="49.37407" lon="0.08629">
        <ele>34</ele>
        <time>2020-06-17T14:31:49Z</time>
      </trkpt>
      <trkpt lat="49.37409" lon="0.08629">
        <ele>34.2</ele>
        <time>2020-06-17T14:31:50Z</time>
      </trkpt>
      <trkpt lat="49.3741" lon="0.0863">
        <ele>34.3</ele>
        <time>2020-06-17T14:31:51Z</time>
      </trkpt>
      <trkpt lat="49.37411" lon="0.08632">
        <ele>34.4</ele>
        <time>2020-06-17T14:31:52Z</time>
      </trkpt>
      <trkpt lat="49.37414" lon="0.08637">
        <ele>34.8</ele>
        <time>2020-06-17T14:31:53Z</time>
      </trkpt>
      <trkpt lat="49.37415" lon="0.08638">
        <ele>34.9</ele>
        <time>2020-06-17T14:31:54Z</time>
      </trkpt>
      <trkpt lat="49.37418" lon="0.08642">
        <ele>35.2</ele>
        <time>2020-06-17T14:31:55Z</time>
      </trkpt>
      <trkpt lat="49.37419" lon="0.08643">
        <ele>35.3</ele>
        <time>2020-06-17T14:31:56Z</time>
      </trkpt>
      <trkpt lat="49.37422" lon="0.08646">
        <ele>35.6</ele>
        <time>2020-06-17T14:31:57Z</time>
      </trkpt>
      <trkpt lat="49.37423" lon="0.08647">
        <ele>35.7</ele>
        <time>2020-06-17T14:31:58Z</time>
      </trkpt>
      <trkpt lat="49.37426" lon="0.0865">
        <ele>36</ele>
        <time>2020-06-17T14:31:59Z</time>
      </trkpt>
      <trkpt lat="49.37427" lon="0.08651">
        <ele>36.1</ele>
        <time>2020-06-17T14:32:00Z</time>
      </trkpt>
      <trkpt lat="49.37429" lon="0.08654">
        <ele>36.4</ele>
        <time>2020-06-17T14:32:01Z</time>
      </trkpt>
      <trkpt lat="49.37431" lon="0.08658">
        <ele>36.7</ele>
        <time>2020-06-17T14:32:02Z</time>
      </trkpt>
      <trkpt lat="49.37434" lon="0.0866">
        <ele>37</ele>
        <time>2020-06-17T14:32:03Z</time>
      </trkpt>
      <trkpt lat="49.37435" lon="0.08661">
        <ele>37.1</ele>
        <time>2020-06-17T14:32:04Z</time>
      </trkpt>
      <trkpt lat="49.37437" lon="0.08664">
        <ele>37.3</ele>
        <time>2020-06-17T14:32:05Z</time>
      </trkpt>
      <trkpt lat="49.3744" lon="0.08668">
        <ele>37.7</ele>
        <time>2020-06-17T14:32:06Z</time>
      </trkpt>
      <trkpt lat="49.37441" lon="0.08669">
        <ele>37.7</ele>
        <time>2020-06-17T14:32:07Z</time>
      </trkpt>
      <trkpt lat="49.37444" lon="0.08672">
        <ele>38</ele>
        <time>2020-06-17T14:32:08Z</time>
      </trkpt>
      <trkpt lat="49.37447" lon="0.08675">
        <ele>38.4</ele>
        <time>2020-06-17T14:32:09Z</time>
      </trkpt>
      <trkpt lat="49.37448" lon="0.08677">
        <ele>38.5</ele>
        <time>2020-06-17T14:32:10Z</time>
      </trkpt>
      <trkpt lat="49.37451" lon="0.0868">
        <ele>38.9</ele>
        <time>2020-06-17T14:32:11Z</time>
      </trkpt>
      <trkpt lat="49.37453" lon="0.08682">
        <ele>39</ele>
        <time>2020-06-17T14:32:12Z</time>
      </trkpt>
      <trkpt lat="49.37455" lon="0.08684">
        <ele>39.3</ele>
        <time>2020-06-17T14:32:13Z</time>
      </trkpt>
      <trkpt lat="49.37458" lon="0.08687">
        <ele>39.6</ele>
        <time>2020-06-17T14:32:14Z</time>
      </trkpt>
      <trkpt lat="49.37459" lon="0.08688">
        <ele>39.7</ele>
        <time>2020-06-17T14:32:15Z</time>
      </trkpt>
      <trkpt lat="49.37461" lon="0.08691">
        <ele>39.9</ele>
        <time>2020-06-17T14:32:16Z</time>
      </trkpt>
      <trkpt lat="49.37461" lon="0.08692">
        <ele>40</ele>
        <time>2020-06-17T14:32:17Z</time>
      </trkpt>
      <trkpt lat="49.37463" lon="0.08696">
        <ele>40.3</ele>
        <time>2020-06-17T14:32:18Z</time>
      </trkpt>
      <trkpt lat="49.37464" lon="0.08698">
        <ele>40.5</ele>
        <time>2020-06-17T14:32:19Z</time>
      </trkpt>
      <trkpt lat="49.37467" lon="0.08702">
        <ele>40.8</ele>
        <time>2020-06-17T14:32:20Z</time>
      </trkpt>
      <trkpt lat="49.37468" lon="0.08704">
        <ele>40.9</ele>
        <time>2020-06-17T14:32:21Z</time>
      </trkpt>
      <trkpt lat="49.3747" lon="0.08706">
        <ele>41.2</ele>
        <time>2020-06-17T14:32:22Z</time>
      </trkpt>
      <trkpt lat="49.37474" lon="0.08709">
        <ele>41.6</ele>
        <time>2020-06-17T14:32:23Z</time>
      </trkpt>
      <trkpt lat="49.37475" lon="0.0871">
        <ele>41.7</ele>
        <time>2020-06-17T14:32:24Z</time>
      </trkpt>
      <trkpt lat="49.37479" lon="0.08713">
        <ele>42</ele>
        <time>2020-06-17T14:32:25Z</time>
      </trkpt>
      <trkpt lat="49.3748" lon="0.08714">
        <ele>42.1</ele>
        <time>2020-06-17T14:32:26Z</time>
      </trkpt>
      <trkpt lat="49.37482" lon="0.08717">
        <ele>42.5</ele>
        <time>2020-06-17T14:32:27Z</time>
      </trkpt>
      <trkpt lat="49.37483" lon="0.08718">
        <ele>42.6</ele>
        <time>2020-06-17T14:32:28Z</time>
      </trkpt>
      <trkpt lat="49.37486" lon="0.08722">
        <ele>42.9</ele>
        <time>2020-06-17T14:32:29Z</time>
      </trkpt>
      <trkpt lat="49.37486" lon="0.08724">
        <ele>43</ele>
        <time>2020-06-17T14:32:30Z</time>
      </trkpt>
      <trkpt lat="49.37489" lon="0.08728">
        <ele>43.3</ele>
        <time>2020-06-17T14:32:31Z</time>
      </trkpt>
      <trkpt lat="49.37489" lon="0.08729">
        <ele>43.4</ele>
        <time>2020-06-17T14:32:32Z</time>
      </trkpt>
      <trkpt lat="49.37492" lon="0.08732">
        <ele>43.7</ele>
        <time>2020-06-17T14:32:33Z</time>
      </trkpt>
      <trkpt lat="49.37493" lon="0.08733">
        <ele>43.8</ele>
        <time>2020-06-17T14:32:34Z</time>
      </trkpt>
      <trkpt lat="49.37494" lon="0.08737">
        <ele>44</ele>
        <time>2020-06-17T14:32:35Z</time>
      </trkpt>
      <trkpt lat="49.37494" lon="0.08738">
        <ele>44.1</ele>
        <time>2020-06-17T14:32:36Z</time>
      </trkpt>
      <trkpt lat="49.37496" lon="0.08742">
        <ele>44.4</ele>
        <time>2020-06-17T14:32:37Z</time>
      </trkpt>
      <trkpt lat="49.37497" lon="0.08743">
        <ele>44.5</ele>
        <time>2020-06-17T14:32:38Z</time>
      </trkpt>
      <trkpt lat="49.37499" lon="0.08747">
        <ele>44.7</ele>
        <time>2020-06-17T14:32:39Z</time>
      </trkpt>
      <trkpt lat="49.375" lon="0.08748">
        <ele>44.8</ele>
        <time>2020-06-17T14:32:40Z</time>
      </trkpt>
      <trkpt lat="49.37501" lon="0.08753">
        <ele>45.2</ele>
        <time>2020-06-17T14:32:41Z</time>
      </trkpt>
      <trkpt lat="49.37502" lon="0.08755">
        <ele>45.3</ele>
        <time>2020-06-17T14:32:42Z</time>
      </trkpt>
      <trkpt lat="49.37504" lon="0.0876">
        <ele>45.6</ele>
        <time>2020-06-17T14:32:43Z</time>
      </trkpt>
      <trkpt lat="49.37504" lon="0.08762">
        <ele>45.7</ele>
        <time>2020-06-17T14:32:44Z</time>
      </trkpt>
      <trkpt lat="49.37506" lon="0.08765">
        <ele>45.9</ele>
        <time>2020-06-17T14:32:45Z</time>
      </trkpt>
      <trkpt lat="49.37507" lon="0.08767">
        <ele>46</ele>
        <time>2020-06-17T14:32:46Z</time>
      </trkpt>
      <trkpt lat="49.37508" lon="0.0877">
        <ele>46.2</ele>
        <time>2020-06-17T14:32:47Z</time>
      </trkpt>
      <trkpt lat="49.37508" lon="0.08772">
        <ele>46.3</ele>
        <time>2020-06-17T14:32:48Z</time>
      </trkpt>
      <trkpt lat="49.37511" lon="0.08776">
        <ele>46.6</ele>
        <time>2020-06-17T14:32:49Z</time>
      </trkpt>
      <trkpt lat="49.37512" lon="0.08777">
        <ele>46.7</ele>
        <time>2020-06-17T14:32:50Z</time>
      </trkpt>
      <trkpt lat="49.37513" lon="0.08781">
        <ele>46.9</ele>
        <time>2020-06-17T14:32:51Z</time>
      </trkpt>
      <trkpt lat="49.37514" lon="0.08787">
        <ele>47.2</ele>
        <time>2020-06-17T14:32:52Z</time>
      </trkpt>
      <trkpt lat="49.37514" lon="0.08788">
        <ele>47.3</ele>
        <time>2020-06-17T14:32:53Z</time>
      </trkpt>
      <trkpt lat="49.37516" lon="0.08792">
        <ele>47.6</ele>
        <time>2020-06-17T14:32:54Z</time>
      </trkpt>
      <trkpt lat="49.37516" lon="0.08793">
        <ele>47.6</ele>
        <time>2020-06-17T14:32:55Z</time>
      </trkpt>
      <trkpt lat="49.37519" lon="0.08796">
        <ele>47.9</ele>
        <time>2020-06-17T14:32:56Z</time>
      </trkpt>
      <trkpt lat="49.37519" lon="0.08798">
        <ele>48</ele>
        <time>2020-06-17T14:32:57Z</time>
      </trkpt>
      <trkpt lat="49.37521" lon="0.08802">
        <ele>48.2</ele>
        <time>2020-06-17T14:32:58Z</time>
      </trkpt>
      <trkpt lat="49.37522" lon="0.08803">
        <ele>48.3</ele>
        <time>2020-06-17T14:32:59Z</time>
      </trkpt>
      <trkpt lat="49.37522" lon="0.08805">
        <ele>48.4</ele>
        <time>2020-06-17T14:33:00Z</time>
      </trkpt>
      <trkpt lat="49.37523" lon="0.08808">
        <ele>48.6</ele>
        <time>2020-06-17T14:33:01Z</time>
      </trkpt>
      <trkpt lat="49.37525" lon="0.08812">
        <ele>48.8</ele>
        <time>2020-06-17T14:33:02Z</time>
      </trkpt>
      <trkpt lat="49.37526" lon="0.08813">
        <ele>48.9</ele>
        <time>2020-06-17T14:33:03Z</time>
      </trkpt>
      <trkpt lat="49.37528" lon="0.08818">
        <ele>49.2</ele>
        <time>2020-06-17T14:33:04Z</time>
      </trkpt>
      <trkpt lat="49.37529" lon="0.08819">
        <ele>49.3</ele>
        <time>2020-06-17T14:33:05Z</time>
      </trkpt>
      <trkpt lat="49.37531" lon="0.08823">
        <ele>49.6</ele>
        <time>2020-06-17T14:33:06Z</time>
      </trkpt>
      <trkpt lat="49.37531" lon="0.08824">
        <ele>49.7</ele>
        <time>2020-06-17T14:33:07Z</time>
      </trkpt>
      <trkpt lat="49.37532" lon="0.08828">
        <ele>49.9</ele>
        <time>2020-06-17T14:33:08Z</time>
      </trkpt>
      <trkpt lat="49.37533" lon="0.0883">
        <ele>50</ele>
        <time>2020-06-17T14:33:09Z</time>
      </trkpt>
      <trkpt lat="49.37535" lon="0.08834">
        <ele>50.3</ele>
        <time>2020-06-17T14:33:10Z</time>
      </trkpt>
      <trkpt lat="49.37536" lon="0.08836">
        <ele>50.4</ele>
        <time>2020-06-17T14:33:11Z</time>
      </trkpt>
      <trkpt lat="49.37538" lon="0.0884">
        <ele>50.7</ele>
        <time>2020-06-17T14:33:12Z</time>
      </trkpt>
      <trkpt lat="49.37539" lon="0.08841">
        <ele>50.8</ele>
        <time>2020-06-17T14:33:13Z</time>
      </trkpt>
      <trkpt lat="49.3754" lon="0.08847">
        <ele>51.1</ele>
        <time>2020-06-17T14:33:14Z</time>
      </trkpt>
      <trkpt lat="49.37541" lon="0.08848">
        <ele>51.7</ele>
        <time>2020-06-17T14:33:15Z</time>
      </trkpt>
      <trkpt lat="49.37543" lon="0.08854">
        <ele>52</ele>
        <time>2020-06-17T14:33:16Z</time>
      </trkpt>
      <trkpt lat="49.37543" lon="0.08855">
        <ele>52.1</ele>
        <time>2020-06-17T14:33:17Z</time>
      </trkpt>
      <trkpt lat="49.37545" lon="0.08859">
        <ele>52.3</ele>
        <time>2020-06-17T14:33:18Z</time>
      </trkpt>
      <trkpt lat="49.37545" lon="0.08861">
        <ele>52.4</ele>
        <time>2020-06-17T14:33:19Z</time>
      </trkpt>
      <trkpt lat="49.37547" lon="0.08866">
        <ele>52.7</ele>
        <time>2020-06-17T14:33:20Z</time>
      </trkpt>
      <trkpt lat="49.37547" lon="0.08867">
        <ele>52.8</ele>
        <time>2020-06-17T14:33:21Z</time>
      </trkpt>
      <trkpt lat="49.37548" lon="0.08872">
        <ele>53</ele>
        <time>2020-06-17T14:33:22Z</time>
      </trkpt>
      <trkpt lat="49.37548" lon="0.08874">
        <ele>53.1</ele>
        <time>2020-06-17T14:33:23Z</time>
      </trkpt>
      <trkpt lat="49.37548" lon="0.08879">
        <ele>53.4</ele>
        <time>2020-06-17T14:33:24Z</time>
      </trkpt>
      <trkpt lat="49.37549" lon="0.08885">
        <ele>53.7</ele>
        <time>2020-06-17T14:33:25Z</time>
      </trkpt>
      <trkpt lat="49.37549" lon="0.08887">
        <ele>53.8</ele>
        <time>2020-06-17T14:33:26Z</time>
      </trkpt>
      <trkpt lat="49.3755" lon="0.08892">
        <ele>54.1</ele>
        <time>2020-06-17T14:33:27Z</time>
      </trkpt>
      <trkpt lat="49.3755" lon="0.08893">
        <ele>54.2</ele>
        <time>2020-06-17T14:33:28Z</time>
      </trkpt>
      <trkpt lat="49.37551" lon="0.08899">
        <ele>54.5</ele>
        <time>2020-06-17T14:33:29Z</time>
      </trkpt>
      <trkpt lat="49.37552" lon="0.089">
        <ele>54.7</ele>
        <time>2020-06-17T14:33:30Z</time>
      </trkpt>
      <trkpt lat="49.37553" lon="0.08905">
        <ele>55</ele>
        <time>2020-06-17T14:33:31Z</time>
      </trkpt>
      <trkpt lat="49.37554" lon="0.08906">
        <ele>55.1</ele>
        <time>2020-06-17T14:33:32Z</time>
      </trkpt>
      <trkpt lat="49.37555" lon="0.08911">
        <ele>55.4</ele>
        <time>2020-06-17T14:33:33Z</time>
      </trkpt>
      <trkpt lat="49.37555" lon="0.08913">
        <ele>55.5</ele>
        <time>2020-06-17T14:33:34Z</time>
      </trkpt>
      <trkpt lat="49.37556" lon="0.08915">
        <ele>55.7</ele>
        <time>2020-06-17T14:33:35Z</time>
      </trkpt>
      <trkpt lat="49.37557" lon="0.08917">
        <ele>55.8</ele>
        <time>2020-06-17T14:33:36Z</time>
      </trkpt>
      <trkpt lat="49.37557" lon="0.08923">
        <ele>56.1</ele>
        <time>2020-06-17T14:33:37Z</time>
      </trkpt>
      <trkpt lat="49.37557" lon="0.08925">
        <ele>56.3</ele>
        <time>2020-06-17T14:33:38Z</time>
      </trkpt>
      <trkpt lat="49.37557" lon="0.08928">
        <ele>56.4</ele>
        <time>2020-06-17T14:33:39Z</time>
      </trkpt>
      <trkpt lat="49.37557" lon="0.0893">
        <ele>56.6</ele>
        <time>2020-06-17T14:33:40Z</time>
      </trkpt>
      <trkpt lat="49.37556" lon="0.08935">
        <ele>56.9</ele>
        <time>2020-06-17T14:33:41Z</time>
      </trkpt>
      <trkpt lat="49.37555" lon="0.08936">
        <ele>57</ele>
        <time>2020-06-17T14:33:42Z</time>
      </trkpt>
      <trkpt lat="49.37555" lon="0.0894">
        <ele>57.2</ele>
        <time>2020-06-17T14:33:43Z</time>
      </trkpt>
      <trkpt lat="49.37555" lon="0.08941">
        <ele>57.2</ele>
        <time>2020-06-17T14:33:44Z</time>
      </trkpt>
      <trkpt lat="49.37555" lon="0.08942">
        <ele>57.3</ele>
        <time>2020-06-17T14:33:45Z</time>
      </trkpt>
      <trkpt lat="49.37554" lon="0.08946">
        <ele>57.5</ele>
        <time>2020-06-17T14:33:46Z</time>
      </trkpt>
      <trkpt lat="49.37554" lon="0.08947">
        <ele>57.6</ele>
        <time>2020-06-17T14:33:47Z</time>
      </trkpt>
      <trkpt lat="49.37553" lon="0.0895">
        <ele>57.7</ele>
        <time>2020-06-17T14:33:48Z</time>
      </trkpt>
      <trkpt lat="49.37553" lon="0.08951">
        <ele>57.8</ele>
        <time>2020-06-17T14:33:49Z</time>
      </trkpt>
      <trkpt lat="49.37554" lon="0.08952">
        <ele>57.8</ele>
        <time>2020-06-17T14:33:50Z</time>
      </trkpt>
      <trkpt lat="49.37554" lon="0.08953">
        <ele>57.9</ele>
        <time>2020-06-17T14:33:51Z</time>
      </trkpt>
      <trkpt lat="49.37554" lon="0.08954">
        <ele>57.9</ele>
        <time>2020-06-17T14:33:52Z</time>
      </trkpt>
      <trkpt lat="49.37555" lon="0.08959">
        <ele>58.2</ele>
        <time>2020-06-17T14:33:53Z</time>
      </trkpt>
      <trkpt lat="49.37555" lon="0.08961">
        <ele>58.6</ele>
        <time>2020-06-17T14:33:54Z</time>
      </trkpt>
      <trkpt lat="49.37557" lon="0.08966">
        <ele>58.7</ele>
        <time>2020-06-17T14:33:55Z</time>
      </trkpt>
      <trkpt lat="49.37557" lon="0.08968">
        <ele>58.8</ele>
        <time>2020-06-17T14:33:56Z</time>
      </trkpt>
      <trkpt lat="49.37559" lon="0.08972">
        <ele>58.9</ele>
        <time>2020-06-17T14:33:57Z</time>
      </trkpt>
      <trkpt lat="49.3756" lon="0.08977">
        <ele>59.1</ele>
        <time>2020-06-17T14:33:58Z</time>
      </trkpt>
      <trkpt lat="49.37561" lon="0.08981">
        <ele>59.2</ele>
        <time>2020-06-17T14:33:59Z</time>
      </trkpt>
      <trkpt lat="49.37563" lon="0.08986">
        <ele>59.4</ele>
        <time>2020-06-17T14:34:00Z</time>
      </trkpt>
      <trkpt lat="49.37564" lon="0.08991">
        <ele>59.6</ele>
        <time>2020-06-17T14:34:01Z</time>
      </trkpt>
      <trkpt lat="49.37566" lon="0.08996">
        <ele>59.7</ele>
        <time>2020-06-17T14:34:02Z</time>
      </trkpt>
      <trkpt lat="49.37567" lon="0.09">
        <ele>59.9</ele>
        <time>2020-06-17T14:34:03Z</time>
      </trkpt>
      <trkpt lat="49.37568" lon="0.09005">
        <ele>60.1</ele>
        <time>2020-06-17T14:34:04Z</time>
      </trkpt>
      <trkpt lat="49.37569" lon="0.09008">
        <ele>60.2</ele>
        <time>2020-06-17T14:34:05Z</time>
      </trkpt>
      <trkpt lat="49.3757" lon="0.09013">
        <ele>60.4</ele>
        <time>2020-06-17T14:34:06Z</time>
      </trkpt>
      <trkpt lat="49.3757" lon="0.09015">
        <ele>60.4</ele>
        <time>2020-06-17T14:34:07Z</time>
      </trkpt>
      <trkpt lat="49.37572" lon="0.0902">
        <ele>60.7</ele>
        <time>2020-06-17T14:34:08Z</time>
      </trkpt>
      <trkpt lat="49.37573" lon="0.09022">
        <ele>60.8</ele>
        <time>2020-06-17T14:34:09Z</time>
      </trkpt>
      <trkpt lat="49.37575" lon="0.09026">
        <ele>60.9</ele>
        <time>2020-06-17T14:34:10Z</time>
      </trkpt>
      <trkpt lat="49.37576" lon="0.0903">
        <ele>61.1</ele>
        <time>2020-06-17T14:34:11Z</time>
      </trkpt>
      <trkpt lat="49.37577" lon="0.09034">
        <ele>61.3</ele>
        <time>2020-06-17T14:34:12Z</time>
      </trkpt>
      <trkpt lat="49.37578" lon="0.09038">
        <ele>61.4</ele>
        <time>2020-06-17T14:34:13Z</time>
      </trkpt>
      <trkpt lat="49.3758" lon="0.09043">
        <ele>61.6</ele>
        <time>2020-06-17T14:34:14Z</time>
      </trkpt>
      <trkpt lat="49.37581" lon="0.09047">
        <ele>61.8</ele>
        <time>2020-06-17T14:34:15Z</time>
      </trkpt>
      <trkpt lat="49.37582" lon="0.09051">
        <ele>61.9</ele>
        <time>2020-06-17T14:34:16Z</time>
      </trkpt>
      <trkpt lat="49.37584" lon="0.09057">
        <ele>62.2</ele>
        <time>2020-06-17T14:34:17Z</time>
      </trkpt>
      <trkpt lat="49.37585" lon="0.09059">
        <ele>62.2</ele>
        <time>2020-06-17T14:34:18Z</time>
      </trkpt>
      <trkpt lat="49.37587" lon="0.09064">
        <ele>62.4</ele>
        <time>2020-06-17T14:34:19Z</time>
      </trkpt>
      <trkpt lat="49.37587" lon="0.09065">
        <ele>62.5</ele>
        <time>2020-06-17T14:34:20Z</time>
      </trkpt>
      <trkpt lat="49.37588" lon="0.09069">
        <ele>62.7</ele>
        <time>2020-06-17T14:34:21Z</time>
      </trkpt>
      <trkpt lat="49.3759" lon="0.09074">
        <ele>62.8</ele>
        <time>2020-06-17T14:34:22Z</time>
      </trkpt>
      <trkpt lat="49.37591" lon="0.09078">
        <ele>63</ele>
        <time>2020-06-17T14:34:23Z</time>
      </trkpt>
      <trkpt lat="49.37592" lon="0.09082">
        <ele>63.1</ele>
        <time>2020-06-17T14:34:24Z</time>
      </trkpt>
      <trkpt lat="49.37594" lon="0.09087">
        <ele>63.3</ele>
        <time>2020-06-17T14:34:25Z</time>
      </trkpt>
      <trkpt lat="49.37595" lon="0.0909">
        <ele>63.4</ele>
        <time>2020-06-17T14:34:26Z</time>
      </trkpt>
      <trkpt lat="49.37597" lon="0.09094">
        <ele>63.6</ele>
        <time>2020-06-17T14:34:27Z</time>
      </trkpt>
      <trkpt lat="49.37599" lon="0.091">
        <ele>63.8</ele>
        <time>2020-06-17T14:34:28Z</time>
      </trkpt>
      <trkpt lat="49.37601" lon="0.09104">
        <ele>64</ele>
        <time>2020-06-17T14:34:29Z</time>
      </trkpt>
      <trkpt lat="49.37603" lon="0.09108">
        <ele>64.1</ele>
        <time>2020-06-17T14:34:30Z</time>
      </trkpt>
      <trkpt lat="49.37604" lon="0.09112">
        <ele>64.3</ele>
        <time>2020-06-17T14:34:31Z</time>
      </trkpt>
      <trkpt lat="49.37606" lon="0.09116">
        <ele>64.4</ele>
        <time>2020-06-17T14:34:32Z</time>
      </trkpt>
      <trkpt lat="49.37608" lon="0.09121">
        <ele>64.6</ele>
        <time>2020-06-17T14:34:33Z</time>
      </trkpt>
      <trkpt lat="49.37609" lon="0.09126">
        <ele>64.8</ele>
        <time>2020-06-17T14:34:34Z</time>
      </trkpt>
      <trkpt lat="49.37611" lon="0.09131">
        <ele>65</ele>
        <time>2020-06-17T14:34:35Z</time>
      </trkpt>
      <trkpt lat="49.37613" lon="0.09137">
        <ele>65.2</ele>
        <time>2020-06-17T14:34:36Z</time>
      </trkpt>
      <trkpt lat="49.37615" lon="0.09141">
        <ele>65.3</ele>
        <time>2020-06-17T14:34:37Z</time>
      </trkpt>
      <trkpt lat="49.37616" lon="0.09146">
        <ele>65.5</ele>
        <time>2020-06-17T14:34:38Z</time>
      </trkpt>
      <trkpt lat="49.37617" lon="0.0915">
        <ele>65.7</ele>
        <time>2020-06-17T14:34:39Z</time>
      </trkpt>
      <trkpt lat="49.37619" lon="0.09154">
        <ele>65.9</ele>
        <time>2020-06-17T14:34:40Z</time>
      </trkpt>
      <trkpt lat="49.3762" lon="0.0916">
        <ele>66.1</ele>
        <time>2020-06-17T14:34:41Z</time>
      </trkpt>
      <trkpt lat="49.37621" lon="0.09163">
        <ele>66.2</ele>
        <time>2020-06-17T14:34:42Z</time>
      </trkpt>
      <trkpt lat="49.37622" lon="0.09167">
        <ele>66.4</ele>
        <time>2020-06-17T14:34:43Z</time>
      </trkpt>
      <trkpt lat="49.37624" lon="0.09172">
        <ele>66.6</ele>
        <time>2020-06-17T14:34:44Z</time>
      </trkpt>
      <trkpt lat="49.37626" lon="0.09178">
        <ele>66.9</ele>
        <time>2020-06-17T14:34:45Z</time>
      </trkpt>
      <trkpt lat="49.37628" lon="0.09184">
        <ele>67.1</ele>
        <time>2020-06-17T14:34:46Z</time>
      </trkpt>
      <trkpt lat="49.37628" lon="0.09186">
        <ele>67.2</ele>
        <time>2020-06-17T14:34:47Z</time>
      </trkpt>
      <trkpt lat="49.3763" lon="0.09189">
        <ele>67.4</ele>
        <time>2020-06-17T14:34:48Z</time>
      </trkpt>
      <trkpt lat="49.37632" lon="0.09193">
        <ele>67.5</ele>
        <time>2020-06-17T14:34:49Z</time>
      </trkpt>
      <trkpt lat="49.37634" lon="0.09196">
        <ele>67.7</ele>
        <time>2020-06-17T14:34:50Z</time>
      </trkpt>
      <trkpt lat="49.37635" lon="0.09201">
        <ele>67.9</ele>
        <time>2020-06-17T14:34:51Z</time>
      </trkpt>
      <trkpt lat="49.37636" lon="0.09206">
        <ele>68</ele>
        <time>2020-06-17T14:34:52Z</time>
      </trkpt>
      <trkpt lat="49.37637" lon="0.0921">
        <ele>68.2</ele>
        <time>2020-06-17T14:34:53Z</time>
      </trkpt>
      <trkpt lat="49.37639" lon="0.09215">
        <ele>68.4</ele>
        <time>2020-06-17T14:34:54Z</time>
      </trkpt>
      <trkpt lat="49.37641" lon="0.0922">
        <ele>68.5</ele>
        <time>2020-06-17T14:34:55Z</time>
      </trkpt>
      <trkpt lat="49.37643" lon="0.09226">
        <ele>68.7</ele>
        <time>2020-06-17T14:34:56Z</time>
      </trkpt>
      <trkpt lat="49.37644" lon="0.09231">
        <ele>68.9</ele>
        <time>2020-06-17T14:34:57Z</time>
      </trkpt>
      <trkpt lat="49.37645" lon="0.09236">
        <ele>69.1</ele>
        <time>2020-06-17T14:34:58Z</time>
      </trkpt>
      <trkpt lat="49.37647" lon="0.0924">
        <ele>69.3</ele>
        <time>2020-06-17T14:34:59Z</time>
      </trkpt>
      <trkpt lat="49.37649" lon="0.09245">
        <ele>69.4</ele>
        <time>2020-06-17T14:35:00Z</time>
      </trkpt>
      <trkpt lat="49.37651" lon="0.09249">
        <ele>69.6</ele>
        <time>2020-06-17T14:35:01Z</time>
      </trkpt>
      <trkpt lat="49.37653" lon="0.09254">
        <ele>69.8</ele>
        <time>2020-06-17T14:35:02Z</time>
      </trkpt>
      <trkpt lat="49.37655" lon="0.09259">
        <ele>70</ele>
        <time>2020-06-17T14:35:03Z</time>
      </trkpt>
      <trkpt lat="49.37656" lon="0.09263">
        <ele>70.1</ele>
        <time>2020-06-17T14:35:04Z</time>
      </trkpt>
      <trkpt lat="49.37658" lon="0.09268">
        <ele>70.3</ele>
        <time>2020-06-17T14:35:05Z</time>
      </trkpt>
      <trkpt lat="49.37659" lon="0.09273">
        <ele>70.5</ele>
        <time>2020-06-17T14:35:06Z</time>
      </trkpt>
      <trkpt lat="49.37661" lon="0.09277">
        <ele>70.6</ele>
        <time>2020-06-17T14:35:07Z</time>
      </trkpt>
      <trkpt lat="49.37662" lon="0.09281">
        <ele>70.8</ele>
        <time>2020-06-17T14:35:08Z</time>
      </trkpt>
      <trkpt lat="49.37664" lon="0.09284">
        <ele>70.9</ele>
        <time>2020-06-17T14:35:09Z</time>
      </trkpt>
      <trkpt lat="49.37667" lon="0.09289">
        <ele>71.2</ele>
        <time>2020-06-17T14:35:10Z</time>
      </trkpt>
      <trkpt lat="49.37668" lon="0.09291">
        <ele>71.3</ele>
        <time>2020-06-17T14:35:11Z</time>
      </trkpt>
      <trkpt lat="49.37669" lon="0.09297">
        <ele>71.4</ele>
        <time>2020-06-17T14:35:12Z</time>
      </trkpt>
      <trkpt lat="49.3767" lon="0.09299">
        <ele>71.5</ele>
        <time>2020-06-17T14:35:13Z</time>
      </trkpt>
      <trkpt lat="49.37671" lon="0.09303">
        <ele>71.6</ele>
        <time>2020-06-17T14:35:14Z</time>
      </trkpt>
      <trkpt lat="49.37673" lon="0.09305">
        <ele>71.7</ele>
        <time>2020-06-17T14:35:15Z</time>
      </trkpt>
      <trkpt lat="49.37675" lon="0.09309">
        <ele>71.8</ele>
        <time>2020-06-17T14:35:16Z</time>
      </trkpt>
      <trkpt lat="49.37677" lon="0.09315">
        <ele>71.9</ele>
        <time>2020-06-17T14:35:17Z</time>
      </trkpt>
      <trkpt lat="49.37678" lon="0.09321">
        <ele>72</ele>
        <time>2020-06-17T14:35:18Z</time>
      </trkpt>
      <trkpt lat="49.3768" lon="0.09327">
        <ele>72.2</ele>
        <time>2020-06-17T14:35:19Z</time>
      </trkpt>
      <trkpt lat="49.37682" lon="0.09332">
        <ele>72.2</ele>
        <time>2020-06-17T14:35:20Z</time>
      </trkpt>
      <trkpt lat="49.37684" lon="0.09338">
        <ele>72.3</ele>
        <time>2020-06-17T14:35:21Z</time>
      </trkpt>
      <trkpt lat="49.37687" lon="0.09342">
        <ele>72.4</ele>
        <time>2020-06-17T14:35:22Z</time>
      </trkpt>
      <trkpt lat="49.37689" lon="0.09347">
        <ele>72.5</ele>
        <time>2020-06-17T14:35:23Z</time>
      </trkpt>
      <trkpt lat="49.37692" lon="0.09353">
        <ele>72.5</ele>
        <time>2020-06-17T14:35:24Z</time>
      </trkpt>
      <trkpt lat="49.37694" lon="0.09359">
        <ele>72.6</ele>
        <time>2020-06-17T14:35:25Z</time>
      </trkpt>
      <trkpt lat="49.37696" lon="0.09365">
        <ele>72.7</ele>
        <time>2020-06-17T14:35:26Z</time>
      </trkpt>
      <trkpt lat="49.37697" lon="0.09371">
        <ele>72.8</ele>
        <time>2020-06-17T14:35:27Z</time>
      </trkpt>
      <trkpt lat="49.37699" lon="0.09377">
        <ele>72.8</ele>
        <time>2020-06-17T14:35:28Z</time>
      </trkpt>
      <trkpt lat="49.37701" lon="0.09383">
        <ele>72.9</ele>
        <time>2020-06-17T14:35:29Z</time>
      </trkpt>
      <trkpt lat="49.37702" lon="0.09391">
        <ele>73</ele>
        <time>2020-06-17T14:35:30Z</time>
      </trkpt>
      <trkpt lat="49.37704" lon="0.09397">
        <ele>73</ele>
        <time>2020-06-17T14:35:31Z</time>
      </trkpt>
      <trkpt lat="49.37705" lon="0.09406">
        <ele>73.1</ele>
        <time>2020-06-17T14:35:32Z</time>
      </trkpt>
      <trkpt lat="49.37706" lon="0.09414">
        <ele>73.2</ele>
        <time>2020-06-17T14:35:33Z</time>
      </trkpt>
      <trkpt lat="49.37707" lon="0.09421">
        <ele>73.3</ele>
        <time>2020-06-17T14:35:34Z</time>
      </trkpt>
      <trkpt lat="49.37709" lon="0.09427">
        <ele>73.3</ele>
        <time>2020-06-17T14:35:35Z</time>
      </trkpt>
      <trkpt lat="49.37712" lon="0.09434">
        <ele>73.4</ele>
        <time>2020-06-17T14:35:36Z</time>
      </trkpt>
      <trkpt lat="49.37714" lon="0.09439">
        <ele>73.5</ele>
        <time>2020-06-17T14:35:37Z</time>
      </trkpt>
      <trkpt lat="49.37715" lon="0.09444">
        <ele>73.5</ele>
        <time>2020-06-17T14:35:38Z</time>
      </trkpt>
      <trkpt lat="49.37717" lon="0.0945">
        <ele>73.6</ele>
        <time>2020-06-17T14:35:39Z</time>
      </trkpt>
      <trkpt lat="49.37719" lon="0.09456">
        <ele>73.7</ele>
        <time>2020-06-17T14:35:40Z</time>
      </trkpt>
      <trkpt lat="49.3772" lon="0.09464">
        <ele>73.7</ele>
        <time>2020-06-17T14:35:41Z</time>
      </trkpt>
      <trkpt lat="49.37722" lon="0.09471">
        <ele>73.8</ele>
        <time>2020-06-17T14:35:42Z</time>
      </trkpt>
      <trkpt lat="49.37723" lon="0.09478">
        <ele>73.9</ele>
        <time>2020-06-17T14:35:43Z</time>
      </trkpt>
      <trkpt lat="49.37726" lon="0.09486">
        <ele>74</ele>
        <time>2020-06-17T14:35:44Z</time>
      </trkpt>
      <trkpt lat="49.37728" lon="0.09493">
        <ele>74.2</ele>
        <time>2020-06-17T14:35:45Z</time>
      </trkpt>
      <trkpt lat="49.3773" lon="0.095">
        <ele>74.3</ele>
        <time>2020-06-17T14:35:46Z</time>
      </trkpt>
      <trkpt lat="49.37733" lon="0.09506">
        <ele>74.5</ele>
        <time>2020-06-17T14:35:47Z</time>
      </trkpt>
      <trkpt lat="49.37734" lon="0.09513">
        <ele>74.6</ele>
        <time>2020-06-17T14:35:48Z</time>
      </trkpt>
      <trkpt lat="49.37736" lon="0.0952">
        <ele>74.8</ele>
        <time>2020-06-17T14:35:49Z</time>
      </trkpt>
      <trkpt lat="49.37738" lon="0.09526">
        <ele>75</ele>
        <time>2020-06-17T14:35:50Z</time>
      </trkpt>
      <trkpt lat="49.37739" lon="0.09533">
        <ele>75.2</ele>
        <time>2020-06-17T14:35:51Z</time>
      </trkpt>
      <trkpt lat="49.37742" lon="0.09539">
        <ele>75.3</ele>
        <time>2020-06-17T14:35:52Z</time>
      </trkpt>
      <trkpt lat="49.37744" lon="0.09545">
        <ele>75.5</ele>
        <time>2020-06-17T14:35:53Z</time>
      </trkpt>
      <trkpt lat="49.37746" lon="0.09551">
        <ele>75.6</ele>
        <time>2020-06-17T14:35:54Z</time>
      </trkpt>
      <trkpt lat="49.37747" lon="0.09557">
        <ele>75.7</ele>
        <time>2020-06-17T14:35:55Z</time>
      </trkpt>
      <trkpt lat="49.37749" lon="0.09564">
        <ele>75.9</ele>
        <time>2020-06-17T14:35:56Z</time>
      </trkpt>
      <trkpt lat="49.3775" lon="0.09569">
        <ele>76.1</ele>
        <time>2020-06-17T14:35:57Z</time>
      </trkpt>
      <trkpt lat="49.37752" lon="0.09574">
        <ele>76.3</ele>
        <time>2020-06-17T14:35:58Z</time>
      </trkpt>
      <trkpt lat="49.37753" lon="0.09579">
        <ele>76.5</ele>
        <time>2020-06-17T14:35:59Z</time>
      </trkpt>
      <trkpt lat="49.37755" lon="0.09585">
        <ele>76.8</ele>
        <time>2020-06-17T14:36:00Z</time>
      </trkpt>
      <trkpt lat="49.37757" lon="0.09592">
        <ele>77</ele>
        <time>2020-06-17T14:36:01Z</time>
      </trkpt>
      <trkpt lat="49.37759" lon="0.09599">
        <ele>77.3</ele>
        <time>2020-06-17T14:36:02Z</time>
      </trkpt>
      <trkpt lat="49.3776" lon="0.09607">
        <ele>77.6</ele>
        <time>2020-06-17T14:36:03Z</time>
      </trkpt>
      <trkpt lat="49.37761" lon="0.09614">
        <ele>77.9</ele>
        <time>2020-06-17T14:36:04Z</time>
      </trkpt>
      <trkpt lat="49.37762" lon="0.09619">
        <ele>78.1</ele>
        <time>2020-06-17T14:36:05Z</time>
      </trkpt>
      <trkpt lat="49.37763" lon="0.09625">
        <ele>78.4</ele>
        <time>2020-06-17T14:36:06Z</time>
      </trkpt>
      <trkpt lat="49.37764" lon="0.0963">
        <ele>78.6</ele>
        <time>2020-06-17T14:36:07Z</time>
      </trkpt>
      <trkpt lat="49.37765" lon="0.09636">
        <ele>78.9</ele>
        <time>2020-06-17T14:36:08Z</time>
      </trkpt>
      <trkpt lat="49.37767" lon="0.09643">
        <ele>79.2</ele>
        <time>2020-06-17T14:36:09Z</time>
      </trkpt>
      <trkpt lat="49.37767" lon="0.09649">
        <ele>79.4</ele>
        <time>2020-06-17T14:36:10Z</time>
      </trkpt>
      <trkpt lat="49.37768" lon="0.09655">
        <ele>79.6</ele>
        <time>2020-06-17T14:36:11Z</time>
      </trkpt>
      <trkpt lat="49.37768" lon="0.0966">
        <ele>79.8</ele>
        <time>2020-06-17T14:36:12Z</time>
      </trkpt>
      <trkpt lat="49.3777" lon="0.09666">
        <ele>80</ele>
        <time>2020-06-17T14:36:13Z</time>
      </trkpt>
      <trkpt lat="49.3777" lon="0.0967">
        <ele>80.1</ele>
        <time>2020-06-17T14:36:14Z</time>
      </trkpt>
      <trkpt lat="49.37771" lon="0.09675">
        <ele>80.3</ele>
        <time>2020-06-17T14:36:15Z</time>
      </trkpt>
      <trkpt lat="49.37773" lon="0.09682">
        <ele>80.5</ele>
        <time>2020-06-17T14:36:16Z</time>
      </trkpt>
      <trkpt lat="49.37774" lon="0.09688">
        <ele>80.6</ele>
        <time>2020-06-17T14:36:17Z</time>
      </trkpt>
      <trkpt lat="49.37775" lon="0.09694">
        <ele>80.7</ele>
        <time>2020-06-17T14:36:18Z</time>
      </trkpt>
      <trkpt lat="49.37776" lon="0.09699">
        <ele>80.8</ele>
        <time>2020-06-17T14:36:19Z</time>
      </trkpt>
      <trkpt lat="49.37777" lon="0.09705">
        <ele>80.8</ele>
        <time>2020-06-17T14:36:20Z</time>
      </trkpt>
      <trkpt lat="49.37778" lon="0.0971">
        <ele>80.9</ele>
        <time>2020-06-17T14:36:21Z</time>
      </trkpt>
      <trkpt lat="49.3778" lon="0.09715">
        <ele>80.9</ele>
        <time>2020-06-17T14:36:22Z</time>
      </trkpt>
      <trkpt lat="49.37782" lon="0.09722">
        <ele>80.9</ele>
        <time>2020-06-17T14:36:23Z</time>
      </trkpt>
      <trkpt lat="49.37784" lon="0.09728">
        <ele>80.9</ele>
        <time>2020-06-17T14:36:24Z</time>
      </trkpt>
      <trkpt lat="49.37787" lon="0.09734">
        <ele>80.9</ele>
        <time>2020-06-17T14:36:25Z</time>
      </trkpt>
      <trkpt lat="49.37789" lon="0.09741">
        <ele>80.9</ele>
        <time>2020-06-17T14:36:26Z</time>
      </trkpt>
      <trkpt lat="49.37792" lon="0.09747">
        <ele>80.8</ele>
        <time>2020-06-17T14:36:27Z</time>
      </trkpt>
      <trkpt lat="49.37794" lon="0.09753">
        <ele>80.7</ele>
        <time>2020-06-17T14:36:28Z</time>
      </trkpt>
      <trkpt lat="49.37797" lon="0.09759">
        <ele>80.5</ele>
        <time>2020-06-17T14:36:29Z</time>
      </trkpt>
      <trkpt lat="49.37801" lon="0.09766">
        <ele>80.3</ele>
        <time>2020-06-17T14:36:30Z</time>
      </trkpt>
      <trkpt lat="49.37804" lon="0.09772">
        <ele>80.2</ele>
        <time>2020-06-17T14:36:31Z</time>
      </trkpt>
      <trkpt lat="49.37808" lon="0.09777">
        <ele>80</ele>
        <time>2020-06-17T14:36:32Z</time>
      </trkpt>
      <trkpt lat="49.37812" lon="0.09783">
        <ele>79.9</ele>
        <time>2020-06-17T14:36:33Z</time>
      </trkpt>
      <trkpt lat="49.37816" lon="0.09789">
        <ele>79.7</ele>
        <time>2020-06-17T14:36:34Z</time>
      </trkpt>
      <trkpt lat="49.37819" lon="0.09795">
        <ele>79.5</ele>
        <time>2020-06-17T14:36:35Z</time>
      </trkpt>
      <trkpt lat="49.37823" lon="0.09801">
        <ele>79.4</ele>
        <time>2020-06-17T14:36:36Z</time>
      </trkpt>
      <trkpt lat="49.37826" lon="0.09807">
        <ele>79.2</ele>
        <time>2020-06-17T14:36:37Z</time>
      </trkpt>
      <trkpt lat="49.37829" lon="0.09812">
        <ele>79.1</ele>
        <time>2020-06-17T14:36:38Z</time>
      </trkpt>
      <trkpt lat="49.37832" lon="0.09818">
        <ele>78.9</ele>
        <time>2020-06-17T14:36:39Z</time>
      </trkpt>
      <trkpt lat="49.37834" lon="0.09823">
        <ele>78.8</ele>
        <time>2020-06-17T14:36:40Z</time>
      </trkpt>
      <trkpt lat="49.37837" lon="0.09827">
        <ele>78.4</ele>
        <time>2020-06-17T14:36:41Z</time>
      </trkpt>
      <trkpt lat="49.37838" lon="0.09829">
        <ele>78.4</ele>
        <time>2020-06-17T14:36:42Z</time>
      </trkpt>
      <trkpt lat="49.37839" lon="0.0983">
        <ele>78.4</ele>
        <time>2020-06-17T14:36:43Z</time>
      </trkpt>
      <trkpt lat="49.37839" lon="0.09832">
        <ele>78.4</ele>
        <time>2020-06-17T14:36:44Z</time>
      </trkpt>
      <trkpt lat="49.37838" lon="0.09833">
        <ele>78.4</ele>
        <time>2020-06-17T14:36:45Z</time>
      </trkpt>
      <trkpt lat="49.37838" lon="0.09835">
        <ele>78.4</ele>
        <time>2020-06-17T14:36:46Z</time>
      </trkpt>
      <trkpt lat="49.37836" lon="0.09837">
        <ele>78.4</ele>
        <time>2020-06-17T14:36:47Z</time>
      </trkpt>
      <trkpt lat="49.37835" lon="0.09838">
        <ele>78.9</ele>
        <time>2020-06-17T14:36:48Z</time>
      </trkpt>
      <trkpt lat="49.37833" lon="0.09838">
        <ele>79</ele>
        <time>2020-06-17T14:36:49Z</time>
      </trkpt>
      <trkpt lat="49.37832" lon="0.09838">
        <ele>79.1</ele>
        <time>2020-06-17T14:36:50Z</time>
      </trkpt>
      <trkpt lat="49.37831" lon="0.0984">
        <ele>79.3</ele>
        <time>2020-06-17T14:36:51Z</time>
      </trkpt>
      <trkpt lat="49.3783" lon="0.09841">
        <ele>79.4</ele>
        <time>2020-06-17T14:36:52Z</time>
      </trkpt>
      <trkpt lat="49.37828" lon="0.09843">
        <ele>79.6</ele>
        <time>2020-06-17T14:36:53Z</time>
      </trkpt>
      <trkpt lat="49.37827" lon="0.09844">
        <ele>79.7</ele>
        <time>2020-06-17T14:36:54Z</time>
      </trkpt>
      <trkpt lat="49.37825" lon="0.09846">
        <ele>79.9</ele>
        <time>2020-06-17T14:36:55Z</time>
      </trkpt>
      <trkpt lat="49.37823" lon="0.09846">
        <ele>80.1</ele>
        <time>2020-06-17T14:36:56Z</time>
      </trkpt>
      <trkpt lat="49.37822" lon="0.09847">
        <ele>80.3</ele>
        <time>2020-06-17T14:36:57Z</time>
      </trkpt>
      <trkpt lat="49.37819" lon="0.09849">
        <ele>80.7</ele>
        <time>2020-06-17T14:36:58Z</time>
      </trkpt>
      <trkpt lat="49.37817" lon="0.09849">
        <ele>80.9</ele>
        <time>2020-06-17T14:36:59Z</time>
      </trkpt>
      <trkpt lat="49.37814" lon="0.09851">
        <ele>81.4</ele>
        <time>2020-06-17T14:37:00Z</time>
      </trkpt>
      <trkpt lat="49.37813" lon="0.09852">
        <ele>81.6</ele>
        <time>2020-06-17T14:37:01Z</time>
      </trkpt>
      <trkpt lat="49.3781" lon="0.09853">
        <ele>82</ele>
        <time>2020-06-17T14:37:02Z</time>
      </trkpt>
      <trkpt lat="49.37807" lon="0.09856">
        <ele>82.4</ele>
        <time>2020-06-17T14:37:03Z</time>
      </trkpt>
      <trkpt lat="49.37806" lon="0.09857">
        <ele>82.6</ele>
        <time>2020-06-17T14:37:04Z</time>
      </trkpt>
      <trkpt lat="49.37803" lon="0.0986">
        <ele>83.1</ele>
        <time>2020-06-17T14:37:05Z</time>
      </trkpt>
      <trkpt lat="49.37802" lon="0.0986">
        <ele>83.2</ele>
        <time>2020-06-17T14:37:06Z</time>
      </trkpt>
      <trkpt lat="49.37799" lon="0.09862">
        <ele>83.7</ele>
        <time>2020-06-17T14:37:07Z</time>
      </trkpt>
      <trkpt lat="49.37798" lon="0.09862">
        <ele>83.9</ele>
        <time>2020-06-17T14:37:08Z</time>
      </trkpt>
      <trkpt lat="49.37796" lon="0.09864">
        <ele>84.2</ele>
        <time>2020-06-17T14:37:09Z</time>
      </trkpt>
      <trkpt lat="49.37795" lon="0.09864">
        <ele>84.3</ele>
        <time>2020-06-17T14:37:10Z</time>
      </trkpt>
      <trkpt lat="49.37793" lon="0.09866">
        <ele>84.6</ele>
        <time>2020-06-17T14:37:11Z</time>
      </trkpt>
      <trkpt lat="49.37792" lon="0.09867">
        <ele>84.8</ele>
        <time>2020-06-17T14:37:12Z</time>
      </trkpt>
      <trkpt lat="49.3779" lon="0.0987">
        <ele>85.2</ele>
        <time>2020-06-17T14:37:13Z</time>
      </trkpt>
      <trkpt lat="49.37787" lon="0.09872">
        <ele>85.6</ele>
        <time>2020-06-17T14:37:14Z</time>
      </trkpt>
      <trkpt lat="49.37784" lon="0.09875">
        <ele>86.1</ele>
        <time>2020-06-17T14:37:15Z</time>
      </trkpt>
      <trkpt lat="49.37783" lon="0.09876">
        <ele>86.3</ele>
        <time>2020-06-17T14:37:16Z</time>
      </trkpt>
      <trkpt lat="49.37779" lon="0.09878">
        <ele>86.9</ele>
        <time>2020-06-17T14:37:17Z</time>
      </trkpt>
      <trkpt lat="49.37777" lon="0.09879">
        <ele>87.2</ele>
        <time>2020-06-17T14:37:18Z</time>
      </trkpt>
      <trkpt lat="49.37774" lon="0.09881">
        <ele>87.6</ele>
        <time>2020-06-17T14:37:19Z</time>
      </trkpt>
      <trkpt lat="49.37772" lon="0.09883">
        <ele>88</ele>
        <time>2020-06-17T14:37:20Z</time>
      </trkpt>
      <trkpt lat="49.37769" lon="0.09886">
        <ele>88.6</ele>
        <time>2020-06-17T14:37:21Z</time>
      </trkpt>
      <trkpt lat="49.37768" lon="0.09887">
        <ele>88.7</ele>
        <time>2020-06-17T14:37:22Z</time>
      </trkpt>
      <trkpt lat="49.37767" lon="0.09889">
        <ele>89</ele>
        <time>2020-06-17T14:37:23Z</time>
      </trkpt>
      <trkpt lat="49.37765" lon="0.0989">
        <ele>89.3</ele>
        <time>2020-06-17T14:37:24Z</time>
      </trkpt>
      <trkpt lat="49.37764" lon="0.0989">
        <ele>89.5</ele>
        <time>2020-06-17T14:37:25Z</time>
      </trkpt>
      <trkpt lat="49.37762" lon="0.09891">
        <ele>89.7</ele>
        <time>2020-06-17T14:37:26Z</time>
      </trkpt>
      <trkpt lat="49.37761" lon="0.09892">
        <ele>89.9</ele>
        <time>2020-06-17T14:37:27Z</time>
      </trkpt>
      <trkpt lat="49.3776" lon="0.09894">
        <ele>90.1</ele>
        <time>2020-06-17T14:37:28Z</time>
      </trkpt>
      <trkpt lat="49.37759" lon="0.09895">
        <ele>90.3</ele>
        <time>2020-06-17T14:37:29Z</time>
      </trkpt>
      <trkpt lat="49.37757" lon="0.09897">
        <ele>90.6</ele>
        <time>2020-06-17T14:37:30Z</time>
      </trkpt>
      <trkpt lat="49.37756" lon="0.09899">
        <ele>90.9</ele>
        <time>2020-06-17T14:37:31Z</time>
      </trkpt>
      <trkpt lat="49.37754" lon="0.099">
        <ele>91.1</ele>
        <time>2020-06-17T14:37:32Z</time>
      </trkpt>
      <trkpt lat="49.37751" lon="0.09902">
        <ele>91.6</ele>
        <time>2020-06-17T14:37:33Z</time>
      </trkpt>
      <trkpt lat="49.3775" lon="0.09903">
        <ele>91.7</ele>
        <time>2020-06-17T14:37:34Z</time>
      </trkpt>
      <trkpt lat="49.37749" lon="0.09905">
        <ele>92</ele>
        <time>2020-06-17T14:37:35Z</time>
      </trkpt>
      <trkpt lat="49.37747" lon="0.09906">
        <ele>92.3</ele>
        <time>2020-06-17T14:37:36Z</time>
      </trkpt>
      <trkpt lat="49.37745" lon="0.09909">
        <ele>92.6</ele>
        <time>2020-06-17T14:37:37Z</time>
      </trkpt>
      <trkpt lat="49.37744" lon="0.09909">
        <ele>92.8</ele>
        <time>2020-06-17T14:37:38Z</time>
      </trkpt>
      <trkpt lat="49.37743" lon="0.0991">
        <ele>93</ele>
        <time>2020-06-17T14:37:39Z</time>
      </trkpt>
      <trkpt lat="49.37742" lon="0.09912">
        <ele>93.2</ele>
        <time>2020-06-17T14:37:40Z</time>
      </trkpt>
      <trkpt lat="49.37739" lon="0.09915">
        <ele>93.6</ele>
        <time>2020-06-17T14:37:41Z</time>
      </trkpt>
      <trkpt lat="49.37737" lon="0.09917">
        <ele>94</ele>
        <time>2020-06-17T14:37:42Z</time>
      </trkpt>
      <trkpt lat="49.37735" lon="0.09921">
        <ele>94.4</ele>
        <time>2020-06-17T14:37:43Z</time>
      </trkpt>
      <trkpt lat="49.37734" lon="0.09922">
        <ele>94.5</ele>
        <time>2020-06-17T14:37:44Z</time>
      </trkpt>
      <trkpt lat="49.37731" lon="0.09925">
        <ele>94.9</ele>
        <time>2020-06-17T14:37:45Z</time>
      </trkpt>
      <trkpt lat="49.37731" lon="0.09926">
        <ele>95</ele>
        <time>2020-06-17T14:37:46Z</time>
      </trkpt>
      <trkpt lat="49.3773" lon="0.09927">
        <ele>95.1</ele>
        <time>2020-06-17T14:37:47Z</time>
      </trkpt>
      <trkpt lat="49.3773" lon="0.09929">
        <ele>95.2</ele>
        <time>2020-06-17T14:37:48Z</time>
      </trkpt>
      <trkpt lat="49.3773" lon="0.09931">
        <ele>95.3</ele>
        <time>2020-06-17T14:37:49Z</time>
      </trkpt>
      <trkpt lat="49.37729" lon="0.09936">
        <ele>95.6</ele>
        <time>2020-06-17T14:37:50Z</time>
      </trkpt>
      <trkpt lat="49.37729" lon="0.09937">
        <ele>95.7</ele>
        <time>2020-06-17T14:37:51Z</time>
      </trkpt>
      <trkpt lat="49.37729" lon="0.0994">
        <ele>95.9</ele>
        <time>2020-06-17T14:37:52Z</time>
      </trkpt>
      <trkpt lat="49.37728" lon="0.09943">
        <ele>96</ele>
        <time>2020-06-17T14:37:53Z</time>
      </trkpt>
      <trkpt lat="49.37729" lon="0.09945">
        <ele>96.1</ele>
        <time>2020-06-17T14:37:54Z</time>
      </trkpt>
      <trkpt lat="49.37729" lon="0.09948">
        <ele>96.2</ele>
        <time>2020-06-17T14:37:55Z</time>
      </trkpt>
      <trkpt lat="49.3773" lon="0.09952">
        <ele>96.3</ele>
        <time>2020-06-17T14:37:56Z</time>
      </trkpt>
      <trkpt lat="49.3773" lon="0.09954">
        <ele>96.4</ele>
        <time>2020-06-17T14:37:57Z</time>
      </trkpt>
      <trkpt lat="49.37729" lon="0.09958">
        <ele>96.6</ele>
        <time>2020-06-17T14:37:58Z</time>
      </trkpt>
      <trkpt lat="49.37728" lon="0.09964">
        <ele>96.8</ele>
        <time>2020-06-17T14:37:59Z</time>
      </trkpt>
      <trkpt lat="49.37728" lon="0.09966">
        <ele>96.8</ele>
        <time>2020-06-17T14:38:00Z</time>
      </trkpt>
      <trkpt lat="49.37727" lon="0.09971">
        <ele>97</ele>
        <time>2020-06-17T14:38:01Z</time>
      </trkpt>
      <trkpt lat="49.37726" lon="0.09973">
        <ele>97.1</ele>
        <time>2020-06-17T14:38:02Z</time>
      </trkpt>
      <trkpt lat="49.37725" lon="0.09977">
        <ele>97.3</ele>
        <time>2020-06-17T14:38:03Z</time>
      </trkpt>
      <trkpt lat="49.37724" lon="0.09982">
        <ele>97.4</ele>
        <time>2020-06-17T14:38:04Z</time>
      </trkpt>
      <trkpt lat="49.37723" lon="0.09986">
        <ele>97.6</ele>
        <time>2020-06-17T14:38:05Z</time>
      </trkpt>
      <trkpt lat="49.37723" lon="0.09991">
        <ele>97.8</ele>
        <time>2020-06-17T14:38:06Z</time>
      </trkpt>
      <trkpt lat="49.37724" lon="0.09997">
        <ele>98</ele>
        <time>2020-06-17T14:38:07Z</time>
      </trkpt>
      <trkpt lat="49.37725" lon="0.09999">
        <ele>98.1</ele>
        <time>2020-06-17T14:38:08Z</time>
      </trkpt>
      <trkpt lat="49.37726" lon="0.10005">
        <ele>98.3</ele>
        <time>2020-06-17T14:38:09Z</time>
      </trkpt>
      <trkpt lat="49.37725" lon="0.10007">
        <ele>98.3</ele>
        <time>2020-06-17T14:38:10Z</time>
      </trkpt>
      <trkpt lat="49.37727" lon="0.10011">
        <ele>98.4</ele>
        <time>2020-06-17T14:38:11Z</time>
      </trkpt>
      <trkpt lat="49.37728" lon="0.10012">
        <ele>98.5</ele>
        <time>2020-06-17T14:38:12Z</time>
      </trkpt>
      <trkpt lat="49.37729" lon="0.10017">
        <ele>98.5</ele>
        <time>2020-06-17T14:38:13Z</time>
      </trkpt>
      <trkpt lat="49.3773" lon="0.10018">
        <ele>98.6</ele>
        <time>2020-06-17T14:38:14Z</time>
      </trkpt>
      <trkpt lat="49.37731" lon="0.10025">
        <ele>98.7</ele>
        <time>2020-06-17T14:38:15Z</time>
      </trkpt>
      <trkpt lat="49.37731" lon="0.10027">
        <ele>98.7</ele>
        <time>2020-06-17T14:38:16Z</time>
      </trkpt>
      <trkpt lat="49.37733" lon="0.10033">
        <ele>98.8</ele>
        <time>2020-06-17T14:38:17Z</time>
      </trkpt>
      <trkpt lat="49.37735" lon="0.10039">
        <ele>98.9</ele>
        <time>2020-06-17T14:38:18Z</time>
      </trkpt>
      <trkpt lat="49.37736" lon="0.10046">
        <ele>99</ele>
        <time>2020-06-17T14:38:19Z</time>
      </trkpt>
      <trkpt lat="49.37738" lon="0.10053">
        <ele>99.1</ele>
        <time>2020-06-17T14:38:20Z</time>
      </trkpt>
      <trkpt lat="49.37741" lon="0.1006">
        <ele>99.2</ele>
        <time>2020-06-17T14:38:21Z</time>
      </trkpt>
      <trkpt lat="49.37743" lon="0.10067">
        <ele>99.3</ele>
        <time>2020-06-17T14:38:22Z</time>
      </trkpt>
      <trkpt lat="49.37745" lon="0.10074">
        <ele>99.4</ele>
        <time>2020-06-17T14:38:23Z</time>
      </trkpt>
      <trkpt lat="49.37747" lon="0.10081">
        <ele>99.6</ele>
        <time>2020-06-17T14:38:24Z</time>
      </trkpt>
      <trkpt lat="49.37749" lon="0.10087">
        <ele>99.9</ele>
        <time>2020-06-17T14:38:25Z</time>
      </trkpt>
      <trkpt lat="49.37751" lon="0.10092">
        <ele>100.1</ele>
        <time>2020-06-17T14:38:26Z</time>
      </trkpt>
      <trkpt lat="49.37753" lon="0.10098">
        <ele>100.3</ele>
        <time>2020-06-17T14:38:27Z</time>
      </trkpt>
      <trkpt lat="49.37755" lon="0.10103">
        <ele>100.6</ele>
        <time>2020-06-17T14:38:28Z</time>
      </trkpt>
      <trkpt lat="49.37756" lon="0.10108">
        <ele>100.8</ele>
        <time>2020-06-17T14:38:29Z</time>
      </trkpt>
      <trkpt lat="49.37757" lon="0.10113">
        <ele>101.1</ele>
        <time>2020-06-17T14:38:30Z</time>
      </trkpt>
      <trkpt lat="49.37758" lon="0.10118">
        <ele>101.4</ele>
        <time>2020-06-17T14:38:31Z</time>
      </trkpt>
      <trkpt lat="49.3776" lon="0.10122">
        <ele>101.6</ele>
        <time>2020-06-17T14:38:32Z</time>
      </trkpt>
      <trkpt lat="49.37762" lon="0.10126">
        <ele>101.9</ele>
        <time>2020-06-17T14:38:33Z</time>
      </trkpt>
      <trkpt lat="49.37764" lon="0.1013">
        <ele>102.2</ele>
        <time>2020-06-17T14:38:34Z</time>
      </trkpt>
      <trkpt lat="49.37767" lon="0.10132">
        <ele>102.5</ele>
        <time>2020-06-17T14:38:35Z</time>
      </trkpt>
      <trkpt lat="49.37769" lon="0.10138">
        <ele>102.8</ele>
        <time>2020-06-17T14:38:36Z</time>
      </trkpt>
      <trkpt lat="49.37769" lon="0.10139">
        <ele>102.9</ele>
        <time>2020-06-17T14:38:37Z</time>
      </trkpt>
      <trkpt lat="49.37771" lon="0.10143">
        <ele>103.2</ele>
        <time>2020-06-17T14:38:38Z</time>
      </trkpt>
      <trkpt lat="49.37773" lon="0.10148">
        <ele>103.5</ele>
        <time>2020-06-17T14:38:39Z</time>
      </trkpt>
      <trkpt lat="49.37773" lon="0.1015">
        <ele>103.6</ele>
        <time>2020-06-17T14:38:40Z</time>
      </trkpt>
      <trkpt lat="49.37776" lon="0.10153">
        <ele>103.9</ele>
        <time>2020-06-17T14:38:41Z</time>
      </trkpt>
      <trkpt lat="49.37776" lon="0.10154">
        <ele>104</ele>
        <time>2020-06-17T14:38:42Z</time>
      </trkpt>
      <trkpt lat="49.37777" lon="0.10156">
        <ele>104.2</ele>
        <time>2020-06-17T14:38:43Z</time>
      </trkpt>
      <trkpt lat="49.37778" lon="0.10158">
        <ele>104.4</ele>
        <time>2020-06-17T14:38:44Z</time>
      </trkpt>
      <trkpt lat="49.37778" lon="0.10163">
        <ele>104.7</ele>
        <time>2020-06-17T14:38:45Z</time>
      </trkpt>
      <trkpt lat="49.37779" lon="0.10167">
        <ele>105.1</ele>
        <time>2020-06-17T14:38:46Z</time>
      </trkpt>
      <trkpt lat="49.3778" lon="0.10171">
        <ele>105.5</ele>
        <time>2020-06-17T14:38:47Z</time>
      </trkpt>
      <trkpt lat="49.3778" lon="0.10173">
        <ele>105.6</ele>
        <time>2020-06-17T14:38:48Z</time>
      </trkpt>
      <trkpt lat="49.37782" lon="0.10177">
        <ele>106.1</ele>
        <time>2020-06-17T14:38:49Z</time>
      </trkpt>
      <trkpt lat="49.37783" lon="0.10179">
        <ele>106.3</ele>
        <time>2020-06-17T14:38:50Z</time>
      </trkpt>
      <trkpt lat="49.37785" lon="0.10181">
        <ele>106.8</ele>
        <time>2020-06-17T14:38:51Z</time>
      </trkpt>
      <trkpt lat="49.37787" lon="0.10185">
        <ele>107.2</ele>
        <time>2020-06-17T14:38:52Z</time>
      </trkpt>
      <trkpt lat="49.37787" lon="0.10187">
        <ele>107.4</ele>
        <time>2020-06-17T14:38:53Z</time>
      </trkpt>
      <trkpt lat="49.3779" lon="0.1019">
        <ele>107.9</ele>
        <time>2020-06-17T14:38:54Z</time>
      </trkpt>
      <trkpt lat="49.3779" lon="0.10191">
        <ele>108</ele>
        <time>2020-06-17T14:38:55Z</time>
      </trkpt>
      <trkpt lat="49.37791" lon="0.10194">
        <ele>108.3</ele>
        <time>2020-06-17T14:38:56Z</time>
      </trkpt>
      <trkpt lat="49.37791" lon="0.10196">
        <ele>108.5</ele>
        <time>2020-06-17T14:38:57Z</time>
      </trkpt>
      <trkpt lat="49.37792" lon="0.102">
        <ele>108.9</ele>
        <time>2020-06-17T14:38:58Z</time>
      </trkpt>
      <trkpt lat="49.37792" lon="0.10201">
        <ele>109</ele>
        <time>2020-06-17T14:38:59Z</time>
      </trkpt>
      <trkpt lat="49.37792" lon="0.10204">
        <ele>109.3</ele>
        <time>2020-06-17T14:39:00Z</time>
      </trkpt>
      <trkpt lat="49.37792" lon="0.10206">
        <ele>109.5</ele>
        <time>2020-06-17T14:39:01Z</time>
      </trkpt>
      <trkpt lat="49.37792" lon="0.10209">
        <ele>109.7</ele>
        <time>2020-06-17T14:39:02Z</time>
      </trkpt>
      <trkpt lat="49.37792" lon="0.10212">
        <ele>110</ele>
        <time>2020-06-17T14:39:03Z</time>
      </trkpt>
      <trkpt lat="49.37793" lon="0.10216">
        <ele>110.3</ele>
        <time>2020-06-17T14:39:04Z</time>
      </trkpt>
      <trkpt lat="49.37794" lon="0.10217">
        <ele>110.5</ele>
        <time>2020-06-17T14:39:05Z</time>
      </trkpt>
      <trkpt lat="49.37794" lon="0.10219">
        <ele>110.6</ele>
        <time>2020-06-17T14:39:06Z</time>
      </trkpt>
      <trkpt lat="49.37795" lon="0.10222">
        <ele>110.9</ele>
        <time>2020-06-17T14:39:07Z</time>
      </trkpt>
      <trkpt lat="49.37795" lon="0.10227">
        <ele>111.2</ele>
        <time>2020-06-17T14:39:08Z</time>
      </trkpt>
      <trkpt lat="49.37796" lon="0.10229">
        <ele>111.4</ele>
        <time>2020-06-17T14:39:09Z</time>
      </trkpt>
      <trkpt lat="49.37797" lon="0.10233">
        <ele>111.7</ele>
        <time>2020-06-17T14:39:10Z</time>
      </trkpt>
      <trkpt lat="49.37796" lon="0.10236">
        <ele>111.9</ele>
        <time>2020-06-17T14:39:11Z</time>
      </trkpt>
      <trkpt lat="49.37797" lon="0.10239">
        <ele>112.1</ele>
        <time>2020-06-17T14:39:12Z</time>
      </trkpt>
      <trkpt lat="49.37798" lon="0.10243">
        <ele>112.8</ele>
        <time>2020-06-17T14:39:13Z</time>
      </trkpt>
      <trkpt lat="49.37798" lon="0.10247">
        <ele>113</ele>
        <time>2020-06-17T14:39:14Z</time>
      </trkpt>
      <trkpt lat="49.37799" lon="0.1025">
        <ele>113.2</ele>
        <time>2020-06-17T14:39:15Z</time>
      </trkpt>
      <trkpt lat="49.378" lon="0.10252">
        <ele>113.3</ele>
        <time>2020-06-17T14:39:16Z</time>
      </trkpt>
      <trkpt lat="49.378" lon="0.10256">
        <ele>113.5</ele>
        <time>2020-06-17T14:39:17Z</time>
      </trkpt>
      <trkpt lat="49.378" lon="0.10262">
        <ele>113.8</ele>
        <time>2020-06-17T14:39:18Z</time>
      </trkpt>
      <trkpt lat="49.378" lon="0.10264">
        <ele>113.9</ele>
        <time>2020-06-17T14:39:19Z</time>
      </trkpt>
      <trkpt lat="49.378" lon="0.10269">
        <ele>114.2</ele>
        <time>2020-06-17T14:39:20Z</time>
      </trkpt>
      <trkpt lat="49.37801" lon="0.10271">
        <ele>114.4</ele>
        <time>2020-06-17T14:39:21Z</time>
      </trkpt>
      <trkpt lat="49.37802" lon="0.10276">
        <ele>114.6</ele>
        <time>2020-06-17T14:39:22Z</time>
      </trkpt>
      <trkpt lat="49.37802" lon="0.10277">
        <ele>114.8</ele>
        <time>2020-06-17T14:39:23Z</time>
      </trkpt>
      <trkpt lat="49.37803" lon="0.10283">
        <ele>115.1</ele>
        <time>2020-06-17T14:39:24Z</time>
      </trkpt>
      <trkpt lat="49.37803" lon="0.10284">
        <ele>115.2</ele>
        <time>2020-06-17T14:39:25Z</time>
      </trkpt>
      <trkpt lat="49.37803" lon="0.1029">
        <ele>115.6</ele>
        <time>2020-06-17T14:39:26Z</time>
      </trkpt>
      <trkpt lat="49.37803" lon="0.10292">
        <ele>115.7</ele>
        <time>2020-06-17T14:39:27Z</time>
      </trkpt>
      <trkpt lat="49.37804" lon="0.10296">
        <ele>116</ele>
        <time>2020-06-17T14:39:28Z</time>
      </trkpt>
      <trkpt lat="49.37804" lon="0.10302">
        <ele>116.4</ele>
        <time>2020-06-17T14:39:29Z</time>
      </trkpt>
      <trkpt lat="49.37804" lon="0.10305">
        <ele>116.6</ele>
        <time>2020-06-17T14:39:30Z</time>
      </trkpt>
      <trkpt lat="49.37805" lon="0.1031">
        <ele>116.9</ele>
        <time>2020-06-17T14:39:31Z</time>
      </trkpt>
      <trkpt lat="49.37805" lon="0.10311">
        <ele>117</ele>
        <time>2020-06-17T14:39:32Z</time>
      </trkpt>
      <trkpt lat="49.37805" lon="0.10317">
        <ele>117.4</ele>
        <time>2020-06-17T14:39:33Z</time>
      </trkpt>
      <trkpt lat="49.37805" lon="0.10319">
        <ele>117.5</ele>
        <time>2020-06-17T14:39:34Z</time>
      </trkpt>
      <trkpt lat="49.37805" lon="0.10324">
        <ele>117.8</ele>
        <time>2020-06-17T14:39:35Z</time>
      </trkpt>
      <trkpt lat="49.37804" lon="0.10326">
        <ele>117.9</ele>
        <time>2020-06-17T14:39:36Z</time>
      </trkpt>
      <trkpt lat="49.37804" lon="0.10332">
        <ele>118.3</ele>
        <time>2020-06-17T14:39:37Z</time>
      </trkpt>
      <trkpt lat="49.37804" lon="0.10335">
        <ele>118.4</ele>
        <time>2020-06-17T14:39:38Z</time>
      </trkpt>
      <trkpt lat="49.37803" lon="0.10339">
        <ele>118.7</ele>
        <time>2020-06-17T14:39:39Z</time>
      </trkpt>
      <trkpt lat="49.37804" lon="0.10345">
        <ele>119</ele>
        <time>2020-06-17T14:39:40Z</time>
      </trkpt>
      <trkpt lat="49.37803" lon="0.1035">
        <ele>119.2</ele>
        <time>2020-06-17T14:39:41Z</time>
      </trkpt>
      <trkpt lat="49.37802" lon="0.10352">
        <ele>119.4</ele>
        <time>2020-06-17T14:39:42Z</time>
      </trkpt>
      <trkpt lat="49.37802" lon="0.10357">
        <ele>119.6</ele>
        <time>2020-06-17T14:39:43Z</time>
      </trkpt>
      <trkpt lat="49.37802" lon="0.10358">
        <ele>119.6</ele>
        <time>2020-06-17T14:39:44Z</time>
      </trkpt>
      <trkpt lat="49.37802" lon="0.10363">
        <ele>119.9</ele>
        <time>2020-06-17T14:39:45Z</time>
      </trkpt>
      <trkpt lat="49.37802" lon="0.10364">
        <ele>119.9</ele>
        <time>2020-06-17T14:39:46Z</time>
      </trkpt>
      <trkpt lat="49.37801" lon="0.10369">
        <ele>120.2</ele>
        <time>2020-06-17T14:39:47Z</time>
      </trkpt>
      <trkpt lat="49.37801" lon="0.1037">
        <ele>120.2</ele>
        <time>2020-06-17T14:39:48Z</time>
      </trkpt>
      <trkpt lat="49.37801" lon="0.10375">
        <ele>120.5</ele>
        <time>2020-06-17T14:39:49Z</time>
      </trkpt>
      <trkpt lat="49.378" lon="0.10381">
        <ele>120.7</ele>
        <time>2020-06-17T14:39:50Z</time>
      </trkpt>
      <trkpt lat="49.378" lon="0.10386">
        <ele>121</ele>
        <time>2020-06-17T14:39:51Z</time>
      </trkpt>
      <trkpt lat="49.37799" lon="0.10392">
        <ele>121.2</ele>
        <time>2020-06-17T14:39:52Z</time>
      </trkpt>
      <trkpt lat="49.37799" lon="0.10394">
        <ele>121.3</ele>
        <time>2020-06-17T14:39:53Z</time>
      </trkpt>
      <trkpt lat="49.37799" lon="0.104">
        <ele>121.6</ele>
        <time>2020-06-17T14:39:54Z</time>
      </trkpt>
      <trkpt lat="49.37799" lon="0.10402">
        <ele>121.7</ele>
        <time>2020-06-17T14:39:55Z</time>
      </trkpt>
      <trkpt lat="49.37798" lon="0.10408">
        <ele>121.9</ele>
        <time>2020-06-17T14:39:56Z</time>
      </trkpt>
      <trkpt lat="49.37798" lon="0.1041">
        <ele>122</ele>
        <time>2020-06-17T14:39:57Z</time>
      </trkpt>
      <trkpt lat="49.37797" lon="0.10414">
        <ele>122.1</ele>
        <time>2020-06-17T14:39:58Z</time>
      </trkpt>
      <trkpt lat="49.37796" lon="0.10419">
        <ele>122.3</ele>
        <time>2020-06-17T14:39:59Z</time>
      </trkpt>
      <trkpt lat="49.37796" lon="0.10423">
        <ele>122.4</ele>
        <time>2020-06-17T14:40:00Z</time>
      </trkpt>
      <trkpt lat="49.37795" lon="0.10428">
        <ele>122.6</ele>
        <time>2020-06-17T14:40:01Z</time>
      </trkpt>
      <trkpt lat="49.37794" lon="0.10433">
        <ele>122.8</ele>
        <time>2020-06-17T14:40:02Z</time>
      </trkpt>
      <trkpt lat="49.37794" lon="0.10435">
        <ele>122.8</ele>
        <time>2020-06-17T14:40:03Z</time>
      </trkpt>
      <trkpt lat="49.37793" lon="0.10439">
        <ele>123</ele>
        <time>2020-06-17T14:40:04Z</time>
      </trkpt>
      <trkpt lat="49.37794" lon="0.10444">
        <ele>123.2</ele>
        <time>2020-06-17T14:40:05Z</time>
      </trkpt>
      <trkpt lat="49.37793" lon="0.1045">
        <ele>123.3</ele>
        <time>2020-06-17T14:40:06Z</time>
      </trkpt>
      <trkpt lat="49.37792" lon="0.10456">
        <ele>123.5</ele>
        <time>2020-06-17T14:40:07Z</time>
      </trkpt>
      <trkpt lat="49.37792" lon="0.10462">
        <ele>123.8</ele>
        <time>2020-06-17T14:40:08Z</time>
      </trkpt>
      <trkpt lat="49.37791" lon="0.10464">
        <ele>123.9</ele>
        <time>2020-06-17T14:40:09Z</time>
      </trkpt>
      <trkpt lat="49.37789" lon="0.10469">
        <ele>124.1</ele>
        <time>2020-06-17T14:40:10Z</time>
      </trkpt>
      <trkpt lat="49.37787" lon="0.10473">
        <ele>124.2</ele>
        <time>2020-06-17T14:40:11Z</time>
      </trkpt>
      <trkpt lat="49.37786" lon="0.10478">
        <ele>124.3</ele>
        <time>2020-06-17T14:40:12Z</time>
      </trkpt>
      <trkpt lat="49.37786" lon="0.1048">
        <ele>124.3</ele>
        <time>2020-06-17T14:40:13Z</time>
      </trkpt>
      <trkpt lat="49.37785" lon="0.10485">
        <ele>124.3</ele>
        <time>2020-06-17T14:40:14Z</time>
      </trkpt>
      <trkpt lat="49.37786" lon="0.10491">
        <ele>124.4</ele>
        <time>2020-06-17T14:40:15Z</time>
      </trkpt>
      <trkpt lat="49.37786" lon="0.10496">
        <ele>124.4</ele>
        <time>2020-06-17T14:40:16Z</time>
      </trkpt>
      <trkpt lat="49.37787" lon="0.10501">
        <ele>124.5</ele>
        <time>2020-06-17T14:40:17Z</time>
      </trkpt>
      <trkpt lat="49.37786" lon="0.10507">
        <ele>124.5</ele>
        <time>2020-06-17T14:40:18Z</time>
      </trkpt>
      <trkpt lat="49.37787" lon="0.10512">
        <ele>124.6</ele>
        <time>2020-06-17T14:40:19Z</time>
      </trkpt>
      <trkpt lat="49.37788" lon="0.10517">
        <ele>124.6</ele>
        <time>2020-06-17T14:40:20Z</time>
      </trkpt>
      <trkpt lat="49.37789" lon="0.10523">
        <ele>124.6</ele>
        <time>2020-06-17T14:40:21Z</time>
      </trkpt>
      <trkpt lat="49.37789" lon="0.10528">
        <ele>124.6</ele>
        <time>2020-06-17T14:40:22Z</time>
      </trkpt>
      <trkpt lat="49.37789" lon="0.10534">
        <ele>124.6</ele>
        <time>2020-06-17T14:40:23Z</time>
      </trkpt>
      <trkpt lat="49.3779" lon="0.1054">
        <ele>124.6</ele>
        <time>2020-06-17T14:40:24Z</time>
      </trkpt>
      <trkpt lat="49.3779" lon="0.10546">
        <ele>124.6</ele>
        <time>2020-06-17T14:40:25Z</time>
      </trkpt>
      <trkpt lat="49.37791" lon="0.10553">
        <ele>124.6</ele>
        <time>2020-06-17T14:40:26Z</time>
      </trkpt>
      <trkpt lat="49.37791" lon="0.10559">
        <ele>124.6</ele>
        <time>2020-06-17T14:40:27Z</time>
      </trkpt>
      <trkpt lat="49.37792" lon="0.10565">
        <ele>124.6</ele>
        <time>2020-06-17T14:40:28Z</time>
      </trkpt>
      <trkpt lat="49.37793" lon="0.10571">
        <ele>124.6</ele>
        <time>2020-06-17T14:40:29Z</time>
      </trkpt>
      <trkpt lat="49.37793" lon="0.10576">
        <ele>124.6</ele>
        <time>2020-06-17T14:40:30Z</time>
      </trkpt>
      <trkpt lat="49.37793" lon="0.10581">
        <ele>124.6</ele>
        <time>2020-06-17T14:40:31Z</time>
      </trkpt>
      <trkpt lat="49.37795" lon="0.10586">
        <ele>124.6</ele>
        <time>2020-06-17T14:40:32Z</time>
      </trkpt>
      <trkpt lat="49.37795" lon="0.10591">
        <ele>124.6</ele>
        <time>2020-06-17T14:40:33Z</time>
      </trkpt>
      <trkpt lat="49.37797" lon="0.10597">
        <ele>124.5</ele>
        <time>2020-06-17T14:40:34Z</time>
      </trkpt>
      <trkpt lat="49.37799" lon="0.10602">
        <ele>124.5</ele>
        <time>2020-06-17T14:40:35Z</time>
      </trkpt>
      <trkpt lat="49.37801" lon="0.10609">
        <ele>124.5</ele>
        <time>2020-06-17T14:40:36Z</time>
      </trkpt>
      <trkpt lat="49.37802" lon="0.10615">
        <ele>124.5</ele>
        <time>2020-06-17T14:40:37Z</time>
      </trkpt>
      <trkpt lat="49.37804" lon="0.1062">
        <ele>124.5</ele>
        <time>2020-06-17T14:40:38Z</time>
      </trkpt>
      <trkpt lat="49.37805" lon="0.10626">
        <ele>124.5</ele>
        <time>2020-06-17T14:40:39Z</time>
      </trkpt>
      <trkpt lat="49.37807" lon="0.10632">
        <ele>124.5</ele>
        <time>2020-06-17T14:40:40Z</time>
      </trkpt>
      <trkpt lat="49.37811" lon="0.10638">
        <ele>124.6</ele>
        <time>2020-06-17T14:40:41Z</time>
      </trkpt>
      <trkpt lat="49.37813" lon="0.10645">
        <ele>124.7</ele>
        <time>2020-06-17T14:40:42Z</time>
      </trkpt>
      <trkpt lat="49.37815" lon="0.1065">
        <ele>124.7</ele>
        <time>2020-06-17T14:40:43Z</time>
      </trkpt>
      <trkpt lat="49.37818" lon="0.10655">
        <ele>124.8</ele>
        <time>2020-06-17T14:40:44Z</time>
      </trkpt>
      <trkpt lat="49.3782" lon="0.1066">
        <ele>124.9</ele>
        <time>2020-06-17T14:40:45Z</time>
      </trkpt>
      <trkpt lat="49.37822" lon="0.10664">
        <ele>125</ele>
        <time>2020-06-17T14:40:46Z</time>
      </trkpt>
      <trkpt lat="49.37825" lon="0.10669">
        <ele>125</ele>
        <time>2020-06-17T14:40:47Z</time>
      </trkpt>
      <trkpt lat="49.37828" lon="0.10672">
        <ele>125.1</ele>
        <time>2020-06-17T14:40:48Z</time>
      </trkpt>
      <trkpt lat="49.37831" lon="0.10676">
        <ele>125.1</ele>
        <time>2020-06-17T14:40:49Z</time>
      </trkpt>
      <trkpt lat="49.37834" lon="0.1068">
        <ele>125.2</ele>
        <time>2020-06-17T14:40:50Z</time>
      </trkpt>
      <trkpt lat="49.37839" lon="0.10682">
        <ele>125.2</ele>
        <time>2020-06-17T14:40:51Z</time>
      </trkpt>
      <trkpt lat="49.37842" lon="0.10686">
        <ele>125.3</ele>
        <time>2020-06-17T14:40:52Z</time>
      </trkpt>
      <trkpt lat="49.37845" lon="0.1069">
        <ele>125.3</ele>
        <time>2020-06-17T14:40:53Z</time>
      </trkpt>
      <trkpt lat="49.37848" lon="0.10693">
        <ele>125.3</ele>
        <time>2020-06-17T14:40:54Z</time>
      </trkpt>
      <trkpt lat="49.37851" lon="0.10698">
        <ele>125.3</ele>
        <time>2020-06-17T14:40:55Z</time>
      </trkpt>
      <trkpt lat="49.37855" lon="0.10701">
        <ele>125.3</ele>
        <time>2020-06-17T14:40:56Z</time>
      </trkpt>
      <trkpt lat="49.37858" lon="0.10703">
        <ele>125.4</ele>
        <time>2020-06-17T14:40:57Z</time>
      </trkpt>
      <trkpt lat="49.37862" lon="0.10704">
        <ele>125.4</ele>
        <time>2020-06-17T14:40:58Z</time>
      </trkpt>
      <trkpt lat="49.37865" lon="0.10704">
        <ele>125.4</ele>
        <time>2020-06-17T14:40:59Z</time>
      </trkpt>
      <trkpt lat="49.37869" lon="0.10705">
        <ele>125.4</ele>
        <time>2020-06-17T14:41:00Z</time>
      </trkpt>
      <trkpt lat="49.37872" lon="0.10706">
        <ele>125.4</ele>
        <time>2020-06-17T14:41:01Z</time>
      </trkpt>
      <trkpt lat="49.37876" lon="0.10705">
        <ele>125.4</ele>
        <time>2020-06-17T14:41:02Z</time>
      </trkpt>
      <trkpt lat="49.3788" lon="0.10707">
        <ele>125.4</ele>
        <time>2020-06-17T14:41:03Z</time>
      </trkpt>
      <trkpt lat="49.37885" lon="0.10709">
        <ele>125.5</ele>
        <time>2020-06-17T14:41:04Z</time>
      </trkpt>
      <trkpt lat="49.37888" lon="0.10711">
        <ele>125.5</ele>
        <time>2020-06-17T14:41:05Z</time>
      </trkpt>
      <trkpt lat="49.3789" lon="0.10713">
        <ele>125.5</ele>
        <time>2020-06-17T14:41:06Z</time>
      </trkpt>
      <trkpt lat="49.37893" lon="0.10715">
        <ele>125.5</ele>
        <time>2020-06-17T14:41:07Z</time>
      </trkpt>
      <trkpt lat="49.37897" lon="0.10718">
        <ele>125.5</ele>
        <time>2020-06-17T14:41:08Z</time>
      </trkpt>
      <trkpt lat="49.37901" lon="0.1072">
        <ele>125.6</ele>
        <time>2020-06-17T14:41:09Z</time>
      </trkpt>
      <trkpt lat="49.37904" lon="0.10722">
        <ele>125.6</ele>
        <time>2020-06-17T14:41:10Z</time>
      </trkpt>
      <trkpt lat="49.37908" lon="0.10724">
        <ele>125.6</ele>
        <time>2020-06-17T14:41:11Z</time>
      </trkpt>
      <trkpt lat="49.37911" lon="0.10726">
        <ele>125.7</ele>
        <time>2020-06-17T14:41:12Z</time>
      </trkpt>
      <trkpt lat="49.37915" lon="0.10728">
        <ele>125.8</ele>
        <time>2020-06-17T14:41:13Z</time>
      </trkpt>
      <trkpt lat="49.37919" lon="0.1073">
        <ele>125.9</ele>
        <time>2020-06-17T14:41:14Z</time>
      </trkpt>
      <trkpt lat="49.37924" lon="0.10732">
        <ele>126</ele>
        <time>2020-06-17T14:41:15Z</time>
      </trkpt>
      <trkpt lat="49.37928" lon="0.10734">
        <ele>126</ele>
        <time>2020-06-17T14:41:16Z</time>
      </trkpt>
      <trkpt lat="49.37933" lon="0.10735">
        <ele>126.1</ele>
        <time>2020-06-17T14:41:17Z</time>
      </trkpt>
      <trkpt lat="49.37937" lon="0.10736">
        <ele>126.2</ele>
        <time>2020-06-17T14:41:18Z</time>
      </trkpt>
      <trkpt lat="49.37942" lon="0.10738">
        <ele>126.4</ele>
        <time>2020-06-17T14:41:19Z</time>
      </trkpt>
      <trkpt lat="49.37947" lon="0.1074">
        <ele>126.5</ele>
        <time>2020-06-17T14:41:20Z</time>
      </trkpt>
      <trkpt lat="49.3795" lon="0.10743">
        <ele>126.5</ele>
        <time>2020-06-17T14:41:21Z</time>
      </trkpt>
      <trkpt lat="49.37954" lon="0.10746">
        <ele>126.6</ele>
        <time>2020-06-17T14:41:22Z</time>
      </trkpt>
      <trkpt lat="49.37958" lon="0.10749">
        <ele>126.7</ele>
        <time>2020-06-17T14:41:23Z</time>
      </trkpt>
      <trkpt lat="49.37962" lon="0.1075">
        <ele>126.8</ele>
        <time>2020-06-17T14:41:24Z</time>
      </trkpt>
      <trkpt lat="49.37966" lon="0.10752">
        <ele>126.9</ele>
        <time>2020-06-17T14:41:25Z</time>
      </trkpt>
      <trkpt lat="49.3797" lon="0.10754">
        <ele>127</ele>
        <time>2020-06-17T14:41:26Z</time>
      </trkpt>
      <trkpt lat="49.37975" lon="0.10757">
        <ele>127.1</ele>
        <time>2020-06-17T14:41:27Z</time>
      </trkpt>
      <trkpt lat="49.37979" lon="0.10759">
        <ele>127.2</ele>
        <time>2020-06-17T14:41:28Z</time>
      </trkpt>
      <trkpt lat="49.37982" lon="0.10761">
        <ele>127.2</ele>
        <time>2020-06-17T14:41:29Z</time>
      </trkpt>
      <trkpt lat="49.37986" lon="0.10764">
        <ele>127.4</ele>
        <time>2020-06-17T14:41:30Z</time>
      </trkpt>
      <trkpt lat="49.37989" lon="0.10768">
        <ele>127.5</ele>
        <time>2020-06-17T14:41:31Z</time>
      </trkpt>
      <trkpt lat="49.37992" lon="0.10771">
        <ele>127.7</ele>
        <time>2020-06-17T14:41:32Z</time>
      </trkpt>
      <trkpt lat="49.37995" lon="0.10772">
        <ele>127.8</ele>
        <time>2020-06-17T14:41:33Z</time>
      </trkpt>
      <trkpt lat="49.37999" lon="0.10775">
        <ele>128</ele>
        <time>2020-06-17T14:41:34Z</time>
      </trkpt>
      <trkpt lat="49.38002" lon="0.10778">
        <ele>128.2</ele>
        <time>2020-06-17T14:41:35Z</time>
      </trkpt>
      <trkpt lat="49.38005" lon="0.10781">
        <ele>128.3</ele>
        <time>2020-06-17T14:41:36Z</time>
      </trkpt>
      <trkpt lat="49.38008" lon="0.10784">
        <ele>128.5</ele>
        <time>2020-06-17T14:41:37Z</time>
      </trkpt>
      <trkpt lat="49.38012" lon="0.10787">
        <ele>128.6</ele>
        <time>2020-06-17T14:41:38Z</time>
      </trkpt>
      <trkpt lat="49.38015" lon="0.10789">
        <ele>128.8</ele>
        <time>2020-06-17T14:41:39Z</time>
      </trkpt>
      <trkpt lat="49.3802" lon="0.10792">
        <ele>129</ele>
        <time>2020-06-17T14:41:40Z</time>
      </trkpt>
      <trkpt lat="49.38025" lon="0.10794">
        <ele>129.2</ele>
        <time>2020-06-17T14:41:41Z</time>
      </trkpt>
      <trkpt lat="49.38029" lon="0.10797">
        <ele>129.3</ele>
        <time>2020-06-17T14:41:42Z</time>
      </trkpt>
      <trkpt lat="49.38033" lon="0.108">
        <ele>129.3</ele>
        <time>2020-06-17T14:41:43Z</time>
      </trkpt>
      <trkpt lat="49.38036" lon="0.10803">
        <ele>129.4</ele>
        <time>2020-06-17T14:41:44Z</time>
      </trkpt>
      <trkpt lat="49.38039" lon="0.10807">
        <ele>129.4</ele>
        <time>2020-06-17T14:41:45Z</time>
      </trkpt>
      <trkpt lat="49.38043" lon="0.10811">
        <ele>129.5</ele>
        <time>2020-06-17T14:41:46Z</time>
      </trkpt>
      <trkpt lat="49.38046" lon="0.10814">
        <ele>129.5</ele>
        <time>2020-06-17T14:41:47Z</time>
      </trkpt>
      <trkpt lat="49.3805" lon="0.10817">
        <ele>129.6</ele>
        <time>2020-06-17T14:41:48Z</time>
      </trkpt>
      <trkpt lat="49.38053" lon="0.10821">
        <ele>129.7</ele>
        <time>2020-06-17T14:41:49Z</time>
      </trkpt>
      <trkpt lat="49.38058" lon="0.10826">
        <ele>129.7</ele>
        <time>2020-06-17T14:41:50Z</time>
      </trkpt>
      <trkpt lat="49.38061" lon="0.10831">
        <ele>129.8</ele>
        <time>2020-06-17T14:41:51Z</time>
      </trkpt>
      <trkpt lat="49.38065" lon="0.10835">
        <ele>129.9</ele>
        <time>2020-06-17T14:41:52Z</time>
      </trkpt>
      <trkpt lat="49.38069" lon="0.10838">
        <ele>130</ele>
        <time>2020-06-17T14:41:53Z</time>
      </trkpt>
      <trkpt lat="49.38073" lon="0.10841">
        <ele>130</ele>
        <time>2020-06-17T14:41:54Z</time>
      </trkpt>
      <trkpt lat="49.38077" lon="0.10844">
        <ele>130.1</ele>
        <time>2020-06-17T14:41:55Z</time>
      </trkpt>
      <trkpt lat="49.38081" lon="0.10848">
        <ele>130.2</ele>
        <time>2020-06-17T14:41:56Z</time>
      </trkpt>
      <trkpt lat="49.38086" lon="0.10851">
        <ele>130.2</ele>
        <time>2020-06-17T14:41:57Z</time>
      </trkpt>
      <trkpt lat="49.38089" lon="0.10857">
        <ele>130.3</ele>
        <time>2020-06-17T14:41:58Z</time>
      </trkpt>
      <trkpt lat="49.38093" lon="0.10861">
        <ele>130.4</ele>
        <time>2020-06-17T14:41:59Z</time>
      </trkpt>
      <trkpt lat="49.38097" lon="0.10864">
        <ele>130.4</ele>
        <time>2020-06-17T14:42:00Z</time>
      </trkpt>
      <trkpt lat="49.38102" lon="0.10867">
        <ele>130.5</ele>
        <time>2020-06-17T14:42:01Z</time>
      </trkpt>
      <trkpt lat="49.38106" lon="0.10871">
        <ele>130.6</ele>
        <time>2020-06-17T14:42:02Z</time>
      </trkpt>
      <trkpt lat="49.3811" lon="0.10874">
        <ele>130.6</ele>
        <time>2020-06-17T14:42:03Z</time>
      </trkpt>
      <trkpt lat="49.38114" lon="0.10878">
        <ele>130.7</ele>
        <time>2020-06-17T14:42:04Z</time>
      </trkpt>
      <trkpt lat="49.38117" lon="0.10881">
        <ele>130.7</ele>
        <time>2020-06-17T14:42:05Z</time>
      </trkpt>
      <trkpt lat="49.38121" lon="0.10884">
        <ele>130.7</ele>
        <time>2020-06-17T14:42:06Z</time>
      </trkpt>
      <trkpt lat="49.38125" lon="0.10887">
        <ele>130.7</ele>
        <time>2020-06-17T14:42:07Z</time>
      </trkpt>
      <trkpt lat="49.38128" lon="0.10889">
        <ele>130.6</ele>
        <time>2020-06-17T14:42:08Z</time>
      </trkpt>
      <trkpt lat="49.38133" lon="0.10891">
        <ele>130.6</ele>
        <time>2020-06-17T14:42:09Z</time>
      </trkpt>
      <trkpt lat="49.38136" lon="0.10893">
        <ele>130.6</ele>
        <time>2020-06-17T14:42:10Z</time>
      </trkpt>
      <trkpt lat="49.3814" lon="0.10896">
        <ele>130.6</ele>
        <time>2020-06-17T14:42:11Z</time>
      </trkpt>
      <trkpt lat="49.38144" lon="0.109">
        <ele>130.6</ele>
        <time>2020-06-17T14:42:12Z</time>
      </trkpt>
      <trkpt lat="49.38148" lon="0.10903">
        <ele>130.6</ele>
        <time>2020-06-17T14:42:13Z</time>
      </trkpt>
      <trkpt lat="49.38152" lon="0.10907">
        <ele>130.6</ele>
        <time>2020-06-17T14:42:14Z</time>
      </trkpt>
      <trkpt lat="49.38157" lon="0.10908">
        <ele>130.6</ele>
        <time>2020-06-17T14:42:15Z</time>
      </trkpt>
      <trkpt lat="49.3816" lon="0.10908">
        <ele>130.6</ele>
        <time>2020-06-17T14:42:16Z</time>
      </trkpt>
      <trkpt lat="49.38164" lon="0.1091">
        <ele>130.6</ele>
        <time>2020-06-17T14:42:17Z</time>
      </trkpt>
      <trkpt lat="49.38168" lon="0.10912">
        <ele>130.6</ele>
        <time>2020-06-17T14:42:18Z</time>
      </trkpt>
      <trkpt lat="49.38172" lon="0.10914">
        <ele>130.7</ele>
        <time>2020-06-17T14:42:19Z</time>
      </trkpt>
      <trkpt lat="49.38176" lon="0.10917">
        <ele>130.7</ele>
        <time>2020-06-17T14:42:20Z</time>
      </trkpt>
      <trkpt lat="49.3818" lon="0.1092">
        <ele>130.6</ele>
        <time>2020-06-17T14:42:21Z</time>
      </trkpt>
      <trkpt lat="49.38184" lon="0.10925">
        <ele>130.6</ele>
        <time>2020-06-17T14:42:22Z</time>
      </trkpt>
      <trkpt lat="49.38188" lon="0.10928">
        <ele>130.6</ele>
        <time>2020-06-17T14:42:23Z</time>
      </trkpt>
      <trkpt lat="49.38192" lon="0.10931">
        <ele>130.6</ele>
        <time>2020-06-17T14:42:24Z</time>
      </trkpt>
      <trkpt lat="49.38195" lon="0.10935">
        <ele>130.5</ele>
        <time>2020-06-17T14:42:25Z</time>
      </trkpt>
      <trkpt lat="49.38199" lon="0.10938">
        <ele>130.5</ele>
        <time>2020-06-17T14:42:26Z</time>
      </trkpt>
      <trkpt lat="49.38203" lon="0.10944">
        <ele>130.4</ele>
        <time>2020-06-17T14:42:27Z</time>
      </trkpt>
      <trkpt lat="49.38206" lon="0.10949">
        <ele>130.3</ele>
        <time>2020-06-17T14:42:28Z</time>
      </trkpt>
      <trkpt lat="49.38208" lon="0.10953">
        <ele>130.3</ele>
        <time>2020-06-17T14:42:29Z</time>
      </trkpt>
      <trkpt lat="49.38213" lon="0.1096">
        <ele>130.2</ele>
        <time>2020-06-17T14:42:30Z</time>
      </trkpt>
      <trkpt lat="49.38216" lon="0.10965">
        <ele>130.1</ele>
        <time>2020-06-17T14:42:31Z</time>
      </trkpt>
      <trkpt lat="49.38219" lon="0.10969">
        <ele>130.1</ele>
        <time>2020-06-17T14:42:32Z</time>
      </trkpt>
      <trkpt lat="49.38223" lon="0.10973">
        <ele>130.1</ele>
        <time>2020-06-17T14:42:33Z</time>
      </trkpt>
      <trkpt lat="49.38226" lon="0.10976">
        <ele>130</ele>
        <time>2020-06-17T14:42:34Z</time>
      </trkpt>
      <trkpt lat="49.38229" lon="0.10979">
        <ele>130</ele>
        <time>2020-06-17T14:42:35Z</time>
      </trkpt>
      <trkpt lat="49.38232" lon="0.10982">
        <ele>130</ele>
        <time>2020-06-17T14:42:36Z</time>
      </trkpt>
      <trkpt lat="49.38235" lon="0.10984">
        <ele>129.9</ele>
        <time>2020-06-17T14:42:37Z</time>
      </trkpt>
      <trkpt lat="49.38238" lon="0.10986">
        <ele>129.9</ele>
        <time>2020-06-17T14:42:38Z</time>
      </trkpt>
      <trkpt lat="49.38241" lon="0.10989">
        <ele>129.9</ele>
        <time>2020-06-17T14:42:39Z</time>
      </trkpt>
      <trkpt lat="49.38245" lon="0.10994">
        <ele>129.8</ele>
        <time>2020-06-17T14:42:40Z</time>
      </trkpt>
      <trkpt lat="49.3825" lon="0.10999">
        <ele>129.7</ele>
        <time>2020-06-17T14:42:41Z</time>
      </trkpt>
      <trkpt lat="49.38254" lon="0.11004">
        <ele>129.7</ele>
        <time>2020-06-17T14:42:42Z</time>
      </trkpt>
      <trkpt lat="49.38258" lon="0.11009">
        <ele>129.6</ele>
        <time>2020-06-17T14:42:43Z</time>
      </trkpt>
      <trkpt lat="49.38262" lon="0.11015">
        <ele>129.5</ele>
        <time>2020-06-17T14:42:44Z</time>
      </trkpt>
      <trkpt lat="49.38266" lon="0.11022">
        <ele>129.5</ele>
        <time>2020-06-17T14:42:45Z</time>
      </trkpt>
      <trkpt lat="49.38271" lon="0.11029">
        <ele>129.4</ele>
        <time>2020-06-17T14:42:46Z</time>
      </trkpt>
      <trkpt lat="49.38275" lon="0.11037">
        <ele>129.4</ele>
        <time>2020-06-17T14:42:47Z</time>
      </trkpt>
      <trkpt lat="49.38278" lon="0.11043">
        <ele>129.3</ele>
        <time>2020-06-17T14:42:48Z</time>
      </trkpt>
      <trkpt lat="49.38282" lon="0.11051">
        <ele>129.3</ele>
        <time>2020-06-17T14:42:49Z</time>
      </trkpt>
      <trkpt lat="49.38285" lon="0.11058">
        <ele>129.3</ele>
        <time>2020-06-17T14:42:50Z</time>
      </trkpt>
      <trkpt lat="49.38288" lon="0.11066">
        <ele>129.3</ele>
        <time>2020-06-17T14:42:51Z</time>
      </trkpt>
      <trkpt lat="49.3829" lon="0.11073">
        <ele>129.2</ele>
        <time>2020-06-17T14:42:52Z</time>
      </trkpt>
      <trkpt lat="49.38293" lon="0.1108">
        <ele>129.1</ele>
        <time>2020-06-17T14:42:53Z</time>
      </trkpt>
      <trkpt lat="49.38296" lon="0.11086">
        <ele>129.1</ele>
        <time>2020-06-17T14:42:54Z</time>
      </trkpt>
      <trkpt lat="49.38298" lon="0.11094">
        <ele>129</ele>
        <time>2020-06-17T14:42:55Z</time>
      </trkpt>
      <trkpt lat="49.383" lon="0.11103">
        <ele>128.9</ele>
        <time>2020-06-17T14:42:56Z</time>
      </trkpt>
      <trkpt lat="49.38301" lon="0.11112">
        <ele>128.9</ele>
        <time>2020-06-17T14:42:57Z</time>
      </trkpt>
      <trkpt lat="49.38303" lon="0.1112">
        <ele>128.8</ele>
        <time>2020-06-17T14:42:58Z</time>
      </trkpt>
      <trkpt lat="49.38304" lon="0.11126">
        <ele>128.8</ele>
        <time>2020-06-17T14:42:59Z</time>
      </trkpt>
      <trkpt lat="49.38306" lon="0.11134">
        <ele>128.7</ele>
        <time>2020-06-17T14:43:00Z</time>
      </trkpt>
      <trkpt lat="49.38309" lon="0.11141">
        <ele>128.6</ele>
        <time>2020-06-17T14:43:01Z</time>
      </trkpt>
      <trkpt lat="49.38311" lon="0.11148">
        <ele>128.5</ele>
        <time>2020-06-17T14:43:02Z</time>
      </trkpt>
      <trkpt lat="49.38314" lon="0.11154">
        <ele>128.3</ele>
        <time>2020-06-17T14:43:03Z</time>
      </trkpt>
      <trkpt lat="49.38318" lon="0.1116">
        <ele>128.2</ele>
        <time>2020-06-17T14:43:04Z</time>
      </trkpt>
      <trkpt lat="49.38321" lon="0.11166">
        <ele>128</ele>
        <time>2020-06-17T14:43:05Z</time>
      </trkpt>
      <trkpt lat="49.38325" lon="0.11174">
        <ele>127.8</ele>
        <time>2020-06-17T14:43:06Z</time>
      </trkpt>
      <trkpt lat="49.38329" lon="0.1118">
        <ele>127.6</ele>
        <time>2020-06-17T14:43:07Z</time>
      </trkpt>
      <trkpt lat="49.38333" lon="0.11187">
        <ele>127.3</ele>
        <time>2020-06-17T14:43:08Z</time>
      </trkpt>
      <trkpt lat="49.38337" lon="0.11195">
        <ele>127.1</ele>
        <time>2020-06-17T14:43:09Z</time>
      </trkpt>
      <trkpt lat="49.38342" lon="0.11203">
        <ele>126.8</ele>
        <time>2020-06-17T14:43:10Z</time>
      </trkpt>
      <trkpt lat="49.38346" lon="0.11211">
        <ele>126.6</ele>
        <time>2020-06-17T14:43:11Z</time>
      </trkpt>
      <trkpt lat="49.38351" lon="0.1122">
        <ele>126.5</ele>
        <time>2020-06-17T14:43:12Z</time>
      </trkpt>
      <trkpt lat="49.38355" lon="0.11229">
        <ele>126.5</ele>
        <time>2020-06-17T14:43:13Z</time>
      </trkpt>
      <trkpt lat="49.3836" lon="0.11238">
        <ele>126.5</ele>
        <time>2020-06-17T14:43:14Z</time>
      </trkpt>
      <trkpt lat="49.38364" lon="0.11244">
        <ele>126.5</ele>
        <time>2020-06-17T14:43:15Z</time>
      </trkpt>
      <trkpt lat="49.38369" lon="0.11251">
        <ele>126.5</ele>
        <time>2020-06-17T14:43:16Z</time>
      </trkpt>
      <trkpt lat="49.38373" lon="0.11258">
        <ele>126.5</ele>
        <time>2020-06-17T14:43:17Z</time>
      </trkpt>
      <trkpt lat="49.38376" lon="0.11264">
        <ele>126.5</ele>
        <time>2020-06-17T14:43:18Z</time>
      </trkpt>
      <trkpt lat="49.3838" lon="0.11271">
        <ele>126.5</ele>
        <time>2020-06-17T14:43:19Z</time>
      </trkpt>
      <trkpt lat="49.38384" lon="0.11278">
        <ele>126.5</ele>
        <time>2020-06-17T14:43:20Z</time>
      </trkpt>
      <trkpt lat="49.38387" lon="0.11286">
        <ele>126.5</ele>
        <time>2020-06-17T14:43:21Z</time>
      </trkpt>
      <trkpt lat="49.38391" lon="0.11294">
        <ele>126.6</ele>
        <time>2020-06-17T14:43:22Z</time>
      </trkpt>
      <trkpt lat="49.38395" lon="0.11302">
        <ele>126.7</ele>
        <time>2020-06-17T14:43:23Z</time>
      </trkpt>
      <trkpt lat="49.38398" lon="0.11308">
        <ele>126.8</ele>
        <time>2020-06-17T14:43:24Z</time>
      </trkpt>
      <trkpt lat="49.38401" lon="0.11313">
        <ele>127</ele>
        <time>2020-06-17T14:43:25Z</time>
      </trkpt>
      <trkpt lat="49.38405" lon="0.11319">
        <ele>127.1</ele>
        <time>2020-06-17T14:43:26Z</time>
      </trkpt>
      <trkpt lat="49.38408" lon="0.11324">
        <ele>127.2</ele>
        <time>2020-06-17T14:43:27Z</time>
      </trkpt>
      <trkpt lat="49.3841" lon="0.1133">
        <ele>127.2</ele>
        <time>2020-06-17T14:43:28Z</time>
      </trkpt>
      <trkpt lat="49.38414" lon="0.11336">
        <ele>127.3</ele>
        <time>2020-06-17T14:43:29Z</time>
      </trkpt>
      <trkpt lat="49.38417" lon="0.11343">
        <ele>127.4</ele>
        <time>2020-06-17T14:43:30Z</time>
      </trkpt>
      <trkpt lat="49.38421" lon="0.11349">
        <ele>127.5</ele>
        <time>2020-06-17T14:43:31Z</time>
      </trkpt>
      <trkpt lat="49.38423" lon="0.11354">
        <ele>127.5</ele>
        <time>2020-06-17T14:43:32Z</time>
      </trkpt>
      <trkpt lat="49.38425" lon="0.11356">
        <ele>127.5</ele>
        <time>2020-06-17T14:43:33Z</time>
      </trkpt>
      <trkpt lat="49.38429" lon="0.11361">
        <ele>127.6</ele>
        <time>2020-06-17T14:43:34Z</time>
      </trkpt>
      <trkpt lat="49.38433" lon="0.11366">
        <ele>127.6</ele>
        <time>2020-06-17T14:43:35Z</time>
      </trkpt>
      <trkpt lat="49.38437" lon="0.11371">
        <ele>127.6</ele>
        <time>2020-06-17T14:43:36Z</time>
      </trkpt>
      <trkpt lat="49.38441" lon="0.11375">
        <ele>127.6</ele>
        <time>2020-06-17T14:43:37Z</time>
      </trkpt>
      <trkpt lat="49.38445" lon="0.11378">
        <ele>127.6</ele>
        <time>2020-06-17T14:43:38Z</time>
      </trkpt>
      <trkpt lat="49.38449" lon="0.11383">
        <ele>127.5</ele>
        <time>2020-06-17T14:43:39Z</time>
      </trkpt>
      <trkpt lat="49.38453" lon="0.11387">
        <ele>127.5</ele>
        <time>2020-06-17T14:43:40Z</time>
      </trkpt>
      <trkpt lat="49.38457" lon="0.11391">
        <ele>127.4</ele>
        <time>2020-06-17T14:43:41Z</time>
      </trkpt>
      <trkpt lat="49.38462" lon="0.11397">
        <ele>127.3</ele>
        <time>2020-06-17T14:43:42Z</time>
      </trkpt>
      <trkpt lat="49.38466" lon="0.11401">
        <ele>127.2</ele>
        <time>2020-06-17T14:43:43Z</time>
      </trkpt>
      <trkpt lat="49.3847" lon="0.11405">
        <ele>127.2</ele>
        <time>2020-06-17T14:43:44Z</time>
      </trkpt>
      <trkpt lat="49.38474" lon="0.1141">
        <ele>127.1</ele>
        <time>2020-06-17T14:43:45Z</time>
      </trkpt>
      <trkpt lat="49.38477" lon="0.11414">
        <ele>127</ele>
        <time>2020-06-17T14:43:46Z</time>
      </trkpt>
      <trkpt lat="49.38481" lon="0.11418">
        <ele>127</ele>
        <time>2020-06-17T14:43:47Z</time>
      </trkpt>
      <trkpt lat="49.38484" lon="0.11422">
        <ele>126.9</ele>
        <time>2020-06-17T14:43:48Z</time>
      </trkpt>
      <trkpt lat="49.38487" lon="0.11424">
        <ele>126.8</ele>
        <time>2020-06-17T14:43:49Z</time>
      </trkpt>
      <trkpt lat="49.38489" lon="0.11427">
        <ele>126.8</ele>
        <time>2020-06-17T14:43:50Z</time>
      </trkpt>
      <trkpt lat="49.38492" lon="0.11431">
        <ele>126.7</ele>
        <time>2020-06-17T14:43:51Z</time>
      </trkpt>
      <trkpt lat="49.38495" lon="0.11435">
        <ele>126.6</ele>
        <time>2020-06-17T14:43:52Z</time>
      </trkpt>
      <trkpt lat="49.38498" lon="0.11438">
        <ele>126.6</ele>
        <time>2020-06-17T14:43:53Z</time>
      </trkpt>
      <trkpt lat="49.38501" lon="0.11441">
        <ele>126.5</ele>
        <time>2020-06-17T14:43:54Z</time>
      </trkpt>
      <trkpt lat="49.38504" lon="0.11445">
        <ele>126.4</ele>
        <time>2020-06-17T14:43:55Z</time>
      </trkpt>
      <trkpt lat="49.38508" lon="0.11449">
        <ele>126.3</ele>
        <time>2020-06-17T14:43:56Z</time>
      </trkpt>
      <trkpt lat="49.38512" lon="0.11454">
        <ele>126.3</ele>
        <time>2020-06-17T14:43:57Z</time>
      </trkpt>
      <trkpt lat="49.38517" lon="0.11458">
        <ele>126.2</ele>
        <time>2020-06-17T14:43:58Z</time>
      </trkpt>
      <trkpt lat="49.38522" lon="0.11464">
        <ele>126</ele>
        <time>2020-06-17T14:43:59Z</time>
      </trkpt>
      <trkpt lat="49.38526" lon="0.11469">
        <ele>126</ele>
        <time>2020-06-17T14:44:00Z</time>
      </trkpt>
      <trkpt lat="49.3853" lon="0.11475">
        <ele>126</ele>
        <time>2020-06-17T14:44:01Z</time>
      </trkpt>
      <trkpt lat="49.38535" lon="0.11482">
        <ele>126</ele>
        <time>2020-06-17T14:44:02Z</time>
      </trkpt>
      <trkpt lat="49.38539" lon="0.11488">
        <ele>126</ele>
        <time>2020-06-17T14:44:03Z</time>
      </trkpt>
      <trkpt lat="49.38542" lon="0.11494">
        <ele>126.1</ele>
        <time>2020-06-17T14:44:04Z</time>
      </trkpt>
      <trkpt lat="49.38546" lon="0.11499">
        <ele>126.2</ele>
        <time>2020-06-17T14:44:05Z</time>
      </trkpt>
      <trkpt lat="49.38549" lon="0.11503">
        <ele>126.2</ele>
        <time>2020-06-17T14:44:06Z</time>
      </trkpt>
      <trkpt lat="49.38552" lon="0.11507">
        <ele>126.3</ele>
        <time>2020-06-17T14:44:07Z</time>
      </trkpt>
      <trkpt lat="49.38555" lon="0.1151">
        <ele>126.4</ele>
        <time>2020-06-17T14:44:08Z</time>
      </trkpt>
      <trkpt lat="49.38557" lon="0.11514">
        <ele>126.4</ele>
        <time>2020-06-17T14:44:09Z</time>
      </trkpt>
      <trkpt lat="49.38562" lon="0.11519">
        <ele>126.5</ele>
        <time>2020-06-17T14:44:10Z</time>
      </trkpt>
      <trkpt lat="49.38566" lon="0.11522">
        <ele>126.6</ele>
        <time>2020-06-17T14:44:11Z</time>
      </trkpt>
      <trkpt lat="49.38569" lon="0.11524">
        <ele>126.7</ele>
        <time>2020-06-17T14:44:12Z</time>
      </trkpt>
      <trkpt lat="49.38572" lon="0.11527">
        <ele>126.7</ele>
        <time>2020-06-17T14:44:13Z</time>
      </trkpt>
      <trkpt lat="49.38577" lon="0.11532">
        <ele>126.9</ele>
        <time>2020-06-17T14:44:14Z</time>
      </trkpt>
      <trkpt lat="49.38582" lon="0.11537">
        <ele>126.9</ele>
        <time>2020-06-17T14:44:15Z</time>
      </trkpt>
      <trkpt lat="49.38586" lon="0.11541">
        <ele>127</ele>
        <time>2020-06-17T14:44:16Z</time>
      </trkpt>
      <trkpt lat="49.3859" lon="0.11546">
        <ele>127.1</ele>
        <time>2020-06-17T14:44:17Z</time>
      </trkpt>
      <trkpt lat="49.38593" lon="0.1155">
        <ele>127.2</ele>
        <time>2020-06-17T14:44:18Z</time>
      </trkpt>
      <trkpt lat="49.38596" lon="0.11552">
        <ele>127.2</ele>
        <time>2020-06-17T14:44:19Z</time>
      </trkpt>
      <trkpt lat="49.38599" lon="0.11557">
        <ele>127.3</ele>
        <time>2020-06-17T14:44:20Z</time>
      </trkpt>
      <trkpt lat="49.38602" lon="0.11561">
        <ele>127.3</ele>
        <time>2020-06-17T14:44:21Z</time>
      </trkpt>
      <trkpt lat="49.38606" lon="0.11566">
        <ele>127.4</ele>
        <time>2020-06-17T14:44:22Z</time>
      </trkpt>
      <trkpt lat="49.3861" lon="0.1157">
        <ele>127.5</ele>
        <time>2020-06-17T14:44:23Z</time>
      </trkpt>
      <trkpt lat="49.38614" lon="0.11575">
        <ele>127.5</ele>
        <time>2020-06-17T14:44:24Z</time>
      </trkpt>
      <trkpt lat="49.38618" lon="0.1158">
        <ele>127.5</ele>
        <time>2020-06-17T14:44:25Z</time>
      </trkpt>
      <trkpt lat="49.38622" lon="0.11584">
        <ele>127.5</ele>
        <time>2020-06-17T14:44:26Z</time>
      </trkpt>
      <trkpt lat="49.38626" lon="0.1159">
        <ele>127.5</ele>
        <time>2020-06-17T14:44:27Z</time>
      </trkpt>
      <trkpt lat="49.38627" lon="0.11596">
        <ele>127.5</ele>
        <time>2020-06-17T14:44:28Z</time>
      </trkpt>
      <trkpt lat="49.38631" lon="0.11602">
        <ele>127.5</ele>
        <time>2020-06-17T14:44:29Z</time>
      </trkpt>
      <trkpt lat="49.38633" lon="0.11609">
        <ele>127.5</ele>
        <time>2020-06-17T14:44:30Z</time>
      </trkpt>
      <trkpt lat="49.38634" lon="0.11615">
        <ele>127.5</ele>
        <time>2020-06-17T14:44:31Z</time>
      </trkpt>
      <trkpt lat="49.38634" lon="0.11622">
        <ele>127.5</ele>
        <time>2020-06-17T14:44:32Z</time>
      </trkpt>
      <trkpt lat="49.38634" lon="0.11628">
        <ele>127.5</ele>
        <time>2020-06-17T14:44:33Z</time>
      </trkpt>
      <trkpt lat="49.38634" lon="0.11634">
        <ele>127.5</ele>
        <time>2020-06-17T14:44:34Z</time>
      </trkpt>
      <trkpt lat="49.38633" lon="0.11641">
        <ele>127.5</ele>
        <time>2020-06-17T14:44:35Z</time>
      </trkpt>
      <trkpt lat="49.38633" lon="0.11648">
        <ele>127.5</ele>
        <time>2020-06-17T14:44:36Z</time>
      </trkpt>
      <trkpt lat="49.38632" lon="0.11657">
        <ele>127.5</ele>
        <time>2020-06-17T14:44:37Z</time>
      </trkpt>
      <trkpt lat="49.38632" lon="0.11662">
        <ele>127.6</ele>
        <time>2020-06-17T14:44:38Z</time>
      </trkpt>
      <trkpt lat="49.38632" lon="0.11669">
        <ele>127.6</ele>
        <time>2020-06-17T14:44:39Z</time>
      </trkpt>
      <trkpt lat="49.38632" lon="0.11675">
        <ele>127.7</ele>
        <time>2020-06-17T14:44:40Z</time>
      </trkpt>
      <trkpt lat="49.38631" lon="0.11679">
        <ele>127.7</ele>
        <time>2020-06-17T14:44:41Z</time>
      </trkpt>
      <trkpt lat="49.38632" lon="0.11685">
        <ele>127.8</ele>
        <time>2020-06-17T14:44:42Z</time>
      </trkpt>
      <trkpt lat="49.38632" lon="0.1169">
        <ele>127.8</ele>
        <time>2020-06-17T14:44:43Z</time>
      </trkpt>
      <trkpt lat="49.38633" lon="0.11695">
        <ele>127.8</ele>
        <time>2020-06-17T14:44:44Z</time>
      </trkpt>
      <trkpt lat="49.38634" lon="0.117">
        <ele>127.9</ele>
        <time>2020-06-17T14:44:45Z</time>
      </trkpt>
      <trkpt lat="49.38636" lon="0.11706">
        <ele>127.9</ele>
        <time>2020-06-17T14:44:46Z</time>
      </trkpt>
      <trkpt lat="49.3864" lon="0.11709">
        <ele>128</ele>
        <time>2020-06-17T14:44:47Z</time>
      </trkpt>
      <trkpt lat="49.38642" lon="0.11715">
        <ele>128</ele>
        <time>2020-06-17T14:44:48Z</time>
      </trkpt>
      <trkpt lat="49.38643" lon="0.11719">
        <ele>128.1</ele>
        <time>2020-06-17T14:44:49Z</time>
      </trkpt>
      <trkpt lat="49.38645" lon="0.11724">
        <ele>128.1</ele>
        <time>2020-06-17T14:44:50Z</time>
      </trkpt>
      <trkpt lat="49.38646" lon="0.1173">
        <ele>128.1</ele>
        <time>2020-06-17T14:44:51Z</time>
      </trkpt>
      <trkpt lat="49.38648" lon="0.11735">
        <ele>128.2</ele>
        <time>2020-06-17T14:44:52Z</time>
      </trkpt>
      <trkpt lat="49.3865" lon="0.11741">
        <ele>128.2</ele>
        <time>2020-06-17T14:44:53Z</time>
      </trkpt>
      <trkpt lat="49.38651" lon="0.11747">
        <ele>128.2</ele>
        <time>2020-06-17T14:44:54Z</time>
      </trkpt>
      <trkpt lat="49.38653" lon="0.11753">
        <ele>128.3</ele>
        <time>2020-06-17T14:44:55Z</time>
      </trkpt>
      <trkpt lat="49.38655" lon="0.11759">
        <ele>128.3</ele>
        <time>2020-06-17T14:44:56Z</time>
      </trkpt>
      <trkpt lat="49.38656" lon="0.11764">
        <ele>128.3</ele>
        <time>2020-06-17T14:44:57Z</time>
      </trkpt>
      <trkpt lat="49.38658" lon="0.11769">
        <ele>128.3</ele>
        <time>2020-06-17T14:44:58Z</time>
      </trkpt>
      <trkpt lat="49.38659" lon="0.11775">
        <ele>128.4</ele>
        <time>2020-06-17T14:44:59Z</time>
      </trkpt>
      <trkpt lat="49.38661" lon="0.1178">
        <ele>128.4</ele>
        <time>2020-06-17T14:45:00Z</time>
      </trkpt>
      <trkpt lat="49.38663" lon="0.11786">
        <ele>128.4</ele>
        <time>2020-06-17T14:45:01Z</time>
      </trkpt>
      <trkpt lat="49.38665" lon="0.11792">
        <ele>128.4</ele>
        <time>2020-06-17T14:45:02Z</time>
      </trkpt>
      <trkpt lat="49.38667" lon="0.11798">
        <ele>128.5</ele>
        <time>2020-06-17T14:45:03Z</time>
      </trkpt>
      <trkpt lat="49.38669" lon="0.11803">
        <ele>128.5</ele>
        <time>2020-06-17T14:45:04Z</time>
      </trkpt>
      <trkpt lat="49.38672" lon="0.11807">
        <ele>128.5</ele>
        <time>2020-06-17T14:45:05Z</time>
      </trkpt>
      <trkpt lat="49.38675" lon="0.1181">
        <ele>128.5</ele>
        <time>2020-06-17T14:45:06Z</time>
      </trkpt>
      <trkpt lat="49.38679" lon="0.11814">
        <ele>128.5</ele>
        <time>2020-06-17T14:45:07Z</time>
      </trkpt>
      <trkpt lat="49.38682" lon="0.11817">
        <ele>128.5</ele>
        <time>2020-06-17T14:45:08Z</time>
      </trkpt>
      <trkpt lat="49.38685" lon="0.11823">
        <ele>128.5</ele>
        <time>2020-06-17T14:45:09Z</time>
      </trkpt>
      <trkpt lat="49.38686" lon="0.11826">
        <ele>128.5</ele>
        <time>2020-06-17T14:45:10Z</time>
      </trkpt>
      <trkpt lat="49.38687" lon="0.11829">
        <ele>128.6</ele>
        <time>2020-06-17T14:45:11Z</time>
      </trkpt>
      <trkpt lat="49.3869" lon="0.11836">
        <ele>128.6</ele>
        <time>2020-06-17T14:45:12Z</time>
      </trkpt>
      <trkpt lat="49.38693" lon="0.11842">
        <ele>128.6</ele>
        <time>2020-06-17T14:45:13Z</time>
      </trkpt>
      <trkpt lat="49.38696" lon="0.11848">
        <ele>128.6</ele>
        <time>2020-06-17T14:45:14Z</time>
      </trkpt>
      <trkpt lat="49.38699" lon="0.11855">
        <ele>128.7</ele>
        <time>2020-06-17T14:45:15Z</time>
      </trkpt>
      <trkpt lat="49.38702" lon="0.11863">
        <ele>128.8</ele>
        <time>2020-06-17T14:45:16Z</time>
      </trkpt>
      <trkpt lat="49.38706" lon="0.11872">
        <ele>128.9</ele>
        <time>2020-06-17T14:45:17Z</time>
      </trkpt>
      <trkpt lat="49.3871" lon="0.11881">
        <ele>128.9</ele>
        <time>2020-06-17T14:45:18Z</time>
      </trkpt>
      <trkpt lat="49.38714" lon="0.11889">
        <ele>128.9</ele>
        <time>2020-06-17T14:45:19Z</time>
      </trkpt>
      <trkpt lat="49.38718" lon="0.119">
        <ele>128.8</ele>
        <time>2020-06-17T14:45:20Z</time>
      </trkpt>
      <trkpt lat="49.38723" lon="0.11912">
        <ele>128.9</ele>
        <time>2020-06-17T14:45:21Z</time>
      </trkpt>
      <trkpt lat="49.38728" lon="0.11921">
        <ele>129</ele>
        <time>2020-06-17T14:45:22Z</time>
      </trkpt>
      <trkpt lat="49.38731" lon="0.11929">
        <ele>129</ele>
        <time>2020-06-17T14:45:23Z</time>
      </trkpt>
      <trkpt lat="49.38733" lon="0.11936">
        <ele>128.9</ele>
        <time>2020-06-17T14:45:24Z</time>
      </trkpt>
      <trkpt lat="49.38736" lon="0.11944">
        <ele>128.9</ele>
        <time>2020-06-17T14:45:25Z</time>
      </trkpt>
      <trkpt lat="49.38739" lon="0.11951">
        <ele>128.9</ele>
        <time>2020-06-17T14:45:26Z</time>
      </trkpt>
      <trkpt lat="49.38743" lon="0.11958">
        <ele>128.9</ele>
        <time>2020-06-17T14:45:27Z</time>
      </trkpt>
      <trkpt lat="49.38746" lon="0.11964">
        <ele>128.9</ele>
        <time>2020-06-17T14:45:28Z</time>
      </trkpt>
      <trkpt lat="49.38749" lon="0.1197">
        <ele>128.9</ele>
        <time>2020-06-17T14:45:29Z</time>
      </trkpt>
      <trkpt lat="49.38751" lon="0.11976">
        <ele>128.8</ele>
        <time>2020-06-17T14:45:30Z</time>
      </trkpt>
      <trkpt lat="49.38754" lon="0.11981">
        <ele>128.8</ele>
        <time>2020-06-17T14:45:31Z</time>
      </trkpt>
      <trkpt lat="49.38757" lon="0.11987">
        <ele>128.8</ele>
        <time>2020-06-17T14:45:32Z</time>
      </trkpt>
      <trkpt lat="49.3876" lon="0.11992">
        <ele>128.7</ele>
        <time>2020-06-17T14:45:33Z</time>
      </trkpt>
      <trkpt lat="49.38762" lon="0.11997">
        <ele>128.7</ele>
        <time>2020-06-17T14:45:34Z</time>
      </trkpt>
      <trkpt lat="49.38764" lon="0.12002">
        <ele>128.7</ele>
        <time>2020-06-17T14:45:35Z</time>
      </trkpt>
      <trkpt lat="49.38766" lon="0.12007">
        <ele>128.7</ele>
        <time>2020-06-17T14:45:36Z</time>
      </trkpt>
      <trkpt lat="49.38769" lon="0.12011">
        <ele>128.7</ele>
        <time>2020-06-17T14:45:37Z</time>
      </trkpt>
      <trkpt lat="49.38771" lon="0.12016">
        <ele>128.7</ele>
        <time>2020-06-17T14:45:38Z</time>
      </trkpt>
      <trkpt lat="49.38774" lon="0.12021">
        <ele>128.7</ele>
        <time>2020-06-17T14:45:39Z</time>
      </trkpt>
      <trkpt lat="49.38777" lon="0.12026">
        <ele>128.7</ele>
        <time>2020-06-17T14:45:40Z</time>
      </trkpt>
      <trkpt lat="49.38779" lon="0.12031">
        <ele>128.6</ele>
        <time>2020-06-17T14:45:41Z</time>
      </trkpt>
      <trkpt lat="49.38782" lon="0.12037">
        <ele>128.6</ele>
        <time>2020-06-17T14:45:42Z</time>
      </trkpt>
      <trkpt lat="49.38786" lon="0.12042">
        <ele>128.5</ele>
        <time>2020-06-17T14:45:43Z</time>
      </trkpt>
      <trkpt lat="49.3879" lon="0.12048">
        <ele>128.5</ele>
        <time>2020-06-17T14:45:44Z</time>
      </trkpt>
      <trkpt lat="49.38794" lon="0.12052">
        <ele>128.4</ele>
        <time>2020-06-17T14:45:45Z</time>
      </trkpt>
      <trkpt lat="49.38798" lon="0.12057">
        <ele>128.3</ele>
        <time>2020-06-17T14:45:46Z</time>
      </trkpt>
      <trkpt lat="49.388" lon="0.12061">
        <ele>128.3</ele>
        <time>2020-06-17T14:45:47Z</time>
      </trkpt>
      <trkpt lat="49.38803" lon="0.12065">
        <ele>128.3</ele>
        <time>2020-06-17T14:45:48Z</time>
      </trkpt>
      <trkpt lat="49.38806" lon="0.12071">
        <ele>128.2</ele>
        <time>2020-06-17T14:45:49Z</time>
      </trkpt>
      <trkpt lat="49.38809" lon="0.12077">
        <ele>128.2</ele>
        <time>2020-06-17T14:45:50Z</time>
      </trkpt>
      <trkpt lat="49.38812" lon="0.12083">
        <ele>128.1</ele>
        <time>2020-06-17T14:45:51Z</time>
      </trkpt>
      <trkpt lat="49.38815" lon="0.1209">
        <ele>128.1</ele>
        <time>2020-06-17T14:45:52Z</time>
      </trkpt>
      <trkpt lat="49.38818" lon="0.12099">
        <ele>128</ele>
        <time>2020-06-17T14:45:53Z</time>
      </trkpt>
      <trkpt lat="49.38821" lon="0.12108">
        <ele>127.9</ele>
        <time>2020-06-17T14:45:54Z</time>
      </trkpt>
      <trkpt lat="49.38824" lon="0.12116">
        <ele>127.8</ele>
        <time>2020-06-17T14:45:55Z</time>
      </trkpt>
      <trkpt lat="49.38827" lon="0.12126">
        <ele>127.7</ele>
        <time>2020-06-17T14:45:56Z</time>
      </trkpt>
      <trkpt lat="49.38829" lon="0.12138">
        <ele>127.6</ele>
        <time>2020-06-17T14:45:57Z</time>
      </trkpt>
      <trkpt lat="49.38831" lon="0.1215">
        <ele>127.5</ele>
        <time>2020-06-17T14:45:58Z</time>
      </trkpt>
      <trkpt lat="49.38833" lon="0.1216">
        <ele>127.4</ele>
        <time>2020-06-17T14:45:59Z</time>
      </trkpt>
      <trkpt lat="49.38835" lon="0.1217">
        <ele>127.4</ele>
        <time>2020-06-17T14:46:00Z</time>
      </trkpt>
      <trkpt lat="49.38838" lon="0.12177">
        <ele>127.4</ele>
        <time>2020-06-17T14:46:01Z</time>
      </trkpt>
      <trkpt lat="49.3884" lon="0.12185">
        <ele>127.3</ele>
        <time>2020-06-17T14:46:02Z</time>
      </trkpt>
      <trkpt lat="49.38842" lon="0.12194">
        <ele>127.3</ele>
        <time>2020-06-17T14:46:03Z</time>
      </trkpt>
      <trkpt lat="49.38844" lon="0.12202">
        <ele>127.3</ele>
        <time>2020-06-17T14:46:04Z</time>
      </trkpt>
      <trkpt lat="49.38847" lon="0.1221">
        <ele>127.3</ele>
        <time>2020-06-17T14:46:05Z</time>
      </trkpt>
      <trkpt lat="49.38849" lon="0.12218">
        <ele>127.3</ele>
        <time>2020-06-17T14:46:06Z</time>
      </trkpt>
      <trkpt lat="49.38851" lon="0.12225">
        <ele>127.3</ele>
        <time>2020-06-17T14:46:07Z</time>
      </trkpt>
      <trkpt lat="49.38853" lon="0.12232">
        <ele>127.3</ele>
        <time>2020-06-17T14:46:08Z</time>
      </trkpt>
      <trkpt lat="49.38855" lon="0.1224">
        <ele>127.3</ele>
        <time>2020-06-17T14:46:09Z</time>
      </trkpt>
      <trkpt lat="49.38856" lon="0.12247">
        <ele>127.4</ele>
        <time>2020-06-17T14:46:10Z</time>
      </trkpt>
      <trkpt lat="49.38857" lon="0.12255">
        <ele>127.4</ele>
        <time>2020-06-17T14:46:11Z</time>
      </trkpt>
      <trkpt lat="49.38859" lon="0.12263">
        <ele>127.5</ele>
        <time>2020-06-17T14:46:12Z</time>
      </trkpt>
      <trkpt lat="49.3886" lon="0.12271">
        <ele>127.5</ele>
        <time>2020-06-17T14:46:13Z</time>
      </trkpt>
      <trkpt lat="49.38861" lon="0.12279">
        <ele>127.5</ele>
        <time>2020-06-17T14:46:14Z</time>
      </trkpt>
      <trkpt lat="49.38861" lon="0.12289">
        <ele>127.4</ele>
        <time>2020-06-17T14:46:15Z</time>
      </trkpt>
      <trkpt lat="49.38862" lon="0.12298">
        <ele>127.3</ele>
        <time>2020-06-17T14:46:16Z</time>
      </trkpt>
      <trkpt lat="49.38863" lon="0.12306">
        <ele>127.4</ele>
        <time>2020-06-17T14:46:17Z</time>
      </trkpt>
      <trkpt lat="49.38864" lon="0.12315">
        <ele>127.5</ele>
        <time>2020-06-17T14:46:18Z</time>
      </trkpt>
      <trkpt lat="49.38866" lon="0.12323">
        <ele>127.6</ele>
        <time>2020-06-17T14:46:19Z</time>
      </trkpt>
      <trkpt lat="49.38868" lon="0.12331">
        <ele>127.5</ele>
        <time>2020-06-17T14:46:20Z</time>
      </trkpt>
      <trkpt lat="49.38869" lon="0.12338">
        <ele>127.4</ele>
        <time>2020-06-17T14:46:21Z</time>
      </trkpt>
      <trkpt lat="49.38869" lon="0.12345">
        <ele>127.4</ele>
        <time>2020-06-17T14:46:22Z</time>
      </trkpt>
      <trkpt lat="49.38868" lon="0.12352">
        <ele>127.3</ele>
        <time>2020-06-17T14:46:23Z</time>
      </trkpt>
      <trkpt lat="49.38867" lon="0.12357">
        <ele>127.2</ele>
        <time>2020-06-17T14:46:24Z</time>
      </trkpt>
      <trkpt lat="49.38867" lon="0.12363">
        <ele>127.1</ele>
        <time>2020-06-17T14:46:25Z</time>
      </trkpt>
      <trkpt lat="49.38866" lon="0.12369">
        <ele>126.9</ele>
        <time>2020-06-17T14:46:26Z</time>
      </trkpt>
      <trkpt lat="49.38866" lon="0.12377">
        <ele>126.8</ele>
        <time>2020-06-17T14:46:27Z</time>
      </trkpt>
      <trkpt lat="49.38866" lon="0.12385">
        <ele>126.7</ele>
        <time>2020-06-17T14:46:28Z</time>
      </trkpt>
      <trkpt lat="49.38865" lon="0.12393">
        <ele>126.5</ele>
        <time>2020-06-17T14:46:29Z</time>
      </trkpt>
      <trkpt lat="49.38864" lon="0.12401">
        <ele>126.4</ele>
        <time>2020-06-17T14:46:30Z</time>
      </trkpt>
      <trkpt lat="49.38862" lon="0.12409">
        <ele>126.2</ele>
        <time>2020-06-17T14:46:31Z</time>
      </trkpt>
      <trkpt lat="49.3886" lon="0.12418">
        <ele>126</ele>
        <time>2020-06-17T14:46:32Z</time>
      </trkpt>
      <trkpt lat="49.38857" lon="0.12427">
        <ele>125.8</ele>
        <time>2020-06-17T14:46:33Z</time>
      </trkpt>
      <trkpt lat="49.38855" lon="0.12435">
        <ele>125.6</ele>
        <time>2020-06-17T14:46:34Z</time>
      </trkpt>
      <trkpt lat="49.38852" lon="0.12443">
        <ele>125.3</ele>
        <time>2020-06-17T14:46:35Z</time>
      </trkpt>
      <trkpt lat="49.3885" lon="0.12451">
        <ele>125</ele>
        <time>2020-06-17T14:46:36Z</time>
      </trkpt>
      <trkpt lat="49.38846" lon="0.1246">
        <ele>124.7</ele>
        <time>2020-06-17T14:46:37Z</time>
      </trkpt>
      <trkpt lat="49.38843" lon="0.12468">
        <ele>124.4</ele>
        <time>2020-06-17T14:46:38Z</time>
      </trkpt>
      <trkpt lat="49.3884" lon="0.12475">
        <ele>124.1</ele>
        <time>2020-06-17T14:46:39Z</time>
      </trkpt>
      <trkpt lat="49.38837" lon="0.12483">
        <ele>123.7</ele>
        <time>2020-06-17T14:46:40Z</time>
      </trkpt>
      <trkpt lat="49.38834" lon="0.1249">
        <ele>123.3</ele>
        <time>2020-06-17T14:46:41Z</time>
      </trkpt>
      <trkpt lat="49.38831" lon="0.12497">
        <ele>123</ele>
        <time>2020-06-17T14:46:42Z</time>
      </trkpt>
      <trkpt lat="49.38828" lon="0.12507">
        <ele>122.4</ele>
        <time>2020-06-17T14:46:43Z</time>
      </trkpt>
      <trkpt lat="49.38823" lon="0.12515">
        <ele>121.8</ele>
        <time>2020-06-17T14:46:44Z</time>
      </trkpt>
      <trkpt lat="49.38817" lon="0.1253">
        <ele>120.7</ele>
        <time>2020-06-17T14:46:45Z</time>
      </trkpt>
      <trkpt lat="49.38811" lon="0.12545">
        <ele>119.7</ele>
        <time>2020-06-17T14:46:46Z</time>
      </trkpt>
      <trkpt lat="49.38805" lon="0.1256">
        <ele>118.7</ele>
        <time>2020-06-17T14:46:47Z</time>
      </trkpt>
      <trkpt lat="49.38799" lon="0.12573">
        <ele>118</ele>
        <time>2020-06-17T14:46:48Z</time>
      </trkpt>
      <trkpt lat="49.38794" lon="0.12585">
        <ele>117.4</ele>
        <time>2020-06-17T14:46:49Z</time>
      </trkpt>
      <trkpt lat="49.38789" lon="0.12596">
        <ele>117</ele>
        <time>2020-06-17T14:46:50Z</time>
      </trkpt>
      <trkpt lat="49.38783" lon="0.12608">
        <ele>116.7</ele>
        <time>2020-06-17T14:46:51Z</time>
      </trkpt>
      <trkpt lat="49.38778" lon="0.12619">
        <ele>116.6</ele>
        <time>2020-06-17T14:46:52Z</time>
      </trkpt>
      <trkpt lat="49.38774" lon="0.12629">
        <ele>116.5</ele>
        <time>2020-06-17T14:46:53Z</time>
      </trkpt>
      <trkpt lat="49.38772" lon="0.12638">
        <ele>116.5</ele>
        <time>2020-06-17T14:46:54Z</time>
      </trkpt>
      <trkpt lat="49.38767" lon="0.1265">
        <ele>116.6</ele>
        <time>2020-06-17T14:46:55Z</time>
      </trkpt>
      <trkpt lat="49.38763" lon="0.12661">
        <ele>116.9</ele>
        <time>2020-06-17T14:46:56Z</time>
      </trkpt>
      <trkpt lat="49.38759" lon="0.12673">
        <ele>117.3</ele>
        <time>2020-06-17T14:46:57Z</time>
      </trkpt>
      <trkpt lat="49.38758" lon="0.12684">
        <ele>117.9</ele>
        <time>2020-06-17T14:46:58Z</time>
      </trkpt>
      <trkpt lat="49.38759" lon="0.12693">
        <ele>118.5</ele>
        <time>2020-06-17T14:46:59Z</time>
      </trkpt>
      <trkpt lat="49.38761" lon="0.12701">
        <ele>119.1</ele>
        <time>2020-06-17T14:47:00Z</time>
      </trkpt>
      <trkpt lat="49.38762" lon="0.12706">
        <ele>119.5</ele>
        <time>2020-06-17T14:47:01Z</time>
      </trkpt>
      <trkpt lat="49.38764" lon="0.12709">
        <ele>119.9</ele>
        <time>2020-06-17T14:47:02Z</time>
      </trkpt>
      <trkpt lat="49.38768" lon="0.12713">
        <ele>120.4</ele>
        <time>2020-06-17T14:47:03Z</time>
      </trkpt>
      <trkpt lat="49.38772" lon="0.12715">
        <ele>120.8</ele>
        <time>2020-06-17T14:47:04Z</time>
      </trkpt>
      <trkpt lat="49.38774" lon="0.12716">
        <ele>121.2</ele>
        <time>2020-06-17T14:47:05Z</time>
      </trkpt>
      <trkpt lat="49.38779" lon="0.12718">
        <ele>121.7</ele>
        <time>2020-06-17T14:47:06Z</time>
      </trkpt>
      <trkpt lat="49.38783" lon="0.1272">
        <ele>122.2</ele>
        <time>2020-06-17T14:47:07Z</time>
      </trkpt>
      <trkpt lat="49.38786" lon="0.12722">
        <ele>122.5</ele>
        <time>2020-06-17T14:47:08Z</time>
      </trkpt>
      <trkpt lat="49.38788" lon="0.12725">
        <ele>122.8</ele>
        <time>2020-06-17T14:47:09Z</time>
      </trkpt>
      <trkpt lat="49.3879" lon="0.12728">
        <ele>123.1</ele>
        <time>2020-06-17T14:47:10Z</time>
      </trkpt>
      <trkpt lat="49.38793" lon="0.12731">
        <ele>123.4</ele>
        <time>2020-06-17T14:47:11Z</time>
      </trkpt>
      <trkpt lat="49.38796" lon="0.12734">
        <ele>123.7</ele>
        <time>2020-06-17T14:47:12Z</time>
      </trkpt>
      <trkpt lat="49.38797" lon="0.12735">
        <ele>123.8</ele>
        <time>2020-06-17T14:47:13Z</time>
      </trkpt>
      <trkpt lat="49.388" lon="0.12739">
        <ele>124.1</ele>
        <time>2020-06-17T14:47:14Z</time>
      </trkpt>
      <trkpt lat="49.38801" lon="0.1274">
        <ele>124.2</ele>
        <time>2020-06-17T14:47:15Z</time>
      </trkpt>
      <trkpt lat="49.38804" lon="0.12744">
        <ele>124.4</ele>
        <time>2020-06-17T14:47:16Z</time>
      </trkpt>
      <trkpt lat="49.38805" lon="0.12744">
        <ele>124.5</ele>
        <time>2020-06-17T14:47:17Z</time>
      </trkpt>
      <trkpt lat="49.38807" lon="0.12747">
        <ele>124.7</ele>
        <time>2020-06-17T14:47:18Z</time>
      </trkpt>
      <trkpt lat="49.38809" lon="0.12749">
        <ele>124.9</ele>
        <time>2020-06-17T14:47:19Z</time>
      </trkpt>
      <trkpt lat="49.38812" lon="0.12752">
        <ele>125.1</ele>
        <time>2020-06-17T14:47:20Z</time>
      </trkpt>
      <trkpt lat="49.38813" lon="0.12754">
        <ele>125.2</ele>
        <time>2020-06-17T14:47:21Z</time>
      </trkpt>
      <trkpt lat="49.38815" lon="0.12757">
        <ele>125.4</ele>
        <time>2020-06-17T14:47:22Z</time>
      </trkpt>
      <trkpt lat="49.38816" lon="0.12758">
        <ele>125.4</ele>
        <time>2020-06-17T14:47:23Z</time>
      </trkpt>
      <trkpt lat="49.38819" lon="0.12762">
        <ele>125.6</ele>
        <time>2020-06-17T14:47:24Z</time>
      </trkpt>
      <trkpt lat="49.38819" lon="0.12763">
        <ele>125.7</ele>
        <time>2020-06-17T14:47:25Z</time>
      </trkpt>
      <trkpt lat="49.38821" lon="0.12768">
        <ele>125.9</ele>
        <time>2020-06-17T14:47:26Z</time>
      </trkpt>
      <trkpt lat="49.38822" lon="0.1277">
        <ele>126</ele>
        <time>2020-06-17T14:47:27Z</time>
      </trkpt>
      <trkpt lat="49.38824" lon="0.12775">
        <ele>126.1</ele>
        <time>2020-06-17T14:47:28Z</time>
      </trkpt>
      <trkpt lat="49.38825" lon="0.12776">
        <ele>126.2</ele>
        <time>2020-06-17T14:47:29Z</time>
      </trkpt>
      <trkpt lat="49.38827" lon="0.12779">
        <ele>126.3</ele>
        <time>2020-06-17T14:47:30Z</time>
      </trkpt>
      <trkpt lat="49.38828" lon="0.12781">
        <ele>126.4</ele>
        <time>2020-06-17T14:47:31Z</time>
      </trkpt>
      <trkpt lat="49.38829" lon="0.12785">
        <ele>126.7</ele>
        <time>2020-06-17T14:47:32Z</time>
      </trkpt>
      <trkpt lat="49.38831" lon="0.12788">
        <ele>126.9</ele>
        <time>2020-06-17T14:47:33Z</time>
      </trkpt>
      <trkpt lat="49.38833" lon="0.12791">
        <ele>127</ele>
        <time>2020-06-17T14:47:34Z</time>
      </trkpt>
      <trkpt lat="49.38836" lon="0.12794">
        <ele>127.1</ele>
        <time>2020-06-17T14:47:35Z</time>
      </trkpt>
      <trkpt lat="49.38838" lon="0.12796">
        <ele>127.2</ele>
        <time>2020-06-17T14:47:36Z</time>
      </trkpt>
      <trkpt lat="49.38841" lon="0.12799">
        <ele>127.3</ele>
        <time>2020-06-17T14:47:37Z</time>
      </trkpt>
      <trkpt lat="49.38844" lon="0.12803">
        <ele>127.3</ele>
        <time>2020-06-17T14:47:38Z</time>
      </trkpt>
      <trkpt lat="49.38847" lon="0.12806">
        <ele>127.3</ele>
        <time>2020-06-17T14:47:39Z</time>
      </trkpt>
      <trkpt lat="49.38849" lon="0.12809">
        <ele>127.3</ele>
        <time>2020-06-17T14:47:40Z</time>
      </trkpt>
      <trkpt lat="49.38852" lon="0.12813">
        <ele>127.3</ele>
        <time>2020-06-17T14:47:41Z</time>
      </trkpt>
      <trkpt lat="49.38856" lon="0.12817">
        <ele>127.3</ele>
        <time>2020-06-17T14:47:42Z</time>
      </trkpt>
      <trkpt lat="49.38858" lon="0.12821">
        <ele>127.2</ele>
        <time>2020-06-17T14:47:43Z</time>
      </trkpt>
      <trkpt lat="49.3886" lon="0.12825">
        <ele>127.2</ele>
        <time>2020-06-17T14:47:44Z</time>
      </trkpt>
      <trkpt lat="49.3886" lon="0.12826">
        <ele>127.2</ele>
        <time>2020-06-17T14:47:45Z</time>
      </trkpt>
      <trkpt lat="49.38862" lon="0.12831">
        <ele>127.2</ele>
        <time>2020-06-17T14:47:46Z</time>
      </trkpt>
      <trkpt lat="49.38863" lon="0.12832">
        <ele>127.2</ele>
        <time>2020-06-17T14:47:47Z</time>
      </trkpt>
      <trkpt lat="49.38866" lon="0.12837">
        <ele>127.2</ele>
        <time>2020-06-17T14:47:48Z</time>
      </trkpt>
      <trkpt lat="49.38867" lon="0.12841">
        <ele>127.2</ele>
        <time>2020-06-17T14:47:49Z</time>
      </trkpt>
      <trkpt lat="49.38869" lon="0.12845">
        <ele>127.1</ele>
        <time>2020-06-17T14:47:50Z</time>
      </trkpt>
      <trkpt lat="49.3887" lon="0.12849">
        <ele>127.1</ele>
        <time>2020-06-17T14:47:51Z</time>
      </trkpt>
      <trkpt lat="49.38871" lon="0.12854">
        <ele>127.1</ele>
        <time>2020-06-17T14:47:52Z</time>
      </trkpt>
      <trkpt lat="49.38872" lon="0.1286">
        <ele>127.1</ele>
        <time>2020-06-17T14:47:53Z</time>
      </trkpt>
      <trkpt lat="49.38873" lon="0.12866">
        <ele>127.1</ele>
        <time>2020-06-17T14:47:54Z</time>
      </trkpt>
      <trkpt lat="49.38872" lon="0.12872">
        <ele>127.1</ele>
        <time>2020-06-17T14:47:55Z</time>
      </trkpt>
      <trkpt lat="49.38872" lon="0.12881">
        <ele>127.1</ele>
        <time>2020-06-17T14:47:56Z</time>
      </trkpt>
      <trkpt lat="49.38871" lon="0.12888">
        <ele>127.1</ele>
        <time>2020-06-17T14:47:57Z</time>
      </trkpt>
      <trkpt lat="49.38869" lon="0.12895">
        <ele>127.1</ele>
        <time>2020-06-17T14:47:58Z</time>
      </trkpt>
      <trkpt lat="49.38868" lon="0.12903">
        <ele>127</ele>
        <time>2020-06-17T14:47:59Z</time>
      </trkpt>
      <trkpt lat="49.38867" lon="0.1291">
        <ele>127</ele>
        <time>2020-06-17T14:48:00Z</time>
      </trkpt>
      <trkpt lat="49.38866" lon="0.12918">
        <ele>127</ele>
        <time>2020-06-17T14:48:01Z</time>
      </trkpt>
      <trkpt lat="49.38865" lon="0.12924">
        <ele>127</ele>
        <time>2020-06-17T14:48:02Z</time>
      </trkpt>
      <trkpt lat="49.38864" lon="0.12929">
        <ele>127</ele>
        <time>2020-06-17T14:48:03Z</time>
      </trkpt>
      <trkpt lat="49.38862" lon="0.12934">
        <ele>127</ele>
        <time>2020-06-17T14:48:04Z</time>
      </trkpt>
      <trkpt lat="49.38861" lon="0.12939">
        <ele>127</ele>
        <time>2020-06-17T14:48:05Z</time>
      </trkpt>
      <trkpt lat="49.38861" lon="0.12945">
        <ele>127</ele>
        <time>2020-06-17T14:48:06Z</time>
      </trkpt>
      <trkpt lat="49.3886" lon="0.12953">
        <ele>127</ele>
        <time>2020-06-17T14:48:07Z</time>
      </trkpt>
      <trkpt lat="49.3886" lon="0.12962">
        <ele>127</ele>
        <time>2020-06-17T14:48:08Z</time>
      </trkpt>
      <trkpt lat="49.38859" lon="0.1297">
        <ele>127</ele>
        <time>2020-06-17T14:48:09Z</time>
      </trkpt>
      <trkpt lat="49.38858" lon="0.12981">
        <ele>127</ele>
        <time>2020-06-17T14:48:10Z</time>
      </trkpt>
      <trkpt lat="49.38857" lon="0.12989">
        <ele>127</ele>
        <time>2020-06-17T14:48:11Z</time>
      </trkpt>
      <trkpt lat="49.38854" lon="0.12998">
        <ele>127</ele>
        <time>2020-06-17T14:48:12Z</time>
      </trkpt>
      <trkpt lat="49.38852" lon="0.13006">
        <ele>127</ele>
        <time>2020-06-17T14:48:13Z</time>
      </trkpt>
      <trkpt lat="49.3885" lon="0.13015">
        <ele>127</ele>
        <time>2020-06-17T14:48:14Z</time>
      </trkpt>
      <trkpt lat="49.38847" lon="0.13024">
        <ele>127</ele>
        <time>2020-06-17T14:48:15Z</time>
      </trkpt>
      <trkpt lat="49.38846" lon="0.13028">
        <ele>127</ele>
        <time>2020-06-17T14:48:16Z</time>
      </trkpt>
      <trkpt lat="49.38845" lon="0.13036">
        <ele>127</ele>
        <time>2020-06-17T14:48:17Z</time>
      </trkpt>
      <trkpt lat="49.38843" lon="0.1305">
        <ele>127</ele>
        <time>2020-06-17T14:48:18Z</time>
      </trkpt>
      <trkpt lat="49.38841" lon="0.13069">
        <ele>127.1</ele>
        <time>2020-06-17T14:48:19Z</time>
      </trkpt>
      <trkpt lat="49.3884" lon="0.13085">
        <ele>127</ele>
        <time>2020-06-17T14:48:20Z</time>
      </trkpt>
      <trkpt lat="49.38838" lon="0.13099">
        <ele>127</ele>
        <time>2020-06-17T14:48:21Z</time>
      </trkpt>
      <trkpt lat="49.38837" lon="0.13112">
        <ele>127</ele>
        <time>2020-06-17T14:48:22Z</time>
      </trkpt>
      <trkpt lat="49.38836" lon="0.13123">
        <ele>126.9</ele>
        <time>2020-06-17T14:48:23Z</time>
      </trkpt>
      <trkpt lat="49.38836" lon="0.13134">
        <ele>126.9</ele>
        <time>2020-06-17T14:48:24Z</time>
      </trkpt>
      <trkpt lat="49.38834" lon="0.13148">
        <ele>126.8</ele>
        <time>2020-06-17T14:48:25Z</time>
      </trkpt>
      <trkpt lat="49.38832" lon="0.13161">
        <ele>126.8</ele>
        <time>2020-06-17T14:48:26Z</time>
      </trkpt>
      <trkpt lat="49.3883" lon="0.13175">
        <ele>126.8</ele>
        <time>2020-06-17T14:48:27Z</time>
      </trkpt>
      <trkpt lat="49.38829" lon="0.13186">
        <ele>126.8</ele>
        <time>2020-06-17T14:48:28Z</time>
      </trkpt>
      <trkpt lat="49.38827" lon="0.13198">
        <ele>126.8</ele>
        <time>2020-06-17T14:48:29Z</time>
      </trkpt>
      <trkpt lat="49.38825" lon="0.13209">
        <ele>126.8</ele>
        <time>2020-06-17T14:48:30Z</time>
      </trkpt>
      <trkpt lat="49.38822" lon="0.13219">
        <ele>126.8</ele>
        <time>2020-06-17T14:48:31Z</time>
      </trkpt>
      <trkpt lat="49.3882" lon="0.13229">
        <ele>126.7</ele>
        <time>2020-06-17T14:48:32Z</time>
      </trkpt>
      <trkpt lat="49.38818" lon="0.13239">
        <ele>126.6</ele>
        <time>2020-06-17T14:48:33Z</time>
      </trkpt>
      <trkpt lat="49.38817" lon="0.13248">
        <ele>126.6</ele>
        <time>2020-06-17T14:48:34Z</time>
      </trkpt>
      <trkpt lat="49.38816" lon="0.13256">
        <ele>126.6</ele>
        <time>2020-06-17T14:48:35Z</time>
      </trkpt>
      <trkpt lat="49.38815" lon="0.13266">
        <ele>126.6</ele>
        <time>2020-06-17T14:48:36Z</time>
      </trkpt>
      <trkpt lat="49.38813" lon="0.13277">
        <ele>126.5</ele>
        <time>2020-06-17T14:48:37Z</time>
      </trkpt>
      <trkpt lat="49.38812" lon="0.13288">
        <ele>126.5</ele>
        <time>2020-06-17T14:48:38Z</time>
      </trkpt>
      <trkpt lat="49.38811" lon="0.13296">
        <ele>126.5</ele>
        <time>2020-06-17T14:48:39Z</time>
      </trkpt>
      <trkpt lat="49.38808" lon="0.13308">
        <ele>126.5</ele>
        <time>2020-06-17T14:48:40Z</time>
      </trkpt>
      <trkpt lat="49.38806" lon="0.13317">
        <ele>126.4</ele>
        <time>2020-06-17T14:48:41Z</time>
      </trkpt>
      <trkpt lat="49.38804" lon="0.13324">
        <ele>126.3</ele>
        <time>2020-06-17T14:48:42Z</time>
      </trkpt>
      <trkpt lat="49.38801" lon="0.13332">
        <ele>126.2</ele>
        <time>2020-06-17T14:48:43Z</time>
      </trkpt>
      <trkpt lat="49.38798" lon="0.13341">
        <ele>126.2</ele>
        <time>2020-06-17T14:48:44Z</time>
      </trkpt>
      <trkpt lat="49.38796" lon="0.13348">
        <ele>126.1</ele>
        <time>2020-06-17T14:48:45Z</time>
      </trkpt>
      <trkpt lat="49.38794" lon="0.13356">
        <ele>126</ele>
        <time>2020-06-17T14:48:46Z</time>
      </trkpt>
      <trkpt lat="49.38793" lon="0.13363">
        <ele>126</ele>
        <time>2020-06-17T14:48:47Z</time>
      </trkpt>
      <trkpt lat="49.38791" lon="0.1337">
        <ele>125.9</ele>
        <time>2020-06-17T14:48:48Z</time>
      </trkpt>
      <trkpt lat="49.38789" lon="0.13376">
        <ele>125.9</ele>
        <time>2020-06-17T14:48:49Z</time>
      </trkpt>
      <trkpt lat="49.38789" lon="0.1338">
        <ele>125.9</ele>
        <time>2020-06-17T14:48:50Z</time>
      </trkpt>
      <trkpt lat="49.38787" lon="0.13384">
        <ele>125.8</ele>
        <time>2020-06-17T14:48:51Z</time>
      </trkpt>
      <trkpt lat="49.38787" lon="0.13388">
        <ele>125.8</ele>
        <time>2020-06-17T14:48:52Z</time>
      </trkpt>
      <trkpt lat="49.38786" lon="0.13389">
        <ele>125.8</ele>
        <time>2020-06-17T14:48:53Z</time>
      </trkpt>
      <trkpt lat="49.38785" lon="0.13391">
        <ele>125.8</ele>
        <time>2020-06-17T14:48:54Z</time>
      </trkpt>
      <trkpt lat="49.38785" lon="0.13392">
        <ele>125.8</ele>
        <time>2020-06-17T14:48:55Z</time>
      </trkpt>
      <trkpt lat="49.38785" lon="0.13392">
        <ele>125.8</ele>
        <time>2020-06-17T14:48:56Z</time>
      </trkpt>
      <trkpt lat="49.38785" lon="0.13392">
        <ele>125.8</ele>
        <time>2020-06-17T14:48:57Z</time>
      </trkpt>
      <trkpt lat="49.38785" lon="0.13392">
        <ele>125.8</ele>
        <time>2020-06-17T14:48:58Z</time>
      </trkpt>
      <trkpt lat="49.38785" lon="0.13392">
        <ele>125.8</ele>
        <time>2020-06-17T14:48:59Z</time>
      </trkpt>
      <trkpt lat="49.38785" lon="0.13393">
        <ele>125.8</ele>
        <time>2020-06-17T14:49:00Z</time>
      </trkpt>
      <trkpt lat="49.38785" lon="0.13393">
        <ele>125.7</ele>
        <time>2020-06-17T14:49:01Z</time>
      </trkpt>
      <trkpt lat="49.38785" lon="0.13393">
        <ele>125.7</ele>
        <time>2020-06-17T14:49:02Z</time>
      </trkpt>
      <trkpt lat="49.38784" lon="0.13399">
        <ele>125.7</ele>
        <time>2020-06-17T14:49:03Z</time>
      </trkpt>
      <trkpt lat="49.38784" lon="0.13404">
        <ele>125.7</ele>
        <time>2020-06-17T14:49:04Z</time>
      </trkpt>
      <trkpt lat="49.38783" lon="0.1341">
        <ele>125.7</ele>
        <time>2020-06-17T14:49:28Z</time>
      </trkpt>
      <trkpt lat="49.38783" lon="0.13415">
        <ele>125.6</ele>
        <time>2020-06-17T14:49:29Z</time>
      </trkpt>
      <trkpt lat="49.38784" lon="0.13421">
        <ele>125.6</ele>
        <time>2020-06-17T14:49:30Z</time>
      </trkpt>
      <trkpt lat="49.38784" lon="0.13423">
        <ele>125.6</ele>
        <time>2020-06-17T14:49:31Z</time>
      </trkpt>
      <trkpt lat="49.38785" lon="0.13427">
        <ele>125.5</ele>
        <time>2020-06-17T14:49:32Z</time>
      </trkpt>
      <trkpt lat="49.38788" lon="0.13431">
        <ele>125.4</ele>
        <time>2020-06-17T14:49:33Z</time>
      </trkpt>
      <trkpt lat="49.38789" lon="0.13432">
        <ele>125.4</ele>
        <time>2020-06-17T14:49:34Z</time>
      </trkpt>
      <trkpt lat="49.38791" lon="0.13435">
        <ele>125.4</ele>
        <time>2020-06-17T14:49:35Z</time>
      </trkpt>
      <trkpt lat="49.38794" lon="0.13438">
        <ele>125.3</ele>
        <time>2020-06-17T14:49:36Z</time>
      </trkpt>
      <trkpt lat="49.38796" lon="0.13442">
        <ele>125.2</ele>
        <time>2020-06-17T14:49:37Z</time>
      </trkpt>
      <trkpt lat="49.38799" lon="0.13446">
        <ele>125.1</ele>
        <time>2020-06-17T14:49:38Z</time>
      </trkpt>
      <trkpt lat="49.38801" lon="0.1345">
        <ele>125</ele>
        <time>2020-06-17T14:49:39Z</time>
      </trkpt>
      <trkpt lat="49.38804" lon="0.13454">
        <ele>125</ele>
        <time>2020-06-17T14:49:40Z</time>
      </trkpt>
      <trkpt lat="49.38806" lon="0.13457">
        <ele>124.9</ele>
        <time>2020-06-17T14:49:41Z</time>
      </trkpt>
      <trkpt lat="49.3881" lon="0.13461">
        <ele>124.8</ele>
        <time>2020-06-17T14:49:42Z</time>
      </trkpt>
      <trkpt lat="49.38813" lon="0.13465">
        <ele>124.7</ele>
        <time>2020-06-17T14:49:43Z</time>
      </trkpt>
      <trkpt lat="49.38817" lon="0.13469">
        <ele>124.6</ele>
        <time>2020-06-17T14:49:44Z</time>
      </trkpt>
      <trkpt lat="49.38821" lon="0.13475">
        <ele>124.5</ele>
        <time>2020-06-17T14:49:45Z</time>
      </trkpt>
      <trkpt lat="49.38825" lon="0.1348">
        <ele>124.4</ele>
        <time>2020-06-17T14:49:46Z</time>
      </trkpt>
      <trkpt lat="49.38828" lon="0.13485">
        <ele>124.3</ele>
        <time>2020-06-17T14:49:47Z</time>
      </trkpt>
      <trkpt lat="49.38832" lon="0.1349">
        <ele>124.2</ele>
        <time>2020-06-17T14:49:48Z</time>
      </trkpt>
      <trkpt lat="49.38835" lon="0.13495">
        <ele>124.2</ele>
        <time>2020-06-17T14:49:49Z</time>
      </trkpt>
      <trkpt lat="49.38837" lon="0.13499">
        <ele>124.1</ele>
        <time>2020-06-17T14:49:50Z</time>
      </trkpt>
      <trkpt lat="49.38841" lon="0.13505">
        <ele>124.1</ele>
        <time>2020-06-17T14:49:51Z</time>
      </trkpt>
      <trkpt lat="49.38844" lon="0.13511">
        <ele>124</ele>
        <time>2020-06-17T14:49:52Z</time>
      </trkpt>
      <trkpt lat="49.38846" lon="0.13516">
        <ele>123.9</ele>
        <time>2020-06-17T14:49:53Z</time>
      </trkpt>
      <trkpt lat="49.38849" lon="0.13523">
        <ele>123.8</ele>
        <time>2020-06-17T14:49:54Z</time>
      </trkpt>
      <trkpt lat="49.38852" lon="0.13529">
        <ele>123.6</ele>
        <time>2020-06-17T14:49:55Z</time>
      </trkpt>
      <trkpt lat="49.38855" lon="0.13536">
        <ele>123.5</ele>
        <time>2020-06-17T14:49:56Z</time>
      </trkpt>
      <trkpt lat="49.38857" lon="0.13543">
        <ele>123.4</ele>
        <time>2020-06-17T14:49:57Z</time>
      </trkpt>
      <trkpt lat="49.3886" lon="0.13552">
        <ele>123.2</ele>
        <time>2020-06-17T14:49:58Z</time>
      </trkpt>
      <trkpt lat="49.38862" lon="0.1356">
        <ele>123.1</ele>
        <time>2020-06-17T14:49:59Z</time>
      </trkpt>
      <trkpt lat="49.38864" lon="0.13568">
        <ele>122.9</ele>
        <time>2020-06-17T14:50:00Z</time>
      </trkpt>
      <trkpt lat="49.38866" lon="0.13576">
        <ele>122.7</ele>
        <time>2020-06-17T14:50:01Z</time>
      </trkpt>
      <trkpt lat="49.38868" lon="0.13585">
        <ele>122.4</ele>
        <time>2020-06-17T14:50:02Z</time>
      </trkpt>
      <trkpt lat="49.38869" lon="0.13595">
        <ele>122.2</ele>
        <time>2020-06-17T14:50:03Z</time>
      </trkpt>
      <trkpt lat="49.38871" lon="0.13604">
        <ele>121.9</ele>
        <time>2020-06-17T14:50:04Z</time>
      </trkpt>
      <trkpt lat="49.38873" lon="0.13612">
        <ele>121.7</ele>
        <time>2020-06-17T14:50:05Z</time>
      </trkpt>
      <trkpt lat="49.38875" lon="0.13621">
        <ele>121.4</ele>
        <time>2020-06-17T14:50:06Z</time>
      </trkpt>
      <trkpt lat="49.38877" lon="0.13631">
        <ele>121.2</ele>
        <time>2020-06-17T14:50:07Z</time>
      </trkpt>
      <trkpt lat="49.38878" lon="0.1364">
        <ele>120.9</ele>
        <time>2020-06-17T14:50:08Z</time>
      </trkpt>
      <trkpt lat="49.3888" lon="0.1365">
        <ele>120.6</ele>
        <time>2020-06-17T14:50:09Z</time>
      </trkpt>
      <trkpt lat="49.38882" lon="0.1366">
        <ele>120.3</ele>
        <time>2020-06-17T14:50:10Z</time>
      </trkpt>
      <trkpt lat="49.38885" lon="0.1367">
        <ele>120</ele>
        <time>2020-06-17T14:50:11Z</time>
      </trkpt>
      <trkpt lat="49.38888" lon="0.13679">
        <ele>119.7</ele>
        <time>2020-06-17T14:50:12Z</time>
      </trkpt>
      <trkpt lat="49.38891" lon="0.13687">
        <ele>119.5</ele>
        <time>2020-06-17T14:50:13Z</time>
      </trkpt>
      <trkpt lat="49.38894" lon="0.13696">
        <ele>119.2</ele>
        <time>2020-06-17T14:50:14Z</time>
      </trkpt>
      <trkpt lat="49.38898" lon="0.13706">
        <ele>119.7</ele>
        <time>2020-06-17T14:50:15Z</time>
      </trkpt>
      <trkpt lat="49.38902" lon="0.13715">
        <ele>120.6</ele>
        <time>2020-06-17T14:50:16Z</time>
      </trkpt>
      <trkpt lat="49.38907" lon="0.13725">
        <ele>120.8</ele>
        <time>2020-06-17T14:50:17Z</time>
      </trkpt>
      <trkpt lat="49.38911" lon="0.13735">
        <ele>120.7</ele>
        <time>2020-06-17T14:50:18Z</time>
      </trkpt>
      <trkpt lat="49.38915" lon="0.13744">
        <ele>120.3</ele>
        <time>2020-06-17T14:50:19Z</time>
      </trkpt>
      <trkpt lat="49.3892" lon="0.13755">
        <ele>119.8</ele>
        <time>2020-06-17T14:50:20Z</time>
      </trkpt>
      <trkpt lat="49.38925" lon="0.13766">
        <ele>119.3</ele>
        <time>2020-06-17T14:50:21Z</time>
      </trkpt>
      <trkpt lat="49.3893" lon="0.13776">
        <ele>118.9</ele>
        <time>2020-06-17T14:50:22Z</time>
      </trkpt>
      <trkpt lat="49.38934" lon="0.13784">
        <ele>118.5</ele>
        <time>2020-06-17T14:50:23Z</time>
      </trkpt>
      <trkpt lat="49.38939" lon="0.13793">
        <ele>118</ele>
        <time>2020-06-17T14:50:24Z</time>
      </trkpt>
      <trkpt lat="49.38944" lon="0.13803">
        <ele>117.5</ele>
        <time>2020-06-17T14:50:25Z</time>
      </trkpt>
      <trkpt lat="49.38949" lon="0.13813">
        <ele>117</ele>
        <time>2020-06-17T14:50:26Z</time>
      </trkpt>
      <trkpt lat="49.38955" lon="0.13822">
        <ele>116.6</ele>
        <time>2020-06-17T14:50:27Z</time>
      </trkpt>
      <trkpt lat="49.38961" lon="0.13831">
        <ele>116.1</ele>
        <time>2020-06-17T14:50:28Z</time>
      </trkpt>
      <trkpt lat="49.38967" lon="0.13841">
        <ele>115.6</ele>
        <time>2020-06-17T14:50:29Z</time>
      </trkpt>
      <trkpt lat="49.38973" lon="0.13851">
        <ele>115</ele>
        <time>2020-06-17T14:50:30Z</time>
      </trkpt>
      <trkpt lat="49.3898" lon="0.13862">
        <ele>114.5</ele>
        <time>2020-06-17T14:50:31Z</time>
      </trkpt>
      <trkpt lat="49.38987" lon="0.13873">
        <ele>113.9</ele>
        <time>2020-06-17T14:50:32Z</time>
      </trkpt>
      <trkpt lat="49.38994" lon="0.13885">
        <ele>113.3</ele>
        <time>2020-06-17T14:50:33Z</time>
      </trkpt>
      <trkpt lat="49.39001" lon="0.13896">
        <ele>112.6</ele>
        <time>2020-06-17T14:50:34Z</time>
      </trkpt>
      <trkpt lat="49.39008" lon="0.13906">
        <ele>112</ele>
        <time>2020-06-17T14:50:35Z</time>
      </trkpt>
      <trkpt lat="49.39013" lon="0.13915">
        <ele>111.5</ele>
        <time>2020-06-17T14:50:36Z</time>
      </trkpt>
      <trkpt lat="49.39018" lon="0.13924">
        <ele>111</ele>
        <time>2020-06-17T14:50:37Z</time>
      </trkpt>
      <trkpt lat="49.39023" lon="0.13934">
        <ele>110.5</ele>
        <time>2020-06-17T14:50:38Z</time>
      </trkpt>
      <trkpt lat="49.39029" lon="0.13943">
        <ele>110</ele>
        <time>2020-06-17T14:50:39Z</time>
      </trkpt>
      <trkpt lat="49.39035" lon="0.13954">
        <ele>109.4</ele>
        <time>2020-06-17T14:50:40Z</time>
      </trkpt>
      <trkpt lat="49.39042" lon="0.13965">
        <ele>108.8</ele>
        <time>2020-06-17T14:50:41Z</time>
      </trkpt>
      <trkpt lat="49.39048" lon="0.13975">
        <ele>108.3</ele>
        <time>2020-06-17T14:50:42Z</time>
      </trkpt>
      <trkpt lat="49.39054" lon="0.13985">
        <ele>107.7</ele>
        <time>2020-06-17T14:50:43Z</time>
      </trkpt>
      <trkpt lat="49.39059" lon="0.13994">
        <ele>107.2</ele>
        <time>2020-06-17T14:50:44Z</time>
      </trkpt>
      <trkpt lat="49.39065" lon="0.14007">
        <ele>106.4</ele>
        <time>2020-06-17T14:50:45Z</time>
      </trkpt>
      <trkpt lat="49.3907" lon="0.1402">
        <ele>105.7</ele>
        <time>2020-06-17T14:50:46Z</time>
      </trkpt>
      <trkpt lat="49.39076" lon="0.1403">
        <ele>105.1</ele>
        <time>2020-06-17T14:50:47Z</time>
      </trkpt>
      <trkpt lat="49.39083" lon="0.1404">
        <ele>104.5</ele>
        <time>2020-06-17T14:50:48Z</time>
      </trkpt>
      <trkpt lat="49.3909" lon="0.1405">
        <ele>103.8</ele>
        <time>2020-06-17T14:50:49Z</time>
      </trkpt>
      <trkpt lat="49.39098" lon="0.1406">
        <ele>103.1</ele>
        <time>2020-06-17T14:50:50Z</time>
      </trkpt>
      <trkpt lat="49.39105" lon="0.1407">
        <ele>102.3</ele>
        <time>2020-06-17T14:50:51Z</time>
      </trkpt>
      <trkpt lat="49.3911" lon="0.1408">
        <ele>101.7</ele>
        <time>2020-06-17T14:50:52Z</time>
      </trkpt>
      <trkpt lat="49.39115" lon="0.14093">
        <ele>101</ele>
        <time>2020-06-17T14:50:53Z</time>
      </trkpt>
      <trkpt lat="49.39121" lon="0.14105">
        <ele>100.3</ele>
        <time>2020-06-17T14:50:54Z</time>
      </trkpt>
      <trkpt lat="49.39127" lon="0.14118">
        <ele>99.6</ele>
        <time>2020-06-17T14:50:55Z</time>
      </trkpt>
      <trkpt lat="49.39131" lon="0.14131">
        <ele>99</ele>
        <time>2020-06-17T14:50:56Z</time>
      </trkpt>
      <trkpt lat="49.39136" lon="0.14145">
        <ele>98.4</ele>
        <time>2020-06-17T14:50:57Z</time>
      </trkpt>
      <trkpt lat="49.39141" lon="0.14159">
        <ele>97.8</ele>
        <time>2020-06-17T14:50:58Z</time>
      </trkpt>
      <trkpt lat="49.39146" lon="0.14174">
        <ele>97.1</ele>
        <time>2020-06-17T14:50:59Z</time>
      </trkpt>
      <trkpt lat="49.39151" lon="0.14191">
        <ele>96.4</ele>
        <time>2020-06-17T14:51:00Z</time>
      </trkpt>
      <trkpt lat="49.39153" lon="0.14205">
        <ele>95.8</ele>
        <time>2020-06-17T14:51:01Z</time>
      </trkpt>
      <trkpt lat="49.39156" lon="0.14218">
        <ele>95.2</ele>
        <time>2020-06-17T14:51:02Z</time>
      </trkpt>
      <trkpt lat="49.39161" lon="0.1423">
        <ele>94.6</ele>
        <time>2020-06-17T14:51:03Z</time>
      </trkpt>
      <trkpt lat="49.39166" lon="0.14239">
        <ele>94</ele>
        <time>2020-06-17T14:51:04Z</time>
      </trkpt>
      <trkpt lat="49.39172" lon="0.14248">
        <ele>93.4</ele>
        <time>2020-06-17T14:51:05Z</time>
      </trkpt>
      <trkpt lat="49.39178" lon="0.14255">
        <ele>92.9</ele>
        <time>2020-06-17T14:51:06Z</time>
      </trkpt>
      <trkpt lat="49.39183" lon="0.14263">
        <ele>92.5</ele>
        <time>2020-06-17T14:51:07Z</time>
      </trkpt>
      <trkpt lat="49.39188" lon="0.14272">
        <ele>92</ele>
        <time>2020-06-17T14:51:08Z</time>
      </trkpt>
      <trkpt lat="49.39194" lon="0.14282">
        <ele>91.5</ele>
        <time>2020-06-17T14:51:09Z</time>
      </trkpt>
      <trkpt lat="49.39202" lon="0.14293">
        <ele>90.9</ele>
        <time>2020-06-17T14:51:10Z</time>
      </trkpt>
      <trkpt lat="49.3921" lon="0.14301">
        <ele>90.3</ele>
        <time>2020-06-17T14:51:11Z</time>
      </trkpt>
      <trkpt lat="49.39217" lon="0.14309">
        <ele>89.7</ele>
        <time>2020-06-17T14:51:12Z</time>
      </trkpt>
      <trkpt lat="49.39225" lon="0.14318">
        <ele>89</ele>
        <time>2020-06-17T14:51:13Z</time>
      </trkpt>
      <trkpt lat="49.39232" lon="0.14325">
        <ele>88.4</ele>
        <time>2020-06-17T14:51:14Z</time>
      </trkpt>
      <trkpt lat="49.3924" lon="0.14334">
        <ele>87.7</ele>
        <time>2020-06-17T14:51:15Z</time>
      </trkpt>
      <trkpt lat="49.39248" lon="0.14342">
        <ele>87.1</ele>
        <time>2020-06-17T14:51:16Z</time>
      </trkpt>
      <trkpt lat="49.39256" lon="0.14353">
        <ele>86.4</ele>
        <time>2020-06-17T14:51:17Z</time>
      </trkpt>
      <trkpt lat="49.39265" lon="0.14361">
        <ele>85.8</ele>
        <time>2020-06-17T14:51:18Z</time>
      </trkpt>
      <trkpt lat="49.39273" lon="0.14368">
        <ele>85.3</ele>
        <time>2020-06-17T14:51:19Z</time>
      </trkpt>
      <trkpt lat="49.39281" lon="0.14377">
        <ele>84.8</ele>
        <time>2020-06-17T14:51:20Z</time>
      </trkpt>
      <trkpt lat="49.39291" lon="0.14386">
        <ele>84.2</ele>
        <time>2020-06-17T14:51:21Z</time>
      </trkpt>
      <trkpt lat="49.39301" lon="0.14397">
        <ele>83.5</ele>
        <time>2020-06-17T14:51:22Z</time>
      </trkpt>
      <trkpt lat="49.3931" lon="0.14406">
        <ele>82.9</ele>
        <time>2020-06-17T14:51:23Z</time>
      </trkpt>
      <trkpt lat="49.39319" lon="0.14413">
        <ele>82.4</ele>
        <time>2020-06-17T14:51:24Z</time>
      </trkpt>
      <trkpt lat="49.39325" lon="0.14422">
        <ele>81.9</ele>
        <time>2020-06-17T14:51:25Z</time>
      </trkpt>
      <trkpt lat="49.39333" lon="0.14431">
        <ele>81.2</ele>
        <time>2020-06-17T14:51:26Z</time>
      </trkpt>
      <trkpt lat="49.39342" lon="0.14441">
        <ele>80.4</ele>
        <time>2020-06-17T14:51:27Z</time>
      </trkpt>
      <trkpt lat="49.39351" lon="0.14453">
        <ele>79.5</ele>
        <time>2020-06-17T14:51:28Z</time>
      </trkpt>
      <trkpt lat="49.3936" lon="0.14464">
        <ele>78.5</ele>
        <time>2020-06-17T14:51:29Z</time>
      </trkpt>
      <trkpt lat="49.39369" lon="0.14473">
        <ele>77.7</ele>
        <time>2020-06-17T14:51:30Z</time>
      </trkpt>
      <trkpt lat="49.39378" lon="0.14481">
        <ele>77</ele>
        <time>2020-06-17T14:51:31Z</time>
      </trkpt>
      <trkpt lat="49.39387" lon="0.14488">
        <ele>76.3</ele>
        <time>2020-06-17T14:51:32Z</time>
      </trkpt>
      <trkpt lat="49.39396" lon="0.14494">
        <ele>75.6</ele>
        <time>2020-06-17T14:51:33Z</time>
      </trkpt>
      <trkpt lat="49.39406" lon="0.145">
        <ele>74.9</ele>
        <time>2020-06-17T14:51:34Z</time>
      </trkpt>
      <trkpt lat="49.39415" lon="0.14505">
        <ele>74.1</ele>
        <time>2020-06-17T14:51:35Z</time>
      </trkpt>
      <trkpt lat="49.39425" lon="0.1451">
        <ele>73.4</ele>
        <time>2020-06-17T14:51:36Z</time>
      </trkpt>
      <trkpt lat="49.39436" lon="0.14516">
        <ele>72.5</ele>
        <time>2020-06-17T14:51:37Z</time>
      </trkpt>
      <trkpt lat="49.39446" lon="0.14522">
        <ele>71.6</ele>
        <time>2020-06-17T14:51:38Z</time>
      </trkpt>
      <trkpt lat="49.39456" lon="0.14528">
        <ele>70.9</ele>
        <time>2020-06-17T14:51:39Z</time>
      </trkpt>
      <trkpt lat="49.39466" lon="0.14535">
        <ele>70</ele>
        <time>2020-06-17T14:51:40Z</time>
      </trkpt>
      <trkpt lat="49.39475" lon="0.14544">
        <ele>69.2</ele>
        <time>2020-06-17T14:51:41Z</time>
      </trkpt>
      <trkpt lat="49.39485" lon="0.14557">
        <ele>68.5</ele>
        <time>2020-06-17T14:51:42Z</time>
      </trkpt>
      <trkpt lat="49.39494" lon="0.14568">
        <ele>68</ele>
        <time>2020-06-17T14:51:43Z</time>
      </trkpt>
      <trkpt lat="49.39502" lon="0.14578">
        <ele>67.7</ele>
        <time>2020-06-17T14:51:44Z</time>
      </trkpt>
      <trkpt lat="49.3951" lon="0.1459">
        <ele>67.6</ele>
        <time>2020-06-17T14:51:45Z</time>
      </trkpt>
      <trkpt lat="49.39518" lon="0.14602">
        <ele>67.6</ele>
        <time>2020-06-17T14:51:46Z</time>
      </trkpt>
      <trkpt lat="49.39527" lon="0.14617">
        <ele>67.2</ele>
        <time>2020-06-17T14:51:47Z</time>
      </trkpt>
      <trkpt lat="49.39535" lon="0.1463">
        <ele>66.6</ele>
        <time>2020-06-17T14:51:48Z</time>
      </trkpt>
      <trkpt lat="49.39543" lon="0.14642">
        <ele>66.1</ele>
        <time>2020-06-17T14:51:49Z</time>
      </trkpt>
      <trkpt lat="49.3955" lon="0.14655">
        <ele>65.6</ele>
        <time>2020-06-17T14:51:50Z</time>
      </trkpt>
      <trkpt lat="49.39557" lon="0.14666">
        <ele>65.2</ele>
        <time>2020-06-17T14:51:51Z</time>
      </trkpt>
      <trkpt lat="49.39565" lon="0.14678">
        <ele>64.8</ele>
        <time>2020-06-17T14:51:52Z</time>
      </trkpt>
      <trkpt lat="49.39573" lon="0.14689">
        <ele>64.5</ele>
        <time>2020-06-17T14:51:53Z</time>
      </trkpt>
      <trkpt lat="49.3958" lon="0.14697">
        <ele>64.2</ele>
        <time>2020-06-17T14:51:54Z</time>
      </trkpt>
      <trkpt lat="49.39587" lon="0.14708">
        <ele>63.9</ele>
        <time>2020-06-17T14:51:55Z</time>
      </trkpt>
      <trkpt lat="49.39594" lon="0.14715">
        <ele>63.6</ele>
        <time>2020-06-17T14:51:56Z</time>
      </trkpt>
      <trkpt lat="49.39601" lon="0.14725">
        <ele>63.3</ele>
        <time>2020-06-17T14:51:57Z</time>
      </trkpt>
      <trkpt lat="49.39607" lon="0.14733">
        <ele>62.9</ele>
        <time>2020-06-17T14:51:58Z</time>
      </trkpt>
      <trkpt lat="49.39614" lon="0.14743">
        <ele>62.4</ele>
        <time>2020-06-17T14:51:59Z</time>
      </trkpt>
      <trkpt lat="49.39622" lon="0.14754">
        <ele>61.8</ele>
        <time>2020-06-17T14:52:00Z</time>
      </trkpt>
      <trkpt lat="49.39629" lon="0.14765">
        <ele>61.3</ele>
        <time>2020-06-17T14:52:01Z</time>
      </trkpt>
      <trkpt lat="49.39637" lon="0.14778">
        <ele>60.6</ele>
        <time>2020-06-17T14:52:02Z</time>
      </trkpt>
      <trkpt lat="49.39644" lon="0.14789">
        <ele>60</ele>
        <time>2020-06-17T14:52:03Z</time>
      </trkpt>
      <trkpt lat="49.39652" lon="0.148">
        <ele>59.4</ele>
        <time>2020-06-17T14:52:04Z</time>
      </trkpt>
      <trkpt lat="49.39659" lon="0.1481">
        <ele>58.7</ele>
        <time>2020-06-17T14:52:05Z</time>
      </trkpt>
      <trkpt lat="49.39668" lon="0.14821">
        <ele>58.1</ele>
        <time>2020-06-17T14:52:06Z</time>
      </trkpt>
      <trkpt lat="49.39677" lon="0.14831">
        <ele>57.4</ele>
        <time>2020-06-17T14:52:07Z</time>
      </trkpt>
      <trkpt lat="49.39685" lon="0.14844">
        <ele>56.7</ele>
        <time>2020-06-17T14:52:08Z</time>
      </trkpt>
      <trkpt lat="49.39693" lon="0.14855">
        <ele>55.9</ele>
        <time>2020-06-17T14:52:09Z</time>
      </trkpt>
      <trkpt lat="49.39701" lon="0.14865">
        <ele>55.3</ele>
        <time>2020-06-17T14:52:10Z</time>
      </trkpt>
      <trkpt lat="49.39709" lon="0.14876">
        <ele>54.5</ele>
        <time>2020-06-17T14:52:11Z</time>
      </trkpt>
      <trkpt lat="49.39718" lon="0.14888">
        <ele>53.7</ele>
        <time>2020-06-17T14:52:12Z</time>
      </trkpt>
      <trkpt lat="49.39726" lon="0.14902">
        <ele>52.9</ele>
        <time>2020-06-17T14:52:13Z</time>
      </trkpt>
      <trkpt lat="49.39735" lon="0.14915">
        <ele>52.2</ele>
        <time>2020-06-17T14:52:14Z</time>
      </trkpt>
      <trkpt lat="49.39743" lon="0.14927">
        <ele>51.5</ele>
        <time>2020-06-17T14:52:15Z</time>
      </trkpt>
      <trkpt lat="49.3975" lon="0.1494">
        <ele>50.8</ele>
        <time>2020-06-17T14:52:16Z</time>
      </trkpt>
      <trkpt lat="49.39759" lon="0.14954">
        <ele>50</ele>
        <time>2020-06-17T14:52:17Z</time>
      </trkpt>
      <trkpt lat="49.39766" lon="0.14967">
        <ele>49.4</ele>
        <time>2020-06-17T14:52:18Z</time>
      </trkpt>
      <trkpt lat="49.39774" lon="0.14982">
        <ele>48.8</ele>
        <time>2020-06-17T14:52:19Z</time>
      </trkpt>
      <trkpt lat="49.39783" lon="0.14996">
        <ele>48.1</ele>
        <time>2020-06-17T14:52:20Z</time>
      </trkpt>
      <trkpt lat="49.3979" lon="0.15009">
        <ele>47.5</ele>
        <time>2020-06-17T14:52:21Z</time>
      </trkpt>
      <trkpt lat="49.39798" lon="0.1502">
        <ele>46.9</ele>
        <time>2020-06-17T14:52:22Z</time>
      </trkpt>
      <trkpt lat="49.39807" lon="0.15032">
        <ele>46.2</ele>
        <time>2020-06-17T14:52:23Z</time>
      </trkpt>
      <trkpt lat="49.39815" lon="0.15044">
        <ele>45.4</ele>
        <time>2020-06-17T14:52:24Z</time>
      </trkpt>
      <trkpt lat="49.39822" lon="0.15055">
        <ele>44.8</ele>
        <time>2020-06-17T14:52:25Z</time>
      </trkpt>
      <trkpt lat="49.3983" lon="0.15066">
        <ele>44.2</ele>
        <time>2020-06-17T14:52:26Z</time>
      </trkpt>
      <trkpt lat="49.39839" lon="0.15078">
        <ele>43.5</ele>
        <time>2020-06-17T14:52:27Z</time>
      </trkpt>
      <trkpt lat="49.39847" lon="0.15088">
        <ele>42.8</ele>
        <time>2020-06-17T14:52:28Z</time>
      </trkpt>
      <trkpt lat="49.39856" lon="0.151">
        <ele>42.5</ele>
        <time>2020-06-17T14:52:29Z</time>
      </trkpt>
      <trkpt lat="49.39865" lon="0.15112">
        <ele>41.7</ele>
        <time>2020-06-17T14:52:30Z</time>
      </trkpt>
      <trkpt lat="49.39873" lon="0.15124">
        <ele>40.3</ele>
        <time>2020-06-17T14:52:31Z</time>
      </trkpt>
      <trkpt lat="49.39882" lon="0.15136">
        <ele>39.1</ele>
        <time>2020-06-17T14:52:32Z</time>
      </trkpt>
      <trkpt lat="49.3989" lon="0.15146">
        <ele>38</ele>
        <time>2020-06-17T14:52:33Z</time>
      </trkpt>
      <trkpt lat="49.39898" lon="0.15159">
        <ele>37</ele>
        <time>2020-06-17T14:52:34Z</time>
      </trkpt>
      <trkpt lat="49.39906" lon="0.15171">
        <ele>36.2</ele>
        <time>2020-06-17T14:52:35Z</time>
      </trkpt>
      <trkpt lat="49.39913" lon="0.15183">
        <ele>35.3</ele>
        <time>2020-06-17T14:52:36Z</time>
      </trkpt>
      <trkpt lat="49.39921" lon="0.15195">
        <ele>34.6</ele>
        <time>2020-06-17T14:52:37Z</time>
      </trkpt>
      <trkpt lat="49.39929" lon="0.15207">
        <ele>33.8</ele>
        <time>2020-06-17T14:52:38Z</time>
      </trkpt>
      <trkpt lat="49.39937" lon="0.15217">
        <ele>33.1</ele>
        <time>2020-06-17T14:52:39Z</time>
      </trkpt>
      <trkpt lat="49.39945" lon="0.15227">
        <ele>32.4</ele>
        <time>2020-06-17T14:52:40Z</time>
      </trkpt>
      <trkpt lat="49.39953" lon="0.15239">
        <ele>31.7</ele>
        <time>2020-06-17T14:52:41Z</time>
      </trkpt>
      <trkpt lat="49.3996" lon="0.15249">
        <ele>31</ele>
        <time>2020-06-17T14:52:42Z</time>
      </trkpt>
      <trkpt lat="49.39968" lon="0.1526">
        <ele>30.4</ele>
        <time>2020-06-17T14:52:43Z</time>
      </trkpt>
      <trkpt lat="49.39975" lon="0.15272">
        <ele>29.7</ele>
        <time>2020-06-17T14:52:44Z</time>
      </trkpt>
      <trkpt lat="49.39982" lon="0.15283">
        <ele>29</ele>
        <time>2020-06-17T14:52:45Z</time>
      </trkpt>
      <trkpt lat="49.3999" lon="0.15295">
        <ele>28.1</ele>
        <time>2020-06-17T14:52:46Z</time>
      </trkpt>
      <trkpt lat="49.39999" lon="0.15307">
        <ele>27.3</ele>
        <time>2020-06-17T14:52:47Z</time>
      </trkpt>
      <trkpt lat="49.40008" lon="0.15318">
        <ele>26.5</ele>
        <time>2020-06-17T14:52:48Z</time>
      </trkpt>
      <trkpt lat="49.40017" lon="0.15331">
        <ele>25.6</ele>
        <time>2020-06-17T14:52:49Z</time>
      </trkpt>
      <trkpt lat="49.40026" lon="0.15344">
        <ele>24.8</ele>
        <time>2020-06-17T14:52:50Z</time>
      </trkpt>
      <trkpt lat="49.40035" lon="0.15357">
        <ele>24</ele>
        <time>2020-06-17T14:52:51Z</time>
      </trkpt>
      <trkpt lat="49.40044" lon="0.1537">
        <ele>23.2</ele>
        <time>2020-06-17T14:52:52Z</time>
      </trkpt>
      <trkpt lat="49.40052" lon="0.15382">
        <ele>22.4</ele>
        <time>2020-06-17T14:52:53Z</time>
      </trkpt>
      <trkpt lat="49.4006" lon="0.15393">
        <ele>21.8</ele>
        <time>2020-06-17T14:52:54Z</time>
      </trkpt>
      <trkpt lat="49.40068" lon="0.15404">
        <ele>21.1</ele>
        <time>2020-06-17T14:52:55Z</time>
      </trkpt>
      <trkpt lat="49.40076" lon="0.15415">
        <ele>20.4</ele>
        <time>2020-06-17T14:52:56Z</time>
      </trkpt>
      <trkpt lat="49.40083" lon="0.15425">
        <ele>19.8</ele>
        <time>2020-06-17T14:52:57Z</time>
      </trkpt>
      <trkpt lat="49.40089" lon="0.15434">
        <ele>19.3</ele>
        <time>2020-06-17T14:52:58Z</time>
      </trkpt>
      <trkpt lat="49.40095" lon="0.15444">
        <ele>18.9</ele>
        <time>2020-06-17T14:52:59Z</time>
      </trkpt>
      <trkpt lat="49.40101" lon="0.15455">
        <ele>18.4</ele>
        <time>2020-06-17T14:53:00Z</time>
      </trkpt>
      <trkpt lat="49.40108" lon="0.15467">
        <ele>18</ele>
        <time>2020-06-17T14:53:01Z</time>
      </trkpt>
      <trkpt lat="49.40114" lon="0.15482">
        <ele>17.5</ele>
        <time>2020-06-17T14:53:02Z</time>
      </trkpt>
      <trkpt lat="49.4012" lon="0.15494">
        <ele>17.2</ele>
        <time>2020-06-17T14:53:03Z</time>
      </trkpt>
      <trkpt lat="49.40125" lon="0.15505">
        <ele>17.2</ele>
        <time>2020-06-17T14:53:04Z</time>
      </trkpt>
      <trkpt lat="49.40129" lon="0.15516">
        <ele>17</ele>
        <time>2020-06-17T14:53:05Z</time>
      </trkpt>
      <trkpt lat="49.40131" lon="0.15524">
        <ele>16.9</ele>
        <time>2020-06-17T14:53:06Z</time>
      </trkpt>
      <trkpt lat="49.40135" lon="0.15531">
        <ele>16.7</ele>
        <time>2020-06-17T14:53:07Z</time>
      </trkpt>
      <trkpt lat="49.40138" lon="0.15538">
        <ele>16.7</ele>
        <time>2020-06-17T14:53:08Z</time>
      </trkpt>
      <trkpt lat="49.40141" lon="0.15546">
        <ele>16.7</ele>
        <time>2020-06-17T14:53:09Z</time>
      </trkpt>
      <trkpt lat="49.40143" lon="0.15554">
        <ele>16.7</ele>
        <time>2020-06-17T14:53:10Z</time>
      </trkpt>
      <trkpt lat="49.40144" lon="0.15561">
        <ele>16.7</ele>
        <time>2020-06-17T14:53:11Z</time>
      </trkpt>
      <trkpt lat="49.40146" lon="0.1557">
        <ele>16.7</ele>
        <time>2020-06-17T14:53:12Z</time>
      </trkpt>
      <trkpt lat="49.40148" lon="0.15578">
        <ele>16.8</ele>
        <time>2020-06-17T14:53:13Z</time>
      </trkpt>
      <trkpt lat="49.4015" lon="0.15586">
        <ele>16.8</ele>
        <time>2020-06-17T14:53:14Z</time>
      </trkpt>
      <trkpt lat="49.40152" lon="0.15591">
        <ele>16.8</ele>
        <time>2020-06-17T14:53:15Z</time>
      </trkpt>
      <trkpt lat="49.40154" lon="0.15599">
        <ele>16.8</ele>
        <time>2020-06-17T14:53:16Z</time>
      </trkpt>
      <trkpt lat="49.40156" lon="0.1561">
        <ele>16.9</ele>
        <time>2020-06-17T14:53:17Z</time>
      </trkpt>
      <trkpt lat="49.40158" lon="0.15618">
        <ele>16.9</ele>
        <time>2020-06-17T14:53:18Z</time>
      </trkpt>
      <trkpt lat="49.4016" lon="0.15626">
        <ele>17</ele>
        <time>2020-06-17T14:53:19Z</time>
      </trkpt>
      <trkpt lat="49.40161" lon="0.15634">
        <ele>17.1</ele>
        <time>2020-06-17T14:53:20Z</time>
      </trkpt>
      <trkpt lat="49.40162" lon="0.15641">
        <ele>17.2</ele>
        <time>2020-06-17T14:53:21Z</time>
      </trkpt>
      <trkpt lat="49.40164" lon="0.1565">
        <ele>17.3</ele>
        <time>2020-06-17T14:53:22Z</time>
      </trkpt>
      <trkpt lat="49.40166" lon="0.15656">
        <ele>17.4</ele>
        <time>2020-06-17T14:53:23Z</time>
      </trkpt>
      <trkpt lat="49.40168" lon="0.15664">
        <ele>17.5</ele>
        <time>2020-06-17T14:53:24Z</time>
      </trkpt>
      <trkpt lat="49.4017" lon="0.15672">
        <ele>17.6</ele>
        <time>2020-06-17T14:53:25Z</time>
      </trkpt>
      <trkpt lat="49.40171" lon="0.15678">
        <ele>17.7</ele>
        <time>2020-06-17T14:53:26Z</time>
      </trkpt>
      <trkpt lat="49.40173" lon="0.15687">
        <ele>17.8</ele>
        <time>2020-06-17T14:53:27Z</time>
      </trkpt>
      <trkpt lat="49.40173" lon="0.15697">
        <ele>17.9</ele>
        <time>2020-06-17T14:53:28Z</time>
      </trkpt>
      <trkpt lat="49.40174" lon="0.15709">
        <ele>18</ele>
        <time>2020-06-17T14:53:29Z</time>
      </trkpt>
      <trkpt lat="49.40175" lon="0.15715">
        <ele>18</ele>
        <time>2020-06-17T14:53:30Z</time>
      </trkpt>
      <trkpt lat="49.40178" lon="0.15725">
        <ele>18.1</ele>
        <time>2020-06-17T14:53:31Z</time>
      </trkpt>
      <trkpt lat="49.4018" lon="0.15734">
        <ele>18.2</ele>
        <time>2020-06-17T14:53:32Z</time>
      </trkpt>
      <trkpt lat="49.40182" lon="0.1574">
        <ele>18.3</ele>
        <time>2020-06-17T14:53:33Z</time>
      </trkpt>
      <trkpt lat="49.40184" lon="0.15749">
        <ele>18.3</ele>
        <time>2020-06-17T14:53:34Z</time>
      </trkpt>
      <trkpt lat="49.40186" lon="0.15758">
        <ele>18.4</ele>
        <time>2020-06-17T14:53:35Z</time>
      </trkpt>
      <trkpt lat="49.40187" lon="0.15768">
        <ele>18.4</ele>
        <time>2020-06-17T14:53:36Z</time>
      </trkpt>
      <trkpt lat="49.40189" lon="0.15777">
        <ele>18.5</ele>
        <time>2020-06-17T14:53:37Z</time>
      </trkpt>
      <trkpt lat="49.40191" lon="0.15786">
        <ele>18.7</ele>
        <time>2020-06-17T14:53:38Z</time>
      </trkpt>
      <trkpt lat="49.40192" lon="0.15795">
        <ele>18.7</ele>
        <time>2020-06-17T14:53:39Z</time>
      </trkpt>
      <trkpt lat="49.40194" lon="0.15802">
        <ele>18.8</ele>
        <time>2020-06-17T14:53:40Z</time>
      </trkpt>
      <trkpt lat="49.40195" lon="0.15811">
        <ele>18.8</ele>
        <time>2020-06-17T14:53:41Z</time>
      </trkpt>
      <trkpt lat="49.40195" lon="0.15818">
        <ele>18.8</ele>
        <time>2020-06-17T14:53:42Z</time>
      </trkpt>
      <trkpt lat="49.40198" lon="0.15826">
        <ele>18.9</ele>
        <time>2020-06-17T14:53:43Z</time>
      </trkpt>
      <trkpt lat="49.402" lon="0.15833">
        <ele>18.9</ele>
        <time>2020-06-17T14:53:44Z</time>
      </trkpt>
      <trkpt lat="49.40202" lon="0.15841">
        <ele>18.9</ele>
        <time>2020-06-17T14:53:45Z</time>
      </trkpt>
      <trkpt lat="49.40205" lon="0.15849">
        <ele>18.9</ele>
        <time>2020-06-17T14:53:46Z</time>
      </trkpt>
      <trkpt lat="49.40208" lon="0.15858">
        <ele>18.8</ele>
        <time>2020-06-17T14:53:47Z</time>
      </trkpt>
      <trkpt lat="49.4021" lon="0.15867">
        <ele>18.7</ele>
        <time>2020-06-17T14:53:48Z</time>
      </trkpt>
      <trkpt lat="49.40211" lon="0.15876">
        <ele>18.7</ele>
        <time>2020-06-17T14:53:49Z</time>
      </trkpt>
      <trkpt lat="49.40213" lon="0.15886">
        <ele>18.6</ele>
        <time>2020-06-17T14:53:50Z</time>
      </trkpt>
      <trkpt lat="49.40214" lon="0.15897">
        <ele>18.5</ele>
        <time>2020-06-17T14:53:51Z</time>
      </trkpt>
      <trkpt lat="49.40216" lon="0.15907">
        <ele>18.4</ele>
        <time>2020-06-17T14:53:52Z</time>
      </trkpt>
      <trkpt lat="49.40218" lon="0.15916">
        <ele>18.3</ele>
        <time>2020-06-17T14:53:53Z</time>
      </trkpt>
      <trkpt lat="49.4022" lon="0.15925">
        <ele>18.1</ele>
        <time>2020-06-17T14:53:54Z</time>
      </trkpt>
      <trkpt lat="49.40223" lon="0.15934">
        <ele>18</ele>
        <time>2020-06-17T14:53:55Z</time>
      </trkpt>
      <trkpt lat="49.40225" lon="0.15941">
        <ele>17.9</ele>
        <time>2020-06-17T14:53:56Z</time>
      </trkpt>
      <trkpt lat="49.40227" lon="0.15948">
        <ele>17.8</ele>
        <time>2020-06-17T14:53:57Z</time>
      </trkpt>
      <trkpt lat="49.4023" lon="0.15956">
        <ele>17.6</ele>
        <time>2020-06-17T14:53:58Z</time>
      </trkpt>
      <trkpt lat="49.40233" lon="0.15964">
        <ele>17.5</ele>
        <time>2020-06-17T14:53:59Z</time>
      </trkpt>
      <trkpt lat="49.40237" lon="0.15973">
        <ele>17.4</ele>
        <time>2020-06-17T14:54:00Z</time>
      </trkpt>
      <trkpt lat="49.40241" lon="0.15982">
        <ele>17.2</ele>
        <time>2020-06-17T14:54:01Z</time>
      </trkpt>
      <trkpt lat="49.40245" lon="0.15992">
        <ele>17.1</ele>
        <time>2020-06-17T14:54:02Z</time>
      </trkpt>
      <trkpt lat="49.40249" lon="0.16001">
        <ele>17</ele>
        <time>2020-06-17T14:54:03Z</time>
      </trkpt>
      <trkpt lat="49.40252" lon="0.1601">
        <ele>17</ele>
        <time>2020-06-17T14:54:04Z</time>
      </trkpt>
      <trkpt lat="49.40255" lon="0.16021">
        <ele>17</ele>
        <time>2020-06-17T14:54:05Z</time>
      </trkpt>
      <trkpt lat="49.40259" lon="0.1603">
        <ele>16.9</ele>
        <time>2020-06-17T14:54:06Z</time>
      </trkpt>
      <trkpt lat="49.40262" lon="0.16039">
        <ele>16.9</ele>
        <time>2020-06-17T14:54:07Z</time>
      </trkpt>
      <trkpt lat="49.40266" lon="0.16047">
        <ele>16.9</ele>
        <time>2020-06-17T14:54:08Z</time>
      </trkpt>
      <trkpt lat="49.40269" lon="0.16058">
        <ele>16.8</ele>
        <time>2020-06-17T14:54:09Z</time>
      </trkpt>
      <trkpt lat="49.40273" lon="0.16068">
        <ele>16.8</ele>
        <time>2020-06-17T14:54:10Z</time>
      </trkpt>
      <trkpt lat="49.40278" lon="0.1608">
        <ele>16.8</ele>
        <time>2020-06-17T14:54:11Z</time>
      </trkpt>
      <trkpt lat="49.40282" lon="0.16089">
        <ele>16.8</ele>
        <time>2020-06-17T14:54:12Z</time>
      </trkpt>
      <trkpt lat="49.40286" lon="0.16098">
        <ele>16.9</ele>
        <time>2020-06-17T14:54:13Z</time>
      </trkpt>
      <trkpt lat="49.40291" lon="0.16109">
        <ele>17</ele>
        <time>2020-06-17T14:54:14Z</time>
      </trkpt>
      <trkpt lat="49.40294" lon="0.16119">
        <ele>17</ele>
        <time>2020-06-17T14:54:15Z</time>
      </trkpt>
      <trkpt lat="49.40299" lon="0.16129">
        <ele>17.1</ele>
        <time>2020-06-17T14:54:16Z</time>
      </trkpt>
      <trkpt lat="49.40302" lon="0.16138">
        <ele>17.2</ele>
        <time>2020-06-17T14:54:17Z</time>
      </trkpt>
      <trkpt lat="49.40305" lon="0.16147">
        <ele>17.2</ele>
        <time>2020-06-17T14:54:18Z</time>
      </trkpt>
      <trkpt lat="49.40308" lon="0.16155">
        <ele>17.3</ele>
        <time>2020-06-17T14:54:19Z</time>
      </trkpt>
      <trkpt lat="49.40312" lon="0.16164">
        <ele>17.3</ele>
        <time>2020-06-17T14:54:20Z</time>
      </trkpt>
      <trkpt lat="49.40315" lon="0.16172">
        <ele>17.4</ele>
        <time>2020-06-17T14:54:21Z</time>
      </trkpt>
      <trkpt lat="49.40319" lon="0.1618">
        <ele>17.4</ele>
        <time>2020-06-17T14:54:22Z</time>
      </trkpt>
      <trkpt lat="49.40323" lon="0.1619">
        <ele>17.4</ele>
        <time>2020-06-17T14:54:23Z</time>
      </trkpt>
      <trkpt lat="49.40327" lon="0.162">
        <ele>17.4</ele>
        <time>2020-06-17T14:54:24Z</time>
      </trkpt>
      <trkpt lat="49.4033" lon="0.16208">
        <ele>17.5</ele>
        <time>2020-06-17T14:54:25Z</time>
      </trkpt>
      <trkpt lat="49.40334" lon="0.16216">
        <ele>17.5</ele>
        <time>2020-06-17T14:54:26Z</time>
      </trkpt>
      <trkpt lat="49.40339" lon="0.16224">
        <ele>17.6</ele>
        <time>2020-06-17T14:54:27Z</time>
      </trkpt>
      <trkpt lat="49.40342" lon="0.16231">
        <ele>17.7</ele>
        <time>2020-06-17T14:54:28Z</time>
      </trkpt>
      <trkpt lat="49.40346" lon="0.16237">
        <ele>17.7</ele>
        <time>2020-06-17T14:54:29Z</time>
      </trkpt>
      <trkpt lat="49.40349" lon="0.16244">
        <ele>17.7</ele>
        <time>2020-06-17T14:54:30Z</time>
      </trkpt>
      <trkpt lat="49.40352" lon="0.16251">
        <ele>17.7</ele>
        <time>2020-06-17T14:54:31Z</time>
      </trkpt>
      <trkpt lat="49.40354" lon="0.16258">
        <ele>17.7</ele>
        <time>2020-06-17T14:54:32Z</time>
      </trkpt>
      <trkpt lat="49.40357" lon="0.16266">
        <ele>17.8</ele>
        <time>2020-06-17T14:54:33Z</time>
      </trkpt>
      <trkpt lat="49.4036" lon="0.16273">
        <ele>17.8</ele>
        <time>2020-06-17T14:54:34Z</time>
      </trkpt>
      <trkpt lat="49.40364" lon="0.1628">
        <ele>17.8</ele>
        <time>2020-06-17T14:54:35Z</time>
      </trkpt>
      <trkpt lat="49.40368" lon="0.16288">
        <ele>17.8</ele>
        <time>2020-06-17T14:54:36Z</time>
      </trkpt>
      <trkpt lat="49.40371" lon="0.16296">
        <ele>17.8</ele>
        <time>2020-06-17T14:54:37Z</time>
      </trkpt>
      <trkpt lat="49.40374" lon="0.16302">
        <ele>17.8</ele>
        <time>2020-06-17T14:54:38Z</time>
      </trkpt>
      <trkpt lat="49.40376" lon="0.1631">
        <ele>17.8</ele>
        <time>2020-06-17T14:54:39Z</time>
      </trkpt>
      <trkpt lat="49.4038" lon="0.16318">
        <ele>17.9</ele>
        <time>2020-06-17T14:54:40Z</time>
      </trkpt>
      <trkpt lat="49.40384" lon="0.16327">
        <ele>17.9</ele>
        <time>2020-06-17T14:54:41Z</time>
      </trkpt>
      <trkpt lat="49.40387" lon="0.16335">
        <ele>17.9</ele>
        <time>2020-06-17T14:54:42Z</time>
      </trkpt>
      <trkpt lat="49.40389" lon="0.16346">
        <ele>17.9</ele>
        <time>2020-06-17T14:54:43Z</time>
      </trkpt>
      <trkpt lat="49.4039" lon="0.16354">
        <ele>17.9</ele>
        <time>2020-06-17T14:54:44Z</time>
      </trkpt>
      <trkpt lat="49.40391" lon="0.16362">
        <ele>17.9</ele>
        <time>2020-06-17T14:54:45Z</time>
      </trkpt>
      <trkpt lat="49.40393" lon="0.16371">
        <ele>17.9</ele>
        <time>2020-06-17T14:54:46Z</time>
      </trkpt>
      <trkpt lat="49.40396" lon="0.16378">
        <ele>17.9</ele>
        <time>2020-06-17T14:54:47Z</time>
      </trkpt>
      <trkpt lat="49.40398" lon="0.16388">
        <ele>17.9</ele>
        <time>2020-06-17T14:54:48Z</time>
      </trkpt>
      <trkpt lat="49.40399" lon="0.16396">
        <ele>17.9</ele>
        <time>2020-06-17T14:54:49Z</time>
      </trkpt>
      <trkpt lat="49.40401" lon="0.16405">
        <ele>17.9</ele>
        <time>2020-06-17T14:54:50Z</time>
      </trkpt>
      <trkpt lat="49.40403" lon="0.16413">
        <ele>17.9</ele>
        <time>2020-06-17T14:54:51Z</time>
      </trkpt>
      <trkpt lat="49.40405" lon="0.1642">
        <ele>17.9</ele>
        <time>2020-06-17T14:54:52Z</time>
      </trkpt>
      <trkpt lat="49.40407" lon="0.16427">
        <ele>17.9</ele>
        <time>2020-06-17T14:54:53Z</time>
      </trkpt>
      <trkpt lat="49.4041" lon="0.16433">
        <ele>17.9</ele>
        <time>2020-06-17T14:54:54Z</time>
      </trkpt>
      <trkpt lat="49.40413" lon="0.1644">
        <ele>17.8</ele>
        <time>2020-06-17T14:54:55Z</time>
      </trkpt>
      <trkpt lat="49.40416" lon="0.16446">
        <ele>17.8</ele>
        <time>2020-06-17T14:54:56Z</time>
      </trkpt>
      <trkpt lat="49.4042" lon="0.16455">
        <ele>17.7</ele>
        <time>2020-06-17T14:54:57Z</time>
      </trkpt>
      <trkpt lat="49.40423" lon="0.16463">
        <ele>17.7</ele>
        <time>2020-06-17T14:54:58Z</time>
      </trkpt>
      <trkpt lat="49.40428" lon="0.16472">
        <ele>17.5</ele>
        <time>2020-06-17T14:54:59Z</time>
      </trkpt>
      <trkpt lat="49.40432" lon="0.16479">
        <ele>17.4</ele>
        <time>2020-06-17T14:55:00Z</time>
      </trkpt>
      <trkpt lat="49.40436" lon="0.16487">
        <ele>17.3</ele>
        <time>2020-06-17T14:55:01Z</time>
      </trkpt>
      <trkpt lat="49.4044" lon="0.16494">
        <ele>17.1</ele>
        <time>2020-06-17T14:55:02Z</time>
      </trkpt>
      <trkpt lat="49.40444" lon="0.16501">
        <ele>17</ele>
        <time>2020-06-17T14:55:03Z</time>
      </trkpt>
      <trkpt lat="49.40449" lon="0.16508">
        <ele>16.8</ele>
        <time>2020-06-17T14:55:04Z</time>
      </trkpt>
      <trkpt lat="49.40455" lon="0.16516">
        <ele>16.6</ele>
        <time>2020-06-17T14:55:05Z</time>
      </trkpt>
      <trkpt lat="49.40461" lon="0.16523">
        <ele>16.4</ele>
        <time>2020-06-17T14:55:06Z</time>
      </trkpt>
      <trkpt lat="49.40465" lon="0.1653">
        <ele>16.2</ele>
        <time>2020-06-17T14:55:07Z</time>
      </trkpt>
      <trkpt lat="49.40471" lon="0.1654">
        <ele>16</ele>
        <time>2020-06-17T14:55:08Z</time>
      </trkpt>
      <trkpt lat="49.40475" lon="0.16548">
        <ele>15.9</ele>
        <time>2020-06-17T14:55:09Z</time>
      </trkpt>
      <trkpt lat="49.40479" lon="0.16557">
        <ele>15.7</ele>
        <time>2020-06-17T14:55:10Z</time>
      </trkpt>
      <trkpt lat="49.40483" lon="0.16566">
        <ele>15.5</ele>
        <time>2020-06-17T14:55:11Z</time>
      </trkpt>
      <trkpt lat="49.40486" lon="0.16576">
        <ele>15.3</ele>
        <time>2020-06-17T14:55:12Z</time>
      </trkpt>
      <trkpt lat="49.4049" lon="0.16584">
        <ele>15.1</ele>
        <time>2020-06-17T14:55:13Z</time>
      </trkpt>
      <trkpt lat="49.40493" lon="0.16592">
        <ele>15</ele>
        <time>2020-06-17T14:55:14Z</time>
      </trkpt>
      <trkpt lat="49.40497" lon="0.16601">
        <ele>14.8</ele>
        <time>2020-06-17T14:55:15Z</time>
      </trkpt>
      <trkpt lat="49.40499" lon="0.16611">
        <ele>14.7</ele>
        <time>2020-06-17T14:55:16Z</time>
      </trkpt>
      <trkpt lat="49.40502" lon="0.16623">
        <ele>14.4</ele>
        <time>2020-06-17T14:55:17Z</time>
      </trkpt>
      <trkpt lat="49.40504" lon="0.16632">
        <ele>14.2</ele>
        <time>2020-06-17T14:55:18Z</time>
      </trkpt>
      <trkpt lat="49.40508" lon="0.16642">
        <ele>14</ele>
        <time>2020-06-17T14:55:19Z</time>
      </trkpt>
      <trkpt lat="49.40512" lon="0.16655">
        <ele>13.7</ele>
        <time>2020-06-17T14:55:20Z</time>
      </trkpt>
      <trkpt lat="49.40516" lon="0.16667">
        <ele>13.4</ele>
        <time>2020-06-17T14:55:21Z</time>
      </trkpt>
      <trkpt lat="49.40519" lon="0.16681">
        <ele>13.1</ele>
        <time>2020-06-17T14:55:22Z</time>
      </trkpt>
      <trkpt lat="49.40522" lon="0.16693">
        <ele>12.8</ele>
        <time>2020-06-17T14:55:23Z</time>
      </trkpt>
      <trkpt lat="49.40525" lon="0.16703">
        <ele>12.6</ele>
        <time>2020-06-17T14:55:24Z</time>
      </trkpt>
      <trkpt lat="49.40527" lon="0.16713">
        <ele>12.4</ele>
        <time>2020-06-17T14:55:25Z</time>
      </trkpt>
      <trkpt lat="49.4053" lon="0.16724">
        <ele>12.2</ele>
        <time>2020-06-17T14:55:26Z</time>
      </trkpt>
      <trkpt lat="49.40533" lon="0.16734">
        <ele>12.1</ele>
        <time>2020-06-17T14:55:27Z</time>
      </trkpt>
      <trkpt lat="49.40536" lon="0.16745">
        <ele>11.9</ele>
        <time>2020-06-17T14:55:28Z</time>
      </trkpt>
      <trkpt lat="49.40539" lon="0.16755">
        <ele>11.7</ele>
        <time>2020-06-17T14:55:29Z</time>
      </trkpt>
      <trkpt lat="49.40541" lon="0.16768">
        <ele>11.5</ele>
        <time>2020-06-17T14:55:30Z</time>
      </trkpt>
      <trkpt lat="49.40544" lon="0.16785">
        <ele>11.3</ele>
        <time>2020-06-17T14:55:31Z</time>
      </trkpt>
      <trkpt lat="49.40546" lon="0.16802">
        <ele>11.1</ele>
        <time>2020-06-17T14:55:32Z</time>
      </trkpt>
      <trkpt lat="49.40548" lon="0.16816">
        <ele>10.9</ele>
        <time>2020-06-17T14:55:33Z</time>
      </trkpt>
      <trkpt lat="49.4055" lon="0.16832">
        <ele>10.7</ele>
        <time>2020-06-17T14:55:34Z</time>
      </trkpt>
      <trkpt lat="49.40551" lon="0.16845">
        <ele>10.5</ele>
        <time>2020-06-17T14:55:35Z</time>
      </trkpt>
      <trkpt lat="49.40554" lon="0.16858">
        <ele>10.3</ele>
        <time>2020-06-17T14:55:36Z</time>
      </trkpt>
      <trkpt lat="49.40557" lon="0.16869">
        <ele>10.2</ele>
        <time>2020-06-17T14:55:37Z</time>
      </trkpt>
      <trkpt lat="49.40561" lon="0.16882">
        <ele>10</ele>
        <time>2020-06-17T14:55:38Z</time>
      </trkpt>
      <trkpt lat="49.40564" lon="0.16896">
        <ele>9.7</ele>
        <time>2020-06-17T14:55:39Z</time>
      </trkpt>
      <trkpt lat="49.40567" lon="0.16909">
        <ele>9.5</ele>
        <time>2020-06-17T14:55:40Z</time>
      </trkpt>
      <trkpt lat="49.4057" lon="0.1692">
        <ele>9.3</ele>
        <time>2020-06-17T14:55:41Z</time>
      </trkpt>
      <trkpt lat="49.40574" lon="0.16931">
        <ele>9.1</ele>
        <time>2020-06-17T14:55:42Z</time>
      </trkpt>
      <trkpt lat="49.40577" lon="0.16941">
        <ele>8.9</ele>
        <time>2020-06-17T14:55:43Z</time>
      </trkpt>
      <trkpt lat="49.4058" lon="0.16952">
        <ele>8.8</ele>
        <time>2020-06-17T14:55:44Z</time>
      </trkpt>
      <trkpt lat="49.40583" lon="0.16963">
        <ele>8.6</ele>
        <time>2020-06-17T14:55:45Z</time>
      </trkpt>
      <trkpt lat="49.40586" lon="0.16974">
        <ele>8.5</ele>
        <time>2020-06-17T14:55:46Z</time>
      </trkpt>
      <trkpt lat="49.40589" lon="0.16985">
        <ele>8.3</ele>
        <time>2020-06-17T14:55:47Z</time>
      </trkpt>
      <trkpt lat="49.40592" lon="0.16994">
        <ele>8.2</ele>
        <time>2020-06-17T14:55:48Z</time>
      </trkpt>
      <trkpt lat="49.40594" lon="0.17004">
        <ele>8</ele>
        <time>2020-06-17T14:55:49Z</time>
      </trkpt>
      <trkpt lat="49.40597" lon="0.17013">
        <ele>7.9</ele>
        <time>2020-06-17T14:55:50Z</time>
      </trkpt>
      <trkpt lat="49.40599" lon="0.17022">
        <ele>7.9</ele>
        <time>2020-06-17T14:55:51Z</time>
      </trkpt>
      <trkpt lat="49.40601" lon="0.17029">
        <ele>7.9</ele>
        <time>2020-06-17T14:55:52Z</time>
      </trkpt>
      <trkpt lat="49.40602" lon="0.17036">
        <ele>7.9</ele>
        <time>2020-06-17T14:55:53Z</time>
      </trkpt>
      <trkpt lat="49.40603" lon="0.17044">
        <ele>7.9</ele>
        <time>2020-06-17T14:55:54Z</time>
      </trkpt>
      <trkpt lat="49.40603" lon="0.17051">
        <ele>7.9</ele>
        <time>2020-06-17T14:55:55Z</time>
      </trkpt>
      <trkpt lat="49.40604" lon="0.1706">
        <ele>7.8</ele>
        <time>2020-06-17T14:55:56Z</time>
      </trkpt>
      <trkpt lat="49.40605" lon="0.17068">
        <ele>7.8</ele>
        <time>2020-06-17T14:55:57Z</time>
      </trkpt>
      <trkpt lat="49.40607" lon="0.17079">
        <ele>7.7</ele>
        <time>2020-06-17T14:55:58Z</time>
      </trkpt>
      <trkpt lat="49.40608" lon="0.1709">
        <ele>7.7</ele>
        <time>2020-06-17T14:55:59Z</time>
      </trkpt>
      <trkpt lat="49.4061" lon="0.17102">
        <ele>7.6</ele>
        <time>2020-06-17T14:56:00Z</time>
      </trkpt>
      <trkpt lat="49.4061" lon="0.17112">
        <ele>7.6</ele>
        <time>2020-06-17T14:56:01Z</time>
      </trkpt>
      <trkpt lat="49.4061" lon="0.17123">
        <ele>7.5</ele>
        <time>2020-06-17T14:56:02Z</time>
      </trkpt>
      <trkpt lat="49.40609" lon="0.17132">
        <ele>7.5</ele>
        <time>2020-06-17T14:56:03Z</time>
      </trkpt>
      <trkpt lat="49.40609" lon="0.17141">
        <ele>7.4</ele>
        <time>2020-06-17T14:56:04Z</time>
      </trkpt>
      <trkpt lat="49.40609" lon="0.17152">
        <ele>7.4</ele>
        <time>2020-06-17T14:56:05Z</time>
      </trkpt>
      <trkpt lat="49.4061" lon="0.17162">
        <ele>7.5</ele>
        <time>2020-06-17T14:56:06Z</time>
      </trkpt>
      <trkpt lat="49.4061" lon="0.17173">
        <ele>7.5</ele>
        <time>2020-06-17T14:56:07Z</time>
      </trkpt>
      <trkpt lat="49.4061" lon="0.17182">
        <ele>7.6</ele>
        <time>2020-06-17T14:56:08Z</time>
      </trkpt>
      <trkpt lat="49.4061" lon="0.17193">
        <ele>7.7</ele>
        <time>2020-06-17T14:56:09Z</time>
      </trkpt>
      <trkpt lat="49.40609" lon="0.17205">
        <ele>7.8</ele>
        <time>2020-06-17T14:56:10Z</time>
      </trkpt>
      <trkpt lat="49.40609" lon="0.17215">
        <ele>7.9</ele>
        <time>2020-06-17T14:56:11Z</time>
      </trkpt>
      <trkpt lat="49.4061" lon="0.17227">
        <ele>8</ele>
        <time>2020-06-17T14:56:12Z</time>
      </trkpt>
      <trkpt lat="49.4061" lon="0.17238">
        <ele>8.2</ele>
        <time>2020-06-17T14:56:13Z</time>
      </trkpt>
      <trkpt lat="49.40611" lon="0.17247">
        <ele>8.2</ele>
        <time>2020-06-17T14:56:14Z</time>
      </trkpt>
      <trkpt lat="49.40612" lon="0.17256">
        <ele>8.3</ele>
        <time>2020-06-17T14:56:15Z</time>
      </trkpt>
      <trkpt lat="49.40614" lon="0.17264">
        <ele>8.4</ele>
        <time>2020-06-17T14:56:16Z</time>
      </trkpt>
      <trkpt lat="49.40615" lon="0.17273">
        <ele>8.4</ele>
        <time>2020-06-17T14:56:17Z</time>
      </trkpt>
      <trkpt lat="49.40616" lon="0.1728">
        <ele>8.5</ele>
        <time>2020-06-17T14:56:18Z</time>
      </trkpt>
      <trkpt lat="49.40618" lon="0.17288">
        <ele>8.5</ele>
        <time>2020-06-17T14:56:19Z</time>
      </trkpt>
      <trkpt lat="49.40619" lon="0.17297">
        <ele>8.6</ele>
        <time>2020-06-17T14:56:20Z</time>
      </trkpt>
      <trkpt lat="49.4062" lon="0.17306">
        <ele>8.6</ele>
        <time>2020-06-17T14:56:21Z</time>
      </trkpt>
      <trkpt lat="49.40622" lon="0.17314">
        <ele>8.7</ele>
        <time>2020-06-17T14:56:22Z</time>
      </trkpt>
      <trkpt lat="49.40624" lon="0.17322">
        <ele>8.7</ele>
        <time>2020-06-17T14:56:23Z</time>
      </trkpt>
      <trkpt lat="49.40627" lon="0.1733">
        <ele>8.7</ele>
        <time>2020-06-17T14:56:24Z</time>
      </trkpt>
      <trkpt lat="49.4063" lon="0.17337">
        <ele>8.8</ele>
        <time>2020-06-17T14:56:25Z</time>
      </trkpt>
      <trkpt lat="49.40633" lon="0.17344">
        <ele>8.9</ele>
        <time>2020-06-17T14:56:26Z</time>
      </trkpt>
      <trkpt lat="49.40636" lon="0.17353">
        <ele>9</ele>
        <time>2020-06-17T14:56:27Z</time>
      </trkpt>
      <trkpt lat="49.40639" lon="0.17361">
        <ele>9.2</ele>
        <time>2020-06-17T14:56:28Z</time>
      </trkpt>
      <trkpt lat="49.40642" lon="0.1737">
        <ele>9.4</ele>
        <time>2020-06-17T14:56:29Z</time>
      </trkpt>
      <trkpt lat="49.40645" lon="0.17378">
        <ele>9.6</ele>
        <time>2020-06-17T14:56:30Z</time>
      </trkpt>
      <trkpt lat="49.40647" lon="0.17387">
        <ele>9.8</ele>
        <time>2020-06-17T14:56:31Z</time>
      </trkpt>
      <trkpt lat="49.4065" lon="0.17395">
        <ele>10</ele>
        <time>2020-06-17T14:56:32Z</time>
      </trkpt>
      <trkpt lat="49.40653" lon="0.17403">
        <ele>10.2</ele>
        <time>2020-06-17T14:56:33Z</time>
      </trkpt>
      <trkpt lat="49.40656" lon="0.17409">
        <ele>10.4</ele>
        <time>2020-06-17T14:56:34Z</time>
      </trkpt>
      <trkpt lat="49.40658" lon="0.17416">
        <ele>10.6</ele>
        <time>2020-06-17T14:56:35Z</time>
      </trkpt>
      <trkpt lat="49.40661" lon="0.17422">
        <ele>10.8</ele>
        <time>2020-06-17T14:56:36Z</time>
      </trkpt>
      <trkpt lat="49.40664" lon="0.17428">
        <ele>11</ele>
        <time>2020-06-17T14:56:37Z</time>
      </trkpt>
      <trkpt lat="49.40666" lon="0.17434">
        <ele>11.2</ele>
        <time>2020-06-17T14:56:38Z</time>
      </trkpt>
      <trkpt lat="49.40669" lon="0.17441">
        <ele>11.5</ele>
        <time>2020-06-17T14:56:39Z</time>
      </trkpt>
      <trkpt lat="49.40671" lon="0.17446">
        <ele>11.7</ele>
        <time>2020-06-17T14:56:40Z</time>
      </trkpt>
      <trkpt lat="49.40674" lon="0.17452">
        <ele>12</ele>
        <time>2020-06-17T14:56:41Z</time>
      </trkpt>
      <trkpt lat="49.40677" lon="0.17458">
        <ele>12.3</ele>
        <time>2020-06-17T14:56:42Z</time>
      </trkpt>
      <trkpt lat="49.40678" lon="0.17463">
        <ele>12.5</ele>
        <time>2020-06-17T14:56:43Z</time>
      </trkpt>
      <trkpt lat="49.40681" lon="0.17469">
        <ele>12.8</ele>
        <time>2020-06-17T14:56:44Z</time>
      </trkpt>
      <trkpt lat="49.40684" lon="0.17474">
        <ele>13</ele>
        <time>2020-06-17T14:56:45Z</time>
      </trkpt>
      <trkpt lat="49.40687" lon="0.1748">
        <ele>13.3</ele>
        <time>2020-06-17T14:56:46Z</time>
      </trkpt>
      <trkpt lat="49.40689" lon="0.17485">
        <ele>13.6</ele>
        <time>2020-06-17T14:56:47Z</time>
      </trkpt>
      <trkpt lat="49.40692" lon="0.17491">
        <ele>13.9</ele>
        <time>2020-06-17T14:56:48Z</time>
      </trkpt>
      <trkpt lat="49.40694" lon="0.17495">
        <ele>14.1</ele>
        <time>2020-06-17T14:56:49Z</time>
      </trkpt>
      <trkpt lat="49.40695" lon="0.17499">
        <ele>14.3</ele>
        <time>2020-06-17T14:56:50Z</time>
      </trkpt>
      <trkpt lat="49.40698" lon="0.17504">
        <ele>14.6</ele>
        <time>2020-06-17T14:56:51Z</time>
      </trkpt>
      <trkpt lat="49.407" lon="0.17509">
        <ele>14.8</ele>
        <time>2020-06-17T14:56:52Z</time>
      </trkpt>
      <trkpt lat="49.40702" lon="0.17513">
        <ele>15.1</ele>
        <time>2020-06-17T14:56:53Z</time>
      </trkpt>
      <trkpt lat="49.40704" lon="0.17517">
        <ele>15.3</ele>
        <time>2020-06-17T14:56:54Z</time>
      </trkpt>
      <trkpt lat="49.40707" lon="0.17522">
        <ele>15.6</ele>
        <time>2020-06-17T14:56:55Z</time>
      </trkpt>
      <trkpt lat="49.40709" lon="0.17527">
        <ele>15.8</ele>
        <time>2020-06-17T14:56:56Z</time>
      </trkpt>
      <trkpt lat="49.40711" lon="0.17531">
        <ele>16.1</ele>
        <time>2020-06-17T14:56:57Z</time>
      </trkpt>
      <trkpt lat="49.40713" lon="0.17536">
        <ele>16.4</ele>
        <time>2020-06-17T14:56:58Z</time>
      </trkpt>
      <trkpt lat="49.40715" lon="0.1754">
        <ele>16.6</ele>
        <time>2020-06-17T14:56:59Z</time>
      </trkpt>
      <trkpt lat="49.40717" lon="0.17544">
        <ele>16.8</ele>
        <time>2020-06-17T14:57:00Z</time>
      </trkpt>
      <trkpt lat="49.40719" lon="0.17547">
        <ele>17</ele>
        <time>2020-06-17T14:57:01Z</time>
      </trkpt>
      <trkpt lat="49.4072" lon="0.17551">
        <ele>17.2</ele>
        <time>2020-06-17T14:57:02Z</time>
      </trkpt>
      <trkpt lat="49.40723" lon="0.17555">
        <ele>17.4</ele>
        <time>2020-06-17T14:57:03Z</time>
      </trkpt>
      <trkpt lat="49.40725" lon="0.17558">
        <ele>17.6</ele>
        <time>2020-06-17T14:57:04Z</time>
      </trkpt>
      <trkpt lat="49.40727" lon="0.17562">
        <ele>17.8</ele>
        <time>2020-06-17T14:57:05Z</time>
      </trkpt>
      <trkpt lat="49.4073" lon="0.17565">
        <ele>18</ele>
        <time>2020-06-17T14:57:06Z</time>
      </trkpt>
      <trkpt lat="49.4073" lon="0.17566">
        <ele>18</ele>
        <time>2020-06-17T14:57:07Z</time>
      </trkpt>
      <trkpt lat="49.40733" lon="0.17571">
        <ele>18.3</ele>
        <time>2020-06-17T14:57:08Z</time>
      </trkpt>
      <trkpt lat="49.40734" lon="0.17573">
        <ele>18.4</ele>
        <time>2020-06-17T14:57:09Z</time>
      </trkpt>
      <trkpt lat="49.40736" lon="0.17578">
        <ele>18.6</ele>
        <time>2020-06-17T14:57:10Z</time>
      </trkpt>
      <trkpt lat="49.40738" lon="0.17581">
        <ele>18.8</ele>
        <time>2020-06-17T14:57:11Z</time>
      </trkpt>
      <trkpt lat="49.4074" lon="0.17587">
        <ele>19.1</ele>
        <time>2020-06-17T14:57:12Z</time>
      </trkpt>
      <trkpt lat="49.40743" lon="0.17593">
        <ele>19.2</ele>
        <time>2020-06-17T14:57:13Z</time>
      </trkpt>
      <trkpt lat="49.40743" lon="0.17594">
        <ele>19.3</ele>
        <time>2020-06-17T14:57:14Z</time>
      </trkpt>
      <trkpt lat="49.40745" lon="0.17598">
        <ele>19.4</ele>
        <time>2020-06-17T14:57:15Z</time>
      </trkpt>
      <trkpt lat="49.40748" lon="0.17602">
        <ele>19.5</ele>
        <time>2020-06-17T14:57:16Z</time>
      </trkpt>
      <trkpt lat="49.4075" lon="0.17607">
        <ele>19.6</ele>
        <time>2020-06-17T14:57:17Z</time>
      </trkpt>
      <trkpt lat="49.40751" lon="0.1761">
        <ele>19.7</ele>
        <time>2020-06-17T14:57:18Z</time>
      </trkpt>
      <trkpt lat="49.40753" lon="0.17615">
        <ele>19.8</ele>
        <time>2020-06-17T14:57:19Z</time>
      </trkpt>
      <trkpt lat="49.40755" lon="0.17619">
        <ele>19.9</ele>
        <time>2020-06-17T14:57:20Z</time>
      </trkpt>
      <trkpt lat="49.40757" lon="0.17624">
        <ele>20</ele>
        <time>2020-06-17T14:57:21Z</time>
      </trkpt>
      <trkpt lat="49.40759" lon="0.17629">
        <ele>20.2</ele>
        <time>2020-06-17T14:57:22Z</time>
      </trkpt>
      <trkpt lat="49.40761" lon="0.17635">
        <ele>20.3</ele>
        <time>2020-06-17T14:57:23Z</time>
      </trkpt>
      <trkpt lat="49.40764" lon="0.17641">
        <ele>20.4</ele>
        <time>2020-06-17T14:57:24Z</time>
      </trkpt>
      <trkpt lat="49.40766" lon="0.17647">
        <ele>20.5</ele>
        <time>2020-06-17T14:57:25Z</time>
      </trkpt>
      <trkpt lat="49.40769" lon="0.17654">
        <ele>20.6</ele>
        <time>2020-06-17T14:57:26Z</time>
      </trkpt>
      <trkpt lat="49.40771" lon="0.1766">
        <ele>20.7</ele>
        <time>2020-06-17T14:57:27Z</time>
      </trkpt>
      <trkpt lat="49.40775" lon="0.17665">
        <ele>20.8</ele>
        <time>2020-06-17T14:57:28Z</time>
      </trkpt>
      <trkpt lat="49.40778" lon="0.1767">
        <ele>20.9</ele>
        <time>2020-06-17T14:57:29Z</time>
      </trkpt>
      <trkpt lat="49.40782" lon="0.17676">
        <ele>21</ele>
        <time>2020-06-17T14:57:30Z</time>
      </trkpt>
      <trkpt lat="49.40785" lon="0.1768">
        <ele>21.1</ele>
        <time>2020-06-17T14:57:31Z</time>
      </trkpt>
      <trkpt lat="49.40788" lon="0.17686">
        <ele>21.2</ele>
        <time>2020-06-17T14:57:32Z</time>
      </trkpt>
      <trkpt lat="49.40791" lon="0.17692">
        <ele>21.3</ele>
        <time>2020-06-17T14:57:33Z</time>
      </trkpt>
      <trkpt lat="49.40794" lon="0.17698">
        <ele>21.4</ele>
        <time>2020-06-17T14:57:34Z</time>
      </trkpt>
      <trkpt lat="49.40797" lon="0.17703">
        <ele>21.5</ele>
        <time>2020-06-17T14:57:35Z</time>
      </trkpt>
      <trkpt lat="49.408" lon="0.17708">
        <ele>21.6</ele>
        <time>2020-06-17T14:57:36Z</time>
      </trkpt>
      <trkpt lat="49.40802" lon="0.17713">
        <ele>21.7</ele>
        <time>2020-06-17T14:57:37Z</time>
      </trkpt>
      <trkpt lat="49.40806" lon="0.17718">
        <ele>21.8</ele>
        <time>2020-06-17T14:57:38Z</time>
      </trkpt>
      <trkpt lat="49.40809" lon="0.17723">
        <ele>21.9</ele>
        <time>2020-06-17T14:57:39Z</time>
      </trkpt>
      <trkpt lat="49.40812" lon="0.17728">
        <ele>22</ele>
        <time>2020-06-17T14:57:40Z</time>
      </trkpt>
      <trkpt lat="49.40814" lon="0.17733">
        <ele>22.1</ele>
        <time>2020-06-17T14:57:41Z</time>
      </trkpt>
      <trkpt lat="49.40817" lon="0.17738">
        <ele>22.2</ele>
        <time>2020-06-17T14:57:42Z</time>
      </trkpt>
      <trkpt lat="49.40819" lon="0.17744">
        <ele>22.3</ele>
        <time>2020-06-17T14:57:43Z</time>
      </trkpt>
      <trkpt lat="49.40821" lon="0.17749">
        <ele>22.4</ele>
        <time>2020-06-17T14:57:44Z</time>
      </trkpt>
      <trkpt lat="49.40822" lon="0.17755">
        <ele>22.5</ele>
        <time>2020-06-17T14:57:45Z</time>
      </trkpt>
      <trkpt lat="49.40824" lon="0.17761">
        <ele>22.6</ele>
        <time>2020-06-17T14:57:46Z</time>
      </trkpt>
      <trkpt lat="49.40826" lon="0.17767">
        <ele>22.7</ele>
        <time>2020-06-17T14:57:47Z</time>
      </trkpt>
      <trkpt lat="49.40828" lon="0.17772">
        <ele>22.8</ele>
        <time>2020-06-17T14:57:48Z</time>
      </trkpt>
      <trkpt lat="49.40829" lon="0.17778">
        <ele>22.8</ele>
        <time>2020-06-17T14:57:49Z</time>
      </trkpt>
      <trkpt lat="49.40831" lon="0.17783">
        <ele>22.9</ele>
        <time>2020-06-17T14:57:50Z</time>
      </trkpt>
      <trkpt lat="49.40833" lon="0.17789">
        <ele>23</ele>
        <time>2020-06-17T14:57:51Z</time>
      </trkpt>
      <trkpt lat="49.40836" lon="0.17795">
        <ele>23.1</ele>
        <time>2020-06-17T14:57:52Z</time>
      </trkpt>
      <trkpt lat="49.4084" lon="0.178">
        <ele>23.2</ele>
        <time>2020-06-17T14:57:53Z</time>
      </trkpt>
      <trkpt lat="49.40843" lon="0.17806">
        <ele>23.2</ele>
        <time>2020-06-17T14:57:54Z</time>
      </trkpt>
      <trkpt lat="49.40847" lon="0.17812">
        <ele>23.3</ele>
        <time>2020-06-17T14:57:55Z</time>
      </trkpt>
      <trkpt lat="49.4085" lon="0.17818">
        <ele>23.4</ele>
        <time>2020-06-17T14:57:56Z</time>
      </trkpt>
      <trkpt lat="49.40854" lon="0.17826">
        <ele>23.5</ele>
        <time>2020-06-17T14:57:57Z</time>
      </trkpt>
      <trkpt lat="49.40859" lon="0.17836">
        <ele>23.6</ele>
        <time>2020-06-17T14:57:58Z</time>
      </trkpt>
      <trkpt lat="49.40862" lon="0.17842">
        <ele>23.7</ele>
        <time>2020-06-17T14:57:59Z</time>
      </trkpt>
      <trkpt lat="49.40867" lon="0.17849">
        <ele>23.8</ele>
        <time>2020-06-17T14:58:00Z</time>
      </trkpt>
      <trkpt lat="49.40871" lon="0.17855">
        <ele>23.8</ele>
        <time>2020-06-17T14:58:01Z</time>
      </trkpt>
      <trkpt lat="49.40875" lon="0.17862">
        <ele>23.9</ele>
        <time>2020-06-17T14:58:02Z</time>
      </trkpt>
      <trkpt lat="49.40878" lon="0.17868">
        <ele>23.9</ele>
        <time>2020-06-17T14:58:03Z</time>
      </trkpt>
      <trkpt lat="49.40882" lon="0.17874">
        <ele>24</ele>
        <time>2020-06-17T14:58:04Z</time>
      </trkpt>
      <trkpt lat="49.40885" lon="0.1788">
        <ele>24</ele>
        <time>2020-06-17T14:58:05Z</time>
      </trkpt>
      <trkpt lat="49.40889" lon="0.17886">
        <ele>24.1</ele>
        <time>2020-06-17T14:58:06Z</time>
      </trkpt>
      <trkpt lat="49.40892" lon="0.17891">
        <ele>24.1</ele>
        <time>2020-06-17T14:58:07Z</time>
      </trkpt>
      <trkpt lat="49.40896" lon="0.17896">
        <ele>24.2</ele>
        <time>2020-06-17T14:58:08Z</time>
      </trkpt>
      <trkpt lat="49.40899" lon="0.17902">
        <ele>24.2</ele>
        <time>2020-06-17T14:58:09Z</time>
      </trkpt>
      <trkpt lat="49.40902" lon="0.17907">
        <ele>24.3</ele>
        <time>2020-06-17T14:58:10Z</time>
      </trkpt>
      <trkpt lat="49.40906" lon="0.17914">
        <ele>24.3</ele>
        <time>2020-06-17T14:58:11Z</time>
      </trkpt>
      <trkpt lat="49.40909" lon="0.1792">
        <ele>24.4</ele>
        <time>2020-06-17T14:58:12Z</time>
      </trkpt>
      <trkpt lat="49.40911" lon="0.17924">
        <ele>24.4</ele>
        <time>2020-06-17T14:58:13Z</time>
      </trkpt>
      <trkpt lat="49.40913" lon="0.17929">
        <ele>24.4</ele>
        <time>2020-06-17T14:58:14Z</time>
      </trkpt>
      <trkpt lat="49.40915" lon="0.17934">
        <ele>24.5</ele>
        <time>2020-06-17T14:58:15Z</time>
      </trkpt>
      <trkpt lat="49.40918" lon="0.1794">
        <ele>24.5</ele>
        <time>2020-06-17T14:58:16Z</time>
      </trkpt>
      <trkpt lat="49.40922" lon="0.17946">
        <ele>24.5</ele>
        <time>2020-06-17T14:58:17Z</time>
      </trkpt>
      <trkpt lat="49.40926" lon="0.17952">
        <ele>24.6</ele>
        <time>2020-06-17T14:58:18Z</time>
      </trkpt>
      <trkpt lat="49.4093" lon="0.17959">
        <ele>24.7</ele>
        <time>2020-06-17T14:58:19Z</time>
      </trkpt>
      <trkpt lat="49.40934" lon="0.17965">
        <ele>24.8</ele>
        <time>2020-06-17T14:58:20Z</time>
      </trkpt>
      <trkpt lat="49.40938" lon="0.1797">
        <ele>24.9</ele>
        <time>2020-06-17T14:58:21Z</time>
      </trkpt>
      <trkpt lat="49.40942" lon="0.17975">
        <ele>25</ele>
        <time>2020-06-17T14:58:22Z</time>
      </trkpt>
      <trkpt lat="49.40945" lon="0.17981">
        <ele>25.1</ele>
        <time>2020-06-17T14:58:23Z</time>
      </trkpt>
      <trkpt lat="49.40948" lon="0.17986">
        <ele>25.3</ele>
        <time>2020-06-17T14:58:24Z</time>
      </trkpt>
      <trkpt lat="49.40952" lon="0.17991">
        <ele>25.5</ele>
        <time>2020-06-17T14:58:25Z</time>
      </trkpt>
      <trkpt lat="49.40955" lon="0.17996">
        <ele>25.7</ele>
        <time>2020-06-17T14:58:26Z</time>
      </trkpt>
      <trkpt lat="49.40958" lon="0.18002">
        <ele>25.9</ele>
        <time>2020-06-17T14:58:27Z</time>
      </trkpt>
      <trkpt lat="49.4096" lon="0.18007">
        <ele>26</ele>
        <time>2020-06-17T14:58:28Z</time>
      </trkpt>
      <trkpt lat="49.40962" lon="0.18012">
        <ele>26.3</ele>
        <time>2020-06-17T14:58:29Z</time>
      </trkpt>
      <trkpt lat="49.40963" lon="0.18019">
        <ele>26.4</ele>
        <time>2020-06-17T14:58:30Z</time>
      </trkpt>
      <trkpt lat="49.40966" lon="0.18026">
        <ele>26.6</ele>
        <time>2020-06-17T14:58:31Z</time>
      </trkpt>
      <trkpt lat="49.40968" lon="0.18034">
        <ele>26.8</ele>
        <time>2020-06-17T14:58:32Z</time>
      </trkpt>
      <trkpt lat="49.4097" lon="0.18041">
        <ele>26.9</ele>
        <time>2020-06-17T14:58:33Z</time>
      </trkpt>
      <trkpt lat="49.40971" lon="0.18045">
        <ele>27</ele>
        <time>2020-06-17T14:58:34Z</time>
      </trkpt>
      <trkpt lat="49.40974" lon="0.1805">
        <ele>27.1</ele>
        <time>2020-06-17T14:58:35Z</time>
      </trkpt>
      <trkpt lat="49.40976" lon="0.18054">
        <ele>27.2</ele>
        <time>2020-06-17T14:58:36Z</time>
      </trkpt>
      <trkpt lat="49.40978" lon="0.18059">
        <ele>27.3</ele>
        <time>2020-06-17T14:58:37Z</time>
      </trkpt>
      <trkpt lat="49.40979" lon="0.18064">
        <ele>27.4</ele>
        <time>2020-06-17T14:58:38Z</time>
      </trkpt>
      <trkpt lat="49.40979" lon="0.18066">
        <ele>27.4</ele>
        <time>2020-06-17T14:58:39Z</time>
      </trkpt>
      <trkpt lat="49.40982" lon="0.18071">
        <ele>27.4</ele>
        <time>2020-06-17T14:58:40Z</time>
      </trkpt>
      <trkpt lat="49.40984" lon="0.18075">
        <ele>27.5</ele>
        <time>2020-06-17T14:58:41Z</time>
      </trkpt>
      <trkpt lat="49.40986" lon="0.18078">
        <ele>27.5</ele>
        <time>2020-06-17T14:58:42Z</time>
      </trkpt>
      <trkpt lat="49.40988" lon="0.18083">
        <ele>27.5</ele>
        <time>2020-06-17T14:58:43Z</time>
      </trkpt>
      <trkpt lat="49.40991" lon="0.18088">
        <ele>27.5</ele>
        <time>2020-06-17T14:58:44Z</time>
      </trkpt>
      <trkpt lat="49.40994" lon="0.18093">
        <ele>27.4</ele>
        <time>2020-06-17T14:58:45Z</time>
      </trkpt>
      <trkpt lat="49.40999" lon="0.18101">
        <ele>27.3</ele>
        <time>2020-06-17T14:58:46Z</time>
      </trkpt>
      <trkpt lat="49.41" lon="0.18104">
        <ele>27.2</ele>
        <time>2020-06-17T14:58:47Z</time>
      </trkpt>
      <trkpt lat="49.41003" lon="0.1811">
        <ele>27.1</ele>
        <time>2020-06-17T14:58:48Z</time>
      </trkpt>
      <trkpt lat="49.41007" lon="0.18116">
        <ele>27</ele>
        <time>2020-06-17T14:58:49Z</time>
      </trkpt>
      <trkpt lat="49.41012" lon="0.18123">
        <ele>26.7</ele>
        <time>2020-06-17T14:58:50Z</time>
      </trkpt>
      <trkpt lat="49.41017" lon="0.1813">
        <ele>26.4</ele>
        <time>2020-06-17T14:58:51Z</time>
      </trkpt>
      <trkpt lat="49.41021" lon="0.18137">
        <ele>26.2</ele>
        <time>2020-06-17T14:58:52Z</time>
      </trkpt>
      <trkpt lat="49.41025" lon="0.18144">
        <ele>25.9</ele>
        <time>2020-06-17T14:58:53Z</time>
      </trkpt>
      <trkpt lat="49.41029" lon="0.18151">
        <ele>25.6</ele>
        <time>2020-06-17T14:58:54Z</time>
      </trkpt>
      <trkpt lat="49.41033" lon="0.18159">
        <ele>25.4</ele>
        <time>2020-06-17T14:58:55Z</time>
      </trkpt>
      <trkpt lat="49.41037" lon="0.18167">
        <ele>25.2</ele>
        <time>2020-06-17T14:58:56Z</time>
      </trkpt>
      <trkpt lat="49.41041" lon="0.18173">
        <ele>25</ele>
        <time>2020-06-17T14:58:57Z</time>
      </trkpt>
      <trkpt lat="49.41044" lon="0.1818">
        <ele>24.9</ele>
        <time>2020-06-17T14:58:58Z</time>
      </trkpt>
      <trkpt lat="49.41047" lon="0.18188">
        <ele>24.7</ele>
        <time>2020-06-17T14:58:59Z</time>
      </trkpt>
      <trkpt lat="49.4105" lon="0.18195">
        <ele>24.6</ele>
        <time>2020-06-17T14:59:00Z</time>
      </trkpt>
      <trkpt lat="49.41054" lon="0.18204">
        <ele>24.5</ele>
        <time>2020-06-17T14:59:01Z</time>
      </trkpt>
      <trkpt lat="49.41059" lon="0.18212">
        <ele>24.4</ele>
        <time>2020-06-17T14:59:02Z</time>
      </trkpt>
      <trkpt lat="49.41063" lon="0.18221">
        <ele>24.3</ele>
        <time>2020-06-17T14:59:03Z</time>
      </trkpt>
      <trkpt lat="49.41067" lon="0.1823">
        <ele>24.2</ele>
        <time>2020-06-17T14:59:04Z</time>
      </trkpt>
      <trkpt lat="49.41072" lon="0.18242">
        <ele>24.2</ele>
        <time>2020-06-17T14:59:05Z</time>
      </trkpt>
      <trkpt lat="49.41077" lon="0.18252">
        <ele>24.2</ele>
        <time>2020-06-17T14:59:06Z</time>
      </trkpt>
      <trkpt lat="49.41084" lon="0.18262">
        <ele>24.2</ele>
        <time>2020-06-17T14:59:07Z</time>
      </trkpt>
      <trkpt lat="49.41088" lon="0.1827">
        <ele>24.2</ele>
        <time>2020-06-17T14:59:08Z</time>
      </trkpt>
      <trkpt lat="49.41092" lon="0.18279">
        <ele>24.2</ele>
        <time>2020-06-17T14:59:09Z</time>
      </trkpt>
      <trkpt lat="49.41096" lon="0.18288">
        <ele>24.1</ele>
        <time>2020-06-17T14:59:10Z</time>
      </trkpt>
      <trkpt lat="49.411" lon="0.18299">
        <ele>24.1</ele>
        <time>2020-06-17T14:59:11Z</time>
      </trkpt>
      <trkpt lat="49.41103" lon="0.18308">
        <ele>24</ele>
        <time>2020-06-17T14:59:12Z</time>
      </trkpt>
      <trkpt lat="49.41108" lon="0.18317">
        <ele>24</ele>
        <time>2020-06-17T14:59:13Z</time>
      </trkpt>
      <trkpt lat="49.41112" lon="0.18325">
        <ele>23.9</ele>
        <time>2020-06-17T14:59:14Z</time>
      </trkpt>
      <trkpt lat="49.41115" lon="0.18333">
        <ele>23.8</ele>
        <time>2020-06-17T14:59:15Z</time>
      </trkpt>
      <trkpt lat="49.41119" lon="0.18339">
        <ele>23.8</ele>
        <time>2020-06-17T14:59:16Z</time>
      </trkpt>
      <trkpt lat="49.41123" lon="0.18346">
        <ele>23.7</ele>
        <time>2020-06-17T14:59:17Z</time>
      </trkpt>
      <trkpt lat="49.41129" lon="0.18354">
        <ele>23.6</ele>
        <time>2020-06-17T14:59:18Z</time>
      </trkpt>
      <trkpt lat="49.41135" lon="0.18363">
        <ele>23.5</ele>
        <time>2020-06-17T14:59:19Z</time>
      </trkpt>
      <trkpt lat="49.41139" lon="0.18369">
        <ele>23.3</ele>
        <time>2020-06-17T14:59:20Z</time>
      </trkpt>
      <trkpt lat="49.41143" lon="0.18377">
        <ele>23.2</ele>
        <time>2020-06-17T14:59:21Z</time>
      </trkpt>
      <trkpt lat="49.41147" lon="0.18384">
        <ele>23</ele>
        <time>2020-06-17T14:59:22Z</time>
      </trkpt>
      <trkpt lat="49.41151" lon="0.18391">
        <ele>22.9</ele>
        <time>2020-06-17T14:59:23Z</time>
      </trkpt>
      <trkpt lat="49.41155" lon="0.18399">
        <ele>22.8</ele>
        <time>2020-06-17T14:59:24Z</time>
      </trkpt>
      <trkpt lat="49.4116" lon="0.18407">
        <ele>22.6</ele>
        <time>2020-06-17T14:59:25Z</time>
      </trkpt>
      <trkpt lat="49.41165" lon="0.18414">
        <ele>22.6</ele>
        <time>2020-06-17T14:59:26Z</time>
      </trkpt>
      <trkpt lat="49.41169" lon="0.18421">
        <ele>22.6</ele>
        <time>2020-06-17T14:59:27Z</time>
      </trkpt>
      <trkpt lat="49.41173" lon="0.18428">
        <ele>22.6</ele>
        <time>2020-06-17T14:59:28Z</time>
      </trkpt>
      <trkpt lat="49.41178" lon="0.18435">
        <ele>22.3</ele>
        <time>2020-06-17T14:59:29Z</time>
      </trkpt>
      <trkpt lat="49.41185" lon="0.18443">
        <ele>22.1</ele>
        <time>2020-06-17T14:59:30Z</time>
      </trkpt>
      <trkpt lat="49.41191" lon="0.1845">
        <ele>21.9</ele>
        <time>2020-06-17T14:59:31Z</time>
      </trkpt>
      <trkpt lat="49.41199" lon="0.18458">
        <ele>21.6</ele>
        <time>2020-06-17T14:59:32Z</time>
      </trkpt>
      <trkpt lat="49.41206" lon="0.18467">
        <ele>21.4</ele>
        <time>2020-06-17T14:59:33Z</time>
      </trkpt>
      <trkpt lat="49.41212" lon="0.18474">
        <ele>21.3</ele>
        <time>2020-06-17T14:59:34Z</time>
      </trkpt>
      <trkpt lat="49.41221" lon="0.18484">
        <ele>21.2</ele>
        <time>2020-06-17T14:59:35Z</time>
      </trkpt>
      <trkpt lat="49.41223" lon="0.18488">
        <ele>21.2</ele>
        <time>2020-06-17T14:59:36Z</time>
      </trkpt>
      <trkpt lat="49.41229" lon="0.18495">
        <ele>21.2</ele>
        <time>2020-06-17T14:59:37Z</time>
      </trkpt>
      <trkpt lat="49.41235" lon="0.18503">
        <ele>21.1</ele>
        <time>2020-06-17T14:59:38Z</time>
      </trkpt>
      <trkpt lat="49.4124" lon="0.1851">
        <ele>21.1</ele>
        <time>2020-06-17T14:59:39Z</time>
      </trkpt>
      <trkpt lat="49.41246" lon="0.1852">
        <ele>21.1</ele>
        <time>2020-06-17T14:59:40Z</time>
      </trkpt>
      <trkpt lat="49.41252" lon="0.18527">
        <ele>21</ele>
        <time>2020-06-17T14:59:41Z</time>
      </trkpt>
      <trkpt lat="49.41258" lon="0.18536">
        <ele>21</ele>
        <time>2020-06-17T14:59:42Z</time>
      </trkpt>
      <trkpt lat="49.41263" lon="0.18544">
        <ele>21</ele>
        <time>2020-06-17T14:59:43Z</time>
      </trkpt>
      <trkpt lat="49.41269" lon="0.18552">
        <ele>21.1</ele>
        <time>2020-06-17T14:59:44Z</time>
      </trkpt>
      <trkpt lat="49.41274" lon="0.1856">
        <ele>21.1</ele>
        <time>2020-06-17T14:59:45Z</time>
      </trkpt>
      <trkpt lat="49.4128" lon="0.18566">
        <ele>21.2</ele>
        <time>2020-06-17T14:59:46Z</time>
      </trkpt>
      <trkpt lat="49.41286" lon="0.18572">
        <ele>21.2</ele>
        <time>2020-06-17T14:59:47Z</time>
      </trkpt>
      <trkpt lat="49.41291" lon="0.18578">
        <ele>21.2</ele>
        <time>2020-06-17T14:59:48Z</time>
      </trkpt>
      <trkpt lat="49.41296" lon="0.18583">
        <ele>21.2</ele>
        <time>2020-06-17T14:59:49Z</time>
      </trkpt>
      <trkpt lat="49.41299" lon="0.18589">
        <ele>21.2</ele>
        <time>2020-06-17T14:59:50Z</time>
      </trkpt>
      <trkpt lat="49.41301" lon="0.18595">
        <ele>21.3</ele>
        <time>2020-06-17T14:59:51Z</time>
      </trkpt>
      <trkpt lat="49.41306" lon="0.18603">
        <ele>21.4</ele>
        <time>2020-06-17T14:59:52Z</time>
      </trkpt>
      <trkpt lat="49.41309" lon="0.18614">
        <ele>21.5</ele>
        <time>2020-06-17T14:59:53Z</time>
      </trkpt>
      <trkpt lat="49.41313" lon="0.18621">
        <ele>21.5</ele>
        <time>2020-06-17T14:59:54Z</time>
      </trkpt>
      <trkpt lat="49.41318" lon="0.1863">
        <ele>21.6</ele>
        <time>2020-06-17T14:59:55Z</time>
      </trkpt>
      <trkpt lat="49.41322" lon="0.18637">
        <ele>21.7</ele>
        <time>2020-06-17T14:59:56Z</time>
      </trkpt>
      <trkpt lat="49.41326" lon="0.18644">
        <ele>21.7</ele>
        <time>2020-06-17T14:59:57Z</time>
      </trkpt>
      <trkpt lat="49.41331" lon="0.18651">
        <ele>21.6</ele>
        <time>2020-06-17T14:59:58Z</time>
      </trkpt>
      <trkpt lat="49.41335" lon="0.18659">
        <ele>21.6</ele>
        <time>2020-06-17T14:59:59Z</time>
      </trkpt>
      <trkpt lat="49.41339" lon="0.18666">
        <ele>21.5</ele>
        <time>2020-06-17T15:00:00Z</time>
      </trkpt>
      <trkpt lat="49.41343" lon="0.18674">
        <ele>21.4</ele>
        <time>2020-06-17T15:00:01Z</time>
      </trkpt>
      <trkpt lat="49.41348" lon="0.18683">
        <ele>21.2</ele>
        <time>2020-06-17T15:00:02Z</time>
      </trkpt>
      <trkpt lat="49.41353" lon="0.18691">
        <ele>21</ele>
        <time>2020-06-17T15:00:03Z</time>
      </trkpt>
      <trkpt lat="49.41357" lon="0.18697">
        <ele>20.8</ele>
        <time>2020-06-17T15:00:04Z</time>
      </trkpt>
      <trkpt lat="49.41363" lon="0.18704">
        <ele>20.6</ele>
        <time>2020-06-17T15:00:05Z</time>
      </trkpt>
      <trkpt lat="49.41369" lon="0.18712">
        <ele>20.4</ele>
        <time>2020-06-17T15:00:06Z</time>
      </trkpt>
      <trkpt lat="49.41375" lon="0.1872">
        <ele>20.2</ele>
        <time>2020-06-17T15:00:07Z</time>
      </trkpt>
      <trkpt lat="49.41381" lon="0.18728">
        <ele>20</ele>
        <time>2020-06-17T15:00:08Z</time>
      </trkpt>
      <trkpt lat="49.41386" lon="0.18735">
        <ele>19.8</ele>
        <time>2020-06-17T15:00:09Z</time>
      </trkpt>
      <trkpt lat="49.41391" lon="0.18742">
        <ele>19.6</ele>
        <time>2020-06-17T15:00:10Z</time>
      </trkpt>
      <trkpt lat="49.41398" lon="0.1875">
        <ele>19.3</ele>
        <time>2020-06-17T15:00:11Z</time>
      </trkpt>
      <trkpt lat="49.41404" lon="0.18757">
        <ele>19.1</ele>
        <time>2020-06-17T15:00:12Z</time>
      </trkpt>
      <trkpt lat="49.41409" lon="0.18765">
        <ele>18.9</ele>
        <time>2020-06-17T15:00:13Z</time>
      </trkpt>
      <trkpt lat="49.41415" lon="0.18772">
        <ele>18.8</ele>
        <time>2020-06-17T15:00:14Z</time>
      </trkpt>
      <trkpt lat="49.41421" lon="0.1878">
        <ele>18.6</ele>
        <time>2020-06-17T15:00:15Z</time>
      </trkpt>
      <trkpt lat="49.41427" lon="0.18785">
        <ele>18.5</ele>
        <time>2020-06-17T15:00:16Z</time>
      </trkpt>
      <trkpt lat="49.41432" lon="0.1879">
        <ele>18.4</ele>
        <time>2020-06-17T15:00:17Z</time>
      </trkpt>
      <trkpt lat="49.41438" lon="0.18794">
        <ele>18.3</ele>
        <time>2020-06-17T15:00:18Z</time>
      </trkpt>
      <trkpt lat="49.41442" lon="0.18799">
        <ele>18.2</ele>
        <time>2020-06-17T15:00:19Z</time>
      </trkpt>
      <trkpt lat="49.41447" lon="0.18804">
        <ele>18.1</ele>
        <time>2020-06-17T15:00:20Z</time>
      </trkpt>
      <trkpt lat="49.41453" lon="0.18809">
        <ele>17.8</ele>
        <time>2020-06-17T15:00:21Z</time>
      </trkpt>
      <trkpt lat="49.41462" lon="0.18815">
        <ele>17.5</ele>
        <time>2020-06-17T15:00:22Z</time>
      </trkpt>
      <trkpt lat="49.41465" lon="0.18818">
        <ele>17.4</ele>
        <time>2020-06-17T15:00:23Z</time>
      </trkpt>
      <trkpt lat="49.41475" lon="0.18826">
        <ele>17.1</ele>
        <time>2020-06-17T15:00:24Z</time>
      </trkpt>
      <trkpt lat="49.41478" lon="0.18829">
        <ele>17</ele>
        <time>2020-06-17T15:00:25Z</time>
      </trkpt>
      <trkpt lat="49.41487" lon="0.18839">
        <ele>16.8</ele>
        <time>2020-06-17T15:00:26Z</time>
      </trkpt>
      <trkpt lat="49.4149" lon="0.18842">
        <ele>16.8</ele>
        <time>2020-06-17T15:00:27Z</time>
      </trkpt>
      <trkpt lat="49.41498" lon="0.18852">
        <ele>16.6</ele>
        <time>2020-06-17T15:00:28Z</time>
      </trkpt>
      <trkpt lat="49.41501" lon="0.18856">
        <ele>16.6</ele>
        <time>2020-06-17T15:00:29Z</time>
      </trkpt>
      <trkpt lat="49.41507" lon="0.18863">
        <ele>16.4</ele>
        <time>2020-06-17T15:00:30Z</time>
      </trkpt>
      <trkpt lat="49.41512" lon="0.18869">
        <ele>16.3</ele>
        <time>2020-06-17T15:00:31Z</time>
      </trkpt>
      <trkpt lat="49.41516" lon="0.18873">
        <ele>16.2</ele>
        <time>2020-06-17T15:00:32Z</time>
      </trkpt>
      <trkpt lat="49.4152" lon="0.18879">
        <ele>16</ele>
        <time>2020-06-17T15:00:33Z</time>
      </trkpt>
      <trkpt lat="49.41525" lon="0.18891">
        <ele>15.7</ele>
        <time>2020-06-17T15:00:34Z</time>
      </trkpt>
      <trkpt lat="49.41531" lon="0.18898">
        <ele>15.5</ele>
        <time>2020-06-17T15:00:35Z</time>
      </trkpt>
      <trkpt lat="49.41537" lon="0.18909">
        <ele>15.1</ele>
        <time>2020-06-17T15:00:36Z</time>
      </trkpt>
      <trkpt lat="49.41543" lon="0.18921">
        <ele>14.8</ele>
        <time>2020-06-17T15:00:37Z</time>
      </trkpt>
      <trkpt lat="49.41549" lon="0.18933">
        <ele>14.6</ele>
        <time>2020-06-17T15:00:38Z</time>
      </trkpt>
      <trkpt lat="49.41556" lon="0.18946">
        <ele>14.3</ele>
        <time>2020-06-17T15:00:39Z</time>
      </trkpt>
      <trkpt lat="49.41561" lon="0.18956">
        <ele>14.2</ele>
        <time>2020-06-17T15:00:40Z</time>
      </trkpt>
      <trkpt lat="49.41566" lon="0.18965">
        <ele>14.1</ele>
        <time>2020-06-17T15:00:41Z</time>
      </trkpt>
      <trkpt lat="49.41571" lon="0.18975">
        <ele>14</ele>
        <time>2020-06-17T15:00:42Z</time>
      </trkpt>
      <trkpt lat="49.41575" lon="0.18987">
        <ele>14</ele>
        <time>2020-06-17T15:00:43Z</time>
      </trkpt>
      <trkpt lat="49.41582" lon="0.18998">
        <ele>13.9</ele>
        <time>2020-06-17T15:00:44Z</time>
      </trkpt>
      <trkpt lat="49.41588" lon="0.19007">
        <ele>13.7</ele>
        <time>2020-06-17T15:00:45Z</time>
      </trkpt>
      <trkpt lat="49.41594" lon="0.19017">
        <ele>13.6</ele>
        <time>2020-06-17T15:00:46Z</time>
      </trkpt>
      <trkpt lat="49.41598" lon="0.19027">
        <ele>13.5</ele>
        <time>2020-06-17T15:00:47Z</time>
      </trkpt>
      <trkpt lat="49.41602" lon="0.19036">
        <ele>13.5</ele>
        <time>2020-06-17T15:00:48Z</time>
      </trkpt>
      <trkpt lat="49.41606" lon="0.19046">
        <ele>13.4</ele>
        <time>2020-06-17T15:00:49Z</time>
      </trkpt>
      <trkpt lat="49.4161" lon="0.19055">
        <ele>13.4</ele>
        <time>2020-06-17T15:00:50Z</time>
      </trkpt>
      <trkpt lat="49.41614" lon="0.19064">
        <ele>13.3</ele>
        <time>2020-06-17T15:00:51Z</time>
      </trkpt>
      <trkpt lat="49.41619" lon="0.19073">
        <ele>13.3</ele>
        <time>2020-06-17T15:00:52Z</time>
      </trkpt>
      <trkpt lat="49.41623" lon="0.1908">
        <ele>13.2</ele>
        <time>2020-06-17T15:00:53Z</time>
      </trkpt>
      <trkpt lat="49.41627" lon="0.19089">
        <ele>13.1</ele>
        <time>2020-06-17T15:00:54Z</time>
      </trkpt>
      <trkpt lat="49.41631" lon="0.19095">
        <ele>13.1</ele>
        <time>2020-06-17T15:00:55Z</time>
      </trkpt>
      <trkpt lat="49.41637" lon="0.19103">
        <ele>13</ele>
        <time>2020-06-17T15:00:56Z</time>
      </trkpt>
      <trkpt lat="49.41642" lon="0.19111">
        <ele>12.9</ele>
        <time>2020-06-17T15:00:57Z</time>
      </trkpt>
      <trkpt lat="49.41646" lon="0.19119">
        <ele>12.8</ele>
        <time>2020-06-17T15:00:58Z</time>
      </trkpt>
      <trkpt lat="49.41652" lon="0.19127">
        <ele>12.7</ele>
        <time>2020-06-17T15:00:59Z</time>
      </trkpt>
      <trkpt lat="49.41656" lon="0.19134">
        <ele>12.7</ele>
        <time>2020-06-17T15:01:00Z</time>
      </trkpt>
      <trkpt lat="49.41661" lon="0.19142">
        <ele>12.6</ele>
        <time>2020-06-17T15:01:01Z</time>
      </trkpt>
      <trkpt lat="49.41666" lon="0.19151">
        <ele>12.5</ele>
        <time>2020-06-17T15:01:02Z</time>
      </trkpt>
      <trkpt lat="49.41672" lon="0.19159">
        <ele>12.4</ele>
        <time>2020-06-17T15:01:03Z</time>
      </trkpt>
      <trkpt lat="49.41676" lon="0.19167">
        <ele>12.4</ele>
        <time>2020-06-17T15:01:04Z</time>
      </trkpt>
      <trkpt lat="49.4168" lon="0.19176">
        <ele>12.3</ele>
        <time>2020-06-17T15:01:05Z</time>
      </trkpt>
      <trkpt lat="49.41685" lon="0.19185">
        <ele>12.3</ele>
        <time>2020-06-17T15:01:06Z</time>
      </trkpt>
      <trkpt lat="49.41689" lon="0.19194">
        <ele>12.2</ele>
        <time>2020-06-17T15:01:07Z</time>
      </trkpt>
      <trkpt lat="49.41693" lon="0.19202">
        <ele>12.1</ele>
        <time>2020-06-17T15:01:08Z</time>
      </trkpt>
      <trkpt lat="49.41697" lon="0.19212">
        <ele>12.1</ele>
        <time>2020-06-17T15:01:09Z</time>
      </trkpt>
      <trkpt lat="49.41701" lon="0.19221">
        <ele>12</ele>
        <time>2020-06-17T15:01:10Z</time>
      </trkpt>
      <trkpt lat="49.41705" lon="0.1923">
        <ele>11.9</ele>
        <time>2020-06-17T15:01:11Z</time>
      </trkpt>
      <trkpt lat="49.41708" lon="0.19239">
        <ele>11.9</ele>
        <time>2020-06-17T15:01:12Z</time>
      </trkpt>
      <trkpt lat="49.41712" lon="0.19248">
        <ele>11.8</ele>
        <time>2020-06-17T15:01:13Z</time>
      </trkpt>
      <trkpt lat="49.41716" lon="0.19256">
        <ele>11.8</ele>
        <time>2020-06-17T15:01:14Z</time>
      </trkpt>
      <trkpt lat="49.4172" lon="0.19265">
        <ele>11.8</ele>
        <time>2020-06-17T15:01:15Z</time>
      </trkpt>
      <trkpt lat="49.41724" lon="0.19274">
        <ele>11.8</ele>
        <time>2020-06-17T15:01:16Z</time>
      </trkpt>
      <trkpt lat="49.41728" lon="0.19283">
        <ele>11.8</ele>
        <time>2020-06-17T15:01:17Z</time>
      </trkpt>
      <trkpt lat="49.41732" lon="0.19292">
        <ele>11.8</ele>
        <time>2020-06-17T15:01:18Z</time>
      </trkpt>
      <trkpt lat="49.41736" lon="0.19301">
        <ele>11.8</ele>
        <time>2020-06-17T15:01:19Z</time>
      </trkpt>
      <trkpt lat="49.41738" lon="0.19309">
        <ele>11.8</ele>
        <time>2020-06-17T15:01:20Z</time>
      </trkpt>
      <trkpt lat="49.41742" lon="0.19318">
        <ele>11.8</ele>
        <time>2020-06-17T15:01:21Z</time>
      </trkpt>
      <trkpt lat="49.41745" lon="0.19327">
        <ele>11.8</ele>
        <time>2020-06-17T15:01:22Z</time>
      </trkpt>
      <trkpt lat="49.41749" lon="0.19335">
        <ele>11.8</ele>
        <time>2020-06-17T15:01:23Z</time>
      </trkpt>
      <trkpt lat="49.41752" lon="0.19342">
        <ele>11.9</ele>
        <time>2020-06-17T15:01:24Z</time>
      </trkpt>
      <trkpt lat="49.41756" lon="0.1935">
        <ele>11.9</ele>
        <time>2020-06-17T15:01:25Z</time>
      </trkpt>
      <trkpt lat="49.4176" lon="0.19358">
        <ele>11.9</ele>
        <time>2020-06-17T15:01:26Z</time>
      </trkpt>
      <trkpt lat="49.41764" lon="0.19366">
        <ele>12</ele>
        <time>2020-06-17T15:01:27Z</time>
      </trkpt>
      <trkpt lat="49.41767" lon="0.19375">
        <ele>12</ele>
        <time>2020-06-17T15:01:28Z</time>
      </trkpt>
      <trkpt lat="49.4177" lon="0.19384">
        <ele>12</ele>
        <time>2020-06-17T15:01:29Z</time>
      </trkpt>
      <trkpt lat="49.41773" lon="0.19392">
        <ele>12.1</ele>
        <time>2020-06-17T15:01:30Z</time>
      </trkpt>
      <trkpt lat="49.41776" lon="0.19401">
        <ele>12.1</ele>
        <time>2020-06-17T15:01:31Z</time>
      </trkpt>
      <trkpt lat="49.41779" lon="0.1941">
        <ele>12.1</ele>
        <time>2020-06-17T15:01:32Z</time>
      </trkpt>
      <trkpt lat="49.41782" lon="0.19418">
        <ele>12.2</ele>
        <time>2020-06-17T15:01:33Z</time>
      </trkpt>
      <trkpt lat="49.41784" lon="0.19426">
        <ele>12.2</ele>
        <time>2020-06-17T15:01:34Z</time>
      </trkpt>
      <trkpt lat="49.41787" lon="0.19434">
        <ele>12.2</ele>
        <time>2020-06-17T15:01:35Z</time>
      </trkpt>
      <trkpt lat="49.41789" lon="0.19442">
        <ele>12.3</ele>
        <time>2020-06-17T15:01:36Z</time>
      </trkpt>
      <trkpt lat="49.41792" lon="0.19451">
        <ele>12.3</ele>
        <time>2020-06-17T15:01:37Z</time>
      </trkpt>
      <trkpt lat="49.41794" lon="0.19459">
        <ele>12.3</ele>
        <time>2020-06-17T15:01:38Z</time>
      </trkpt>
      <trkpt lat="49.41797" lon="0.19468">
        <ele>12.4</ele>
        <time>2020-06-17T15:01:39Z</time>
      </trkpt>
      <trkpt lat="49.41799" lon="0.19477">
        <ele>12.4</ele>
        <time>2020-06-17T15:01:40Z</time>
      </trkpt>
      <trkpt lat="49.41802" lon="0.19485">
        <ele>12.5</ele>
        <time>2020-06-17T15:01:41Z</time>
      </trkpt>
      <trkpt lat="49.41805" lon="0.19494">
        <ele>12.5</ele>
        <time>2020-06-17T15:01:42Z</time>
      </trkpt>
      <trkpt lat="49.41808" lon="0.19501">
        <ele>12.6</ele>
        <time>2020-06-17T15:01:43Z</time>
      </trkpt>
      <trkpt lat="49.41811" lon="0.19509">
        <ele>12.6</ele>
        <time>2020-06-17T15:01:44Z</time>
      </trkpt>
      <trkpt lat="49.41814" lon="0.19517">
        <ele>12.7</ele>
        <time>2020-06-17T15:01:45Z</time>
      </trkpt>
      <trkpt lat="49.41818" lon="0.19524">
        <ele>12.8</ele>
        <time>2020-06-17T15:01:46Z</time>
      </trkpt>
      <trkpt lat="49.41821" lon="0.19531">
        <ele>12.9</ele>
        <time>2020-06-17T15:01:47Z</time>
      </trkpt>
      <trkpt lat="49.41825" lon="0.19538">
        <ele>12.9</ele>
        <time>2020-06-17T15:01:48Z</time>
      </trkpt>
      <trkpt lat="49.41829" lon="0.19544">
        <ele>13</ele>
        <time>2020-06-17T15:01:49Z</time>
      </trkpt>
      <trkpt lat="49.41833" lon="0.19552">
        <ele>13.1</ele>
        <time>2020-06-17T15:01:50Z</time>
      </trkpt>
      <trkpt lat="49.41836" lon="0.19561">
        <ele>13.2</ele>
        <time>2020-06-17T15:01:51Z</time>
      </trkpt>
      <trkpt lat="49.41839" lon="0.19569">
        <ele>13.3</ele>
        <time>2020-06-17T15:01:52Z</time>
      </trkpt>
      <trkpt lat="49.41843" lon="0.19576">
        <ele>13.4</ele>
        <time>2020-06-17T15:01:53Z</time>
      </trkpt>
      <trkpt lat="49.41846" lon="0.19583">
        <ele>13.5</ele>
        <time>2020-06-17T15:01:54Z</time>
      </trkpt>
      <trkpt lat="49.4185" lon="0.1959">
        <ele>13.6</ele>
        <time>2020-06-17T15:01:55Z</time>
      </trkpt>
      <trkpt lat="49.41854" lon="0.19599">
        <ele>13.7</ele>
        <time>2020-06-17T15:01:56Z</time>
      </trkpt>
      <trkpt lat="49.41858" lon="0.19606">
        <ele>13.7</ele>
        <time>2020-06-17T15:01:57Z</time>
      </trkpt>
      <trkpt lat="49.41861" lon="0.19613">
        <ele>13.8</ele>
        <time>2020-06-17T15:01:58Z</time>
      </trkpt>
      <trkpt lat="49.41865" lon="0.19619">
        <ele>13.9</ele>
        <time>2020-06-17T15:01:59Z</time>
      </trkpt>
      <trkpt lat="49.41868" lon="0.19625">
        <ele>14</ele>
        <time>2020-06-17T15:02:00Z</time>
      </trkpt>
      <trkpt lat="49.41872" lon="0.19632">
        <ele>14.1</ele>
        <time>2020-06-17T15:02:01Z</time>
      </trkpt>
      <trkpt lat="49.41876" lon="0.19638">
        <ele>14.2</ele>
        <time>2020-06-17T15:02:02Z</time>
      </trkpt>
      <trkpt lat="49.41879" lon="0.19644">
        <ele>14.4</ele>
        <time>2020-06-17T15:02:03Z</time>
      </trkpt>
      <trkpt lat="49.41883" lon="0.19651">
        <ele>14.6</ele>
        <time>2020-06-17T15:02:04Z</time>
      </trkpt>
      <trkpt lat="49.41886" lon="0.19658">
        <ele>14.9</ele>
        <time>2020-06-17T15:02:05Z</time>
      </trkpt>
      <trkpt lat="49.41888" lon="0.19663">
        <ele>15</ele>
        <time>2020-06-17T15:02:06Z</time>
      </trkpt>
      <trkpt lat="49.4189" lon="0.19671">
        <ele>15.3</ele>
        <time>2020-06-17T15:02:07Z</time>
      </trkpt>
      <trkpt lat="49.41891" lon="0.19677">
        <ele>15.5</ele>
        <time>2020-06-17T15:02:08Z</time>
      </trkpt>
      <trkpt lat="49.41892" lon="0.19684">
        <ele>15.7</ele>
        <time>2020-06-17T15:02:09Z</time>
      </trkpt>
      <trkpt lat="49.41893" lon="0.19692">
        <ele>16.1</ele>
        <time>2020-06-17T15:02:10Z</time>
      </trkpt>
      <trkpt lat="49.41894" lon="0.19698">
        <ele>16.3</ele>
        <time>2020-06-17T15:02:11Z</time>
      </trkpt>
      <trkpt lat="49.41894" lon="0.19706">
        <ele>16.6</ele>
        <time>2020-06-17T15:02:12Z</time>
      </trkpt>
      <trkpt lat="49.41894" lon="0.19713">
        <ele>16.9</ele>
        <time>2020-06-17T15:02:13Z</time>
      </trkpt>
      <trkpt lat="49.41895" lon="0.1972">
        <ele>17.2</ele>
        <time>2020-06-17T15:02:14Z</time>
      </trkpt>
      <trkpt lat="49.41896" lon="0.19725">
        <ele>17.4</ele>
        <time>2020-06-17T15:02:15Z</time>
      </trkpt>
      <trkpt lat="49.41897" lon="0.19732">
        <ele>17.6</ele>
        <time>2020-06-17T15:02:16Z</time>
      </trkpt>
      <trkpt lat="49.41898" lon="0.19735">
        <ele>17.7</ele>
        <time>2020-06-17T15:02:17Z</time>
      </trkpt>
      <trkpt lat="49.41899" lon="0.1974">
        <ele>18</ele>
        <time>2020-06-17T15:02:18Z</time>
      </trkpt>
      <trkpt lat="49.419" lon="0.19745">
        <ele>18.2</ele>
        <time>2020-06-17T15:02:19Z</time>
      </trkpt>
      <trkpt lat="49.41901" lon="0.19752">
        <ele>18.4</ele>
        <time>2020-06-17T15:02:20Z</time>
      </trkpt>
      <trkpt lat="49.41902" lon="0.19758">
        <ele>18.6</ele>
        <time>2020-06-17T15:02:21Z</time>
      </trkpt>
      <trkpt lat="49.41903" lon="0.19766">
        <ele>18.9</ele>
        <time>2020-06-17T15:02:22Z</time>
      </trkpt>
      <trkpt lat="49.41903" lon="0.19772">
        <ele>19.1</ele>
        <time>2020-06-17T15:02:23Z</time>
      </trkpt>
      <trkpt lat="49.41904" lon="0.1978">
        <ele>19.3</ele>
        <time>2020-06-17T15:02:24Z</time>
      </trkpt>
      <trkpt lat="49.41905" lon="0.19787">
        <ele>19.5</ele>
        <time>2020-06-17T15:02:25Z</time>
      </trkpt>
      <trkpt lat="49.41906" lon="0.19794">
        <ele>19.8</ele>
        <time>2020-06-17T15:02:26Z</time>
      </trkpt>
      <trkpt lat="49.41906" lon="0.198">
        <ele>19.9</ele>
        <time>2020-06-17T15:02:27Z</time>
      </trkpt>
      <trkpt lat="49.41906" lon="0.19807">
        <ele>20.2</ele>
        <time>2020-06-17T15:02:28Z</time>
      </trkpt>
      <trkpt lat="49.41905" lon="0.19815">
        <ele>20.4</ele>
        <time>2020-06-17T15:02:29Z</time>
      </trkpt>
      <trkpt lat="49.41903" lon="0.19822">
        <ele>20.6</ele>
        <time>2020-06-17T15:02:30Z</time>
      </trkpt>
      <trkpt lat="49.419" lon="0.19829">
        <ele>20.8</ele>
        <time>2020-06-17T15:02:31Z</time>
      </trkpt>
      <trkpt lat="49.41897" lon="0.19835">
        <ele>21</ele>
        <time>2020-06-17T15:02:32Z</time>
      </trkpt>
      <trkpt lat="49.41894" lon="0.19842">
        <ele>21.3</ele>
        <time>2020-06-17T15:02:33Z</time>
      </trkpt>
      <trkpt lat="49.41891" lon="0.19848">
        <ele>21.5</ele>
        <time>2020-06-17T15:02:34Z</time>
      </trkpt>
      <trkpt lat="49.41888" lon="0.19852">
        <ele>21.7</ele>
        <time>2020-06-17T15:02:35Z</time>
      </trkpt>
      <trkpt lat="49.41887" lon="0.19857">
        <ele>21.9</ele>
        <time>2020-06-17T15:02:36Z</time>
      </trkpt>
      <trkpt lat="49.41884" lon="0.19862">
        <ele>22.1</ele>
        <time>2020-06-17T15:02:37Z</time>
      </trkpt>
      <trkpt lat="49.41882" lon="0.19869">
        <ele>22.4</ele>
        <time>2020-06-17T15:02:38Z</time>
      </trkpt>
      <trkpt lat="49.41879" lon="0.19875">
        <ele>22.7</ele>
        <time>2020-06-17T15:02:39Z</time>
      </trkpt>
      <trkpt lat="49.41876" lon="0.19881">
        <ele>23</ele>
        <time>2020-06-17T15:02:40Z</time>
      </trkpt>
      <trkpt lat="49.41873" lon="0.19886">
        <ele>23.4</ele>
        <time>2020-06-17T15:02:41Z</time>
      </trkpt>
      <trkpt lat="49.41869" lon="0.1989">
        <ele>23.7</ele>
        <time>2020-06-17T15:02:42Z</time>
      </trkpt>
      <trkpt lat="49.41868" lon="0.19892">
        <ele>23.8</ele>
        <time>2020-06-17T15:02:43Z</time>
      </trkpt>
      <trkpt lat="49.41866" lon="0.19896">
        <ele>24.1</ele>
        <time>2020-06-17T15:02:44Z</time>
      </trkpt>
      <trkpt lat="49.41864" lon="0.19899">
        <ele>24.4</ele>
        <time>2020-06-17T15:02:45Z</time>
      </trkpt>
      <trkpt lat="49.41861" lon="0.19904">
        <ele>24.8</ele>
        <time>2020-06-17T15:02:46Z</time>
      </trkpt>
      <trkpt lat="49.4186" lon="0.19906">
        <ele>24.9</ele>
        <time>2020-06-17T15:02:47Z</time>
      </trkpt>
      <trkpt lat="49.41857" lon="0.19909">
        <ele>25.2</ele>
        <time>2020-06-17T15:02:48Z</time>
      </trkpt>
      <trkpt lat="49.41855" lon="0.19914">
        <ele>25.6</ele>
        <time>2020-06-17T15:02:49Z</time>
      </trkpt>
      <trkpt lat="49.41853" lon="0.19916">
        <ele>25.8</ele>
        <time>2020-06-17T15:02:50Z</time>
      </trkpt>
      <trkpt lat="49.41851" lon="0.19918">
        <ele>26.1</ele>
        <time>2020-06-17T15:02:51Z</time>
      </trkpt>
      <trkpt lat="49.41849" lon="0.19922">
        <ele>26.4</ele>
        <time>2020-06-17T15:02:52Z</time>
      </trkpt>
      <trkpt lat="49.41848" lon="0.19923">
        <ele>26.5</ele>
        <time>2020-06-17T15:02:53Z</time>
      </trkpt>
      <trkpt lat="49.41845" lon="0.19928">
        <ele>26.9</ele>
        <time>2020-06-17T15:02:54Z</time>
      </trkpt>
      <trkpt lat="49.41844" lon="0.19929">
        <ele>27.1</ele>
        <time>2020-06-17T15:02:55Z</time>
      </trkpt>
      <trkpt lat="49.41841" lon="0.19932">
        <ele>27.4</ele>
        <time>2020-06-17T15:02:56Z</time>
      </trkpt>
      <trkpt lat="49.41839" lon="0.19936">
        <ele>27.8</ele>
        <time>2020-06-17T15:02:57Z</time>
      </trkpt>
      <trkpt lat="49.41837" lon="0.1994">
        <ele>28</ele>
        <time>2020-06-17T15:02:58Z</time>
      </trkpt>
      <trkpt lat="49.41834" lon="0.19944">
        <ele>28.4</ele>
        <time>2020-06-17T15:02:59Z</time>
      </trkpt>
      <trkpt lat="49.41831" lon="0.19948">
        <ele>28.7</ele>
        <time>2020-06-17T15:03:00Z</time>
      </trkpt>
      <trkpt lat="49.41829" lon="0.19952">
        <ele>29</ele>
        <time>2020-06-17T15:03:01Z</time>
      </trkpt>
      <trkpt lat="49.41827" lon="0.19955">
        <ele>29.3</ele>
        <time>2020-06-17T15:03:02Z</time>
      </trkpt>
      <trkpt lat="49.41824" lon="0.19959">
        <ele>29.6</ele>
        <time>2020-06-17T15:03:03Z</time>
      </trkpt>
      <trkpt lat="49.41823" lon="0.1996">
        <ele>29.7</ele>
        <time>2020-06-17T15:03:04Z</time>
      </trkpt>
      <trkpt lat="49.4182" lon="0.19963">
        <ele>30.1</ele>
        <time>2020-06-17T15:03:05Z</time>
      </trkpt>
      <trkpt lat="49.41819" lon="0.19964">
        <ele>30.2</ele>
        <time>2020-06-17T15:03:06Z</time>
      </trkpt>
      <trkpt lat="49.41816" lon="0.19968">
        <ele>30.6</ele>
        <time>2020-06-17T15:03:07Z</time>
      </trkpt>
      <trkpt lat="49.41813" lon="0.19971">
        <ele>30.8</ele>
        <time>2020-06-17T15:03:08Z</time>
      </trkpt>
      <trkpt lat="49.41812" lon="0.19976">
        <ele>31</ele>
        <time>2020-06-17T15:03:09Z</time>
      </trkpt>
      <trkpt lat="49.41809" lon="0.1998">
        <ele>31.2</ele>
        <time>2020-06-17T15:03:10Z</time>
      </trkpt>
      <trkpt lat="49.41807" lon="0.19982">
        <ele>31.3</ele>
        <time>2020-06-17T15:03:11Z</time>
      </trkpt>
      <trkpt lat="49.41805" lon="0.19985">
        <ele>31.4</ele>
        <time>2020-06-17T15:03:12Z</time>
      </trkpt>
      <trkpt lat="49.41803" lon="0.19988">
        <ele>31.5</ele>
        <time>2020-06-17T15:03:13Z</time>
      </trkpt>
      <trkpt lat="49.41801" lon="0.19994">
        <ele>31.7</ele>
        <time>2020-06-17T15:03:14Z</time>
      </trkpt>
      <trkpt lat="49.418" lon="0.19996">
        <ele>31.8</ele>
        <time>2020-06-17T15:03:15Z</time>
      </trkpt>
      <trkpt lat="49.41798" lon="0.2">
        <ele>31.9</ele>
        <time>2020-06-17T15:03:16Z</time>
      </trkpt>
      <trkpt lat="49.41797" lon="0.20004">
        <ele>32</ele>
        <time>2020-06-17T15:03:17Z</time>
      </trkpt>
      <trkpt lat="49.41797" lon="0.20006">
        <ele>32.1</ele>
        <time>2020-06-17T15:03:18Z</time>
      </trkpt>
      <trkpt lat="49.41797" lon="0.20013">
        <ele>32.3</ele>
        <time>2020-06-17T15:03:19Z</time>
      </trkpt>
      <trkpt lat="49.41796" lon="0.20017">
        <ele>32.5</ele>
        <time>2020-06-17T15:03:20Z</time>
      </trkpt>
      <trkpt lat="49.41794" lon="0.20021">
        <ele>32.6</ele>
        <time>2020-06-17T15:03:21Z</time>
      </trkpt>
      <trkpt lat="49.41793" lon="0.20027">
        <ele>32.8</ele>
        <time>2020-06-17T15:03:22Z</time>
      </trkpt>
      <trkpt lat="49.41793" lon="0.20029">
        <ele>32.8</ele>
        <time>2020-06-17T15:03:23Z</time>
      </trkpt>
      <trkpt lat="49.41793" lon="0.20033">
        <ele>33</ele>
        <time>2020-06-17T15:03:24Z</time>
      </trkpt>
      <trkpt lat="49.41792" lon="0.2004">
        <ele>33.1</ele>
        <time>2020-06-17T15:03:25Z</time>
      </trkpt>
      <trkpt lat="49.41792" lon="0.20045">
        <ele>33.3</ele>
        <time>2020-06-17T15:03:26Z</time>
      </trkpt>
      <trkpt lat="49.41793" lon="0.20051">
        <ele>33.4</ele>
        <time>2020-06-17T15:03:27Z</time>
      </trkpt>
      <trkpt lat="49.41794" lon="0.20057">
        <ele>33.5</ele>
        <time>2020-06-17T15:03:28Z</time>
      </trkpt>
      <trkpt lat="49.41794" lon="0.20061">
        <ele>33.5</ele>
        <time>2020-06-17T15:03:29Z</time>
      </trkpt>
      <trkpt lat="49.41795" lon="0.20066">
        <ele>33.5</ele>
        <time>2020-06-17T15:03:30Z</time>
      </trkpt>
      <trkpt lat="49.41795" lon="0.2007">
        <ele>33.5</ele>
        <time>2020-06-17T15:03:31Z</time>
      </trkpt>
      <trkpt lat="49.41795" lon="0.20074">
        <ele>33.6</ele>
        <time>2020-06-17T15:03:32Z</time>
      </trkpt>
      <trkpt lat="49.41794" lon="0.20082">
        <ele>33.6</ele>
        <time>2020-06-17T15:03:33Z</time>
      </trkpt>
      <trkpt lat="49.41794" lon="0.20087">
        <ele>33.6</ele>
        <time>2020-06-17T15:03:34Z</time>
      </trkpt>
      <trkpt lat="49.41795" lon="0.20091">
        <ele>33.3</ele>
        <time>2020-06-17T15:03:35Z</time>
      </trkpt>
      <trkpt lat="49.41797" lon="0.20096">
        <ele>33.1</ele>
        <time>2020-06-17T15:03:36Z</time>
      </trkpt>
      <trkpt lat="49.41799" lon="0.20104">
        <ele>32.8</ele>
        <time>2020-06-17T15:03:37Z</time>
      </trkpt>
      <trkpt lat="49.41802" lon="0.20112">
        <ele>32.4</ele>
        <time>2020-06-17T15:03:38Z</time>
      </trkpt>
      <trkpt lat="49.41805" lon="0.20117">
        <ele>32.1</ele>
        <time>2020-06-17T15:03:39Z</time>
      </trkpt>
      <trkpt lat="49.41808" lon="0.20125">
        <ele>31.6</ele>
        <time>2020-06-17T15:03:40Z</time>
      </trkpt>
      <trkpt lat="49.41812" lon="0.20134">
        <ele>31</ele>
        <time>2020-06-17T15:03:41Z</time>
      </trkpt>
      <trkpt lat="49.41815" lon="0.20142">
        <ele>30.5</ele>
        <time>2020-06-17T15:03:42Z</time>
      </trkpt>
      <trkpt lat="49.4182" lon="0.20154">
        <ele>29.7</ele>
        <time>2020-06-17T15:03:43Z</time>
      </trkpt>
      <trkpt lat="49.41823" lon="0.20165">
        <ele>29</ele>
        <time>2020-06-17T15:03:44Z</time>
      </trkpt>
      <trkpt lat="49.41827" lon="0.20178">
        <ele>28.3</ele>
        <time>2020-06-17T15:03:45Z</time>
      </trkpt>
      <trkpt lat="49.41832" lon="0.2019">
        <ele>27.6</ele>
        <time>2020-06-17T15:03:46Z</time>
      </trkpt>
      <trkpt lat="49.41836" lon="0.20204">
        <ele>27</ele>
        <time>2020-06-17T15:03:47Z</time>
      </trkpt>
      <trkpt lat="49.41841" lon="0.20217">
        <ele>26.6</ele>
        <time>2020-06-17T15:03:48Z</time>
      </trkpt>
      <trkpt lat="49.41845" lon="0.2023">
        <ele>26.2</ele>
        <time>2020-06-17T15:03:49Z</time>
      </trkpt>
      <trkpt lat="49.4185" lon="0.20244">
        <ele>25.9</ele>
        <time>2020-06-17T15:03:50Z</time>
      </trkpt>
      <trkpt lat="49.41853" lon="0.20255">
        <ele>25.8</ele>
        <time>2020-06-17T15:03:51Z</time>
      </trkpt>
      <trkpt lat="49.41856" lon="0.20267">
        <ele>25.7</ele>
        <time>2020-06-17T15:03:52Z</time>
      </trkpt>
      <trkpt lat="49.41858" lon="0.20279">
        <ele>25.7</ele>
        <time>2020-06-17T15:03:53Z</time>
      </trkpt>
      <trkpt lat="49.41861" lon="0.20291">
        <ele>25.8</ele>
        <time>2020-06-17T15:03:54Z</time>
      </trkpt>
      <trkpt lat="49.41864" lon="0.20303">
        <ele>25.9</ele>
        <time>2020-06-17T15:03:55Z</time>
      </trkpt>
      <trkpt lat="49.41867" lon="0.20313">
        <ele>26.1</ele>
        <time>2020-06-17T15:03:56Z</time>
      </trkpt>
      <trkpt lat="49.41871" lon="0.20324">
        <ele>26.3</ele>
        <time>2020-06-17T15:03:57Z</time>
      </trkpt>
      <trkpt lat="49.41875" lon="0.20334">
        <ele>26.5</ele>
        <time>2020-06-17T15:03:58Z</time>
      </trkpt>
      <trkpt lat="49.41879" lon="0.20343">
        <ele>26.8</ele>
        <time>2020-06-17T15:03:59Z</time>
      </trkpt>
      <trkpt lat="49.41882" lon="0.20352">
        <ele>27.1</ele>
        <time>2020-06-17T15:04:00Z</time>
      </trkpt>
      <trkpt lat="49.41886" lon="0.20359">
        <ele>27.4</ele>
        <time>2020-06-17T15:04:01Z</time>
      </trkpt>
      <trkpt lat="49.4189" lon="0.20367">
        <ele>27.6</ele>
        <time>2020-06-17T15:04:02Z</time>
      </trkpt>
      <trkpt lat="49.41893" lon="0.20373">
        <ele>27.9</ele>
        <time>2020-06-17T15:04:03Z</time>
      </trkpt>
      <trkpt lat="49.41897" lon="0.20379">
        <ele>28.1</ele>
        <time>2020-06-17T15:04:04Z</time>
      </trkpt>
      <trkpt lat="49.41901" lon="0.20384">
        <ele>28.3</ele>
        <time>2020-06-17T15:04:05Z</time>
      </trkpt>
      <trkpt lat="49.41905" lon="0.2039">
        <ele>28.6</ele>
        <time>2020-06-17T15:04:06Z</time>
      </trkpt>
      <trkpt lat="49.41909" lon="0.20395">
        <ele>28.8</ele>
        <time>2020-06-17T15:04:07Z</time>
      </trkpt>
      <trkpt lat="49.41913" lon="0.20399">
        <ele>29</ele>
        <time>2020-06-17T15:04:08Z</time>
      </trkpt>
      <trkpt lat="49.41917" lon="0.20403">
        <ele>29.2</ele>
        <time>2020-06-17T15:04:09Z</time>
      </trkpt>
      <trkpt lat="49.41921" lon="0.20407">
        <ele>29.3</ele>
        <time>2020-06-17T15:04:10Z</time>
      </trkpt>
      <trkpt lat="49.41926" lon="0.20413">
        <ele>29.5</ele>
        <time>2020-06-17T15:04:11Z</time>
      </trkpt>
      <trkpt lat="49.4193" lon="0.20419">
        <ele>29.7</ele>
        <time>2020-06-17T15:04:12Z</time>
      </trkpt>
      <trkpt lat="49.41934" lon="0.20423">
        <ele>29.8</ele>
        <time>2020-06-17T15:04:13Z</time>
      </trkpt>
      <trkpt lat="49.41938" lon="0.20426">
        <ele>29.8</ele>
        <time>2020-06-17T15:04:14Z</time>
      </trkpt>
      <trkpt lat="49.41942" lon="0.20429">
        <ele>30</ele>
        <time>2020-06-17T15:04:15Z</time>
      </trkpt>
      <trkpt lat="49.41947" lon="0.20433">
        <ele>30.1</ele>
        <time>2020-06-17T15:04:16Z</time>
      </trkpt>
      <trkpt lat="49.41951" lon="0.20437">
        <ele>30.2</ele>
        <time>2020-06-17T15:04:17Z</time>
      </trkpt>
      <trkpt lat="49.41956" lon="0.2044">
        <ele>30.3</ele>
        <time>2020-06-17T15:04:18Z</time>
      </trkpt>
      <trkpt lat="49.41961" lon="0.20444">
        <ele>30.3</ele>
        <time>2020-06-17T15:04:19Z</time>
      </trkpt>
      <trkpt lat="49.41967" lon="0.20449">
        <ele>30.3</ele>
        <time>2020-06-17T15:04:20Z</time>
      </trkpt>
      <trkpt lat="49.41973" lon="0.20454">
        <ele>30.4</ele>
        <time>2020-06-17T15:04:21Z</time>
      </trkpt>
      <trkpt lat="49.41979" lon="0.20459">
        <ele>30.4</ele>
        <time>2020-06-17T15:04:22Z</time>
      </trkpt>
      <trkpt lat="49.41985" lon="0.20466">
        <ele>30.4</ele>
        <time>2020-06-17T15:04:23Z</time>
      </trkpt>
      <trkpt lat="49.41991" lon="0.2047">
        <ele>30.4</ele>
        <time>2020-06-17T15:04:24Z</time>
      </trkpt>
      <trkpt lat="49.41996" lon="0.20477">
        <ele>30.4</ele>
        <time>2020-06-17T15:04:25Z</time>
      </trkpt>
      <trkpt lat="49.42002" lon="0.20481">
        <ele>30.3</ele>
        <time>2020-06-17T15:04:26Z</time>
      </trkpt>
      <trkpt lat="49.42006" lon="0.20485">
        <ele>30.3</ele>
        <time>2020-06-17T15:04:27Z</time>
      </trkpt>
      <trkpt lat="49.42011" lon="0.20489">
        <ele>30.2</ele>
        <time>2020-06-17T15:04:28Z</time>
      </trkpt>
      <trkpt lat="49.42017" lon="0.20495">
        <ele>30.1</ele>
        <time>2020-06-17T15:04:29Z</time>
      </trkpt>
      <trkpt lat="49.42023" lon="0.20502">
        <ele>30</ele>
        <time>2020-06-17T15:04:30Z</time>
      </trkpt>
      <trkpt lat="49.42029" lon="0.2051">
        <ele>29.9</ele>
        <time>2020-06-17T15:04:31Z</time>
      </trkpt>
      <trkpt lat="49.42035" lon="0.20517">
        <ele>29.7</ele>
        <time>2020-06-17T15:04:32Z</time>
      </trkpt>
      <trkpt lat="49.42039" lon="0.20524">
        <ele>29.6</ele>
        <time>2020-06-17T15:04:33Z</time>
      </trkpt>
      <trkpt lat="49.42044" lon="0.20532">
        <ele>29.4</ele>
        <time>2020-06-17T15:04:34Z</time>
      </trkpt>
      <trkpt lat="49.42049" lon="0.20539">
        <ele>29.2</ele>
        <time>2020-06-17T15:04:35Z</time>
      </trkpt>
      <trkpt lat="49.42054" lon="0.20546">
        <ele>29</ele>
        <time>2020-06-17T15:04:36Z</time>
      </trkpt>
      <trkpt lat="49.42058" lon="0.20552">
        <ele>28.8</ele>
        <time>2020-06-17T15:04:37Z</time>
      </trkpt>
      <trkpt lat="49.42063" lon="0.2056">
        <ele>28.6</ele>
        <time>2020-06-17T15:04:38Z</time>
      </trkpt>
      <trkpt lat="49.42068" lon="0.20568">
        <ele>28.3</ele>
        <time>2020-06-17T15:04:39Z</time>
      </trkpt>
      <trkpt lat="49.42073" lon="0.20577">
        <ele>28.1</ele>
        <time>2020-06-17T15:04:40Z</time>
      </trkpt>
      <trkpt lat="49.42078" lon="0.20585">
        <ele>27.9</ele>
        <time>2020-06-17T15:04:41Z</time>
      </trkpt>
      <trkpt lat="49.42081" lon="0.20594">
        <ele>27.7</ele>
        <time>2020-06-17T15:04:42Z</time>
      </trkpt>
      <trkpt lat="49.42085" lon="0.20603">
        <ele>27.5</ele>
        <time>2020-06-17T15:04:43Z</time>
      </trkpt>
      <trkpt lat="49.42088" lon="0.20613">
        <ele>27.3</ele>
        <time>2020-06-17T15:04:44Z</time>
      </trkpt>
      <trkpt lat="49.42091" lon="0.20623">
        <ele>27.1</ele>
        <time>2020-06-17T15:04:45Z</time>
      </trkpt>
      <trkpt lat="49.42095" lon="0.20633">
        <ele>26.9</ele>
        <time>2020-06-17T15:04:46Z</time>
      </trkpt>
      <trkpt lat="49.42098" lon="0.20642">
        <ele>26.8</ele>
        <time>2020-06-17T15:04:47Z</time>
      </trkpt>
      <trkpt lat="49.42103" lon="0.2065">
        <ele>26.6</ele>
        <time>2020-06-17T15:04:48Z</time>
      </trkpt>
      <trkpt lat="49.42107" lon="0.20659">
        <ele>26.4</ele>
        <time>2020-06-17T15:04:49Z</time>
      </trkpt>
      <trkpt lat="49.42111" lon="0.20667">
        <ele>26.3</ele>
        <time>2020-06-17T15:04:50Z</time>
      </trkpt>
      <trkpt lat="49.42115" lon="0.20675">
        <ele>26.1</ele>
        <time>2020-06-17T15:04:51Z</time>
      </trkpt>
      <trkpt lat="49.4212" lon="0.20683">
        <ele>25.9</ele>
        <time>2020-06-17T15:04:52Z</time>
      </trkpt>
      <trkpt lat="49.42126" lon="0.2069">
        <ele>25.6</ele>
        <time>2020-06-17T15:04:53Z</time>
      </trkpt>
      <trkpt lat="49.42131" lon="0.20696">
        <ele>25.4</ele>
        <time>2020-06-17T15:04:54Z</time>
      </trkpt>
      <trkpt lat="49.42137" lon="0.20701">
        <ele>25.2</ele>
        <time>2020-06-17T15:04:55Z</time>
      </trkpt>
      <trkpt lat="49.42143" lon="0.20707">
        <ele>24.9</ele>
        <time>2020-06-17T15:04:56Z</time>
      </trkpt>
      <trkpt lat="49.4215" lon="0.20711">
        <ele>24.6</ele>
        <time>2020-06-17T15:04:57Z</time>
      </trkpt>
      <trkpt lat="49.42156" lon="0.20717">
        <ele>24.3</ele>
        <time>2020-06-17T15:04:58Z</time>
      </trkpt>
      <trkpt lat="49.42163" lon="0.20722">
        <ele>24</ele>
        <time>2020-06-17T15:04:59Z</time>
      </trkpt>
      <trkpt lat="49.42169" lon="0.20727">
        <ele>23.7</ele>
        <time>2020-06-17T15:05:00Z</time>
      </trkpt>
      <trkpt lat="49.42176" lon="0.20732">
        <ele>23.5</ele>
        <time>2020-06-17T15:05:01Z</time>
      </trkpt>
      <trkpt lat="49.42182" lon="0.20737">
        <ele>23.2</ele>
        <time>2020-06-17T15:05:02Z</time>
      </trkpt>
      <trkpt lat="49.42189" lon="0.2074">
        <ele>23</ele>
        <time>2020-06-17T15:05:03Z</time>
      </trkpt>
      <trkpt lat="49.42197" lon="0.20744">
        <ele>22.8</ele>
        <time>2020-06-17T15:05:04Z</time>
      </trkpt>
      <trkpt lat="49.42203" lon="0.20751">
        <ele>22.5</ele>
        <time>2020-06-17T15:05:05Z</time>
      </trkpt>
      <trkpt lat="49.42208" lon="0.20759">
        <ele>22.2</ele>
        <time>2020-06-17T15:05:06Z</time>
      </trkpt>
      <trkpt lat="49.42211" lon="0.20769">
        <ele>22</ele>
        <time>2020-06-17T15:05:07Z</time>
      </trkpt>
      <trkpt lat="49.42214" lon="0.2078">
        <ele>21.7</ele>
        <time>2020-06-17T15:05:08Z</time>
      </trkpt>
      <trkpt lat="49.42217" lon="0.2079">
        <ele>21.5</ele>
        <time>2020-06-17T15:05:09Z</time>
      </trkpt>
      <trkpt lat="49.4222" lon="0.20801">
        <ele>21.3</ele>
        <time>2020-06-17T15:05:10Z</time>
      </trkpt>
      <trkpt lat="49.42223" lon="0.20811">
        <ele>21.2</ele>
        <time>2020-06-17T15:05:11Z</time>
      </trkpt>
      <trkpt lat="49.42226" lon="0.20821">
        <ele>21</ele>
        <time>2020-06-17T15:05:12Z</time>
      </trkpt>
      <trkpt lat="49.42229" lon="0.20831">
        <ele>20.8</ele>
        <time>2020-06-17T15:05:13Z</time>
      </trkpt>
      <trkpt lat="49.42232" lon="0.20841">
        <ele>20.7</ele>
        <time>2020-06-17T15:05:14Z</time>
      </trkpt>
      <trkpt lat="49.42235" lon="0.20851">
        <ele>20.6</ele>
        <time>2020-06-17T15:05:15Z</time>
      </trkpt>
      <trkpt lat="49.42239" lon="0.20861">
        <ele>20.4</ele>
        <time>2020-06-17T15:05:16Z</time>
      </trkpt>
      <trkpt lat="49.42242" lon="0.20871">
        <ele>20.2</ele>
        <time>2020-06-17T15:05:17Z</time>
      </trkpt>
      <trkpt lat="49.42246" lon="0.20881">
        <ele>20</ele>
        <time>2020-06-17T15:05:18Z</time>
      </trkpt>
      <trkpt lat="49.4225" lon="0.20891">
        <ele>19.9</ele>
        <time>2020-06-17T15:05:19Z</time>
      </trkpt>
      <trkpt lat="49.42254" lon="0.20902">
        <ele>19.8</ele>
        <time>2020-06-17T15:05:20Z</time>
      </trkpt>
      <trkpt lat="49.42257" lon="0.20912">
        <ele>19.7</ele>
        <time>2020-06-17T15:05:21Z</time>
      </trkpt>
      <trkpt lat="49.42261" lon="0.20923">
        <ele>19.5</ele>
        <time>2020-06-17T15:05:22Z</time>
      </trkpt>
      <trkpt lat="49.42265" lon="0.20933">
        <ele>19.4</ele>
        <time>2020-06-17T15:05:23Z</time>
      </trkpt>
      <trkpt lat="49.42268" lon="0.20944">
        <ele>19.3</ele>
        <time>2020-06-17T15:05:24Z</time>
      </trkpt>
      <trkpt lat="49.42273" lon="0.20954">
        <ele>19.2</ele>
        <time>2020-06-17T15:05:25Z</time>
      </trkpt>
      <trkpt lat="49.42278" lon="0.20963">
        <ele>19.1</ele>
        <time>2020-06-17T15:05:26Z</time>
      </trkpt>
      <trkpt lat="49.42283" lon="0.20973">
        <ele>19</ele>
        <time>2020-06-17T15:05:27Z</time>
      </trkpt>
      <trkpt lat="49.42288" lon="0.20982">
        <ele>18.9</ele>
        <time>2020-06-17T15:05:28Z</time>
      </trkpt>
      <trkpt lat="49.42293" lon="0.2099">
        <ele>18.7</ele>
        <time>2020-06-17T15:05:29Z</time>
      </trkpt>
      <trkpt lat="49.42298" lon="0.20999">
        <ele>18.6</ele>
        <time>2020-06-17T15:05:30Z</time>
      </trkpt>
      <trkpt lat="49.42303" lon="0.21009">
        <ele>18.4</ele>
        <time>2020-06-17T15:05:31Z</time>
      </trkpt>
      <trkpt lat="49.42308" lon="0.21018">
        <ele>18.3</ele>
        <time>2020-06-17T15:05:32Z</time>
      </trkpt>
      <trkpt lat="49.42313" lon="0.21027">
        <ele>18.2</ele>
        <time>2020-06-17T15:05:33Z</time>
      </trkpt>
      <trkpt lat="49.42319" lon="0.21036">
        <ele>18</ele>
        <time>2020-06-17T15:05:34Z</time>
      </trkpt>
      <trkpt lat="49.42323" lon="0.21045">
        <ele>17.9</ele>
        <time>2020-06-17T15:05:35Z</time>
      </trkpt>
      <trkpt lat="49.42328" lon="0.21054">
        <ele>17.8</ele>
        <time>2020-06-17T15:05:36Z</time>
      </trkpt>
      <trkpt lat="49.42332" lon="0.21064">
        <ele>17.6</ele>
        <time>2020-06-17T15:05:37Z</time>
      </trkpt>
      <trkpt lat="49.42336" lon="0.21074">
        <ele>17.3</ele>
        <time>2020-06-17T15:05:38Z</time>
      </trkpt>
      <trkpt lat="49.4234" lon="0.21085">
        <ele>17.1</ele>
        <time>2020-06-17T15:05:39Z</time>
      </trkpt>
      <trkpt lat="49.42344" lon="0.21095">
        <ele>16.8</ele>
        <time>2020-06-17T15:05:40Z</time>
      </trkpt>
      <trkpt lat="49.42348" lon="0.21104">
        <ele>16.6</ele>
        <time>2020-06-17T15:05:41Z</time>
      </trkpt>
      <trkpt lat="49.42353" lon="0.21114">
        <ele>16.3</ele>
        <time>2020-06-17T15:05:42Z</time>
      </trkpt>
      <trkpt lat="49.42357" lon="0.21123">
        <ele>16.1</ele>
        <time>2020-06-17T15:05:43Z</time>
      </trkpt>
      <trkpt lat="49.42362" lon="0.21133">
        <ele>15.8</ele>
        <time>2020-06-17T15:05:44Z</time>
      </trkpt>
      <trkpt lat="49.42366" lon="0.21143">
        <ele>15.5</ele>
        <time>2020-06-17T15:05:45Z</time>
      </trkpt>
      <trkpt lat="49.42371" lon="0.21152">
        <ele>15.2</ele>
        <time>2020-06-17T15:05:46Z</time>
      </trkpt>
      <trkpt lat="49.42375" lon="0.21161">
        <ele>14.8</ele>
        <time>2020-06-17T15:05:47Z</time>
      </trkpt>
      <trkpt lat="49.4238" lon="0.2117">
        <ele>14.5</ele>
        <time>2020-06-17T15:05:48Z</time>
      </trkpt>
      <trkpt lat="49.42384" lon="0.2118">
        <ele>14.1</ele>
        <time>2020-06-17T15:05:49Z</time>
      </trkpt>
      <trkpt lat="49.42388" lon="0.2119">
        <ele>13.8</ele>
        <time>2020-06-17T15:05:50Z</time>
      </trkpt>
      <trkpt lat="49.42393" lon="0.21199">
        <ele>13.4</ele>
        <time>2020-06-17T15:05:51Z</time>
      </trkpt>
      <trkpt lat="49.42396" lon="0.21209">
        <ele>13.1</ele>
        <time>2020-06-17T15:05:52Z</time>
      </trkpt>
      <trkpt lat="49.424" lon="0.21219">
        <ele>12.8</ele>
        <time>2020-06-17T15:05:53Z</time>
      </trkpt>
      <trkpt lat="49.42404" lon="0.21228">
        <ele>12.5</ele>
        <time>2020-06-17T15:05:54Z</time>
      </trkpt>
      <trkpt lat="49.42407" lon="0.21239">
        <ele>12.2</ele>
        <time>2020-06-17T15:05:55Z</time>
      </trkpt>
      <trkpt lat="49.42411" lon="0.21249">
        <ele>11.9</ele>
        <time>2020-06-17T15:05:56Z</time>
      </trkpt>
      <trkpt lat="49.42415" lon="0.21258">
        <ele>11.6</ele>
        <time>2020-06-17T15:05:57Z</time>
      </trkpt>
      <trkpt lat="49.4242" lon="0.21268">
        <ele>11.3</ele>
        <time>2020-06-17T15:05:58Z</time>
      </trkpt>
      <trkpt lat="49.42425" lon="0.21277">
        <ele>11.1</ele>
        <time>2020-06-17T15:05:59Z</time>
      </trkpt>
      <trkpt lat="49.42429" lon="0.21288">
        <ele>10.7</ele>
        <time>2020-06-17T15:06:00Z</time>
      </trkpt>
      <trkpt lat="49.42432" lon="0.21298">
        <ele>10.6</ele>
        <time>2020-06-17T15:06:01Z</time>
      </trkpt>
      <trkpt lat="49.42434" lon="0.2131">
        <ele>10.3</ele>
        <time>2020-06-17T15:06:02Z</time>
      </trkpt>
      <trkpt lat="49.42437" lon="0.21321">
        <ele>10.1</ele>
        <time>2020-06-17T15:06:03Z</time>
      </trkpt>
      <trkpt lat="49.42441" lon="0.21332">
        <ele>9.9</ele>
        <time>2020-06-17T15:06:04Z</time>
      </trkpt>
      <trkpt lat="49.42444" lon="0.21343">
        <ele>9.7</ele>
        <time>2020-06-17T15:06:05Z</time>
      </trkpt>
      <trkpt lat="49.42447" lon="0.21354">
        <ele>9.3</ele>
        <time>2020-06-17T15:06:06Z</time>
      </trkpt>
      <trkpt lat="49.42451" lon="0.21365">
        <ele>9.1</ele>
        <time>2020-06-17T15:06:07Z</time>
      </trkpt>
      <trkpt lat="49.42454" lon="0.21376">
        <ele>8.9</ele>
        <time>2020-06-17T15:06:08Z</time>
      </trkpt>
      <trkpt lat="49.42456" lon="0.21388">
        <ele>8.6</ele>
        <time>2020-06-17T15:06:09Z</time>
      </trkpt>
      <trkpt lat="49.42459" lon="0.21399">
        <ele>8.4</ele>
        <time>2020-06-17T15:06:10Z</time>
      </trkpt>
      <trkpt lat="49.42462" lon="0.2141">
        <ele>8.2</ele>
        <time>2020-06-17T15:06:11Z</time>
      </trkpt>
      <trkpt lat="49.42464" lon="0.21422">
        <ele>8</ele>
        <time>2020-06-17T15:06:12Z</time>
      </trkpt>
      <trkpt lat="49.42465" lon="0.21434">
        <ele>7.8</ele>
        <time>2020-06-17T15:06:13Z</time>
      </trkpt>
      <trkpt lat="49.42467" lon="0.21446">
        <ele>7.6</ele>
        <time>2020-06-17T15:06:14Z</time>
      </trkpt>
      <trkpt lat="49.42469" lon="0.21458">
        <ele>7.5</ele>
        <time>2020-06-17T15:06:15Z</time>
      </trkpt>
      <trkpt lat="49.42471" lon="0.2147">
        <ele>7.4</ele>
        <time>2020-06-17T15:06:16Z</time>
      </trkpt>
      <trkpt lat="49.42474" lon="0.21481">
        <ele>7.2</ele>
        <time>2020-06-17T15:06:17Z</time>
      </trkpt>
      <trkpt lat="49.42475" lon="0.21493">
        <ele>7.1</ele>
        <time>2020-06-17T15:06:18Z</time>
      </trkpt>
      <trkpt lat="49.42477" lon="0.21506">
        <ele>7</ele>
        <time>2020-06-17T15:06:19Z</time>
      </trkpt>
      <trkpt lat="49.42478" lon="0.21518">
        <ele>6.9</ele>
        <time>2020-06-17T15:06:20Z</time>
      </trkpt>
      <trkpt lat="49.42479" lon="0.2153">
        <ele>6.8</ele>
        <time>2020-06-17T15:06:21Z</time>
      </trkpt>
      <trkpt lat="49.4248" lon="0.21542">
        <ele>6.6</ele>
        <time>2020-06-17T15:06:22Z</time>
      </trkpt>
      <trkpt lat="49.42482" lon="0.21554">
        <ele>6.6</ele>
        <time>2020-06-17T15:06:23Z</time>
      </trkpt>
      <trkpt lat="49.42483" lon="0.21565">
        <ele>6.6</ele>
        <time>2020-06-17T15:06:24Z</time>
      </trkpt>
      <trkpt lat="49.42483" lon="0.21577">
        <ele>6.6</ele>
        <time>2020-06-17T15:06:25Z</time>
      </trkpt>
      <trkpt lat="49.42483" lon="0.21588">
        <ele>6.6</ele>
        <time>2020-06-17T15:06:26Z</time>
      </trkpt>
      <trkpt lat="49.42484" lon="0.216">
        <ele>6.6</ele>
        <time>2020-06-17T15:06:27Z</time>
      </trkpt>
      <trkpt lat="49.42485" lon="0.2161">
        <ele>6.6</ele>
        <time>2020-06-17T15:06:28Z</time>
      </trkpt>
      <trkpt lat="49.42485" lon="0.21621">
        <ele>6.6</ele>
        <time>2020-06-17T15:06:29Z</time>
      </trkpt>
      <trkpt lat="49.42486" lon="0.21632">
        <ele>6.6</ele>
        <time>2020-06-17T15:06:30Z</time>
      </trkpt>
      <trkpt lat="49.42487" lon="0.21642">
        <ele>6.7</ele>
        <time>2020-06-17T15:06:31Z</time>
      </trkpt>
      <trkpt lat="49.42488" lon="0.21653">
        <ele>6.7</ele>
        <time>2020-06-17T15:06:32Z</time>
      </trkpt>
      <trkpt lat="49.4249" lon="0.21663">
        <ele>6.7</ele>
        <time>2020-06-17T15:06:33Z</time>
      </trkpt>
      <trkpt lat="49.42491" lon="0.21673">
        <ele>6.7</ele>
        <time>2020-06-17T15:06:34Z</time>
      </trkpt>
      <trkpt lat="49.42492" lon="0.21684">
        <ele>6.7</ele>
        <time>2020-06-17T15:06:35Z</time>
      </trkpt>
      <trkpt lat="49.42494" lon="0.21694">
        <ele>6.7</ele>
        <time>2020-06-17T15:06:36Z</time>
      </trkpt>
      <trkpt lat="49.42495" lon="0.21705">
        <ele>6.7</ele>
        <time>2020-06-17T15:06:37Z</time>
      </trkpt>
      <trkpt lat="49.42497" lon="0.21715">
        <ele>6.7</ele>
        <time>2020-06-17T15:06:38Z</time>
      </trkpt>
      <trkpt lat="49.42498" lon="0.21725">
        <ele>6.7</ele>
        <time>2020-06-17T15:06:39Z</time>
      </trkpt>
      <trkpt lat="49.42499" lon="0.21735">
        <ele>6.6</ele>
        <time>2020-06-17T15:06:40Z</time>
      </trkpt>
      <trkpt lat="49.42499" lon="0.21744">
        <ele>6.6</ele>
        <time>2020-06-17T15:06:41Z</time>
      </trkpt>
      <trkpt lat="49.425" lon="0.21753">
        <ele>6.6</ele>
        <time>2020-06-17T15:06:42Z</time>
      </trkpt>
      <trkpt lat="49.42501" lon="0.21763">
        <ele>6.6</ele>
        <time>2020-06-17T15:06:43Z</time>
      </trkpt>
      <trkpt lat="49.42501" lon="0.21772">
        <ele>6.6</ele>
        <time>2020-06-17T15:06:44Z</time>
      </trkpt>
      <trkpt lat="49.42501" lon="0.21781">
        <ele>6.6</ele>
        <time>2020-06-17T15:06:45Z</time>
      </trkpt>
      <trkpt lat="49.42501" lon="0.2179">
        <ele>6.7</ele>
        <time>2020-06-17T15:06:46Z</time>
      </trkpt>
      <trkpt lat="49.42501" lon="0.21799">
        <ele>6.7</ele>
        <time>2020-06-17T15:06:47Z</time>
      </trkpt>
      <trkpt lat="49.42502" lon="0.21808">
        <ele>6.7</ele>
        <time>2020-06-17T15:06:48Z</time>
      </trkpt>
      <trkpt lat="49.42503" lon="0.21816">
        <ele>6.7</ele>
        <time>2020-06-17T15:06:49Z</time>
      </trkpt>
      <trkpt lat="49.42503" lon="0.21824">
        <ele>6.7</ele>
        <time>2020-06-17T15:06:50Z</time>
      </trkpt>
      <trkpt lat="49.42505" lon="0.2183">
        <ele>6.6</ele>
        <time>2020-06-17T15:06:51Z</time>
      </trkpt>
      <trkpt lat="49.42506" lon="0.21835">
        <ele>6.6</ele>
        <time>2020-06-17T15:06:52Z</time>
      </trkpt>
      <trkpt lat="49.42506" lon="0.21838">
        <ele>6.6</ele>
        <time>2020-06-17T15:06:53Z</time>
      </trkpt>
      <trkpt lat="49.42507" lon="0.21839">
        <ele>6.5</ele>
        <time>2020-06-17T15:06:54Z</time>
      </trkpt>
      <trkpt lat="49.42508" lon="0.21841">
        <ele>6.5</ele>
        <time>2020-06-17T15:06:55Z</time>
      </trkpt>
      <trkpt lat="49.42508" lon="0.21843">
        <ele>6.5</ele>
        <time>2020-06-17T15:06:56Z</time>
      </trkpt>
      <trkpt lat="49.42507" lon="0.21847">
        <ele>6.5</ele>
        <time>2020-06-17T15:06:57Z</time>
      </trkpt>
      <trkpt lat="49.42507" lon="0.21849">
        <ele>6.5</ele>
        <time>2020-06-17T15:06:58Z</time>
      </trkpt>
      <trkpt lat="49.42507" lon="0.21853">
        <ele>6.4</ele>
        <time>2020-06-17T15:06:59Z</time>
      </trkpt>
      <trkpt lat="49.42508" lon="0.21854">
        <ele>6.4</ele>
        <time>2020-06-17T15:07:00Z</time>
      </trkpt>
      <trkpt lat="49.42508" lon="0.21859">
        <ele>6.4</ele>
        <time>2020-06-17T15:07:01Z</time>
      </trkpt>
      <trkpt lat="49.42508" lon="0.2186">
        <ele>6.4</ele>
        <time>2020-06-17T15:07:02Z</time>
      </trkpt>
      <trkpt lat="49.42507" lon="0.21863">
        <ele>6.4</ele>
        <time>2020-06-17T15:07:03Z</time>
      </trkpt>
      <trkpt lat="49.42508" lon="0.21865">
        <ele>6.4</ele>
        <time>2020-06-17T15:07:04Z</time>
      </trkpt>
      <trkpt lat="49.42509" lon="0.21869">
        <ele>6.4</ele>
        <time>2020-06-17T15:07:05Z</time>
      </trkpt>
      <trkpt lat="49.4251" lon="0.2187">
        <ele>6.4</ele>
        <time>2020-06-17T15:07:06Z</time>
      </trkpt>
      <trkpt lat="49.42509" lon="0.21873">
        <ele>6.4</ele>
        <time>2020-06-17T15:07:07Z</time>
      </trkpt>
      <trkpt lat="49.42509" lon="0.21873">
        <ele>6.4</ele>
        <time>2020-06-17T15:07:08Z</time>
      </trkpt>
      <trkpt lat="49.42509" lon="0.21874">
        <ele>6.4</ele>
        <time>2020-06-17T15:07:09Z</time>
      </trkpt>
      <trkpt lat="49.42509" lon="0.21874">
        <ele>6.4</ele>
        <time>2020-06-17T15:07:10Z</time>
      </trkpt>
      <trkpt lat="49.42509" lon="0.21875">
        <ele>6.4</ele>
        <time>2020-06-17T15:07:11Z</time>
      </trkpt>
      <trkpt lat="49.42508" lon="0.21876">
        <ele>6.4</ele>
        <time>2020-06-17T15:07:12Z</time>
      </trkpt>
      <trkpt lat="49.42508" lon="0.21877">
        <ele>6.4</ele>
        <time>2020-06-17T15:07:13Z</time>
      </trkpt>
      <trkpt lat="49.42508" lon="0.21878">
        <ele>6.4</ele>
        <time>2020-06-17T15:07:14Z</time>
      </trkpt>
      <trkpt lat="49.42508" lon="0.21879">
        <ele>6.4</ele>
        <time>2020-06-17T15:07:15Z</time>
      </trkpt>
      <trkpt lat="49.42508" lon="0.2188">
        <ele>6.4</ele>
        <time>2020-06-17T15:07:16Z</time>
      </trkpt>
      <trkpt lat="49.42508" lon="0.21881">
        <ele>6.4</ele>
        <time>2020-06-17T15:07:17Z</time>
      </trkpt>
      <trkpt lat="49.42508" lon="0.21882">
        <ele>6.4</ele>
        <time>2020-06-17T15:07:18Z</time>
      </trkpt>
      <trkpt lat="49.42508" lon="0.21883">
        <ele>6.4</ele>
        <time>2020-06-17T15:07:19Z</time>
      </trkpt>
      <trkpt lat="49.42508" lon="0.21884">
        <ele>6.4</ele>
        <time>2020-06-17T15:07:20Z</time>
      </trkpt>
      <trkpt lat="49.42508" lon="0.21885">
        <ele>6.4</ele>
        <time>2020-06-17T15:07:21Z</time>
      </trkpt>
      <trkpt lat="49.42508" lon="0.21886">
        <ele>6.4</ele>
        <time>2020-06-17T15:07:22Z</time>
      </trkpt>
      <trkpt lat="49.42508" lon="0.21887">
        <ele>6.4</ele>
        <time>2020-06-17T15:07:23Z</time>
      </trkpt>
      <trkpt lat="49.42508" lon="0.21888">
        <ele>6.4</ele>
        <time>2020-06-17T15:08:55Z</time>
      </trkpt>
      <trkpt lat="49.42508" lon="0.21889">
        <ele>6.4</ele>
        <time>2020-06-17T15:08:56Z</time>
      </trkpt>
      <trkpt lat="49.42508" lon="0.2189">
        <ele>6.4</ele>
        <time>2020-06-17T15:08:57Z</time>
      </trkpt>
      <trkpt lat="49.42508" lon="0.21895">
        <ele>6.4</ele>
        <time>2020-06-17T15:08:58Z</time>
      </trkpt>
      <trkpt lat="49.42508" lon="0.21897">
        <ele>6.4</ele>
        <time>2020-06-17T15:08:59Z</time>
      </trkpt>
      <trkpt lat="49.42509" lon="0.21901">
        <ele>6.4</ele>
        <time>2020-06-17T15:09:00Z</time>
      </trkpt>
      <trkpt lat="49.42509" lon="0.21903">
        <ele>6.4</ele>
        <time>2020-06-17T15:09:01Z</time>
      </trkpt>
      <trkpt lat="49.42509" lon="0.21909">
        <ele>6.4</ele>
        <time>2020-06-17T15:09:02Z</time>
      </trkpt>
      <trkpt lat="49.42509" lon="0.21911">
        <ele>6.4</ele>
        <time>2020-06-17T15:09:03Z</time>
      </trkpt>
      <trkpt lat="49.42509" lon="0.21916">
        <ele>6.4</ele>
        <time>2020-06-17T15:09:04Z</time>
      </trkpt>
      <trkpt lat="49.4251" lon="0.21923">
        <ele>6.4</ele>
        <time>2020-06-17T15:09:05Z</time>
      </trkpt>
      <trkpt lat="49.4251" lon="0.21925">
        <ele>6.4</ele>
        <time>2020-06-17T15:09:06Z</time>
      </trkpt>
      <trkpt lat="49.42511" lon="0.21931">
        <ele>6.4</ele>
        <time>2020-06-17T15:09:07Z</time>
      </trkpt>
      <trkpt lat="49.42511" lon="0.21936">
        <ele>6.4</ele>
        <time>2020-06-17T15:09:08Z</time>
      </trkpt>
      <trkpt lat="49.42511" lon="0.21943">
        <ele>6.4</ele>
        <time>2020-06-17T15:09:09Z</time>
      </trkpt>
      <trkpt lat="49.42512" lon="0.21949">
        <ele>6.4</ele>
        <time>2020-06-17T15:09:10Z</time>
      </trkpt>
      <trkpt lat="49.42512" lon="0.21955">
        <ele>6.4</ele>
        <time>2020-06-17T15:09:11Z</time>
      </trkpt>
      <trkpt lat="49.42514" lon="0.21961">
        <ele>6.4</ele>
        <time>2020-06-17T15:09:12Z</time>
      </trkpt>
      <trkpt lat="49.42515" lon="0.21967">
        <ele>6.4</ele>
        <time>2020-06-17T15:09:13Z</time>
      </trkpt>
      <trkpt lat="49.42516" lon="0.21973">
        <ele>6.5</ele>
        <time>2020-06-17T15:09:14Z</time>
      </trkpt>
      <trkpt lat="49.42516" lon="0.2198">
        <ele>6.5</ele>
        <time>2020-06-17T15:09:15Z</time>
      </trkpt>
      <trkpt lat="49.42517" lon="0.21986">
        <ele>6.5</ele>
        <time>2020-06-17T15:09:16Z</time>
      </trkpt>
      <trkpt lat="49.42518" lon="0.21993">
        <ele>6.5</ele>
        <time>2020-06-17T15:09:17Z</time>
      </trkpt>
      <trkpt lat="49.42519" lon="0.22">
        <ele>6.5</ele>
        <time>2020-06-17T15:09:18Z</time>
      </trkpt>
      <trkpt lat="49.4252" lon="0.22006">
        <ele>6.5</ele>
        <time>2020-06-17T15:09:19Z</time>
      </trkpt>
      <trkpt lat="49.4252" lon="0.22013">
        <ele>6.6</ele>
        <time>2020-06-17T15:09:20Z</time>
      </trkpt>
      <trkpt lat="49.42521" lon="0.2202">
        <ele>6.6</ele>
        <time>2020-06-17T15:09:21Z</time>
      </trkpt>
      <trkpt lat="49.42523" lon="0.22027">
        <ele>6.6</ele>
        <time>2020-06-17T15:09:22Z</time>
      </trkpt>
      <trkpt lat="49.42523" lon="0.22036">
        <ele>6.6</ele>
        <time>2020-06-17T15:09:23Z</time>
      </trkpt>
      <trkpt lat="49.42523" lon="0.22044">
        <ele>6.6</ele>
        <time>2020-06-17T15:09:24Z</time>
      </trkpt>
      <trkpt lat="49.42523" lon="0.22052">
        <ele>6.6</ele>
        <time>2020-06-17T15:09:25Z</time>
      </trkpt>
      <trkpt lat="49.42523" lon="0.2206">
        <ele>6.6</ele>
        <time>2020-06-17T15:09:26Z</time>
      </trkpt>
      <trkpt lat="49.42523" lon="0.22067">
        <ele>6.6</ele>
        <time>2020-06-17T15:09:27Z</time>
      </trkpt>
      <trkpt lat="49.42524" lon="0.22074">
        <ele>6.6</ele>
        <time>2020-06-17T15:09:28Z</time>
      </trkpt>
      <trkpt lat="49.42524" lon="0.22082">
        <ele>6.6</ele>
        <time>2020-06-17T15:09:29Z</time>
      </trkpt>
      <trkpt lat="49.42524" lon="0.2209">
        <ele>6.6</ele>
        <time>2020-06-17T15:09:30Z</time>
      </trkpt>
      <trkpt lat="49.42524" lon="0.22098">
        <ele>6.6</ele>
        <time>2020-06-17T15:09:31Z</time>
      </trkpt>
      <trkpt lat="49.42526" lon="0.22107">
        <ele>6.6</ele>
        <time>2020-06-17T15:09:32Z</time>
      </trkpt>
      <trkpt lat="49.42527" lon="0.22115">
        <ele>6.6</ele>
        <time>2020-06-17T15:09:33Z</time>
      </trkpt>
      <trkpt lat="49.42527" lon="0.22123">
        <ele>6.6</ele>
        <time>2020-06-17T15:09:34Z</time>
      </trkpt>
      <trkpt lat="49.42527" lon="0.22132">
        <ele>6.6</ele>
        <time>2020-06-17T15:09:35Z</time>
      </trkpt>
      <trkpt lat="49.42527" lon="0.2214">
        <ele>6.6</ele>
        <time>2020-06-17T15:09:36Z</time>
      </trkpt>
      <trkpt lat="49.42527" lon="0.22149">
        <ele>6.6</ele>
        <time>2020-06-17T15:09:37Z</time>
      </trkpt>
      <trkpt lat="49.42526" lon="0.22157">
        <ele>6.6</ele>
        <time>2020-06-17T15:09:38Z</time>
      </trkpt>
      <trkpt lat="49.42527" lon="0.22165">
        <ele>6.6</ele>
        <time>2020-06-17T15:09:39Z</time>
      </trkpt>
      <trkpt lat="49.42528" lon="0.22174">
        <ele>6.6</ele>
        <time>2020-06-17T15:09:40Z</time>
      </trkpt>
      <trkpt lat="49.42528" lon="0.22182">
        <ele>6.6</ele>
        <time>2020-06-17T15:09:41Z</time>
      </trkpt>
      <trkpt lat="49.42528" lon="0.22191">
        <ele>6.6</ele>
        <time>2020-06-17T15:09:42Z</time>
      </trkpt>
      <trkpt lat="49.42529" lon="0.222">
        <ele>6.5</ele>
        <time>2020-06-17T15:09:43Z</time>
      </trkpt>
      <trkpt lat="49.42528" lon="0.22209">
        <ele>6.5</ele>
        <time>2020-06-17T15:09:44Z</time>
      </trkpt>
      <trkpt lat="49.42528" lon="0.22218">
        <ele>6.5</ele>
        <time>2020-06-17T15:09:45Z</time>
      </trkpt>
      <trkpt lat="49.42527" lon="0.22227">
        <ele>6.5</ele>
        <time>2020-06-17T15:09:46Z</time>
      </trkpt>
      <trkpt lat="49.42526" lon="0.22236">
        <ele>6.5</ele>
        <time>2020-06-17T15:09:47Z</time>
      </trkpt>
      <trkpt lat="49.42527" lon="0.22245">
        <ele>6.5</ele>
        <time>2020-06-17T15:09:48Z</time>
      </trkpt>
      <trkpt lat="49.42527" lon="0.22253">
        <ele>6.4</ele>
        <time>2020-06-17T15:09:49Z</time>
      </trkpt>
      <trkpt lat="49.42527" lon="0.22262">
        <ele>6.4</ele>
        <time>2020-06-17T15:09:50Z</time>
      </trkpt>
      <trkpt lat="49.42528" lon="0.22271">
        <ele>6.3</ele>
        <time>2020-06-17T15:09:51Z</time>
      </trkpt>
      <trkpt lat="49.42528" lon="0.2228">
        <ele>6.3</ele>
        <time>2020-06-17T15:09:52Z</time>
      </trkpt>
      <trkpt lat="49.42528" lon="0.22288">
        <ele>6.2</ele>
        <time>2020-06-17T15:09:53Z</time>
      </trkpt>
      <trkpt lat="49.42528" lon="0.22297">
        <ele>6.2</ele>
        <time>2020-06-17T15:09:54Z</time>
      </trkpt>
      <trkpt lat="49.42528" lon="0.22306">
        <ele>6.2</ele>
        <time>2020-06-17T15:09:55Z</time>
      </trkpt>
      <trkpt lat="49.4253" lon="0.22315">
        <ele>6.2</ele>
        <time>2020-06-17T15:09:56Z</time>
      </trkpt>
      <trkpt lat="49.42531" lon="0.22325">
        <ele>6.2</ele>
        <time>2020-06-17T15:09:57Z</time>
      </trkpt>
      <trkpt lat="49.42531" lon="0.22335">
        <ele>6.3</ele>
        <time>2020-06-17T15:09:58Z</time>
      </trkpt>
      <trkpt lat="49.42532" lon="0.22345">
        <ele>6.3</ele>
        <time>2020-06-17T15:09:59Z</time>
      </trkpt>
      <trkpt lat="49.42533" lon="0.22355">
        <ele>6.3</ele>
        <time>2020-06-17T15:10:00Z</time>
      </trkpt>
      <trkpt lat="49.42533" lon="0.22365">
        <ele>6.3</ele>
        <time>2020-06-17T15:10:01Z</time>
      </trkpt>
      <trkpt lat="49.42534" lon="0.22375">
        <ele>6.3</ele>
        <time>2020-06-17T15:10:02Z</time>
      </trkpt>
      <trkpt lat="49.42534" lon="0.22385">
        <ele>6.3</ele>
        <time>2020-06-17T15:10:03Z</time>
      </trkpt>
      <trkpt lat="49.42533" lon="0.22395">
        <ele>6.3</ele>
        <time>2020-06-17T15:10:04Z</time>
      </trkpt>
      <trkpt lat="49.42534" lon="0.22406">
        <ele>6.2</ele>
        <time>2020-06-17T15:10:05Z</time>
      </trkpt>
      <trkpt lat="49.42534" lon="0.22416">
        <ele>6.2</ele>
        <time>2020-06-17T15:10:06Z</time>
      </trkpt>
      <trkpt lat="49.42534" lon="0.22427">
        <ele>6.2</ele>
        <time>2020-06-17T15:10:07Z</time>
      </trkpt>
      <trkpt lat="49.42535" lon="0.22437">
        <ele>6.2</ele>
        <time>2020-06-17T15:10:08Z</time>
      </trkpt>
      <trkpt lat="49.42535" lon="0.22447">
        <ele>6.2</ele>
        <time>2020-06-17T15:10:09Z</time>
      </trkpt>
      <trkpt lat="49.42535" lon="0.22457">
        <ele>6.2</ele>
        <time>2020-06-17T15:10:10Z</time>
      </trkpt>
      <trkpt lat="49.42537" lon="0.22468">
        <ele>6.3</ele>
        <time>2020-06-17T15:10:11Z</time>
      </trkpt>
      <trkpt lat="49.42536" lon="0.22478">
        <ele>6.3</ele>
        <time>2020-06-17T15:10:12Z</time>
      </trkpt>
      <trkpt lat="49.42536" lon="0.22487">
        <ele>6.3</ele>
        <time>2020-06-17T15:10:13Z</time>
      </trkpt>
      <trkpt lat="49.42537" lon="0.22497">
        <ele>6.3</ele>
        <time>2020-06-17T15:10:14Z</time>
      </trkpt>
      <trkpt lat="49.42537" lon="0.22507">
        <ele>6.3</ele>
        <time>2020-06-17T15:10:15Z</time>
      </trkpt>
      <trkpt lat="49.42536" lon="0.22516">
        <ele>6.4</ele>
        <time>2020-06-17T15:10:16Z</time>
      </trkpt>
      <trkpt lat="49.42536" lon="0.22526">
        <ele>6.4</ele>
        <time>2020-06-17T15:10:17Z</time>
      </trkpt>
      <trkpt lat="49.42536" lon="0.22535">
        <ele>6.4</ele>
        <time>2020-06-17T15:10:18Z</time>
      </trkpt>
      <trkpt lat="49.42536" lon="0.22544">
        <ele>6.4</ele>
        <time>2020-06-17T15:10:19Z</time>
      </trkpt>
      <trkpt lat="49.42536" lon="0.22552">
        <ele>6.4</ele>
        <time>2020-06-17T15:10:20Z</time>
      </trkpt>
      <trkpt lat="49.42537" lon="0.2256">
        <ele>6.4</ele>
        <time>2020-06-17T15:10:21Z</time>
      </trkpt>
      <trkpt lat="49.42537" lon="0.22569">
        <ele>6.4</ele>
        <time>2020-06-17T15:10:22Z</time>
      </trkpt>
      <trkpt lat="49.42537" lon="0.22578">
        <ele>6.4</ele>
        <time>2020-06-17T15:10:23Z</time>
      </trkpt>
      <trkpt lat="49.42538" lon="0.22587">
        <ele>6.4</ele>
        <time>2020-06-17T15:10:24Z</time>
      </trkpt>
      <trkpt lat="49.42539" lon="0.22595">
        <ele>6.4</ele>
        <time>2020-06-17T15:10:25Z</time>
      </trkpt>
      <trkpt lat="49.42539" lon="0.22604">
        <ele>6.4</ele>
        <time>2020-06-17T15:10:26Z</time>
      </trkpt>
      <trkpt lat="49.42539" lon="0.22613">
        <ele>6.4</ele>
        <time>2020-06-17T15:10:27Z</time>
      </trkpt>
      <trkpt lat="49.42538" lon="0.22621">
        <ele>6.4</ele>
        <time>2020-06-17T15:10:28Z</time>
      </trkpt>
      <trkpt lat="49.42538" lon="0.2263">
        <ele>6.4</ele>
        <time>2020-06-17T15:10:29Z</time>
      </trkpt>
      <trkpt lat="49.42539" lon="0.22638">
        <ele>6.4</ele>
        <time>2020-06-17T15:10:30Z</time>
      </trkpt>
      <trkpt lat="49.42537" lon="0.22646">
        <ele>6.4</ele>
        <time>2020-06-17T15:10:31Z</time>
      </trkpt>
      <trkpt lat="49.42536" lon="0.22653">
        <ele>6.4</ele>
        <time>2020-06-17T15:10:32Z</time>
      </trkpt>
      <trkpt lat="49.42535" lon="0.22661">
        <ele>6.4</ele>
        <time>2020-06-17T15:10:33Z</time>
      </trkpt>
      <trkpt lat="49.42534" lon="0.22669">
        <ele>6.4</ele>
        <time>2020-06-17T15:10:34Z</time>
      </trkpt>
      <trkpt lat="49.42534" lon="0.22677">
        <ele>6.4</ele>
        <time>2020-06-17T15:10:35Z</time>
      </trkpt>
      <trkpt lat="49.42533" lon="0.22685">
        <ele>6.5</ele>
        <time>2020-06-17T15:10:36Z</time>
      </trkpt>
      <trkpt lat="49.42531" lon="0.2269">
        <ele>6.5</ele>
        <time>2020-06-17T15:10:37Z</time>
      </trkpt>
      <trkpt lat="49.4253" lon="0.22697">
        <ele>6.5</ele>
        <time>2020-06-17T15:10:38Z</time>
      </trkpt>
      <trkpt lat="49.4253" lon="0.22703">
        <ele>6.5</ele>
        <time>2020-06-17T15:10:39Z</time>
      </trkpt>
      <trkpt lat="49.42529" lon="0.2271">
        <ele>6.5</ele>
        <time>2020-06-17T15:10:40Z</time>
      </trkpt>
      <trkpt lat="49.42527" lon="0.22718">
        <ele>6.5</ele>
        <time>2020-06-17T15:10:41Z</time>
      </trkpt>
      <trkpt lat="49.42526" lon="0.22724">
        <ele>6.5</ele>
        <time>2020-06-17T15:10:42Z</time>
      </trkpt>
      <trkpt lat="49.42524" lon="0.2273">
        <ele>6.5</ele>
        <time>2020-06-17T15:10:43Z</time>
      </trkpt>
      <trkpt lat="49.42522" lon="0.22737">
        <ele>6.4</ele>
        <time>2020-06-17T15:10:44Z</time>
      </trkpt>
      <trkpt lat="49.4252" lon="0.22743">
        <ele>6.4</ele>
        <time>2020-06-17T15:10:45Z</time>
      </trkpt>
      <trkpt lat="49.42518" lon="0.2275">
        <ele>6.4</ele>
        <time>2020-06-17T15:10:46Z</time>
      </trkpt>
      <trkpt lat="49.42516" lon="0.22757">
        <ele>6.4</ele>
        <time>2020-06-17T15:10:47Z</time>
      </trkpt>
      <trkpt lat="49.42515" lon="0.22764">
        <ele>6.4</ele>
        <time>2020-06-17T15:10:48Z</time>
      </trkpt>
      <trkpt lat="49.42513" lon="0.22771">
        <ele>6.4</ele>
        <time>2020-06-17T15:10:49Z</time>
      </trkpt>
      <trkpt lat="49.42511" lon="0.22778">
        <ele>6.4</ele>
        <time>2020-06-17T15:10:50Z</time>
      </trkpt>
      <trkpt lat="49.4251" lon="0.22785">
        <ele>6.4</ele>
        <time>2020-06-17T15:10:51Z</time>
      </trkpt>
      <trkpt lat="49.42508" lon="0.22792">
        <ele>6.4</ele>
        <time>2020-06-17T15:10:52Z</time>
      </trkpt>
      <trkpt lat="49.42506" lon="0.22799">
        <ele>6.4</ele>
        <time>2020-06-17T15:10:53Z</time>
      </trkpt>
      <trkpt lat="49.42504" lon="0.22805">
        <ele>6.4</ele>
        <time>2020-06-17T15:10:54Z</time>
      </trkpt>
      <trkpt lat="49.42503" lon="0.22812">
        <ele>6.4</ele>
        <time>2020-06-17T15:10:55Z</time>
      </trkpt>
      <trkpt lat="49.42499" lon="0.22818">
        <ele>6.4</ele>
        <time>2020-06-17T15:10:56Z</time>
      </trkpt>
      <trkpt lat="49.42497" lon="0.22824">
        <ele>6.3</ele>
        <time>2020-06-17T15:10:57Z</time>
      </trkpt>
      <trkpt lat="49.42494" lon="0.22829">
        <ele>6.3</ele>
        <time>2020-06-17T15:10:58Z</time>
      </trkpt>
      <trkpt lat="49.42492" lon="0.22836">
        <ele>6.3</ele>
        <time>2020-06-17T15:10:59Z</time>
      </trkpt>
      <trkpt lat="49.42492" lon="0.22845">
        <ele>6.3</ele>
        <time>2020-06-17T15:11:00Z</time>
      </trkpt>
      <trkpt lat="49.42489" lon="0.22852">
        <ele>6.3</ele>
        <time>2020-06-17T15:11:01Z</time>
      </trkpt>
      <trkpt lat="49.42486" lon="0.22858">
        <ele>6.4</ele>
        <time>2020-06-17T15:11:02Z</time>
      </trkpt>
      <trkpt lat="49.42483" lon="0.22864">
        <ele>6.4</ele>
        <time>2020-06-17T15:11:03Z</time>
      </trkpt>
      <trkpt lat="49.4248" lon="0.22871">
        <ele>6.5</ele>
        <time>2020-06-17T15:11:04Z</time>
      </trkpt>
      <trkpt lat="49.42477" lon="0.22876">
        <ele>6.6</ele>
        <time>2020-06-17T15:11:05Z</time>
      </trkpt>
      <trkpt lat="49.42474" lon="0.22883">
        <ele>6.6</ele>
        <time>2020-06-17T15:11:06Z</time>
      </trkpt>
      <trkpt lat="49.42471" lon="0.22888">
        <ele>6.7</ele>
        <time>2020-06-17T15:11:07Z</time>
      </trkpt>
      <trkpt lat="49.42469" lon="0.22894">
        <ele>6.7</ele>
        <time>2020-06-17T15:11:08Z</time>
      </trkpt>
      <trkpt lat="49.42468" lon="0.229">
        <ele>6.8</ele>
        <time>2020-06-17T15:11:09Z</time>
      </trkpt>
      <trkpt lat="49.42467" lon="0.22906">
        <ele>6.9</ele>
        <time>2020-06-17T15:11:10Z</time>
      </trkpt>
      <trkpt lat="49.42466" lon="0.22912">
        <ele>6.9</ele>
        <time>2020-06-17T15:11:11Z</time>
      </trkpt>
      <trkpt lat="49.42464" lon="0.22919">
        <ele>7</ele>
        <time>2020-06-17T15:11:12Z</time>
      </trkpt>
      <trkpt lat="49.42462" lon="0.22925">
        <ele>7</ele>
        <time>2020-06-17T15:11:13Z</time>
      </trkpt>
      <trkpt lat="49.42459" lon="0.2293">
        <ele>7</ele>
        <time>2020-06-17T15:11:14Z</time>
      </trkpt>
      <trkpt lat="49.42455" lon="0.22935">
        <ele>6.9</ele>
        <time>2020-06-17T15:11:15Z</time>
      </trkpt>
      <trkpt lat="49.42451" lon="0.22941">
        <ele>6.8</ele>
        <time>2020-06-17T15:11:16Z</time>
      </trkpt>
      <trkpt lat="49.42447" lon="0.22948">
        <ele>6.8</ele>
        <time>2020-06-17T15:11:17Z</time>
      </trkpt>
      <trkpt lat="49.42444" lon="0.22953">
        <ele>6.7</ele>
        <time>2020-06-17T15:11:18Z</time>
      </trkpt>
      <trkpt lat="49.42439" lon="0.22958">
        <ele>6.6</ele>
        <time>2020-06-17T15:11:19Z</time>
      </trkpt>
      <trkpt lat="49.42436" lon="0.22964">
        <ele>6.5</ele>
        <time>2020-06-17T15:11:20Z</time>
      </trkpt>
      <trkpt lat="49.42432" lon="0.22972">
        <ele>6.5</ele>
        <time>2020-06-17T15:11:21Z</time>
      </trkpt>
      <trkpt lat="49.4243" lon="0.22978">
        <ele>6.4</ele>
        <time>2020-06-17T15:11:22Z</time>
      </trkpt>
      <trkpt lat="49.42426" lon="0.22985">
        <ele>6.4</ele>
        <time>2020-06-17T15:11:23Z</time>
      </trkpt>
      <trkpt lat="49.42424" lon="0.22991">
        <ele>6.3</ele>
        <time>2020-06-17T15:11:24Z</time>
      </trkpt>
      <trkpt lat="49.42421" lon="0.22997">
        <ele>6.3</ele>
        <time>2020-06-17T15:11:25Z</time>
      </trkpt>
      <trkpt lat="49.42418" lon="0.23003">
        <ele>6.2</ele>
        <time>2020-06-17T15:11:26Z</time>
      </trkpt>
      <trkpt lat="49.42415" lon="0.23009">
        <ele>6.1</ele>
        <time>2020-06-17T15:11:27Z</time>
      </trkpt>
      <trkpt lat="49.42412" lon="0.23014">
        <ele>6.1</ele>
        <time>2020-06-17T15:11:28Z</time>
      </trkpt>
      <trkpt lat="49.42409" lon="0.2302">
        <ele>6.1</ele>
        <time>2020-06-17T15:11:29Z</time>
      </trkpt>
      <trkpt lat="49.42406" lon="0.23026">
        <ele>6</ele>
        <time>2020-06-17T15:11:30Z</time>
      </trkpt>
      <trkpt lat="49.42404" lon="0.23031">
        <ele>6</ele>
        <time>2020-06-17T15:11:31Z</time>
      </trkpt>
      <trkpt lat="49.42402" lon="0.23037">
        <ele>6</ele>
        <time>2020-06-17T15:11:32Z</time>
      </trkpt>
      <trkpt lat="49.424" lon="0.23042">
        <ele>6</ele>
        <time>2020-06-17T15:11:33Z</time>
      </trkpt>
      <trkpt lat="49.42397" lon="0.23047">
        <ele>6</ele>
        <time>2020-06-17T15:11:34Z</time>
      </trkpt>
      <trkpt lat="49.42395" lon="0.23053">
        <ele>5.9</ele>
        <time>2020-06-17T15:11:35Z</time>
      </trkpt>
      <trkpt lat="49.42392" lon="0.23057">
        <ele>5.9</ele>
        <time>2020-06-17T15:11:36Z</time>
      </trkpt>
      <trkpt lat="49.4239" lon="0.23062">
        <ele>5.9</ele>
        <time>2020-06-17T15:11:37Z</time>
      </trkpt>
      <trkpt lat="49.42388" lon="0.23068">
        <ele>5.8</ele>
        <time>2020-06-17T15:11:38Z</time>
      </trkpt>
      <trkpt lat="49.42385" lon="0.23073">
        <ele>5.8</ele>
        <time>2020-06-17T15:11:39Z</time>
      </trkpt>
      <trkpt lat="49.42382" lon="0.23078">
        <ele>5.8</ele>
        <time>2020-06-17T15:11:40Z</time>
      </trkpt>
      <trkpt lat="49.42378" lon="0.23083">
        <ele>5.8</ele>
        <time>2020-06-17T15:11:41Z</time>
      </trkpt>
      <trkpt lat="49.42375" lon="0.23089">
        <ele>5.8</ele>
        <time>2020-06-17T15:11:42Z</time>
      </trkpt>
      <trkpt lat="49.42372" lon="0.23093">
        <ele>5.8</ele>
        <time>2020-06-17T15:11:43Z</time>
      </trkpt>
      <trkpt lat="49.4237" lon="0.23096">
        <ele>5.7</ele>
        <time>2020-06-17T15:11:44Z</time>
      </trkpt>
      <trkpt lat="49.42369" lon="0.231">
        <ele>5.7</ele>
        <time>2020-06-17T15:11:45Z</time>
      </trkpt>
      <trkpt lat="49.42369" lon="0.23101">
        <ele>5.7</ele>
        <time>2020-06-17T15:11:46Z</time>
      </trkpt>
      <trkpt lat="49.42369" lon="0.23102">
        <ele>5.7</ele>
        <time>2020-06-17T15:11:47Z</time>
      </trkpt>
      <trkpt lat="49.42368" lon="0.23102">
        <ele>5.7</ele>
        <time>2020-06-17T15:11:48Z</time>
      </trkpt>
      <trkpt lat="49.42368" lon="0.23103">
        <ele>5.7</ele>
        <time>2020-06-17T15:11:49Z</time>
      </trkpt>
      <trkpt lat="49.42367" lon="0.23104">
        <ele>5.7</ele>
        <time>2020-06-17T15:11:50Z</time>
      </trkpt>
      <trkpt lat="49.42367" lon="0.23104">
        <ele>5.7</ele>
        <time>2020-06-17T15:11:51Z</time>
      </trkpt>
      <trkpt lat="49.42367" lon="0.23105">
        <ele>5.7</ele>
        <time>2020-06-17T15:11:52Z</time>
      </trkpt>
      <trkpt lat="49.42366" lon="0.23106">
        <ele>5.7</ele>
        <time>2020-06-17T15:11:53Z</time>
      </trkpt>
      <trkpt lat="49.42366" lon="0.23106">
        <ele>5.7</ele>
        <time>2020-06-17T15:11:54Z</time>
      </trkpt>
      <trkpt lat="49.42365" lon="0.23107">
        <ele>5.7</ele>
        <time>2020-06-17T15:11:55Z</time>
      </trkpt>
      <trkpt lat="49.42365" lon="0.23108">
        <ele>5.7</ele>
        <time>2020-06-17T15:11:56Z</time>
      </trkpt>
      <trkpt lat="49.42364" lon="0.23108">
        <ele>5.7</ele>
        <time>2020-06-17T15:11:57Z</time>
      </trkpt>
      <trkpt lat="49.42364" lon="0.23109">
        <ele>5.7</ele>
        <time>2020-06-17T15:12:49Z</time>
      </trkpt>
      <trkpt lat="49.42363" lon="0.2311">
        <ele>5.7</ele>
        <time>2020-06-17T15:12:50Z</time>
      </trkpt>
      <trkpt lat="49.42363" lon="0.2311">
        <ele>5.7</ele>
        <time>2020-06-17T15:12:51Z</time>
      </trkpt>
      <trkpt lat="49.4236" lon="0.23112">
        <ele>5.7</ele>
        <time>2020-06-17T15:12:52Z</time>
      </trkpt>
      <trkpt lat="49.42359" lon="0.23113">
        <ele>5.7</ele>
        <time>2020-06-17T15:12:53Z</time>
      </trkpt>
      <trkpt lat="49.42356" lon="0.23117">
        <ele>5.7</ele>
        <time>2020-06-17T15:12:54Z</time>
      </trkpt>
      <trkpt lat="49.42355" lon="0.23119">
        <ele>5.7</ele>
        <time>2020-06-17T15:12:55Z</time>
      </trkpt>
      <trkpt lat="49.42353" lon="0.23122">
        <ele>5.7</ele>
        <time>2020-06-17T15:12:56Z</time>
      </trkpt>
      <trkpt lat="49.42351" lon="0.23126">
        <ele>5.7</ele>
        <time>2020-06-17T15:12:57Z</time>
      </trkpt>
      <trkpt lat="49.42348" lon="0.23129">
        <ele>5.7</ele>
        <time>2020-06-17T15:12:58Z</time>
      </trkpt>
      <trkpt lat="49.42346" lon="0.23134">
        <ele>5.7</ele>
        <time>2020-06-17T15:12:59Z</time>
      </trkpt>
      <trkpt lat="49.42344" lon="0.23139">
        <ele>5.7</ele>
        <time>2020-06-17T15:13:00Z</time>
      </trkpt>
      <trkpt lat="49.42342" lon="0.23143">
        <ele>5.7</ele>
        <time>2020-06-17T15:13:01Z</time>
      </trkpt>
      <trkpt lat="49.4234" lon="0.23149">
        <ele>5.7</ele>
        <time>2020-06-17T15:13:02Z</time>
      </trkpt>
      <trkpt lat="49.42338" lon="0.23154">
        <ele>5.7</ele>
        <time>2020-06-17T15:13:03Z</time>
      </trkpt>
      <trkpt lat="49.42335" lon="0.23158">
        <ele>5.7</ele>
        <time>2020-06-17T15:13:04Z</time>
      </trkpt>
      <trkpt lat="49.42333" lon="0.23163">
        <ele>5.8</ele>
        <time>2020-06-17T15:13:05Z</time>
      </trkpt>
      <trkpt lat="49.42331" lon="0.23168">
        <ele>5.8</ele>
        <time>2020-06-17T15:13:06Z</time>
      </trkpt>
      <trkpt lat="49.42328" lon="0.23172">
        <ele>5.9</ele>
        <time>2020-06-17T15:13:07Z</time>
      </trkpt>
      <trkpt lat="49.42326" lon="0.23176">
        <ele>5.9</ele>
        <time>2020-06-17T15:13:08Z</time>
      </trkpt>
      <trkpt lat="49.42324" lon="0.23181">
        <ele>6</ele>
        <time>2020-06-17T15:13:09Z</time>
      </trkpt>
      <trkpt lat="49.42322" lon="0.23185">
        <ele>6</ele>
        <time>2020-06-17T15:13:10Z</time>
      </trkpt>
      <trkpt lat="49.4232" lon="0.2319">
        <ele>6.1</ele>
        <time>2020-06-17T15:13:11Z</time>
      </trkpt>
      <trkpt lat="49.42317" lon="0.23194">
        <ele>6.2</ele>
        <time>2020-06-17T15:13:12Z</time>
      </trkpt>
      <trkpt lat="49.42314" lon="0.23199">
        <ele>6.1</ele>
        <time>2020-06-17T15:13:13Z</time>
      </trkpt>
      <trkpt lat="49.42312" lon="0.23204">
        <ele>6.1</ele>
        <time>2020-06-17T15:13:14Z</time>
      </trkpt>
      <trkpt lat="49.42309" lon="0.23208">
        <ele>6.1</ele>
        <time>2020-06-17T15:13:15Z</time>
      </trkpt>
      <trkpt lat="49.42306" lon="0.23213">
        <ele>6.1</ele>
        <time>2020-06-17T15:13:16Z</time>
      </trkpt>
      <trkpt lat="49.42303" lon="0.23217">
        <ele>6.1</ele>
        <time>2020-06-17T15:13:17Z</time>
      </trkpt>
      <trkpt lat="49.423" lon="0.23223">
        <ele>6.1</ele>
        <time>2020-06-17T15:13:18Z</time>
      </trkpt>
      <trkpt lat="49.42297" lon="0.23227">
        <ele>6.1</ele>
        <time>2020-06-17T15:13:19Z</time>
      </trkpt>
      <trkpt lat="49.42295" lon="0.23233">
        <ele>6</ele>
        <time>2020-06-17T15:13:20Z</time>
      </trkpt>
      <trkpt lat="49.42292" lon="0.23239">
        <ele>6</ele>
        <time>2020-06-17T15:13:21Z</time>
      </trkpt>
      <trkpt lat="49.4229" lon="0.23244">
        <ele>6</ele>
        <time>2020-06-17T15:13:22Z</time>
      </trkpt>
      <trkpt lat="49.42287" lon="0.23251">
        <ele>6</ele>
        <time>2020-06-17T15:13:23Z</time>
      </trkpt>
      <trkpt lat="49.42284" lon="0.23256">
        <ele>6</ele>
        <time>2020-06-17T15:13:24Z</time>
      </trkpt>
      <trkpt lat="49.42281" lon="0.2326">
        <ele>6</ele>
        <time>2020-06-17T15:13:25Z</time>
      </trkpt>
      <trkpt lat="49.42278" lon="0.23266">
        <ele>6</ele>
        <time>2020-06-17T15:13:26Z</time>
      </trkpt>
      <trkpt lat="49.42275" lon="0.23271">
        <ele>6</ele>
        <time>2020-06-17T15:13:27Z</time>
      </trkpt>
      <trkpt lat="49.42272" lon="0.23276">
        <ele>6</ele>
        <time>2020-06-17T15:13:28Z</time>
      </trkpt>
      <trkpt lat="49.42269" lon="0.23282">
        <ele>6</ele>
        <time>2020-06-17T15:13:29Z</time>
      </trkpt>
      <trkpt lat="49.42266" lon="0.23286">
        <ele>5.9</ele>
        <time>2020-06-17T15:13:30Z</time>
      </trkpt>
      <trkpt lat="49.42263" lon="0.23291">
        <ele>5.9</ele>
        <time>2020-06-17T15:13:31Z</time>
      </trkpt>
      <trkpt lat="49.42261" lon="0.23296">
        <ele>5.9</ele>
        <time>2020-06-17T15:13:32Z</time>
      </trkpt>
      <trkpt lat="49.42258" lon="0.23301">
        <ele>6</ele>
        <time>2020-06-17T15:13:33Z</time>
      </trkpt>
      <trkpt lat="49.42255" lon="0.23307">
        <ele>6</ele>
        <time>2020-06-17T15:13:34Z</time>
      </trkpt>
      <trkpt lat="49.42252" lon="0.23312">
        <ele>6</ele>
        <time>2020-06-17T15:13:35Z</time>
      </trkpt>
      <trkpt lat="49.42249" lon="0.23317">
        <ele>6</ele>
        <time>2020-06-17T15:13:36Z</time>
      </trkpt>
      <trkpt lat="49.42246" lon="0.23321">
        <ele>6.1</ele>
        <time>2020-06-17T15:13:37Z</time>
      </trkpt>
      <trkpt lat="49.42244" lon="0.23325">
        <ele>6.1</ele>
        <time>2020-06-17T15:13:38Z</time>
      </trkpt>
      <trkpt lat="49.42241" lon="0.23329">
        <ele>6.1</ele>
        <time>2020-06-17T15:13:39Z</time>
      </trkpt>
      <trkpt lat="49.42238" lon="0.23333">
        <ele>6.2</ele>
        <time>2020-06-17T15:13:40Z</time>
      </trkpt>
      <trkpt lat="49.42236" lon="0.23337">
        <ele>6.2</ele>
        <time>2020-06-17T15:13:41Z</time>
      </trkpt>
      <trkpt lat="49.42234" lon="0.23341">
        <ele>6.2</ele>
        <time>2020-06-17T15:13:42Z</time>
      </trkpt>
      <trkpt lat="49.42232" lon="0.23345">
        <ele>6.2</ele>
        <time>2020-06-17T15:13:43Z</time>
      </trkpt>
      <trkpt lat="49.4223" lon="0.23349">
        <ele>6.2</ele>
        <time>2020-06-17T15:13:44Z</time>
      </trkpt>
      <trkpt lat="49.42229" lon="0.23353">
        <ele>6.2</ele>
        <time>2020-06-17T15:13:45Z</time>
      </trkpt>
      <trkpt lat="49.42228" lon="0.23355">
        <ele>6.2</ele>
        <time>2020-06-17T15:13:46Z</time>
      </trkpt>
      <trkpt lat="49.42225" lon="0.23358">
        <ele>6.2</ele>
        <time>2020-06-17T15:13:47Z</time>
      </trkpt>
      <trkpt lat="49.42224" lon="0.23359">
        <ele>6.2</ele>
        <time>2020-06-17T15:13:48Z</time>
      </trkpt>
      <trkpt lat="49.42222" lon="0.23363">
        <ele>6.2</ele>
        <time>2020-06-17T15:13:49Z</time>
      </trkpt>
      <trkpt lat="49.42222" lon="0.23365">
        <ele>6.2</ele>
        <time>2020-06-17T15:13:50Z</time>
      </trkpt>
      <trkpt lat="49.42219" lon="0.23368">
        <ele>6.1</ele>
        <time>2020-06-17T15:13:51Z</time>
      </trkpt>
      <trkpt lat="49.42218" lon="0.23369">
        <ele>6.1</ele>
        <time>2020-06-17T15:13:52Z</time>
      </trkpt>
      <trkpt lat="49.42215" lon="0.2337">
        <ele>6.1</ele>
        <time>2020-06-17T15:13:53Z</time>
      </trkpt>
      <trkpt lat="49.42213" lon="0.23375">
        <ele>6.1</ele>
        <time>2020-06-17T15:13:54Z</time>
      </trkpt>
      <trkpt lat="49.42212" lon="0.23377">
        <ele>6</ele>
        <time>2020-06-17T15:13:55Z</time>
      </trkpt>
      <trkpt lat="49.42211" lon="0.23381">
        <ele>6</ele>
        <time>2020-06-17T15:13:56Z</time>
      </trkpt>
      <trkpt lat="49.42209" lon="0.23385">
        <ele>6</ele>
        <time>2020-06-17T15:13:57Z</time>
      </trkpt>
      <trkpt lat="49.42208" lon="0.23387">
        <ele>6</ele>
        <time>2020-06-17T15:13:58Z</time>
      </trkpt>
      <trkpt lat="49.42206" lon="0.23391">
        <ele>6</ele>
        <time>2020-06-17T15:13:59Z</time>
      </trkpt>
      <trkpt lat="49.42206" lon="0.23392">
        <ele>6</ele>
        <time>2020-06-17T15:14:00Z</time>
      </trkpt>
      <trkpt lat="49.42204" lon="0.23396">
        <ele>6</ele>
        <time>2020-06-17T15:14:01Z</time>
      </trkpt>
      <trkpt lat="49.42204" lon="0.23397">
        <ele>6</ele>
        <time>2020-06-17T15:14:02Z</time>
      </trkpt>
      <trkpt lat="49.42203" lon="0.23399">
        <ele>6</ele>
        <time>2020-06-17T15:14:03Z</time>
      </trkpt>
      <trkpt lat="49.42203" lon="0.23401">
        <ele>6</ele>
        <time>2020-06-17T15:14:04Z</time>
      </trkpt>
      <trkpt lat="49.42203" lon="0.23402">
        <ele>6</ele>
        <time>2020-06-17T15:14:05Z</time>
      </trkpt>
      <trkpt lat="49.42202" lon="0.23403">
        <ele>6</ele>
        <time>2020-06-17T15:14:06Z</time>
      </trkpt>
      <trkpt lat="49.42201" lon="0.23403">
        <ele>6</ele>
        <time>2020-06-17T15:14:07Z</time>
      </trkpt>
      <trkpt lat="49.422" lon="0.23404">
        <ele>6</ele>
        <time>2020-06-17T15:14:08Z</time>
      </trkpt>
      <trkpt lat="49.42199" lon="0.23404">
        <ele>6</ele>
        <time>2020-06-17T15:14:09Z</time>
      </trkpt>
      <trkpt lat="49.42198" lon="0.23405">
        <ele>6</ele>
        <time>2020-06-17T15:14:10Z</time>
      </trkpt>
      <trkpt lat="49.42197" lon="0.23405">
        <ele>6</ele>
        <time>2020-06-17T15:14:11Z</time>
      </trkpt>
      <trkpt lat="49.42197" lon="0.23406">
        <ele>6</ele>
        <time>2020-06-17T15:14:12Z</time>
      </trkpt>
      <trkpt lat="49.42196" lon="0.23406">
        <ele>6</ele>
        <time>2020-06-17T15:14:13Z</time>
      </trkpt>
      <trkpt lat="49.42195" lon="0.23407">
        <ele>6</ele>
        <time>2020-06-17T15:14:14Z</time>
      </trkpt>
      <trkpt lat="49.42194" lon="0.23407">
        <ele>6</ele>
        <time>2020-06-17T15:14:15Z</time>
      </trkpt>
      <trkpt lat="49.42193" lon="0.23408">
        <ele>6</ele>
        <time>2020-06-17T15:14:16Z</time>
      </trkpt>
      <trkpt lat="49.42192" lon="0.23408">
        <ele>6</ele>
        <time>2020-06-17T15:18:37Z</time>
      </trkpt>
      <trkpt lat="49.42191" lon="0.23409">
        <ele>6</ele>
        <time>2020-06-17T15:18:38Z</time>
      </trkpt>
      <trkpt lat="49.4219" lon="0.23409">
        <ele>6</ele>
        <time>2020-06-17T15:18:39Z</time>
      </trkpt>
      <trkpt lat="49.42187" lon="0.23409">
        <ele>6</ele>
        <time>2020-06-17T15:18:40Z</time>
      </trkpt>
      <trkpt lat="49.42186" lon="0.23409">
        <ele>6.1</ele>
        <time>2020-06-17T15:18:41Z</time>
      </trkpt>
      <trkpt lat="49.42182" lon="0.23407">
        <ele>6.1</ele>
        <time>2020-06-17T15:18:42Z</time>
      </trkpt>
      <trkpt lat="49.4218" lon="0.23407">
        <ele>6.1</ele>
        <time>2020-06-17T15:18:43Z</time>
      </trkpt>
      <trkpt lat="49.42178" lon="0.23405">
        <ele>6.2</ele>
        <time>2020-06-17T15:18:44Z</time>
      </trkpt>
      <trkpt lat="49.42175" lon="0.23404">
        <ele>6.2</ele>
        <time>2020-06-17T15:18:45Z</time>
      </trkpt>
      <trkpt lat="49.42171" lon="0.23402">
        <ele>6.3</ele>
        <time>2020-06-17T15:18:46Z</time>
      </trkpt>
      <trkpt lat="49.42169" lon="0.23398">
        <ele>6.3</ele>
        <time>2020-06-17T15:18:47Z</time>
      </trkpt>
      <trkpt lat="49.42166" lon="0.23393">
        <ele>6.4</ele>
        <time>2020-06-17T15:18:48Z</time>
      </trkpt>
      <trkpt lat="49.42163" lon="0.23389">
        <ele>6.5</ele>
        <time>2020-06-17T15:18:49Z</time>
      </trkpt>
      <trkpt lat="49.4216" lon="0.23386">
        <ele>6.6</ele>
        <time>2020-06-17T15:18:50Z</time>
      </trkpt>
      <trkpt lat="49.42157" lon="0.23382">
        <ele>6.7</ele>
        <time>2020-06-17T15:18:51Z</time>
      </trkpt>
      <trkpt lat="49.42153" lon="0.23377">
        <ele>6.8</ele>
        <time>2020-06-17T15:18:52Z</time>
      </trkpt>
      <trkpt lat="49.4215" lon="0.23371">
        <ele>6.9</ele>
        <time>2020-06-17T15:18:53Z</time>
      </trkpt>
      <trkpt lat="49.42147" lon="0.23367">
        <ele>7</ele>
        <time>2020-06-17T15:18:54Z</time>
      </trkpt>
      <trkpt lat="49.42144" lon="0.23362">
        <ele>7.1</ele>
        <time>2020-06-17T15:18:55Z</time>
      </trkpt>
      <trkpt lat="49.42142" lon="0.23358">
        <ele>7.2</ele>
        <time>2020-06-17T15:18:56Z</time>
      </trkpt>
      <trkpt lat="49.4214" lon="0.23355">
        <ele>7.3</ele>
        <time>2020-06-17T15:18:57Z</time>
      </trkpt>
      <trkpt lat="49.42138" lon="0.2335">
        <ele>7.4</ele>
        <time>2020-06-17T15:18:58Z</time>
      </trkpt>
      <trkpt lat="49.42137" lon="0.23349">
        <ele>7.4</ele>
        <time>2020-06-17T15:18:59Z</time>
      </trkpt>
      <trkpt lat="49.42135" lon="0.23347">
        <ele>7.5</ele>
        <time>2020-06-17T15:19:00Z</time>
      </trkpt>
      <trkpt lat="49.42134" lon="0.23347">
        <ele>7.5</ele>
        <time>2020-06-17T15:19:01Z</time>
      </trkpt>
      <trkpt lat="49.42133" lon="0.23346">
        <ele>7.5</ele>
        <time>2020-06-17T15:19:02Z</time>
      </trkpt>
      <trkpt lat="49.42131" lon="0.23347">
        <ele>7.5</ele>
        <time>2020-06-17T15:19:03Z</time>
      </trkpt>
      <trkpt lat="49.4213" lon="0.23349">
        <ele>7.5</ele>
        <time>2020-06-17T15:19:04Z</time>
      </trkpt>
      <trkpt lat="49.42127" lon="0.23354">
        <ele>7.4</ele>
        <time>2020-06-17T15:19:05Z</time>
      </trkpt>
      <trkpt lat="49.42126" lon="0.23355">
        <ele>7.4</ele>
        <time>2020-06-17T15:19:06Z</time>
      </trkpt>
      <trkpt lat="49.42123" lon="0.23359">
        <ele>7.3</ele>
        <time>2020-06-17T15:19:07Z</time>
      </trkpt>
      <trkpt lat="49.4212" lon="0.23362">
        <ele>7.2</ele>
        <time>2020-06-17T15:19:08Z</time>
      </trkpt>
      <trkpt lat="49.42118" lon="0.23366">
        <ele>7.1</ele>
        <time>2020-06-17T15:19:09Z</time>
      </trkpt>
      <trkpt lat="49.42117" lon="0.23367">
        <ele>7.1</ele>
        <time>2020-06-17T15:19:10Z</time>
      </trkpt>
      <trkpt lat="49.42114" lon="0.23371">
        <ele>7</ele>
        <time>2020-06-17T15:19:11Z</time>
      </trkpt>
      <trkpt lat="49.42111" lon="0.23375">
        <ele>6.9</ele>
        <time>2020-06-17T15:19:12Z</time>
      </trkpt>
      <trkpt lat="49.42109" lon="0.23378">
        <ele>6.8</ele>
        <time>2020-06-17T15:19:13Z</time>
      </trkpt>
      <trkpt lat="49.42107" lon="0.23379">
        <ele>6.8</ele>
        <time>2020-06-17T15:19:14Z</time>
      </trkpt>
      <trkpt lat="49.42105" lon="0.23383">
        <ele>6.7</ele>
        <time>2020-06-17T15:19:15Z</time>
      </trkpt>
      <trkpt lat="49.42102" lon="0.23385">
        <ele>6.7</ele>
        <time>2020-06-17T15:19:16Z</time>
      </trkpt>
      <trkpt lat="49.42102" lon="0.23387">
        <ele>6.6</ele>
        <time>2020-06-17T15:19:17Z</time>
      </trkpt>
      <trkpt lat="49.42098" lon="0.2339">
        <ele>6.5</ele>
        <time>2020-06-17T15:19:18Z</time>
      </trkpt>
      <trkpt lat="49.42097" lon="0.23391">
        <ele>6.5</ele>
        <time>2020-06-17T15:19:19Z</time>
      </trkpt>
      <trkpt lat="49.42095" lon="0.23394">
        <ele>6.4</ele>
        <time>2020-06-17T15:19:20Z</time>
      </trkpt>
      <trkpt lat="49.42093" lon="0.23396">
        <ele>6.4</ele>
        <time>2020-06-17T15:19:21Z</time>
      </trkpt>
      <trkpt lat="49.42092" lon="0.23396">
        <ele>6.4</ele>
        <time>2020-06-17T15:19:22Z</time>
      </trkpt>
      <trkpt lat="49.42091" lon="0.23397">
        <ele>6.4</ele>
        <time>2020-06-17T15:19:23Z</time>
      </trkpt>
      <trkpt lat="49.42088" lon="0.23401">
        <ele>6.3</ele>
        <time>2020-06-17T15:19:24Z</time>
      </trkpt>
      <trkpt lat="49.42087" lon="0.23402">
        <ele>6.3</ele>
        <time>2020-06-17T15:19:25Z</time>
      </trkpt>
      <trkpt lat="49.42084" lon="0.23407">
        <ele>6.2</ele>
        <time>2020-06-17T15:19:26Z</time>
      </trkpt>
      <trkpt lat="49.42082" lon="0.23412">
        <ele>6.1</ele>
        <time>2020-06-17T15:19:27Z</time>
      </trkpt>
      <trkpt lat="49.4208" lon="0.23416">
        <ele>6.1</ele>
        <time>2020-06-17T15:19:28Z</time>
      </trkpt>
      <trkpt lat="49.42077" lon="0.2342">
        <ele>6.1</ele>
        <time>2020-06-17T15:19:29Z</time>
      </trkpt>
      <trkpt lat="49.42074" lon="0.23423">
        <ele>6</ele>
        <time>2020-06-17T15:19:30Z</time>
      </trkpt>
      <trkpt lat="49.4207" lon="0.23427">
        <ele>6</ele>
        <time>2020-06-17T15:19:31Z</time>
      </trkpt>
      <trkpt lat="49.42067" lon="0.23432">
        <ele>6</ele>
        <time>2020-06-17T15:19:32Z</time>
      </trkpt>
      <trkpt lat="49.42063" lon="0.23435">
        <ele>5.9</ele>
        <time>2020-06-17T15:19:33Z</time>
      </trkpt>
      <trkpt lat="49.4206" lon="0.23439">
        <ele>5.9</ele>
        <time>2020-06-17T15:19:34Z</time>
      </trkpt>
      <trkpt lat="49.42057" lon="0.23441">
        <ele>5.8</ele>
        <time>2020-06-17T15:19:35Z</time>
      </trkpt>
      <trkpt lat="49.42053" lon="0.23445">
        <ele>5.8</ele>
        <time>2020-06-17T15:19:36Z</time>
      </trkpt>
      <trkpt lat="49.42049" lon="0.23449">
        <ele>5.7</ele>
        <time>2020-06-17T15:19:37Z</time>
      </trkpt>
      <trkpt lat="49.42046" lon="0.23454">
        <ele>5.7</ele>
        <time>2020-06-17T15:19:38Z</time>
      </trkpt>
      <trkpt lat="49.42043" lon="0.23459">
        <ele>5.7</ele>
        <time>2020-06-17T15:19:39Z</time>
      </trkpt>
      <trkpt lat="49.42039" lon="0.23463">
        <ele>5.7</ele>
        <time>2020-06-17T15:19:40Z</time>
      </trkpt>
      <trkpt lat="49.42036" lon="0.23466">
        <ele>5.7</ele>
        <time>2020-06-17T15:19:41Z</time>
      </trkpt>
      <trkpt lat="49.42033" lon="0.23471">
        <ele>5.7</ele>
        <time>2020-06-17T15:19:42Z</time>
      </trkpt>
      <trkpt lat="49.4203" lon="0.23475">
        <ele>5.7</ele>
        <time>2020-06-17T15:19:43Z</time>
      </trkpt>
      <trkpt lat="49.42027" lon="0.23479">
        <ele>5.7</ele>
        <time>2020-06-17T15:19:44Z</time>
      </trkpt>
      <trkpt lat="49.42023" lon="0.23483">
        <ele>5.7</ele>
        <time>2020-06-17T15:19:45Z</time>
      </trkpt>
      <trkpt lat="49.4202" lon="0.23487">
        <ele>5.7</ele>
        <time>2020-06-17T15:19:46Z</time>
      </trkpt>
      <trkpt lat="49.42018" lon="0.23492">
        <ele>5.7</ele>
        <time>2020-06-17T15:19:47Z</time>
      </trkpt>
      <trkpt lat="49.42015" lon="0.23496">
        <ele>5.7</ele>
        <time>2020-06-17T15:19:48Z</time>
      </trkpt>
      <trkpt lat="49.42013" lon="0.235">
        <ele>5.7</ele>
        <time>2020-06-17T15:19:49Z</time>
      </trkpt>
      <trkpt lat="49.42009" lon="0.23504">
        <ele>5.7</ele>
        <time>2020-06-17T15:19:50Z</time>
      </trkpt>
      <trkpt lat="49.42006" lon="0.2351">
        <ele>5.7</ele>
        <time>2020-06-17T15:19:51Z</time>
      </trkpt>
      <trkpt lat="49.42003" lon="0.23516">
        <ele>5.7</ele>
        <time>2020-06-17T15:19:52Z</time>
      </trkpt>
      <trkpt lat="49.42" lon="0.23521">
        <ele>5.7</ele>
        <time>2020-06-17T15:19:53Z</time>
      </trkpt>
      <trkpt lat="49.41996" lon="0.23527">
        <ele>5.7</ele>
        <time>2020-06-17T15:19:54Z</time>
      </trkpt>
      <trkpt lat="49.41993" lon="0.23534">
        <ele>5.7</ele>
        <time>2020-06-17T15:19:55Z</time>
      </trkpt>
      <trkpt lat="49.4199" lon="0.23539">
        <ele>5.7</ele>
        <time>2020-06-17T15:19:56Z</time>
      </trkpt>
      <trkpt lat="49.41985" lon="0.23547">
        <ele>5.6</ele>
        <time>2020-06-17T15:19:57Z</time>
      </trkpt>
      <trkpt lat="49.41981" lon="0.23551">
        <ele>5.6</ele>
        <time>2020-06-17T15:19:58Z</time>
      </trkpt>
      <trkpt lat="49.41978" lon="0.23556">
        <ele>5.7</ele>
        <time>2020-06-17T15:19:59Z</time>
      </trkpt>
      <trkpt lat="49.41975" lon="0.23562">
        <ele>5.7</ele>
        <time>2020-06-17T15:20:00Z</time>
      </trkpt>
      <trkpt lat="49.41973" lon="0.23566">
        <ele>5.8</ele>
        <time>2020-06-17T15:20:01Z</time>
      </trkpt>
      <trkpt lat="49.4197" lon="0.23569">
        <ele>5.8</ele>
        <time>2020-06-17T15:20:02Z</time>
      </trkpt>
      <trkpt lat="49.41967" lon="0.23573">
        <ele>5.9</ele>
        <time>2020-06-17T15:20:03Z</time>
      </trkpt>
      <trkpt lat="49.41963" lon="0.23575">
        <ele>5.9</ele>
        <time>2020-06-17T15:20:04Z</time>
      </trkpt>
      <trkpt lat="49.41958" lon="0.23576">
        <ele>6</ele>
        <time>2020-06-17T15:20:05Z</time>
      </trkpt>
      <trkpt lat="49.41953" lon="0.23576">
        <ele>6.1</ele>
        <time>2020-06-17T15:20:06Z</time>
      </trkpt>
      <trkpt lat="49.41948" lon="0.23577">
        <ele>6.1</ele>
        <time>2020-06-17T15:20:07Z</time>
      </trkpt>
      <trkpt lat="49.41942" lon="0.23578">
        <ele>6.2</ele>
        <time>2020-06-17T15:20:08Z</time>
      </trkpt>
      <trkpt lat="49.41937" lon="0.23576">
        <ele>6.2</ele>
        <time>2020-06-17T15:20:09Z</time>
      </trkpt>
      <trkpt lat="49.41933" lon="0.23576">
        <ele>6.2</ele>
        <time>2020-06-17T15:20:10Z</time>
      </trkpt>
      <trkpt lat="49.41928" lon="0.23575">
        <ele>6.3</ele>
        <time>2020-06-17T15:20:11Z</time>
      </trkpt>
      <trkpt lat="49.41924" lon="0.23573">
        <ele>6.3</ele>
        <time>2020-06-17T15:20:12Z</time>
      </trkpt>
      <trkpt lat="49.4192" lon="0.23573">
        <ele>6.3</ele>
        <time>2020-06-17T15:20:13Z</time>
      </trkpt>
      <trkpt lat="49.41915" lon="0.2357">
        <ele>6.4</ele>
        <time>2020-06-17T15:20:14Z</time>
      </trkpt>
      <trkpt lat="49.41911" lon="0.23569">
        <ele>6.4</ele>
        <time>2020-06-17T15:20:15Z</time>
      </trkpt>
      <trkpt lat="49.41906" lon="0.23568">
        <ele>6.4</ele>
        <time>2020-06-17T15:20:16Z</time>
      </trkpt>
      <trkpt lat="49.41902" lon="0.23568">
        <ele>6.4</ele>
        <time>2020-06-17T15:20:17Z</time>
      </trkpt>
      <trkpt lat="49.41898" lon="0.23567">
        <ele>6.5</ele>
        <time>2020-06-17T15:20:18Z</time>
      </trkpt>
      <trkpt lat="49.41894" lon="0.23565">
        <ele>6.5</ele>
        <time>2020-06-17T15:20:19Z</time>
      </trkpt>
      <trkpt lat="49.4189" lon="0.23564">
        <ele>6.6</ele>
        <time>2020-06-17T15:20:20Z</time>
      </trkpt>
      <trkpt lat="49.41887" lon="0.23562">
        <ele>6.6</ele>
        <time>2020-06-17T15:20:21Z</time>
      </trkpt>
      <trkpt lat="49.41883" lon="0.23561">
        <ele>6.7</ele>
        <time>2020-06-17T15:20:22Z</time>
      </trkpt>
      <trkpt lat="49.41879" lon="0.2356">
        <ele>6.7</ele>
        <time>2020-06-17T15:20:23Z</time>
      </trkpt>
      <trkpt lat="49.41876" lon="0.23558">
        <ele>6.7</ele>
        <time>2020-06-17T15:20:24Z</time>
      </trkpt>
      <trkpt lat="49.41872" lon="0.23557">
        <ele>6.9</ele>
        <time>2020-06-17T15:20:25Z</time>
      </trkpt>
      <trkpt lat="49.41868" lon="0.23556">
        <ele>6.9</ele>
        <time>2020-06-17T15:20:26Z</time>
      </trkpt>
      <trkpt lat="49.41865" lon="0.23554">
        <ele>7</ele>
        <time>2020-06-17T15:20:27Z</time>
      </trkpt>
      <trkpt lat="49.41861" lon="0.23552">
        <ele>7.1</ele>
        <time>2020-06-17T15:20:28Z</time>
      </trkpt>
      <trkpt lat="49.41856" lon="0.23554">
        <ele>7.3</ele>
        <time>2020-06-17T15:20:29Z</time>
      </trkpt>
      <trkpt lat="49.41851" lon="0.23558">
        <ele>7.4</ele>
        <time>2020-06-17T15:20:30Z</time>
      </trkpt>
      <trkpt lat="49.41848" lon="0.23563">
        <ele>7.5</ele>
        <time>2020-06-17T15:20:31Z</time>
      </trkpt>
      <trkpt lat="49.41845" lon="0.23569">
        <ele>7.6</ele>
        <time>2020-06-17T15:20:32Z</time>
      </trkpt>
      <trkpt lat="49.41844" lon="0.23575">
        <ele>7.6</ele>
        <time>2020-06-17T15:20:33Z</time>
      </trkpt>
      <trkpt lat="49.41843" lon="0.23582">
        <ele>7.7</ele>
        <time>2020-06-17T15:20:34Z</time>
      </trkpt>
      <trkpt lat="49.41843" lon="0.23589">
        <ele>7.8</ele>
        <time>2020-06-17T15:20:35Z</time>
      </trkpt>
      <trkpt lat="49.41842" lon="0.23598">
        <ele>7.9</ele>
        <time>2020-06-17T15:20:36Z</time>
      </trkpt>
      <trkpt lat="49.41841" lon="0.23608">
        <ele>7.9</ele>
        <time>2020-06-17T15:20:37Z</time>
      </trkpt>
      <trkpt lat="49.41842" lon="0.23615">
        <ele>7.8</ele>
        <time>2020-06-17T15:20:38Z</time>
      </trkpt>
      <trkpt lat="49.41843" lon="0.23622">
        <ele>7.7</ele>
        <time>2020-06-17T15:20:39Z</time>
      </trkpt>
      <trkpt lat="49.41844" lon="0.23628">
        <ele>7.6</ele>
        <time>2020-06-17T15:20:40Z</time>
      </trkpt>
      <trkpt lat="49.41846" lon="0.23635">
        <ele>7.5</ele>
        <time>2020-06-17T15:20:41Z</time>
      </trkpt>
      <trkpt lat="49.41847" lon="0.23643">
        <ele>7.4</ele>
        <time>2020-06-17T15:20:42Z</time>
      </trkpt>
      <trkpt lat="49.41849" lon="0.23651">
        <ele>7.2</ele>
        <time>2020-06-17T15:20:43Z</time>
      </trkpt>
      <trkpt lat="49.4185" lon="0.23658">
        <ele>7.1</ele>
        <time>2020-06-17T15:20:44Z</time>
      </trkpt>
      <trkpt lat="49.41852" lon="0.23667">
        <ele>6.9</ele>
        <time>2020-06-17T15:20:45Z</time>
      </trkpt>
      <trkpt lat="49.41854" lon="0.23674">
        <ele>6.8</ele>
        <time>2020-06-17T15:20:46Z</time>
      </trkpt>
      <trkpt lat="49.41855" lon="0.23681">
        <ele>6.7</ele>
        <time>2020-06-17T15:20:47Z</time>
      </trkpt>
      <trkpt lat="49.41856" lon="0.23691">
        <ele>6.6</ele>
        <time>2020-06-17T15:20:48Z</time>
      </trkpt>
      <trkpt lat="49.41856" lon="0.237">
        <ele>6.5</ele>
        <time>2020-06-17T15:20:49Z</time>
      </trkpt>
      <trkpt lat="49.41857" lon="0.23709">
        <ele>6.4</ele>
        <time>2020-06-17T15:20:50Z</time>
      </trkpt>
      <trkpt lat="49.41859" lon="0.2372">
        <ele>6.4</ele>
        <time>2020-06-17T15:20:51Z</time>
      </trkpt>
      <trkpt lat="49.4186" lon="0.23729">
        <ele>6.3</ele>
        <time>2020-06-17T15:20:52Z</time>
      </trkpt>
      <trkpt lat="49.4186" lon="0.23739">
        <ele>6.2</ele>
        <time>2020-06-17T15:20:53Z</time>
      </trkpt>
      <trkpt lat="49.4186" lon="0.23748">
        <ele>6.2</ele>
        <time>2020-06-17T15:20:54Z</time>
      </trkpt>
      <trkpt lat="49.41859" lon="0.23758">
        <ele>6.2</ele>
        <time>2020-06-17T15:20:55Z</time>
      </trkpt>
      <trkpt lat="49.41859" lon="0.23768">
        <ele>6.1</ele>
        <time>2020-06-17T15:20:56Z</time>
      </trkpt>
      <trkpt lat="49.41858" lon="0.23779">
        <ele>6</ele>
        <time>2020-06-17T15:20:57Z</time>
      </trkpt>
      <trkpt lat="49.41857" lon="0.23789">
        <ele>5.9</ele>
        <time>2020-06-17T15:20:58Z</time>
      </trkpt>
      <trkpt lat="49.41856" lon="0.23797">
        <ele>5.9</ele>
        <time>2020-06-17T15:20:59Z</time>
      </trkpt>
      <trkpt lat="49.41852" lon="0.23806">
        <ele>5.9</ele>
        <time>2020-06-17T15:21:00Z</time>
      </trkpt>
      <trkpt lat="49.41848" lon="0.23816">
        <ele>5.9</ele>
        <time>2020-06-17T15:21:01Z</time>
      </trkpt>
      <trkpt lat="49.41845" lon="0.23826">
        <ele>5.9</ele>
        <time>2020-06-17T15:21:02Z</time>
      </trkpt>
      <trkpt lat="49.41841" lon="0.23833">
        <ele>5.9</ele>
        <time>2020-06-17T15:21:03Z</time>
      </trkpt>
      <trkpt lat="49.41838" lon="0.23842">
        <ele>5.9</ele>
        <time>2020-06-17T15:21:04Z</time>
      </trkpt>
      <trkpt lat="49.41834" lon="0.2385">
        <ele>5.9</ele>
        <time>2020-06-17T15:21:05Z</time>
      </trkpt>
      <trkpt lat="49.4183" lon="0.23857">
        <ele>5.8</ele>
        <time>2020-06-17T15:21:06Z</time>
      </trkpt>
      <trkpt lat="49.41826" lon="0.23865">
        <ele>5.8</ele>
        <time>2020-06-17T15:21:07Z</time>
      </trkpt>
      <trkpt lat="49.41822" lon="0.23873">
        <ele>5.8</ele>
        <time>2020-06-17T15:21:08Z</time>
      </trkpt>
      <trkpt lat="49.41818" lon="0.2388">
        <ele>5.7</ele>
        <time>2020-06-17T15:21:09Z</time>
      </trkpt>
      <trkpt lat="49.41814" lon="0.23888">
        <ele>5.7</ele>
        <time>2020-06-17T15:21:10Z</time>
      </trkpt>
      <trkpt lat="49.41811" lon="0.23896">
        <ele>5.7</ele>
        <time>2020-06-17T15:21:11Z</time>
      </trkpt>
      <trkpt lat="49.41808" lon="0.23902">
        <ele>5.6</ele>
        <time>2020-06-17T15:21:12Z</time>
      </trkpt>
      <trkpt lat="49.41804" lon="0.2391">
        <ele>5.6</ele>
        <time>2020-06-17T15:21:13Z</time>
      </trkpt>
      <trkpt lat="49.418" lon="0.23918">
        <ele>5.6</ele>
        <time>2020-06-17T15:21:14Z</time>
      </trkpt>
      <trkpt lat="49.41797" lon="0.23925">
        <ele>5.6</ele>
        <time>2020-06-17T15:21:15Z</time>
      </trkpt>
      <trkpt lat="49.41795" lon="0.23931">
        <ele>5.6</ele>
        <time>2020-06-17T15:21:16Z</time>
      </trkpt>
      <trkpt lat="49.41792" lon="0.23938">
        <ele>5.6</ele>
        <time>2020-06-17T15:21:17Z</time>
      </trkpt>
      <trkpt lat="49.41789" lon="0.23945">
        <ele>5.6</ele>
        <time>2020-06-17T15:21:18Z</time>
      </trkpt>
      <trkpt lat="49.41787" lon="0.23952">
        <ele>5.7</ele>
        <time>2020-06-17T15:21:19Z</time>
      </trkpt>
      <trkpt lat="49.41784" lon="0.2396">
        <ele>5.7</ele>
        <time>2020-06-17T15:21:20Z</time>
      </trkpt>
      <trkpt lat="49.41783" lon="0.23968">
        <ele>5.8</ele>
        <time>2020-06-17T15:21:21Z</time>
      </trkpt>
      <trkpt lat="49.41781" lon="0.23977">
        <ele>5.8</ele>
        <time>2020-06-17T15:21:22Z</time>
      </trkpt>
      <trkpt lat="49.4178" lon="0.23984">
        <ele>5.9</ele>
        <time>2020-06-17T15:21:23Z</time>
      </trkpt>
      <trkpt lat="49.41778" lon="0.23993">
        <ele>7</ele>
        <time>2020-06-17T15:21:24Z</time>
      </trkpt>
      <trkpt lat="49.41775" lon="0.24">
        <ele>6.9</ele>
        <time>2020-06-17T15:21:25Z</time>
      </trkpt>
      <trkpt lat="49.41772" lon="0.24007">
        <ele>6.8</ele>
        <time>2020-06-17T15:21:26Z</time>
      </trkpt>
      <trkpt lat="49.41769" lon="0.24013">
        <ele>6.7</ele>
        <time>2020-06-17T15:21:27Z</time>
      </trkpt>
      <trkpt lat="49.41766" lon="0.24019">
        <ele>6.7</ele>
        <time>2020-06-17T15:21:28Z</time>
      </trkpt>
      <trkpt lat="49.41763" lon="0.24025">
        <ele>6.6</ele>
        <time>2020-06-17T15:21:29Z</time>
      </trkpt>
      <trkpt lat="49.41761" lon="0.2403">
        <ele>6.6</ele>
        <time>2020-06-17T15:21:30Z</time>
      </trkpt>
      <trkpt lat="49.41759" lon="0.24035">
        <ele>6.6</ele>
        <time>2020-06-17T15:21:31Z</time>
      </trkpt>
      <trkpt lat="49.41757" lon="0.2404">
        <ele>6.6</ele>
        <time>2020-06-17T15:21:32Z</time>
      </trkpt>
      <trkpt lat="49.41752" lon="0.24045">
        <ele>6.5</ele>
        <time>2020-06-17T15:21:33Z</time>
      </trkpt>
      <trkpt lat="49.41747" lon="0.2405">
        <ele>6.5</ele>
        <time>2020-06-17T15:21:34Z</time>
      </trkpt>
      <trkpt lat="49.41742" lon="0.24055">
        <ele>6.5</ele>
        <time>2020-06-17T15:21:35Z</time>
      </trkpt>
      <trkpt lat="49.41737" lon="0.2406">
        <ele>6.5</ele>
        <time>2020-06-17T15:21:36Z</time>
      </trkpt>
      <trkpt lat="49.41732" lon="0.24065">
        <ele>6.6</ele>
        <time>2020-06-17T15:21:37Z</time>
      </trkpt>
      <trkpt lat="49.41727" lon="0.24069">
        <ele>6.6</ele>
        <time>2020-06-17T15:21:38Z</time>
      </trkpt>
      <trkpt lat="49.4172" lon="0.24074">
        <ele>6.6</ele>
        <time>2020-06-17T15:21:39Z</time>
      </trkpt>
      <trkpt lat="49.41715" lon="0.24078">
        <ele>6.7</ele>
        <time>2020-06-17T15:21:40Z</time>
      </trkpt>
      <trkpt lat="49.41711" lon="0.24085">
        <ele>6.7</ele>
        <time>2020-06-17T15:21:41Z</time>
      </trkpt>
      <trkpt lat="49.41707" lon="0.24091">
        <ele>6.7</ele>
        <time>2020-06-17T15:21:42Z</time>
      </trkpt>
      <trkpt lat="49.41703" lon="0.24097">
        <ele>6.7</ele>
        <time>2020-06-17T15:21:43Z</time>
      </trkpt>
      <trkpt lat="49.417" lon="0.24105">
        <ele>6.7</ele>
        <time>2020-06-17T15:21:44Z</time>
      </trkpt>
      <trkpt lat="49.41697" lon="0.24113">
        <ele>6.7</ele>
        <time>2020-06-17T15:21:45Z</time>
      </trkpt>
      <trkpt lat="49.41694" lon="0.24121">
        <ele>6.8</ele>
        <time>2020-06-17T15:21:46Z</time>
      </trkpt>
      <trkpt lat="49.41691" lon="0.24127">
        <ele>6.8</ele>
        <time>2020-06-17T15:21:47Z</time>
      </trkpt>
      <trkpt lat="49.41688" lon="0.24134">
        <ele>6.8</ele>
        <time>2020-06-17T15:21:48Z</time>
      </trkpt>
      <trkpt lat="49.41685" lon="0.24141">
        <ele>6.8</ele>
        <time>2020-06-17T15:21:49Z</time>
      </trkpt>
      <trkpt lat="49.41682" lon="0.24148">
        <ele>6.8</ele>
        <time>2020-06-17T15:21:50Z</time>
      </trkpt>
      <trkpt lat="49.41679" lon="0.24156">
        <ele>6.8</ele>
        <time>2020-06-17T15:21:51Z</time>
      </trkpt>
      <trkpt lat="49.41675" lon="0.24164">
        <ele>6.8</ele>
        <time>2020-06-17T15:21:52Z</time>
      </trkpt>
      <trkpt lat="49.41671" lon="0.24171">
        <ele>6.8</ele>
        <time>2020-06-17T15:21:53Z</time>
      </trkpt>
      <trkpt lat="49.41668" lon="0.24178">
        <ele>6.9</ele>
        <time>2020-06-17T15:21:54Z</time>
      </trkpt>
      <trkpt lat="49.41664" lon="0.24186">
        <ele>6.9</ele>
        <time>2020-06-17T15:21:55Z</time>
      </trkpt>
      <trkpt lat="49.41661" lon="0.24193">
        <ele>6.8</ele>
        <time>2020-06-17T15:21:56Z</time>
      </trkpt>
      <trkpt lat="49.41657" lon="0.242">
        <ele>6.8</ele>
        <time>2020-06-17T15:21:57Z</time>
      </trkpt>
      <trkpt lat="49.41654" lon="0.24207">
        <ele>6.8</ele>
        <time>2020-06-17T15:21:58Z</time>
      </trkpt>
      <trkpt lat="49.41651" lon="0.24213">
        <ele>6.8</ele>
        <time>2020-06-17T15:21:59Z</time>
      </trkpt>
      <trkpt lat="49.41647" lon="0.24219">
        <ele>6.8</ele>
        <time>2020-06-17T15:22:00Z</time>
      </trkpt>
      <trkpt lat="49.41644" lon="0.24227">
        <ele>6.8</ele>
        <time>2020-06-17T15:22:01Z</time>
      </trkpt>
      <trkpt lat="49.41641" lon="0.24234">
        <ele>6.9</ele>
        <time>2020-06-17T15:22:02Z</time>
      </trkpt>
      <trkpt lat="49.41637" lon="0.24242">
        <ele>6.9</ele>
        <time>2020-06-17T15:22:03Z</time>
      </trkpt>
      <trkpt lat="49.41634" lon="0.2425">
        <ele>6.9</ele>
        <time>2020-06-17T15:22:04Z</time>
      </trkpt>
      <trkpt lat="49.4163" lon="0.24257">
        <ele>6.9</ele>
        <time>2020-06-17T15:22:05Z</time>
      </trkpt>
      <trkpt lat="49.41627" lon="0.24263">
        <ele>6.9</ele>
        <time>2020-06-17T15:22:06Z</time>
      </trkpt>
      <trkpt lat="49.41624" lon="0.2427">
        <ele>6.9</ele>
        <time>2020-06-17T15:22:07Z</time>
      </trkpt>
      <trkpt lat="49.4162" lon="0.24275">
        <ele>7</ele>
        <time>2020-06-17T15:22:08Z</time>
      </trkpt>
      <trkpt lat="49.41617" lon="0.24282">
        <ele>7</ele>
        <time>2020-06-17T15:22:09Z</time>
      </trkpt>
      <trkpt lat="49.41614" lon="0.24288">
        <ele>7</ele>
        <time>2020-06-17T15:22:10Z</time>
      </trkpt>
      <trkpt lat="49.41611" lon="0.24295">
        <ele>7</ele>
        <time>2020-06-17T15:22:11Z</time>
      </trkpt>
      <trkpt lat="49.41608" lon="0.24301">
        <ele>7</ele>
        <time>2020-06-17T15:22:12Z</time>
      </trkpt>
      <trkpt lat="49.41605" lon="0.24307">
        <ele>7</ele>
        <time>2020-06-17T15:22:13Z</time>
      </trkpt>
      <trkpt lat="49.41602" lon="0.24314">
        <ele>7</ele>
        <time>2020-06-17T15:22:14Z</time>
      </trkpt>
      <trkpt lat="49.41599" lon="0.24319">
        <ele>7</ele>
        <time>2020-06-17T15:22:15Z</time>
      </trkpt>
      <trkpt lat="49.41596" lon="0.24325">
        <ele>7</ele>
        <time>2020-06-17T15:22:16Z</time>
      </trkpt>
      <trkpt lat="49.41595" lon="0.24331">
        <ele>7</ele>
        <time>2020-06-17T15:22:17Z</time>
      </trkpt>
      <trkpt lat="49.41592" lon="0.24336">
        <ele>7</ele>
        <time>2020-06-17T15:22:18Z</time>
      </trkpt>
      <trkpt lat="49.4159" lon="0.24341">
        <ele>7</ele>
        <time>2020-06-17T15:22:19Z</time>
      </trkpt>
      <trkpt lat="49.41589" lon="0.24345">
        <ele>7</ele>
        <time>2020-06-17T15:22:20Z</time>
      </trkpt>
      <trkpt lat="49.41587" lon="0.2435">
        <ele>7.1</ele>
        <time>2020-06-17T15:22:21Z</time>
      </trkpt>
      <trkpt lat="49.41585" lon="0.24355">
        <ele>7.1</ele>
        <time>2020-06-17T15:22:22Z</time>
      </trkpt>
      <trkpt lat="49.41583" lon="0.24358">
        <ele>7.1</ele>
        <time>2020-06-17T15:22:23Z</time>
      </trkpt>
      <trkpt lat="49.41583" lon="0.24365">
        <ele>7.1</ele>
        <time>2020-06-17T15:22:24Z</time>
      </trkpt>
      <trkpt lat="49.41583" lon="0.24369">
        <ele>7.1</ele>
        <time>2020-06-17T15:22:25Z</time>
      </trkpt>
      <trkpt lat="49.41582" lon="0.24374">
        <ele>7.2</ele>
        <time>2020-06-17T15:22:26Z</time>
      </trkpt>
      <trkpt lat="49.41579" lon="0.24378">
        <ele>7.2</ele>
        <time>2020-06-17T15:22:27Z</time>
      </trkpt>
      <trkpt lat="49.41578" lon="0.2438">
        <ele>7.2</ele>
        <time>2020-06-17T15:22:28Z</time>
      </trkpt>
      <trkpt lat="49.41576" lon="0.24385">
        <ele>7.3</ele>
        <time>2020-06-17T15:22:29Z</time>
      </trkpt>
      <trkpt lat="49.41574" lon="0.24388">
        <ele>7.3</ele>
        <time>2020-06-17T15:22:30Z</time>
      </trkpt>
      <trkpt lat="49.41571" lon="0.24392">
        <ele>7.4</ele>
        <time>2020-06-17T15:22:31Z</time>
      </trkpt>
      <trkpt lat="49.41569" lon="0.24397">
        <ele>7.4</ele>
        <time>2020-06-17T15:22:32Z</time>
      </trkpt>
      <trkpt lat="49.41566" lon="0.24401">
        <ele>7.3</ele>
        <time>2020-06-17T15:22:33Z</time>
      </trkpt>
      <trkpt lat="49.41563" lon="0.24406">
        <ele>7.3</ele>
        <time>2020-06-17T15:22:34Z</time>
      </trkpt>
      <trkpt lat="49.41561" lon="0.24411">
        <ele>7.3</ele>
        <time>2020-06-17T15:22:35Z</time>
      </trkpt>
      <trkpt lat="49.41559" lon="0.24416">
        <ele>7.3</ele>
        <time>2020-06-17T15:22:36Z</time>
      </trkpt>
      <trkpt lat="49.41556" lon="0.24422">
        <ele>7.3</ele>
        <time>2020-06-17T15:22:37Z</time>
      </trkpt>
      <trkpt lat="49.41554" lon="0.24427">
        <ele>7.3</ele>
        <time>2020-06-17T15:22:38Z</time>
      </trkpt>
      <trkpt lat="49.41552" lon="0.24431">
        <ele>7.3</ele>
        <time>2020-06-17T15:22:39Z</time>
      </trkpt>
      <trkpt lat="49.4155" lon="0.24435">
        <ele>7.3</ele>
        <time>2020-06-17T15:22:40Z</time>
      </trkpt>
      <trkpt lat="49.41548" lon="0.24439">
        <ele>7.3</ele>
        <time>2020-06-17T15:22:41Z</time>
      </trkpt>
      <trkpt lat="49.41546" lon="0.24442">
        <ele>7.3</ele>
        <time>2020-06-17T15:22:42Z</time>
      </trkpt>
      <trkpt lat="49.41543" lon="0.24447">
        <ele>7.3</ele>
        <time>2020-06-17T15:22:43Z</time>
      </trkpt>
      <trkpt lat="49.41541" lon="0.24451">
        <ele>7.3</ele>
        <time>2020-06-17T15:22:44Z</time>
      </trkpt>
      <trkpt lat="49.41539" lon="0.24456">
        <ele>7.3</ele>
        <time>2020-06-17T15:22:45Z</time>
      </trkpt>
      <trkpt lat="49.41536" lon="0.24461">
        <ele>7.3</ele>
        <time>2020-06-17T15:22:46Z</time>
      </trkpt>
      <trkpt lat="49.41533" lon="0.24466">
        <ele>7.3</ele>
        <time>2020-06-17T15:22:47Z</time>
      </trkpt>
      <trkpt lat="49.4153" lon="0.24473">
        <ele>7.4</ele>
        <time>2020-06-17T15:22:48Z</time>
      </trkpt>
      <trkpt lat="49.41527" lon="0.24478">
        <ele>7.4</ele>
        <time>2020-06-17T15:22:49Z</time>
      </trkpt>
      <trkpt lat="49.41523" lon="0.24484">
        <ele>7.4</ele>
        <time>2020-06-17T15:22:50Z</time>
      </trkpt>
      <trkpt lat="49.4152" lon="0.2449">
        <ele>7.4</ele>
        <time>2020-06-17T15:22:51Z</time>
      </trkpt>
      <trkpt lat="49.41517" lon="0.24494">
        <ele>7.4</ele>
        <time>2020-06-17T15:22:52Z</time>
      </trkpt>
      <trkpt lat="49.41514" lon="0.24501">
        <ele>7.4</ele>
        <time>2020-06-17T15:22:53Z</time>
      </trkpt>
      <trkpt lat="49.41511" lon="0.24505">
        <ele>7.4</ele>
        <time>2020-06-17T15:22:54Z</time>
      </trkpt>
      <trkpt lat="49.41509" lon="0.24508">
        <ele>7.4</ele>
        <time>2020-06-17T15:22:55Z</time>
      </trkpt>
      <trkpt lat="49.41508" lon="0.24513">
        <ele>7.4</ele>
        <time>2020-06-17T15:22:56Z</time>
      </trkpt>
      <trkpt lat="49.41507" lon="0.24518">
        <ele>7.4</ele>
        <time>2020-06-17T15:22:57Z</time>
      </trkpt>
      <trkpt lat="49.41505" lon="0.24523">
        <ele>7.4</ele>
        <time>2020-06-17T15:22:58Z</time>
      </trkpt>
      <trkpt lat="49.41504" lon="0.24525">
        <ele>7.4</ele>
        <time>2020-06-17T15:22:59Z</time>
      </trkpt>
      <trkpt lat="49.41501" lon="0.24528">
        <ele>7.5</ele>
        <time>2020-06-17T15:23:00Z</time>
      </trkpt>
      <trkpt lat="49.415" lon="0.24529">
        <ele>7.5</ele>
        <time>2020-06-17T15:23:01Z</time>
      </trkpt>
      <trkpt lat="49.41498" lon="0.24532">
        <ele>7.5</ele>
        <time>2020-06-17T15:23:02Z</time>
      </trkpt>
      <trkpt lat="49.41496" lon="0.24535">
        <ele>7.5</ele>
        <time>2020-06-17T15:23:03Z</time>
      </trkpt>
      <trkpt lat="49.41494" lon="0.24539">
        <ele>7.5</ele>
        <time>2020-06-17T15:23:04Z</time>
      </trkpt>
      <trkpt lat="49.4149" lon="0.24543">
        <ele>7.5</ele>
        <time>2020-06-17T15:23:05Z</time>
      </trkpt>
      <trkpt lat="49.41487" lon="0.24546">
        <ele>7.5</ele>
        <time>2020-06-17T15:23:06Z</time>
      </trkpt>
      <trkpt lat="49.41484" lon="0.24547">
        <ele>7.5</ele>
        <time>2020-06-17T15:23:07Z</time>
      </trkpt>
      <trkpt lat="49.41482" lon="0.24549">
        <ele>7.5</ele>
        <time>2020-06-17T15:23:08Z</time>
      </trkpt>
      <trkpt lat="49.41481" lon="0.24549">
        <ele>7.5</ele>
        <time>2020-06-17T15:23:09Z</time>
      </trkpt>
      <trkpt lat="49.41481" lon="0.24548">
        <ele>7.5</ele>
        <time>2020-06-17T15:23:10Z</time>
      </trkpt>
      <trkpt lat="49.4148" lon="0.24548">
        <ele>7.5</ele>
        <time>2020-06-17T15:23:11Z</time>
      </trkpt>
      <trkpt lat="49.4148" lon="0.24549">
        <ele>7.5</ele>
        <time>2020-06-17T15:23:12Z</time>
      </trkpt>
      <trkpt lat="49.4148" lon="0.24549">
        <ele>7.5</ele>
        <time>2020-06-17T15:23:13Z</time>
      </trkpt>
      <trkpt lat="49.41479" lon="0.2455">
        <ele>7.5</ele>
        <time>2020-06-17T15:23:14Z</time>
      </trkpt>
      <trkpt lat="49.4148" lon="0.24551">
        <ele>7.5</ele>
        <time>2020-06-17T15:23:15Z</time>
      </trkpt>
      <trkpt lat="49.41479" lon="0.24552">
        <ele>7.6</ele>
        <time>2020-06-17T15:23:16Z</time>
      </trkpt>
      <trkpt lat="49.41478" lon="0.24555">
        <ele>7.6</ele>
        <time>2020-06-17T15:23:17Z</time>
      </trkpt>
      <trkpt lat="49.41478" lon="0.24556">
        <ele>7.6</ele>
        <time>2020-06-17T15:23:18Z</time>
      </trkpt>
      <trkpt lat="49.41477" lon="0.24558">
        <ele>7.6</ele>
        <time>2020-06-17T15:23:19Z</time>
      </trkpt>
      <trkpt lat="49.41476" lon="0.24562">
        <ele>7.6</ele>
        <time>2020-06-17T15:23:20Z</time>
      </trkpt>
      <trkpt lat="49.41474" lon="0.24567">
        <ele>7.6</ele>
        <time>2020-06-17T15:23:21Z</time>
      </trkpt>
      <trkpt lat="49.41473" lon="0.24571">
        <ele>7.6</ele>
        <time>2020-06-17T15:23:22Z</time>
      </trkpt>
      <trkpt lat="49.41471" lon="0.24577">
        <ele>7.7</ele>
        <time>2020-06-17T15:23:23Z</time>
      </trkpt>
      <trkpt lat="49.4147" lon="0.24581">
        <ele>7.7</ele>
        <time>2020-06-17T15:23:24Z</time>
      </trkpt>
      <trkpt lat="49.41468" lon="0.24587">
        <ele>7.7</ele>
        <time>2020-06-17T15:23:25Z</time>
      </trkpt>
      <trkpt lat="49.41466" lon="0.24593">
        <ele>7.6</ele>
        <time>2020-06-17T15:23:26Z</time>
      </trkpt>
      <trkpt lat="49.41465" lon="0.24599">
        <ele>7.6</ele>
        <time>2020-06-17T15:23:27Z</time>
      </trkpt>
      <trkpt lat="49.41462" lon="0.24604">
        <ele>7.6</ele>
        <time>2020-06-17T15:23:28Z</time>
      </trkpt>
      <trkpt lat="49.4146" lon="0.2461">
        <ele>7.6</ele>
        <time>2020-06-17T15:23:29Z</time>
      </trkpt>
      <trkpt lat="49.41457" lon="0.24616">
        <ele>7.6</ele>
        <time>2020-06-17T15:23:30Z</time>
      </trkpt>
      <trkpt lat="49.41454" lon="0.24623">
        <ele>7.6</ele>
        <time>2020-06-17T15:23:31Z</time>
      </trkpt>
      <trkpt lat="49.41452" lon="0.24628">
        <ele>7.6</ele>
        <time>2020-06-17T15:23:32Z</time>
      </trkpt>
      <trkpt lat="49.41449" lon="0.24636">
        <ele>7.6</ele>
        <time>2020-06-17T15:23:33Z</time>
      </trkpt>
      <trkpt lat="49.41446" lon="0.24643">
        <ele>7.6</ele>
        <time>2020-06-17T15:23:34Z</time>
      </trkpt>
      <trkpt lat="49.41443" lon="0.24651">
        <ele>7.6</ele>
        <time>2020-06-17T15:23:35Z</time>
      </trkpt>
      <trkpt lat="49.41441" lon="0.2466">
        <ele>7.6</ele>
        <time>2020-06-17T15:23:36Z</time>
      </trkpt>
      <trkpt lat="49.41438" lon="0.24668">
        <ele>7.6</ele>
        <time>2020-06-17T15:23:37Z</time>
      </trkpt>
      <trkpt lat="49.41434" lon="0.24675">
        <ele>7.6</ele>
        <time>2020-06-17T15:23:38Z</time>
      </trkpt>
      <trkpt lat="49.4143" lon="0.24683">
        <ele>7.6</ele>
        <time>2020-06-17T15:23:39Z</time>
      </trkpt>
      <trkpt lat="49.41427" lon="0.24691">
        <ele>7.6</ele>
        <time>2020-06-17T15:23:40Z</time>
      </trkpt>
      <trkpt lat="49.41424" lon="0.24699">
        <ele>7.5</ele>
        <time>2020-06-17T15:23:41Z</time>
      </trkpt>
      <trkpt lat="49.41421" lon="0.24707">
        <ele>7.5</ele>
        <time>2020-06-17T15:23:42Z</time>
      </trkpt>
      <trkpt lat="49.41417" lon="0.24714">
        <ele>7.5</ele>
        <time>2020-06-17T15:23:43Z</time>
      </trkpt>
      <trkpt lat="49.41414" lon="0.24721">
        <ele>7.6</ele>
        <time>2020-06-17T15:23:44Z</time>
      </trkpt>
      <trkpt lat="49.4141" lon="0.24728">
        <ele>7.6</ele>
        <time>2020-06-17T15:23:45Z</time>
      </trkpt>
      <trkpt lat="49.41406" lon="0.24736">
        <ele>7.6</ele>
        <time>2020-06-17T15:23:46Z</time>
      </trkpt>
      <trkpt lat="49.41401" lon="0.24743">
        <ele>7.6</ele>
        <time>2020-06-17T15:23:47Z</time>
      </trkpt>
      <trkpt lat="49.41398" lon="0.24751">
        <ele>7.6</ele>
        <time>2020-06-17T15:23:48Z</time>
      </trkpt>
      <trkpt lat="49.41393" lon="0.24759">
        <ele>7.6</ele>
        <time>2020-06-17T15:23:49Z</time>
      </trkpt>
      <trkpt lat="49.41389" lon="0.24766">
        <ele>7.6</ele>
        <time>2020-06-17T15:23:50Z</time>
      </trkpt>
      <trkpt lat="49.41385" lon="0.24774">
        <ele>7.6</ele>
        <time>2020-06-17T15:23:51Z</time>
      </trkpt>
      <trkpt lat="49.41382" lon="0.24782">
        <ele>7.6</ele>
        <time>2020-06-17T15:23:52Z</time>
      </trkpt>
      <trkpt lat="49.41379" lon="0.24791">
        <ele>7.6</ele>
        <time>2020-06-17T15:23:53Z</time>
      </trkpt>
      <trkpt lat="49.41375" lon="0.248">
        <ele>7.6</ele>
        <time>2020-06-17T15:23:54Z</time>
      </trkpt>
      <trkpt lat="49.41371" lon="0.2481">
        <ele>7.6</ele>
        <time>2020-06-17T15:23:55Z</time>
      </trkpt>
      <trkpt lat="49.41368" lon="0.24817">
        <ele>7.6</ele>
        <time>2020-06-17T15:23:56Z</time>
      </trkpt>
      <trkpt lat="49.41363" lon="0.24825">
        <ele>7.6</ele>
        <time>2020-06-17T15:23:57Z</time>
      </trkpt>
      <trkpt lat="49.4136" lon="0.24833">
        <ele>7.5</ele>
        <time>2020-06-17T15:23:58Z</time>
      </trkpt>
      <trkpt lat="49.41356" lon="0.24841">
        <ele>7.5</ele>
        <time>2020-06-17T15:23:59Z</time>
      </trkpt>
      <trkpt lat="49.41352" lon="0.2485">
        <ele>7.5</ele>
        <time>2020-06-17T15:24:00Z</time>
      </trkpt>
      <trkpt lat="49.41348" lon="0.24857">
        <ele>7.4</ele>
        <time>2020-06-17T15:24:01Z</time>
      </trkpt>
      <trkpt lat="49.41344" lon="0.24864">
        <ele>7.4</ele>
        <time>2020-06-17T15:24:02Z</time>
      </trkpt>
      <trkpt lat="49.41339" lon="0.24872">
        <ele>7.4</ele>
        <time>2020-06-17T15:24:03Z</time>
      </trkpt>
      <trkpt lat="49.41335" lon="0.2488">
        <ele>7.4</ele>
        <time>2020-06-17T15:24:04Z</time>
      </trkpt>
      <trkpt lat="49.41331" lon="0.24888">
        <ele>7.4</ele>
        <time>2020-06-17T15:24:05Z</time>
      </trkpt>
      <trkpt lat="49.41327" lon="0.24896">
        <ele>7.4</ele>
        <time>2020-06-17T15:24:06Z</time>
      </trkpt>
      <trkpt lat="49.41322" lon="0.24904">
        <ele>7.4</ele>
        <time>2020-06-17T15:24:07Z</time>
      </trkpt>
      <trkpt lat="49.41318" lon="0.24912">
        <ele>7.4</ele>
        <time>2020-06-17T15:24:08Z</time>
      </trkpt>
      <trkpt lat="49.41314" lon="0.2492">
        <ele>7.4</ele>
        <time>2020-06-17T15:24:09Z</time>
      </trkpt>
      <trkpt lat="49.4131" lon="0.24928">
        <ele>7.4</ele>
        <time>2020-06-17T15:24:10Z</time>
      </trkpt>
      <trkpt lat="49.41305" lon="0.24936">
        <ele>7.4</ele>
        <time>2020-06-17T15:24:11Z</time>
      </trkpt>
      <trkpt lat="49.41301" lon="0.24943">
        <ele>7.4</ele>
        <time>2020-06-17T15:24:12Z</time>
      </trkpt>
      <trkpt lat="49.41297" lon="0.24951">
        <ele>7.4</ele>
        <time>2020-06-17T15:24:13Z</time>
      </trkpt>
      <trkpt lat="49.41293" lon="0.24959">
        <ele>7.5</ele>
        <time>2020-06-17T15:24:14Z</time>
      </trkpt>
      <trkpt lat="49.41288" lon="0.24967">
        <ele>7.5</ele>
        <time>2020-06-17T15:24:15Z</time>
      </trkpt>
      <trkpt lat="49.41283" lon="0.24975">
        <ele>7.6</ele>
        <time>2020-06-17T15:24:16Z</time>
      </trkpt>
      <trkpt lat="49.41279" lon="0.24982">
        <ele>7.6</ele>
        <time>2020-06-17T15:24:17Z</time>
      </trkpt>
      <trkpt lat="49.41275" lon="0.2499">
        <ele>7.7</ele>
        <time>2020-06-17T15:24:18Z</time>
      </trkpt>
      <trkpt lat="49.4127" lon="0.24997">
        <ele>7.7</ele>
        <time>2020-06-17T15:24:19Z</time>
      </trkpt>
      <trkpt lat="49.41266" lon="0.25007">
        <ele>7.8</ele>
        <time>2020-06-17T15:24:20Z</time>
      </trkpt>
      <trkpt lat="49.41262" lon="0.25014">
        <ele>7.8</ele>
        <time>2020-06-17T15:24:21Z</time>
      </trkpt>
      <trkpt lat="49.41256" lon="0.25021">
        <ele>7.8</ele>
        <time>2020-06-17T15:24:22Z</time>
      </trkpt>
      <trkpt lat="49.41252" lon="0.25029">
        <ele>7.9</ele>
        <time>2020-06-17T15:24:23Z</time>
      </trkpt>
      <trkpt lat="49.41248" lon="0.25036">
        <ele>7.9</ele>
        <time>2020-06-17T15:24:24Z</time>
      </trkpt>
      <trkpt lat="49.41244" lon="0.25043">
        <ele>8</ele>
        <time>2020-06-17T15:24:25Z</time>
      </trkpt>
      <trkpt lat="49.4124" lon="0.25049">
        <ele>8.1</ele>
        <time>2020-06-17T15:24:26Z</time>
      </trkpt>
      <trkpt lat="49.41236" lon="0.25056">
        <ele>8.1</ele>
        <time>2020-06-17T15:24:27Z</time>
      </trkpt>
      <trkpt lat="49.41232" lon="0.25064">
        <ele>8.2</ele>
        <time>2020-06-17T15:24:28Z</time>
      </trkpt>
      <trkpt lat="49.41228" lon="0.25071">
        <ele>8.2</ele>
        <time>2020-06-17T15:24:29Z</time>
      </trkpt>
      <trkpt lat="49.41224" lon="0.25079">
        <ele>8.3</ele>
        <time>2020-06-17T15:24:30Z</time>
      </trkpt>
      <trkpt lat="49.4122" lon="0.25088">
        <ele>8.4</ele>
        <time>2020-06-17T15:24:31Z</time>
      </trkpt>
      <trkpt lat="49.41216" lon="0.25096">
        <ele>8.4</ele>
        <time>2020-06-17T15:24:32Z</time>
      </trkpt>
      <trkpt lat="49.41212" lon="0.25104">
        <ele>8.4</ele>
        <time>2020-06-17T15:24:33Z</time>
      </trkpt>
      <trkpt lat="49.41209" lon="0.25111">
        <ele>8.4</ele>
        <time>2020-06-17T15:24:34Z</time>
      </trkpt>
      <trkpt lat="49.41205" lon="0.25118">
        <ele>8.4</ele>
        <time>2020-06-17T15:24:35Z</time>
      </trkpt>
      <trkpt lat="49.41201" lon="0.25127">
        <ele>8.5</ele>
        <time>2020-06-17T15:24:36Z</time>
      </trkpt>
      <trkpt lat="49.41198" lon="0.25133">
        <ele>8.6</ele>
        <time>2020-06-17T15:24:37Z</time>
      </trkpt>
      <trkpt lat="49.41194" lon="0.25142">
        <ele>8.7</ele>
        <time>2020-06-17T15:24:38Z</time>
      </trkpt>
      <trkpt lat="49.4119" lon="0.25149">
        <ele>8.8</ele>
        <time>2020-06-17T15:24:39Z</time>
      </trkpt>
      <trkpt lat="49.41187" lon="0.25157">
        <ele>9</ele>
        <time>2020-06-17T15:24:40Z</time>
      </trkpt>
      <trkpt lat="49.41184" lon="0.25166">
        <ele>9.1</ele>
        <time>2020-06-17T15:24:41Z</time>
      </trkpt>
      <trkpt lat="49.41182" lon="0.25174">
        <ele>9.2</ele>
        <time>2020-06-17T15:24:42Z</time>
      </trkpt>
      <trkpt lat="49.4118" lon="0.25181">
        <ele>9.3</ele>
        <time>2020-06-17T15:24:43Z</time>
      </trkpt>
      <trkpt lat="49.41177" lon="0.25187">
        <ele>9.4</ele>
        <time>2020-06-17T15:24:44Z</time>
      </trkpt>
      <trkpt lat="49.41174" lon="0.25194">
        <ele>9.5</ele>
        <time>2020-06-17T15:24:45Z</time>
      </trkpt>
      <trkpt lat="49.41172" lon="0.252">
        <ele>9.6</ele>
        <time>2020-06-17T15:24:46Z</time>
      </trkpt>
      <trkpt lat="49.41169" lon="0.25202">
        <ele>9.6</ele>
        <time>2020-06-17T15:24:47Z</time>
      </trkpt>
      <trkpt lat="49.41166" lon="0.25202">
        <ele>10.3</ele>
        <time>2020-06-17T15:24:48Z</time>
      </trkpt>
      <trkpt lat="49.41161" lon="0.25202">
        <ele>10.3</ele>
        <time>2020-06-17T15:24:49Z</time>
      </trkpt>
      <trkpt lat="49.41157" lon="0.25203">
        <ele>10.3</ele>
        <time>2020-06-17T15:24:50Z</time>
      </trkpt>
      <trkpt lat="49.41153" lon="0.25205">
        <ele>10.3</ele>
        <time>2020-06-17T15:24:51Z</time>
      </trkpt>
      <trkpt lat="49.41149" lon="0.25206">
        <ele>10.3</ele>
        <time>2020-06-17T15:24:52Z</time>
      </trkpt>
      <trkpt lat="49.41146" lon="0.2521">
        <ele>10.4</ele>
        <time>2020-06-17T15:24:53Z</time>
      </trkpt>
      <trkpt lat="49.41144" lon="0.25214">
        <ele>10.4</ele>
        <time>2020-06-17T15:24:54Z</time>
      </trkpt>
      <trkpt lat="49.41143" lon="0.2522">
        <ele>10.5</ele>
        <time>2020-06-17T15:24:55Z</time>
      </trkpt>
      <trkpt lat="49.41142" lon="0.25225">
        <ele>10.5</ele>
        <time>2020-06-17T15:24:56Z</time>
      </trkpt>
      <trkpt lat="49.41143" lon="0.25231">
        <ele>10.7</ele>
        <time>2020-06-17T15:24:57Z</time>
      </trkpt>
      <trkpt lat="49.41143" lon="0.25239">
        <ele>10.6</ele>
        <time>2020-06-17T15:24:58Z</time>
      </trkpt>
      <trkpt lat="49.41145" lon="0.25248">
        <ele>10.5</ele>
        <time>2020-06-17T15:24:59Z</time>
      </trkpt>
      <trkpt lat="49.41146" lon="0.25256">
        <ele>10.2</ele>
        <time>2020-06-17T15:25:00Z</time>
      </trkpt>
      <trkpt lat="49.41148" lon="0.25264">
        <ele>10.1</ele>
        <time>2020-06-17T15:25:01Z</time>
      </trkpt>
      <trkpt lat="49.41148" lon="0.25272">
        <ele>9.9</ele>
        <time>2020-06-17T15:25:02Z</time>
      </trkpt>
      <trkpt lat="49.41147" lon="0.25281">
        <ele>9.8</ele>
        <time>2020-06-17T15:25:03Z</time>
      </trkpt>
      <trkpt lat="49.41146" lon="0.2529">
        <ele>9.7</ele>
        <time>2020-06-17T15:25:04Z</time>
      </trkpt>
      <trkpt lat="49.41143" lon="0.25297">
        <ele>9.6</ele>
        <time>2020-06-17T15:25:05Z</time>
      </trkpt>
      <trkpt lat="49.4114" lon="0.25305">
        <ele>9.6</ele>
        <time>2020-06-17T15:25:06Z</time>
      </trkpt>
      <trkpt lat="49.41136" lon="0.25312">
        <ele>9.5</ele>
        <time>2020-06-17T15:25:07Z</time>
      </trkpt>
      <trkpt lat="49.41132" lon="0.2532">
        <ele>9.5</ele>
        <time>2020-06-17T15:25:08Z</time>
      </trkpt>
      <trkpt lat="49.41128" lon="0.25328">
        <ele>9.4</ele>
        <time>2020-06-17T15:25:09Z</time>
      </trkpt>
      <trkpt lat="49.41126" lon="0.25335">
        <ele>9.4</ele>
        <time>2020-06-17T15:25:10Z</time>
      </trkpt>
      <trkpt lat="49.41123" lon="0.25344">
        <ele>9.4</ele>
        <time>2020-06-17T15:25:11Z</time>
      </trkpt>
      <trkpt lat="49.4112" lon="0.25354">
        <ele>9.4</ele>
        <time>2020-06-17T15:25:12Z</time>
      </trkpt>
      <trkpt lat="49.41118" lon="0.25362">
        <ele>9.4</ele>
        <time>2020-06-17T15:25:13Z</time>
      </trkpt>
      <trkpt lat="49.41115" lon="0.2537">
        <ele>9.3</ele>
        <time>2020-06-17T15:25:14Z</time>
      </trkpt>
      <trkpt lat="49.41111" lon="0.2538">
        <ele>9.3</ele>
        <time>2020-06-17T15:25:15Z</time>
      </trkpt>
      <trkpt lat="49.41108" lon="0.25389">
        <ele>9.3</ele>
        <time>2020-06-17T15:25:16Z</time>
      </trkpt>
      <trkpt lat="49.41106" lon="0.254">
        <ele>9.3</ele>
        <time>2020-06-17T15:25:17Z</time>
      </trkpt>
      <trkpt lat="49.41103" lon="0.2541">
        <ele>9.3</ele>
        <time>2020-06-17T15:25:18Z</time>
      </trkpt>
      <trkpt lat="49.41101" lon="0.25419">
        <ele>9.2</ele>
        <time>2020-06-17T15:25:19Z</time>
      </trkpt>
      <trkpt lat="49.41098" lon="0.25429">
        <ele>9.2</ele>
        <time>2020-06-17T15:25:20Z</time>
      </trkpt>
      <trkpt lat="49.41095" lon="0.2544">
        <ele>9.1</ele>
        <time>2020-06-17T15:25:21Z</time>
      </trkpt>
      <trkpt lat="49.41091" lon="0.2545">
        <ele>9</ele>
        <time>2020-06-17T15:25:22Z</time>
      </trkpt>
      <trkpt lat="49.41089" lon="0.25461">
        <ele>8.9</ele>
        <time>2020-06-17T15:25:23Z</time>
      </trkpt>
      <trkpt lat="49.41087" lon="0.25471">
        <ele>8.8</ele>
        <time>2020-06-17T15:25:24Z</time>
      </trkpt>
      <trkpt lat="49.41085" lon="0.25481">
        <ele>8.7</ele>
        <time>2020-06-17T15:25:25Z</time>
      </trkpt>
      <trkpt lat="49.41083" lon="0.25492">
        <ele>8.6</ele>
        <time>2020-06-17T15:25:26Z</time>
      </trkpt>
      <trkpt lat="49.41082" lon="0.25504">
        <ele>8.5</ele>
        <time>2020-06-17T15:25:27Z</time>
      </trkpt>
      <trkpt lat="49.4108" lon="0.25516">
        <ele>8.4</ele>
        <time>2020-06-17T15:25:28Z</time>
      </trkpt>
      <trkpt lat="49.41078" lon="0.25527">
        <ele>8.2</ele>
        <time>2020-06-17T15:25:29Z</time>
      </trkpt>
      <trkpt lat="49.41077" lon="0.2554">
        <ele>8.1</ele>
        <time>2020-06-17T15:25:30Z</time>
      </trkpt>
      <trkpt lat="49.41076" lon="0.25553">
        <ele>7.9</ele>
        <time>2020-06-17T15:25:31Z</time>
      </trkpt>
      <trkpt lat="49.41075" lon="0.25566">
        <ele>7.7</ele>
        <time>2020-06-17T15:25:32Z</time>
      </trkpt>
      <trkpt lat="49.41075" lon="0.25578">
        <ele>7.5</ele>
        <time>2020-06-17T15:25:33Z</time>
      </trkpt>
      <trkpt lat="49.41075" lon="0.2559">
        <ele>7.3</ele>
        <time>2020-06-17T15:25:34Z</time>
      </trkpt>
      <trkpt lat="49.41075" lon="0.25603">
        <ele>7.1</ele>
        <time>2020-06-17T15:25:35Z</time>
      </trkpt>
      <trkpt lat="49.41075" lon="0.25615">
        <ele>6.9</ele>
        <time>2020-06-17T15:25:36Z</time>
      </trkpt>
      <trkpt lat="49.41076" lon="0.25628">
        <ele>6.7</ele>
        <time>2020-06-17T15:25:37Z</time>
      </trkpt>
      <trkpt lat="49.41077" lon="0.2564">
        <ele>6.5</ele>
        <time>2020-06-17T15:25:38Z</time>
      </trkpt>
      <trkpt lat="49.41079" lon="0.25652">
        <ele>6.2</ele>
        <time>2020-06-17T15:25:39Z</time>
      </trkpt>
      <trkpt lat="49.4108" lon="0.25663">
        <ele>6</ele>
        <time>2020-06-17T15:25:40Z</time>
      </trkpt>
      <trkpt lat="49.41081" lon="0.25673">
        <ele>5.9</ele>
        <time>2020-06-17T15:25:41Z</time>
      </trkpt>
      <trkpt lat="49.41083" lon="0.25682">
        <ele>5.8</ele>
        <time>2020-06-17T15:25:42Z</time>
      </trkpt>
      <trkpt lat="49.41084" lon="0.2569">
        <ele>5.7</ele>
        <time>2020-06-17T15:25:43Z</time>
      </trkpt>
      <trkpt lat="49.41086" lon="0.25696">
        <ele>5.6</ele>
        <time>2020-06-17T15:25:44Z</time>
      </trkpt>
      <trkpt lat="49.41087" lon="0.25702">
        <ele>5.6</ele>
        <time>2020-06-17T15:25:45Z</time>
      </trkpt>
      <trkpt lat="49.41089" lon="0.25707">
        <ele>5.5</ele>
        <time>2020-06-17T15:25:46Z</time>
      </trkpt>
      <trkpt lat="49.41089" lon="0.2571">
        <ele>5.4</ele>
        <time>2020-06-17T15:25:47Z</time>
      </trkpt>
      <trkpt lat="49.41089" lon="0.25712">
        <ele>5.4</ele>
        <time>2020-06-17T15:25:48Z</time>
      </trkpt>
      <trkpt lat="49.41089" lon="0.25712">
        <ele>5.4</ele>
        <time>2020-06-17T15:25:49Z</time>
      </trkpt>
      <trkpt lat="49.41089" lon="0.25713">
        <ele>5.3</ele>
        <time>2020-06-17T15:25:50Z</time>
      </trkpt>
      <trkpt lat="49.4109" lon="0.25713">
        <ele>5.3</ele>
        <time>2020-06-17T15:25:51Z</time>
      </trkpt>
      <trkpt lat="49.4109" lon="0.25713">
        <ele>5.3</ele>
        <time>2020-06-17T15:25:52Z</time>
      </trkpt>
      <trkpt lat="49.4109" lon="0.25712">
        <ele>5.3</ele>
        <time>2020-06-17T15:25:53Z</time>
      </trkpt>
      <trkpt lat="49.4109" lon="0.25712">
        <ele>5.3</ele>
        <time>2020-06-17T15:25:54Z</time>
      </trkpt>
      <trkpt lat="49.41091" lon="0.25712">
        <ele>5.3</ele>
        <time>2020-06-17T15:25:55Z</time>
      </trkpt>
      <trkpt lat="49.41091" lon="0.25712">
        <ele>5.3</ele>
        <time>2020-06-17T15:25:56Z</time>
      </trkpt>
      <trkpt lat="49.41091" lon="0.25712">
        <ele>5.3</ele>
        <time>2020-06-17T15:25:57Z</time>
      </trkpt>
      <trkpt lat="49.41091" lon="0.25712">
        <ele>5.3</ele>
        <time>2020-06-17T15:25:58Z</time>
      </trkpt>
      <trkpt lat="49.41092" lon="0.25712">
        <ele>5.3</ele>
        <time>2020-06-17T15:25:59Z</time>
      </trkpt>
      <trkpt lat="49.41099" lon="0.25717">
        <ele>5.1</ele>
        <time>2020-06-17T15:28:53Z</time>
      </trkpt>
      <trkpt lat="49.411" lon="0.2572">
        <ele>5</ele>
        <time>2020-06-17T15:28:54Z</time>
      </trkpt>
      <trkpt lat="49.411" lon="0.25724">
        <ele>5</ele>
        <time>2020-06-17T15:28:55Z</time>
      </trkpt>
      <trkpt lat="49.41099" lon="0.2573">
        <ele>4.9</ele>
        <time>2020-06-17T15:28:56Z</time>
      </trkpt>
      <trkpt lat="49.41101" lon="0.25735">
        <ele>4.8</ele>
        <time>2020-06-17T15:28:57Z</time>
      </trkpt>
      <trkpt lat="49.41103" lon="0.25742">
        <ele>4.7</ele>
        <time>2020-06-17T15:28:58Z</time>
      </trkpt>
      <trkpt lat="49.41105" lon="0.25749">
        <ele>4.6</ele>
        <time>2020-06-17T15:28:59Z</time>
      </trkpt>
      <trkpt lat="49.41108" lon="0.25756">
        <ele>4.5</ele>
        <time>2020-06-17T15:29:00Z</time>
      </trkpt>
      <trkpt lat="49.41109" lon="0.25763">
        <ele>4.4</ele>
        <time>2020-06-17T15:29:01Z</time>
      </trkpt>
      <trkpt lat="49.41111" lon="0.2577">
        <ele>4.3</ele>
        <time>2020-06-17T15:29:02Z</time>
      </trkpt>
      <trkpt lat="49.41112" lon="0.25777">
        <ele>4.2</ele>
        <time>2020-06-17T15:29:03Z</time>
      </trkpt>
      <trkpt lat="49.41114" lon="0.25785">
        <ele>4.2</ele>
        <time>2020-06-17T15:29:04Z</time>
      </trkpt>
      <trkpt lat="49.41115" lon="0.25791">
        <ele>4.1</ele>
        <time>2020-06-17T15:29:05Z</time>
      </trkpt>
      <trkpt lat="49.41117" lon="0.25799">
        <ele>4.1</ele>
        <time>2020-06-17T15:29:06Z</time>
      </trkpt>
      <trkpt lat="49.41118" lon="0.25807">
        <ele>4</ele>
        <time>2020-06-17T15:29:07Z</time>
      </trkpt>
      <trkpt lat="49.41119" lon="0.25815">
        <ele>4</ele>
        <time>2020-06-17T15:29:08Z</time>
      </trkpt>
      <trkpt lat="49.4112" lon="0.25822">
        <ele>4.1</ele>
        <time>2020-06-17T15:29:09Z</time>
      </trkpt>
      <trkpt lat="49.41122" lon="0.25829">
        <ele>4.1</ele>
        <time>2020-06-17T15:29:10Z</time>
      </trkpt>
      <trkpt lat="49.41123" lon="0.25836">
        <ele>4.1</ele>
        <time>2020-06-17T15:29:11Z</time>
      </trkpt>
      <trkpt lat="49.41124" lon="0.25843">
        <ele>4.1</ele>
        <time>2020-06-17T15:29:12Z</time>
      </trkpt>
      <trkpt lat="49.41125" lon="0.25848">
        <ele>4.2</ele>
        <time>2020-06-17T15:29:13Z</time>
      </trkpt>
      <trkpt lat="49.41125" lon="0.25854">
        <ele>4.2</ele>
        <time>2020-06-17T15:29:14Z</time>
      </trkpt>
      <trkpt lat="49.41126" lon="0.25862">
        <ele>4.2</ele>
        <time>2020-06-17T15:29:15Z</time>
      </trkpt>
      <trkpt lat="49.41125" lon="0.25872">
        <ele>4.2</ele>
        <time>2020-06-17T15:29:16Z</time>
      </trkpt>
      <trkpt lat="49.41123" lon="0.25881">
        <ele>4.2</ele>
        <time>2020-06-17T15:29:17Z</time>
      </trkpt>
      <trkpt lat="49.41121" lon="0.2589">
        <ele>4.2</ele>
        <time>2020-06-17T15:29:18Z</time>
      </trkpt>
      <trkpt lat="49.41119" lon="0.25896">
        <ele>4.2</ele>
        <time>2020-06-17T15:29:19Z</time>
      </trkpt>
      <trkpt lat="49.41117" lon="0.25905">
        <ele>4.2</ele>
        <time>2020-06-17T15:29:20Z</time>
      </trkpt>
      <trkpt lat="49.41117" lon="0.25913">
        <ele>4.2</ele>
        <time>2020-06-17T15:29:21Z</time>
      </trkpt>
      <trkpt lat="49.41119" lon="0.25921">
        <ele>4.2</ele>
        <time>2020-06-17T15:29:22Z</time>
      </trkpt>
      <trkpt lat="49.41121" lon="0.25929">
        <ele>4.2</ele>
        <time>2020-06-17T15:29:23Z</time>
      </trkpt>
      <trkpt lat="49.41124" lon="0.25934">
        <ele>4.1</ele>
        <time>2020-06-17T15:29:24Z</time>
      </trkpt>
      <trkpt lat="49.41127" lon="0.2594">
        <ele>4.1</ele>
        <time>2020-06-17T15:29:25Z</time>
      </trkpt>
      <trkpt lat="49.41131" lon="0.25945">
        <ele>4.1</ele>
        <time>2020-06-17T15:29:26Z</time>
      </trkpt>
      <trkpt lat="49.41136" lon="0.25949">
        <ele>4.1</ele>
        <time>2020-06-17T15:29:27Z</time>
      </trkpt>
      <trkpt lat="49.4114" lon="0.25952">
        <ele>4.1</ele>
        <time>2020-06-17T15:29:28Z</time>
      </trkpt>
      <trkpt lat="49.41144" lon="0.25957">
        <ele>4.1</ele>
        <time>2020-06-17T15:29:29Z</time>
      </trkpt>
      <trkpt lat="49.41147" lon="0.25964">
        <ele>4.1</ele>
        <time>2020-06-17T15:29:30Z</time>
      </trkpt>
      <trkpt lat="49.41149" lon="0.25969">
        <ele>4.1</ele>
        <time>2020-06-17T15:29:31Z</time>
      </trkpt>
      <trkpt lat="49.4115" lon="0.25974">
        <ele>4.1</ele>
        <time>2020-06-17T15:29:32Z</time>
      </trkpt>
      <trkpt lat="49.41151" lon="0.2598">
        <ele>4.1</ele>
        <time>2020-06-17T15:29:33Z</time>
      </trkpt>
      <trkpt lat="49.41152" lon="0.25984">
        <ele>4.1</ele>
        <time>2020-06-17T15:29:34Z</time>
      </trkpt>
      <trkpt lat="49.41153" lon="0.25989">
        <ele>4.1</ele>
        <time>2020-06-17T15:29:35Z</time>
      </trkpt>
      <trkpt lat="49.41153" lon="0.2599">
        <ele>4.1</ele>
        <time>2020-06-17T15:29:36Z</time>
      </trkpt>
      <trkpt lat="49.41153" lon="0.25992">
        <ele>4.1</ele>
        <time>2020-06-17T15:29:37Z</time>
      </trkpt>
      <trkpt lat="49.41154" lon="0.25992">
        <ele>4.1</ele>
        <time>2020-06-17T15:29:38Z</time>
      </trkpt>
      <trkpt lat="49.41154" lon="0.25992">
        <ele>4.1</ele>
        <time>2020-06-17T15:29:39Z</time>
      </trkpt>
      <trkpt lat="49.41155" lon="0.25992">
        <ele>4.1</ele>
        <time>2020-06-17T15:29:40Z</time>
      </trkpt>
      <trkpt lat="49.41155" lon="0.25992">
        <ele>4.1</ele>
        <time>2020-06-17T15:29:41Z</time>
      </trkpt>
      <trkpt lat="49.41156" lon="0.25992">
        <ele>4.1</ele>
        <time>2020-06-17T15:29:42Z</time>
      </trkpt>
      <trkpt lat="49.41156" lon="0.25992">
        <ele>4.1</ele>
        <time>2020-06-17T15:29:43Z</time>
      </trkpt>
      <trkpt lat="49.41156" lon="0.25992">
        <ele>4.1</ele>
        <time>2020-06-17T15:29:44Z</time>
      </trkpt>
      <trkpt lat="49.41157" lon="0.25992">
        <ele>4.1</ele>
        <time>2020-06-17T15:29:45Z</time>
      </trkpt>
      <trkpt lat="49.41158" lon="0.25991">
        <ele>4.1</ele>
        <time>2020-06-17T15:29:46Z</time>
      </trkpt>
      <trkpt lat="49.41158" lon="0.2599">
        <ele>4.1</ele>
        <time>2020-06-17T15:29:47Z</time>
      </trkpt>
      <trkpt lat="49.41159" lon="0.25987">
        <ele>4.1</ele>
        <time>2020-06-17T15:29:48Z</time>
      </trkpt>
      <trkpt lat="49.41159" lon="0.25983">
        <ele>4.2</ele>
        <time>2020-06-17T15:29:49Z</time>
      </trkpt>
      <trkpt lat="49.41159" lon="0.2598">
        <ele>4.2</ele>
        <time>2020-06-17T15:29:50Z</time>
      </trkpt>
      <trkpt lat="49.41159" lon="0.25979">
        <ele>4.2</ele>
        <time>2020-06-17T15:29:51Z</time>
      </trkpt>
      <trkpt lat="49.41159" lon="0.25979">
        <ele>4.2</ele>
        <time>2020-06-17T15:29:52Z</time>
      </trkpt>
      <trkpt lat="49.41159" lon="0.25978">
        <ele>4.2</ele>
        <time>2020-06-17T15:29:53Z</time>
      </trkpt>
      <trkpt lat="49.41159" lon="0.25979">
        <ele>4.2</ele>
        <time>2020-06-17T15:29:54Z</time>
      </trkpt>
      <trkpt lat="49.41159" lon="0.25976">
        <ele>4.2</ele>
        <time>2020-06-17T15:29:55Z</time>
      </trkpt>
      <trkpt lat="49.4116" lon="0.25973">
        <ele>4.2</ele>
        <time>2020-06-17T15:29:56Z</time>
      </trkpt>
      <trkpt lat="49.41159" lon="0.25968">
        <ele>4.2</ele>
        <time>2020-06-17T15:29:57Z</time>
      </trkpt>
      <trkpt lat="49.41159" lon="0.25966">
        <ele>4.2</ele>
        <time>2020-06-17T15:29:58Z</time>
      </trkpt>
      <trkpt lat="49.41159" lon="0.25962">
        <ele>4.2</ele>
        <time>2020-06-17T15:29:59Z</time>
      </trkpt>
      <trkpt lat="49.4116" lon="0.25961">
        <ele>4.2</ele>
        <time>2020-06-17T15:30:00Z</time>
      </trkpt>
      <trkpt lat="49.4116" lon="0.25957">
        <ele>4.2</ele>
        <time>2020-06-17T15:30:01Z</time>
      </trkpt>
      <trkpt lat="49.41161" lon="0.25955">
        <ele>4.3</ele>
        <time>2020-06-17T15:30:02Z</time>
      </trkpt>
      <trkpt lat="49.41162" lon="0.2595">
        <ele>4.3</ele>
        <time>2020-06-17T15:30:03Z</time>
      </trkpt>
      <trkpt lat="49.41163" lon="0.25948">
        <ele>4.3</ele>
        <time>2020-06-17T15:30:04Z</time>
      </trkpt>
      <trkpt lat="49.41164" lon="0.25943">
        <ele>4.3</ele>
        <time>2020-06-17T15:30:05Z</time>
      </trkpt>
      <trkpt lat="49.41166" lon="0.25939">
        <ele>4.4</ele>
        <time>2020-06-17T15:30:06Z</time>
      </trkpt>
      <trkpt lat="49.41167" lon="0.25934">
        <ele>4.4</ele>
        <time>2020-06-17T15:30:07Z</time>
      </trkpt>
      <trkpt lat="49.41168" lon="0.2593">
        <ele>4.5</ele>
        <time>2020-06-17T15:30:08Z</time>
      </trkpt>
      <trkpt lat="49.4117" lon="0.25926">
        <ele>4.5</ele>
        <time>2020-06-17T15:30:09Z</time>
      </trkpt>
      <trkpt lat="49.41172" lon="0.25921">
        <ele>4.5</ele>
        <time>2020-06-17T15:30:10Z</time>
      </trkpt>
      <trkpt lat="49.41175" lon="0.25916">
        <ele>4.6</ele>
        <time>2020-06-17T15:30:11Z</time>
      </trkpt>
      <trkpt lat="49.41177" lon="0.25914">
        <ele>4.6</ele>
        <time>2020-06-17T15:30:12Z</time>
      </trkpt>
      <trkpt lat="49.41183" lon="0.25913">
        <ele>4.7</ele>
        <time>2020-06-17T15:30:13Z</time>
      </trkpt>
      <trkpt lat="49.41189" lon="0.25912">
        <ele>4.7</ele>
        <time>2020-06-17T15:30:14Z</time>
      </trkpt>
      <trkpt lat="49.41196" lon="0.25911">
        <ele>4.7</ele>
        <time>2020-06-17T15:30:15Z</time>
      </trkpt>
      <trkpt lat="49.41201" lon="0.25909">
        <ele>4.8</ele>
        <time>2020-06-17T15:30:16Z</time>
      </trkpt>
      <trkpt lat="49.41209" lon="0.25909">
        <ele>4.9</ele>
        <time>2020-06-17T15:30:17Z</time>
      </trkpt>
      <trkpt lat="49.41214" lon="0.25908">
        <ele>4.9</ele>
        <time>2020-06-17T15:30:18Z</time>
      </trkpt>
      <trkpt lat="49.41219" lon="0.25907">
        <ele>5</ele>
        <time>2020-06-17T15:30:19Z</time>
      </trkpt>
      <trkpt lat="49.41225" lon="0.25905">
        <ele>5.1</ele>
        <time>2020-06-17T15:30:20Z</time>
      </trkpt>
      <trkpt lat="49.41234" lon="0.25904">
        <ele>5.2</ele>
        <time>2020-06-17T15:30:21Z</time>
      </trkpt>
      <trkpt lat="49.41238" lon="0.25902">
        <ele>5.2</ele>
        <time>2020-06-17T15:30:22Z</time>
      </trkpt>
      <trkpt lat="49.4124" lon="0.25901">
        <ele>5.2</ele>
        <time>2020-06-17T15:30:23Z</time>
      </trkpt>
      <trkpt lat="49.41244" lon="0.259">
        <ele>5.3</ele>
        <time>2020-06-17T15:30:24Z</time>
      </trkpt>
      <trkpt lat="49.41248" lon="0.259">
        <ele>5.3</ele>
        <time>2020-06-17T15:30:25Z</time>
      </trkpt>
      <trkpt lat="49.41254" lon="0.25899">
        <ele>5.4</ele>
        <time>2020-06-17T15:30:26Z</time>
      </trkpt>
      <trkpt lat="49.4126" lon="0.259">
        <ele>5.4</ele>
        <time>2020-06-17T15:30:27Z</time>
      </trkpt>
      <trkpt lat="49.41265" lon="0.25899">
        <ele>5.4</ele>
        <time>2020-06-17T15:30:28Z</time>
      </trkpt>
      <trkpt lat="49.41271" lon="0.25899">
        <ele>5.5</ele>
        <time>2020-06-17T15:30:29Z</time>
      </trkpt>
      <trkpt lat="49.41277" lon="0.259">
        <ele>5.5</ele>
        <time>2020-06-17T15:30:30Z</time>
      </trkpt>
      <trkpt lat="49.41282" lon="0.25901">
        <ele>5.5</ele>
        <time>2020-06-17T15:30:31Z</time>
      </trkpt>
      <trkpt lat="49.41288" lon="0.25902">
        <ele>5.5</ele>
        <time>2020-06-17T15:30:32Z</time>
      </trkpt>
      <trkpt lat="49.41294" lon="0.25903">
        <ele>5.5</ele>
        <time>2020-06-17T15:30:33Z</time>
      </trkpt>
      <trkpt lat="49.41299" lon="0.25904">
        <ele>5.5</ele>
        <time>2020-06-17T15:30:34Z</time>
      </trkpt>
      <trkpt lat="49.41305" lon="0.25904">
        <ele>5.5</ele>
        <time>2020-06-17T15:30:35Z</time>
      </trkpt>
      <trkpt lat="49.41314" lon="0.25907">
        <ele>5.5</ele>
        <time>2020-06-17T15:30:36Z</time>
      </trkpt>
      <trkpt lat="49.4132" lon="0.25908">
        <ele>5.5</ele>
        <time>2020-06-17T15:30:37Z</time>
      </trkpt>
      <trkpt lat="49.41326" lon="0.25908">
        <ele>5.5</ele>
        <time>2020-06-17T15:30:38Z</time>
      </trkpt>
      <trkpt lat="49.41331" lon="0.25908">
        <ele>5.6</ele>
        <time>2020-06-17T15:30:39Z</time>
      </trkpt>
      <trkpt lat="49.41336" lon="0.25908">
        <ele>5.6</ele>
        <time>2020-06-17T15:30:40Z</time>
      </trkpt>
      <trkpt lat="49.41341" lon="0.25909">
        <ele>5.6</ele>
        <time>2020-06-17T15:30:41Z</time>
      </trkpt>
      <trkpt lat="49.41346" lon="0.2591">
        <ele>5.6</ele>
        <time>2020-06-17T15:30:42Z</time>
      </trkpt>
      <trkpt lat="49.41351" lon="0.25911">
        <ele>5.6</ele>
        <time>2020-06-17T15:30:43Z</time>
      </trkpt>
      <trkpt lat="49.41356" lon="0.25912">
        <ele>5.6</ele>
        <time>2020-06-17T15:30:44Z</time>
      </trkpt>
      <trkpt lat="49.4136" lon="0.25911">
        <ele>5.7</ele>
        <time>2020-06-17T15:30:45Z</time>
      </trkpt>
      <trkpt lat="49.41365" lon="0.25912">
        <ele>5.7</ele>
        <time>2020-06-17T15:30:46Z</time>
      </trkpt>
      <trkpt lat="49.41371" lon="0.25912">
        <ele>5.7</ele>
        <time>2020-06-17T15:30:47Z</time>
      </trkpt>
      <trkpt lat="49.41376" lon="0.25913">
        <ele>5.7</ele>
        <time>2020-06-17T15:30:48Z</time>
      </trkpt>
      <trkpt lat="49.41383" lon="0.25914">
        <ele>5.7</ele>
        <time>2020-06-17T15:30:49Z</time>
      </trkpt>
      <trkpt lat="49.41388" lon="0.25915">
        <ele>5.7</ele>
        <time>2020-06-17T15:30:50Z</time>
      </trkpt>
      <trkpt lat="49.41394" lon="0.25914">
        <ele>5.7</ele>
        <time>2020-06-17T15:30:51Z</time>
      </trkpt>
      <trkpt lat="49.41399" lon="0.25914">
        <ele>5.7</ele>
        <time>2020-06-17T15:30:52Z</time>
      </trkpt>
      <trkpt lat="49.41405" lon="0.25914">
        <ele>5.7</ele>
        <time>2020-06-17T15:30:53Z</time>
      </trkpt>
      <trkpt lat="49.4141" lon="0.25914">
        <ele>5.7</ele>
        <time>2020-06-17T15:30:54Z</time>
      </trkpt>
      <trkpt lat="49.41415" lon="0.25914">
        <ele>5.7</ele>
        <time>2020-06-17T15:30:55Z</time>
      </trkpt>
      <trkpt lat="49.4142" lon="0.25914">
        <ele>5.7</ele>
        <time>2020-06-17T15:30:56Z</time>
      </trkpt>
      <trkpt lat="49.41425" lon="0.25914">
        <ele>5.7</ele>
        <time>2020-06-17T15:30:57Z</time>
      </trkpt>
      <trkpt lat="49.41431" lon="0.25915">
        <ele>5.7</ele>
        <time>2020-06-17T15:30:58Z</time>
      </trkpt>
      <trkpt lat="49.41436" lon="0.25916">
        <ele>5.7</ele>
        <time>2020-06-17T15:30:59Z</time>
      </trkpt>
      <trkpt lat="49.41442" lon="0.25916">
        <ele>5.7</ele>
        <time>2020-06-17T15:31:00Z</time>
      </trkpt>
      <trkpt lat="49.41447" lon="0.25917">
        <ele>5.8</ele>
        <time>2020-06-17T15:31:01Z</time>
      </trkpt>
      <trkpt lat="49.41453" lon="0.25917">
        <ele>5.8</ele>
        <time>2020-06-17T15:31:02Z</time>
      </trkpt>
      <trkpt lat="49.41457" lon="0.25916">
        <ele>5.8</ele>
        <time>2020-06-17T15:31:03Z</time>
      </trkpt>
      <trkpt lat="49.41463" lon="0.25917">
        <ele>5.8</ele>
        <time>2020-06-17T15:31:04Z</time>
      </trkpt>
      <trkpt lat="49.41468" lon="0.25918">
        <ele>5.8</ele>
        <time>2020-06-17T15:31:05Z</time>
      </trkpt>
      <trkpt lat="49.41473" lon="0.25921">
        <ele>5.8</ele>
        <time>2020-06-17T15:31:06Z</time>
      </trkpt>
      <trkpt lat="49.41478" lon="0.25922">
        <ele>5.8</ele>
        <time>2020-06-17T15:31:07Z</time>
      </trkpt>
      <trkpt lat="49.41484" lon="0.25923">
        <ele>5.8</ele>
        <time>2020-06-17T15:31:08Z</time>
      </trkpt>
      <trkpt lat="49.4149" lon="0.25923">
        <ele>5.8</ele>
        <time>2020-06-17T15:31:09Z</time>
      </trkpt>
      <trkpt lat="49.41496" lon="0.25924">
        <ele>5.8</ele>
        <time>2020-06-17T15:31:10Z</time>
      </trkpt>
      <trkpt lat="49.41502" lon="0.25925">
        <ele>5.8</ele>
        <time>2020-06-17T15:31:11Z</time>
      </trkpt>
      <trkpt lat="49.41508" lon="0.25926">
        <ele>5.8</ele>
        <time>2020-06-17T15:31:12Z</time>
      </trkpt>
      <trkpt lat="49.41514" lon="0.25927">
        <ele>5.8</ele>
        <time>2020-06-17T15:31:13Z</time>
      </trkpt>
      <trkpt lat="49.41519" lon="0.25929">
        <ele>5.8</ele>
        <time>2020-06-17T15:31:14Z</time>
      </trkpt>
      <trkpt lat="49.41525" lon="0.25929">
        <ele>5.8</ele>
        <time>2020-06-17T15:31:15Z</time>
      </trkpt>
      <trkpt lat="49.41529" lon="0.2593">
        <ele>5.8</ele>
        <time>2020-06-17T15:31:16Z</time>
      </trkpt>
      <trkpt lat="49.41534" lon="0.25932">
        <ele>5.8</ele>
        <time>2020-06-17T15:31:17Z</time>
      </trkpt>
      <trkpt lat="49.41539" lon="0.25933">
        <ele>5.9</ele>
        <time>2020-06-17T15:31:18Z</time>
      </trkpt>
      <trkpt lat="49.41544" lon="0.25934">
        <ele>5.9</ele>
        <time>2020-06-17T15:31:19Z</time>
      </trkpt>
      <trkpt lat="49.4155" lon="0.25935">
        <ele>5.9</ele>
        <time>2020-06-17T15:31:20Z</time>
      </trkpt>
      <trkpt lat="49.41556" lon="0.25936">
        <ele>5.9</ele>
        <time>2020-06-17T15:31:21Z</time>
      </trkpt>
      <trkpt lat="49.41562" lon="0.25937">
        <ele>5.9</ele>
        <time>2020-06-17T15:31:22Z</time>
      </trkpt>
      <trkpt lat="49.41568" lon="0.25939">
        <ele>5.9</ele>
        <time>2020-06-17T15:31:23Z</time>
      </trkpt>
      <trkpt lat="49.41574" lon="0.25941">
        <ele>5.9</ele>
        <time>2020-06-17T15:31:24Z</time>
      </trkpt>
      <trkpt lat="49.4158" lon="0.25943">
        <ele>5.9</ele>
        <time>2020-06-17T15:31:25Z</time>
      </trkpt>
      <trkpt lat="49.41587" lon="0.25945">
        <ele>5.9</ele>
        <time>2020-06-17T15:31:26Z</time>
      </trkpt>
      <trkpt lat="49.41592" lon="0.25946">
        <ele>5.9</ele>
        <time>2020-06-17T15:31:27Z</time>
      </trkpt>
      <trkpt lat="49.41598" lon="0.25947">
        <ele>5.9</ele>
        <time>2020-06-17T15:31:28Z</time>
      </trkpt>
      <trkpt lat="49.41603" lon="0.25948">
        <ele>5.9</ele>
        <time>2020-06-17T15:31:29Z</time>
      </trkpt>
      <trkpt lat="49.4161" lon="0.25948">
        <ele>5.9</ele>
        <time>2020-06-17T15:31:30Z</time>
      </trkpt>
      <trkpt lat="49.41616" lon="0.25949">
        <ele>6</ele>
        <time>2020-06-17T15:31:31Z</time>
      </trkpt>
      <trkpt lat="49.41621" lon="0.2595">
        <ele>6</ele>
        <time>2020-06-17T15:31:32Z</time>
      </trkpt>
      <trkpt lat="49.41627" lon="0.25951">
        <ele>6</ele>
        <time>2020-06-17T15:31:33Z</time>
      </trkpt>
      <trkpt lat="49.41633" lon="0.25952">
        <ele>6.1</ele>
        <time>2020-06-17T15:31:34Z</time>
      </trkpt>
      <trkpt lat="49.41639" lon="0.25953">
        <ele>6.1</ele>
        <time>2020-06-17T15:31:35Z</time>
      </trkpt>
      <trkpt lat="49.41644" lon="0.25954">
        <ele>6.2</ele>
        <time>2020-06-17T15:31:36Z</time>
      </trkpt>
      <trkpt lat="49.4165" lon="0.25955">
        <ele>6.3</ele>
        <time>2020-06-17T15:31:37Z</time>
      </trkpt>
      <trkpt lat="49.41654" lon="0.25956">
        <ele>6.4</ele>
        <time>2020-06-17T15:31:38Z</time>
      </trkpt>
      <trkpt lat="49.41659" lon="0.25956">
        <ele>6.4</ele>
        <time>2020-06-17T15:31:39Z</time>
      </trkpt>
      <trkpt lat="49.41665" lon="0.25957">
        <ele>6.5</ele>
        <time>2020-06-17T15:31:40Z</time>
      </trkpt>
      <trkpt lat="49.4167" lon="0.25958">
        <ele>6.4</ele>
        <time>2020-06-17T15:31:41Z</time>
      </trkpt>
      <trkpt lat="49.41676" lon="0.25959">
        <ele>6.3</ele>
        <time>2020-06-17T15:31:42Z</time>
      </trkpt>
      <trkpt lat="49.41682" lon="0.2596">
        <ele>6.3</ele>
        <time>2020-06-17T15:31:43Z</time>
      </trkpt>
      <trkpt lat="49.41689" lon="0.25961">
        <ele>6.3</ele>
        <time>2020-06-17T15:31:44Z</time>
      </trkpt>
      <trkpt lat="49.41695" lon="0.25961">
        <ele>6.3</ele>
        <time>2020-06-17T15:31:45Z</time>
      </trkpt>
      <trkpt lat="49.41701" lon="0.25961">
        <ele>6.3</ele>
        <time>2020-06-17T15:31:46Z</time>
      </trkpt>
      <trkpt lat="49.41709" lon="0.25962">
        <ele>6.3</ele>
        <time>2020-06-17T15:31:47Z</time>
      </trkpt>
      <trkpt lat="49.41714" lon="0.25964">
        <ele>6.3</ele>
        <time>2020-06-17T15:31:48Z</time>
      </trkpt>
      <trkpt lat="49.41721" lon="0.25964">
        <ele>6.2</ele>
        <time>2020-06-17T15:31:49Z</time>
      </trkpt>
      <trkpt lat="49.41728" lon="0.25966">
        <ele>6.2</ele>
        <time>2020-06-17T15:31:50Z</time>
      </trkpt>
      <trkpt lat="49.41736" lon="0.25966">
        <ele>6.2</ele>
        <time>2020-06-17T15:31:51Z</time>
      </trkpt>
      <trkpt lat="49.41742" lon="0.25967">
        <ele>6.2</ele>
        <time>2020-06-17T15:31:52Z</time>
      </trkpt>
      <trkpt lat="49.41749" lon="0.25969">
        <ele>6.2</ele>
        <time>2020-06-17T15:31:53Z</time>
      </trkpt>
      <trkpt lat="49.41755" lon="0.25969">
        <ele>6.1</ele>
        <time>2020-06-17T15:31:54Z</time>
      </trkpt>
      <trkpt lat="49.41761" lon="0.2597">
        <ele>6.1</ele>
        <time>2020-06-17T15:31:55Z</time>
      </trkpt>
      <trkpt lat="49.41767" lon="0.25971">
        <ele>6.1</ele>
        <time>2020-06-17T15:31:56Z</time>
      </trkpt>
      <trkpt lat="49.41774" lon="0.25971">
        <ele>6.1</ele>
        <time>2020-06-17T15:31:57Z</time>
      </trkpt>
      <trkpt lat="49.41781" lon="0.25973">
        <ele>6</ele>
        <time>2020-06-17T15:31:58Z</time>
      </trkpt>
      <trkpt lat="49.41788" lon="0.25974">
        <ele>6</ele>
        <time>2020-06-17T15:31:59Z</time>
      </trkpt>
      <trkpt lat="49.41794" lon="0.25975">
        <ele>6</ele>
        <time>2020-06-17T15:32:00Z</time>
      </trkpt>
      <trkpt lat="49.41801" lon="0.25975">
        <ele>6</ele>
        <time>2020-06-17T15:32:01Z</time>
      </trkpt>
      <trkpt lat="49.41808" lon="0.25976">
        <ele>6</ele>
        <time>2020-06-17T15:32:02Z</time>
      </trkpt>
      <trkpt lat="49.41815" lon="0.25977">
        <ele>6</ele>
        <time>2020-06-17T15:32:03Z</time>
      </trkpt>
      <trkpt lat="49.41821" lon="0.25978">
        <ele>6.1</ele>
        <time>2020-06-17T15:32:04Z</time>
      </trkpt>
      <trkpt lat="49.41828" lon="0.25978">
        <ele>6.2</ele>
        <time>2020-06-17T15:32:05Z</time>
      </trkpt>
      <trkpt lat="49.41835" lon="0.25979">
        <ele>6.1</ele>
        <time>2020-06-17T15:32:06Z</time>
      </trkpt>
      <trkpt lat="49.41841" lon="0.25979">
        <ele>6</ele>
        <time>2020-06-17T15:32:07Z</time>
      </trkpt>
      <trkpt lat="49.41848" lon="0.2598">
        <ele>6</ele>
        <time>2020-06-17T15:32:08Z</time>
      </trkpt>
      <trkpt lat="49.41854" lon="0.2598">
        <ele>6</ele>
        <time>2020-06-17T15:32:09Z</time>
      </trkpt>
      <trkpt lat="49.4186" lon="0.25981">
        <ele>5.9</ele>
        <time>2020-06-17T15:32:10Z</time>
      </trkpt>
      <trkpt lat="49.41866" lon="0.25983">
        <ele>5.9</ele>
        <time>2020-06-17T15:32:11Z</time>
      </trkpt>
      <trkpt lat="49.41873" lon="0.25984">
        <ele>5.9</ele>
        <time>2020-06-17T15:32:12Z</time>
      </trkpt>
      <trkpt lat="49.41879" lon="0.25984">
        <ele>5.9</ele>
        <time>2020-06-17T15:32:13Z</time>
      </trkpt>
      <trkpt lat="49.41885" lon="0.25984">
        <ele>5.9</ele>
        <time>2020-06-17T15:32:14Z</time>
      </trkpt>
      <trkpt lat="49.41891" lon="0.25986">
        <ele>5.9</ele>
        <time>2020-06-17T15:32:15Z</time>
      </trkpt>
      <trkpt lat="49.41897" lon="0.25987">
        <ele>5.9</ele>
        <time>2020-06-17T15:32:16Z</time>
      </trkpt>
      <trkpt lat="49.41903" lon="0.25988">
        <ele>5.9</ele>
        <time>2020-06-17T15:32:17Z</time>
      </trkpt>
      <trkpt lat="49.41909" lon="0.25988">
        <ele>5.9</ele>
        <time>2020-06-17T15:32:18Z</time>
      </trkpt>
      <trkpt lat="49.41915" lon="0.25988">
        <ele>5.9</ele>
        <time>2020-06-17T15:32:19Z</time>
      </trkpt>
      <trkpt lat="49.41922" lon="0.2599">
        <ele>5.9</ele>
        <time>2020-06-17T15:32:20Z</time>
      </trkpt>
      <trkpt lat="49.41929" lon="0.25991">
        <ele>5.9</ele>
        <time>2020-06-17T15:32:21Z</time>
      </trkpt>
      <trkpt lat="49.41933" lon="0.25992">
        <ele>5.9</ele>
        <time>2020-06-17T15:32:22Z</time>
      </trkpt>
      <trkpt lat="49.4194" lon="0.25994">
        <ele>5.9</ele>
        <time>2020-06-17T15:32:23Z</time>
      </trkpt>
      <trkpt lat="49.41945" lon="0.25994">
        <ele>5.9</ele>
        <time>2020-06-17T15:32:24Z</time>
      </trkpt>
      <trkpt lat="49.41951" lon="0.25995">
        <ele>5.9</ele>
        <time>2020-06-17T15:32:25Z</time>
      </trkpt>
      <trkpt lat="49.41957" lon="0.25995">
        <ele>5.9</ele>
        <time>2020-06-17T15:32:26Z</time>
      </trkpt>
      <trkpt lat="49.41963" lon="0.25996">
        <ele>5.9</ele>
        <time>2020-06-17T15:32:27Z</time>
      </trkpt>
      <trkpt lat="49.41969" lon="0.25997">
        <ele>6</ele>
        <time>2020-06-17T15:32:28Z</time>
      </trkpt>
      <trkpt lat="49.41975" lon="0.25999">
        <ele>6</ele>
        <time>2020-06-17T15:32:29Z</time>
      </trkpt>
      <trkpt lat="49.41981" lon="0.26">
        <ele>6</ele>
        <time>2020-06-17T15:32:30Z</time>
      </trkpt>
      <trkpt lat="49.41986" lon="0.26001">
        <ele>6</ele>
        <time>2020-06-17T15:32:31Z</time>
      </trkpt>
      <trkpt lat="49.41992" lon="0.26002">
        <ele>6.1</ele>
        <time>2020-06-17T15:32:32Z</time>
      </trkpt>
      <trkpt lat="49.41999" lon="0.26003">
        <ele>6.1</ele>
        <time>2020-06-17T15:32:33Z</time>
      </trkpt>
      <trkpt lat="49.42005" lon="0.26005">
        <ele>6.1</ele>
        <time>2020-06-17T15:32:34Z</time>
      </trkpt>
      <trkpt lat="49.42013" lon="0.26006">
        <ele>6.1</ele>
        <time>2020-06-17T15:32:35Z</time>
      </trkpt>
      <trkpt lat="49.42018" lon="0.26007">
        <ele>6.1</ele>
        <time>2020-06-17T15:32:36Z</time>
      </trkpt>
      <trkpt lat="49.42025" lon="0.26007">
        <ele>6.1</ele>
        <time>2020-06-17T15:32:37Z</time>
      </trkpt>
      <trkpt lat="49.42032" lon="0.26009">
        <ele>6.2</ele>
        <time>2020-06-17T15:32:38Z</time>
      </trkpt>
      <trkpt lat="49.42038" lon="0.2601">
        <ele>6.2</ele>
        <time>2020-06-17T15:32:39Z</time>
      </trkpt>
      <trkpt lat="49.42044" lon="0.26011">
        <ele>6.2</ele>
        <time>2020-06-17T15:32:40Z</time>
      </trkpt>
      <trkpt lat="49.42052" lon="0.26011">
        <ele>6.3</ele>
        <time>2020-06-17T15:32:41Z</time>
      </trkpt>
      <trkpt lat="49.42057" lon="0.2601">
        <ele>6.3</ele>
        <time>2020-06-17T15:32:42Z</time>
      </trkpt>
      <trkpt lat="49.42063" lon="0.26009">
        <ele>6.3</ele>
        <time>2020-06-17T15:32:43Z</time>
      </trkpt>
      <trkpt lat="49.42069" lon="0.26008">
        <ele>6.3</ele>
        <time>2020-06-17T15:32:44Z</time>
      </trkpt>
      <trkpt lat="49.42076" lon="0.26007">
        <ele>6.4</ele>
        <time>2020-06-17T15:32:45Z</time>
      </trkpt>
      <trkpt lat="49.42081" lon="0.26006">
        <ele>6.4</ele>
        <time>2020-06-17T15:32:46Z</time>
      </trkpt>
      <trkpt lat="49.42085" lon="0.26005">
        <ele>6.4</ele>
        <time>2020-06-17T15:32:47Z</time>
      </trkpt>
      <trkpt lat="49.4209" lon="0.26004">
        <ele>6.5</ele>
        <time>2020-06-17T15:32:48Z</time>
      </trkpt>
      <trkpt lat="49.42094" lon="0.26004">
        <ele>6.5</ele>
        <time>2020-06-17T15:32:49Z</time>
      </trkpt>
      <trkpt lat="49.42099" lon="0.26004">
        <ele>6.5</ele>
        <time>2020-06-17T15:32:50Z</time>
      </trkpt>
      <trkpt lat="49.42104" lon="0.26004">
        <ele>6.6</ele>
        <time>2020-06-17T15:32:51Z</time>
      </trkpt>
      <trkpt lat="49.42109" lon="0.26004">
        <ele>6.6</ele>
        <time>2020-06-17T15:32:52Z</time>
      </trkpt>
      <trkpt lat="49.42114" lon="0.26003">
        <ele>6.6</ele>
        <time>2020-06-17T15:32:53Z</time>
      </trkpt>
      <trkpt lat="49.4212" lon="0.26002">
        <ele>6.5</ele>
        <time>2020-06-17T15:32:54Z</time>
      </trkpt>
      <trkpt lat="49.42125" lon="0.26002">
        <ele>6.5</ele>
        <time>2020-06-17T15:32:55Z</time>
      </trkpt>
      <trkpt lat="49.4213" lon="0.26001">
        <ele>6.5</ele>
        <time>2020-06-17T15:32:56Z</time>
      </trkpt>
      <trkpt lat="49.42136" lon="0.26001">
        <ele>6.4</ele>
        <time>2020-06-17T15:32:57Z</time>
      </trkpt>
      <trkpt lat="49.42141" lon="0.26001">
        <ele>6.4</ele>
        <time>2020-06-17T15:32:58Z</time>
      </trkpt>
      <trkpt lat="49.42148" lon="0.26001">
        <ele>6.4</ele>
        <time>2020-06-17T15:32:59Z</time>
      </trkpt>
      <trkpt lat="49.42154" lon="0.26001">
        <ele>6.4</ele>
        <time>2020-06-17T15:33:00Z</time>
      </trkpt>
      <trkpt lat="49.4216" lon="0.26001">
        <ele>6.3</ele>
        <time>2020-06-17T15:33:01Z</time>
      </trkpt>
      <trkpt lat="49.42165" lon="0.26001">
        <ele>6.3</ele>
        <time>2020-06-17T15:33:02Z</time>
      </trkpt>
      <trkpt lat="49.42173" lon="0.26001">
        <ele>6.3</ele>
        <time>2020-06-17T15:33:03Z</time>
      </trkpt>
      <trkpt lat="49.42179" lon="0.26001">
        <ele>6.2</ele>
        <time>2020-06-17T15:33:04Z</time>
      </trkpt>
      <trkpt lat="49.42185" lon="0.25999">
        <ele>6.2</ele>
        <time>2020-06-17T15:33:05Z</time>
      </trkpt>
      <trkpt lat="49.42192" lon="0.25999">
        <ele>6.2</ele>
        <time>2020-06-17T15:33:06Z</time>
      </trkpt>
      <trkpt lat="49.42199" lon="0.25998">
        <ele>6.1</ele>
        <time>2020-06-17T15:33:07Z</time>
      </trkpt>
      <trkpt lat="49.42205" lon="0.25998">
        <ele>6</ele>
        <time>2020-06-17T15:33:08Z</time>
      </trkpt>
      <trkpt lat="49.4221" lon="0.25998">
        <ele>5.9</ele>
        <time>2020-06-17T15:33:09Z</time>
      </trkpt>
      <trkpt lat="49.42216" lon="0.25998">
        <ele>5.9</ele>
        <time>2020-06-17T15:33:10Z</time>
      </trkpt>
      <trkpt lat="49.42223" lon="0.25997">
        <ele>5.8</ele>
        <time>2020-06-17T15:33:11Z</time>
      </trkpt>
      <trkpt lat="49.42229" lon="0.25997">
        <ele>5.7</ele>
        <time>2020-06-17T15:33:12Z</time>
      </trkpt>
      <trkpt lat="49.42235" lon="0.25997">
        <ele>5.6</ele>
        <time>2020-06-17T15:33:13Z</time>
      </trkpt>
      <trkpt lat="49.4224" lon="0.25996">
        <ele>5.6</ele>
        <time>2020-06-17T15:33:14Z</time>
      </trkpt>
      <trkpt lat="49.42246" lon="0.25996">
        <ele>5.6</ele>
        <time>2020-06-17T15:33:15Z</time>
      </trkpt>
      <trkpt lat="49.42251" lon="0.25996">
        <ele>5.5</ele>
        <time>2020-06-17T15:33:16Z</time>
      </trkpt>
      <trkpt lat="49.42255" lon="0.25994">
        <ele>5.6</ele>
        <time>2020-06-17T15:33:17Z</time>
      </trkpt>
      <trkpt lat="49.42261" lon="0.25995">
        <ele>5.6</ele>
        <time>2020-06-17T15:33:18Z</time>
      </trkpt>
      <trkpt lat="49.42267" lon="0.25996">
        <ele>5.6</ele>
        <time>2020-06-17T15:33:19Z</time>
      </trkpt>
      <trkpt lat="49.42273" lon="0.25996">
        <ele>5.5</ele>
        <time>2020-06-17T15:33:20Z</time>
      </trkpt>
      <trkpt lat="49.42278" lon="0.25995">
        <ele>5.5</ele>
        <time>2020-06-17T15:33:21Z</time>
      </trkpt>
      <trkpt lat="49.42282" lon="0.25996">
        <ele>5.5</ele>
        <time>2020-06-17T15:33:22Z</time>
      </trkpt>
      <trkpt lat="49.42288" lon="0.25996">
        <ele>5.4</ele>
        <time>2020-06-17T15:33:23Z</time>
      </trkpt>
      <trkpt lat="49.42293" lon="0.25996">
        <ele>5.4</ele>
        <time>2020-06-17T15:33:24Z</time>
      </trkpt>
      <trkpt lat="49.42297" lon="0.25996">
        <ele>5.4</ele>
        <time>2020-06-17T15:33:25Z</time>
      </trkpt>
      <trkpt lat="49.42302" lon="0.25995">
        <ele>5.3</ele>
        <time>2020-06-17T15:33:26Z</time>
      </trkpt>
      <trkpt lat="49.42306" lon="0.25994">
        <ele>5.3</ele>
        <time>2020-06-17T15:33:27Z</time>
      </trkpt>
      <trkpt lat="49.4231" lon="0.25994">
        <ele>5.3</ele>
        <time>2020-06-17T15:33:28Z</time>
      </trkpt>
      <trkpt lat="49.42315" lon="0.25994">
        <ele>5.2</ele>
        <time>2020-06-17T15:33:29Z</time>
      </trkpt>
      <trkpt lat="49.4232" lon="0.25994">
        <ele>5.2</ele>
        <time>2020-06-17T15:33:30Z</time>
      </trkpt>
      <trkpt lat="49.42325" lon="0.25993">
        <ele>5.1</ele>
        <time>2020-06-17T15:33:31Z</time>
      </trkpt>
      <trkpt lat="49.4233" lon="0.25994">
        <ele>5.1</ele>
        <time>2020-06-17T15:33:32Z</time>
      </trkpt>
      <trkpt lat="49.42336" lon="0.25994">
        <ele>5.1</ele>
        <time>2020-06-17T15:33:33Z</time>
      </trkpt>
      <trkpt lat="49.42342" lon="0.25994">
        <ele>5</ele>
        <time>2020-06-17T15:33:34Z</time>
      </trkpt>
      <trkpt lat="49.42348" lon="0.25992">
        <ele>5</ele>
        <time>2020-06-17T15:33:35Z</time>
      </trkpt>
      <trkpt lat="49.42352" lon="0.25992">
        <ele>5</ele>
        <time>2020-06-17T15:33:36Z</time>
      </trkpt>
      <trkpt lat="49.42357" lon="0.25991">
        <ele>5.1</ele>
        <time>2020-06-17T15:33:37Z</time>
      </trkpt>
      <trkpt lat="49.42363" lon="0.25991">
        <ele>5.1</ele>
        <time>2020-06-17T15:33:38Z</time>
      </trkpt>
      <trkpt lat="49.4237" lon="0.2599">
        <ele>5.1</ele>
        <time>2020-06-17T15:33:39Z</time>
      </trkpt>
      <trkpt lat="49.42375" lon="0.2599">
        <ele>5.1</ele>
        <time>2020-06-17T15:33:40Z</time>
      </trkpt>
      <trkpt lat="49.4238" lon="0.2599">
        <ele>5.1</ele>
        <time>2020-06-17T15:33:41Z</time>
      </trkpt>
      <trkpt lat="49.42386" lon="0.25989">
        <ele>5.1</ele>
        <time>2020-06-17T15:33:42Z</time>
      </trkpt>
      <trkpt lat="49.42391" lon="0.25989">
        <ele>5.1</ele>
        <time>2020-06-17T15:33:43Z</time>
      </trkpt>
      <trkpt lat="49.42395" lon="0.25989">
        <ele>5.1</ele>
        <time>2020-06-17T15:33:44Z</time>
      </trkpt>
      <trkpt lat="49.42401" lon="0.2599">
        <ele>5.1</ele>
        <time>2020-06-17T15:33:45Z</time>
      </trkpt>
      <trkpt lat="49.42407" lon="0.25989">
        <ele>5.2</ele>
        <time>2020-06-17T15:33:46Z</time>
      </trkpt>
      <trkpt lat="49.42412" lon="0.25989">
        <ele>5.2</ele>
        <time>2020-06-17T15:33:47Z</time>
      </trkpt>
      <trkpt lat="49.42418" lon="0.25989">
        <ele>5.3</ele>
        <time>2020-06-17T15:33:48Z</time>
      </trkpt>
      <trkpt lat="49.42424" lon="0.25988">
        <ele>5.3</ele>
        <time>2020-06-17T15:33:49Z</time>
      </trkpt>
      <trkpt lat="49.4243" lon="0.25989">
        <ele>5.4</ele>
        <time>2020-06-17T15:33:50Z</time>
      </trkpt>
      <trkpt lat="49.42435" lon="0.2599">
        <ele>5.4</ele>
        <time>2020-06-17T15:33:51Z</time>
      </trkpt>
      <trkpt lat="49.42441" lon="0.2599">
        <ele>5.5</ele>
        <time>2020-06-17T15:33:52Z</time>
      </trkpt>
      <trkpt lat="49.42447" lon="0.2599">
        <ele>5.5</ele>
        <time>2020-06-17T15:33:53Z</time>
      </trkpt>
      <trkpt lat="49.42453" lon="0.2599">
        <ele>5.6</ele>
        <time>2020-06-17T15:33:54Z</time>
      </trkpt>
      <trkpt lat="49.42458" lon="0.2599">
        <ele>5.7</ele>
        <time>2020-06-17T15:33:55Z</time>
      </trkpt>
      <trkpt lat="49.42461" lon="0.2599">
        <ele>5.7</ele>
        <time>2020-06-17T15:33:56Z</time>
      </trkpt>
      <trkpt lat="49.42463" lon="0.2599">
        <ele>5.7</ele>
        <time>2020-06-17T15:33:57Z</time>
      </trkpt>
      <trkpt lat="49.42467" lon="0.25991">
        <ele>5.7</ele>
        <time>2020-06-17T15:33:58Z</time>
      </trkpt>
      <trkpt lat="49.42472" lon="0.25991">
        <ele>5.7</ele>
        <time>2020-06-17T15:33:59Z</time>
      </trkpt>
      <trkpt lat="49.42478" lon="0.2599">
        <ele>5.7</ele>
        <time>2020-06-17T15:34:00Z</time>
      </trkpt>
      <trkpt lat="49.42484" lon="0.2599">
        <ele>5.7</ele>
        <time>2020-06-17T15:34:01Z</time>
      </trkpt>
      <trkpt lat="49.42489" lon="0.25989">
        <ele>5.8</ele>
        <time>2020-06-17T15:34:02Z</time>
      </trkpt>
      <trkpt lat="49.42494" lon="0.25988">
        <ele>5.8</ele>
        <time>2020-06-17T15:34:03Z</time>
      </trkpt>
      <trkpt lat="49.42499" lon="0.25988">
        <ele>5.8</ele>
        <time>2020-06-17T15:34:04Z</time>
      </trkpt>
      <trkpt lat="49.42503" lon="0.25989">
        <ele>5.8</ele>
        <time>2020-06-17T15:34:05Z</time>
      </trkpt>
      <trkpt lat="49.42507" lon="0.25989">
        <ele>5.8</ele>
        <time>2020-06-17T15:34:06Z</time>
      </trkpt>
      <trkpt lat="49.42512" lon="0.25989">
        <ele>5.8</ele>
        <time>2020-06-17T15:34:07Z</time>
      </trkpt>
      <trkpt lat="49.42516" lon="0.25988">
        <ele>5.8</ele>
        <time>2020-06-17T15:34:08Z</time>
      </trkpt>
      <trkpt lat="49.4252" lon="0.25988">
        <ele>5.8</ele>
        <time>2020-06-17T15:34:09Z</time>
      </trkpt>
      <trkpt lat="49.42524" lon="0.25988">
        <ele>5.8</ele>
        <time>2020-06-17T15:34:10Z</time>
      </trkpt>
      <trkpt lat="49.42528" lon="0.25989">
        <ele>5.8</ele>
        <time>2020-06-17T15:34:11Z</time>
      </trkpt>
      <trkpt lat="49.42532" lon="0.25989">
        <ele>5.8</ele>
        <time>2020-06-17T15:34:12Z</time>
      </trkpt>
      <trkpt lat="49.42535" lon="0.25988">
        <ele>5.8</ele>
        <time>2020-06-17T15:34:13Z</time>
      </trkpt>
      <trkpt lat="49.4254" lon="0.25989">
        <ele>5.8</ele>
        <time>2020-06-17T15:34:14Z</time>
      </trkpt>
      <trkpt lat="49.42543" lon="0.2599">
        <ele>5.8</ele>
        <time>2020-06-17T15:34:15Z</time>
      </trkpt>
      <trkpt lat="49.42545" lon="0.2599">
        <ele>5.8</ele>
        <time>2020-06-17T15:34:16Z</time>
      </trkpt>
      <trkpt lat="49.42546" lon="0.25991">
        <ele>5.8</ele>
        <time>2020-06-17T15:34:17Z</time>
      </trkpt>
      <trkpt lat="49.42547" lon="0.25992">
        <ele>5.8</ele>
        <time>2020-06-17T15:34:18Z</time>
      </trkpt>
      <trkpt lat="49.42549" lon="0.25991">
        <ele>5.8</ele>
        <time>2020-06-17T15:34:19Z</time>
      </trkpt>
      <trkpt lat="49.42551" lon="0.2599">
        <ele>5.8</ele>
        <time>2020-06-17T15:34:20Z</time>
      </trkpt>
      <trkpt lat="49.42551" lon="0.2599">
        <ele>5.8</ele>
        <time>2020-06-17T15:34:21Z</time>
      </trkpt>
      <trkpt lat="49.42551" lon="0.2599">
        <ele>5.8</ele>
        <time>2020-06-17T15:34:22Z</time>
      </trkpt>
      <trkpt lat="49.42552" lon="0.25989">
        <ele>5.8</ele>
        <time>2020-06-17T15:34:23Z</time>
      </trkpt>
      <trkpt lat="49.42551" lon="0.25987">
        <ele>5.8</ele>
        <time>2020-06-17T15:34:24Z</time>
      </trkpt>
      <trkpt lat="49.4255" lon="0.25986">
        <ele>5.8</ele>
        <time>2020-06-17T15:34:25Z</time>
      </trkpt>
      <trkpt lat="49.4255" lon="0.25985">
        <ele>5.8</ele>
        <time>2020-06-17T15:34:26Z</time>
      </trkpt>
      <trkpt lat="49.42549" lon="0.25984">
        <ele>5.8</ele>
        <time>2020-06-17T15:34:27Z</time>
      </trkpt>
      <trkpt lat="49.42547" lon="0.25982">
        <ele>5.8</ele>
        <time>2020-06-17T15:34:28Z</time>
      </trkpt>
      <trkpt lat="49.42546" lon="0.25982">
        <ele>5.8</ele>
        <time>2020-06-17T15:34:29Z</time>
      </trkpt>
      <trkpt lat="49.42545" lon="0.25982">
        <ele>5.8</ele>
        <time>2020-06-17T15:34:30Z</time>
      </trkpt>
      <trkpt lat="49.42542" lon="0.25982">
        <ele>5.8</ele>
        <time>2020-06-17T15:34:31Z</time>
      </trkpt>
      <trkpt lat="49.42541" lon="0.25982">
        <ele>5.8</ele>
        <time>2020-06-17T15:34:32Z</time>
      </trkpt>
      <trkpt lat="49.42538" lon="0.25982">
        <ele>5.8</ele>
        <time>2020-06-17T15:34:33Z</time>
      </trkpt>
      <trkpt lat="49.42537" lon="0.25983">
        <ele>5.8</ele>
        <time>2020-06-17T15:34:34Z</time>
      </trkpt>
      <trkpt lat="49.42536" lon="0.25982">
        <ele>5.8</ele>
        <time>2020-06-17T15:34:35Z</time>
      </trkpt>
      <trkpt lat="49.42535" lon="0.25981">
        <ele>5.8</ele>
        <time>2020-06-17T15:34:36Z</time>
      </trkpt>
      <trkpt lat="49.42533" lon="0.25982">
        <ele>5.8</ele>
        <time>2020-06-17T15:34:37Z</time>
      </trkpt>
      <trkpt lat="49.42531" lon="0.25982">
        <ele>5.8</ele>
        <time>2020-06-17T15:34:38Z</time>
      </trkpt>
      <trkpt lat="49.42529" lon="0.25982">
        <ele>5.8</ele>
        <time>2020-06-17T15:34:39Z</time>
      </trkpt>
      <trkpt lat="49.42528" lon="0.25982">
        <ele>5.8</ele>
        <time>2020-06-17T15:34:40Z</time>
      </trkpt>
      <trkpt lat="49.42528" lon="0.25981">
        <ele>5.8</ele>
        <time>2020-06-17T15:34:41Z</time>
      </trkpt>
      <trkpt lat="49.42527" lon="0.25981">
        <ele>5.8</ele>
        <time>2020-06-17T15:34:42Z</time>
      </trkpt>
      <trkpt lat="49.42526" lon="0.25981">
        <ele>5.8</ele>
        <time>2020-06-17T15:34:43Z</time>
      </trkpt>
      <trkpt lat="49.42525" lon="0.25981">
        <ele>5.8</ele>
        <time>2020-06-17T15:34:44Z</time>
      </trkpt>
      <trkpt lat="49.42523" lon="0.25982">
        <ele>5.8</ele>
        <time>2020-06-17T15:34:45Z</time>
      </trkpt>
      <trkpt lat="49.42521" lon="0.25982">
        <ele>5.8</ele>
        <time>2020-06-17T15:34:46Z</time>
      </trkpt>
      <trkpt lat="49.42518" lon="0.25983">
        <ele>5.8</ele>
        <time>2020-06-17T15:34:47Z</time>
      </trkpt>
      <trkpt lat="49.42514" lon="0.25983">
        <ele>5.8</ele>
        <time>2020-06-17T15:34:48Z</time>
      </trkpt>
      <trkpt lat="49.42507" lon="0.2598">
        <ele>5.8</ele>
        <time>2020-06-17T15:34:49Z</time>
      </trkpt>
      <trkpt lat="49.42503" lon="0.2598">
        <ele>5.8</ele>
        <time>2020-06-17T15:34:50Z</time>
      </trkpt>
      <trkpt lat="49.42499" lon="0.25981">
        <ele>5.8</ele>
        <time>2020-06-17T15:34:51Z</time>
      </trkpt>
      <trkpt lat="49.42495" lon="0.25982">
        <ele>5.8</ele>
        <time>2020-06-17T15:34:52Z</time>
      </trkpt>
      <trkpt lat="49.42491" lon="0.25982">
        <ele>5.8</ele>
        <time>2020-06-17T15:34:53Z</time>
      </trkpt>
      <trkpt lat="49.42487" lon="0.25983">
        <ele>5.8</ele>
        <time>2020-06-17T15:34:54Z</time>
      </trkpt>
      <trkpt lat="49.42482" lon="0.25983">
        <ele>5.7</ele>
        <time>2020-06-17T15:34:55Z</time>
      </trkpt>
      <trkpt lat="49.42477" lon="0.25982">
        <ele>5.7</ele>
        <time>2020-06-17T15:34:56Z</time>
      </trkpt>
      <trkpt lat="49.42473" lon="0.25982">
        <ele>5.7</ele>
        <time>2020-06-17T15:34:57Z</time>
      </trkpt>
      <trkpt lat="49.42468" lon="0.25982">
        <ele>5.7</ele>
        <time>2020-06-17T15:34:58Z</time>
      </trkpt>
      <trkpt lat="49.42463" lon="0.25983">
        <ele>5.7</ele>
        <time>2020-06-17T15:34:59Z</time>
      </trkpt>
      <trkpt lat="49.42458" lon="0.25984">
        <ele>5.7</ele>
        <time>2020-06-17T15:35:00Z</time>
      </trkpt>
      <trkpt lat="49.42453" lon="0.25984">
        <ele>5.6</ele>
        <time>2020-06-17T15:35:01Z</time>
      </trkpt>
      <trkpt lat="49.42448" lon="0.25985">
        <ele>5.5</ele>
        <time>2020-06-17T15:35:02Z</time>
      </trkpt>
      <trkpt lat="49.42443" lon="0.25985">
        <ele>5.5</ele>
        <time>2020-06-17T15:35:03Z</time>
      </trkpt>
      <trkpt lat="49.42438" lon="0.25984">
        <ele>5.4</ele>
        <time>2020-06-17T15:35:04Z</time>
      </trkpt>
      <trkpt lat="49.42433" lon="0.25987">
        <ele>5.4</ele>
        <time>2020-06-17T15:35:05Z</time>
      </trkpt>
      <trkpt lat="49.42428" lon="0.25987">
        <ele>5.3</ele>
        <time>2020-06-17T15:35:06Z</time>
      </trkpt>
      <trkpt lat="49.42424" lon="0.25987">
        <ele>5.3</ele>
        <time>2020-06-17T15:35:07Z</time>
      </trkpt>
      <trkpt lat="49.42419" lon="0.25986">
        <ele>5.3</ele>
        <time>2020-06-17T15:35:08Z</time>
      </trkpt>
      <trkpt lat="49.42414" lon="0.25987">
        <ele>5.2</ele>
        <time>2020-06-17T15:35:09Z</time>
      </trkpt>
      <trkpt lat="49.42409" lon="0.25988">
        <ele>5.2</ele>
        <time>2020-06-17T15:35:10Z</time>
      </trkpt>
      <trkpt lat="49.42404" lon="0.25989">
        <ele>5.2</ele>
        <time>2020-06-17T15:35:11Z</time>
      </trkpt>
      <trkpt lat="49.42399" lon="0.25988">
        <ele>5.1</ele>
        <time>2020-06-17T15:35:12Z</time>
      </trkpt>
      <trkpt lat="49.42395" lon="0.25988">
        <ele>5.1</ele>
        <time>2020-06-17T15:35:13Z</time>
      </trkpt>
      <trkpt lat="49.4239" lon="0.25987">
        <ele>5.1</ele>
        <time>2020-06-17T15:35:14Z</time>
      </trkpt>
      <trkpt lat="49.42386" lon="0.25987">
        <ele>5.1</ele>
        <time>2020-06-17T15:35:15Z</time>
      </trkpt>
      <trkpt lat="49.42382" lon="0.25987">
        <ele>5.1</ele>
        <time>2020-06-17T15:35:16Z</time>
      </trkpt>
      <trkpt lat="49.42377" lon="0.25987">
        <ele>5.1</ele>
        <time>2020-06-17T15:35:17Z</time>
      </trkpt>
      <trkpt lat="49.42373" lon="0.25987">
        <ele>5.1</ele>
        <time>2020-06-17T15:35:18Z</time>
      </trkpt>
      <trkpt lat="49.42369" lon="0.25987">
        <ele>5.1</ele>
        <time>2020-06-17T15:35:19Z</time>
      </trkpt>
      <trkpt lat="49.42364" lon="0.25987">
        <ele>5.1</ele>
        <time>2020-06-17T15:35:20Z</time>
      </trkpt>
      <trkpt lat="49.42361" lon="0.25987">
        <ele>5.1</ele>
        <time>2020-06-17T15:35:21Z</time>
      </trkpt>
      <trkpt lat="49.42357" lon="0.25988">
        <ele>5.1</ele>
        <time>2020-06-17T15:35:22Z</time>
      </trkpt>
      <trkpt lat="49.42352" lon="0.25988">
        <ele>5</ele>
        <time>2020-06-17T15:35:23Z</time>
      </trkpt>
      <trkpt lat="49.42348" lon="0.2599">
        <ele>5</ele>
        <time>2020-06-17T15:35:24Z</time>
      </trkpt>
      <trkpt lat="49.42345" lon="0.2599">
        <ele>5</ele>
        <time>2020-06-17T15:35:25Z</time>
      </trkpt>
      <trkpt lat="49.42341" lon="0.2599">
        <ele>5</ele>
        <time>2020-06-17T15:35:26Z</time>
      </trkpt>
      <trkpt lat="49.42338" lon="0.2599">
        <ele>5</ele>
        <time>2020-06-17T15:35:27Z</time>
      </trkpt>
      <trkpt lat="49.42335" lon="0.25991">
        <ele>5.1</ele>
        <time>2020-06-17T15:35:28Z</time>
      </trkpt>
      <trkpt lat="49.42331" lon="0.25991">
        <ele>5.1</ele>
        <time>2020-06-17T15:35:29Z</time>
      </trkpt>
      <trkpt lat="49.4233" lon="0.25991">
        <ele>5.1</ele>
        <time>2020-06-17T15:35:30Z</time>
      </trkpt>
      <trkpt lat="49.42327" lon="0.25992">
        <ele>5.1</ele>
        <time>2020-06-17T15:35:31Z</time>
      </trkpt>
      <trkpt lat="49.42324" lon="0.25993">
        <ele>5.1</ele>
        <time>2020-06-17T15:35:32Z</time>
      </trkpt>
      <trkpt lat="49.4232" lon="0.25994">
        <ele>5.2</ele>
        <time>2020-06-17T15:35:33Z</time>
      </trkpt>
      <trkpt lat="49.42317" lon="0.25996">
        <ele>5.2</ele>
        <time>2020-06-17T15:35:34Z</time>
      </trkpt>
      <trkpt lat="49.42314" lon="0.25995">
        <ele>5.2</ele>
        <time>2020-06-17T15:35:35Z</time>
      </trkpt>
      <trkpt lat="49.4231" lon="0.25995">
        <ele>5.3</ele>
        <time>2020-06-17T15:35:36Z</time>
      </trkpt>
      <trkpt lat="49.42306" lon="0.25995">
        <ele>5.3</ele>
        <time>2020-06-17T15:35:37Z</time>
      </trkpt>
      <trkpt lat="49.42303" lon="0.25995">
        <ele>5.3</ele>
        <time>2020-06-17T15:35:38Z</time>
      </trkpt>
      <trkpt lat="49.42299" lon="0.25995">
        <ele>5.3</ele>
        <time>2020-06-17T15:35:39Z</time>
      </trkpt>
      <trkpt lat="49.42294" lon="0.25993">
        <ele>5.4</ele>
        <time>2020-06-17T15:35:40Z</time>
      </trkpt>
      <trkpt lat="49.42289" lon="0.25993">
        <ele>5.4</ele>
        <time>2020-06-17T15:35:41Z</time>
      </trkpt>
      <trkpt lat="49.42284" lon="0.25993">
        <ele>5.5</ele>
        <time>2020-06-17T15:35:42Z</time>
      </trkpt>
      <trkpt lat="49.42279" lon="0.25992">
        <ele>5.5</ele>
        <time>2020-06-17T15:35:43Z</time>
      </trkpt>
      <trkpt lat="49.42274" lon="0.2599">
        <ele>5.5</ele>
        <time>2020-06-17T15:35:44Z</time>
      </trkpt>
      <trkpt lat="49.4227" lon="0.2599">
        <ele>5.6</ele>
        <time>2020-06-17T15:35:45Z</time>
      </trkpt>
      <trkpt lat="49.42267" lon="0.25991">
        <ele>5.6</ele>
        <time>2020-06-17T15:35:46Z</time>
      </trkpt>
      <trkpt lat="49.42264" lon="0.25991">
        <ele>5.6</ele>
        <time>2020-06-17T15:35:47Z</time>
      </trkpt>
      <trkpt lat="49.4226" lon="0.25993">
        <ele>5.6</ele>
        <time>2020-06-17T15:35:48Z</time>
      </trkpt>
      <trkpt lat="49.42257" lon="0.25995">
        <ele>5.6</ele>
        <time>2020-06-17T15:35:49Z</time>
      </trkpt>
      <trkpt lat="49.42254" lon="0.25995">
        <ele>5.6</ele>
        <time>2020-06-17T15:35:50Z</time>
      </trkpt>
      <trkpt lat="49.42251" lon="0.25995">
        <ele>5.5</ele>
        <time>2020-06-17T15:35:51Z</time>
      </trkpt>
      <trkpt lat="49.42247" lon="0.25996">
        <ele>5.5</ele>
        <time>2020-06-17T15:35:52Z</time>
      </trkpt>
      <trkpt lat="49.42244" lon="0.25996">
        <ele>5.6</ele>
        <time>2020-06-17T15:35:53Z</time>
      </trkpt>
      <trkpt lat="49.42241" lon="0.25996">
        <ele>5.6</ele>
        <time>2020-06-17T15:35:54Z</time>
      </trkpt>
      <trkpt lat="49.42238" lon="0.25996">
        <ele>5.6</ele>
        <time>2020-06-17T15:35:55Z</time>
      </trkpt>
      <trkpt lat="49.42234" lon="0.25996">
        <ele>5.7</ele>
        <time>2020-06-17T15:35:56Z</time>
      </trkpt>
      <trkpt lat="49.4223" lon="0.25996">
        <ele>5.7</ele>
        <time>2020-06-17T15:35:57Z</time>
      </trkpt>
      <trkpt lat="49.42225" lon="0.25996">
        <ele>5.8</ele>
        <time>2020-06-17T15:35:58Z</time>
      </trkpt>
      <trkpt lat="49.4222" lon="0.25995">
        <ele>5.8</ele>
        <time>2020-06-17T15:35:59Z</time>
      </trkpt>
      <trkpt lat="49.42216" lon="0.25996">
        <ele>5.9</ele>
        <time>2020-06-17T15:36:00Z</time>
      </trkpt>
      <trkpt lat="49.42212" lon="0.25996">
        <ele>5.9</ele>
        <time>2020-06-17T15:36:01Z</time>
      </trkpt>
      <trkpt lat="49.42208" lon="0.25996">
        <ele>6</ele>
        <time>2020-06-17T15:36:02Z</time>
      </trkpt>
      <trkpt lat="49.42204" lon="0.25995">
        <ele>6</ele>
        <time>2020-06-17T15:36:03Z</time>
      </trkpt>
      <trkpt lat="49.422" lon="0.25997">
        <ele>6.1</ele>
        <time>2020-06-17T15:36:04Z</time>
      </trkpt>
      <trkpt lat="49.42196" lon="0.25997">
        <ele>6.1</ele>
        <time>2020-06-17T15:36:05Z</time>
      </trkpt>
      <trkpt lat="49.42192" lon="0.25997">
        <ele>6.2</ele>
        <time>2020-06-17T15:36:06Z</time>
      </trkpt>
      <trkpt lat="49.42188" lon="0.25997">
        <ele>6.2</ele>
        <time>2020-06-17T15:36:07Z</time>
      </trkpt>
      <trkpt lat="49.42184" lon="0.25996">
        <ele>6.2</ele>
        <time>2020-06-17T15:36:08Z</time>
      </trkpt>
      <trkpt lat="49.42179" lon="0.25997">
        <ele>6.2</ele>
        <time>2020-06-17T15:36:09Z</time>
      </trkpt>
      <trkpt lat="49.42175" lon="0.25997">
        <ele>6.3</ele>
        <time>2020-06-17T15:36:10Z</time>
      </trkpt>
      <trkpt lat="49.4217" lon="0.25997">
        <ele>6.3</ele>
        <time>2020-06-17T15:36:11Z</time>
      </trkpt>
      <trkpt lat="49.42165" lon="0.25997">
        <ele>6.3</ele>
        <time>2020-06-17T15:36:12Z</time>
      </trkpt>
      <trkpt lat="49.42161" lon="0.25998">
        <ele>6.3</ele>
        <time>2020-06-17T15:36:13Z</time>
      </trkpt>
      <trkpt lat="49.42157" lon="0.25997">
        <ele>6.3</ele>
        <time>2020-06-17T15:36:14Z</time>
      </trkpt>
      <trkpt lat="49.42153" lon="0.25997">
        <ele>6.4</ele>
        <time>2020-06-17T15:36:15Z</time>
      </trkpt>
      <trkpt lat="49.42148" lon="0.25997">
        <ele>6.4</ele>
        <time>2020-06-17T15:36:16Z</time>
      </trkpt>
      <trkpt lat="49.42143" lon="0.25998">
        <ele>6.4</ele>
        <time>2020-06-17T15:36:17Z</time>
      </trkpt>
      <trkpt lat="49.42138" lon="0.25998">
        <ele>6.4</ele>
        <time>2020-06-17T15:36:18Z</time>
      </trkpt>
      <trkpt lat="49.42133" lon="0.25998">
        <ele>6.4</ele>
        <time>2020-06-17T15:36:19Z</time>
      </trkpt>
      <trkpt lat="49.42129" lon="0.25999">
        <ele>6.5</ele>
        <time>2020-06-17T15:36:20Z</time>
      </trkpt>
      <trkpt lat="49.42124" lon="0.26">
        <ele>6.5</ele>
        <time>2020-06-17T15:36:21Z</time>
      </trkpt>
      <trkpt lat="49.42119" lon="0.26">
        <ele>6.5</ele>
        <time>2020-06-17T15:36:22Z</time>
      </trkpt>
      <trkpt lat="49.42114" lon="0.26001">
        <ele>6.6</ele>
        <time>2020-06-17T15:36:23Z</time>
      </trkpt>
      <trkpt lat="49.42108" lon="0.26">
        <ele>6.6</ele>
        <time>2020-06-17T15:36:24Z</time>
      </trkpt>
      <trkpt lat="49.42102" lon="0.26">
        <ele>6.6</ele>
        <time>2020-06-17T15:36:25Z</time>
      </trkpt>
      <trkpt lat="49.42098" lon="0.25999">
        <ele>6.5</ele>
        <time>2020-06-17T15:36:26Z</time>
      </trkpt>
      <trkpt lat="49.42094" lon="0.25998">
        <ele>6.5</ele>
        <time>2020-06-17T15:36:27Z</time>
      </trkpt>
      <trkpt lat="49.4209" lon="0.25999">
        <ele>6.5</ele>
        <time>2020-06-17T15:36:28Z</time>
      </trkpt>
      <trkpt lat="49.42086" lon="0.25999">
        <ele>6.5</ele>
        <time>2020-06-17T15:36:29Z</time>
      </trkpt>
      <trkpt lat="49.42082" lon="0.26">
        <ele>6.4</ele>
        <time>2020-06-17T15:36:30Z</time>
      </trkpt>
      <trkpt lat="49.42077" lon="0.26">
        <ele>6.4</ele>
        <time>2020-06-17T15:36:31Z</time>
      </trkpt>
      <trkpt lat="49.42072" lon="0.26">
        <ele>6.4</ele>
        <time>2020-06-17T15:36:32Z</time>
      </trkpt>
      <trkpt lat="49.42067" lon="0.26001">
        <ele>6.3</ele>
        <time>2020-06-17T15:36:33Z</time>
      </trkpt>
      <trkpt lat="49.42062" lon="0.26002">
        <ele>6.3</ele>
        <time>2020-06-17T15:36:34Z</time>
      </trkpt>
      <trkpt lat="49.42057" lon="0.26002">
        <ele>6.3</ele>
        <time>2020-06-17T15:36:35Z</time>
      </trkpt>
      <trkpt lat="49.42052" lon="0.26002">
        <ele>6.3</ele>
        <time>2020-06-17T15:36:36Z</time>
      </trkpt>
      <trkpt lat="49.42047" lon="0.26002">
        <ele>6.2</ele>
        <time>2020-06-17T15:36:37Z</time>
      </trkpt>
      <trkpt lat="49.42042" lon="0.26002">
        <ele>6.2</ele>
        <time>2020-06-17T15:36:38Z</time>
      </trkpt>
      <trkpt lat="49.42038" lon="0.26002">
        <ele>6.2</ele>
        <time>2020-06-17T15:36:39Z</time>
      </trkpt>
      <trkpt lat="49.42034" lon="0.26002">
        <ele>6.2</ele>
        <time>2020-06-17T15:36:40Z</time>
      </trkpt>
      <trkpt lat="49.4203" lon="0.26003">
        <ele>6.2</ele>
        <time>2020-06-17T15:36:41Z</time>
      </trkpt>
      <trkpt lat="49.42026" lon="0.26003">
        <ele>6.1</ele>
        <time>2020-06-17T15:36:42Z</time>
      </trkpt>
      <trkpt lat="49.42021" lon="0.26003">
        <ele>6.1</ele>
        <time>2020-06-17T15:36:43Z</time>
      </trkpt>
      <trkpt lat="49.42017" lon="0.26004">
        <ele>6.1</ele>
        <time>2020-06-17T15:36:44Z</time>
      </trkpt>
      <trkpt lat="49.42013" lon="0.26006">
        <ele>6.1</ele>
        <time>2020-06-17T15:36:45Z</time>
      </trkpt>
      <trkpt lat="49.4201" lon="0.26007">
        <ele>6.1</ele>
        <time>2020-06-17T15:36:46Z</time>
      </trkpt>
      <trkpt lat="49.42006" lon="0.26012">
        <ele>6.1</ele>
        <time>2020-06-17T15:36:47Z</time>
      </trkpt>
      <trkpt lat="49.42005" lon="0.26018">
        <ele>5.8</ele>
        <time>2020-06-17T15:36:48Z</time>
      </trkpt>
      <trkpt lat="49.42003" lon="0.26025">
        <ele>5.7</ele>
        <time>2020-06-17T15:36:49Z</time>
      </trkpt>
      <trkpt lat="49.42002" lon="0.26031">
        <ele>5.6</ele>
        <time>2020-06-17T15:36:50Z</time>
      </trkpt>
      <trkpt lat="49.42001" lon="0.26036">
        <ele>5.5</ele>
        <time>2020-06-17T15:36:51Z</time>
      </trkpt>
      <trkpt lat="49.42002" lon="0.26044">
        <ele>5.4</ele>
        <time>2020-06-17T15:36:52Z</time>
      </trkpt>
      <trkpt lat="49.42003" lon="0.26051">
        <ele>5.3</ele>
        <time>2020-06-17T15:36:53Z</time>
      </trkpt>
      <trkpt lat="49.42003" lon="0.26058">
        <ele>5.3</ele>
        <time>2020-06-17T15:36:54Z</time>
      </trkpt>
      <trkpt lat="49.42003" lon="0.26065">
        <ele>5.2</ele>
        <time>2020-06-17T15:36:55Z</time>
      </trkpt>
      <trkpt lat="49.42003" lon="0.26071">
        <ele>5.2</ele>
        <time>2020-06-17T15:36:56Z</time>
      </trkpt>
      <trkpt lat="49.42003" lon="0.26078">
        <ele>5.2</ele>
        <time>2020-06-17T15:36:57Z</time>
      </trkpt>
      <trkpt lat="49.42003" lon="0.26088">
        <ele>5.2</ele>
        <time>2020-06-17T15:36:58Z</time>
      </trkpt>
      <trkpt lat="49.42002" lon="0.26096">
        <ele>5.2</ele>
        <time>2020-06-17T15:36:59Z</time>
      </trkpt>
      <trkpt lat="49.42002" lon="0.26105">
        <ele>5.2</ele>
        <time>2020-06-17T15:37:00Z</time>
      </trkpt>
      <trkpt lat="49.42002" lon="0.26113">
        <ele>5.1</ele>
        <time>2020-06-17T15:37:01Z</time>
      </trkpt>
      <trkpt lat="49.42002" lon="0.26121">
        <ele>5.1</ele>
        <time>2020-06-17T15:37:02Z</time>
      </trkpt>
      <trkpt lat="49.42002" lon="0.26128">
        <ele>5.1</ele>
        <time>2020-06-17T15:37:03Z</time>
      </trkpt>
      <trkpt lat="49.42002" lon="0.26135">
        <ele>5.1</ele>
        <time>2020-06-17T15:37:04Z</time>
      </trkpt>
      <trkpt lat="49.42002" lon="0.26143">
        <ele>5.1</ele>
        <time>2020-06-17T15:37:05Z</time>
      </trkpt>
      <trkpt lat="49.42002" lon="0.26149">
        <ele>5.1</ele>
        <time>2020-06-17T15:37:06Z</time>
      </trkpt>
      <trkpt lat="49.42002" lon="0.26156">
        <ele>5.2</ele>
        <time>2020-06-17T15:37:07Z</time>
      </trkpt>
      <trkpt lat="49.42001" lon="0.26164">
        <ele>5.2</ele>
        <time>2020-06-17T15:37:08Z</time>
      </trkpt>
      <trkpt lat="49.42001" lon="0.26171">
        <ele>5.2</ele>
        <time>2020-06-17T15:37:09Z</time>
      </trkpt>
      <trkpt lat="49.42" lon="0.26178">
        <ele>5.2</ele>
        <time>2020-06-17T15:37:10Z</time>
      </trkpt>
      <trkpt lat="49.42" lon="0.26186">
        <ele>5.2</ele>
        <time>2020-06-17T15:37:11Z</time>
      </trkpt>
      <trkpt lat="49.41999" lon="0.26194">
        <ele>5.2</ele>
        <time>2020-06-17T15:37:12Z</time>
      </trkpt>
      <trkpt lat="49.41999" lon="0.26201">
        <ele>5.2</ele>
        <time>2020-06-17T15:37:13Z</time>
      </trkpt>
      <trkpt lat="49.41998" lon="0.2621">
        <ele>5.2</ele>
        <time>2020-06-17T15:37:14Z</time>
      </trkpt>
      <trkpt lat="49.41998" lon="0.26219">
        <ele>5.2</ele>
        <time>2020-06-17T15:37:15Z</time>
      </trkpt>
      <trkpt lat="49.41997" lon="0.26228">
        <ele>5.2</ele>
        <time>2020-06-17T15:37:16Z</time>
      </trkpt>
      <trkpt lat="49.41997" lon="0.26236">
        <ele>5.2</ele>
        <time>2020-06-17T15:37:17Z</time>
      </trkpt>
      <trkpt lat="49.41997" lon="0.26245">
        <ele>5.2</ele>
        <time>2020-06-17T15:37:18Z</time>
      </trkpt>
      <trkpt lat="49.41997" lon="0.26253">
        <ele>5.2</ele>
        <time>2020-06-17T15:37:19Z</time>
      </trkpt>
      <trkpt lat="49.41997" lon="0.26261">
        <ele>5.2</ele>
        <time>2020-06-17T15:37:20Z</time>
      </trkpt>
      <trkpt lat="49.41997" lon="0.26268">
        <ele>5.2</ele>
        <time>2020-06-17T15:37:21Z</time>
      </trkpt>
      <trkpt lat="49.41996" lon="0.26276">
        <ele>5.2</ele>
        <time>2020-06-17T15:37:22Z</time>
      </trkpt>
      <trkpt lat="49.41996" lon="0.26283">
        <ele>5.3</ele>
        <time>2020-06-17T15:37:23Z</time>
      </trkpt>
      <trkpt lat="49.41995" lon="0.2629">
        <ele>5.3</ele>
        <time>2020-06-17T15:37:24Z</time>
      </trkpt>
      <trkpt lat="49.41994" lon="0.26298">
        <ele>5.3</ele>
        <time>2020-06-17T15:37:25Z</time>
      </trkpt>
      <trkpt lat="49.41993" lon="0.26305">
        <ele>5.4</ele>
        <time>2020-06-17T15:37:26Z</time>
      </trkpt>
      <trkpt lat="49.41992" lon="0.26314">
        <ele>5.4</ele>
        <time>2020-06-17T15:37:27Z</time>
      </trkpt>
      <trkpt lat="49.41993" lon="0.26322">
        <ele>5.4</ele>
        <time>2020-06-17T15:37:28Z</time>
      </trkpt>
      <trkpt lat="49.41992" lon="0.2633">
        <ele>5.4</ele>
        <time>2020-06-17T15:37:29Z</time>
      </trkpt>
      <trkpt lat="49.41991" lon="0.26339">
        <ele>5.5</ele>
        <time>2020-06-17T15:37:30Z</time>
      </trkpt>
      <trkpt lat="49.41991" lon="0.26346">
        <ele>5.5</ele>
        <time>2020-06-17T15:37:31Z</time>
      </trkpt>
      <trkpt lat="49.41991" lon="0.26353">
        <ele>5.5</ele>
        <time>2020-06-17T15:37:32Z</time>
      </trkpt>
      <trkpt lat="49.41991" lon="0.2636">
        <ele>5.5</ele>
        <time>2020-06-17T15:37:33Z</time>
      </trkpt>
      <trkpt lat="49.4199" lon="0.26368">
        <ele>5.5</ele>
        <time>2020-06-17T15:37:34Z</time>
      </trkpt>
      <trkpt lat="49.4199" lon="0.26377">
        <ele>5.5</ele>
        <time>2020-06-17T15:37:35Z</time>
      </trkpt>
      <trkpt lat="49.41988" lon="0.26384">
        <ele>5.5</ele>
        <time>2020-06-17T15:37:36Z</time>
      </trkpt>
      <trkpt lat="49.41988" lon="0.26392">
        <ele>5.5</ele>
        <time>2020-06-17T15:37:37Z</time>
      </trkpt>
      <trkpt lat="49.41988" lon="0.26401">
        <ele>5.4</ele>
        <time>2020-06-17T15:37:38Z</time>
      </trkpt>
      <trkpt lat="49.41988" lon="0.2641">
        <ele>5.4</ele>
        <time>2020-06-17T15:37:39Z</time>
      </trkpt>
      <trkpt lat="49.41988" lon="0.26418">
        <ele>5.4</ele>
        <time>2020-06-17T15:37:40Z</time>
      </trkpt>
      <trkpt lat="49.41988" lon="0.26427">
        <ele>5.4</ele>
        <time>2020-06-17T15:37:41Z</time>
      </trkpt>
      <trkpt lat="49.41988" lon="0.26435">
        <ele>5.4</ele>
        <time>2020-06-17T15:37:42Z</time>
      </trkpt>
      <trkpt lat="49.41987" lon="0.26443">
        <ele>5.4</ele>
        <time>2020-06-17T15:37:43Z</time>
      </trkpt>
      <trkpt lat="49.41987" lon="0.26452">
        <ele>5.4</ele>
        <time>2020-06-17T15:37:44Z</time>
      </trkpt>
      <trkpt lat="49.41987" lon="0.26461">
        <ele>5.4</ele>
        <time>2020-06-17T15:37:45Z</time>
      </trkpt>
      <trkpt lat="49.41987" lon="0.2647">
        <ele>5.4</ele>
        <time>2020-06-17T15:37:46Z</time>
      </trkpt>
      <trkpt lat="49.41986" lon="0.2648">
        <ele>5.4</ele>
        <time>2020-06-17T15:37:47Z</time>
      </trkpt>
      <trkpt lat="49.41986" lon="0.26489">
        <ele>5.4</ele>
        <time>2020-06-17T15:37:48Z</time>
      </trkpt>
      <trkpt lat="49.41985" lon="0.26496">
        <ele>5.4</ele>
        <time>2020-06-17T15:37:49Z</time>
      </trkpt>
      <trkpt lat="49.41984" lon="0.26503">
        <ele>5.4</ele>
        <time>2020-06-17T15:37:50Z</time>
      </trkpt>
      <trkpt lat="49.41984" lon="0.26512">
        <ele>5.4</ele>
        <time>2020-06-17T15:37:51Z</time>
      </trkpt>
      <trkpt lat="49.41983" lon="0.2652">
        <ele>5.4</ele>
        <time>2020-06-17T15:37:52Z</time>
      </trkpt>
      <trkpt lat="49.41983" lon="0.26528">
        <ele>5.4</ele>
        <time>2020-06-17T15:37:53Z</time>
      </trkpt>
      <trkpt lat="49.41982" lon="0.26537">
        <ele>5.4</ele>
        <time>2020-06-17T15:37:54Z</time>
      </trkpt>
      <trkpt lat="49.41981" lon="0.26546">
        <ele>5.4</ele>
        <time>2020-06-17T15:37:55Z</time>
      </trkpt>
      <trkpt lat="49.4198" lon="0.26555">
        <ele>5.4</ele>
        <time>2020-06-17T15:37:56Z</time>
      </trkpt>
      <trkpt lat="49.4198" lon="0.26565">
        <ele>5.4</ele>
        <time>2020-06-17T15:37:57Z</time>
      </trkpt>
      <trkpt lat="49.41979" lon="0.26574">
        <ele>5.4</ele>
        <time>2020-06-17T15:37:58Z</time>
      </trkpt>
      <trkpt lat="49.41978" lon="0.26583">
        <ele>5.4</ele>
        <time>2020-06-17T15:37:59Z</time>
      </trkpt>
      <trkpt lat="49.41979" lon="0.2659">
        <ele>5.4</ele>
        <time>2020-06-17T15:38:00Z</time>
      </trkpt>
      <trkpt lat="49.41979" lon="0.26598">
        <ele>5.4</ele>
        <time>2020-06-17T15:38:01Z</time>
      </trkpt>
      <trkpt lat="49.41978" lon="0.26608">
        <ele>5.4</ele>
        <time>2020-06-17T15:38:02Z</time>
      </trkpt>
      <trkpt lat="49.41978" lon="0.26617">
        <ele>5.4</ele>
        <time>2020-06-17T15:38:03Z</time>
      </trkpt>
      <trkpt lat="49.41978" lon="0.26626">
        <ele>5.4</ele>
        <time>2020-06-17T15:38:04Z</time>
      </trkpt>
      <trkpt lat="49.41976" lon="0.26634">
        <ele>5.4</ele>
        <time>2020-06-17T15:38:05Z</time>
      </trkpt>
      <trkpt lat="49.41976" lon="0.26643">
        <ele>5.4</ele>
        <time>2020-06-17T15:38:06Z</time>
      </trkpt>
      <trkpt lat="49.41976" lon="0.2665">
        <ele>5.4</ele>
        <time>2020-06-17T15:38:07Z</time>
      </trkpt>
      <trkpt lat="49.41975" lon="0.26659">
        <ele>5.4</ele>
        <time>2020-06-17T15:38:08Z</time>
      </trkpt>
      <trkpt lat="49.41975" lon="0.26668">
        <ele>5.4</ele>
        <time>2020-06-17T15:38:09Z</time>
      </trkpt>
      <trkpt lat="49.41975" lon="0.26678">
        <ele>5.4</ele>
        <time>2020-06-17T15:38:10Z</time>
      </trkpt>
      <trkpt lat="49.41975" lon="0.26687">
        <ele>5.4</ele>
        <time>2020-06-17T15:38:11Z</time>
      </trkpt>
      <trkpt lat="49.41973" lon="0.26695">
        <ele>5.4</ele>
        <time>2020-06-17T15:38:12Z</time>
      </trkpt>
      <trkpt lat="49.41972" lon="0.26704">
        <ele>5.4</ele>
        <time>2020-06-17T15:38:13Z</time>
      </trkpt>
      <trkpt lat="49.4197" lon="0.26712">
        <ele>5.5</ele>
        <time>2020-06-17T15:38:14Z</time>
      </trkpt>
      <trkpt lat="49.41968" lon="0.26721">
        <ele>5.4</ele>
        <time>2020-06-17T15:38:15Z</time>
      </trkpt>
      <trkpt lat="49.41967" lon="0.26731">
        <ele>5.4</ele>
        <time>2020-06-17T15:38:16Z</time>
      </trkpt>
      <trkpt lat="49.41966" lon="0.2674">
        <ele>5.4</ele>
        <time>2020-06-17T15:38:17Z</time>
      </trkpt>
      <trkpt lat="49.41965" lon="0.26748">
        <ele>5.4</ele>
        <time>2020-06-17T15:38:18Z</time>
      </trkpt>
      <trkpt lat="49.41964" lon="0.26757">
        <ele>5.5</ele>
        <time>2020-06-17T15:38:19Z</time>
      </trkpt>
      <trkpt lat="49.41964" lon="0.26766">
        <ele>5.5</ele>
        <time>2020-06-17T15:38:20Z</time>
      </trkpt>
      <trkpt lat="49.41963" lon="0.26775">
        <ele>5.5</ele>
        <time>2020-06-17T15:38:21Z</time>
      </trkpt>
      <trkpt lat="49.41963" lon="0.26784">
        <ele>5.5</ele>
        <time>2020-06-17T15:38:22Z</time>
      </trkpt>
      <trkpt lat="49.41963" lon="0.26792">
        <ele>5.5</ele>
        <time>2020-06-17T15:38:23Z</time>
      </trkpt>
      <trkpt lat="49.41962" lon="0.26801">
        <ele>5.5</ele>
        <time>2020-06-17T15:38:24Z</time>
      </trkpt>
      <trkpt lat="49.41962" lon="0.2681">
        <ele>5.4</ele>
        <time>2020-06-17T15:38:25Z</time>
      </trkpt>
      <trkpt lat="49.41961" lon="0.26818">
        <ele>5.4</ele>
        <time>2020-06-17T15:38:26Z</time>
      </trkpt>
      <trkpt lat="49.4196" lon="0.26826">
        <ele>5.4</ele>
        <time>2020-06-17T15:38:27Z</time>
      </trkpt>
      <trkpt lat="49.41959" lon="0.26834">
        <ele>5.3</ele>
        <time>2020-06-17T15:38:28Z</time>
      </trkpt>
      <trkpt lat="49.41959" lon="0.26843">
        <ele>5.3</ele>
        <time>2020-06-17T15:38:29Z</time>
      </trkpt>
      <trkpt lat="49.41958" lon="0.26851">
        <ele>5.3</ele>
        <time>2020-06-17T15:38:30Z</time>
      </trkpt>
      <trkpt lat="49.41958" lon="0.2686">
        <ele>5.3</ele>
        <time>2020-06-17T15:38:31Z</time>
      </trkpt>
      <trkpt lat="49.41957" lon="0.2687">
        <ele>5.2</ele>
        <time>2020-06-17T15:38:32Z</time>
      </trkpt>
      <trkpt lat="49.41957" lon="0.2688">
        <ele>5.2</ele>
        <time>2020-06-17T15:38:33Z</time>
      </trkpt>
      <trkpt lat="49.41957" lon="0.26889">
        <ele>5.3</ele>
        <time>2020-06-17T15:38:34Z</time>
      </trkpt>
      <trkpt lat="49.41957" lon="0.26898">
        <ele>5.3</ele>
        <time>2020-06-17T15:38:35Z</time>
      </trkpt>
      <trkpt lat="49.41956" lon="0.26907">
        <ele>5.3</ele>
        <time>2020-06-17T15:38:36Z</time>
      </trkpt>
      <trkpt lat="49.41955" lon="0.26916">
        <ele>5.3</ele>
        <time>2020-06-17T15:38:37Z</time>
      </trkpt>
      <trkpt lat="49.41955" lon="0.26925">
        <ele>5.3</ele>
        <time>2020-06-17T15:38:38Z</time>
      </trkpt>
      <trkpt lat="49.41954" lon="0.26934">
        <ele>5.3</ele>
        <time>2020-06-17T15:38:39Z</time>
      </trkpt>
      <trkpt lat="49.41953" lon="0.26942">
        <ele>5.3</ele>
        <time>2020-06-17T15:38:40Z</time>
      </trkpt>
      <trkpt lat="49.41953" lon="0.26951">
        <ele>5.3</ele>
        <time>2020-06-17T15:38:41Z</time>
      </trkpt>
      <trkpt lat="49.41952" lon="0.2696">
        <ele>5.2</ele>
        <time>2020-06-17T15:38:42Z</time>
      </trkpt>
      <trkpt lat="49.41951" lon="0.26969">
        <ele>5.2</ele>
        <time>2020-06-17T15:38:43Z</time>
      </trkpt>
      <trkpt lat="49.41951" lon="0.26977">
        <ele>5.3</ele>
        <time>2020-06-17T15:38:44Z</time>
      </trkpt>
      <trkpt lat="49.41951" lon="0.26986">
        <ele>5.3</ele>
        <time>2020-06-17T15:38:45Z</time>
      </trkpt>
      <trkpt lat="49.4195" lon="0.26994">
        <ele>5.3</ele>
        <time>2020-06-17T15:38:46Z</time>
      </trkpt>
      <trkpt lat="49.4195" lon="0.27003">
        <ele>5.3</ele>
        <time>2020-06-17T15:38:47Z</time>
      </trkpt>
      <trkpt lat="49.4195" lon="0.27012">
        <ele>5.3</ele>
        <time>2020-06-17T15:38:48Z</time>
      </trkpt>
      <trkpt lat="49.4195" lon="0.27019">
        <ele>5.3</ele>
        <time>2020-06-17T15:38:49Z</time>
      </trkpt>
      <trkpt lat="49.41948" lon="0.27027">
        <ele>5.3</ele>
        <time>2020-06-17T15:38:50Z</time>
      </trkpt>
      <trkpt lat="49.41947" lon="0.27036">
        <ele>5.3</ele>
        <time>2020-06-17T15:38:51Z</time>
      </trkpt>
      <trkpt lat="49.41946" lon="0.27045">
        <ele>5.3</ele>
        <time>2020-06-17T15:38:52Z</time>
      </trkpt>
      <trkpt lat="49.41946" lon="0.27054">
        <ele>5.3</ele>
        <time>2020-06-17T15:38:53Z</time>
      </trkpt>
      <trkpt lat="49.41946" lon="0.27063">
        <ele>5.3</ele>
        <time>2020-06-17T15:38:54Z</time>
      </trkpt>
      <trkpt lat="49.41946" lon="0.27072">
        <ele>5.3</ele>
        <time>2020-06-17T15:38:55Z</time>
      </trkpt>
      <trkpt lat="49.41947" lon="0.27079">
        <ele>5.3</ele>
        <time>2020-06-17T15:38:56Z</time>
      </trkpt>
      <trkpt lat="49.41947" lon="0.27086">
        <ele>5.3</ele>
        <time>2020-06-17T15:38:57Z</time>
      </trkpt>
      <trkpt lat="49.41946" lon="0.27095">
        <ele>5.3</ele>
        <time>2020-06-17T15:38:58Z</time>
      </trkpt>
      <trkpt lat="49.41946" lon="0.27104">
        <ele>5.3</ele>
        <time>2020-06-17T15:38:59Z</time>
      </trkpt>
      <trkpt lat="49.41944" lon="0.27113">
        <ele>5.4</ele>
        <time>2020-06-17T15:39:00Z</time>
      </trkpt>
      <trkpt lat="49.41943" lon="0.27121">
        <ele>5.4</ele>
        <time>2020-06-17T15:39:01Z</time>
      </trkpt>
      <trkpt lat="49.41943" lon="0.2713">
        <ele>5.4</ele>
        <time>2020-06-17T15:39:02Z</time>
      </trkpt>
      <trkpt lat="49.41942" lon="0.27137">
        <ele>5.4</ele>
        <time>2020-06-17T15:39:03Z</time>
      </trkpt>
      <trkpt lat="49.41942" lon="0.27146">
        <ele>5.4</ele>
        <time>2020-06-17T15:39:04Z</time>
      </trkpt>
      <trkpt lat="49.41941" lon="0.27155">
        <ele>5.4</ele>
        <time>2020-06-17T15:39:05Z</time>
      </trkpt>
      <trkpt lat="49.41942" lon="0.2716">
        <ele>5.4</ele>
        <time>2020-06-17T15:39:06Z</time>
      </trkpt>
      <trkpt lat="49.41943" lon="0.27168">
        <ele>5.4</ele>
        <time>2020-06-17T15:39:07Z</time>
      </trkpt>
      <trkpt lat="49.41943" lon="0.27176">
        <ele>5.4</ele>
        <time>2020-06-17T15:39:08Z</time>
      </trkpt>
      <trkpt lat="49.41943" lon="0.27184">
        <ele>5.4</ele>
        <time>2020-06-17T15:39:09Z</time>
      </trkpt>
      <trkpt lat="49.41943" lon="0.27192">
        <ele>5.4</ele>
        <time>2020-06-17T15:39:10Z</time>
      </trkpt>
      <trkpt lat="49.41943" lon="0.272">
        <ele>5.4</ele>
        <time>2020-06-17T15:39:11Z</time>
      </trkpt>
      <trkpt lat="49.41943" lon="0.2721">
        <ele>5.4</ele>
        <time>2020-06-17T15:39:12Z</time>
      </trkpt>
      <trkpt lat="49.41943" lon="0.27218">
        <ele>5.4</ele>
        <time>2020-06-17T15:39:13Z</time>
      </trkpt>
      <trkpt lat="49.41943" lon="0.27227">
        <ele>5.4</ele>
        <time>2020-06-17T15:39:14Z</time>
      </trkpt>
      <trkpt lat="49.41943" lon="0.27236">
        <ele>5.4</ele>
        <time>2020-06-17T15:39:15Z</time>
      </trkpt>
      <trkpt lat="49.41942" lon="0.27244">
        <ele>5.4</ele>
        <time>2020-06-17T15:39:16Z</time>
      </trkpt>
      <trkpt lat="49.41942" lon="0.27253">
        <ele>5.4</ele>
        <time>2020-06-17T15:39:17Z</time>
      </trkpt>
      <trkpt lat="49.41942" lon="0.27261">
        <ele>5.4</ele>
        <time>2020-06-17T15:39:18Z</time>
      </trkpt>
      <trkpt lat="49.41942" lon="0.27269">
        <ele>5.3</ele>
        <time>2020-06-17T15:39:19Z</time>
      </trkpt>
      <trkpt lat="49.41941" lon="0.27278">
        <ele>5.3</ele>
        <time>2020-06-17T15:39:20Z</time>
      </trkpt>
      <trkpt lat="49.4194" lon="0.27286">
        <ele>5.3</ele>
        <time>2020-06-17T15:39:21Z</time>
      </trkpt>
      <trkpt lat="49.4194" lon="0.27294">
        <ele>5.3</ele>
        <time>2020-06-17T15:39:22Z</time>
      </trkpt>
      <trkpt lat="49.41939" lon="0.27302">
        <ele>5.3</ele>
        <time>2020-06-17T15:39:23Z</time>
      </trkpt>
      <trkpt lat="49.41939" lon="0.27311">
        <ele>5.3</ele>
        <time>2020-06-17T15:39:24Z</time>
      </trkpt>
      <trkpt lat="49.41939" lon="0.27317">
        <ele>5.3</ele>
        <time>2020-06-17T15:39:25Z</time>
      </trkpt>
      <trkpt lat="49.41939" lon="0.27324">
        <ele>5.3</ele>
        <time>2020-06-17T15:39:26Z</time>
      </trkpt>
      <trkpt lat="49.41936" lon="0.27332">
        <ele>5.3</ele>
        <time>2020-06-17T15:39:27Z</time>
      </trkpt>
      <trkpt lat="49.41935" lon="0.2734">
        <ele>5.3</ele>
        <time>2020-06-17T15:39:28Z</time>
      </trkpt>
      <trkpt lat="49.41933" lon="0.27347">
        <ele>5.3</ele>
        <time>2020-06-17T15:39:29Z</time>
      </trkpt>
      <trkpt lat="49.41932" lon="0.27353">
        <ele>5.3</ele>
        <time>2020-06-17T15:39:30Z</time>
      </trkpt>
      <trkpt lat="49.41931" lon="0.27361">
        <ele>5.3</ele>
        <time>2020-06-17T15:39:31Z</time>
      </trkpt>
      <trkpt lat="49.4193" lon="0.27369">
        <ele>5.4</ele>
        <time>2020-06-17T15:39:32Z</time>
      </trkpt>
      <trkpt lat="49.4193" lon="0.27377">
        <ele>5.4</ele>
        <time>2020-06-17T15:39:33Z</time>
      </trkpt>
      <trkpt lat="49.4193" lon="0.27384">
        <ele>5.4</ele>
        <time>2020-06-17T15:39:34Z</time>
      </trkpt>
      <trkpt lat="49.41929" lon="0.27391">
        <ele>5.4</ele>
        <time>2020-06-17T15:39:35Z</time>
      </trkpt>
      <trkpt lat="49.41928" lon="0.27398">
        <ele>5.5</ele>
        <time>2020-06-17T15:39:36Z</time>
      </trkpt>
      <trkpt lat="49.41928" lon="0.27403">
        <ele>5.5</ele>
        <time>2020-06-17T15:39:37Z</time>
      </trkpt>
      <trkpt lat="49.41927" lon="0.27409">
        <ele>5.5</ele>
        <time>2020-06-17T15:39:38Z</time>
      </trkpt>
      <trkpt lat="49.41928" lon="0.27415">
        <ele>5.5</ele>
        <time>2020-06-17T15:39:39Z</time>
      </trkpt>
      <trkpt lat="49.41927" lon="0.27419">
        <ele>5.5</ele>
        <time>2020-06-17T15:39:40Z</time>
      </trkpt>
      <trkpt lat="49.41925" lon="0.27425">
        <ele>5.6</ele>
        <time>2020-06-17T15:39:41Z</time>
      </trkpt>
      <trkpt lat="49.41924" lon="0.27431">
        <ele>5.6</ele>
        <time>2020-06-17T15:39:42Z</time>
      </trkpt>
      <trkpt lat="49.41924" lon="0.27438">
        <ele>5.6</ele>
        <time>2020-06-17T15:39:43Z</time>
      </trkpt>
      <trkpt lat="49.41923" lon="0.27446">
        <ele>5.6</ele>
        <time>2020-06-17T15:39:44Z</time>
      </trkpt>
      <trkpt lat="49.41923" lon="0.27453">
        <ele>5.6</ele>
        <time>2020-06-17T15:39:45Z</time>
      </trkpt>
      <trkpt lat="49.41924" lon="0.2746">
        <ele>5.6</ele>
        <time>2020-06-17T15:39:46Z</time>
      </trkpt>
      <trkpt lat="49.41923" lon="0.27467">
        <ele>5.6</ele>
        <time>2020-06-17T15:39:47Z</time>
      </trkpt>
      <trkpt lat="49.41923" lon="0.27474">
        <ele>5.6</ele>
        <time>2020-06-17T15:39:48Z</time>
      </trkpt>
      <trkpt lat="49.41924" lon="0.27482">
        <ele>5.6</ele>
        <time>2020-06-17T15:39:49Z</time>
      </trkpt>
      <trkpt lat="49.41924" lon="0.27489">
        <ele>5.7</ele>
        <time>2020-06-17T15:39:50Z</time>
      </trkpt>
      <trkpt lat="49.41924" lon="0.27495">
        <ele>5.7</ele>
        <time>2020-06-17T15:39:51Z</time>
      </trkpt>
      <trkpt lat="49.41925" lon="0.27502">
        <ele>5.7</ele>
        <time>2020-06-17T15:39:52Z</time>
      </trkpt>
      <trkpt lat="49.41926" lon="0.27508">
        <ele>5.7</ele>
        <time>2020-06-17T15:39:53Z</time>
      </trkpt>
      <trkpt lat="49.41927" lon="0.27515">
        <ele>5.8</ele>
        <time>2020-06-17T15:39:54Z</time>
      </trkpt>
      <trkpt lat="49.41925" lon="0.27523">
        <ele>5.8</ele>
        <time>2020-06-17T15:39:55Z</time>
      </trkpt>
      <trkpt lat="49.41926" lon="0.27528">
        <ele>5.8</ele>
        <time>2020-06-17T15:39:56Z</time>
      </trkpt>
      <trkpt lat="49.41926" lon="0.27534">
        <ele>5.8</ele>
        <time>2020-06-17T15:39:57Z</time>
      </trkpt>
      <trkpt lat="49.41926" lon="0.27536">
        <ele>5.8</ele>
        <time>2020-06-17T15:39:58Z</time>
      </trkpt>
      <trkpt lat="49.41927" lon="0.27542">
        <ele>5.8</ele>
        <time>2020-06-17T15:39:59Z</time>
      </trkpt>
      <trkpt lat="49.41926" lon="0.27546">
        <ele>5.8</ele>
        <time>2020-06-17T15:40:00Z</time>
      </trkpt>
      <trkpt lat="49.41925" lon="0.27552">
        <ele>5.8</ele>
        <time>2020-06-17T15:40:01Z</time>
      </trkpt>
      <trkpt lat="49.41924" lon="0.27558">
        <ele>5.9</ele>
        <time>2020-06-17T15:40:02Z</time>
      </trkpt>
      <trkpt lat="49.41924" lon="0.27564">
        <ele>5.9</ele>
        <time>2020-06-17T15:40:03Z</time>
      </trkpt>
      <trkpt lat="49.41924" lon="0.2757">
        <ele>5.9</ele>
        <time>2020-06-17T15:40:04Z</time>
      </trkpt>
      <trkpt lat="49.41926" lon="0.27576">
        <ele>5.9</ele>
        <time>2020-06-17T15:40:05Z</time>
      </trkpt>
      <trkpt lat="49.41928" lon="0.27579">
        <ele>5.9</ele>
        <time>2020-06-17T15:40:06Z</time>
      </trkpt>
      <trkpt lat="49.41931" lon="0.27581">
        <ele>5.9</ele>
        <time>2020-06-17T15:40:07Z</time>
      </trkpt>
      <trkpt lat="49.41935" lon="0.27582">
        <ele>5.9</ele>
        <time>2020-06-17T15:40:08Z</time>
      </trkpt>
      <trkpt lat="49.41938" lon="0.27583">
        <ele>6</ele>
        <time>2020-06-17T15:40:09Z</time>
      </trkpt>
      <trkpt lat="49.41939" lon="0.27584">
        <ele>6</ele>
        <time>2020-06-17T15:40:10Z</time>
      </trkpt>
      <trkpt lat="49.41941" lon="0.27585">
        <ele>6</ele>
        <time>2020-06-17T15:40:11Z</time>
      </trkpt>
      <trkpt lat="49.41942" lon="0.27585">
        <ele>6</ele>
        <time>2020-06-17T15:40:12Z</time>
      </trkpt>
      <trkpt lat="49.41945" lon="0.27587">
        <ele>6</ele>
        <time>2020-06-17T15:40:13Z</time>
      </trkpt>
      <trkpt lat="49.41946" lon="0.27587">
        <ele>6</ele>
        <time>2020-06-17T15:40:14Z</time>
      </trkpt>
      <trkpt lat="49.41949" lon="0.27586">
        <ele>6</ele>
        <time>2020-06-17T15:40:15Z</time>
      </trkpt>
      <trkpt lat="49.4195" lon="0.27587">
        <ele>6</ele>
        <time>2020-06-17T15:40:16Z</time>
      </trkpt>
      <trkpt lat="49.41953" lon="0.27586">
        <ele>6</ele>
        <time>2020-06-17T15:40:17Z</time>
      </trkpt>
      <trkpt lat="49.41954" lon="0.27586">
        <ele>6</ele>
        <time>2020-06-17T15:40:18Z</time>
      </trkpt>
      <trkpt lat="49.41956" lon="0.27586">
        <ele>6</ele>
        <time>2020-06-17T15:40:19Z</time>
      </trkpt>
      <trkpt lat="49.41957" lon="0.27588">
        <ele>6</ele>
        <time>2020-06-17T15:40:20Z</time>
      </trkpt>
      <trkpt lat="49.41959" lon="0.27588">
        <ele>6</ele>
        <time>2020-06-17T15:40:21Z</time>
      </trkpt>
      <trkpt lat="49.41961" lon="0.27589">
        <ele>6</ele>
        <time>2020-06-17T15:40:22Z</time>
      </trkpt>
      <trkpt lat="49.41963" lon="0.2759">
        <ele>6</ele>
        <time>2020-06-17T15:40:23Z</time>
      </trkpt>
      <trkpt lat="49.41967" lon="0.27589">
        <ele>6</ele>
        <time>2020-06-17T15:40:24Z</time>
      </trkpt>
      <trkpt lat="49.41968" lon="0.27588">
        <ele>6</ele>
        <time>2020-06-17T15:40:25Z</time>
      </trkpt>
      <trkpt lat="49.41972" lon="0.27588">
        <ele>6</ele>
        <time>2020-06-17T15:40:26Z</time>
      </trkpt>
      <trkpt lat="49.41975" lon="0.27589">
        <ele>6</ele>
        <time>2020-06-17T15:40:27Z</time>
      </trkpt>
      <trkpt lat="49.41977" lon="0.2759">
        <ele>6</ele>
        <time>2020-06-17T15:40:28Z</time>
      </trkpt>
      <trkpt lat="49.41981" lon="0.27589">
        <ele>6</ele>
        <time>2020-06-17T15:40:29Z</time>
      </trkpt>
      <trkpt lat="49.41984" lon="0.2759">
        <ele>6</ele>
        <time>2020-06-17T15:40:30Z</time>
      </trkpt>
      <trkpt lat="49.41986" lon="0.27591">
        <ele>6</ele>
        <time>2020-06-17T15:40:31Z</time>
      </trkpt>
      <trkpt lat="49.4199" lon="0.27592">
        <ele>6</ele>
        <time>2020-06-17T15:40:32Z</time>
      </trkpt>
      <trkpt lat="49.41991" lon="0.27593">
        <ele>6</ele>
        <time>2020-06-17T15:40:33Z</time>
      </trkpt>
      <trkpt lat="49.41994" lon="0.27594">
        <ele>6</ele>
        <time>2020-06-17T15:40:34Z</time>
      </trkpt>
      <trkpt lat="49.41997" lon="0.27595">
        <ele>6</ele>
        <time>2020-06-17T15:40:35Z</time>
      </trkpt>
      <trkpt lat="49.42" lon="0.27597">
        <ele>6</ele>
        <time>2020-06-17T15:40:36Z</time>
      </trkpt>
      <trkpt lat="49.42004" lon="0.27597">
        <ele>6</ele>
        <time>2020-06-17T15:40:37Z</time>
      </trkpt>
      <trkpt lat="49.42007" lon="0.27598">
        <ele>6.1</ele>
        <time>2020-06-17T15:40:38Z</time>
      </trkpt>
      <trkpt lat="49.42012" lon="0.27599">
        <ele>6.1</ele>
        <time>2020-06-17T15:40:39Z</time>
      </trkpt>
      <trkpt lat="49.42016" lon="0.27598">
        <ele>6.2</ele>
        <time>2020-06-17T15:40:40Z</time>
      </trkpt>
      <trkpt lat="49.4202" lon="0.276">
        <ele>6.2</ele>
        <time>2020-06-17T15:40:41Z</time>
      </trkpt>
      <trkpt lat="49.42024" lon="0.27601">
        <ele>6.2</ele>
        <time>2020-06-17T15:40:42Z</time>
      </trkpt>
      <trkpt lat="49.42028" lon="0.27603">
        <ele>6.3</ele>
        <time>2020-06-17T15:40:43Z</time>
      </trkpt>
      <trkpt lat="49.42031" lon="0.27604">
        <ele>6.3</ele>
        <time>2020-06-17T15:40:44Z</time>
      </trkpt>
      <trkpt lat="49.42035" lon="0.27605">
        <ele>6.3</ele>
        <time>2020-06-17T15:40:45Z</time>
      </trkpt>
      <trkpt lat="49.42038" lon="0.27606">
        <ele>6.3</ele>
        <time>2020-06-17T15:40:46Z</time>
      </trkpt>
      <trkpt lat="49.42041" lon="0.27606">
        <ele>6.3</ele>
        <time>2020-06-17T15:40:47Z</time>
      </trkpt>
      <trkpt lat="49.42044" lon="0.27605">
        <ele>6.3</ele>
        <time>2020-06-17T15:40:48Z</time>
      </trkpt>
      <trkpt lat="49.42048" lon="0.27604">
        <ele>6.3</ele>
        <time>2020-06-17T15:40:49Z</time>
      </trkpt>
      <trkpt lat="49.42051" lon="0.27604">
        <ele>6.3</ele>
        <time>2020-06-17T15:40:50Z</time>
      </trkpt>
      <trkpt lat="49.42053" lon="0.27603">
        <ele>6.4</ele>
        <time>2020-06-17T15:40:51Z</time>
      </trkpt>
      <trkpt lat="49.42056" lon="0.27603">
        <ele>6.4</ele>
        <time>2020-06-17T15:40:52Z</time>
      </trkpt>
      <trkpt lat="49.42058" lon="0.27603">
        <ele>6.4</ele>
        <time>2020-06-17T15:40:53Z</time>
      </trkpt>
      <trkpt lat="49.4206" lon="0.27602">
        <ele>6.4</ele>
        <time>2020-06-17T15:40:54Z</time>
      </trkpt>
      <trkpt lat="49.42064" lon="0.27601">
        <ele>6.3</ele>
        <time>2020-06-17T15:40:55Z</time>
      </trkpt>
      <trkpt lat="49.42065" lon="0.276">
        <ele>6.3</ele>
        <time>2020-06-17T15:40:56Z</time>
      </trkpt>
      <trkpt lat="49.42068" lon="0.27599">
        <ele>6.3</ele>
        <time>2020-06-17T15:40:57Z</time>
      </trkpt>
      <trkpt lat="49.42071" lon="0.27598">
        <ele>6.2</ele>
        <time>2020-06-17T15:40:58Z</time>
      </trkpt>
      <trkpt lat="49.42074" lon="0.27594">
        <ele>6.2</ele>
        <time>2020-06-17T15:40:59Z</time>
      </trkpt>
      <trkpt lat="49.42077" lon="0.27593">
        <ele>6.1</ele>
        <time>2020-06-17T15:41:00Z</time>
      </trkpt>
      <trkpt lat="49.42081" lon="0.27592">
        <ele>6.1</ele>
        <time>2020-06-17T15:41:01Z</time>
      </trkpt>
      <trkpt lat="49.42084" lon="0.27591">
        <ele>6</ele>
        <time>2020-06-17T15:41:02Z</time>
      </trkpt>
      <trkpt lat="49.42088" lon="0.2759">
        <ele>6</ele>
        <time>2020-06-17T15:41:03Z</time>
      </trkpt>
      <trkpt lat="49.42092" lon="0.2759">
        <ele>6.1</ele>
        <time>2020-06-17T15:41:04Z</time>
      </trkpt>
      <trkpt lat="49.42095" lon="0.27587">
        <ele>6.1</ele>
        <time>2020-06-17T15:41:05Z</time>
      </trkpt>
      <trkpt lat="49.42098" lon="0.27586">
        <ele>6.2</ele>
        <time>2020-06-17T15:41:06Z</time>
      </trkpt>
      <trkpt lat="49.42102" lon="0.27584">
        <ele>6.2</ele>
        <time>2020-06-17T15:41:07Z</time>
      </trkpt>
      <trkpt lat="49.42105" lon="0.27582">
        <ele>6.3</ele>
        <time>2020-06-17T15:41:08Z</time>
      </trkpt>
      <trkpt lat="49.42108" lon="0.27582">
        <ele>6.3</ele>
        <time>2020-06-17T15:41:09Z</time>
      </trkpt>
      <trkpt lat="49.42112" lon="0.27582">
        <ele>6.4</ele>
        <time>2020-06-17T15:41:10Z</time>
      </trkpt>
      <trkpt lat="49.42115" lon="0.27581">
        <ele>6.5</ele>
        <time>2020-06-17T15:41:11Z</time>
      </trkpt>
      <trkpt lat="49.42118" lon="0.27581">
        <ele>6.6</ele>
        <time>2020-06-17T15:41:12Z</time>
      </trkpt>
      <trkpt lat="49.42122" lon="0.27582">
        <ele>6.7</ele>
        <time>2020-06-17T15:41:13Z</time>
      </trkpt>
      <trkpt lat="49.42125" lon="0.2758">
        <ele>6.8</ele>
        <time>2020-06-17T15:41:14Z</time>
      </trkpt>
      <trkpt lat="49.42129" lon="0.27578">
        <ele>6.9</ele>
        <time>2020-06-17T15:41:15Z</time>
      </trkpt>
      <trkpt lat="49.42133" lon="0.27577">
        <ele>7</ele>
        <time>2020-06-17T15:41:16Z</time>
      </trkpt>
      <trkpt lat="49.42135" lon="0.27577">
        <ele>7.1</ele>
        <time>2020-06-17T15:41:17Z</time>
      </trkpt>
      <trkpt lat="49.42138" lon="0.27577">
        <ele>7.2</ele>
        <time>2020-06-17T15:41:18Z</time>
      </trkpt>
      <trkpt lat="49.42142" lon="0.27576">
        <ele>7.3</ele>
        <time>2020-06-17T15:41:19Z</time>
      </trkpt>
      <trkpt lat="49.42145" lon="0.27574">
        <ele>7.3</ele>
        <time>2020-06-17T15:41:20Z</time>
      </trkpt>
      <trkpt lat="49.42149" lon="0.27571">
        <ele>7.4</ele>
        <time>2020-06-17T15:41:21Z</time>
      </trkpt>
      <trkpt lat="49.42152" lon="0.27569">
        <ele>7.5</ele>
        <time>2020-06-17T15:41:22Z</time>
      </trkpt>
      <trkpt lat="49.42155" lon="0.27568">
        <ele>7.6</ele>
        <time>2020-06-17T15:41:23Z</time>
      </trkpt>
      <trkpt lat="49.42159" lon="0.27568">
        <ele>7.7</ele>
        <time>2020-06-17T15:41:24Z</time>
      </trkpt>
      <trkpt lat="49.42163" lon="0.27568">
        <ele>7.8</ele>
        <time>2020-06-17T15:41:25Z</time>
      </trkpt>
      <trkpt lat="49.42167" lon="0.27568">
        <ele>8</ele>
        <time>2020-06-17T15:41:26Z</time>
      </trkpt>
      <trkpt lat="49.42171" lon="0.27567">
        <ele>8.1</ele>
        <time>2020-06-17T15:41:27Z</time>
      </trkpt>
      <trkpt lat="49.42175" lon="0.27567">
        <ele>8.2</ele>
        <time>2020-06-17T15:41:28Z</time>
      </trkpt>
      <trkpt lat="49.42178" lon="0.27566">
        <ele>8.4</ele>
        <time>2020-06-17T15:41:29Z</time>
      </trkpt>
      <trkpt lat="49.42182" lon="0.27566">
        <ele>8.5</ele>
        <time>2020-06-17T15:41:30Z</time>
      </trkpt>
      <trkpt lat="49.42184" lon="0.27566">
        <ele>8.6</ele>
        <time>2020-06-17T15:41:31Z</time>
      </trkpt>
      <trkpt lat="49.42188" lon="0.27564">
        <ele>8.8</ele>
        <time>2020-06-17T15:41:32Z</time>
      </trkpt>
      <trkpt lat="49.4219" lon="0.27564">
        <ele>8.9</ele>
        <time>2020-06-17T15:41:33Z</time>
      </trkpt>
      <trkpt lat="49.42193" lon="0.27564">
        <ele>9</ele>
        <time>2020-06-17T15:41:34Z</time>
      </trkpt>
      <trkpt lat="49.42196" lon="0.27564">
        <ele>9.2</ele>
        <time>2020-06-17T15:41:35Z</time>
      </trkpt>
      <trkpt lat="49.42199" lon="0.27562">
        <ele>9.3</ele>
        <time>2020-06-17T15:41:36Z</time>
      </trkpt>
      <trkpt lat="49.422" lon="0.27562">
        <ele>9.3</ele>
        <time>2020-06-17T15:41:37Z</time>
      </trkpt>
      <trkpt lat="49.42201" lon="0.27561">
        <ele>9.4</ele>
        <time>2020-06-17T15:41:38Z</time>
      </trkpt>
      <trkpt lat="49.42205" lon="0.2756">
        <ele>9.6</ele>
        <time>2020-06-17T15:41:39Z</time>
      </trkpt>
      <trkpt lat="49.42206" lon="0.27559">
        <ele>9.6</ele>
        <time>2020-06-17T15:41:40Z</time>
      </trkpt>
      <trkpt lat="49.4221" lon="0.27558">
        <ele>9.8</ele>
        <time>2020-06-17T15:41:41Z</time>
      </trkpt>
      <trkpt lat="49.42213" lon="0.27557">
        <ele>9.9</ele>
        <time>2020-06-17T15:41:42Z</time>
      </trkpt>
      <trkpt lat="49.42216" lon="0.27555">
        <ele>10</ele>
        <time>2020-06-17T15:41:43Z</time>
      </trkpt>
      <trkpt lat="49.42219" lon="0.27556">
        <ele>10.2</ele>
        <time>2020-06-17T15:41:44Z</time>
      </trkpt>
      <trkpt lat="49.42222" lon="0.27555">
        <ele>10.3</ele>
        <time>2020-06-17T15:41:45Z</time>
      </trkpt>
      <trkpt lat="49.42225" lon="0.27555">
        <ele>10.3</ele>
        <time>2020-06-17T15:41:46Z</time>
      </trkpt>
      <trkpt lat="49.42229" lon="0.27554">
        <ele>10.4</ele>
        <time>2020-06-17T15:41:47Z</time>
      </trkpt>
      <trkpt lat="49.42232" lon="0.27552">
        <ele>10.4</ele>
        <time>2020-06-17T15:41:48Z</time>
      </trkpt>
      <trkpt lat="49.42235" lon="0.27552">
        <ele>10.3</ele>
        <time>2020-06-17T15:41:49Z</time>
      </trkpt>
      <trkpt lat="49.42237" lon="0.2755">
        <ele>10.3</ele>
        <time>2020-06-17T15:41:50Z</time>
      </trkpt>
      <trkpt lat="49.4224" lon="0.27547">
        <ele>14.6</ele>
        <time>2020-06-17T15:41:51Z</time>
      </trkpt>
      <trkpt lat="49.42241" lon="0.27546">
        <ele>14.7</ele>
        <time>2020-06-17T15:41:52Z</time>
      </trkpt>
      <trkpt lat="49.42244" lon="0.27544">
        <ele>14.8</ele>
        <time>2020-06-17T15:41:53Z</time>
      </trkpt>
      <trkpt lat="49.42247" lon="0.27544">
        <ele>14.9</ele>
        <time>2020-06-17T15:41:54Z</time>
      </trkpt>
      <trkpt lat="49.4225" lon="0.27544">
        <ele>15</ele>
        <time>2020-06-17T15:41:55Z</time>
      </trkpt>
      <trkpt lat="49.42253" lon="0.27545">
        <ele>15.1</ele>
        <time>2020-06-17T15:41:56Z</time>
      </trkpt>
      <trkpt lat="49.42254" lon="0.27545">
        <ele>15.2</ele>
        <time>2020-06-17T15:41:57Z</time>
      </trkpt>
      <trkpt lat="49.42257" lon="0.27545">
        <ele>15.3</ele>
        <time>2020-06-17T15:41:58Z</time>
      </trkpt>
      <trkpt lat="49.4226" lon="0.27544">
        <ele>15.4</ele>
        <time>2020-06-17T15:41:59Z</time>
      </trkpt>
      <trkpt lat="49.42264" lon="0.27544">
        <ele>15.6</ele>
        <time>2020-06-17T15:42:00Z</time>
      </trkpt>
      <trkpt lat="49.42266" lon="0.27544">
        <ele>15.7</ele>
        <time>2020-06-17T15:42:01Z</time>
      </trkpt>
      <trkpt lat="49.4227" lon="0.27544">
        <ele>15.8</ele>
        <time>2020-06-17T15:42:02Z</time>
      </trkpt>
      <trkpt lat="49.42273" lon="0.27543">
        <ele>16</ele>
        <time>2020-06-17T15:42:03Z</time>
      </trkpt>
      <trkpt lat="49.42276" lon="0.27541">
        <ele>16.1</ele>
        <time>2020-06-17T15:42:04Z</time>
      </trkpt>
      <trkpt lat="49.42277" lon="0.2754">
        <ele>16.1</ele>
        <time>2020-06-17T15:42:05Z</time>
      </trkpt>
      <trkpt lat="49.42281" lon="0.27539">
        <ele>16.3</ele>
        <time>2020-06-17T15:42:06Z</time>
      </trkpt>
      <trkpt lat="49.42282" lon="0.27538">
        <ele>16.4</ele>
        <time>2020-06-17T15:42:07Z</time>
      </trkpt>
      <trkpt lat="49.42285" lon="0.27538">
        <ele>16.5</ele>
        <time>2020-06-17T15:42:08Z</time>
      </trkpt>
      <trkpt lat="49.42289" lon="0.27538">
        <ele>16.7</ele>
        <time>2020-06-17T15:42:09Z</time>
      </trkpt>
      <trkpt lat="49.42291" lon="0.27537">
        <ele>16.8</ele>
        <time>2020-06-17T15:42:10Z</time>
      </trkpt>
      <trkpt lat="49.42294" lon="0.27536">
        <ele>16.9</ele>
        <time>2020-06-17T15:42:11Z</time>
      </trkpt>
      <trkpt lat="49.42298" lon="0.27536">
        <ele>17.1</ele>
        <time>2020-06-17T15:42:12Z</time>
      </trkpt>
      <trkpt lat="49.42301" lon="0.27536">
        <ele>17.2</ele>
        <time>2020-06-17T15:42:13Z</time>
      </trkpt>
      <trkpt lat="49.42305" lon="0.27536">
        <ele>17.4</ele>
        <time>2020-06-17T15:42:14Z</time>
      </trkpt>
      <trkpt lat="49.42306" lon="0.27536">
        <ele>17.5</ele>
        <time>2020-06-17T15:42:15Z</time>
      </trkpt>
      <trkpt lat="49.42309" lon="0.27534">
        <ele>17.6</ele>
        <time>2020-06-17T15:42:16Z</time>
      </trkpt>
      <trkpt lat="49.42311" lon="0.27534">
        <ele>17.7</ele>
        <time>2020-06-17T15:42:17Z</time>
      </trkpt>
      <trkpt lat="49.42313" lon="0.27532">
        <ele>17.8</ele>
        <time>2020-06-17T15:42:18Z</time>
      </trkpt>
      <trkpt lat="49.42316" lon="0.27532">
        <ele>18</ele>
        <time>2020-06-17T15:42:19Z</time>
      </trkpt>
      <trkpt lat="49.42319" lon="0.27532">
        <ele>18.1</ele>
        <time>2020-06-17T15:42:20Z</time>
      </trkpt>
      <trkpt lat="49.42322" lon="0.27532">
        <ele>18.3</ele>
        <time>2020-06-17T15:42:21Z</time>
      </trkpt>
      <trkpt lat="49.42325" lon="0.2753">
        <ele>18.5</ele>
        <time>2020-06-17T15:42:22Z</time>
      </trkpt>
      <trkpt lat="49.42328" lon="0.2753">
        <ele>18.7</ele>
        <time>2020-06-17T15:42:23Z</time>
      </trkpt>
      <trkpt lat="49.42331" lon="0.27529">
        <ele>18.8</ele>
        <time>2020-06-17T15:42:24Z</time>
      </trkpt>
      <trkpt lat="49.42334" lon="0.27528">
        <ele>19</ele>
        <time>2020-06-17T15:42:25Z</time>
      </trkpt>
      <trkpt lat="49.42337" lon="0.27528">
        <ele>19.2</ele>
        <time>2020-06-17T15:42:26Z</time>
      </trkpt>
      <trkpt lat="49.4234" lon="0.27528">
        <ele>19.4</ele>
        <time>2020-06-17T15:42:27Z</time>
      </trkpt>
      <trkpt lat="49.42344" lon="0.27527">
        <ele>19.7</ele>
        <time>2020-06-17T15:42:28Z</time>
      </trkpt>
      <trkpt lat="49.42346" lon="0.27527">
        <ele>19.8</ele>
        <time>2020-06-17T15:42:29Z</time>
      </trkpt>
      <trkpt lat="49.42348" lon="0.27527">
        <ele>20</ele>
        <time>2020-06-17T15:42:30Z</time>
      </trkpt>
      <trkpt lat="49.42351" lon="0.27527">
        <ele>20.3</ele>
        <time>2020-06-17T15:42:31Z</time>
      </trkpt>
      <trkpt lat="49.42355" lon="0.27526">
        <ele>20.5</ele>
        <time>2020-06-17T15:42:32Z</time>
      </trkpt>
      <trkpt lat="49.42356" lon="0.27526">
        <ele>20.6</ele>
        <time>2020-06-17T15:42:33Z</time>
      </trkpt>
      <trkpt lat="49.42359" lon="0.27526">
        <ele>20.8</ele>
        <time>2020-06-17T15:42:34Z</time>
      </trkpt>
      <trkpt lat="49.42363" lon="0.27525">
        <ele>21.1</ele>
        <time>2020-06-17T15:42:35Z</time>
      </trkpt>
      <trkpt lat="49.42365" lon="0.27525">
        <ele>21.2</ele>
        <time>2020-06-17T15:42:36Z</time>
      </trkpt>
      <trkpt lat="49.42368" lon="0.27525">
        <ele>21.4</ele>
        <time>2020-06-17T15:42:37Z</time>
      </trkpt>
      <trkpt lat="49.42371" lon="0.27524">
        <ele>21.6</ele>
        <time>2020-06-17T15:42:38Z</time>
      </trkpt>
      <trkpt lat="49.42372" lon="0.27524">
        <ele>21.7</ele>
        <time>2020-06-17T15:42:39Z</time>
      </trkpt>
      <trkpt lat="49.42375" lon="0.27524">
        <ele>21.9</ele>
        <time>2020-06-17T15:42:40Z</time>
      </trkpt>
      <trkpt lat="49.42378" lon="0.27524">
        <ele>22.1</ele>
        <time>2020-06-17T15:42:41Z</time>
      </trkpt>
      <trkpt lat="49.42381" lon="0.27524">
        <ele>22.4</ele>
        <time>2020-06-17T15:42:42Z</time>
      </trkpt>
      <trkpt lat="49.42384" lon="0.27524">
        <ele>22.6</ele>
        <time>2020-06-17T15:42:43Z</time>
      </trkpt>
      <trkpt lat="49.42388" lon="0.27523">
        <ele>22.8</ele>
        <time>2020-06-17T15:42:44Z</time>
      </trkpt>
      <trkpt lat="49.4239" lon="0.27521">
        <ele>23</ele>
        <time>2020-06-17T15:42:45Z</time>
      </trkpt>
      <trkpt lat="49.42393" lon="0.2752">
        <ele>23.2</ele>
        <time>2020-06-17T15:42:46Z</time>
      </trkpt>
      <trkpt lat="49.42395" lon="0.2752">
        <ele>23.3</ele>
        <time>2020-06-17T15:42:47Z</time>
      </trkpt>
      <trkpt lat="49.42398" lon="0.27519">
        <ele>23.5</ele>
        <time>2020-06-17T15:42:48Z</time>
      </trkpt>
      <trkpt lat="49.42399" lon="0.27519">
        <ele>23.6</ele>
        <time>2020-06-17T15:42:49Z</time>
      </trkpt>
      <trkpt lat="49.42401" lon="0.27518">
        <ele>23.7</ele>
        <time>2020-06-17T15:42:50Z</time>
      </trkpt>
      <trkpt lat="49.42405" lon="0.27518">
        <ele>24</ele>
        <time>2020-06-17T15:42:51Z</time>
      </trkpt>
      <trkpt lat="49.42408" lon="0.27518">
        <ele>24.2</ele>
        <time>2020-06-17T15:42:52Z</time>
      </trkpt>
      <trkpt lat="49.42411" lon="0.27517">
        <ele>24.4</ele>
        <time>2020-06-17T15:42:53Z</time>
      </trkpt>
      <trkpt lat="49.42414" lon="0.27516">
        <ele>24.6</ele>
        <time>2020-06-17T15:42:54Z</time>
      </trkpt>
      <trkpt lat="49.42418" lon="0.27514">
        <ele>24.8</ele>
        <time>2020-06-17T15:42:55Z</time>
      </trkpt>
      <trkpt lat="49.42419" lon="0.27514">
        <ele>24.9</ele>
        <time>2020-06-17T15:42:56Z</time>
      </trkpt>
      <trkpt lat="49.42423" lon="0.27513">
        <ele>25.2</ele>
        <time>2020-06-17T15:42:57Z</time>
      </trkpt>
      <trkpt lat="49.42425" lon="0.27512">
        <ele>25.3</ele>
        <time>2020-06-17T15:42:58Z</time>
      </trkpt>
      <trkpt lat="49.42428" lon="0.27511">
        <ele>25.5</ele>
        <time>2020-06-17T15:42:59Z</time>
      </trkpt>
      <trkpt lat="49.42432" lon="0.27511">
        <ele>25.8</ele>
        <time>2020-06-17T15:43:00Z</time>
      </trkpt>
      <trkpt lat="49.42436" lon="0.27512">
        <ele>26</ele>
        <time>2020-06-17T15:43:01Z</time>
      </trkpt>
      <trkpt lat="49.42439" lon="0.27513">
        <ele>26.3</ele>
        <time>2020-06-17T15:43:02Z</time>
      </trkpt>
      <trkpt lat="49.42443" lon="0.27513">
        <ele>26.6</ele>
        <time>2020-06-17T15:43:03Z</time>
      </trkpt>
      <trkpt lat="49.42447" lon="0.27512">
        <ele>26.8</ele>
        <time>2020-06-17T15:43:04Z</time>
      </trkpt>
      <trkpt lat="49.42451" lon="0.27512">
        <ele>27.1</ele>
        <time>2020-06-17T15:43:05Z</time>
      </trkpt>
      <trkpt lat="49.42454" lon="0.27512">
        <ele>27.3</ele>
        <time>2020-06-17T15:43:06Z</time>
      </trkpt>
      <trkpt lat="49.42458" lon="0.27511">
        <ele>27.6</ele>
        <time>2020-06-17T15:43:07Z</time>
      </trkpt>
      <trkpt lat="49.42462" lon="0.2751">
        <ele>27.8</ele>
        <time>2020-06-17T15:43:08Z</time>
      </trkpt>
      <trkpt lat="49.42465" lon="0.27509">
        <ele>28</ele>
        <time>2020-06-17T15:43:09Z</time>
      </trkpt>
      <trkpt lat="49.42468" lon="0.27509">
        <ele>28.2</ele>
        <time>2020-06-17T15:43:10Z</time>
      </trkpt>
      <trkpt lat="49.4247" lon="0.27509">
        <ele>28.3</ele>
        <time>2020-06-17T15:43:11Z</time>
      </trkpt>
      <trkpt lat="49.42473" lon="0.27509">
        <ele>28.6</ele>
        <time>2020-06-17T15:43:12Z</time>
      </trkpt>
      <trkpt lat="49.42474" lon="0.27509">
        <ele>28.6</ele>
        <time>2020-06-17T15:43:13Z</time>
      </trkpt>
      <trkpt lat="49.42477" lon="0.27509">
        <ele>28.9</ele>
        <time>2020-06-17T15:43:14Z</time>
      </trkpt>
      <trkpt lat="49.42479" lon="0.27509">
        <ele>29</ele>
        <time>2020-06-17T15:43:15Z</time>
      </trkpt>
      <trkpt lat="49.42482" lon="0.27509">
        <ele>29.1</ele>
        <time>2020-06-17T15:43:16Z</time>
      </trkpt>
      <trkpt lat="49.42485" lon="0.27509">
        <ele>29.4</ele>
        <time>2020-06-17T15:43:17Z</time>
      </trkpt>
      <trkpt lat="49.42488" lon="0.27508">
        <ele>29.6</ele>
        <time>2020-06-17T15:43:18Z</time>
      </trkpt>
      <trkpt lat="49.42491" lon="0.27507">
        <ele>29.8</ele>
        <time>2020-06-17T15:43:19Z</time>
      </trkpt>
      <trkpt lat="49.42494" lon="0.27506">
        <ele>30</ele>
        <time>2020-06-17T15:43:20Z</time>
      </trkpt>
      <trkpt lat="49.42498" lon="0.27505">
        <ele>30.3</ele>
        <time>2020-06-17T15:43:21Z</time>
      </trkpt>
      <trkpt lat="49.42502" lon="0.27506">
        <ele>30.5</ele>
        <time>2020-06-17T15:43:22Z</time>
      </trkpt>
      <trkpt lat="49.42503" lon="0.27505">
        <ele>30.6</ele>
        <time>2020-06-17T15:43:23Z</time>
      </trkpt>
      <trkpt lat="49.42506" lon="0.27506">
        <ele>30.8</ele>
        <time>2020-06-17T15:43:24Z</time>
      </trkpt>
      <trkpt lat="49.42509" lon="0.27505">
        <ele>31</ele>
        <time>2020-06-17T15:43:25Z</time>
      </trkpt>
      <trkpt lat="49.42511" lon="0.27506">
        <ele>31.1</ele>
        <time>2020-06-17T15:43:26Z</time>
      </trkpt>
      <trkpt lat="49.42515" lon="0.27506">
        <ele>31.4</ele>
        <time>2020-06-17T15:43:27Z</time>
      </trkpt>
      <trkpt lat="49.42518" lon="0.27505">
        <ele>31.6</ele>
        <time>2020-06-17T15:43:28Z</time>
      </trkpt>
      <trkpt lat="49.42522" lon="0.27505">
        <ele>31.8</ele>
        <time>2020-06-17T15:43:29Z</time>
      </trkpt>
      <trkpt lat="49.42526" lon="0.27505">
        <ele>32.2</ele>
        <time>2020-06-17T15:43:30Z</time>
      </trkpt>
      <trkpt lat="49.4253" lon="0.27504">
        <ele>32.4</ele>
        <time>2020-06-17T15:43:31Z</time>
      </trkpt>
      <trkpt lat="49.42534" lon="0.27503">
        <ele>32.7</ele>
        <time>2020-06-17T15:43:32Z</time>
      </trkpt>
      <trkpt lat="49.42537" lon="0.27503">
        <ele>32.9</ele>
        <time>2020-06-17T15:43:33Z</time>
      </trkpt>
      <trkpt lat="49.4254" lon="0.27502">
        <ele>33.1</ele>
        <time>2020-06-17T15:43:34Z</time>
      </trkpt>
      <trkpt lat="49.42542" lon="0.27502">
        <ele>33.3</ele>
        <time>2020-06-17T15:43:35Z</time>
      </trkpt>
      <trkpt lat="49.42543" lon="0.27501">
        <ele>33.4</ele>
        <time>2020-06-17T15:43:36Z</time>
      </trkpt>
      <trkpt lat="49.42546" lon="0.27502">
        <ele>33.6</ele>
        <time>2020-06-17T15:43:37Z</time>
      </trkpt>
      <trkpt lat="49.42548" lon="0.27502">
        <ele>33.7</ele>
        <time>2020-06-17T15:43:38Z</time>
      </trkpt>
      <trkpt lat="49.42551" lon="0.27501">
        <ele>33.9</ele>
        <time>2020-06-17T15:43:39Z</time>
      </trkpt>
      <trkpt lat="49.42554" lon="0.275">
        <ele>34.1</ele>
        <time>2020-06-17T15:43:40Z</time>
      </trkpt>
      <trkpt lat="49.42558" lon="0.27499">
        <ele>34.3</ele>
        <time>2020-06-17T15:43:41Z</time>
      </trkpt>
      <trkpt lat="49.4256" lon="0.27498">
        <ele>34.4</ele>
        <time>2020-06-17T15:43:42Z</time>
      </trkpt>
      <trkpt lat="49.42563" lon="0.27498">
        <ele>34.7</ele>
        <time>2020-06-17T15:43:43Z</time>
      </trkpt>
      <trkpt lat="49.42566" lon="0.27498">
        <ele>34.9</ele>
        <time>2020-06-17T15:43:44Z</time>
      </trkpt>
      <trkpt lat="49.42568" lon="0.27498">
        <ele>35</ele>
        <time>2020-06-17T15:43:45Z</time>
      </trkpt>
      <trkpt lat="49.42571" lon="0.27498">
        <ele>35.2</ele>
        <time>2020-06-17T15:43:46Z</time>
      </trkpt>
      <trkpt lat="49.42574" lon="0.27498">
        <ele>35.4</ele>
        <time>2020-06-17T15:43:47Z</time>
      </trkpt>
      <trkpt lat="49.42577" lon="0.27497">
        <ele>35.6</ele>
        <time>2020-06-17T15:43:48Z</time>
      </trkpt>
      <trkpt lat="49.4258" lon="0.27497">
        <ele>35.8</ele>
        <time>2020-06-17T15:43:49Z</time>
      </trkpt>
      <trkpt lat="49.42583" lon="0.27496">
        <ele>36</ele>
        <time>2020-06-17T15:43:50Z</time>
      </trkpt>
      <trkpt lat="49.42587" lon="0.27497">
        <ele>36.3</ele>
        <time>2020-06-17T15:43:51Z</time>
      </trkpt>
      <trkpt lat="49.42588" lon="0.27497">
        <ele>36.3</ele>
        <time>2020-06-17T15:43:52Z</time>
      </trkpt>
      <trkpt lat="49.42591" lon="0.27497">
        <ele>36.6</ele>
        <time>2020-06-17T15:43:53Z</time>
      </trkpt>
      <trkpt lat="49.42595" lon="0.27496">
        <ele>36.8</ele>
        <time>2020-06-17T15:43:54Z</time>
      </trkpt>
      <trkpt lat="49.42597" lon="0.27494">
        <ele>37</ele>
        <time>2020-06-17T15:43:55Z</time>
      </trkpt>
      <trkpt lat="49.426" lon="0.27493">
        <ele>37.2</ele>
        <time>2020-06-17T15:43:56Z</time>
      </trkpt>
      <trkpt lat="49.42604" lon="0.27493">
        <ele>37.5</ele>
        <time>2020-06-17T15:43:57Z</time>
      </trkpt>
      <trkpt lat="49.42605" lon="0.27492">
        <ele>37.6</ele>
        <time>2020-06-17T15:43:58Z</time>
      </trkpt>
      <trkpt lat="49.42608" lon="0.27493">
        <ele>37.8</ele>
        <time>2020-06-17T15:43:59Z</time>
      </trkpt>
      <trkpt lat="49.42609" lon="0.27492">
        <ele>37.9</ele>
        <time>2020-06-17T15:44:00Z</time>
      </trkpt>
      <trkpt lat="49.42613" lon="0.27493">
        <ele>38.1</ele>
        <time>2020-06-17T15:44:01Z</time>
      </trkpt>
      <trkpt lat="49.42614" lon="0.27493">
        <ele>38.2</ele>
        <time>2020-06-17T15:44:02Z</time>
      </trkpt>
      <trkpt lat="49.42616" lon="0.27493">
        <ele>38.3</ele>
        <time>2020-06-17T15:44:03Z</time>
      </trkpt>
      <trkpt lat="49.4262" lon="0.27493">
        <ele>38.6</ele>
        <time>2020-06-17T15:44:04Z</time>
      </trkpt>
      <trkpt lat="49.42622" lon="0.27492">
        <ele>38.7</ele>
        <time>2020-06-17T15:44:05Z</time>
      </trkpt>
      <trkpt lat="49.42625" lon="0.27492">
        <ele>38.9</ele>
        <time>2020-06-17T15:44:06Z</time>
      </trkpt>
      <trkpt lat="49.42628" lon="0.27492">
        <ele>39.1</ele>
        <time>2020-06-17T15:44:07Z</time>
      </trkpt>
      <trkpt lat="49.42629" lon="0.27492">
        <ele>39.2</ele>
        <time>2020-06-17T15:44:08Z</time>
      </trkpt>
      <trkpt lat="49.42633" lon="0.27491">
        <ele>39.4</ele>
        <time>2020-06-17T15:44:09Z</time>
      </trkpt>
      <trkpt lat="49.42635" lon="0.27491">
        <ele>39.5</ele>
        <time>2020-06-17T15:44:10Z</time>
      </trkpt>
      <trkpt lat="49.42639" lon="0.27491">
        <ele>39.8</ele>
        <time>2020-06-17T15:44:11Z</time>
      </trkpt>
      <trkpt lat="49.4264" lon="0.27491">
        <ele>39.9</ele>
        <time>2020-06-17T15:44:12Z</time>
      </trkpt>
      <trkpt lat="49.42643" lon="0.27491">
        <ele>40.1</ele>
        <time>2020-06-17T15:44:13Z</time>
      </trkpt>
      <trkpt lat="49.42646" lon="0.2749">
        <ele>40.3</ele>
        <time>2020-06-17T15:44:14Z</time>
      </trkpt>
      <trkpt lat="49.4265" lon="0.2749">
        <ele>40.6</ele>
        <time>2020-06-17T15:44:15Z</time>
      </trkpt>
      <trkpt lat="49.42652" lon="0.2749">
        <ele>40.7</ele>
        <time>2020-06-17T15:44:16Z</time>
      </trkpt>
      <trkpt lat="49.42654" lon="0.27489">
        <ele>40.9</ele>
        <time>2020-06-17T15:44:17Z</time>
      </trkpt>
      <trkpt lat="49.42657" lon="0.27488">
        <ele>41.1</ele>
        <time>2020-06-17T15:44:18Z</time>
      </trkpt>
      <trkpt lat="49.42661" lon="0.27487">
        <ele>41.3</ele>
        <time>2020-06-17T15:44:19Z</time>
      </trkpt>
      <trkpt lat="49.42662" lon="0.27487">
        <ele>41.4</ele>
        <time>2020-06-17T15:44:20Z</time>
      </trkpt>
      <trkpt lat="49.42666" lon="0.27487">
        <ele>41.6</ele>
        <time>2020-06-17T15:44:21Z</time>
      </trkpt>
      <trkpt lat="49.42667" lon="0.27487">
        <ele>41.7</ele>
        <time>2020-06-17T15:44:22Z</time>
      </trkpt>
      <trkpt lat="49.42671" lon="0.27486">
        <ele>42</ele>
        <time>2020-06-17T15:44:23Z</time>
      </trkpt>
      <trkpt lat="49.42673" lon="0.27486">
        <ele>42.1</ele>
        <time>2020-06-17T15:44:24Z</time>
      </trkpt>
      <trkpt lat="49.42676" lon="0.27486">
        <ele>42.3</ele>
        <time>2020-06-17T15:44:25Z</time>
      </trkpt>
      <trkpt lat="49.42679" lon="0.27486">
        <ele>42.5</ele>
        <time>2020-06-17T15:44:26Z</time>
      </trkpt>
      <trkpt lat="49.42681" lon="0.27486">
        <ele>42.6</ele>
        <time>2020-06-17T15:44:27Z</time>
      </trkpt>
      <trkpt lat="49.42684" lon="0.27486">
        <ele>42.8</ele>
        <time>2020-06-17T15:44:28Z</time>
      </trkpt>
      <trkpt lat="49.42686" lon="0.27486">
        <ele>42.9</ele>
        <time>2020-06-17T15:44:29Z</time>
      </trkpt>
      <trkpt lat="49.42689" lon="0.27485">
        <ele>43.2</ele>
        <time>2020-06-17T15:44:30Z</time>
      </trkpt>
      <trkpt lat="49.4269" lon="0.27485">
        <ele>43.3</ele>
        <time>2020-06-17T15:44:31Z</time>
      </trkpt>
      <trkpt lat="49.42694" lon="0.27486">
        <ele>43.5</ele>
        <time>2020-06-17T15:44:32Z</time>
      </trkpt>
      <trkpt lat="49.42697" lon="0.27485">
        <ele>43.7</ele>
        <time>2020-06-17T15:44:33Z</time>
      </trkpt>
      <trkpt lat="49.42699" lon="0.27483">
        <ele>43.9</ele>
        <time>2020-06-17T15:44:34Z</time>
      </trkpt>
      <trkpt lat="49.42703" lon="0.27483">
        <ele>44.1</ele>
        <time>2020-06-17T15:44:35Z</time>
      </trkpt>
      <trkpt lat="49.42704" lon="0.27482">
        <ele>44.2</ele>
        <time>2020-06-17T15:44:36Z</time>
      </trkpt>
      <trkpt lat="49.42708" lon="0.27481">
        <ele>44.5</ele>
        <time>2020-06-17T15:44:37Z</time>
      </trkpt>
      <trkpt lat="49.42709" lon="0.27481">
        <ele>44.6</ele>
        <time>2020-06-17T15:44:38Z</time>
      </trkpt>
      <trkpt lat="49.42712" lon="0.2748">
        <ele>44.8</ele>
        <time>2020-06-17T15:44:39Z</time>
      </trkpt>
      <trkpt lat="49.42713" lon="0.2748">
        <ele>44.9</ele>
        <time>2020-06-17T15:44:40Z</time>
      </trkpt>
      <trkpt lat="49.42718" lon="0.27479">
        <ele>45.2</ele>
        <time>2020-06-17T15:44:41Z</time>
      </trkpt>
      <trkpt lat="49.4272" lon="0.27479">
        <ele>45.3</ele>
        <time>2020-06-17T15:44:42Z</time>
      </trkpt>
      <trkpt lat="49.42723" lon="0.27479">
        <ele>45.5</ele>
        <time>2020-06-17T15:44:43Z</time>
      </trkpt>
      <trkpt lat="49.42727" lon="0.27479">
        <ele>45.7</ele>
        <time>2020-06-17T15:44:44Z</time>
      </trkpt>
      <trkpt lat="49.42728" lon="0.27479">
        <ele>45.9</ele>
        <time>2020-06-17T15:44:45Z</time>
      </trkpt>
      <trkpt lat="49.42732" lon="0.27478">
        <ele>46.1</ele>
        <time>2020-06-17T15:44:46Z</time>
      </trkpt>
      <trkpt lat="49.42734" lon="0.27478">
        <ele>46.2</ele>
        <time>2020-06-17T15:44:47Z</time>
      </trkpt>
      <trkpt lat="49.42737" lon="0.27477">
        <ele>46.4</ele>
        <time>2020-06-17T15:44:48Z</time>
      </trkpt>
      <trkpt lat="49.4274" lon="0.27476">
        <ele>46.6</ele>
        <time>2020-06-17T15:44:49Z</time>
      </trkpt>
      <trkpt lat="49.42741" lon="0.27476">
        <ele>46.7</ele>
        <time>2020-06-17T15:44:50Z</time>
      </trkpt>
      <trkpt lat="49.42742" lon="0.27476">
        <ele>46.8</ele>
        <time>2020-06-17T15:44:51Z</time>
      </trkpt>
      <trkpt lat="49.42744" lon="0.27475">
        <ele>46.9</ele>
        <time>2020-06-17T15:44:52Z</time>
      </trkpt>
      <trkpt lat="49.42746" lon="0.27475">
        <ele>47</ele>
        <time>2020-06-17T15:44:53Z</time>
      </trkpt>
      <trkpt lat="49.42748" lon="0.27475">
        <ele>47.2</ele>
        <time>2020-06-17T15:44:54Z</time>
      </trkpt>
      <trkpt lat="49.42751" lon="0.27474">
        <ele>47.4</ele>
        <time>2020-06-17T15:44:55Z</time>
      </trkpt>
      <trkpt lat="49.42753" lon="0.27474">
        <ele>47.5</ele>
        <time>2020-06-17T15:44:56Z</time>
      </trkpt>
      <trkpt lat="49.42757" lon="0.27473">
        <ele>47.8</ele>
        <time>2020-06-17T15:44:57Z</time>
      </trkpt>
      <trkpt lat="49.42758" lon="0.27473">
        <ele>47.9</ele>
        <time>2020-06-17T15:44:58Z</time>
      </trkpt>
      <trkpt lat="49.42762" lon="0.27471">
        <ele>48.1</ele>
        <time>2020-06-17T15:44:59Z</time>
      </trkpt>
      <trkpt lat="49.42765" lon="0.27471">
        <ele>48.4</ele>
        <time>2020-06-17T15:45:00Z</time>
      </trkpt>
      <trkpt lat="49.42768" lon="0.27469">
        <ele>48.5</ele>
        <time>2020-06-17T15:45:01Z</time>
      </trkpt>
      <trkpt lat="49.4277" lon="0.27467">
        <ele>48.7</ele>
        <time>2020-06-17T15:45:02Z</time>
      </trkpt>
      <trkpt lat="49.42773" lon="0.27467">
        <ele>48.9</ele>
        <time>2020-06-17T15:45:03Z</time>
      </trkpt>
      <trkpt lat="49.42774" lon="0.27467">
        <ele>48.9</ele>
        <time>2020-06-17T15:45:04Z</time>
      </trkpt>
      <trkpt lat="49.42777" lon="0.27466">
        <ele>49.1</ele>
        <time>2020-06-17T15:45:05Z</time>
      </trkpt>
      <trkpt lat="49.42778" lon="0.27466">
        <ele>49.2</ele>
        <time>2020-06-17T15:45:06Z</time>
      </trkpt>
      <trkpt lat="49.42782" lon="0.27466">
        <ele>49.4</ele>
        <time>2020-06-17T15:45:07Z</time>
      </trkpt>
      <trkpt lat="49.42783" lon="0.27465">
        <ele>49.5</ele>
        <time>2020-06-17T15:45:08Z</time>
      </trkpt>
      <trkpt lat="49.42786" lon="0.27466">
        <ele>49.7</ele>
        <time>2020-06-17T15:45:09Z</time>
      </trkpt>
      <trkpt lat="49.4279" lon="0.27466">
        <ele>50</ele>
        <time>2020-06-17T15:45:10Z</time>
      </trkpt>
      <trkpt lat="49.42792" lon="0.27466">
        <ele>50.1</ele>
        <time>2020-06-17T15:45:11Z</time>
      </trkpt>
      <trkpt lat="49.42793" lon="0.27465">
        <ele>50.2</ele>
        <time>2020-06-17T15:45:12Z</time>
      </trkpt>
      <trkpt lat="49.42794" lon="0.27464">
        <ele>50.3</ele>
        <time>2020-06-17T15:45:13Z</time>
      </trkpt>
      <trkpt lat="49.42795" lon="0.27464">
        <ele>50.3</ele>
        <time>2020-06-17T15:45:14Z</time>
      </trkpt>
      <trkpt lat="49.42798" lon="0.27463">
        <ele>50.5</ele>
        <time>2020-06-17T15:45:15Z</time>
      </trkpt>
      <trkpt lat="49.42801" lon="0.27464">
        <ele>50.8</ele>
        <time>2020-06-17T15:45:16Z</time>
      </trkpt>
      <trkpt lat="49.42804" lon="0.27464">
        <ele>51</ele>
        <time>2020-06-17T15:45:17Z</time>
      </trkpt>
      <trkpt lat="49.42807" lon="0.27463">
        <ele>51.2</ele>
        <time>2020-06-17T15:45:18Z</time>
      </trkpt>
      <trkpt lat="49.42811" lon="0.27463">
        <ele>51.5</ele>
        <time>2020-06-17T15:45:19Z</time>
      </trkpt>
      <trkpt lat="49.42812" lon="0.27462">
        <ele>51.6</ele>
        <time>2020-06-17T15:45:20Z</time>
      </trkpt>
      <trkpt lat="49.42816" lon="0.27462">
        <ele>51.8</ele>
        <time>2020-06-17T15:45:21Z</time>
      </trkpt>
      <trkpt lat="49.42817" lon="0.27461">
        <ele>51.9</ele>
        <time>2020-06-17T15:45:22Z</time>
      </trkpt>
      <trkpt lat="49.4282" lon="0.2746">
        <ele>52.1</ele>
        <time>2020-06-17T15:45:23Z</time>
      </trkpt>
      <trkpt lat="49.42821" lon="0.2746">
        <ele>52.2</ele>
        <time>2020-06-17T15:45:24Z</time>
      </trkpt>
      <trkpt lat="49.42824" lon="0.2746">
        <ele>52.4</ele>
        <time>2020-06-17T15:45:25Z</time>
      </trkpt>
      <trkpt lat="49.42825" lon="0.2746">
        <ele>52.5</ele>
        <time>2020-06-17T15:45:26Z</time>
      </trkpt>
      <trkpt lat="49.42827" lon="0.27459">
        <ele>52.6</ele>
        <time>2020-06-17T15:45:27Z</time>
      </trkpt>
      <trkpt lat="49.42828" lon="0.27459">
        <ele>52.7</ele>
        <time>2020-06-17T15:45:28Z</time>
      </trkpt>
      <trkpt lat="49.42832" lon="0.27459">
        <ele>52.9</ele>
        <time>2020-06-17T15:45:29Z</time>
      </trkpt>
      <trkpt lat="49.42833" lon="0.27459">
        <ele>53</ele>
        <time>2020-06-17T15:45:30Z</time>
      </trkpt>
      <trkpt lat="49.42837" lon="0.27458">
        <ele>53.3</ele>
        <time>2020-06-17T15:45:31Z</time>
      </trkpt>
      <trkpt lat="49.42838" lon="0.27458">
        <ele>53.4</ele>
        <time>2020-06-17T15:45:32Z</time>
      </trkpt>
      <trkpt lat="49.42842" lon="0.27459">
        <ele>53.7</ele>
        <time>2020-06-17T15:45:33Z</time>
      </trkpt>
      <trkpt lat="49.42844" lon="0.27461">
        <ele>53.9</ele>
        <time>2020-06-17T15:45:34Z</time>
      </trkpt>
      <trkpt lat="49.42847" lon="0.27463">
        <ele>54.1</ele>
        <time>2020-06-17T15:45:35Z</time>
      </trkpt>
      <trkpt lat="49.42849" lon="0.27463">
        <ele>54.2</ele>
        <time>2020-06-17T15:45:36Z</time>
      </trkpt>
      <trkpt lat="49.42852" lon="0.27461">
        <ele>54.5</ele>
        <time>2020-06-17T15:45:37Z</time>
      </trkpt>
      <trkpt lat="49.42853" lon="0.2746">
        <ele>54.6</ele>
        <time>2020-06-17T15:45:38Z</time>
      </trkpt>
      <trkpt lat="49.42857" lon="0.27456">
        <ele>54.9</ele>
        <time>2020-06-17T15:45:39Z</time>
      </trkpt>
      <trkpt lat="49.42861" lon="0.27455">
        <ele>55.1</ele>
        <time>2020-06-17T15:45:40Z</time>
      </trkpt>
      <trkpt lat="49.42862" lon="0.27455">
        <ele>55.1</ele>
        <time>2020-06-17T15:45:41Z</time>
      </trkpt>
      <trkpt lat="49.42863" lon="0.27454">
        <ele>55.2</ele>
        <time>2020-06-17T15:45:42Z</time>
      </trkpt>
      <trkpt lat="49.42865" lon="0.27453">
        <ele>55.3</ele>
        <time>2020-06-17T15:45:43Z</time>
      </trkpt>
      <trkpt lat="49.42867" lon="0.27451">
        <ele>55.5</ele>
        <time>2020-06-17T15:45:44Z</time>
      </trkpt>
      <trkpt lat="49.42868" lon="0.27451">
        <ele>55.5</ele>
        <time>2020-06-17T15:45:45Z</time>
      </trkpt>
      <trkpt lat="49.42871" lon="0.27451">
        <ele>55.7</ele>
        <time>2020-06-17T15:45:46Z</time>
      </trkpt>
      <trkpt lat="49.42874" lon="0.27453">
        <ele>55.9</ele>
        <time>2020-06-17T15:45:47Z</time>
      </trkpt>
      <trkpt lat="49.42877" lon="0.27453">
        <ele>56</ele>
        <time>2020-06-17T15:45:48Z</time>
      </trkpt>
      <trkpt lat="49.4288" lon="0.27453">
        <ele>56.2</ele>
        <time>2020-06-17T15:45:49Z</time>
      </trkpt>
      <trkpt lat="49.42885" lon="0.27453">
        <ele>56.5</ele>
        <time>2020-06-17T15:45:50Z</time>
      </trkpt>
      <trkpt lat="49.42886" lon="0.27452">
        <ele>56.6</ele>
        <time>2020-06-17T15:45:51Z</time>
      </trkpt>
      <trkpt lat="49.42889" lon="0.27449">
        <ele>56.8</ele>
        <time>2020-06-17T15:45:52Z</time>
      </trkpt>
      <trkpt lat="49.42892" lon="0.2745">
        <ele>57</ele>
        <time>2020-06-17T15:45:53Z</time>
      </trkpt>
      <trkpt lat="49.42893" lon="0.2745">
        <ele>57</ele>
        <time>2020-06-17T15:45:54Z</time>
      </trkpt>
      <trkpt lat="49.42896" lon="0.27451">
        <ele>57.2</ele>
        <time>2020-06-17T15:45:55Z</time>
      </trkpt>
      <trkpt lat="49.42897" lon="0.27451">
        <ele>57.3</ele>
        <time>2020-06-17T15:45:56Z</time>
      </trkpt>
      <trkpt lat="49.429" lon="0.2745">
        <ele>57.4</ele>
        <time>2020-06-17T15:45:57Z</time>
      </trkpt>
      <trkpt lat="49.42901" lon="0.27449">
        <ele>57.5</ele>
        <time>2020-06-17T15:45:58Z</time>
      </trkpt>
      <trkpt lat="49.42904" lon="0.2745">
        <ele>57.7</ele>
        <time>2020-06-17T15:45:59Z</time>
      </trkpt>
      <trkpt lat="49.42909" lon="0.27451">
        <ele>58</ele>
        <time>2020-06-17T15:46:00Z</time>
      </trkpt>
      <trkpt lat="49.42912" lon="0.2745">
        <ele>58.1</ele>
        <time>2020-06-17T15:46:01Z</time>
      </trkpt>
      <trkpt lat="49.42916" lon="0.27451">
        <ele>58.3</ele>
        <time>2020-06-17T15:46:02Z</time>
      </trkpt>
      <trkpt lat="49.42917" lon="0.27449">
        <ele>58.4</ele>
        <time>2020-06-17T15:46:03Z</time>
      </trkpt>
      <trkpt lat="49.42919" lon="0.27449">
        <ele>58.5</ele>
        <time>2020-06-17T15:46:04Z</time>
      </trkpt>
      <trkpt lat="49.42922" lon="0.2745">
        <ele>58.7</ele>
        <time>2020-06-17T15:46:05Z</time>
      </trkpt>
      <trkpt lat="49.42923" lon="0.2745">
        <ele>58.7</ele>
        <time>2020-06-17T15:46:06Z</time>
      </trkpt>
      <trkpt lat="49.42928" lon="0.27449">
        <ele>58.9</ele>
        <time>2020-06-17T15:46:07Z</time>
      </trkpt>
      <trkpt lat="49.42929" lon="0.27448">
        <ele>59</ele>
        <time>2020-06-17T15:46:08Z</time>
      </trkpt>
      <trkpt lat="49.42933" lon="0.27446">
        <ele>59.2</ele>
        <time>2020-06-17T15:46:09Z</time>
      </trkpt>
      <trkpt lat="49.42936" lon="0.27444">
        <ele>59.3</ele>
        <time>2020-06-17T15:46:10Z</time>
      </trkpt>
      <trkpt lat="49.42939" lon="0.27445">
        <ele>59.4</ele>
        <time>2020-06-17T15:46:11Z</time>
      </trkpt>
      <trkpt lat="49.42942" lon="0.27446">
        <ele>59.6</ele>
        <time>2020-06-17T15:46:12Z</time>
      </trkpt>
      <trkpt lat="49.42944" lon="0.27446">
        <ele>59.7</ele>
        <time>2020-06-17T15:46:13Z</time>
      </trkpt>
      <trkpt lat="49.42946" lon="0.27446">
        <ele>59.7</ele>
        <time>2020-06-17T15:46:14Z</time>
      </trkpt>
      <trkpt lat="49.42949" lon="0.27445">
        <ele>59.9</ele>
        <time>2020-06-17T15:46:15Z</time>
      </trkpt>
      <trkpt lat="49.4295" lon="0.27445">
        <ele>59.9</ele>
        <time>2020-06-17T15:46:16Z</time>
      </trkpt>
      <trkpt lat="49.42953" lon="0.27445">
        <ele>60</ele>
        <time>2020-06-17T15:46:17Z</time>
      </trkpt>
      <trkpt lat="49.42956" lon="0.27444">
        <ele>60.2</ele>
        <time>2020-06-17T15:46:18Z</time>
      </trkpt>
      <trkpt lat="49.42959" lon="0.27444">
        <ele>60.3</ele>
        <time>2020-06-17T15:46:19Z</time>
      </trkpt>
      <trkpt lat="49.42962" lon="0.27441">
        <ele>60.4</ele>
        <time>2020-06-17T15:46:20Z</time>
      </trkpt>
      <trkpt lat="49.42966" lon="0.27442">
        <ele>60.6</ele>
        <time>2020-06-17T15:46:21Z</time>
      </trkpt>
      <trkpt lat="49.42969" lon="0.27441">
        <ele>60.7</ele>
        <time>2020-06-17T15:46:22Z</time>
      </trkpt>
      <trkpt lat="49.42972" lon="0.27443">
        <ele>60.8</ele>
        <time>2020-06-17T15:46:23Z</time>
      </trkpt>
      <trkpt lat="49.42975" lon="0.27442">
        <ele>61</ele>
        <time>2020-06-17T15:46:24Z</time>
      </trkpt>
      <trkpt lat="49.42976" lon="0.27441">
        <ele>61</ele>
        <time>2020-06-17T15:46:25Z</time>
      </trkpt>
      <trkpt lat="49.42979" lon="0.27442">
        <ele>61.2</ele>
        <time>2020-06-17T15:46:26Z</time>
      </trkpt>
      <trkpt lat="49.42982" lon="0.27442">
        <ele>61.3</ele>
        <time>2020-06-17T15:46:27Z</time>
      </trkpt>
      <trkpt lat="49.42985" lon="0.27441">
        <ele>61.4</ele>
        <time>2020-06-17T15:46:28Z</time>
      </trkpt>
      <trkpt lat="49.42989" lon="0.2744">
        <ele>61.6</ele>
        <time>2020-06-17T15:46:29Z</time>
      </trkpt>
      <trkpt lat="49.42991" lon="0.2744">
        <ele>61.6</ele>
        <time>2020-06-17T15:46:30Z</time>
      </trkpt>
      <trkpt lat="49.42994" lon="0.27439">
        <ele>61.8</ele>
        <time>2020-06-17T15:46:31Z</time>
      </trkpt>
      <trkpt lat="49.42997" lon="0.27439">
        <ele>61.9</ele>
        <time>2020-06-17T15:46:32Z</time>
      </trkpt>
      <trkpt lat="49.43" lon="0.2744">
        <ele>62</ele>
        <time>2020-06-17T15:46:33Z</time>
      </trkpt>
      <trkpt lat="49.43003" lon="0.27439">
        <ele>62.1</ele>
        <time>2020-06-17T15:46:34Z</time>
      </trkpt>
      <trkpt lat="49.43006" lon="0.27437">
        <ele>62.3</ele>
        <time>2020-06-17T15:46:35Z</time>
      </trkpt>
      <trkpt lat="49.43007" lon="0.27436">
        <ele>62.3</ele>
        <time>2020-06-17T15:46:36Z</time>
      </trkpt>
      <trkpt lat="49.43011" lon="0.27434">
        <ele>62.5</ele>
        <time>2020-06-17T15:46:37Z</time>
      </trkpt>
      <trkpt lat="49.43012" lon="0.27434">
        <ele>62.5</ele>
        <time>2020-06-17T15:46:38Z</time>
      </trkpt>
      <trkpt lat="49.43016" lon="0.27433">
        <ele>62.7</ele>
        <time>2020-06-17T15:46:39Z</time>
      </trkpt>
      <trkpt lat="49.43017" lon="0.27432">
        <ele>62.7</ele>
        <time>2020-06-17T15:46:40Z</time>
      </trkpt>
      <trkpt lat="49.43021" lon="0.27431">
        <ele>62.9</ele>
        <time>2020-06-17T15:46:41Z</time>
      </trkpt>
      <trkpt lat="49.43024" lon="0.2743">
        <ele>63</ele>
        <time>2020-06-17T15:46:42Z</time>
      </trkpt>
      <trkpt lat="49.43027" lon="0.2743">
        <ele>63.1</ele>
        <time>2020-06-17T15:46:43Z</time>
      </trkpt>
      <trkpt lat="49.43032" lon="0.27429">
        <ele>63.3</ele>
        <time>2020-06-17T15:46:44Z</time>
      </trkpt>
      <trkpt lat="49.43033" lon="0.27428">
        <ele>63.3</ele>
        <time>2020-06-17T15:46:45Z</time>
      </trkpt>
      <trkpt lat="49.43038" lon="0.27428">
        <ele>63.5</ele>
        <time>2020-06-17T15:46:46Z</time>
      </trkpt>
      <trkpt lat="49.43039" lon="0.27428">
        <ele>63.5</ele>
        <time>2020-06-17T15:46:47Z</time>
      </trkpt>
      <trkpt lat="49.43044" lon="0.2743">
        <ele>63.7</ele>
        <time>2020-06-17T15:46:48Z</time>
      </trkpt>
      <trkpt lat="49.43047" lon="0.27432">
        <ele>63.8</ele>
        <time>2020-06-17T15:46:49Z</time>
      </trkpt>
      <trkpt lat="49.43051" lon="0.27431">
        <ele>63.9</ele>
        <time>2020-06-17T15:46:50Z</time>
      </trkpt>
      <trkpt lat="49.43055" lon="0.2743">
        <ele>64</ele>
        <time>2020-06-17T15:46:51Z</time>
      </trkpt>
      <trkpt lat="49.43057" lon="0.27429">
        <ele>64</ele>
        <time>2020-06-17T15:46:52Z</time>
      </trkpt>
      <trkpt lat="49.4306" lon="0.2743">
        <ele>64.1</ele>
        <time>2020-06-17T15:46:53Z</time>
      </trkpt>
      <trkpt lat="49.43065" lon="0.2743">
        <ele>64.3</ele>
        <time>2020-06-17T15:46:54Z</time>
      </trkpt>
      <trkpt lat="49.43068" lon="0.2743">
        <ele>64.4</ele>
        <time>2020-06-17T15:46:55Z</time>
      </trkpt>
      <trkpt lat="49.43072" lon="0.27428">
        <ele>64.5</ele>
        <time>2020-06-17T15:46:56Z</time>
      </trkpt>
      <trkpt lat="49.43073" lon="0.27428">
        <ele>64.5</ele>
        <time>2020-06-17T15:46:57Z</time>
      </trkpt>
      <trkpt lat="49.43076" lon="0.27428">
        <ele>64.6</ele>
        <time>2020-06-17T15:46:58Z</time>
      </trkpt>
      <trkpt lat="49.43078" lon="0.27425">
        <ele>64.7</ele>
        <time>2020-06-17T15:46:59Z</time>
      </trkpt>
      <trkpt lat="49.43081" lon="0.27424">
        <ele>64.7</ele>
        <time>2020-06-17T15:47:00Z</time>
      </trkpt>
      <trkpt lat="49.43085" lon="0.27424">
        <ele>64.8</ele>
        <time>2020-06-17T15:47:01Z</time>
      </trkpt>
      <trkpt lat="49.43088" lon="0.27423">
        <ele>64.9</ele>
        <time>2020-06-17T15:47:02Z</time>
      </trkpt>
      <trkpt lat="49.43092" lon="0.27423">
        <ele>65</ele>
        <time>2020-06-17T15:47:03Z</time>
      </trkpt>
      <trkpt lat="49.43097" lon="0.27422">
        <ele>65.2</ele>
        <time>2020-06-17T15:47:04Z</time>
      </trkpt>
      <trkpt lat="49.43101" lon="0.27421">
        <ele>65.3</ele>
        <time>2020-06-17T15:47:05Z</time>
      </trkpt>
      <trkpt lat="49.43105" lon="0.27421">
        <ele>65.3</ele>
        <time>2020-06-17T15:47:06Z</time>
      </trkpt>
      <trkpt lat="49.43108" lon="0.27421">
        <ele>65.4</ele>
        <time>2020-06-17T15:47:07Z</time>
      </trkpt>
      <trkpt lat="49.43111" lon="0.2742">
        <ele>65.5</ele>
        <time>2020-06-17T15:47:08Z</time>
      </trkpt>
      <trkpt lat="49.43114" lon="0.27418">
        <ele>65.5</ele>
        <time>2020-06-17T15:47:09Z</time>
      </trkpt>
      <trkpt lat="49.43116" lon="0.27418">
        <ele>65.6</ele>
        <time>2020-06-17T15:47:10Z</time>
      </trkpt>
      <trkpt lat="49.43118" lon="0.27418">
        <ele>65.6</ele>
        <time>2020-06-17T15:47:11Z</time>
      </trkpt>
      <trkpt lat="49.43122" lon="0.27416">
        <ele>65.7</ele>
        <time>2020-06-17T15:47:12Z</time>
      </trkpt>
      <trkpt lat="49.43125" lon="0.27414">
        <ele>65.7</ele>
        <time>2020-06-17T15:47:13Z</time>
      </trkpt>
      <trkpt lat="49.43129" lon="0.27414">
        <ele>65.8</ele>
        <time>2020-06-17T15:47:14Z</time>
      </trkpt>
      <trkpt lat="49.4313" lon="0.27414">
        <ele>65.8</ele>
        <time>2020-06-17T15:47:15Z</time>
      </trkpt>
      <trkpt lat="49.43133" lon="0.27415">
        <ele>65.9</ele>
        <time>2020-06-17T15:47:16Z</time>
      </trkpt>
      <trkpt lat="49.43138" lon="0.27414">
        <ele>65.9</ele>
        <time>2020-06-17T15:47:17Z</time>
      </trkpt>
      <trkpt lat="49.43141" lon="0.27412">
        <ele>66</ele>
        <time>2020-06-17T15:47:18Z</time>
      </trkpt>
      <trkpt lat="49.43145" lon="0.27413">
        <ele>66</ele>
        <time>2020-06-17T15:47:19Z</time>
      </trkpt>
      <trkpt lat="49.43148" lon="0.27412">
        <ele>66.1</ele>
        <time>2020-06-17T15:47:20Z</time>
      </trkpt>
      <trkpt lat="49.43149" lon="0.27412">
        <ele>66.1</ele>
        <time>2020-06-17T15:47:21Z</time>
      </trkpt>
      <trkpt lat="49.43153" lon="0.27413">
        <ele>66.2</ele>
        <time>2020-06-17T15:47:22Z</time>
      </trkpt>
      <trkpt lat="49.43154" lon="0.27413">
        <ele>66.2</ele>
        <time>2020-06-17T15:47:23Z</time>
      </trkpt>
      <trkpt lat="49.43157" lon="0.27412">
        <ele>66.2</ele>
        <time>2020-06-17T15:47:24Z</time>
      </trkpt>
      <trkpt lat="49.43161" lon="0.27411">
        <ele>66.3</ele>
        <time>2020-06-17T15:47:25Z</time>
      </trkpt>
      <trkpt lat="49.43162" lon="0.27411">
        <ele>66.3</ele>
        <time>2020-06-17T15:47:26Z</time>
      </trkpt>
      <trkpt lat="49.43165" lon="0.2741">
        <ele>66.3</ele>
        <time>2020-06-17T15:47:27Z</time>
      </trkpt>
      <trkpt lat="49.43168" lon="0.2741">
        <ele>66.3</ele>
        <time>2020-06-17T15:47:28Z</time>
      </trkpt>
      <trkpt lat="49.4317" lon="0.27411">
        <ele>66.4</ele>
        <time>2020-06-17T15:47:29Z</time>
      </trkpt>
      <trkpt lat="49.43173" lon="0.27412">
        <ele>66.4</ele>
        <time>2020-06-17T15:47:30Z</time>
      </trkpt>
      <trkpt lat="49.43177" lon="0.27412">
        <ele>66.4</ele>
        <time>2020-06-17T15:47:31Z</time>
      </trkpt>
      <trkpt lat="49.4318" lon="0.27412">
        <ele>66.5</ele>
        <time>2020-06-17T15:47:32Z</time>
      </trkpt>
      <trkpt lat="49.43184" lon="0.27412">
        <ele>66.5</ele>
        <time>2020-06-17T15:47:33Z</time>
      </trkpt>
      <trkpt lat="49.43188" lon="0.2741">
        <ele>66.5</ele>
        <time>2020-06-17T15:47:34Z</time>
      </trkpt>
      <trkpt lat="49.43189" lon="0.2741">
        <ele>66.5</ele>
        <time>2020-06-17T15:47:35Z</time>
      </trkpt>
      <trkpt lat="49.43192" lon="0.2741">
        <ele>66.5</ele>
        <time>2020-06-17T15:47:36Z</time>
      </trkpt>
      <trkpt lat="49.43196" lon="0.27411">
        <ele>66.5</ele>
        <time>2020-06-17T15:47:37Z</time>
      </trkpt>
      <trkpt lat="49.43199" lon="0.27411">
        <ele>66.5</ele>
        <time>2020-06-17T15:47:38Z</time>
      </trkpt>
      <trkpt lat="49.43202" lon="0.27412">
        <ele>66.5</ele>
        <time>2020-06-17T15:47:39Z</time>
      </trkpt>
      <trkpt lat="49.43204" lon="0.27411">
        <ele>66.5</ele>
        <time>2020-06-17T15:47:40Z</time>
      </trkpt>
      <trkpt lat="49.43208" lon="0.27411">
        <ele>66.5</ele>
        <time>2020-06-17T15:47:41Z</time>
      </trkpt>
      <trkpt lat="49.43209" lon="0.2741">
        <ele>66.5</ele>
        <time>2020-06-17T15:47:42Z</time>
      </trkpt>
      <trkpt lat="49.43212" lon="0.2741">
        <ele>66.5</ele>
        <time>2020-06-17T15:47:43Z</time>
      </trkpt>
      <trkpt lat="49.43213" lon="0.27409">
        <ele>66.5</ele>
        <time>2020-06-17T15:47:44Z</time>
      </trkpt>
      <trkpt lat="49.43213" lon="0.2741">
        <ele>66.5</ele>
        <time>2020-06-17T15:47:45Z</time>
      </trkpt>
      <trkpt lat="49.43213" lon="0.27412">
        <ele>66.5</ele>
        <time>2020-06-17T15:47:46Z</time>
      </trkpt>
      <trkpt lat="49.43213" lon="0.27411">
        <ele>66.5</ele>
        <time>2020-06-17T15:47:47Z</time>
      </trkpt>
      <trkpt lat="49.43214" lon="0.2741">
        <ele>66.5</ele>
        <time>2020-06-17T15:47:48Z</time>
      </trkpt>
      <trkpt lat="49.43214" lon="0.2741">
        <ele>66.5</ele>
        <time>2020-06-17T15:47:49Z</time>
      </trkpt>
      <trkpt lat="49.43213" lon="0.2741">
        <ele>66.5</ele>
        <time>2020-06-17T15:47:50Z</time>
      </trkpt>
      <trkpt lat="49.43213" lon="0.27409">
        <ele>66.5</ele>
        <time>2020-06-17T15:47:51Z</time>
      </trkpt>
      <trkpt lat="49.43214" lon="0.27409">
        <ele>66.5</ele>
        <time>2020-06-17T15:47:52Z</time>
      </trkpt>
      <trkpt lat="49.43214" lon="0.2741">
        <ele>66.5</ele>
        <time>2020-06-17T15:47:53Z</time>
      </trkpt>
      <trkpt lat="49.43214" lon="0.2741">
        <ele>66.5</ele>
        <time>2020-06-17T15:47:54Z</time>
      </trkpt>
      <trkpt lat="49.43214" lon="0.2741">
        <ele>66.5</ele>
        <time>2020-06-17T15:47:55Z</time>
      </trkpt>
      <trkpt lat="49.43214" lon="0.2741">
        <ele>66.5</ele>
        <time>2020-06-17T15:47:56Z</time>
      </trkpt>
      <trkpt lat="49.43214" lon="0.2741">
        <ele>66.5</ele>
        <time>2020-06-17T15:47:57Z</time>
      </trkpt>
      <trkpt lat="49.4322" lon="0.27409">
        <ele>66.5</ele>
        <time>2020-06-17T15:48:12Z</time>
      </trkpt>
      <trkpt lat="49.43222" lon="0.27408">
        <ele>66.5</ele>
        <time>2020-06-17T15:48:13Z</time>
      </trkpt>
      <trkpt lat="49.43226" lon="0.27408">
        <ele>66.5</ele>
        <time>2020-06-17T15:48:14Z</time>
      </trkpt>
      <trkpt lat="49.43227" lon="0.27407">
        <ele>66.5</ele>
        <time>2020-06-17T15:48:15Z</time>
      </trkpt>
      <trkpt lat="49.4323" lon="0.27406">
        <ele>66.5</ele>
        <time>2020-06-17T15:48:16Z</time>
      </trkpt>
      <trkpt lat="49.43234" lon="0.27406">
        <ele>66.5</ele>
        <time>2020-06-17T15:48:17Z</time>
      </trkpt>
      <trkpt lat="49.43237" lon="0.27406">
        <ele>66.5</ele>
        <time>2020-06-17T15:48:18Z</time>
      </trkpt>
      <trkpt lat="49.43241" lon="0.27407">
        <ele>66.5</ele>
        <time>2020-06-17T15:48:19Z</time>
      </trkpt>
      <trkpt lat="49.43246" lon="0.27407">
        <ele>66.5</ele>
        <time>2020-06-17T15:48:20Z</time>
      </trkpt>
      <trkpt lat="49.43249" lon="0.27406">
        <ele>66.5</ele>
        <time>2020-06-17T15:48:21Z</time>
      </trkpt>
      <trkpt lat="49.43253" lon="0.27406">
        <ele>66.5</ele>
        <time>2020-06-17T15:48:22Z</time>
      </trkpt>
      <trkpt lat="49.43256" lon="0.27404">
        <ele>66.4</ele>
        <time>2020-06-17T15:48:23Z</time>
      </trkpt>
      <trkpt lat="49.43259" lon="0.27403">
        <ele>66.4</ele>
        <time>2020-06-17T15:48:24Z</time>
      </trkpt>
      <trkpt lat="49.43262" lon="0.27401">
        <ele>66.4</ele>
        <time>2020-06-17T15:48:25Z</time>
      </trkpt>
      <trkpt lat="49.43266" lon="0.274">
        <ele>66.4</ele>
        <time>2020-06-17T15:48:26Z</time>
      </trkpt>
      <trkpt lat="49.43269" lon="0.27401">
        <ele>66.3</ele>
        <time>2020-06-17T15:48:27Z</time>
      </trkpt>
      <trkpt lat="49.43273" lon="0.274">
        <ele>66.3</ele>
        <time>2020-06-17T15:48:28Z</time>
      </trkpt>
      <trkpt lat="49.43277" lon="0.274">
        <ele>66.3</ele>
        <time>2020-06-17T15:48:29Z</time>
      </trkpt>
      <trkpt lat="49.43281" lon="0.27399">
        <ele>66.2</ele>
        <time>2020-06-17T15:48:30Z</time>
      </trkpt>
      <trkpt lat="49.43285" lon="0.27399">
        <ele>66.2</ele>
        <time>2020-06-17T15:48:31Z</time>
      </trkpt>
      <trkpt lat="49.43289" lon="0.27399">
        <ele>66.1</ele>
        <time>2020-06-17T15:48:32Z</time>
      </trkpt>
      <trkpt lat="49.43292" lon="0.27398">
        <ele>66.1</ele>
        <time>2020-06-17T15:48:33Z</time>
      </trkpt>
      <trkpt lat="49.43296" lon="0.27399">
        <ele>66</ele>
        <time>2020-06-17T15:48:34Z</time>
      </trkpt>
      <trkpt lat="49.433" lon="0.27399">
        <ele>66</ele>
        <time>2020-06-17T15:48:35Z</time>
      </trkpt>
      <trkpt lat="49.43303" lon="0.27398">
        <ele>65.9</ele>
        <time>2020-06-17T15:48:36Z</time>
      </trkpt>
      <trkpt lat="49.43306" lon="0.27397">
        <ele>65.9</ele>
        <time>2020-06-17T15:48:37Z</time>
      </trkpt>
      <trkpt lat="49.43309" lon="0.27395">
        <ele>65.8</ele>
        <time>2020-06-17T15:48:38Z</time>
      </trkpt>
      <trkpt lat="49.43315" lon="0.27395">
        <ele>65.7</ele>
        <time>2020-06-17T15:48:39Z</time>
      </trkpt>
      <trkpt lat="49.4332" lon="0.27393">
        <ele>65.6</ele>
        <time>2020-06-17T15:48:40Z</time>
      </trkpt>
      <trkpt lat="49.43324" lon="0.27394">
        <ele>65.6</ele>
        <time>2020-06-17T15:48:41Z</time>
      </trkpt>
      <trkpt lat="49.43326" lon="0.27395">
        <ele>65.5</ele>
        <time>2020-06-17T15:48:42Z</time>
      </trkpt>
      <trkpt lat="49.4333" lon="0.27395">
        <ele>65.4</ele>
        <time>2020-06-17T15:48:43Z</time>
      </trkpt>
      <trkpt lat="49.43332" lon="0.27395">
        <ele>65.4</ele>
        <time>2020-06-17T15:48:44Z</time>
      </trkpt>
      <trkpt lat="49.43336" lon="0.27395">
        <ele>65.3</ele>
        <time>2020-06-17T15:48:45Z</time>
      </trkpt>
      <trkpt lat="49.43341" lon="0.27391">
        <ele>65.2</ele>
        <time>2020-06-17T15:48:46Z</time>
      </trkpt>
      <trkpt lat="49.43347" lon="0.27389">
        <ele>65.1</ele>
        <time>2020-06-17T15:48:47Z</time>
      </trkpt>
      <trkpt lat="49.4335" lon="0.27388">
        <ele>65</ele>
        <time>2020-06-17T15:48:48Z</time>
      </trkpt>
      <trkpt lat="49.43353" lon="0.27389">
        <ele>65</ele>
        <time>2020-06-17T15:48:49Z</time>
      </trkpt>
      <trkpt lat="49.43357" lon="0.2739">
        <ele>64.9</ele>
        <time>2020-06-17T15:48:50Z</time>
      </trkpt>
      <trkpt lat="49.43358" lon="0.2739">
        <ele>64.9</ele>
        <time>2020-06-17T15:48:51Z</time>
      </trkpt>
      <trkpt lat="49.43361" lon="0.27389">
        <ele>64.8</ele>
        <time>2020-06-17T15:48:52Z</time>
      </trkpt>
      <trkpt lat="49.43365" lon="0.27388">
        <ele>64.7</ele>
        <time>2020-06-17T15:48:53Z</time>
      </trkpt>
      <trkpt lat="49.43368" lon="0.27387">
        <ele>64.6</ele>
        <time>2020-06-17T15:48:54Z</time>
      </trkpt>
      <trkpt lat="49.43372" lon="0.27386">
        <ele>64.5</ele>
        <time>2020-06-17T15:48:55Z</time>
      </trkpt>
      <trkpt lat="49.43375" lon="0.27386">
        <ele>64.4</ele>
        <time>2020-06-17T15:48:56Z</time>
      </trkpt>
      <trkpt lat="49.4338" lon="0.27386">
        <ele>64.2</ele>
        <time>2020-06-17T15:48:57Z</time>
      </trkpt>
      <trkpt lat="49.43384" lon="0.27385">
        <ele>64.1</ele>
        <time>2020-06-17T15:48:58Z</time>
      </trkpt>
      <trkpt lat="49.43388" lon="0.27387">
        <ele>64</ele>
        <time>2020-06-17T15:48:59Z</time>
      </trkpt>
      <trkpt lat="49.43392" lon="0.27387">
        <ele>63.9</ele>
        <time>2020-06-17T15:49:00Z</time>
      </trkpt>
      <trkpt lat="49.43397" lon="0.27385">
        <ele>63.8</ele>
        <time>2020-06-17T15:49:01Z</time>
      </trkpt>
      <trkpt lat="49.43402" lon="0.27385">
        <ele>63.7</ele>
        <time>2020-06-17T15:49:02Z</time>
      </trkpt>
      <trkpt lat="49.43406" lon="0.27382">
        <ele>63.5</ele>
        <time>2020-06-17T15:49:03Z</time>
      </trkpt>
      <trkpt lat="49.43412" lon="0.27381">
        <ele>63.3</ele>
        <time>2020-06-17T15:49:04Z</time>
      </trkpt>
      <trkpt lat="49.43416" lon="0.27381">
        <ele>63.2</ele>
        <time>2020-06-17T15:49:05Z</time>
      </trkpt>
      <trkpt lat="49.43421" lon="0.27379">
        <ele>63</ele>
        <time>2020-06-17T15:49:06Z</time>
      </trkpt>
      <trkpt lat="49.43427" lon="0.27379">
        <ele>62.8</ele>
        <time>2020-06-17T15:49:07Z</time>
      </trkpt>
      <trkpt lat="49.43431" lon="0.27378">
        <ele>62.6</ele>
        <time>2020-06-17T15:49:08Z</time>
      </trkpt>
      <trkpt lat="49.43436" lon="0.27376">
        <ele>62.5</ele>
        <time>2020-06-17T15:49:09Z</time>
      </trkpt>
      <trkpt lat="49.43442" lon="0.27376">
        <ele>62.3</ele>
        <time>2020-06-17T15:49:10Z</time>
      </trkpt>
      <trkpt lat="49.43446" lon="0.27375">
        <ele>62.1</ele>
        <time>2020-06-17T15:49:11Z</time>
      </trkpt>
      <trkpt lat="49.4345" lon="0.27373">
        <ele>62</ele>
        <time>2020-06-17T15:49:12Z</time>
      </trkpt>
      <trkpt lat="49.43453" lon="0.27373">
        <ele>61.8</ele>
        <time>2020-06-17T15:49:13Z</time>
      </trkpt>
      <trkpt lat="49.43458" lon="0.27372">
        <ele>61.7</ele>
        <time>2020-06-17T15:49:14Z</time>
      </trkpt>
      <trkpt lat="49.4346" lon="0.27371">
        <ele>61.6</ele>
        <time>2020-06-17T15:49:15Z</time>
      </trkpt>
      <trkpt lat="49.43463" lon="0.2737">
        <ele>61.5</ele>
        <time>2020-06-17T15:49:16Z</time>
      </trkpt>
      <trkpt lat="49.43466" lon="0.27368">
        <ele>61.4</ele>
        <time>2020-06-17T15:49:17Z</time>
      </trkpt>
      <trkpt lat="49.43469" lon="0.27367">
        <ele>61.3</ele>
        <time>2020-06-17T15:49:18Z</time>
      </trkpt>
      <trkpt lat="49.43475" lon="0.27369">
        <ele>61</ele>
        <time>2020-06-17T15:49:19Z</time>
      </trkpt>
      <trkpt lat="49.4348" lon="0.27368">
        <ele>60.9</ele>
        <time>2020-06-17T15:49:20Z</time>
      </trkpt>
      <trkpt lat="49.43484" lon="0.27367">
        <ele>60.7</ele>
        <time>2020-06-17T15:49:21Z</time>
      </trkpt>
      <trkpt lat="49.43488" lon="0.27366">
        <ele>60.5</ele>
        <time>2020-06-17T15:49:22Z</time>
      </trkpt>
      <trkpt lat="49.43493" lon="0.27366">
        <ele>60.3</ele>
        <time>2020-06-17T15:49:23Z</time>
      </trkpt>
      <trkpt lat="49.43498" lon="0.27366">
        <ele>60.1</ele>
        <time>2020-06-17T15:49:24Z</time>
      </trkpt>
      <trkpt lat="49.43502" lon="0.27367">
        <ele>59.9</ele>
        <time>2020-06-17T15:49:25Z</time>
      </trkpt>
      <trkpt lat="49.43506" lon="0.27367">
        <ele>59.7</ele>
        <time>2020-06-17T15:49:26Z</time>
      </trkpt>
      <trkpt lat="49.43509" lon="0.27367">
        <ele>59.5</ele>
        <time>2020-06-17T15:49:27Z</time>
      </trkpt>
      <trkpt lat="49.43513" lon="0.27366">
        <ele>59.3</ele>
        <time>2020-06-17T15:49:28Z</time>
      </trkpt>
      <trkpt lat="49.43517" lon="0.27367">
        <ele>59.1</ele>
        <time>2020-06-17T15:49:29Z</time>
      </trkpt>
      <trkpt lat="49.43522" lon="0.27367">
        <ele>58.9</ele>
        <time>2020-06-17T15:49:30Z</time>
      </trkpt>
      <trkpt lat="49.43527" lon="0.27367">
        <ele>58.5</ele>
        <time>2020-06-17T15:49:31Z</time>
      </trkpt>
      <trkpt lat="49.43531" lon="0.27368">
        <ele>58.3</ele>
        <time>2020-06-17T15:49:32Z</time>
      </trkpt>
      <trkpt lat="49.43535" lon="0.27367">
        <ele>58.1</ele>
        <time>2020-06-17T15:49:33Z</time>
      </trkpt>
      <trkpt lat="49.43539" lon="0.27365">
        <ele>57.8</ele>
        <time>2020-06-17T15:49:34Z</time>
      </trkpt>
      <trkpt lat="49.43544" lon="0.27366">
        <ele>57.5</ele>
        <time>2020-06-17T15:49:35Z</time>
      </trkpt>
      <trkpt lat="49.43548" lon="0.27364">
        <ele>57.3</ele>
        <time>2020-06-17T15:49:36Z</time>
      </trkpt>
      <trkpt lat="49.43552" lon="0.27365">
        <ele>57</ele>
        <time>2020-06-17T15:49:37Z</time>
      </trkpt>
      <trkpt lat="49.43557" lon="0.27363">
        <ele>56.7</ele>
        <time>2020-06-17T15:49:38Z</time>
      </trkpt>
      <trkpt lat="49.43561" lon="0.27362">
        <ele>56.5</ele>
        <time>2020-06-17T15:49:39Z</time>
      </trkpt>
      <trkpt lat="49.43565" lon="0.2736">
        <ele>56.2</ele>
        <time>2020-06-17T15:49:40Z</time>
      </trkpt>
      <trkpt lat="49.43569" lon="0.27361">
        <ele>55.9</ele>
        <time>2020-06-17T15:49:41Z</time>
      </trkpt>
      <trkpt lat="49.43573" lon="0.27359">
        <ele>55.7</ele>
        <time>2020-06-17T15:49:42Z</time>
      </trkpt>
      <trkpt lat="49.43577" lon="0.27359">
        <ele>55.4</ele>
        <time>2020-06-17T15:49:43Z</time>
      </trkpt>
      <trkpt lat="49.43582" lon="0.2736">
        <ele>55.1</ele>
        <time>2020-06-17T15:49:44Z</time>
      </trkpt>
      <trkpt lat="49.43586" lon="0.2736">
        <ele>54.8</ele>
        <time>2020-06-17T15:49:45Z</time>
      </trkpt>
      <trkpt lat="49.4359" lon="0.2736">
        <ele>54.6</ele>
        <time>2020-06-17T15:49:46Z</time>
      </trkpt>
      <trkpt lat="49.43593" lon="0.27359">
        <ele>54.4</ele>
        <time>2020-06-17T15:49:47Z</time>
      </trkpt>
      <trkpt lat="49.43597" lon="0.27359">
        <ele>54.2</ele>
        <time>2020-06-17T15:49:48Z</time>
      </trkpt>
      <trkpt lat="49.436" lon="0.27359">
        <ele>53.9</ele>
        <time>2020-06-17T15:49:49Z</time>
      </trkpt>
      <trkpt lat="49.43604" lon="0.27357">
        <ele>53.7</ele>
        <time>2020-06-17T15:49:50Z</time>
      </trkpt>
      <trkpt lat="49.43607" lon="0.27357">
        <ele>53.5</ele>
        <time>2020-06-17T15:49:51Z</time>
      </trkpt>
      <trkpt lat="49.43611" lon="0.27357">
        <ele>53.3</ele>
        <time>2020-06-17T15:49:52Z</time>
      </trkpt>
      <trkpt lat="49.43612" lon="0.27356">
        <ele>53.2</ele>
        <time>2020-06-17T15:49:53Z</time>
      </trkpt>
      <trkpt lat="49.43616" lon="0.27356">
        <ele>53</ele>
        <time>2020-06-17T15:49:54Z</time>
      </trkpt>
      <trkpt lat="49.43618" lon="0.27356">
        <ele>52.9</ele>
        <time>2020-06-17T15:49:55Z</time>
      </trkpt>
      <trkpt lat="49.4362" lon="0.27354">
        <ele>52.7</ele>
        <time>2020-06-17T15:49:56Z</time>
      </trkpt>
      <trkpt lat="49.43623" lon="0.27353">
        <ele>52.5</ele>
        <time>2020-06-17T15:49:57Z</time>
      </trkpt>
      <trkpt lat="49.43627" lon="0.27352">
        <ele>52.3</ele>
        <time>2020-06-17T15:49:58Z</time>
      </trkpt>
      <trkpt lat="49.43632" lon="0.27351">
        <ele>51.9</ele>
        <time>2020-06-17T15:49:59Z</time>
      </trkpt>
      <trkpt lat="49.43638" lon="0.27349">
        <ele>51.5</ele>
        <time>2020-06-17T15:50:00Z</time>
      </trkpt>
      <trkpt lat="49.43643" lon="0.27347">
        <ele>51.2</ele>
        <time>2020-06-17T15:50:01Z</time>
      </trkpt>
      <trkpt lat="49.43648" lon="0.27346">
        <ele>50.8</ele>
        <time>2020-06-17T15:50:02Z</time>
      </trkpt>
      <trkpt lat="49.43651" lon="0.27344">
        <ele>50.5</ele>
        <time>2020-06-17T15:50:03Z</time>
      </trkpt>
      <trkpt lat="49.43656" lon="0.27343">
        <ele>50.2</ele>
        <time>2020-06-17T15:50:04Z</time>
      </trkpt>
      <trkpt lat="49.4366" lon="0.27343">
        <ele>49.8</ele>
        <time>2020-06-17T15:50:05Z</time>
      </trkpt>
      <trkpt lat="49.43664" lon="0.27342">
        <ele>49.4</ele>
        <time>2020-06-17T15:50:06Z</time>
      </trkpt>
      <trkpt lat="49.43669" lon="0.27343">
        <ele>49.1</ele>
        <time>2020-06-17T15:50:07Z</time>
      </trkpt>
      <trkpt lat="49.43674" lon="0.27343">
        <ele>48.8</ele>
        <time>2020-06-17T15:50:08Z</time>
      </trkpt>
      <trkpt lat="49.43677" lon="0.27343">
        <ele>48.5</ele>
        <time>2020-06-17T15:50:09Z</time>
      </trkpt>
      <trkpt lat="49.43681" lon="0.27344">
        <ele>48.2</ele>
        <time>2020-06-17T15:50:10Z</time>
      </trkpt>
      <trkpt lat="49.43685" lon="0.27344">
        <ele>47.9</ele>
        <time>2020-06-17T15:50:11Z</time>
      </trkpt>
      <trkpt lat="49.43688" lon="0.27346">
        <ele>47.7</ele>
        <time>2020-06-17T15:50:12Z</time>
      </trkpt>
      <trkpt lat="49.43691" lon="0.27346">
        <ele>47.5</ele>
        <time>2020-06-17T15:50:13Z</time>
      </trkpt>
      <trkpt lat="49.43694" lon="0.27345">
        <ele>47.3</ele>
        <time>2020-06-17T15:50:14Z</time>
      </trkpt>
      <trkpt lat="49.43698" lon="0.27345">
        <ele>47.1</ele>
        <time>2020-06-17T15:50:15Z</time>
      </trkpt>
      <trkpt lat="49.43699" lon="0.27345">
        <ele>47</ele>
        <time>2020-06-17T15:50:16Z</time>
      </trkpt>
      <trkpt lat="49.437" lon="0.27346">
        <ele>46.9</ele>
        <time>2020-06-17T15:50:17Z</time>
      </trkpt>
      <trkpt lat="49.437" lon="0.27344">
        <ele>46.8</ele>
        <time>2020-06-17T15:50:18Z</time>
      </trkpt>
      <trkpt lat="49.43702" lon="0.27345">
        <ele>46.7</ele>
        <time>2020-06-17T15:50:19Z</time>
      </trkpt>
      <trkpt lat="49.43703" lon="0.27345">
        <ele>46.7</ele>
        <time>2020-06-17T15:50:20Z</time>
      </trkpt>
      <trkpt lat="49.43703" lon="0.27348">
        <ele>46.6</ele>
        <time>2020-06-17T15:50:21Z</time>
      </trkpt>
      <trkpt lat="49.43703" lon="0.27349">
        <ele>46.5</ele>
        <time>2020-06-17T15:50:22Z</time>
      </trkpt>
      <trkpt lat="49.43703" lon="0.2735">
        <ele>46.5</ele>
        <time>2020-06-17T15:50:23Z</time>
      </trkpt>
      <trkpt lat="49.43703" lon="0.2735">
        <ele>46.5</ele>
        <time>2020-06-17T15:50:24Z</time>
      </trkpt>
      <trkpt lat="49.43703" lon="0.2735">
        <ele>46.5</ele>
        <time>2020-06-17T15:50:25Z</time>
      </trkpt>
      <trkpt lat="49.43703" lon="0.2735">
        <ele>46.5</ele>
        <time>2020-06-17T15:50:26Z</time>
      </trkpt>
      <trkpt lat="49.43703" lon="0.2735">
        <ele>46.4</ele>
        <time>2020-06-17T15:50:27Z</time>
      </trkpt>
      <trkpt lat="49.43703" lon="0.2735">
        <ele>46.4</ele>
        <time>2020-06-17T15:50:28Z</time>
      </trkpt>
      <trkpt lat="49.43703" lon="0.2735">
        <ele>46.4</ele>
        <time>2020-06-17T15:50:29Z</time>
      </trkpt>
      <trkpt lat="49.43708" lon="0.2735">
        <ele>46.1</ele>
        <time>2020-06-17T15:50:55Z</time>
      </trkpt>
      <trkpt lat="49.4371" lon="0.27349">
        <ele>46</ele>
        <time>2020-06-17T15:50:56Z</time>
      </trkpt>
      <trkpt lat="49.43713" lon="0.27349">
        <ele>45.8</ele>
        <time>2020-06-17T15:50:57Z</time>
      </trkpt>
      <trkpt lat="49.43713" lon="0.27348">
        <ele>45.8</ele>
        <time>2020-06-17T15:50:58Z</time>
      </trkpt>
      <trkpt lat="49.43714" lon="0.27348">
        <ele>45.7</ele>
        <time>2020-06-17T15:50:59Z</time>
      </trkpt>
      <trkpt lat="49.43716" lon="0.27347">
        <ele>45.6</ele>
        <time>2020-06-17T15:51:00Z</time>
      </trkpt>
      <trkpt lat="49.43718" lon="0.27347">
        <ele>45.5</ele>
        <time>2020-06-17T15:51:01Z</time>
      </trkpt>
      <trkpt lat="49.4372" lon="0.27346">
        <ele>45.4</ele>
        <time>2020-06-17T15:51:02Z</time>
      </trkpt>
      <trkpt lat="49.43722" lon="0.27346">
        <ele>45.2</ele>
        <time>2020-06-17T15:51:03Z</time>
      </trkpt>
      <trkpt lat="49.43723" lon="0.27346">
        <ele>45.1</ele>
        <time>2020-06-17T15:51:04Z</time>
      </trkpt>
      <trkpt lat="49.43725" lon="0.27345">
        <ele>45</ele>
        <time>2020-06-17T15:51:05Z</time>
      </trkpt>
      <trkpt lat="49.43726" lon="0.27345">
        <ele>44.9</ele>
        <time>2020-06-17T15:51:06Z</time>
      </trkpt>
      <trkpt lat="49.43727" lon="0.27345">
        <ele>44.9</ele>
        <time>2020-06-17T15:51:07Z</time>
      </trkpt>
      <trkpt lat="49.43729" lon="0.27344">
        <ele>44.7</ele>
        <time>2020-06-17T15:51:08Z</time>
      </trkpt>
      <trkpt lat="49.4373" lon="0.27343">
        <ele>44.7</ele>
        <time>2020-06-17T15:51:09Z</time>
      </trkpt>
      <trkpt lat="49.43731" lon="0.27342">
        <ele>44.6</ele>
        <time>2020-06-17T15:51:10Z</time>
      </trkpt>
      <trkpt lat="49.43732" lon="0.27341">
        <ele>44.5</ele>
        <time>2020-06-17T15:51:11Z</time>
      </trkpt>
      <trkpt lat="49.43733" lon="0.27341">
        <ele>44.4</ele>
        <time>2020-06-17T15:51:12Z</time>
      </trkpt>
      <trkpt lat="49.43735" lon="0.2734">
        <ele>44.3</ele>
        <time>2020-06-17T15:51:13Z</time>
      </trkpt>
      <trkpt lat="49.43736" lon="0.27339">
        <ele>44.2</ele>
        <time>2020-06-17T15:51:14Z</time>
      </trkpt>
      <trkpt lat="49.43737" lon="0.27339">
        <ele>44.1</ele>
        <time>2020-06-17T15:51:15Z</time>
      </trkpt>
      <trkpt lat="49.43738" lon="0.2734">
        <ele>44</ele>
        <time>2020-06-17T15:51:16Z</time>
      </trkpt>
      <trkpt lat="49.43739" lon="0.2734">
        <ele>44</ele>
        <time>2020-06-17T15:51:17Z</time>
      </trkpt>
      <trkpt lat="49.4374" lon="0.2734">
        <ele>43.9</ele>
        <time>2020-06-17T15:51:18Z</time>
      </trkpt>
      <trkpt lat="49.43742" lon="0.27339">
        <ele>43.7</ele>
        <time>2020-06-17T15:51:19Z</time>
      </trkpt>
      <trkpt lat="49.43744" lon="0.27339">
        <ele>43.6</ele>
        <time>2020-06-17T15:51:20Z</time>
      </trkpt>
      <trkpt lat="49.43746" lon="0.27339">
        <ele>43.5</ele>
        <time>2020-06-17T15:51:21Z</time>
      </trkpt>
      <trkpt lat="49.43747" lon="0.27338">
        <ele>43.4</ele>
        <time>2020-06-17T15:51:22Z</time>
      </trkpt>
      <trkpt lat="49.43748" lon="0.27339">
        <ele>43.3</ele>
        <time>2020-06-17T15:51:23Z</time>
      </trkpt>
      <trkpt lat="49.43751" lon="0.27339">
        <ele>43.1</ele>
        <time>2020-06-17T15:51:24Z</time>
      </trkpt>
      <trkpt lat="49.43752" lon="0.27339">
        <ele>43.1</ele>
        <time>2020-06-17T15:51:25Z</time>
      </trkpt>
      <trkpt lat="49.43754" lon="0.27339">
        <ele>43</ele>
        <time>2020-06-17T15:51:26Z</time>
      </trkpt>
      <trkpt lat="49.43755" lon="0.27338">
        <ele>42.8</ele>
        <time>2020-06-17T15:51:27Z</time>
      </trkpt>
      <trkpt lat="49.43756" lon="0.27337">
        <ele>42.8</ele>
        <time>2020-06-17T15:51:28Z</time>
      </trkpt>
      <trkpt lat="49.43758" lon="0.27336">
        <ele>42.6</ele>
        <time>2020-06-17T15:51:29Z</time>
      </trkpt>
      <trkpt lat="49.43759" lon="0.27336">
        <ele>42.6</ele>
        <time>2020-06-17T15:51:30Z</time>
      </trkpt>
      <trkpt lat="49.4376" lon="0.27335">
        <ele>42.5</ele>
        <time>2020-06-17T15:51:31Z</time>
      </trkpt>
      <trkpt lat="49.43761" lon="0.27336">
        <ele>42.4</ele>
        <time>2020-06-17T15:51:32Z</time>
      </trkpt>
      <trkpt lat="49.43762" lon="0.27337">
        <ele>42.3</ele>
        <time>2020-06-17T15:51:33Z</time>
      </trkpt>
      <trkpt lat="49.43764" lon="0.27337">
        <ele>42.1</ele>
        <time>2020-06-17T15:51:34Z</time>
      </trkpt>
      <trkpt lat="49.43765" lon="0.27337">
        <ele>42</ele>
        <time>2020-06-17T15:51:35Z</time>
      </trkpt>
      <trkpt lat="49.43767" lon="0.27337">
        <ele>41.9</ele>
        <time>2020-06-17T15:51:36Z</time>
      </trkpt>
      <trkpt lat="49.4377" lon="0.27337">
        <ele>41.7</ele>
        <time>2020-06-17T15:51:37Z</time>
      </trkpt>
      <trkpt lat="49.43771" lon="0.27337">
        <ele>41.6</ele>
        <time>2020-06-17T15:51:38Z</time>
      </trkpt>
      <trkpt lat="49.43773" lon="0.27337">
        <ele>41.5</ele>
        <time>2020-06-17T15:51:39Z</time>
      </trkpt>
      <trkpt lat="49.43774" lon="0.27337">
        <ele>41.4</ele>
        <time>2020-06-17T15:51:40Z</time>
      </trkpt>
      <trkpt lat="49.43775" lon="0.27337">
        <ele>41.3</ele>
        <time>2020-06-17T15:51:41Z</time>
      </trkpt>
      <trkpt lat="49.43776" lon="0.27335">
        <ele>41.2</ele>
        <time>2020-06-17T15:51:42Z</time>
      </trkpt>
      <trkpt lat="49.43777" lon="0.27334">
        <ele>41.1</ele>
        <time>2020-06-17T15:51:43Z</time>
      </trkpt>
      <trkpt lat="49.43779" lon="0.27334">
        <ele>41</ele>
        <time>2020-06-17T15:51:44Z</time>
      </trkpt>
      <trkpt lat="49.4378" lon="0.27333">
        <ele>40.9</ele>
        <time>2020-06-17T15:51:45Z</time>
      </trkpt>
      <trkpt lat="49.43781" lon="0.27332">
        <ele>40.8</ele>
        <time>2020-06-17T15:51:46Z</time>
      </trkpt>
      <trkpt lat="49.43782" lon="0.27331">
        <ele>40.8</ele>
        <time>2020-06-17T15:51:47Z</time>
      </trkpt>
      <trkpt lat="49.43783" lon="0.2733">
        <ele>40.6</ele>
        <time>2020-06-17T15:51:48Z</time>
      </trkpt>
      <trkpt lat="49.43785" lon="0.2733">
        <ele>40.5</ele>
        <time>2020-06-17T15:51:49Z</time>
      </trkpt>
      <trkpt lat="49.43787" lon="0.2733">
        <ele>40.4</ele>
        <time>2020-06-17T15:51:50Z</time>
      </trkpt>
      <trkpt lat="49.43788" lon="0.27331">
        <ele>40.3</ele>
        <time>2020-06-17T15:51:51Z</time>
      </trkpt>
      <trkpt lat="49.43789" lon="0.27331">
        <ele>40.2</ele>
        <time>2020-06-17T15:51:52Z</time>
      </trkpt>
      <trkpt lat="49.4379" lon="0.27331">
        <ele>40.1</ele>
        <time>2020-06-17T15:51:53Z</time>
      </trkpt>
      <trkpt lat="49.43792" lon="0.2733">
        <ele>40</ele>
        <time>2020-06-17T15:51:54Z</time>
      </trkpt>
      <trkpt lat="49.43793" lon="0.2733">
        <ele>39.9</ele>
        <time>2020-06-17T15:51:55Z</time>
      </trkpt>
      <trkpt lat="49.43794" lon="0.2733">
        <ele>39.9</ele>
        <time>2020-06-17T15:51:56Z</time>
      </trkpt>
      <trkpt lat="49.43797" lon="0.27331">
        <ele>39.6</ele>
        <time>2020-06-17T15:51:57Z</time>
      </trkpt>
      <trkpt lat="49.43798" lon="0.27331">
        <ele>39.6</ele>
        <time>2020-06-17T15:51:58Z</time>
      </trkpt>
      <trkpt lat="49.438" lon="0.2733">
        <ele>39.5</ele>
        <time>2020-06-17T15:51:59Z</time>
      </trkpt>
      <trkpt lat="49.43801" lon="0.2733">
        <ele>39.3</ele>
        <time>2020-06-17T15:52:00Z</time>
      </trkpt>
      <trkpt lat="49.43803" lon="0.2733">
        <ele>39.2</ele>
        <time>2020-06-17T15:52:01Z</time>
      </trkpt>
      <trkpt lat="49.43805" lon="0.2733">
        <ele>39.1</ele>
        <time>2020-06-17T15:52:02Z</time>
      </trkpt>
      <trkpt lat="49.43806" lon="0.27329">
        <ele>39</ele>
        <time>2020-06-17T15:52:03Z</time>
      </trkpt>
      <trkpt lat="49.43808" lon="0.27329">
        <ele>38.9</ele>
        <time>2020-06-17T15:52:04Z</time>
      </trkpt>
      <trkpt lat="49.4381" lon="0.2733">
        <ele>38.7</ele>
        <time>2020-06-17T15:52:05Z</time>
      </trkpt>
      <trkpt lat="49.43811" lon="0.2733">
        <ele>38.7</ele>
        <time>2020-06-17T15:52:06Z</time>
      </trkpt>
      <trkpt lat="49.43813" lon="0.2733">
        <ele>38.5</ele>
        <time>2020-06-17T15:52:07Z</time>
      </trkpt>
      <trkpt lat="49.43814" lon="0.2733">
        <ele>38.5</ele>
        <time>2020-06-17T15:52:08Z</time>
      </trkpt>
      <trkpt lat="49.43815" lon="0.27329">
        <ele>38.4</ele>
        <time>2020-06-17T15:52:09Z</time>
      </trkpt>
      <trkpt lat="49.43816" lon="0.27331">
        <ele>38.3</ele>
        <time>2020-06-17T15:52:10Z</time>
      </trkpt>
      <trkpt lat="49.43818" lon="0.2733">
        <ele>38.2</ele>
        <time>2020-06-17T15:52:11Z</time>
      </trkpt>
      <trkpt lat="49.43819" lon="0.2733">
        <ele>38</ele>
        <time>2020-06-17T15:52:12Z</time>
      </trkpt>
      <trkpt lat="49.43821" lon="0.27329">
        <ele>38</ele>
        <time>2020-06-17T15:52:13Z</time>
      </trkpt>
      <trkpt lat="49.43823" lon="0.27329">
        <ele>37.8</ele>
        <time>2020-06-17T15:52:14Z</time>
      </trkpt>
      <trkpt lat="49.43825" lon="0.27329">
        <ele>37.6</ele>
        <time>2020-06-17T15:52:15Z</time>
      </trkpt>
      <trkpt lat="49.43826" lon="0.27329">
        <ele>37.5</ele>
        <time>2020-06-17T15:52:16Z</time>
      </trkpt>
      <trkpt lat="49.43828" lon="0.27328">
        <ele>37.4</ele>
        <time>2020-06-17T15:52:17Z</time>
      </trkpt>
      <trkpt lat="49.43829" lon="0.27328">
        <ele>37.3</ele>
        <time>2020-06-17T15:52:18Z</time>
      </trkpt>
      <trkpt lat="49.4383" lon="0.27328">
        <ele>37.3</ele>
        <time>2020-06-17T15:52:19Z</time>
      </trkpt>
      <trkpt lat="49.43832" lon="0.27328">
        <ele>37.1</ele>
        <time>2020-06-17T15:52:20Z</time>
      </trkpt>
      <trkpt lat="49.43833" lon="0.27328">
        <ele>37</ele>
        <time>2020-06-17T15:52:21Z</time>
      </trkpt>
      <trkpt lat="49.43834" lon="0.27328">
        <ele>37</ele>
        <time>2020-06-17T15:52:22Z</time>
      </trkpt>
      <trkpt lat="49.43835" lon="0.27327">
        <ele>36.9</ele>
        <time>2020-06-17T15:52:23Z</time>
      </trkpt>
      <trkpt lat="49.43837" lon="0.27327">
        <ele>36.8</ele>
        <time>2020-06-17T15:52:24Z</time>
      </trkpt>
      <trkpt lat="49.43838" lon="0.27328">
        <ele>36.6</ele>
        <time>2020-06-17T15:52:25Z</time>
      </trkpt>
      <trkpt lat="49.4384" lon="0.27327">
        <ele>36.6</ele>
        <time>2020-06-17T15:52:26Z</time>
      </trkpt>
      <trkpt lat="49.43841" lon="0.27326">
        <ele>36.5</ele>
        <time>2020-06-17T15:52:27Z</time>
      </trkpt>
      <trkpt lat="49.43842" lon="0.27326">
        <ele>36.4</ele>
        <time>2020-06-17T15:52:28Z</time>
      </trkpt>
      <trkpt lat="49.43842" lon="0.27326">
        <ele>36.4</ele>
        <time>2020-06-17T15:52:29Z</time>
      </trkpt>
      <trkpt lat="49.43844" lon="0.27325">
        <ele>36.2</ele>
        <time>2020-06-17T15:52:30Z</time>
      </trkpt>
      <trkpt lat="49.43845" lon="0.27324">
        <ele>36.2</ele>
        <time>2020-06-17T15:52:31Z</time>
      </trkpt>
      <trkpt lat="49.43847" lon="0.27323">
        <ele>36</ele>
        <time>2020-06-17T15:52:32Z</time>
      </trkpt>
      <trkpt lat="49.43848" lon="0.27323">
        <ele>35.9</ele>
        <time>2020-06-17T15:52:33Z</time>
      </trkpt>
      <trkpt lat="49.43849" lon="0.27323">
        <ele>35.9</ele>
        <time>2020-06-17T15:52:34Z</time>
      </trkpt>
      <trkpt lat="49.43851" lon="0.27323">
        <ele>35.7</ele>
        <time>2020-06-17T15:52:35Z</time>
      </trkpt>
      <trkpt lat="49.43851" lon="0.27323">
        <ele>35.7</ele>
        <time>2020-06-17T15:52:36Z</time>
      </trkpt>
      <trkpt lat="49.43852" lon="0.27323">
        <ele>35.6</ele>
        <time>2020-06-17T15:52:37Z</time>
      </trkpt>
      <trkpt lat="49.43854" lon="0.27323">
        <ele>35.5</ele>
        <time>2020-06-17T15:52:38Z</time>
      </trkpt>
      <trkpt lat="49.43855" lon="0.27323">
        <ele>35.4</ele>
        <time>2020-06-17T15:52:39Z</time>
      </trkpt>
      <trkpt lat="49.43858" lon="0.27323">
        <ele>35.2</ele>
        <time>2020-06-17T15:52:40Z</time>
      </trkpt>
      <trkpt lat="49.43859" lon="0.27323">
        <ele>35.1</ele>
        <time>2020-06-17T15:52:41Z</time>
      </trkpt>
      <trkpt lat="49.43862" lon="0.27324">
        <ele>34.9</ele>
        <time>2020-06-17T15:52:42Z</time>
      </trkpt>
      <trkpt lat="49.43863" lon="0.27324">
        <ele>34.9</ele>
        <time>2020-06-17T15:52:43Z</time>
      </trkpt>
      <trkpt lat="49.43866" lon="0.27324">
        <ele>34.7</ele>
        <time>2020-06-17T15:52:44Z</time>
      </trkpt>
      <trkpt lat="49.43867" lon="0.27324">
        <ele>34.6</ele>
        <time>2020-06-17T15:52:45Z</time>
      </trkpt>
      <trkpt lat="49.43868" lon="0.27324">
        <ele>34.5</ele>
        <time>2020-06-17T15:52:46Z</time>
      </trkpt>
      <trkpt lat="49.43869" lon="0.27324">
        <ele>34.4</ele>
        <time>2020-06-17T15:52:47Z</time>
      </trkpt>
      <trkpt lat="49.4387" lon="0.27324">
        <ele>34.4</ele>
        <time>2020-06-17T15:52:48Z</time>
      </trkpt>
      <trkpt lat="49.43872" lon="0.27326">
        <ele>34.2</ele>
        <time>2020-06-17T15:52:49Z</time>
      </trkpt>
      <trkpt lat="49.43873" lon="0.27325">
        <ele>34.1</ele>
        <time>2020-06-17T15:52:50Z</time>
      </trkpt>
      <trkpt lat="49.43875" lon="0.27325">
        <ele>34</ele>
        <time>2020-06-17T15:52:51Z</time>
      </trkpt>
      <trkpt lat="49.43876" lon="0.27324">
        <ele>33.9</ele>
        <time>2020-06-17T15:52:52Z</time>
      </trkpt>
      <trkpt lat="49.43878" lon="0.27324">
        <ele>33.8</ele>
        <time>2020-06-17T15:52:53Z</time>
      </trkpt>
      <trkpt lat="49.43879" lon="0.27323">
        <ele>33.7</ele>
        <time>2020-06-17T15:52:54Z</time>
      </trkpt>
      <trkpt lat="49.4388" lon="0.27323">
        <ele>33.6</ele>
        <time>2020-06-17T15:52:55Z</time>
      </trkpt>
      <trkpt lat="49.43881" lon="0.27323">
        <ele>33.6</ele>
        <time>2020-06-17T15:52:56Z</time>
      </trkpt>
      <trkpt lat="49.43882" lon="0.27323">
        <ele>33.5</ele>
        <time>2020-06-17T15:52:57Z</time>
      </trkpt>
      <trkpt lat="49.43883" lon="0.27323">
        <ele>33.4</ele>
        <time>2020-06-17T15:52:58Z</time>
      </trkpt>
      <trkpt lat="49.43884" lon="0.27323">
        <ele>33.3</ele>
        <time>2020-06-17T15:52:59Z</time>
      </trkpt>
      <trkpt lat="49.43885" lon="0.27323">
        <ele>33.3</ele>
        <time>2020-06-17T15:53:00Z</time>
      </trkpt>
      <trkpt lat="49.43887" lon="0.27323">
        <ele>33.2</ele>
        <time>2020-06-17T15:53:01Z</time>
      </trkpt>
      <trkpt lat="49.43889" lon="0.27323">
        <ele>33</ele>
        <time>2020-06-17T15:53:02Z</time>
      </trkpt>
      <trkpt lat="49.43891" lon="0.27322">
        <ele>32.8</ele>
        <time>2020-06-17T15:53:03Z</time>
      </trkpt>
      <trkpt lat="49.43892" lon="0.27321">
        <ele>32.8</ele>
        <time>2020-06-17T15:53:04Z</time>
      </trkpt>
      <trkpt lat="49.43894" lon="0.27321">
        <ele>32.7</ele>
        <time>2020-06-17T15:53:05Z</time>
      </trkpt>
      <trkpt lat="49.43895" lon="0.27321">
        <ele>32.5</ele>
        <time>2020-06-17T15:53:06Z</time>
      </trkpt>
      <trkpt lat="49.43897" lon="0.27321">
        <ele>32.4</ele>
        <time>2020-06-17T15:53:07Z</time>
      </trkpt>
      <trkpt lat="49.43899" lon="0.2732">
        <ele>32.3</ele>
        <time>2020-06-17T15:53:08Z</time>
      </trkpt>
      <trkpt lat="49.439" lon="0.2732">
        <ele>32.2</ele>
        <time>2020-06-17T15:53:09Z</time>
      </trkpt>
      <trkpt lat="49.43901" lon="0.27319">
        <ele>32.1</ele>
        <time>2020-06-17T15:53:10Z</time>
      </trkpt>
      <trkpt lat="49.43903" lon="0.27317">
        <ele>31.9</ele>
        <time>2020-06-17T15:53:11Z</time>
      </trkpt>
      <trkpt lat="49.43904" lon="0.27317">
        <ele>31.9</ele>
        <time>2020-06-17T15:53:12Z</time>
      </trkpt>
      <trkpt lat="49.43905" lon="0.27316">
        <ele>31.8</ele>
        <time>2020-06-17T15:53:13Z</time>
      </trkpt>
      <trkpt lat="49.43906" lon="0.27315">
        <ele>31.8</ele>
        <time>2020-06-17T15:53:14Z</time>
      </trkpt>
      <trkpt lat="49.43907" lon="0.27316">
        <ele>31.7</ele>
        <time>2020-06-17T15:53:15Z</time>
      </trkpt>
      <trkpt lat="49.43907" lon="0.27316">
        <ele>31.6</ele>
        <time>2020-06-17T15:53:16Z</time>
      </trkpt>
      <trkpt lat="49.4391" lon="0.27316">
        <ele>31.5</ele>
        <time>2020-06-17T15:53:17Z</time>
      </trkpt>
      <trkpt lat="49.43911" lon="0.27315">
        <ele>31.4</ele>
        <time>2020-06-17T15:53:18Z</time>
      </trkpt>
      <trkpt lat="49.43912" lon="0.27315">
        <ele>31.3</ele>
        <time>2020-06-17T15:53:19Z</time>
      </trkpt>
      <trkpt lat="49.43913" lon="0.27316">
        <ele>31.2</ele>
        <time>2020-06-17T15:53:20Z</time>
      </trkpt>
      <trkpt lat="49.43914" lon="0.27315">
        <ele>31.1</ele>
        <time>2020-06-17T15:53:21Z</time>
      </trkpt>
      <trkpt lat="49.43915" lon="0.27314">
        <ele>31.1</ele>
        <time>2020-06-17T15:53:22Z</time>
      </trkpt>
      <trkpt lat="49.43916" lon="0.27314">
        <ele>31</ele>
        <time>2020-06-17T15:53:23Z</time>
      </trkpt>
      <trkpt lat="49.43917" lon="0.27314">
        <ele>30.9</ele>
        <time>2020-06-17T15:53:24Z</time>
      </trkpt>
      <trkpt lat="49.43918" lon="0.27313">
        <ele>30.8</ele>
        <time>2020-06-17T15:53:25Z</time>
      </trkpt>
      <trkpt lat="49.43919" lon="0.27313">
        <ele>30.8</ele>
        <time>2020-06-17T15:53:26Z</time>
      </trkpt>
      <trkpt lat="49.4392" lon="0.27312">
        <ele>30.7</ele>
        <time>2020-06-17T15:53:27Z</time>
      </trkpt>
      <trkpt lat="49.43923" lon="0.27314">
        <ele>30.5</ele>
        <time>2020-06-17T15:53:28Z</time>
      </trkpt>
      <trkpt lat="49.43924" lon="0.27315">
        <ele>30.5</ele>
        <time>2020-06-17T15:53:29Z</time>
      </trkpt>
      <trkpt lat="49.43926" lon="0.27316">
        <ele>30.4</ele>
        <time>2020-06-17T15:53:30Z</time>
      </trkpt>
      <trkpt lat="49.43927" lon="0.27315">
        <ele>30.3</ele>
        <time>2020-06-17T15:53:31Z</time>
      </trkpt>
      <trkpt lat="49.43928" lon="0.27315">
        <ele>30.2</ele>
        <time>2020-06-17T15:53:32Z</time>
      </trkpt>
      <trkpt lat="49.4393" lon="0.27315">
        <ele>30.1</ele>
        <time>2020-06-17T15:53:33Z</time>
      </trkpt>
      <trkpt lat="49.43932" lon="0.27315">
        <ele>30</ele>
        <time>2020-06-17T15:53:34Z</time>
      </trkpt>
      <trkpt lat="49.43933" lon="0.27315">
        <ele>29.9</ele>
        <time>2020-06-17T15:53:35Z</time>
      </trkpt>
      <trkpt lat="49.43934" lon="0.27314">
        <ele>29.8</ele>
        <time>2020-06-17T15:53:36Z</time>
      </trkpt>
      <trkpt lat="49.43936" lon="0.27314">
        <ele>29.7</ele>
        <time>2020-06-17T15:53:37Z</time>
      </trkpt>
      <trkpt lat="49.43937" lon="0.27314">
        <ele>29.6</ele>
        <time>2020-06-17T15:53:38Z</time>
      </trkpt>
      <trkpt lat="49.43938" lon="0.27313">
        <ele>29.6</ele>
        <time>2020-06-17T15:53:39Z</time>
      </trkpt>
      <trkpt lat="49.43939" lon="0.27314">
        <ele>29.5</ele>
        <time>2020-06-17T15:53:40Z</time>
      </trkpt>
      <trkpt lat="49.43941" lon="0.27315">
        <ele>29.4</ele>
        <time>2020-06-17T15:53:41Z</time>
      </trkpt>
      <trkpt lat="49.43943" lon="0.27314">
        <ele>29.3</ele>
        <time>2020-06-17T15:53:42Z</time>
      </trkpt>
      <trkpt lat="49.43944" lon="0.27314">
        <ele>29.2</ele>
        <time>2020-06-17T15:53:43Z</time>
      </trkpt>
      <trkpt lat="49.43945" lon="0.27314">
        <ele>29.1</ele>
        <time>2020-06-17T15:53:44Z</time>
      </trkpt>
      <trkpt lat="49.43946" lon="0.27315">
        <ele>29</ele>
        <time>2020-06-17T15:53:45Z</time>
      </trkpt>
      <trkpt lat="49.43949" lon="0.27315">
        <ele>28.8</ele>
        <time>2020-06-17T15:53:46Z</time>
      </trkpt>
      <trkpt lat="49.4395" lon="0.27315">
        <ele>28.7</ele>
        <time>2020-06-17T15:53:47Z</time>
      </trkpt>
      <trkpt lat="49.43952" lon="0.27315">
        <ele>28.6</ele>
        <time>2020-06-17T15:53:48Z</time>
      </trkpt>
      <trkpt lat="49.43953" lon="0.27315">
        <ele>28.5</ele>
        <time>2020-06-17T15:53:49Z</time>
      </trkpt>
      <trkpt lat="49.43955" lon="0.27314">
        <ele>28.4</ele>
        <time>2020-06-17T15:53:50Z</time>
      </trkpt>
      <trkpt lat="49.43956" lon="0.27313">
        <ele>28.3</ele>
        <time>2020-06-17T15:53:51Z</time>
      </trkpt>
      <trkpt lat="49.43959" lon="0.27312">
        <ele>28.1</ele>
        <time>2020-06-17T15:53:52Z</time>
      </trkpt>
      <trkpt lat="49.4396" lon="0.27312">
        <ele>28.1</ele>
        <time>2020-06-17T15:53:53Z</time>
      </trkpt>
      <trkpt lat="49.4396" lon="0.27311">
        <ele>28</ele>
        <time>2020-06-17T15:53:54Z</time>
      </trkpt>
      <trkpt lat="49.43962" lon="0.27311">
        <ele>27.9</ele>
        <time>2020-06-17T15:53:55Z</time>
      </trkpt>
      <trkpt lat="49.43963" lon="0.27309">
        <ele>27.8</ele>
        <time>2020-06-17T15:53:56Z</time>
      </trkpt>
      <trkpt lat="49.43965" lon="0.2731">
        <ele>27.7</ele>
        <time>2020-06-17T15:53:57Z</time>
      </trkpt>
      <trkpt lat="49.43967" lon="0.27309">
        <ele>27.6</ele>
        <time>2020-06-17T15:53:58Z</time>
      </trkpt>
      <trkpt lat="49.43968" lon="0.27309">
        <ele>27.5</ele>
        <time>2020-06-17T15:53:59Z</time>
      </trkpt>
      <trkpt lat="49.4397" lon="0.27309">
        <ele>27.4</ele>
        <time>2020-06-17T15:54:00Z</time>
      </trkpt>
      <trkpt lat="49.43971" lon="0.27307">
        <ele>27.3</ele>
        <time>2020-06-17T15:54:01Z</time>
      </trkpt>
      <trkpt lat="49.43972" lon="0.27306">
        <ele>27.2</ele>
        <time>2020-06-17T15:54:02Z</time>
      </trkpt>
      <trkpt lat="49.43975" lon="0.27306">
        <ele>27.1</ele>
        <time>2020-06-17T15:54:03Z</time>
      </trkpt>
      <trkpt lat="49.43975" lon="0.27305">
        <ele>27</ele>
        <time>2020-06-17T15:54:04Z</time>
      </trkpt>
      <trkpt lat="49.43976" lon="0.27305">
        <ele>27</ele>
        <time>2020-06-17T15:54:05Z</time>
      </trkpt>
      <trkpt lat="49.43978" lon="0.27305">
        <ele>26.9</ele>
        <time>2020-06-17T15:54:06Z</time>
      </trkpt>
      <trkpt lat="49.43979" lon="0.27305">
        <ele>26.8</ele>
        <time>2020-06-17T15:54:07Z</time>
      </trkpt>
      <trkpt lat="49.4398" lon="0.27306">
        <ele>26.7</ele>
        <time>2020-06-17T15:54:08Z</time>
      </trkpt>
      <trkpt lat="49.43982" lon="0.27305">
        <ele>26.7</ele>
        <time>2020-06-17T15:54:09Z</time>
      </trkpt>
      <trkpt lat="49.43983" lon="0.27305">
        <ele>26.6</ele>
        <time>2020-06-17T15:54:10Z</time>
      </trkpt>
      <trkpt lat="49.43984" lon="0.27306">
        <ele>26.5</ele>
        <time>2020-06-17T15:54:11Z</time>
      </trkpt>
      <trkpt lat="49.43987" lon="0.27305">
        <ele>26.4</ele>
        <time>2020-06-17T15:54:12Z</time>
      </trkpt>
      <trkpt lat="49.43988" lon="0.27304">
        <ele>26.3</ele>
        <time>2020-06-17T15:54:13Z</time>
      </trkpt>
      <trkpt lat="49.4399" lon="0.27304">
        <ele>26.2</ele>
        <time>2020-06-17T15:54:14Z</time>
      </trkpt>
      <trkpt lat="49.43991" lon="0.27303">
        <ele>26.1</ele>
        <time>2020-06-17T15:54:15Z</time>
      </trkpt>
      <trkpt lat="49.43993" lon="0.27304">
        <ele>26</ele>
        <time>2020-06-17T15:54:16Z</time>
      </trkpt>
      <trkpt lat="49.43994" lon="0.27304">
        <ele>26</ele>
        <time>2020-06-17T15:54:17Z</time>
      </trkpt>
      <trkpt lat="49.43995" lon="0.27304">
        <ele>25.9</ele>
        <time>2020-06-17T15:54:18Z</time>
      </trkpt>
      <trkpt lat="49.43996" lon="0.27304">
        <ele>25.9</ele>
        <time>2020-06-17T15:54:19Z</time>
      </trkpt>
      <trkpt lat="49.43998" lon="0.27304">
        <ele>25.8</ele>
        <time>2020-06-17T15:54:20Z</time>
      </trkpt>
      <trkpt lat="49.43999" lon="0.27303">
        <ele>25.7</ele>
        <time>2020-06-17T15:54:21Z</time>
      </trkpt>
      <trkpt lat="49.44001" lon="0.27302">
        <ele>25.7</ele>
        <time>2020-06-17T15:54:22Z</time>
      </trkpt>
      <trkpt lat="49.44003" lon="0.27302">
        <ele>25.6</ele>
        <time>2020-06-17T15:54:23Z</time>
      </trkpt>
      <trkpt lat="49.44004" lon="0.27302">
        <ele>25.6</ele>
        <time>2020-06-17T15:54:24Z</time>
      </trkpt>
      <trkpt lat="49.44005" lon="0.27302">
        <ele>25.5</ele>
        <time>2020-06-17T15:54:25Z</time>
      </trkpt>
      <trkpt lat="49.44007" lon="0.27302">
        <ele>25.5</ele>
        <time>2020-06-17T15:54:26Z</time>
      </trkpt>
      <trkpt lat="49.44008" lon="0.27303">
        <ele>25.4</ele>
        <time>2020-06-17T15:54:27Z</time>
      </trkpt>
      <trkpt lat="49.4401" lon="0.27303">
        <ele>25.4</ele>
        <time>2020-06-17T15:54:28Z</time>
      </trkpt>
      <trkpt lat="49.44012" lon="0.27303">
        <ele>25.4</ele>
        <time>2020-06-17T15:54:29Z</time>
      </trkpt>
      <trkpt lat="49.44014" lon="0.27301">
        <ele>25.3</ele>
        <time>2020-06-17T15:54:30Z</time>
      </trkpt>
      <trkpt lat="49.44015" lon="0.27301">
        <ele>25.3</ele>
        <time>2020-06-17T15:54:31Z</time>
      </trkpt>
      <trkpt lat="49.44016" lon="0.273">
        <ele>25.3</ele>
        <time>2020-06-17T15:54:32Z</time>
      </trkpt>
      <trkpt lat="49.44016" lon="0.273">
        <ele>25.3</ele>
        <time>2020-06-17T15:54:33Z</time>
      </trkpt>
      <trkpt lat="49.44017" lon="0.273">
        <ele>25.2</ele>
        <time>2020-06-17T15:54:34Z</time>
      </trkpt>
      <trkpt lat="49.44018" lon="0.27299">
        <ele>25.2</ele>
        <time>2020-06-17T15:54:35Z</time>
      </trkpt>
      <trkpt lat="49.44019" lon="0.27298">
        <ele>25.2</ele>
        <time>2020-06-17T15:54:36Z</time>
      </trkpt>
      <trkpt lat="49.4402" lon="0.27298">
        <ele>25.2</ele>
        <time>2020-06-17T15:54:37Z</time>
      </trkpt>
      <trkpt lat="49.44022" lon="0.27297">
        <ele>25.2</ele>
        <time>2020-06-17T15:54:38Z</time>
      </trkpt>
      <trkpt lat="49.44023" lon="0.27297">
        <ele>25.1</ele>
        <time>2020-06-17T15:54:39Z</time>
      </trkpt>
      <trkpt lat="49.44024" lon="0.27297">
        <ele>25.1</ele>
        <time>2020-06-17T15:54:40Z</time>
      </trkpt>
      <trkpt lat="49.44025" lon="0.27297">
        <ele>25.1</ele>
        <time>2020-06-17T15:54:41Z</time>
      </trkpt>
      <trkpt lat="49.44026" lon="0.27297">
        <ele>25</ele>
        <time>2020-06-17T15:54:42Z</time>
      </trkpt>
      <trkpt lat="49.44028" lon="0.27296">
        <ele>24.9</ele>
        <time>2020-06-17T15:54:43Z</time>
      </trkpt>
      <trkpt lat="49.44029" lon="0.27295">
        <ele>24.8</ele>
        <time>2020-06-17T15:54:44Z</time>
      </trkpt>
      <trkpt lat="49.4403" lon="0.27295">
        <ele>24.7</ele>
        <time>2020-06-17T15:54:45Z</time>
      </trkpt>
      <trkpt lat="49.44032" lon="0.27295">
        <ele>24.6</ele>
        <time>2020-06-17T15:54:46Z</time>
      </trkpt>
      <trkpt lat="49.44033" lon="0.27295">
        <ele>24.5</ele>
        <time>2020-06-17T15:54:47Z</time>
      </trkpt>
      <trkpt lat="49.44034" lon="0.27295">
        <ele>24.5</ele>
        <time>2020-06-17T15:54:48Z</time>
      </trkpt>
      <trkpt lat="49.44035" lon="0.27295">
        <ele>24.4</ele>
        <time>2020-06-17T15:54:49Z</time>
      </trkpt>
      <trkpt lat="49.44036" lon="0.27295">
        <ele>24.3</ele>
        <time>2020-06-17T15:54:50Z</time>
      </trkpt>
      <trkpt lat="49.44038" lon="0.27295">
        <ele>24.3</ele>
        <time>2020-06-17T15:54:51Z</time>
      </trkpt>
      <trkpt lat="49.4404" lon="0.27296">
        <ele>24.1</ele>
        <time>2020-06-17T15:54:52Z</time>
      </trkpt>
      <trkpt lat="49.44041" lon="0.27297">
        <ele>24</ele>
        <time>2020-06-17T15:54:53Z</time>
      </trkpt>
      <trkpt lat="49.44043" lon="0.27297">
        <ele>23.9</ele>
        <time>2020-06-17T15:54:54Z</time>
      </trkpt>
      <trkpt lat="49.44044" lon="0.27297">
        <ele>23.8</ele>
        <time>2020-06-17T15:54:55Z</time>
      </trkpt>
      <trkpt lat="49.44045" lon="0.27297">
        <ele>23.8</ele>
        <time>2020-06-17T15:54:56Z</time>
      </trkpt>
      <trkpt lat="49.44047" lon="0.27298">
        <ele>23.7</ele>
        <time>2020-06-17T15:54:57Z</time>
      </trkpt>
      <trkpt lat="49.44048" lon="0.27298">
        <ele>23.6</ele>
        <time>2020-06-17T15:54:58Z</time>
      </trkpt>
      <trkpt lat="49.44049" lon="0.27298">
        <ele>23.5</ele>
        <time>2020-06-17T15:54:59Z</time>
      </trkpt>
      <trkpt lat="49.44052" lon="0.27298">
        <ele>23.3</ele>
        <time>2020-06-17T15:55:00Z</time>
      </trkpt>
      <trkpt lat="49.44055" lon="0.27299">
        <ele>23.1</ele>
        <time>2020-06-17T15:55:01Z</time>
      </trkpt>
      <trkpt lat="49.44056" lon="0.27299">
        <ele>23</ele>
        <time>2020-06-17T15:55:02Z</time>
      </trkpt>
      <trkpt lat="49.44059" lon="0.27299">
        <ele>22.8</ele>
        <time>2020-06-17T15:55:03Z</time>
      </trkpt>
      <trkpt lat="49.4406" lon="0.27299">
        <ele>22.8</ele>
        <time>2020-06-17T15:55:04Z</time>
      </trkpt>
      <trkpt lat="49.44061" lon="0.27298">
        <ele>22.7</ele>
        <time>2020-06-17T15:55:05Z</time>
      </trkpt>
      <trkpt lat="49.44062" lon="0.27298">
        <ele>22.6</ele>
        <time>2020-06-17T15:55:06Z</time>
      </trkpt>
      <trkpt lat="49.44063" lon="0.27297">
        <ele>22.5</ele>
        <time>2020-06-17T15:55:07Z</time>
      </trkpt>
      <trkpt lat="49.44065" lon="0.27297">
        <ele>22.4</ele>
        <time>2020-06-17T15:55:08Z</time>
      </trkpt>
      <trkpt lat="49.44066" lon="0.27296">
        <ele>22.3</ele>
        <time>2020-06-17T15:55:09Z</time>
      </trkpt>
      <trkpt lat="49.44067" lon="0.27296">
        <ele>22.3</ele>
        <time>2020-06-17T15:55:10Z</time>
      </trkpt>
      <trkpt lat="49.44069" lon="0.27296">
        <ele>22.2</ele>
        <time>2020-06-17T15:55:11Z</time>
      </trkpt>
      <trkpt lat="49.4407" lon="0.27295">
        <ele>22.1</ele>
        <time>2020-06-17T15:55:12Z</time>
      </trkpt>
      <trkpt lat="49.44072" lon="0.27295">
        <ele>22</ele>
        <time>2020-06-17T15:55:13Z</time>
      </trkpt>
      <trkpt lat="49.44073" lon="0.27294">
        <ele>21.9</ele>
        <time>2020-06-17T15:55:14Z</time>
      </trkpt>
      <trkpt lat="49.44074" lon="0.27295">
        <ele>21.8</ele>
        <time>2020-06-17T15:55:15Z</time>
      </trkpt>
      <trkpt lat="49.44075" lon="0.27295">
        <ele>21.7</ele>
        <time>2020-06-17T15:55:16Z</time>
      </trkpt>
      <trkpt lat="49.44076" lon="0.27295">
        <ele>21.7</ele>
        <time>2020-06-17T15:55:17Z</time>
      </trkpt>
      <trkpt lat="49.44078" lon="0.27294">
        <ele>21.5</ele>
        <time>2020-06-17T15:55:18Z</time>
      </trkpt>
      <trkpt lat="49.44079" lon="0.27294">
        <ele>21.5</ele>
        <time>2020-06-17T15:55:19Z</time>
      </trkpt>
      <trkpt lat="49.4408" lon="0.27294">
        <ele>21.4</ele>
        <time>2020-06-17T15:55:20Z</time>
      </trkpt>
      <trkpt lat="49.44081" lon="0.27294">
        <ele>21.3</ele>
        <time>2020-06-17T15:55:21Z</time>
      </trkpt>
      <trkpt lat="49.44083" lon="0.27294">
        <ele>21.2</ele>
        <time>2020-06-17T15:55:22Z</time>
      </trkpt>
      <trkpt lat="49.44084" lon="0.27295">
        <ele>21.1</ele>
        <time>2020-06-17T15:55:23Z</time>
      </trkpt>
      <trkpt lat="49.44085" lon="0.27294">
        <ele>21.1</ele>
        <time>2020-06-17T15:55:24Z</time>
      </trkpt>
      <trkpt lat="49.44086" lon="0.27294">
        <ele>21</ele>
        <time>2020-06-17T15:55:25Z</time>
      </trkpt>
      <trkpt lat="49.44087" lon="0.27292">
        <ele>20.9</ele>
        <time>2020-06-17T15:55:26Z</time>
      </trkpt>
      <trkpt lat="49.44088" lon="0.27291">
        <ele>20.8</ele>
        <time>2020-06-17T15:55:27Z</time>
      </trkpt>
      <trkpt lat="49.44092" lon="0.27291">
        <ele>20.6</ele>
        <time>2020-06-17T15:55:28Z</time>
      </trkpt>
      <trkpt lat="49.44093" lon="0.27291">
        <ele>20.5</ele>
        <time>2020-06-17T15:55:29Z</time>
      </trkpt>
      <trkpt lat="49.44094" lon="0.27292">
        <ele>20.4</ele>
        <time>2020-06-17T15:55:30Z</time>
      </trkpt>
      <trkpt lat="49.44096" lon="0.27291">
        <ele>20.3</ele>
        <time>2020-06-17T15:55:31Z</time>
      </trkpt>
      <trkpt lat="49.44098" lon="0.2729">
        <ele>20.2</ele>
        <time>2020-06-17T15:55:32Z</time>
      </trkpt>
      <trkpt lat="49.44099" lon="0.2729">
        <ele>20.1</ele>
        <time>2020-06-17T15:55:33Z</time>
      </trkpt>
      <trkpt lat="49.44099" lon="0.27289">
        <ele>20.1</ele>
        <time>2020-06-17T15:55:34Z</time>
      </trkpt>
      <trkpt lat="49.44101" lon="0.27288">
        <ele>19.9</ele>
        <time>2020-06-17T15:55:35Z</time>
      </trkpt>
      <trkpt lat="49.44102" lon="0.27287">
        <ele>19.9</ele>
        <time>2020-06-17T15:55:36Z</time>
      </trkpt>
      <trkpt lat="49.44103" lon="0.27287">
        <ele>19.8</ele>
        <time>2020-06-17T15:55:37Z</time>
      </trkpt>
      <trkpt lat="49.44106" lon="0.27287">
        <ele>19.6</ele>
        <time>2020-06-17T15:55:38Z</time>
      </trkpt>
      <trkpt lat="49.44108" lon="0.27288">
        <ele>19.5</ele>
        <time>2020-06-17T15:55:39Z</time>
      </trkpt>
      <trkpt lat="49.44111" lon="0.27287">
        <ele>19.3</ele>
        <time>2020-06-17T15:55:40Z</time>
      </trkpt>
      <trkpt lat="49.44111" lon="0.27287">
        <ele>19.3</ele>
        <time>2020-06-17T15:55:41Z</time>
      </trkpt>
      <trkpt lat="49.44113" lon="0.27287">
        <ele>19.1</ele>
        <time>2020-06-17T15:55:42Z</time>
      </trkpt>
      <trkpt lat="49.44115" lon="0.27287">
        <ele>19.1</ele>
        <time>2020-06-17T15:55:43Z</time>
      </trkpt>
      <trkpt lat="49.44116" lon="0.27287">
        <ele>19</ele>
        <time>2020-06-17T15:55:44Z</time>
      </trkpt>
      <trkpt lat="49.44117" lon="0.27287">
        <ele>18.9</ele>
        <time>2020-06-17T15:55:45Z</time>
      </trkpt>
      <trkpt lat="49.4412" lon="0.27287">
        <ele>18.7</ele>
        <time>2020-06-17T15:55:46Z</time>
      </trkpt>
      <trkpt lat="49.4412" lon="0.27286">
        <ele>18.7</ele>
        <time>2020-06-17T15:55:47Z</time>
      </trkpt>
      <trkpt lat="49.44121" lon="0.27286">
        <ele>18.6</ele>
        <time>2020-06-17T15:55:48Z</time>
      </trkpt>
      <trkpt lat="49.44123" lon="0.27285">
        <ele>18.5</ele>
        <time>2020-06-17T15:55:49Z</time>
      </trkpt>
      <trkpt lat="49.44124" lon="0.27286">
        <ele>18.4</ele>
        <time>2020-06-17T15:55:50Z</time>
      </trkpt>
      <trkpt lat="49.44126" lon="0.27285">
        <ele>18.3</ele>
        <time>2020-06-17T15:55:51Z</time>
      </trkpt>
      <trkpt lat="49.44127" lon="0.27284">
        <ele>18.2</ele>
        <time>2020-06-17T15:55:52Z</time>
      </trkpt>
      <trkpt lat="49.44129" lon="0.27283">
        <ele>18.1</ele>
        <time>2020-06-17T15:55:53Z</time>
      </trkpt>
      <trkpt lat="49.4413" lon="0.27283">
        <ele>18</ele>
        <time>2020-06-17T15:55:54Z</time>
      </trkpt>
      <trkpt lat="49.44131" lon="0.27283">
        <ele>18</ele>
        <time>2020-06-17T15:55:55Z</time>
      </trkpt>
      <trkpt lat="49.44132" lon="0.27283">
        <ele>17.9</ele>
        <time>2020-06-17T15:55:56Z</time>
      </trkpt>
      <trkpt lat="49.44133" lon="0.27284">
        <ele>17.8</ele>
        <time>2020-06-17T15:55:57Z</time>
      </trkpt>
      <trkpt lat="49.44136" lon="0.27283">
        <ele>17.7</ele>
        <time>2020-06-17T15:55:58Z</time>
      </trkpt>
      <trkpt lat="49.44136" lon="0.27283">
        <ele>17.6</ele>
        <time>2020-06-17T15:55:59Z</time>
      </trkpt>
      <trkpt lat="49.44137" lon="0.27283">
        <ele>17.6</ele>
        <time>2020-06-17T15:56:00Z</time>
      </trkpt>
      <trkpt lat="49.44138" lon="0.27283">
        <ele>17.5</ele>
        <time>2020-06-17T15:56:01Z</time>
      </trkpt>
      <trkpt lat="49.4414" lon="0.27282">
        <ele>17.4</ele>
        <time>2020-06-17T15:56:02Z</time>
      </trkpt>
      <trkpt lat="49.44142" lon="0.27281">
        <ele>17.3</ele>
        <time>2020-06-17T15:56:03Z</time>
      </trkpt>
      <trkpt lat="49.44143" lon="0.27281">
        <ele>17.2</ele>
        <time>2020-06-17T15:56:04Z</time>
      </trkpt>
      <trkpt lat="49.44145" lon="0.27281">
        <ele>17.1</ele>
        <time>2020-06-17T15:56:05Z</time>
      </trkpt>
      <trkpt lat="49.44147" lon="0.2728">
        <ele>17</ele>
        <time>2020-06-17T15:56:06Z</time>
      </trkpt>
      <trkpt lat="49.44148" lon="0.2728">
        <ele>16.9</ele>
        <time>2020-06-17T15:56:07Z</time>
      </trkpt>
      <trkpt lat="49.4415" lon="0.2728">
        <ele>16.8</ele>
        <time>2020-06-17T15:56:08Z</time>
      </trkpt>
      <trkpt lat="49.44151" lon="0.27279">
        <ele>16.7</ele>
        <time>2020-06-17T15:56:09Z</time>
      </trkpt>
      <trkpt lat="49.44152" lon="0.27279">
        <ele>16.6</ele>
        <time>2020-06-17T15:56:10Z</time>
      </trkpt>
      <trkpt lat="49.44153" lon="0.27279">
        <ele>16.5</ele>
        <time>2020-06-17T15:56:11Z</time>
      </trkpt>
      <trkpt lat="49.44154" lon="0.27279">
        <ele>16.5</ele>
        <time>2020-06-17T15:56:12Z</time>
      </trkpt>
      <trkpt lat="49.44155" lon="0.2728">
        <ele>16.4</ele>
        <time>2020-06-17T15:56:13Z</time>
      </trkpt>
      <trkpt lat="49.44155" lon="0.2728">
        <ele>16.4</ele>
        <time>2020-06-17T15:56:14Z</time>
      </trkpt>
      <trkpt lat="49.44155" lon="0.2728">
        <ele>16.4</ele>
        <time>2020-06-17T15:56:15Z</time>
      </trkpt>
      <trkpt lat="49.44155" lon="0.2728">
        <ele>16.4</ele>
        <time>2020-06-17T15:56:16Z</time>
      </trkpt>
      <trkpt lat="49.44155" lon="0.2728">
        <ele>16.3</ele>
        <time>2020-06-17T15:56:17Z</time>
      </trkpt>
      <trkpt lat="49.44156" lon="0.2728">
        <ele>16.3</ele>
        <time>2020-06-17T15:56:18Z</time>
      </trkpt>
      <trkpt lat="49.44156" lon="0.27279">
        <ele>16.3</ele>
        <time>2020-06-17T15:56:19Z</time>
      </trkpt>
      <trkpt lat="49.44158" lon="0.27277">
        <ele>16.2</ele>
        <time>2020-06-17T15:56:20Z</time>
      </trkpt>
      <trkpt lat="49.4416" lon="0.27277">
        <ele>16</ele>
        <time>2020-06-17T15:56:21Z</time>
      </trkpt>
      <trkpt lat="49.44161" lon="0.27278">
        <ele>15.9</ele>
        <time>2020-06-17T15:56:22Z</time>
      </trkpt>
      <trkpt lat="49.44164" lon="0.27277">
        <ele>15.8</ele>
        <time>2020-06-17T15:56:23Z</time>
      </trkpt>
      <trkpt lat="49.44165" lon="0.27277">
        <ele>15.7</ele>
        <time>2020-06-17T15:56:24Z</time>
      </trkpt>
      <trkpt lat="49.44167" lon="0.27276">
        <ele>15.6</ele>
        <time>2020-06-17T15:56:25Z</time>
      </trkpt>
      <trkpt lat="49.44168" lon="0.27276">
        <ele>15.5</ele>
        <time>2020-06-17T15:56:26Z</time>
      </trkpt>
      <trkpt lat="49.4417" lon="0.27275">
        <ele>15.4</ele>
        <time>2020-06-17T15:56:27Z</time>
      </trkpt>
      <trkpt lat="49.44171" lon="0.27275">
        <ele>15.3</ele>
        <time>2020-06-17T15:56:28Z</time>
      </trkpt>
      <trkpt lat="49.44172" lon="0.27275">
        <ele>15.2</ele>
        <time>2020-06-17T15:56:29Z</time>
      </trkpt>
      <trkpt lat="49.44175" lon="0.27277">
        <ele>15</ele>
        <time>2020-06-17T15:56:30Z</time>
      </trkpt>
      <trkpt lat="49.44176" lon="0.27277">
        <ele>15</ele>
        <time>2020-06-17T15:56:31Z</time>
      </trkpt>
      <trkpt lat="49.44177" lon="0.27277">
        <ele>14.9</ele>
        <time>2020-06-17T15:56:32Z</time>
      </trkpt>
      <trkpt lat="49.44179" lon="0.27277">
        <ele>14.8</ele>
        <time>2020-06-17T15:56:33Z</time>
      </trkpt>
      <trkpt lat="49.4418" lon="0.27277">
        <ele>14.8</ele>
        <time>2020-06-17T15:56:34Z</time>
      </trkpt>
      <trkpt lat="49.44183" lon="0.27276">
        <ele>14.6</ele>
        <time>2020-06-17T15:56:35Z</time>
      </trkpt>
      <trkpt lat="49.44184" lon="0.27277">
        <ele>14.5</ele>
        <time>2020-06-17T15:56:36Z</time>
      </trkpt>
      <trkpt lat="49.44185" lon="0.27277">
        <ele>14.5</ele>
        <time>2020-06-17T15:56:37Z</time>
      </trkpt>
      <trkpt lat="49.44186" lon="0.27276">
        <ele>14.4</ele>
        <time>2020-06-17T15:56:38Z</time>
      </trkpt>
      <trkpt lat="49.44188" lon="0.27276">
        <ele>14.3</ele>
        <time>2020-06-17T15:56:39Z</time>
      </trkpt>
      <trkpt lat="49.4419" lon="0.27276">
        <ele>14.2</ele>
        <time>2020-06-17T15:56:40Z</time>
      </trkpt>
      <trkpt lat="49.44191" lon="0.27275">
        <ele>14.1</ele>
        <time>2020-06-17T15:56:41Z</time>
      </trkpt>
      <trkpt lat="49.44193" lon="0.27275">
        <ele>13.9</ele>
        <time>2020-06-17T15:56:42Z</time>
      </trkpt>
      <trkpt lat="49.44195" lon="0.27275">
        <ele>13.8</ele>
        <time>2020-06-17T15:56:43Z</time>
      </trkpt>
      <trkpt lat="49.44196" lon="0.27275">
        <ele>13.7</ele>
        <time>2020-06-17T15:56:44Z</time>
      </trkpt>
      <trkpt lat="49.44197" lon="0.27275">
        <ele>13.7</ele>
        <time>2020-06-17T15:56:45Z</time>
      </trkpt>
      <trkpt lat="49.44199" lon="0.27274">
        <ele>13.6</ele>
        <time>2020-06-17T15:56:46Z</time>
      </trkpt>
      <trkpt lat="49.44201" lon="0.27274">
        <ele>13.4</ele>
        <time>2020-06-17T15:56:47Z</time>
      </trkpt>
      <trkpt lat="49.44202" lon="0.27273">
        <ele>13.3</ele>
        <time>2020-06-17T15:56:48Z</time>
      </trkpt>
      <trkpt lat="49.44204" lon="0.27273">
        <ele>13.2</ele>
        <time>2020-06-17T15:56:49Z</time>
      </trkpt>
      <trkpt lat="49.44205" lon="0.27274">
        <ele>13.1</ele>
        <time>2020-06-17T15:56:50Z</time>
      </trkpt>
      <trkpt lat="49.44207" lon="0.27274">
        <ele>13</ele>
        <time>2020-06-17T15:56:51Z</time>
      </trkpt>
      <trkpt lat="49.44208" lon="0.27274">
        <ele>13</ele>
        <time>2020-06-17T15:56:52Z</time>
      </trkpt>
      <trkpt lat="49.44209" lon="0.27274">
        <ele>12.9</ele>
        <time>2020-06-17T15:56:53Z</time>
      </trkpt>
      <trkpt lat="49.4421" lon="0.27274">
        <ele>12.8</ele>
        <time>2020-06-17T15:56:54Z</time>
      </trkpt>
      <trkpt lat="49.44212" lon="0.27273">
        <ele>12.7</ele>
        <time>2020-06-17T15:56:55Z</time>
      </trkpt>
      <trkpt lat="49.44213" lon="0.27273">
        <ele>12.6</ele>
        <time>2020-06-17T15:56:56Z</time>
      </trkpt>
      <trkpt lat="49.44214" lon="0.27273">
        <ele>12.6</ele>
        <time>2020-06-17T15:56:57Z</time>
      </trkpt>
      <trkpt lat="49.44215" lon="0.27274">
        <ele>12.5</ele>
        <time>2020-06-17T15:56:58Z</time>
      </trkpt>
      <trkpt lat="49.44217" lon="0.27273">
        <ele>12.4</ele>
        <time>2020-06-17T15:56:59Z</time>
      </trkpt>
      <trkpt lat="49.44218" lon="0.27273">
        <ele>12.3</ele>
        <time>2020-06-17T15:57:00Z</time>
      </trkpt>
      <trkpt lat="49.44219" lon="0.27273">
        <ele>12.2</ele>
        <time>2020-06-17T15:57:01Z</time>
      </trkpt>
      <trkpt lat="49.44221" lon="0.27272">
        <ele>12.1</ele>
        <time>2020-06-17T15:57:02Z</time>
      </trkpt>
      <trkpt lat="49.44222" lon="0.27271">
        <ele>12</ele>
        <time>2020-06-17T15:57:03Z</time>
      </trkpt>
      <trkpt lat="49.44224" lon="0.27271">
        <ele>12</ele>
        <time>2020-06-17T15:57:04Z</time>
      </trkpt>
      <trkpt lat="49.44225" lon="0.2727">
        <ele>11.9</ele>
        <time>2020-06-17T15:57:05Z</time>
      </trkpt>
      <trkpt lat="49.44227" lon="0.2727">
        <ele>11.8</ele>
        <time>2020-06-17T15:57:06Z</time>
      </trkpt>
      <trkpt lat="49.44228" lon="0.2727">
        <ele>11.7</ele>
        <time>2020-06-17T15:57:07Z</time>
      </trkpt>
      <trkpt lat="49.4423" lon="0.27271">
        <ele>11.6</ele>
        <time>2020-06-17T15:57:08Z</time>
      </trkpt>
      <trkpt lat="49.44233" lon="0.27271">
        <ele>11.4</ele>
        <time>2020-06-17T15:57:09Z</time>
      </trkpt>
      <trkpt lat="49.44233" lon="0.2727">
        <ele>11.3</ele>
        <time>2020-06-17T15:57:10Z</time>
      </trkpt>
      <trkpt lat="49.44235" lon="0.27269">
        <ele>11.2</ele>
        <time>2020-06-17T15:57:11Z</time>
      </trkpt>
      <trkpt lat="49.44236" lon="0.27269">
        <ele>11.2</ele>
        <time>2020-06-17T15:57:12Z</time>
      </trkpt>
      <trkpt lat="49.44238" lon="0.27269">
        <ele>11.1</ele>
        <time>2020-06-17T15:57:13Z</time>
      </trkpt>
      <trkpt lat="49.44239" lon="0.27269">
        <ele>11</ele>
        <time>2020-06-17T15:57:14Z</time>
      </trkpt>
      <trkpt lat="49.44241" lon="0.27268">
        <ele>10.9</ele>
        <time>2020-06-17T15:57:15Z</time>
      </trkpt>
      <trkpt lat="49.44243" lon="0.27268">
        <ele>10.8</ele>
        <time>2020-06-17T15:57:16Z</time>
      </trkpt>
      <trkpt lat="49.44244" lon="0.27268">
        <ele>10.7</ele>
        <time>2020-06-17T15:57:17Z</time>
      </trkpt>
      <trkpt lat="49.44246" lon="0.27268">
        <ele>10.6</ele>
        <time>2020-06-17T15:57:18Z</time>
      </trkpt>
      <trkpt lat="49.44247" lon="0.27268">
        <ele>10.5</ele>
        <time>2020-06-17T15:57:19Z</time>
      </trkpt>
      <trkpt lat="49.44248" lon="0.27269">
        <ele>10.5</ele>
        <time>2020-06-17T15:57:20Z</time>
      </trkpt>
      <trkpt lat="49.44249" lon="0.27269">
        <ele>10.4</ele>
        <time>2020-06-17T15:57:21Z</time>
      </trkpt>
      <trkpt lat="49.44251" lon="0.2727">
        <ele>10.3</ele>
        <time>2020-06-17T15:57:22Z</time>
      </trkpt>
      <trkpt lat="49.44253" lon="0.2727">
        <ele>10.2</ele>
        <time>2020-06-17T15:57:23Z</time>
      </trkpt>
      <trkpt lat="49.44254" lon="0.2727">
        <ele>10.2</ele>
        <time>2020-06-17T15:57:24Z</time>
      </trkpt>
      <trkpt lat="49.44255" lon="0.27271">
        <ele>10.1</ele>
        <time>2020-06-17T15:57:25Z</time>
      </trkpt>
      <trkpt lat="49.44256" lon="0.27271">
        <ele>10.1</ele>
        <time>2020-06-17T15:57:26Z</time>
      </trkpt>
      <trkpt lat="49.44257" lon="0.27271">
        <ele>10</ele>
        <time>2020-06-17T15:57:27Z</time>
      </trkpt>
      <trkpt lat="49.44259" lon="0.2727">
        <ele>9.9</ele>
        <time>2020-06-17T15:57:28Z</time>
      </trkpt>
      <trkpt lat="49.4426" lon="0.2727">
        <ele>9.8</ele>
        <time>2020-06-17T15:57:29Z</time>
      </trkpt>
      <trkpt lat="49.44262" lon="0.27269">
        <ele>9.7</ele>
        <time>2020-06-17T15:57:30Z</time>
      </trkpt>
      <trkpt lat="49.44262" lon="0.2727">
        <ele>9.7</ele>
        <time>2020-06-17T15:57:31Z</time>
      </trkpt>
      <trkpt lat="49.44264" lon="0.2727">
        <ele>9.6</ele>
        <time>2020-06-17T15:57:32Z</time>
      </trkpt>
      <trkpt lat="49.44265" lon="0.27269">
        <ele>9.5</ele>
        <time>2020-06-17T15:57:33Z</time>
      </trkpt>
      <trkpt lat="49.44266" lon="0.2727">
        <ele>9.5</ele>
        <time>2020-06-17T15:57:34Z</time>
      </trkpt>
      <trkpt lat="49.44266" lon="0.2727">
        <ele>9.5</ele>
        <time>2020-06-17T15:57:35Z</time>
      </trkpt>
      <trkpt lat="49.44268" lon="0.2727">
        <ele>9.4</ele>
        <time>2020-06-17T15:57:36Z</time>
      </trkpt>
      <trkpt lat="49.44269" lon="0.2727">
        <ele>9.3</ele>
        <time>2020-06-17T15:57:37Z</time>
      </trkpt>
      <trkpt lat="49.4427" lon="0.27271">
        <ele>9.3</ele>
        <time>2020-06-17T15:57:38Z</time>
      </trkpt>
      <trkpt lat="49.44271" lon="0.2727">
        <ele>9.2</ele>
        <time>2020-06-17T15:57:39Z</time>
      </trkpt>
      <trkpt lat="49.44272" lon="0.2727">
        <ele>9.1</ele>
        <time>2020-06-17T15:57:40Z</time>
      </trkpt>
      <trkpt lat="49.44273" lon="0.2727">
        <ele>9.1</ele>
        <time>2020-06-17T15:57:41Z</time>
      </trkpt>
      <trkpt lat="49.44274" lon="0.2727">
        <ele>9</ele>
        <time>2020-06-17T15:57:42Z</time>
      </trkpt>
      <trkpt lat="49.44275" lon="0.2727">
        <ele>9</ele>
        <time>2020-06-17T15:57:43Z</time>
      </trkpt>
      <trkpt lat="49.44275" lon="0.2727">
        <ele>9</ele>
        <time>2020-06-17T15:57:44Z</time>
      </trkpt>
      <trkpt lat="49.44275" lon="0.2727">
        <ele>9</ele>
        <time>2020-06-17T15:57:45Z</time>
      </trkpt>
      <trkpt lat="49.44275" lon="0.2727">
        <ele>9</ele>
        <time>2020-06-17T15:57:46Z</time>
      </trkpt>
      <trkpt lat="49.44275" lon="0.2727">
        <ele>9</ele>
        <time>2020-06-17T15:57:47Z</time>
      </trkpt>
      <trkpt lat="49.44275" lon="0.2727">
        <ele>9</ele>
        <time>2020-06-17T15:57:48Z</time>
      </trkpt>
      <trkpt lat="49.44275" lon="0.2727">
        <ele>9</ele>
        <time>2020-06-17T15:57:49Z</time>
      </trkpt>
      <trkpt lat="49.44275" lon="0.2727">
        <ele>9</ele>
        <time>2020-06-17T15:57:50Z</time>
      </trkpt>
      <trkpt lat="49.44275" lon="0.2727">
        <ele>8.9</ele>
        <time>2020-06-17T15:57:51Z</time>
      </trkpt>
      <trkpt lat="49.44275" lon="0.2727">
        <ele>8.9</ele>
        <time>2020-06-17T15:57:52Z</time>
      </trkpt>
      <trkpt lat="49.44275" lon="0.2727">
        <ele>8.9</ele>
        <time>2020-06-17T15:57:53Z</time>
      </trkpt>
      <trkpt lat="49.44282" lon="0.2727">
        <ele>8</ele>
        <time>2020-06-17T15:58:00Z</time>
      </trkpt>
      <trkpt lat="49.44286" lon="0.27271">
        <ele>7.8</ele>
        <time>2020-06-17T15:58:01Z</time>
      </trkpt>
      <trkpt lat="49.4429" lon="0.2727">
        <ele>7.5</ele>
        <time>2020-06-17T15:58:02Z</time>
      </trkpt>
      <trkpt lat="49.44294" lon="0.27269">
        <ele>7.3</ele>
        <time>2020-06-17T15:58:03Z</time>
      </trkpt>
      <trkpt lat="49.44298" lon="0.27268">
        <ele>7.1</ele>
        <time>2020-06-17T15:58:04Z</time>
      </trkpt>
      <trkpt lat="49.44302" lon="0.27267">
        <ele>6.9</ele>
        <time>2020-06-17T15:58:05Z</time>
      </trkpt>
      <trkpt lat="49.44305" lon="0.27266">
        <ele>6.8</ele>
        <time>2020-06-17T15:58:06Z</time>
      </trkpt>
      <trkpt lat="49.44308" lon="0.27267">
        <ele>6.7</ele>
        <time>2020-06-17T15:58:07Z</time>
      </trkpt>
      <trkpt lat="49.44311" lon="0.27268">
        <ele>6.6</ele>
        <time>2020-06-17T15:58:08Z</time>
      </trkpt>
      <trkpt lat="49.44314" lon="0.27269">
        <ele>6.5</ele>
        <time>2020-06-17T15:58:09Z</time>
      </trkpt>
      <trkpt lat="49.44317" lon="0.2727">
        <ele>6.4</ele>
        <time>2020-06-17T15:58:10Z</time>
      </trkpt>
      <trkpt lat="49.4432" lon="0.27271">
        <ele>6.3</ele>
        <time>2020-06-17T15:58:11Z</time>
      </trkpt>
      <trkpt lat="49.44321" lon="0.27271">
        <ele>6.3</ele>
        <time>2020-06-17T15:58:12Z</time>
      </trkpt>
      <trkpt lat="49.44326" lon="0.27272">
        <ele>6.3</ele>
        <time>2020-06-17T15:58:13Z</time>
      </trkpt>
      <trkpt lat="49.44327" lon="0.27272">
        <ele>6.3</ele>
        <time>2020-06-17T15:58:14Z</time>
      </trkpt>
      <trkpt lat="49.4433" lon="0.27272">
        <ele>6.3</ele>
        <time>2020-06-17T15:58:15Z</time>
      </trkpt>
      <trkpt lat="49.44333" lon="0.27271">
        <ele>6.2</ele>
        <time>2020-06-17T15:58:16Z</time>
      </trkpt>
      <trkpt lat="49.44337" lon="0.27273">
        <ele>6.2</ele>
        <time>2020-06-17T15:58:17Z</time>
      </trkpt>
      <trkpt lat="49.4434" lon="0.27272">
        <ele>6.2</ele>
        <time>2020-06-17T15:58:18Z</time>
      </trkpt>
      <trkpt lat="49.44344" lon="0.27272">
        <ele>6.2</ele>
        <time>2020-06-17T15:58:19Z</time>
      </trkpt>
      <trkpt lat="49.44345" lon="0.27272">
        <ele>6.2</ele>
        <time>2020-06-17T15:58:20Z</time>
      </trkpt>
      <trkpt lat="49.44349" lon="0.27272">
        <ele>6.2</ele>
        <time>2020-06-17T15:58:21Z</time>
      </trkpt>
      <trkpt lat="49.4435" lon="0.27272">
        <ele>6.2</ele>
        <time>2020-06-17T15:58:22Z</time>
      </trkpt>
      <trkpt lat="49.44354" lon="0.27272">
        <ele>6.3</ele>
        <time>2020-06-17T15:58:23Z</time>
      </trkpt>
      <trkpt lat="49.44355" lon="0.27272">
        <ele>6.3</ele>
        <time>2020-06-17T15:58:24Z</time>
      </trkpt>
      <trkpt lat="49.44356" lon="0.27271">
        <ele>6.3</ele>
        <time>2020-06-17T15:58:25Z</time>
      </trkpt>
      <trkpt lat="49.44357" lon="0.27271">
        <ele>6.3</ele>
        <time>2020-06-17T15:58:26Z</time>
      </trkpt>
      <trkpt lat="49.44358" lon="0.27271">
        <ele>6.3</ele>
        <time>2020-06-17T15:58:27Z</time>
      </trkpt>
      <trkpt lat="49.44358" lon="0.2727">
        <ele>6.3</ele>
        <time>2020-06-17T15:58:28Z</time>
      </trkpt>
      <trkpt lat="49.44358" lon="0.2727">
        <ele>6.3</ele>
        <time>2020-06-17T15:58:29Z</time>
      </trkpt>
      <trkpt lat="49.44358" lon="0.27271">
        <ele>6.3</ele>
        <time>2020-06-17T15:58:30Z</time>
      </trkpt>
      <trkpt lat="49.44358" lon="0.27272">
        <ele>6.3</ele>
        <time>2020-06-17T15:58:31Z</time>
      </trkpt>
      <trkpt lat="49.44357" lon="0.27271">
        <ele>6.3</ele>
        <time>2020-06-17T15:58:32Z</time>
      </trkpt>
      <trkpt lat="49.44357" lon="0.27271">
        <ele>6.3</ele>
        <time>2020-06-17T15:58:33Z</time>
      </trkpt>
      <trkpt lat="49.44358" lon="0.27271">
        <ele>6.3</ele>
        <time>2020-06-17T15:58:34Z</time>
      </trkpt>
      <trkpt lat="49.44358" lon="0.27271">
        <ele>6.3</ele>
        <time>2020-06-17T15:58:35Z</time>
      </trkpt>
      <trkpt lat="49.44358" lon="0.27271">
        <ele>6.3</ele>
        <time>2020-06-17T15:58:36Z</time>
      </trkpt>
      <trkpt lat="49.44358" lon="0.27271">
        <ele>6.3</ele>
        <time>2020-06-17T15:58:37Z</time>
      </trkpt>
      <trkpt lat="49.44361" lon="0.27264">
        <ele>6.3</ele>
        <time>2020-06-17T16:02:52Z</time>
      </trkpt>
      <trkpt lat="49.44363" lon="0.27263">
        <ele>6.3</ele>
        <time>2020-06-17T16:02:53Z</time>
      </trkpt>
      <trkpt lat="49.44367" lon="0.27263">
        <ele>6.3</ele>
        <time>2020-06-17T16:02:54Z</time>
      </trkpt>
      <trkpt lat="49.44369" lon="0.27263">
        <ele>6.3</ele>
        <time>2020-06-17T16:02:55Z</time>
      </trkpt>
      <trkpt lat="49.44372" lon="0.27263">
        <ele>6.3</ele>
        <time>2020-06-17T16:02:56Z</time>
      </trkpt>
      <trkpt lat="49.44376" lon="0.27263">
        <ele>6.3</ele>
        <time>2020-06-17T16:02:57Z</time>
      </trkpt>
      <trkpt lat="49.44379" lon="0.27263">
        <ele>6.3</ele>
        <time>2020-06-17T16:02:58Z</time>
      </trkpt>
      <trkpt lat="49.44383" lon="0.27263">
        <ele>6.3</ele>
        <time>2020-06-17T16:02:59Z</time>
      </trkpt>
      <trkpt lat="49.44386" lon="0.27262">
        <ele>6.3</ele>
        <time>2020-06-17T16:03:00Z</time>
      </trkpt>
      <trkpt lat="49.4439" lon="0.27261">
        <ele>6.3</ele>
        <time>2020-06-17T16:03:01Z</time>
      </trkpt>
      <trkpt lat="49.44394" lon="0.2726">
        <ele>6.3</ele>
        <time>2020-06-17T16:03:02Z</time>
      </trkpt>
      <trkpt lat="49.44398" lon="0.27259">
        <ele>6.3</ele>
        <time>2020-06-17T16:03:03Z</time>
      </trkpt>
      <trkpt lat="49.44402" lon="0.27258">
        <ele>6.4</ele>
        <time>2020-06-17T16:03:04Z</time>
      </trkpt>
      <trkpt lat="49.44405" lon="0.27257">
        <ele>6.4</ele>
        <time>2020-06-17T16:03:05Z</time>
      </trkpt>
      <trkpt lat="49.44409" lon="0.27256">
        <ele>6.4</ele>
        <time>2020-06-17T16:03:06Z</time>
      </trkpt>
      <trkpt lat="49.44414" lon="0.27254">
        <ele>6.4</ele>
        <time>2020-06-17T16:03:07Z</time>
      </trkpt>
      <trkpt lat="49.44418" lon="0.27253">
        <ele>6.4</ele>
        <time>2020-06-17T16:03:08Z</time>
      </trkpt>
      <trkpt lat="49.44422" lon="0.27252">
        <ele>6.4</ele>
        <time>2020-06-17T16:03:09Z</time>
      </trkpt>
      <trkpt lat="49.44426" lon="0.27251">
        <ele>6.4</ele>
        <time>2020-06-17T16:03:10Z</time>
      </trkpt>
      <trkpt lat="49.4443" lon="0.2725">
        <ele>6.4</ele>
        <time>2020-06-17T16:03:11Z</time>
      </trkpt>
      <trkpt lat="49.44434" lon="0.27248">
        <ele>6.5</ele>
        <time>2020-06-17T16:03:12Z</time>
      </trkpt>
      <trkpt lat="49.44438" lon="0.27248">
        <ele>6.5</ele>
        <time>2020-06-17T16:03:13Z</time>
      </trkpt>
      <trkpt lat="49.44441" lon="0.27247">
        <ele>6.5</ele>
        <time>2020-06-17T16:03:14Z</time>
      </trkpt>
      <trkpt lat="49.44445" lon="0.27247">
        <ele>6.5</ele>
        <time>2020-06-17T16:03:15Z</time>
      </trkpt>
      <trkpt lat="49.44449" lon="0.27246">
        <ele>6.5</ele>
        <time>2020-06-17T16:03:16Z</time>
      </trkpt>
      <trkpt lat="49.44453" lon="0.27246">
        <ele>6.5</ele>
        <time>2020-06-17T16:03:17Z</time>
      </trkpt>
      <trkpt lat="49.44456" lon="0.27246">
        <ele>6.4</ele>
        <time>2020-06-17T16:03:18Z</time>
      </trkpt>
      <trkpt lat="49.4446" lon="0.27246">
        <ele>6.4</ele>
        <time>2020-06-17T16:03:19Z</time>
      </trkpt>
      <trkpt lat="49.44464" lon="0.27246">
        <ele>6.4</ele>
        <time>2020-06-17T16:03:20Z</time>
      </trkpt>
      <trkpt lat="49.44468" lon="0.27245">
        <ele>6.4</ele>
        <time>2020-06-17T16:03:21Z</time>
      </trkpt>
      <trkpt lat="49.44473" lon="0.27244">
        <ele>6.4</ele>
        <time>2020-06-17T16:03:22Z</time>
      </trkpt>
      <trkpt lat="49.44477" lon="0.27244">
        <ele>6.4</ele>
        <time>2020-06-17T16:03:23Z</time>
      </trkpt>
      <trkpt lat="49.4448" lon="0.27244">
        <ele>6.4</ele>
        <time>2020-06-17T16:03:24Z</time>
      </trkpt>
      <trkpt lat="49.44484" lon="0.27244">
        <ele>6.4</ele>
        <time>2020-06-17T16:03:25Z</time>
      </trkpt>
      <trkpt lat="49.44487" lon="0.27244">
        <ele>6.3</ele>
        <time>2020-06-17T16:03:26Z</time>
      </trkpt>
      <trkpt lat="49.44492" lon="0.27244">
        <ele>6.3</ele>
        <time>2020-06-17T16:03:27Z</time>
      </trkpt>
      <trkpt lat="49.44496" lon="0.27243">
        <ele>6.3</ele>
        <time>2020-06-17T16:03:28Z</time>
      </trkpt>
      <trkpt lat="49.44501" lon="0.27243">
        <ele>6.3</ele>
        <time>2020-06-17T16:03:29Z</time>
      </trkpt>
      <trkpt lat="49.44505" lon="0.27243">
        <ele>6.3</ele>
        <time>2020-06-17T16:03:30Z</time>
      </trkpt>
      <trkpt lat="49.4451" lon="0.27243">
        <ele>6.3</ele>
        <time>2020-06-17T16:03:31Z</time>
      </trkpt>
      <trkpt lat="49.44515" lon="0.2724">
        <ele>6.2</ele>
        <time>2020-06-17T16:03:32Z</time>
      </trkpt>
      <trkpt lat="49.4452" lon="0.2724">
        <ele>6.2</ele>
        <time>2020-06-17T16:03:33Z</time>
      </trkpt>
      <trkpt lat="49.44524" lon="0.27241">
        <ele>6.1</ele>
        <time>2020-06-17T16:03:34Z</time>
      </trkpt>
      <trkpt lat="49.44528" lon="0.2724">
        <ele>6.1</ele>
        <time>2020-06-17T16:03:35Z</time>
      </trkpt>
      <trkpt lat="49.44532" lon="0.2724">
        <ele>6.1</ele>
        <time>2020-06-17T16:03:36Z</time>
      </trkpt>
      <trkpt lat="49.44535" lon="0.2724">
        <ele>6</ele>
        <time>2020-06-17T16:03:37Z</time>
      </trkpt>
      <trkpt lat="49.44538" lon="0.27239">
        <ele>6</ele>
        <time>2020-06-17T16:03:38Z</time>
      </trkpt>
      <trkpt lat="49.44541" lon="0.27239">
        <ele>6</ele>
        <time>2020-06-17T16:03:39Z</time>
      </trkpt>
      <trkpt lat="49.44544" lon="0.27238">
        <ele>6</ele>
        <time>2020-06-17T16:03:40Z</time>
      </trkpt>
      <trkpt lat="49.44548" lon="0.27238">
        <ele>6</ele>
        <time>2020-06-17T16:03:41Z</time>
      </trkpt>
      <trkpt lat="49.44549" lon="0.27237">
        <ele>6</ele>
        <time>2020-06-17T16:03:42Z</time>
      </trkpt>
      <trkpt lat="49.44552" lon="0.27237">
        <ele>6</ele>
        <time>2020-06-17T16:03:43Z</time>
      </trkpt>
      <trkpt lat="49.44555" lon="0.27236">
        <ele>6</ele>
        <time>2020-06-17T16:03:44Z</time>
      </trkpt>
      <trkpt lat="49.44559" lon="0.27237">
        <ele>6</ele>
        <time>2020-06-17T16:03:45Z</time>
      </trkpt>
      <trkpt lat="49.44561" lon="0.27237">
        <ele>6.1</ele>
        <time>2020-06-17T16:03:46Z</time>
      </trkpt>
      <trkpt lat="49.44563" lon="0.27236">
        <ele>6.1</ele>
        <time>2020-06-17T16:03:47Z</time>
      </trkpt>
      <trkpt lat="49.44567" lon="0.27237">
        <ele>6.1</ele>
        <time>2020-06-17T16:03:48Z</time>
      </trkpt>
      <trkpt lat="49.44567" lon="0.27236">
        <ele>6.1</ele>
        <time>2020-06-17T16:03:49Z</time>
      </trkpt>
      <trkpt lat="49.4457" lon="0.27237">
        <ele>6.1</ele>
        <time>2020-06-17T16:03:50Z</time>
      </trkpt>
      <trkpt lat="49.44571" lon="0.27237">
        <ele>6.1</ele>
        <time>2020-06-17T16:03:51Z</time>
      </trkpt>
      <trkpt lat="49.44574" lon="0.27237">
        <ele>6.1</ele>
        <time>2020-06-17T16:03:52Z</time>
      </trkpt>
      <trkpt lat="49.44574" lon="0.27237">
        <ele>6.1</ele>
        <time>2020-06-17T16:03:53Z</time>
      </trkpt>
      <trkpt lat="49.44575" lon="0.27237">
        <ele>6.1</ele>
        <time>2020-06-17T16:03:54Z</time>
      </trkpt>
      <trkpt lat="49.44575" lon="0.27237">
        <ele>6.1</ele>
        <time>2020-06-17T16:03:55Z</time>
      </trkpt>
      <trkpt lat="49.44576" lon="0.27237">
        <ele>6.1</ele>
        <time>2020-06-17T16:03:56Z</time>
      </trkpt>
      <trkpt lat="49.44577" lon="0.27236">
        <ele>6.1</ele>
        <time>2020-06-17T16:03:57Z</time>
      </trkpt>
      <trkpt lat="49.44577" lon="0.27236">
        <ele>6.1</ele>
        <time>2020-06-17T16:03:58Z</time>
      </trkpt>
      <trkpt lat="49.44578" lon="0.27236">
        <ele>6.1</ele>
        <time>2020-06-17T16:03:59Z</time>
      </trkpt>
      <trkpt lat="49.44578" lon="0.27236">
        <ele>6.1</ele>
        <time>2020-06-17T16:04:00Z</time>
      </trkpt>
      <trkpt lat="49.44579" lon="0.27236">
        <ele>6.1</ele>
        <time>2020-06-17T16:04:01Z</time>
      </trkpt>
      <trkpt lat="49.4458" lon="0.27236">
        <ele>6.1</ele>
        <time>2020-06-17T16:04:02Z</time>
      </trkpt>
      <trkpt lat="49.4458" lon="0.27236">
        <ele>6.1</ele>
        <time>2020-06-17T16:04:03Z</time>
      </trkpt>
      <trkpt lat="49.44581" lon="0.27236">
        <ele>6.1</ele>
        <time>2020-06-17T16:04:04Z</time>
      </trkpt>
      <trkpt lat="49.44582" lon="0.27236">
        <ele>6.1</ele>
        <time>2020-06-17T16:09:08Z</time>
      </trkpt>
      <trkpt lat="49.44582" lon="0.27236">
        <ele>6.1</ele>
        <time>2020-06-17T16:09:09Z</time>
      </trkpt>
      <trkpt lat="49.44585" lon="0.27235">
        <ele>6.1</ele>
        <time>2020-06-17T16:09:10Z</time>
      </trkpt>
      <trkpt lat="49.4459" lon="0.27234">
        <ele>6.1</ele>
        <time>2020-06-17T16:09:11Z</time>
      </trkpt>
      <trkpt lat="49.44594" lon="0.27234">
        <ele>6.1</ele>
        <time>2020-06-17T16:09:12Z</time>
      </trkpt>
      <trkpt lat="49.44599" lon="0.27233">
        <ele>6.1</ele>
        <time>2020-06-17T16:09:13Z</time>
      </trkpt>
      <trkpt lat="49.44603" lon="0.27232">
        <ele>6.1</ele>
        <time>2020-06-17T16:09:14Z</time>
      </trkpt>
      <trkpt lat="49.44607" lon="0.2723">
        <ele>6.1</ele>
        <time>2020-06-17T16:09:15Z</time>
      </trkpt>
      <trkpt lat="49.44611" lon="0.2723">
        <ele>6.1</ele>
        <time>2020-06-17T16:09:16Z</time>
      </trkpt>
      <trkpt lat="49.44615" lon="0.2723">
        <ele>6.1</ele>
        <time>2020-06-17T16:09:17Z</time>
      </trkpt>
      <trkpt lat="49.44619" lon="0.27228">
        <ele>6.1</ele>
        <time>2020-06-17T16:09:18Z</time>
      </trkpt>
      <trkpt lat="49.44623" lon="0.27228">
        <ele>6</ele>
        <time>2020-06-17T16:09:19Z</time>
      </trkpt>
      <trkpt lat="49.44627" lon="0.27227">
        <ele>6</ele>
        <time>2020-06-17T16:09:20Z</time>
      </trkpt>
      <trkpt lat="49.44631" lon="0.27228">
        <ele>5.9</ele>
        <time>2020-06-17T16:09:21Z</time>
      </trkpt>
      <trkpt lat="49.44635" lon="0.27227">
        <ele>5.9</ele>
        <time>2020-06-17T16:09:22Z</time>
      </trkpt>
      <trkpt lat="49.44638" lon="0.27227">
        <ele>5.9</ele>
        <time>2020-06-17T16:09:23Z</time>
      </trkpt>
      <trkpt lat="49.44642" lon="0.27226">
        <ele>5.8</ele>
        <time>2020-06-17T16:09:24Z</time>
      </trkpt>
      <trkpt lat="49.44646" lon="0.27225">
        <ele>5.8</ele>
        <time>2020-06-17T16:09:25Z</time>
      </trkpt>
      <trkpt lat="49.4465" lon="0.27224">
        <ele>5.8</ele>
        <time>2020-06-17T16:09:26Z</time>
      </trkpt>
      <trkpt lat="49.44654" lon="0.27223">
        <ele>5.8</ele>
        <time>2020-06-17T16:09:27Z</time>
      </trkpt>
      <trkpt lat="49.44659" lon="0.27223">
        <ele>5.8</ele>
        <time>2020-06-17T16:09:28Z</time>
      </trkpt>
      <trkpt lat="49.44664" lon="0.27222">
        <ele>5.8</ele>
        <time>2020-06-17T16:09:29Z</time>
      </trkpt>
      <trkpt lat="49.44669" lon="0.27222">
        <ele>5.8</ele>
        <time>2020-06-17T16:09:30Z</time>
      </trkpt>
      <trkpt lat="49.44674" lon="0.27222">
        <ele>5.9</ele>
        <time>2020-06-17T16:09:31Z</time>
      </trkpt>
      <trkpt lat="49.44677" lon="0.27221">
        <ele>5.9</ele>
        <time>2020-06-17T16:09:32Z</time>
      </trkpt>
      <trkpt lat="49.44682" lon="0.2722">
        <ele>6</ele>
        <time>2020-06-17T16:09:33Z</time>
      </trkpt>
      <trkpt lat="49.44686" lon="0.27219">
        <ele>6</ele>
        <time>2020-06-17T16:09:34Z</time>
      </trkpt>
      <trkpt lat="49.44691" lon="0.27218">
        <ele>6.1</ele>
        <time>2020-06-17T16:09:35Z</time>
      </trkpt>
      <trkpt lat="49.44696" lon="0.27216">
        <ele>6.1</ele>
        <time>2020-06-17T16:09:36Z</time>
      </trkpt>
      <trkpt lat="49.44701" lon="0.27216">
        <ele>6.2</ele>
        <time>2020-06-17T16:09:37Z</time>
      </trkpt>
      <trkpt lat="49.44705" lon="0.27216">
        <ele>6.2</ele>
        <time>2020-06-17T16:09:38Z</time>
      </trkpt>
      <trkpt lat="49.4471" lon="0.27216">
        <ele>6.2</ele>
        <time>2020-06-17T16:09:39Z</time>
      </trkpt>
      <trkpt lat="49.44715" lon="0.27215">
        <ele>6.3</ele>
        <time>2020-06-17T16:09:40Z</time>
      </trkpt>
      <trkpt lat="49.4472" lon="0.27215">
        <ele>6.3</ele>
        <time>2020-06-17T16:09:41Z</time>
      </trkpt>
      <trkpt lat="49.44724" lon="0.27215">
        <ele>6.3</ele>
        <time>2020-06-17T16:09:42Z</time>
      </trkpt>
      <trkpt lat="49.44729" lon="0.27214">
        <ele>6.4</ele>
        <time>2020-06-17T16:09:43Z</time>
      </trkpt>
      <trkpt lat="49.44734" lon="0.27215">
        <ele>6.4</ele>
        <time>2020-06-17T16:09:44Z</time>
      </trkpt>
      <trkpt lat="49.44739" lon="0.27215">
        <ele>6.4</ele>
        <time>2020-06-17T16:09:45Z</time>
      </trkpt>
      <trkpt lat="49.44744" lon="0.27215">
        <ele>6.4</ele>
        <time>2020-06-17T16:09:46Z</time>
      </trkpt>
      <trkpt lat="49.44749" lon="0.27215">
        <ele>6.5</ele>
        <time>2020-06-17T16:09:47Z</time>
      </trkpt>
      <trkpt lat="49.44754" lon="0.27214">
        <ele>6.6</ele>
        <time>2020-06-17T16:09:48Z</time>
      </trkpt>
      <trkpt lat="49.44759" lon="0.27212">
        <ele>6.7</ele>
        <time>2020-06-17T16:09:49Z</time>
      </trkpt>
      <trkpt lat="49.44763" lon="0.27213">
        <ele>6.7</ele>
        <time>2020-06-17T16:09:50Z</time>
      </trkpt>
      <trkpt lat="49.44767" lon="0.27213">
        <ele>6.8</ele>
        <time>2020-06-17T16:09:51Z</time>
      </trkpt>
      <trkpt lat="49.44771" lon="0.27213">
        <ele>6.9</ele>
        <time>2020-06-17T16:09:52Z</time>
      </trkpt>
      <trkpt lat="49.44775" lon="0.27213">
        <ele>7</ele>
        <time>2020-06-17T16:09:53Z</time>
      </trkpt>
      <trkpt lat="49.44779" lon="0.27211">
        <ele>7.1</ele>
        <time>2020-06-17T16:09:54Z</time>
      </trkpt>
      <trkpt lat="49.44783" lon="0.27211">
        <ele>7.2</ele>
        <time>2020-06-17T16:09:55Z</time>
      </trkpt>
      <trkpt lat="49.44788" lon="0.2721">
        <ele>7.3</ele>
        <time>2020-06-17T16:09:56Z</time>
      </trkpt>
      <trkpt lat="49.44792" lon="0.2721">
        <ele>7.4</ele>
        <time>2020-06-17T16:09:57Z</time>
      </trkpt>
      <trkpt lat="49.44796" lon="0.27209">
        <ele>7.4</ele>
        <time>2020-06-17T16:09:58Z</time>
      </trkpt>
      <trkpt lat="49.44801" lon="0.27209">
        <ele>7.5</ele>
        <time>2020-06-17T16:09:59Z</time>
      </trkpt>
      <trkpt lat="49.44805" lon="0.27208">
        <ele>7.5</ele>
        <time>2020-06-17T16:10:00Z</time>
      </trkpt>
      <trkpt lat="49.44809" lon="0.27209">
        <ele>7.5</ele>
        <time>2020-06-17T16:10:01Z</time>
      </trkpt>
      <trkpt lat="49.44814" lon="0.27209">
        <ele>7.5</ele>
        <time>2020-06-17T16:10:02Z</time>
      </trkpt>
      <trkpt lat="49.44818" lon="0.27209">
        <ele>7.5</ele>
        <time>2020-06-17T16:10:03Z</time>
      </trkpt>
      <trkpt lat="49.44822" lon="0.27208">
        <ele>7.5</ele>
        <time>2020-06-17T16:10:04Z</time>
      </trkpt>
      <trkpt lat="49.44826" lon="0.27207">
        <ele>7.5</ele>
        <time>2020-06-17T16:10:05Z</time>
      </trkpt>
      <trkpt lat="49.4483" lon="0.27207">
        <ele>7.5</ele>
        <time>2020-06-17T16:10:06Z</time>
      </trkpt>
      <trkpt lat="49.44835" lon="0.27207">
        <ele>7.6</ele>
        <time>2020-06-17T16:10:07Z</time>
      </trkpt>
      <trkpt lat="49.44839" lon="0.27207">
        <ele>7.6</ele>
        <time>2020-06-17T16:10:08Z</time>
      </trkpt>
      <trkpt lat="49.44843" lon="0.27207">
        <ele>7.6</ele>
        <time>2020-06-17T16:10:09Z</time>
      </trkpt>
      <trkpt lat="49.44848" lon="0.27207">
        <ele>7.6</ele>
        <time>2020-06-17T16:10:10Z</time>
      </trkpt>
      <trkpt lat="49.44852" lon="0.27207">
        <ele>7.6</ele>
        <time>2020-06-17T16:10:11Z</time>
      </trkpt>
      <trkpt lat="49.44856" lon="0.27208">
        <ele>7.6</ele>
        <time>2020-06-17T16:10:12Z</time>
      </trkpt>
      <trkpt lat="49.44861" lon="0.27209">
        <ele>7.5</ele>
        <time>2020-06-17T16:10:13Z</time>
      </trkpt>
      <trkpt lat="49.44866" lon="0.2721">
        <ele>7.6</ele>
        <time>2020-06-17T16:10:14Z</time>
      </trkpt>
      <trkpt lat="49.4487" lon="0.27211">
        <ele>7.6</ele>
        <time>2020-06-17T16:10:15Z</time>
      </trkpt>
      <trkpt lat="49.44875" lon="0.27211">
        <ele>7.6</ele>
        <time>2020-06-17T16:10:16Z</time>
      </trkpt>
      <trkpt lat="49.44879" lon="0.2721">
        <ele>7.6</ele>
        <time>2020-06-17T16:10:17Z</time>
      </trkpt>
      <trkpt lat="49.44883" lon="0.2721">
        <ele>7.6</ele>
        <time>2020-06-17T16:10:18Z</time>
      </trkpt>
      <trkpt lat="49.44888" lon="0.27211">
        <ele>7.7</ele>
        <time>2020-06-17T16:10:19Z</time>
      </trkpt>
      <trkpt lat="49.44892" lon="0.2721">
        <ele>7.7</ele>
        <time>2020-06-17T16:10:20Z</time>
      </trkpt>
      <trkpt lat="49.44897" lon="0.27211">
        <ele>7.7</ele>
        <time>2020-06-17T16:10:21Z</time>
      </trkpt>
      <trkpt lat="49.44901" lon="0.27211">
        <ele>7.7</ele>
        <time>2020-06-17T16:10:22Z</time>
      </trkpt>
      <trkpt lat="49.44905" lon="0.27211">
        <ele>7.7</ele>
        <time>2020-06-17T16:10:23Z</time>
      </trkpt>
      <trkpt lat="49.4491" lon="0.27212">
        <ele>7.7</ele>
        <time>2020-06-17T16:10:24Z</time>
      </trkpt>
      <trkpt lat="49.44915" lon="0.27212">
        <ele>7.7</ele>
        <time>2020-06-17T16:10:25Z</time>
      </trkpt>
      <trkpt lat="49.4492" lon="0.27212">
        <ele>7.7</ele>
        <time>2020-06-17T16:10:26Z</time>
      </trkpt>
      <trkpt lat="49.44924" lon="0.27212">
        <ele>7.7</ele>
        <time>2020-06-17T16:10:27Z</time>
      </trkpt>
      <trkpt lat="49.44927" lon="0.27212">
        <ele>7.7</ele>
        <time>2020-06-17T16:10:28Z</time>
      </trkpt>
      <trkpt lat="49.44931" lon="0.27211">
        <ele>7.8</ele>
        <time>2020-06-17T16:10:29Z</time>
      </trkpt>
      <trkpt lat="49.44935" lon="0.27213">
        <ele>7.8</ele>
        <time>2020-06-17T16:10:30Z</time>
      </trkpt>
      <trkpt lat="49.44939" lon="0.27213">
        <ele>7.8</ele>
        <time>2020-06-17T16:10:31Z</time>
      </trkpt>
      <trkpt lat="49.44944" lon="0.27213">
        <ele>7.8</ele>
        <time>2020-06-17T16:10:32Z</time>
      </trkpt>
      <trkpt lat="49.44948" lon="0.27214">
        <ele>7.8</ele>
        <time>2020-06-17T16:10:33Z</time>
      </trkpt>
      <trkpt lat="49.44952" lon="0.27214">
        <ele>7.8</ele>
        <time>2020-06-17T16:10:34Z</time>
      </trkpt>
      <trkpt lat="49.44956" lon="0.27213">
        <ele>7.9</ele>
        <time>2020-06-17T16:10:35Z</time>
      </trkpt>
      <trkpt lat="49.4496" lon="0.27212">
        <ele>7.9</ele>
        <time>2020-06-17T16:10:36Z</time>
      </trkpt>
      <trkpt lat="49.44964" lon="0.27212">
        <ele>8</ele>
        <time>2020-06-17T16:10:37Z</time>
      </trkpt>
      <trkpt lat="49.44968" lon="0.27212">
        <ele>8</ele>
        <time>2020-06-17T16:10:38Z</time>
      </trkpt>
      <trkpt lat="49.44972" lon="0.27213">
        <ele>8.1</ele>
        <time>2020-06-17T16:10:39Z</time>
      </trkpt>
      <trkpt lat="49.44976" lon="0.27213">
        <ele>8.1</ele>
        <time>2020-06-17T16:10:40Z</time>
      </trkpt>
      <trkpt lat="49.44979" lon="0.27213">
        <ele>8.2</ele>
        <time>2020-06-17T16:10:41Z</time>
      </trkpt>
      <trkpt lat="49.44982" lon="0.27213">
        <ele>8.2</ele>
        <time>2020-06-17T16:10:42Z</time>
      </trkpt>
      <trkpt lat="49.44986" lon="0.27213">
        <ele>8.3</ele>
        <time>2020-06-17T16:10:43Z</time>
      </trkpt>
      <trkpt lat="49.44988" lon="0.27213">
        <ele>8.4</ele>
        <time>2020-06-17T16:10:44Z</time>
      </trkpt>
      <trkpt lat="49.44991" lon="0.27213">
        <ele>8.5</ele>
        <time>2020-06-17T16:10:45Z</time>
      </trkpt>
      <trkpt lat="49.44992" lon="0.27212">
        <ele>8.6</ele>
        <time>2020-06-17T16:10:46Z</time>
      </trkpt>
      <trkpt lat="49.44993" lon="0.27212">
        <ele>8.7</ele>
        <time>2020-06-17T16:10:47Z</time>
      </trkpt>
      <trkpt lat="49.44995" lon="0.27211">
        <ele>8.8</ele>
        <time>2020-06-17T16:10:48Z</time>
      </trkpt>
      <trkpt lat="49.44996" lon="0.2721">
        <ele>8.9</ele>
        <time>2020-06-17T16:10:49Z</time>
      </trkpt>
      <trkpt lat="49.44998" lon="0.27212">
        <ele>9</ele>
        <time>2020-06-17T16:10:50Z</time>
      </trkpt>
      <trkpt lat="49.44999" lon="0.27212">
        <ele>9.1</ele>
        <time>2020-06-17T16:10:51Z</time>
      </trkpt>
      <trkpt lat="49.45001" lon="0.27212">
        <ele>9.2</ele>
        <time>2020-06-17T16:10:52Z</time>
      </trkpt>
      <trkpt lat="49.45002" lon="0.27212">
        <ele>9.2</ele>
        <time>2020-06-17T16:10:53Z</time>
      </trkpt>
      <trkpt lat="49.45002" lon="0.27211">
        <ele>9.3</ele>
        <time>2020-06-17T16:10:54Z</time>
      </trkpt>
      <trkpt lat="49.45002" lon="0.27211">
        <ele>9.3</ele>
        <time>2020-06-17T16:10:55Z</time>
      </trkpt>
      <trkpt lat="49.45002" lon="0.27211">
        <ele>9.3</ele>
        <time>2020-06-17T16:10:56Z</time>
      </trkpt>
      <trkpt lat="49.45002" lon="0.27211">
        <ele>9.3</ele>
        <time>2020-06-17T16:10:57Z</time>
      </trkpt>
      <trkpt lat="49.45002" lon="0.27211">
        <ele>9.3</ele>
        <time>2020-06-17T16:10:58Z</time>
      </trkpt>
      <trkpt lat="49.45002" lon="0.27211">
        <ele>9.3</ele>
        <time>2020-06-17T16:10:59Z</time>
      </trkpt>
      <trkpt lat="49.45002" lon="0.27211">
        <ele>9.3</ele>
        <time>2020-06-17T16:11:00Z</time>
      </trkpt>
      <trkpt lat="49.45002" lon="0.27211">
        <ele>9.3</ele>
        <time>2020-06-17T16:11:01Z</time>
      </trkpt>
      <trkpt lat="49.45002" lon="0.27211">
        <ele>9.3</ele>
        <time>2020-06-17T16:11:02Z</time>
      </trkpt>
      <trkpt lat="49.45002" lon="0.27211">
        <ele>9.3</ele>
        <time>2020-06-17T16:11:03Z</time>
      </trkpt>
      <trkpt lat="49.45011" lon="0.27208">
        <ele>8.8</ele>
        <time>2020-06-17T16:11:45Z</time>
      </trkpt>
      <trkpt lat="49.45012" lon="0.27207">
        <ele>8.7</ele>
        <time>2020-06-17T16:11:46Z</time>
      </trkpt>
      <trkpt lat="49.45012" lon="0.27207">
        <ele>8.7</ele>
        <time>2020-06-17T16:11:47Z</time>
      </trkpt>
      <trkpt lat="49.45012" lon="0.27207">
        <ele>8.7</ele>
        <time>2020-06-17T16:11:48Z</time>
      </trkpt>
      <trkpt lat="49.45012" lon="0.27207">
        <ele>8.7</ele>
        <time>2020-06-17T16:11:49Z</time>
      </trkpt>
      <trkpt lat="49.45012" lon="0.27206">
        <ele>8.7</ele>
        <time>2020-06-17T16:11:50Z</time>
      </trkpt>
      <trkpt lat="49.45012" lon="0.27208">
        <ele>8.6</ele>
        <time>2020-06-17T16:11:51Z</time>
      </trkpt>
      <trkpt lat="49.45013" lon="0.27208">
        <ele>8.6</ele>
        <time>2020-06-17T16:11:52Z</time>
      </trkpt>
      <trkpt lat="49.45013" lon="0.27208">
        <ele>8.6</ele>
        <time>2020-06-17T16:11:53Z</time>
      </trkpt>
      <trkpt lat="49.45014" lon="0.27208">
        <ele>8.6</ele>
        <time>2020-06-17T16:11:54Z</time>
      </trkpt>
      <trkpt lat="49.45015" lon="0.27208">
        <ele>8.5</ele>
        <time>2020-06-17T16:11:55Z</time>
      </trkpt>
      <trkpt lat="49.45015" lon="0.27208">
        <ele>8.5</ele>
        <time>2020-06-17T16:11:56Z</time>
      </trkpt>
      <trkpt lat="49.45016" lon="0.27211">
        <ele>8.5</ele>
        <time>2020-06-17T16:11:57Z</time>
      </trkpt>
      <trkpt lat="49.45016" lon="0.27213">
        <ele>8.4</ele>
        <time>2020-06-17T16:11:58Z</time>
      </trkpt>
      <trkpt lat="49.45017" lon="0.27214">
        <ele>8.3</ele>
        <time>2020-06-17T16:11:59Z</time>
      </trkpt>
      <trkpt lat="49.45017" lon="0.27216">
        <ele>8.3</ele>
        <time>2020-06-17T16:12:00Z</time>
      </trkpt>
      <trkpt lat="49.45017" lon="0.27217">
        <ele>8.3</ele>
        <time>2020-06-17T16:12:01Z</time>
      </trkpt>
      <trkpt lat="49.45017" lon="0.27218">
        <ele>8.3</ele>
        <time>2020-06-17T16:12:02Z</time>
      </trkpt>
      <trkpt lat="49.45018" lon="0.2722">
        <ele>8.2</ele>
        <time>2020-06-17T16:12:03Z</time>
      </trkpt>
      <trkpt lat="49.45019" lon="0.27222">
        <ele>8.1</ele>
        <time>2020-06-17T16:12:04Z</time>
      </trkpt>
      <trkpt lat="49.45019" lon="0.27223">
        <ele>8.1</ele>
        <time>2020-06-17T16:12:05Z</time>
      </trkpt>
      <trkpt lat="49.45019" lon="0.27225">
        <ele>8.1</ele>
        <time>2020-06-17T16:12:06Z</time>
      </trkpt>
      <trkpt lat="49.45019" lon="0.27225">
        <ele>8</ele>
        <time>2020-06-17T16:12:07Z</time>
      </trkpt>
      <trkpt lat="49.4502" lon="0.27226">
        <ele>8</ele>
        <time>2020-06-17T16:12:08Z</time>
      </trkpt>
      <trkpt lat="49.4502" lon="0.27225">
        <ele>7.9</ele>
        <time>2020-06-17T16:12:09Z</time>
      </trkpt>
      <trkpt lat="49.45021" lon="0.27226">
        <ele>7.9</ele>
        <time>2020-06-17T16:12:10Z</time>
      </trkpt>
      <trkpt lat="49.45022" lon="0.27227">
        <ele>7.8</ele>
        <time>2020-06-17T16:12:11Z</time>
      </trkpt>
      <trkpt lat="49.45023" lon="0.27228">
        <ele>7.8</ele>
        <time>2020-06-17T16:12:12Z</time>
      </trkpt>
      <trkpt lat="49.45023" lon="0.27228">
        <ele>7.7</ele>
        <time>2020-06-17T16:12:13Z</time>
      </trkpt>
      <trkpt lat="49.45024" lon="0.27229">
        <ele>7.7</ele>
        <time>2020-06-17T16:12:14Z</time>
      </trkpt>
      <trkpt lat="49.45027" lon="0.2723">
        <ele>7.3</ele>
        <time>2020-06-17T16:12:15Z</time>
      </trkpt>
      <trkpt lat="49.4503" lon="0.27231">
        <ele>7.2</ele>
        <time>2020-06-17T16:12:16Z</time>
      </trkpt>
      <trkpt lat="49.45034" lon="0.27233">
        <ele>7.2</ele>
        <time>2020-06-17T16:12:17Z</time>
      </trkpt>
      <trkpt lat="49.45037" lon="0.27232">
        <ele>7.1</ele>
        <time>2020-06-17T16:12:18Z</time>
      </trkpt>
      <trkpt lat="49.45041" lon="0.27232">
        <ele>7.1</ele>
        <time>2020-06-17T16:12:19Z</time>
      </trkpt>
      <trkpt lat="49.45045" lon="0.27232">
        <ele>7</ele>
        <time>2020-06-17T16:12:20Z</time>
      </trkpt>
      <trkpt lat="49.45049" lon="0.27233">
        <ele>6.9</ele>
        <time>2020-06-17T16:12:21Z</time>
      </trkpt>
      <trkpt lat="49.45053" lon="0.27232">
        <ele>6.9</ele>
        <time>2020-06-17T16:12:22Z</time>
      </trkpt>
      <trkpt lat="49.45057" lon="0.27233">
        <ele>6.8</ele>
        <time>2020-06-17T16:12:23Z</time>
      </trkpt>
      <trkpt lat="49.45061" lon="0.27233">
        <ele>6.8</ele>
        <time>2020-06-17T16:12:24Z</time>
      </trkpt>
      <trkpt lat="49.45064" lon="0.27233">
        <ele>6.8</ele>
        <time>2020-06-17T16:12:25Z</time>
      </trkpt>
      <trkpt lat="49.45068" lon="0.27232">
        <ele>6.7</ele>
        <time>2020-06-17T16:12:26Z</time>
      </trkpt>
      <trkpt lat="49.45071" lon="0.27232">
        <ele>6.7</ele>
        <time>2020-06-17T16:12:27Z</time>
      </trkpt>
      <trkpt lat="49.45075" lon="0.27232">
        <ele>6.7</ele>
        <time>2020-06-17T16:12:28Z</time>
      </trkpt>
      <trkpt lat="49.45076" lon="0.27232">
        <ele>6.6</ele>
        <time>2020-06-17T16:12:29Z</time>
      </trkpt>
      <trkpt lat="49.45079" lon="0.27233">
        <ele>6.6</ele>
        <time>2020-06-17T16:12:30Z</time>
      </trkpt>
      <trkpt lat="49.45083" lon="0.27233">
        <ele>6.5</ele>
        <time>2020-06-17T16:12:31Z</time>
      </trkpt>
      <trkpt lat="49.45087" lon="0.27233">
        <ele>6.5</ele>
        <time>2020-06-17T16:12:32Z</time>
      </trkpt>
      <trkpt lat="49.45091" lon="0.27232">
        <ele>6.5</ele>
        <time>2020-06-17T16:12:33Z</time>
      </trkpt>
      <trkpt lat="49.45095" lon="0.27232">
        <ele>6.5</ele>
        <time>2020-06-17T16:12:34Z</time>
      </trkpt>
      <trkpt lat="49.45099" lon="0.27232">
        <ele>6.5</ele>
        <time>2020-06-17T16:12:35Z</time>
      </trkpt>
      <trkpt lat="49.45103" lon="0.27231">
        <ele>6.5</ele>
        <time>2020-06-17T16:12:36Z</time>
      </trkpt>
      <trkpt lat="49.45106" lon="0.27231">
        <ele>6.6</ele>
        <time>2020-06-17T16:12:37Z</time>
      </trkpt>
      <trkpt lat="49.4511" lon="0.27232">
        <ele>6.6</ele>
        <time>2020-06-17T16:12:38Z</time>
      </trkpt>
      <trkpt lat="49.4511" lon="0.27232">
        <ele>6.6</ele>
        <time>2020-06-17T16:12:39Z</time>
      </trkpt>
      <trkpt lat="49.45114" lon="0.27232">
        <ele>6.6</ele>
        <time>2020-06-17T16:12:40Z</time>
      </trkpt>
      <trkpt lat="49.45115" lon="0.27232">
        <ele>6.6</ele>
        <time>2020-06-17T16:12:41Z</time>
      </trkpt>
      <trkpt lat="49.45118" lon="0.27231">
        <ele>6.7</ele>
        <time>2020-06-17T16:12:42Z</time>
      </trkpt>
      <trkpt lat="49.45119" lon="0.27231">
        <ele>6.7</ele>
        <time>2020-06-17T16:12:43Z</time>
      </trkpt>
      <trkpt lat="49.45123" lon="0.2723">
        <ele>6.7</ele>
        <time>2020-06-17T16:12:44Z</time>
      </trkpt>
      <trkpt lat="49.45124" lon="0.2723">
        <ele>6.7</ele>
        <time>2020-06-17T16:12:45Z</time>
      </trkpt>
      <trkpt lat="49.45126" lon="0.27229">
        <ele>6.8</ele>
        <time>2020-06-17T16:12:46Z</time>
      </trkpt>
      <trkpt lat="49.45127" lon="0.27229">
        <ele>6.8</ele>
        <time>2020-06-17T16:12:47Z</time>
      </trkpt>
      <trkpt lat="49.45129" lon="0.27228">
        <ele>6.8</ele>
        <time>2020-06-17T16:12:48Z</time>
      </trkpt>
      <trkpt lat="49.4513" lon="0.27227">
        <ele>6.8</ele>
        <time>2020-06-17T16:12:49Z</time>
      </trkpt>
      <trkpt lat="49.45132" lon="0.27223">
        <ele>6.9</ele>
        <time>2020-06-17T16:12:50Z</time>
      </trkpt>
      <trkpt lat="49.45133" lon="0.27222">
        <ele>6.9</ele>
        <time>2020-06-17T16:12:51Z</time>
      </trkpt>
      <trkpt lat="49.45136" lon="0.27218">
        <ele>6.9</ele>
        <time>2020-06-17T16:12:52Z</time>
      </trkpt>
      <trkpt lat="49.45137" lon="0.27217">
        <ele>6.9</ele>
        <time>2020-06-17T16:12:53Z</time>
      </trkpt>
      <trkpt lat="49.45139" lon="0.27213">
        <ele>7</ele>
        <time>2020-06-17T16:12:54Z</time>
      </trkpt>
      <trkpt lat="49.45141" lon="0.27208">
        <ele>7</ele>
        <time>2020-06-17T16:12:55Z</time>
      </trkpt>
      <trkpt lat="49.45143" lon="0.27205">
        <ele>7</ele>
        <time>2020-06-17T16:12:56Z</time>
      </trkpt>
      <trkpt lat="49.45146" lon="0.272">
        <ele>7</ele>
        <time>2020-06-17T16:12:57Z</time>
      </trkpt>
      <trkpt lat="49.45148" lon="0.27196">
        <ele>7</ele>
        <time>2020-06-17T16:12:58Z</time>
      </trkpt>
      <trkpt lat="49.45151" lon="0.27193">
        <ele>7.1</ele>
        <time>2020-06-17T16:12:59Z</time>
      </trkpt>
      <trkpt lat="49.45153" lon="0.27188">
        <ele>7.1</ele>
        <time>2020-06-17T16:13:00Z</time>
      </trkpt>
      <trkpt lat="49.45155" lon="0.27183">
        <ele>7.1</ele>
        <time>2020-06-17T16:13:01Z</time>
      </trkpt>
      <trkpt lat="49.45156" lon="0.27179">
        <ele>7.1</ele>
        <time>2020-06-17T16:13:02Z</time>
      </trkpt>
      <trkpt lat="49.45159" lon="0.27174">
        <ele>6.9</ele>
        <time>2020-06-17T16:13:03Z</time>
      </trkpt>
      <trkpt lat="49.45159" lon="0.27172">
        <ele>6.8</ele>
        <time>2020-06-17T16:13:04Z</time>
      </trkpt>
      <trkpt lat="49.45161" lon="0.27168">
        <ele>6.6</ele>
        <time>2020-06-17T16:13:05Z</time>
      </trkpt>
      <trkpt lat="49.45162" lon="0.27167">
        <ele>6.4</ele>
        <time>2020-06-17T16:13:06Z</time>
      </trkpt>
      <trkpt lat="49.45164" lon="0.27164">
        <ele>6.4</ele>
        <time>2020-06-17T16:13:07Z</time>
      </trkpt>
      <trkpt lat="49.45165" lon="0.27163">
        <ele>6.4</ele>
        <time>2020-06-17T16:13:08Z</time>
      </trkpt>
      <trkpt lat="49.45168" lon="0.27161">
        <ele>6.3</ele>
        <time>2020-06-17T16:13:09Z</time>
      </trkpt>
      <trkpt lat="49.45169" lon="0.27161">
        <ele>6.3</ele>
        <time>2020-06-17T16:13:10Z</time>
      </trkpt>
      <trkpt lat="49.4517" lon="0.2716">
        <ele>6.3</ele>
        <time>2020-06-17T16:13:11Z</time>
      </trkpt>
      <trkpt lat="49.45172" lon="0.27161">
        <ele>6.3</ele>
        <time>2020-06-17T16:13:12Z</time>
      </trkpt>
      <trkpt lat="49.45174" lon="0.27161">
        <ele>6.3</ele>
        <time>2020-06-17T16:13:13Z</time>
      </trkpt>
      <trkpt lat="49.45175" lon="0.27161">
        <ele>6.3</ele>
        <time>2020-06-17T16:13:14Z</time>
      </trkpt>
      <trkpt lat="49.45176" lon="0.27161">
        <ele>6.3</ele>
        <time>2020-06-17T16:13:15Z</time>
      </trkpt>
      <trkpt lat="49.45179" lon="0.27161">
        <ele>6.3</ele>
        <time>2020-06-17T16:13:16Z</time>
      </trkpt>
      <trkpt lat="49.45182" lon="0.27161">
        <ele>6.3</ele>
        <time>2020-06-17T16:13:17Z</time>
      </trkpt>
      <trkpt lat="49.45186" lon="0.27161">
        <ele>6.3</ele>
        <time>2020-06-17T16:13:18Z</time>
      </trkpt>
      <trkpt lat="49.45188" lon="0.27162">
        <ele>6.2</ele>
        <time>2020-06-17T16:13:19Z</time>
      </trkpt>
      <trkpt lat="49.45192" lon="0.27162">
        <ele>6.2</ele>
        <time>2020-06-17T16:13:20Z</time>
      </trkpt>
      <trkpt lat="49.45195" lon="0.27161">
        <ele>6.2</ele>
        <time>2020-06-17T16:13:21Z</time>
      </trkpt>
      <trkpt lat="49.45199" lon="0.27161">
        <ele>6.2</ele>
        <time>2020-06-17T16:13:22Z</time>
      </trkpt>
      <trkpt lat="49.45204" lon="0.27161">
        <ele>6.2</ele>
        <time>2020-06-17T16:13:23Z</time>
      </trkpt>
      <trkpt lat="49.45208" lon="0.27163">
        <ele>6.2</ele>
        <time>2020-06-17T16:13:24Z</time>
      </trkpt>
      <trkpt lat="49.45213" lon="0.27163">
        <ele>6.2</ele>
        <time>2020-06-17T16:13:25Z</time>
      </trkpt>
      <trkpt lat="49.45218" lon="0.27164">
        <ele>6.2</ele>
        <time>2020-06-17T16:13:26Z</time>
      </trkpt>
      <trkpt lat="49.45222" lon="0.27164">
        <ele>6.3</ele>
        <time>2020-06-17T16:13:27Z</time>
      </trkpt>
      <trkpt lat="49.45226" lon="0.27164">
        <ele>6.3</ele>
        <time>2020-06-17T16:13:28Z</time>
      </trkpt>
      <trkpt lat="49.4523" lon="0.27164">
        <ele>6.3</ele>
        <time>2020-06-17T16:13:29Z</time>
      </trkpt>
      <trkpt lat="49.45234" lon="0.27163">
        <ele>6.4</ele>
        <time>2020-06-17T16:13:30Z</time>
      </trkpt>
      <trkpt lat="49.45238" lon="0.27163">
        <ele>6.5</ele>
        <time>2020-06-17T16:13:31Z</time>
      </trkpt>
      <trkpt lat="49.45242" lon="0.27163">
        <ele>6.6</ele>
        <time>2020-06-17T16:13:32Z</time>
      </trkpt>
      <trkpt lat="49.45246" lon="0.27165">
        <ele>6.6</ele>
        <time>2020-06-17T16:13:33Z</time>
      </trkpt>
      <trkpt lat="49.4525" lon="0.27167">
        <ele>6.7</ele>
        <time>2020-06-17T16:13:34Z</time>
      </trkpt>
      <trkpt lat="49.45254" lon="0.27169">
        <ele>6.8</ele>
        <time>2020-06-17T16:13:35Z</time>
      </trkpt>
      <trkpt lat="49.45258" lon="0.2717">
        <ele>6.9</ele>
        <time>2020-06-17T16:13:36Z</time>
      </trkpt>
      <trkpt lat="49.45262" lon="0.27173">
        <ele>6.9</ele>
        <time>2020-06-17T16:13:37Z</time>
      </trkpt>
      <trkpt lat="49.45265" lon="0.27176">
        <ele>7</ele>
        <time>2020-06-17T16:13:38Z</time>
      </trkpt>
      <trkpt lat="49.45267" lon="0.27181">
        <ele>7</ele>
        <time>2020-06-17T16:13:39Z</time>
      </trkpt>
      <trkpt lat="49.4527" lon="0.27186">
        <ele>7.1</ele>
        <time>2020-06-17T16:13:40Z</time>
      </trkpt>
      <trkpt lat="49.45271" lon="0.27192">
        <ele>7.1</ele>
        <time>2020-06-17T16:13:41Z</time>
      </trkpt>
      <trkpt lat="49.45273" lon="0.27201">
        <ele>7.2</ele>
        <time>2020-06-17T16:13:42Z</time>
      </trkpt>
      <trkpt lat="49.45274" lon="0.2721">
        <ele>7.2</ele>
        <time>2020-06-17T16:13:43Z</time>
      </trkpt>
      <trkpt lat="49.45275" lon="0.27217">
        <ele>7.2</ele>
        <time>2020-06-17T16:13:44Z</time>
      </trkpt>
      <trkpt lat="49.45276" lon="0.27225">
        <ele>7.2</ele>
        <time>2020-06-17T16:13:45Z</time>
      </trkpt>
      <trkpt lat="49.45276" lon="0.27231">
        <ele>7.2</ele>
        <time>2020-06-17T16:13:46Z</time>
      </trkpt>
      <trkpt lat="49.45277" lon="0.27238">
        <ele>7.1</ele>
        <time>2020-06-17T16:13:47Z</time>
      </trkpt>
      <trkpt lat="49.45279" lon="0.27245">
        <ele>7</ele>
        <time>2020-06-17T16:13:48Z</time>
      </trkpt>
      <trkpt lat="49.4528" lon="0.27251">
        <ele>6.9</ele>
        <time>2020-06-17T16:13:49Z</time>
      </trkpt>
      <trkpt lat="49.45282" lon="0.27257">
        <ele>6.8</ele>
        <time>2020-06-17T16:13:50Z</time>
      </trkpt>
      <trkpt lat="49.45285" lon="0.27265">
        <ele>6.6</ele>
        <time>2020-06-17T16:13:51Z</time>
      </trkpt>
      <trkpt lat="49.45289" lon="0.27271">
        <ele>6.4</ele>
        <time>2020-06-17T16:13:52Z</time>
      </trkpt>
      <trkpt lat="49.45293" lon="0.27276">
        <ele>6.3</ele>
        <time>2020-06-17T16:13:53Z</time>
      </trkpt>
      <trkpt lat="49.45296" lon="0.27279">
        <ele>6.2</ele>
        <time>2020-06-17T16:13:54Z</time>
      </trkpt>
      <trkpt lat="49.453" lon="0.27283">
        <ele>6.1</ele>
        <time>2020-06-17T16:13:55Z</time>
      </trkpt>
      <trkpt lat="49.45303" lon="0.27285">
        <ele>6</ele>
        <time>2020-06-17T16:13:56Z</time>
      </trkpt>
      <trkpt lat="49.45307" lon="0.27287">
        <ele>5.9</ele>
        <time>2020-06-17T16:13:57Z</time>
      </trkpt>
      <trkpt lat="49.45312" lon="0.27288">
        <ele>5.8</ele>
        <time>2020-06-17T16:13:58Z</time>
      </trkpt>
      <trkpt lat="49.45317" lon="0.27289">
        <ele>5.7</ele>
        <time>2020-06-17T16:13:59Z</time>
      </trkpt>
      <trkpt lat="49.45321" lon="0.2729">
        <ele>6.2</ele>
        <time>2020-06-17T16:14:00Z</time>
      </trkpt>
      <trkpt lat="49.45324" lon="0.2729">
        <ele>6.1</ele>
        <time>2020-06-17T16:14:01Z</time>
      </trkpt>
      <trkpt lat="49.45327" lon="0.27291">
        <ele>6.1</ele>
        <time>2020-06-17T16:14:02Z</time>
      </trkpt>
      <trkpt lat="49.45328" lon="0.27291">
        <ele>6.1</ele>
        <time>2020-06-17T16:14:03Z</time>
      </trkpt>
      <trkpt lat="49.4533" lon="0.27295">
        <ele>6</ele>
        <time>2020-06-17T16:14:04Z</time>
      </trkpt>
      <trkpt lat="49.4533" lon="0.27297">
        <ele>6</ele>
        <time>2020-06-17T16:14:05Z</time>
      </trkpt>
      <trkpt lat="49.45333" lon="0.27299">
        <ele>5.9</ele>
        <time>2020-06-17T16:14:06Z</time>
      </trkpt>
      <trkpt lat="49.45335" lon="0.27304">
        <ele>5.7</ele>
        <time>2020-06-17T16:14:07Z</time>
      </trkpt>
      <trkpt lat="49.45336" lon="0.27305">
        <ele>5.7</ele>
        <time>2020-06-17T16:14:08Z</time>
      </trkpt>
      <trkpt lat="49.45339" lon="0.27309">
        <ele>5.6</ele>
        <time>2020-06-17T16:14:09Z</time>
      </trkpt>
      <trkpt lat="49.4534" lon="0.2731">
        <ele>5.6</ele>
        <time>2020-06-17T16:14:10Z</time>
      </trkpt>
      <trkpt lat="49.45341" lon="0.27312">
        <ele>5.6</ele>
        <time>2020-06-17T16:14:11Z</time>
      </trkpt>
      <trkpt lat="49.45342" lon="0.27313">
        <ele>5.5</ele>
        <time>2020-06-17T16:14:12Z</time>
      </trkpt>
      <trkpt lat="49.45342" lon="0.27315">
        <ele>5.5</ele>
        <time>2020-06-17T16:14:13Z</time>
      </trkpt>
      <trkpt lat="49.45342" lon="0.27314">
        <ele>5.5</ele>
        <time>2020-06-17T16:14:14Z</time>
      </trkpt>
      <trkpt lat="49.45342" lon="0.27314">
        <ele>5.5</ele>
        <time>2020-06-17T16:14:15Z</time>
      </trkpt>
      <trkpt lat="49.45341" lon="0.27313">
        <ele>5.5</ele>
        <time>2020-06-17T16:14:16Z</time>
      </trkpt>
      <trkpt lat="49.45342" lon="0.27314">
        <ele>5.5</ele>
        <time>2020-06-17T16:14:17Z</time>
      </trkpt>
      <trkpt lat="49.45343" lon="0.27313">
        <ele>5.5</ele>
        <time>2020-06-17T16:14:18Z</time>
      </trkpt>
      <trkpt lat="49.45344" lon="0.27311">
        <ele>5.4</ele>
        <time>2020-06-17T16:14:19Z</time>
      </trkpt>
      <trkpt lat="49.45346" lon="0.27309">
        <ele>5.4</ele>
        <time>2020-06-17T16:14:20Z</time>
      </trkpt>
      <trkpt lat="49.45346" lon="0.27308">
        <ele>5.4</ele>
        <time>2020-06-17T16:14:21Z</time>
      </trkpt>
      <trkpt lat="49.45346" lon="0.27307">
        <ele>5.4</ele>
        <time>2020-06-17T16:14:22Z</time>
      </trkpt>
      <trkpt lat="49.45347" lon="0.27305">
        <ele>5.3</ele>
        <time>2020-06-17T16:14:23Z</time>
      </trkpt>
      <trkpt lat="49.45348" lon="0.27302">
        <ele>5.3</ele>
        <time>2020-06-17T16:14:24Z</time>
      </trkpt>
      <trkpt lat="49.45351" lon="0.27301">
        <ele>5.2</ele>
        <time>2020-06-17T16:14:25Z</time>
      </trkpt>
      <trkpt lat="49.45353" lon="0.273">
        <ele>5.2</ele>
        <time>2020-06-17T16:14:26Z</time>
      </trkpt>
      <trkpt lat="49.45356" lon="0.27298">
        <ele>5.1</ele>
        <time>2020-06-17T16:14:27Z</time>
      </trkpt>
      <trkpt lat="49.45357" lon="0.27296">
        <ele>5.1</ele>
        <time>2020-06-17T16:14:28Z</time>
      </trkpt>
      <trkpt lat="49.45359" lon="0.27293">
        <ele>5</ele>
        <time>2020-06-17T16:14:29Z</time>
      </trkpt>
      <trkpt lat="49.45362" lon="0.27288">
        <ele>5</ele>
        <time>2020-06-17T16:14:30Z</time>
      </trkpt>
      <trkpt lat="49.45363" lon="0.27286">
        <ele>5</ele>
        <time>2020-06-17T16:14:31Z</time>
      </trkpt>
      <trkpt lat="49.45364" lon="0.2728">
        <ele>5</ele>
        <time>2020-06-17T16:14:32Z</time>
      </trkpt>
      <trkpt lat="49.45365" lon="0.27274">
        <ele>5</ele>
        <time>2020-06-17T16:14:33Z</time>
      </trkpt>
      <trkpt lat="49.45364" lon="0.27267">
        <ele>5</ele>
        <time>2020-06-17T16:14:34Z</time>
      </trkpt>
      <trkpt lat="49.45364" lon="0.2726">
        <ele>5</ele>
        <time>2020-06-17T16:14:35Z</time>
      </trkpt>
      <trkpt lat="49.45363" lon="0.27254">
        <ele>5</ele>
        <time>2020-06-17T16:14:36Z</time>
      </trkpt>
      <trkpt lat="49.45363" lon="0.27247">
        <ele>4.9</ele>
        <time>2020-06-17T16:14:37Z</time>
      </trkpt>
      <trkpt lat="49.45363" lon="0.2724">
        <ele>4.9</ele>
        <time>2020-06-17T16:14:38Z</time>
      </trkpt>
      <trkpt lat="49.45363" lon="0.27231">
        <ele>4.9</ele>
        <time>2020-06-17T16:14:39Z</time>
      </trkpt>
      <trkpt lat="49.45363" lon="0.27221">
        <ele>4.9</ele>
        <time>2020-06-17T16:14:40Z</time>
      </trkpt>
      <trkpt lat="49.45363" lon="0.27212">
        <ele>4.9</ele>
        <time>2020-06-17T16:14:41Z</time>
      </trkpt>
      <trkpt lat="49.45364" lon="0.27204">
        <ele>4.9</ele>
        <time>2020-06-17T16:14:42Z</time>
      </trkpt>
      <trkpt lat="49.45365" lon="0.27198">
        <ele>4.9</ele>
        <time>2020-06-17T16:14:43Z</time>
      </trkpt>
      <trkpt lat="49.45365" lon="0.27186">
        <ele>4.9</ele>
        <time>2020-06-17T16:14:44Z</time>
      </trkpt>
      <trkpt lat="49.45365" lon="0.27179">
        <ele>4.9</ele>
        <time>2020-06-17T16:14:45Z</time>
      </trkpt>
      <trkpt lat="49.45366" lon="0.27172">
        <ele>4.8</ele>
        <time>2020-06-17T16:14:46Z</time>
      </trkpt>
      <trkpt lat="49.45366" lon="0.27162">
        <ele>4.8</ele>
        <time>2020-06-17T16:14:47Z</time>
      </trkpt>
      <trkpt lat="49.45367" lon="0.27154">
        <ele>4.8</ele>
        <time>2020-06-17T16:14:48Z</time>
      </trkpt>
      <trkpt lat="49.45368" lon="0.27145">
        <ele>4.8</ele>
        <time>2020-06-17T16:14:49Z</time>
      </trkpt>
      <trkpt lat="49.45368" lon="0.27137">
        <ele>4.8</ele>
        <time>2020-06-17T16:14:50Z</time>
      </trkpt>
      <trkpt lat="49.45369" lon="0.2713">
        <ele>4.7</ele>
        <time>2020-06-17T16:14:51Z</time>
      </trkpt>
      <trkpt lat="49.45369" lon="0.27125">
        <ele>4.7</ele>
        <time>2020-06-17T16:14:52Z</time>
      </trkpt>
      <trkpt lat="49.4537" lon="0.27118">
        <ele>4.7</ele>
        <time>2020-06-17T16:14:53Z</time>
      </trkpt>
      <trkpt lat="49.4537" lon="0.27113">
        <ele>4.7</ele>
        <time>2020-06-17T16:14:54Z</time>
      </trkpt>
      <trkpt lat="49.4537" lon="0.27106">
        <ele>4.7</ele>
        <time>2020-06-17T16:14:55Z</time>
      </trkpt>
      <trkpt lat="49.45371" lon="0.27099">
        <ele>4.7</ele>
        <time>2020-06-17T16:14:56Z</time>
      </trkpt>
      <trkpt lat="49.45372" lon="0.27092">
        <ele>4.7</ele>
        <time>2020-06-17T16:14:57Z</time>
      </trkpt>
      <trkpt lat="49.45373" lon="0.27085">
        <ele>4.7</ele>
        <time>2020-06-17T16:14:58Z</time>
      </trkpt>
      <trkpt lat="49.45374" lon="0.27078">
        <ele>4.7</ele>
        <time>2020-06-17T16:14:59Z</time>
      </trkpt>
      <trkpt lat="49.45376" lon="0.27071">
        <ele>4.7</ele>
        <time>2020-06-17T16:15:00Z</time>
      </trkpt>
      <trkpt lat="49.45376" lon="0.27065">
        <ele>4.7</ele>
        <time>2020-06-17T16:15:01Z</time>
      </trkpt>
      <trkpt lat="49.45376" lon="0.2706">
        <ele>4.7</ele>
        <time>2020-06-17T16:15:02Z</time>
      </trkpt>
      <trkpt lat="49.45376" lon="0.27054">
        <ele>4.8</ele>
        <time>2020-06-17T16:15:03Z</time>
      </trkpt>
      <trkpt lat="49.45376" lon="0.27049">
        <ele>4.8</ele>
        <time>2020-06-17T16:15:04Z</time>
      </trkpt>
      <trkpt lat="49.45376" lon="0.27044">
        <ele>4.8</ele>
        <time>2020-06-17T16:15:05Z</time>
      </trkpt>
      <trkpt lat="49.45376" lon="0.2704">
        <ele>4.7</ele>
        <time>2020-06-17T16:15:06Z</time>
      </trkpt>
      <trkpt lat="49.45375" lon="0.27035">
        <ele>4.6</ele>
        <time>2020-06-17T16:15:07Z</time>
      </trkpt>
      <trkpt lat="49.45375" lon="0.27033">
        <ele>4.6</ele>
        <time>2020-06-17T16:15:08Z</time>
      </trkpt>
      <trkpt lat="49.45378" lon="0.27029">
        <ele>4.5</ele>
        <time>2020-06-17T16:15:09Z</time>
      </trkpt>
      <trkpt lat="49.4538" lon="0.27025">
        <ele>4.4</ele>
        <time>2020-06-17T16:15:10Z</time>
      </trkpt>
      <trkpt lat="49.45382" lon="0.27019">
        <ele>4.4</ele>
        <time>2020-06-17T16:15:11Z</time>
      </trkpt>
      <trkpt lat="49.45384" lon="0.27012">
        <ele>4.3</ele>
        <time>2020-06-17T16:15:12Z</time>
      </trkpt>
      <trkpt lat="49.45385" lon="0.27004">
        <ele>4.3</ele>
        <time>2020-06-17T16:15:13Z</time>
      </trkpt>
      <trkpt lat="49.45385" lon="0.26997">
        <ele>4.3</ele>
        <time>2020-06-17T16:15:14Z</time>
      </trkpt>
      <trkpt lat="49.45384" lon="0.2699">
        <ele>4.3</ele>
        <time>2020-06-17T16:15:15Z</time>
      </trkpt>
      <trkpt lat="49.45382" lon="0.26982">
        <ele>4.3</ele>
        <time>2020-06-17T16:15:16Z</time>
      </trkpt>
      <trkpt lat="49.45381" lon="0.26975">
        <ele>4.3</ele>
        <time>2020-06-17T16:15:17Z</time>
      </trkpt>
      <trkpt lat="49.4538" lon="0.26968">
        <ele>4.4</ele>
        <time>2020-06-17T16:15:18Z</time>
      </trkpt>
      <trkpt lat="49.45379" lon="0.26961">
        <ele>4.4</ele>
        <time>2020-06-17T16:15:19Z</time>
      </trkpt>
      <trkpt lat="49.45378" lon="0.26954">
        <ele>4.4</ele>
        <time>2020-06-17T16:15:20Z</time>
      </trkpt>
      <trkpt lat="49.45379" lon="0.26947">
        <ele>4.4</ele>
        <time>2020-06-17T16:15:21Z</time>
      </trkpt>
      <trkpt lat="49.45381" lon="0.2694">
        <ele>4.4</ele>
        <time>2020-06-17T16:15:22Z</time>
      </trkpt>
      <trkpt lat="49.45382" lon="0.26933">
        <ele>4.4</ele>
        <time>2020-06-17T16:15:23Z</time>
      </trkpt>
      <trkpt lat="49.45383" lon="0.26927">
        <ele>4.4</ele>
        <time>2020-06-17T16:15:24Z</time>
      </trkpt>
      <trkpt lat="49.45384" lon="0.26922">
        <ele>4.4</ele>
        <time>2020-06-17T16:15:25Z</time>
      </trkpt>
      <trkpt lat="49.45385" lon="0.26916">
        <ele>4.4</ele>
        <time>2020-06-17T16:15:26Z</time>
      </trkpt>
      <trkpt lat="49.45386" lon="0.26911">
        <ele>4.4</ele>
        <time>2020-06-17T16:15:27Z</time>
      </trkpt>
      <trkpt lat="49.45386" lon="0.26905">
        <ele>4.4</ele>
        <time>2020-06-17T16:15:28Z</time>
      </trkpt>
      <trkpt lat="49.45386" lon="0.26903">
        <ele>4.4</ele>
        <time>2020-06-17T16:15:29Z</time>
      </trkpt>
      <trkpt lat="49.45388" lon="0.269">
        <ele>4.4</ele>
        <time>2020-06-17T16:15:30Z</time>
      </trkpt>
      <trkpt lat="49.45388" lon="0.26896">
        <ele>4.4</ele>
        <time>2020-06-17T16:15:31Z</time>
      </trkpt>
      <trkpt lat="49.45388" lon="0.26891">
        <ele>4.4</ele>
        <time>2020-06-17T16:15:32Z</time>
      </trkpt>
      <trkpt lat="49.45388" lon="0.26889">
        <ele>4.4</ele>
        <time>2020-06-17T16:15:33Z</time>
      </trkpt>
      <trkpt lat="49.45388" lon="0.26885">
        <ele>4.4</ele>
        <time>2020-06-17T16:15:34Z</time>
      </trkpt>
      <trkpt lat="49.45387" lon="0.26884">
        <ele>4.4</ele>
        <time>2020-06-17T16:15:35Z</time>
      </trkpt>
      <trkpt lat="49.45385" lon="0.26881">
        <ele>4.4</ele>
        <time>2020-06-17T16:15:36Z</time>
      </trkpt>
      <trkpt lat="49.45384" lon="0.2688">
        <ele>4.4</ele>
        <time>2020-06-17T16:15:37Z</time>
      </trkpt>
      <trkpt lat="49.45383" lon="0.26879">
        <ele>4.6</ele>
        <time>2020-06-17T16:15:38Z</time>
      </trkpt>
      <trkpt lat="49.45383" lon="0.26876">
        <ele>4.6</ele>
        <time>2020-06-17T16:15:39Z</time>
      </trkpt>
      <trkpt lat="49.45383" lon="0.26876">
        <ele>4.6</ele>
        <time>2020-06-17T16:15:40Z</time>
      </trkpt>
      <trkpt lat="49.45383" lon="0.26875">
        <ele>4.6</ele>
        <time>2020-06-17T16:15:41Z</time>
      </trkpt>
      <trkpt lat="49.45383" lon="0.26874">
        <ele>4.7</ele>
        <time>2020-06-17T16:15:42Z</time>
      </trkpt>
      <trkpt lat="49.45383" lon="0.26873">
        <ele>4.7</ele>
        <time>2020-06-17T16:15:43Z</time>
      </trkpt>
      <trkpt lat="49.45382" lon="0.26872">
        <ele>4.7</ele>
        <time>2020-06-17T16:15:44Z</time>
      </trkpt>
      <trkpt lat="49.45382" lon="0.26872">
        <ele>4.8</ele>
        <time>2020-06-17T16:15:45Z</time>
      </trkpt>
      <trkpt lat="49.45382" lon="0.26873">
        <ele>4.8</ele>
        <time>2020-06-17T16:15:46Z</time>
      </trkpt>
      <trkpt lat="49.45381" lon="0.26873">
        <ele>4.9</ele>
        <time>2020-06-17T16:15:47Z</time>
      </trkpt>
      <trkpt lat="49.45381" lon="0.26873">
        <ele>4.9</ele>
        <time>2020-06-17T16:15:48Z</time>
      </trkpt>
      <trkpt lat="49.4538" lon="0.26872">
        <ele>5</ele>
        <time>2020-06-17T16:15:49Z</time>
      </trkpt>
      <trkpt lat="49.45379" lon="0.26872">
        <ele>5</ele>
        <time>2020-06-17T16:15:50Z</time>
      </trkpt>
      <trkpt lat="49.45379" lon="0.26871">
        <ele>5</ele>
        <time>2020-06-17T16:15:51Z</time>
      </trkpt>
      <trkpt lat="49.45379" lon="0.2687">
        <ele>5.1</ele>
        <time>2020-06-17T16:15:52Z</time>
      </trkpt>
      <trkpt lat="49.45378" lon="0.26869">
        <ele>5.2</ele>
        <time>2020-06-17T16:15:53Z</time>
      </trkpt>
      <trkpt lat="49.45377" lon="0.26869">
        <ele>5.2</ele>
        <time>2020-06-17T16:15:54Z</time>
      </trkpt>
      <trkpt lat="49.45377" lon="0.26869">
        <ele>5.2</ele>
        <time>2020-06-17T16:15:55Z</time>
      </trkpt>
      <trkpt lat="49.45377" lon="0.26868">
        <ele>5.2</ele>
        <time>2020-06-17T16:15:56Z</time>
      </trkpt>
      <trkpt lat="49.45377" lon="0.26868">
        <ele>5.2</ele>
        <time>2020-06-17T16:15:57Z</time>
      </trkpt>
      <trkpt lat="49.45377" lon="0.26868">
        <ele>5.2</ele>
        <time>2020-06-17T16:15:58Z</time>
      </trkpt>
      <trkpt lat="49.45377" lon="0.26868">
        <ele>5.2</ele>
        <time>2020-06-17T16:15:59Z</time>
      </trkpt>
      <trkpt lat="49.45376" lon="0.26868">
        <ele>5.2</ele>
        <time>2020-06-17T16:16:00Z</time>
      </trkpt>
      <trkpt lat="49.45376" lon="0.26868">
        <ele>5.2</ele>
        <time>2020-06-17T16:16:01Z</time>
      </trkpt>
      <trkpt lat="49.45376" lon="0.26868">
        <ele>5.2</ele>
        <time>2020-06-17T16:16:02Z</time>
      </trkpt>
      <trkpt lat="49.45375" lon="0.26867">
        <ele>5.2</ele>
        <time>2020-06-17T16:16:03Z</time>
      </trkpt>
      <trkpt lat="49.45373" lon="0.26868">
        <ele>5.2</ele>
        <time>2020-06-17T16:16:04Z</time>
      </trkpt>
      <trkpt lat="49.45372" lon="0.26866">
        <ele>5.2</ele>
        <time>2020-06-17T16:16:05Z</time>
      </trkpt>
      <trkpt lat="49.45372" lon="0.26866">
        <ele>5.2</ele>
        <time>2020-06-17T16:16:06Z</time>
      </trkpt>
      <trkpt lat="49.45372" lon="0.26865">
        <ele>5.2</ele>
        <time>2020-06-17T16:16:07Z</time>
      </trkpt>
      <trkpt lat="49.45372" lon="0.26865">
        <ele>5.2</ele>
        <time>2020-06-17T16:16:08Z</time>
      </trkpt>
      <trkpt lat="49.45372" lon="0.26862">
        <ele>5.2</ele>
        <time>2020-06-17T16:16:09Z</time>
      </trkpt>
      <trkpt lat="49.45374" lon="0.26855">
        <ele>5.2</ele>
        <time>2020-06-17T16:16:10Z</time>
      </trkpt>
      <trkpt lat="49.45375" lon="0.26849">
        <ele>5.2</ele>
        <time>2020-06-17T16:16:11Z</time>
      </trkpt>
      <trkpt lat="49.45376" lon="0.26842">
        <ele>5.2</ele>
        <time>2020-06-17T16:16:12Z</time>
      </trkpt>
      <trkpt lat="49.45377" lon="0.26834">
        <ele>5.2</ele>
        <time>2020-06-17T16:16:13Z</time>
      </trkpt>
      <trkpt lat="49.45377" lon="0.26829">
        <ele>5.2</ele>
        <time>2020-06-17T16:16:14Z</time>
      </trkpt>
      <trkpt lat="49.45378" lon="0.26822">
        <ele>5.1</ele>
        <time>2020-06-17T16:16:15Z</time>
      </trkpt>
      <trkpt lat="49.45378" lon="0.26814">
        <ele>5.1</ele>
        <time>2020-06-17T16:16:16Z</time>
      </trkpt>
      <trkpt lat="49.45378" lon="0.26807">
        <ele>5.1</ele>
        <time>2020-06-17T16:16:17Z</time>
      </trkpt>
      <trkpt lat="49.45377" lon="0.268">
        <ele>5.1</ele>
        <time>2020-06-17T16:16:18Z</time>
      </trkpt>
      <trkpt lat="49.45377" lon="0.26793">
        <ele>5.1</ele>
        <time>2020-06-17T16:16:19Z</time>
      </trkpt>
      <trkpt lat="49.45378" lon="0.26786">
        <ele>5.1</ele>
        <time>2020-06-17T16:16:20Z</time>
      </trkpt>
      <trkpt lat="49.45378" lon="0.2678">
        <ele>5</ele>
        <time>2020-06-17T16:16:21Z</time>
      </trkpt>
      <trkpt lat="49.45378" lon="0.26773">
        <ele>5</ele>
        <time>2020-06-17T16:16:22Z</time>
      </trkpt>
      <trkpt lat="49.45379" lon="0.26766">
        <ele>5</ele>
        <time>2020-06-17T16:16:23Z</time>
      </trkpt>
      <trkpt lat="49.45379" lon="0.26758">
        <ele>5</ele>
        <time>2020-06-17T16:16:24Z</time>
      </trkpt>
      <trkpt lat="49.45379" lon="0.26751">
        <ele>4.9</ele>
        <time>2020-06-17T16:16:25Z</time>
      </trkpt>
      <trkpt lat="49.45379" lon="0.26744">
        <ele>4.9</ele>
        <time>2020-06-17T16:16:26Z</time>
      </trkpt>
      <trkpt lat="49.4538" lon="0.26738">
        <ele>4.9</ele>
        <time>2020-06-17T16:16:27Z</time>
      </trkpt>
      <trkpt lat="49.45381" lon="0.26732">
        <ele>4.9</ele>
        <time>2020-06-17T16:16:28Z</time>
      </trkpt>
      <trkpt lat="49.45382" lon="0.26725">
        <ele>4.9</ele>
        <time>2020-06-17T16:16:29Z</time>
      </trkpt>
      <trkpt lat="49.45382" lon="0.2672">
        <ele>4.9</ele>
        <time>2020-06-17T16:16:30Z</time>
      </trkpt>
      <trkpt lat="49.45383" lon="0.26714">
        <ele>4.9</ele>
        <time>2020-06-17T16:16:31Z</time>
      </trkpt>
      <trkpt lat="49.45384" lon="0.26709">
        <ele>4.9</ele>
        <time>2020-06-17T16:16:32Z</time>
      </trkpt>
      <trkpt lat="49.45385" lon="0.26703">
        <ele>4.9</ele>
        <time>2020-06-17T16:16:33Z</time>
      </trkpt>
      <trkpt lat="49.45385" lon="0.26697">
        <ele>4.9</ele>
        <time>2020-06-17T16:16:34Z</time>
      </trkpt>
      <trkpt lat="49.45385" lon="0.26689">
        <ele>4.9</ele>
        <time>2020-06-17T16:16:35Z</time>
      </trkpt>
      <trkpt lat="49.45386" lon="0.26684">
        <ele>4.9</ele>
        <time>2020-06-17T16:16:36Z</time>
      </trkpt>
      <trkpt lat="49.45386" lon="0.26676">
        <ele>4.9</ele>
        <time>2020-06-17T16:16:37Z</time>
      </trkpt>
      <trkpt lat="49.45386" lon="0.26669">
        <ele>4.9</ele>
        <time>2020-06-17T16:16:38Z</time>
      </trkpt>
      <trkpt lat="49.45386" lon="0.26663">
        <ele>4.9</ele>
        <time>2020-06-17T16:16:39Z</time>
      </trkpt>
      <trkpt lat="49.45386" lon="0.26656">
        <ele>4.9</ele>
        <time>2020-06-17T16:16:40Z</time>
      </trkpt>
      <trkpt lat="49.45386" lon="0.26649">
        <ele>4.9</ele>
        <time>2020-06-17T16:16:41Z</time>
      </trkpt>
      <trkpt lat="49.45386" lon="0.26642">
        <ele>4.9</ele>
        <time>2020-06-17T16:16:42Z</time>
      </trkpt>
      <trkpt lat="49.45387" lon="0.26636">
        <ele>4.9</ele>
        <time>2020-06-17T16:16:43Z</time>
      </trkpt>
      <trkpt lat="49.45389" lon="0.26629">
        <ele>5</ele>
        <time>2020-06-17T16:16:44Z</time>
      </trkpt>
      <trkpt lat="49.45389" lon="0.26622">
        <ele>5</ele>
        <time>2020-06-17T16:16:45Z</time>
      </trkpt>
      <trkpt lat="49.4539" lon="0.26614">
        <ele>5</ele>
        <time>2020-06-17T16:16:46Z</time>
      </trkpt>
      <trkpt lat="49.45391" lon="0.26606">
        <ele>5</ele>
        <time>2020-06-17T16:16:47Z</time>
      </trkpt>
      <trkpt lat="49.45391" lon="0.26598">
        <ele>5</ele>
        <time>2020-06-17T16:16:48Z</time>
      </trkpt>
      <trkpt lat="49.45392" lon="0.26593">
        <ele>5</ele>
        <time>2020-06-17T16:16:49Z</time>
      </trkpt>
      <trkpt lat="49.45392" lon="0.26586">
        <ele>5</ele>
        <time>2020-06-17T16:16:50Z</time>
      </trkpt>
      <trkpt lat="49.45392" lon="0.2658">
        <ele>5</ele>
        <time>2020-06-17T16:16:51Z</time>
      </trkpt>
      <trkpt lat="49.45393" lon="0.26573">
        <ele>5</ele>
        <time>2020-06-17T16:16:52Z</time>
      </trkpt>
      <trkpt lat="49.45394" lon="0.26564">
        <ele>5</ele>
        <time>2020-06-17T16:16:53Z</time>
      </trkpt>
      <trkpt lat="49.45395" lon="0.26557">
        <ele>5</ele>
        <time>2020-06-17T16:16:54Z</time>
      </trkpt>
      <trkpt lat="49.45395" lon="0.2655">
        <ele>5</ele>
        <time>2020-06-17T16:16:55Z</time>
      </trkpt>
      <trkpt lat="49.45396" lon="0.26544">
        <ele>5</ele>
        <time>2020-06-17T16:16:56Z</time>
      </trkpt>
      <trkpt lat="49.45396" lon="0.26537">
        <ele>4.9</ele>
        <time>2020-06-17T16:16:57Z</time>
      </trkpt>
      <trkpt lat="49.45395" lon="0.26531">
        <ele>4.9</ele>
        <time>2020-06-17T16:16:58Z</time>
      </trkpt>
      <trkpt lat="49.45395" lon="0.26524">
        <ele>4.9</ele>
        <time>2020-06-17T16:16:59Z</time>
      </trkpt>
      <trkpt lat="49.45395" lon="0.26517">
        <ele>4.9</ele>
        <time>2020-06-17T16:17:00Z</time>
      </trkpt>
      <trkpt lat="49.45396" lon="0.26508">
        <ele>4.9</ele>
        <time>2020-06-17T16:17:01Z</time>
      </trkpt>
      <trkpt lat="49.45397" lon="0.26502">
        <ele>4.9</ele>
        <time>2020-06-17T16:17:02Z</time>
      </trkpt>
      <trkpt lat="49.45398" lon="0.26494">
        <ele>4.9</ele>
        <time>2020-06-17T16:17:03Z</time>
      </trkpt>
      <trkpt lat="49.45399" lon="0.26487">
        <ele>4.9</ele>
        <time>2020-06-17T16:17:04Z</time>
      </trkpt>
      <trkpt lat="49.45399" lon="0.26482">
        <ele>4.9</ele>
        <time>2020-06-17T16:17:05Z</time>
      </trkpt>
      <trkpt lat="49.45399" lon="0.26475">
        <ele>4.9</ele>
        <time>2020-06-17T16:17:06Z</time>
      </trkpt>
      <trkpt lat="49.454" lon="0.26468">
        <ele>4.9</ele>
        <time>2020-06-17T16:17:07Z</time>
      </trkpt>
      <trkpt lat="49.45401" lon="0.26462">
        <ele>4.9</ele>
        <time>2020-06-17T16:17:08Z</time>
      </trkpt>
      <trkpt lat="49.45402" lon="0.26456">
        <ele>4.9</ele>
        <time>2020-06-17T16:17:09Z</time>
      </trkpt>
      <trkpt lat="49.45401" lon="0.2645">
        <ele>4.8</ele>
        <time>2020-06-17T16:17:10Z</time>
      </trkpt>
      <trkpt lat="49.45402" lon="0.26442">
        <ele>4.8</ele>
        <time>2020-06-17T16:17:11Z</time>
      </trkpt>
      <trkpt lat="49.45402" lon="0.26434">
        <ele>4.8</ele>
        <time>2020-06-17T16:17:12Z</time>
      </trkpt>
      <trkpt lat="49.45403" lon="0.26425">
        <ele>4.8</ele>
        <time>2020-06-17T16:17:13Z</time>
      </trkpt>
      <trkpt lat="49.45404" lon="0.26418">
        <ele>4.8</ele>
        <time>2020-06-17T16:17:14Z</time>
      </trkpt>
      <trkpt lat="49.45404" lon="0.26411">
        <ele>4.8</ele>
        <time>2020-06-17T16:17:15Z</time>
      </trkpt>
      <trkpt lat="49.45405" lon="0.26403">
        <ele>4.8</ele>
        <time>2020-06-17T16:17:16Z</time>
      </trkpt>
      <trkpt lat="49.45406" lon="0.26396">
        <ele>4.8</ele>
        <time>2020-06-17T16:17:17Z</time>
      </trkpt>
      <trkpt lat="49.45407" lon="0.26388">
        <ele>4.8</ele>
        <time>2020-06-17T16:17:18Z</time>
      </trkpt>
      <trkpt lat="49.45406" lon="0.26382">
        <ele>4.8</ele>
        <time>2020-06-17T16:17:19Z</time>
      </trkpt>
      <trkpt lat="49.45406" lon="0.26374">
        <ele>4.8</ele>
        <time>2020-06-17T16:17:20Z</time>
      </trkpt>
      <trkpt lat="49.45407" lon="0.26366">
        <ele>4.8</ele>
        <time>2020-06-17T16:17:21Z</time>
      </trkpt>
      <trkpt lat="49.45408" lon="0.26359">
        <ele>4.8</ele>
        <time>2020-06-17T16:17:22Z</time>
      </trkpt>
      <trkpt lat="49.45408" lon="0.26351">
        <ele>4.8</ele>
        <time>2020-06-17T16:17:23Z</time>
      </trkpt>
      <trkpt lat="49.4541" lon="0.26344">
        <ele>4.8</ele>
        <time>2020-06-17T16:17:24Z</time>
      </trkpt>
      <trkpt lat="49.4541" lon="0.26337">
        <ele>4.8</ele>
        <time>2020-06-17T16:17:25Z</time>
      </trkpt>
      <trkpt lat="49.4541" lon="0.2633">
        <ele>4.8</ele>
        <time>2020-06-17T16:17:26Z</time>
      </trkpt>
      <trkpt lat="49.45411" lon="0.26322">
        <ele>4.8</ele>
        <time>2020-06-17T16:17:27Z</time>
      </trkpt>
      <trkpt lat="49.45411" lon="0.26314">
        <ele>4.8</ele>
        <time>2020-06-17T16:17:28Z</time>
      </trkpt>
      <trkpt lat="49.45411" lon="0.26307">
        <ele>4.8</ele>
        <time>2020-06-17T16:17:29Z</time>
      </trkpt>
      <trkpt lat="49.45412" lon="0.26299">
        <ele>4.8</ele>
        <time>2020-06-17T16:17:30Z</time>
      </trkpt>
      <trkpt lat="49.45412" lon="0.26291">
        <ele>4.8</ele>
        <time>2020-06-17T16:17:31Z</time>
      </trkpt>
      <trkpt lat="49.45412" lon="0.26284">
        <ele>4.8</ele>
        <time>2020-06-17T16:17:32Z</time>
      </trkpt>
      <trkpt lat="49.45414" lon="0.26277">
        <ele>4.9</ele>
        <time>2020-06-17T16:17:33Z</time>
      </trkpt>
      <trkpt lat="49.45414" lon="0.2627">
        <ele>4.9</ele>
        <time>2020-06-17T16:17:34Z</time>
      </trkpt>
      <trkpt lat="49.45415" lon="0.26262">
        <ele>4.9</ele>
        <time>2020-06-17T16:17:35Z</time>
      </trkpt>
      <trkpt lat="49.45415" lon="0.26255">
        <ele>5</ele>
        <time>2020-06-17T16:17:36Z</time>
      </trkpt>
      <trkpt lat="49.45416" lon="0.26247">
        <ele>5</ele>
        <time>2020-06-17T16:17:37Z</time>
      </trkpt>
      <trkpt lat="49.45416" lon="0.26239">
        <ele>5.1</ele>
        <time>2020-06-17T16:17:38Z</time>
      </trkpt>
      <trkpt lat="49.45417" lon="0.26231">
        <ele>5.2</ele>
        <time>2020-06-17T16:17:39Z</time>
      </trkpt>
      <trkpt lat="49.45418" lon="0.26223">
        <ele>5.2</ele>
        <time>2020-06-17T16:17:40Z</time>
      </trkpt>
      <trkpt lat="49.45419" lon="0.26215">
        <ele>5.2</ele>
        <time>2020-06-17T16:17:41Z</time>
      </trkpt>
      <trkpt lat="49.45419" lon="0.26208">
        <ele>5.3</ele>
        <time>2020-06-17T16:17:42Z</time>
      </trkpt>
      <trkpt lat="49.4542" lon="0.262">
        <ele>5.3</ele>
        <time>2020-06-17T16:17:43Z</time>
      </trkpt>
      <trkpt lat="49.45419" lon="0.26192">
        <ele>5.3</ele>
        <time>2020-06-17T16:17:44Z</time>
      </trkpt>
      <trkpt lat="49.45418" lon="0.26184">
        <ele>5.3</ele>
        <time>2020-06-17T16:17:45Z</time>
      </trkpt>
      <trkpt lat="49.45418" lon="0.26178">
        <ele>5.4</ele>
        <time>2020-06-17T16:17:46Z</time>
      </trkpt>
      <trkpt lat="49.45418" lon="0.26171">
        <ele>5.4</ele>
        <time>2020-06-17T16:17:47Z</time>
      </trkpt>
      <trkpt lat="49.45418" lon="0.26164">
        <ele>5.4</ele>
        <time>2020-06-17T16:17:48Z</time>
      </trkpt>
      <trkpt lat="49.45418" lon="0.26156">
        <ele>5.5</ele>
        <time>2020-06-17T16:17:49Z</time>
      </trkpt>
      <trkpt lat="49.45419" lon="0.26148">
        <ele>5.5</ele>
        <time>2020-06-17T16:17:50Z</time>
      </trkpt>
      <trkpt lat="49.45419" lon="0.2614">
        <ele>5.5</ele>
        <time>2020-06-17T16:17:51Z</time>
      </trkpt>
      <trkpt lat="49.4542" lon="0.26131">
        <ele>5.6</ele>
        <time>2020-06-17T16:17:52Z</time>
      </trkpt>
      <trkpt lat="49.45422" lon="0.26124">
        <ele>5.6</ele>
        <time>2020-06-17T16:17:53Z</time>
      </trkpt>
      <trkpt lat="49.45422" lon="0.26116">
        <ele>5.6</ele>
        <time>2020-06-17T16:17:54Z</time>
      </trkpt>
      <trkpt lat="49.45423" lon="0.2611">
        <ele>5.7</ele>
        <time>2020-06-17T16:17:55Z</time>
      </trkpt>
      <trkpt lat="49.45423" lon="0.26103">
        <ele>5.7</ele>
        <time>2020-06-17T16:17:56Z</time>
      </trkpt>
      <trkpt lat="49.45425" lon="0.26095">
        <ele>5.7</ele>
        <time>2020-06-17T16:17:57Z</time>
      </trkpt>
      <trkpt lat="49.45425" lon="0.26087">
        <ele>5.7</ele>
        <time>2020-06-17T16:17:58Z</time>
      </trkpt>
      <trkpt lat="49.45426" lon="0.26079">
        <ele>5.6</ele>
        <time>2020-06-17T16:17:59Z</time>
      </trkpt>
      <trkpt lat="49.45426" lon="0.26073">
        <ele>5.6</ele>
        <time>2020-06-17T16:18:00Z</time>
      </trkpt>
      <trkpt lat="49.45427" lon="0.26065">
        <ele>5.6</ele>
        <time>2020-06-17T16:18:01Z</time>
      </trkpt>
      <trkpt lat="49.45427" lon="0.2606">
        <ele>5.6</ele>
        <time>2020-06-17T16:18:02Z</time>
      </trkpt>
      <trkpt lat="49.45427" lon="0.26052">
        <ele>5.5</ele>
        <time>2020-06-17T16:18:03Z</time>
      </trkpt>
      <trkpt lat="49.45428" lon="0.26045">
        <ele>5.5</ele>
        <time>2020-06-17T16:18:04Z</time>
      </trkpt>
      <trkpt lat="49.45428" lon="0.26038">
        <ele>5.6</ele>
        <time>2020-06-17T16:18:05Z</time>
      </trkpt>
      <trkpt lat="49.45429" lon="0.26031">
        <ele>5.6</ele>
        <time>2020-06-17T16:18:06Z</time>
      </trkpt>
      <trkpt lat="49.4543" lon="0.26026">
        <ele>5.6</ele>
        <time>2020-06-17T16:18:07Z</time>
      </trkpt>
      <trkpt lat="49.45431" lon="0.26018">
        <ele>5.6</ele>
        <time>2020-06-17T16:18:08Z</time>
      </trkpt>
      <trkpt lat="49.45432" lon="0.2601">
        <ele>5.6</ele>
        <time>2020-06-17T16:18:09Z</time>
      </trkpt>
      <trkpt lat="49.45433" lon="0.26003">
        <ele>5.6</ele>
        <time>2020-06-17T16:18:10Z</time>
      </trkpt>
      <trkpt lat="49.45432" lon="0.25996">
        <ele>5.6</ele>
        <time>2020-06-17T16:18:11Z</time>
      </trkpt>
      <trkpt lat="49.45433" lon="0.25989">
        <ele>5.6</ele>
        <time>2020-06-17T16:18:12Z</time>
      </trkpt>
      <trkpt lat="49.45432" lon="0.25984">
        <ele>5.6</ele>
        <time>2020-06-17T16:18:13Z</time>
      </trkpt>
      <trkpt lat="49.45432" lon="0.25976">
        <ele>5.6</ele>
        <time>2020-06-17T16:18:14Z</time>
      </trkpt>
      <trkpt lat="49.45432" lon="0.2597">
        <ele>5.6</ele>
        <time>2020-06-17T16:18:15Z</time>
      </trkpt>
      <trkpt lat="49.45433" lon="0.25961">
        <ele>5.6</ele>
        <time>2020-06-17T16:18:16Z</time>
      </trkpt>
      <trkpt lat="49.45435" lon="0.25954">
        <ele>5.6</ele>
        <time>2020-06-17T16:18:17Z</time>
      </trkpt>
      <trkpt lat="49.45436" lon="0.25946">
        <ele>5.6</ele>
        <time>2020-06-17T16:18:18Z</time>
      </trkpt>
      <trkpt lat="49.45436" lon="0.25939">
        <ele>5.6</ele>
        <time>2020-06-17T16:18:19Z</time>
      </trkpt>
      <trkpt lat="49.45438" lon="0.25932">
        <ele>5.6</ele>
        <time>2020-06-17T16:18:20Z</time>
      </trkpt>
      <trkpt lat="49.45439" lon="0.25924">
        <ele>5.6</ele>
        <time>2020-06-17T16:18:21Z</time>
      </trkpt>
      <trkpt lat="49.4544" lon="0.25918">
        <ele>5.6</ele>
        <time>2020-06-17T16:18:22Z</time>
      </trkpt>
      <trkpt lat="49.45441" lon="0.25912">
        <ele>5.6</ele>
        <time>2020-06-17T16:18:23Z</time>
      </trkpt>
      <trkpt lat="49.45441" lon="0.25904">
        <ele>5.6</ele>
        <time>2020-06-17T16:18:24Z</time>
      </trkpt>
      <trkpt lat="49.45441" lon="0.25897">
        <ele>5.6</ele>
        <time>2020-06-17T16:18:25Z</time>
      </trkpt>
      <trkpt lat="49.45441" lon="0.25891">
        <ele>5.5</ele>
        <time>2020-06-17T16:18:26Z</time>
      </trkpt>
      <trkpt lat="49.45442" lon="0.25884">
        <ele>5.5</ele>
        <time>2020-06-17T16:18:27Z</time>
      </trkpt>
      <trkpt lat="49.45443" lon="0.25879">
        <ele>5.5</ele>
        <time>2020-06-17T16:18:28Z</time>
      </trkpt>
      <trkpt lat="49.45443" lon="0.25874">
        <ele>5.5</ele>
        <time>2020-06-17T16:18:29Z</time>
      </trkpt>
      <trkpt lat="49.45443" lon="0.25868">
        <ele>5.5</ele>
        <time>2020-06-17T16:18:30Z</time>
      </trkpt>
      <trkpt lat="49.45445" lon="0.25862">
        <ele>5.4</ele>
        <time>2020-06-17T16:18:31Z</time>
      </trkpt>
      <trkpt lat="49.45446" lon="0.25856">
        <ele>5.4</ele>
        <time>2020-06-17T16:18:32Z</time>
      </trkpt>
      <trkpt lat="49.45447" lon="0.25849">
        <ele>5.4</ele>
        <time>2020-06-17T16:18:33Z</time>
      </trkpt>
      <trkpt lat="49.45448" lon="0.25842">
        <ele>5.4</ele>
        <time>2020-06-17T16:18:34Z</time>
      </trkpt>
      <trkpt lat="49.45449" lon="0.25834">
        <ele>5.4</ele>
        <time>2020-06-17T16:18:35Z</time>
      </trkpt>
      <trkpt lat="49.45448" lon="0.25827">
        <ele>5.4</ele>
        <time>2020-06-17T16:18:36Z</time>
      </trkpt>
      <trkpt lat="49.45448" lon="0.2582">
        <ele>5.4</ele>
        <time>2020-06-17T16:18:37Z</time>
      </trkpt>
      <trkpt lat="49.45448" lon="0.25814">
        <ele>5.4</ele>
        <time>2020-06-17T16:18:38Z</time>
      </trkpt>
      <trkpt lat="49.45448" lon="0.25807">
        <ele>5.4</ele>
        <time>2020-06-17T16:18:39Z</time>
      </trkpt>
      <trkpt lat="49.45448" lon="0.258">
        <ele>5.4</ele>
        <time>2020-06-17T16:18:40Z</time>
      </trkpt>
      <trkpt lat="49.45449" lon="0.25793">
        <ele>5.4</ele>
        <time>2020-06-17T16:18:41Z</time>
      </trkpt>
      <trkpt lat="49.45449" lon="0.25786">
        <ele>5.4</ele>
        <time>2020-06-17T16:18:42Z</time>
      </trkpt>
      <trkpt lat="49.4545" lon="0.25778">
        <ele>5.4</ele>
        <time>2020-06-17T16:18:43Z</time>
      </trkpt>
      <trkpt lat="49.4545" lon="0.2577">
        <ele>5.4</ele>
        <time>2020-06-17T16:18:44Z</time>
      </trkpt>
      <trkpt lat="49.45451" lon="0.25761">
        <ele>5.4</ele>
        <time>2020-06-17T16:18:45Z</time>
      </trkpt>
      <trkpt lat="49.45452" lon="0.25754">
        <ele>5.4</ele>
        <time>2020-06-17T16:18:46Z</time>
      </trkpt>
      <trkpt lat="49.45453" lon="0.25747">
        <ele>5.4</ele>
        <time>2020-06-17T16:18:47Z</time>
      </trkpt>
      <trkpt lat="49.45454" lon="0.25739">
        <ele>5.4</ele>
        <time>2020-06-17T16:18:48Z</time>
      </trkpt>
      <trkpt lat="49.45454" lon="0.25731">
        <ele>5.4</ele>
        <time>2020-06-17T16:18:49Z</time>
      </trkpt>
      <trkpt lat="49.45455" lon="0.25724">
        <ele>5.4</ele>
        <time>2020-06-17T16:18:50Z</time>
      </trkpt>
      <trkpt lat="49.45456" lon="0.25716">
        <ele>5.4</ele>
        <time>2020-06-17T16:18:51Z</time>
      </trkpt>
      <trkpt lat="49.45456" lon="0.25711">
        <ele>5.4</ele>
        <time>2020-06-17T16:18:52Z</time>
      </trkpt>
      <trkpt lat="49.45456" lon="0.25702">
        <ele>5.3</ele>
        <time>2020-06-17T16:18:53Z</time>
      </trkpt>
      <trkpt lat="49.45457" lon="0.25694">
        <ele>5.3</ele>
        <time>2020-06-17T16:18:54Z</time>
      </trkpt>
      <trkpt lat="49.45457" lon="0.25686">
        <ele>5.3</ele>
        <time>2020-06-17T16:18:55Z</time>
      </trkpt>
      <trkpt lat="49.45458" lon="0.25679">
        <ele>5.3</ele>
        <time>2020-06-17T16:18:56Z</time>
      </trkpt>
      <trkpt lat="49.45458" lon="0.25671">
        <ele>5.3</ele>
        <time>2020-06-17T16:18:57Z</time>
      </trkpt>
      <trkpt lat="49.45459" lon="0.25664">
        <ele>5.3</ele>
        <time>2020-06-17T16:18:58Z</time>
      </trkpt>
      <trkpt lat="49.45459" lon="0.25657">
        <ele>5.3</ele>
        <time>2020-06-17T16:18:59Z</time>
      </trkpt>
      <trkpt lat="49.4546" lon="0.2565">
        <ele>5.3</ele>
        <time>2020-06-17T16:19:00Z</time>
      </trkpt>
      <trkpt lat="49.45461" lon="0.25643">
        <ele>5.3</ele>
        <time>2020-06-17T16:19:01Z</time>
      </trkpt>
      <trkpt lat="49.45461" lon="0.25636">
        <ele>5.3</ele>
        <time>2020-06-17T16:19:02Z</time>
      </trkpt>
      <trkpt lat="49.45461" lon="0.25629">
        <ele>5.4</ele>
        <time>2020-06-17T16:19:03Z</time>
      </trkpt>
      <trkpt lat="49.45461" lon="0.25623">
        <ele>5.4</ele>
        <time>2020-06-17T16:19:04Z</time>
      </trkpt>
      <trkpt lat="49.45462" lon="0.25617">
        <ele>5.5</ele>
        <time>2020-06-17T16:19:05Z</time>
      </trkpt>
      <trkpt lat="49.45463" lon="0.2561">
        <ele>5.5</ele>
        <time>2020-06-17T16:19:06Z</time>
      </trkpt>
      <trkpt lat="49.45464" lon="0.25603">
        <ele>5.7</ele>
        <time>2020-06-17T16:19:07Z</time>
      </trkpt>
      <trkpt lat="49.45466" lon="0.25597">
        <ele>5.9</ele>
        <time>2020-06-17T16:19:08Z</time>
      </trkpt>
      <trkpt lat="49.45468" lon="0.25589">
        <ele>5.9</ele>
        <time>2020-06-17T16:19:09Z</time>
      </trkpt>
      <trkpt lat="49.45469" lon="0.25583">
        <ele>5.9</ele>
        <time>2020-06-17T16:19:10Z</time>
      </trkpt>
      <trkpt lat="49.4547" lon="0.25577">
        <ele>5.9</ele>
        <time>2020-06-17T16:19:11Z</time>
      </trkpt>
      <trkpt lat="49.45471" lon="0.25571">
        <ele>5.9</ele>
        <time>2020-06-17T16:19:12Z</time>
      </trkpt>
      <trkpt lat="49.45471" lon="0.25565">
        <ele>5.9</ele>
        <time>2020-06-17T16:19:13Z</time>
      </trkpt>
      <trkpt lat="49.45472" lon="0.25556">
        <ele>5.8</ele>
        <time>2020-06-17T16:19:14Z</time>
      </trkpt>
      <trkpt lat="49.45472" lon="0.25549">
        <ele>5.8</ele>
        <time>2020-06-17T16:19:15Z</time>
      </trkpt>
      <trkpt lat="49.45473" lon="0.25542">
        <ele>5.8</ele>
        <time>2020-06-17T16:19:16Z</time>
      </trkpt>
      <trkpt lat="49.45473" lon="0.25535">
        <ele>5.7</ele>
        <time>2020-06-17T16:19:17Z</time>
      </trkpt>
      <trkpt lat="49.45474" lon="0.25527">
        <ele>5.7</ele>
        <time>2020-06-17T16:19:18Z</time>
      </trkpt>
      <trkpt lat="49.45474" lon="0.25519">
        <ele>5.7</ele>
        <time>2020-06-17T16:19:19Z</time>
      </trkpt>
      <trkpt lat="49.45474" lon="0.25512">
        <ele>5.7</ele>
        <time>2020-06-17T16:19:20Z</time>
      </trkpt>
      <trkpt lat="49.45474" lon="0.25504">
        <ele>5.6</ele>
        <time>2020-06-17T16:19:21Z</time>
      </trkpt>
      <trkpt lat="49.45475" lon="0.25496">
        <ele>5.6</ele>
        <time>2020-06-17T16:19:22Z</time>
      </trkpt>
      <trkpt lat="49.45475" lon="0.25487">
        <ele>5.6</ele>
        <time>2020-06-17T16:19:23Z</time>
      </trkpt>
      <trkpt lat="49.45475" lon="0.25477">
        <ele>5.5</ele>
        <time>2020-06-17T16:19:24Z</time>
      </trkpt>
      <trkpt lat="49.45476" lon="0.25469">
        <ele>5.5</ele>
        <time>2020-06-17T16:19:25Z</time>
      </trkpt>
      <trkpt lat="49.45476" lon="0.25461">
        <ele>5.5</ele>
        <time>2020-06-17T16:19:26Z</time>
      </trkpt>
      <trkpt lat="49.45477" lon="0.25454">
        <ele>5.5</ele>
        <time>2020-06-17T16:19:27Z</time>
      </trkpt>
      <trkpt lat="49.45477" lon="0.25446">
        <ele>5.5</ele>
        <time>2020-06-17T16:19:28Z</time>
      </trkpt>
      <trkpt lat="49.45478" lon="0.25438">
        <ele>5.5</ele>
        <time>2020-06-17T16:19:29Z</time>
      </trkpt>
      <trkpt lat="49.45478" lon="0.25429">
        <ele>5.5</ele>
        <time>2020-06-17T16:19:30Z</time>
      </trkpt>
      <trkpt lat="49.45479" lon="0.25422">
        <ele>5.5</ele>
        <time>2020-06-17T16:19:31Z</time>
      </trkpt>
      <trkpt lat="49.45479" lon="0.25415">
        <ele>5.5</ele>
        <time>2020-06-17T16:19:32Z</time>
      </trkpt>
      <trkpt lat="49.45479" lon="0.25408">
        <ele>5.4</ele>
        <time>2020-06-17T16:19:33Z</time>
      </trkpt>
      <trkpt lat="49.4548" lon="0.25399">
        <ele>5.4</ele>
        <time>2020-06-17T16:19:34Z</time>
      </trkpt>
      <trkpt lat="49.4548" lon="0.25393">
        <ele>5.4</ele>
        <time>2020-06-17T16:19:35Z</time>
      </trkpt>
      <trkpt lat="49.45481" lon="0.25385">
        <ele>5.4</ele>
        <time>2020-06-17T16:19:36Z</time>
      </trkpt>
      <trkpt lat="49.45482" lon="0.25378">
        <ele>5.4</ele>
        <time>2020-06-17T16:19:37Z</time>
      </trkpt>
      <trkpt lat="49.45483" lon="0.25371">
        <ele>5.3</ele>
        <time>2020-06-17T16:19:38Z</time>
      </trkpt>
      <trkpt lat="49.45483" lon="0.25364">
        <ele>5.3</ele>
        <time>2020-06-17T16:19:39Z</time>
      </trkpt>
      <trkpt lat="49.45484" lon="0.25356">
        <ele>5.3</ele>
        <time>2020-06-17T16:19:40Z</time>
      </trkpt>
      <trkpt lat="49.45484" lon="0.25348">
        <ele>5.2</ele>
        <time>2020-06-17T16:19:41Z</time>
      </trkpt>
      <trkpt lat="49.45485" lon="0.25341">
        <ele>5.2</ele>
        <time>2020-06-17T16:19:42Z</time>
      </trkpt>
      <trkpt lat="49.45486" lon="0.25333">
        <ele>5.2</ele>
        <time>2020-06-17T16:19:43Z</time>
      </trkpt>
      <trkpt lat="49.45486" lon="0.25325">
        <ele>5.2</ele>
        <time>2020-06-17T16:19:44Z</time>
      </trkpt>
      <trkpt lat="49.45487" lon="0.25317">
        <ele>5.2</ele>
        <time>2020-06-17T16:19:45Z</time>
      </trkpt>
      <trkpt lat="49.45488" lon="0.25308">
        <ele>5.1</ele>
        <time>2020-06-17T16:19:46Z</time>
      </trkpt>
      <trkpt lat="49.45488" lon="0.253">
        <ele>5.1</ele>
        <time>2020-06-17T16:19:47Z</time>
      </trkpt>
      <trkpt lat="49.45489" lon="0.25291">
        <ele>5.1</ele>
        <time>2020-06-17T16:19:48Z</time>
      </trkpt>
      <trkpt lat="49.45489" lon="0.25282">
        <ele>5</ele>
        <time>2020-06-17T16:19:49Z</time>
      </trkpt>
      <trkpt lat="49.45489" lon="0.25274">
        <ele>5</ele>
        <time>2020-06-17T16:19:50Z</time>
      </trkpt>
      <trkpt lat="49.4549" lon="0.25267">
        <ele>5</ele>
        <time>2020-06-17T16:19:51Z</time>
      </trkpt>
      <trkpt lat="49.45491" lon="0.25259">
        <ele>5</ele>
        <time>2020-06-17T16:19:52Z</time>
      </trkpt>
      <trkpt lat="49.45491" lon="0.25249">
        <ele>5</ele>
        <time>2020-06-17T16:19:53Z</time>
      </trkpt>
      <trkpt lat="49.45492" lon="0.2524">
        <ele>5</ele>
        <time>2020-06-17T16:19:54Z</time>
      </trkpt>
      <trkpt lat="49.45492" lon="0.25231">
        <ele>5</ele>
        <time>2020-06-17T16:19:55Z</time>
      </trkpt>
      <trkpt lat="49.45492" lon="0.25223">
        <ele>5</ele>
        <time>2020-06-17T16:19:56Z</time>
      </trkpt>
      <trkpt lat="49.45492" lon="0.25214">
        <ele>5.1</ele>
        <time>2020-06-17T16:19:57Z</time>
      </trkpt>
      <trkpt lat="49.45493" lon="0.25205">
        <ele>5.1</ele>
        <time>2020-06-17T16:19:58Z</time>
      </trkpt>
      <trkpt lat="49.45493" lon="0.25196">
        <ele>5.1</ele>
        <time>2020-06-17T16:19:59Z</time>
      </trkpt>
      <trkpt lat="49.45493" lon="0.25186">
        <ele>5.1</ele>
        <time>2020-06-17T16:20:00Z</time>
      </trkpt>
      <trkpt lat="49.45494" lon="0.25177">
        <ele>5.1</ele>
        <time>2020-06-17T16:20:01Z</time>
      </trkpt>
      <trkpt lat="49.45494" lon="0.25169">
        <ele>5.1</ele>
        <time>2020-06-17T16:20:02Z</time>
      </trkpt>
      <trkpt lat="49.45494" lon="0.2516">
        <ele>5.1</ele>
        <time>2020-06-17T16:20:03Z</time>
      </trkpt>
      <trkpt lat="49.45495" lon="0.25151">
        <ele>5.1</ele>
        <time>2020-06-17T16:20:04Z</time>
      </trkpt>
      <trkpt lat="49.45496" lon="0.25143">
        <ele>5</ele>
        <time>2020-06-17T16:20:05Z</time>
      </trkpt>
      <trkpt lat="49.45497" lon="0.25134">
        <ele>5</ele>
        <time>2020-06-17T16:20:06Z</time>
      </trkpt>
      <trkpt lat="49.45496" lon="0.25125">
        <ele>5</ele>
        <time>2020-06-17T16:20:07Z</time>
      </trkpt>
      <trkpt lat="49.45496" lon="0.25117">
        <ele>5</ele>
        <time>2020-06-17T16:20:08Z</time>
      </trkpt>
      <trkpt lat="49.45497" lon="0.25108">
        <ele>4.9</ele>
        <time>2020-06-17T16:20:09Z</time>
      </trkpt>
      <trkpt lat="49.45498" lon="0.25099">
        <ele>4.9</ele>
        <time>2020-06-17T16:20:10Z</time>
      </trkpt>
      <trkpt lat="49.45498" lon="0.2509">
        <ele>4.9</ele>
        <time>2020-06-17T16:20:11Z</time>
      </trkpt>
      <trkpt lat="49.45499" lon="0.25081">
        <ele>4.9</ele>
        <time>2020-06-17T16:20:12Z</time>
      </trkpt>
      <trkpt lat="49.455" lon="0.25072">
        <ele>4.9</ele>
        <time>2020-06-17T16:20:13Z</time>
      </trkpt>
      <trkpt lat="49.455" lon="0.25063">
        <ele>4.9</ele>
        <time>2020-06-17T16:20:14Z</time>
      </trkpt>
      <trkpt lat="49.455" lon="0.25054">
        <ele>4.9</ele>
        <time>2020-06-17T16:20:15Z</time>
      </trkpt>
      <trkpt lat="49.45501" lon="0.25045">
        <ele>4.9</ele>
        <time>2020-06-17T16:20:16Z</time>
      </trkpt>
      <trkpt lat="49.45501" lon="0.25035">
        <ele>4.9</ele>
        <time>2020-06-17T16:20:17Z</time>
      </trkpt>
      <trkpt lat="49.45502" lon="0.25026">
        <ele>4.9</ele>
        <time>2020-06-17T16:20:18Z</time>
      </trkpt>
      <trkpt lat="49.45503" lon="0.25017">
        <ele>4.8</ele>
        <time>2020-06-17T16:20:19Z</time>
      </trkpt>
      <trkpt lat="49.45503" lon="0.25008">
        <ele>4.8</ele>
        <time>2020-06-17T16:20:20Z</time>
      </trkpt>
      <trkpt lat="49.45504" lon="0.24999">
        <ele>4.8</ele>
        <time>2020-06-17T16:20:21Z</time>
      </trkpt>
      <trkpt lat="49.45504" lon="0.2499">
        <ele>4.7</ele>
        <time>2020-06-17T16:20:22Z</time>
      </trkpt>
      <trkpt lat="49.45505" lon="0.24981">
        <ele>4.7</ele>
        <time>2020-06-17T16:20:23Z</time>
      </trkpt>
      <trkpt lat="49.45506" lon="0.24972">
        <ele>4.7</ele>
        <time>2020-06-17T16:20:24Z</time>
      </trkpt>
      <trkpt lat="49.45507" lon="0.24964">
        <ele>4.7</ele>
        <time>2020-06-17T16:20:25Z</time>
      </trkpt>
      <trkpt lat="49.45508" lon="0.24956">
        <ele>4.8</ele>
        <time>2020-06-17T16:20:26Z</time>
      </trkpt>
      <trkpt lat="49.45508" lon="0.24947">
        <ele>4.8</ele>
        <time>2020-06-17T16:20:27Z</time>
      </trkpt>
      <trkpt lat="49.45509" lon="0.24939">
        <ele>4.8</ele>
        <time>2020-06-17T16:20:28Z</time>
      </trkpt>
      <trkpt lat="49.45509" lon="0.2493">
        <ele>4.8</ele>
        <time>2020-06-17T16:20:29Z</time>
      </trkpt>
      <trkpt lat="49.4551" lon="0.2492">
        <ele>4.9</ele>
        <time>2020-06-17T16:20:30Z</time>
      </trkpt>
      <trkpt lat="49.4551" lon="0.24912">
        <ele>4.9</ele>
        <time>2020-06-17T16:20:31Z</time>
      </trkpt>
      <trkpt lat="49.45511" lon="0.24904">
        <ele>4.9</ele>
        <time>2020-06-17T16:20:32Z</time>
      </trkpt>
      <trkpt lat="49.45511" lon="0.24895">
        <ele>4.9</ele>
        <time>2020-06-17T16:20:33Z</time>
      </trkpt>
      <trkpt lat="49.45512" lon="0.24887">
        <ele>4.9</ele>
        <time>2020-06-17T16:20:34Z</time>
      </trkpt>
      <trkpt lat="49.45513" lon="0.24879">
        <ele>4.9</ele>
        <time>2020-06-17T16:20:35Z</time>
      </trkpt>
      <trkpt lat="49.45512" lon="0.24869">
        <ele>4.9</ele>
        <time>2020-06-17T16:20:36Z</time>
      </trkpt>
      <trkpt lat="49.45513" lon="0.2486">
        <ele>4.9</ele>
        <time>2020-06-17T16:20:37Z</time>
      </trkpt>
      <trkpt lat="49.45513" lon="0.24852">
        <ele>5</ele>
        <time>2020-06-17T16:20:38Z</time>
      </trkpt>
      <trkpt lat="49.45514" lon="0.24844">
        <ele>5</ele>
        <time>2020-06-17T16:20:39Z</time>
      </trkpt>
      <trkpt lat="49.45514" lon="0.24835">
        <ele>5</ele>
        <time>2020-06-17T16:20:40Z</time>
      </trkpt>
      <trkpt lat="49.45515" lon="0.24827">
        <ele>5</ele>
        <time>2020-06-17T16:20:41Z</time>
      </trkpt>
      <trkpt lat="49.45515" lon="0.24818">
        <ele>5</ele>
        <time>2020-06-17T16:20:42Z</time>
      </trkpt>
      <trkpt lat="49.45516" lon="0.24809">
        <ele>5</ele>
        <time>2020-06-17T16:20:43Z</time>
      </trkpt>
      <trkpt lat="49.45516" lon="0.24801">
        <ele>5</ele>
        <time>2020-06-17T16:20:44Z</time>
      </trkpt>
      <trkpt lat="49.45516" lon="0.24792">
        <ele>5</ele>
        <time>2020-06-17T16:20:45Z</time>
      </trkpt>
      <trkpt lat="49.45515" lon="0.24783">
        <ele>5.1</ele>
        <time>2020-06-17T16:20:46Z</time>
      </trkpt>
      <trkpt lat="49.45514" lon="0.24774">
        <ele>5.1</ele>
        <time>2020-06-17T16:20:47Z</time>
      </trkpt>
      <trkpt lat="49.45514" lon="0.24766">
        <ele>5</ele>
        <time>2020-06-17T16:20:48Z</time>
      </trkpt>
      <trkpt lat="49.45514" lon="0.24757">
        <ele>5</ele>
        <time>2020-06-17T16:20:49Z</time>
      </trkpt>
      <trkpt lat="49.45514" lon="0.24748">
        <ele>5</ele>
        <time>2020-06-17T16:20:50Z</time>
      </trkpt>
      <trkpt lat="49.45514" lon="0.2474">
        <ele>4.9</ele>
        <time>2020-06-17T16:20:51Z</time>
      </trkpt>
      <trkpt lat="49.45514" lon="0.24731">
        <ele>4.9</ele>
        <time>2020-06-17T16:20:52Z</time>
      </trkpt>
      <trkpt lat="49.45514" lon="0.24722">
        <ele>4.9</ele>
        <time>2020-06-17T16:20:53Z</time>
      </trkpt>
      <trkpt lat="49.45514" lon="0.24713">
        <ele>4.9</ele>
        <time>2020-06-17T16:20:54Z</time>
      </trkpt>
      <trkpt lat="49.45514" lon="0.24706">
        <ele>4.9</ele>
        <time>2020-06-17T16:20:55Z</time>
      </trkpt>
      <trkpt lat="49.45515" lon="0.24698">
        <ele>4.9</ele>
        <time>2020-06-17T16:20:56Z</time>
      </trkpt>
      <trkpt lat="49.45515" lon="0.2469">
        <ele>4.9</ele>
        <time>2020-06-17T16:20:57Z</time>
      </trkpt>
      <trkpt lat="49.45516" lon="0.24681">
        <ele>4.9</ele>
        <time>2020-06-17T16:20:58Z</time>
      </trkpt>
      <trkpt lat="49.45516" lon="0.24673">
        <ele>4.9</ele>
        <time>2020-06-17T16:20:59Z</time>
      </trkpt>
      <trkpt lat="49.45516" lon="0.24665">
        <ele>4.9</ele>
        <time>2020-06-17T16:21:00Z</time>
      </trkpt>
      <trkpt lat="49.45515" lon="0.24657">
        <ele>4.9</ele>
        <time>2020-06-17T16:21:01Z</time>
      </trkpt>
      <trkpt lat="49.45514" lon="0.24649">
        <ele>4.9</ele>
        <time>2020-06-17T16:21:02Z</time>
      </trkpt>
      <trkpt lat="49.45514" lon="0.24641">
        <ele>4.9</ele>
        <time>2020-06-17T16:21:03Z</time>
      </trkpt>
      <trkpt lat="49.45514" lon="0.24632">
        <ele>4.9</ele>
        <time>2020-06-17T16:21:04Z</time>
      </trkpt>
      <trkpt lat="49.45514" lon="0.24624">
        <ele>4.9</ele>
        <time>2020-06-17T16:21:05Z</time>
      </trkpt>
      <trkpt lat="49.45515" lon="0.24617">
        <ele>4.9</ele>
        <time>2020-06-17T16:21:06Z</time>
      </trkpt>
      <trkpt lat="49.45515" lon="0.24609">
        <ele>4.9</ele>
        <time>2020-06-17T16:21:07Z</time>
      </trkpt>
      <trkpt lat="49.45515" lon="0.24602">
        <ele>4.9</ele>
        <time>2020-06-17T16:21:08Z</time>
      </trkpt>
      <trkpt lat="49.45515" lon="0.24594">
        <ele>4.9</ele>
        <time>2020-06-17T16:21:09Z</time>
      </trkpt>
      <trkpt lat="49.45515" lon="0.24586">
        <ele>4.8</ele>
        <time>2020-06-17T16:21:10Z</time>
      </trkpt>
      <trkpt lat="49.45515" lon="0.24578">
        <ele>4.8</ele>
        <time>2020-06-17T16:21:11Z</time>
      </trkpt>
      <trkpt lat="49.45516" lon="0.24571">
        <ele>4.8</ele>
        <time>2020-06-17T16:21:12Z</time>
      </trkpt>
      <trkpt lat="49.45517" lon="0.24562">
        <ele>4.8</ele>
        <time>2020-06-17T16:21:13Z</time>
      </trkpt>
      <trkpt lat="49.45517" lon="0.24553">
        <ele>4.8</ele>
        <time>2020-06-17T16:21:14Z</time>
      </trkpt>
      <trkpt lat="49.45517" lon="0.24545">
        <ele>4.8</ele>
        <time>2020-06-17T16:21:15Z</time>
      </trkpt>
      <trkpt lat="49.45517" lon="0.24537">
        <ele>4.8</ele>
        <time>2020-06-17T16:21:16Z</time>
      </trkpt>
      <trkpt lat="49.45517" lon="0.24528">
        <ele>4.8</ele>
        <time>2020-06-17T16:21:17Z</time>
      </trkpt>
      <trkpt lat="49.45517" lon="0.24518">
        <ele>4.8</ele>
        <time>2020-06-17T16:21:18Z</time>
      </trkpt>
      <trkpt lat="49.45517" lon="0.24509">
        <ele>4.8</ele>
        <time>2020-06-17T16:21:19Z</time>
      </trkpt>
      <trkpt lat="49.45517" lon="0.245">
        <ele>4.8</ele>
        <time>2020-06-17T16:21:20Z</time>
      </trkpt>
      <trkpt lat="49.45518" lon="0.24492">
        <ele>4.8</ele>
        <time>2020-06-17T16:21:21Z</time>
      </trkpt>
      <trkpt lat="49.45518" lon="0.24484">
        <ele>4.8</ele>
        <time>2020-06-17T16:21:22Z</time>
      </trkpt>
      <trkpt lat="49.45519" lon="0.24476">
        <ele>4.8</ele>
        <time>2020-06-17T16:21:23Z</time>
      </trkpt>
      <trkpt lat="49.45519" lon="0.24468">
        <ele>4.9</ele>
        <time>2020-06-17T16:21:24Z</time>
      </trkpt>
      <trkpt lat="49.4552" lon="0.24459">
        <ele>5</ele>
        <time>2020-06-17T16:21:25Z</time>
      </trkpt>
      <trkpt lat="49.4552" lon="0.2445">
        <ele>5.1</ele>
        <time>2020-06-17T16:21:26Z</time>
      </trkpt>
      <trkpt lat="49.45521" lon="0.24441">
        <ele>5.2</ele>
        <time>2020-06-17T16:21:27Z</time>
      </trkpt>
      <trkpt lat="49.45521" lon="0.24433">
        <ele>5.3</ele>
        <time>2020-06-17T16:21:28Z</time>
      </trkpt>
      <trkpt lat="49.45521" lon="0.24426">
        <ele>5.4</ele>
        <time>2020-06-17T16:21:29Z</time>
      </trkpt>
      <trkpt lat="49.45521" lon="0.24419">
        <ele>5.5</ele>
        <time>2020-06-17T16:21:30Z</time>
      </trkpt>
      <trkpt lat="49.45521" lon="0.24412">
        <ele>5.7</ele>
        <time>2020-06-17T16:21:31Z</time>
      </trkpt>
      <trkpt lat="49.4552" lon="0.24404">
        <ele>5.8</ele>
        <time>2020-06-17T16:21:32Z</time>
      </trkpt>
      <trkpt lat="49.45519" lon="0.24396">
        <ele>5.9</ele>
        <time>2020-06-17T16:21:33Z</time>
      </trkpt>
      <trkpt lat="49.45519" lon="0.24389">
        <ele>6</ele>
        <time>2020-06-17T16:21:34Z</time>
      </trkpt>
      <trkpt lat="49.45519" lon="0.24382">
        <ele>6</ele>
        <time>2020-06-17T16:21:35Z</time>
      </trkpt>
      <trkpt lat="49.45519" lon="0.24373">
        <ele>6.1</ele>
        <time>2020-06-17T16:21:36Z</time>
      </trkpt>
      <trkpt lat="49.45519" lon="0.24364">
        <ele>6.2</ele>
        <time>2020-06-17T16:21:37Z</time>
      </trkpt>
      <trkpt lat="49.45519" lon="0.24355">
        <ele>6.3</ele>
        <time>2020-06-17T16:21:38Z</time>
      </trkpt>
      <trkpt lat="49.4552" lon="0.24349">
        <ele>6.4</ele>
        <time>2020-06-17T16:21:39Z</time>
      </trkpt>
      <trkpt lat="49.4552" lon="0.24342">
        <ele>6.4</ele>
        <time>2020-06-17T16:21:40Z</time>
      </trkpt>
      <trkpt lat="49.45519" lon="0.24338">
        <ele>6.5</ele>
        <time>2020-06-17T16:21:41Z</time>
      </trkpt>
      <trkpt lat="49.45519" lon="0.24332">
        <ele>6.6</ele>
        <time>2020-06-17T16:21:42Z</time>
      </trkpt>
      <trkpt lat="49.45519" lon="0.24326">
        <ele>6.7</ele>
        <time>2020-06-17T16:21:43Z</time>
      </trkpt>
      <trkpt lat="49.45519" lon="0.24321">
        <ele>6.7</ele>
        <time>2020-06-17T16:21:44Z</time>
      </trkpt>
      <trkpt lat="49.45519" lon="0.24316">
        <ele>6.8</ele>
        <time>2020-06-17T16:21:45Z</time>
      </trkpt>
      <trkpt lat="49.45518" lon="0.2431">
        <ele>6.9</ele>
        <time>2020-06-17T16:21:46Z</time>
      </trkpt>
      <trkpt lat="49.45519" lon="0.24304">
        <ele>7.1</ele>
        <time>2020-06-17T16:21:47Z</time>
      </trkpt>
      <trkpt lat="49.45519" lon="0.24297">
        <ele>7.2</ele>
        <time>2020-06-17T16:21:48Z</time>
      </trkpt>
      <trkpt lat="49.4552" lon="0.2429">
        <ele>7.3</ele>
        <time>2020-06-17T16:21:49Z</time>
      </trkpt>
      <trkpt lat="49.45521" lon="0.24282">
        <ele>7.5</ele>
        <time>2020-06-17T16:21:50Z</time>
      </trkpt>
      <trkpt lat="49.45521" lon="0.24275">
        <ele>7.6</ele>
        <time>2020-06-17T16:21:51Z</time>
      </trkpt>
      <trkpt lat="49.45521" lon="0.24269">
        <ele>7.7</ele>
        <time>2020-06-17T16:21:52Z</time>
      </trkpt>
      <trkpt lat="49.45521" lon="0.24262">
        <ele>7.8</ele>
        <time>2020-06-17T16:21:53Z</time>
      </trkpt>
      <trkpt lat="49.45521" lon="0.24255">
        <ele>8</ele>
        <time>2020-06-17T16:21:54Z</time>
      </trkpt>
      <trkpt lat="49.45522" lon="0.24248">
        <ele>8.1</ele>
        <time>2020-06-17T16:21:55Z</time>
      </trkpt>
      <trkpt lat="49.45522" lon="0.24241">
        <ele>8.3</ele>
        <time>2020-06-17T16:21:56Z</time>
      </trkpt>
      <trkpt lat="49.45523" lon="0.24234">
        <ele>8.4</ele>
        <time>2020-06-17T16:21:57Z</time>
      </trkpt>
      <trkpt lat="49.45524" lon="0.24226">
        <ele>8.6</ele>
        <time>2020-06-17T16:21:58Z</time>
      </trkpt>
      <trkpt lat="49.45525" lon="0.24218">
        <ele>8.8</ele>
        <time>2020-06-17T16:21:59Z</time>
      </trkpt>
      <trkpt lat="49.45525" lon="0.24211">
        <ele>8.9</ele>
        <time>2020-06-17T16:22:00Z</time>
      </trkpt>
      <trkpt lat="49.45526" lon="0.24204">
        <ele>9.1</ele>
        <time>2020-06-17T16:22:01Z</time>
      </trkpt>
      <trkpt lat="49.45527" lon="0.24197">
        <ele>9.2</ele>
        <time>2020-06-17T16:22:02Z</time>
      </trkpt>
      <trkpt lat="49.45527" lon="0.24191">
        <ele>9.3</ele>
        <time>2020-06-17T16:22:03Z</time>
      </trkpt>
      <trkpt lat="49.45528" lon="0.24185">
        <ele>9.4</ele>
        <time>2020-06-17T16:22:04Z</time>
      </trkpt>
      <trkpt lat="49.45529" lon="0.24179">
        <ele>9.6</ele>
        <time>2020-06-17T16:22:05Z</time>
      </trkpt>
      <trkpt lat="49.4553" lon="0.24172">
        <ele>9.7</ele>
        <time>2020-06-17T16:22:06Z</time>
      </trkpt>
      <trkpt lat="49.45531" lon="0.24165">
        <ele>9.9</ele>
        <time>2020-06-17T16:22:07Z</time>
      </trkpt>
      <trkpt lat="49.45532" lon="0.24159">
        <ele>10</ele>
        <time>2020-06-17T16:22:08Z</time>
      </trkpt>
      <trkpt lat="49.45532" lon="0.24152">
        <ele>10.2</ele>
        <time>2020-06-17T16:22:09Z</time>
      </trkpt>
      <trkpt lat="49.45532" lon="0.24147">
        <ele>10.3</ele>
        <time>2020-06-17T16:22:10Z</time>
      </trkpt>
      <trkpt lat="49.45532" lon="0.2414">
        <ele>10.4</ele>
        <time>2020-06-17T16:22:11Z</time>
      </trkpt>
      <trkpt lat="49.45533" lon="0.24134">
        <ele>10.5</ele>
        <time>2020-06-17T16:22:12Z</time>
      </trkpt>
      <trkpt lat="49.45533" lon="0.24129">
        <ele>10.6</ele>
        <time>2020-06-17T16:22:13Z</time>
      </trkpt>
      <trkpt lat="49.45533" lon="0.24123">
        <ele>10.7</ele>
        <time>2020-06-17T16:22:14Z</time>
      </trkpt>
      <trkpt lat="49.45534" lon="0.24119">
        <ele>10.8</ele>
        <time>2020-06-17T16:22:15Z</time>
      </trkpt>
      <trkpt lat="49.45534" lon="0.24114">
        <ele>10.9</ele>
        <time>2020-06-17T16:22:16Z</time>
      </trkpt>
      <trkpt lat="49.45534" lon="0.24109">
        <ele>11</ele>
        <time>2020-06-17T16:22:17Z</time>
      </trkpt>
      <trkpt lat="49.45535" lon="0.24103">
        <ele>11</ele>
        <time>2020-06-17T16:22:18Z</time>
      </trkpt>
      <trkpt lat="49.45535" lon="0.24098">
        <ele>11.1</ele>
        <time>2020-06-17T16:22:19Z</time>
      </trkpt>
      <trkpt lat="49.45536" lon="0.24093">
        <ele>11.2</ele>
        <time>2020-06-17T16:22:20Z</time>
      </trkpt>
      <trkpt lat="49.45536" lon="0.24087">
        <ele>11.3</ele>
        <time>2020-06-17T16:22:21Z</time>
      </trkpt>
      <trkpt lat="49.45536" lon="0.24081">
        <ele>11.4</ele>
        <time>2020-06-17T16:22:22Z</time>
      </trkpt>
      <trkpt lat="49.45536" lon="0.24076">
        <ele>11.5</ele>
        <time>2020-06-17T16:22:23Z</time>
      </trkpt>
      <trkpt lat="49.45536" lon="0.2407">
        <ele>11.6</ele>
        <time>2020-06-17T16:22:24Z</time>
      </trkpt>
      <trkpt lat="49.45535" lon="0.24064">
        <ele>11.7</ele>
        <time>2020-06-17T16:22:25Z</time>
      </trkpt>
      <trkpt lat="49.45536" lon="0.24057">
        <ele>11.8</ele>
        <time>2020-06-17T16:22:26Z</time>
      </trkpt>
      <trkpt lat="49.45536" lon="0.24051">
        <ele>11.9</ele>
        <time>2020-06-17T16:22:27Z</time>
      </trkpt>
      <trkpt lat="49.45537" lon="0.24045">
        <ele>11.9</ele>
        <time>2020-06-17T16:22:28Z</time>
      </trkpt>
      <trkpt lat="49.45537" lon="0.2404">
        <ele>12</ele>
        <time>2020-06-17T16:22:29Z</time>
      </trkpt>
      <trkpt lat="49.45537" lon="0.24035">
        <ele>12</ele>
        <time>2020-06-17T16:22:30Z</time>
      </trkpt>
      <trkpt lat="49.45537" lon="0.24029">
        <ele>12.1</ele>
        <time>2020-06-17T16:22:31Z</time>
      </trkpt>
      <trkpt lat="49.45537" lon="0.24023">
        <ele>12.2</ele>
        <time>2020-06-17T16:22:32Z</time>
      </trkpt>
      <trkpt lat="49.45537" lon="0.24017">
        <ele>12.2</ele>
        <time>2020-06-17T16:22:33Z</time>
      </trkpt>
      <trkpt lat="49.45537" lon="0.24012">
        <ele>12.3</ele>
        <time>2020-06-17T16:22:34Z</time>
      </trkpt>
      <trkpt lat="49.45537" lon="0.24006">
        <ele>12.4</ele>
        <time>2020-06-17T16:22:35Z</time>
      </trkpt>
      <trkpt lat="49.45537" lon="0.24">
        <ele>12.4</ele>
        <time>2020-06-17T16:22:36Z</time>
      </trkpt>
      <trkpt lat="49.45537" lon="0.23995">
        <ele>12.4</ele>
        <time>2020-06-17T16:22:37Z</time>
      </trkpt>
      <trkpt lat="49.45538" lon="0.23989">
        <ele>12.5</ele>
        <time>2020-06-17T16:22:38Z</time>
      </trkpt>
      <trkpt lat="49.45537" lon="0.23986">
        <ele>12.5</ele>
        <time>2020-06-17T16:22:39Z</time>
      </trkpt>
      <trkpt lat="49.45538" lon="0.2398">
        <ele>12.6</ele>
        <time>2020-06-17T16:22:40Z</time>
      </trkpt>
      <trkpt lat="49.45538" lon="0.23975">
        <ele>12.6</ele>
        <time>2020-06-17T16:22:41Z</time>
      </trkpt>
      <trkpt lat="49.45538" lon="0.2397">
        <ele>12.7</ele>
        <time>2020-06-17T16:22:42Z</time>
      </trkpt>
      <trkpt lat="49.45538" lon="0.23965">
        <ele>12.7</ele>
        <time>2020-06-17T16:22:43Z</time>
      </trkpt>
      <trkpt lat="49.45538" lon="0.2396">
        <ele>12.7</ele>
        <time>2020-06-17T16:22:44Z</time>
      </trkpt>
      <trkpt lat="49.45539" lon="0.23955">
        <ele>12.7</ele>
        <time>2020-06-17T16:22:45Z</time>
      </trkpt>
      <trkpt lat="49.45539" lon="0.23949">
        <ele>12.8</ele>
        <time>2020-06-17T16:22:46Z</time>
      </trkpt>
      <trkpt lat="49.45539" lon="0.23943">
        <ele>12.8</ele>
        <time>2020-06-17T16:22:47Z</time>
      </trkpt>
      <trkpt lat="49.4554" lon="0.23937">
        <ele>12.8</ele>
        <time>2020-06-17T16:22:48Z</time>
      </trkpt>
      <trkpt lat="49.4554" lon="0.23932">
        <ele>12.8</ele>
        <time>2020-06-17T16:22:49Z</time>
      </trkpt>
      <trkpt lat="49.45541" lon="0.23924">
        <ele>12.8</ele>
        <time>2020-06-17T16:22:50Z</time>
      </trkpt>
      <trkpt lat="49.45541" lon="0.23919">
        <ele>12.8</ele>
        <time>2020-06-17T16:22:51Z</time>
      </trkpt>
      <trkpt lat="49.4554" lon="0.23914">
        <ele>12.8</ele>
        <time>2020-06-17T16:22:52Z</time>
      </trkpt>
      <trkpt lat="49.4554" lon="0.2391">
        <ele>12.8</ele>
        <time>2020-06-17T16:22:53Z</time>
      </trkpt>
      <trkpt lat="49.45541" lon="0.23905">
        <ele>12.7</ele>
        <time>2020-06-17T16:22:54Z</time>
      </trkpt>
      <trkpt lat="49.45541" lon="0.23898">
        <ele>12.7</ele>
        <time>2020-06-17T16:22:55Z</time>
      </trkpt>
      <trkpt lat="49.45542" lon="0.23892">
        <ele>12.6</ele>
        <time>2020-06-17T16:22:56Z</time>
      </trkpt>
      <trkpt lat="49.45542" lon="0.23886">
        <ele>12.6</ele>
        <time>2020-06-17T16:22:57Z</time>
      </trkpt>
      <trkpt lat="49.45542" lon="0.23879">
        <ele>12.5</ele>
        <time>2020-06-17T16:22:58Z</time>
      </trkpt>
      <trkpt lat="49.45542" lon="0.23873">
        <ele>12.5</ele>
        <time>2020-06-17T16:22:59Z</time>
      </trkpt>
      <trkpt lat="49.45543" lon="0.23867">
        <ele>12.4</ele>
        <time>2020-06-17T16:23:00Z</time>
      </trkpt>
      <trkpt lat="49.45543" lon="0.23862">
        <ele>12.4</ele>
        <time>2020-06-17T16:23:01Z</time>
      </trkpt>
      <trkpt lat="49.45542" lon="0.23858">
        <ele>12.4</ele>
        <time>2020-06-17T16:23:02Z</time>
      </trkpt>
      <trkpt lat="49.45542" lon="0.23853">
        <ele>12.3</ele>
        <time>2020-06-17T16:23:03Z</time>
      </trkpt>
      <trkpt lat="49.45541" lon="0.23848">
        <ele>12.3</ele>
        <time>2020-06-17T16:23:04Z</time>
      </trkpt>
      <trkpt lat="49.45541" lon="0.23842">
        <ele>12.3</ele>
        <time>2020-06-17T16:23:05Z</time>
      </trkpt>
      <trkpt lat="49.45541" lon="0.23835">
        <ele>12.2</ele>
        <time>2020-06-17T16:23:06Z</time>
      </trkpt>
      <trkpt lat="49.45541" lon="0.2383">
        <ele>12.2</ele>
        <time>2020-06-17T16:23:07Z</time>
      </trkpt>
      <trkpt lat="49.45542" lon="0.23824">
        <ele>12.2</ele>
        <time>2020-06-17T16:23:08Z</time>
      </trkpt>
      <trkpt lat="49.45542" lon="0.23819">
        <ele>12.1</ele>
        <time>2020-06-17T16:23:09Z</time>
      </trkpt>
      <trkpt lat="49.45542" lon="0.23812">
        <ele>12.1</ele>
        <time>2020-06-17T16:23:10Z</time>
      </trkpt>
      <trkpt lat="49.45542" lon="0.23807">
        <ele>12</ele>
        <time>2020-06-17T16:23:11Z</time>
      </trkpt>
      <trkpt lat="49.45543" lon="0.23801">
        <ele>12</ele>
        <time>2020-06-17T16:23:12Z</time>
      </trkpt>
      <trkpt lat="49.45544" lon="0.23795">
        <ele>11.9</ele>
        <time>2020-06-17T16:23:13Z</time>
      </trkpt>
      <trkpt lat="49.45545" lon="0.2379">
        <ele>11.8</ele>
        <time>2020-06-17T16:23:14Z</time>
      </trkpt>
      <trkpt lat="49.45545" lon="0.23783">
        <ele>11.7</ele>
        <time>2020-06-17T16:23:15Z</time>
      </trkpt>
      <trkpt lat="49.45546" lon="0.23777">
        <ele>11.6</ele>
        <time>2020-06-17T16:23:16Z</time>
      </trkpt>
      <trkpt lat="49.45546" lon="0.23771">
        <ele>11.5</ele>
        <time>2020-06-17T16:23:17Z</time>
      </trkpt>
      <trkpt lat="49.45546" lon="0.23765">
        <ele>11.4</ele>
        <time>2020-06-17T16:23:18Z</time>
      </trkpt>
      <trkpt lat="49.45546" lon="0.23759">
        <ele>11.3</ele>
        <time>2020-06-17T16:23:19Z</time>
      </trkpt>
      <trkpt lat="49.45546" lon="0.23754">
        <ele>11.2</ele>
        <time>2020-06-17T16:23:20Z</time>
      </trkpt>
      <trkpt lat="49.45547" lon="0.23749">
        <ele>11.1</ele>
        <time>2020-06-17T16:23:21Z</time>
      </trkpt>
      <trkpt lat="49.45546" lon="0.23742">
        <ele>11</ele>
        <time>2020-06-17T16:23:22Z</time>
      </trkpt>
      <trkpt lat="49.45547" lon="0.23736">
        <ele>10.9</ele>
        <time>2020-06-17T16:23:23Z</time>
      </trkpt>
      <trkpt lat="49.45547" lon="0.2373">
        <ele>10.8</ele>
        <time>2020-06-17T16:23:24Z</time>
      </trkpt>
      <trkpt lat="49.45547" lon="0.23725">
        <ele>10.8</ele>
        <time>2020-06-17T16:23:25Z</time>
      </trkpt>
      <trkpt lat="49.45546" lon="0.2372">
        <ele>10.7</ele>
        <time>2020-06-17T16:23:26Z</time>
      </trkpt>
      <trkpt lat="49.45547" lon="0.23714">
        <ele>10.6</ele>
        <time>2020-06-17T16:23:27Z</time>
      </trkpt>
      <trkpt lat="49.45547" lon="0.23708">
        <ele>10.5</ele>
        <time>2020-06-17T16:23:28Z</time>
      </trkpt>
      <trkpt lat="49.45547" lon="0.23703">
        <ele>10.4</ele>
        <time>2020-06-17T16:23:29Z</time>
      </trkpt>
      <trkpt lat="49.45548" lon="0.23698">
        <ele>10.3</ele>
        <time>2020-06-17T16:23:30Z</time>
      </trkpt>
      <trkpt lat="49.45547" lon="0.23691">
        <ele>10.1</ele>
        <time>2020-06-17T16:23:31Z</time>
      </trkpt>
      <trkpt lat="49.45548" lon="0.23684">
        <ele>10</ele>
        <time>2020-06-17T16:23:32Z</time>
      </trkpt>
      <trkpt lat="49.45548" lon="0.23678">
        <ele>9.8</ele>
        <time>2020-06-17T16:23:33Z</time>
      </trkpt>
      <trkpt lat="49.45549" lon="0.23671">
        <ele>9.7</ele>
        <time>2020-06-17T16:23:34Z</time>
      </trkpt>
      <trkpt lat="49.45549" lon="0.23666">
        <ele>9.6</ele>
        <time>2020-06-17T16:23:35Z</time>
      </trkpt>
      <trkpt lat="49.45549" lon="0.23661">
        <ele>9.5</ele>
        <time>2020-06-17T16:23:36Z</time>
      </trkpt>
      <trkpt lat="49.45548" lon="0.23656">
        <ele>9.3</ele>
        <time>2020-06-17T16:23:37Z</time>
      </trkpt>
      <trkpt lat="49.45548" lon="0.23649">
        <ele>9.2</ele>
        <time>2020-06-17T16:23:38Z</time>
      </trkpt>
      <trkpt lat="49.45548" lon="0.23643">
        <ele>9</ele>
        <time>2020-06-17T16:23:39Z</time>
      </trkpt>
      <trkpt lat="49.45548" lon="0.23636">
        <ele>8.8</ele>
        <time>2020-06-17T16:23:40Z</time>
      </trkpt>
      <trkpt lat="49.45548" lon="0.23628">
        <ele>8.6</ele>
        <time>2020-06-17T16:23:41Z</time>
      </trkpt>
      <trkpt lat="49.45549" lon="0.2362">
        <ele>8.5</ele>
        <time>2020-06-17T16:23:42Z</time>
      </trkpt>
      <trkpt lat="49.45548" lon="0.23612">
        <ele>8.3</ele>
        <time>2020-06-17T16:23:43Z</time>
      </trkpt>
      <trkpt lat="49.45548" lon="0.23605">
        <ele>8.1</ele>
        <time>2020-06-17T16:23:44Z</time>
      </trkpt>
      <trkpt lat="49.45548" lon="0.23598">
        <ele>8</ele>
        <time>2020-06-17T16:23:45Z</time>
      </trkpt>
      <trkpt lat="49.45549" lon="0.23591">
        <ele>7.9</ele>
        <time>2020-06-17T16:23:46Z</time>
      </trkpt>
      <trkpt lat="49.45552" lon="0.23585">
        <ele>7.7</ele>
        <time>2020-06-17T16:23:47Z</time>
      </trkpt>
      <trkpt lat="49.45553" lon="0.23578">
        <ele>7.5</ele>
        <time>2020-06-17T16:23:48Z</time>
      </trkpt>
      <trkpt lat="49.45555" lon="0.23571">
        <ele>7.4</ele>
        <time>2020-06-17T16:23:49Z</time>
      </trkpt>
      <trkpt lat="49.45556" lon="0.23565">
        <ele>7.2</ele>
        <time>2020-06-17T16:23:50Z</time>
      </trkpt>
      <trkpt lat="49.45556" lon="0.23558">
        <ele>7.1</ele>
        <time>2020-06-17T16:23:51Z</time>
      </trkpt>
      <trkpt lat="49.45556" lon="0.23552">
        <ele>7</ele>
        <time>2020-06-17T16:23:52Z</time>
      </trkpt>
      <trkpt lat="49.45556" lon="0.23545">
        <ele>6.9</ele>
        <time>2020-06-17T16:23:53Z</time>
      </trkpt>
      <trkpt lat="49.45557" lon="0.23539">
        <ele>6.8</ele>
        <time>2020-06-17T16:23:54Z</time>
      </trkpt>
      <trkpt lat="49.45559" lon="0.23534">
        <ele>6.7</ele>
        <time>2020-06-17T16:23:55Z</time>
      </trkpt>
      <trkpt lat="49.4556" lon="0.23529">
        <ele>6.6</ele>
        <time>2020-06-17T16:23:56Z</time>
      </trkpt>
      <trkpt lat="49.45562" lon="0.23523">
        <ele>6.5</ele>
        <time>2020-06-17T16:23:57Z</time>
      </trkpt>
      <trkpt lat="49.45563" lon="0.23515">
        <ele>6.4</ele>
        <time>2020-06-17T16:23:58Z</time>
      </trkpt>
      <trkpt lat="49.45565" lon="0.23507">
        <ele>6.2</ele>
        <time>2020-06-17T16:23:59Z</time>
      </trkpt>
      <trkpt lat="49.45567" lon="0.235">
        <ele>6.1</ele>
        <time>2020-06-17T16:24:00Z</time>
      </trkpt>
      <trkpt lat="49.45569" lon="0.23493">
        <ele>6</ele>
        <time>2020-06-17T16:24:01Z</time>
      </trkpt>
      <trkpt lat="49.45571" lon="0.23485">
        <ele>5.8</ele>
        <time>2020-06-17T16:24:02Z</time>
      </trkpt>
      <trkpt lat="49.45573" lon="0.23478">
        <ele>5.7</ele>
        <time>2020-06-17T16:24:03Z</time>
      </trkpt>
      <trkpt lat="49.45575" lon="0.23471">
        <ele>5.6</ele>
        <time>2020-06-17T16:24:04Z</time>
      </trkpt>
      <trkpt lat="49.45577" lon="0.23463">
        <ele>5.5</ele>
        <time>2020-06-17T16:24:05Z</time>
      </trkpt>
      <trkpt lat="49.45577" lon="0.23457">
        <ele>5.3</ele>
        <time>2020-06-17T16:24:06Z</time>
      </trkpt>
      <trkpt lat="49.45578" lon="0.2345">
        <ele>5.2</ele>
        <time>2020-06-17T16:24:07Z</time>
      </trkpt>
      <trkpt lat="49.45579" lon="0.23442">
        <ele>5.1</ele>
        <time>2020-06-17T16:24:08Z</time>
      </trkpt>
      <trkpt lat="49.4558" lon="0.23435">
        <ele>5</ele>
        <time>2020-06-17T16:24:09Z</time>
      </trkpt>
      <trkpt lat="49.4558" lon="0.23427">
        <ele>4.8</ele>
        <time>2020-06-17T16:24:10Z</time>
      </trkpt>
      <trkpt lat="49.45581" lon="0.2342">
        <ele>4.7</ele>
        <time>2020-06-17T16:24:11Z</time>
      </trkpt>
      <trkpt lat="49.45583" lon="0.23412">
        <ele>4.6</ele>
        <time>2020-06-17T16:24:12Z</time>
      </trkpt>
      <trkpt lat="49.45585" lon="0.23405">
        <ele>4.5</ele>
        <time>2020-06-17T16:24:13Z</time>
      </trkpt>
      <trkpt lat="49.45587" lon="0.23397">
        <ele>4.5</ele>
        <time>2020-06-17T16:24:14Z</time>
      </trkpt>
      <trkpt lat="49.45588" lon="0.2339">
        <ele>4.4</ele>
        <time>2020-06-17T16:24:15Z</time>
      </trkpt>
      <trkpt lat="49.45589" lon="0.23384">
        <ele>4.4</ele>
        <time>2020-06-17T16:24:16Z</time>
      </trkpt>
      <trkpt lat="49.45591" lon="0.23379">
        <ele>4.4</ele>
        <time>2020-06-17T16:24:17Z</time>
      </trkpt>
      <trkpt lat="49.45591" lon="0.23377">
        <ele>4.4</ele>
        <time>2020-06-17T16:24:18Z</time>
      </trkpt>
      <trkpt lat="49.45592" lon="0.23374">
        <ele>4.4</ele>
        <time>2020-06-17T16:24:19Z</time>
      </trkpt>
      <trkpt lat="49.45592" lon="0.23373">
        <ele>4.4</ele>
        <time>2020-06-17T16:24:20Z</time>
      </trkpt>
      <trkpt lat="49.45593" lon="0.23372">
        <ele>4.4</ele>
        <time>2020-06-17T16:24:21Z</time>
      </trkpt>
      <trkpt lat="49.45594" lon="0.2337">
        <ele>4.3</ele>
        <time>2020-06-17T16:24:22Z</time>
      </trkpt>
      <trkpt lat="49.45595" lon="0.23366">
        <ele>4.3</ele>
        <time>2020-06-17T16:24:23Z</time>
      </trkpt>
      <trkpt lat="49.45596" lon="0.23364">
        <ele>4.3</ele>
        <time>2020-06-17T16:24:24Z</time>
      </trkpt>
      <trkpt lat="49.45596" lon="0.23359">
        <ele>4.3</ele>
        <time>2020-06-17T16:24:25Z</time>
      </trkpt>
      <trkpt lat="49.45597" lon="0.23355">
        <ele>4.3</ele>
        <time>2020-06-17T16:24:26Z</time>
      </trkpt>
      <trkpt lat="49.45598" lon="0.23349">
        <ele>4.3</ele>
        <time>2020-06-17T16:24:27Z</time>
      </trkpt>
      <trkpt lat="49.45599" lon="0.23345">
        <ele>4.3</ele>
        <time>2020-06-17T16:24:28Z</time>
      </trkpt>
      <trkpt lat="49.456" lon="0.23341">
        <ele>4.3</ele>
        <time>2020-06-17T16:24:29Z</time>
      </trkpt>
      <trkpt lat="49.456" lon="0.23335">
        <ele>4.3</ele>
        <time>2020-06-17T16:24:30Z</time>
      </trkpt>
      <trkpt lat="49.45601" lon="0.23333">
        <ele>4.3</ele>
        <time>2020-06-17T16:24:31Z</time>
      </trkpt>
      <trkpt lat="49.45602" lon="0.23327">
        <ele>4.3</ele>
        <time>2020-06-17T16:24:32Z</time>
      </trkpt>
      <trkpt lat="49.45603" lon="0.23322">
        <ele>4.3</ele>
        <time>2020-06-17T16:24:33Z</time>
      </trkpt>
      <trkpt lat="49.45604" lon="0.23315">
        <ele>4.3</ele>
        <time>2020-06-17T16:24:34Z</time>
      </trkpt>
      <trkpt lat="49.45605" lon="0.23308">
        <ele>4.3</ele>
        <time>2020-06-17T16:24:35Z</time>
      </trkpt>
      <trkpt lat="49.45605" lon="0.23301">
        <ele>4.3</ele>
        <time>2020-06-17T16:24:36Z</time>
      </trkpt>
      <trkpt lat="49.45606" lon="0.23293">
        <ele>4.3</ele>
        <time>2020-06-17T16:24:37Z</time>
      </trkpt>
      <trkpt lat="49.45608" lon="0.23287">
        <ele>4.3</ele>
        <time>2020-06-17T16:24:38Z</time>
      </trkpt>
      <trkpt lat="49.45609" lon="0.23279">
        <ele>4.4</ele>
        <time>2020-06-17T16:24:39Z</time>
      </trkpt>
      <trkpt lat="49.4561" lon="0.23273">
        <ele>4.4</ele>
        <time>2020-06-17T16:24:40Z</time>
      </trkpt>
      <trkpt lat="49.45611" lon="0.23268">
        <ele>4.4</ele>
        <time>2020-06-17T16:24:41Z</time>
      </trkpt>
      <trkpt lat="49.45612" lon="0.23262">
        <ele>4.3</ele>
        <time>2020-06-17T16:24:42Z</time>
      </trkpt>
      <trkpt lat="49.45612" lon="0.23256">
        <ele>4.3</ele>
        <time>2020-06-17T16:24:43Z</time>
      </trkpt>
      <trkpt lat="49.45613" lon="0.2325">
        <ele>4.3</ele>
        <time>2020-06-17T16:24:44Z</time>
      </trkpt>
      <trkpt lat="49.45612" lon="0.23243">
        <ele>4.3</ele>
        <time>2020-06-17T16:24:45Z</time>
      </trkpt>
      <trkpt lat="49.45613" lon="0.23237">
        <ele>4.3</ele>
        <time>2020-06-17T16:24:46Z</time>
      </trkpt>
      <trkpt lat="49.45612" lon="0.2323">
        <ele>4.3</ele>
        <time>2020-06-17T16:24:47Z</time>
      </trkpt>
      <trkpt lat="49.45613" lon="0.23225">
        <ele>4.3</ele>
        <time>2020-06-17T16:24:48Z</time>
      </trkpt>
      <trkpt lat="49.45614" lon="0.2322">
        <ele>4.3</ele>
        <time>2020-06-17T16:24:49Z</time>
      </trkpt>
      <trkpt lat="49.45614" lon="0.23214">
        <ele>4.3</ele>
        <time>2020-06-17T16:24:50Z</time>
      </trkpt>
      <trkpt lat="49.45614" lon="0.23209">
        <ele>4.3</ele>
        <time>2020-06-17T16:24:51Z</time>
      </trkpt>
      <trkpt lat="49.45615" lon="0.23204">
        <ele>4.4</ele>
        <time>2020-06-17T16:24:52Z</time>
      </trkpt>
      <trkpt lat="49.45615" lon="0.23199">
        <ele>4.4</ele>
        <time>2020-06-17T16:24:53Z</time>
      </trkpt>
      <trkpt lat="49.45616" lon="0.23194">
        <ele>4.4</ele>
        <time>2020-06-17T16:24:54Z</time>
      </trkpt>
      <trkpt lat="49.45616" lon="0.23189">
        <ele>4.4</ele>
        <time>2020-06-17T16:24:55Z</time>
      </trkpt>
      <trkpt lat="49.45617" lon="0.23183">
        <ele>4.4</ele>
        <time>2020-06-17T16:24:56Z</time>
      </trkpt>
      <trkpt lat="49.45617" lon="0.23179">
        <ele>4.5</ele>
        <time>2020-06-17T16:24:57Z</time>
      </trkpt>
      <trkpt lat="49.45618" lon="0.23174">
        <ele>4.5</ele>
        <time>2020-06-17T16:24:58Z</time>
      </trkpt>
      <trkpt lat="49.45618" lon="0.23169">
        <ele>4.6</ele>
        <time>2020-06-17T16:24:59Z</time>
      </trkpt>
      <trkpt lat="49.45619" lon="0.23163">
        <ele>4.6</ele>
        <time>2020-06-17T16:25:00Z</time>
      </trkpt>
      <trkpt lat="49.4562" lon="0.23158">
        <ele>4.7</ele>
        <time>2020-06-17T16:25:01Z</time>
      </trkpt>
      <trkpt lat="49.4562" lon="0.23154">
        <ele>4.7</ele>
        <time>2020-06-17T16:25:02Z</time>
      </trkpt>
      <trkpt lat="49.4562" lon="0.23149">
        <ele>4.8</ele>
        <time>2020-06-17T16:25:03Z</time>
      </trkpt>
      <trkpt lat="49.45621" lon="0.23144">
        <ele>4.9</ele>
        <time>2020-06-17T16:25:04Z</time>
      </trkpt>
      <trkpt lat="49.45621" lon="0.2314">
        <ele>4.9</ele>
        <time>2020-06-17T16:25:05Z</time>
      </trkpt>
      <trkpt lat="49.45623" lon="0.23137">
        <ele>5</ele>
        <time>2020-06-17T16:25:06Z</time>
      </trkpt>
      <trkpt lat="49.45624" lon="0.23136">
        <ele>5</ele>
        <time>2020-06-17T16:25:07Z</time>
      </trkpt>
      <trkpt lat="49.45625" lon="0.23131">
        <ele>5.1</ele>
        <time>2020-06-17T16:25:08Z</time>
      </trkpt>
      <trkpt lat="49.45625" lon="0.23129">
        <ele>5.1</ele>
        <time>2020-06-17T16:25:09Z</time>
      </trkpt>
      <trkpt lat="49.45629" lon="0.23128">
        <ele>5.3</ele>
        <time>2020-06-17T16:25:10Z</time>
      </trkpt>
      <trkpt lat="49.4563" lon="0.23127">
        <ele>5.3</ele>
        <time>2020-06-17T16:25:11Z</time>
      </trkpt>
      <trkpt lat="49.45633" lon="0.23127">
        <ele>5.5</ele>
        <time>2020-06-17T16:25:12Z</time>
      </trkpt>
      <trkpt lat="49.45636" lon="0.23125">
        <ele>5.6</ele>
        <time>2020-06-17T16:25:13Z</time>
      </trkpt>
      <trkpt lat="49.45639" lon="0.23124">
        <ele>5.9</ele>
        <time>2020-06-17T16:25:14Z</time>
      </trkpt>
      <trkpt lat="49.45641" lon="0.2312">
        <ele>5.8</ele>
        <time>2020-06-17T16:25:15Z</time>
      </trkpt>
      <trkpt lat="49.45642" lon="0.23117">
        <ele>5.7</ele>
        <time>2020-06-17T16:25:16Z</time>
      </trkpt>
      <trkpt lat="49.45643" lon="0.23112">
        <ele>5.6</ele>
        <time>2020-06-17T16:25:17Z</time>
      </trkpt>
      <trkpt lat="49.45644" lon="0.23107">
        <ele>5.5</ele>
        <time>2020-06-17T16:25:18Z</time>
      </trkpt>
      <trkpt lat="49.45644" lon="0.23101">
        <ele>5.5</ele>
        <time>2020-06-17T16:25:19Z</time>
      </trkpt>
      <trkpt lat="49.45645" lon="0.23096">
        <ele>5.4</ele>
        <time>2020-06-17T16:25:20Z</time>
      </trkpt>
      <trkpt lat="49.45646" lon="0.23091">
        <ele>5.3</ele>
        <time>2020-06-17T16:25:21Z</time>
      </trkpt>
      <trkpt lat="49.45646" lon="0.23085">
        <ele>5.2</ele>
        <time>2020-06-17T16:25:22Z</time>
      </trkpt>
      <trkpt lat="49.45647" lon="0.2308">
        <ele>5.1</ele>
        <time>2020-06-17T16:25:23Z</time>
      </trkpt>
      <trkpt lat="49.45649" lon="0.23075">
        <ele>4.9</ele>
        <time>2020-06-17T16:25:24Z</time>
      </trkpt>
      <trkpt lat="49.4565" lon="0.23069">
        <ele>4.8</ele>
        <time>2020-06-17T16:25:25Z</time>
      </trkpt>
      <trkpt lat="49.4565" lon="0.23063">
        <ele>4.8</ele>
        <time>2020-06-17T16:25:26Z</time>
      </trkpt>
      <trkpt lat="49.45651" lon="0.23057">
        <ele>4.7</ele>
        <time>2020-06-17T16:25:27Z</time>
      </trkpt>
      <trkpt lat="49.45651" lon="0.2305">
        <ele>4.6</ele>
        <time>2020-06-17T16:25:28Z</time>
      </trkpt>
      <trkpt lat="49.45651" lon="0.23043">
        <ele>4.6</ele>
        <time>2020-06-17T16:25:29Z</time>
      </trkpt>
      <trkpt lat="49.45651" lon="0.23035">
        <ele>4.5</ele>
        <time>2020-06-17T16:25:30Z</time>
      </trkpt>
      <trkpt lat="49.45651" lon="0.23028">
        <ele>4.5</ele>
        <time>2020-06-17T16:25:31Z</time>
      </trkpt>
      <trkpt lat="49.45652" lon="0.2302">
        <ele>4.4</ele>
        <time>2020-06-17T16:25:32Z</time>
      </trkpt>
      <trkpt lat="49.45653" lon="0.23013">
        <ele>4.4</ele>
        <time>2020-06-17T16:25:33Z</time>
      </trkpt>
      <trkpt lat="49.45653" lon="0.23004">
        <ele>4.4</ele>
        <time>2020-06-17T16:25:34Z</time>
      </trkpt>
      <trkpt lat="49.45653" lon="0.22995">
        <ele>4.4</ele>
        <time>2020-06-17T16:25:35Z</time>
      </trkpt>
      <trkpt lat="49.45654" lon="0.22987">
        <ele>4.4</ele>
        <time>2020-06-17T16:25:36Z</time>
      </trkpt>
      <trkpt lat="49.45655" lon="0.22979">
        <ele>4.4</ele>
        <time>2020-06-17T16:25:37Z</time>
      </trkpt>
      <trkpt lat="49.45656" lon="0.22971">
        <ele>4.4</ele>
        <time>2020-06-17T16:25:38Z</time>
      </trkpt>
      <trkpt lat="49.45656" lon="0.22963">
        <ele>4.4</ele>
        <time>2020-06-17T16:25:39Z</time>
      </trkpt>
      <trkpt lat="49.45656" lon="0.22954">
        <ele>4.4</ele>
        <time>2020-06-17T16:25:40Z</time>
      </trkpt>
      <trkpt lat="49.45657" lon="0.22946">
        <ele>4.4</ele>
        <time>2020-06-17T16:25:41Z</time>
      </trkpt>
      <trkpt lat="49.45657" lon="0.22938">
        <ele>4.4</ele>
        <time>2020-06-17T16:25:42Z</time>
      </trkpt>
      <trkpt lat="49.45658" lon="0.22929">
        <ele>4.4</ele>
        <time>2020-06-17T16:25:43Z</time>
      </trkpt>
      <trkpt lat="49.45658" lon="0.22921">
        <ele>4.5</ele>
        <time>2020-06-17T16:25:44Z</time>
      </trkpt>
      <trkpt lat="49.45659" lon="0.22913">
        <ele>4.5</ele>
        <time>2020-06-17T16:25:45Z</time>
      </trkpt>
      <trkpt lat="49.4566" lon="0.22904">
        <ele>4.5</ele>
        <time>2020-06-17T16:25:46Z</time>
      </trkpt>
      <trkpt lat="49.4566" lon="0.22896">
        <ele>4.5</ele>
        <time>2020-06-17T16:25:47Z</time>
      </trkpt>
      <trkpt lat="49.4566" lon="0.22887">
        <ele>4.5</ele>
        <time>2020-06-17T16:25:48Z</time>
      </trkpt>
      <trkpt lat="49.45661" lon="0.22879">
        <ele>4.5</ele>
        <time>2020-06-17T16:25:49Z</time>
      </trkpt>
      <trkpt lat="49.45661" lon="0.22871">
        <ele>4.5</ele>
        <time>2020-06-17T16:25:50Z</time>
      </trkpt>
      <trkpt lat="49.45661" lon="0.22862">
        <ele>4.5</ele>
        <time>2020-06-17T16:25:51Z</time>
      </trkpt>
      <trkpt lat="49.45661" lon="0.22854">
        <ele>4.5</ele>
        <time>2020-06-17T16:25:52Z</time>
      </trkpt>
      <trkpt lat="49.45661" lon="0.22846">
        <ele>4.5</ele>
        <time>2020-06-17T16:25:53Z</time>
      </trkpt>
      <trkpt lat="49.45662" lon="0.22838">
        <ele>4.5</ele>
        <time>2020-06-17T16:25:54Z</time>
      </trkpt>
      <trkpt lat="49.45662" lon="0.2283">
        <ele>4.5</ele>
        <time>2020-06-17T16:25:55Z</time>
      </trkpt>
      <trkpt lat="49.45663" lon="0.22822">
        <ele>4.5</ele>
        <time>2020-06-17T16:25:56Z</time>
      </trkpt>
      <trkpt lat="49.45664" lon="0.22814">
        <ele>4.5</ele>
        <time>2020-06-17T16:25:57Z</time>
      </trkpt>
      <trkpt lat="49.45664" lon="0.22806">
        <ele>4.4</ele>
        <time>2020-06-17T16:25:58Z</time>
      </trkpt>
      <trkpt lat="49.45665" lon="0.22799">
        <ele>4.4</ele>
        <time>2020-06-17T16:25:59Z</time>
      </trkpt>
      <trkpt lat="49.45665" lon="0.22791">
        <ele>4.4</ele>
        <time>2020-06-17T16:26:00Z</time>
      </trkpt>
      <trkpt lat="49.45666" lon="0.22783">
        <ele>4.5</ele>
        <time>2020-06-17T16:26:01Z</time>
      </trkpt>
      <trkpt lat="49.45666" lon="0.22774">
        <ele>4.5</ele>
        <time>2020-06-17T16:26:02Z</time>
      </trkpt>
      <trkpt lat="49.45666" lon="0.22766">
        <ele>4.6</ele>
        <time>2020-06-17T16:26:03Z</time>
      </trkpt>
      <trkpt lat="49.45667" lon="0.22758">
        <ele>4.6</ele>
        <time>2020-06-17T16:26:04Z</time>
      </trkpt>
      <trkpt lat="49.45668" lon="0.2275">
        <ele>4.6</ele>
        <time>2020-06-17T16:26:05Z</time>
      </trkpt>
      <trkpt lat="49.45668" lon="0.22742">
        <ele>4.6</ele>
        <time>2020-06-17T16:26:06Z</time>
      </trkpt>
      <trkpt lat="49.45669" lon="0.22734">
        <ele>4.6</ele>
        <time>2020-06-17T16:26:07Z</time>
      </trkpt>
      <trkpt lat="49.45669" lon="0.22726">
        <ele>4.6</ele>
        <time>2020-06-17T16:26:08Z</time>
      </trkpt>
      <trkpt lat="49.4567" lon="0.22718">
        <ele>4.6</ele>
        <time>2020-06-17T16:26:09Z</time>
      </trkpt>
      <trkpt lat="49.4567" lon="0.22709">
        <ele>4.5</ele>
        <time>2020-06-17T16:26:10Z</time>
      </trkpt>
      <trkpt lat="49.45671" lon="0.22701">
        <ele>4.5</ele>
        <time>2020-06-17T16:26:11Z</time>
      </trkpt>
      <trkpt lat="49.45671" lon="0.22693">
        <ele>4.5</ele>
        <time>2020-06-17T16:26:12Z</time>
      </trkpt>
      <trkpt lat="49.45672" lon="0.22684">
        <ele>4.5</ele>
        <time>2020-06-17T16:26:13Z</time>
      </trkpt>
      <trkpt lat="49.45672" lon="0.22676">
        <ele>4.5</ele>
        <time>2020-06-17T16:26:14Z</time>
      </trkpt>
      <trkpt lat="49.45673" lon="0.22667">
        <ele>4.5</ele>
        <time>2020-06-17T16:26:15Z</time>
      </trkpt>
      <trkpt lat="49.45674" lon="0.22659">
        <ele>4.5</ele>
        <time>2020-06-17T16:26:16Z</time>
      </trkpt>
      <trkpt lat="49.45675" lon="0.2265">
        <ele>4.5</ele>
        <time>2020-06-17T16:26:17Z</time>
      </trkpt>
      <trkpt lat="49.45675" lon="0.22642">
        <ele>4.5</ele>
        <time>2020-06-17T16:26:18Z</time>
      </trkpt>
      <trkpt lat="49.45676" lon="0.22633">
        <ele>4.4</ele>
        <time>2020-06-17T16:26:19Z</time>
      </trkpt>
      <trkpt lat="49.45677" lon="0.22624">
        <ele>4.4</ele>
        <time>2020-06-17T16:26:20Z</time>
      </trkpt>
      <trkpt lat="49.45677" lon="0.22616">
        <ele>4.4</ele>
        <time>2020-06-17T16:26:21Z</time>
      </trkpt>
      <trkpt lat="49.45677" lon="0.22607">
        <ele>4.4</ele>
        <time>2020-06-17T16:26:22Z</time>
      </trkpt>
      <trkpt lat="49.45678" lon="0.22599">
        <ele>4.4</ele>
        <time>2020-06-17T16:26:23Z</time>
      </trkpt>
      <trkpt lat="49.45679" lon="0.2259">
        <ele>4.4</ele>
        <time>2020-06-17T16:26:24Z</time>
      </trkpt>
      <trkpt lat="49.4568" lon="0.22581">
        <ele>4.5</ele>
        <time>2020-06-17T16:26:25Z</time>
      </trkpt>
      <trkpt lat="49.45681" lon="0.22572">
        <ele>4.5</ele>
        <time>2020-06-17T16:26:26Z</time>
      </trkpt>
      <trkpt lat="49.45681" lon="0.22563">
        <ele>4.6</ele>
        <time>2020-06-17T16:26:27Z</time>
      </trkpt>
      <trkpt lat="49.45681" lon="0.22554">
        <ele>4.7</ele>
        <time>2020-06-17T16:26:28Z</time>
      </trkpt>
      <trkpt lat="49.45682" lon="0.22545">
        <ele>4.8</ele>
        <time>2020-06-17T16:26:29Z</time>
      </trkpt>
      <trkpt lat="49.45683" lon="0.22537">
        <ele>4.9</ele>
        <time>2020-06-17T16:26:30Z</time>
      </trkpt>
      <trkpt lat="49.45683" lon="0.22528">
        <ele>4.9</ele>
        <time>2020-06-17T16:26:31Z</time>
      </trkpt>
      <trkpt lat="49.45684" lon="0.2252">
        <ele>4.9</ele>
        <time>2020-06-17T16:26:32Z</time>
      </trkpt>
      <trkpt lat="49.45685" lon="0.22511">
        <ele>4.9</ele>
        <time>2020-06-17T16:26:33Z</time>
      </trkpt>
      <trkpt lat="49.45686" lon="0.22502">
        <ele>4.8</ele>
        <time>2020-06-17T16:26:34Z</time>
      </trkpt>
      <trkpt lat="49.45686" lon="0.22492">
        <ele>4.8</ele>
        <time>2020-06-17T16:26:35Z</time>
      </trkpt>
      <trkpt lat="49.45687" lon="0.22483">
        <ele>4.8</ele>
        <time>2020-06-17T16:26:36Z</time>
      </trkpt>
      <trkpt lat="49.45688" lon="0.22474">
        <ele>4.7</ele>
        <time>2020-06-17T16:26:37Z</time>
      </trkpt>
      <trkpt lat="49.45688" lon="0.22465">
        <ele>4.7</ele>
        <time>2020-06-17T16:26:38Z</time>
      </trkpt>
      <trkpt lat="49.45688" lon="0.22456">
        <ele>4.7</ele>
        <time>2020-06-17T16:26:39Z</time>
      </trkpt>
      <trkpt lat="49.45689" lon="0.22446">
        <ele>4.7</ele>
        <time>2020-06-17T16:26:40Z</time>
      </trkpt>
      <trkpt lat="49.45689" lon="0.22437">
        <ele>4.7</ele>
        <time>2020-06-17T16:26:41Z</time>
      </trkpt>
      <trkpt lat="49.4569" lon="0.22428">
        <ele>4.7</ele>
        <time>2020-06-17T16:26:42Z</time>
      </trkpt>
      <trkpt lat="49.45691" lon="0.22419">
        <ele>4.7</ele>
        <time>2020-06-17T16:26:43Z</time>
      </trkpt>
      <trkpt lat="49.45691" lon="0.22411">
        <ele>4.7</ele>
        <time>2020-06-17T16:26:44Z</time>
      </trkpt>
      <trkpt lat="49.45691" lon="0.22402">
        <ele>4.7</ele>
        <time>2020-06-17T16:26:45Z</time>
      </trkpt>
      <trkpt lat="49.45691" lon="0.22393">
        <ele>4.6</ele>
        <time>2020-06-17T16:26:46Z</time>
      </trkpt>
      <trkpt lat="49.45691" lon="0.22384">
        <ele>4.6</ele>
        <time>2020-06-17T16:26:47Z</time>
      </trkpt>
      <trkpt lat="49.45691" lon="0.22375">
        <ele>4.6</ele>
        <time>2020-06-17T16:26:48Z</time>
      </trkpt>
      <trkpt lat="49.45692" lon="0.22366">
        <ele>4.6</ele>
        <time>2020-06-17T16:26:49Z</time>
      </trkpt>
      <trkpt lat="49.45693" lon="0.22357">
        <ele>4.6</ele>
        <time>2020-06-17T16:26:50Z</time>
      </trkpt>
      <trkpt lat="49.45693" lon="0.22348">
        <ele>4.6</ele>
        <time>2020-06-17T16:26:51Z</time>
      </trkpt>
      <trkpt lat="49.45693" lon="0.22339">
        <ele>4.7</ele>
        <time>2020-06-17T16:26:52Z</time>
      </trkpt>
      <trkpt lat="49.45694" lon="0.2233">
        <ele>4.7</ele>
        <time>2020-06-17T16:26:53Z</time>
      </trkpt>
      <trkpt lat="49.45694" lon="0.22321">
        <ele>4.7</ele>
        <time>2020-06-17T16:26:54Z</time>
      </trkpt>
      <trkpt lat="49.45695" lon="0.22313">
        <ele>4.7</ele>
        <time>2020-06-17T16:26:55Z</time>
      </trkpt>
      <trkpt lat="49.45696" lon="0.22304">
        <ele>4.7</ele>
        <time>2020-06-17T16:26:56Z</time>
      </trkpt>
      <trkpt lat="49.45697" lon="0.22295">
        <ele>4.7</ele>
        <time>2020-06-17T16:26:57Z</time>
      </trkpt>
      <trkpt lat="49.45697" lon="0.22287">
        <ele>4.7</ele>
        <time>2020-06-17T16:26:58Z</time>
      </trkpt>
      <trkpt lat="49.45698" lon="0.22278">
        <ele>4.7</ele>
        <time>2020-06-17T16:26:59Z</time>
      </trkpt>
      <trkpt lat="49.45699" lon="0.22269">
        <ele>4.7</ele>
        <time>2020-06-17T16:27:00Z</time>
      </trkpt>
      <trkpt lat="49.457" lon="0.22261">
        <ele>4.7</ele>
        <time>2020-06-17T16:27:01Z</time>
      </trkpt>
      <trkpt lat="49.45701" lon="0.22253">
        <ele>4.7</ele>
        <time>2020-06-17T16:27:02Z</time>
      </trkpt>
      <trkpt lat="49.45702" lon="0.22245">
        <ele>4.7</ele>
        <time>2020-06-17T16:27:03Z</time>
      </trkpt>
      <trkpt lat="49.45702" lon="0.22236">
        <ele>4.7</ele>
        <time>2020-06-17T16:27:04Z</time>
      </trkpt>
      <trkpt lat="49.45703" lon="0.22228">
        <ele>4.6</ele>
        <time>2020-06-17T16:27:05Z</time>
      </trkpt>
      <trkpt lat="49.45703" lon="0.2222">
        <ele>4.6</ele>
        <time>2020-06-17T16:27:06Z</time>
      </trkpt>
      <trkpt lat="49.45704" lon="0.22212">
        <ele>4.6</ele>
        <time>2020-06-17T16:27:07Z</time>
      </trkpt>
      <trkpt lat="49.45705" lon="0.22206">
        <ele>4.6</ele>
        <time>2020-06-17T16:27:08Z</time>
      </trkpt>
      <trkpt lat="49.45705" lon="0.222">
        <ele>4.6</ele>
        <time>2020-06-17T16:27:09Z</time>
      </trkpt>
      <trkpt lat="49.45705" lon="0.22195">
        <ele>4.6</ele>
        <time>2020-06-17T16:27:10Z</time>
      </trkpt>
      <trkpt lat="49.45705" lon="0.22193">
        <ele>4.6</ele>
        <time>2020-06-17T16:27:11Z</time>
      </trkpt>
      <trkpt lat="49.45702" lon="0.22193">
        <ele>4.6</ele>
        <time>2020-06-17T16:27:12Z</time>
      </trkpt>
      <trkpt lat="49.45701" lon="0.22194">
        <ele>4.6</ele>
        <time>2020-06-17T16:27:13Z</time>
      </trkpt>
      <trkpt lat="49.45701" lon="0.22199">
        <ele>4.6</ele>
        <time>2020-06-17T16:27:14Z</time>
      </trkpt>
      <trkpt lat="49.45701" lon="0.22203">
        <ele>4.6</ele>
        <time>2020-06-17T16:27:15Z</time>
      </trkpt>
      <trkpt lat="49.45701" lon="0.22209">
        <ele>4.6</ele>
        <time>2020-06-17T16:27:16Z</time>
      </trkpt>
      <trkpt lat="49.45701" lon="0.22214">
        <ele>4.6</ele>
        <time>2020-06-17T16:27:17Z</time>
      </trkpt>
      <trkpt lat="49.457" lon="0.2222">
        <ele>4.7</ele>
        <time>2020-06-17T16:27:18Z</time>
      </trkpt>
      <trkpt lat="49.457" lon="0.22225">
        <ele>4.7</ele>
        <time>2020-06-17T16:27:19Z</time>
      </trkpt>
      <trkpt lat="49.45699" lon="0.22231">
        <ele>4.7</ele>
        <time>2020-06-17T16:27:20Z</time>
      </trkpt>
      <trkpt lat="49.45698" lon="0.22237">
        <ele>4.7</ele>
        <time>2020-06-17T16:27:21Z</time>
      </trkpt>
      <trkpt lat="49.45697" lon="0.22243">
        <ele>4.7</ele>
        <time>2020-06-17T16:27:22Z</time>
      </trkpt>
      <trkpt lat="49.45696" lon="0.22248">
        <ele>4.3</ele>
        <time>2020-06-17T16:27:23Z</time>
      </trkpt>
      <trkpt lat="49.45695" lon="0.22253">
        <ele>4.1</ele>
        <time>2020-06-17T16:27:24Z</time>
      </trkpt>
      <trkpt lat="49.45692" lon="0.22258">
        <ele>4</ele>
        <time>2020-06-17T16:27:25Z</time>
      </trkpt>
      <trkpt lat="49.4569" lon="0.22262">
        <ele>3.8</ele>
        <time>2020-06-17T16:27:26Z</time>
      </trkpt>
      <trkpt lat="49.45686" lon="0.22266">
        <ele>3.7</ele>
        <time>2020-06-17T16:27:27Z</time>
      </trkpt>
      <trkpt lat="49.45683" lon="0.22269">
        <ele>3.5</ele>
        <time>2020-06-17T16:27:28Z</time>
      </trkpt>
      <trkpt lat="49.4568" lon="0.22272">
        <ele>3.3</ele>
        <time>2020-06-17T16:27:29Z</time>
      </trkpt>
      <trkpt lat="49.45676" lon="0.22276">
        <ele>3.2</ele>
        <time>2020-06-17T16:27:30Z</time>
      </trkpt>
      <trkpt lat="49.45673" lon="0.22278">
        <ele>3.2</ele>
        <time>2020-06-17T16:27:31Z</time>
      </trkpt>
      <trkpt lat="49.45669" lon="0.22281">
        <ele>3.4</ele>
        <time>2020-06-17T16:27:32Z</time>
      </trkpt>
      <trkpt lat="49.45665" lon="0.22283">
        <ele>3.5</ele>
        <time>2020-06-17T16:27:33Z</time>
      </trkpt>
      <trkpt lat="49.45662" lon="0.22283">
        <ele>3.6</ele>
        <time>2020-06-17T16:27:34Z</time>
      </trkpt>
      <trkpt lat="49.45658" lon="0.22282">
        <ele>3.5</ele>
        <time>2020-06-17T16:27:35Z</time>
      </trkpt>
      <trkpt lat="49.45654" lon="0.22283">
        <ele>3.5</ele>
        <time>2020-06-17T16:27:36Z</time>
      </trkpt>
      <trkpt lat="49.4565" lon="0.22283">
        <ele>3.5</ele>
        <time>2020-06-17T16:27:37Z</time>
      </trkpt>
      <trkpt lat="49.45647" lon="0.22283">
        <ele>3.4</ele>
        <time>2020-06-17T16:27:38Z</time>
      </trkpt>
      <trkpt lat="49.45643" lon="0.22285">
        <ele>3.3</ele>
        <time>2020-06-17T16:27:39Z</time>
      </trkpt>
      <trkpt lat="49.45639" lon="0.22287">
        <ele>3.3</ele>
        <time>2020-06-17T16:27:40Z</time>
      </trkpt>
      <trkpt lat="49.45635" lon="0.22286">
        <ele>3.2</ele>
        <time>2020-06-17T16:27:41Z</time>
      </trkpt>
      <trkpt lat="49.45632" lon="0.22286">
        <ele>3.2</ele>
        <time>2020-06-17T16:27:42Z</time>
      </trkpt>
      <trkpt lat="49.45629" lon="0.22285">
        <ele>3.1</ele>
        <time>2020-06-17T16:27:43Z</time>
      </trkpt>
      <trkpt lat="49.45625" lon="0.22284">
        <ele>3.1</ele>
        <time>2020-06-17T16:27:44Z</time>
      </trkpt>
      <trkpt lat="49.45624" lon="0.22283">
        <ele>3.1</ele>
        <time>2020-06-17T16:27:45Z</time>
      </trkpt>
      <trkpt lat="49.45621" lon="0.22281">
        <ele>3.1</ele>
        <time>2020-06-17T16:27:46Z</time>
      </trkpt>
      <trkpt lat="49.4562" lon="0.22281">
        <ele>3.1</ele>
        <time>2020-06-17T16:27:47Z</time>
      </trkpt>
      <trkpt lat="49.45617" lon="0.22282">
        <ele>3.1</ele>
        <time>2020-06-17T16:27:48Z</time>
      </trkpt>
      <trkpt lat="49.45616" lon="0.22282">
        <ele>3.1</ele>
        <time>2020-06-17T16:27:49Z</time>
      </trkpt>
      <trkpt lat="49.45615" lon="0.22282">
        <ele>3.1</ele>
        <time>2020-06-17T16:27:50Z</time>
      </trkpt>
      <trkpt lat="49.45613" lon="0.22283">
        <ele>3.1</ele>
        <time>2020-06-17T16:27:51Z</time>
      </trkpt>
      <trkpt lat="49.45611" lon="0.22283">
        <ele>3.1</ele>
        <time>2020-06-17T16:27:52Z</time>
      </trkpt>
      <trkpt lat="49.4561" lon="0.22284">
        <ele>3.1</ele>
        <time>2020-06-17T16:27:53Z</time>
      </trkpt>
      <trkpt lat="49.45608" lon="0.22283">
        <ele>3.1</ele>
        <time>2020-06-17T16:27:54Z</time>
      </trkpt>
      <trkpt lat="49.45606" lon="0.22282">
        <ele>3.1</ele>
        <time>2020-06-17T16:27:55Z</time>
      </trkpt>
      <trkpt lat="49.45604" lon="0.22281">
        <ele>3.1</ele>
        <time>2020-06-17T16:27:56Z</time>
      </trkpt>
      <trkpt lat="49.45603" lon="0.22281">
        <ele>3.1</ele>
        <time>2020-06-17T16:27:57Z</time>
      </trkpt>
      <trkpt lat="49.45601" lon="0.22282">
        <ele>3.1</ele>
        <time>2020-06-17T16:27:58Z</time>
      </trkpt>
      <trkpt lat="49.456" lon="0.22283">
        <ele>3.1</ele>
        <time>2020-06-17T16:27:59Z</time>
      </trkpt>
      <trkpt lat="49.456" lon="0.22284">
        <ele>3.1</ele>
        <time>2020-06-17T16:28:00Z</time>
      </trkpt>
      <trkpt lat="49.456" lon="0.22285">
        <ele>3.1</ele>
        <time>2020-06-17T16:28:01Z</time>
      </trkpt>
      <trkpt lat="49.456" lon="0.22285">
        <ele>3.1</ele>
        <time>2020-06-17T16:28:02Z</time>
      </trkpt>
      <trkpt lat="49.456" lon="0.22286">
        <ele>3.1</ele>
        <time>2020-06-17T16:28:03Z</time>
      </trkpt>
      <trkpt lat="49.456" lon="0.22285">
        <ele>3.1</ele>
        <time>2020-06-17T16:28:04Z</time>
      </trkpt>
      <trkpt lat="49.456" lon="0.22285">
        <ele>3.1</ele>
        <time>2020-06-17T16:28:05Z</time>
      </trkpt>
      <trkpt lat="49.45599" lon="0.22285">
        <ele>3.1</ele>
        <time>2020-06-17T16:28:06Z</time>
      </trkpt>
      <trkpt lat="49.45599" lon="0.22285">
        <ele>3.1</ele>
        <time>2020-06-17T16:28:07Z</time>
      </trkpt>
      <trkpt lat="49.45599" lon="0.22285">
        <ele>3.1</ele>
        <time>2020-06-17T16:28:08Z</time>
      </trkpt>
      <trkpt lat="49.45599" lon="0.22285">
        <ele>3.1</ele>
        <time>2020-06-17T16:28:09Z</time>
      </trkpt>
      <trkpt lat="49.45599" lon="0.22286">
        <ele>3.1</ele>
        <time>2020-06-17T16:28:10Z</time>
      </trkpt>
      <trkpt lat="49.45596" lon="0.22285">
        <ele>3.1</ele>
        <time>2020-06-17T16:28:13Z</time>
      </trkpt>
      <trkpt lat="49.45594" lon="0.22285">
        <ele>3.1</ele>
        <time>2020-06-17T16:28:14Z</time>
      </trkpt>
      <trkpt lat="49.45592" lon="0.22285">
        <ele>3.1</ele>
        <time>2020-06-17T16:28:15Z</time>
      </trkpt>
      <trkpt lat="49.45591" lon="0.22285">
        <ele>3.1</ele>
        <time>2020-06-17T16:28:16Z</time>
      </trkpt>
      <trkpt lat="49.45589" lon="0.22286">
        <ele>3.1</ele>
        <time>2020-06-17T16:28:17Z</time>
      </trkpt>
      <trkpt lat="49.45588" lon="0.22285">
        <ele>3.1</ele>
        <time>2020-06-17T16:28:18Z</time>
      </trkpt>
      <trkpt lat="49.45588" lon="0.22285">
        <ele>3.1</ele>
        <time>2020-06-17T16:28:19Z</time>
      </trkpt>
      <trkpt lat="49.45588" lon="0.22284">
        <ele>3.1</ele>
        <time>2020-06-17T16:28:20Z</time>
      </trkpt>
      <trkpt lat="49.45589" lon="0.22283">
        <ele>3.1</ele>
        <time>2020-06-17T16:28:21Z</time>
      </trkpt>
      <trkpt lat="49.45588" lon="0.22282">
        <ele>3.1</ele>
        <time>2020-06-17T16:28:22Z</time>
      </trkpt>
      <trkpt lat="49.45588" lon="0.22282">
        <ele>3.1</ele>
        <time>2020-06-17T16:28:23Z</time>
      </trkpt>
      <trkpt lat="49.45588" lon="0.22282">
        <ele>3.1</ele>
        <time>2020-06-17T16:28:24Z</time>
      </trkpt>
      <trkpt lat="49.45588" lon="0.22282">
        <ele>3.1</ele>
        <time>2020-06-17T16:28:25Z</time>
      </trkpt>
      <trkpt lat="49.45588" lon="0.22281">
        <ele>3.1</ele>
        <time>2020-06-17T16:28:26Z</time>
      </trkpt>
      <trkpt lat="49.45588" lon="0.22281">
        <ele>3.1</ele>
        <time>2020-06-17T16:28:27Z</time>
      </trkpt>
      <trkpt lat="49.45588" lon="0.22282">
        <ele>3.1</ele>
        <time>2020-06-17T16:28:28Z</time>
      </trkpt>
      <trkpt lat="49.45595" lon="0.22275">
        <ele>3.1</ele>
        <time>2020-06-17T16:28:50Z</time>
      </trkpt>
      <trkpt lat="49.45596" lon="0.22274">
        <ele>3.1</ele>
        <time>2020-06-17T16:28:51Z</time>
      </trkpt>
      <trkpt lat="49.45598" lon="0.22274">
        <ele>3.1</ele>
        <time>2020-06-17T16:28:52Z</time>
      </trkpt>
      <trkpt lat="49.456" lon="0.22278">
        <ele>3.1</ele>
        <time>2020-06-17T16:28:53Z</time>
      </trkpt>
      <trkpt lat="49.45603" lon="0.22277">
        <ele>3.1</ele>
        <time>2020-06-17T16:28:54Z</time>
      </trkpt>
      <trkpt lat="49.45604" lon="0.22276">
        <ele>3.1</ele>
        <time>2020-06-17T16:28:55Z</time>
      </trkpt>
      <trkpt lat="49.45607" lon="0.22276">
        <ele>3.1</ele>
        <time>2020-06-17T16:28:56Z</time>
      </trkpt>
      <trkpt lat="49.45608" lon="0.22276">
        <ele>3.1</ele>
        <time>2020-06-17T16:28:57Z</time>
      </trkpt>
      <trkpt lat="49.45611" lon="0.22276">
        <ele>3.1</ele>
        <time>2020-06-17T16:28:58Z</time>
      </trkpt>
      <trkpt lat="49.45612" lon="0.22275">
        <ele>3.1</ele>
        <time>2020-06-17T16:28:59Z</time>
      </trkpt>
      <trkpt lat="49.45615" lon="0.22274">
        <ele>3.1</ele>
        <time>2020-06-17T16:29:00Z</time>
      </trkpt>
      <trkpt lat="49.45616" lon="0.22273">
        <ele>3.1</ele>
        <time>2020-06-17T16:29:01Z</time>
      </trkpt>
      <trkpt lat="49.45616" lon="0.2227">
        <ele>3.2</ele>
        <time>2020-06-17T16:29:02Z</time>
      </trkpt>
      <trkpt lat="49.45616" lon="0.22268">
        <ele>3.2</ele>
        <time>2020-06-17T16:29:03Z</time>
      </trkpt>
      <trkpt lat="49.45616" lon="0.22267">
        <ele>3.2</ele>
        <time>2020-06-17T16:29:04Z</time>
      </trkpt>
      <trkpt lat="49.45615" lon="0.22265">
        <ele>3.2</ele>
        <time>2020-06-17T16:29:05Z</time>
      </trkpt>
      <trkpt lat="49.45616" lon="0.22264">
        <ele>3.2</ele>
        <time>2020-06-17T16:29:06Z</time>
      </trkpt>
      <trkpt lat="49.45616" lon="0.22263">
        <ele>3.2</ele>
        <time>2020-06-17T16:29:07Z</time>
      </trkpt>
      <trkpt lat="49.45616" lon="0.22263">
        <ele>3.2</ele>
        <time>2020-06-17T16:29:08Z</time>
      </trkpt>
      <trkpt lat="49.45615" lon="0.22263">
        <ele>3.2</ele>
        <time>2020-06-17T16:29:09Z</time>
      </trkpt>
      <trkpt lat="49.45615" lon="0.22264">
        <ele>3.2</ele>
        <time>2020-06-17T16:29:10Z</time>
      </trkpt>
      <trkpt lat="49.45615" lon="0.22264">
        <ele>3.2</ele>
        <time>2020-06-17T16:29:11Z</time>
      </trkpt>
      <trkpt lat="49.45614" lon="0.22264">
        <ele>3.2</ele>
        <time>2020-06-17T16:29:12Z</time>
      </trkpt>
      <trkpt lat="49.45614" lon="0.22264">
        <ele>3.2</ele>
        <time>2020-06-17T16:29:13Z</time>
      </trkpt>
      <trkpt lat="49.45614" lon="0.22264">
        <ele>3.2</ele>
        <time>2020-06-17T16:29:14Z</time>
      </trkpt>
      <trkpt lat="49.45613" lon="0.22264">
        <ele>3.2</ele>
        <time>2020-06-17T16:29:15Z</time>
      </trkpt>
      <trkpt lat="49.45612" lon="0.22261">
        <ele>3.2</ele>
        <time>2020-06-17T16:29:16Z</time>
      </trkpt>
      <trkpt lat="49.45611" lon="0.22257">
        <ele>3.2</ele>
        <time>2020-06-17T16:30:15Z</time>
      </trkpt>
      <trkpt lat="49.4561" lon="0.22254">
        <ele>3.2</ele>
        <time>2020-06-17T16:30:16Z</time>
      </trkpt>
      <trkpt lat="49.4561" lon="0.22248">
        <ele>3.2</ele>
        <time>2020-06-17T16:30:17Z</time>
      </trkpt>
      <trkpt lat="49.4561" lon="0.22246">
        <ele>3.2</ele>
        <time>2020-06-17T16:30:18Z</time>
      </trkpt>
      <trkpt lat="49.45609" lon="0.2224">
        <ele>3.2</ele>
        <time>2020-06-17T16:30:19Z</time>
      </trkpt>
      <trkpt lat="49.45609" lon="0.22238">
        <ele>3.2</ele>
        <time>2020-06-17T16:30:20Z</time>
      </trkpt>
      <trkpt lat="49.45609" lon="0.22232">
        <ele>3.2</ele>
        <time>2020-06-17T16:30:21Z</time>
      </trkpt>
      <trkpt lat="49.45609" lon="0.2223">
        <ele>3.2</ele>
        <time>2020-06-17T16:30:22Z</time>
      </trkpt>
      <trkpt lat="49.45609" lon="0.22226">
        <ele>3.3</ele>
        <time>2020-06-17T16:30:23Z</time>
      </trkpt>
      <trkpt lat="49.45609" lon="0.22221">
        <ele>3.3</ele>
        <time>2020-06-17T16:30:24Z</time>
      </trkpt>
      <trkpt lat="49.4561" lon="0.22215">
        <ele>3.3</ele>
        <time>2020-06-17T16:30:25Z</time>
      </trkpt>
      <trkpt lat="49.4561" lon="0.22214">
        <ele>3.3</ele>
        <time>2020-06-17T16:30:26Z</time>
      </trkpt>
      <trkpt lat="49.4561" lon="0.22208">
        <ele>3.3</ele>
        <time>2020-06-17T16:30:27Z</time>
      </trkpt>
      <trkpt lat="49.4561" lon="0.22206">
        <ele>3.3</ele>
        <time>2020-06-17T16:30:28Z</time>
      </trkpt>
      <trkpt lat="49.45609" lon="0.22201">
        <ele>3.3</ele>
        <time>2020-06-17T16:30:29Z</time>
      </trkpt>
      <trkpt lat="49.45609" lon="0.222">
        <ele>3.3</ele>
        <time>2020-06-17T16:30:30Z</time>
      </trkpt>
      <trkpt lat="49.45609" lon="0.22195">
        <ele>3.3</ele>
        <time>2020-06-17T16:30:31Z</time>
      </trkpt>
      <trkpt lat="49.45609" lon="0.22194">
        <ele>3.3</ele>
        <time>2020-06-17T16:30:32Z</time>
      </trkpt>
      <trkpt lat="49.45609" lon="0.22191">
        <ele>3.3</ele>
        <time>2020-06-17T16:30:33Z</time>
      </trkpt>
      <trkpt lat="49.45608" lon="0.22188">
        <ele>3.3</ele>
        <time>2020-06-17T16:30:34Z</time>
      </trkpt>
      <trkpt lat="49.45608" lon="0.22186">
        <ele>3.3</ele>
        <time>2020-06-17T16:30:35Z</time>
      </trkpt>
      <trkpt lat="49.45608" lon="0.22184">
        <ele>3.3</ele>
        <time>2020-06-17T16:30:36Z</time>
      </trkpt>
      <trkpt lat="49.45608" lon="0.22183">
        <ele>3.3</ele>
        <time>2020-06-17T16:30:37Z</time>
      </trkpt>
      <trkpt lat="49.45608" lon="0.22183">
        <ele>3.3</ele>
        <time>2020-06-17T16:30:38Z</time>
      </trkpt>
      <trkpt lat="49.45608" lon="0.22182">
        <ele>3.3</ele>
        <time>2020-06-17T16:30:39Z</time>
      </trkpt>
      <trkpt lat="49.45608" lon="0.22182">
        <ele>3.3</ele>
        <time>2020-06-17T16:30:40Z</time>
      </trkpt>
      <trkpt lat="49.45607" lon="0.22181">
        <ele>3.3</ele>
        <time>2020-06-17T16:30:41Z</time>
      </trkpt>
      <trkpt lat="49.45607" lon="0.22181">
        <ele>3.3</ele>
        <time>2020-06-17T16:30:42Z</time>
      </trkpt>
      <trkpt lat="49.45608" lon="0.2218">
        <ele>3.3</ele>
        <time>2020-06-17T16:30:43Z</time>
      </trkpt>
      <trkpt lat="49.45608" lon="0.2218">
        <ele>3.3</ele>
        <time>2020-06-17T16:30:44Z</time>
      </trkpt>
      <trkpt lat="49.45609" lon="0.2218">
        <ele>3.3</ele>
        <time>2020-06-17T16:30:45Z</time>
      </trkpt>
      <trkpt lat="49.45609" lon="0.2218">
        <ele>3.3</ele>
        <time>2020-06-17T16:30:46Z</time>
      </trkpt>
      <trkpt lat="49.45609" lon="0.2218">
        <ele>3.3</ele>
        <time>2020-06-17T16:30:47Z</time>
      </trkpt>
      <trkpt lat="49.45609" lon="0.2218">
        <ele>3.3</ele>
        <time>2020-06-17T16:30:48Z</time>
      </trkpt>
      <trkpt lat="49.45612" lon="0.22165">
        <ele>3.4</ele>
        <time>2020-06-17T16:32:17Z</time>
      </trkpt>
      <trkpt lat="49.45612" lon="0.22165">
        <ele>3.4</ele>
        <time>2020-06-17T16:32:18Z</time>
      </trkpt>
      <trkpt lat="49.45612" lon="0.22163">
        <ele>3.4</ele>
        <time>2020-06-17T16:32:19Z</time>
      </trkpt>
      <trkpt lat="49.45613" lon="0.22162">
        <ele>3.4</ele>
        <time>2020-06-17T16:32:20Z</time>
      </trkpt>
      <trkpt lat="49.45613" lon="0.22162">
        <ele>3.4</ele>
        <time>2020-06-17T16:32:21Z</time>
      </trkpt>
      <trkpt lat="49.45613" lon="0.22162">
        <ele>3.4</ele>
        <time>2020-06-17T16:32:22Z</time>
      </trkpt>
      <trkpt lat="49.45613" lon="0.22162">
        <ele>3.4</ele>
        <time>2020-06-17T16:32:23Z</time>
      </trkpt>
      <trkpt lat="49.45612" lon="0.22163">
        <ele>3.4</ele>
        <time>2020-06-17T16:32:24Z</time>
      </trkpt>
      <trkpt lat="49.45612" lon="0.22162">
        <ele>3.4</ele>
        <time>2020-06-17T16:32:25Z</time>
      </trkpt>
      <trkpt lat="49.45612" lon="0.22163">
        <ele>3.4</ele>
        <time>2020-06-17T16:32:26Z</time>
      </trkpt>
      <trkpt lat="49.45611" lon="0.22163">
        <ele>3.4</ele>
        <time>2020-06-17T16:32:27Z</time>
      </trkpt>
      <trkpt lat="49.4561" lon="0.22163">
        <ele>3.4</ele>
        <time>2020-06-17T16:32:28Z</time>
      </trkpt>
      <trkpt lat="49.45609" lon="0.22163">
        <ele>3.4</ele>
        <time>2020-06-17T16:32:29Z</time>
      </trkpt>
      <trkpt lat="49.45608" lon="0.22162">
        <ele>3.4</ele>
        <time>2020-06-17T16:32:30Z</time>
      </trkpt>
      <trkpt lat="49.45608" lon="0.22163">
        <ele>3.4</ele>
        <time>2020-06-17T16:32:31Z</time>
      </trkpt>
      <trkpt lat="49.45608" lon="0.22163">
        <ele>3.4</ele>
        <time>2020-06-17T16:32:32Z</time>
      </trkpt>
      <trkpt lat="49.45608" lon="0.22164">
        <ele>3.4</ele>
        <time>2020-06-17T16:32:33Z</time>
      </trkpt>
      <trkpt lat="49.45609" lon="0.22164">
        <ele>3.4</ele>
        <time>2020-06-17T16:32:34Z</time>
      </trkpt>
      <trkpt lat="49.4561" lon="0.22166">
        <ele>3.4</ele>
        <time>2020-06-17T16:32:35Z</time>
      </trkpt>
      <trkpt lat="49.45609" lon="0.22167">
        <ele>3.4</ele>
        <time>2020-06-17T16:32:36Z</time>
      </trkpt>
      <trkpt lat="49.45609" lon="0.22167">
        <ele>3.4</ele>
        <time>2020-06-17T16:32:37Z</time>
      </trkpt>
      <trkpt lat="49.45606" lon="0.22166">
        <ele>3.4</ele>
        <time>2020-06-17T16:32:38Z</time>
      </trkpt>
      <trkpt lat="49.45605" lon="0.22164">
        <ele>3.4</ele>
        <time>2020-06-17T16:32:39Z</time>
      </trkpt>
      <trkpt lat="49.45605" lon="0.22163">
        <ele>3.4</ele>
        <time>2020-06-17T16:32:40Z</time>
      </trkpt>
      <trkpt lat="49.45605" lon="0.22161">
        <ele>3.4</ele>
        <time>2020-06-17T16:32:41Z</time>
      </trkpt>
      <trkpt lat="49.45605" lon="0.2216">
        <ele>3.4</ele>
        <time>2020-06-17T16:32:42Z</time>
      </trkpt>
      <trkpt lat="49.45606" lon="0.22158">
        <ele>3.4</ele>
        <time>2020-06-17T16:32:43Z</time>
      </trkpt>
      <trkpt lat="49.45606" lon="0.22157">
        <ele>3.4</ele>
        <time>2020-06-17T16:32:44Z</time>
      </trkpt>
      <trkpt lat="49.45606" lon="0.22156">
        <ele>3.4</ele>
        <time>2020-06-17T16:32:45Z</time>
      </trkpt>
      <trkpt lat="49.45606" lon="0.22154">
        <ele>3.5</ele>
        <time>2020-06-17T16:32:54Z</time>
      </trkpt>
      <trkpt lat="49.45606" lon="0.22153">
        <ele>3.5</ele>
        <time>2020-06-17T16:32:55Z</time>
      </trkpt>
      <trkpt lat="49.45605" lon="0.22149">
        <ele>3.5</ele>
        <time>2020-06-17T16:32:56Z</time>
      </trkpt>
      <trkpt lat="49.45605" lon="0.22144">
        <ele>3.5</ele>
        <time>2020-06-17T16:32:57Z</time>
      </trkpt>
      <trkpt lat="49.45605" lon="0.22142">
        <ele>3.5</ele>
        <time>2020-06-17T16:32:58Z</time>
      </trkpt>
      <trkpt lat="49.45604" lon="0.22136">
        <ele>3.5</ele>
        <time>2020-06-17T16:32:59Z</time>
      </trkpt>
      <trkpt lat="49.45604" lon="0.22134">
        <ele>3.5</ele>
        <time>2020-06-17T16:33:00Z</time>
      </trkpt>
      <trkpt lat="49.45604" lon="0.22127">
        <ele>3.5</ele>
        <time>2020-06-17T16:33:01Z</time>
      </trkpt>
      <trkpt lat="49.45604" lon="0.22121">
        <ele>3.5</ele>
        <time>2020-06-17T16:33:02Z</time>
      </trkpt>
      <trkpt lat="49.45603" lon="0.22115">
        <ele>3.5</ele>
        <time>2020-06-17T16:33:03Z</time>
      </trkpt>
      <trkpt lat="49.45603" lon="0.22109">
        <ele>3.5</ele>
        <time>2020-06-17T16:33:04Z</time>
      </trkpt>
      <trkpt lat="49.45603" lon="0.22103">
        <ele>3.6</ele>
        <time>2020-06-17T16:33:05Z</time>
      </trkpt>
      <trkpt lat="49.45601" lon="0.22099">
        <ele>3.6</ele>
        <time>2020-06-17T16:33:06Z</time>
      </trkpt>
      <trkpt lat="49.456" lon="0.22092">
        <ele>3.6</ele>
        <time>2020-06-17T16:33:07Z</time>
      </trkpt>
      <trkpt lat="49.45598" lon="0.22087">
        <ele>3.6</ele>
        <time>2020-06-17T16:33:08Z</time>
      </trkpt>
      <trkpt lat="49.45597" lon="0.22079">
        <ele>3.6</ele>
        <time>2020-06-17T16:33:09Z</time>
      </trkpt>
      <trkpt lat="49.45597" lon="0.2207">
        <ele>3.6</ele>
        <time>2020-06-17T16:33:10Z</time>
      </trkpt>
      <trkpt lat="49.45597" lon="0.22062">
        <ele>3.6</ele>
        <time>2020-06-17T16:33:11Z</time>
      </trkpt>
      <trkpt lat="49.45597" lon="0.22056">
        <ele>3.7</ele>
        <time>2020-06-17T16:33:12Z</time>
      </trkpt>
      <trkpt lat="49.45597" lon="0.22048">
        <ele>3.7</ele>
        <time>2020-06-17T16:33:13Z</time>
      </trkpt>
      <trkpt lat="49.45596" lon="0.22041">
        <ele>3.7</ele>
        <time>2020-06-17T16:33:14Z</time>
      </trkpt>
      <trkpt lat="49.45595" lon="0.22033">
        <ele>3.7</ele>
        <time>2020-06-17T16:33:15Z</time>
      </trkpt>
      <trkpt lat="49.45595" lon="0.22025">
        <ele>3.7</ele>
        <time>2020-06-17T16:33:16Z</time>
      </trkpt>
      <trkpt lat="49.45594" lon="0.22018">
        <ele>3.7</ele>
        <time>2020-06-17T16:33:17Z</time>
      </trkpt>
      <trkpt lat="49.45593" lon="0.22011">
        <ele>3.7</ele>
        <time>2020-06-17T16:33:18Z</time>
      </trkpt>
      <trkpt lat="49.45593" lon="0.22004">
        <ele>3.8</ele>
        <time>2020-06-17T16:33:19Z</time>
      </trkpt>
      <trkpt lat="49.45592" lon="0.21996">
        <ele>3.8</ele>
        <time>2020-06-17T16:33:20Z</time>
      </trkpt>
      <trkpt lat="49.45591" lon="0.21987">
        <ele>3.8</ele>
        <time>2020-06-17T16:33:21Z</time>
      </trkpt>
      <trkpt lat="49.45591" lon="0.21979">
        <ele>3.8</ele>
        <time>2020-06-17T16:33:22Z</time>
      </trkpt>
      <trkpt lat="49.4559" lon="0.2197">
        <ele>3.8</ele>
        <time>2020-06-17T16:33:23Z</time>
      </trkpt>
      <trkpt lat="49.4559" lon="0.21961">
        <ele>3.8</ele>
        <time>2020-06-17T16:33:24Z</time>
      </trkpt>
      <trkpt lat="49.4559" lon="0.21952">
        <ele>3.9</ele>
        <time>2020-06-17T16:33:25Z</time>
      </trkpt>
      <trkpt lat="49.4559" lon="0.21944">
        <ele>3.9</ele>
        <time>2020-06-17T16:33:26Z</time>
      </trkpt>
      <trkpt lat="49.4559" lon="0.21936">
        <ele>3.9</ele>
        <time>2020-06-17T16:33:27Z</time>
      </trkpt>
      <trkpt lat="49.4559" lon="0.21927">
        <ele>3.9</ele>
        <time>2020-06-17T16:33:28Z</time>
      </trkpt>
      <trkpt lat="49.45591" lon="0.2192">
        <ele>3.9</ele>
        <time>2020-06-17T16:33:29Z</time>
      </trkpt>
      <trkpt lat="49.45591" lon="0.21912">
        <ele>3.9</ele>
        <time>2020-06-17T16:33:30Z</time>
      </trkpt>
      <trkpt lat="49.45591" lon="0.21903">
        <ele>4</ele>
        <time>2020-06-17T16:33:31Z</time>
      </trkpt>
      <trkpt lat="49.45591" lon="0.21897">
        <ele>4</ele>
        <time>2020-06-17T16:33:32Z</time>
      </trkpt>
      <trkpt lat="49.4559" lon="0.21889">
        <ele>4</ele>
        <time>2020-06-17T16:33:33Z</time>
      </trkpt>
      <trkpt lat="49.45589" lon="0.21881">
        <ele>4</ele>
        <time>2020-06-17T16:33:34Z</time>
      </trkpt>
      <trkpt lat="49.45589" lon="0.21873">
        <ele>4</ele>
        <time>2020-06-17T16:33:35Z</time>
      </trkpt>
      <trkpt lat="49.45589" lon="0.21865">
        <ele>4</ele>
        <time>2020-06-17T16:33:36Z</time>
      </trkpt>
      <trkpt lat="49.45589" lon="0.21858">
        <ele>4</ele>
        <time>2020-06-17T16:33:37Z</time>
      </trkpt>
      <trkpt lat="49.45589" lon="0.21851">
        <ele>4.1</ele>
        <time>2020-06-17T16:33:38Z</time>
      </trkpt>
      <trkpt lat="49.45589" lon="0.21843">
        <ele>4.1</ele>
        <time>2020-06-17T16:33:39Z</time>
      </trkpt>
      <trkpt lat="49.45589" lon="0.21835">
        <ele>4.1</ele>
        <time>2020-06-17T16:33:40Z</time>
      </trkpt>
      <trkpt lat="49.45588" lon="0.21828">
        <ele>4.1</ele>
        <time>2020-06-17T16:33:41Z</time>
      </trkpt>
      <trkpt lat="49.45588" lon="0.21819">
        <ele>4.1</ele>
        <time>2020-06-17T16:33:42Z</time>
      </trkpt>
      <trkpt lat="49.45588" lon="0.21812">
        <ele>4.1</ele>
        <time>2020-06-17T16:33:43Z</time>
      </trkpt>
      <trkpt lat="49.45588" lon="0.21805">
        <ele>4.1</ele>
        <time>2020-06-17T16:33:44Z</time>
      </trkpt>
      <trkpt lat="49.45588" lon="0.21798">
        <ele>4.2</ele>
        <time>2020-06-17T16:33:45Z</time>
      </trkpt>
      <trkpt lat="49.45587" lon="0.2179">
        <ele>4.2</ele>
        <time>2020-06-17T16:33:46Z</time>
      </trkpt>
      <trkpt lat="49.45587" lon="0.21783">
        <ele>4.2</ele>
        <time>2020-06-17T16:33:47Z</time>
      </trkpt>
      <trkpt lat="49.45587" lon="0.21774">
        <ele>4.2</ele>
        <time>2020-06-17T16:33:48Z</time>
      </trkpt>
      <trkpt lat="49.45586" lon="0.21766">
        <ele>4.2</ele>
        <time>2020-06-17T16:33:49Z</time>
      </trkpt>
      <trkpt lat="49.45585" lon="0.21758">
        <ele>4.2</ele>
        <time>2020-06-17T16:33:50Z</time>
      </trkpt>
      <trkpt lat="49.45586" lon="0.2175">
        <ele>4.3</ele>
        <time>2020-06-17T16:33:51Z</time>
      </trkpt>
      <trkpt lat="49.45585" lon="0.21742">
        <ele>4.3</ele>
        <time>2020-06-17T16:33:52Z</time>
      </trkpt>
      <trkpt lat="49.45585" lon="0.21733">
        <ele>4.3</ele>
        <time>2020-06-17T16:33:53Z</time>
      </trkpt>
      <trkpt lat="49.45584" lon="0.21725">
        <ele>4.3</ele>
        <time>2020-06-17T16:33:54Z</time>
      </trkpt>
      <trkpt lat="49.45583" lon="0.21717">
        <ele>4.3</ele>
        <time>2020-06-17T16:33:55Z</time>
      </trkpt>
      <trkpt lat="49.45584" lon="0.21712">
        <ele>4.3</ele>
        <time>2020-06-17T16:33:56Z</time>
      </trkpt>
      <trkpt lat="49.45583" lon="0.21704">
        <ele>4.2</ele>
        <time>2020-06-17T16:33:57Z</time>
      </trkpt>
      <trkpt lat="49.45583" lon="0.21695">
        <ele>4.2</ele>
        <time>2020-06-17T16:33:58Z</time>
      </trkpt>
      <trkpt lat="49.45582" lon="0.21688">
        <ele>4.1</ele>
        <time>2020-06-17T16:33:59Z</time>
      </trkpt>
      <trkpt lat="49.45582" lon="0.21681">
        <ele>4.1</ele>
        <time>2020-06-17T16:34:00Z</time>
      </trkpt>
      <trkpt lat="49.45581" lon="0.21674">
        <ele>4</ele>
        <time>2020-06-17T16:34:01Z</time>
      </trkpt>
      <trkpt lat="49.45581" lon="0.21667">
        <ele>4</ele>
        <time>2020-06-17T16:34:02Z</time>
      </trkpt>
      <trkpt lat="49.45581" lon="0.21659">
        <ele>3.9</ele>
        <time>2020-06-17T16:34:03Z</time>
      </trkpt>
      <trkpt lat="49.45579" lon="0.21653">
        <ele>3.9</ele>
        <time>2020-06-17T16:34:04Z</time>
      </trkpt>
      <trkpt lat="49.4558" lon="0.21647">
        <ele>3.8</ele>
        <time>2020-06-17T16:34:05Z</time>
      </trkpt>
      <trkpt lat="49.45579" lon="0.2164">
        <ele>3.8</ele>
        <time>2020-06-17T16:34:06Z</time>
      </trkpt>
      <trkpt lat="49.45579" lon="0.21634">
        <ele>3.7</ele>
        <time>2020-06-17T16:34:07Z</time>
      </trkpt>
      <trkpt lat="49.45579" lon="0.21628">
        <ele>3.7</ele>
        <time>2020-06-17T16:34:08Z</time>
      </trkpt>
      <trkpt lat="49.45579" lon="0.21622">
        <ele>3.6</ele>
        <time>2020-06-17T16:34:09Z</time>
      </trkpt>
      <trkpt lat="49.45578" lon="0.21616">
        <ele>3.6</ele>
        <time>2020-06-17T16:34:10Z</time>
      </trkpt>
      <trkpt lat="49.45578" lon="0.2161">
        <ele>3.5</ele>
        <time>2020-06-17T16:34:11Z</time>
      </trkpt>
      <trkpt lat="49.45579" lon="0.21603">
        <ele>3.5</ele>
        <time>2020-06-17T16:34:12Z</time>
      </trkpt>
      <trkpt lat="49.45579" lon="0.21597">
        <ele>3.5</ele>
        <time>2020-06-17T16:34:13Z</time>
      </trkpt>
      <trkpt lat="49.4558" lon="0.21591">
        <ele>3.4</ele>
        <time>2020-06-17T16:34:14Z</time>
      </trkpt>
      <trkpt lat="49.4558" lon="0.21586">
        <ele>3.4</ele>
        <time>2020-06-17T16:34:15Z</time>
      </trkpt>
      <trkpt lat="49.45579" lon="0.21581">
        <ele>3.3</ele>
        <time>2020-06-17T16:34:16Z</time>
      </trkpt>
      <trkpt lat="49.45579" lon="0.21576">
        <ele>3.3</ele>
        <time>2020-06-17T16:34:17Z</time>
      </trkpt>
      <trkpt lat="49.45578" lon="0.21571">
        <ele>3.3</ele>
        <time>2020-06-17T16:34:18Z</time>
      </trkpt>
      <trkpt lat="49.45578" lon="0.21566">
        <ele>3.2</ele>
        <time>2020-06-17T16:34:19Z</time>
      </trkpt>
      <trkpt lat="49.45578" lon="0.21561">
        <ele>3.2</ele>
        <time>2020-06-17T16:34:20Z</time>
      </trkpt>
      <trkpt lat="49.45579" lon="0.21554">
        <ele>3.1</ele>
        <time>2020-06-17T16:34:21Z</time>
      </trkpt>
      <trkpt lat="49.45579" lon="0.21548">
        <ele>3.1</ele>
        <time>2020-06-17T16:34:22Z</time>
      </trkpt>
      <trkpt lat="49.45579" lon="0.21542">
        <ele>3.1</ele>
        <time>2020-06-17T16:34:23Z</time>
      </trkpt>
      <trkpt lat="49.4558" lon="0.21534">
        <ele>3</ele>
        <time>2020-06-17T16:34:24Z</time>
      </trkpt>
      <trkpt lat="49.45581" lon="0.21529">
        <ele>3</ele>
        <time>2020-06-17T16:34:25Z</time>
      </trkpt>
      <trkpt lat="49.4558" lon="0.21523">
        <ele>2.9</ele>
        <time>2020-06-17T16:34:26Z</time>
      </trkpt>
      <trkpt lat="49.4558" lon="0.21518">
        <ele>2.9</ele>
        <time>2020-06-17T16:34:27Z</time>
      </trkpt>
      <trkpt lat="49.4558" lon="0.21512">
        <ele>2.9</ele>
        <time>2020-06-17T16:34:28Z</time>
      </trkpt>
      <trkpt lat="49.4558" lon="0.21506">
        <ele>2.8</ele>
        <time>2020-06-17T16:34:29Z</time>
      </trkpt>
      <trkpt lat="49.45579" lon="0.215">
        <ele>2.8</ele>
        <time>2020-06-17T16:34:30Z</time>
      </trkpt>
      <trkpt lat="49.45579" lon="0.21495">
        <ele>2.7</ele>
        <time>2020-06-17T16:34:31Z</time>
      </trkpt>
      <trkpt lat="49.45579" lon="0.21489">
        <ele>2.7</ele>
        <time>2020-06-17T16:34:32Z</time>
      </trkpt>
      <trkpt lat="49.45579" lon="0.21484">
        <ele>2.6</ele>
        <time>2020-06-17T16:34:33Z</time>
      </trkpt>
      <trkpt lat="49.45578" lon="0.21479">
        <ele>2.6</ele>
        <time>2020-06-17T16:34:34Z</time>
      </trkpt>
      <trkpt lat="49.45578" lon="0.21475">
        <ele>2.6</ele>
        <time>2020-06-17T16:34:35Z</time>
      </trkpt>
      <trkpt lat="49.45577" lon="0.2147">
        <ele>2.5</ele>
        <time>2020-06-17T16:34:36Z</time>
      </trkpt>
      <trkpt lat="49.45577" lon="0.21464">
        <ele>2.5</ele>
        <time>2020-06-17T16:34:37Z</time>
      </trkpt>
      <trkpt lat="49.45577" lon="0.21458">
        <ele>2.5</ele>
        <time>2020-06-17T16:34:38Z</time>
      </trkpt>
      <trkpt lat="49.45575" lon="0.21452">
        <ele>2.4</ele>
        <time>2020-06-17T16:34:39Z</time>
      </trkpt>
      <trkpt lat="49.45575" lon="0.21446">
        <ele>2.4</ele>
        <time>2020-06-17T16:34:40Z</time>
      </trkpt>
      <trkpt lat="49.45575" lon="0.2144">
        <ele>2.3</ele>
        <time>2020-06-17T16:34:41Z</time>
      </trkpt>
      <trkpt lat="49.45575" lon="0.21435">
        <ele>2.3</ele>
        <time>2020-06-17T16:34:42Z</time>
      </trkpt>
      <trkpt lat="49.45574" lon="0.2143">
        <ele>2.3</ele>
        <time>2020-06-17T16:34:43Z</time>
      </trkpt>
      <trkpt lat="49.45573" lon="0.21423">
        <ele>2.2</ele>
        <time>2020-06-17T16:34:44Z</time>
      </trkpt>
      <trkpt lat="49.45573" lon="0.21416">
        <ele>2.2</ele>
        <time>2020-06-17T16:34:45Z</time>
      </trkpt>
      <trkpt lat="49.45572" lon="0.21411">
        <ele>2.1</ele>
        <time>2020-06-17T16:34:46Z</time>
      </trkpt>
      <trkpt lat="49.45571" lon="0.21405">
        <ele>2.1</ele>
        <time>2020-06-17T16:34:47Z</time>
      </trkpt>
      <trkpt lat="49.45571" lon="0.214">
        <ele>2</ele>
        <time>2020-06-17T16:34:48Z</time>
      </trkpt>
      <trkpt lat="49.45571" lon="0.21395">
        <ele>2</ele>
        <time>2020-06-17T16:34:49Z</time>
      </trkpt>
      <trkpt lat="49.45572" lon="0.21389">
        <ele>2</ele>
        <time>2020-06-17T16:34:50Z</time>
      </trkpt>
      <trkpt lat="49.45573" lon="0.21383">
        <ele>1.9</ele>
        <time>2020-06-17T16:34:51Z</time>
      </trkpt>
      <trkpt lat="49.45574" lon="0.21377">
        <ele>1.9</ele>
        <time>2020-06-17T16:34:52Z</time>
      </trkpt>
      <trkpt lat="49.45575" lon="0.21372">
        <ele>1.9</ele>
        <time>2020-06-17T16:34:53Z</time>
      </trkpt>
      <trkpt lat="49.45575" lon="0.21367">
        <ele>1.9</ele>
        <time>2020-06-17T16:34:54Z</time>
      </trkpt>
      <trkpt lat="49.45575" lon="0.21362">
        <ele>1.9</ele>
        <time>2020-06-17T16:34:55Z</time>
      </trkpt>
      <trkpt lat="49.45576" lon="0.21358">
        <ele>1.9</ele>
        <time>2020-06-17T16:34:56Z</time>
      </trkpt>
      <trkpt lat="49.45578" lon="0.21353">
        <ele>2</ele>
        <time>2020-06-17T16:34:57Z</time>
      </trkpt>
      <trkpt lat="49.4558" lon="0.2135">
        <ele>2</ele>
        <time>2020-06-17T16:34:58Z</time>
      </trkpt>
      <trkpt lat="49.45583" lon="0.21349">
        <ele>2</ele>
        <time>2020-06-17T16:34:59Z</time>
      </trkpt>
      <trkpt lat="49.45586" lon="0.21348">
        <ele>2</ele>
        <time>2020-06-17T16:35:00Z</time>
      </trkpt>
      <trkpt lat="49.4559" lon="0.21348">
        <ele>2.1</ele>
        <time>2020-06-17T16:35:01Z</time>
      </trkpt>
      <trkpt lat="49.45593" lon="0.21347">
        <ele>2.1</ele>
        <time>2020-06-17T16:35:02Z</time>
      </trkpt>
      <trkpt lat="49.45598" lon="0.21347">
        <ele>2.1</ele>
        <time>2020-06-17T16:35:03Z</time>
      </trkpt>
      <trkpt lat="49.45603" lon="0.21347">
        <ele>2.2</ele>
        <time>2020-06-17T16:35:04Z</time>
      </trkpt>
      <trkpt lat="49.45607" lon="0.21347">
        <ele>2.2</ele>
        <time>2020-06-17T16:35:05Z</time>
      </trkpt>
      <trkpt lat="49.45611" lon="0.21349">
        <ele>2.2</ele>
        <time>2020-06-17T16:35:06Z</time>
      </trkpt>
      <trkpt lat="49.45615" lon="0.2135">
        <ele>2.3</ele>
        <time>2020-06-17T16:35:07Z</time>
      </trkpt>
      <trkpt lat="49.4562" lon="0.21351">
        <ele>2.3</ele>
        <time>2020-06-17T16:35:08Z</time>
      </trkpt>
      <trkpt lat="49.45624" lon="0.21351">
        <ele>2.3</ele>
        <time>2020-06-17T16:35:09Z</time>
      </trkpt>
      <trkpt lat="49.45629" lon="0.21351">
        <ele>2.4</ele>
        <time>2020-06-17T16:35:10Z</time>
      </trkpt>
      <trkpt lat="49.45632" lon="0.21351">
        <ele>2.4</ele>
        <time>2020-06-17T16:35:11Z</time>
      </trkpt>
      <trkpt lat="49.45637" lon="0.2135">
        <ele>2.4</ele>
        <time>2020-06-17T16:35:12Z</time>
      </trkpt>
      <trkpt lat="49.45642" lon="0.21349">
        <ele>2.5</ele>
        <time>2020-06-17T16:35:13Z</time>
      </trkpt>
      <trkpt lat="49.45645" lon="0.21349">
        <ele>2.5</ele>
        <time>2020-06-17T16:35:14Z</time>
      </trkpt>
      <trkpt lat="49.45649" lon="0.2135">
        <ele>2.5</ele>
        <time>2020-06-17T16:35:15Z</time>
      </trkpt>
      <trkpt lat="49.45653" lon="0.21349">
        <ele>2.6</ele>
        <time>2020-06-17T16:35:16Z</time>
      </trkpt>
      <trkpt lat="49.45657" lon="0.21348">
        <ele>2.6</ele>
        <time>2020-06-17T16:35:17Z</time>
      </trkpt>
      <trkpt lat="49.4566" lon="0.21346">
        <ele>2.6</ele>
        <time>2020-06-17T16:35:18Z</time>
      </trkpt>
      <trkpt lat="49.45663" lon="0.21346">
        <ele>2.6</ele>
        <time>2020-06-17T16:35:19Z</time>
      </trkpt>
      <trkpt lat="49.45666" lon="0.21343">
        <ele>2.7</ele>
        <time>2020-06-17T16:35:20Z</time>
      </trkpt>
      <trkpt lat="49.4567" lon="0.21342">
        <ele>2.7</ele>
        <time>2020-06-17T16:35:21Z</time>
      </trkpt>
      <trkpt lat="49.45672" lon="0.21338">
        <ele>2.7</ele>
        <time>2020-06-17T16:35:22Z</time>
      </trkpt>
      <trkpt lat="49.45675" lon="0.21335">
        <ele>2.8</ele>
        <time>2020-06-17T16:35:23Z</time>
      </trkpt>
      <trkpt lat="49.45676" lon="0.21331">
        <ele>2.8</ele>
        <time>2020-06-17T16:35:24Z</time>
      </trkpt>
      <trkpt lat="49.45677" lon="0.21326">
        <ele>2.8</ele>
        <time>2020-06-17T16:35:25Z</time>
      </trkpt>
      <trkpt lat="49.45677" lon="0.2132">
        <ele>2.8</ele>
        <time>2020-06-17T16:35:26Z</time>
      </trkpt>
      <trkpt lat="49.45678" lon="0.21315">
        <ele>2.9</ele>
        <time>2020-06-17T16:35:27Z</time>
      </trkpt>
      <trkpt lat="49.45678" lon="0.21309">
        <ele>2.9</ele>
        <time>2020-06-17T16:35:28Z</time>
      </trkpt>
      <trkpt lat="49.45677" lon="0.21304">
        <ele>2.9</ele>
        <time>2020-06-17T16:35:29Z</time>
      </trkpt>
      <trkpt lat="49.45677" lon="0.21298">
        <ele>3</ele>
        <time>2020-06-17T16:35:30Z</time>
      </trkpt>
      <trkpt lat="49.45677" lon="0.21292">
        <ele>3</ele>
        <time>2020-06-17T16:35:31Z</time>
      </trkpt>
      <trkpt lat="49.45676" lon="0.21284">
        <ele>3</ele>
        <time>2020-06-17T16:35:32Z</time>
      </trkpt>
      <trkpt lat="49.45676" lon="0.21278">
        <ele>3.1</ele>
        <time>2020-06-17T16:35:33Z</time>
      </trkpt>
      <trkpt lat="49.45676" lon="0.21272">
        <ele>3.1</ele>
        <time>2020-06-17T16:35:34Z</time>
      </trkpt>
      <trkpt lat="49.45676" lon="0.21266">
        <ele>3.1</ele>
        <time>2020-06-17T16:35:35Z</time>
      </trkpt>
      <trkpt lat="49.45676" lon="0.2126">
        <ele>3.1</ele>
        <time>2020-06-17T16:35:36Z</time>
      </trkpt>
      <trkpt lat="49.45676" lon="0.21254">
        <ele>3.2</ele>
        <time>2020-06-17T16:35:37Z</time>
      </trkpt>
      <trkpt lat="49.45676" lon="0.21249">
        <ele>3.2</ele>
        <time>2020-06-17T16:35:38Z</time>
      </trkpt>
      <trkpt lat="49.45677" lon="0.21244">
        <ele>3.2</ele>
        <time>2020-06-17T16:35:39Z</time>
      </trkpt>
      <trkpt lat="49.45677" lon="0.21238">
        <ele>3.3</ele>
        <time>2020-06-17T16:35:40Z</time>
      </trkpt>
      <trkpt lat="49.45677" lon="0.21232">
        <ele>3.3</ele>
        <time>2020-06-17T16:35:41Z</time>
      </trkpt>
      <trkpt lat="49.45677" lon="0.21227">
        <ele>3.3</ele>
        <time>2020-06-17T16:35:42Z</time>
      </trkpt>
      <trkpt lat="49.45677" lon="0.21222">
        <ele>3.3</ele>
        <time>2020-06-17T16:35:43Z</time>
      </trkpt>
      <trkpt lat="49.45678" lon="0.21216">
        <ele>3.4</ele>
        <time>2020-06-17T16:35:44Z</time>
      </trkpt>
      <trkpt lat="49.45678" lon="0.21212">
        <ele>3.4</ele>
        <time>2020-06-17T16:35:45Z</time>
      </trkpt>
      <trkpt lat="49.45678" lon="0.21206">
        <ele>3.4</ele>
        <time>2020-06-17T16:35:46Z</time>
      </trkpt>
      <trkpt lat="49.45679" lon="0.212">
        <ele>3.5</ele>
        <time>2020-06-17T16:35:47Z</time>
      </trkpt>
      <trkpt lat="49.45679" lon="0.21197">
        <ele>3.5</ele>
        <time>2020-06-17T16:35:48Z</time>
      </trkpt>
      <trkpt lat="49.45679" lon="0.21193">
        <ele>3.5</ele>
        <time>2020-06-17T16:35:49Z</time>
      </trkpt>
      <trkpt lat="49.4568" lon="0.21186">
        <ele>3.5</ele>
        <time>2020-06-17T16:35:50Z</time>
      </trkpt>
      <trkpt lat="49.4568" lon="0.21183">
        <ele>3.5</ele>
        <time>2020-06-17T16:35:51Z</time>
      </trkpt>
      <trkpt lat="49.45681" lon="0.21178">
        <ele>3.6</ele>
        <time>2020-06-17T16:35:52Z</time>
      </trkpt>
      <trkpt lat="49.4568" lon="0.21173">
        <ele>3.6</ele>
        <time>2020-06-17T16:35:53Z</time>
      </trkpt>
      <trkpt lat="49.45681" lon="0.21168">
        <ele>3.6</ele>
        <time>2020-06-17T16:35:54Z</time>
      </trkpt>
      <trkpt lat="49.45682" lon="0.21162">
        <ele>3.7</ele>
        <time>2020-06-17T16:35:55Z</time>
      </trkpt>
      <trkpt lat="49.45683" lon="0.21156">
        <ele>3.7</ele>
        <time>2020-06-17T16:35:56Z</time>
      </trkpt>
      <trkpt lat="49.45684" lon="0.21149">
        <ele>3.7</ele>
        <time>2020-06-17T16:35:57Z</time>
      </trkpt>
      <trkpt lat="49.45684" lon="0.21144">
        <ele>3.8</ele>
        <time>2020-06-17T16:35:58Z</time>
      </trkpt>
      <trkpt lat="49.45685" lon="0.21138">
        <ele>3.8</ele>
        <time>2020-06-17T16:35:59Z</time>
      </trkpt>
      <trkpt lat="49.45686" lon="0.21132">
        <ele>3.8</ele>
        <time>2020-06-17T16:36:00Z</time>
      </trkpt>
      <trkpt lat="49.45686" lon="0.21126">
        <ele>3.8</ele>
        <time>2020-06-17T16:36:01Z</time>
      </trkpt>
      <trkpt lat="49.45686" lon="0.2112">
        <ele>3.9</ele>
        <time>2020-06-17T16:36:02Z</time>
      </trkpt>
      <trkpt lat="49.45686" lon="0.21115">
        <ele>3.9</ele>
        <time>2020-06-17T16:36:03Z</time>
      </trkpt>
      <trkpt lat="49.45687" lon="0.2111">
        <ele>3.9</ele>
        <time>2020-06-17T16:36:04Z</time>
      </trkpt>
      <trkpt lat="49.45687" lon="0.21105">
        <ele>4</ele>
        <time>2020-06-17T16:36:05Z</time>
      </trkpt>
      <trkpt lat="49.45687" lon="0.21101">
        <ele>4</ele>
        <time>2020-06-17T16:36:06Z</time>
      </trkpt>
      <trkpt lat="49.45687" lon="0.21096">
        <ele>4</ele>
        <time>2020-06-17T16:36:07Z</time>
      </trkpt>
      <trkpt lat="49.45688" lon="0.2109">
        <ele>4</ele>
        <time>2020-06-17T16:36:08Z</time>
      </trkpt>
      <trkpt lat="49.45688" lon="0.21085">
        <ele>4.1</ele>
        <time>2020-06-17T16:36:09Z</time>
      </trkpt>
      <trkpt lat="49.45689" lon="0.2108">
        <ele>4.1</ele>
        <time>2020-06-17T16:36:10Z</time>
      </trkpt>
      <trkpt lat="49.45689" lon="0.21075">
        <ele>4.1</ele>
        <time>2020-06-17T16:36:11Z</time>
      </trkpt>
      <trkpt lat="49.45689" lon="0.21069">
        <ele>4.1</ele>
        <time>2020-06-17T16:36:12Z</time>
      </trkpt>
      <trkpt lat="49.4569" lon="0.21064">
        <ele>4.2</ele>
        <time>2020-06-17T16:36:13Z</time>
      </trkpt>
      <trkpt lat="49.45691" lon="0.21059">
        <ele>4.2</ele>
        <time>2020-06-17T16:36:14Z</time>
      </trkpt>
      <trkpt lat="49.45691" lon="0.21054">
        <ele>4.2</ele>
        <time>2020-06-17T16:36:15Z</time>
      </trkpt>
      <trkpt lat="49.45691" lon="0.21048">
        <ele>4.3</ele>
        <time>2020-06-17T16:36:16Z</time>
      </trkpt>
      <trkpt lat="49.45691" lon="0.21043">
        <ele>4.3</ele>
        <time>2020-06-17T16:36:17Z</time>
      </trkpt>
      <trkpt lat="49.45693" lon="0.21037">
        <ele>4.3</ele>
        <time>2020-06-17T16:36:18Z</time>
      </trkpt>
      <trkpt lat="49.45694" lon="0.21031">
        <ele>4.3</ele>
        <time>2020-06-17T16:36:19Z</time>
      </trkpt>
      <trkpt lat="49.45694" lon="0.21025">
        <ele>4.4</ele>
        <time>2020-06-17T16:36:20Z</time>
      </trkpt>
      <trkpt lat="49.45695" lon="0.21018">
        <ele>4.4</ele>
        <time>2020-06-17T16:36:21Z</time>
      </trkpt>
      <trkpt lat="49.45696" lon="0.21013">
        <ele>4.4</ele>
        <time>2020-06-17T16:36:22Z</time>
      </trkpt>
      <trkpt lat="49.45695" lon="0.21007">
        <ele>4.5</ele>
        <time>2020-06-17T16:36:23Z</time>
      </trkpt>
      <trkpt lat="49.45696" lon="0.21001">
        <ele>4.5</ele>
        <time>2020-06-17T16:36:24Z</time>
      </trkpt>
      <trkpt lat="49.45696" lon="0.20996">
        <ele>4.5</ele>
        <time>2020-06-17T16:36:25Z</time>
      </trkpt>
      <trkpt lat="49.45695" lon="0.2099">
        <ele>4.6</ele>
        <time>2020-06-17T16:36:26Z</time>
      </trkpt>
      <trkpt lat="49.45696" lon="0.20984">
        <ele>4.6</ele>
        <time>2020-06-17T16:36:27Z</time>
      </trkpt>
      <trkpt lat="49.45696" lon="0.20978">
        <ele>4.6</ele>
        <time>2020-06-17T16:36:28Z</time>
      </trkpt>
      <trkpt lat="49.45696" lon="0.20973">
        <ele>4.6</ele>
        <time>2020-06-17T16:36:29Z</time>
      </trkpt>
      <trkpt lat="49.45696" lon="0.20967">
        <ele>4.7</ele>
        <time>2020-06-17T16:36:30Z</time>
      </trkpt>
      <trkpt lat="49.45697" lon="0.20962">
        <ele>4.7</ele>
        <time>2020-06-17T16:36:31Z</time>
      </trkpt>
      <trkpt lat="49.45697" lon="0.20956">
        <ele>4.7</ele>
        <time>2020-06-17T16:36:32Z</time>
      </trkpt>
      <trkpt lat="49.45698" lon="0.2095">
        <ele>4.8</ele>
        <time>2020-06-17T16:36:33Z</time>
      </trkpt>
      <trkpt lat="49.45699" lon="0.20945">
        <ele>4.8</ele>
        <time>2020-06-17T16:36:34Z</time>
      </trkpt>
      <trkpt lat="49.45699" lon="0.20939">
        <ele>4.8</ele>
        <time>2020-06-17T16:36:35Z</time>
      </trkpt>
      <trkpt lat="49.457" lon="0.20933">
        <ele>4.9</ele>
        <time>2020-06-17T16:36:36Z</time>
      </trkpt>
      <trkpt lat="49.457" lon="0.20927">
        <ele>4.9</ele>
        <time>2020-06-17T16:36:37Z</time>
      </trkpt>
      <trkpt lat="49.45701" lon="0.2092">
        <ele>4.9</ele>
        <time>2020-06-17T16:36:38Z</time>
      </trkpt>
      <trkpt lat="49.45701" lon="0.20914">
        <ele>5</ele>
        <time>2020-06-17T16:36:39Z</time>
      </trkpt>
      <trkpt lat="49.45701" lon="0.20909">
        <ele>5</ele>
        <time>2020-06-17T16:36:40Z</time>
      </trkpt>
      <trkpt lat="49.45701" lon="0.20904">
        <ele>5</ele>
        <time>2020-06-17T16:36:41Z</time>
      </trkpt>
      <trkpt lat="49.45702" lon="0.20898">
        <ele>5</ele>
        <time>2020-06-17T16:36:42Z</time>
      </trkpt>
      <trkpt lat="49.45702" lon="0.20894">
        <ele>5.1</ele>
        <time>2020-06-17T16:36:43Z</time>
      </trkpt>
      <trkpt lat="49.45703" lon="0.20889">
        <ele>5.1</ele>
        <time>2020-06-17T16:36:44Z</time>
      </trkpt>
      <trkpt lat="49.45704" lon="0.20884">
        <ele>5.1</ele>
        <time>2020-06-17T16:36:45Z</time>
      </trkpt>
      <trkpt lat="49.45704" lon="0.20879">
        <ele>5.1</ele>
        <time>2020-06-17T16:36:46Z</time>
      </trkpt>
      <trkpt lat="49.45705" lon="0.20873">
        <ele>5.2</ele>
        <time>2020-06-17T16:36:47Z</time>
      </trkpt>
      <trkpt lat="49.45705" lon="0.20869">
        <ele>5.2</ele>
        <time>2020-06-17T16:36:48Z</time>
      </trkpt>
      <trkpt lat="49.45705" lon="0.20864">
        <ele>5.2</ele>
        <time>2020-06-17T16:36:49Z</time>
      </trkpt>
      <trkpt lat="49.45705" lon="0.2086">
        <ele>5.2</ele>
        <time>2020-06-17T16:36:50Z</time>
      </trkpt>
      <trkpt lat="49.45705" lon="0.20856">
        <ele>5.3</ele>
        <time>2020-06-17T16:36:51Z</time>
      </trkpt>
      <trkpt lat="49.45706" lon="0.20851">
        <ele>5.3</ele>
        <time>2020-06-17T16:36:52Z</time>
      </trkpt>
      <trkpt lat="49.45706" lon="0.20846">
        <ele>5.3</ele>
        <time>2020-06-17T16:36:53Z</time>
      </trkpt>
      <trkpt lat="49.45708" lon="0.20841">
        <ele>5.3</ele>
        <time>2020-06-17T16:36:54Z</time>
      </trkpt>
      <trkpt lat="49.45709" lon="0.20835">
        <ele>5.4</ele>
        <time>2020-06-17T16:36:55Z</time>
      </trkpt>
      <trkpt lat="49.4571" lon="0.20829">
        <ele>5.4</ele>
        <time>2020-06-17T16:36:56Z</time>
      </trkpt>
      <trkpt lat="49.45711" lon="0.20823">
        <ele>5.4</ele>
        <time>2020-06-17T16:36:57Z</time>
      </trkpt>
      <trkpt lat="49.45711" lon="0.20818">
        <ele>5.5</ele>
        <time>2020-06-17T16:36:58Z</time>
      </trkpt>
      <trkpt lat="49.45711" lon="0.20813">
        <ele>5.5</ele>
        <time>2020-06-17T16:36:59Z</time>
      </trkpt>
      <trkpt lat="49.45712" lon="0.20808">
        <ele>5.5</ele>
        <time>2020-06-17T16:37:00Z</time>
      </trkpt>
      <trkpt lat="49.45713" lon="0.20803">
        <ele>5.5</ele>
        <time>2020-06-17T16:37:01Z</time>
      </trkpt>
      <trkpt lat="49.45713" lon="0.20797">
        <ele>5.6</ele>
        <time>2020-06-17T16:37:02Z</time>
      </trkpt>
      <trkpt lat="49.45714" lon="0.20792">
        <ele>5.6</ele>
        <time>2020-06-17T16:37:03Z</time>
      </trkpt>
      <trkpt lat="49.45714" lon="0.20788">
        <ele>5.6</ele>
        <time>2020-06-17T16:37:04Z</time>
      </trkpt>
      <trkpt lat="49.45716" lon="0.20784">
        <ele>5.6</ele>
        <time>2020-06-17T16:37:05Z</time>
      </trkpt>
      <trkpt lat="49.45717" lon="0.2078">
        <ele>5.7</ele>
        <time>2020-06-17T16:37:06Z</time>
      </trkpt>
      <trkpt lat="49.4572" lon="0.20778">
        <ele>5.7</ele>
        <time>2020-06-17T16:37:07Z</time>
      </trkpt>
      <trkpt lat="49.45722" lon="0.20778">
        <ele>5.7</ele>
        <time>2020-06-17T16:37:08Z</time>
      </trkpt>
      <trkpt lat="49.45724" lon="0.20776">
        <ele>5.7</ele>
        <time>2020-06-17T16:37:09Z</time>
      </trkpt>
      <trkpt lat="49.45727" lon="0.20779">
        <ele>5.7</ele>
        <time>2020-06-17T16:37:10Z</time>
      </trkpt>
      <trkpt lat="49.45729" lon="0.20778">
        <ele>5.8</ele>
        <time>2020-06-17T16:37:11Z</time>
      </trkpt>
      <trkpt lat="49.4573" lon="0.20778">
        <ele>5.8</ele>
        <time>2020-06-17T16:37:12Z</time>
      </trkpt>
      <trkpt lat="49.45732" lon="0.20777">
        <ele>5.8</ele>
        <time>2020-06-17T16:37:13Z</time>
      </trkpt>
      <trkpt lat="49.45734" lon="0.20777">
        <ele>5.8</ele>
        <time>2020-06-17T16:37:14Z</time>
      </trkpt>
      <trkpt lat="49.45736" lon="0.20775">
        <ele>5.8</ele>
        <time>2020-06-17T16:37:15Z</time>
      </trkpt>
      <trkpt lat="49.45737" lon="0.20774">
        <ele>5.8</ele>
        <time>2020-06-17T16:37:16Z</time>
      </trkpt>
      <trkpt lat="49.45738" lon="0.20773">
        <ele>5.8</ele>
        <time>2020-06-17T16:37:17Z</time>
      </trkpt>
      <trkpt lat="49.45739" lon="0.20774">
        <ele>5.8</ele>
        <time>2020-06-17T16:37:18Z</time>
      </trkpt>
      <trkpt lat="49.45739" lon="0.20775">
        <ele>5.8</ele>
        <time>2020-06-17T16:37:19Z</time>
      </trkpt>
      <trkpt lat="49.4574" lon="0.20775">
        <ele>5.7</ele>
        <time>2020-06-17T16:37:20Z</time>
      </trkpt>
      <trkpt lat="49.45739" lon="0.20776">
        <ele>5.7</ele>
        <time>2020-06-17T16:37:21Z</time>
      </trkpt>
      <trkpt lat="49.45739" lon="0.20776">
        <ele>5.7</ele>
        <time>2020-06-17T16:37:22Z</time>
      </trkpt>
      <trkpt lat="49.45739" lon="0.20776">
        <ele>5.6</ele>
        <time>2020-06-17T16:37:23Z</time>
      </trkpt>
      <trkpt lat="49.45739" lon="0.20776">
        <ele>5.6</ele>
        <time>2020-06-17T16:37:24Z</time>
      </trkpt>
      <trkpt lat="49.45741" lon="0.20776">
        <ele>5.6</ele>
        <time>2020-06-17T16:37:25Z</time>
      </trkpt>
      <trkpt lat="49.45742" lon="0.20775">
        <ele>5.6</ele>
        <time>2020-06-17T16:37:26Z</time>
      </trkpt>
      <trkpt lat="49.45743" lon="0.20776">
        <ele>5.6</ele>
        <time>2020-06-17T16:37:27Z</time>
      </trkpt>
      <trkpt lat="49.45744" lon="0.20776">
        <ele>5.5</ele>
        <time>2020-06-17T16:37:28Z</time>
      </trkpt>
      <trkpt lat="49.45743" lon="0.20776">
        <ele>5.5</ele>
        <time>2020-06-17T16:37:29Z</time>
      </trkpt>
      <trkpt lat="49.45743" lon="0.20775">
        <ele>5.5</ele>
        <time>2020-06-17T16:37:30Z</time>
      </trkpt>
      <trkpt lat="49.45743" lon="0.20775">
        <ele>5.4</ele>
        <time>2020-06-17T16:37:31Z</time>
      </trkpt>
      <trkpt lat="49.45743" lon="0.20775">
        <ele>5.4</ele>
        <time>2020-06-17T16:37:32Z</time>
      </trkpt>
      <trkpt lat="49.45743" lon="0.20775">
        <ele>5.4</ele>
        <time>2020-06-17T16:37:33Z</time>
      </trkpt>
      <trkpt lat="49.45743" lon="0.20775">
        <ele>5.3</ele>
        <time>2020-06-17T16:37:34Z</time>
      </trkpt>
      <trkpt lat="49.45743" lon="0.20775">
        <ele>5.3</ele>
        <time>2020-06-17T16:37:35Z</time>
      </trkpt>
      <trkpt lat="49.45743" lon="0.20775">
        <ele>5.3</ele>
        <time>2020-06-17T16:37:36Z</time>
      </trkpt>
      <trkpt lat="49.45743" lon="0.20775">
        <ele>5.3</ele>
        <time>2020-06-17T16:37:37Z</time>
      </trkpt>
      <trkpt lat="49.45743" lon="0.20775">
        <ele>5.2</ele>
        <time>2020-06-17T16:37:38Z</time>
      </trkpt>
      <trkpt lat="49.45744" lon="0.20775">
        <ele>5.2</ele>
        <time>2020-06-17T16:37:39Z</time>
      </trkpt>
      <trkpt lat="49.45748" lon="0.20779">
        <ele>5.2</ele>
        <time>2020-06-17T16:37:45Z</time>
      </trkpt>
      <trkpt lat="49.45749" lon="0.20781">
        <ele>5.2</ele>
        <time>2020-06-17T16:37:46Z</time>
      </trkpt>
      <trkpt lat="49.45749" lon="0.20782">
        <ele>5.2</ele>
        <time>2020-06-17T16:37:47Z</time>
      </trkpt>
      <trkpt lat="49.45749" lon="0.20783">
        <ele>5.1</ele>
        <time>2020-06-17T16:37:48Z</time>
      </trkpt>
      <trkpt lat="49.45749" lon="0.20784">
        <ele>5.1</ele>
        <time>2020-06-17T16:37:49Z</time>
      </trkpt>
      <trkpt lat="49.4575" lon="0.20787">
        <ele>5.1</ele>
        <time>2020-06-17T16:37:50Z</time>
      </trkpt>
      <trkpt lat="49.4575" lon="0.20789">
        <ele>5</ele>
        <time>2020-06-17T16:37:51Z</time>
      </trkpt>
      <trkpt lat="49.45751" lon="0.20791">
        <ele>5</ele>
        <time>2020-06-17T16:37:52Z</time>
      </trkpt>
      <trkpt lat="49.45752" lon="0.20792">
        <ele>5</ele>
        <time>2020-06-17T16:37:53Z</time>
      </trkpt>
      <trkpt lat="49.45754" lon="0.20792">
        <ele>5</ele>
        <time>2020-06-17T16:37:54Z</time>
      </trkpt>
      <trkpt lat="49.45756" lon="0.20791">
        <ele>5</ele>
        <time>2020-06-17T16:37:55Z</time>
      </trkpt>
      <trkpt lat="49.45757" lon="0.20791">
        <ele>5</ele>
        <time>2020-06-17T16:37:56Z</time>
      </trkpt>
      <trkpt lat="49.45757" lon="0.20791">
        <ele>5</ele>
        <time>2020-06-17T16:37:57Z</time>
      </trkpt>
      <trkpt lat="49.45759" lon="0.2079">
        <ele>5</ele>
        <time>2020-06-17T16:37:58Z</time>
      </trkpt>
      <trkpt lat="49.45759" lon="0.2079">
        <ele>5</ele>
        <time>2020-06-17T16:37:59Z</time>
      </trkpt>
      <trkpt lat="49.4576" lon="0.20789">
        <ele>4.9</ele>
        <time>2020-06-17T16:38:00Z</time>
      </trkpt>
      <trkpt lat="49.45761" lon="0.20789">
        <ele>4.9</ele>
        <time>2020-06-17T16:38:01Z</time>
      </trkpt>
      <trkpt lat="49.45761" lon="0.20788">
        <ele>4.9</ele>
        <time>2020-06-17T16:38:02Z</time>
      </trkpt>
      <trkpt lat="49.45761" lon="0.20788">
        <ele>4.9</ele>
        <time>2020-06-17T16:38:03Z</time>
      </trkpt>
      <trkpt lat="49.45761" lon="0.20788">
        <ele>4.9</ele>
        <time>2020-06-17T16:38:04Z</time>
      </trkpt>
      <trkpt lat="49.45761" lon="0.20788">
        <ele>4.8</ele>
        <time>2020-06-17T16:38:05Z</time>
      </trkpt>
      <trkpt lat="49.45761" lon="0.20788">
        <ele>4.8</ele>
        <time>2020-06-17T16:38:06Z</time>
      </trkpt>
      <trkpt lat="49.4576" lon="0.20789">
        <ele>4.7</ele>
        <time>2020-06-17T16:38:07Z</time>
      </trkpt>
      <trkpt lat="49.4576" lon="0.2079">
        <ele>4.7</ele>
        <time>2020-06-17T16:38:08Z</time>
      </trkpt>
      <trkpt lat="49.4576" lon="0.20789">
        <ele>4.7</ele>
        <time>2020-06-17T16:38:09Z</time>
      </trkpt>
      <trkpt lat="49.4576" lon="0.20789">
        <ele>4.6</ele>
        <time>2020-06-17T16:38:10Z</time>
      </trkpt>
      <trkpt lat="49.4576" lon="0.20789">
        <ele>4.6</ele>
        <time>2020-06-17T16:38:11Z</time>
      </trkpt>
      <trkpt lat="49.45765" lon="0.20782">
        <ele>4.7</ele>
        <time>2020-06-17T16:38:16Z</time>
      </trkpt>
      <trkpt lat="49.45766" lon="0.20779">
        <ele>4.7</ele>
        <time>2020-06-17T16:38:17Z</time>
      </trkpt>
      <trkpt lat="49.45766" lon="0.20771">
        <ele>4.7</ele>
        <time>2020-06-17T16:38:18Z</time>
      </trkpt>
      <trkpt lat="49.45765" lon="0.20765">
        <ele>4.8</ele>
        <time>2020-06-17T16:38:19Z</time>
      </trkpt>
      <trkpt lat="49.45765" lon="0.2076">
        <ele>4.8</ele>
        <time>2020-06-17T16:38:20Z</time>
      </trkpt>
      <trkpt lat="49.45764" lon="0.20753">
        <ele>4.7</ele>
        <time>2020-06-17T16:38:21Z</time>
      </trkpt>
      <trkpt lat="49.45762" lon="0.20744">
        <ele>4.7</ele>
        <time>2020-06-17T16:38:22Z</time>
      </trkpt>
      <trkpt lat="49.45761" lon="0.20738">
        <ele>4.7</ele>
        <time>2020-06-17T16:38:23Z</time>
      </trkpt>
      <trkpt lat="49.45759" lon="0.20731">
        <ele>4.7</ele>
        <time>2020-06-17T16:38:24Z</time>
      </trkpt>
      <trkpt lat="49.45758" lon="0.20724">
        <ele>4.8</ele>
        <time>2020-06-17T16:38:25Z</time>
      </trkpt>
      <trkpt lat="49.45756" lon="0.20718">
        <ele>4.8</ele>
        <time>2020-06-17T16:38:26Z</time>
      </trkpt>
      <trkpt lat="49.45755" lon="0.20711">
        <ele>4.8</ele>
        <time>2020-06-17T16:38:27Z</time>
      </trkpt>
      <trkpt lat="49.45754" lon="0.20704">
        <ele>4.9</ele>
        <time>2020-06-17T16:38:28Z</time>
      </trkpt>
      <trkpt lat="49.45752" lon="0.20696">
        <ele>4.9</ele>
        <time>2020-06-17T16:38:29Z</time>
      </trkpt>
      <trkpt lat="49.45751" lon="0.2069">
        <ele>4.9</ele>
        <time>2020-06-17T16:38:30Z</time>
      </trkpt>
      <trkpt lat="49.4575" lon="0.20683">
        <ele>5</ele>
        <time>2020-06-17T16:38:31Z</time>
      </trkpt>
      <trkpt lat="49.45749" lon="0.20676">
        <ele>5</ele>
        <time>2020-06-17T16:38:32Z</time>
      </trkpt>
      <trkpt lat="49.45749" lon="0.20669">
        <ele>5</ele>
        <time>2020-06-17T16:38:33Z</time>
      </trkpt>
      <trkpt lat="49.4575" lon="0.20662">
        <ele>5</ele>
        <time>2020-06-17T16:38:34Z</time>
      </trkpt>
      <trkpt lat="49.4575" lon="0.20654">
        <ele>5</ele>
        <time>2020-06-17T16:38:35Z</time>
      </trkpt>
      <trkpt lat="49.45751" lon="0.20648">
        <ele>5</ele>
        <time>2020-06-17T16:38:36Z</time>
      </trkpt>
      <trkpt lat="49.45751" lon="0.2064">
        <ele>5</ele>
        <time>2020-06-17T16:38:37Z</time>
      </trkpt>
      <trkpt lat="49.45753" lon="0.20634">
        <ele>5</ele>
        <time>2020-06-17T16:38:38Z</time>
      </trkpt>
      <trkpt lat="49.45755" lon="0.20627">
        <ele>5</ele>
        <time>2020-06-17T16:38:39Z</time>
      </trkpt>
      <trkpt lat="49.45757" lon="0.20622">
        <ele>5</ele>
        <time>2020-06-17T16:38:40Z</time>
      </trkpt>
      <trkpt lat="49.4576" lon="0.20616">
        <ele>5</ele>
        <time>2020-06-17T16:38:41Z</time>
      </trkpt>
      <trkpt lat="49.45763" lon="0.2061">
        <ele>5</ele>
        <time>2020-06-17T16:38:42Z</time>
      </trkpt>
      <trkpt lat="49.45765" lon="0.20605">
        <ele>5</ele>
        <time>2020-06-17T16:38:43Z</time>
      </trkpt>
      <trkpt lat="49.45766" lon="0.20598">
        <ele>4.9</ele>
        <time>2020-06-17T16:38:44Z</time>
      </trkpt>
      <trkpt lat="49.45769" lon="0.20596">
        <ele>4.9</ele>
        <time>2020-06-17T16:38:45Z</time>
      </trkpt>
      <trkpt lat="49.45772" lon="0.20595">
        <ele>4.9</ele>
        <time>2020-06-17T16:38:46Z</time>
      </trkpt>
      <trkpt lat="49.45776" lon="0.20594">
        <ele>4.9</ele>
        <time>2020-06-17T16:38:47Z</time>
      </trkpt>
      <trkpt lat="49.45779" lon="0.20593">
        <ele>4.9</ele>
        <time>2020-06-17T16:38:48Z</time>
      </trkpt>
      <trkpt lat="49.45783" lon="0.20591">
        <ele>4.9</ele>
        <time>2020-06-17T16:38:49Z</time>
      </trkpt>
      <trkpt lat="49.45787" lon="0.20589">
        <ele>4.9</ele>
        <time>2020-06-17T16:38:50Z</time>
      </trkpt>
      <trkpt lat="49.45791" lon="0.20586">
        <ele>4.9</ele>
        <time>2020-06-17T16:38:51Z</time>
      </trkpt>
      <trkpt lat="49.45794" lon="0.20582">
        <ele>4.9</ele>
        <time>2020-06-17T16:38:52Z</time>
      </trkpt>
      <trkpt lat="49.45797" lon="0.20577">
        <ele>4.9</ele>
        <time>2020-06-17T16:38:53Z</time>
      </trkpt>
      <trkpt lat="49.458" lon="0.20571">
        <ele>4.9</ele>
        <time>2020-06-17T16:38:54Z</time>
      </trkpt>
      <trkpt lat="49.45802" lon="0.20564">
        <ele>4.8</ele>
        <time>2020-06-17T16:38:55Z</time>
      </trkpt>
      <trkpt lat="49.45804" lon="0.20557">
        <ele>4.8</ele>
        <time>2020-06-17T16:38:56Z</time>
      </trkpt>
      <trkpt lat="49.45804" lon="0.20549">
        <ele>4.8</ele>
        <time>2020-06-17T16:38:57Z</time>
      </trkpt>
      <trkpt lat="49.45805" lon="0.20542">
        <ele>4.8</ele>
        <time>2020-06-17T16:38:58Z</time>
      </trkpt>
      <trkpt lat="49.45805" lon="0.20535">
        <ele>4.8</ele>
        <time>2020-06-17T16:38:59Z</time>
      </trkpt>
      <trkpt lat="49.45803" lon="0.20529">
        <ele>4.8</ele>
        <time>2020-06-17T16:39:00Z</time>
      </trkpt>
      <trkpt lat="49.45801" lon="0.20524">
        <ele>4.8</ele>
        <time>2020-06-17T16:39:01Z</time>
      </trkpt>
      <trkpt lat="49.45798" lon="0.20518">
        <ele>4.9</ele>
        <time>2020-06-17T16:39:02Z</time>
      </trkpt>
      <trkpt lat="49.45795" lon="0.20511">
        <ele>4.9</ele>
        <time>2020-06-17T16:39:03Z</time>
      </trkpt>
      <trkpt lat="49.45792" lon="0.20504">
        <ele>4.9</ele>
        <time>2020-06-17T16:39:04Z</time>
      </trkpt>
      <trkpt lat="49.45789" lon="0.20498">
        <ele>4.9</ele>
        <time>2020-06-17T16:39:05Z</time>
      </trkpt>
      <trkpt lat="49.45786" lon="0.20492">
        <ele>4.9</ele>
        <time>2020-06-17T16:39:06Z</time>
      </trkpt>
      <trkpt lat="49.45783" lon="0.20486">
        <ele>4.9</ele>
        <time>2020-06-17T16:39:07Z</time>
      </trkpt>
      <trkpt lat="49.45781" lon="0.20478">
        <ele>4.9</ele>
        <time>2020-06-17T16:39:08Z</time>
      </trkpt>
      <trkpt lat="49.45781" lon="0.2047">
        <ele>5</ele>
        <time>2020-06-17T16:39:09Z</time>
      </trkpt>
      <trkpt lat="49.45782" lon="0.20461">
        <ele>5</ele>
        <time>2020-06-17T16:39:10Z</time>
      </trkpt>
      <trkpt lat="49.45783" lon="0.20453">
        <ele>5</ele>
        <time>2020-06-17T16:39:11Z</time>
      </trkpt>
      <trkpt lat="49.45785" lon="0.20444">
        <ele>5</ele>
        <time>2020-06-17T16:39:12Z</time>
      </trkpt>
      <trkpt lat="49.45786" lon="0.20436">
        <ele>5</ele>
        <time>2020-06-17T16:39:13Z</time>
      </trkpt>
      <trkpt lat="49.45786" lon="0.20428">
        <ele>5</ele>
        <time>2020-06-17T16:39:14Z</time>
      </trkpt>
      <trkpt lat="49.45786" lon="0.20419">
        <ele>5</ele>
        <time>2020-06-17T16:39:15Z</time>
      </trkpt>
      <trkpt lat="49.45787" lon="0.20409">
        <ele>5.1</ele>
        <time>2020-06-17T16:39:16Z</time>
      </trkpt>
      <trkpt lat="49.45788" lon="0.204">
        <ele>5.2</ele>
        <time>2020-06-17T16:39:17Z</time>
      </trkpt>
      <trkpt lat="49.45789" lon="0.20391">
        <ele>5.2</ele>
        <time>2020-06-17T16:39:18Z</time>
      </trkpt>
      <trkpt lat="49.4579" lon="0.20382">
        <ele>5.2</ele>
        <time>2020-06-17T16:39:19Z</time>
      </trkpt>
      <trkpt lat="49.45791" lon="0.20372">
        <ele>5.1</ele>
        <time>2020-06-17T16:39:20Z</time>
      </trkpt>
      <trkpt lat="49.45791" lon="0.20361">
        <ele>5.1</ele>
        <time>2020-06-17T16:39:21Z</time>
      </trkpt>
      <trkpt lat="49.45792" lon="0.20351">
        <ele>5.1</ele>
        <time>2020-06-17T16:39:22Z</time>
      </trkpt>
      <trkpt lat="49.45793" lon="0.20342">
        <ele>5.1</ele>
        <time>2020-06-17T16:39:23Z</time>
      </trkpt>
      <trkpt lat="49.45794" lon="0.20333">
        <ele>5.1</ele>
        <time>2020-06-17T16:39:24Z</time>
      </trkpt>
      <trkpt lat="49.45795" lon="0.20324">
        <ele>5</ele>
        <time>2020-06-17T16:39:25Z</time>
      </trkpt>
      <trkpt lat="49.45796" lon="0.20315">
        <ele>5</ele>
        <time>2020-06-17T16:39:26Z</time>
      </trkpt>
      <trkpt lat="49.45796" lon="0.20307">
        <ele>5</ele>
        <time>2020-06-17T16:39:27Z</time>
      </trkpt>
      <trkpt lat="49.45797" lon="0.20298">
        <ele>5</ele>
        <time>2020-06-17T16:39:28Z</time>
      </trkpt>
      <trkpt lat="49.45798" lon="0.20292">
        <ele>5</ele>
        <time>2020-06-17T16:39:29Z</time>
      </trkpt>
      <trkpt lat="49.45799" lon="0.20285">
        <ele>5</ele>
        <time>2020-06-17T16:39:30Z</time>
      </trkpt>
      <trkpt lat="49.458" lon="0.20278">
        <ele>5.1</ele>
        <time>2020-06-17T16:39:31Z</time>
      </trkpt>
      <trkpt lat="49.45801" lon="0.20271">
        <ele>5.1</ele>
        <time>2020-06-17T16:39:32Z</time>
      </trkpt>
      <trkpt lat="49.45802" lon="0.20266">
        <ele>5.1</ele>
        <time>2020-06-17T16:39:33Z</time>
      </trkpt>
      <trkpt lat="49.45802" lon="0.20259">
        <ele>5.1</ele>
        <time>2020-06-17T16:39:34Z</time>
      </trkpt>
      <trkpt lat="49.45804" lon="0.20251">
        <ele>5.1</ele>
        <time>2020-06-17T16:39:35Z</time>
      </trkpt>
      <trkpt lat="49.45804" lon="0.20246">
        <ele>5.1</ele>
        <time>2020-06-17T16:39:36Z</time>
      </trkpt>
      <trkpt lat="49.45805" lon="0.2024">
        <ele>5.1</ele>
        <time>2020-06-17T16:39:37Z</time>
      </trkpt>
      <trkpt lat="49.45806" lon="0.20234">
        <ele>5.1</ele>
        <time>2020-06-17T16:39:38Z</time>
      </trkpt>
      <trkpt lat="49.45806" lon="0.20231">
        <ele>5.1</ele>
        <time>2020-06-17T16:39:39Z</time>
      </trkpt>
      <trkpt lat="49.45808" lon="0.20225">
        <ele>5.1</ele>
        <time>2020-06-17T16:39:40Z</time>
      </trkpt>
      <trkpt lat="49.45811" lon="0.20219">
        <ele>5.1</ele>
        <time>2020-06-17T16:39:41Z</time>
      </trkpt>
      <trkpt lat="49.45813" lon="0.20212">
        <ele>5.1</ele>
        <time>2020-06-17T16:39:42Z</time>
      </trkpt>
      <trkpt lat="49.45816" lon="0.20204">
        <ele>5.1</ele>
        <time>2020-06-17T16:39:43Z</time>
      </trkpt>
      <trkpt lat="49.45818" lon="0.20196">
        <ele>5.1</ele>
        <time>2020-06-17T16:39:44Z</time>
      </trkpt>
      <trkpt lat="49.4582" lon="0.20188">
        <ele>5.1</ele>
        <time>2020-06-17T16:39:45Z</time>
      </trkpt>
      <trkpt lat="49.45822" lon="0.20182">
        <ele>5.1</ele>
        <time>2020-06-17T16:39:46Z</time>
      </trkpt>
      <trkpt lat="49.45825" lon="0.20173">
        <ele>5</ele>
        <time>2020-06-17T16:39:47Z</time>
      </trkpt>
      <trkpt lat="49.45828" lon="0.20166">
        <ele>5</ele>
        <time>2020-06-17T16:39:48Z</time>
      </trkpt>
      <trkpt lat="49.45831" lon="0.20159">
        <ele>5</ele>
        <time>2020-06-17T16:39:49Z</time>
      </trkpt>
      <trkpt lat="49.45834" lon="0.20153">
        <ele>5</ele>
        <time>2020-06-17T16:39:50Z</time>
      </trkpt>
      <trkpt lat="49.45837" lon="0.20146">
        <ele>5</ele>
        <time>2020-06-17T16:39:51Z</time>
      </trkpt>
      <trkpt lat="49.4584" lon="0.20137">
        <ele>5</ele>
        <time>2020-06-17T16:39:52Z</time>
      </trkpt>
      <trkpt lat="49.45843" lon="0.20129">
        <ele>5</ele>
        <time>2020-06-17T16:39:53Z</time>
      </trkpt>
      <trkpt lat="49.45846" lon="0.2012">
        <ele>5</ele>
        <time>2020-06-17T16:39:54Z</time>
      </trkpt>
      <trkpt lat="49.45848" lon="0.20113">
        <ele>4.9</ele>
        <time>2020-06-17T16:39:55Z</time>
      </trkpt>
      <trkpt lat="49.4585" lon="0.20105">
        <ele>4.9</ele>
        <time>2020-06-17T16:39:56Z</time>
      </trkpt>
      <trkpt lat="49.45852" lon="0.20096">
        <ele>4.8</ele>
        <time>2020-06-17T16:39:57Z</time>
      </trkpt>
      <trkpt lat="49.45854" lon="0.20088">
        <ele>4.8</ele>
        <time>2020-06-17T16:39:58Z</time>
      </trkpt>
      <trkpt lat="49.45856" lon="0.20079">
        <ele>4.7</ele>
        <time>2020-06-17T16:39:59Z</time>
      </trkpt>
      <trkpt lat="49.45857" lon="0.20069">
        <ele>4.7</ele>
        <time>2020-06-17T16:40:00Z</time>
      </trkpt>
      <trkpt lat="49.45857" lon="0.2006">
        <ele>4.6</ele>
        <time>2020-06-17T16:40:01Z</time>
      </trkpt>
      <trkpt lat="49.45858" lon="0.20052">
        <ele>4.6</ele>
        <time>2020-06-17T16:40:02Z</time>
      </trkpt>
      <trkpt lat="49.4586" lon="0.20043">
        <ele>4.6</ele>
        <time>2020-06-17T16:40:03Z</time>
      </trkpt>
      <trkpt lat="49.45861" lon="0.20034">
        <ele>4.6</ele>
        <time>2020-06-17T16:40:04Z</time>
      </trkpt>
      <trkpt lat="49.45861" lon="0.20026">
        <ele>4.7</ele>
        <time>2020-06-17T16:40:05Z</time>
      </trkpt>
      <trkpt lat="49.45862" lon="0.20017">
        <ele>4.7</ele>
        <time>2020-06-17T16:40:06Z</time>
      </trkpt>
      <trkpt lat="49.45862" lon="0.20008">
        <ele>4.7</ele>
        <time>2020-06-17T16:40:07Z</time>
      </trkpt>
      <trkpt lat="49.45863" lon="0.19996">
        <ele>4.7</ele>
        <time>2020-06-17T16:40:08Z</time>
      </trkpt>
      <trkpt lat="49.45863" lon="0.19986">
        <ele>4.7</ele>
        <time>2020-06-17T16:40:09Z</time>
      </trkpt>
      <trkpt lat="49.45863" lon="0.19978">
        <ele>4.7</ele>
        <time>2020-06-17T16:40:10Z</time>
      </trkpt>
      <trkpt lat="49.45864" lon="0.19968">
        <ele>4.7</ele>
        <time>2020-06-17T16:40:11Z</time>
      </trkpt>
      <trkpt lat="49.45865" lon="0.19959">
        <ele>4.7</ele>
        <time>2020-06-17T16:40:12Z</time>
      </trkpt>
      <trkpt lat="49.45865" lon="0.19949">
        <ele>4.7</ele>
        <time>2020-06-17T16:40:13Z</time>
      </trkpt>
      <trkpt lat="49.45866" lon="0.19941">
        <ele>4.8</ele>
        <time>2020-06-17T16:40:14Z</time>
      </trkpt>
      <trkpt lat="49.45867" lon="0.19932">
        <ele>4.8</ele>
        <time>2020-06-17T16:40:15Z</time>
      </trkpt>
      <trkpt lat="49.45868" lon="0.19922">
        <ele>4.8</ele>
        <time>2020-06-17T16:40:16Z</time>
      </trkpt>
      <trkpt lat="49.45869" lon="0.19913">
        <ele>4.8</ele>
        <time>2020-06-17T16:40:17Z</time>
      </trkpt>
      <trkpt lat="49.4587" lon="0.19905">
        <ele>4.8</ele>
        <time>2020-06-17T16:40:18Z</time>
      </trkpt>
      <trkpt lat="49.45871" lon="0.19897">
        <ele>4.8</ele>
        <time>2020-06-17T16:40:19Z</time>
      </trkpt>
      <trkpt lat="49.45872" lon="0.19888">
        <ele>4.7</ele>
        <time>2020-06-17T16:40:20Z</time>
      </trkpt>
      <trkpt lat="49.45874" lon="0.19879">
        <ele>4.7</ele>
        <time>2020-06-17T16:40:21Z</time>
      </trkpt>
      <trkpt lat="49.45875" lon="0.19871">
        <ele>4.7</ele>
        <time>2020-06-17T16:40:22Z</time>
      </trkpt>
      <trkpt lat="49.45876" lon="0.19862">
        <ele>4.7</ele>
        <time>2020-06-17T16:40:23Z</time>
      </trkpt>
      <trkpt lat="49.45877" lon="0.19854">
        <ele>4.7</ele>
        <time>2020-06-17T16:40:24Z</time>
      </trkpt>
      <trkpt lat="49.45879" lon="0.19845">
        <ele>4.8</ele>
        <time>2020-06-17T16:40:25Z</time>
      </trkpt>
      <trkpt lat="49.4588" lon="0.19836">
        <ele>4.8</ele>
        <time>2020-06-17T16:40:26Z</time>
      </trkpt>
      <trkpt lat="49.45881" lon="0.19826">
        <ele>4.9</ele>
        <time>2020-06-17T16:40:27Z</time>
      </trkpt>
      <trkpt lat="49.45882" lon="0.19818">
        <ele>4.9</ele>
        <time>2020-06-17T16:40:28Z</time>
      </trkpt>
      <trkpt lat="49.45883" lon="0.1981">
        <ele>4.9</ele>
        <time>2020-06-17T16:40:29Z</time>
      </trkpt>
      <trkpt lat="49.45885" lon="0.19801">
        <ele>4.9</ele>
        <time>2020-06-17T16:40:30Z</time>
      </trkpt>
      <trkpt lat="49.45886" lon="0.19791">
        <ele>4.9</ele>
        <time>2020-06-17T16:40:31Z</time>
      </trkpt>
      <trkpt lat="49.45887" lon="0.19782">
        <ele>4.9</ele>
        <time>2020-06-17T16:40:32Z</time>
      </trkpt>
      <trkpt lat="49.45888" lon="0.19772">
        <ele>4.9</ele>
        <time>2020-06-17T16:40:33Z</time>
      </trkpt>
      <trkpt lat="49.45889" lon="0.19762">
        <ele>4.9</ele>
        <time>2020-06-17T16:40:34Z</time>
      </trkpt>
      <trkpt lat="49.4589" lon="0.19753">
        <ele>4.9</ele>
        <time>2020-06-17T16:40:35Z</time>
      </trkpt>
      <trkpt lat="49.45891" lon="0.19743">
        <ele>4.8</ele>
        <time>2020-06-17T16:40:36Z</time>
      </trkpt>
      <trkpt lat="49.45893" lon="0.19733">
        <ele>4.8</ele>
        <time>2020-06-17T16:40:37Z</time>
      </trkpt>
      <trkpt lat="49.45894" lon="0.19723">
        <ele>4.8</ele>
        <time>2020-06-17T16:40:38Z</time>
      </trkpt>
      <trkpt lat="49.45895" lon="0.19714">
        <ele>4.8</ele>
        <time>2020-06-17T16:40:39Z</time>
      </trkpt>
      <trkpt lat="49.45896" lon="0.19706">
        <ele>4.8</ele>
        <time>2020-06-17T16:40:40Z</time>
      </trkpt>
      <trkpt lat="49.45898" lon="0.19697">
        <ele>4.7</ele>
        <time>2020-06-17T16:40:41Z</time>
      </trkpt>
      <trkpt lat="49.45899" lon="0.19688">
        <ele>4.7</ele>
        <time>2020-06-17T16:40:42Z</time>
      </trkpt>
      <trkpt lat="49.459" lon="0.19678">
        <ele>4.7</ele>
        <time>2020-06-17T16:40:43Z</time>
      </trkpt>
      <trkpt lat="49.45901" lon="0.19668">
        <ele>4.7</ele>
        <time>2020-06-17T16:40:44Z</time>
      </trkpt>
      <trkpt lat="49.45902" lon="0.19658">
        <ele>4.7</ele>
        <time>2020-06-17T16:40:45Z</time>
      </trkpt>
      <trkpt lat="49.45904" lon="0.19648">
        <ele>4.8</ele>
        <time>2020-06-17T16:40:46Z</time>
      </trkpt>
      <trkpt lat="49.45905" lon="0.19639">
        <ele>4.8</ele>
        <time>2020-06-17T16:40:47Z</time>
      </trkpt>
      <trkpt lat="49.45906" lon="0.1963">
        <ele>4.8</ele>
        <time>2020-06-17T16:40:48Z</time>
      </trkpt>
      <trkpt lat="49.45907" lon="0.19622">
        <ele>4.8</ele>
        <time>2020-06-17T16:40:49Z</time>
      </trkpt>
      <trkpt lat="49.45909" lon="0.19613">
        <ele>4.8</ele>
        <time>2020-06-17T16:40:50Z</time>
      </trkpt>
      <trkpt lat="49.4591" lon="0.19604">
        <ele>4.8</ele>
        <time>2020-06-17T16:40:51Z</time>
      </trkpt>
      <trkpt lat="49.45911" lon="0.19595">
        <ele>4.8</ele>
        <time>2020-06-17T16:40:52Z</time>
      </trkpt>
      <trkpt lat="49.45912" lon="0.19586">
        <ele>4.8</ele>
        <time>2020-06-17T16:40:53Z</time>
      </trkpt>
      <trkpt lat="49.45913" lon="0.19578">
        <ele>4.8</ele>
        <time>2020-06-17T16:40:54Z</time>
      </trkpt>
      <trkpt lat="49.45914" lon="0.19568">
        <ele>4.8</ele>
        <time>2020-06-17T16:40:55Z</time>
      </trkpt>
      <trkpt lat="49.45916" lon="0.19559">
        <ele>4.8</ele>
        <time>2020-06-17T16:40:56Z</time>
      </trkpt>
      <trkpt lat="49.45917" lon="0.19551">
        <ele>4.8</ele>
        <time>2020-06-17T16:40:57Z</time>
      </trkpt>
      <trkpt lat="49.45919" lon="0.19541">
        <ele>4.8</ele>
        <time>2020-06-17T16:40:58Z</time>
      </trkpt>
      <trkpt lat="49.45921" lon="0.19532">
        <ele>4.8</ele>
        <time>2020-06-17T16:40:59Z</time>
      </trkpt>
      <trkpt lat="49.45922" lon="0.19523">
        <ele>4.8</ele>
        <time>2020-06-17T16:41:00Z</time>
      </trkpt>
      <trkpt lat="49.45924" lon="0.19514">
        <ele>4.8</ele>
        <time>2020-06-17T16:41:01Z</time>
      </trkpt>
      <trkpt lat="49.45925" lon="0.19505">
        <ele>4.7</ele>
        <time>2020-06-17T16:41:02Z</time>
      </trkpt>
      <trkpt lat="49.45927" lon="0.19495">
        <ele>4.7</ele>
        <time>2020-06-17T16:41:03Z</time>
      </trkpt>
      <trkpt lat="49.45929" lon="0.19486">
        <ele>4.7</ele>
        <time>2020-06-17T16:41:04Z</time>
      </trkpt>
      <trkpt lat="49.4593" lon="0.19476">
        <ele>4.7</ele>
        <time>2020-06-17T16:41:05Z</time>
      </trkpt>
      <trkpt lat="49.45931" lon="0.19466">
        <ele>4.7</ele>
        <time>2020-06-17T16:41:06Z</time>
      </trkpt>
      <trkpt lat="49.45932" lon="0.19457">
        <ele>4.7</ele>
        <time>2020-06-17T16:41:07Z</time>
      </trkpt>
      <trkpt lat="49.45933" lon="0.19447">
        <ele>4.8</ele>
        <time>2020-06-17T16:41:08Z</time>
      </trkpt>
      <trkpt lat="49.45935" lon="0.19437">
        <ele>4.8</ele>
        <time>2020-06-17T16:41:09Z</time>
      </trkpt>
      <trkpt lat="49.45936" lon="0.19428">
        <ele>4.8</ele>
        <time>2020-06-17T16:41:10Z</time>
      </trkpt>
      <trkpt lat="49.45938" lon="0.19418">
        <ele>4.8</ele>
        <time>2020-06-17T16:41:11Z</time>
      </trkpt>
      <trkpt lat="49.45939" lon="0.19409">
        <ele>4.8</ele>
        <time>2020-06-17T16:41:12Z</time>
      </trkpt>
      <trkpt lat="49.45941" lon="0.194">
        <ele>4.8</ele>
        <time>2020-06-17T16:41:13Z</time>
      </trkpt>
      <trkpt lat="49.45942" lon="0.19391">
        <ele>4.7</ele>
        <time>2020-06-17T16:41:14Z</time>
      </trkpt>
      <trkpt lat="49.45943" lon="0.19382">
        <ele>4.6</ele>
        <time>2020-06-17T16:41:15Z</time>
      </trkpt>
      <trkpt lat="49.45945" lon="0.19373">
        <ele>4.6</ele>
        <time>2020-06-17T16:41:16Z</time>
      </trkpt>
      <trkpt lat="49.45947" lon="0.19364">
        <ele>4.5</ele>
        <time>2020-06-17T16:41:17Z</time>
      </trkpt>
      <trkpt lat="49.45948" lon="0.19356">
        <ele>4.5</ele>
        <time>2020-06-17T16:41:18Z</time>
      </trkpt>
      <trkpt lat="49.45949" lon="0.19347">
        <ele>4.4</ele>
        <time>2020-06-17T16:41:19Z</time>
      </trkpt>
      <trkpt lat="49.4595" lon="0.19337">
        <ele>4.4</ele>
        <time>2020-06-17T16:41:20Z</time>
      </trkpt>
      <trkpt lat="49.45951" lon="0.19328">
        <ele>4.3</ele>
        <time>2020-06-17T16:41:21Z</time>
      </trkpt>
      <trkpt lat="49.45951" lon="0.19319">
        <ele>4.4</ele>
        <time>2020-06-17T16:41:22Z</time>
      </trkpt>
      <trkpt lat="49.45953" lon="0.1931">
        <ele>4.4</ele>
        <time>2020-06-17T16:41:23Z</time>
      </trkpt>
      <trkpt lat="49.45954" lon="0.19301">
        <ele>4.4</ele>
        <time>2020-06-17T16:41:24Z</time>
      </trkpt>
      <trkpt lat="49.45955" lon="0.19293">
        <ele>4.4</ele>
        <time>2020-06-17T16:41:25Z</time>
      </trkpt>
      <trkpt lat="49.45957" lon="0.19283">
        <ele>4.4</ele>
        <time>2020-06-17T16:41:26Z</time>
      </trkpt>
      <trkpt lat="49.45958" lon="0.19273">
        <ele>4.5</ele>
        <time>2020-06-17T16:41:27Z</time>
      </trkpt>
      <trkpt lat="49.4596" lon="0.19263">
        <ele>4.5</ele>
        <time>2020-06-17T16:41:28Z</time>
      </trkpt>
      <trkpt lat="49.45961" lon="0.19253">
        <ele>4.5</ele>
        <time>2020-06-17T16:41:29Z</time>
      </trkpt>
      <trkpt lat="49.45962" lon="0.19244">
        <ele>4.5</ele>
        <time>2020-06-17T16:41:30Z</time>
      </trkpt>
      <trkpt lat="49.45964" lon="0.19233">
        <ele>4.5</ele>
        <time>2020-06-17T16:41:31Z</time>
      </trkpt>
      <trkpt lat="49.45965" lon="0.19223">
        <ele>4.5</ele>
        <time>2020-06-17T16:41:32Z</time>
      </trkpt>
      <trkpt lat="49.45967" lon="0.19215">
        <ele>4.6</ele>
        <time>2020-06-17T16:41:33Z</time>
      </trkpt>
      <trkpt lat="49.45968" lon="0.19206">
        <ele>4.6</ele>
        <time>2020-06-17T16:41:34Z</time>
      </trkpt>
      <trkpt lat="49.45969" lon="0.19197">
        <ele>4.6</ele>
        <time>2020-06-17T16:41:35Z</time>
      </trkpt>
      <trkpt lat="49.4597" lon="0.19188">
        <ele>4.6</ele>
        <time>2020-06-17T16:41:36Z</time>
      </trkpt>
      <trkpt lat="49.4597" lon="0.1918">
        <ele>4.6</ele>
        <time>2020-06-17T16:41:37Z</time>
      </trkpt>
      <trkpt lat="49.45971" lon="0.19171">
        <ele>4.5</ele>
        <time>2020-06-17T16:41:38Z</time>
      </trkpt>
      <trkpt lat="49.45972" lon="0.19163">
        <ele>4.5</ele>
        <time>2020-06-17T16:41:39Z</time>
      </trkpt>
      <trkpt lat="49.45973" lon="0.19154">
        <ele>4.5</ele>
        <time>2020-06-17T16:41:40Z</time>
      </trkpt>
      <trkpt lat="49.45974" lon="0.19147">
        <ele>4.5</ele>
        <time>2020-06-17T16:41:41Z</time>
      </trkpt>
      <trkpt lat="49.45975" lon="0.19136">
        <ele>4.5</ele>
        <time>2020-06-17T16:41:42Z</time>
      </trkpt>
      <trkpt lat="49.45976" lon="0.19128">
        <ele>4.6</ele>
        <time>2020-06-17T16:41:43Z</time>
      </trkpt>
      <trkpt lat="49.45978" lon="0.19119">
        <ele>4.6</ele>
        <time>2020-06-17T16:41:44Z</time>
      </trkpt>
      <trkpt lat="49.4598" lon="0.19109">
        <ele>4.7</ele>
        <time>2020-06-17T16:41:45Z</time>
      </trkpt>
      <trkpt lat="49.45981" lon="0.19099">
        <ele>4.8</ele>
        <time>2020-06-17T16:41:46Z</time>
      </trkpt>
      <trkpt lat="49.45983" lon="0.19091">
        <ele>4.8</ele>
        <time>2020-06-17T16:41:47Z</time>
      </trkpt>
      <trkpt lat="49.45984" lon="0.19083">
        <ele>4.8</ele>
        <time>2020-06-17T16:41:48Z</time>
      </trkpt>
      <trkpt lat="49.45985" lon="0.19073">
        <ele>4.7</ele>
        <time>2020-06-17T16:41:49Z</time>
      </trkpt>
      <trkpt lat="49.45987" lon="0.19064">
        <ele>4.7</ele>
        <time>2020-06-17T16:41:50Z</time>
      </trkpt>
      <trkpt lat="49.45988" lon="0.19054">
        <ele>4.7</ele>
        <time>2020-06-17T16:41:51Z</time>
      </trkpt>
      <trkpt lat="49.45989" lon="0.19044">
        <ele>4.7</ele>
        <time>2020-06-17T16:41:52Z</time>
      </trkpt>
      <trkpt lat="49.4599" lon="0.19034">
        <ele>4.7</ele>
        <time>2020-06-17T16:41:53Z</time>
      </trkpt>
      <trkpt lat="49.45991" lon="0.19025">
        <ele>4.7</ele>
        <time>2020-06-17T16:41:54Z</time>
      </trkpt>
      <trkpt lat="49.45992" lon="0.19018">
        <ele>4.7</ele>
        <time>2020-06-17T16:41:55Z</time>
      </trkpt>
      <trkpt lat="49.45993" lon="0.19009">
        <ele>4.7</ele>
        <time>2020-06-17T16:41:56Z</time>
      </trkpt>
      <trkpt lat="49.45993" lon="0.18999">
        <ele>4.7</ele>
        <time>2020-06-17T16:41:57Z</time>
      </trkpt>
      <trkpt lat="49.45995" lon="0.18991">
        <ele>4.8</ele>
        <time>2020-06-17T16:41:58Z</time>
      </trkpt>
      <trkpt lat="49.45995" lon="0.18982">
        <ele>4.8</ele>
        <time>2020-06-17T16:41:59Z</time>
      </trkpt>
      <trkpt lat="49.45996" lon="0.18972">
        <ele>4.8</ele>
        <time>2020-06-17T16:42:00Z</time>
      </trkpt>
      <trkpt lat="49.45998" lon="0.18967">
        <ele>4.8</ele>
        <time>2020-06-17T16:42:01Z</time>
      </trkpt>
      <trkpt lat="49.45999" lon="0.18961">
        <ele>4.8</ele>
        <time>2020-06-17T16:42:02Z</time>
      </trkpt>
      <trkpt lat="49.46" lon="0.18953">
        <ele>4.8</ele>
        <time>2020-06-17T16:42:03Z</time>
      </trkpt>
      <trkpt lat="49.46002" lon="0.18945">
        <ele>4.9</ele>
        <time>2020-06-17T16:42:04Z</time>
      </trkpt>
      <trkpt lat="49.46003" lon="0.18937">
        <ele>4.9</ele>
        <time>2020-06-17T16:42:05Z</time>
      </trkpt>
      <trkpt lat="49.46004" lon="0.18929">
        <ele>4.9</ele>
        <time>2020-06-17T16:42:06Z</time>
      </trkpt>
      <trkpt lat="49.46005" lon="0.18921">
        <ele>5</ele>
        <time>2020-06-17T16:42:07Z</time>
      </trkpt>
      <trkpt lat="49.46006" lon="0.18913">
        <ele>5</ele>
        <time>2020-06-17T16:42:08Z</time>
      </trkpt>
      <trkpt lat="49.46008" lon="0.18906">
        <ele>5.1</ele>
        <time>2020-06-17T16:42:09Z</time>
      </trkpt>
      <trkpt lat="49.46009" lon="0.18899">
        <ele>5.1</ele>
        <time>2020-06-17T16:42:10Z</time>
      </trkpt>
      <trkpt lat="49.4601" lon="0.18892">
        <ele>5.2</ele>
        <time>2020-06-17T16:42:11Z</time>
      </trkpt>
      <trkpt lat="49.4601" lon="0.18885">
        <ele>5.2</ele>
        <time>2020-06-17T16:42:12Z</time>
      </trkpt>
      <trkpt lat="49.46011" lon="0.18879">
        <ele>5.3</ele>
        <time>2020-06-17T16:42:13Z</time>
      </trkpt>
      <trkpt lat="49.46012" lon="0.18871">
        <ele>5.3</ele>
        <time>2020-06-17T16:42:14Z</time>
      </trkpt>
      <trkpt lat="49.46013" lon="0.18865">
        <ele>5.4</ele>
        <time>2020-06-17T16:42:15Z</time>
      </trkpt>
      <trkpt lat="49.46014" lon="0.18858">
        <ele>5.5</ele>
        <time>2020-06-17T16:42:16Z</time>
      </trkpt>
      <trkpt lat="49.46015" lon="0.18851">
        <ele>5.7</ele>
        <time>2020-06-17T16:42:17Z</time>
      </trkpt>
      <trkpt lat="49.46016" lon="0.18845">
        <ele>5.8</ele>
        <time>2020-06-17T16:42:18Z</time>
      </trkpt>
      <trkpt lat="49.46019" lon="0.18842">
        <ele>5.8</ele>
        <time>2020-06-17T16:42:19Z</time>
      </trkpt>
      <trkpt lat="49.46021" lon="0.18842">
        <ele>5.8</ele>
        <time>2020-06-17T16:42:20Z</time>
      </trkpt>
      <trkpt lat="49.46024" lon="0.18842">
        <ele>5.7</ele>
        <time>2020-06-17T16:42:21Z</time>
      </trkpt>
      <trkpt lat="49.46028" lon="0.18839">
        <ele>5.7</ele>
        <time>2020-06-17T16:42:22Z</time>
      </trkpt>
      <trkpt lat="49.46031" lon="0.18836">
        <ele>5.6</ele>
        <time>2020-06-17T16:42:23Z</time>
      </trkpt>
      <trkpt lat="49.46033" lon="0.18833">
        <ele>5.5</ele>
        <time>2020-06-17T16:42:24Z</time>
      </trkpt>
      <trkpt lat="49.46035" lon="0.18828">
        <ele>5.4</ele>
        <time>2020-06-17T16:42:25Z</time>
      </trkpt>
      <trkpt lat="49.46038" lon="0.18823">
        <ele>5.3</ele>
        <time>2020-06-17T16:42:26Z</time>
      </trkpt>
      <trkpt lat="49.46041" lon="0.18819">
        <ele>5.2</ele>
        <time>2020-06-17T16:42:27Z</time>
      </trkpt>
      <trkpt lat="49.46043" lon="0.18813">
        <ele>5.2</ele>
        <time>2020-06-17T16:42:28Z</time>
      </trkpt>
      <trkpt lat="49.46046" lon="0.18808">
        <ele>5.1</ele>
        <time>2020-06-17T16:42:29Z</time>
      </trkpt>
      <trkpt lat="49.46049" lon="0.18804">
        <ele>5.1</ele>
        <time>2020-06-17T16:42:30Z</time>
      </trkpt>
      <trkpt lat="49.46051" lon="0.18798">
        <ele>5.1</ele>
        <time>2020-06-17T16:42:31Z</time>
      </trkpt>
      <trkpt lat="49.46055" lon="0.18791">
        <ele>5</ele>
        <time>2020-06-17T16:42:32Z</time>
      </trkpt>
      <trkpt lat="49.46058" lon="0.18786">
        <ele>5</ele>
        <time>2020-06-17T16:42:33Z</time>
      </trkpt>
      <trkpt lat="49.46061" lon="0.1878">
        <ele>5</ele>
        <time>2020-06-17T16:42:34Z</time>
      </trkpt>
      <trkpt lat="49.46063" lon="0.18773">
        <ele>5</ele>
        <time>2020-06-17T16:42:35Z</time>
      </trkpt>
      <trkpt lat="49.46067" lon="0.18768">
        <ele>5</ele>
        <time>2020-06-17T16:42:36Z</time>
      </trkpt>
      <trkpt lat="49.4607" lon="0.18762">
        <ele>5</ele>
        <time>2020-06-17T16:42:37Z</time>
      </trkpt>
      <trkpt lat="49.46074" lon="0.18756">
        <ele>4.9</ele>
        <time>2020-06-17T16:42:38Z</time>
      </trkpt>
      <trkpt lat="49.46078" lon="0.1875">
        <ele>4.9</ele>
        <time>2020-06-17T16:42:39Z</time>
      </trkpt>
      <trkpt lat="49.46081" lon="0.18745">
        <ele>4.8</ele>
        <time>2020-06-17T16:42:40Z</time>
      </trkpt>
      <trkpt lat="49.46084" lon="0.18738">
        <ele>4.8</ele>
        <time>2020-06-17T16:42:41Z</time>
      </trkpt>
      <trkpt lat="49.46088" lon="0.18732">
        <ele>4.8</ele>
        <time>2020-06-17T16:42:42Z</time>
      </trkpt>
      <trkpt lat="49.46092" lon="0.18725">
        <ele>4.7</ele>
        <time>2020-06-17T16:42:43Z</time>
      </trkpt>
      <trkpt lat="49.46096" lon="0.18719">
        <ele>4.7</ele>
        <time>2020-06-17T16:42:44Z</time>
      </trkpt>
      <trkpt lat="49.461" lon="0.18713">
        <ele>4.7</ele>
        <time>2020-06-17T16:42:45Z</time>
      </trkpt>
      <trkpt lat="49.46104" lon="0.18708">
        <ele>4.7</ele>
        <time>2020-06-17T16:42:46Z</time>
      </trkpt>
      <trkpt lat="49.46107" lon="0.18702">
        <ele>4.7</ele>
        <time>2020-06-17T16:42:47Z</time>
      </trkpt>
      <trkpt lat="49.46112" lon="0.18697">
        <ele>4.7</ele>
        <time>2020-06-17T16:42:48Z</time>
      </trkpt>
      <trkpt lat="49.46116" lon="0.18692">
        <ele>4.7</ele>
        <time>2020-06-17T16:42:49Z</time>
      </trkpt>
      <trkpt lat="49.46122" lon="0.18688">
        <ele>4.7</ele>
        <time>2020-06-17T16:42:50Z</time>
      </trkpt>
      <trkpt lat="49.46127" lon="0.18684">
        <ele>4.7</ele>
        <time>2020-06-17T16:42:51Z</time>
      </trkpt>
      <trkpt lat="49.46133" lon="0.18681">
        <ele>4.7</ele>
        <time>2020-06-17T16:42:52Z</time>
      </trkpt>
      <trkpt lat="49.46137" lon="0.18677">
        <ele>4.7</ele>
        <time>2020-06-17T16:42:53Z</time>
      </trkpt>
      <trkpt lat="49.46141" lon="0.18673">
        <ele>4.7</ele>
        <time>2020-06-17T16:42:54Z</time>
      </trkpt>
      <trkpt lat="49.46147" lon="0.1867">
        <ele>4.7</ele>
        <time>2020-06-17T16:42:55Z</time>
      </trkpt>
      <trkpt lat="49.46152" lon="0.18666">
        <ele>4.7</ele>
        <time>2020-06-17T16:42:56Z</time>
      </trkpt>
      <trkpt lat="49.46158" lon="0.18663">
        <ele>4.7</ele>
        <time>2020-06-17T16:42:57Z</time>
      </trkpt>
      <trkpt lat="49.46163" lon="0.18659">
        <ele>4.7</ele>
        <time>2020-06-17T16:42:58Z</time>
      </trkpt>
      <trkpt lat="49.46168" lon="0.18657">
        <ele>4.7</ele>
        <time>2020-06-17T16:42:59Z</time>
      </trkpt>
      <trkpt lat="49.46172" lon="0.18654">
        <ele>4.7</ele>
        <time>2020-06-17T16:43:00Z</time>
      </trkpt>
      <trkpt lat="49.46177" lon="0.18651">
        <ele>4.7</ele>
        <time>2020-06-17T16:43:01Z</time>
      </trkpt>
      <trkpt lat="49.46182" lon="0.18648">
        <ele>4.7</ele>
        <time>2020-06-17T16:43:02Z</time>
      </trkpt>
      <trkpt lat="49.46188" lon="0.18645">
        <ele>4.7</ele>
        <time>2020-06-17T16:43:03Z</time>
      </trkpt>
      <trkpt lat="49.46193" lon="0.18642">
        <ele>4.7</ele>
        <time>2020-06-17T16:43:04Z</time>
      </trkpt>
      <trkpt lat="49.46198" lon="0.18639">
        <ele>4.7</ele>
        <time>2020-06-17T16:43:05Z</time>
      </trkpt>
      <trkpt lat="49.46203" lon="0.18636">
        <ele>4.7</ele>
        <time>2020-06-17T16:43:06Z</time>
      </trkpt>
      <trkpt lat="49.46207" lon="0.18633">
        <ele>4.7</ele>
        <time>2020-06-17T16:43:07Z</time>
      </trkpt>
      <trkpt lat="49.46211" lon="0.18631">
        <ele>4.7</ele>
        <time>2020-06-17T16:43:08Z</time>
      </trkpt>
      <trkpt lat="49.46214" lon="0.18628">
        <ele>4.7</ele>
        <time>2020-06-17T16:43:09Z</time>
      </trkpt>
      <trkpt lat="49.46219" lon="0.18627">
        <ele>4.7</ele>
        <time>2020-06-17T16:43:10Z</time>
      </trkpt>
      <trkpt lat="49.46223" lon="0.18624">
        <ele>4.6</ele>
        <time>2020-06-17T16:43:11Z</time>
      </trkpt>
      <trkpt lat="49.46227" lon="0.18623">
        <ele>4.6</ele>
        <time>2020-06-17T16:43:12Z</time>
      </trkpt>
      <trkpt lat="49.4623" lon="0.18621">
        <ele>4.6</ele>
        <time>2020-06-17T16:43:13Z</time>
      </trkpt>
      <trkpt lat="49.46234" lon="0.18619">
        <ele>4.6</ele>
        <time>2020-06-17T16:43:14Z</time>
      </trkpt>
      <trkpt lat="49.46237" lon="0.18617">
        <ele>4.6</ele>
        <time>2020-06-17T16:43:15Z</time>
      </trkpt>
      <trkpt lat="49.4624" lon="0.18614">
        <ele>4.6</ele>
        <time>2020-06-17T16:43:16Z</time>
      </trkpt>
      <trkpt lat="49.46243" lon="0.18612">
        <ele>4.6</ele>
        <time>2020-06-17T16:43:17Z</time>
      </trkpt>
      <trkpt lat="49.46246" lon="0.18608">
        <ele>4.6</ele>
        <time>2020-06-17T16:43:18Z</time>
      </trkpt>
      <trkpt lat="49.46247" lon="0.18607">
        <ele>4.6</ele>
        <time>2020-06-17T16:43:19Z</time>
      </trkpt>
      <trkpt lat="49.46249" lon="0.18606">
        <ele>4.6</ele>
        <time>2020-06-17T16:43:20Z</time>
      </trkpt>
      <trkpt lat="49.4625" lon="0.18605">
        <ele>4.6</ele>
        <time>2020-06-17T16:43:21Z</time>
      </trkpt>
      <trkpt lat="49.4625" lon="0.18605">
        <ele>4.6</ele>
        <time>2020-06-17T16:43:22Z</time>
      </trkpt>
      <trkpt lat="49.4625" lon="0.18605">
        <ele>4.6</ele>
        <time>2020-06-17T16:43:23Z</time>
      </trkpt>
      <trkpt lat="49.46249" lon="0.18604">
        <ele>4.6</ele>
        <time>2020-06-17T16:43:24Z</time>
      </trkpt>
      <trkpt lat="49.46249" lon="0.18605">
        <ele>4.6</ele>
        <time>2020-06-17T16:43:25Z</time>
      </trkpt>
      <trkpt lat="49.46249" lon="0.18605">
        <ele>4.6</ele>
        <time>2020-06-17T16:43:26Z</time>
      </trkpt>
      <trkpt lat="49.46249" lon="0.18605">
        <ele>4.6</ele>
        <time>2020-06-17T16:43:27Z</time>
      </trkpt>
      <trkpt lat="49.46249" lon="0.18605">
        <ele>4.6</ele>
        <time>2020-06-17T16:43:28Z</time>
      </trkpt>
      <trkpt lat="49.46249" lon="0.18605">
        <ele>4.6</ele>
        <time>2020-06-17T16:43:29Z</time>
      </trkpt>
      <trkpt lat="49.46249" lon="0.18605">
        <ele>4.6</ele>
        <time>2020-06-17T16:43:30Z</time>
      </trkpt>
      <trkpt lat="49.46249" lon="0.18605">
        <ele>4.6</ele>
        <time>2020-06-17T16:43:31Z</time>
      </trkpt>
      <trkpt lat="49.46249" lon="0.18605">
        <ele>4.6</ele>
        <time>2020-06-17T16:43:32Z</time>
      </trkpt>
      <trkpt lat="49.4625" lon="0.18605">
        <ele>4.6</ele>
        <time>2020-06-17T16:43:33Z</time>
      </trkpt>
      <trkpt lat="49.46254" lon="0.18603">
        <ele>4.6</ele>
        <time>2020-06-17T17:00:17Z</time>
      </trkpt>
      <trkpt lat="49.46255" lon="0.18603">
        <ele>4.6</ele>
        <time>2020-06-17T17:00:18Z</time>
      </trkpt>
      <trkpt lat="49.46258" lon="0.18601">
        <ele>4.6</ele>
        <time>2020-06-17T17:00:19Z</time>
      </trkpt>
      <trkpt lat="49.46261" lon="0.18599">
        <ele>4.7</ele>
        <time>2020-06-17T17:00:20Z</time>
      </trkpt>
      <trkpt lat="49.46265" lon="0.18598">
        <ele>4.7</ele>
        <time>2020-06-17T17:00:21Z</time>
      </trkpt>
      <trkpt lat="49.4627" lon="0.18596">
        <ele>4.7</ele>
        <time>2020-06-17T17:00:22Z</time>
      </trkpt>
      <trkpt lat="49.46274" lon="0.18594">
        <ele>4.7</ele>
        <time>2020-06-17T17:00:23Z</time>
      </trkpt>
      <trkpt lat="49.46277" lon="0.18592">
        <ele>4.7</ele>
        <time>2020-06-17T17:00:24Z</time>
      </trkpt>
      <trkpt lat="49.4628" lon="0.1859">
        <ele>4.7</ele>
        <time>2020-06-17T17:00:25Z</time>
      </trkpt>
      <trkpt lat="49.46283" lon="0.18588">
        <ele>4.7</ele>
        <time>2020-06-17T17:00:26Z</time>
      </trkpt>
      <trkpt lat="49.46286" lon="0.18586">
        <ele>4.7</ele>
        <time>2020-06-17T17:00:27Z</time>
      </trkpt>
      <trkpt lat="49.46289" lon="0.18585">
        <ele>4.7</ele>
        <time>2020-06-17T17:00:28Z</time>
      </trkpt>
      <trkpt lat="49.46293" lon="0.18583">
        <ele>4.7</ele>
        <time>2020-06-17T17:00:29Z</time>
      </trkpt>
      <trkpt lat="49.46297" lon="0.1858">
        <ele>4.7</ele>
        <time>2020-06-17T17:00:30Z</time>
      </trkpt>
      <trkpt lat="49.46301" lon="0.18577">
        <ele>4.7</ele>
        <time>2020-06-17T17:00:31Z</time>
      </trkpt>
      <trkpt lat="49.46305" lon="0.18575">
        <ele>4.7</ele>
        <time>2020-06-17T17:00:32Z</time>
      </trkpt>
      <trkpt lat="49.4631" lon="0.18572">
        <ele>4.7</ele>
        <time>2020-06-17T17:00:33Z</time>
      </trkpt>
      <trkpt lat="49.46313" lon="0.1857">
        <ele>4.7</ele>
        <time>2020-06-17T17:00:34Z</time>
      </trkpt>
      <trkpt lat="49.46318" lon="0.18567">
        <ele>4.7</ele>
        <time>2020-06-17T17:00:35Z</time>
      </trkpt>
      <trkpt lat="49.46321" lon="0.18565">
        <ele>4.7</ele>
        <time>2020-06-17T17:00:36Z</time>
      </trkpt>
      <trkpt lat="49.46325" lon="0.18562">
        <ele>4.7</ele>
        <time>2020-06-17T17:00:37Z</time>
      </trkpt>
      <trkpt lat="49.4633" lon="0.18559">
        <ele>4.7</ele>
        <time>2020-06-17T17:00:38Z</time>
      </trkpt>
      <trkpt lat="49.46334" lon="0.18556">
        <ele>4.7</ele>
        <time>2020-06-17T17:00:39Z</time>
      </trkpt>
      <trkpt lat="49.46339" lon="0.18554">
        <ele>4.7</ele>
        <time>2020-06-17T17:00:40Z</time>
      </trkpt>
      <trkpt lat="49.46343" lon="0.18551">
        <ele>4.7</ele>
        <time>2020-06-17T17:00:41Z</time>
      </trkpt>
      <trkpt lat="49.46348" lon="0.18549">
        <ele>4.7</ele>
        <time>2020-06-17T17:00:42Z</time>
      </trkpt>
      <trkpt lat="49.46352" lon="0.18546">
        <ele>4.7</ele>
        <time>2020-06-17T17:00:43Z</time>
      </trkpt>
      <trkpt lat="49.46356" lon="0.18542">
        <ele>4.7</ele>
        <time>2020-06-17T17:00:44Z</time>
      </trkpt>
      <trkpt lat="49.4636" lon="0.18539">
        <ele>4.6</ele>
        <time>2020-06-17T17:00:45Z</time>
      </trkpt>
      <trkpt lat="49.46364" lon="0.18536">
        <ele>4.6</ele>
        <time>2020-06-17T17:00:46Z</time>
      </trkpt>
      <trkpt lat="49.46368" lon="0.18533">
        <ele>4.6</ele>
        <time>2020-06-17T17:00:47Z</time>
      </trkpt>
      <trkpt lat="49.46372" lon="0.18531">
        <ele>4.6</ele>
        <time>2020-06-17T17:00:48Z</time>
      </trkpt>
      <trkpt lat="49.46377" lon="0.18528">
        <ele>4.6</ele>
        <time>2020-06-17T17:00:49Z</time>
      </trkpt>
      <trkpt lat="49.46381" lon="0.18526">
        <ele>4.6</ele>
        <time>2020-06-17T17:00:50Z</time>
      </trkpt>
      <trkpt lat="49.46385" lon="0.18524">
        <ele>4.6</ele>
        <time>2020-06-17T17:00:51Z</time>
      </trkpt>
      <trkpt lat="49.4639" lon="0.18522">
        <ele>4.6</ele>
        <time>2020-06-17T17:00:52Z</time>
      </trkpt>
      <trkpt lat="49.46393" lon="0.1852">
        <ele>4.6</ele>
        <time>2020-06-17T17:00:53Z</time>
      </trkpt>
      <trkpt lat="49.46398" lon="0.18517">
        <ele>4.6</ele>
        <time>2020-06-17T17:00:54Z</time>
      </trkpt>
      <trkpt lat="49.46402" lon="0.18514">
        <ele>4.5</ele>
        <time>2020-06-17T17:00:55Z</time>
      </trkpt>
      <trkpt lat="49.46406" lon="0.18511">
        <ele>4.6</ele>
        <time>2020-06-17T17:00:56Z</time>
      </trkpt>
      <trkpt lat="49.4641" lon="0.18509">
        <ele>4.6</ele>
        <time>2020-06-17T17:00:57Z</time>
      </trkpt>
      <trkpt lat="49.46414" lon="0.18506">
        <ele>4.6</ele>
        <time>2020-06-17T17:00:58Z</time>
      </trkpt>
      <trkpt lat="49.46419" lon="0.18503">
        <ele>4.6</ele>
        <time>2020-06-17T17:00:59Z</time>
      </trkpt>
      <trkpt lat="49.46423" lon="0.185">
        <ele>4.6</ele>
        <time>2020-06-17T17:01:00Z</time>
      </trkpt>
      <trkpt lat="49.46427" lon="0.18499">
        <ele>4.6</ele>
        <time>2020-06-17T17:01:01Z</time>
      </trkpt>
      <trkpt lat="49.46431" lon="0.18496">
        <ele>4.6</ele>
        <time>2020-06-17T17:01:02Z</time>
      </trkpt>
      <trkpt lat="49.46435" lon="0.18494">
        <ele>4.6</ele>
        <time>2020-06-17T17:01:03Z</time>
      </trkpt>
      <trkpt lat="49.46439" lon="0.18492">
        <ele>4.6</ele>
        <time>2020-06-17T17:01:04Z</time>
      </trkpt>
      <trkpt lat="49.46443" lon="0.18488">
        <ele>4.6</ele>
        <time>2020-06-17T17:01:05Z</time>
      </trkpt>
      <trkpt lat="49.46447" lon="0.18486">
        <ele>4.6</ele>
        <time>2020-06-17T17:01:06Z</time>
      </trkpt>
      <trkpt lat="49.46452" lon="0.18483">
        <ele>4.6</ele>
        <time>2020-06-17T17:01:07Z</time>
      </trkpt>
      <trkpt lat="49.46456" lon="0.18481">
        <ele>4.6</ele>
        <time>2020-06-17T17:01:08Z</time>
      </trkpt>
      <trkpt lat="49.4646" lon="0.18479">
        <ele>4.6</ele>
        <time>2020-06-17T17:01:09Z</time>
      </trkpt>
      <trkpt lat="49.46465" lon="0.18476">
        <ele>4.6</ele>
        <time>2020-06-17T17:01:10Z</time>
      </trkpt>
      <trkpt lat="49.46468" lon="0.18474">
        <ele>4.6</ele>
        <time>2020-06-17T17:01:11Z</time>
      </trkpt>
      <trkpt lat="49.46473" lon="0.18471">
        <ele>4.7</ele>
        <time>2020-06-17T17:01:12Z</time>
      </trkpt>
      <trkpt lat="49.46477" lon="0.18468">
        <ele>4.7</ele>
        <time>2020-06-17T17:01:13Z</time>
      </trkpt>
      <trkpt lat="49.46481" lon="0.18465">
        <ele>4.7</ele>
        <time>2020-06-17T17:01:14Z</time>
      </trkpt>
      <trkpt lat="49.46485" lon="0.18462">
        <ele>4.7</ele>
        <time>2020-06-17T17:01:15Z</time>
      </trkpt>
      <trkpt lat="49.46489" lon="0.18459">
        <ele>4.7</ele>
        <time>2020-06-17T17:01:16Z</time>
      </trkpt>
      <trkpt lat="49.46494" lon="0.18454">
        <ele>4.7</ele>
        <time>2020-06-17T17:01:17Z</time>
      </trkpt>
      <trkpt lat="49.46498" lon="0.18451">
        <ele>4.7</ele>
        <time>2020-06-17T17:01:18Z</time>
      </trkpt>
      <trkpt lat="49.46503" lon="0.18448">
        <ele>4.7</ele>
        <time>2020-06-17T17:01:19Z</time>
      </trkpt>
      <trkpt lat="49.46507" lon="0.18446">
        <ele>4.7</ele>
        <time>2020-06-17T17:01:20Z</time>
      </trkpt>
      <trkpt lat="49.4651" lon="0.18443">
        <ele>4.7</ele>
        <time>2020-06-17T17:01:21Z</time>
      </trkpt>
      <trkpt lat="49.46514" lon="0.18439">
        <ele>4.7</ele>
        <time>2020-06-17T17:01:22Z</time>
      </trkpt>
      <trkpt lat="49.46518" lon="0.18435">
        <ele>4.6</ele>
        <time>2020-06-17T17:01:23Z</time>
      </trkpt>
      <trkpt lat="49.46522" lon="0.1843">
        <ele>4.6</ele>
        <time>2020-06-17T17:01:24Z</time>
      </trkpt>
      <trkpt lat="49.46527" lon="0.18426">
        <ele>4.6</ele>
        <time>2020-06-17T17:01:25Z</time>
      </trkpt>
      <trkpt lat="49.46531" lon="0.18423">
        <ele>4.5</ele>
        <time>2020-06-17T17:01:26Z</time>
      </trkpt>
      <trkpt lat="49.46535" lon="0.18418">
        <ele>4.5</ele>
        <time>2020-06-17T17:01:27Z</time>
      </trkpt>
      <trkpt lat="49.46539" lon="0.18414">
        <ele>4.5</ele>
        <time>2020-06-17T17:01:28Z</time>
      </trkpt>
      <trkpt lat="49.46543" lon="0.1841">
        <ele>4.5</ele>
        <time>2020-06-17T17:01:29Z</time>
      </trkpt>
      <trkpt lat="49.46547" lon="0.18407">
        <ele>4.4</ele>
        <time>2020-06-17T17:01:30Z</time>
      </trkpt>
      <trkpt lat="49.46551" lon="0.18403">
        <ele>4.4</ele>
        <time>2020-06-17T17:01:31Z</time>
      </trkpt>
      <trkpt lat="49.46555" lon="0.184">
        <ele>4.4</ele>
        <time>2020-06-17T17:01:32Z</time>
      </trkpt>
      <trkpt lat="49.46559" lon="0.18396">
        <ele>4.4</ele>
        <time>2020-06-17T17:01:33Z</time>
      </trkpt>
      <trkpt lat="49.46563" lon="0.18391">
        <ele>4.4</ele>
        <time>2020-06-17T17:01:34Z</time>
      </trkpt>
      <trkpt lat="49.46566" lon="0.18386">
        <ele>4.4</ele>
        <time>2020-06-17T17:01:35Z</time>
      </trkpt>
      <trkpt lat="49.4657" lon="0.18382">
        <ele>4.4</ele>
        <time>2020-06-17T17:01:36Z</time>
      </trkpt>
      <trkpt lat="49.46573" lon="0.18379">
        <ele>4.4</ele>
        <time>2020-06-17T17:01:37Z</time>
      </trkpt>
      <trkpt lat="49.46577" lon="0.18376">
        <ele>4.4</ele>
        <time>2020-06-17T17:01:38Z</time>
      </trkpt>
      <trkpt lat="49.46581" lon="0.18372">
        <ele>4.4</ele>
        <time>2020-06-17T17:01:39Z</time>
      </trkpt>
      <trkpt lat="49.46585" lon="0.18367">
        <ele>4.4</ele>
        <time>2020-06-17T17:01:40Z</time>
      </trkpt>
      <trkpt lat="49.46589" lon="0.18363">
        <ele>4.4</ele>
        <time>2020-06-17T17:01:41Z</time>
      </trkpt>
      <trkpt lat="49.46593" lon="0.1836">
        <ele>4.4</ele>
        <time>2020-06-17T17:01:42Z</time>
      </trkpt>
      <trkpt lat="49.46597" lon="0.18356">
        <ele>4.4</ele>
        <time>2020-06-17T17:01:43Z</time>
      </trkpt>
      <trkpt lat="49.46601" lon="0.18352">
        <ele>4.4</ele>
        <time>2020-06-17T17:01:44Z</time>
      </trkpt>
      <trkpt lat="49.46605" lon="0.18348">
        <ele>4.5</ele>
        <time>2020-06-17T17:01:45Z</time>
      </trkpt>
      <trkpt lat="49.46609" lon="0.18345">
        <ele>4.5</ele>
        <time>2020-06-17T17:01:46Z</time>
      </trkpt>
      <trkpt lat="49.46613" lon="0.18341">
        <ele>4.5</ele>
        <time>2020-06-17T17:01:47Z</time>
      </trkpt>
      <trkpt lat="49.46618" lon="0.18339">
        <ele>4.5</ele>
        <time>2020-06-17T17:01:48Z</time>
      </trkpt>
      <trkpt lat="49.46623" lon="0.18338">
        <ele>4.5</ele>
        <time>2020-06-17T17:01:49Z</time>
      </trkpt>
      <trkpt lat="49.46628" lon="0.18335">
        <ele>4.5</ele>
        <time>2020-06-17T17:01:50Z</time>
      </trkpt>
      <trkpt lat="49.46631" lon="0.18332">
        <ele>4.5</ele>
        <time>2020-06-17T17:01:51Z</time>
      </trkpt>
      <trkpt lat="49.46636" lon="0.1833">
        <ele>4.5</ele>
        <time>2020-06-17T17:01:52Z</time>
      </trkpt>
      <trkpt lat="49.4664" lon="0.18327">
        <ele>4.5</ele>
        <time>2020-06-17T17:01:53Z</time>
      </trkpt>
      <trkpt lat="49.46644" lon="0.18323">
        <ele>4.5</ele>
        <time>2020-06-17T17:01:54Z</time>
      </trkpt>
      <trkpt lat="49.46648" lon="0.18319">
        <ele>4.5</ele>
        <time>2020-06-17T17:01:55Z</time>
      </trkpt>
      <trkpt lat="49.46652" lon="0.18317">
        <ele>4.4</ele>
        <time>2020-06-17T17:01:56Z</time>
      </trkpt>
      <trkpt lat="49.46656" lon="0.18313">
        <ele>4.4</ele>
        <time>2020-06-17T17:01:57Z</time>
      </trkpt>
      <trkpt lat="49.4666" lon="0.18309">
        <ele>4.4</ele>
        <time>2020-06-17T17:01:58Z</time>
      </trkpt>
      <trkpt lat="49.46664" lon="0.18306">
        <ele>4.4</ele>
        <time>2020-06-17T17:01:59Z</time>
      </trkpt>
      <trkpt lat="49.46668" lon="0.18302">
        <ele>4.4</ele>
        <time>2020-06-17T17:02:00Z</time>
      </trkpt>
      <trkpt lat="49.46673" lon="0.18299">
        <ele>4.4</ele>
        <time>2020-06-17T17:02:01Z</time>
      </trkpt>
      <trkpt lat="49.46678" lon="0.18296">
        <ele>4.4</ele>
        <time>2020-06-17T17:02:02Z</time>
      </trkpt>
      <trkpt lat="49.46682" lon="0.18294">
        <ele>4.4</ele>
        <time>2020-06-17T17:02:03Z</time>
      </trkpt>
      <trkpt lat="49.46687" lon="0.18292">
        <ele>4.4</ele>
        <time>2020-06-17T17:02:04Z</time>
      </trkpt>
      <trkpt lat="49.46692" lon="0.18291">
        <ele>4.4</ele>
        <time>2020-06-17T17:02:05Z</time>
      </trkpt>
      <trkpt lat="49.46697" lon="0.1829">
        <ele>4.4</ele>
        <time>2020-06-17T17:02:06Z</time>
      </trkpt>
      <trkpt lat="49.46701" lon="0.1829">
        <ele>4.4</ele>
        <time>2020-06-17T17:02:07Z</time>
      </trkpt>
      <trkpt lat="49.46706" lon="0.1829">
        <ele>4.9</ele>
        <time>2020-06-17T17:02:08Z</time>
      </trkpt>
      <trkpt lat="49.4671" lon="0.18292">
        <ele>5.1</ele>
        <time>2020-06-17T17:02:09Z</time>
      </trkpt>
      <trkpt lat="49.46715" lon="0.18293">
        <ele>5.1</ele>
        <time>2020-06-17T17:02:10Z</time>
      </trkpt>
      <trkpt lat="49.4672" lon="0.18293">
        <ele>5.1</ele>
        <time>2020-06-17T17:02:11Z</time>
      </trkpt>
      <trkpt lat="49.46724" lon="0.18294">
        <ele>5</ele>
        <time>2020-06-17T17:02:12Z</time>
      </trkpt>
      <trkpt lat="49.46728" lon="0.18293">
        <ele>5</ele>
        <time>2020-06-17T17:02:13Z</time>
      </trkpt>
      <trkpt lat="49.46733" lon="0.18292">
        <ele>4.8</ele>
        <time>2020-06-17T17:02:14Z</time>
      </trkpt>
      <trkpt lat="49.46738" lon="0.18291">
        <ele>4.7</ele>
        <time>2020-06-17T17:02:15Z</time>
      </trkpt>
      <trkpt lat="49.46743" lon="0.1829">
        <ele>4.5</ele>
        <time>2020-06-17T17:02:16Z</time>
      </trkpt>
      <trkpt lat="49.46748" lon="0.18289">
        <ele>4.4</ele>
        <time>2020-06-17T17:02:17Z</time>
      </trkpt>
      <trkpt lat="49.46752" lon="0.18288">
        <ele>4.3</ele>
        <time>2020-06-17T17:02:18Z</time>
      </trkpt>
      <trkpt lat="49.46756" lon="0.18287">
        <ele>4.2</ele>
        <time>2020-06-17T17:02:19Z</time>
      </trkpt>
      <trkpt lat="49.46761" lon="0.18286">
        <ele>4.1</ele>
        <time>2020-06-17T17:02:20Z</time>
      </trkpt>
      <trkpt lat="49.46766" lon="0.18286">
        <ele>4</ele>
        <time>2020-06-17T17:02:21Z</time>
      </trkpt>
      <trkpt lat="49.46771" lon="0.18285">
        <ele>3.9</ele>
        <time>2020-06-17T17:02:22Z</time>
      </trkpt>
      <trkpt lat="49.46776" lon="0.18284">
        <ele>3.8</ele>
        <time>2020-06-17T17:02:23Z</time>
      </trkpt>
      <trkpt lat="49.46781" lon="0.18283">
        <ele>3.7</ele>
        <time>2020-06-17T17:02:24Z</time>
      </trkpt>
      <trkpt lat="49.46786" lon="0.18283">
        <ele>3.6</ele>
        <time>2020-06-17T17:02:25Z</time>
      </trkpt>
      <trkpt lat="49.46791" lon="0.18282">
        <ele>3.6</ele>
        <time>2020-06-17T17:02:26Z</time>
      </trkpt>
      <trkpt lat="49.46796" lon="0.1828">
        <ele>3.6</ele>
        <time>2020-06-17T17:02:27Z</time>
      </trkpt>
      <trkpt lat="49.46801" lon="0.18278">
        <ele>3.5</ele>
        <time>2020-06-17T17:02:28Z</time>
      </trkpt>
      <trkpt lat="49.46807" lon="0.18277">
        <ele>3.5</ele>
        <time>2020-06-17T17:02:29Z</time>
      </trkpt>
      <trkpt lat="49.46813" lon="0.18276">
        <ele>3.5</ele>
        <time>2020-06-17T17:02:30Z</time>
      </trkpt>
      <trkpt lat="49.46819" lon="0.18274">
        <ele>3.5</ele>
        <time>2020-06-17T17:02:31Z</time>
      </trkpt>
      <trkpt lat="49.46824" lon="0.18271">
        <ele>3.5</ele>
        <time>2020-06-17T17:02:32Z</time>
      </trkpt>
      <trkpt lat="49.46829" lon="0.18269">
        <ele>3.5</ele>
        <time>2020-06-17T17:02:33Z</time>
      </trkpt>
      <trkpt lat="49.46833" lon="0.18267">
        <ele>3.5</ele>
        <time>2020-06-17T17:02:34Z</time>
      </trkpt>
      <trkpt lat="49.46839" lon="0.18265">
        <ele>3.5</ele>
        <time>2020-06-17T17:02:35Z</time>
      </trkpt>
      <trkpt lat="49.46843" lon="0.18262">
        <ele>3.6</ele>
        <time>2020-06-17T17:02:36Z</time>
      </trkpt>
      <trkpt lat="49.46847" lon="0.18259">
        <ele>3.6</ele>
        <time>2020-06-17T17:02:37Z</time>
      </trkpt>
      <trkpt lat="49.46851" lon="0.18256">
        <ele>3.6</ele>
        <time>2020-06-17T17:02:38Z</time>
      </trkpt>
      <trkpt lat="49.46856" lon="0.18255">
        <ele>3.6</ele>
        <time>2020-06-17T17:02:39Z</time>
      </trkpt>
      <trkpt lat="49.46861" lon="0.18254">
        <ele>3.6</ele>
        <time>2020-06-17T17:02:40Z</time>
      </trkpt>
      <trkpt lat="49.46865" lon="0.18253">
        <ele>3.6</ele>
        <time>2020-06-17T17:02:41Z</time>
      </trkpt>
      <trkpt lat="49.46869" lon="0.18252">
        <ele>3.6</ele>
        <time>2020-06-17T17:02:42Z</time>
      </trkpt>
      <trkpt lat="49.46874" lon="0.18251">
        <ele>3.5</ele>
        <time>2020-06-17T17:02:43Z</time>
      </trkpt>
      <trkpt lat="49.46877" lon="0.1825">
        <ele>3.5</ele>
        <time>2020-06-17T17:02:44Z</time>
      </trkpt>
      <trkpt lat="49.4688" lon="0.18248">
        <ele>3.5</ele>
        <time>2020-06-17T17:02:45Z</time>
      </trkpt>
      <trkpt lat="49.46884" lon="0.18246">
        <ele>3.5</ele>
        <time>2020-06-17T17:02:46Z</time>
      </trkpt>
      <trkpt lat="49.46889" lon="0.18244">
        <ele>3.5</ele>
        <time>2020-06-17T17:02:47Z</time>
      </trkpt>
      <trkpt lat="49.46893" lon="0.18242">
        <ele>3.5</ele>
        <time>2020-06-17T17:02:48Z</time>
      </trkpt>
      <trkpt lat="49.46897" lon="0.18239">
        <ele>3.6</ele>
        <time>2020-06-17T17:02:49Z</time>
      </trkpt>
      <trkpt lat="49.46903" lon="0.18237">
        <ele>3.7</ele>
        <time>2020-06-17T17:02:50Z</time>
      </trkpt>
      <trkpt lat="49.46907" lon="0.18233">
        <ele>3.7</ele>
        <time>2020-06-17T17:02:51Z</time>
      </trkpt>
      <trkpt lat="49.46911" lon="0.18229">
        <ele>3.8</ele>
        <time>2020-06-17T17:02:52Z</time>
      </trkpt>
      <trkpt lat="49.46915" lon="0.18226">
        <ele>3.8</ele>
        <time>2020-06-17T17:02:53Z</time>
      </trkpt>
      <trkpt lat="49.46919" lon="0.18221">
        <ele>3.9</ele>
        <time>2020-06-17T17:02:54Z</time>
      </trkpt>
      <trkpt lat="49.46923" lon="0.18218">
        <ele>3.9</ele>
        <time>2020-06-17T17:02:55Z</time>
      </trkpt>
      <trkpt lat="49.46926" lon="0.18213">
        <ele>3.9</ele>
        <time>2020-06-17T17:02:56Z</time>
      </trkpt>
      <trkpt lat="49.46931" lon="0.1821">
        <ele>4</ele>
        <time>2020-06-17T17:02:57Z</time>
      </trkpt>
      <trkpt lat="49.46934" lon="0.18207">
        <ele>4</ele>
        <time>2020-06-17T17:02:58Z</time>
      </trkpt>
      <trkpt lat="49.46938" lon="0.18204">
        <ele>4</ele>
        <time>2020-06-17T17:02:59Z</time>
      </trkpt>
      <trkpt lat="49.46941" lon="0.18203">
        <ele>4</ele>
        <time>2020-06-17T17:03:00Z</time>
      </trkpt>
      <trkpt lat="49.46944" lon="0.18202">
        <ele>4</ele>
        <time>2020-06-17T17:03:01Z</time>
      </trkpt>
      <trkpt lat="49.46949" lon="0.182">
        <ele>4</ele>
        <time>2020-06-17T17:03:02Z</time>
      </trkpt>
      <trkpt lat="49.46952" lon="0.18197">
        <ele>4</ele>
        <time>2020-06-17T17:03:03Z</time>
      </trkpt>
      <trkpt lat="49.46956" lon="0.18194">
        <ele>4</ele>
        <time>2020-06-17T17:03:04Z</time>
      </trkpt>
      <trkpt lat="49.46961" lon="0.18191">
        <ele>4</ele>
        <time>2020-06-17T17:03:05Z</time>
      </trkpt>
      <trkpt lat="49.46964" lon="0.18187">
        <ele>4</ele>
        <time>2020-06-17T17:03:06Z</time>
      </trkpt>
      <trkpt lat="49.46967" lon="0.18185">
        <ele>4</ele>
        <time>2020-06-17T17:03:07Z</time>
      </trkpt>
      <trkpt lat="49.46971" lon="0.18183">
        <ele>4</ele>
        <time>2020-06-17T17:03:08Z</time>
      </trkpt>
      <trkpt lat="49.46974" lon="0.1818">
        <ele>4</ele>
        <time>2020-06-17T17:03:09Z</time>
      </trkpt>
      <trkpt lat="49.46978" lon="0.18177">
        <ele>4</ele>
        <time>2020-06-17T17:03:10Z</time>
      </trkpt>
      <trkpt lat="49.46983" lon="0.18174">
        <ele>4</ele>
        <time>2020-06-17T17:03:11Z</time>
      </trkpt>
      <trkpt lat="49.46987" lon="0.18172">
        <ele>4</ele>
        <time>2020-06-17T17:03:12Z</time>
      </trkpt>
      <trkpt lat="49.4699" lon="0.18169">
        <ele>3.9</ele>
        <time>2020-06-17T17:03:13Z</time>
      </trkpt>
      <trkpt lat="49.46994" lon="0.18168">
        <ele>3.9</ele>
        <time>2020-06-17T17:03:14Z</time>
      </trkpt>
      <trkpt lat="49.46997" lon="0.18166">
        <ele>3.9</ele>
        <time>2020-06-17T17:03:15Z</time>
      </trkpt>
      <trkpt lat="49.47001" lon="0.18164">
        <ele>3.9</ele>
        <time>2020-06-17T17:03:16Z</time>
      </trkpt>
      <trkpt lat="49.47005" lon="0.18161">
        <ele>3.8</ele>
        <time>2020-06-17T17:03:17Z</time>
      </trkpt>
      <trkpt lat="49.47011" lon="0.1816">
        <ele>3.8</ele>
        <time>2020-06-17T17:03:18Z</time>
      </trkpt>
      <trkpt lat="49.47015" lon="0.18159">
        <ele>3.7</ele>
        <time>2020-06-17T17:03:19Z</time>
      </trkpt>
      <trkpt lat="49.4702" lon="0.18157">
        <ele>3.7</ele>
        <time>2020-06-17T17:03:20Z</time>
      </trkpt>
      <trkpt lat="49.47024" lon="0.18156">
        <ele>3.7</ele>
        <time>2020-06-17T17:03:21Z</time>
      </trkpt>
      <trkpt lat="49.47028" lon="0.18155">
        <ele>3.7</ele>
        <time>2020-06-17T17:03:22Z</time>
      </trkpt>
      <trkpt lat="49.47033" lon="0.18152">
        <ele>3.7</ele>
        <time>2020-06-17T17:03:23Z</time>
      </trkpt>
      <trkpt lat="49.47038" lon="0.18151">
        <ele>3.7</ele>
        <time>2020-06-17T17:03:24Z</time>
      </trkpt>
      <trkpt lat="49.47042" lon="0.1815">
        <ele>3.7</ele>
        <time>2020-06-17T17:03:25Z</time>
      </trkpt>
      <trkpt lat="49.47046" lon="0.18148">
        <ele>3.7</ele>
        <time>2020-06-17T17:03:26Z</time>
      </trkpt>
      <trkpt lat="49.4705" lon="0.18146">
        <ele>3.7</ele>
        <time>2020-06-17T17:03:27Z</time>
      </trkpt>
      <trkpt lat="49.47055" lon="0.18143">
        <ele>3.7</ele>
        <time>2020-06-17T17:03:28Z</time>
      </trkpt>
      <trkpt lat="49.47059" lon="0.1814">
        <ele>3.8</ele>
        <time>2020-06-17T17:03:29Z</time>
      </trkpt>
      <trkpt lat="49.47064" lon="0.18138">
        <ele>3.9</ele>
        <time>2020-06-17T17:03:30Z</time>
      </trkpt>
      <trkpt lat="49.47069" lon="0.18135">
        <ele>3.9</ele>
        <time>2020-06-17T17:03:31Z</time>
      </trkpt>
      <trkpt lat="49.47072" lon="0.18132">
        <ele>4</ele>
        <time>2020-06-17T17:03:32Z</time>
      </trkpt>
      <trkpt lat="49.47077" lon="0.18129">
        <ele>4</ele>
        <time>2020-06-17T17:03:33Z</time>
      </trkpt>
      <trkpt lat="49.47082" lon="0.18126">
        <ele>4</ele>
        <time>2020-06-17T17:03:34Z</time>
      </trkpt>
      <trkpt lat="49.47087" lon="0.18123">
        <ele>4</ele>
        <time>2020-06-17T17:03:35Z</time>
      </trkpt>
      <trkpt lat="49.47091" lon="0.18121">
        <ele>4.1</ele>
        <time>2020-06-17T17:03:36Z</time>
      </trkpt>
      <trkpt lat="49.47096" lon="0.18119">
        <ele>4.1</ele>
        <time>2020-06-17T17:03:37Z</time>
      </trkpt>
      <trkpt lat="49.471" lon="0.18117">
        <ele>4.1</ele>
        <time>2020-06-17T17:03:38Z</time>
      </trkpt>
      <trkpt lat="49.47105" lon="0.18114">
        <ele>4.1</ele>
        <time>2020-06-17T17:03:39Z</time>
      </trkpt>
      <trkpt lat="49.47108" lon="0.1811">
        <ele>4.1</ele>
        <time>2020-06-17T17:03:40Z</time>
      </trkpt>
      <trkpt lat="49.47113" lon="0.18108">
        <ele>4.1</ele>
        <time>2020-06-17T17:03:41Z</time>
      </trkpt>
      <trkpt lat="49.47117" lon="0.18106">
        <ele>4.1</ele>
        <time>2020-06-17T17:03:42Z</time>
      </trkpt>
      <trkpt lat="49.47122" lon="0.18102">
        <ele>4.1</ele>
        <time>2020-06-17T17:03:43Z</time>
      </trkpt>
      <trkpt lat="49.47127" lon="0.181">
        <ele>4.1</ele>
        <time>2020-06-17T17:03:44Z</time>
      </trkpt>
      <trkpt lat="49.47132" lon="0.18097">
        <ele>4.1</ele>
        <time>2020-06-17T17:03:45Z</time>
      </trkpt>
      <trkpt lat="49.47136" lon="0.18094">
        <ele>4.1</ele>
        <time>2020-06-17T17:03:46Z</time>
      </trkpt>
      <trkpt lat="49.47141" lon="0.18091">
        <ele>4.1</ele>
        <time>2020-06-17T17:03:47Z</time>
      </trkpt>
      <trkpt lat="49.47145" lon="0.18089">
        <ele>4.1</ele>
        <time>2020-06-17T17:03:48Z</time>
      </trkpt>
      <trkpt lat="49.4715" lon="0.18086">
        <ele>4.1</ele>
        <time>2020-06-17T17:03:49Z</time>
      </trkpt>
      <trkpt lat="49.47154" lon="0.18083">
        <ele>4.1</ele>
        <time>2020-06-17T17:03:50Z</time>
      </trkpt>
      <trkpt lat="49.47158" lon="0.18079">
        <ele>4.2</ele>
        <time>2020-06-17T17:03:51Z</time>
      </trkpt>
      <trkpt lat="49.47162" lon="0.18076">
        <ele>4.2</ele>
        <time>2020-06-17T17:03:52Z</time>
      </trkpt>
      <trkpt lat="49.47166" lon="0.18073">
        <ele>4.2</ele>
        <time>2020-06-17T17:03:53Z</time>
      </trkpt>
      <trkpt lat="49.4717" lon="0.18071">
        <ele>4.3</ele>
        <time>2020-06-17T17:03:54Z</time>
      </trkpt>
      <trkpt lat="49.47175" lon="0.18069">
        <ele>4.3</ele>
        <time>2020-06-17T17:03:55Z</time>
      </trkpt>
      <trkpt lat="49.47179" lon="0.18067">
        <ele>4.3</ele>
        <time>2020-06-17T17:03:56Z</time>
      </trkpt>
      <trkpt lat="49.47183" lon="0.18063">
        <ele>4.3</ele>
        <time>2020-06-17T17:03:57Z</time>
      </trkpt>
      <trkpt lat="49.47188" lon="0.18059">
        <ele>4.3</ele>
        <time>2020-06-17T17:03:58Z</time>
      </trkpt>
      <trkpt lat="49.47193" lon="0.18056">
        <ele>4.3</ele>
        <time>2020-06-17T17:03:59Z</time>
      </trkpt>
      <trkpt lat="49.47197" lon="0.18052">
        <ele>4.2</ele>
        <time>2020-06-17T17:04:00Z</time>
      </trkpt>
      <trkpt lat="49.47202" lon="0.18048">
        <ele>4.2</ele>
        <time>2020-06-17T17:04:01Z</time>
      </trkpt>
      <trkpt lat="49.47208" lon="0.18045">
        <ele>4.2</ele>
        <time>2020-06-17T17:04:02Z</time>
      </trkpt>
      <trkpt lat="49.47213" lon="0.18042">
        <ele>4.1</ele>
        <time>2020-06-17T17:04:03Z</time>
      </trkpt>
      <trkpt lat="49.47218" lon="0.1804">
        <ele>4.1</ele>
        <time>2020-06-17T17:04:04Z</time>
      </trkpt>
      <trkpt lat="49.47223" lon="0.18037">
        <ele>4</ele>
        <time>2020-06-17T17:04:05Z</time>
      </trkpt>
      <trkpt lat="49.47226" lon="0.18033">
        <ele>4</ele>
        <time>2020-06-17T17:04:06Z</time>
      </trkpt>
      <trkpt lat="49.47231" lon="0.1803">
        <ele>4</ele>
        <time>2020-06-17T17:04:07Z</time>
      </trkpt>
      <trkpt lat="49.47236" lon="0.18027">
        <ele>4</ele>
        <time>2020-06-17T17:04:08Z</time>
      </trkpt>
      <trkpt lat="49.4724" lon="0.18024">
        <ele>4</ele>
        <time>2020-06-17T17:04:09Z</time>
      </trkpt>
      <trkpt lat="49.47245" lon="0.18021">
        <ele>4</ele>
        <time>2020-06-17T17:04:10Z</time>
      </trkpt>
      <trkpt lat="49.4725" lon="0.18018">
        <ele>4</ele>
        <time>2020-06-17T17:04:11Z</time>
      </trkpt>
      <trkpt lat="49.47254" lon="0.18014">
        <ele>4</ele>
        <time>2020-06-17T17:04:12Z</time>
      </trkpt>
      <trkpt lat="49.47259" lon="0.18012">
        <ele>4</ele>
        <time>2020-06-17T17:04:13Z</time>
      </trkpt>
      <trkpt lat="49.47264" lon="0.18008">
        <ele>4</ele>
        <time>2020-06-17T17:04:14Z</time>
      </trkpt>
      <trkpt lat="49.47269" lon="0.18006">
        <ele>4</ele>
        <time>2020-06-17T17:04:15Z</time>
      </trkpt>
      <trkpt lat="49.47274" lon="0.18003">
        <ele>4</ele>
        <time>2020-06-17T17:04:16Z</time>
      </trkpt>
      <trkpt lat="49.47279" lon="0.18">
        <ele>4</ele>
        <time>2020-06-17T17:04:17Z</time>
      </trkpt>
      <trkpt lat="49.47284" lon="0.17998">
        <ele>4.1</ele>
        <time>2020-06-17T17:04:18Z</time>
      </trkpt>
      <trkpt lat="49.47289" lon="0.17995">
        <ele>4.1</ele>
        <time>2020-06-17T17:04:19Z</time>
      </trkpt>
      <trkpt lat="49.47292" lon="0.17993">
        <ele>4.1</ele>
        <time>2020-06-17T17:04:20Z</time>
      </trkpt>
      <trkpt lat="49.47297" lon="0.17989">
        <ele>4.2</ele>
        <time>2020-06-17T17:04:21Z</time>
      </trkpt>
      <trkpt lat="49.47301" lon="0.17986">
        <ele>4.2</ele>
        <time>2020-06-17T17:04:22Z</time>
      </trkpt>
      <trkpt lat="49.47306" lon="0.17982">
        <ele>4.3</ele>
        <time>2020-06-17T17:04:23Z</time>
      </trkpt>
      <trkpt lat="49.4731" lon="0.17978">
        <ele>4.3</ele>
        <time>2020-06-17T17:04:24Z</time>
      </trkpt>
      <trkpt lat="49.47315" lon="0.17974">
        <ele>4.4</ele>
        <time>2020-06-17T17:04:25Z</time>
      </trkpt>
      <trkpt lat="49.47319" lon="0.1797">
        <ele>4.5</ele>
        <time>2020-06-17T17:04:26Z</time>
      </trkpt>
      <trkpt lat="49.47323" lon="0.17965">
        <ele>4.6</ele>
        <time>2020-06-17T17:04:27Z</time>
      </trkpt>
      <trkpt lat="49.47325" lon="0.1796">
        <ele>4.7</ele>
        <time>2020-06-17T17:04:28Z</time>
      </trkpt>
      <trkpt lat="49.47327" lon="0.17954">
        <ele>4.8</ele>
        <time>2020-06-17T17:04:29Z</time>
      </trkpt>
      <trkpt lat="49.47328" lon="0.17947">
        <ele>4.9</ele>
        <time>2020-06-17T17:04:30Z</time>
      </trkpt>
      <trkpt lat="49.47328" lon="0.1794">
        <ele>5</ele>
        <time>2020-06-17T17:04:31Z</time>
      </trkpt>
      <trkpt lat="49.47327" lon="0.17932">
        <ele>5.1</ele>
        <time>2020-06-17T17:04:32Z</time>
      </trkpt>
      <trkpt lat="49.47325" lon="0.17926">
        <ele>5.2</ele>
        <time>2020-06-17T17:04:33Z</time>
      </trkpt>
      <trkpt lat="49.47323" lon="0.17921">
        <ele>5.2</ele>
        <time>2020-06-17T17:04:34Z</time>
      </trkpt>
      <trkpt lat="49.47319" lon="0.17916">
        <ele>5.3</ele>
        <time>2020-06-17T17:04:35Z</time>
      </trkpt>
      <trkpt lat="49.47316" lon="0.17912">
        <ele>5.4</ele>
        <time>2020-06-17T17:04:36Z</time>
      </trkpt>
      <trkpt lat="49.47313" lon="0.17908">
        <ele>5.4</ele>
        <time>2020-06-17T17:04:37Z</time>
      </trkpt>
      <trkpt lat="49.4731" lon="0.17904">
        <ele>5.4</ele>
        <time>2020-06-17T17:04:38Z</time>
      </trkpt>
      <trkpt lat="49.47307" lon="0.17901">
        <ele>5.4</ele>
        <time>2020-06-17T17:04:39Z</time>
      </trkpt>
      <trkpt lat="49.47306" lon="0.17896">
        <ele>5.5</ele>
        <time>2020-06-17T17:04:40Z</time>
      </trkpt>
      <trkpt lat="49.47305" lon="0.17889">
        <ele>5.5</ele>
        <time>2020-06-17T17:04:41Z</time>
      </trkpt>
      <trkpt lat="49.47305" lon="0.17881">
        <ele>5.5</ele>
        <time>2020-06-17T17:04:42Z</time>
      </trkpt>
      <trkpt lat="49.47306" lon="0.17873">
        <ele>5.5</ele>
        <time>2020-06-17T17:04:43Z</time>
      </trkpt>
      <trkpt lat="49.47307" lon="0.17866">
        <ele>5.4</ele>
        <time>2020-06-17T17:04:44Z</time>
      </trkpt>
      <trkpt lat="49.47309" lon="0.1786">
        <ele>5.4</ele>
        <time>2020-06-17T17:04:45Z</time>
      </trkpt>
      <trkpt lat="49.47312" lon="0.17853">
        <ele>5.4</ele>
        <time>2020-06-17T17:04:46Z</time>
      </trkpt>
      <trkpt lat="49.47314" lon="0.17847">
        <ele>5.4</ele>
        <time>2020-06-17T17:04:47Z</time>
      </trkpt>
      <trkpt lat="49.47317" lon="0.17841">
        <ele>5.4</ele>
        <time>2020-06-17T17:04:48Z</time>
      </trkpt>
      <trkpt lat="49.4732" lon="0.17836">
        <ele>5.4</ele>
        <time>2020-06-17T17:04:49Z</time>
      </trkpt>
      <trkpt lat="49.47323" lon="0.1783">
        <ele>5.4</ele>
        <time>2020-06-17T17:04:50Z</time>
      </trkpt>
      <trkpt lat="49.47326" lon="0.17824">
        <ele>5.3</ele>
        <time>2020-06-17T17:04:51Z</time>
      </trkpt>
      <trkpt lat="49.47329" lon="0.17818">
        <ele>5.3</ele>
        <time>2020-06-17T17:04:52Z</time>
      </trkpt>
      <trkpt lat="49.47332" lon="0.17812">
        <ele>5.3</ele>
        <time>2020-06-17T17:04:53Z</time>
      </trkpt>
      <trkpt lat="49.47335" lon="0.17806">
        <ele>5.3</ele>
        <time>2020-06-17T17:04:54Z</time>
      </trkpt>
      <trkpt lat="49.47338" lon="0.178">
        <ele>5.3</ele>
        <time>2020-06-17T17:04:55Z</time>
      </trkpt>
      <trkpt lat="49.4734" lon="0.17794">
        <ele>5.3</ele>
        <time>2020-06-17T17:04:56Z</time>
      </trkpt>
      <trkpt lat="49.47343" lon="0.17787">
        <ele>5.3</ele>
        <time>2020-06-17T17:04:57Z</time>
      </trkpt>
      <trkpt lat="49.47346" lon="0.17781">
        <ele>5.3</ele>
        <time>2020-06-17T17:04:58Z</time>
      </trkpt>
      <trkpt lat="49.47349" lon="0.17775">
        <ele>5.2</ele>
        <time>2020-06-17T17:04:59Z</time>
      </trkpt>
      <trkpt lat="49.47352" lon="0.17769">
        <ele>5.2</ele>
        <time>2020-06-17T17:05:00Z</time>
      </trkpt>
      <trkpt lat="49.47355" lon="0.17763">
        <ele>5.2</ele>
        <time>2020-06-17T17:05:01Z</time>
      </trkpt>
      <trkpt lat="49.47358" lon="0.17756">
        <ele>5.2</ele>
        <time>2020-06-17T17:05:02Z</time>
      </trkpt>
      <trkpt lat="49.47361" lon="0.1775">
        <ele>5.2</ele>
        <time>2020-06-17T17:05:03Z</time>
      </trkpt>
      <trkpt lat="49.47364" lon="0.17744">
        <ele>5.2</ele>
        <time>2020-06-17T17:05:04Z</time>
      </trkpt>
      <trkpt lat="49.47368" lon="0.17739">
        <ele>5.2</ele>
        <time>2020-06-17T17:05:05Z</time>
      </trkpt>
      <trkpt lat="49.47371" lon="0.17734">
        <ele>5.2</ele>
        <time>2020-06-17T17:05:06Z</time>
      </trkpt>
      <trkpt lat="49.47375" lon="0.17728">
        <ele>5.3</ele>
        <time>2020-06-17T17:05:07Z</time>
      </trkpt>
      <trkpt lat="49.47378" lon="0.17723">
        <ele>5.3</ele>
        <time>2020-06-17T17:05:08Z</time>
      </trkpt>
      <trkpt lat="49.47381" lon="0.17719">
        <ele>5.3</ele>
        <time>2020-06-17T17:05:09Z</time>
      </trkpt>
      <trkpt lat="49.47384" lon="0.17714">
        <ele>5.3</ele>
        <time>2020-06-17T17:05:10Z</time>
      </trkpt>
      <trkpt lat="49.47388" lon="0.17711">
        <ele>5.4</ele>
        <time>2020-06-17T17:05:11Z</time>
      </trkpt>
      <trkpt lat="49.47392" lon="0.1771">
        <ele>5.4</ele>
        <time>2020-06-17T17:05:12Z</time>
      </trkpt>
      <trkpt lat="49.47395" lon="0.17707">
        <ele>5.4</ele>
        <time>2020-06-17T17:05:13Z</time>
      </trkpt>
      <trkpt lat="49.47397" lon="0.17704">
        <ele>5.5</ele>
        <time>2020-06-17T17:05:14Z</time>
      </trkpt>
      <trkpt lat="49.474" lon="0.17701">
        <ele>5.5</ele>
        <time>2020-06-17T17:05:15Z</time>
      </trkpt>
      <trkpt lat="49.47402" lon="0.17697">
        <ele>5.6</ele>
        <time>2020-06-17T17:05:16Z</time>
      </trkpt>
      <trkpt lat="49.47402" lon="0.17693">
        <ele>5.6</ele>
        <time>2020-06-17T17:05:17Z</time>
      </trkpt>
      <trkpt lat="49.47402" lon="0.17688">
        <ele>5.8</ele>
        <time>2020-06-17T17:05:18Z</time>
      </trkpt>
      <trkpt lat="49.47404" lon="0.17684">
        <ele>5.9</ele>
        <time>2020-06-17T17:05:19Z</time>
      </trkpt>
      <trkpt lat="49.47407" lon="0.1768">
        <ele>5.9</ele>
        <time>2020-06-17T17:05:20Z</time>
      </trkpt>
      <trkpt lat="49.4741" lon="0.17677">
        <ele>5.9</ele>
        <time>2020-06-17T17:05:21Z</time>
      </trkpt>
      <trkpt lat="49.47413" lon="0.17674">
        <ele>5.8</ele>
        <time>2020-06-17T17:05:22Z</time>
      </trkpt>
      <trkpt lat="49.47417" lon="0.17671">
        <ele>5.8</ele>
        <time>2020-06-17T17:05:23Z</time>
      </trkpt>
      <trkpt lat="49.4742" lon="0.17668">
        <ele>5.7</ele>
        <time>2020-06-17T17:05:24Z</time>
      </trkpt>
      <trkpt lat="49.47424" lon="0.17665">
        <ele>5.6</ele>
        <time>2020-06-17T17:05:25Z</time>
      </trkpt>
      <trkpt lat="49.47428" lon="0.17663">
        <ele>5.6</ele>
        <time>2020-06-17T17:05:26Z</time>
      </trkpt>
      <trkpt lat="49.47431" lon="0.17659">
        <ele>5.5</ele>
        <time>2020-06-17T17:05:27Z</time>
      </trkpt>
      <trkpt lat="49.47435" lon="0.17655">
        <ele>5.5</ele>
        <time>2020-06-17T17:05:28Z</time>
      </trkpt>
      <trkpt lat="49.47438" lon="0.17654">
        <ele>5.5</ele>
        <time>2020-06-17T17:05:29Z</time>
      </trkpt>
      <trkpt lat="49.47441" lon="0.17651">
        <ele>5.5</ele>
        <time>2020-06-17T17:05:30Z</time>
      </trkpt>
      <trkpt lat="49.47444" lon="0.17648">
        <ele>5.6</ele>
        <time>2020-06-17T17:05:31Z</time>
      </trkpt>
      <trkpt lat="49.47448" lon="0.17647">
        <ele>5.6</ele>
        <time>2020-06-17T17:05:32Z</time>
      </trkpt>
      <trkpt lat="49.47451" lon="0.17646">
        <ele>5.6</ele>
        <time>2020-06-17T17:05:33Z</time>
      </trkpt>
      <trkpt lat="49.47453" lon="0.17644">
        <ele>5.6</ele>
        <time>2020-06-17T17:05:34Z</time>
      </trkpt>
      <trkpt lat="49.47457" lon="0.17643">
        <ele>5.6</ele>
        <time>2020-06-17T17:05:35Z</time>
      </trkpt>
      <trkpt lat="49.4746" lon="0.17642">
        <ele>5.6</ele>
        <time>2020-06-17T17:05:36Z</time>
      </trkpt>
      <trkpt lat="49.47463" lon="0.17639">
        <ele>5.6</ele>
        <time>2020-06-17T17:05:37Z</time>
      </trkpt>
      <trkpt lat="49.47466" lon="0.17638">
        <ele>5.6</ele>
        <time>2020-06-17T17:05:38Z</time>
      </trkpt>
      <trkpt lat="49.4747" lon="0.17637">
        <ele>5.6</ele>
        <time>2020-06-17T17:05:39Z</time>
      </trkpt>
      <trkpt lat="49.47473" lon="0.17636">
        <ele>5.6</ele>
        <time>2020-06-17T17:05:40Z</time>
      </trkpt>
      <trkpt lat="49.47476" lon="0.17635">
        <ele>5.6</ele>
        <time>2020-06-17T17:05:41Z</time>
      </trkpt>
      <trkpt lat="49.47479" lon="0.17632">
        <ele>5.6</ele>
        <time>2020-06-17T17:05:42Z</time>
      </trkpt>
      <trkpt lat="49.47482" lon="0.17629">
        <ele>5.6</ele>
        <time>2020-06-17T17:05:43Z</time>
      </trkpt>
      <trkpt lat="49.47486" lon="0.17628">
        <ele>5.6</ele>
        <time>2020-06-17T17:05:44Z</time>
      </trkpt>
      <trkpt lat="49.47489" lon="0.17626">
        <ele>5.6</ele>
        <time>2020-06-17T17:05:45Z</time>
      </trkpt>
      <trkpt lat="49.47492" lon="0.17623">
        <ele>5.6</ele>
        <time>2020-06-17T17:05:46Z</time>
      </trkpt>
      <trkpt lat="49.47496" lon="0.17621">
        <ele>5.6</ele>
        <time>2020-06-17T17:05:47Z</time>
      </trkpt>
      <trkpt lat="49.47499" lon="0.1762">
        <ele>5.7</ele>
        <time>2020-06-17T17:05:48Z</time>
      </trkpt>
      <trkpt lat="49.47502" lon="0.17618">
        <ele>5.7</ele>
        <time>2020-06-17T17:05:49Z</time>
      </trkpt>
      <trkpt lat="49.47505" lon="0.17615">
        <ele>5.8</ele>
        <time>2020-06-17T17:05:50Z</time>
      </trkpt>
      <trkpt lat="49.47507" lon="0.17612">
        <ele>5.8</ele>
        <time>2020-06-17T17:05:51Z</time>
      </trkpt>
      <trkpt lat="49.47508" lon="0.17608">
        <ele>5.8</ele>
        <time>2020-06-17T17:05:52Z</time>
      </trkpt>
      <trkpt lat="49.47509" lon="0.17603">
        <ele>5.8</ele>
        <time>2020-06-17T17:05:53Z</time>
      </trkpt>
      <trkpt lat="49.47509" lon="0.17601">
        <ele>5.9</ele>
        <time>2020-06-17T17:05:54Z</time>
      </trkpt>
      <trkpt lat="49.47509" lon="0.17595">
        <ele>6.2</ele>
        <time>2020-06-17T17:05:55Z</time>
      </trkpt>
      <trkpt lat="49.4751" lon="0.17594">
        <ele>6.2</ele>
        <time>2020-06-17T17:05:56Z</time>
      </trkpt>
      <trkpt lat="49.4751" lon="0.17588">
        <ele>6.3</ele>
        <time>2020-06-17T17:05:57Z</time>
      </trkpt>
      <trkpt lat="49.4751" lon="0.17586">
        <ele>6.3</ele>
        <time>2020-06-17T17:05:58Z</time>
      </trkpt>
      <trkpt lat="49.4751" lon="0.17581">
        <ele>6.3</ele>
        <time>2020-06-17T17:05:59Z</time>
      </trkpt>
      <trkpt lat="49.47509" lon="0.1758">
        <ele>6.3</ele>
        <time>2020-06-17T17:06:00Z</time>
      </trkpt>
      <trkpt lat="49.47508" lon="0.17576">
        <ele>6.3</ele>
        <time>2020-06-17T17:06:01Z</time>
      </trkpt>
      <trkpt lat="49.47506" lon="0.17571">
        <ele>6.2</ele>
        <time>2020-06-17T17:06:02Z</time>
      </trkpt>
      <trkpt lat="49.47505" lon="0.17567">
        <ele>6.2</ele>
        <time>2020-06-17T17:06:03Z</time>
      </trkpt>
      <trkpt lat="49.47503" lon="0.17562">
        <ele>6.2</ele>
        <time>2020-06-17T17:06:04Z</time>
      </trkpt>
      <trkpt lat="49.47502" lon="0.17558">
        <ele>6.2</ele>
        <time>2020-06-17T17:06:05Z</time>
      </trkpt>
      <trkpt lat="49.475" lon="0.17554">
        <ele>6.2</ele>
        <time>2020-06-17T17:06:06Z</time>
      </trkpt>
      <trkpt lat="49.47499" lon="0.17549">
        <ele>6.1</ele>
        <time>2020-06-17T17:06:07Z</time>
      </trkpt>
      <trkpt lat="49.47497" lon="0.17546">
        <ele>6.1</ele>
        <time>2020-06-17T17:06:08Z</time>
      </trkpt>
      <trkpt lat="49.47496" lon="0.17542">
        <ele>6.1</ele>
        <time>2020-06-17T17:06:09Z</time>
      </trkpt>
      <trkpt lat="49.47495" lon="0.17538">
        <ele>6</ele>
        <time>2020-06-17T17:06:10Z</time>
      </trkpt>
      <trkpt lat="49.47495" lon="0.17533">
        <ele>6</ele>
        <time>2020-06-17T17:06:11Z</time>
      </trkpt>
      <trkpt lat="49.47494" lon="0.17528">
        <ele>6</ele>
        <time>2020-06-17T17:06:12Z</time>
      </trkpt>
      <trkpt lat="49.47494" lon="0.17524">
        <ele>5.9</ele>
        <time>2020-06-17T17:06:13Z</time>
      </trkpt>
      <trkpt lat="49.47494" lon="0.17518">
        <ele>5.9</ele>
        <time>2020-06-17T17:06:14Z</time>
      </trkpt>
      <trkpt lat="49.47494" lon="0.17516">
        <ele>5.9</ele>
        <time>2020-06-17T17:06:15Z</time>
      </trkpt>
      <trkpt lat="49.47495" lon="0.17512">
        <ele>5.8</ele>
        <time>2020-06-17T17:06:16Z</time>
      </trkpt>
      <trkpt lat="49.47497" lon="0.17507">
        <ele>5.8</ele>
        <time>2020-06-17T17:06:17Z</time>
      </trkpt>
      <trkpt lat="49.47497" lon="0.17506">
        <ele>5.8</ele>
        <time>2020-06-17T17:06:18Z</time>
      </trkpt>
      <trkpt lat="49.475" lon="0.17503">
        <ele>5.9</ele>
        <time>2020-06-17T17:06:19Z</time>
      </trkpt>
      <trkpt lat="49.47501" lon="0.17502">
        <ele>5.9</ele>
        <time>2020-06-17T17:06:20Z</time>
      </trkpt>
      <trkpt lat="49.47503" lon="0.17501">
        <ele>5.9</ele>
        <time>2020-06-17T17:06:21Z</time>
      </trkpt>
      <trkpt lat="49.47504" lon="0.17501">
        <ele>5.9</ele>
        <time>2020-06-17T17:06:22Z</time>
      </trkpt>
      <trkpt lat="49.47508" lon="0.175">
        <ele>6</ele>
        <time>2020-06-17T17:06:23Z</time>
      </trkpt>
      <trkpt lat="49.47509" lon="0.175">
        <ele>6</ele>
        <time>2020-06-17T17:06:24Z</time>
      </trkpt>
      <trkpt lat="49.47511" lon="0.17499">
        <ele>6</ele>
        <time>2020-06-17T17:06:25Z</time>
      </trkpt>
      <trkpt lat="49.47512" lon="0.17498">
        <ele>6</ele>
        <time>2020-06-17T17:06:26Z</time>
      </trkpt>
      <trkpt lat="49.47512" lon="0.17498">
        <ele>6</ele>
        <time>2020-06-17T17:06:27Z</time>
      </trkpt>
      <trkpt lat="49.47514" lon="0.17494">
        <ele>6.1</ele>
        <time>2020-06-17T17:06:28Z</time>
      </trkpt>
      <trkpt lat="49.47516" lon="0.1749">
        <ele>6.1</ele>
        <time>2020-06-17T17:06:29Z</time>
      </trkpt>
      <trkpt lat="49.47518" lon="0.17488">
        <ele>6.2</ele>
        <time>2020-06-17T17:06:30Z</time>
      </trkpt>
      <trkpt lat="49.47519" lon="0.17487">
        <ele>6.2</ele>
        <time>2020-06-17T17:06:31Z</time>
      </trkpt>
      <trkpt lat="49.47523" lon="0.17487">
        <ele>6.2</ele>
        <time>2020-06-17T17:06:32Z</time>
      </trkpt>
      <trkpt lat="49.47524" lon="0.17486">
        <ele>6.2</ele>
        <time>2020-06-17T17:06:33Z</time>
      </trkpt>
      <trkpt lat="49.47526" lon="0.17484">
        <ele>6.3</ele>
        <time>2020-06-17T17:06:34Z</time>
      </trkpt>
      <trkpt lat="49.47527" lon="0.17482">
        <ele>6.3</ele>
        <time>2020-06-17T17:06:35Z</time>
      </trkpt>
      <trkpt lat="49.4753" lon="0.1748">
        <ele>6.3</ele>
        <time>2020-06-17T17:06:36Z</time>
      </trkpt>
      <trkpt lat="49.47531" lon="0.17479">
        <ele>6.3</ele>
        <time>2020-06-17T17:06:37Z</time>
      </trkpt>
      <trkpt lat="49.47534" lon="0.17477">
        <ele>6.4</ele>
        <time>2020-06-17T17:06:38Z</time>
      </trkpt>
      <trkpt lat="49.47535" lon="0.17476">
        <ele>6.4</ele>
        <time>2020-06-17T17:06:39Z</time>
      </trkpt>
      <trkpt lat="49.47538" lon="0.17476">
        <ele>6.4</ele>
        <time>2020-06-17T17:06:40Z</time>
      </trkpt>
      <trkpt lat="49.4754" lon="0.17477">
        <ele>6.5</ele>
        <time>2020-06-17T17:06:41Z</time>
      </trkpt>
      <trkpt lat="49.47542" lon="0.17473">
        <ele>6.5</ele>
        <time>2020-06-17T17:06:42Z</time>
      </trkpt>
      <trkpt lat="49.47542" lon="0.17471">
        <ele>6.5</ele>
        <time>2020-06-17T17:06:43Z</time>
      </trkpt>
      <trkpt lat="49.47545" lon="0.17472">
        <ele>6.5</ele>
        <time>2020-06-17T17:06:44Z</time>
      </trkpt>
      <trkpt lat="49.47546" lon="0.17471">
        <ele>6.6</ele>
        <time>2020-06-17T17:06:45Z</time>
      </trkpt>
      <trkpt lat="49.47546" lon="0.17471">
        <ele>6.6</ele>
        <time>2020-06-17T17:06:46Z</time>
      </trkpt>
      <trkpt lat="49.47547" lon="0.17471">
        <ele>6.6</ele>
        <time>2020-06-17T17:06:47Z</time>
      </trkpt>
      <trkpt lat="49.47547" lon="0.17471">
        <ele>6.6</ele>
        <time>2020-06-17T17:06:48Z</time>
      </trkpt>
      <trkpt lat="49.47547" lon="0.17471">
        <ele>6.6</ele>
        <time>2020-06-17T17:06:49Z</time>
      </trkpt>
      <trkpt lat="49.47547" lon="0.1747">
        <ele>6.6</ele>
        <time>2020-06-17T17:06:50Z</time>
      </trkpt>
      <trkpt lat="49.47546" lon="0.17469">
        <ele>6.6</ele>
        <time>2020-06-17T17:06:51Z</time>
      </trkpt>
      <trkpt lat="49.47545" lon="0.17467">
        <ele>6.6</ele>
        <time>2020-06-17T17:06:52Z</time>
      </trkpt>
      <trkpt lat="49.47545" lon="0.17467">
        <ele>6.6</ele>
        <time>2020-06-17T17:06:53Z</time>
      </trkpt>
      <trkpt lat="49.47544" lon="0.17466">
        <ele>6.7</ele>
        <time>2020-06-17T17:06:54Z</time>
      </trkpt>
      <trkpt lat="49.47544" lon="0.17465">
        <ele>6.7</ele>
        <time>2020-06-17T17:06:55Z</time>
      </trkpt>
      <trkpt lat="49.47556" lon="0.17465">
        <ele>6.8</ele>
        <time>2020-06-17T17:07:52Z</time>
      </trkpt>
      <trkpt lat="49.47558" lon="0.17463">
        <ele>6.8</ele>
        <time>2020-06-17T17:07:53Z</time>
      </trkpt>
      <trkpt lat="49.47562" lon="0.17462">
        <ele>6.9</ele>
        <time>2020-06-17T17:07:54Z</time>
      </trkpt>
      <trkpt lat="49.47566" lon="0.17461">
        <ele>6.9</ele>
        <time>2020-06-17T17:07:55Z</time>
      </trkpt>
      <trkpt lat="49.4757" lon="0.1746">
        <ele>6.9</ele>
        <time>2020-06-17T17:07:56Z</time>
      </trkpt>
      <trkpt lat="49.47574" lon="0.17461">
        <ele>6.9</ele>
        <time>2020-06-17T17:07:57Z</time>
      </trkpt>
      <trkpt lat="49.47578" lon="0.17463">
        <ele>6.9</ele>
        <time>2020-06-17T17:07:58Z</time>
      </trkpt>
      <trkpt lat="49.47583" lon="0.17464">
        <ele>7</ele>
        <time>2020-06-17T17:07:59Z</time>
      </trkpt>
      <trkpt lat="49.47587" lon="0.17467">
        <ele>7</ele>
        <time>2020-06-17T17:08:00Z</time>
      </trkpt>
      <trkpt lat="49.47592" lon="0.17469">
        <ele>7</ele>
        <time>2020-06-17T17:08:01Z</time>
      </trkpt>
      <trkpt lat="49.47596" lon="0.17471">
        <ele>7</ele>
        <time>2020-06-17T17:08:02Z</time>
      </trkpt>
      <trkpt lat="49.476" lon="0.17473">
        <ele>7.1</ele>
        <time>2020-06-17T17:08:03Z</time>
      </trkpt>
      <trkpt lat="49.47604" lon="0.17474">
        <ele>7.1</ele>
        <time>2020-06-17T17:08:04Z</time>
      </trkpt>
      <trkpt lat="49.47609" lon="0.17472">
        <ele>7.1</ele>
        <time>2020-06-17T17:08:05Z</time>
      </trkpt>
      <trkpt lat="49.47616" lon="0.17471">
        <ele>7.2</ele>
        <time>2020-06-17T17:08:06Z</time>
      </trkpt>
      <trkpt lat="49.47621" lon="0.17468">
        <ele>7.2</ele>
        <time>2020-06-17T17:08:07Z</time>
      </trkpt>
      <trkpt lat="49.47626" lon="0.17466">
        <ele>7.3</ele>
        <time>2020-06-17T17:08:08Z</time>
      </trkpt>
      <trkpt lat="49.47632" lon="0.17463">
        <ele>7.3</ele>
        <time>2020-06-17T17:08:09Z</time>
      </trkpt>
      <trkpt lat="49.47641" lon="0.1746">
        <ele>7.4</ele>
        <time>2020-06-17T17:08:10Z</time>
      </trkpt>
      <trkpt lat="49.47647" lon="0.17456">
        <ele>7.4</ele>
        <time>2020-06-17T17:08:11Z</time>
      </trkpt>
      <trkpt lat="49.47652" lon="0.17453">
        <ele>7.5</ele>
        <time>2020-06-17T17:08:12Z</time>
      </trkpt>
      <trkpt lat="49.47658" lon="0.1745">
        <ele>7.5</ele>
        <time>2020-06-17T17:08:13Z</time>
      </trkpt>
      <trkpt lat="49.47662" lon="0.17447">
        <ele>7.5</ele>
        <time>2020-06-17T17:08:14Z</time>
      </trkpt>
      <trkpt lat="49.47667" lon="0.17443">
        <ele>7.6</ele>
        <time>2020-06-17T17:08:15Z</time>
      </trkpt>
      <trkpt lat="49.47674" lon="0.17441">
        <ele>7.6</ele>
        <time>2020-06-17T17:08:16Z</time>
      </trkpt>
      <trkpt lat="49.47677" lon="0.17437">
        <ele>7.6</ele>
        <time>2020-06-17T17:08:17Z</time>
      </trkpt>
      <trkpt lat="49.47683" lon="0.17436">
        <ele>7.6</ele>
        <time>2020-06-17T17:08:18Z</time>
      </trkpt>
      <trkpt lat="49.47688" lon="0.17435">
        <ele>7.7</ele>
        <time>2020-06-17T17:08:19Z</time>
      </trkpt>
      <trkpt lat="49.47691" lon="0.17432">
        <ele>7.8</ele>
        <time>2020-06-17T17:08:20Z</time>
      </trkpt>
      <trkpt lat="49.47693" lon="0.1743">
        <ele>7.8</ele>
        <time>2020-06-17T17:08:21Z</time>
      </trkpt>
      <trkpt lat="49.47696" lon="0.17428">
        <ele>7.8</ele>
        <time>2020-06-17T17:08:22Z</time>
      </trkpt>
      <trkpt lat="49.477" lon="0.17426">
        <ele>7.9</ele>
        <time>2020-06-17T17:08:23Z</time>
      </trkpt>
      <trkpt lat="49.47703" lon="0.17423">
        <ele>7.8</ele>
        <time>2020-06-17T17:08:24Z</time>
      </trkpt>
      <trkpt lat="49.47706" lon="0.17419">
        <ele>7.7</ele>
        <time>2020-06-17T17:08:25Z</time>
      </trkpt>
      <trkpt lat="49.47708" lon="0.17417">
        <ele>7.6</ele>
        <time>2020-06-17T17:08:26Z</time>
      </trkpt>
      <trkpt lat="49.47709" lon="0.17412">
        <ele>7.5</ele>
        <time>2020-06-17T17:08:27Z</time>
      </trkpt>
      <trkpt lat="49.47708" lon="0.17406">
        <ele>7.4</ele>
        <time>2020-06-17T17:08:28Z</time>
      </trkpt>
      <trkpt lat="49.47707" lon="0.17397">
        <ele>7.2</ele>
        <time>2020-06-17T17:08:29Z</time>
      </trkpt>
      <trkpt lat="49.47705" lon="0.1739">
        <ele>7</ele>
        <time>2020-06-17T17:08:30Z</time>
      </trkpt>
      <trkpt lat="49.47703" lon="0.17383">
        <ele>6.9</ele>
        <time>2020-06-17T17:08:31Z</time>
      </trkpt>
      <trkpt lat="49.477" lon="0.17375">
        <ele>6.7</ele>
        <time>2020-06-17T17:08:32Z</time>
      </trkpt>
      <trkpt lat="49.47698" lon="0.17369">
        <ele>6.5</ele>
        <time>2020-06-17T17:08:33Z</time>
      </trkpt>
      <trkpt lat="49.47697" lon="0.17362">
        <ele>6.3</ele>
        <time>2020-06-17T17:08:34Z</time>
      </trkpt>
      <trkpt lat="49.47696" lon="0.17356">
        <ele>6.1</ele>
        <time>2020-06-17T17:08:35Z</time>
      </trkpt>
      <trkpt lat="49.47694" lon="0.17349">
        <ele>5.9</ele>
        <time>2020-06-17T17:08:36Z</time>
      </trkpt>
      <trkpt lat="49.47693" lon="0.17341">
        <ele>5.7</ele>
        <time>2020-06-17T17:08:37Z</time>
      </trkpt>
      <trkpt lat="49.47691" lon="0.17333">
        <ele>5.5</ele>
        <time>2020-06-17T17:08:38Z</time>
      </trkpt>
      <trkpt lat="49.47689" lon="0.17325">
        <ele>5.3</ele>
        <time>2020-06-17T17:08:39Z</time>
      </trkpt>
      <trkpt lat="49.47686" lon="0.17318">
        <ele>5.3</ele>
        <time>2020-06-17T17:08:40Z</time>
      </trkpt>
      <trkpt lat="49.47684" lon="0.17311">
        <ele>5.3</ele>
        <time>2020-06-17T17:08:41Z</time>
      </trkpt>
      <trkpt lat="49.47681" lon="0.17302">
        <ele>5.3</ele>
        <time>2020-06-17T17:08:42Z</time>
      </trkpt>
      <trkpt lat="49.47679" lon="0.17298">
        <ele>5.3</ele>
        <time>2020-06-17T17:08:43Z</time>
      </trkpt>
      <trkpt lat="49.47676" lon="0.17289">
        <ele>5.3</ele>
        <time>2020-06-17T17:08:44Z</time>
      </trkpt>
      <trkpt lat="49.47673" lon="0.17282">
        <ele>5.2</ele>
        <time>2020-06-17T17:08:45Z</time>
      </trkpt>
      <trkpt lat="49.47672" lon="0.17276">
        <ele>5.2</ele>
        <time>2020-06-17T17:08:46Z</time>
      </trkpt>
      <trkpt lat="49.4767" lon="0.17269">
        <ele>5.1</ele>
        <time>2020-06-17T17:08:47Z</time>
      </trkpt>
      <trkpt lat="49.47668" lon="0.17262">
        <ele>5</ele>
        <time>2020-06-17T17:08:48Z</time>
      </trkpt>
      <trkpt lat="49.47667" lon="0.17256">
        <ele>4.9</ele>
        <time>2020-06-17T17:08:49Z</time>
      </trkpt>
      <trkpt lat="49.47666" lon="0.1725">
        <ele>4.9</ele>
        <time>2020-06-17T17:08:50Z</time>
      </trkpt>
      <trkpt lat="49.47666" lon="0.17244">
        <ele>4.8</ele>
        <time>2020-06-17T17:08:51Z</time>
      </trkpt>
      <trkpt lat="49.47665" lon="0.17238">
        <ele>4.8</ele>
        <time>2020-06-17T17:08:52Z</time>
      </trkpt>
      <trkpt lat="49.47664" lon="0.17233">
        <ele>4.7</ele>
        <time>2020-06-17T17:08:53Z</time>
      </trkpt>
      <trkpt lat="49.47664" lon="0.17228">
        <ele>4.8</ele>
        <time>2020-06-17T17:08:54Z</time>
      </trkpt>
      <trkpt lat="49.47668" lon="0.17227">
        <ele>4.8</ele>
        <time>2020-06-17T17:08:55Z</time>
      </trkpt>
      <trkpt lat="49.47672" lon="0.17225">
        <ele>4.9</ele>
        <time>2020-06-17T17:08:56Z</time>
      </trkpt>
      <trkpt lat="49.47675" lon="0.17223">
        <ele>4.9</ele>
        <time>2020-06-17T17:08:57Z</time>
      </trkpt>
      <trkpt lat="49.47678" lon="0.17221">
        <ele>5</ele>
        <time>2020-06-17T17:08:58Z</time>
      </trkpt>
      <trkpt lat="49.47681" lon="0.17219">
        <ele>5.2</ele>
        <time>2020-06-17T17:08:59Z</time>
      </trkpt>
      <trkpt lat="49.47684" lon="0.17217">
        <ele>5.4</ele>
        <time>2020-06-17T17:09:00Z</time>
      </trkpt>
      <trkpt lat="49.47687" lon="0.17216">
        <ele>5.6</ele>
        <time>2020-06-17T17:09:01Z</time>
      </trkpt>
      <trkpt lat="49.47689" lon="0.17215">
        <ele>5.5</ele>
        <time>2020-06-17T17:09:02Z</time>
      </trkpt>
      <trkpt lat="49.47693" lon="0.17214">
        <ele>5.4</ele>
        <time>2020-06-17T17:09:03Z</time>
      </trkpt>
      <trkpt lat="49.47697" lon="0.17213">
        <ele>5.4</ele>
        <time>2020-06-17T17:09:04Z</time>
      </trkpt>
      <trkpt lat="49.47698" lon="0.17212">
        <ele>5.4</ele>
        <time>2020-06-17T17:09:05Z</time>
      </trkpt>
      <trkpt lat="49.47702" lon="0.17212">
        <ele>5.3</ele>
        <time>2020-06-17T17:09:06Z</time>
      </trkpt>
      <trkpt lat="49.47706" lon="0.17211">
        <ele>5.3</ele>
        <time>2020-06-17T17:09:07Z</time>
      </trkpt>
      <trkpt lat="49.47709" lon="0.17209">
        <ele>5.2</ele>
        <time>2020-06-17T17:09:08Z</time>
      </trkpt>
      <trkpt lat="49.47713" lon="0.17206">
        <ele>5.1</ele>
        <time>2020-06-17T17:09:09Z</time>
      </trkpt>
      <trkpt lat="49.47716" lon="0.17203">
        <ele>5.1</ele>
        <time>2020-06-17T17:09:10Z</time>
      </trkpt>
      <trkpt lat="49.47721" lon="0.172">
        <ele>5</ele>
        <time>2020-06-17T17:09:11Z</time>
      </trkpt>
      <trkpt lat="49.47724" lon="0.17197">
        <ele>5</ele>
        <time>2020-06-17T17:09:12Z</time>
      </trkpt>
      <trkpt lat="49.47727" lon="0.17192">
        <ele>4.9</ele>
        <time>2020-06-17T17:09:13Z</time>
      </trkpt>
      <trkpt lat="49.47731" lon="0.17184">
        <ele>4.8</ele>
        <time>2020-06-17T17:09:14Z</time>
      </trkpt>
      <trkpt lat="49.47736" lon="0.17178">
        <ele>4.7</ele>
        <time>2020-06-17T17:09:15Z</time>
      </trkpt>
      <trkpt lat="49.4774" lon="0.17172">
        <ele>4.6</ele>
        <time>2020-06-17T17:09:16Z</time>
      </trkpt>
      <trkpt lat="49.47743" lon="0.17167">
        <ele>4.6</ele>
        <time>2020-06-17T17:09:17Z</time>
      </trkpt>
      <trkpt lat="49.47748" lon="0.1716">
        <ele>4.5</ele>
        <time>2020-06-17T17:09:18Z</time>
      </trkpt>
      <trkpt lat="49.47752" lon="0.17153">
        <ele>4.4</ele>
        <time>2020-06-17T17:09:19Z</time>
      </trkpt>
      <trkpt lat="49.47757" lon="0.17148">
        <ele>4.4</ele>
        <time>2020-06-17T17:09:20Z</time>
      </trkpt>
      <trkpt lat="49.47761" lon="0.17141">
        <ele>4.4</ele>
        <time>2020-06-17T17:09:21Z</time>
      </trkpt>
      <trkpt lat="49.47765" lon="0.17135">
        <ele>4.4</ele>
        <time>2020-06-17T17:09:22Z</time>
      </trkpt>
      <trkpt lat="49.47769" lon="0.17129">
        <ele>4.4</ele>
        <time>2020-06-17T17:09:23Z</time>
      </trkpt>
      <trkpt lat="49.47772" lon="0.17123">
        <ele>4.4</ele>
        <time>2020-06-17T17:09:24Z</time>
      </trkpt>
      <trkpt lat="49.47776" lon="0.17116">
        <ele>4.3</ele>
        <time>2020-06-17T17:09:25Z</time>
      </trkpt>
      <trkpt lat="49.4778" lon="0.17109">
        <ele>4.3</ele>
        <time>2020-06-17T17:09:26Z</time>
      </trkpt>
      <trkpt lat="49.47784" lon="0.17103">
        <ele>4.3</ele>
        <time>2020-06-17T17:09:27Z</time>
      </trkpt>
      <trkpt lat="49.47788" lon="0.17097">
        <ele>4.2</ele>
        <time>2020-06-17T17:09:28Z</time>
      </trkpt>
      <trkpt lat="49.47792" lon="0.1709">
        <ele>4.2</ele>
        <time>2020-06-17T17:09:29Z</time>
      </trkpt>
      <trkpt lat="49.47796" lon="0.17084">
        <ele>4.2</ele>
        <time>2020-06-17T17:09:30Z</time>
      </trkpt>
      <trkpt lat="49.478" lon="0.17078">
        <ele>4.2</ele>
        <time>2020-06-17T17:09:31Z</time>
      </trkpt>
      <trkpt lat="49.47805" lon="0.17073">
        <ele>4.2</ele>
        <time>2020-06-17T17:09:32Z</time>
      </trkpt>
      <trkpt lat="49.47809" lon="0.17066">
        <ele>4.2</ele>
        <time>2020-06-17T17:09:33Z</time>
      </trkpt>
      <trkpt lat="49.47813" lon="0.1706">
        <ele>4.1</ele>
        <time>2020-06-17T17:09:34Z</time>
      </trkpt>
      <trkpt lat="49.47818" lon="0.17054">
        <ele>4.1</ele>
        <time>2020-06-17T17:09:35Z</time>
      </trkpt>
      <trkpt lat="49.47822" lon="0.17048">
        <ele>4.1</ele>
        <time>2020-06-17T17:09:36Z</time>
      </trkpt>
      <trkpt lat="49.47826" lon="0.17043">
        <ele>4</ele>
        <time>2020-06-17T17:09:37Z</time>
      </trkpt>
      <trkpt lat="49.47831" lon="0.17039">
        <ele>4</ele>
        <time>2020-06-17T17:09:38Z</time>
      </trkpt>
      <trkpt lat="49.47835" lon="0.17034">
        <ele>3.9</ele>
        <time>2020-06-17T17:09:39Z</time>
      </trkpt>
      <trkpt lat="49.47839" lon="0.1703">
        <ele>3.9</ele>
        <time>2020-06-17T17:09:40Z</time>
      </trkpt>
      <trkpt lat="49.47844" lon="0.17025">
        <ele>3.8</ele>
        <time>2020-06-17T17:09:41Z</time>
      </trkpt>
      <trkpt lat="49.47848" lon="0.1702">
        <ele>3.8</ele>
        <time>2020-06-17T17:09:42Z</time>
      </trkpt>
      <trkpt lat="49.47853" lon="0.17015">
        <ele>3.7</ele>
        <time>2020-06-17T17:09:43Z</time>
      </trkpt>
      <trkpt lat="49.47858" lon="0.1701">
        <ele>3.5</ele>
        <time>2020-06-17T17:09:44Z</time>
      </trkpt>
      <trkpt lat="49.47863" lon="0.17005">
        <ele>3.4</ele>
        <time>2020-06-17T17:09:45Z</time>
      </trkpt>
      <trkpt lat="49.47868" lon="0.17">
        <ele>3.1</ele>
        <time>2020-06-17T17:09:46Z</time>
      </trkpt>
      <trkpt lat="49.47873" lon="0.16994">
        <ele>2.7</ele>
        <time>2020-06-17T17:09:47Z</time>
      </trkpt>
      <trkpt lat="49.47879" lon="0.16988">
        <ele>2.3</ele>
        <time>2020-06-17T17:09:48Z</time>
      </trkpt>
      <trkpt lat="49.47885" lon="0.16982">
        <ele>1.9</ele>
        <time>2020-06-17T17:09:49Z</time>
      </trkpt>
      <trkpt lat="49.47891" lon="0.16975">
        <ele>1.4</ele>
        <time>2020-06-17T17:09:50Z</time>
      </trkpt>
      <trkpt lat="49.47898" lon="0.16968">
        <ele>0.9</ele>
        <time>2020-06-17T17:09:51Z</time>
      </trkpt>
      <trkpt lat="49.47904" lon="0.16959">
        <ele>0.3</ele>
        <time>2020-06-17T17:09:52Z</time>
      </trkpt>
      <trkpt lat="49.47911" lon="0.1695">
        <ele>-0.2</ele>
        <time>2020-06-17T17:09:53Z</time>
      </trkpt>
      <trkpt lat="49.47917" lon="0.16941">
        <ele>-0.5</ele>
        <time>2020-06-17T17:09:54Z</time>
      </trkpt>
      <trkpt lat="49.47923" lon="0.16933">
        <ele>-0.8</ele>
        <time>2020-06-17T17:09:55Z</time>
      </trkpt>
      <trkpt lat="49.47931" lon="0.16924">
        <ele>-1.1</ele>
        <time>2020-06-17T17:09:56Z</time>
      </trkpt>
      <trkpt lat="49.47936" lon="0.16919">
        <ele>-1.3</ele>
        <time>2020-06-17T17:09:57Z</time>
      </trkpt>
      <trkpt lat="49.47943" lon="0.16911">
        <ele>-1.4</ele>
        <time>2020-06-17T17:09:58Z</time>
      </trkpt>
      <trkpt lat="49.47954" lon="0.16898">
        <ele>-1.5</ele>
        <time>2020-06-17T17:09:59Z</time>
      </trkpt>
      <trkpt lat="49.47957" lon="0.16894">
        <ele>-1.5</ele>
        <time>2020-06-17T17:10:00Z</time>
      </trkpt>
      <trkpt lat="49.47964" lon="0.16886">
        <ele>-1.6</ele>
        <time>2020-06-17T17:10:01Z</time>
      </trkpt>
      <trkpt lat="49.47974" lon="0.16876">
        <ele>-1.5</ele>
        <time>2020-06-17T17:10:02Z</time>
      </trkpt>
      <trkpt lat="49.4798" lon="0.16867">
        <ele>-1.2</ele>
        <time>2020-06-17T17:10:03Z</time>
      </trkpt>
      <trkpt lat="49.47988" lon="0.16858">
        <ele>-0.8</ele>
        <time>2020-06-17T17:10:04Z</time>
      </trkpt>
      <trkpt lat="49.47997" lon="0.16846">
        <ele>5.2</ele>
        <time>2020-06-17T17:10:05Z</time>
      </trkpt>
      <trkpt lat="49.48005" lon="0.16842">
        <ele>0.6</ele>
        <time>2020-06-17T17:10:06Z</time>
      </trkpt>
      <trkpt lat="49.48012" lon="0.16836">
        <ele>1.2</ele>
        <time>2020-06-17T17:10:07Z</time>
      </trkpt>
      <trkpt lat="49.48018" lon="0.1683">
        <ele>1.7</ele>
        <time>2020-06-17T17:10:08Z</time>
      </trkpt>
      <trkpt lat="49.48024" lon="0.16824">
        <ele>2.2</ele>
        <time>2020-06-17T17:10:09Z</time>
      </trkpt>
      <trkpt lat="49.4803" lon="0.16819">
        <ele>2.7</ele>
        <time>2020-06-17T17:10:10Z</time>
      </trkpt>
      <trkpt lat="49.48035" lon="0.16814">
        <ele>3</ele>
        <time>2020-06-17T17:10:11Z</time>
      </trkpt>
      <trkpt lat="49.4804" lon="0.1681">
        <ele>3.3</ele>
        <time>2020-06-17T17:10:12Z</time>
      </trkpt>
      <trkpt lat="49.48044" lon="0.16805">
        <ele>3.6</ele>
        <time>2020-06-17T17:10:13Z</time>
      </trkpt>
      <trkpt lat="49.48049" lon="0.16801">
        <ele>3.8</ele>
        <time>2020-06-17T17:10:14Z</time>
      </trkpt>
      <trkpt lat="49.48053" lon="0.16797">
        <ele>4</ele>
        <time>2020-06-17T17:10:15Z</time>
      </trkpt>
      <trkpt lat="49.48057" lon="0.16793">
        <ele>4.1</ele>
        <time>2020-06-17T17:10:16Z</time>
      </trkpt>
      <trkpt lat="49.4806" lon="0.16788">
        <ele>4.2</ele>
        <time>2020-06-17T17:10:17Z</time>
      </trkpt>
      <trkpt lat="49.48064" lon="0.16784">
        <ele>4.3</ele>
        <time>2020-06-17T17:10:18Z</time>
      </trkpt>
      <trkpt lat="49.48069" lon="0.1678">
        <ele>4.3</ele>
        <time>2020-06-17T17:10:19Z</time>
      </trkpt>
      <trkpt lat="49.48073" lon="0.16775">
        <ele>4.4</ele>
        <time>2020-06-17T17:10:20Z</time>
      </trkpt>
      <trkpt lat="49.48078" lon="0.1677">
        <ele>4.4</ele>
        <time>2020-06-17T17:10:21Z</time>
      </trkpt>
      <trkpt lat="49.48082" lon="0.16765">
        <ele>4.4</ele>
        <time>2020-06-17T17:10:22Z</time>
      </trkpt>
      <trkpt lat="49.48087" lon="0.1676">
        <ele>4.4</ele>
        <time>2020-06-17T17:10:23Z</time>
      </trkpt>
      <trkpt lat="49.48092" lon="0.16756">
        <ele>4.4</ele>
        <time>2020-06-17T17:10:24Z</time>
      </trkpt>
      <trkpt lat="49.48097" lon="0.16751">
        <ele>4.4</ele>
        <time>2020-06-17T17:10:25Z</time>
      </trkpt>
      <trkpt lat="49.48102" lon="0.16747">
        <ele>4.4</ele>
        <time>2020-06-17T17:10:26Z</time>
      </trkpt>
      <trkpt lat="49.48107" lon="0.16741">
        <ele>4.4</ele>
        <time>2020-06-17T17:10:27Z</time>
      </trkpt>
      <trkpt lat="49.48112" lon="0.16737">
        <ele>4.4</ele>
        <time>2020-06-17T17:10:28Z</time>
      </trkpt>
      <trkpt lat="49.48116" lon="0.16732">
        <ele>4.4</ele>
        <time>2020-06-17T17:10:29Z</time>
      </trkpt>
      <trkpt lat="49.48121" lon="0.16726">
        <ele>4.5</ele>
        <time>2020-06-17T17:10:30Z</time>
      </trkpt>
      <trkpt lat="49.48126" lon="0.1672">
        <ele>4.5</ele>
        <time>2020-06-17T17:10:31Z</time>
      </trkpt>
      <trkpt lat="49.48131" lon="0.16714">
        <ele>4.5</ele>
        <time>2020-06-17T17:10:32Z</time>
      </trkpt>
      <trkpt lat="49.48136" lon="0.16709">
        <ele>4.5</ele>
        <time>2020-06-17T17:10:33Z</time>
      </trkpt>
      <trkpt lat="49.48141" lon="0.16703">
        <ele>4.6</ele>
        <time>2020-06-17T17:10:34Z</time>
      </trkpt>
      <trkpt lat="49.48146" lon="0.16698">
        <ele>4.6</ele>
        <time>2020-06-17T17:10:35Z</time>
      </trkpt>
      <trkpt lat="49.48151" lon="0.16692">
        <ele>4.5</ele>
        <time>2020-06-17T17:10:36Z</time>
      </trkpt>
      <trkpt lat="49.48156" lon="0.16686">
        <ele>4.5</ele>
        <time>2020-06-17T17:10:37Z</time>
      </trkpt>
      <trkpt lat="49.48161" lon="0.16682">
        <ele>4.5</ele>
        <time>2020-06-17T17:10:38Z</time>
      </trkpt>
      <trkpt lat="49.48166" lon="0.16677">
        <ele>4.4</ele>
        <time>2020-06-17T17:10:39Z</time>
      </trkpt>
      <trkpt lat="49.48171" lon="0.16672">
        <ele>4.4</ele>
        <time>2020-06-17T17:10:40Z</time>
      </trkpt>
      <trkpt lat="49.48177" lon="0.16666">
        <ele>4.5</ele>
        <time>2020-06-17T17:10:41Z</time>
      </trkpt>
      <trkpt lat="49.48182" lon="0.1666">
        <ele>4.5</ele>
        <time>2020-06-17T17:10:42Z</time>
      </trkpt>
      <trkpt lat="49.48187" lon="0.16655">
        <ele>4.5</ele>
        <time>2020-06-17T17:10:43Z</time>
      </trkpt>
      <trkpt lat="49.48192" lon="0.16651">
        <ele>4.5</ele>
        <time>2020-06-17T17:10:44Z</time>
      </trkpt>
      <trkpt lat="49.48197" lon="0.16646">
        <ele>4.6</ele>
        <time>2020-06-17T17:10:45Z</time>
      </trkpt>
      <trkpt lat="49.48202" lon="0.16641">
        <ele>4.6</ele>
        <time>2020-06-17T17:10:46Z</time>
      </trkpt>
      <trkpt lat="49.48207" lon="0.16635">
        <ele>4.7</ele>
        <time>2020-06-17T17:10:47Z</time>
      </trkpt>
      <trkpt lat="49.48211" lon="0.16631">
        <ele>4.7</ele>
        <time>2020-06-17T17:10:48Z</time>
      </trkpt>
      <trkpt lat="49.48215" lon="0.16627">
        <ele>4.6</ele>
        <time>2020-06-17T17:10:49Z</time>
      </trkpt>
      <trkpt lat="49.48219" lon="0.16623">
        <ele>4.5</ele>
        <time>2020-06-17T17:10:50Z</time>
      </trkpt>
      <trkpt lat="49.48224" lon="0.16619">
        <ele>4.5</ele>
        <time>2020-06-17T17:10:51Z</time>
      </trkpt>
      <trkpt lat="49.48228" lon="0.16615">
        <ele>4.4</ele>
        <time>2020-06-17T17:10:52Z</time>
      </trkpt>
      <trkpt lat="49.48233" lon="0.1661">
        <ele>4.4</ele>
        <time>2020-06-17T17:10:53Z</time>
      </trkpt>
      <trkpt lat="49.48238" lon="0.16606">
        <ele>4.3</ele>
        <time>2020-06-17T17:10:54Z</time>
      </trkpt>
      <trkpt lat="49.48243" lon="0.16602">
        <ele>4.3</ele>
        <time>2020-06-17T17:10:55Z</time>
      </trkpt>
      <trkpt lat="49.48247" lon="0.16598">
        <ele>4.2</ele>
        <time>2020-06-17T17:10:56Z</time>
      </trkpt>
      <trkpt lat="49.48252" lon="0.16594">
        <ele>4.2</ele>
        <time>2020-06-17T17:10:57Z</time>
      </trkpt>
      <trkpt lat="49.48256" lon="0.16591">
        <ele>4.2</ele>
        <time>2020-06-17T17:10:58Z</time>
      </trkpt>
      <trkpt lat="49.48261" lon="0.16586">
        <ele>4.1</ele>
        <time>2020-06-17T17:10:59Z</time>
      </trkpt>
      <trkpt lat="49.48265" lon="0.16582">
        <ele>4.1</ele>
        <time>2020-06-17T17:11:00Z</time>
      </trkpt>
      <trkpt lat="49.4827" lon="0.16579">
        <ele>4</ele>
        <time>2020-06-17T17:11:01Z</time>
      </trkpt>
      <trkpt lat="49.48275" lon="0.16574">
        <ele>4</ele>
        <time>2020-06-17T17:11:02Z</time>
      </trkpt>
      <trkpt lat="49.48279" lon="0.1657">
        <ele>4</ele>
        <time>2020-06-17T17:11:03Z</time>
      </trkpt>
      <trkpt lat="49.48283" lon="0.16568">
        <ele>4</ele>
        <time>2020-06-17T17:11:04Z</time>
      </trkpt>
      <trkpt lat="49.48286" lon="0.16566">
        <ele>4</ele>
        <time>2020-06-17T17:11:05Z</time>
      </trkpt>
      <trkpt lat="49.48291" lon="0.16566">
        <ele>4</ele>
        <time>2020-06-17T17:11:06Z</time>
      </trkpt>
      <trkpt lat="49.48295" lon="0.16567">
        <ele>4</ele>
        <time>2020-06-17T17:11:07Z</time>
      </trkpt>
      <trkpt lat="49.48299" lon="0.16571">
        <ele>4</ele>
        <time>2020-06-17T17:11:08Z</time>
      </trkpt>
      <trkpt lat="49.48305" lon="0.16574">
        <ele>4</ele>
        <time>2020-06-17T17:11:09Z</time>
      </trkpt>
      <trkpt lat="49.4831" lon="0.16577">
        <ele>4.1</ele>
        <time>2020-06-17T17:11:10Z</time>
      </trkpt>
      <trkpt lat="49.48315" lon="0.16578">
        <ele>4.1</ele>
        <time>2020-06-17T17:11:11Z</time>
      </trkpt>
      <trkpt lat="49.4832" lon="0.16577">
        <ele>4.1</ele>
        <time>2020-06-17T17:11:12Z</time>
      </trkpt>
      <trkpt lat="49.48326" lon="0.16576">
        <ele>4.1</ele>
        <time>2020-06-17T17:11:13Z</time>
      </trkpt>
      <trkpt lat="49.48331" lon="0.16572">
        <ele>4.1</ele>
        <time>2020-06-17T17:11:14Z</time>
      </trkpt>
      <trkpt lat="49.48335" lon="0.16568">
        <ele>4.1</ele>
        <time>2020-06-17T17:11:15Z</time>
      </trkpt>
      <trkpt lat="49.48339" lon="0.16561">
        <ele>4.1</ele>
        <time>2020-06-17T17:11:16Z</time>
      </trkpt>
      <trkpt lat="49.48341" lon="0.16554">
        <ele>4.1</ele>
        <time>2020-06-17T17:11:17Z</time>
      </trkpt>
      <trkpt lat="49.48344" lon="0.16548">
        <ele>4.1</ele>
        <time>2020-06-17T17:11:18Z</time>
      </trkpt>
      <trkpt lat="49.48346" lon="0.16541">
        <ele>4.1</ele>
        <time>2020-06-17T17:11:19Z</time>
      </trkpt>
      <trkpt lat="49.48347" lon="0.16537">
        <ele>4.1</ele>
        <time>2020-06-17T17:11:20Z</time>
      </trkpt>
      <trkpt lat="49.48348" lon="0.1653">
        <ele>4.1</ele>
        <time>2020-06-17T17:11:21Z</time>
      </trkpt>
      <trkpt lat="49.4835" lon="0.16523">
        <ele>4.1</ele>
        <time>2020-06-17T17:11:22Z</time>
      </trkpt>
      <trkpt lat="49.48352" lon="0.16516">
        <ele>4.1</ele>
        <time>2020-06-17T17:11:23Z</time>
      </trkpt>
      <trkpt lat="49.48355" lon="0.1651">
        <ele>4.1</ele>
        <time>2020-06-17T17:11:24Z</time>
      </trkpt>
      <trkpt lat="49.48359" lon="0.16505">
        <ele>4.1</ele>
        <time>2020-06-17T17:11:25Z</time>
      </trkpt>
      <trkpt lat="49.48362" lon="0.16502">
        <ele>4</ele>
        <time>2020-06-17T17:11:26Z</time>
      </trkpt>
      <trkpt lat="49.48366" lon="0.16498">
        <ele>4</ele>
        <time>2020-06-17T17:11:27Z</time>
      </trkpt>
      <trkpt lat="49.48369" lon="0.16493">
        <ele>4</ele>
        <time>2020-06-17T17:11:28Z</time>
      </trkpt>
      <trkpt lat="49.48373" lon="0.16489">
        <ele>4</ele>
        <time>2020-06-17T17:11:29Z</time>
      </trkpt>
      <trkpt lat="49.48376" lon="0.16487">
        <ele>4</ele>
        <time>2020-06-17T17:11:30Z</time>
      </trkpt>
      <trkpt lat="49.48379" lon="0.16483">
        <ele>4</ele>
        <time>2020-06-17T17:11:31Z</time>
      </trkpt>
      <trkpt lat="49.48381" lon="0.1648">
        <ele>4.1</ele>
        <time>2020-06-17T17:11:32Z</time>
      </trkpt>
      <trkpt lat="49.48385" lon="0.16477">
        <ele>4.1</ele>
        <time>2020-06-17T17:11:33Z</time>
      </trkpt>
      <trkpt lat="49.48388" lon="0.16475">
        <ele>4.1</ele>
        <time>2020-06-17T17:11:34Z</time>
      </trkpt>
      <trkpt lat="49.48391" lon="0.16472">
        <ele>4.1</ele>
        <time>2020-06-17T17:11:35Z</time>
      </trkpt>
      <trkpt lat="49.48394" lon="0.16469">
        <ele>4.1</ele>
        <time>2020-06-17T17:11:36Z</time>
      </trkpt>
      <trkpt lat="49.48397" lon="0.16466">
        <ele>4.2</ele>
        <time>2020-06-17T17:11:37Z</time>
      </trkpt>
      <trkpt lat="49.484" lon="0.16463">
        <ele>4.2</ele>
        <time>2020-06-17T17:11:38Z</time>
      </trkpt>
      <trkpt lat="49.48403" lon="0.1646">
        <ele>4.2</ele>
        <time>2020-06-17T17:11:39Z</time>
      </trkpt>
      <trkpt lat="49.48408" lon="0.16455">
        <ele>4.3</ele>
        <time>2020-06-17T17:11:40Z</time>
      </trkpt>
      <trkpt lat="49.48412" lon="0.16451">
        <ele>4.4</ele>
        <time>2020-06-17T17:11:41Z</time>
      </trkpt>
      <trkpt lat="49.48415" lon="0.16449">
        <ele>4.4</ele>
        <time>2020-06-17T17:11:42Z</time>
      </trkpt>
      <trkpt lat="49.48418" lon="0.16446">
        <ele>4.5</ele>
        <time>2020-06-17T17:11:43Z</time>
      </trkpt>
      <trkpt lat="49.48422" lon="0.16443">
        <ele>4.5</ele>
        <time>2020-06-17T17:11:44Z</time>
      </trkpt>
      <trkpt lat="49.48425" lon="0.16441">
        <ele>4.5</ele>
        <time>2020-06-17T17:11:45Z</time>
      </trkpt>
      <trkpt lat="49.48429" lon="0.16438">
        <ele>4.6</ele>
        <time>2020-06-17T17:11:46Z</time>
      </trkpt>
      <trkpt lat="49.48433" lon="0.16435">
        <ele>4.6</ele>
        <time>2020-06-17T17:11:47Z</time>
      </trkpt>
      <trkpt lat="49.48437" lon="0.16432">
        <ele>4.7</ele>
        <time>2020-06-17T17:11:48Z</time>
      </trkpt>
      <trkpt lat="49.48442" lon="0.16428">
        <ele>4.7</ele>
        <time>2020-06-17T17:11:49Z</time>
      </trkpt>
      <trkpt lat="49.48447" lon="0.16425">
        <ele>4.8</ele>
        <time>2020-06-17T17:11:50Z</time>
      </trkpt>
      <trkpt lat="49.48451" lon="0.16421">
        <ele>4.8</ele>
        <time>2020-06-17T17:11:51Z</time>
      </trkpt>
      <trkpt lat="49.48455" lon="0.16418">
        <ele>4.9</ele>
        <time>2020-06-17T17:11:52Z</time>
      </trkpt>
      <trkpt lat="49.4846" lon="0.16413">
        <ele>4.9</ele>
        <time>2020-06-17T17:11:53Z</time>
      </trkpt>
      <trkpt lat="49.48465" lon="0.16411">
        <ele>4.9</ele>
        <time>2020-06-17T17:11:54Z</time>
      </trkpt>
      <trkpt lat="49.48469" lon="0.16409">
        <ele>5</ele>
        <time>2020-06-17T17:11:55Z</time>
      </trkpt>
      <trkpt lat="49.48473" lon="0.16407">
        <ele>5</ele>
        <time>2020-06-17T17:11:56Z</time>
      </trkpt>
      <trkpt lat="49.48478" lon="0.16403">
        <ele>5</ele>
        <time>2020-06-17T17:11:57Z</time>
      </trkpt>
      <trkpt lat="49.48483" lon="0.164">
        <ele>5.1</ele>
        <time>2020-06-17T17:11:58Z</time>
      </trkpt>
      <trkpt lat="49.48488" lon="0.16397">
        <ele>5.1</ele>
        <time>2020-06-17T17:11:59Z</time>
      </trkpt>
      <trkpt lat="49.48492" lon="0.16394">
        <ele>5.1</ele>
        <time>2020-06-17T17:12:00Z</time>
      </trkpt>
      <trkpt lat="49.48496" lon="0.16392">
        <ele>5.1</ele>
        <time>2020-06-17T17:12:01Z</time>
      </trkpt>
      <trkpt lat="49.485" lon="0.1639">
        <ele>5.1</ele>
        <time>2020-06-17T17:12:02Z</time>
      </trkpt>
      <trkpt lat="49.48504" lon="0.16388">
        <ele>5.1</ele>
        <time>2020-06-17T17:12:03Z</time>
      </trkpt>
      <trkpt lat="49.48507" lon="0.16385">
        <ele>5.1</ele>
        <time>2020-06-17T17:12:04Z</time>
      </trkpt>
      <trkpt lat="49.48511" lon="0.16384">
        <ele>5</ele>
        <time>2020-06-17T17:12:05Z</time>
      </trkpt>
      <trkpt lat="49.48515" lon="0.16383">
        <ele>5</ele>
        <time>2020-06-17T17:12:06Z</time>
      </trkpt>
      <trkpt lat="49.48519" lon="0.16381">
        <ele>4.9</ele>
        <time>2020-06-17T17:12:07Z</time>
      </trkpt>
      <trkpt lat="49.48523" lon="0.16379">
        <ele>4.8</ele>
        <time>2020-06-17T17:12:08Z</time>
      </trkpt>
      <trkpt lat="49.48526" lon="0.16375">
        <ele>4.7</ele>
        <time>2020-06-17T17:12:09Z</time>
      </trkpt>
      <trkpt lat="49.48529" lon="0.16371">
        <ele>4.7</ele>
        <time>2020-06-17T17:12:10Z</time>
      </trkpt>
      <trkpt lat="49.48532" lon="0.16367">
        <ele>4.7</ele>
        <time>2020-06-17T17:12:11Z</time>
      </trkpt>
      <trkpt lat="49.48535" lon="0.16363">
        <ele>4.7</ele>
        <time>2020-06-17T17:12:12Z</time>
      </trkpt>
      <trkpt lat="49.48538" lon="0.16358">
        <ele>4.7</ele>
        <time>2020-06-17T17:12:13Z</time>
      </trkpt>
      <trkpt lat="49.48541" lon="0.16354">
        <ele>4.7</ele>
        <time>2020-06-17T17:12:14Z</time>
      </trkpt>
      <trkpt lat="49.48544" lon="0.16349">
        <ele>4.6</ele>
        <time>2020-06-17T17:12:15Z</time>
      </trkpt>
      <trkpt lat="49.48547" lon="0.16346">
        <ele>4.6</ele>
        <time>2020-06-17T17:12:16Z</time>
      </trkpt>
      <trkpt lat="49.48549" lon="0.16342">
        <ele>4.6</ele>
        <time>2020-06-17T17:12:17Z</time>
      </trkpt>
      <trkpt lat="49.48553" lon="0.1634">
        <ele>4.6</ele>
        <time>2020-06-17T17:12:18Z</time>
      </trkpt>
      <trkpt lat="49.48557" lon="0.16339">
        <ele>4.6</ele>
        <time>2020-06-17T17:12:19Z</time>
      </trkpt>
      <trkpt lat="49.48561" lon="0.16339">
        <ele>4.5</ele>
        <time>2020-06-17T17:12:20Z</time>
      </trkpt>
      <trkpt lat="49.48566" lon="0.16338">
        <ele>4.5</ele>
        <time>2020-06-17T17:12:21Z</time>
      </trkpt>
      <trkpt lat="49.48571" lon="0.16336">
        <ele>4.5</ele>
        <time>2020-06-17T17:12:22Z</time>
      </trkpt>
      <trkpt lat="49.48575" lon="0.16336">
        <ele>4.5</ele>
        <time>2020-06-17T17:12:23Z</time>
      </trkpt>
      <trkpt lat="49.4858" lon="0.16337">
        <ele>4.5</ele>
        <time>2020-06-17T17:12:24Z</time>
      </trkpt>
      <trkpt lat="49.48585" lon="0.16335">
        <ele>4.5</ele>
        <time>2020-06-17T17:12:25Z</time>
      </trkpt>
      <trkpt lat="49.48589" lon="0.16333">
        <ele>4.5</ele>
        <time>2020-06-17T17:12:26Z</time>
      </trkpt>
      <trkpt lat="49.48594" lon="0.16332">
        <ele>4.4</ele>
        <time>2020-06-17T17:12:27Z</time>
      </trkpt>
      <trkpt lat="49.48599" lon="0.16331">
        <ele>4.4</ele>
        <time>2020-06-17T17:12:28Z</time>
      </trkpt>
      <trkpt lat="49.48605" lon="0.16333">
        <ele>4.4</ele>
        <time>2020-06-17T17:12:29Z</time>
      </trkpt>
      <trkpt lat="49.4861" lon="0.16332">
        <ele>4.4</ele>
        <time>2020-06-17T17:12:30Z</time>
      </trkpt>
      <trkpt lat="49.48616" lon="0.16331">
        <ele>4.4</ele>
        <time>2020-06-17T17:12:31Z</time>
      </trkpt>
      <trkpt lat="49.48621" lon="0.16331">
        <ele>4.4</ele>
        <time>2020-06-17T17:12:32Z</time>
      </trkpt>
      <trkpt lat="49.48627" lon="0.1633">
        <ele>4.5</ele>
        <time>2020-06-17T17:12:33Z</time>
      </trkpt>
      <trkpt lat="49.48633" lon="0.16329">
        <ele>4.5</ele>
        <time>2020-06-17T17:12:34Z</time>
      </trkpt>
      <trkpt lat="49.48639" lon="0.16328">
        <ele>4.6</ele>
        <time>2020-06-17T17:12:35Z</time>
      </trkpt>
      <trkpt lat="49.48645" lon="0.16328">
        <ele>4.7</ele>
        <time>2020-06-17T17:12:36Z</time>
      </trkpt>
      <trkpt lat="49.48651" lon="0.16327">
        <ele>4.8</ele>
        <time>2020-06-17T17:12:37Z</time>
      </trkpt>
      <trkpt lat="49.48657" lon="0.16327">
        <ele>4.8</ele>
        <time>2020-06-17T17:12:38Z</time>
      </trkpt>
      <trkpt lat="49.48663" lon="0.16327">
        <ele>4.7</ele>
        <time>2020-06-17T17:12:39Z</time>
      </trkpt>
      <trkpt lat="49.48668" lon="0.16326">
        <ele>4.7</ele>
        <time>2020-06-17T17:12:40Z</time>
      </trkpt>
      <trkpt lat="49.48674" lon="0.16325">
        <ele>4.7</ele>
        <time>2020-06-17T17:12:41Z</time>
      </trkpt>
      <trkpt lat="49.4868" lon="0.16324">
        <ele>4.7</ele>
        <time>2020-06-17T17:12:42Z</time>
      </trkpt>
      <trkpt lat="49.48685" lon="0.16324">
        <ele>4.8</ele>
        <time>2020-06-17T17:12:43Z</time>
      </trkpt>
      <trkpt lat="49.48691" lon="0.16324">
        <ele>4.8</ele>
        <time>2020-06-17T17:12:44Z</time>
      </trkpt>
      <trkpt lat="49.48696" lon="0.16323">
        <ele>4.8</ele>
        <time>2020-06-17T17:12:45Z</time>
      </trkpt>
      <trkpt lat="49.48702" lon="0.16324">
        <ele>4.9</ele>
        <time>2020-06-17T17:12:46Z</time>
      </trkpt>
      <trkpt lat="49.48708" lon="0.16324">
        <ele>4.9</ele>
        <time>2020-06-17T17:12:47Z</time>
      </trkpt>
      <trkpt lat="49.48713" lon="0.16323">
        <ele>5</ele>
        <time>2020-06-17T17:12:48Z</time>
      </trkpt>
      <trkpt lat="49.48718" lon="0.16322">
        <ele>5</ele>
        <time>2020-06-17T17:12:49Z</time>
      </trkpt>
      <trkpt lat="49.48723" lon="0.16322">
        <ele>5</ele>
        <time>2020-06-17T17:12:50Z</time>
      </trkpt>
      <trkpt lat="49.48728" lon="0.16321">
        <ele>5</ele>
        <time>2020-06-17T17:12:51Z</time>
      </trkpt>
      <trkpt lat="49.48733" lon="0.1632">
        <ele>5</ele>
        <time>2020-06-17T17:12:52Z</time>
      </trkpt>
      <trkpt lat="49.48738" lon="0.16319">
        <ele>5</ele>
        <time>2020-06-17T17:12:53Z</time>
      </trkpt>
      <trkpt lat="49.48743" lon="0.16319">
        <ele>5</ele>
        <time>2020-06-17T17:12:54Z</time>
      </trkpt>
      <trkpt lat="49.48748" lon="0.16319">
        <ele>5</ele>
        <time>2020-06-17T17:12:55Z</time>
      </trkpt>
      <trkpt lat="49.48752" lon="0.16318">
        <ele>5</ele>
        <time>2020-06-17T17:12:56Z</time>
      </trkpt>
      <trkpt lat="49.48756" lon="0.16318">
        <ele>5</ele>
        <time>2020-06-17T17:12:57Z</time>
      </trkpt>
      <trkpt lat="49.4876" lon="0.16317">
        <ele>5</ele>
        <time>2020-06-17T17:12:58Z</time>
      </trkpt>
      <trkpt lat="49.48764" lon="0.16321">
        <ele>5</ele>
        <time>2020-06-17T17:12:59Z</time>
      </trkpt>
      <trkpt lat="49.48768" lon="0.16321">
        <ele>5</ele>
        <time>2020-06-17T17:13:00Z</time>
      </trkpt>
      <trkpt lat="49.48773" lon="0.16322">
        <ele>5</ele>
        <time>2020-06-17T17:13:01Z</time>
      </trkpt>
      <trkpt lat="49.48778" lon="0.16322">
        <ele>5</ele>
        <time>2020-06-17T17:13:02Z</time>
      </trkpt>
      <trkpt lat="49.48783" lon="0.16322">
        <ele>5</ele>
        <time>2020-06-17T17:13:03Z</time>
      </trkpt>
      <trkpt lat="49.48789" lon="0.16323">
        <ele>5</ele>
        <time>2020-06-17T17:13:04Z</time>
      </trkpt>
      <trkpt lat="49.48794" lon="0.16321">
        <ele>5.1</ele>
        <time>2020-06-17T17:13:05Z</time>
      </trkpt>
      <trkpt lat="49.488" lon="0.16322">
        <ele>5.1</ele>
        <time>2020-06-17T17:13:06Z</time>
      </trkpt>
      <trkpt lat="49.48805" lon="0.16321">
        <ele>5.1</ele>
        <time>2020-06-17T17:13:07Z</time>
      </trkpt>
      <trkpt lat="49.48811" lon="0.16321">
        <ele>5.1</ele>
        <time>2020-06-17T17:13:08Z</time>
      </trkpt>
      <trkpt lat="49.48816" lon="0.16319">
        <ele>5.1</ele>
        <time>2020-06-17T17:13:09Z</time>
      </trkpt>
      <trkpt lat="49.48822" lon="0.16317">
        <ele>5.2</ele>
        <time>2020-06-17T17:13:10Z</time>
      </trkpt>
      <trkpt lat="49.48827" lon="0.16316">
        <ele>5.2</ele>
        <time>2020-06-17T17:13:11Z</time>
      </trkpt>
      <trkpt lat="49.48833" lon="0.16314">
        <ele>5.1</ele>
        <time>2020-06-17T17:13:12Z</time>
      </trkpt>
      <trkpt lat="49.48839" lon="0.16313">
        <ele>5.1</ele>
        <time>2020-06-17T17:13:13Z</time>
      </trkpt>
      <trkpt lat="49.48844" lon="0.16312">
        <ele>5.1</ele>
        <time>2020-06-17T17:13:14Z</time>
      </trkpt>
      <trkpt lat="49.4885" lon="0.16312">
        <ele>5.1</ele>
        <time>2020-06-17T17:13:15Z</time>
      </trkpt>
      <trkpt lat="49.48856" lon="0.1631">
        <ele>5.1</ele>
        <time>2020-06-17T17:13:16Z</time>
      </trkpt>
      <trkpt lat="49.48862" lon="0.16309">
        <ele>5.2</ele>
        <time>2020-06-17T17:13:17Z</time>
      </trkpt>
      <trkpt lat="49.48867" lon="0.16307">
        <ele>5.2</ele>
        <time>2020-06-17T17:13:18Z</time>
      </trkpt>
      <trkpt lat="49.48873" lon="0.16308">
        <ele>5.2</ele>
        <time>2020-06-17T17:13:19Z</time>
      </trkpt>
      <trkpt lat="49.48878" lon="0.16305">
        <ele>5.3</ele>
        <time>2020-06-17T17:13:20Z</time>
      </trkpt>
      <trkpt lat="49.48883" lon="0.16304">
        <ele>5.3</ele>
        <time>2020-06-17T17:13:21Z</time>
      </trkpt>
      <trkpt lat="49.48887" lon="0.16303">
        <ele>5.3</ele>
        <time>2020-06-17T17:13:22Z</time>
      </trkpt>
      <trkpt lat="49.48891" lon="0.16301">
        <ele>5.3</ele>
        <time>2020-06-17T17:13:23Z</time>
      </trkpt>
      <trkpt lat="49.48895" lon="0.16301">
        <ele>5.3</ele>
        <time>2020-06-17T17:13:24Z</time>
      </trkpt>
      <trkpt lat="49.48898" lon="0.16302">
        <ele>5.3</ele>
        <time>2020-06-17T17:13:25Z</time>
      </trkpt>
      <trkpt lat="49.48899" lon="0.16302">
        <ele>5.3</ele>
        <time>2020-06-17T17:13:26Z</time>
      </trkpt>
      <trkpt lat="49.489" lon="0.16304">
        <ele>5.3</ele>
        <time>2020-06-17T17:13:27Z</time>
      </trkpt>
      <trkpt lat="49.489" lon="0.16304">
        <ele>5.3</ele>
        <time>2020-06-17T17:13:28Z</time>
      </trkpt>
      <trkpt lat="49.489" lon="0.16302">
        <ele>5.3</ele>
        <time>2020-06-17T17:13:29Z</time>
      </trkpt>
      <trkpt lat="49.489" lon="0.16301">
        <ele>5.3</ele>
        <time>2020-06-17T17:13:30Z</time>
      </trkpt>
      <trkpt lat="49.489" lon="0.16301">
        <ele>5.3</ele>
        <time>2020-06-17T17:13:31Z</time>
      </trkpt>
      <trkpt lat="49.48901" lon="0.16302">
        <ele>5.3</ele>
        <time>2020-06-17T17:13:32Z</time>
      </trkpt>
      <trkpt lat="49.48901" lon="0.16302">
        <ele>5.3</ele>
        <time>2020-06-17T17:13:33Z</time>
      </trkpt>
      <trkpt lat="49.48901" lon="0.16303">
        <ele>5.3</ele>
        <time>2020-06-17T17:13:34Z</time>
      </trkpt>
      <trkpt lat="49.48901" lon="0.16305">
        <ele>5.3</ele>
        <time>2020-06-17T17:13:35Z</time>
      </trkpt>
      <trkpt lat="49.48905" lon="0.16305">
        <ele>5.3</ele>
        <time>2020-06-17T17:13:36Z</time>
      </trkpt>
      <trkpt lat="49.48909" lon="0.16305">
        <ele>5.3</ele>
        <time>2020-06-17T17:13:37Z</time>
      </trkpt>
      <trkpt lat="49.48914" lon="0.16304">
        <ele>5.3</ele>
        <time>2020-06-17T17:14:33Z</time>
      </trkpt>
      <trkpt lat="49.48918" lon="0.16304">
        <ele>5.4</ele>
        <time>2020-06-17T17:14:34Z</time>
      </trkpt>
      <trkpt lat="49.48921" lon="0.16303">
        <ele>5.4</ele>
        <time>2020-06-17T17:14:35Z</time>
      </trkpt>
      <trkpt lat="49.48925" lon="0.163">
        <ele>5.4</ele>
        <time>2020-06-17T17:14:36Z</time>
      </trkpt>
      <trkpt lat="49.48929" lon="0.16298">
        <ele>5.4</ele>
        <time>2020-06-17T17:14:37Z</time>
      </trkpt>
      <trkpt lat="49.48934" lon="0.16297">
        <ele>5.4</ele>
        <time>2020-06-17T17:14:38Z</time>
      </trkpt>
      <trkpt lat="49.48938" lon="0.16296">
        <ele>5.4</ele>
        <time>2020-06-17T17:14:39Z</time>
      </trkpt>
      <trkpt lat="49.48942" lon="0.16295">
        <ele>5.4</ele>
        <time>2020-06-17T17:14:40Z</time>
      </trkpt>
      <trkpt lat="49.48946" lon="0.16293">
        <ele>5.4</ele>
        <time>2020-06-17T17:14:41Z</time>
      </trkpt>
      <trkpt lat="49.4895" lon="0.16292">
        <ele>5.4</ele>
        <time>2020-06-17T17:14:42Z</time>
      </trkpt>
      <trkpt lat="49.48954" lon="0.1629">
        <ele>5.3</ele>
        <time>2020-06-17T17:14:43Z</time>
      </trkpt>
      <trkpt lat="49.48959" lon="0.16291">
        <ele>5.3</ele>
        <time>2020-06-17T17:14:44Z</time>
      </trkpt>
      <trkpt lat="49.48964" lon="0.16292">
        <ele>5.3</ele>
        <time>2020-06-17T17:14:45Z</time>
      </trkpt>
      <trkpt lat="49.48969" lon="0.16292">
        <ele>5.3</ele>
        <time>2020-06-17T17:14:46Z</time>
      </trkpt>
      <trkpt lat="49.48975" lon="0.16291">
        <ele>5.2</ele>
        <time>2020-06-17T17:14:47Z</time>
      </trkpt>
      <trkpt lat="49.4898" lon="0.1629">
        <ele>5.2</ele>
        <time>2020-06-17T17:14:48Z</time>
      </trkpt>
      <trkpt lat="49.48985" lon="0.1629">
        <ele>5.2</ele>
        <time>2020-06-17T17:14:49Z</time>
      </trkpt>
      <trkpt lat="49.48991" lon="0.16289">
        <ele>5.2</ele>
        <time>2020-06-17T17:14:50Z</time>
      </trkpt>
      <trkpt lat="49.48996" lon="0.16289">
        <ele>5.2</ele>
        <time>2020-06-17T17:14:51Z</time>
      </trkpt>
      <trkpt lat="49.49001" lon="0.16289">
        <ele>5.2</ele>
        <time>2020-06-17T17:14:52Z</time>
      </trkpt>
      <trkpt lat="49.49007" lon="0.16289">
        <ele>5.2</ele>
        <time>2020-06-17T17:14:53Z</time>
      </trkpt>
      <trkpt lat="49.49012" lon="0.16289">
        <ele>5.2</ele>
        <time>2020-06-17T17:14:54Z</time>
      </trkpt>
      <trkpt lat="49.49018" lon="0.16288">
        <ele>5.1</ele>
        <time>2020-06-17T17:14:55Z</time>
      </trkpt>
      <trkpt lat="49.49024" lon="0.16287">
        <ele>5.1</ele>
        <time>2020-06-17T17:14:56Z</time>
      </trkpt>
      <trkpt lat="49.4903" lon="0.16287">
        <ele>5.1</ele>
        <time>2020-06-17T17:14:57Z</time>
      </trkpt>
      <trkpt lat="49.49035" lon="0.16287">
        <ele>5.1</ele>
        <time>2020-06-17T17:14:58Z</time>
      </trkpt>
      <trkpt lat="49.4904" lon="0.16286">
        <ele>5.1</ele>
        <time>2020-06-17T17:14:59Z</time>
      </trkpt>
      <trkpt lat="49.49046" lon="0.16285">
        <ele>5.2</ele>
        <time>2020-06-17T17:15:00Z</time>
      </trkpt>
      <trkpt lat="49.49051" lon="0.16285">
        <ele>5.2</ele>
        <time>2020-06-17T17:15:01Z</time>
      </trkpt>
      <trkpt lat="49.49057" lon="0.16283">
        <ele>5.2</ele>
        <time>2020-06-17T17:15:02Z</time>
      </trkpt>
      <trkpt lat="49.49063" lon="0.16282">
        <ele>5.2</ele>
        <time>2020-06-17T17:15:03Z</time>
      </trkpt>
      <trkpt lat="49.49069" lon="0.16281">
        <ele>5.3</ele>
        <time>2020-06-17T17:15:04Z</time>
      </trkpt>
      <trkpt lat="49.49075" lon="0.1628">
        <ele>5.3</ele>
        <time>2020-06-17T17:15:05Z</time>
      </trkpt>
      <trkpt lat="49.4908" lon="0.16279">
        <ele>5.4</ele>
        <time>2020-06-17T17:15:06Z</time>
      </trkpt>
      <trkpt lat="49.49086" lon="0.16278">
        <ele>5.4</ele>
        <time>2020-06-17T17:15:07Z</time>
      </trkpt>
      <trkpt lat="49.49092" lon="0.16277">
        <ele>5.5</ele>
        <time>2020-06-17T17:15:08Z</time>
      </trkpt>
      <trkpt lat="49.49097" lon="0.16277">
        <ele>5.6</ele>
        <time>2020-06-17T17:15:09Z</time>
      </trkpt>
      <trkpt lat="49.49103" lon="0.16276">
        <ele>5.6</ele>
        <time>2020-06-17T17:15:10Z</time>
      </trkpt>
      <trkpt lat="49.49108" lon="0.16275">
        <ele>5.6</ele>
        <time>2020-06-17T17:15:11Z</time>
      </trkpt>
      <trkpt lat="49.49114" lon="0.16275">
        <ele>5.7</ele>
        <time>2020-06-17T17:15:12Z</time>
      </trkpt>
      <trkpt lat="49.49119" lon="0.16275">
        <ele>5.7</ele>
        <time>2020-06-17T17:15:13Z</time>
      </trkpt>
      <trkpt lat="49.49124" lon="0.16274">
        <ele>5.7</ele>
        <time>2020-06-17T17:15:14Z</time>
      </trkpt>
      <trkpt lat="49.4913" lon="0.16273">
        <ele>5.7</ele>
        <time>2020-06-17T17:15:15Z</time>
      </trkpt>
      <trkpt lat="49.49135" lon="0.16273">
        <ele>5.7</ele>
        <time>2020-06-17T17:15:16Z</time>
      </trkpt>
      <trkpt lat="49.4914" lon="0.16273">
        <ele>5.7</ele>
        <time>2020-06-17T17:15:17Z</time>
      </trkpt>
      <trkpt lat="49.49145" lon="0.16273">
        <ele>5.8</ele>
        <time>2020-06-17T17:15:18Z</time>
      </trkpt>
      <trkpt lat="49.49151" lon="0.16274">
        <ele>5.7</ele>
        <time>2020-06-17T17:15:19Z</time>
      </trkpt>
      <trkpt lat="49.49156" lon="0.16274">
        <ele>5.7</ele>
        <time>2020-06-17T17:15:20Z</time>
      </trkpt>
      <trkpt lat="49.49161" lon="0.16275">
        <ele>5.7</ele>
        <time>2020-06-17T17:15:21Z</time>
      </trkpt>
      <trkpt lat="49.49166" lon="0.16274">
        <ele>5.7</ele>
        <time>2020-06-17T17:15:22Z</time>
      </trkpt>
      <trkpt lat="49.49171" lon="0.16276">
        <ele>5.7</ele>
        <time>2020-06-17T17:15:23Z</time>
      </trkpt>
      <trkpt lat="49.49176" lon="0.16278">
        <ele>5.7</ele>
        <time>2020-06-17T17:15:24Z</time>
      </trkpt>
      <trkpt lat="49.49181" lon="0.16278">
        <ele>5.7</ele>
        <time>2020-06-17T17:15:25Z</time>
      </trkpt>
      <trkpt lat="49.49186" lon="0.16279">
        <ele>5.7</ele>
        <time>2020-06-17T17:15:26Z</time>
      </trkpt>
      <trkpt lat="49.49192" lon="0.16282">
        <ele>5.7</ele>
        <time>2020-06-17T17:15:27Z</time>
      </trkpt>
      <trkpt lat="49.49197" lon="0.16284">
        <ele>5.7</ele>
        <time>2020-06-17T17:15:28Z</time>
      </trkpt>
      <trkpt lat="49.49202" lon="0.16288">
        <ele>5.7</ele>
        <time>2020-06-17T17:15:29Z</time>
      </trkpt>
      <trkpt lat="49.49208" lon="0.1629">
        <ele>5.6</ele>
        <time>2020-06-17T17:15:30Z</time>
      </trkpt>
      <trkpt lat="49.49215" lon="0.16291">
        <ele>5.6</ele>
        <time>2020-06-17T17:15:31Z</time>
      </trkpt>
      <trkpt lat="49.49221" lon="0.16293">
        <ele>5.6</ele>
        <time>2020-06-17T17:15:32Z</time>
      </trkpt>
      <trkpt lat="49.49227" lon="0.16295">
        <ele>5.6</ele>
        <time>2020-06-17T17:15:33Z</time>
      </trkpt>
      <trkpt lat="49.49232" lon="0.16297">
        <ele>5.5</ele>
        <time>2020-06-17T17:15:34Z</time>
      </trkpt>
      <trkpt lat="49.49238" lon="0.16298">
        <ele>5.5</ele>
        <time>2020-06-17T17:15:35Z</time>
      </trkpt>
      <trkpt lat="49.49244" lon="0.16301">
        <ele>5.5</ele>
        <time>2020-06-17T17:15:36Z</time>
      </trkpt>
      <trkpt lat="49.49249" lon="0.16304">
        <ele>5.5</ele>
        <time>2020-06-17T17:15:37Z</time>
      </trkpt>
      <trkpt lat="49.49255" lon="0.16306">
        <ele>5.4</ele>
        <time>2020-06-17T17:15:38Z</time>
      </trkpt>
      <trkpt lat="49.4926" lon="0.16308">
        <ele>5.4</ele>
        <time>2020-06-17T17:15:39Z</time>
      </trkpt>
      <trkpt lat="49.49265" lon="0.1631">
        <ele>5.4</ele>
        <time>2020-06-17T17:15:40Z</time>
      </trkpt>
      <trkpt lat="49.4927" lon="0.16313">
        <ele>5.4</ele>
        <time>2020-06-17T17:15:41Z</time>
      </trkpt>
      <trkpt lat="49.49276" lon="0.16315">
        <ele>5.4</ele>
        <time>2020-06-17T17:15:42Z</time>
      </trkpt>
      <trkpt lat="49.49281" lon="0.16318">
        <ele>5.4</ele>
        <time>2020-06-17T17:15:43Z</time>
      </trkpt>
      <trkpt lat="49.49286" lon="0.16322">
        <ele>5.4</ele>
        <time>2020-06-17T17:15:44Z</time>
      </trkpt>
      <trkpt lat="49.49291" lon="0.16325">
        <ele>5.4</ele>
        <time>2020-06-17T17:15:45Z</time>
      </trkpt>
      <trkpt lat="49.49297" lon="0.16328">
        <ele>5.3</ele>
        <time>2020-06-17T17:15:46Z</time>
      </trkpt>
      <trkpt lat="49.49302" lon="0.16332">
        <ele>5.3</ele>
        <time>2020-06-17T17:15:47Z</time>
      </trkpt>
      <trkpt lat="49.49308" lon="0.16336">
        <ele>5.3</ele>
        <time>2020-06-17T17:15:48Z</time>
      </trkpt>
      <trkpt lat="49.49313" lon="0.1634">
        <ele>5.3</ele>
        <time>2020-06-17T17:15:49Z</time>
      </trkpt>
      <trkpt lat="49.49318" lon="0.16344">
        <ele>5.3</ele>
        <time>2020-06-17T17:15:50Z</time>
      </trkpt>
      <trkpt lat="49.49323" lon="0.16348">
        <ele>5.3</ele>
        <time>2020-06-17T17:15:51Z</time>
      </trkpt>
      <trkpt lat="49.49329" lon="0.16353">
        <ele>5.3</ele>
        <time>2020-06-17T17:15:52Z</time>
      </trkpt>
      <trkpt lat="49.49334" lon="0.16356">
        <ele>5.2</ele>
        <time>2020-06-17T17:15:53Z</time>
      </trkpt>
      <trkpt lat="49.4934" lon="0.16361">
        <ele>5.2</ele>
        <time>2020-06-17T17:15:54Z</time>
      </trkpt>
      <trkpt lat="49.49345" lon="0.16365">
        <ele>5.2</ele>
        <time>2020-06-17T17:15:55Z</time>
      </trkpt>
      <trkpt lat="49.4935" lon="0.16369">
        <ele>5.2</ele>
        <time>2020-06-17T17:15:56Z</time>
      </trkpt>
      <trkpt lat="49.49355" lon="0.16374">
        <ele>5.2</ele>
        <time>2020-06-17T17:15:57Z</time>
      </trkpt>
      <trkpt lat="49.4936" lon="0.16378">
        <ele>5.2</ele>
        <time>2020-06-17T17:15:58Z</time>
      </trkpt>
      <trkpt lat="49.49365" lon="0.16382">
        <ele>5.2</ele>
        <time>2020-06-17T17:15:59Z</time>
      </trkpt>
      <trkpt lat="49.4937" lon="0.16387">
        <ele>5.2</ele>
        <time>2020-06-17T17:16:00Z</time>
      </trkpt>
      <trkpt lat="49.49375" lon="0.16392">
        <ele>5.2</ele>
        <time>2020-06-17T17:16:01Z</time>
      </trkpt>
      <trkpt lat="49.4938" lon="0.16397">
        <ele>5.2</ele>
        <time>2020-06-17T17:16:02Z</time>
      </trkpt>
      <trkpt lat="49.49384" lon="0.16402">
        <ele>5.1</ele>
        <time>2020-06-17T17:16:03Z</time>
      </trkpt>
      <trkpt lat="49.49388" lon="0.16407">
        <ele>5.1</ele>
        <time>2020-06-17T17:16:04Z</time>
      </trkpt>
      <trkpt lat="49.49393" lon="0.16413">
        <ele>5</ele>
        <time>2020-06-17T17:16:05Z</time>
      </trkpt>
      <trkpt lat="49.49397" lon="0.16418">
        <ele>5</ele>
        <time>2020-06-17T17:16:06Z</time>
      </trkpt>
      <trkpt lat="49.49401" lon="0.16422">
        <ele>5</ele>
        <time>2020-06-17T17:16:07Z</time>
      </trkpt>
      <trkpt lat="49.49406" lon="0.16427">
        <ele>4.9</ele>
        <time>2020-06-17T17:16:08Z</time>
      </trkpt>
      <trkpt lat="49.4941" lon="0.16431">
        <ele>4.9</ele>
        <time>2020-06-17T17:16:09Z</time>
      </trkpt>
      <trkpt lat="49.49415" lon="0.16435">
        <ele>4.9</ele>
        <time>2020-06-17T17:16:10Z</time>
      </trkpt>
      <trkpt lat="49.49419" lon="0.16439">
        <ele>4.8</ele>
        <time>2020-06-17T17:16:11Z</time>
      </trkpt>
      <trkpt lat="49.49423" lon="0.16444">
        <ele>4.8</ele>
        <time>2020-06-17T17:16:12Z</time>
      </trkpt>
      <trkpt lat="49.49427" lon="0.1645">
        <ele>4.8</ele>
        <time>2020-06-17T17:16:13Z</time>
      </trkpt>
      <trkpt lat="49.4943" lon="0.16454">
        <ele>4.8</ele>
        <time>2020-06-17T17:16:14Z</time>
      </trkpt>
      <trkpt lat="49.49434" lon="0.1646">
        <ele>4.7</ele>
        <time>2020-06-17T17:16:15Z</time>
      </trkpt>
      <trkpt lat="49.49438" lon="0.16464">
        <ele>4.7</ele>
        <time>2020-06-17T17:16:16Z</time>
      </trkpt>
      <trkpt lat="49.49442" lon="0.16469">
        <ele>4.7</ele>
        <time>2020-06-17T17:16:17Z</time>
      </trkpt>
      <trkpt lat="49.49445" lon="0.16475">
        <ele>4.7</ele>
        <time>2020-06-17T17:16:18Z</time>
      </trkpt>
      <trkpt lat="49.49449" lon="0.16481">
        <ele>4.7</ele>
        <time>2020-06-17T17:16:19Z</time>
      </trkpt>
      <trkpt lat="49.49452" lon="0.16486">
        <ele>4.6</ele>
        <time>2020-06-17T17:16:20Z</time>
      </trkpt>
      <trkpt lat="49.49457" lon="0.16491">
        <ele>4.6</ele>
        <time>2020-06-17T17:16:21Z</time>
      </trkpt>
      <trkpt lat="49.49461" lon="0.16495">
        <ele>4.6</ele>
        <time>2020-06-17T17:16:22Z</time>
      </trkpt>
      <trkpt lat="49.49465" lon="0.16498">
        <ele>4.6</ele>
        <time>2020-06-17T17:16:23Z</time>
      </trkpt>
      <trkpt lat="49.4947" lon="0.165">
        <ele>4.6</ele>
        <time>2020-06-17T17:16:24Z</time>
      </trkpt>
      <trkpt lat="49.49475" lon="0.16499">
        <ele>4.6</ele>
        <time>2020-06-17T17:16:25Z</time>
      </trkpt>
      <trkpt lat="49.4948" lon="0.16497">
        <ele>4.5</ele>
        <time>2020-06-17T17:16:26Z</time>
      </trkpt>
      <trkpt lat="49.49484" lon="0.16495">
        <ele>4.5</ele>
        <time>2020-06-17T17:16:27Z</time>
      </trkpt>
      <trkpt lat="49.4949" lon="0.16495">
        <ele>4.4</ele>
        <time>2020-06-17T17:16:28Z</time>
      </trkpt>
      <trkpt lat="49.49495" lon="0.16492">
        <ele>4.4</ele>
        <time>2020-06-17T17:16:29Z</time>
      </trkpt>
      <trkpt lat="49.495" lon="0.16488">
        <ele>4.3</ele>
        <time>2020-06-17T17:16:30Z</time>
      </trkpt>
      <trkpt lat="49.49504" lon="0.16483">
        <ele>4.3</ele>
        <time>2020-06-17T17:16:31Z</time>
      </trkpt>
      <trkpt lat="49.49508" lon="0.16479">
        <ele>4.3</ele>
        <time>2020-06-17T17:16:32Z</time>
      </trkpt>
      <trkpt lat="49.49512" lon="0.16474">
        <ele>4.3</ele>
        <time>2020-06-17T17:16:33Z</time>
      </trkpt>
      <trkpt lat="49.49516" lon="0.16469">
        <ele>4.3</ele>
        <time>2020-06-17T17:16:34Z</time>
      </trkpt>
      <trkpt lat="49.49521" lon="0.16465">
        <ele>4.4</ele>
        <time>2020-06-17T17:16:35Z</time>
      </trkpt>
      <trkpt lat="49.49525" lon="0.16461">
        <ele>4.4</ele>
        <time>2020-06-17T17:16:36Z</time>
      </trkpt>
      <trkpt lat="49.49529" lon="0.16457">
        <ele>4.5</ele>
        <time>2020-06-17T17:16:37Z</time>
      </trkpt>
      <trkpt lat="49.49534" lon="0.16453">
        <ele>4.5</ele>
        <time>2020-06-17T17:16:38Z</time>
      </trkpt>
      <trkpt lat="49.49538" lon="0.16449">
        <ele>4.5</ele>
        <time>2020-06-17T17:16:39Z</time>
      </trkpt>
      <trkpt lat="49.49543" lon="0.16445">
        <ele>4.5</ele>
        <time>2020-06-17T17:16:40Z</time>
      </trkpt>
      <trkpt lat="49.49548" lon="0.16441">
        <ele>4.6</ele>
        <time>2020-06-17T17:16:41Z</time>
      </trkpt>
      <trkpt lat="49.49553" lon="0.16438">
        <ele>4.6</ele>
        <time>2020-06-17T17:16:42Z</time>
      </trkpt>
      <trkpt lat="49.49558" lon="0.16435">
        <ele>4.6</ele>
        <time>2020-06-17T17:16:43Z</time>
      </trkpt>
      <trkpt lat="49.49563" lon="0.16432">
        <ele>4.6</ele>
        <time>2020-06-17T17:16:44Z</time>
      </trkpt>
      <trkpt lat="49.49568" lon="0.16431">
        <ele>4.7</ele>
        <time>2020-06-17T17:16:45Z</time>
      </trkpt>
      <trkpt lat="49.49574" lon="0.16428">
        <ele>4.7</ele>
        <time>2020-06-17T17:16:46Z</time>
      </trkpt>
      <trkpt lat="49.49579" lon="0.16426">
        <ele>4.7</ele>
        <time>2020-06-17T17:16:47Z</time>
      </trkpt>
      <trkpt lat="49.49585" lon="0.16423">
        <ele>4.7</ele>
        <time>2020-06-17T17:16:48Z</time>
      </trkpt>
      <trkpt lat="49.4959" lon="0.1642">
        <ele>4.8</ele>
        <time>2020-06-17T17:16:49Z</time>
      </trkpt>
      <trkpt lat="49.49595" lon="0.16416">
        <ele>4.8</ele>
        <time>2020-06-17T17:16:50Z</time>
      </trkpt>
      <trkpt lat="49.496" lon="0.16414">
        <ele>4.8</ele>
        <time>2020-06-17T17:16:51Z</time>
      </trkpt>
      <trkpt lat="49.49606" lon="0.1641">
        <ele>4.8</ele>
        <time>2020-06-17T17:16:52Z</time>
      </trkpt>
      <trkpt lat="49.49611" lon="0.16407">
        <ele>4.9</ele>
        <time>2020-06-17T17:16:53Z</time>
      </trkpt>
      <trkpt lat="49.49617" lon="0.16403">
        <ele>4.9</ele>
        <time>2020-06-17T17:16:54Z</time>
      </trkpt>
      <trkpt lat="49.49622" lon="0.164">
        <ele>4.9</ele>
        <time>2020-06-17T17:16:55Z</time>
      </trkpt>
      <trkpt lat="49.49628" lon="0.16397">
        <ele>5</ele>
        <time>2020-06-17T17:16:56Z</time>
      </trkpt>
      <trkpt lat="49.49633" lon="0.16394">
        <ele>5</ele>
        <time>2020-06-17T17:16:57Z</time>
      </trkpt>
      <trkpt lat="49.49638" lon="0.16391">
        <ele>5</ele>
        <time>2020-06-17T17:16:58Z</time>
      </trkpt>
      <trkpt lat="49.49643" lon="0.16389">
        <ele>5</ele>
        <time>2020-06-17T17:16:59Z</time>
      </trkpt>
      <trkpt lat="49.49649" lon="0.16387">
        <ele>5</ele>
        <time>2020-06-17T17:17:00Z</time>
      </trkpt>
      <trkpt lat="49.49654" lon="0.16385">
        <ele>5.1</ele>
        <time>2020-06-17T17:17:01Z</time>
      </trkpt>
      <trkpt lat="49.4966" lon="0.16385">
        <ele>5.1</ele>
        <time>2020-06-17T17:17:02Z</time>
      </trkpt>
      <trkpt lat="49.49665" lon="0.16383">
        <ele>5.1</ele>
        <time>2020-06-17T17:17:03Z</time>
      </trkpt>
      <trkpt lat="49.4967" lon="0.16381">
        <ele>5.1</ele>
        <time>2020-06-17T17:17:04Z</time>
      </trkpt>
      <trkpt lat="49.49675" lon="0.16379">
        <ele>5.1</ele>
        <time>2020-06-17T17:17:05Z</time>
      </trkpt>
      <trkpt lat="49.49681" lon="0.16379">
        <ele>5.2</ele>
        <time>2020-06-17T17:17:06Z</time>
      </trkpt>
      <trkpt lat="49.49685" lon="0.16375">
        <ele>5.2</ele>
        <time>2020-06-17T17:17:07Z</time>
      </trkpt>
      <trkpt lat="49.49691" lon="0.16373">
        <ele>5.3</ele>
        <time>2020-06-17T17:17:08Z</time>
      </trkpt>
      <trkpt lat="49.49696" lon="0.1637">
        <ele>5.3</ele>
        <time>2020-06-17T17:17:09Z</time>
      </trkpt>
      <trkpt lat="49.49701" lon="0.16368">
        <ele>5.4</ele>
        <time>2020-06-17T17:17:10Z</time>
      </trkpt>
      <trkpt lat="49.49706" lon="0.16366">
        <ele>5.4</ele>
        <time>2020-06-17T17:17:11Z</time>
      </trkpt>
      <trkpt lat="49.4971" lon="0.16364">
        <ele>5.5</ele>
        <time>2020-06-17T17:17:12Z</time>
      </trkpt>
      <trkpt lat="49.49715" lon="0.16363">
        <ele>5.6</ele>
        <time>2020-06-17T17:17:13Z</time>
      </trkpt>
      <trkpt lat="49.49719" lon="0.16363">
        <ele>5.7</ele>
        <time>2020-06-17T17:17:14Z</time>
      </trkpt>
      <trkpt lat="49.49723" lon="0.16362">
        <ele>5.7</ele>
        <time>2020-06-17T17:17:15Z</time>
      </trkpt>
      <trkpt lat="49.49726" lon="0.16361">
        <ele>5.8</ele>
        <time>2020-06-17T17:17:16Z</time>
      </trkpt>
      <trkpt lat="49.49729" lon="0.1636">
        <ele>5.8</ele>
        <time>2020-06-17T17:17:17Z</time>
      </trkpt>
      <trkpt lat="49.4973" lon="0.1636">
        <ele>5.8</ele>
        <time>2020-06-17T17:17:18Z</time>
      </trkpt>
      <trkpt lat="49.49733" lon="0.1636">
        <ele>5.9</ele>
        <time>2020-06-17T17:17:19Z</time>
      </trkpt>
      <trkpt lat="49.49734" lon="0.16359">
        <ele>5.9</ele>
        <time>2020-06-17T17:17:20Z</time>
      </trkpt>
      <trkpt lat="49.49737" lon="0.16356">
        <ele>5.9</ele>
        <time>2020-06-17T17:17:21Z</time>
      </trkpt>
      <trkpt lat="49.49738" lon="0.16355">
        <ele>6</ele>
        <time>2020-06-17T17:17:22Z</time>
      </trkpt>
      <trkpt lat="49.49742" lon="0.16355">
        <ele>6</ele>
        <time>2020-06-17T17:17:23Z</time>
      </trkpt>
      <trkpt lat="49.49745" lon="0.16353">
        <ele>6</ele>
        <time>2020-06-17T17:17:24Z</time>
      </trkpt>
      <trkpt lat="49.49749" lon="0.16351">
        <ele>6</ele>
        <time>2020-06-17T17:17:25Z</time>
      </trkpt>
      <trkpt lat="49.49753" lon="0.16349">
        <ele>6</ele>
        <time>2020-06-17T17:17:26Z</time>
      </trkpt>
      <trkpt lat="49.49756" lon="0.16346">
        <ele>6</ele>
        <time>2020-06-17T17:17:27Z</time>
      </trkpt>
      <trkpt lat="49.4976" lon="0.16343">
        <ele>6</ele>
        <time>2020-06-17T17:17:28Z</time>
      </trkpt>
      <trkpt lat="49.49764" lon="0.1634">
        <ele>6</ele>
        <time>2020-06-17T17:17:29Z</time>
      </trkpt>
      <trkpt lat="49.49767" lon="0.16337">
        <ele>6</ele>
        <time>2020-06-17T17:17:30Z</time>
      </trkpt>
      <trkpt lat="49.49771" lon="0.16334">
        <ele>6</ele>
        <time>2020-06-17T17:17:31Z</time>
      </trkpt>
      <trkpt lat="49.49776" lon="0.16333">
        <ele>6</ele>
        <time>2020-06-17T17:17:32Z</time>
      </trkpt>
      <trkpt lat="49.4978" lon="0.16331">
        <ele>6.1</ele>
        <time>2020-06-17T17:17:33Z</time>
      </trkpt>
      <trkpt lat="49.49784" lon="0.1633">
        <ele>6.1</ele>
        <time>2020-06-17T17:17:34Z</time>
      </trkpt>
      <trkpt lat="49.49788" lon="0.16328">
        <ele>6.2</ele>
        <time>2020-06-17T17:17:35Z</time>
      </trkpt>
      <trkpt lat="49.49793" lon="0.16329">
        <ele>6.2</ele>
        <time>2020-06-17T17:17:36Z</time>
      </trkpt>
      <trkpt lat="49.49797" lon="0.16326">
        <ele>6.3</ele>
        <time>2020-06-17T17:17:37Z</time>
      </trkpt>
      <trkpt lat="49.49801" lon="0.16322">
        <ele>6.4</ele>
        <time>2020-06-17T17:17:38Z</time>
      </trkpt>
      <trkpt lat="49.49805" lon="0.16319">
        <ele>6.5</ele>
        <time>2020-06-17T17:17:39Z</time>
      </trkpt>
      <trkpt lat="49.49809" lon="0.16315">
        <ele>6.6</ele>
        <time>2020-06-17T17:17:40Z</time>
      </trkpt>
      <trkpt lat="49.49812" lon="0.1631">
        <ele>6.7</ele>
        <time>2020-06-17T17:17:41Z</time>
      </trkpt>
      <trkpt lat="49.49816" lon="0.16305">
        <ele>6.9</ele>
        <time>2020-06-17T17:17:42Z</time>
      </trkpt>
      <trkpt lat="49.4982" lon="0.163">
        <ele>7</ele>
        <time>2020-06-17T17:17:43Z</time>
      </trkpt>
      <trkpt lat="49.49824" lon="0.16296">
        <ele>7.1</ele>
        <time>2020-06-17T17:17:44Z</time>
      </trkpt>
      <trkpt lat="49.49827" lon="0.16292">
        <ele>7.3</ele>
        <time>2020-06-17T17:17:45Z</time>
      </trkpt>
      <trkpt lat="49.49831" lon="0.16288">
        <ele>7.4</ele>
        <time>2020-06-17T17:17:46Z</time>
      </trkpt>
      <trkpt lat="49.49835" lon="0.16286">
        <ele>7.5</ele>
        <time>2020-06-17T17:17:47Z</time>
      </trkpt>
      <trkpt lat="49.49839" lon="0.16283">
        <ele>7.6</ele>
        <time>2020-06-17T17:17:48Z</time>
      </trkpt>
      <trkpt lat="49.49843" lon="0.16281">
        <ele>7.7</ele>
        <time>2020-06-17T17:17:49Z</time>
      </trkpt>
      <trkpt lat="49.49847" lon="0.16278">
        <ele>7.9</ele>
        <time>2020-06-17T17:17:50Z</time>
      </trkpt>
      <trkpt lat="49.49851" lon="0.16276">
        <ele>8.1</ele>
        <time>2020-06-17T17:17:51Z</time>
      </trkpt>
      <trkpt lat="49.49855" lon="0.16274">
        <ele>8.2</ele>
        <time>2020-06-17T17:17:52Z</time>
      </trkpt>
      <trkpt lat="49.49859" lon="0.16271">
        <ele>8.4</ele>
        <time>2020-06-17T17:17:53Z</time>
      </trkpt>
      <trkpt lat="49.49863" lon="0.1627">
        <ele>8.6</ele>
        <time>2020-06-17T17:17:54Z</time>
      </trkpt>
      <trkpt lat="49.49868" lon="0.16268">
        <ele>8.8</ele>
        <time>2020-06-17T17:17:55Z</time>
      </trkpt>
      <trkpt lat="49.49872" lon="0.16266">
        <ele>9</ele>
        <time>2020-06-17T17:17:56Z</time>
      </trkpt>
      <trkpt lat="49.49876" lon="0.16269">
        <ele>9.3</ele>
        <time>2020-06-17T17:17:57Z</time>
      </trkpt>
      <trkpt lat="49.4988" lon="0.16267">
        <ele>9.5</ele>
        <time>2020-06-17T17:17:58Z</time>
      </trkpt>
      <trkpt lat="49.49883" lon="0.16265">
        <ele>9.7</ele>
        <time>2020-06-17T17:17:59Z</time>
      </trkpt>
      <trkpt lat="49.49886" lon="0.16264">
        <ele>9.9</ele>
        <time>2020-06-17T17:18:00Z</time>
      </trkpt>
      <trkpt lat="49.49889" lon="0.16262">
        <ele>10.1</ele>
        <time>2020-06-17T17:18:01Z</time>
      </trkpt>
      <trkpt lat="49.49893" lon="0.16262">
        <ele>10.3</ele>
        <time>2020-06-17T17:18:02Z</time>
      </trkpt>
      <trkpt lat="49.49896" lon="0.16262">
        <ele>10.4</ele>
        <time>2020-06-17T17:18:03Z</time>
      </trkpt>
      <trkpt lat="49.499" lon="0.16261">
        <ele>10.6</ele>
        <time>2020-06-17T17:18:04Z</time>
      </trkpt>
      <trkpt lat="49.49903" lon="0.16259">
        <ele>10.8</ele>
        <time>2020-06-17T17:18:05Z</time>
      </trkpt>
      <trkpt lat="49.49906" lon="0.16258">
        <ele>11</ele>
        <time>2020-06-17T17:18:06Z</time>
      </trkpt>
      <trkpt lat="49.49909" lon="0.16258">
        <ele>11.1</ele>
        <time>2020-06-17T17:18:07Z</time>
      </trkpt>
      <trkpt lat="49.49912" lon="0.16258">
        <ele>11.3</ele>
        <time>2020-06-17T17:18:08Z</time>
      </trkpt>
      <trkpt lat="49.49916" lon="0.16259">
        <ele>11.5</ele>
        <time>2020-06-17T17:18:09Z</time>
      </trkpt>
      <trkpt lat="49.49919" lon="0.16259">
        <ele>11.6</ele>
        <time>2020-06-17T17:18:10Z</time>
      </trkpt>
      <trkpt lat="49.49922" lon="0.16259">
        <ele>11.8</ele>
        <time>2020-06-17T17:18:11Z</time>
      </trkpt>
      <trkpt lat="49.49925" lon="0.1626">
        <ele>11.9</ele>
        <time>2020-06-17T17:18:12Z</time>
      </trkpt>
      <trkpt lat="49.49928" lon="0.1626">
        <ele>12.1</ele>
        <time>2020-06-17T17:18:13Z</time>
      </trkpt>
      <trkpt lat="49.49931" lon="0.1626">
        <ele>12.2</ele>
        <time>2020-06-17T17:18:14Z</time>
      </trkpt>
      <trkpt lat="49.49934" lon="0.1626">
        <ele>12.3</ele>
        <time>2020-06-17T17:18:15Z</time>
      </trkpt>
      <trkpt lat="49.49937" lon="0.16259">
        <ele>12.4</ele>
        <time>2020-06-17T17:18:16Z</time>
      </trkpt>
      <trkpt lat="49.4994" lon="0.16258">
        <ele>12.5</ele>
        <time>2020-06-17T17:18:17Z</time>
      </trkpt>
      <trkpt lat="49.49943" lon="0.16257">
        <ele>12.6</ele>
        <time>2020-06-17T17:18:18Z</time>
      </trkpt>
      <trkpt lat="49.49946" lon="0.16258">
        <ele>12.7</ele>
        <time>2020-06-17T17:18:19Z</time>
      </trkpt>
      <trkpt lat="49.49949" lon="0.16258">
        <ele>12.8</ele>
        <time>2020-06-17T17:18:20Z</time>
      </trkpt>
      <trkpt lat="49.49953" lon="0.16258">
        <ele>12.9</ele>
        <time>2020-06-17T17:18:21Z</time>
      </trkpt>
      <trkpt lat="49.49956" lon="0.16257">
        <ele>12.9</ele>
        <time>2020-06-17T17:18:22Z</time>
      </trkpt>
      <trkpt lat="49.49959" lon="0.16256">
        <ele>13</ele>
        <time>2020-06-17T17:18:23Z</time>
      </trkpt>
      <trkpt lat="49.49962" lon="0.16256">
        <ele>13.1</ele>
        <time>2020-06-17T17:18:24Z</time>
      </trkpt>
      <trkpt lat="49.49965" lon="0.16256">
        <ele>13.1</ele>
        <time>2020-06-17T17:18:25Z</time>
      </trkpt>
      <trkpt lat="49.49968" lon="0.16256">
        <ele>13.2</ele>
        <time>2020-06-17T17:18:26Z</time>
      </trkpt>
      <trkpt lat="49.49971" lon="0.16257">
        <ele>13.2</ele>
        <time>2020-06-17T17:18:27Z</time>
      </trkpt>
      <trkpt lat="49.49973" lon="0.16257">
        <ele>13.2</ele>
        <time>2020-06-17T17:18:28Z</time>
      </trkpt>
      <trkpt lat="49.49976" lon="0.16257">
        <ele>13.3</ele>
        <time>2020-06-17T17:18:29Z</time>
      </trkpt>
      <trkpt lat="49.4998" lon="0.16257">
        <ele>13.3</ele>
        <time>2020-06-17T17:18:30Z</time>
      </trkpt>
      <trkpt lat="49.49982" lon="0.16257">
        <ele>13.3</ele>
        <time>2020-06-17T17:18:31Z</time>
      </trkpt>
      <trkpt lat="49.49984" lon="0.16257">
        <ele>13.3</ele>
        <time>2020-06-17T17:18:32Z</time>
      </trkpt>
      <trkpt lat="49.49987" lon="0.16257">
        <ele>13.3</ele>
        <time>2020-06-17T17:18:33Z</time>
      </trkpt>
      <trkpt lat="49.49991" lon="0.16259">
        <ele>13.3</ele>
        <time>2020-06-17T17:18:34Z</time>
      </trkpt>
      <trkpt lat="49.49992" lon="0.16259">
        <ele>13.3</ele>
        <time>2020-06-17T17:18:35Z</time>
      </trkpt>
      <trkpt lat="49.49996" lon="0.16259">
        <ele>13.3</ele>
        <time>2020-06-17T17:18:36Z</time>
      </trkpt>
      <trkpt lat="49.49998" lon="0.1626">
        <ele>13.3</ele>
        <time>2020-06-17T17:18:37Z</time>
      </trkpt>
      <trkpt lat="49.50001" lon="0.16259">
        <ele>13.2</ele>
        <time>2020-06-17T17:18:38Z</time>
      </trkpt>
      <trkpt lat="49.50004" lon="0.16258">
        <ele>13.2</ele>
        <time>2020-06-17T17:18:39Z</time>
      </trkpt>
      <trkpt lat="49.50007" lon="0.16257">
        <ele>13.1</ele>
        <time>2020-06-17T17:18:40Z</time>
      </trkpt>
      <trkpt lat="49.50011" lon="0.16257">
        <ele>13</ele>
        <time>2020-06-17T17:18:41Z</time>
      </trkpt>
      <trkpt lat="49.50015" lon="0.16257">
        <ele>12.9</ele>
        <time>2020-06-17T17:18:42Z</time>
      </trkpt>
      <trkpt lat="49.50019" lon="0.16258">
        <ele>12.8</ele>
        <time>2020-06-17T17:18:43Z</time>
      </trkpt>
      <trkpt lat="49.50023" lon="0.1626">
        <ele>12.7</ele>
        <time>2020-06-17T17:18:44Z</time>
      </trkpt>
      <trkpt lat="49.50027" lon="0.16261">
        <ele>12.5</ele>
        <time>2020-06-17T17:18:45Z</time>
      </trkpt>
      <trkpt lat="49.50031" lon="0.16261">
        <ele>12.4</ele>
        <time>2020-06-17T17:18:46Z</time>
      </trkpt>
      <trkpt lat="49.50035" lon="0.16261">
        <ele>12.2</ele>
        <time>2020-06-17T17:18:47Z</time>
      </trkpt>
      <trkpt lat="49.50039" lon="0.16262">
        <ele>12.1</ele>
        <time>2020-06-17T17:18:48Z</time>
      </trkpt>
      <trkpt lat="49.50043" lon="0.16262">
        <ele>12</ele>
        <time>2020-06-17T17:18:49Z</time>
      </trkpt>
      <trkpt lat="49.50047" lon="0.16262">
        <ele>11.8</ele>
        <time>2020-06-17T17:18:50Z</time>
      </trkpt>
      <trkpt lat="49.50051" lon="0.16261">
        <ele>11.8</ele>
        <time>2020-06-17T17:18:51Z</time>
      </trkpt>
      <trkpt lat="49.50056" lon="0.16261">
        <ele>11.9</ele>
        <time>2020-06-17T17:18:52Z</time>
      </trkpt>
      <trkpt lat="49.5006" lon="0.16261">
        <ele>11.9</ele>
        <time>2020-06-17T17:18:53Z</time>
      </trkpt>
      <trkpt lat="49.50065" lon="0.16262">
        <ele>12</ele>
        <time>2020-06-17T17:18:54Z</time>
      </trkpt>
      <trkpt lat="49.5007" lon="0.16261">
        <ele>12</ele>
        <time>2020-06-17T17:18:55Z</time>
      </trkpt>
      <trkpt lat="49.50075" lon="0.1626">
        <ele>12</ele>
        <time>2020-06-17T17:18:56Z</time>
      </trkpt>
      <trkpt lat="49.5008" lon="0.1626">
        <ele>12.1</ele>
        <time>2020-06-17T17:18:57Z</time>
      </trkpt>
      <trkpt lat="49.50085" lon="0.16258">
        <ele>12.1</ele>
        <time>2020-06-17T17:18:58Z</time>
      </trkpt>
      <trkpt lat="49.5009" lon="0.16257">
        <ele>12.1</ele>
        <time>2020-06-17T17:18:59Z</time>
      </trkpt>
      <trkpt lat="49.50095" lon="0.16258">
        <ele>11.9</ele>
        <time>2020-06-17T17:19:00Z</time>
      </trkpt>
      <trkpt lat="49.501" lon="0.16258">
        <ele>11.9</ele>
        <time>2020-06-17T17:19:01Z</time>
      </trkpt>
      <trkpt lat="49.50105" lon="0.16257">
        <ele>11.9</ele>
        <time>2020-06-17T17:19:02Z</time>
      </trkpt>
      <trkpt lat="49.50109" lon="0.16255">
        <ele>11.9</ele>
        <time>2020-06-17T17:19:03Z</time>
      </trkpt>
      <trkpt lat="49.50114" lon="0.16253">
        <ele>11.9</ele>
        <time>2020-06-17T17:19:04Z</time>
      </trkpt>
      <trkpt lat="49.50118" lon="0.16251">
        <ele>11.9</ele>
        <time>2020-06-17T17:19:05Z</time>
      </trkpt>
      <trkpt lat="49.50122" lon="0.16249">
        <ele>12.1</ele>
        <time>2020-06-17T17:19:06Z</time>
      </trkpt>
      <trkpt lat="49.50126" lon="0.16248">
        <ele>12.4</ele>
        <time>2020-06-17T17:19:07Z</time>
      </trkpt>
      <trkpt lat="49.5013" lon="0.16247">
        <ele>12.6</ele>
        <time>2020-06-17T17:19:08Z</time>
      </trkpt>
      <trkpt lat="49.50134" lon="0.16247">
        <ele>12.8</ele>
        <time>2020-06-17T17:19:09Z</time>
      </trkpt>
      <trkpt lat="49.50138" lon="0.16245">
        <ele>13.1</ele>
        <time>2020-06-17T17:19:10Z</time>
      </trkpt>
      <trkpt lat="49.50141" lon="0.16245">
        <ele>13.3</ele>
        <time>2020-06-17T17:19:11Z</time>
      </trkpt>
      <trkpt lat="49.50145" lon="0.16243">
        <ele>13.6</ele>
        <time>2020-06-17T17:19:12Z</time>
      </trkpt>
      <trkpt lat="49.50148" lon="0.16241">
        <ele>13.8</ele>
        <time>2020-06-17T17:19:13Z</time>
      </trkpt>
      <trkpt lat="49.5015" lon="0.16241">
        <ele>14</ele>
        <time>2020-06-17T17:19:14Z</time>
      </trkpt>
      <trkpt lat="49.50154" lon="0.16243">
        <ele>14.3</ele>
        <time>2020-06-17T17:19:15Z</time>
      </trkpt>
      <trkpt lat="49.50156" lon="0.16244">
        <ele>14.5</ele>
        <time>2020-06-17T17:19:16Z</time>
      </trkpt>
      <trkpt lat="49.50159" lon="0.16247">
        <ele>14.7</ele>
        <time>2020-06-17T17:19:17Z</time>
      </trkpt>
      <trkpt lat="49.50163" lon="0.16247">
        <ele>15</ele>
        <time>2020-06-17T17:19:18Z</time>
      </trkpt>
      <trkpt lat="49.50164" lon="0.16248">
        <ele>15.1</ele>
        <time>2020-06-17T17:19:19Z</time>
      </trkpt>
      <trkpt lat="49.50167" lon="0.1625">
        <ele>15.6</ele>
        <time>2020-06-17T17:19:20Z</time>
      </trkpt>
      <trkpt lat="49.5017" lon="0.16251">
        <ele>15.6</ele>
        <time>2020-06-17T17:19:21Z</time>
      </trkpt>
      <trkpt lat="49.50173" lon="0.1625">
        <ele>15.7</ele>
        <time>2020-06-17T17:19:22Z</time>
      </trkpt>
      <trkpt lat="49.50177" lon="0.1625">
        <ele>15.7</ele>
        <time>2020-06-17T17:19:23Z</time>
      </trkpt>
      <trkpt lat="49.50178" lon="0.16249">
        <ele>15.7</ele>
        <time>2020-06-17T17:19:24Z</time>
      </trkpt>
      <trkpt lat="49.50181" lon="0.16248">
        <ele>16</ele>
        <time>2020-06-17T17:19:25Z</time>
      </trkpt>
      <trkpt lat="49.50185" lon="0.16249">
        <ele>16.2</ele>
        <time>2020-06-17T17:19:26Z</time>
      </trkpt>
      <trkpt lat="49.50185" lon="0.1625">
        <ele>16.3</ele>
        <time>2020-06-17T17:19:27Z</time>
      </trkpt>
      <trkpt lat="49.50187" lon="0.16254">
        <ele>16.5</ele>
        <time>2020-06-17T17:19:28Z</time>
      </trkpt>
      <trkpt lat="49.50188" lon="0.16256">
        <ele>16.5</ele>
        <time>2020-06-17T17:19:29Z</time>
      </trkpt>
      <trkpt lat="49.5019" lon="0.16259">
        <ele>16.7</ele>
        <time>2020-06-17T17:19:30Z</time>
      </trkpt>
      <trkpt lat="49.50192" lon="0.16262">
        <ele>16.9</ele>
        <time>2020-06-17T17:19:31Z</time>
      </trkpt>
      <trkpt lat="49.50195" lon="0.16264">
        <ele>17.1</ele>
        <time>2020-06-17T17:19:32Z</time>
      </trkpt>
      <trkpt lat="49.50197" lon="0.16266">
        <ele>17.4</ele>
        <time>2020-06-17T17:19:33Z</time>
      </trkpt>
      <trkpt lat="49.502" lon="0.1627">
        <ele>17.7</ele>
        <time>2020-06-17T17:19:34Z</time>
      </trkpt>
      <trkpt lat="49.50201" lon="0.16271">
        <ele>17.8</ele>
        <time>2020-06-17T17:19:35Z</time>
      </trkpt>
      <trkpt lat="49.50204" lon="0.16275">
        <ele>18.2</ele>
        <time>2020-06-17T17:19:36Z</time>
      </trkpt>
      <trkpt lat="49.50205" lon="0.16277">
        <ele>18.3</ele>
        <time>2020-06-17T17:19:37Z</time>
      </trkpt>
      <trkpt lat="49.50207" lon="0.1628">
        <ele>18.6</ele>
        <time>2020-06-17T17:19:38Z</time>
      </trkpt>
      <trkpt lat="49.50208" lon="0.16282">
        <ele>18.7</ele>
        <time>2020-06-17T17:19:39Z</time>
      </trkpt>
      <trkpt lat="49.50211" lon="0.16284">
        <ele>19</ele>
        <time>2020-06-17T17:19:40Z</time>
      </trkpt>
      <trkpt lat="49.50211" lon="0.16284">
        <ele>19</ele>
        <time>2020-06-17T17:19:41Z</time>
      </trkpt>
      <trkpt lat="49.50213" lon="0.16286">
        <ele>19.2</ele>
        <time>2020-06-17T17:19:42Z</time>
      </trkpt>
      <trkpt lat="49.50214" lon="0.16287">
        <ele>19.4</ele>
        <time>2020-06-17T17:19:43Z</time>
      </trkpt>
      <trkpt lat="49.50215" lon="0.16289">
        <ele>19.5</ele>
        <time>2020-06-17T17:19:44Z</time>
      </trkpt>
      <trkpt lat="49.50217" lon="0.1629">
        <ele>19.6</ele>
        <time>2020-06-17T17:19:45Z</time>
      </trkpt>
      <trkpt lat="49.50218" lon="0.1629">
        <ele>19.8</ele>
        <time>2020-06-17T17:19:46Z</time>
      </trkpt>
      <trkpt lat="49.50219" lon="0.16291">
        <ele>19.9</ele>
        <time>2020-06-17T17:19:47Z</time>
      </trkpt>
      <trkpt lat="49.5022" lon="0.16293">
        <ele>20</ele>
        <time>2020-06-17T17:19:48Z</time>
      </trkpt>
      <trkpt lat="49.5022" lon="0.16296">
        <ele>20.1</ele>
        <time>2020-06-17T17:19:49Z</time>
      </trkpt>
      <trkpt lat="49.5022" lon="0.16298">
        <ele>20.2</ele>
        <time>2020-06-17T17:19:50Z</time>
      </trkpt>
      <trkpt lat="49.50221" lon="0.163">
        <ele>20.4</ele>
        <time>2020-06-17T17:19:51Z</time>
      </trkpt>
      <trkpt lat="49.50222" lon="0.16301">
        <ele>20.4</ele>
        <time>2020-06-17T17:19:52Z</time>
      </trkpt>
      <trkpt lat="49.50223" lon="0.16301">
        <ele>20.5</ele>
        <time>2020-06-17T17:19:53Z</time>
      </trkpt>
      <trkpt lat="49.50224" lon="0.16302">
        <ele>20.6</ele>
        <time>2020-06-17T17:19:54Z</time>
      </trkpt>
      <trkpt lat="49.50225" lon="0.16303">
        <ele>20.7</ele>
        <time>2020-06-17T17:19:55Z</time>
      </trkpt>
      <trkpt lat="49.50226" lon="0.16303">
        <ele>20.7</ele>
        <time>2020-06-17T17:19:56Z</time>
      </trkpt>
      <trkpt lat="49.50226" lon="0.16303">
        <ele>20.8</ele>
        <time>2020-06-17T17:19:57Z</time>
      </trkpt>
      <trkpt lat="49.50226" lon="0.16304">
        <ele>20.8</ele>
        <time>2020-06-17T17:19:58Z</time>
      </trkpt>
      <trkpt lat="49.50226" lon="0.16304">
        <ele>20.8</ele>
        <time>2020-06-17T17:19:59Z</time>
      </trkpt>
      <trkpt lat="49.50227" lon="0.16304">
        <ele>20.8</ele>
        <time>2020-06-17T17:20:00Z</time>
      </trkpt>
      <trkpt lat="49.5023" lon="0.16304">
        <ele>21</ele>
        <time>2020-06-17T17:20:01Z</time>
      </trkpt>
      <trkpt lat="49.50232" lon="0.16303">
        <ele>21.1</ele>
        <time>2020-06-17T17:20:02Z</time>
      </trkpt>
      <trkpt lat="49.50234" lon="0.16302">
        <ele>21.3</ele>
        <time>2020-06-17T17:20:26Z</time>
      </trkpt>
      <trkpt lat="49.50237" lon="0.16302">
        <ele>21.7</ele>
        <time>2020-06-17T17:20:27Z</time>
      </trkpt>
      <trkpt lat="49.50238" lon="0.16301">
        <ele>21.8</ele>
        <time>2020-06-17T17:20:28Z</time>
      </trkpt>
      <trkpt lat="49.50239" lon="0.16301">
        <ele>21.9</ele>
        <time>2020-06-17T17:20:29Z</time>
      </trkpt>
      <trkpt lat="49.50241" lon="0.16301">
        <ele>22</ele>
        <time>2020-06-17T17:20:30Z</time>
      </trkpt>
      <trkpt lat="49.50243" lon="0.16302">
        <ele>22.1</ele>
        <time>2020-06-17T17:20:31Z</time>
      </trkpt>
      <trkpt lat="49.50246" lon="0.16302">
        <ele>22.4</ele>
        <time>2020-06-17T17:20:32Z</time>
      </trkpt>
      <trkpt lat="49.50247" lon="0.16302">
        <ele>22.5</ele>
        <time>2020-06-17T17:20:33Z</time>
      </trkpt>
      <trkpt lat="49.50249" lon="0.16303">
        <ele>22.6</ele>
        <time>2020-06-17T17:20:34Z</time>
      </trkpt>
      <trkpt lat="49.5025" lon="0.16304">
        <ele>22.7</ele>
        <time>2020-06-17T17:20:35Z</time>
      </trkpt>
      <trkpt lat="49.50252" lon="0.16305">
        <ele>22.9</ele>
        <time>2020-06-17T17:20:36Z</time>
      </trkpt>
      <trkpt lat="49.50253" lon="0.16307">
        <ele>23</ele>
        <time>2020-06-17T17:20:37Z</time>
      </trkpt>
      <trkpt lat="49.50254" lon="0.16308">
        <ele>23.2</ele>
        <time>2020-06-17T17:20:38Z</time>
      </trkpt>
      <trkpt lat="49.50255" lon="0.1631">
        <ele>23.3</ele>
        <time>2020-06-17T17:20:39Z</time>
      </trkpt>
      <trkpt lat="49.50257" lon="0.16312">
        <ele>23.4</ele>
        <time>2020-06-17T17:20:40Z</time>
      </trkpt>
      <trkpt lat="49.50258" lon="0.16314">
        <ele>23.6</ele>
        <time>2020-06-17T17:20:41Z</time>
      </trkpt>
      <trkpt lat="49.50258" lon="0.16317">
        <ele>23.7</ele>
        <time>2020-06-17T17:20:42Z</time>
      </trkpt>
      <trkpt lat="49.50259" lon="0.16318">
        <ele>23.9</ele>
        <time>2020-06-17T17:20:43Z</time>
      </trkpt>
      <trkpt lat="49.50261" lon="0.16323">
        <ele>24.1</ele>
        <time>2020-06-17T17:20:44Z</time>
      </trkpt>
      <trkpt lat="49.50261" lon="0.16324">
        <ele>24.2</ele>
        <time>2020-06-17T17:20:45Z</time>
      </trkpt>
      <trkpt lat="49.50262" lon="0.16328">
        <ele>24.4</ele>
        <time>2020-06-17T17:20:46Z</time>
      </trkpt>
      <trkpt lat="49.50263" lon="0.16329">
        <ele>24.5</ele>
        <time>2020-06-17T17:20:47Z</time>
      </trkpt>
      <trkpt lat="49.50265" lon="0.16333">
        <ele>24.8</ele>
        <time>2020-06-17T17:20:48Z</time>
      </trkpt>
      <trkpt lat="49.50265" lon="0.16334">
        <ele>24.8</ele>
        <time>2020-06-17T17:20:49Z</time>
      </trkpt>
      <trkpt lat="49.50268" lon="0.16335">
        <ele>25.1</ele>
        <time>2020-06-17T17:20:50Z</time>
      </trkpt>
      <trkpt lat="49.50269" lon="0.16336">
        <ele>25.2</ele>
        <time>2020-06-17T17:20:51Z</time>
      </trkpt>
      <trkpt lat="49.50272" lon="0.16339">
        <ele>25.4</ele>
        <time>2020-06-17T17:20:52Z</time>
      </trkpt>
      <trkpt lat="49.50272" lon="0.1634">
        <ele>25.5</ele>
        <time>2020-06-17T17:20:53Z</time>
      </trkpt>
      <trkpt lat="49.50274" lon="0.16343">
        <ele>25.8</ele>
        <time>2020-06-17T17:20:54Z</time>
      </trkpt>
      <trkpt lat="49.50275" lon="0.16344">
        <ele>25.9</ele>
        <time>2020-06-17T17:20:55Z</time>
      </trkpt>
      <trkpt lat="49.50277" lon="0.16347">
        <ele>26.8</ele>
        <time>2020-06-17T17:20:56Z</time>
      </trkpt>
      <trkpt lat="49.50278" lon="0.16348">
        <ele>26.9</ele>
        <time>2020-06-17T17:20:57Z</time>
      </trkpt>
      <trkpt lat="49.50281" lon="0.1635">
        <ele>27.3</ele>
        <time>2020-06-17T17:20:58Z</time>
      </trkpt>
      <trkpt lat="49.50282" lon="0.16351">
        <ele>27.5</ele>
        <time>2020-06-17T17:20:59Z</time>
      </trkpt>
      <trkpt lat="49.50285" lon="0.16352">
        <ele>27.9</ele>
        <time>2020-06-17T17:21:00Z</time>
      </trkpt>
      <trkpt lat="49.50286" lon="0.16353">
        <ele>28</ele>
        <time>2020-06-17T17:21:01Z</time>
      </trkpt>
      <trkpt lat="49.50287" lon="0.16355">
        <ele>28.2</ele>
        <time>2020-06-17T17:21:02Z</time>
      </trkpt>
      <trkpt lat="49.50289" lon="0.16355">
        <ele>28.4</ele>
        <time>2020-06-17T17:21:03Z</time>
      </trkpt>
      <trkpt lat="49.5029" lon="0.16357">
        <ele>28.6</ele>
        <time>2020-06-17T17:21:04Z</time>
      </trkpt>
      <trkpt lat="49.50292" lon="0.16358">
        <ele>28.9</ele>
        <time>2020-06-17T17:21:05Z</time>
      </trkpt>
      <trkpt lat="49.50293" lon="0.1636">
        <ele>29.1</ele>
        <time>2020-06-17T17:21:06Z</time>
      </trkpt>
      <trkpt lat="49.50294" lon="0.16361">
        <ele>29.3</ele>
        <time>2020-06-17T17:21:07Z</time>
      </trkpt>
      <trkpt lat="49.50295" lon="0.16364">
        <ele>29.5</ele>
        <time>2020-06-17T17:21:08Z</time>
      </trkpt>
      <trkpt lat="49.50296" lon="0.16365">
        <ele>29.7</ele>
        <time>2020-06-17T17:21:09Z</time>
      </trkpt>
      <trkpt lat="49.50297" lon="0.16367">
        <ele>29.9</ele>
        <time>2020-06-17T17:21:10Z</time>
      </trkpt>
      <trkpt lat="49.50298" lon="0.16368">
        <ele>30.1</ele>
        <time>2020-06-17T17:21:11Z</time>
      </trkpt>
      <trkpt lat="49.503" lon="0.1637">
        <ele>30.4</ele>
        <time>2020-06-17T17:21:12Z</time>
      </trkpt>
      <trkpt lat="49.50301" lon="0.16372">
        <ele>30.6</ele>
        <time>2020-06-17T17:21:13Z</time>
      </trkpt>
      <trkpt lat="49.50302" lon="0.16373">
        <ele>30.9</ele>
        <time>2020-06-17T17:21:14Z</time>
      </trkpt>
      <trkpt lat="49.50304" lon="0.16374">
        <ele>31.1</ele>
        <time>2020-06-17T17:21:15Z</time>
      </trkpt>
      <trkpt lat="49.50306" lon="0.16377">
        <ele>31.4</ele>
        <time>2020-06-17T17:21:16Z</time>
      </trkpt>
      <trkpt lat="49.50307" lon="0.16377">
        <ele>31.6</ele>
        <time>2020-06-17T17:21:17Z</time>
      </trkpt>
      <trkpt lat="49.50308" lon="0.16378">
        <ele>31.7</ele>
        <time>2020-06-17T17:21:18Z</time>
      </trkpt>
      <trkpt lat="49.5031" lon="0.1638">
        <ele>32.1</ele>
        <time>2020-06-17T17:21:19Z</time>
      </trkpt>
      <trkpt lat="49.50311" lon="0.16381">
        <ele>32.3</ele>
        <time>2020-06-17T17:21:20Z</time>
      </trkpt>
      <trkpt lat="49.50313" lon="0.16383">
        <ele>32.6</ele>
        <time>2020-06-17T17:21:21Z</time>
      </trkpt>
      <trkpt lat="49.50314" lon="0.16385">
        <ele>32.8</ele>
        <time>2020-06-17T17:21:22Z</time>
      </trkpt>
      <trkpt lat="49.50314" lon="0.16386">
        <ele>33</ele>
        <time>2020-06-17T17:21:23Z</time>
      </trkpt>
      <trkpt lat="49.50315" lon="0.16389">
        <ele>33.2</ele>
        <time>2020-06-17T17:21:24Z</time>
      </trkpt>
      <trkpt lat="49.50316" lon="0.16391">
        <ele>33.4</ele>
        <time>2020-06-17T17:21:25Z</time>
      </trkpt>
      <trkpt lat="49.50317" lon="0.16392">
        <ele>33.6</ele>
        <time>2020-06-17T17:21:26Z</time>
      </trkpt>
      <trkpt lat="49.50318" lon="0.16393">
        <ele>33.7</ele>
        <time>2020-06-17T17:21:27Z</time>
      </trkpt>
      <trkpt lat="49.50318" lon="0.16394">
        <ele>33.8</ele>
        <time>2020-06-17T17:21:28Z</time>
      </trkpt>
      <trkpt lat="49.5032" lon="0.16395">
        <ele>34.1</ele>
        <time>2020-06-17T17:21:29Z</time>
      </trkpt>
      <trkpt lat="49.50321" lon="0.16397">
        <ele>34.3</ele>
        <time>2020-06-17T17:21:30Z</time>
      </trkpt>
      <trkpt lat="49.50322" lon="0.16397">
        <ele>34.5</ele>
        <time>2020-06-17T17:21:31Z</time>
      </trkpt>
      <trkpt lat="49.50323" lon="0.16399">
        <ele>34.7</ele>
        <time>2020-06-17T17:21:32Z</time>
      </trkpt>
      <trkpt lat="49.50323" lon="0.16401">
        <ele>34.9</ele>
        <time>2020-06-17T17:21:33Z</time>
      </trkpt>
      <trkpt lat="49.50324" lon="0.16402">
        <ele>35</ele>
        <time>2020-06-17T17:21:34Z</time>
      </trkpt>
      <trkpt lat="49.50325" lon="0.16403">
        <ele>35.2</ele>
        <time>2020-06-17T17:21:35Z</time>
      </trkpt>
      <trkpt lat="49.50325" lon="0.16404">
        <ele>35.3</ele>
        <time>2020-06-17T17:21:36Z</time>
      </trkpt>
      <trkpt lat="49.50326" lon="0.16406">
        <ele>35.5</ele>
        <time>2020-06-17T17:21:37Z</time>
      </trkpt>
      <trkpt lat="49.50327" lon="0.16409">
        <ele>35.8</ele>
        <time>2020-06-17T17:21:38Z</time>
      </trkpt>
      <trkpt lat="49.50328" lon="0.16411">
        <ele>36.1</ele>
        <time>2020-06-17T17:21:39Z</time>
      </trkpt>
      <trkpt lat="49.50329" lon="0.16412">
        <ele>36.3</ele>
        <time>2020-06-17T17:21:40Z</time>
      </trkpt>
      <trkpt lat="49.5033" lon="0.16415">
        <ele>36.5</ele>
        <time>2020-06-17T17:21:41Z</time>
      </trkpt>
      <trkpt lat="49.50331" lon="0.16416">
        <ele>36.7</ele>
        <time>2020-06-17T17:21:42Z</time>
      </trkpt>
      <trkpt lat="49.50332" lon="0.16417">
        <ele>36.8</ele>
        <time>2020-06-17T17:21:43Z</time>
      </trkpt>
      <trkpt lat="49.50332" lon="0.16418">
        <ele>37</ele>
        <time>2020-06-17T17:21:44Z</time>
      </trkpt>
      <trkpt lat="49.50333" lon="0.16419">
        <ele>37.1</ele>
        <time>2020-06-17T17:21:45Z</time>
      </trkpt>
      <trkpt lat="49.50334" lon="0.1642">
        <ele>37.2</ele>
        <time>2020-06-17T17:21:46Z</time>
      </trkpt>
      <trkpt lat="49.50334" lon="0.1642">
        <ele>37.3</ele>
        <time>2020-06-17T17:21:47Z</time>
      </trkpt>
      <trkpt lat="49.50335" lon="0.16421">
        <ele>37.5</ele>
        <time>2020-06-17T17:21:48Z</time>
      </trkpt>
      <trkpt lat="49.50336" lon="0.16423">
        <ele>37.7</ele>
        <time>2020-06-17T17:21:49Z</time>
      </trkpt>
      <trkpt lat="49.50336" lon="0.16425">
        <ele>37.8</ele>
        <time>2020-06-17T17:21:50Z</time>
      </trkpt>
      <trkpt lat="49.50336" lon="0.16427">
        <ele>38</ele>
        <time>2020-06-17T17:21:51Z</time>
      </trkpt>
      <trkpt lat="49.50336" lon="0.16429">
        <ele>38.3</ele>
        <time>2020-06-17T17:21:52Z</time>
      </trkpt>
      <trkpt lat="49.50335" lon="0.16432">
        <ele>38.6</ele>
        <time>2020-06-17T17:21:53Z</time>
      </trkpt>
      <trkpt lat="49.50335" lon="0.16434">
        <ele>38.7</ele>
        <time>2020-06-17T17:21:54Z</time>
      </trkpt>
      <trkpt lat="49.50335" lon="0.16435">
        <ele>38.9</ele>
        <time>2020-06-17T17:21:55Z</time>
      </trkpt>
      <trkpt lat="49.50334" lon="0.16437">
        <ele>39.1</ele>
        <time>2020-06-17T17:21:56Z</time>
      </trkpt>
      <trkpt lat="49.50333" lon="0.16439">
        <ele>39.3</ele>
        <time>2020-06-17T17:21:57Z</time>
      </trkpt>
      <trkpt lat="49.50333" lon="0.16441">
        <ele>39.4</ele>
        <time>2020-06-17T17:21:58Z</time>
      </trkpt>
      <trkpt lat="49.50332" lon="0.16444">
        <ele>39.4</ele>
        <time>2020-06-17T17:21:59Z</time>
      </trkpt>
      <trkpt lat="49.50331" lon="0.16446">
        <ele>39.3</ele>
        <time>2020-06-17T17:22:00Z</time>
      </trkpt>
      <trkpt lat="49.5033" lon="0.16448">
        <ele>39.3</ele>
        <time>2020-06-17T17:22:01Z</time>
      </trkpt>
      <trkpt lat="49.50329" lon="0.16449">
        <ele>39.3</ele>
        <time>2020-06-17T17:22:02Z</time>
      </trkpt>
      <trkpt lat="49.50327" lon="0.1645">
        <ele>39.3</ele>
        <time>2020-06-17T17:22:03Z</time>
      </trkpt>
      <trkpt lat="49.50326" lon="0.16451">
        <ele>39.2</ele>
        <time>2020-06-17T17:22:04Z</time>
      </trkpt>
      <trkpt lat="49.50325" lon="0.16451">
        <ele>39.2</ele>
        <time>2020-06-17T17:22:05Z</time>
      </trkpt>
      <trkpt lat="49.50324" lon="0.16452">
        <ele>39.2</ele>
        <time>2020-06-17T17:22:06Z</time>
      </trkpt>
      <trkpt lat="49.50323" lon="0.16455">
        <ele>39.2</ele>
        <time>2020-06-17T17:22:07Z</time>
      </trkpt>
      <trkpt lat="49.50323" lon="0.16456">
        <ele>39.2</ele>
        <time>2020-06-17T17:22:08Z</time>
      </trkpt>
      <trkpt lat="49.50322" lon="0.16458">
        <ele>39.2</ele>
        <time>2020-06-17T17:22:09Z</time>
      </trkpt>
      <trkpt lat="49.50321" lon="0.16459">
        <ele>39.1</ele>
        <time>2020-06-17T17:22:10Z</time>
      </trkpt>
      <trkpt lat="49.5032" lon="0.16461">
        <ele>39.1</ele>
        <time>2020-06-17T17:22:11Z</time>
      </trkpt>
      <trkpt lat="49.50318" lon="0.16465">
        <ele>39</ele>
        <time>2020-06-17T17:22:12Z</time>
      </trkpt>
      <trkpt lat="49.50318" lon="0.16467">
        <ele>39</ele>
        <time>2020-06-17T17:22:13Z</time>
      </trkpt>
      <trkpt lat="49.50316" lon="0.16471">
        <ele>39</ele>
        <time>2020-06-17T17:22:14Z</time>
      </trkpt>
      <trkpt lat="49.50315" lon="0.16473">
        <ele>39</ele>
        <time>2020-06-17T17:22:15Z</time>
      </trkpt>
      <trkpt lat="49.50314" lon="0.16477">
        <ele>39</ele>
        <time>2020-06-17T17:22:16Z</time>
      </trkpt>
      <trkpt lat="49.50312" lon="0.16482">
        <ele>38.9</ele>
        <time>2020-06-17T17:22:17Z</time>
      </trkpt>
      <trkpt lat="49.50312" lon="0.16483">
        <ele>38.9</ele>
        <time>2020-06-17T17:22:18Z</time>
      </trkpt>
      <trkpt lat="49.5031" lon="0.16487">
        <ele>38.9</ele>
        <time>2020-06-17T17:22:19Z</time>
      </trkpt>
      <trkpt lat="49.50309" lon="0.16489">
        <ele>38.9</ele>
        <time>2020-06-17T17:22:20Z</time>
      </trkpt>
      <trkpt lat="49.50309" lon="0.16492">
        <ele>38.9</ele>
        <time>2020-06-17T17:22:21Z</time>
      </trkpt>
      <trkpt lat="49.50308" lon="0.16494">
        <ele>38.9</ele>
        <time>2020-06-17T17:22:22Z</time>
      </trkpt>
      <trkpt lat="49.50307" lon="0.16495">
        <ele>38.9</ele>
        <time>2020-06-17T17:22:23Z</time>
      </trkpt>
      <trkpt lat="49.50307" lon="0.16497">
        <ele>38.9</ele>
        <time>2020-06-17T17:22:24Z</time>
      </trkpt>
      <trkpt lat="49.50306" lon="0.16497">
        <ele>38.9</ele>
        <time>2020-06-17T17:22:25Z</time>
      </trkpt>
      <trkpt lat="49.50305" lon="0.16499">
        <ele>38.9</ele>
        <time>2020-06-17T17:22:26Z</time>
      </trkpt>
      <trkpt lat="49.50304" lon="0.16502">
        <ele>38.9</ele>
        <time>2020-06-17T17:22:27Z</time>
      </trkpt>
      <trkpt lat="49.50303" lon="0.16504">
        <ele>39</ele>
        <time>2020-06-17T17:22:28Z</time>
      </trkpt>
      <trkpt lat="49.50303" lon="0.16506">
        <ele>39</ele>
        <time>2020-06-17T17:22:29Z</time>
      </trkpt>
      <trkpt lat="49.50302" lon="0.16509">
        <ele>39</ele>
        <time>2020-06-17T17:22:30Z</time>
      </trkpt>
      <trkpt lat="49.50301" lon="0.16511">
        <ele>39</ele>
        <time>2020-06-17T17:22:31Z</time>
      </trkpt>
      <trkpt lat="49.50301" lon="0.16515">
        <ele>39.1</ele>
        <time>2020-06-17T17:22:32Z</time>
      </trkpt>
      <trkpt lat="49.50301" lon="0.16517">
        <ele>39.1</ele>
        <time>2020-06-17T17:22:33Z</time>
      </trkpt>
      <trkpt lat="49.50302" lon="0.16518">
        <ele>39.1</ele>
        <time>2020-06-17T17:22:34Z</time>
      </trkpt>
      <trkpt lat="49.50302" lon="0.1652">
        <ele>39.1</ele>
        <time>2020-06-17T17:22:35Z</time>
      </trkpt>
      <trkpt lat="49.50302" lon="0.16522">
        <ele>39.1</ele>
        <time>2020-06-17T17:22:36Z</time>
      </trkpt>
      <trkpt lat="49.50301" lon="0.16524">
        <ele>39.1</ele>
        <time>2020-06-17T17:22:37Z</time>
      </trkpt>
      <trkpt lat="49.50301" lon="0.16525">
        <ele>39.2</ele>
        <time>2020-06-17T17:22:38Z</time>
      </trkpt>
      <trkpt lat="49.50301" lon="0.16526">
        <ele>39.2</ele>
        <time>2020-06-17T17:22:39Z</time>
      </trkpt>
      <trkpt lat="49.503" lon="0.16527">
        <ele>39.2</ele>
        <time>2020-06-17T17:22:40Z</time>
      </trkpt>
      <trkpt lat="49.503" lon="0.16529">
        <ele>39.2</ele>
        <time>2020-06-17T17:22:41Z</time>
      </trkpt>
      <trkpt lat="49.503" lon="0.16531">
        <ele>39.2</ele>
        <time>2020-06-17T17:22:42Z</time>
      </trkpt>
      <trkpt lat="49.503" lon="0.16533">
        <ele>39.2</ele>
        <time>2020-06-17T17:22:43Z</time>
      </trkpt>
      <trkpt lat="49.503" lon="0.16534">
        <ele>39.3</ele>
        <time>2020-06-17T17:22:44Z</time>
      </trkpt>
      <trkpt lat="49.50299" lon="0.16536">
        <ele>39.3</ele>
        <time>2020-06-17T17:22:45Z</time>
      </trkpt>
      <trkpt lat="49.50299" lon="0.16537">
        <ele>39.3</ele>
        <time>2020-06-17T17:22:46Z</time>
      </trkpt>
      <trkpt lat="49.50299" lon="0.1654">
        <ele>39.4</ele>
        <time>2020-06-17T17:22:47Z</time>
      </trkpt>
      <trkpt lat="49.50299" lon="0.16543">
        <ele>39.4</ele>
        <time>2020-06-17T17:22:48Z</time>
      </trkpt>
      <trkpt lat="49.50299" lon="0.16545">
        <ele>39.5</ele>
        <time>2020-06-17T17:22:49Z</time>
      </trkpt>
      <trkpt lat="49.50298" lon="0.16549">
        <ele>39.6</ele>
        <time>2020-06-17T17:22:50Z</time>
      </trkpt>
      <trkpt lat="49.50298" lon="0.1655">
        <ele>39.7</ele>
        <time>2020-06-17T17:22:51Z</time>
      </trkpt>
      <trkpt lat="49.50298" lon="0.16551">
        <ele>39.7</ele>
        <time>2020-06-17T17:22:52Z</time>
      </trkpt>
      <trkpt lat="49.50297" lon="0.16553">
        <ele>39.8</ele>
        <time>2020-06-17T17:22:53Z</time>
      </trkpt>
      <trkpt lat="49.50297" lon="0.16555">
        <ele>39.9</ele>
        <time>2020-06-17T17:22:54Z</time>
      </trkpt>
      <trkpt lat="49.50297" lon="0.16559">
        <ele>40.1</ele>
        <time>2020-06-17T17:22:55Z</time>
      </trkpt>
      <trkpt lat="49.50297" lon="0.16561">
        <ele>40.3</ele>
        <time>2020-06-17T17:22:56Z</time>
      </trkpt>
      <trkpt lat="49.50297" lon="0.16564">
        <ele>40.4</ele>
        <time>2020-06-17T17:22:57Z</time>
      </trkpt>
      <trkpt lat="49.50297" lon="0.16567">
        <ele>40.6</ele>
        <time>2020-06-17T17:22:58Z</time>
      </trkpt>
      <trkpt lat="49.50297" lon="0.16568">
        <ele>40.7</ele>
        <time>2020-06-17T17:22:59Z</time>
      </trkpt>
      <trkpt lat="49.50297" lon="0.1657">
        <ele>40.9</ele>
        <time>2020-06-17T17:23:00Z</time>
      </trkpt>
      <trkpt lat="49.50296" lon="0.16572">
        <ele>41</ele>
        <time>2020-06-17T17:23:01Z</time>
      </trkpt>
      <trkpt lat="49.50296" lon="0.16573">
        <ele>41.1</ele>
        <time>2020-06-17T17:23:02Z</time>
      </trkpt>
      <trkpt lat="49.50296" lon="0.16575">
        <ele>41.2</ele>
        <time>2020-06-17T17:23:03Z</time>
      </trkpt>
      <trkpt lat="49.50296" lon="0.16577">
        <ele>41.4</ele>
        <time>2020-06-17T17:23:04Z</time>
      </trkpt>
      <trkpt lat="49.50295" lon="0.16579">
        <ele>41.6</ele>
        <time>2020-06-17T17:23:05Z</time>
      </trkpt>
      <trkpt lat="49.50295" lon="0.16581">
        <ele>41.7</ele>
        <time>2020-06-17T17:23:06Z</time>
      </trkpt>
      <trkpt lat="49.50296" lon="0.16583">
        <ele>41.8</ele>
        <time>2020-06-17T17:23:07Z</time>
      </trkpt>
      <trkpt lat="49.50296" lon="0.16584">
        <ele>41.9</ele>
        <time>2020-06-17T17:23:08Z</time>
      </trkpt>
      <trkpt lat="49.50296" lon="0.16586">
        <ele>42.1</ele>
        <time>2020-06-17T17:23:09Z</time>
      </trkpt>
      <trkpt lat="49.50295" lon="0.16591">
        <ele>42.4</ele>
        <time>2020-06-17T17:23:10Z</time>
      </trkpt>
      <trkpt lat="49.50294" lon="0.16592">
        <ele>42.6</ele>
        <time>2020-06-17T17:23:11Z</time>
      </trkpt>
      <trkpt lat="49.50293" lon="0.16597">
        <ele>43</ele>
        <time>2020-06-17T17:23:12Z</time>
      </trkpt>
      <trkpt lat="49.50293" lon="0.16598">
        <ele>43</ele>
        <time>2020-06-17T17:23:13Z</time>
      </trkpt>
      <trkpt lat="49.50293" lon="0.16601">
        <ele>43.3</ele>
        <time>2020-06-17T17:23:14Z</time>
      </trkpt>
      <trkpt lat="49.50293" lon="0.16604">
        <ele>43.5</ele>
        <time>2020-06-17T17:23:15Z</time>
      </trkpt>
      <trkpt lat="49.50293" lon="0.16606">
        <ele>43.7</ele>
        <time>2020-06-17T17:23:16Z</time>
      </trkpt>
      <trkpt lat="49.50294" lon="0.16609">
        <ele>43.9</ele>
        <time>2020-06-17T17:23:17Z</time>
      </trkpt>
      <trkpt lat="49.50294" lon="0.16611">
        <ele>44</ele>
        <time>2020-06-17T17:23:18Z</time>
      </trkpt>
      <trkpt lat="49.50294" lon="0.16612">
        <ele>44.2</ele>
        <time>2020-06-17T17:23:19Z</time>
      </trkpt>
      <trkpt lat="49.50295" lon="0.16615">
        <ele>44.3</ele>
        <time>2020-06-17T17:23:20Z</time>
      </trkpt>
      <trkpt lat="49.50296" lon="0.16618">
        <ele>44.6</ele>
        <time>2020-06-17T17:23:21Z</time>
      </trkpt>
      <trkpt lat="49.50296" lon="0.16619">
        <ele>44.7</ele>
        <time>2020-06-17T17:23:22Z</time>
      </trkpt>
      <trkpt lat="49.50296" lon="0.16621">
        <ele>44.8</ele>
        <time>2020-06-17T17:23:23Z</time>
      </trkpt>
      <trkpt lat="49.50297" lon="0.16624">
        <ele>45.1</ele>
        <time>2020-06-17T17:23:24Z</time>
      </trkpt>
      <trkpt lat="49.50297" lon="0.16625">
        <ele>45.2</ele>
        <time>2020-06-17T17:23:25Z</time>
      </trkpt>
      <trkpt lat="49.50298" lon="0.16627">
        <ele>45.2</ele>
        <time>2020-06-17T17:23:26Z</time>
      </trkpt>
      <trkpt lat="49.50298" lon="0.16628">
        <ele>45.4</ele>
        <time>2020-06-17T17:23:27Z</time>
      </trkpt>
      <trkpt lat="49.50299" lon="0.16628">
        <ele>45.4</ele>
        <time>2020-06-17T17:23:28Z</time>
      </trkpt>
      <trkpt lat="49.50299" lon="0.16629">
        <ele>45.5</ele>
        <time>2020-06-17T17:23:29Z</time>
      </trkpt>
      <trkpt lat="49.50299" lon="0.16629">
        <ele>45.5</ele>
        <time>2020-06-17T17:23:30Z</time>
      </trkpt>
      <trkpt lat="49.503" lon="0.16631">
        <ele>45.7</ele>
        <time>2020-06-17T17:23:31Z</time>
      </trkpt>
      <trkpt lat="49.50301" lon="0.16632">
        <ele>45.8</ele>
        <time>2020-06-17T17:23:32Z</time>
      </trkpt>
      <trkpt lat="49.50301" lon="0.16633">
        <ele>45.9</ele>
        <time>2020-06-17T17:23:33Z</time>
      </trkpt>
      <trkpt lat="49.50302" lon="0.16634">
        <ele>46</ele>
        <time>2020-06-17T17:23:34Z</time>
      </trkpt>
      <trkpt lat="49.50302" lon="0.16634">
        <ele>46.1</ele>
        <time>2020-06-17T17:23:35Z</time>
      </trkpt>
      <trkpt lat="49.50303" lon="0.16635">
        <ele>46.1</ele>
        <time>2020-06-17T17:23:36Z</time>
      </trkpt>
      <trkpt lat="49.50304" lon="0.16636">
        <ele>46.3</ele>
        <time>2020-06-17T17:23:37Z</time>
      </trkpt>
      <trkpt lat="49.50306" lon="0.16637">
        <ele>46.5</ele>
        <time>2020-06-17T17:23:38Z</time>
      </trkpt>
      <trkpt lat="49.50307" lon="0.16638">
        <ele>46.7</ele>
        <time>2020-06-17T17:23:39Z</time>
      </trkpt>
      <trkpt lat="49.50308" lon="0.1664">
        <ele>46.9</ele>
        <time>2020-06-17T17:23:40Z</time>
      </trkpt>
      <trkpt lat="49.50309" lon="0.16642">
        <ele>47.1</ele>
        <time>2020-06-17T17:23:41Z</time>
      </trkpt>
      <trkpt lat="49.5031" lon="0.16643">
        <ele>47.2</ele>
        <time>2020-06-17T17:23:42Z</time>
      </trkpt>
      <trkpt lat="49.5031" lon="0.16643">
        <ele>47.3</ele>
        <time>2020-06-17T17:23:43Z</time>
      </trkpt>
      <trkpt lat="49.5031" lon="0.16644">
        <ele>47.4</ele>
        <time>2020-06-17T17:23:44Z</time>
      </trkpt>
      <trkpt lat="49.50311" lon="0.16645">
        <ele>47.5</ele>
        <time>2020-06-17T17:23:45Z</time>
      </trkpt>
      <trkpt lat="49.50311" lon="0.16646">
        <ele>47.6</ele>
        <time>2020-06-17T17:23:46Z</time>
      </trkpt>
      <trkpt lat="49.50311" lon="0.16647">
        <ele>47.7</ele>
        <time>2020-06-17T17:23:47Z</time>
      </trkpt>
      <trkpt lat="49.50312" lon="0.16648">
        <ele>47.8</ele>
        <time>2020-06-17T17:23:48Z</time>
      </trkpt>
      <trkpt lat="49.50312" lon="0.16648">
        <ele>47.8</ele>
        <time>2020-06-17T17:23:49Z</time>
      </trkpt>
      <trkpt lat="49.50312" lon="0.16649">
        <ele>47.9</ele>
        <time>2020-06-17T17:23:50Z</time>
      </trkpt>
      <trkpt lat="49.50312" lon="0.1665">
        <ele>48</ele>
        <time>2020-06-17T17:23:51Z</time>
      </trkpt>
      <trkpt lat="49.50313" lon="0.1665">
        <ele>48.1</ele>
        <time>2020-06-17T17:23:52Z</time>
      </trkpt>
      <trkpt lat="49.50314" lon="0.16651">
        <ele>48.3</ele>
        <time>2020-06-17T17:23:53Z</time>
      </trkpt>
      <trkpt lat="49.50314" lon="0.16651">
        <ele>48.3</ele>
        <time>2020-06-17T17:23:54Z</time>
      </trkpt>
      <trkpt lat="49.50314" lon="0.1665">
        <ele>48.4</ele>
        <time>2020-06-17T17:23:55Z</time>
      </trkpt>
      <trkpt lat="49.50314" lon="0.1665">
        <ele>48.4</ele>
        <time>2020-06-17T17:23:56Z</time>
      </trkpt>
      <trkpt lat="49.50314" lon="0.1665">
        <ele>48.4</ele>
        <time>2020-06-17T17:23:57Z</time>
      </trkpt>
      <trkpt lat="49.50315" lon="0.1665">
        <ele>48.5</ele>
        <time>2020-06-17T17:23:58Z</time>
      </trkpt>
      <trkpt lat="49.50315" lon="0.16651">
        <ele>48.6</ele>
        <time>2020-06-17T17:23:59Z</time>
      </trkpt>
      <trkpt lat="49.50315" lon="0.16651">
        <ele>48.6</ele>
        <time>2020-06-17T17:24:00Z</time>
      </trkpt>
      <trkpt lat="49.50316" lon="0.16651">
        <ele>48.7</ele>
        <time>2020-06-17T17:24:01Z</time>
      </trkpt>
      <trkpt lat="49.50317" lon="0.16651">
        <ele>48.8</ele>
        <time>2020-06-17T17:24:02Z</time>
      </trkpt>
      <trkpt lat="49.50317" lon="0.16651">
        <ele>48.9</ele>
        <time>2020-06-17T17:24:03Z</time>
      </trkpt>
      <trkpt lat="49.50318" lon="0.1665">
        <ele>49</ele>
        <time>2020-06-17T17:24:04Z</time>
      </trkpt>
      <trkpt lat="49.5032" lon="0.16652">
        <ele>49.3</ele>
        <time>2020-06-17T17:24:05Z</time>
      </trkpt>
      <trkpt lat="49.50321" lon="0.16653">
        <ele>49.6</ele>
        <time>2020-06-17T17:24:06Z</time>
      </trkpt>
      <trkpt lat="49.50322" lon="0.16655">
        <ele>49.8</ele>
        <time>2020-06-17T17:24:07Z</time>
      </trkpt>
      <trkpt lat="49.50323" lon="0.16657">
        <ele>50.1</ele>
        <time>2020-06-17T17:24:08Z</time>
      </trkpt>
      <trkpt lat="49.50324" lon="0.16657">
        <ele>50.2</ele>
        <time>2020-06-17T17:24:09Z</time>
      </trkpt>
      <trkpt lat="49.50324" lon="0.16657">
        <ele>50.2</ele>
        <time>2020-06-17T17:24:10Z</time>
      </trkpt>
      <trkpt lat="49.50325" lon="0.16658">
        <ele>50.3</ele>
        <time>2020-06-17T17:24:11Z</time>
      </trkpt>
      <trkpt lat="49.50325" lon="0.16658">
        <ele>50.4</ele>
        <time>2020-06-17T17:24:12Z</time>
      </trkpt>
      <trkpt lat="49.50326" lon="0.16658">
        <ele>50.5</ele>
        <time>2020-06-17T17:24:13Z</time>
      </trkpt>
      <trkpt lat="49.50327" lon="0.16658">
        <ele>50.6</ele>
        <time>2020-06-17T17:24:14Z</time>
      </trkpt>
      <trkpt lat="49.50329" lon="0.16658">
        <ele>50.9</ele>
        <time>2020-06-17T17:24:15Z</time>
      </trkpt>
      <trkpt lat="49.5033" lon="0.16658">
        <ele>51.1</ele>
        <time>2020-06-17T17:24:16Z</time>
      </trkpt>
      <trkpt lat="49.50331" lon="0.16659">
        <ele>51.2</ele>
        <time>2020-06-17T17:24:17Z</time>
      </trkpt>
      <trkpt lat="49.50331" lon="0.16659">
        <ele>51.3</ele>
        <time>2020-06-17T17:24:18Z</time>
      </trkpt>
      <trkpt lat="49.50332" lon="0.16658">
        <ele>51.4</ele>
        <time>2020-06-17T17:24:19Z</time>
      </trkpt>
      <trkpt lat="49.50332" lon="0.16658">
        <ele>51.4</ele>
        <time>2020-06-17T17:24:20Z</time>
      </trkpt>
      <trkpt lat="49.50333" lon="0.16658">
        <ele>51.6</ele>
        <time>2020-06-17T17:24:21Z</time>
      </trkpt>
      <trkpt lat="49.50333" lon="0.16658">
        <ele>51.6</ele>
        <time>2020-06-17T17:24:22Z</time>
      </trkpt>
      <trkpt lat="49.50334" lon="0.16659">
        <ele>51.6</ele>
        <time>2020-06-17T17:24:23Z</time>
      </trkpt>
      <trkpt lat="49.50334" lon="0.16658">
        <ele>51.7</ele>
        <time>2020-06-17T17:24:24Z</time>
      </trkpt>
      <trkpt lat="49.50334" lon="0.16658">
        <ele>51.7</ele>
        <time>2020-06-17T17:24:25Z</time>
      </trkpt>
      <trkpt lat="49.50334" lon="0.16658">
        <ele>51.7</ele>
        <time>2020-06-17T17:24:26Z</time>
      </trkpt>
      <trkpt lat="49.50334" lon="0.16658">
        <ele>51.7</ele>
        <time>2020-06-17T17:24:27Z</time>
      </trkpt>
      <trkpt lat="49.50334" lon="0.16658">
        <ele>51.7</ele>
        <time>2020-06-17T17:24:28Z</time>
      </trkpt>
      <trkpt lat="49.50334" lon="0.16658">
        <ele>51.8</ele>
        <time>2020-06-17T17:24:29Z</time>
      </trkpt>
      <trkpt lat="49.50335" lon="0.16658">
        <ele>51.8</ele>
        <time>2020-06-17T17:24:30Z</time>
      </trkpt>
      <trkpt lat="49.50336" lon="0.16659">
        <ele>52</ele>
        <time>2020-06-17T17:24:31Z</time>
      </trkpt>
      <trkpt lat="49.50336" lon="0.16659">
        <ele>52</ele>
        <time>2020-06-17T17:24:32Z</time>
      </trkpt>
      <trkpt lat="49.50337" lon="0.16659">
        <ele>52.1</ele>
        <time>2020-06-17T17:24:33Z</time>
      </trkpt>
      <trkpt lat="49.50337" lon="0.16659">
        <ele>52.2</ele>
        <time>2020-06-17T17:24:34Z</time>
      </trkpt>
      <trkpt lat="49.50338" lon="0.1666">
        <ele>52.2</ele>
        <time>2020-06-17T17:24:35Z</time>
      </trkpt>
      <trkpt lat="49.50338" lon="0.16659">
        <ele>52.2</ele>
        <time>2020-06-17T17:24:36Z</time>
      </trkpt>
      <trkpt lat="49.50338" lon="0.1666">
        <ele>52.2</ele>
        <time>2020-06-17T17:24:37Z</time>
      </trkpt>
      <trkpt lat="49.50338" lon="0.1666">
        <ele>52.3</ele>
        <time>2020-06-17T17:24:38Z</time>
      </trkpt>
      <trkpt lat="49.50338" lon="0.16661">
        <ele>52.3</ele>
        <time>2020-06-17T17:24:39Z</time>
      </trkpt>
      <trkpt lat="49.50338" lon="0.16661">
        <ele>52.4</ele>
        <time>2020-06-17T17:24:40Z</time>
      </trkpt>
      <trkpt lat="49.50339" lon="0.16661">
        <ele>52.4</ele>
        <time>2020-06-17T17:24:41Z</time>
      </trkpt>
      <trkpt lat="49.50339" lon="0.16663">
        <ele>52.5</ele>
        <time>2020-06-17T17:24:42Z</time>
      </trkpt>
      <trkpt lat="49.50339" lon="0.16665">
        <ele>52.6</ele>
        <time>2020-06-17T17:24:43Z</time>
      </trkpt>
      <trkpt lat="49.5034" lon="0.16666">
        <ele>52.8</ele>
        <time>2020-06-17T17:24:44Z</time>
      </trkpt>
      <trkpt lat="49.5034" lon="0.16667">
        <ele>52.9</ele>
        <time>2020-06-17T17:24:45Z</time>
      </trkpt>
      <trkpt lat="49.5034" lon="0.16668">
        <ele>52.9</ele>
        <time>2020-06-17T17:24:46Z</time>
      </trkpt>
      <trkpt lat="49.5034" lon="0.16669">
        <ele>53</ele>
        <time>2020-06-17T17:24:47Z</time>
      </trkpt>
      <trkpt lat="49.5034" lon="0.16669">
        <ele>53</ele>
        <time>2020-06-17T17:24:48Z</time>
      </trkpt>
      <trkpt lat="49.5034" lon="0.16669">
        <ele>53</ele>
        <time>2020-06-17T17:24:49Z</time>
      </trkpt>
      <trkpt lat="49.5034" lon="0.16669">
        <ele>53</ele>
        <time>2020-06-17T17:24:50Z</time>
      </trkpt>
      <trkpt lat="49.5034" lon="0.16669">
        <ele>53</ele>
        <time>2020-06-17T17:24:51Z</time>
      </trkpt>
      <trkpt lat="49.5034" lon="0.16669">
        <ele>53</ele>
        <time>2020-06-17T17:24:52Z</time>
      </trkpt>
      <trkpt lat="49.5034" lon="0.16669">
        <ele>53</ele>
        <time>2020-06-17T17:24:53Z</time>
      </trkpt>
      <trkpt lat="49.5034" lon="0.1667">
        <ele>53</ele>
        <time>2020-06-17T17:24:54Z</time>
      </trkpt>
      <trkpt lat="49.5034" lon="0.1667">
        <ele>53</ele>
        <time>2020-06-17T17:24:55Z</time>
      </trkpt>
      <trkpt lat="49.5034" lon="0.1667">
        <ele>53</ele>
        <time>2020-06-17T17:24:56Z</time>
      </trkpt>
      <trkpt lat="49.5034" lon="0.1667">
        <ele>53</ele>
        <time>2020-06-17T17:24:57Z</time>
      </trkpt>
      <trkpt lat="49.50345" lon="0.16679">
        <ele>53.7</ele>
        <time>2020-06-17T17:25:22Z</time>
      </trkpt>
      <trkpt lat="49.50346" lon="0.16681">
        <ele>53.8</ele>
        <time>2020-06-17T17:25:23Z</time>
      </trkpt>
      <trkpt lat="49.50346" lon="0.16686">
        <ele>54</ele>
        <time>2020-06-17T17:25:24Z</time>
      </trkpt>
      <trkpt lat="49.50346" lon="0.16688">
        <ele>54.1</ele>
        <time>2020-06-17T17:25:25Z</time>
      </trkpt>
      <trkpt lat="49.50347" lon="0.16692">
        <ele>55.4</ele>
        <time>2020-06-17T17:25:26Z</time>
      </trkpt>
      <trkpt lat="49.50348" lon="0.16694">
        <ele>55.7</ele>
        <time>2020-06-17T17:25:27Z</time>
      </trkpt>
      <trkpt lat="49.50349" lon="0.16698">
        <ele>56.1</ele>
        <time>2020-06-17T17:25:28Z</time>
      </trkpt>
      <trkpt lat="49.50349" lon="0.167">
        <ele>56.3</ele>
        <time>2020-06-17T17:25:29Z</time>
      </trkpt>
      <trkpt lat="49.50349" lon="0.16702">
        <ele>56.5</ele>
        <time>2020-06-17T17:25:30Z</time>
      </trkpt>
      <trkpt lat="49.5035" lon="0.16704">
        <ele>56.7</ele>
        <time>2020-06-17T17:25:31Z</time>
      </trkpt>
      <trkpt lat="49.5035" lon="0.16706">
        <ele>56.9</ele>
        <time>2020-06-17T17:25:32Z</time>
      </trkpt>
      <trkpt lat="49.50351" lon="0.16708">
        <ele>57.1</ele>
        <time>2020-06-17T17:25:33Z</time>
      </trkpt>
      <trkpt lat="49.50352" lon="0.1671">
        <ele>57.4</ele>
        <time>2020-06-17T17:25:34Z</time>
      </trkpt>
      <trkpt lat="49.50354" lon="0.16711">
        <ele>57.6</ele>
        <time>2020-06-17T17:25:35Z</time>
      </trkpt>
      <trkpt lat="49.50355" lon="0.16713">
        <ele>57.9</ele>
        <time>2020-06-17T17:25:36Z</time>
      </trkpt>
      <trkpt lat="49.50356" lon="0.16714">
        <ele>58</ele>
        <time>2020-06-17T17:25:37Z</time>
      </trkpt>
      <trkpt lat="49.50356" lon="0.16715">
        <ele>58.1</ele>
        <time>2020-06-17T17:25:38Z</time>
      </trkpt>
      <trkpt lat="49.50357" lon="0.16717">
        <ele>58.3</ele>
        <time>2020-06-17T17:25:39Z</time>
      </trkpt>
      <trkpt lat="49.50358" lon="0.1672">
        <ele>58.6</ele>
        <time>2020-06-17T17:25:40Z</time>
      </trkpt>
      <trkpt lat="49.50358" lon="0.16723">
        <ele>58.9</ele>
        <time>2020-06-17T17:25:41Z</time>
      </trkpt>
      <trkpt lat="49.50359" lon="0.16725">
        <ele>59.1</ele>
        <time>2020-06-17T17:25:42Z</time>
      </trkpt>
      <trkpt lat="49.50359" lon="0.16729">
        <ele>59.4</ele>
        <time>2020-06-17T17:25:43Z</time>
      </trkpt>
      <trkpt lat="49.50359" lon="0.1673">
        <ele>59.5</ele>
        <time>2020-06-17T17:25:44Z</time>
      </trkpt>
      <trkpt lat="49.50359" lon="0.16732">
        <ele>59.7</ele>
        <time>2020-06-17T17:25:45Z</time>
      </trkpt>
      <trkpt lat="49.50359" lon="0.16735">
        <ele>60</ele>
        <time>2020-06-17T17:25:46Z</time>
      </trkpt>
      <trkpt lat="49.5036" lon="0.16736">
        <ele>60.1</ele>
        <time>2020-06-17T17:25:47Z</time>
      </trkpt>
      <trkpt lat="49.5036" lon="0.16738">
        <ele>60.2</ele>
        <time>2020-06-17T17:25:48Z</time>
      </trkpt>
      <trkpt lat="49.50361" lon="0.16741">
        <ele>60.5</ele>
        <time>2020-06-17T17:25:49Z</time>
      </trkpt>
      <trkpt lat="49.50362" lon="0.16742">
        <ele>60.6</ele>
        <time>2020-06-17T17:25:50Z</time>
      </trkpt>
      <trkpt lat="49.50362" lon="0.16743">
        <ele>60.7</ele>
        <time>2020-06-17T17:25:51Z</time>
      </trkpt>
      <trkpt lat="49.50362" lon="0.16745">
        <ele>60.9</ele>
        <time>2020-06-17T17:25:52Z</time>
      </trkpt>
      <trkpt lat="49.50362" lon="0.16747">
        <ele>61.1</ele>
        <time>2020-06-17T17:25:53Z</time>
      </trkpt>
      <trkpt lat="49.50361" lon="0.16749">
        <ele>61.3</ele>
        <time>2020-06-17T17:25:54Z</time>
      </trkpt>
      <trkpt lat="49.50361" lon="0.16752">
        <ele>61.6</ele>
        <time>2020-06-17T17:25:55Z</time>
      </trkpt>
      <trkpt lat="49.50361" lon="0.16755">
        <ele>61.8</ele>
        <time>2020-06-17T17:25:56Z</time>
      </trkpt>
      <trkpt lat="49.5036" lon="0.16757">
        <ele>62</ele>
        <time>2020-06-17T17:25:57Z</time>
      </trkpt>
      <trkpt lat="49.50359" lon="0.1676">
        <ele>62.3</ele>
        <time>2020-06-17T17:25:58Z</time>
      </trkpt>
      <trkpt lat="49.50359" lon="0.16761">
        <ele>62.4</ele>
        <time>2020-06-17T17:25:59Z</time>
      </trkpt>
      <trkpt lat="49.50359" lon="0.16763">
        <ele>62.5</ele>
        <time>2020-06-17T17:26:00Z</time>
      </trkpt>
      <trkpt lat="49.50359" lon="0.16765">
        <ele>62.7</ele>
        <time>2020-06-17T17:26:01Z</time>
      </trkpt>
      <trkpt lat="49.50359" lon="0.16768">
        <ele>63</ele>
        <time>2020-06-17T17:26:02Z</time>
      </trkpt>
      <trkpt lat="49.50359" lon="0.16771">
        <ele>63.2</ele>
        <time>2020-06-17T17:26:03Z</time>
      </trkpt>
      <trkpt lat="49.50359" lon="0.16773">
        <ele>63.4</ele>
        <time>2020-06-17T17:26:04Z</time>
      </trkpt>
      <trkpt lat="49.50359" lon="0.16776">
        <ele>63.7</ele>
        <time>2020-06-17T17:26:05Z</time>
      </trkpt>
      <trkpt lat="49.50359" lon="0.16778">
        <ele>63.9</ele>
        <time>2020-06-17T17:26:06Z</time>
      </trkpt>
      <trkpt lat="49.5036" lon="0.16781">
        <ele>64.2</ele>
        <time>2020-06-17T17:26:07Z</time>
      </trkpt>
      <trkpt lat="49.5036" lon="0.16783">
        <ele>64.4</ele>
        <time>2020-06-17T17:26:08Z</time>
      </trkpt>
      <trkpt lat="49.50362" lon="0.16784">
        <ele>64.6</ele>
        <time>2020-06-17T17:26:09Z</time>
      </trkpt>
      <trkpt lat="49.50363" lon="0.16784">
        <ele>64.7</ele>
        <time>2020-06-17T17:26:10Z</time>
      </trkpt>
      <trkpt lat="49.50364" lon="0.16785">
        <ele>64.8</ele>
        <time>2020-06-17T17:26:11Z</time>
      </trkpt>
      <trkpt lat="49.50366" lon="0.16786">
        <ele>65.1</ele>
        <time>2020-06-17T17:26:12Z</time>
      </trkpt>
      <trkpt lat="49.50367" lon="0.16785">
        <ele>65.3</ele>
        <time>2020-06-17T17:26:13Z</time>
      </trkpt>
      <trkpt lat="49.50368" lon="0.16785">
        <ele>65.4</ele>
        <time>2020-06-17T17:26:14Z</time>
      </trkpt>
      <trkpt lat="49.50369" lon="0.16785">
        <ele>66.1</ele>
        <time>2020-06-17T17:26:15Z</time>
      </trkpt>
      <trkpt lat="49.5037" lon="0.16783">
        <ele>66.3</ele>
        <time>2020-06-17T17:26:16Z</time>
      </trkpt>
      <trkpt lat="49.50371" lon="0.16782">
        <ele>66.4</ele>
        <time>2020-06-17T17:26:17Z</time>
      </trkpt>
      <trkpt lat="49.50373" lon="0.16781">
        <ele>66.6</ele>
        <time>2020-06-17T17:26:18Z</time>
      </trkpt>
      <trkpt lat="49.50374" lon="0.1678">
        <ele>66.8</ele>
        <time>2020-06-17T17:26:19Z</time>
      </trkpt>
      <trkpt lat="49.50376" lon="0.16781">
        <ele>67</ele>
        <time>2020-06-17T17:26:20Z</time>
      </trkpt>
      <trkpt lat="49.50377" lon="0.1678">
        <ele>67.1</ele>
        <time>2020-06-17T17:26:21Z</time>
      </trkpt>
      <trkpt lat="49.50379" lon="0.16779">
        <ele>67.3</ele>
        <time>2020-06-17T17:26:22Z</time>
      </trkpt>
      <trkpt lat="49.5038" lon="0.16778">
        <ele>67.5</ele>
        <time>2020-06-17T17:26:23Z</time>
      </trkpt>
      <trkpt lat="49.50381" lon="0.16776">
        <ele>67.6</ele>
        <time>2020-06-17T17:26:24Z</time>
      </trkpt>
      <trkpt lat="49.50382" lon="0.16775">
        <ele>67.8</ele>
        <time>2020-06-17T17:26:25Z</time>
      </trkpt>
      <trkpt lat="49.50383" lon="0.16773">
        <ele>68</ele>
        <time>2020-06-17T17:26:26Z</time>
      </trkpt>
      <trkpt lat="49.50384" lon="0.16773">
        <ele>68</ele>
        <time>2020-06-17T17:26:27Z</time>
      </trkpt>
      <trkpt lat="49.50385" lon="0.16771">
        <ele>68.2</ele>
        <time>2020-06-17T17:26:28Z</time>
      </trkpt>
      <trkpt lat="49.50385" lon="0.16769">
        <ele>68.4</ele>
        <time>2020-06-17T17:26:29Z</time>
      </trkpt>
      <trkpt lat="49.50385" lon="0.16766">
        <ele>68.6</ele>
        <time>2020-06-17T17:26:30Z</time>
      </trkpt>
      <trkpt lat="49.50385" lon="0.16764">
        <ele>68.7</ele>
        <time>2020-06-17T17:26:31Z</time>
      </trkpt>
      <trkpt lat="49.50385" lon="0.16763">
        <ele>68.9</ele>
        <time>2020-06-17T17:26:32Z</time>
      </trkpt>
      <trkpt lat="49.50387" lon="0.16761">
        <ele>69.1</ele>
        <time>2020-06-17T17:26:33Z</time>
      </trkpt>
      <trkpt lat="49.50387" lon="0.16758">
        <ele>69.3</ele>
        <time>2020-06-17T17:26:34Z</time>
      </trkpt>
      <trkpt lat="49.50388" lon="0.16754">
        <ele>69.6</ele>
        <time>2020-06-17T17:26:35Z</time>
      </trkpt>
      <trkpt lat="49.50388" lon="0.16753">
        <ele>69.7</ele>
        <time>2020-06-17T17:26:36Z</time>
      </trkpt>
      <trkpt lat="49.50389" lon="0.1675">
        <ele>70</ele>
        <time>2020-06-17T17:26:37Z</time>
      </trkpt>
      <trkpt lat="49.50389" lon="0.16748">
        <ele>70.2</ele>
        <time>2020-06-17T17:26:38Z</time>
      </trkpt>
      <trkpt lat="49.5039" lon="0.16744">
        <ele>70.5</ele>
        <time>2020-06-17T17:26:39Z</time>
      </trkpt>
      <trkpt lat="49.5039" lon="0.16742">
        <ele>70.6</ele>
        <time>2020-06-17T17:26:40Z</time>
      </trkpt>
      <trkpt lat="49.50391" lon="0.16739">
        <ele>70.8</ele>
        <time>2020-06-17T17:26:41Z</time>
      </trkpt>
      <trkpt lat="49.50391" lon="0.16737">
        <ele>71</ele>
        <time>2020-06-17T17:26:42Z</time>
      </trkpt>
      <trkpt lat="49.50392" lon="0.16733">
        <ele>71.3</ele>
        <time>2020-06-17T17:26:43Z</time>
      </trkpt>
      <trkpt lat="49.50393" lon="0.16732">
        <ele>71.4</ele>
        <time>2020-06-17T17:26:44Z</time>
      </trkpt>
      <trkpt lat="49.50395" lon="0.16728">
        <ele>71.7</ele>
        <time>2020-06-17T17:26:45Z</time>
      </trkpt>
      <trkpt lat="49.50395" lon="0.16727">
        <ele>71.8</ele>
        <time>2020-06-17T17:26:46Z</time>
      </trkpt>
      <trkpt lat="49.50396" lon="0.16725">
        <ele>72</ele>
        <time>2020-06-17T17:26:47Z</time>
      </trkpt>
      <trkpt lat="49.50397" lon="0.16723">
        <ele>72.2</ele>
        <time>2020-06-17T17:26:48Z</time>
      </trkpt>
      <trkpt lat="49.50397" lon="0.1672">
        <ele>72.4</ele>
        <time>2020-06-17T17:26:49Z</time>
      </trkpt>
      <trkpt lat="49.50398" lon="0.16717">
        <ele>72.5</ele>
        <time>2020-06-17T17:26:50Z</time>
      </trkpt>
      <trkpt lat="49.50398" lon="0.16714">
        <ele>72.8</ele>
        <time>2020-06-17T17:26:51Z</time>
      </trkpt>
      <trkpt lat="49.50397" lon="0.16712">
        <ele>72.9</ele>
        <time>2020-06-17T17:26:52Z</time>
      </trkpt>
      <trkpt lat="49.50397" lon="0.16707">
        <ele>73.2</ele>
        <time>2020-06-17T17:26:53Z</time>
      </trkpt>
      <trkpt lat="49.50398" lon="0.16703">
        <ele>73.5</ele>
        <time>2020-06-17T17:26:54Z</time>
      </trkpt>
      <trkpt lat="49.50398" lon="0.16702">
        <ele>73.6</ele>
        <time>2020-06-17T17:26:55Z</time>
      </trkpt>
      <trkpt lat="49.50399" lon="0.16697">
        <ele>73.9</ele>
        <time>2020-06-17T17:26:56Z</time>
      </trkpt>
      <trkpt lat="49.50399" lon="0.16696">
        <ele>74</ele>
        <time>2020-06-17T17:26:57Z</time>
      </trkpt>
      <trkpt lat="49.504" lon="0.16692">
        <ele>74.3</ele>
        <time>2020-06-17T17:26:58Z</time>
      </trkpt>
      <trkpt lat="49.504" lon="0.16691">
        <ele>74.4</ele>
        <time>2020-06-17T17:26:59Z</time>
      </trkpt>
      <trkpt lat="49.50401" lon="0.16689">
        <ele>74.6</ele>
        <time>2020-06-17T17:27:00Z</time>
      </trkpt>
      <trkpt lat="49.50401" lon="0.16686">
        <ele>74.8</ele>
        <time>2020-06-17T17:27:01Z</time>
      </trkpt>
      <trkpt lat="49.50401" lon="0.16684">
        <ele>75</ele>
        <time>2020-06-17T17:27:02Z</time>
      </trkpt>
      <trkpt lat="49.50401" lon="0.16681">
        <ele>75.1</ele>
        <time>2020-06-17T17:27:03Z</time>
      </trkpt>
      <trkpt lat="49.50401" lon="0.16678">
        <ele>75.3</ele>
        <time>2020-06-17T17:27:04Z</time>
      </trkpt>
      <trkpt lat="49.50401" lon="0.16675">
        <ele>75.5</ele>
        <time>2020-06-17T17:27:05Z</time>
      </trkpt>
      <trkpt lat="49.50401" lon="0.16673">
        <ele>75.7</ele>
        <time>2020-06-17T17:27:06Z</time>
      </trkpt>
      <trkpt lat="49.50401" lon="0.1667">
        <ele>75.8</ele>
        <time>2020-06-17T17:27:07Z</time>
      </trkpt>
      <trkpt lat="49.50402" lon="0.16667">
        <ele>76</ele>
        <time>2020-06-17T17:27:08Z</time>
      </trkpt>
      <trkpt lat="49.50401" lon="0.16665">
        <ele>76.2</ele>
        <time>2020-06-17T17:27:09Z</time>
      </trkpt>
      <trkpt lat="49.50401" lon="0.16663">
        <ele>76.3</ele>
        <time>2020-06-17T17:27:10Z</time>
      </trkpt>
      <trkpt lat="49.50401" lon="0.1666">
        <ele>76.5</ele>
        <time>2020-06-17T17:27:11Z</time>
      </trkpt>
      <trkpt lat="49.50401" lon="0.16659">
        <ele>76.5</ele>
        <time>2020-06-17T17:27:12Z</time>
      </trkpt>
      <trkpt lat="49.50401" lon="0.16657">
        <ele>76.7</ele>
        <time>2020-06-17T17:27:13Z</time>
      </trkpt>
      <trkpt lat="49.50401" lon="0.16655">
        <ele>76.8</ele>
        <time>2020-06-17T17:27:14Z</time>
      </trkpt>
      <trkpt lat="49.50401" lon="0.16652">
        <ele>76.9</ele>
        <time>2020-06-17T17:27:15Z</time>
      </trkpt>
      <trkpt lat="49.50402" lon="0.16649">
        <ele>77</ele>
        <time>2020-06-17T17:27:16Z</time>
      </trkpt>
      <trkpt lat="49.50402" lon="0.16647">
        <ele>77.2</ele>
        <time>2020-06-17T17:27:17Z</time>
      </trkpt>
      <trkpt lat="49.50403" lon="0.16645">
        <ele>77.3</ele>
        <time>2020-06-17T17:27:18Z</time>
      </trkpt>
      <trkpt lat="49.50403" lon="0.16642">
        <ele>77.4</ele>
        <time>2020-06-17T17:27:19Z</time>
      </trkpt>
      <trkpt lat="49.50403" lon="0.1664">
        <ele>77.5</ele>
        <time>2020-06-17T17:27:20Z</time>
      </trkpt>
      <trkpt lat="49.50404" lon="0.16638">
        <ele>77.7</ele>
        <time>2020-06-17T17:27:21Z</time>
      </trkpt>
      <trkpt lat="49.50405" lon="0.16636">
        <ele>77.8</ele>
        <time>2020-06-17T17:27:22Z</time>
      </trkpt>
      <trkpt lat="49.50405" lon="0.16633">
        <ele>77.9</ele>
        <time>2020-06-17T17:27:23Z</time>
      </trkpt>
      <trkpt lat="49.50406" lon="0.16631">
        <ele>78</ele>
        <time>2020-06-17T17:27:24Z</time>
      </trkpt>
      <trkpt lat="49.50408" lon="0.16628">
        <ele>78.4</ele>
        <time>2020-06-17T17:27:25Z</time>
      </trkpt>
      <trkpt lat="49.50408" lon="0.16627">
        <ele>78.4</ele>
        <time>2020-06-17T17:27:26Z</time>
      </trkpt>
      <trkpt lat="49.5041" lon="0.16625">
        <ele>78.4</ele>
        <time>2020-06-17T17:27:27Z</time>
      </trkpt>
      <trkpt lat="49.50411" lon="0.16625">
        <ele>78.4</ele>
        <time>2020-06-17T17:27:28Z</time>
      </trkpt>
      <trkpt lat="49.50413" lon="0.16625">
        <ele>78.5</ele>
        <time>2020-06-17T17:27:29Z</time>
      </trkpt>
      <trkpt lat="49.50414" lon="0.16625">
        <ele>78.5</ele>
        <time>2020-06-17T17:27:30Z</time>
      </trkpt>
      <trkpt lat="49.50417" lon="0.16627">
        <ele>78.5</ele>
        <time>2020-06-17T17:27:31Z</time>
      </trkpt>
      <trkpt lat="49.50418" lon="0.16628">
        <ele>78.5</ele>
        <time>2020-06-17T17:27:32Z</time>
      </trkpt>
      <trkpt lat="49.5042" lon="0.1663">
        <ele>78.5</ele>
        <time>2020-06-17T17:27:33Z</time>
      </trkpt>
      <trkpt lat="49.50421" lon="0.16631">
        <ele>78.5</ele>
        <time>2020-06-17T17:27:34Z</time>
      </trkpt>
      <trkpt lat="49.50423" lon="0.16635">
        <ele>79.2</ele>
        <time>2020-06-17T17:27:35Z</time>
      </trkpt>
      <trkpt lat="49.50423" lon="0.16637">
        <ele>79.2</ele>
        <time>2020-06-17T17:27:36Z</time>
      </trkpt>
      <trkpt lat="49.50423" lon="0.16638">
        <ele>79.3</ele>
        <time>2020-06-17T17:27:37Z</time>
      </trkpt>
      <trkpt lat="49.50423" lon="0.16641">
        <ele>79.4</ele>
        <time>2020-06-17T17:27:38Z</time>
      </trkpt>
      <trkpt lat="49.50423" lon="0.16646">
        <ele>79.6</ele>
        <time>2020-06-17T17:27:39Z</time>
      </trkpt>
      <trkpt lat="49.50423" lon="0.16647">
        <ele>79.7</ele>
        <time>2020-06-17T17:27:40Z</time>
      </trkpt>
      <trkpt lat="49.50424" lon="0.16652">
        <ele>79.8</ele>
        <time>2020-06-17T17:27:41Z</time>
      </trkpt>
      <trkpt lat="49.50424" lon="0.16653">
        <ele>79.9</ele>
        <time>2020-06-17T17:27:42Z</time>
      </trkpt>
      <trkpt lat="49.50424" lon="0.16659">
        <ele>80</ele>
        <time>2020-06-17T17:27:43Z</time>
      </trkpt>
      <trkpt lat="49.50424" lon="0.1666">
        <ele>80.1</ele>
        <time>2020-06-17T17:27:44Z</time>
      </trkpt>
      <trkpt lat="49.50424" lon="0.16665">
        <ele>80.3</ele>
        <time>2020-06-17T17:27:45Z</time>
      </trkpt>
      <trkpt lat="49.50424" lon="0.16667">
        <ele>80.3</ele>
        <time>2020-06-17T17:27:46Z</time>
      </trkpt>
      <trkpt lat="49.50424" lon="0.16673">
        <ele>80.5</ele>
        <time>2020-06-17T17:27:47Z</time>
      </trkpt>
      <trkpt lat="49.50424" lon="0.16675">
        <ele>80.6</ele>
        <time>2020-06-17T17:27:48Z</time>
      </trkpt>
      <trkpt lat="49.50424" lon="0.16681">
        <ele>80.8</ele>
        <time>2020-06-17T17:27:49Z</time>
      </trkpt>
      <trkpt lat="49.50424" lon="0.16684">
        <ele>80.8</ele>
        <time>2020-06-17T17:27:50Z</time>
      </trkpt>
      <trkpt lat="49.50424" lon="0.16688">
        <ele>81</ele>
        <time>2020-06-17T17:27:51Z</time>
      </trkpt>
      <trkpt lat="49.50424" lon="0.16692">
        <ele>81.1</ele>
        <time>2020-06-17T17:27:52Z</time>
      </trkpt>
      <trkpt lat="49.50424" lon="0.16696">
        <ele>81.2</ele>
        <time>2020-06-17T17:27:53Z</time>
      </trkpt>
      <trkpt lat="49.50424" lon="0.16701">
        <ele>81.3</ele>
        <time>2020-06-17T17:27:54Z</time>
      </trkpt>
      <trkpt lat="49.50425" lon="0.16705">
        <ele>81.5</ele>
        <time>2020-06-17T17:27:55Z</time>
      </trkpt>
      <trkpt lat="49.50426" lon="0.1671">
        <ele>81.6</ele>
        <time>2020-06-17T17:27:56Z</time>
      </trkpt>
      <trkpt lat="49.50426" lon="0.16715">
        <ele>81.7</ele>
        <time>2020-06-17T17:27:57Z</time>
      </trkpt>
      <trkpt lat="49.50427" lon="0.1672">
        <ele>81.8</ele>
        <time>2020-06-17T17:27:58Z</time>
      </trkpt>
      <trkpt lat="49.50428" lon="0.16724">
        <ele>81.9</ele>
        <time>2020-06-17T17:27:59Z</time>
      </trkpt>
      <trkpt lat="49.50429" lon="0.16729">
        <ele>82.1</ele>
        <time>2020-06-17T17:28:00Z</time>
      </trkpt>
      <trkpt lat="49.50431" lon="0.16733">
        <ele>82.2</ele>
        <time>2020-06-17T17:28:01Z</time>
      </trkpt>
      <trkpt lat="49.50431" lon="0.16738">
        <ele>82.3</ele>
        <time>2020-06-17T17:28:02Z</time>
      </trkpt>
      <trkpt lat="49.50432" lon="0.16743">
        <ele>82.4</ele>
        <time>2020-06-17T17:28:03Z</time>
      </trkpt>
      <trkpt lat="49.50432" lon="0.16748">
        <ele>82.5</ele>
        <time>2020-06-17T17:28:04Z</time>
      </trkpt>
      <trkpt lat="49.50432" lon="0.16753">
        <ele>82.7</ele>
        <time>2020-06-17T17:28:05Z</time>
      </trkpt>
      <trkpt lat="49.50433" lon="0.16758">
        <ele>82.8</ele>
        <time>2020-06-17T17:28:06Z</time>
      </trkpt>
      <trkpt lat="49.50434" lon="0.16763">
        <ele>82.9</ele>
        <time>2020-06-17T17:28:07Z</time>
      </trkpt>
      <trkpt lat="49.50434" lon="0.16768">
        <ele>83.1</ele>
        <time>2020-06-17T17:28:08Z</time>
      </trkpt>
      <trkpt lat="49.50434" lon="0.16773">
        <ele>83.2</ele>
        <time>2020-06-17T17:28:09Z</time>
      </trkpt>
      <trkpt lat="49.50435" lon="0.16778">
        <ele>83.3</ele>
        <time>2020-06-17T17:28:10Z</time>
      </trkpt>
      <trkpt lat="49.50436" lon="0.16782">
        <ele>83.4</ele>
        <time>2020-06-17T17:28:11Z</time>
      </trkpt>
      <trkpt lat="49.50437" lon="0.16786">
        <ele>83.5</ele>
        <time>2020-06-17T17:28:12Z</time>
      </trkpt>
      <trkpt lat="49.50438" lon="0.16791">
        <ele>83.7</ele>
        <time>2020-06-17T17:28:13Z</time>
      </trkpt>
      <trkpt lat="49.50438" lon="0.16795">
        <ele>83.8</ele>
        <time>2020-06-17T17:28:14Z</time>
      </trkpt>
      <trkpt lat="49.50439" lon="0.16799">
        <ele>83.9</ele>
        <time>2020-06-17T17:28:15Z</time>
      </trkpt>
      <trkpt lat="49.5044" lon="0.16803">
        <ele>84</ele>
        <time>2020-06-17T17:28:16Z</time>
      </trkpt>
      <trkpt lat="49.50441" lon="0.16808">
        <ele>84.1</ele>
        <time>2020-06-17T17:28:17Z</time>
      </trkpt>
      <trkpt lat="49.50443" lon="0.16813">
        <ele>84.2</ele>
        <time>2020-06-17T17:28:18Z</time>
      </trkpt>
      <trkpt lat="49.50444" lon="0.16817">
        <ele>84.3</ele>
        <time>2020-06-17T17:28:19Z</time>
      </trkpt>
      <trkpt lat="49.50446" lon="0.16822">
        <ele>84.5</ele>
        <time>2020-06-17T17:28:20Z</time>
      </trkpt>
      <trkpt lat="49.50448" lon="0.16827">
        <ele>84.6</ele>
        <time>2020-06-17T17:28:21Z</time>
      </trkpt>
      <trkpt lat="49.50449" lon="0.16832">
        <ele>84.7</ele>
        <time>2020-06-17T17:28:22Z</time>
      </trkpt>
      <trkpt lat="49.5045" lon="0.16836">
        <ele>84.8</ele>
        <time>2020-06-17T17:28:23Z</time>
      </trkpt>
      <trkpt lat="49.50451" lon="0.1684">
        <ele>84.9</ele>
        <time>2020-06-17T17:28:24Z</time>
      </trkpt>
      <trkpt lat="49.50452" lon="0.16845">
        <ele>84.9</ele>
        <time>2020-06-17T17:28:25Z</time>
      </trkpt>
      <trkpt lat="49.50454" lon="0.16849">
        <ele>84.9</ele>
        <time>2020-06-17T17:28:26Z</time>
      </trkpt>
      <trkpt lat="49.50456" lon="0.16853">
        <ele>85</ele>
        <time>2020-06-17T17:28:27Z</time>
      </trkpt>
      <trkpt lat="49.50458" lon="0.16856">
        <ele>85</ele>
        <time>2020-06-17T17:28:28Z</time>
      </trkpt>
      <trkpt lat="49.5046" lon="0.1686">
        <ele>85</ele>
        <time>2020-06-17T17:28:29Z</time>
      </trkpt>
      <trkpt lat="49.50462" lon="0.16863">
        <ele>85.1</ele>
        <time>2020-06-17T17:28:30Z</time>
      </trkpt>
      <trkpt lat="49.50464" lon="0.16867">
        <ele>85.1</ele>
        <time>2020-06-17T17:28:31Z</time>
      </trkpt>
      <trkpt lat="49.50467" lon="0.16871">
        <ele>85.1</ele>
        <time>2020-06-17T17:28:32Z</time>
      </trkpt>
      <trkpt lat="49.5047" lon="0.16875">
        <ele>85.1</ele>
        <time>2020-06-17T17:28:33Z</time>
      </trkpt>
      <trkpt lat="49.50472" lon="0.16877">
        <ele>85.1</ele>
        <time>2020-06-17T17:28:34Z</time>
      </trkpt>
      <trkpt lat="49.50474" lon="0.16881">
        <ele>85.1</ele>
        <time>2020-06-17T17:28:35Z</time>
      </trkpt>
      <trkpt lat="49.50476" lon="0.16884">
        <ele>85.3</ele>
        <time>2020-06-17T17:28:36Z</time>
      </trkpt>
      <trkpt lat="49.50479" lon="0.16888">
        <ele>85.4</ele>
        <time>2020-06-17T17:28:37Z</time>
      </trkpt>
      <trkpt lat="49.50482" lon="0.1689">
        <ele>85.5</ele>
        <time>2020-06-17T17:28:38Z</time>
      </trkpt>
      <trkpt lat="49.50485" lon="0.16892">
        <ele>85.6</ele>
        <time>2020-06-17T17:28:39Z</time>
      </trkpt>
      <trkpt lat="49.50488" lon="0.16895">
        <ele>85.7</ele>
        <time>2020-06-17T17:28:40Z</time>
      </trkpt>
      <trkpt lat="49.50492" lon="0.16898">
        <ele>85.8</ele>
        <time>2020-06-17T17:28:41Z</time>
      </trkpt>
      <trkpt lat="49.50495" lon="0.16901">
        <ele>85.9</ele>
        <time>2020-06-17T17:28:42Z</time>
      </trkpt>
      <trkpt lat="49.50498" lon="0.16904">
        <ele>86</ele>
        <time>2020-06-17T17:28:43Z</time>
      </trkpt>
      <trkpt lat="49.50501" lon="0.16908">
        <ele>86.1</ele>
        <time>2020-06-17T17:28:44Z</time>
      </trkpt>
      <trkpt lat="49.50503" lon="0.16911">
        <ele>86.2</ele>
        <time>2020-06-17T17:28:45Z</time>
      </trkpt>
      <trkpt lat="49.50506" lon="0.16914">
        <ele>86.3</ele>
        <time>2020-06-17T17:28:46Z</time>
      </trkpt>
      <trkpt lat="49.50509" lon="0.16917">
        <ele>86.4</ele>
        <time>2020-06-17T17:28:47Z</time>
      </trkpt>
      <trkpt lat="49.50511" lon="0.16921">
        <ele>86.5</ele>
        <time>2020-06-17T17:28:48Z</time>
      </trkpt>
      <trkpt lat="49.50514" lon="0.16924">
        <ele>86.6</ele>
        <time>2020-06-17T17:28:49Z</time>
      </trkpt>
      <trkpt lat="49.50517" lon="0.16926">
        <ele>86.7</ele>
        <time>2020-06-17T17:28:50Z</time>
      </trkpt>
      <trkpt lat="49.50519" lon="0.16931">
        <ele>86.9</ele>
        <time>2020-06-17T17:28:51Z</time>
      </trkpt>
      <trkpt lat="49.50522" lon="0.16934">
        <ele>87</ele>
        <time>2020-06-17T17:28:52Z</time>
      </trkpt>
      <trkpt lat="49.50525" lon="0.16937">
        <ele>87.2</ele>
        <time>2020-06-17T17:28:53Z</time>
      </trkpt>
      <trkpt lat="49.50528" lon="0.16942">
        <ele>87.3</ele>
        <time>2020-06-17T17:28:54Z</time>
      </trkpt>
      <trkpt lat="49.50531" lon="0.16945">
        <ele>87.5</ele>
        <time>2020-06-17T17:28:55Z</time>
      </trkpt>
      <trkpt lat="49.50534" lon="0.16949">
        <ele>87.6</ele>
        <time>2020-06-17T17:28:56Z</time>
      </trkpt>
      <trkpt lat="49.50536" lon="0.16952">
        <ele>87.9</ele>
        <time>2020-06-17T17:28:57Z</time>
      </trkpt>
      <trkpt lat="49.5054" lon="0.16956">
        <ele>88</ele>
        <time>2020-06-17T17:28:58Z</time>
      </trkpt>
      <trkpt lat="49.50542" lon="0.16959">
        <ele>88.1</ele>
        <time>2020-06-17T17:28:59Z</time>
      </trkpt>
      <trkpt lat="49.50544" lon="0.16963">
        <ele>88.3</ele>
        <time>2020-06-17T17:29:00Z</time>
      </trkpt>
      <trkpt lat="49.50547" lon="0.16967">
        <ele>88.4</ele>
        <time>2020-06-17T17:29:01Z</time>
      </trkpt>
      <trkpt lat="49.5055" lon="0.16972">
        <ele>88.6</ele>
        <time>2020-06-17T17:29:02Z</time>
      </trkpt>
      <trkpt lat="49.50553" lon="0.16974">
        <ele>88.7</ele>
        <time>2020-06-17T17:29:03Z</time>
      </trkpt>
      <trkpt lat="49.50556" lon="0.16977">
        <ele>88.8</ele>
        <time>2020-06-17T17:29:04Z</time>
      </trkpt>
      <trkpt lat="49.5056" lon="0.16979">
        <ele>89</ele>
        <time>2020-06-17T17:29:05Z</time>
      </trkpt>
      <trkpt lat="49.50564" lon="0.16982">
        <ele>89.2</ele>
        <time>2020-06-17T17:29:06Z</time>
      </trkpt>
      <trkpt lat="49.50567" lon="0.16985">
        <ele>89.3</ele>
        <time>2020-06-17T17:29:07Z</time>
      </trkpt>
      <trkpt lat="49.5057" lon="0.16989">
        <ele>89.4</ele>
        <time>2020-06-17T17:29:08Z</time>
      </trkpt>
      <trkpt lat="49.50573" lon="0.16992">
        <ele>89.6</ele>
        <time>2020-06-17T17:29:09Z</time>
      </trkpt>
      <trkpt lat="49.50574" lon="0.16993">
        <ele>89.7</ele>
        <time>2020-06-17T17:29:10Z</time>
      </trkpt>
      <trkpt lat="49.50577" lon="0.16996">
        <ele>89.8</ele>
        <time>2020-06-17T17:29:11Z</time>
      </trkpt>
      <trkpt lat="49.50581" lon="0.17">
        <ele>89.9</ele>
        <time>2020-06-17T17:29:12Z</time>
      </trkpt>
      <trkpt lat="49.50584" lon="0.17003">
        <ele>90.1</ele>
        <time>2020-06-17T17:29:13Z</time>
      </trkpt>
      <trkpt lat="49.50587" lon="0.17006">
        <ele>90.2</ele>
        <time>2020-06-17T17:29:14Z</time>
      </trkpt>
      <trkpt lat="49.50589" lon="0.1701">
        <ele>90.4</ele>
        <time>2020-06-17T17:29:15Z</time>
      </trkpt>
      <trkpt lat="49.50592" lon="0.17014">
        <ele>90.5</ele>
        <time>2020-06-17T17:29:16Z</time>
      </trkpt>
      <trkpt lat="49.50594" lon="0.17017">
        <ele>90.6</ele>
        <time>2020-06-17T17:29:17Z</time>
      </trkpt>
      <trkpt lat="49.50597" lon="0.17021">
        <ele>90.7</ele>
        <time>2020-06-17T17:29:18Z</time>
      </trkpt>
      <trkpt lat="49.50599" lon="0.17024">
        <ele>90.8</ele>
        <time>2020-06-17T17:29:19Z</time>
      </trkpt>
      <trkpt lat="49.50602" lon="0.17028">
        <ele>90.9</ele>
        <time>2020-06-17T17:29:20Z</time>
      </trkpt>
      <trkpt lat="49.50606" lon="0.1703">
        <ele>91</ele>
        <time>2020-06-17T17:29:21Z</time>
      </trkpt>
      <trkpt lat="49.50607" lon="0.17032">
        <ele>91</ele>
        <time>2020-06-17T17:29:22Z</time>
      </trkpt>
      <trkpt lat="49.5061" lon="0.17034">
        <ele>91</ele>
        <time>2020-06-17T17:29:23Z</time>
      </trkpt>
      <trkpt lat="49.50612" lon="0.17038">
        <ele>91</ele>
        <time>2020-06-17T17:29:24Z</time>
      </trkpt>
      <trkpt lat="49.50616" lon="0.17038">
        <ele>91</ele>
        <time>2020-06-17T17:29:25Z</time>
      </trkpt>
      <trkpt lat="49.50618" lon="0.1704">
        <ele>91</ele>
        <time>2020-06-17T17:29:26Z</time>
      </trkpt>
      <trkpt lat="49.50621" lon="0.17041">
        <ele>91</ele>
        <time>2020-06-17T17:29:27Z</time>
      </trkpt>
      <trkpt lat="49.50625" lon="0.1704">
        <ele>91</ele>
        <time>2020-06-17T17:29:28Z</time>
      </trkpt>
      <trkpt lat="49.50628" lon="0.17037">
        <ele>91</ele>
        <time>2020-06-17T17:29:29Z</time>
      </trkpt>
      <trkpt lat="49.50631" lon="0.17031">
        <ele>91</ele>
        <time>2020-06-17T17:29:30Z</time>
      </trkpt>
      <trkpt lat="49.50634" lon="0.17027">
        <ele>91</ele>
        <time>2020-06-17T17:29:31Z</time>
      </trkpt>
      <trkpt lat="49.50638" lon="0.17023">
        <ele>91</ele>
        <time>2020-06-17T17:29:32Z</time>
      </trkpt>
      <trkpt lat="49.50641" lon="0.17018">
        <ele>91</ele>
        <time>2020-06-17T17:29:33Z</time>
      </trkpt>
      <trkpt lat="49.50644" lon="0.17013">
        <ele>91</ele>
        <time>2020-06-17T17:29:34Z</time>
      </trkpt>
      <trkpt lat="49.50648" lon="0.17009">
        <ele>91</ele>
        <time>2020-06-17T17:29:35Z</time>
      </trkpt>
      <trkpt lat="49.50651" lon="0.17005">
        <ele>91</ele>
        <time>2020-06-17T17:29:36Z</time>
      </trkpt>
      <trkpt lat="49.50654" lon="0.17002">
        <ele>91</ele>
        <time>2020-06-17T17:29:37Z</time>
      </trkpt>
      <trkpt lat="49.50657" lon="0.16997">
        <ele>91</ele>
        <time>2020-06-17T17:29:38Z</time>
      </trkpt>
      <trkpt lat="49.5066" lon="0.16993">
        <ele>91</ele>
        <time>2020-06-17T17:29:39Z</time>
      </trkpt>
      <trkpt lat="49.50663" lon="0.16988">
        <ele>91</ele>
        <time>2020-06-17T17:29:40Z</time>
      </trkpt>
      <trkpt lat="49.50667" lon="0.16983">
        <ele>91</ele>
        <time>2020-06-17T17:29:41Z</time>
      </trkpt>
      <trkpt lat="49.5067" lon="0.16978">
        <ele>91</ele>
        <time>2020-06-17T17:29:42Z</time>
      </trkpt>
      <trkpt lat="49.50673" lon="0.16974">
        <ele>91</ele>
        <time>2020-06-17T17:29:43Z</time>
      </trkpt>
      <trkpt lat="49.50677" lon="0.1697">
        <ele>91</ele>
        <time>2020-06-17T17:29:44Z</time>
      </trkpt>
      <trkpt lat="49.5068" lon="0.16966">
        <ele>91</ele>
        <time>2020-06-17T17:29:45Z</time>
      </trkpt>
      <trkpt lat="49.50685" lon="0.16963">
        <ele>91</ele>
        <time>2020-06-17T17:29:46Z</time>
      </trkpt>
      <trkpt lat="49.50689" lon="0.16958">
        <ele>90.9</ele>
        <time>2020-06-17T17:29:47Z</time>
      </trkpt>
      <trkpt lat="49.50693" lon="0.16954">
        <ele>90.9</ele>
        <time>2020-06-17T17:29:48Z</time>
      </trkpt>
      <trkpt lat="49.50697" lon="0.16948">
        <ele>90.9</ele>
        <time>2020-06-17T17:29:49Z</time>
      </trkpt>
      <trkpt lat="49.50702" lon="0.16943">
        <ele>90.9</ele>
        <time>2020-06-17T17:29:50Z</time>
      </trkpt>
      <trkpt lat="49.50705" lon="0.16939">
        <ele>90.9</ele>
        <time>2020-06-17T17:29:51Z</time>
      </trkpt>
      <trkpt lat="49.50709" lon="0.16934">
        <ele>90.9</ele>
        <time>2020-06-17T17:29:52Z</time>
      </trkpt>
      <trkpt lat="49.50713" lon="0.16929">
        <ele>90.9</ele>
        <time>2020-06-17T17:29:53Z</time>
      </trkpt>
      <trkpt lat="49.50717" lon="0.16924">
        <ele>90.9</ele>
        <time>2020-06-17T17:29:54Z</time>
      </trkpt>
      <trkpt lat="49.50721" lon="0.16918">
        <ele>90.8</ele>
        <time>2020-06-17T17:29:55Z</time>
      </trkpt>
      <trkpt lat="49.50725" lon="0.16914">
        <ele>90.8</ele>
        <time>2020-06-17T17:29:56Z</time>
      </trkpt>
      <trkpt lat="49.5073" lon="0.16911">
        <ele>90.8</ele>
        <time>2020-06-17T17:29:57Z</time>
      </trkpt>
      <trkpt lat="49.50733" lon="0.16909">
        <ele>90.8</ele>
        <time>2020-06-17T17:29:58Z</time>
      </trkpt>
      <trkpt lat="49.50738" lon="0.16903">
        <ele>90.8</ele>
        <time>2020-06-17T17:29:59Z</time>
      </trkpt>
      <trkpt lat="49.50742" lon="0.16898">
        <ele>90.8</ele>
        <time>2020-06-17T17:30:00Z</time>
      </trkpt>
      <trkpt lat="49.50747" lon="0.16894">
        <ele>90.8</ele>
        <time>2020-06-17T17:30:01Z</time>
      </trkpt>
      <trkpt lat="49.50751" lon="0.16888">
        <ele>90.8</ele>
        <time>2020-06-17T17:30:02Z</time>
      </trkpt>
      <trkpt lat="49.50755" lon="0.16884">
        <ele>90.7</ele>
        <time>2020-06-17T17:30:03Z</time>
      </trkpt>
      <trkpt lat="49.50758" lon="0.16879">
        <ele>90.7</ele>
        <time>2020-06-17T17:30:04Z</time>
      </trkpt>
      <trkpt lat="49.50762" lon="0.16875">
        <ele>90.7</ele>
        <time>2020-06-17T17:30:05Z</time>
      </trkpt>
      <trkpt lat="49.50766" lon="0.1687">
        <ele>90.6</ele>
        <time>2020-06-17T17:30:06Z</time>
      </trkpt>
      <trkpt lat="49.50771" lon="0.16866">
        <ele>90.6</ele>
        <time>2020-06-17T17:30:07Z</time>
      </trkpt>
      <trkpt lat="49.50774" lon="0.1686">
        <ele>90.6</ele>
        <time>2020-06-17T17:30:08Z</time>
      </trkpt>
      <trkpt lat="49.50778" lon="0.16855">
        <ele>90.6</ele>
        <time>2020-06-17T17:30:09Z</time>
      </trkpt>
      <trkpt lat="49.50783" lon="0.1685">
        <ele>90.5</ele>
        <time>2020-06-17T17:30:10Z</time>
      </trkpt>
      <trkpt lat="49.50786" lon="0.16846">
        <ele>90.5</ele>
        <time>2020-06-17T17:30:11Z</time>
      </trkpt>
      <trkpt lat="49.5079" lon="0.16841">
        <ele>90.5</ele>
        <time>2020-06-17T17:30:12Z</time>
      </trkpt>
      <trkpt lat="49.50793" lon="0.16837">
        <ele>90.5</ele>
        <time>2020-06-17T17:30:13Z</time>
      </trkpt>
      <trkpt lat="49.50797" lon="0.16832">
        <ele>90.5</ele>
        <time>2020-06-17T17:30:14Z</time>
      </trkpt>
      <trkpt lat="49.50801" lon="0.16826">
        <ele>90.4</ele>
        <time>2020-06-17T17:30:15Z</time>
      </trkpt>
      <trkpt lat="49.50805" lon="0.16821">
        <ele>90.4</ele>
        <time>2020-06-17T17:30:16Z</time>
      </trkpt>
      <trkpt lat="49.5081" lon="0.16815">
        <ele>90.4</ele>
        <time>2020-06-17T17:30:17Z</time>
      </trkpt>
      <trkpt lat="49.50814" lon="0.1681">
        <ele>90.3</ele>
        <time>2020-06-17T17:30:18Z</time>
      </trkpt>
      <trkpt lat="49.50818" lon="0.16805">
        <ele>90.3</ele>
        <time>2020-06-17T17:30:19Z</time>
      </trkpt>
      <trkpt lat="49.50822" lon="0.168">
        <ele>90.3</ele>
        <time>2020-06-17T17:30:20Z</time>
      </trkpt>
      <trkpt lat="49.50825" lon="0.16795">
        <ele>90.2</ele>
        <time>2020-06-17T17:30:21Z</time>
      </trkpt>
      <trkpt lat="49.5083" lon="0.1679">
        <ele>90.2</ele>
        <time>2020-06-17T17:30:22Z</time>
      </trkpt>
      <trkpt lat="49.50833" lon="0.16785">
        <ele>90.1</ele>
        <time>2020-06-17T17:30:23Z</time>
      </trkpt>
      <trkpt lat="49.50837" lon="0.16779">
        <ele>90.1</ele>
        <time>2020-06-17T17:30:24Z</time>
      </trkpt>
      <trkpt lat="49.5084" lon="0.16775">
        <ele>90</ele>
        <time>2020-06-17T17:30:25Z</time>
      </trkpt>
      <trkpt lat="49.50844" lon="0.16771">
        <ele>90</ele>
        <time>2020-06-17T17:30:26Z</time>
      </trkpt>
      <trkpt lat="49.50848" lon="0.16765">
        <ele>90</ele>
        <time>2020-06-17T17:30:27Z</time>
      </trkpt>
      <trkpt lat="49.50852" lon="0.1676">
        <ele>90</ele>
        <time>2020-06-17T17:30:28Z</time>
      </trkpt>
      <trkpt lat="49.50857" lon="0.16755">
        <ele>89.9</ele>
        <time>2020-06-17T17:30:29Z</time>
      </trkpt>
      <trkpt lat="49.5086" lon="0.16752">
        <ele>89.9</ele>
        <time>2020-06-17T17:30:30Z</time>
      </trkpt>
      <trkpt lat="49.50865" lon="0.16747">
        <ele>89.8</ele>
        <time>2020-06-17T17:30:31Z</time>
      </trkpt>
      <trkpt lat="49.50869" lon="0.1674">
        <ele>89.8</ele>
        <time>2020-06-17T17:30:32Z</time>
      </trkpt>
      <trkpt lat="49.50874" lon="0.16734">
        <ele>89.7</ele>
        <time>2020-06-17T17:30:33Z</time>
      </trkpt>
      <trkpt lat="49.50878" lon="0.16728">
        <ele>89.6</ele>
        <time>2020-06-17T17:30:34Z</time>
      </trkpt>
      <trkpt lat="49.50882" lon="0.16723">
        <ele>89.6</ele>
        <time>2020-06-17T17:30:35Z</time>
      </trkpt>
      <trkpt lat="49.50886" lon="0.16718">
        <ele>89.5</ele>
        <time>2020-06-17T17:30:36Z</time>
      </trkpt>
      <trkpt lat="49.50891" lon="0.16714">
        <ele>89.5</ele>
        <time>2020-06-17T17:30:37Z</time>
      </trkpt>
      <trkpt lat="49.50896" lon="0.16709">
        <ele>89.4</ele>
        <time>2020-06-17T17:30:38Z</time>
      </trkpt>
      <trkpt lat="49.509" lon="0.16703">
        <ele>89.4</ele>
        <time>2020-06-17T17:30:39Z</time>
      </trkpt>
      <trkpt lat="49.50905" lon="0.16698">
        <ele>89.4</ele>
        <time>2020-06-17T17:30:40Z</time>
      </trkpt>
      <trkpt lat="49.50907" lon="0.16694">
        <ele>89.4</ele>
        <time>2020-06-17T17:30:41Z</time>
      </trkpt>
      <trkpt lat="49.50911" lon="0.16689">
        <ele>89.4</ele>
        <time>2020-06-17T17:30:42Z</time>
      </trkpt>
      <trkpt lat="49.50915" lon="0.16686">
        <ele>89.4</ele>
        <time>2020-06-17T17:30:43Z</time>
      </trkpt>
      <trkpt lat="49.50918" lon="0.16682">
        <ele>89.3</ele>
        <time>2020-06-17T17:30:44Z</time>
      </trkpt>
      <trkpt lat="49.50921" lon="0.16679">
        <ele>89.3</ele>
        <time>2020-06-17T17:30:45Z</time>
      </trkpt>
      <trkpt lat="49.50925" lon="0.16675">
        <ele>89.3</ele>
        <time>2020-06-17T17:30:46Z</time>
      </trkpt>
      <trkpt lat="49.50928" lon="0.16674">
        <ele>89.3</ele>
        <time>2020-06-17T17:30:47Z</time>
      </trkpt>
      <trkpt lat="49.50929" lon="0.16674">
        <ele>89.2</ele>
        <time>2020-06-17T17:30:48Z</time>
      </trkpt>
      <trkpt lat="49.5093" lon="0.16673">
        <ele>89.2</ele>
        <time>2020-06-17T17:30:49Z</time>
      </trkpt>
      <trkpt lat="49.50932" lon="0.16671">
        <ele>89.2</ele>
        <time>2020-06-17T17:30:50Z</time>
      </trkpt>
      <trkpt lat="49.50933" lon="0.1667">
        <ele>89.2</ele>
        <time>2020-06-17T17:30:51Z</time>
      </trkpt>
      <trkpt lat="49.50935" lon="0.16668">
        <ele>89.2</ele>
        <time>2020-06-17T17:30:52Z</time>
      </trkpt>
      <trkpt lat="49.50936" lon="0.16668">
        <ele>89.2</ele>
        <time>2020-06-17T17:30:53Z</time>
      </trkpt>
      <trkpt lat="49.50937" lon="0.16667">
        <ele>89.2</ele>
        <time>2020-06-17T17:30:54Z</time>
      </trkpt>
      <trkpt lat="49.50939" lon="0.16663">
        <ele>89.3</ele>
        <time>2020-06-17T17:30:55Z</time>
      </trkpt>
      <trkpt lat="49.5094" lon="0.16662">
        <ele>89.3</ele>
        <time>2020-06-17T17:30:56Z</time>
      </trkpt>
      <trkpt lat="49.50943" lon="0.16658">
        <ele>89.3</ele>
        <time>2020-06-17T17:30:57Z</time>
      </trkpt>
      <trkpt lat="49.50946" lon="0.16655">
        <ele>89.3</ele>
        <time>2020-06-17T17:30:58Z</time>
      </trkpt>
      <trkpt lat="49.50949" lon="0.16651">
        <ele>89.5</ele>
        <time>2020-06-17T17:30:59Z</time>
      </trkpt>
      <trkpt lat="49.50952" lon="0.16648">
        <ele>89.4</ele>
        <time>2020-06-17T17:31:00Z</time>
      </trkpt>
      <trkpt lat="49.50955" lon="0.16645">
        <ele>89.2</ele>
        <time>2020-06-17T17:31:01Z</time>
      </trkpt>
      <trkpt lat="49.50959" lon="0.16641">
        <ele>89.1</ele>
        <time>2020-06-17T17:31:02Z</time>
      </trkpt>
      <trkpt lat="49.50962" lon="0.16638">
        <ele>89</ele>
        <time>2020-06-17T17:31:03Z</time>
      </trkpt>
      <trkpt lat="49.50966" lon="0.16634">
        <ele>88.9</ele>
        <time>2020-06-17T17:31:04Z</time>
      </trkpt>
      <trkpt lat="49.5097" lon="0.16631">
        <ele>88.8</ele>
        <time>2020-06-17T17:31:05Z</time>
      </trkpt>
      <trkpt lat="49.50974" lon="0.16628">
        <ele>88.7</ele>
        <time>2020-06-17T17:31:06Z</time>
      </trkpt>
      <trkpt lat="49.50978" lon="0.16624">
        <ele>88.5</ele>
        <time>2020-06-17T17:31:07Z</time>
      </trkpt>
      <trkpt lat="49.50982" lon="0.1662">
        <ele>88.4</ele>
        <time>2020-06-17T17:31:08Z</time>
      </trkpt>
      <trkpt lat="49.50985" lon="0.16614">
        <ele>88.3</ele>
        <time>2020-06-17T17:31:09Z</time>
      </trkpt>
      <trkpt lat="49.50989" lon="0.1661">
        <ele>88.1</ele>
        <time>2020-06-17T17:31:10Z</time>
      </trkpt>
      <trkpt lat="49.50993" lon="0.16606">
        <ele>88</ele>
        <time>2020-06-17T17:31:11Z</time>
      </trkpt>
      <trkpt lat="49.50996" lon="0.16602">
        <ele>87.9</ele>
        <time>2020-06-17T17:31:12Z</time>
      </trkpt>
      <trkpt lat="49.51" lon="0.16597">
        <ele>87.8</ele>
        <time>2020-06-17T17:31:13Z</time>
      </trkpt>
      <trkpt lat="49.51003" lon="0.16592">
        <ele>87.5</ele>
        <time>2020-06-17T17:31:14Z</time>
      </trkpt>
      <trkpt lat="49.51007" lon="0.16587">
        <ele>87.5</ele>
        <time>2020-06-17T17:31:15Z</time>
      </trkpt>
      <trkpt lat="49.51011" lon="0.16582">
        <ele>87.4</ele>
        <time>2020-06-17T17:31:16Z</time>
      </trkpt>
      <trkpt lat="49.51015" lon="0.16578">
        <ele>87.2</ele>
        <time>2020-06-17T17:31:17Z</time>
      </trkpt>
      <trkpt lat="49.51019" lon="0.16575">
        <ele>87</ele>
        <time>2020-06-17T17:31:18Z</time>
      </trkpt>
      <trkpt lat="49.51024" lon="0.16571">
        <ele>86.8</ele>
        <time>2020-06-17T17:31:19Z</time>
      </trkpt>
      <trkpt lat="49.51029" lon="0.16567">
        <ele>86.6</ele>
        <time>2020-06-17T17:31:20Z</time>
      </trkpt>
      <trkpt lat="49.51032" lon="0.16563">
        <ele>86.4</ele>
        <time>2020-06-17T17:31:21Z</time>
      </trkpt>
      <trkpt lat="49.51037" lon="0.16558">
        <ele>86.2</ele>
        <time>2020-06-17T17:31:22Z</time>
      </trkpt>
      <trkpt lat="49.51041" lon="0.16554">
        <ele>86</ele>
        <time>2020-06-17T17:31:23Z</time>
      </trkpt>
      <trkpt lat="49.51045" lon="0.16549">
        <ele>85.8</ele>
        <time>2020-06-17T17:31:24Z</time>
      </trkpt>
      <trkpt lat="49.51048" lon="0.16543">
        <ele>85.7</ele>
        <time>2020-06-17T17:31:25Z</time>
      </trkpt>
      <trkpt lat="49.51051" lon="0.16538">
        <ele>85.6</ele>
        <time>2020-06-17T17:31:26Z</time>
      </trkpt>
      <trkpt lat="49.51054" lon="0.16531">
        <ele>85.4</ele>
        <time>2020-06-17T17:31:27Z</time>
      </trkpt>
      <trkpt lat="49.51058" lon="0.16527">
        <ele>85.3</ele>
        <time>2020-06-17T17:31:28Z</time>
      </trkpt>
      <trkpt lat="49.51063" lon="0.16523">
        <ele>85.2</ele>
        <time>2020-06-17T17:31:29Z</time>
      </trkpt>
      <trkpt lat="49.51067" lon="0.1652">
        <ele>85.3</ele>
        <time>2020-06-17T17:31:30Z</time>
      </trkpt>
      <trkpt lat="49.51071" lon="0.16515">
        <ele>85.3</ele>
        <time>2020-06-17T17:31:31Z</time>
      </trkpt>
      <trkpt lat="49.51075" lon="0.16511">
        <ele>85.3</ele>
        <time>2020-06-17T17:31:32Z</time>
      </trkpt>
      <trkpt lat="49.5108" lon="0.16507">
        <ele>84.8</ele>
        <time>2020-06-17T17:31:33Z</time>
      </trkpt>
      <trkpt lat="49.51085" lon="0.16502">
        <ele>84.5</ele>
        <time>2020-06-17T17:31:34Z</time>
      </trkpt>
      <trkpt lat="49.51089" lon="0.16497">
        <ele>84.3</ele>
        <time>2020-06-17T17:31:35Z</time>
      </trkpt>
      <trkpt lat="49.51094" lon="0.16491">
        <ele>83.9</ele>
        <time>2020-06-17T17:31:36Z</time>
      </trkpt>
      <trkpt lat="49.51098" lon="0.16485">
        <ele>83.6</ele>
        <time>2020-06-17T17:31:37Z</time>
      </trkpt>
      <trkpt lat="49.51102" lon="0.16478">
        <ele>83.4</ele>
        <time>2020-06-17T17:31:38Z</time>
      </trkpt>
      <trkpt lat="49.51107" lon="0.16474">
        <ele>83.2</ele>
        <time>2020-06-17T17:31:39Z</time>
      </trkpt>
      <trkpt lat="49.51111" lon="0.16469">
        <ele>83.1</ele>
        <time>2020-06-17T17:31:40Z</time>
      </trkpt>
      <trkpt lat="49.51116" lon="0.16465">
        <ele>83</ele>
        <time>2020-06-17T17:31:41Z</time>
      </trkpt>
      <trkpt lat="49.51121" lon="0.16459">
        <ele>82.8</ele>
        <time>2020-06-17T17:31:42Z</time>
      </trkpt>
      <trkpt lat="49.51125" lon="0.16453">
        <ele>82.7</ele>
        <time>2020-06-17T17:31:43Z</time>
      </trkpt>
      <trkpt lat="49.5113" lon="0.16448">
        <ele>82.6</ele>
        <time>2020-06-17T17:31:44Z</time>
      </trkpt>
      <trkpt lat="49.51135" lon="0.16444">
        <ele>82.7</ele>
        <time>2020-06-17T17:31:45Z</time>
      </trkpt>
      <trkpt lat="49.51139" lon="0.16439">
        <ele>82.8</ele>
        <time>2020-06-17T17:31:46Z</time>
      </trkpt>
      <trkpt lat="49.51143" lon="0.16433">
        <ele>82.8</ele>
        <time>2020-06-17T17:31:47Z</time>
      </trkpt>
      <trkpt lat="49.51147" lon="0.16427">
        <ele>82.7</ele>
        <time>2020-06-17T17:31:48Z</time>
      </trkpt>
      <trkpt lat="49.51151" lon="0.16421">
        <ele>82.5</ele>
        <time>2020-06-17T17:31:49Z</time>
      </trkpt>
      <trkpt lat="49.51155" lon="0.16416">
        <ele>82.4</ele>
        <time>2020-06-17T17:31:50Z</time>
      </trkpt>
      <trkpt lat="49.5116" lon="0.1641">
        <ele>82.3</ele>
        <time>2020-06-17T17:31:51Z</time>
      </trkpt>
      <trkpt lat="49.51164" lon="0.16404">
        <ele>82.1</ele>
        <time>2020-06-17T17:31:52Z</time>
      </trkpt>
      <trkpt lat="49.51169" lon="0.16398">
        <ele>81.9</ele>
        <time>2020-06-17T17:31:53Z</time>
      </trkpt>
      <trkpt lat="49.51173" lon="0.16393">
        <ele>81.7</ele>
        <time>2020-06-17T17:31:54Z</time>
      </trkpt>
      <trkpt lat="49.51177" lon="0.16387">
        <ele>81.5</ele>
        <time>2020-06-17T17:31:55Z</time>
      </trkpt>
      <trkpt lat="49.51182" lon="0.1638">
        <ele>81.3</ele>
        <time>2020-06-17T17:31:56Z</time>
      </trkpt>
      <trkpt lat="49.51187" lon="0.16374">
        <ele>81.1</ele>
        <time>2020-06-17T17:31:57Z</time>
      </trkpt>
      <trkpt lat="49.51192" lon="0.1637">
        <ele>80.8</ele>
        <time>2020-06-17T17:31:58Z</time>
      </trkpt>
      <trkpt lat="49.51196" lon="0.16366">
        <ele>80.5</ele>
        <time>2020-06-17T17:31:59Z</time>
      </trkpt>
      <trkpt lat="49.51201" lon="0.16359">
        <ele>80.1</ele>
        <time>2020-06-17T17:32:00Z</time>
      </trkpt>
      <trkpt lat="49.51205" lon="0.16353">
        <ele>79.7</ele>
        <time>2020-06-17T17:32:01Z</time>
      </trkpt>
      <trkpt lat="49.51209" lon="0.16348">
        <ele>79.3</ele>
        <time>2020-06-17T17:32:02Z</time>
      </trkpt>
      <trkpt lat="49.51214" lon="0.16342">
        <ele>78.9</ele>
        <time>2020-06-17T17:32:03Z</time>
      </trkpt>
      <trkpt lat="49.51218" lon="0.16336">
        <ele>78.5</ele>
        <time>2020-06-17T17:32:04Z</time>
      </trkpt>
      <trkpt lat="49.51224" lon="0.16331">
        <ele>77.9</ele>
        <time>2020-06-17T17:32:05Z</time>
      </trkpt>
      <trkpt lat="49.51229" lon="0.16325">
        <ele>77.5</ele>
        <time>2020-06-17T17:32:06Z</time>
      </trkpt>
      <trkpt lat="49.51234" lon="0.16319">
        <ele>77.1</ele>
        <time>2020-06-17T17:32:07Z</time>
      </trkpt>
      <trkpt lat="49.51239" lon="0.16314">
        <ele>76.5</ele>
        <time>2020-06-17T17:32:08Z</time>
      </trkpt>
      <trkpt lat="49.51243" lon="0.16308">
        <ele>76.4</ele>
        <time>2020-06-17T17:32:09Z</time>
      </trkpt>
      <trkpt lat="49.51248" lon="0.16304">
        <ele>76.3</ele>
        <time>2020-06-17T17:32:10Z</time>
      </trkpt>
      <trkpt lat="49.51251" lon="0.163">
        <ele>76.3</ele>
        <time>2020-06-17T17:32:11Z</time>
      </trkpt>
      <trkpt lat="49.51255" lon="0.16297">
        <ele>76.3</ele>
        <time>2020-06-17T17:32:12Z</time>
      </trkpt>
      <trkpt lat="49.51258" lon="0.16295">
        <ele>76.3</ele>
        <time>2020-06-17T17:32:13Z</time>
      </trkpt>
      <trkpt lat="49.51261" lon="0.16293">
        <ele>76.3</ele>
        <time>2020-06-17T17:32:14Z</time>
      </trkpt>
      <trkpt lat="49.51262" lon="0.16291">
        <ele>76.3</ele>
        <time>2020-06-17T17:32:15Z</time>
      </trkpt>
      <trkpt lat="49.51263" lon="0.16291">
        <ele>76.3</ele>
        <time>2020-06-17T17:32:16Z</time>
      </trkpt>
      <trkpt lat="49.51267" lon="0.16292">
        <ele>76.3</ele>
        <time>2020-06-17T17:32:17Z</time>
      </trkpt>
      <trkpt lat="49.51268" lon="0.16292">
        <ele>76.4</ele>
        <time>2020-06-17T17:32:18Z</time>
      </trkpt>
      <trkpt lat="49.51269" lon="0.16294">
        <ele>76.4</ele>
        <time>2020-06-17T17:32:19Z</time>
      </trkpt>
      <trkpt lat="49.5127" lon="0.16295">
        <ele>76.5</ele>
        <time>2020-06-17T17:32:20Z</time>
      </trkpt>
      <trkpt lat="49.51272" lon="0.16296">
        <ele>76.5</ele>
        <time>2020-06-17T17:32:21Z</time>
      </trkpt>
      <trkpt lat="49.51273" lon="0.16297">
        <ele>76.6</ele>
        <time>2020-06-17T17:32:22Z</time>
      </trkpt>
      <trkpt lat="49.51275" lon="0.16301">
        <ele>76.7</ele>
        <time>2020-06-17T17:32:23Z</time>
      </trkpt>
      <trkpt lat="49.51276" lon="0.16302">
        <ele>76.7</ele>
        <time>2020-06-17T17:32:24Z</time>
      </trkpt>
      <trkpt lat="49.51277" lon="0.16303">
        <ele>76.8</ele>
        <time>2020-06-17T17:32:25Z</time>
      </trkpt>
      <trkpt lat="49.51277" lon="0.16306">
        <ele>76.9</ele>
        <time>2020-06-17T17:32:26Z</time>
      </trkpt>
      <trkpt lat="49.51278" lon="0.16307">
        <ele>76.9</ele>
        <time>2020-06-17T17:32:27Z</time>
      </trkpt>
      <trkpt lat="49.5128" lon="0.16307">
        <ele>77</ele>
        <time>2020-06-17T17:32:28Z</time>
      </trkpt>
      <trkpt lat="49.51281" lon="0.16308">
        <ele>77</ele>
        <time>2020-06-17T17:32:29Z</time>
      </trkpt>
      <trkpt lat="49.51283" lon="0.16309">
        <ele>77.3</ele>
        <time>2020-06-17T17:32:30Z</time>
      </trkpt>
      <trkpt lat="49.51283" lon="0.1631">
        <ele>77.3</ele>
        <time>2020-06-17T17:32:31Z</time>
      </trkpt>
      <trkpt lat="49.51285" lon="0.16311">
        <ele>77.3</ele>
        <time>2020-06-17T17:32:32Z</time>
      </trkpt>
      <trkpt lat="49.51286" lon="0.16312">
        <ele>77.4</ele>
        <time>2020-06-17T17:32:33Z</time>
      </trkpt>
      <trkpt lat="49.51288" lon="0.16314">
        <ele>77.5</ele>
        <time>2020-06-17T17:32:34Z</time>
      </trkpt>
      <trkpt lat="49.51289" lon="0.16316">
        <ele>77.5</ele>
        <time>2020-06-17T17:32:35Z</time>
      </trkpt>
      <trkpt lat="49.51292" lon="0.16318">
        <ele>78</ele>
        <time>2020-06-17T17:32:36Z</time>
      </trkpt>
      <trkpt lat="49.51294" lon="0.1632">
        <ele>78.1</ele>
        <time>2020-06-17T17:32:37Z</time>
      </trkpt>
      <trkpt lat="49.51295" lon="0.16321">
        <ele>78.2</ele>
        <time>2020-06-17T17:32:38Z</time>
      </trkpt>
      <trkpt lat="49.51298" lon="0.16321">
        <ele>78.3</ele>
        <time>2020-06-17T17:32:39Z</time>
      </trkpt>
      <trkpt lat="49.51299" lon="0.16321">
        <ele>78.3</ele>
        <time>2020-06-17T17:32:40Z</time>
      </trkpt>
      <trkpt lat="49.51302" lon="0.16317">
        <ele>78.4</ele>
        <time>2020-06-17T17:32:41Z</time>
      </trkpt>
      <trkpt lat="49.51302" lon="0.16315">
        <ele>79.2</ele>
        <time>2020-06-17T17:32:42Z</time>
      </trkpt>
      <trkpt lat="49.51303" lon="0.1631">
        <ele>79.2</ele>
        <time>2020-06-17T17:32:43Z</time>
      </trkpt>
      <trkpt lat="49.51303" lon="0.16305">
        <ele>79.1</ele>
        <time>2020-06-17T17:32:44Z</time>
      </trkpt>
      <trkpt lat="49.51303" lon="0.16298">
        <ele>78.6</ele>
        <time>2020-06-17T17:32:45Z</time>
      </trkpt>
      <trkpt lat="49.51304" lon="0.16291">
        <ele>78.3</ele>
        <time>2020-06-17T17:32:46Z</time>
      </trkpt>
      <trkpt lat="49.51304" lon="0.16285">
        <ele>78</ele>
        <time>2020-06-17T17:32:47Z</time>
      </trkpt>
      <trkpt lat="49.51305" lon="0.16279">
        <ele>77.7</ele>
        <time>2020-06-17T17:32:48Z</time>
      </trkpt>
      <trkpt lat="49.51305" lon="0.16274">
        <ele>77.4</ele>
        <time>2020-06-17T17:32:49Z</time>
      </trkpt>
      <trkpt lat="49.51306" lon="0.16269">
        <ele>77.1</ele>
        <time>2020-06-17T17:32:50Z</time>
      </trkpt>
      <trkpt lat="49.51306" lon="0.16262">
        <ele>76.8</ele>
        <time>2020-06-17T17:32:51Z</time>
      </trkpt>
      <trkpt lat="49.51304" lon="0.16253">
        <ele>76.3</ele>
        <time>2020-06-17T17:32:52Z</time>
      </trkpt>
      <trkpt lat="49.51304" lon="0.16245">
        <ele>75.8</ele>
        <time>2020-06-17T17:32:53Z</time>
      </trkpt>
      <trkpt lat="49.51304" lon="0.16236">
        <ele>75.4</ele>
        <time>2020-06-17T17:32:54Z</time>
      </trkpt>
      <trkpt lat="49.51305" lon="0.16228">
        <ele>75.3</ele>
        <time>2020-06-17T17:32:55Z</time>
      </trkpt>
      <trkpt lat="49.51307" lon="0.16219">
        <ele>75.1</ele>
        <time>2020-06-17T17:32:56Z</time>
      </trkpt>
      <trkpt lat="49.51309" lon="0.16211">
        <ele>74.9</ele>
        <time>2020-06-17T17:32:57Z</time>
      </trkpt>
      <trkpt lat="49.51312" lon="0.16203">
        <ele>74.2</ele>
        <time>2020-06-17T17:32:58Z</time>
      </trkpt>
      <trkpt lat="49.51314" lon="0.16196">
        <ele>73.9</ele>
        <time>2020-06-17T17:32:59Z</time>
      </trkpt>
      <trkpt lat="49.51315" lon="0.16187">
        <ele>73.5</ele>
        <time>2020-06-17T17:33:00Z</time>
      </trkpt>
      <trkpt lat="49.51318" lon="0.16179">
        <ele>73.2</ele>
        <time>2020-06-17T17:33:01Z</time>
      </trkpt>
      <trkpt lat="49.5132" lon="0.16171">
        <ele>72.8</ele>
        <time>2020-06-17T17:33:02Z</time>
      </trkpt>
      <trkpt lat="49.51322" lon="0.16162">
        <ele>72.4</ele>
        <time>2020-06-17T17:33:03Z</time>
      </trkpt>
      <trkpt lat="49.51324" lon="0.16153">
        <ele>72</ele>
        <time>2020-06-17T17:33:04Z</time>
      </trkpt>
      <trkpt lat="49.51326" lon="0.16147">
        <ele>71.6</ele>
        <time>2020-06-17T17:33:05Z</time>
      </trkpt>
      <trkpt lat="49.51327" lon="0.16142">
        <ele>71.5</ele>
        <time>2020-06-17T17:33:06Z</time>
      </trkpt>
      <trkpt lat="49.51328" lon="0.16136">
        <ele>71.4</ele>
        <time>2020-06-17T17:33:07Z</time>
      </trkpt>
      <trkpt lat="49.51328" lon="0.16134">
        <ele>71.4</ele>
        <time>2020-06-17T17:33:08Z</time>
      </trkpt>
      <trkpt lat="49.51329" lon="0.1613">
        <ele>71.3</ele>
        <time>2020-06-17T17:33:09Z</time>
      </trkpt>
      <trkpt lat="49.51331" lon="0.16126">
        <ele>71.2</ele>
        <time>2020-06-17T17:33:10Z</time>
      </trkpt>
      <trkpt lat="49.51332" lon="0.16122">
        <ele>71.2</ele>
        <time>2020-06-17T17:33:11Z</time>
      </trkpt>
      <trkpt lat="49.51333" lon="0.16117">
        <ele>71.1</ele>
        <time>2020-06-17T17:33:12Z</time>
      </trkpt>
      <trkpt lat="49.51335" lon="0.16113">
        <ele>71</ele>
        <time>2020-06-17T17:33:13Z</time>
      </trkpt>
      <trkpt lat="49.51336" lon="0.16106">
        <ele>70.9</ele>
        <time>2020-06-17T17:33:14Z</time>
      </trkpt>
      <trkpt lat="49.51337" lon="0.161">
        <ele>70.9</ele>
        <time>2020-06-17T17:33:15Z</time>
      </trkpt>
      <trkpt lat="49.51339" lon="0.16092">
        <ele>70</ele>
        <time>2020-06-17T17:33:16Z</time>
      </trkpt>
      <trkpt lat="49.51341" lon="0.16083">
        <ele>69.4</ele>
        <time>2020-06-17T17:33:17Z</time>
      </trkpt>
      <trkpt lat="49.51344" lon="0.16073">
        <ele>68.7</ele>
        <time>2020-06-17T17:33:18Z</time>
      </trkpt>
      <trkpt lat="49.51346" lon="0.16064">
        <ele>68.1</ele>
        <time>2020-06-17T17:33:19Z</time>
      </trkpt>
      <trkpt lat="49.51349" lon="0.16054">
        <ele>67.3</ele>
        <time>2020-06-17T17:33:20Z</time>
      </trkpt>
      <trkpt lat="49.51351" lon="0.16043">
        <ele>66.6</ele>
        <time>2020-06-17T17:33:21Z</time>
      </trkpt>
      <trkpt lat="49.51354" lon="0.16031">
        <ele>65.8</ele>
        <time>2020-06-17T17:33:22Z</time>
      </trkpt>
      <trkpt lat="49.51357" lon="0.16022">
        <ele>65.1</ele>
        <time>2020-06-17T17:33:23Z</time>
      </trkpt>
      <trkpt lat="49.51359" lon="0.16013">
        <ele>64.6</ele>
        <time>2020-06-17T17:33:24Z</time>
      </trkpt>
      <trkpt lat="49.51361" lon="0.16003">
        <ele>64.2</ele>
        <time>2020-06-17T17:33:25Z</time>
      </trkpt>
      <trkpt lat="49.51363" lon="0.15992">
        <ele>63.6</ele>
        <time>2020-06-17T17:33:26Z</time>
      </trkpt>
      <trkpt lat="49.51366" lon="0.1598">
        <ele>63</ele>
        <time>2020-06-17T17:33:27Z</time>
      </trkpt>
      <trkpt lat="49.51368" lon="0.15967">
        <ele>62.3</ele>
        <time>2020-06-17T17:33:28Z</time>
      </trkpt>
      <trkpt lat="49.51372" lon="0.15954">
        <ele>61.7</ele>
        <time>2020-06-17T17:33:29Z</time>
      </trkpt>
      <trkpt lat="49.51375" lon="0.15942">
        <ele>61</ele>
        <time>2020-06-17T17:33:30Z</time>
      </trkpt>
      <trkpt lat="49.51377" lon="0.15932">
        <ele>60.4</ele>
        <time>2020-06-17T17:33:31Z</time>
      </trkpt>
      <trkpt lat="49.5138" lon="0.1592">
        <ele>59.6</ele>
        <time>2020-06-17T17:33:32Z</time>
      </trkpt>
      <trkpt lat="49.51382" lon="0.15911">
        <ele>59.1</ele>
        <time>2020-06-17T17:33:33Z</time>
      </trkpt>
      <trkpt lat="49.51385" lon="0.15901">
        <ele>58.6</ele>
        <time>2020-06-17T17:33:34Z</time>
      </trkpt>
      <trkpt lat="49.51387" lon="0.15891">
        <ele>58</ele>
        <time>2020-06-17T17:33:35Z</time>
      </trkpt>
      <trkpt lat="49.51389" lon="0.1588">
        <ele>57.5</ele>
        <time>2020-06-17T17:33:36Z</time>
      </trkpt>
      <trkpt lat="49.51391" lon="0.1587">
        <ele>57</ele>
        <time>2020-06-17T17:33:37Z</time>
      </trkpt>
      <trkpt lat="49.51394" lon="0.1586">
        <ele>56.5</ele>
        <time>2020-06-17T17:33:38Z</time>
      </trkpt>
      <trkpt lat="49.51396" lon="0.1585">
        <ele>55.9</ele>
        <time>2020-06-17T17:33:39Z</time>
      </trkpt>
      <trkpt lat="49.51399" lon="0.15839">
        <ele>55.3</ele>
        <time>2020-06-17T17:33:40Z</time>
      </trkpt>
      <trkpt lat="49.51402" lon="0.15828">
        <ele>54.7</ele>
        <time>2020-06-17T17:33:41Z</time>
      </trkpt>
      <trkpt lat="49.51405" lon="0.15817">
        <ele>54.1</ele>
        <time>2020-06-17T17:33:42Z</time>
      </trkpt>
      <trkpt lat="49.51408" lon="0.15806">
        <ele>53.5</ele>
        <time>2020-06-17T17:33:43Z</time>
      </trkpt>
      <trkpt lat="49.51411" lon="0.15795">
        <ele>52.9</ele>
        <time>2020-06-17T17:33:44Z</time>
      </trkpt>
      <trkpt lat="49.51415" lon="0.15786">
        <ele>52.3</ele>
        <time>2020-06-17T17:33:45Z</time>
      </trkpt>
      <trkpt lat="49.51419" lon="0.15777">
        <ele>51.7</ele>
        <time>2020-06-17T17:33:46Z</time>
      </trkpt>
      <trkpt lat="49.51422" lon="0.15769">
        <ele>51.2</ele>
        <time>2020-06-17T17:33:47Z</time>
      </trkpt>
      <trkpt lat="49.51426" lon="0.15761">
        <ele>50.7</ele>
        <time>2020-06-17T17:33:48Z</time>
      </trkpt>
      <trkpt lat="49.51431" lon="0.15753">
        <ele>50.1</ele>
        <time>2020-06-17T17:33:49Z</time>
      </trkpt>
      <trkpt lat="49.51435" lon="0.15745">
        <ele>49.6</ele>
        <time>2020-06-17T17:33:50Z</time>
      </trkpt>
      <trkpt lat="49.5144" lon="0.15737">
        <ele>49</ele>
        <time>2020-06-17T17:33:51Z</time>
      </trkpt>
      <trkpt lat="49.51446" lon="0.1573">
        <ele>48.5</ele>
        <time>2020-06-17T17:33:52Z</time>
      </trkpt>
      <trkpt lat="49.51452" lon="0.15724">
        <ele>48</ele>
        <time>2020-06-17T17:33:53Z</time>
      </trkpt>
      <trkpt lat="49.51459" lon="0.15719">
        <ele>47.4</ele>
        <time>2020-06-17T17:33:54Z</time>
      </trkpt>
      <trkpt lat="49.51465" lon="0.15714">
        <ele>46.8</ele>
        <time>2020-06-17T17:33:55Z</time>
      </trkpt>
      <trkpt lat="49.51471" lon="0.15708">
        <ele>46.3</ele>
        <time>2020-06-17T17:33:56Z</time>
      </trkpt>
      <trkpt lat="49.51477" lon="0.15702">
        <ele>45.7</ele>
        <time>2020-06-17T17:33:57Z</time>
      </trkpt>
      <trkpt lat="49.51483" lon="0.15696">
        <ele>45.2</ele>
        <time>2020-06-17T17:33:58Z</time>
      </trkpt>
      <trkpt lat="49.51489" lon="0.15692">
        <ele>44.6</ele>
        <time>2020-06-17T17:33:59Z</time>
      </trkpt>
      <trkpt lat="49.51496" lon="0.15688">
        <ele>44.1</ele>
        <time>2020-06-17T17:34:00Z</time>
      </trkpt>
      <trkpt lat="49.51502" lon="0.15685">
        <ele>43.5</ele>
        <time>2020-06-17T17:34:01Z</time>
      </trkpt>
      <trkpt lat="49.51508" lon="0.15682">
        <ele>43</ele>
        <time>2020-06-17T17:34:02Z</time>
      </trkpt>
      <trkpt lat="49.51514" lon="0.15678">
        <ele>42.5</ele>
        <time>2020-06-17T17:34:03Z</time>
      </trkpt>
      <trkpt lat="49.5152" lon="0.15675">
        <ele>42</ele>
        <time>2020-06-17T17:34:04Z</time>
      </trkpt>
      <trkpt lat="49.51526" lon="0.15672">
        <ele>41.5</ele>
        <time>2020-06-17T17:34:05Z</time>
      </trkpt>
      <trkpt lat="49.51532" lon="0.15669">
        <ele>41</ele>
        <time>2020-06-17T17:34:06Z</time>
      </trkpt>
      <trkpt lat="49.51539" lon="0.15667">
        <ele>40.4</ele>
        <time>2020-06-17T17:34:07Z</time>
      </trkpt>
      <trkpt lat="49.51545" lon="0.15663">
        <ele>39.9</ele>
        <time>2020-06-17T17:34:08Z</time>
      </trkpt>
      <trkpt lat="49.51551" lon="0.1566">
        <ele>39.3</ele>
        <time>2020-06-17T17:34:09Z</time>
      </trkpt>
      <trkpt lat="49.51557" lon="0.15656">
        <ele>38.8</ele>
        <time>2020-06-17T17:34:10Z</time>
      </trkpt>
      <trkpt lat="49.51564" lon="0.15654">
        <ele>38.3</ele>
        <time>2020-06-17T17:34:11Z</time>
      </trkpt>
      <trkpt lat="49.5157" lon="0.15653">
        <ele>37.8</ele>
        <time>2020-06-17T17:34:12Z</time>
      </trkpt>
      <trkpt lat="49.51576" lon="0.1565">
        <ele>37.5</ele>
        <time>2020-06-17T17:34:13Z</time>
      </trkpt>
      <trkpt lat="49.51582" lon="0.15647">
        <ele>37</ele>
        <time>2020-06-17T17:34:14Z</time>
      </trkpt>
      <trkpt lat="49.51588" lon="0.15645">
        <ele>36.6</ele>
        <time>2020-06-17T17:34:15Z</time>
      </trkpt>
      <trkpt lat="49.51594" lon="0.15643">
        <ele>36.1</ele>
        <time>2020-06-17T17:34:16Z</time>
      </trkpt>
      <trkpt lat="49.516" lon="0.1564">
        <ele>35.7</ele>
        <time>2020-06-17T17:34:17Z</time>
      </trkpt>
      <trkpt lat="49.51605" lon="0.15637">
        <ele>35.4</ele>
        <time>2020-06-17T17:34:18Z</time>
      </trkpt>
      <trkpt lat="49.5161" lon="0.15634">
        <ele>35</ele>
        <time>2020-06-17T17:34:19Z</time>
      </trkpt>
      <trkpt lat="49.51615" lon="0.15632">
        <ele>34.8</ele>
        <time>2020-06-17T17:34:20Z</time>
      </trkpt>
      <trkpt lat="49.51621" lon="0.15631">
        <ele>34.6</ele>
        <time>2020-06-17T17:34:21Z</time>
      </trkpt>
      <trkpt lat="49.51625" lon="0.15628">
        <ele>34.4</ele>
        <time>2020-06-17T17:34:22Z</time>
      </trkpt>
      <trkpt lat="49.51628" lon="0.15625">
        <ele>34.2</ele>
        <time>2020-06-17T17:34:23Z</time>
      </trkpt>
      <trkpt lat="49.51632" lon="0.15623">
        <ele>34.1</ele>
        <time>2020-06-17T17:34:24Z</time>
      </trkpt>
      <trkpt lat="49.51635" lon="0.15621">
        <ele>34</ele>
        <time>2020-06-17T17:34:25Z</time>
      </trkpt>
      <trkpt lat="49.51637" lon="0.1562">
        <ele>33.9</ele>
        <time>2020-06-17T17:34:26Z</time>
      </trkpt>
      <trkpt lat="49.51641" lon="0.15623">
        <ele>33.8</ele>
        <time>2020-06-17T17:34:27Z</time>
      </trkpt>
      <trkpt lat="49.51644" lon="0.1562">
        <ele>33.7</ele>
        <time>2020-06-17T17:34:28Z</time>
      </trkpt>
      <trkpt lat="49.51645" lon="0.15618">
        <ele>33.6</ele>
        <time>2020-06-17T17:34:29Z</time>
      </trkpt>
      <trkpt lat="49.51647" lon="0.15617">
        <ele>33.6</ele>
        <time>2020-06-17T17:34:30Z</time>
      </trkpt>
      <trkpt lat="49.51647" lon="0.15616">
        <ele>33.6</ele>
        <time>2020-06-17T17:34:31Z</time>
      </trkpt>
      <trkpt lat="49.51648" lon="0.15614">
        <ele>33.6</ele>
        <time>2020-06-17T17:34:32Z</time>
      </trkpt>
      <trkpt lat="49.51649" lon="0.15612">
        <ele>33.5</ele>
        <time>2020-06-17T17:34:33Z</time>
      </trkpt>
      <trkpt lat="49.5165" lon="0.15611">
        <ele>33.5</ele>
        <time>2020-06-17T17:34:34Z</time>
      </trkpt>
      <trkpt lat="49.51652" lon="0.15613">
        <ele>33.5</ele>
        <time>2020-06-17T17:34:35Z</time>
      </trkpt>
      <trkpt lat="49.51653" lon="0.15613">
        <ele>33.5</ele>
        <time>2020-06-17T17:34:36Z</time>
      </trkpt>
      <trkpt lat="49.51655" lon="0.15614">
        <ele>33.5</ele>
        <time>2020-06-17T17:34:37Z</time>
      </trkpt>
      <trkpt lat="49.51657" lon="0.15613">
        <ele>33.4</ele>
        <time>2020-06-17T17:34:38Z</time>
      </trkpt>
      <trkpt lat="49.51658" lon="0.15613">
        <ele>33.4</ele>
        <time>2020-06-17T17:34:39Z</time>
      </trkpt>
      <trkpt lat="49.51659" lon="0.15618">
        <ele>33.3</ele>
        <time>2020-06-17T17:34:40Z</time>
      </trkpt>
      <trkpt lat="49.51662" lon="0.15622">
        <ele>33.3</ele>
        <time>2020-06-17T17:34:41Z</time>
      </trkpt>
      <trkpt lat="49.51664" lon="0.15625">
        <ele>33.3</ele>
        <time>2020-06-17T17:34:42Z</time>
      </trkpt>
      <trkpt lat="49.51667" lon="0.15628">
        <ele>33.2</ele>
        <time>2020-06-17T17:34:43Z</time>
      </trkpt>
      <trkpt lat="49.5167" lon="0.15632">
        <ele>33.2</ele>
        <time>2020-06-17T17:34:44Z</time>
      </trkpt>
      <trkpt lat="49.51672" lon="0.15637">
        <ele>33.2</ele>
        <time>2020-06-17T17:34:45Z</time>
      </trkpt>
      <trkpt lat="49.51675" lon="0.15641">
        <ele>33.1</ele>
        <time>2020-06-17T17:34:46Z</time>
      </trkpt>
      <trkpt lat="49.51678" lon="0.15645">
        <ele>33.1</ele>
        <time>2020-06-17T17:34:47Z</time>
      </trkpt>
      <trkpt lat="49.51682" lon="0.15649">
        <ele>33.1</ele>
        <time>2020-06-17T17:34:48Z</time>
      </trkpt>
      <trkpt lat="49.51685" lon="0.15653">
        <ele>33</ele>
        <time>2020-06-17T17:34:49Z</time>
      </trkpt>
      <trkpt lat="49.51688" lon="0.15657">
        <ele>33</ele>
        <time>2020-06-17T17:34:50Z</time>
      </trkpt>
      <trkpt lat="49.51691" lon="0.15661">
        <ele>33</ele>
        <time>2020-06-17T17:34:51Z</time>
      </trkpt>
      <trkpt lat="49.51694" lon="0.15665">
        <ele>32.9</ele>
        <time>2020-06-17T17:34:52Z</time>
      </trkpt>
      <trkpt lat="49.51698" lon="0.1567">
        <ele>33</ele>
        <time>2020-06-17T17:34:53Z</time>
      </trkpt>
      <trkpt lat="49.51701" lon="0.15674">
        <ele>33</ele>
        <time>2020-06-17T17:34:54Z</time>
      </trkpt>
      <trkpt lat="49.51705" lon="0.15679">
        <ele>33</ele>
        <time>2020-06-17T17:34:55Z</time>
      </trkpt>
      <trkpt lat="49.51708" lon="0.15683">
        <ele>33.1</ele>
        <time>2020-06-17T17:34:56Z</time>
      </trkpt>
      <trkpt lat="49.51712" lon="0.15686">
        <ele>33.1</ele>
        <time>2020-06-17T17:34:57Z</time>
      </trkpt>
      <trkpt lat="49.51716" lon="0.15691">
        <ele>33.1</ele>
        <time>2020-06-17T17:34:58Z</time>
      </trkpt>
      <trkpt lat="49.51719" lon="0.15696">
        <ele>33.2</ele>
        <time>2020-06-17T17:34:59Z</time>
      </trkpt>
      <trkpt lat="49.51721" lon="0.157">
        <ele>33.2</ele>
        <time>2020-06-17T17:35:00Z</time>
      </trkpt>
      <trkpt lat="49.51724" lon="0.15704">
        <ele>33.2</ele>
        <time>2020-06-17T17:35:01Z</time>
      </trkpt>
      <trkpt lat="49.51727" lon="0.15706">
        <ele>33.2</ele>
        <time>2020-06-17T17:35:02Z</time>
      </trkpt>
      <trkpt lat="49.51729" lon="0.1571">
        <ele>33.3</ele>
        <time>2020-06-17T17:35:03Z</time>
      </trkpt>
      <trkpt lat="49.51729" lon="0.15711">
        <ele>33.3</ele>
        <time>2020-06-17T17:35:04Z</time>
      </trkpt>
      <trkpt lat="49.51728" lon="0.15712">
        <ele>33.3</ele>
        <time>2020-06-17T17:35:05Z</time>
      </trkpt>
      <trkpt lat="49.51728" lon="0.15712">
        <ele>33.3</ele>
        <time>2020-06-17T17:35:06Z</time>
      </trkpt>
      <trkpt lat="49.51729" lon="0.15712">
        <ele>33.3</ele>
        <time>2020-06-17T17:35:07Z</time>
      </trkpt>
      <trkpt lat="49.51729" lon="0.15711">
        <ele>33.3</ele>
        <time>2020-06-17T17:35:08Z</time>
      </trkpt>
      <trkpt lat="49.51729" lon="0.15711">
        <ele>33.3</ele>
        <time>2020-06-17T17:35:09Z</time>
      </trkpt>
      <trkpt lat="49.51729" lon="0.1571">
        <ele>33.3</ele>
        <time>2020-06-17T17:35:10Z</time>
      </trkpt>
      <trkpt lat="49.51729" lon="0.15711">
        <ele>33.3</ele>
        <time>2020-06-17T17:35:11Z</time>
      </trkpt>
      <trkpt lat="49.51729" lon="0.1571">
        <ele>33.3</ele>
        <time>2020-06-17T17:35:12Z</time>
      </trkpt>
      <trkpt lat="49.51728" lon="0.1571">
        <ele>33.3</ele>
        <time>2020-06-17T17:35:13Z</time>
      </trkpt>
      <trkpt lat="49.51729" lon="0.15711">
        <ele>33.3</ele>
        <time>2020-06-17T17:35:14Z</time>
      </trkpt>
      <trkpt lat="49.51736" lon="0.15717">
        <ele>33.3</ele>
        <time>2020-06-17T17:35:48Z</time>
      </trkpt>
      <trkpt lat="49.51737" lon="0.15717">
        <ele>33.4</ele>
        <time>2020-06-17T17:35:49Z</time>
      </trkpt>
      <trkpt lat="49.51741" lon="0.15717">
        <ele>33.4</ele>
        <time>2020-06-17T17:35:50Z</time>
      </trkpt>
      <trkpt lat="49.51742" lon="0.15717">
        <ele>33.4</ele>
        <time>2020-06-17T17:35:51Z</time>
      </trkpt>
      <trkpt lat="49.51745" lon="0.1572">
        <ele>33.5</ele>
        <time>2020-06-17T17:35:52Z</time>
      </trkpt>
      <trkpt lat="49.51747" lon="0.15722">
        <ele>33.5</ele>
        <time>2020-06-17T17:35:53Z</time>
      </trkpt>
      <trkpt lat="49.51749" lon="0.15724">
        <ele>33.5</ele>
        <time>2020-06-17T17:35:54Z</time>
      </trkpt>
      <trkpt lat="49.51753" lon="0.15724">
        <ele>33.5</ele>
        <time>2020-06-17T17:35:55Z</time>
      </trkpt>
      <trkpt lat="49.51756" lon="0.15723">
        <ele>33.6</ele>
        <time>2020-06-17T17:35:56Z</time>
      </trkpt>
      <trkpt lat="49.51759" lon="0.1572">
        <ele>33.7</ele>
        <time>2020-06-17T17:35:57Z</time>
      </trkpt>
      <trkpt lat="49.51763" lon="0.15718">
        <ele>33.8</ele>
        <time>2020-06-17T17:35:58Z</time>
      </trkpt>
      <trkpt lat="49.51766" lon="0.15716">
        <ele>33.9</ele>
        <time>2020-06-17T17:35:59Z</time>
      </trkpt>
      <trkpt lat="49.51769" lon="0.15714">
        <ele>34</ele>
        <time>2020-06-17T17:36:00Z</time>
      </trkpt>
      <trkpt lat="49.51772" lon="0.15711">
        <ele>34.2</ele>
        <time>2020-06-17T17:36:01Z</time>
      </trkpt>
      <trkpt lat="49.51774" lon="0.15708">
        <ele>34.3</ele>
        <time>2020-06-17T17:36:02Z</time>
      </trkpt>
      <trkpt lat="49.51777" lon="0.15705">
        <ele>34.4</ele>
        <time>2020-06-17T17:36:03Z</time>
      </trkpt>
      <trkpt lat="49.5178" lon="0.15701">
        <ele>34.5</ele>
        <time>2020-06-17T17:36:04Z</time>
      </trkpt>
      <trkpt lat="49.51783" lon="0.15698">
        <ele>34.7</ele>
        <time>2020-06-17T17:36:05Z</time>
      </trkpt>
      <trkpt lat="49.51786" lon="0.15696">
        <ele>34.8</ele>
        <time>2020-06-17T17:36:06Z</time>
      </trkpt>
      <trkpt lat="49.51789" lon="0.15696">
        <ele>35</ele>
        <time>2020-06-17T17:36:07Z</time>
      </trkpt>
      <trkpt lat="49.51792" lon="0.15694">
        <ele>35.1</ele>
        <time>2020-06-17T17:36:08Z</time>
      </trkpt>
      <trkpt lat="49.51796" lon="0.15693">
        <ele>35.3</ele>
        <time>2020-06-17T17:36:09Z</time>
      </trkpt>
      <trkpt lat="49.518" lon="0.15692">
        <ele>35.5</ele>
        <time>2020-06-17T17:36:10Z</time>
      </trkpt>
      <trkpt lat="49.51803" lon="0.15692">
        <ele>35.7</ele>
        <time>2020-06-17T17:36:11Z</time>
      </trkpt>
      <trkpt lat="49.51807" lon="0.15691">
        <ele>35.8</ele>
        <time>2020-06-17T17:36:12Z</time>
      </trkpt>
      <trkpt lat="49.51811" lon="0.15691">
        <ele>36</ele>
        <time>2020-06-17T17:36:13Z</time>
      </trkpt>
      <trkpt lat="49.51815" lon="0.1569">
        <ele>36.3</ele>
        <time>2020-06-17T17:36:14Z</time>
      </trkpt>
      <trkpt lat="49.51819" lon="0.15688">
        <ele>36.5</ele>
        <time>2020-06-17T17:36:15Z</time>
      </trkpt>
      <trkpt lat="49.51822" lon="0.15687">
        <ele>36.7</ele>
        <time>2020-06-17T17:36:16Z</time>
      </trkpt>
      <trkpt lat="49.51825" lon="0.15687">
        <ele>36.8</ele>
        <time>2020-06-17T17:36:17Z</time>
      </trkpt>
      <trkpt lat="49.51828" lon="0.15687">
        <ele>37</ele>
        <time>2020-06-17T17:36:18Z</time>
      </trkpt>
      <trkpt lat="49.51832" lon="0.15685">
        <ele>37.3</ele>
        <time>2020-06-17T17:36:19Z</time>
      </trkpt>
      <trkpt lat="49.51834" lon="0.15684">
        <ele>37.4</ele>
        <time>2020-06-17T17:36:20Z</time>
      </trkpt>
      <trkpt lat="49.51836" lon="0.15684">
        <ele>37.5</ele>
        <time>2020-06-17T17:36:21Z</time>
      </trkpt>
      <trkpt lat="49.51838" lon="0.15684">
        <ele>37.6</ele>
        <time>2020-06-17T17:36:22Z</time>
      </trkpt>
      <trkpt lat="49.51837" lon="0.15683">
        <ele>37.6</ele>
        <time>2020-06-17T17:36:23Z</time>
      </trkpt>
      <trkpt lat="49.51839" lon="0.15683">
        <ele>37.8</ele>
        <time>2020-06-17T17:36:24Z</time>
      </trkpt>
      <trkpt lat="49.51842" lon="0.15683">
        <ele>37.9</ele>
        <time>2020-06-17T17:36:25Z</time>
      </trkpt>
      <trkpt lat="49.51843" lon="0.15684">
        <ele>38</ele>
        <time>2020-06-17T17:36:26Z</time>
      </trkpt>
      <trkpt lat="49.51847" lon="0.15684">
        <ele>38.2</ele>
        <time>2020-06-17T17:36:27Z</time>
      </trkpt>
      <trkpt lat="49.51849" lon="0.15685">
        <ele>38.3</ele>
        <time>2020-06-17T17:36:28Z</time>
      </trkpt>
      <trkpt lat="49.51852" lon="0.15685">
        <ele>38.4</ele>
        <time>2020-06-17T17:36:29Z</time>
      </trkpt>
      <trkpt lat="49.51856" lon="0.15685">
        <ele>38.7</ele>
        <time>2020-06-17T17:36:30Z</time>
      </trkpt>
      <trkpt lat="49.51859" lon="0.15685">
        <ele>38.8</ele>
        <time>2020-06-17T17:36:31Z</time>
      </trkpt>
      <trkpt lat="49.5186" lon="0.15685">
        <ele>38.9</ele>
        <time>2020-06-17T17:36:32Z</time>
      </trkpt>
      <trkpt lat="49.51862" lon="0.15685">
        <ele>39</ele>
        <time>2020-06-17T17:36:33Z</time>
      </trkpt>
      <trkpt lat="49.51863" lon="0.15685">
        <ele>39.1</ele>
        <time>2020-06-17T17:36:34Z</time>
      </trkpt>
      <trkpt lat="49.51867" lon="0.15685">
        <ele>39.3</ele>
        <time>2020-06-17T17:36:35Z</time>
      </trkpt>
      <trkpt lat="49.51871" lon="0.15686">
        <ele>39.5</ele>
        <time>2020-06-17T17:36:36Z</time>
      </trkpt>
      <trkpt lat="49.51875" lon="0.15687">
        <ele>39.7</ele>
        <time>2020-06-17T17:36:37Z</time>
      </trkpt>
      <trkpt lat="49.51877" lon="0.15687">
        <ele>39.8</ele>
        <time>2020-06-17T17:36:38Z</time>
      </trkpt>
      <trkpt lat="49.51881" lon="0.15688">
        <ele>40</ele>
        <time>2020-06-17T17:36:39Z</time>
      </trkpt>
      <trkpt lat="49.51882" lon="0.15688">
        <ele>40</ele>
        <time>2020-06-17T17:36:40Z</time>
      </trkpt>
      <trkpt lat="49.51887" lon="0.1569">
        <ele>40.3</ele>
        <time>2020-06-17T17:36:41Z</time>
      </trkpt>
      <trkpt lat="49.51891" lon="0.15692">
        <ele>40.4</ele>
        <time>2020-06-17T17:36:42Z</time>
      </trkpt>
      <trkpt lat="49.51895" lon="0.15692">
        <ele>40.6</ele>
        <time>2020-06-17T17:36:43Z</time>
      </trkpt>
      <trkpt lat="49.51899" lon="0.15693">
        <ele>40.7</ele>
        <time>2020-06-17T17:36:44Z</time>
      </trkpt>
      <trkpt lat="49.51902" lon="0.15694">
        <ele>40.8</ele>
        <time>2020-06-17T17:36:45Z</time>
      </trkpt>
      <trkpt lat="49.51906" lon="0.15695">
        <ele>41</ele>
        <time>2020-06-17T17:36:46Z</time>
      </trkpt>
      <trkpt lat="49.51907" lon="0.15695">
        <ele>41</ele>
        <time>2020-06-17T17:36:47Z</time>
      </trkpt>
      <trkpt lat="49.51911" lon="0.15696">
        <ele>41.1</ele>
        <time>2020-06-17T17:36:48Z</time>
      </trkpt>
      <trkpt lat="49.51912" lon="0.15697">
        <ele>41.1</ele>
        <time>2020-06-17T17:36:49Z</time>
      </trkpt>
      <trkpt lat="49.51916" lon="0.15699">
        <ele>41.2</ele>
        <time>2020-06-17T17:36:50Z</time>
      </trkpt>
      <trkpt lat="49.5192" lon="0.157">
        <ele>41.3</ele>
        <time>2020-06-17T17:36:51Z</time>
      </trkpt>
      <trkpt lat="49.51923" lon="0.157">
        <ele>41.4</ele>
        <time>2020-06-17T17:36:52Z</time>
      </trkpt>
      <trkpt lat="49.51926" lon="0.157">
        <ele>41.4</ele>
        <time>2020-06-17T17:36:53Z</time>
      </trkpt>
      <trkpt lat="49.51931" lon="0.15701">
        <ele>41.5</ele>
        <time>2020-06-17T17:36:54Z</time>
      </trkpt>
      <trkpt lat="49.51933" lon="0.15703">
        <ele>41.5</ele>
        <time>2020-06-17T17:36:55Z</time>
      </trkpt>
      <trkpt lat="49.51936" lon="0.15704">
        <ele>41.5</ele>
        <time>2020-06-17T17:36:56Z</time>
      </trkpt>
      <trkpt lat="49.5194" lon="0.15705">
        <ele>41.6</ele>
        <time>2020-06-17T17:36:57Z</time>
      </trkpt>
      <trkpt lat="49.51942" lon="0.15706">
        <ele>41.6</ele>
        <time>2020-06-17T17:36:58Z</time>
      </trkpt>
      <trkpt lat="49.51945" lon="0.15706">
        <ele>41.6</ele>
        <time>2020-06-17T17:36:59Z</time>
      </trkpt>
      <trkpt lat="49.51949" lon="0.15706">
        <ele>41.5</ele>
        <time>2020-06-17T17:37:00Z</time>
      </trkpt>
      <trkpt lat="49.51953" lon="0.15707">
        <ele>41.5</ele>
        <time>2020-06-17T17:37:01Z</time>
      </trkpt>
      <trkpt lat="49.51957" lon="0.15707">
        <ele>41.5</ele>
        <time>2020-06-17T17:37:02Z</time>
      </trkpt>
      <trkpt lat="49.51961" lon="0.15708">
        <ele>41.4</ele>
        <time>2020-06-17T17:37:03Z</time>
      </trkpt>
      <trkpt lat="49.51962" lon="0.15708">
        <ele>41.4</ele>
        <time>2020-06-17T17:37:04Z</time>
      </trkpt>
      <trkpt lat="49.51965" lon="0.15708">
        <ele>41.4</ele>
        <time>2020-06-17T17:37:05Z</time>
      </trkpt>
      <trkpt lat="49.51969" lon="0.15708">
        <ele>41.3</ele>
        <time>2020-06-17T17:37:06Z</time>
      </trkpt>
      <trkpt lat="49.51972" lon="0.15708">
        <ele>41.3</ele>
        <time>2020-06-17T17:37:07Z</time>
      </trkpt>
      <trkpt lat="49.51976" lon="0.15707">
        <ele>41.2</ele>
        <time>2020-06-17T17:37:08Z</time>
      </trkpt>
      <trkpt lat="49.51979" lon="0.15708">
        <ele>41.2</ele>
        <time>2020-06-17T17:37:09Z</time>
      </trkpt>
      <trkpt lat="49.51983" lon="0.15708">
        <ele>41.1</ele>
        <time>2020-06-17T17:37:10Z</time>
      </trkpt>
      <trkpt lat="49.51987" lon="0.15709">
        <ele>41.1</ele>
        <time>2020-06-17T17:37:11Z</time>
      </trkpt>
      <trkpt lat="49.51992" lon="0.15711">
        <ele>41</ele>
        <time>2020-06-17T17:37:12Z</time>
      </trkpt>
      <trkpt lat="49.51996" lon="0.15712">
        <ele>40.9</ele>
        <time>2020-06-17T17:37:13Z</time>
      </trkpt>
      <trkpt lat="49.52001" lon="0.15713">
        <ele>40.9</ele>
        <time>2020-06-17T17:37:14Z</time>
      </trkpt>
      <trkpt lat="49.52005" lon="0.15714">
        <ele>40.8</ele>
        <time>2020-06-17T17:37:15Z</time>
      </trkpt>
      <trkpt lat="49.5201" lon="0.15714">
        <ele>40.7</ele>
        <time>2020-06-17T17:37:16Z</time>
      </trkpt>
      <trkpt lat="49.52014" lon="0.15714">
        <ele>40.7</ele>
        <time>2020-06-17T17:37:17Z</time>
      </trkpt>
      <trkpt lat="49.5202" lon="0.15715">
        <ele>40.6</ele>
        <time>2020-06-17T17:37:18Z</time>
      </trkpt>
      <trkpt lat="49.52025" lon="0.15716">
        <ele>40.5</ele>
        <time>2020-06-17T17:37:19Z</time>
      </trkpt>
      <trkpt lat="49.5203" lon="0.15716">
        <ele>40.5</ele>
        <time>2020-06-17T17:37:20Z</time>
      </trkpt>
      <trkpt lat="49.52034" lon="0.15716">
        <ele>40.4</ele>
        <time>2020-06-17T17:37:21Z</time>
      </trkpt>
      <trkpt lat="49.52039" lon="0.15716">
        <ele>40.3</ele>
        <time>2020-06-17T17:37:22Z</time>
      </trkpt>
      <trkpt lat="49.52045" lon="0.15716">
        <ele>40.2</ele>
        <time>2020-06-17T17:37:23Z</time>
      </trkpt>
      <trkpt lat="49.52049" lon="0.15716">
        <ele>40.1</ele>
        <time>2020-06-17T17:37:24Z</time>
      </trkpt>
      <trkpt lat="49.52054" lon="0.15716">
        <ele>40</ele>
        <time>2020-06-17T17:37:25Z</time>
      </trkpt>
      <trkpt lat="49.52059" lon="0.15717">
        <ele>39.9</ele>
        <time>2020-06-17T17:37:26Z</time>
      </trkpt>
      <trkpt lat="49.52063" lon="0.15716">
        <ele>39.9</ele>
        <time>2020-06-17T17:37:27Z</time>
      </trkpt>
      <trkpt lat="49.5207" lon="0.15717">
        <ele>39.8</ele>
        <time>2020-06-17T17:37:28Z</time>
      </trkpt>
      <trkpt lat="49.52077" lon="0.15718">
        <ele>39.7</ele>
        <time>2020-06-17T17:37:29Z</time>
      </trkpt>
      <trkpt lat="49.52083" lon="0.15719">
        <ele>39.7</ele>
        <time>2020-06-17T17:37:30Z</time>
      </trkpt>
      <trkpt lat="49.52088" lon="0.1572">
        <ele>39.7</ele>
        <time>2020-06-17T17:37:31Z</time>
      </trkpt>
      <trkpt lat="49.52093" lon="0.15721">
        <ele>39.6</ele>
        <time>2020-06-17T17:37:32Z</time>
      </trkpt>
      <trkpt lat="49.521" lon="0.15722">
        <ele>39.6</ele>
        <time>2020-06-17T17:37:33Z</time>
      </trkpt>
      <trkpt lat="49.52104" lon="0.15724">
        <ele>39.6</ele>
        <time>2020-06-17T17:37:34Z</time>
      </trkpt>
      <trkpt lat="49.5211" lon="0.15724">
        <ele>39.5</ele>
        <time>2020-06-17T17:37:35Z</time>
      </trkpt>
      <trkpt lat="49.52114" lon="0.15725">
        <ele>39.5</ele>
        <time>2020-06-17T17:37:36Z</time>
      </trkpt>
      <trkpt lat="49.52119" lon="0.15726">
        <ele>39.5</ele>
        <time>2020-06-17T17:37:37Z</time>
      </trkpt>
      <trkpt lat="49.52123" lon="0.15726">
        <ele>39.4</ele>
        <time>2020-06-17T17:37:38Z</time>
      </trkpt>
      <trkpt lat="49.52128" lon="0.15726">
        <ele>39.4</ele>
        <time>2020-06-17T17:37:39Z</time>
      </trkpt>
      <trkpt lat="49.52134" lon="0.15725">
        <ele>39.4</ele>
        <time>2020-06-17T17:37:40Z</time>
      </trkpt>
      <trkpt lat="49.5214" lon="0.15725">
        <ele>39.4</ele>
        <time>2020-06-17T17:37:41Z</time>
      </trkpt>
      <trkpt lat="49.52146" lon="0.15725">
        <ele>39.4</ele>
        <time>2020-06-17T17:37:42Z</time>
      </trkpt>
      <trkpt lat="49.52151" lon="0.15727">
        <ele>39.4</ele>
        <time>2020-06-17T17:37:43Z</time>
      </trkpt>
      <trkpt lat="49.52156" lon="0.15726">
        <ele>39.4</ele>
        <time>2020-06-17T17:37:44Z</time>
      </trkpt>
      <trkpt lat="49.5216" lon="0.15727">
        <ele>39.4</ele>
        <time>2020-06-17T17:37:45Z</time>
      </trkpt>
      <trkpt lat="49.52164" lon="0.15727">
        <ele>39.3</ele>
        <time>2020-06-17T17:37:46Z</time>
      </trkpt>
      <trkpt lat="49.52169" lon="0.15727">
        <ele>39.3</ele>
        <time>2020-06-17T17:37:47Z</time>
      </trkpt>
      <trkpt lat="49.52175" lon="0.15727">
        <ele>39.3</ele>
        <time>2020-06-17T17:37:48Z</time>
      </trkpt>
      <trkpt lat="49.52181" lon="0.15728">
        <ele>39.3</ele>
        <time>2020-06-17T17:37:49Z</time>
      </trkpt>
      <trkpt lat="49.52186" lon="0.15729">
        <ele>39.3</ele>
        <time>2020-06-17T17:37:50Z</time>
      </trkpt>
      <trkpt lat="49.52192" lon="0.1573">
        <ele>39.3</ele>
        <time>2020-06-17T17:37:51Z</time>
      </trkpt>
      <trkpt lat="49.52197" lon="0.15731">
        <ele>39.2</ele>
        <time>2020-06-17T17:37:52Z</time>
      </trkpt>
      <trkpt lat="49.52202" lon="0.15732">
        <ele>39.3</ele>
        <time>2020-06-17T17:37:53Z</time>
      </trkpt>
      <trkpt lat="49.52207" lon="0.15732">
        <ele>39.3</ele>
        <time>2020-06-17T17:37:54Z</time>
      </trkpt>
      <trkpt lat="49.52212" lon="0.15733">
        <ele>39.3</ele>
        <time>2020-06-17T17:37:55Z</time>
      </trkpt>
      <trkpt lat="49.52217" lon="0.15733">
        <ele>39</ele>
        <time>2020-06-17T17:37:56Z</time>
      </trkpt>
      <trkpt lat="49.52222" lon="0.15732">
        <ele>38.9</ele>
        <time>2020-06-17T17:37:57Z</time>
      </trkpt>
      <trkpt lat="49.52226" lon="0.15731">
        <ele>38.8</ele>
        <time>2020-06-17T17:37:58Z</time>
      </trkpt>
      <trkpt lat="49.52228" lon="0.15731">
        <ele>38.7</ele>
        <time>2020-06-17T17:37:59Z</time>
      </trkpt>
      <trkpt lat="49.52228" lon="0.15731">
        <ele>38.7</ele>
        <time>2020-06-17T17:38:00Z</time>
      </trkpt>
      <trkpt lat="49.52229" lon="0.15731">
        <ele>38.7</ele>
        <time>2020-06-17T17:38:01Z</time>
      </trkpt>
      <trkpt lat="49.52229" lon="0.15731">
        <ele>38.7</ele>
        <time>2020-06-17T17:38:02Z</time>
      </trkpt>
      <trkpt lat="49.52232" lon="0.15731">
        <ele>38.6</ele>
        <time>2020-06-17T17:38:03Z</time>
      </trkpt>
      <trkpt lat="49.52234" lon="0.15731">
        <ele>38.5</ele>
        <time>2020-06-17T17:38:04Z</time>
      </trkpt>
      <trkpt lat="49.52239" lon="0.1573">
        <ele>38.4</ele>
        <time>2020-06-17T17:38:05Z</time>
      </trkpt>
      <trkpt lat="49.52242" lon="0.1573">
        <ele>38.3</ele>
        <time>2020-06-17T17:38:06Z</time>
      </trkpt>
      <trkpt lat="49.52247" lon="0.15729">
        <ele>38.2</ele>
        <time>2020-06-17T17:38:07Z</time>
      </trkpt>
      <trkpt lat="49.52252" lon="0.15728">
        <ele>38.1</ele>
        <time>2020-06-17T17:38:08Z</time>
      </trkpt>
      <trkpt lat="49.52257" lon="0.15727">
        <ele>38</ele>
        <time>2020-06-17T17:38:09Z</time>
      </trkpt>
      <trkpt lat="49.52263" lon="0.15727">
        <ele>37.9</ele>
        <time>2020-06-17T17:38:10Z</time>
      </trkpt>
      <trkpt lat="49.52268" lon="0.15727">
        <ele>37.7</ele>
        <time>2020-06-17T17:38:11Z</time>
      </trkpt>
      <trkpt lat="49.52273" lon="0.15728">
        <ele>37.6</ele>
        <time>2020-06-17T17:38:12Z</time>
      </trkpt>
      <trkpt lat="49.5228" lon="0.1573">
        <ele>37.5</ele>
        <time>2020-06-17T17:38:13Z</time>
      </trkpt>
      <trkpt lat="49.52285" lon="0.15729">
        <ele>37.4</ele>
        <time>2020-06-17T17:38:14Z</time>
      </trkpt>
      <trkpt lat="49.5229" lon="0.15728">
        <ele>37.4</ele>
        <time>2020-06-17T17:38:15Z</time>
      </trkpt>
      <trkpt lat="49.52296" lon="0.15728">
        <ele>37.4</ele>
        <time>2020-06-17T17:38:16Z</time>
      </trkpt>
      <trkpt lat="49.52301" lon="0.15727">
        <ele>37.5</ele>
        <time>2020-06-17T17:38:17Z</time>
      </trkpt>
      <trkpt lat="49.52306" lon="0.15726">
        <ele>37.5</ele>
        <time>2020-06-17T17:38:18Z</time>
      </trkpt>
      <trkpt lat="49.52311" lon="0.15725">
        <ele>37.6</ele>
        <time>2020-06-17T17:38:19Z</time>
      </trkpt>
      <trkpt lat="49.52318" lon="0.15723">
        <ele>37.7</ele>
        <time>2020-06-17T17:38:20Z</time>
      </trkpt>
      <trkpt lat="49.52323" lon="0.1572">
        <ele>37.8</ele>
        <time>2020-06-17T17:38:21Z</time>
      </trkpt>
      <trkpt lat="49.52328" lon="0.15718">
        <ele>37.8</ele>
        <time>2020-06-17T17:38:22Z</time>
      </trkpt>
      <trkpt lat="49.52333" lon="0.15716">
        <ele>37.9</ele>
        <time>2020-06-17T17:38:23Z</time>
      </trkpt>
      <trkpt lat="49.52337" lon="0.15714">
        <ele>37.9</ele>
        <time>2020-06-17T17:38:24Z</time>
      </trkpt>
      <trkpt lat="49.52341" lon="0.15712">
        <ele>37.9</ele>
        <time>2020-06-17T17:38:25Z</time>
      </trkpt>
      <trkpt lat="49.52346" lon="0.15711">
        <ele>37.9</ele>
        <time>2020-06-17T17:38:26Z</time>
      </trkpt>
      <trkpt lat="49.5235" lon="0.15707">
        <ele>37.9</ele>
        <time>2020-06-17T17:38:27Z</time>
      </trkpt>
      <trkpt lat="49.52355" lon="0.15703">
        <ele>37.8</ele>
        <time>2020-06-17T17:38:28Z</time>
      </trkpt>
      <trkpt lat="49.52358" lon="0.157">
        <ele>37.7</ele>
        <time>2020-06-17T17:38:29Z</time>
      </trkpt>
      <trkpt lat="49.52363" lon="0.15697">
        <ele>37.6</ele>
        <time>2020-06-17T17:38:30Z</time>
      </trkpt>
      <trkpt lat="49.52368" lon="0.15692">
        <ele>37.4</ele>
        <time>2020-06-17T17:38:31Z</time>
      </trkpt>
      <trkpt lat="49.52371" lon="0.15689">
        <ele>37.3</ele>
        <time>2020-06-17T17:38:32Z</time>
      </trkpt>
      <trkpt lat="49.52375" lon="0.15684">
        <ele>37.2</ele>
        <time>2020-06-17T17:38:33Z</time>
      </trkpt>
      <trkpt lat="49.52379" lon="0.15681">
        <ele>37.1</ele>
        <time>2020-06-17T17:38:34Z</time>
      </trkpt>
      <trkpt lat="49.52384" lon="0.15675">
        <ele>37</ele>
        <time>2020-06-17T17:38:35Z</time>
      </trkpt>
      <trkpt lat="49.52388" lon="0.1567">
        <ele>36.9</ele>
        <time>2020-06-17T17:38:36Z</time>
      </trkpt>
      <trkpt lat="49.52392" lon="0.15663">
        <ele>36.7</ele>
        <time>2020-06-17T17:38:37Z</time>
      </trkpt>
      <trkpt lat="49.52396" lon="0.15658">
        <ele>36.6</ele>
        <time>2020-06-17T17:38:38Z</time>
      </trkpt>
      <trkpt lat="49.524" lon="0.15652">
        <ele>36.5</ele>
        <time>2020-06-17T17:38:39Z</time>
      </trkpt>
      <trkpt lat="49.52403" lon="0.15648">
        <ele>36.3</ele>
        <time>2020-06-17T17:38:40Z</time>
      </trkpt>
      <trkpt lat="49.52408" lon="0.15642">
        <ele>36.2</ele>
        <time>2020-06-17T17:38:41Z</time>
      </trkpt>
      <trkpt lat="49.52412" lon="0.15634">
        <ele>36</ele>
        <time>2020-06-17T17:38:42Z</time>
      </trkpt>
      <trkpt lat="49.52417" lon="0.15626">
        <ele>35.8</ele>
        <time>2020-06-17T17:38:43Z</time>
      </trkpt>
      <trkpt lat="49.52422" lon="0.15618">
        <ele>35.7</ele>
        <time>2020-06-17T17:38:44Z</time>
      </trkpt>
      <trkpt lat="49.52426" lon="0.15612">
        <ele>35.6</ele>
        <time>2020-06-17T17:38:45Z</time>
      </trkpt>
      <trkpt lat="49.5243" lon="0.15605">
        <ele>35.4</ele>
        <time>2020-06-17T17:38:46Z</time>
      </trkpt>
      <trkpt lat="49.52434" lon="0.15598">
        <ele>35.3</ele>
        <time>2020-06-17T17:38:47Z</time>
      </trkpt>
      <trkpt lat="49.52439" lon="0.15589">
        <ele>35.1</ele>
        <time>2020-06-17T17:38:48Z</time>
      </trkpt>
      <trkpt lat="49.52443" lon="0.1558">
        <ele>34.9</ele>
        <time>2020-06-17T17:38:49Z</time>
      </trkpt>
      <trkpt lat="49.52447" lon="0.15572">
        <ele>34.8</ele>
        <time>2020-06-17T17:38:50Z</time>
      </trkpt>
      <trkpt lat="49.52451" lon="0.15565">
        <ele>34.6</ele>
        <time>2020-06-17T17:38:51Z</time>
      </trkpt>
      <trkpt lat="49.52456" lon="0.15559">
        <ele>34.5</ele>
        <time>2020-06-17T17:38:52Z</time>
      </trkpt>
      <trkpt lat="49.52459" lon="0.15552">
        <ele>34.4</ele>
        <time>2020-06-17T17:38:53Z</time>
      </trkpt>
      <trkpt lat="49.52463" lon="0.15545">
        <ele>34.2</ele>
        <time>2020-06-17T17:38:54Z</time>
      </trkpt>
      <trkpt lat="49.52467" lon="0.15538">
        <ele>34.1</ele>
        <time>2020-06-17T17:38:55Z</time>
      </trkpt>
      <trkpt lat="49.52471" lon="0.15531">
        <ele>34</ele>
        <time>2020-06-17T17:38:56Z</time>
      </trkpt>
      <trkpt lat="49.52475" lon="0.15525">
        <ele>33.8</ele>
        <time>2020-06-17T17:38:57Z</time>
      </trkpt>
      <trkpt lat="49.52478" lon="0.15519">
        <ele>33.7</ele>
        <time>2020-06-17T17:38:58Z</time>
      </trkpt>
      <trkpt lat="49.52482" lon="0.15513">
        <ele>33.7</ele>
        <time>2020-06-17T17:38:59Z</time>
      </trkpt>
      <trkpt lat="49.52487" lon="0.15507">
        <ele>33.6</ele>
        <time>2020-06-17T17:39:00Z</time>
      </trkpt>
      <trkpt lat="49.52491" lon="0.15501">
        <ele>33.6</ele>
        <time>2020-06-17T17:39:01Z</time>
      </trkpt>
      <trkpt lat="49.52495" lon="0.15496">
        <ele>33.5</ele>
        <time>2020-06-17T17:39:02Z</time>
      </trkpt>
      <trkpt lat="49.52499" lon="0.1549">
        <ele>33.5</ele>
        <time>2020-06-17T17:39:03Z</time>
      </trkpt>
      <trkpt lat="49.52503" lon="0.15483">
        <ele>33.4</ele>
        <time>2020-06-17T17:39:04Z</time>
      </trkpt>
      <trkpt lat="49.52506" lon="0.15477">
        <ele>33.3</ele>
        <time>2020-06-17T17:39:05Z</time>
      </trkpt>
      <trkpt lat="49.52509" lon="0.1547">
        <ele>33.2</ele>
        <time>2020-06-17T17:39:06Z</time>
      </trkpt>
      <trkpt lat="49.52514" lon="0.15463">
        <ele>33.1</ele>
        <time>2020-06-17T17:39:07Z</time>
      </trkpt>
      <trkpt lat="49.52517" lon="0.15457">
        <ele>33</ele>
        <time>2020-06-17T17:39:08Z</time>
      </trkpt>
      <trkpt lat="49.52521" lon="0.1545">
        <ele>32.9</ele>
        <time>2020-06-17T17:39:09Z</time>
      </trkpt>
      <trkpt lat="49.52525" lon="0.15443">
        <ele>32.8</ele>
        <time>2020-06-17T17:39:10Z</time>
      </trkpt>
      <trkpt lat="49.52528" lon="0.15437">
        <ele>32.7</ele>
        <time>2020-06-17T17:39:11Z</time>
      </trkpt>
      <trkpt lat="49.52531" lon="0.15432">
        <ele>32.7</ele>
        <time>2020-06-17T17:39:12Z</time>
      </trkpt>
      <trkpt lat="49.52535" lon="0.15425">
        <ele>32.6</ele>
        <time>2020-06-17T17:39:13Z</time>
      </trkpt>
      <trkpt lat="49.52538" lon="0.1542">
        <ele>32.5</ele>
        <time>2020-06-17T17:39:14Z</time>
      </trkpt>
      <trkpt lat="49.52542" lon="0.15412">
        <ele>32.4</ele>
        <time>2020-06-17T17:39:15Z</time>
      </trkpt>
      <trkpt lat="49.52546" lon="0.15406">
        <ele>32.3</ele>
        <time>2020-06-17T17:39:16Z</time>
      </trkpt>
      <trkpt lat="49.5255" lon="0.15401">
        <ele>32.3</ele>
        <time>2020-06-17T17:39:17Z</time>
      </trkpt>
      <trkpt lat="49.52554" lon="0.15395">
        <ele>32.3</ele>
        <time>2020-06-17T17:39:18Z</time>
      </trkpt>
      <trkpt lat="49.52559" lon="0.15389">
        <ele>32.2</ele>
        <time>2020-06-17T17:39:19Z</time>
      </trkpt>
      <trkpt lat="49.52563" lon="0.15384">
        <ele>32.2</ele>
        <time>2020-06-17T17:39:20Z</time>
      </trkpt>
      <trkpt lat="49.52566" lon="0.1538">
        <ele>32.1</ele>
        <time>2020-06-17T17:39:21Z</time>
      </trkpt>
      <trkpt lat="49.52569" lon="0.15374">
        <ele>32.1</ele>
        <time>2020-06-17T17:39:22Z</time>
      </trkpt>
      <trkpt lat="49.5257" lon="0.15369">
        <ele>32.1</ele>
        <time>2020-06-17T17:39:23Z</time>
      </trkpt>
      <trkpt lat="49.52569" lon="0.15364">
        <ele>32.1</ele>
        <time>2020-06-17T17:39:24Z</time>
      </trkpt>
      <trkpt lat="49.52569" lon="0.15362">
        <ele>32.1</ele>
        <time>2020-06-17T17:39:25Z</time>
      </trkpt>
      <trkpt lat="49.52568" lon="0.15357">
        <ele>32.1</ele>
        <time>2020-06-17T17:39:26Z</time>
      </trkpt>
      <trkpt lat="49.52566" lon="0.15352">
        <ele>32.1</ele>
        <time>2020-06-17T17:39:27Z</time>
      </trkpt>
      <trkpt lat="49.52565" lon="0.15345">
        <ele>31.8</ele>
        <time>2020-06-17T17:39:28Z</time>
      </trkpt>
      <trkpt lat="49.52564" lon="0.15339">
        <ele>31.7</ele>
        <time>2020-06-17T17:39:29Z</time>
      </trkpt>
      <trkpt lat="49.52563" lon="0.15335">
        <ele>31.6</ele>
        <time>2020-06-17T17:39:30Z</time>
      </trkpt>
      <trkpt lat="49.52563" lon="0.15329">
        <ele>31.5</ele>
        <time>2020-06-17T17:39:31Z</time>
      </trkpt>
      <trkpt lat="49.52565" lon="0.15323">
        <ele>31.5</ele>
        <time>2020-06-17T17:39:32Z</time>
      </trkpt>
      <trkpt lat="49.52567" lon="0.15321">
        <ele>31.4</ele>
        <time>2020-06-17T17:39:33Z</time>
      </trkpt>
      <trkpt lat="49.52569" lon="0.15316">
        <ele>31.3</ele>
        <time>2020-06-17T17:39:34Z</time>
      </trkpt>
      <trkpt lat="49.52571" lon="0.15311">
        <ele>31.3</ele>
        <time>2020-06-17T17:39:35Z</time>
      </trkpt>
      <trkpt lat="49.52573" lon="0.15306">
        <ele>31.2</ele>
        <time>2020-06-17T17:39:36Z</time>
      </trkpt>
      <trkpt lat="49.52576" lon="0.153">
        <ele>31.1</ele>
        <time>2020-06-17T17:39:37Z</time>
      </trkpt>
      <trkpt lat="49.52578" lon="0.15296">
        <ele>31.1</ele>
        <time>2020-06-17T17:39:38Z</time>
      </trkpt>
      <trkpt lat="49.52581" lon="0.1529">
        <ele>31</ele>
        <time>2020-06-17T17:39:39Z</time>
      </trkpt>
      <trkpt lat="49.52584" lon="0.15285">
        <ele>30.9</ele>
        <time>2020-06-17T17:39:40Z</time>
      </trkpt>
      <trkpt lat="49.52587" lon="0.15281">
        <ele>30.8</ele>
        <time>2020-06-17T17:39:41Z</time>
      </trkpt>
      <trkpt lat="49.5259" lon="0.15274">
        <ele>30.8</ele>
        <time>2020-06-17T17:39:42Z</time>
      </trkpt>
      <trkpt lat="49.52592" lon="0.1527">
        <ele>30.7</ele>
        <time>2020-06-17T17:39:43Z</time>
      </trkpt>
      <trkpt lat="49.52594" lon="0.15263">
        <ele>30.7</ele>
        <time>2020-06-17T17:39:44Z</time>
      </trkpt>
      <trkpt lat="49.52597" lon="0.15258">
        <ele>30.6</ele>
        <time>2020-06-17T17:39:45Z</time>
      </trkpt>
      <trkpt lat="49.52599" lon="0.15252">
        <ele>30.6</ele>
        <time>2020-06-17T17:39:46Z</time>
      </trkpt>
      <trkpt lat="49.52601" lon="0.15245">
        <ele>30.5</ele>
        <time>2020-06-17T17:39:47Z</time>
      </trkpt>
      <trkpt lat="49.52604" lon="0.1524">
        <ele>30.4</ele>
        <time>2020-06-17T17:39:48Z</time>
      </trkpt>
      <trkpt lat="49.52606" lon="0.15234">
        <ele>30.4</ele>
        <time>2020-06-17T17:39:49Z</time>
      </trkpt>
      <trkpt lat="49.52608" lon="0.15229">
        <ele>30.3</ele>
        <time>2020-06-17T17:39:50Z</time>
      </trkpt>
      <trkpt lat="49.52611" lon="0.15223">
        <ele>30.3</ele>
        <time>2020-06-17T17:39:51Z</time>
      </trkpt>
      <trkpt lat="49.52614" lon="0.15217">
        <ele>30.2</ele>
        <time>2020-06-17T17:39:52Z</time>
      </trkpt>
      <trkpt lat="49.52616" lon="0.1521">
        <ele>30.2</ele>
        <time>2020-06-17T17:39:53Z</time>
      </trkpt>
      <trkpt lat="49.52618" lon="0.15205">
        <ele>30.2</ele>
        <time>2020-06-17T17:39:54Z</time>
      </trkpt>
      <trkpt lat="49.5262" lon="0.15198">
        <ele>30.1</ele>
        <time>2020-06-17T17:39:55Z</time>
      </trkpt>
      <trkpt lat="49.52623" lon="0.15194">
        <ele>30.1</ele>
        <time>2020-06-17T17:39:56Z</time>
      </trkpt>
      <trkpt lat="49.52625" lon="0.15189">
        <ele>30.1</ele>
        <time>2020-06-17T17:39:57Z</time>
      </trkpt>
      <trkpt lat="49.52628" lon="0.15183">
        <ele>30.1</ele>
        <time>2020-06-17T17:39:58Z</time>
      </trkpt>
      <trkpt lat="49.5263" lon="0.15177">
        <ele>30.1</ele>
        <time>2020-06-17T17:39:59Z</time>
      </trkpt>
      <trkpt lat="49.52633" lon="0.15172">
        <ele>30.1</ele>
        <time>2020-06-17T17:40:00Z</time>
      </trkpt>
      <trkpt lat="49.52636" lon="0.15166">
        <ele>30.1</ele>
        <time>2020-06-17T17:40:01Z</time>
      </trkpt>
      <trkpt lat="49.52639" lon="0.15162">
        <ele>30</ele>
        <time>2020-06-17T17:40:02Z</time>
      </trkpt>
      <trkpt lat="49.52642" lon="0.15159">
        <ele>30</ele>
        <time>2020-06-17T17:40:03Z</time>
      </trkpt>
      <trkpt lat="49.52646" lon="0.15154">
        <ele>30</ele>
        <time>2020-06-17T17:40:04Z</time>
      </trkpt>
      <trkpt lat="49.52648" lon="0.1515">
        <ele>29.9</ele>
        <time>2020-06-17T17:40:05Z</time>
      </trkpt>
      <trkpt lat="49.5265" lon="0.15143">
        <ele>29.9</ele>
        <time>2020-06-17T17:40:06Z</time>
      </trkpt>
      <trkpt lat="49.52654" lon="0.15138">
        <ele>29.8</ele>
        <time>2020-06-17T17:40:07Z</time>
      </trkpt>
      <trkpt lat="49.52657" lon="0.15132">
        <ele>29.7</ele>
        <time>2020-06-17T17:40:08Z</time>
      </trkpt>
      <trkpt lat="49.52661" lon="0.15126">
        <ele>29.5</ele>
        <time>2020-06-17T17:40:09Z</time>
      </trkpt>
      <trkpt lat="49.52665" lon="0.15122">
        <ele>29.4</ele>
        <time>2020-06-17T17:40:10Z</time>
      </trkpt>
      <trkpt lat="49.52668" lon="0.15118">
        <ele>29.2</ele>
        <time>2020-06-17T17:40:11Z</time>
      </trkpt>
      <trkpt lat="49.52671" lon="0.15113">
        <ele>28.7</ele>
        <time>2020-06-17T17:40:12Z</time>
      </trkpt>
      <trkpt lat="49.52676" lon="0.15107">
        <ele>28.5</ele>
        <time>2020-06-17T17:40:13Z</time>
      </trkpt>
      <trkpt lat="49.5268" lon="0.151">
        <ele>28.2</ele>
        <time>2020-06-17T17:40:14Z</time>
      </trkpt>
      <trkpt lat="49.52684" lon="0.15095">
        <ele>28</ele>
        <time>2020-06-17T17:40:15Z</time>
      </trkpt>
      <trkpt lat="49.52689" lon="0.15087">
        <ele>27.6</ele>
        <time>2020-06-17T17:40:16Z</time>
      </trkpt>
      <trkpt lat="49.52694" lon="0.1508">
        <ele>27.3</ele>
        <time>2020-06-17T17:40:17Z</time>
      </trkpt>
      <trkpt lat="49.52699" lon="0.15072">
        <ele>27</ele>
        <time>2020-06-17T17:40:18Z</time>
      </trkpt>
      <trkpt lat="49.52703" lon="0.15064">
        <ele>26.7</ele>
        <time>2020-06-17T17:40:19Z</time>
      </trkpt>
      <trkpt lat="49.52708" lon="0.15058">
        <ele>26.4</ele>
        <time>2020-06-17T17:40:20Z</time>
      </trkpt>
      <trkpt lat="49.52712" lon="0.15052">
        <ele>26.1</ele>
        <time>2020-06-17T17:40:21Z</time>
      </trkpt>
      <trkpt lat="49.52717" lon="0.15044">
        <ele>25.8</ele>
        <time>2020-06-17T17:40:22Z</time>
      </trkpt>
      <trkpt lat="49.5272" lon="0.15038">
        <ele>25.6</ele>
        <time>2020-06-17T17:40:23Z</time>
      </trkpt>
      <trkpt lat="49.52725" lon="0.15031">
        <ele>25.5</ele>
        <time>2020-06-17T17:40:24Z</time>
      </trkpt>
      <trkpt lat="49.52729" lon="0.15025">
        <ele>25.3</ele>
        <time>2020-06-17T17:40:25Z</time>
      </trkpt>
      <trkpt lat="49.52732" lon="0.1502">
        <ele>25.2</ele>
        <time>2020-06-17T17:40:26Z</time>
      </trkpt>
      <trkpt lat="49.52734" lon="0.15016">
        <ele>25.1</ele>
        <time>2020-06-17T17:40:27Z</time>
      </trkpt>
      <trkpt lat="49.52737" lon="0.15014">
        <ele>25.1</ele>
        <time>2020-06-17T17:40:28Z</time>
      </trkpt>
      <trkpt lat="49.5274" lon="0.15011">
        <ele>25.1</ele>
        <time>2020-06-17T17:40:29Z</time>
      </trkpt>
      <trkpt lat="49.52741" lon="0.1501">
        <ele>25</ele>
        <time>2020-06-17T17:40:30Z</time>
      </trkpt>
      <trkpt lat="49.52744" lon="0.15007">
        <ele>25</ele>
        <time>2020-06-17T17:40:31Z</time>
      </trkpt>
      <trkpt lat="49.52745" lon="0.15007">
        <ele>25</ele>
        <time>2020-06-17T17:40:32Z</time>
      </trkpt>
      <trkpt lat="49.52749" lon="0.15003">
        <ele>25</ele>
        <time>2020-06-17T17:40:33Z</time>
      </trkpt>
      <trkpt lat="49.52753" lon="0.14999">
        <ele>25</ele>
        <time>2020-06-17T17:40:34Z</time>
      </trkpt>
      <trkpt lat="49.52754" lon="0.14994">
        <ele>25</ele>
        <time>2020-06-17T17:40:35Z</time>
      </trkpt>
      <trkpt lat="49.52757" lon="0.14989">
        <ele>25.1</ele>
        <time>2020-06-17T17:40:36Z</time>
      </trkpt>
      <trkpt lat="49.52758" lon="0.14987">
        <ele>25.1</ele>
        <time>2020-06-17T17:40:37Z</time>
      </trkpt>
      <trkpt lat="49.52761" lon="0.14984">
        <ele>25.1</ele>
        <time>2020-06-17T17:40:38Z</time>
      </trkpt>
      <trkpt lat="49.52764" lon="0.14982">
        <ele>25.2</ele>
        <time>2020-06-17T17:40:39Z</time>
      </trkpt>
      <trkpt lat="49.52767" lon="0.14981">
        <ele>25.2</ele>
        <time>2020-06-17T17:40:40Z</time>
      </trkpt>
      <trkpt lat="49.5277" lon="0.14978">
        <ele>25.3</ele>
        <time>2020-06-17T17:40:41Z</time>
      </trkpt>
      <trkpt lat="49.52774" lon="0.14975">
        <ele>25.4</ele>
        <time>2020-06-17T17:40:42Z</time>
      </trkpt>
      <trkpt lat="49.52777" lon="0.14972">
        <ele>25.5</ele>
        <time>2020-06-17T17:40:43Z</time>
      </trkpt>
      <trkpt lat="49.5278" lon="0.14969">
        <ele>25.6</ele>
        <time>2020-06-17T17:40:44Z</time>
      </trkpt>
      <trkpt lat="49.52783" lon="0.14967">
        <ele>25.7</ele>
        <time>2020-06-17T17:40:45Z</time>
      </trkpt>
      <trkpt lat="49.52787" lon="0.14965">
        <ele>25.9</ele>
        <time>2020-06-17T17:40:46Z</time>
      </trkpt>
      <trkpt lat="49.52791" lon="0.14964">
        <ele>26</ele>
        <time>2020-06-17T17:40:47Z</time>
      </trkpt>
      <trkpt lat="49.52794" lon="0.14962">
        <ele>26.2</ele>
        <time>2020-06-17T17:40:48Z</time>
      </trkpt>
      <trkpt lat="49.52797" lon="0.14958">
        <ele>26.3</ele>
        <time>2020-06-17T17:40:49Z</time>
      </trkpt>
      <trkpt lat="49.52801" lon="0.14954">
        <ele>26.5</ele>
        <time>2020-06-17T17:40:50Z</time>
      </trkpt>
      <trkpt lat="49.52803" lon="0.14953">
        <ele>26.6</ele>
        <time>2020-06-17T17:40:51Z</time>
      </trkpt>
      <trkpt lat="49.52806" lon="0.1495">
        <ele>26.8</ele>
        <time>2020-06-17T17:40:52Z</time>
      </trkpt>
      <trkpt lat="49.52809" lon="0.14948">
        <ele>26.9</ele>
        <time>2020-06-17T17:40:53Z</time>
      </trkpt>
      <trkpt lat="49.52812" lon="0.14944">
        <ele>27</ele>
        <time>2020-06-17T17:40:54Z</time>
      </trkpt>
      <trkpt lat="49.52813" lon="0.14943">
        <ele>27.1</ele>
        <time>2020-06-17T17:40:55Z</time>
      </trkpt>
      <trkpt lat="49.52814" lon="0.14938">
        <ele>27.4</ele>
        <time>2020-06-17T17:40:56Z</time>
      </trkpt>
      <trkpt lat="49.52817" lon="0.14935">
        <ele>27.6</ele>
        <time>2020-06-17T17:40:57Z</time>
      </trkpt>
      <trkpt lat="49.52819" lon="0.14933">
        <ele>27.7</ele>
        <time>2020-06-17T17:40:58Z</time>
      </trkpt>
      <trkpt lat="49.52821" lon="0.1493">
        <ele>27.9</ele>
        <time>2020-06-17T17:40:59Z</time>
      </trkpt>
      <trkpt lat="49.52823" lon="0.14927">
        <ele>28</ele>
        <time>2020-06-17T17:41:00Z</time>
      </trkpt>
      <trkpt lat="49.52826" lon="0.14923">
        <ele>28.1</ele>
        <time>2020-06-17T17:41:01Z</time>
      </trkpt>
      <trkpt lat="49.52829" lon="0.1492">
        <ele>28.3</ele>
        <time>2020-06-17T17:41:02Z</time>
      </trkpt>
      <trkpt lat="49.52831" lon="0.14916">
        <ele>28.4</ele>
        <time>2020-06-17T17:41:03Z</time>
      </trkpt>
      <trkpt lat="49.52833" lon="0.14913">
        <ele>28.5</ele>
        <time>2020-06-17T17:41:04Z</time>
      </trkpt>
      <trkpt lat="49.52835" lon="0.14908">
        <ele>28.6</ele>
        <time>2020-06-17T17:41:05Z</time>
      </trkpt>
      <trkpt lat="49.52839" lon="0.14904">
        <ele>28.8</ele>
        <time>2020-06-17T17:41:06Z</time>
      </trkpt>
      <trkpt lat="49.52843" lon="0.149">
        <ele>29</ele>
        <time>2020-06-17T17:41:07Z</time>
      </trkpt>
      <trkpt lat="49.52846" lon="0.14895">
        <ele>29.1</ele>
        <time>2020-06-17T17:41:08Z</time>
      </trkpt>
      <trkpt lat="49.5285" lon="0.14889">
        <ele>29.3</ele>
        <time>2020-06-17T17:41:09Z</time>
      </trkpt>
      <trkpt lat="49.52852" lon="0.14885">
        <ele>29.4</ele>
        <time>2020-06-17T17:41:10Z</time>
      </trkpt>
      <trkpt lat="49.52855" lon="0.14879">
        <ele>29.5</ele>
        <time>2020-06-17T17:41:11Z</time>
      </trkpt>
      <trkpt lat="49.52856" lon="0.14877">
        <ele>29.6</ele>
        <time>2020-06-17T17:41:12Z</time>
      </trkpt>
      <trkpt lat="49.52858" lon="0.14872">
        <ele>29.7</ele>
        <time>2020-06-17T17:41:13Z</time>
      </trkpt>
      <trkpt lat="49.5286" lon="0.14867">
        <ele>29.8</ele>
        <time>2020-06-17T17:41:14Z</time>
      </trkpt>
      <trkpt lat="49.52861" lon="0.14864">
        <ele>29.9</ele>
        <time>2020-06-17T17:41:15Z</time>
      </trkpt>
      <trkpt lat="49.52863" lon="0.1486">
        <ele>30</ele>
        <time>2020-06-17T17:41:16Z</time>
      </trkpt>
      <trkpt lat="49.52865" lon="0.14857">
        <ele>30.1</ele>
        <time>2020-06-17T17:41:17Z</time>
      </trkpt>
      <trkpt lat="49.52867" lon="0.14852">
        <ele>30.2</ele>
        <time>2020-06-17T17:41:18Z</time>
      </trkpt>
      <trkpt lat="49.5287" lon="0.14847">
        <ele>30.3</ele>
        <time>2020-06-17T17:41:19Z</time>
      </trkpt>
      <trkpt lat="49.52872" lon="0.14843">
        <ele>30.5</ele>
        <time>2020-06-17T17:41:20Z</time>
      </trkpt>
      <trkpt lat="49.52874" lon="0.14838">
        <ele>30.6</ele>
        <time>2020-06-17T17:41:21Z</time>
      </trkpt>
      <trkpt lat="49.52876" lon="0.14834">
        <ele>30.7</ele>
        <time>2020-06-17T17:41:22Z</time>
      </trkpt>
      <trkpt lat="49.52879" lon="0.14829">
        <ele>30.9</ele>
        <time>2020-06-17T17:41:23Z</time>
      </trkpt>
      <trkpt lat="49.52881" lon="0.14824">
        <ele>31.1</ele>
        <time>2020-06-17T17:41:24Z</time>
      </trkpt>
      <trkpt lat="49.52883" lon="0.1482">
        <ele>31.2</ele>
        <time>2020-06-17T17:41:25Z</time>
      </trkpt>
      <trkpt lat="49.52885" lon="0.14816">
        <ele>31.4</ele>
        <time>2020-06-17T17:41:26Z</time>
      </trkpt>
      <trkpt lat="49.52886" lon="0.14812">
        <ele>31.5</ele>
        <time>2020-06-17T17:41:27Z</time>
      </trkpt>
      <trkpt lat="49.52888" lon="0.14809">
        <ele>31.6</ele>
        <time>2020-06-17T17:41:28Z</time>
      </trkpt>
      <trkpt lat="49.5289" lon="0.14802">
        <ele>31.9</ele>
        <time>2020-06-17T17:41:29Z</time>
      </trkpt>
      <trkpt lat="49.52891" lon="0.14799">
        <ele>32</ele>
        <time>2020-06-17T17:41:30Z</time>
      </trkpt>
      <trkpt lat="49.52893" lon="0.14793">
        <ele>32.2</ele>
        <time>2020-06-17T17:41:31Z</time>
      </trkpt>
      <trkpt lat="49.52894" lon="0.14787">
        <ele>32.4</ele>
        <time>2020-06-17T17:41:32Z</time>
      </trkpt>
      <trkpt lat="49.52896" lon="0.14781">
        <ele>32.6</ele>
        <time>2020-06-17T17:41:33Z</time>
      </trkpt>
      <trkpt lat="49.52898" lon="0.14775">
        <ele>32.9</ele>
        <time>2020-06-17T17:41:34Z</time>
      </trkpt>
      <trkpt lat="49.52899" lon="0.14772">
        <ele>33</ele>
        <time>2020-06-17T17:41:35Z</time>
      </trkpt>
      <trkpt lat="49.529" lon="0.14767">
        <ele>33.2</ele>
        <time>2020-06-17T17:41:36Z</time>
      </trkpt>
      <trkpt lat="49.52902" lon="0.14762">
        <ele>33.4</ele>
        <time>2020-06-17T17:41:37Z</time>
      </trkpt>
      <trkpt lat="49.52903" lon="0.14756">
        <ele>33.6</ele>
        <time>2020-06-17T17:41:38Z</time>
      </trkpt>
      <trkpt lat="49.52905" lon="0.14751">
        <ele>33.8</ele>
        <time>2020-06-17T17:41:39Z</time>
      </trkpt>
      <trkpt lat="49.52906" lon="0.14745">
        <ele>34.1</ele>
        <time>2020-06-17T17:41:40Z</time>
      </trkpt>
      <trkpt lat="49.52907" lon="0.14741">
        <ele>34.2</ele>
        <time>2020-06-17T17:41:41Z</time>
      </trkpt>
      <trkpt lat="49.52908" lon="0.14736">
        <ele>34.4</ele>
        <time>2020-06-17T17:41:42Z</time>
      </trkpt>
      <trkpt lat="49.52909" lon="0.14731">
        <ele>34.6</ele>
        <time>2020-06-17T17:41:43Z</time>
      </trkpt>
      <trkpt lat="49.5291" lon="0.1473">
        <ele>34.7</ele>
        <time>2020-06-17T17:41:44Z</time>
      </trkpt>
      <trkpt lat="49.52911" lon="0.14725">
        <ele>34.9</ele>
        <time>2020-06-17T17:41:45Z</time>
      </trkpt>
      <trkpt lat="49.52912" lon="0.14723">
        <ele>35</ele>
        <time>2020-06-17T17:41:46Z</time>
      </trkpt>
      <trkpt lat="49.52913" lon="0.1472">
        <ele>35.2</ele>
        <time>2020-06-17T17:41:47Z</time>
      </trkpt>
      <trkpt lat="49.52916" lon="0.14715">
        <ele>35.4</ele>
        <time>2020-06-17T17:41:48Z</time>
      </trkpt>
      <trkpt lat="49.52917" lon="0.14711">
        <ele>35.6</ele>
        <time>2020-06-17T17:41:49Z</time>
      </trkpt>
      <trkpt lat="49.52919" lon="0.14705">
        <ele>35.9</ele>
        <time>2020-06-17T17:41:50Z</time>
      </trkpt>
      <trkpt lat="49.5292" lon="0.147">
        <ele>36.1</ele>
        <time>2020-06-17T17:41:51Z</time>
      </trkpt>
      <trkpt lat="49.52922" lon="0.14693">
        <ele>36.4</ele>
        <time>2020-06-17T17:41:52Z</time>
      </trkpt>
      <trkpt lat="49.52923" lon="0.1469">
        <ele>36.4</ele>
        <time>2020-06-17T17:41:53Z</time>
      </trkpt>
      <trkpt lat="49.52923" lon="0.14686">
        <ele>36.6</ele>
        <time>2020-06-17T17:41:54Z</time>
      </trkpt>
      <trkpt lat="49.52925" lon="0.14681">
        <ele>36.8</ele>
        <time>2020-06-17T17:41:55Z</time>
      </trkpt>
      <trkpt lat="49.52926" lon="0.14676">
        <ele>36.9</ele>
        <time>2020-06-17T17:41:56Z</time>
      </trkpt>
      <trkpt lat="49.52928" lon="0.14671">
        <ele>37</ele>
        <time>2020-06-17T17:41:57Z</time>
      </trkpt>
      <trkpt lat="49.5293" lon="0.14667">
        <ele>37.1</ele>
        <time>2020-06-17T17:41:58Z</time>
      </trkpt>
      <trkpt lat="49.52931" lon="0.14663">
        <ele>37.2</ele>
        <time>2020-06-17T17:41:59Z</time>
      </trkpt>
      <trkpt lat="49.5293" lon="0.14658">
        <ele>37.3</ele>
        <time>2020-06-17T17:42:00Z</time>
      </trkpt>
      <trkpt lat="49.52932" lon="0.14653">
        <ele>37.5</ele>
        <time>2020-06-17T17:42:01Z</time>
      </trkpt>
      <trkpt lat="49.52933" lon="0.14647">
        <ele>37.6</ele>
        <time>2020-06-17T17:42:02Z</time>
      </trkpt>
      <trkpt lat="49.52934" lon="0.14641">
        <ele>37.7</ele>
        <time>2020-06-17T17:42:03Z</time>
      </trkpt>
      <trkpt lat="49.52934" lon="0.14636">
        <ele>37.8</ele>
        <time>2020-06-17T17:42:04Z</time>
      </trkpt>
      <trkpt lat="49.52935" lon="0.14634">
        <ele>37.8</ele>
        <time>2020-06-17T17:42:05Z</time>
      </trkpt>
      <trkpt lat="49.52935" lon="0.14629">
        <ele>37.9</ele>
        <time>2020-06-17T17:42:06Z</time>
      </trkpt>
      <trkpt lat="49.52936" lon="0.14622">
        <ele>37.9</ele>
        <time>2020-06-17T17:42:07Z</time>
      </trkpt>
      <trkpt lat="49.52935" lon="0.14617">
        <ele>38</ele>
        <time>2020-06-17T17:42:08Z</time>
      </trkpt>
      <trkpt lat="49.52936" lon="0.14612">
        <ele>38</ele>
        <time>2020-06-17T17:42:09Z</time>
      </trkpt>
      <trkpt lat="49.52936" lon="0.14607">
        <ele>38.1</ele>
        <time>2020-06-17T17:42:10Z</time>
      </trkpt>
      <trkpt lat="49.52937" lon="0.14602">
        <ele>38.1</ele>
        <time>2020-06-17T17:42:11Z</time>
      </trkpt>
      <trkpt lat="49.52937" lon="0.14597">
        <ele>38.1</ele>
        <time>2020-06-17T17:42:12Z</time>
      </trkpt>
      <trkpt lat="49.52937" lon="0.14591">
        <ele>38.1</ele>
        <time>2020-06-17T17:42:13Z</time>
      </trkpt>
      <trkpt lat="49.52936" lon="0.14585">
        <ele>38.1</ele>
        <time>2020-06-17T17:42:14Z</time>
      </trkpt>
      <trkpt lat="49.52936" lon="0.1458">
        <ele>38.1</ele>
        <time>2020-06-17T17:42:15Z</time>
      </trkpt>
      <trkpt lat="49.52936" lon="0.14575">
        <ele>38.2</ele>
        <time>2020-06-17T17:42:16Z</time>
      </trkpt>
      <trkpt lat="49.52935" lon="0.1457">
        <ele>38.2</ele>
        <time>2020-06-17T17:42:17Z</time>
      </trkpt>
      <trkpt lat="49.52935" lon="0.14565">
        <ele>38.1</ele>
        <time>2020-06-17T17:42:18Z</time>
      </trkpt>
      <trkpt lat="49.52935" lon="0.1456">
        <ele>38.1</ele>
        <time>2020-06-17T17:42:19Z</time>
      </trkpt>
      <trkpt lat="49.52936" lon="0.14555">
        <ele>38.1</ele>
        <time>2020-06-17T17:42:20Z</time>
      </trkpt>
      <trkpt lat="49.52937" lon="0.1455">
        <ele>38.1</ele>
        <time>2020-06-17T17:42:21Z</time>
      </trkpt>
      <trkpt lat="49.52937" lon="0.14543">
        <ele>38</ele>
        <time>2020-06-17T17:42:22Z</time>
      </trkpt>
      <trkpt lat="49.52936" lon="0.14537">
        <ele>37.9</ele>
        <time>2020-06-17T17:42:23Z</time>
      </trkpt>
      <trkpt lat="49.52936" lon="0.1453">
        <ele>37.9</ele>
        <time>2020-06-17T17:42:24Z</time>
      </trkpt>
      <trkpt lat="49.52936" lon="0.14523">
        <ele>37.8</ele>
        <time>2020-06-17T17:42:25Z</time>
      </trkpt>
      <trkpt lat="49.52936" lon="0.14515">
        <ele>37.7</ele>
        <time>2020-06-17T17:42:26Z</time>
      </trkpt>
      <trkpt lat="49.52936" lon="0.14509">
        <ele>37.6</ele>
        <time>2020-06-17T17:42:27Z</time>
      </trkpt>
      <trkpt lat="49.52936" lon="0.14503">
        <ele>37.5</ele>
        <time>2020-06-17T17:42:28Z</time>
      </trkpt>
      <trkpt lat="49.52936" lon="0.14496">
        <ele>37.5</ele>
        <time>2020-06-17T17:42:29Z</time>
      </trkpt>
      <trkpt lat="49.52936" lon="0.14489">
        <ele>37.3</ele>
        <time>2020-06-17T17:42:30Z</time>
      </trkpt>
      <trkpt lat="49.52936" lon="0.14483">
        <ele>37.2</ele>
        <time>2020-06-17T17:42:31Z</time>
      </trkpt>
      <trkpt lat="49.52936" lon="0.14476">
        <ele>37</ele>
        <time>2020-06-17T17:42:32Z</time>
      </trkpt>
      <trkpt lat="49.52936" lon="0.14468">
        <ele>36.9</ele>
        <time>2020-06-17T17:42:33Z</time>
      </trkpt>
      <trkpt lat="49.52935" lon="0.14461">
        <ele>36.7</ele>
        <time>2020-06-17T17:42:34Z</time>
      </trkpt>
      <trkpt lat="49.52935" lon="0.14454">
        <ele>36.5</ele>
        <time>2020-06-17T17:42:35Z</time>
      </trkpt>
      <trkpt lat="49.52935" lon="0.14449">
        <ele>36.3</ele>
        <time>2020-06-17T17:42:36Z</time>
      </trkpt>
      <trkpt lat="49.52936" lon="0.14442">
        <ele>36.1</ele>
        <time>2020-06-17T17:42:37Z</time>
      </trkpt>
      <trkpt lat="49.52936" lon="0.14435">
        <ele>35.9</ele>
        <time>2020-06-17T17:42:38Z</time>
      </trkpt>
      <trkpt lat="49.52937" lon="0.14428">
        <ele>35.6</ele>
        <time>2020-06-17T17:42:39Z</time>
      </trkpt>
      <trkpt lat="49.52938" lon="0.1442">
        <ele>35.3</ele>
        <time>2020-06-17T17:42:40Z</time>
      </trkpt>
      <trkpt lat="49.52939" lon="0.14416">
        <ele>35.2</ele>
        <time>2020-06-17T17:42:41Z</time>
      </trkpt>
      <trkpt lat="49.5294" lon="0.14411">
        <ele>35</ele>
        <time>2020-06-17T17:42:42Z</time>
      </trkpt>
      <trkpt lat="49.52941" lon="0.14407">
        <ele>34.8</ele>
        <time>2020-06-17T17:42:43Z</time>
      </trkpt>
      <trkpt lat="49.52943" lon="0.14402">
        <ele>34.6</ele>
        <time>2020-06-17T17:42:44Z</time>
      </trkpt>
      <trkpt lat="49.52944" lon="0.144">
        <ele>34.5</ele>
        <time>2020-06-17T17:42:45Z</time>
      </trkpt>
      <trkpt lat="49.52946" lon="0.14395">
        <ele>34.3</ele>
        <time>2020-06-17T17:42:46Z</time>
      </trkpt>
      <trkpt lat="49.52949" lon="0.14391">
        <ele>34.1</ele>
        <time>2020-06-17T17:42:47Z</time>
      </trkpt>
      <trkpt lat="49.5295" lon="0.1439">
        <ele>34</ele>
        <time>2020-06-17T17:42:48Z</time>
      </trkpt>
      <trkpt lat="49.52952" lon="0.14386">
        <ele>33.9</ele>
        <time>2020-06-17T17:42:49Z</time>
      </trkpt>
      <trkpt lat="49.52955" lon="0.14382">
        <ele>33.7</ele>
        <time>2020-06-17T17:42:50Z</time>
      </trkpt>
      <trkpt lat="49.52958" lon="0.14378">
        <ele>33.6</ele>
        <time>2020-06-17T17:42:51Z</time>
      </trkpt>
      <trkpt lat="49.52962" lon="0.14376">
        <ele>33.5</ele>
        <time>2020-06-17T17:42:52Z</time>
      </trkpt>
      <trkpt lat="49.52965" lon="0.14376">
        <ele>33.4</ele>
        <time>2020-06-17T17:42:53Z</time>
      </trkpt>
      <trkpt lat="49.52969" lon="0.14373">
        <ele>33.2</ele>
        <time>2020-06-17T17:42:54Z</time>
      </trkpt>
      <trkpt lat="49.52973" lon="0.14374">
        <ele>33.1</ele>
        <time>2020-06-17T17:42:55Z</time>
      </trkpt>
      <trkpt lat="49.52977" lon="0.14375">
        <ele>32.9</ele>
        <time>2020-06-17T17:42:56Z</time>
      </trkpt>
      <trkpt lat="49.52981" lon="0.14377">
        <ele>33</ele>
        <time>2020-06-17T17:42:57Z</time>
      </trkpt>
      <trkpt lat="49.52986" lon="0.1438">
        <ele>33</ele>
        <time>2020-06-17T17:42:58Z</time>
      </trkpt>
      <trkpt lat="49.52989" lon="0.14382">
        <ele>33</ele>
        <time>2020-06-17T17:42:59Z</time>
      </trkpt>
      <trkpt lat="49.52994" lon="0.14383">
        <ele>32.8</ele>
        <time>2020-06-17T17:43:00Z</time>
      </trkpt>
      <trkpt lat="49.52999" lon="0.14383">
        <ele>32.7</ele>
        <time>2020-06-17T17:43:01Z</time>
      </trkpt>
      <trkpt lat="49.53003" lon="0.14382">
        <ele>32.6</ele>
        <time>2020-06-17T17:43:02Z</time>
      </trkpt>
      <trkpt lat="49.53007" lon="0.14379">
        <ele>32.5</ele>
        <time>2020-06-17T17:43:03Z</time>
      </trkpt>
      <trkpt lat="49.53012" lon="0.14376">
        <ele>32.4</ele>
        <time>2020-06-17T17:43:04Z</time>
      </trkpt>
      <trkpt lat="49.53016" lon="0.14374">
        <ele>32.3</ele>
        <time>2020-06-17T17:43:05Z</time>
      </trkpt>
      <trkpt lat="49.5302" lon="0.14376">
        <ele>32.3</ele>
        <time>2020-06-17T17:43:06Z</time>
      </trkpt>
      <trkpt lat="49.53025" lon="0.14377">
        <ele>32.2</ele>
        <time>2020-06-17T17:43:07Z</time>
      </trkpt>
      <trkpt lat="49.53029" lon="0.14379">
        <ele>32.1</ele>
        <time>2020-06-17T17:43:08Z</time>
      </trkpt>
      <trkpt lat="49.53034" lon="0.14382">
        <ele>32</ele>
        <time>2020-06-17T17:43:09Z</time>
      </trkpt>
      <trkpt lat="49.53039" lon="0.14385">
        <ele>32</ele>
        <time>2020-06-17T17:43:10Z</time>
      </trkpt>
      <trkpt lat="49.53044" lon="0.14388">
        <ele>32</ele>
        <time>2020-06-17T17:43:11Z</time>
      </trkpt>
      <trkpt lat="49.53049" lon="0.14391">
        <ele>32.1</ele>
        <time>2020-06-17T17:43:12Z</time>
      </trkpt>
      <trkpt lat="49.53054" lon="0.14394">
        <ele>32.2</ele>
        <time>2020-06-17T17:43:13Z</time>
      </trkpt>
      <trkpt lat="49.53058" lon="0.14396">
        <ele>32.3</ele>
        <time>2020-06-17T17:43:14Z</time>
      </trkpt>
      <trkpt lat="49.53062" lon="0.14398">
        <ele>32.5</ele>
        <time>2020-06-17T17:43:15Z</time>
      </trkpt>
      <trkpt lat="49.53066" lon="0.144">
        <ele>32.6</ele>
        <time>2020-06-17T17:43:16Z</time>
      </trkpt>
      <trkpt lat="49.5307" lon="0.14402">
        <ele>32.7</ele>
        <time>2020-06-17T17:43:17Z</time>
      </trkpt>
      <trkpt lat="49.53073" lon="0.14405">
        <ele>32.9</ele>
        <time>2020-06-17T17:43:18Z</time>
      </trkpt>
      <trkpt lat="49.53076" lon="0.14407">
        <ele>33</ele>
        <time>2020-06-17T17:43:19Z</time>
      </trkpt>
      <trkpt lat="49.53079" lon="0.14411">
        <ele>33.1</ele>
        <time>2020-06-17T17:43:20Z</time>
      </trkpt>
      <trkpt lat="49.53082" lon="0.14414">
        <ele>33.2</ele>
        <time>2020-06-17T17:43:21Z</time>
      </trkpt>
      <trkpt lat="49.53084" lon="0.14419">
        <ele>33.4</ele>
        <time>2020-06-17T17:43:22Z</time>
      </trkpt>
      <trkpt lat="49.53086" lon="0.14425">
        <ele>33.5</ele>
        <time>2020-06-17T17:43:23Z</time>
      </trkpt>
      <trkpt lat="49.53088" lon="0.14432">
        <ele>33.6</ele>
        <time>2020-06-17T17:43:24Z</time>
      </trkpt>
      <trkpt lat="49.5309" lon="0.14438">
        <ele>33.7</ele>
        <time>2020-06-17T17:43:25Z</time>
      </trkpt>
      <trkpt lat="49.53092" lon="0.14443">
        <ele>33.7</ele>
        <time>2020-06-17T17:43:26Z</time>
      </trkpt>
      <trkpt lat="49.53096" lon="0.14448">
        <ele>33.8</ele>
        <time>2020-06-17T17:43:27Z</time>
      </trkpt>
      <trkpt lat="49.53099" lon="0.14451">
        <ele>33.8</ele>
        <time>2020-06-17T17:43:28Z</time>
      </trkpt>
      <trkpt lat="49.53102" lon="0.14454">
        <ele>33.9</ele>
        <time>2020-06-17T17:43:29Z</time>
      </trkpt>
      <trkpt lat="49.53107" lon="0.14456">
        <ele>34</ele>
        <time>2020-06-17T17:43:30Z</time>
      </trkpt>
      <trkpt lat="49.53112" lon="0.14457">
        <ele>34.3</ele>
        <time>2020-06-17T17:43:31Z</time>
      </trkpt>
      <trkpt lat="49.53115" lon="0.14459">
        <ele>34.3</ele>
        <time>2020-06-17T17:43:32Z</time>
      </trkpt>
      <trkpt lat="49.53119" lon="0.14463">
        <ele>34.3</ele>
        <time>2020-06-17T17:43:33Z</time>
      </trkpt>
      <trkpt lat="49.53124" lon="0.14469">
        <ele>34.3</ele>
        <time>2020-06-17T17:43:34Z</time>
      </trkpt>
      <trkpt lat="49.53127" lon="0.14474">
        <ele>34.4</ele>
        <time>2020-06-17T17:43:35Z</time>
      </trkpt>
      <trkpt lat="49.5313" lon="0.14481">
        <ele>34.6</ele>
        <time>2020-06-17T17:43:36Z</time>
      </trkpt>
      <trkpt lat="49.53133" lon="0.14488">
        <ele>34.8</ele>
        <time>2020-06-17T17:43:37Z</time>
      </trkpt>
      <trkpt lat="49.53135" lon="0.14494">
        <ele>35</ele>
        <time>2020-06-17T17:43:38Z</time>
      </trkpt>
      <trkpt lat="49.53138" lon="0.14499">
        <ele>35.2</ele>
        <time>2020-06-17T17:43:39Z</time>
      </trkpt>
      <trkpt lat="49.53141" lon="0.14505">
        <ele>35.4</ele>
        <time>2020-06-17T17:43:40Z</time>
      </trkpt>
      <trkpt lat="49.53145" lon="0.14511">
        <ele>35.7</ele>
        <time>2020-06-17T17:43:41Z</time>
      </trkpt>
      <trkpt lat="49.53148" lon="0.14516">
        <ele>35.9</ele>
        <time>2020-06-17T17:43:42Z</time>
      </trkpt>
      <trkpt lat="49.53153" lon="0.1452">
        <ele>36.1</ele>
        <time>2020-06-17T17:43:43Z</time>
      </trkpt>
      <trkpt lat="49.53156" lon="0.14524">
        <ele>36.3</ele>
        <time>2020-06-17T17:43:44Z</time>
      </trkpt>
      <trkpt lat="49.5316" lon="0.14527">
        <ele>36.5</ele>
        <time>2020-06-17T17:43:45Z</time>
      </trkpt>
      <trkpt lat="49.53163" lon="0.1453">
        <ele>36.7</ele>
        <time>2020-06-17T17:43:46Z</time>
      </trkpt>
      <trkpt lat="49.53167" lon="0.14531">
        <ele>36.9</ele>
        <time>2020-06-17T17:43:47Z</time>
      </trkpt>
      <trkpt lat="49.53171" lon="0.14532">
        <ele>37.1</ele>
        <time>2020-06-17T17:43:48Z</time>
      </trkpt>
      <trkpt lat="49.53174" lon="0.14533">
        <ele>37.2</ele>
        <time>2020-06-17T17:43:49Z</time>
      </trkpt>
      <trkpt lat="49.53179" lon="0.14534">
        <ele>37.4</ele>
        <time>2020-06-17T17:43:50Z</time>
      </trkpt>
      <trkpt lat="49.53182" lon="0.14537">
        <ele>37.6</ele>
        <time>2020-06-17T17:43:51Z</time>
      </trkpt>
      <trkpt lat="49.53186" lon="0.14538">
        <ele>37.7</ele>
        <time>2020-06-17T17:43:52Z</time>
      </trkpt>
      <trkpt lat="49.53187" lon="0.14538">
        <ele>37.7</ele>
        <time>2020-06-17T17:43:53Z</time>
      </trkpt>
      <trkpt lat="49.5319" lon="0.14539">
        <ele>37.9</ele>
        <time>2020-06-17T17:43:54Z</time>
      </trkpt>
      <trkpt lat="49.53194" lon="0.14541">
        <ele>38</ele>
        <time>2020-06-17T17:43:55Z</time>
      </trkpt>
      <trkpt lat="49.53199" lon="0.14543">
        <ele>38.2</ele>
        <time>2020-06-17T17:43:56Z</time>
      </trkpt>
      <trkpt lat="49.53203" lon="0.14545">
        <ele>38.3</ele>
        <time>2020-06-17T17:43:57Z</time>
      </trkpt>
      <trkpt lat="49.53207" lon="0.14547">
        <ele>38.5</ele>
        <time>2020-06-17T17:43:58Z</time>
      </trkpt>
      <trkpt lat="49.53212" lon="0.1455">
        <ele>38.6</ele>
        <time>2020-06-17T17:43:59Z</time>
      </trkpt>
      <trkpt lat="49.53217" lon="0.14553">
        <ele>38.8</ele>
        <time>2020-06-17T17:44:00Z</time>
      </trkpt>
      <trkpt lat="49.53221" lon="0.14556">
        <ele>38.9</ele>
        <time>2020-06-17T17:44:01Z</time>
      </trkpt>
      <trkpt lat="49.53226" lon="0.14559">
        <ele>39.1</ele>
        <time>2020-06-17T17:44:02Z</time>
      </trkpt>
      <trkpt lat="49.53231" lon="0.1456">
        <ele>39.2</ele>
        <time>2020-06-17T17:44:03Z</time>
      </trkpt>
      <trkpt lat="49.53235" lon="0.14563">
        <ele>39.4</ele>
        <time>2020-06-17T17:44:04Z</time>
      </trkpt>
      <trkpt lat="49.53241" lon="0.14565">
        <ele>39.5</ele>
        <time>2020-06-17T17:44:05Z</time>
      </trkpt>
      <trkpt lat="49.53244" lon="0.14568">
        <ele>39.6</ele>
        <time>2020-06-17T17:44:06Z</time>
      </trkpt>
      <trkpt lat="49.53248" lon="0.14569">
        <ele>39.7</ele>
        <time>2020-06-17T17:44:07Z</time>
      </trkpt>
      <trkpt lat="49.53252" lon="0.14571">
        <ele>39.8</ele>
        <time>2020-06-17T17:44:08Z</time>
      </trkpt>
      <trkpt lat="49.53257" lon="0.14573">
        <ele>40</ele>
        <time>2020-06-17T17:44:09Z</time>
      </trkpt>
      <trkpt lat="49.5326" lon="0.14574">
        <ele>40.1</ele>
        <time>2020-06-17T17:44:10Z</time>
      </trkpt>
      <trkpt lat="49.53264" lon="0.14576">
        <ele>40.1</ele>
        <time>2020-06-17T17:44:11Z</time>
      </trkpt>
      <trkpt lat="49.53269" lon="0.14579">
        <ele>40.2</ele>
        <time>2020-06-17T17:44:12Z</time>
      </trkpt>
      <trkpt lat="49.53273" lon="0.14581">
        <ele>40.2</ele>
        <time>2020-06-17T17:44:13Z</time>
      </trkpt>
      <trkpt lat="49.53277" lon="0.14583">
        <ele>40.3</ele>
        <time>2020-06-17T17:44:14Z</time>
      </trkpt>
      <trkpt lat="49.53282" lon="0.14587">
        <ele>40.4</ele>
        <time>2020-06-17T17:44:15Z</time>
      </trkpt>
      <trkpt lat="49.53286" lon="0.14589">
        <ele>40.5</ele>
        <time>2020-06-17T17:44:16Z</time>
      </trkpt>
      <trkpt lat="49.53289" lon="0.14591">
        <ele>40.6</ele>
        <time>2020-06-17T17:44:17Z</time>
      </trkpt>
      <trkpt lat="49.53293" lon="0.14594">
        <ele>40.6</ele>
        <time>2020-06-17T17:44:18Z</time>
      </trkpt>
      <trkpt lat="49.53298" lon="0.14596">
        <ele>40.7</ele>
        <time>2020-06-17T17:44:19Z</time>
      </trkpt>
      <trkpt lat="49.53302" lon="0.14598">
        <ele>40.7</ele>
        <time>2020-06-17T17:44:20Z</time>
      </trkpt>
      <trkpt lat="49.53306" lon="0.14601">
        <ele>40.8</ele>
        <time>2020-06-17T17:44:21Z</time>
      </trkpt>
      <trkpt lat="49.5331" lon="0.14603">
        <ele>40.8</ele>
        <time>2020-06-17T17:44:22Z</time>
      </trkpt>
      <trkpt lat="49.53316" lon="0.14604">
        <ele>40.9</ele>
        <time>2020-06-17T17:44:23Z</time>
      </trkpt>
      <trkpt lat="49.53322" lon="0.14607">
        <ele>40.9</ele>
        <time>2020-06-17T17:44:24Z</time>
      </trkpt>
      <trkpt lat="49.53326" lon="0.1461">
        <ele>40.9</ele>
        <time>2020-06-17T17:44:25Z</time>
      </trkpt>
      <trkpt lat="49.53329" lon="0.14612">
        <ele>41</ele>
        <time>2020-06-17T17:44:26Z</time>
      </trkpt>
      <trkpt lat="49.53334" lon="0.14615">
        <ele>41</ele>
        <time>2020-06-17T17:44:27Z</time>
      </trkpt>
      <trkpt lat="49.53338" lon="0.14617">
        <ele>41</ele>
        <time>2020-06-17T17:44:28Z</time>
      </trkpt>
      <trkpt lat="49.53343" lon="0.14618">
        <ele>41</ele>
        <time>2020-06-17T17:44:29Z</time>
      </trkpt>
      <trkpt lat="49.53348" lon="0.1462">
        <ele>41</ele>
        <time>2020-06-17T17:44:30Z</time>
      </trkpt>
      <trkpt lat="49.53352" lon="0.14621">
        <ele>41</ele>
        <time>2020-06-17T17:44:31Z</time>
      </trkpt>
      <trkpt lat="49.53357" lon="0.14622">
        <ele>41</ele>
        <time>2020-06-17T17:44:32Z</time>
      </trkpt>
      <trkpt lat="49.53361" lon="0.14624">
        <ele>41</ele>
        <time>2020-06-17T17:44:33Z</time>
      </trkpt>
      <trkpt lat="49.53365" lon="0.14625">
        <ele>41</ele>
        <time>2020-06-17T17:44:34Z</time>
      </trkpt>
      <trkpt lat="49.53368" lon="0.14625">
        <ele>41</ele>
        <time>2020-06-17T17:44:35Z</time>
      </trkpt>
      <trkpt lat="49.53372" lon="0.14626">
        <ele>40.9</ele>
        <time>2020-06-17T17:44:36Z</time>
      </trkpt>
      <trkpt lat="49.53376" lon="0.14628">
        <ele>40.9</ele>
        <time>2020-06-17T17:44:37Z</time>
      </trkpt>
      <trkpt lat="49.53381" lon="0.14631">
        <ele>40.9</ele>
        <time>2020-06-17T17:44:38Z</time>
      </trkpt>
      <trkpt lat="49.53387" lon="0.14632">
        <ele>40.8</ele>
        <time>2020-06-17T17:44:39Z</time>
      </trkpt>
      <trkpt lat="49.53392" lon="0.14634">
        <ele>40.7</ele>
        <time>2020-06-17T17:44:40Z</time>
      </trkpt>
      <trkpt lat="49.53396" lon="0.14635">
        <ele>40.7</ele>
        <time>2020-06-17T17:44:41Z</time>
      </trkpt>
      <trkpt lat="49.53401" lon="0.14636">
        <ele>40.6</ele>
        <time>2020-06-17T17:44:42Z</time>
      </trkpt>
      <trkpt lat="49.53406" lon="0.14637">
        <ele>40.5</ele>
        <time>2020-06-17T17:44:43Z</time>
      </trkpt>
      <trkpt lat="49.53411" lon="0.14638">
        <ele>40.4</ele>
        <time>2020-06-17T17:44:44Z</time>
      </trkpt>
      <trkpt lat="49.53417" lon="0.14641">
        <ele>40.3</ele>
        <time>2020-06-17T17:44:45Z</time>
      </trkpt>
      <trkpt lat="49.53423" lon="0.14642">
        <ele>40.2</ele>
        <time>2020-06-17T17:44:46Z</time>
      </trkpt>
      <trkpt lat="49.53429" lon="0.14642">
        <ele>40.1</ele>
        <time>2020-06-17T17:44:47Z</time>
      </trkpt>
      <trkpt lat="49.53435" lon="0.14643">
        <ele>40</ele>
        <time>2020-06-17T17:44:48Z</time>
      </trkpt>
      <trkpt lat="49.5344" lon="0.14644">
        <ele>39.9</ele>
        <time>2020-06-17T17:44:49Z</time>
      </trkpt>
      <trkpt lat="49.53446" lon="0.14645">
        <ele>39.8</ele>
        <time>2020-06-17T17:44:50Z</time>
      </trkpt>
      <trkpt lat="49.53453" lon="0.14646">
        <ele>39.8</ele>
        <time>2020-06-17T17:44:51Z</time>
      </trkpt>
      <trkpt lat="49.53458" lon="0.14647">
        <ele>39.8</ele>
        <time>2020-06-17T17:44:52Z</time>
      </trkpt>
      <trkpt lat="49.53462" lon="0.14648">
        <ele>39.8</ele>
        <time>2020-06-17T17:44:53Z</time>
      </trkpt>
      <trkpt lat="49.53467" lon="0.14649">
        <ele>39.8</ele>
        <time>2020-06-17T17:44:54Z</time>
      </trkpt>
      <trkpt lat="49.53471" lon="0.1465">
        <ele>39.8</ele>
        <time>2020-06-17T17:44:55Z</time>
      </trkpt>
      <trkpt lat="49.53474" lon="0.14652">
        <ele>39.9</ele>
        <time>2020-06-17T17:44:56Z</time>
      </trkpt>
      <trkpt lat="49.5348" lon="0.14654">
        <ele>39.9</ele>
        <time>2020-06-17T17:44:57Z</time>
      </trkpt>
      <trkpt lat="49.53483" lon="0.14655">
        <ele>39.9</ele>
        <time>2020-06-17T17:44:58Z</time>
      </trkpt>
      <trkpt lat="49.53489" lon="0.14656">
        <ele>40</ele>
        <time>2020-06-17T17:44:59Z</time>
      </trkpt>
      <trkpt lat="49.53494" lon="0.14656">
        <ele>40</ele>
        <time>2020-06-17T17:45:00Z</time>
      </trkpt>
      <trkpt lat="49.53499" lon="0.14658">
        <ele>40</ele>
        <time>2020-06-17T17:45:01Z</time>
      </trkpt>
      <trkpt lat="49.53504" lon="0.14658">
        <ele>40.1</ele>
        <time>2020-06-17T17:45:02Z</time>
      </trkpt>
      <trkpt lat="49.53509" lon="0.14658">
        <ele>40.1</ele>
        <time>2020-06-17T17:45:03Z</time>
      </trkpt>
      <trkpt lat="49.53513" lon="0.14658">
        <ele>40.1</ele>
        <time>2020-06-17T17:45:04Z</time>
      </trkpt>
      <trkpt lat="49.53518" lon="0.14659">
        <ele>40.2</ele>
        <time>2020-06-17T17:45:05Z</time>
      </trkpt>
      <trkpt lat="49.53522" lon="0.14658">
        <ele>40.2</ele>
        <time>2020-06-17T17:45:06Z</time>
      </trkpt>
      <trkpt lat="49.53526" lon="0.14658">
        <ele>40.2</ele>
        <time>2020-06-17T17:45:07Z</time>
      </trkpt>
      <trkpt lat="49.53531" lon="0.14658">
        <ele>40.2</ele>
        <time>2020-06-17T17:45:08Z</time>
      </trkpt>
      <trkpt lat="49.53535" lon="0.14657">
        <ele>40.3</ele>
        <time>2020-06-17T17:45:09Z</time>
      </trkpt>
      <trkpt lat="49.53541" lon="0.14658">
        <ele>40.3</ele>
        <time>2020-06-17T17:45:10Z</time>
      </trkpt>
      <trkpt lat="49.53545" lon="0.14656">
        <ele>40.3</ele>
        <time>2020-06-17T17:45:11Z</time>
      </trkpt>
      <trkpt lat="49.53549" lon="0.14655">
        <ele>40.3</ele>
        <time>2020-06-17T17:45:12Z</time>
      </trkpt>
      <trkpt lat="49.53554" lon="0.14654">
        <ele>40.2</ele>
        <time>2020-06-17T17:45:13Z</time>
      </trkpt>
      <trkpt lat="49.53557" lon="0.14653">
        <ele>40.2</ele>
        <time>2020-06-17T17:45:14Z</time>
      </trkpt>
      <trkpt lat="49.53562" lon="0.14652">
        <ele>40.1</ele>
        <time>2020-06-17T17:45:15Z</time>
      </trkpt>
      <trkpt lat="49.53567" lon="0.14651">
        <ele>40</ele>
        <time>2020-06-17T17:45:16Z</time>
      </trkpt>
      <trkpt lat="49.53572" lon="0.1465">
        <ele>40</ele>
        <time>2020-06-17T17:45:17Z</time>
      </trkpt>
      <trkpt lat="49.53578" lon="0.14649">
        <ele>39.9</ele>
        <time>2020-06-17T17:45:18Z</time>
      </trkpt>
      <trkpt lat="49.53582" lon="0.14648">
        <ele>39.8</ele>
        <time>2020-06-17T17:45:19Z</time>
      </trkpt>
      <trkpt lat="49.53587" lon="0.14647">
        <ele>39.7</ele>
        <time>2020-06-17T17:45:20Z</time>
      </trkpt>
      <trkpt lat="49.53592" lon="0.14647">
        <ele>39.6</ele>
        <time>2020-06-17T17:45:21Z</time>
      </trkpt>
      <trkpt lat="49.53598" lon="0.14646">
        <ele>39.6</ele>
        <time>2020-06-17T17:45:22Z</time>
      </trkpt>
      <trkpt lat="49.53603" lon="0.14645">
        <ele>39.5</ele>
        <time>2020-06-17T17:45:23Z</time>
      </trkpt>
      <trkpt lat="49.53608" lon="0.14644">
        <ele>39.4</ele>
        <time>2020-06-17T17:45:24Z</time>
      </trkpt>
      <trkpt lat="49.53614" lon="0.14643">
        <ele>39.4</ele>
        <time>2020-06-17T17:45:25Z</time>
      </trkpt>
      <trkpt lat="49.53621" lon="0.14642">
        <ele>39.2</ele>
        <time>2020-06-17T17:45:26Z</time>
      </trkpt>
      <trkpt lat="49.53627" lon="0.14641">
        <ele>39.2</ele>
        <time>2020-06-17T17:45:27Z</time>
      </trkpt>
      <trkpt lat="49.53633" lon="0.1464">
        <ele>39</ele>
        <time>2020-06-17T17:45:28Z</time>
      </trkpt>
      <trkpt lat="49.53637" lon="0.14639">
        <ele>39</ele>
        <time>2020-06-17T17:45:29Z</time>
      </trkpt>
      <trkpt lat="49.53643" lon="0.14637">
        <ele>38.8</ele>
        <time>2020-06-17T17:45:30Z</time>
      </trkpt>
      <trkpt lat="49.53648" lon="0.14635">
        <ele>38.8</ele>
        <time>2020-06-17T17:45:31Z</time>
      </trkpt>
      <trkpt lat="49.53653" lon="0.14634">
        <ele>38.8</ele>
        <time>2020-06-17T17:45:32Z</time>
      </trkpt>
      <trkpt lat="49.53659" lon="0.14633">
        <ele>38.8</ele>
        <time>2020-06-17T17:45:33Z</time>
      </trkpt>
      <trkpt lat="49.53663" lon="0.1463">
        <ele>38.7</ele>
        <time>2020-06-17T17:45:34Z</time>
      </trkpt>
      <trkpt lat="49.53668" lon="0.14628">
        <ele>38.7</ele>
        <time>2020-06-17T17:45:35Z</time>
      </trkpt>
      <trkpt lat="49.53673" lon="0.14625">
        <ele>38.7</ele>
        <time>2020-06-17T17:45:36Z</time>
      </trkpt>
      <trkpt lat="49.53677" lon="0.14623">
        <ele>38.6</ele>
        <time>2020-06-17T17:45:37Z</time>
      </trkpt>
      <trkpt lat="49.53682" lon="0.14622">
        <ele>38.6</ele>
        <time>2020-06-17T17:45:38Z</time>
      </trkpt>
      <trkpt lat="49.53688" lon="0.14619">
        <ele>38.5</ele>
        <time>2020-06-17T17:45:39Z</time>
      </trkpt>
      <trkpt lat="49.53693" lon="0.14618">
        <ele>38.5</ele>
        <time>2020-06-17T17:45:40Z</time>
      </trkpt>
      <trkpt lat="49.53698" lon="0.14617">
        <ele>38.5</ele>
        <time>2020-06-17T17:45:41Z</time>
      </trkpt>
      <trkpt lat="49.53704" lon="0.14616">
        <ele>38.5</ele>
        <time>2020-06-17T17:45:42Z</time>
      </trkpt>
      <trkpt lat="49.53709" lon="0.14615">
        <ele>38.4</ele>
        <time>2020-06-17T17:45:43Z</time>
      </trkpt>
      <trkpt lat="49.53715" lon="0.14614">
        <ele>38.4</ele>
        <time>2020-06-17T17:45:44Z</time>
      </trkpt>
      <trkpt lat="49.53721" lon="0.14613">
        <ele>38.3</ele>
        <time>2020-06-17T17:45:45Z</time>
      </trkpt>
      <trkpt lat="49.53726" lon="0.14613">
        <ele>38.3</ele>
        <time>2020-06-17T17:45:46Z</time>
      </trkpt>
      <trkpt lat="49.53731" lon="0.14613">
        <ele>38.3</ele>
        <time>2020-06-17T17:45:47Z</time>
      </trkpt>
      <trkpt lat="49.53737" lon="0.14614">
        <ele>38.2</ele>
        <time>2020-06-17T17:45:48Z</time>
      </trkpt>
      <trkpt lat="49.53743" lon="0.14614">
        <ele>38.1</ele>
        <time>2020-06-17T17:45:49Z</time>
      </trkpt>
      <trkpt lat="49.53749" lon="0.14614">
        <ele>38</ele>
        <time>2020-06-17T17:45:50Z</time>
      </trkpt>
      <trkpt lat="49.53755" lon="0.14616">
        <ele>37.9</ele>
        <time>2020-06-17T17:45:51Z</time>
      </trkpt>
      <trkpt lat="49.53761" lon="0.14616">
        <ele>37.8</ele>
        <time>2020-06-17T17:45:52Z</time>
      </trkpt>
      <trkpt lat="49.53767" lon="0.14618">
        <ele>37.7</ele>
        <time>2020-06-17T17:45:53Z</time>
      </trkpt>
      <trkpt lat="49.53773" lon="0.1462">
        <ele>37.6</ele>
        <time>2020-06-17T17:45:54Z</time>
      </trkpt>
      <trkpt lat="49.53779" lon="0.14621">
        <ele>37.5</ele>
        <time>2020-06-17T17:45:55Z</time>
      </trkpt>
      <trkpt lat="49.53785" lon="0.14622">
        <ele>37.5</ele>
        <time>2020-06-17T17:45:56Z</time>
      </trkpt>
      <trkpt lat="49.53791" lon="0.14623">
        <ele>37.4</ele>
        <time>2020-06-17T17:45:57Z</time>
      </trkpt>
      <trkpt lat="49.53796" lon="0.14624">
        <ele>37.3</ele>
        <time>2020-06-17T17:45:58Z</time>
      </trkpt>
      <trkpt lat="49.53802" lon="0.14625">
        <ele>37.3</ele>
        <time>2020-06-17T17:45:59Z</time>
      </trkpt>
      <trkpt lat="49.53809" lon="0.14625">
        <ele>37.3</ele>
        <time>2020-06-17T17:46:00Z</time>
      </trkpt>
      <trkpt lat="49.53814" lon="0.14624">
        <ele>37.3</ele>
        <time>2020-06-17T17:46:01Z</time>
      </trkpt>
      <trkpt lat="49.53821" lon="0.14623">
        <ele>37.3</ele>
        <time>2020-06-17T17:46:02Z</time>
      </trkpt>
      <trkpt lat="49.53827" lon="0.14623">
        <ele>37.3</ele>
        <time>2020-06-17T17:46:03Z</time>
      </trkpt>
      <trkpt lat="49.53833" lon="0.14623">
        <ele>37.3</ele>
        <time>2020-06-17T17:46:04Z</time>
      </trkpt>
      <trkpt lat="49.53838" lon="0.14624">
        <ele>37.3</ele>
        <time>2020-06-17T17:46:05Z</time>
      </trkpt>
      <trkpt lat="49.53842" lon="0.14625">
        <ele>37.3</ele>
        <time>2020-06-17T17:46:06Z</time>
      </trkpt>
      <trkpt lat="49.53847" lon="0.14625">
        <ele>37.3</ele>
        <time>2020-06-17T17:46:07Z</time>
      </trkpt>
      <trkpt lat="49.53852" lon="0.14626">
        <ele>37.3</ele>
        <time>2020-06-17T17:46:08Z</time>
      </trkpt>
      <trkpt lat="49.53858" lon="0.14626">
        <ele>37.4</ele>
        <time>2020-06-17T17:46:09Z</time>
      </trkpt>
      <trkpt lat="49.53863" lon="0.14628">
        <ele>37.4</ele>
        <time>2020-06-17T17:46:10Z</time>
      </trkpt>
      <trkpt lat="49.53869" lon="0.14629">
        <ele>37.5</ele>
        <time>2020-06-17T17:46:11Z</time>
      </trkpt>
      <trkpt lat="49.53875" lon="0.14631">
        <ele>37.6</ele>
        <time>2020-06-17T17:46:12Z</time>
      </trkpt>
      <trkpt lat="49.53881" lon="0.14633">
        <ele>37.8</ele>
        <time>2020-06-17T17:46:13Z</time>
      </trkpt>
      <trkpt lat="49.53885" lon="0.14635">
        <ele>37.9</ele>
        <time>2020-06-17T17:46:14Z</time>
      </trkpt>
      <trkpt lat="49.5389" lon="0.14637">
        <ele>38</ele>
        <time>2020-06-17T17:46:15Z</time>
      </trkpt>
      <trkpt lat="49.53894" lon="0.14638">
        <ele>38.1</ele>
        <time>2020-06-17T17:46:16Z</time>
      </trkpt>
      <trkpt lat="49.53899" lon="0.1464">
        <ele>38.2</ele>
        <time>2020-06-17T17:46:17Z</time>
      </trkpt>
      <trkpt lat="49.53904" lon="0.14642">
        <ele>38.3</ele>
        <time>2020-06-17T17:46:18Z</time>
      </trkpt>
      <trkpt lat="49.53908" lon="0.14643">
        <ele>38.4</ele>
        <time>2020-06-17T17:46:19Z</time>
      </trkpt>
      <trkpt lat="49.53912" lon="0.14645">
        <ele>38.5</ele>
        <time>2020-06-17T17:46:20Z</time>
      </trkpt>
      <trkpt lat="49.53916" lon="0.14647">
        <ele>38.6</ele>
        <time>2020-06-17T17:46:21Z</time>
      </trkpt>
      <trkpt lat="49.5392" lon="0.1465">
        <ele>38.7</ele>
        <time>2020-06-17T17:46:22Z</time>
      </trkpt>
      <trkpt lat="49.53924" lon="0.14653">
        <ele>38.8</ele>
        <time>2020-06-17T17:46:23Z</time>
      </trkpt>
      <trkpt lat="49.53927" lon="0.14656">
        <ele>38.9</ele>
        <time>2020-06-17T17:46:24Z</time>
      </trkpt>
      <trkpt lat="49.53933" lon="0.14659">
        <ele>39.1</ele>
        <time>2020-06-17T17:46:25Z</time>
      </trkpt>
      <trkpt lat="49.53938" lon="0.14662">
        <ele>39.2</ele>
        <time>2020-06-17T17:46:26Z</time>
      </trkpt>
      <trkpt lat="49.53943" lon="0.14665">
        <ele>39.4</ele>
        <time>2020-06-17T17:46:27Z</time>
      </trkpt>
      <trkpt lat="49.53948" lon="0.14668">
        <ele>39.5</ele>
        <time>2020-06-17T17:46:28Z</time>
      </trkpt>
      <trkpt lat="49.53953" lon="0.1467">
        <ele>39.6</ele>
        <time>2020-06-17T17:46:29Z</time>
      </trkpt>
      <trkpt lat="49.53956" lon="0.14672">
        <ele>39.6</ele>
        <time>2020-06-17T17:46:30Z</time>
      </trkpt>
      <trkpt lat="49.5396" lon="0.14675">
        <ele>39.7</ele>
        <time>2020-06-17T17:46:31Z</time>
      </trkpt>
      <trkpt lat="49.53964" lon="0.14675">
        <ele>39.8</ele>
        <time>2020-06-17T17:46:32Z</time>
      </trkpt>
      <trkpt lat="49.53968" lon="0.14678">
        <ele>39.9</ele>
        <time>2020-06-17T17:46:33Z</time>
      </trkpt>
      <trkpt lat="49.53973" lon="0.14682">
        <ele>40</ele>
        <time>2020-06-17T17:46:34Z</time>
      </trkpt>
      <trkpt lat="49.53976" lon="0.14685">
        <ele>40.1</ele>
        <time>2020-06-17T17:46:35Z</time>
      </trkpt>
      <trkpt lat="49.5398" lon="0.14687">
        <ele>40.2</ele>
        <time>2020-06-17T17:46:36Z</time>
      </trkpt>
      <trkpt lat="49.53983" lon="0.14689">
        <ele>40.3</ele>
        <time>2020-06-17T17:46:37Z</time>
      </trkpt>
      <trkpt lat="49.53986" lon="0.14691">
        <ele>40.4</ele>
        <time>2020-06-17T17:46:38Z</time>
      </trkpt>
      <trkpt lat="49.53991" lon="0.14693">
        <ele>40.5</ele>
        <time>2020-06-17T17:46:39Z</time>
      </trkpt>
      <trkpt lat="49.53996" lon="0.14695">
        <ele>40.6</ele>
        <time>2020-06-17T17:46:40Z</time>
      </trkpt>
      <trkpt lat="49.53999" lon="0.14697">
        <ele>40.7</ele>
        <time>2020-06-17T17:46:41Z</time>
      </trkpt>
      <trkpt lat="49.54005" lon="0.14698">
        <ele>40.8</ele>
        <time>2020-06-17T17:46:42Z</time>
      </trkpt>
      <trkpt lat="49.54012" lon="0.14699">
        <ele>40.9</ele>
        <time>2020-06-17T17:46:43Z</time>
      </trkpt>
      <trkpt lat="49.54016" lon="0.147">
        <ele>41</ele>
        <time>2020-06-17T17:46:44Z</time>
      </trkpt>
      <trkpt lat="49.5402" lon="0.147">
        <ele>41</ele>
        <time>2020-06-17T17:46:45Z</time>
      </trkpt>
      <trkpt lat="49.54025" lon="0.147">
        <ele>41.1</ele>
        <time>2020-06-17T17:46:46Z</time>
      </trkpt>
      <trkpt lat="49.54029" lon="0.14701">
        <ele>41.1</ele>
        <time>2020-06-17T17:46:47Z</time>
      </trkpt>
      <trkpt lat="49.54034" lon="0.14703">
        <ele>41.2</ele>
        <time>2020-06-17T17:46:48Z</time>
      </trkpt>
      <trkpt lat="49.54037" lon="0.14707">
        <ele>41.3</ele>
        <time>2020-06-17T17:46:49Z</time>
      </trkpt>
      <trkpt lat="49.54042" lon="0.14711">
        <ele>41.4</ele>
        <time>2020-06-17T17:46:50Z</time>
      </trkpt>
      <trkpt lat="49.54045" lon="0.14713">
        <ele>41.6</ele>
        <time>2020-06-17T17:46:51Z</time>
      </trkpt>
      <trkpt lat="49.5405" lon="0.14711">
        <ele>41.9</ele>
        <time>2020-06-17T17:46:52Z</time>
      </trkpt>
      <trkpt lat="49.54053" lon="0.14706">
        <ele>42.2</ele>
        <time>2020-06-17T17:46:53Z</time>
      </trkpt>
      <trkpt lat="49.54055" lon="0.14701">
        <ele>42.5</ele>
        <time>2020-06-17T17:46:54Z</time>
      </trkpt>
      <trkpt lat="49.54057" lon="0.14695">
        <ele>42.1</ele>
        <time>2020-06-17T17:46:55Z</time>
      </trkpt>
      <trkpt lat="49.54061" lon="0.14691">
        <ele>42.1</ele>
        <time>2020-06-17T17:46:56Z</time>
      </trkpt>
      <trkpt lat="49.54064" lon="0.14687">
        <ele>42.1</ele>
        <time>2020-06-17T17:46:57Z</time>
      </trkpt>
      <trkpt lat="49.54067" lon="0.14682">
        <ele>42.1</ele>
        <time>2020-06-17T17:46:58Z</time>
      </trkpt>
      <trkpt lat="49.54071" lon="0.14679">
        <ele>42</ele>
        <time>2020-06-17T17:46:59Z</time>
      </trkpt>
      <trkpt lat="49.54076" lon="0.14676">
        <ele>42</ele>
        <time>2020-06-17T17:47:00Z</time>
      </trkpt>
      <trkpt lat="49.5408" lon="0.14673">
        <ele>42</ele>
        <time>2020-06-17T17:47:01Z</time>
      </trkpt>
      <trkpt lat="49.54084" lon="0.14672">
        <ele>42</ele>
        <time>2020-06-17T17:47:02Z</time>
      </trkpt>
      <trkpt lat="49.54088" lon="0.14671">
        <ele>42</ele>
        <time>2020-06-17T17:47:03Z</time>
      </trkpt>
      <trkpt lat="49.54093" lon="0.14671">
        <ele>42</ele>
        <time>2020-06-17T17:47:04Z</time>
      </trkpt>
      <trkpt lat="49.54098" lon="0.1467">
        <ele>42</ele>
        <time>2020-06-17T17:47:05Z</time>
      </trkpt>
      <trkpt lat="49.54103" lon="0.14668">
        <ele>42</ele>
        <time>2020-06-17T17:47:06Z</time>
      </trkpt>
      <trkpt lat="49.54108" lon="0.14667">
        <ele>42</ele>
        <time>2020-06-17T17:47:07Z</time>
      </trkpt>
      <trkpt lat="49.54113" lon="0.14665">
        <ele>42.1</ele>
        <time>2020-06-17T17:47:08Z</time>
      </trkpt>
      <trkpt lat="49.54118" lon="0.14663">
        <ele>42.2</ele>
        <time>2020-06-17T17:47:09Z</time>
      </trkpt>
      <trkpt lat="49.54122" lon="0.14662">
        <ele>42.2</ele>
        <time>2020-06-17T17:47:10Z</time>
      </trkpt>
      <trkpt lat="49.54129" lon="0.14662">
        <ele>42.3</ele>
        <time>2020-06-17T17:47:11Z</time>
      </trkpt>
      <trkpt lat="49.54134" lon="0.14661">
        <ele>42.4</ele>
        <time>2020-06-17T17:47:12Z</time>
      </trkpt>
      <trkpt lat="49.54139" lon="0.14659">
        <ele>42.4</ele>
        <time>2020-06-17T17:47:13Z</time>
      </trkpt>
      <trkpt lat="49.54143" lon="0.14658">
        <ele>42.5</ele>
        <time>2020-06-17T17:47:14Z</time>
      </trkpt>
      <trkpt lat="49.54148" lon="0.14657">
        <ele>42.5</ele>
        <time>2020-06-17T17:47:15Z</time>
      </trkpt>
      <trkpt lat="49.54152" lon="0.14656">
        <ele>42.6</ele>
        <time>2020-06-17T17:47:16Z</time>
      </trkpt>
      <trkpt lat="49.54157" lon="0.14655">
        <ele>42.7</ele>
        <time>2020-06-17T17:47:17Z</time>
      </trkpt>
      <trkpt lat="49.54162" lon="0.14653">
        <ele>42.7</ele>
        <time>2020-06-17T17:47:18Z</time>
      </trkpt>
      <trkpt lat="49.54166" lon="0.14652">
        <ele>42.8</ele>
        <time>2020-06-17T17:47:19Z</time>
      </trkpt>
      <trkpt lat="49.5417" lon="0.1465">
        <ele>42.9</ele>
        <time>2020-06-17T17:47:20Z</time>
      </trkpt>
      <trkpt lat="49.54174" lon="0.14649">
        <ele>42.9</ele>
        <time>2020-06-17T17:47:21Z</time>
      </trkpt>
      <trkpt lat="49.54178" lon="0.14647">
        <ele>42.9</ele>
        <time>2020-06-17T17:47:22Z</time>
      </trkpt>
      <trkpt lat="49.54183" lon="0.14645">
        <ele>43</ele>
        <time>2020-06-17T17:47:23Z</time>
      </trkpt>
      <trkpt lat="49.54187" lon="0.14642">
        <ele>43.1</ele>
        <time>2020-06-17T17:47:24Z</time>
      </trkpt>
      <trkpt lat="49.54193" lon="0.14638">
        <ele>43.1</ele>
        <time>2020-06-17T17:47:25Z</time>
      </trkpt>
      <trkpt lat="49.54197" lon="0.14636">
        <ele>43.2</ele>
        <time>2020-06-17T17:47:26Z</time>
      </trkpt>
      <trkpt lat="49.54201" lon="0.14633">
        <ele>43.3</ele>
        <time>2020-06-17T17:47:27Z</time>
      </trkpt>
      <trkpt lat="49.54206" lon="0.14631">
        <ele>43.3</ele>
        <time>2020-06-17T17:47:28Z</time>
      </trkpt>
      <trkpt lat="49.54211" lon="0.1463">
        <ele>43.4</ele>
        <time>2020-06-17T17:47:29Z</time>
      </trkpt>
      <trkpt lat="49.54215" lon="0.14626">
        <ele>43.5</ele>
        <time>2020-06-17T17:47:30Z</time>
      </trkpt>
      <trkpt lat="49.5422" lon="0.14624">
        <ele>43.6</ele>
        <time>2020-06-17T17:47:31Z</time>
      </trkpt>
      <trkpt lat="49.54224" lon="0.14622">
        <ele>43.7</ele>
        <time>2020-06-17T17:47:32Z</time>
      </trkpt>
      <trkpt lat="49.54229" lon="0.14619">
        <ele>43.8</ele>
        <time>2020-06-17T17:47:33Z</time>
      </trkpt>
      <trkpt lat="49.54233" lon="0.14616">
        <ele>43.9</ele>
        <time>2020-06-17T17:47:34Z</time>
      </trkpt>
      <trkpt lat="49.54238" lon="0.14613">
        <ele>44</ele>
        <time>2020-06-17T17:47:35Z</time>
      </trkpt>
      <trkpt lat="49.54244" lon="0.1461">
        <ele>44.1</ele>
        <time>2020-06-17T17:47:36Z</time>
      </trkpt>
      <trkpt lat="49.54248" lon="0.14607">
        <ele>44.1</ele>
        <time>2020-06-17T17:47:37Z</time>
      </trkpt>
      <trkpt lat="49.54253" lon="0.14603">
        <ele>44.2</ele>
        <time>2020-06-17T17:47:38Z</time>
      </trkpt>
      <trkpt lat="49.54257" lon="0.146">
        <ele>44.3</ele>
        <time>2020-06-17T17:47:39Z</time>
      </trkpt>
      <trkpt lat="49.54261" lon="0.14596">
        <ele>44.4</ele>
        <time>2020-06-17T17:47:40Z</time>
      </trkpt>
      <trkpt lat="49.54264" lon="0.14592">
        <ele>44.5</ele>
        <time>2020-06-17T17:47:41Z</time>
      </trkpt>
      <trkpt lat="49.54269" lon="0.14588">
        <ele>44.6</ele>
        <time>2020-06-17T17:47:42Z</time>
      </trkpt>
      <trkpt lat="49.54273" lon="0.14584">
        <ele>44.7</ele>
        <time>2020-06-17T17:47:43Z</time>
      </trkpt>
      <trkpt lat="49.54277" lon="0.14581">
        <ele>44.8</ele>
        <time>2020-06-17T17:47:44Z</time>
      </trkpt>
      <trkpt lat="49.54281" lon="0.14577">
        <ele>44.9</ele>
        <time>2020-06-17T17:47:45Z</time>
      </trkpt>
      <trkpt lat="49.54285" lon="0.14574">
        <ele>45</ele>
        <time>2020-06-17T17:47:46Z</time>
      </trkpt>
      <trkpt lat="49.5429" lon="0.14569">
        <ele>45.1</ele>
        <time>2020-06-17T17:47:47Z</time>
      </trkpt>
      <trkpt lat="49.54294" lon="0.14565">
        <ele>45.2</ele>
        <time>2020-06-17T17:47:48Z</time>
      </trkpt>
      <trkpt lat="49.54298" lon="0.14561">
        <ele>45.3</ele>
        <time>2020-06-17T17:47:49Z</time>
      </trkpt>
      <trkpt lat="49.54302" lon="0.14557">
        <ele>45.4</ele>
        <time>2020-06-17T17:47:50Z</time>
      </trkpt>
      <trkpt lat="49.54305" lon="0.14552">
        <ele>45.5</ele>
        <time>2020-06-17T17:47:51Z</time>
      </trkpt>
      <trkpt lat="49.54309" lon="0.14548">
        <ele>45.7</ele>
        <time>2020-06-17T17:47:52Z</time>
      </trkpt>
      <trkpt lat="49.54313" lon="0.14543">
        <ele>45.8</ele>
        <time>2020-06-17T17:47:53Z</time>
      </trkpt>
      <trkpt lat="49.54318" lon="0.14538">
        <ele>45.9</ele>
        <time>2020-06-17T17:47:54Z</time>
      </trkpt>
      <trkpt lat="49.54322" lon="0.14533">
        <ele>46.1</ele>
        <time>2020-06-17T17:47:55Z</time>
      </trkpt>
      <trkpt lat="49.54327" lon="0.14529">
        <ele>46.2</ele>
        <time>2020-06-17T17:47:56Z</time>
      </trkpt>
      <trkpt lat="49.54331" lon="0.14524">
        <ele>46.3</ele>
        <time>2020-06-17T17:47:57Z</time>
      </trkpt>
      <trkpt lat="49.54334" lon="0.1452">
        <ele>46.4</ele>
        <time>2020-06-17T17:47:58Z</time>
      </trkpt>
      <trkpt lat="49.54337" lon="0.14516">
        <ele>46.5</ele>
        <time>2020-06-17T17:47:59Z</time>
      </trkpt>
      <trkpt lat="49.54341" lon="0.14511">
        <ele>46.6</ele>
        <time>2020-06-17T17:48:00Z</time>
      </trkpt>
      <trkpt lat="49.54345" lon="0.14506">
        <ele>46.8</ele>
        <time>2020-06-17T17:48:01Z</time>
      </trkpt>
      <trkpt lat="49.54349" lon="0.14503">
        <ele>46.9</ele>
        <time>2020-06-17T17:48:02Z</time>
      </trkpt>
      <trkpt lat="49.54354" lon="0.14499">
        <ele>47</ele>
        <time>2020-06-17T17:48:03Z</time>
      </trkpt>
      <trkpt lat="49.54358" lon="0.14494">
        <ele>47.2</ele>
        <time>2020-06-17T17:48:04Z</time>
      </trkpt>
      <trkpt lat="49.54362" lon="0.1449">
        <ele>47.3</ele>
        <time>2020-06-17T17:48:05Z</time>
      </trkpt>
      <trkpt lat="49.54366" lon="0.14486">
        <ele>47.5</ele>
        <time>2020-06-17T17:48:06Z</time>
      </trkpt>
      <trkpt lat="49.54371" lon="0.14482">
        <ele>47.6</ele>
        <time>2020-06-17T17:48:07Z</time>
      </trkpt>
      <trkpt lat="49.54374" lon="0.14479">
        <ele>47.7</ele>
        <time>2020-06-17T17:48:08Z</time>
      </trkpt>
      <trkpt lat="49.54378" lon="0.14475">
        <ele>47.8</ele>
        <time>2020-06-17T17:48:09Z</time>
      </trkpt>
      <trkpt lat="49.54383" lon="0.1447">
        <ele>48</ele>
        <time>2020-06-17T17:48:10Z</time>
      </trkpt>
      <trkpt lat="49.54386" lon="0.14467">
        <ele>48.1</ele>
        <time>2020-06-17T17:48:11Z</time>
      </trkpt>
      <trkpt lat="49.5439" lon="0.14462">
        <ele>48.2</ele>
        <time>2020-06-17T17:48:12Z</time>
      </trkpt>
      <trkpt lat="49.54393" lon="0.14458">
        <ele>48.4</ele>
        <time>2020-06-17T17:48:13Z</time>
      </trkpt>
      <trkpt lat="49.54397" lon="0.14454">
        <ele>48.5</ele>
        <time>2020-06-17T17:48:14Z</time>
      </trkpt>
      <trkpt lat="49.54401" lon="0.1445">
        <ele>48.6</ele>
        <time>2020-06-17T17:48:15Z</time>
      </trkpt>
      <trkpt lat="49.54406" lon="0.14447">
        <ele>48.8</ele>
        <time>2020-06-17T17:48:16Z</time>
      </trkpt>
      <trkpt lat="49.54409" lon="0.14443">
        <ele>48.9</ele>
        <time>2020-06-17T17:48:17Z</time>
      </trkpt>
      <trkpt lat="49.54413" lon="0.14438">
        <ele>49</ele>
        <time>2020-06-17T17:48:18Z</time>
      </trkpt>
      <trkpt lat="49.54417" lon="0.14435">
        <ele>49.1</ele>
        <time>2020-06-17T17:48:19Z</time>
      </trkpt>
      <trkpt lat="49.5442" lon="0.14432">
        <ele>49.2</ele>
        <time>2020-06-17T17:48:20Z</time>
      </trkpt>
      <trkpt lat="49.54424" lon="0.14428">
        <ele>49.3</ele>
        <time>2020-06-17T17:48:21Z</time>
      </trkpt>
      <trkpt lat="49.54428" lon="0.14424">
        <ele>49.5</ele>
        <time>2020-06-17T17:48:22Z</time>
      </trkpt>
      <trkpt lat="49.54433" lon="0.14419">
        <ele>49.7</ele>
        <time>2020-06-17T17:48:23Z</time>
      </trkpt>
      <trkpt lat="49.54437" lon="0.14416">
        <ele>49.8</ele>
        <time>2020-06-17T17:48:24Z</time>
      </trkpt>
      <trkpt lat="49.54441" lon="0.14413">
        <ele>50</ele>
        <time>2020-06-17T17:48:25Z</time>
      </trkpt>
      <trkpt lat="49.54445" lon="0.1441">
        <ele>50.1</ele>
        <time>2020-06-17T17:48:26Z</time>
      </trkpt>
      <trkpt lat="49.5445" lon="0.14407">
        <ele>50.3</ele>
        <time>2020-06-17T17:48:27Z</time>
      </trkpt>
      <trkpt lat="49.54454" lon="0.14406">
        <ele>50.5</ele>
        <time>2020-06-17T17:48:28Z</time>
      </trkpt>
      <trkpt lat="49.54459" lon="0.14403">
        <ele>50.6</ele>
        <time>2020-06-17T17:48:29Z</time>
      </trkpt>
      <trkpt lat="49.54463" lon="0.14402">
        <ele>50.8</ele>
        <time>2020-06-17T17:48:30Z</time>
      </trkpt>
      <trkpt lat="49.54467" lon="0.14402">
        <ele>51</ele>
        <time>2020-06-17T17:48:31Z</time>
      </trkpt>
      <trkpt lat="49.54471" lon="0.14402">
        <ele>51.2</ele>
        <time>2020-06-17T17:48:32Z</time>
      </trkpt>
      <trkpt lat="49.54475" lon="0.14402">
        <ele>51.4</ele>
        <time>2020-06-17T17:48:33Z</time>
      </trkpt>
      <trkpt lat="49.5448" lon="0.14403">
        <ele>51.6</ele>
        <time>2020-06-17T17:48:34Z</time>
      </trkpt>
      <trkpt lat="49.54484" lon="0.14404">
        <ele>51.8</ele>
        <time>2020-06-17T17:48:35Z</time>
      </trkpt>
      <trkpt lat="49.54487" lon="0.14405">
        <ele>52</ele>
        <time>2020-06-17T17:48:36Z</time>
      </trkpt>
      <trkpt lat="49.5449" lon="0.14406">
        <ele>52.2</ele>
        <time>2020-06-17T17:48:37Z</time>
      </trkpt>
      <trkpt lat="49.54494" lon="0.14408">
        <ele>52.4</ele>
        <time>2020-06-17T17:48:38Z</time>
      </trkpt>
      <trkpt lat="49.54497" lon="0.1441">
        <ele>52.6</ele>
        <time>2020-06-17T17:48:39Z</time>
      </trkpt>
      <trkpt lat="49.545" lon="0.14411">
        <ele>52.8</ele>
        <time>2020-06-17T17:48:40Z</time>
      </trkpt>
      <trkpt lat="49.54503" lon="0.14414">
        <ele>53</ele>
        <time>2020-06-17T17:48:41Z</time>
      </trkpt>
      <trkpt lat="49.54506" lon="0.14417">
        <ele>53.3</ele>
        <time>2020-06-17T17:48:42Z</time>
      </trkpt>
      <trkpt lat="49.5451" lon="0.14421">
        <ele>53.5</ele>
        <time>2020-06-17T17:48:43Z</time>
      </trkpt>
      <trkpt lat="49.54512" lon="0.14423">
        <ele>53.7</ele>
        <time>2020-06-17T17:48:45Z</time>
      </trkpt>
      <trkpt lat="49.54515" lon="0.14426">
        <ele>53.9</ele>
        <time>2020-06-17T17:48:46Z</time>
      </trkpt>
      <trkpt lat="49.54518" lon="0.14429">
        <ele>54.2</ele>
        <time>2020-06-17T17:48:47Z</time>
      </trkpt>
      <trkpt lat="49.54521" lon="0.14432">
        <ele>54.4</ele>
        <time>2020-06-17T17:48:48Z</time>
      </trkpt>
      <trkpt lat="49.54524" lon="0.14436">
        <ele>54.7</ele>
        <time>2020-06-17T17:48:49Z</time>
      </trkpt>
      <trkpt lat="49.54525" lon="0.14437">
        <ele>54.8</ele>
        <time>2020-06-17T17:48:50Z</time>
      </trkpt>
      <trkpt lat="49.54528" lon="0.1444">
        <ele>55</ele>
        <time>2020-06-17T17:48:51Z</time>
      </trkpt>
      <trkpt lat="49.54529" lon="0.14441">
        <ele>55.1</ele>
        <time>2020-06-17T17:48:52Z</time>
      </trkpt>
      <trkpt lat="49.54533" lon="0.14445">
        <ele>55.4</ele>
        <time>2020-06-17T17:48:53Z</time>
      </trkpt>
      <trkpt lat="49.54536" lon="0.14447">
        <ele>55.5</ele>
        <time>2020-06-17T17:48:54Z</time>
      </trkpt>
      <trkpt lat="49.5454" lon="0.14448">
        <ele>55.8</ele>
        <time>2020-06-17T17:48:55Z</time>
      </trkpt>
      <trkpt lat="49.54542" lon="0.14449">
        <ele>55.9</ele>
        <time>2020-06-17T17:48:56Z</time>
      </trkpt>
      <trkpt lat="49.54546" lon="0.14451">
        <ele>56.1</ele>
        <time>2020-06-17T17:48:57Z</time>
      </trkpt>
      <trkpt lat="49.54549" lon="0.14452">
        <ele>56.3</ele>
        <time>2020-06-17T17:48:58Z</time>
      </trkpt>
      <trkpt lat="49.54553" lon="0.14454">
        <ele>56.5</ele>
        <time>2020-06-17T17:48:59Z</time>
      </trkpt>
      <trkpt lat="49.54556" lon="0.14455">
        <ele>56.7</ele>
        <time>2020-06-17T17:49:00Z</time>
      </trkpt>
      <trkpt lat="49.54559" lon="0.14458">
        <ele>56.9</ele>
        <time>2020-06-17T17:49:01Z</time>
      </trkpt>
      <trkpt lat="49.54564" lon="0.14458">
        <ele>57.2</ele>
        <time>2020-06-17T17:49:02Z</time>
      </trkpt>
      <trkpt lat="49.5457" lon="0.14461">
        <ele>57.5</ele>
        <time>2020-06-17T17:49:03Z</time>
      </trkpt>
      <trkpt lat="49.54575" lon="0.14462">
        <ele>57.8</ele>
        <time>2020-06-17T17:49:04Z</time>
      </trkpt>
      <trkpt lat="49.54578" lon="0.14463">
        <ele>58</ele>
        <time>2020-06-17T17:49:05Z</time>
      </trkpt>
      <trkpt lat="49.54583" lon="0.14466">
        <ele>58.3</ele>
        <time>2020-06-17T17:49:06Z</time>
      </trkpt>
      <trkpt lat="49.54588" lon="0.14467">
        <ele>58.5</ele>
        <time>2020-06-17T17:49:07Z</time>
      </trkpt>
      <trkpt lat="49.54591" lon="0.14468">
        <ele>58.8</ele>
        <time>2020-06-17T17:49:08Z</time>
      </trkpt>
      <trkpt lat="49.54594" lon="0.14468">
        <ele>58.9</ele>
        <time>2020-06-17T17:49:09Z</time>
      </trkpt>
      <trkpt lat="49.54598" lon="0.14468">
        <ele>59.1</ele>
        <time>2020-06-17T17:49:10Z</time>
      </trkpt>
      <trkpt lat="49.54601" lon="0.14468">
        <ele>59.2</ele>
        <time>2020-06-17T17:49:11Z</time>
      </trkpt>
      <trkpt lat="49.54603" lon="0.14468">
        <ele>59.4</ele>
        <time>2020-06-17T17:49:12Z</time>
      </trkpt>
      <trkpt lat="49.54607" lon="0.14469">
        <ele>59.6</ele>
        <time>2020-06-17T17:49:13Z</time>
      </trkpt>
      <trkpt lat="49.54609" lon="0.14468">
        <ele>59.7</ele>
        <time>2020-06-17T17:49:14Z</time>
      </trkpt>
      <trkpt lat="49.54612" lon="0.14468">
        <ele>59.8</ele>
        <time>2020-06-17T17:49:15Z</time>
      </trkpt>
      <trkpt lat="49.54616" lon="0.14467">
        <ele>60</ele>
        <time>2020-06-17T17:49:16Z</time>
      </trkpt>
      <trkpt lat="49.5462" lon="0.14467">
        <ele>60.2</ele>
        <time>2020-06-17T17:49:17Z</time>
      </trkpt>
      <trkpt lat="49.54623" lon="0.14467">
        <ele>60.4</ele>
        <time>2020-06-17T17:49:18Z</time>
      </trkpt>
      <trkpt lat="49.54626" lon="0.14467">
        <ele>60.4</ele>
        <time>2020-06-17T17:49:19Z</time>
      </trkpt>
      <trkpt lat="49.54629" lon="0.14467">
        <ele>60.4</ele>
        <time>2020-06-17T17:49:20Z</time>
      </trkpt>
      <trkpt lat="49.54632" lon="0.14467">
        <ele>60.4</ele>
        <time>2020-06-17T17:49:21Z</time>
      </trkpt>
      <trkpt lat="49.54636" lon="0.14468">
        <ele>60.7</ele>
        <time>2020-06-17T17:49:22Z</time>
      </trkpt>
      <trkpt lat="49.5464" lon="0.14468">
        <ele>60.9</ele>
        <time>2020-06-17T17:49:23Z</time>
      </trkpt>
      <trkpt lat="49.54641" lon="0.14468">
        <ele>61</ele>
        <time>2020-06-17T17:49:24Z</time>
      </trkpt>
      <trkpt lat="49.54644" lon="0.14469">
        <ele>61.2</ele>
        <time>2020-06-17T17:49:25Z</time>
      </trkpt>
      <trkpt lat="49.54645" lon="0.1447">
        <ele>61.2</ele>
        <time>2020-06-17T17:49:26Z</time>
      </trkpt>
      <trkpt lat="49.54648" lon="0.14472">
        <ele>61.4</ele>
        <time>2020-06-17T17:49:27Z</time>
      </trkpt>
      <trkpt lat="49.54652" lon="0.14471">
        <ele>61.6</ele>
        <time>2020-06-17T17:49:28Z</time>
      </trkpt>
      <trkpt lat="49.54655" lon="0.14472">
        <ele>61.7</ele>
        <time>2020-06-17T17:49:29Z</time>
      </trkpt>
      <trkpt lat="49.54659" lon="0.14472">
        <ele>61.9</ele>
        <time>2020-06-17T17:49:30Z</time>
      </trkpt>
      <trkpt lat="49.54662" lon="0.14473">
        <ele>62.1</ele>
        <time>2020-06-17T17:49:31Z</time>
      </trkpt>
      <trkpt lat="49.54666" lon="0.14474">
        <ele>62.3</ele>
        <time>2020-06-17T17:49:32Z</time>
      </trkpt>
      <trkpt lat="49.54669" lon="0.14474">
        <ele>62.5</ele>
        <time>2020-06-17T17:49:33Z</time>
      </trkpt>
      <trkpt lat="49.54673" lon="0.14475">
        <ele>62.7</ele>
        <time>2020-06-17T17:49:34Z</time>
      </trkpt>
      <trkpt lat="49.54677" lon="0.14476">
        <ele>62.9</ele>
        <time>2020-06-17T17:49:35Z</time>
      </trkpt>
      <trkpt lat="49.5468" lon="0.14478">
        <ele>63</ele>
        <time>2020-06-17T17:49:36Z</time>
      </trkpt>
      <trkpt lat="49.54684" lon="0.14479">
        <ele>63.2</ele>
        <time>2020-06-17T17:49:37Z</time>
      </trkpt>
      <trkpt lat="49.54686" lon="0.1448">
        <ele>63.3</ele>
        <time>2020-06-17T17:49:38Z</time>
      </trkpt>
      <trkpt lat="49.5469" lon="0.14481">
        <ele>63.5</ele>
        <time>2020-06-17T17:49:39Z</time>
      </trkpt>
      <trkpt lat="49.54695" lon="0.14484">
        <ele>63.7</ele>
        <time>2020-06-17T17:49:40Z</time>
      </trkpt>
      <trkpt lat="49.54697" lon="0.14485">
        <ele>63.8</ele>
        <time>2020-06-17T17:49:41Z</time>
      </trkpt>
      <trkpt lat="49.547" lon="0.14487">
        <ele>64</ele>
        <time>2020-06-17T17:49:42Z</time>
      </trkpt>
      <trkpt lat="49.54703" lon="0.1449">
        <ele>64.1</ele>
        <time>2020-06-17T17:49:43Z</time>
      </trkpt>
      <trkpt lat="49.54707" lon="0.14492">
        <ele>64.3</ele>
        <time>2020-06-17T17:49:44Z</time>
      </trkpt>
      <trkpt lat="49.54712" lon="0.14495">
        <ele>64.5</ele>
        <time>2020-06-17T17:49:45Z</time>
      </trkpt>
      <trkpt lat="49.54718" lon="0.14499">
        <ele>64.7</ele>
        <time>2020-06-17T17:49:46Z</time>
      </trkpt>
      <trkpt lat="49.54722" lon="0.14502">
        <ele>64.9</ele>
        <time>2020-06-17T17:49:47Z</time>
      </trkpt>
      <trkpt lat="49.54726" lon="0.14504">
        <ele>65</ele>
        <time>2020-06-17T17:49:48Z</time>
      </trkpt>
      <trkpt lat="49.54729" lon="0.14506">
        <ele>65.2</ele>
        <time>2020-06-17T17:49:49Z</time>
      </trkpt>
      <trkpt lat="49.54733" lon="0.14508">
        <ele>65.3</ele>
        <time>2020-06-17T17:49:50Z</time>
      </trkpt>
      <trkpt lat="49.54736" lon="0.14509">
        <ele>65.4</ele>
        <time>2020-06-17T17:49:51Z</time>
      </trkpt>
      <trkpt lat="49.54739" lon="0.14511">
        <ele>65.5</ele>
        <time>2020-06-17T17:49:52Z</time>
      </trkpt>
      <trkpt lat="49.54743" lon="0.14513">
        <ele>65.7</ele>
        <time>2020-06-17T17:49:53Z</time>
      </trkpt>
      <trkpt lat="49.54745" lon="0.14514">
        <ele>65.8</ele>
        <time>2020-06-17T17:49:54Z</time>
      </trkpt>
      <trkpt lat="49.54749" lon="0.14516">
        <ele>65.9</ele>
        <time>2020-06-17T17:49:55Z</time>
      </trkpt>
      <trkpt lat="49.54752" lon="0.14517">
        <ele>66</ele>
        <time>2020-06-17T17:49:56Z</time>
      </trkpt>
      <trkpt lat="49.54756" lon="0.14516">
        <ele>66.1</ele>
        <time>2020-06-17T17:49:57Z</time>
      </trkpt>
      <trkpt lat="49.54758" lon="0.14516">
        <ele>66.2</ele>
        <time>2020-06-17T17:49:58Z</time>
      </trkpt>
      <trkpt lat="49.54762" lon="0.14517">
        <ele>66.4</ele>
        <time>2020-06-17T17:49:59Z</time>
      </trkpt>
      <trkpt lat="49.54763" lon="0.14517">
        <ele>66.4</ele>
        <time>2020-06-17T17:50:00Z</time>
      </trkpt>
      <trkpt lat="49.54769" lon="0.14519">
        <ele>66.6</ele>
        <time>2020-06-17T17:50:01Z</time>
      </trkpt>
      <trkpt lat="49.54773" lon="0.1452">
        <ele>66.8</ele>
        <time>2020-06-17T17:50:02Z</time>
      </trkpt>
      <trkpt lat="49.54778" lon="0.14521">
        <ele>67</ele>
        <time>2020-06-17T17:50:03Z</time>
      </trkpt>
      <trkpt lat="49.54781" lon="0.14522">
        <ele>67.1</ele>
        <time>2020-06-17T17:50:04Z</time>
      </trkpt>
      <trkpt lat="49.54784" lon="0.14523">
        <ele>67.2</ele>
        <time>2020-06-17T17:50:05Z</time>
      </trkpt>
      <trkpt lat="49.54788" lon="0.14524">
        <ele>67.4</ele>
        <time>2020-06-17T17:50:06Z</time>
      </trkpt>
      <trkpt lat="49.54793" lon="0.14524">
        <ele>67.5</ele>
        <time>2020-06-17T17:50:07Z</time>
      </trkpt>
      <trkpt lat="49.54796" lon="0.14524">
        <ele>67.6</ele>
        <time>2020-06-17T17:50:08Z</time>
      </trkpt>
      <trkpt lat="49.548" lon="0.14524">
        <ele>67.7</ele>
        <time>2020-06-17T17:50:09Z</time>
      </trkpt>
      <trkpt lat="49.54805" lon="0.14524">
        <ele>67.9</ele>
        <time>2020-06-17T17:50:10Z</time>
      </trkpt>
      <trkpt lat="49.54808" lon="0.14524">
        <ele>68</ele>
        <time>2020-06-17T17:50:11Z</time>
      </trkpt>
      <trkpt lat="49.54812" lon="0.14524">
        <ele>68.1</ele>
        <time>2020-06-17T17:50:12Z</time>
      </trkpt>
      <trkpt lat="49.54815" lon="0.14524">
        <ele>68.2</ele>
        <time>2020-06-17T17:50:13Z</time>
      </trkpt>
      <trkpt lat="49.54819" lon="0.14524">
        <ele>68.3</ele>
        <time>2020-06-17T17:50:14Z</time>
      </trkpt>
      <trkpt lat="49.5482" lon="0.14524">
        <ele>68.3</ele>
        <time>2020-06-17T17:50:15Z</time>
      </trkpt>
      <trkpt lat="49.54823" lon="0.14524">
        <ele>68.4</ele>
        <time>2020-06-17T17:50:16Z</time>
      </trkpt>
      <trkpt lat="49.54825" lon="0.14523">
        <ele>68.5</ele>
        <time>2020-06-17T17:50:17Z</time>
      </trkpt>
      <trkpt lat="49.54828" lon="0.14525">
        <ele>68.6</ele>
        <time>2020-06-17T17:50:18Z</time>
      </trkpt>
      <trkpt lat="49.54831" lon="0.14526">
        <ele>68.7</ele>
        <time>2020-06-17T17:50:19Z</time>
      </trkpt>
      <trkpt lat="49.54835" lon="0.14526">
        <ele>68.8</ele>
        <time>2020-06-17T17:50:20Z</time>
      </trkpt>
      <trkpt lat="49.54837" lon="0.14526">
        <ele>68.8</ele>
        <time>2020-06-17T17:50:21Z</time>
      </trkpt>
      <trkpt lat="49.5484" lon="0.14526">
        <ele>68.9</ele>
        <time>2020-06-17T17:50:22Z</time>
      </trkpt>
      <trkpt lat="49.54843" lon="0.14527">
        <ele>69.1</ele>
        <time>2020-06-17T17:50:23Z</time>
      </trkpt>
      <trkpt lat="49.54846" lon="0.14529">
        <ele>69.2</ele>
        <time>2020-06-17T17:50:24Z</time>
      </trkpt>
      <trkpt lat="49.5485" lon="0.1453">
        <ele>69.3</ele>
        <time>2020-06-17T17:50:25Z</time>
      </trkpt>
      <trkpt lat="49.54854" lon="0.1453">
        <ele>69.5</ele>
        <time>2020-06-17T17:50:26Z</time>
      </trkpt>
      <trkpt lat="49.54858" lon="0.1453">
        <ele>69.8</ele>
        <time>2020-06-17T17:50:27Z</time>
      </trkpt>
      <trkpt lat="49.54863" lon="0.14529">
        <ele>69.9</ele>
        <time>2020-06-17T17:50:28Z</time>
      </trkpt>
      <trkpt lat="49.54867" lon="0.14528">
        <ele>70</ele>
        <time>2020-06-17T17:50:29Z</time>
      </trkpt>
      <trkpt lat="49.5487" lon="0.14527">
        <ele>70.2</ele>
        <time>2020-06-17T17:50:30Z</time>
      </trkpt>
      <trkpt lat="49.54873" lon="0.14528">
        <ele>70.3</ele>
        <time>2020-06-17T17:50:31Z</time>
      </trkpt>
      <trkpt lat="49.54878" lon="0.14528">
        <ele>70.4</ele>
        <time>2020-06-17T17:50:32Z</time>
      </trkpt>
      <trkpt lat="49.54881" lon="0.14529">
        <ele>70.6</ele>
        <time>2020-06-17T17:50:33Z</time>
      </trkpt>
      <trkpt lat="49.54885" lon="0.14529">
        <ele>70.7</ele>
        <time>2020-06-17T17:50:34Z</time>
      </trkpt>
      <trkpt lat="49.54889" lon="0.14528">
        <ele>70.8</ele>
        <time>2020-06-17T17:50:35Z</time>
      </trkpt>
      <trkpt lat="49.54893" lon="0.14528">
        <ele>70.9</ele>
        <time>2020-06-17T17:50:36Z</time>
      </trkpt>
      <trkpt lat="49.54897" lon="0.14529">
        <ele>71</ele>
        <time>2020-06-17T17:50:37Z</time>
      </trkpt>
      <trkpt lat="49.549" lon="0.1453">
        <ele>71.1</ele>
        <time>2020-06-17T17:50:38Z</time>
      </trkpt>
      <trkpt lat="49.54904" lon="0.1453">
        <ele>71.3</ele>
        <time>2020-06-17T17:50:39Z</time>
      </trkpt>
      <trkpt lat="49.54909" lon="0.14531">
        <ele>71.4</ele>
        <time>2020-06-17T17:50:40Z</time>
      </trkpt>
      <trkpt lat="49.54912" lon="0.14531">
        <ele>71.5</ele>
        <time>2020-06-17T17:50:41Z</time>
      </trkpt>
      <trkpt lat="49.54917" lon="0.1453">
        <ele>71.7</ele>
        <time>2020-06-17T17:50:42Z</time>
      </trkpt>
      <trkpt lat="49.54923" lon="0.14528">
        <ele>71.9</ele>
        <time>2020-06-17T17:50:43Z</time>
      </trkpt>
      <trkpt lat="49.54926" lon="0.14527">
        <ele>72</ele>
        <time>2020-06-17T17:50:44Z</time>
      </trkpt>
      <trkpt lat="49.5493" lon="0.14527">
        <ele>72.1</ele>
        <time>2020-06-17T17:50:45Z</time>
      </trkpt>
      <trkpt lat="49.54933" lon="0.14528">
        <ele>72.2</ele>
        <time>2020-06-17T17:50:46Z</time>
      </trkpt>
      <trkpt lat="49.54938" lon="0.1453">
        <ele>72.3</ele>
        <time>2020-06-17T17:50:47Z</time>
      </trkpt>
      <trkpt lat="49.54943" lon="0.14532">
        <ele>72.5</ele>
        <time>2020-06-17T17:50:48Z</time>
      </trkpt>
      <trkpt lat="49.54947" lon="0.14533">
        <ele>72.6</ele>
        <time>2020-06-17T17:50:49Z</time>
      </trkpt>
      <trkpt lat="49.54952" lon="0.14534">
        <ele>72.8</ele>
        <time>2020-06-17T17:50:50Z</time>
      </trkpt>
      <trkpt lat="49.54957" lon="0.14536">
        <ele>72.9</ele>
        <time>2020-06-17T17:50:51Z</time>
      </trkpt>
      <trkpt lat="49.54961" lon="0.14536">
        <ele>73.1</ele>
        <time>2020-06-17T17:50:52Z</time>
      </trkpt>
      <trkpt lat="49.54966" lon="0.14537">
        <ele>73.2</ele>
        <time>2020-06-17T17:50:53Z</time>
      </trkpt>
      <trkpt lat="49.5497" lon="0.14538">
        <ele>73.3</ele>
        <time>2020-06-17T17:50:54Z</time>
      </trkpt>
      <trkpt lat="49.54973" lon="0.14539">
        <ele>73.5</ele>
        <time>2020-06-17T17:50:55Z</time>
      </trkpt>
      <trkpt lat="49.54977" lon="0.1454">
        <ele>73.6</ele>
        <time>2020-06-17T17:50:56Z</time>
      </trkpt>
      <trkpt lat="49.54982" lon="0.14543">
        <ele>73.7</ele>
        <time>2020-06-17T17:50:57Z</time>
      </trkpt>
      <trkpt lat="49.54986" lon="0.14544">
        <ele>73.9</ele>
        <time>2020-06-17T17:50:58Z</time>
      </trkpt>
      <trkpt lat="49.54989" lon="0.14546">
        <ele>74</ele>
        <time>2020-06-17T17:50:59Z</time>
      </trkpt>
      <trkpt lat="49.54992" lon="0.14548">
        <ele>74.1</ele>
        <time>2020-06-17T17:51:00Z</time>
      </trkpt>
      <trkpt lat="49.54995" lon="0.1455">
        <ele>74.3</ele>
        <time>2020-06-17T17:51:01Z</time>
      </trkpt>
      <trkpt lat="49.54998" lon="0.14551">
        <ele>74.4</ele>
        <time>2020-06-17T17:51:02Z</time>
      </trkpt>
      <trkpt lat="49.55002" lon="0.14553">
        <ele>74.6</ele>
        <time>2020-06-17T17:51:03Z</time>
      </trkpt>
      <trkpt lat="49.55006" lon="0.14555">
        <ele>74.7</ele>
        <time>2020-06-17T17:51:04Z</time>
      </trkpt>
      <trkpt lat="49.55011" lon="0.14556">
        <ele>74.9</ele>
        <time>2020-06-17T17:51:05Z</time>
      </trkpt>
      <trkpt lat="49.55014" lon="0.14559">
        <ele>75.1</ele>
        <time>2020-06-17T17:51:06Z</time>
      </trkpt>
      <trkpt lat="49.55018" lon="0.14562">
        <ele>75.2</ele>
        <time>2020-06-17T17:51:07Z</time>
      </trkpt>
      <trkpt lat="49.55021" lon="0.14565">
        <ele>75.4</ele>
        <time>2020-06-17T17:51:08Z</time>
      </trkpt>
      <trkpt lat="49.55023" lon="0.14566">
        <ele>75.5</ele>
        <time>2020-06-17T17:51:09Z</time>
      </trkpt>
      <trkpt lat="49.55026" lon="0.14568">
        <ele>75.6</ele>
        <time>2020-06-17T17:51:10Z</time>
      </trkpt>
      <trkpt lat="49.55029" lon="0.14572">
        <ele>75.8</ele>
        <time>2020-06-17T17:51:11Z</time>
      </trkpt>
      <trkpt lat="49.55032" lon="0.14574">
        <ele>75.9</ele>
        <time>2020-06-17T17:51:12Z</time>
      </trkpt>
      <trkpt lat="49.55035" lon="0.14575">
        <ele>76</ele>
        <time>2020-06-17T17:51:13Z</time>
      </trkpt>
      <trkpt lat="49.55038" lon="0.14577">
        <ele>76.2</ele>
        <time>2020-06-17T17:51:14Z</time>
      </trkpt>
      <trkpt lat="49.55041" lon="0.14579">
        <ele>76.3</ele>
        <time>2020-06-17T17:51:15Z</time>
      </trkpt>
      <trkpt lat="49.55044" lon="0.14581">
        <ele>76.5</ele>
        <time>2020-06-17T17:51:16Z</time>
      </trkpt>
      <trkpt lat="49.55048" lon="0.14583">
        <ele>76.6</ele>
        <time>2020-06-17T17:51:17Z</time>
      </trkpt>
      <trkpt lat="49.55052" lon="0.14585">
        <ele>76.8</ele>
        <time>2020-06-17T17:51:18Z</time>
      </trkpt>
      <trkpt lat="49.55055" lon="0.14586">
        <ele>77</ele>
        <time>2020-06-17T17:51:19Z</time>
      </trkpt>
      <trkpt lat="49.55058" lon="0.14589">
        <ele>77.1</ele>
        <time>2020-06-17T17:51:20Z</time>
      </trkpt>
      <trkpt lat="49.55061" lon="0.14591">
        <ele>77.2</ele>
        <time>2020-06-17T17:51:21Z</time>
      </trkpt>
      <trkpt lat="49.55064" lon="0.14593">
        <ele>77.4</ele>
        <time>2020-06-17T17:51:22Z</time>
      </trkpt>
      <trkpt lat="49.55068" lon="0.14594">
        <ele>77.6</ele>
        <time>2020-06-17T17:51:23Z</time>
      </trkpt>
      <trkpt lat="49.55072" lon="0.14596">
        <ele>77.7</ele>
        <time>2020-06-17T17:51:24Z</time>
      </trkpt>
      <trkpt lat="49.55075" lon="0.14598">
        <ele>77.8</ele>
        <time>2020-06-17T17:51:25Z</time>
      </trkpt>
      <trkpt lat="49.55078" lon="0.146">
        <ele>78</ele>
        <time>2020-06-17T17:51:26Z</time>
      </trkpt>
      <trkpt lat="49.55082" lon="0.14601">
        <ele>78.1</ele>
        <time>2020-06-17T17:51:27Z</time>
      </trkpt>
      <trkpt lat="49.55085" lon="0.14604">
        <ele>78.2</ele>
        <time>2020-06-17T17:51:28Z</time>
      </trkpt>
      <trkpt lat="49.55087" lon="0.14607">
        <ele>78.3</ele>
        <time>2020-06-17T17:51:29Z</time>
      </trkpt>
      <trkpt lat="49.55091" lon="0.14611">
        <ele>78.5</ele>
        <time>2020-06-17T17:51:30Z</time>
      </trkpt>
      <trkpt lat="49.55094" lon="0.14612">
        <ele>78.6</ele>
        <time>2020-06-17T17:51:31Z</time>
      </trkpt>
      <trkpt lat="49.55097" lon="0.14614">
        <ele>78.7</ele>
        <time>2020-06-17T17:51:32Z</time>
      </trkpt>
      <trkpt lat="49.55101" lon="0.14616">
        <ele>78.9</ele>
        <time>2020-06-17T17:51:33Z</time>
      </trkpt>
      <trkpt lat="49.55104" lon="0.14618">
        <ele>79</ele>
        <time>2020-06-17T17:51:34Z</time>
      </trkpt>
      <trkpt lat="49.55107" lon="0.14619">
        <ele>79.1</ele>
        <time>2020-06-17T17:51:35Z</time>
      </trkpt>
      <trkpt lat="49.55111" lon="0.14622">
        <ele>79.3</ele>
        <time>2020-06-17T17:51:36Z</time>
      </trkpt>
      <trkpt lat="49.55114" lon="0.14625">
        <ele>79.4</ele>
        <time>2020-06-17T17:51:37Z</time>
      </trkpt>
      <trkpt lat="49.55117" lon="0.14629">
        <ele>79.5</ele>
        <time>2020-06-17T17:51:38Z</time>
      </trkpt>
      <trkpt lat="49.5512" lon="0.14631">
        <ele>79.6</ele>
        <time>2020-06-17T17:51:39Z</time>
      </trkpt>
      <trkpt lat="49.55124" lon="0.14633">
        <ele>79.7</ele>
        <time>2020-06-17T17:51:40Z</time>
      </trkpt>
      <trkpt lat="49.55126" lon="0.14636">
        <ele>79.8</ele>
        <time>2020-06-17T17:51:41Z</time>
      </trkpt>
      <trkpt lat="49.55129" lon="0.14638">
        <ele>79.8</ele>
        <time>2020-06-17T17:51:42Z</time>
      </trkpt>
      <trkpt lat="49.55131" lon="0.1464">
        <ele>79.9</ele>
        <time>2020-06-17T17:51:43Z</time>
      </trkpt>
      <trkpt lat="49.55135" lon="0.14644">
        <ele>80</ele>
        <time>2020-06-17T17:51:44Z</time>
      </trkpt>
      <trkpt lat="49.55137" lon="0.14647">
        <ele>80.1</ele>
        <time>2020-06-17T17:51:45Z</time>
      </trkpt>
      <trkpt lat="49.55139" lon="0.1465">
        <ele>80.1</ele>
        <time>2020-06-17T17:51:46Z</time>
      </trkpt>
      <trkpt lat="49.5514" lon="0.14656">
        <ele>80.3</ele>
        <time>2020-06-17T17:51:47Z</time>
      </trkpt>
      <trkpt lat="49.55141" lon="0.14658">
        <ele>80.4</ele>
        <time>2020-06-17T17:51:48Z</time>
      </trkpt>
      <trkpt lat="49.55141" lon="0.14661">
        <ele>80.4</ele>
        <time>2020-06-17T17:51:49Z</time>
      </trkpt>
      <trkpt lat="49.55143" lon="0.14663">
        <ele>80.4</ele>
        <time>2020-06-17T17:51:50Z</time>
      </trkpt>
      <trkpt lat="49.55144" lon="0.14667">
        <ele>80.5</ele>
        <time>2020-06-17T17:51:51Z</time>
      </trkpt>
      <trkpt lat="49.55144" lon="0.14669">
        <ele>80.5</ele>
        <time>2020-06-17T17:51:52Z</time>
      </trkpt>
      <trkpt lat="49.55145" lon="0.14673">
        <ele>80.6</ele>
        <time>2020-06-17T17:51:53Z</time>
      </trkpt>
      <trkpt lat="49.55145" lon="0.14678">
        <ele>80.6</ele>
        <time>2020-06-17T17:51:54Z</time>
      </trkpt>
      <trkpt lat="49.55146" lon="0.14682">
        <ele>80.7</ele>
        <time>2020-06-17T17:51:55Z</time>
      </trkpt>
      <trkpt lat="49.55148" lon="0.14686">
        <ele>80.8</ele>
        <time>2020-06-17T17:51:56Z</time>
      </trkpt>
      <trkpt lat="49.55151" lon="0.14689">
        <ele>80.8</ele>
        <time>2020-06-17T17:51:57Z</time>
      </trkpt>
      <trkpt lat="49.55154" lon="0.14692">
        <ele>80.9</ele>
        <time>2020-06-17T17:51:58Z</time>
      </trkpt>
      <trkpt lat="49.55158" lon="0.1469">
        <ele>80.9</ele>
        <time>2020-06-17T17:51:59Z</time>
      </trkpt>
      <trkpt lat="49.55162" lon="0.14688">
        <ele>80.9</ele>
        <time>2020-06-17T17:52:00Z</time>
      </trkpt>
      <trkpt lat="49.55165" lon="0.14684">
        <ele>80.9</ele>
        <time>2020-06-17T17:52:01Z</time>
      </trkpt>
      <trkpt lat="49.55169" lon="0.14678">
        <ele>80.9</ele>
        <time>2020-06-17T17:52:02Z</time>
      </trkpt>
      <trkpt lat="49.55173" lon="0.1467">
        <ele>80.9</ele>
        <time>2020-06-17T17:52:03Z</time>
      </trkpt>
      <trkpt lat="49.55177" lon="0.14662">
        <ele>80.8</ele>
        <time>2020-06-17T17:52:04Z</time>
      </trkpt>
      <trkpt lat="49.5518" lon="0.14655">
        <ele>80.8</ele>
        <time>2020-06-17T17:52:05Z</time>
      </trkpt>
      <trkpt lat="49.55184" lon="0.14649">
        <ele>80.7</ele>
        <time>2020-06-17T17:52:06Z</time>
      </trkpt>
      <trkpt lat="49.55187" lon="0.14643">
        <ele>80.7</ele>
        <time>2020-06-17T17:52:07Z</time>
      </trkpt>
      <trkpt lat="49.55191" lon="0.14638">
        <ele>80.6</ele>
        <time>2020-06-17T17:52:08Z</time>
      </trkpt>
      <trkpt lat="49.55195" lon="0.14633">
        <ele>80.6</ele>
        <time>2020-06-17T17:52:09Z</time>
      </trkpt>
      <trkpt lat="49.55199" lon="0.14627">
        <ele>80.5</ele>
        <time>2020-06-17T17:52:10Z</time>
      </trkpt>
      <trkpt lat="49.55202" lon="0.14621">
        <ele>80.5</ele>
        <time>2020-06-17T17:52:11Z</time>
      </trkpt>
      <trkpt lat="49.55205" lon="0.14616">
        <ele>80.4</ele>
        <time>2020-06-17T17:52:12Z</time>
      </trkpt>
      <trkpt lat="49.55208" lon="0.14611">
        <ele>80.4</ele>
        <time>2020-06-17T17:52:13Z</time>
      </trkpt>
      <trkpt lat="49.55213" lon="0.14608">
        <ele>80.4</ele>
        <time>2020-06-17T17:52:14Z</time>
      </trkpt>
      <trkpt lat="49.55217" lon="0.14607">
        <ele>80.5</ele>
        <time>2020-06-17T17:52:15Z</time>
      </trkpt>
      <trkpt lat="49.55221" lon="0.1461">
        <ele>80.5</ele>
        <time>2020-06-17T17:52:16Z</time>
      </trkpt>
      <trkpt lat="49.55225" lon="0.14613">
        <ele>80.6</ele>
        <time>2020-06-17T17:52:17Z</time>
      </trkpt>
      <trkpt lat="49.55228" lon="0.14617">
        <ele>80.7</ele>
        <time>2020-06-17T17:52:18Z</time>
      </trkpt>
      <trkpt lat="49.55233" lon="0.14619">
        <ele>80.9</ele>
        <time>2020-06-17T17:52:19Z</time>
      </trkpt>
      <trkpt lat="49.55236" lon="0.14624">
        <ele>81.1</ele>
        <time>2020-06-17T17:52:20Z</time>
      </trkpt>
      <trkpt lat="49.5524" lon="0.14628">
        <ele>81.3</ele>
        <time>2020-06-17T17:52:21Z</time>
      </trkpt>
      <trkpt lat="49.55243" lon="0.14632">
        <ele>81.4</ele>
        <time>2020-06-17T17:52:22Z</time>
      </trkpt>
      <trkpt lat="49.55247" lon="0.14635">
        <ele>81.5</ele>
        <time>2020-06-17T17:52:23Z</time>
      </trkpt>
      <trkpt lat="49.5525" lon="0.14639">
        <ele>81.7</ele>
        <time>2020-06-17T17:52:24Z</time>
      </trkpt>
      <trkpt lat="49.55254" lon="0.14644">
        <ele>81.9</ele>
        <time>2020-06-17T17:52:25Z</time>
      </trkpt>
      <trkpt lat="49.55257" lon="0.14647">
        <ele>82</ele>
        <time>2020-06-17T17:52:26Z</time>
      </trkpt>
      <trkpt lat="49.55262" lon="0.14648">
        <ele>82.2</ele>
        <time>2020-06-17T17:52:27Z</time>
      </trkpt>
      <trkpt lat="49.55265" lon="0.14651">
        <ele>82.3</ele>
        <time>2020-06-17T17:52:28Z</time>
      </trkpt>
      <trkpt lat="49.55269" lon="0.14655">
        <ele>82.5</ele>
        <time>2020-06-17T17:52:29Z</time>
      </trkpt>
      <trkpt lat="49.55272" lon="0.14659">
        <ele>82.7</ele>
        <time>2020-06-17T17:52:30Z</time>
      </trkpt>
      <trkpt lat="49.55276" lon="0.14663">
        <ele>82.9</ele>
        <time>2020-06-17T17:52:31Z</time>
      </trkpt>
      <trkpt lat="49.55279" lon="0.14666">
        <ele>83.1</ele>
        <time>2020-06-17T17:52:32Z</time>
      </trkpt>
      <trkpt lat="49.55282" lon="0.1467">
        <ele>83.3</ele>
        <time>2020-06-17T17:52:33Z</time>
      </trkpt>
      <trkpt lat="49.55286" lon="0.14672">
        <ele>83.4</ele>
        <time>2020-06-17T17:52:34Z</time>
      </trkpt>
      <trkpt lat="49.5529" lon="0.14675">
        <ele>83.6</ele>
        <time>2020-06-17T17:52:35Z</time>
      </trkpt>
      <trkpt lat="49.55293" lon="0.14677">
        <ele>83.8</ele>
        <time>2020-06-17T17:52:36Z</time>
      </trkpt>
      <trkpt lat="49.55298" lon="0.14682">
        <ele>84</ele>
        <time>2020-06-17T17:52:37Z</time>
      </trkpt>
      <trkpt lat="49.55301" lon="0.14685">
        <ele>84.2</ele>
        <time>2020-06-17T17:52:38Z</time>
      </trkpt>
      <trkpt lat="49.55305" lon="0.14687">
        <ele>84.4</ele>
        <time>2020-06-17T17:52:39Z</time>
      </trkpt>
      <trkpt lat="49.55309" lon="0.1469">
        <ele>84.5</ele>
        <time>2020-06-17T17:52:40Z</time>
      </trkpt>
      <trkpt lat="49.55311" lon="0.14692">
        <ele>84.7</ele>
        <time>2020-06-17T17:52:41Z</time>
      </trkpt>
      <trkpt lat="49.55315" lon="0.14694">
        <ele>84.8</ele>
        <time>2020-06-17T17:52:42Z</time>
      </trkpt>
      <trkpt lat="49.55319" lon="0.14697">
        <ele>85.1</ele>
        <time>2020-06-17T17:52:43Z</time>
      </trkpt>
      <trkpt lat="49.55322" lon="0.147">
        <ele>85.2</ele>
        <time>2020-06-17T17:52:44Z</time>
      </trkpt>
      <trkpt lat="49.55325" lon="0.14704">
        <ele>85.5</ele>
        <time>2020-06-17T17:52:45Z</time>
      </trkpt>
      <trkpt lat="49.55329" lon="0.14706">
        <ele>85.7</ele>
        <time>2020-06-17T17:52:46Z</time>
      </trkpt>
      <trkpt lat="49.55332" lon="0.14709">
        <ele>85.9</ele>
        <time>2020-06-17T17:52:47Z</time>
      </trkpt>
      <trkpt lat="49.55336" lon="0.14711">
        <ele>86.1</ele>
        <time>2020-06-17T17:52:48Z</time>
      </trkpt>
      <trkpt lat="49.55339" lon="0.14713">
        <ele>86.2</ele>
        <time>2020-06-17T17:52:49Z</time>
      </trkpt>
      <trkpt lat="49.55342" lon="0.14715">
        <ele>86.4</ele>
        <time>2020-06-17T17:52:50Z</time>
      </trkpt>
      <trkpt lat="49.55346" lon="0.14717">
        <ele>86.6</ele>
        <time>2020-06-17T17:52:51Z</time>
      </trkpt>
      <trkpt lat="49.55349" lon="0.1472">
        <ele>86.8</ele>
        <time>2020-06-17T17:52:52Z</time>
      </trkpt>
      <trkpt lat="49.55352" lon="0.14721">
        <ele>86.9</ele>
        <time>2020-06-17T17:52:53Z</time>
      </trkpt>
      <trkpt lat="49.55355" lon="0.14723">
        <ele>87.1</ele>
        <time>2020-06-17T17:52:54Z</time>
      </trkpt>
      <trkpt lat="49.55358" lon="0.14724">
        <ele>87.2</ele>
        <time>2020-06-17T17:52:55Z</time>
      </trkpt>
      <trkpt lat="49.55361" lon="0.14726">
        <ele>87.4</ele>
        <time>2020-06-17T17:52:56Z</time>
      </trkpt>
      <trkpt lat="49.55363" lon="0.1473">
        <ele>87.5</ele>
        <time>2020-06-17T17:52:57Z</time>
      </trkpt>
      <trkpt lat="49.55366" lon="0.14731">
        <ele>87.6</ele>
        <time>2020-06-17T17:52:58Z</time>
      </trkpt>
      <trkpt lat="49.5537" lon="0.14733">
        <ele>87.7</ele>
        <time>2020-06-17T17:52:59Z</time>
      </trkpt>
      <trkpt lat="49.55371" lon="0.14734">
        <ele>87.7</ele>
        <time>2020-06-17T17:53:00Z</time>
      </trkpt>
      <trkpt lat="49.55374" lon="0.14736">
        <ele>87.8</ele>
        <time>2020-06-17T17:53:01Z</time>
      </trkpt>
      <trkpt lat="49.55377" lon="0.14738">
        <ele>87.8</ele>
        <time>2020-06-17T17:53:02Z</time>
      </trkpt>
      <trkpt lat="49.55381" lon="0.14741">
        <ele>87.9</ele>
        <time>2020-06-17T17:53:03Z</time>
      </trkpt>
      <trkpt lat="49.55384" lon="0.14743">
        <ele>87.9</ele>
        <time>2020-06-17T17:53:04Z</time>
      </trkpt>
      <trkpt lat="49.55388" lon="0.14743">
        <ele>87.9</ele>
        <time>2020-06-17T17:53:05Z</time>
      </trkpt>
      <trkpt lat="49.55392" lon="0.14746">
        <ele>87.9</ele>
        <time>2020-06-17T17:53:06Z</time>
      </trkpt>
      <trkpt lat="49.55395" lon="0.14747">
        <ele>88</ele>
        <time>2020-06-17T17:53:07Z</time>
      </trkpt>
      <trkpt lat="49.55399" lon="0.14748">
        <ele>88</ele>
        <time>2020-06-17T17:53:08Z</time>
      </trkpt>
      <trkpt lat="49.55403" lon="0.14751">
        <ele>88</ele>
        <time>2020-06-17T17:53:09Z</time>
      </trkpt>
      <trkpt lat="49.55408" lon="0.14753">
        <ele>88</ele>
        <time>2020-06-17T17:53:10Z</time>
      </trkpt>
      <trkpt lat="49.55413" lon="0.14754">
        <ele>88</ele>
        <time>2020-06-17T17:53:11Z</time>
      </trkpt>
      <trkpt lat="49.55418" lon="0.14756">
        <ele>88</ele>
        <time>2020-06-17T17:53:12Z</time>
      </trkpt>
      <trkpt lat="49.55423" lon="0.14756">
        <ele>88.1</ele>
        <time>2020-06-17T17:53:13Z</time>
      </trkpt>
      <trkpt lat="49.55427" lon="0.14757">
        <ele>88.1</ele>
        <time>2020-06-17T17:53:14Z</time>
      </trkpt>
      <trkpt lat="49.55431" lon="0.14759">
        <ele>88.1</ele>
        <time>2020-06-17T17:53:15Z</time>
      </trkpt>
      <trkpt lat="49.55436" lon="0.14759">
        <ele>88.1</ele>
        <time>2020-06-17T17:53:16Z</time>
      </trkpt>
      <trkpt lat="49.55441" lon="0.1476">
        <ele>88.2</ele>
        <time>2020-06-17T17:53:17Z</time>
      </trkpt>
      <trkpt lat="49.55445" lon="0.14759">
        <ele>88.2</ele>
        <time>2020-06-17T17:53:18Z</time>
      </trkpt>
      <trkpt lat="49.5545" lon="0.14759">
        <ele>88.2</ele>
        <time>2020-06-17T17:53:19Z</time>
      </trkpt>
      <trkpt lat="49.55455" lon="0.14759">
        <ele>88.3</ele>
        <time>2020-06-17T17:53:20Z</time>
      </trkpt>
      <trkpt lat="49.55459" lon="0.14759">
        <ele>88.3</ele>
        <time>2020-06-17T17:53:21Z</time>
      </trkpt>
      <trkpt lat="49.55464" lon="0.1476">
        <ele>88.4</ele>
        <time>2020-06-17T17:53:22Z</time>
      </trkpt>
      <trkpt lat="49.55469" lon="0.14761">
        <ele>88.4</ele>
        <time>2020-06-17T17:53:23Z</time>
      </trkpt>
      <trkpt lat="49.55473" lon="0.14762">
        <ele>88.5</ele>
        <time>2020-06-17T17:53:24Z</time>
      </trkpt>
      <trkpt lat="49.55479" lon="0.14763">
        <ele>88.6</ele>
        <time>2020-06-17T17:53:25Z</time>
      </trkpt>
      <trkpt lat="49.55484" lon="0.14763">
        <ele>88.7</ele>
        <time>2020-06-17T17:53:26Z</time>
      </trkpt>
      <trkpt lat="49.55489" lon="0.14762">
        <ele>88.8</ele>
        <time>2020-06-17T17:53:27Z</time>
      </trkpt>
      <trkpt lat="49.55493" lon="0.14761">
        <ele>88.8</ele>
        <time>2020-06-17T17:53:28Z</time>
      </trkpt>
      <trkpt lat="49.55499" lon="0.1476">
        <ele>88.9</ele>
        <time>2020-06-17T17:53:29Z</time>
      </trkpt>
      <trkpt lat="49.55504" lon="0.1476">
        <ele>89</ele>
        <time>2020-06-17T17:53:30Z</time>
      </trkpt>
      <trkpt lat="49.55509" lon="0.14759">
        <ele>89</ele>
        <time>2020-06-17T17:53:31Z</time>
      </trkpt>
      <trkpt lat="49.55514" lon="0.14758">
        <ele>89.1</ele>
        <time>2020-06-17T17:53:32Z</time>
      </trkpt>
      <trkpt lat="49.55519" lon="0.14757">
        <ele>89.1</ele>
        <time>2020-06-17T17:53:33Z</time>
      </trkpt>
      <trkpt lat="49.55524" lon="0.14756">
        <ele>89.1</ele>
        <time>2020-06-17T17:53:34Z</time>
      </trkpt>
      <trkpt lat="49.55529" lon="0.14754">
        <ele>89.1</ele>
        <time>2020-06-17T17:53:35Z</time>
      </trkpt>
      <trkpt lat="49.55534" lon="0.14752">
        <ele>89</ele>
        <time>2020-06-17T17:53:36Z</time>
      </trkpt>
      <trkpt lat="49.55538" lon="0.14751">
        <ele>89</ele>
        <time>2020-06-17T17:53:37Z</time>
      </trkpt>
      <trkpt lat="49.55543" lon="0.1475">
        <ele>88.9</ele>
        <time>2020-06-17T17:53:38Z</time>
      </trkpt>
      <trkpt lat="49.55547" lon="0.1475">
        <ele>88.9</ele>
        <time>2020-06-17T17:53:39Z</time>
      </trkpt>
      <trkpt lat="49.55552" lon="0.14747">
        <ele>88.8</ele>
        <time>2020-06-17T17:53:40Z</time>
      </trkpt>
      <trkpt lat="49.55557" lon="0.14746">
        <ele>88.7</ele>
        <time>2020-06-17T17:53:41Z</time>
      </trkpt>
      <trkpt lat="49.55562" lon="0.14743">
        <ele>88.6</ele>
        <time>2020-06-17T17:53:42Z</time>
      </trkpt>
      <trkpt lat="49.55566" lon="0.1474">
        <ele>88.6</ele>
        <time>2020-06-17T17:53:43Z</time>
      </trkpt>
      <trkpt lat="49.55571" lon="0.14738">
        <ele>88.5</ele>
        <time>2020-06-17T17:53:44Z</time>
      </trkpt>
      <trkpt lat="49.55577" lon="0.14735">
        <ele>88.5</ele>
        <time>2020-06-17T17:53:45Z</time>
      </trkpt>
      <trkpt lat="49.55583" lon="0.14731">
        <ele>88.4</ele>
        <time>2020-06-17T17:53:46Z</time>
      </trkpt>
      <trkpt lat="49.55588" lon="0.14729">
        <ele>88.4</ele>
        <time>2020-06-17T17:53:47Z</time>
      </trkpt>
      <trkpt lat="49.55594" lon="0.14726">
        <ele>88.3</ele>
        <time>2020-06-17T17:53:48Z</time>
      </trkpt>
      <trkpt lat="49.55599" lon="0.14724">
        <ele>88.3</ele>
        <time>2020-06-17T17:53:49Z</time>
      </trkpt>
      <trkpt lat="49.55605" lon="0.14723">
        <ele>88.2</ele>
        <time>2020-06-17T17:53:50Z</time>
      </trkpt>
      <trkpt lat="49.5561" lon="0.14722">
        <ele>88.2</ele>
        <time>2020-06-17T17:53:51Z</time>
      </trkpt>
      <trkpt lat="49.55615" lon="0.14721">
        <ele>88.1</ele>
        <time>2020-06-17T17:53:52Z</time>
      </trkpt>
      <trkpt lat="49.55621" lon="0.14723">
        <ele>88</ele>
        <time>2020-06-17T17:53:53Z</time>
      </trkpt>
      <trkpt lat="49.55627" lon="0.14723">
        <ele>88</ele>
        <time>2020-06-17T17:53:54Z</time>
      </trkpt>
      <trkpt lat="49.55634" lon="0.14724">
        <ele>88</ele>
        <time>2020-06-17T17:53:55Z</time>
      </trkpt>
      <trkpt lat="49.5564" lon="0.14725">
        <ele>87.9</ele>
        <time>2020-06-17T17:53:56Z</time>
      </trkpt>
      <trkpt lat="49.55645" lon="0.14727">
        <ele>87.9</ele>
        <time>2020-06-17T17:53:57Z</time>
      </trkpt>
      <trkpt lat="49.5565" lon="0.14729">
        <ele>87.9</ele>
        <time>2020-06-17T17:53:58Z</time>
      </trkpt>
      <trkpt lat="49.55656" lon="0.14729">
        <ele>87.9</ele>
        <time>2020-06-17T17:53:59Z</time>
      </trkpt>
      <trkpt lat="49.55661" lon="0.1473">
        <ele>87.9</ele>
        <time>2020-06-17T17:54:00Z</time>
      </trkpt>
      <trkpt lat="49.55667" lon="0.14731">
        <ele>88</ele>
        <time>2020-06-17T17:54:01Z</time>
      </trkpt>
      <trkpt lat="49.55672" lon="0.14734">
        <ele>88</ele>
        <time>2020-06-17T17:54:02Z</time>
      </trkpt>
      <trkpt lat="49.55678" lon="0.14737">
        <ele>88</ele>
        <time>2020-06-17T17:54:03Z</time>
      </trkpt>
      <trkpt lat="49.55683" lon="0.14739">
        <ele>88</ele>
        <time>2020-06-17T17:54:04Z</time>
      </trkpt>
      <trkpt lat="49.5569" lon="0.14741">
        <ele>88</ele>
        <time>2020-06-17T17:54:05Z</time>
      </trkpt>
      <trkpt lat="49.55695" lon="0.14742">
        <ele>88.1</ele>
        <time>2020-06-17T17:54:06Z</time>
      </trkpt>
      <trkpt lat="49.557" lon="0.14744">
        <ele>88.1</ele>
        <time>2020-06-17T17:54:07Z</time>
      </trkpt>
      <trkpt lat="49.55705" lon="0.14745">
        <ele>88.1</ele>
        <time>2020-06-17T17:54:08Z</time>
      </trkpt>
      <trkpt lat="49.55711" lon="0.14747">
        <ele>88.2</ele>
        <time>2020-06-17T17:54:09Z</time>
      </trkpt>
      <trkpt lat="49.55716" lon="0.14748">
        <ele>88.3</ele>
        <time>2020-06-17T17:54:10Z</time>
      </trkpt>
      <trkpt lat="49.55721" lon="0.14749">
        <ele>88.3</ele>
        <time>2020-06-17T17:54:11Z</time>
      </trkpt>
      <trkpt lat="49.55726" lon="0.14751">
        <ele>88.4</ele>
        <time>2020-06-17T17:54:12Z</time>
      </trkpt>
      <trkpt lat="49.55731" lon="0.14752">
        <ele>88.4</ele>
        <time>2020-06-17T17:54:13Z</time>
      </trkpt>
      <trkpt lat="49.55736" lon="0.14754">
        <ele>88.4</ele>
        <time>2020-06-17T17:54:14Z</time>
      </trkpt>
      <trkpt lat="49.5574" lon="0.14755">
        <ele>88.5</ele>
        <time>2020-06-17T17:54:15Z</time>
      </trkpt>
      <trkpt lat="49.55745" lon="0.14756">
        <ele>88.5</ele>
        <time>2020-06-17T17:54:16Z</time>
      </trkpt>
      <trkpt lat="49.55749" lon="0.14757">
        <ele>88.5</ele>
        <time>2020-06-17T17:54:17Z</time>
      </trkpt>
      <trkpt lat="49.55755" lon="0.14757">
        <ele>88.5</ele>
        <time>2020-06-17T17:54:18Z</time>
      </trkpt>
      <trkpt lat="49.5576" lon="0.14758">
        <ele>88.5</ele>
        <time>2020-06-17T17:54:19Z</time>
      </trkpt>
      <trkpt lat="49.55766" lon="0.1476">
        <ele>88.5</ele>
        <time>2020-06-17T17:54:20Z</time>
      </trkpt>
      <trkpt lat="49.55771" lon="0.14762">
        <ele>88.4</ele>
        <time>2020-06-17T17:54:21Z</time>
      </trkpt>
      <trkpt lat="49.55776" lon="0.14763">
        <ele>88.4</ele>
        <time>2020-06-17T17:54:22Z</time>
      </trkpt>
      <trkpt lat="49.55781" lon="0.14764">
        <ele>88.4</ele>
        <time>2020-06-17T17:54:23Z</time>
      </trkpt>
      <trkpt lat="49.55785" lon="0.14766">
        <ele>88.4</ele>
        <time>2020-06-17T17:54:24Z</time>
      </trkpt>
      <trkpt lat="49.5579" lon="0.14768">
        <ele>88.4</ele>
        <time>2020-06-17T17:54:25Z</time>
      </trkpt>
      <trkpt lat="49.55795" lon="0.1477">
        <ele>88.3</ele>
        <time>2020-06-17T17:54:26Z</time>
      </trkpt>
      <trkpt lat="49.55801" lon="0.1477">
        <ele>88.3</ele>
        <time>2020-06-17T17:54:27Z</time>
      </trkpt>
      <trkpt lat="49.55806" lon="0.14773">
        <ele>88.3</ele>
        <time>2020-06-17T17:54:28Z</time>
      </trkpt>
      <trkpt lat="49.55812" lon="0.14774">
        <ele>88.4</ele>
        <time>2020-06-17T17:54:29Z</time>
      </trkpt>
      <trkpt lat="49.55817" lon="0.14776">
        <ele>88.4</ele>
        <time>2020-06-17T17:54:30Z</time>
      </trkpt>
      <trkpt lat="49.55823" lon="0.14777">
        <ele>88.4</ele>
        <time>2020-06-17T17:54:31Z</time>
      </trkpt>
      <trkpt lat="49.55828" lon="0.14778">
        <ele>88.5</ele>
        <time>2020-06-17T17:54:32Z</time>
      </trkpt>
      <trkpt lat="49.55834" lon="0.1478">
        <ele>88.5</ele>
        <time>2020-06-17T17:54:33Z</time>
      </trkpt>
      <trkpt lat="49.5584" lon="0.1478">
        <ele>88.5</ele>
        <time>2020-06-17T17:54:34Z</time>
      </trkpt>
      <trkpt lat="49.55845" lon="0.14782">
        <ele>88.5</ele>
        <time>2020-06-17T17:54:35Z</time>
      </trkpt>
      <trkpt lat="49.5585" lon="0.14784">
        <ele>88.5</ele>
        <time>2020-06-17T17:54:36Z</time>
      </trkpt>
      <trkpt lat="49.55856" lon="0.14786">
        <ele>88.5</ele>
        <time>2020-06-17T17:54:37Z</time>
      </trkpt>
      <trkpt lat="49.55861" lon="0.14787">
        <ele>88.5</ele>
        <time>2020-06-17T17:54:38Z</time>
      </trkpt>
      <trkpt lat="49.55866" lon="0.14788">
        <ele>88.4</ele>
        <time>2020-06-17T17:54:39Z</time>
      </trkpt>
      <trkpt lat="49.55871" lon="0.14789">
        <ele>88.4</ele>
        <time>2020-06-17T17:54:40Z</time>
      </trkpt>
      <trkpt lat="49.55876" lon="0.1479">
        <ele>88.4</ele>
        <time>2020-06-17T17:54:41Z</time>
      </trkpt>
      <trkpt lat="49.5588" lon="0.14791">
        <ele>88.3</ele>
        <time>2020-06-17T17:54:42Z</time>
      </trkpt>
      <trkpt lat="49.55885" lon="0.14792">
        <ele>88.3</ele>
        <time>2020-06-17T17:54:43Z</time>
      </trkpt>
      <trkpt lat="49.55889" lon="0.14794">
        <ele>88.3</ele>
        <time>2020-06-17T17:54:44Z</time>
      </trkpt>
      <trkpt lat="49.55895" lon="0.14795">
        <ele>88.3</ele>
        <time>2020-06-17T17:54:45Z</time>
      </trkpt>
      <trkpt lat="49.559" lon="0.14796">
        <ele>88.3</ele>
        <time>2020-06-17T17:54:46Z</time>
      </trkpt>
      <trkpt lat="49.55906" lon="0.14796">
        <ele>88.3</ele>
        <time>2020-06-17T17:54:47Z</time>
      </trkpt>
      <trkpt lat="49.55911" lon="0.14797">
        <ele>88.3</ele>
        <time>2020-06-17T17:54:48Z</time>
      </trkpt>
      <trkpt lat="49.55916" lon="0.14798">
        <ele>88.3</ele>
        <time>2020-06-17T17:54:49Z</time>
      </trkpt>
      <trkpt lat="49.5592" lon="0.148">
        <ele>88.2</ele>
        <time>2020-06-17T17:54:50Z</time>
      </trkpt>
      <trkpt lat="49.55925" lon="0.148">
        <ele>88.2</ele>
        <time>2020-06-17T17:54:51Z</time>
      </trkpt>
      <trkpt lat="49.5593" lon="0.14801">
        <ele>88.1</ele>
        <time>2020-06-17T17:54:52Z</time>
      </trkpt>
      <trkpt lat="49.55934" lon="0.14802">
        <ele>88.1</ele>
        <time>2020-06-17T17:54:53Z</time>
      </trkpt>
      <trkpt lat="49.55939" lon="0.14801">
        <ele>88</ele>
        <time>2020-06-17T17:54:54Z</time>
      </trkpt>
      <trkpt lat="49.55945" lon="0.148">
        <ele>88</ele>
        <time>2020-06-17T17:54:55Z</time>
      </trkpt>
      <trkpt lat="49.5595" lon="0.148">
        <ele>87.9</ele>
        <time>2020-06-17T17:54:56Z</time>
      </trkpt>
      <trkpt lat="49.55956" lon="0.14801">
        <ele>87.8</ele>
        <time>2020-06-17T17:54:57Z</time>
      </trkpt>
      <trkpt lat="49.55961" lon="0.14803">
        <ele>87.8</ele>
        <time>2020-06-17T17:54:58Z</time>
      </trkpt>
      <trkpt lat="49.55966" lon="0.14803">
        <ele>87.7</ele>
        <time>2020-06-17T17:54:59Z</time>
      </trkpt>
      <trkpt lat="49.55971" lon="0.14803">
        <ele>87.7</ele>
        <time>2020-06-17T17:55:00Z</time>
      </trkpt>
      <trkpt lat="49.55976" lon="0.14802">
        <ele>87.6</ele>
        <time>2020-06-17T17:55:01Z</time>
      </trkpt>
      <trkpt lat="49.55981" lon="0.14803">
        <ele>87.6</ele>
        <time>2020-06-17T17:55:02Z</time>
      </trkpt>
      <trkpt lat="49.55986" lon="0.14802">
        <ele>87.5</ele>
        <time>2020-06-17T17:55:03Z</time>
      </trkpt>
      <trkpt lat="49.55992" lon="0.14803">
        <ele>87.5</ele>
        <time>2020-06-17T17:55:04Z</time>
      </trkpt>
      <trkpt lat="49.55997" lon="0.14803">
        <ele>87.4</ele>
        <time>2020-06-17T17:55:05Z</time>
      </trkpt>
      <trkpt lat="49.56003" lon="0.14804">
        <ele>87.3</ele>
        <time>2020-06-17T17:55:06Z</time>
      </trkpt>
      <trkpt lat="49.56008" lon="0.14805">
        <ele>87.2</ele>
        <time>2020-06-17T17:55:07Z</time>
      </trkpt>
      <trkpt lat="49.56014" lon="0.14807">
        <ele>87.1</ele>
        <time>2020-06-17T17:55:08Z</time>
      </trkpt>
      <trkpt lat="49.5602" lon="0.14808">
        <ele>87</ele>
        <time>2020-06-17T17:55:09Z</time>
      </trkpt>
      <trkpt lat="49.56025" lon="0.14809">
        <ele>86.9</ele>
        <time>2020-06-17T17:55:10Z</time>
      </trkpt>
      <trkpt lat="49.5603" lon="0.1481">
        <ele>86.9</ele>
        <time>2020-06-17T17:55:11Z</time>
      </trkpt>
      <trkpt lat="49.56036" lon="0.14811">
        <ele>86.8</ele>
        <time>2020-06-17T17:55:12Z</time>
      </trkpt>
      <trkpt lat="49.56042" lon="0.14811">
        <ele>86.7</ele>
        <time>2020-06-17T17:55:13Z</time>
      </trkpt>
      <trkpt lat="49.56047" lon="0.14813">
        <ele>86.6</ele>
        <time>2020-06-17T17:55:14Z</time>
      </trkpt>
      <trkpt lat="49.56053" lon="0.14814">
        <ele>86.6</ele>
        <time>2020-06-17T17:55:15Z</time>
      </trkpt>
      <trkpt lat="49.56059" lon="0.14817">
        <ele>86.5</ele>
        <time>2020-06-17T17:55:16Z</time>
      </trkpt>
      <trkpt lat="49.56064" lon="0.14818">
        <ele>86.4</ele>
        <time>2020-06-17T17:55:17Z</time>
      </trkpt>
      <trkpt lat="49.5607" lon="0.14819">
        <ele>86.3</ele>
        <time>2020-06-17T17:55:18Z</time>
      </trkpt>
      <trkpt lat="49.56077" lon="0.14819">
        <ele>86.2</ele>
        <time>2020-06-17T17:55:19Z</time>
      </trkpt>
      <trkpt lat="49.56082" lon="0.14821">
        <ele>86.1</ele>
        <time>2020-06-17T17:55:20Z</time>
      </trkpt>
      <trkpt lat="49.56088" lon="0.14823">
        <ele>85.9</ele>
        <time>2020-06-17T17:55:21Z</time>
      </trkpt>
      <trkpt lat="49.56095" lon="0.14825">
        <ele>85.8</ele>
        <time>2020-06-17T17:55:22Z</time>
      </trkpt>
      <trkpt lat="49.56101" lon="0.14826">
        <ele>85.7</ele>
        <time>2020-06-17T17:55:23Z</time>
      </trkpt>
      <trkpt lat="49.56107" lon="0.14829">
        <ele>85.6</ele>
        <time>2020-06-17T17:55:24Z</time>
      </trkpt>
      <trkpt lat="49.56113" lon="0.14832">
        <ele>85.5</ele>
        <time>2020-06-17T17:55:25Z</time>
      </trkpt>
      <trkpt lat="49.5612" lon="0.14833">
        <ele>85.5</ele>
        <time>2020-06-17T17:55:26Z</time>
      </trkpt>
      <trkpt lat="49.56126" lon="0.14835">
        <ele>85.5</ele>
        <time>2020-06-17T17:55:27Z</time>
      </trkpt>
      <trkpt lat="49.56132" lon="0.14836">
        <ele>85.5</ele>
        <time>2020-06-17T17:55:28Z</time>
      </trkpt>
      <trkpt lat="49.56137" lon="0.14838">
        <ele>85.4</ele>
        <time>2020-06-17T17:55:29Z</time>
      </trkpt>
      <trkpt lat="49.56142" lon="0.1484">
        <ele>85.4</ele>
        <time>2020-06-17T17:55:30Z</time>
      </trkpt>
      <trkpt lat="49.56146" lon="0.14843">
        <ele>85.4</ele>
        <time>2020-06-17T17:55:31Z</time>
      </trkpt>
      <trkpt lat="49.56151" lon="0.14845">
        <ele>85.4</ele>
        <time>2020-06-17T17:55:32Z</time>
      </trkpt>
      <trkpt lat="49.56157" lon="0.14846">
        <ele>85.4</ele>
        <time>2020-06-17T17:55:33Z</time>
      </trkpt>
      <trkpt lat="49.56162" lon="0.14846">
        <ele>85.4</ele>
        <time>2020-06-17T17:55:34Z</time>
      </trkpt>
      <trkpt lat="49.56167" lon="0.14848">
        <ele>85.4</ele>
        <time>2020-06-17T17:55:35Z</time>
      </trkpt>
      <trkpt lat="49.56173" lon="0.14849">
        <ele>85.4</ele>
        <time>2020-06-17T17:55:36Z</time>
      </trkpt>
      <trkpt lat="49.56177" lon="0.1485">
        <ele>85.4</ele>
        <time>2020-06-17T17:55:37Z</time>
      </trkpt>
      <trkpt lat="49.5618" lon="0.1485">
        <ele>85.4</ele>
        <time>2020-06-17T17:55:38Z</time>
      </trkpt>
      <trkpt lat="49.56184" lon="0.14851">
        <ele>85.4</ele>
        <time>2020-06-17T17:55:39Z</time>
      </trkpt>
      <trkpt lat="49.56189" lon="0.14852">
        <ele>85.4</ele>
        <time>2020-06-17T17:55:40Z</time>
      </trkpt>
      <trkpt lat="49.56193" lon="0.14852">
        <ele>85.4</ele>
        <time>2020-06-17T17:55:41Z</time>
      </trkpt>
      <trkpt lat="49.56197" lon="0.14852">
        <ele>85.4</ele>
        <time>2020-06-17T17:55:42Z</time>
      </trkpt>
      <trkpt lat="49.56201" lon="0.1485">
        <ele>85.3</ele>
        <time>2020-06-17T17:55:43Z</time>
      </trkpt>
      <trkpt lat="49.56204" lon="0.14849">
        <ele>85.2</ele>
        <time>2020-06-17T17:55:44Z</time>
      </trkpt>
      <trkpt lat="49.56209" lon="0.1485">
        <ele>85.1</ele>
        <time>2020-06-17T17:55:45Z</time>
      </trkpt>
      <trkpt lat="49.56212" lon="0.14851">
        <ele>85.2</ele>
        <time>2020-06-17T17:55:46Z</time>
      </trkpt>
      <trkpt lat="49.56217" lon="0.14854">
        <ele>85.1</ele>
        <time>2020-06-17T17:55:47Z</time>
      </trkpt>
      <trkpt lat="49.56222" lon="0.14856">
        <ele>85.1</ele>
        <time>2020-06-17T17:55:48Z</time>
      </trkpt>
      <trkpt lat="49.56227" lon="0.14858">
        <ele>85.1</ele>
        <time>2020-06-17T17:55:49Z</time>
      </trkpt>
      <trkpt lat="49.56232" lon="0.1486">
        <ele>85.1</ele>
        <time>2020-06-17T17:55:50Z</time>
      </trkpt>
      <trkpt lat="49.56237" lon="0.1486">
        <ele>85</ele>
        <time>2020-06-17T17:55:51Z</time>
      </trkpt>
      <trkpt lat="49.56242" lon="0.14862">
        <ele>85</ele>
        <time>2020-06-17T17:55:52Z</time>
      </trkpt>
      <trkpt lat="49.56246" lon="0.14864">
        <ele>85</ele>
        <time>2020-06-17T17:55:53Z</time>
      </trkpt>
      <trkpt lat="49.56252" lon="0.14864">
        <ele>84.9</ele>
        <time>2020-06-17T17:55:54Z</time>
      </trkpt>
      <trkpt lat="49.56254" lon="0.14864">
        <ele>84.8</ele>
        <time>2020-06-17T17:55:55Z</time>
      </trkpt>
      <trkpt lat="49.5626" lon="0.14862">
        <ele>84.8</ele>
        <time>2020-06-17T17:55:56Z</time>
      </trkpt>
      <trkpt lat="49.56265" lon="0.1486">
        <ele>84.7</ele>
        <time>2020-06-17T17:55:57Z</time>
      </trkpt>
      <trkpt lat="49.56269" lon="0.14859">
        <ele>84.6</ele>
        <time>2020-06-17T17:55:58Z</time>
      </trkpt>
      <trkpt lat="49.56274" lon="0.14858">
        <ele>84.5</ele>
        <time>2020-06-17T17:55:59Z</time>
      </trkpt>
      <trkpt lat="49.56278" lon="0.14856">
        <ele>84.4</ele>
        <time>2020-06-17T17:56:00Z</time>
      </trkpt>
      <trkpt lat="49.56282" lon="0.14855">
        <ele>84.3</ele>
        <time>2020-06-17T17:56:01Z</time>
      </trkpt>
      <trkpt lat="49.56287" lon="0.14853">
        <ele>84.1</ele>
        <time>2020-06-17T17:56:02Z</time>
      </trkpt>
      <trkpt lat="49.56292" lon="0.1485">
        <ele>83.9</ele>
        <time>2020-06-17T17:56:03Z</time>
      </trkpt>
      <trkpt lat="49.56297" lon="0.14848">
        <ele>83.7</ele>
        <time>2020-06-17T17:56:04Z</time>
      </trkpt>
      <trkpt lat="49.56302" lon="0.14846">
        <ele>83.2</ele>
        <time>2020-06-17T17:56:05Z</time>
      </trkpt>
      <trkpt lat="49.56307" lon="0.14844">
        <ele>82.9</ele>
        <time>2020-06-17T17:56:06Z</time>
      </trkpt>
      <trkpt lat="49.56312" lon="0.14841">
        <ele>82.6</ele>
        <time>2020-06-17T17:56:07Z</time>
      </trkpt>
      <trkpt lat="49.56317" lon="0.14839">
        <ele>82.3</ele>
        <time>2020-06-17T17:56:08Z</time>
      </trkpt>
      <trkpt lat="49.56322" lon="0.14836">
        <ele>82</ele>
        <time>2020-06-17T17:56:09Z</time>
      </trkpt>
      <trkpt lat="49.56329" lon="0.14833">
        <ele>81.6</ele>
        <time>2020-06-17T17:56:10Z</time>
      </trkpt>
      <trkpt lat="49.56334" lon="0.14831">
        <ele>81.3</ele>
        <time>2020-06-17T17:56:11Z</time>
      </trkpt>
      <trkpt lat="49.56339" lon="0.14828">
        <ele>81</ele>
        <time>2020-06-17T17:56:12Z</time>
      </trkpt>
      <trkpt lat="49.56345" lon="0.14824">
        <ele>80.6</ele>
        <time>2020-06-17T17:56:13Z</time>
      </trkpt>
      <trkpt lat="49.56348" lon="0.14821">
        <ele>80.3</ele>
        <time>2020-06-17T17:56:14Z</time>
      </trkpt>
      <trkpt lat="49.56353" lon="0.14818">
        <ele>79.9</ele>
        <time>2020-06-17T17:56:15Z</time>
      </trkpt>
      <trkpt lat="49.5636" lon="0.14815">
        <ele>79.5</ele>
        <time>2020-06-17T17:56:16Z</time>
      </trkpt>
      <trkpt lat="49.56365" lon="0.14815">
        <ele>79.1</ele>
        <time>2020-06-17T17:56:17Z</time>
      </trkpt>
      <trkpt lat="49.56372" lon="0.14813">
        <ele>78.7</ele>
        <time>2020-06-17T17:56:18Z</time>
      </trkpt>
      <trkpt lat="49.56378" lon="0.14812">
        <ele>78.3</ele>
        <time>2020-06-17T17:56:19Z</time>
      </trkpt>
      <trkpt lat="49.56385" lon="0.14812">
        <ele>77.9</ele>
        <time>2020-06-17T17:56:20Z</time>
      </trkpt>
      <trkpt lat="49.56391" lon="0.14811">
        <ele>77.5</ele>
        <time>2020-06-17T17:56:21Z</time>
      </trkpt>
      <trkpt lat="49.56397" lon="0.1481">
        <ele>77.1</ele>
        <time>2020-06-17T17:56:22Z</time>
      </trkpt>
      <trkpt lat="49.56404" lon="0.1481">
        <ele>76.7</ele>
        <time>2020-06-17T17:56:23Z</time>
      </trkpt>
      <trkpt lat="49.56409" lon="0.14811">
        <ele>76.3</ele>
        <time>2020-06-17T17:56:24Z</time>
      </trkpt>
      <trkpt lat="49.56417" lon="0.1481">
        <ele>75.7</ele>
        <time>2020-06-17T17:56:25Z</time>
      </trkpt>
      <trkpt lat="49.56423" lon="0.1481">
        <ele>75.3</ele>
        <time>2020-06-17T17:56:26Z</time>
      </trkpt>
      <trkpt lat="49.5643" lon="0.14811">
        <ele>74.8</ele>
        <time>2020-06-17T17:56:27Z</time>
      </trkpt>
      <trkpt lat="49.56438" lon="0.14811">
        <ele>74.3</ele>
        <time>2020-06-17T17:56:28Z</time>
      </trkpt>
      <trkpt lat="49.56445" lon="0.1481">
        <ele>73.8</ele>
        <time>2020-06-17T17:56:29Z</time>
      </trkpt>
      <trkpt lat="49.56453" lon="0.14809">
        <ele>73.4</ele>
        <time>2020-06-17T17:56:30Z</time>
      </trkpt>
      <trkpt lat="49.5646" lon="0.14809">
        <ele>72.9</ele>
        <time>2020-06-17T17:56:31Z</time>
      </trkpt>
      <trkpt lat="49.56468" lon="0.14809">
        <ele>72.5</ele>
        <time>2020-06-17T17:56:32Z</time>
      </trkpt>
      <trkpt lat="49.56476" lon="0.1481">
        <ele>72.2</ele>
        <time>2020-06-17T17:56:33Z</time>
      </trkpt>
      <trkpt lat="49.56482" lon="0.1481">
        <ele>72</ele>
        <time>2020-06-17T17:56:34Z</time>
      </trkpt>
      <trkpt lat="49.56489" lon="0.1481">
        <ele>71.9</ele>
        <time>2020-06-17T17:56:35Z</time>
      </trkpt>
      <trkpt lat="49.56496" lon="0.14808">
        <ele>71.9</ele>
        <time>2020-06-17T17:56:36Z</time>
      </trkpt>
      <trkpt lat="49.56504" lon="0.14806">
        <ele>72</ele>
        <time>2020-06-17T17:56:37Z</time>
      </trkpt>
      <trkpt lat="49.56511" lon="0.14804">
        <ele>72.1</ele>
        <time>2020-06-17T17:56:38Z</time>
      </trkpt>
      <trkpt lat="49.56516" lon="0.14801">
        <ele>72.2</ele>
        <time>2020-06-17T17:56:39Z</time>
      </trkpt>
      <trkpt lat="49.56521" lon="0.14798">
        <ele>72.4</ele>
        <time>2020-06-17T17:56:40Z</time>
      </trkpt>
      <trkpt lat="49.56525" lon="0.14795">
        <ele>72.5</ele>
        <time>2020-06-17T17:56:41Z</time>
      </trkpt>
      <trkpt lat="49.5653" lon="0.14793">
        <ele>72.7</ele>
        <time>2020-06-17T17:56:42Z</time>
      </trkpt>
      <trkpt lat="49.56535" lon="0.1479">
        <ele>72.9</ele>
        <time>2020-06-17T17:56:43Z</time>
      </trkpt>
      <trkpt lat="49.5654" lon="0.14785">
        <ele>73.2</ele>
        <time>2020-06-17T17:56:44Z</time>
      </trkpt>
      <trkpt lat="49.56544" lon="0.1478">
        <ele>73.5</ele>
        <time>2020-06-17T17:56:45Z</time>
      </trkpt>
      <trkpt lat="49.56549" lon="0.14776">
        <ele>73.8</ele>
        <time>2020-06-17T17:56:46Z</time>
      </trkpt>
      <trkpt lat="49.56554" lon="0.14775">
        <ele>74.1</ele>
        <time>2020-06-17T17:56:47Z</time>
      </trkpt>
      <trkpt lat="49.5656" lon="0.14773">
        <ele>74.4</ele>
        <time>2020-06-17T17:56:48Z</time>
      </trkpt>
      <trkpt lat="49.56565" lon="0.1477">
        <ele>74.7</ele>
        <time>2020-06-17T17:56:49Z</time>
      </trkpt>
      <trkpt lat="49.56571" lon="0.14769">
        <ele>75</ele>
        <time>2020-06-17T17:56:50Z</time>
      </trkpt>
      <trkpt lat="49.56576" lon="0.14769">
        <ele>75.3</ele>
        <time>2020-06-17T17:56:51Z</time>
      </trkpt>
      <trkpt lat="49.5658" lon="0.14769">
        <ele>75.5</ele>
        <time>2020-06-17T17:56:52Z</time>
      </trkpt>
      <trkpt lat="49.56584" lon="0.14769">
        <ele>75.7</ele>
        <time>2020-06-17T17:56:53Z</time>
      </trkpt>
      <trkpt lat="49.56588" lon="0.14768">
        <ele>75.9</ele>
        <time>2020-06-17T17:56:54Z</time>
      </trkpt>
      <trkpt lat="49.56592" lon="0.14769">
        <ele>76.1</ele>
        <time>2020-06-17T17:56:55Z</time>
      </trkpt>
      <trkpt lat="49.56597" lon="0.14769">
        <ele>76.3</ele>
        <time>2020-06-17T17:56:56Z</time>
      </trkpt>
      <trkpt lat="49.56602" lon="0.1477">
        <ele>76.6</ele>
        <time>2020-06-17T17:56:57Z</time>
      </trkpt>
      <trkpt lat="49.56606" lon="0.1477">
        <ele>76.8</ele>
        <time>2020-06-17T17:56:58Z</time>
      </trkpt>
      <trkpt lat="49.5661" lon="0.14769">
        <ele>77.1</ele>
        <time>2020-06-17T17:56:59Z</time>
      </trkpt>
      <trkpt lat="49.56614" lon="0.14769">
        <ele>77.3</ele>
        <time>2020-06-17T17:57:00Z</time>
      </trkpt>
      <trkpt lat="49.56618" lon="0.14768">
        <ele>77.6</ele>
        <time>2020-06-17T17:57:01Z</time>
      </trkpt>
      <trkpt lat="49.56622" lon="0.14768">
        <ele>77.9</ele>
        <time>2020-06-17T17:57:02Z</time>
      </trkpt>
      <trkpt lat="49.56626" lon="0.14768">
        <ele>78.2</ele>
        <time>2020-06-17T17:57:03Z</time>
      </trkpt>
      <trkpt lat="49.56629" lon="0.14768">
        <ele>78.4</ele>
        <time>2020-06-17T17:57:04Z</time>
      </trkpt>
      <trkpt lat="49.56632" lon="0.14766">
        <ele>78.6</ele>
        <time>2020-06-17T17:57:05Z</time>
      </trkpt>
      <trkpt lat="49.56635" lon="0.14765">
        <ele>78.9</ele>
        <time>2020-06-17T17:57:06Z</time>
      </trkpt>
      <trkpt lat="49.56639" lon="0.14766">
        <ele>79.1</ele>
        <time>2020-06-17T17:57:07Z</time>
      </trkpt>
      <trkpt lat="49.5664" lon="0.14766">
        <ele>79.2</ele>
        <time>2020-06-17T17:57:08Z</time>
      </trkpt>
      <trkpt lat="49.56643" lon="0.14768">
        <ele>79.4</ele>
        <time>2020-06-17T17:57:09Z</time>
      </trkpt>
      <trkpt lat="49.56648" lon="0.14769">
        <ele>79.8</ele>
        <time>2020-06-17T17:57:10Z</time>
      </trkpt>
      <trkpt lat="49.56652" lon="0.1477">
        <ele>80</ele>
        <time>2020-06-17T17:57:11Z</time>
      </trkpt>
      <trkpt lat="49.56658" lon="0.14772">
        <ele>80.3</ele>
        <time>2020-06-17T17:57:12Z</time>
      </trkpt>
      <trkpt lat="49.56661" lon="0.14773">
        <ele>80.6</ele>
        <time>2020-06-17T17:57:13Z</time>
      </trkpt>
      <trkpt lat="49.56667" lon="0.14773">
        <ele>80.9</ele>
        <time>2020-06-17T17:57:14Z</time>
      </trkpt>
      <trkpt lat="49.5667" lon="0.14772">
        <ele>81.1</ele>
        <time>2020-06-17T17:57:15Z</time>
      </trkpt>
      <trkpt lat="49.56675" lon="0.14771">
        <ele>81.3</ele>
        <time>2020-06-17T17:57:16Z</time>
      </trkpt>
      <trkpt lat="49.5668" lon="0.1477">
        <ele>81.5</ele>
        <time>2020-06-17T17:57:17Z</time>
      </trkpt>
      <trkpt lat="49.56684" lon="0.1477">
        <ele>81.7</ele>
        <time>2020-06-17T17:57:18Z</time>
      </trkpt>
      <trkpt lat="49.56688" lon="0.14771">
        <ele>81.9</ele>
        <time>2020-06-17T17:57:19Z</time>
      </trkpt>
      <trkpt lat="49.56692" lon="0.14772">
        <ele>82.1</ele>
        <time>2020-06-17T17:57:20Z</time>
      </trkpt>
      <trkpt lat="49.56697" lon="0.14773">
        <ele>82.3</ele>
        <time>2020-06-17T17:57:21Z</time>
      </trkpt>
      <trkpt lat="49.56703" lon="0.14774">
        <ele>82.5</ele>
        <time>2020-06-17T17:57:22Z</time>
      </trkpt>
      <trkpt lat="49.56707" lon="0.14775">
        <ele>82.7</ele>
        <time>2020-06-17T17:57:23Z</time>
      </trkpt>
      <trkpt lat="49.56713" lon="0.14776">
        <ele>82.9</ele>
        <time>2020-06-17T17:57:24Z</time>
      </trkpt>
      <trkpt lat="49.56717" lon="0.14778">
        <ele>83.1</ele>
        <time>2020-06-17T17:57:25Z</time>
      </trkpt>
      <trkpt lat="49.56723" lon="0.14779">
        <ele>83.3</ele>
        <time>2020-06-17T17:57:26Z</time>
      </trkpt>
      <trkpt lat="49.56727" lon="0.14779">
        <ele>83.4</ele>
        <time>2020-06-17T17:57:27Z</time>
      </trkpt>
      <trkpt lat="49.56733" lon="0.14779">
        <ele>83.6</ele>
        <time>2020-06-17T17:57:28Z</time>
      </trkpt>
      <trkpt lat="49.56738" lon="0.14778">
        <ele>83.7</ele>
        <time>2020-06-17T17:57:29Z</time>
      </trkpt>
      <trkpt lat="49.56744" lon="0.14778">
        <ele>83.9</ele>
        <time>2020-06-17T17:57:30Z</time>
      </trkpt>
      <trkpt lat="49.56749" lon="0.14778">
        <ele>84</ele>
        <time>2020-06-17T17:57:31Z</time>
      </trkpt>
      <trkpt lat="49.56752" lon="0.14779">
        <ele>84</ele>
        <time>2020-06-17T17:57:32Z</time>
      </trkpt>
      <trkpt lat="49.56757" lon="0.14779">
        <ele>84.1</ele>
        <time>2020-06-17T17:57:33Z</time>
      </trkpt>
      <trkpt lat="49.56762" lon="0.1478">
        <ele>84.2</ele>
        <time>2020-06-17T17:57:34Z</time>
      </trkpt>
      <trkpt lat="49.56764" lon="0.14781">
        <ele>84.3</ele>
        <time>2020-06-17T17:57:35Z</time>
      </trkpt>
      <trkpt lat="49.56769" lon="0.14781">
        <ele>84.4</ele>
        <time>2020-06-17T17:57:36Z</time>
      </trkpt>
      <trkpt lat="49.56773" lon="0.1478">
        <ele>84.4</ele>
        <time>2020-06-17T17:57:37Z</time>
      </trkpt>
      <trkpt lat="49.56777" lon="0.14781">
        <ele>84.4</ele>
        <time>2020-06-17T17:57:38Z</time>
      </trkpt>
      <trkpt lat="49.56782" lon="0.14781">
        <ele>84.5</ele>
        <time>2020-06-17T17:57:39Z</time>
      </trkpt>
      <trkpt lat="49.56787" lon="0.14781">
        <ele>84.6</ele>
        <time>2020-06-17T17:57:40Z</time>
      </trkpt>
      <trkpt lat="49.56792" lon="0.14781">
        <ele>84.6</ele>
        <time>2020-06-17T17:57:41Z</time>
      </trkpt>
      <trkpt lat="49.56796" lon="0.1478">
        <ele>84.6</ele>
        <time>2020-06-17T17:57:42Z</time>
      </trkpt>
      <trkpt lat="49.56801" lon="0.1478">
        <ele>84.7</ele>
        <time>2020-06-17T17:57:43Z</time>
      </trkpt>
      <trkpt lat="49.56807" lon="0.14781">
        <ele>84.7</ele>
        <time>2020-06-17T17:57:44Z</time>
      </trkpt>
      <trkpt lat="49.56812" lon="0.14783">
        <ele>84.8</ele>
        <time>2020-06-17T17:57:45Z</time>
      </trkpt>
      <trkpt lat="49.56817" lon="0.14784">
        <ele>84.9</ele>
        <time>2020-06-17T17:57:46Z</time>
      </trkpt>
      <trkpt lat="49.56821" lon="0.14784">
        <ele>84.9</ele>
        <time>2020-06-17T17:57:47Z</time>
      </trkpt>
      <trkpt lat="49.56827" lon="0.14785">
        <ele>85</ele>
        <time>2020-06-17T17:57:48Z</time>
      </trkpt>
      <trkpt lat="49.56831" lon="0.14786">
        <ele>85</ele>
        <time>2020-06-17T17:57:49Z</time>
      </trkpt>
      <trkpt lat="49.56838" lon="0.14787">
        <ele>85.1</ele>
        <time>2020-06-17T17:57:50Z</time>
      </trkpt>
      <trkpt lat="49.56842" lon="0.14788">
        <ele>85.2</ele>
        <time>2020-06-17T17:57:51Z</time>
      </trkpt>
      <trkpt lat="49.56846" lon="0.14788">
        <ele>85.3</ele>
        <time>2020-06-17T17:57:52Z</time>
      </trkpt>
      <trkpt lat="49.56852" lon="0.14789">
        <ele>85.3</ele>
        <time>2020-06-17T17:57:53Z</time>
      </trkpt>
      <trkpt lat="49.56856" lon="0.14791">
        <ele>85.4</ele>
        <time>2020-06-17T17:57:54Z</time>
      </trkpt>
      <trkpt lat="49.56861" lon="0.14793">
        <ele>85.4</ele>
        <time>2020-06-17T17:57:55Z</time>
      </trkpt>
      <trkpt lat="49.56865" lon="0.14795">
        <ele>85.5</ele>
        <time>2020-06-17T17:57:56Z</time>
      </trkpt>
      <trkpt lat="49.56869" lon="0.14797">
        <ele>85.5</ele>
        <time>2020-06-17T17:57:57Z</time>
      </trkpt>
      <trkpt lat="49.56873" lon="0.14799">
        <ele>85.6</ele>
        <time>2020-06-17T17:57:58Z</time>
      </trkpt>
      <trkpt lat="49.56878" lon="0.148">
        <ele>85.7</ele>
        <time>2020-06-17T17:57:59Z</time>
      </trkpt>
      <trkpt lat="49.56882" lon="0.14802">
        <ele>85.7</ele>
        <time>2020-06-17T17:58:00Z</time>
      </trkpt>
      <trkpt lat="49.56887" lon="0.14804">
        <ele>85.8</ele>
        <time>2020-06-17T17:58:01Z</time>
      </trkpt>
      <trkpt lat="49.56893" lon="0.14806">
        <ele>85.8</ele>
        <time>2020-06-17T17:58:02Z</time>
      </trkpt>
      <trkpt lat="49.56898" lon="0.14809">
        <ele>85.9</ele>
        <time>2020-06-17T17:58:03Z</time>
      </trkpt>
      <trkpt lat="49.56901" lon="0.14812">
        <ele>85.9</ele>
        <time>2020-06-17T17:58:04Z</time>
      </trkpt>
      <trkpt lat="49.56905" lon="0.14814">
        <ele>86</ele>
        <time>2020-06-17T17:58:05Z</time>
      </trkpt>
      <trkpt lat="49.56909" lon="0.14817">
        <ele>86.1</ele>
        <time>2020-06-17T17:58:06Z</time>
      </trkpt>
      <trkpt lat="49.56915" lon="0.14819">
        <ele>86.2</ele>
        <time>2020-06-17T17:58:07Z</time>
      </trkpt>
      <trkpt lat="49.56919" lon="0.14823">
        <ele>86.3</ele>
        <time>2020-06-17T17:58:08Z</time>
      </trkpt>
      <trkpt lat="49.56923" lon="0.14826">
        <ele>86.5</ele>
        <time>2020-06-17T17:58:09Z</time>
      </trkpt>
      <trkpt lat="49.56928" lon="0.14827">
        <ele>86.6</ele>
        <time>2020-06-17T17:58:10Z</time>
      </trkpt>
      <trkpt lat="49.56932" lon="0.1483">
        <ele>86.7</ele>
        <time>2020-06-17T17:58:11Z</time>
      </trkpt>
      <trkpt lat="49.56938" lon="0.14832">
        <ele>86.9</ele>
        <time>2020-06-17T17:58:12Z</time>
      </trkpt>
      <trkpt lat="49.56941" lon="0.14834">
        <ele>87</ele>
        <time>2020-06-17T17:58:13Z</time>
      </trkpt>
      <trkpt lat="49.56946" lon="0.14837">
        <ele>87.2</ele>
        <time>2020-06-17T17:58:14Z</time>
      </trkpt>
      <trkpt lat="49.56951" lon="0.1484">
        <ele>87.3</ele>
        <time>2020-06-17T17:58:15Z</time>
      </trkpt>
      <trkpt lat="49.56954" lon="0.14841">
        <ele>87.4</ele>
        <time>2020-06-17T17:58:16Z</time>
      </trkpt>
      <trkpt lat="49.5696" lon="0.14844">
        <ele>87.6</ele>
        <time>2020-06-17T17:58:17Z</time>
      </trkpt>
      <trkpt lat="49.56963" lon="0.14847">
        <ele>87.7</ele>
        <time>2020-06-17T17:58:18Z</time>
      </trkpt>
      <trkpt lat="49.56967" lon="0.1485">
        <ele>87.8</ele>
        <time>2020-06-17T17:58:19Z</time>
      </trkpt>
      <trkpt lat="49.56971" lon="0.14854">
        <ele>88</ele>
        <time>2020-06-17T17:58:20Z</time>
      </trkpt>
      <trkpt lat="49.56974" lon="0.14858">
        <ele>88.1</ele>
        <time>2020-06-17T17:58:21Z</time>
      </trkpt>
      <trkpt lat="49.56978" lon="0.14863">
        <ele>88.2</ele>
        <time>2020-06-17T17:58:22Z</time>
      </trkpt>
      <trkpt lat="49.56981" lon="0.14867">
        <ele>88.4</ele>
        <time>2020-06-17T17:58:23Z</time>
      </trkpt>
      <trkpt lat="49.56985" lon="0.14871">
        <ele>88.5</ele>
        <time>2020-06-17T17:58:24Z</time>
      </trkpt>
      <trkpt lat="49.5699" lon="0.14876">
        <ele>88.6</ele>
        <time>2020-06-17T17:58:25Z</time>
      </trkpt>
      <trkpt lat="49.56992" lon="0.14881">
        <ele>88.6</ele>
        <time>2020-06-17T17:58:26Z</time>
      </trkpt>
      <trkpt lat="49.56995" lon="0.14886">
        <ele>88.7</ele>
        <time>2020-06-17T17:58:27Z</time>
      </trkpt>
      <trkpt lat="49.56999" lon="0.14892">
        <ele>88.8</ele>
        <time>2020-06-17T17:58:28Z</time>
      </trkpt>
      <trkpt lat="49.57002" lon="0.14898">
        <ele>88.9</ele>
        <time>2020-06-17T17:58:29Z</time>
      </trkpt>
      <trkpt lat="49.57005" lon="0.14904">
        <ele>88.9</ele>
        <time>2020-06-17T17:58:30Z</time>
      </trkpt>
      <trkpt lat="49.57009" lon="0.1491">
        <ele>89</ele>
        <time>2020-06-17T17:58:31Z</time>
      </trkpt>
      <trkpt lat="49.57011" lon="0.14915">
        <ele>89.1</ele>
        <time>2020-06-17T17:58:32Z</time>
      </trkpt>
      <trkpt lat="49.57014" lon="0.14922">
        <ele>89.2</ele>
        <time>2020-06-17T17:58:33Z</time>
      </trkpt>
      <trkpt lat="49.57017" lon="0.14926">
        <ele>89.2</ele>
        <time>2020-06-17T17:58:34Z</time>
      </trkpt>
      <trkpt lat="49.57019" lon="0.14931">
        <ele>89.3</ele>
        <time>2020-06-17T17:58:35Z</time>
      </trkpt>
      <trkpt lat="49.57021" lon="0.14935">
        <ele>89.3</ele>
        <time>2020-06-17T17:58:36Z</time>
      </trkpt>
      <trkpt lat="49.57024" lon="0.1494">
        <ele>89.4</ele>
        <time>2020-06-17T17:58:37Z</time>
      </trkpt>
      <trkpt lat="49.57026" lon="0.14947">
        <ele>89.5</ele>
        <time>2020-06-17T17:58:38Z</time>
      </trkpt>
      <trkpt lat="49.57028" lon="0.14954">
        <ele>89.5</ele>
        <time>2020-06-17T17:58:39Z</time>
      </trkpt>
      <trkpt lat="49.57029" lon="0.1496">
        <ele>89.6</ele>
        <time>2020-06-17T17:58:40Z</time>
      </trkpt>
      <trkpt lat="49.5703" lon="0.14968">
        <ele>89.6</ele>
        <time>2020-06-17T17:58:41Z</time>
      </trkpt>
      <trkpt lat="49.57032" lon="0.14976">
        <ele>89.7</ele>
        <time>2020-06-17T17:58:42Z</time>
      </trkpt>
      <trkpt lat="49.57033" lon="0.14983">
        <ele>89.8</ele>
        <time>2020-06-17T17:58:43Z</time>
      </trkpt>
      <trkpt lat="49.57034" lon="0.1499">
        <ele>89.8</ele>
        <time>2020-06-17T17:58:44Z</time>
      </trkpt>
      <trkpt lat="49.57036" lon="0.14996">
        <ele>89.8</ele>
        <time>2020-06-17T17:58:45Z</time>
      </trkpt>
      <trkpt lat="49.57038" lon="0.15004">
        <ele>89.8</ele>
        <time>2020-06-17T17:58:46Z</time>
      </trkpt>
      <trkpt lat="49.57039" lon="0.15011">
        <ele>89.9</ele>
        <time>2020-06-17T17:58:47Z</time>
      </trkpt>
      <trkpt lat="49.5704" lon="0.15018">
        <ele>89.9</ele>
        <time>2020-06-17T17:58:48Z</time>
      </trkpt>
      <trkpt lat="49.57042" lon="0.15022">
        <ele>89.9</ele>
        <time>2020-06-17T17:58:49Z</time>
      </trkpt>
      <trkpt lat="49.57043" lon="0.15029">
        <ele>89.9</ele>
        <time>2020-06-17T17:58:50Z</time>
      </trkpt>
      <trkpt lat="49.57044" lon="0.15036">
        <ele>90</ele>
        <time>2020-06-17T17:58:51Z</time>
      </trkpt>
      <trkpt lat="49.57046" lon="0.15044">
        <ele>90</ele>
        <time>2020-06-17T17:58:52Z</time>
      </trkpt>
      <trkpt lat="49.57048" lon="0.15048">
        <ele>90.1</ele>
        <time>2020-06-17T17:58:53Z</time>
      </trkpt>
      <trkpt lat="49.57049" lon="0.15055">
        <ele>90.1</ele>
        <time>2020-06-17T17:58:54Z</time>
      </trkpt>
      <trkpt lat="49.57051" lon="0.15062">
        <ele>90.2</ele>
        <time>2020-06-17T17:58:55Z</time>
      </trkpt>
      <trkpt lat="49.57053" lon="0.15069">
        <ele>90.3</ele>
        <time>2020-06-17T17:58:56Z</time>
      </trkpt>
      <trkpt lat="49.57054" lon="0.15075">
        <ele>90.4</ele>
        <time>2020-06-17T17:58:57Z</time>
      </trkpt>
      <trkpt lat="49.57056" lon="0.15081">
        <ele>90.4</ele>
        <time>2020-06-17T17:58:58Z</time>
      </trkpt>
      <trkpt lat="49.57058" lon="0.15088">
        <ele>90.4</ele>
        <time>2020-06-17T17:58:59Z</time>
      </trkpt>
      <trkpt lat="49.5706" lon="0.15093">
        <ele>90.4</ele>
        <time>2020-06-17T17:59:00Z</time>
      </trkpt>
      <trkpt lat="49.57062" lon="0.15099">
        <ele>90.4</ele>
        <time>2020-06-17T17:59:01Z</time>
      </trkpt>
      <trkpt lat="49.57065" lon="0.15105">
        <ele>90.4</ele>
        <time>2020-06-17T17:59:02Z</time>
      </trkpt>
      <trkpt lat="49.57067" lon="0.15111">
        <ele>90.4</ele>
        <time>2020-06-17T17:59:03Z</time>
      </trkpt>
      <trkpt lat="49.5707" lon="0.15117">
        <ele>90.4</ele>
        <time>2020-06-17T17:59:04Z</time>
      </trkpt>
      <trkpt lat="49.57073" lon="0.15125">
        <ele>90.5</ele>
        <time>2020-06-17T17:59:05Z</time>
      </trkpt>
      <trkpt lat="49.57075" lon="0.15131">
        <ele>90.5</ele>
        <time>2020-06-17T17:59:06Z</time>
      </trkpt>
      <trkpt lat="49.57077" lon="0.15137">
        <ele>90.5</ele>
        <time>2020-06-17T17:59:07Z</time>
      </trkpt>
      <trkpt lat="49.57079" lon="0.15143">
        <ele>90.5</ele>
        <time>2020-06-17T17:59:08Z</time>
      </trkpt>
      <trkpt lat="49.57082" lon="0.15152">
        <ele>90.6</ele>
        <time>2020-06-17T17:59:09Z</time>
      </trkpt>
      <trkpt lat="49.57085" lon="0.15158">
        <ele>90.6</ele>
        <time>2020-06-17T17:59:10Z</time>
      </trkpt>
      <trkpt lat="49.57087" lon="0.15164">
        <ele>90.5</ele>
        <time>2020-06-17T17:59:11Z</time>
      </trkpt>
      <trkpt lat="49.57089" lon="0.1517">
        <ele>90.5</ele>
        <time>2020-06-17T17:59:12Z</time>
      </trkpt>
      <trkpt lat="49.57092" lon="0.15176">
        <ele>90.5</ele>
        <time>2020-06-17T17:59:13Z</time>
      </trkpt>
      <trkpt lat="49.57095" lon="0.15184">
        <ele>90.4</ele>
        <time>2020-06-17T17:59:14Z</time>
      </trkpt>
      <trkpt lat="49.57098" lon="0.1519">
        <ele>90.4</ele>
        <time>2020-06-17T17:59:15Z</time>
      </trkpt>
      <trkpt lat="49.571" lon="0.15195">
        <ele>90.3</ele>
        <time>2020-06-17T17:59:16Z</time>
      </trkpt>
      <trkpt lat="49.57102" lon="0.15202">
        <ele>90.3</ele>
        <time>2020-06-17T17:59:17Z</time>
      </trkpt>
      <trkpt lat="49.57105" lon="0.15209">
        <ele>90.2</ele>
        <time>2020-06-17T17:59:18Z</time>
      </trkpt>
      <trkpt lat="49.57107" lon="0.15215">
        <ele>90.1</ele>
        <time>2020-06-17T17:59:19Z</time>
      </trkpt>
      <trkpt lat="49.5711" lon="0.15223">
        <ele>90.1</ele>
        <time>2020-06-17T17:59:20Z</time>
      </trkpt>
      <trkpt lat="49.57113" lon="0.1523">
        <ele>90</ele>
        <time>2020-06-17T17:59:21Z</time>
      </trkpt>
      <trkpt lat="49.57116" lon="0.15238">
        <ele>90</ele>
        <time>2020-06-17T17:59:22Z</time>
      </trkpt>
      <trkpt lat="49.57118" lon="0.15244">
        <ele>89.9</ele>
        <time>2020-06-17T17:59:23Z</time>
      </trkpt>
      <trkpt lat="49.5712" lon="0.15251">
        <ele>89.8</ele>
        <time>2020-06-17T17:59:24Z</time>
      </trkpt>
      <trkpt lat="49.57124" lon="0.15261">
        <ele>89.7</ele>
        <time>2020-06-17T17:59:25Z</time>
      </trkpt>
      <trkpt lat="49.57126" lon="0.15269">
        <ele>89.6</ele>
        <time>2020-06-17T17:59:26Z</time>
      </trkpt>
      <trkpt lat="49.5713" lon="0.15274">
        <ele>89.5</ele>
        <time>2020-06-17T17:59:27Z</time>
      </trkpt>
      <trkpt lat="49.57132" lon="0.15283">
        <ele>89.4</ele>
        <time>2020-06-17T17:59:28Z</time>
      </trkpt>
      <trkpt lat="49.57135" lon="0.1529">
        <ele>89.3</ele>
        <time>2020-06-17T17:59:29Z</time>
      </trkpt>
      <trkpt lat="49.57138" lon="0.15297">
        <ele>89.3</ele>
        <time>2020-06-17T17:59:30Z</time>
      </trkpt>
      <trkpt lat="49.5714" lon="0.15304">
        <ele>89.2</ele>
        <time>2020-06-17T17:59:31Z</time>
      </trkpt>
      <trkpt lat="49.57143" lon="0.1531">
        <ele>89.1</ele>
        <time>2020-06-17T17:59:32Z</time>
      </trkpt>
      <trkpt lat="49.57145" lon="0.15317">
        <ele>89</ele>
        <time>2020-06-17T17:59:33Z</time>
      </trkpt>
      <trkpt lat="49.57149" lon="0.15324">
        <ele>88.9</ele>
        <time>2020-06-17T17:59:34Z</time>
      </trkpt>
      <trkpt lat="49.57151" lon="0.15331">
        <ele>88.8</ele>
        <time>2020-06-17T17:59:35Z</time>
      </trkpt>
      <trkpt lat="49.57154" lon="0.15337">
        <ele>88.7</ele>
        <time>2020-06-17T17:59:36Z</time>
      </trkpt>
      <trkpt lat="49.57157" lon="0.15344">
        <ele>88.6</ele>
        <time>2020-06-17T17:59:37Z</time>
      </trkpt>
      <trkpt lat="49.5716" lon="0.1535">
        <ele>88.5</ele>
        <time>2020-06-17T17:59:38Z</time>
      </trkpt>
      <trkpt lat="49.57162" lon="0.15357">
        <ele>88.4</ele>
        <time>2020-06-17T17:59:39Z</time>
      </trkpt>
      <trkpt lat="49.57165" lon="0.15363">
        <ele>88.4</ele>
        <time>2020-06-17T17:59:40Z</time>
      </trkpt>
      <trkpt lat="49.57167" lon="0.1537">
        <ele>88.3</ele>
        <time>2020-06-17T17:59:41Z</time>
      </trkpt>
      <trkpt lat="49.57169" lon="0.15376">
        <ele>88.2</ele>
        <time>2020-06-17T17:59:42Z</time>
      </trkpt>
      <trkpt lat="49.57172" lon="0.15381">
        <ele>88.2</ele>
        <time>2020-06-17T17:59:43Z</time>
      </trkpt>
      <trkpt lat="49.57175" lon="0.15386">
        <ele>88.1</ele>
        <time>2020-06-17T17:59:44Z</time>
      </trkpt>
      <trkpt lat="49.57178" lon="0.15392">
        <ele>88</ele>
        <time>2020-06-17T17:59:45Z</time>
      </trkpt>
      <trkpt lat="49.57181" lon="0.15397">
        <ele>88</ele>
        <time>2020-06-17T17:59:46Z</time>
      </trkpt>
      <trkpt lat="49.57183" lon="0.15401">
        <ele>88</ele>
        <time>2020-06-17T17:59:47Z</time>
      </trkpt>
      <trkpt lat="49.57186" lon="0.15407">
        <ele>87.9</ele>
        <time>2020-06-17T17:59:48Z</time>
      </trkpt>
      <trkpt lat="49.57188" lon="0.15411">
        <ele>87.9</ele>
        <time>2020-06-17T17:59:49Z</time>
      </trkpt>
      <trkpt lat="49.57191" lon="0.15417">
        <ele>87.8</ele>
        <time>2020-06-17T17:59:50Z</time>
      </trkpt>
      <trkpt lat="49.57195" lon="0.15422">
        <ele>87.7</ele>
        <time>2020-06-17T17:59:51Z</time>
      </trkpt>
      <trkpt lat="49.57198" lon="0.15427">
        <ele>87.6</ele>
        <time>2020-06-17T17:59:52Z</time>
      </trkpt>
      <trkpt lat="49.57201" lon="0.15433">
        <ele>87.5</ele>
        <time>2020-06-17T17:59:53Z</time>
      </trkpt>
      <trkpt lat="49.57205" lon="0.15439">
        <ele>87.4</ele>
        <time>2020-06-17T17:59:54Z</time>
      </trkpt>
      <trkpt lat="49.57209" lon="0.15446">
        <ele>87.4</ele>
        <time>2020-06-17T17:59:55Z</time>
      </trkpt>
      <trkpt lat="49.57213" lon="0.15452">
        <ele>87.3</ele>
        <time>2020-06-17T17:59:56Z</time>
      </trkpt>
      <trkpt lat="49.57216" lon="0.15458">
        <ele>87.3</ele>
        <time>2020-06-17T17:59:57Z</time>
      </trkpt>
      <trkpt lat="49.57221" lon="0.15465">
        <ele>87.2</ele>
        <time>2020-06-17T17:59:58Z</time>
      </trkpt>
      <trkpt lat="49.57225" lon="0.15471">
        <ele>87.2</ele>
        <time>2020-06-17T17:59:59Z</time>
      </trkpt>
      <trkpt lat="49.57229" lon="0.15478">
        <ele>87.2</ele>
        <time>2020-06-17T18:00:00Z</time>
      </trkpt>
      <trkpt lat="49.57233" lon="0.15484">
        <ele>87.2</ele>
        <time>2020-06-17T18:00:01Z</time>
      </trkpt>
      <trkpt lat="49.57237" lon="0.1549">
        <ele>87.2</ele>
        <time>2020-06-17T18:00:02Z</time>
      </trkpt>
      <trkpt lat="49.57242" lon="0.15496">
        <ele>87.2</ele>
        <time>2020-06-17T18:00:03Z</time>
      </trkpt>
      <trkpt lat="49.57246" lon="0.15501">
        <ele>87.2</ele>
        <time>2020-06-17T18:00:04Z</time>
      </trkpt>
      <trkpt lat="49.57251" lon="0.15507">
        <ele>87.2</ele>
        <time>2020-06-17T18:00:05Z</time>
      </trkpt>
      <trkpt lat="49.57255" lon="0.15512">
        <ele>87.2</ele>
        <time>2020-06-17T18:00:06Z</time>
      </trkpt>
      <trkpt lat="49.57259" lon="0.15517">
        <ele>87.2</ele>
        <time>2020-06-17T18:00:07Z</time>
      </trkpt>
      <trkpt lat="49.57263" lon="0.15521">
        <ele>87.3</ele>
        <time>2020-06-17T18:00:08Z</time>
      </trkpt>
      <trkpt lat="49.57268" lon="0.15525">
        <ele>87.3</ele>
        <time>2020-06-17T18:00:09Z</time>
      </trkpt>
      <trkpt lat="49.57272" lon="0.15529">
        <ele>87.3</ele>
        <time>2020-06-17T18:00:10Z</time>
      </trkpt>
      <trkpt lat="49.57276" lon="0.15533">
        <ele>87.3</ele>
        <time>2020-06-17T18:00:11Z</time>
      </trkpt>
      <trkpt lat="49.5728" lon="0.15537">
        <ele>87.3</ele>
        <time>2020-06-17T18:00:12Z</time>
      </trkpt>
      <trkpt lat="49.57286" lon="0.15541">
        <ele>87.3</ele>
        <time>2020-06-17T18:00:13Z</time>
      </trkpt>
      <trkpt lat="49.57291" lon="0.15544">
        <ele>87.3</ele>
        <time>2020-06-17T18:00:14Z</time>
      </trkpt>
      <trkpt lat="49.57295" lon="0.15548">
        <ele>87.4</ele>
        <time>2020-06-17T18:00:15Z</time>
      </trkpt>
      <trkpt lat="49.57301" lon="0.15551">
        <ele>87.4</ele>
        <time>2020-06-17T18:00:16Z</time>
      </trkpt>
      <trkpt lat="49.57306" lon="0.15555">
        <ele>87.4</ele>
        <time>2020-06-17T18:00:17Z</time>
      </trkpt>
      <trkpt lat="49.5731" lon="0.15557">
        <ele>87.4</ele>
        <time>2020-06-17T18:00:18Z</time>
      </trkpt>
      <trkpt lat="49.57315" lon="0.15559">
        <ele>87.4</ele>
        <time>2020-06-17T18:00:19Z</time>
      </trkpt>
      <trkpt lat="49.5732" lon="0.15562">
        <ele>87.4</ele>
        <time>2020-06-17T18:00:20Z</time>
      </trkpt>
      <trkpt lat="49.57323" lon="0.15564">
        <ele>87.4</ele>
        <time>2020-06-17T18:00:21Z</time>
      </trkpt>
      <trkpt lat="49.57328" lon="0.15567">
        <ele>87.4</ele>
        <time>2020-06-17T18:00:22Z</time>
      </trkpt>
      <trkpt lat="49.57331" lon="0.1557">
        <ele>87.4</ele>
        <time>2020-06-17T18:00:23Z</time>
      </trkpt>
      <trkpt lat="49.57336" lon="0.15573">
        <ele>87.4</ele>
        <time>2020-06-17T18:00:24Z</time>
      </trkpt>
      <trkpt lat="49.57339" lon="0.15577">
        <ele>87.4</ele>
        <time>2020-06-17T18:00:25Z</time>
      </trkpt>
      <trkpt lat="49.57345" lon="0.15579">
        <ele>87.6</ele>
        <time>2020-06-17T18:00:26Z</time>
      </trkpt>
      <trkpt lat="49.57348" lon="0.15582">
        <ele>87.7</ele>
        <time>2020-06-17T18:00:27Z</time>
      </trkpt>
      <trkpt lat="49.57352" lon="0.15583">
        <ele>87.7</ele>
        <time>2020-06-17T18:00:28Z</time>
      </trkpt>
      <trkpt lat="49.57357" lon="0.15585">
        <ele>87.8</ele>
        <time>2020-06-17T18:00:29Z</time>
      </trkpt>
      <trkpt lat="49.5736" lon="0.15586">
        <ele>87.8</ele>
        <time>2020-06-17T18:00:30Z</time>
      </trkpt>
      <trkpt lat="49.57365" lon="0.15587">
        <ele>87.8</ele>
        <time>2020-06-17T18:00:31Z</time>
      </trkpt>
      <trkpt lat="49.57368" lon="0.1559">
        <ele>87.9</ele>
        <time>2020-06-17T18:00:32Z</time>
      </trkpt>
      <trkpt lat="49.57373" lon="0.15593">
        <ele>87.9</ele>
        <time>2020-06-17T18:00:33Z</time>
      </trkpt>
      <trkpt lat="49.57377" lon="0.15596">
        <ele>87.9</ele>
        <time>2020-06-17T18:00:34Z</time>
      </trkpt>
      <trkpt lat="49.57383" lon="0.15599">
        <ele>88</ele>
        <time>2020-06-17T18:00:35Z</time>
      </trkpt>
      <trkpt lat="49.57387" lon="0.15602">
        <ele>88</ele>
        <time>2020-06-17T18:00:36Z</time>
      </trkpt>
      <trkpt lat="49.57391" lon="0.15604">
        <ele>88</ele>
        <time>2020-06-17T18:00:37Z</time>
      </trkpt>
      <trkpt lat="49.57396" lon="0.15606">
        <ele>88.1</ele>
        <time>2020-06-17T18:00:38Z</time>
      </trkpt>
      <trkpt lat="49.57399" lon="0.15609">
        <ele>88.1</ele>
        <time>2020-06-17T18:00:39Z</time>
      </trkpt>
      <trkpt lat="49.57403" lon="0.1561">
        <ele>88.2</ele>
        <time>2020-06-17T18:00:40Z</time>
      </trkpt>
      <trkpt lat="49.57406" lon="0.15613">
        <ele>88.2</ele>
        <time>2020-06-17T18:00:41Z</time>
      </trkpt>
      <trkpt lat="49.57409" lon="0.15615">
        <ele>88.2</ele>
        <time>2020-06-17T18:00:42Z</time>
      </trkpt>
      <trkpt lat="49.57412" lon="0.15618">
        <ele>88.3</ele>
        <time>2020-06-17T18:00:43Z</time>
      </trkpt>
      <trkpt lat="49.57415" lon="0.1562">
        <ele>88.3</ele>
        <time>2020-06-17T18:00:44Z</time>
      </trkpt>
      <trkpt lat="49.57418" lon="0.15623">
        <ele>88.3</ele>
        <time>2020-06-17T18:00:45Z</time>
      </trkpt>
      <trkpt lat="49.57419" lon="0.15624">
        <ele>88.4</ele>
        <time>2020-06-17T18:00:46Z</time>
      </trkpt>
      <trkpt lat="49.57421" lon="0.15626">
        <ele>88.4</ele>
        <time>2020-06-17T18:00:47Z</time>
      </trkpt>
      <trkpt lat="49.57424" lon="0.15629">
        <ele>88.4</ele>
        <time>2020-06-17T18:00:48Z</time>
      </trkpt>
      <trkpt lat="49.57425" lon="0.1563">
        <ele>88.4</ele>
        <time>2020-06-17T18:00:49Z</time>
      </trkpt>
      <trkpt lat="49.57429" lon="0.15632">
        <ele>88.4</ele>
        <time>2020-06-17T18:00:50Z</time>
      </trkpt>
      <trkpt lat="49.57432" lon="0.15634">
        <ele>88.5</ele>
        <time>2020-06-17T18:00:51Z</time>
      </trkpt>
      <trkpt lat="49.57436" lon="0.15637">
        <ele>88.5</ele>
        <time>2020-06-17T18:00:52Z</time>
      </trkpt>
      <trkpt lat="49.57439" lon="0.15639">
        <ele>88.6</ele>
        <time>2020-06-17T18:00:53Z</time>
      </trkpt>
      <trkpt lat="49.57443" lon="0.15642">
        <ele>88.6</ele>
        <time>2020-06-17T18:00:54Z</time>
      </trkpt>
      <trkpt lat="49.57447" lon="0.15646">
        <ele>88.6</ele>
        <time>2020-06-17T18:00:55Z</time>
      </trkpt>
      <trkpt lat="49.5745" lon="0.15649">
        <ele>88.7</ele>
        <time>2020-06-17T18:00:56Z</time>
      </trkpt>
      <trkpt lat="49.57454" lon="0.15653">
        <ele>88.8</ele>
        <time>2020-06-17T18:00:57Z</time>
      </trkpt>
      <trkpt lat="49.57457" lon="0.15657">
        <ele>88.8</ele>
        <time>2020-06-17T18:00:58Z</time>
      </trkpt>
      <trkpt lat="49.57461" lon="0.15662">
        <ele>88.9</ele>
        <time>2020-06-17T18:00:59Z</time>
      </trkpt>
      <trkpt lat="49.57465" lon="0.15666">
        <ele>89</ele>
        <time>2020-06-17T18:01:00Z</time>
      </trkpt>
      <trkpt lat="49.57468" lon="0.15669">
        <ele>89</ele>
        <time>2020-06-17T18:01:01Z</time>
      </trkpt>
      <trkpt lat="49.57472" lon="0.15674">
        <ele>89.1</ele>
        <time>2020-06-17T18:01:02Z</time>
      </trkpt>
      <trkpt lat="49.57474" lon="0.1568">
        <ele>89.1</ele>
        <time>2020-06-17T18:01:03Z</time>
      </trkpt>
      <trkpt lat="49.57479" lon="0.15683">
        <ele>89.2</ele>
        <time>2020-06-17T18:01:04Z</time>
      </trkpt>
      <trkpt lat="49.57481" lon="0.15688">
        <ele>89.2</ele>
        <time>2020-06-17T18:01:05Z</time>
      </trkpt>
      <trkpt lat="49.57484" lon="0.15693">
        <ele>89.3</ele>
        <time>2020-06-17T18:01:06Z</time>
      </trkpt>
      <trkpt lat="49.57488" lon="0.15696">
        <ele>89.4</ele>
        <time>2020-06-17T18:01:07Z</time>
      </trkpt>
      <trkpt lat="49.57491" lon="0.15699">
        <ele>89.5</ele>
        <time>2020-06-17T18:01:08Z</time>
      </trkpt>
      <trkpt lat="49.57494" lon="0.15702">
        <ele>89.6</ele>
        <time>2020-06-17T18:01:09Z</time>
      </trkpt>
      <trkpt lat="49.57497" lon="0.15707">
        <ele>89.7</ele>
        <time>2020-06-17T18:01:10Z</time>
      </trkpt>
      <trkpt lat="49.575" lon="0.15712">
        <ele>89.8</ele>
        <time>2020-06-17T18:01:11Z</time>
      </trkpt>
      <trkpt lat="49.57504" lon="0.15717">
        <ele>89.9</ele>
        <time>2020-06-17T18:01:12Z</time>
      </trkpt>
      <trkpt lat="49.57507" lon="0.15721">
        <ele>90</ele>
        <time>2020-06-17T18:01:13Z</time>
      </trkpt>
      <trkpt lat="49.57509" lon="0.15724">
        <ele>90.1</ele>
        <time>2020-06-17T18:01:14Z</time>
      </trkpt>
      <trkpt lat="49.57512" lon="0.15729">
        <ele>90.1</ele>
        <time>2020-06-17T18:01:15Z</time>
      </trkpt>
      <trkpt lat="49.57514" lon="0.15734">
        <ele>90.2</ele>
        <time>2020-06-17T18:01:16Z</time>
      </trkpt>
      <trkpt lat="49.57517" lon="0.15738">
        <ele>90.3</ele>
        <time>2020-06-17T18:01:17Z</time>
      </trkpt>
      <trkpt lat="49.5752" lon="0.15742">
        <ele>90.4</ele>
        <time>2020-06-17T18:01:18Z</time>
      </trkpt>
      <trkpt lat="49.57523" lon="0.15746">
        <ele>90.5</ele>
        <time>2020-06-17T18:01:19Z</time>
      </trkpt>
      <trkpt lat="49.57526" lon="0.15749">
        <ele>90.6</ele>
        <time>2020-06-17T18:01:20Z</time>
      </trkpt>
      <trkpt lat="49.57528" lon="0.15752">
        <ele>90.7</ele>
        <time>2020-06-17T18:01:21Z</time>
      </trkpt>
      <trkpt lat="49.57531" lon="0.15755">
        <ele>90.8</ele>
        <time>2020-06-17T18:01:22Z</time>
      </trkpt>
      <trkpt lat="49.57535" lon="0.15758">
        <ele>90.9</ele>
        <time>2020-06-17T18:01:23Z</time>
      </trkpt>
      <trkpt lat="49.57536" lon="0.15759">
        <ele>90.9</ele>
        <time>2020-06-17T18:01:24Z</time>
      </trkpt>
      <trkpt lat="49.57538" lon="0.15762">
        <ele>90.9</ele>
        <time>2020-06-17T18:01:25Z</time>
      </trkpt>
      <trkpt lat="49.57541" lon="0.15765">
        <ele>91</ele>
        <time>2020-06-17T18:01:26Z</time>
      </trkpt>
      <trkpt lat="49.57544" lon="0.15767">
        <ele>91.1</ele>
        <time>2020-06-17T18:01:27Z</time>
      </trkpt>
      <trkpt lat="49.57547" lon="0.15771">
        <ele>91.2</ele>
        <time>2020-06-17T18:01:28Z</time>
      </trkpt>
      <trkpt lat="49.57549" lon="0.15774">
        <ele>91.2</ele>
        <time>2020-06-17T18:01:29Z</time>
      </trkpt>
      <trkpt lat="49.57552" lon="0.15777">
        <ele>91.3</ele>
        <time>2020-06-17T18:01:30Z</time>
      </trkpt>
      <trkpt lat="49.57556" lon="0.1578">
        <ele>91.3</ele>
        <time>2020-06-17T18:01:31Z</time>
      </trkpt>
      <trkpt lat="49.57559" lon="0.15782">
        <ele>91.4</ele>
        <time>2020-06-17T18:01:32Z</time>
      </trkpt>
      <trkpt lat="49.57561" lon="0.15787">
        <ele>91.5</ele>
        <time>2020-06-17T18:01:33Z</time>
      </trkpt>
      <trkpt lat="49.57566" lon="0.15793">
        <ele>91.5</ele>
        <time>2020-06-17T18:01:34Z</time>
      </trkpt>
      <trkpt lat="49.57569" lon="0.15797">
        <ele>91.6</ele>
        <time>2020-06-17T18:01:35Z</time>
      </trkpt>
      <trkpt lat="49.57573" lon="0.15801">
        <ele>91.7</ele>
        <time>2020-06-17T18:01:36Z</time>
      </trkpt>
      <trkpt lat="49.57578" lon="0.15806">
        <ele>91.8</ele>
        <time>2020-06-17T18:01:37Z</time>
      </trkpt>
      <trkpt lat="49.57582" lon="0.15812">
        <ele>91.9</ele>
        <time>2020-06-17T18:01:38Z</time>
      </trkpt>
      <trkpt lat="49.57587" lon="0.15817">
        <ele>92</ele>
        <time>2020-06-17T18:01:39Z</time>
      </trkpt>
      <trkpt lat="49.57591" lon="0.15823">
        <ele>92.1</ele>
        <time>2020-06-17T18:01:40Z</time>
      </trkpt>
      <trkpt lat="49.57595" lon="0.1583">
        <ele>92.2</ele>
        <time>2020-06-17T18:01:41Z</time>
      </trkpt>
      <trkpt lat="49.57599" lon="0.15837">
        <ele>92.3</ele>
        <time>2020-06-17T18:01:42Z</time>
      </trkpt>
      <trkpt lat="49.57603" lon="0.15841">
        <ele>92.4</ele>
        <time>2020-06-17T18:01:43Z</time>
      </trkpt>
      <trkpt lat="49.57606" lon="0.15846">
        <ele>92.5</ele>
        <time>2020-06-17T18:01:44Z</time>
      </trkpt>
      <trkpt lat="49.57609" lon="0.15851">
        <ele>92.5</ele>
        <time>2020-06-17T18:01:45Z</time>
      </trkpt>
      <trkpt lat="49.57612" lon="0.15855">
        <ele>92.6</ele>
        <time>2020-06-17T18:01:46Z</time>
      </trkpt>
      <trkpt lat="49.57616" lon="0.1586">
        <ele>92.7</ele>
        <time>2020-06-17T18:01:47Z</time>
      </trkpt>
      <trkpt lat="49.57619" lon="0.15866">
        <ele>92.7</ele>
        <time>2020-06-17T18:01:48Z</time>
      </trkpt>
      <trkpt lat="49.57623" lon="0.15871">
        <ele>92.8</ele>
        <time>2020-06-17T18:01:49Z</time>
      </trkpt>
      <trkpt lat="49.57626" lon="0.15876">
        <ele>92.8</ele>
        <time>2020-06-17T18:01:50Z</time>
      </trkpt>
      <trkpt lat="49.57629" lon="0.15881">
        <ele>92.9</ele>
        <time>2020-06-17T18:01:51Z</time>
      </trkpt>
      <trkpt lat="49.57633" lon="0.15887">
        <ele>93</ele>
        <time>2020-06-17T18:01:52Z</time>
      </trkpt>
      <trkpt lat="49.57636" lon="0.15893">
        <ele>93</ele>
        <time>2020-06-17T18:01:53Z</time>
      </trkpt>
      <trkpt lat="49.57639" lon="0.15898">
        <ele>93.1</ele>
        <time>2020-06-17T18:01:54Z</time>
      </trkpt>
      <trkpt lat="49.57642" lon="0.15903">
        <ele>93.2</ele>
        <time>2020-06-17T18:01:55Z</time>
      </trkpt>
      <trkpt lat="49.57645" lon="0.15907">
        <ele>93.3</ele>
        <time>2020-06-17T18:01:56Z</time>
      </trkpt>
      <trkpt lat="49.57648" lon="0.15912">
        <ele>93.4</ele>
        <time>2020-06-17T18:01:57Z</time>
      </trkpt>
      <trkpt lat="49.57652" lon="0.15916">
        <ele>93.6</ele>
        <time>2020-06-17T18:01:58Z</time>
      </trkpt>
      <trkpt lat="49.57655" lon="0.15921">
        <ele>93.7</ele>
        <time>2020-06-17T18:01:59Z</time>
      </trkpt>
      <trkpt lat="49.57658" lon="0.15926">
        <ele>93.8</ele>
        <time>2020-06-17T18:02:00Z</time>
      </trkpt>
      <trkpt lat="49.57661" lon="0.15931">
        <ele>93.9</ele>
        <time>2020-06-17T18:02:01Z</time>
      </trkpt>
      <trkpt lat="49.57665" lon="0.15936">
        <ele>94</ele>
        <time>2020-06-17T18:02:02Z</time>
      </trkpt>
      <trkpt lat="49.57668" lon="0.1594">
        <ele>94.2</ele>
        <time>2020-06-17T18:02:03Z</time>
      </trkpt>
      <trkpt lat="49.57672" lon="0.15944">
        <ele>94.3</ele>
        <time>2020-06-17T18:02:04Z</time>
      </trkpt>
      <trkpt lat="49.57676" lon="0.15948">
        <ele>94.4</ele>
        <time>2020-06-17T18:02:05Z</time>
      </trkpt>
      <trkpt lat="49.57679" lon="0.15953">
        <ele>94.5</ele>
        <time>2020-06-17T18:02:06Z</time>
      </trkpt>
      <trkpt lat="49.57681" lon="0.15956">
        <ele>94.6</ele>
        <time>2020-06-17T18:02:07Z</time>
      </trkpt>
      <trkpt lat="49.57683" lon="0.15959">
        <ele>94.7</ele>
        <time>2020-06-17T18:02:08Z</time>
      </trkpt>
      <trkpt lat="49.57686" lon="0.15963">
        <ele>94.8</ele>
        <time>2020-06-17T18:02:09Z</time>
      </trkpt>
      <trkpt lat="49.57689" lon="0.15967">
        <ele>94.8</ele>
        <time>2020-06-17T18:02:10Z</time>
      </trkpt>
      <trkpt lat="49.57691" lon="0.15969">
        <ele>94.9</ele>
        <time>2020-06-17T18:02:11Z</time>
      </trkpt>
      <trkpt lat="49.57695" lon="0.15973">
        <ele>95</ele>
        <time>2020-06-17T18:02:12Z</time>
      </trkpt>
      <trkpt lat="49.57697" lon="0.15976">
        <ele>95.1</ele>
        <time>2020-06-17T18:02:13Z</time>
      </trkpt>
      <trkpt lat="49.577" lon="0.1598">
        <ele>95.2</ele>
        <time>2020-06-17T18:02:14Z</time>
      </trkpt>
      <trkpt lat="49.57703" lon="0.15984">
        <ele>95.3</ele>
        <time>2020-06-17T18:02:15Z</time>
      </trkpt>
      <trkpt lat="49.57706" lon="0.15988">
        <ele>95.4</ele>
        <time>2020-06-17T18:02:16Z</time>
      </trkpt>
      <trkpt lat="49.5771" lon="0.15992">
        <ele>95.5</ele>
        <time>2020-06-17T18:02:17Z</time>
      </trkpt>
      <trkpt lat="49.57713" lon="0.15996">
        <ele>95.6</ele>
        <time>2020-06-17T18:02:18Z</time>
      </trkpt>
      <trkpt lat="49.57716" lon="0.16">
        <ele>95.7</ele>
        <time>2020-06-17T18:02:19Z</time>
      </trkpt>
      <trkpt lat="49.57719" lon="0.16003">
        <ele>95.8</ele>
        <time>2020-06-17T18:02:20Z</time>
      </trkpt>
      <trkpt lat="49.57723" lon="0.16007">
        <ele>95.9</ele>
        <time>2020-06-17T18:02:21Z</time>
      </trkpt>
      <trkpt lat="49.57726" lon="0.1601">
        <ele>96</ele>
        <time>2020-06-17T18:02:22Z</time>
      </trkpt>
      <trkpt lat="49.57728" lon="0.16015">
        <ele>96.2</ele>
        <time>2020-06-17T18:02:23Z</time>
      </trkpt>
      <trkpt lat="49.57732" lon="0.16018">
        <ele>96.3</ele>
        <time>2020-06-17T18:02:24Z</time>
      </trkpt>
      <trkpt lat="49.57734" lon="0.16022">
        <ele>96.4</ele>
        <time>2020-06-17T18:02:25Z</time>
      </trkpt>
      <trkpt lat="49.57737" lon="0.16026">
        <ele>96.6</ele>
        <time>2020-06-17T18:02:26Z</time>
      </trkpt>
      <trkpt lat="49.5774" lon="0.1603">
        <ele>96.7</ele>
        <time>2020-06-17T18:02:27Z</time>
      </trkpt>
      <trkpt lat="49.57744" lon="0.16033">
        <ele>96.9</ele>
        <time>2020-06-17T18:02:28Z</time>
      </trkpt>
      <trkpt lat="49.57747" lon="0.16037">
        <ele>97</ele>
        <time>2020-06-17T18:02:29Z</time>
      </trkpt>
      <trkpt lat="49.57751" lon="0.16041">
        <ele>97.2</ele>
        <time>2020-06-17T18:02:30Z</time>
      </trkpt>
      <trkpt lat="49.57754" lon="0.16045">
        <ele>97.4</ele>
        <time>2020-06-17T18:02:31Z</time>
      </trkpt>
      <trkpt lat="49.57757" lon="0.16048">
        <ele>97.6</ele>
        <time>2020-06-17T18:02:32Z</time>
      </trkpt>
      <trkpt lat="49.5776" lon="0.16052">
        <ele>97.7</ele>
        <time>2020-06-17T18:02:33Z</time>
      </trkpt>
      <trkpt lat="49.57762" lon="0.16055">
        <ele>97.9</ele>
        <time>2020-06-17T18:02:34Z</time>
      </trkpt>
      <trkpt lat="49.57766" lon="0.16057">
        <ele>98</ele>
        <time>2020-06-17T18:02:35Z</time>
      </trkpt>
      <trkpt lat="49.57768" lon="0.16061">
        <ele>98.2</ele>
        <time>2020-06-17T18:02:36Z</time>
      </trkpt>
      <trkpt lat="49.5777" lon="0.16063">
        <ele>98.3</ele>
        <time>2020-06-17T18:02:37Z</time>
      </trkpt>
      <trkpt lat="49.57773" lon="0.16066">
        <ele>98.5</ele>
        <time>2020-06-17T18:02:38Z</time>
      </trkpt>
      <trkpt lat="49.57776" lon="0.16069">
        <ele>98.6</ele>
        <time>2020-06-17T18:02:39Z</time>
      </trkpt>
      <trkpt lat="49.57779" lon="0.16073">
        <ele>98.8</ele>
        <time>2020-06-17T18:02:40Z</time>
      </trkpt>
      <trkpt lat="49.57781" lon="0.16076">
        <ele>98.9</ele>
        <time>2020-06-17T18:02:41Z</time>
      </trkpt>
      <trkpt lat="49.57783" lon="0.1608">
        <ele>99.1</ele>
        <time>2020-06-17T18:02:42Z</time>
      </trkpt>
      <trkpt lat="49.57787" lon="0.16084">
        <ele>99.3</ele>
        <time>2020-06-17T18:02:43Z</time>
      </trkpt>
      <trkpt lat="49.5779" lon="0.16088">
        <ele>99.4</ele>
        <time>2020-06-17T18:02:44Z</time>
      </trkpt>
      <trkpt lat="49.57793" lon="0.16091">
        <ele>99.6</ele>
        <time>2020-06-17T18:02:45Z</time>
      </trkpt>
      <trkpt lat="49.57797" lon="0.16094">
        <ele>99.7</ele>
        <time>2020-06-17T18:02:46Z</time>
      </trkpt>
      <trkpt lat="49.57799" lon="0.16098">
        <ele>99.9</ele>
        <time>2020-06-17T18:02:47Z</time>
      </trkpt>
      <trkpt lat="49.57803" lon="0.16104">
        <ele>100.1</ele>
        <time>2020-06-17T18:02:48Z</time>
      </trkpt>
      <trkpt lat="49.57806" lon="0.16108">
        <ele>100.2</ele>
        <time>2020-06-17T18:02:49Z</time>
      </trkpt>
      <trkpt lat="49.57809" lon="0.16112">
        <ele>100.3</ele>
        <time>2020-06-17T18:02:50Z</time>
      </trkpt>
      <trkpt lat="49.57811" lon="0.16116">
        <ele>100.5</ele>
        <time>2020-06-17T18:02:51Z</time>
      </trkpt>
      <trkpt lat="49.57814" lon="0.1612">
        <ele>100.6</ele>
        <time>2020-06-17T18:02:52Z</time>
      </trkpt>
      <trkpt lat="49.57817" lon="0.16125">
        <ele>100.8</ele>
        <time>2020-06-17T18:02:53Z</time>
      </trkpt>
      <trkpt lat="49.5782" lon="0.16128">
        <ele>100.9</ele>
        <time>2020-06-17T18:02:54Z</time>
      </trkpt>
      <trkpt lat="49.57823" lon="0.16131">
        <ele>101</ele>
        <time>2020-06-17T18:02:55Z</time>
      </trkpt>
      <trkpt lat="49.57826" lon="0.16135">
        <ele>101.2</ele>
        <time>2020-06-17T18:02:56Z</time>
      </trkpt>
      <trkpt lat="49.57828" lon="0.16138">
        <ele>101.3</ele>
        <time>2020-06-17T18:02:57Z</time>
      </trkpt>
      <trkpt lat="49.57831" lon="0.1614">
        <ele>101.4</ele>
        <time>2020-06-17T18:02:58Z</time>
      </trkpt>
      <trkpt lat="49.57834" lon="0.16143">
        <ele>101.5</ele>
        <time>2020-06-17T18:02:59Z</time>
      </trkpt>
      <trkpt lat="49.57838" lon="0.16146">
        <ele>101.6</ele>
        <time>2020-06-17T18:03:00Z</time>
      </trkpt>
      <trkpt lat="49.57841" lon="0.16149">
        <ele>101.7</ele>
        <time>2020-06-17T18:03:01Z</time>
      </trkpt>
      <trkpt lat="49.57844" lon="0.16153">
        <ele>101.8</ele>
        <time>2020-06-17T18:03:02Z</time>
      </trkpt>
      <trkpt lat="49.57847" lon="0.16157">
        <ele>101.9</ele>
        <time>2020-06-17T18:03:03Z</time>
      </trkpt>
      <trkpt lat="49.5785" lon="0.1616">
        <ele>102</ele>
        <time>2020-06-17T18:03:04Z</time>
      </trkpt>
      <trkpt lat="49.57854" lon="0.16163">
        <ele>102.1</ele>
        <time>2020-06-17T18:03:05Z</time>
      </trkpt>
      <trkpt lat="49.57858" lon="0.16166">
        <ele>102.2</ele>
        <time>2020-06-17T18:03:06Z</time>
      </trkpt>
      <trkpt lat="49.57861" lon="0.16169">
        <ele>102.2</ele>
        <time>2020-06-17T18:03:07Z</time>
      </trkpt>
      <trkpt lat="49.57864" lon="0.16173">
        <ele>102.3</ele>
        <time>2020-06-17T18:03:08Z</time>
      </trkpt>
      <trkpt lat="49.57868" lon="0.16177">
        <ele>102.4</ele>
        <time>2020-06-17T18:03:09Z</time>
      </trkpt>
      <trkpt lat="49.57871" lon="0.1618">
        <ele>102.4</ele>
        <time>2020-06-17T18:03:10Z</time>
      </trkpt>
      <trkpt lat="49.57876" lon="0.16183">
        <ele>102.4</ele>
        <time>2020-06-17T18:03:11Z</time>
      </trkpt>
      <trkpt lat="49.5788" lon="0.16186">
        <ele>102.5</ele>
        <time>2020-06-17T18:03:12Z</time>
      </trkpt>
      <trkpt lat="49.57883" lon="0.16189">
        <ele>102.5</ele>
        <time>2020-06-17T18:03:13Z</time>
      </trkpt>
      <trkpt lat="49.57887" lon="0.16191">
        <ele>102.5</ele>
        <time>2020-06-17T18:03:14Z</time>
      </trkpt>
      <trkpt lat="49.57892" lon="0.16194">
        <ele>102.5</ele>
        <time>2020-06-17T18:03:15Z</time>
      </trkpt>
      <trkpt lat="49.57896" lon="0.16198">
        <ele>102.5</ele>
        <time>2020-06-17T18:03:16Z</time>
      </trkpt>
      <trkpt lat="49.57899" lon="0.16202">
        <ele>102.5</ele>
        <time>2020-06-17T18:03:17Z</time>
      </trkpt>
      <trkpt lat="49.57903" lon="0.16205">
        <ele>102.5</ele>
        <time>2020-06-17T18:03:18Z</time>
      </trkpt>
      <trkpt lat="49.57908" lon="0.16208">
        <ele>102.5</ele>
        <time>2020-06-17T18:03:19Z</time>
      </trkpt>
      <trkpt lat="49.57912" lon="0.16212">
        <ele>102.5</ele>
        <time>2020-06-17T18:03:20Z</time>
      </trkpt>
      <trkpt lat="49.57916" lon="0.16215">
        <ele>102.5</ele>
        <time>2020-06-17T18:03:21Z</time>
      </trkpt>
      <trkpt lat="49.5792" lon="0.16218">
        <ele>102.5</ele>
        <time>2020-06-17T18:03:22Z</time>
      </trkpt>
      <trkpt lat="49.57923" lon="0.16221">
        <ele>102.5</ele>
        <time>2020-06-17T18:03:23Z</time>
      </trkpt>
      <trkpt lat="49.57928" lon="0.16225">
        <ele>102.5</ele>
        <time>2020-06-17T18:03:24Z</time>
      </trkpt>
      <trkpt lat="49.57932" lon="0.16228">
        <ele>102.4</ele>
        <time>2020-06-17T18:03:25Z</time>
      </trkpt>
      <trkpt lat="49.57936" lon="0.16231">
        <ele>102.4</ele>
        <time>2020-06-17T18:03:26Z</time>
      </trkpt>
      <trkpt lat="49.57941" lon="0.16235">
        <ele>102.4</ele>
        <time>2020-06-17T18:03:27Z</time>
      </trkpt>
      <trkpt lat="49.57945" lon="0.16238">
        <ele>102.4</ele>
        <time>2020-06-17T18:03:28Z</time>
      </trkpt>
      <trkpt lat="49.5795" lon="0.16241">
        <ele>102.4</ele>
        <time>2020-06-17T18:03:29Z</time>
      </trkpt>
      <trkpt lat="49.57954" lon="0.16246">
        <ele>102.4</ele>
        <time>2020-06-17T18:03:30Z</time>
      </trkpt>
      <trkpt lat="49.57957" lon="0.16249">
        <ele>102.4</ele>
        <time>2020-06-17T18:03:31Z</time>
      </trkpt>
      <trkpt lat="49.57962" lon="0.16254">
        <ele>102.4</ele>
        <time>2020-06-17T18:03:32Z</time>
      </trkpt>
      <trkpt lat="49.57966" lon="0.16257">
        <ele>102.4</ele>
        <time>2020-06-17T18:03:33Z</time>
      </trkpt>
      <trkpt lat="49.57969" lon="0.16262">
        <ele>102.4</ele>
        <time>2020-06-17T18:03:34Z</time>
      </trkpt>
      <trkpt lat="49.57973" lon="0.16266">
        <ele>102.4</ele>
        <time>2020-06-17T18:03:35Z</time>
      </trkpt>
      <trkpt lat="49.57976" lon="0.16269">
        <ele>102.3</ele>
        <time>2020-06-17T18:03:36Z</time>
      </trkpt>
      <trkpt lat="49.5798" lon="0.16273">
        <ele>102.3</ele>
        <time>2020-06-17T18:03:37Z</time>
      </trkpt>
      <trkpt lat="49.57984" lon="0.16276">
        <ele>102.2</ele>
        <time>2020-06-17T18:03:38Z</time>
      </trkpt>
      <trkpt lat="49.57988" lon="0.16281">
        <ele>102.2</ele>
        <time>2020-06-17T18:03:39Z</time>
      </trkpt>
      <trkpt lat="49.57991" lon="0.16285">
        <ele>102.2</ele>
        <time>2020-06-17T18:03:40Z</time>
      </trkpt>
      <trkpt lat="49.57995" lon="0.16289">
        <ele>102.2</ele>
        <time>2020-06-17T18:03:41Z</time>
      </trkpt>
      <trkpt lat="49.57998" lon="0.16294">
        <ele>102.3</ele>
        <time>2020-06-17T18:03:42Z</time>
      </trkpt>
      <trkpt lat="49.58002" lon="0.16299">
        <ele>102.3</ele>
        <time>2020-06-17T18:03:43Z</time>
      </trkpt>
      <trkpt lat="49.58005" lon="0.16305">
        <ele>102.3</ele>
        <time>2020-06-17T18:03:44Z</time>
      </trkpt>
      <trkpt lat="49.58009" lon="0.16309">
        <ele>102.3</ele>
        <time>2020-06-17T18:03:45Z</time>
      </trkpt>
      <trkpt lat="49.58012" lon="0.16314">
        <ele>102.4</ele>
        <time>2020-06-17T18:03:46Z</time>
      </trkpt>
      <trkpt lat="49.58016" lon="0.16319">
        <ele>102.4</ele>
        <time>2020-06-17T18:03:47Z</time>
      </trkpt>
      <trkpt lat="49.58019" lon="0.16323">
        <ele>102.4</ele>
        <time>2020-06-17T18:03:48Z</time>
      </trkpt>
      <trkpt lat="49.58022" lon="0.16327">
        <ele>102.4</ele>
        <time>2020-06-17T18:03:49Z</time>
      </trkpt>
      <trkpt lat="49.58026" lon="0.16331">
        <ele>102.5</ele>
        <time>2020-06-17T18:03:50Z</time>
      </trkpt>
      <trkpt lat="49.58028" lon="0.16335">
        <ele>102.5</ele>
        <time>2020-06-17T18:03:51Z</time>
      </trkpt>
      <trkpt lat="49.58031" lon="0.16339">
        <ele>102.6</ele>
        <time>2020-06-17T18:03:52Z</time>
      </trkpt>
      <trkpt lat="49.58034" lon="0.16343">
        <ele>102.6</ele>
        <time>2020-06-17T18:03:53Z</time>
      </trkpt>
      <trkpt lat="49.58038" lon="0.16347">
        <ele>102.7</ele>
        <time>2020-06-17T18:03:54Z</time>
      </trkpt>
      <trkpt lat="49.58042" lon="0.16352">
        <ele>102.8</ele>
        <time>2020-06-17T18:03:55Z</time>
      </trkpt>
      <trkpt lat="49.58045" lon="0.16356">
        <ele>102.9</ele>
        <time>2020-06-17T18:03:56Z</time>
      </trkpt>
      <trkpt lat="49.58049" lon="0.16361">
        <ele>102.9</ele>
        <time>2020-06-17T18:03:57Z</time>
      </trkpt>
      <trkpt lat="49.58053" lon="0.16365">
        <ele>103</ele>
        <time>2020-06-17T18:03:58Z</time>
      </trkpt>
      <trkpt lat="49.58056" lon="0.16368">
        <ele>103.1</ele>
        <time>2020-06-17T18:03:59Z</time>
      </trkpt>
      <trkpt lat="49.5806" lon="0.16373">
        <ele>103.2</ele>
        <time>2020-06-17T18:04:00Z</time>
      </trkpt>
      <trkpt lat="49.58064" lon="0.16377">
        <ele>103.2</ele>
        <time>2020-06-17T18:04:01Z</time>
      </trkpt>
      <trkpt lat="49.58068" lon="0.16383">
        <ele>103.3</ele>
        <time>2020-06-17T18:04:02Z</time>
      </trkpt>
      <trkpt lat="49.58072" lon="0.16388">
        <ele>103.4</ele>
        <time>2020-06-17T18:04:03Z</time>
      </trkpt>
      <trkpt lat="49.58075" lon="0.16392">
        <ele>103.4</ele>
        <time>2020-06-17T18:04:04Z</time>
      </trkpt>
      <trkpt lat="49.58078" lon="0.16397">
        <ele>103.5</ele>
        <time>2020-06-17T18:04:05Z</time>
      </trkpt>
      <trkpt lat="49.58082" lon="0.16402">
        <ele>103.7</ele>
        <time>2020-06-17T18:04:06Z</time>
      </trkpt>
      <trkpt lat="49.58085" lon="0.16407">
        <ele>103.7</ele>
        <time>2020-06-17T18:04:07Z</time>
      </trkpt>
      <trkpt lat="49.58089" lon="0.16411">
        <ele>103.8</ele>
        <time>2020-06-17T18:04:08Z</time>
      </trkpt>
      <trkpt lat="49.58092" lon="0.16416">
        <ele>103.9</ele>
        <time>2020-06-17T18:04:09Z</time>
      </trkpt>
      <trkpt lat="49.58095" lon="0.16421">
        <ele>103.9</ele>
        <time>2020-06-17T18:04:10Z</time>
      </trkpt>
      <trkpt lat="49.58098" lon="0.16426">
        <ele>104</ele>
        <time>2020-06-17T18:04:11Z</time>
      </trkpt>
      <trkpt lat="49.58102" lon="0.16429">
        <ele>104</ele>
        <time>2020-06-17T18:04:12Z</time>
      </trkpt>
      <trkpt lat="49.58106" lon="0.16433">
        <ele>104</ele>
        <time>2020-06-17T18:04:13Z</time>
      </trkpt>
      <trkpt lat="49.5811" lon="0.16437">
        <ele>104.1</ele>
        <time>2020-06-17T18:04:14Z</time>
      </trkpt>
      <trkpt lat="49.58113" lon="0.16442">
        <ele>104.1</ele>
        <time>2020-06-17T18:04:15Z</time>
      </trkpt>
      <trkpt lat="49.58117" lon="0.16446">
        <ele>104.1</ele>
        <time>2020-06-17T18:04:16Z</time>
      </trkpt>
      <trkpt lat="49.58121" lon="0.1645">
        <ele>104.1</ele>
        <time>2020-06-17T18:04:17Z</time>
      </trkpt>
      <trkpt lat="49.58124" lon="0.16454">
        <ele>104.1</ele>
        <time>2020-06-17T18:04:18Z</time>
      </trkpt>
      <trkpt lat="49.58128" lon="0.16459">
        <ele>104.1</ele>
        <time>2020-06-17T18:04:19Z</time>
      </trkpt>
      <trkpt lat="49.58132" lon="0.16463">
        <ele>104.1</ele>
        <time>2020-06-17T18:04:20Z</time>
      </trkpt>
      <trkpt lat="49.58136" lon="0.16468">
        <ele>104.1</ele>
        <time>2020-06-17T18:04:21Z</time>
      </trkpt>
      <trkpt lat="49.58139" lon="0.16473">
        <ele>104.1</ele>
        <time>2020-06-17T18:04:22Z</time>
      </trkpt>
      <trkpt lat="49.58142" lon="0.16478">
        <ele>104.1</ele>
        <time>2020-06-17T18:04:23Z</time>
      </trkpt>
      <trkpt lat="49.58145" lon="0.16484">
        <ele>104.1</ele>
        <time>2020-06-17T18:04:24Z</time>
      </trkpt>
      <trkpt lat="49.58149" lon="0.16489">
        <ele>104.1</ele>
        <time>2020-06-17T18:04:25Z</time>
      </trkpt>
      <trkpt lat="49.58153" lon="0.16494">
        <ele>104.1</ele>
        <time>2020-06-17T18:04:26Z</time>
      </trkpt>
      <trkpt lat="49.58157" lon="0.16497">
        <ele>104.1</ele>
        <time>2020-06-17T18:04:27Z</time>
      </trkpt>
      <trkpt lat="49.5816" lon="0.16502">
        <ele>104.1</ele>
        <time>2020-06-17T18:04:28Z</time>
      </trkpt>
      <trkpt lat="49.58165" lon="0.16507">
        <ele>104.1</ele>
        <time>2020-06-17T18:04:29Z</time>
      </trkpt>
      <trkpt lat="49.58168" lon="0.16512">
        <ele>104.1</ele>
        <time>2020-06-17T18:04:30Z</time>
      </trkpt>
      <trkpt lat="49.58172" lon="0.16517">
        <ele>104.1</ele>
        <time>2020-06-17T18:04:31Z</time>
      </trkpt>
      <trkpt lat="49.58176" lon="0.16523">
        <ele>104.1</ele>
        <time>2020-06-17T18:04:32Z</time>
      </trkpt>
      <trkpt lat="49.5818" lon="0.16528">
        <ele>104.1</ele>
        <time>2020-06-17T18:04:33Z</time>
      </trkpt>
      <trkpt lat="49.58183" lon="0.16533">
        <ele>104.1</ele>
        <time>2020-06-17T18:04:34Z</time>
      </trkpt>
      <trkpt lat="49.58187" lon="0.16538">
        <ele>104.1</ele>
        <time>2020-06-17T18:04:35Z</time>
      </trkpt>
      <trkpt lat="49.58191" lon="0.16543">
        <ele>104.1</ele>
        <time>2020-06-17T18:04:36Z</time>
      </trkpt>
      <trkpt lat="49.58193" lon="0.16547">
        <ele>104.1</ele>
        <time>2020-06-17T18:04:37Z</time>
      </trkpt>
      <trkpt lat="49.58197" lon="0.16551">
        <ele>104.2</ele>
        <time>2020-06-17T18:04:38Z</time>
      </trkpt>
      <trkpt lat="49.58201" lon="0.16556">
        <ele>104.2</ele>
        <time>2020-06-17T18:04:39Z</time>
      </trkpt>
      <trkpt lat="49.58206" lon="0.16561">
        <ele>104.3</ele>
        <time>2020-06-17T18:04:40Z</time>
      </trkpt>
      <trkpt lat="49.58208" lon="0.16568">
        <ele>104.3</ele>
        <time>2020-06-17T18:04:41Z</time>
      </trkpt>
      <trkpt lat="49.58212" lon="0.16573">
        <ele>104.4</ele>
        <time>2020-06-17T18:04:42Z</time>
      </trkpt>
      <trkpt lat="49.58214" lon="0.16578">
        <ele>104.4</ele>
        <time>2020-06-17T18:04:43Z</time>
      </trkpt>
      <trkpt lat="49.58217" lon="0.16583">
        <ele>104.5</ele>
        <time>2020-06-17T18:04:44Z</time>
      </trkpt>
      <trkpt lat="49.58221" lon="0.16588">
        <ele>104.5</ele>
        <time>2020-06-17T18:04:45Z</time>
      </trkpt>
      <trkpt lat="49.58224" lon="0.16593">
        <ele>104.5</ele>
        <time>2020-06-17T18:04:46Z</time>
      </trkpt>
      <trkpt lat="49.58227" lon="0.16597">
        <ele>104.5</ele>
        <time>2020-06-17T18:04:47Z</time>
      </trkpt>
      <trkpt lat="49.58231" lon="0.16602">
        <ele>104.5</ele>
        <time>2020-06-17T18:04:48Z</time>
      </trkpt>
      <trkpt lat="49.58234" lon="0.16607">
        <ele>104.5</ele>
        <time>2020-06-17T18:04:49Z</time>
      </trkpt>
      <trkpt lat="49.58238" lon="0.16611">
        <ele>104.5</ele>
        <time>2020-06-17T18:04:50Z</time>
      </trkpt>
      <trkpt lat="49.58241" lon="0.16616">
        <ele>104.4</ele>
        <time>2020-06-17T18:04:51Z</time>
      </trkpt>
      <trkpt lat="49.58244" lon="0.16621">
        <ele>104.4</ele>
        <time>2020-06-17T18:04:52Z</time>
      </trkpt>
      <trkpt lat="49.58247" lon="0.16626">
        <ele>104.3</ele>
        <time>2020-06-17T18:04:53Z</time>
      </trkpt>
      <trkpt lat="49.58252" lon="0.16631">
        <ele>104.2</ele>
        <time>2020-06-17T18:04:54Z</time>
      </trkpt>
      <trkpt lat="49.58255" lon="0.16636">
        <ele>104.2</ele>
        <time>2020-06-17T18:04:55Z</time>
      </trkpt>
      <trkpt lat="49.5826" lon="0.16642">
        <ele>104.2</ele>
        <time>2020-06-17T18:04:56Z</time>
      </trkpt>
      <trkpt lat="49.58264" lon="0.16647">
        <ele>104.1</ele>
        <time>2020-06-17T18:04:57Z</time>
      </trkpt>
      <trkpt lat="49.58268" lon="0.16652">
        <ele>104.1</ele>
        <time>2020-06-17T18:04:58Z</time>
      </trkpt>
      <trkpt lat="49.58271" lon="0.16657">
        <ele>104</ele>
        <time>2020-06-17T18:04:59Z</time>
      </trkpt>
      <trkpt lat="49.58275" lon="0.16663">
        <ele>104</ele>
        <time>2020-06-17T18:05:00Z</time>
      </trkpt>
      <trkpt lat="49.58279" lon="0.16668">
        <ele>103.9</ele>
        <time>2020-06-17T18:05:01Z</time>
      </trkpt>
      <trkpt lat="49.58283" lon="0.16673">
        <ele>103.9</ele>
        <time>2020-06-17T18:05:02Z</time>
      </trkpt>
      <trkpt lat="49.58287" lon="0.16678">
        <ele>103.8</ele>
        <time>2020-06-17T18:05:03Z</time>
      </trkpt>
      <trkpt lat="49.58291" lon="0.16682">
        <ele>103.8</ele>
        <time>2020-06-17T18:05:04Z</time>
      </trkpt>
      <trkpt lat="49.58294" lon="0.16687">
        <ele>103.8</ele>
        <time>2020-06-17T18:05:05Z</time>
      </trkpt>
      <trkpt lat="49.58298" lon="0.16693">
        <ele>103.7</ele>
        <time>2020-06-17T18:05:06Z</time>
      </trkpt>
      <trkpt lat="49.58301" lon="0.16698">
        <ele>103.7</ele>
        <time>2020-06-17T18:05:07Z</time>
      </trkpt>
      <trkpt lat="49.58305" lon="0.16704">
        <ele>103.6</ele>
        <time>2020-06-17T18:05:08Z</time>
      </trkpt>
      <trkpt lat="49.58309" lon="0.16711">
        <ele>103.6</ele>
        <time>2020-06-17T18:05:09Z</time>
      </trkpt>
      <trkpt lat="49.58312" lon="0.16718">
        <ele>103.5</ele>
        <time>2020-06-17T18:05:10Z</time>
      </trkpt>
      <trkpt lat="49.58316" lon="0.16724">
        <ele>103.5</ele>
        <time>2020-06-17T18:05:11Z</time>
      </trkpt>
      <trkpt lat="49.58321" lon="0.1673">
        <ele>103.5</ele>
        <time>2020-06-17T18:05:12Z</time>
      </trkpt>
      <trkpt lat="49.58325" lon="0.16736">
        <ele>103.4</ele>
        <time>2020-06-17T18:05:13Z</time>
      </trkpt>
      <trkpt lat="49.5833" lon="0.16742">
        <ele>103.4</ele>
        <time>2020-06-17T18:05:14Z</time>
      </trkpt>
      <trkpt lat="49.58334" lon="0.16749">
        <ele>103.4</ele>
        <time>2020-06-17T18:05:15Z</time>
      </trkpt>
      <trkpt lat="49.58338" lon="0.16756">
        <ele>103.4</ele>
        <time>2020-06-17T18:05:16Z</time>
      </trkpt>
      <trkpt lat="49.58342" lon="0.16763">
        <ele>103.3</ele>
        <time>2020-06-17T18:05:17Z</time>
      </trkpt>
      <trkpt lat="49.58345" lon="0.16769">
        <ele>103.3</ele>
        <time>2020-06-17T18:05:18Z</time>
      </trkpt>
      <trkpt lat="49.58349" lon="0.16776">
        <ele>103.3</ele>
        <time>2020-06-17T18:05:19Z</time>
      </trkpt>
      <trkpt lat="49.58352" lon="0.16782">
        <ele>103.3</ele>
        <time>2020-06-17T18:05:20Z</time>
      </trkpt>
      <trkpt lat="49.58356" lon="0.16788">
        <ele>103.3</ele>
        <time>2020-06-17T18:05:21Z</time>
      </trkpt>
      <trkpt lat="49.58359" lon="0.16794">
        <ele>103.3</ele>
        <time>2020-06-17T18:05:22Z</time>
      </trkpt>
      <trkpt lat="49.58362" lon="0.168">
        <ele>103.3</ele>
        <time>2020-06-17T18:05:23Z</time>
      </trkpt>
      <trkpt lat="49.58365" lon="0.16806">
        <ele>103.3</ele>
        <time>2020-06-17T18:05:24Z</time>
      </trkpt>
      <trkpt lat="49.58368" lon="0.16813">
        <ele>103.3</ele>
        <time>2020-06-17T18:05:25Z</time>
      </trkpt>
      <trkpt lat="49.58371" lon="0.16818">
        <ele>103.3</ele>
        <time>2020-06-17T18:05:26Z</time>
      </trkpt>
      <trkpt lat="49.58375" lon="0.16824">
        <ele>103.3</ele>
        <time>2020-06-17T18:05:27Z</time>
      </trkpt>
      <trkpt lat="49.58378" lon="0.16829">
        <ele>103.3</ele>
        <time>2020-06-17T18:05:28Z</time>
      </trkpt>
      <trkpt lat="49.58382" lon="0.16835">
        <ele>103.3</ele>
        <time>2020-06-17T18:05:29Z</time>
      </trkpt>
      <trkpt lat="49.58386" lon="0.16842">
        <ele>103.3</ele>
        <time>2020-06-17T18:05:30Z</time>
      </trkpt>
      <trkpt lat="49.58389" lon="0.16848">
        <ele>103.3</ele>
        <time>2020-06-17T18:05:31Z</time>
      </trkpt>
      <trkpt lat="49.58392" lon="0.16855">
        <ele>103.4</ele>
        <time>2020-06-17T18:05:32Z</time>
      </trkpt>
      <trkpt lat="49.58395" lon="0.16861">
        <ele>103.4</ele>
        <time>2020-06-17T18:05:33Z</time>
      </trkpt>
      <trkpt lat="49.58399" lon="0.16867">
        <ele>103.4</ele>
        <time>2020-06-17T18:05:34Z</time>
      </trkpt>
      <trkpt lat="49.58402" lon="0.16873">
        <ele>103.4</ele>
        <time>2020-06-17T18:05:35Z</time>
      </trkpt>
      <trkpt lat="49.58405" lon="0.16879">
        <ele>103.4</ele>
        <time>2020-06-17T18:05:36Z</time>
      </trkpt>
      <trkpt lat="49.58408" lon="0.16886">
        <ele>103.4</ele>
        <time>2020-06-17T18:05:37Z</time>
      </trkpt>
      <trkpt lat="49.58411" lon="0.16891">
        <ele>103.4</ele>
        <time>2020-06-17T18:05:38Z</time>
      </trkpt>
      <trkpt lat="49.58414" lon="0.16898">
        <ele>103.4</ele>
        <time>2020-06-17T18:05:39Z</time>
      </trkpt>
      <trkpt lat="49.58417" lon="0.16904">
        <ele>103.3</ele>
        <time>2020-06-17T18:05:40Z</time>
      </trkpt>
      <trkpt lat="49.5842" lon="0.16911">
        <ele>103.3</ele>
        <time>2020-06-17T18:05:41Z</time>
      </trkpt>
      <trkpt lat="49.58423" lon="0.16917">
        <ele>103.3</ele>
        <time>2020-06-17T18:05:42Z</time>
      </trkpt>
      <trkpt lat="49.58425" lon="0.16924">
        <ele>103.3</ele>
        <time>2020-06-17T18:05:43Z</time>
      </trkpt>
      <trkpt lat="49.58428" lon="0.1693">
        <ele>103.3</ele>
        <time>2020-06-17T18:05:44Z</time>
      </trkpt>
      <trkpt lat="49.58432" lon="0.16936">
        <ele>103.3</ele>
        <time>2020-06-17T18:05:45Z</time>
      </trkpt>
      <trkpt lat="49.58433" lon="0.16942">
        <ele>103.3</ele>
        <time>2020-06-17T18:05:46Z</time>
      </trkpt>
      <trkpt lat="49.58436" lon="0.16951">
        <ele>103.3</ele>
        <time>2020-06-17T18:05:47Z</time>
      </trkpt>
      <trkpt lat="49.58439" lon="0.1696">
        <ele>103.3</ele>
        <time>2020-06-17T18:05:48Z</time>
      </trkpt>
      <trkpt lat="49.58443" lon="0.16969">
        <ele>103.3</ele>
        <time>2020-06-17T18:05:49Z</time>
      </trkpt>
      <trkpt lat="49.58447" lon="0.16977">
        <ele>103.3</ele>
        <time>2020-06-17T18:05:50Z</time>
      </trkpt>
      <trkpt lat="49.5845" lon="0.16984">
        <ele>103.3</ele>
        <time>2020-06-17T18:05:51Z</time>
      </trkpt>
      <trkpt lat="49.58454" lon="0.16989">
        <ele>103.4</ele>
        <time>2020-06-17T18:05:52Z</time>
      </trkpt>
      <trkpt lat="49.58457" lon="0.16995">
        <ele>103.4</ele>
        <time>2020-06-17T18:05:53Z</time>
      </trkpt>
      <trkpt lat="49.58459" lon="0.17001">
        <ele>103.4</ele>
        <time>2020-06-17T18:05:54Z</time>
      </trkpt>
      <trkpt lat="49.58462" lon="0.17006">
        <ele>103.4</ele>
        <time>2020-06-17T18:05:55Z</time>
      </trkpt>
      <trkpt lat="49.58463" lon="0.1701">
        <ele>103.5</ele>
        <time>2020-06-17T18:05:56Z</time>
      </trkpt>
      <trkpt lat="49.58466" lon="0.17018">
        <ele>103.5</ele>
        <time>2020-06-17T18:05:57Z</time>
      </trkpt>
      <trkpt lat="49.58468" lon="0.17024">
        <ele>103.5</ele>
        <time>2020-06-17T18:05:58Z</time>
      </trkpt>
      <trkpt lat="49.58471" lon="0.17032">
        <ele>103.6</ele>
        <time>2020-06-17T18:05:59Z</time>
      </trkpt>
      <trkpt lat="49.58474" lon="0.17039">
        <ele>103.6</ele>
        <time>2020-06-17T18:06:00Z</time>
      </trkpt>
      <trkpt lat="49.58477" lon="0.17046">
        <ele>103.7</ele>
        <time>2020-06-17T18:06:01Z</time>
      </trkpt>
      <trkpt lat="49.5848" lon="0.17052">
        <ele>103.7</ele>
        <time>2020-06-17T18:06:02Z</time>
      </trkpt>
      <trkpt lat="49.58483" lon="0.17059">
        <ele>103.8</ele>
        <time>2020-06-17T18:06:03Z</time>
      </trkpt>
      <trkpt lat="49.58486" lon="0.17065">
        <ele>103.9</ele>
        <time>2020-06-17T18:06:04Z</time>
      </trkpt>
      <trkpt lat="49.58489" lon="0.17071">
        <ele>103.9</ele>
        <time>2020-06-17T18:06:05Z</time>
      </trkpt>
      <trkpt lat="49.58493" lon="0.17078">
        <ele>104</ele>
        <time>2020-06-17T18:06:06Z</time>
      </trkpt>
      <trkpt lat="49.58496" lon="0.17085">
        <ele>104</ele>
        <time>2020-06-17T18:06:07Z</time>
      </trkpt>
      <trkpt lat="49.58498" lon="0.17091">
        <ele>104.1</ele>
        <time>2020-06-17T18:06:08Z</time>
      </trkpt>
      <trkpt lat="49.58501" lon="0.17097">
        <ele>104.1</ele>
        <time>2020-06-17T18:06:09Z</time>
      </trkpt>
      <trkpt lat="49.58503" lon="0.17103">
        <ele>104.1</ele>
        <time>2020-06-17T18:06:10Z</time>
      </trkpt>
      <trkpt lat="49.58506" lon="0.17109">
        <ele>104.1</ele>
        <time>2020-06-17T18:06:11Z</time>
      </trkpt>
      <trkpt lat="49.58509" lon="0.17114">
        <ele>104.1</ele>
        <time>2020-06-17T18:06:12Z</time>
      </trkpt>
      <trkpt lat="49.58512" lon="0.17121">
        <ele>104.1</ele>
        <time>2020-06-17T18:06:13Z</time>
      </trkpt>
      <trkpt lat="49.58515" lon="0.17127">
        <ele>104.1</ele>
        <time>2020-06-17T18:06:14Z</time>
      </trkpt>
      <trkpt lat="49.58517" lon="0.17132">
        <ele>104.2</ele>
        <time>2020-06-17T18:06:15Z</time>
      </trkpt>
      <trkpt lat="49.5852" lon="0.17138">
        <ele>104.2</ele>
        <time>2020-06-17T18:06:16Z</time>
      </trkpt>
      <trkpt lat="49.58523" lon="0.17144">
        <ele>104.2</ele>
        <time>2020-06-17T18:06:17Z</time>
      </trkpt>
      <trkpt lat="49.58526" lon="0.1715">
        <ele>104.2</ele>
        <time>2020-06-17T18:06:18Z</time>
      </trkpt>
      <trkpt lat="49.58529" lon="0.17157">
        <ele>104.2</ele>
        <time>2020-06-17T18:06:19Z</time>
      </trkpt>
      <trkpt lat="49.58532" lon="0.17163">
        <ele>104.2</ele>
        <time>2020-06-17T18:06:20Z</time>
      </trkpt>
      <trkpt lat="49.58535" lon="0.17171">
        <ele>104.1</ele>
        <time>2020-06-17T18:06:21Z</time>
      </trkpt>
      <trkpt lat="49.58537" lon="0.17177">
        <ele>104.1</ele>
        <time>2020-06-17T18:06:22Z</time>
      </trkpt>
      <trkpt lat="49.58541" lon="0.17184">
        <ele>104</ele>
        <time>2020-06-17T18:06:23Z</time>
      </trkpt>
      <trkpt lat="49.58544" lon="0.17191">
        <ele>104</ele>
        <time>2020-06-17T18:06:24Z</time>
      </trkpt>
      <trkpt lat="49.58546" lon="0.17197">
        <ele>103.9</ele>
        <time>2020-06-17T18:06:25Z</time>
      </trkpt>
      <trkpt lat="49.58549" lon="0.17202">
        <ele>103.9</ele>
        <time>2020-06-17T18:06:26Z</time>
      </trkpt>
      <trkpt lat="49.5855" lon="0.17207">
        <ele>103.9</ele>
        <time>2020-06-17T18:06:27Z</time>
      </trkpt>
      <trkpt lat="49.58551" lon="0.17208">
        <ele>103.9</ele>
        <time>2020-06-17T18:06:28Z</time>
      </trkpt>
      <trkpt lat="49.58552" lon="0.17212">
        <ele>103.9</ele>
        <time>2020-06-17T18:06:29Z</time>
      </trkpt>
      <trkpt lat="49.58553" lon="0.17216">
        <ele>103.8</ele>
        <time>2020-06-17T18:06:30Z</time>
      </trkpt>
      <trkpt lat="49.58553" lon="0.17218">
        <ele>103.8</ele>
        <time>2020-06-17T18:06:31Z</time>
      </trkpt>
      <trkpt lat="49.58555" lon="0.17222">
        <ele>103.8</ele>
        <time>2020-06-17T18:06:32Z</time>
      </trkpt>
      <trkpt lat="49.58555" lon="0.17224">
        <ele>103.8</ele>
        <time>2020-06-17T18:06:33Z</time>
      </trkpt>
      <trkpt lat="49.58557" lon="0.17228">
        <ele>103.7</ele>
        <time>2020-06-17T18:06:34Z</time>
      </trkpt>
      <trkpt lat="49.58558" lon="0.17229">
        <ele>103.7</ele>
        <time>2020-06-17T18:06:35Z</time>
      </trkpt>
      <trkpt lat="49.5856" lon="0.17233">
        <ele>103.7</ele>
        <time>2020-06-17T18:06:36Z</time>
      </trkpt>
      <trkpt lat="49.58561" lon="0.17234">
        <ele>103.7</ele>
        <time>2020-06-17T18:06:37Z</time>
      </trkpt>
      <trkpt lat="49.58563" lon="0.17237">
        <ele>103.7</ele>
        <time>2020-06-17T18:06:38Z</time>
      </trkpt>
      <trkpt lat="49.58564" lon="0.17238">
        <ele>103.7</ele>
        <time>2020-06-17T18:06:39Z</time>
      </trkpt>
      <trkpt lat="49.58565" lon="0.17242">
        <ele>103.7</ele>
        <time>2020-06-17T18:06:40Z</time>
      </trkpt>
      <trkpt lat="49.58565" lon="0.17243">
        <ele>103.7</ele>
        <time>2020-06-17T18:06:41Z</time>
      </trkpt>
      <trkpt lat="49.58568" lon="0.17247">
        <ele>103.7</ele>
        <time>2020-06-17T18:06:42Z</time>
      </trkpt>
      <trkpt lat="49.58569" lon="0.17249">
        <ele>103.7</ele>
        <time>2020-06-17T18:06:43Z</time>
      </trkpt>
      <trkpt lat="49.58571" lon="0.17253">
        <ele>103.7</ele>
        <time>2020-06-17T18:06:44Z</time>
      </trkpt>
      <trkpt lat="49.58574" lon="0.17257">
        <ele>103.7</ele>
        <time>2020-06-17T18:06:45Z</time>
      </trkpt>
      <trkpt lat="49.58577" lon="0.17261">
        <ele>103.7</ele>
        <time>2020-06-17T18:06:46Z</time>
      </trkpt>
      <trkpt lat="49.5858" lon="0.17266">
        <ele>103.7</ele>
        <time>2020-06-17T18:06:47Z</time>
      </trkpt>
      <trkpt lat="49.58584" lon="0.17271">
        <ele>103.7</ele>
        <time>2020-06-17T18:06:48Z</time>
      </trkpt>
      <trkpt lat="49.58586" lon="0.17276">
        <ele>103.7</ele>
        <time>2020-06-17T18:06:49Z</time>
      </trkpt>
      <trkpt lat="49.58589" lon="0.17281">
        <ele>103.7</ele>
        <time>2020-06-17T18:06:50Z</time>
      </trkpt>
      <trkpt lat="49.58591" lon="0.17286">
        <ele>103.7</ele>
        <time>2020-06-17T18:06:51Z</time>
      </trkpt>
      <trkpt lat="49.58594" lon="0.17291">
        <ele>103.7</ele>
        <time>2020-06-17T18:06:52Z</time>
      </trkpt>
      <trkpt lat="49.58596" lon="0.17296">
        <ele>103.7</ele>
        <time>2020-06-17T18:06:53Z</time>
      </trkpt>
      <trkpt lat="49.58599" lon="0.17301">
        <ele>103.7</ele>
        <time>2020-06-17T18:06:54Z</time>
      </trkpt>
      <trkpt lat="49.58602" lon="0.17305">
        <ele>103.7</ele>
        <time>2020-06-17T18:06:55Z</time>
      </trkpt>
      <trkpt lat="49.58604" lon="0.1731">
        <ele>103.7</ele>
        <time>2020-06-17T18:06:56Z</time>
      </trkpt>
      <trkpt lat="49.58606" lon="0.17314">
        <ele>103.7</ele>
        <time>2020-06-17T18:06:57Z</time>
      </trkpt>
      <trkpt lat="49.58608" lon="0.17318">
        <ele>103.8</ele>
        <time>2020-06-17T18:06:58Z</time>
      </trkpt>
      <trkpt lat="49.5861" lon="0.17321">
        <ele>103.8</ele>
        <time>2020-06-17T18:06:59Z</time>
      </trkpt>
      <trkpt lat="49.58612" lon="0.17325">
        <ele>103.8</ele>
        <time>2020-06-17T18:07:00Z</time>
      </trkpt>
      <trkpt lat="49.58614" lon="0.17328">
        <ele>103.8</ele>
        <time>2020-06-17T18:07:01Z</time>
      </trkpt>
      <trkpt lat="49.58616" lon="0.17333">
        <ele>103.8</ele>
        <time>2020-06-17T18:07:02Z</time>
      </trkpt>
      <trkpt lat="49.58618" lon="0.17337">
        <ele>103.8</ele>
        <time>2020-06-17T18:07:03Z</time>
      </trkpt>
      <trkpt lat="49.58621" lon="0.17342">
        <ele>103.8</ele>
        <time>2020-06-17T18:07:04Z</time>
      </trkpt>
      <trkpt lat="49.58622" lon="0.17343">
        <ele>103.8</ele>
        <time>2020-06-17T18:07:05Z</time>
      </trkpt>
      <trkpt lat="49.58624" lon="0.17347">
        <ele>103.8</ele>
        <time>2020-06-17T18:07:06Z</time>
      </trkpt>
      <trkpt lat="49.58627" lon="0.1735">
        <ele>103.7</ele>
        <time>2020-06-17T18:07:07Z</time>
      </trkpt>
      <trkpt lat="49.58629" lon="0.17354">
        <ele>103.7</ele>
        <time>2020-06-17T18:07:08Z</time>
      </trkpt>
      <trkpt lat="49.58631" lon="0.17357">
        <ele>103.7</ele>
        <time>2020-06-17T18:07:09Z</time>
      </trkpt>
      <trkpt lat="49.58633" lon="0.17361">
        <ele>103.7</ele>
        <time>2020-06-17T18:07:10Z</time>
      </trkpt>
      <trkpt lat="49.58635" lon="0.17365">
        <ele>103.7</ele>
        <time>2020-06-17T18:07:11Z</time>
      </trkpt>
      <trkpt lat="49.58637" lon="0.17369">
        <ele>103.7</ele>
        <time>2020-06-17T18:07:12Z</time>
      </trkpt>
      <trkpt lat="49.58639" lon="0.17373">
        <ele>103.7</ele>
        <time>2020-06-17T18:07:13Z</time>
      </trkpt>
      <trkpt lat="49.58642" lon="0.17378">
        <ele>103.7</ele>
        <time>2020-06-17T18:07:14Z</time>
      </trkpt>
      <trkpt lat="49.58644" lon="0.17382">
        <ele>103.7</ele>
        <time>2020-06-17T18:07:15Z</time>
      </trkpt>
      <trkpt lat="49.58647" lon="0.17387">
        <ele>103.7</ele>
        <time>2020-06-17T18:07:16Z</time>
      </trkpt>
      <trkpt lat="49.58649" lon="0.17391">
        <ele>103.8</ele>
        <time>2020-06-17T18:07:17Z</time>
      </trkpt>
      <trkpt lat="49.58652" lon="0.17395">
        <ele>103.8</ele>
        <time>2020-06-17T18:07:18Z</time>
      </trkpt>
      <trkpt lat="49.58655" lon="0.17399">
        <ele>103.8</ele>
        <time>2020-06-17T18:07:19Z</time>
      </trkpt>
      <trkpt lat="49.58658" lon="0.17403">
        <ele>103.8</ele>
        <time>2020-06-17T18:07:20Z</time>
      </trkpt>
      <trkpt lat="49.58662" lon="0.17407">
        <ele>103.8</ele>
        <time>2020-06-17T18:07:21Z</time>
      </trkpt>
      <trkpt lat="49.58665" lon="0.17411">
        <ele>103.9</ele>
        <time>2020-06-17T18:07:22Z</time>
      </trkpt>
      <trkpt lat="49.58668" lon="0.17415">
        <ele>103.9</ele>
        <time>2020-06-17T18:07:23Z</time>
      </trkpt>
      <trkpt lat="49.58671" lon="0.17421">
        <ele>103.9</ele>
        <time>2020-06-17T18:07:24Z</time>
      </trkpt>
      <trkpt lat="49.58674" lon="0.17424">
        <ele>103.9</ele>
        <time>2020-06-17T18:07:25Z</time>
      </trkpt>
      <trkpt lat="49.58677" lon="0.1743">
        <ele>103.9</ele>
        <time>2020-06-17T18:07:26Z</time>
      </trkpt>
      <trkpt lat="49.5868" lon="0.17435">
        <ele>103.9</ele>
        <time>2020-06-17T18:07:27Z</time>
      </trkpt>
      <trkpt lat="49.58682" lon="0.1744">
        <ele>103.9</ele>
        <time>2020-06-17T18:07:28Z</time>
      </trkpt>
      <trkpt lat="49.58685" lon="0.17446">
        <ele>103.9</ele>
        <time>2020-06-17T18:07:29Z</time>
      </trkpt>
      <trkpt lat="49.58687" lon="0.17451">
        <ele>103.9</ele>
        <time>2020-06-17T18:07:30Z</time>
      </trkpt>
      <trkpt lat="49.58689" lon="0.17457">
        <ele>103.9</ele>
        <time>2020-06-17T18:07:31Z</time>
      </trkpt>
      <trkpt lat="49.58691" lon="0.17463">
        <ele>103.8</ele>
        <time>2020-06-17T18:07:32Z</time>
      </trkpt>
      <trkpt lat="49.58693" lon="0.17469">
        <ele>103.8</ele>
        <time>2020-06-17T18:07:33Z</time>
      </trkpt>
      <trkpt lat="49.58694" lon="0.17476">
        <ele>103.7</ele>
        <time>2020-06-17T18:07:34Z</time>
      </trkpt>
      <trkpt lat="49.58694" lon="0.17482">
        <ele>103.7</ele>
        <time>2020-06-17T18:07:35Z</time>
      </trkpt>
      <trkpt lat="49.58695" lon="0.17488">
        <ele>103.7</ele>
        <time>2020-06-17T18:07:36Z</time>
      </trkpt>
      <trkpt lat="49.58695" lon="0.17495">
        <ele>103.6</ele>
        <time>2020-06-17T18:07:37Z</time>
      </trkpt>
      <trkpt lat="49.58695" lon="0.175">
        <ele>103.6</ele>
        <time>2020-06-17T18:07:38Z</time>
      </trkpt>
      <trkpt lat="49.58697" lon="0.17506">
        <ele>103.6</ele>
        <time>2020-06-17T18:07:39Z</time>
      </trkpt>
      <trkpt lat="49.58697" lon="0.17512">
        <ele>103.7</ele>
        <time>2020-06-17T18:07:40Z</time>
      </trkpt>
      <trkpt lat="49.58698" lon="0.17518">
        <ele>103.7</ele>
        <time>2020-06-17T18:07:41Z</time>
      </trkpt>
      <trkpt lat="49.58699" lon="0.17524">
        <ele>103.7</ele>
        <time>2020-06-17T18:07:42Z</time>
      </trkpt>
      <trkpt lat="49.587" lon="0.1753">
        <ele>103.7</ele>
        <time>2020-06-17T18:07:43Z</time>
      </trkpt>
      <trkpt lat="49.587" lon="0.17536">
        <ele>103.8</ele>
        <time>2020-06-17T18:07:44Z</time>
      </trkpt>
      <trkpt lat="49.587" lon="0.17541">
        <ele>103.8</ele>
        <time>2020-06-17T18:07:45Z</time>
      </trkpt>
      <trkpt lat="49.587" lon="0.17547">
        <ele>103.8</ele>
        <time>2020-06-17T18:07:46Z</time>
      </trkpt>
      <trkpt lat="49.58701" lon="0.17553">
        <ele>103.8</ele>
        <time>2020-06-17T18:07:47Z</time>
      </trkpt>
      <trkpt lat="49.58702" lon="0.17558">
        <ele>103.8</ele>
        <time>2020-06-17T18:07:48Z</time>
      </trkpt>
      <trkpt lat="49.58702" lon="0.17562">
        <ele>103.9</ele>
        <time>2020-06-17T18:07:49Z</time>
      </trkpt>
      <trkpt lat="49.58703" lon="0.17567">
        <ele>103.9</ele>
        <time>2020-06-17T18:07:50Z</time>
      </trkpt>
      <trkpt lat="49.58702" lon="0.1757">
        <ele>103.9</ele>
        <time>2020-06-17T18:07:51Z</time>
      </trkpt>
      <trkpt lat="49.58702" lon="0.17572">
        <ele>103.9</ele>
        <time>2020-06-17T18:07:52Z</time>
      </trkpt>
      <trkpt lat="49.58702" lon="0.17573">
        <ele>103.9</ele>
        <time>2020-06-17T18:07:53Z</time>
      </trkpt>
      <trkpt lat="49.58703" lon="0.17574">
        <ele>103.9</ele>
        <time>2020-06-17T18:07:54Z</time>
      </trkpt>
      <trkpt lat="49.58703" lon="0.17574">
        <ele>103.9</ele>
        <time>2020-06-17T18:07:55Z</time>
      </trkpt>
      <trkpt lat="49.58703" lon="0.17575">
        <ele>103.9</ele>
        <time>2020-06-17T18:07:56Z</time>
      </trkpt>
      <trkpt lat="49.58703" lon="0.17576">
        <ele>103.9</ele>
        <time>2020-06-17T18:07:57Z</time>
      </trkpt>
      <trkpt lat="49.58703" lon="0.17576">
        <ele>103.9</ele>
        <time>2020-06-17T18:07:58Z</time>
      </trkpt>
      <trkpt lat="49.58703" lon="0.17577">
        <ele>103.9</ele>
        <time>2020-06-17T18:07:59Z</time>
      </trkpt>
      <trkpt lat="49.58704" lon="0.17577">
        <ele>103.9</ele>
        <time>2020-06-17T18:08:00Z</time>
      </trkpt>
      <trkpt lat="49.58704" lon="0.17578">
        <ele>103.9</ele>
        <time>2020-06-17T18:08:01Z</time>
      </trkpt>
      <trkpt lat="49.58704" lon="0.17579">
        <ele>103.9</ele>
        <time>2020-06-17T18:08:02Z</time>
      </trkpt>
      <trkpt lat="49.58704" lon="0.17579">
        <ele>103.9</ele>
        <time>2020-06-17T18:08:03Z</time>
      </trkpt>
      <trkpt lat="49.58704" lon="0.1758">
        <ele>103.9</ele>
        <time>2020-06-17T18:08:19Z</time>
      </trkpt>
      <trkpt lat="49.58704" lon="0.1758">
        <ele>103.9</ele>
        <time>2020-06-17T18:08:20Z</time>
      </trkpt>
      <trkpt lat="49.58704" lon="0.17581">
        <ele>103.9</ele>
        <time>2020-06-17T18:08:21Z</time>
      </trkpt>
      <trkpt lat="49.58705" lon="0.17581">
        <ele>103.9</ele>
        <time>2020-06-17T18:08:22Z</time>
      </trkpt>
      <trkpt lat="49.58705" lon="0.17582">
        <ele>103.9</ele>
        <time>2020-06-17T18:08:23Z</time>
      </trkpt>
      <trkpt lat="49.58705" lon="0.17583">
        <ele>103.9</ele>
        <time>2020-06-17T18:08:24Z</time>
      </trkpt>
      <trkpt lat="49.58705" lon="0.17583">
        <ele>103.9</ele>
        <time>2020-06-17T18:08:25Z</time>
      </trkpt>
      <trkpt lat="49.58705" lon="0.17584">
        <ele>103.9</ele>
        <time>2020-06-17T18:08:26Z</time>
      </trkpt>
      <trkpt lat="49.58705" lon="0.17584">
        <ele>103.9</ele>
        <time>2020-06-17T18:08:27Z</time>
      </trkpt>
      <trkpt lat="49.58706" lon="0.17585">
        <ele>103.9</ele>
        <time>2020-06-17T18:08:28Z</time>
      </trkpt>
      <trkpt lat="49.58706" lon="0.17585">
        <ele>103.9</ele>
        <time>2020-06-17T18:08:29Z</time>
      </trkpt>
      <trkpt lat="49.58706" lon="0.17586">
        <ele>103.9</ele>
        <time>2020-06-17T18:08:30Z</time>
      </trkpt>
      <trkpt lat="49.58706" lon="0.17587">
        <ele>103.9</ele>
        <time>2020-06-17T18:08:31Z</time>
      </trkpt>
      <trkpt lat="49.58706" lon="0.17587">
        <ele>103.9</ele>
        <time>2020-06-17T18:08:32Z</time>
      </trkpt>
      <trkpt lat="49.58706" lon="0.17588">
        <ele>103.9</ele>
        <time>2020-06-17T18:11:37Z</time>
      </trkpt>
      <trkpt lat="49.58706" lon="0.17588">
        <ele>103.9</ele>
        <time>2020-06-17T18:11:38Z</time>
      </trkpt>
      <trkpt lat="49.58707" lon="0.17589">
        <ele>104</ele>
        <time>2020-06-17T18:11:39Z</time>
      </trkpt>
      <trkpt lat="49.58707" lon="0.1759">
        <ele>104</ele>
        <time>2020-06-17T18:11:40Z</time>
      </trkpt>
      <trkpt lat="49.58707" lon="0.1759">
        <ele>104</ele>
        <time>2020-06-17T18:11:41Z</time>
      </trkpt>
      <trkpt lat="49.58707" lon="0.17591">
        <ele>104</ele>
        <time>2020-06-17T18:11:42Z</time>
      </trkpt>
      <trkpt lat="49.58707" lon="0.17591">
        <ele>104</ele>
        <time>2020-06-17T18:11:43Z</time>
      </trkpt>
      <trkpt lat="49.58707" lon="0.17592">
        <ele>104</ele>
        <time>2020-06-17T18:11:44Z</time>
      </trkpt>
      <trkpt lat="49.58708" lon="0.17592">
        <ele>104</ele>
        <time>2020-06-17T18:11:45Z</time>
      </trkpt>
      <trkpt lat="49.58708" lon="0.17593">
        <ele>104</ele>
        <time>2020-06-17T18:11:46Z</time>
      </trkpt>
      <trkpt lat="49.58708" lon="0.17594">
        <ele>104</ele>
        <time>2020-06-17T18:11:47Z</time>
      </trkpt>
      <trkpt lat="49.58708" lon="0.17594">
        <ele>104</ele>
        <time>2020-06-17T18:11:48Z</time>
      </trkpt>
      <trkpt lat="49.58708" lon="0.17595">
        <ele>104</ele>
        <time>2020-06-17T18:11:49Z</time>
      </trkpt>
      <trkpt lat="49.58708" lon="0.17595">
        <ele>104</ele>
        <time>2020-06-17T18:11:50Z</time>
      </trkpt>
      <trkpt lat="49.58709" lon="0.17596">
        <ele>104</ele>
        <time>2020-06-17T18:11:51Z</time>
      </trkpt>
      <trkpt lat="49.58709" lon="0.17596">
        <ele>104</ele>
        <time>2020-06-17T18:11:52Z</time>
      </trkpt>
      <trkpt lat="49.58709" lon="0.17597">
        <ele>104</ele>
        <time>2020-06-17T18:11:53Z</time>
      </trkpt>
      <trkpt lat="49.58709" lon="0.17598">
        <ele>104</ele>
        <time>2020-06-17T18:11:54Z</time>
      </trkpt>
      <trkpt lat="49.58709" lon="0.17598">
        <ele>104</ele>
        <time>2020-06-17T18:11:55Z</time>
      </trkpt>
      <trkpt lat="49.58709" lon="0.17599">
        <ele>104</ele>
        <time>2020-06-17T18:12:17Z</time>
      </trkpt>
      <trkpt lat="49.58709" lon="0.17599">
        <ele>104</ele>
        <time>2020-06-17T18:12:18Z</time>
      </trkpt>
      <trkpt lat="49.58711" lon="0.17604">
        <ele>104</ele>
        <time>2020-06-17T18:12:19Z</time>
      </trkpt>
      <trkpt lat="49.58714" lon="0.17607">
        <ele>104</ele>
        <time>2020-06-17T18:12:20Z</time>
      </trkpt>
      <trkpt lat="49.58717" lon="0.17609">
        <ele>104</ele>
        <time>2020-06-17T18:12:21Z</time>
      </trkpt>
      <trkpt lat="49.58719" lon="0.17611">
        <ele>103.9</ele>
        <time>2020-06-17T18:12:22Z</time>
      </trkpt>
      <trkpt lat="49.58722" lon="0.17612">
        <ele>103.9</ele>
        <time>2020-06-17T18:12:23Z</time>
      </trkpt>
      <trkpt lat="49.58726" lon="0.17614">
        <ele>103.8</ele>
        <time>2020-06-17T18:12:24Z</time>
      </trkpt>
      <trkpt lat="49.5873" lon="0.17615">
        <ele>103.8</ele>
        <time>2020-06-17T18:12:25Z</time>
      </trkpt>
      <trkpt lat="49.58733" lon="0.17616">
        <ele>103.7</ele>
        <time>2020-06-17T18:12:26Z</time>
      </trkpt>
      <trkpt lat="49.58736" lon="0.17616">
        <ele>103.7</ele>
        <time>2020-06-17T18:12:27Z</time>
      </trkpt>
      <trkpt lat="49.5874" lon="0.17613">
        <ele>103.7</ele>
        <time>2020-06-17T18:12:28Z</time>
      </trkpt>
      <trkpt lat="49.58743" lon="0.17612">
        <ele>103.6</ele>
        <time>2020-06-17T18:12:29Z</time>
      </trkpt>
      <trkpt lat="49.58747" lon="0.1761">
        <ele>103.5</ele>
        <time>2020-06-17T18:12:30Z</time>
      </trkpt>
      <trkpt lat="49.5875" lon="0.17607">
        <ele>103.5</ele>
        <time>2020-06-17T18:12:31Z</time>
      </trkpt>
      <trkpt lat="49.58754" lon="0.17605">
        <ele>103.5</ele>
        <time>2020-06-17T18:12:32Z</time>
      </trkpt>
      <trkpt lat="49.58757" lon="0.17604">
        <ele>103.4</ele>
        <time>2020-06-17T18:12:33Z</time>
      </trkpt>
      <trkpt lat="49.58761" lon="0.17602">
        <ele>103.4</ele>
        <time>2020-06-17T18:12:34Z</time>
      </trkpt>
      <trkpt lat="49.58766" lon="0.176">
        <ele>103.4</ele>
        <time>2020-06-17T18:12:35Z</time>
      </trkpt>
      <trkpt lat="49.5877" lon="0.17598">
        <ele>103.3</ele>
        <time>2020-06-17T18:12:36Z</time>
      </trkpt>
      <trkpt lat="49.58773" lon="0.17597">
        <ele>103.3</ele>
        <time>2020-06-17T18:12:37Z</time>
      </trkpt>
      <trkpt lat="49.58778" lon="0.17596">
        <ele>103.3</ele>
        <time>2020-06-17T18:12:38Z</time>
      </trkpt>
      <trkpt lat="49.58782" lon="0.17594">
        <ele>103.3</ele>
        <time>2020-06-17T18:12:39Z</time>
      </trkpt>
      <trkpt lat="49.58787" lon="0.17593">
        <ele>103.3</ele>
        <time>2020-06-17T18:12:40Z</time>
      </trkpt>
      <trkpt lat="49.5879" lon="0.17591">
        <ele>103.3</ele>
        <time>2020-06-17T18:12:41Z</time>
      </trkpt>
      <trkpt lat="49.58795" lon="0.17589">
        <ele>103.3</ele>
        <time>2020-06-17T18:12:42Z</time>
      </trkpt>
      <trkpt lat="49.58799" lon="0.17588">
        <ele>103.3</ele>
        <time>2020-06-17T18:12:43Z</time>
      </trkpt>
      <trkpt lat="49.58804" lon="0.17587">
        <ele>103.3</ele>
        <time>2020-06-17T18:12:44Z</time>
      </trkpt>
      <trkpt lat="49.58808" lon="0.17586">
        <ele>103.2</ele>
        <time>2020-06-17T18:12:45Z</time>
      </trkpt>
      <trkpt lat="49.58812" lon="0.17584">
        <ele>103.2</ele>
        <time>2020-06-17T18:12:46Z</time>
      </trkpt>
      <trkpt lat="49.58817" lon="0.17582">
        <ele>103.2</ele>
        <time>2020-06-17T18:12:47Z</time>
      </trkpt>
      <trkpt lat="49.58821" lon="0.17582">
        <ele>103.2</ele>
        <time>2020-06-17T18:12:48Z</time>
      </trkpt>
      <trkpt lat="49.58826" lon="0.1758">
        <ele>103.2</ele>
        <time>2020-06-17T18:12:49Z</time>
      </trkpt>
      <trkpt lat="49.58831" lon="0.17579">
        <ele>103.1</ele>
        <time>2020-06-17T18:12:50Z</time>
      </trkpt>
      <trkpt lat="49.58836" lon="0.17578">
        <ele>103.1</ele>
        <time>2020-06-17T18:12:51Z</time>
      </trkpt>
      <trkpt lat="49.58841" lon="0.17576">
        <ele>103.1</ele>
        <time>2020-06-17T18:12:52Z</time>
      </trkpt>
      <trkpt lat="49.58847" lon="0.17574">
        <ele>103</ele>
        <time>2020-06-17T18:12:53Z</time>
      </trkpt>
      <trkpt lat="49.58851" lon="0.17573">
        <ele>103</ele>
        <time>2020-06-17T18:12:54Z</time>
      </trkpt>
      <trkpt lat="49.58856" lon="0.17572">
        <ele>102.9</ele>
        <time>2020-06-17T18:12:55Z</time>
      </trkpt>
      <trkpt lat="49.58861" lon="0.17572">
        <ele>102.9</ele>
        <time>2020-06-17T18:12:56Z</time>
      </trkpt>
      <trkpt lat="49.58866" lon="0.1757">
        <ele>102.8</ele>
        <time>2020-06-17T18:12:57Z</time>
      </trkpt>
      <trkpt lat="49.58871" lon="0.17569">
        <ele>102.8</ele>
        <time>2020-06-17T18:12:58Z</time>
      </trkpt>
      <trkpt lat="49.58875" lon="0.17569">
        <ele>102.7</ele>
        <time>2020-06-17T18:12:59Z</time>
      </trkpt>
      <trkpt lat="49.58879" lon="0.17569">
        <ele>102.6</ele>
        <time>2020-06-17T18:13:00Z</time>
      </trkpt>
      <trkpt lat="49.58883" lon="0.17567">
        <ele>102.5</ele>
        <time>2020-06-17T18:13:01Z</time>
      </trkpt>
      <trkpt lat="49.58888" lon="0.17565">
        <ele>102.4</ele>
        <time>2020-06-17T18:13:02Z</time>
      </trkpt>
      <trkpt lat="49.58894" lon="0.17565">
        <ele>102.3</ele>
        <time>2020-06-17T18:13:03Z</time>
      </trkpt>
      <trkpt lat="49.589" lon="0.17566">
        <ele>102.2</ele>
        <time>2020-06-17T18:13:04Z</time>
      </trkpt>
      <trkpt lat="49.58906" lon="0.17565">
        <ele>102.1</ele>
        <time>2020-06-17T18:13:05Z</time>
      </trkpt>
      <trkpt lat="49.5891" lon="0.17564">
        <ele>102.1</ele>
        <time>2020-06-17T18:13:06Z</time>
      </trkpt>
      <trkpt lat="49.58915" lon="0.17561">
        <ele>102</ele>
        <time>2020-06-17T18:13:07Z</time>
      </trkpt>
      <trkpt lat="49.5892" lon="0.1756">
        <ele>101.9</ele>
        <time>2020-06-17T18:13:08Z</time>
      </trkpt>
      <trkpt lat="49.58924" lon="0.17558">
        <ele>101.8</ele>
        <time>2020-06-17T18:13:09Z</time>
      </trkpt>
      <trkpt lat="49.58929" lon="0.17557">
        <ele>101.7</ele>
        <time>2020-06-17T18:13:10Z</time>
      </trkpt>
      <trkpt lat="49.58933" lon="0.17555">
        <ele>101.6</ele>
        <time>2020-06-17T18:13:11Z</time>
      </trkpt>
      <trkpt lat="49.58937" lon="0.17554">
        <ele>101.5</ele>
        <time>2020-06-17T18:13:12Z</time>
      </trkpt>
      <trkpt lat="49.58942" lon="0.17552">
        <ele>101.5</ele>
        <time>2020-06-17T18:13:13Z</time>
      </trkpt>
      <trkpt lat="49.58946" lon="0.1755">
        <ele>101.4</ele>
        <time>2020-06-17T18:13:14Z</time>
      </trkpt>
      <trkpt lat="49.5895" lon="0.17548">
        <ele>101.3</ele>
        <time>2020-06-17T18:13:15Z</time>
      </trkpt>
      <trkpt lat="49.58955" lon="0.17545">
        <ele>101.2</ele>
        <time>2020-06-17T18:13:16Z</time>
      </trkpt>
      <trkpt lat="49.5896" lon="0.17542">
        <ele>101.2</ele>
        <time>2020-06-17T18:13:17Z</time>
      </trkpt>
      <trkpt lat="49.58965" lon="0.1754">
        <ele>101.1</ele>
        <time>2020-06-17T18:13:18Z</time>
      </trkpt>
      <trkpt lat="49.5897" lon="0.17539">
        <ele>101</ele>
        <time>2020-06-17T18:13:19Z</time>
      </trkpt>
      <trkpt lat="49.58974" lon="0.17537">
        <ele>100.9</ele>
        <time>2020-06-17T18:13:20Z</time>
      </trkpt>
      <trkpt lat="49.58978" lon="0.17533">
        <ele>100.8</ele>
        <time>2020-06-17T18:13:21Z</time>
      </trkpt>
      <trkpt lat="49.58983" lon="0.17531">
        <ele>100.7</ele>
        <time>2020-06-17T18:13:22Z</time>
      </trkpt>
      <trkpt lat="49.58988" lon="0.17528">
        <ele>100.6</ele>
        <time>2020-06-17T18:13:23Z</time>
      </trkpt>
      <trkpt lat="49.58993" lon="0.17525">
        <ele>100.5</ele>
        <time>2020-06-17T18:13:24Z</time>
      </trkpt>
      <trkpt lat="49.58997" lon="0.17522">
        <ele>100.5</ele>
        <time>2020-06-17T18:13:25Z</time>
      </trkpt>
      <trkpt lat="49.59001" lon="0.1752">
        <ele>100.4</ele>
        <time>2020-06-17T18:13:26Z</time>
      </trkpt>
      <trkpt lat="49.59006" lon="0.17518">
        <ele>100.3</ele>
        <time>2020-06-17T18:13:27Z</time>
      </trkpt>
      <trkpt lat="49.5901" lon="0.17516">
        <ele>100.2</ele>
        <time>2020-06-17T18:13:28Z</time>
      </trkpt>
      <trkpt lat="49.59015" lon="0.17514">
        <ele>100.1</ele>
        <time>2020-06-17T18:13:29Z</time>
      </trkpt>
      <trkpt lat="49.59019" lon="0.17511">
        <ele>100</ele>
        <time>2020-06-17T18:13:30Z</time>
      </trkpt>
      <trkpt lat="49.59023" lon="0.1751">
        <ele>99.9</ele>
        <time>2020-06-17T18:13:31Z</time>
      </trkpt>
      <trkpt lat="49.59028" lon="0.17508">
        <ele>99.9</ele>
        <time>2020-06-17T18:13:32Z</time>
      </trkpt>
      <trkpt lat="49.59031" lon="0.17506">
        <ele>99.8</ele>
        <time>2020-06-17T18:13:33Z</time>
      </trkpt>
      <trkpt lat="49.59036" lon="0.17503">
        <ele>99.7</ele>
        <time>2020-06-17T18:13:34Z</time>
      </trkpt>
      <trkpt lat="49.5904" lon="0.17502">
        <ele>99.6</ele>
        <time>2020-06-17T18:13:35Z</time>
      </trkpt>
      <trkpt lat="49.59044" lon="0.17501">
        <ele>99.5</ele>
        <time>2020-06-17T18:13:36Z</time>
      </trkpt>
      <trkpt lat="49.59048" lon="0.17499">
        <ele>99.5</ele>
        <time>2020-06-17T18:13:37Z</time>
      </trkpt>
      <trkpt lat="49.59052" lon="0.17497">
        <ele>99.5</ele>
        <time>2020-06-17T18:13:38Z</time>
      </trkpt>
      <trkpt lat="49.59056" lon="0.17494">
        <ele>99.4</ele>
        <time>2020-06-17T18:13:39Z</time>
      </trkpt>
      <trkpt lat="49.5906" lon="0.17493">
        <ele>99.4</ele>
        <time>2020-06-17T18:13:40Z</time>
      </trkpt>
      <trkpt lat="49.59064" lon="0.17491">
        <ele>99.4</ele>
        <time>2020-06-17T18:13:41Z</time>
      </trkpt>
      <trkpt lat="49.59069" lon="0.17489">
        <ele>99.3</ele>
        <time>2020-06-17T18:13:42Z</time>
      </trkpt>
      <trkpt lat="49.59075" lon="0.17486">
        <ele>99.2</ele>
        <time>2020-06-17T18:13:43Z</time>
      </trkpt>
      <trkpt lat="49.5908" lon="0.17483">
        <ele>99.2</ele>
        <time>2020-06-17T18:13:44Z</time>
      </trkpt>
      <trkpt lat="49.59085" lon="0.17482">
        <ele>99.1</ele>
        <time>2020-06-17T18:13:45Z</time>
      </trkpt>
      <trkpt lat="49.59091" lon="0.17481">
        <ele>99</ele>
        <time>2020-06-17T18:13:46Z</time>
      </trkpt>
      <trkpt lat="49.59096" lon="0.17479">
        <ele>99</ele>
        <time>2020-06-17T18:13:47Z</time>
      </trkpt>
      <trkpt lat="49.59101" lon="0.17479">
        <ele>98.9</ele>
        <time>2020-06-17T18:13:48Z</time>
      </trkpt>
      <trkpt lat="49.59105" lon="0.17478">
        <ele>98.8</ele>
        <time>2020-06-17T18:13:49Z</time>
      </trkpt>
      <trkpt lat="49.5911" lon="0.17478">
        <ele>98.7</ele>
        <time>2020-06-17T18:13:50Z</time>
      </trkpt>
      <trkpt lat="49.59117" lon="0.17477">
        <ele>98.5</ele>
        <time>2020-06-17T18:13:51Z</time>
      </trkpt>
      <trkpt lat="49.59123" lon="0.17476">
        <ele>98.4</ele>
        <time>2020-06-17T18:13:52Z</time>
      </trkpt>
      <trkpt lat="49.59129" lon="0.17476">
        <ele>98.2</ele>
        <time>2020-06-17T18:13:53Z</time>
      </trkpt>
      <trkpt lat="49.59134" lon="0.17475">
        <ele>98.1</ele>
        <time>2020-06-17T18:13:54Z</time>
      </trkpt>
      <trkpt lat="49.5914" lon="0.17475">
        <ele>98</ele>
        <time>2020-06-17T18:13:55Z</time>
      </trkpt>
      <trkpt lat="49.59145" lon="0.17475">
        <ele>97.9</ele>
        <time>2020-06-17T18:13:56Z</time>
      </trkpt>
      <trkpt lat="49.5915" lon="0.17475">
        <ele>97.8</ele>
        <time>2020-06-17T18:13:57Z</time>
      </trkpt>
      <trkpt lat="49.59155" lon="0.17475">
        <ele>97.7</ele>
        <time>2020-06-17T18:13:58Z</time>
      </trkpt>
      <trkpt lat="49.59162" lon="0.17475">
        <ele>97.6</ele>
        <time>2020-06-17T18:13:59Z</time>
      </trkpt>
      <trkpt lat="49.59167" lon="0.17476">
        <ele>97.5</ele>
        <time>2020-06-17T18:14:00Z</time>
      </trkpt>
      <trkpt lat="49.59172" lon="0.17477">
        <ele>97.5</ele>
        <time>2020-06-17T18:14:01Z</time>
      </trkpt>
      <trkpt lat="49.59177" lon="0.17479">
        <ele>97.4</ele>
        <time>2020-06-17T18:14:02Z</time>
      </trkpt>
      <trkpt lat="49.59183" lon="0.1748">
        <ele>97.3</ele>
        <time>2020-06-17T18:14:03Z</time>
      </trkpt>
      <trkpt lat="49.59188" lon="0.17482">
        <ele>97.2</ele>
        <time>2020-06-17T18:14:04Z</time>
      </trkpt>
      <trkpt lat="49.59193" lon="0.17485">
        <ele>97.1</ele>
        <time>2020-06-17T18:14:05Z</time>
      </trkpt>
      <trkpt lat="49.59198" lon="0.17487">
        <ele>97</ele>
        <time>2020-06-17T18:14:06Z</time>
      </trkpt>
      <trkpt lat="49.59202" lon="0.1749">
        <ele>96.9</ele>
        <time>2020-06-17T18:14:07Z</time>
      </trkpt>
      <trkpt lat="49.59208" lon="0.17493">
        <ele>96.8</ele>
        <time>2020-06-17T18:14:08Z</time>
      </trkpt>
      <trkpt lat="49.59213" lon="0.17496">
        <ele>96.7</ele>
        <time>2020-06-17T18:14:09Z</time>
      </trkpt>
      <trkpt lat="49.59217" lon="0.175">
        <ele>96.7</ele>
        <time>2020-06-17T18:14:10Z</time>
      </trkpt>
      <trkpt lat="49.59222" lon="0.17504">
        <ele>96.6</ele>
        <time>2020-06-17T18:14:11Z</time>
      </trkpt>
      <trkpt lat="49.59227" lon="0.17508">
        <ele>96.6</ele>
        <time>2020-06-17T18:14:12Z</time>
      </trkpt>
      <trkpt lat="49.59231" lon="0.17514">
        <ele>96.5</ele>
        <time>2020-06-17T18:14:13Z</time>
      </trkpt>
      <trkpt lat="49.59235" lon="0.17518">
        <ele>96.5</ele>
        <time>2020-06-17T18:14:14Z</time>
      </trkpt>
      <trkpt lat="49.5924" lon="0.17522">
        <ele>96.4</ele>
        <time>2020-06-17T18:14:15Z</time>
      </trkpt>
      <trkpt lat="49.59244" lon="0.17527">
        <ele>96.4</ele>
        <time>2020-06-17T18:14:16Z</time>
      </trkpt>
      <trkpt lat="49.59247" lon="0.1753">
        <ele>96.3</ele>
        <time>2020-06-17T18:14:17Z</time>
      </trkpt>
      <trkpt lat="49.59252" lon="0.17535">
        <ele>96.2</ele>
        <time>2020-06-17T18:14:18Z</time>
      </trkpt>
      <trkpt lat="49.59254" lon="0.17539">
        <ele>96.2</ele>
        <time>2020-06-17T18:14:19Z</time>
      </trkpt>
      <trkpt lat="49.59257" lon="0.17543">
        <ele>96.1</ele>
        <time>2020-06-17T18:14:20Z</time>
      </trkpt>
      <trkpt lat="49.5926" lon="0.17547">
        <ele>96.1</ele>
        <time>2020-06-17T18:14:21Z</time>
      </trkpt>
      <trkpt lat="49.59262" lon="0.1755">
        <ele>96</ele>
        <time>2020-06-17T18:14:22Z</time>
      </trkpt>
      <trkpt lat="49.59265" lon="0.17553">
        <ele>96</ele>
        <time>2020-06-17T18:14:23Z</time>
      </trkpt>
      <trkpt lat="49.59269" lon="0.17556">
        <ele>95.9</ele>
        <time>2020-06-17T18:14:24Z</time>
      </trkpt>
      <trkpt lat="49.59272" lon="0.17559">
        <ele>95.8</ele>
        <time>2020-06-17T18:14:25Z</time>
      </trkpt>
      <trkpt lat="49.59277" lon="0.17563">
        <ele>95.7</ele>
        <time>2020-06-17T18:14:26Z</time>
      </trkpt>
      <trkpt lat="49.59281" lon="0.17567">
        <ele>95.6</ele>
        <time>2020-06-17T18:14:27Z</time>
      </trkpt>
      <trkpt lat="49.59286" lon="0.17571">
        <ele>95.5</ele>
        <time>2020-06-17T18:14:28Z</time>
      </trkpt>
      <trkpt lat="49.59291" lon="0.17575">
        <ele>95.3</ele>
        <time>2020-06-17T18:14:29Z</time>
      </trkpt>
      <trkpt lat="49.59296" lon="0.1758">
        <ele>95.2</ele>
        <time>2020-06-17T18:14:30Z</time>
      </trkpt>
      <trkpt lat="49.59301" lon="0.17585">
        <ele>95.1</ele>
        <time>2020-06-17T18:14:31Z</time>
      </trkpt>
      <trkpt lat="49.59307" lon="0.1759">
        <ele>95</ele>
        <time>2020-06-17T18:14:32Z</time>
      </trkpt>
      <trkpt lat="49.59311" lon="0.17594">
        <ele>94.9</ele>
        <time>2020-06-17T18:14:33Z</time>
      </trkpt>
      <trkpt lat="49.59316" lon="0.17599">
        <ele>94.8</ele>
        <time>2020-06-17T18:14:34Z</time>
      </trkpt>
      <trkpt lat="49.59321" lon="0.17602">
        <ele>94.7</ele>
        <time>2020-06-17T18:14:35Z</time>
      </trkpt>
      <trkpt lat="49.59326" lon="0.17604">
        <ele>94.7</ele>
        <time>2020-06-17T18:14:36Z</time>
      </trkpt>
      <trkpt lat="49.59331" lon="0.17607">
        <ele>94.7</ele>
        <time>2020-06-17T18:14:37Z</time>
      </trkpt>
      <trkpt lat="49.59337" lon="0.1761">
        <ele>94.7</ele>
        <time>2020-06-17T18:14:38Z</time>
      </trkpt>
      <trkpt lat="49.59343" lon="0.17612">
        <ele>94.7</ele>
        <time>2020-06-17T18:14:39Z</time>
      </trkpt>
      <trkpt lat="49.59349" lon="0.17614">
        <ele>94.8</ele>
        <time>2020-06-17T18:14:40Z</time>
      </trkpt>
      <trkpt lat="49.59354" lon="0.17616">
        <ele>94.9</ele>
        <time>2020-06-17T18:14:41Z</time>
      </trkpt>
      <trkpt lat="49.5936" lon="0.17618">
        <ele>94.9</ele>
        <time>2020-06-17T18:14:42Z</time>
      </trkpt>
      <trkpt lat="49.59365" lon="0.17621">
        <ele>95</ele>
        <time>2020-06-17T18:14:43Z</time>
      </trkpt>
      <trkpt lat="49.5937" lon="0.17623">
        <ele>95.1</ele>
        <time>2020-06-17T18:14:44Z</time>
      </trkpt>
      <trkpt lat="49.59375" lon="0.17625">
        <ele>95.3</ele>
        <time>2020-06-17T18:14:45Z</time>
      </trkpt>
      <trkpt lat="49.5938" lon="0.17627">
        <ele>95.4</ele>
        <time>2020-06-17T18:14:46Z</time>
      </trkpt>
      <trkpt lat="49.59385" lon="0.17628">
        <ele>95.6</ele>
        <time>2020-06-17T18:14:47Z</time>
      </trkpt>
      <trkpt lat="49.5939" lon="0.17629">
        <ele>95.8</ele>
        <time>2020-06-17T18:14:48Z</time>
      </trkpt>
      <trkpt lat="49.59395" lon="0.17631">
        <ele>95.9</ele>
        <time>2020-06-17T18:14:49Z</time>
      </trkpt>
      <trkpt lat="49.594" lon="0.17633">
        <ele>96.1</ele>
        <time>2020-06-17T18:14:50Z</time>
      </trkpt>
      <trkpt lat="49.59405" lon="0.17636">
        <ele>96.3</ele>
        <time>2020-06-17T18:14:51Z</time>
      </trkpt>
      <trkpt lat="49.5941" lon="0.17639">
        <ele>96.5</ele>
        <time>2020-06-17T18:14:52Z</time>
      </trkpt>
      <trkpt lat="49.59415" lon="0.17642">
        <ele>96.7</ele>
        <time>2020-06-17T18:14:53Z</time>
      </trkpt>
      <trkpt lat="49.59419" lon="0.17646">
        <ele>96.9</ele>
        <time>2020-06-17T18:14:54Z</time>
      </trkpt>
      <trkpt lat="49.59424" lon="0.17649">
        <ele>97.1</ele>
        <time>2020-06-17T18:14:55Z</time>
      </trkpt>
      <trkpt lat="49.59428" lon="0.17651">
        <ele>97.2</ele>
        <time>2020-06-17T18:14:56Z</time>
      </trkpt>
      <trkpt lat="49.59432" lon="0.17654">
        <ele>97.4</ele>
        <time>2020-06-17T18:14:57Z</time>
      </trkpt>
      <trkpt lat="49.59436" lon="0.17657">
        <ele>97.5</ele>
        <time>2020-06-17T18:14:58Z</time>
      </trkpt>
      <trkpt lat="49.5944" lon="0.17659">
        <ele>97.7</ele>
        <time>2020-06-17T18:14:59Z</time>
      </trkpt>
      <trkpt lat="49.59444" lon="0.17663">
        <ele>97.8</ele>
        <time>2020-06-17T18:15:00Z</time>
      </trkpt>
      <trkpt lat="49.59449" lon="0.17666">
        <ele>97.9</ele>
        <time>2020-06-17T18:15:01Z</time>
      </trkpt>
      <trkpt lat="49.59453" lon="0.17669">
        <ele>98</ele>
        <time>2020-06-17T18:15:02Z</time>
      </trkpt>
      <trkpt lat="49.59457" lon="0.17672">
        <ele>98.1</ele>
        <time>2020-06-17T18:15:03Z</time>
      </trkpt>
      <trkpt lat="49.5946" lon="0.17674">
        <ele>98.1</ele>
        <time>2020-06-17T18:15:04Z</time>
      </trkpt>
      <trkpt lat="49.59463" lon="0.17675">
        <ele>98.2</ele>
        <time>2020-06-17T18:15:05Z</time>
      </trkpt>
      <trkpt lat="49.59466" lon="0.17675">
        <ele>98.2</ele>
        <time>2020-06-17T18:15:06Z</time>
      </trkpt>
      <trkpt lat="49.5947" lon="0.17675">
        <ele>98.3</ele>
        <time>2020-06-17T18:15:07Z</time>
      </trkpt>
      <trkpt lat="49.59473" lon="0.17675">
        <ele>98.3</ele>
        <time>2020-06-17T18:15:08Z</time>
      </trkpt>
      <trkpt lat="49.59476" lon="0.17673">
        <ele>98.3</ele>
        <time>2020-06-17T18:15:09Z</time>
      </trkpt>
      <trkpt lat="49.5948" lon="0.17669">
        <ele>98.4</ele>
        <time>2020-06-17T18:15:10Z</time>
      </trkpt>
      <trkpt lat="49.59484" lon="0.17667">
        <ele>98.4</ele>
        <time>2020-06-17T18:15:11Z</time>
      </trkpt>
      <trkpt lat="49.59488" lon="0.17663">
        <ele>98.4</ele>
        <time>2020-06-17T18:15:12Z</time>
      </trkpt>
      <trkpt lat="49.59492" lon="0.17661">
        <ele>98.5</ele>
        <time>2020-06-17T18:15:13Z</time>
      </trkpt>
      <trkpt lat="49.59495" lon="0.17659">
        <ele>98.5</ele>
        <time>2020-06-17T18:15:14Z</time>
      </trkpt>
      <trkpt lat="49.59498" lon="0.17656">
        <ele>98.5</ele>
        <time>2020-06-17T18:15:15Z</time>
      </trkpt>
      <trkpt lat="49.59502" lon="0.17652">
        <ele>98.5</ele>
        <time>2020-06-17T18:15:16Z</time>
      </trkpt>
      <trkpt lat="49.59506" lon="0.17648">
        <ele>98.5</ele>
        <time>2020-06-17T18:15:17Z</time>
      </trkpt>
      <trkpt lat="49.5951" lon="0.17645">
        <ele>98.5</ele>
        <time>2020-06-17T18:15:18Z</time>
      </trkpt>
      <trkpt lat="49.59514" lon="0.17643">
        <ele>98.5</ele>
        <time>2020-06-17T18:15:19Z</time>
      </trkpt>
      <trkpt lat="49.59518" lon="0.17642">
        <ele>98.5</ele>
        <time>2020-06-17T18:15:20Z</time>
      </trkpt>
      <trkpt lat="49.59523" lon="0.17642">
        <ele>98.5</ele>
        <time>2020-06-17T18:15:21Z</time>
      </trkpt>
      <trkpt lat="49.59526" lon="0.17642">
        <ele>98.5</ele>
        <time>2020-06-17T18:15:22Z</time>
      </trkpt>
      <trkpt lat="49.5953" lon="0.1764">
        <ele>98.5</ele>
        <time>2020-06-17T18:15:23Z</time>
      </trkpt>
      <trkpt lat="49.59534" lon="0.17638">
        <ele>98.5</ele>
        <time>2020-06-17T18:15:24Z</time>
      </trkpt>
      <trkpt lat="49.59537" lon="0.17636">
        <ele>98.5</ele>
        <time>2020-06-17T18:15:25Z</time>
      </trkpt>
      <trkpt lat="49.5954" lon="0.17637">
        <ele>98.5</ele>
        <time>2020-06-17T18:15:26Z</time>
      </trkpt>
      <trkpt lat="49.59544" lon="0.17636">
        <ele>98.5</ele>
        <time>2020-06-17T18:15:27Z</time>
      </trkpt>
      <trkpt lat="49.59547" lon="0.17635">
        <ele>98.5</ele>
        <time>2020-06-17T18:15:28Z</time>
      </trkpt>
      <trkpt lat="49.59549" lon="0.17634">
        <ele>98.5</ele>
        <time>2020-06-17T18:15:29Z</time>
      </trkpt>
      <trkpt lat="49.59551" lon="0.17632">
        <ele>98.5</ele>
        <time>2020-06-17T18:15:30Z</time>
      </trkpt>
      <trkpt lat="49.59556" lon="0.17631">
        <ele>98.5</ele>
        <time>2020-06-17T18:15:31Z</time>
      </trkpt>
      <trkpt lat="49.59557" lon="0.17631">
        <ele>98.5</ele>
        <time>2020-06-17T18:15:32Z</time>
      </trkpt>
      <trkpt lat="49.5956" lon="0.1763">
        <ele>98.5</ele>
        <time>2020-06-17T18:15:33Z</time>
      </trkpt>
      <trkpt lat="49.59561" lon="0.1763">
        <ele>98.5</ele>
        <time>2020-06-17T18:15:34Z</time>
      </trkpt>
      <trkpt lat="49.59563" lon="0.17629">
        <ele>98.5</ele>
        <time>2020-06-17T18:15:35Z</time>
      </trkpt>
      <trkpt lat="49.59563" lon="0.17629">
        <ele>98.5</ele>
        <time>2020-06-17T18:15:36Z</time>
      </trkpt>
      <trkpt lat="49.59564" lon="0.17628">
        <ele>98.5</ele>
        <time>2020-06-17T18:15:37Z</time>
      </trkpt>
      <trkpt lat="49.59564" lon="0.17628">
        <ele>98.5</ele>
        <time>2020-06-17T18:15:38Z</time>
      </trkpt>
      <trkpt lat="49.59564" lon="0.17628">
        <ele>98.5</ele>
        <time>2020-06-17T18:15:39Z</time>
      </trkpt>
      <trkpt lat="49.59564" lon="0.17628">
        <ele>98.5</ele>
        <time>2020-06-17T18:15:40Z</time>
      </trkpt>
      <trkpt lat="49.59565" lon="0.17627">
        <ele>98.5</ele>
        <time>2020-06-17T18:15:41Z</time>
      </trkpt>
      <trkpt lat="49.59565" lon="0.17627">
        <ele>98.5</ele>
        <time>2020-06-17T18:15:42Z</time>
      </trkpt>
      <trkpt lat="49.59565" lon="0.17627">
        <ele>98.5</ele>
        <time>2020-06-17T18:15:43Z</time>
      </trkpt>
      <trkpt lat="49.59565" lon="0.17627">
        <ele>98.5</ele>
        <time>2020-06-17T18:15:44Z</time>
      </trkpt>
      <trkpt lat="49.59566" lon="0.17626">
        <ele>98.5</ele>
        <time>2020-06-17T18:15:45Z</time>
      </trkpt>
      <trkpt lat="49.59566" lon="0.17626">
        <ele>98.5</ele>
        <time>2020-06-17T18:15:46Z</time>
      </trkpt>
      <trkpt lat="49.59566" lon="0.17626">
        <ele>98.5</ele>
        <time>2020-06-17T18:15:47Z</time>
      </trkpt>
      <trkpt lat="49.59566" lon="0.17626">
        <ele>98.5</ele>
        <time>2020-06-17T18:15:48Z</time>
      </trkpt>
      <trkpt lat="49.59567" lon="0.17625">
        <ele>98.5</ele>
        <time>2020-06-17T18:15:49Z</time>
      </trkpt>
      <trkpt lat="49.59567" lon="0.17625">
        <ele>98.5</ele>
        <time>2020-06-17T18:15:50Z</time>
      </trkpt>
      <trkpt lat="49.59567" lon="0.17625">
        <ele>98.5</ele>
        <time>2020-06-17T18:15:51Z</time>
      </trkpt>
      <trkpt lat="49.59567" lon="0.17625">
        <ele>98.5</ele>
        <time>2020-06-17T18:15:52Z</time>
      </trkpt>
      <trkpt lat="49.59568" lon="0.17624">
        <ele>98.5</ele>
        <time>2020-06-17T18:15:53Z</time>
      </trkpt>
      <trkpt lat="49.59568" lon="0.17624">
        <ele>98.5</ele>
        <time>2020-06-17T18:15:54Z</time>
      </trkpt>
      <trkpt lat="49.59568" lon="0.17624">
        <ele>98.5</ele>
        <time>2020-06-17T18:15:55Z</time>
      </trkpt>
      <trkpt lat="49.59568" lon="0.17624">
        <ele>98.5</ele>
        <time>2020-06-17T18:16:06Z</time>
      </trkpt>
      <trkpt lat="49.59569" lon="0.17623">
        <ele>98.5</ele>
        <time>2020-06-17T18:16:07Z</time>
      </trkpt>
      <trkpt lat="49.59572" lon="0.17619">
        <ele>98.5</ele>
        <time>2020-06-17T18:16:08Z</time>
      </trkpt>
      <trkpt lat="49.59573" lon="0.17618">
        <ele>98.4</ele>
        <time>2020-06-17T18:16:09Z</time>
      </trkpt>
      <trkpt lat="49.59575" lon="0.17614">
        <ele>98.4</ele>
        <time>2020-06-17T18:16:10Z</time>
      </trkpt>
      <trkpt lat="49.59578" lon="0.17613">
        <ele>98.4</ele>
        <time>2020-06-17T18:16:11Z</time>
      </trkpt>
      <trkpt lat="49.59579" lon="0.17613">
        <ele>98.4</ele>
        <time>2020-06-17T18:16:12Z</time>
      </trkpt>
      <trkpt lat="49.5958" lon="0.17614">
        <ele>98.4</ele>
        <time>2020-06-17T18:16:13Z</time>
      </trkpt>
      <trkpt lat="49.59582" lon="0.17616">
        <ele>98.4</ele>
        <time>2020-06-17T18:16:14Z</time>
      </trkpt>
      <trkpt lat="49.59581" lon="0.17618">
        <ele>98.4</ele>
        <time>2020-06-17T18:16:15Z</time>
      </trkpt>
      <trkpt lat="49.59581" lon="0.1762">
        <ele>98.4</ele>
        <time>2020-06-17T18:16:16Z</time>
      </trkpt>
      <trkpt lat="49.59578" lon="0.17622">
        <ele>98.3</ele>
        <time>2020-06-17T18:16:17Z</time>
      </trkpt>
      <trkpt lat="49.59577" lon="0.17623">
        <ele>98.3</ele>
        <time>2020-06-17T18:16:18Z</time>
      </trkpt>
      <trkpt lat="49.59574" lon="0.17627">
        <ele>98.3</ele>
        <time>2020-06-17T18:16:19Z</time>
      </trkpt>
      <trkpt lat="49.59573" lon="0.17628">
        <ele>98.3</ele>
        <time>2020-06-17T18:16:20Z</time>
      </trkpt>
      <trkpt lat="49.59571" lon="0.17631">
        <ele>98.3</ele>
        <time>2020-06-17T18:16:21Z</time>
      </trkpt>
      <trkpt lat="49.59569" lon="0.17634">
        <ele>98.2</ele>
        <time>2020-06-17T18:16:22Z</time>
      </trkpt>
      <trkpt lat="49.59568" lon="0.17635">
        <ele>98.2</ele>
        <time>2020-06-17T18:16:23Z</time>
      </trkpt>
      <trkpt lat="49.59565" lon="0.17638">
        <ele>98.2</ele>
        <time>2020-06-17T18:16:24Z</time>
      </trkpt>
      <trkpt lat="49.59565" lon="0.17639">
        <ele>98.2</ele>
        <time>2020-06-17T18:16:25Z</time>
      </trkpt>
      <trkpt lat="49.59564" lon="0.1764">
        <ele>98.2</ele>
        <time>2020-06-17T18:16:26Z</time>
      </trkpt>
      <trkpt lat="49.59563" lon="0.17641">
        <ele>98.2</ele>
        <time>2020-06-17T18:16:27Z</time>
      </trkpt>
      <trkpt lat="49.59563" lon="0.17641">
        <ele>98.2</ele>
        <time>2020-06-17T18:16:28Z</time>
      </trkpt>
      <trkpt lat="49.59563" lon="0.17642">
        <ele>98.2</ele>
        <time>2020-06-17T18:16:29Z</time>
      </trkpt>
      <trkpt lat="49.59562" lon="0.17643">
        <ele>98.1</ele>
        <time>2020-06-17T18:16:30Z</time>
      </trkpt>
      <trkpt lat="49.59562" lon="0.17643">
        <ele>98.1</ele>
        <time>2020-06-17T18:16:31Z</time>
      </trkpt>
      <trkpt lat="49.59562" lon="0.17643">
        <ele>98.1</ele>
        <time>2020-06-17T18:16:32Z</time>
      </trkpt>
      <trkpt lat="49.59562" lon="0.17643">
        <ele>98.1</ele>
        <time>2020-06-17T18:16:33Z</time>
      </trkpt>
      <trkpt lat="49.59561" lon="0.17645">
        <ele>98.1</ele>
        <time>2020-06-17T18:16:34Z</time>
      </trkpt>
      <trkpt lat="49.59561" lon="0.17645">
        <ele>98.1</ele>
        <time>2020-06-17T18:16:35Z</time>
      </trkpt>
      <trkpt lat="49.59561" lon="0.17645">
        <ele>98.1</ele>
        <time>2020-06-17T18:16:36Z</time>
      </trkpt>
      <trkpt lat="49.59561" lon="0.17645">
        <ele>98.1</ele>
        <time>2020-06-17T18:16:37Z</time>
      </trkpt>
      <trkpt lat="49.59561" lon="0.17645">
        <ele>98.1</ele>
        <time>2020-06-17T18:16:38Z</time>
      </trkpt>
      <trkpt lat="49.59567" lon="0.17633">
        <ele>98</ele>
        <time>2020-06-17T18:21:47Z</time>
      </trkpt>
      <trkpt lat="49.59569" lon="0.1763">
        <ele>98</ele>
        <time>2020-06-17T18:21:48Z</time>
      </trkpt>
      <trkpt lat="49.59571" lon="0.17627">
        <ele>97.9</ele>
        <time>2020-06-17T18:21:49Z</time>
      </trkpt>
      <trkpt lat="49.59574" lon="0.17625">
        <ele>97.9</ele>
        <time>2020-06-17T18:21:50Z</time>
      </trkpt>
      <trkpt lat="49.59575" lon="0.17625">
        <ele>97.9</ele>
        <time>2020-06-17T18:21:51Z</time>
      </trkpt>
      <trkpt lat="49.59578" lon="0.17622">
        <ele>97.9</ele>
        <time>2020-06-17T18:21:52Z</time>
      </trkpt>
      <trkpt lat="49.59579" lon="0.17621">
        <ele>97.8</ele>
        <time>2020-06-17T18:21:53Z</time>
      </trkpt>
      <trkpt lat="49.59581" lon="0.17617">
        <ele>97.8</ele>
        <time>2020-06-17T18:21:54Z</time>
      </trkpt>
      <trkpt lat="49.59585" lon="0.17616">
        <ele>97.8</ele>
        <time>2020-06-17T18:21:55Z</time>
      </trkpt>
      <trkpt lat="49.59586" lon="0.17616">
        <ele>97.8</ele>
        <time>2020-06-17T18:21:56Z</time>
      </trkpt>
      <trkpt lat="49.59588" lon="0.17612">
        <ele>97.7</ele>
        <time>2020-06-17T18:21:57Z</time>
      </trkpt>
      <trkpt lat="49.59589" lon="0.17611">
        <ele>97.7</ele>
        <time>2020-06-17T18:21:58Z</time>
      </trkpt>
      <trkpt lat="49.59593" lon="0.17609">
        <ele>97.7</ele>
        <time>2020-06-17T18:21:59Z</time>
      </trkpt>
      <trkpt lat="49.59594" lon="0.17608">
        <ele>97.7</ele>
        <time>2020-06-17T18:22:00Z</time>
      </trkpt>
      <trkpt lat="49.59597" lon="0.17605">
        <ele>97.6</ele>
        <time>2020-06-17T18:22:01Z</time>
      </trkpt>
      <trkpt lat="49.59598" lon="0.17604">
        <ele>97.6</ele>
        <time>2020-06-17T18:22:02Z</time>
      </trkpt>
      <trkpt lat="49.59601" lon="0.17602">
        <ele>97.6</ele>
        <time>2020-06-17T18:22:03Z</time>
      </trkpt>
      <trkpt lat="49.59604" lon="0.17601">
        <ele>97.6</ele>
        <time>2020-06-17T18:22:04Z</time>
      </trkpt>
      <trkpt lat="49.59608" lon="0.17599">
        <ele>97.6</ele>
        <time>2020-06-17T18:22:05Z</time>
      </trkpt>
      <trkpt lat="49.59612" lon="0.17596">
        <ele>97.5</ele>
        <time>2020-06-17T18:22:06Z</time>
      </trkpt>
      <trkpt lat="49.59615" lon="0.17597">
        <ele>97.4</ele>
        <time>2020-06-17T18:22:07Z</time>
      </trkpt>
      <trkpt lat="49.59619" lon="0.17597">
        <ele>97.3</ele>
        <time>2020-06-17T18:22:08Z</time>
      </trkpt>
      <trkpt lat="49.59622" lon="0.17597">
        <ele>97.2</ele>
        <time>2020-06-17T18:22:09Z</time>
      </trkpt>
      <trkpt lat="49.59627" lon="0.17597">
        <ele>97</ele>
        <time>2020-06-17T18:22:10Z</time>
      </trkpt>
      <trkpt lat="49.59632" lon="0.17597">
        <ele>96.9</ele>
        <time>2020-06-17T18:22:11Z</time>
      </trkpt>
      <trkpt lat="49.59637" lon="0.17597">
        <ele>96.7</ele>
        <time>2020-06-17T18:22:12Z</time>
      </trkpt>
      <trkpt lat="49.59642" lon="0.17598">
        <ele>96.5</ele>
        <time>2020-06-17T18:22:13Z</time>
      </trkpt>
      <trkpt lat="49.59647" lon="0.17598">
        <ele>96.3</ele>
        <time>2020-06-17T18:22:14Z</time>
      </trkpt>
      <trkpt lat="49.59652" lon="0.17598">
        <ele>96</ele>
        <time>2020-06-17T18:22:15Z</time>
      </trkpt>
      <trkpt lat="49.59659" lon="0.17599">
        <ele>95.8</ele>
        <time>2020-06-17T18:22:16Z</time>
      </trkpt>
      <trkpt lat="49.59665" lon="0.17599">
        <ele>95.5</ele>
        <time>2020-06-17T18:22:17Z</time>
      </trkpt>
      <trkpt lat="49.59673" lon="0.176">
        <ele>95.1</ele>
        <time>2020-06-17T18:22:18Z</time>
      </trkpt>
      <trkpt lat="49.5968" lon="0.17601">
        <ele>94.8</ele>
        <time>2020-06-17T18:22:19Z</time>
      </trkpt>
      <trkpt lat="49.59687" lon="0.17601">
        <ele>94.5</ele>
        <time>2020-06-17T18:22:20Z</time>
      </trkpt>
      <trkpt lat="49.59694" lon="0.176">
        <ele>94.2</ele>
        <time>2020-06-17T18:22:21Z</time>
      </trkpt>
      <trkpt lat="49.59703" lon="0.17599">
        <ele>93.9</ele>
        <time>2020-06-17T18:22:22Z</time>
      </trkpt>
      <trkpt lat="49.5971" lon="0.17599">
        <ele>93.6</ele>
        <time>2020-06-17T18:22:23Z</time>
      </trkpt>
      <trkpt lat="49.59718" lon="0.17599">
        <ele>93.3</ele>
        <time>2020-06-17T18:22:24Z</time>
      </trkpt>
      <trkpt lat="49.59725" lon="0.17599">
        <ele>93</ele>
        <time>2020-06-17T18:22:25Z</time>
      </trkpt>
      <trkpt lat="49.59732" lon="0.17599">
        <ele>92.8</ele>
        <time>2020-06-17T18:22:26Z</time>
      </trkpt>
      <trkpt lat="49.5974" lon="0.17597">
        <ele>92.5</ele>
        <time>2020-06-17T18:22:27Z</time>
      </trkpt>
      <trkpt lat="49.59749" lon="0.17594">
        <ele>92.3</ele>
        <time>2020-06-17T18:22:28Z</time>
      </trkpt>
      <trkpt lat="49.59756" lon="0.17591">
        <ele>92.1</ele>
        <time>2020-06-17T18:22:29Z</time>
      </trkpt>
      <trkpt lat="49.59764" lon="0.17588">
        <ele>91.9</ele>
        <time>2020-06-17T18:22:30Z</time>
      </trkpt>
      <trkpt lat="49.59772" lon="0.17585">
        <ele>91.6</ele>
        <time>2020-06-17T18:22:31Z</time>
      </trkpt>
      <trkpt lat="49.5978" lon="0.17582">
        <ele>91.5</ele>
        <time>2020-06-17T18:22:32Z</time>
      </trkpt>
      <trkpt lat="49.59786" lon="0.1758">
        <ele>91.4</ele>
        <time>2020-06-17T18:22:33Z</time>
      </trkpt>
      <trkpt lat="49.59793" lon="0.17576">
        <ele>91.4</ele>
        <time>2020-06-17T18:22:34Z</time>
      </trkpt>
      <trkpt lat="49.59802" lon="0.17572">
        <ele>91.3</ele>
        <time>2020-06-17T18:22:35Z</time>
      </trkpt>
      <trkpt lat="49.59809" lon="0.17568">
        <ele>91</ele>
        <time>2020-06-17T18:22:36Z</time>
      </trkpt>
      <trkpt lat="49.59816" lon="0.17566">
        <ele>90.9</ele>
        <time>2020-06-17T18:22:37Z</time>
      </trkpt>
      <trkpt lat="49.59823" lon="0.17563">
        <ele>90.8</ele>
        <time>2020-06-17T18:22:38Z</time>
      </trkpt>
      <trkpt lat="49.59829" lon="0.1756">
        <ele>90.6</ele>
        <time>2020-06-17T18:22:39Z</time>
      </trkpt>
      <trkpt lat="49.59836" lon="0.17558">
        <ele>90.4</ele>
        <time>2020-06-17T18:22:40Z</time>
      </trkpt>
      <trkpt lat="49.59843" lon="0.17555">
        <ele>90.2</ele>
        <time>2020-06-17T18:22:41Z</time>
      </trkpt>
      <trkpt lat="49.5985" lon="0.17553">
        <ele>90</ele>
        <time>2020-06-17T18:22:42Z</time>
      </trkpt>
      <trkpt lat="49.59857" lon="0.1755">
        <ele>89.8</ele>
        <time>2020-06-17T18:22:43Z</time>
      </trkpt>
      <trkpt lat="49.59865" lon="0.17547">
        <ele>89.5</ele>
        <time>2020-06-17T18:22:44Z</time>
      </trkpt>
      <trkpt lat="49.59872" lon="0.17544">
        <ele>89.3</ele>
        <time>2020-06-17T18:22:45Z</time>
      </trkpt>
      <trkpt lat="49.59879" lon="0.17541">
        <ele>89</ele>
        <time>2020-06-17T18:22:46Z</time>
      </trkpt>
      <trkpt lat="49.59887" lon="0.17537">
        <ele>88.7</ele>
        <time>2020-06-17T18:22:47Z</time>
      </trkpt>
      <trkpt lat="49.59894" lon="0.17533">
        <ele>88.5</ele>
        <time>2020-06-17T18:22:48Z</time>
      </trkpt>
      <trkpt lat="49.59902" lon="0.1753">
        <ele>88.3</ele>
        <time>2020-06-17T18:22:49Z</time>
      </trkpt>
      <trkpt lat="49.59909" lon="0.17526">
        <ele>88.1</ele>
        <time>2020-06-17T18:22:50Z</time>
      </trkpt>
      <trkpt lat="49.59915" lon="0.17523">
        <ele>88</ele>
        <time>2020-06-17T18:22:51Z</time>
      </trkpt>
      <trkpt lat="49.59921" lon="0.1752">
        <ele>87.9</ele>
        <time>2020-06-17T18:22:52Z</time>
      </trkpt>
      <trkpt lat="49.59926" lon="0.17517">
        <ele>87.7</ele>
        <time>2020-06-17T18:22:53Z</time>
      </trkpt>
      <trkpt lat="49.5993" lon="0.17514">
        <ele>87.6</ele>
        <time>2020-06-17T18:22:54Z</time>
      </trkpt>
      <trkpt lat="49.59935" lon="0.17511">
        <ele>87.5</ele>
        <time>2020-06-17T18:22:55Z</time>
      </trkpt>
      <trkpt lat="49.59939" lon="0.17508">
        <ele>87.4</ele>
        <time>2020-06-17T18:22:56Z</time>
      </trkpt>
      <trkpt lat="49.59943" lon="0.17505">
        <ele>87.3</ele>
        <time>2020-06-17T18:22:57Z</time>
      </trkpt>
      <trkpt lat="49.59946" lon="0.17501">
        <ele>87.2</ele>
        <time>2020-06-17T18:22:58Z</time>
      </trkpt>
      <trkpt lat="49.59951" lon="0.17497">
        <ele>87</ele>
        <time>2020-06-17T18:22:59Z</time>
      </trkpt>
      <trkpt lat="49.59956" lon="0.17493">
        <ele>86.8</ele>
        <time>2020-06-17T18:23:00Z</time>
      </trkpt>
      <trkpt lat="49.5996" lon="0.17489">
        <ele>86.7</ele>
        <time>2020-06-17T18:23:01Z</time>
      </trkpt>
      <trkpt lat="49.59965" lon="0.17484">
        <ele>86.6</ele>
        <time>2020-06-17T18:23:02Z</time>
      </trkpt>
      <trkpt lat="49.5997" lon="0.17479">
        <ele>86.4</ele>
        <time>2020-06-17T18:23:03Z</time>
      </trkpt>
      <trkpt lat="49.59975" lon="0.17474">
        <ele>86.3</ele>
        <time>2020-06-17T18:23:04Z</time>
      </trkpt>
      <trkpt lat="49.59981" lon="0.17467">
        <ele>86.2</ele>
        <time>2020-06-17T18:23:05Z</time>
      </trkpt>
      <trkpt lat="49.59986" lon="0.1746">
        <ele>86.1</ele>
        <time>2020-06-17T18:23:06Z</time>
      </trkpt>
      <trkpt lat="49.59991" lon="0.17455">
        <ele>86</ele>
        <time>2020-06-17T18:23:07Z</time>
      </trkpt>
      <trkpt lat="49.59996" lon="0.1745">
        <ele>85.9</ele>
        <time>2020-06-17T18:23:08Z</time>
      </trkpt>
      <trkpt lat="49.60001" lon="0.17445">
        <ele>85.8</ele>
        <time>2020-06-17T18:23:09Z</time>
      </trkpt>
      <trkpt lat="49.60006" lon="0.17439">
        <ele>85.7</ele>
        <time>2020-06-17T18:23:10Z</time>
      </trkpt>
      <trkpt lat="49.60011" lon="0.17432">
        <ele>85.7</ele>
        <time>2020-06-17T18:23:11Z</time>
      </trkpt>
      <trkpt lat="49.60016" lon="0.17427">
        <ele>85.6</ele>
        <time>2020-06-17T18:23:12Z</time>
      </trkpt>
      <trkpt lat="49.6002" lon="0.17421">
        <ele>85.6</ele>
        <time>2020-06-17T18:23:13Z</time>
      </trkpt>
      <trkpt lat="49.60024" lon="0.17415">
        <ele>85.6</ele>
        <time>2020-06-17T18:23:14Z</time>
      </trkpt>
      <trkpt lat="49.60028" lon="0.1741">
        <ele>85.6</ele>
        <time>2020-06-17T18:23:15Z</time>
      </trkpt>
      <trkpt lat="49.60032" lon="0.17406">
        <ele>85.6</ele>
        <time>2020-06-17T18:23:16Z</time>
      </trkpt>
      <trkpt lat="49.60037" lon="0.17401">
        <ele>85.6</ele>
        <time>2020-06-17T18:23:17Z</time>
      </trkpt>
      <trkpt lat="49.60041" lon="0.17397">
        <ele>85.6</ele>
        <time>2020-06-17T18:23:18Z</time>
      </trkpt>
      <trkpt lat="49.60047" lon="0.17394">
        <ele>85.6</ele>
        <time>2020-06-17T18:23:19Z</time>
      </trkpt>
      <trkpt lat="49.60052" lon="0.17392">
        <ele>85.6</ele>
        <time>2020-06-17T18:23:20Z</time>
      </trkpt>
      <trkpt lat="49.60057" lon="0.1739">
        <ele>85.6</ele>
        <time>2020-06-17T18:23:21Z</time>
      </trkpt>
      <trkpt lat="49.60062" lon="0.17389">
        <ele>85.6</ele>
        <time>2020-06-17T18:23:22Z</time>
      </trkpt>
      <trkpt lat="49.6007" lon="0.17388">
        <ele>85.6</ele>
        <time>2020-06-17T18:23:23Z</time>
      </trkpt>
      <trkpt lat="49.60078" lon="0.17387">
        <ele>85.6</ele>
        <time>2020-06-17T18:23:24Z</time>
      </trkpt>
      <trkpt lat="49.60085" lon="0.17387">
        <ele>85.6</ele>
        <time>2020-06-17T18:23:25Z</time>
      </trkpt>
      <trkpt lat="49.60092" lon="0.17389">
        <ele>85.6</ele>
        <time>2020-06-17T18:23:26Z</time>
      </trkpt>
      <trkpt lat="49.60099" lon="0.17392">
        <ele>85.6</ele>
        <time>2020-06-17T18:23:27Z</time>
      </trkpt>
      <trkpt lat="49.60105" lon="0.17395">
        <ele>85.6</ele>
        <time>2020-06-17T18:23:28Z</time>
      </trkpt>
      <trkpt lat="49.60112" lon="0.17397">
        <ele>85.6</ele>
        <time>2020-06-17T18:23:29Z</time>
      </trkpt>
      <trkpt lat="49.60118" lon="0.174">
        <ele>85.6</ele>
        <time>2020-06-17T18:23:30Z</time>
      </trkpt>
      <trkpt lat="49.60124" lon="0.17403">
        <ele>85.6</ele>
        <time>2020-06-17T18:23:31Z</time>
      </trkpt>
      <trkpt lat="49.60129" lon="0.17406">
        <ele>85.6</ele>
        <time>2020-06-17T18:23:32Z</time>
      </trkpt>
      <trkpt lat="49.60134" lon="0.17408">
        <ele>85.6</ele>
        <time>2020-06-17T18:23:33Z</time>
      </trkpt>
      <trkpt lat="49.6014" lon="0.17411">
        <ele>85.6</ele>
        <time>2020-06-17T18:23:34Z</time>
      </trkpt>
      <trkpt lat="49.60148" lon="0.17414">
        <ele>85.6</ele>
        <time>2020-06-17T18:23:35Z</time>
      </trkpt>
      <trkpt lat="49.60155" lon="0.17416">
        <ele>85.6</ele>
        <time>2020-06-17T18:23:36Z</time>
      </trkpt>
      <trkpt lat="49.60163" lon="0.17416">
        <ele>85.6</ele>
        <time>2020-06-17T18:23:37Z</time>
      </trkpt>
      <trkpt lat="49.60169" lon="0.17415">
        <ele>85.6</ele>
        <time>2020-06-17T18:23:38Z</time>
      </trkpt>
      <trkpt lat="49.60176" lon="0.17412">
        <ele>85.5</ele>
        <time>2020-06-17T18:23:39Z</time>
      </trkpt>
      <trkpt lat="49.60182" lon="0.17409">
        <ele>85.5</ele>
        <time>2020-06-17T18:23:40Z</time>
      </trkpt>
      <trkpt lat="49.60188" lon="0.17406">
        <ele>85.5</ele>
        <time>2020-06-17T18:23:41Z</time>
      </trkpt>
      <trkpt lat="49.60195" lon="0.17403">
        <ele>85.4</ele>
        <time>2020-06-17T18:23:42Z</time>
      </trkpt>
      <trkpt lat="49.60202" lon="0.17399">
        <ele>85.4</ele>
        <time>2020-06-17T18:23:43Z</time>
      </trkpt>
      <trkpt lat="49.60209" lon="0.17395">
        <ele>85.3</ele>
        <time>2020-06-17T18:23:44Z</time>
      </trkpt>
      <trkpt lat="49.60215" lon="0.17392">
        <ele>85.3</ele>
        <time>2020-06-17T18:23:45Z</time>
      </trkpt>
      <trkpt lat="49.60224" lon="0.17388">
        <ele>85.2</ele>
        <time>2020-06-17T18:23:46Z</time>
      </trkpt>
      <trkpt lat="49.60231" lon="0.17384">
        <ele>85.1</ele>
        <time>2020-06-17T18:23:47Z</time>
      </trkpt>
      <trkpt lat="49.60238" lon="0.1738">
        <ele>85</ele>
        <time>2020-06-17T18:23:48Z</time>
      </trkpt>
      <trkpt lat="49.60245" lon="0.17376">
        <ele>85</ele>
        <time>2020-06-17T18:23:49Z</time>
      </trkpt>
      <trkpt lat="49.60251" lon="0.17372">
        <ele>84.9</ele>
        <time>2020-06-17T18:23:50Z</time>
      </trkpt>
      <trkpt lat="49.60258" lon="0.17368">
        <ele>84.8</ele>
        <time>2020-06-17T18:23:51Z</time>
      </trkpt>
      <trkpt lat="49.60264" lon="0.17364">
        <ele>84.7</ele>
        <time>2020-06-17T18:23:52Z</time>
      </trkpt>
      <trkpt lat="49.6027" lon="0.1736">
        <ele>84.5</ele>
        <time>2020-06-17T18:23:53Z</time>
      </trkpt>
      <trkpt lat="49.60275" lon="0.17356">
        <ele>84.4</ele>
        <time>2020-06-17T18:23:54Z</time>
      </trkpt>
      <trkpt lat="49.60282" lon="0.17352">
        <ele>84.2</ele>
        <time>2020-06-17T18:23:55Z</time>
      </trkpt>
      <trkpt lat="49.60288" lon="0.1735">
        <ele>84</ele>
        <time>2020-06-17T18:23:56Z</time>
      </trkpt>
      <trkpt lat="49.60295" lon="0.17348">
        <ele>83.9</ele>
        <time>2020-06-17T18:23:57Z</time>
      </trkpt>
      <trkpt lat="49.60302" lon="0.17346">
        <ele>83.8</ele>
        <time>2020-06-17T18:23:58Z</time>
      </trkpt>
      <trkpt lat="49.6031" lon="0.17343">
        <ele>83.6</ele>
        <time>2020-06-17T18:23:59Z</time>
      </trkpt>
      <trkpt lat="49.60317" lon="0.17341">
        <ele>83.4</ele>
        <time>2020-06-17T18:24:00Z</time>
      </trkpt>
      <trkpt lat="49.60324" lon="0.17339">
        <ele>83.2</ele>
        <time>2020-06-17T18:24:01Z</time>
      </trkpt>
      <trkpt lat="49.60331" lon="0.17337">
        <ele>82.9</ele>
        <time>2020-06-17T18:24:02Z</time>
      </trkpt>
      <trkpt lat="49.60338" lon="0.17336">
        <ele>82.7</ele>
        <time>2020-06-17T18:24:03Z</time>
      </trkpt>
      <trkpt lat="49.60345" lon="0.17334">
        <ele>82.4</ele>
        <time>2020-06-17T18:24:04Z</time>
      </trkpt>
      <trkpt lat="49.60352" lon="0.17333">
        <ele>82.2</ele>
        <time>2020-06-17T18:24:05Z</time>
      </trkpt>
      <trkpt lat="49.6036" lon="0.17332">
        <ele>81.9</ele>
        <time>2020-06-17T18:24:06Z</time>
      </trkpt>
      <trkpt lat="49.60367" lon="0.1733">
        <ele>81.6</ele>
        <time>2020-06-17T18:24:07Z</time>
      </trkpt>
      <trkpt lat="49.60375" lon="0.17329">
        <ele>81.3</ele>
        <time>2020-06-17T18:24:08Z</time>
      </trkpt>
      <trkpt lat="49.60383" lon="0.17328">
        <ele>81</ele>
        <time>2020-06-17T18:24:09Z</time>
      </trkpt>
      <trkpt lat="49.6039" lon="0.17326">
        <ele>80.7</ele>
        <time>2020-06-17T18:24:10Z</time>
      </trkpt>
      <trkpt lat="49.60398" lon="0.17324">
        <ele>80.4</ele>
        <time>2020-06-17T18:24:11Z</time>
      </trkpt>
      <trkpt lat="49.60406" lon="0.17323">
        <ele>80.1</ele>
        <time>2020-06-17T18:24:12Z</time>
      </trkpt>
      <trkpt lat="49.60413" lon="0.17321">
        <ele>79.8</ele>
        <time>2020-06-17T18:24:13Z</time>
      </trkpt>
      <trkpt lat="49.60421" lon="0.1732">
        <ele>79.6</ele>
        <time>2020-06-17T18:24:14Z</time>
      </trkpt>
      <trkpt lat="49.60429" lon="0.17317">
        <ele>79.3</ele>
        <time>2020-06-17T18:24:15Z</time>
      </trkpt>
      <trkpt lat="49.60437" lon="0.17314">
        <ele>79.1</ele>
        <time>2020-06-17T18:24:16Z</time>
      </trkpt>
      <trkpt lat="49.60444" lon="0.1731">
        <ele>78.9</ele>
        <time>2020-06-17T18:24:17Z</time>
      </trkpt>
      <trkpt lat="49.60452" lon="0.17306">
        <ele>78.6</ele>
        <time>2020-06-17T18:24:18Z</time>
      </trkpt>
      <trkpt lat="49.60459" lon="0.17302">
        <ele>78.4</ele>
        <time>2020-06-17T18:24:19Z</time>
      </trkpt>
      <trkpt lat="49.60466" lon="0.17298">
        <ele>78.2</ele>
        <time>2020-06-17T18:24:20Z</time>
      </trkpt>
      <trkpt lat="49.60473" lon="0.17295">
        <ele>78</ele>
        <time>2020-06-17T18:24:21Z</time>
      </trkpt>
      <trkpt lat="49.6048" lon="0.17291">
        <ele>77.7</ele>
        <time>2020-06-17T18:24:22Z</time>
      </trkpt>
      <trkpt lat="49.60488" lon="0.17288">
        <ele>77.4</ele>
        <time>2020-06-17T18:24:23Z</time>
      </trkpt>
      <trkpt lat="49.60495" lon="0.17286">
        <ele>77.1</ele>
        <time>2020-06-17T18:24:24Z</time>
      </trkpt>
      <trkpt lat="49.60502" lon="0.17283">
        <ele>76.7</ele>
        <time>2020-06-17T18:24:25Z</time>
      </trkpt>
      <trkpt lat="49.6051" lon="0.17281">
        <ele>76.3</ele>
        <time>2020-06-17T18:24:26Z</time>
      </trkpt>
      <trkpt lat="49.60518" lon="0.17277">
        <ele>75.8</ele>
        <time>2020-06-17T18:24:27Z</time>
      </trkpt>
      <trkpt lat="49.60526" lon="0.17271">
        <ele>75.3</ele>
        <time>2020-06-17T18:24:28Z</time>
      </trkpt>
      <trkpt lat="49.60534" lon="0.17266">
        <ele>74.8</ele>
        <time>2020-06-17T18:24:29Z</time>
      </trkpt>
      <trkpt lat="49.60542" lon="0.1726">
        <ele>74.3</ele>
        <time>2020-06-17T18:24:30Z</time>
      </trkpt>
      <trkpt lat="49.60549" lon="0.17253">
        <ele>73.8</ele>
        <time>2020-06-17T18:24:31Z</time>
      </trkpt>
      <trkpt lat="49.60556" lon="0.17247">
        <ele>73.3</ele>
        <time>2020-06-17T18:24:32Z</time>
      </trkpt>
      <trkpt lat="49.60562" lon="0.1724">
        <ele>72.8</ele>
        <time>2020-06-17T18:24:33Z</time>
      </trkpt>
      <trkpt lat="49.60569" lon="0.17233">
        <ele>72.3</ele>
        <time>2020-06-17T18:24:34Z</time>
      </trkpt>
      <trkpt lat="49.60575" lon="0.17227">
        <ele>71.8</ele>
        <time>2020-06-17T18:24:35Z</time>
      </trkpt>
      <trkpt lat="49.60582" lon="0.17221">
        <ele>71.3</ele>
        <time>2020-06-17T18:24:36Z</time>
      </trkpt>
      <trkpt lat="49.60588" lon="0.17214">
        <ele>70.8</ele>
        <time>2020-06-17T18:24:37Z</time>
      </trkpt>
      <trkpt lat="49.60595" lon="0.17209">
        <ele>70.3</ele>
        <time>2020-06-17T18:24:38Z</time>
      </trkpt>
      <trkpt lat="49.60602" lon="0.17203">
        <ele>69.8</ele>
        <time>2020-06-17T18:24:39Z</time>
      </trkpt>
      <trkpt lat="49.6061" lon="0.17199">
        <ele>69.4</ele>
        <time>2020-06-17T18:24:40Z</time>
      </trkpt>
      <trkpt lat="49.60618" lon="0.17197">
        <ele>69</ele>
        <time>2020-06-17T18:24:41Z</time>
      </trkpt>
      <trkpt lat="49.60627" lon="0.17196">
        <ele>68.3</ele>
        <time>2020-06-17T18:24:42Z</time>
      </trkpt>
      <trkpt lat="49.60636" lon="0.17194">
        <ele>68</ele>
        <time>2020-06-17T18:24:43Z</time>
      </trkpt>
      <trkpt lat="49.60644" lon="0.17192">
        <ele>67.9</ele>
        <time>2020-06-17T18:24:44Z</time>
      </trkpt>
      <trkpt lat="49.60653" lon="0.17191">
        <ele>67.9</ele>
        <time>2020-06-17T18:24:45Z</time>
      </trkpt>
      <trkpt lat="49.60661" lon="0.17192">
        <ele>68</ele>
        <time>2020-06-17T18:24:46Z</time>
      </trkpt>
      <trkpt lat="49.6067" lon="0.17193">
        <ele>68.1</ele>
        <time>2020-06-17T18:24:47Z</time>
      </trkpt>
      <trkpt lat="49.60678" lon="0.17194">
        <ele>68.2</ele>
        <time>2020-06-17T18:24:48Z</time>
      </trkpt>
      <trkpt lat="49.60686" lon="0.17194">
        <ele>68.4</ele>
        <time>2020-06-17T18:24:49Z</time>
      </trkpt>
      <trkpt lat="49.60694" lon="0.17195">
        <ele>68.6</ele>
        <time>2020-06-17T18:24:50Z</time>
      </trkpt>
      <trkpt lat="49.60702" lon="0.17195">
        <ele>68.8</ele>
        <time>2020-06-17T18:24:51Z</time>
      </trkpt>
      <trkpt lat="49.60709" lon="0.17195">
        <ele>69.1</ele>
        <time>2020-06-17T18:24:52Z</time>
      </trkpt>
      <trkpt lat="49.60716" lon="0.17195">
        <ele>69.4</ele>
        <time>2020-06-17T18:24:53Z</time>
      </trkpt>
      <trkpt lat="49.60723" lon="0.17194">
        <ele>69.8</ele>
        <time>2020-06-17T18:24:54Z</time>
      </trkpt>
      <trkpt lat="49.60729" lon="0.17194">
        <ele>70.1</ele>
        <time>2020-06-17T18:24:55Z</time>
      </trkpt>
      <trkpt lat="49.60735" lon="0.17193">
        <ele>70.4</ele>
        <time>2020-06-17T18:24:56Z</time>
      </trkpt>
      <trkpt lat="49.6074" lon="0.17193">
        <ele>70.6</ele>
        <time>2020-06-17T18:24:57Z</time>
      </trkpt>
      <trkpt lat="49.60745" lon="0.17193">
        <ele>70.8</ele>
        <time>2020-06-17T18:24:58Z</time>
      </trkpt>
      <trkpt lat="49.6075" lon="0.17192">
        <ele>71.1</ele>
        <time>2020-06-17T18:24:59Z</time>
      </trkpt>
      <trkpt lat="49.60754" lon="0.17191">
        <ele>71.3</ele>
        <time>2020-06-17T18:25:00Z</time>
      </trkpt>
      <trkpt lat="49.60758" lon="0.17191">
        <ele>71.5</ele>
        <time>2020-06-17T18:25:01Z</time>
      </trkpt>
      <trkpt lat="49.60762" lon="0.17189">
        <ele>71.7</ele>
        <time>2020-06-17T18:25:02Z</time>
      </trkpt>
      <trkpt lat="49.60766" lon="0.17187">
        <ele>71.9</ele>
        <time>2020-06-17T18:25:03Z</time>
      </trkpt>
      <trkpt lat="49.6077" lon="0.17187">
        <ele>72.1</ele>
        <time>2020-06-17T18:25:04Z</time>
      </trkpt>
      <trkpt lat="49.60774" lon="0.17187">
        <ele>72.3</ele>
        <time>2020-06-17T18:25:05Z</time>
      </trkpt>
      <trkpt lat="49.60778" lon="0.17187">
        <ele>72.5</ele>
        <time>2020-06-17T18:25:06Z</time>
      </trkpt>
      <trkpt lat="49.60782" lon="0.17186">
        <ele>72.7</ele>
        <time>2020-06-17T18:25:07Z</time>
      </trkpt>
      <trkpt lat="49.60785" lon="0.17186">
        <ele>72.9</ele>
        <time>2020-06-17T18:25:08Z</time>
      </trkpt>
      <trkpt lat="49.60789" lon="0.17186">
        <ele>73</ele>
        <time>2020-06-17T18:25:09Z</time>
      </trkpt>
      <trkpt lat="49.60792" lon="0.17187">
        <ele>73.2</ele>
        <time>2020-06-17T18:25:10Z</time>
      </trkpt>
      <trkpt lat="49.60796" lon="0.17187">
        <ele>73.4</ele>
        <time>2020-06-17T18:25:11Z</time>
      </trkpt>
      <trkpt lat="49.60799" lon="0.17186">
        <ele>73.5</ele>
        <time>2020-06-17T18:25:12Z</time>
      </trkpt>
      <trkpt lat="49.60802" lon="0.17185">
        <ele>73.7</ele>
        <time>2020-06-17T18:25:13Z</time>
      </trkpt>
      <trkpt lat="49.60806" lon="0.17183">
        <ele>74</ele>
        <time>2020-06-17T18:25:14Z</time>
      </trkpt>
      <trkpt lat="49.60809" lon="0.17182">
        <ele>74.2</ele>
        <time>2020-06-17T18:25:15Z</time>
      </trkpt>
      <trkpt lat="49.60813" lon="0.17181">
        <ele>74.4</ele>
        <time>2020-06-17T18:25:16Z</time>
      </trkpt>
      <trkpt lat="49.60816" lon="0.1718">
        <ele>74.5</ele>
        <time>2020-06-17T18:25:17Z</time>
      </trkpt>
      <trkpt lat="49.6082" lon="0.17179">
        <ele>74.7</ele>
        <time>2020-06-17T18:25:18Z</time>
      </trkpt>
      <trkpt lat="49.60823" lon="0.17179">
        <ele>74.9</ele>
        <time>2020-06-17T18:25:19Z</time>
      </trkpt>
      <trkpt lat="49.60827" lon="0.17178">
        <ele>75.1</ele>
        <time>2020-06-17T18:25:20Z</time>
      </trkpt>
      <trkpt lat="49.6083" lon="0.17177">
        <ele>75.2</ele>
        <time>2020-06-17T18:25:21Z</time>
      </trkpt>
      <trkpt lat="49.60834" lon="0.17176">
        <ele>75.4</ele>
        <time>2020-06-17T18:25:22Z</time>
      </trkpt>
      <trkpt lat="49.60837" lon="0.17176">
        <ele>75.6</ele>
        <time>2020-06-17T18:25:23Z</time>
      </trkpt>
      <trkpt lat="49.60841" lon="0.17175">
        <ele>75.8</ele>
        <time>2020-06-17T18:25:24Z</time>
      </trkpt>
      <trkpt lat="49.60845" lon="0.17175">
        <ele>76</ele>
        <time>2020-06-17T18:25:25Z</time>
      </trkpt>
      <trkpt lat="49.60849" lon="0.17175">
        <ele>76.2</ele>
        <time>2020-06-17T18:25:26Z</time>
      </trkpt>
      <trkpt lat="49.60853" lon="0.17174">
        <ele>76.4</ele>
        <time>2020-06-17T18:25:27Z</time>
      </trkpt>
      <trkpt lat="49.60856" lon="0.17173">
        <ele>76.6</ele>
        <time>2020-06-17T18:25:28Z</time>
      </trkpt>
      <trkpt lat="49.6086" lon="0.17172">
        <ele>76.7</ele>
        <time>2020-06-17T18:25:29Z</time>
      </trkpt>
      <trkpt lat="49.60864" lon="0.17171">
        <ele>76.9</ele>
        <time>2020-06-17T18:25:30Z</time>
      </trkpt>
      <trkpt lat="49.60867" lon="0.17171">
        <ele>77.1</ele>
        <time>2020-06-17T18:25:31Z</time>
      </trkpt>
      <trkpt lat="49.60871" lon="0.17171">
        <ele>77.3</ele>
        <time>2020-06-17T18:25:32Z</time>
      </trkpt>
      <trkpt lat="49.60874" lon="0.17171">
        <ele>77.4</ele>
        <time>2020-06-17T18:25:33Z</time>
      </trkpt>
      <trkpt lat="49.60878" lon="0.17171">
        <ele>77.5</ele>
        <time>2020-06-17T18:25:34Z</time>
      </trkpt>
      <trkpt lat="49.60881" lon="0.1717">
        <ele>77.6</ele>
        <time>2020-06-17T18:25:35Z</time>
      </trkpt>
      <trkpt lat="49.60885" lon="0.17169">
        <ele>77.8</ele>
        <time>2020-06-17T18:25:36Z</time>
      </trkpt>
      <trkpt lat="49.60889" lon="0.17168">
        <ele>77.9</ele>
        <time>2020-06-17T18:25:37Z</time>
      </trkpt>
      <trkpt lat="49.60893" lon="0.17167">
        <ele>78</ele>
        <time>2020-06-17T18:25:38Z</time>
      </trkpt>
      <trkpt lat="49.60897" lon="0.17166">
        <ele>78.1</ele>
        <time>2020-06-17T18:25:39Z</time>
      </trkpt>
      <trkpt lat="49.609" lon="0.17165">
        <ele>78.2</ele>
        <time>2020-06-17T18:25:40Z</time>
      </trkpt>
      <trkpt lat="49.60905" lon="0.17162">
        <ele>78.3</ele>
        <time>2020-06-17T18:25:41Z</time>
      </trkpt>
      <trkpt lat="49.60908" lon="0.17161">
        <ele>78.4</ele>
        <time>2020-06-17T18:25:42Z</time>
      </trkpt>
      <trkpt lat="49.60911" lon="0.1716">
        <ele>78.5</ele>
        <time>2020-06-17T18:25:43Z</time>
      </trkpt>
      <trkpt lat="49.60915" lon="0.1716">
        <ele>78.6</ele>
        <time>2020-06-17T18:25:44Z</time>
      </trkpt>
      <trkpt lat="49.6092" lon="0.1716">
        <ele>78.7</ele>
        <time>2020-06-17T18:25:45Z</time>
      </trkpt>
      <trkpt lat="49.60924" lon="0.17158">
        <ele>78.8</ele>
        <time>2020-06-17T18:25:46Z</time>
      </trkpt>
      <trkpt lat="49.60928" lon="0.17157">
        <ele>78.9</ele>
        <time>2020-06-17T18:25:47Z</time>
      </trkpt>
      <trkpt lat="49.60932" lon="0.17156">
        <ele>79</ele>
        <time>2020-06-17T18:25:48Z</time>
      </trkpt>
      <trkpt lat="49.60935" lon="0.17155">
        <ele>79</ele>
        <time>2020-06-17T18:25:49Z</time>
      </trkpt>
      <trkpt lat="49.60939" lon="0.17155">
        <ele>79.1</ele>
        <time>2020-06-17T18:25:50Z</time>
      </trkpt>
      <trkpt lat="49.60942" lon="0.17154">
        <ele>79.1</ele>
        <time>2020-06-17T18:25:51Z</time>
      </trkpt>
      <trkpt lat="49.60947" lon="0.17152">
        <ele>79.2</ele>
        <time>2020-06-17T18:25:52Z</time>
      </trkpt>
      <trkpt lat="49.60951" lon="0.17149">
        <ele>79.2</ele>
        <time>2020-06-17T18:25:53Z</time>
      </trkpt>
      <trkpt lat="49.60955" lon="0.17146">
        <ele>79.3</ele>
        <time>2020-06-17T18:25:54Z</time>
      </trkpt>
      <trkpt lat="49.60959" lon="0.17144">
        <ele>79.3</ele>
        <time>2020-06-17T18:25:55Z</time>
      </trkpt>
      <trkpt lat="49.60964" lon="0.17142">
        <ele>79.4</ele>
        <time>2020-06-17T18:25:56Z</time>
      </trkpt>
      <trkpt lat="49.60969" lon="0.1714">
        <ele>79.5</ele>
        <time>2020-06-17T18:25:57Z</time>
      </trkpt>
      <trkpt lat="49.60973" lon="0.17138">
        <ele>79.6</ele>
        <time>2020-06-17T18:25:58Z</time>
      </trkpt>
      <trkpt lat="49.60978" lon="0.17137">
        <ele>79.7</ele>
        <time>2020-06-17T18:25:59Z</time>
      </trkpt>
      <trkpt lat="49.60983" lon="0.17136">
        <ele>79.7</ele>
        <time>2020-06-17T18:26:00Z</time>
      </trkpt>
      <trkpt lat="49.60988" lon="0.17134">
        <ele>79.8</ele>
        <time>2020-06-17T18:26:01Z</time>
      </trkpt>
      <trkpt lat="49.60993" lon="0.17132">
        <ele>79.9</ele>
        <time>2020-06-17T18:26:02Z</time>
      </trkpt>
      <trkpt lat="49.60998" lon="0.1713">
        <ele>80</ele>
        <time>2020-06-17T18:26:03Z</time>
      </trkpt>
      <trkpt lat="49.61003" lon="0.17128">
        <ele>80.2</ele>
        <time>2020-06-17T18:26:04Z</time>
      </trkpt>
      <trkpt lat="49.61008" lon="0.17125">
        <ele>80.3</ele>
        <time>2020-06-17T18:26:05Z</time>
      </trkpt>
      <trkpt lat="49.61013" lon="0.17123">
        <ele>80.4</ele>
        <time>2020-06-17T18:26:06Z</time>
      </trkpt>
      <trkpt lat="49.61018" lon="0.17121">
        <ele>80.6</ele>
        <time>2020-06-17T18:26:07Z</time>
      </trkpt>
      <trkpt lat="49.61022" lon="0.17119">
        <ele>80.7</ele>
        <time>2020-06-17T18:26:08Z</time>
      </trkpt>
      <trkpt lat="49.61027" lon="0.17117">
        <ele>80.8</ele>
        <time>2020-06-17T18:26:09Z</time>
      </trkpt>
      <trkpt lat="49.61032" lon="0.17116">
        <ele>81</ele>
        <time>2020-06-17T18:26:10Z</time>
      </trkpt>
      <trkpt lat="49.61036" lon="0.17114">
        <ele>81.1</ele>
        <time>2020-06-17T18:26:11Z</time>
      </trkpt>
      <trkpt lat="49.61041" lon="0.17111">
        <ele>81.3</ele>
        <time>2020-06-17T18:26:12Z</time>
      </trkpt>
      <trkpt lat="49.61045" lon="0.1711">
        <ele>81.4</ele>
        <time>2020-06-17T18:26:13Z</time>
      </trkpt>
      <trkpt lat="49.61049" lon="0.17108">
        <ele>81.6</ele>
        <time>2020-06-17T18:26:14Z</time>
      </trkpt>
      <trkpt lat="49.61054" lon="0.17107">
        <ele>81.8</ele>
        <time>2020-06-17T18:26:15Z</time>
      </trkpt>
      <trkpt lat="49.61058" lon="0.17105">
        <ele>82</ele>
        <time>2020-06-17T18:26:16Z</time>
      </trkpt>
      <trkpt lat="49.61063" lon="0.17104">
        <ele>82.1</ele>
        <time>2020-06-17T18:26:17Z</time>
      </trkpt>
      <trkpt lat="49.61067" lon="0.17103">
        <ele>82.3</ele>
        <time>2020-06-17T18:26:18Z</time>
      </trkpt>
      <trkpt lat="49.61071" lon="0.17102">
        <ele>82.5</ele>
        <time>2020-06-17T18:26:19Z</time>
      </trkpt>
      <trkpt lat="49.61075" lon="0.171">
        <ele>82.8</ele>
        <time>2020-06-17T18:26:20Z</time>
      </trkpt>
      <trkpt lat="49.61079" lon="0.17098">
        <ele>83</ele>
        <time>2020-06-17T18:26:21Z</time>
      </trkpt>
      <trkpt lat="49.61083" lon="0.17097">
        <ele>83.2</ele>
        <time>2020-06-17T18:26:22Z</time>
      </trkpt>
      <trkpt lat="49.61088" lon="0.17095">
        <ele>83.5</ele>
        <time>2020-06-17T18:26:23Z</time>
      </trkpt>
      <trkpt lat="49.61091" lon="0.17093">
        <ele>83.7</ele>
        <time>2020-06-17T18:26:24Z</time>
      </trkpt>
      <trkpt lat="49.61095" lon="0.17092">
        <ele>83.9</ele>
        <time>2020-06-17T18:26:25Z</time>
      </trkpt>
      <trkpt lat="49.61099" lon="0.1709">
        <ele>84.1</ele>
        <time>2020-06-17T18:26:26Z</time>
      </trkpt>
      <trkpt lat="49.61103" lon="0.17088">
        <ele>84.3</ele>
        <time>2020-06-17T18:26:27Z</time>
      </trkpt>
      <trkpt lat="49.61107" lon="0.17087">
        <ele>84.6</ele>
        <time>2020-06-17T18:26:28Z</time>
      </trkpt>
      <trkpt lat="49.6111" lon="0.17084">
        <ele>84.7</ele>
        <time>2020-06-17T18:26:29Z</time>
      </trkpt>
      <trkpt lat="49.61113" lon="0.17082">
        <ele>84.9</ele>
        <time>2020-06-17T18:26:30Z</time>
      </trkpt>
      <trkpt lat="49.61117" lon="0.1708">
        <ele>85.1</ele>
        <time>2020-06-17T18:26:31Z</time>
      </trkpt>
      <trkpt lat="49.6112" lon="0.17079">
        <ele>85.3</ele>
        <time>2020-06-17T18:26:32Z</time>
      </trkpt>
      <trkpt lat="49.61123" lon="0.17077">
        <ele>85.4</ele>
        <time>2020-06-17T18:26:33Z</time>
      </trkpt>
      <trkpt lat="49.61126" lon="0.17075">
        <ele>85.5</ele>
        <time>2020-06-17T18:26:34Z</time>
      </trkpt>
      <trkpt lat="49.61129" lon="0.17073">
        <ele>85.7</ele>
        <time>2020-06-17T18:26:35Z</time>
      </trkpt>
      <trkpt lat="49.61133" lon="0.1707">
        <ele>85.9</ele>
        <time>2020-06-17T18:26:36Z</time>
      </trkpt>
      <trkpt lat="49.61136" lon="0.17068">
        <ele>86</ele>
        <time>2020-06-17T18:26:37Z</time>
      </trkpt>
      <trkpt lat="49.6114" lon="0.17067">
        <ele>86.2</ele>
        <time>2020-06-17T18:26:38Z</time>
      </trkpt>
      <trkpt lat="49.61142" lon="0.17063">
        <ele>86.3</ele>
        <time>2020-06-17T18:26:39Z</time>
      </trkpt>
      <trkpt lat="49.61146" lon="0.17061">
        <ele>86.6</ele>
        <time>2020-06-17T18:26:40Z</time>
      </trkpt>
      <trkpt lat="49.61149" lon="0.17059">
        <ele>86.7</ele>
        <time>2020-06-17T18:26:41Z</time>
      </trkpt>
      <trkpt lat="49.61152" lon="0.17057">
        <ele>86.9</ele>
        <time>2020-06-17T18:26:42Z</time>
      </trkpt>
      <trkpt lat="49.61156" lon="0.17056">
        <ele>87.1</ele>
        <time>2020-06-17T18:26:43Z</time>
      </trkpt>
      <trkpt lat="49.61159" lon="0.17054">
        <ele>87.3</ele>
        <time>2020-06-17T18:26:44Z</time>
      </trkpt>
      <trkpt lat="49.61163" lon="0.17052">
        <ele>87.4</ele>
        <time>2020-06-17T18:26:45Z</time>
      </trkpt>
      <trkpt lat="49.61166" lon="0.1705">
        <ele>87.6</ele>
        <time>2020-06-17T18:26:46Z</time>
      </trkpt>
      <trkpt lat="49.6117" lon="0.17048">
        <ele>87.8</ele>
        <time>2020-06-17T18:26:47Z</time>
      </trkpt>
      <trkpt lat="49.61175" lon="0.17046">
        <ele>88</ele>
        <time>2020-06-17T18:26:48Z</time>
      </trkpt>
      <trkpt lat="49.61177" lon="0.17043">
        <ele>88.1</ele>
        <time>2020-06-17T18:26:49Z</time>
      </trkpt>
      <trkpt lat="49.61181" lon="0.1704">
        <ele>88.2</ele>
        <time>2020-06-17T18:26:50Z</time>
      </trkpt>
      <trkpt lat="49.61184" lon="0.17038">
        <ele>88.4</ele>
        <time>2020-06-17T18:26:51Z</time>
      </trkpt>
      <trkpt lat="49.61187" lon="0.17034">
        <ele>88.5</ele>
        <time>2020-06-17T18:26:52Z</time>
      </trkpt>
      <trkpt lat="49.6119" lon="0.1703">
        <ele>88.7</ele>
        <time>2020-06-17T18:26:53Z</time>
      </trkpt>
      <trkpt lat="49.61194" lon="0.17027">
        <ele>88.8</ele>
        <time>2020-06-17T18:26:54Z</time>
      </trkpt>
      <trkpt lat="49.61198" lon="0.17023">
        <ele>89</ele>
        <time>2020-06-17T18:26:55Z</time>
      </trkpt>
      <trkpt lat="49.61202" lon="0.17019">
        <ele>89.1</ele>
        <time>2020-06-17T18:26:56Z</time>
      </trkpt>
      <trkpt lat="49.61205" lon="0.17015">
        <ele>89.2</ele>
        <time>2020-06-17T18:26:57Z</time>
      </trkpt>
      <trkpt lat="49.61207" lon="0.17012">
        <ele>89.3</ele>
        <time>2020-06-17T18:26:58Z</time>
      </trkpt>
      <trkpt lat="49.61209" lon="0.17008">
        <ele>89.5</ele>
        <time>2020-06-17T18:26:59Z</time>
      </trkpt>
      <trkpt lat="49.61211" lon="0.17004">
        <ele>89.6</ele>
        <time>2020-06-17T18:27:00Z</time>
      </trkpt>
      <trkpt lat="49.61213" lon="0.16999">
        <ele>89.7</ele>
        <time>2020-06-17T18:27:01Z</time>
      </trkpt>
      <trkpt lat="49.61215" lon="0.16994">
        <ele>89.8</ele>
        <time>2020-06-17T18:27:02Z</time>
      </trkpt>
      <trkpt lat="49.61218" lon="0.16989">
        <ele>90</ele>
        <time>2020-06-17T18:27:03Z</time>
      </trkpt>
      <trkpt lat="49.61221" lon="0.16984">
        <ele>90.2</ele>
        <time>2020-06-17T18:27:04Z</time>
      </trkpt>
      <trkpt lat="49.61224" lon="0.1698">
        <ele>90.4</ele>
        <time>2020-06-17T18:27:05Z</time>
      </trkpt>
      <trkpt lat="49.61227" lon="0.16976">
        <ele>90.5</ele>
        <time>2020-06-17T18:27:06Z</time>
      </trkpt>
      <trkpt lat="49.61229" lon="0.16972">
        <ele>90.6</ele>
        <time>2020-06-17T18:27:07Z</time>
      </trkpt>
      <trkpt lat="49.61232" lon="0.16969">
        <ele>90.8</ele>
        <time>2020-06-17T18:27:08Z</time>
      </trkpt>
      <trkpt lat="49.61235" lon="0.16965">
        <ele>90.9</ele>
        <time>2020-06-17T18:27:09Z</time>
      </trkpt>
      <trkpt lat="49.61237" lon="0.16963">
        <ele>91.1</ele>
        <time>2020-06-17T18:27:10Z</time>
      </trkpt>
      <trkpt lat="49.6124" lon="0.1696">
        <ele>91.2</ele>
        <time>2020-06-17T18:27:11Z</time>
      </trkpt>
      <trkpt lat="49.61243" lon="0.16956">
        <ele>91.4</ele>
        <time>2020-06-17T18:27:12Z</time>
      </trkpt>
      <trkpt lat="49.61246" lon="0.16952">
        <ele>91.5</ele>
        <time>2020-06-17T18:27:13Z</time>
      </trkpt>
      <trkpt lat="49.61247" lon="0.1695">
        <ele>91.6</ele>
        <time>2020-06-17T18:27:14Z</time>
      </trkpt>
      <trkpt lat="49.61249" lon="0.16946">
        <ele>91.7</ele>
        <time>2020-06-17T18:27:15Z</time>
      </trkpt>
      <trkpt lat="49.61252" lon="0.16942">
        <ele>91.9</ele>
        <time>2020-06-17T18:27:16Z</time>
      </trkpt>
      <trkpt lat="49.61255" lon="0.16938">
        <ele>92</ele>
        <time>2020-06-17T18:27:17Z</time>
      </trkpt>
      <trkpt lat="49.61257" lon="0.16934">
        <ele>92.1</ele>
        <time>2020-06-17T18:27:18Z</time>
      </trkpt>
      <trkpt lat="49.6126" lon="0.16931">
        <ele>92.2</ele>
        <time>2020-06-17T18:27:19Z</time>
      </trkpt>
      <trkpt lat="49.61262" lon="0.16927">
        <ele>92.3</ele>
        <time>2020-06-17T18:27:20Z</time>
      </trkpt>
      <trkpt lat="49.61264" lon="0.16924">
        <ele>92.4</ele>
        <time>2020-06-17T18:27:21Z</time>
      </trkpt>
      <trkpt lat="49.61266" lon="0.16921">
        <ele>92.4</ele>
        <time>2020-06-17T18:27:22Z</time>
      </trkpt>
      <trkpt lat="49.61269" lon="0.16917">
        <ele>92.5</ele>
        <time>2020-06-17T18:27:23Z</time>
      </trkpt>
      <trkpt lat="49.61272" lon="0.16913">
        <ele>92.7</ele>
        <time>2020-06-17T18:27:24Z</time>
      </trkpt>
      <trkpt lat="49.61275" lon="0.16911">
        <ele>92.7</ele>
        <time>2020-06-17T18:27:25Z</time>
      </trkpt>
      <trkpt lat="49.61278" lon="0.16909">
        <ele>92.8</ele>
        <time>2020-06-17T18:27:26Z</time>
      </trkpt>
      <trkpt lat="49.6128" lon="0.16906">
        <ele>92.9</ele>
        <time>2020-06-17T18:27:27Z</time>
      </trkpt>
      <trkpt lat="49.61283" lon="0.16902">
        <ele>93</ele>
        <time>2020-06-17T18:27:28Z</time>
      </trkpt>
      <trkpt lat="49.61286" lon="0.169">
        <ele>93</ele>
        <time>2020-06-17T18:27:29Z</time>
      </trkpt>
      <trkpt lat="49.61289" lon="0.16896">
        <ele>93.1</ele>
        <time>2020-06-17T18:27:30Z</time>
      </trkpt>
      <trkpt lat="49.61292" lon="0.16893">
        <ele>93.1</ele>
        <time>2020-06-17T18:27:31Z</time>
      </trkpt>
      <trkpt lat="49.61295" lon="0.16889">
        <ele>93.2</ele>
        <time>2020-06-17T18:27:32Z</time>
      </trkpt>
      <trkpt lat="49.61298" lon="0.16885">
        <ele>93.2</ele>
        <time>2020-06-17T18:27:33Z</time>
      </trkpt>
      <trkpt lat="49.61301" lon="0.16881">
        <ele>93.2</ele>
        <time>2020-06-17T18:27:34Z</time>
      </trkpt>
      <trkpt lat="49.61304" lon="0.16878">
        <ele>93.2</ele>
        <time>2020-06-17T18:27:35Z</time>
      </trkpt>
      <trkpt lat="49.61307" lon="0.16875">
        <ele>93.3</ele>
        <time>2020-06-17T18:27:36Z</time>
      </trkpt>
      <trkpt lat="49.61309" lon="0.16872">
        <ele>93.3</ele>
        <time>2020-06-17T18:27:37Z</time>
      </trkpt>
      <trkpt lat="49.61311" lon="0.16868">
        <ele>93.3</ele>
        <time>2020-06-17T18:27:38Z</time>
      </trkpt>
      <trkpt lat="49.61314" lon="0.16865">
        <ele>93.3</ele>
        <time>2020-06-17T18:27:39Z</time>
      </trkpt>
      <trkpt lat="49.61316" lon="0.1686">
        <ele>93.3</ele>
        <time>2020-06-17T18:27:40Z</time>
      </trkpt>
      <trkpt lat="49.61318" lon="0.16857">
        <ele>93.4</ele>
        <time>2020-06-17T18:27:41Z</time>
      </trkpt>
      <trkpt lat="49.61321" lon="0.16853">
        <ele>93.4</ele>
        <time>2020-06-17T18:27:42Z</time>
      </trkpt>
      <trkpt lat="49.61323" lon="0.16849">
        <ele>93.4</ele>
        <time>2020-06-17T18:27:43Z</time>
      </trkpt>
      <trkpt lat="49.61326" lon="0.16845">
        <ele>93.4</ele>
        <time>2020-06-17T18:27:44Z</time>
      </trkpt>
      <trkpt lat="49.61329" lon="0.16841">
        <ele>93.4</ele>
        <time>2020-06-17T18:27:45Z</time>
      </trkpt>
      <trkpt lat="49.61332" lon="0.16838">
        <ele>93.4</ele>
        <time>2020-06-17T18:27:46Z</time>
      </trkpt>
      <trkpt lat="49.61334" lon="0.16834">
        <ele>93.4</ele>
        <time>2020-06-17T18:27:47Z</time>
      </trkpt>
      <trkpt lat="49.61337" lon="0.1683">
        <ele>93.4</ele>
        <time>2020-06-17T18:27:48Z</time>
      </trkpt>
      <trkpt lat="49.61339" lon="0.16827">
        <ele>93.3</ele>
        <time>2020-06-17T18:27:49Z</time>
      </trkpt>
      <trkpt lat="49.61342" lon="0.16825">
        <ele>93.3</ele>
        <time>2020-06-17T18:27:50Z</time>
      </trkpt>
      <trkpt lat="49.61345" lon="0.16822">
        <ele>93.3</ele>
        <time>2020-06-17T18:27:51Z</time>
      </trkpt>
      <trkpt lat="49.61348" lon="0.16819">
        <ele>93.3</ele>
        <time>2020-06-17T18:27:52Z</time>
      </trkpt>
      <trkpt lat="49.61351" lon="0.16817">
        <ele>93.3</ele>
        <time>2020-06-17T18:27:53Z</time>
      </trkpt>
      <trkpt lat="49.61354" lon="0.16814">
        <ele>93.2</ele>
        <time>2020-06-17T18:27:54Z</time>
      </trkpt>
      <trkpt lat="49.61356" lon="0.16812">
        <ele>93.2</ele>
        <time>2020-06-17T18:27:55Z</time>
      </trkpt>
      <trkpt lat="49.61359" lon="0.16809">
        <ele>93.1</ele>
        <time>2020-06-17T18:27:56Z</time>
      </trkpt>
      <trkpt lat="49.61362" lon="0.16805">
        <ele>93.1</ele>
        <time>2020-06-17T18:27:57Z</time>
      </trkpt>
      <trkpt lat="49.61365" lon="0.16801">
        <ele>93</ele>
        <time>2020-06-17T18:27:58Z</time>
      </trkpt>
      <trkpt lat="49.61367" lon="0.16798">
        <ele>93</ele>
        <time>2020-06-17T18:27:59Z</time>
      </trkpt>
      <trkpt lat="49.6137" lon="0.16795">
        <ele>92.9</ele>
        <time>2020-06-17T18:28:00Z</time>
      </trkpt>
      <trkpt lat="49.61374" lon="0.16792">
        <ele>92.9</ele>
        <time>2020-06-17T18:28:01Z</time>
      </trkpt>
      <trkpt lat="49.61376" lon="0.16788">
        <ele>92.8</ele>
        <time>2020-06-17T18:28:02Z</time>
      </trkpt>
      <trkpt lat="49.61379" lon="0.16786">
        <ele>92.8</ele>
        <time>2020-06-17T18:28:03Z</time>
      </trkpt>
      <trkpt lat="49.61382" lon="0.16783">
        <ele>92.7</ele>
        <time>2020-06-17T18:28:04Z</time>
      </trkpt>
      <trkpt lat="49.61385" lon="0.16781">
        <ele>92.7</ele>
        <time>2020-06-17T18:28:05Z</time>
      </trkpt>
      <trkpt lat="49.61388" lon="0.16779">
        <ele>92.6</ele>
        <time>2020-06-17T18:28:06Z</time>
      </trkpt>
      <trkpt lat="49.61391" lon="0.16776">
        <ele>92.5</ele>
        <time>2020-06-17T18:28:07Z</time>
      </trkpt>
      <trkpt lat="49.61395" lon="0.16773">
        <ele>92.5</ele>
        <time>2020-06-17T18:28:08Z</time>
      </trkpt>
      <trkpt lat="49.61398" lon="0.16769">
        <ele>92.4</ele>
        <time>2020-06-17T18:28:09Z</time>
      </trkpt>
      <trkpt lat="49.61402" lon="0.16766">
        <ele>92.3</ele>
        <time>2020-06-17T18:28:10Z</time>
      </trkpt>
      <trkpt lat="49.61405" lon="0.16762">
        <ele>92.3</ele>
        <time>2020-06-17T18:28:11Z</time>
      </trkpt>
      <trkpt lat="49.61409" lon="0.16759">
        <ele>92.2</ele>
        <time>2020-06-17T18:28:12Z</time>
      </trkpt>
      <trkpt lat="49.61413" lon="0.16755">
        <ele>92.1</ele>
        <time>2020-06-17T18:28:13Z</time>
      </trkpt>
      <trkpt lat="49.61417" lon="0.16749">
        <ele>92</ele>
        <time>2020-06-17T18:28:14Z</time>
      </trkpt>
      <trkpt lat="49.61421" lon="0.16745">
        <ele>91.9</ele>
        <time>2020-06-17T18:28:15Z</time>
      </trkpt>
      <trkpt lat="49.61426" lon="0.16741">
        <ele>91.8</ele>
        <time>2020-06-17T18:28:16Z</time>
      </trkpt>
      <trkpt lat="49.61431" lon="0.16736">
        <ele>91.6</ele>
        <time>2020-06-17T18:28:17Z</time>
      </trkpt>
      <trkpt lat="49.61436" lon="0.16731">
        <ele>91.5</ele>
        <time>2020-06-17T18:28:18Z</time>
      </trkpt>
      <trkpt lat="49.6144" lon="0.16726">
        <ele>91.4</ele>
        <time>2020-06-17T18:28:19Z</time>
      </trkpt>
      <trkpt lat="49.61445" lon="0.1672">
        <ele>91.2</ele>
        <time>2020-06-17T18:28:20Z</time>
      </trkpt>
      <trkpt lat="49.6145" lon="0.16713">
        <ele>91</ele>
        <time>2020-06-17T18:28:21Z</time>
      </trkpt>
      <trkpt lat="49.61456" lon="0.16706">
        <ele>90.8</ele>
        <time>2020-06-17T18:28:22Z</time>
      </trkpt>
      <trkpt lat="49.61461" lon="0.16698">
        <ele>90.6</ele>
        <time>2020-06-17T18:28:23Z</time>
      </trkpt>
      <trkpt lat="49.61467" lon="0.1669">
        <ele>90.3</ele>
        <time>2020-06-17T18:28:24Z</time>
      </trkpt>
      <trkpt lat="49.61473" lon="0.16683">
        <ele>90.1</ele>
        <time>2020-06-17T18:28:25Z</time>
      </trkpt>
      <trkpt lat="49.61479" lon="0.16675">
        <ele>89.9</ele>
        <time>2020-06-17T18:28:26Z</time>
      </trkpt>
      <trkpt lat="49.61484" lon="0.16666">
        <ele>89.7</ele>
        <time>2020-06-17T18:28:27Z</time>
      </trkpt>
      <trkpt lat="49.6149" lon="0.16658">
        <ele>89.5</ele>
        <time>2020-06-17T18:28:28Z</time>
      </trkpt>
      <trkpt lat="49.61495" lon="0.16649">
        <ele>89.2</ele>
        <time>2020-06-17T18:28:29Z</time>
      </trkpt>
      <trkpt lat="49.61501" lon="0.16641">
        <ele>89</ele>
        <time>2020-06-17T18:28:30Z</time>
      </trkpt>
      <trkpt lat="49.61506" lon="0.16632">
        <ele>88.7</ele>
        <time>2020-06-17T18:28:31Z</time>
      </trkpt>
      <trkpt lat="49.61511" lon="0.16624">
        <ele>88.5</ele>
        <time>2020-06-17T18:28:32Z</time>
      </trkpt>
      <trkpt lat="49.61517" lon="0.16616">
        <ele>88.3</ele>
        <time>2020-06-17T18:28:33Z</time>
      </trkpt>
      <trkpt lat="49.61522" lon="0.16607">
        <ele>88.1</ele>
        <time>2020-06-17T18:28:34Z</time>
      </trkpt>
      <trkpt lat="49.61527" lon="0.166">
        <ele>88</ele>
        <time>2020-06-17T18:28:35Z</time>
      </trkpt>
      <trkpt lat="49.61533" lon="0.16592">
        <ele>87.9</ele>
        <time>2020-06-17T18:28:36Z</time>
      </trkpt>
      <trkpt lat="49.61538" lon="0.16585">
        <ele>87.8</ele>
        <time>2020-06-17T18:28:37Z</time>
      </trkpt>
      <trkpt lat="49.61544" lon="0.16576">
        <ele>87.7</ele>
        <time>2020-06-17T18:28:38Z</time>
      </trkpt>
      <trkpt lat="49.61549" lon="0.16567">
        <ele>87.7</ele>
        <time>2020-06-17T18:28:39Z</time>
      </trkpt>
      <trkpt lat="49.61555" lon="0.16558">
        <ele>87.7</ele>
        <time>2020-06-17T18:28:40Z</time>
      </trkpt>
      <trkpt lat="49.6156" lon="0.1655">
        <ele>87.8</ele>
        <time>2020-06-17T18:28:41Z</time>
      </trkpt>
      <trkpt lat="49.61566" lon="0.16542">
        <ele>87.9</ele>
        <time>2020-06-17T18:28:42Z</time>
      </trkpt>
      <trkpt lat="49.61572" lon="0.16535">
        <ele>88</ele>
        <time>2020-06-17T18:28:43Z</time>
      </trkpt>
      <trkpt lat="49.61579" lon="0.16528">
        <ele>88.2</ele>
        <time>2020-06-17T18:28:44Z</time>
      </trkpt>
      <trkpt lat="49.61585" lon="0.16522">
        <ele>88.4</ele>
        <time>2020-06-17T18:28:45Z</time>
      </trkpt>
      <trkpt lat="49.61591" lon="0.16516">
        <ele>88.6</ele>
        <time>2020-06-17T18:28:46Z</time>
      </trkpt>
      <trkpt lat="49.61597" lon="0.1651">
        <ele>88.7</ele>
        <time>2020-06-17T18:28:47Z</time>
      </trkpt>
      <trkpt lat="49.61602" lon="0.16503">
        <ele>88.9</ele>
        <time>2020-06-17T18:28:48Z</time>
      </trkpt>
      <trkpt lat="49.61608" lon="0.16498">
        <ele>89</ele>
        <time>2020-06-17T18:28:49Z</time>
      </trkpt>
      <trkpt lat="49.61613" lon="0.16492">
        <ele>89.2</ele>
        <time>2020-06-17T18:28:50Z</time>
      </trkpt>
      <trkpt lat="49.61618" lon="0.16487">
        <ele>89.3</ele>
        <time>2020-06-17T18:28:51Z</time>
      </trkpt>
      <trkpt lat="49.61623" lon="0.16481">
        <ele>89.5</ele>
        <time>2020-06-17T18:28:52Z</time>
      </trkpt>
      <trkpt lat="49.61627" lon="0.16476">
        <ele>89.6</ele>
        <time>2020-06-17T18:28:53Z</time>
      </trkpt>
      <trkpt lat="49.61632" lon="0.16472">
        <ele>89.8</ele>
        <time>2020-06-17T18:28:54Z</time>
      </trkpt>
      <trkpt lat="49.61636" lon="0.16467">
        <ele>90</ele>
        <time>2020-06-17T18:28:55Z</time>
      </trkpt>
      <trkpt lat="49.61641" lon="0.16464">
        <ele>90.3</ele>
        <time>2020-06-17T18:28:56Z</time>
      </trkpt>
      <trkpt lat="49.61645" lon="0.1646">
        <ele>90.6</ele>
        <time>2020-06-17T18:28:57Z</time>
      </trkpt>
      <trkpt lat="49.6165" lon="0.16455">
        <ele>90.9</ele>
        <time>2020-06-17T18:28:58Z</time>
      </trkpt>
      <trkpt lat="49.61654" lon="0.16451">
        <ele>91.1</ele>
        <time>2020-06-17T18:28:59Z</time>
      </trkpt>
      <trkpt lat="49.61659" lon="0.16447">
        <ele>91.4</ele>
        <time>2020-06-17T18:29:00Z</time>
      </trkpt>
      <trkpt lat="49.61664" lon="0.16445">
        <ele>91.6</ele>
        <time>2020-06-17T18:29:01Z</time>
      </trkpt>
      <trkpt lat="49.61668" lon="0.16442">
        <ele>91.8</ele>
        <time>2020-06-17T18:29:02Z</time>
      </trkpt>
      <trkpt lat="49.61672" lon="0.16439">
        <ele>92</ele>
        <time>2020-06-17T18:29:03Z</time>
      </trkpt>
      <trkpt lat="49.61677" lon="0.16435">
        <ele>92.1</ele>
        <time>2020-06-17T18:29:04Z</time>
      </trkpt>
      <trkpt lat="49.61683" lon="0.16434">
        <ele>92.3</ele>
        <time>2020-06-17T18:29:05Z</time>
      </trkpt>
      <trkpt lat="49.61686" lon="0.1643">
        <ele>92.3</ele>
        <time>2020-06-17T18:29:06Z</time>
      </trkpt>
      <trkpt lat="49.6169" lon="0.16427">
        <ele>92.4</ele>
        <time>2020-06-17T18:29:07Z</time>
      </trkpt>
      <trkpt lat="49.61693" lon="0.16424">
        <ele>92.4</ele>
        <time>2020-06-17T18:29:08Z</time>
      </trkpt>
      <trkpt lat="49.61698" lon="0.16421">
        <ele>92.4</ele>
        <time>2020-06-17T18:29:09Z</time>
      </trkpt>
      <trkpt lat="49.61703" lon="0.16418">
        <ele>92.4</ele>
        <time>2020-06-17T18:29:10Z</time>
      </trkpt>
      <trkpt lat="49.61707" lon="0.16415">
        <ele>92.4</ele>
        <time>2020-06-17T18:29:11Z</time>
      </trkpt>
      <trkpt lat="49.61712" lon="0.16413">
        <ele>92.3</ele>
        <time>2020-06-17T18:29:12Z</time>
      </trkpt>
      <trkpt lat="49.61717" lon="0.1641">
        <ele>92.2</ele>
        <time>2020-06-17T18:29:13Z</time>
      </trkpt>
      <trkpt lat="49.61723" lon="0.16407">
        <ele>92</ele>
        <time>2020-06-17T18:29:14Z</time>
      </trkpt>
      <trkpt lat="49.61728" lon="0.16404">
        <ele>91.9</ele>
        <time>2020-06-17T18:29:15Z</time>
      </trkpt>
      <trkpt lat="49.61733" lon="0.164">
        <ele>91.7</ele>
        <time>2020-06-17T18:29:16Z</time>
      </trkpt>
      <trkpt lat="49.61739" lon="0.16398">
        <ele>91.5</ele>
        <time>2020-06-17T18:29:17Z</time>
      </trkpt>
      <trkpt lat="49.61744" lon="0.16394">
        <ele>91.3</ele>
        <time>2020-06-17T18:29:18Z</time>
      </trkpt>
      <trkpt lat="49.6175" lon="0.1639">
        <ele>91.1</ele>
        <time>2020-06-17T18:29:19Z</time>
      </trkpt>
      <trkpt lat="49.61755" lon="0.16387">
        <ele>90.9</ele>
        <time>2020-06-17T18:29:20Z</time>
      </trkpt>
      <trkpt lat="49.61761" lon="0.16384">
        <ele>90.7</ele>
        <time>2020-06-17T18:29:21Z</time>
      </trkpt>
      <trkpt lat="49.61768" lon="0.16381">
        <ele>90.5</ele>
        <time>2020-06-17T18:29:22Z</time>
      </trkpt>
      <trkpt lat="49.61775" lon="0.16377">
        <ele>90.2</ele>
        <time>2020-06-17T18:29:23Z</time>
      </trkpt>
      <trkpt lat="49.61782" lon="0.16372">
        <ele>90</ele>
        <time>2020-06-17T18:29:24Z</time>
      </trkpt>
      <trkpt lat="49.61788" lon="0.16368">
        <ele>89.8</ele>
        <time>2020-06-17T18:29:25Z</time>
      </trkpt>
      <trkpt lat="49.61795" lon="0.16363">
        <ele>89.6</ele>
        <time>2020-06-17T18:29:26Z</time>
      </trkpt>
      <trkpt lat="49.61802" lon="0.16359">
        <ele>89.2</ele>
        <time>2020-06-17T18:29:27Z</time>
      </trkpt>
      <trkpt lat="49.61809" lon="0.16353">
        <ele>89</ele>
        <time>2020-06-17T18:29:28Z</time>
      </trkpt>
      <trkpt lat="49.61815" lon="0.16348">
        <ele>88.9</ele>
        <time>2020-06-17T18:29:29Z</time>
      </trkpt>
      <trkpt lat="49.61822" lon="0.16343">
        <ele>88.7</ele>
        <time>2020-06-17T18:29:30Z</time>
      </trkpt>
      <trkpt lat="49.61828" lon="0.16338">
        <ele>88.5</ele>
        <time>2020-06-17T18:29:31Z</time>
      </trkpt>
      <trkpt lat="49.61835" lon="0.16334">
        <ele>88.4</ele>
        <time>2020-06-17T18:29:32Z</time>
      </trkpt>
      <trkpt lat="49.61841" lon="0.1633">
        <ele>88.3</ele>
        <time>2020-06-17T18:29:33Z</time>
      </trkpt>
      <trkpt lat="49.61847" lon="0.16326">
        <ele>88.2</ele>
        <time>2020-06-17T18:29:34Z</time>
      </trkpt>
      <trkpt lat="49.61853" lon="0.16321">
        <ele>88.2</ele>
        <time>2020-06-17T18:29:35Z</time>
      </trkpt>
      <trkpt lat="49.6186" lon="0.16317">
        <ele>88.1</ele>
        <time>2020-06-17T18:29:36Z</time>
      </trkpt>
      <trkpt lat="49.61866" lon="0.16312">
        <ele>88.1</ele>
        <time>2020-06-17T18:29:37Z</time>
      </trkpt>
      <trkpt lat="49.61872" lon="0.16307">
        <ele>88.1</ele>
        <time>2020-06-17T18:29:38Z</time>
      </trkpt>
      <trkpt lat="49.61878" lon="0.16303">
        <ele>88.1</ele>
        <time>2020-06-17T18:29:39Z</time>
      </trkpt>
      <trkpt lat="49.61885" lon="0.163">
        <ele>88.1</ele>
        <time>2020-06-17T18:29:40Z</time>
      </trkpt>
      <trkpt lat="49.61891" lon="0.16296">
        <ele>88.2</ele>
        <time>2020-06-17T18:29:41Z</time>
      </trkpt>
      <trkpt lat="49.61897" lon="0.16292">
        <ele>88.2</ele>
        <time>2020-06-17T18:29:42Z</time>
      </trkpt>
      <trkpt lat="49.61904" lon="0.16288">
        <ele>88.2</ele>
        <time>2020-06-17T18:29:43Z</time>
      </trkpt>
      <trkpt lat="49.6191" lon="0.16285">
        <ele>88.3</ele>
        <time>2020-06-17T18:29:44Z</time>
      </trkpt>
      <trkpt lat="49.61917" lon="0.1628">
        <ele>88.3</ele>
        <time>2020-06-17T18:29:45Z</time>
      </trkpt>
      <trkpt lat="49.61923" lon="0.16276">
        <ele>88.4</ele>
        <time>2020-06-17T18:29:46Z</time>
      </trkpt>
      <trkpt lat="49.6193" lon="0.16272">
        <ele>88.6</ele>
        <time>2020-06-17T18:29:47Z</time>
      </trkpt>
      <trkpt lat="49.61937" lon="0.16268">
        <ele>88.8</ele>
        <time>2020-06-17T18:29:48Z</time>
      </trkpt>
      <trkpt lat="49.61943" lon="0.16265">
        <ele>89</ele>
        <time>2020-06-17T18:29:49Z</time>
      </trkpt>
      <trkpt lat="49.61949" lon="0.16263">
        <ele>89.3</ele>
        <time>2020-06-17T18:29:50Z</time>
      </trkpt>
      <trkpt lat="49.61955" lon="0.16261">
        <ele>89.6</ele>
        <time>2020-06-17T18:29:51Z</time>
      </trkpt>
      <trkpt lat="49.61961" lon="0.16259">
        <ele>90</ele>
        <time>2020-06-17T18:29:52Z</time>
      </trkpt>
      <trkpt lat="49.61967" lon="0.16255">
        <ele>90.4</ele>
        <time>2020-06-17T18:29:53Z</time>
      </trkpt>
      <trkpt lat="49.61972" lon="0.16252">
        <ele>90.8</ele>
        <time>2020-06-17T18:29:54Z</time>
      </trkpt>
      <trkpt lat="49.61977" lon="0.16248">
        <ele>91.2</ele>
        <time>2020-06-17T18:29:55Z</time>
      </trkpt>
      <trkpt lat="49.61981" lon="0.16247">
        <ele>91.6</ele>
        <time>2020-06-17T18:29:56Z</time>
      </trkpt>
      <trkpt lat="49.61985" lon="0.16245">
        <ele>91.9</ele>
        <time>2020-06-17T18:29:57Z</time>
      </trkpt>
      <trkpt lat="49.61989" lon="0.16244">
        <ele>92.8</ele>
        <time>2020-06-17T18:29:58Z</time>
      </trkpt>
      <trkpt lat="49.6199" lon="0.16244">
        <ele>92.7</ele>
        <time>2020-06-17T18:29:59Z</time>
      </trkpt>
      <trkpt lat="49.61994" lon="0.16246">
        <ele>92.7</ele>
        <time>2020-06-17T18:30:00Z</time>
      </trkpt>
      <trkpt lat="49.61997" lon="0.16251">
        <ele>92.7</ele>
        <time>2020-06-17T18:30:01Z</time>
      </trkpt>
      <trkpt lat="49.62" lon="0.16257">
        <ele>92.6</ele>
        <time>2020-06-17T18:30:02Z</time>
      </trkpt>
      <trkpt lat="49.62004" lon="0.16263">
        <ele>92.6</ele>
        <time>2020-06-17T18:30:03Z</time>
      </trkpt>
      <trkpt lat="49.62008" lon="0.16268">
        <ele>92.6</ele>
        <time>2020-06-17T18:30:04Z</time>
      </trkpt>
      <trkpt lat="49.62013" lon="0.16273">
        <ele>92.6</ele>
        <time>2020-06-17T18:30:05Z</time>
      </trkpt>
      <trkpt lat="49.62017" lon="0.16279">
        <ele>92.7</ele>
        <time>2020-06-17T18:30:06Z</time>
      </trkpt>
      <trkpt lat="49.62022" lon="0.16284">
        <ele>92.8</ele>
        <time>2020-06-17T18:30:07Z</time>
      </trkpt>
      <trkpt lat="49.62026" lon="0.1629">
        <ele>92.9</ele>
        <time>2020-06-17T18:30:08Z</time>
      </trkpt>
      <trkpt lat="49.6203" lon="0.16296">
        <ele>93</ele>
        <time>2020-06-17T18:30:09Z</time>
      </trkpt>
      <trkpt lat="49.62034" lon="0.16301">
        <ele>93.1</ele>
        <time>2020-06-17T18:30:10Z</time>
      </trkpt>
      <trkpt lat="49.62038" lon="0.16307">
        <ele>93.2</ele>
        <time>2020-06-17T18:30:11Z</time>
      </trkpt>
      <trkpt lat="49.62041" lon="0.16311">
        <ele>93.3</ele>
        <time>2020-06-17T18:30:12Z</time>
      </trkpt>
      <trkpt lat="49.62044" lon="0.16315">
        <ele>93.4</ele>
        <time>2020-06-17T18:30:13Z</time>
      </trkpt>
      <trkpt lat="49.62048" lon="0.1632">
        <ele>93.5</ele>
        <time>2020-06-17T18:30:14Z</time>
      </trkpt>
      <trkpt lat="49.62051" lon="0.16324">
        <ele>93.6</ele>
        <time>2020-06-17T18:30:15Z</time>
      </trkpt>
      <trkpt lat="49.62054" lon="0.16329">
        <ele>93.7</ele>
        <time>2020-06-17T18:30:16Z</time>
      </trkpt>
      <trkpt lat="49.62057" lon="0.16334">
        <ele>93.8</ele>
        <time>2020-06-17T18:30:17Z</time>
      </trkpt>
      <trkpt lat="49.6206" lon="0.16339">
        <ele>93.9</ele>
        <time>2020-06-17T18:30:18Z</time>
      </trkpt>
      <trkpt lat="49.62065" lon="0.16346">
        <ele>94.1</ele>
        <time>2020-06-17T18:30:19Z</time>
      </trkpt>
      <trkpt lat="49.62068" lon="0.1635">
        <ele>94.2</ele>
        <time>2020-06-17T18:30:20Z</time>
      </trkpt>
      <trkpt lat="49.62071" lon="0.16355">
        <ele>94.3</ele>
        <time>2020-06-17T18:30:21Z</time>
      </trkpt>
      <trkpt lat="49.62073" lon="0.1636">
        <ele>94.4</ele>
        <time>2020-06-17T18:30:22Z</time>
      </trkpt>
      <trkpt lat="49.62076" lon="0.16364">
        <ele>94.5</ele>
        <time>2020-06-17T18:30:23Z</time>
      </trkpt>
      <trkpt lat="49.6208" lon="0.16369">
        <ele>94.6</ele>
        <time>2020-06-17T18:30:24Z</time>
      </trkpt>
      <trkpt lat="49.62083" lon="0.16373">
        <ele>94.7</ele>
        <time>2020-06-17T18:30:25Z</time>
      </trkpt>
      <trkpt lat="49.62085" lon="0.16376">
        <ele>94.8</ele>
        <time>2020-06-17T18:30:26Z</time>
      </trkpt>
      <trkpt lat="49.62088" lon="0.16381">
        <ele>95</ele>
        <time>2020-06-17T18:30:27Z</time>
      </trkpt>
      <trkpt lat="49.62091" lon="0.16384">
        <ele>95.1</ele>
        <time>2020-06-17T18:30:28Z</time>
      </trkpt>
      <trkpt lat="49.62094" lon="0.16388">
        <ele>95.2</ele>
        <time>2020-06-17T18:30:29Z</time>
      </trkpt>
      <trkpt lat="49.62097" lon="0.16393">
        <ele>95.2</ele>
        <time>2020-06-17T18:30:30Z</time>
      </trkpt>
      <trkpt lat="49.621" lon="0.16397">
        <ele>95.3</ele>
        <time>2020-06-17T18:30:31Z</time>
      </trkpt>
      <trkpt lat="49.62102" lon="0.164">
        <ele>95.4</ele>
        <time>2020-06-17T18:30:32Z</time>
      </trkpt>
      <trkpt lat="49.62104" lon="0.16404">
        <ele>95.4</ele>
        <time>2020-06-17T18:30:33Z</time>
      </trkpt>
      <trkpt lat="49.62107" lon="0.16409">
        <ele>95.4</ele>
        <time>2020-06-17T18:30:34Z</time>
      </trkpt>
      <trkpt lat="49.6211" lon="0.16413">
        <ele>95.5</ele>
        <time>2020-06-17T18:30:35Z</time>
      </trkpt>
      <trkpt lat="49.62113" lon="0.16417">
        <ele>95.7</ele>
        <time>2020-06-17T18:30:36Z</time>
      </trkpt>
      <trkpt lat="49.62117" lon="0.16421">
        <ele>95.9</ele>
        <time>2020-06-17T18:30:37Z</time>
      </trkpt>
      <trkpt lat="49.6212" lon="0.16426">
        <ele>96</ele>
        <time>2020-06-17T18:30:38Z</time>
      </trkpt>
      <trkpt lat="49.62123" lon="0.16431">
        <ele>96.1</ele>
        <time>2020-06-17T18:30:39Z</time>
      </trkpt>
      <trkpt lat="49.62126" lon="0.16437">
        <ele>96.3</ele>
        <time>2020-06-17T18:30:40Z</time>
      </trkpt>
      <trkpt lat="49.6213" lon="0.16441">
        <ele>96.4</ele>
        <time>2020-06-17T18:30:41Z</time>
      </trkpt>
      <trkpt lat="49.62133" lon="0.16446">
        <ele>96.6</ele>
        <time>2020-06-17T18:30:42Z</time>
      </trkpt>
      <trkpt lat="49.62137" lon="0.16451">
        <ele>96.7</ele>
        <time>2020-06-17T18:30:43Z</time>
      </trkpt>
      <trkpt lat="49.6214" lon="0.16456">
        <ele>96.8</ele>
        <time>2020-06-17T18:30:44Z</time>
      </trkpt>
      <trkpt lat="49.62143" lon="0.16459">
        <ele>97</ele>
        <time>2020-06-17T18:30:45Z</time>
      </trkpt>
      <trkpt lat="49.62147" lon="0.16463">
        <ele>97.1</ele>
        <time>2020-06-17T18:30:46Z</time>
      </trkpt>
      <trkpt lat="49.62151" lon="0.16468">
        <ele>97.2</ele>
        <time>2020-06-17T18:30:47Z</time>
      </trkpt>
      <trkpt lat="49.62154" lon="0.16473">
        <ele>97.3</ele>
        <time>2020-06-17T18:30:48Z</time>
      </trkpt>
      <trkpt lat="49.62159" lon="0.16478">
        <ele>97.4</ele>
        <time>2020-06-17T18:30:49Z</time>
      </trkpt>
      <trkpt lat="49.62162" lon="0.16483">
        <ele>97.5</ele>
        <time>2020-06-17T18:30:50Z</time>
      </trkpt>
      <trkpt lat="49.62166" lon="0.16489">
        <ele>97.7</ele>
        <time>2020-06-17T18:30:51Z</time>
      </trkpt>
      <trkpt lat="49.62169" lon="0.16493">
        <ele>97.8</ele>
        <time>2020-06-17T18:30:52Z</time>
      </trkpt>
      <trkpt lat="49.62172" lon="0.16498">
        <ele>97.9</ele>
        <time>2020-06-17T18:30:53Z</time>
      </trkpt>
      <trkpt lat="49.62175" lon="0.16504">
        <ele>98</ele>
        <time>2020-06-17T18:30:54Z</time>
      </trkpt>
      <trkpt lat="49.62178" lon="0.1651">
        <ele>98</ele>
        <time>2020-06-17T18:30:55Z</time>
      </trkpt>
      <trkpt lat="49.62181" lon="0.16516">
        <ele>98.1</ele>
        <time>2020-06-17T18:30:56Z</time>
      </trkpt>
      <trkpt lat="49.62185" lon="0.16522">
        <ele>98.2</ele>
        <time>2020-06-17T18:30:57Z</time>
      </trkpt>
      <trkpt lat="49.62188" lon="0.16527">
        <ele>98.3</ele>
        <time>2020-06-17T18:30:58Z</time>
      </trkpt>
      <trkpt lat="49.62191" lon="0.16532">
        <ele>98.3</ele>
        <time>2020-06-17T18:30:59Z</time>
      </trkpt>
      <trkpt lat="49.62195" lon="0.16537">
        <ele>98.4</ele>
        <time>2020-06-17T18:31:00Z</time>
      </trkpt>
      <trkpt lat="49.62198" lon="0.16542">
        <ele>98.5</ele>
        <time>2020-06-17T18:31:01Z</time>
      </trkpt>
      <trkpt lat="49.62201" lon="0.16547">
        <ele>98.5</ele>
        <time>2020-06-17T18:31:02Z</time>
      </trkpt>
      <trkpt lat="49.62205" lon="0.16552">
        <ele>98.6</ele>
        <time>2020-06-17T18:31:03Z</time>
      </trkpt>
      <trkpt lat="49.62209" lon="0.16557">
        <ele>98.7</ele>
        <time>2020-06-17T18:31:04Z</time>
      </trkpt>
      <trkpt lat="49.62212" lon="0.16563">
        <ele>98.8</ele>
        <time>2020-06-17T18:31:05Z</time>
      </trkpt>
      <trkpt lat="49.62216" lon="0.16568">
        <ele>98.8</ele>
        <time>2020-06-17T18:31:06Z</time>
      </trkpt>
      <trkpt lat="49.62219" lon="0.16573">
        <ele>98.9</ele>
        <time>2020-06-17T18:31:07Z</time>
      </trkpt>
      <trkpt lat="49.62223" lon="0.16578">
        <ele>99</ele>
        <time>2020-06-17T18:31:08Z</time>
      </trkpt>
      <trkpt lat="49.62228" lon="0.16583">
        <ele>99.1</ele>
        <time>2020-06-17T18:31:09Z</time>
      </trkpt>
      <trkpt lat="49.62232" lon="0.16587">
        <ele>99.3</ele>
        <time>2020-06-17T18:31:10Z</time>
      </trkpt>
      <trkpt lat="49.62235" lon="0.16593">
        <ele>99.5</ele>
        <time>2020-06-17T18:31:11Z</time>
      </trkpt>
      <trkpt lat="49.62239" lon="0.16598">
        <ele>99.6</ele>
        <time>2020-06-17T18:31:12Z</time>
      </trkpt>
      <trkpt lat="49.62242" lon="0.16603">
        <ele>99.7</ele>
        <time>2020-06-17T18:31:13Z</time>
      </trkpt>
      <trkpt lat="49.62245" lon="0.16608">
        <ele>99.8</ele>
        <time>2020-06-17T18:31:14Z</time>
      </trkpt>
      <trkpt lat="49.62249" lon="0.16613">
        <ele>99.9</ele>
        <time>2020-06-17T18:31:15Z</time>
      </trkpt>
      <trkpt lat="49.62252" lon="0.16619">
        <ele>100</ele>
        <time>2020-06-17T18:31:16Z</time>
      </trkpt>
      <trkpt lat="49.62255" lon="0.16624">
        <ele>100.1</ele>
        <time>2020-06-17T18:31:17Z</time>
      </trkpt>
      <trkpt lat="49.62259" lon="0.16631">
        <ele>100.2</ele>
        <time>2020-06-17T18:31:18Z</time>
      </trkpt>
      <trkpt lat="49.62262" lon="0.16635">
        <ele>100.3</ele>
        <time>2020-06-17T18:31:19Z</time>
      </trkpt>
      <trkpt lat="49.62265" lon="0.1664">
        <ele>100.4</ele>
        <time>2020-06-17T18:31:20Z</time>
      </trkpt>
      <trkpt lat="49.62268" lon="0.16645">
        <ele>100.5</ele>
        <time>2020-06-17T18:31:21Z</time>
      </trkpt>
      <trkpt lat="49.62272" lon="0.1665">
        <ele>100.7</ele>
        <time>2020-06-17T18:31:22Z</time>
      </trkpt>
      <trkpt lat="49.62275" lon="0.16655">
        <ele>100.8</ele>
        <time>2020-06-17T18:31:23Z</time>
      </trkpt>
      <trkpt lat="49.62279" lon="0.16661">
        <ele>100.9</ele>
        <time>2020-06-17T18:31:24Z</time>
      </trkpt>
      <trkpt lat="49.62282" lon="0.16666">
        <ele>101</ele>
        <time>2020-06-17T18:31:25Z</time>
      </trkpt>
      <trkpt lat="49.62285" lon="0.16671">
        <ele>101.1</ele>
        <time>2020-06-17T18:31:26Z</time>
      </trkpt>
      <trkpt lat="49.62289" lon="0.16677">
        <ele>101.2</ele>
        <time>2020-06-17T18:31:27Z</time>
      </trkpt>
      <trkpt lat="49.62293" lon="0.16682">
        <ele>101.3</ele>
        <time>2020-06-17T18:31:28Z</time>
      </trkpt>
      <trkpt lat="49.62296" lon="0.16686">
        <ele>101.4</ele>
        <time>2020-06-17T18:31:29Z</time>
      </trkpt>
      <trkpt lat="49.623" lon="0.16691">
        <ele>101.6</ele>
        <time>2020-06-17T18:31:30Z</time>
      </trkpt>
      <trkpt lat="49.62303" lon="0.16697">
        <ele>101.7</ele>
        <time>2020-06-17T18:31:31Z</time>
      </trkpt>
      <trkpt lat="49.62306" lon="0.16703">
        <ele>101.8</ele>
        <time>2020-06-17T18:31:32Z</time>
      </trkpt>
      <trkpt lat="49.6231" lon="0.16708">
        <ele>102</ele>
        <time>2020-06-17T18:31:33Z</time>
      </trkpt>
      <trkpt lat="49.62313" lon="0.16713">
        <ele>102.1</ele>
        <time>2020-06-17T18:31:34Z</time>
      </trkpt>
      <trkpt lat="49.62316" lon="0.16719">
        <ele>102.3</ele>
        <time>2020-06-17T18:31:35Z</time>
      </trkpt>
      <trkpt lat="49.6232" lon="0.16725">
        <ele>102.5</ele>
        <time>2020-06-17T18:31:36Z</time>
      </trkpt>
      <trkpt lat="49.62324" lon="0.16729">
        <ele>102.7</ele>
        <time>2020-06-17T18:31:37Z</time>
      </trkpt>
      <trkpt lat="49.62327" lon="0.16733">
        <ele>102.8</ele>
        <time>2020-06-17T18:31:38Z</time>
      </trkpt>
      <trkpt lat="49.62331" lon="0.16738">
        <ele>103</ele>
        <time>2020-06-17T18:31:39Z</time>
      </trkpt>
      <trkpt lat="49.62335" lon="0.16744">
        <ele>103.2</ele>
        <time>2020-06-17T18:31:40Z</time>
      </trkpt>
      <trkpt lat="49.62339" lon="0.16749">
        <ele>103.4</ele>
        <time>2020-06-17T18:31:41Z</time>
      </trkpt>
      <trkpt lat="49.62341" lon="0.16754">
        <ele>103.5</ele>
        <time>2020-06-17T18:31:42Z</time>
      </trkpt>
      <trkpt lat="49.62344" lon="0.16758">
        <ele>103.7</ele>
        <time>2020-06-17T18:31:43Z</time>
      </trkpt>
      <trkpt lat="49.62348" lon="0.16764">
        <ele>103.9</ele>
        <time>2020-06-17T18:31:44Z</time>
      </trkpt>
      <trkpt lat="49.62352" lon="0.16768">
        <ele>104</ele>
        <time>2020-06-17T18:31:45Z</time>
      </trkpt>
      <trkpt lat="49.62355" lon="0.16772">
        <ele>104.2</ele>
        <time>2020-06-17T18:31:46Z</time>
      </trkpt>
      <trkpt lat="49.62359" lon="0.16777">
        <ele>104.3</ele>
        <time>2020-06-17T18:31:47Z</time>
      </trkpt>
      <trkpt lat="49.62361" lon="0.16781">
        <ele>104.4</ele>
        <time>2020-06-17T18:31:48Z</time>
      </trkpt>
      <trkpt lat="49.62365" lon="0.16787">
        <ele>104.6</ele>
        <time>2020-06-17T18:31:49Z</time>
      </trkpt>
      <trkpt lat="49.62368" lon="0.16791">
        <ele>104.7</ele>
        <time>2020-06-17T18:31:50Z</time>
      </trkpt>
      <trkpt lat="49.62371" lon="0.16796">
        <ele>104.9</ele>
        <time>2020-06-17T18:31:51Z</time>
      </trkpt>
      <trkpt lat="49.62374" lon="0.16801">
        <ele>105</ele>
        <time>2020-06-17T18:31:52Z</time>
      </trkpt>
      <trkpt lat="49.62377" lon="0.16807">
        <ele>105.2</ele>
        <time>2020-06-17T18:31:53Z</time>
      </trkpt>
      <trkpt lat="49.6238" lon="0.16812">
        <ele>105.3</ele>
        <time>2020-06-17T18:31:54Z</time>
      </trkpt>
      <trkpt lat="49.62385" lon="0.16815">
        <ele>105.5</ele>
        <time>2020-06-17T18:31:55Z</time>
      </trkpt>
      <trkpt lat="49.62388" lon="0.1682">
        <ele>105.6</ele>
        <time>2020-06-17T18:31:56Z</time>
      </trkpt>
      <trkpt lat="49.62392" lon="0.16825">
        <ele>105.8</ele>
        <time>2020-06-17T18:31:57Z</time>
      </trkpt>
      <trkpt lat="49.62395" lon="0.1683">
        <ele>105.9</ele>
        <time>2020-06-17T18:31:58Z</time>
      </trkpt>
      <trkpt lat="49.62398" lon="0.16833">
        <ele>106.1</ele>
        <time>2020-06-17T18:31:59Z</time>
      </trkpt>
      <trkpt lat="49.624" lon="0.16836">
        <ele>106.2</ele>
        <time>2020-06-17T18:32:00Z</time>
      </trkpt>
      <trkpt lat="49.62403" lon="0.1684">
        <ele>106.3</ele>
        <time>2020-06-17T18:32:01Z</time>
      </trkpt>
      <trkpt lat="49.62407" lon="0.16843">
        <ele>106.4</ele>
        <time>2020-06-17T18:32:02Z</time>
      </trkpt>
      <trkpt lat="49.6241" lon="0.16846">
        <ele>106.6</ele>
        <time>2020-06-17T18:32:03Z</time>
      </trkpt>
      <trkpt lat="49.62414" lon="0.1685">
        <ele>106.7</ele>
        <time>2020-06-17T18:32:04Z</time>
      </trkpt>
      <trkpt lat="49.62417" lon="0.16853">
        <ele>106.9</ele>
        <time>2020-06-17T18:32:05Z</time>
      </trkpt>
      <trkpt lat="49.6242" lon="0.16856">
        <ele>107</ele>
        <time>2020-06-17T18:32:06Z</time>
      </trkpt>
      <trkpt lat="49.62424" lon="0.16859">
        <ele>107.1</ele>
        <time>2020-06-17T18:32:07Z</time>
      </trkpt>
      <trkpt lat="49.62427" lon="0.16865">
        <ele>107.3</ele>
        <time>2020-06-17T18:32:08Z</time>
      </trkpt>
      <trkpt lat="49.62431" lon="0.16871">
        <ele>107.5</ele>
        <time>2020-06-17T18:32:09Z</time>
      </trkpt>
      <trkpt lat="49.62434" lon="0.16877">
        <ele>107.7</ele>
        <time>2020-06-17T18:32:10Z</time>
      </trkpt>
      <trkpt lat="49.62438" lon="0.16883">
        <ele>107.9</ele>
        <time>2020-06-17T18:32:11Z</time>
      </trkpt>
      <trkpt lat="49.62442" lon="0.16889">
        <ele>108.1</ele>
        <time>2020-06-17T18:32:12Z</time>
      </trkpt>
      <trkpt lat="49.62446" lon="0.16895">
        <ele>108.3</ele>
        <time>2020-06-17T18:32:13Z</time>
      </trkpt>
      <trkpt lat="49.62448" lon="0.16899">
        <ele>108.4</ele>
        <time>2020-06-17T18:32:14Z</time>
      </trkpt>
      <trkpt lat="49.62452" lon="0.16904">
        <ele>108.6</ele>
        <time>2020-06-17T18:32:15Z</time>
      </trkpt>
      <trkpt lat="49.62456" lon="0.16909">
        <ele>108.7</ele>
        <time>2020-06-17T18:32:16Z</time>
      </trkpt>
      <trkpt lat="49.62459" lon="0.16912">
        <ele>108.9</ele>
        <time>2020-06-17T18:32:17Z</time>
      </trkpt>
      <trkpt lat="49.62462" lon="0.16916">
        <ele>109</ele>
        <time>2020-06-17T18:32:18Z</time>
      </trkpt>
      <trkpt lat="49.62465" lon="0.1692">
        <ele>109.1</ele>
        <time>2020-06-17T18:32:19Z</time>
      </trkpt>
      <trkpt lat="49.62469" lon="0.16925">
        <ele>109.2</ele>
        <time>2020-06-17T18:32:20Z</time>
      </trkpt>
      <trkpt lat="49.62472" lon="0.16928">
        <ele>109.4</ele>
        <time>2020-06-17T18:32:21Z</time>
      </trkpt>
      <trkpt lat="49.62475" lon="0.16933">
        <ele>109.5</ele>
        <time>2020-06-17T18:32:22Z</time>
      </trkpt>
      <trkpt lat="49.62478" lon="0.16939">
        <ele>109.7</ele>
        <time>2020-06-17T18:32:23Z</time>
      </trkpt>
      <trkpt lat="49.6248" lon="0.16943">
        <ele>109.8</ele>
        <time>2020-06-17T18:32:24Z</time>
      </trkpt>
      <trkpt lat="49.62483" lon="0.1695">
        <ele>110</ele>
        <time>2020-06-17T18:32:25Z</time>
      </trkpt>
      <trkpt lat="49.62486" lon="0.16955">
        <ele>110.2</ele>
        <time>2020-06-17T18:32:26Z</time>
      </trkpt>
      <trkpt lat="49.62489" lon="0.1696">
        <ele>110.3</ele>
        <time>2020-06-17T18:32:27Z</time>
      </trkpt>
      <trkpt lat="49.62492" lon="0.16965">
        <ele>110.3</ele>
        <time>2020-06-17T18:32:28Z</time>
      </trkpt>
      <trkpt lat="49.62496" lon="0.16969">
        <ele>110.4</ele>
        <time>2020-06-17T18:32:29Z</time>
      </trkpt>
      <trkpt lat="49.62499" lon="0.16974">
        <ele>110.6</ele>
        <time>2020-06-17T18:32:30Z</time>
      </trkpt>
      <trkpt lat="49.62502" lon="0.16979">
        <ele>110.6</ele>
        <time>2020-06-17T18:32:31Z</time>
      </trkpt>
      <trkpt lat="49.62506" lon="0.16983">
        <ele>110.7</ele>
        <time>2020-06-17T18:32:32Z</time>
      </trkpt>
      <trkpt lat="49.62509" lon="0.16987">
        <ele>110.8</ele>
        <time>2020-06-17T18:32:33Z</time>
      </trkpt>
      <trkpt lat="49.62513" lon="0.16992">
        <ele>110.9</ele>
        <time>2020-06-17T18:32:34Z</time>
      </trkpt>
      <trkpt lat="49.62516" lon="0.16997">
        <ele>111</ele>
        <time>2020-06-17T18:32:35Z</time>
      </trkpt>
      <trkpt lat="49.62521" lon="0.17">
        <ele>111.1</ele>
        <time>2020-06-17T18:32:36Z</time>
      </trkpt>
      <trkpt lat="49.62524" lon="0.17004">
        <ele>111.2</ele>
        <time>2020-06-17T18:32:37Z</time>
      </trkpt>
      <trkpt lat="49.62527" lon="0.1701">
        <ele>111.3</ele>
        <time>2020-06-17T18:32:38Z</time>
      </trkpt>
      <trkpt lat="49.6253" lon="0.17015">
        <ele>111.4</ele>
        <time>2020-06-17T18:32:39Z</time>
      </trkpt>
      <trkpt lat="49.62533" lon="0.1702">
        <ele>111.5</ele>
        <time>2020-06-17T18:32:40Z</time>
      </trkpt>
      <trkpt lat="49.62537" lon="0.17025">
        <ele>111.5</ele>
        <time>2020-06-17T18:32:41Z</time>
      </trkpt>
      <trkpt lat="49.62539" lon="0.17029">
        <ele>111.6</ele>
        <time>2020-06-17T18:32:42Z</time>
      </trkpt>
      <trkpt lat="49.62542" lon="0.17033">
        <ele>111.6</ele>
        <time>2020-06-17T18:32:43Z</time>
      </trkpt>
      <trkpt lat="49.62545" lon="0.17039">
        <ele>111.7</ele>
        <time>2020-06-17T18:32:44Z</time>
      </trkpt>
      <trkpt lat="49.62549" lon="0.17047">
        <ele>111.8</ele>
        <time>2020-06-17T18:32:45Z</time>
      </trkpt>
      <trkpt lat="49.62553" lon="0.17053">
        <ele>111.9</ele>
        <time>2020-06-17T18:32:46Z</time>
      </trkpt>
      <trkpt lat="49.62557" lon="0.17059">
        <ele>112</ele>
        <time>2020-06-17T18:32:47Z</time>
      </trkpt>
      <trkpt lat="49.62562" lon="0.17065">
        <ele>112.1</ele>
        <time>2020-06-17T18:32:48Z</time>
      </trkpt>
      <trkpt lat="49.62565" lon="0.17072">
        <ele>112.2</ele>
        <time>2020-06-17T18:32:49Z</time>
      </trkpt>
      <trkpt lat="49.62569" lon="0.17079">
        <ele>112.3</ele>
        <time>2020-06-17T18:32:50Z</time>
      </trkpt>
      <trkpt lat="49.62573" lon="0.17085">
        <ele>112.4</ele>
        <time>2020-06-17T18:32:51Z</time>
      </trkpt>
      <trkpt lat="49.62577" lon="0.1709">
        <ele>112.5</ele>
        <time>2020-06-17T18:32:52Z</time>
      </trkpt>
      <trkpt lat="49.6258" lon="0.17095">
        <ele>112.5</ele>
        <time>2020-06-17T18:32:53Z</time>
      </trkpt>
      <trkpt lat="49.62583" lon="0.171">
        <ele>112.6</ele>
        <time>2020-06-17T18:32:54Z</time>
      </trkpt>
      <trkpt lat="49.62587" lon="0.17106">
        <ele>112.6</ele>
        <time>2020-06-17T18:32:55Z</time>
      </trkpt>
      <trkpt lat="49.6259" lon="0.17112">
        <ele>112.7</ele>
        <time>2020-06-17T18:32:56Z</time>
      </trkpt>
      <trkpt lat="49.62594" lon="0.17117">
        <ele>112.7</ele>
        <time>2020-06-17T18:32:57Z</time>
      </trkpt>
      <trkpt lat="49.62598" lon="0.17123">
        <ele>112.8</ele>
        <time>2020-06-17T18:32:58Z</time>
      </trkpt>
      <trkpt lat="49.62602" lon="0.17128">
        <ele>112.8</ele>
        <time>2020-06-17T18:32:59Z</time>
      </trkpt>
      <trkpt lat="49.62605" lon="0.17132">
        <ele>112.8</ele>
        <time>2020-06-17T18:33:00Z</time>
      </trkpt>
      <trkpt lat="49.62609" lon="0.17137">
        <ele>112.9</ele>
        <time>2020-06-17T18:33:01Z</time>
      </trkpt>
      <trkpt lat="49.62612" lon="0.17142">
        <ele>112.9</ele>
        <time>2020-06-17T18:33:02Z</time>
      </trkpt>
      <trkpt lat="49.62616" lon="0.17148">
        <ele>112.9</ele>
        <time>2020-06-17T18:33:03Z</time>
      </trkpt>
      <trkpt lat="49.62619" lon="0.17152">
        <ele>112.9</ele>
        <time>2020-06-17T18:33:04Z</time>
      </trkpt>
      <trkpt lat="49.62624" lon="0.17158">
        <ele>113</ele>
        <time>2020-06-17T18:33:05Z</time>
      </trkpt>
      <trkpt lat="49.62628" lon="0.17163">
        <ele>113</ele>
        <time>2020-06-17T18:33:06Z</time>
      </trkpt>
      <trkpt lat="49.62631" lon="0.17169">
        <ele>113.1</ele>
        <time>2020-06-17T18:33:07Z</time>
      </trkpt>
      <trkpt lat="49.62635" lon="0.17174">
        <ele>113.1</ele>
        <time>2020-06-17T18:33:08Z</time>
      </trkpt>
      <trkpt lat="49.62639" lon="0.1718">
        <ele>113.1</ele>
        <time>2020-06-17T18:33:09Z</time>
      </trkpt>
      <trkpt lat="49.62642" lon="0.17187">
        <ele>113.2</ele>
        <time>2020-06-17T18:33:10Z</time>
      </trkpt>
      <trkpt lat="49.62646" lon="0.17192">
        <ele>113.2</ele>
        <time>2020-06-17T18:33:11Z</time>
      </trkpt>
      <trkpt lat="49.6265" lon="0.17198">
        <ele>113.2</ele>
        <time>2020-06-17T18:33:12Z</time>
      </trkpt>
      <trkpt lat="49.62653" lon="0.17205">
        <ele>113.3</ele>
        <time>2020-06-17T18:33:13Z</time>
      </trkpt>
      <trkpt lat="49.62657" lon="0.17211">
        <ele>113.3</ele>
        <time>2020-06-17T18:33:14Z</time>
      </trkpt>
      <trkpt lat="49.6266" lon="0.17216">
        <ele>113.3</ele>
        <time>2020-06-17T18:33:15Z</time>
      </trkpt>
      <trkpt lat="49.62664" lon="0.17221">
        <ele>113.4</ele>
        <time>2020-06-17T18:33:16Z</time>
      </trkpt>
      <trkpt lat="49.62669" lon="0.17226">
        <ele>113.4</ele>
        <time>2020-06-17T18:33:17Z</time>
      </trkpt>
      <trkpt lat="49.62673" lon="0.17232">
        <ele>113.5</ele>
        <time>2020-06-17T18:33:18Z</time>
      </trkpt>
      <trkpt lat="49.62676" lon="0.17238">
        <ele>113.5</ele>
        <time>2020-06-17T18:33:19Z</time>
      </trkpt>
      <trkpt lat="49.6268" lon="0.17244">
        <ele>113.5</ele>
        <time>2020-06-17T18:33:20Z</time>
      </trkpt>
      <trkpt lat="49.62683" lon="0.17251">
        <ele>113.5</ele>
        <time>2020-06-17T18:33:21Z</time>
      </trkpt>
      <trkpt lat="49.62686" lon="0.17258">
        <ele>113.5</ele>
        <time>2020-06-17T18:33:22Z</time>
      </trkpt>
      <trkpt lat="49.6269" lon="0.17264">
        <ele>113.4</ele>
        <time>2020-06-17T18:33:23Z</time>
      </trkpt>
      <trkpt lat="49.62693" lon="0.1727">
        <ele>113.4</ele>
        <time>2020-06-17T18:33:24Z</time>
      </trkpt>
      <trkpt lat="49.62697" lon="0.17276">
        <ele>113.5</ele>
        <time>2020-06-17T18:33:25Z</time>
      </trkpt>
      <trkpt lat="49.62701" lon="0.17282">
        <ele>113.5</ele>
        <time>2020-06-17T18:33:26Z</time>
      </trkpt>
      <trkpt lat="49.62706" lon="0.17287">
        <ele>113.5</ele>
        <time>2020-06-17T18:33:27Z</time>
      </trkpt>
      <trkpt lat="49.6271" lon="0.17293">
        <ele>113.5</ele>
        <time>2020-06-17T18:33:28Z</time>
      </trkpt>
      <trkpt lat="49.62714" lon="0.17299">
        <ele>113.5</ele>
        <time>2020-06-17T18:33:29Z</time>
      </trkpt>
      <trkpt lat="49.62718" lon="0.17304">
        <ele>113.5</ele>
        <time>2020-06-17T18:33:30Z</time>
      </trkpt>
      <trkpt lat="49.62722" lon="0.17311">
        <ele>113.5</ele>
        <time>2020-06-17T18:33:31Z</time>
      </trkpt>
      <trkpt lat="49.62726" lon="0.17317">
        <ele>113.6</ele>
        <time>2020-06-17T18:33:32Z</time>
      </trkpt>
      <trkpt lat="49.62729" lon="0.17323">
        <ele>113.6</ele>
        <time>2020-06-17T18:33:33Z</time>
      </trkpt>
      <trkpt lat="49.62733" lon="0.17329">
        <ele>113.6</ele>
        <time>2020-06-17T18:33:34Z</time>
      </trkpt>
      <trkpt lat="49.62737" lon="0.17335">
        <ele>113.6</ele>
        <time>2020-06-17T18:33:35Z</time>
      </trkpt>
      <trkpt lat="49.62741" lon="0.1734">
        <ele>113.6</ele>
        <time>2020-06-17T18:33:36Z</time>
      </trkpt>
      <trkpt lat="49.62745" lon="0.17344">
        <ele>113.6</ele>
        <time>2020-06-17T18:33:37Z</time>
      </trkpt>
      <trkpt lat="49.62749" lon="0.17349">
        <ele>113.7</ele>
        <time>2020-06-17T18:33:38Z</time>
      </trkpt>
      <trkpt lat="49.62753" lon="0.17354">
        <ele>113.7</ele>
        <time>2020-06-17T18:33:39Z</time>
      </trkpt>
      <trkpt lat="49.62757" lon="0.1736">
        <ele>113.7</ele>
        <time>2020-06-17T18:33:40Z</time>
      </trkpt>
      <trkpt lat="49.62761" lon="0.17365">
        <ele>113.8</ele>
        <time>2020-06-17T18:33:41Z</time>
      </trkpt>
      <trkpt lat="49.62766" lon="0.17372">
        <ele>113.8</ele>
        <time>2020-06-17T18:33:42Z</time>
      </trkpt>
      <trkpt lat="49.62771" lon="0.17378">
        <ele>113.9</ele>
        <time>2020-06-17T18:33:43Z</time>
      </trkpt>
      <trkpt lat="49.62775" lon="0.17383">
        <ele>113.9</ele>
        <time>2020-06-17T18:33:44Z</time>
      </trkpt>
      <trkpt lat="49.62779" lon="0.17389">
        <ele>114</ele>
        <time>2020-06-17T18:33:45Z</time>
      </trkpt>
      <trkpt lat="49.62783" lon="0.17395">
        <ele>114</ele>
        <time>2020-06-17T18:33:46Z</time>
      </trkpt>
      <trkpt lat="49.62787" lon="0.17401">
        <ele>114</ele>
        <time>2020-06-17T18:33:47Z</time>
      </trkpt>
      <trkpt lat="49.62791" lon="0.17408">
        <ele>114.1</ele>
        <time>2020-06-17T18:33:48Z</time>
      </trkpt>
      <trkpt lat="49.62796" lon="0.17414">
        <ele>114.1</ele>
        <time>2020-06-17T18:33:49Z</time>
      </trkpt>
      <trkpt lat="49.628" lon="0.1742">
        <ele>114.1</ele>
        <time>2020-06-17T18:33:50Z</time>
      </trkpt>
      <trkpt lat="49.62803" lon="0.17426">
        <ele>114.1</ele>
        <time>2020-06-17T18:33:51Z</time>
      </trkpt>
      <trkpt lat="49.62807" lon="0.17433">
        <ele>114.2</ele>
        <time>2020-06-17T18:33:52Z</time>
      </trkpt>
      <trkpt lat="49.62811" lon="0.17438">
        <ele>114.2</ele>
        <time>2020-06-17T18:33:53Z</time>
      </trkpt>
      <trkpt lat="49.62815" lon="0.17443">
        <ele>114.2</ele>
        <time>2020-06-17T18:33:54Z</time>
      </trkpt>
      <trkpt lat="49.62819" lon="0.17449">
        <ele>114.2</ele>
        <time>2020-06-17T18:33:55Z</time>
      </trkpt>
      <trkpt lat="49.62823" lon="0.17454">
        <ele>114.3</ele>
        <time>2020-06-17T18:33:56Z</time>
      </trkpt>
      <trkpt lat="49.62827" lon="0.17459">
        <ele>114.3</ele>
        <time>2020-06-17T18:33:57Z</time>
      </trkpt>
      <trkpt lat="49.62831" lon="0.17465">
        <ele>114.4</ele>
        <time>2020-06-17T18:33:58Z</time>
      </trkpt>
      <trkpt lat="49.62835" lon="0.17471">
        <ele>114.5</ele>
        <time>2020-06-17T18:33:59Z</time>
      </trkpt>
      <trkpt lat="49.62838" lon="0.17477">
        <ele>114.7</ele>
        <time>2020-06-17T18:34:00Z</time>
      </trkpt>
      <trkpt lat="49.62842" lon="0.17482">
        <ele>114.7</ele>
        <time>2020-06-17T18:34:01Z</time>
      </trkpt>
      <trkpt lat="49.62846" lon="0.17487">
        <ele>114.6</ele>
        <time>2020-06-17T18:34:02Z</time>
      </trkpt>
      <trkpt lat="49.6285" lon="0.17493">
        <ele>114.6</ele>
        <time>2020-06-17T18:34:03Z</time>
      </trkpt>
      <trkpt lat="49.62854" lon="0.17498">
        <ele>114.6</ele>
        <time>2020-06-17T18:34:04Z</time>
      </trkpt>
      <trkpt lat="49.62857" lon="0.17504">
        <ele>114.6</ele>
        <time>2020-06-17T18:34:05Z</time>
      </trkpt>
      <trkpt lat="49.62862" lon="0.1751">
        <ele>114.6</ele>
        <time>2020-06-17T18:34:06Z</time>
      </trkpt>
      <trkpt lat="49.62866" lon="0.17516">
        <ele>114.6</ele>
        <time>2020-06-17T18:34:07Z</time>
      </trkpt>
      <trkpt lat="49.6287" lon="0.17523">
        <ele>114.6</ele>
        <time>2020-06-17T18:34:08Z</time>
      </trkpt>
      <trkpt lat="49.62875" lon="0.1753">
        <ele>114.6</ele>
        <time>2020-06-17T18:34:09Z</time>
      </trkpt>
      <trkpt lat="49.62879" lon="0.17537">
        <ele>114.6</ele>
        <time>2020-06-17T18:34:10Z</time>
      </trkpt>
      <trkpt lat="49.62883" lon="0.17543">
        <ele>114.6</ele>
        <time>2020-06-17T18:34:11Z</time>
      </trkpt>
      <trkpt lat="49.62887" lon="0.17548">
        <ele>114.6</ele>
        <time>2020-06-17T18:34:12Z</time>
      </trkpt>
      <trkpt lat="49.62892" lon="0.17554">
        <ele>114.6</ele>
        <time>2020-06-17T18:34:13Z</time>
      </trkpt>
      <trkpt lat="49.62896" lon="0.1756">
        <ele>114.7</ele>
        <time>2020-06-17T18:34:14Z</time>
      </trkpt>
      <trkpt lat="49.62901" lon="0.17565">
        <ele>114.7</ele>
        <time>2020-06-17T18:34:15Z</time>
      </trkpt>
      <trkpt lat="49.62905" lon="0.17572">
        <ele>114.7</ele>
        <time>2020-06-17T18:34:16Z</time>
      </trkpt>
      <trkpt lat="49.6291" lon="0.17579">
        <ele>114.8</ele>
        <time>2020-06-17T18:34:17Z</time>
      </trkpt>
      <trkpt lat="49.62914" lon="0.17585">
        <ele>114.8</ele>
        <time>2020-06-17T18:34:18Z</time>
      </trkpt>
      <trkpt lat="49.62917" lon="0.1759">
        <ele>114.8</ele>
        <time>2020-06-17T18:34:19Z</time>
      </trkpt>
      <trkpt lat="49.62921" lon="0.17596">
        <ele>114.8</ele>
        <time>2020-06-17T18:34:20Z</time>
      </trkpt>
      <trkpt lat="49.62924" lon="0.17601">
        <ele>114.9</ele>
        <time>2020-06-17T18:34:21Z</time>
      </trkpt>
      <trkpt lat="49.62928" lon="0.17608">
        <ele>114.9</ele>
        <time>2020-06-17T18:34:22Z</time>
      </trkpt>
      <trkpt lat="49.62932" lon="0.17614">
        <ele>114.9</ele>
        <time>2020-06-17T18:34:23Z</time>
      </trkpt>
      <trkpt lat="49.62935" lon="0.1762">
        <ele>114.9</ele>
        <time>2020-06-17T18:34:24Z</time>
      </trkpt>
      <trkpt lat="49.62939" lon="0.17625">
        <ele>114.9</ele>
        <time>2020-06-17T18:34:25Z</time>
      </trkpt>
      <trkpt lat="49.62943" lon="0.17632">
        <ele>115</ele>
        <time>2020-06-17T18:34:26Z</time>
      </trkpt>
      <trkpt lat="49.62947" lon="0.17638">
        <ele>115</ele>
        <time>2020-06-17T18:34:27Z</time>
      </trkpt>
      <trkpt lat="49.62951" lon="0.17644">
        <ele>115.1</ele>
        <time>2020-06-17T18:34:28Z</time>
      </trkpt>
      <trkpt lat="49.62954" lon="0.1765">
        <ele>115.1</ele>
        <time>2020-06-17T18:34:29Z</time>
      </trkpt>
      <trkpt lat="49.62958" lon="0.17657">
        <ele>115.2</ele>
        <time>2020-06-17T18:34:30Z</time>
      </trkpt>
      <trkpt lat="49.62962" lon="0.17663">
        <ele>115.2</ele>
        <time>2020-06-17T18:34:31Z</time>
      </trkpt>
      <trkpt lat="49.62967" lon="0.17669">
        <ele>115.2</ele>
        <time>2020-06-17T18:34:32Z</time>
      </trkpt>
      <trkpt lat="49.62971" lon="0.17676">
        <ele>115.3</ele>
        <time>2020-06-17T18:34:33Z</time>
      </trkpt>
      <trkpt lat="49.62975" lon="0.17682">
        <ele>115.3</ele>
        <time>2020-06-17T18:34:34Z</time>
      </trkpt>
      <trkpt lat="49.62979" lon="0.17687">
        <ele>115.4</ele>
        <time>2020-06-17T18:34:35Z</time>
      </trkpt>
      <trkpt lat="49.62982" lon="0.17693">
        <ele>115.5</ele>
        <time>2020-06-17T18:34:36Z</time>
      </trkpt>
      <trkpt lat="49.62987" lon="0.17699">
        <ele>115.6</ele>
        <time>2020-06-17T18:34:37Z</time>
      </trkpt>
      <trkpt lat="49.62991" lon="0.17704">
        <ele>115.8</ele>
        <time>2020-06-17T18:34:38Z</time>
      </trkpt>
      <trkpt lat="49.62995" lon="0.1771">
        <ele>115.8</ele>
        <time>2020-06-17T18:34:39Z</time>
      </trkpt>
      <trkpt lat="49.62999" lon="0.17716">
        <ele>115.8</ele>
        <time>2020-06-17T18:34:40Z</time>
      </trkpt>
      <trkpt lat="49.63003" lon="0.17722">
        <ele>115.8</ele>
        <time>2020-06-17T18:34:41Z</time>
      </trkpt>
      <trkpt lat="49.63007" lon="0.17728">
        <ele>115.9</ele>
        <time>2020-06-17T18:34:42Z</time>
      </trkpt>
      <trkpt lat="49.63011" lon="0.17735">
        <ele>116</ele>
        <time>2020-06-17T18:34:43Z</time>
      </trkpt>
      <trkpt lat="49.63015" lon="0.17742">
        <ele>116</ele>
        <time>2020-06-17T18:34:44Z</time>
      </trkpt>
      <trkpt lat="49.63019" lon="0.17747">
        <ele>116.1</ele>
        <time>2020-06-17T18:34:45Z</time>
      </trkpt>
      <trkpt lat="49.63023" lon="0.17753">
        <ele>116.1</ele>
        <time>2020-06-17T18:34:46Z</time>
      </trkpt>
      <trkpt lat="49.63027" lon="0.17759">
        <ele>116.1</ele>
        <time>2020-06-17T18:34:47Z</time>
      </trkpt>
      <trkpt lat="49.63032" lon="0.17766">
        <ele>116.2</ele>
        <time>2020-06-17T18:34:48Z</time>
      </trkpt>
      <trkpt lat="49.63035" lon="0.17772">
        <ele>116.2</ele>
        <time>2020-06-17T18:34:49Z</time>
      </trkpt>
      <trkpt lat="49.6304" lon="0.17777">
        <ele>116.2</ele>
        <time>2020-06-17T18:34:50Z</time>
      </trkpt>
      <trkpt lat="49.63044" lon="0.17783">
        <ele>116.3</ele>
        <time>2020-06-17T18:34:51Z</time>
      </trkpt>
      <trkpt lat="49.63047" lon="0.17788">
        <ele>116.3</ele>
        <time>2020-06-17T18:34:52Z</time>
      </trkpt>
      <trkpt lat="49.63051" lon="0.17792">
        <ele>116.4</ele>
        <time>2020-06-17T18:34:53Z</time>
      </trkpt>
      <trkpt lat="49.63055" lon="0.17798">
        <ele>116.4</ele>
        <time>2020-06-17T18:34:54Z</time>
      </trkpt>
      <trkpt lat="49.6306" lon="0.17804">
        <ele>116.5</ele>
        <time>2020-06-17T18:34:55Z</time>
      </trkpt>
      <trkpt lat="49.63064" lon="0.17809">
        <ele>116.5</ele>
        <time>2020-06-17T18:34:56Z</time>
      </trkpt>
      <trkpt lat="49.63069" lon="0.17815">
        <ele>116.6</ele>
        <time>2020-06-17T18:34:57Z</time>
      </trkpt>
      <trkpt lat="49.63073" lon="0.17822">
        <ele>116.6</ele>
        <time>2020-06-17T18:34:58Z</time>
      </trkpt>
      <trkpt lat="49.63077" lon="0.17828">
        <ele>116.7</ele>
        <time>2020-06-17T18:34:59Z</time>
      </trkpt>
      <trkpt lat="49.63082" lon="0.17834">
        <ele>116.7</ele>
        <time>2020-06-17T18:35:00Z</time>
      </trkpt>
      <trkpt lat="49.63086" lon="0.1784">
        <ele>116.7</ele>
        <time>2020-06-17T18:35:01Z</time>
      </trkpt>
      <trkpt lat="49.63089" lon="0.17846">
        <ele>116.7</ele>
        <time>2020-06-17T18:35:02Z</time>
      </trkpt>
      <trkpt lat="49.63093" lon="0.17852">
        <ele>116.7</ele>
        <time>2020-06-17T18:35:03Z</time>
      </trkpt>
      <trkpt lat="49.63097" lon="0.17859">
        <ele>116.7</ele>
        <time>2020-06-17T18:35:04Z</time>
      </trkpt>
      <trkpt lat="49.631" lon="0.17865">
        <ele>116.7</ele>
        <time>2020-06-17T18:35:05Z</time>
      </trkpt>
      <trkpt lat="49.63104" lon="0.17871">
        <ele>116.7</ele>
        <time>2020-06-17T18:35:06Z</time>
      </trkpt>
      <trkpt lat="49.63108" lon="0.17878">
        <ele>116.6</ele>
        <time>2020-06-17T18:35:07Z</time>
      </trkpt>
      <trkpt lat="49.63112" lon="0.17884">
        <ele>116.6</ele>
        <time>2020-06-17T18:35:08Z</time>
      </trkpt>
      <trkpt lat="49.63117" lon="0.1789">
        <ele>116.6</ele>
        <time>2020-06-17T18:35:09Z</time>
      </trkpt>
      <trkpt lat="49.63121" lon="0.17896">
        <ele>116.5</ele>
        <time>2020-06-17T18:35:10Z</time>
      </trkpt>
      <trkpt lat="49.63125" lon="0.17903">
        <ele>116.5</ele>
        <time>2020-06-17T18:35:11Z</time>
      </trkpt>
      <trkpt lat="49.6313" lon="0.17909">
        <ele>116.4</ele>
        <time>2020-06-17T18:35:12Z</time>
      </trkpt>
      <trkpt lat="49.63134" lon="0.17915">
        <ele>116.4</ele>
        <time>2020-06-17T18:35:13Z</time>
      </trkpt>
      <trkpt lat="49.63138" lon="0.17921">
        <ele>116.3</ele>
        <time>2020-06-17T18:35:14Z</time>
      </trkpt>
      <trkpt lat="49.63142" lon="0.17928">
        <ele>116.3</ele>
        <time>2020-06-17T18:35:15Z</time>
      </trkpt>
      <trkpt lat="49.63147" lon="0.17934">
        <ele>116.3</ele>
        <time>2020-06-17T18:35:16Z</time>
      </trkpt>
      <trkpt lat="49.63151" lon="0.1794">
        <ele>116.3</ele>
        <time>2020-06-17T18:35:17Z</time>
      </trkpt>
      <trkpt lat="49.63155" lon="0.17947">
        <ele>116.3</ele>
        <time>2020-06-17T18:35:18Z</time>
      </trkpt>
      <trkpt lat="49.6316" lon="0.17953">
        <ele>116.3</ele>
        <time>2020-06-17T18:35:19Z</time>
      </trkpt>
      <trkpt lat="49.63164" lon="0.17959">
        <ele>116.4</ele>
        <time>2020-06-17T18:35:20Z</time>
      </trkpt>
      <trkpt lat="49.63169" lon="0.17966">
        <ele>116.2</ele>
        <time>2020-06-17T18:35:21Z</time>
      </trkpt>
      <trkpt lat="49.63173" lon="0.17973">
        <ele>116.1</ele>
        <time>2020-06-17T18:35:22Z</time>
      </trkpt>
      <trkpt lat="49.63178" lon="0.1798">
        <ele>116</ele>
        <time>2020-06-17T18:35:23Z</time>
      </trkpt>
      <trkpt lat="49.63183" lon="0.17987">
        <ele>115.9</ele>
        <time>2020-06-17T18:35:24Z</time>
      </trkpt>
      <trkpt lat="49.63187" lon="0.17994">
        <ele>115.8</ele>
        <time>2020-06-17T18:35:25Z</time>
      </trkpt>
      <trkpt lat="49.63192" lon="0.18001">
        <ele>115.7</ele>
        <time>2020-06-17T18:35:26Z</time>
      </trkpt>
      <trkpt lat="49.63196" lon="0.18007">
        <ele>115.7</ele>
        <time>2020-06-17T18:35:27Z</time>
      </trkpt>
      <trkpt lat="49.63201" lon="0.18015">
        <ele>115.6</ele>
        <time>2020-06-17T18:35:28Z</time>
      </trkpt>
      <trkpt lat="49.63205" lon="0.18022">
        <ele>115.5</ele>
        <time>2020-06-17T18:35:29Z</time>
      </trkpt>
      <trkpt lat="49.63209" lon="0.18029">
        <ele>115.4</ele>
        <time>2020-06-17T18:35:30Z</time>
      </trkpt>
      <trkpt lat="49.63213" lon="0.18035">
        <ele>115.4</ele>
        <time>2020-06-17T18:35:31Z</time>
      </trkpt>
      <trkpt lat="49.63218" lon="0.18042">
        <ele>115.3</ele>
        <time>2020-06-17T18:35:32Z</time>
      </trkpt>
      <trkpt lat="49.63223" lon="0.18049">
        <ele>115.2</ele>
        <time>2020-06-17T18:35:33Z</time>
      </trkpt>
      <trkpt lat="49.63228" lon="0.18056">
        <ele>115.2</ele>
        <time>2020-06-17T18:35:34Z</time>
      </trkpt>
      <trkpt lat="49.63232" lon="0.18062">
        <ele>115.1</ele>
        <time>2020-06-17T18:35:35Z</time>
      </trkpt>
      <trkpt lat="49.63237" lon="0.18069">
        <ele>115.1</ele>
        <time>2020-06-17T18:35:36Z</time>
      </trkpt>
      <trkpt lat="49.63242" lon="0.18076">
        <ele>115.1</ele>
        <time>2020-06-17T18:35:37Z</time>
      </trkpt>
      <trkpt lat="49.63246" lon="0.18082">
        <ele>115.1</ele>
        <time>2020-06-17T18:35:38Z</time>
      </trkpt>
      <trkpt lat="49.63251" lon="0.18089">
        <ele>115.1</ele>
        <time>2020-06-17T18:35:39Z</time>
      </trkpt>
      <trkpt lat="49.63256" lon="0.18095">
        <ele>115.1</ele>
        <time>2020-06-17T18:35:40Z</time>
      </trkpt>
      <trkpt lat="49.6326" lon="0.18101">
        <ele>115.2</ele>
        <time>2020-06-17T18:35:41Z</time>
      </trkpt>
      <trkpt lat="49.63264" lon="0.18107">
        <ele>115.2</ele>
        <time>2020-06-17T18:35:42Z</time>
      </trkpt>
      <trkpt lat="49.63269" lon="0.18113">
        <ele>115.2</ele>
        <time>2020-06-17T18:35:43Z</time>
      </trkpt>
      <trkpt lat="49.63272" lon="0.18119">
        <ele>115.3</ele>
        <time>2020-06-17T18:35:44Z</time>
      </trkpt>
      <trkpt lat="49.63277" lon="0.18124">
        <ele>115.3</ele>
        <time>2020-06-17T18:35:45Z</time>
      </trkpt>
      <trkpt lat="49.6328" lon="0.1813">
        <ele>115.4</ele>
        <time>2020-06-17T18:35:46Z</time>
      </trkpt>
      <trkpt lat="49.63284" lon="0.18136">
        <ele>115.5</ele>
        <time>2020-06-17T18:35:47Z</time>
      </trkpt>
      <trkpt lat="49.63288" lon="0.18142">
        <ele>115.5</ele>
        <time>2020-06-17T18:35:48Z</time>
      </trkpt>
      <trkpt lat="49.63292" lon="0.18148">
        <ele>115.6</ele>
        <time>2020-06-17T18:35:49Z</time>
      </trkpt>
      <trkpt lat="49.63295" lon="0.18154">
        <ele>115.7</ele>
        <time>2020-06-17T18:35:50Z</time>
      </trkpt>
      <trkpt lat="49.633" lon="0.1816">
        <ele>115.8</ele>
        <time>2020-06-17T18:35:51Z</time>
      </trkpt>
      <trkpt lat="49.63304" lon="0.18166">
        <ele>115.9</ele>
        <time>2020-06-17T18:35:52Z</time>
      </trkpt>
      <trkpt lat="49.63307" lon="0.18172">
        <ele>116</ele>
        <time>2020-06-17T18:35:53Z</time>
      </trkpt>
      <trkpt lat="49.63311" lon="0.18178">
        <ele>116.2</ele>
        <time>2020-06-17T18:35:54Z</time>
      </trkpt>
      <trkpt lat="49.63315" lon="0.18184">
        <ele>116.3</ele>
        <time>2020-06-17T18:35:55Z</time>
      </trkpt>
      <trkpt lat="49.63319" lon="0.1819">
        <ele>116.5</ele>
        <time>2020-06-17T18:35:56Z</time>
      </trkpt>
      <trkpt lat="49.63322" lon="0.18195">
        <ele>116.6</ele>
        <time>2020-06-17T18:35:57Z</time>
      </trkpt>
      <trkpt lat="49.63326" lon="0.18199">
        <ele>116.8</ele>
        <time>2020-06-17T18:35:58Z</time>
      </trkpt>
      <trkpt lat="49.6333" lon="0.18205">
        <ele>117</ele>
        <time>2020-06-17T18:35:59Z</time>
      </trkpt>
      <trkpt lat="49.63334" lon="0.1821">
        <ele>117.1</ele>
        <time>2020-06-17T18:36:00Z</time>
      </trkpt>
      <trkpt lat="49.63337" lon="0.18215">
        <ele>117.3</ele>
        <time>2020-06-17T18:36:01Z</time>
      </trkpt>
      <trkpt lat="49.63341" lon="0.18221">
        <ele>117.5</ele>
        <time>2020-06-17T18:36:02Z</time>
      </trkpt>
      <trkpt lat="49.63346" lon="0.18228">
        <ele>117.8</ele>
        <time>2020-06-17T18:36:03Z</time>
      </trkpt>
      <trkpt lat="49.63349" lon="0.18233">
        <ele>117.9</ele>
        <time>2020-06-17T18:36:04Z</time>
      </trkpt>
      <trkpt lat="49.63353" lon="0.18238">
        <ele>118.1</ele>
        <time>2020-06-17T18:36:05Z</time>
      </trkpt>
      <trkpt lat="49.63358" lon="0.18246">
        <ele>118.4</ele>
        <time>2020-06-17T18:36:06Z</time>
      </trkpt>
      <trkpt lat="49.63361" lon="0.18251">
        <ele>118.6</ele>
        <time>2020-06-17T18:36:07Z</time>
      </trkpt>
      <trkpt lat="49.63364" lon="0.18255">
        <ele>118.7</ele>
        <time>2020-06-17T18:36:08Z</time>
      </trkpt>
      <trkpt lat="49.63368" lon="0.1826">
        <ele>118.9</ele>
        <time>2020-06-17T18:36:09Z</time>
      </trkpt>
      <trkpt lat="49.63371" lon="0.18265">
        <ele>119.1</ele>
        <time>2020-06-17T18:36:10Z</time>
      </trkpt>
      <trkpt lat="49.63375" lon="0.1827">
        <ele>119.4</ele>
        <time>2020-06-17T18:36:11Z</time>
      </trkpt>
      <trkpt lat="49.63379" lon="0.18275">
        <ele>119.6</ele>
        <time>2020-06-17T18:36:12Z</time>
      </trkpt>
      <trkpt lat="49.63382" lon="0.18279">
        <ele>119.8</ele>
        <time>2020-06-17T18:36:13Z</time>
      </trkpt>
      <trkpt lat="49.63385" lon="0.18283">
        <ele>120</ele>
        <time>2020-06-17T18:36:14Z</time>
      </trkpt>
      <trkpt lat="49.63388" lon="0.18288">
        <ele>120.1</ele>
        <time>2020-06-17T18:36:15Z</time>
      </trkpt>
      <trkpt lat="49.63391" lon="0.18293">
        <ele>120.3</ele>
        <time>2020-06-17T18:36:16Z</time>
      </trkpt>
      <trkpt lat="49.63394" lon="0.18299">
        <ele>120.6</ele>
        <time>2020-06-17T18:36:17Z</time>
      </trkpt>
      <trkpt lat="49.63398" lon="0.18306">
        <ele>120.8</ele>
        <time>2020-06-17T18:36:18Z</time>
      </trkpt>
      <trkpt lat="49.63402" lon="0.18311">
        <ele>121.1</ele>
        <time>2020-06-17T18:36:19Z</time>
      </trkpt>
      <trkpt lat="49.63406" lon="0.18316">
        <ele>121.3</ele>
        <time>2020-06-17T18:36:20Z</time>
      </trkpt>
      <trkpt lat="49.6341" lon="0.18321">
        <ele>121.5</ele>
        <time>2020-06-17T18:36:21Z</time>
      </trkpt>
      <trkpt lat="49.63413" lon="0.18326">
        <ele>121.7</ele>
        <time>2020-06-17T18:36:22Z</time>
      </trkpt>
      <trkpt lat="49.63416" lon="0.18331">
        <ele>121.9</ele>
        <time>2020-06-17T18:36:23Z</time>
      </trkpt>
      <trkpt lat="49.6342" lon="0.18336">
        <ele>122.1</ele>
        <time>2020-06-17T18:36:24Z</time>
      </trkpt>
      <trkpt lat="49.63423" lon="0.18341">
        <ele>122.2</ele>
        <time>2020-06-17T18:36:25Z</time>
      </trkpt>
      <trkpt lat="49.63427" lon="0.18346">
        <ele>122.5</ele>
        <time>2020-06-17T18:36:26Z</time>
      </trkpt>
      <trkpt lat="49.63431" lon="0.18351">
        <ele>122.7</ele>
        <time>2020-06-17T18:36:27Z</time>
      </trkpt>
      <trkpt lat="49.63435" lon="0.18356">
        <ele>122.9</ele>
        <time>2020-06-17T18:36:28Z</time>
      </trkpt>
      <trkpt lat="49.63438" lon="0.18361">
        <ele>123.1</ele>
        <time>2020-06-17T18:36:29Z</time>
      </trkpt>
      <trkpt lat="49.63442" lon="0.18364">
        <ele>123.3</ele>
        <time>2020-06-17T18:36:30Z</time>
      </trkpt>
      <trkpt lat="49.63446" lon="0.18369">
        <ele>123.6</ele>
        <time>2020-06-17T18:36:31Z</time>
      </trkpt>
      <trkpt lat="49.63449" lon="0.18373">
        <ele>123.8</ele>
        <time>2020-06-17T18:36:32Z</time>
      </trkpt>
      <trkpt lat="49.63453" lon="0.18378">
        <ele>124.1</ele>
        <time>2020-06-17T18:36:33Z</time>
      </trkpt>
      <trkpt lat="49.63457" lon="0.18384">
        <ele>124.5</ele>
        <time>2020-06-17T18:36:34Z</time>
      </trkpt>
      <trkpt lat="49.63461" lon="0.18387">
        <ele>124.7</ele>
        <time>2020-06-17T18:36:35Z</time>
      </trkpt>
      <trkpt lat="49.63464" lon="0.18392">
        <ele>125</ele>
        <time>2020-06-17T18:36:36Z</time>
      </trkpt>
      <trkpt lat="49.63468" lon="0.18396">
        <ele>125.3</ele>
        <time>2020-06-17T18:36:37Z</time>
      </trkpt>
      <trkpt lat="49.63471" lon="0.18401">
        <ele>125.4</ele>
        <time>2020-06-17T18:36:38Z</time>
      </trkpt>
      <trkpt lat="49.63475" lon="0.18405">
        <ele>125.5</ele>
        <time>2020-06-17T18:36:39Z</time>
      </trkpt>
      <trkpt lat="49.63479" lon="0.18409">
        <ele>125.7</ele>
        <time>2020-06-17T18:36:40Z</time>
      </trkpt>
      <trkpt lat="49.63483" lon="0.18412">
        <ele>125.8</ele>
        <time>2020-06-17T18:36:41Z</time>
      </trkpt>
      <trkpt lat="49.63487" lon="0.18416">
        <ele>126</ele>
        <time>2020-06-17T18:36:42Z</time>
      </trkpt>
      <trkpt lat="49.63491" lon="0.1842">
        <ele>126.1</ele>
        <time>2020-06-17T18:36:43Z</time>
      </trkpt>
      <trkpt lat="49.63495" lon="0.18424">
        <ele>126.3</ele>
        <time>2020-06-17T18:36:44Z</time>
      </trkpt>
      <trkpt lat="49.63499" lon="0.18428">
        <ele>126.5</ele>
        <time>2020-06-17T18:36:45Z</time>
      </trkpt>
      <trkpt lat="49.63504" lon="0.18432">
        <ele>126.6</ele>
        <time>2020-06-17T18:36:46Z</time>
      </trkpt>
      <trkpt lat="49.63508" lon="0.18436">
        <ele>126.8</ele>
        <time>2020-06-17T18:36:47Z</time>
      </trkpt>
      <trkpt lat="49.63512" lon="0.18439">
        <ele>126.9</ele>
        <time>2020-06-17T18:36:48Z</time>
      </trkpt>
      <trkpt lat="49.63516" lon="0.18443">
        <ele>127.1</ele>
        <time>2020-06-17T18:36:49Z</time>
      </trkpt>
      <trkpt lat="49.6352" lon="0.18446">
        <ele>127.2</ele>
        <time>2020-06-17T18:36:50Z</time>
      </trkpt>
      <trkpt lat="49.63524" lon="0.18449">
        <ele>127.3</ele>
        <time>2020-06-17T18:36:51Z</time>
      </trkpt>
      <trkpt lat="49.63528" lon="0.18452">
        <ele>127.5</ele>
        <time>2020-06-17T18:36:52Z</time>
      </trkpt>
      <trkpt lat="49.63532" lon="0.18456">
        <ele>127.6</ele>
        <time>2020-06-17T18:36:53Z</time>
      </trkpt>
      <trkpt lat="49.63536" lon="0.18459">
        <ele>127.8</ele>
        <time>2020-06-17T18:36:54Z</time>
      </trkpt>
      <trkpt lat="49.63541" lon="0.18463">
        <ele>128</ele>
        <time>2020-06-17T18:36:55Z</time>
      </trkpt>
      <trkpt lat="49.63546" lon="0.18466">
        <ele>128.1</ele>
        <time>2020-06-17T18:36:56Z</time>
      </trkpt>
      <trkpt lat="49.63551" lon="0.18469">
        <ele>128.3</ele>
        <time>2020-06-17T18:36:57Z</time>
      </trkpt>
      <trkpt lat="49.63556" lon="0.18472">
        <ele>128.4</ele>
        <time>2020-06-17T18:36:58Z</time>
      </trkpt>
      <trkpt lat="49.63561" lon="0.18475">
        <ele>128.6</ele>
        <time>2020-06-17T18:36:59Z</time>
      </trkpt>
      <trkpt lat="49.63566" lon="0.18478">
        <ele>128.7</ele>
        <time>2020-06-17T18:37:00Z</time>
      </trkpt>
      <trkpt lat="49.6357" lon="0.1848">
        <ele>128.8</ele>
        <time>2020-06-17T18:37:01Z</time>
      </trkpt>
      <trkpt lat="49.63575" lon="0.18482">
        <ele>128.9</ele>
        <time>2020-06-17T18:37:02Z</time>
      </trkpt>
      <trkpt lat="49.6358" lon="0.18485">
        <ele>129</ele>
        <time>2020-06-17T18:37:03Z</time>
      </trkpt>
      <trkpt lat="49.63585" lon="0.18487">
        <ele>129.1</ele>
        <time>2020-06-17T18:37:04Z</time>
      </trkpt>
      <trkpt lat="49.63591" lon="0.18489">
        <ele>129.1</ele>
        <time>2020-06-17T18:37:05Z</time>
      </trkpt>
      <trkpt lat="49.63597" lon="0.1849">
        <ele>129.2</ele>
        <time>2020-06-17T18:37:06Z</time>
      </trkpt>
      <trkpt lat="49.63603" lon="0.18492">
        <ele>129.3</ele>
        <time>2020-06-17T18:37:07Z</time>
      </trkpt>
      <trkpt lat="49.63608" lon="0.18494">
        <ele>129.4</ele>
        <time>2020-06-17T18:37:08Z</time>
      </trkpt>
      <trkpt lat="49.63613" lon="0.18496">
        <ele>129.4</ele>
        <time>2020-06-17T18:37:09Z</time>
      </trkpt>
      <trkpt lat="49.63618" lon="0.18499">
        <ele>129.4</ele>
        <time>2020-06-17T18:37:10Z</time>
      </trkpt>
      <trkpt lat="49.63622" lon="0.18502">
        <ele>129.5</ele>
        <time>2020-06-17T18:37:11Z</time>
      </trkpt>
      <trkpt lat="49.63627" lon="0.18504">
        <ele>129.5</ele>
        <time>2020-06-17T18:37:12Z</time>
      </trkpt>
      <trkpt lat="49.63631" lon="0.18505">
        <ele>129.5</ele>
        <time>2020-06-17T18:37:13Z</time>
      </trkpt>
      <trkpt lat="49.63636" lon="0.18508">
        <ele>129.6</ele>
        <time>2020-06-17T18:37:14Z</time>
      </trkpt>
      <trkpt lat="49.6364" lon="0.18511">
        <ele>129.6</ele>
        <time>2020-06-17T18:37:15Z</time>
      </trkpt>
      <trkpt lat="49.63646" lon="0.18513">
        <ele>129.6</ele>
        <time>2020-06-17T18:37:16Z</time>
      </trkpt>
      <trkpt lat="49.6365" lon="0.18516">
        <ele>129.6</ele>
        <time>2020-06-17T18:37:17Z</time>
      </trkpt>
      <trkpt lat="49.63655" lon="0.18518">
        <ele>129.6</ele>
        <time>2020-06-17T18:37:18Z</time>
      </trkpt>
      <trkpt lat="49.6366" lon="0.18521">
        <ele>129.6</ele>
        <time>2020-06-17T18:37:19Z</time>
      </trkpt>
      <trkpt lat="49.63664" lon="0.18523">
        <ele>129.7</ele>
        <time>2020-06-17T18:37:20Z</time>
      </trkpt>
      <trkpt lat="49.63669" lon="0.18525">
        <ele>129.7</ele>
        <time>2020-06-17T18:37:21Z</time>
      </trkpt>
      <trkpt lat="49.63674" lon="0.18527">
        <ele>129.7</ele>
        <time>2020-06-17T18:37:22Z</time>
      </trkpt>
      <trkpt lat="49.63678" lon="0.1853">
        <ele>129.8</ele>
        <time>2020-06-17T18:37:23Z</time>
      </trkpt>
      <trkpt lat="49.63683" lon="0.18533">
        <ele>129.8</ele>
        <time>2020-06-17T18:37:24Z</time>
      </trkpt>
      <trkpt lat="49.63687" lon="0.18536">
        <ele>129.8</ele>
        <time>2020-06-17T18:37:25Z</time>
      </trkpt>
      <trkpt lat="49.63692" lon="0.18539">
        <ele>129.8</ele>
        <time>2020-06-17T18:37:26Z</time>
      </trkpt>
      <trkpt lat="49.63697" lon="0.18542">
        <ele>129.8</ele>
        <time>2020-06-17T18:37:27Z</time>
      </trkpt>
      <trkpt lat="49.63701" lon="0.18544">
        <ele>129.8</ele>
        <time>2020-06-17T18:37:28Z</time>
      </trkpt>
      <trkpt lat="49.63706" lon="0.18545">
        <ele>129.8</ele>
        <time>2020-06-17T18:37:29Z</time>
      </trkpt>
      <trkpt lat="49.63711" lon="0.18549">
        <ele>129.9</ele>
        <time>2020-06-17T18:37:30Z</time>
      </trkpt>
      <trkpt lat="49.63715" lon="0.18551">
        <ele>129.9</ele>
        <time>2020-06-17T18:37:31Z</time>
      </trkpt>
      <trkpt lat="49.6372" lon="0.18553">
        <ele>129.9</ele>
        <time>2020-06-17T18:37:32Z</time>
      </trkpt>
      <trkpt lat="49.63725" lon="0.18557">
        <ele>129.9</ele>
        <time>2020-06-17T18:37:33Z</time>
      </trkpt>
      <trkpt lat="49.6373" lon="0.1856">
        <ele>130</ele>
        <time>2020-06-17T18:37:34Z</time>
      </trkpt>
      <trkpt lat="49.63736" lon="0.18562">
        <ele>130</ele>
        <time>2020-06-17T18:37:35Z</time>
      </trkpt>
      <trkpt lat="49.63741" lon="0.18565">
        <ele>130.1</ele>
        <time>2020-06-17T18:37:36Z</time>
      </trkpt>
      <trkpt lat="49.63747" lon="0.18567">
        <ele>130.1</ele>
        <time>2020-06-17T18:37:37Z</time>
      </trkpt>
      <trkpt lat="49.63752" lon="0.18571">
        <ele>130.2</ele>
        <time>2020-06-17T18:37:38Z</time>
      </trkpt>
      <trkpt lat="49.63757" lon="0.18575">
        <ele>130.2</ele>
        <time>2020-06-17T18:37:39Z</time>
      </trkpt>
      <trkpt lat="49.63762" lon="0.18578">
        <ele>130.3</ele>
        <time>2020-06-17T18:37:40Z</time>
      </trkpt>
      <trkpt lat="49.63767" lon="0.1858">
        <ele>130.3</ele>
        <time>2020-06-17T18:37:41Z</time>
      </trkpt>
      <trkpt lat="49.63772" lon="0.18583">
        <ele>130.3</ele>
        <time>2020-06-17T18:37:42Z</time>
      </trkpt>
      <trkpt lat="49.63777" lon="0.18585">
        <ele>130.4</ele>
        <time>2020-06-17T18:37:43Z</time>
      </trkpt>
      <trkpt lat="49.63782" lon="0.18588">
        <ele>130.4</ele>
        <time>2020-06-17T18:37:44Z</time>
      </trkpt>
      <trkpt lat="49.63787" lon="0.18591">
        <ele>130.5</ele>
        <time>2020-06-17T18:37:45Z</time>
      </trkpt>
      <trkpt lat="49.63792" lon="0.18593">
        <ele>130.5</ele>
        <time>2020-06-17T18:37:46Z</time>
      </trkpt>
      <trkpt lat="49.63797" lon="0.18594">
        <ele>130.6</ele>
        <time>2020-06-17T18:37:47Z</time>
      </trkpt>
      <trkpt lat="49.63801" lon="0.18596">
        <ele>130.6</ele>
        <time>2020-06-17T18:37:48Z</time>
      </trkpt>
      <trkpt lat="49.63806" lon="0.18598">
        <ele>130.7</ele>
        <time>2020-06-17T18:37:49Z</time>
      </trkpt>
      <trkpt lat="49.63809" lon="0.18601">
        <ele>130.7</ele>
        <time>2020-06-17T18:37:50Z</time>
      </trkpt>
      <trkpt lat="49.63812" lon="0.18604">
        <ele>130.7</ele>
        <time>2020-06-17T18:37:51Z</time>
      </trkpt>
      <trkpt lat="49.63815" lon="0.18606">
        <ele>130.8</ele>
        <time>2020-06-17T18:37:52Z</time>
      </trkpt>
      <trkpt lat="49.63815" lon="0.18606">
        <ele>130.8</ele>
        <time>2020-06-17T18:37:53Z</time>
      </trkpt>
      <trkpt lat="49.63816" lon="0.18605">
        <ele>130.8</ele>
        <time>2020-06-17T18:37:54Z</time>
      </trkpt>
      <trkpt lat="49.63816" lon="0.18604">
        <ele>130.8</ele>
        <time>2020-06-17T18:37:55Z</time>
      </trkpt>
      <trkpt lat="49.63815" lon="0.18604">
        <ele>130.8</ele>
        <time>2020-06-17T18:37:56Z</time>
      </trkpt>
      <trkpt lat="49.63816" lon="0.18604">
        <ele>130.8</ele>
        <time>2020-06-17T18:37:57Z</time>
      </trkpt>
      <trkpt lat="49.63816" lon="0.18605">
        <ele>130.8</ele>
        <time>2020-06-17T18:37:58Z</time>
      </trkpt>
      <trkpt lat="49.63816" lon="0.18605">
        <ele>130.8</ele>
        <time>2020-06-17T18:37:59Z</time>
      </trkpt>
      <trkpt lat="49.63817" lon="0.18605">
        <ele>130.8</ele>
        <time>2020-06-17T18:38:00Z</time>
      </trkpt>
      <trkpt lat="49.63816" lon="0.18605">
        <ele>130.8</ele>
        <time>2020-06-17T18:38:01Z</time>
      </trkpt>
      <trkpt lat="49.63816" lon="0.18605">
        <ele>130.8</ele>
        <time>2020-06-17T18:38:02Z</time>
      </trkpt>
      <trkpt lat="49.63816" lon="0.18604">
        <ele>130.8</ele>
        <time>2020-06-17T18:38:03Z</time>
      </trkpt>
      <trkpt lat="49.63816" lon="0.18605">
        <ele>130.8</ele>
        <time>2020-06-17T18:38:04Z</time>
      </trkpt>
      <trkpt lat="49.63816" lon="0.18605">
        <ele>130.8</ele>
        <time>2020-06-17T18:38:05Z</time>
      </trkpt>
      <trkpt lat="49.63816" lon="0.18605">
        <ele>130.8</ele>
        <time>2020-06-17T18:38:06Z</time>
      </trkpt>
      <trkpt lat="49.63816" lon="0.18605">
        <ele>130.8</ele>
        <time>2020-06-17T18:38:07Z</time>
      </trkpt>
      <trkpt lat="49.63816" lon="0.18605">
        <ele>130.8</ele>
        <time>2020-06-17T18:38:08Z</time>
      </trkpt>
      <trkpt lat="49.63816" lon="0.18606">
        <ele>130.9</ele>
        <time>2020-06-17T18:38:09Z</time>
      </trkpt>
      <trkpt lat="49.63816" lon="0.18606">
        <ele>130.9</ele>
        <time>2020-06-17T18:38:10Z</time>
      </trkpt>
      <trkpt lat="49.63819" lon="0.18606">
        <ele>130.9</ele>
        <time>2020-06-17T18:38:41Z</time>
      </trkpt>
      <trkpt lat="49.6382" lon="0.18605">
        <ele>130.9</ele>
        <time>2020-06-17T18:38:42Z</time>
      </trkpt>
      <trkpt lat="49.63822" lon="0.18605">
        <ele>130.9</ele>
        <time>2020-06-17T18:38:43Z</time>
      </trkpt>
      <trkpt lat="49.63825" lon="0.18606">
        <ele>130.9</ele>
        <time>2020-06-17T18:38:44Z</time>
      </trkpt>
      <trkpt lat="49.63826" lon="0.18606">
        <ele>131</ele>
        <time>2020-06-17T18:38:45Z</time>
      </trkpt>
      <trkpt lat="49.63829" lon="0.18608">
        <ele>131</ele>
        <time>2020-06-17T18:38:46Z</time>
      </trkpt>
      <trkpt lat="49.63831" lon="0.18609">
        <ele>131</ele>
        <time>2020-06-17T18:38:47Z</time>
      </trkpt>
      <trkpt lat="49.63834" lon="0.1861">
        <ele>131</ele>
        <time>2020-06-17T18:38:48Z</time>
      </trkpt>
      <trkpt lat="49.63837" lon="0.18612">
        <ele>131.1</ele>
        <time>2020-06-17T18:38:49Z</time>
      </trkpt>
      <trkpt lat="49.63839" lon="0.18615">
        <ele>131.1</ele>
        <time>2020-06-17T18:38:50Z</time>
      </trkpt>
      <trkpt lat="49.63843" lon="0.18617">
        <ele>131.1</ele>
        <time>2020-06-17T18:38:51Z</time>
      </trkpt>
      <trkpt lat="49.63847" lon="0.1862">
        <ele>131.2</ele>
        <time>2020-06-17T18:38:52Z</time>
      </trkpt>
      <trkpt lat="49.6385" lon="0.18622">
        <ele>131.3</ele>
        <time>2020-06-17T18:38:53Z</time>
      </trkpt>
      <trkpt lat="49.63854" lon="0.18624">
        <ele>131.3</ele>
        <time>2020-06-17T18:38:54Z</time>
      </trkpt>
      <trkpt lat="49.63857" lon="0.18628">
        <ele>131.4</ele>
        <time>2020-06-17T18:38:55Z</time>
      </trkpt>
      <trkpt lat="49.6386" lon="0.18631">
        <ele>131.4</ele>
        <time>2020-06-17T18:38:56Z</time>
      </trkpt>
      <trkpt lat="49.63863" lon="0.18635">
        <ele>131.5</ele>
        <time>2020-06-17T18:38:57Z</time>
      </trkpt>
      <trkpt lat="49.63865" lon="0.18639">
        <ele>131.5</ele>
        <time>2020-06-17T18:38:58Z</time>
      </trkpt>
      <trkpt lat="49.63867" lon="0.18644">
        <ele>131.5</ele>
        <time>2020-06-17T18:38:59Z</time>
      </trkpt>
      <trkpt lat="49.63868" lon="0.18646">
        <ele>131.5</ele>
        <time>2020-06-17T18:39:00Z</time>
      </trkpt>
      <trkpt lat="49.63871" lon="0.18649">
        <ele>131.5</ele>
        <time>2020-06-17T18:39:01Z</time>
      </trkpt>
      <trkpt lat="49.63874" lon="0.18652">
        <ele>131.5</ele>
        <time>2020-06-17T18:39:02Z</time>
      </trkpt>
      <trkpt lat="49.63877" lon="0.18653">
        <ele>131.5</ele>
        <time>2020-06-17T18:39:03Z</time>
      </trkpt>
      <trkpt lat="49.63882" lon="0.18653">
        <ele>131.5</ele>
        <time>2020-06-17T18:39:04Z</time>
      </trkpt>
      <trkpt lat="49.63885" lon="0.18653">
        <ele>131.5</ele>
        <time>2020-06-17T18:39:05Z</time>
      </trkpt>
      <trkpt lat="49.63889" lon="0.18652">
        <ele>131.5</ele>
        <time>2020-06-17T18:39:06Z</time>
      </trkpt>
      <trkpt lat="49.63894" lon="0.1865">
        <ele>131.5</ele>
        <time>2020-06-17T18:39:07Z</time>
      </trkpt>
      <trkpt lat="49.63898" lon="0.18649">
        <ele>131.7</ele>
        <time>2020-06-17T18:39:08Z</time>
      </trkpt>
      <trkpt lat="49.63902" lon="0.18649">
        <ele>131.8</ele>
        <time>2020-06-17T18:39:09Z</time>
      </trkpt>
      <trkpt lat="49.63907" lon="0.18651">
        <ele>131.8</ele>
        <time>2020-06-17T18:39:10Z</time>
      </trkpt>
      <trkpt lat="49.63912" lon="0.18654">
        <ele>131.8</ele>
        <time>2020-06-17T18:39:11Z</time>
      </trkpt>
      <trkpt lat="49.63917" lon="0.18656">
        <ele>131.7</ele>
        <time>2020-06-17T18:39:12Z</time>
      </trkpt>
      <trkpt lat="49.63921" lon="0.18658">
        <ele>131.7</ele>
        <time>2020-06-17T18:39:13Z</time>
      </trkpt>
      <trkpt lat="49.63926" lon="0.18659">
        <ele>131.7</ele>
        <time>2020-06-17T18:39:14Z</time>
      </trkpt>
      <trkpt lat="49.6393" lon="0.18661">
        <ele>131.7</ele>
        <time>2020-06-17T18:39:15Z</time>
      </trkpt>
      <trkpt lat="49.63935" lon="0.18663">
        <ele>131.8</ele>
        <time>2020-06-17T18:39:16Z</time>
      </trkpt>
      <trkpt lat="49.6394" lon="0.18666">
        <ele>131.8</ele>
        <time>2020-06-17T18:39:17Z</time>
      </trkpt>
      <trkpt lat="49.63944" lon="0.18668">
        <ele>131.8</ele>
        <time>2020-06-17T18:39:18Z</time>
      </trkpt>
      <trkpt lat="49.63949" lon="0.18671">
        <ele>131.8</ele>
        <time>2020-06-17T18:39:19Z</time>
      </trkpt>
      <trkpt lat="49.63955" lon="0.18673">
        <ele>131.8</ele>
        <time>2020-06-17T18:39:20Z</time>
      </trkpt>
      <trkpt lat="49.6396" lon="0.18675">
        <ele>131.9</ele>
        <time>2020-06-17T18:39:21Z</time>
      </trkpt>
      <trkpt lat="49.63965" lon="0.18677">
        <ele>131.9</ele>
        <time>2020-06-17T18:39:22Z</time>
      </trkpt>
      <trkpt lat="49.6397" lon="0.18679">
        <ele>131.9</ele>
        <time>2020-06-17T18:39:23Z</time>
      </trkpt>
      <trkpt lat="49.63975" lon="0.18681">
        <ele>131.9</ele>
        <time>2020-06-17T18:39:24Z</time>
      </trkpt>
      <trkpt lat="49.6398" lon="0.18683">
        <ele>132</ele>
        <time>2020-06-17T18:39:25Z</time>
      </trkpt>
      <trkpt lat="49.63986" lon="0.18686">
        <ele>132</ele>
        <time>2020-06-17T18:39:26Z</time>
      </trkpt>
      <trkpt lat="49.63991" lon="0.18689">
        <ele>132</ele>
        <time>2020-06-17T18:39:27Z</time>
      </trkpt>
      <trkpt lat="49.63996" lon="0.18693">
        <ele>132</ele>
        <time>2020-06-17T18:39:28Z</time>
      </trkpt>
      <trkpt lat="49.64001" lon="0.18695">
        <ele>132</ele>
        <time>2020-06-17T18:39:29Z</time>
      </trkpt>
      <trkpt lat="49.64006" lon="0.18696">
        <ele>132</ele>
        <time>2020-06-17T18:39:30Z</time>
      </trkpt>
      <trkpt lat="49.64011" lon="0.18698">
        <ele>132</ele>
        <time>2020-06-17T18:39:31Z</time>
      </trkpt>
      <trkpt lat="49.64016" lon="0.187">
        <ele>132</ele>
        <time>2020-06-17T18:39:32Z</time>
      </trkpt>
      <trkpt lat="49.64021" lon="0.18701">
        <ele>132</ele>
        <time>2020-06-17T18:39:33Z</time>
      </trkpt>
      <trkpt lat="49.64026" lon="0.18703">
        <ele>132</ele>
        <time>2020-06-17T18:39:34Z</time>
      </trkpt>
      <trkpt lat="49.64031" lon="0.18705">
        <ele>132</ele>
        <time>2020-06-17T18:39:35Z</time>
      </trkpt>
      <trkpt lat="49.64035" lon="0.18707">
        <ele>132</ele>
        <time>2020-06-17T18:39:36Z</time>
      </trkpt>
      <trkpt lat="49.6404" lon="0.18709">
        <ele>132</ele>
        <time>2020-06-17T18:39:37Z</time>
      </trkpt>
      <trkpt lat="49.64045" lon="0.18712">
        <ele>132</ele>
        <time>2020-06-17T18:39:38Z</time>
      </trkpt>
      <trkpt lat="49.6405" lon="0.18715">
        <ele>132</ele>
        <time>2020-06-17T18:39:39Z</time>
      </trkpt>
      <trkpt lat="49.64056" lon="0.18718">
        <ele>132</ele>
        <time>2020-06-17T18:39:40Z</time>
      </trkpt>
      <trkpt lat="49.64061" lon="0.1872">
        <ele>132</ele>
        <time>2020-06-17T18:39:41Z</time>
      </trkpt>
      <trkpt lat="49.64066" lon="0.18723">
        <ele>132</ele>
        <time>2020-06-17T18:39:42Z</time>
      </trkpt>
      <trkpt lat="49.64072" lon="0.18726">
        <ele>132</ele>
        <time>2020-06-17T18:39:43Z</time>
      </trkpt>
      <trkpt lat="49.64077" lon="0.18729">
        <ele>131.9</ele>
        <time>2020-06-17T18:39:44Z</time>
      </trkpt>
      <trkpt lat="49.64082" lon="0.18732">
        <ele>131.9</ele>
        <time>2020-06-17T18:39:45Z</time>
      </trkpt>
      <trkpt lat="49.64087" lon="0.18734">
        <ele>131.9</ele>
        <time>2020-06-17T18:39:46Z</time>
      </trkpt>
      <trkpt lat="49.64092" lon="0.18736">
        <ele>131.9</ele>
        <time>2020-06-17T18:39:47Z</time>
      </trkpt>
      <trkpt lat="49.64097" lon="0.18738">
        <ele>131.8</ele>
        <time>2020-06-17T18:39:48Z</time>
      </trkpt>
      <trkpt lat="49.64103" lon="0.1874">
        <ele>131.8</ele>
        <time>2020-06-17T18:39:49Z</time>
      </trkpt>
      <trkpt lat="49.64109" lon="0.18743">
        <ele>131.8</ele>
        <time>2020-06-17T18:39:50Z</time>
      </trkpt>
      <trkpt lat="49.64114" lon="0.18746">
        <ele>131.8</ele>
        <time>2020-06-17T18:39:51Z</time>
      </trkpt>
      <trkpt lat="49.6412" lon="0.18748">
        <ele>131.8</ele>
        <time>2020-06-17T18:39:52Z</time>
      </trkpt>
      <trkpt lat="49.64126" lon="0.18751">
        <ele>131.7</ele>
        <time>2020-06-17T18:39:53Z</time>
      </trkpt>
      <trkpt lat="49.64132" lon="0.18754">
        <ele>131.7</ele>
        <time>2020-06-17T18:39:54Z</time>
      </trkpt>
      <trkpt lat="49.64138" lon="0.18757">
        <ele>131.6</ele>
        <time>2020-06-17T18:39:55Z</time>
      </trkpt>
      <trkpt lat="49.64143" lon="0.1876">
        <ele>131.6</ele>
        <time>2020-06-17T18:39:56Z</time>
      </trkpt>
      <trkpt lat="49.6415" lon="0.18763">
        <ele>131.6</ele>
        <time>2020-06-17T18:39:57Z</time>
      </trkpt>
      <trkpt lat="49.64155" lon="0.18767">
        <ele>131.5</ele>
        <time>2020-06-17T18:39:58Z</time>
      </trkpt>
      <trkpt lat="49.64161" lon="0.1877">
        <ele>131.5</ele>
        <time>2020-06-17T18:39:59Z</time>
      </trkpt>
      <trkpt lat="49.64167" lon="0.18773">
        <ele>131.5</ele>
        <time>2020-06-17T18:40:00Z</time>
      </trkpt>
      <trkpt lat="49.64173" lon="0.18775">
        <ele>131.5</ele>
        <time>2020-06-17T18:40:01Z</time>
      </trkpt>
      <trkpt lat="49.64179" lon="0.18777">
        <ele>131.5</ele>
        <time>2020-06-17T18:40:02Z</time>
      </trkpt>
      <trkpt lat="49.64184" lon="0.18779">
        <ele>131.5</ele>
        <time>2020-06-17T18:40:03Z</time>
      </trkpt>
      <trkpt lat="49.6419" lon="0.18783">
        <ele>131.5</ele>
        <time>2020-06-17T18:40:04Z</time>
      </trkpt>
      <trkpt lat="49.64196" lon="0.18785">
        <ele>131.6</ele>
        <time>2020-06-17T18:40:05Z</time>
      </trkpt>
      <trkpt lat="49.64202" lon="0.1879">
        <ele>131.6</ele>
        <time>2020-06-17T18:40:06Z</time>
      </trkpt>
      <trkpt lat="49.64208" lon="0.18793">
        <ele>131.7</ele>
        <time>2020-06-17T18:40:07Z</time>
      </trkpt>
      <trkpt lat="49.64213" lon="0.18796">
        <ele>131.8</ele>
        <time>2020-06-17T18:40:08Z</time>
      </trkpt>
      <trkpt lat="49.64219" lon="0.18798">
        <ele>131.9</ele>
        <time>2020-06-17T18:40:09Z</time>
      </trkpt>
      <trkpt lat="49.64226" lon="0.18801">
        <ele>132</ele>
        <time>2020-06-17T18:40:10Z</time>
      </trkpt>
      <trkpt lat="49.64232" lon="0.18804">
        <ele>132.1</ele>
        <time>2020-06-17T18:40:11Z</time>
      </trkpt>
      <trkpt lat="49.64237" lon="0.18806">
        <ele>132.2</ele>
        <time>2020-06-17T18:40:12Z</time>
      </trkpt>
      <trkpt lat="49.64243" lon="0.18809">
        <ele>132.2</ele>
        <time>2020-06-17T18:40:13Z</time>
      </trkpt>
      <trkpt lat="49.64247" lon="0.18811">
        <ele>132.2</ele>
        <time>2020-06-17T18:40:14Z</time>
      </trkpt>
      <trkpt lat="49.64251" lon="0.18813">
        <ele>132.3</ele>
        <time>2020-06-17T18:40:15Z</time>
      </trkpt>
      <trkpt lat="49.64256" lon="0.18815">
        <ele>132.3</ele>
        <time>2020-06-17T18:40:16Z</time>
      </trkpt>
      <trkpt lat="49.64261" lon="0.18818">
        <ele>132.4</ele>
        <time>2020-06-17T18:40:17Z</time>
      </trkpt>
      <trkpt lat="49.64265" lon="0.1882">
        <ele>132.5</ele>
        <time>2020-06-17T18:40:18Z</time>
      </trkpt>
      <trkpt lat="49.64271" lon="0.18823">
        <ele>132.6</ele>
        <time>2020-06-17T18:40:19Z</time>
      </trkpt>
      <trkpt lat="49.64277" lon="0.18826">
        <ele>132.8</ele>
        <time>2020-06-17T18:40:20Z</time>
      </trkpt>
      <trkpt lat="49.64284" lon="0.18829">
        <ele>133</ele>
        <time>2020-06-17T18:40:21Z</time>
      </trkpt>
      <trkpt lat="49.64288" lon="0.18831">
        <ele>133.1</ele>
        <time>2020-06-17T18:40:22Z</time>
      </trkpt>
      <trkpt lat="49.64294" lon="0.18834">
        <ele>133.2</ele>
        <time>2020-06-17T18:40:23Z</time>
      </trkpt>
      <trkpt lat="49.64298" lon="0.18836">
        <ele>133.3</ele>
        <time>2020-06-17T18:40:24Z</time>
      </trkpt>
      <trkpt lat="49.64304" lon="0.1884">
        <ele>133.5</ele>
        <time>2020-06-17T18:40:25Z</time>
      </trkpt>
      <trkpt lat="49.64309" lon="0.18843">
        <ele>133.6</ele>
        <time>2020-06-17T18:40:26Z</time>
      </trkpt>
      <trkpt lat="49.64314" lon="0.18846">
        <ele>133.8</ele>
        <time>2020-06-17T18:40:27Z</time>
      </trkpt>
      <trkpt lat="49.64319" lon="0.18848">
        <ele>133.9</ele>
        <time>2020-06-17T18:40:28Z</time>
      </trkpt>
      <trkpt lat="49.64324" lon="0.18851">
        <ele>134.1</ele>
        <time>2020-06-17T18:40:29Z</time>
      </trkpt>
      <trkpt lat="49.64329" lon="0.18854">
        <ele>134.2</ele>
        <time>2020-06-17T18:40:30Z</time>
      </trkpt>
      <trkpt lat="49.64333" lon="0.18856">
        <ele>134.4</ele>
        <time>2020-06-17T18:40:31Z</time>
      </trkpt>
      <trkpt lat="49.64338" lon="0.18858">
        <ele>134.5</ele>
        <time>2020-06-17T18:40:32Z</time>
      </trkpt>
      <trkpt lat="49.64343" lon="0.18861">
        <ele>134.6</ele>
        <time>2020-06-17T18:40:33Z</time>
      </trkpt>
      <trkpt lat="49.64348" lon="0.18864">
        <ele>134.8</ele>
        <time>2020-06-17T18:40:34Z</time>
      </trkpt>
      <trkpt lat="49.64353" lon="0.18866">
        <ele>134.9</ele>
        <time>2020-06-17T18:40:35Z</time>
      </trkpt>
      <trkpt lat="49.64358" lon="0.18868">
        <ele>135.1</ele>
        <time>2020-06-17T18:40:36Z</time>
      </trkpt>
      <trkpt lat="49.64363" lon="0.1887">
        <ele>135.3</ele>
        <time>2020-06-17T18:40:37Z</time>
      </trkpt>
      <trkpt lat="49.64368" lon="0.18873">
        <ele>135.4</ele>
        <time>2020-06-17T18:40:38Z</time>
      </trkpt>
      <trkpt lat="49.64374" lon="0.18875">
        <ele>135.6</ele>
        <time>2020-06-17T18:40:39Z</time>
      </trkpt>
      <trkpt lat="49.64378" lon="0.18877">
        <ele>135.8</ele>
        <time>2020-06-17T18:40:40Z</time>
      </trkpt>
      <trkpt lat="49.64383" lon="0.18879">
        <ele>135.9</ele>
        <time>2020-06-17T18:40:41Z</time>
      </trkpt>
      <trkpt lat="49.64388" lon="0.18881">
        <ele>135.9</ele>
        <time>2020-06-17T18:40:42Z</time>
      </trkpt>
      <trkpt lat="49.64392" lon="0.18883">
        <ele>136</ele>
        <time>2020-06-17T18:40:43Z</time>
      </trkpt>
      <trkpt lat="49.64396" lon="0.18886">
        <ele>136.1</ele>
        <time>2020-06-17T18:40:44Z</time>
      </trkpt>
      <trkpt lat="49.64401" lon="0.18889">
        <ele>136.2</ele>
        <time>2020-06-17T18:40:45Z</time>
      </trkpt>
      <trkpt lat="49.64406" lon="0.1889">
        <ele>136.3</ele>
        <time>2020-06-17T18:40:46Z</time>
      </trkpt>
      <trkpt lat="49.64411" lon="0.18893">
        <ele>136.5</ele>
        <time>2020-06-17T18:40:47Z</time>
      </trkpt>
      <trkpt lat="49.64416" lon="0.18895">
        <ele>136.6</ele>
        <time>2020-06-17T18:40:48Z</time>
      </trkpt>
      <trkpt lat="49.64421" lon="0.18898">
        <ele>136.8</ele>
        <time>2020-06-17T18:40:49Z</time>
      </trkpt>
      <trkpt lat="49.64425" lon="0.18901">
        <ele>136.9</ele>
        <time>2020-06-17T18:40:50Z</time>
      </trkpt>
      <trkpt lat="49.6443" lon="0.18903">
        <ele>137.1</ele>
        <time>2020-06-17T18:40:51Z</time>
      </trkpt>
      <trkpt lat="49.64435" lon="0.18905">
        <ele>137.2</ele>
        <time>2020-06-17T18:40:52Z</time>
      </trkpt>
      <trkpt lat="49.6444" lon="0.18907">
        <ele>137.4</ele>
        <time>2020-06-17T18:40:53Z</time>
      </trkpt>
      <trkpt lat="49.64445" lon="0.18909">
        <ele>137.5</ele>
        <time>2020-06-17T18:40:54Z</time>
      </trkpt>
      <trkpt lat="49.64449" lon="0.18911">
        <ele>137.6</ele>
        <time>2020-06-17T18:40:55Z</time>
      </trkpt>
      <trkpt lat="49.64454" lon="0.18913">
        <ele>137.7</ele>
        <time>2020-06-17T18:40:56Z</time>
      </trkpt>
      <trkpt lat="49.64458" lon="0.18914">
        <ele>137.8</ele>
        <time>2020-06-17T18:40:57Z</time>
      </trkpt>
      <trkpt lat="49.64463" lon="0.18916">
        <ele>137.9</ele>
        <time>2020-06-17T18:40:58Z</time>
      </trkpt>
      <trkpt lat="49.64469" lon="0.18919">
        <ele>138</ele>
        <time>2020-06-17T18:40:59Z</time>
      </trkpt>
      <trkpt lat="49.64473" lon="0.18921">
        <ele>138</ele>
        <time>2020-06-17T18:41:00Z</time>
      </trkpt>
      <trkpt lat="49.64478" lon="0.18924">
        <ele>138.1</ele>
        <time>2020-06-17T18:41:01Z</time>
      </trkpt>
      <trkpt lat="49.64482" lon="0.18926">
        <ele>138.2</ele>
        <time>2020-06-17T18:41:02Z</time>
      </trkpt>
      <trkpt lat="49.64487" lon="0.18929">
        <ele>138.3</ele>
        <time>2020-06-17T18:41:03Z</time>
      </trkpt>
      <trkpt lat="49.64492" lon="0.18931">
        <ele>138.4</ele>
        <time>2020-06-17T18:41:04Z</time>
      </trkpt>
      <trkpt lat="49.64496" lon="0.18933">
        <ele>138.5</ele>
        <time>2020-06-17T18:41:05Z</time>
      </trkpt>
      <trkpt lat="49.64501" lon="0.18936">
        <ele>138.6</ele>
        <time>2020-06-17T18:41:06Z</time>
      </trkpt>
      <trkpt lat="49.64506" lon="0.18937">
        <ele>138.6</ele>
        <time>2020-06-17T18:41:07Z</time>
      </trkpt>
      <trkpt lat="49.64511" lon="0.1894">
        <ele>138.7</ele>
        <time>2020-06-17T18:41:08Z</time>
      </trkpt>
      <trkpt lat="49.64515" lon="0.18943">
        <ele>138.8</ele>
        <time>2020-06-17T18:41:09Z</time>
      </trkpt>
      <trkpt lat="49.6452" lon="0.18946">
        <ele>138.9</ele>
        <time>2020-06-17T18:41:10Z</time>
      </trkpt>
      <trkpt lat="49.64525" lon="0.18948">
        <ele>139</ele>
        <time>2020-06-17T18:41:11Z</time>
      </trkpt>
      <trkpt lat="49.6453" lon="0.1895">
        <ele>139</ele>
        <time>2020-06-17T18:41:12Z</time>
      </trkpt>
      <trkpt lat="49.64535" lon="0.18953">
        <ele>139.1</ele>
        <time>2020-06-17T18:41:13Z</time>
      </trkpt>
      <trkpt lat="49.64539" lon="0.18956">
        <ele>139.2</ele>
        <time>2020-06-17T18:41:14Z</time>
      </trkpt>
      <trkpt lat="49.64544" lon="0.1896">
        <ele>139.3</ele>
        <time>2020-06-17T18:41:15Z</time>
      </trkpt>
      <trkpt lat="49.64549" lon="0.18964">
        <ele>139.3</ele>
        <time>2020-06-17T18:41:16Z</time>
      </trkpt>
      <trkpt lat="49.64554" lon="0.18966">
        <ele>139.4</ele>
        <time>2020-06-17T18:41:17Z</time>
      </trkpt>
      <trkpt lat="49.6456" lon="0.1897">
        <ele>139.5</ele>
        <time>2020-06-17T18:41:18Z</time>
      </trkpt>
      <trkpt lat="49.64565" lon="0.18974">
        <ele>139.5</ele>
        <time>2020-06-17T18:41:19Z</time>
      </trkpt>
      <trkpt lat="49.6457" lon="0.18977">
        <ele>139.6</ele>
        <time>2020-06-17T18:41:20Z</time>
      </trkpt>
      <trkpt lat="49.64575" lon="0.18981">
        <ele>139.6</ele>
        <time>2020-06-17T18:41:21Z</time>
      </trkpt>
      <trkpt lat="49.6458" lon="0.18982">
        <ele>139.7</ele>
        <time>2020-06-17T18:41:22Z</time>
      </trkpt>
      <trkpt lat="49.64585" lon="0.18984">
        <ele>139.7</ele>
        <time>2020-06-17T18:41:23Z</time>
      </trkpt>
      <trkpt lat="49.6459" lon="0.18986">
        <ele>139.7</ele>
        <time>2020-06-17T18:41:24Z</time>
      </trkpt>
      <trkpt lat="49.64595" lon="0.18989">
        <ele>139.7</ele>
        <time>2020-06-17T18:41:25Z</time>
      </trkpt>
      <trkpt lat="49.64599" lon="0.18991">
        <ele>139.7</ele>
        <time>2020-06-17T18:41:26Z</time>
      </trkpt>
      <trkpt lat="49.64604" lon="0.18994">
        <ele>139.7</ele>
        <time>2020-06-17T18:41:27Z</time>
      </trkpt>
      <trkpt lat="49.64609" lon="0.18996">
        <ele>139.7</ele>
        <time>2020-06-17T18:41:28Z</time>
      </trkpt>
      <trkpt lat="49.64613" lon="0.18997">
        <ele>139.7</ele>
        <time>2020-06-17T18:41:29Z</time>
      </trkpt>
      <trkpt lat="49.64617" lon="0.18999">
        <ele>139.7</ele>
        <time>2020-06-17T18:41:30Z</time>
      </trkpt>
      <trkpt lat="49.64622" lon="0.19001">
        <ele>139.7</ele>
        <time>2020-06-17T18:41:31Z</time>
      </trkpt>
      <trkpt lat="49.64627" lon="0.19002">
        <ele>139.7</ele>
        <time>2020-06-17T18:41:32Z</time>
      </trkpt>
      <trkpt lat="49.64631" lon="0.19004">
        <ele>139.7</ele>
        <time>2020-06-17T18:41:33Z</time>
      </trkpt>
      <trkpt lat="49.64637" lon="0.19006">
        <ele>139.7</ele>
        <time>2020-06-17T18:41:34Z</time>
      </trkpt>
      <trkpt lat="49.64642" lon="0.19008">
        <ele>139.6</ele>
        <time>2020-06-17T18:41:35Z</time>
      </trkpt>
      <trkpt lat="49.64647" lon="0.1901">
        <ele>139.6</ele>
        <time>2020-06-17T18:41:36Z</time>
      </trkpt>
      <trkpt lat="49.64652" lon="0.19013">
        <ele>139.6</ele>
        <time>2020-06-17T18:41:37Z</time>
      </trkpt>
      <trkpt lat="49.64657" lon="0.19017">
        <ele>139.6</ele>
        <time>2020-06-17T18:41:38Z</time>
      </trkpt>
      <trkpt lat="49.64662" lon="0.1902">
        <ele>139.6</ele>
        <time>2020-06-17T18:41:39Z</time>
      </trkpt>
      <trkpt lat="49.64667" lon="0.19023">
        <ele>139.5</ele>
        <time>2020-06-17T18:41:40Z</time>
      </trkpt>
      <trkpt lat="49.64672" lon="0.19024">
        <ele>139.4</ele>
        <time>2020-06-17T18:41:41Z</time>
      </trkpt>
      <trkpt lat="49.64678" lon="0.19028">
        <ele>139.4</ele>
        <time>2020-06-17T18:41:42Z</time>
      </trkpt>
      <trkpt lat="49.64683" lon="0.1903">
        <ele>139.3</ele>
        <time>2020-06-17T18:41:43Z</time>
      </trkpt>
      <trkpt lat="49.64688" lon="0.19034">
        <ele>139.3</ele>
        <time>2020-06-17T18:41:44Z</time>
      </trkpt>
      <trkpt lat="49.64694" lon="0.19037">
        <ele>139.2</ele>
        <time>2020-06-17T18:41:45Z</time>
      </trkpt>
      <trkpt lat="49.647" lon="0.19041">
        <ele>139.2</ele>
        <time>2020-06-17T18:41:46Z</time>
      </trkpt>
      <trkpt lat="49.64705" lon="0.19045">
        <ele>139.1</ele>
        <time>2020-06-17T18:41:47Z</time>
      </trkpt>
      <trkpt lat="49.64711" lon="0.19048">
        <ele>139</ele>
        <time>2020-06-17T18:41:48Z</time>
      </trkpt>
      <trkpt lat="49.64717" lon="0.19051">
        <ele>139</ele>
        <time>2020-06-17T18:41:49Z</time>
      </trkpt>
      <trkpt lat="49.64723" lon="0.19054">
        <ele>138.9</ele>
        <time>2020-06-17T18:41:50Z</time>
      </trkpt>
      <trkpt lat="49.64728" lon="0.19055">
        <ele>138.8</ele>
        <time>2020-06-17T18:41:51Z</time>
      </trkpt>
      <trkpt lat="49.64735" lon="0.19059">
        <ele>138.8</ele>
        <time>2020-06-17T18:41:52Z</time>
      </trkpt>
      <trkpt lat="49.64741" lon="0.19063">
        <ele>138.7</ele>
        <time>2020-06-17T18:41:53Z</time>
      </trkpt>
      <trkpt lat="49.64747" lon="0.19067">
        <ele>138.6</ele>
        <time>2020-06-17T18:41:54Z</time>
      </trkpt>
      <trkpt lat="49.64753" lon="0.1907">
        <ele>138.5</ele>
        <time>2020-06-17T18:41:55Z</time>
      </trkpt>
      <trkpt lat="49.64758" lon="0.19072">
        <ele>138.5</ele>
        <time>2020-06-17T18:41:56Z</time>
      </trkpt>
      <trkpt lat="49.64764" lon="0.19075">
        <ele>138.3</ele>
        <time>2020-06-17T18:41:57Z</time>
      </trkpt>
      <trkpt lat="49.64771" lon="0.19079">
        <ele>138.2</ele>
        <time>2020-06-17T18:41:58Z</time>
      </trkpt>
      <trkpt lat="49.64778" lon="0.19081">
        <ele>138</ele>
        <time>2020-06-17T18:41:59Z</time>
      </trkpt>
      <trkpt lat="49.64785" lon="0.19083">
        <ele>137.9</ele>
        <time>2020-06-17T18:42:00Z</time>
      </trkpt>
      <trkpt lat="49.64792" lon="0.19086">
        <ele>137.7</ele>
        <time>2020-06-17T18:42:01Z</time>
      </trkpt>
      <trkpt lat="49.64798" lon="0.19091">
        <ele>137.6</ele>
        <time>2020-06-17T18:42:02Z</time>
      </trkpt>
      <trkpt lat="49.64805" lon="0.19094">
        <ele>137.5</ele>
        <time>2020-06-17T18:42:03Z</time>
      </trkpt>
      <trkpt lat="49.64811" lon="0.19098">
        <ele>137.4</ele>
        <time>2020-06-17T18:42:04Z</time>
      </trkpt>
      <trkpt lat="49.64817" lon="0.19101">
        <ele>137.3</ele>
        <time>2020-06-17T18:42:05Z</time>
      </trkpt>
      <trkpt lat="49.64823" lon="0.19105">
        <ele>137.1</ele>
        <time>2020-06-17T18:42:06Z</time>
      </trkpt>
      <trkpt lat="49.64829" lon="0.19108">
        <ele>137</ele>
        <time>2020-06-17T18:42:07Z</time>
      </trkpt>
      <trkpt lat="49.64835" lon="0.19111">
        <ele>136.9</ele>
        <time>2020-06-17T18:42:08Z</time>
      </trkpt>
      <trkpt lat="49.64841" lon="0.19114">
        <ele>136.7</ele>
        <time>2020-06-17T18:42:09Z</time>
      </trkpt>
      <trkpt lat="49.64847" lon="0.19116">
        <ele>136.6</ele>
        <time>2020-06-17T18:42:10Z</time>
      </trkpt>
      <trkpt lat="49.64853" lon="0.19119">
        <ele>136.5</ele>
        <time>2020-06-17T18:42:11Z</time>
      </trkpt>
      <trkpt lat="49.64858" lon="0.19122">
        <ele>136.4</ele>
        <time>2020-06-17T18:42:12Z</time>
      </trkpt>
      <trkpt lat="49.64864" lon="0.19124">
        <ele>136.3</ele>
        <time>2020-06-17T18:42:13Z</time>
      </trkpt>
      <trkpt lat="49.6487" lon="0.19127">
        <ele>136.2</ele>
        <time>2020-06-17T18:42:14Z</time>
      </trkpt>
      <trkpt lat="49.64875" lon="0.1913">
        <ele>136.1</ele>
        <time>2020-06-17T18:42:15Z</time>
      </trkpt>
      <trkpt lat="49.64881" lon="0.19132">
        <ele>136.1</ele>
        <time>2020-06-17T18:42:16Z</time>
      </trkpt>
      <trkpt lat="49.64887" lon="0.19134">
        <ele>135.9</ele>
        <time>2020-06-17T18:42:17Z</time>
      </trkpt>
      <trkpt lat="49.64894" lon="0.19137">
        <ele>135.8</ele>
        <time>2020-06-17T18:42:18Z</time>
      </trkpt>
      <trkpt lat="49.64899" lon="0.19139">
        <ele>135.7</ele>
        <time>2020-06-17T18:42:19Z</time>
      </trkpt>
      <trkpt lat="49.64905" lon="0.19141">
        <ele>135.6</ele>
        <time>2020-06-17T18:42:20Z</time>
      </trkpt>
      <trkpt lat="49.64911" lon="0.19144">
        <ele>135.5</ele>
        <time>2020-06-17T18:42:21Z</time>
      </trkpt>
      <trkpt lat="49.64918" lon="0.19147">
        <ele>135.3</ele>
        <time>2020-06-17T18:42:22Z</time>
      </trkpt>
      <trkpt lat="49.64924" lon="0.19149">
        <ele>135.2</ele>
        <time>2020-06-17T18:42:23Z</time>
      </trkpt>
      <trkpt lat="49.6493" lon="0.19152">
        <ele>135.1</ele>
        <time>2020-06-17T18:42:24Z</time>
      </trkpt>
      <trkpt lat="49.64937" lon="0.19155">
        <ele>135</ele>
        <time>2020-06-17T18:42:25Z</time>
      </trkpt>
      <trkpt lat="49.64944" lon="0.19157">
        <ele>134.9</ele>
        <time>2020-06-17T18:42:26Z</time>
      </trkpt>
      <trkpt lat="49.6495" lon="0.1916">
        <ele>134.7</ele>
        <time>2020-06-17T18:42:27Z</time>
      </trkpt>
      <trkpt lat="49.64956" lon="0.19164">
        <ele>134.6</ele>
        <time>2020-06-17T18:42:28Z</time>
      </trkpt>
      <trkpt lat="49.64963" lon="0.19168">
        <ele>134.5</ele>
        <time>2020-06-17T18:42:29Z</time>
      </trkpt>
      <trkpt lat="49.6497" lon="0.19171">
        <ele>134.4</ele>
        <time>2020-06-17T18:42:30Z</time>
      </trkpt>
      <trkpt lat="49.64977" lon="0.19174">
        <ele>134.2</ele>
        <time>2020-06-17T18:42:31Z</time>
      </trkpt>
      <trkpt lat="49.64985" lon="0.19178">
        <ele>134</ele>
        <time>2020-06-17T18:42:32Z</time>
      </trkpt>
      <trkpt lat="49.64992" lon="0.19181">
        <ele>133.8</ele>
        <time>2020-06-17T18:42:33Z</time>
      </trkpt>
      <trkpt lat="49.64999" lon="0.19184">
        <ele>133.7</ele>
        <time>2020-06-17T18:42:34Z</time>
      </trkpt>
      <trkpt lat="49.65006" lon="0.19188">
        <ele>133.5</ele>
        <time>2020-06-17T18:42:35Z</time>
      </trkpt>
      <trkpt lat="49.65014" lon="0.19191">
        <ele>133.3</ele>
        <time>2020-06-17T18:42:36Z</time>
      </trkpt>
      <trkpt lat="49.65021" lon="0.19194">
        <ele>133.2</ele>
        <time>2020-06-17T18:42:37Z</time>
      </trkpt>
      <trkpt lat="49.65028" lon="0.19198">
        <ele>133</ele>
        <time>2020-06-17T18:42:38Z</time>
      </trkpt>
      <trkpt lat="49.65036" lon="0.19201">
        <ele>132.8</ele>
        <time>2020-06-17T18:42:39Z</time>
      </trkpt>
      <trkpt lat="49.65043" lon="0.19206">
        <ele>132.7</ele>
        <time>2020-06-17T18:42:40Z</time>
      </trkpt>
      <trkpt lat="49.65051" lon="0.19209">
        <ele>132.5</ele>
        <time>2020-06-17T18:42:41Z</time>
      </trkpt>
      <trkpt lat="49.65058" lon="0.19212">
        <ele>132.4</ele>
        <time>2020-06-17T18:42:42Z</time>
      </trkpt>
      <trkpt lat="49.65065" lon="0.19216">
        <ele>132.3</ele>
        <time>2020-06-17T18:42:43Z</time>
      </trkpt>
      <trkpt lat="49.65071" lon="0.1922">
        <ele>132.2</ele>
        <time>2020-06-17T18:42:44Z</time>
      </trkpt>
      <trkpt lat="49.65078" lon="0.19223">
        <ele>132.1</ele>
        <time>2020-06-17T18:42:45Z</time>
      </trkpt>
      <trkpt lat="49.65084" lon="0.19226">
        <ele>131.9</ele>
        <time>2020-06-17T18:42:46Z</time>
      </trkpt>
      <trkpt lat="49.65091" lon="0.1923">
        <ele>131.6</ele>
        <time>2020-06-17T18:42:47Z</time>
      </trkpt>
      <trkpt lat="49.65097" lon="0.19234">
        <ele>131.4</ele>
        <time>2020-06-17T18:42:48Z</time>
      </trkpt>
      <trkpt lat="49.65104" lon="0.19238">
        <ele>131.2</ele>
        <time>2020-06-17T18:42:49Z</time>
      </trkpt>
      <trkpt lat="49.6511" lon="0.19241">
        <ele>131</ele>
        <time>2020-06-17T18:42:50Z</time>
      </trkpt>
      <trkpt lat="49.65116" lon="0.19245">
        <ele>130.8</ele>
        <time>2020-06-17T18:42:51Z</time>
      </trkpt>
      <trkpt lat="49.65123" lon="0.19248">
        <ele>130.6</ele>
        <time>2020-06-17T18:42:52Z</time>
      </trkpt>
      <trkpt lat="49.65129" lon="0.1925">
        <ele>130.5</ele>
        <time>2020-06-17T18:42:53Z</time>
      </trkpt>
      <trkpt lat="49.65135" lon="0.19253">
        <ele>130.3</ele>
        <time>2020-06-17T18:42:54Z</time>
      </trkpt>
      <trkpt lat="49.65141" lon="0.19256">
        <ele>130.1</ele>
        <time>2020-06-17T18:42:55Z</time>
      </trkpt>
      <trkpt lat="49.65148" lon="0.19258">
        <ele>129.9</ele>
        <time>2020-06-17T18:42:56Z</time>
      </trkpt>
      <trkpt lat="49.65154" lon="0.19261">
        <ele>129.7</ele>
        <time>2020-06-17T18:42:57Z</time>
      </trkpt>
      <trkpt lat="49.6516" lon="0.19264">
        <ele>129.5</ele>
        <time>2020-06-17T18:42:58Z</time>
      </trkpt>
      <trkpt lat="49.65167" lon="0.19268">
        <ele>129.3</ele>
        <time>2020-06-17T18:42:59Z</time>
      </trkpt>
      <trkpt lat="49.65173" lon="0.19272">
        <ele>129.1</ele>
        <time>2020-06-17T18:43:00Z</time>
      </trkpt>
      <trkpt lat="49.65179" lon="0.19277">
        <ele>128.9</ele>
        <time>2020-06-17T18:43:01Z</time>
      </trkpt>
      <trkpt lat="49.65185" lon="0.1928">
        <ele>128.7</ele>
        <time>2020-06-17T18:43:02Z</time>
      </trkpt>
      <trkpt lat="49.65192" lon="0.19284">
        <ele>128.6</ele>
        <time>2020-06-17T18:43:03Z</time>
      </trkpt>
      <trkpt lat="49.65199" lon="0.19287">
        <ele>128.4</ele>
        <time>2020-06-17T18:43:04Z</time>
      </trkpt>
      <trkpt lat="49.65206" lon="0.1929">
        <ele>128.1</ele>
        <time>2020-06-17T18:43:05Z</time>
      </trkpt>
      <trkpt lat="49.65212" lon="0.19293">
        <ele>127.9</ele>
        <time>2020-06-17T18:43:06Z</time>
      </trkpt>
      <trkpt lat="49.65219" lon="0.19297">
        <ele>127.7</ele>
        <time>2020-06-17T18:43:07Z</time>
      </trkpt>
      <trkpt lat="49.65225" lon="0.19301">
        <ele>127.5</ele>
        <time>2020-06-17T18:43:08Z</time>
      </trkpt>
      <trkpt lat="49.65232" lon="0.19305">
        <ele>127.3</ele>
        <time>2020-06-17T18:43:09Z</time>
      </trkpt>
      <trkpt lat="49.65239" lon="0.19309">
        <ele>127</ele>
        <time>2020-06-17T18:43:10Z</time>
      </trkpt>
      <trkpt lat="49.65246" lon="0.19313">
        <ele>126.8</ele>
        <time>2020-06-17T18:43:11Z</time>
      </trkpt>
      <trkpt lat="49.65253" lon="0.19317">
        <ele>126.6</ele>
        <time>2020-06-17T18:43:12Z</time>
      </trkpt>
      <trkpt lat="49.6526" lon="0.1932">
        <ele>126.3</ele>
        <time>2020-06-17T18:43:13Z</time>
      </trkpt>
      <trkpt lat="49.65266" lon="0.19323">
        <ele>126</ele>
        <time>2020-06-17T18:43:14Z</time>
      </trkpt>
      <trkpt lat="49.65273" lon="0.19326">
        <ele>125.7</ele>
        <time>2020-06-17T18:43:15Z</time>
      </trkpt>
      <trkpt lat="49.65281" lon="0.19329">
        <ele>125.5</ele>
        <time>2020-06-17T18:43:16Z</time>
      </trkpt>
      <trkpt lat="49.65288" lon="0.19332">
        <ele>125.2</ele>
        <time>2020-06-17T18:43:17Z</time>
      </trkpt>
      <trkpt lat="49.65295" lon="0.19336">
        <ele>125</ele>
        <time>2020-06-17T18:43:18Z</time>
      </trkpt>
      <trkpt lat="49.65302" lon="0.1934">
        <ele>124.8</ele>
        <time>2020-06-17T18:43:19Z</time>
      </trkpt>
      <trkpt lat="49.65309" lon="0.19344">
        <ele>124.5</ele>
        <time>2020-06-17T18:43:20Z</time>
      </trkpt>
      <trkpt lat="49.65317" lon="0.19349">
        <ele>124.2</ele>
        <time>2020-06-17T18:43:21Z</time>
      </trkpt>
      <trkpt lat="49.65324" lon="0.19353">
        <ele>124</ele>
        <time>2020-06-17T18:43:22Z</time>
      </trkpt>
      <trkpt lat="49.65332" lon="0.19357">
        <ele>123.7</ele>
        <time>2020-06-17T18:43:23Z</time>
      </trkpt>
      <trkpt lat="49.6534" lon="0.1936">
        <ele>123.4</ele>
        <time>2020-06-17T18:43:24Z</time>
      </trkpt>
      <trkpt lat="49.65347" lon="0.19363">
        <ele>123.2</ele>
        <time>2020-06-17T18:43:25Z</time>
      </trkpt>
      <trkpt lat="49.65355" lon="0.19367">
        <ele>122.9</ele>
        <time>2020-06-17T18:43:26Z</time>
      </trkpt>
      <trkpt lat="49.65362" lon="0.19371">
        <ele>122.7</ele>
        <time>2020-06-17T18:43:27Z</time>
      </trkpt>
      <trkpt lat="49.6537" lon="0.19374">
        <ele>122.4</ele>
        <time>2020-06-17T18:43:28Z</time>
      </trkpt>
      <trkpt lat="49.65377" lon="0.19378">
        <ele>122.2</ele>
        <time>2020-06-17T18:43:29Z</time>
      </trkpt>
      <trkpt lat="49.65385" lon="0.19382">
        <ele>121.9</ele>
        <time>2020-06-17T18:43:30Z</time>
      </trkpt>
      <trkpt lat="49.65392" lon="0.19386">
        <ele>121.6</ele>
        <time>2020-06-17T18:43:31Z</time>
      </trkpt>
      <trkpt lat="49.65399" lon="0.1939">
        <ele>121.3</ele>
        <time>2020-06-17T18:43:32Z</time>
      </trkpt>
      <trkpt lat="49.65407" lon="0.19394">
        <ele>121.1</ele>
        <time>2020-06-17T18:43:33Z</time>
      </trkpt>
      <trkpt lat="49.65414" lon="0.19399">
        <ele>120.8</ele>
        <time>2020-06-17T18:43:34Z</time>
      </trkpt>
      <trkpt lat="49.65421" lon="0.19402">
        <ele>120.6</ele>
        <time>2020-06-17T18:43:35Z</time>
      </trkpt>
      <trkpt lat="49.65428" lon="0.19406">
        <ele>120.4</ele>
        <time>2020-06-17T18:43:36Z</time>
      </trkpt>
      <trkpt lat="49.65435" lon="0.1941">
        <ele>120.2</ele>
        <time>2020-06-17T18:43:37Z</time>
      </trkpt>
      <trkpt lat="49.65442" lon="0.19414">
        <ele>119.7</ele>
        <time>2020-06-17T18:43:38Z</time>
      </trkpt>
      <trkpt lat="49.65449" lon="0.19419">
        <ele>119.3</ele>
        <time>2020-06-17T18:43:39Z</time>
      </trkpt>
      <trkpt lat="49.65457" lon="0.19423">
        <ele>119</ele>
        <time>2020-06-17T18:43:40Z</time>
      </trkpt>
      <trkpt lat="49.65465" lon="0.19426">
        <ele>118.8</ele>
        <time>2020-06-17T18:43:41Z</time>
      </trkpt>
      <trkpt lat="49.65472" lon="0.19429">
        <ele>118.5</ele>
        <time>2020-06-17T18:43:42Z</time>
      </trkpt>
      <trkpt lat="49.6548" lon="0.19432">
        <ele>118.3</ele>
        <time>2020-06-17T18:43:43Z</time>
      </trkpt>
      <trkpt lat="49.65488" lon="0.19435">
        <ele>118.1</ele>
        <time>2020-06-17T18:43:44Z</time>
      </trkpt>
      <trkpt lat="49.65496" lon="0.19437">
        <ele>117.9</ele>
        <time>2020-06-17T18:43:45Z</time>
      </trkpt>
      <trkpt lat="49.65503" lon="0.1944">
        <ele>117.8</ele>
        <time>2020-06-17T18:43:46Z</time>
      </trkpt>
      <trkpt lat="49.65511" lon="0.19442">
        <ele>117.6</ele>
        <time>2020-06-17T18:43:47Z</time>
      </trkpt>
      <trkpt lat="49.65519" lon="0.19444">
        <ele>117.4</ele>
        <time>2020-06-17T18:43:48Z</time>
      </trkpt>
      <trkpt lat="49.65527" lon="0.19447">
        <ele>117.2</ele>
        <time>2020-06-17T18:43:49Z</time>
      </trkpt>
      <trkpt lat="49.65535" lon="0.1945">
        <ele>117</ele>
        <time>2020-06-17T18:43:50Z</time>
      </trkpt>
      <trkpt lat="49.65543" lon="0.19453">
        <ele>116.8</ele>
        <time>2020-06-17T18:43:51Z</time>
      </trkpt>
      <trkpt lat="49.65551" lon="0.19456">
        <ele>116.5</ele>
        <time>2020-06-17T18:43:52Z</time>
      </trkpt>
      <trkpt lat="49.65559" lon="0.19458">
        <ele>116.3</ele>
        <time>2020-06-17T18:43:53Z</time>
      </trkpt>
      <trkpt lat="49.65566" lon="0.19461">
        <ele>116</ele>
        <time>2020-06-17T18:43:54Z</time>
      </trkpt>
      <trkpt lat="49.65575" lon="0.19463">
        <ele>115.8</ele>
        <time>2020-06-17T18:43:55Z</time>
      </trkpt>
      <trkpt lat="49.65583" lon="0.19466">
        <ele>115.5</ele>
        <time>2020-06-17T18:43:56Z</time>
      </trkpt>
      <trkpt lat="49.65591" lon="0.19468">
        <ele>115.2</ele>
        <time>2020-06-17T18:43:57Z</time>
      </trkpt>
      <trkpt lat="49.65599" lon="0.19469">
        <ele>114.9</ele>
        <time>2020-06-17T18:43:58Z</time>
      </trkpt>
      <trkpt lat="49.65606" lon="0.19469">
        <ele>114.7</ele>
        <time>2020-06-17T18:43:59Z</time>
      </trkpt>
      <trkpt lat="49.65613" lon="0.1947">
        <ele>114.4</ele>
        <time>2020-06-17T18:44:00Z</time>
      </trkpt>
      <trkpt lat="49.6562" lon="0.19471">
        <ele>114.2</ele>
        <time>2020-06-17T18:44:01Z</time>
      </trkpt>
      <trkpt lat="49.65627" lon="0.19471">
        <ele>114</ele>
        <time>2020-06-17T18:44:02Z</time>
      </trkpt>
      <trkpt lat="49.65635" lon="0.19472">
        <ele>113.7</ele>
        <time>2020-06-17T18:44:03Z</time>
      </trkpt>
      <trkpt lat="49.65642" lon="0.19473">
        <ele>113.4</ele>
        <time>2020-06-17T18:44:04Z</time>
      </trkpt>
      <trkpt lat="49.6565" lon="0.19472">
        <ele>113.1</ele>
        <time>2020-06-17T18:44:05Z</time>
      </trkpt>
      <trkpt lat="49.65658" lon="0.19473">
        <ele>112.8</ele>
        <time>2020-06-17T18:44:06Z</time>
      </trkpt>
      <trkpt lat="49.65666" lon="0.19474">
        <ele>112.5</ele>
        <time>2020-06-17T18:44:07Z</time>
      </trkpt>
      <trkpt lat="49.65675" lon="0.19476">
        <ele>112.2</ele>
        <time>2020-06-17T18:44:08Z</time>
      </trkpt>
      <trkpt lat="49.65683" lon="0.19476">
        <ele>112</ele>
        <time>2020-06-17T18:44:09Z</time>
      </trkpt>
      <trkpt lat="49.65692" lon="0.19476">
        <ele>111.7</ele>
        <time>2020-06-17T18:44:10Z</time>
      </trkpt>
      <trkpt lat="49.657" lon="0.19476">
        <ele>111.4</ele>
        <time>2020-06-17T18:44:11Z</time>
      </trkpt>
      <trkpt lat="49.65708" lon="0.19476">
        <ele>111.1</ele>
        <time>2020-06-17T18:44:12Z</time>
      </trkpt>
      <trkpt lat="49.65716" lon="0.19475">
        <ele>110.9</ele>
        <time>2020-06-17T18:44:13Z</time>
      </trkpt>
      <trkpt lat="49.65724" lon="0.19473">
        <ele>110.7</ele>
        <time>2020-06-17T18:44:14Z</time>
      </trkpt>
      <trkpt lat="49.65732" lon="0.19473">
        <ele>110.4</ele>
        <time>2020-06-17T18:44:15Z</time>
      </trkpt>
      <trkpt lat="49.6574" lon="0.19472">
        <ele>110.2</ele>
        <time>2020-06-17T18:44:16Z</time>
      </trkpt>
      <trkpt lat="49.65748" lon="0.19472">
        <ele>110</ele>
        <time>2020-06-17T18:44:17Z</time>
      </trkpt>
      <trkpt lat="49.65756" lon="0.19471">
        <ele>109.8</ele>
        <time>2020-06-17T18:44:18Z</time>
      </trkpt>
      <trkpt lat="49.65764" lon="0.1947">
        <ele>109.5</ele>
        <time>2020-06-17T18:44:19Z</time>
      </trkpt>
      <trkpt lat="49.65771" lon="0.19469">
        <ele>109.4</ele>
        <time>2020-06-17T18:44:20Z</time>
      </trkpt>
      <trkpt lat="49.65779" lon="0.19468">
        <ele>109.2</ele>
        <time>2020-06-17T18:44:21Z</time>
      </trkpt>
      <trkpt lat="49.65786" lon="0.19467">
        <ele>109.1</ele>
        <time>2020-06-17T18:44:22Z</time>
      </trkpt>
      <trkpt lat="49.65793" lon="0.19465">
        <ele>109</ele>
        <time>2020-06-17T18:44:23Z</time>
      </trkpt>
      <trkpt lat="49.658" lon="0.19463">
        <ele>108.9</ele>
        <time>2020-06-17T18:44:24Z</time>
      </trkpt>
      <trkpt lat="49.65808" lon="0.19463">
        <ele>108.8</ele>
        <time>2020-06-17T18:44:25Z</time>
      </trkpt>
      <trkpt lat="49.65815" lon="0.19462">
        <ele>108.7</ele>
        <time>2020-06-17T18:44:26Z</time>
      </trkpt>
      <trkpt lat="49.65822" lon="0.19461">
        <ele>108.6</ele>
        <time>2020-06-17T18:44:27Z</time>
      </trkpt>
      <trkpt lat="49.6583" lon="0.1946">
        <ele>108.6</ele>
        <time>2020-06-17T18:44:28Z</time>
      </trkpt>
      <trkpt lat="49.65837" lon="0.19459">
        <ele>108.6</ele>
        <time>2020-06-17T18:44:29Z</time>
      </trkpt>
      <trkpt lat="49.65844" lon="0.19458">
        <ele>108.5</ele>
        <time>2020-06-17T18:44:30Z</time>
      </trkpt>
      <trkpt lat="49.65851" lon="0.19457">
        <ele>108.4</ele>
        <time>2020-06-17T18:44:31Z</time>
      </trkpt>
      <trkpt lat="49.65859" lon="0.19456">
        <ele>108.3</ele>
        <time>2020-06-17T18:44:32Z</time>
      </trkpt>
      <trkpt lat="49.65866" lon="0.19455">
        <ele>108.2</ele>
        <time>2020-06-17T18:44:33Z</time>
      </trkpt>
      <trkpt lat="49.65873" lon="0.19454">
        <ele>108.1</ele>
        <time>2020-06-17T18:44:34Z</time>
      </trkpt>
      <trkpt lat="49.6588" lon="0.19454">
        <ele>108.1</ele>
        <time>2020-06-17T18:44:35Z</time>
      </trkpt>
      <trkpt lat="49.65887" lon="0.19453">
        <ele>108</ele>
        <time>2020-06-17T18:44:36Z</time>
      </trkpt>
      <trkpt lat="49.65894" lon="0.19454">
        <ele>107.8</ele>
        <time>2020-06-17T18:44:37Z</time>
      </trkpt>
      <trkpt lat="49.65901" lon="0.19454">
        <ele>107.7</ele>
        <time>2020-06-17T18:44:38Z</time>
      </trkpt>
      <trkpt lat="49.65908" lon="0.19454">
        <ele>107.7</ele>
        <time>2020-06-17T18:44:39Z</time>
      </trkpt>
      <trkpt lat="49.65915" lon="0.19454">
        <ele>107.7</ele>
        <time>2020-06-17T18:44:40Z</time>
      </trkpt>
      <trkpt lat="49.65922" lon="0.19453">
        <ele>107.8</ele>
        <time>2020-06-17T18:44:41Z</time>
      </trkpt>
      <trkpt lat="49.65929" lon="0.19453">
        <ele>107.9</ele>
        <time>2020-06-17T18:44:42Z</time>
      </trkpt>
      <trkpt lat="49.65937" lon="0.19454">
        <ele>108</ele>
        <time>2020-06-17T18:44:43Z</time>
      </trkpt>
      <trkpt lat="49.65944" lon="0.19455">
        <ele>108.2</ele>
        <time>2020-06-17T18:44:44Z</time>
      </trkpt>
      <trkpt lat="49.6595" lon="0.19456">
        <ele>108.4</ele>
        <time>2020-06-17T18:44:45Z</time>
      </trkpt>
      <trkpt lat="49.65957" lon="0.19457">
        <ele>108.6</ele>
        <time>2020-06-17T18:44:46Z</time>
      </trkpt>
      <trkpt lat="49.65963" lon="0.19457">
        <ele>108.7</ele>
        <time>2020-06-17T18:44:47Z</time>
      </trkpt>
      <trkpt lat="49.6597" lon="0.19459">
        <ele>108.9</ele>
        <time>2020-06-17T18:44:48Z</time>
      </trkpt>
      <trkpt lat="49.65977" lon="0.19458">
        <ele>109.1</ele>
        <time>2020-06-17T18:44:49Z</time>
      </trkpt>
      <trkpt lat="49.65983" lon="0.19458">
        <ele>109.2</ele>
        <time>2020-06-17T18:44:50Z</time>
      </trkpt>
      <trkpt lat="49.6599" lon="0.19458">
        <ele>109.4</ele>
        <time>2020-06-17T18:44:51Z</time>
      </trkpt>
      <trkpt lat="49.65997" lon="0.19458">
        <ele>109.5</ele>
        <time>2020-06-17T18:44:52Z</time>
      </trkpt>
      <trkpt lat="49.66004" lon="0.19458">
        <ele>109.7</ele>
        <time>2020-06-17T18:44:53Z</time>
      </trkpt>
      <trkpt lat="49.6601" lon="0.19459">
        <ele>109.9</ele>
        <time>2020-06-17T18:44:54Z</time>
      </trkpt>
      <trkpt lat="49.66016" lon="0.19459">
        <ele>110.1</ele>
        <time>2020-06-17T18:44:55Z</time>
      </trkpt>
      <trkpt lat="49.66021" lon="0.1946">
        <ele>110.3</ele>
        <time>2020-06-17T18:44:56Z</time>
      </trkpt>
      <trkpt lat="49.66027" lon="0.1946">
        <ele>110.4</ele>
        <time>2020-06-17T18:44:57Z</time>
      </trkpt>
      <trkpt lat="49.66032" lon="0.19461">
        <ele>110.5</ele>
        <time>2020-06-17T18:44:58Z</time>
      </trkpt>
      <trkpt lat="49.66037" lon="0.19462">
        <ele>110.7</ele>
        <time>2020-06-17T18:44:59Z</time>
      </trkpt>
      <trkpt lat="49.66043" lon="0.19463">
        <ele>110.8</ele>
        <time>2020-06-17T18:45:00Z</time>
      </trkpt>
      <trkpt lat="49.66049" lon="0.19464">
        <ele>110.9</ele>
        <time>2020-06-17T18:45:01Z</time>
      </trkpt>
      <trkpt lat="49.66056" lon="0.19465">
        <ele>110.9</ele>
        <time>2020-06-17T18:45:02Z</time>
      </trkpt>
      <trkpt lat="49.66061" lon="0.19465">
        <ele>110.9</ele>
        <time>2020-06-17T18:45:03Z</time>
      </trkpt>
      <trkpt lat="49.66067" lon="0.19465">
        <ele>111</ele>
        <time>2020-06-17T18:45:04Z</time>
      </trkpt>
      <trkpt lat="49.66073" lon="0.19466">
        <ele>111</ele>
        <time>2020-06-17T18:45:05Z</time>
      </trkpt>
      <trkpt lat="49.66079" lon="0.19468">
        <ele>111.1</ele>
        <time>2020-06-17T18:45:06Z</time>
      </trkpt>
      <trkpt lat="49.66085" lon="0.19469">
        <ele>111.2</ele>
        <time>2020-06-17T18:45:07Z</time>
      </trkpt>
      <trkpt lat="49.66091" lon="0.19469">
        <ele>111.3</ele>
        <time>2020-06-17T18:45:08Z</time>
      </trkpt>
      <trkpt lat="49.66097" lon="0.1947">
        <ele>111.4</ele>
        <time>2020-06-17T18:45:09Z</time>
      </trkpt>
      <trkpt lat="49.66103" lon="0.1947">
        <ele>111.5</ele>
        <time>2020-06-17T18:45:10Z</time>
      </trkpt>
      <trkpt lat="49.66109" lon="0.1947">
        <ele>111.6</ele>
        <time>2020-06-17T18:45:11Z</time>
      </trkpt>
      <trkpt lat="49.66115" lon="0.1947">
        <ele>111.7</ele>
        <time>2020-06-17T18:45:12Z</time>
      </trkpt>
      <trkpt lat="49.6612" lon="0.19471">
        <ele>111.8</ele>
        <time>2020-06-17T18:45:13Z</time>
      </trkpt>
      <trkpt lat="49.66126" lon="0.19472">
        <ele>111.8</ele>
        <time>2020-06-17T18:45:14Z</time>
      </trkpt>
      <trkpt lat="49.66131" lon="0.19472">
        <ele>111.9</ele>
        <time>2020-06-17T18:45:15Z</time>
      </trkpt>
      <trkpt lat="49.66136" lon="0.19473">
        <ele>111.9</ele>
        <time>2020-06-17T18:45:16Z</time>
      </trkpt>
      <trkpt lat="49.66142" lon="0.19475">
        <ele>112</ele>
        <time>2020-06-17T18:45:17Z</time>
      </trkpt>
      <trkpt lat="49.66147" lon="0.19475">
        <ele>112</ele>
        <time>2020-06-17T18:45:18Z</time>
      </trkpt>
      <trkpt lat="49.66152" lon="0.19474">
        <ele>112.1</ele>
        <time>2020-06-17T18:45:19Z</time>
      </trkpt>
      <trkpt lat="49.66157" lon="0.19474">
        <ele>112.1</ele>
        <time>2020-06-17T18:45:20Z</time>
      </trkpt>
      <trkpt lat="49.66162" lon="0.19473">
        <ele>112.1</ele>
        <time>2020-06-17T18:45:21Z</time>
      </trkpt>
      <trkpt lat="49.66167" lon="0.19474">
        <ele>112.2</ele>
        <time>2020-06-17T18:45:22Z</time>
      </trkpt>
      <trkpt lat="49.66171" lon="0.19473">
        <ele>112.2</ele>
        <time>2020-06-17T18:45:23Z</time>
      </trkpt>
      <trkpt lat="49.66176" lon="0.19473">
        <ele>112.2</ele>
        <time>2020-06-17T18:45:24Z</time>
      </trkpt>
      <trkpt lat="49.66181" lon="0.19474">
        <ele>112.2</ele>
        <time>2020-06-17T18:45:25Z</time>
      </trkpt>
      <trkpt lat="49.66186" lon="0.19474">
        <ele>112.2</ele>
        <time>2020-06-17T18:45:26Z</time>
      </trkpt>
      <trkpt lat="49.66191" lon="0.19475">
        <ele>112.3</ele>
        <time>2020-06-17T18:45:27Z</time>
      </trkpt>
      <trkpt lat="49.66196" lon="0.19476">
        <ele>112.3</ele>
        <time>2020-06-17T18:45:28Z</time>
      </trkpt>
      <trkpt lat="49.66201" lon="0.19476">
        <ele>112.3</ele>
        <time>2020-06-17T18:45:29Z</time>
      </trkpt>
      <trkpt lat="49.66206" lon="0.19477">
        <ele>112.3</ele>
        <time>2020-06-17T18:45:30Z</time>
      </trkpt>
      <trkpt lat="49.66211" lon="0.19478">
        <ele>112.3</ele>
        <time>2020-06-17T18:45:31Z</time>
      </trkpt>
      <trkpt lat="49.66216" lon="0.19479">
        <ele>112.3</ele>
        <time>2020-06-17T18:45:32Z</time>
      </trkpt>
      <trkpt lat="49.66221" lon="0.19479">
        <ele>112.3</ele>
        <time>2020-06-17T18:45:33Z</time>
      </trkpt>
      <trkpt lat="49.66226" lon="0.19479">
        <ele>112.3</ele>
        <time>2020-06-17T18:45:34Z</time>
      </trkpt>
      <trkpt lat="49.66231" lon="0.1948">
        <ele>112.3</ele>
        <time>2020-06-17T18:45:35Z</time>
      </trkpt>
      <trkpt lat="49.66235" lon="0.1948">
        <ele>112.3</ele>
        <time>2020-06-17T18:45:36Z</time>
      </trkpt>
      <trkpt lat="49.66241" lon="0.19481">
        <ele>112.3</ele>
        <time>2020-06-17T18:45:37Z</time>
      </trkpt>
      <trkpt lat="49.66246" lon="0.19482">
        <ele>112.3</ele>
        <time>2020-06-17T18:45:38Z</time>
      </trkpt>
      <trkpt lat="49.66251" lon="0.19483">
        <ele>112.3</ele>
        <time>2020-06-17T18:45:39Z</time>
      </trkpt>
      <trkpt lat="49.66256" lon="0.19484">
        <ele>112.2</ele>
        <time>2020-06-17T18:45:40Z</time>
      </trkpt>
      <trkpt lat="49.66262" lon="0.19484">
        <ele>112.2</ele>
        <time>2020-06-17T18:45:41Z</time>
      </trkpt>
      <trkpt lat="49.66267" lon="0.19485">
        <ele>112.2</ele>
        <time>2020-06-17T18:45:42Z</time>
      </trkpt>
      <trkpt lat="49.66273" lon="0.19486">
        <ele>112.2</ele>
        <time>2020-06-17T18:45:43Z</time>
      </trkpt>
      <trkpt lat="49.66278" lon="0.19487">
        <ele>112.2</ele>
        <time>2020-06-17T18:45:44Z</time>
      </trkpt>
      <trkpt lat="49.66283" lon="0.19488">
        <ele>112.2</ele>
        <time>2020-06-17T18:45:45Z</time>
      </trkpt>
      <trkpt lat="49.66288" lon="0.19488">
        <ele>112.2</ele>
        <time>2020-06-17T18:45:46Z</time>
      </trkpt>
      <trkpt lat="49.66292" lon="0.19488">
        <ele>112.2</ele>
        <time>2020-06-17T18:45:47Z</time>
      </trkpt>
      <trkpt lat="49.66297" lon="0.19488">
        <ele>112.2</ele>
        <time>2020-06-17T18:45:48Z</time>
      </trkpt>
      <trkpt lat="49.66303" lon="0.19488">
        <ele>112.2</ele>
        <time>2020-06-17T18:45:49Z</time>
      </trkpt>
      <trkpt lat="49.66307" lon="0.19487">
        <ele>112.2</ele>
        <time>2020-06-17T18:45:50Z</time>
      </trkpt>
      <trkpt lat="49.66313" lon="0.19488">
        <ele>112.2</ele>
        <time>2020-06-17T18:45:51Z</time>
      </trkpt>
      <trkpt lat="49.6632" lon="0.19489">
        <ele>112.1</ele>
        <time>2020-06-17T18:45:52Z</time>
      </trkpt>
      <trkpt lat="49.66324" lon="0.19491">
        <ele>112.1</ele>
        <time>2020-06-17T18:45:53Z</time>
      </trkpt>
      <trkpt lat="49.6633" lon="0.19492">
        <ele>112.1</ele>
        <time>2020-06-17T18:45:54Z</time>
      </trkpt>
      <trkpt lat="49.66336" lon="0.19493">
        <ele>112</ele>
        <time>2020-06-17T18:45:55Z</time>
      </trkpt>
      <trkpt lat="49.66341" lon="0.19492">
        <ele>112</ele>
        <time>2020-06-17T18:45:56Z</time>
      </trkpt>
      <trkpt lat="49.66347" lon="0.19492">
        <ele>111.9</ele>
        <time>2020-06-17T18:45:57Z</time>
      </trkpt>
      <trkpt lat="49.66352" lon="0.19492">
        <ele>111.8</ele>
        <time>2020-06-17T18:45:58Z</time>
      </trkpt>
      <trkpt lat="49.66359" lon="0.19491">
        <ele>111.8</ele>
        <time>2020-06-17T18:45:59Z</time>
      </trkpt>
      <trkpt lat="49.66365" lon="0.19492">
        <ele>111.7</ele>
        <time>2020-06-17T18:46:00Z</time>
      </trkpt>
      <trkpt lat="49.66371" lon="0.19493">
        <ele>111.6</ele>
        <time>2020-06-17T18:46:01Z</time>
      </trkpt>
      <trkpt lat="49.66376" lon="0.19493">
        <ele>111.6</ele>
        <time>2020-06-17T18:46:02Z</time>
      </trkpt>
      <trkpt lat="49.66381" lon="0.19493">
        <ele>111.5</ele>
        <time>2020-06-17T18:46:03Z</time>
      </trkpt>
      <trkpt lat="49.66386" lon="0.19494">
        <ele>111.4</ele>
        <time>2020-06-17T18:46:04Z</time>
      </trkpt>
      <trkpt lat="49.66391" lon="0.19494">
        <ele>111.3</ele>
        <time>2020-06-17T18:46:05Z</time>
      </trkpt>
      <trkpt lat="49.66396" lon="0.19495">
        <ele>111.2</ele>
        <time>2020-06-17T18:46:06Z</time>
      </trkpt>
      <trkpt lat="49.66402" lon="0.19495">
        <ele>111.1</ele>
        <time>2020-06-17T18:46:07Z</time>
      </trkpt>
      <trkpt lat="49.66407" lon="0.19495">
        <ele>111</ele>
        <time>2020-06-17T18:46:08Z</time>
      </trkpt>
      <trkpt lat="49.66413" lon="0.19496">
        <ele>110.9</ele>
        <time>2020-06-17T18:46:09Z</time>
      </trkpt>
      <trkpt lat="49.66418" lon="0.19497">
        <ele>110.7</ele>
        <time>2020-06-17T18:46:10Z</time>
      </trkpt>
      <trkpt lat="49.66423" lon="0.19498">
        <ele>110.6</ele>
        <time>2020-06-17T18:46:11Z</time>
      </trkpt>
      <trkpt lat="49.66429" lon="0.19499">
        <ele>110.4</ele>
        <time>2020-06-17T18:46:12Z</time>
      </trkpt>
      <trkpt lat="49.66434" lon="0.19499">
        <ele>110.3</ele>
        <time>2020-06-17T18:46:13Z</time>
      </trkpt>
      <trkpt lat="49.6644" lon="0.195">
        <ele>110.1</ele>
        <time>2020-06-17T18:46:14Z</time>
      </trkpt>
      <trkpt lat="49.66447" lon="0.19501">
        <ele>110</ele>
        <time>2020-06-17T18:46:15Z</time>
      </trkpt>
      <trkpt lat="49.66453" lon="0.19502">
        <ele>109.8</ele>
        <time>2020-06-17T18:46:16Z</time>
      </trkpt>
      <trkpt lat="49.66459" lon="0.19501">
        <ele>109.7</ele>
        <time>2020-06-17T18:46:17Z</time>
      </trkpt>
      <trkpt lat="49.66466" lon="0.19501">
        <ele>109.3</ele>
        <time>2020-06-17T18:46:18Z</time>
      </trkpt>
      <trkpt lat="49.66473" lon="0.19501">
        <ele>109</ele>
        <time>2020-06-17T18:46:19Z</time>
      </trkpt>
      <trkpt lat="49.66479" lon="0.19501">
        <ele>108.8</ele>
        <time>2020-06-17T18:46:20Z</time>
      </trkpt>
      <trkpt lat="49.66486" lon="0.19501">
        <ele>108.5</ele>
        <time>2020-06-17T18:46:21Z</time>
      </trkpt>
      <trkpt lat="49.66493" lon="0.19503">
        <ele>108.2</ele>
        <time>2020-06-17T18:46:22Z</time>
      </trkpt>
      <trkpt lat="49.66499" lon="0.19504">
        <ele>108</ele>
        <time>2020-06-17T18:46:23Z</time>
      </trkpt>
      <trkpt lat="49.66507" lon="0.19505">
        <ele>107.6</ele>
        <time>2020-06-17T18:46:24Z</time>
      </trkpt>
      <trkpt lat="49.66514" lon="0.19507">
        <ele>107.3</ele>
        <time>2020-06-17T18:46:25Z</time>
      </trkpt>
      <trkpt lat="49.66521" lon="0.19509">
        <ele>107.1</ele>
        <time>2020-06-17T18:46:26Z</time>
      </trkpt>
      <trkpt lat="49.66529" lon="0.1951">
        <ele>106.8</ele>
        <time>2020-06-17T18:46:27Z</time>
      </trkpt>
      <trkpt lat="49.66536" lon="0.19511">
        <ele>106.5</ele>
        <time>2020-06-17T18:46:28Z</time>
      </trkpt>
      <trkpt lat="49.66544" lon="0.19511">
        <ele>106.3</ele>
        <time>2020-06-17T18:46:29Z</time>
      </trkpt>
      <trkpt lat="49.66552" lon="0.19512">
        <ele>106</ele>
        <time>2020-06-17T18:46:30Z</time>
      </trkpt>
      <trkpt lat="49.6656" lon="0.19513">
        <ele>105.7</ele>
        <time>2020-06-17T18:46:31Z</time>
      </trkpt>
      <trkpt lat="49.66568" lon="0.19513">
        <ele>105.4</ele>
        <time>2020-06-17T18:46:32Z</time>
      </trkpt>
      <trkpt lat="49.66576" lon="0.19514">
        <ele>105.1</ele>
        <time>2020-06-17T18:46:33Z</time>
      </trkpt>
      <trkpt lat="49.66584" lon="0.19515">
        <ele>104.8</ele>
        <time>2020-06-17T18:46:34Z</time>
      </trkpt>
      <trkpt lat="49.66591" lon="0.19515">
        <ele>104.6</ele>
        <time>2020-06-17T18:46:35Z</time>
      </trkpt>
      <trkpt lat="49.66599" lon="0.19516">
        <ele>104.3</ele>
        <time>2020-06-17T18:46:36Z</time>
      </trkpt>
      <trkpt lat="49.66606" lon="0.19517">
        <ele>104.1</ele>
        <time>2020-06-17T18:46:37Z</time>
      </trkpt>
      <trkpt lat="49.66614" lon="0.19518">
        <ele>103.9</ele>
        <time>2020-06-17T18:46:38Z</time>
      </trkpt>
      <trkpt lat="49.66621" lon="0.19519">
        <ele>103.7</ele>
        <time>2020-06-17T18:46:39Z</time>
      </trkpt>
      <trkpt lat="49.66629" lon="0.1952">
        <ele>103.5</ele>
        <time>2020-06-17T18:46:40Z</time>
      </trkpt>
      <trkpt lat="49.66636" lon="0.19521">
        <ele>103.3</ele>
        <time>2020-06-17T18:46:41Z</time>
      </trkpt>
      <trkpt lat="49.66644" lon="0.19523">
        <ele>103.2</ele>
        <time>2020-06-17T18:46:42Z</time>
      </trkpt>
      <trkpt lat="49.66651" lon="0.19524">
        <ele>103.1</ele>
        <time>2020-06-17T18:46:43Z</time>
      </trkpt>
      <trkpt lat="49.66658" lon="0.19526">
        <ele>103</ele>
        <time>2020-06-17T18:46:44Z</time>
      </trkpt>
      <trkpt lat="49.66665" lon="0.19528">
        <ele>102.9</ele>
        <time>2020-06-17T18:46:45Z</time>
      </trkpt>
      <trkpt lat="49.66672" lon="0.19528">
        <ele>102.8</ele>
        <time>2020-06-17T18:46:46Z</time>
      </trkpt>
      <trkpt lat="49.66679" lon="0.19529">
        <ele>102.7</ele>
        <time>2020-06-17T18:46:47Z</time>
      </trkpt>
      <trkpt lat="49.66686" lon="0.1953">
        <ele>102.7</ele>
        <time>2020-06-17T18:46:48Z</time>
      </trkpt>
      <trkpt lat="49.66693" lon="0.19531">
        <ele>102.6</ele>
        <time>2020-06-17T18:46:49Z</time>
      </trkpt>
      <trkpt lat="49.667" lon="0.19531">
        <ele>102.5</ele>
        <time>2020-06-17T18:46:50Z</time>
      </trkpt>
      <trkpt lat="49.66707" lon="0.1953">
        <ele>102.4</ele>
        <time>2020-06-17T18:46:51Z</time>
      </trkpt>
      <trkpt lat="49.66714" lon="0.1953">
        <ele>102.3</ele>
        <time>2020-06-17T18:46:52Z</time>
      </trkpt>
      <trkpt lat="49.66721" lon="0.1953">
        <ele>102.2</ele>
        <time>2020-06-17T18:46:53Z</time>
      </trkpt>
      <trkpt lat="49.66728" lon="0.19531">
        <ele>102.2</ele>
        <time>2020-06-17T18:46:54Z</time>
      </trkpt>
      <trkpt lat="49.66734" lon="0.19531">
        <ele>102.2</ele>
        <time>2020-06-17T18:46:55Z</time>
      </trkpt>
      <trkpt lat="49.66741" lon="0.19531">
        <ele>102.2</ele>
        <time>2020-06-17T18:46:56Z</time>
      </trkpt>
      <trkpt lat="49.66748" lon="0.19531">
        <ele>102.1</ele>
        <time>2020-06-17T18:46:57Z</time>
      </trkpt>
      <trkpt lat="49.66755" lon="0.19531">
        <ele>102.1</ele>
        <time>2020-06-17T18:46:58Z</time>
      </trkpt>
      <trkpt lat="49.66762" lon="0.19531">
        <ele>102.1</ele>
        <time>2020-06-17T18:46:59Z</time>
      </trkpt>
      <trkpt lat="49.66769" lon="0.19532">
        <ele>102</ele>
        <time>2020-06-17T18:47:00Z</time>
      </trkpt>
      <trkpt lat="49.66775" lon="0.19532">
        <ele>102</ele>
        <time>2020-06-17T18:47:01Z</time>
      </trkpt>
      <trkpt lat="49.66782" lon="0.19533">
        <ele>102.1</ele>
        <time>2020-06-17T18:47:02Z</time>
      </trkpt>
      <trkpt lat="49.66788" lon="0.19534">
        <ele>102.1</ele>
        <time>2020-06-17T18:47:03Z</time>
      </trkpt>
      <trkpt lat="49.66795" lon="0.19535">
        <ele>102.1</ele>
        <time>2020-06-17T18:47:04Z</time>
      </trkpt>
      <trkpt lat="49.66801" lon="0.19535">
        <ele>102.1</ele>
        <time>2020-06-17T18:47:05Z</time>
      </trkpt>
      <trkpt lat="49.66808" lon="0.19536">
        <ele>102.1</ele>
        <time>2020-06-17T18:47:06Z</time>
      </trkpt>
      <trkpt lat="49.66815" lon="0.19537">
        <ele>102.2</ele>
        <time>2020-06-17T18:47:07Z</time>
      </trkpt>
      <trkpt lat="49.66821" lon="0.19537">
        <ele>102.2</ele>
        <time>2020-06-17T18:47:08Z</time>
      </trkpt>
      <trkpt lat="49.66827" lon="0.19538">
        <ele>102.2</ele>
        <time>2020-06-17T18:47:09Z</time>
      </trkpt>
      <trkpt lat="49.66834" lon="0.19539">
        <ele>102.2</ele>
        <time>2020-06-17T18:47:10Z</time>
      </trkpt>
      <trkpt lat="49.6684" lon="0.1954">
        <ele>102.2</ele>
        <time>2020-06-17T18:47:11Z</time>
      </trkpt>
      <trkpt lat="49.66845" lon="0.1954">
        <ele>102.3</ele>
        <time>2020-06-17T18:47:12Z</time>
      </trkpt>
      <trkpt lat="49.66851" lon="0.19539">
        <ele>102.3</ele>
        <time>2020-06-17T18:47:13Z</time>
      </trkpt>
      <trkpt lat="49.66857" lon="0.19539">
        <ele>102.3</ele>
        <time>2020-06-17T18:47:14Z</time>
      </trkpt>
      <trkpt lat="49.66863" lon="0.1954">
        <ele>102.3</ele>
        <time>2020-06-17T18:47:15Z</time>
      </trkpt>
      <trkpt lat="49.6687" lon="0.19541">
        <ele>102.3</ele>
        <time>2020-06-17T18:47:16Z</time>
      </trkpt>
      <trkpt lat="49.66876" lon="0.19543">
        <ele>102.4</ele>
        <time>2020-06-17T18:47:17Z</time>
      </trkpt>
      <trkpt lat="49.66882" lon="0.19544">
        <ele>102.4</ele>
        <time>2020-06-17T18:47:18Z</time>
      </trkpt>
      <trkpt lat="49.66889" lon="0.19545">
        <ele>102.4</ele>
        <time>2020-06-17T18:47:19Z</time>
      </trkpt>
      <trkpt lat="49.66895" lon="0.19546">
        <ele>102.5</ele>
        <time>2020-06-17T18:47:20Z</time>
      </trkpt>
      <trkpt lat="49.66901" lon="0.19546">
        <ele>102.5</ele>
        <time>2020-06-17T18:47:21Z</time>
      </trkpt>
      <trkpt lat="49.66907" lon="0.19546">
        <ele>102.6</ele>
        <time>2020-06-17T18:47:22Z</time>
      </trkpt>
      <trkpt lat="49.66912" lon="0.19546">
        <ele>102.6</ele>
        <time>2020-06-17T18:47:23Z</time>
      </trkpt>
      <trkpt lat="49.66917" lon="0.19546">
        <ele>102.7</ele>
        <time>2020-06-17T18:47:24Z</time>
      </trkpt>
      <trkpt lat="49.66923" lon="0.19546">
        <ele>102.8</ele>
        <time>2020-06-17T18:47:25Z</time>
      </trkpt>
      <trkpt lat="49.66928" lon="0.19547">
        <ele>102.9</ele>
        <time>2020-06-17T18:47:26Z</time>
      </trkpt>
      <trkpt lat="49.66934" lon="0.19548">
        <ele>103</ele>
        <time>2020-06-17T18:47:27Z</time>
      </trkpt>
      <trkpt lat="49.66939" lon="0.19548">
        <ele>103</ele>
        <time>2020-06-17T18:47:28Z</time>
      </trkpt>
      <trkpt lat="49.66947" lon="0.1955">
        <ele>103</ele>
        <time>2020-06-17T18:47:29Z</time>
      </trkpt>
      <trkpt lat="49.66952" lon="0.19551">
        <ele>103</ele>
        <time>2020-06-17T18:47:30Z</time>
      </trkpt>
      <trkpt lat="49.66958" lon="0.19551">
        <ele>103</ele>
        <time>2020-06-17T18:47:31Z</time>
      </trkpt>
      <trkpt lat="49.66965" lon="0.19551">
        <ele>103</ele>
        <time>2020-06-17T18:47:32Z</time>
      </trkpt>
      <trkpt lat="49.66971" lon="0.19552">
        <ele>102.9</ele>
        <time>2020-06-17T18:47:33Z</time>
      </trkpt>
      <trkpt lat="49.66978" lon="0.19553">
        <ele>102.9</ele>
        <time>2020-06-17T18:47:34Z</time>
      </trkpt>
      <trkpt lat="49.66985" lon="0.19553">
        <ele>102.8</ele>
        <time>2020-06-17T18:47:35Z</time>
      </trkpt>
      <trkpt lat="49.66992" lon="0.19554">
        <ele>102.8</ele>
        <time>2020-06-17T18:47:36Z</time>
      </trkpt>
      <trkpt lat="49.66999" lon="0.19554">
        <ele>102.7</ele>
        <time>2020-06-17T18:47:37Z</time>
      </trkpt>
      <trkpt lat="49.67006" lon="0.19554">
        <ele>102.7</ele>
        <time>2020-06-17T18:47:38Z</time>
      </trkpt>
      <trkpt lat="49.67013" lon="0.19555">
        <ele>102.7</ele>
        <time>2020-06-17T18:47:39Z</time>
      </trkpt>
      <trkpt lat="49.67018" lon="0.19556">
        <ele>102.7</ele>
        <time>2020-06-17T18:47:40Z</time>
      </trkpt>
      <trkpt lat="49.67026" lon="0.19557">
        <ele>102.7</ele>
        <time>2020-06-17T18:47:41Z</time>
      </trkpt>
      <trkpt lat="49.67033" lon="0.19558">
        <ele>102.7</ele>
        <time>2020-06-17T18:47:42Z</time>
      </trkpt>
      <trkpt lat="49.67039" lon="0.19558">
        <ele>102.8</ele>
        <time>2020-06-17T18:47:43Z</time>
      </trkpt>
      <trkpt lat="49.67046" lon="0.19559">
        <ele>102.7</ele>
        <time>2020-06-17T18:47:44Z</time>
      </trkpt>
      <trkpt lat="49.67052" lon="0.19559">
        <ele>102.6</ele>
        <time>2020-06-17T18:47:45Z</time>
      </trkpt>
      <trkpt lat="49.67058" lon="0.1956">
        <ele>102.6</ele>
        <time>2020-06-17T18:47:46Z</time>
      </trkpt>
      <trkpt lat="49.67064" lon="0.19561">
        <ele>102.6</ele>
        <time>2020-06-17T18:47:47Z</time>
      </trkpt>
      <trkpt lat="49.67071" lon="0.19561">
        <ele>102.6</ele>
        <time>2020-06-17T18:47:48Z</time>
      </trkpt>
      <trkpt lat="49.67077" lon="0.19561">
        <ele>102.7</ele>
        <time>2020-06-17T18:47:49Z</time>
      </trkpt>
      <trkpt lat="49.67083" lon="0.19562">
        <ele>102.8</ele>
        <time>2020-06-17T18:47:50Z</time>
      </trkpt>
      <trkpt lat="49.67089" lon="0.19562">
        <ele>102.9</ele>
        <time>2020-06-17T18:47:51Z</time>
      </trkpt>
      <trkpt lat="49.67094" lon="0.19563">
        <ele>103</ele>
        <time>2020-06-17T18:47:52Z</time>
      </trkpt>
      <trkpt lat="49.671" lon="0.19564">
        <ele>103.2</ele>
        <time>2020-06-17T18:47:53Z</time>
      </trkpt>
      <trkpt lat="49.67105" lon="0.19563">
        <ele>103.3</ele>
        <time>2020-06-17T18:47:54Z</time>
      </trkpt>
      <trkpt lat="49.67111" lon="0.19564">
        <ele>103.5</ele>
        <time>2020-06-17T18:47:55Z</time>
      </trkpt>
      <trkpt lat="49.67115" lon="0.19564">
        <ele>103.6</ele>
        <time>2020-06-17T18:47:56Z</time>
      </trkpt>
      <trkpt lat="49.67121" lon="0.19565">
        <ele>103.8</ele>
        <time>2020-06-17T18:47:57Z</time>
      </trkpt>
      <trkpt lat="49.67127" lon="0.19566">
        <ele>103.9</ele>
        <time>2020-06-17T18:47:58Z</time>
      </trkpt>
      <trkpt lat="49.67131" lon="0.19566">
        <ele>104.1</ele>
        <time>2020-06-17T18:47:59Z</time>
      </trkpt>
      <trkpt lat="49.67136" lon="0.19567">
        <ele>104.2</ele>
        <time>2020-06-17T18:48:00Z</time>
      </trkpt>
      <trkpt lat="49.67142" lon="0.19568">
        <ele>104.4</ele>
        <time>2020-06-17T18:48:01Z</time>
      </trkpt>
      <trkpt lat="49.67146" lon="0.19569">
        <ele>104.6</ele>
        <time>2020-06-17T18:48:02Z</time>
      </trkpt>
      <trkpt lat="49.67152" lon="0.19569">
        <ele>104.7</ele>
        <time>2020-06-17T18:48:03Z</time>
      </trkpt>
      <trkpt lat="49.67157" lon="0.19569">
        <ele>104.9</ele>
        <time>2020-06-17T18:48:04Z</time>
      </trkpt>
      <trkpt lat="49.67163" lon="0.19571">
        <ele>105.1</ele>
        <time>2020-06-17T18:48:05Z</time>
      </trkpt>
      <trkpt lat="49.67168" lon="0.19571">
        <ele>105.2</ele>
        <time>2020-06-17T18:48:06Z</time>
      </trkpt>
      <trkpt lat="49.67174" lon="0.19572">
        <ele>105.4</ele>
        <time>2020-06-17T18:48:07Z</time>
      </trkpt>
      <trkpt lat="49.67178" lon="0.19572">
        <ele>105.5</ele>
        <time>2020-06-17T18:48:08Z</time>
      </trkpt>
      <trkpt lat="49.67182" lon="0.19571">
        <ele>105.6</ele>
        <time>2020-06-17T18:48:09Z</time>
      </trkpt>
      <trkpt lat="49.67187" lon="0.19571">
        <ele>105.8</ele>
        <time>2020-06-17T18:48:10Z</time>
      </trkpt>
      <trkpt lat="49.67192" lon="0.19572">
        <ele>105.9</ele>
        <time>2020-06-17T18:48:11Z</time>
      </trkpt>
      <trkpt lat="49.67197" lon="0.19573">
        <ele>106.1</ele>
        <time>2020-06-17T18:48:12Z</time>
      </trkpt>
      <trkpt lat="49.67202" lon="0.19574">
        <ele>106.2</ele>
        <time>2020-06-17T18:48:13Z</time>
      </trkpt>
      <trkpt lat="49.67207" lon="0.19575">
        <ele>106.3</ele>
        <time>2020-06-17T18:48:14Z</time>
      </trkpt>
      <trkpt lat="49.67211" lon="0.19576">
        <ele>106.5</ele>
        <time>2020-06-17T18:48:15Z</time>
      </trkpt>
      <trkpt lat="49.67215" lon="0.19578">
        <ele>106.6</ele>
        <time>2020-06-17T18:48:16Z</time>
      </trkpt>
      <trkpt lat="49.6722" lon="0.19579">
        <ele>106.7</ele>
        <time>2020-06-17T18:48:17Z</time>
      </trkpt>
      <trkpt lat="49.67225" lon="0.1958">
        <ele>106.9</ele>
        <time>2020-06-17T18:48:18Z</time>
      </trkpt>
      <trkpt lat="49.67229" lon="0.19582">
        <ele>107</ele>
        <time>2020-06-17T18:48:19Z</time>
      </trkpt>
      <trkpt lat="49.67234" lon="0.19584">
        <ele>107.2</ele>
        <time>2020-06-17T18:48:20Z</time>
      </trkpt>
      <trkpt lat="49.67238" lon="0.19585">
        <ele>107.3</ele>
        <time>2020-06-17T18:48:21Z</time>
      </trkpt>
      <trkpt lat="49.67242" lon="0.19587">
        <ele>107.4</ele>
        <time>2020-06-17T18:48:22Z</time>
      </trkpt>
      <trkpt lat="49.67247" lon="0.19589">
        <ele>107.6</ele>
        <time>2020-06-17T18:48:23Z</time>
      </trkpt>
      <trkpt lat="49.67252" lon="0.19591">
        <ele>107.7</ele>
        <time>2020-06-17T18:48:24Z</time>
      </trkpt>
      <trkpt lat="49.67258" lon="0.19592">
        <ele>107.8</ele>
        <time>2020-06-17T18:48:25Z</time>
      </trkpt>
      <trkpt lat="49.67262" lon="0.19594">
        <ele>108</ele>
        <time>2020-06-17T18:48:26Z</time>
      </trkpt>
      <trkpt lat="49.67267" lon="0.19596">
        <ele>108.1</ele>
        <time>2020-06-17T18:48:27Z</time>
      </trkpt>
      <trkpt lat="49.67272" lon="0.19598">
        <ele>108.2</ele>
        <time>2020-06-17T18:48:28Z</time>
      </trkpt>
      <trkpt lat="49.67276" lon="0.196">
        <ele>108.3</ele>
        <time>2020-06-17T18:48:29Z</time>
      </trkpt>
      <trkpt lat="49.6728" lon="0.19602">
        <ele>108.4</ele>
        <time>2020-06-17T18:48:30Z</time>
      </trkpt>
      <trkpt lat="49.67285" lon="0.19604">
        <ele>108.5</ele>
        <time>2020-06-17T18:48:31Z</time>
      </trkpt>
      <trkpt lat="49.6729" lon="0.19606">
        <ele>108.6</ele>
        <time>2020-06-17T18:48:32Z</time>
      </trkpt>
      <trkpt lat="49.67294" lon="0.19609">
        <ele>108.7</ele>
        <time>2020-06-17T18:48:33Z</time>
      </trkpt>
      <trkpt lat="49.67298" lon="0.19612">
        <ele>108.8</ele>
        <time>2020-06-17T18:48:34Z</time>
      </trkpt>
      <trkpt lat="49.67302" lon="0.19615">
        <ele>108.9</ele>
        <time>2020-06-17T18:48:35Z</time>
      </trkpt>
      <trkpt lat="49.67307" lon="0.19618">
        <ele>109</ele>
        <time>2020-06-17T18:48:36Z</time>
      </trkpt>
      <trkpt lat="49.67312" lon="0.19622">
        <ele>109.1</ele>
        <time>2020-06-17T18:48:37Z</time>
      </trkpt>
      <trkpt lat="49.67316" lon="0.19624">
        <ele>109.2</ele>
        <time>2020-06-17T18:48:38Z</time>
      </trkpt>
      <trkpt lat="49.67321" lon="0.19626">
        <ele>109.4</ele>
        <time>2020-06-17T18:48:39Z</time>
      </trkpt>
      <trkpt lat="49.67324" lon="0.19628">
        <ele>109.5</ele>
        <time>2020-06-17T18:48:40Z</time>
      </trkpt>
      <trkpt lat="49.67328" lon="0.1963">
        <ele>109.6</ele>
        <time>2020-06-17T18:48:41Z</time>
      </trkpt>
      <trkpt lat="49.67332" lon="0.19633">
        <ele>109.8</ele>
        <time>2020-06-17T18:48:42Z</time>
      </trkpt>
      <trkpt lat="49.67337" lon="0.19636">
        <ele>109.9</ele>
        <time>2020-06-17T18:48:43Z</time>
      </trkpt>
      <trkpt lat="49.67341" lon="0.19638">
        <ele>110.1</ele>
        <time>2020-06-17T18:48:44Z</time>
      </trkpt>
      <trkpt lat="49.67346" lon="0.19641">
        <ele>110.2</ele>
        <time>2020-06-17T18:48:45Z</time>
      </trkpt>
      <trkpt lat="49.6735" lon="0.19643">
        <ele>110.3</ele>
        <time>2020-06-17T18:48:46Z</time>
      </trkpt>
      <trkpt lat="49.67354" lon="0.19645">
        <ele>110.5</ele>
        <time>2020-06-17T18:48:47Z</time>
      </trkpt>
      <trkpt lat="49.67359" lon="0.19647">
        <ele>110.6</ele>
        <time>2020-06-17T18:48:48Z</time>
      </trkpt>
      <trkpt lat="49.67364" lon="0.1965">
        <ele>110.7</ele>
        <time>2020-06-17T18:48:49Z</time>
      </trkpt>
      <trkpt lat="49.67369" lon="0.19652">
        <ele>110.8</ele>
        <time>2020-06-17T18:48:50Z</time>
      </trkpt>
      <trkpt lat="49.67373" lon="0.19655">
        <ele>110.9</ele>
        <time>2020-06-17T18:48:51Z</time>
      </trkpt>
      <trkpt lat="49.67378" lon="0.19659">
        <ele>111.1</ele>
        <time>2020-06-17T18:48:52Z</time>
      </trkpt>
      <trkpt lat="49.67382" lon="0.1966">
        <ele>111.2</ele>
        <time>2020-06-17T18:48:53Z</time>
      </trkpt>
      <trkpt lat="49.67387" lon="0.19663">
        <ele>111.3</ele>
        <time>2020-06-17T18:48:54Z</time>
      </trkpt>
      <trkpt lat="49.6739" lon="0.19664">
        <ele>111.4</ele>
        <time>2020-06-17T18:48:55Z</time>
      </trkpt>
      <trkpt lat="49.67395" lon="0.19667">
        <ele>111.5</ele>
        <time>2020-06-17T18:48:56Z</time>
      </trkpt>
      <trkpt lat="49.67399" lon="0.19669">
        <ele>111.6</ele>
        <time>2020-06-17T18:48:57Z</time>
      </trkpt>
      <trkpt lat="49.67403" lon="0.19671">
        <ele>111.7</ele>
        <time>2020-06-17T18:48:58Z</time>
      </trkpt>
      <trkpt lat="49.67407" lon="0.19673">
        <ele>111.8</ele>
        <time>2020-06-17T18:48:59Z</time>
      </trkpt>
      <trkpt lat="49.67411" lon="0.19675">
        <ele>111.9</ele>
        <time>2020-06-17T18:49:00Z</time>
      </trkpt>
      <trkpt lat="49.67415" lon="0.19677">
        <ele>112</ele>
        <time>2020-06-17T18:49:01Z</time>
      </trkpt>
      <trkpt lat="49.6742" lon="0.19679">
        <ele>112</ele>
        <time>2020-06-17T18:49:02Z</time>
      </trkpt>
      <trkpt lat="49.67424" lon="0.19682">
        <ele>112.1</ele>
        <time>2020-06-17T18:49:03Z</time>
      </trkpt>
      <trkpt lat="49.67428" lon="0.19683">
        <ele>112.1</ele>
        <time>2020-06-17T18:49:04Z</time>
      </trkpt>
      <trkpt lat="49.67432" lon="0.19684">
        <ele>112.1</ele>
        <time>2020-06-17T18:49:05Z</time>
      </trkpt>
      <trkpt lat="49.67436" lon="0.19685">
        <ele>112.2</ele>
        <time>2020-06-17T18:49:06Z</time>
      </trkpt>
      <trkpt lat="49.6744" lon="0.19687">
        <ele>112.2</ele>
        <time>2020-06-17T18:49:07Z</time>
      </trkpt>
      <trkpt lat="49.67445" lon="0.19689">
        <ele>112.2</ele>
        <time>2020-06-17T18:49:08Z</time>
      </trkpt>
      <trkpt lat="49.67449" lon="0.19692">
        <ele>112.3</ele>
        <time>2020-06-17T18:49:09Z</time>
      </trkpt>
      <trkpt lat="49.67454" lon="0.19695">
        <ele>112.2</ele>
        <time>2020-06-17T18:49:10Z</time>
      </trkpt>
      <trkpt lat="49.67458" lon="0.19697">
        <ele>112.2</ele>
        <time>2020-06-17T18:49:11Z</time>
      </trkpt>
      <trkpt lat="49.67462" lon="0.19699">
        <ele>112.2</ele>
        <time>2020-06-17T18:49:12Z</time>
      </trkpt>
      <trkpt lat="49.67467" lon="0.19701">
        <ele>112.2</ele>
        <time>2020-06-17T18:49:13Z</time>
      </trkpt>
      <trkpt lat="49.67471" lon="0.19703">
        <ele>112.1</ele>
        <time>2020-06-17T18:49:14Z</time>
      </trkpt>
      <trkpt lat="49.67475" lon="0.19706">
        <ele>112.1</ele>
        <time>2020-06-17T18:49:15Z</time>
      </trkpt>
      <trkpt lat="49.6748" lon="0.19708">
        <ele>112.1</ele>
        <time>2020-06-17T18:49:16Z</time>
      </trkpt>
      <trkpt lat="49.67484" lon="0.19711">
        <ele>112.1</ele>
        <time>2020-06-17T18:49:17Z</time>
      </trkpt>
      <trkpt lat="49.67489" lon="0.19714">
        <ele>112.1</ele>
        <time>2020-06-17T18:49:18Z</time>
      </trkpt>
      <trkpt lat="49.67493" lon="0.19716">
        <ele>112.1</ele>
        <time>2020-06-17T18:49:19Z</time>
      </trkpt>
      <trkpt lat="49.67498" lon="0.19719">
        <ele>112.1</ele>
        <time>2020-06-17T18:49:20Z</time>
      </trkpt>
      <trkpt lat="49.67503" lon="0.19722">
        <ele>112.1</ele>
        <time>2020-06-17T18:49:21Z</time>
      </trkpt>
      <trkpt lat="49.67508" lon="0.19724">
        <ele>112</ele>
        <time>2020-06-17T18:49:22Z</time>
      </trkpt>
      <trkpt lat="49.67513" lon="0.19727">
        <ele>111.9</ele>
        <time>2020-06-17T18:49:23Z</time>
      </trkpt>
      <trkpt lat="49.67518" lon="0.19729">
        <ele>111.8</ele>
        <time>2020-06-17T18:49:24Z</time>
      </trkpt>
      <trkpt lat="49.67523" lon="0.19733">
        <ele>111.7</ele>
        <time>2020-06-17T18:49:25Z</time>
      </trkpt>
      <trkpt lat="49.67528" lon="0.19736">
        <ele>111.6</ele>
        <time>2020-06-17T18:49:26Z</time>
      </trkpt>
      <trkpt lat="49.67533" lon="0.1974">
        <ele>111.5</ele>
        <time>2020-06-17T18:49:27Z</time>
      </trkpt>
      <trkpt lat="49.67539" lon="0.19744">
        <ele>111.3</ele>
        <time>2020-06-17T18:49:28Z</time>
      </trkpt>
      <trkpt lat="49.67544" lon="0.19746">
        <ele>111.2</ele>
        <time>2020-06-17T18:49:29Z</time>
      </trkpt>
      <trkpt lat="49.6755" lon="0.19749">
        <ele>111</ele>
        <time>2020-06-17T18:49:30Z</time>
      </trkpt>
      <trkpt lat="49.67556" lon="0.19752">
        <ele>110.8</ele>
        <time>2020-06-17T18:49:31Z</time>
      </trkpt>
      <trkpt lat="49.67561" lon="0.19756">
        <ele>110.6</ele>
        <time>2020-06-17T18:49:32Z</time>
      </trkpt>
      <trkpt lat="49.67567" lon="0.19759">
        <ele>110.5</ele>
        <time>2020-06-17T18:49:33Z</time>
      </trkpt>
      <trkpt lat="49.67573" lon="0.19763">
        <ele>110.3</ele>
        <time>2020-06-17T18:49:34Z</time>
      </trkpt>
      <trkpt lat="49.67578" lon="0.19766">
        <ele>110.1</ele>
        <time>2020-06-17T18:49:35Z</time>
      </trkpt>
      <trkpt lat="49.67582" lon="0.19767">
        <ele>110</ele>
        <time>2020-06-17T18:49:36Z</time>
      </trkpt>
      <trkpt lat="49.67588" lon="0.19771">
        <ele>109.8</ele>
        <time>2020-06-17T18:49:37Z</time>
      </trkpt>
      <trkpt lat="49.67594" lon="0.19774">
        <ele>109.6</ele>
        <time>2020-06-17T18:49:38Z</time>
      </trkpt>
      <trkpt lat="49.67601" lon="0.19777">
        <ele>109.3</ele>
        <time>2020-06-17T18:49:39Z</time>
      </trkpt>
      <trkpt lat="49.67606" lon="0.1978">
        <ele>109.1</ele>
        <time>2020-06-17T18:49:40Z</time>
      </trkpt>
      <trkpt lat="49.67613" lon="0.19784">
        <ele>108.8</ele>
        <time>2020-06-17T18:49:41Z</time>
      </trkpt>
      <trkpt lat="49.6762" lon="0.19788">
        <ele>108.5</ele>
        <time>2020-06-17T18:49:42Z</time>
      </trkpt>
      <trkpt lat="49.67626" lon="0.19792">
        <ele>108.3</ele>
        <time>2020-06-17T18:49:43Z</time>
      </trkpt>
      <trkpt lat="49.67631" lon="0.19793">
        <ele>108.1</ele>
        <time>2020-06-17T18:49:44Z</time>
      </trkpt>
      <trkpt lat="49.67637" lon="0.19796">
        <ele>108</ele>
        <time>2020-06-17T18:49:45Z</time>
      </trkpt>
      <trkpt lat="49.67643" lon="0.198">
        <ele>107.8</ele>
        <time>2020-06-17T18:49:46Z</time>
      </trkpt>
      <trkpt lat="49.67648" lon="0.19801">
        <ele>107.7</ele>
        <time>2020-06-17T18:49:47Z</time>
      </trkpt>
      <trkpt lat="49.67655" lon="0.19804">
        <ele>107.6</ele>
        <time>2020-06-17T18:49:48Z</time>
      </trkpt>
      <trkpt lat="49.6766" lon="0.19806">
        <ele>107.5</ele>
        <time>2020-06-17T18:49:49Z</time>
      </trkpt>
      <trkpt lat="49.67667" lon="0.1981">
        <ele>107.3</ele>
        <time>2020-06-17T18:49:50Z</time>
      </trkpt>
      <trkpt lat="49.67673" lon="0.19813">
        <ele>107.1</ele>
        <time>2020-06-17T18:49:51Z</time>
      </trkpt>
      <trkpt lat="49.67679" lon="0.19817">
        <ele>106.9</ele>
        <time>2020-06-17T18:49:52Z</time>
      </trkpt>
      <trkpt lat="49.67686" lon="0.19819">
        <ele>106.8</ele>
        <time>2020-06-17T18:49:53Z</time>
      </trkpt>
      <trkpt lat="49.67692" lon="0.19822">
        <ele>106.6</ele>
        <time>2020-06-17T18:49:54Z</time>
      </trkpt>
      <trkpt lat="49.67699" lon="0.19825">
        <ele>106.4</ele>
        <time>2020-06-17T18:49:55Z</time>
      </trkpt>
      <trkpt lat="49.67706" lon="0.19829">
        <ele>106.2</ele>
        <time>2020-06-17T18:49:56Z</time>
      </trkpt>
      <trkpt lat="49.67711" lon="0.19832">
        <ele>106.1</ele>
        <time>2020-06-17T18:49:57Z</time>
      </trkpt>
      <trkpt lat="49.67717" lon="0.19834">
        <ele>105.9</ele>
        <time>2020-06-17T18:49:58Z</time>
      </trkpt>
      <trkpt lat="49.67723" lon="0.19837">
        <ele>105.8</ele>
        <time>2020-06-17T18:49:59Z</time>
      </trkpt>
      <trkpt lat="49.6773" lon="0.19841">
        <ele>105.8</ele>
        <time>2020-06-17T18:50:00Z</time>
      </trkpt>
      <trkpt lat="49.67736" lon="0.19844">
        <ele>105.7</ele>
        <time>2020-06-17T18:50:01Z</time>
      </trkpt>
      <trkpt lat="49.67743" lon="0.1985">
        <ele>105.6</ele>
        <time>2020-06-17T18:50:02Z</time>
      </trkpt>
      <trkpt lat="49.6775" lon="0.19853">
        <ele>105.6</ele>
        <time>2020-06-17T18:50:03Z</time>
      </trkpt>
      <trkpt lat="49.67756" lon="0.19856">
        <ele>105.6</ele>
        <time>2020-06-17T18:50:04Z</time>
      </trkpt>
      <trkpt lat="49.67761" lon="0.19859">
        <ele>105.7</ele>
        <time>2020-06-17T18:50:05Z</time>
      </trkpt>
      <trkpt lat="49.67767" lon="0.19862">
        <ele>105.8</ele>
        <time>2020-06-17T18:50:06Z</time>
      </trkpt>
      <trkpt lat="49.67773" lon="0.19865">
        <ele>105.9</ele>
        <time>2020-06-17T18:50:07Z</time>
      </trkpt>
      <trkpt lat="49.67779" lon="0.19869">
        <ele>106</ele>
        <time>2020-06-17T18:50:08Z</time>
      </trkpt>
      <trkpt lat="49.67785" lon="0.19873">
        <ele>106</ele>
        <time>2020-06-17T18:50:09Z</time>
      </trkpt>
      <trkpt lat="49.67791" lon="0.19876">
        <ele>106.1</ele>
        <time>2020-06-17T18:50:10Z</time>
      </trkpt>
      <trkpt lat="49.67797" lon="0.19879">
        <ele>106.1</ele>
        <time>2020-06-17T18:50:11Z</time>
      </trkpt>
      <trkpt lat="49.67803" lon="0.19882">
        <ele>106.1</ele>
        <time>2020-06-17T18:50:12Z</time>
      </trkpt>
      <trkpt lat="49.67809" lon="0.19886">
        <ele>106.2</ele>
        <time>2020-06-17T18:50:13Z</time>
      </trkpt>
      <trkpt lat="49.67814" lon="0.19889">
        <ele>106.2</ele>
        <time>2020-06-17T18:50:14Z</time>
      </trkpt>
      <trkpt lat="49.67819" lon="0.19892">
        <ele>106.3</ele>
        <time>2020-06-17T18:50:15Z</time>
      </trkpt>
      <trkpt lat="49.67825" lon="0.19895">
        <ele>106.4</ele>
        <time>2020-06-17T18:50:16Z</time>
      </trkpt>
      <trkpt lat="49.6783" lon="0.19897">
        <ele>106.5</ele>
        <time>2020-06-17T18:50:17Z</time>
      </trkpt>
      <trkpt lat="49.67836" lon="0.199">
        <ele>106.5</ele>
        <time>2020-06-17T18:50:18Z</time>
      </trkpt>
      <trkpt lat="49.67841" lon="0.19902">
        <ele>106.6</ele>
        <time>2020-06-17T18:50:19Z</time>
      </trkpt>
      <trkpt lat="49.67846" lon="0.19905">
        <ele>106.6</ele>
        <time>2020-06-17T18:50:20Z</time>
      </trkpt>
      <trkpt lat="49.67852" lon="0.19908">
        <ele>106.7</ele>
        <time>2020-06-17T18:50:21Z</time>
      </trkpt>
      <trkpt lat="49.67857" lon="0.19911">
        <ele>106.8</ele>
        <time>2020-06-17T18:50:22Z</time>
      </trkpt>
      <trkpt lat="49.6786" lon="0.19913">
        <ele>106.8</ele>
        <time>2020-06-17T18:50:23Z</time>
      </trkpt>
      <trkpt lat="49.67865" lon="0.19916">
        <ele>106.8</ele>
        <time>2020-06-17T18:50:24Z</time>
      </trkpt>
      <trkpt lat="49.6787" lon="0.1992">
        <ele>106.9</ele>
        <time>2020-06-17T18:50:25Z</time>
      </trkpt>
      <trkpt lat="49.67874" lon="0.19923">
        <ele>107</ele>
        <time>2020-06-17T18:50:26Z</time>
      </trkpt>
      <trkpt lat="49.6788" lon="0.19926">
        <ele>107.1</ele>
        <time>2020-06-17T18:50:27Z</time>
      </trkpt>
      <trkpt lat="49.67886" lon="0.19929">
        <ele>107.1</ele>
        <time>2020-06-17T18:50:28Z</time>
      </trkpt>
      <trkpt lat="49.67891" lon="0.19932">
        <ele>107.2</ele>
        <time>2020-06-17T18:50:29Z</time>
      </trkpt>
      <trkpt lat="49.67897" lon="0.19935">
        <ele>107.3</ele>
        <time>2020-06-17T18:50:30Z</time>
      </trkpt>
      <trkpt lat="49.67902" lon="0.19937">
        <ele>107.3</ele>
        <time>2020-06-17T18:50:31Z</time>
      </trkpt>
      <trkpt lat="49.67907" lon="0.19941">
        <ele>107.4</ele>
        <time>2020-06-17T18:50:32Z</time>
      </trkpt>
      <trkpt lat="49.67912" lon="0.19943">
        <ele>107.4</ele>
        <time>2020-06-17T18:50:33Z</time>
      </trkpt>
      <trkpt lat="49.67917" lon="0.19946">
        <ele>107.5</ele>
        <time>2020-06-17T18:50:34Z</time>
      </trkpt>
      <trkpt lat="49.67923" lon="0.1995">
        <ele>107.6</ele>
        <time>2020-06-17T18:50:35Z</time>
      </trkpt>
      <trkpt lat="49.67926" lon="0.19952">
        <ele>107.6</ele>
        <time>2020-06-17T18:50:36Z</time>
      </trkpt>
      <trkpt lat="49.6793" lon="0.19954">
        <ele>107.7</ele>
        <time>2020-06-17T18:50:37Z</time>
      </trkpt>
      <trkpt lat="49.67935" lon="0.19957">
        <ele>107.7</ele>
        <time>2020-06-17T18:50:38Z</time>
      </trkpt>
      <trkpt lat="49.67941" lon="0.19959">
        <ele>107.8</ele>
        <time>2020-06-17T18:50:39Z</time>
      </trkpt>
      <trkpt lat="49.67947" lon="0.19961">
        <ele>107.8</ele>
        <time>2020-06-17T18:50:40Z</time>
      </trkpt>
      <trkpt lat="49.67953" lon="0.19965">
        <ele>107.9</ele>
        <time>2020-06-17T18:50:41Z</time>
      </trkpt>
      <trkpt lat="49.6796" lon="0.19968">
        <ele>107.9</ele>
        <time>2020-06-17T18:50:42Z</time>
      </trkpt>
      <trkpt lat="49.67966" lon="0.1997">
        <ele>108</ele>
        <time>2020-06-17T18:50:43Z</time>
      </trkpt>
      <trkpt lat="49.67971" lon="0.19973">
        <ele>108</ele>
        <time>2020-06-17T18:50:44Z</time>
      </trkpt>
      <trkpt lat="49.67977" lon="0.19976">
        <ele>108</ele>
        <time>2020-06-17T18:50:45Z</time>
      </trkpt>
      <trkpt lat="49.67982" lon="0.19979">
        <ele>107.9</ele>
        <time>2020-06-17T18:50:46Z</time>
      </trkpt>
      <trkpt lat="49.67987" lon="0.19982">
        <ele>107.9</ele>
        <time>2020-06-17T18:50:47Z</time>
      </trkpt>
      <trkpt lat="49.67993" lon="0.19985">
        <ele>107.9</ele>
        <time>2020-06-17T18:50:48Z</time>
      </trkpt>
      <trkpt lat="49.67998" lon="0.19987">
        <ele>107.9</ele>
        <time>2020-06-17T18:50:49Z</time>
      </trkpt>
      <trkpt lat="49.68003" lon="0.1999">
        <ele>107.9</ele>
        <time>2020-06-17T18:50:50Z</time>
      </trkpt>
      <trkpt lat="49.68009" lon="0.19994">
        <ele>107.9</ele>
        <time>2020-06-17T18:50:51Z</time>
      </trkpt>
      <trkpt lat="49.68015" lon="0.19998">
        <ele>107.9</ele>
        <time>2020-06-17T18:50:52Z</time>
      </trkpt>
      <trkpt lat="49.68021" lon="0.20001">
        <ele>108</ele>
        <time>2020-06-17T18:50:53Z</time>
      </trkpt>
      <trkpt lat="49.68026" lon="0.20004">
        <ele>108</ele>
        <time>2020-06-17T18:50:54Z</time>
      </trkpt>
      <trkpt lat="49.68032" lon="0.20007">
        <ele>108.1</ele>
        <time>2020-06-17T18:50:55Z</time>
      </trkpt>
      <trkpt lat="49.68038" lon="0.20009">
        <ele>108.1</ele>
        <time>2020-06-17T18:50:56Z</time>
      </trkpt>
      <trkpt lat="49.68043" lon="0.20013">
        <ele>108.2</ele>
        <time>2020-06-17T18:50:57Z</time>
      </trkpt>
      <trkpt lat="49.68047" lon="0.20016">
        <ele>108.2</ele>
        <time>2020-06-17T18:50:58Z</time>
      </trkpt>
      <trkpt lat="49.68051" lon="0.2002">
        <ele>108.3</ele>
        <time>2020-06-17T18:50:59Z</time>
      </trkpt>
      <trkpt lat="49.68056" lon="0.20024">
        <ele>108.3</ele>
        <time>2020-06-17T18:51:00Z</time>
      </trkpt>
      <trkpt lat="49.68061" lon="0.20028">
        <ele>108.4</ele>
        <time>2020-06-17T18:51:01Z</time>
      </trkpt>
      <trkpt lat="49.68067" lon="0.20032">
        <ele>108.4</ele>
        <time>2020-06-17T18:51:02Z</time>
      </trkpt>
      <trkpt lat="49.68072" lon="0.20036">
        <ele>108.5</ele>
        <time>2020-06-17T18:51:03Z</time>
      </trkpt>
      <trkpt lat="49.68078" lon="0.20039">
        <ele>108.6</ele>
        <time>2020-06-17T18:51:04Z</time>
      </trkpt>
      <trkpt lat="49.68082" lon="0.20043">
        <ele>108.6</ele>
        <time>2020-06-17T18:51:05Z</time>
      </trkpt>
      <trkpt lat="49.68087" lon="0.20047">
        <ele>108.7</ele>
        <time>2020-06-17T18:51:06Z</time>
      </trkpt>
      <trkpt lat="49.68091" lon="0.2005">
        <ele>108.8</ele>
        <time>2020-06-17T18:51:07Z</time>
      </trkpt>
      <trkpt lat="49.68096" lon="0.20054">
        <ele>108.9</ele>
        <time>2020-06-17T18:51:08Z</time>
      </trkpt>
      <trkpt lat="49.68101" lon="0.20058">
        <ele>108.9</ele>
        <time>2020-06-17T18:51:09Z</time>
      </trkpt>
      <trkpt lat="49.68106" lon="0.20061">
        <ele>109</ele>
        <time>2020-06-17T18:51:10Z</time>
      </trkpt>
      <trkpt lat="49.68111" lon="0.20065">
        <ele>109</ele>
        <time>2020-06-17T18:51:11Z</time>
      </trkpt>
      <trkpt lat="49.68116" lon="0.2007">
        <ele>109.1</ele>
        <time>2020-06-17T18:51:12Z</time>
      </trkpt>
      <trkpt lat="49.68122" lon="0.20073">
        <ele>109.2</ele>
        <time>2020-06-17T18:51:13Z</time>
      </trkpt>
      <trkpt lat="49.68127" lon="0.20076">
        <ele>109.2</ele>
        <time>2020-06-17T18:51:14Z</time>
      </trkpt>
      <trkpt lat="49.68132" lon="0.20081">
        <ele>109.3</ele>
        <time>2020-06-17T18:51:15Z</time>
      </trkpt>
      <trkpt lat="49.68137" lon="0.20084">
        <ele>109.3</ele>
        <time>2020-06-17T18:51:16Z</time>
      </trkpt>
      <trkpt lat="49.68142" lon="0.20087">
        <ele>109.4</ele>
        <time>2020-06-17T18:51:17Z</time>
      </trkpt>
      <trkpt lat="49.68147" lon="0.20091">
        <ele>109.5</ele>
        <time>2020-06-17T18:51:18Z</time>
      </trkpt>
      <trkpt lat="49.68152" lon="0.20095">
        <ele>109.5</ele>
        <time>2020-06-17T18:51:19Z</time>
      </trkpt>
      <trkpt lat="49.68157" lon="0.20099">
        <ele>109.6</ele>
        <time>2020-06-17T18:51:20Z</time>
      </trkpt>
      <trkpt lat="49.68162" lon="0.20104">
        <ele>109.7</ele>
        <time>2020-06-17T18:51:21Z</time>
      </trkpt>
      <trkpt lat="49.68166" lon="0.20108">
        <ele>109.7</ele>
        <time>2020-06-17T18:51:22Z</time>
      </trkpt>
      <trkpt lat="49.68171" lon="0.20112">
        <ele>109.7</ele>
        <time>2020-06-17T18:51:23Z</time>
      </trkpt>
      <trkpt lat="49.68176" lon="0.20116">
        <ele>109.8</ele>
        <time>2020-06-17T18:51:24Z</time>
      </trkpt>
      <trkpt lat="49.6818" lon="0.2012">
        <ele>109.8</ele>
        <time>2020-06-17T18:51:25Z</time>
      </trkpt>
      <trkpt lat="49.68185" lon="0.20124">
        <ele>109.8</ele>
        <time>2020-06-17T18:51:26Z</time>
      </trkpt>
      <trkpt lat="49.6819" lon="0.20128">
        <ele>109.9</ele>
        <time>2020-06-17T18:51:27Z</time>
      </trkpt>
      <trkpt lat="49.68194" lon="0.20132">
        <ele>109.9</ele>
        <time>2020-06-17T18:51:28Z</time>
      </trkpt>
      <trkpt lat="49.68199" lon="0.20135">
        <ele>109.9</ele>
        <time>2020-06-17T18:51:29Z</time>
      </trkpt>
      <trkpt lat="49.68204" lon="0.20139">
        <ele>109.9</ele>
        <time>2020-06-17T18:51:30Z</time>
      </trkpt>
      <trkpt lat="49.68209" lon="0.20142">
        <ele>109.9</ele>
        <time>2020-06-17T18:51:31Z</time>
      </trkpt>
      <trkpt lat="49.68213" lon="0.20146">
        <ele>109.9</ele>
        <time>2020-06-17T18:51:32Z</time>
      </trkpt>
      <trkpt lat="49.68218" lon="0.20149">
        <ele>109.9</ele>
        <time>2020-06-17T18:51:33Z</time>
      </trkpt>
      <trkpt lat="49.68223" lon="0.20152">
        <ele>109.9</ele>
        <time>2020-06-17T18:51:34Z</time>
      </trkpt>
      <trkpt lat="49.68228" lon="0.20155">
        <ele>109.8</ele>
        <time>2020-06-17T18:51:35Z</time>
      </trkpt>
      <trkpt lat="49.68233" lon="0.20159">
        <ele>109.8</ele>
        <time>2020-06-17T18:51:36Z</time>
      </trkpt>
      <trkpt lat="49.68238" lon="0.20162">
        <ele>109.7</ele>
        <time>2020-06-17T18:51:37Z</time>
      </trkpt>
      <trkpt lat="49.68243" lon="0.20165">
        <ele>109.7</ele>
        <time>2020-06-17T18:51:38Z</time>
      </trkpt>
      <trkpt lat="49.68248" lon="0.20167">
        <ele>109.6</ele>
        <time>2020-06-17T18:51:39Z</time>
      </trkpt>
      <trkpt lat="49.68253" lon="0.20171">
        <ele>109.6</ele>
        <time>2020-06-17T18:51:40Z</time>
      </trkpt>
      <trkpt lat="49.68258" lon="0.20174">
        <ele>109.5</ele>
        <time>2020-06-17T18:51:41Z</time>
      </trkpt>
      <trkpt lat="49.68264" lon="0.20178">
        <ele>109.4</ele>
        <time>2020-06-17T18:51:42Z</time>
      </trkpt>
      <trkpt lat="49.68268" lon="0.20182">
        <ele>109.3</ele>
        <time>2020-06-17T18:51:43Z</time>
      </trkpt>
      <trkpt lat="49.68272" lon="0.20185">
        <ele>109.3</ele>
        <time>2020-06-17T18:51:44Z</time>
      </trkpt>
      <trkpt lat="49.68276" lon="0.20188">
        <ele>109.2</ele>
        <time>2020-06-17T18:51:45Z</time>
      </trkpt>
      <trkpt lat="49.68279" lon="0.2019">
        <ele>109.2</ele>
        <time>2020-06-17T18:51:46Z</time>
      </trkpt>
      <trkpt lat="49.68283" lon="0.20194">
        <ele>109.1</ele>
        <time>2020-06-17T18:51:47Z</time>
      </trkpt>
      <trkpt lat="49.68287" lon="0.20198">
        <ele>109.1</ele>
        <time>2020-06-17T18:51:48Z</time>
      </trkpt>
      <trkpt lat="49.6829" lon="0.20201">
        <ele>109</ele>
        <time>2020-06-17T18:51:49Z</time>
      </trkpt>
      <trkpt lat="49.68293" lon="0.20206">
        <ele>109</ele>
        <time>2020-06-17T18:51:50Z</time>
      </trkpt>
      <trkpt lat="49.68296" lon="0.2021">
        <ele>109</ele>
        <time>2020-06-17T18:51:51Z</time>
      </trkpt>
      <trkpt lat="49.68301" lon="0.20214">
        <ele>108.9</ele>
        <time>2020-06-17T18:51:52Z</time>
      </trkpt>
      <trkpt lat="49.68306" lon="0.20217">
        <ele>108.8</ele>
        <time>2020-06-17T18:51:53Z</time>
      </trkpt>
      <trkpt lat="49.68311" lon="0.20219">
        <ele>108.7</ele>
        <time>2020-06-17T18:51:54Z</time>
      </trkpt>
      <trkpt lat="49.68316" lon="0.20222">
        <ele>108.7</ele>
        <time>2020-06-17T18:51:55Z</time>
      </trkpt>
      <trkpt lat="49.6832" lon="0.20225">
        <ele>108.6</ele>
        <time>2020-06-17T18:51:56Z</time>
      </trkpt>
      <trkpt lat="49.68325" lon="0.20229">
        <ele>108.5</ele>
        <time>2020-06-17T18:51:57Z</time>
      </trkpt>
      <trkpt lat="49.6833" lon="0.20234">
        <ele>108.5</ele>
        <time>2020-06-17T18:51:58Z</time>
      </trkpt>
      <trkpt lat="49.68335" lon="0.20239">
        <ele>108.4</ele>
        <time>2020-06-17T18:51:59Z</time>
      </trkpt>
      <trkpt lat="49.6834" lon="0.20243">
        <ele>108.3</ele>
        <time>2020-06-17T18:52:00Z</time>
      </trkpt>
      <trkpt lat="49.68346" lon="0.20247">
        <ele>108.2</ele>
        <time>2020-06-17T18:52:01Z</time>
      </trkpt>
      <trkpt lat="49.68352" lon="0.20251">
        <ele>108.2</ele>
        <time>2020-06-17T18:52:02Z</time>
      </trkpt>
      <trkpt lat="49.68357" lon="0.20256">
        <ele>108.1</ele>
        <time>2020-06-17T18:52:03Z</time>
      </trkpt>
      <trkpt lat="49.68363" lon="0.20259">
        <ele>108</ele>
        <time>2020-06-17T18:52:04Z</time>
      </trkpt>
      <trkpt lat="49.68368" lon="0.20262">
        <ele>108</ele>
        <time>2020-06-17T18:52:05Z</time>
      </trkpt>
      <trkpt lat="49.68373" lon="0.20266">
        <ele>108</ele>
        <time>2020-06-17T18:52:06Z</time>
      </trkpt>
      <trkpt lat="49.68377" lon="0.2027">
        <ele>107.9</ele>
        <time>2020-06-17T18:52:07Z</time>
      </trkpt>
      <trkpt lat="49.68382" lon="0.20274">
        <ele>107.9</ele>
        <time>2020-06-17T18:52:08Z</time>
      </trkpt>
      <trkpt lat="49.68386" lon="0.2028">
        <ele>107.9</ele>
        <time>2020-06-17T18:52:09Z</time>
      </trkpt>
      <trkpt lat="49.68391" lon="0.20284">
        <ele>107.8</ele>
        <time>2020-06-17T18:52:10Z</time>
      </trkpt>
      <trkpt lat="49.68397" lon="0.20289">
        <ele>107.8</ele>
        <time>2020-06-17T18:52:11Z</time>
      </trkpt>
      <trkpt lat="49.68404" lon="0.20294">
        <ele>107.7</ele>
        <time>2020-06-17T18:52:12Z</time>
      </trkpt>
      <trkpt lat="49.6841" lon="0.20299">
        <ele>107.7</ele>
        <time>2020-06-17T18:52:13Z</time>
      </trkpt>
      <trkpt lat="49.68415" lon="0.20304">
        <ele>107.6</ele>
        <time>2020-06-17T18:52:14Z</time>
      </trkpt>
      <trkpt lat="49.68421" lon="0.20308">
        <ele>107.6</ele>
        <time>2020-06-17T18:52:15Z</time>
      </trkpt>
      <trkpt lat="49.68427" lon="0.20312">
        <ele>107.6</ele>
        <time>2020-06-17T18:52:16Z</time>
      </trkpt>
      <trkpt lat="49.68433" lon="0.20317">
        <ele>107.6</ele>
        <time>2020-06-17T18:52:17Z</time>
      </trkpt>
      <trkpt lat="49.6844" lon="0.20322">
        <ele>107.6</ele>
        <time>2020-06-17T18:52:18Z</time>
      </trkpt>
      <trkpt lat="49.68445" lon="0.20325">
        <ele>107.7</ele>
        <time>2020-06-17T18:52:19Z</time>
      </trkpt>
      <trkpt lat="49.6845" lon="0.20329">
        <ele>107.7</ele>
        <time>2020-06-17T18:52:20Z</time>
      </trkpt>
      <trkpt lat="49.68456" lon="0.20335">
        <ele>107.8</ele>
        <time>2020-06-17T18:52:21Z</time>
      </trkpt>
      <trkpt lat="49.68462" lon="0.2034">
        <ele>107.8</ele>
        <time>2020-06-17T18:52:22Z</time>
      </trkpt>
      <trkpt lat="49.68467" lon="0.20344">
        <ele>107.9</ele>
        <time>2020-06-17T18:52:23Z</time>
      </trkpt>
      <trkpt lat="49.68473" lon="0.20349">
        <ele>108</ele>
        <time>2020-06-17T18:52:24Z</time>
      </trkpt>
      <trkpt lat="49.68479" lon="0.20353">
        <ele>108.1</ele>
        <time>2020-06-17T18:52:25Z</time>
      </trkpt>
      <trkpt lat="49.68485" lon="0.20358">
        <ele>108.2</ele>
        <time>2020-06-17T18:52:26Z</time>
      </trkpt>
      <trkpt lat="49.68491" lon="0.20363">
        <ele>108.1</ele>
        <time>2020-06-17T18:52:27Z</time>
      </trkpt>
      <trkpt lat="49.68496" lon="0.20366">
        <ele>108.1</ele>
        <time>2020-06-17T18:52:28Z</time>
      </trkpt>
      <trkpt lat="49.68501" lon="0.2037">
        <ele>108.1</ele>
        <time>2020-06-17T18:52:29Z</time>
      </trkpt>
      <trkpt lat="49.68506" lon="0.20374">
        <ele>108.1</ele>
        <time>2020-06-17T18:52:30Z</time>
      </trkpt>
      <trkpt lat="49.6851" lon="0.20378">
        <ele>108.1</ele>
        <time>2020-06-17T18:52:31Z</time>
      </trkpt>
      <trkpt lat="49.68515" lon="0.20382">
        <ele>108.2</ele>
        <time>2020-06-17T18:52:32Z</time>
      </trkpt>
      <trkpt lat="49.68519" lon="0.20385">
        <ele>108.2</ele>
        <time>2020-06-17T18:52:33Z</time>
      </trkpt>
      <trkpt lat="49.68524" lon="0.20388">
        <ele>108.3</ele>
        <time>2020-06-17T18:52:34Z</time>
      </trkpt>
      <trkpt lat="49.68529" lon="0.20391">
        <ele>108.3</ele>
        <time>2020-06-17T18:52:35Z</time>
      </trkpt>
      <trkpt lat="49.68535" lon="0.20395">
        <ele>108.4</ele>
        <time>2020-06-17T18:52:36Z</time>
      </trkpt>
      <trkpt lat="49.68541" lon="0.20399">
        <ele>108.4</ele>
        <time>2020-06-17T18:52:37Z</time>
      </trkpt>
      <trkpt lat="49.68546" lon="0.20402">
        <ele>108.4</ele>
        <time>2020-06-17T18:52:38Z</time>
      </trkpt>
      <trkpt lat="49.68551" lon="0.20406">
        <ele>108.5</ele>
        <time>2020-06-17T18:52:39Z</time>
      </trkpt>
      <trkpt lat="49.68557" lon="0.20409">
        <ele>108.6</ele>
        <time>2020-06-17T18:52:40Z</time>
      </trkpt>
      <trkpt lat="49.68562" lon="0.20413">
        <ele>108.7</ele>
        <time>2020-06-17T18:52:41Z</time>
      </trkpt>
      <trkpt lat="49.68567" lon="0.20416">
        <ele>108.7</ele>
        <time>2020-06-17T18:52:42Z</time>
      </trkpt>
      <trkpt lat="49.68572" lon="0.20418">
        <ele>108.8</ele>
        <time>2020-06-17T18:52:43Z</time>
      </trkpt>
      <trkpt lat="49.68577" lon="0.20422">
        <ele>108.9</ele>
        <time>2020-06-17T18:52:44Z</time>
      </trkpt>
      <trkpt lat="49.68582" lon="0.20424">
        <ele>108.9</ele>
        <time>2020-06-17T18:52:45Z</time>
      </trkpt>
      <trkpt lat="49.68587" lon="0.20426">
        <ele>109</ele>
        <time>2020-06-17T18:52:46Z</time>
      </trkpt>
      <trkpt lat="49.68593" lon="0.2043">
        <ele>109</ele>
        <time>2020-06-17T18:52:47Z</time>
      </trkpt>
      <trkpt lat="49.68598" lon="0.20432">
        <ele>109.1</ele>
        <time>2020-06-17T18:52:48Z</time>
      </trkpt>
      <trkpt lat="49.68602" lon="0.20432">
        <ele>109.1</ele>
        <time>2020-06-17T18:52:49Z</time>
      </trkpt>
      <trkpt lat="49.68607" lon="0.20434">
        <ele>109.2</ele>
        <time>2020-06-17T18:52:50Z</time>
      </trkpt>
      <trkpt lat="49.68612" lon="0.20435">
        <ele>109.2</ele>
        <time>2020-06-17T18:52:51Z</time>
      </trkpt>
      <trkpt lat="49.68619" lon="0.20439">
        <ele>109.3</ele>
        <time>2020-06-17T18:52:52Z</time>
      </trkpt>
      <trkpt lat="49.68623" lon="0.20441">
        <ele>109.3</ele>
        <time>2020-06-17T18:52:53Z</time>
      </trkpt>
      <trkpt lat="49.68628" lon="0.20442">
        <ele>109.3</ele>
        <time>2020-06-17T18:52:54Z</time>
      </trkpt>
      <trkpt lat="49.68633" lon="0.20443">
        <ele>109.3</ele>
        <time>2020-06-17T18:52:55Z</time>
      </trkpt>
      <trkpt lat="49.68639" lon="0.20445">
        <ele>109.3</ele>
        <time>2020-06-17T18:52:56Z</time>
      </trkpt>
      <trkpt lat="49.68645" lon="0.20447">
        <ele>109.3</ele>
        <time>2020-06-17T18:52:57Z</time>
      </trkpt>
      <trkpt lat="49.6865" lon="0.20449">
        <ele>109.3</ele>
        <time>2020-06-17T18:52:58Z</time>
      </trkpt>
      <trkpt lat="49.68656" lon="0.20451">
        <ele>109.4</ele>
        <time>2020-06-17T18:52:59Z</time>
      </trkpt>
      <trkpt lat="49.68661" lon="0.20453">
        <ele>109.4</ele>
        <time>2020-06-17T18:53:00Z</time>
      </trkpt>
      <trkpt lat="49.68666" lon="0.20455">
        <ele>109.4</ele>
        <time>2020-06-17T18:53:01Z</time>
      </trkpt>
      <trkpt lat="49.68671" lon="0.20455">
        <ele>109.5</ele>
        <time>2020-06-17T18:53:02Z</time>
      </trkpt>
      <trkpt lat="49.68676" lon="0.20457">
        <ele>109.5</ele>
        <time>2020-06-17T18:53:03Z</time>
      </trkpt>
      <trkpt lat="49.68682" lon="0.20458">
        <ele>109.5</ele>
        <time>2020-06-17T18:53:04Z</time>
      </trkpt>
      <trkpt lat="49.68687" lon="0.2046">
        <ele>109.6</ele>
        <time>2020-06-17T18:53:05Z</time>
      </trkpt>
      <trkpt lat="49.68693" lon="0.2046">
        <ele>109.6</ele>
        <time>2020-06-17T18:53:06Z</time>
      </trkpt>
      <trkpt lat="49.68698" lon="0.20462">
        <ele>109.6</ele>
        <time>2020-06-17T18:53:07Z</time>
      </trkpt>
      <trkpt lat="49.68704" lon="0.20464">
        <ele>109.6</ele>
        <time>2020-06-17T18:53:08Z</time>
      </trkpt>
      <trkpt lat="49.68709" lon="0.20466">
        <ele>109.6</ele>
        <time>2020-06-17T18:53:09Z</time>
      </trkpt>
      <trkpt lat="49.68715" lon="0.20467">
        <ele>109.6</ele>
        <time>2020-06-17T18:53:10Z</time>
      </trkpt>
      <trkpt lat="49.6872" lon="0.20469">
        <ele>109.6</ele>
        <time>2020-06-17T18:53:11Z</time>
      </trkpt>
      <trkpt lat="49.68726" lon="0.20472">
        <ele>109.6</ele>
        <time>2020-06-17T18:53:12Z</time>
      </trkpt>
      <trkpt lat="49.68732" lon="0.20473">
        <ele>109.6</ele>
        <time>2020-06-17T18:53:13Z</time>
      </trkpt>
      <trkpt lat="49.68737" lon="0.20474">
        <ele>109.6</ele>
        <time>2020-06-17T18:53:14Z</time>
      </trkpt>
      <trkpt lat="49.68743" lon="0.20475">
        <ele>109.5</ele>
        <time>2020-06-17T18:53:15Z</time>
      </trkpt>
      <trkpt lat="49.68749" lon="0.20477">
        <ele>109.5</ele>
        <time>2020-06-17T18:53:16Z</time>
      </trkpt>
      <trkpt lat="49.68753" lon="0.20478">
        <ele>109.5</ele>
        <time>2020-06-17T18:53:17Z</time>
      </trkpt>
      <trkpt lat="49.68758" lon="0.20479">
        <ele>109.5</ele>
        <time>2020-06-17T18:53:18Z</time>
      </trkpt>
      <trkpt lat="49.68763" lon="0.20481">
        <ele>109.5</ele>
        <time>2020-06-17T18:53:19Z</time>
      </trkpt>
      <trkpt lat="49.68767" lon="0.20483">
        <ele>109.5</ele>
        <time>2020-06-17T18:53:20Z</time>
      </trkpt>
      <trkpt lat="49.68772" lon="0.20485">
        <ele>109.5</ele>
        <time>2020-06-17T18:53:21Z</time>
      </trkpt>
      <trkpt lat="49.68777" lon="0.20487">
        <ele>109.5</ele>
        <time>2020-06-17T18:53:22Z</time>
      </trkpt>
      <trkpt lat="49.68782" lon="0.20489">
        <ele>109.5</ele>
        <time>2020-06-17T18:53:23Z</time>
      </trkpt>
      <trkpt lat="49.68789" lon="0.20494">
        <ele>109.5</ele>
        <time>2020-06-17T18:53:24Z</time>
      </trkpt>
      <trkpt lat="49.68793" lon="0.20495">
        <ele>109.5</ele>
        <time>2020-06-17T18:53:25Z</time>
      </trkpt>
      <trkpt lat="49.68799" lon="0.20497">
        <ele>109.5</ele>
        <time>2020-06-17T18:53:26Z</time>
      </trkpt>
      <trkpt lat="49.68805" lon="0.20499">
        <ele>109.5</ele>
        <time>2020-06-17T18:53:27Z</time>
      </trkpt>
      <trkpt lat="49.68811" lon="0.20499">
        <ele>109.5</ele>
        <time>2020-06-17T18:53:28Z</time>
      </trkpt>
      <trkpt lat="49.68816" lon="0.20501">
        <ele>109.4</ele>
        <time>2020-06-17T18:53:29Z</time>
      </trkpt>
      <trkpt lat="49.68823" lon="0.20502">
        <ele>109.4</ele>
        <time>2020-06-17T18:53:30Z</time>
      </trkpt>
      <trkpt lat="49.6883" lon="0.20503">
        <ele>109.3</ele>
        <time>2020-06-17T18:53:31Z</time>
      </trkpt>
      <trkpt lat="49.68836" lon="0.20503">
        <ele>109.3</ele>
        <time>2020-06-17T18:53:32Z</time>
      </trkpt>
      <trkpt lat="49.68843" lon="0.20506">
        <ele>109.2</ele>
        <time>2020-06-17T18:53:33Z</time>
      </trkpt>
      <trkpt lat="49.68848" lon="0.20507">
        <ele>109.2</ele>
        <time>2020-06-17T18:53:34Z</time>
      </trkpt>
      <trkpt lat="49.68854" lon="0.20508">
        <ele>109.1</ele>
        <time>2020-06-17T18:53:35Z</time>
      </trkpt>
      <trkpt lat="49.6886" lon="0.2051">
        <ele>109</ele>
        <time>2020-06-17T18:53:36Z</time>
      </trkpt>
      <trkpt lat="49.68866" lon="0.2051">
        <ele>109</ele>
        <time>2020-06-17T18:53:37Z</time>
      </trkpt>
      <trkpt lat="49.68872" lon="0.20512">
        <ele>108.9</ele>
        <time>2020-06-17T18:53:38Z</time>
      </trkpt>
      <trkpt lat="49.68878" lon="0.20514">
        <ele>108.9</ele>
        <time>2020-06-17T18:53:39Z</time>
      </trkpt>
      <trkpt lat="49.68885" lon="0.20516">
        <ele>108.8</ele>
        <time>2020-06-17T18:53:40Z</time>
      </trkpt>
      <trkpt lat="49.68892" lon="0.20519">
        <ele>108.7</ele>
        <time>2020-06-17T18:53:41Z</time>
      </trkpt>
      <trkpt lat="49.68898" lon="0.2052">
        <ele>108.7</ele>
        <time>2020-06-17T18:53:42Z</time>
      </trkpt>
      <trkpt lat="49.68905" lon="0.20521">
        <ele>108.6</ele>
        <time>2020-06-17T18:53:43Z</time>
      </trkpt>
      <trkpt lat="49.68911" lon="0.20522">
        <ele>108.5</ele>
        <time>2020-06-17T18:53:44Z</time>
      </trkpt>
      <trkpt lat="49.68916" lon="0.20524">
        <ele>108.4</ele>
        <time>2020-06-17T18:53:45Z</time>
      </trkpt>
      <trkpt lat="49.68922" lon="0.20526">
        <ele>108.3</ele>
        <time>2020-06-17T18:53:46Z</time>
      </trkpt>
      <trkpt lat="49.68929" lon="0.20528">
        <ele>108.1</ele>
        <time>2020-06-17T18:53:47Z</time>
      </trkpt>
      <trkpt lat="49.68936" lon="0.20529">
        <ele>108</ele>
        <time>2020-06-17T18:53:48Z</time>
      </trkpt>
      <trkpt lat="49.68944" lon="0.2053">
        <ele>107.9</ele>
        <time>2020-06-17T18:53:49Z</time>
      </trkpt>
      <trkpt lat="49.68951" lon="0.2053">
        <ele>107.8</ele>
        <time>2020-06-17T18:53:50Z</time>
      </trkpt>
      <trkpt lat="49.68958" lon="0.20531">
        <ele>107.7</ele>
        <time>2020-06-17T18:53:51Z</time>
      </trkpt>
      <trkpt lat="49.68965" lon="0.20532">
        <ele>107.6</ele>
        <time>2020-06-17T18:53:52Z</time>
      </trkpt>
      <trkpt lat="49.68973" lon="0.20533">
        <ele>107.4</ele>
        <time>2020-06-17T18:53:53Z</time>
      </trkpt>
      <trkpt lat="49.6898" lon="0.20533">
        <ele>107.4</ele>
        <time>2020-06-17T18:53:54Z</time>
      </trkpt>
      <trkpt lat="49.68988" lon="0.20534">
        <ele>107.2</ele>
        <time>2020-06-17T18:53:55Z</time>
      </trkpt>
      <trkpt lat="49.68995" lon="0.20535">
        <ele>107.1</ele>
        <time>2020-06-17T18:53:56Z</time>
      </trkpt>
      <trkpt lat="49.69002" lon="0.20535">
        <ele>106.9</ele>
        <time>2020-06-17T18:53:57Z</time>
      </trkpt>
      <trkpt lat="49.69008" lon="0.20536">
        <ele>106.8</ele>
        <time>2020-06-17T18:53:58Z</time>
      </trkpt>
      <trkpt lat="49.69015" lon="0.20537">
        <ele>106.6</ele>
        <time>2020-06-17T18:53:59Z</time>
      </trkpt>
      <trkpt lat="49.69021" lon="0.20538">
        <ele>106.5</ele>
        <time>2020-06-17T18:54:00Z</time>
      </trkpt>
      <trkpt lat="49.69028" lon="0.20538">
        <ele>106.4</ele>
        <time>2020-06-17T18:54:01Z</time>
      </trkpt>
      <trkpt lat="49.69035" lon="0.20538">
        <ele>106.2</ele>
        <time>2020-06-17T18:54:02Z</time>
      </trkpt>
      <trkpt lat="49.69042" lon="0.20539">
        <ele>106.1</ele>
        <time>2020-06-17T18:54:03Z</time>
      </trkpt>
      <trkpt lat="49.6905" lon="0.20539">
        <ele>106</ele>
        <time>2020-06-17T18:54:04Z</time>
      </trkpt>
      <trkpt lat="49.69057" lon="0.20539">
        <ele>105.8</ele>
        <time>2020-06-17T18:54:05Z</time>
      </trkpt>
      <trkpt lat="49.69064" lon="0.20539">
        <ele>105.7</ele>
        <time>2020-06-17T18:54:06Z</time>
      </trkpt>
      <trkpt lat="49.69072" lon="0.20539">
        <ele>105.5</ele>
        <time>2020-06-17T18:54:07Z</time>
      </trkpt>
      <trkpt lat="49.6908" lon="0.20539">
        <ele>105.3</ele>
        <time>2020-06-17T18:54:08Z</time>
      </trkpt>
      <trkpt lat="49.69087" lon="0.2054">
        <ele>105.2</ele>
        <time>2020-06-17T18:54:09Z</time>
      </trkpt>
      <trkpt lat="49.69094" lon="0.2054">
        <ele>105</ele>
        <time>2020-06-17T18:54:10Z</time>
      </trkpt>
      <trkpt lat="49.69101" lon="0.2054">
        <ele>104.9</ele>
        <time>2020-06-17T18:54:11Z</time>
      </trkpt>
      <trkpt lat="49.69108" lon="0.2054">
        <ele>104.7</ele>
        <time>2020-06-17T18:54:12Z</time>
      </trkpt>
      <trkpt lat="49.69115" lon="0.20539">
        <ele>104.5</ele>
        <time>2020-06-17T18:54:13Z</time>
      </trkpt>
      <trkpt lat="49.69122" lon="0.20539">
        <ele>104.4</ele>
        <time>2020-06-17T18:54:14Z</time>
      </trkpt>
      <trkpt lat="49.69129" lon="0.20539">
        <ele>104.2</ele>
        <time>2020-06-17T18:54:15Z</time>
      </trkpt>
      <trkpt lat="49.69136" lon="0.2054">
        <ele>104.1</ele>
        <time>2020-06-17T18:54:16Z</time>
      </trkpt>
      <trkpt lat="49.69144" lon="0.2054">
        <ele>104</ele>
        <time>2020-06-17T18:54:17Z</time>
      </trkpt>
      <trkpt lat="49.69151" lon="0.2054">
        <ele>103.8</ele>
        <time>2020-06-17T18:54:18Z</time>
      </trkpt>
      <trkpt lat="49.69158" lon="0.20541">
        <ele>103.7</ele>
        <time>2020-06-17T18:54:19Z</time>
      </trkpt>
      <trkpt lat="49.69166" lon="0.2054">
        <ele>103.5</ele>
        <time>2020-06-17T18:54:20Z</time>
      </trkpt>
      <trkpt lat="49.69173" lon="0.2054">
        <ele>103.4</ele>
        <time>2020-06-17T18:54:21Z</time>
      </trkpt>
      <trkpt lat="49.6918" lon="0.20539">
        <ele>103.3</ele>
        <time>2020-06-17T18:54:22Z</time>
      </trkpt>
      <trkpt lat="49.69187" lon="0.20539">
        <ele>103.3</ele>
        <time>2020-06-17T18:54:23Z</time>
      </trkpt>
      <trkpt lat="49.69193" lon="0.20539">
        <ele>103.2</ele>
        <time>2020-06-17T18:54:24Z</time>
      </trkpt>
      <trkpt lat="49.69199" lon="0.2054">
        <ele>103.1</ele>
        <time>2020-06-17T18:54:25Z</time>
      </trkpt>
      <trkpt lat="49.69205" lon="0.2054">
        <ele>103</ele>
        <time>2020-06-17T18:54:26Z</time>
      </trkpt>
      <trkpt lat="49.6921" lon="0.20542">
        <ele>102.8</ele>
        <time>2020-06-17T18:54:27Z</time>
      </trkpt>
      <trkpt lat="49.69218" lon="0.20541">
        <ele>102.6</ele>
        <time>2020-06-17T18:54:28Z</time>
      </trkpt>
      <trkpt lat="49.69225" lon="0.20541">
        <ele>102.4</ele>
        <time>2020-06-17T18:54:29Z</time>
      </trkpt>
      <trkpt lat="49.69232" lon="0.20542">
        <ele>102.3</ele>
        <time>2020-06-17T18:54:30Z</time>
      </trkpt>
      <trkpt lat="49.69239" lon="0.20542">
        <ele>102.1</ele>
        <time>2020-06-17T18:54:31Z</time>
      </trkpt>
      <trkpt lat="49.69246" lon="0.20542">
        <ele>102</ele>
        <time>2020-06-17T18:54:32Z</time>
      </trkpt>
      <trkpt lat="49.69254" lon="0.20541">
        <ele>101.8</ele>
        <time>2020-06-17T18:54:33Z</time>
      </trkpt>
      <trkpt lat="49.69262" lon="0.2054">
        <ele>101.6</ele>
        <time>2020-06-17T18:54:34Z</time>
      </trkpt>
      <trkpt lat="49.69269" lon="0.20539">
        <ele>101.3</ele>
        <time>2020-06-17T18:54:35Z</time>
      </trkpt>
      <trkpt lat="49.69276" lon="0.20538">
        <ele>101.1</ele>
        <time>2020-06-17T18:54:36Z</time>
      </trkpt>
      <trkpt lat="49.69282" lon="0.20537">
        <ele>101</ele>
        <time>2020-06-17T18:54:37Z</time>
      </trkpt>
      <trkpt lat="49.69289" lon="0.20537">
        <ele>100.8</ele>
        <time>2020-06-17T18:54:38Z</time>
      </trkpt>
      <trkpt lat="49.69297" lon="0.20537">
        <ele>100.5</ele>
        <time>2020-06-17T18:54:39Z</time>
      </trkpt>
      <trkpt lat="49.69304" lon="0.20537">
        <ele>100.3</ele>
        <time>2020-06-17T18:54:40Z</time>
      </trkpt>
      <trkpt lat="49.69311" lon="0.20536">
        <ele>100</ele>
        <time>2020-06-17T18:54:41Z</time>
      </trkpt>
      <trkpt lat="49.69318" lon="0.20535">
        <ele>99.7</ele>
        <time>2020-06-17T18:54:42Z</time>
      </trkpt>
      <trkpt lat="49.69325" lon="0.20534">
        <ele>99.5</ele>
        <time>2020-06-17T18:54:43Z</time>
      </trkpt>
      <trkpt lat="49.69332" lon="0.20535">
        <ele>99.1</ele>
        <time>2020-06-17T18:54:44Z</time>
      </trkpt>
      <trkpt lat="49.6934" lon="0.20535">
        <ele>98.8</ele>
        <time>2020-06-17T18:54:45Z</time>
      </trkpt>
      <trkpt lat="49.69348" lon="0.20535">
        <ele>98.5</ele>
        <time>2020-06-17T18:54:46Z</time>
      </trkpt>
      <trkpt lat="49.69356" lon="0.20535">
        <ele>98.2</ele>
        <time>2020-06-17T18:54:47Z</time>
      </trkpt>
      <trkpt lat="49.69364" lon="0.20535">
        <ele>97.9</ele>
        <time>2020-06-17T18:54:48Z</time>
      </trkpt>
      <trkpt lat="49.69371" lon="0.20535">
        <ele>97.6</ele>
        <time>2020-06-17T18:54:49Z</time>
      </trkpt>
      <trkpt lat="49.69379" lon="0.20534">
        <ele>97.3</ele>
        <time>2020-06-17T18:54:50Z</time>
      </trkpt>
      <trkpt lat="49.69387" lon="0.20534">
        <ele>96.9</ele>
        <time>2020-06-17T18:54:51Z</time>
      </trkpt>
      <trkpt lat="49.69395" lon="0.20532">
        <ele>96.4</ele>
        <time>2020-06-17T18:54:52Z</time>
      </trkpt>
      <trkpt lat="49.69403" lon="0.20531">
        <ele>96.2</ele>
        <time>2020-06-17T18:54:53Z</time>
      </trkpt>
      <trkpt lat="49.69411" lon="0.2053">
        <ele>96</ele>
        <time>2020-06-17T18:54:54Z</time>
      </trkpt>
      <trkpt lat="49.69419" lon="0.20529">
        <ele>95.7</ele>
        <time>2020-06-17T18:54:55Z</time>
      </trkpt>
      <trkpt lat="49.69427" lon="0.20527">
        <ele>95.5</ele>
        <time>2020-06-17T18:54:56Z</time>
      </trkpt>
      <trkpt lat="49.69435" lon="0.20525">
        <ele>95.3</ele>
        <time>2020-06-17T18:54:57Z</time>
      </trkpt>
      <trkpt lat="49.69444" lon="0.20525">
        <ele>95.1</ele>
        <time>2020-06-17T18:54:58Z</time>
      </trkpt>
      <trkpt lat="49.69453" lon="0.20525">
        <ele>94.5</ele>
        <time>2020-06-17T18:54:59Z</time>
      </trkpt>
      <trkpt lat="49.69461" lon="0.20524">
        <ele>94</ele>
        <time>2020-06-17T18:55:00Z</time>
      </trkpt>
      <trkpt lat="49.6947" lon="0.20522">
        <ele>93.6</ele>
        <time>2020-06-17T18:55:01Z</time>
      </trkpt>
      <trkpt lat="49.69479" lon="0.2052">
        <ele>93.2</ele>
        <time>2020-06-17T18:55:02Z</time>
      </trkpt>
      <trkpt lat="49.69487" lon="0.20518">
        <ele>92.9</ele>
        <time>2020-06-17T18:55:03Z</time>
      </trkpt>
      <trkpt lat="49.69496" lon="0.20516">
        <ele>92.5</ele>
        <time>2020-06-17T18:55:04Z</time>
      </trkpt>
      <trkpt lat="49.69504" lon="0.20513">
        <ele>92.1</ele>
        <time>2020-06-17T18:55:05Z</time>
      </trkpt>
      <trkpt lat="49.69512" lon="0.2051">
        <ele>91.8</ele>
        <time>2020-06-17T18:55:06Z</time>
      </trkpt>
      <trkpt lat="49.69521" lon="0.20506">
        <ele>91.4</ele>
        <time>2020-06-17T18:55:07Z</time>
      </trkpt>
      <trkpt lat="49.6953" lon="0.20502">
        <ele>90.9</ele>
        <time>2020-06-17T18:55:08Z</time>
      </trkpt>
      <trkpt lat="49.69538" lon="0.20498">
        <ele>90.6</ele>
        <time>2020-06-17T18:55:09Z</time>
      </trkpt>
      <trkpt lat="49.69547" lon="0.20494">
        <ele>90.2</ele>
        <time>2020-06-17T18:55:10Z</time>
      </trkpt>
      <trkpt lat="49.69556" lon="0.2049">
        <ele>89.8</ele>
        <time>2020-06-17T18:55:11Z</time>
      </trkpt>
      <trkpt lat="49.69564" lon="0.20486">
        <ele>89.4</ele>
        <time>2020-06-17T18:55:12Z</time>
      </trkpt>
      <trkpt lat="49.69573" lon="0.20481">
        <ele>89</ele>
        <time>2020-06-17T18:55:13Z</time>
      </trkpt>
      <trkpt lat="49.69581" lon="0.20477">
        <ele>88.7</ele>
        <time>2020-06-17T18:55:14Z</time>
      </trkpt>
      <trkpt lat="49.6959" lon="0.20471">
        <ele>88.3</ele>
        <time>2020-06-17T18:55:15Z</time>
      </trkpt>
      <trkpt lat="49.69598" lon="0.20465">
        <ele>87.9</ele>
        <time>2020-06-17T18:55:16Z</time>
      </trkpt>
      <trkpt lat="49.69607" lon="0.20459">
        <ele>87.5</ele>
        <time>2020-06-17T18:55:17Z</time>
      </trkpt>
      <trkpt lat="49.69615" lon="0.20453">
        <ele>87.1</ele>
        <time>2020-06-17T18:55:18Z</time>
      </trkpt>
      <trkpt lat="49.69623" lon="0.20447">
        <ele>86.7</ele>
        <time>2020-06-17T18:55:19Z</time>
      </trkpt>
      <trkpt lat="49.69632" lon="0.2044">
        <ele>86.2</ele>
        <time>2020-06-17T18:55:20Z</time>
      </trkpt>
      <trkpt lat="49.6964" lon="0.20433">
        <ele>85.8</ele>
        <time>2020-06-17T18:55:21Z</time>
      </trkpt>
      <trkpt lat="49.69648" lon="0.20425">
        <ele>85.4</ele>
        <time>2020-06-17T18:55:22Z</time>
      </trkpt>
      <trkpt lat="49.69656" lon="0.20417">
        <ele>85</ele>
        <time>2020-06-17T18:55:23Z</time>
      </trkpt>
      <trkpt lat="49.69664" lon="0.20409">
        <ele>84.5</ele>
        <time>2020-06-17T18:55:24Z</time>
      </trkpt>
      <trkpt lat="49.69672" lon="0.204">
        <ele>83.9</ele>
        <time>2020-06-17T18:55:25Z</time>
      </trkpt>
      <trkpt lat="49.6968" lon="0.20391">
        <ele>83.4</ele>
        <time>2020-06-17T18:55:26Z</time>
      </trkpt>
      <trkpt lat="49.69688" lon="0.20381">
        <ele>82.8</ele>
        <time>2020-06-17T18:55:27Z</time>
      </trkpt>
      <trkpt lat="49.69696" lon="0.20371">
        <ele>82.1</ele>
        <time>2020-06-17T18:55:28Z</time>
      </trkpt>
      <trkpt lat="49.69704" lon="0.20361">
        <ele>81.4</ele>
        <time>2020-06-17T18:55:29Z</time>
      </trkpt>
      <trkpt lat="49.69713" lon="0.20351">
        <ele>80.7</ele>
        <time>2020-06-17T18:55:30Z</time>
      </trkpt>
      <trkpt lat="49.69722" lon="0.20341">
        <ele>79.9</ele>
        <time>2020-06-17T18:55:31Z</time>
      </trkpt>
      <trkpt lat="49.6973" lon="0.20329">
        <ele>79</ele>
        <time>2020-06-17T18:55:32Z</time>
      </trkpt>
      <trkpt lat="49.69739" lon="0.20317">
        <ele>78.2</ele>
        <time>2020-06-17T18:55:33Z</time>
      </trkpt>
      <trkpt lat="49.69748" lon="0.20306">
        <ele>77.3</ele>
        <time>2020-06-17T18:55:34Z</time>
      </trkpt>
      <trkpt lat="49.69758" lon="0.20296">
        <ele>76.4</ele>
        <time>2020-06-17T18:55:35Z</time>
      </trkpt>
      <trkpt lat="49.69767" lon="0.20285">
        <ele>75.6</ele>
        <time>2020-06-17T18:55:36Z</time>
      </trkpt>
      <trkpt lat="49.69777" lon="0.20273">
        <ele>74.7</ele>
        <time>2020-06-17T18:55:37Z</time>
      </trkpt>
      <trkpt lat="49.69786" lon="0.20261">
        <ele>73.9</ele>
        <time>2020-06-17T18:55:38Z</time>
      </trkpt>
      <trkpt lat="49.69796" lon="0.20249">
        <ele>73</ele>
        <time>2020-06-17T18:55:39Z</time>
      </trkpt>
      <trkpt lat="49.69805" lon="0.20237">
        <ele>72.1</ele>
        <time>2020-06-17T18:55:40Z</time>
      </trkpt>
      <trkpt lat="49.69814" lon="0.20224">
        <ele>71.2</ele>
        <time>2020-06-17T18:55:41Z</time>
      </trkpt>
      <trkpt lat="49.69824" lon="0.20213">
        <ele>70.2</ele>
        <time>2020-06-17T18:55:42Z</time>
      </trkpt>
      <trkpt lat="49.69834" lon="0.20202">
        <ele>69.2</ele>
        <time>2020-06-17T18:55:43Z</time>
      </trkpt>
      <trkpt lat="49.69844" lon="0.20191">
        <ele>68.3</ele>
        <time>2020-06-17T18:55:44Z</time>
      </trkpt>
      <trkpt lat="49.69854" lon="0.2018">
        <ele>67.4</ele>
        <time>2020-06-17T18:55:45Z</time>
      </trkpt>
      <trkpt lat="49.69864" lon="0.2017">
        <ele>66.5</ele>
        <time>2020-06-17T18:55:46Z</time>
      </trkpt>
      <trkpt lat="49.69873" lon="0.20162">
        <ele>65.8</ele>
        <time>2020-06-17T18:55:47Z</time>
      </trkpt>
      <trkpt lat="49.69881" lon="0.20154">
        <ele>65</ele>
        <time>2020-06-17T18:55:48Z</time>
      </trkpt>
      <trkpt lat="49.6989" lon="0.20147">
        <ele>64.3</ele>
        <time>2020-06-17T18:55:49Z</time>
      </trkpt>
      <trkpt lat="49.69898" lon="0.20139">
        <ele>63.5</ele>
        <time>2020-06-17T18:55:50Z</time>
      </trkpt>
      <trkpt lat="49.69906" lon="0.20132">
        <ele>62.7</ele>
        <time>2020-06-17T18:55:51Z</time>
      </trkpt>
      <trkpt lat="49.69913" lon="0.20126">
        <ele>62</ele>
        <time>2020-06-17T18:55:52Z</time>
      </trkpt>
      <trkpt lat="49.69921" lon="0.20119">
        <ele>61.3</ele>
        <time>2020-06-17T18:55:53Z</time>
      </trkpt>
      <trkpt lat="49.69929" lon="0.20111">
        <ele>60.6</ele>
        <time>2020-06-17T18:55:54Z</time>
      </trkpt>
      <trkpt lat="49.69937" lon="0.20104">
        <ele>59.9</ele>
        <time>2020-06-17T18:55:55Z</time>
      </trkpt>
      <trkpt lat="49.69945" lon="0.20097">
        <ele>59.2</ele>
        <time>2020-06-17T18:55:56Z</time>
      </trkpt>
      <trkpt lat="49.69952" lon="0.20091">
        <ele>58.7</ele>
        <time>2020-06-17T18:55:57Z</time>
      </trkpt>
      <trkpt lat="49.6996" lon="0.20086">
        <ele>58.1</ele>
        <time>2020-06-17T18:55:58Z</time>
      </trkpt>
      <trkpt lat="49.69967" lon="0.2008">
        <ele>57.5</ele>
        <time>2020-06-17T18:55:59Z</time>
      </trkpt>
      <trkpt lat="49.69974" lon="0.20073">
        <ele>56.9</ele>
        <time>2020-06-17T18:56:00Z</time>
      </trkpt>
      <trkpt lat="49.69982" lon="0.20067">
        <ele>56.2</ele>
        <time>2020-06-17T18:56:01Z</time>
      </trkpt>
      <trkpt lat="49.69988" lon="0.20062">
        <ele>55.7</ele>
        <time>2020-06-17T18:56:02Z</time>
      </trkpt>
      <trkpt lat="49.69995" lon="0.20058">
        <ele>55.2</ele>
        <time>2020-06-17T18:56:03Z</time>
      </trkpt>
      <trkpt lat="49.70001" lon="0.20052">
        <ele>54.6</ele>
        <time>2020-06-17T18:56:04Z</time>
      </trkpt>
      <trkpt lat="49.70008" lon="0.20047">
        <ele>54</ele>
        <time>2020-06-17T18:56:05Z</time>
      </trkpt>
      <trkpt lat="49.70014" lon="0.2004">
        <ele>53.5</ele>
        <time>2020-06-17T18:56:06Z</time>
      </trkpt>
      <trkpt lat="49.70021" lon="0.20034">
        <ele>52.9</ele>
        <time>2020-06-17T18:56:07Z</time>
      </trkpt>
      <trkpt lat="49.70028" lon="0.20028">
        <ele>52.2</ele>
        <time>2020-06-17T18:56:08Z</time>
      </trkpt>
      <trkpt lat="49.70036" lon="0.20023">
        <ele>51.5</ele>
        <time>2020-06-17T18:56:09Z</time>
      </trkpt>
      <trkpt lat="49.70043" lon="0.20019">
        <ele>50.9</ele>
        <time>2020-06-17T18:56:10Z</time>
      </trkpt>
      <trkpt lat="49.70051" lon="0.20016">
        <ele>50.2</ele>
        <time>2020-06-17T18:56:11Z</time>
      </trkpt>
      <trkpt lat="49.70059" lon="0.20014">
        <ele>49.6</ele>
        <time>2020-06-17T18:56:12Z</time>
      </trkpt>
      <trkpt lat="49.70067" lon="0.20011">
        <ele>48.9</ele>
        <time>2020-06-17T18:56:13Z</time>
      </trkpt>
      <trkpt lat="49.70075" lon="0.20009">
        <ele>48.3</ele>
        <time>2020-06-17T18:56:14Z</time>
      </trkpt>
      <trkpt lat="49.70083" lon="0.20006">
        <ele>47.6</ele>
        <time>2020-06-17T18:56:15Z</time>
      </trkpt>
      <trkpt lat="49.7009" lon="0.20002">
        <ele>46.9</ele>
        <time>2020-06-17T18:56:16Z</time>
      </trkpt>
      <trkpt lat="49.70098" lon="0.20001">
        <ele>46.1</ele>
        <time>2020-06-17T18:56:17Z</time>
      </trkpt>
      <trkpt lat="49.70106" lon="0.2">
        <ele>45.5</ele>
        <time>2020-06-17T18:56:18Z</time>
      </trkpt>
      <trkpt lat="49.70115" lon="0.20001">
        <ele>44.9</ele>
        <time>2020-06-17T18:56:19Z</time>
      </trkpt>
      <trkpt lat="49.70123" lon="0.20001">
        <ele>44.3</ele>
        <time>2020-06-17T18:56:20Z</time>
      </trkpt>
      <trkpt lat="49.70133" lon="0.20004">
        <ele>43.6</ele>
        <time>2020-06-17T18:56:21Z</time>
      </trkpt>
      <trkpt lat="49.70141" lon="0.20005">
        <ele>43</ele>
        <time>2020-06-17T18:56:22Z</time>
      </trkpt>
      <trkpt lat="49.70151" lon="0.20006">
        <ele>42.3</ele>
        <time>2020-06-17T18:56:23Z</time>
      </trkpt>
      <trkpt lat="49.70161" lon="0.20008">
        <ele>41.6</ele>
        <time>2020-06-17T18:56:24Z</time>
      </trkpt>
      <trkpt lat="49.70171" lon="0.20009">
        <ele>40.9</ele>
        <time>2020-06-17T18:56:25Z</time>
      </trkpt>
      <trkpt lat="49.70181" lon="0.2001">
        <ele>40.2</ele>
        <time>2020-06-17T18:56:26Z</time>
      </trkpt>
      <trkpt lat="49.7019" lon="0.20012">
        <ele>39.5</ele>
        <time>2020-06-17T18:56:27Z</time>
      </trkpt>
      <trkpt lat="49.702" lon="0.20014">
        <ele>38.8</ele>
        <time>2020-06-17T18:56:28Z</time>
      </trkpt>
      <trkpt lat="49.7021" lon="0.20018">
        <ele>38</ele>
        <time>2020-06-17T18:56:29Z</time>
      </trkpt>
      <trkpt lat="49.7022" lon="0.2002">
        <ele>37.3</ele>
        <time>2020-06-17T18:56:30Z</time>
      </trkpt>
      <trkpt lat="49.7023" lon="0.20021">
        <ele>36.7</ele>
        <time>2020-06-17T18:56:31Z</time>
      </trkpt>
      <trkpt lat="49.7024" lon="0.20023">
        <ele>36</ele>
        <time>2020-06-17T18:56:32Z</time>
      </trkpt>
      <trkpt lat="49.70249" lon="0.20024">
        <ele>35.4</ele>
        <time>2020-06-17T18:56:33Z</time>
      </trkpt>
      <trkpt lat="49.70259" lon="0.20026">
        <ele>34.8</ele>
        <time>2020-06-17T18:56:34Z</time>
      </trkpt>
      <trkpt lat="49.70267" lon="0.20028">
        <ele>34.3</ele>
        <time>2020-06-17T18:56:35Z</time>
      </trkpt>
      <trkpt lat="49.70277" lon="0.20029">
        <ele>33.8</ele>
        <time>2020-06-17T18:56:36Z</time>
      </trkpt>
      <trkpt lat="49.70286" lon="0.2003">
        <ele>33.3</ele>
        <time>2020-06-17T18:56:37Z</time>
      </trkpt>
      <trkpt lat="49.70296" lon="0.2003">
        <ele>32.8</ele>
        <time>2020-06-17T18:56:38Z</time>
      </trkpt>
      <trkpt lat="49.70304" lon="0.20031">
        <ele>32.4</ele>
        <time>2020-06-17T18:56:39Z</time>
      </trkpt>
      <trkpt lat="49.70312" lon="0.20033">
        <ele>31.9</ele>
        <time>2020-06-17T18:56:40Z</time>
      </trkpt>
      <trkpt lat="49.7032" lon="0.20035">
        <ele>31.5</ele>
        <time>2020-06-17T18:56:41Z</time>
      </trkpt>
      <trkpt lat="49.70327" lon="0.20038">
        <ele>31.1</ele>
        <time>2020-06-17T18:56:42Z</time>
      </trkpt>
      <trkpt lat="49.70335" lon="0.2004">
        <ele>30.6</ele>
        <time>2020-06-17T18:56:43Z</time>
      </trkpt>
      <trkpt lat="49.70342" lon="0.20043">
        <ele>30.1</ele>
        <time>2020-06-17T18:56:44Z</time>
      </trkpt>
      <trkpt lat="49.70349" lon="0.20049">
        <ele>29.5</ele>
        <time>2020-06-17T18:56:45Z</time>
      </trkpt>
      <trkpt lat="49.70356" lon="0.20056">
        <ele>29</ele>
        <time>2020-06-17T18:56:46Z</time>
      </trkpt>
      <trkpt lat="49.70362" lon="0.20062">
        <ele>28.4</ele>
        <time>2020-06-17T18:56:47Z</time>
      </trkpt>
      <trkpt lat="49.70369" lon="0.20069">
        <ele>27.9</ele>
        <time>2020-06-17T18:56:48Z</time>
      </trkpt>
      <trkpt lat="49.70375" lon="0.20075">
        <ele>27.4</ele>
        <time>2020-06-17T18:56:49Z</time>
      </trkpt>
      <trkpt lat="49.70382" lon="0.20082">
        <ele>26.9</ele>
        <time>2020-06-17T18:56:50Z</time>
      </trkpt>
      <trkpt lat="49.70388" lon="0.2009">
        <ele>26.4</ele>
        <time>2020-06-17T18:56:51Z</time>
      </trkpt>
      <trkpt lat="49.70395" lon="0.20098">
        <ele>26</ele>
        <time>2020-06-17T18:56:52Z</time>
      </trkpt>
      <trkpt lat="49.70401" lon="0.20105">
        <ele>25.5</ele>
        <time>2020-06-17T18:56:53Z</time>
      </trkpt>
      <trkpt lat="49.70408" lon="0.20112">
        <ele>25</ele>
        <time>2020-06-17T18:56:54Z</time>
      </trkpt>
      <trkpt lat="49.70414" lon="0.20119">
        <ele>24.5</ele>
        <time>2020-06-17T18:56:55Z</time>
      </trkpt>
      <trkpt lat="49.70421" lon="0.20126">
        <ele>24</ele>
        <time>2020-06-17T18:56:56Z</time>
      </trkpt>
      <trkpt lat="49.70428" lon="0.20133">
        <ele>23.5</ele>
        <time>2020-06-17T18:56:57Z</time>
      </trkpt>
      <trkpt lat="49.70435" lon="0.20142">
        <ele>22.9</ele>
        <time>2020-06-17T18:56:58Z</time>
      </trkpt>
      <trkpt lat="49.70443" lon="0.20149">
        <ele>22.3</ele>
        <time>2020-06-17T18:56:59Z</time>
      </trkpt>
      <trkpt lat="49.70449" lon="0.20158">
        <ele>21.8</ele>
        <time>2020-06-17T18:57:00Z</time>
      </trkpt>
      <trkpt lat="49.70455" lon="0.20166">
        <ele>21.3</ele>
        <time>2020-06-17T18:57:01Z</time>
      </trkpt>
      <trkpt lat="49.70461" lon="0.20175">
        <ele>20.8</ele>
        <time>2020-06-17T18:57:02Z</time>
      </trkpt>
      <trkpt lat="49.70467" lon="0.20183">
        <ele>20.4</ele>
        <time>2020-06-17T18:57:03Z</time>
      </trkpt>
      <trkpt lat="49.70473" lon="0.20189">
        <ele>20</ele>
        <time>2020-06-17T18:57:04Z</time>
      </trkpt>
      <trkpt lat="49.70479" lon="0.20198">
        <ele>19.6</ele>
        <time>2020-06-17T18:57:05Z</time>
      </trkpt>
      <trkpt lat="49.70485" lon="0.20203">
        <ele>19.2</ele>
        <time>2020-06-17T18:57:06Z</time>
      </trkpt>
      <trkpt lat="49.70492" lon="0.20208">
        <ele>18.8</ele>
        <time>2020-06-17T18:57:07Z</time>
      </trkpt>
      <trkpt lat="49.70498" lon="0.20213">
        <ele>18.4</ele>
        <time>2020-06-17T18:57:08Z</time>
      </trkpt>
      <trkpt lat="49.70505" lon="0.20219">
        <ele>18</ele>
        <time>2020-06-17T18:57:09Z</time>
      </trkpt>
      <trkpt lat="49.70512" lon="0.20223">
        <ele>17.6</ele>
        <time>2020-06-17T18:57:10Z</time>
      </trkpt>
      <trkpt lat="49.70519" lon="0.20228">
        <ele>17.2</ele>
        <time>2020-06-17T18:57:11Z</time>
      </trkpt>
      <trkpt lat="49.70525" lon="0.20234">
        <ele>16.8</ele>
        <time>2020-06-17T18:57:12Z</time>
      </trkpt>
      <trkpt lat="49.7053" lon="0.20241">
        <ele>16.2</ele>
        <time>2020-06-17T18:57:13Z</time>
      </trkpt>
      <trkpt lat="49.70536" lon="0.20247">
        <ele>16.2</ele>
        <time>2020-06-17T18:57:14Z</time>
      </trkpt>
      <trkpt lat="49.70541" lon="0.20254">
        <ele>16</ele>
        <time>2020-06-17T18:57:15Z</time>
      </trkpt>
      <trkpt lat="49.70547" lon="0.2026">
        <ele>15.9</ele>
        <time>2020-06-17T18:57:16Z</time>
      </trkpt>
      <trkpt lat="49.70552" lon="0.20266">
        <ele>15.7</ele>
        <time>2020-06-17T18:57:17Z</time>
      </trkpt>
      <trkpt lat="49.70556" lon="0.20272">
        <ele>15.5</ele>
        <time>2020-06-17T18:57:18Z</time>
      </trkpt>
      <trkpt lat="49.7056" lon="0.20276">
        <ele>15.4</ele>
        <time>2020-06-17T18:57:19Z</time>
      </trkpt>
      <trkpt lat="49.70563" lon="0.20281">
        <ele>15.3</ele>
        <time>2020-06-17T18:57:20Z</time>
      </trkpt>
      <trkpt lat="49.70564" lon="0.20286">
        <ele>15.2</ele>
        <time>2020-06-17T18:57:21Z</time>
      </trkpt>
      <trkpt lat="49.70566" lon="0.20289">
        <ele>15.1</ele>
        <time>2020-06-17T18:57:22Z</time>
      </trkpt>
      <trkpt lat="49.7057" lon="0.20293">
        <ele>14.9</ele>
        <time>2020-06-17T18:57:23Z</time>
      </trkpt>
      <trkpt lat="49.70571" lon="0.20295">
        <ele>14.8</ele>
        <time>2020-06-17T18:57:24Z</time>
      </trkpt>
      <trkpt lat="49.70573" lon="0.20299">
        <ele>14.7</ele>
        <time>2020-06-17T18:57:25Z</time>
      </trkpt>
      <trkpt lat="49.70574" lon="0.203">
        <ele>14.7</ele>
        <time>2020-06-17T18:57:26Z</time>
      </trkpt>
      <trkpt lat="49.70575" lon="0.20303">
        <ele>14.6</ele>
        <time>2020-06-17T18:57:27Z</time>
      </trkpt>
      <trkpt lat="49.70575" lon="0.20305">
        <ele>14.5</ele>
        <time>2020-06-17T18:57:28Z</time>
      </trkpt>
      <trkpt lat="49.70575" lon="0.20306">
        <ele>14.5</ele>
        <time>2020-06-17T18:57:29Z</time>
      </trkpt>
      <trkpt lat="49.70575" lon="0.20305">
        <ele>14.5</ele>
        <time>2020-06-17T18:57:30Z</time>
      </trkpt>
      <trkpt lat="49.70575" lon="0.20306">
        <ele>14.4</ele>
        <time>2020-06-17T18:57:31Z</time>
      </trkpt>
      <trkpt lat="49.70576" lon="0.20307">
        <ele>14.4</ele>
        <time>2020-06-17T18:57:32Z</time>
      </trkpt>
      <trkpt lat="49.70576" lon="0.20309">
        <ele>14.4</ele>
        <time>2020-06-17T18:57:33Z</time>
      </trkpt>
      <trkpt lat="49.70577" lon="0.20309">
        <ele>14.3</ele>
        <time>2020-06-17T18:57:34Z</time>
      </trkpt>
      <trkpt lat="49.70578" lon="0.20312">
        <ele>14.2</ele>
        <time>2020-06-17T18:57:35Z</time>
      </trkpt>
      <trkpt lat="49.70579" lon="0.20313">
        <ele>14.2</ele>
        <time>2020-06-17T18:57:36Z</time>
      </trkpt>
      <trkpt lat="49.7058" lon="0.20314">
        <ele>14.1</ele>
        <time>2020-06-17T18:57:37Z</time>
      </trkpt>
      <trkpt lat="49.70584" lon="0.20314">
        <ele>13.9</ele>
        <time>2020-06-17T18:57:38Z</time>
      </trkpt>
      <trkpt lat="49.70586" lon="0.20313">
        <ele>13.9</ele>
        <time>2020-06-17T18:57:39Z</time>
      </trkpt>
      <trkpt lat="49.7059" lon="0.20313">
        <ele>13.8</ele>
        <time>2020-06-17T18:57:40Z</time>
      </trkpt>
      <trkpt lat="49.70594" lon="0.20312">
        <ele>13.6</ele>
        <time>2020-06-17T18:57:41Z</time>
      </trkpt>
      <trkpt lat="49.70598" lon="0.2031">
        <ele>13.4</ele>
        <time>2020-06-17T18:57:42Z</time>
      </trkpt>
      <trkpt lat="49.70601" lon="0.20307">
        <ele>13.3</ele>
        <time>2020-06-17T18:57:43Z</time>
      </trkpt>
      <trkpt lat="49.70605" lon="0.20304">
        <ele>13.1</ele>
        <time>2020-06-17T18:57:44Z</time>
      </trkpt>
      <trkpt lat="49.7061" lon="0.20301">
        <ele>12.9</ele>
        <time>2020-06-17T18:57:45Z</time>
      </trkpt>
      <trkpt lat="49.70614" lon="0.203">
        <ele>12.8</ele>
        <time>2020-06-17T18:57:46Z</time>
      </trkpt>
      <trkpt lat="49.70619" lon="0.20298">
        <ele>12.6</ele>
        <time>2020-06-17T18:57:47Z</time>
      </trkpt>
      <trkpt lat="49.70623" lon="0.20295">
        <ele>12.5</ele>
        <time>2020-06-17T18:57:48Z</time>
      </trkpt>
      <trkpt lat="49.70626" lon="0.20295">
        <ele>12.4</ele>
        <time>2020-06-17T18:57:49Z</time>
      </trkpt>
      <trkpt lat="49.7063" lon="0.20296">
        <ele>12.2</ele>
        <time>2020-06-17T18:57:50Z</time>
      </trkpt>
      <trkpt lat="49.70635" lon="0.20296">
        <ele>12</ele>
        <time>2020-06-17T18:57:51Z</time>
      </trkpt>
      <trkpt lat="49.70638" lon="0.20295">
        <ele>11.9</ele>
        <time>2020-06-17T18:57:52Z</time>
      </trkpt>
      <trkpt lat="49.70642" lon="0.20295">
        <ele>11.7</ele>
        <time>2020-06-17T18:57:53Z</time>
      </trkpt>
      <trkpt lat="49.70644" lon="0.20293">
        <ele>11.6</ele>
        <time>2020-06-17T18:57:54Z</time>
      </trkpt>
      <trkpt lat="49.70647" lon="0.20292">
        <ele>11.4</ele>
        <time>2020-06-17T18:57:55Z</time>
      </trkpt>
      <trkpt lat="49.7065" lon="0.20289">
        <ele>11.3</ele>
        <time>2020-06-17T18:57:56Z</time>
      </trkpt>
      <trkpt lat="49.7065" lon="0.20287">
        <ele>11.2</ele>
        <time>2020-06-17T18:57:57Z</time>
      </trkpt>
      <trkpt lat="49.70654" lon="0.20285">
        <ele>11</ele>
        <time>2020-06-17T18:57:58Z</time>
      </trkpt>
      <trkpt lat="49.70656" lon="0.20284">
        <ele>10.9</ele>
        <time>2020-06-17T18:57:59Z</time>
      </trkpt>
      <trkpt lat="49.70659" lon="0.20281">
        <ele>10.7</ele>
        <time>2020-06-17T18:58:00Z</time>
      </trkpt>
      <trkpt lat="49.70661" lon="0.20278">
        <ele>10.6</ele>
        <time>2020-06-17T18:58:01Z</time>
      </trkpt>
      <trkpt lat="49.70664" lon="0.20275">
        <ele>10.4</ele>
        <time>2020-06-17T18:58:02Z</time>
      </trkpt>
      <trkpt lat="49.70666" lon="0.20271">
        <ele>9.8</ele>
        <time>2020-06-17T18:58:03Z</time>
      </trkpt>
      <trkpt lat="49.70669" lon="0.20267">
        <ele>9.7</ele>
        <time>2020-06-17T18:58:04Z</time>
      </trkpt>
      <trkpt lat="49.70671" lon="0.20263">
        <ele>9.6</ele>
        <time>2020-06-17T18:58:05Z</time>
      </trkpt>
      <trkpt lat="49.70673" lon="0.20258">
        <ele>9.4</ele>
        <time>2020-06-17T18:58:06Z</time>
      </trkpt>
      <trkpt lat="49.70675" lon="0.20257">
        <ele>9.4</ele>
        <time>2020-06-17T18:58:07Z</time>
      </trkpt>
      <trkpt lat="49.70677" lon="0.20252">
        <ele>9.3</ele>
        <time>2020-06-17T18:58:08Z</time>
      </trkpt>
      <trkpt lat="49.7068" lon="0.20248">
        <ele>9.1</ele>
        <time>2020-06-17T18:58:09Z</time>
      </trkpt>
      <trkpt lat="49.70681" lon="0.20243">
        <ele>9</ele>
        <time>2020-06-17T18:58:10Z</time>
      </trkpt>
      <trkpt lat="49.70684" lon="0.20239">
        <ele>9</ele>
        <time>2020-06-17T18:58:11Z</time>
      </trkpt>
      <trkpt lat="49.70689" lon="0.20234">
        <ele>8.9</ele>
        <time>2020-06-17T18:58:12Z</time>
      </trkpt>
      <trkpt lat="49.70694" lon="0.20229">
        <ele>8.8</ele>
        <time>2020-06-17T18:58:13Z</time>
      </trkpt>
      <trkpt lat="49.70701" lon="0.2022">
        <ele>8.6</ele>
        <time>2020-06-17T18:58:14Z</time>
      </trkpt>
      <trkpt lat="49.70706" lon="0.20212">
        <ele>8.5</ele>
        <time>2020-06-17T18:58:15Z</time>
      </trkpt>
      <trkpt lat="49.70708" lon="0.20206">
        <ele>8.4</ele>
        <time>2020-06-17T18:58:16Z</time>
      </trkpt>
      <trkpt lat="49.7071" lon="0.202">
        <ele>8.3</ele>
        <time>2020-06-17T18:58:17Z</time>
      </trkpt>
      <trkpt lat="49.70711" lon="0.20194">
        <ele>8.3</ele>
        <time>2020-06-17T18:58:18Z</time>
      </trkpt>
      <trkpt lat="49.70712" lon="0.20192">
        <ele>8.3</ele>
        <time>2020-06-17T18:58:19Z</time>
      </trkpt>
      <trkpt lat="49.70715" lon="0.20186">
        <ele>8.2</ele>
        <time>2020-06-17T18:58:20Z</time>
      </trkpt>
      <trkpt lat="49.70716" lon="0.20181">
        <ele>8.2</ele>
        <time>2020-06-17T18:58:21Z</time>
      </trkpt>
      <trkpt lat="49.70718" lon="0.20176">
        <ele>8.2</ele>
        <time>2020-06-17T18:58:22Z</time>
      </trkpt>
      <trkpt lat="49.70721" lon="0.20168">
        <ele>8.2</ele>
        <time>2020-06-17T18:58:23Z</time>
      </trkpt>
      <trkpt lat="49.70723" lon="0.20163">
        <ele>8.2</ele>
        <time>2020-06-17T18:58:24Z</time>
      </trkpt>
      <trkpt lat="49.70725" lon="0.20159">
        <ele>8.2</ele>
        <time>2020-06-17T18:58:25Z</time>
      </trkpt>
      <trkpt lat="49.70727" lon="0.20155">
        <ele>8.2</ele>
        <time>2020-06-17T18:58:26Z</time>
      </trkpt>
      <trkpt lat="49.70728" lon="0.2015">
        <ele>8.3</ele>
        <time>2020-06-17T18:58:27Z</time>
      </trkpt>
      <trkpt lat="49.70729" lon="0.20146">
        <ele>8.3</ele>
        <time>2020-06-17T18:58:28Z</time>
      </trkpt>
      <trkpt lat="49.7073" lon="0.20143">
        <ele>8.4</ele>
        <time>2020-06-17T18:58:29Z</time>
      </trkpt>
      <trkpt lat="49.70732" lon="0.20139">
        <ele>8.4</ele>
        <time>2020-06-17T18:58:30Z</time>
      </trkpt>
      <trkpt lat="49.70734" lon="0.20134">
        <ele>8.5</ele>
        <time>2020-06-17T18:58:31Z</time>
      </trkpt>
      <trkpt lat="49.70736" lon="0.20129">
        <ele>8.5</ele>
        <time>2020-06-17T18:58:32Z</time>
      </trkpt>
      <trkpt lat="49.70739" lon="0.20124">
        <ele>8.6</ele>
        <time>2020-06-17T18:58:33Z</time>
      </trkpt>
      <trkpt lat="49.70741" lon="0.2012">
        <ele>8.6</ele>
        <time>2020-06-17T18:58:34Z</time>
      </trkpt>
      <trkpt lat="49.70743" lon="0.20118">
        <ele>9</ele>
        <time>2020-06-17T18:58:35Z</time>
      </trkpt>
      <trkpt lat="49.70745" lon="0.20113">
        <ele>9</ele>
        <time>2020-06-17T18:58:36Z</time>
      </trkpt>
      <trkpt lat="49.70748" lon="0.20108">
        <ele>9</ele>
        <time>2020-06-17T18:58:37Z</time>
      </trkpt>
      <trkpt lat="49.70749" lon="0.20105">
        <ele>9</ele>
        <time>2020-06-17T18:58:38Z</time>
      </trkpt>
      <trkpt lat="49.70751" lon="0.20101">
        <ele>9</ele>
        <time>2020-06-17T18:58:39Z</time>
      </trkpt>
      <trkpt lat="49.70751" lon="0.201">
        <ele>9</ele>
        <time>2020-06-17T18:58:40Z</time>
      </trkpt>
      <trkpt lat="49.70753" lon="0.20097">
        <ele>9</ele>
        <time>2020-06-17T18:58:41Z</time>
      </trkpt>
      <trkpt lat="49.70754" lon="0.20096">
        <ele>9</ele>
        <time>2020-06-17T18:58:42Z</time>
      </trkpt>
      <trkpt lat="49.70755" lon="0.20094">
        <ele>8.8</ele>
        <time>2020-06-17T18:58:43Z</time>
      </trkpt>
      <trkpt lat="49.70757" lon="0.20095">
        <ele>8.8</ele>
        <time>2020-06-17T18:58:44Z</time>
      </trkpt>
      <trkpt lat="49.70758" lon="0.20094">
        <ele>8.8</ele>
        <time>2020-06-17T18:58:45Z</time>
      </trkpt>
      <trkpt lat="49.7076" lon="0.20093">
        <ele>8.8</ele>
        <time>2020-06-17T18:58:46Z</time>
      </trkpt>
      <trkpt lat="49.70761" lon="0.20092">
        <ele>8.8</ele>
        <time>2020-06-17T18:58:47Z</time>
      </trkpt>
      <trkpt lat="49.70762" lon="0.2009">
        <ele>8.8</ele>
        <time>2020-06-17T18:58:48Z</time>
      </trkpt>
      <trkpt lat="49.70764" lon="0.20086">
        <ele>8.8</ele>
        <time>2020-06-17T18:58:49Z</time>
      </trkpt>
      <trkpt lat="49.70764" lon="0.20084">
        <ele>8.8</ele>
        <time>2020-06-17T18:58:50Z</time>
      </trkpt>
      <trkpt lat="49.70765" lon="0.20082">
        <ele>8.8</ele>
        <time>2020-06-17T18:58:51Z</time>
      </trkpt>
      <trkpt lat="49.70765" lon="0.2008">
        <ele>8.8</ele>
        <time>2020-06-17T18:58:52Z</time>
      </trkpt>
      <trkpt lat="49.70765" lon="0.2008">
        <ele>8.8</ele>
        <time>2020-06-17T18:58:53Z</time>
      </trkpt>
      <trkpt lat="49.70766" lon="0.2008">
        <ele>8.8</ele>
        <time>2020-06-17T18:58:54Z</time>
      </trkpt>
      <trkpt lat="49.70766" lon="0.20081">
        <ele>8.8</ele>
        <time>2020-06-17T18:58:55Z</time>
      </trkpt>
      <trkpt lat="49.70766" lon="0.20082">
        <ele>8.8</ele>
        <time>2020-06-17T18:58:56Z</time>
      </trkpt>
      <trkpt lat="49.70766" lon="0.20082">
        <ele>8.8</ele>
        <time>2020-06-17T18:58:57Z</time>
      </trkpt>
      <trkpt lat="49.70767" lon="0.20083">
        <ele>8.8</ele>
        <time>2020-06-17T18:58:58Z</time>
      </trkpt>
      <trkpt lat="49.70767" lon="0.20084">
        <ele>8.8</ele>
        <time>2020-06-17T18:58:59Z</time>
      </trkpt>
      <trkpt lat="49.70767" lon="0.20084">
        <ele>8.8</ele>
        <time>2020-06-17T18:59:00Z</time>
      </trkpt>
      <trkpt lat="49.70768" lon="0.20085">
        <ele>8.8</ele>
        <time>2020-06-17T18:59:01Z</time>
      </trkpt>
      <trkpt lat="49.70768" lon="0.20086">
        <ele>8.8</ele>
        <time>2020-06-17T18:59:02Z</time>
      </trkpt>
      <trkpt lat="49.70768" lon="0.20086">
        <ele>8.8</ele>
        <time>2020-06-17T18:59:03Z</time>
      </trkpt>
      <trkpt lat="49.70768" lon="0.20087">
        <ele>8.8</ele>
        <time>2020-06-17T18:59:04Z</time>
      </trkpt>
      <trkpt lat="49.70769" lon="0.20088">
        <ele>8.8</ele>
        <time>2020-06-17T18:59:05Z</time>
      </trkpt>
      <trkpt lat="49.70769" lon="0.20088">
        <ele>8.8</ele>
        <time>2020-06-17T18:59:06Z</time>
      </trkpt>
      <trkpt lat="49.70769" lon="0.20089">
        <ele>8.8</ele>
        <time>2020-06-17T19:02:44Z</time>
      </trkpt>
      <trkpt lat="49.7077" lon="0.20089">
        <ele>8.8</ele>
        <time>2020-06-17T19:02:45Z</time>
      </trkpt>
      <trkpt lat="49.7077" lon="0.2009">
        <ele>8.8</ele>
        <time>2020-06-17T19:02:46Z</time>
      </trkpt>
      <trkpt lat="49.70769" lon="0.20092">
        <ele>8.8</ele>
        <time>2020-06-17T19:02:47Z</time>
      </trkpt>
      <trkpt lat="49.70768" lon="0.20093">
        <ele>8.8</ele>
        <time>2020-06-17T19:02:48Z</time>
      </trkpt>
      <trkpt lat="49.70767" lon="0.20093">
        <ele>8.8</ele>
        <time>2020-06-17T19:02:49Z</time>
      </trkpt>
      <trkpt lat="49.70767" lon="0.20093">
        <ele>8.8</ele>
        <time>2020-06-17T19:02:50Z</time>
      </trkpt>
      <trkpt lat="49.70766" lon="0.20092">
        <ele>8.8</ele>
        <time>2020-06-17T19:02:51Z</time>
      </trkpt>
      <trkpt lat="49.70765" lon="0.20093">
        <ele>8.8</ele>
        <time>2020-06-17T19:02:52Z</time>
      </trkpt>
      <trkpt lat="49.70764" lon="0.20093">
        <ele>8.8</ele>
        <time>2020-06-17T19:02:53Z</time>
      </trkpt>
      <trkpt lat="49.70762" lon="0.20093">
        <ele>8.8</ele>
        <time>2020-06-17T19:02:54Z</time>
      </trkpt>
      <trkpt lat="49.70761" lon="0.20094">
        <ele>8.8</ele>
        <time>2020-06-17T19:02:55Z</time>
      </trkpt>
      <trkpt lat="49.70759" lon="0.20095">
        <ele>8.8</ele>
        <time>2020-06-17T19:02:56Z</time>
      </trkpt>
      <trkpt lat="49.70757" lon="0.20096">
        <ele>8.8</ele>
        <time>2020-06-17T19:02:57Z</time>
      </trkpt>
      <trkpt lat="49.70756" lon="0.20095">
        <ele>8.8</ele>
        <time>2020-06-17T19:02:58Z</time>
      </trkpt>
      <trkpt lat="49.70754" lon="0.20095">
        <ele>8.8</ele>
        <time>2020-06-17T19:02:59Z</time>
      </trkpt>
      <trkpt lat="49.70751" lon="0.20096">
        <ele>9</ele>
        <time>2020-06-17T19:03:00Z</time>
      </trkpt>
      <trkpt lat="49.70748" lon="0.20098">
        <ele>9</ele>
        <time>2020-06-17T19:03:01Z</time>
      </trkpt>
      <trkpt lat="49.70746" lon="0.20103">
        <ele>9</ele>
        <time>2020-06-17T19:03:02Z</time>
      </trkpt>
      <trkpt lat="49.70745" lon="0.20105">
        <ele>9</ele>
        <time>2020-06-17T19:03:03Z</time>
      </trkpt>
      <trkpt lat="49.70744" lon="0.2011">
        <ele>9</ele>
        <time>2020-06-17T19:03:04Z</time>
      </trkpt>
      <trkpt lat="49.70744" lon="0.20117">
        <ele>9</ele>
        <time>2020-06-17T19:03:05Z</time>
      </trkpt>
      <trkpt lat="49.70746" lon="0.20124">
        <ele>8.9</ele>
        <time>2020-06-17T19:03:06Z</time>
      </trkpt>
      <trkpt lat="49.70748" lon="0.20129">
        <ele>8.8</ele>
        <time>2020-06-17T19:03:07Z</time>
      </trkpt>
      <trkpt lat="49.70749" lon="0.2013">
        <ele>8.8</ele>
        <time>2020-06-17T19:03:08Z</time>
      </trkpt>
      <trkpt lat="49.70751" lon="0.20133">
        <ele>8.7</ele>
        <time>2020-06-17T19:03:09Z</time>
      </trkpt>
      <trkpt lat="49.70753" lon="0.20139">
        <ele>8.7</ele>
        <time>2020-06-17T19:03:10Z</time>
      </trkpt>
      <trkpt lat="49.70756" lon="0.20144">
        <ele>8.6</ele>
        <time>2020-06-17T19:03:11Z</time>
      </trkpt>
      <trkpt lat="49.70756" lon="0.20146">
        <ele>8.6</ele>
        <time>2020-06-17T19:03:12Z</time>
      </trkpt>
      <trkpt lat="49.70759" lon="0.20149">
        <ele>8.6</ele>
        <time>2020-06-17T19:03:13Z</time>
      </trkpt>
      <trkpt lat="49.7076" lon="0.2015">
        <ele>8.6</ele>
        <time>2020-06-17T19:03:14Z</time>
      </trkpt>
      <trkpt lat="49.70762" lon="0.20155">
        <ele>8.6</ele>
        <time>2020-06-17T19:03:15Z</time>
      </trkpt>
      <trkpt lat="49.70763" lon="0.20157">
        <ele>8.6</ele>
        <time>2020-06-17T19:03:16Z</time>
      </trkpt>
      <trkpt lat="49.70765" lon="0.20161">
        <ele>8.6</ele>
        <time>2020-06-17T19:03:17Z</time>
      </trkpt>
      <trkpt lat="49.70766" lon="0.20163">
        <ele>8.5</ele>
        <time>2020-06-17T19:03:18Z</time>
      </trkpt>
      <trkpt lat="49.70768" lon="0.20167">
        <ele>8.5</ele>
        <time>2020-06-17T19:03:19Z</time>
      </trkpt>
      <trkpt lat="49.70771" lon="0.20171">
        <ele>8.6</ele>
        <time>2020-06-17T19:03:20Z</time>
      </trkpt>
      <trkpt lat="49.70771" lon="0.20173">
        <ele>8.6</ele>
        <time>2020-06-17T19:03:21Z</time>
      </trkpt>
      <trkpt lat="49.70773" lon="0.20178">
        <ele>8.6</ele>
        <time>2020-06-17T19:03:22Z</time>
      </trkpt>
      <trkpt lat="49.70774" lon="0.20179">
        <ele>8.6</ele>
        <time>2020-06-17T19:03:23Z</time>
      </trkpt>
      <trkpt lat="49.70776" lon="0.20183">
        <ele>8.6</ele>
        <time>2020-06-17T19:03:24Z</time>
      </trkpt>
      <trkpt lat="49.70777" lon="0.20185">
        <ele>8.6</ele>
        <time>2020-06-17T19:03:25Z</time>
      </trkpt>
      <trkpt lat="49.70779" lon="0.20189">
        <ele>8.6</ele>
        <time>2020-06-17T19:03:26Z</time>
      </trkpt>
      <trkpt lat="49.70779" lon="0.20191">
        <ele>8.6</ele>
        <time>2020-06-17T19:03:27Z</time>
      </trkpt>
      <trkpt lat="49.7078" lon="0.20196">
        <ele>8.6</ele>
        <time>2020-06-17T19:03:28Z</time>
      </trkpt>
      <trkpt lat="49.70781" lon="0.20197">
        <ele>8.6</ele>
        <time>2020-06-17T19:03:29Z</time>
      </trkpt>
      <trkpt lat="49.70782" lon="0.20201">
        <ele>8.6</ele>
        <time>2020-06-17T19:03:30Z</time>
      </trkpt>
      <trkpt lat="49.70784" lon="0.20206">
        <ele>8.6</ele>
        <time>2020-06-17T19:03:31Z</time>
      </trkpt>
      <trkpt lat="49.70787" lon="0.20209">
        <ele>8.6</ele>
        <time>2020-06-17T19:03:32Z</time>
      </trkpt>
      <trkpt lat="49.7079" lon="0.20212">
        <ele>8.6</ele>
        <time>2020-06-17T19:03:33Z</time>
      </trkpt>
      <trkpt lat="49.70793" lon="0.20215">
        <ele>8.5</ele>
        <time>2020-06-17T19:03:34Z</time>
      </trkpt>
      <trkpt lat="49.70794" lon="0.20217">
        <ele>8.5</ele>
        <time>2020-06-17T19:03:35Z</time>
      </trkpt>
      <trkpt lat="49.70797" lon="0.2022">
        <ele>8.5</ele>
        <time>2020-06-17T19:03:36Z</time>
      </trkpt>
      <trkpt lat="49.70799" lon="0.20224">
        <ele>8.5</ele>
        <time>2020-06-17T19:03:37Z</time>
      </trkpt>
      <trkpt lat="49.70802" lon="0.20228">
        <ele>8.4</ele>
        <time>2020-06-17T19:03:38Z</time>
      </trkpt>
      <trkpt lat="49.70805" lon="0.20232">
        <ele>8.4</ele>
        <time>2020-06-17T19:03:39Z</time>
      </trkpt>
      <trkpt lat="49.70808" lon="0.20236">
        <ele>8.4</ele>
        <time>2020-06-17T19:03:40Z</time>
      </trkpt>
      <trkpt lat="49.70808" lon="0.2024">
        <ele>8.4</ele>
        <time>2020-06-17T19:03:41Z</time>
      </trkpt>
      <trkpt lat="49.70808" lon="0.20242">
        <ele>8.4</ele>
        <time>2020-06-17T19:03:42Z</time>
      </trkpt>
      <trkpt lat="49.70809" lon="0.20248">
        <ele>8.4</ele>
        <time>2020-06-17T19:03:43Z</time>
      </trkpt>
      <trkpt lat="49.70809" lon="0.2025">
        <ele>8.3</ele>
        <time>2020-06-17T19:03:44Z</time>
      </trkpt>
      <trkpt lat="49.7081" lon="0.20253">
        <ele>8.3</ele>
        <time>2020-06-17T19:03:45Z</time>
      </trkpt>
      <trkpt lat="49.70811" lon="0.20255">
        <ele>8.3</ele>
        <time>2020-06-17T19:03:46Z</time>
      </trkpt>
      <trkpt lat="49.70812" lon="0.20258">
        <ele>8.3</ele>
        <time>2020-06-17T19:03:47Z</time>
      </trkpt>
      <trkpt lat="49.70812" lon="0.20259">
        <ele>8.3</ele>
        <time>2020-06-17T19:03:48Z</time>
      </trkpt>
      <trkpt lat="49.70814" lon="0.20264">
        <ele>8.3</ele>
        <time>2020-06-17T19:03:49Z</time>
      </trkpt>
      <trkpt lat="49.70815" lon="0.20266">
        <ele>8.3</ele>
        <time>2020-06-17T19:03:50Z</time>
      </trkpt>
      <trkpt lat="49.70817" lon="0.20271">
        <ele>8.3</ele>
        <time>2020-06-17T19:03:51Z</time>
      </trkpt>
      <trkpt lat="49.70818" lon="0.20273">
        <ele>8.3</ele>
        <time>2020-06-17T19:03:52Z</time>
      </trkpt>
      <trkpt lat="49.70821" lon="0.20276">
        <ele>8.3</ele>
        <time>2020-06-17T19:03:53Z</time>
      </trkpt>
      <trkpt lat="49.70823" lon="0.20277">
        <ele>8.3</ele>
        <time>2020-06-17T19:03:54Z</time>
      </trkpt>
      <trkpt lat="49.70824" lon="0.20279">
        <ele>8.3</ele>
        <time>2020-06-17T19:03:55Z</time>
      </trkpt>
      <trkpt lat="49.70826" lon="0.20279">
        <ele>8.3</ele>
        <time>2020-06-17T19:03:56Z</time>
      </trkpt>
      <trkpt lat="49.70828" lon="0.20281">
        <ele>8.3</ele>
        <time>2020-06-17T19:03:57Z</time>
      </trkpt>
      <trkpt lat="49.70831" lon="0.20285">
        <ele>8.3</ele>
        <time>2020-06-17T19:03:58Z</time>
      </trkpt>
      <trkpt lat="49.70834" lon="0.2029">
        <ele>8.4</ele>
        <time>2020-06-17T19:03:59Z</time>
      </trkpt>
      <trkpt lat="49.70837" lon="0.20295">
        <ele>8.4</ele>
        <time>2020-06-17T19:04:00Z</time>
      </trkpt>
      <trkpt lat="49.70837" lon="0.20296">
        <ele>8.4</ele>
        <time>2020-06-17T19:04:01Z</time>
      </trkpt>
      <trkpt lat="49.70839" lon="0.203">
        <ele>8.4</ele>
        <time>2020-06-17T19:04:02Z</time>
      </trkpt>
      <trkpt lat="49.7084" lon="0.20301">
        <ele>8.4</ele>
        <time>2020-06-17T19:04:03Z</time>
      </trkpt>
      <trkpt lat="49.70842" lon="0.20305">
        <ele>8.4</ele>
        <time>2020-06-17T19:04:04Z</time>
      </trkpt>
      <trkpt lat="49.70843" lon="0.20306">
        <ele>8.4</ele>
        <time>2020-06-17T19:04:05Z</time>
      </trkpt>
      <trkpt lat="49.70845" lon="0.2031">
        <ele>8.5</ele>
        <time>2020-06-17T19:04:06Z</time>
      </trkpt>
      <trkpt lat="49.70846" lon="0.20314">
        <ele>8.5</ele>
        <time>2020-06-17T19:04:07Z</time>
      </trkpt>
      <trkpt lat="49.70846" lon="0.20315">
        <ele>8.5</ele>
        <time>2020-06-17T19:04:08Z</time>
      </trkpt>
      <trkpt lat="49.70849" lon="0.2032">
        <ele>8.5</ele>
        <time>2020-06-17T19:04:09Z</time>
      </trkpt>
      <trkpt lat="49.70849" lon="0.20322">
        <ele>8.5</ele>
        <time>2020-06-17T19:04:10Z</time>
      </trkpt>
      <trkpt lat="49.7085" lon="0.20325">
        <ele>8.5</ele>
        <time>2020-06-17T19:04:11Z</time>
      </trkpt>
      <trkpt lat="49.7085" lon="0.20326">
        <ele>8.6</ele>
        <time>2020-06-17T19:04:12Z</time>
      </trkpt>
      <trkpt lat="49.7085" lon="0.20328">
        <ele>8.6</ele>
        <time>2020-06-17T19:04:13Z</time>
      </trkpt>
      <trkpt lat="49.70849" lon="0.20329">
        <ele>8.6</ele>
        <time>2020-06-17T19:04:14Z</time>
      </trkpt>
      <trkpt lat="49.70849" lon="0.2033">
        <ele>8.6</ele>
        <time>2020-06-17T19:04:15Z</time>
      </trkpt>
      <trkpt lat="49.70849" lon="0.2033">
        <ele>8.6</ele>
        <time>2020-06-17T19:04:16Z</time>
      </trkpt>
      <trkpt lat="49.7085" lon="0.20329">
        <ele>8.6</ele>
        <time>2020-06-17T19:04:17Z</time>
      </trkpt>
      <trkpt lat="49.70851" lon="0.20329">
        <ele>8.6</ele>
        <time>2020-06-17T19:04:18Z</time>
      </trkpt>
      <trkpt lat="49.70852" lon="0.20327">
        <ele>8.6</ele>
        <time>2020-06-17T19:04:19Z</time>
      </trkpt>
      <trkpt lat="49.70853" lon="0.20327">
        <ele>8.6</ele>
        <time>2020-06-17T19:04:20Z</time>
      </trkpt>
      <trkpt lat="49.70855" lon="0.20328">
        <ele>8.6</ele>
        <time>2020-06-17T19:04:21Z</time>
      </trkpt>
      <trkpt lat="49.70856" lon="0.2033">
        <ele>8.7</ele>
        <time>2020-06-17T19:04:22Z</time>
      </trkpt>
      <trkpt lat="49.70859" lon="0.20335">
        <ele>8.7</ele>
        <time>2020-06-17T19:04:23Z</time>
      </trkpt>
      <trkpt lat="49.70862" lon="0.20339">
        <ele>8.7</ele>
        <time>2020-06-17T19:04:24Z</time>
      </trkpt>
      <trkpt lat="49.70864" lon="0.20343">
        <ele>8.7</ele>
        <time>2020-06-17T19:04:25Z</time>
      </trkpt>
      <trkpt lat="49.70866" lon="0.20348">
        <ele>8.7</ele>
        <time>2020-06-17T19:04:26Z</time>
      </trkpt>
      <trkpt lat="49.70868" lon="0.20353">
        <ele>8.7</ele>
        <time>2020-06-17T19:04:27Z</time>
      </trkpt>
      <trkpt lat="49.7087" lon="0.20357">
        <ele>8.7</ele>
        <time>2020-06-17T19:04:28Z</time>
      </trkpt>
      <trkpt lat="49.70873" lon="0.20362">
        <ele>8.7</ele>
        <time>2020-06-17T19:04:29Z</time>
      </trkpt>
      <trkpt lat="49.70875" lon="0.20366">
        <ele>8.7</ele>
        <time>2020-06-17T19:04:30Z</time>
      </trkpt>
      <trkpt lat="49.70876" lon="0.2037">
        <ele>8.7</ele>
        <time>2020-06-17T19:04:31Z</time>
      </trkpt>
      <trkpt lat="49.70877" lon="0.20375">
        <ele>8.7</ele>
        <time>2020-06-17T19:04:32Z</time>
      </trkpt>
      <trkpt lat="49.70878" lon="0.2038">
        <ele>8.7</ele>
        <time>2020-06-17T19:04:33Z</time>
      </trkpt>
      <trkpt lat="49.70879" lon="0.20385">
        <ele>8.7</ele>
        <time>2020-06-17T19:04:34Z</time>
      </trkpt>
      <trkpt lat="49.70882" lon="0.20389">
        <ele>8.7</ele>
        <time>2020-06-17T19:04:35Z</time>
      </trkpt>
      <trkpt lat="49.70884" lon="0.20394">
        <ele>8.8</ele>
        <time>2020-06-17T19:04:36Z</time>
      </trkpt>
      <trkpt lat="49.70886" lon="0.20398">
        <ele>8.8</ele>
        <time>2020-06-17T19:04:37Z</time>
      </trkpt>
      <trkpt lat="49.70888" lon="0.20402">
        <ele>8.8</ele>
        <time>2020-06-17T19:04:38Z</time>
      </trkpt>
      <trkpt lat="49.70889" lon="0.20404">
        <ele>8.9</ele>
        <time>2020-06-17T19:04:39Z</time>
      </trkpt>
      <trkpt lat="49.70891" lon="0.20407">
        <ele>8.9</ele>
        <time>2020-06-17T19:04:40Z</time>
      </trkpt>
      <trkpt lat="49.70893" lon="0.20411">
        <ele>8.9</ele>
        <time>2020-06-17T19:04:41Z</time>
      </trkpt>
      <trkpt lat="49.70896" lon="0.20414">
        <ele>9</ele>
        <time>2020-06-17T19:04:42Z</time>
      </trkpt>
      <trkpt lat="49.70896" lon="0.20416">
        <ele>9</ele>
        <time>2020-06-17T19:04:43Z</time>
      </trkpt>
      <trkpt lat="49.70897" lon="0.20418">
        <ele>9</ele>
        <time>2020-06-17T19:04:44Z</time>
      </trkpt>
      <trkpt lat="49.70897" lon="0.20419">
        <ele>9.1</ele>
        <time>2020-06-17T19:04:45Z</time>
      </trkpt>
      <trkpt lat="49.70897" lon="0.20421">
        <ele>9.1</ele>
        <time>2020-06-17T19:04:46Z</time>
      </trkpt>
      <trkpt lat="49.70897" lon="0.20422">
        <ele>9.1</ele>
        <time>2020-06-17T19:04:47Z</time>
      </trkpt>
      <trkpt lat="49.70896" lon="0.20427">
        <ele>9.1</ele>
        <time>2020-06-17T19:04:48Z</time>
      </trkpt>
      <trkpt lat="49.70895" lon="0.20429">
        <ele>9.1</ele>
        <time>2020-06-17T19:04:49Z</time>
      </trkpt>
      <trkpt lat="49.70893" lon="0.20434">
        <ele>9.1</ele>
        <time>2020-06-17T19:04:50Z</time>
      </trkpt>
      <trkpt lat="49.70892" lon="0.20435">
        <ele>9.1</ele>
        <time>2020-06-17T19:04:51Z</time>
      </trkpt>
      <trkpt lat="49.7089" lon="0.20439">
        <ele>9.2</ele>
        <time>2020-06-17T19:04:52Z</time>
      </trkpt>
      <trkpt lat="49.70889" lon="0.20443">
        <ele>9.2</ele>
        <time>2020-06-17T19:04:53Z</time>
      </trkpt>
      <trkpt lat="49.70886" lon="0.20446">
        <ele>9.2</ele>
        <time>2020-06-17T19:04:54Z</time>
      </trkpt>
      <trkpt lat="49.70885" lon="0.20447">
        <ele>9.3</ele>
        <time>2020-06-17T19:04:55Z</time>
      </trkpt>
      <trkpt lat="49.70883" lon="0.20451">
        <ele>9.6</ele>
        <time>2020-06-17T19:04:56Z</time>
      </trkpt>
      <trkpt lat="49.70882" lon="0.20453">
        <ele>9.8</ele>
        <time>2020-06-17T19:04:57Z</time>
      </trkpt>
      <trkpt lat="49.70882" lon="0.20459">
        <ele>10.2</ele>
        <time>2020-06-17T19:04:58Z</time>
      </trkpt>
      <trkpt lat="49.70883" lon="0.20461">
        <ele>10.3</ele>
        <time>2020-06-17T19:04:59Z</time>
      </trkpt>
      <trkpt lat="49.70886" lon="0.20465">
        <ele>10.8</ele>
        <time>2020-06-17T19:05:00Z</time>
      </trkpt>
      <trkpt lat="49.70886" lon="0.20466">
        <ele>10.9</ele>
        <time>2020-06-17T19:05:01Z</time>
      </trkpt>
      <trkpt lat="49.70888" lon="0.20469">
        <ele>11.3</ele>
        <time>2020-06-17T19:05:02Z</time>
      </trkpt>
      <trkpt lat="49.70889" lon="0.2047">
        <ele>11.4</ele>
        <time>2020-06-17T19:05:03Z</time>
      </trkpt>
      <trkpt lat="49.7089" lon="0.2047">
        <ele>11.5</ele>
        <time>2020-06-17T19:05:04Z</time>
      </trkpt>
      <trkpt lat="49.70891" lon="0.2047">
        <ele>11.6</ele>
        <time>2020-06-17T19:05:05Z</time>
      </trkpt>
      <trkpt lat="49.70892" lon="0.20472">
        <ele>11.8</ele>
        <time>2020-06-17T19:05:06Z</time>
      </trkpt>
      <trkpt lat="49.70892" lon="0.20473">
        <ele>11.9</ele>
        <time>2020-06-17T19:05:07Z</time>
      </trkpt>
      <trkpt lat="49.70894" lon="0.20475">
        <ele>12.1</ele>
        <time>2020-06-17T19:05:08Z</time>
      </trkpt>
      <trkpt lat="49.70895" lon="0.20477">
        <ele>12.3</ele>
        <time>2020-06-17T19:05:09Z</time>
      </trkpt>
      <trkpt lat="49.70896" lon="0.20478">
        <ele>12.5</ele>
        <time>2020-06-17T19:05:10Z</time>
      </trkpt>
      <trkpt lat="49.70896" lon="0.20481">
        <ele>12.7</ele>
        <time>2020-06-17T19:05:11Z</time>
      </trkpt>
      <trkpt lat="49.70898" lon="0.20485">
        <ele>13.1</ele>
        <time>2020-06-17T19:05:12Z</time>
      </trkpt>
      <trkpt lat="49.70898" lon="0.20486">
        <ele>13.2</ele>
        <time>2020-06-17T19:05:13Z</time>
      </trkpt>
      <trkpt lat="49.70899" lon="0.20488">
        <ele>13.4</ele>
        <time>2020-06-17T19:05:14Z</time>
      </trkpt>
      <trkpt lat="49.70899" lon="0.20488">
        <ele>13.5</ele>
        <time>2020-06-17T19:05:15Z</time>
      </trkpt>
      <trkpt lat="49.70899" lon="0.20489">
        <ele>13.6</ele>
        <time>2020-06-17T19:05:16Z</time>
      </trkpt>
      <trkpt lat="49.70899" lon="0.2049">
        <ele>13.7</ele>
        <time>2020-06-17T19:05:17Z</time>
      </trkpt>
      <trkpt lat="49.70899" lon="0.20492">
        <ele>13.8</ele>
        <time>2020-06-17T19:05:18Z</time>
      </trkpt>
      <trkpt lat="49.709" lon="0.20494">
        <ele>14</ele>
        <time>2020-06-17T19:05:19Z</time>
      </trkpt>
      <trkpt lat="49.70901" lon="0.20498">
        <ele>14.3</ele>
        <time>2020-06-17T19:05:20Z</time>
      </trkpt>
      <trkpt lat="49.70901" lon="0.20499">
        <ele>14.5</ele>
        <time>2020-06-17T19:05:21Z</time>
      </trkpt>
      <trkpt lat="49.70902" lon="0.20501">
        <ele>14.6</ele>
        <time>2020-06-17T19:05:22Z</time>
      </trkpt>
      <trkpt lat="49.70903" lon="0.20507">
        <ele>15.2</ele>
        <time>2020-06-17T19:05:23Z</time>
      </trkpt>
      <trkpt lat="49.70904" lon="0.2051">
        <ele>15.4</ele>
        <time>2020-06-17T19:05:24Z</time>
      </trkpt>
      <trkpt lat="49.70906" lon="0.20513">
        <ele>15.7</ele>
        <time>2020-06-17T19:05:25Z</time>
      </trkpt>
      <trkpt lat="49.70906" lon="0.20514">
        <ele>15.8</ele>
        <time>2020-06-17T19:05:26Z</time>
      </trkpt>
      <trkpt lat="49.70907" lon="0.20514">
        <ele>15.9</ele>
        <time>2020-06-17T19:05:27Z</time>
      </trkpt>
      <trkpt lat="49.70908" lon="0.20516">
        <ele>16.2</ele>
        <time>2020-06-17T19:05:28Z</time>
      </trkpt>
      <trkpt lat="49.70909" lon="0.20518">
        <ele>16.3</ele>
        <time>2020-06-17T19:05:29Z</time>
      </trkpt>
      <trkpt lat="49.7091" lon="0.20522">
        <ele>16.7</ele>
        <time>2020-06-17T19:05:30Z</time>
      </trkpt>
      <trkpt lat="49.70911" lon="0.20523">
        <ele>16.8</ele>
        <time>2020-06-17T19:05:31Z</time>
      </trkpt>
      <trkpt lat="49.70912" lon="0.20526">
        <ele>17.2</ele>
        <time>2020-06-17T19:05:32Z</time>
      </trkpt>
      <trkpt lat="49.70913" lon="0.20527">
        <ele>17.3</ele>
        <time>2020-06-17T19:05:33Z</time>
      </trkpt>
      <trkpt lat="49.70914" lon="0.2053">
        <ele>17.5</ele>
        <time>2020-06-17T19:05:34Z</time>
      </trkpt>
      <trkpt lat="49.70915" lon="0.2053">
        <ele>17.6</ele>
        <time>2020-06-17T19:05:35Z</time>
      </trkpt>
      <trkpt lat="49.70916" lon="0.20532">
        <ele>17.8</ele>
        <time>2020-06-17T19:05:36Z</time>
      </trkpt>
      <trkpt lat="49.70918" lon="0.20534">
        <ele>18</ele>
        <time>2020-06-17T19:05:37Z</time>
      </trkpt>
      <trkpt lat="49.70918" lon="0.20536">
        <ele>18.2</ele>
        <time>2020-06-17T19:05:38Z</time>
      </trkpt>
      <trkpt lat="49.70919" lon="0.20538">
        <ele>18.4</ele>
        <time>2020-06-17T19:05:39Z</time>
      </trkpt>
      <trkpt lat="49.7092" lon="0.2054">
        <ele>18.5</ele>
        <time>2020-06-17T19:05:40Z</time>
      </trkpt>
      <trkpt lat="49.7092" lon="0.20542">
        <ele>18.5</ele>
        <time>2020-06-17T19:05:41Z</time>
      </trkpt>
      <trkpt lat="49.70921" lon="0.20545">
        <ele>18.5</ele>
        <time>2020-06-17T19:05:42Z</time>
      </trkpt>
      <trkpt lat="49.70922" lon="0.20546">
        <ele>18.5</ele>
        <time>2020-06-17T19:05:43Z</time>
      </trkpt>
      <trkpt lat="49.70923" lon="0.20547">
        <ele>18.5</ele>
        <time>2020-06-17T19:05:44Z</time>
      </trkpt>
      <trkpt lat="49.70923" lon="0.20549">
        <ele>18.5</ele>
        <time>2020-06-17T19:05:45Z</time>
      </trkpt>
      <trkpt lat="49.70924" lon="0.20551">
        <ele>18.5</ele>
        <time>2020-06-17T19:05:46Z</time>
      </trkpt>
      <trkpt lat="49.70926" lon="0.20554">
        <ele>19.3</ele>
        <time>2020-06-17T19:05:47Z</time>
      </trkpt>
      <trkpt lat="49.70926" lon="0.20555">
        <ele>19.5</ele>
        <time>2020-06-17T19:05:48Z</time>
      </trkpt>
      <trkpt lat="49.70927" lon="0.20557">
        <ele>19.7</ele>
        <time>2020-06-17T19:05:49Z</time>
      </trkpt>
      <trkpt lat="49.70928" lon="0.20559">
        <ele>19.9</ele>
        <time>2020-06-17T19:05:50Z</time>
      </trkpt>
      <trkpt lat="49.70929" lon="0.20562">
        <ele>20.2</ele>
        <time>2020-06-17T19:05:51Z</time>
      </trkpt>
      <trkpt lat="49.70929" lon="0.20564">
        <ele>20.5</ele>
        <time>2020-06-17T19:05:52Z</time>
      </trkpt>
      <trkpt lat="49.7093" lon="0.20566">
        <ele>20.7</ele>
        <time>2020-06-17T19:05:53Z</time>
      </trkpt>
      <trkpt lat="49.7093" lon="0.20568">
        <ele>20.9</ele>
        <time>2020-06-17T19:05:54Z</time>
      </trkpt>
      <trkpt lat="49.7093" lon="0.2057">
        <ele>21.1</ele>
        <time>2020-06-17T19:05:55Z</time>
      </trkpt>
      <trkpt lat="49.70931" lon="0.20571">
        <ele>21.2</ele>
        <time>2020-06-17T19:05:56Z</time>
      </trkpt>
      <trkpt lat="49.70931" lon="0.20572">
        <ele>21.3</ele>
        <time>2020-06-17T19:05:57Z</time>
      </trkpt>
      <trkpt lat="49.70932" lon="0.20574">
        <ele>21.6</ele>
        <time>2020-06-17T19:05:58Z</time>
      </trkpt>
      <trkpt lat="49.70933" lon="0.20577">
        <ele>21.8</ele>
        <time>2020-06-17T19:05:59Z</time>
      </trkpt>
      <trkpt lat="49.70933" lon="0.20578">
        <ele>22</ele>
        <time>2020-06-17T19:06:00Z</time>
      </trkpt>
      <trkpt lat="49.70934" lon="0.2058">
        <ele>22.2</ele>
        <time>2020-06-17T19:06:01Z</time>
      </trkpt>
      <trkpt lat="49.70935" lon="0.20583">
        <ele>22.5</ele>
        <time>2020-06-17T19:06:02Z</time>
      </trkpt>
      <trkpt lat="49.70936" lon="0.20585">
        <ele>22.7</ele>
        <time>2020-06-17T19:06:03Z</time>
      </trkpt>
      <trkpt lat="49.70936" lon="0.20587">
        <ele>22.9</ele>
        <time>2020-06-17T19:06:04Z</time>
      </trkpt>
      <trkpt lat="49.70937" lon="0.20589">
        <ele>23.2</ele>
        <time>2020-06-17T19:06:05Z</time>
      </trkpt>
      <trkpt lat="49.70938" lon="0.20592">
        <ele>23.5</ele>
        <time>2020-06-17T19:06:06Z</time>
      </trkpt>
      <trkpt lat="49.70938" lon="0.20594">
        <ele>23.6</ele>
        <time>2020-06-17T19:06:07Z</time>
      </trkpt>
      <trkpt lat="49.70938" lon="0.20596">
        <ele>23.8</ele>
        <time>2020-06-17T19:06:08Z</time>
      </trkpt>
      <trkpt lat="49.70938" lon="0.20599">
        <ele>24.1</ele>
        <time>2020-06-17T19:06:09Z</time>
      </trkpt>
      <trkpt lat="49.70938" lon="0.206">
        <ele>24.2</ele>
        <time>2020-06-17T19:06:10Z</time>
      </trkpt>
      <trkpt lat="49.70939" lon="0.20602">
        <ele>24.3</ele>
        <time>2020-06-17T19:06:11Z</time>
      </trkpt>
      <trkpt lat="49.70939" lon="0.20604">
        <ele>24.5</ele>
        <time>2020-06-17T19:06:12Z</time>
      </trkpt>
      <trkpt lat="49.70939" lon="0.20606">
        <ele>24.7</ele>
        <time>2020-06-17T19:06:13Z</time>
      </trkpt>
      <trkpt lat="49.7094" lon="0.20607">
        <ele>24.9</ele>
        <time>2020-06-17T19:06:14Z</time>
      </trkpt>
      <trkpt lat="49.7094" lon="0.20609">
        <ele>25.1</ele>
        <time>2020-06-17T19:06:15Z</time>
      </trkpt>
      <trkpt lat="49.7094" lon="0.20611">
        <ele>25.3</ele>
        <time>2020-06-17T19:06:16Z</time>
      </trkpt>
      <trkpt lat="49.7094" lon="0.20613">
        <ele>25.5</ele>
        <time>2020-06-17T19:06:17Z</time>
      </trkpt>
      <trkpt lat="49.7094" lon="0.20615">
        <ele>25.7</ele>
        <time>2020-06-17T19:06:18Z</time>
      </trkpt>
      <trkpt lat="49.7094" lon="0.20616">
        <ele>25.8</ele>
        <time>2020-06-17T19:06:19Z</time>
      </trkpt>
      <trkpt lat="49.7094" lon="0.20618">
        <ele>26</ele>
        <time>2020-06-17T19:06:20Z</time>
      </trkpt>
      <trkpt lat="49.70941" lon="0.20621">
        <ele>26.3</ele>
        <time>2020-06-17T19:06:21Z</time>
      </trkpt>
      <trkpt lat="49.70941" lon="0.20623">
        <ele>26.5</ele>
        <time>2020-06-17T19:06:22Z</time>
      </trkpt>
      <trkpt lat="49.70941" lon="0.20624">
        <ele>26.6</ele>
        <time>2020-06-17T19:06:23Z</time>
      </trkpt>
      <trkpt lat="49.70941" lon="0.20626">
        <ele>26.8</ele>
        <time>2020-06-17T19:06:24Z</time>
      </trkpt>
      <trkpt lat="49.70941" lon="0.20628">
        <ele>26.9</ele>
        <time>2020-06-17T19:06:25Z</time>
      </trkpt>
      <trkpt lat="49.7094" lon="0.20631">
        <ele>27.2</ele>
        <time>2020-06-17T19:06:26Z</time>
      </trkpt>
      <trkpt lat="49.7094" lon="0.20634">
        <ele>27.5</ele>
        <time>2020-06-17T19:06:27Z</time>
      </trkpt>
      <trkpt lat="49.7094" lon="0.20636">
        <ele>27.7</ele>
        <time>2020-06-17T19:06:28Z</time>
      </trkpt>
      <trkpt lat="49.7094" lon="0.20637">
        <ele>27.9</ele>
        <time>2020-06-17T19:06:29Z</time>
      </trkpt>
      <trkpt lat="49.7094" lon="0.20639">
        <ele>28.1</ele>
        <time>2020-06-17T19:06:30Z</time>
      </trkpt>
      <trkpt lat="49.7094" lon="0.2064">
        <ele>28.2</ele>
        <time>2020-06-17T19:06:31Z</time>
      </trkpt>
      <trkpt lat="49.7094" lon="0.20643">
        <ele>28.5</ele>
        <time>2020-06-17T19:06:32Z</time>
      </trkpt>
      <trkpt lat="49.70941" lon="0.20644">
        <ele>28.7</ele>
        <time>2020-06-17T19:06:33Z</time>
      </trkpt>
      <trkpt lat="49.70941" lon="0.20646">
        <ele>28.8</ele>
        <time>2020-06-17T19:06:34Z</time>
      </trkpt>
      <trkpt lat="49.70942" lon="0.20648">
        <ele>29</ele>
        <time>2020-06-17T19:06:35Z</time>
      </trkpt>
      <trkpt lat="49.70943" lon="0.2065">
        <ele>29.3</ele>
        <time>2020-06-17T19:06:36Z</time>
      </trkpt>
      <trkpt lat="49.70944" lon="0.20652">
        <ele>29.3</ele>
        <time>2020-06-17T19:06:37Z</time>
      </trkpt>
      <trkpt lat="49.70945" lon="0.20654">
        <ele>29.6</ele>
        <time>2020-06-17T19:06:38Z</time>
      </trkpt>
      <trkpt lat="49.70945" lon="0.20657">
        <ele>29.8</ele>
        <time>2020-06-17T19:06:39Z</time>
      </trkpt>
      <trkpt lat="49.70946" lon="0.20659">
        <ele>30.1</ele>
        <time>2020-06-17T19:06:40Z</time>
      </trkpt>
      <trkpt lat="49.70947" lon="0.20661">
        <ele>30.4</ele>
        <time>2020-06-17T19:06:41Z</time>
      </trkpt>
      <trkpt lat="49.70947" lon="0.20663">
        <ele>30.6</ele>
        <time>2020-06-17T19:06:42Z</time>
      </trkpt>
      <trkpt lat="49.70947" lon="0.20664">
        <ele>30.7</ele>
        <time>2020-06-17T19:06:43Z</time>
      </trkpt>
      <trkpt lat="49.70948" lon="0.20666">
        <ele>30.9</ele>
        <time>2020-06-17T19:06:44Z</time>
      </trkpt>
      <trkpt lat="49.70948" lon="0.20667">
        <ele>31.1</ele>
        <time>2020-06-17T19:06:45Z</time>
      </trkpt>
      <trkpt lat="49.70949" lon="0.20669">
        <ele>31.3</ele>
        <time>2020-06-17T19:06:46Z</time>
      </trkpt>
      <trkpt lat="49.7095" lon="0.20672">
        <ele>31.7</ele>
        <time>2020-06-17T19:06:47Z</time>
      </trkpt>
      <trkpt lat="49.7095" lon="0.20673">
        <ele>31.8</ele>
        <time>2020-06-17T19:06:48Z</time>
      </trkpt>
      <trkpt lat="49.70951" lon="0.20674">
        <ele>31.9</ele>
        <time>2020-06-17T19:06:49Z</time>
      </trkpt>
      <trkpt lat="49.70951" lon="0.20677">
        <ele>32.2</ele>
        <time>2020-06-17T19:06:50Z</time>
      </trkpt>
      <trkpt lat="49.70952" lon="0.20678">
        <ele>32.4</ele>
        <time>2020-06-17T19:06:51Z</time>
      </trkpt>
      <trkpt lat="49.70952" lon="0.2068">
        <ele>32.6</ele>
        <time>2020-06-17T19:06:52Z</time>
      </trkpt>
      <trkpt lat="49.70953" lon="0.20681">
        <ele>32.7</ele>
        <time>2020-06-17T19:06:53Z</time>
      </trkpt>
      <trkpt lat="49.70953" lon="0.20683">
        <ele>32.9</ele>
        <time>2020-06-17T19:06:54Z</time>
      </trkpt>
      <trkpt lat="49.70953" lon="0.20685">
        <ele>33.1</ele>
        <time>2020-06-17T19:06:55Z</time>
      </trkpt>
      <trkpt lat="49.70954" lon="0.20687">
        <ele>33.3</ele>
        <time>2020-06-17T19:06:56Z</time>
      </trkpt>
      <trkpt lat="49.70954" lon="0.20688">
        <ele>33.5</ele>
        <time>2020-06-17T19:06:57Z</time>
      </trkpt>
      <trkpt lat="49.70955" lon="0.20689">
        <ele>33.6</ele>
        <time>2020-06-17T19:06:58Z</time>
      </trkpt>
      <trkpt lat="49.70956" lon="0.2069">
        <ele>33.9</ele>
        <time>2020-06-17T19:06:59Z</time>
      </trkpt>
      <trkpt lat="49.70957" lon="0.20692">
        <ele>34.1</ele>
        <time>2020-06-17T19:07:00Z</time>
      </trkpt>
      <trkpt lat="49.70958" lon="0.20695">
        <ele>34.5</ele>
        <time>2020-06-17T19:07:01Z</time>
      </trkpt>
      <trkpt lat="49.70958" lon="0.20697">
        <ele>34.6</ele>
        <time>2020-06-17T19:07:02Z</time>
      </trkpt>
      <trkpt lat="49.70958" lon="0.20698">
        <ele>34.8</ele>
        <time>2020-06-17T19:07:03Z</time>
      </trkpt>
      <trkpt lat="49.70959" lon="0.207">
        <ele>35.1</ele>
        <time>2020-06-17T19:07:04Z</time>
      </trkpt>
      <trkpt lat="49.70958" lon="0.20701">
        <ele>35.2</ele>
        <time>2020-06-17T19:07:05Z</time>
      </trkpt>
      <trkpt lat="49.70958" lon="0.20703">
        <ele>35.4</ele>
        <time>2020-06-17T19:07:06Z</time>
      </trkpt>
      <trkpt lat="49.70959" lon="0.20704">
        <ele>35.5</ele>
        <time>2020-06-17T19:07:07Z</time>
      </trkpt>
      <trkpt lat="49.70959" lon="0.20705">
        <ele>35.7</ele>
        <time>2020-06-17T19:07:08Z</time>
      </trkpt>
      <trkpt lat="49.70959" lon="0.20707">
        <ele>35.8</ele>
        <time>2020-06-17T19:07:09Z</time>
      </trkpt>
      <trkpt lat="49.70959" lon="0.20708">
        <ele>36</ele>
        <time>2020-06-17T19:07:10Z</time>
      </trkpt>
      <trkpt lat="49.7096" lon="0.2071">
        <ele>36.2</ele>
        <time>2020-06-17T19:07:11Z</time>
      </trkpt>
      <trkpt lat="49.7096" lon="0.20711">
        <ele>36.4</ele>
        <time>2020-06-17T19:07:12Z</time>
      </trkpt>
      <trkpt lat="49.7096" lon="0.20713">
        <ele>36.6</ele>
        <time>2020-06-17T19:07:13Z</time>
      </trkpt>
      <trkpt lat="49.7096" lon="0.20715">
        <ele>36.8</ele>
        <time>2020-06-17T19:07:14Z</time>
      </trkpt>
      <trkpt lat="49.70961" lon="0.20717">
        <ele>37</ele>
        <time>2020-06-17T19:07:15Z</time>
      </trkpt>
      <trkpt lat="49.70961" lon="0.20718">
        <ele>37.2</ele>
        <time>2020-06-17T19:07:16Z</time>
      </trkpt>
      <trkpt lat="49.70962" lon="0.2072">
        <ele>37.4</ele>
        <time>2020-06-17T19:07:17Z</time>
      </trkpt>
      <trkpt lat="49.70962" lon="0.20722">
        <ele>37.6</ele>
        <time>2020-06-17T19:07:18Z</time>
      </trkpt>
      <trkpt lat="49.70963" lon="0.20723">
        <ele>37.8</ele>
        <time>2020-06-17T19:07:19Z</time>
      </trkpt>
      <trkpt lat="49.70963" lon="0.20724">
        <ele>37.9</ele>
        <time>2020-06-17T19:07:20Z</time>
      </trkpt>
      <trkpt lat="49.70963" lon="0.20725">
        <ele>38</ele>
        <time>2020-06-17T19:07:21Z</time>
      </trkpt>
      <trkpt lat="49.70964" lon="0.20726">
        <ele>38.2</ele>
        <time>2020-06-17T19:07:22Z</time>
      </trkpt>
      <trkpt lat="49.70964" lon="0.20727">
        <ele>38.3</ele>
        <time>2020-06-17T19:07:23Z</time>
      </trkpt>
      <trkpt lat="49.70964" lon="0.20728">
        <ele>38.4</ele>
        <time>2020-06-17T19:07:24Z</time>
      </trkpt>
      <trkpt lat="49.70964" lon="0.20729">
        <ele>38.6</ele>
        <time>2020-06-17T19:07:25Z</time>
      </trkpt>
      <trkpt lat="49.70966" lon="0.20731">
        <ele>38.9</ele>
        <time>2020-06-17T19:07:26Z</time>
      </trkpt>
      <trkpt lat="49.70967" lon="0.20732">
        <ele>39.2</ele>
        <time>2020-06-17T19:07:27Z</time>
      </trkpt>
      <trkpt lat="49.70968" lon="0.20734">
        <ele>39.5</ele>
        <time>2020-06-17T19:07:28Z</time>
      </trkpt>
      <trkpt lat="49.70969" lon="0.20736">
        <ele>39.8</ele>
        <time>2020-06-17T19:07:29Z</time>
      </trkpt>
      <trkpt lat="49.7097" lon="0.20738">
        <ele>40</ele>
        <time>2020-06-17T19:07:30Z</time>
      </trkpt>
      <trkpt lat="49.7097" lon="0.20739">
        <ele>40.2</ele>
        <time>2020-06-17T19:07:31Z</time>
      </trkpt>
      <trkpt lat="49.7097" lon="0.20741">
        <ele>40.3</ele>
        <time>2020-06-17T19:07:32Z</time>
      </trkpt>
      <trkpt lat="49.70971" lon="0.20742">
        <ele>40.5</ele>
        <time>2020-06-17T19:07:33Z</time>
      </trkpt>
      <trkpt lat="49.70971" lon="0.20743">
        <ele>40.7</ele>
        <time>2020-06-17T19:07:34Z</time>
      </trkpt>
      <trkpt lat="49.70972" lon="0.20745">
        <ele>40.9</ele>
        <time>2020-06-17T19:07:35Z</time>
      </trkpt>
      <trkpt lat="49.70972" lon="0.20746">
        <ele>41.1</ele>
        <time>2020-06-17T19:07:36Z</time>
      </trkpt>
      <trkpt lat="49.70973" lon="0.20748">
        <ele>41.3</ele>
        <time>2020-06-17T19:07:37Z</time>
      </trkpt>
      <trkpt lat="49.70974" lon="0.20749">
        <ele>41.5</ele>
        <time>2020-06-17T19:07:38Z</time>
      </trkpt>
      <trkpt lat="49.70975" lon="0.2075">
        <ele>41.7</ele>
        <time>2020-06-17T19:07:39Z</time>
      </trkpt>
      <trkpt lat="49.70976" lon="0.20751">
        <ele>41.9</ele>
        <time>2020-06-17T19:07:40Z</time>
      </trkpt>
      <trkpt lat="49.70977" lon="0.20752">
        <ele>42.1</ele>
        <time>2020-06-17T19:07:41Z</time>
      </trkpt>
      <trkpt lat="49.70977" lon="0.20754">
        <ele>42.4</ele>
        <time>2020-06-17T19:07:42Z</time>
      </trkpt>
      <trkpt lat="49.70978" lon="0.20756">
        <ele>42.5</ele>
        <time>2020-06-17T19:07:43Z</time>
      </trkpt>
      <trkpt lat="49.70978" lon="0.20757">
        <ele>42.7</ele>
        <time>2020-06-17T19:07:44Z</time>
      </trkpt>
      <trkpt lat="49.70979" lon="0.20759">
        <ele>42.9</ele>
        <time>2020-06-17T19:07:45Z</time>
      </trkpt>
      <trkpt lat="49.7098" lon="0.20761">
        <ele>43.2</ele>
        <time>2020-06-17T19:07:46Z</time>
      </trkpt>
      <trkpt lat="49.7098" lon="0.20762">
        <ele>43.3</ele>
        <time>2020-06-17T19:07:47Z</time>
      </trkpt>
      <trkpt lat="49.7098" lon="0.20762">
        <ele>43.4</ele>
        <time>2020-06-17T19:07:48Z</time>
      </trkpt>
      <trkpt lat="49.70981" lon="0.20763">
        <ele>43.5</ele>
        <time>2020-06-17T19:07:49Z</time>
      </trkpt>
      <trkpt lat="49.70982" lon="0.20763">
        <ele>43.7</ele>
        <time>2020-06-17T19:07:50Z</time>
      </trkpt>
      <trkpt lat="49.70982" lon="0.20764">
        <ele>43.8</ele>
        <time>2020-06-17T19:07:51Z</time>
      </trkpt>
      <trkpt lat="49.70983" lon="0.20764">
        <ele>43.8</ele>
        <time>2020-06-17T19:07:52Z</time>
      </trkpt>
      <trkpt lat="49.70983" lon="0.20765">
        <ele>43.9</ele>
        <time>2020-06-17T19:07:53Z</time>
      </trkpt>
      <trkpt lat="49.70983" lon="0.20766">
        <ele>44</ele>
        <time>2020-06-17T19:07:54Z</time>
      </trkpt>
      <trkpt lat="49.70984" lon="0.20767">
        <ele>44.2</ele>
        <time>2020-06-17T19:07:55Z</time>
      </trkpt>
      <trkpt lat="49.70984" lon="0.20768">
        <ele>44.4</ele>
        <time>2020-06-17T19:07:56Z</time>
      </trkpt>
      <trkpt lat="49.70985" lon="0.2077">
        <ele>44.8</ele>
        <time>2020-06-17T19:07:57Z</time>
      </trkpt>
      <trkpt lat="49.70985" lon="0.20771">
        <ele>44.9</ele>
        <time>2020-06-17T19:07:58Z</time>
      </trkpt>
      <trkpt lat="49.70986" lon="0.20772">
        <ele>45.1</ele>
        <time>2020-06-17T19:07:59Z</time>
      </trkpt>
      <trkpt lat="49.70986" lon="0.20773">
        <ele>45.3</ele>
        <time>2020-06-17T19:08:00Z</time>
      </trkpt>
      <trkpt lat="49.70987" lon="0.20777">
        <ele>45.7</ele>
        <time>2020-06-17T19:08:01Z</time>
      </trkpt>
      <trkpt lat="49.70987" lon="0.20778">
        <ele>45.8</ele>
        <time>2020-06-17T19:08:02Z</time>
      </trkpt>
      <trkpt lat="49.70987" lon="0.20779">
        <ele>46</ele>
        <time>2020-06-17T19:08:03Z</time>
      </trkpt>
      <trkpt lat="49.70987" lon="0.2078">
        <ele>46.1</ele>
        <time>2020-06-17T19:08:04Z</time>
      </trkpt>
      <trkpt lat="49.70987" lon="0.2078">
        <ele>46.1</ele>
        <time>2020-06-17T19:08:05Z</time>
      </trkpt>
      <trkpt lat="49.70988" lon="0.20782">
        <ele>46.3</ele>
        <time>2020-06-17T19:08:06Z</time>
      </trkpt>
      <trkpt lat="49.70988" lon="0.20783">
        <ele>46.5</ele>
        <time>2020-06-17T19:08:07Z</time>
      </trkpt>
      <trkpt lat="49.70988" lon="0.20784">
        <ele>47.7</ele>
        <time>2020-06-17T19:08:08Z</time>
      </trkpt>
      <trkpt lat="49.70988" lon="0.20785">
        <ele>47.8</ele>
        <time>2020-06-17T19:08:09Z</time>
      </trkpt>
      <trkpt lat="49.70988" lon="0.20786">
        <ele>47.8</ele>
        <time>2020-06-17T19:08:10Z</time>
      </trkpt>
      <trkpt lat="49.70988" lon="0.20787">
        <ele>47.8</ele>
        <time>2020-06-17T19:08:11Z</time>
      </trkpt>
      <trkpt lat="49.70987" lon="0.20788">
        <ele>47.9</ele>
        <time>2020-06-17T19:08:12Z</time>
      </trkpt>
      <trkpt lat="49.70987" lon="0.20789">
        <ele>47.9</ele>
        <time>2020-06-17T19:08:13Z</time>
      </trkpt>
      <trkpt lat="49.70987" lon="0.20789">
        <ele>48</ele>
        <time>2020-06-17T19:08:14Z</time>
      </trkpt>
      <trkpt lat="49.70987" lon="0.2079">
        <ele>48</ele>
        <time>2020-06-17T19:08:15Z</time>
      </trkpt>
      <trkpt lat="49.70987" lon="0.20792">
        <ele>48.1</ele>
        <time>2020-06-17T19:08:16Z</time>
      </trkpt>
      <trkpt lat="49.70988" lon="0.20792">
        <ele>48.1</ele>
        <time>2020-06-17T19:08:17Z</time>
      </trkpt>
      <trkpt lat="49.70988" lon="0.20792">
        <ele>48.1</ele>
        <time>2020-06-17T19:08:18Z</time>
      </trkpt>
      <trkpt lat="49.70988" lon="0.20792">
        <ele>48.1</ele>
        <time>2020-06-17T19:08:19Z</time>
      </trkpt>
      <trkpt lat="49.70988" lon="0.20791">
        <ele>48.2</ele>
        <time>2020-06-17T19:08:20Z</time>
      </trkpt>
      <trkpt lat="49.70989" lon="0.20791">
        <ele>48.2</ele>
        <time>2020-06-17T19:08:21Z</time>
      </trkpt>
      <trkpt lat="49.70989" lon="0.2079">
        <ele>48.3</ele>
        <time>2020-06-17T19:08:22Z</time>
      </trkpt>
      <trkpt lat="49.70989" lon="0.20789">
        <ele>48.3</ele>
        <time>2020-06-17T19:08:23Z</time>
      </trkpt>
      <trkpt lat="49.7099" lon="0.20788">
        <ele>48.3</ele>
        <time>2020-06-17T19:08:24Z</time>
      </trkpt>
      <trkpt lat="49.7099" lon="0.20786">
        <ele>48.4</ele>
        <time>2020-06-17T19:08:25Z</time>
      </trkpt>
      <trkpt lat="49.7099" lon="0.20784">
        <ele>48.5</ele>
        <time>2020-06-17T19:08:26Z</time>
      </trkpt>
      <trkpt lat="49.70991" lon="0.20784">
        <ele>48.5</ele>
        <time>2020-06-17T19:08:27Z</time>
      </trkpt>
      <trkpt lat="49.70993" lon="0.20781">
        <ele>48.7</ele>
        <time>2020-06-17T19:08:28Z</time>
      </trkpt>
      <trkpt lat="49.70994" lon="0.2078">
        <ele>48.7</ele>
        <time>2020-06-17T19:08:29Z</time>
      </trkpt>
      <trkpt lat="49.70996" lon="0.20776">
        <ele>48.9</ele>
        <time>2020-06-17T19:08:30Z</time>
      </trkpt>
      <trkpt lat="49.70996" lon="0.20775">
        <ele>48.9</ele>
        <time>2020-06-17T19:08:31Z</time>
      </trkpt>
      <trkpt lat="49.70998" lon="0.20771">
        <ele>49.1</ele>
        <time>2020-06-17T19:08:32Z</time>
      </trkpt>
      <trkpt lat="49.70998" lon="0.2077">
        <ele>49.2</ele>
        <time>2020-06-17T19:08:33Z</time>
      </trkpt>
      <trkpt lat="49.70999" lon="0.20765">
        <ele>49.4</ele>
        <time>2020-06-17T19:08:34Z</time>
      </trkpt>
      <trkpt lat="49.71" lon="0.20764">
        <ele>49.4</ele>
        <time>2020-06-17T19:08:35Z</time>
      </trkpt>
      <trkpt lat="49.71002" lon="0.2076">
        <ele>49.6</ele>
        <time>2020-06-17T19:08:36Z</time>
      </trkpt>
      <trkpt lat="49.71002" lon="0.20759">
        <ele>49.7</ele>
        <time>2020-06-17T19:08:37Z</time>
      </trkpt>
      <trkpt lat="49.71004" lon="0.20756">
        <ele>49.8</ele>
        <time>2020-06-17T19:08:38Z</time>
      </trkpt>
      <trkpt lat="49.71005" lon="0.20754">
        <ele>49.9</ele>
        <time>2020-06-17T19:08:39Z</time>
      </trkpt>
      <trkpt lat="49.71008" lon="0.20751">
        <ele>50.1</ele>
        <time>2020-06-17T19:08:40Z</time>
      </trkpt>
      <trkpt lat="49.71008" lon="0.2075">
        <ele>50.2</ele>
        <time>2020-06-17T19:08:41Z</time>
      </trkpt>
      <trkpt lat="49.7101" lon="0.20748">
        <ele>50.3</ele>
        <time>2020-06-17T19:08:42Z</time>
      </trkpt>
      <trkpt lat="49.7101" lon="0.20746">
        <ele>50.5</ele>
        <time>2020-06-17T19:08:43Z</time>
      </trkpt>
      <trkpt lat="49.7101" lon="0.20744">
        <ele>50.6</ele>
        <time>2020-06-17T19:08:44Z</time>
      </trkpt>
      <trkpt lat="49.71012" lon="0.20741">
        <ele>50.7</ele>
        <time>2020-06-17T19:08:45Z</time>
      </trkpt>
      <trkpt lat="49.71014" lon="0.20737">
        <ele>51</ele>
        <time>2020-06-17T19:08:46Z</time>
      </trkpt>
      <trkpt lat="49.71014" lon="0.20735">
        <ele>51.1</ele>
        <time>2020-06-17T19:08:47Z</time>
      </trkpt>
      <trkpt lat="49.71014" lon="0.20733">
        <ele>51.2</ele>
        <time>2020-06-17T19:08:48Z</time>
      </trkpt>
      <trkpt lat="49.71014" lon="0.2073">
        <ele>51.3</ele>
        <time>2020-06-17T19:08:49Z</time>
      </trkpt>
      <trkpt lat="49.71013" lon="0.20728">
        <ele>51.4</ele>
        <time>2020-06-17T19:08:50Z</time>
      </trkpt>
      <trkpt lat="49.71013" lon="0.20723">
        <ele>51.7</ele>
        <time>2020-06-17T19:08:51Z</time>
      </trkpt>
      <trkpt lat="49.71014" lon="0.20721">
        <ele>51.8</ele>
        <time>2020-06-17T19:08:52Z</time>
      </trkpt>
      <trkpt lat="49.71015" lon="0.20717">
        <ele>52</ele>
        <time>2020-06-17T19:08:53Z</time>
      </trkpt>
      <trkpt lat="49.71016" lon="0.20715">
        <ele>52.1</ele>
        <time>2020-06-17T19:08:54Z</time>
      </trkpt>
      <trkpt lat="49.71017" lon="0.20711">
        <ele>52.4</ele>
        <time>2020-06-17T19:08:55Z</time>
      </trkpt>
      <trkpt lat="49.71018" lon="0.2071">
        <ele>52.5</ele>
        <time>2020-06-17T19:08:56Z</time>
      </trkpt>
      <trkpt lat="49.71018" lon="0.20706">
        <ele>52.7</ele>
        <time>2020-06-17T19:08:57Z</time>
      </trkpt>
      <trkpt lat="49.71018" lon="0.20705">
        <ele>52.8</ele>
        <time>2020-06-17T19:08:58Z</time>
      </trkpt>
      <trkpt lat="49.7102" lon="0.20701">
        <ele>53</ele>
        <time>2020-06-17T19:08:59Z</time>
      </trkpt>
      <trkpt lat="49.7102" lon="0.20699">
        <ele>53.1</ele>
        <time>2020-06-17T19:09:00Z</time>
      </trkpt>
      <trkpt lat="49.71022" lon="0.20695">
        <ele>53.4</ele>
        <time>2020-06-17T19:09:01Z</time>
      </trkpt>
      <trkpt lat="49.71022" lon="0.20693">
        <ele>53.5</ele>
        <time>2020-06-17T19:09:02Z</time>
      </trkpt>
      <trkpt lat="49.71023" lon="0.20687">
        <ele>53.8</ele>
        <time>2020-06-17T19:09:03Z</time>
      </trkpt>
      <trkpt lat="49.71023" lon="0.20685">
        <ele>53.9</ele>
        <time>2020-06-17T19:09:04Z</time>
      </trkpt>
      <trkpt lat="49.71024" lon="0.20681">
        <ele>54.2</ele>
        <time>2020-06-17T19:09:05Z</time>
      </trkpt>
      <trkpt lat="49.71025" lon="0.20676">
        <ele>54.4</ele>
        <time>2020-06-17T19:09:06Z</time>
      </trkpt>
      <trkpt lat="49.71025" lon="0.20675">
        <ele>54.5</ele>
        <time>2020-06-17T19:09:07Z</time>
      </trkpt>
      <trkpt lat="49.71026" lon="0.2067">
        <ele>54.8</ele>
        <time>2020-06-17T19:09:08Z</time>
      </trkpt>
      <trkpt lat="49.71026" lon="0.20668">
        <ele>54.9</ele>
        <time>2020-06-17T19:09:09Z</time>
      </trkpt>
      <trkpt lat="49.71026" lon="0.20663">
        <ele>55.1</ele>
        <time>2020-06-17T19:09:10Z</time>
      </trkpt>
      <trkpt lat="49.71026" lon="0.20662">
        <ele>55.2</ele>
        <time>2020-06-17T19:09:11Z</time>
      </trkpt>
      <trkpt lat="49.71026" lon="0.20657">
        <ele>55.4</ele>
        <time>2020-06-17T19:09:12Z</time>
      </trkpt>
      <trkpt lat="49.71026" lon="0.20651">
        <ele>55.7</ele>
        <time>2020-06-17T19:09:13Z</time>
      </trkpt>
      <trkpt lat="49.71026" lon="0.20649">
        <ele>55.8</ele>
        <time>2020-06-17T19:09:14Z</time>
      </trkpt>
      <trkpt lat="49.71027" lon="0.20645">
        <ele>56.1</ele>
        <time>2020-06-17T19:09:15Z</time>
      </trkpt>
      <trkpt lat="49.71027" lon="0.20644">
        <ele>56.1</ele>
        <time>2020-06-17T19:09:16Z</time>
      </trkpt>
      <trkpt lat="49.71028" lon="0.2064">
        <ele>56.3</ele>
        <time>2020-06-17T19:09:17Z</time>
      </trkpt>
      <trkpt lat="49.71028" lon="0.20638">
        <ele>56.4</ele>
        <time>2020-06-17T19:09:18Z</time>
      </trkpt>
      <trkpt lat="49.7103" lon="0.20634">
        <ele>56.6</ele>
        <time>2020-06-17T19:09:19Z</time>
      </trkpt>
      <trkpt lat="49.7103" lon="0.20633">
        <ele>56.7</ele>
        <time>2020-06-17T19:09:20Z</time>
      </trkpt>
      <trkpt lat="49.71031" lon="0.2063">
        <ele>56.8</ele>
        <time>2020-06-17T19:09:21Z</time>
      </trkpt>
      <trkpt lat="49.71032" lon="0.20628">
        <ele>56.9</ele>
        <time>2020-06-17T19:09:22Z</time>
      </trkpt>
      <trkpt lat="49.71033" lon="0.20625">
        <ele>57.1</ele>
        <time>2020-06-17T19:09:23Z</time>
      </trkpt>
      <trkpt lat="49.71033" lon="0.20623">
        <ele>57.1</ele>
        <time>2020-06-17T19:09:24Z</time>
      </trkpt>
      <trkpt lat="49.71034" lon="0.20619">
        <ele>57.3</ele>
        <time>2020-06-17T19:09:25Z</time>
      </trkpt>
      <trkpt lat="49.71034" lon="0.20618">
        <ele>57.4</ele>
        <time>2020-06-17T19:09:26Z</time>
      </trkpt>
      <trkpt lat="49.71034" lon="0.20613">
        <ele>57.6</ele>
        <time>2020-06-17T19:09:27Z</time>
      </trkpt>
      <trkpt lat="49.71035" lon="0.20612">
        <ele>57.7</ele>
        <time>2020-06-17T19:09:28Z</time>
      </trkpt>
      <trkpt lat="49.71035" lon="0.2061">
        <ele>57.8</ele>
        <time>2020-06-17T19:09:29Z</time>
      </trkpt>
      <trkpt lat="49.71034" lon="0.20607">
        <ele>57.9</ele>
        <time>2020-06-17T19:09:30Z</time>
      </trkpt>
      <trkpt lat="49.71034" lon="0.20602">
        <ele>58.1</ele>
        <time>2020-06-17T19:09:31Z</time>
      </trkpt>
      <trkpt lat="49.71034" lon="0.20601">
        <ele>58.2</ele>
        <time>2020-06-17T19:09:32Z</time>
      </trkpt>
      <trkpt lat="49.71036" lon="0.20596">
        <ele>58.4</ele>
        <time>2020-06-17T19:09:33Z</time>
      </trkpt>
      <trkpt lat="49.71037" lon="0.20595">
        <ele>58.5</ele>
        <time>2020-06-17T19:09:34Z</time>
      </trkpt>
      <trkpt lat="49.71037" lon="0.20593">
        <ele>58.6</ele>
        <time>2020-06-17T19:09:35Z</time>
      </trkpt>
      <trkpt lat="49.71038" lon="0.2059">
        <ele>58.7</ele>
        <time>2020-06-17T19:09:36Z</time>
      </trkpt>
      <trkpt lat="49.7104" lon="0.20586">
        <ele>58.9</ele>
        <time>2020-06-17T19:09:37Z</time>
      </trkpt>
      <trkpt lat="49.7104" lon="0.20585">
        <ele>59</ele>
        <time>2020-06-17T19:09:38Z</time>
      </trkpt>
      <trkpt lat="49.71042" lon="0.2058">
        <ele>59.2</ele>
        <time>2020-06-17T19:09:39Z</time>
      </trkpt>
      <trkpt lat="49.71042" lon="0.20578">
        <ele>59.3</ele>
        <time>2020-06-17T19:09:40Z</time>
      </trkpt>
      <trkpt lat="49.71043" lon="0.20573">
        <ele>59.5</ele>
        <time>2020-06-17T19:09:41Z</time>
      </trkpt>
      <trkpt lat="49.71043" lon="0.20572">
        <ele>59.6</ele>
        <time>2020-06-17T19:09:42Z</time>
      </trkpt>
      <trkpt lat="49.71044" lon="0.20567">
        <ele>59.8</ele>
        <time>2020-06-17T19:09:43Z</time>
      </trkpt>
      <trkpt lat="49.71044" lon="0.20566">
        <ele>59.8</ele>
        <time>2020-06-17T19:09:44Z</time>
      </trkpt>
      <trkpt lat="49.71045" lon="0.20562">
        <ele>60</ele>
        <time>2020-06-17T19:09:45Z</time>
      </trkpt>
      <trkpt lat="49.71046" lon="0.2056">
        <ele>60.1</ele>
        <time>2020-06-17T19:09:46Z</time>
      </trkpt>
      <trkpt lat="49.71047" lon="0.20556">
        <ele>60.3</ele>
        <time>2020-06-17T19:09:47Z</time>
      </trkpt>
      <trkpt lat="49.71047" lon="0.20554">
        <ele>60.4</ele>
        <time>2020-06-17T19:09:48Z</time>
      </trkpt>
      <trkpt lat="49.71049" lon="0.20551">
        <ele>60.6</ele>
        <time>2020-06-17T19:09:49Z</time>
      </trkpt>
      <trkpt lat="49.7105" lon="0.2055">
        <ele>60.7</ele>
        <time>2020-06-17T19:09:50Z</time>
      </trkpt>
      <trkpt lat="49.71052" lon="0.20546">
        <ele>60.9</ele>
        <time>2020-06-17T19:09:51Z</time>
      </trkpt>
      <trkpt lat="49.71053" lon="0.20544">
        <ele>61</ele>
        <time>2020-06-17T19:09:52Z</time>
      </trkpt>
      <trkpt lat="49.71055" lon="0.20541">
        <ele>61.2</ele>
        <time>2020-06-17T19:09:53Z</time>
      </trkpt>
      <trkpt lat="49.71055" lon="0.2054">
        <ele>61.3</ele>
        <time>2020-06-17T19:09:54Z</time>
      </trkpt>
      <trkpt lat="49.71057" lon="0.20536">
        <ele>61.5</ele>
        <time>2020-06-17T19:09:55Z</time>
      </trkpt>
      <trkpt lat="49.71057" lon="0.20535">
        <ele>61.6</ele>
        <time>2020-06-17T19:09:56Z</time>
      </trkpt>
      <trkpt lat="49.7106" lon="0.20532">
        <ele>61.8</ele>
        <time>2020-06-17T19:09:57Z</time>
      </trkpt>
      <trkpt lat="49.7106" lon="0.20531">
        <ele>61.9</ele>
        <time>2020-06-17T19:09:58Z</time>
      </trkpt>
      <trkpt lat="49.71061" lon="0.20528">
        <ele>62</ele>
        <time>2020-06-17T19:09:59Z</time>
      </trkpt>
      <trkpt lat="49.71062" lon="0.20526">
        <ele>62.1</ele>
        <time>2020-06-17T19:10:00Z</time>
      </trkpt>
      <trkpt lat="49.71063" lon="0.20525">
        <ele>62.3</ele>
        <time>2020-06-17T19:10:01Z</time>
      </trkpt>
      <trkpt lat="49.71064" lon="0.20525">
        <ele>62.3</ele>
        <time>2020-06-17T19:10:02Z</time>
      </trkpt>
      <trkpt lat="49.71066" lon="0.20526">
        <ele>62.5</ele>
        <time>2020-06-17T19:10:03Z</time>
      </trkpt>
      <trkpt lat="49.71067" lon="0.20529">
        <ele>62.7</ele>
        <time>2020-06-17T19:10:04Z</time>
      </trkpt>
      <trkpt lat="49.71068" lon="0.2053">
        <ele>62.8</ele>
        <time>2020-06-17T19:10:05Z</time>
      </trkpt>
      <trkpt lat="49.71071" lon="0.20531">
        <ele>63</ele>
        <time>2020-06-17T19:10:06Z</time>
      </trkpt>
      <trkpt lat="49.71072" lon="0.20531">
        <ele>63.1</ele>
        <time>2020-06-17T19:10:07Z</time>
      </trkpt>
      <trkpt lat="49.71072" lon="0.20531">
        <ele>63.2</ele>
        <time>2020-06-17T19:10:08Z</time>
      </trkpt>
      <trkpt lat="49.71074" lon="0.20529">
        <ele>63.3</ele>
        <time>2020-06-17T19:10:09Z</time>
      </trkpt>
      <trkpt lat="49.71074" lon="0.20529">
        <ele>63.4</ele>
        <time>2020-06-17T19:10:10Z</time>
      </trkpt>
      <trkpt lat="49.71075" lon="0.20529">
        <ele>63.5</ele>
        <time>2020-06-17T19:10:11Z</time>
      </trkpt>
      <trkpt lat="49.71076" lon="0.2053">
        <ele>63.6</ele>
        <time>2020-06-17T19:10:12Z</time>
      </trkpt>
      <trkpt lat="49.71076" lon="0.20531">
        <ele>63.6</ele>
        <time>2020-06-17T19:10:13Z</time>
      </trkpt>
      <trkpt lat="49.71076" lon="0.20532">
        <ele>63.7</ele>
        <time>2020-06-17T19:10:14Z</time>
      </trkpt>
      <trkpt lat="49.71076" lon="0.20533">
        <ele>63.8</ele>
        <time>2020-06-17T19:10:15Z</time>
      </trkpt>
      <trkpt lat="49.71077" lon="0.20535">
        <ele>63.8</ele>
        <time>2020-06-17T19:10:16Z</time>
      </trkpt>
      <trkpt lat="49.71075" lon="0.20538">
        <ele>65.1</ele>
        <time>2020-06-17T19:10:17Z</time>
      </trkpt>
      <trkpt lat="49.71074" lon="0.20539">
        <ele>65.2</ele>
        <time>2020-06-17T19:10:18Z</time>
      </trkpt>
      <trkpt lat="49.71073" lon="0.20542">
        <ele>65.6</ele>
        <time>2020-06-17T19:10:19Z</time>
      </trkpt>
      <trkpt lat="49.71072" lon="0.20544">
        <ele>65.8</ele>
        <time>2020-06-17T19:10:20Z</time>
      </trkpt>
      <trkpt lat="49.7107" lon="0.20547">
        <ele>66.2</ele>
        <time>2020-06-17T19:10:21Z</time>
      </trkpt>
      <trkpt lat="49.7107" lon="0.20549">
        <ele>66.3</ele>
        <time>2020-06-17T19:10:22Z</time>
      </trkpt>
      <trkpt lat="49.71069" lon="0.20551">
        <ele>66.6</ele>
        <time>2020-06-17T19:10:23Z</time>
      </trkpt>
      <trkpt lat="49.71069" lon="0.20554">
        <ele>66.8</ele>
        <time>2020-06-17T19:10:24Z</time>
      </trkpt>
      <trkpt lat="49.71069" lon="0.20557">
        <ele>67.1</ele>
        <time>2020-06-17T19:10:25Z</time>
      </trkpt>
      <trkpt lat="49.7107" lon="0.20559">
        <ele>67.3</ele>
        <time>2020-06-17T19:10:26Z</time>
      </trkpt>
      <trkpt lat="49.7107" lon="0.20561">
        <ele>67.4</ele>
        <time>2020-06-17T19:10:27Z</time>
      </trkpt>
      <trkpt lat="49.7107" lon="0.20565">
        <ele>67.8</ele>
        <time>2020-06-17T19:10:28Z</time>
      </trkpt>
      <trkpt lat="49.7107" lon="0.20567">
        <ele>68</ele>
        <time>2020-06-17T19:10:29Z</time>
      </trkpt>
      <trkpt lat="49.7107" lon="0.20569">
        <ele>68.2</ele>
        <time>2020-06-17T19:10:30Z</time>
      </trkpt>
      <trkpt lat="49.7107" lon="0.20571">
        <ele>68.4</ele>
        <time>2020-06-17T19:10:31Z</time>
      </trkpt>
      <trkpt lat="49.71071" lon="0.20574">
        <ele>68.7</ele>
        <time>2020-06-17T19:10:32Z</time>
      </trkpt>
      <trkpt lat="49.71072" lon="0.20575">
        <ele>68.8</ele>
        <time>2020-06-17T19:10:33Z</time>
      </trkpt>
      <trkpt lat="49.71072" lon="0.20576">
        <ele>68.9</ele>
        <time>2020-06-17T19:10:34Z</time>
      </trkpt>
      <trkpt lat="49.71073" lon="0.20579">
        <ele>69.2</ele>
        <time>2020-06-17T19:10:35Z</time>
      </trkpt>
      <trkpt lat="49.71073" lon="0.20581">
        <ele>69.3</ele>
        <time>2020-06-17T19:10:36Z</time>
      </trkpt>
      <trkpt lat="49.71073" lon="0.20585">
        <ele>69.6</ele>
        <time>2020-06-17T19:10:37Z</time>
      </trkpt>
      <trkpt lat="49.71073" lon="0.20586">
        <ele>69.7</ele>
        <time>2020-06-17T19:10:38Z</time>
      </trkpt>
      <trkpt lat="49.71073" lon="0.20587">
        <ele>69.8</ele>
        <time>2020-06-17T19:10:39Z</time>
      </trkpt>
      <trkpt lat="49.71072" lon="0.2059">
        <ele>70.1</ele>
        <time>2020-06-17T19:10:40Z</time>
      </trkpt>
      <trkpt lat="49.71073" lon="0.20592">
        <ele>70.2</ele>
        <time>2020-06-17T19:10:41Z</time>
      </trkpt>
      <trkpt lat="49.71073" lon="0.20594">
        <ele>70.4</ele>
        <time>2020-06-17T19:10:42Z</time>
      </trkpt>
      <trkpt lat="49.71073" lon="0.20596">
        <ele>70.6</ele>
        <time>2020-06-17T19:10:43Z</time>
      </trkpt>
      <trkpt lat="49.71073" lon="0.20598">
        <ele>70.7</ele>
        <time>2020-06-17T19:10:44Z</time>
      </trkpt>
      <trkpt lat="49.71073" lon="0.20601">
        <ele>70.9</ele>
        <time>2020-06-17T19:10:45Z</time>
      </trkpt>
      <trkpt lat="49.71074" lon="0.20606">
        <ele>71.5</ele>
        <time>2020-06-17T19:10:46Z</time>
      </trkpt>
      <trkpt lat="49.71074" lon="0.20607">
        <ele>71.6</ele>
        <time>2020-06-17T19:10:47Z</time>
      </trkpt>
      <trkpt lat="49.71074" lon="0.20609">
        <ele>71.8</ele>
        <time>2020-06-17T19:10:48Z</time>
      </trkpt>
      <trkpt lat="49.71074" lon="0.20612">
        <ele>72</ele>
        <time>2020-06-17T19:10:49Z</time>
      </trkpt>
      <trkpt lat="49.71074" lon="0.20614">
        <ele>72.1</ele>
        <time>2020-06-17T19:10:50Z</time>
      </trkpt>
      <trkpt lat="49.71075" lon="0.20615">
        <ele>72.2</ele>
        <time>2020-06-17T19:10:51Z</time>
      </trkpt>
      <trkpt lat="49.71075" lon="0.20617">
        <ele>72.8</ele>
        <time>2020-06-17T19:10:52Z</time>
      </trkpt>
      <trkpt lat="49.71075" lon="0.20619">
        <ele>73</ele>
        <time>2020-06-17T19:10:53Z</time>
      </trkpt>
      <trkpt lat="49.71075" lon="0.20623">
        <ele>73.2</ele>
        <time>2020-06-17T19:10:54Z</time>
      </trkpt>
      <trkpt lat="49.71075" lon="0.20625">
        <ele>73.4</ele>
        <time>2020-06-17T19:10:55Z</time>
      </trkpt>
      <trkpt lat="49.71075" lon="0.20626">
        <ele>73.5</ele>
        <time>2020-06-17T19:10:56Z</time>
      </trkpt>
      <trkpt lat="49.71076" lon="0.20626">
        <ele>73.6</ele>
        <time>2020-06-17T19:10:57Z</time>
      </trkpt>
      <trkpt lat="49.71077" lon="0.20626">
        <ele>73.7</ele>
        <time>2020-06-17T19:10:58Z</time>
      </trkpt>
      <trkpt lat="49.71078" lon="0.20628">
        <ele>73.9</ele>
        <time>2020-06-17T19:10:59Z</time>
      </trkpt>
      <trkpt lat="49.71079" lon="0.2063">
        <ele>74.1</ele>
        <time>2020-06-17T19:11:00Z</time>
      </trkpt>
      <trkpt lat="49.7108" lon="0.20633">
        <ele>74.3</ele>
        <time>2020-06-17T19:11:01Z</time>
      </trkpt>
      <trkpt lat="49.7108" lon="0.20634">
        <ele>74.4</ele>
        <time>2020-06-17T19:11:02Z</time>
      </trkpt>
      <trkpt lat="49.71081" lon="0.20635">
        <ele>74.5</ele>
        <time>2020-06-17T19:11:03Z</time>
      </trkpt>
      <trkpt lat="49.71081" lon="0.20638">
        <ele>74.6</ele>
        <time>2020-06-17T19:11:04Z</time>
      </trkpt>
      <trkpt lat="49.71082" lon="0.2064">
        <ele>74.8</ele>
        <time>2020-06-17T19:11:05Z</time>
      </trkpt>
      <trkpt lat="49.71082" lon="0.20643">
        <ele>75</ele>
        <time>2020-06-17T19:11:06Z</time>
      </trkpt>
      <trkpt lat="49.71082" lon="0.20646">
        <ele>75.1</ele>
        <time>2020-06-17T19:11:07Z</time>
      </trkpt>
      <trkpt lat="49.71081" lon="0.2065">
        <ele>75.4</ele>
        <time>2020-06-17T19:11:08Z</time>
      </trkpt>
      <trkpt lat="49.71081" lon="0.20652">
        <ele>75.5</ele>
        <time>2020-06-17T19:11:09Z</time>
      </trkpt>
      <trkpt lat="49.71081" lon="0.20655">
        <ele>75.8</ele>
        <time>2020-06-17T19:11:10Z</time>
      </trkpt>
      <trkpt lat="49.7108" lon="0.20657">
        <ele>75.9</ele>
        <time>2020-06-17T19:11:11Z</time>
      </trkpt>
      <trkpt lat="49.71082" lon="0.20662">
        <ele>76.2</ele>
        <time>2020-06-17T19:11:12Z</time>
      </trkpt>
      <trkpt lat="49.71082" lon="0.20663">
        <ele>76.3</ele>
        <time>2020-06-17T19:11:13Z</time>
      </trkpt>
      <trkpt lat="49.71083" lon="0.20666">
        <ele>76.5</ele>
        <time>2020-06-17T19:11:14Z</time>
      </trkpt>
      <trkpt lat="49.71083" lon="0.20667">
        <ele>76.6</ele>
        <time>2020-06-17T19:11:15Z</time>
      </trkpt>
      <trkpt lat="49.71084" lon="0.2067">
        <ele>76.7</ele>
        <time>2020-06-17T19:11:16Z</time>
      </trkpt>
      <trkpt lat="49.71085" lon="0.20671">
        <ele>76.9</ele>
        <time>2020-06-17T19:11:17Z</time>
      </trkpt>
      <trkpt lat="49.71086" lon="0.20673">
        <ele>77</ele>
        <time>2020-06-17T19:11:18Z</time>
      </trkpt>
      <trkpt lat="49.71087" lon="0.20674">
        <ele>77.1</ele>
        <time>2020-06-17T19:11:19Z</time>
      </trkpt>
      <trkpt lat="49.71087" lon="0.20676">
        <ele>77.3</ele>
        <time>2020-06-17T19:11:20Z</time>
      </trkpt>
      <trkpt lat="49.71087" lon="0.20679">
        <ele>77.4</ele>
        <time>2020-06-17T19:11:21Z</time>
      </trkpt>
      <trkpt lat="49.71087" lon="0.20682">
        <ele>77.6</ele>
        <time>2020-06-17T19:11:22Z</time>
      </trkpt>
      <trkpt lat="49.71087" lon="0.20684">
        <ele>77.7</ele>
        <time>2020-06-17T19:11:23Z</time>
      </trkpt>
      <trkpt lat="49.71088" lon="0.20688">
        <ele>78</ele>
        <time>2020-06-17T19:11:24Z</time>
      </trkpt>
      <trkpt lat="49.71089" lon="0.2069">
        <ele>78.1</ele>
        <time>2020-06-17T19:11:25Z</time>
      </trkpt>
      <trkpt lat="49.7109" lon="0.20693">
        <ele>78.2</ele>
        <time>2020-06-17T19:11:26Z</time>
      </trkpt>
      <trkpt lat="49.7109" lon="0.20694">
        <ele>78.3</ele>
        <time>2020-06-17T19:11:27Z</time>
      </trkpt>
      <trkpt lat="49.7109" lon="0.20695">
        <ele>78.3</ele>
        <time>2020-06-17T19:11:28Z</time>
      </trkpt>
      <trkpt lat="49.7109" lon="0.20698">
        <ele>78.5</ele>
        <time>2020-06-17T19:11:29Z</time>
      </trkpt>
      <trkpt lat="49.7109" lon="0.20699">
        <ele>78.5</ele>
        <time>2020-06-17T19:11:30Z</time>
      </trkpt>
      <trkpt lat="49.71091" lon="0.20701">
        <ele>78.6</ele>
        <time>2020-06-17T19:11:31Z</time>
      </trkpt>
      <trkpt lat="49.71092" lon="0.20704">
        <ele>78.8</ele>
        <time>2020-06-17T19:11:32Z</time>
      </trkpt>
      <trkpt lat="49.71092" lon="0.20706">
        <ele>78.8</ele>
        <time>2020-06-17T19:11:33Z</time>
      </trkpt>
      <trkpt lat="49.71093" lon="0.20708">
        <ele>78.9</ele>
        <time>2020-06-17T19:11:34Z</time>
      </trkpt>
      <trkpt lat="49.71093" lon="0.2071">
        <ele>79</ele>
        <time>2020-06-17T19:11:35Z</time>
      </trkpt>
      <trkpt lat="49.71094" lon="0.20714">
        <ele>79.2</ele>
        <time>2020-06-17T19:11:36Z</time>
      </trkpt>
      <trkpt lat="49.71094" lon="0.20715">
        <ele>79.2</ele>
        <time>2020-06-17T19:11:37Z</time>
      </trkpt>
      <trkpt lat="49.71095" lon="0.20717">
        <ele>79.3</ele>
        <time>2020-06-17T19:11:38Z</time>
      </trkpt>
      <trkpt lat="49.71095" lon="0.20719">
        <ele>79.4</ele>
        <time>2020-06-17T19:11:39Z</time>
      </trkpt>
      <trkpt lat="49.71096" lon="0.20722">
        <ele>79.5</ele>
        <time>2020-06-17T19:11:40Z</time>
      </trkpt>
      <trkpt lat="49.71097" lon="0.20726">
        <ele>79.6</ele>
        <time>2020-06-17T19:11:41Z</time>
      </trkpt>
      <trkpt lat="49.71097" lon="0.20727">
        <ele>79.7</ele>
        <time>2020-06-17T19:11:42Z</time>
      </trkpt>
      <trkpt lat="49.71098" lon="0.20729">
        <ele>79.8</ele>
        <time>2020-06-17T19:11:43Z</time>
      </trkpt>
      <trkpt lat="49.71099" lon="0.20731">
        <ele>79.9</ele>
        <time>2020-06-17T19:11:44Z</time>
      </trkpt>
      <trkpt lat="49.711" lon="0.20733">
        <ele>78.8</ele>
        <time>2020-06-17T19:11:45Z</time>
      </trkpt>
      <trkpt lat="49.711" lon="0.20737">
        <ele>78.2</ele>
        <time>2020-06-17T19:11:46Z</time>
      </trkpt>
      <trkpt lat="49.711" lon="0.20741">
        <ele>77.6</ele>
        <time>2020-06-17T19:11:47Z</time>
      </trkpt>
      <trkpt lat="49.71101" lon="0.20742">
        <ele>77.3</ele>
        <time>2020-06-17T19:11:48Z</time>
      </trkpt>
      <trkpt lat="49.71101" lon="0.20745">
        <ele>76.9</ele>
        <time>2020-06-17T19:11:49Z</time>
      </trkpt>
      <trkpt lat="49.71101" lon="0.20747">
        <ele>76.6</ele>
        <time>2020-06-17T19:11:50Z</time>
      </trkpt>
      <trkpt lat="49.71102" lon="0.20749">
        <ele>76.1</ele>
        <time>2020-06-17T19:11:51Z</time>
      </trkpt>
      <trkpt lat="49.71102" lon="0.20751">
        <ele>75.8</ele>
        <time>2020-06-17T19:11:52Z</time>
      </trkpt>
      <trkpt lat="49.71103" lon="0.20754">
        <ele>75.3</ele>
        <time>2020-06-17T19:11:53Z</time>
      </trkpt>
      <trkpt lat="49.71104" lon="0.20755">
        <ele>75.1</ele>
        <time>2020-06-17T19:11:54Z</time>
      </trkpt>
      <trkpt lat="49.71104" lon="0.20757">
        <ele>74.8</ele>
        <time>2020-06-17T19:11:55Z</time>
      </trkpt>
      <trkpt lat="49.71105" lon="0.20758">
        <ele>74.5</ele>
        <time>2020-06-17T19:11:56Z</time>
      </trkpt>
      <trkpt lat="49.71105" lon="0.20759">
        <ele>74.3</ele>
        <time>2020-06-17T19:11:57Z</time>
      </trkpt>
      <trkpt lat="49.71106" lon="0.20761">
        <ele>74.4</ele>
        <time>2020-06-17T19:11:58Z</time>
      </trkpt>
      <trkpt lat="49.71107" lon="0.20763">
        <ele>74.4</ele>
        <time>2020-06-17T19:11:59Z</time>
      </trkpt>
      <trkpt lat="49.71107" lon="0.20764">
        <ele>74.5</ele>
        <time>2020-06-17T19:12:00Z</time>
      </trkpt>
      <trkpt lat="49.71108" lon="0.20765">
        <ele>74.6</ele>
        <time>2020-06-17T19:12:01Z</time>
      </trkpt>
      <trkpt lat="49.71109" lon="0.20764">
        <ele>74.6</ele>
        <time>2020-06-17T19:12:02Z</time>
      </trkpt>
      <trkpt lat="49.7111" lon="0.20763">
        <ele>74.7</ele>
        <time>2020-06-17T19:12:03Z</time>
      </trkpt>
      <trkpt lat="49.71111" lon="0.20762">
        <ele>74.8</ele>
        <time>2020-06-17T19:12:04Z</time>
      </trkpt>
      <trkpt lat="49.71112" lon="0.20761">
        <ele>74.8</ele>
        <time>2020-06-17T19:12:05Z</time>
      </trkpt>
      <trkpt lat="49.71113" lon="0.20759">
        <ele>75</ele>
        <time>2020-06-17T19:12:06Z</time>
      </trkpt>
      <trkpt lat="49.71114" lon="0.20759">
        <ele>75</ele>
        <time>2020-06-17T19:12:07Z</time>
      </trkpt>
      <trkpt lat="49.71114" lon="0.20759">
        <ele>75</ele>
        <time>2020-06-17T19:12:08Z</time>
      </trkpt>
      <trkpt lat="49.71114" lon="0.20759">
        <ele>75</ele>
        <time>2020-06-17T19:12:09Z</time>
      </trkpt>
      <trkpt lat="49.71114" lon="0.20759">
        <ele>75</ele>
        <time>2020-06-17T19:12:10Z</time>
      </trkpt>
      <trkpt lat="49.71115" lon="0.20759">
        <ele>75.1</ele>
        <time>2020-06-17T19:12:11Z</time>
      </trkpt>
      <trkpt lat="49.71116" lon="0.20759">
        <ele>75.1</ele>
        <time>2020-06-17T19:12:12Z</time>
      </trkpt>
      <trkpt lat="49.71117" lon="0.20759">
        <ele>75.2</ele>
        <time>2020-06-17T19:12:13Z</time>
      </trkpt>
      <trkpt lat="49.71117" lon="0.20759">
        <ele>75.2</ele>
        <time>2020-06-17T19:12:14Z</time>
      </trkpt>
      <trkpt lat="49.71117" lon="0.20759">
        <ele>75.2</ele>
        <time>2020-06-17T19:12:15Z</time>
      </trkpt>
      <trkpt lat="49.71117" lon="0.20759">
        <ele>75.2</ele>
        <time>2020-06-17T19:12:16Z</time>
      </trkpt>
      <trkpt lat="49.71117" lon="0.20759">
        <ele>75.2</ele>
        <time>2020-06-17T19:12:17Z</time>
      </trkpt>
      <trkpt lat="49.71117" lon="0.20758">
        <ele>75.2</ele>
        <time>2020-06-17T19:12:18Z</time>
      </trkpt>
      <trkpt lat="49.71118" lon="0.20758">
        <ele>75.3</ele>
        <time>2020-06-17T19:12:19Z</time>
      </trkpt>
      <trkpt lat="49.71118" lon="0.20757">
        <ele>75.3</ele>
        <time>2020-06-17T19:12:20Z</time>
      </trkpt>
      <trkpt lat="49.71118" lon="0.20756">
        <ele>75.4</ele>
        <time>2020-06-17T19:12:21Z</time>
      </trkpt>
      <trkpt lat="49.71119" lon="0.20755">
        <ele>75.4</ele>
        <time>2020-06-17T19:12:22Z</time>
      </trkpt>
      <trkpt lat="49.71119" lon="0.20753">
        <ele>75.5</ele>
        <time>2020-06-17T19:12:23Z</time>
      </trkpt>
      <trkpt lat="49.71119" lon="0.20753">
        <ele>75.5</ele>
        <time>2020-06-17T19:12:24Z</time>
      </trkpt>
      <trkpt lat="49.7112" lon="0.20751">
        <ele>75.5</ele>
        <time>2020-06-17T19:12:25Z</time>
      </trkpt>
      <trkpt lat="49.7112" lon="0.20751">
        <ele>75.6</ele>
        <time>2020-06-17T19:12:26Z</time>
      </trkpt>
      <trkpt lat="49.71121" lon="0.20749">
        <ele>75.7</ele>
        <time>2020-06-17T19:12:27Z</time>
      </trkpt>
      <trkpt lat="49.71121" lon="0.20748">
        <ele>75.7</ele>
        <time>2020-06-17T19:12:28Z</time>
      </trkpt>
      <trkpt lat="49.71122" lon="0.20747">
        <ele>75.7</ele>
        <time>2020-06-17T19:12:29Z</time>
      </trkpt>
      <trkpt lat="49.71123" lon="0.20747">
        <ele>75.8</ele>
        <time>2020-06-17T19:12:30Z</time>
      </trkpt>
      <trkpt lat="49.71124" lon="0.20745">
        <ele>75.9</ele>
        <time>2020-06-17T19:12:31Z</time>
      </trkpt>
      <trkpt lat="49.71124" lon="0.20743">
        <ele>75.9</ele>
        <time>2020-06-17T19:12:32Z</time>
      </trkpt>
      <trkpt lat="49.71125" lon="0.20741">
        <ele>76</ele>
        <time>2020-06-17T19:12:33Z</time>
      </trkpt>
      <trkpt lat="49.71125" lon="0.2074">
        <ele>76.1</ele>
        <time>2020-06-17T19:12:34Z</time>
      </trkpt>
      <trkpt lat="49.71125" lon="0.20738">
        <ele>76.1</ele>
        <time>2020-06-17T19:12:35Z</time>
      </trkpt>
      <trkpt lat="49.71124" lon="0.20737">
        <ele>76.2</ele>
        <time>2020-06-17T19:12:36Z</time>
      </trkpt>
      <trkpt lat="49.71124" lon="0.20736">
        <ele>76.2</ele>
        <time>2020-06-17T19:12:37Z</time>
      </trkpt>
      <trkpt lat="49.71123" lon="0.20735">
        <ele>76.3</ele>
        <time>2020-06-17T19:12:38Z</time>
      </trkpt>
      <trkpt lat="49.71123" lon="0.20735">
        <ele>76.3</ele>
        <time>2020-06-17T19:12:39Z</time>
      </trkpt>
      <trkpt lat="49.71123" lon="0.20735">
        <ele>76.3</ele>
        <time>2020-06-17T19:12:40Z</time>
      </trkpt>
      <trkpt lat="49.71123" lon="0.20735">
        <ele>76.3</ele>
        <time>2020-06-17T19:12:41Z</time>
      </trkpt>
      <trkpt lat="49.71123" lon="0.20735">
        <ele>76.3</ele>
        <time>2020-06-17T19:12:42Z</time>
      </trkpt>
      <trkpt lat="49.71123" lon="0.20736">
        <ele>76.3</ele>
        <time>2020-06-17T19:12:43Z</time>
      </trkpt>
      <trkpt lat="49.71123" lon="0.20735">
        <ele>76.3</ele>
        <time>2020-06-17T19:12:44Z</time>
      </trkpt>
      <trkpt lat="49.71123" lon="0.20736">
        <ele>76.3</ele>
        <time>2020-06-17T19:12:45Z</time>
      </trkpt>
      <trkpt lat="49.71123" lon="0.20736">
        <ele>76.3</ele>
        <time>2020-06-17T19:12:46Z</time>
      </trkpt>
      <trkpt lat="49.71123" lon="0.20736">
        <ele>76.3</ele>
        <time>2020-06-17T19:12:47Z</time>
      </trkpt>
      <trkpt lat="49.71121" lon="0.20753">
        <ele>76.9</ele>
        <time>2020-06-17T19:13:45Z</time>
      </trkpt>
      <trkpt lat="49.7112" lon="0.20754">
        <ele>77</ele>
        <time>2020-06-17T19:13:46Z</time>
      </trkpt>
      <trkpt lat="49.7112" lon="0.20755">
        <ele>77</ele>
        <time>2020-06-17T19:13:47Z</time>
      </trkpt>
      <trkpt lat="49.7112" lon="0.20755">
        <ele>77</ele>
        <time>2020-06-17T19:13:48Z</time>
      </trkpt>
      <trkpt lat="49.7112" lon="0.20755">
        <ele>77</ele>
        <time>2020-06-17T19:13:49Z</time>
      </trkpt>
      <trkpt lat="49.7112" lon="0.20755">
        <ele>77</ele>
        <time>2020-06-17T19:13:50Z</time>
      </trkpt>
      <trkpt lat="49.71119" lon="0.20755">
        <ele>77</ele>
        <time>2020-06-17T19:13:51Z</time>
      </trkpt>
      <trkpt lat="49.71119" lon="0.20755">
        <ele>77.1</ele>
        <time>2020-06-17T19:13:52Z</time>
      </trkpt>
      <trkpt lat="49.71118" lon="0.20756">
        <ele>77.1</ele>
        <time>2020-06-17T19:13:53Z</time>
      </trkpt>
      <trkpt lat="49.71118" lon="0.20756">
        <ele>77.1</ele>
        <time>2020-06-17T19:13:54Z</time>
      </trkpt>
      <trkpt lat="49.71118" lon="0.20756">
        <ele>77.1</ele>
        <time>2020-06-17T19:13:55Z</time>
      </trkpt>
      <trkpt lat="49.71118" lon="0.20756">
        <ele>77.1</ele>
        <time>2020-06-17T19:13:56Z</time>
      </trkpt>
      <trkpt lat="49.71118" lon="0.20756">
        <ele>77.1</ele>
        <time>2020-06-17T19:13:57Z</time>
      </trkpt>
      <trkpt lat="49.71118" lon="0.20756">
        <ele>77.1</ele>
        <time>2020-06-17T19:13:58Z</time>
      </trkpt>
      <trkpt lat="49.71118" lon="0.20756">
        <ele>77.1</ele>
        <time>2020-06-17T19:13:59Z</time>
      </trkpt>
      <trkpt lat="49.71118" lon="0.20756">
        <ele>77.2</ele>
        <time>2020-06-17T19:14:00Z</time>
      </trkpt>
      <trkpt lat="49.71118" lon="0.20756">
        <ele>77.2</ele>
        <time>2020-06-17T19:14:01Z</time>
      </trkpt>
      <trkpt lat="49.71118" lon="0.20756">
        <ele>77.2</ele>
        <time>2020-06-17T19:14:02Z</time>
      </trkpt>
      <trkpt lat="49.71118" lon="0.20756">
        <ele>77.2</ele>
        <time>2020-06-17T19:14:03Z</time>
      </trkpt>
      <trkpt lat="49.71115" lon="0.20758">
        <ele>77.3</ele>
        <time>2020-06-17T19:14:07Z</time>
      </trkpt>
      <trkpt lat="49.71114" lon="0.20757">
        <ele>77.4</ele>
        <time>2020-06-17T19:14:08Z</time>
      </trkpt>
      <trkpt lat="49.71113" lon="0.20757">
        <ele>77.5</ele>
        <time>2020-06-17T19:14:09Z</time>
      </trkpt>
      <trkpt lat="49.71111" lon="0.20757">
        <ele>77.6</ele>
        <time>2020-06-17T19:14:10Z</time>
      </trkpt>
      <trkpt lat="49.71109" lon="0.20757">
        <ele>77.7</ele>
        <time>2020-06-17T19:14:11Z</time>
      </trkpt>
      <trkpt lat="49.71109" lon="0.20756">
        <ele>77.7</ele>
        <time>2020-06-17T19:14:12Z</time>
      </trkpt>
      <trkpt lat="49.71108" lon="0.20756">
        <ele>77.7</ele>
        <time>2020-06-17T19:14:13Z</time>
      </trkpt>
      <trkpt lat="49.71108" lon="0.20754">
        <ele>77.8</ele>
        <time>2020-06-17T19:14:14Z</time>
      </trkpt>
      <trkpt lat="49.71108" lon="0.20752">
        <ele>77.9</ele>
        <time>2020-06-17T19:14:15Z</time>
      </trkpt>
      <trkpt lat="49.71107" lon="0.20751">
        <ele>77.9</ele>
        <time>2020-06-17T19:14:16Z</time>
      </trkpt>
      <trkpt lat="49.71107" lon="0.2075">
        <ele>77.9</ele>
        <time>2020-06-17T19:14:17Z</time>
      </trkpt>
      <trkpt lat="49.71108" lon="0.20749">
        <ele>78</ele>
        <time>2020-06-17T19:14:18Z</time>
      </trkpt>
      <trkpt lat="49.71108" lon="0.20747">
        <ele>78</ele>
        <time>2020-06-17T19:14:19Z</time>
      </trkpt>
      <trkpt lat="49.71109" lon="0.20747">
        <ele>78.1</ele>
        <time>2020-06-17T19:14:20Z</time>
      </trkpt>
      <trkpt lat="49.71109" lon="0.20748">
        <ele>78.1</ele>
        <time>2020-06-17T19:14:21Z</time>
      </trkpt>
      <trkpt lat="49.7111" lon="0.20749">
        <ele>78.2</ele>
        <time>2020-06-17T19:14:22Z</time>
      </trkpt>
      <trkpt lat="49.7111" lon="0.20748">
        <ele>78.2</ele>
        <time>2020-06-17T19:14:23Z</time>
      </trkpt>
      <trkpt lat="49.7111" lon="0.20749">
        <ele>78.2</ele>
        <time>2020-06-17T19:14:24Z</time>
      </trkpt>
      <trkpt lat="49.71109" lon="0.20749">
        <ele>78.2</ele>
        <time>2020-06-17T19:14:25Z</time>
      </trkpt>
      <trkpt lat="49.7111" lon="0.20749">
        <ele>78.3</ele>
        <time>2020-06-17T19:14:26Z</time>
      </trkpt>
      <trkpt lat="49.7111" lon="0.20751">
        <ele>78.3</ele>
        <time>2020-06-17T19:14:27Z</time>
      </trkpt>
      <trkpt lat="49.7111" lon="0.20751">
        <ele>78.3</ele>
        <time>2020-06-17T19:14:28Z</time>
      </trkpt>
      <trkpt lat="49.7111" lon="0.20751">
        <ele>78.4</ele>
        <time>2020-06-17T19:14:29Z</time>
      </trkpt>
      <trkpt lat="49.7111" lon="0.20752">
        <ele>78.4</ele>
        <time>2020-06-17T19:14:30Z</time>
      </trkpt>
      <trkpt lat="49.7111" lon="0.20752">
        <ele>78.4</ele>
        <time>2020-06-17T19:14:31Z</time>
      </trkpt>
      <trkpt lat="49.7111" lon="0.20752">
        <ele>78.4</ele>
        <time>2020-06-17T19:14:32Z</time>
      </trkpt>
      <trkpt lat="49.71109" lon="0.20752">
        <ele>78.4</ele>
        <time>2020-06-17T19:14:33Z</time>
      </trkpt>
      <trkpt lat="49.71109" lon="0.20742">
        <ele>78.8</ele>
        <time>2020-06-17T19:14:43Z</time>
      </trkpt>
      <trkpt lat="49.71109" lon="0.20739">
        <ele>78.9</ele>
        <time>2020-06-17T19:14:44Z</time>
      </trkpt>
      <trkpt lat="49.71109" lon="0.20737">
        <ele>79</ele>
        <time>2020-06-17T19:14:45Z</time>
      </trkpt>
      <trkpt lat="49.71108" lon="0.20735">
        <ele>79.1</ele>
        <time>2020-06-17T19:14:46Z</time>
      </trkpt>
      <trkpt lat="49.71109" lon="0.2073">
        <ele>79.2</ele>
        <time>2020-06-17T19:14:47Z</time>
      </trkpt>
      <trkpt lat="49.71109" lon="0.20729">
        <ele>79.3</ele>
        <time>2020-06-17T19:14:48Z</time>
      </trkpt>
      <trkpt lat="49.71109" lon="0.20724">
        <ele>79.4</ele>
        <time>2020-06-17T19:14:49Z</time>
      </trkpt>
      <trkpt lat="49.7111" lon="0.2072">
        <ele>75</ele>
        <time>2020-06-17T19:14:50Z</time>
      </trkpt>
      <trkpt lat="49.71112" lon="0.20716">
        <ele>74.1</ele>
        <time>2020-06-17T19:14:51Z</time>
      </trkpt>
      <trkpt lat="49.71114" lon="0.20712">
        <ele>72.8</ele>
        <time>2020-06-17T19:14:52Z</time>
      </trkpt>
      <trkpt lat="49.71115" lon="0.2071">
        <ele>72.4</ele>
        <time>2020-06-17T19:14:53Z</time>
      </trkpt>
      <trkpt lat="49.71118" lon="0.20706">
        <ele>71.3</ele>
        <time>2020-06-17T19:14:54Z</time>
      </trkpt>
      <trkpt lat="49.71118" lon="0.20705">
        <ele>70.9</ele>
        <time>2020-06-17T19:14:55Z</time>
      </trkpt>
      <trkpt lat="49.71121" lon="0.207">
        <ele>69.7</ele>
        <time>2020-06-17T19:14:56Z</time>
      </trkpt>
      <trkpt lat="49.71122" lon="0.20699">
        <ele>69.3</ele>
        <time>2020-06-17T19:14:57Z</time>
      </trkpt>
      <trkpt lat="49.71122" lon="0.20696">
        <ele>68.7</ele>
        <time>2020-06-17T19:14:58Z</time>
      </trkpt>
      <trkpt lat="49.71122" lon="0.20695">
        <ele>68.5</ele>
        <time>2020-06-17T19:14:59Z</time>
      </trkpt>
      <trkpt lat="49.71122" lon="0.20694">
        <ele>68.3</ele>
        <time>2020-06-17T19:15:00Z</time>
      </trkpt>
      <trkpt lat="49.71122" lon="0.20693">
        <ele>68</ele>
        <time>2020-06-17T19:15:01Z</time>
      </trkpt>
      <trkpt lat="49.71122" lon="0.20691">
        <ele>67.6</ele>
        <time>2020-06-17T19:15:02Z</time>
      </trkpt>
      <trkpt lat="49.71122" lon="0.20688">
        <ele>67.5</ele>
        <time>2020-06-17T19:15:03Z</time>
      </trkpt>
      <trkpt lat="49.71121" lon="0.20683">
        <ele>67.3</ele>
        <time>2020-06-17T19:15:04Z</time>
      </trkpt>
      <trkpt lat="49.71121" lon="0.20681">
        <ele>67.2</ele>
        <time>2020-06-17T19:15:05Z</time>
      </trkpt>
      <trkpt lat="49.71121" lon="0.20675">
        <ele>66.5</ele>
        <time>2020-06-17T19:15:06Z</time>
      </trkpt>
      <trkpt lat="49.7112" lon="0.20673">
        <ele>66.6</ele>
        <time>2020-06-17T19:15:07Z</time>
      </trkpt>
      <trkpt lat="49.7112" lon="0.20668">
        <ele>66.3</ele>
        <time>2020-06-17T19:15:08Z</time>
      </trkpt>
      <trkpt lat="49.7112" lon="0.20667">
        <ele>65.9</ele>
        <time>2020-06-17T19:15:09Z</time>
      </trkpt>
      <trkpt lat="49.71121" lon="0.20662">
        <ele>65.6</ele>
        <time>2020-06-17T19:15:10Z</time>
      </trkpt>
      <trkpt lat="49.71121" lon="0.20661">
        <ele>65.7</ele>
        <time>2020-06-17T19:15:11Z</time>
      </trkpt>
      <trkpt lat="49.71121" lon="0.20655">
        <ele>64.9</ele>
        <time>2020-06-17T19:15:12Z</time>
      </trkpt>
      <trkpt lat="49.71121" lon="0.20653">
        <ele>65.1</ele>
        <time>2020-06-17T19:15:13Z</time>
      </trkpt>
      <trkpt lat="49.71121" lon="0.20649">
        <ele>64.8</ele>
        <time>2020-06-17T19:15:14Z</time>
      </trkpt>
      <trkpt lat="49.71121" lon="0.20647">
        <ele>64.9</ele>
        <time>2020-06-17T19:15:15Z</time>
      </trkpt>
      <trkpt lat="49.71121" lon="0.20642">
        <ele>64.7</ele>
        <time>2020-06-17T19:15:16Z</time>
      </trkpt>
      <trkpt lat="49.71121" lon="0.20641">
        <ele>64.4</ele>
        <time>2020-06-17T19:15:17Z</time>
      </trkpt>
      <trkpt lat="49.71122" lon="0.20639">
        <ele>64.5</ele>
        <time>2020-06-17T19:15:18Z</time>
      </trkpt>
      <trkpt lat="49.71122" lon="0.20637">
        <ele>64.3</ele>
        <time>2020-06-17T19:15:19Z</time>
      </trkpt>
      <trkpt lat="49.71121" lon="0.20636">
        <ele>64.4</ele>
        <time>2020-06-17T19:15:20Z</time>
      </trkpt>
      <trkpt lat="49.71121" lon="0.2063">
        <ele>64.1</ele>
        <time>2020-06-17T19:15:21Z</time>
      </trkpt>
      <trkpt lat="49.7112" lon="0.20629">
        <ele>63.9</ele>
        <time>2020-06-17T19:15:22Z</time>
      </trkpt>
      <trkpt lat="49.7112" lon="0.20623">
        <ele>63.6</ele>
        <time>2020-06-17T19:15:23Z</time>
      </trkpt>
      <trkpt lat="49.71119" lon="0.20621">
        <ele>63.4</ele>
        <time>2020-06-17T19:15:24Z</time>
      </trkpt>
      <trkpt lat="49.71118" lon="0.20615">
        <ele>63.2</ele>
        <time>2020-06-17T19:15:25Z</time>
      </trkpt>
      <trkpt lat="49.71118" lon="0.20614">
        <ele>63.3</ele>
        <time>2020-06-17T19:15:26Z</time>
      </trkpt>
      <trkpt lat="49.71117" lon="0.20609">
        <ele>63</ele>
        <time>2020-06-17T19:15:27Z</time>
      </trkpt>
      <trkpt lat="49.71116" lon="0.20607">
        <ele>62.8</ele>
        <time>2020-06-17T19:15:28Z</time>
      </trkpt>
      <trkpt lat="49.71116" lon="0.20602">
        <ele>62.5</ele>
        <time>2020-06-17T19:15:29Z</time>
      </trkpt>
      <trkpt lat="49.71115" lon="0.20598">
        <ele>62.2</ele>
        <time>2020-06-17T19:15:30Z</time>
      </trkpt>
      <trkpt lat="49.71114" lon="0.20596">
        <ele>62.3</ele>
        <time>2020-06-17T19:15:31Z</time>
      </trkpt>
      <trkpt lat="49.71114" lon="0.20591">
        <ele>61.9</ele>
        <time>2020-06-17T19:15:32Z</time>
      </trkpt>
      <trkpt lat="49.71114" lon="0.20589">
        <ele>61.5</ele>
        <time>2020-06-17T19:15:33Z</time>
      </trkpt>
      <trkpt lat="49.71112" lon="0.20585">
        <ele>60.9</ele>
        <time>2020-06-17T19:15:34Z</time>
      </trkpt>
      <trkpt lat="49.71112" lon="0.20584">
        <ele>61</ele>
        <time>2020-06-17T19:15:35Z</time>
      </trkpt>
      <trkpt lat="49.71111" lon="0.20581">
        <ele>60.4</ele>
        <time>2020-06-17T19:15:36Z</time>
      </trkpt>
      <trkpt lat="49.7111" lon="0.2058">
        <ele>60.5</ele>
        <time>2020-06-17T19:15:37Z</time>
      </trkpt>
      <trkpt lat="49.7111" lon="0.20579">
        <ele>60.6</ele>
        <time>2020-06-17T19:15:38Z</time>
      </trkpt>
      <trkpt lat="49.7111" lon="0.20576">
        <ele>59.9</ele>
        <time>2020-06-17T19:15:39Z</time>
      </trkpt>
      <trkpt lat="49.71109" lon="0.20575">
        <ele>60.1</ele>
        <time>2020-06-17T19:15:40Z</time>
      </trkpt>
      <trkpt lat="49.7111" lon="0.20573">
        <ele>59.3</ele>
        <time>2020-06-17T19:15:41Z</time>
      </trkpt>
      <trkpt lat="49.7111" lon="0.20571">
        <ele>59.4</ele>
        <time>2020-06-17T19:15:42Z</time>
      </trkpt>
      <trkpt lat="49.71111" lon="0.20569">
        <ele>58.6</ele>
        <time>2020-06-17T19:15:43Z</time>
      </trkpt>
      <trkpt lat="49.71113" lon="0.20564">
        <ele>57.8</ele>
        <time>2020-06-17T19:15:44Z</time>
      </trkpt>
      <trkpt lat="49.71113" lon="0.20562">
        <ele>57.9</ele>
        <time>2020-06-17T19:15:45Z</time>
      </trkpt>
      <trkpt lat="49.71116" lon="0.20558">
        <ele>57</ele>
        <time>2020-06-17T19:15:46Z</time>
      </trkpt>
      <trkpt lat="49.71116" lon="0.20557">
        <ele>57</ele>
        <time>2020-06-17T19:15:47Z</time>
      </trkpt>
      <trkpt lat="49.71118" lon="0.20553">
        <ele>56.2</ele>
        <time>2020-06-17T19:15:48Z</time>
      </trkpt>
      <trkpt lat="49.71119" lon="0.20552">
        <ele>55.6</ele>
        <time>2020-06-17T19:15:49Z</time>
      </trkpt>
      <trkpt lat="49.71119" lon="0.2055">
        <ele>55.7</ele>
        <time>2020-06-17T19:15:50Z</time>
      </trkpt>
      <trkpt lat="49.71119" lon="0.20548">
        <ele>55.8</ele>
        <time>2020-06-17T19:15:51Z</time>
      </trkpt>
      <trkpt lat="49.71119" lon="0.20548">
        <ele>55.2</ele>
        <time>2020-06-17T19:15:52Z</time>
      </trkpt>
      <trkpt lat="49.71119" lon="0.20548">
        <ele>55.4</ele>
        <time>2020-06-17T19:15:53Z</time>
      </trkpt>
      <trkpt lat="49.7112" lon="0.20548">
        <ele>56.1</ele>
        <time>2020-06-17T19:15:54Z</time>
      </trkpt>
      <trkpt lat="49.7112" lon="0.20549">
        <ele>56.2</ele>
        <time>2020-06-17T19:15:55Z</time>
      </trkpt>
      <trkpt lat="49.7112" lon="0.20549">
        <ele>56.3</ele>
        <time>2020-06-17T19:15:56Z</time>
      </trkpt>
      <trkpt lat="49.71119" lon="0.20548">
        <ele>56.5</ele>
        <time>2020-06-17T19:15:57Z</time>
      </trkpt>
      <trkpt lat="49.71119" lon="0.20546">
        <ele>56</ele>
        <time>2020-06-17T19:15:58Z</time>
      </trkpt>
      <trkpt lat="49.71119" lon="0.20544">
        <ele>56.2</ele>
        <time>2020-06-17T19:15:59Z</time>
      </trkpt>
      <trkpt lat="49.71119" lon="0.20543">
        <ele>56.1</ele>
        <time>2020-06-17T19:16:00Z</time>
      </trkpt>
      <trkpt lat="49.7112" lon="0.20541">
        <ele>56.2</ele>
        <time>2020-06-17T19:16:01Z</time>
      </trkpt>
      <trkpt lat="49.7112" lon="0.20538">
        <ele>56.5</ele>
        <time>2020-06-17T19:16:02Z</time>
      </trkpt>
      <trkpt lat="49.71119" lon="0.20538">
        <ele>56.7</ele>
        <time>2020-06-17T19:16:03Z</time>
      </trkpt>
      <trkpt lat="49.71118" lon="0.20538">
        <ele>56.6</ele>
        <time>2020-06-17T19:16:04Z</time>
      </trkpt>
      <trkpt lat="49.71117" lon="0.20539">
        <ele>56.8</ele>
        <time>2020-06-17T19:16:05Z</time>
      </trkpt>
      <trkpt lat="49.71117" lon="0.20539">
        <ele>56.9</ele>
        <time>2020-06-17T19:16:06Z</time>
      </trkpt>
      <trkpt lat="49.71117" lon="0.20539">
        <ele>57</ele>
        <time>2020-06-17T19:16:07Z</time>
      </trkpt>
      <trkpt lat="49.71117" lon="0.20539">
        <ele>57.2</ele>
        <time>2020-06-17T19:16:08Z</time>
      </trkpt>
      <trkpt lat="49.71117" lon="0.20539">
        <ele>57.3</ele>
        <time>2020-06-17T19:16:09Z</time>
      </trkpt>
      <trkpt lat="49.71117" lon="0.20539">
        <ele>57.4</ele>
        <time>2020-06-17T19:16:10Z</time>
      </trkpt>
      <trkpt lat="49.71117" lon="0.20539">
        <ele>57.6</ele>
        <time>2020-06-17T19:16:11Z</time>
      </trkpt>
      <trkpt lat="49.71117" lon="0.20539">
        <ele>57.7</ele>
        <time>2020-06-17T19:16:12Z</time>
      </trkpt>
      <trkpt lat="49.71117" lon="0.20539">
        <ele>57.8</ele>
        <time>2020-06-17T19:16:13Z</time>
      </trkpt>
      <trkpt lat="49.71114" lon="0.20534">
        <ele>57.7</ele>
        <time>2020-06-17T19:16:54Z</time>
      </trkpt>
      <trkpt lat="49.71113" lon="0.20533">
        <ele>57.4</ele>
        <time>2020-06-17T19:16:55Z</time>
      </trkpt>
      <trkpt lat="49.71112" lon="0.20533">
        <ele>57.5</ele>
        <time>2020-06-17T19:16:56Z</time>
      </trkpt>
      <trkpt lat="49.71112" lon="0.20532">
        <ele>57.7</ele>
        <time>2020-06-17T19:16:57Z</time>
      </trkpt>
      <trkpt lat="49.7111" lon="0.20531">
        <ele>57.4</ele>
        <time>2020-06-17T19:16:58Z</time>
      </trkpt>
      <trkpt lat="49.71108" lon="0.20531">
        <ele>57.1</ele>
        <time>2020-06-17T19:16:59Z</time>
      </trkpt>
      <trkpt lat="49.71107" lon="0.20532">
        <ele>57.3</ele>
        <time>2020-06-17T19:17:00Z</time>
      </trkpt>
      <trkpt lat="49.71106" lon="0.20533">
        <ele>57.4</ele>
        <time>2020-06-17T19:17:01Z</time>
      </trkpt>
      <trkpt lat="49.71104" lon="0.20534">
        <ele>57.2</ele>
        <time>2020-06-17T19:17:02Z</time>
      </trkpt>
      <trkpt lat="49.71103" lon="0.20535">
        <ele>58.1</ele>
        <time>2020-06-17T19:17:03Z</time>
      </trkpt>
      <trkpt lat="49.71101" lon="0.20536">
        <ele>58</ele>
        <time>2020-06-17T19:17:04Z</time>
      </trkpt>
      <trkpt lat="49.711" lon="0.20538">
        <ele>58.2</ele>
        <time>2020-06-17T19:17:05Z</time>
      </trkpt>
      <trkpt lat="49.711" lon="0.2054">
        <ele>59.2</ele>
        <time>2020-06-17T19:17:06Z</time>
      </trkpt>
      <trkpt lat="49.71099" lon="0.20542">
        <ele>59.2</ele>
        <time>2020-06-17T19:17:07Z</time>
      </trkpt>
      <trkpt lat="49.71098" lon="0.20544">
        <ele>60.3</ele>
        <time>2020-06-17T19:17:08Z</time>
      </trkpt>
      <trkpt lat="49.71098" lon="0.20547">
        <ele>60.4</ele>
        <time>2020-06-17T19:17:09Z</time>
      </trkpt>
      <trkpt lat="49.71097" lon="0.20551">
        <ele>61.3</ele>
        <time>2020-06-17T19:17:10Z</time>
      </trkpt>
      <trkpt lat="49.71097" lon="0.20552">
        <ele>62.2</ele>
        <time>2020-06-17T19:17:11Z</time>
      </trkpt>
      <trkpt lat="49.71096" lon="0.20557">
        <ele>63</ele>
        <time>2020-06-17T19:17:12Z</time>
      </trkpt>
      <trkpt lat="49.71096" lon="0.20559">
        <ele>63.2</ele>
        <time>2020-06-17T19:17:13Z</time>
      </trkpt>
      <trkpt lat="49.71095" lon="0.20564">
        <ele>64.1</ele>
        <time>2020-06-17T19:17:14Z</time>
      </trkpt>
      <trkpt lat="49.71094" lon="0.20566">
        <ele>65.1</ele>
        <time>2020-06-17T19:17:15Z</time>
      </trkpt>
      <trkpt lat="49.71094" lon="0.2057">
        <ele>66</ele>
        <time>2020-06-17T19:17:16Z</time>
      </trkpt>
      <trkpt lat="49.71094" lon="0.20571">
        <ele>66.1</ele>
        <time>2020-06-17T19:17:17Z</time>
      </trkpt>
      <trkpt lat="49.71094" lon="0.20574">
        <ele>67.1</ele>
        <time>2020-06-17T19:17:18Z</time>
      </trkpt>
      <trkpt lat="49.71092" lon="0.20576">
        <ele>67.2</ele>
        <time>2020-06-17T19:17:19Z</time>
      </trkpt>
      <trkpt lat="49.7109" lon="0.20579">
        <ele>68</ele>
        <time>2020-06-17T19:17:20Z</time>
      </trkpt>
      <trkpt lat="49.71089" lon="0.2058">
        <ele>68.1</ele>
        <time>2020-06-17T19:17:21Z</time>
      </trkpt>
      <trkpt lat="49.71088" lon="0.20581">
        <ele>67.9</ele>
        <time>2020-06-17T19:17:22Z</time>
      </trkpt>
      <trkpt lat="49.71087" lon="0.20584">
        <ele>68.9</ele>
        <time>2020-06-17T19:17:23Z</time>
      </trkpt>
      <trkpt lat="49.71084" lon="0.20587">
        <ele>69.4</ele>
        <time>2020-06-17T19:17:24Z</time>
      </trkpt>
      <trkpt lat="49.71083" lon="0.20588">
        <ele>69.5</ele>
        <time>2020-06-17T19:17:25Z</time>
      </trkpt>
      <trkpt lat="49.71082" lon="0.20589">
        <ele>69.3</ele>
        <time>2020-06-17T19:17:26Z</time>
      </trkpt>
      <trkpt lat="49.71081" lon="0.20591">
        <ele>70.1</ele>
        <time>2020-06-17T19:17:27Z</time>
      </trkpt>
      <trkpt lat="49.7108" lon="0.20593">
        <ele>69.8</ele>
        <time>2020-06-17T19:17:28Z</time>
      </trkpt>
      <trkpt lat="49.71079" lon="0.20594">
        <ele>69.9</ele>
        <time>2020-06-17T19:17:29Z</time>
      </trkpt>
      <trkpt lat="49.71079" lon="0.20594">
        <ele>70.1</ele>
        <time>2020-06-17T19:17:30Z</time>
      </trkpt>
      <trkpt lat="49.71079" lon="0.20595">
        <ele>70.2</ele>
        <time>2020-06-17T19:17:31Z</time>
      </trkpt>
      <trkpt lat="49.71079" lon="0.20595">
        <ele>70.9</ele>
        <time>2020-06-17T19:17:32Z</time>
      </trkpt>
      <trkpt lat="49.71078" lon="0.20597">
        <ele>70.9</ele>
        <time>2020-06-17T19:17:33Z</time>
      </trkpt>
      <trkpt lat="49.71078" lon="0.20598">
        <ele>70.9</ele>
        <time>2020-06-17T19:17:34Z</time>
      </trkpt>
      <trkpt lat="49.71079" lon="0.206">
        <ele>70.9</ele>
        <time>2020-06-17T19:17:35Z</time>
      </trkpt>
      <trkpt lat="49.71078" lon="0.20601">
        <ele>70.9</ele>
        <time>2020-06-17T19:17:36Z</time>
      </trkpt>
      <trkpt lat="49.71078" lon="0.20602">
        <ele>70.9</ele>
        <time>2020-06-17T19:17:37Z</time>
      </trkpt>
      <trkpt lat="49.71078" lon="0.20603">
        <ele>70.9</ele>
        <time>2020-06-17T19:17:38Z</time>
      </trkpt>
      <trkpt lat="49.71078" lon="0.20603">
        <ele>70.9</ele>
        <time>2020-06-17T19:17:39Z</time>
      </trkpt>
      <trkpt lat="49.71078" lon="0.20603">
        <ele>70.9</ele>
        <time>2020-06-17T19:17:40Z</time>
      </trkpt>
      <trkpt lat="49.71078" lon="0.20603">
        <ele>70.9</ele>
        <time>2020-06-17T19:17:41Z</time>
      </trkpt>
      <trkpt lat="49.71078" lon="0.20603">
        <ele>70.9</ele>
        <time>2020-06-17T19:17:42Z</time>
      </trkpt>
      <trkpt lat="49.71078" lon="0.20603">
        <ele>70.9</ele>
        <time>2020-06-17T19:17:43Z</time>
      </trkpt>
      <trkpt lat="49.71078" lon="0.20603">
        <ele>70.9</ele>
        <time>2020-06-17T19:17:44Z</time>
      </trkpt>
      <trkpt lat="49.71078" lon="0.20603">
        <ele>70.9</ele>
        <time>2020-06-17T19:17:45Z</time>
      </trkpt>
      <trkpt lat="49.71078" lon="0.20604">
        <ele>70.9</ele>
        <time>2020-06-17T19:17:46Z</time>
      </trkpt>
      <trkpt lat="49.71078" lon="0.20604">
        <ele>70.9</ele>
        <time>2020-06-17T19:17:47Z</time>
      </trkpt>
      <trkpt lat="49.71078" lon="0.20604">
        <ele>70.9</ele>
        <time>2020-06-17T19:17:48Z</time>
      </trkpt>
      <trkpt lat="49.71075" lon="0.20597">
        <ele>70.9</ele>
        <time>2020-06-17T19:17:54Z</time>
      </trkpt>
      <trkpt lat="49.71074" lon="0.20596">
        <ele>70.7</ele>
        <time>2020-06-17T19:17:55Z</time>
      </trkpt>
      <trkpt lat="49.71073" lon="0.20594">
        <ele>70.6</ele>
        <time>2020-06-17T19:17:56Z</time>
      </trkpt>
      <trkpt lat="49.71072" lon="0.20593">
        <ele>70.4</ele>
        <time>2020-06-17T19:17:57Z</time>
      </trkpt>
      <trkpt lat="49.71072" lon="0.20591">
        <ele>70.3</ele>
        <time>2020-06-17T19:17:58Z</time>
      </trkpt>
      <trkpt lat="49.71071" lon="0.20589">
        <ele>70.1</ele>
        <time>2020-06-17T19:17:59Z</time>
      </trkpt>
      <trkpt lat="49.71071" lon="0.20586">
        <ele>69.9</ele>
        <time>2020-06-17T19:18:00Z</time>
      </trkpt>
      <trkpt lat="49.71071" lon="0.20585">
        <ele>69.8</ele>
        <time>2020-06-17T19:18:01Z</time>
      </trkpt>
      <trkpt lat="49.71071" lon="0.20583">
        <ele>69.6</ele>
        <time>2020-06-17T19:18:02Z</time>
      </trkpt>
      <trkpt lat="49.71071" lon="0.20581">
        <ele>69.4</ele>
        <time>2020-06-17T19:18:03Z</time>
      </trkpt>
      <trkpt lat="49.71071" lon="0.20578">
        <ele>69.2</ele>
        <time>2020-06-17T19:18:04Z</time>
      </trkpt>
      <trkpt lat="49.71072" lon="0.20576">
        <ele>69</ele>
        <time>2020-06-17T19:18:05Z</time>
      </trkpt>
      <trkpt lat="49.71072" lon="0.20571">
        <ele>68.5</ele>
        <time>2020-06-17T19:18:06Z</time>
      </trkpt>
      <trkpt lat="49.71072" lon="0.20569">
        <ele>68.4</ele>
        <time>2020-06-17T19:18:07Z</time>
      </trkpt>
      <trkpt lat="49.71072" lon="0.20568">
        <ele>68.3</ele>
        <time>2020-06-17T19:18:08Z</time>
      </trkpt>
      <trkpt lat="49.71072" lon="0.20566">
        <ele>68.1</ele>
        <time>2020-06-17T19:18:09Z</time>
      </trkpt>
      <trkpt lat="49.71072" lon="0.20564">
        <ele>68</ele>
        <time>2020-06-17T19:18:10Z</time>
      </trkpt>
      <trkpt lat="49.71072" lon="0.20563">
        <ele>67.8</ele>
        <time>2020-06-17T19:18:11Z</time>
      </trkpt>
      <trkpt lat="49.71072" lon="0.20561">
        <ele>67.6</ele>
        <time>2020-06-17T19:18:12Z</time>
      </trkpt>
      <trkpt lat="49.71072" lon="0.20559">
        <ele>67.5</ele>
        <time>2020-06-17T19:18:13Z</time>
      </trkpt>
      <trkpt lat="49.71072" lon="0.20558">
        <ele>67.3</ele>
        <time>2020-06-17T19:18:14Z</time>
      </trkpt>
      <trkpt lat="49.71072" lon="0.20555">
        <ele>67.1</ele>
        <time>2020-06-17T19:18:15Z</time>
      </trkpt>
      <trkpt lat="49.71073" lon="0.20551">
        <ele>66.7</ele>
        <time>2020-06-17T19:18:16Z</time>
      </trkpt>
      <trkpt lat="49.71073" lon="0.20549">
        <ele>66.5</ele>
        <time>2020-06-17T19:18:17Z</time>
      </trkpt>
      <trkpt lat="49.71073" lon="0.20544">
        <ele>66.1</ele>
        <time>2020-06-17T19:18:18Z</time>
      </trkpt>
      <trkpt lat="49.71074" lon="0.20543">
        <ele>66</ele>
        <time>2020-06-17T19:18:19Z</time>
      </trkpt>
      <trkpt lat="49.71074" lon="0.20541">
        <ele>65.7</ele>
        <time>2020-06-17T19:18:20Z</time>
      </trkpt>
      <trkpt lat="49.71074" lon="0.20539">
        <ele>65.5</ele>
        <time>2020-06-17T19:18:21Z</time>
      </trkpt>
      <trkpt lat="49.71075" lon="0.20536">
        <ele>65.3</ele>
        <time>2020-06-17T19:18:22Z</time>
      </trkpt>
      <trkpt lat="49.71075" lon="0.20533">
        <ele>65</ele>
        <time>2020-06-17T19:18:23Z</time>
      </trkpt>
      <trkpt lat="49.71075" lon="0.20532">
        <ele>64.9</ele>
        <time>2020-06-17T19:18:24Z</time>
      </trkpt>
      <trkpt lat="49.71076" lon="0.20531">
        <ele>64.8</ele>
        <time>2020-06-17T19:18:25Z</time>
      </trkpt>
      <trkpt lat="49.71077" lon="0.20529">
        <ele>64.6</ele>
        <time>2020-06-17T19:18:26Z</time>
      </trkpt>
      <trkpt lat="49.71076" lon="0.20527">
        <ele>64.4</ele>
        <time>2020-06-17T19:18:27Z</time>
      </trkpt>
      <trkpt lat="49.71076" lon="0.20526">
        <ele>64.2</ele>
        <time>2020-06-17T19:18:28Z</time>
      </trkpt>
      <trkpt lat="49.71075" lon="0.20525">
        <ele>64</ele>
        <time>2020-06-17T19:18:29Z</time>
      </trkpt>
      <trkpt lat="49.71074" lon="0.20523">
        <ele>63.8</ele>
        <time>2020-06-17T19:18:30Z</time>
      </trkpt>
      <trkpt lat="49.71073" lon="0.20521">
        <ele>63.8</ele>
        <time>2020-06-17T19:18:31Z</time>
      </trkpt>
      <trkpt lat="49.71071" lon="0.20522">
        <ele>63.6</ele>
        <time>2020-06-17T19:18:32Z</time>
      </trkpt>
      <trkpt lat="49.7107" lon="0.20523">
        <ele>63.5</ele>
        <time>2020-06-17T19:18:33Z</time>
      </trkpt>
      <trkpt lat="49.71069" lon="0.20524">
        <ele>63.4</ele>
        <time>2020-06-17T19:18:34Z</time>
      </trkpt>
      <trkpt lat="49.71067" lon="0.20525">
        <ele>63.2</ele>
        <time>2020-06-17T19:18:35Z</time>
      </trkpt>
      <trkpt lat="49.71066" lon="0.20525">
        <ele>63.1</ele>
        <time>2020-06-17T19:18:36Z</time>
      </trkpt>
      <trkpt lat="49.71064" lon="0.20525">
        <ele>62.9</ele>
        <time>2020-06-17T19:18:37Z</time>
      </trkpt>
      <trkpt lat="49.71062" lon="0.20526">
        <ele>62.7</ele>
        <time>2020-06-17T19:18:38Z</time>
      </trkpt>
      <trkpt lat="49.71061" lon="0.20526">
        <ele>62.6</ele>
        <time>2020-06-17T19:18:39Z</time>
      </trkpt>
      <trkpt lat="49.71059" lon="0.20527">
        <ele>62.5</ele>
        <time>2020-06-17T19:18:40Z</time>
      </trkpt>
      <trkpt lat="49.71058" lon="0.20528">
        <ele>62.3</ele>
        <time>2020-06-17T19:18:41Z</time>
      </trkpt>
      <trkpt lat="49.71057" lon="0.2053">
        <ele>62.2</ele>
        <time>2020-06-17T19:18:42Z</time>
      </trkpt>
      <trkpt lat="49.71055" lon="0.20532">
        <ele>62</ele>
        <time>2020-06-17T19:18:43Z</time>
      </trkpt>
      <trkpt lat="49.71054" lon="0.20533">
        <ele>61.9</ele>
        <time>2020-06-17T19:18:44Z</time>
      </trkpt>
      <trkpt lat="49.71053" lon="0.20535">
        <ele>61.8</ele>
        <time>2020-06-17T19:18:45Z</time>
      </trkpt>
      <trkpt lat="49.71052" lon="0.20537">
        <ele>61.6</ele>
        <time>2020-06-17T19:18:46Z</time>
      </trkpt>
      <trkpt lat="49.71051" lon="0.20538">
        <ele>61.5</ele>
        <time>2020-06-17T19:18:47Z</time>
      </trkpt>
      <trkpt lat="49.71049" lon="0.2054">
        <ele>61.3</ele>
        <time>2020-06-17T19:18:48Z</time>
      </trkpt>
      <trkpt lat="49.71048" lon="0.20541">
        <ele>61.3</ele>
        <time>2020-06-17T19:18:49Z</time>
      </trkpt>
      <trkpt lat="49.71048" lon="0.20542">
        <ele>61.2</ele>
        <time>2020-06-17T19:18:50Z</time>
      </trkpt>
      <trkpt lat="49.71047" lon="0.20544">
        <ele>61.1</ele>
        <time>2020-06-17T19:18:51Z</time>
      </trkpt>
      <trkpt lat="49.71046" lon="0.20546">
        <ele>61</ele>
        <time>2020-06-17T19:18:52Z</time>
      </trkpt>
      <trkpt lat="49.71045" lon="0.20549">
        <ele>60.8</ele>
        <time>2020-06-17T19:18:53Z</time>
      </trkpt>
      <trkpt lat="49.71044" lon="0.2055">
        <ele>60.7</ele>
        <time>2020-06-17T19:18:54Z</time>
      </trkpt>
      <trkpt lat="49.71043" lon="0.20554">
        <ele>60.6</ele>
        <time>2020-06-17T19:18:55Z</time>
      </trkpt>
      <trkpt lat="49.71043" lon="0.20555">
        <ele>60.5</ele>
        <time>2020-06-17T19:18:56Z</time>
      </trkpt>
      <trkpt lat="49.71042" lon="0.20556">
        <ele>60.4</ele>
        <time>2020-06-17T19:18:57Z</time>
      </trkpt>
      <trkpt lat="49.71041" lon="0.20559">
        <ele>60.3</ele>
        <time>2020-06-17T19:18:58Z</time>
      </trkpt>
      <trkpt lat="49.71041" lon="0.2056">
        <ele>60.2</ele>
        <time>2020-06-17T19:18:59Z</time>
      </trkpt>
      <trkpt lat="49.7104" lon="0.20563">
        <ele>60.1</ele>
        <time>2020-06-17T19:19:00Z</time>
      </trkpt>
      <trkpt lat="49.71039" lon="0.20566">
        <ele>59.9</ele>
        <time>2020-06-17T19:19:01Z</time>
      </trkpt>
      <trkpt lat="49.71039" lon="0.20568">
        <ele>59.8</ele>
        <time>2020-06-17T19:19:02Z</time>
      </trkpt>
      <trkpt lat="49.71039" lon="0.20569">
        <ele>59.8</ele>
        <time>2020-06-17T19:19:03Z</time>
      </trkpt>
      <trkpt lat="49.71038" lon="0.2057">
        <ele>59.7</ele>
        <time>2020-06-17T19:19:04Z</time>
      </trkpt>
      <trkpt lat="49.71038" lon="0.20571">
        <ele>59.7</ele>
        <time>2020-06-17T19:19:05Z</time>
      </trkpt>
      <trkpt lat="49.71037" lon="0.20575">
        <ele>59.5</ele>
        <time>2020-06-17T19:19:06Z</time>
      </trkpt>
      <trkpt lat="49.71037" lon="0.20576">
        <ele>59.4</ele>
        <time>2020-06-17T19:19:07Z</time>
      </trkpt>
      <trkpt lat="49.71037" lon="0.20577">
        <ele>59.4</ele>
        <time>2020-06-17T19:19:08Z</time>
      </trkpt>
      <trkpt lat="49.71036" lon="0.20579">
        <ele>59.3</ele>
        <time>2020-06-17T19:19:09Z</time>
      </trkpt>
      <trkpt lat="49.71035" lon="0.20581">
        <ele>59.2</ele>
        <time>2020-06-17T19:19:10Z</time>
      </trkpt>
      <trkpt lat="49.71035" lon="0.20582">
        <ele>59.1</ele>
        <time>2020-06-17T19:19:11Z</time>
      </trkpt>
      <trkpt lat="49.71034" lon="0.20583">
        <ele>59.1</ele>
        <time>2020-06-17T19:19:12Z</time>
      </trkpt>
      <trkpt lat="49.71034" lon="0.20584">
        <ele>59</ele>
        <time>2020-06-17T19:19:13Z</time>
      </trkpt>
      <trkpt lat="49.71034" lon="0.20586">
        <ele>58.9</ele>
        <time>2020-06-17T19:19:14Z</time>
      </trkpt>
      <trkpt lat="49.71033" lon="0.20587">
        <ele>58.9</ele>
        <time>2020-06-17T19:19:15Z</time>
      </trkpt>
      <trkpt lat="49.71032" lon="0.20589">
        <ele>58.8</ele>
        <time>2020-06-17T19:19:16Z</time>
      </trkpt>
      <trkpt lat="49.71032" lon="0.20591">
        <ele>58.7</ele>
        <time>2020-06-17T19:19:17Z</time>
      </trkpt>
      <trkpt lat="49.71032" lon="0.20594">
        <ele>58.6</ele>
        <time>2020-06-17T19:19:18Z</time>
      </trkpt>
      <trkpt lat="49.71031" lon="0.20597">
        <ele>58.4</ele>
        <time>2020-06-17T19:19:19Z</time>
      </trkpt>
      <trkpt lat="49.71031" lon="0.20598">
        <ele>58.3</ele>
        <time>2020-06-17T19:19:20Z</time>
      </trkpt>
      <trkpt lat="49.71031" lon="0.20599">
        <ele>58.3</ele>
        <time>2020-06-17T19:19:21Z</time>
      </trkpt>
      <trkpt lat="49.7103" lon="0.20601">
        <ele>58.2</ele>
        <time>2020-06-17T19:19:22Z</time>
      </trkpt>
      <trkpt lat="49.71029" lon="0.20604">
        <ele>58.1</ele>
        <time>2020-06-17T19:19:23Z</time>
      </trkpt>
      <trkpt lat="49.71029" lon="0.20605">
        <ele>58</ele>
        <time>2020-06-17T19:19:24Z</time>
      </trkpt>
      <trkpt lat="49.71029" lon="0.20607">
        <ele>57.9</ele>
        <time>2020-06-17T19:19:25Z</time>
      </trkpt>
      <trkpt lat="49.71029" lon="0.20609">
        <ele>57.8</ele>
        <time>2020-06-17T19:19:26Z</time>
      </trkpt>
      <trkpt lat="49.71028" lon="0.2061">
        <ele>57.7</ele>
        <time>2020-06-17T19:19:27Z</time>
      </trkpt>
      <trkpt lat="49.71028" lon="0.20614">
        <ele>57.6</ele>
        <time>2020-06-17T19:19:28Z</time>
      </trkpt>
      <trkpt lat="49.71028" lon="0.20616">
        <ele>57.5</ele>
        <time>2020-06-17T19:19:29Z</time>
      </trkpt>
      <trkpt lat="49.71028" lon="0.20618">
        <ele>57.4</ele>
        <time>2020-06-17T19:19:30Z</time>
      </trkpt>
      <trkpt lat="49.71027" lon="0.2062">
        <ele>57.3</ele>
        <time>2020-06-17T19:19:31Z</time>
      </trkpt>
      <trkpt lat="49.71027" lon="0.20622">
        <ele>57.2</ele>
        <time>2020-06-17T19:19:32Z</time>
      </trkpt>
      <trkpt lat="49.71027" lon="0.20624">
        <ele>57.1</ele>
        <time>2020-06-17T19:19:33Z</time>
      </trkpt>
      <trkpt lat="49.71027" lon="0.20626">
        <ele>57</ele>
        <time>2020-06-17T19:19:34Z</time>
      </trkpt>
      <trkpt lat="49.71026" lon="0.20627">
        <ele>57</ele>
        <time>2020-06-17T19:19:35Z</time>
      </trkpt>
      <trkpt lat="49.71027" lon="0.20629">
        <ele>56.9</ele>
        <time>2020-06-17T19:19:36Z</time>
      </trkpt>
      <trkpt lat="49.71027" lon="0.2063">
        <ele>56.8</ele>
        <time>2020-06-17T19:19:37Z</time>
      </trkpt>
      <trkpt lat="49.71027" lon="0.20631">
        <ele>56.7</ele>
        <time>2020-06-17T19:19:38Z</time>
      </trkpt>
      <trkpt lat="49.71027" lon="0.20633">
        <ele>56.6</ele>
        <time>2020-06-17T19:19:39Z</time>
      </trkpt>
      <trkpt lat="49.71027" lon="0.20635">
        <ele>56.5</ele>
        <time>2020-06-17T19:19:40Z</time>
      </trkpt>
      <trkpt lat="49.71027" lon="0.20636">
        <ele>56.5</ele>
        <time>2020-06-17T19:19:41Z</time>
      </trkpt>
      <trkpt lat="49.71027" lon="0.20636">
        <ele>56.5</ele>
        <time>2020-06-17T19:19:42Z</time>
      </trkpt>
      <trkpt lat="49.71027" lon="0.20636">
        <ele>56.5</ele>
        <time>2020-06-17T19:19:43Z</time>
      </trkpt>
      <trkpt lat="49.71026" lon="0.20637">
        <ele>56.5</ele>
        <time>2020-06-17T19:19:44Z</time>
      </trkpt>
      <trkpt lat="49.71026" lon="0.20636">
        <ele>56.4</ele>
        <time>2020-06-17T19:19:45Z</time>
      </trkpt>
      <trkpt lat="49.71025" lon="0.20635">
        <ele>56.3</ele>
        <time>2020-06-17T19:19:46Z</time>
      </trkpt>
      <trkpt lat="49.71025" lon="0.20635">
        <ele>56.3</ele>
        <time>2020-06-17T19:19:47Z</time>
      </trkpt>
      <trkpt lat="49.71025" lon="0.20634">
        <ele>56.3</ele>
        <time>2020-06-17T19:19:48Z</time>
      </trkpt>
      <trkpt lat="49.71025" lon="0.20634">
        <ele>56.3</ele>
        <time>2020-06-17T19:19:49Z</time>
      </trkpt>
      <trkpt lat="49.71025" lon="0.20634">
        <ele>56.3</ele>
        <time>2020-06-17T19:19:50Z</time>
      </trkpt>
      <trkpt lat="49.71025" lon="0.20635">
        <ele>56.2</ele>
        <time>2020-06-17T19:19:51Z</time>
      </trkpt>
    </trkseg>
  </trk>
  <trk>
    <name><![CDATA[T17]]></name>
    <trkseg>
      <trkpt lat="49.71076" lon="0.20605">
        <ele>71.5</ele>
        <time>2020-06-18T06:33:01Z</time>
      </trkpt>
      <trkpt lat="49.71076" lon="0.20599">
        <ele>71.4</ele>
        <time>2020-06-18T06:33:02Z</time>
      </trkpt>
      <trkpt lat="49.71075" lon="0.20602">
        <ele>71.4</ele>
        <time>2020-06-18T06:33:03Z</time>
      </trkpt>
      <trkpt lat="49.71075" lon="0.20603">
        <ele>71.3</ele>
        <time>2020-06-18T06:33:04Z</time>
      </trkpt>
      <trkpt lat="49.71076" lon="0.20605">
        <ele>71.3</ele>
        <time>2020-06-18T06:33:05Z</time>
      </trkpt>
      <trkpt lat="49.71076" lon="0.20607">
        <ele>71.3</ele>
        <time>2020-06-18T06:33:06Z</time>
      </trkpt>
      <trkpt lat="49.71075" lon="0.20606">
        <ele>71.2</ele>
        <time>2020-06-18T06:33:07Z</time>
      </trkpt>
      <trkpt lat="49.71075" lon="0.20605">
        <ele>71.2</ele>
        <time>2020-06-18T06:33:08Z</time>
      </trkpt>
      <trkpt lat="49.71075" lon="0.20605">
        <ele>71.2</ele>
        <time>2020-06-18T06:33:09Z</time>
      </trkpt>
      <trkpt lat="49.71075" lon="0.20606">
        <ele>71.2</ele>
        <time>2020-06-18T06:33:10Z</time>
      </trkpt>
      <trkpt lat="49.71075" lon="0.20604">
        <ele>71.2</ele>
        <time>2020-06-18T06:33:11Z</time>
      </trkpt>
      <trkpt lat="49.71075" lon="0.206">
        <ele>71.1</ele>
        <time>2020-06-18T06:33:18Z</time>
      </trkpt>
      <trkpt lat="49.71075" lon="0.20596">
        <ele>70.8</ele>
        <time>2020-06-18T06:33:20Z</time>
      </trkpt>
      <trkpt lat="49.71075" lon="0.20591">
        <ele>70.4</ele>
        <time>2020-06-18T06:33:21Z</time>
      </trkpt>
      <trkpt lat="49.71075" lon="0.20589">
        <ele>70.3</ele>
        <time>2020-06-18T06:33:22Z</time>
      </trkpt>
      <trkpt lat="49.71075" lon="0.20585">
        <ele>69.9</ele>
        <time>2020-06-18T06:33:23Z</time>
      </trkpt>
      <trkpt lat="49.71075" lon="0.20583">
        <ele>69.7</ele>
        <time>2020-06-18T06:33:24Z</time>
      </trkpt>
      <trkpt lat="49.71075" lon="0.20578">
        <ele>69.3</ele>
        <time>2020-06-18T06:33:25Z</time>
      </trkpt>
      <trkpt lat="49.71075" lon="0.20577">
        <ele>69.2</ele>
        <time>2020-06-18T06:33:26Z</time>
      </trkpt>
      <trkpt lat="49.71074" lon="0.20572">
        <ele>68.7</ele>
        <time>2020-06-18T06:33:27Z</time>
      </trkpt>
      <trkpt lat="49.71074" lon="0.2057">
        <ele>68.6</ele>
        <time>2020-06-18T06:33:28Z</time>
      </trkpt>
      <trkpt lat="49.71075" lon="0.20566">
        <ele>68.2</ele>
        <time>2020-06-18T06:33:29Z</time>
      </trkpt>
      <trkpt lat="49.71075" lon="0.20564">
        <ele>68</ele>
        <time>2020-06-18T06:33:30Z</time>
      </trkpt>
      <trkpt lat="49.71076" lon="0.20559">
        <ele>67.5</ele>
        <time>2020-06-18T06:33:31Z</time>
      </trkpt>
      <trkpt lat="49.71076" lon="0.20557">
        <ele>67.3</ele>
        <time>2020-06-18T06:33:32Z</time>
      </trkpt>
      <trkpt lat="49.71076" lon="0.20552">
        <ele>66.9</ele>
        <time>2020-06-18T06:33:33Z</time>
      </trkpt>
      <trkpt lat="49.71076" lon="0.20551">
        <ele>66.7</ele>
        <time>2020-06-18T06:33:34Z</time>
      </trkpt>
      <trkpt lat="49.71076" lon="0.20546">
        <ele>66.3</ele>
        <time>2020-06-18T06:33:35Z</time>
      </trkpt>
      <trkpt lat="49.71077" lon="0.20544">
        <ele>66.1</ele>
        <time>2020-06-18T06:33:36Z</time>
      </trkpt>
      <trkpt lat="49.71078" lon="0.20538">
        <ele>65.5</ele>
        <time>2020-06-18T06:33:37Z</time>
      </trkpt>
      <trkpt lat="49.71078" lon="0.20536">
        <ele>65.3</ele>
        <time>2020-06-18T06:33:38Z</time>
      </trkpt>
      <trkpt lat="49.71079" lon="0.20532">
        <ele>64.9</ele>
        <time>2020-06-18T06:33:39Z</time>
      </trkpt>
      <trkpt lat="49.7108" lon="0.20528">
        <ele>64.4</ele>
        <time>2020-06-18T06:33:40Z</time>
      </trkpt>
      <trkpt lat="49.7108" lon="0.20526">
        <ele>64.3</ele>
        <time>2020-06-18T06:33:41Z</time>
      </trkpt>
      <trkpt lat="49.7108" lon="0.20524">
        <ele>64.1</ele>
        <time>2020-06-18T06:33:42Z</time>
      </trkpt>
      <trkpt lat="49.71078" lon="0.20523">
        <ele>63.8</ele>
        <time>2020-06-18T06:33:43Z</time>
      </trkpt>
      <trkpt lat="49.71075" lon="0.20522">
        <ele>63.8</ele>
        <time>2020-06-18T06:33:44Z</time>
      </trkpt>
      <trkpt lat="49.71071" lon="0.20522">
        <ele>63.5</ele>
        <time>2020-06-18T06:33:45Z</time>
      </trkpt>
      <trkpt lat="49.7107" lon="0.20522">
        <ele>63.3</ele>
        <time>2020-06-18T06:33:46Z</time>
      </trkpt>
      <trkpt lat="49.71068" lon="0.20522">
        <ele>63.2</ele>
        <time>2020-06-18T06:33:47Z</time>
      </trkpt>
      <trkpt lat="49.71067" lon="0.20521">
        <ele>63</ele>
        <time>2020-06-18T06:33:48Z</time>
      </trkpt>
      <trkpt lat="49.71066" lon="0.20522">
        <ele>62.9</ele>
        <time>2020-06-18T06:33:49Z</time>
      </trkpt>
      <trkpt lat="49.71065" lon="0.20523">
        <ele>62.8</ele>
        <time>2020-06-18T06:33:50Z</time>
      </trkpt>
      <trkpt lat="49.71064" lon="0.20525">
        <ele>62.6</ele>
        <time>2020-06-18T06:33:51Z</time>
      </trkpt>
      <trkpt lat="49.71063" lon="0.20526">
        <ele>62.5</ele>
        <time>2020-06-18T06:33:52Z</time>
      </trkpt>
      <trkpt lat="49.71061" lon="0.20528">
        <ele>62.4</ele>
        <time>2020-06-18T06:33:53Z</time>
      </trkpt>
      <trkpt lat="49.7106" lon="0.20529">
        <ele>62.2</ele>
        <time>2020-06-18T06:33:54Z</time>
      </trkpt>
      <trkpt lat="49.71058" lon="0.20532">
        <ele>62</ele>
        <time>2020-06-18T06:33:55Z</time>
      </trkpt>
      <trkpt lat="49.71057" lon="0.20534">
        <ele>61.8</ele>
        <time>2020-06-18T06:33:56Z</time>
      </trkpt>
      <trkpt lat="49.71056" lon="0.20536">
        <ele>61.7</ele>
        <time>2020-06-18T06:33:57Z</time>
      </trkpt>
      <trkpt lat="49.71054" lon="0.20539">
        <ele>61.4</ele>
        <time>2020-06-18T06:33:58Z</time>
      </trkpt>
      <trkpt lat="49.71053" lon="0.2054">
        <ele>61.4</ele>
        <time>2020-06-18T06:33:59Z</time>
      </trkpt>
      <trkpt lat="49.71052" lon="0.20542">
        <ele>61.2</ele>
        <time>2020-06-18T06:34:00Z</time>
      </trkpt>
      <trkpt lat="49.71051" lon="0.20544">
        <ele>61.1</ele>
        <time>2020-06-18T06:34:01Z</time>
      </trkpt>
      <trkpt lat="49.71049" lon="0.20548">
        <ele>60.9</ele>
        <time>2020-06-18T06:34:02Z</time>
      </trkpt>
      <trkpt lat="49.71049" lon="0.20549">
        <ele>60.8</ele>
        <time>2020-06-18T06:34:03Z</time>
      </trkpt>
      <trkpt lat="49.71048" lon="0.20552">
        <ele>60.6</ele>
        <time>2020-06-18T06:34:04Z</time>
      </trkpt>
      <trkpt lat="49.71047" lon="0.20554">
        <ele>60.5</ele>
        <time>2020-06-18T06:34:05Z</time>
      </trkpt>
      <trkpt lat="49.71046" lon="0.20558">
        <ele>60.3</ele>
        <time>2020-06-18T06:34:06Z</time>
      </trkpt>
      <trkpt lat="49.71046" lon="0.20559">
        <ele>60.2</ele>
        <time>2020-06-18T06:34:07Z</time>
      </trkpt>
      <trkpt lat="49.71044" lon="0.20564">
        <ele>59.9</ele>
        <time>2020-06-18T06:34:08Z</time>
      </trkpt>
      <trkpt lat="49.71044" lon="0.20566">
        <ele>59.9</ele>
        <time>2020-06-18T06:34:09Z</time>
      </trkpt>
      <trkpt lat="49.71043" lon="0.20571">
        <ele>59.6</ele>
        <time>2020-06-18T06:34:10Z</time>
      </trkpt>
      <trkpt lat="49.71043" lon="0.20572">
        <ele>59.5</ele>
        <time>2020-06-18T06:34:11Z</time>
      </trkpt>
      <trkpt lat="49.71042" lon="0.20578">
        <ele>59.3</ele>
        <time>2020-06-18T06:34:12Z</time>
      </trkpt>
      <trkpt lat="49.71042" lon="0.20579">
        <ele>59.2</ele>
        <time>2020-06-18T06:34:13Z</time>
      </trkpt>
      <trkpt lat="49.71041" lon="0.20584">
        <ele>59</ele>
        <time>2020-06-18T06:34:14Z</time>
      </trkpt>
      <trkpt lat="49.7104" lon="0.20586">
        <ele>58.9</ele>
        <time>2020-06-18T06:34:15Z</time>
      </trkpt>
      <trkpt lat="49.7104" lon="0.20591">
        <ele>58.6</ele>
        <time>2020-06-18T06:34:16Z</time>
      </trkpt>
      <trkpt lat="49.71039" lon="0.20593">
        <ele>58.5</ele>
        <time>2020-06-18T06:34:17Z</time>
      </trkpt>
      <trkpt lat="49.71038" lon="0.20598">
        <ele>58.3</ele>
        <time>2020-06-18T06:34:18Z</time>
      </trkpt>
      <trkpt lat="49.71038" lon="0.206">
        <ele>58.2</ele>
        <time>2020-06-18T06:34:19Z</time>
      </trkpt>
      <trkpt lat="49.71037" lon="0.20606">
        <ele>57.9</ele>
        <time>2020-06-18T06:34:20Z</time>
      </trkpt>
      <trkpt lat="49.71036" lon="0.20612">
        <ele>57.6</ele>
        <time>2020-06-18T06:34:21Z</time>
      </trkpt>
      <trkpt lat="49.71034" lon="0.2062">
        <ele>57.2</ele>
        <time>2020-06-18T06:34:22Z</time>
      </trkpt>
      <trkpt lat="49.71033" lon="0.20628">
        <ele>56.8</ele>
        <time>2020-06-18T06:34:23Z</time>
      </trkpt>
      <trkpt lat="49.71032" lon="0.20635">
        <ele>56.4</ele>
        <time>2020-06-18T06:34:24Z</time>
      </trkpt>
      <trkpt lat="49.71031" lon="0.20643">
        <ele>56</ele>
        <time>2020-06-18T06:34:25Z</time>
      </trkpt>
      <trkpt lat="49.7103" lon="0.20649">
        <ele>55.6</ele>
        <time>2020-06-18T06:34:26Z</time>
      </trkpt>
      <trkpt lat="49.71029" lon="0.20656">
        <ele>55.2</ele>
        <time>2020-06-18T06:34:27Z</time>
      </trkpt>
      <trkpt lat="49.71028" lon="0.20662">
        <ele>54.9</ele>
        <time>2020-06-18T06:34:28Z</time>
      </trkpt>
      <trkpt lat="49.71027" lon="0.20668">
        <ele>54.5</ele>
        <time>2020-06-18T06:34:29Z</time>
      </trkpt>
      <trkpt lat="49.71026" lon="0.20674">
        <ele>54.1</ele>
        <time>2020-06-18T06:34:30Z</time>
      </trkpt>
      <trkpt lat="49.71025" lon="0.20679">
        <ele>53.8</ele>
        <time>2020-06-18T06:34:31Z</time>
      </trkpt>
      <trkpt lat="49.71023" lon="0.20684">
        <ele>53.5</ele>
        <time>2020-06-18T06:34:32Z</time>
      </trkpt>
      <trkpt lat="49.71023" lon="0.20689">
        <ele>53.2</ele>
        <time>2020-06-18T06:34:33Z</time>
      </trkpt>
      <trkpt lat="49.71022" lon="0.20694">
        <ele>52.9</ele>
        <time>2020-06-18T06:34:34Z</time>
      </trkpt>
      <trkpt lat="49.71021" lon="0.20699">
        <ele>52.6</ele>
        <time>2020-06-18T06:34:35Z</time>
      </trkpt>
      <trkpt lat="49.71019" lon="0.20704">
        <ele>52.3</ele>
        <time>2020-06-18T06:34:36Z</time>
      </trkpt>
      <trkpt lat="49.71019" lon="0.20708">
        <ele>52</ele>
        <time>2020-06-18T06:34:37Z</time>
      </trkpt>
      <trkpt lat="49.71019" lon="0.20713">
        <ele>51.7</ele>
        <time>2020-06-18T06:34:38Z</time>
      </trkpt>
      <trkpt lat="49.71018" lon="0.20715">
        <ele>51.6</ele>
        <time>2020-06-18T06:34:39Z</time>
      </trkpt>
      <trkpt lat="49.71018" lon="0.2072">
        <ele>51.3</ele>
        <time>2020-06-18T06:34:40Z</time>
      </trkpt>
      <trkpt lat="49.71017" lon="0.20725">
        <ele>51.1</ele>
        <time>2020-06-18T06:34:41Z</time>
      </trkpt>
      <trkpt lat="49.71016" lon="0.20731">
        <ele>50.7</ele>
        <time>2020-06-18T06:34:42Z</time>
      </trkpt>
      <trkpt lat="49.71016" lon="0.20733">
        <ele>50.6</ele>
        <time>2020-06-18T06:34:43Z</time>
      </trkpt>
      <trkpt lat="49.71015" lon="0.20737">
        <ele>50.4</ele>
        <time>2020-06-18T06:34:44Z</time>
      </trkpt>
      <trkpt lat="49.71015" lon="0.20738">
        <ele>50.3</ele>
        <time>2020-06-18T06:34:45Z</time>
      </trkpt>
      <trkpt lat="49.71013" lon="0.20741">
        <ele>50.2</ele>
        <time>2020-06-18T06:34:46Z</time>
      </trkpt>
      <trkpt lat="49.71013" lon="0.20743">
        <ele>50.1</ele>
        <time>2020-06-18T06:34:47Z</time>
      </trkpt>
      <trkpt lat="49.7101" lon="0.20747">
        <ele>49.8</ele>
        <time>2020-06-18T06:34:48Z</time>
      </trkpt>
      <trkpt lat="49.71009" lon="0.20748">
        <ele>49.7</ele>
        <time>2020-06-18T06:34:49Z</time>
      </trkpt>
      <trkpt lat="49.71008" lon="0.20752">
        <ele>49.5</ele>
        <time>2020-06-18T06:34:50Z</time>
      </trkpt>
      <trkpt lat="49.71007" lon="0.20756">
        <ele>49.3</ele>
        <time>2020-06-18T06:34:51Z</time>
      </trkpt>
      <trkpt lat="49.71004" lon="0.20761">
        <ele>49.1</ele>
        <time>2020-06-18T06:34:52Z</time>
      </trkpt>
      <trkpt lat="49.71003" lon="0.20765">
        <ele>48.9</ele>
        <time>2020-06-18T06:34:53Z</time>
      </trkpt>
      <trkpt lat="49.71002" lon="0.20769">
        <ele>48.7</ele>
        <time>2020-06-18T06:34:54Z</time>
      </trkpt>
      <trkpt lat="49.71001" lon="0.20774">
        <ele>48.5</ele>
        <time>2020-06-18T06:34:55Z</time>
      </trkpt>
      <trkpt lat="49.70999" lon="0.20778">
        <ele>48.3</ele>
        <time>2020-06-18T06:34:56Z</time>
      </trkpt>
      <trkpt lat="49.70998" lon="0.20782">
        <ele>48.1</ele>
        <time>2020-06-18T06:34:57Z</time>
      </trkpt>
      <trkpt lat="49.70996" lon="0.20787">
        <ele>47.9</ele>
        <time>2020-06-18T06:34:58Z</time>
      </trkpt>
      <trkpt lat="49.70994" lon="0.20789">
        <ele>47.6</ele>
        <time>2020-06-18T06:34:59Z</time>
      </trkpt>
      <trkpt lat="49.70993" lon="0.20794">
        <ele>47.5</ele>
        <time>2020-06-18T06:35:00Z</time>
      </trkpt>
      <trkpt lat="49.70992" lon="0.20796">
        <ele>47.5</ele>
        <time>2020-06-18T06:35:01Z</time>
      </trkpt>
      <trkpt lat="49.70991" lon="0.20801">
        <ele>47.5</ele>
        <time>2020-06-18T06:35:02Z</time>
      </trkpt>
      <trkpt lat="49.7099" lon="0.20803">
        <ele>47.5</ele>
        <time>2020-06-18T06:35:03Z</time>
      </trkpt>
      <trkpt lat="49.70989" lon="0.20807">
        <ele>47.5</ele>
        <time>2020-06-18T06:35:04Z</time>
      </trkpt>
      <trkpt lat="49.70989" lon="0.20813">
        <ele>47.4</ele>
        <time>2020-06-18T06:35:05Z</time>
      </trkpt>
      <trkpt lat="49.70988" lon="0.20815">
        <ele>47.4</ele>
        <time>2020-06-18T06:35:06Z</time>
      </trkpt>
      <trkpt lat="49.70988" lon="0.20819">
        <ele>47.3</ele>
        <time>2020-06-18T06:35:07Z</time>
      </trkpt>
      <trkpt lat="49.70988" lon="0.20821">
        <ele>47.3</ele>
        <time>2020-06-18T06:35:08Z</time>
      </trkpt>
      <trkpt lat="49.70988" lon="0.20825">
        <ele>47.3</ele>
        <time>2020-06-18T06:35:09Z</time>
      </trkpt>
      <trkpt lat="49.70988" lon="0.20832">
        <ele>47.2</ele>
        <time>2020-06-18T06:35:10Z</time>
      </trkpt>
      <trkpt lat="49.70988" lon="0.20834">
        <ele>47.2</ele>
        <time>2020-06-18T06:35:11Z</time>
      </trkpt>
      <trkpt lat="49.70988" lon="0.20839">
        <ele>47.1</ele>
        <time>2020-06-18T06:35:12Z</time>
      </trkpt>
      <trkpt lat="49.70987" lon="0.20844">
        <ele>47.1</ele>
        <time>2020-06-18T06:35:13Z</time>
      </trkpt>
      <trkpt lat="49.70986" lon="0.20849">
        <ele>47</ele>
        <time>2020-06-18T06:35:14Z</time>
      </trkpt>
      <trkpt lat="49.70986" lon="0.20855">
        <ele>47</ele>
        <time>2020-06-18T06:35:15Z</time>
      </trkpt>
      <trkpt lat="49.70985" lon="0.2086">
        <ele>46.9</ele>
        <time>2020-06-18T06:35:16Z</time>
      </trkpt>
      <trkpt lat="49.70984" lon="0.20867">
        <ele>46.9</ele>
        <time>2020-06-18T06:35:17Z</time>
      </trkpt>
      <trkpt lat="49.70984" lon="0.20872">
        <ele>46.9</ele>
        <time>2020-06-18T06:35:18Z</time>
      </trkpt>
      <trkpt lat="49.70982" lon="0.20877">
        <ele>46.8</ele>
        <time>2020-06-18T06:35:19Z</time>
      </trkpt>
      <trkpt lat="49.70982" lon="0.20883">
        <ele>46.8</ele>
        <time>2020-06-18T06:35:20Z</time>
      </trkpt>
      <trkpt lat="49.70981" lon="0.20889">
        <ele>46.8</ele>
        <time>2020-06-18T06:35:21Z</time>
      </trkpt>
      <trkpt lat="49.7098" lon="0.20894">
        <ele>46.8</ele>
        <time>2020-06-18T06:35:22Z</time>
      </trkpt>
      <trkpt lat="49.70979" lon="0.20899">
        <ele>46.8</ele>
        <time>2020-06-18T06:35:23Z</time>
      </trkpt>
      <trkpt lat="49.70977" lon="0.20905">
        <ele>46.8</ele>
        <time>2020-06-18T06:35:24Z</time>
      </trkpt>
      <trkpt lat="49.70976" lon="0.20911">
        <ele>46.7</ele>
        <time>2020-06-18T06:35:25Z</time>
      </trkpt>
      <trkpt lat="49.70975" lon="0.20916">
        <ele>46.7</ele>
        <time>2020-06-18T06:35:26Z</time>
      </trkpt>
      <trkpt lat="49.70974" lon="0.20921">
        <ele>46.7</ele>
        <time>2020-06-18T06:35:27Z</time>
      </trkpt>
      <trkpt lat="49.70973" lon="0.20927">
        <ele>46.7</ele>
        <time>2020-06-18T06:35:28Z</time>
      </trkpt>
      <trkpt lat="49.70972" lon="0.20932">
        <ele>46.7</ele>
        <time>2020-06-18T06:35:29Z</time>
      </trkpt>
      <trkpt lat="49.70971" lon="0.20938">
        <ele>46.7</ele>
        <time>2020-06-18T06:35:30Z</time>
      </trkpt>
      <trkpt lat="49.7097" lon="0.20944">
        <ele>46.6</ele>
        <time>2020-06-18T06:35:31Z</time>
      </trkpt>
      <trkpt lat="49.70969" lon="0.2095">
        <ele>46.6</ele>
        <time>2020-06-18T06:35:32Z</time>
      </trkpt>
      <trkpt lat="49.70967" lon="0.20956">
        <ele>46.6</ele>
        <time>2020-06-18T06:35:33Z</time>
      </trkpt>
      <trkpt lat="49.70966" lon="0.20961">
        <ele>46.6</ele>
        <time>2020-06-18T06:35:34Z</time>
      </trkpt>
      <trkpt lat="49.70966" lon="0.20965">
        <ele>46.6</ele>
        <time>2020-06-18T06:35:35Z</time>
      </trkpt>
      <trkpt lat="49.70965" lon="0.2097">
        <ele>46.5</ele>
        <time>2020-06-18T06:35:36Z</time>
      </trkpt>
      <trkpt lat="49.70964" lon="0.20974">
        <ele>46.5</ele>
        <time>2020-06-18T06:35:37Z</time>
      </trkpt>
      <trkpt lat="49.70964" lon="0.20979">
        <ele>46.5</ele>
        <time>2020-06-18T06:35:38Z</time>
      </trkpt>
      <trkpt lat="49.70964" lon="0.20983">
        <ele>46.5</ele>
        <time>2020-06-18T06:35:39Z</time>
      </trkpt>
      <trkpt lat="49.70963" lon="0.20989">
        <ele>46.5</ele>
        <time>2020-06-18T06:35:40Z</time>
      </trkpt>
      <trkpt lat="49.70962" lon="0.20994">
        <ele>46.4</ele>
        <time>2020-06-18T06:35:41Z</time>
      </trkpt>
      <trkpt lat="49.70962" lon="0.20999">
        <ele>46.4</ele>
        <time>2020-06-18T06:35:42Z</time>
      </trkpt>
      <trkpt lat="49.7096" lon="0.21005">
        <ele>46.4</ele>
        <time>2020-06-18T06:35:43Z</time>
      </trkpt>
      <trkpt lat="49.70959" lon="0.21011">
        <ele>46.3</ele>
        <time>2020-06-18T06:35:44Z</time>
      </trkpt>
      <trkpt lat="49.70958" lon="0.21018">
        <ele>46.3</ele>
        <time>2020-06-18T06:35:45Z</time>
      </trkpt>
      <trkpt lat="49.70957" lon="0.21024">
        <ele>46.3</ele>
        <time>2020-06-18T06:35:46Z</time>
      </trkpt>
      <trkpt lat="49.70956" lon="0.21029">
        <ele>46.2</ele>
        <time>2020-06-18T06:35:47Z</time>
      </trkpt>
      <trkpt lat="49.70955" lon="0.21035">
        <ele>46.2</ele>
        <time>2020-06-18T06:35:48Z</time>
      </trkpt>
      <trkpt lat="49.70955" lon="0.21037">
        <ele>46.2</ele>
        <time>2020-06-18T06:35:49Z</time>
      </trkpt>
      <trkpt lat="49.70954" lon="0.21041">
        <ele>46.2</ele>
        <time>2020-06-18T06:35:50Z</time>
      </trkpt>
      <trkpt lat="49.70953" lon="0.21046">
        <ele>46.2</ele>
        <time>2020-06-18T06:35:51Z</time>
      </trkpt>
      <trkpt lat="49.70953" lon="0.21051">
        <ele>46.2</ele>
        <time>2020-06-18T06:35:52Z</time>
      </trkpt>
      <trkpt lat="49.70953" lon="0.21055">
        <ele>46.2</ele>
        <time>2020-06-18T06:35:53Z</time>
      </trkpt>
      <trkpt lat="49.70953" lon="0.2106">
        <ele>46.2</ele>
        <time>2020-06-18T06:35:54Z</time>
      </trkpt>
      <trkpt lat="49.70953" lon="0.21065">
        <ele>46.2</ele>
        <time>2020-06-18T06:35:55Z</time>
      </trkpt>
      <trkpt lat="49.70953" lon="0.21069">
        <ele>46.1</ele>
        <time>2020-06-18T06:35:56Z</time>
      </trkpt>
      <trkpt lat="49.70952" lon="0.21075">
        <ele>46.1</ele>
        <time>2020-06-18T06:35:57Z</time>
      </trkpt>
      <trkpt lat="49.70952" lon="0.21081">
        <ele>46.1</ele>
        <time>2020-06-18T06:35:58Z</time>
      </trkpt>
      <trkpt lat="49.70952" lon="0.21087">
        <ele>46</ele>
        <time>2020-06-18T06:35:59Z</time>
      </trkpt>
      <trkpt lat="49.7095" lon="0.21093">
        <ele>45.9</ele>
        <time>2020-06-18T06:36:00Z</time>
      </trkpt>
      <trkpt lat="49.7095" lon="0.21098">
        <ele>45.9</ele>
        <time>2020-06-18T06:36:01Z</time>
      </trkpt>
      <trkpt lat="49.70949" lon="0.21103">
        <ele>45.8</ele>
        <time>2020-06-18T06:36:02Z</time>
      </trkpt>
      <trkpt lat="49.70948" lon="0.21109">
        <ele>45.7</ele>
        <time>2020-06-18T06:36:03Z</time>
      </trkpt>
      <trkpt lat="49.70948" lon="0.21114">
        <ele>45.6</ele>
        <time>2020-06-18T06:36:04Z</time>
      </trkpt>
      <trkpt lat="49.70947" lon="0.2112">
        <ele>45.4</ele>
        <time>2020-06-18T06:36:05Z</time>
      </trkpt>
      <trkpt lat="49.70947" lon="0.21122">
        <ele>45.4</ele>
        <time>2020-06-18T06:36:06Z</time>
      </trkpt>
      <trkpt lat="49.70946" lon="0.21128">
        <ele>45.2</ele>
        <time>2020-06-18T06:36:07Z</time>
      </trkpt>
      <trkpt lat="49.70946" lon="0.2113">
        <ele>45.1</ele>
        <time>2020-06-18T06:36:08Z</time>
      </trkpt>
      <trkpt lat="49.70946" lon="0.21137">
        <ele>44.9</ele>
        <time>2020-06-18T06:36:09Z</time>
      </trkpt>
      <trkpt lat="49.70946" lon="0.21139">
        <ele>44.9</ele>
        <time>2020-06-18T06:36:10Z</time>
      </trkpt>
      <trkpt lat="49.70946" lon="0.21143">
        <ele>44.7</ele>
        <time>2020-06-18T06:36:11Z</time>
      </trkpt>
      <trkpt lat="49.70947" lon="0.21145">
        <ele>44.6</ele>
        <time>2020-06-18T06:36:12Z</time>
      </trkpt>
      <trkpt lat="49.70946" lon="0.21151">
        <ele>44.4</ele>
        <time>2020-06-18T06:36:13Z</time>
      </trkpt>
      <trkpt lat="49.70945" lon="0.21154">
        <ele>44.3</ele>
        <time>2020-06-18T06:36:14Z</time>
      </trkpt>
      <trkpt lat="49.70944" lon="0.21159">
        <ele>44.1</ele>
        <time>2020-06-18T06:36:15Z</time>
      </trkpt>
      <trkpt lat="49.70942" lon="0.21165">
        <ele>43.9</ele>
        <time>2020-06-18T06:36:16Z</time>
      </trkpt>
      <trkpt lat="49.70939" lon="0.2117">
        <ele>43.6</ele>
        <time>2020-06-18T06:36:17Z</time>
      </trkpt>
      <trkpt lat="49.70938" lon="0.21174">
        <ele>43.5</ele>
        <time>2020-06-18T06:36:18Z</time>
      </trkpt>
      <trkpt lat="49.70937" lon="0.21179">
        <ele>43.3</ele>
        <time>2020-06-18T06:36:19Z</time>
      </trkpt>
      <trkpt lat="49.70935" lon="0.21183">
        <ele>43.1</ele>
        <time>2020-06-18T06:36:20Z</time>
      </trkpt>
      <trkpt lat="49.70934" lon="0.21187">
        <ele>43</ele>
        <time>2020-06-18T06:36:21Z</time>
      </trkpt>
      <trkpt lat="49.70933" lon="0.21191">
        <ele>42.8</ele>
        <time>2020-06-18T06:36:22Z</time>
      </trkpt>
      <trkpt lat="49.70932" lon="0.21196">
        <ele>42.7</ele>
        <time>2020-06-18T06:36:23Z</time>
      </trkpt>
      <trkpt lat="49.70932" lon="0.212">
        <ele>42.5</ele>
        <time>2020-06-18T06:36:24Z</time>
      </trkpt>
      <trkpt lat="49.70932" lon="0.21207">
        <ele>42.3</ele>
        <time>2020-06-18T06:36:25Z</time>
      </trkpt>
      <trkpt lat="49.7093" lon="0.2121">
        <ele>42.1</ele>
        <time>2020-06-18T06:36:26Z</time>
      </trkpt>
      <trkpt lat="49.7093" lon="0.21215">
        <ele>42</ele>
        <time>2020-06-18T06:36:27Z</time>
      </trkpt>
      <trkpt lat="49.7093" lon="0.21217">
        <ele>41.9</ele>
        <time>2020-06-18T06:36:28Z</time>
      </trkpt>
      <trkpt lat="49.7093" lon="0.2122">
        <ele>41.8</ele>
        <time>2020-06-18T06:36:29Z</time>
      </trkpt>
      <trkpt lat="49.70929" lon="0.21224">
        <ele>41.6</ele>
        <time>2020-06-18T06:36:30Z</time>
      </trkpt>
      <trkpt lat="49.70929" lon="0.21226">
        <ele>41.5</ele>
        <time>2020-06-18T06:36:31Z</time>
      </trkpt>
      <trkpt lat="49.70929" lon="0.21228">
        <ele>41.5</ele>
        <time>2020-06-18T06:36:32Z</time>
      </trkpt>
      <trkpt lat="49.70928" lon="0.21233">
        <ele>41.2</ele>
        <time>2020-06-18T06:36:33Z</time>
      </trkpt>
      <trkpt lat="49.70927" lon="0.21235">
        <ele>41.1</ele>
        <time>2020-06-18T06:36:34Z</time>
      </trkpt>
      <trkpt lat="49.70927" lon="0.21241">
        <ele>40.8</ele>
        <time>2020-06-18T06:36:35Z</time>
      </trkpt>
      <trkpt lat="49.70927" lon="0.21243">
        <ele>40.7</ele>
        <time>2020-06-18T06:36:36Z</time>
      </trkpt>
      <trkpt lat="49.70927" lon="0.21249">
        <ele>40.5</ele>
        <time>2020-06-18T06:36:37Z</time>
      </trkpt>
      <trkpt lat="49.70926" lon="0.21256">
        <ele>40.2</ele>
        <time>2020-06-18T06:36:38Z</time>
      </trkpt>
      <trkpt lat="49.70926" lon="0.21262">
        <ele>40</ele>
        <time>2020-06-18T06:36:39Z</time>
      </trkpt>
      <trkpt lat="49.70925" lon="0.21268">
        <ele>39.7</ele>
        <time>2020-06-18T06:36:40Z</time>
      </trkpt>
      <trkpt lat="49.70925" lon="0.21275">
        <ele>39.4</ele>
        <time>2020-06-18T06:36:41Z</time>
      </trkpt>
      <trkpt lat="49.70924" lon="0.21281">
        <ele>39.2</ele>
        <time>2020-06-18T06:36:42Z</time>
      </trkpt>
      <trkpt lat="49.70924" lon="0.21288">
        <ele>38.9</ele>
        <time>2020-06-18T06:36:43Z</time>
      </trkpt>
      <trkpt lat="49.70924" lon="0.21294">
        <ele>38.6</ele>
        <time>2020-06-18T06:36:44Z</time>
      </trkpt>
      <trkpt lat="49.70925" lon="0.21299">
        <ele>38.4</ele>
        <time>2020-06-18T06:36:45Z</time>
      </trkpt>
      <trkpt lat="49.70925" lon="0.21304">
        <ele>38.1</ele>
        <time>2020-06-18T06:36:46Z</time>
      </trkpt>
      <trkpt lat="49.70926" lon="0.2131">
        <ele>37.9</ele>
        <time>2020-06-18T06:36:47Z</time>
      </trkpt>
      <trkpt lat="49.70928" lon="0.21315">
        <ele>37.6</ele>
        <time>2020-06-18T06:36:48Z</time>
      </trkpt>
      <trkpt lat="49.70927" lon="0.21322">
        <ele>37.3</ele>
        <time>2020-06-18T06:36:49Z</time>
      </trkpt>
      <trkpt lat="49.70927" lon="0.2133">
        <ele>36.9</ele>
        <time>2020-06-18T06:36:50Z</time>
      </trkpt>
      <trkpt lat="49.70928" lon="0.21337">
        <ele>36.6</ele>
        <time>2020-06-18T06:36:51Z</time>
      </trkpt>
      <trkpt lat="49.70928" lon="0.21343">
        <ele>36</ele>
        <time>2020-06-18T06:36:52Z</time>
      </trkpt>
      <trkpt lat="49.70927" lon="0.21351">
        <ele>35.7</ele>
        <time>2020-06-18T06:36:53Z</time>
      </trkpt>
      <trkpt lat="49.70928" lon="0.21356">
        <ele>35.5</ele>
        <time>2020-06-18T06:36:54Z</time>
      </trkpt>
      <trkpt lat="49.70928" lon="0.21362">
        <ele>35.2</ele>
        <time>2020-06-18T06:36:55Z</time>
      </trkpt>
      <trkpt lat="49.70929" lon="0.21367">
        <ele>34.9</ele>
        <time>2020-06-18T06:36:56Z</time>
      </trkpt>
      <trkpt lat="49.70929" lon="0.21374">
        <ele>34.6</ele>
        <time>2020-06-18T06:36:57Z</time>
      </trkpt>
      <trkpt lat="49.70931" lon="0.21379">
        <ele>34.3</ele>
        <time>2020-06-18T06:36:58Z</time>
      </trkpt>
      <trkpt lat="49.70932" lon="0.21385">
        <ele>34</ele>
        <time>2020-06-18T06:36:59Z</time>
      </trkpt>
      <trkpt lat="49.70933" lon="0.21389">
        <ele>33.8</ele>
        <time>2020-06-18T06:37:00Z</time>
      </trkpt>
      <trkpt lat="49.70934" lon="0.21394">
        <ele>33.6</ele>
        <time>2020-06-18T06:37:01Z</time>
      </trkpt>
      <trkpt lat="49.70935" lon="0.214">
        <ele>33.3</ele>
        <time>2020-06-18T06:37:02Z</time>
      </trkpt>
      <trkpt lat="49.70937" lon="0.21405">
        <ele>33.1</ele>
        <time>2020-06-18T06:37:03Z</time>
      </trkpt>
      <trkpt lat="49.70938" lon="0.2141">
        <ele>32.8</ele>
        <time>2020-06-18T06:37:04Z</time>
      </trkpt>
      <trkpt lat="49.70939" lon="0.21415">
        <ele>32.6</ele>
        <time>2020-06-18T06:37:05Z</time>
      </trkpt>
      <trkpt lat="49.70941" lon="0.2142">
        <ele>32.4</ele>
        <time>2020-06-18T06:37:06Z</time>
      </trkpt>
      <trkpt lat="49.70942" lon="0.21424">
        <ele>32.1</ele>
        <time>2020-06-18T06:37:07Z</time>
      </trkpt>
      <trkpt lat="49.70942" lon="0.21429">
        <ele>31.9</ele>
        <time>2020-06-18T06:37:08Z</time>
      </trkpt>
      <trkpt lat="49.70944" lon="0.21434">
        <ele>31.7</ele>
        <time>2020-06-18T06:37:09Z</time>
      </trkpt>
      <trkpt lat="49.70945" lon="0.21441">
        <ele>31.4</ele>
        <time>2020-06-18T06:37:10Z</time>
      </trkpt>
      <trkpt lat="49.70947" lon="0.21447">
        <ele>31.1</ele>
        <time>2020-06-18T06:37:11Z</time>
      </trkpt>
      <trkpt lat="49.70948" lon="0.21454">
        <ele>30.7</ele>
        <time>2020-06-18T06:37:12Z</time>
      </trkpt>
      <trkpt lat="49.7095" lon="0.21461">
        <ele>30.4</ele>
        <time>2020-06-18T06:37:13Z</time>
      </trkpt>
      <trkpt lat="49.7095" lon="0.2147">
        <ele>30</ele>
        <time>2020-06-18T06:37:14Z</time>
      </trkpt>
      <trkpt lat="49.70952" lon="0.21478">
        <ele>29.7</ele>
        <time>2020-06-18T06:37:15Z</time>
      </trkpt>
      <trkpt lat="49.70953" lon="0.21485">
        <ele>29.3</ele>
        <time>2020-06-18T06:37:16Z</time>
      </trkpt>
      <trkpt lat="49.70955" lon="0.2149">
        <ele>29</ele>
        <time>2020-06-18T06:37:17Z</time>
      </trkpt>
      <trkpt lat="49.70956" lon="0.21497">
        <ele>28.8</ele>
        <time>2020-06-18T06:37:18Z</time>
      </trkpt>
      <trkpt lat="49.70957" lon="0.21503">
        <ele>28.5</ele>
        <time>2020-06-18T06:37:19Z</time>
      </trkpt>
      <trkpt lat="49.70959" lon="0.21509">
        <ele>28.2</ele>
        <time>2020-06-18T06:37:20Z</time>
      </trkpt>
      <trkpt lat="49.70959" lon="0.21515">
        <ele>28</ele>
        <time>2020-06-18T06:37:21Z</time>
      </trkpt>
      <trkpt lat="49.7096" lon="0.21521">
        <ele>27.8</ele>
        <time>2020-06-18T06:37:22Z</time>
      </trkpt>
      <trkpt lat="49.7096" lon="0.21526">
        <ele>27.6</ele>
        <time>2020-06-18T06:37:23Z</time>
      </trkpt>
      <trkpt lat="49.70961" lon="0.21532">
        <ele>27.4</ele>
        <time>2020-06-18T06:37:24Z</time>
      </trkpt>
      <trkpt lat="49.70962" lon="0.21537">
        <ele>27.2</ele>
        <time>2020-06-18T06:37:25Z</time>
      </trkpt>
      <trkpt lat="49.70962" lon="0.21541">
        <ele>27</ele>
        <time>2020-06-18T06:37:26Z</time>
      </trkpt>
      <trkpt lat="49.70963" lon="0.21546">
        <ele>26.8</ele>
        <time>2020-06-18T06:37:27Z</time>
      </trkpt>
      <trkpt lat="49.70963" lon="0.21548">
        <ele>26.8</ele>
        <time>2020-06-18T06:37:28Z</time>
      </trkpt>
      <trkpt lat="49.70964" lon="0.21552">
        <ele>26.6</ele>
        <time>2020-06-18T06:37:29Z</time>
      </trkpt>
      <trkpt lat="49.70964" lon="0.21554">
        <ele>26.5</ele>
        <time>2020-06-18T06:37:30Z</time>
      </trkpt>
      <trkpt lat="49.70965" lon="0.21558">
        <ele>26.4</ele>
        <time>2020-06-18T06:37:31Z</time>
      </trkpt>
      <trkpt lat="49.70965" lon="0.2156">
        <ele>26.3</ele>
        <time>2020-06-18T06:37:32Z</time>
      </trkpt>
      <trkpt lat="49.70965" lon="0.21561">
        <ele>26.3</ele>
        <time>2020-06-18T06:37:33Z</time>
      </trkpt>
      <trkpt lat="49.70965" lon="0.21564">
        <ele>26.2</ele>
        <time>2020-06-18T06:37:34Z</time>
      </trkpt>
      <trkpt lat="49.70965" lon="0.21565">
        <ele>26.1</ele>
        <time>2020-06-18T06:37:35Z</time>
      </trkpt>
      <trkpt lat="49.70965" lon="0.21564">
        <ele>26.1</ele>
        <time>2020-06-18T06:37:36Z</time>
      </trkpt>
      <trkpt lat="49.70964" lon="0.21564">
        <ele>26.1</ele>
        <time>2020-06-18T06:37:37Z</time>
      </trkpt>
      <trkpt lat="49.70965" lon="0.21564">
        <ele>26.1</ele>
        <time>2020-06-18T06:37:38Z</time>
      </trkpt>
      <trkpt lat="49.70965" lon="0.21565">
        <ele>26.1</ele>
        <time>2020-06-18T06:37:39Z</time>
      </trkpt>
      <trkpt lat="49.70964" lon="0.21565">
        <ele>26</ele>
        <time>2020-06-18T06:37:40Z</time>
      </trkpt>
      <trkpt lat="49.70964" lon="0.21566">
        <ele>26</ele>
        <time>2020-06-18T06:37:41Z</time>
      </trkpt>
      <trkpt lat="49.70963" lon="0.21567">
        <ele>25.9</ele>
        <time>2020-06-18T06:37:42Z</time>
      </trkpt>
      <trkpt lat="49.70961" lon="0.21569">
        <ele>25.8</ele>
        <time>2020-06-18T06:37:43Z</time>
      </trkpt>
      <trkpt lat="49.70959" lon="0.21571">
        <ele>25.7</ele>
        <time>2020-06-18T06:37:44Z</time>
      </trkpt>
      <trkpt lat="49.70958" lon="0.21573">
        <ele>25.2</ele>
        <time>2020-06-18T06:37:45Z</time>
      </trkpt>
      <trkpt lat="49.70956" lon="0.21576">
        <ele>25.3</ele>
        <time>2020-06-18T06:38:43Z</time>
      </trkpt>
      <trkpt lat="49.70954" lon="0.21578">
        <ele>25.4</ele>
        <time>2020-06-18T06:38:44Z</time>
      </trkpt>
      <trkpt lat="49.70954" lon="0.21583">
        <ele>25.5</ele>
        <time>2020-06-18T06:38:45Z</time>
      </trkpt>
      <trkpt lat="49.70954" lon="0.21585">
        <ele>25.6</ele>
        <time>2020-06-18T06:38:46Z</time>
      </trkpt>
      <trkpt lat="49.70954" lon="0.2159">
        <ele>25.7</ele>
        <time>2020-06-18T06:38:47Z</time>
      </trkpt>
      <trkpt lat="49.70955" lon="0.21594">
        <ele>25.8</ele>
        <time>2020-06-18T06:38:48Z</time>
      </trkpt>
      <trkpt lat="49.70956" lon="0.21599">
        <ele>25.9</ele>
        <time>2020-06-18T06:38:49Z</time>
      </trkpt>
      <trkpt lat="49.70958" lon="0.21605">
        <ele>26.1</ele>
        <time>2020-06-18T06:38:50Z</time>
      </trkpt>
      <trkpt lat="49.70958" lon="0.21607">
        <ele>26.1</ele>
        <time>2020-06-18T06:38:51Z</time>
      </trkpt>
      <trkpt lat="49.7096" lon="0.21612">
        <ele>26.2</ele>
        <time>2020-06-18T06:38:52Z</time>
      </trkpt>
      <trkpt lat="49.7096" lon="0.21614">
        <ele>26.3</ele>
        <time>2020-06-18T06:38:53Z</time>
      </trkpt>
      <trkpt lat="49.70962" lon="0.2162">
        <ele>26.4</ele>
        <time>2020-06-18T06:38:54Z</time>
      </trkpt>
      <trkpt lat="49.70963" lon="0.21623">
        <ele>26.5</ele>
        <time>2020-06-18T06:38:55Z</time>
      </trkpt>
      <trkpt lat="49.70964" lon="0.21629">
        <ele>26.6</ele>
        <time>2020-06-18T06:38:56Z</time>
      </trkpt>
      <trkpt lat="49.70964" lon="0.2163">
        <ele>26.6</ele>
        <time>2020-06-18T06:38:57Z</time>
      </trkpt>
      <trkpt lat="49.70964" lon="0.21636">
        <ele>26.7</ele>
        <time>2020-06-18T06:38:58Z</time>
      </trkpt>
      <trkpt lat="49.70965" lon="0.21637">
        <ele>26.7</ele>
        <time>2020-06-18T06:38:59Z</time>
      </trkpt>
      <trkpt lat="49.70965" lon="0.21642">
        <ele>26.9</ele>
        <time>2020-06-18T06:39:00Z</time>
      </trkpt>
      <trkpt lat="49.70965" lon="0.21644">
        <ele>26.9</ele>
        <time>2020-06-18T06:39:01Z</time>
      </trkpt>
      <trkpt lat="49.70966" lon="0.2165">
        <ele>27</ele>
        <time>2020-06-18T06:39:02Z</time>
      </trkpt>
      <trkpt lat="49.70966" lon="0.21651">
        <ele>27.1</ele>
        <time>2020-06-18T06:39:03Z</time>
      </trkpt>
      <trkpt lat="49.70967" lon="0.21657">
        <ele>27.2</ele>
        <time>2020-06-18T06:39:04Z</time>
      </trkpt>
      <trkpt lat="49.70968" lon="0.21659">
        <ele>27.3</ele>
        <time>2020-06-18T06:39:05Z</time>
      </trkpt>
      <trkpt lat="49.70968" lon="0.21663">
        <ele>27.4</ele>
        <time>2020-06-18T06:39:06Z</time>
      </trkpt>
      <trkpt lat="49.70969" lon="0.21669">
        <ele>27.5</ele>
        <time>2020-06-18T06:39:07Z</time>
      </trkpt>
      <trkpt lat="49.70969" lon="0.21675">
        <ele>27.6</ele>
        <time>2020-06-18T06:39:08Z</time>
      </trkpt>
      <trkpt lat="49.70969" lon="0.2168">
        <ele>27.7</ele>
        <time>2020-06-18T06:39:09Z</time>
      </trkpt>
      <trkpt lat="49.70968" lon="0.21685">
        <ele>27.9</ele>
        <time>2020-06-18T06:39:10Z</time>
      </trkpt>
      <trkpt lat="49.70968" lon="0.21693">
        <ele>28</ele>
        <time>2020-06-18T06:39:11Z</time>
      </trkpt>
      <trkpt lat="49.70968" lon="0.21699">
        <ele>28.2</ele>
        <time>2020-06-18T06:39:12Z</time>
      </trkpt>
      <trkpt lat="49.70969" lon="0.21706">
        <ele>28.3</ele>
        <time>2020-06-18T06:39:13Z</time>
      </trkpt>
      <trkpt lat="49.7097" lon="0.21712">
        <ele>28.4</ele>
        <time>2020-06-18T06:39:14Z</time>
      </trkpt>
      <trkpt lat="49.70971" lon="0.21718">
        <ele>28.6</ele>
        <time>2020-06-18T06:39:15Z</time>
      </trkpt>
      <trkpt lat="49.70971" lon="0.21723">
        <ele>28.7</ele>
        <time>2020-06-18T06:39:16Z</time>
      </trkpt>
      <trkpt lat="49.70971" lon="0.21729">
        <ele>28.8</ele>
        <time>2020-06-18T06:39:17Z</time>
      </trkpt>
      <trkpt lat="49.70971" lon="0.21736">
        <ele>29</ele>
        <time>2020-06-18T06:39:18Z</time>
      </trkpt>
      <trkpt lat="49.70971" lon="0.21742">
        <ele>29.1</ele>
        <time>2020-06-18T06:39:19Z</time>
      </trkpt>
      <trkpt lat="49.70971" lon="0.21748">
        <ele>29.3</ele>
        <time>2020-06-18T06:39:20Z</time>
      </trkpt>
      <trkpt lat="49.7097" lon="0.21754">
        <ele>29.4</ele>
        <time>2020-06-18T06:39:21Z</time>
      </trkpt>
      <trkpt lat="49.7097" lon="0.21759">
        <ele>29.6</ele>
        <time>2020-06-18T06:39:22Z</time>
      </trkpt>
      <trkpt lat="49.70971" lon="0.21765">
        <ele>29.7</ele>
        <time>2020-06-18T06:39:23Z</time>
      </trkpt>
      <trkpt lat="49.70972" lon="0.21772">
        <ele>29.8</ele>
        <time>2020-06-18T06:39:24Z</time>
      </trkpt>
      <trkpt lat="49.70972" lon="0.21778">
        <ele>29.9</ele>
        <time>2020-06-18T06:39:25Z</time>
      </trkpt>
      <trkpt lat="49.70973" lon="0.21785">
        <ele>30.1</ele>
        <time>2020-06-18T06:39:26Z</time>
      </trkpt>
      <trkpt lat="49.70973" lon="0.21792">
        <ele>30.2</ele>
        <time>2020-06-18T06:39:27Z</time>
      </trkpt>
      <trkpt lat="49.70973" lon="0.21798">
        <ele>30.3</ele>
        <time>2020-06-18T06:39:28Z</time>
      </trkpt>
      <trkpt lat="49.70974" lon="0.21804">
        <ele>30.5</ele>
        <time>2020-06-18T06:39:29Z</time>
      </trkpt>
      <trkpt lat="49.70975" lon="0.2181">
        <ele>30.6</ele>
        <time>2020-06-18T06:39:30Z</time>
      </trkpt>
      <trkpt lat="49.70976" lon="0.21816">
        <ele>30.7</ele>
        <time>2020-06-18T06:39:31Z</time>
      </trkpt>
      <trkpt lat="49.70977" lon="0.21823">
        <ele>30.9</ele>
        <time>2020-06-18T06:39:32Z</time>
      </trkpt>
      <trkpt lat="49.70978" lon="0.2183">
        <ele>31</ele>
        <time>2020-06-18T06:39:33Z</time>
      </trkpt>
      <trkpt lat="49.70979" lon="0.21836">
        <ele>31.1</ele>
        <time>2020-06-18T06:39:34Z</time>
      </trkpt>
      <trkpt lat="49.7098" lon="0.21842">
        <ele>31.3</ele>
        <time>2020-06-18T06:39:35Z</time>
      </trkpt>
      <trkpt lat="49.70981" lon="0.21849">
        <ele>31.4</ele>
        <time>2020-06-18T06:39:36Z</time>
      </trkpt>
      <trkpt lat="49.70981" lon="0.21855">
        <ele>31.6</ele>
        <time>2020-06-18T06:39:37Z</time>
      </trkpt>
      <trkpt lat="49.70982" lon="0.2186">
        <ele>31.7</ele>
        <time>2020-06-18T06:39:38Z</time>
      </trkpt>
      <trkpt lat="49.70984" lon="0.21865">
        <ele>31.9</ele>
        <time>2020-06-18T06:39:39Z</time>
      </trkpt>
      <trkpt lat="49.70985" lon="0.2187">
        <ele>32</ele>
        <time>2020-06-18T06:39:40Z</time>
      </trkpt>
      <trkpt lat="49.70986" lon="0.21875">
        <ele>32.2</ele>
        <time>2020-06-18T06:39:41Z</time>
      </trkpt>
      <trkpt lat="49.70987" lon="0.21881">
        <ele>32.3</ele>
        <time>2020-06-18T06:39:42Z</time>
      </trkpt>
      <trkpt lat="49.70988" lon="0.21886">
        <ele>32.5</ele>
        <time>2020-06-18T06:39:43Z</time>
      </trkpt>
      <trkpt lat="49.70989" lon="0.21892">
        <ele>32.7</ele>
        <time>2020-06-18T06:39:44Z</time>
      </trkpt>
      <trkpt lat="49.7099" lon="0.21898">
        <ele>32.8</ele>
        <time>2020-06-18T06:39:45Z</time>
      </trkpt>
      <trkpt lat="49.70991" lon="0.21904">
        <ele>33</ele>
        <time>2020-06-18T06:39:46Z</time>
      </trkpt>
      <trkpt lat="49.70992" lon="0.2191">
        <ele>33.2</ele>
        <time>2020-06-18T06:39:47Z</time>
      </trkpt>
      <trkpt lat="49.70993" lon="0.21915">
        <ele>33.3</ele>
        <time>2020-06-18T06:39:48Z</time>
      </trkpt>
      <trkpt lat="49.70993" lon="0.2192">
        <ele>33.4</ele>
        <time>2020-06-18T06:39:49Z</time>
      </trkpt>
      <trkpt lat="49.70994" lon="0.21926">
        <ele>33.6</ele>
        <time>2020-06-18T06:39:50Z</time>
      </trkpt>
      <trkpt lat="49.70994" lon="0.21932">
        <ele>33.7</ele>
        <time>2020-06-18T06:39:51Z</time>
      </trkpt>
      <trkpt lat="49.70995" lon="0.21937">
        <ele>33.9</ele>
        <time>2020-06-18T06:39:52Z</time>
      </trkpt>
      <trkpt lat="49.70996" lon="0.21942">
        <ele>34</ele>
        <time>2020-06-18T06:39:53Z</time>
      </trkpt>
      <trkpt lat="49.70997" lon="0.21947">
        <ele>34.1</ele>
        <time>2020-06-18T06:39:54Z</time>
      </trkpt>
      <trkpt lat="49.70998" lon="0.21953">
        <ele>34.3</ele>
        <time>2020-06-18T06:39:55Z</time>
      </trkpt>
      <trkpt lat="49.71" lon="0.21958">
        <ele>34.4</ele>
        <time>2020-06-18T06:39:56Z</time>
      </trkpt>
      <trkpt lat="49.71002" lon="0.21964">
        <ele>34.5</ele>
        <time>2020-06-18T06:39:57Z</time>
      </trkpt>
      <trkpt lat="49.71003" lon="0.21969">
        <ele>34.7</ele>
        <time>2020-06-18T06:39:58Z</time>
      </trkpt>
      <trkpt lat="49.71005" lon="0.21974">
        <ele>34.8</ele>
        <time>2020-06-18T06:39:59Z</time>
      </trkpt>
      <trkpt lat="49.71006" lon="0.21981">
        <ele>35</ele>
        <time>2020-06-18T06:40:00Z</time>
      </trkpt>
      <trkpt lat="49.71007" lon="0.21987">
        <ele>35.1</ele>
        <time>2020-06-18T06:40:01Z</time>
      </trkpt>
      <trkpt lat="49.71009" lon="0.21994">
        <ele>35.2</ele>
        <time>2020-06-18T06:40:02Z</time>
      </trkpt>
      <trkpt lat="49.7101" lon="0.21999">
        <ele>35.4</ele>
        <time>2020-06-18T06:40:03Z</time>
      </trkpt>
      <trkpt lat="49.71012" lon="0.22004">
        <ele>35.5</ele>
        <time>2020-06-18T06:40:04Z</time>
      </trkpt>
      <trkpt lat="49.71012" lon="0.22009">
        <ele>35.6</ele>
        <time>2020-06-18T06:40:05Z</time>
      </trkpt>
      <trkpt lat="49.71013" lon="0.22014">
        <ele>35.7</ele>
        <time>2020-06-18T06:40:06Z</time>
      </trkpt>
      <trkpt lat="49.71015" lon="0.22021">
        <ele>35.8</ele>
        <time>2020-06-18T06:40:07Z</time>
      </trkpt>
      <trkpt lat="49.71016" lon="0.22027">
        <ele>35.9</ele>
        <time>2020-06-18T06:40:08Z</time>
      </trkpt>
      <trkpt lat="49.71018" lon="0.22034">
        <ele>36.1</ele>
        <time>2020-06-18T06:40:09Z</time>
      </trkpt>
      <trkpt lat="49.7102" lon="0.2204">
        <ele>36.3</ele>
        <time>2020-06-18T06:40:10Z</time>
      </trkpt>
      <trkpt lat="49.71021" lon="0.22047">
        <ele>36.4</ele>
        <time>2020-06-18T06:40:11Z</time>
      </trkpt>
      <trkpt lat="49.71023" lon="0.22054">
        <ele>36.6</ele>
        <time>2020-06-18T06:40:12Z</time>
      </trkpt>
      <trkpt lat="49.71025" lon="0.22061">
        <ele>36.8</ele>
        <time>2020-06-18T06:40:13Z</time>
      </trkpt>
      <trkpt lat="49.71028" lon="0.22067">
        <ele>36.9</ele>
        <time>2020-06-18T06:40:14Z</time>
      </trkpt>
      <trkpt lat="49.7103" lon="0.22073">
        <ele>37.1</ele>
        <time>2020-06-18T06:40:15Z</time>
      </trkpt>
      <trkpt lat="49.71032" lon="0.2208">
        <ele>37.2</ele>
        <time>2020-06-18T06:40:16Z</time>
      </trkpt>
      <trkpt lat="49.71034" lon="0.22086">
        <ele>37.4</ele>
        <time>2020-06-18T06:40:17Z</time>
      </trkpt>
      <trkpt lat="49.71036" lon="0.22092">
        <ele>37.5</ele>
        <time>2020-06-18T06:40:18Z</time>
      </trkpt>
      <trkpt lat="49.71037" lon="0.22097">
        <ele>37.7</ele>
        <time>2020-06-18T06:40:19Z</time>
      </trkpt>
      <trkpt lat="49.7104" lon="0.22101">
        <ele>37.8</ele>
        <time>2020-06-18T06:40:20Z</time>
      </trkpt>
      <trkpt lat="49.71042" lon="0.22106">
        <ele>37.9</ele>
        <time>2020-06-18T06:40:21Z</time>
      </trkpt>
      <trkpt lat="49.71044" lon="0.22111">
        <ele>38.1</ele>
        <time>2020-06-18T06:40:22Z</time>
      </trkpt>
      <trkpt lat="49.71046" lon="0.22117">
        <ele>38.2</ele>
        <time>2020-06-18T06:40:23Z</time>
      </trkpt>
      <trkpt lat="49.71048" lon="0.22123">
        <ele>38.4</ele>
        <time>2020-06-18T06:40:24Z</time>
      </trkpt>
      <trkpt lat="49.71051" lon="0.22128">
        <ele>38.5</ele>
        <time>2020-06-18T06:40:25Z</time>
      </trkpt>
      <trkpt lat="49.71052" lon="0.22133">
        <ele>38.6</ele>
        <time>2020-06-18T06:40:26Z</time>
      </trkpt>
      <trkpt lat="49.71054" lon="0.22137">
        <ele>38.7</ele>
        <time>2020-06-18T06:40:27Z</time>
      </trkpt>
      <trkpt lat="49.71056" lon="0.22141">
        <ele>38.8</ele>
        <time>2020-06-18T06:40:28Z</time>
      </trkpt>
      <trkpt lat="49.71057" lon="0.22146">
        <ele>38.9</ele>
        <time>2020-06-18T06:40:29Z</time>
      </trkpt>
      <trkpt lat="49.71058" lon="0.22152">
        <ele>39</ele>
        <time>2020-06-18T06:40:30Z</time>
      </trkpt>
      <trkpt lat="49.7106" lon="0.22157">
        <ele>39.2</ele>
        <time>2020-06-18T06:40:31Z</time>
      </trkpt>
      <trkpt lat="49.71063" lon="0.2216">
        <ele>39.3</ele>
        <time>2020-06-18T06:40:32Z</time>
      </trkpt>
      <trkpt lat="49.71065" lon="0.22167">
        <ele>39.5</ele>
        <time>2020-06-18T06:40:33Z</time>
      </trkpt>
      <trkpt lat="49.71068" lon="0.22175">
        <ele>39.7</ele>
        <time>2020-06-18T06:40:34Z</time>
      </trkpt>
      <trkpt lat="49.7107" lon="0.22182">
        <ele>39.9</ele>
        <time>2020-06-18T06:40:35Z</time>
      </trkpt>
      <trkpt lat="49.71072" lon="0.22189">
        <ele>40.1</ele>
        <time>2020-06-18T06:40:36Z</time>
      </trkpt>
      <trkpt lat="49.71073" lon="0.22196">
        <ele>40.2</ele>
        <time>2020-06-18T06:40:37Z</time>
      </trkpt>
      <trkpt lat="49.71076" lon="0.22201">
        <ele>40.4</ele>
        <time>2020-06-18T06:40:38Z</time>
      </trkpt>
      <trkpt lat="49.71078" lon="0.22205">
        <ele>40.5</ele>
        <time>2020-06-18T06:40:39Z</time>
      </trkpt>
      <trkpt lat="49.7108" lon="0.2221">
        <ele>40.7</ele>
        <time>2020-06-18T06:40:40Z</time>
      </trkpt>
      <trkpt lat="49.71083" lon="0.22215">
        <ele>40.8</ele>
        <time>2020-06-18T06:40:41Z</time>
      </trkpt>
      <trkpt lat="49.71085" lon="0.2222">
        <ele>41</ele>
        <time>2020-06-18T06:40:42Z</time>
      </trkpt>
      <trkpt lat="49.71088" lon="0.22225">
        <ele>41.1</ele>
        <time>2020-06-18T06:40:43Z</time>
      </trkpt>
      <trkpt lat="49.7109" lon="0.22231">
        <ele>41.2</ele>
        <time>2020-06-18T06:40:44Z</time>
      </trkpt>
      <trkpt lat="49.71092" lon="0.22238">
        <ele>41.4</ele>
        <time>2020-06-18T06:40:45Z</time>
      </trkpt>
      <trkpt lat="49.71094" lon="0.22244">
        <ele>41.5</ele>
        <time>2020-06-18T06:40:46Z</time>
      </trkpt>
      <trkpt lat="49.71096" lon="0.2225">
        <ele>41.7</ele>
        <time>2020-06-18T06:40:47Z</time>
      </trkpt>
      <trkpt lat="49.71097" lon="0.22256">
        <ele>41.8</ele>
        <time>2020-06-18T06:40:48Z</time>
      </trkpt>
      <trkpt lat="49.71099" lon="0.22262">
        <ele>42</ele>
        <time>2020-06-18T06:40:49Z</time>
      </trkpt>
      <trkpt lat="49.71102" lon="0.22268">
        <ele>42.1</ele>
        <time>2020-06-18T06:40:50Z</time>
      </trkpt>
      <trkpt lat="49.71104" lon="0.22273">
        <ele>42.3</ele>
        <time>2020-06-18T06:40:51Z</time>
      </trkpt>
      <trkpt lat="49.71106" lon="0.22279">
        <ele>42.4</ele>
        <time>2020-06-18T06:40:52Z</time>
      </trkpt>
      <trkpt lat="49.71108" lon="0.22284">
        <ele>42.5</ele>
        <time>2020-06-18T06:40:53Z</time>
      </trkpt>
      <trkpt lat="49.7111" lon="0.2229">
        <ele>42.6</ele>
        <time>2020-06-18T06:40:54Z</time>
      </trkpt>
      <trkpt lat="49.71113" lon="0.22295">
        <ele>42.8</ele>
        <time>2020-06-18T06:40:55Z</time>
      </trkpt>
      <trkpt lat="49.71115" lon="0.22301">
        <ele>43</ele>
        <time>2020-06-18T06:40:56Z</time>
      </trkpt>
      <trkpt lat="49.71118" lon="0.22307">
        <ele>43.2</ele>
        <time>2020-06-18T06:40:57Z</time>
      </trkpt>
      <trkpt lat="49.7112" lon="0.22313">
        <ele>43.3</ele>
        <time>2020-06-18T06:40:58Z</time>
      </trkpt>
      <trkpt lat="49.71122" lon="0.2232">
        <ele>43.4</ele>
        <time>2020-06-18T06:40:59Z</time>
      </trkpt>
      <trkpt lat="49.71124" lon="0.22325">
        <ele>43.5</ele>
        <time>2020-06-18T06:41:00Z</time>
      </trkpt>
      <trkpt lat="49.71127" lon="0.2233">
        <ele>43.7</ele>
        <time>2020-06-18T06:41:01Z</time>
      </trkpt>
      <trkpt lat="49.7113" lon="0.22336">
        <ele>43.8</ele>
        <time>2020-06-18T06:41:02Z</time>
      </trkpt>
      <trkpt lat="49.71132" lon="0.22342">
        <ele>43.9</ele>
        <time>2020-06-18T06:41:03Z</time>
      </trkpt>
      <trkpt lat="49.71135" lon="0.22346">
        <ele>44</ele>
        <time>2020-06-18T06:41:04Z</time>
      </trkpt>
      <trkpt lat="49.71138" lon="0.22351">
        <ele>44</ele>
        <time>2020-06-18T06:41:05Z</time>
      </trkpt>
      <trkpt lat="49.71141" lon="0.22356">
        <ele>44.1</ele>
        <time>2020-06-18T06:41:06Z</time>
      </trkpt>
      <trkpt lat="49.71145" lon="0.22362">
        <ele>44.2</ele>
        <time>2020-06-18T06:41:07Z</time>
      </trkpt>
      <trkpt lat="49.71148" lon="0.22368">
        <ele>44.3</ele>
        <time>2020-06-18T06:41:08Z</time>
      </trkpt>
      <trkpt lat="49.71151" lon="0.22374">
        <ele>44.3</ele>
        <time>2020-06-18T06:41:09Z</time>
      </trkpt>
      <trkpt lat="49.71153" lon="0.2238">
        <ele>44.4</ele>
        <time>2020-06-18T06:41:10Z</time>
      </trkpt>
      <trkpt lat="49.71156" lon="0.22386">
        <ele>44.5</ele>
        <time>2020-06-18T06:41:11Z</time>
      </trkpt>
      <trkpt lat="49.71158" lon="0.22391">
        <ele>44.6</ele>
        <time>2020-06-18T06:41:12Z</time>
      </trkpt>
      <trkpt lat="49.71162" lon="0.22396">
        <ele>44.7</ele>
        <time>2020-06-18T06:41:13Z</time>
      </trkpt>
      <trkpt lat="49.71165" lon="0.22401">
        <ele>44.9</ele>
        <time>2020-06-18T06:41:14Z</time>
      </trkpt>
      <trkpt lat="49.71169" lon="0.22406">
        <ele>45</ele>
        <time>2020-06-18T06:41:15Z</time>
      </trkpt>
      <trkpt lat="49.71173" lon="0.22409">
        <ele>45.2</ele>
        <time>2020-06-18T06:41:16Z</time>
      </trkpt>
      <trkpt lat="49.71177" lon="0.22413">
        <ele>45.3</ele>
        <time>2020-06-18T06:41:17Z</time>
      </trkpt>
      <trkpt lat="49.71181" lon="0.22416">
        <ele>45.5</ele>
        <time>2020-06-18T06:41:18Z</time>
      </trkpt>
      <trkpt lat="49.71184" lon="0.22419">
        <ele>45.6</ele>
        <time>2020-06-18T06:41:19Z</time>
      </trkpt>
      <trkpt lat="49.71188" lon="0.22421">
        <ele>45.7</ele>
        <time>2020-06-18T06:41:20Z</time>
      </trkpt>
      <trkpt lat="49.71192" lon="0.22423">
        <ele>45.8</ele>
        <time>2020-06-18T06:41:21Z</time>
      </trkpt>
      <trkpt lat="49.71197" lon="0.22425">
        <ele>45.9</ele>
        <time>2020-06-18T06:41:22Z</time>
      </trkpt>
      <trkpt lat="49.71202" lon="0.22429">
        <ele>46.1</ele>
        <time>2020-06-18T06:41:23Z</time>
      </trkpt>
      <trkpt lat="49.71206" lon="0.22431">
        <ele>46.2</ele>
        <time>2020-06-18T06:41:24Z</time>
      </trkpt>
      <trkpt lat="49.7121" lon="0.22433">
        <ele>46.3</ele>
        <time>2020-06-18T06:41:25Z</time>
      </trkpt>
      <trkpt lat="49.71214" lon="0.22437">
        <ele>46.5</ele>
        <time>2020-06-18T06:41:26Z</time>
      </trkpt>
      <trkpt lat="49.71218" lon="0.22442">
        <ele>46.6</ele>
        <time>2020-06-18T06:41:27Z</time>
      </trkpt>
      <trkpt lat="49.7122" lon="0.22447">
        <ele>46.8</ele>
        <time>2020-06-18T06:41:28Z</time>
      </trkpt>
      <trkpt lat="49.71222" lon="0.22453">
        <ele>46.9</ele>
        <time>2020-06-18T06:41:29Z</time>
      </trkpt>
      <trkpt lat="49.71223" lon="0.2246">
        <ele>47.1</ele>
        <time>2020-06-18T06:41:30Z</time>
      </trkpt>
      <trkpt lat="49.71222" lon="0.22466">
        <ele>47.2</ele>
        <time>2020-06-18T06:41:31Z</time>
      </trkpt>
      <trkpt lat="49.71219" lon="0.22471">
        <ele>47.4</ele>
        <time>2020-06-18T06:41:32Z</time>
      </trkpt>
      <trkpt lat="49.71218" lon="0.22476">
        <ele>47.6</ele>
        <time>2020-06-18T06:41:33Z</time>
      </trkpt>
      <trkpt lat="49.71216" lon="0.22481">
        <ele>47.7</ele>
        <time>2020-06-18T06:41:34Z</time>
      </trkpt>
      <trkpt lat="49.71214" lon="0.22486">
        <ele>47.9</ele>
        <time>2020-06-18T06:41:35Z</time>
      </trkpt>
      <trkpt lat="49.71211" lon="0.2249">
        <ele>48.1</ele>
        <time>2020-06-18T06:41:36Z</time>
      </trkpt>
      <trkpt lat="49.71207" lon="0.22494">
        <ele>48.3</ele>
        <time>2020-06-18T06:41:37Z</time>
      </trkpt>
      <trkpt lat="49.71204" lon="0.22498">
        <ele>48.5</ele>
        <time>2020-06-18T06:41:38Z</time>
      </trkpt>
      <trkpt lat="49.71201" lon="0.22502">
        <ele>48.7</ele>
        <time>2020-06-18T06:41:39Z</time>
      </trkpt>
      <trkpt lat="49.71198" lon="0.22504">
        <ele>48.9</ele>
        <time>2020-06-18T06:41:40Z</time>
      </trkpt>
      <trkpt lat="49.71195" lon="0.22506">
        <ele>49</ele>
        <time>2020-06-18T06:41:41Z</time>
      </trkpt>
      <trkpt lat="49.71192" lon="0.22509">
        <ele>49.2</ele>
        <time>2020-06-18T06:41:42Z</time>
      </trkpt>
      <trkpt lat="49.7119" lon="0.22514">
        <ele>49.3</ele>
        <time>2020-06-18T06:41:43Z</time>
      </trkpt>
      <trkpt lat="49.71188" lon="0.22519">
        <ele>49.5</ele>
        <time>2020-06-18T06:41:44Z</time>
      </trkpt>
      <trkpt lat="49.71188" lon="0.22524">
        <ele>49.6</ele>
        <time>2020-06-18T06:41:45Z</time>
      </trkpt>
      <trkpt lat="49.71188" lon="0.22529">
        <ele>49.8</ele>
        <time>2020-06-18T06:41:46Z</time>
      </trkpt>
      <trkpt lat="49.71188" lon="0.22534">
        <ele>49.9</ele>
        <time>2020-06-18T06:41:47Z</time>
      </trkpt>
      <trkpt lat="49.71188" lon="0.2254">
        <ele>50.1</ele>
        <time>2020-06-18T06:41:48Z</time>
      </trkpt>
      <trkpt lat="49.71188" lon="0.22546">
        <ele>50.2</ele>
        <time>2020-06-18T06:41:49Z</time>
      </trkpt>
      <trkpt lat="49.71188" lon="0.22552">
        <ele>50.4</ele>
        <time>2020-06-18T06:41:50Z</time>
      </trkpt>
      <trkpt lat="49.71188" lon="0.22559">
        <ele>50.6</ele>
        <time>2020-06-18T06:41:51Z</time>
      </trkpt>
      <trkpt lat="49.71189" lon="0.22565">
        <ele>50.7</ele>
        <time>2020-06-18T06:41:52Z</time>
      </trkpt>
      <trkpt lat="49.7119" lon="0.2257">
        <ele>50.9</ele>
        <time>2020-06-18T06:41:53Z</time>
      </trkpt>
      <trkpt lat="49.71191" lon="0.22575">
        <ele>51</ele>
        <time>2020-06-18T06:41:54Z</time>
      </trkpt>
      <trkpt lat="49.71192" lon="0.2258">
        <ele>51.1</ele>
        <time>2020-06-18T06:41:55Z</time>
      </trkpt>
      <trkpt lat="49.71192" lon="0.22585">
        <ele>51.3</ele>
        <time>2020-06-18T06:41:56Z</time>
      </trkpt>
      <trkpt lat="49.71193" lon="0.22592">
        <ele>51.5</ele>
        <time>2020-06-18T06:41:57Z</time>
      </trkpt>
      <trkpt lat="49.71194" lon="0.22598">
        <ele>51.6</ele>
        <time>2020-06-18T06:41:58Z</time>
      </trkpt>
      <trkpt lat="49.71193" lon="0.22604">
        <ele>51.8</ele>
        <time>2020-06-18T06:41:59Z</time>
      </trkpt>
      <trkpt lat="49.71194" lon="0.2261">
        <ele>51.9</ele>
        <time>2020-06-18T06:42:00Z</time>
      </trkpt>
      <trkpt lat="49.71194" lon="0.22616">
        <ele>52.1</ele>
        <time>2020-06-18T06:42:01Z</time>
      </trkpt>
      <trkpt lat="49.71195" lon="0.22623">
        <ele>52.3</ele>
        <time>2020-06-18T06:42:02Z</time>
      </trkpt>
      <trkpt lat="49.71196" lon="0.2263">
        <ele>52.5</ele>
        <time>2020-06-18T06:42:03Z</time>
      </trkpt>
      <trkpt lat="49.71197" lon="0.22636">
        <ele>52.7</ele>
        <time>2020-06-18T06:42:04Z</time>
      </trkpt>
      <trkpt lat="49.71198" lon="0.22643">
        <ele>52.8</ele>
        <time>2020-06-18T06:42:05Z</time>
      </trkpt>
      <trkpt lat="49.71198" lon="0.22649">
        <ele>53</ele>
        <time>2020-06-18T06:42:06Z</time>
      </trkpt>
      <trkpt lat="49.71198" lon="0.22656">
        <ele>53.2</ele>
        <time>2020-06-18T06:42:07Z</time>
      </trkpt>
      <trkpt lat="49.71198" lon="0.22661">
        <ele>53.3</ele>
        <time>2020-06-18T06:42:08Z</time>
      </trkpt>
      <trkpt lat="49.71197" lon="0.22666">
        <ele>53.4</ele>
        <time>2020-06-18T06:42:09Z</time>
      </trkpt>
      <trkpt lat="49.71197" lon="0.22671">
        <ele>53.5</ele>
        <time>2020-06-18T06:42:10Z</time>
      </trkpt>
      <trkpt lat="49.71196" lon="0.22677">
        <ele>53.7</ele>
        <time>2020-06-18T06:42:11Z</time>
      </trkpt>
      <trkpt lat="49.71196" lon="0.22683">
        <ele>53.8</ele>
        <time>2020-06-18T06:42:12Z</time>
      </trkpt>
      <trkpt lat="49.71196" lon="0.22689">
        <ele>54</ele>
        <time>2020-06-18T06:42:13Z</time>
      </trkpt>
      <trkpt lat="49.71196" lon="0.22696">
        <ele>54.2</ele>
        <time>2020-06-18T06:42:14Z</time>
      </trkpt>
      <trkpt lat="49.71196" lon="0.22703">
        <ele>54.3</ele>
        <time>2020-06-18T06:42:15Z</time>
      </trkpt>
      <trkpt lat="49.71196" lon="0.2271">
        <ele>54.5</ele>
        <time>2020-06-18T06:42:16Z</time>
      </trkpt>
      <trkpt lat="49.71195" lon="0.22716">
        <ele>54.7</ele>
        <time>2020-06-18T06:42:17Z</time>
      </trkpt>
      <trkpt lat="49.71195" lon="0.22723">
        <ele>54.8</ele>
        <time>2020-06-18T06:42:18Z</time>
      </trkpt>
      <trkpt lat="49.71195" lon="0.2273">
        <ele>55</ele>
        <time>2020-06-18T06:42:19Z</time>
      </trkpt>
      <trkpt lat="49.71195" lon="0.22736">
        <ele>55.2</ele>
        <time>2020-06-18T06:42:20Z</time>
      </trkpt>
      <trkpt lat="49.71196" lon="0.22742">
        <ele>55.4</ele>
        <time>2020-06-18T06:42:21Z</time>
      </trkpt>
      <trkpt lat="49.71195" lon="0.22747">
        <ele>55.5</ele>
        <time>2020-06-18T06:42:22Z</time>
      </trkpt>
      <trkpt lat="49.71194" lon="0.22753">
        <ele>55.6</ele>
        <time>2020-06-18T06:42:23Z</time>
      </trkpt>
      <trkpt lat="49.71194" lon="0.22758">
        <ele>55.8</ele>
        <time>2020-06-18T06:42:24Z</time>
      </trkpt>
      <trkpt lat="49.71193" lon="0.22764">
        <ele>55.9</ele>
        <time>2020-06-18T06:42:25Z</time>
      </trkpt>
      <trkpt lat="49.71193" lon="0.2277">
        <ele>56.1</ele>
        <time>2020-06-18T06:42:26Z</time>
      </trkpt>
      <trkpt lat="49.71194" lon="0.22775">
        <ele>56.2</ele>
        <time>2020-06-18T06:42:27Z</time>
      </trkpt>
      <trkpt lat="49.71194" lon="0.22781">
        <ele>56.3</ele>
        <time>2020-06-18T06:42:28Z</time>
      </trkpt>
      <trkpt lat="49.71195" lon="0.22787">
        <ele>56.5</ele>
        <time>2020-06-18T06:42:29Z</time>
      </trkpt>
      <trkpt lat="49.71195" lon="0.22793">
        <ele>56.7</ele>
        <time>2020-06-18T06:42:30Z</time>
      </trkpt>
      <trkpt lat="49.71196" lon="0.228">
        <ele>56.8</ele>
        <time>2020-06-18T06:42:31Z</time>
      </trkpt>
      <trkpt lat="49.71197" lon="0.22807">
        <ele>57</ele>
        <time>2020-06-18T06:42:32Z</time>
      </trkpt>
      <trkpt lat="49.71198" lon="0.22813">
        <ele>57.2</ele>
        <time>2020-06-18T06:42:33Z</time>
      </trkpt>
      <trkpt lat="49.71199" lon="0.22819">
        <ele>57.3</ele>
        <time>2020-06-18T06:42:34Z</time>
      </trkpt>
      <trkpt lat="49.712" lon="0.22827">
        <ele>57.5</ele>
        <time>2020-06-18T06:42:35Z</time>
      </trkpt>
      <trkpt lat="49.712" lon="0.22834">
        <ele>57.7</ele>
        <time>2020-06-18T06:42:36Z</time>
      </trkpt>
      <trkpt lat="49.71202" lon="0.22841">
        <ele>57.9</ele>
        <time>2020-06-18T06:42:37Z</time>
      </trkpt>
      <trkpt lat="49.71203" lon="0.22848">
        <ele>58.1</ele>
        <time>2020-06-18T06:42:38Z</time>
      </trkpt>
      <trkpt lat="49.71206" lon="0.22855">
        <ele>58.3</ele>
        <time>2020-06-18T06:42:39Z</time>
      </trkpt>
      <trkpt lat="49.71208" lon="0.22861">
        <ele>58.4</ele>
        <time>2020-06-18T06:42:40Z</time>
      </trkpt>
      <trkpt lat="49.7121" lon="0.22866">
        <ele>58.6</ele>
        <time>2020-06-18T06:42:41Z</time>
      </trkpt>
      <trkpt lat="49.71213" lon="0.22872">
        <ele>58.7</ele>
        <time>2020-06-18T06:42:42Z</time>
      </trkpt>
      <trkpt lat="49.71215" lon="0.22877">
        <ele>58.8</ele>
        <time>2020-06-18T06:42:43Z</time>
      </trkpt>
      <trkpt lat="49.71219" lon="0.22882">
        <ele>59</ele>
        <time>2020-06-18T06:42:44Z</time>
      </trkpt>
      <trkpt lat="49.71222" lon="0.22887">
        <ele>59.2</ele>
        <time>2020-06-18T06:42:45Z</time>
      </trkpt>
      <trkpt lat="49.71226" lon="0.2289">
        <ele>59.3</ele>
        <time>2020-06-18T06:42:46Z</time>
      </trkpt>
      <trkpt lat="49.7123" lon="0.22894">
        <ele>59.4</ele>
        <time>2020-06-18T06:42:47Z</time>
      </trkpt>
      <trkpt lat="49.71234" lon="0.22899">
        <ele>59.6</ele>
        <time>2020-06-18T06:42:48Z</time>
      </trkpt>
      <trkpt lat="49.71238" lon="0.22902">
        <ele>59.7</ele>
        <time>2020-06-18T06:42:49Z</time>
      </trkpt>
      <trkpt lat="49.71241" lon="0.22906">
        <ele>59.9</ele>
        <time>2020-06-18T06:42:50Z</time>
      </trkpt>
      <trkpt lat="49.71244" lon="0.22909">
        <ele>60</ele>
        <time>2020-06-18T06:42:51Z</time>
      </trkpt>
      <trkpt lat="49.71247" lon="0.22912">
        <ele>60.1</ele>
        <time>2020-06-18T06:42:52Z</time>
      </trkpt>
      <trkpt lat="49.71251" lon="0.22916">
        <ele>60.2</ele>
        <time>2020-06-18T06:42:53Z</time>
      </trkpt>
      <trkpt lat="49.71254" lon="0.22919">
        <ele>60.4</ele>
        <time>2020-06-18T06:42:54Z</time>
      </trkpt>
      <trkpt lat="49.71258" lon="0.22923">
        <ele>60.5</ele>
        <time>2020-06-18T06:42:55Z</time>
      </trkpt>
      <trkpt lat="49.71261" lon="0.22926">
        <ele>60.6</ele>
        <time>2020-06-18T06:42:56Z</time>
      </trkpt>
      <trkpt lat="49.71264" lon="0.2293">
        <ele>60.7</ele>
        <time>2020-06-18T06:42:57Z</time>
      </trkpt>
      <trkpt lat="49.71267" lon="0.22933">
        <ele>60.9</ele>
        <time>2020-06-18T06:42:58Z</time>
      </trkpt>
      <trkpt lat="49.7127" lon="0.22937">
        <ele>61</ele>
        <time>2020-06-18T06:42:59Z</time>
      </trkpt>
      <trkpt lat="49.71273" lon="0.22942">
        <ele>61.2</ele>
        <time>2020-06-18T06:43:00Z</time>
      </trkpt>
      <trkpt lat="49.71276" lon="0.22946">
        <ele>61.3</ele>
        <time>2020-06-18T06:43:01Z</time>
      </trkpt>
      <trkpt lat="49.71279" lon="0.22949">
        <ele>61.5</ele>
        <time>2020-06-18T06:43:02Z</time>
      </trkpt>
      <trkpt lat="49.71282" lon="0.22953">
        <ele>61.6</ele>
        <time>2020-06-18T06:43:03Z</time>
      </trkpt>
      <trkpt lat="49.71286" lon="0.22958">
        <ele>61.8</ele>
        <time>2020-06-18T06:43:04Z</time>
      </trkpt>
      <trkpt lat="49.71289" lon="0.22964">
        <ele>61.9</ele>
        <time>2020-06-18T06:43:05Z</time>
      </trkpt>
      <trkpt lat="49.71292" lon="0.22969">
        <ele>62.1</ele>
        <time>2020-06-18T06:43:06Z</time>
      </trkpt>
      <trkpt lat="49.71295" lon="0.22976">
        <ele>62.3</ele>
        <time>2020-06-18T06:43:07Z</time>
      </trkpt>
      <trkpt lat="49.71296" lon="0.22983">
        <ele>62.4</ele>
        <time>2020-06-18T06:43:08Z</time>
      </trkpt>
      <trkpt lat="49.71298" lon="0.22991">
        <ele>62.5</ele>
        <time>2020-06-18T06:43:09Z</time>
      </trkpt>
      <trkpt lat="49.71298" lon="0.22997">
        <ele>62.7</ele>
        <time>2020-06-18T06:43:10Z</time>
      </trkpt>
      <trkpt lat="49.71298" lon="0.23004">
        <ele>62.8</ele>
        <time>2020-06-18T06:43:11Z</time>
      </trkpt>
      <trkpt lat="49.71297" lon="0.23011">
        <ele>62.9</ele>
        <time>2020-06-18T06:43:12Z</time>
      </trkpt>
      <trkpt lat="49.71295" lon="0.23017">
        <ele>63</ele>
        <time>2020-06-18T06:43:13Z</time>
      </trkpt>
      <trkpt lat="49.71293" lon="0.23023">
        <ele>63.1</ele>
        <time>2020-06-18T06:43:14Z</time>
      </trkpt>
      <trkpt lat="49.7129" lon="0.23028">
        <ele>63.2</ele>
        <time>2020-06-18T06:43:15Z</time>
      </trkpt>
      <trkpt lat="49.71287" lon="0.23032">
        <ele>63.3</ele>
        <time>2020-06-18T06:43:16Z</time>
      </trkpt>
      <trkpt lat="49.71284" lon="0.23037">
        <ele>63.5</ele>
        <time>2020-06-18T06:43:17Z</time>
      </trkpt>
      <trkpt lat="49.7128" lon="0.2304">
        <ele>63.6</ele>
        <time>2020-06-18T06:43:18Z</time>
      </trkpt>
      <trkpt lat="49.71277" lon="0.23042">
        <ele>63.7</ele>
        <time>2020-06-18T06:43:19Z</time>
      </trkpt>
      <trkpt lat="49.71272" lon="0.23043">
        <ele>63.8</ele>
        <time>2020-06-18T06:43:20Z</time>
      </trkpt>
      <trkpt lat="49.71268" lon="0.23043">
        <ele>64</ele>
        <time>2020-06-18T06:43:21Z</time>
      </trkpt>
      <trkpt lat="49.71264" lon="0.23043">
        <ele>64.1</ele>
        <time>2020-06-18T06:43:22Z</time>
      </trkpt>
      <trkpt lat="49.7126" lon="0.23044">
        <ele>64.3</ele>
        <time>2020-06-18T06:43:23Z</time>
      </trkpt>
      <trkpt lat="49.71256" lon="0.23043">
        <ele>64.4</ele>
        <time>2020-06-18T06:43:24Z</time>
      </trkpt>
      <trkpt lat="49.71252" lon="0.23043">
        <ele>64.6</ele>
        <time>2020-06-18T06:43:25Z</time>
      </trkpt>
      <trkpt lat="49.71249" lon="0.23043">
        <ele>64.7</ele>
        <time>2020-06-18T06:43:26Z</time>
      </trkpt>
      <trkpt lat="49.71245" lon="0.23042">
        <ele>64.8</ele>
        <time>2020-06-18T06:43:27Z</time>
      </trkpt>
      <trkpt lat="49.71242" lon="0.2304">
        <ele>64.9</ele>
        <time>2020-06-18T06:43:28Z</time>
      </trkpt>
      <trkpt lat="49.71238" lon="0.2304">
        <ele>65.1</ele>
        <time>2020-06-18T06:43:29Z</time>
      </trkpt>
      <trkpt lat="49.71234" lon="0.23041">
        <ele>65.2</ele>
        <time>2020-06-18T06:43:30Z</time>
      </trkpt>
      <trkpt lat="49.7123" lon="0.23041">
        <ele>65.3</ele>
        <time>2020-06-18T06:43:31Z</time>
      </trkpt>
      <trkpt lat="49.71226" lon="0.23042">
        <ele>65.4</ele>
        <time>2020-06-18T06:43:32Z</time>
      </trkpt>
      <trkpt lat="49.71222" lon="0.23043">
        <ele>65.5</ele>
        <time>2020-06-18T06:43:33Z</time>
      </trkpt>
      <trkpt lat="49.71218" lon="0.23043">
        <ele>65.7</ele>
        <time>2020-06-18T06:43:34Z</time>
      </trkpt>
      <trkpt lat="49.71214" lon="0.23046">
        <ele>65.8</ele>
        <time>2020-06-18T06:43:35Z</time>
      </trkpt>
      <trkpt lat="49.71209" lon="0.23049">
        <ele>65.9</ele>
        <time>2020-06-18T06:43:36Z</time>
      </trkpt>
      <trkpt lat="49.71205" lon="0.23054">
        <ele>66.1</ele>
        <time>2020-06-18T06:43:37Z</time>
      </trkpt>
      <trkpt lat="49.71201" lon="0.23059">
        <ele>66.2</ele>
        <time>2020-06-18T06:43:38Z</time>
      </trkpt>
      <trkpt lat="49.71198" lon="0.23064">
        <ele>66.3</ele>
        <time>2020-06-18T06:43:39Z</time>
      </trkpt>
      <trkpt lat="49.71195" lon="0.23069">
        <ele>66.4</ele>
        <time>2020-06-18T06:43:40Z</time>
      </trkpt>
      <trkpt lat="49.71193" lon="0.23074">
        <ele>66.6</ele>
        <time>2020-06-18T06:43:41Z</time>
      </trkpt>
      <trkpt lat="49.71192" lon="0.2308">
        <ele>66.7</ele>
        <time>2020-06-18T06:43:42Z</time>
      </trkpt>
      <trkpt lat="49.71191" lon="0.23085">
        <ele>66.8</ele>
        <time>2020-06-18T06:43:43Z</time>
      </trkpt>
      <trkpt lat="49.7119" lon="0.23091">
        <ele>66.9</ele>
        <time>2020-06-18T06:43:44Z</time>
      </trkpt>
      <trkpt lat="49.71188" lon="0.23097">
        <ele>67</ele>
        <time>2020-06-18T06:43:45Z</time>
      </trkpt>
      <trkpt lat="49.71187" lon="0.23102">
        <ele>67.1</ele>
        <time>2020-06-18T06:43:46Z</time>
      </trkpt>
      <trkpt lat="49.71186" lon="0.23108">
        <ele>67.3</ele>
        <time>2020-06-18T06:43:47Z</time>
      </trkpt>
      <trkpt lat="49.71186" lon="0.23114">
        <ele>67.4</ele>
        <time>2020-06-18T06:43:48Z</time>
      </trkpt>
      <trkpt lat="49.71185" lon="0.2312">
        <ele>67.5</ele>
        <time>2020-06-18T06:43:49Z</time>
      </trkpt>
      <trkpt lat="49.71184" lon="0.23127">
        <ele>67.7</ele>
        <time>2020-06-18T06:43:50Z</time>
      </trkpt>
      <trkpt lat="49.71183" lon="0.23133">
        <ele>67.8</ele>
        <time>2020-06-18T06:43:51Z</time>
      </trkpt>
      <trkpt lat="49.71183" lon="0.23139">
        <ele>67.9</ele>
        <time>2020-06-18T06:43:52Z</time>
      </trkpt>
      <trkpt lat="49.71183" lon="0.23145">
        <ele>68</ele>
        <time>2020-06-18T06:43:53Z</time>
      </trkpt>
      <trkpt lat="49.71182" lon="0.23151">
        <ele>68.2</ele>
        <time>2020-06-18T06:43:54Z</time>
      </trkpt>
      <trkpt lat="49.71181" lon="0.23158">
        <ele>68.3</ele>
        <time>2020-06-18T06:43:55Z</time>
      </trkpt>
      <trkpt lat="49.7118" lon="0.23164">
        <ele>68.5</ele>
        <time>2020-06-18T06:43:56Z</time>
      </trkpt>
      <trkpt lat="49.7118" lon="0.23171">
        <ele>68.6</ele>
        <time>2020-06-18T06:43:57Z</time>
      </trkpt>
      <trkpt lat="49.7118" lon="0.23177">
        <ele>68.7</ele>
        <time>2020-06-18T06:43:58Z</time>
      </trkpt>
      <trkpt lat="49.71181" lon="0.23184">
        <ele>68.9</ele>
        <time>2020-06-18T06:43:59Z</time>
      </trkpt>
      <trkpt lat="49.71181" lon="0.2319">
        <ele>69</ele>
        <time>2020-06-18T06:44:00Z</time>
      </trkpt>
      <trkpt lat="49.71181" lon="0.23197">
        <ele>69.2</ele>
        <time>2020-06-18T06:44:01Z</time>
      </trkpt>
      <trkpt lat="49.71181" lon="0.23205">
        <ele>69.3</ele>
        <time>2020-06-18T06:44:02Z</time>
      </trkpt>
      <trkpt lat="49.71181" lon="0.23211">
        <ele>69.4</ele>
        <time>2020-06-18T06:44:03Z</time>
      </trkpt>
      <trkpt lat="49.71182" lon="0.23218">
        <ele>69.6</ele>
        <time>2020-06-18T06:44:04Z</time>
      </trkpt>
      <trkpt lat="49.71181" lon="0.23225">
        <ele>69.7</ele>
        <time>2020-06-18T06:44:05Z</time>
      </trkpt>
      <trkpt lat="49.71181" lon="0.23232">
        <ele>69.9</ele>
        <time>2020-06-18T06:44:06Z</time>
      </trkpt>
      <trkpt lat="49.71182" lon="0.23239">
        <ele>70</ele>
        <time>2020-06-18T06:44:07Z</time>
      </trkpt>
      <trkpt lat="49.71183" lon="0.23245">
        <ele>70.2</ele>
        <time>2020-06-18T06:44:08Z</time>
      </trkpt>
      <trkpt lat="49.71184" lon="0.23251">
        <ele>70.3</ele>
        <time>2020-06-18T06:44:09Z</time>
      </trkpt>
      <trkpt lat="49.71185" lon="0.23258">
        <ele>70.5</ele>
        <time>2020-06-18T06:44:10Z</time>
      </trkpt>
      <trkpt lat="49.71185" lon="0.23265">
        <ele>70.6</ele>
        <time>2020-06-18T06:44:11Z</time>
      </trkpt>
      <trkpt lat="49.71186" lon="0.23271">
        <ele>70.8</ele>
        <time>2020-06-18T06:44:12Z</time>
      </trkpt>
      <trkpt lat="49.71187" lon="0.23278">
        <ele>70.9</ele>
        <time>2020-06-18T06:44:13Z</time>
      </trkpt>
      <trkpt lat="49.71188" lon="0.23284">
        <ele>71.1</ele>
        <time>2020-06-18T06:44:14Z</time>
      </trkpt>
      <trkpt lat="49.71188" lon="0.23291">
        <ele>71.2</ele>
        <time>2020-06-18T06:44:15Z</time>
      </trkpt>
      <trkpt lat="49.71188" lon="0.23297">
        <ele>71.4</ele>
        <time>2020-06-18T06:44:16Z</time>
      </trkpt>
      <trkpt lat="49.71189" lon="0.23304">
        <ele>71.6</ele>
        <time>2020-06-18T06:44:17Z</time>
      </trkpt>
      <trkpt lat="49.71191" lon="0.2331">
        <ele>71.7</ele>
        <time>2020-06-18T06:44:18Z</time>
      </trkpt>
      <trkpt lat="49.71192" lon="0.23316">
        <ele>71.9</ele>
        <time>2020-06-18T06:44:19Z</time>
      </trkpt>
      <trkpt lat="49.71194" lon="0.23323">
        <ele>72.1</ele>
        <time>2020-06-18T06:44:20Z</time>
      </trkpt>
      <trkpt lat="49.71195" lon="0.23329">
        <ele>72.3</ele>
        <time>2020-06-18T06:44:21Z</time>
      </trkpt>
      <trkpt lat="49.71197" lon="0.23336">
        <ele>72.4</ele>
        <time>2020-06-18T06:44:22Z</time>
      </trkpt>
      <trkpt lat="49.71199" lon="0.23343">
        <ele>72.5</ele>
        <time>2020-06-18T06:44:23Z</time>
      </trkpt>
      <trkpt lat="49.712" lon="0.23349">
        <ele>72.7</ele>
        <time>2020-06-18T06:44:24Z</time>
      </trkpt>
      <trkpt lat="49.71202" lon="0.23356">
        <ele>72.8</ele>
        <time>2020-06-18T06:44:25Z</time>
      </trkpt>
      <trkpt lat="49.71204" lon="0.23362">
        <ele>73</ele>
        <time>2020-06-18T06:44:26Z</time>
      </trkpt>
      <trkpt lat="49.71206" lon="0.23369">
        <ele>73.1</ele>
        <time>2020-06-18T06:44:27Z</time>
      </trkpt>
      <trkpt lat="49.71207" lon="0.23377">
        <ele>73.3</ele>
        <time>2020-06-18T06:44:28Z</time>
      </trkpt>
      <trkpt lat="49.71209" lon="0.23385">
        <ele>73.5</ele>
        <time>2020-06-18T06:44:29Z</time>
      </trkpt>
      <trkpt lat="49.71211" lon="0.23392">
        <ele>73.7</ele>
        <time>2020-06-18T06:44:30Z</time>
      </trkpt>
      <trkpt lat="49.71212" lon="0.23398">
        <ele>73.9</ele>
        <time>2020-06-18T06:44:31Z</time>
      </trkpt>
      <trkpt lat="49.71213" lon="0.23404">
        <ele>74</ele>
        <time>2020-06-18T06:44:32Z</time>
      </trkpt>
      <trkpt lat="49.71215" lon="0.2341">
        <ele>74.2</ele>
        <time>2020-06-18T06:44:33Z</time>
      </trkpt>
      <trkpt lat="49.71216" lon="0.23416">
        <ele>74.4</ele>
        <time>2020-06-18T06:44:34Z</time>
      </trkpt>
      <trkpt lat="49.71218" lon="0.23422">
        <ele>74.5</ele>
        <time>2020-06-18T06:44:35Z</time>
      </trkpt>
      <trkpt lat="49.7122" lon="0.23427">
        <ele>74.7</ele>
        <time>2020-06-18T06:44:36Z</time>
      </trkpt>
      <trkpt lat="49.71221" lon="0.23432">
        <ele>74.8</ele>
        <time>2020-06-18T06:44:37Z</time>
      </trkpt>
      <trkpt lat="49.71224" lon="0.23438">
        <ele>75</ele>
        <time>2020-06-18T06:44:38Z</time>
      </trkpt>
      <trkpt lat="49.71226" lon="0.23443">
        <ele>75.1</ele>
        <time>2020-06-18T06:44:39Z</time>
      </trkpt>
      <trkpt lat="49.71227" lon="0.23447">
        <ele>75.2</ele>
        <time>2020-06-18T06:44:40Z</time>
      </trkpt>
      <trkpt lat="49.71229" lon="0.23453">
        <ele>75.4</ele>
        <time>2020-06-18T06:44:41Z</time>
      </trkpt>
      <trkpt lat="49.71231" lon="0.23459">
        <ele>75.5</ele>
        <time>2020-06-18T06:44:42Z</time>
      </trkpt>
      <trkpt lat="49.71233" lon="0.23464">
        <ele>75.7</ele>
        <time>2020-06-18T06:44:43Z</time>
      </trkpt>
      <trkpt lat="49.71235" lon="0.23468">
        <ele>75.8</ele>
        <time>2020-06-18T06:44:44Z</time>
      </trkpt>
      <trkpt lat="49.71237" lon="0.23473">
        <ele>75.9</ele>
        <time>2020-06-18T06:44:45Z</time>
      </trkpt>
      <trkpt lat="49.71239" lon="0.23478">
        <ele>76.1</ele>
        <time>2020-06-18T06:44:46Z</time>
      </trkpt>
      <trkpt lat="49.71241" lon="0.23482">
        <ele>76.2</ele>
        <time>2020-06-18T06:44:47Z</time>
      </trkpt>
      <trkpt lat="49.71243" lon="0.23488">
        <ele>76.3</ele>
        <time>2020-06-18T06:44:48Z</time>
      </trkpt>
      <trkpt lat="49.71245" lon="0.23494">
        <ele>76.5</ele>
        <time>2020-06-18T06:44:49Z</time>
      </trkpt>
      <trkpt lat="49.71246" lon="0.23501">
        <ele>76.6</ele>
        <time>2020-06-18T06:44:50Z</time>
      </trkpt>
      <trkpt lat="49.71247" lon="0.23509">
        <ele>76.8</ele>
        <time>2020-06-18T06:44:51Z</time>
      </trkpt>
      <trkpt lat="49.7125" lon="0.23515">
        <ele>77</ele>
        <time>2020-06-18T06:44:52Z</time>
      </trkpt>
      <trkpt lat="49.71251" lon="0.23521">
        <ele>77.1</ele>
        <time>2020-06-18T06:44:53Z</time>
      </trkpt>
      <trkpt lat="49.71253" lon="0.23527">
        <ele>77.3</ele>
        <time>2020-06-18T06:44:54Z</time>
      </trkpt>
      <trkpt lat="49.71254" lon="0.23533">
        <ele>77.5</ele>
        <time>2020-06-18T06:44:55Z</time>
      </trkpt>
      <trkpt lat="49.71256" lon="0.23541">
        <ele>77.8</ele>
        <time>2020-06-18T06:44:56Z</time>
      </trkpt>
      <trkpt lat="49.71257" lon="0.23547">
        <ele>78</ele>
        <time>2020-06-18T06:44:57Z</time>
      </trkpt>
      <trkpt lat="49.71257" lon="0.23554">
        <ele>78.2</ele>
        <time>2020-06-18T06:44:58Z</time>
      </trkpt>
      <trkpt lat="49.71257" lon="0.23561">
        <ele>78.4</ele>
        <time>2020-06-18T06:44:59Z</time>
      </trkpt>
      <trkpt lat="49.71257" lon="0.23567">
        <ele>78.6</ele>
        <time>2020-06-18T06:45:00Z</time>
      </trkpt>
      <trkpt lat="49.71258" lon="0.23574">
        <ele>78.7</ele>
        <time>2020-06-18T06:45:01Z</time>
      </trkpt>
      <trkpt lat="49.71259" lon="0.2358">
        <ele>78.9</ele>
        <time>2020-06-18T06:45:02Z</time>
      </trkpt>
      <trkpt lat="49.7126" lon="0.23586">
        <ele>79.1</ele>
        <time>2020-06-18T06:45:03Z</time>
      </trkpt>
      <trkpt lat="49.71261" lon="0.23591">
        <ele>79.2</ele>
        <time>2020-06-18T06:45:04Z</time>
      </trkpt>
      <trkpt lat="49.71261" lon="0.23598">
        <ele>79.4</ele>
        <time>2020-06-18T06:45:05Z</time>
      </trkpt>
      <trkpt lat="49.71263" lon="0.23606">
        <ele>79.7</ele>
        <time>2020-06-18T06:45:06Z</time>
      </trkpt>
      <trkpt lat="49.71264" lon="0.23612">
        <ele>79.8</ele>
        <time>2020-06-18T06:45:07Z</time>
      </trkpt>
      <trkpt lat="49.71264" lon="0.23617">
        <ele>79.9</ele>
        <time>2020-06-18T06:45:08Z</time>
      </trkpt>
      <trkpt lat="49.71265" lon="0.23622">
        <ele>80.1</ele>
        <time>2020-06-18T06:45:09Z</time>
      </trkpt>
      <trkpt lat="49.71266" lon="0.23627">
        <ele>80.2</ele>
        <time>2020-06-18T06:45:10Z</time>
      </trkpt>
      <trkpt lat="49.71267" lon="0.23634">
        <ele>80.4</ele>
        <time>2020-06-18T06:45:11Z</time>
      </trkpt>
      <trkpt lat="49.71269" lon="0.23641">
        <ele>80.6</ele>
        <time>2020-06-18T06:45:12Z</time>
      </trkpt>
      <trkpt lat="49.71269" lon="0.23648">
        <ele>80.8</ele>
        <time>2020-06-18T06:45:13Z</time>
      </trkpt>
      <trkpt lat="49.7127" lon="0.23654">
        <ele>80.9</ele>
        <time>2020-06-18T06:45:14Z</time>
      </trkpt>
      <trkpt lat="49.7127" lon="0.23659">
        <ele>81</ele>
        <time>2020-06-18T06:45:15Z</time>
      </trkpt>
      <trkpt lat="49.7127" lon="0.23666">
        <ele>81.2</ele>
        <time>2020-06-18T06:45:16Z</time>
      </trkpt>
      <trkpt lat="49.7127" lon="0.23671">
        <ele>81.3</ele>
        <time>2020-06-18T06:45:17Z</time>
      </trkpt>
      <trkpt lat="49.71271" lon="0.23677">
        <ele>81.4</ele>
        <time>2020-06-18T06:45:18Z</time>
      </trkpt>
      <trkpt lat="49.71271" lon="0.23683">
        <ele>81.6</ele>
        <time>2020-06-18T06:45:19Z</time>
      </trkpt>
      <trkpt lat="49.71271" lon="0.2369">
        <ele>81.7</ele>
        <time>2020-06-18T06:45:20Z</time>
      </trkpt>
      <trkpt lat="49.71272" lon="0.23697">
        <ele>81.9</ele>
        <time>2020-06-18T06:45:21Z</time>
      </trkpt>
      <trkpt lat="49.71273" lon="0.23704">
        <ele>82.1</ele>
        <time>2020-06-18T06:45:22Z</time>
      </trkpt>
      <trkpt lat="49.71273" lon="0.2371">
        <ele>82.2</ele>
        <time>2020-06-18T06:45:23Z</time>
      </trkpt>
      <trkpt lat="49.71274" lon="0.23716">
        <ele>82.4</ele>
        <time>2020-06-18T06:45:24Z</time>
      </trkpt>
      <trkpt lat="49.71275" lon="0.23722">
        <ele>82.6</ele>
        <time>2020-06-18T06:45:25Z</time>
      </trkpt>
      <trkpt lat="49.71275" lon="0.23728">
        <ele>82.7</ele>
        <time>2020-06-18T06:45:26Z</time>
      </trkpt>
      <trkpt lat="49.71276" lon="0.23734">
        <ele>82.9</ele>
        <time>2020-06-18T06:45:27Z</time>
      </trkpt>
      <trkpt lat="49.71276" lon="0.2374">
        <ele>83.1</ele>
        <time>2020-06-18T06:45:28Z</time>
      </trkpt>
      <trkpt lat="49.71277" lon="0.23746">
        <ele>83.2</ele>
        <time>2020-06-18T06:45:29Z</time>
      </trkpt>
      <trkpt lat="49.71278" lon="0.23753">
        <ele>83.4</ele>
        <time>2020-06-18T06:45:30Z</time>
      </trkpt>
      <trkpt lat="49.71279" lon="0.2376">
        <ele>83.5</ele>
        <time>2020-06-18T06:45:31Z</time>
      </trkpt>
      <trkpt lat="49.7128" lon="0.23766">
        <ele>83.7</ele>
        <time>2020-06-18T06:45:32Z</time>
      </trkpt>
      <trkpt lat="49.71282" lon="0.23771">
        <ele>83.9</ele>
        <time>2020-06-18T06:45:33Z</time>
      </trkpt>
      <trkpt lat="49.71284" lon="0.23776">
        <ele>84</ele>
        <time>2020-06-18T06:45:34Z</time>
      </trkpt>
      <trkpt lat="49.71286" lon="0.2378">
        <ele>84.1</ele>
        <time>2020-06-18T06:45:35Z</time>
      </trkpt>
      <trkpt lat="49.71288" lon="0.23784">
        <ele>84.3</ele>
        <time>2020-06-18T06:45:36Z</time>
      </trkpt>
      <trkpt lat="49.7129" lon="0.23789">
        <ele>84.4</ele>
        <time>2020-06-18T06:45:37Z</time>
      </trkpt>
      <trkpt lat="49.71292" lon="0.23793">
        <ele>84.6</ele>
        <time>2020-06-18T06:45:38Z</time>
      </trkpt>
      <trkpt lat="49.71295" lon="0.23796">
        <ele>84.7</ele>
        <time>2020-06-18T06:45:39Z</time>
      </trkpt>
      <trkpt lat="49.71298" lon="0.238">
        <ele>84.8</ele>
        <time>2020-06-18T06:45:40Z</time>
      </trkpt>
      <trkpt lat="49.71301" lon="0.23804">
        <ele>85</ele>
        <time>2020-06-18T06:45:41Z</time>
      </trkpt>
      <trkpt lat="49.71304" lon="0.23808">
        <ele>85.1</ele>
        <time>2020-06-18T06:45:42Z</time>
      </trkpt>
      <trkpt lat="49.71307" lon="0.23811">
        <ele>85.3</ele>
        <time>2020-06-18T06:45:43Z</time>
      </trkpt>
      <trkpt lat="49.7131" lon="0.23813">
        <ele>85.4</ele>
        <time>2020-06-18T06:45:44Z</time>
      </trkpt>
      <trkpt lat="49.71314" lon="0.23816">
        <ele>85.6</ele>
        <time>2020-06-18T06:45:45Z</time>
      </trkpt>
      <trkpt lat="49.71317" lon="0.23818">
        <ele>85.7</ele>
        <time>2020-06-18T06:45:46Z</time>
      </trkpt>
      <trkpt lat="49.71322" lon="0.23818">
        <ele>85.9</ele>
        <time>2020-06-18T06:45:47Z</time>
      </trkpt>
      <trkpt lat="49.71325" lon="0.23818">
        <ele>86</ele>
        <time>2020-06-18T06:45:48Z</time>
      </trkpt>
      <trkpt lat="49.71329" lon="0.23819">
        <ele>86.2</ele>
        <time>2020-06-18T06:45:49Z</time>
      </trkpt>
      <trkpt lat="49.71332" lon="0.2382">
        <ele>86.3</ele>
        <time>2020-06-18T06:45:50Z</time>
      </trkpt>
      <trkpt lat="49.71335" lon="0.2382">
        <ele>86.4</ele>
        <time>2020-06-18T06:45:51Z</time>
      </trkpt>
      <trkpt lat="49.71339" lon="0.2382">
        <ele>86.6</ele>
        <time>2020-06-18T06:45:52Z</time>
      </trkpt>
      <trkpt lat="49.71343" lon="0.2382">
        <ele>86.7</ele>
        <time>2020-06-18T06:45:53Z</time>
      </trkpt>
      <trkpt lat="49.71347" lon="0.23819">
        <ele>86.8</ele>
        <time>2020-06-18T06:45:54Z</time>
      </trkpt>
      <trkpt lat="49.7135" lon="0.23819">
        <ele>87</ele>
        <time>2020-06-18T06:45:55Z</time>
      </trkpt>
      <trkpt lat="49.71354" lon="0.23818">
        <ele>87.1</ele>
        <time>2020-06-18T06:45:56Z</time>
      </trkpt>
      <trkpt lat="49.71358" lon="0.23818">
        <ele>87.2</ele>
        <time>2020-06-18T06:45:57Z</time>
      </trkpt>
      <trkpt lat="49.71363" lon="0.23817">
        <ele>87.3</ele>
        <time>2020-06-18T06:45:58Z</time>
      </trkpt>
      <trkpt lat="49.71366" lon="0.23816">
        <ele>87.4</ele>
        <time>2020-06-18T06:45:59Z</time>
      </trkpt>
      <trkpt lat="49.7137" lon="0.23816">
        <ele>87.5</ele>
        <time>2020-06-18T06:46:00Z</time>
      </trkpt>
      <trkpt lat="49.71374" lon="0.23815">
        <ele>87.6</ele>
        <time>2020-06-18T06:46:01Z</time>
      </trkpt>
      <trkpt lat="49.71378" lon="0.23814">
        <ele>87.8</ele>
        <time>2020-06-18T06:46:02Z</time>
      </trkpt>
      <trkpt lat="49.71382" lon="0.23814">
        <ele>87.9</ele>
        <time>2020-06-18T06:46:03Z</time>
      </trkpt>
      <trkpt lat="49.71386" lon="0.23815">
        <ele>88</ele>
        <time>2020-06-18T06:46:04Z</time>
      </trkpt>
      <trkpt lat="49.7139" lon="0.23816">
        <ele>88.1</ele>
        <time>2020-06-18T06:46:05Z</time>
      </trkpt>
      <trkpt lat="49.71396" lon="0.23817">
        <ele>88.3</ele>
        <time>2020-06-18T06:46:06Z</time>
      </trkpt>
      <trkpt lat="49.71401" lon="0.23819">
        <ele>88.5</ele>
        <time>2020-06-18T06:46:07Z</time>
      </trkpt>
      <trkpt lat="49.71405" lon="0.23821">
        <ele>88.6</ele>
        <time>2020-06-18T06:46:08Z</time>
      </trkpt>
      <trkpt lat="49.71409" lon="0.23823">
        <ele>88.7</ele>
        <time>2020-06-18T06:46:09Z</time>
      </trkpt>
      <trkpt lat="49.71413" lon="0.23826">
        <ele>88.8</ele>
        <time>2020-06-18T06:46:10Z</time>
      </trkpt>
      <trkpt lat="49.71416" lon="0.23829">
        <ele>88.9</ele>
        <time>2020-06-18T06:46:11Z</time>
      </trkpt>
      <trkpt lat="49.71419" lon="0.23832">
        <ele>89</ele>
        <time>2020-06-18T06:46:12Z</time>
      </trkpt>
      <trkpt lat="49.71422" lon="0.23835">
        <ele>89.1</ele>
        <time>2020-06-18T06:46:13Z</time>
      </trkpt>
      <trkpt lat="49.71427" lon="0.23839">
        <ele>89.2</ele>
        <time>2020-06-18T06:46:14Z</time>
      </trkpt>
      <trkpt lat="49.7143" lon="0.23842">
        <ele>89.3</ele>
        <time>2020-06-18T06:46:15Z</time>
      </trkpt>
      <trkpt lat="49.71434" lon="0.23846">
        <ele>89.4</ele>
        <time>2020-06-18T06:46:16Z</time>
      </trkpt>
      <trkpt lat="49.71436" lon="0.2385">
        <ele>89.5</ele>
        <time>2020-06-18T06:46:17Z</time>
      </trkpt>
      <trkpt lat="49.71439" lon="0.23855">
        <ele>89.6</ele>
        <time>2020-06-18T06:46:18Z</time>
      </trkpt>
      <trkpt lat="49.71442" lon="0.2386">
        <ele>89.7</ele>
        <time>2020-06-18T06:46:19Z</time>
      </trkpt>
      <trkpt lat="49.71444" lon="0.23865">
        <ele>89.8</ele>
        <time>2020-06-18T06:46:20Z</time>
      </trkpt>
      <trkpt lat="49.71447" lon="0.2387">
        <ele>89.9</ele>
        <time>2020-06-18T06:46:21Z</time>
      </trkpt>
      <trkpt lat="49.71449" lon="0.23875">
        <ele>90</ele>
        <time>2020-06-18T06:46:22Z</time>
      </trkpt>
      <trkpt lat="49.71451" lon="0.23881">
        <ele>90.1</ele>
        <time>2020-06-18T06:46:23Z</time>
      </trkpt>
      <trkpt lat="49.71454" lon="0.23886">
        <ele>90.3</ele>
        <time>2020-06-18T06:46:24Z</time>
      </trkpt>
      <trkpt lat="49.71456" lon="0.23892">
        <ele>90.4</ele>
        <time>2020-06-18T06:46:25Z</time>
      </trkpt>
      <trkpt lat="49.7146" lon="0.23897">
        <ele>90.5</ele>
        <time>2020-06-18T06:46:26Z</time>
      </trkpt>
      <trkpt lat="49.71462" lon="0.23903">
        <ele>90.7</ele>
        <time>2020-06-18T06:46:27Z</time>
      </trkpt>
      <trkpt lat="49.71465" lon="0.23907">
        <ele>90.8</ele>
        <time>2020-06-18T06:46:28Z</time>
      </trkpt>
      <trkpt lat="49.71467" lon="0.23912">
        <ele>90.9</ele>
        <time>2020-06-18T06:46:29Z</time>
      </trkpt>
      <trkpt lat="49.7147" lon="0.23917">
        <ele>91</ele>
        <time>2020-06-18T06:46:30Z</time>
      </trkpt>
      <trkpt lat="49.71473" lon="0.23922">
        <ele>91.1</ele>
        <time>2020-06-18T06:46:31Z</time>
      </trkpt>
      <trkpt lat="49.71474" lon="0.23928">
        <ele>91.2</ele>
        <time>2020-06-18T06:46:32Z</time>
      </trkpt>
      <trkpt lat="49.71477" lon="0.23934">
        <ele>91.3</ele>
        <time>2020-06-18T06:46:33Z</time>
      </trkpt>
      <trkpt lat="49.71479" lon="0.23942">
        <ele>91.4</ele>
        <time>2020-06-18T06:46:34Z</time>
      </trkpt>
      <trkpt lat="49.7148" lon="0.23947">
        <ele>91.5</ele>
        <time>2020-06-18T06:46:35Z</time>
      </trkpt>
      <trkpt lat="49.71482" lon="0.23954">
        <ele>91.6</ele>
        <time>2020-06-18T06:46:36Z</time>
      </trkpt>
      <trkpt lat="49.71484" lon="0.23959">
        <ele>91.7</ele>
        <time>2020-06-18T06:46:37Z</time>
      </trkpt>
      <trkpt lat="49.71485" lon="0.23964">
        <ele>91.8</ele>
        <time>2020-06-18T06:46:38Z</time>
      </trkpt>
      <trkpt lat="49.71486" lon="0.23969">
        <ele>91.9</ele>
        <time>2020-06-18T06:46:39Z</time>
      </trkpt>
      <trkpt lat="49.71489" lon="0.23976">
        <ele>92</ele>
        <time>2020-06-18T06:46:40Z</time>
      </trkpt>
      <trkpt lat="49.7149" lon="0.23981">
        <ele>92.1</ele>
        <time>2020-06-18T06:46:41Z</time>
      </trkpt>
      <trkpt lat="49.71491" lon="0.23986">
        <ele>92.1</ele>
        <time>2020-06-18T06:46:42Z</time>
      </trkpt>
      <trkpt lat="49.71493" lon="0.23991">
        <ele>92.2</ele>
        <time>2020-06-18T06:46:43Z</time>
      </trkpt>
      <trkpt lat="49.71494" lon="0.23996">
        <ele>92.2</ele>
        <time>2020-06-18T06:46:44Z</time>
      </trkpt>
      <trkpt lat="49.71494" lon="0.23997">
        <ele>92.2</ele>
        <time>2020-06-18T06:46:45Z</time>
      </trkpt>
      <trkpt lat="49.71495" lon="0.23997">
        <ele>92.3</ele>
        <time>2020-06-18T06:46:46Z</time>
      </trkpt>
      <trkpt lat="49.71496" lon="0.23996">
        <ele>92.3</ele>
        <time>2020-06-18T06:46:47Z</time>
      </trkpt>
      <trkpt lat="49.71496" lon="0.23994">
        <ele>92.3</ele>
        <time>2020-06-18T06:46:48Z</time>
      </trkpt>
      <trkpt lat="49.71497" lon="0.23992">
        <ele>92.3</ele>
        <time>2020-06-18T06:46:49Z</time>
      </trkpt>
      <trkpt lat="49.71498" lon="0.23991">
        <ele>92.3</ele>
        <time>2020-06-18T06:46:50Z</time>
      </trkpt>
      <trkpt lat="49.71499" lon="0.23991">
        <ele>92.3</ele>
        <time>2020-06-18T06:46:51Z</time>
      </trkpt>
      <trkpt lat="49.71499" lon="0.2399">
        <ele>92.3</ele>
        <time>2020-06-18T06:46:52Z</time>
      </trkpt>
      <trkpt lat="49.715" lon="0.23989">
        <ele>92.3</ele>
        <time>2020-06-18T06:46:53Z</time>
      </trkpt>
      <trkpt lat="49.71498" lon="0.23991">
        <ele>92.4</ele>
        <time>2020-06-18T06:46:54Z</time>
      </trkpt>
      <trkpt lat="49.71497" lon="0.23993">
        <ele>92.4</ele>
        <time>2020-06-18T06:46:55Z</time>
      </trkpt>
      <trkpt lat="49.71498" lon="0.23997">
        <ele>92.4</ele>
        <time>2020-06-18T06:46:56Z</time>
      </trkpt>
      <trkpt lat="49.71499" lon="0.23998">
        <ele>92.4</ele>
        <time>2020-06-18T06:46:57Z</time>
      </trkpt>
      <trkpt lat="49.715" lon="0.24">
        <ele>92.5</ele>
        <time>2020-06-18T06:47:09Z</time>
      </trkpt>
      <trkpt lat="49.715" lon="0.24001">
        <ele>92.5</ele>
        <time>2020-06-18T06:47:10Z</time>
      </trkpt>
      <trkpt lat="49.71501" lon="0.24003">
        <ele>92.5</ele>
        <time>2020-06-18T06:47:11Z</time>
      </trkpt>
      <trkpt lat="49.71503" lon="0.24007">
        <ele>92.6</ele>
        <time>2020-06-18T06:47:12Z</time>
      </trkpt>
      <trkpt lat="49.71504" lon="0.24008">
        <ele>92.6</ele>
        <time>2020-06-18T06:47:13Z</time>
      </trkpt>
      <trkpt lat="49.71506" lon="0.24012">
        <ele>92.6</ele>
        <time>2020-06-18T06:47:14Z</time>
      </trkpt>
      <trkpt lat="49.71507" lon="0.24016">
        <ele>92.7</ele>
        <time>2020-06-18T06:47:15Z</time>
      </trkpt>
      <trkpt lat="49.71508" lon="0.2402">
        <ele>92.7</ele>
        <time>2020-06-18T06:47:16Z</time>
      </trkpt>
      <trkpt lat="49.7151" lon="0.24025">
        <ele>92.8</ele>
        <time>2020-06-18T06:47:17Z</time>
      </trkpt>
      <trkpt lat="49.71511" lon="0.24029">
        <ele>92.8</ele>
        <time>2020-06-18T06:47:18Z</time>
      </trkpt>
      <trkpt lat="49.71512" lon="0.24034">
        <ele>92.9</ele>
        <time>2020-06-18T06:47:19Z</time>
      </trkpt>
      <trkpt lat="49.71513" lon="0.2404">
        <ele>92.9</ele>
        <time>2020-06-18T06:47:20Z</time>
      </trkpt>
      <trkpt lat="49.71514" lon="0.24046">
        <ele>93</ele>
        <time>2020-06-18T06:47:21Z</time>
      </trkpt>
      <trkpt lat="49.71516" lon="0.24052">
        <ele>93</ele>
        <time>2020-06-18T06:47:22Z</time>
      </trkpt>
      <trkpt lat="49.71516" lon="0.24057">
        <ele>93</ele>
        <time>2020-06-18T06:47:23Z</time>
      </trkpt>
      <trkpt lat="49.71518" lon="0.24063">
        <ele>93.1</ele>
        <time>2020-06-18T06:47:24Z</time>
      </trkpt>
      <trkpt lat="49.7152" lon="0.24068">
        <ele>93.1</ele>
        <time>2020-06-18T06:47:25Z</time>
      </trkpt>
      <trkpt lat="49.71522" lon="0.24074">
        <ele>93.1</ele>
        <time>2020-06-18T06:47:26Z</time>
      </trkpt>
      <trkpt lat="49.71523" lon="0.24081">
        <ele>93.2</ele>
        <time>2020-06-18T06:47:27Z</time>
      </trkpt>
      <trkpt lat="49.71524" lon="0.24088">
        <ele>93.2</ele>
        <time>2020-06-18T06:47:28Z</time>
      </trkpt>
      <trkpt lat="49.71526" lon="0.24095">
        <ele>93.3</ele>
        <time>2020-06-18T06:47:29Z</time>
      </trkpt>
      <trkpt lat="49.71527" lon="0.24101">
        <ele>93.3</ele>
        <time>2020-06-18T06:47:30Z</time>
      </trkpt>
      <trkpt lat="49.7153" lon="0.24109">
        <ele>93.3</ele>
        <time>2020-06-18T06:47:31Z</time>
      </trkpt>
      <trkpt lat="49.71531" lon="0.24116">
        <ele>93.4</ele>
        <time>2020-06-18T06:47:32Z</time>
      </trkpt>
      <trkpt lat="49.71533" lon="0.24121">
        <ele>93.4</ele>
        <time>2020-06-18T06:47:33Z</time>
      </trkpt>
      <trkpt lat="49.71534" lon="0.24126">
        <ele>93.5</ele>
        <time>2020-06-18T06:47:34Z</time>
      </trkpt>
      <trkpt lat="49.71536" lon="0.24131">
        <ele>93.5</ele>
        <time>2020-06-18T06:47:35Z</time>
      </trkpt>
      <trkpt lat="49.71538" lon="0.24139">
        <ele>93.6</ele>
        <time>2020-06-18T06:47:36Z</time>
      </trkpt>
      <trkpt lat="49.71539" lon="0.24145">
        <ele>93.7</ele>
        <time>2020-06-18T06:47:37Z</time>
      </trkpt>
      <trkpt lat="49.71541" lon="0.24153">
        <ele>93.7</ele>
        <time>2020-06-18T06:47:38Z</time>
      </trkpt>
      <trkpt lat="49.71542" lon="0.2416">
        <ele>93.7</ele>
        <time>2020-06-18T06:47:39Z</time>
      </trkpt>
      <trkpt lat="49.71544" lon="0.24167">
        <ele>93.7</ele>
        <time>2020-06-18T06:47:40Z</time>
      </trkpt>
      <trkpt lat="49.71546" lon="0.24174">
        <ele>93.8</ele>
        <time>2020-06-18T06:47:41Z</time>
      </trkpt>
      <trkpt lat="49.71547" lon="0.24181">
        <ele>93.8</ele>
        <time>2020-06-18T06:47:42Z</time>
      </trkpt>
      <trkpt lat="49.71549" lon="0.24189">
        <ele>93.8</ele>
        <time>2020-06-18T06:47:43Z</time>
      </trkpt>
      <trkpt lat="49.7155" lon="0.24197">
        <ele>93.9</ele>
        <time>2020-06-18T06:47:44Z</time>
      </trkpt>
      <trkpt lat="49.71552" lon="0.24206">
        <ele>94</ele>
        <time>2020-06-18T06:47:45Z</time>
      </trkpt>
      <trkpt lat="49.71553" lon="0.24212">
        <ele>94.1</ele>
        <time>2020-06-18T06:47:46Z</time>
      </trkpt>
      <trkpt lat="49.71554" lon="0.24218">
        <ele>94.2</ele>
        <time>2020-06-18T06:47:47Z</time>
      </trkpt>
      <trkpt lat="49.71555" lon="0.24224">
        <ele>94.3</ele>
        <time>2020-06-18T06:47:48Z</time>
      </trkpt>
      <trkpt lat="49.71556" lon="0.2423">
        <ele>94.4</ele>
        <time>2020-06-18T06:47:49Z</time>
      </trkpt>
      <trkpt lat="49.71557" lon="0.24239">
        <ele>94.6</ele>
        <time>2020-06-18T06:47:50Z</time>
      </trkpt>
      <trkpt lat="49.71557" lon="0.24244">
        <ele>94.7</ele>
        <time>2020-06-18T06:47:51Z</time>
      </trkpt>
      <trkpt lat="49.71557" lon="0.24251">
        <ele>94.8</ele>
        <time>2020-06-18T06:47:52Z</time>
      </trkpt>
      <trkpt lat="49.71558" lon="0.24258">
        <ele>95</ele>
        <time>2020-06-18T06:47:53Z</time>
      </trkpt>
      <trkpt lat="49.71559" lon="0.24265">
        <ele>95.1</ele>
        <time>2020-06-18T06:47:54Z</time>
      </trkpt>
      <trkpt lat="49.71561" lon="0.24271">
        <ele>95.2</ele>
        <time>2020-06-18T06:47:55Z</time>
      </trkpt>
      <trkpt lat="49.71561" lon="0.24278">
        <ele>95.4</ele>
        <time>2020-06-18T06:47:56Z</time>
      </trkpt>
      <trkpt lat="49.71561" lon="0.24282">
        <ele>95.4</ele>
        <time>2020-06-18T06:47:57Z</time>
      </trkpt>
      <trkpt lat="49.71561" lon="0.24287">
        <ele>95.5</ele>
        <time>2020-06-18T06:47:58Z</time>
      </trkpt>
      <trkpt lat="49.71561" lon="0.24293">
        <ele>95.6</ele>
        <time>2020-06-18T06:47:59Z</time>
      </trkpt>
      <trkpt lat="49.71561" lon="0.243">
        <ele>95.7</ele>
        <time>2020-06-18T06:48:00Z</time>
      </trkpt>
      <trkpt lat="49.71561" lon="0.24306">
        <ele>95.8</ele>
        <time>2020-06-18T06:48:01Z</time>
      </trkpt>
      <trkpt lat="49.71562" lon="0.24311">
        <ele>95.9</ele>
        <time>2020-06-18T06:48:02Z</time>
      </trkpt>
      <trkpt lat="49.71563" lon="0.24317">
        <ele>96</ele>
        <time>2020-06-18T06:48:03Z</time>
      </trkpt>
      <trkpt lat="49.71563" lon="0.24324">
        <ele>96.2</ele>
        <time>2020-06-18T06:48:04Z</time>
      </trkpt>
      <trkpt lat="49.71562" lon="0.24331">
        <ele>96.3</ele>
        <time>2020-06-18T06:48:05Z</time>
      </trkpt>
      <trkpt lat="49.71562" lon="0.24338">
        <ele>96.3</ele>
        <time>2020-06-18T06:48:06Z</time>
      </trkpt>
      <trkpt lat="49.71563" lon="0.24345">
        <ele>96.4</ele>
        <time>2020-06-18T06:48:07Z</time>
      </trkpt>
      <trkpt lat="49.71563" lon="0.24352">
        <ele>96.5</ele>
        <time>2020-06-18T06:48:08Z</time>
      </trkpt>
      <trkpt lat="49.71564" lon="0.24359">
        <ele>96.5</ele>
        <time>2020-06-18T06:48:09Z</time>
      </trkpt>
      <trkpt lat="49.71564" lon="0.24365">
        <ele>96.6</ele>
        <time>2020-06-18T06:48:10Z</time>
      </trkpt>
      <trkpt lat="49.71565" lon="0.24372">
        <ele>96.7</ele>
        <time>2020-06-18T06:48:11Z</time>
      </trkpt>
      <trkpt lat="49.71566" lon="0.24377">
        <ele>96.7</ele>
        <time>2020-06-18T06:48:12Z</time>
      </trkpt>
      <trkpt lat="49.71567" lon="0.24385">
        <ele>96.7</ele>
        <time>2020-06-18T06:48:13Z</time>
      </trkpt>
      <trkpt lat="49.71568" lon="0.24392">
        <ele>96.7</ele>
        <time>2020-06-18T06:48:14Z</time>
      </trkpt>
      <trkpt lat="49.7157" lon="0.24401">
        <ele>96.7</ele>
        <time>2020-06-18T06:48:15Z</time>
      </trkpt>
      <trkpt lat="49.71571" lon="0.24408">
        <ele>96.7</ele>
        <time>2020-06-18T06:48:16Z</time>
      </trkpt>
      <trkpt lat="49.71572" lon="0.24416">
        <ele>96.7</ele>
        <time>2020-06-18T06:48:17Z</time>
      </trkpt>
      <trkpt lat="49.71574" lon="0.24423">
        <ele>96.8</ele>
        <time>2020-06-18T06:48:18Z</time>
      </trkpt>
      <trkpt lat="49.71575" lon="0.2443">
        <ele>96.8</ele>
        <time>2020-06-18T06:48:19Z</time>
      </trkpt>
      <trkpt lat="49.71575" lon="0.24438">
        <ele>96.8</ele>
        <time>2020-06-18T06:48:20Z</time>
      </trkpt>
      <trkpt lat="49.71577" lon="0.24447">
        <ele>96.9</ele>
        <time>2020-06-18T06:48:21Z</time>
      </trkpt>
      <trkpt lat="49.71578" lon="0.24455">
        <ele>96.9</ele>
        <time>2020-06-18T06:48:22Z</time>
      </trkpt>
      <trkpt lat="49.71579" lon="0.24463">
        <ele>96.9</ele>
        <time>2020-06-18T06:48:23Z</time>
      </trkpt>
      <trkpt lat="49.7158" lon="0.2447">
        <ele>96.9</ele>
        <time>2020-06-18T06:48:24Z</time>
      </trkpt>
      <trkpt lat="49.71581" lon="0.24478">
        <ele>96.9</ele>
        <time>2020-06-18T06:48:25Z</time>
      </trkpt>
      <trkpt lat="49.71582" lon="0.24487">
        <ele>96.9</ele>
        <time>2020-06-18T06:48:26Z</time>
      </trkpt>
      <trkpt lat="49.71583" lon="0.24494">
        <ele>96.9</ele>
        <time>2020-06-18T06:48:27Z</time>
      </trkpt>
      <trkpt lat="49.71583" lon="0.24504">
        <ele>96.9</ele>
        <time>2020-06-18T06:48:28Z</time>
      </trkpt>
      <trkpt lat="49.71584" lon="0.24513">
        <ele>96.9</ele>
        <time>2020-06-18T06:48:29Z</time>
      </trkpt>
      <trkpt lat="49.71584" lon="0.24522">
        <ele>97</ele>
        <time>2020-06-18T06:48:30Z</time>
      </trkpt>
      <trkpt lat="49.71585" lon="0.24531">
        <ele>97</ele>
        <time>2020-06-18T06:48:31Z</time>
      </trkpt>
      <trkpt lat="49.71587" lon="0.24539">
        <ele>97.1</ele>
        <time>2020-06-18T06:48:32Z</time>
      </trkpt>
      <trkpt lat="49.71589" lon="0.24547">
        <ele>97.2</ele>
        <time>2020-06-18T06:48:33Z</time>
      </trkpt>
      <trkpt lat="49.71591" lon="0.24554">
        <ele>97.2</ele>
        <time>2020-06-18T06:48:34Z</time>
      </trkpt>
      <trkpt lat="49.71593" lon="0.24563">
        <ele>97.3</ele>
        <time>2020-06-18T06:48:35Z</time>
      </trkpt>
      <trkpt lat="49.71596" lon="0.2457">
        <ele>97.3</ele>
        <time>2020-06-18T06:48:36Z</time>
      </trkpt>
      <trkpt lat="49.716" lon="0.24575">
        <ele>97.3</ele>
        <time>2020-06-18T06:48:37Z</time>
      </trkpt>
      <trkpt lat="49.71603" lon="0.24582">
        <ele>97.3</ele>
        <time>2020-06-18T06:48:38Z</time>
      </trkpt>
      <trkpt lat="49.71606" lon="0.24587">
        <ele>97.3</ele>
        <time>2020-06-18T06:48:39Z</time>
      </trkpt>
      <trkpt lat="49.71608" lon="0.24593">
        <ele>97.4</ele>
        <time>2020-06-18T06:48:40Z</time>
      </trkpt>
      <trkpt lat="49.71611" lon="0.24599">
        <ele>97.4</ele>
        <time>2020-06-18T06:48:41Z</time>
      </trkpt>
      <trkpt lat="49.71615" lon="0.24606">
        <ele>97.5</ele>
        <time>2020-06-18T06:48:42Z</time>
      </trkpt>
      <trkpt lat="49.71618" lon="0.24615">
        <ele>97.5</ele>
        <time>2020-06-18T06:48:43Z</time>
      </trkpt>
      <trkpt lat="49.71621" lon="0.24621">
        <ele>97.5</ele>
        <time>2020-06-18T06:48:44Z</time>
      </trkpt>
      <trkpt lat="49.71624" lon="0.24629">
        <ele>97.6</ele>
        <time>2020-06-18T06:48:45Z</time>
      </trkpt>
      <trkpt lat="49.71627" lon="0.24636">
        <ele>97.6</ele>
        <time>2020-06-18T06:48:46Z</time>
      </trkpt>
      <trkpt lat="49.71629" lon="0.24642">
        <ele>97.6</ele>
        <time>2020-06-18T06:48:47Z</time>
      </trkpt>
      <trkpt lat="49.71632" lon="0.24649">
        <ele>97.6</ele>
        <time>2020-06-18T06:48:48Z</time>
      </trkpt>
      <trkpt lat="49.71635" lon="0.24655">
        <ele>97.6</ele>
        <time>2020-06-18T06:48:49Z</time>
      </trkpt>
      <trkpt lat="49.71638" lon="0.24663">
        <ele>97.6</ele>
        <time>2020-06-18T06:48:50Z</time>
      </trkpt>
      <trkpt lat="49.7164" lon="0.24671">
        <ele>97.6</ele>
        <time>2020-06-18T06:48:51Z</time>
      </trkpt>
      <trkpt lat="49.71642" lon="0.24678">
        <ele>97.6</ele>
        <time>2020-06-18T06:48:52Z</time>
      </trkpt>
      <trkpt lat="49.71645" lon="0.24685">
        <ele>97.6</ele>
        <time>2020-06-18T06:48:53Z</time>
      </trkpt>
      <trkpt lat="49.71648" lon="0.24692">
        <ele>97.7</ele>
        <time>2020-06-18T06:48:54Z</time>
      </trkpt>
      <trkpt lat="49.7165" lon="0.24701">
        <ele>97.7</ele>
        <time>2020-06-18T06:48:55Z</time>
      </trkpt>
      <trkpt lat="49.71653" lon="0.24708">
        <ele>97.7</ele>
        <time>2020-06-18T06:48:56Z</time>
      </trkpt>
      <trkpt lat="49.71655" lon="0.24718">
        <ele>97.7</ele>
        <time>2020-06-18T06:48:57Z</time>
      </trkpt>
      <trkpt lat="49.71657" lon="0.24728">
        <ele>97.7</ele>
        <time>2020-06-18T06:48:58Z</time>
      </trkpt>
      <trkpt lat="49.71658" lon="0.24738">
        <ele>97.7</ele>
        <time>2020-06-18T06:48:59Z</time>
      </trkpt>
      <trkpt lat="49.71659" lon="0.24749">
        <ele>97.7</ele>
        <time>2020-06-18T06:49:00Z</time>
      </trkpt>
      <trkpt lat="49.7166" lon="0.24759">
        <ele>97.6</ele>
        <time>2020-06-18T06:49:01Z</time>
      </trkpt>
      <trkpt lat="49.7166" lon="0.24769">
        <ele>97.6</ele>
        <time>2020-06-18T06:49:02Z</time>
      </trkpt>
      <trkpt lat="49.71661" lon="0.24778">
        <ele>97.5</ele>
        <time>2020-06-18T06:49:03Z</time>
      </trkpt>
      <trkpt lat="49.71662" lon="0.24788">
        <ele>97.5</ele>
        <time>2020-06-18T06:49:04Z</time>
      </trkpt>
      <trkpt lat="49.71663" lon="0.24798">
        <ele>97.4</ele>
        <time>2020-06-18T06:49:05Z</time>
      </trkpt>
      <trkpt lat="49.71663" lon="0.24807">
        <ele>97.4</ele>
        <time>2020-06-18T06:49:06Z</time>
      </trkpt>
      <trkpt lat="49.71665" lon="0.24817">
        <ele>97.4</ele>
        <time>2020-06-18T06:49:07Z</time>
      </trkpt>
      <trkpt lat="49.71666" lon="0.24827">
        <ele>97.4</ele>
        <time>2020-06-18T06:49:08Z</time>
      </trkpt>
      <trkpt lat="49.71667" lon="0.24837">
        <ele>97.4</ele>
        <time>2020-06-18T06:49:09Z</time>
      </trkpt>
      <trkpt lat="49.71668" lon="0.2485">
        <ele>97.4</ele>
        <time>2020-06-18T06:49:10Z</time>
      </trkpt>
      <trkpt lat="49.71668" lon="0.24861">
        <ele>97.5</ele>
        <time>2020-06-18T06:49:11Z</time>
      </trkpt>
      <trkpt lat="49.7167" lon="0.2487">
        <ele>97.5</ele>
        <time>2020-06-18T06:49:12Z</time>
      </trkpt>
      <trkpt lat="49.71672" lon="0.24881">
        <ele>97.6</ele>
        <time>2020-06-18T06:49:13Z</time>
      </trkpt>
      <trkpt lat="49.71673" lon="0.2489">
        <ele>97.6</ele>
        <time>2020-06-18T06:49:14Z</time>
      </trkpt>
      <trkpt lat="49.71673" lon="0.24901">
        <ele>97.6</ele>
        <time>2020-06-18T06:49:15Z</time>
      </trkpt>
      <trkpt lat="49.71675" lon="0.24911">
        <ele>97.6</ele>
        <time>2020-06-18T06:49:16Z</time>
      </trkpt>
      <trkpt lat="49.71677" lon="0.24922">
        <ele>97.7</ele>
        <time>2020-06-18T06:49:17Z</time>
      </trkpt>
      <trkpt lat="49.71679" lon="0.24932">
        <ele>97.8</ele>
        <time>2020-06-18T06:49:18Z</time>
      </trkpt>
      <trkpt lat="49.71679" lon="0.24941">
        <ele>97.8</ele>
        <time>2020-06-18T06:49:19Z</time>
      </trkpt>
      <trkpt lat="49.71681" lon="0.24951">
        <ele>97.8</ele>
        <time>2020-06-18T06:49:20Z</time>
      </trkpt>
      <trkpt lat="49.71683" lon="0.24961">
        <ele>97.9</ele>
        <time>2020-06-18T06:49:21Z</time>
      </trkpt>
      <trkpt lat="49.71684" lon="0.24971">
        <ele>97.9</ele>
        <time>2020-06-18T06:49:22Z</time>
      </trkpt>
      <trkpt lat="49.71685" lon="0.2498">
        <ele>97.9</ele>
        <time>2020-06-18T06:49:23Z</time>
      </trkpt>
      <trkpt lat="49.71687" lon="0.24989">
        <ele>97.9</ele>
        <time>2020-06-18T06:49:24Z</time>
      </trkpt>
      <trkpt lat="49.71688" lon="0.24998">
        <ele>97.9</ele>
        <time>2020-06-18T06:49:25Z</time>
      </trkpt>
      <trkpt lat="49.7169" lon="0.25006">
        <ele>98</ele>
        <time>2020-06-18T06:49:26Z</time>
      </trkpt>
      <trkpt lat="49.71693" lon="0.25013">
        <ele>98</ele>
        <time>2020-06-18T06:49:27Z</time>
      </trkpt>
      <trkpt lat="49.71696" lon="0.25021">
        <ele>98</ele>
        <time>2020-06-18T06:49:28Z</time>
      </trkpt>
      <trkpt lat="49.71699" lon="0.25027">
        <ele>98</ele>
        <time>2020-06-18T06:49:29Z</time>
      </trkpt>
      <trkpt lat="49.71703" lon="0.25035">
        <ele>98</ele>
        <time>2020-06-18T06:49:30Z</time>
      </trkpt>
      <trkpt lat="49.71706" lon="0.25043">
        <ele>98</ele>
        <time>2020-06-18T06:49:31Z</time>
      </trkpt>
      <trkpt lat="49.7171" lon="0.25051">
        <ele>98</ele>
        <time>2020-06-18T06:49:32Z</time>
      </trkpt>
      <trkpt lat="49.71714" lon="0.25059">
        <ele>98.1</ele>
        <time>2020-06-18T06:49:33Z</time>
      </trkpt>
      <trkpt lat="49.71717" lon="0.25067">
        <ele>98.1</ele>
        <time>2020-06-18T06:49:34Z</time>
      </trkpt>
      <trkpt lat="49.7172" lon="0.25076">
        <ele>98.1</ele>
        <time>2020-06-18T06:49:35Z</time>
      </trkpt>
      <trkpt lat="49.71723" lon="0.25083">
        <ele>98</ele>
        <time>2020-06-18T06:49:36Z</time>
      </trkpt>
      <trkpt lat="49.71725" lon="0.25091">
        <ele>98</ele>
        <time>2020-06-18T06:49:37Z</time>
      </trkpt>
      <trkpt lat="49.71727" lon="0.25099">
        <ele>98</ele>
        <time>2020-06-18T06:49:38Z</time>
      </trkpt>
      <trkpt lat="49.7173" lon="0.25106">
        <ele>98</ele>
        <time>2020-06-18T06:49:39Z</time>
      </trkpt>
      <trkpt lat="49.71733" lon="0.25114">
        <ele>97.9</ele>
        <time>2020-06-18T06:49:40Z</time>
      </trkpt>
      <trkpt lat="49.71735" lon="0.25122">
        <ele>97.9</ele>
        <time>2020-06-18T06:49:41Z</time>
      </trkpt>
      <trkpt lat="49.71737" lon="0.2513">
        <ele>97.9</ele>
        <time>2020-06-18T06:49:42Z</time>
      </trkpt>
      <trkpt lat="49.71738" lon="0.25139">
        <ele>97.9</ele>
        <time>2020-06-18T06:49:43Z</time>
      </trkpt>
      <trkpt lat="49.71739" lon="0.25147">
        <ele>97.9</ele>
        <time>2020-06-18T06:49:44Z</time>
      </trkpt>
      <trkpt lat="49.71741" lon="0.25155">
        <ele>97.9</ele>
        <time>2020-06-18T06:49:45Z</time>
      </trkpt>
      <trkpt lat="49.71742" lon="0.25163">
        <ele>97.8</ele>
        <time>2020-06-18T06:49:46Z</time>
      </trkpt>
      <trkpt lat="49.71742" lon="0.25168">
        <ele>97.8</ele>
        <time>2020-06-18T06:49:47Z</time>
      </trkpt>
      <trkpt lat="49.71742" lon="0.25177">
        <ele>97.8</ele>
        <time>2020-06-18T06:49:48Z</time>
      </trkpt>
      <trkpt lat="49.71742" lon="0.25186">
        <ele>97.8</ele>
        <time>2020-06-18T06:49:49Z</time>
      </trkpt>
      <trkpt lat="49.71742" lon="0.25195">
        <ele>97.7</ele>
        <time>2020-06-18T06:49:50Z</time>
      </trkpt>
      <trkpt lat="49.71741" lon="0.25204">
        <ele>97.6</ele>
        <time>2020-06-18T06:49:51Z</time>
      </trkpt>
      <trkpt lat="49.7174" lon="0.25212">
        <ele>97.6</ele>
        <time>2020-06-18T06:49:52Z</time>
      </trkpt>
      <trkpt lat="49.71739" lon="0.25221">
        <ele>97.6</ele>
        <time>2020-06-18T06:49:53Z</time>
      </trkpt>
      <trkpt lat="49.71738" lon="0.2523">
        <ele>97.5</ele>
        <time>2020-06-18T06:49:54Z</time>
      </trkpt>
      <trkpt lat="49.71737" lon="0.2524">
        <ele>97.5</ele>
        <time>2020-06-18T06:49:55Z</time>
      </trkpt>
      <trkpt lat="49.71737" lon="0.2525">
        <ele>97.5</ele>
        <time>2020-06-18T06:49:56Z</time>
      </trkpt>
      <trkpt lat="49.71738" lon="0.25261">
        <ele>97.5</ele>
        <time>2020-06-18T06:49:57Z</time>
      </trkpt>
      <trkpt lat="49.71738" lon="0.25272">
        <ele>97.5</ele>
        <time>2020-06-18T06:49:58Z</time>
      </trkpt>
      <trkpt lat="49.71737" lon="0.25282">
        <ele>97.5</ele>
        <time>2020-06-18T06:49:59Z</time>
      </trkpt>
      <trkpt lat="49.71737" lon="0.25292">
        <ele>97.4</ele>
        <time>2020-06-18T06:50:00Z</time>
      </trkpt>
      <trkpt lat="49.71735" lon="0.25303">
        <ele>97.4</ele>
        <time>2020-06-18T06:50:01Z</time>
      </trkpt>
      <trkpt lat="49.71735" lon="0.25313">
        <ele>97.4</ele>
        <time>2020-06-18T06:50:02Z</time>
      </trkpt>
      <trkpt lat="49.71734" lon="0.25323">
        <ele>97.4</ele>
        <time>2020-06-18T06:50:03Z</time>
      </trkpt>
      <trkpt lat="49.71734" lon="0.25333">
        <ele>97.4</ele>
        <time>2020-06-18T06:50:04Z</time>
      </trkpt>
      <trkpt lat="49.71735" lon="0.25342">
        <ele>97.4</ele>
        <time>2020-06-18T06:50:05Z</time>
      </trkpt>
      <trkpt lat="49.71736" lon="0.25351">
        <ele>97.4</ele>
        <time>2020-06-18T06:50:06Z</time>
      </trkpt>
      <trkpt lat="49.71737" lon="0.25361">
        <ele>97.4</ele>
        <time>2020-06-18T06:50:07Z</time>
      </trkpt>
      <trkpt lat="49.71739" lon="0.25371">
        <ele>97.4</ele>
        <time>2020-06-18T06:50:08Z</time>
      </trkpt>
      <trkpt lat="49.71742" lon="0.2538">
        <ele>97.4</ele>
        <time>2020-06-18T06:50:09Z</time>
      </trkpt>
      <trkpt lat="49.71747" lon="0.25387">
        <ele>97.4</ele>
        <time>2020-06-18T06:50:10Z</time>
      </trkpt>
      <trkpt lat="49.71751" lon="0.25395">
        <ele>97.4</ele>
        <time>2020-06-18T06:50:11Z</time>
      </trkpt>
      <trkpt lat="49.71755" lon="0.25402">
        <ele>97.4</ele>
        <time>2020-06-18T06:50:12Z</time>
      </trkpt>
      <trkpt lat="49.71759" lon="0.25409">
        <ele>97.4</ele>
        <time>2020-06-18T06:50:13Z</time>
      </trkpt>
      <trkpt lat="49.71764" lon="0.25413">
        <ele>97.5</ele>
        <time>2020-06-18T06:50:14Z</time>
      </trkpt>
      <trkpt lat="49.7177" lon="0.2542">
        <ele>97.5</ele>
        <time>2020-06-18T06:50:15Z</time>
      </trkpt>
      <trkpt lat="49.71775" lon="0.25426">
        <ele>97.5</ele>
        <time>2020-06-18T06:50:16Z</time>
      </trkpt>
      <trkpt lat="49.7178" lon="0.25432">
        <ele>97.6</ele>
        <time>2020-06-18T06:50:17Z</time>
      </trkpt>
      <trkpt lat="49.71785" lon="0.25437">
        <ele>97.6</ele>
        <time>2020-06-18T06:50:18Z</time>
      </trkpt>
      <trkpt lat="49.71789" lon="0.25443">
        <ele>97.6</ele>
        <time>2020-06-18T06:50:19Z</time>
      </trkpt>
      <trkpt lat="49.71794" lon="0.25449">
        <ele>97.6</ele>
        <time>2020-06-18T06:50:20Z</time>
      </trkpt>
      <trkpt lat="49.71798" lon="0.25454">
        <ele>97.7</ele>
        <time>2020-06-18T06:50:21Z</time>
      </trkpt>
      <trkpt lat="49.71804" lon="0.2546">
        <ele>97.7</ele>
        <time>2020-06-18T06:50:22Z</time>
      </trkpt>
      <trkpt lat="49.71809" lon="0.25467">
        <ele>97.7</ele>
        <time>2020-06-18T06:50:23Z</time>
      </trkpt>
      <trkpt lat="49.71813" lon="0.25475">
        <ele>97.5</ele>
        <time>2020-06-18T06:50:24Z</time>
      </trkpt>
      <trkpt lat="49.71818" lon="0.25484">
        <ele>97.4</ele>
        <time>2020-06-18T06:50:25Z</time>
      </trkpt>
      <trkpt lat="49.71821" lon="0.25494">
        <ele>97.3</ele>
        <time>2020-06-18T06:50:26Z</time>
      </trkpt>
      <trkpt lat="49.71825" lon="0.25503">
        <ele>97.3</ele>
        <time>2020-06-18T06:50:27Z</time>
      </trkpt>
      <trkpt lat="49.71827" lon="0.25513">
        <ele>97.3</ele>
        <time>2020-06-18T06:50:28Z</time>
      </trkpt>
      <trkpt lat="49.71829" lon="0.25523">
        <ele>97.3</ele>
        <time>2020-06-18T06:50:29Z</time>
      </trkpt>
      <trkpt lat="49.7183" lon="0.25534">
        <ele>97.3</ele>
        <time>2020-06-18T06:50:30Z</time>
      </trkpt>
      <trkpt lat="49.7183" lon="0.25544">
        <ele>97.2</ele>
        <time>2020-06-18T06:50:31Z</time>
      </trkpt>
      <trkpt lat="49.71831" lon="0.25554">
        <ele>97.2</ele>
        <time>2020-06-18T06:50:32Z</time>
      </trkpt>
      <trkpt lat="49.71831" lon="0.25565">
        <ele>97.2</ele>
        <time>2020-06-18T06:50:33Z</time>
      </trkpt>
      <trkpt lat="49.71831" lon="0.25577">
        <ele>97.2</ele>
        <time>2020-06-18T06:50:34Z</time>
      </trkpt>
      <trkpt lat="49.71831" lon="0.25587">
        <ele>97.1</ele>
        <time>2020-06-18T06:50:35Z</time>
      </trkpt>
      <trkpt lat="49.71831" lon="0.25597">
        <ele>97.1</ele>
        <time>2020-06-18T06:50:36Z</time>
      </trkpt>
      <trkpt lat="49.71831" lon="0.25608">
        <ele>97</ele>
        <time>2020-06-18T06:50:37Z</time>
      </trkpt>
      <trkpt lat="49.71832" lon="0.25619">
        <ele>96.9</ele>
        <time>2020-06-18T06:50:38Z</time>
      </trkpt>
      <trkpt lat="49.71832" lon="0.25629">
        <ele>96.8</ele>
        <time>2020-06-18T06:50:39Z</time>
      </trkpt>
      <trkpt lat="49.71833" lon="0.25637">
        <ele>96.8</ele>
        <time>2020-06-18T06:50:40Z</time>
      </trkpt>
      <trkpt lat="49.71833" lon="0.25647">
        <ele>96.7</ele>
        <time>2020-06-18T06:50:41Z</time>
      </trkpt>
      <trkpt lat="49.71834" lon="0.25658">
        <ele>96.7</ele>
        <time>2020-06-18T06:50:42Z</time>
      </trkpt>
      <trkpt lat="49.71834" lon="0.25668">
        <ele>96.6</ele>
        <time>2020-06-18T06:50:43Z</time>
      </trkpt>
      <trkpt lat="49.71835" lon="0.25679">
        <ele>96.6</ele>
        <time>2020-06-18T06:50:44Z</time>
      </trkpt>
      <trkpt lat="49.71835" lon="0.2569">
        <ele>96.6</ele>
        <time>2020-06-18T06:50:45Z</time>
      </trkpt>
      <trkpt lat="49.71835" lon="0.25701">
        <ele>96.5</ele>
        <time>2020-06-18T06:50:46Z</time>
      </trkpt>
      <trkpt lat="49.71834" lon="0.25712">
        <ele>96.5</ele>
        <time>2020-06-18T06:50:47Z</time>
      </trkpt>
      <trkpt lat="49.71834" lon="0.25724">
        <ele>96.4</ele>
        <time>2020-06-18T06:50:48Z</time>
      </trkpt>
      <trkpt lat="49.71834" lon="0.25734">
        <ele>96.3</ele>
        <time>2020-06-18T06:50:49Z</time>
      </trkpt>
      <trkpt lat="49.71834" lon="0.25745">
        <ele>96.3</ele>
        <time>2020-06-18T06:50:50Z</time>
      </trkpt>
      <trkpt lat="49.71835" lon="0.25756">
        <ele>96.3</ele>
        <time>2020-06-18T06:50:51Z</time>
      </trkpt>
      <trkpt lat="49.71835" lon="0.25767">
        <ele>96.3</ele>
        <time>2020-06-18T06:50:52Z</time>
      </trkpt>
      <trkpt lat="49.71836" lon="0.25778">
        <ele>96.3</ele>
        <time>2020-06-18T06:50:53Z</time>
      </trkpt>
      <trkpt lat="49.71836" lon="0.25789">
        <ele>96.2</ele>
        <time>2020-06-18T06:50:54Z</time>
      </trkpt>
      <trkpt lat="49.71836" lon="0.258">
        <ele>96.1</ele>
        <time>2020-06-18T06:50:55Z</time>
      </trkpt>
      <trkpt lat="49.71837" lon="0.25811">
        <ele>96</ele>
        <time>2020-06-18T06:50:56Z</time>
      </trkpt>
      <trkpt lat="49.71837" lon="0.25824">
        <ele>95.9</ele>
        <time>2020-06-18T06:50:57Z</time>
      </trkpt>
      <trkpt lat="49.71837" lon="0.25834">
        <ele>95.9</ele>
        <time>2020-06-18T06:50:58Z</time>
      </trkpt>
      <trkpt lat="49.71838" lon="0.25843">
        <ele>95.8</ele>
        <time>2020-06-18T06:50:59Z</time>
      </trkpt>
      <trkpt lat="49.71838" lon="0.25854">
        <ele>95.8</ele>
        <time>2020-06-18T06:51:00Z</time>
      </trkpt>
      <trkpt lat="49.71839" lon="0.25865">
        <ele>95.7</ele>
        <time>2020-06-18T06:51:01Z</time>
      </trkpt>
      <trkpt lat="49.7184" lon="0.25877">
        <ele>95.7</ele>
        <time>2020-06-18T06:51:02Z</time>
      </trkpt>
      <trkpt lat="49.71839" lon="0.25889">
        <ele>95.6</ele>
        <time>2020-06-18T06:51:03Z</time>
      </trkpt>
      <trkpt lat="49.7184" lon="0.25901">
        <ele>95.5</ele>
        <time>2020-06-18T06:51:04Z</time>
      </trkpt>
      <trkpt lat="49.7184" lon="0.25913">
        <ele>95.4</ele>
        <time>2020-06-18T06:51:05Z</time>
      </trkpt>
      <trkpt lat="49.7184" lon="0.25922">
        <ele>95.4</ele>
        <time>2020-06-18T06:51:06Z</time>
      </trkpt>
      <trkpt lat="49.7184" lon="0.25933">
        <ele>95.3</ele>
        <time>2020-06-18T06:51:07Z</time>
      </trkpt>
      <trkpt lat="49.71841" lon="0.25945">
        <ele>95.3</ele>
        <time>2020-06-18T06:51:08Z</time>
      </trkpt>
      <trkpt lat="49.71841" lon="0.25957">
        <ele>95.2</ele>
        <time>2020-06-18T06:51:09Z</time>
      </trkpt>
      <trkpt lat="49.71841" lon="0.2597">
        <ele>95.2</ele>
        <time>2020-06-18T06:51:10Z</time>
      </trkpt>
      <trkpt lat="49.71841" lon="0.25982">
        <ele>95.3</ele>
        <time>2020-06-18T06:51:11Z</time>
      </trkpt>
      <trkpt lat="49.71842" lon="0.25993">
        <ele>95.3</ele>
        <time>2020-06-18T06:51:12Z</time>
      </trkpt>
      <trkpt lat="49.71842" lon="0.26005">
        <ele>95.4</ele>
        <time>2020-06-18T06:51:13Z</time>
      </trkpt>
      <trkpt lat="49.71842" lon="0.26016">
        <ele>95.2</ele>
        <time>2020-06-18T06:51:14Z</time>
      </trkpt>
      <trkpt lat="49.71843" lon="0.26027">
        <ele>95.1</ele>
        <time>2020-06-18T06:51:15Z</time>
      </trkpt>
      <trkpt lat="49.71843" lon="0.26039">
        <ele>95</ele>
        <time>2020-06-18T06:51:16Z</time>
      </trkpt>
      <trkpt lat="49.71843" lon="0.26052">
        <ele>94.9</ele>
        <time>2020-06-18T06:51:17Z</time>
      </trkpt>
      <trkpt lat="49.71842" lon="0.26064">
        <ele>94.8</ele>
        <time>2020-06-18T06:51:18Z</time>
      </trkpt>
      <trkpt lat="49.71841" lon="0.26077">
        <ele>94.7</ele>
        <time>2020-06-18T06:51:19Z</time>
      </trkpt>
      <trkpt lat="49.7184" lon="0.26088">
        <ele>94.7</ele>
        <time>2020-06-18T06:51:20Z</time>
      </trkpt>
      <trkpt lat="49.7184" lon="0.26098">
        <ele>94.6</ele>
        <time>2020-06-18T06:51:21Z</time>
      </trkpt>
      <trkpt lat="49.7184" lon="0.26109">
        <ele>94.6</ele>
        <time>2020-06-18T06:51:22Z</time>
      </trkpt>
      <trkpt lat="49.71839" lon="0.2612">
        <ele>94.5</ele>
        <time>2020-06-18T06:51:23Z</time>
      </trkpt>
      <trkpt lat="49.71838" lon="0.26132">
        <ele>94.4</ele>
        <time>2020-06-18T06:51:24Z</time>
      </trkpt>
      <trkpt lat="49.71837" lon="0.26144">
        <ele>94.3</ele>
        <time>2020-06-18T06:51:25Z</time>
      </trkpt>
      <trkpt lat="49.71837" lon="0.26155">
        <ele>94.3</ele>
        <time>2020-06-18T06:51:26Z</time>
      </trkpt>
      <trkpt lat="49.71836" lon="0.26166">
        <ele>94.2</ele>
        <time>2020-06-18T06:51:27Z</time>
      </trkpt>
      <trkpt lat="49.71836" lon="0.26178">
        <ele>94.2</ele>
        <time>2020-06-18T06:51:28Z</time>
      </trkpt>
      <trkpt lat="49.71836" lon="0.2619">
        <ele>94.2</ele>
        <time>2020-06-18T06:51:29Z</time>
      </trkpt>
      <trkpt lat="49.71836" lon="0.26201">
        <ele>94.2</ele>
        <time>2020-06-18T06:51:30Z</time>
      </trkpt>
      <trkpt lat="49.71836" lon="0.26212">
        <ele>94.1</ele>
        <time>2020-06-18T06:51:31Z</time>
      </trkpt>
      <trkpt lat="49.71836" lon="0.26223">
        <ele>94.1</ele>
        <time>2020-06-18T06:51:32Z</time>
      </trkpt>
      <trkpt lat="49.71836" lon="0.26234">
        <ele>94.1</ele>
        <time>2020-06-18T06:51:33Z</time>
      </trkpt>
      <trkpt lat="49.71837" lon="0.26246">
        <ele>94.1</ele>
        <time>2020-06-18T06:51:34Z</time>
      </trkpt>
      <trkpt lat="49.71837" lon="0.26256">
        <ele>94</ele>
        <time>2020-06-18T06:51:35Z</time>
      </trkpt>
      <trkpt lat="49.71838" lon="0.26267">
        <ele>94</ele>
        <time>2020-06-18T06:51:36Z</time>
      </trkpt>
      <trkpt lat="49.71839" lon="0.26278">
        <ele>93.9</ele>
        <time>2020-06-18T06:51:37Z</time>
      </trkpt>
      <trkpt lat="49.71842" lon="0.26288">
        <ele>93.9</ele>
        <time>2020-06-18T06:51:38Z</time>
      </trkpt>
      <trkpt lat="49.71844" lon="0.263">
        <ele>93.8</ele>
        <time>2020-06-18T06:51:39Z</time>
      </trkpt>
      <trkpt lat="49.71848" lon="0.2631">
        <ele>93.8</ele>
        <time>2020-06-18T06:51:40Z</time>
      </trkpt>
      <trkpt lat="49.71851" lon="0.26321">
        <ele>93.7</ele>
        <time>2020-06-18T06:51:41Z</time>
      </trkpt>
      <trkpt lat="49.71853" lon="0.26331">
        <ele>93.7</ele>
        <time>2020-06-18T06:51:42Z</time>
      </trkpt>
      <trkpt lat="49.71856" lon="0.26341">
        <ele>93.6</ele>
        <time>2020-06-18T06:51:43Z</time>
      </trkpt>
      <trkpt lat="49.71858" lon="0.26351">
        <ele>93.5</ele>
        <time>2020-06-18T06:51:44Z</time>
      </trkpt>
      <trkpt lat="49.7186" lon="0.26361">
        <ele>93.4</ele>
        <time>2020-06-18T06:51:45Z</time>
      </trkpt>
      <trkpt lat="49.71862" lon="0.26371">
        <ele>93.3</ele>
        <time>2020-06-18T06:51:46Z</time>
      </trkpt>
      <trkpt lat="49.71862" lon="0.26382">
        <ele>93.2</ele>
        <time>2020-06-18T06:51:47Z</time>
      </trkpt>
      <trkpt lat="49.71862" lon="0.26392">
        <ele>93.1</ele>
        <time>2020-06-18T06:51:48Z</time>
      </trkpt>
      <trkpt lat="49.71861" lon="0.26404">
        <ele>92.9</ele>
        <time>2020-06-18T06:51:49Z</time>
      </trkpt>
      <trkpt lat="49.71862" lon="0.26416">
        <ele>92.8</ele>
        <time>2020-06-18T06:51:50Z</time>
      </trkpt>
      <trkpt lat="49.71861" lon="0.26428">
        <ele>92.6</ele>
        <time>2020-06-18T06:51:51Z</time>
      </trkpt>
      <trkpt lat="49.71861" lon="0.26439">
        <ele>92.4</ele>
        <time>2020-06-18T06:51:52Z</time>
      </trkpt>
      <trkpt lat="49.71861" lon="0.26451">
        <ele>92.2</ele>
        <time>2020-06-18T06:51:53Z</time>
      </trkpt>
      <trkpt lat="49.71861" lon="0.26461">
        <ele>92.1</ele>
        <time>2020-06-18T06:51:54Z</time>
      </trkpt>
      <trkpt lat="49.71861" lon="0.26472">
        <ele>91.9</ele>
        <time>2020-06-18T06:51:55Z</time>
      </trkpt>
      <trkpt lat="49.71861" lon="0.26484">
        <ele>91.7</ele>
        <time>2020-06-18T06:51:56Z</time>
      </trkpt>
      <trkpt lat="49.71861" lon="0.26496">
        <ele>91.5</ele>
        <time>2020-06-18T06:51:57Z</time>
      </trkpt>
      <trkpt lat="49.7186" lon="0.26507">
        <ele>91.3</ele>
        <time>2020-06-18T06:51:58Z</time>
      </trkpt>
      <trkpt lat="49.71861" lon="0.2652">
        <ele>91.1</ele>
        <time>2020-06-18T06:51:59Z</time>
      </trkpt>
      <trkpt lat="49.71861" lon="0.26532">
        <ele>90.9</ele>
        <time>2020-06-18T06:52:00Z</time>
      </trkpt>
      <trkpt lat="49.7186" lon="0.26544">
        <ele>90.7</ele>
        <time>2020-06-18T06:52:01Z</time>
      </trkpt>
      <trkpt lat="49.7186" lon="0.26555">
        <ele>90.6</ele>
        <time>2020-06-18T06:52:02Z</time>
      </trkpt>
      <trkpt lat="49.7186" lon="0.26567">
        <ele>90.4</ele>
        <time>2020-06-18T06:52:03Z</time>
      </trkpt>
      <trkpt lat="49.71861" lon="0.2658">
        <ele>90.3</ele>
        <time>2020-06-18T06:52:04Z</time>
      </trkpt>
      <trkpt lat="49.71861" lon="0.26592">
        <ele>90.2</ele>
        <time>2020-06-18T06:52:05Z</time>
      </trkpt>
      <trkpt lat="49.71862" lon="0.26603">
        <ele>90.1</ele>
        <time>2020-06-18T06:52:06Z</time>
      </trkpt>
      <trkpt lat="49.71863" lon="0.26614">
        <ele>90</ele>
        <time>2020-06-18T06:52:07Z</time>
      </trkpt>
      <trkpt lat="49.71864" lon="0.26626">
        <ele>89.9</ele>
        <time>2020-06-18T06:52:08Z</time>
      </trkpt>
      <trkpt lat="49.71865" lon="0.26638">
        <ele>89.8</ele>
        <time>2020-06-18T06:52:09Z</time>
      </trkpt>
      <trkpt lat="49.71866" lon="0.26649">
        <ele>89.7</ele>
        <time>2020-06-18T06:52:10Z</time>
      </trkpt>
      <trkpt lat="49.71869" lon="0.26662">
        <ele>89.6</ele>
        <time>2020-06-18T06:52:11Z</time>
      </trkpt>
      <trkpt lat="49.7187" lon="0.26674">
        <ele>89.6</ele>
        <time>2020-06-18T06:52:12Z</time>
      </trkpt>
      <trkpt lat="49.71871" lon="0.26686">
        <ele>89.6</ele>
        <time>2020-06-18T06:52:13Z</time>
      </trkpt>
      <trkpt lat="49.71873" lon="0.26698">
        <ele>89.6</ele>
        <time>2020-06-18T06:52:14Z</time>
      </trkpt>
      <trkpt lat="49.71874" lon="0.2671">
        <ele>89.7</ele>
        <time>2020-06-18T06:52:15Z</time>
      </trkpt>
      <trkpt lat="49.71875" lon="0.26722">
        <ele>89.7</ele>
        <time>2020-06-18T06:52:16Z</time>
      </trkpt>
      <trkpt lat="49.71876" lon="0.26733">
        <ele>89.8</ele>
        <time>2020-06-18T06:52:17Z</time>
      </trkpt>
      <trkpt lat="49.71875" lon="0.26745">
        <ele>89.9</ele>
        <time>2020-06-18T06:52:18Z</time>
      </trkpt>
      <trkpt lat="49.71876" lon="0.26756">
        <ele>90.1</ele>
        <time>2020-06-18T06:52:19Z</time>
      </trkpt>
      <trkpt lat="49.71875" lon="0.26767">
        <ele>90.2</ele>
        <time>2020-06-18T06:52:20Z</time>
      </trkpt>
      <trkpt lat="49.71875" lon="0.26778">
        <ele>90.4</ele>
        <time>2020-06-18T06:52:21Z</time>
      </trkpt>
      <trkpt lat="49.71874" lon="0.26789">
        <ele>90.5</ele>
        <time>2020-06-18T06:52:22Z</time>
      </trkpt>
      <trkpt lat="49.71873" lon="0.268">
        <ele>90.6</ele>
        <time>2020-06-18T06:52:23Z</time>
      </trkpt>
      <trkpt lat="49.71873" lon="0.2681">
        <ele>90.7</ele>
        <time>2020-06-18T06:52:24Z</time>
      </trkpt>
      <trkpt lat="49.71872" lon="0.2682">
        <ele>90.8</ele>
        <time>2020-06-18T06:52:25Z</time>
      </trkpt>
      <trkpt lat="49.71871" lon="0.2683">
        <ele>91</ele>
        <time>2020-06-18T06:52:26Z</time>
      </trkpt>
      <trkpt lat="49.7187" lon="0.2684">
        <ele>91.1</ele>
        <time>2020-06-18T06:52:27Z</time>
      </trkpt>
      <trkpt lat="49.71869" lon="0.2685">
        <ele>91.2</ele>
        <time>2020-06-18T06:52:28Z</time>
      </trkpt>
      <trkpt lat="49.71867" lon="0.26861">
        <ele>91.4</ele>
        <time>2020-06-18T06:52:29Z</time>
      </trkpt>
      <trkpt lat="49.71865" lon="0.26872">
        <ele>91.5</ele>
        <time>2020-06-18T06:52:30Z</time>
      </trkpt>
      <trkpt lat="49.71864" lon="0.26883">
        <ele>91.6</ele>
        <time>2020-06-18T06:52:31Z</time>
      </trkpt>
      <trkpt lat="49.71862" lon="0.26894">
        <ele>91.7</ele>
        <time>2020-06-18T06:52:32Z</time>
      </trkpt>
      <trkpt lat="49.7186" lon="0.26904">
        <ele>91.7</ele>
        <time>2020-06-18T06:52:33Z</time>
      </trkpt>
      <trkpt lat="49.71858" lon="0.26913">
        <ele>91.8</ele>
        <time>2020-06-18T06:52:34Z</time>
      </trkpt>
      <trkpt lat="49.71857" lon="0.26922">
        <ele>91.8</ele>
        <time>2020-06-18T06:52:35Z</time>
      </trkpt>
      <trkpt lat="49.71856" lon="0.26931">
        <ele>91.8</ele>
        <time>2020-06-18T06:52:36Z</time>
      </trkpt>
      <trkpt lat="49.71855" lon="0.2694">
        <ele>91.8</ele>
        <time>2020-06-18T06:52:37Z</time>
      </trkpt>
      <trkpt lat="49.71853" lon="0.26953">
        <ele>91.7</ele>
        <time>2020-06-18T06:52:38Z</time>
      </trkpt>
      <trkpt lat="49.71853" lon="0.26962">
        <ele>91.7</ele>
        <time>2020-06-18T06:52:39Z</time>
      </trkpt>
      <trkpt lat="49.71853" lon="0.2697">
        <ele>91.6</ele>
        <time>2020-06-18T06:52:40Z</time>
      </trkpt>
      <trkpt lat="49.71853" lon="0.26979">
        <ele>91.6</ele>
        <time>2020-06-18T06:52:41Z</time>
      </trkpt>
      <trkpt lat="49.71852" lon="0.26989">
        <ele>91.5</ele>
        <time>2020-06-18T06:52:42Z</time>
      </trkpt>
      <trkpt lat="49.71852" lon="0.26998">
        <ele>91.4</ele>
        <time>2020-06-18T06:52:43Z</time>
      </trkpt>
      <trkpt lat="49.71852" lon="0.27007">
        <ele>91.4</ele>
        <time>2020-06-18T06:52:44Z</time>
      </trkpt>
      <trkpt lat="49.71852" lon="0.27013">
        <ele>91.3</ele>
        <time>2020-06-18T06:52:45Z</time>
      </trkpt>
      <trkpt lat="49.71852" lon="0.27021">
        <ele>91.2</ele>
        <time>2020-06-18T06:52:46Z</time>
      </trkpt>
      <trkpt lat="49.71852" lon="0.2703">
        <ele>91.1</ele>
        <time>2020-06-18T06:52:47Z</time>
      </trkpt>
      <trkpt lat="49.71851" lon="0.27038">
        <ele>91</ele>
        <time>2020-06-18T06:52:48Z</time>
      </trkpt>
      <trkpt lat="49.71851" lon="0.27046">
        <ele>90.9</ele>
        <time>2020-06-18T06:52:49Z</time>
      </trkpt>
      <trkpt lat="49.71852" lon="0.27054">
        <ele>90.8</ele>
        <time>2020-06-18T06:52:50Z</time>
      </trkpt>
      <trkpt lat="49.71851" lon="0.27064">
        <ele>90.6</ele>
        <time>2020-06-18T06:52:51Z</time>
      </trkpt>
      <trkpt lat="49.71851" lon="0.27074">
        <ele>90.5</ele>
        <time>2020-06-18T06:52:52Z</time>
      </trkpt>
      <trkpt lat="49.7185" lon="0.27084">
        <ele>90.3</ele>
        <time>2020-06-18T06:52:53Z</time>
      </trkpt>
      <trkpt lat="49.71848" lon="0.27095">
        <ele>90.1</ele>
        <time>2020-06-18T06:52:54Z</time>
      </trkpt>
      <trkpt lat="49.71846" lon="0.27103">
        <ele>90</ele>
        <time>2020-06-18T06:52:55Z</time>
      </trkpt>
      <trkpt lat="49.71844" lon="0.27111">
        <ele>89.8</ele>
        <time>2020-06-18T06:52:56Z</time>
      </trkpt>
      <trkpt lat="49.71841" lon="0.2712">
        <ele>89.6</ele>
        <time>2020-06-18T06:52:57Z</time>
      </trkpt>
      <trkpt lat="49.71838" lon="0.27128">
        <ele>89.4</ele>
        <time>2020-06-18T06:52:58Z</time>
      </trkpt>
      <trkpt lat="49.71835" lon="0.27136">
        <ele>89.2</ele>
        <time>2020-06-18T06:52:59Z</time>
      </trkpt>
      <trkpt lat="49.71832" lon="0.27146">
        <ele>89</ele>
        <time>2020-06-18T06:53:00Z</time>
      </trkpt>
      <trkpt lat="49.71828" lon="0.27156">
        <ele>88.7</ele>
        <time>2020-06-18T06:53:01Z</time>
      </trkpt>
      <trkpt lat="49.71825" lon="0.27165">
        <ele>88.4</ele>
        <time>2020-06-18T06:53:02Z</time>
      </trkpt>
      <trkpt lat="49.71822" lon="0.27175">
        <ele>88.1</ele>
        <time>2020-06-18T06:53:03Z</time>
      </trkpt>
      <trkpt lat="49.71819" lon="0.27184">
        <ele>87.8</ele>
        <time>2020-06-18T06:53:04Z</time>
      </trkpt>
      <trkpt lat="49.71818" lon="0.27194">
        <ele>87.5</ele>
        <time>2020-06-18T06:53:05Z</time>
      </trkpt>
      <trkpt lat="49.71817" lon="0.27206">
        <ele>87.1</ele>
        <time>2020-06-18T06:53:06Z</time>
      </trkpt>
      <trkpt lat="49.71817" lon="0.27217">
        <ele>86.6</ele>
        <time>2020-06-18T06:53:07Z</time>
      </trkpt>
      <trkpt lat="49.71819" lon="0.27228">
        <ele>86.2</ele>
        <time>2020-06-18T06:53:08Z</time>
      </trkpt>
      <trkpt lat="49.71822" lon="0.27239">
        <ele>85.7</ele>
        <time>2020-06-18T06:53:09Z</time>
      </trkpt>
      <trkpt lat="49.71825" lon="0.2725">
        <ele>85.3</ele>
        <time>2020-06-18T06:53:10Z</time>
      </trkpt>
      <trkpt lat="49.71828" lon="0.2726">
        <ele>84.9</ele>
        <time>2020-06-18T06:53:11Z</time>
      </trkpt>
      <trkpt lat="49.71831" lon="0.27271">
        <ele>84.4</ele>
        <time>2020-06-18T06:53:12Z</time>
      </trkpt>
      <trkpt lat="49.71835" lon="0.27282">
        <ele>83.9</ele>
        <time>2020-06-18T06:53:13Z</time>
      </trkpt>
      <trkpt lat="49.7184" lon="0.27294">
        <ele>83.3</ele>
        <time>2020-06-18T06:53:14Z</time>
      </trkpt>
      <trkpt lat="49.71844" lon="0.27306">
        <ele>82.9</ele>
        <time>2020-06-18T06:53:15Z</time>
      </trkpt>
      <trkpt lat="49.71848" lon="0.27318">
        <ele>82.4</ele>
        <time>2020-06-18T06:53:16Z</time>
      </trkpt>
      <trkpt lat="49.71852" lon="0.2733">
        <ele>82.1</ele>
        <time>2020-06-18T06:53:17Z</time>
      </trkpt>
      <trkpt lat="49.71856" lon="0.27342">
        <ele>82</ele>
        <time>2020-06-18T06:53:18Z</time>
      </trkpt>
      <trkpt lat="49.7186" lon="0.27354">
        <ele>81.8</ele>
        <time>2020-06-18T06:53:19Z</time>
      </trkpt>
      <trkpt lat="49.71864" lon="0.27365">
        <ele>81.5</ele>
        <time>2020-06-18T06:53:20Z</time>
      </trkpt>
      <trkpt lat="49.71868" lon="0.27377">
        <ele>81.2</ele>
        <time>2020-06-18T06:53:21Z</time>
      </trkpt>
      <trkpt lat="49.71871" lon="0.27389">
        <ele>81</ele>
        <time>2020-06-18T06:53:22Z</time>
      </trkpt>
      <trkpt lat="49.71874" lon="0.274">
        <ele>80.8</ele>
        <time>2020-06-18T06:53:23Z</time>
      </trkpt>
      <trkpt lat="49.71877" lon="0.27412">
        <ele>80.7</ele>
        <time>2020-06-18T06:53:24Z</time>
      </trkpt>
      <trkpt lat="49.7188" lon="0.27423">
        <ele>80.6</ele>
        <time>2020-06-18T06:53:25Z</time>
      </trkpt>
      <trkpt lat="49.71882" lon="0.27434">
        <ele>80.5</ele>
        <time>2020-06-18T06:53:26Z</time>
      </trkpt>
      <trkpt lat="49.71885" lon="0.27445">
        <ele>80.4</ele>
        <time>2020-06-18T06:53:27Z</time>
      </trkpt>
      <trkpt lat="49.71887" lon="0.27456">
        <ele>80.3</ele>
        <time>2020-06-18T06:53:28Z</time>
      </trkpt>
      <trkpt lat="49.71889" lon="0.27468">
        <ele>80.4</ele>
        <time>2020-06-18T06:53:29Z</time>
      </trkpt>
      <trkpt lat="49.7189" lon="0.27479">
        <ele>80.5</ele>
        <time>2020-06-18T06:53:30Z</time>
      </trkpt>
      <trkpt lat="49.71891" lon="0.27489">
        <ele>80.6</ele>
        <time>2020-06-18T06:53:31Z</time>
      </trkpt>
      <trkpt lat="49.71891" lon="0.275">
        <ele>80.8</ele>
        <time>2020-06-18T06:53:32Z</time>
      </trkpt>
      <trkpt lat="49.71892" lon="0.27511">
        <ele>80.9</ele>
        <time>2020-06-18T06:53:33Z</time>
      </trkpt>
      <trkpt lat="49.71892" lon="0.27522">
        <ele>81.1</ele>
        <time>2020-06-18T06:53:34Z</time>
      </trkpt>
      <trkpt lat="49.71892" lon="0.27532">
        <ele>81.2</ele>
        <time>2020-06-18T06:53:35Z</time>
      </trkpt>
      <trkpt lat="49.71892" lon="0.27542">
        <ele>81.4</ele>
        <time>2020-06-18T06:53:36Z</time>
      </trkpt>
      <trkpt lat="49.71892" lon="0.27552">
        <ele>81.5</ele>
        <time>2020-06-18T06:53:37Z</time>
      </trkpt>
      <trkpt lat="49.71891" lon="0.27563">
        <ele>81.7</ele>
        <time>2020-06-18T06:53:38Z</time>
      </trkpt>
      <trkpt lat="49.7189" lon="0.27573">
        <ele>81.9</ele>
        <time>2020-06-18T06:53:39Z</time>
      </trkpt>
      <trkpt lat="49.71889" lon="0.27583">
        <ele>82.2</ele>
        <time>2020-06-18T06:53:40Z</time>
      </trkpt>
      <trkpt lat="49.71888" lon="0.27594">
        <ele>82.4</ele>
        <time>2020-06-18T06:53:41Z</time>
      </trkpt>
      <trkpt lat="49.71886" lon="0.27604">
        <ele>82.6</ele>
        <time>2020-06-18T06:53:42Z</time>
      </trkpt>
      <trkpt lat="49.71885" lon="0.27614">
        <ele>82.8</ele>
        <time>2020-06-18T06:53:43Z</time>
      </trkpt>
      <trkpt lat="49.71884" lon="0.27623">
        <ele>83</ele>
        <time>2020-06-18T06:53:44Z</time>
      </trkpt>
      <trkpt lat="49.71882" lon="0.27632">
        <ele>83.2</ele>
        <time>2020-06-18T06:53:45Z</time>
      </trkpt>
      <trkpt lat="49.71881" lon="0.27641">
        <ele>83.4</ele>
        <time>2020-06-18T06:53:46Z</time>
      </trkpt>
      <trkpt lat="49.7188" lon="0.2765">
        <ele>83.6</ele>
        <time>2020-06-18T06:53:47Z</time>
      </trkpt>
      <trkpt lat="49.7188" lon="0.2766">
        <ele>83.8</ele>
        <time>2020-06-18T06:53:48Z</time>
      </trkpt>
      <trkpt lat="49.71879" lon="0.27671">
        <ele>84</ele>
        <time>2020-06-18T06:53:49Z</time>
      </trkpt>
      <trkpt lat="49.71879" lon="0.2768">
        <ele>84.3</ele>
        <time>2020-06-18T06:53:50Z</time>
      </trkpt>
      <trkpt lat="49.7188" lon="0.2769">
        <ele>84.5</ele>
        <time>2020-06-18T06:53:51Z</time>
      </trkpt>
      <trkpt lat="49.71881" lon="0.27699">
        <ele>84.8</ele>
        <time>2020-06-18T06:53:52Z</time>
      </trkpt>
      <trkpt lat="49.71881" lon="0.27708">
        <ele>85</ele>
        <time>2020-06-18T06:53:53Z</time>
      </trkpt>
      <trkpt lat="49.71882" lon="0.27716">
        <ele>85.2</ele>
        <time>2020-06-18T06:53:54Z</time>
      </trkpt>
      <trkpt lat="49.71883" lon="0.27724">
        <ele>85.4</ele>
        <time>2020-06-18T06:53:55Z</time>
      </trkpt>
      <trkpt lat="49.71885" lon="0.27732">
        <ele>85.5</ele>
        <time>2020-06-18T06:53:56Z</time>
      </trkpt>
      <trkpt lat="49.71886" lon="0.27738">
        <ele>85.7</ele>
        <time>2020-06-18T06:53:57Z</time>
      </trkpt>
      <trkpt lat="49.71888" lon="0.27745">
        <ele>85.9</ele>
        <time>2020-06-18T06:53:58Z</time>
      </trkpt>
      <trkpt lat="49.7189" lon="0.27753">
        <ele>86.1</ele>
        <time>2020-06-18T06:53:59Z</time>
      </trkpt>
      <trkpt lat="49.71892" lon="0.27759">
        <ele>86.2</ele>
        <time>2020-06-18T06:54:00Z</time>
      </trkpt>
      <trkpt lat="49.71895" lon="0.27765">
        <ele>86.4</ele>
        <time>2020-06-18T06:54:01Z</time>
      </trkpt>
      <trkpt lat="49.71897" lon="0.27772">
        <ele>86.6</ele>
        <time>2020-06-18T06:54:02Z</time>
      </trkpt>
      <trkpt lat="49.719" lon="0.27779">
        <ele>86.8</ele>
        <time>2020-06-18T06:54:03Z</time>
      </trkpt>
      <trkpt lat="49.71904" lon="0.27785">
        <ele>87</ele>
        <time>2020-06-18T06:54:04Z</time>
      </trkpt>
      <trkpt lat="49.71908" lon="0.2779">
        <ele>87.2</ele>
        <time>2020-06-18T06:54:05Z</time>
      </trkpt>
      <trkpt lat="49.71911" lon="0.27795">
        <ele>87.4</ele>
        <time>2020-06-18T06:54:06Z</time>
      </trkpt>
      <trkpt lat="49.71915" lon="0.278">
        <ele>87.5</ele>
        <time>2020-06-18T06:54:07Z</time>
      </trkpt>
      <trkpt lat="49.71919" lon="0.27805">
        <ele>87.7</ele>
        <time>2020-06-18T06:54:08Z</time>
      </trkpt>
      <trkpt lat="49.71923" lon="0.2781">
        <ele>87.8</ele>
        <time>2020-06-18T06:54:09Z</time>
      </trkpt>
      <trkpt lat="49.71927" lon="0.27813">
        <ele>88</ele>
        <time>2020-06-18T06:54:10Z</time>
      </trkpt>
      <trkpt lat="49.71932" lon="0.27817">
        <ele>88.1</ele>
        <time>2020-06-18T06:54:11Z</time>
      </trkpt>
      <trkpt lat="49.71936" lon="0.27821">
        <ele>88.2</ele>
        <time>2020-06-18T06:54:12Z</time>
      </trkpt>
      <trkpt lat="49.71941" lon="0.27824">
        <ele>88.4</ele>
        <time>2020-06-18T06:54:13Z</time>
      </trkpt>
      <trkpt lat="49.71945" lon="0.27828">
        <ele>88.5</ele>
        <time>2020-06-18T06:54:14Z</time>
      </trkpt>
      <trkpt lat="49.7195" lon="0.27832">
        <ele>88.7</ele>
        <time>2020-06-18T06:54:15Z</time>
      </trkpt>
      <trkpt lat="49.71954" lon="0.27835">
        <ele>88.8</ele>
        <time>2020-06-18T06:54:16Z</time>
      </trkpt>
      <trkpt lat="49.71959" lon="0.27839">
        <ele>88.9</ele>
        <time>2020-06-18T06:54:17Z</time>
      </trkpt>
      <trkpt lat="49.71964" lon="0.27842">
        <ele>89</ele>
        <time>2020-06-18T06:54:18Z</time>
      </trkpt>
      <trkpt lat="49.71968" lon="0.27846">
        <ele>89.1</ele>
        <time>2020-06-18T06:54:19Z</time>
      </trkpt>
      <trkpt lat="49.71973" lon="0.2785">
        <ele>89.3</ele>
        <time>2020-06-18T06:54:20Z</time>
      </trkpt>
      <trkpt lat="49.71978" lon="0.27854">
        <ele>89.4</ele>
        <time>2020-06-18T06:54:21Z</time>
      </trkpt>
      <trkpt lat="49.71984" lon="0.27858">
        <ele>89.6</ele>
        <time>2020-06-18T06:54:22Z</time>
      </trkpt>
      <trkpt lat="49.71988" lon="0.27862">
        <ele>89.7</ele>
        <time>2020-06-18T06:54:23Z</time>
      </trkpt>
      <trkpt lat="49.71993" lon="0.27866">
        <ele>89.8</ele>
        <time>2020-06-18T06:54:24Z</time>
      </trkpt>
      <trkpt lat="49.71998" lon="0.2787">
        <ele>90</ele>
        <time>2020-06-18T06:54:25Z</time>
      </trkpt>
      <trkpt lat="49.72003" lon="0.27874">
        <ele>90.1</ele>
        <time>2020-06-18T06:54:26Z</time>
      </trkpt>
      <trkpt lat="49.72008" lon="0.27878">
        <ele>90.2</ele>
        <time>2020-06-18T06:54:27Z</time>
      </trkpt>
      <trkpt lat="49.72013" lon="0.27882">
        <ele>90.3</ele>
        <time>2020-06-18T06:54:28Z</time>
      </trkpt>
      <trkpt lat="49.72017" lon="0.27886">
        <ele>90.4</ele>
        <time>2020-06-18T06:54:29Z</time>
      </trkpt>
      <trkpt lat="49.72022" lon="0.27889">
        <ele>90.5</ele>
        <time>2020-06-18T06:54:30Z</time>
      </trkpt>
      <trkpt lat="49.72027" lon="0.27893">
        <ele>90.6</ele>
        <time>2020-06-18T06:54:31Z</time>
      </trkpt>
      <trkpt lat="49.72032" lon="0.27898">
        <ele>90.7</ele>
        <time>2020-06-18T06:54:32Z</time>
      </trkpt>
      <trkpt lat="49.72037" lon="0.27902">
        <ele>90.8</ele>
        <time>2020-06-18T06:54:33Z</time>
      </trkpt>
      <trkpt lat="49.72042" lon="0.27905">
        <ele>90.9</ele>
        <time>2020-06-18T06:54:34Z</time>
      </trkpt>
      <trkpt lat="49.72047" lon="0.27909">
        <ele>91</ele>
        <time>2020-06-18T06:54:35Z</time>
      </trkpt>
      <trkpt lat="49.72052" lon="0.27912">
        <ele>91.1</ele>
        <time>2020-06-18T06:54:36Z</time>
      </trkpt>
      <trkpt lat="49.72056" lon="0.27915">
        <ele>91.1</ele>
        <time>2020-06-18T06:54:37Z</time>
      </trkpt>
      <trkpt lat="49.72061" lon="0.27918">
        <ele>91.2</ele>
        <time>2020-06-18T06:54:38Z</time>
      </trkpt>
      <trkpt lat="49.72067" lon="0.27921">
        <ele>91.3</ele>
        <time>2020-06-18T06:54:39Z</time>
      </trkpt>
      <trkpt lat="49.72072" lon="0.27926">
        <ele>91.3</ele>
        <time>2020-06-18T06:54:40Z</time>
      </trkpt>
      <trkpt lat="49.72077" lon="0.27931">
        <ele>91.4</ele>
        <time>2020-06-18T06:54:41Z</time>
      </trkpt>
      <trkpt lat="49.72082" lon="0.27935">
        <ele>91.4</ele>
        <time>2020-06-18T06:54:42Z</time>
      </trkpt>
      <trkpt lat="49.72087" lon="0.27939">
        <ele>91.4</ele>
        <time>2020-06-18T06:54:43Z</time>
      </trkpt>
      <trkpt lat="49.72092" lon="0.27943">
        <ele>91.4</ele>
        <time>2020-06-18T06:54:44Z</time>
      </trkpt>
      <trkpt lat="49.72097" lon="0.27947">
        <ele>91.4</ele>
        <time>2020-06-18T06:54:45Z</time>
      </trkpt>
      <trkpt lat="49.72101" lon="0.27951">
        <ele>91.4</ele>
        <time>2020-06-18T06:54:46Z</time>
      </trkpt>
      <trkpt lat="49.72106" lon="0.27955">
        <ele>91.4</ele>
        <time>2020-06-18T06:54:47Z</time>
      </trkpt>
      <trkpt lat="49.72111" lon="0.2796">
        <ele>91.3</ele>
        <time>2020-06-18T06:54:48Z</time>
      </trkpt>
      <trkpt lat="49.72116" lon="0.27964">
        <ele>91.3</ele>
        <time>2020-06-18T06:54:49Z</time>
      </trkpt>
      <trkpt lat="49.7212" lon="0.27968">
        <ele>91.3</ele>
        <time>2020-06-18T06:54:50Z</time>
      </trkpt>
      <trkpt lat="49.72125" lon="0.27972">
        <ele>91.2</ele>
        <time>2020-06-18T06:54:51Z</time>
      </trkpt>
      <trkpt lat="49.7213" lon="0.27975">
        <ele>91.2</ele>
        <time>2020-06-18T06:54:52Z</time>
      </trkpt>
      <trkpt lat="49.72136" lon="0.2798">
        <ele>91.1</ele>
        <time>2020-06-18T06:54:53Z</time>
      </trkpt>
      <trkpt lat="49.72142" lon="0.27984">
        <ele>91</ele>
        <time>2020-06-18T06:54:54Z</time>
      </trkpt>
      <trkpt lat="49.72147" lon="0.2799">
        <ele>91</ele>
        <time>2020-06-18T06:54:55Z</time>
      </trkpt>
      <trkpt lat="49.72152" lon="0.27995">
        <ele>91</ele>
        <time>2020-06-18T06:54:56Z</time>
      </trkpt>
      <trkpt lat="49.72158" lon="0.28">
        <ele>91</ele>
        <time>2020-06-18T06:54:57Z</time>
      </trkpt>
      <trkpt lat="49.72162" lon="0.28004">
        <ele>91</ele>
        <time>2020-06-18T06:54:58Z</time>
      </trkpt>
      <trkpt lat="49.72167" lon="0.28007">
        <ele>91</ele>
        <time>2020-06-18T06:54:59Z</time>
      </trkpt>
      <trkpt lat="49.72172" lon="0.2801">
        <ele>91.1</ele>
        <time>2020-06-18T06:55:00Z</time>
      </trkpt>
      <trkpt lat="49.72175" lon="0.28013">
        <ele>91.1</ele>
        <time>2020-06-18T06:55:01Z</time>
      </trkpt>
      <trkpt lat="49.72178" lon="0.28015">
        <ele>91.1</ele>
        <time>2020-06-18T06:55:02Z</time>
      </trkpt>
      <trkpt lat="49.7218" lon="0.28019">
        <ele>91</ele>
        <time>2020-06-18T06:55:03Z</time>
      </trkpt>
      <trkpt lat="49.7218" lon="0.28021">
        <ele>91</ele>
        <time>2020-06-18T06:55:04Z</time>
      </trkpt>
      <trkpt lat="49.7218" lon="0.28026">
        <ele>91</ele>
        <time>2020-06-18T06:55:05Z</time>
      </trkpt>
      <trkpt lat="49.72179" lon="0.28031">
        <ele>91</ele>
        <time>2020-06-18T06:55:06Z</time>
      </trkpt>
      <trkpt lat="49.72176" lon="0.28036">
        <ele>91</ele>
        <time>2020-06-18T06:55:07Z</time>
      </trkpt>
      <trkpt lat="49.72174" lon="0.28043">
        <ele>91.1</ele>
        <time>2020-06-18T06:55:08Z</time>
      </trkpt>
      <trkpt lat="49.72171" lon="0.28048">
        <ele>91.1</ele>
        <time>2020-06-18T06:55:09Z</time>
      </trkpt>
      <trkpt lat="49.72169" lon="0.28053">
        <ele>91.2</ele>
        <time>2020-06-18T06:55:10Z</time>
      </trkpt>
      <trkpt lat="49.72166" lon="0.28059">
        <ele>91.3</ele>
        <time>2020-06-18T06:55:11Z</time>
      </trkpt>
      <trkpt lat="49.72163" lon="0.28064">
        <ele>91.4</ele>
        <time>2020-06-18T06:55:12Z</time>
      </trkpt>
      <trkpt lat="49.7216" lon="0.28069">
        <ele>91.6</ele>
        <time>2020-06-18T06:55:13Z</time>
      </trkpt>
      <trkpt lat="49.72157" lon="0.28074">
        <ele>91.7</ele>
        <time>2020-06-18T06:55:14Z</time>
      </trkpt>
      <trkpt lat="49.72153" lon="0.28078">
        <ele>91.9</ele>
        <time>2020-06-18T06:55:15Z</time>
      </trkpt>
      <trkpt lat="49.7215" lon="0.28083">
        <ele>92</ele>
        <time>2020-06-18T06:55:16Z</time>
      </trkpt>
      <trkpt lat="49.72148" lon="0.28086">
        <ele>92.2</ele>
        <time>2020-06-18T06:55:17Z</time>
      </trkpt>
      <trkpt lat="49.72145" lon="0.28089">
        <ele>92.3</ele>
        <time>2020-06-18T06:55:18Z</time>
      </trkpt>
      <trkpt lat="49.72143" lon="0.28092">
        <ele>92.4</ele>
        <time>2020-06-18T06:55:19Z</time>
      </trkpt>
      <trkpt lat="49.7214" lon="0.28096">
        <ele>92.5</ele>
        <time>2020-06-18T06:55:20Z</time>
      </trkpt>
      <trkpt lat="49.72135" lon="0.28099">
        <ele>92.7</ele>
        <time>2020-06-18T06:55:21Z</time>
      </trkpt>
      <trkpt lat="49.72132" lon="0.28102">
        <ele>92.8</ele>
        <time>2020-06-18T06:55:22Z</time>
      </trkpt>
      <trkpt lat="49.72128" lon="0.28108">
        <ele>93</ele>
        <time>2020-06-18T06:55:23Z</time>
      </trkpt>
      <trkpt lat="49.72125" lon="0.28114">
        <ele>93.2</ele>
        <time>2020-06-18T06:55:24Z</time>
      </trkpt>
      <trkpt lat="49.72122" lon="0.28119">
        <ele>93.4</ele>
        <time>2020-06-18T06:55:25Z</time>
      </trkpt>
      <trkpt lat="49.72119" lon="0.28122">
        <ele>93.5</ele>
        <time>2020-06-18T06:55:26Z</time>
      </trkpt>
      <trkpt lat="49.72116" lon="0.28126">
        <ele>93.7</ele>
        <time>2020-06-18T06:55:27Z</time>
      </trkpt>
      <trkpt lat="49.72113" lon="0.2813">
        <ele>93.8</ele>
        <time>2020-06-18T06:55:28Z</time>
      </trkpt>
      <trkpt lat="49.7211" lon="0.28133">
        <ele>93.9</ele>
        <time>2020-06-18T06:55:29Z</time>
      </trkpt>
      <trkpt lat="49.72107" lon="0.28136">
        <ele>94</ele>
        <time>2020-06-18T06:55:30Z</time>
      </trkpt>
      <trkpt lat="49.72104" lon="0.28139">
        <ele>94.2</ele>
        <time>2020-06-18T06:55:31Z</time>
      </trkpt>
      <trkpt lat="49.721" lon="0.28144">
        <ele>94.3</ele>
        <time>2020-06-18T06:55:32Z</time>
      </trkpt>
      <trkpt lat="49.72097" lon="0.28148">
        <ele>94.4</ele>
        <time>2020-06-18T06:55:33Z</time>
      </trkpt>
      <trkpt lat="49.72094" lon="0.28153">
        <ele>94.5</ele>
        <time>2020-06-18T06:55:34Z</time>
      </trkpt>
      <trkpt lat="49.7209" lon="0.28158">
        <ele>94.6</ele>
        <time>2020-06-18T06:55:35Z</time>
      </trkpt>
      <trkpt lat="49.72086" lon="0.28162">
        <ele>94.6</ele>
        <time>2020-06-18T06:55:36Z</time>
      </trkpt>
      <trkpt lat="49.72082" lon="0.28166">
        <ele>94.6</ele>
        <time>2020-06-18T06:55:37Z</time>
      </trkpt>
      <trkpt lat="49.72078" lon="0.28172">
        <ele>94.7</ele>
        <time>2020-06-18T06:55:38Z</time>
      </trkpt>
      <trkpt lat="49.72073" lon="0.28179">
        <ele>94.7</ele>
        <time>2020-06-18T06:55:39Z</time>
      </trkpt>
      <trkpt lat="49.72069" lon="0.28185">
        <ele>94.8</ele>
        <time>2020-06-18T06:55:40Z</time>
      </trkpt>
      <trkpt lat="49.72064" lon="0.28189">
        <ele>94.9</ele>
        <time>2020-06-18T06:55:41Z</time>
      </trkpt>
      <trkpt lat="49.72059" lon="0.28194">
        <ele>95</ele>
        <time>2020-06-18T06:55:42Z</time>
      </trkpt>
      <trkpt lat="49.72054" lon="0.28199">
        <ele>95.1</ele>
        <time>2020-06-18T06:55:43Z</time>
      </trkpt>
      <trkpt lat="49.7205" lon="0.28203">
        <ele>95.1</ele>
        <time>2020-06-18T06:55:44Z</time>
      </trkpt>
      <trkpt lat="49.72044" lon="0.28207">
        <ele>95.1</ele>
        <time>2020-06-18T06:55:45Z</time>
      </trkpt>
      <trkpt lat="49.72039" lon="0.28211">
        <ele>95.1</ele>
        <time>2020-06-18T06:55:46Z</time>
      </trkpt>
      <trkpt lat="49.72034" lon="0.28215">
        <ele>95.2</ele>
        <time>2020-06-18T06:55:47Z</time>
      </trkpt>
      <trkpt lat="49.72029" lon="0.28221">
        <ele>95.2</ele>
        <time>2020-06-18T06:55:48Z</time>
      </trkpt>
      <trkpt lat="49.72025" lon="0.28225">
        <ele>95.2</ele>
        <time>2020-06-18T06:55:49Z</time>
      </trkpt>
      <trkpt lat="49.7202" lon="0.28229">
        <ele>95.3</ele>
        <time>2020-06-18T06:55:50Z</time>
      </trkpt>
      <trkpt lat="49.72015" lon="0.28234">
        <ele>95.3</ele>
        <time>2020-06-18T06:55:51Z</time>
      </trkpt>
      <trkpt lat="49.72009" lon="0.28238">
        <ele>95.4</ele>
        <time>2020-06-18T06:55:52Z</time>
      </trkpt>
      <trkpt lat="49.72005" lon="0.28242">
        <ele>95.4</ele>
        <time>2020-06-18T06:55:53Z</time>
      </trkpt>
      <trkpt lat="49.72" lon="0.28246">
        <ele>95.5</ele>
        <time>2020-06-18T06:55:54Z</time>
      </trkpt>
      <trkpt lat="49.71995" lon="0.28251">
        <ele>95.6</ele>
        <time>2020-06-18T06:55:55Z</time>
      </trkpt>
      <trkpt lat="49.71989" lon="0.28256">
        <ele>95.6</ele>
        <time>2020-06-18T06:55:56Z</time>
      </trkpt>
      <trkpt lat="49.71984" lon="0.2826">
        <ele>95.7</ele>
        <time>2020-06-18T06:55:57Z</time>
      </trkpt>
      <trkpt lat="49.7198" lon="0.28264">
        <ele>95.8</ele>
        <time>2020-06-18T06:55:58Z</time>
      </trkpt>
      <trkpt lat="49.71975" lon="0.28267">
        <ele>95.9</ele>
        <time>2020-06-18T06:55:59Z</time>
      </trkpt>
      <trkpt lat="49.71971" lon="0.28271">
        <ele>95.9</ele>
        <time>2020-06-18T06:56:00Z</time>
      </trkpt>
      <trkpt lat="49.71966" lon="0.28275">
        <ele>96</ele>
        <time>2020-06-18T06:56:01Z</time>
      </trkpt>
      <trkpt lat="49.71962" lon="0.28279">
        <ele>96.1</ele>
        <time>2020-06-18T06:56:02Z</time>
      </trkpt>
      <trkpt lat="49.71957" lon="0.28282">
        <ele>96.2</ele>
        <time>2020-06-18T06:56:03Z</time>
      </trkpt>
      <trkpt lat="49.71952" lon="0.28287">
        <ele>96.3</ele>
        <time>2020-06-18T06:56:04Z</time>
      </trkpt>
      <trkpt lat="49.71947" lon="0.2829">
        <ele>96.4</ele>
        <time>2020-06-18T06:56:05Z</time>
      </trkpt>
      <trkpt lat="49.71942" lon="0.28293">
        <ele>96.5</ele>
        <time>2020-06-18T06:56:06Z</time>
      </trkpt>
      <trkpt lat="49.71938" lon="0.28296">
        <ele>96.5</ele>
        <time>2020-06-18T06:56:07Z</time>
      </trkpt>
      <trkpt lat="49.71935" lon="0.28299">
        <ele>96.6</ele>
        <time>2020-06-18T06:56:08Z</time>
      </trkpt>
      <trkpt lat="49.71931" lon="0.28302">
        <ele>96.7</ele>
        <time>2020-06-18T06:56:09Z</time>
      </trkpt>
      <trkpt lat="49.71926" lon="0.28304">
        <ele>96.7</ele>
        <time>2020-06-18T06:56:10Z</time>
      </trkpt>
      <trkpt lat="49.71922" lon="0.28308">
        <ele>96.7</ele>
        <time>2020-06-18T06:56:11Z</time>
      </trkpt>
      <trkpt lat="49.71917" lon="0.28312">
        <ele>96.8</ele>
        <time>2020-06-18T06:56:12Z</time>
      </trkpt>
      <trkpt lat="49.71911" lon="0.28315">
        <ele>96.8</ele>
        <time>2020-06-18T06:56:13Z</time>
      </trkpt>
      <trkpt lat="49.71907" lon="0.2832">
        <ele>96.8</ele>
        <time>2020-06-18T06:56:14Z</time>
      </trkpt>
      <trkpt lat="49.71902" lon="0.28325">
        <ele>96.8</ele>
        <time>2020-06-18T06:56:15Z</time>
      </trkpt>
      <trkpt lat="49.71896" lon="0.28329">
        <ele>96.8</ele>
        <time>2020-06-18T06:56:16Z</time>
      </trkpt>
      <trkpt lat="49.7189" lon="0.28334">
        <ele>96.8</ele>
        <time>2020-06-18T06:56:17Z</time>
      </trkpt>
      <trkpt lat="49.71885" lon="0.28339">
        <ele>96.7</ele>
        <time>2020-06-18T06:56:18Z</time>
      </trkpt>
      <trkpt lat="49.7188" lon="0.28344">
        <ele>96.7</ele>
        <time>2020-06-18T06:56:19Z</time>
      </trkpt>
      <trkpt lat="49.71875" lon="0.28348">
        <ele>96.7</ele>
        <time>2020-06-18T06:56:20Z</time>
      </trkpt>
      <trkpt lat="49.7187" lon="0.28353">
        <ele>96.7</ele>
        <time>2020-06-18T06:56:21Z</time>
      </trkpt>
      <trkpt lat="49.71865" lon="0.28358">
        <ele>96.7</ele>
        <time>2020-06-18T06:56:22Z</time>
      </trkpt>
      <trkpt lat="49.7186" lon="0.28363">
        <ele>96.7</ele>
        <time>2020-06-18T06:56:23Z</time>
      </trkpt>
      <trkpt lat="49.71856" lon="0.28367">
        <ele>96.7</ele>
        <time>2020-06-18T06:56:24Z</time>
      </trkpt>
      <trkpt lat="49.71851" lon="0.28371">
        <ele>96.7</ele>
        <time>2020-06-18T06:56:25Z</time>
      </trkpt>
      <trkpt lat="49.71846" lon="0.28377">
        <ele>96.7</ele>
        <time>2020-06-18T06:56:26Z</time>
      </trkpt>
      <trkpt lat="49.71842" lon="0.28381">
        <ele>96.7</ele>
        <time>2020-06-18T06:56:27Z</time>
      </trkpt>
      <trkpt lat="49.71838" lon="0.28387">
        <ele>96.7</ele>
        <time>2020-06-18T06:56:28Z</time>
      </trkpt>
      <trkpt lat="49.71833" lon="0.28392">
        <ele>96.6</ele>
        <time>2020-06-18T06:56:29Z</time>
      </trkpt>
      <trkpt lat="49.71828" lon="0.28398">
        <ele>96.6</ele>
        <time>2020-06-18T06:56:30Z</time>
      </trkpt>
      <trkpt lat="49.71825" lon="0.28404">
        <ele>96.6</ele>
        <time>2020-06-18T06:56:31Z</time>
      </trkpt>
      <trkpt lat="49.71821" lon="0.28409">
        <ele>96.6</ele>
        <time>2020-06-18T06:56:32Z</time>
      </trkpt>
      <trkpt lat="49.71816" lon="0.28415">
        <ele>96.5</ele>
        <time>2020-06-18T06:56:33Z</time>
      </trkpt>
      <trkpt lat="49.71812" lon="0.28421">
        <ele>96.5</ele>
        <time>2020-06-18T06:56:34Z</time>
      </trkpt>
      <trkpt lat="49.71809" lon="0.28428">
        <ele>96.5</ele>
        <time>2020-06-18T06:56:35Z</time>
      </trkpt>
      <trkpt lat="49.71805" lon="0.28434">
        <ele>96.5</ele>
        <time>2020-06-18T06:56:36Z</time>
      </trkpt>
      <trkpt lat="49.71803" lon="0.28439">
        <ele>96.5</ele>
        <time>2020-06-18T06:56:37Z</time>
      </trkpt>
      <trkpt lat="49.718" lon="0.28446">
        <ele>96.5</ele>
        <time>2020-06-18T06:56:38Z</time>
      </trkpt>
      <trkpt lat="49.71796" lon="0.28452">
        <ele>96.5</ele>
        <time>2020-06-18T06:56:39Z</time>
      </trkpt>
      <trkpt lat="49.71793" lon="0.2846">
        <ele>96.5</ele>
        <time>2020-06-18T06:56:40Z</time>
      </trkpt>
      <trkpt lat="49.7179" lon="0.28468">
        <ele>96.5</ele>
        <time>2020-06-18T06:56:41Z</time>
      </trkpt>
      <trkpt lat="49.71787" lon="0.28477">
        <ele>96.6</ele>
        <time>2020-06-18T06:56:42Z</time>
      </trkpt>
      <trkpt lat="49.71785" lon="0.28484">
        <ele>96.5</ele>
        <time>2020-06-18T06:56:43Z</time>
      </trkpt>
      <trkpt lat="49.71782" lon="0.28493">
        <ele>96.5</ele>
        <time>2020-06-18T06:56:44Z</time>
      </trkpt>
      <trkpt lat="49.71779" lon="0.28501">
        <ele>96.5</ele>
        <time>2020-06-18T06:56:45Z</time>
      </trkpt>
      <trkpt lat="49.71776" lon="0.28509">
        <ele>96.4</ele>
        <time>2020-06-18T06:56:46Z</time>
      </trkpt>
      <trkpt lat="49.71773" lon="0.28517">
        <ele>96.3</ele>
        <time>2020-06-18T06:56:47Z</time>
      </trkpt>
      <trkpt lat="49.7177" lon="0.28525">
        <ele>96.2</ele>
        <time>2020-06-18T06:56:48Z</time>
      </trkpt>
      <trkpt lat="49.71767" lon="0.28532">
        <ele>96.1</ele>
        <time>2020-06-18T06:56:49Z</time>
      </trkpt>
      <trkpt lat="49.71764" lon="0.28538">
        <ele>96</ele>
        <time>2020-06-18T06:56:50Z</time>
      </trkpt>
      <trkpt lat="49.71761" lon="0.28545">
        <ele>95.8</ele>
        <time>2020-06-18T06:56:51Z</time>
      </trkpt>
      <trkpt lat="49.7176" lon="0.28552">
        <ele>95.7</ele>
        <time>2020-06-18T06:56:52Z</time>
      </trkpt>
      <trkpt lat="49.71758" lon="0.28559">
        <ele>95.5</ele>
        <time>2020-06-18T06:56:53Z</time>
      </trkpt>
      <trkpt lat="49.71756" lon="0.28566">
        <ele>95.3</ele>
        <time>2020-06-18T06:56:54Z</time>
      </trkpt>
      <trkpt lat="49.71753" lon="0.28571">
        <ele>95.2</ele>
        <time>2020-06-18T06:56:55Z</time>
      </trkpt>
      <trkpt lat="49.7175" lon="0.28578">
        <ele>94.9</ele>
        <time>2020-06-18T06:56:56Z</time>
      </trkpt>
      <trkpt lat="49.71747" lon="0.28585">
        <ele>94.7</ele>
        <time>2020-06-18T06:56:57Z</time>
      </trkpt>
      <trkpt lat="49.71743" lon="0.28593">
        <ele>94.4</ele>
        <time>2020-06-18T06:56:58Z</time>
      </trkpt>
      <trkpt lat="49.7174" lon="0.28599">
        <ele>94.1</ele>
        <time>2020-06-18T06:56:59Z</time>
      </trkpt>
      <trkpt lat="49.71736" lon="0.28606">
        <ele>93.9</ele>
        <time>2020-06-18T06:57:00Z</time>
      </trkpt>
      <trkpt lat="49.71732" lon="0.28613">
        <ele>93.6</ele>
        <time>2020-06-18T06:57:01Z</time>
      </trkpt>
      <trkpt lat="49.71728" lon="0.28621">
        <ele>93.3</ele>
        <time>2020-06-18T06:57:02Z</time>
      </trkpt>
      <trkpt lat="49.71723" lon="0.28631">
        <ele>92.9</ele>
        <time>2020-06-18T06:57:03Z</time>
      </trkpt>
      <trkpt lat="49.71719" lon="0.28643">
        <ele>92.7</ele>
        <time>2020-06-18T06:57:04Z</time>
      </trkpt>
      <trkpt lat="49.71714" lon="0.28655">
        <ele>92.1</ele>
        <time>2020-06-18T06:57:05Z</time>
      </trkpt>
      <trkpt lat="49.71709" lon="0.28665">
        <ele>91.5</ele>
        <time>2020-06-18T06:57:06Z</time>
      </trkpt>
      <trkpt lat="49.71704" lon="0.28676">
        <ele>90.8</ele>
        <time>2020-06-18T06:57:07Z</time>
      </trkpt>
      <trkpt lat="49.71698" lon="0.28687">
        <ele>90.2</ele>
        <time>2020-06-18T06:57:08Z</time>
      </trkpt>
      <trkpt lat="49.71692" lon="0.28698">
        <ele>89.5</ele>
        <time>2020-06-18T06:57:09Z</time>
      </trkpt>
      <trkpt lat="49.71687" lon="0.28708">
        <ele>88.9</ele>
        <time>2020-06-18T06:57:10Z</time>
      </trkpt>
      <trkpt lat="49.71681" lon="0.28718">
        <ele>88.3</ele>
        <time>2020-06-18T06:57:11Z</time>
      </trkpt>
      <trkpt lat="49.71676" lon="0.28728">
        <ele>87.8</ele>
        <time>2020-06-18T06:57:12Z</time>
      </trkpt>
      <trkpt lat="49.7167" lon="0.28737">
        <ele>87.1</ele>
        <time>2020-06-18T06:57:13Z</time>
      </trkpt>
      <trkpt lat="49.71663" lon="0.28747">
        <ele>86.5</ele>
        <time>2020-06-18T06:57:14Z</time>
      </trkpt>
      <trkpt lat="49.71657" lon="0.28757">
        <ele>85.9</ele>
        <time>2020-06-18T06:57:15Z</time>
      </trkpt>
      <trkpt lat="49.71651" lon="0.28767">
        <ele>85.3</ele>
        <time>2020-06-18T06:57:16Z</time>
      </trkpt>
      <trkpt lat="49.71645" lon="0.28776">
        <ele>84.8</ele>
        <time>2020-06-18T06:57:17Z</time>
      </trkpt>
      <trkpt lat="49.71639" lon="0.28786">
        <ele>84.4</ele>
        <time>2020-06-18T06:57:18Z</time>
      </trkpt>
      <trkpt lat="49.71633" lon="0.28796">
        <ele>84.1</ele>
        <time>2020-06-18T06:57:19Z</time>
      </trkpt>
      <trkpt lat="49.71629" lon="0.28807">
        <ele>83.9</ele>
        <time>2020-06-18T06:57:20Z</time>
      </trkpt>
      <trkpt lat="49.71625" lon="0.28817">
        <ele>83.7</ele>
        <time>2020-06-18T06:57:21Z</time>
      </trkpt>
      <trkpt lat="49.71622" lon="0.28828">
        <ele>83.6</ele>
        <time>2020-06-18T06:57:22Z</time>
      </trkpt>
      <trkpt lat="49.7162" lon="0.28839">
        <ele>83.6</ele>
        <time>2020-06-18T06:57:23Z</time>
      </trkpt>
      <trkpt lat="49.71618" lon="0.28849">
        <ele>83.6</ele>
        <time>2020-06-18T06:57:24Z</time>
      </trkpt>
      <trkpt lat="49.71616" lon="0.2886">
        <ele>83.6</ele>
        <time>2020-06-18T06:57:25Z</time>
      </trkpt>
      <trkpt lat="49.71615" lon="0.2887">
        <ele>83.6</ele>
        <time>2020-06-18T06:57:26Z</time>
      </trkpt>
      <trkpt lat="49.71613" lon="0.28881">
        <ele>83.7</ele>
        <time>2020-06-18T06:57:27Z</time>
      </trkpt>
      <trkpt lat="49.71611" lon="0.28891">
        <ele>83.8</ele>
        <time>2020-06-18T06:57:28Z</time>
      </trkpt>
      <trkpt lat="49.71609" lon="0.28901">
        <ele>84</ele>
        <time>2020-06-18T06:57:29Z</time>
      </trkpt>
      <trkpt lat="49.71607" lon="0.28911">
        <ele>84.2</ele>
        <time>2020-06-18T06:57:30Z</time>
      </trkpt>
      <trkpt lat="49.71605" lon="0.2892">
        <ele>84.4</ele>
        <time>2020-06-18T06:57:31Z</time>
      </trkpt>
      <trkpt lat="49.71604" lon="0.28929">
        <ele>84.6</ele>
        <time>2020-06-18T06:57:32Z</time>
      </trkpt>
      <trkpt lat="49.71602" lon="0.28938">
        <ele>84.9</ele>
        <time>2020-06-18T06:57:33Z</time>
      </trkpt>
      <trkpt lat="49.71601" lon="0.28949">
        <ele>85.1</ele>
        <time>2020-06-18T06:57:34Z</time>
      </trkpt>
      <trkpt lat="49.71599" lon="0.28958">
        <ele>85.4</ele>
        <time>2020-06-18T06:57:35Z</time>
      </trkpt>
      <trkpt lat="49.71598" lon="0.28967">
        <ele>85.6</ele>
        <time>2020-06-18T06:57:36Z</time>
      </trkpt>
      <trkpt lat="49.71595" lon="0.28976">
        <ele>85.9</ele>
        <time>2020-06-18T06:57:37Z</time>
      </trkpt>
      <trkpt lat="49.71593" lon="0.28984">
        <ele>86.1</ele>
        <time>2020-06-18T06:57:38Z</time>
      </trkpt>
      <trkpt lat="49.71591" lon="0.28992">
        <ele>86.4</ele>
        <time>2020-06-18T06:57:39Z</time>
      </trkpt>
      <trkpt lat="49.71589" lon="0.28999">
        <ele>86.5</ele>
        <time>2020-06-18T06:57:40Z</time>
      </trkpt>
      <trkpt lat="49.71586" lon="0.29006">
        <ele>86.7</ele>
        <time>2020-06-18T06:57:41Z</time>
      </trkpt>
      <trkpt lat="49.71583" lon="0.29014">
        <ele>86.9</ele>
        <time>2020-06-18T06:57:42Z</time>
      </trkpt>
      <trkpt lat="49.71581" lon="0.29023">
        <ele>87.1</ele>
        <time>2020-06-18T06:57:43Z</time>
      </trkpt>
      <trkpt lat="49.71579" lon="0.29031">
        <ele>87.3</ele>
        <time>2020-06-18T06:57:44Z</time>
      </trkpt>
      <trkpt lat="49.71577" lon="0.29038">
        <ele>87.5</ele>
        <time>2020-06-18T06:57:45Z</time>
      </trkpt>
      <trkpt lat="49.71575" lon="0.29045">
        <ele>87.6</ele>
        <time>2020-06-18T06:57:46Z</time>
      </trkpt>
      <trkpt lat="49.71571" lon="0.29052">
        <ele>87.7</ele>
        <time>2020-06-18T06:57:47Z</time>
      </trkpt>
      <trkpt lat="49.71568" lon="0.29058">
        <ele>87.8</ele>
        <time>2020-06-18T06:57:48Z</time>
      </trkpt>
      <trkpt lat="49.71564" lon="0.29065">
        <ele>87.9</ele>
        <time>2020-06-18T06:57:49Z</time>
      </trkpt>
      <trkpt lat="49.7156" lon="0.29072">
        <ele>88</ele>
        <time>2020-06-18T06:57:50Z</time>
      </trkpt>
      <trkpt lat="49.71558" lon="0.29079">
        <ele>88</ele>
        <time>2020-06-18T06:57:51Z</time>
      </trkpt>
      <trkpt lat="49.71554" lon="0.29085">
        <ele>88</ele>
        <time>2020-06-18T06:57:52Z</time>
      </trkpt>
      <trkpt lat="49.7155" lon="0.29092">
        <ele>88</ele>
        <time>2020-06-18T06:57:53Z</time>
      </trkpt>
      <trkpt lat="49.71547" lon="0.29098">
        <ele>87.9</ele>
        <time>2020-06-18T06:57:54Z</time>
      </trkpt>
      <trkpt lat="49.71544" lon="0.29104">
        <ele>87.9</ele>
        <time>2020-06-18T06:57:55Z</time>
      </trkpt>
      <trkpt lat="49.71541" lon="0.29112">
        <ele>87.8</ele>
        <time>2020-06-18T06:57:56Z</time>
      </trkpt>
      <trkpt lat="49.71537" lon="0.2912">
        <ele>87.2</ele>
        <time>2020-06-18T06:57:57Z</time>
      </trkpt>
      <trkpt lat="49.71535" lon="0.29128">
        <ele>86.9</ele>
        <time>2020-06-18T06:57:58Z</time>
      </trkpt>
      <trkpt lat="49.71532" lon="0.29136">
        <ele>86.7</ele>
        <time>2020-06-18T06:57:59Z</time>
      </trkpt>
      <trkpt lat="49.7153" lon="0.29144">
        <ele>86.5</ele>
        <time>2020-06-18T06:58:00Z</time>
      </trkpt>
      <trkpt lat="49.71528" lon="0.29152">
        <ele>86.3</ele>
        <time>2020-06-18T06:58:01Z</time>
      </trkpt>
      <trkpt lat="49.71525" lon="0.2916">
        <ele>86.1</ele>
        <time>2020-06-18T06:58:02Z</time>
      </trkpt>
      <trkpt lat="49.71523" lon="0.2917">
        <ele>86</ele>
        <time>2020-06-18T06:58:03Z</time>
      </trkpt>
      <trkpt lat="49.71521" lon="0.2918">
        <ele>85.8</ele>
        <time>2020-06-18T06:58:04Z</time>
      </trkpt>
      <trkpt lat="49.71518" lon="0.29191">
        <ele>85.6</ele>
        <time>2020-06-18T06:58:05Z</time>
      </trkpt>
      <trkpt lat="49.71516" lon="0.29201">
        <ele>85.5</ele>
        <time>2020-06-18T06:58:06Z</time>
      </trkpt>
      <trkpt lat="49.71515" lon="0.29213">
        <ele>85.2</ele>
        <time>2020-06-18T06:58:07Z</time>
      </trkpt>
      <trkpt lat="49.71513" lon="0.29223">
        <ele>85</ele>
        <time>2020-06-18T06:58:08Z</time>
      </trkpt>
      <trkpt lat="49.7151" lon="0.29234">
        <ele>84.8</ele>
        <time>2020-06-18T06:58:09Z</time>
      </trkpt>
      <trkpt lat="49.71508" lon="0.29245">
        <ele>84.7</ele>
        <time>2020-06-18T06:58:10Z</time>
      </trkpt>
      <trkpt lat="49.71507" lon="0.29254">
        <ele>84.6</ele>
        <time>2020-06-18T06:58:11Z</time>
      </trkpt>
      <trkpt lat="49.71505" lon="0.29263">
        <ele>84.6</ele>
        <time>2020-06-18T06:58:12Z</time>
      </trkpt>
      <trkpt lat="49.71503" lon="0.29274">
        <ele>84.6</ele>
        <time>2020-06-18T06:58:13Z</time>
      </trkpt>
      <trkpt lat="49.71501" lon="0.29283">
        <ele>84.6</ele>
        <time>2020-06-18T06:58:14Z</time>
      </trkpt>
      <trkpt lat="49.71499" lon="0.29293">
        <ele>84.7</ele>
        <time>2020-06-18T06:58:15Z</time>
      </trkpt>
      <trkpt lat="49.71497" lon="0.29302">
        <ele>84.8</ele>
        <time>2020-06-18T06:58:16Z</time>
      </trkpt>
      <trkpt lat="49.71494" lon="0.29311">
        <ele>84.9</ele>
        <time>2020-06-18T06:58:17Z</time>
      </trkpt>
      <trkpt lat="49.71491" lon="0.29319">
        <ele>85.1</ele>
        <time>2020-06-18T06:58:18Z</time>
      </trkpt>
      <trkpt lat="49.71489" lon="0.29328">
        <ele>85.2</ele>
        <time>2020-06-18T06:58:19Z</time>
      </trkpt>
      <trkpt lat="49.71486" lon="0.29335">
        <ele>85.3</ele>
        <time>2020-06-18T06:58:20Z</time>
      </trkpt>
      <trkpt lat="49.71484" lon="0.29343">
        <ele>85.5</ele>
        <time>2020-06-18T06:58:21Z</time>
      </trkpt>
      <trkpt lat="49.7148" lon="0.29349">
        <ele>85.7</ele>
        <time>2020-06-18T06:58:22Z</time>
      </trkpt>
      <trkpt lat="49.71477" lon="0.29357">
        <ele>86</ele>
        <time>2020-06-18T06:58:23Z</time>
      </trkpt>
      <trkpt lat="49.71475" lon="0.29364">
        <ele>86.3</ele>
        <time>2020-06-18T06:58:24Z</time>
      </trkpt>
      <trkpt lat="49.71472" lon="0.2937">
        <ele>86.5</ele>
        <time>2020-06-18T06:58:25Z</time>
      </trkpt>
      <trkpt lat="49.71469" lon="0.29377">
        <ele>86.8</ele>
        <time>2020-06-18T06:58:26Z</time>
      </trkpt>
      <trkpt lat="49.71467" lon="0.29384">
        <ele>87</ele>
        <time>2020-06-18T06:58:27Z</time>
      </trkpt>
      <trkpt lat="49.71465" lon="0.2939">
        <ele>87.2</ele>
        <time>2020-06-18T06:58:28Z</time>
      </trkpt>
      <trkpt lat="49.71462" lon="0.29396">
        <ele>87.4</ele>
        <time>2020-06-18T06:58:29Z</time>
      </trkpt>
      <trkpt lat="49.7146" lon="0.29402">
        <ele>87.6</ele>
        <time>2020-06-18T06:58:30Z</time>
      </trkpt>
      <trkpt lat="49.71457" lon="0.29408">
        <ele>87.8</ele>
        <time>2020-06-18T06:58:31Z</time>
      </trkpt>
      <trkpt lat="49.71454" lon="0.29413">
        <ele>88</ele>
        <time>2020-06-18T06:58:32Z</time>
      </trkpt>
      <trkpt lat="49.71451" lon="0.29418">
        <ele>88.2</ele>
        <time>2020-06-18T06:58:33Z</time>
      </trkpt>
      <trkpt lat="49.71449" lon="0.29424">
        <ele>88.4</ele>
        <time>2020-06-18T06:58:34Z</time>
      </trkpt>
      <trkpt lat="49.71446" lon="0.29429">
        <ele>88.6</ele>
        <time>2020-06-18T06:58:35Z</time>
      </trkpt>
      <trkpt lat="49.71444" lon="0.29434">
        <ele>88.8</ele>
        <time>2020-06-18T06:58:36Z</time>
      </trkpt>
      <trkpt lat="49.71442" lon="0.2944">
        <ele>89</ele>
        <time>2020-06-18T06:58:37Z</time>
      </trkpt>
      <trkpt lat="49.71439" lon="0.29445">
        <ele>89.3</ele>
        <time>2020-06-18T06:58:38Z</time>
      </trkpt>
      <trkpt lat="49.71437" lon="0.29452">
        <ele>89.5</ele>
        <time>2020-06-18T06:58:39Z</time>
      </trkpt>
      <trkpt lat="49.71434" lon="0.29458">
        <ele>89.8</ele>
        <time>2020-06-18T06:58:40Z</time>
      </trkpt>
      <trkpt lat="49.71432" lon="0.29465">
        <ele>90</ele>
        <time>2020-06-18T06:58:41Z</time>
      </trkpt>
      <trkpt lat="49.7143" lon="0.29472">
        <ele>90.3</ele>
        <time>2020-06-18T06:58:42Z</time>
      </trkpt>
      <trkpt lat="49.71428" lon="0.29478">
        <ele>90.5</ele>
        <time>2020-06-18T06:58:43Z</time>
      </trkpt>
      <trkpt lat="49.71426" lon="0.29484">
        <ele>90.7</ele>
        <time>2020-06-18T06:58:44Z</time>
      </trkpt>
      <trkpt lat="49.71424" lon="0.29489">
        <ele>90.9</ele>
        <time>2020-06-18T06:58:45Z</time>
      </trkpt>
      <trkpt lat="49.71422" lon="0.29496">
        <ele>91.1</ele>
        <time>2020-06-18T06:58:46Z</time>
      </trkpt>
      <trkpt lat="49.7142" lon="0.29502">
        <ele>91.3</ele>
        <time>2020-06-18T06:58:47Z</time>
      </trkpt>
      <trkpt lat="49.71419" lon="0.29508">
        <ele>91.5</ele>
        <time>2020-06-18T06:58:48Z</time>
      </trkpt>
      <trkpt lat="49.71417" lon="0.29515">
        <ele>91.8</ele>
        <time>2020-06-18T06:58:49Z</time>
      </trkpt>
      <trkpt lat="49.71415" lon="0.29522">
        <ele>92</ele>
        <time>2020-06-18T06:58:50Z</time>
      </trkpt>
      <trkpt lat="49.71414" lon="0.29528">
        <ele>92.2</ele>
        <time>2020-06-18T06:58:51Z</time>
      </trkpt>
      <trkpt lat="49.71413" lon="0.29535">
        <ele>92.4</ele>
        <time>2020-06-18T06:58:52Z</time>
      </trkpt>
      <trkpt lat="49.71413" lon="0.29541">
        <ele>92.6</ele>
        <time>2020-06-18T06:58:53Z</time>
      </trkpt>
      <trkpt lat="49.71412" lon="0.29547">
        <ele>92.8</ele>
        <time>2020-06-18T06:58:54Z</time>
      </trkpt>
      <trkpt lat="49.71411" lon="0.29552">
        <ele>93</ele>
        <time>2020-06-18T06:58:55Z</time>
      </trkpt>
      <trkpt lat="49.7141" lon="0.29559">
        <ele>93.2</ele>
        <time>2020-06-18T06:58:56Z</time>
      </trkpt>
      <trkpt lat="49.71409" lon="0.29566">
        <ele>93.4</ele>
        <time>2020-06-18T06:58:57Z</time>
      </trkpt>
      <trkpt lat="49.71407" lon="0.29572">
        <ele>93.6</ele>
        <time>2020-06-18T06:58:58Z</time>
      </trkpt>
      <trkpt lat="49.71406" lon="0.29578">
        <ele>93.8</ele>
        <time>2020-06-18T06:58:59Z</time>
      </trkpt>
      <trkpt lat="49.71404" lon="0.29585">
        <ele>93.9</ele>
        <time>2020-06-18T06:59:00Z</time>
      </trkpt>
      <trkpt lat="49.71404" lon="0.29591">
        <ele>94.1</ele>
        <time>2020-06-18T06:59:01Z</time>
      </trkpt>
      <trkpt lat="49.71402" lon="0.29597">
        <ele>94.3</ele>
        <time>2020-06-18T06:59:02Z</time>
      </trkpt>
      <trkpt lat="49.71401" lon="0.29601">
        <ele>94.4</ele>
        <time>2020-06-18T06:59:03Z</time>
      </trkpt>
      <trkpt lat="49.714" lon="0.29607">
        <ele>94.5</ele>
        <time>2020-06-18T06:59:04Z</time>
      </trkpt>
      <trkpt lat="49.71398" lon="0.29614">
        <ele>94.7</ele>
        <time>2020-06-18T06:59:05Z</time>
      </trkpt>
      <trkpt lat="49.71396" lon="0.2962">
        <ele>94.9</ele>
        <time>2020-06-18T06:59:06Z</time>
      </trkpt>
      <trkpt lat="49.71395" lon="0.29627">
        <ele>95.1</ele>
        <time>2020-06-18T06:59:07Z</time>
      </trkpt>
      <trkpt lat="49.71393" lon="0.29633">
        <ele>95.2</ele>
        <time>2020-06-18T06:59:08Z</time>
      </trkpt>
      <trkpt lat="49.7139" lon="0.29639">
        <ele>95.4</ele>
        <time>2020-06-18T06:59:09Z</time>
      </trkpt>
      <trkpt lat="49.71389" lon="0.29645">
        <ele>95.5</ele>
        <time>2020-06-18T06:59:10Z</time>
      </trkpt>
      <trkpt lat="49.71387" lon="0.2965">
        <ele>95.6</ele>
        <time>2020-06-18T06:59:11Z</time>
      </trkpt>
      <trkpt lat="49.71384" lon="0.29657">
        <ele>95.8</ele>
        <time>2020-06-18T06:59:12Z</time>
      </trkpt>
      <trkpt lat="49.71381" lon="0.29664">
        <ele>96</ele>
        <time>2020-06-18T06:59:13Z</time>
      </trkpt>
      <trkpt lat="49.71378" lon="0.29669">
        <ele>96.1</ele>
        <time>2020-06-18T06:59:14Z</time>
      </trkpt>
      <trkpt lat="49.71376" lon="0.29675">
        <ele>96.3</ele>
        <time>2020-06-18T06:59:15Z</time>
      </trkpt>
      <trkpt lat="49.71374" lon="0.29681">
        <ele>96.4</ele>
        <time>2020-06-18T06:59:16Z</time>
      </trkpt>
      <trkpt lat="49.71371" lon="0.29687">
        <ele>96.5</ele>
        <time>2020-06-18T06:59:17Z</time>
      </trkpt>
      <trkpt lat="49.71369" lon="0.29693">
        <ele>96.7</ele>
        <time>2020-06-18T06:59:18Z</time>
      </trkpt>
      <trkpt lat="49.71367" lon="0.29699">
        <ele>96.8</ele>
        <time>2020-06-18T06:59:19Z</time>
      </trkpt>
      <trkpt lat="49.71364" lon="0.29706">
        <ele>96.9</ele>
        <time>2020-06-18T06:59:20Z</time>
      </trkpt>
      <trkpt lat="49.71362" lon="0.29711">
        <ele>97</ele>
        <time>2020-06-18T06:59:21Z</time>
      </trkpt>
      <trkpt lat="49.7136" lon="0.29718">
        <ele>97</ele>
        <time>2020-06-18T06:59:22Z</time>
      </trkpt>
      <trkpt lat="49.71357" lon="0.29723">
        <ele>97</ele>
        <time>2020-06-18T06:59:23Z</time>
      </trkpt>
      <trkpt lat="49.71355" lon="0.29728">
        <ele>97</ele>
        <time>2020-06-18T06:59:24Z</time>
      </trkpt>
      <trkpt lat="49.71352" lon="0.29733">
        <ele>97</ele>
        <time>2020-06-18T06:59:25Z</time>
      </trkpt>
      <trkpt lat="49.71349" lon="0.2974">
        <ele>97</ele>
        <time>2020-06-18T06:59:26Z</time>
      </trkpt>
      <trkpt lat="49.71346" lon="0.29746">
        <ele>96.9</ele>
        <time>2020-06-18T06:59:27Z</time>
      </trkpt>
      <trkpt lat="49.71344" lon="0.29752">
        <ele>96.9</ele>
        <time>2020-06-18T06:59:28Z</time>
      </trkpt>
      <trkpt lat="49.7134" lon="0.29759">
        <ele>96.8</ele>
        <time>2020-06-18T06:59:29Z</time>
      </trkpt>
      <trkpt lat="49.71337" lon="0.29766">
        <ele>96.8</ele>
        <time>2020-06-18T06:59:30Z</time>
      </trkpt>
      <trkpt lat="49.71334" lon="0.29773">
        <ele>96.8</ele>
        <time>2020-06-18T06:59:31Z</time>
      </trkpt>
      <trkpt lat="49.71331" lon="0.2978">
        <ele>96.8</ele>
        <time>2020-06-18T06:59:32Z</time>
      </trkpt>
      <trkpt lat="49.71327" lon="0.29787">
        <ele>96.7</ele>
        <time>2020-06-18T06:59:33Z</time>
      </trkpt>
      <trkpt lat="49.71323" lon="0.29794">
        <ele>96.7</ele>
        <time>2020-06-18T06:59:34Z</time>
      </trkpt>
      <trkpt lat="49.71319" lon="0.29801">
        <ele>96.6</ele>
        <time>2020-06-18T06:59:35Z</time>
      </trkpt>
      <trkpt lat="49.71316" lon="0.29808">
        <ele>96.5</ele>
        <time>2020-06-18T06:59:36Z</time>
      </trkpt>
      <trkpt lat="49.71312" lon="0.29815">
        <ele>96.5</ele>
        <time>2020-06-18T06:59:37Z</time>
      </trkpt>
      <trkpt lat="49.71309" lon="0.29821">
        <ele>96.4</ele>
        <time>2020-06-18T06:59:38Z</time>
      </trkpt>
      <trkpt lat="49.71304" lon="0.29827">
        <ele>96.4</ele>
        <time>2020-06-18T06:59:39Z</time>
      </trkpt>
      <trkpt lat="49.713" lon="0.29834">
        <ele>96.3</ele>
        <time>2020-06-18T06:59:40Z</time>
      </trkpt>
      <trkpt lat="49.71297" lon="0.29841">
        <ele>96.3</ele>
        <time>2020-06-18T06:59:41Z</time>
      </trkpt>
      <trkpt lat="49.71293" lon="0.29848">
        <ele>96.2</ele>
        <time>2020-06-18T06:59:42Z</time>
      </trkpt>
      <trkpt lat="49.71289" lon="0.29854">
        <ele>96.2</ele>
        <time>2020-06-18T06:59:43Z</time>
      </trkpt>
      <trkpt lat="49.71286" lon="0.2986">
        <ele>96.2</ele>
        <time>2020-06-18T06:59:44Z</time>
      </trkpt>
      <trkpt lat="49.71282" lon="0.29867">
        <ele>96.1</ele>
        <time>2020-06-18T06:59:45Z</time>
      </trkpt>
      <trkpt lat="49.71277" lon="0.29873">
        <ele>96.1</ele>
        <time>2020-06-18T06:59:46Z</time>
      </trkpt>
      <trkpt lat="49.71273" lon="0.29881">
        <ele>96</ele>
        <time>2020-06-18T06:59:47Z</time>
      </trkpt>
      <trkpt lat="49.71269" lon="0.29888">
        <ele>95.9</ele>
        <time>2020-06-18T06:59:48Z</time>
      </trkpt>
      <trkpt lat="49.71264" lon="0.29896">
        <ele>95.9</ele>
        <time>2020-06-18T06:59:49Z</time>
      </trkpt>
      <trkpt lat="49.7126" lon="0.29903">
        <ele>95.8</ele>
        <time>2020-06-18T06:59:50Z</time>
      </trkpt>
      <trkpt lat="49.71256" lon="0.2991">
        <ele>95.7</ele>
        <time>2020-06-18T06:59:51Z</time>
      </trkpt>
      <trkpt lat="49.71252" lon="0.29918">
        <ele>95.7</ele>
        <time>2020-06-18T06:59:52Z</time>
      </trkpt>
      <trkpt lat="49.71248" lon="0.29926">
        <ele>95.6</ele>
        <time>2020-06-18T06:59:53Z</time>
      </trkpt>
      <trkpt lat="49.71243" lon="0.29934">
        <ele>95.5</ele>
        <time>2020-06-18T06:59:54Z</time>
      </trkpt>
      <trkpt lat="49.71238" lon="0.29942">
        <ele>95.4</ele>
        <time>2020-06-18T06:59:55Z</time>
      </trkpt>
      <trkpt lat="49.71234" lon="0.2995">
        <ele>95.4</ele>
        <time>2020-06-18T06:59:56Z</time>
      </trkpt>
      <trkpt lat="49.7123" lon="0.29957">
        <ele>95.3</ele>
        <time>2020-06-18T06:59:57Z</time>
      </trkpt>
      <trkpt lat="49.71226" lon="0.29963">
        <ele>95.2</ele>
        <time>2020-06-18T06:59:58Z</time>
      </trkpt>
      <trkpt lat="49.71222" lon="0.2997">
        <ele>95.2</ele>
        <time>2020-06-18T06:59:59Z</time>
      </trkpt>
      <trkpt lat="49.71218" lon="0.29976">
        <ele>95.2</ele>
        <time>2020-06-18T07:00:00Z</time>
      </trkpt>
      <trkpt lat="49.71214" lon="0.29983">
        <ele>95.2</ele>
        <time>2020-06-18T07:00:01Z</time>
      </trkpt>
      <trkpt lat="49.7121" lon="0.2999">
        <ele>95.1</ele>
        <time>2020-06-18T07:00:02Z</time>
      </trkpt>
      <trkpt lat="49.71207" lon="0.29997">
        <ele>95.1</ele>
        <time>2020-06-18T07:00:03Z</time>
      </trkpt>
      <trkpt lat="49.71203" lon="0.30004">
        <ele>95</ele>
        <time>2020-06-18T07:00:04Z</time>
      </trkpt>
      <trkpt lat="49.71199" lon="0.30011">
        <ele>94.9</ele>
        <time>2020-06-18T07:00:05Z</time>
      </trkpt>
      <trkpt lat="49.71195" lon="0.3002">
        <ele>94.8</ele>
        <time>2020-06-18T07:00:06Z</time>
      </trkpt>
      <trkpt lat="49.71192" lon="0.30027">
        <ele>94.7</ele>
        <time>2020-06-18T07:00:07Z</time>
      </trkpt>
      <trkpt lat="49.71188" lon="0.30035">
        <ele>94.6</ele>
        <time>2020-06-18T07:00:08Z</time>
      </trkpt>
      <trkpt lat="49.71185" lon="0.30043">
        <ele>94.5</ele>
        <time>2020-06-18T07:00:09Z</time>
      </trkpt>
      <trkpt lat="49.7118" lon="0.3005">
        <ele>94.5</ele>
        <time>2020-06-18T07:00:10Z</time>
      </trkpt>
      <trkpt lat="49.71177" lon="0.30059">
        <ele>94.4</ele>
        <time>2020-06-18T07:00:11Z</time>
      </trkpt>
      <trkpt lat="49.71174" lon="0.30068">
        <ele>94.4</ele>
        <time>2020-06-18T07:00:12Z</time>
      </trkpt>
      <trkpt lat="49.71172" lon="0.30077">
        <ele>94.3</ele>
        <time>2020-06-18T07:00:13Z</time>
      </trkpt>
      <trkpt lat="49.7117" lon="0.30086">
        <ele>94.3</ele>
        <time>2020-06-18T07:00:14Z</time>
      </trkpt>
      <trkpt lat="49.71168" lon="0.30097">
        <ele>94.4</ele>
        <time>2020-06-18T07:00:15Z</time>
      </trkpt>
      <trkpt lat="49.71166" lon="0.30106">
        <ele>94.4</ele>
        <time>2020-06-18T07:00:16Z</time>
      </trkpt>
      <trkpt lat="49.71164" lon="0.30114">
        <ele>94.5</ele>
        <time>2020-06-18T07:00:17Z</time>
      </trkpt>
      <trkpt lat="49.71162" lon="0.30123">
        <ele>94.5</ele>
        <time>2020-06-18T07:00:18Z</time>
      </trkpt>
      <trkpt lat="49.71161" lon="0.30133">
        <ele>94.6</ele>
        <time>2020-06-18T07:00:19Z</time>
      </trkpt>
      <trkpt lat="49.7116" lon="0.30143">
        <ele>94.8</ele>
        <time>2020-06-18T07:00:20Z</time>
      </trkpt>
      <trkpt lat="49.71159" lon="0.3015">
        <ele>94.8</ele>
        <time>2020-06-18T07:00:21Z</time>
      </trkpt>
      <trkpt lat="49.71157" lon="0.3016">
        <ele>94.9</ele>
        <time>2020-06-18T07:00:22Z</time>
      </trkpt>
      <trkpt lat="49.71155" lon="0.3017">
        <ele>95.1</ele>
        <time>2020-06-18T07:00:23Z</time>
      </trkpt>
      <trkpt lat="49.71153" lon="0.30181">
        <ele>95.2</ele>
        <time>2020-06-18T07:00:24Z</time>
      </trkpt>
      <trkpt lat="49.71153" lon="0.3019">
        <ele>95.4</ele>
        <time>2020-06-18T07:00:25Z</time>
      </trkpt>
      <trkpt lat="49.71152" lon="0.30199">
        <ele>95.5</ele>
        <time>2020-06-18T07:00:26Z</time>
      </trkpt>
      <trkpt lat="49.71151" lon="0.30205">
        <ele>95.7</ele>
        <time>2020-06-18T07:00:27Z</time>
      </trkpt>
      <trkpt lat="49.71151" lon="0.30213">
        <ele>95.8</ele>
        <time>2020-06-18T07:00:28Z</time>
      </trkpt>
      <trkpt lat="49.71149" lon="0.30222">
        <ele>96</ele>
        <time>2020-06-18T07:00:29Z</time>
      </trkpt>
      <trkpt lat="49.71148" lon="0.30231">
        <ele>96.1</ele>
        <time>2020-06-18T07:00:30Z</time>
      </trkpt>
      <trkpt lat="49.71147" lon="0.30238">
        <ele>96.2</ele>
        <time>2020-06-18T07:00:31Z</time>
      </trkpt>
      <trkpt lat="49.71145" lon="0.30247">
        <ele>96.3</ele>
        <time>2020-06-18T07:00:32Z</time>
      </trkpt>
      <trkpt lat="49.71143" lon="0.30257">
        <ele>96.5</ele>
        <time>2020-06-18T07:00:33Z</time>
      </trkpt>
      <trkpt lat="49.7114" lon="0.30265">
        <ele>96.6</ele>
        <time>2020-06-18T07:00:34Z</time>
      </trkpt>
      <trkpt lat="49.71138" lon="0.30274">
        <ele>96.6</ele>
        <time>2020-06-18T07:00:35Z</time>
      </trkpt>
      <trkpt lat="49.71136" lon="0.30282">
        <ele>96.7</ele>
        <time>2020-06-18T07:00:36Z</time>
      </trkpt>
      <trkpt lat="49.71133" lon="0.30289">
        <ele>96.6</ele>
        <time>2020-06-18T07:00:37Z</time>
      </trkpt>
      <trkpt lat="49.71131" lon="0.30296">
        <ele>96.4</ele>
        <time>2020-06-18T07:00:38Z</time>
      </trkpt>
      <trkpt lat="49.71129" lon="0.30304">
        <ele>96.5</ele>
        <time>2020-06-18T07:00:39Z</time>
      </trkpt>
      <trkpt lat="49.71126" lon="0.30311">
        <ele>96.5</ele>
        <time>2020-06-18T07:00:40Z</time>
      </trkpt>
      <trkpt lat="49.71123" lon="0.30317">
        <ele>96.5</ele>
        <time>2020-06-18T07:00:41Z</time>
      </trkpt>
      <trkpt lat="49.71121" lon="0.30324">
        <ele>96.6</ele>
        <time>2020-06-18T07:00:42Z</time>
      </trkpt>
      <trkpt lat="49.71118" lon="0.30331">
        <ele>96.6</ele>
        <time>2020-06-18T07:00:43Z</time>
      </trkpt>
      <trkpt lat="49.71115" lon="0.30338">
        <ele>96.6</ele>
        <time>2020-06-18T07:00:44Z</time>
      </trkpt>
      <trkpt lat="49.71112" lon="0.30346">
        <ele>96.7</ele>
        <time>2020-06-18T07:00:45Z</time>
      </trkpt>
      <trkpt lat="49.71107" lon="0.30354">
        <ele>96.7</ele>
        <time>2020-06-18T07:00:46Z</time>
      </trkpt>
      <trkpt lat="49.71104" lon="0.3036">
        <ele>96.7</ele>
        <time>2020-06-18T07:00:47Z</time>
      </trkpt>
      <trkpt lat="49.71101" lon="0.30368">
        <ele>96.8</ele>
        <time>2020-06-18T07:00:48Z</time>
      </trkpt>
      <trkpt lat="49.71098" lon="0.30376">
        <ele>96.8</ele>
        <time>2020-06-18T07:00:49Z</time>
      </trkpt>
      <trkpt lat="49.71095" lon="0.30383">
        <ele>96.9</ele>
        <time>2020-06-18T07:00:50Z</time>
      </trkpt>
      <trkpt lat="49.71092" lon="0.3039">
        <ele>96.9</ele>
        <time>2020-06-18T07:00:51Z</time>
      </trkpt>
      <trkpt lat="49.71088" lon="0.30396">
        <ele>96.9</ele>
        <time>2020-06-18T07:00:52Z</time>
      </trkpt>
      <trkpt lat="49.71084" lon="0.30403">
        <ele>96.9</ele>
        <time>2020-06-18T07:00:53Z</time>
      </trkpt>
      <trkpt lat="49.7108" lon="0.3041">
        <ele>96.9</ele>
        <time>2020-06-18T07:00:54Z</time>
      </trkpt>
      <trkpt lat="49.71077" lon="0.30417">
        <ele>96.9</ele>
        <time>2020-06-18T07:00:55Z</time>
      </trkpt>
      <trkpt lat="49.71073" lon="0.30423">
        <ele>96.8</ele>
        <time>2020-06-18T07:00:56Z</time>
      </trkpt>
      <trkpt lat="49.71069" lon="0.30429">
        <ele>96.7</ele>
        <time>2020-06-18T07:00:57Z</time>
      </trkpt>
      <trkpt lat="49.71064" lon="0.30435">
        <ele>96.6</ele>
        <time>2020-06-18T07:00:58Z</time>
      </trkpt>
      <trkpt lat="49.7106" lon="0.3044">
        <ele>96.5</ele>
        <time>2020-06-18T07:00:59Z</time>
      </trkpt>
      <trkpt lat="49.71055" lon="0.30446">
        <ele>96.3</ele>
        <time>2020-06-18T07:01:00Z</time>
      </trkpt>
      <trkpt lat="49.71051" lon="0.30452">
        <ele>96.2</ele>
        <time>2020-06-18T07:01:01Z</time>
      </trkpt>
      <trkpt lat="49.71046" lon="0.30457">
        <ele>96</ele>
        <time>2020-06-18T07:01:02Z</time>
      </trkpt>
      <trkpt lat="49.71041" lon="0.30463">
        <ele>95.9</ele>
        <time>2020-06-18T07:01:03Z</time>
      </trkpt>
      <trkpt lat="49.71036" lon="0.30468">
        <ele>95.7</ele>
        <time>2020-06-18T07:01:04Z</time>
      </trkpt>
      <trkpt lat="49.71031" lon="0.30474">
        <ele>95.5</ele>
        <time>2020-06-18T07:01:05Z</time>
      </trkpt>
      <trkpt lat="49.71026" lon="0.30481">
        <ele>95.3</ele>
        <time>2020-06-18T07:01:06Z</time>
      </trkpt>
      <trkpt lat="49.7102" lon="0.30488">
        <ele>95.1</ele>
        <time>2020-06-18T07:01:07Z</time>
      </trkpt>
      <trkpt lat="49.71015" lon="0.30496">
        <ele>94.8</ele>
        <time>2020-06-18T07:01:08Z</time>
      </trkpt>
      <trkpt lat="49.71009" lon="0.30504">
        <ele>94.5</ele>
        <time>2020-06-18T07:01:09Z</time>
      </trkpt>
      <trkpt lat="49.71004" lon="0.30511">
        <ele>94.3</ele>
        <time>2020-06-18T07:01:10Z</time>
      </trkpt>
      <trkpt lat="49.70999" lon="0.30519">
        <ele>94</ele>
        <time>2020-06-18T07:01:11Z</time>
      </trkpt>
      <trkpt lat="49.70994" lon="0.30527">
        <ele>93.7</ele>
        <time>2020-06-18T07:01:12Z</time>
      </trkpt>
      <trkpt lat="49.70989" lon="0.30535">
        <ele>93.4</ele>
        <time>2020-06-18T07:01:13Z</time>
      </trkpt>
      <trkpt lat="49.70984" lon="0.30543">
        <ele>93.1</ele>
        <time>2020-06-18T07:01:14Z</time>
      </trkpt>
      <trkpt lat="49.7098" lon="0.30551">
        <ele>92.8</ele>
        <time>2020-06-18T07:01:15Z</time>
      </trkpt>
      <trkpt lat="49.70976" lon="0.3056">
        <ele>92.4</ele>
        <time>2020-06-18T07:01:16Z</time>
      </trkpt>
      <trkpt lat="49.70972" lon="0.30569">
        <ele>92.1</ele>
        <time>2020-06-18T07:01:17Z</time>
      </trkpt>
      <trkpt lat="49.70969" lon="0.30578">
        <ele>91.8</ele>
        <time>2020-06-18T07:01:18Z</time>
      </trkpt>
      <trkpt lat="49.70965" lon="0.30588">
        <ele>91.4</ele>
        <time>2020-06-18T07:01:19Z</time>
      </trkpt>
      <trkpt lat="49.70961" lon="0.30597">
        <ele>91</ele>
        <time>2020-06-18T07:01:20Z</time>
      </trkpt>
      <trkpt lat="49.70956" lon="0.30607">
        <ele>90.6</ele>
        <time>2020-06-18T07:01:21Z</time>
      </trkpt>
      <trkpt lat="49.70951" lon="0.30616">
        <ele>90.2</ele>
        <time>2020-06-18T07:01:22Z</time>
      </trkpt>
      <trkpt lat="49.70947" lon="0.30625">
        <ele>89.9</ele>
        <time>2020-06-18T07:01:23Z</time>
      </trkpt>
      <trkpt lat="49.70943" lon="0.30635">
        <ele>89.6</ele>
        <time>2020-06-18T07:01:24Z</time>
      </trkpt>
      <trkpt lat="49.70939" lon="0.30645">
        <ele>89.4</ele>
        <time>2020-06-18T07:01:25Z</time>
      </trkpt>
      <trkpt lat="49.70935" lon="0.30655">
        <ele>89.2</ele>
        <time>2020-06-18T07:01:26Z</time>
      </trkpt>
      <trkpt lat="49.70931" lon="0.30665">
        <ele>89</ele>
        <time>2020-06-18T07:01:27Z</time>
      </trkpt>
      <trkpt lat="49.70926" lon="0.30675">
        <ele>88.8</ele>
        <time>2020-06-18T07:01:28Z</time>
      </trkpt>
      <trkpt lat="49.70923" lon="0.30686">
        <ele>88.6</ele>
        <time>2020-06-18T07:01:29Z</time>
      </trkpt>
      <trkpt lat="49.70919" lon="0.30696">
        <ele>88.5</ele>
        <time>2020-06-18T07:01:30Z</time>
      </trkpt>
      <trkpt lat="49.70917" lon="0.30706">
        <ele>88.3</ele>
        <time>2020-06-18T07:01:31Z</time>
      </trkpt>
      <trkpt lat="49.70914" lon="0.30717">
        <ele>88</ele>
        <time>2020-06-18T07:01:32Z</time>
      </trkpt>
      <trkpt lat="49.7091" lon="0.30726">
        <ele>88.1</ele>
        <time>2020-06-18T07:01:33Z</time>
      </trkpt>
      <trkpt lat="49.70907" lon="0.30735">
        <ele>88.2</ele>
        <time>2020-06-18T07:01:34Z</time>
      </trkpt>
      <trkpt lat="49.70902" lon="0.30743">
        <ele>88.2</ele>
        <time>2020-06-18T07:01:35Z</time>
      </trkpt>
      <trkpt lat="49.70897" lon="0.3075">
        <ele>88.3</ele>
        <time>2020-06-18T07:01:36Z</time>
      </trkpt>
      <trkpt lat="49.70893" lon="0.30756">
        <ele>88.3</ele>
        <time>2020-06-18T07:01:37Z</time>
      </trkpt>
      <trkpt lat="49.70889" lon="0.30763">
        <ele>88.4</ele>
        <time>2020-06-18T07:01:38Z</time>
      </trkpt>
      <trkpt lat="49.70885" lon="0.3077">
        <ele>88.5</ele>
        <time>2020-06-18T07:01:39Z</time>
      </trkpt>
      <trkpt lat="49.70882" lon="0.30776">
        <ele>88.6</ele>
        <time>2020-06-18T07:01:40Z</time>
      </trkpt>
      <trkpt lat="49.70878" lon="0.30782">
        <ele>88.7</ele>
        <time>2020-06-18T07:01:41Z</time>
      </trkpt>
      <trkpt lat="49.70875" lon="0.30787">
        <ele>88.8</ele>
        <time>2020-06-18T07:01:42Z</time>
      </trkpt>
      <trkpt lat="49.70871" lon="0.30792">
        <ele>88.9</ele>
        <time>2020-06-18T07:01:43Z</time>
      </trkpt>
      <trkpt lat="49.70868" lon="0.30797">
        <ele>89.1</ele>
        <time>2020-06-18T07:01:44Z</time>
      </trkpt>
      <trkpt lat="49.70865" lon="0.30801">
        <ele>89.2</ele>
        <time>2020-06-18T07:01:45Z</time>
      </trkpt>
      <trkpt lat="49.70862" lon="0.30806">
        <ele>89.3</ele>
        <time>2020-06-18T07:01:46Z</time>
      </trkpt>
      <trkpt lat="49.70858" lon="0.30811">
        <ele>89.5</ele>
        <time>2020-06-18T07:01:47Z</time>
      </trkpt>
      <trkpt lat="49.70855" lon="0.30816">
        <ele>89.7</ele>
        <time>2020-06-18T07:01:48Z</time>
      </trkpt>
      <trkpt lat="49.70851" lon="0.30821">
        <ele>89.9</ele>
        <time>2020-06-18T07:01:49Z</time>
      </trkpt>
      <trkpt lat="49.70848" lon="0.30824">
        <ele>90.1</ele>
        <time>2020-06-18T07:01:50Z</time>
      </trkpt>
      <trkpt lat="49.70844" lon="0.30827">
        <ele>90.3</ele>
        <time>2020-06-18T07:01:51Z</time>
      </trkpt>
      <trkpt lat="49.7084" lon="0.3083">
        <ele>90.5</ele>
        <time>2020-06-18T07:01:52Z</time>
      </trkpt>
      <trkpt lat="49.70837" lon="0.30835">
        <ele>90.7</ele>
        <time>2020-06-18T07:01:53Z</time>
      </trkpt>
      <trkpt lat="49.70834" lon="0.30841">
        <ele>91</ele>
        <time>2020-06-18T07:01:54Z</time>
      </trkpt>
      <trkpt lat="49.70831" lon="0.30846">
        <ele>91.2</ele>
        <time>2020-06-18T07:01:55Z</time>
      </trkpt>
      <trkpt lat="49.70827" lon="0.30851">
        <ele>91.4</ele>
        <time>2020-06-18T07:01:56Z</time>
      </trkpt>
      <trkpt lat="49.70825" lon="0.30856">
        <ele>91.6</ele>
        <time>2020-06-18T07:01:57Z</time>
      </trkpt>
      <trkpt lat="49.70822" lon="0.30861">
        <ele>91.9</ele>
        <time>2020-06-18T07:01:58Z</time>
      </trkpt>
      <trkpt lat="49.70818" lon="0.30865">
        <ele>92.1</ele>
        <time>2020-06-18T07:01:59Z</time>
      </trkpt>
      <trkpt lat="49.70815" lon="0.3087">
        <ele>92.3</ele>
        <time>2020-06-18T07:02:00Z</time>
      </trkpt>
      <trkpt lat="49.70812" lon="0.30876">
        <ele>92.5</ele>
        <time>2020-06-18T07:02:01Z</time>
      </trkpt>
      <trkpt lat="49.70809" lon="0.3088">
        <ele>92.7</ele>
        <time>2020-06-18T07:02:02Z</time>
      </trkpt>
      <trkpt lat="49.70806" lon="0.30884">
        <ele>92.9</ele>
        <time>2020-06-18T07:02:03Z</time>
      </trkpt>
      <trkpt lat="49.70802" lon="0.3089">
        <ele>93.2</ele>
        <time>2020-06-18T07:02:04Z</time>
      </trkpt>
      <trkpt lat="49.708" lon="0.30894">
        <ele>93.4</ele>
        <time>2020-06-18T07:02:05Z</time>
      </trkpt>
      <trkpt lat="49.70797" lon="0.30898">
        <ele>93.5</ele>
        <time>2020-06-18T07:02:06Z</time>
      </trkpt>
      <trkpt lat="49.70792" lon="0.30904">
        <ele>93.8</ele>
        <time>2020-06-18T07:02:07Z</time>
      </trkpt>
      <trkpt lat="49.70789" lon="0.30909">
        <ele>94.1</ele>
        <time>2020-06-18T07:02:08Z</time>
      </trkpt>
      <trkpt lat="49.70787" lon="0.30913">
        <ele>94.2</ele>
        <time>2020-06-18T07:02:09Z</time>
      </trkpt>
      <trkpt lat="49.70785" lon="0.30918">
        <ele>94.4</ele>
        <time>2020-06-18T07:02:10Z</time>
      </trkpt>
      <trkpt lat="49.70783" lon="0.30922">
        <ele>94.6</ele>
        <time>2020-06-18T07:02:11Z</time>
      </trkpt>
      <trkpt lat="49.70782" lon="0.30923">
        <ele>94.7</ele>
        <time>2020-06-18T07:02:12Z</time>
      </trkpt>
      <trkpt lat="49.7078" lon="0.30927">
        <ele>94.9</ele>
        <time>2020-06-18T07:02:13Z</time>
      </trkpt>
      <trkpt lat="49.70777" lon="0.3093">
        <ele>95.1</ele>
        <time>2020-06-18T07:02:14Z</time>
      </trkpt>
      <trkpt lat="49.70774" lon="0.30932">
        <ele>95.3</ele>
        <time>2020-06-18T07:02:15Z</time>
      </trkpt>
      <trkpt lat="49.70771" lon="0.30935">
        <ele>95.5</ele>
        <time>2020-06-18T07:02:16Z</time>
      </trkpt>
      <trkpt lat="49.7077" lon="0.30936">
        <ele>95.5</ele>
        <time>2020-06-18T07:02:17Z</time>
      </trkpt>
      <trkpt lat="49.7077" lon="0.30938">
        <ele>95.6</ele>
        <time>2020-06-18T07:02:18Z</time>
      </trkpt>
      <trkpt lat="49.7077" lon="0.3094">
        <ele>95.7</ele>
        <time>2020-06-18T07:02:19Z</time>
      </trkpt>
      <trkpt lat="49.7077" lon="0.30942">
        <ele>95.7</ele>
        <time>2020-06-18T07:02:20Z</time>
      </trkpt>
      <trkpt lat="49.7077" lon="0.30948">
        <ele>96</ele>
        <time>2020-06-18T07:02:21Z</time>
      </trkpt>
      <trkpt lat="49.7077" lon="0.30951">
        <ele>96</ele>
        <time>2020-06-18T07:02:22Z</time>
      </trkpt>
      <trkpt lat="49.7077" lon="0.30955">
        <ele>96</ele>
        <time>2020-06-18T07:02:23Z</time>
      </trkpt>
      <trkpt lat="49.70771" lon="0.3096">
        <ele>96</ele>
        <time>2020-06-18T07:02:24Z</time>
      </trkpt>
      <trkpt lat="49.70771" lon="0.30965">
        <ele>96</ele>
        <time>2020-06-18T07:02:25Z</time>
      </trkpt>
      <trkpt lat="49.70772" lon="0.30966">
        <ele>96</ele>
        <time>2020-06-18T07:02:26Z</time>
      </trkpt>
      <trkpt lat="49.70772" lon="0.3097">
        <ele>96.1</ele>
        <time>2020-06-18T07:02:27Z</time>
      </trkpt>
      <trkpt lat="49.70773" lon="0.30973">
        <ele>96.1</ele>
        <time>2020-06-18T07:02:28Z</time>
      </trkpt>
      <trkpt lat="49.70773" lon="0.30975">
        <ele>96.1</ele>
        <time>2020-06-18T07:02:29Z</time>
      </trkpt>
      <trkpt lat="49.70773" lon="0.30975">
        <ele>96.1</ele>
        <time>2020-06-18T07:02:30Z</time>
      </trkpt>
      <trkpt lat="49.70773" lon="0.30976">
        <ele>96.1</ele>
        <time>2020-06-18T07:02:31Z</time>
      </trkpt>
      <trkpt lat="49.70773" lon="0.30976">
        <ele>96.1</ele>
        <time>2020-06-18T07:02:32Z</time>
      </trkpt>
      <trkpt lat="49.70773" lon="0.30975">
        <ele>96.1</ele>
        <time>2020-06-18T07:02:33Z</time>
      </trkpt>
      <trkpt lat="49.70773" lon="0.30975">
        <ele>96.1</ele>
        <time>2020-06-18T07:02:34Z</time>
      </trkpt>
      <trkpt lat="49.70774" lon="0.30975">
        <ele>96.1</ele>
        <time>2020-06-18T07:02:35Z</time>
      </trkpt>
      <trkpt lat="49.70774" lon="0.30975">
        <ele>96.1</ele>
        <time>2020-06-18T07:02:36Z</time>
      </trkpt>
      <trkpt lat="49.70774" lon="0.30976">
        <ele>96.1</ele>
        <time>2020-06-18T07:02:37Z</time>
      </trkpt>
      <trkpt lat="49.70774" lon="0.30976">
        <ele>96.1</ele>
        <time>2020-06-18T07:02:38Z</time>
      </trkpt>
      <trkpt lat="49.70775" lon="0.30976">
        <ele>96.1</ele>
        <time>2020-06-18T07:02:39Z</time>
      </trkpt>
      <trkpt lat="49.70776" lon="0.30979">
        <ele>96.1</ele>
        <time>2020-06-18T07:02:40Z</time>
      </trkpt>
      <trkpt lat="49.70777" lon="0.30982">
        <ele>96.1</ele>
        <time>2020-06-18T07:02:41Z</time>
      </trkpt>
      <trkpt lat="49.70777" lon="0.30985">
        <ele>96.1</ele>
        <time>2020-06-18T07:02:42Z</time>
      </trkpt>
      <trkpt lat="49.70778" lon="0.30988">
        <ele>96.2</ele>
        <time>2020-06-18T07:05:11Z</time>
      </trkpt>
      <trkpt lat="49.70779" lon="0.30991">
        <ele>96.2</ele>
        <time>2020-06-18T07:05:12Z</time>
      </trkpt>
      <trkpt lat="49.70781" lon="0.30995">
        <ele>96.4</ele>
        <time>2020-06-18T07:05:13Z</time>
      </trkpt>
      <trkpt lat="49.70782" lon="0.30996">
        <ele>96.5</ele>
        <time>2020-06-18T07:05:14Z</time>
      </trkpt>
      <trkpt lat="49.70784" lon="0.31002">
        <ele>96.6</ele>
        <time>2020-06-18T07:05:15Z</time>
      </trkpt>
      <trkpt lat="49.70785" lon="0.31004">
        <ele>96.7</ele>
        <time>2020-06-18T07:05:16Z</time>
      </trkpt>
      <trkpt lat="49.70786" lon="0.31008">
        <ele>96.8</ele>
        <time>2020-06-18T07:05:17Z</time>
      </trkpt>
      <trkpt lat="49.70788" lon="0.31013">
        <ele>96.9</ele>
        <time>2020-06-18T07:05:18Z</time>
      </trkpt>
      <trkpt lat="49.70789" lon="0.31017">
        <ele>97</ele>
        <time>2020-06-18T07:05:19Z</time>
      </trkpt>
      <trkpt lat="49.70791" lon="0.31022">
        <ele>97.1</ele>
        <time>2020-06-18T07:05:20Z</time>
      </trkpt>
      <trkpt lat="49.70793" lon="0.31028">
        <ele>97.3</ele>
        <time>2020-06-18T07:05:21Z</time>
      </trkpt>
      <trkpt lat="49.70794" lon="0.31033">
        <ele>97.5</ele>
        <time>2020-06-18T07:05:22Z</time>
      </trkpt>
      <trkpt lat="49.70796" lon="0.31038">
        <ele>97.6</ele>
        <time>2020-06-18T07:05:23Z</time>
      </trkpt>
      <trkpt lat="49.70797" lon="0.31044">
        <ele>97.7</ele>
        <time>2020-06-18T07:05:24Z</time>
      </trkpt>
      <trkpt lat="49.70799" lon="0.31049">
        <ele>97.9</ele>
        <time>2020-06-18T07:05:25Z</time>
      </trkpt>
      <trkpt lat="49.70802" lon="0.31054">
        <ele>98.1</ele>
        <time>2020-06-18T07:05:26Z</time>
      </trkpt>
      <trkpt lat="49.70805" lon="0.31059">
        <ele>98.3</ele>
        <time>2020-06-18T07:05:27Z</time>
      </trkpt>
      <trkpt lat="49.70807" lon="0.31065">
        <ele>98.6</ele>
        <time>2020-06-18T07:05:28Z</time>
      </trkpt>
      <trkpt lat="49.70809" lon="0.3107">
        <ele>98.8</ele>
        <time>2020-06-18T07:05:29Z</time>
      </trkpt>
      <trkpt lat="49.70809" lon="0.31076">
        <ele>99</ele>
        <time>2020-06-18T07:05:30Z</time>
      </trkpt>
      <trkpt lat="49.70811" lon="0.31081">
        <ele>99.2</ele>
        <time>2020-06-18T07:05:31Z</time>
      </trkpt>
      <trkpt lat="49.70812" lon="0.31086">
        <ele>99.4</ele>
        <time>2020-06-18T07:05:32Z</time>
      </trkpt>
      <trkpt lat="49.70814" lon="0.31091">
        <ele>99.6</ele>
        <time>2020-06-18T07:05:33Z</time>
      </trkpt>
      <trkpt lat="49.70816" lon="0.31097">
        <ele>99.8</ele>
        <time>2020-06-18T07:05:34Z</time>
      </trkpt>
      <trkpt lat="49.70819" lon="0.31104">
        <ele>100.1</ele>
        <time>2020-06-18T07:05:35Z</time>
      </trkpt>
      <trkpt lat="49.70821" lon="0.31108">
        <ele>100.2</ele>
        <time>2020-06-18T07:05:36Z</time>
      </trkpt>
      <trkpt lat="49.70823" lon="0.31113">
        <ele>100.3</ele>
        <time>2020-06-18T07:05:37Z</time>
      </trkpt>
      <trkpt lat="49.70825" lon="0.31118">
        <ele>100.5</ele>
        <time>2020-06-18T07:05:38Z</time>
      </trkpt>
      <trkpt lat="49.70827" lon="0.31125">
        <ele>100.6</ele>
        <time>2020-06-18T07:05:39Z</time>
      </trkpt>
      <trkpt lat="49.70829" lon="0.3113">
        <ele>100.8</ele>
        <time>2020-06-18T07:05:40Z</time>
      </trkpt>
      <trkpt lat="49.70831" lon="0.31135">
        <ele>100.9</ele>
        <time>2020-06-18T07:05:41Z</time>
      </trkpt>
      <trkpt lat="49.70833" lon="0.3114">
        <ele>101</ele>
        <time>2020-06-18T07:05:42Z</time>
      </trkpt>
      <trkpt lat="49.70834" lon="0.31145">
        <ele>101.1</ele>
        <time>2020-06-18T07:05:43Z</time>
      </trkpt>
      <trkpt lat="49.70837" lon="0.31151">
        <ele>101.2</ele>
        <time>2020-06-18T07:05:44Z</time>
      </trkpt>
      <trkpt lat="49.70839" lon="0.31158">
        <ele>101.4</ele>
        <time>2020-06-18T07:05:45Z</time>
      </trkpt>
      <trkpt lat="49.70841" lon="0.31164">
        <ele>101.5</ele>
        <time>2020-06-18T07:05:46Z</time>
      </trkpt>
      <trkpt lat="49.70843" lon="0.31171">
        <ele>101.6</ele>
        <time>2020-06-18T07:05:47Z</time>
      </trkpt>
      <trkpt lat="49.70845" lon="0.31178">
        <ele>101.6</ele>
        <time>2020-06-18T07:05:48Z</time>
      </trkpt>
      <trkpt lat="49.70847" lon="0.31184">
        <ele>101.7</ele>
        <time>2020-06-18T07:05:49Z</time>
      </trkpt>
      <trkpt lat="49.70849" lon="0.31191">
        <ele>101.8</ele>
        <time>2020-06-18T07:05:50Z</time>
      </trkpt>
      <trkpt lat="49.70852" lon="0.31197">
        <ele>101.9</ele>
        <time>2020-06-18T07:05:51Z</time>
      </trkpt>
      <trkpt lat="49.70854" lon="0.31204">
        <ele>102</ele>
        <time>2020-06-18T07:05:52Z</time>
      </trkpt>
      <trkpt lat="49.70856" lon="0.31211">
        <ele>102.1</ele>
        <time>2020-06-18T07:05:53Z</time>
      </trkpt>
      <trkpt lat="49.70859" lon="0.31219">
        <ele>102.1</ele>
        <time>2020-06-18T07:05:54Z</time>
      </trkpt>
      <trkpt lat="49.7086" lon="0.31225">
        <ele>102.1</ele>
        <time>2020-06-18T07:05:55Z</time>
      </trkpt>
      <trkpt lat="49.70863" lon="0.31231">
        <ele>102.2</ele>
        <time>2020-06-18T07:05:56Z</time>
      </trkpt>
      <trkpt lat="49.70865" lon="0.31238">
        <ele>102.2</ele>
        <time>2020-06-18T07:05:57Z</time>
      </trkpt>
      <trkpt lat="49.70868" lon="0.31244">
        <ele>102.2</ele>
        <time>2020-06-18T07:05:58Z</time>
      </trkpt>
      <trkpt lat="49.70871" lon="0.31251">
        <ele>102.3</ele>
        <time>2020-06-18T07:05:59Z</time>
      </trkpt>
      <trkpt lat="49.70873" lon="0.31257">
        <ele>102.3</ele>
        <time>2020-06-18T07:06:00Z</time>
      </trkpt>
      <trkpt lat="49.70876" lon="0.31265">
        <ele>102.4</ele>
        <time>2020-06-18T07:06:01Z</time>
      </trkpt>
      <trkpt lat="49.7088" lon="0.31271">
        <ele>102.4</ele>
        <time>2020-06-18T07:06:02Z</time>
      </trkpt>
      <trkpt lat="49.70884" lon="0.31277">
        <ele>102.4</ele>
        <time>2020-06-18T07:06:03Z</time>
      </trkpt>
      <trkpt lat="49.70887" lon="0.31283">
        <ele>102.4</ele>
        <time>2020-06-18T07:06:04Z</time>
      </trkpt>
      <trkpt lat="49.7089" lon="0.31289">
        <ele>102.5</ele>
        <time>2020-06-18T07:06:05Z</time>
      </trkpt>
      <trkpt lat="49.70894" lon="0.31296">
        <ele>102.5</ele>
        <time>2020-06-18T07:06:06Z</time>
      </trkpt>
      <trkpt lat="49.70897" lon="0.31303">
        <ele>102.5</ele>
        <time>2020-06-18T07:06:07Z</time>
      </trkpt>
      <trkpt lat="49.70901" lon="0.31309">
        <ele>102.5</ele>
        <time>2020-06-18T07:06:08Z</time>
      </trkpt>
      <trkpt lat="49.70904" lon="0.31316">
        <ele>102.6</ele>
        <time>2020-06-18T07:06:09Z</time>
      </trkpt>
      <trkpt lat="49.70908" lon="0.31322">
        <ele>102.7</ele>
        <time>2020-06-18T07:06:10Z</time>
      </trkpt>
      <trkpt lat="49.70912" lon="0.31327">
        <ele>102.9</ele>
        <time>2020-06-18T07:06:11Z</time>
      </trkpt>
      <trkpt lat="49.70917" lon="0.31334">
        <ele>102.9</ele>
        <time>2020-06-18T07:06:12Z</time>
      </trkpt>
      <trkpt lat="49.7092" lon="0.31341">
        <ele>103</ele>
        <time>2020-06-18T07:06:13Z</time>
      </trkpt>
      <trkpt lat="49.70925" lon="0.31347">
        <ele>103.1</ele>
        <time>2020-06-18T07:06:14Z</time>
      </trkpt>
      <trkpt lat="49.70929" lon="0.31354">
        <ele>103.1</ele>
        <time>2020-06-18T07:06:15Z</time>
      </trkpt>
      <trkpt lat="49.70932" lon="0.31362">
        <ele>103.1</ele>
        <time>2020-06-18T07:06:16Z</time>
      </trkpt>
      <trkpt lat="49.70935" lon="0.31369">
        <ele>103.1</ele>
        <time>2020-06-18T07:06:17Z</time>
      </trkpt>
      <trkpt lat="49.70939" lon="0.31376">
        <ele>103.1</ele>
        <time>2020-06-18T07:06:18Z</time>
      </trkpt>
      <trkpt lat="49.70943" lon="0.31383">
        <ele>103.1</ele>
        <time>2020-06-18T07:06:19Z</time>
      </trkpt>
      <trkpt lat="49.70947" lon="0.3139">
        <ele>103.1</ele>
        <time>2020-06-18T07:06:20Z</time>
      </trkpt>
      <trkpt lat="49.70951" lon="0.31396">
        <ele>103.1</ele>
        <time>2020-06-18T07:06:21Z</time>
      </trkpt>
      <trkpt lat="49.70955" lon="0.31403">
        <ele>103.1</ele>
        <time>2020-06-18T07:06:22Z</time>
      </trkpt>
      <trkpt lat="49.70958" lon="0.31409">
        <ele>103.1</ele>
        <time>2020-06-18T07:06:23Z</time>
      </trkpt>
      <trkpt lat="49.70962" lon="0.31416">
        <ele>103.1</ele>
        <time>2020-06-18T07:06:24Z</time>
      </trkpt>
      <trkpt lat="49.70966" lon="0.31422">
        <ele>103.1</ele>
        <time>2020-06-18T07:06:25Z</time>
      </trkpt>
      <trkpt lat="49.70969" lon="0.31429">
        <ele>103.1</ele>
        <time>2020-06-18T07:06:26Z</time>
      </trkpt>
      <trkpt lat="49.70973" lon="0.31437">
        <ele>103.1</ele>
        <time>2020-06-18T07:06:27Z</time>
      </trkpt>
      <trkpt lat="49.70977" lon="0.31445">
        <ele>103.1</ele>
        <time>2020-06-18T07:06:28Z</time>
      </trkpt>
      <trkpt lat="49.70981" lon="0.31452">
        <ele>103</ele>
        <time>2020-06-18T07:06:29Z</time>
      </trkpt>
      <trkpt lat="49.70985" lon="0.3146">
        <ele>103</ele>
        <time>2020-06-18T07:06:30Z</time>
      </trkpt>
      <trkpt lat="49.7099" lon="0.31467">
        <ele>103</ele>
        <time>2020-06-18T07:06:31Z</time>
      </trkpt>
      <trkpt lat="49.70995" lon="0.31474">
        <ele>103</ele>
        <time>2020-06-18T07:06:32Z</time>
      </trkpt>
      <trkpt lat="49.70998" lon="0.31481">
        <ele>103</ele>
        <time>2020-06-18T07:06:33Z</time>
      </trkpt>
      <trkpt lat="49.71001" lon="0.31487">
        <ele>103</ele>
        <time>2020-06-18T07:06:34Z</time>
      </trkpt>
      <trkpt lat="49.71005" lon="0.31494">
        <ele>102.9</ele>
        <time>2020-06-18T07:06:35Z</time>
      </trkpt>
      <trkpt lat="49.71009" lon="0.31501">
        <ele>102.9</ele>
        <time>2020-06-18T07:06:36Z</time>
      </trkpt>
      <trkpt lat="49.71013" lon="0.31508">
        <ele>102.9</ele>
        <time>2020-06-18T07:06:37Z</time>
      </trkpt>
      <trkpt lat="49.71017" lon="0.31514">
        <ele>102.9</ele>
        <time>2020-06-18T07:06:38Z</time>
      </trkpt>
      <trkpt lat="49.71021" lon="0.31522">
        <ele>102.9</ele>
        <time>2020-06-18T07:06:39Z</time>
      </trkpt>
      <trkpt lat="49.71026" lon="0.3153">
        <ele>102.9</ele>
        <time>2020-06-18T07:06:40Z</time>
      </trkpt>
      <trkpt lat="49.7103" lon="0.31538">
        <ele>102.9</ele>
        <time>2020-06-18T07:06:41Z</time>
      </trkpt>
      <trkpt lat="49.71035" lon="0.31545">
        <ele>102.9</ele>
        <time>2020-06-18T07:06:42Z</time>
      </trkpt>
      <trkpt lat="49.71038" lon="0.31551">
        <ele>102.9</ele>
        <time>2020-06-18T07:06:43Z</time>
      </trkpt>
      <trkpt lat="49.71042" lon="0.31559">
        <ele>102.9</ele>
        <time>2020-06-18T07:06:44Z</time>
      </trkpt>
      <trkpt lat="49.71046" lon="0.31565">
        <ele>102.8</ele>
        <time>2020-06-18T07:06:45Z</time>
      </trkpt>
      <trkpt lat="49.7105" lon="0.31572">
        <ele>102.8</ele>
        <time>2020-06-18T07:06:46Z</time>
      </trkpt>
      <trkpt lat="49.71054" lon="0.31579">
        <ele>102.8</ele>
        <time>2020-06-18T07:06:47Z</time>
      </trkpt>
      <trkpt lat="49.71058" lon="0.31587">
        <ele>102.7</ele>
        <time>2020-06-18T07:06:48Z</time>
      </trkpt>
      <trkpt lat="49.71061" lon="0.31594">
        <ele>102.7</ele>
        <time>2020-06-18T07:06:49Z</time>
      </trkpt>
      <trkpt lat="49.71065" lon="0.31602">
        <ele>102.6</ele>
        <time>2020-06-18T07:06:50Z</time>
      </trkpt>
      <trkpt lat="49.71069" lon="0.3161">
        <ele>102.6</ele>
        <time>2020-06-18T07:06:51Z</time>
      </trkpt>
      <trkpt lat="49.71073" lon="0.31618">
        <ele>102.5</ele>
        <time>2020-06-18T07:06:52Z</time>
      </trkpt>
      <trkpt lat="49.71077" lon="0.31624">
        <ele>102.5</ele>
        <time>2020-06-18T07:06:53Z</time>
      </trkpt>
      <trkpt lat="49.71081" lon="0.31632">
        <ele>102.5</ele>
        <time>2020-06-18T07:06:54Z</time>
      </trkpt>
      <trkpt lat="49.71085" lon="0.31639">
        <ele>102.4</ele>
        <time>2020-06-18T07:06:55Z</time>
      </trkpt>
      <trkpt lat="49.7109" lon="0.31646">
        <ele>102.4</ele>
        <time>2020-06-18T07:06:56Z</time>
      </trkpt>
      <trkpt lat="49.71093" lon="0.31655">
        <ele>102.4</ele>
        <time>2020-06-18T07:06:57Z</time>
      </trkpt>
      <trkpt lat="49.71097" lon="0.31662">
        <ele>102.3</ele>
        <time>2020-06-18T07:06:58Z</time>
      </trkpt>
      <trkpt lat="49.71101" lon="0.31671">
        <ele>102.3</ele>
        <time>2020-06-18T07:06:59Z</time>
      </trkpt>
      <trkpt lat="49.71105" lon="0.31679">
        <ele>102.2</ele>
        <time>2020-06-18T07:07:00Z</time>
      </trkpt>
      <trkpt lat="49.71109" lon="0.31688">
        <ele>102.1</ele>
        <time>2020-06-18T07:07:01Z</time>
      </trkpt>
      <trkpt lat="49.71112" lon="0.31697">
        <ele>102</ele>
        <time>2020-06-18T07:07:02Z</time>
      </trkpt>
      <trkpt lat="49.71116" lon="0.31706">
        <ele>101.9</ele>
        <time>2020-06-18T07:07:03Z</time>
      </trkpt>
      <trkpt lat="49.71119" lon="0.31714">
        <ele>101.8</ele>
        <time>2020-06-18T07:07:04Z</time>
      </trkpt>
      <trkpt lat="49.71121" lon="0.31722">
        <ele>101.7</ele>
        <time>2020-06-18T07:07:05Z</time>
      </trkpt>
      <trkpt lat="49.71124" lon="0.3173">
        <ele>101.6</ele>
        <time>2020-06-18T07:07:06Z</time>
      </trkpt>
      <trkpt lat="49.71127" lon="0.3174">
        <ele>101.5</ele>
        <time>2020-06-18T07:07:07Z</time>
      </trkpt>
      <trkpt lat="49.71131" lon="0.3175">
        <ele>101.4</ele>
        <time>2020-06-18T07:07:08Z</time>
      </trkpt>
      <trkpt lat="49.71134" lon="0.3176">
        <ele>101.2</ele>
        <time>2020-06-18T07:07:09Z</time>
      </trkpt>
      <trkpt lat="49.71138" lon="0.31769">
        <ele>101.1</ele>
        <time>2020-06-18T07:07:10Z</time>
      </trkpt>
      <trkpt lat="49.71141" lon="0.31779">
        <ele>100.9</ele>
        <time>2020-06-18T07:07:11Z</time>
      </trkpt>
      <trkpt lat="49.71145" lon="0.31789">
        <ele>100.7</ele>
        <time>2020-06-18T07:07:12Z</time>
      </trkpt>
      <trkpt lat="49.71148" lon="0.31799">
        <ele>100.6</ele>
        <time>2020-06-18T07:07:13Z</time>
      </trkpt>
      <trkpt lat="49.71151" lon="0.31808">
        <ele>100.4</ele>
        <time>2020-06-18T07:07:14Z</time>
      </trkpt>
      <trkpt lat="49.71155" lon="0.31818">
        <ele>100.3</ele>
        <time>2020-06-18T07:07:15Z</time>
      </trkpt>
      <trkpt lat="49.71158" lon="0.31828">
        <ele>100.1</ele>
        <time>2020-06-18T07:07:16Z</time>
      </trkpt>
      <trkpt lat="49.71162" lon="0.31837">
        <ele>100</ele>
        <time>2020-06-18T07:07:17Z</time>
      </trkpt>
      <trkpt lat="49.71166" lon="0.31847">
        <ele>99.9</ele>
        <time>2020-06-18T07:07:18Z</time>
      </trkpt>
      <trkpt lat="49.7117" lon="0.31857">
        <ele>99.8</ele>
        <time>2020-06-18T07:07:19Z</time>
      </trkpt>
      <trkpt lat="49.71173" lon="0.31867">
        <ele>99.7</ele>
        <time>2020-06-18T07:07:20Z</time>
      </trkpt>
      <trkpt lat="49.71177" lon="0.31877">
        <ele>99.6</ele>
        <time>2020-06-18T07:07:21Z</time>
      </trkpt>
      <trkpt lat="49.7118" lon="0.31887">
        <ele>99.5</ele>
        <time>2020-06-18T07:07:22Z</time>
      </trkpt>
      <trkpt lat="49.71184" lon="0.31897">
        <ele>99.3</ele>
        <time>2020-06-18T07:07:23Z</time>
      </trkpt>
      <trkpt lat="49.71187" lon="0.31908">
        <ele>99.2</ele>
        <time>2020-06-18T07:07:24Z</time>
      </trkpt>
      <trkpt lat="49.71191" lon="0.31918">
        <ele>99.1</ele>
        <time>2020-06-18T07:07:25Z</time>
      </trkpt>
      <trkpt lat="49.71194" lon="0.31929">
        <ele>99</ele>
        <time>2020-06-18T07:07:26Z</time>
      </trkpt>
      <trkpt lat="49.71197" lon="0.31939">
        <ele>98.9</ele>
        <time>2020-06-18T07:07:27Z</time>
      </trkpt>
      <trkpt lat="49.71201" lon="0.31949">
        <ele>98.7</ele>
        <time>2020-06-18T07:07:28Z</time>
      </trkpt>
      <trkpt lat="49.71204" lon="0.31958">
        <ele>98.6</ele>
        <time>2020-06-18T07:07:29Z</time>
      </trkpt>
      <trkpt lat="49.71208" lon="0.31967">
        <ele>98.5</ele>
        <time>2020-06-18T07:07:30Z</time>
      </trkpt>
      <trkpt lat="49.71211" lon="0.31976">
        <ele>98.3</ele>
        <time>2020-06-18T07:07:31Z</time>
      </trkpt>
      <trkpt lat="49.71214" lon="0.31986">
        <ele>98.2</ele>
        <time>2020-06-18T07:07:32Z</time>
      </trkpt>
      <trkpt lat="49.71218" lon="0.31996">
        <ele>98</ele>
        <time>2020-06-18T07:07:33Z</time>
      </trkpt>
      <trkpt lat="49.71222" lon="0.32005">
        <ele>97.8</ele>
        <time>2020-06-18T07:07:34Z</time>
      </trkpt>
      <trkpt lat="49.71225" lon="0.32014">
        <ele>97.7</ele>
        <time>2020-06-18T07:07:35Z</time>
      </trkpt>
      <trkpt lat="49.71229" lon="0.32024">
        <ele>97.5</ele>
        <time>2020-06-18T07:07:36Z</time>
      </trkpt>
      <trkpt lat="49.71233" lon="0.32033">
        <ele>97.2</ele>
        <time>2020-06-18T07:07:37Z</time>
      </trkpt>
      <trkpt lat="49.71237" lon="0.32043">
        <ele>96.9</ele>
        <time>2020-06-18T07:07:38Z</time>
      </trkpt>
      <trkpt lat="49.71241" lon="0.32054">
        <ele>96.6</ele>
        <time>2020-06-18T07:07:39Z</time>
      </trkpt>
      <trkpt lat="49.71246" lon="0.32064">
        <ele>96.3</ele>
        <time>2020-06-18T07:07:40Z</time>
      </trkpt>
      <trkpt lat="49.71251" lon="0.32073">
        <ele>96.1</ele>
        <time>2020-06-18T07:07:41Z</time>
      </trkpt>
      <trkpt lat="49.71255" lon="0.32083">
        <ele>95.8</ele>
        <time>2020-06-18T07:07:42Z</time>
      </trkpt>
      <trkpt lat="49.71261" lon="0.32094">
        <ele>95.5</ele>
        <time>2020-06-18T07:07:43Z</time>
      </trkpt>
      <trkpt lat="49.71266" lon="0.32104">
        <ele>95.1</ele>
        <time>2020-06-18T07:07:44Z</time>
      </trkpt>
      <trkpt lat="49.71272" lon="0.32113">
        <ele>94.7</ele>
        <time>2020-06-18T07:07:45Z</time>
      </trkpt>
      <trkpt lat="49.71277" lon="0.32123">
        <ele>94.4</ele>
        <time>2020-06-18T07:07:46Z</time>
      </trkpt>
      <trkpt lat="49.71283" lon="0.32132">
        <ele>94</ele>
        <time>2020-06-18T07:07:47Z</time>
      </trkpt>
      <trkpt lat="49.71288" lon="0.32141">
        <ele>93.6</ele>
        <time>2020-06-18T07:07:48Z</time>
      </trkpt>
      <trkpt lat="49.71294" lon="0.32151">
        <ele>93.2</ele>
        <time>2020-06-18T07:07:49Z</time>
      </trkpt>
      <trkpt lat="49.71299" lon="0.32161">
        <ele>92.8</ele>
        <time>2020-06-18T07:07:50Z</time>
      </trkpt>
      <trkpt lat="49.71305" lon="0.3217">
        <ele>92.4</ele>
        <time>2020-06-18T07:07:51Z</time>
      </trkpt>
      <trkpt lat="49.71311" lon="0.3218">
        <ele>92</ele>
        <time>2020-06-18T07:07:52Z</time>
      </trkpt>
      <trkpt lat="49.71317" lon="0.32191">
        <ele>91.6</ele>
        <time>2020-06-18T07:07:53Z</time>
      </trkpt>
      <trkpt lat="49.71322" lon="0.32201">
        <ele>91.3</ele>
        <time>2020-06-18T07:07:54Z</time>
      </trkpt>
      <trkpt lat="49.71328" lon="0.32212">
        <ele>90.9</ele>
        <time>2020-06-18T07:07:55Z</time>
      </trkpt>
      <trkpt lat="49.71334" lon="0.32222">
        <ele>90.6</ele>
        <time>2020-06-18T07:07:56Z</time>
      </trkpt>
      <trkpt lat="49.7134" lon="0.32232">
        <ele>90.4</ele>
        <time>2020-06-18T07:07:57Z</time>
      </trkpt>
      <trkpt lat="49.71346" lon="0.32242">
        <ele>90.2</ele>
        <time>2020-06-18T07:07:58Z</time>
      </trkpt>
      <trkpt lat="49.71353" lon="0.32253">
        <ele>89.9</ele>
        <time>2020-06-18T07:07:59Z</time>
      </trkpt>
      <trkpt lat="49.71359" lon="0.32263">
        <ele>89.6</ele>
        <time>2020-06-18T07:08:00Z</time>
      </trkpt>
      <trkpt lat="49.71365" lon="0.32272">
        <ele>89.2</ele>
        <time>2020-06-18T07:08:01Z</time>
      </trkpt>
      <trkpt lat="49.71371" lon="0.32283">
        <ele>88.9</ele>
        <time>2020-06-18T07:08:02Z</time>
      </trkpt>
      <trkpt lat="49.71377" lon="0.32294">
        <ele>88.6</ele>
        <time>2020-06-18T07:08:03Z</time>
      </trkpt>
      <trkpt lat="49.71383" lon="0.32305">
        <ele>88.5</ele>
        <time>2020-06-18T07:08:04Z</time>
      </trkpt>
      <trkpt lat="49.71389" lon="0.32316">
        <ele>88.4</ele>
        <time>2020-06-18T07:08:05Z</time>
      </trkpt>
      <trkpt lat="49.71395" lon="0.32326">
        <ele>88.5</ele>
        <time>2020-06-18T07:08:06Z</time>
      </trkpt>
      <trkpt lat="49.71401" lon="0.32336">
        <ele>88.6</ele>
        <time>2020-06-18T07:08:07Z</time>
      </trkpt>
      <trkpt lat="49.71406" lon="0.32346">
        <ele>88.8</ele>
        <time>2020-06-18T07:08:08Z</time>
      </trkpt>
      <trkpt lat="49.71412" lon="0.32356">
        <ele>89.1</ele>
        <time>2020-06-18T07:08:09Z</time>
      </trkpt>
      <trkpt lat="49.71417" lon="0.32365">
        <ele>89.3</ele>
        <time>2020-06-18T07:08:10Z</time>
      </trkpt>
      <trkpt lat="49.71422" lon="0.32374">
        <ele>89.6</ele>
        <time>2020-06-18T07:08:11Z</time>
      </trkpt>
      <trkpt lat="49.71426" lon="0.32381">
        <ele>89.8</ele>
        <time>2020-06-18T07:08:12Z</time>
      </trkpt>
      <trkpt lat="49.71431" lon="0.32389">
        <ele>90.1</ele>
        <time>2020-06-18T07:08:13Z</time>
      </trkpt>
      <trkpt lat="49.71435" lon="0.32397">
        <ele>90.4</ele>
        <time>2020-06-18T07:08:14Z</time>
      </trkpt>
      <trkpt lat="49.7144" lon="0.32405">
        <ele>90.7</ele>
        <time>2020-06-18T07:08:15Z</time>
      </trkpt>
      <trkpt lat="49.71444" lon="0.32412">
        <ele>91</ele>
        <time>2020-06-18T07:08:16Z</time>
      </trkpt>
      <trkpt lat="49.71448" lon="0.3242">
        <ele>91.3</ele>
        <time>2020-06-18T07:08:17Z</time>
      </trkpt>
      <trkpt lat="49.71452" lon="0.32427">
        <ele>91.5</ele>
        <time>2020-06-18T07:08:18Z</time>
      </trkpt>
      <trkpt lat="49.71455" lon="0.32434">
        <ele>91.8</ele>
        <time>2020-06-18T07:08:19Z</time>
      </trkpt>
      <trkpt lat="49.71459" lon="0.32441">
        <ele>92</ele>
        <time>2020-06-18T07:08:20Z</time>
      </trkpt>
      <trkpt lat="49.71463" lon="0.32448">
        <ele>92.3</ele>
        <time>2020-06-18T07:08:21Z</time>
      </trkpt>
      <trkpt lat="49.71466" lon="0.32455">
        <ele>92.5</ele>
        <time>2020-06-18T07:08:22Z</time>
      </trkpt>
      <trkpt lat="49.7147" lon="0.32462">
        <ele>92.8</ele>
        <time>2020-06-18T07:08:23Z</time>
      </trkpt>
      <trkpt lat="49.71473" lon="0.32468">
        <ele>93</ele>
        <time>2020-06-18T07:08:24Z</time>
      </trkpt>
      <trkpt lat="49.71476" lon="0.32474">
        <ele>93.2</ele>
        <time>2020-06-18T07:08:25Z</time>
      </trkpt>
      <trkpt lat="49.7148" lon="0.3248">
        <ele>93.4</ele>
        <time>2020-06-18T07:08:26Z</time>
      </trkpt>
      <trkpt lat="49.71483" lon="0.32486">
        <ele>93.6</ele>
        <time>2020-06-18T07:08:27Z</time>
      </trkpt>
      <trkpt lat="49.71486" lon="0.32491">
        <ele>93.7</ele>
        <time>2020-06-18T07:08:28Z</time>
      </trkpt>
      <trkpt lat="49.7149" lon="0.32496">
        <ele>93.9</ele>
        <time>2020-06-18T07:08:29Z</time>
      </trkpt>
      <trkpt lat="49.71493" lon="0.32502">
        <ele>94.1</ele>
        <time>2020-06-18T07:08:30Z</time>
      </trkpt>
      <trkpt lat="49.71497" lon="0.32507">
        <ele>94.3</ele>
        <time>2020-06-18T07:08:31Z</time>
      </trkpt>
      <trkpt lat="49.71501" lon="0.32512">
        <ele>94.4</ele>
        <time>2020-06-18T07:08:32Z</time>
      </trkpt>
      <trkpt lat="49.71504" lon="0.32517">
        <ele>94.6</ele>
        <time>2020-06-18T07:08:33Z</time>
      </trkpt>
      <trkpt lat="49.71508" lon="0.32522">
        <ele>94.8</ele>
        <time>2020-06-18T07:08:34Z</time>
      </trkpt>
      <trkpt lat="49.71511" lon="0.32527">
        <ele>95</ele>
        <time>2020-06-18T07:08:35Z</time>
      </trkpt>
      <trkpt lat="49.71515" lon="0.32533">
        <ele>95.2</ele>
        <time>2020-06-18T07:08:36Z</time>
      </trkpt>
      <trkpt lat="49.71518" lon="0.32538">
        <ele>95.4</ele>
        <time>2020-06-18T07:08:37Z</time>
      </trkpt>
      <trkpt lat="49.71521" lon="0.32542">
        <ele>95.6</ele>
        <time>2020-06-18T07:08:38Z</time>
      </trkpt>
      <trkpt lat="49.71525" lon="0.32547">
        <ele>95.8</ele>
        <time>2020-06-18T07:08:39Z</time>
      </trkpt>
      <trkpt lat="49.71528" lon="0.32552">
        <ele>96</ele>
        <time>2020-06-18T07:08:40Z</time>
      </trkpt>
      <trkpt lat="49.71532" lon="0.32556">
        <ele>96.1</ele>
        <time>2020-06-18T07:08:41Z</time>
      </trkpt>
      <trkpt lat="49.71535" lon="0.3256">
        <ele>96.3</ele>
        <time>2020-06-18T07:08:42Z</time>
      </trkpt>
      <trkpt lat="49.71539" lon="0.32563">
        <ele>96.4</ele>
        <time>2020-06-18T07:08:43Z</time>
      </trkpt>
      <trkpt lat="49.71543" lon="0.32568">
        <ele>96.6</ele>
        <time>2020-06-18T07:08:44Z</time>
      </trkpt>
      <trkpt lat="49.71547" lon="0.32572">
        <ele>96.8</ele>
        <time>2020-06-18T07:08:45Z</time>
      </trkpt>
      <trkpt lat="49.71551" lon="0.32575">
        <ele>96.9</ele>
        <time>2020-06-18T07:08:46Z</time>
      </trkpt>
      <trkpt lat="49.71554" lon="0.32579">
        <ele>97.1</ele>
        <time>2020-06-18T07:08:47Z</time>
      </trkpt>
      <trkpt lat="49.71558" lon="0.32584">
        <ele>97.2</ele>
        <time>2020-06-18T07:08:48Z</time>
      </trkpt>
      <trkpt lat="49.71562" lon="0.32587">
        <ele>97.4</ele>
        <time>2020-06-18T07:08:49Z</time>
      </trkpt>
      <trkpt lat="49.71565" lon="0.32592">
        <ele>97.5</ele>
        <time>2020-06-18T07:08:50Z</time>
      </trkpt>
      <trkpt lat="49.71569" lon="0.32597">
        <ele>97.7</ele>
        <time>2020-06-18T07:08:51Z</time>
      </trkpt>
      <trkpt lat="49.71573" lon="0.32599">
        <ele>97.8</ele>
        <time>2020-06-18T07:08:52Z</time>
      </trkpt>
      <trkpt lat="49.71577" lon="0.32603">
        <ele>97.9</ele>
        <time>2020-06-18T07:08:53Z</time>
      </trkpt>
      <trkpt lat="49.71581" lon="0.32607">
        <ele>98.1</ele>
        <time>2020-06-18T07:08:54Z</time>
      </trkpt>
      <trkpt lat="49.71585" lon="0.32611">
        <ele>98.2</ele>
        <time>2020-06-18T07:08:55Z</time>
      </trkpt>
      <trkpt lat="49.71588" lon="0.32614">
        <ele>98.3</ele>
        <time>2020-06-18T07:08:56Z</time>
      </trkpt>
      <trkpt lat="49.71592" lon="0.32618">
        <ele>98.4</ele>
        <time>2020-06-18T07:08:57Z</time>
      </trkpt>
      <trkpt lat="49.71596" lon="0.32623">
        <ele>98.5</ele>
        <time>2020-06-18T07:08:58Z</time>
      </trkpt>
      <trkpt lat="49.716" lon="0.32627">
        <ele>98.6</ele>
        <time>2020-06-18T07:08:59Z</time>
      </trkpt>
      <trkpt lat="49.71604" lon="0.3263">
        <ele>98.7</ele>
        <time>2020-06-18T07:09:00Z</time>
      </trkpt>
      <trkpt lat="49.71607" lon="0.32634">
        <ele>98.8</ele>
        <time>2020-06-18T07:09:01Z</time>
      </trkpt>
      <trkpt lat="49.71611" lon="0.32639">
        <ele>98.9</ele>
        <time>2020-06-18T07:09:02Z</time>
      </trkpt>
      <trkpt lat="49.71615" lon="0.32643">
        <ele>98.9</ele>
        <time>2020-06-18T07:09:03Z</time>
      </trkpt>
      <trkpt lat="49.7162" lon="0.32647">
        <ele>99</ele>
        <time>2020-06-18T07:09:04Z</time>
      </trkpt>
      <trkpt lat="49.71624" lon="0.32651">
        <ele>99</ele>
        <time>2020-06-18T07:09:05Z</time>
      </trkpt>
      <trkpt lat="49.71628" lon="0.32655">
        <ele>99.1</ele>
        <time>2020-06-18T07:09:06Z</time>
      </trkpt>
      <trkpt lat="49.71633" lon="0.32658">
        <ele>99.1</ele>
        <time>2020-06-18T07:09:07Z</time>
      </trkpt>
      <trkpt lat="49.71637" lon="0.32662">
        <ele>99.1</ele>
        <time>2020-06-18T07:09:08Z</time>
      </trkpt>
      <trkpt lat="49.71642" lon="0.32666">
        <ele>99.1</ele>
        <time>2020-06-18T07:09:09Z</time>
      </trkpt>
      <trkpt lat="49.71646" lon="0.3267">
        <ele>99.1</ele>
        <time>2020-06-18T07:09:10Z</time>
      </trkpt>
      <trkpt lat="49.7165" lon="0.32675">
        <ele>99.2</ele>
        <time>2020-06-18T07:09:11Z</time>
      </trkpt>
      <trkpt lat="49.71655" lon="0.32679">
        <ele>99.2</ele>
        <time>2020-06-18T07:09:12Z</time>
      </trkpt>
      <trkpt lat="49.7166" lon="0.32683">
        <ele>99.3</ele>
        <time>2020-06-18T07:09:13Z</time>
      </trkpt>
      <trkpt lat="49.71664" lon="0.32687">
        <ele>99.2</ele>
        <time>2020-06-18T07:09:14Z</time>
      </trkpt>
      <trkpt lat="49.71668" lon="0.32692">
        <ele>99.2</ele>
        <time>2020-06-18T07:09:15Z</time>
      </trkpt>
      <trkpt lat="49.71672" lon="0.32696">
        <ele>99.1</ele>
        <time>2020-06-18T07:09:16Z</time>
      </trkpt>
      <trkpt lat="49.71676" lon="0.327">
        <ele>99.1</ele>
        <time>2020-06-18T07:09:17Z</time>
      </trkpt>
      <trkpt lat="49.7168" lon="0.32706">
        <ele>99</ele>
        <time>2020-06-18T07:09:18Z</time>
      </trkpt>
      <trkpt lat="49.71682" lon="0.32714">
        <ele>98.8</ele>
        <time>2020-06-18T07:09:19Z</time>
      </trkpt>
      <trkpt lat="49.71681" lon="0.32724">
        <ele>98.6</ele>
        <time>2020-06-18T07:09:20Z</time>
      </trkpt>
      <trkpt lat="49.71679" lon="0.32733">
        <ele>98.5</ele>
        <time>2020-06-18T07:09:21Z</time>
      </trkpt>
      <trkpt lat="49.71675" lon="0.3274">
        <ele>98.4</ele>
        <time>2020-06-18T07:09:22Z</time>
      </trkpt>
      <trkpt lat="49.71672" lon="0.32747">
        <ele>98.3</ele>
        <time>2020-06-18T07:09:23Z</time>
      </trkpt>
      <trkpt lat="49.71668" lon="0.32754">
        <ele>98.2</ele>
        <time>2020-06-18T07:09:24Z</time>
      </trkpt>
      <trkpt lat="49.71664" lon="0.32761">
        <ele>98.1</ele>
        <time>2020-06-18T07:09:25Z</time>
      </trkpt>
      <trkpt lat="49.71661" lon="0.32769">
        <ele>98</ele>
        <time>2020-06-18T07:09:26Z</time>
      </trkpt>
      <trkpt lat="49.7166" lon="0.32778">
        <ele>97.9</ele>
        <time>2020-06-18T07:09:27Z</time>
      </trkpt>
      <trkpt lat="49.71659" lon="0.32788">
        <ele>97.8</ele>
        <time>2020-06-18T07:09:28Z</time>
      </trkpt>
      <trkpt lat="49.71657" lon="0.32798">
        <ele>97.5</ele>
        <time>2020-06-18T07:09:29Z</time>
      </trkpt>
      <trkpt lat="49.71658" lon="0.32808">
        <ele>97.3</ele>
        <time>2020-06-18T07:09:30Z</time>
      </trkpt>
      <trkpt lat="49.71659" lon="0.32818">
        <ele>97.2</ele>
        <time>2020-06-18T07:09:31Z</time>
      </trkpt>
      <trkpt lat="49.71659" lon="0.32827">
        <ele>97</ele>
        <time>2020-06-18T07:09:32Z</time>
      </trkpt>
      <trkpt lat="49.71659" lon="0.32836">
        <ele>96.9</ele>
        <time>2020-06-18T07:09:33Z</time>
      </trkpt>
      <trkpt lat="49.71659" lon="0.32845">
        <ele>96.8</ele>
        <time>2020-06-18T07:09:34Z</time>
      </trkpt>
      <trkpt lat="49.71659" lon="0.32854">
        <ele>96.8</ele>
        <time>2020-06-18T07:09:35Z</time>
      </trkpt>
      <trkpt lat="49.71659" lon="0.32864">
        <ele>96.7</ele>
        <time>2020-06-18T07:09:36Z</time>
      </trkpt>
      <trkpt lat="49.7166" lon="0.32874">
        <ele>96.6</ele>
        <time>2020-06-18T07:09:37Z</time>
      </trkpt>
      <trkpt lat="49.71661" lon="0.32884">
        <ele>96.6</ele>
        <time>2020-06-18T07:09:38Z</time>
      </trkpt>
      <trkpt lat="49.71662" lon="0.32894">
        <ele>96.5</ele>
        <time>2020-06-18T07:09:39Z</time>
      </trkpt>
      <trkpt lat="49.71662" lon="0.32905">
        <ele>96.5</ele>
        <time>2020-06-18T07:09:40Z</time>
      </trkpt>
      <trkpt lat="49.71664" lon="0.32914">
        <ele>96.5</ele>
        <time>2020-06-18T07:09:41Z</time>
      </trkpt>
      <trkpt lat="49.71666" lon="0.32924">
        <ele>96.5</ele>
        <time>2020-06-18T07:09:42Z</time>
      </trkpt>
      <trkpt lat="49.71668" lon="0.32933">
        <ele>96.6</ele>
        <time>2020-06-18T07:09:43Z</time>
      </trkpt>
      <trkpt lat="49.71671" lon="0.32942">
        <ele>96.6</ele>
        <time>2020-06-18T07:09:44Z</time>
      </trkpt>
      <trkpt lat="49.71674" lon="0.3295">
        <ele>96.6</ele>
        <time>2020-06-18T07:09:45Z</time>
      </trkpt>
      <trkpt lat="49.71676" lon="0.32958">
        <ele>96.6</ele>
        <time>2020-06-18T07:09:46Z</time>
      </trkpt>
      <trkpt lat="49.71679" lon="0.32966">
        <ele>96.7</ele>
        <time>2020-06-18T07:09:47Z</time>
      </trkpt>
      <trkpt lat="49.71682" lon="0.32973">
        <ele>96.7</ele>
        <time>2020-06-18T07:09:48Z</time>
      </trkpt>
      <trkpt lat="49.71685" lon="0.32981">
        <ele>96.8</ele>
        <time>2020-06-18T07:09:49Z</time>
      </trkpt>
      <trkpt lat="49.71687" lon="0.32989">
        <ele>96.9</ele>
        <time>2020-06-18T07:09:50Z</time>
      </trkpt>
      <trkpt lat="49.7169" lon="0.32997">
        <ele>97</ele>
        <time>2020-06-18T07:09:51Z</time>
      </trkpt>
      <trkpt lat="49.71693" lon="0.33004">
        <ele>97.1</ele>
        <time>2020-06-18T07:09:52Z</time>
      </trkpt>
      <trkpt lat="49.71696" lon="0.33012">
        <ele>97.2</ele>
        <time>2020-06-18T07:09:53Z</time>
      </trkpt>
      <trkpt lat="49.71698" lon="0.33019">
        <ele>97.3</ele>
        <time>2020-06-18T07:09:54Z</time>
      </trkpt>
      <trkpt lat="49.71701" lon="0.33027">
        <ele>97.4</ele>
        <time>2020-06-18T07:09:55Z</time>
      </trkpt>
      <trkpt lat="49.71703" lon="0.33034">
        <ele>97.4</ele>
        <time>2020-06-18T07:09:56Z</time>
      </trkpt>
      <trkpt lat="49.71705" lon="0.33043">
        <ele>97.5</ele>
        <time>2020-06-18T07:09:57Z</time>
      </trkpt>
      <trkpt lat="49.71708" lon="0.33051">
        <ele>97.6</ele>
        <time>2020-06-18T07:09:58Z</time>
      </trkpt>
      <trkpt lat="49.7171" lon="0.3306">
        <ele>97.7</ele>
        <time>2020-06-18T07:09:59Z</time>
      </trkpt>
      <trkpt lat="49.71713" lon="0.33068">
        <ele>97.9</ele>
        <time>2020-06-18T07:10:00Z</time>
      </trkpt>
      <trkpt lat="49.71715" lon="0.33077">
        <ele>98</ele>
        <time>2020-06-18T07:10:01Z</time>
      </trkpt>
      <trkpt lat="49.71717" lon="0.33085">
        <ele>98.2</ele>
        <time>2020-06-18T07:10:02Z</time>
      </trkpt>
      <trkpt lat="49.71719" lon="0.33093">
        <ele>98.4</ele>
        <time>2020-06-18T07:10:03Z</time>
      </trkpt>
      <trkpt lat="49.7172" lon="0.33101">
        <ele>98.5</ele>
        <time>2020-06-18T07:10:04Z</time>
      </trkpt>
      <trkpt lat="49.71721" lon="0.33109">
        <ele>98.7</ele>
        <time>2020-06-18T07:10:05Z</time>
      </trkpt>
      <trkpt lat="49.71722" lon="0.33117">
        <ele>98.8</ele>
        <time>2020-06-18T07:10:06Z</time>
      </trkpt>
      <trkpt lat="49.71723" lon="0.33125">
        <ele>99</ele>
        <time>2020-06-18T07:10:07Z</time>
      </trkpt>
      <trkpt lat="49.71724" lon="0.33132">
        <ele>99.1</ele>
        <time>2020-06-18T07:10:08Z</time>
      </trkpt>
      <trkpt lat="49.71725" lon="0.3314">
        <ele>99.2</ele>
        <time>2020-06-18T07:10:09Z</time>
      </trkpt>
      <trkpt lat="49.71726" lon="0.33148">
        <ele>99.3</ele>
        <time>2020-06-18T07:10:10Z</time>
      </trkpt>
      <trkpt lat="49.71727" lon="0.33155">
        <ele>99.4</ele>
        <time>2020-06-18T07:10:11Z</time>
      </trkpt>
      <trkpt lat="49.71728" lon="0.33162">
        <ele>99.5</ele>
        <time>2020-06-18T07:10:12Z</time>
      </trkpt>
      <trkpt lat="49.71729" lon="0.33169">
        <ele>99.6</ele>
        <time>2020-06-18T07:10:13Z</time>
      </trkpt>
      <trkpt lat="49.7173" lon="0.33177">
        <ele>99.7</ele>
        <time>2020-06-18T07:10:14Z</time>
      </trkpt>
      <trkpt lat="49.71731" lon="0.33185">
        <ele>99.8</ele>
        <time>2020-06-18T07:10:15Z</time>
      </trkpt>
      <trkpt lat="49.71732" lon="0.33192">
        <ele>99.8</ele>
        <time>2020-06-18T07:10:16Z</time>
      </trkpt>
      <trkpt lat="49.71733" lon="0.33199">
        <ele>99.8</ele>
        <time>2020-06-18T07:10:17Z</time>
      </trkpt>
      <trkpt lat="49.71735" lon="0.33206">
        <ele>99.9</ele>
        <time>2020-06-18T07:10:18Z</time>
      </trkpt>
      <trkpt lat="49.71736" lon="0.33213">
        <ele>99.9</ele>
        <time>2020-06-18T07:10:19Z</time>
      </trkpt>
      <trkpt lat="49.71737" lon="0.33221">
        <ele>100</ele>
        <time>2020-06-18T07:10:20Z</time>
      </trkpt>
      <trkpt lat="49.71738" lon="0.33228">
        <ele>100.1</ele>
        <time>2020-06-18T07:10:21Z</time>
      </trkpt>
      <trkpt lat="49.71738" lon="0.33236">
        <ele>100.2</ele>
        <time>2020-06-18T07:10:22Z</time>
      </trkpt>
      <trkpt lat="49.71739" lon="0.33244">
        <ele>100.3</ele>
        <time>2020-06-18T07:10:23Z</time>
      </trkpt>
      <trkpt lat="49.71739" lon="0.33253">
        <ele>100.4</ele>
        <time>2020-06-18T07:10:24Z</time>
      </trkpt>
      <trkpt lat="49.71739" lon="0.33261">
        <ele>100.5</ele>
        <time>2020-06-18T07:10:25Z</time>
      </trkpt>
      <trkpt lat="49.71738" lon="0.3327">
        <ele>100.5</ele>
        <time>2020-06-18T07:10:26Z</time>
      </trkpt>
      <trkpt lat="49.71737" lon="0.3328">
        <ele>100.6</ele>
        <time>2020-06-18T07:10:27Z</time>
      </trkpt>
      <trkpt lat="49.71735" lon="0.33289">
        <ele>100.7</ele>
        <time>2020-06-18T07:10:28Z</time>
      </trkpt>
      <trkpt lat="49.71732" lon="0.33298">
        <ele>100.7</ele>
        <time>2020-06-18T07:10:29Z</time>
      </trkpt>
      <trkpt lat="49.7173" lon="0.33306">
        <ele>100.8</ele>
        <time>2020-06-18T07:10:30Z</time>
      </trkpt>
      <trkpt lat="49.71726" lon="0.33313">
        <ele>100.8</ele>
        <time>2020-06-18T07:10:31Z</time>
      </trkpt>
      <trkpt lat="49.71723" lon="0.3332">
        <ele>100.8</ele>
        <time>2020-06-18T07:10:32Z</time>
      </trkpt>
      <trkpt lat="49.71719" lon="0.33326">
        <ele>100.8</ele>
        <time>2020-06-18T07:10:33Z</time>
      </trkpt>
      <trkpt lat="49.71715" lon="0.33331">
        <ele>100.9</ele>
        <time>2020-06-18T07:10:34Z</time>
      </trkpt>
      <trkpt lat="49.71711" lon="0.33336">
        <ele>100.9</ele>
        <time>2020-06-18T07:10:35Z</time>
      </trkpt>
      <trkpt lat="49.71708" lon="0.33341">
        <ele>101</ele>
        <time>2020-06-18T07:10:36Z</time>
      </trkpt>
      <trkpt lat="49.71703" lon="0.33344">
        <ele>101</ele>
        <time>2020-06-18T07:10:37Z</time>
      </trkpt>
      <trkpt lat="49.717" lon="0.33348">
        <ele>101</ele>
        <time>2020-06-18T07:10:38Z</time>
      </trkpt>
      <trkpt lat="49.71698" lon="0.33353">
        <ele>101.1</ele>
        <time>2020-06-18T07:10:39Z</time>
      </trkpt>
      <trkpt lat="49.71697" lon="0.3336">
        <ele>101.1</ele>
        <time>2020-06-18T07:10:40Z</time>
      </trkpt>
      <trkpt lat="49.71697" lon="0.33368">
        <ele>101.1</ele>
        <time>2020-06-18T07:10:41Z</time>
      </trkpt>
      <trkpt lat="49.71697" lon="0.33376">
        <ele>101.2</ele>
        <time>2020-06-18T07:10:42Z</time>
      </trkpt>
      <trkpt lat="49.71698" lon="0.33384">
        <ele>101.3</ele>
        <time>2020-06-18T07:10:43Z</time>
      </trkpt>
      <trkpt lat="49.717" lon="0.33392">
        <ele>101.4</ele>
        <time>2020-06-18T07:10:44Z</time>
      </trkpt>
      <trkpt lat="49.71701" lon="0.334">
        <ele>101.5</ele>
        <time>2020-06-18T07:10:45Z</time>
      </trkpt>
      <trkpt lat="49.71703" lon="0.33409">
        <ele>101.6</ele>
        <time>2020-06-18T07:10:46Z</time>
      </trkpt>
      <trkpt lat="49.71705" lon="0.33417">
        <ele>101.7</ele>
        <time>2020-06-18T07:10:47Z</time>
      </trkpt>
      <trkpt lat="49.71708" lon="0.33426">
        <ele>101.8</ele>
        <time>2020-06-18T07:10:48Z</time>
      </trkpt>
      <trkpt lat="49.7171" lon="0.33433">
        <ele>101.9</ele>
        <time>2020-06-18T07:10:49Z</time>
      </trkpt>
      <trkpt lat="49.71713" lon="0.33441">
        <ele>102</ele>
        <time>2020-06-18T07:10:50Z</time>
      </trkpt>
      <trkpt lat="49.71715" lon="0.33448">
        <ele>102.1</ele>
        <time>2020-06-18T07:10:51Z</time>
      </trkpt>
      <trkpt lat="49.71717" lon="0.33456">
        <ele>102.2</ele>
        <time>2020-06-18T07:10:52Z</time>
      </trkpt>
      <trkpt lat="49.71719" lon="0.33463">
        <ele>102.1</ele>
        <time>2020-06-18T07:10:53Z</time>
      </trkpt>
      <trkpt lat="49.71719" lon="0.33471">
        <ele>102.1</ele>
        <time>2020-06-18T07:10:54Z</time>
      </trkpt>
      <trkpt lat="49.7172" lon="0.33478">
        <ele>102.1</ele>
        <time>2020-06-18T07:10:55Z</time>
      </trkpt>
      <trkpt lat="49.71721" lon="0.33485">
        <ele>102.1</ele>
        <time>2020-06-18T07:10:56Z</time>
      </trkpt>
      <trkpt lat="49.71723" lon="0.33492">
        <ele>102.1</ele>
        <time>2020-06-18T07:10:57Z</time>
      </trkpt>
      <trkpt lat="49.71724" lon="0.33499">
        <ele>102</ele>
        <time>2020-06-18T07:10:58Z</time>
      </trkpt>
      <trkpt lat="49.71725" lon="0.33506">
        <ele>102</ele>
        <time>2020-06-18T07:10:59Z</time>
      </trkpt>
      <trkpt lat="49.71727" lon="0.33513">
        <ele>102</ele>
        <time>2020-06-18T07:11:00Z</time>
      </trkpt>
      <trkpt lat="49.71729" lon="0.33521">
        <ele>101.9</ele>
        <time>2020-06-18T07:11:01Z</time>
      </trkpt>
      <trkpt lat="49.71732" lon="0.33528">
        <ele>101.8</ele>
        <time>2020-06-18T07:11:02Z</time>
      </trkpt>
      <trkpt lat="49.71734" lon="0.33536">
        <ele>101.6</ele>
        <time>2020-06-18T07:11:03Z</time>
      </trkpt>
      <trkpt lat="49.71738" lon="0.33544">
        <ele>101.4</ele>
        <time>2020-06-18T07:11:04Z</time>
      </trkpt>
      <trkpt lat="49.7174" lon="0.33552">
        <ele>101.1</ele>
        <time>2020-06-18T07:11:05Z</time>
      </trkpt>
      <trkpt lat="49.71743" lon="0.3356">
        <ele>100.9</ele>
        <time>2020-06-18T07:11:06Z</time>
      </trkpt>
      <trkpt lat="49.71745" lon="0.33568">
        <ele>100.7</ele>
        <time>2020-06-18T07:11:07Z</time>
      </trkpt>
      <trkpt lat="49.71748" lon="0.33576">
        <ele>100.4</ele>
        <time>2020-06-18T07:11:08Z</time>
      </trkpt>
      <trkpt lat="49.7175" lon="0.33584">
        <ele>100.2</ele>
        <time>2020-06-18T07:11:09Z</time>
      </trkpt>
      <trkpt lat="49.71752" lon="0.33593">
        <ele>100</ele>
        <time>2020-06-18T07:11:10Z</time>
      </trkpt>
      <trkpt lat="49.71753" lon="0.33602">
        <ele>99.7</ele>
        <time>2020-06-18T07:11:11Z</time>
      </trkpt>
      <trkpt lat="49.71756" lon="0.3361">
        <ele>99.5</ele>
        <time>2020-06-18T07:11:12Z</time>
      </trkpt>
      <trkpt lat="49.71758" lon="0.33618">
        <ele>99.4</ele>
        <time>2020-06-18T07:11:13Z</time>
      </trkpt>
      <trkpt lat="49.71761" lon="0.33627">
        <ele>99.3</ele>
        <time>2020-06-18T07:11:14Z</time>
      </trkpt>
      <trkpt lat="49.71764" lon="0.33636">
        <ele>99.2</ele>
        <time>2020-06-18T07:11:15Z</time>
      </trkpt>
      <trkpt lat="49.71766" lon="0.33645">
        <ele>99.1</ele>
        <time>2020-06-18T07:11:16Z</time>
      </trkpt>
      <trkpt lat="49.71768" lon="0.33653">
        <ele>99.1</ele>
        <time>2020-06-18T07:11:17Z</time>
      </trkpt>
      <trkpt lat="49.71771" lon="0.33661">
        <ele>99.1</ele>
        <time>2020-06-18T07:11:18Z</time>
      </trkpt>
      <trkpt lat="49.71773" lon="0.33669">
        <ele>99</ele>
        <time>2020-06-18T07:11:19Z</time>
      </trkpt>
      <trkpt lat="49.71776" lon="0.33678">
        <ele>99</ele>
        <time>2020-06-18T07:11:20Z</time>
      </trkpt>
      <trkpt lat="49.71778" lon="0.33686">
        <ele>98.9</ele>
        <time>2020-06-18T07:11:21Z</time>
      </trkpt>
      <trkpt lat="49.71782" lon="0.33694">
        <ele>98.9</ele>
        <time>2020-06-18T07:11:22Z</time>
      </trkpt>
      <trkpt lat="49.71785" lon="0.33702">
        <ele>98.8</ele>
        <time>2020-06-18T07:11:23Z</time>
      </trkpt>
      <trkpt lat="49.71786" lon="0.3371">
        <ele>98.8</ele>
        <time>2020-06-18T07:11:24Z</time>
      </trkpt>
      <trkpt lat="49.71789" lon="0.33718">
        <ele>98.8</ele>
        <time>2020-06-18T07:11:25Z</time>
      </trkpt>
      <trkpt lat="49.71791" lon="0.33726">
        <ele>98.8</ele>
        <time>2020-06-18T07:11:26Z</time>
      </trkpt>
      <trkpt lat="49.71793" lon="0.33734">
        <ele>98.8</ele>
        <time>2020-06-18T07:11:27Z</time>
      </trkpt>
      <trkpt lat="49.71795" lon="0.33742">
        <ele>98.8</ele>
        <time>2020-06-18T07:11:28Z</time>
      </trkpt>
      <trkpt lat="49.71797" lon="0.3375">
        <ele>98.7</ele>
        <time>2020-06-18T07:11:29Z</time>
      </trkpt>
      <trkpt lat="49.71798" lon="0.33758">
        <ele>98.7</ele>
        <time>2020-06-18T07:11:30Z</time>
      </trkpt>
      <trkpt lat="49.718" lon="0.33766">
        <ele>98.6</ele>
        <time>2020-06-18T07:11:31Z</time>
      </trkpt>
      <trkpt lat="49.71802" lon="0.33775">
        <ele>98.5</ele>
        <time>2020-06-18T07:11:32Z</time>
      </trkpt>
      <trkpt lat="49.71805" lon="0.33783">
        <ele>98.5</ele>
        <time>2020-06-18T07:11:33Z</time>
      </trkpt>
      <trkpt lat="49.71809" lon="0.33791">
        <ele>98.4</ele>
        <time>2020-06-18T07:11:34Z</time>
      </trkpt>
      <trkpt lat="49.71813" lon="0.33798">
        <ele>98.4</ele>
        <time>2020-06-18T07:11:35Z</time>
      </trkpt>
      <trkpt lat="49.71816" lon="0.33805">
        <ele>98.3</ele>
        <time>2020-06-18T07:11:36Z</time>
      </trkpt>
      <trkpt lat="49.7182" lon="0.33811">
        <ele>98.2</ele>
        <time>2020-06-18T07:11:37Z</time>
      </trkpt>
      <trkpt lat="49.71824" lon="0.33816">
        <ele>98.2</ele>
        <time>2020-06-18T07:11:38Z</time>
      </trkpt>
      <trkpt lat="49.71828" lon="0.33821">
        <ele>98.2</ele>
        <time>2020-06-18T07:11:39Z</time>
      </trkpt>
      <trkpt lat="49.71832" lon="0.33826">
        <ele>98.2</ele>
        <time>2020-06-18T07:11:40Z</time>
      </trkpt>
      <trkpt lat="49.71837" lon="0.3383">
        <ele>98.2</ele>
        <time>2020-06-18T07:11:41Z</time>
      </trkpt>
      <trkpt lat="49.71839" lon="0.33837">
        <ele>98.3</ele>
        <time>2020-06-18T07:11:42Z</time>
      </trkpt>
      <trkpt lat="49.71841" lon="0.33844">
        <ele>98.4</ele>
        <time>2020-06-18T07:11:43Z</time>
      </trkpt>
      <trkpt lat="49.7184" lon="0.33852">
        <ele>98.4</ele>
        <time>2020-06-18T07:11:44Z</time>
      </trkpt>
      <trkpt lat="49.71838" lon="0.3386">
        <ele>98.3</ele>
        <time>2020-06-18T07:11:45Z</time>
      </trkpt>
      <trkpt lat="49.71835" lon="0.33868">
        <ele>98.2</ele>
        <time>2020-06-18T07:11:46Z</time>
      </trkpt>
      <trkpt lat="49.71833" lon="0.33876">
        <ele>98.1</ele>
        <time>2020-06-18T07:11:47Z</time>
      </trkpt>
      <trkpt lat="49.71829" lon="0.33884">
        <ele>98.1</ele>
        <time>2020-06-18T07:11:48Z</time>
      </trkpt>
      <trkpt lat="49.71826" lon="0.33891">
        <ele>98</ele>
        <time>2020-06-18T07:11:49Z</time>
      </trkpt>
      <trkpt lat="49.71823" lon="0.33899">
        <ele>97.9</ele>
        <time>2020-06-18T07:11:50Z</time>
      </trkpt>
      <trkpt lat="49.7182" lon="0.33908">
        <ele>97.7</ele>
        <time>2020-06-18T07:11:51Z</time>
      </trkpt>
      <trkpt lat="49.71819" lon="0.33916">
        <ele>97.6</ele>
        <time>2020-06-18T07:11:52Z</time>
      </trkpt>
      <trkpt lat="49.71816" lon="0.33925">
        <ele>97.4</ele>
        <time>2020-06-18T07:11:53Z</time>
      </trkpt>
      <trkpt lat="49.71814" lon="0.33934">
        <ele>97.2</ele>
        <time>2020-06-18T07:11:54Z</time>
      </trkpt>
      <trkpt lat="49.71813" lon="0.33944">
        <ele>97</ele>
        <time>2020-06-18T07:11:55Z</time>
      </trkpt>
      <trkpt lat="49.71812" lon="0.33953">
        <ele>96.8</ele>
        <time>2020-06-18T07:11:56Z</time>
      </trkpt>
      <trkpt lat="49.71811" lon="0.33963">
        <ele>96.5</ele>
        <time>2020-06-18T07:11:57Z</time>
      </trkpt>
      <trkpt lat="49.7181" lon="0.33973">
        <ele>96.3</ele>
        <time>2020-06-18T07:11:58Z</time>
      </trkpt>
      <trkpt lat="49.71809" lon="0.33983">
        <ele>96.1</ele>
        <time>2020-06-18T07:11:59Z</time>
      </trkpt>
      <trkpt lat="49.71808" lon="0.33993">
        <ele>95.8</ele>
        <time>2020-06-18T07:12:00Z</time>
      </trkpt>
      <trkpt lat="49.71808" lon="0.34004">
        <ele>95.6</ele>
        <time>2020-06-18T07:12:01Z</time>
      </trkpt>
      <trkpt lat="49.71807" lon="0.34015">
        <ele>95.3</ele>
        <time>2020-06-18T07:12:02Z</time>
      </trkpt>
      <trkpt lat="49.71806" lon="0.34026">
        <ele>94.9</ele>
        <time>2020-06-18T07:12:03Z</time>
      </trkpt>
      <trkpt lat="49.71806" lon="0.34038">
        <ele>94.5</ele>
        <time>2020-06-18T07:12:04Z</time>
      </trkpt>
      <trkpt lat="49.71806" lon="0.34049">
        <ele>94.2</ele>
        <time>2020-06-18T07:12:05Z</time>
      </trkpt>
      <trkpt lat="49.71805" lon="0.34061">
        <ele>93.8</ele>
        <time>2020-06-18T07:12:06Z</time>
      </trkpt>
      <trkpt lat="49.71805" lon="0.34074">
        <ele>93.3</ele>
        <time>2020-06-18T07:12:07Z</time>
      </trkpt>
      <trkpt lat="49.71805" lon="0.34086">
        <ele>92.8</ele>
        <time>2020-06-18T07:12:08Z</time>
      </trkpt>
      <trkpt lat="49.71805" lon="0.34099">
        <ele>92.3</ele>
        <time>2020-06-18T07:12:09Z</time>
      </trkpt>
      <trkpt lat="49.71804" lon="0.34112">
        <ele>91.7</ele>
        <time>2020-06-18T07:12:10Z</time>
      </trkpt>
      <trkpt lat="49.71804" lon="0.34126">
        <ele>91.1</ele>
        <time>2020-06-18T07:12:11Z</time>
      </trkpt>
      <trkpt lat="49.71804" lon="0.3414">
        <ele>90.5</ele>
        <time>2020-06-18T07:12:12Z</time>
      </trkpt>
      <trkpt lat="49.71803" lon="0.34153">
        <ele>89.9</ele>
        <time>2020-06-18T07:12:13Z</time>
      </trkpt>
      <trkpt lat="49.71803" lon="0.34166">
        <ele>89.2</ele>
        <time>2020-06-18T07:12:14Z</time>
      </trkpt>
      <trkpt lat="49.71802" lon="0.3418">
        <ele>88.5</ele>
        <time>2020-06-18T07:12:15Z</time>
      </trkpt>
      <trkpt lat="49.71801" lon="0.34194">
        <ele>87.8</ele>
        <time>2020-06-18T07:12:16Z</time>
      </trkpt>
      <trkpt lat="49.71801" lon="0.34208">
        <ele>87.2</ele>
        <time>2020-06-18T07:12:17Z</time>
      </trkpt>
      <trkpt lat="49.71801" lon="0.34222">
        <ele>86.4</ele>
        <time>2020-06-18T07:12:18Z</time>
      </trkpt>
      <trkpt lat="49.71802" lon="0.34235">
        <ele>85.7</ele>
        <time>2020-06-18T07:12:19Z</time>
      </trkpt>
      <trkpt lat="49.71802" lon="0.34248">
        <ele>85</ele>
        <time>2020-06-18T07:12:20Z</time>
      </trkpt>
      <trkpt lat="49.71802" lon="0.34261">
        <ele>84.3</ele>
        <time>2020-06-18T07:12:21Z</time>
      </trkpt>
      <trkpt lat="49.71801" lon="0.34273">
        <ele>83.8</ele>
        <time>2020-06-18T07:12:22Z</time>
      </trkpt>
      <trkpt lat="49.71801" lon="0.34285">
        <ele>83.3</ele>
        <time>2020-06-18T07:12:23Z</time>
      </trkpt>
      <trkpt lat="49.718" lon="0.34297">
        <ele>82.7</ele>
        <time>2020-06-18T07:12:24Z</time>
      </trkpt>
      <trkpt lat="49.718" lon="0.34309">
        <ele>82.2</ele>
        <time>2020-06-18T07:12:25Z</time>
      </trkpt>
      <trkpt lat="49.718" lon="0.34321">
        <ele>81.9</ele>
        <time>2020-06-18T07:12:26Z</time>
      </trkpt>
      <trkpt lat="49.718" lon="0.34331">
        <ele>81.6</ele>
        <time>2020-06-18T07:12:27Z</time>
      </trkpt>
      <trkpt lat="49.718" lon="0.34341">
        <ele>81.3</ele>
        <time>2020-06-18T07:12:28Z</time>
      </trkpt>
      <trkpt lat="49.718" lon="0.34351">
        <ele>81.1</ele>
        <time>2020-06-18T07:12:29Z</time>
      </trkpt>
      <trkpt lat="49.718" lon="0.3436">
        <ele>80.8</ele>
        <time>2020-06-18T07:12:30Z</time>
      </trkpt>
      <trkpt lat="49.71799" lon="0.34367">
        <ele>80.7</ele>
        <time>2020-06-18T07:12:31Z</time>
      </trkpt>
      <trkpt lat="49.718" lon="0.34373">
        <ele>80.6</ele>
        <time>2020-06-18T07:12:32Z</time>
      </trkpt>
      <trkpt lat="49.718" lon="0.34378">
        <ele>80.5</ele>
        <time>2020-06-18T07:12:33Z</time>
      </trkpt>
      <trkpt lat="49.718" lon="0.34384">
        <ele>80.5</ele>
        <time>2020-06-18T07:12:34Z</time>
      </trkpt>
      <trkpt lat="49.718" lon="0.34386">
        <ele>80.4</ele>
        <time>2020-06-18T07:12:35Z</time>
      </trkpt>
      <trkpt lat="49.71801" lon="0.34391">
        <ele>80.4</ele>
        <time>2020-06-18T07:12:36Z</time>
      </trkpt>
      <trkpt lat="49.71801" lon="0.34393">
        <ele>80.4</ele>
        <time>2020-06-18T07:12:37Z</time>
      </trkpt>
      <trkpt lat="49.71804" lon="0.34398">
        <ele>80.3</ele>
        <time>2020-06-18T07:12:38Z</time>
      </trkpt>
      <trkpt lat="49.71804" lon="0.34399">
        <ele>80.2</ele>
        <time>2020-06-18T07:12:39Z</time>
      </trkpt>
      <trkpt lat="49.71808" lon="0.344">
        <ele>80.2</ele>
        <time>2020-06-18T07:12:40Z</time>
      </trkpt>
      <trkpt lat="49.71812" lon="0.34398">
        <ele>80.1</ele>
        <time>2020-06-18T07:12:41Z</time>
      </trkpt>
      <trkpt lat="49.71815" lon="0.34393">
        <ele>80</ele>
        <time>2020-06-18T07:12:42Z</time>
      </trkpt>
      <trkpt lat="49.71819" lon="0.34391">
        <ele>79.9</ele>
        <time>2020-06-18T07:12:43Z</time>
      </trkpt>
      <trkpt lat="49.71824" lon="0.34391">
        <ele>79.8</ele>
        <time>2020-06-18T07:12:44Z</time>
      </trkpt>
      <trkpt lat="49.71829" lon="0.3439">
        <ele>79.7</ele>
        <time>2020-06-18T07:12:45Z</time>
      </trkpt>
      <trkpt lat="49.71833" lon="0.34388">
        <ele>79.6</ele>
        <time>2020-06-18T07:12:46Z</time>
      </trkpt>
      <trkpt lat="49.71838" lon="0.34385">
        <ele>79.6</ele>
        <time>2020-06-18T07:12:47Z</time>
      </trkpt>
      <trkpt lat="49.71843" lon="0.34385">
        <ele>79.5</ele>
        <time>2020-06-18T07:12:48Z</time>
      </trkpt>
      <trkpt lat="49.71848" lon="0.34387">
        <ele>79.5</ele>
        <time>2020-06-18T07:12:49Z</time>
      </trkpt>
      <trkpt lat="49.71853" lon="0.34388">
        <ele>79.4</ele>
        <time>2020-06-18T07:12:50Z</time>
      </trkpt>
      <trkpt lat="49.71857" lon="0.34388">
        <ele>79.4</ele>
        <time>2020-06-18T07:12:51Z</time>
      </trkpt>
      <trkpt lat="49.71862" lon="0.34388">
        <ele>79.4</ele>
        <time>2020-06-18T07:12:52Z</time>
      </trkpt>
      <trkpt lat="49.71867" lon="0.34388">
        <ele>79.3</ele>
        <time>2020-06-18T07:12:53Z</time>
      </trkpt>
      <trkpt lat="49.71872" lon="0.34388">
        <ele>79.2</ele>
        <time>2020-06-18T07:12:54Z</time>
      </trkpt>
      <trkpt lat="49.71876" lon="0.34387">
        <ele>79.2</ele>
        <time>2020-06-18T07:12:55Z</time>
      </trkpt>
      <trkpt lat="49.7188" lon="0.34386">
        <ele>79.1</ele>
        <time>2020-06-18T07:12:56Z</time>
      </trkpt>
      <trkpt lat="49.71884" lon="0.34385">
        <ele>79.1</ele>
        <time>2020-06-18T07:12:57Z</time>
      </trkpt>
      <trkpt lat="49.71889" lon="0.34385">
        <ele>79.1</ele>
        <time>2020-06-18T07:12:58Z</time>
      </trkpt>
      <trkpt lat="49.71893" lon="0.34387">
        <ele>79</ele>
        <time>2020-06-18T07:12:59Z</time>
      </trkpt>
      <trkpt lat="49.71897" lon="0.34389">
        <ele>79</ele>
        <time>2020-06-18T07:13:00Z</time>
      </trkpt>
      <trkpt lat="49.71901" lon="0.34391">
        <ele>79.1</ele>
        <time>2020-06-18T07:13:01Z</time>
      </trkpt>
      <trkpt lat="49.71904" lon="0.34392">
        <ele>79.2</ele>
        <time>2020-06-18T07:13:02Z</time>
      </trkpt>
      <trkpt lat="49.71908" lon="0.34393">
        <ele>79.3</ele>
        <time>2020-06-18T07:13:03Z</time>
      </trkpt>
      <trkpt lat="49.71912" lon="0.34394">
        <ele>79.5</ele>
        <time>2020-06-18T07:13:04Z</time>
      </trkpt>
      <trkpt lat="49.71915" lon="0.34397">
        <ele>79.6</ele>
        <time>2020-06-18T07:13:05Z</time>
      </trkpt>
      <trkpt lat="49.71918" lon="0.344">
        <ele>79.7</ele>
        <time>2020-06-18T07:13:06Z</time>
      </trkpt>
      <trkpt lat="49.71922" lon="0.34401">
        <ele>79.9</ele>
        <time>2020-06-18T07:13:07Z</time>
      </trkpt>
      <trkpt lat="49.71925" lon="0.34403">
        <ele>80</ele>
        <time>2020-06-18T07:13:08Z</time>
      </trkpt>
      <trkpt lat="49.71928" lon="0.34406">
        <ele>80.2</ele>
        <time>2020-06-18T07:13:09Z</time>
      </trkpt>
      <trkpt lat="49.71929" lon="0.34407">
        <ele>80.3</ele>
        <time>2020-06-18T07:13:10Z</time>
      </trkpt>
      <trkpt lat="49.71932" lon="0.34409">
        <ele>80.5</ele>
        <time>2020-06-18T07:13:11Z</time>
      </trkpt>
      <trkpt lat="49.71933" lon="0.34411">
        <ele>80.5</ele>
        <time>2020-06-18T07:13:12Z</time>
      </trkpt>
      <trkpt lat="49.71935" lon="0.34415">
        <ele>80.8</ele>
        <time>2020-06-18T07:13:13Z</time>
      </trkpt>
      <trkpt lat="49.71938" lon="0.34419">
        <ele>81</ele>
        <time>2020-06-18T07:13:14Z</time>
      </trkpt>
      <trkpt lat="49.71942" lon="0.34423">
        <ele>81.4</ele>
        <time>2020-06-18T07:13:15Z</time>
      </trkpt>
      <trkpt lat="49.71946" lon="0.34428">
        <ele>81.6</ele>
        <time>2020-06-18T07:13:16Z</time>
      </trkpt>
      <trkpt lat="49.71949" lon="0.34431">
        <ele>81.9</ele>
        <time>2020-06-18T07:13:17Z</time>
      </trkpt>
      <trkpt lat="49.71952" lon="0.34435">
        <ele>82.1</ele>
        <time>2020-06-18T07:13:18Z</time>
      </trkpt>
      <trkpt lat="49.71956" lon="0.34439">
        <ele>82.4</ele>
        <time>2020-06-18T07:13:19Z</time>
      </trkpt>
      <trkpt lat="49.7196" lon="0.34444">
        <ele>82.6</ele>
        <time>2020-06-18T07:13:20Z</time>
      </trkpt>
      <trkpt lat="49.71965" lon="0.34447">
        <ele>82.8</ele>
        <time>2020-06-18T07:13:21Z</time>
      </trkpt>
      <trkpt lat="49.71969" lon="0.34451">
        <ele>83</ele>
        <time>2020-06-18T07:13:22Z</time>
      </trkpt>
      <trkpt lat="49.71974" lon="0.34455">
        <ele>83.3</ele>
        <time>2020-06-18T07:13:23Z</time>
      </trkpt>
      <trkpt lat="49.71977" lon="0.3446">
        <ele>83.5</ele>
        <time>2020-06-18T07:13:24Z</time>
      </trkpt>
      <trkpt lat="49.71981" lon="0.34463">
        <ele>83.7</ele>
        <time>2020-06-18T07:13:25Z</time>
      </trkpt>
      <trkpt lat="49.71984" lon="0.34465">
        <ele>84</ele>
        <time>2020-06-18T07:13:26Z</time>
      </trkpt>
      <trkpt lat="49.71988" lon="0.34467">
        <ele>84.4</ele>
        <time>2020-06-18T07:13:27Z</time>
      </trkpt>
      <trkpt lat="49.71993" lon="0.3447">
        <ele>84.8</ele>
        <time>2020-06-18T07:13:28Z</time>
      </trkpt>
      <trkpt lat="49.71997" lon="0.34472">
        <ele>85.1</ele>
        <time>2020-06-18T07:13:29Z</time>
      </trkpt>
      <trkpt lat="49.72001" lon="0.34474">
        <ele>85.4</ele>
        <time>2020-06-18T07:13:30Z</time>
      </trkpt>
      <trkpt lat="49.72005" lon="0.34474">
        <ele>85.6</ele>
        <time>2020-06-18T07:13:31Z</time>
      </trkpt>
      <trkpt lat="49.72008" lon="0.34475">
        <ele>85.9</ele>
        <time>2020-06-18T07:13:32Z</time>
      </trkpt>
      <trkpt lat="49.72011" lon="0.34477">
        <ele>86.1</ele>
        <time>2020-06-18T07:13:33Z</time>
      </trkpt>
      <trkpt lat="49.72015" lon="0.34481">
        <ele>86.4</ele>
        <time>2020-06-18T07:13:34Z</time>
      </trkpt>
      <trkpt lat="49.72019" lon="0.34485">
        <ele>86.6</ele>
        <time>2020-06-18T07:13:35Z</time>
      </trkpt>
      <trkpt lat="49.72023" lon="0.34491">
        <ele>86.8</ele>
        <time>2020-06-18T07:13:36Z</time>
      </trkpt>
      <trkpt lat="49.72028" lon="0.34492">
        <ele>87</ele>
        <time>2020-06-18T07:13:37Z</time>
      </trkpt>
      <trkpt lat="49.72032" lon="0.34496">
        <ele>87.2</ele>
        <time>2020-06-18T07:13:38Z</time>
      </trkpt>
      <trkpt lat="49.72037" lon="0.34497">
        <ele>87.5</ele>
        <time>2020-06-18T07:13:39Z</time>
      </trkpt>
      <trkpt lat="49.72043" lon="0.34498">
        <ele>87.7</ele>
        <time>2020-06-18T07:13:40Z</time>
      </trkpt>
      <trkpt lat="49.72048" lon="0.345">
        <ele>88</ele>
        <time>2020-06-18T07:13:41Z</time>
      </trkpt>
      <trkpt lat="49.72054" lon="0.34504">
        <ele>88.3</ele>
        <time>2020-06-18T07:13:42Z</time>
      </trkpt>
      <trkpt lat="49.72059" lon="0.34506">
        <ele>88.5</ele>
        <time>2020-06-18T07:13:43Z</time>
      </trkpt>
      <trkpt lat="49.72064" lon="0.34508">
        <ele>88.7</ele>
        <time>2020-06-18T07:13:44Z</time>
      </trkpt>
      <trkpt lat="49.72069" lon="0.34511">
        <ele>88.9</ele>
        <time>2020-06-18T07:13:45Z</time>
      </trkpt>
      <trkpt lat="49.72072" lon="0.34513">
        <ele>89.1</ele>
        <time>2020-06-18T07:13:46Z</time>
      </trkpt>
      <trkpt lat="49.72076" lon="0.34516">
        <ele>89.3</ele>
        <time>2020-06-18T07:13:47Z</time>
      </trkpt>
      <trkpt lat="49.7208" lon="0.3452">
        <ele>89.5</ele>
        <time>2020-06-18T07:13:48Z</time>
      </trkpt>
      <trkpt lat="49.72084" lon="0.34524">
        <ele>89.7</ele>
        <time>2020-06-18T07:13:49Z</time>
      </trkpt>
      <trkpt lat="49.72088" lon="0.34527">
        <ele>89.9</ele>
        <time>2020-06-18T07:13:50Z</time>
      </trkpt>
      <trkpt lat="49.72091" lon="0.3453">
        <ele>90</ele>
        <time>2020-06-18T07:13:51Z</time>
      </trkpt>
      <trkpt lat="49.72095" lon="0.34532">
        <ele>90.2</ele>
        <time>2020-06-18T07:13:52Z</time>
      </trkpt>
      <trkpt lat="49.72099" lon="0.34535">
        <ele>90.4</ele>
        <time>2020-06-18T07:13:53Z</time>
      </trkpt>
      <trkpt lat="49.72102" lon="0.34538">
        <ele>90.6</ele>
        <time>2020-06-18T07:13:54Z</time>
      </trkpt>
      <trkpt lat="49.72106" lon="0.34542">
        <ele>90.8</ele>
        <time>2020-06-18T07:13:55Z</time>
      </trkpt>
      <trkpt lat="49.72108" lon="0.34546">
        <ele>91</ele>
        <time>2020-06-18T07:13:56Z</time>
      </trkpt>
      <trkpt lat="49.72111" lon="0.3455">
        <ele>91.2</ele>
        <time>2020-06-18T07:13:57Z</time>
      </trkpt>
      <trkpt lat="49.72114" lon="0.34554">
        <ele>91.4</ele>
        <time>2020-06-18T07:13:58Z</time>
      </trkpt>
      <trkpt lat="49.72117" lon="0.34558">
        <ele>91.6</ele>
        <time>2020-06-18T07:13:59Z</time>
      </trkpt>
      <trkpt lat="49.7212" lon="0.34563">
        <ele>91.8</ele>
        <time>2020-06-18T07:14:00Z</time>
      </trkpt>
      <trkpt lat="49.72124" lon="0.34567">
        <ele>92</ele>
        <time>2020-06-18T07:14:01Z</time>
      </trkpt>
      <trkpt lat="49.72127" lon="0.34571">
        <ele>92.2</ele>
        <time>2020-06-18T07:14:02Z</time>
      </trkpt>
      <trkpt lat="49.72129" lon="0.34575">
        <ele>92.4</ele>
        <time>2020-06-18T07:14:03Z</time>
      </trkpt>
      <trkpt lat="49.72132" lon="0.34578">
        <ele>92.6</ele>
        <time>2020-06-18T07:14:04Z</time>
      </trkpt>
      <trkpt lat="49.72134" lon="0.34581">
        <ele>92.8</ele>
        <time>2020-06-18T07:14:05Z</time>
      </trkpt>
      <trkpt lat="49.72138" lon="0.34585">
        <ele>93</ele>
        <time>2020-06-18T07:14:06Z</time>
      </trkpt>
      <trkpt lat="49.72141" lon="0.34589">
        <ele>93.2</ele>
        <time>2020-06-18T07:14:07Z</time>
      </trkpt>
      <trkpt lat="49.72144" lon="0.34595">
        <ele>93.4</ele>
        <time>2020-06-18T07:14:08Z</time>
      </trkpt>
      <trkpt lat="49.72148" lon="0.34599">
        <ele>93.6</ele>
        <time>2020-06-18T07:14:09Z</time>
      </trkpt>
      <trkpt lat="49.72151" lon="0.34603">
        <ele>93.8</ele>
        <time>2020-06-18T07:14:10Z</time>
      </trkpt>
      <trkpt lat="49.72154" lon="0.34608">
        <ele>94</ele>
        <time>2020-06-18T07:14:11Z</time>
      </trkpt>
      <trkpt lat="49.72158" lon="0.34612">
        <ele>94.2</ele>
        <time>2020-06-18T07:14:12Z</time>
      </trkpt>
      <trkpt lat="49.7216" lon="0.34616">
        <ele>94.4</ele>
        <time>2020-06-18T07:14:13Z</time>
      </trkpt>
      <trkpt lat="49.72163" lon="0.34619">
        <ele>94.5</ele>
        <time>2020-06-18T07:14:14Z</time>
      </trkpt>
      <trkpt lat="49.72167" lon="0.34625">
        <ele>94.7</ele>
        <time>2020-06-18T07:14:15Z</time>
      </trkpt>
      <trkpt lat="49.72168" lon="0.34627">
        <ele>94.8</ele>
        <time>2020-06-18T07:14:16Z</time>
      </trkpt>
      <trkpt lat="49.72172" lon="0.34631">
        <ele>95</ele>
        <time>2020-06-18T07:14:17Z</time>
      </trkpt>
      <trkpt lat="49.72175" lon="0.34636">
        <ele>95.2</ele>
        <time>2020-06-18T07:14:18Z</time>
      </trkpt>
      <trkpt lat="49.7218" lon="0.34641">
        <ele>95.5</ele>
        <time>2020-06-18T07:14:19Z</time>
      </trkpt>
      <trkpt lat="49.72183" lon="0.34646">
        <ele>95.6</ele>
        <time>2020-06-18T07:14:20Z</time>
      </trkpt>
      <trkpt lat="49.72186" lon="0.34649">
        <ele>95.8</ele>
        <time>2020-06-18T07:14:21Z</time>
      </trkpt>
      <trkpt lat="49.72189" lon="0.34654">
        <ele>95.9</ele>
        <time>2020-06-18T07:14:22Z</time>
      </trkpt>
      <trkpt lat="49.72192" lon="0.3466">
        <ele>96.1</ele>
        <time>2020-06-18T07:14:23Z</time>
      </trkpt>
      <trkpt lat="49.72194" lon="0.34665">
        <ele>96.2</ele>
        <time>2020-06-18T07:14:24Z</time>
      </trkpt>
      <trkpt lat="49.72197" lon="0.3467">
        <ele>96.4</ele>
        <time>2020-06-18T07:14:25Z</time>
      </trkpt>
      <trkpt lat="49.722" lon="0.34676">
        <ele>96.5</ele>
        <time>2020-06-18T07:14:26Z</time>
      </trkpt>
      <trkpt lat="49.72202" lon="0.34681">
        <ele>96.7</ele>
        <time>2020-06-18T07:14:27Z</time>
      </trkpt>
      <trkpt lat="49.72204" lon="0.34687">
        <ele>96.8</ele>
        <time>2020-06-18T07:14:28Z</time>
      </trkpt>
      <trkpt lat="49.72206" lon="0.34691">
        <ele>96.9</ele>
        <time>2020-06-18T07:14:29Z</time>
      </trkpt>
      <trkpt lat="49.72208" lon="0.34695">
        <ele>97</ele>
        <time>2020-06-18T07:14:30Z</time>
      </trkpt>
      <trkpt lat="49.72211" lon="0.34701">
        <ele>97.2</ele>
        <time>2020-06-18T07:14:31Z</time>
      </trkpt>
      <trkpt lat="49.72213" lon="0.34707">
        <ele>97.3</ele>
        <time>2020-06-18T07:14:32Z</time>
      </trkpt>
      <trkpt lat="49.72214" lon="0.34713">
        <ele>97.4</ele>
        <time>2020-06-18T07:14:33Z</time>
      </trkpt>
      <trkpt lat="49.72216" lon="0.34718">
        <ele>97.5</ele>
        <time>2020-06-18T07:14:34Z</time>
      </trkpt>
      <trkpt lat="49.72217" lon="0.34724">
        <ele>97.6</ele>
        <time>2020-06-18T07:14:35Z</time>
      </trkpt>
      <trkpt lat="49.72219" lon="0.3473">
        <ele>97.7</ele>
        <time>2020-06-18T07:14:36Z</time>
      </trkpt>
      <trkpt lat="49.72222" lon="0.34737">
        <ele>97.9</ele>
        <time>2020-06-18T07:14:37Z</time>
      </trkpt>
      <trkpt lat="49.72224" lon="0.34743">
        <ele>98</ele>
        <time>2020-06-18T07:14:38Z</time>
      </trkpt>
      <trkpt lat="49.72226" lon="0.34748">
        <ele>98</ele>
        <time>2020-06-18T07:14:39Z</time>
      </trkpt>
      <trkpt lat="49.72228" lon="0.34753">
        <ele>98.1</ele>
        <time>2020-06-18T07:14:40Z</time>
      </trkpt>
      <trkpt lat="49.72229" lon="0.34759">
        <ele>98.2</ele>
        <time>2020-06-18T07:14:41Z</time>
      </trkpt>
      <trkpt lat="49.72232" lon="0.34765">
        <ele>98.3</ele>
        <time>2020-06-18T07:14:42Z</time>
      </trkpt>
      <trkpt lat="49.72234" lon="0.34771">
        <ele>98.3</ele>
        <time>2020-06-18T07:14:43Z</time>
      </trkpt>
      <trkpt lat="49.72237" lon="0.34776">
        <ele>98.3</ele>
        <time>2020-06-18T07:14:44Z</time>
      </trkpt>
      <trkpt lat="49.7224" lon="0.34781">
        <ele>98.3</ele>
        <time>2020-06-18T07:14:45Z</time>
      </trkpt>
      <trkpt lat="49.72243" lon="0.34786">
        <ele>98.3</ele>
        <time>2020-06-18T07:14:46Z</time>
      </trkpt>
      <trkpt lat="49.72247" lon="0.34791">
        <ele>98.3</ele>
        <time>2020-06-18T07:14:47Z</time>
      </trkpt>
      <trkpt lat="49.72251" lon="0.34796">
        <ele>98.3</ele>
        <time>2020-06-18T07:14:48Z</time>
      </trkpt>
      <trkpt lat="49.72254" lon="0.34801">
        <ele>98.3</ele>
        <time>2020-06-18T07:14:49Z</time>
      </trkpt>
      <trkpt lat="49.72257" lon="0.34805">
        <ele>98.3</ele>
        <time>2020-06-18T07:14:50Z</time>
      </trkpt>
      <trkpt lat="49.7226" lon="0.34809">
        <ele>98.2</ele>
        <time>2020-06-18T07:14:51Z</time>
      </trkpt>
      <trkpt lat="49.72264" lon="0.34813">
        <ele>98.2</ele>
        <time>2020-06-18T07:14:52Z</time>
      </trkpt>
      <trkpt lat="49.72268" lon="0.34817">
        <ele>98.2</ele>
        <time>2020-06-18T07:14:53Z</time>
      </trkpt>
      <trkpt lat="49.72272" lon="0.34821">
        <ele>98.1</ele>
        <time>2020-06-18T07:14:54Z</time>
      </trkpt>
      <trkpt lat="49.72275" lon="0.34825">
        <ele>98.1</ele>
        <time>2020-06-18T07:14:55Z</time>
      </trkpt>
      <trkpt lat="49.72278" lon="0.34829">
        <ele>98.1</ele>
        <time>2020-06-18T07:14:56Z</time>
      </trkpt>
      <trkpt lat="49.72282" lon="0.34833">
        <ele>98</ele>
        <time>2020-06-18T07:14:57Z</time>
      </trkpt>
      <trkpt lat="49.72286" lon="0.34837">
        <ele>98</ele>
        <time>2020-06-18T07:14:58Z</time>
      </trkpt>
      <trkpt lat="49.72289" lon="0.34842">
        <ele>97.9</ele>
        <time>2020-06-18T07:14:59Z</time>
      </trkpt>
      <trkpt lat="49.72294" lon="0.34847">
        <ele>97.9</ele>
        <time>2020-06-18T07:15:00Z</time>
      </trkpt>
      <trkpt lat="49.72299" lon="0.34852">
        <ele>97.8</ele>
        <time>2020-06-18T07:15:01Z</time>
      </trkpt>
      <trkpt lat="49.72302" lon="0.34855">
        <ele>97.8</ele>
        <time>2020-06-18T07:15:02Z</time>
      </trkpt>
      <trkpt lat="49.72305" lon="0.34858">
        <ele>97.8</ele>
        <time>2020-06-18T07:15:03Z</time>
      </trkpt>
      <trkpt lat="49.7231" lon="0.34861">
        <ele>97.7</ele>
        <time>2020-06-18T07:15:04Z</time>
      </trkpt>
      <trkpt lat="49.72314" lon="0.34866">
        <ele>97.7</ele>
        <time>2020-06-18T07:15:05Z</time>
      </trkpt>
      <trkpt lat="49.72318" lon="0.34871">
        <ele>97.7</ele>
        <time>2020-06-18T07:15:06Z</time>
      </trkpt>
      <trkpt lat="49.72322" lon="0.34874">
        <ele>97.7</ele>
        <time>2020-06-18T07:15:07Z</time>
      </trkpt>
      <trkpt lat="49.72325" lon="0.34878">
        <ele>97.7</ele>
        <time>2020-06-18T07:15:08Z</time>
      </trkpt>
      <trkpt lat="49.72329" lon="0.34881">
        <ele>97.6</ele>
        <time>2020-06-18T07:15:09Z</time>
      </trkpt>
      <trkpt lat="49.72334" lon="0.34884">
        <ele>97.5</ele>
        <time>2020-06-18T07:15:10Z</time>
      </trkpt>
      <trkpt lat="49.72338" lon="0.34887">
        <ele>97.4</ele>
        <time>2020-06-18T07:15:11Z</time>
      </trkpt>
      <trkpt lat="49.72342" lon="0.34891">
        <ele>97.3</ele>
        <time>2020-06-18T07:15:12Z</time>
      </trkpt>
      <trkpt lat="49.72347" lon="0.34895">
        <ele>97.1</ele>
        <time>2020-06-18T07:15:13Z</time>
      </trkpt>
      <trkpt lat="49.72351" lon="0.34898">
        <ele>96.9</ele>
        <time>2020-06-18T07:15:14Z</time>
      </trkpt>
      <trkpt lat="49.72356" lon="0.34901">
        <ele>96.7</ele>
        <time>2020-06-18T07:15:15Z</time>
      </trkpt>
      <trkpt lat="49.72363" lon="0.34905">
        <ele>96.4</ele>
        <time>2020-06-18T07:15:16Z</time>
      </trkpt>
      <trkpt lat="49.72368" lon="0.34908">
        <ele>96.1</ele>
        <time>2020-06-18T07:15:17Z</time>
      </trkpt>
      <trkpt lat="49.72373" lon="0.34912">
        <ele>95.7</ele>
        <time>2020-06-18T07:15:18Z</time>
      </trkpt>
      <trkpt lat="49.72378" lon="0.34917">
        <ele>95.4</ele>
        <time>2020-06-18T07:15:19Z</time>
      </trkpt>
      <trkpt lat="49.72383" lon="0.34923">
        <ele>95</ele>
        <time>2020-06-18T07:15:20Z</time>
      </trkpt>
      <trkpt lat="49.72387" lon="0.34927">
        <ele>94.7</ele>
        <time>2020-06-18T07:15:21Z</time>
      </trkpt>
      <trkpt lat="49.72392" lon="0.34933">
        <ele>94.3</ele>
        <time>2020-06-18T07:15:22Z</time>
      </trkpt>
      <trkpt lat="49.72395" lon="0.34938">
        <ele>94.1</ele>
        <time>2020-06-18T07:15:23Z</time>
      </trkpt>
      <trkpt lat="49.72399" lon="0.34944">
        <ele>93.8</ele>
        <time>2020-06-18T07:15:24Z</time>
      </trkpt>
      <trkpt lat="49.72402" lon="0.3495">
        <ele>93.6</ele>
        <time>2020-06-18T07:15:25Z</time>
      </trkpt>
      <trkpt lat="49.72406" lon="0.34955">
        <ele>93.5</ele>
        <time>2020-06-18T07:15:26Z</time>
      </trkpt>
      <trkpt lat="49.72411" lon="0.3496">
        <ele>93.3</ele>
        <time>2020-06-18T07:15:27Z</time>
      </trkpt>
      <trkpt lat="49.72414" lon="0.34964">
        <ele>93.3</ele>
        <time>2020-06-18T07:15:28Z</time>
      </trkpt>
      <trkpt lat="49.72418" lon="0.34969">
        <ele>93.3</ele>
        <time>2020-06-18T07:15:29Z</time>
      </trkpt>
      <trkpt lat="49.72421" lon="0.34973">
        <ele>93.3</ele>
        <time>2020-06-18T07:15:30Z</time>
      </trkpt>
      <trkpt lat="49.72424" lon="0.34976">
        <ele>93.3</ele>
        <time>2020-06-18T07:15:31Z</time>
      </trkpt>
      <trkpt lat="49.72426" lon="0.3498">
        <ele>93.3</ele>
        <time>2020-06-18T07:15:32Z</time>
      </trkpt>
      <trkpt lat="49.72429" lon="0.34984">
        <ele>93.3</ele>
        <time>2020-06-18T07:15:33Z</time>
      </trkpt>
      <trkpt lat="49.72432" lon="0.34987">
        <ele>93.3</ele>
        <time>2020-06-18T07:15:34Z</time>
      </trkpt>
      <trkpt lat="49.72434" lon="0.34991">
        <ele>93.4</ele>
        <time>2020-06-18T07:15:35Z</time>
      </trkpt>
      <trkpt lat="49.72437" lon="0.34995">
        <ele>93.5</ele>
        <time>2020-06-18T07:15:36Z</time>
      </trkpt>
      <trkpt lat="49.7244" lon="0.35">
        <ele>93.6</ele>
        <time>2020-06-18T07:15:37Z</time>
      </trkpt>
      <trkpt lat="49.72444" lon="0.35005">
        <ele>93.8</ele>
        <time>2020-06-18T07:15:38Z</time>
      </trkpt>
      <trkpt lat="49.72447" lon="0.35009">
        <ele>93.9</ele>
        <time>2020-06-18T07:15:39Z</time>
      </trkpt>
      <trkpt lat="49.72451" lon="0.35014">
        <ele>94.1</ele>
        <time>2020-06-18T07:15:40Z</time>
      </trkpt>
      <trkpt lat="49.72453" lon="0.35019">
        <ele>94.3</ele>
        <time>2020-06-18T07:15:41Z</time>
      </trkpt>
      <trkpt lat="49.72456" lon="0.35022">
        <ele>94.4</ele>
        <time>2020-06-18T07:15:42Z</time>
      </trkpt>
      <trkpt lat="49.72459" lon="0.35027">
        <ele>94.6</ele>
        <time>2020-06-18T07:15:43Z</time>
      </trkpt>
      <trkpt lat="49.72463" lon="0.35032">
        <ele>94.8</ele>
        <time>2020-06-18T07:15:44Z</time>
      </trkpt>
      <trkpt lat="49.72466" lon="0.35037">
        <ele>95</ele>
        <time>2020-06-18T07:15:45Z</time>
      </trkpt>
      <trkpt lat="49.72469" lon="0.35042">
        <ele>95.2</ele>
        <time>2020-06-18T07:15:46Z</time>
      </trkpt>
      <trkpt lat="49.72472" lon="0.35048">
        <ele>95.4</ele>
        <time>2020-06-18T07:15:47Z</time>
      </trkpt>
      <trkpt lat="49.72475" lon="0.35054">
        <ele>95.6</ele>
        <time>2020-06-18T07:15:48Z</time>
      </trkpt>
      <trkpt lat="49.72479" lon="0.3506">
        <ele>95.8</ele>
        <time>2020-06-18T07:15:49Z</time>
      </trkpt>
      <trkpt lat="49.72482" lon="0.35064">
        <ele>96</ele>
        <time>2020-06-18T07:15:50Z</time>
      </trkpt>
      <trkpt lat="49.72485" lon="0.3507">
        <ele>96.2</ele>
        <time>2020-06-18T07:15:51Z</time>
      </trkpt>
      <trkpt lat="49.72488" lon="0.35076">
        <ele>96.4</ele>
        <time>2020-06-18T07:15:52Z</time>
      </trkpt>
      <trkpt lat="49.72492" lon="0.35081">
        <ele>96.6</ele>
        <time>2020-06-18T07:15:53Z</time>
      </trkpt>
      <trkpt lat="49.72494" lon="0.35086">
        <ele>96.7</ele>
        <time>2020-06-18T07:15:54Z</time>
      </trkpt>
      <trkpt lat="49.72497" lon="0.35092">
        <ele>96.9</ele>
        <time>2020-06-18T07:15:55Z</time>
      </trkpt>
      <trkpt lat="49.725" lon="0.35098">
        <ele>97.1</ele>
        <time>2020-06-18T07:15:56Z</time>
      </trkpt>
      <trkpt lat="49.72503" lon="0.35103">
        <ele>97.3</ele>
        <time>2020-06-18T07:15:57Z</time>
      </trkpt>
      <trkpt lat="49.72505" lon="0.35109">
        <ele>97.5</ele>
        <time>2020-06-18T07:15:58Z</time>
      </trkpt>
      <trkpt lat="49.72508" lon="0.35115">
        <ele>97.7</ele>
        <time>2020-06-18T07:15:59Z</time>
      </trkpt>
      <trkpt lat="49.7251" lon="0.35119">
        <ele>97.8</ele>
        <time>2020-06-18T07:16:00Z</time>
      </trkpt>
      <trkpt lat="49.72512" lon="0.35125">
        <ele>98</ele>
        <time>2020-06-18T07:16:01Z</time>
      </trkpt>
      <trkpt lat="49.72513" lon="0.35131">
        <ele>98.2</ele>
        <time>2020-06-18T07:16:02Z</time>
      </trkpt>
      <trkpt lat="49.72515" lon="0.35136">
        <ele>98.4</ele>
        <time>2020-06-18T07:16:03Z</time>
      </trkpt>
      <trkpt lat="49.72518" lon="0.35142">
        <ele>98.6</ele>
        <time>2020-06-18T07:16:04Z</time>
      </trkpt>
      <trkpt lat="49.7252" lon="0.35147">
        <ele>98.8</ele>
        <time>2020-06-18T07:16:05Z</time>
      </trkpt>
      <trkpt lat="49.72523" lon="0.35152">
        <ele>98.9</ele>
        <time>2020-06-18T07:16:06Z</time>
      </trkpt>
      <trkpt lat="49.72526" lon="0.35157">
        <ele>99.1</ele>
        <time>2020-06-18T07:16:07Z</time>
      </trkpt>
      <trkpt lat="49.72528" lon="0.3516">
        <ele>99.2</ele>
        <time>2020-06-18T07:16:08Z</time>
      </trkpt>
      <trkpt lat="49.72532" lon="0.35164">
        <ele>99.3</ele>
        <time>2020-06-18T07:16:09Z</time>
      </trkpt>
      <trkpt lat="49.72534" lon="0.35166">
        <ele>99.3</ele>
        <time>2020-06-18T07:16:10Z</time>
      </trkpt>
      <trkpt lat="49.72537" lon="0.35168">
        <ele>99.3</ele>
        <time>2020-06-18T07:16:11Z</time>
      </trkpt>
      <trkpt lat="49.72541" lon="0.35172">
        <ele>99.3</ele>
        <time>2020-06-18T07:16:12Z</time>
      </trkpt>
      <trkpt lat="49.72545" lon="0.35174">
        <ele>99.3</ele>
        <time>2020-06-18T07:16:13Z</time>
      </trkpt>
      <trkpt lat="49.72549" lon="0.35175">
        <ele>99.2</ele>
        <time>2020-06-18T07:16:14Z</time>
      </trkpt>
      <trkpt lat="49.72554" lon="0.35176">
        <ele>99.1</ele>
        <time>2020-06-18T07:16:15Z</time>
      </trkpt>
      <trkpt lat="49.72557" lon="0.35178">
        <ele>99</ele>
        <time>2020-06-18T07:16:16Z</time>
      </trkpt>
      <trkpt lat="49.72562" lon="0.35179">
        <ele>98.9</ele>
        <time>2020-06-18T07:16:17Z</time>
      </trkpt>
      <trkpt lat="49.72566" lon="0.35179">
        <ele>98.8</ele>
        <time>2020-06-18T07:16:18Z</time>
      </trkpt>
      <trkpt lat="49.72571" lon="0.3518">
        <ele>98.6</ele>
        <time>2020-06-18T07:16:19Z</time>
      </trkpt>
      <trkpt lat="49.72575" lon="0.35182">
        <ele>98.5</ele>
        <time>2020-06-18T07:16:20Z</time>
      </trkpt>
      <trkpt lat="49.72581" lon="0.35187">
        <ele>98.2</ele>
        <time>2020-06-18T07:16:21Z</time>
      </trkpt>
      <trkpt lat="49.72586" lon="0.35195">
        <ele>97.9</ele>
        <time>2020-06-18T07:16:22Z</time>
      </trkpt>
      <trkpt lat="49.72591" lon="0.35201">
        <ele>97.6</ele>
        <time>2020-06-18T07:16:23Z</time>
      </trkpt>
      <trkpt lat="49.72596" lon="0.35206">
        <ele>97.4</ele>
        <time>2020-06-18T07:16:24Z</time>
      </trkpt>
      <trkpt lat="49.72603" lon="0.35213">
        <ele>97.1</ele>
        <time>2020-06-18T07:16:25Z</time>
      </trkpt>
      <trkpt lat="49.7261" lon="0.35217">
        <ele>96.9</ele>
        <time>2020-06-18T07:16:26Z</time>
      </trkpt>
      <trkpt lat="49.72617" lon="0.35219">
        <ele>96.8</ele>
        <time>2020-06-18T07:16:27Z</time>
      </trkpt>
      <trkpt lat="49.72622" lon="0.35221">
        <ele>96.7</ele>
        <time>2020-06-18T07:16:28Z</time>
      </trkpt>
      <trkpt lat="49.72627" lon="0.35224">
        <ele>96.6</ele>
        <time>2020-06-18T07:16:29Z</time>
      </trkpt>
      <trkpt lat="49.72632" lon="0.35226">
        <ele>96.6</ele>
        <time>2020-06-18T07:16:30Z</time>
      </trkpt>
      <trkpt lat="49.72638" lon="0.35228">
        <ele>96.5</ele>
        <time>2020-06-18T07:16:31Z</time>
      </trkpt>
      <trkpt lat="49.72643" lon="0.35231">
        <ele>96.5</ele>
        <time>2020-06-18T07:16:32Z</time>
      </trkpt>
      <trkpt lat="49.72648" lon="0.35232">
        <ele>96.6</ele>
        <time>2020-06-18T07:16:33Z</time>
      </trkpt>
      <trkpt lat="49.72653" lon="0.35233">
        <ele>96.7</ele>
        <time>2020-06-18T07:16:34Z</time>
      </trkpt>
      <trkpt lat="49.7266" lon="0.35234">
        <ele>96.8</ele>
        <time>2020-06-18T07:16:35Z</time>
      </trkpt>
      <trkpt lat="49.72665" lon="0.35234">
        <ele>96.9</ele>
        <time>2020-06-18T07:16:36Z</time>
      </trkpt>
      <trkpt lat="49.7267" lon="0.35235">
        <ele>97</ele>
        <time>2020-06-18T07:16:37Z</time>
      </trkpt>
      <trkpt lat="49.72673" lon="0.35236">
        <ele>97.1</ele>
        <time>2020-06-18T07:16:38Z</time>
      </trkpt>
      <trkpt lat="49.72678" lon="0.35238">
        <ele>97.2</ele>
        <time>2020-06-18T07:16:39Z</time>
      </trkpt>
      <trkpt lat="49.72682" lon="0.35243">
        <ele>97.4</ele>
        <time>2020-06-18T07:16:40Z</time>
      </trkpt>
      <trkpt lat="49.72687" lon="0.3525">
        <ele>97.5</ele>
        <time>2020-06-18T07:16:41Z</time>
      </trkpt>
      <trkpt lat="49.72689" lon="0.35255">
        <ele>97.6</ele>
        <time>2020-06-18T07:16:42Z</time>
      </trkpt>
      <trkpt lat="49.72691" lon="0.35263">
        <ele>97.7</ele>
        <time>2020-06-18T07:16:43Z</time>
      </trkpt>
      <trkpt lat="49.7269" lon="0.35269">
        <ele>97.8</ele>
        <time>2020-06-18T07:16:44Z</time>
      </trkpt>
      <trkpt lat="49.7269" lon="0.35275">
        <ele>97.9</ele>
        <time>2020-06-18T07:16:45Z</time>
      </trkpt>
      <trkpt lat="49.72689" lon="0.35283">
        <ele>98</ele>
        <time>2020-06-18T07:16:46Z</time>
      </trkpt>
      <trkpt lat="49.72688" lon="0.35289">
        <ele>98.2</ele>
        <time>2020-06-18T07:16:47Z</time>
      </trkpt>
      <trkpt lat="49.72687" lon="0.35296">
        <ele>98.3</ele>
        <time>2020-06-18T07:16:48Z</time>
      </trkpt>
      <trkpt lat="49.72686" lon="0.35301">
        <ele>98.4</ele>
        <time>2020-06-18T07:16:49Z</time>
      </trkpt>
      <trkpt lat="49.72685" lon="0.35309">
        <ele>98.5</ele>
        <time>2020-06-18T07:16:50Z</time>
      </trkpt>
      <trkpt lat="49.72686" lon="0.35314">
        <ele>98.6</ele>
        <time>2020-06-18T07:16:51Z</time>
      </trkpt>
      <trkpt lat="49.72687" lon="0.3532">
        <ele>98.7</ele>
        <time>2020-06-18T07:16:52Z</time>
      </trkpt>
      <trkpt lat="49.7269" lon="0.35324">
        <ele>98.8</ele>
        <time>2020-06-18T07:16:53Z</time>
      </trkpt>
      <trkpt lat="49.72694" lon="0.35328">
        <ele>99.1</ele>
        <time>2020-06-18T07:16:54Z</time>
      </trkpt>
      <trkpt lat="49.72697" lon="0.35331">
        <ele>99.2</ele>
        <time>2020-06-18T07:16:55Z</time>
      </trkpt>
      <trkpt lat="49.727" lon="0.35334">
        <ele>99.3</ele>
        <time>2020-06-18T07:16:56Z</time>
      </trkpt>
      <trkpt lat="49.72705" lon="0.35337">
        <ele>99.4</ele>
        <time>2020-06-18T07:16:57Z</time>
      </trkpt>
      <trkpt lat="49.72709" lon="0.35341">
        <ele>99.5</ele>
        <time>2020-06-18T07:16:58Z</time>
      </trkpt>
      <trkpt lat="49.72713" lon="0.35344">
        <ele>99.7</ele>
        <time>2020-06-18T07:16:59Z</time>
      </trkpt>
      <trkpt lat="49.72718" lon="0.35347">
        <ele>99.8</ele>
        <time>2020-06-18T07:17:00Z</time>
      </trkpt>
      <trkpt lat="49.72723" lon="0.35352">
        <ele>100</ele>
        <time>2020-06-18T07:17:01Z</time>
      </trkpt>
      <trkpt lat="49.72727" lon="0.35356">
        <ele>100.2</ele>
        <time>2020-06-18T07:17:02Z</time>
      </trkpt>
      <trkpt lat="49.72732" lon="0.3536">
        <ele>100.4</ele>
        <time>2020-06-18T07:17:03Z</time>
      </trkpt>
      <trkpt lat="49.72735" lon="0.35362">
        <ele>100.6</ele>
        <time>2020-06-18T07:17:04Z</time>
      </trkpt>
      <trkpt lat="49.72739" lon="0.35365">
        <ele>100.8</ele>
        <time>2020-06-18T07:17:05Z</time>
      </trkpt>
      <trkpt lat="49.72742" lon="0.35368">
        <ele>101</ele>
        <time>2020-06-18T07:17:06Z</time>
      </trkpt>
      <trkpt lat="49.72746" lon="0.35371">
        <ele>101.2</ele>
        <time>2020-06-18T07:17:07Z</time>
      </trkpt>
      <trkpt lat="49.72749" lon="0.35373">
        <ele>101.3</ele>
        <time>2020-06-18T07:17:08Z</time>
      </trkpt>
      <trkpt lat="49.72753" lon="0.35377">
        <ele>101.5</ele>
        <time>2020-06-18T07:17:09Z</time>
      </trkpt>
      <trkpt lat="49.72757" lon="0.3538">
        <ele>101.6</ele>
        <time>2020-06-18T07:17:10Z</time>
      </trkpt>
      <trkpt lat="49.72761" lon="0.35383">
        <ele>101.8</ele>
        <time>2020-06-18T07:17:11Z</time>
      </trkpt>
      <trkpt lat="49.72765" lon="0.35386">
        <ele>101.9</ele>
        <time>2020-06-18T07:17:12Z</time>
      </trkpt>
      <trkpt lat="49.72769" lon="0.35389">
        <ele>102.1</ele>
        <time>2020-06-18T07:17:13Z</time>
      </trkpt>
      <trkpt lat="49.72773" lon="0.35393">
        <ele>102.3</ele>
        <time>2020-06-18T07:17:14Z</time>
      </trkpt>
      <trkpt lat="49.72778" lon="0.35396">
        <ele>102.4</ele>
        <time>2020-06-18T07:17:15Z</time>
      </trkpt>
      <trkpt lat="49.72782" lon="0.35399">
        <ele>102.6</ele>
        <time>2020-06-18T07:17:16Z</time>
      </trkpt>
      <trkpt lat="49.72786" lon="0.35401">
        <ele>102.8</ele>
        <time>2020-06-18T07:17:17Z</time>
      </trkpt>
      <trkpt lat="49.7279" lon="0.35404">
        <ele>102.9</ele>
        <time>2020-06-18T07:17:18Z</time>
      </trkpt>
      <trkpt lat="49.72793" lon="0.35407">
        <ele>103.1</ele>
        <time>2020-06-18T07:17:19Z</time>
      </trkpt>
      <trkpt lat="49.72797" lon="0.3541">
        <ele>103.2</ele>
        <time>2020-06-18T07:17:20Z</time>
      </trkpt>
      <trkpt lat="49.72801" lon="0.35414">
        <ele>103.4</ele>
        <time>2020-06-18T07:17:21Z</time>
      </trkpt>
      <trkpt lat="49.72805" lon="0.35417">
        <ele>103.6</ele>
        <time>2020-06-18T07:17:22Z</time>
      </trkpt>
      <trkpt lat="49.72809" lon="0.3542">
        <ele>103.8</ele>
        <time>2020-06-18T07:17:23Z</time>
      </trkpt>
      <trkpt lat="49.72813" lon="0.35423">
        <ele>104</ele>
        <time>2020-06-18T07:17:24Z</time>
      </trkpt>
      <trkpt lat="49.72817" lon="0.35426">
        <ele>104.1</ele>
        <time>2020-06-18T07:17:25Z</time>
      </trkpt>
      <trkpt lat="49.72821" lon="0.35429">
        <ele>104.3</ele>
        <time>2020-06-18T07:17:26Z</time>
      </trkpt>
      <trkpt lat="49.72824" lon="0.35432">
        <ele>104.5</ele>
        <time>2020-06-18T07:17:27Z</time>
      </trkpt>
      <trkpt lat="49.72829" lon="0.35436">
        <ele>104.6</ele>
        <time>2020-06-18T07:17:28Z</time>
      </trkpt>
      <trkpt lat="49.72833" lon="0.35439">
        <ele>104.8</ele>
        <time>2020-06-18T07:17:29Z</time>
      </trkpt>
      <trkpt lat="49.72839" lon="0.35443">
        <ele>105</ele>
        <time>2020-06-18T07:17:30Z</time>
      </trkpt>
      <trkpt lat="49.72843" lon="0.35447">
        <ele>105.2</ele>
        <time>2020-06-18T07:17:31Z</time>
      </trkpt>
      <trkpt lat="49.72847" lon="0.3545">
        <ele>105.4</ele>
        <time>2020-06-18T07:17:32Z</time>
      </trkpt>
      <trkpt lat="49.72851" lon="0.35453">
        <ele>105.5</ele>
        <time>2020-06-18T07:17:33Z</time>
      </trkpt>
      <trkpt lat="49.72856" lon="0.35457">
        <ele>105.7</ele>
        <time>2020-06-18T07:17:34Z</time>
      </trkpt>
      <trkpt lat="49.7286" lon="0.35461">
        <ele>105.8</ele>
        <time>2020-06-18T07:17:35Z</time>
      </trkpt>
      <trkpt lat="49.72864" lon="0.35464">
        <ele>105.9</ele>
        <time>2020-06-18T07:17:36Z</time>
      </trkpt>
      <trkpt lat="49.72867" lon="0.35466">
        <ele>106</ele>
        <time>2020-06-18T07:17:37Z</time>
      </trkpt>
      <trkpt lat="49.72872" lon="0.3547">
        <ele>106</ele>
        <time>2020-06-18T07:17:38Z</time>
      </trkpt>
      <trkpt lat="49.72877" lon="0.35473">
        <ele>106.1</ele>
        <time>2020-06-18T07:17:39Z</time>
      </trkpt>
      <trkpt lat="49.72881" lon="0.35476">
        <ele>106.1</ele>
        <time>2020-06-18T07:17:40Z</time>
      </trkpt>
      <trkpt lat="49.72885" lon="0.35479">
        <ele>106.1</ele>
        <time>2020-06-18T07:17:41Z</time>
      </trkpt>
      <trkpt lat="49.72888" lon="0.35483">
        <ele>106.1</ele>
        <time>2020-06-18T07:17:42Z</time>
      </trkpt>
      <trkpt lat="49.72893" lon="0.35487">
        <ele>106.2</ele>
        <time>2020-06-18T07:17:43Z</time>
      </trkpt>
      <trkpt lat="49.72897" lon="0.35492">
        <ele>106.2</ele>
        <time>2020-06-18T07:17:44Z</time>
      </trkpt>
      <trkpt lat="49.72901" lon="0.35495">
        <ele>106.2</ele>
        <time>2020-06-18T07:17:45Z</time>
      </trkpt>
      <trkpt lat="49.72905" lon="0.35499">
        <ele>106.3</ele>
        <time>2020-06-18T07:17:46Z</time>
      </trkpt>
      <trkpt lat="49.7291" lon="0.35503">
        <ele>106.3</ele>
        <time>2020-06-18T07:17:47Z</time>
      </trkpt>
      <trkpt lat="49.72914" lon="0.35508">
        <ele>106.3</ele>
        <time>2020-06-18T07:17:48Z</time>
      </trkpt>
      <trkpt lat="49.72918" lon="0.35512">
        <ele>106.3</ele>
        <time>2020-06-18T07:17:49Z</time>
      </trkpt>
      <trkpt lat="49.72923" lon="0.35517">
        <ele>106.3</ele>
        <time>2020-06-18T07:17:50Z</time>
      </trkpt>
      <trkpt lat="49.72927" lon="0.35521">
        <ele>106.2</ele>
        <time>2020-06-18T07:17:51Z</time>
      </trkpt>
      <trkpt lat="49.72931" lon="0.35525">
        <ele>106.2</ele>
        <time>2020-06-18T07:17:52Z</time>
      </trkpt>
      <trkpt lat="49.72936" lon="0.35529">
        <ele>106.2</ele>
        <time>2020-06-18T07:17:53Z</time>
      </trkpt>
      <trkpt lat="49.72939" lon="0.35533">
        <ele>106.1</ele>
        <time>2020-06-18T07:17:54Z</time>
      </trkpt>
      <trkpt lat="49.72945" lon="0.35536">
        <ele>106.1</ele>
        <time>2020-06-18T07:17:55Z</time>
      </trkpt>
      <trkpt lat="49.72949" lon="0.35537">
        <ele>106.1</ele>
        <time>2020-06-18T07:17:56Z</time>
      </trkpt>
      <trkpt lat="49.72954" lon="0.35539">
        <ele>106.1</ele>
        <time>2020-06-18T07:17:57Z</time>
      </trkpt>
      <trkpt lat="49.7296" lon="0.35541">
        <ele>106.1</ele>
        <time>2020-06-18T07:17:58Z</time>
      </trkpt>
      <trkpt lat="49.72966" lon="0.35541">
        <ele>106.1</ele>
        <time>2020-06-18T07:17:59Z</time>
      </trkpt>
      <trkpt lat="49.72971" lon="0.35541">
        <ele>106</ele>
        <time>2020-06-18T07:18:00Z</time>
      </trkpt>
      <trkpt lat="49.72978" lon="0.3554">
        <ele>106</ele>
        <time>2020-06-18T07:18:01Z</time>
      </trkpt>
      <trkpt lat="49.72984" lon="0.35539">
        <ele>106</ele>
        <time>2020-06-18T07:18:02Z</time>
      </trkpt>
      <trkpt lat="49.7299" lon="0.35538">
        <ele>105.9</ele>
        <time>2020-06-18T07:18:03Z</time>
      </trkpt>
      <trkpt lat="49.72996" lon="0.35536">
        <ele>105.9</ele>
        <time>2020-06-18T07:18:04Z</time>
      </trkpt>
      <trkpt lat="49.73002" lon="0.35534">
        <ele>105.8</ele>
        <time>2020-06-18T07:18:05Z</time>
      </trkpt>
      <trkpt lat="49.73008" lon="0.35533">
        <ele>105.8</ele>
        <time>2020-06-18T07:18:06Z</time>
      </trkpt>
      <trkpt lat="49.73014" lon="0.3553">
        <ele>105.8</ele>
        <time>2020-06-18T07:18:07Z</time>
      </trkpt>
      <trkpt lat="49.7302" lon="0.35529">
        <ele>105.7</ele>
        <time>2020-06-18T07:18:08Z</time>
      </trkpt>
      <trkpt lat="49.73024" lon="0.35526">
        <ele>105.7</ele>
        <time>2020-06-18T07:18:09Z</time>
      </trkpt>
      <trkpt lat="49.73031" lon="0.35524">
        <ele>105.7</ele>
        <time>2020-06-18T07:18:10Z</time>
      </trkpt>
      <trkpt lat="49.73037" lon="0.35522">
        <ele>105.8</ele>
        <time>2020-06-18T07:18:11Z</time>
      </trkpt>
      <trkpt lat="49.73044" lon="0.3552">
        <ele>105.8</ele>
        <time>2020-06-18T07:18:12Z</time>
      </trkpt>
      <trkpt lat="49.73051" lon="0.35518">
        <ele>105.8</ele>
        <time>2020-06-18T07:18:13Z</time>
      </trkpt>
      <trkpt lat="49.73057" lon="0.35516">
        <ele>105.9</ele>
        <time>2020-06-18T07:18:14Z</time>
      </trkpt>
      <trkpt lat="49.73064" lon="0.35516">
        <ele>105.9</ele>
        <time>2020-06-18T07:18:15Z</time>
      </trkpt>
      <trkpt lat="49.73069" lon="0.35514">
        <ele>105.9</ele>
        <time>2020-06-18T07:18:16Z</time>
      </trkpt>
      <trkpt lat="49.73075" lon="0.35512">
        <ele>105.9</ele>
        <time>2020-06-18T07:18:17Z</time>
      </trkpt>
      <trkpt lat="49.73081" lon="0.35511">
        <ele>105.9</ele>
        <time>2020-06-18T07:18:18Z</time>
      </trkpt>
      <trkpt lat="49.73087" lon="0.35509">
        <ele>105.9</ele>
        <time>2020-06-18T07:18:19Z</time>
      </trkpt>
      <trkpt lat="49.73093" lon="0.35507">
        <ele>105.9</ele>
        <time>2020-06-18T07:18:20Z</time>
      </trkpt>
      <trkpt lat="49.73099" lon="0.35506">
        <ele>105.8</ele>
        <time>2020-06-18T07:18:21Z</time>
      </trkpt>
      <trkpt lat="49.73106" lon="0.35505">
        <ele>105.7</ele>
        <time>2020-06-18T07:18:22Z</time>
      </trkpt>
      <trkpt lat="49.73112" lon="0.35504">
        <ele>105.6</ele>
        <time>2020-06-18T07:18:23Z</time>
      </trkpt>
      <trkpt lat="49.73118" lon="0.35503">
        <ele>105.5</ele>
        <time>2020-06-18T07:18:24Z</time>
      </trkpt>
      <trkpt lat="49.73123" lon="0.35503">
        <ele>105.5</ele>
        <time>2020-06-18T07:18:25Z</time>
      </trkpt>
      <trkpt lat="49.73129" lon="0.35503">
        <ele>105.4</ele>
        <time>2020-06-18T07:18:26Z</time>
      </trkpt>
      <trkpt lat="49.73135" lon="0.35504">
        <ele>105.4</ele>
        <time>2020-06-18T07:18:27Z</time>
      </trkpt>
      <trkpt lat="49.73142" lon="0.35504">
        <ele>105.3</ele>
        <time>2020-06-18T07:18:28Z</time>
      </trkpt>
      <trkpt lat="49.73148" lon="0.35505">
        <ele>105.2</ele>
        <time>2020-06-18T07:18:29Z</time>
      </trkpt>
      <trkpt lat="49.73154" lon="0.35506">
        <ele>105.1</ele>
        <time>2020-06-18T07:18:30Z</time>
      </trkpt>
      <trkpt lat="49.73159" lon="0.35506">
        <ele>105.1</ele>
        <time>2020-06-18T07:18:31Z</time>
      </trkpt>
      <trkpt lat="49.73166" lon="0.35506">
        <ele>105</ele>
        <time>2020-06-18T07:18:32Z</time>
      </trkpt>
      <trkpt lat="49.73172" lon="0.35506">
        <ele>105</ele>
        <time>2020-06-18T07:18:33Z</time>
      </trkpt>
      <trkpt lat="49.73178" lon="0.35506">
        <ele>104.9</ele>
        <time>2020-06-18T07:18:34Z</time>
      </trkpt>
      <trkpt lat="49.73184" lon="0.35508">
        <ele>104.9</ele>
        <time>2020-06-18T07:18:35Z</time>
      </trkpt>
      <trkpt lat="49.73189" lon="0.35509">
        <ele>104.8</ele>
        <time>2020-06-18T07:18:36Z</time>
      </trkpt>
      <trkpt lat="49.73196" lon="0.3551">
        <ele>104.8</ele>
        <time>2020-06-18T07:18:37Z</time>
      </trkpt>
      <trkpt lat="49.73202" lon="0.35512">
        <ele>104.7</ele>
        <time>2020-06-18T07:18:38Z</time>
      </trkpt>
      <trkpt lat="49.73209" lon="0.35514">
        <ele>104.7</ele>
        <time>2020-06-18T07:18:39Z</time>
      </trkpt>
      <trkpt lat="49.73215" lon="0.35516">
        <ele>104.6</ele>
        <time>2020-06-18T07:18:40Z</time>
      </trkpt>
      <trkpt lat="49.73222" lon="0.35518">
        <ele>104.6</ele>
        <time>2020-06-18T07:18:41Z</time>
      </trkpt>
      <trkpt lat="49.73228" lon="0.3552">
        <ele>104.5</ele>
        <time>2020-06-18T07:18:42Z</time>
      </trkpt>
      <trkpt lat="49.73235" lon="0.35522">
        <ele>104.4</ele>
        <time>2020-06-18T07:18:43Z</time>
      </trkpt>
      <trkpt lat="49.73241" lon="0.35523">
        <ele>104.4</ele>
        <time>2020-06-18T07:18:44Z</time>
      </trkpt>
      <trkpt lat="49.73247" lon="0.35525">
        <ele>104.3</ele>
        <time>2020-06-18T07:18:45Z</time>
      </trkpt>
      <trkpt lat="49.73254" lon="0.35528">
        <ele>104.2</ele>
        <time>2020-06-18T07:18:46Z</time>
      </trkpt>
      <trkpt lat="49.73261" lon="0.35529">
        <ele>104.1</ele>
        <time>2020-06-18T07:18:47Z</time>
      </trkpt>
      <trkpt lat="49.73267" lon="0.35531">
        <ele>104.1</ele>
        <time>2020-06-18T07:18:48Z</time>
      </trkpt>
      <trkpt lat="49.73274" lon="0.35533">
        <ele>104</ele>
        <time>2020-06-18T07:18:49Z</time>
      </trkpt>
      <trkpt lat="49.7328" lon="0.35535">
        <ele>104</ele>
        <time>2020-06-18T07:18:50Z</time>
      </trkpt>
      <trkpt lat="49.73286" lon="0.35538">
        <ele>103.9</ele>
        <time>2020-06-18T07:18:51Z</time>
      </trkpt>
      <trkpt lat="49.73293" lon="0.3554">
        <ele>103.8</ele>
        <time>2020-06-18T07:18:52Z</time>
      </trkpt>
      <trkpt lat="49.73299" lon="0.35543">
        <ele>103.7</ele>
        <time>2020-06-18T07:18:53Z</time>
      </trkpt>
      <trkpt lat="49.73305" lon="0.35546">
        <ele>103.7</ele>
        <time>2020-06-18T07:18:54Z</time>
      </trkpt>
      <trkpt lat="49.73311" lon="0.35549">
        <ele>103.6</ele>
        <time>2020-06-18T07:18:55Z</time>
      </trkpt>
      <trkpt lat="49.73318" lon="0.35552">
        <ele>103.5</ele>
        <time>2020-06-18T07:18:56Z</time>
      </trkpt>
      <trkpt lat="49.73323" lon="0.35555">
        <ele>103.5</ele>
        <time>2020-06-18T07:18:57Z</time>
      </trkpt>
      <trkpt lat="49.7333" lon="0.35558">
        <ele>103.4</ele>
        <time>2020-06-18T07:18:58Z</time>
      </trkpt>
      <trkpt lat="49.73336" lon="0.35562">
        <ele>103.4</ele>
        <time>2020-06-18T07:18:59Z</time>
      </trkpt>
      <trkpt lat="49.73342" lon="0.35565">
        <ele>103.3</ele>
        <time>2020-06-18T07:19:00Z</time>
      </trkpt>
      <trkpt lat="49.73348" lon="0.35568">
        <ele>103.3</ele>
        <time>2020-06-18T07:19:01Z</time>
      </trkpt>
      <trkpt lat="49.73353" lon="0.3557">
        <ele>103.2</ele>
        <time>2020-06-18T07:19:02Z</time>
      </trkpt>
      <trkpt lat="49.73359" lon="0.35573">
        <ele>103.2</ele>
        <time>2020-06-18T07:19:03Z</time>
      </trkpt>
      <trkpt lat="49.73364" lon="0.35574">
        <ele>103.1</ele>
        <time>2020-06-18T07:19:04Z</time>
      </trkpt>
      <trkpt lat="49.7337" lon="0.35576">
        <ele>103.1</ele>
        <time>2020-06-18T07:19:05Z</time>
      </trkpt>
      <trkpt lat="49.73376" lon="0.35577">
        <ele>103.1</ele>
        <time>2020-06-18T07:19:06Z</time>
      </trkpt>
      <trkpt lat="49.73383" lon="0.35577">
        <ele>103</ele>
        <time>2020-06-18T07:19:07Z</time>
      </trkpt>
      <trkpt lat="49.73391" lon="0.35575">
        <ele>102.9</ele>
        <time>2020-06-18T07:19:08Z</time>
      </trkpt>
      <trkpt lat="49.73397" lon="0.35572">
        <ele>102.8</ele>
        <time>2020-06-18T07:19:09Z</time>
      </trkpt>
      <trkpt lat="49.73403" lon="0.3557">
        <ele>102.7</ele>
        <time>2020-06-18T07:19:10Z</time>
      </trkpt>
      <trkpt lat="49.7341" lon="0.35567">
        <ele>102.5</ele>
        <time>2020-06-18T07:19:11Z</time>
      </trkpt>
      <trkpt lat="49.73417" lon="0.35565">
        <ele>102.4</ele>
        <time>2020-06-18T07:19:12Z</time>
      </trkpt>
      <trkpt lat="49.73423" lon="0.35562">
        <ele>102.3</ele>
        <time>2020-06-18T07:19:13Z</time>
      </trkpt>
      <trkpt lat="49.7343" lon="0.3556">
        <ele>102.2</ele>
        <time>2020-06-18T07:19:14Z</time>
      </trkpt>
      <trkpt lat="49.73437" lon="0.35558">
        <ele>102.1</ele>
        <time>2020-06-18T07:19:15Z</time>
      </trkpt>
      <trkpt lat="49.73444" lon="0.35555">
        <ele>102</ele>
        <time>2020-06-18T07:19:16Z</time>
      </trkpt>
      <trkpt lat="49.73451" lon="0.35553">
        <ele>101.9</ele>
        <time>2020-06-18T07:19:17Z</time>
      </trkpt>
      <trkpt lat="49.73457" lon="0.35551">
        <ele>101.8</ele>
        <time>2020-06-18T07:19:18Z</time>
      </trkpt>
      <trkpt lat="49.73464" lon="0.35548">
        <ele>101.6</ele>
        <time>2020-06-18T07:19:19Z</time>
      </trkpt>
      <trkpt lat="49.73472" lon="0.35547">
        <ele>101.5</ele>
        <time>2020-06-18T07:19:20Z</time>
      </trkpt>
      <trkpt lat="49.73478" lon="0.35546">
        <ele>101.4</ele>
        <time>2020-06-18T07:19:21Z</time>
      </trkpt>
      <trkpt lat="49.73486" lon="0.35545">
        <ele>101.2</ele>
        <time>2020-06-18T07:19:22Z</time>
      </trkpt>
      <trkpt lat="49.73493" lon="0.35543">
        <ele>101.1</ele>
        <time>2020-06-18T07:19:23Z</time>
      </trkpt>
      <trkpt lat="49.735" lon="0.35542">
        <ele>100.9</ele>
        <time>2020-06-18T07:19:24Z</time>
      </trkpt>
      <trkpt lat="49.73508" lon="0.35541">
        <ele>100.8</ele>
        <time>2020-06-18T07:19:25Z</time>
      </trkpt>
      <trkpt lat="49.73516" lon="0.3554">
        <ele>100.7</ele>
        <time>2020-06-18T07:19:26Z</time>
      </trkpt>
      <trkpt lat="49.73523" lon="0.3554">
        <ele>100.4</ele>
        <time>2020-06-18T07:19:27Z</time>
      </trkpt>
      <trkpt lat="49.73531" lon="0.35541">
        <ele>100.4</ele>
        <time>2020-06-18T07:19:28Z</time>
      </trkpt>
      <trkpt lat="49.73538" lon="0.35543">
        <ele>100.4</ele>
        <time>2020-06-18T07:19:29Z</time>
      </trkpt>
      <trkpt lat="49.73545" lon="0.35545">
        <ele>100.3</ele>
        <time>2020-06-18T07:19:30Z</time>
      </trkpt>
      <trkpt lat="49.73552" lon="0.35548">
        <ele>100.3</ele>
        <time>2020-06-18T07:19:31Z</time>
      </trkpt>
      <trkpt lat="49.73559" lon="0.35551">
        <ele>100.2</ele>
        <time>2020-06-18T07:19:32Z</time>
      </trkpt>
      <trkpt lat="49.73566" lon="0.35554">
        <ele>100.1</ele>
        <time>2020-06-18T07:19:33Z</time>
      </trkpt>
      <trkpt lat="49.73573" lon="0.35559">
        <ele>100.1</ele>
        <time>2020-06-18T07:19:34Z</time>
      </trkpt>
      <trkpt lat="49.73579" lon="0.35563">
        <ele>100</ele>
        <time>2020-06-18T07:19:35Z</time>
      </trkpt>
      <trkpt lat="49.73586" lon="0.35567">
        <ele>99.9</ele>
        <time>2020-06-18T07:19:36Z</time>
      </trkpt>
      <trkpt lat="49.73593" lon="0.35572">
        <ele>99.9</ele>
        <time>2020-06-18T07:19:37Z</time>
      </trkpt>
      <trkpt lat="49.73599" lon="0.35575">
        <ele>99.8</ele>
        <time>2020-06-18T07:19:38Z</time>
      </trkpt>
      <trkpt lat="49.73606" lon="0.35579">
        <ele>99.7</ele>
        <time>2020-06-18T07:19:39Z</time>
      </trkpt>
      <trkpt lat="49.73612" lon="0.35583">
        <ele>99.7</ele>
        <time>2020-06-18T07:19:40Z</time>
      </trkpt>
      <trkpt lat="49.73619" lon="0.35586">
        <ele>99.6</ele>
        <time>2020-06-18T07:19:41Z</time>
      </trkpt>
      <trkpt lat="49.73626" lon="0.35588">
        <ele>99.5</ele>
        <time>2020-06-18T07:19:42Z</time>
      </trkpt>
      <trkpt lat="49.73633" lon="0.35591">
        <ele>99.4</ele>
        <time>2020-06-18T07:19:43Z</time>
      </trkpt>
      <trkpt lat="49.7364" lon="0.35593">
        <ele>99.3</ele>
        <time>2020-06-18T07:19:44Z</time>
      </trkpt>
      <trkpt lat="49.73647" lon="0.35595">
        <ele>99.1</ele>
        <time>2020-06-18T07:19:45Z</time>
      </trkpt>
      <trkpt lat="49.73654" lon="0.35596">
        <ele>99.1</ele>
        <time>2020-06-18T07:19:46Z</time>
      </trkpt>
      <trkpt lat="49.73661" lon="0.35597">
        <ele>99</ele>
        <time>2020-06-18T07:19:47Z</time>
      </trkpt>
      <trkpt lat="49.73668" lon="0.35597">
        <ele>98.9</ele>
        <time>2020-06-18T07:19:48Z</time>
      </trkpt>
      <trkpt lat="49.73675" lon="0.356">
        <ele>99</ele>
        <time>2020-06-18T07:19:49Z</time>
      </trkpt>
      <trkpt lat="49.73682" lon="0.35602">
        <ele>99</ele>
        <time>2020-06-18T07:19:50Z</time>
      </trkpt>
      <trkpt lat="49.73688" lon="0.35605">
        <ele>99</ele>
        <time>2020-06-18T07:19:51Z</time>
      </trkpt>
      <trkpt lat="49.73694" lon="0.35609">
        <ele>99</ele>
        <time>2020-06-18T07:19:52Z</time>
      </trkpt>
      <trkpt lat="49.737" lon="0.35614">
        <ele>99.1</ele>
        <time>2020-06-18T07:19:53Z</time>
      </trkpt>
      <trkpt lat="49.73705" lon="0.35621">
        <ele>99.1</ele>
        <time>2020-06-18T07:19:54Z</time>
      </trkpt>
      <trkpt lat="49.7371" lon="0.35629">
        <ele>99.1</ele>
        <time>2020-06-18T07:19:55Z</time>
      </trkpt>
      <trkpt lat="49.73714" lon="0.35637">
        <ele>99.1</ele>
        <time>2020-06-18T07:19:56Z</time>
      </trkpt>
      <trkpt lat="49.73718" lon="0.35646">
        <ele>99.1</ele>
        <time>2020-06-18T07:19:57Z</time>
      </trkpt>
      <trkpt lat="49.73722" lon="0.35656">
        <ele>99.1</ele>
        <time>2020-06-18T07:19:58Z</time>
      </trkpt>
      <trkpt lat="49.73726" lon="0.35665">
        <ele>99</ele>
        <time>2020-06-18T07:19:59Z</time>
      </trkpt>
      <trkpt lat="49.73731" lon="0.35674">
        <ele>99</ele>
        <time>2020-06-18T07:20:00Z</time>
      </trkpt>
      <trkpt lat="49.73737" lon="0.35682">
        <ele>99</ele>
        <time>2020-06-18T07:20:01Z</time>
      </trkpt>
      <trkpt lat="49.73742" lon="0.3569">
        <ele>99</ele>
        <time>2020-06-18T07:20:02Z</time>
      </trkpt>
      <trkpt lat="49.73747" lon="0.35697">
        <ele>99</ele>
        <time>2020-06-18T07:20:03Z</time>
      </trkpt>
      <trkpt lat="49.73753" lon="0.35705">
        <ele>99</ele>
        <time>2020-06-18T07:20:04Z</time>
      </trkpt>
      <trkpt lat="49.73759" lon="0.35712">
        <ele>99.1</ele>
        <time>2020-06-18T07:20:05Z</time>
      </trkpt>
      <trkpt lat="49.73765" lon="0.35718">
        <ele>99.1</ele>
        <time>2020-06-18T07:20:06Z</time>
      </trkpt>
      <trkpt lat="49.7377" lon="0.35724">
        <ele>99.2</ele>
        <time>2020-06-18T07:20:07Z</time>
      </trkpt>
      <trkpt lat="49.73776" lon="0.3573">
        <ele>99.2</ele>
        <time>2020-06-18T07:20:08Z</time>
      </trkpt>
      <trkpt lat="49.73781" lon="0.35737">
        <ele>99.3</ele>
        <time>2020-06-18T07:20:09Z</time>
      </trkpt>
      <trkpt lat="49.73787" lon="0.35743">
        <ele>99.4</ele>
        <time>2020-06-18T07:20:10Z</time>
      </trkpt>
      <trkpt lat="49.73792" lon="0.35747">
        <ele>99.4</ele>
        <time>2020-06-18T07:20:11Z</time>
      </trkpt>
      <trkpt lat="49.73798" lon="0.3575">
        <ele>99.5</ele>
        <time>2020-06-18T07:20:12Z</time>
      </trkpt>
      <trkpt lat="49.73804" lon="0.35754">
        <ele>99.6</ele>
        <time>2020-06-18T07:20:13Z</time>
      </trkpt>
      <trkpt lat="49.7381" lon="0.35758">
        <ele>99.7</ele>
        <time>2020-06-18T07:20:14Z</time>
      </trkpt>
      <trkpt lat="49.73816" lon="0.35763">
        <ele>99.7</ele>
        <time>2020-06-18T07:20:15Z</time>
      </trkpt>
      <trkpt lat="49.73822" lon="0.35767">
        <ele>99.8</ele>
        <time>2020-06-18T07:20:16Z</time>
      </trkpt>
      <trkpt lat="49.73827" lon="0.35771">
        <ele>99.9</ele>
        <time>2020-06-18T07:20:17Z</time>
      </trkpt>
      <trkpt lat="49.73832" lon="0.35774">
        <ele>100</ele>
        <time>2020-06-18T07:20:18Z</time>
      </trkpt>
      <trkpt lat="49.73836" lon="0.35779">
        <ele>100.1</ele>
        <time>2020-06-18T07:20:19Z</time>
      </trkpt>
      <trkpt lat="49.73841" lon="0.35783">
        <ele>100.2</ele>
        <time>2020-06-18T07:20:20Z</time>
      </trkpt>
      <trkpt lat="49.73845" lon="0.35787">
        <ele>100.2</ele>
        <time>2020-06-18T07:20:21Z</time>
      </trkpt>
      <trkpt lat="49.73849" lon="0.35791">
        <ele>100.3</ele>
        <time>2020-06-18T07:20:22Z</time>
      </trkpt>
      <trkpt lat="49.73853" lon="0.35793">
        <ele>100.4</ele>
        <time>2020-06-18T07:20:23Z</time>
      </trkpt>
      <trkpt lat="49.73857" lon="0.35794">
        <ele>100.5</ele>
        <time>2020-06-18T07:20:24Z</time>
      </trkpt>
      <trkpt lat="49.73862" lon="0.35793">
        <ele>100.5</ele>
        <time>2020-06-18T07:20:25Z</time>
      </trkpt>
      <trkpt lat="49.73867" lon="0.35793">
        <ele>100.6</ele>
        <time>2020-06-18T07:20:26Z</time>
      </trkpt>
      <trkpt lat="49.73871" lon="0.35795">
        <ele>100.6</ele>
        <time>2020-06-18T07:20:27Z</time>
      </trkpt>
      <trkpt lat="49.73874" lon="0.358">
        <ele>100.6</ele>
        <time>2020-06-18T07:20:28Z</time>
      </trkpt>
      <trkpt lat="49.73879" lon="0.35804">
        <ele>100.7</ele>
        <time>2020-06-18T07:20:29Z</time>
      </trkpt>
      <trkpt lat="49.73884" lon="0.35803">
        <ele>100.7</ele>
        <time>2020-06-18T07:20:30Z</time>
      </trkpt>
      <trkpt lat="49.73887" lon="0.35797">
        <ele>100.7</ele>
        <time>2020-06-18T07:20:31Z</time>
      </trkpt>
      <trkpt lat="49.73891" lon="0.35792">
        <ele>100.6</ele>
        <time>2020-06-18T07:20:32Z</time>
      </trkpt>
      <trkpt lat="49.73893" lon="0.35785">
        <ele>100.6</ele>
        <time>2020-06-18T07:20:33Z</time>
      </trkpt>
      <trkpt lat="49.73896" lon="0.35779">
        <ele>100.4</ele>
        <time>2020-06-18T07:20:34Z</time>
      </trkpt>
      <trkpt lat="49.73901" lon="0.35775">
        <ele>100.1</ele>
        <time>2020-06-18T07:20:35Z</time>
      </trkpt>
      <trkpt lat="49.73905" lon="0.35769">
        <ele>100.1</ele>
        <time>2020-06-18T07:20:36Z</time>
      </trkpt>
      <trkpt lat="49.73909" lon="0.35762">
        <ele>100.1</ele>
        <time>2020-06-18T07:20:37Z</time>
      </trkpt>
      <trkpt lat="49.73913" lon="0.35755">
        <ele>100.1</ele>
        <time>2020-06-18T07:20:38Z</time>
      </trkpt>
      <trkpt lat="49.73916" lon="0.35748">
        <ele>100</ele>
        <time>2020-06-18T07:20:39Z</time>
      </trkpt>
      <trkpt lat="49.7392" lon="0.3574">
        <ele>100</ele>
        <time>2020-06-18T07:20:40Z</time>
      </trkpt>
      <trkpt lat="49.73922" lon="0.35732">
        <ele>99.9</ele>
        <time>2020-06-18T07:20:41Z</time>
      </trkpt>
      <trkpt lat="49.73925" lon="0.35724">
        <ele>99.8</ele>
        <time>2020-06-18T07:20:42Z</time>
      </trkpt>
      <trkpt lat="49.73927" lon="0.35716">
        <ele>99.7</ele>
        <time>2020-06-18T07:20:43Z</time>
      </trkpt>
      <trkpt lat="49.7393" lon="0.35708">
        <ele>99.6</ele>
        <time>2020-06-18T07:20:44Z</time>
      </trkpt>
      <trkpt lat="49.73934" lon="0.357">
        <ele>99.5</ele>
        <time>2020-06-18T07:20:45Z</time>
      </trkpt>
      <trkpt lat="49.73937" lon="0.35691">
        <ele>99.4</ele>
        <time>2020-06-18T07:20:46Z</time>
      </trkpt>
      <trkpt lat="49.73939" lon="0.35683">
        <ele>99.3</ele>
        <time>2020-06-18T07:20:47Z</time>
      </trkpt>
      <trkpt lat="49.73941" lon="0.35674">
        <ele>99.2</ele>
        <time>2020-06-18T07:20:48Z</time>
      </trkpt>
      <trkpt lat="49.73943" lon="0.35666">
        <ele>99.1</ele>
        <time>2020-06-18T07:20:49Z</time>
      </trkpt>
      <trkpt lat="49.73945" lon="0.35658">
        <ele>99.1</ele>
        <time>2020-06-18T07:20:50Z</time>
      </trkpt>
      <trkpt lat="49.73946" lon="0.35651">
        <ele>99</ele>
        <time>2020-06-18T07:20:51Z</time>
      </trkpt>
      <trkpt lat="49.73947" lon="0.35643">
        <ele>98.9</ele>
        <time>2020-06-18T07:20:52Z</time>
      </trkpt>
      <trkpt lat="49.73949" lon="0.35636">
        <ele>98.8</ele>
        <time>2020-06-18T07:20:53Z</time>
      </trkpt>
      <trkpt lat="49.73951" lon="0.35628">
        <ele>98.7</ele>
        <time>2020-06-18T07:20:54Z</time>
      </trkpt>
      <trkpt lat="49.73953" lon="0.35622">
        <ele>98.6</ele>
        <time>2020-06-18T07:20:55Z</time>
      </trkpt>
      <trkpt lat="49.73955" lon="0.35615">
        <ele>98.5</ele>
        <time>2020-06-18T07:20:56Z</time>
      </trkpt>
      <trkpt lat="49.73957" lon="0.35608">
        <ele>98.4</ele>
        <time>2020-06-18T07:20:57Z</time>
      </trkpt>
      <trkpt lat="49.73959" lon="0.35601">
        <ele>98.3</ele>
        <time>2020-06-18T07:20:58Z</time>
      </trkpt>
      <trkpt lat="49.7396" lon="0.35594">
        <ele>98.1</ele>
        <time>2020-06-18T07:20:59Z</time>
      </trkpt>
      <trkpt lat="49.73962" lon="0.35587">
        <ele>98</ele>
        <time>2020-06-18T07:21:00Z</time>
      </trkpt>
      <trkpt lat="49.73964" lon="0.3558">
        <ele>97.9</ele>
        <time>2020-06-18T07:21:01Z</time>
      </trkpt>
      <trkpt lat="49.73967" lon="0.35573">
        <ele>97.8</ele>
        <time>2020-06-18T07:21:02Z</time>
      </trkpt>
      <trkpt lat="49.73968" lon="0.35566">
        <ele>97.8</ele>
        <time>2020-06-18T07:21:03Z</time>
      </trkpt>
      <trkpt lat="49.73969" lon="0.35558">
        <ele>97.8</ele>
        <time>2020-06-18T07:21:04Z</time>
      </trkpt>
      <trkpt lat="49.73969" lon="0.35551">
        <ele>97.7</ele>
        <time>2020-06-18T07:21:05Z</time>
      </trkpt>
      <trkpt lat="49.7397" lon="0.35543">
        <ele>97.4</ele>
        <time>2020-06-18T07:21:06Z</time>
      </trkpt>
      <trkpt lat="49.7397" lon="0.35535">
        <ele>97.3</ele>
        <time>2020-06-18T07:21:07Z</time>
      </trkpt>
      <trkpt lat="49.73971" lon="0.35527">
        <ele>97.1</ele>
        <time>2020-06-18T07:21:08Z</time>
      </trkpt>
      <trkpt lat="49.73972" lon="0.35518">
        <ele>96.9</ele>
        <time>2020-06-18T07:21:09Z</time>
      </trkpt>
      <trkpt lat="49.73972" lon="0.35509">
        <ele>96.7</ele>
        <time>2020-06-18T07:21:10Z</time>
      </trkpt>
      <trkpt lat="49.73973" lon="0.355">
        <ele>96.5</ele>
        <time>2020-06-18T07:21:11Z</time>
      </trkpt>
      <trkpt lat="49.73974" lon="0.35492">
        <ele>96.3</ele>
        <time>2020-06-18T07:21:12Z</time>
      </trkpt>
      <trkpt lat="49.73975" lon="0.35483">
        <ele>96</ele>
        <time>2020-06-18T07:21:13Z</time>
      </trkpt>
      <trkpt lat="49.73976" lon="0.35473">
        <ele>95.8</ele>
        <time>2020-06-18T07:21:14Z</time>
      </trkpt>
      <trkpt lat="49.73977" lon="0.35464">
        <ele>95.5</ele>
        <time>2020-06-18T07:21:15Z</time>
      </trkpt>
      <trkpt lat="49.73978" lon="0.35454">
        <ele>95.3</ele>
        <time>2020-06-18T07:21:16Z</time>
      </trkpt>
      <trkpt lat="49.73979" lon="0.35444">
        <ele>95</ele>
        <time>2020-06-18T07:21:17Z</time>
      </trkpt>
      <trkpt lat="49.7398" lon="0.35434">
        <ele>94.8</ele>
        <time>2020-06-18T07:21:18Z</time>
      </trkpt>
      <trkpt lat="49.73981" lon="0.35424">
        <ele>94.5</ele>
        <time>2020-06-18T07:21:19Z</time>
      </trkpt>
      <trkpt lat="49.7398" lon="0.35414">
        <ele>94.2</ele>
        <time>2020-06-18T07:21:20Z</time>
      </trkpt>
      <trkpt lat="49.7398" lon="0.35404">
        <ele>93.9</ele>
        <time>2020-06-18T07:21:21Z</time>
      </trkpt>
      <trkpt lat="49.7398" lon="0.35394">
        <ele>93.6</ele>
        <time>2020-06-18T07:21:22Z</time>
      </trkpt>
      <trkpt lat="49.7398" lon="0.35383">
        <ele>93.4</ele>
        <time>2020-06-18T07:21:23Z</time>
      </trkpt>
      <trkpt lat="49.73981" lon="0.35373">
        <ele>93.1</ele>
        <time>2020-06-18T07:21:24Z</time>
      </trkpt>
      <trkpt lat="49.73982" lon="0.35363">
        <ele>92.8</ele>
        <time>2020-06-18T07:21:25Z</time>
      </trkpt>
      <trkpt lat="49.73982" lon="0.35353">
        <ele>92.6</ele>
        <time>2020-06-18T07:21:26Z</time>
      </trkpt>
      <trkpt lat="49.73982" lon="0.35342">
        <ele>92.3</ele>
        <time>2020-06-18T07:21:27Z</time>
      </trkpt>
      <trkpt lat="49.73983" lon="0.35332">
        <ele>92.1</ele>
        <time>2020-06-18T07:21:28Z</time>
      </trkpt>
      <trkpt lat="49.73984" lon="0.35322">
        <ele>91.8</ele>
        <time>2020-06-18T07:21:29Z</time>
      </trkpt>
      <trkpt lat="49.73986" lon="0.35312">
        <ele>91.4</ele>
        <time>2020-06-18T07:21:30Z</time>
      </trkpt>
      <trkpt lat="49.73988" lon="0.35302">
        <ele>91.1</ele>
        <time>2020-06-18T07:21:31Z</time>
      </trkpt>
      <trkpt lat="49.73989" lon="0.35292">
        <ele>90.8</ele>
        <time>2020-06-18T07:21:32Z</time>
      </trkpt>
      <trkpt lat="49.73991" lon="0.35282">
        <ele>90.5</ele>
        <time>2020-06-18T07:21:33Z</time>
      </trkpt>
      <trkpt lat="49.73994" lon="0.35272">
        <ele>90.1</ele>
        <time>2020-06-18T07:21:34Z</time>
      </trkpt>
      <trkpt lat="49.73996" lon="0.35262">
        <ele>89.8</ele>
        <time>2020-06-18T07:21:35Z</time>
      </trkpt>
      <trkpt lat="49.74" lon="0.35252">
        <ele>89.4</ele>
        <time>2020-06-18T07:21:36Z</time>
      </trkpt>
      <trkpt lat="49.74003" lon="0.35242">
        <ele>89</ele>
        <time>2020-06-18T07:21:37Z</time>
      </trkpt>
      <trkpt lat="49.74006" lon="0.35232">
        <ele>88.6</ele>
        <time>2020-06-18T07:21:38Z</time>
      </trkpt>
      <trkpt lat="49.74009" lon="0.35222">
        <ele>88.3</ele>
        <time>2020-06-18T07:21:39Z</time>
      </trkpt>
      <trkpt lat="49.74012" lon="0.35211">
        <ele>88</ele>
        <time>2020-06-18T07:21:40Z</time>
      </trkpt>
      <trkpt lat="49.74016" lon="0.35201">
        <ele>87.6</ele>
        <time>2020-06-18T07:21:41Z</time>
      </trkpt>
      <trkpt lat="49.74019" lon="0.35191">
        <ele>87.3</ele>
        <time>2020-06-18T07:21:42Z</time>
      </trkpt>
      <trkpt lat="49.74022" lon="0.3518">
        <ele>86.9</ele>
        <time>2020-06-18T07:21:43Z</time>
      </trkpt>
      <trkpt lat="49.74025" lon="0.3517">
        <ele>86.6</ele>
        <time>2020-06-18T07:21:44Z</time>
      </trkpt>
      <trkpt lat="49.74028" lon="0.35159">
        <ele>86.2</ele>
        <time>2020-06-18T07:21:45Z</time>
      </trkpt>
      <trkpt lat="49.74031" lon="0.35148">
        <ele>85.8</ele>
        <time>2020-06-18T07:21:46Z</time>
      </trkpt>
      <trkpt lat="49.74033" lon="0.35137">
        <ele>85.4</ele>
        <time>2020-06-18T07:21:47Z</time>
      </trkpt>
      <trkpt lat="49.74036" lon="0.35126">
        <ele>85.1</ele>
        <time>2020-06-18T07:21:48Z</time>
      </trkpt>
      <trkpt lat="49.74039" lon="0.35115">
        <ele>84.7</ele>
        <time>2020-06-18T07:21:49Z</time>
      </trkpt>
      <trkpt lat="49.74043" lon="0.35105">
        <ele>84.4</ele>
        <time>2020-06-18T07:21:50Z</time>
      </trkpt>
      <trkpt lat="49.74046" lon="0.35094">
        <ele>84</ele>
        <time>2020-06-18T07:21:51Z</time>
      </trkpt>
      <trkpt lat="49.7405" lon="0.35083">
        <ele>83.6</ele>
        <time>2020-06-18T07:21:52Z</time>
      </trkpt>
      <trkpt lat="49.74053" lon="0.35072">
        <ele>83.3</ele>
        <time>2020-06-18T07:21:53Z</time>
      </trkpt>
      <trkpt lat="49.74056" lon="0.35061">
        <ele>82.9</ele>
        <time>2020-06-18T07:21:54Z</time>
      </trkpt>
      <trkpt lat="49.74059" lon="0.3505">
        <ele>82.5</ele>
        <time>2020-06-18T07:21:55Z</time>
      </trkpt>
      <trkpt lat="49.74062" lon="0.35039">
        <ele>82.2</ele>
        <time>2020-06-18T07:21:56Z</time>
      </trkpt>
      <trkpt lat="49.74066" lon="0.35029">
        <ele>81.8</ele>
        <time>2020-06-18T07:21:57Z</time>
      </trkpt>
      <trkpt lat="49.74069" lon="0.35018">
        <ele>81.5</ele>
        <time>2020-06-18T07:21:58Z</time>
      </trkpt>
      <trkpt lat="49.74072" lon="0.35006">
        <ele>81.2</ele>
        <time>2020-06-18T07:21:59Z</time>
      </trkpt>
      <trkpt lat="49.74076" lon="0.34995">
        <ele>80.8</ele>
        <time>2020-06-18T07:22:00Z</time>
      </trkpt>
      <trkpt lat="49.74079" lon="0.34984">
        <ele>80.4</ele>
        <time>2020-06-18T07:22:01Z</time>
      </trkpt>
      <trkpt lat="49.74083" lon="0.34972">
        <ele>80</ele>
        <time>2020-06-18T07:22:02Z</time>
      </trkpt>
      <trkpt lat="49.74086" lon="0.34961">
        <ele>79.6</ele>
        <time>2020-06-18T07:22:03Z</time>
      </trkpt>
      <trkpt lat="49.7409" lon="0.3495">
        <ele>79.2</ele>
        <time>2020-06-18T07:22:04Z</time>
      </trkpt>
      <trkpt lat="49.74093" lon="0.34938">
        <ele>78.8</ele>
        <time>2020-06-18T07:22:05Z</time>
      </trkpt>
      <trkpt lat="49.74097" lon="0.34926">
        <ele>78.4</ele>
        <time>2020-06-18T07:22:06Z</time>
      </trkpt>
      <trkpt lat="49.741" lon="0.34915">
        <ele>78</ele>
        <time>2020-06-18T07:22:07Z</time>
      </trkpt>
      <trkpt lat="49.74104" lon="0.34903">
        <ele>77.5</ele>
        <time>2020-06-18T07:22:08Z</time>
      </trkpt>
      <trkpt lat="49.74107" lon="0.34891">
        <ele>77.1</ele>
        <time>2020-06-18T07:22:09Z</time>
      </trkpt>
      <trkpt lat="49.74111" lon="0.34879">
        <ele>76.8</ele>
        <time>2020-06-18T07:22:10Z</time>
      </trkpt>
      <trkpt lat="49.74113" lon="0.34867">
        <ele>76.4</ele>
        <time>2020-06-18T07:22:11Z</time>
      </trkpt>
      <trkpt lat="49.74116" lon="0.34856">
        <ele>76</ele>
        <time>2020-06-18T07:22:12Z</time>
      </trkpt>
      <trkpt lat="49.7412" lon="0.34844">
        <ele>75.6</ele>
        <time>2020-06-18T07:22:13Z</time>
      </trkpt>
      <trkpt lat="49.74123" lon="0.34833">
        <ele>75.2</ele>
        <time>2020-06-18T07:22:14Z</time>
      </trkpt>
      <trkpt lat="49.74127" lon="0.34822">
        <ele>74.8</ele>
        <time>2020-06-18T07:22:15Z</time>
      </trkpt>
      <trkpt lat="49.74131" lon="0.34811">
        <ele>74.4</ele>
        <time>2020-06-18T07:22:16Z</time>
      </trkpt>
      <trkpt lat="49.74135" lon="0.348">
        <ele>74</ele>
        <time>2020-06-18T07:22:17Z</time>
      </trkpt>
      <trkpt lat="49.74139" lon="0.3479">
        <ele>73.6</ele>
        <time>2020-06-18T07:22:18Z</time>
      </trkpt>
      <trkpt lat="49.74144" lon="0.34779">
        <ele>73.1</ele>
        <time>2020-06-18T07:22:19Z</time>
      </trkpt>
      <trkpt lat="49.74149" lon="0.34769">
        <ele>72.7</ele>
        <time>2020-06-18T07:22:20Z</time>
      </trkpt>
      <trkpt lat="49.74154" lon="0.34759">
        <ele>72.4</ele>
        <time>2020-06-18T07:22:21Z</time>
      </trkpt>
      <trkpt lat="49.74161" lon="0.3475">
        <ele>72</ele>
        <time>2020-06-18T07:22:22Z</time>
      </trkpt>
      <trkpt lat="49.74167" lon="0.34742">
        <ele>71.5</ele>
        <time>2020-06-18T07:22:23Z</time>
      </trkpt>
      <trkpt lat="49.74174" lon="0.34734">
        <ele>71.1</ele>
        <time>2020-06-18T07:22:24Z</time>
      </trkpt>
      <trkpt lat="49.74181" lon="0.34726">
        <ele>70.7</ele>
        <time>2020-06-18T07:22:25Z</time>
      </trkpt>
      <trkpt lat="49.74188" lon="0.34719">
        <ele>70.4</ele>
        <time>2020-06-18T07:22:26Z</time>
      </trkpt>
      <trkpt lat="49.74195" lon="0.34713">
        <ele>70.1</ele>
        <time>2020-06-18T07:22:27Z</time>
      </trkpt>
      <trkpt lat="49.74203" lon="0.34708">
        <ele>69.9</ele>
        <time>2020-06-18T07:22:28Z</time>
      </trkpt>
      <trkpt lat="49.7421" lon="0.34704">
        <ele>69.7</ele>
        <time>2020-06-18T07:22:29Z</time>
      </trkpt>
      <trkpt lat="49.74217" lon="0.34699">
        <ele>69.5</ele>
        <time>2020-06-18T07:22:30Z</time>
      </trkpt>
      <trkpt lat="49.74224" lon="0.34696">
        <ele>69.3</ele>
        <time>2020-06-18T07:22:31Z</time>
      </trkpt>
      <trkpt lat="49.74231" lon="0.34694">
        <ele>69.1</ele>
        <time>2020-06-18T07:22:32Z</time>
      </trkpt>
      <trkpt lat="49.74238" lon="0.3469">
        <ele>68.7</ele>
        <time>2020-06-18T07:22:33Z</time>
      </trkpt>
      <trkpt lat="49.74244" lon="0.34686">
        <ele>68.5</ele>
        <time>2020-06-18T07:22:34Z</time>
      </trkpt>
      <trkpt lat="49.7425" lon="0.34683">
        <ele>68.3</ele>
        <time>2020-06-18T07:22:35Z</time>
      </trkpt>
      <trkpt lat="49.74256" lon="0.3468">
        <ele>68</ele>
        <time>2020-06-18T07:22:36Z</time>
      </trkpt>
      <trkpt lat="49.74263" lon="0.34678">
        <ele>67.7</ele>
        <time>2020-06-18T07:22:37Z</time>
      </trkpt>
      <trkpt lat="49.7427" lon="0.34675">
        <ele>67.4</ele>
        <time>2020-06-18T07:22:38Z</time>
      </trkpt>
      <trkpt lat="49.74277" lon="0.34673">
        <ele>67</ele>
        <time>2020-06-18T07:22:39Z</time>
      </trkpt>
      <trkpt lat="49.74285" lon="0.3467">
        <ele>66.7</ele>
        <time>2020-06-18T07:22:40Z</time>
      </trkpt>
      <trkpt lat="49.74293" lon="0.34668">
        <ele>66.4</ele>
        <time>2020-06-18T07:22:41Z</time>
      </trkpt>
      <trkpt lat="49.743" lon="0.34668">
        <ele>66</ele>
        <time>2020-06-18T07:22:42Z</time>
      </trkpt>
      <trkpt lat="49.74309" lon="0.34673">
        <ele>65.6</ele>
        <time>2020-06-18T07:22:43Z</time>
      </trkpt>
      <trkpt lat="49.74316" lon="0.34675">
        <ele>65.2</ele>
        <time>2020-06-18T07:22:44Z</time>
      </trkpt>
      <trkpt lat="49.74324" lon="0.34675">
        <ele>64.8</ele>
        <time>2020-06-18T07:22:45Z</time>
      </trkpt>
      <trkpt lat="49.74333" lon="0.34675">
        <ele>64.4</ele>
        <time>2020-06-18T07:22:46Z</time>
      </trkpt>
      <trkpt lat="49.74341" lon="0.34675">
        <ele>64</ele>
        <time>2020-06-18T07:22:47Z</time>
      </trkpt>
      <trkpt lat="49.7435" lon="0.34677">
        <ele>63.6</ele>
        <time>2020-06-18T07:22:48Z</time>
      </trkpt>
      <trkpt lat="49.74358" lon="0.34677">
        <ele>63.3</ele>
        <time>2020-06-18T07:22:49Z</time>
      </trkpt>
      <trkpt lat="49.74367" lon="0.34677">
        <ele>62.9</ele>
        <time>2020-06-18T07:22:50Z</time>
      </trkpt>
      <trkpt lat="49.74375" lon="0.34679">
        <ele>62.5</ele>
        <time>2020-06-18T07:22:51Z</time>
      </trkpt>
      <trkpt lat="49.74384" lon="0.34681">
        <ele>62</ele>
        <time>2020-06-18T07:22:52Z</time>
      </trkpt>
      <trkpt lat="49.74393" lon="0.34684">
        <ele>61.6</ele>
        <time>2020-06-18T07:22:53Z</time>
      </trkpt>
      <trkpt lat="49.74402" lon="0.34686">
        <ele>61.3</ele>
        <time>2020-06-18T07:22:54Z</time>
      </trkpt>
      <trkpt lat="49.74411" lon="0.34689">
        <ele>60.9</ele>
        <time>2020-06-18T07:22:55Z</time>
      </trkpt>
      <trkpt lat="49.7442" lon="0.34692">
        <ele>60.6</ele>
        <time>2020-06-18T07:22:56Z</time>
      </trkpt>
      <trkpt lat="49.74429" lon="0.34695">
        <ele>60.3</ele>
        <time>2020-06-18T07:22:57Z</time>
      </trkpt>
      <trkpt lat="49.74437" lon="0.34698">
        <ele>60</ele>
        <time>2020-06-18T07:22:58Z</time>
      </trkpt>
      <trkpt lat="49.74446" lon="0.347">
        <ele>59.8</ele>
        <time>2020-06-18T07:22:59Z</time>
      </trkpt>
      <trkpt lat="49.74455" lon="0.34701">
        <ele>59.6</ele>
        <time>2020-06-18T07:23:00Z</time>
      </trkpt>
      <trkpt lat="49.74463" lon="0.34703">
        <ele>59.4</ele>
        <time>2020-06-18T07:23:01Z</time>
      </trkpt>
      <trkpt lat="49.74471" lon="0.34703">
        <ele>59.2</ele>
        <time>2020-06-18T07:23:02Z</time>
      </trkpt>
      <trkpt lat="49.7448" lon="0.34702">
        <ele>58.9</ele>
        <time>2020-06-18T07:23:03Z</time>
      </trkpt>
      <trkpt lat="49.74488" lon="0.34703">
        <ele>58.7</ele>
        <time>2020-06-18T07:23:04Z</time>
      </trkpt>
      <trkpt lat="49.74496" lon="0.34704">
        <ele>58.5</ele>
        <time>2020-06-18T07:23:05Z</time>
      </trkpt>
      <trkpt lat="49.74504" lon="0.34706">
        <ele>58.2</ele>
        <time>2020-06-18T07:23:06Z</time>
      </trkpt>
      <trkpt lat="49.74512" lon="0.34707">
        <ele>57.9</ele>
        <time>2020-06-18T07:23:07Z</time>
      </trkpt>
      <trkpt lat="49.7452" lon="0.34709">
        <ele>57.2</ele>
        <time>2020-06-18T07:23:08Z</time>
      </trkpt>
      <trkpt lat="49.74529" lon="0.34711">
        <ele>56.7</ele>
        <time>2020-06-18T07:23:09Z</time>
      </trkpt>
      <trkpt lat="49.74538" lon="0.34712">
        <ele>56.2</ele>
        <time>2020-06-18T07:23:10Z</time>
      </trkpt>
      <trkpt lat="49.74547" lon="0.34713">
        <ele>55.7</ele>
        <time>2020-06-18T07:23:11Z</time>
      </trkpt>
      <trkpt lat="49.74556" lon="0.34714">
        <ele>55.2</ele>
        <time>2020-06-18T07:23:12Z</time>
      </trkpt>
      <trkpt lat="49.74566" lon="0.34715">
        <ele>54.8</ele>
        <time>2020-06-18T07:23:13Z</time>
      </trkpt>
      <trkpt lat="49.74575" lon="0.34716">
        <ele>54.2</ele>
        <time>2020-06-18T07:23:14Z</time>
      </trkpt>
      <trkpt lat="49.74585" lon="0.34716">
        <ele>53.7</ele>
        <time>2020-06-18T07:23:15Z</time>
      </trkpt>
      <trkpt lat="49.74594" lon="0.34717">
        <ele>53.2</ele>
        <time>2020-06-18T07:23:16Z</time>
      </trkpt>
      <trkpt lat="49.74604" lon="0.34717">
        <ele>52.8</ele>
        <time>2020-06-18T07:23:17Z</time>
      </trkpt>
      <trkpt lat="49.74613" lon="0.34718">
        <ele>52.3</ele>
        <time>2020-06-18T07:23:18Z</time>
      </trkpt>
      <trkpt lat="49.74622" lon="0.34719">
        <ele>51.9</ele>
        <time>2020-06-18T07:23:19Z</time>
      </trkpt>
      <trkpt lat="49.7463" lon="0.34721">
        <ele>51.6</ele>
        <time>2020-06-18T07:23:20Z</time>
      </trkpt>
      <trkpt lat="49.74637" lon="0.34724">
        <ele>51.4</ele>
        <time>2020-06-18T07:23:21Z</time>
      </trkpt>
      <trkpt lat="49.74643" lon="0.34724">
        <ele>51.2</ele>
        <time>2020-06-18T07:23:22Z</time>
      </trkpt>
      <trkpt lat="49.74648" lon="0.34723">
        <ele>51</ele>
        <time>2020-06-18T07:23:23Z</time>
      </trkpt>
      <trkpt lat="49.74652" lon="0.34724">
        <ele>50.9</ele>
        <time>2020-06-18T07:23:24Z</time>
      </trkpt>
      <trkpt lat="49.74657" lon="0.34725">
        <ele>50.8</ele>
        <time>2020-06-18T07:23:25Z</time>
      </trkpt>
      <trkpt lat="49.74661" lon="0.34725">
        <ele>50.6</ele>
        <time>2020-06-18T07:23:26Z</time>
      </trkpt>
      <trkpt lat="49.74666" lon="0.34725">
        <ele>50.4</ele>
        <time>2020-06-18T07:23:27Z</time>
      </trkpt>
      <trkpt lat="49.74671" lon="0.34726">
        <ele>50.3</ele>
        <time>2020-06-18T07:23:28Z</time>
      </trkpt>
      <trkpt lat="49.74676" lon="0.34727">
        <ele>50.1</ele>
        <time>2020-06-18T07:23:29Z</time>
      </trkpt>
      <trkpt lat="49.7468" lon="0.3473">
        <ele>50.1</ele>
        <time>2020-06-18T07:23:30Z</time>
      </trkpt>
      <trkpt lat="49.74685" lon="0.34733">
        <ele>50.1</ele>
        <time>2020-06-18T07:23:31Z</time>
      </trkpt>
      <trkpt lat="49.7469" lon="0.34738">
        <ele>50.1</ele>
        <time>2020-06-18T07:23:32Z</time>
      </trkpt>
      <trkpt lat="49.74694" lon="0.34743">
        <ele>50.1</ele>
        <time>2020-06-18T07:23:33Z</time>
      </trkpt>
      <trkpt lat="49.74697" lon="0.34747">
        <ele>50.2</ele>
        <time>2020-06-18T07:23:34Z</time>
      </trkpt>
      <trkpt lat="49.747" lon="0.34751">
        <ele>50.3</ele>
        <time>2020-06-18T07:23:35Z</time>
      </trkpt>
      <trkpt lat="49.74704" lon="0.34755">
        <ele>50.4</ele>
        <time>2020-06-18T07:23:36Z</time>
      </trkpt>
      <trkpt lat="49.74709" lon="0.34758">
        <ele>50.5</ele>
        <time>2020-06-18T07:23:37Z</time>
      </trkpt>
      <trkpt lat="49.74712" lon="0.34763">
        <ele>50.7</ele>
        <time>2020-06-18T07:23:38Z</time>
      </trkpt>
      <trkpt lat="49.74715" lon="0.34766">
        <ele>50.8</ele>
        <time>2020-06-18T07:23:39Z</time>
      </trkpt>
      <trkpt lat="49.74717" lon="0.3477">
        <ele>50.9</ele>
        <time>2020-06-18T07:23:40Z</time>
      </trkpt>
      <trkpt lat="49.74719" lon="0.34774">
        <ele>51</ele>
        <time>2020-06-18T07:23:41Z</time>
      </trkpt>
      <trkpt lat="49.74722" lon="0.34777">
        <ele>51.2</ele>
        <time>2020-06-18T07:23:42Z</time>
      </trkpt>
      <trkpt lat="49.74725" lon="0.34779">
        <ele>51.3</ele>
        <time>2020-06-18T07:23:43Z</time>
      </trkpt>
      <trkpt lat="49.74729" lon="0.3478">
        <ele>51.5</ele>
        <time>2020-06-18T07:23:44Z</time>
      </trkpt>
      <trkpt lat="49.74731" lon="0.34783">
        <ele>51.6</ele>
        <time>2020-06-18T07:23:45Z</time>
      </trkpt>
      <trkpt lat="49.74733" lon="0.34787">
        <ele>51.8</ele>
        <time>2020-06-18T07:23:46Z</time>
      </trkpt>
      <trkpt lat="49.74735" lon="0.34789">
        <ele>52</ele>
        <time>2020-06-18T07:23:47Z</time>
      </trkpt>
      <trkpt lat="49.74738" lon="0.34791">
        <ele>52.1</ele>
        <time>2020-06-18T07:23:48Z</time>
      </trkpt>
      <trkpt lat="49.7474" lon="0.34793">
        <ele>52.3</ele>
        <time>2020-06-18T07:23:49Z</time>
      </trkpt>
      <trkpt lat="49.74743" lon="0.34797">
        <ele>52.5</ele>
        <time>2020-06-18T07:23:50Z</time>
      </trkpt>
      <trkpt lat="49.74744" lon="0.34799">
        <ele>52.6</ele>
        <time>2020-06-18T07:23:51Z</time>
      </trkpt>
      <trkpt lat="49.74746" lon="0.34802">
        <ele>52.7</ele>
        <time>2020-06-18T07:23:52Z</time>
      </trkpt>
      <trkpt lat="49.74748" lon="0.34806">
        <ele>52.8</ele>
        <time>2020-06-18T07:23:53Z</time>
      </trkpt>
      <trkpt lat="49.7475" lon="0.34809">
        <ele>53</ele>
        <time>2020-06-18T07:23:54Z</time>
      </trkpt>
      <trkpt lat="49.74753" lon="0.34811">
        <ele>53.1</ele>
        <time>2020-06-18T07:23:55Z</time>
      </trkpt>
      <trkpt lat="49.74755" lon="0.34813">
        <ele>53.3</ele>
        <time>2020-06-18T07:23:56Z</time>
      </trkpt>
      <trkpt lat="49.74758" lon="0.34815">
        <ele>53.4</ele>
        <time>2020-06-18T07:23:57Z</time>
      </trkpt>
      <trkpt lat="49.7476" lon="0.34817">
        <ele>53.6</ele>
        <time>2020-06-18T07:23:58Z</time>
      </trkpt>
      <trkpt lat="49.74762" lon="0.3482">
        <ele>53.7</ele>
        <time>2020-06-18T07:23:59Z</time>
      </trkpt>
      <trkpt lat="49.74765" lon="0.34822">
        <ele>53.9</ele>
        <time>2020-06-18T07:24:00Z</time>
      </trkpt>
      <trkpt lat="49.74768" lon="0.34824">
        <ele>54.1</ele>
        <time>2020-06-18T07:24:01Z</time>
      </trkpt>
      <trkpt lat="49.74771" lon="0.34826">
        <ele>54.3</ele>
        <time>2020-06-18T07:24:02Z</time>
      </trkpt>
      <trkpt lat="49.74773" lon="0.34829">
        <ele>54.5</ele>
        <time>2020-06-18T07:24:03Z</time>
      </trkpt>
      <trkpt lat="49.74776" lon="0.3483">
        <ele>54.6</ele>
        <time>2020-06-18T07:24:04Z</time>
      </trkpt>
      <trkpt lat="49.74778" lon="0.34832">
        <ele>54.8</ele>
        <time>2020-06-18T07:24:05Z</time>
      </trkpt>
      <trkpt lat="49.74782" lon="0.34834">
        <ele>55.1</ele>
        <time>2020-06-18T07:24:06Z</time>
      </trkpt>
      <trkpt lat="49.74783" lon="0.34835">
        <ele>55.2</ele>
        <time>2020-06-18T07:24:07Z</time>
      </trkpt>
      <trkpt lat="49.74786" lon="0.34837">
        <ele>55.5</ele>
        <time>2020-06-18T07:24:08Z</time>
      </trkpt>
      <trkpt lat="49.74787" lon="0.34838">
        <ele>55.6</ele>
        <time>2020-06-18T07:24:09Z</time>
      </trkpt>
      <trkpt lat="49.7479" lon="0.34841">
        <ele>55.9</ele>
        <time>2020-06-18T07:24:10Z</time>
      </trkpt>
      <trkpt lat="49.74791" lon="0.34842">
        <ele>56</ele>
        <time>2020-06-18T07:24:11Z</time>
      </trkpt>
      <trkpt lat="49.74793" lon="0.34845">
        <ele>56.3</ele>
        <time>2020-06-18T07:24:12Z</time>
      </trkpt>
      <trkpt lat="49.74794" lon="0.34846">
        <ele>56.4</ele>
        <time>2020-06-18T07:24:13Z</time>
      </trkpt>
      <trkpt lat="49.74796" lon="0.34847">
        <ele>56.6</ele>
        <time>2020-06-18T07:24:14Z</time>
      </trkpt>
      <trkpt lat="49.74797" lon="0.34848">
        <ele>56.7</ele>
        <time>2020-06-18T07:24:15Z</time>
      </trkpt>
      <trkpt lat="49.748" lon="0.34849">
        <ele>57</ele>
        <time>2020-06-18T07:24:16Z</time>
      </trkpt>
      <trkpt lat="49.74801" lon="0.34849">
        <ele>57.1</ele>
        <time>2020-06-18T07:24:17Z</time>
      </trkpt>
      <trkpt lat="49.74804" lon="0.3485">
        <ele>57.4</ele>
        <time>2020-06-18T07:24:18Z</time>
      </trkpt>
      <trkpt lat="49.74805" lon="0.34851">
        <ele>57.5</ele>
        <time>2020-06-18T07:24:19Z</time>
      </trkpt>
      <trkpt lat="49.74808" lon="0.34851">
        <ele>57.8</ele>
        <time>2020-06-18T07:24:20Z</time>
      </trkpt>
      <trkpt lat="49.74808" lon="0.34851">
        <ele>57.9</ele>
        <time>2020-06-18T07:24:21Z</time>
      </trkpt>
      <trkpt lat="49.74811" lon="0.34853">
        <ele>58.2</ele>
        <time>2020-06-18T07:24:22Z</time>
      </trkpt>
      <trkpt lat="49.74812" lon="0.34854">
        <ele>58.3</ele>
        <time>2020-06-18T07:24:23Z</time>
      </trkpt>
      <trkpt lat="49.74814" lon="0.34857">
        <ele>58.6</ele>
        <time>2020-06-18T07:24:24Z</time>
      </trkpt>
      <trkpt lat="49.74815" lon="0.34858">
        <ele>58.7</ele>
        <time>2020-06-18T07:24:25Z</time>
      </trkpt>
      <trkpt lat="49.74818" lon="0.34859">
        <ele>59</ele>
        <time>2020-06-18T07:24:26Z</time>
      </trkpt>
      <trkpt lat="49.74819" lon="0.34859">
        <ele>59.2</ele>
        <time>2020-06-18T07:24:27Z</time>
      </trkpt>
      <trkpt lat="49.74821" lon="0.34861">
        <ele>59.5</ele>
        <time>2020-06-18T07:24:28Z</time>
      </trkpt>
      <trkpt lat="49.74822" lon="0.34862">
        <ele>59.6</ele>
        <time>2020-06-18T07:24:29Z</time>
      </trkpt>
      <trkpt lat="49.74825" lon="0.34864">
        <ele>60</ele>
        <time>2020-06-18T07:24:30Z</time>
      </trkpt>
      <trkpt lat="49.74826" lon="0.34865">
        <ele>60.1</ele>
        <time>2020-06-18T07:24:31Z</time>
      </trkpt>
      <trkpt lat="49.74829" lon="0.34868">
        <ele>60.5</ele>
        <time>2020-06-18T07:24:32Z</time>
      </trkpt>
      <trkpt lat="49.7483" lon="0.34869">
        <ele>60.6</ele>
        <time>2020-06-18T07:24:33Z</time>
      </trkpt>
      <trkpt lat="49.74833" lon="0.34872">
        <ele>61</ele>
        <time>2020-06-18T07:24:34Z</time>
      </trkpt>
      <trkpt lat="49.74833" lon="0.34874">
        <ele>61.2</ele>
        <time>2020-06-18T07:24:35Z</time>
      </trkpt>
      <trkpt lat="49.74835" lon="0.34878">
        <ele>61.5</ele>
        <time>2020-06-18T07:24:36Z</time>
      </trkpt>
      <trkpt lat="49.74835" lon="0.34879">
        <ele>61.6</ele>
        <time>2020-06-18T07:24:37Z</time>
      </trkpt>
      <trkpt lat="49.74838" lon="0.34881">
        <ele>62</ele>
        <time>2020-06-18T07:24:38Z</time>
      </trkpt>
      <trkpt lat="49.74839" lon="0.34882">
        <ele>62.2</ele>
        <time>2020-06-18T07:24:39Z</time>
      </trkpt>
      <trkpt lat="49.74843" lon="0.34884">
        <ele>62.7</ele>
        <time>2020-06-18T07:24:40Z</time>
      </trkpt>
      <trkpt lat="49.74844" lon="0.34885">
        <ele>62.8</ele>
        <time>2020-06-18T07:24:41Z</time>
      </trkpt>
      <trkpt lat="49.74845" lon="0.34887">
        <ele>63.1</ele>
        <time>2020-06-18T07:24:42Z</time>
      </trkpt>
      <trkpt lat="49.74846" lon="0.34889">
        <ele>63.3</ele>
        <time>2020-06-18T07:24:43Z</time>
      </trkpt>
      <trkpt lat="49.74849" lon="0.34892">
        <ele>63.6</ele>
        <time>2020-06-18T07:24:44Z</time>
      </trkpt>
      <trkpt lat="49.7485" lon="0.34892">
        <ele>63.7</ele>
        <time>2020-06-18T07:24:45Z</time>
      </trkpt>
      <trkpt lat="49.74853" lon="0.34894">
        <ele>64.2</ele>
        <time>2020-06-18T07:24:46Z</time>
      </trkpt>
      <trkpt lat="49.74854" lon="0.34895">
        <ele>64.4</ele>
        <time>2020-06-18T07:24:47Z</time>
      </trkpt>
      <trkpt lat="49.74856" lon="0.34898">
        <ele>64.7</ele>
        <time>2020-06-18T07:24:48Z</time>
      </trkpt>
      <trkpt lat="49.74859" lon="0.34901">
        <ele>65.2</ele>
        <time>2020-06-18T07:24:49Z</time>
      </trkpt>
      <trkpt lat="49.7486" lon="0.34902">
        <ele>65.3</ele>
        <time>2020-06-18T07:24:50Z</time>
      </trkpt>
      <trkpt lat="49.74861" lon="0.34904">
        <ele>65.6</ele>
        <time>2020-06-18T07:24:51Z</time>
      </trkpt>
      <trkpt lat="49.74863" lon="0.34905">
        <ele>65.8</ele>
        <time>2020-06-18T07:24:52Z</time>
      </trkpt>
      <trkpt lat="49.74865" lon="0.34907">
        <ele>66.2</ele>
        <time>2020-06-18T07:24:53Z</time>
      </trkpt>
      <trkpt lat="49.74866" lon="0.34908">
        <ele>66.4</ele>
        <time>2020-06-18T07:24:54Z</time>
      </trkpt>
      <trkpt lat="49.74869" lon="0.3491">
        <ele>66.7</ele>
        <time>2020-06-18T07:24:55Z</time>
      </trkpt>
      <trkpt lat="49.7487" lon="0.34911">
        <ele>66.9</ele>
        <time>2020-06-18T07:24:56Z</time>
      </trkpt>
      <trkpt lat="49.74871" lon="0.34912">
        <ele>67.1</ele>
        <time>2020-06-18T07:24:57Z</time>
      </trkpt>
      <trkpt lat="49.74872" lon="0.34914">
        <ele>67.4</ele>
        <time>2020-06-18T07:24:58Z</time>
      </trkpt>
      <trkpt lat="49.74874" lon="0.34915">
        <ele>67.7</ele>
        <time>2020-06-18T07:24:59Z</time>
      </trkpt>
      <trkpt lat="49.74875" lon="0.34916">
        <ele>67.8</ele>
        <time>2020-06-18T07:25:00Z</time>
      </trkpt>
      <trkpt lat="49.74876" lon="0.34916">
        <ele>67.9</ele>
        <time>2020-06-18T07:25:01Z</time>
      </trkpt>
      <trkpt lat="49.74877" lon="0.34917">
        <ele>68.1</ele>
        <time>2020-06-18T07:25:02Z</time>
      </trkpt>
      <trkpt lat="49.74879" lon="0.34918">
        <ele>68.3</ele>
        <time>2020-06-18T07:25:03Z</time>
      </trkpt>
      <trkpt lat="49.74881" lon="0.34918">
        <ele>68.5</ele>
        <time>2020-06-18T07:25:04Z</time>
      </trkpt>
      <trkpt lat="49.74882" lon="0.34919">
        <ele>68.7</ele>
        <time>2020-06-18T07:25:05Z</time>
      </trkpt>
      <trkpt lat="49.74883" lon="0.34919">
        <ele>68.8</ele>
        <time>2020-06-18T07:25:06Z</time>
      </trkpt>
      <trkpt lat="49.74885" lon="0.34919">
        <ele>69</ele>
        <time>2020-06-18T07:25:07Z</time>
      </trkpt>
      <trkpt lat="49.74888" lon="0.34916">
        <ele>69.4</ele>
        <time>2020-06-18T07:25:08Z</time>
      </trkpt>
      <trkpt lat="49.74889" lon="0.34915">
        <ele>69.5</ele>
        <time>2020-06-18T07:25:09Z</time>
      </trkpt>
      <trkpt lat="49.74892" lon="0.34913">
        <ele>69.8</ele>
        <time>2020-06-18T07:25:10Z</time>
      </trkpt>
      <trkpt lat="49.74893" lon="0.34913">
        <ele>69.9</ele>
        <time>2020-06-18T07:25:11Z</time>
      </trkpt>
      <trkpt lat="49.74896" lon="0.34912">
        <ele>70.2</ele>
        <time>2020-06-18T07:25:12Z</time>
      </trkpt>
      <trkpt lat="49.74898" lon="0.34912">
        <ele>70.2</ele>
        <time>2020-06-18T07:25:13Z</time>
      </trkpt>
      <trkpt lat="49.74901" lon="0.34911">
        <ele>70.5</ele>
        <time>2020-06-18T07:25:14Z</time>
      </trkpt>
      <trkpt lat="49.74902" lon="0.34911">
        <ele>70.6</ele>
        <time>2020-06-18T07:25:15Z</time>
      </trkpt>
      <trkpt lat="49.74905" lon="0.34911">
        <ele>70.8</ele>
        <time>2020-06-18T07:25:16Z</time>
      </trkpt>
      <trkpt lat="49.74906" lon="0.34911">
        <ele>70.9</ele>
        <time>2020-06-18T07:25:17Z</time>
      </trkpt>
      <trkpt lat="49.74909" lon="0.34911">
        <ele>71.1</ele>
        <time>2020-06-18T07:25:18Z</time>
      </trkpt>
      <trkpt lat="49.74911" lon="0.34912">
        <ele>71.2</ele>
        <time>2020-06-18T07:25:19Z</time>
      </trkpt>
      <trkpt lat="49.74913" lon="0.34913">
        <ele>71.4</ele>
        <time>2020-06-18T07:25:20Z</time>
      </trkpt>
      <trkpt lat="49.74917" lon="0.34913">
        <ele>71.7</ele>
        <time>2020-06-18T07:25:21Z</time>
      </trkpt>
      <trkpt lat="49.74918" lon="0.34914">
        <ele>71.8</ele>
        <time>2020-06-18T07:25:22Z</time>
      </trkpt>
      <trkpt lat="49.74922" lon="0.34913">
        <ele>72.1</ele>
        <time>2020-06-18T07:25:23Z</time>
      </trkpt>
      <trkpt lat="49.74923" lon="0.34913">
        <ele>72.2</ele>
        <time>2020-06-18T07:25:24Z</time>
      </trkpt>
      <trkpt lat="49.74926" lon="0.34914">
        <ele>72.4</ele>
        <time>2020-06-18T07:25:25Z</time>
      </trkpt>
      <trkpt lat="49.74929" lon="0.34915">
        <ele>72.5</ele>
        <time>2020-06-18T07:25:26Z</time>
      </trkpt>
      <trkpt lat="49.7493" lon="0.34916">
        <ele>72.6</ele>
        <time>2020-06-18T07:25:27Z</time>
      </trkpt>
      <trkpt lat="49.74934" lon="0.34918">
        <ele>72.8</ele>
        <time>2020-06-18T07:25:28Z</time>
      </trkpt>
      <trkpt lat="49.74935" lon="0.34919">
        <ele>72.9</ele>
        <time>2020-06-18T07:25:29Z</time>
      </trkpt>
      <trkpt lat="49.74938" lon="0.34921">
        <ele>73.1</ele>
        <time>2020-06-18T07:25:30Z</time>
      </trkpt>
      <trkpt lat="49.74939" lon="0.34921">
        <ele>73.1</ele>
        <time>2020-06-18T07:25:31Z</time>
      </trkpt>
      <trkpt lat="49.74942" lon="0.34923">
        <ele>73.3</ele>
        <time>2020-06-18T07:25:32Z</time>
      </trkpt>
      <trkpt lat="49.74945" lon="0.34926">
        <ele>73.5</ele>
        <time>2020-06-18T07:25:33Z</time>
      </trkpt>
      <trkpt lat="49.74945" lon="0.34927">
        <ele>73.5</ele>
        <time>2020-06-18T07:25:34Z</time>
      </trkpt>
      <trkpt lat="49.74949" lon="0.34931">
        <ele>73.7</ele>
        <time>2020-06-18T07:25:35Z</time>
      </trkpt>
      <trkpt lat="49.7495" lon="0.34932">
        <ele>73.8</ele>
        <time>2020-06-18T07:25:36Z</time>
      </trkpt>
      <trkpt lat="49.74952" lon="0.34933">
        <ele>73.9</ele>
        <time>2020-06-18T07:25:37Z</time>
      </trkpt>
      <trkpt lat="49.74955" lon="0.34937">
        <ele>74.1</ele>
        <time>2020-06-18T07:25:38Z</time>
      </trkpt>
      <trkpt lat="49.74955" lon="0.34938">
        <ele>74.2</ele>
        <time>2020-06-18T07:25:39Z</time>
      </trkpt>
      <trkpt lat="49.74957" lon="0.34942">
        <ele>74.4</ele>
        <time>2020-06-18T07:25:40Z</time>
      </trkpt>
      <trkpt lat="49.74957" lon="0.34944">
        <ele>74.4</ele>
        <time>2020-06-18T07:25:41Z</time>
      </trkpt>
      <trkpt lat="49.74959" lon="0.34948">
        <ele>74.6</ele>
        <time>2020-06-18T07:25:42Z</time>
      </trkpt>
      <trkpt lat="49.7496" lon="0.34949">
        <ele>74.7</ele>
        <time>2020-06-18T07:25:43Z</time>
      </trkpt>
      <trkpt lat="49.74961" lon="0.34953">
        <ele>74.9</ele>
        <time>2020-06-18T07:25:44Z</time>
      </trkpt>
      <trkpt lat="49.74963" lon="0.34958">
        <ele>75.2</ele>
        <time>2020-06-18T07:25:45Z</time>
      </trkpt>
      <trkpt lat="49.74963" lon="0.3496">
        <ele>75.3</ele>
        <time>2020-06-18T07:25:46Z</time>
      </trkpt>
      <trkpt lat="49.74965" lon="0.34964">
        <ele>75.5</ele>
        <time>2020-06-18T07:25:47Z</time>
      </trkpt>
      <trkpt lat="49.74966" lon="0.34969">
        <ele>75.8</ele>
        <time>2020-06-18T07:25:48Z</time>
      </trkpt>
      <trkpt lat="49.74967" lon="0.34974">
        <ele>76.2</ele>
        <time>2020-06-18T07:25:49Z</time>
      </trkpt>
      <trkpt lat="49.74967" lon="0.34975">
        <ele>76.3</ele>
        <time>2020-06-18T07:25:50Z</time>
      </trkpt>
      <trkpt lat="49.7497" lon="0.34979">
        <ele>76.7</ele>
        <time>2020-06-18T07:25:51Z</time>
      </trkpt>
      <trkpt lat="49.7497" lon="0.34981">
        <ele>76.8</ele>
        <time>2020-06-18T07:25:52Z</time>
      </trkpt>
      <trkpt lat="49.74971" lon="0.34985">
        <ele>77.2</ele>
        <time>2020-06-18T07:25:53Z</time>
      </trkpt>
      <trkpt lat="49.74971" lon="0.34987">
        <ele>77.4</ele>
        <time>2020-06-18T07:25:54Z</time>
      </trkpt>
      <trkpt lat="49.74973" lon="0.34993">
        <ele>77.9</ele>
        <time>2020-06-18T07:25:55Z</time>
      </trkpt>
      <trkpt lat="49.74974" lon="0.34995">
        <ele>78.1</ele>
        <time>2020-06-18T07:25:56Z</time>
      </trkpt>
      <trkpt lat="49.74976" lon="0.34999">
        <ele>78.6</ele>
        <time>2020-06-18T07:25:57Z</time>
      </trkpt>
      <trkpt lat="49.74977" lon="0.35">
        <ele>78.7</ele>
        <time>2020-06-18T07:25:58Z</time>
      </trkpt>
      <trkpt lat="49.74979" lon="0.35005">
        <ele>79.2</ele>
        <time>2020-06-18T07:25:59Z</time>
      </trkpt>
      <trkpt lat="49.7498" lon="0.35007">
        <ele>79.3</ele>
        <time>2020-06-18T07:26:00Z</time>
      </trkpt>
      <trkpt lat="49.7498" lon="0.35009">
        <ele>79.5</ele>
        <time>2020-06-18T07:26:01Z</time>
      </trkpt>
      <trkpt lat="49.74982" lon="0.35011">
        <ele>79.7</ele>
        <time>2020-06-18T07:26:02Z</time>
      </trkpt>
      <trkpt lat="49.74983" lon="0.35013">
        <ele>79.9</ele>
        <time>2020-06-18T07:26:03Z</time>
      </trkpt>
      <trkpt lat="49.74984" lon="0.35015">
        <ele>80</ele>
        <time>2020-06-18T07:26:04Z</time>
      </trkpt>
      <trkpt lat="49.74986" lon="0.35018">
        <ele>80.3</ele>
        <time>2020-06-18T07:26:05Z</time>
      </trkpt>
      <trkpt lat="49.74987" lon="0.35019">
        <ele>80.4</ele>
        <time>2020-06-18T07:26:06Z</time>
      </trkpt>
      <trkpt lat="49.74988" lon="0.3502">
        <ele>80.5</ele>
        <time>2020-06-18T07:26:07Z</time>
      </trkpt>
      <trkpt lat="49.74989" lon="0.35022">
        <ele>80.6</ele>
        <time>2020-06-18T07:26:08Z</time>
      </trkpt>
      <trkpt lat="49.74991" lon="0.35025">
        <ele>80.8</ele>
        <time>2020-06-18T07:26:09Z</time>
      </trkpt>
      <trkpt lat="49.74992" lon="0.35026">
        <ele>80.9</ele>
        <time>2020-06-18T07:26:10Z</time>
      </trkpt>
      <trkpt lat="49.74995" lon="0.35028">
        <ele>81.1</ele>
        <time>2020-06-18T07:26:11Z</time>
      </trkpt>
      <trkpt lat="49.74995" lon="0.35029">
        <ele>81.1</ele>
        <time>2020-06-18T07:26:12Z</time>
      </trkpt>
      <trkpt lat="49.74998" lon="0.35032">
        <ele>81.3</ele>
        <time>2020-06-18T07:26:13Z</time>
      </trkpt>
      <trkpt lat="49.74999" lon="0.35033">
        <ele>81.4</ele>
        <time>2020-06-18T07:26:14Z</time>
      </trkpt>
      <trkpt lat="49.75001" lon="0.35037">
        <ele>81.5</ele>
        <time>2020-06-18T07:26:15Z</time>
      </trkpt>
      <trkpt lat="49.75002" lon="0.35038">
        <ele>81.5</ele>
        <time>2020-06-18T07:26:16Z</time>
      </trkpt>
      <trkpt lat="49.75005" lon="0.35041">
        <ele>81.6</ele>
        <time>2020-06-18T07:26:17Z</time>
      </trkpt>
      <trkpt lat="49.75006" lon="0.35042">
        <ele>81.7</ele>
        <time>2020-06-18T07:26:18Z</time>
      </trkpt>
      <trkpt lat="49.75009" lon="0.35044">
        <ele>81.8</ele>
        <time>2020-06-18T07:26:19Z</time>
      </trkpt>
      <trkpt lat="49.7501" lon="0.35045">
        <ele>81.8</ele>
        <time>2020-06-18T07:26:20Z</time>
      </trkpt>
      <trkpt lat="49.75013" lon="0.35049">
        <ele>81.8</ele>
        <time>2020-06-18T07:26:21Z</time>
      </trkpt>
      <trkpt lat="49.75013" lon="0.3505">
        <ele>81.8</ele>
        <time>2020-06-18T07:26:22Z</time>
      </trkpt>
      <trkpt lat="49.75016" lon="0.35054">
        <ele>81.8</ele>
        <time>2020-06-18T07:26:23Z</time>
      </trkpt>
      <trkpt lat="49.75017" lon="0.35055">
        <ele>81.8</ele>
        <time>2020-06-18T07:26:24Z</time>
      </trkpt>
      <trkpt lat="49.75019" lon="0.35058">
        <ele>81.7</ele>
        <time>2020-06-18T07:26:25Z</time>
      </trkpt>
      <trkpt lat="49.7502" lon="0.35059">
        <ele>81.7</ele>
        <time>2020-06-18T07:26:26Z</time>
      </trkpt>
      <trkpt lat="49.75021" lon="0.35063">
        <ele>81.6</ele>
        <time>2020-06-18T07:26:27Z</time>
      </trkpt>
      <trkpt lat="49.75025" lon="0.35066">
        <ele>81.5</ele>
        <time>2020-06-18T07:26:28Z</time>
      </trkpt>
      <trkpt lat="49.75026" lon="0.35068">
        <ele>81.5</ele>
        <time>2020-06-18T07:26:29Z</time>
      </trkpt>
      <trkpt lat="49.75028" lon="0.3507">
        <ele>81.4</ele>
        <time>2020-06-18T07:26:30Z</time>
      </trkpt>
      <trkpt lat="49.7503" lon="0.35074">
        <ele>81.2</ele>
        <time>2020-06-18T07:26:31Z</time>
      </trkpt>
      <trkpt lat="49.75032" lon="0.35077">
        <ele>81.1</ele>
        <time>2020-06-18T07:26:32Z</time>
      </trkpt>
      <trkpt lat="49.75035" lon="0.35081">
        <ele>80.9</ele>
        <time>2020-06-18T07:26:33Z</time>
      </trkpt>
      <trkpt lat="49.75038" lon="0.35084">
        <ele>80.7</ele>
        <time>2020-06-18T07:26:34Z</time>
      </trkpt>
      <trkpt lat="49.75042" lon="0.35088">
        <ele>80.4</ele>
        <time>2020-06-18T07:26:35Z</time>
      </trkpt>
      <trkpt lat="49.75044" lon="0.35093">
        <ele>80.1</ele>
        <time>2020-06-18T07:26:36Z</time>
      </trkpt>
      <trkpt lat="49.75047" lon="0.35098">
        <ele>79.8</ele>
        <time>2020-06-18T07:26:37Z</time>
      </trkpt>
      <trkpt lat="49.75051" lon="0.35104">
        <ele>79.5</ele>
        <time>2020-06-18T07:26:38Z</time>
      </trkpt>
      <trkpt lat="49.75055" lon="0.35111">
        <ele>79.1</ele>
        <time>2020-06-18T07:26:39Z</time>
      </trkpt>
      <trkpt lat="49.75058" lon="0.35118">
        <ele>78.7</ele>
        <time>2020-06-18T07:26:40Z</time>
      </trkpt>
      <trkpt lat="49.75062" lon="0.35128">
        <ele>78.3</ele>
        <time>2020-06-18T07:26:41Z</time>
      </trkpt>
      <trkpt lat="49.75066" lon="0.35136">
        <ele>78.1</ele>
        <time>2020-06-18T07:26:42Z</time>
      </trkpt>
      <trkpt lat="49.7507" lon="0.35146">
        <ele>78</ele>
        <time>2020-06-18T07:26:43Z</time>
      </trkpt>
      <trkpt lat="49.75074" lon="0.35159">
        <ele>78</ele>
        <time>2020-06-18T07:26:44Z</time>
      </trkpt>
      <trkpt lat="49.75078" lon="0.35167">
        <ele>78.1</ele>
        <time>2020-06-18T07:26:45Z</time>
      </trkpt>
      <trkpt lat="49.75083" lon="0.35174">
        <ele>78.2</ele>
        <time>2020-06-18T07:26:46Z</time>
      </trkpt>
      <trkpt lat="49.75088" lon="0.35183">
        <ele>78.4</ele>
        <time>2020-06-18T07:26:47Z</time>
      </trkpt>
      <trkpt lat="49.75092" lon="0.3519">
        <ele>78.6</ele>
        <time>2020-06-18T07:26:48Z</time>
      </trkpt>
      <trkpt lat="49.75095" lon="0.35196">
        <ele>78.9</ele>
        <time>2020-06-18T07:26:49Z</time>
      </trkpt>
      <trkpt lat="49.75099" lon="0.35203">
        <ele>79.2</ele>
        <time>2020-06-18T07:26:50Z</time>
      </trkpt>
      <trkpt lat="49.75103" lon="0.35209">
        <ele>79.6</ele>
        <time>2020-06-18T07:26:51Z</time>
      </trkpt>
      <trkpt lat="49.75105" lon="0.35213">
        <ele>79.8</ele>
        <time>2020-06-18T07:26:52Z</time>
      </trkpt>
      <trkpt lat="49.75108" lon="0.35218">
        <ele>80.1</ele>
        <time>2020-06-18T07:26:53Z</time>
      </trkpt>
      <trkpt lat="49.7511" lon="0.35223">
        <ele>80.4</ele>
        <time>2020-06-18T07:26:54Z</time>
      </trkpt>
      <trkpt lat="49.75114" lon="0.35229">
        <ele>80.8</ele>
        <time>2020-06-18T07:26:55Z</time>
      </trkpt>
      <trkpt lat="49.75116" lon="0.35234">
        <ele>81.1</ele>
        <time>2020-06-18T07:26:56Z</time>
      </trkpt>
      <trkpt lat="49.75118" lon="0.35239">
        <ele>81.3</ele>
        <time>2020-06-18T07:26:57Z</time>
      </trkpt>
      <trkpt lat="49.7512" lon="0.35244">
        <ele>81.6</ele>
        <time>2020-06-18T07:26:58Z</time>
      </trkpt>
      <trkpt lat="49.75122" lon="0.35248">
        <ele>81.8</ele>
        <time>2020-06-18T07:26:59Z</time>
      </trkpt>
      <trkpt lat="49.75125" lon="0.35252">
        <ele>82.1</ele>
        <time>2020-06-18T07:27:00Z</time>
      </trkpt>
      <trkpt lat="49.75127" lon="0.35256">
        <ele>82.3</ele>
        <time>2020-06-18T07:27:01Z</time>
      </trkpt>
      <trkpt lat="49.75129" lon="0.35261">
        <ele>82.5</ele>
        <time>2020-06-18T07:27:02Z</time>
      </trkpt>
      <trkpt lat="49.75131" lon="0.35265">
        <ele>82.7</ele>
        <time>2020-06-18T07:27:03Z</time>
      </trkpt>
      <trkpt lat="49.75133" lon="0.3527">
        <ele>82.9</ele>
        <time>2020-06-18T07:27:04Z</time>
      </trkpt>
      <trkpt lat="49.75136" lon="0.35274">
        <ele>83.1</ele>
        <time>2020-06-18T07:27:05Z</time>
      </trkpt>
      <trkpt lat="49.75138" lon="0.35278">
        <ele>83.3</ele>
        <time>2020-06-18T07:27:06Z</time>
      </trkpt>
      <trkpt lat="49.75141" lon="0.35283">
        <ele>83.5</ele>
        <time>2020-06-18T07:27:07Z</time>
      </trkpt>
      <trkpt lat="49.75143" lon="0.35288">
        <ele>83.7</ele>
        <time>2020-06-18T07:27:08Z</time>
      </trkpt>
      <trkpt lat="49.75145" lon="0.35294">
        <ele>83.9</ele>
        <time>2020-06-18T07:27:09Z</time>
      </trkpt>
      <trkpt lat="49.75149" lon="0.35298">
        <ele>84.1</ele>
        <time>2020-06-18T07:27:10Z</time>
      </trkpt>
      <trkpt lat="49.75152" lon="0.35303">
        <ele>84.3</ele>
        <time>2020-06-18T07:27:11Z</time>
      </trkpt>
      <trkpt lat="49.75154" lon="0.35309">
        <ele>84.4</ele>
        <time>2020-06-18T07:27:12Z</time>
      </trkpt>
      <trkpt lat="49.75157" lon="0.35315">
        <ele>84.6</ele>
        <time>2020-06-18T07:27:13Z</time>
      </trkpt>
      <trkpt lat="49.7516" lon="0.35321">
        <ele>84.7</ele>
        <time>2020-06-18T07:27:14Z</time>
      </trkpt>
      <trkpt lat="49.75163" lon="0.35326">
        <ele>84.9</ele>
        <time>2020-06-18T07:27:15Z</time>
      </trkpt>
      <trkpt lat="49.75166" lon="0.35332">
        <ele>85</ele>
        <time>2020-06-18T07:27:16Z</time>
      </trkpt>
      <trkpt lat="49.75169" lon="0.35338">
        <ele>85.1</ele>
        <time>2020-06-18T07:27:17Z</time>
      </trkpt>
      <trkpt lat="49.75172" lon="0.35343">
        <ele>85.2</ele>
        <time>2020-06-18T07:27:18Z</time>
      </trkpt>
      <trkpt lat="49.75175" lon="0.35349">
        <ele>85.3</ele>
        <time>2020-06-18T07:27:19Z</time>
      </trkpt>
      <trkpt lat="49.75178" lon="0.35355">
        <ele>85.3</ele>
        <time>2020-06-18T07:27:20Z</time>
      </trkpt>
      <trkpt lat="49.75181" lon="0.35361">
        <ele>85.4</ele>
        <time>2020-06-18T07:27:21Z</time>
      </trkpt>
      <trkpt lat="49.75183" lon="0.35367">
        <ele>85.5</ele>
        <time>2020-06-18T07:27:22Z</time>
      </trkpt>
      <trkpt lat="49.75186" lon="0.35372">
        <ele>85.5</ele>
        <time>2020-06-18T07:27:23Z</time>
      </trkpt>
      <trkpt lat="49.75189" lon="0.35377">
        <ele>85.6</ele>
        <time>2020-06-18T07:27:24Z</time>
      </trkpt>
      <trkpt lat="49.75192" lon="0.35383">
        <ele>85.6</ele>
        <time>2020-06-18T07:27:25Z</time>
      </trkpt>
      <trkpt lat="49.75196" lon="0.35389">
        <ele>85.6</ele>
        <time>2020-06-18T07:27:26Z</time>
      </trkpt>
      <trkpt lat="49.75199" lon="0.35394">
        <ele>85.7</ele>
        <time>2020-06-18T07:27:27Z</time>
      </trkpt>
      <trkpt lat="49.75201" lon="0.35401">
        <ele>85.7</ele>
        <time>2020-06-18T07:27:28Z</time>
      </trkpt>
      <trkpt lat="49.75204" lon="0.35408">
        <ele>85.8</ele>
        <time>2020-06-18T07:27:29Z</time>
      </trkpt>
      <trkpt lat="49.75207" lon="0.35414">
        <ele>85.8</ele>
        <time>2020-06-18T07:27:30Z</time>
      </trkpt>
      <trkpt lat="49.7521" lon="0.35422">
        <ele>85.8</ele>
        <time>2020-06-18T07:27:31Z</time>
      </trkpt>
      <trkpt lat="49.75214" lon="0.35428">
        <ele>85.8</ele>
        <time>2020-06-18T07:27:32Z</time>
      </trkpt>
      <trkpt lat="49.75217" lon="0.35435">
        <ele>85.8</ele>
        <time>2020-06-18T07:27:33Z</time>
      </trkpt>
      <trkpt lat="49.7522" lon="0.35442">
        <ele>85.8</ele>
        <time>2020-06-18T07:27:34Z</time>
      </trkpt>
      <trkpt lat="49.75223" lon="0.35449">
        <ele>85.8</ele>
        <time>2020-06-18T07:27:35Z</time>
      </trkpt>
      <trkpt lat="49.75226" lon="0.35456">
        <ele>85.8</ele>
        <time>2020-06-18T07:27:36Z</time>
      </trkpt>
      <trkpt lat="49.75229" lon="0.35463">
        <ele>85.8</ele>
        <time>2020-06-18T07:27:37Z</time>
      </trkpt>
      <trkpt lat="49.75232" lon="0.35471">
        <ele>85.8</ele>
        <time>2020-06-18T07:27:38Z</time>
      </trkpt>
      <trkpt lat="49.75235" lon="0.35477">
        <ele>85.8</ele>
        <time>2020-06-18T07:27:39Z</time>
      </trkpt>
      <trkpt lat="49.75238" lon="0.35483">
        <ele>85.8</ele>
        <time>2020-06-18T07:27:40Z</time>
      </trkpt>
      <trkpt lat="49.75241" lon="0.35489">
        <ele>85.8</ele>
        <time>2020-06-18T07:27:41Z</time>
      </trkpt>
      <trkpt lat="49.75244" lon="0.35494">
        <ele>85.8</ele>
        <time>2020-06-18T07:27:42Z</time>
      </trkpt>
      <trkpt lat="49.75247" lon="0.35501">
        <ele>85.8</ele>
        <time>2020-06-18T07:27:43Z</time>
      </trkpt>
      <trkpt lat="49.75249" lon="0.35507">
        <ele>85.8</ele>
        <time>2020-06-18T07:27:44Z</time>
      </trkpt>
      <trkpt lat="49.75252" lon="0.35513">
        <ele>85.9</ele>
        <time>2020-06-18T07:27:45Z</time>
      </trkpt>
      <trkpt lat="49.75254" lon="0.35519">
        <ele>85.9</ele>
        <time>2020-06-18T07:27:46Z</time>
      </trkpt>
      <trkpt lat="49.75257" lon="0.35524">
        <ele>85.8</ele>
        <time>2020-06-18T07:27:47Z</time>
      </trkpt>
      <trkpt lat="49.75259" lon="0.3553">
        <ele>85.8</ele>
        <time>2020-06-18T07:27:48Z</time>
      </trkpt>
      <trkpt lat="49.75261" lon="0.35535">
        <ele>85.7</ele>
        <time>2020-06-18T07:27:49Z</time>
      </trkpt>
      <trkpt lat="49.75263" lon="0.35541">
        <ele>85.5</ele>
        <time>2020-06-18T07:27:50Z</time>
      </trkpt>
      <trkpt lat="49.75266" lon="0.35545">
        <ele>85.2</ele>
        <time>2020-06-18T07:27:51Z</time>
      </trkpt>
      <trkpt lat="49.75268" lon="0.35551">
        <ele>85.1</ele>
        <time>2020-06-18T07:27:52Z</time>
      </trkpt>
      <trkpt lat="49.75271" lon="0.35557">
        <ele>85.1</ele>
        <time>2020-06-18T07:27:53Z</time>
      </trkpt>
      <trkpt lat="49.75273" lon="0.35564">
        <ele>85</ele>
        <time>2020-06-18T07:27:54Z</time>
      </trkpt>
      <trkpt lat="49.75275" lon="0.3557">
        <ele>84.9</ele>
        <time>2020-06-18T07:27:55Z</time>
      </trkpt>
      <trkpt lat="49.75278" lon="0.35577">
        <ele>84.8</ele>
        <time>2020-06-18T07:27:56Z</time>
      </trkpt>
      <trkpt lat="49.75282" lon="0.35582">
        <ele>84.6</ele>
        <time>2020-06-18T07:27:57Z</time>
      </trkpt>
      <trkpt lat="49.75285" lon="0.35588">
        <ele>84.4</ele>
        <time>2020-06-18T07:27:58Z</time>
      </trkpt>
      <trkpt lat="49.75288" lon="0.35595">
        <ele>84.3</ele>
        <time>2020-06-18T07:27:59Z</time>
      </trkpt>
      <trkpt lat="49.75291" lon="0.35601">
        <ele>84.1</ele>
        <time>2020-06-18T07:28:00Z</time>
      </trkpt>
      <trkpt lat="49.75294" lon="0.35608">
        <ele>84</ele>
        <time>2020-06-18T07:28:01Z</time>
      </trkpt>
      <trkpt lat="49.75296" lon="0.35614">
        <ele>83.8</ele>
        <time>2020-06-18T07:28:02Z</time>
      </trkpt>
      <trkpt lat="49.75299" lon="0.35622">
        <ele>83.7</ele>
        <time>2020-06-18T07:28:03Z</time>
      </trkpt>
      <trkpt lat="49.75302" lon="0.35629">
        <ele>83.5</ele>
        <time>2020-06-18T07:28:04Z</time>
      </trkpt>
      <trkpt lat="49.75305" lon="0.35636">
        <ele>83.3</ele>
        <time>2020-06-18T07:28:05Z</time>
      </trkpt>
      <trkpt lat="49.75308" lon="0.35643">
        <ele>83.1</ele>
        <time>2020-06-18T07:28:06Z</time>
      </trkpt>
      <trkpt lat="49.75311" lon="0.35652">
        <ele>82.9</ele>
        <time>2020-06-18T07:28:07Z</time>
      </trkpt>
      <trkpt lat="49.75314" lon="0.3566">
        <ele>82.7</ele>
        <time>2020-06-18T07:28:08Z</time>
      </trkpt>
      <trkpt lat="49.75318" lon="0.35668">
        <ele>82.4</ele>
        <time>2020-06-18T07:28:09Z</time>
      </trkpt>
      <trkpt lat="49.75323" lon="0.35676">
        <ele>82.1</ele>
        <time>2020-06-18T07:28:10Z</time>
      </trkpt>
      <trkpt lat="49.75327" lon="0.35684">
        <ele>81.8</ele>
        <time>2020-06-18T07:28:11Z</time>
      </trkpt>
      <trkpt lat="49.7533" lon="0.35692">
        <ele>81.6</ele>
        <time>2020-06-18T07:28:12Z</time>
      </trkpt>
      <trkpt lat="49.75334" lon="0.357">
        <ele>81.3</ele>
        <time>2020-06-18T07:28:13Z</time>
      </trkpt>
      <trkpt lat="49.75338" lon="0.35709">
        <ele>81</ele>
        <time>2020-06-18T07:28:14Z</time>
      </trkpt>
      <trkpt lat="49.75341" lon="0.35717">
        <ele>80.8</ele>
        <time>2020-06-18T07:28:15Z</time>
      </trkpt>
      <trkpt lat="49.75345" lon="0.35726">
        <ele>80.5</ele>
        <time>2020-06-18T07:28:16Z</time>
      </trkpt>
      <trkpt lat="49.75349" lon="0.35733">
        <ele>80.2</ele>
        <time>2020-06-18T07:28:17Z</time>
      </trkpt>
      <trkpt lat="49.75353" lon="0.35741">
        <ele>79.9</ele>
        <time>2020-06-18T07:28:18Z</time>
      </trkpt>
      <trkpt lat="49.75357" lon="0.35749">
        <ele>79.6</ele>
        <time>2020-06-18T07:28:19Z</time>
      </trkpt>
      <trkpt lat="49.75361" lon="0.35757">
        <ele>79.2</ele>
        <time>2020-06-18T07:28:20Z</time>
      </trkpt>
      <trkpt lat="49.75365" lon="0.35765">
        <ele>78.9</ele>
        <time>2020-06-18T07:28:21Z</time>
      </trkpt>
      <trkpt lat="49.7537" lon="0.35773">
        <ele>78.7</ele>
        <time>2020-06-18T07:28:22Z</time>
      </trkpt>
      <trkpt lat="49.75375" lon="0.3578">
        <ele>78.4</ele>
        <time>2020-06-18T07:28:23Z</time>
      </trkpt>
      <trkpt lat="49.7538" lon="0.35787">
        <ele>78.1</ele>
        <time>2020-06-18T07:28:24Z</time>
      </trkpt>
      <trkpt lat="49.75385" lon="0.35795">
        <ele>77.9</ele>
        <time>2020-06-18T07:28:25Z</time>
      </trkpt>
      <trkpt lat="49.75389" lon="0.35803">
        <ele>77.6</ele>
        <time>2020-06-18T07:28:26Z</time>
      </trkpt>
      <trkpt lat="49.75393" lon="0.35811">
        <ele>77.4</ele>
        <time>2020-06-18T07:28:27Z</time>
      </trkpt>
      <trkpt lat="49.75398" lon="0.35819">
        <ele>77.2</ele>
        <time>2020-06-18T07:28:28Z</time>
      </trkpt>
      <trkpt lat="49.75402" lon="0.35826">
        <ele>76.9</ele>
        <time>2020-06-18T07:28:29Z</time>
      </trkpt>
      <trkpt lat="49.75406" lon="0.35834">
        <ele>76.7</ele>
        <time>2020-06-18T07:28:30Z</time>
      </trkpt>
      <trkpt lat="49.7541" lon="0.35841">
        <ele>76.5</ele>
        <time>2020-06-18T07:28:31Z</time>
      </trkpt>
      <trkpt lat="49.75415" lon="0.35848">
        <ele>76.3</ele>
        <time>2020-06-18T07:28:32Z</time>
      </trkpt>
      <trkpt lat="49.75419" lon="0.35855">
        <ele>76.1</ele>
        <time>2020-06-18T07:28:33Z</time>
      </trkpt>
      <trkpt lat="49.75423" lon="0.35861">
        <ele>75.9</ele>
        <time>2020-06-18T07:28:34Z</time>
      </trkpt>
      <trkpt lat="49.75427" lon="0.35868">
        <ele>75.7</ele>
        <time>2020-06-18T07:28:35Z</time>
      </trkpt>
      <trkpt lat="49.75432" lon="0.35873">
        <ele>75.4</ele>
        <time>2020-06-18T07:28:36Z</time>
      </trkpt>
      <trkpt lat="49.75436" lon="0.35879">
        <ele>75.2</ele>
        <time>2020-06-18T07:28:37Z</time>
      </trkpt>
      <trkpt lat="49.7544" lon="0.35885">
        <ele>74.9</ele>
        <time>2020-06-18T07:28:38Z</time>
      </trkpt>
      <trkpt lat="49.75443" lon="0.35891">
        <ele>74.7</ele>
        <time>2020-06-18T07:28:39Z</time>
      </trkpt>
      <trkpt lat="49.75447" lon="0.35896">
        <ele>74.4</ele>
        <time>2020-06-18T07:28:40Z</time>
      </trkpt>
      <trkpt lat="49.75451" lon="0.359">
        <ele>74.1</ele>
        <time>2020-06-18T07:28:41Z</time>
      </trkpt>
      <trkpt lat="49.75455" lon="0.35905">
        <ele>73.9</ele>
        <time>2020-06-18T07:28:42Z</time>
      </trkpt>
      <trkpt lat="49.75459" lon="0.3591">
        <ele>73.6</ele>
        <time>2020-06-18T07:28:43Z</time>
      </trkpt>
      <trkpt lat="49.75462" lon="0.35914">
        <ele>73.3</ele>
        <time>2020-06-18T07:28:44Z</time>
      </trkpt>
      <trkpt lat="49.75464" lon="0.35919">
        <ele>73.1</ele>
        <time>2020-06-18T07:28:45Z</time>
      </trkpt>
      <trkpt lat="49.75467" lon="0.35921">
        <ele>72.8</ele>
        <time>2020-06-18T07:28:46Z</time>
      </trkpt>
      <trkpt lat="49.75469" lon="0.35926">
        <ele>72.6</ele>
        <time>2020-06-18T07:28:47Z</time>
      </trkpt>
      <trkpt lat="49.7547" lon="0.35928">
        <ele>72.5</ele>
        <time>2020-06-18T07:28:48Z</time>
      </trkpt>
      <trkpt lat="49.7547" lon="0.35931">
        <ele>72.4</ele>
        <time>2020-06-18T07:28:49Z</time>
      </trkpt>
      <trkpt lat="49.75471" lon="0.3593">
        <ele>72.3</ele>
        <time>2020-06-18T07:28:50Z</time>
      </trkpt>
      <trkpt lat="49.75473" lon="0.35931">
        <ele>72.2</ele>
        <time>2020-06-18T07:28:51Z</time>
      </trkpt>
      <trkpt lat="49.75474" lon="0.35929">
        <ele>71.8</ele>
        <time>2020-06-18T07:28:52Z</time>
      </trkpt>
      <trkpt lat="49.75475" lon="0.35929">
        <ele>71.7</ele>
        <time>2020-06-18T07:28:53Z</time>
      </trkpt>
      <trkpt lat="49.75478" lon="0.35926">
        <ele>71.5</ele>
        <time>2020-06-18T07:28:54Z</time>
      </trkpt>
      <trkpt lat="49.75479" lon="0.35925">
        <ele>71.4</ele>
        <time>2020-06-18T07:28:55Z</time>
      </trkpt>
      <trkpt lat="49.75481" lon="0.3592">
        <ele>71.1</ele>
        <time>2020-06-18T07:28:56Z</time>
      </trkpt>
      <trkpt lat="49.75482" lon="0.35918">
        <ele>71</ele>
        <time>2020-06-18T07:28:57Z</time>
      </trkpt>
      <trkpt lat="49.75482" lon="0.35914">
        <ele>70.7</ele>
        <time>2020-06-18T07:28:58Z</time>
      </trkpt>
      <trkpt lat="49.75485" lon="0.35909">
        <ele>70.4</ele>
        <time>2020-06-18T07:28:59Z</time>
      </trkpt>
      <trkpt lat="49.75485" lon="0.35907">
        <ele>70.2</ele>
        <time>2020-06-18T07:29:00Z</time>
      </trkpt>
      <trkpt lat="49.75487" lon="0.35903">
        <ele>69.9</ele>
        <time>2020-06-18T07:29:01Z</time>
      </trkpt>
      <trkpt lat="49.7549" lon="0.35899">
        <ele>69.5</ele>
        <time>2020-06-18T07:29:02Z</time>
      </trkpt>
      <trkpt lat="49.75493" lon="0.35896">
        <ele>69.1</ele>
        <time>2020-06-18T07:29:03Z</time>
      </trkpt>
      <trkpt lat="49.75496" lon="0.35894">
        <ele>68.7</ele>
        <time>2020-06-18T07:29:04Z</time>
      </trkpt>
      <trkpt lat="49.755" lon="0.35892">
        <ele>68.2</ele>
        <time>2020-06-18T07:29:05Z</time>
      </trkpt>
      <trkpt lat="49.75501" lon="0.35891">
        <ele>68.1</ele>
        <time>2020-06-18T07:29:06Z</time>
      </trkpt>
      <trkpt lat="49.75505" lon="0.35892">
        <ele>67.6</ele>
        <time>2020-06-18T07:29:07Z</time>
      </trkpt>
      <trkpt lat="49.75508" lon="0.35892">
        <ele>67.2</ele>
        <time>2020-06-18T07:29:08Z</time>
      </trkpt>
      <trkpt lat="49.75512" lon="0.35891">
        <ele>66.8</ele>
        <time>2020-06-18T07:29:09Z</time>
      </trkpt>
      <trkpt lat="49.75516" lon="0.35892">
        <ele>66.4</ele>
        <time>2020-06-18T07:29:10Z</time>
      </trkpt>
      <trkpt lat="49.7552" lon="0.35895">
        <ele>65.9</ele>
        <time>2020-06-18T07:29:11Z</time>
      </trkpt>
      <trkpt lat="49.75523" lon="0.35896">
        <ele>65.5</ele>
        <time>2020-06-18T07:29:12Z</time>
      </trkpt>
      <trkpt lat="49.75527" lon="0.35898">
        <ele>65.2</ele>
        <time>2020-06-18T07:29:13Z</time>
      </trkpt>
      <trkpt lat="49.7553" lon="0.359">
        <ele>64.9</ele>
        <time>2020-06-18T07:29:14Z</time>
      </trkpt>
      <trkpt lat="49.75532" lon="0.35902">
        <ele>64.7</ele>
        <time>2020-06-18T07:29:15Z</time>
      </trkpt>
      <trkpt lat="49.75535" lon="0.35905">
        <ele>64.4</ele>
        <time>2020-06-18T07:29:16Z</time>
      </trkpt>
      <trkpt lat="49.75538" lon="0.35907">
        <ele>64.1</ele>
        <time>2020-06-18T07:29:17Z</time>
      </trkpt>
      <trkpt lat="49.75541" lon="0.35909">
        <ele>63.8</ele>
        <time>2020-06-18T07:29:18Z</time>
      </trkpt>
      <trkpt lat="49.75545" lon="0.35911">
        <ele>63.4</ele>
        <time>2020-06-18T07:29:19Z</time>
      </trkpt>
      <trkpt lat="49.75547" lon="0.35913">
        <ele>63</ele>
        <time>2020-06-18T07:29:20Z</time>
      </trkpt>
      <trkpt lat="49.75549" lon="0.35912">
        <ele>63.1</ele>
        <time>2020-06-18T07:29:21Z</time>
      </trkpt>
      <trkpt lat="49.7555" lon="0.35912">
        <ele>63.1</ele>
        <time>2020-06-18T07:29:22Z</time>
      </trkpt>
      <trkpt lat="49.7555" lon="0.35913">
        <ele>63.1</ele>
        <time>2020-06-18T07:29:23Z</time>
      </trkpt>
      <trkpt lat="49.7555" lon="0.35913">
        <ele>63.1</ele>
        <time>2020-06-18T07:29:24Z</time>
      </trkpt>
      <trkpt lat="49.7555" lon="0.35913">
        <ele>63.1</ele>
        <time>2020-06-18T07:29:25Z</time>
      </trkpt>
      <trkpt lat="49.75551" lon="0.35912">
        <ele>63.2</ele>
        <time>2020-06-18T07:29:26Z</time>
      </trkpt>
      <trkpt lat="49.75551" lon="0.35914">
        <ele>63.2</ele>
        <time>2020-06-18T07:29:27Z</time>
      </trkpt>
      <trkpt lat="49.75551" lon="0.35915">
        <ele>63.3</ele>
        <time>2020-06-18T07:29:28Z</time>
      </trkpt>
      <trkpt lat="49.75551" lon="0.35915">
        <ele>63.3</ele>
        <time>2020-06-18T07:29:29Z</time>
      </trkpt>
      <trkpt lat="49.75551" lon="0.35916">
        <ele>63.3</ele>
        <time>2020-06-18T07:29:30Z</time>
      </trkpt>
      <trkpt lat="49.75552" lon="0.35917">
        <ele>63.3</ele>
        <time>2020-06-18T07:29:31Z</time>
      </trkpt>
      <trkpt lat="49.75552" lon="0.35918">
        <ele>63.3</ele>
        <time>2020-06-18T07:29:32Z</time>
      </trkpt>
      <trkpt lat="49.75552" lon="0.35918">
        <ele>63.4</ele>
        <time>2020-06-18T07:29:33Z</time>
      </trkpt>
      <trkpt lat="49.75552" lon="0.35918">
        <ele>63.4</ele>
        <time>2020-06-18T07:29:34Z</time>
      </trkpt>
      <trkpt lat="49.75552" lon="0.35918">
        <ele>63.4</ele>
        <time>2020-06-18T07:29:35Z</time>
      </trkpt>
      <trkpt lat="49.75552" lon="0.3592">
        <ele>63.4</ele>
        <time>2020-06-18T07:29:36Z</time>
      </trkpt>
      <trkpt lat="49.75553" lon="0.35918">
        <ele>63.5</ele>
        <time>2020-06-18T07:29:37Z</time>
      </trkpt>
      <trkpt lat="49.75553" lon="0.35918">
        <ele>63.5</ele>
        <time>2020-06-18T07:29:38Z</time>
      </trkpt>
      <trkpt lat="49.75553" lon="0.35916">
        <ele>63.6</ele>
        <time>2020-06-18T07:29:39Z</time>
      </trkpt>
      <trkpt lat="49.75551" lon="0.35922">
        <ele>63.7</ele>
        <time>2020-06-18T07:30:14Z</time>
      </trkpt>
      <trkpt lat="49.7555" lon="0.35922">
        <ele>63.8</ele>
        <time>2020-06-18T07:30:15Z</time>
      </trkpt>
      <trkpt lat="49.75547" lon="0.35923">
        <ele>63.9</ele>
        <time>2020-06-18T07:30:16Z</time>
      </trkpt>
      <trkpt lat="49.75545" lon="0.35924">
        <ele>63.9</ele>
        <time>2020-06-18T07:30:17Z</time>
      </trkpt>
      <trkpt lat="49.75542" lon="0.35927">
        <ele>64.1</ele>
        <time>2020-06-18T07:30:18Z</time>
      </trkpt>
      <trkpt lat="49.75541" lon="0.35928">
        <ele>64.1</ele>
        <time>2020-06-18T07:30:19Z</time>
      </trkpt>
      <trkpt lat="49.75538" lon="0.35929">
        <ele>64.3</ele>
        <time>2020-06-18T07:30:20Z</time>
      </trkpt>
      <trkpt lat="49.75537" lon="0.3593">
        <ele>64.3</ele>
        <time>2020-06-18T07:30:21Z</time>
      </trkpt>
      <trkpt lat="49.75534" lon="0.35933">
        <ele>64.4</ele>
        <time>2020-06-18T07:30:22Z</time>
      </trkpt>
      <trkpt lat="49.75533" lon="0.35935">
        <ele>64.5</ele>
        <time>2020-06-18T07:30:23Z</time>
      </trkpt>
      <trkpt lat="49.75532" lon="0.35938">
        <ele>64.6</ele>
        <time>2020-06-18T07:30:24Z</time>
      </trkpt>
      <trkpt lat="49.75528" lon="0.35941">
        <ele>64.8</ele>
        <time>2020-06-18T07:30:25Z</time>
      </trkpt>
      <trkpt lat="49.75527" lon="0.35942">
        <ele>64.8</ele>
        <time>2020-06-18T07:30:26Z</time>
      </trkpt>
      <trkpt lat="49.75524" lon="0.35946">
        <ele>65</ele>
        <time>2020-06-18T07:30:27Z</time>
      </trkpt>
      <trkpt lat="49.75524" lon="0.35948">
        <ele>65</ele>
        <time>2020-06-18T07:30:28Z</time>
      </trkpt>
      <trkpt lat="49.75521" lon="0.35953">
        <ele>65.2</ele>
        <time>2020-06-18T07:30:29Z</time>
      </trkpt>
      <trkpt lat="49.75521" lon="0.35954">
        <ele>65.2</ele>
        <time>2020-06-18T07:30:30Z</time>
      </trkpt>
      <trkpt lat="49.75518" lon="0.35957">
        <ele>65.4</ele>
        <time>2020-06-18T07:30:31Z</time>
      </trkpt>
      <trkpt lat="49.75516" lon="0.3596">
        <ele>65.5</ele>
        <time>2020-06-18T07:30:32Z</time>
      </trkpt>
      <trkpt lat="49.75514" lon="0.35962">
        <ele>65.6</ele>
        <time>2020-06-18T07:30:33Z</time>
      </trkpt>
      <trkpt lat="49.75511" lon="0.35966">
        <ele>65.8</ele>
        <time>2020-06-18T07:30:34Z</time>
      </trkpt>
      <trkpt lat="49.7551" lon="0.35967">
        <ele>65.9</ele>
        <time>2020-06-18T07:30:35Z</time>
      </trkpt>
      <trkpt lat="49.75508" lon="0.3597">
        <ele>66.1</ele>
        <time>2020-06-18T07:30:36Z</time>
      </trkpt>
      <trkpt lat="49.75507" lon="0.35971">
        <ele>66.1</ele>
        <time>2020-06-18T07:30:37Z</time>
      </trkpt>
      <trkpt lat="49.75508" lon="0.35977">
        <ele>65.5</ele>
        <time>2020-06-18T07:30:38Z</time>
      </trkpt>
      <trkpt lat="49.75508" lon="0.35979">
        <ele>65.3</ele>
        <time>2020-06-18T07:30:39Z</time>
      </trkpt>
      <trkpt lat="49.75509" lon="0.35985">
        <ele>64.7</ele>
        <time>2020-06-18T07:30:40Z</time>
      </trkpt>
      <trkpt lat="49.75509" lon="0.35991">
        <ele>64.2</ele>
        <time>2020-06-18T07:30:41Z</time>
      </trkpt>
      <trkpt lat="49.7551" lon="0.35997">
        <ele>63.6</ele>
        <time>2020-06-18T07:30:42Z</time>
      </trkpt>
      <trkpt lat="49.75511" lon="0.36004">
        <ele>63</ele>
        <time>2020-06-18T07:30:43Z</time>
      </trkpt>
      <trkpt lat="49.75512" lon="0.36011">
        <ele>62.3</ele>
        <time>2020-06-18T07:30:44Z</time>
      </trkpt>
      <trkpt lat="49.75514" lon="0.36018">
        <ele>61.6</ele>
        <time>2020-06-18T07:30:45Z</time>
      </trkpt>
      <trkpt lat="49.75517" lon="0.36023">
        <ele>61.1</ele>
        <time>2020-06-18T07:30:46Z</time>
      </trkpt>
      <trkpt lat="49.7552" lon="0.36027">
        <ele>60.5</ele>
        <time>2020-06-18T07:30:47Z</time>
      </trkpt>
      <trkpt lat="49.75523" lon="0.36031">
        <ele>60</ele>
        <time>2020-06-18T07:30:48Z</time>
      </trkpt>
      <trkpt lat="49.75526" lon="0.36035">
        <ele>59.5</ele>
        <time>2020-06-18T07:30:49Z</time>
      </trkpt>
      <trkpt lat="49.7553" lon="0.36038">
        <ele>58.9</ele>
        <time>2020-06-18T07:30:50Z</time>
      </trkpt>
      <trkpt lat="49.75534" lon="0.36039">
        <ele>58.3</ele>
        <time>2020-06-18T07:30:51Z</time>
      </trkpt>
      <trkpt lat="49.75538" lon="0.36041">
        <ele>57.8</ele>
        <time>2020-06-18T07:30:52Z</time>
      </trkpt>
      <trkpt lat="49.75541" lon="0.36042">
        <ele>57.2</ele>
        <time>2020-06-18T07:30:53Z</time>
      </trkpt>
      <trkpt lat="49.75544" lon="0.36044">
        <ele>56.7</ele>
        <time>2020-06-18T07:30:54Z</time>
      </trkpt>
      <trkpt lat="49.75547" lon="0.36044">
        <ele>56.2</ele>
        <time>2020-06-18T07:30:55Z</time>
      </trkpt>
      <trkpt lat="49.7555" lon="0.36045">
        <ele>55.6</ele>
        <time>2020-06-18T07:30:56Z</time>
      </trkpt>
      <trkpt lat="49.75553" lon="0.36045">
        <ele>55</ele>
        <time>2020-06-18T07:30:57Z</time>
      </trkpt>
      <trkpt lat="49.75556" lon="0.36047">
        <ele>54.5</ele>
        <time>2020-06-18T07:30:58Z</time>
      </trkpt>
      <trkpt lat="49.75559" lon="0.36047">
        <ele>53.9</ele>
        <time>2020-06-18T07:30:59Z</time>
      </trkpt>
      <trkpt lat="49.75562" lon="0.3605">
        <ele>53.2</ele>
        <time>2020-06-18T07:31:00Z</time>
      </trkpt>
      <trkpt lat="49.75565" lon="0.3605">
        <ele>52.5</ele>
        <time>2020-06-18T07:31:01Z</time>
      </trkpt>
      <trkpt lat="49.75569" lon="0.36051">
        <ele>51.7</ele>
        <time>2020-06-18T07:31:02Z</time>
      </trkpt>
      <trkpt lat="49.75573" lon="0.36052">
        <ele>51</ele>
        <time>2020-06-18T07:31:03Z</time>
      </trkpt>
      <trkpt lat="49.75577" lon="0.36053">
        <ele>50.2</ele>
        <time>2020-06-18T07:31:04Z</time>
      </trkpt>
      <trkpt lat="49.7558" lon="0.36054">
        <ele>49.5</ele>
        <time>2020-06-18T07:31:05Z</time>
      </trkpt>
      <trkpt lat="49.75583" lon="0.36057">
        <ele>48.9</ele>
        <time>2020-06-18T07:31:06Z</time>
      </trkpt>
      <trkpt lat="49.75586" lon="0.36059">
        <ele>48.3</ele>
        <time>2020-06-18T07:31:07Z</time>
      </trkpt>
      <trkpt lat="49.75588" lon="0.36064">
        <ele>47.5</ele>
        <time>2020-06-18T07:31:08Z</time>
      </trkpt>
      <trkpt lat="49.75591" lon="0.36066">
        <ele>47</ele>
        <time>2020-06-18T07:31:09Z</time>
      </trkpt>
      <trkpt lat="49.75593" lon="0.36068">
        <ele>46.5</ele>
        <time>2020-06-18T07:31:10Z</time>
      </trkpt>
      <trkpt lat="49.75596" lon="0.36071">
        <ele>45.8</ele>
        <time>2020-06-18T07:31:11Z</time>
      </trkpt>
      <trkpt lat="49.75597" lon="0.36072">
        <ele>45.6</ele>
        <time>2020-06-18T07:31:12Z</time>
      </trkpt>
      <trkpt lat="49.75601" lon="0.36075">
        <ele>44.9</ele>
        <time>2020-06-18T07:31:13Z</time>
      </trkpt>
      <trkpt lat="49.75602" lon="0.36075">
        <ele>44.6</ele>
        <time>2020-06-18T07:31:14Z</time>
      </trkpt>
      <trkpt lat="49.75606" lon="0.36075">
        <ele>44</ele>
        <time>2020-06-18T07:31:15Z</time>
      </trkpt>
      <trkpt lat="49.75609" lon="0.36076">
        <ele>43.4</ele>
        <time>2020-06-18T07:31:16Z</time>
      </trkpt>
      <trkpt lat="49.75612" lon="0.36075">
        <ele>42.8</ele>
        <time>2020-06-18T07:31:17Z</time>
      </trkpt>
      <trkpt lat="49.75613" lon="0.36074">
        <ele>42.6</ele>
        <time>2020-06-18T07:31:18Z</time>
      </trkpt>
      <trkpt lat="49.75617" lon="0.36073">
        <ele>41.9</ele>
        <time>2020-06-18T07:31:19Z</time>
      </trkpt>
      <trkpt lat="49.75618" lon="0.36073">
        <ele>41.6</ele>
        <time>2020-06-18T07:31:20Z</time>
      </trkpt>
      <trkpt lat="49.75622" lon="0.36074">
        <ele>40.8</ele>
        <time>2020-06-18T07:31:21Z</time>
      </trkpt>
      <trkpt lat="49.75623" lon="0.36073">
        <ele>40.6</ele>
        <time>2020-06-18T07:31:22Z</time>
      </trkpt>
      <trkpt lat="49.75626" lon="0.36072">
        <ele>39.8</ele>
        <time>2020-06-18T07:31:23Z</time>
      </trkpt>
      <trkpt lat="49.75627" lon="0.36071">
        <ele>39.6</ele>
        <time>2020-06-18T07:31:24Z</time>
      </trkpt>
      <trkpt lat="49.7563" lon="0.36069">
        <ele>38.9</ele>
        <time>2020-06-18T07:31:25Z</time>
      </trkpt>
      <trkpt lat="49.75632" lon="0.36068">
        <ele>38.3</ele>
        <time>2020-06-18T07:31:26Z</time>
      </trkpt>
      <trkpt lat="49.75636" lon="0.36066">
        <ele>37.4</ele>
        <time>2020-06-18T07:31:27Z</time>
      </trkpt>
      <trkpt lat="49.75637" lon="0.36065">
        <ele>37.1</ele>
        <time>2020-06-18T07:31:28Z</time>
      </trkpt>
      <trkpt lat="49.75641" lon="0.36066">
        <ele>36.2</ele>
        <time>2020-06-18T07:31:29Z</time>
      </trkpt>
      <trkpt lat="49.75642" lon="0.36066">
        <ele>35.9</ele>
        <time>2020-06-18T07:31:30Z</time>
      </trkpt>
      <trkpt lat="49.75646" lon="0.36067">
        <ele>35.1</ele>
        <time>2020-06-18T07:31:31Z</time>
      </trkpt>
      <trkpt lat="49.75649" lon="0.36067">
        <ele>34.4</ele>
        <time>2020-06-18T07:31:32Z</time>
      </trkpt>
      <trkpt lat="49.75652" lon="0.36064">
        <ele>33.6</ele>
        <time>2020-06-18T07:31:33Z</time>
      </trkpt>
      <trkpt lat="49.75653" lon="0.36064">
        <ele>33.4</ele>
        <time>2020-06-18T07:31:34Z</time>
      </trkpt>
      <trkpt lat="49.75656" lon="0.36062">
        <ele>32.8</ele>
        <time>2020-06-18T07:31:35Z</time>
      </trkpt>
      <trkpt lat="49.75659" lon="0.36061">
        <ele>50.2</ele>
        <time>2020-06-18T07:31:36Z</time>
      </trkpt>
      <trkpt lat="49.75662" lon="0.36061">
        <ele>50.1</ele>
        <time>2020-06-18T07:31:37Z</time>
      </trkpt>
      <trkpt lat="49.75666" lon="0.36058">
        <ele>49.9</ele>
        <time>2020-06-18T07:31:38Z</time>
      </trkpt>
      <trkpt lat="49.75669" lon="0.36057">
        <ele>49.7</ele>
        <time>2020-06-18T07:31:39Z</time>
      </trkpt>
      <trkpt lat="49.75672" lon="0.36058">
        <ele>49.6</ele>
        <time>2020-06-18T07:31:40Z</time>
      </trkpt>
      <trkpt lat="49.75676" lon="0.3606">
        <ele>49.4</ele>
        <time>2020-06-18T07:31:41Z</time>
      </trkpt>
      <trkpt lat="49.75677" lon="0.36062">
        <ele>49.3</ele>
        <time>2020-06-18T07:31:42Z</time>
      </trkpt>
      <trkpt lat="49.7568" lon="0.36061">
        <ele>49.1</ele>
        <time>2020-06-18T07:31:43Z</time>
      </trkpt>
      <trkpt lat="49.75682" lon="0.3606">
        <ele>49.1</ele>
        <time>2020-06-18T07:31:44Z</time>
      </trkpt>
      <trkpt lat="49.75684" lon="0.36062">
        <ele>48.9</ele>
        <time>2020-06-18T07:31:45Z</time>
      </trkpt>
      <trkpt lat="49.75685" lon="0.36063">
        <ele>48.9</ele>
        <time>2020-06-18T07:31:46Z</time>
      </trkpt>
      <trkpt lat="49.75688" lon="0.36065">
        <ele>48.7</ele>
        <time>2020-06-18T07:31:47Z</time>
      </trkpt>
      <trkpt lat="49.75689" lon="0.36066">
        <ele>48.6</ele>
        <time>2020-06-18T07:31:48Z</time>
      </trkpt>
      <trkpt lat="49.75692" lon="0.36066">
        <ele>48.5</ele>
        <time>2020-06-18T07:31:49Z</time>
      </trkpt>
      <trkpt lat="49.75693" lon="0.36067">
        <ele>48.4</ele>
        <time>2020-06-18T07:31:50Z</time>
      </trkpt>
      <trkpt lat="49.75696" lon="0.36068">
        <ele>48.2</ele>
        <time>2020-06-18T07:31:51Z</time>
      </trkpt>
      <trkpt lat="49.75697" lon="0.36068">
        <ele>48.2</ele>
        <time>2020-06-18T07:31:52Z</time>
      </trkpt>
      <trkpt lat="49.757" lon="0.36069">
        <ele>48</ele>
        <time>2020-06-18T07:31:53Z</time>
      </trkpt>
      <trkpt lat="49.757" lon="0.3607">
        <ele>48</ele>
        <time>2020-06-18T07:31:54Z</time>
      </trkpt>
      <trkpt lat="49.75702" lon="0.3607">
        <ele>47.8</ele>
        <time>2020-06-18T07:31:55Z</time>
      </trkpt>
      <trkpt lat="49.75704" lon="0.36071">
        <ele>47.7</ele>
        <time>2020-06-18T07:31:56Z</time>
      </trkpt>
      <trkpt lat="49.75705" lon="0.36073">
        <ele>47.6</ele>
        <time>2020-06-18T07:31:57Z</time>
      </trkpt>
      <trkpt lat="49.75706" lon="0.36074">
        <ele>47.5</ele>
        <time>2020-06-18T07:31:58Z</time>
      </trkpt>
      <trkpt lat="49.75708" lon="0.36074">
        <ele>47.2</ele>
        <time>2020-06-18T07:31:59Z</time>
      </trkpt>
      <trkpt lat="49.75708" lon="0.36074">
        <ele>47.2</ele>
        <time>2020-06-18T07:32:00Z</time>
      </trkpt>
      <trkpt lat="49.75709" lon="0.36074">
        <ele>47.1</ele>
        <time>2020-06-18T07:32:01Z</time>
      </trkpt>
      <trkpt lat="49.75709" lon="0.36074">
        <ele>47.1</ele>
        <time>2020-06-18T07:32:02Z</time>
      </trkpt>
      <trkpt lat="49.7571" lon="0.36074">
        <ele>47</ele>
        <time>2020-06-18T07:32:03Z</time>
      </trkpt>
      <trkpt lat="49.75711" lon="0.36075">
        <ele>47</ele>
        <time>2020-06-18T07:32:04Z</time>
      </trkpt>
      <trkpt lat="49.7571" lon="0.36075">
        <ele>46.9</ele>
        <time>2020-06-18T07:32:05Z</time>
      </trkpt>
      <trkpt lat="49.75711" lon="0.36076">
        <ele>46.9</ele>
        <time>2020-06-18T07:32:06Z</time>
      </trkpt>
      <trkpt lat="49.7571" lon="0.36076">
        <ele>46.8</ele>
        <time>2020-06-18T07:32:07Z</time>
      </trkpt>
      <trkpt lat="49.75712" lon="0.36078">
        <ele>46.7</ele>
        <time>2020-06-18T07:32:08Z</time>
      </trkpt>
      <trkpt lat="49.75715" lon="0.36081">
        <ele>46.4</ele>
        <time>2020-06-18T07:32:09Z</time>
      </trkpt>
      <trkpt lat="49.75716" lon="0.36085">
        <ele>46.2</ele>
        <time>2020-06-18T07:32:10Z</time>
      </trkpt>
      <trkpt lat="49.75718" lon="0.36089">
        <ele>45.9</ele>
        <time>2020-06-18T07:32:11Z</time>
      </trkpt>
      <trkpt lat="49.75721" lon="0.36093">
        <ele>45.6</ele>
        <time>2020-06-18T07:32:12Z</time>
      </trkpt>
      <trkpt lat="49.75724" lon="0.36097">
        <ele>45.4</ele>
        <time>2020-06-18T07:32:13Z</time>
      </trkpt>
      <trkpt lat="49.75727" lon="0.36101">
        <ele>45.1</ele>
        <time>2020-06-18T07:32:14Z</time>
      </trkpt>
      <trkpt lat="49.7573" lon="0.36104">
        <ele>44.9</ele>
        <time>2020-06-18T07:32:15Z</time>
      </trkpt>
      <trkpt lat="49.75733" lon="0.36106">
        <ele>44.7</ele>
        <time>2020-06-18T07:32:16Z</time>
      </trkpt>
      <trkpt lat="49.75735" lon="0.36109">
        <ele>44.5</ele>
        <time>2020-06-18T07:32:17Z</time>
      </trkpt>
      <trkpt lat="49.75737" lon="0.36113">
        <ele>44.3</ele>
        <time>2020-06-18T07:32:18Z</time>
      </trkpt>
      <trkpt lat="49.7574" lon="0.36117">
        <ele>44.1</ele>
        <time>2020-06-18T07:32:19Z</time>
      </trkpt>
      <trkpt lat="49.75743" lon="0.3612">
        <ele>43.9</ele>
        <time>2020-06-18T07:32:20Z</time>
      </trkpt>
      <trkpt lat="49.75746" lon="0.36123">
        <ele>43.7</ele>
        <time>2020-06-18T07:32:21Z</time>
      </trkpt>
      <trkpt lat="49.75749" lon="0.36126">
        <ele>43.7</ele>
        <time>2020-06-18T07:32:22Z</time>
      </trkpt>
      <trkpt lat="49.75752" lon="0.3613">
        <ele>43.7</ele>
        <time>2020-06-18T07:32:23Z</time>
      </trkpt>
      <trkpt lat="49.75755" lon="0.36134">
        <ele>43.7</ele>
        <time>2020-06-18T07:32:24Z</time>
      </trkpt>
      <trkpt lat="49.75758" lon="0.36138">
        <ele>43.5</ele>
        <time>2020-06-18T07:32:25Z</time>
      </trkpt>
      <trkpt lat="49.75761" lon="0.36142">
        <ele>43.4</ele>
        <time>2020-06-18T07:32:26Z</time>
      </trkpt>
      <trkpt lat="49.75765" lon="0.36147">
        <ele>43.3</ele>
        <time>2020-06-18T07:32:27Z</time>
      </trkpt>
      <trkpt lat="49.75768" lon="0.36153">
        <ele>43.2</ele>
        <time>2020-06-18T07:32:28Z</time>
      </trkpt>
      <trkpt lat="49.75771" lon="0.36157">
        <ele>43.1</ele>
        <time>2020-06-18T07:32:29Z</time>
      </trkpt>
      <trkpt lat="49.75773" lon="0.36163">
        <ele>43</ele>
        <time>2020-06-18T07:32:30Z</time>
      </trkpt>
      <trkpt lat="49.75774" lon="0.36169">
        <ele>42.9</ele>
        <time>2020-06-18T07:32:31Z</time>
      </trkpt>
      <trkpt lat="49.75773" lon="0.36176">
        <ele>42.8</ele>
        <time>2020-06-18T07:32:32Z</time>
      </trkpt>
      <trkpt lat="49.75772" lon="0.36184">
        <ele>42.7</ele>
        <time>2020-06-18T07:32:33Z</time>
      </trkpt>
      <trkpt lat="49.75769" lon="0.36191">
        <ele>42.6</ele>
        <time>2020-06-18T07:32:34Z</time>
      </trkpt>
      <trkpt lat="49.75767" lon="0.36197">
        <ele>42.5</ele>
        <time>2020-06-18T07:32:35Z</time>
      </trkpt>
      <trkpt lat="49.75765" lon="0.36204">
        <ele>42.4</ele>
        <time>2020-06-18T07:32:36Z</time>
      </trkpt>
      <trkpt lat="49.75763" lon="0.36211">
        <ele>42.3</ele>
        <time>2020-06-18T07:32:37Z</time>
      </trkpt>
      <trkpt lat="49.7576" lon="0.36216">
        <ele>42.1</ele>
        <time>2020-06-18T07:32:38Z</time>
      </trkpt>
      <trkpt lat="49.75758" lon="0.36221">
        <ele>42</ele>
        <time>2020-06-18T07:32:39Z</time>
      </trkpt>
      <trkpt lat="49.75754" lon="0.36225">
        <ele>41.9</ele>
        <time>2020-06-18T07:32:40Z</time>
      </trkpt>
      <trkpt lat="49.7575" lon="0.36226">
        <ele>41.7</ele>
        <time>2020-06-18T07:32:41Z</time>
      </trkpt>
      <trkpt lat="49.75746" lon="0.36226">
        <ele>41.5</ele>
        <time>2020-06-18T07:32:42Z</time>
      </trkpt>
      <trkpt lat="49.75742" lon="0.36224">
        <ele>41.4</ele>
        <time>2020-06-18T07:32:43Z</time>
      </trkpt>
      <trkpt lat="49.75738" lon="0.36223">
        <ele>41.2</ele>
        <time>2020-06-18T07:32:44Z</time>
      </trkpt>
      <trkpt lat="49.75735" lon="0.36222">
        <ele>41.1</ele>
        <time>2020-06-18T07:32:45Z</time>
      </trkpt>
      <trkpt lat="49.75732" lon="0.36221">
        <ele>41</ele>
        <time>2020-06-18T07:32:46Z</time>
      </trkpt>
      <trkpt lat="49.75729" lon="0.36219">
        <ele>40.8</ele>
        <time>2020-06-18T07:32:47Z</time>
      </trkpt>
      <trkpt lat="49.75726" lon="0.36218">
        <ele>40.7</ele>
        <time>2020-06-18T07:32:48Z</time>
      </trkpt>
      <trkpt lat="49.75722" lon="0.36218">
        <ele>40.6</ele>
        <time>2020-06-18T07:32:49Z</time>
      </trkpt>
      <trkpt lat="49.75721" lon="0.36217">
        <ele>40.6</ele>
        <time>2020-06-18T07:32:50Z</time>
      </trkpt>
      <trkpt lat="49.75716" lon="0.36217">
        <ele>40.5</ele>
        <time>2020-06-18T07:32:51Z</time>
      </trkpt>
      <trkpt lat="49.75714" lon="0.36221">
        <ele>40.3</ele>
        <time>2020-06-18T07:32:52Z</time>
      </trkpt>
      <trkpt lat="49.75714" lon="0.36225">
        <ele>40</ele>
        <time>2020-06-18T07:32:53Z</time>
      </trkpt>
      <trkpt lat="49.75716" lon="0.3623">
        <ele>39.6</ele>
        <time>2020-06-18T07:32:54Z</time>
      </trkpt>
      <trkpt lat="49.75717" lon="0.36232">
        <ele>39.5</ele>
        <time>2020-06-18T07:32:55Z</time>
      </trkpt>
      <trkpt lat="49.75719" lon="0.36234">
        <ele>39.2</ele>
        <time>2020-06-18T07:32:56Z</time>
      </trkpt>
      <trkpt lat="49.75722" lon="0.36239">
        <ele>38.8</ele>
        <time>2020-06-18T07:32:57Z</time>
      </trkpt>
      <trkpt lat="49.75723" lon="0.3624">
        <ele>38.6</ele>
        <time>2020-06-18T07:32:58Z</time>
      </trkpt>
      <trkpt lat="49.75725" lon="0.36241">
        <ele>38.3</ele>
        <time>2020-06-18T07:32:59Z</time>
      </trkpt>
      <trkpt lat="49.75729" lon="0.36242">
        <ele>38</ele>
        <time>2020-06-18T07:33:00Z</time>
      </trkpt>
      <trkpt lat="49.75732" lon="0.36245">
        <ele>37.6</ele>
        <time>2020-06-18T07:33:01Z</time>
      </trkpt>
      <trkpt lat="49.75735" lon="0.36247">
        <ele>37.2</ele>
        <time>2020-06-18T07:33:02Z</time>
      </trkpt>
      <trkpt lat="49.75739" lon="0.36249">
        <ele>36.9</ele>
        <time>2020-06-18T07:33:03Z</time>
      </trkpt>
      <trkpt lat="49.75742" lon="0.36249">
        <ele>36.6</ele>
        <time>2020-06-18T07:33:04Z</time>
      </trkpt>
      <trkpt lat="49.75744" lon="0.36248">
        <ele>36.3</ele>
        <time>2020-06-18T07:33:05Z</time>
      </trkpt>
      <trkpt lat="49.75747" lon="0.3625">
        <ele>36</ele>
        <time>2020-06-18T07:33:06Z</time>
      </trkpt>
      <trkpt lat="49.7575" lon="0.36253">
        <ele>35.7</ele>
        <time>2020-06-18T07:33:07Z</time>
      </trkpt>
      <trkpt lat="49.75752" lon="0.36254">
        <ele>35.4</ele>
        <time>2020-06-18T07:33:08Z</time>
      </trkpt>
      <trkpt lat="49.75755" lon="0.36255">
        <ele>35.2</ele>
        <time>2020-06-18T07:33:09Z</time>
      </trkpt>
      <trkpt lat="49.75758" lon="0.36258">
        <ele>34.8</ele>
        <time>2020-06-18T07:33:10Z</time>
      </trkpt>
      <trkpt lat="49.75761" lon="0.36261">
        <ele>34.4</ele>
        <time>2020-06-18T07:33:11Z</time>
      </trkpt>
      <trkpt lat="49.75764" lon="0.36262">
        <ele>34.1</ele>
        <time>2020-06-18T07:33:12Z</time>
      </trkpt>
      <trkpt lat="49.75767" lon="0.36264">
        <ele>33.7</ele>
        <time>2020-06-18T07:33:13Z</time>
      </trkpt>
      <trkpt lat="49.7577" lon="0.36265">
        <ele>33.3</ele>
        <time>2020-06-18T07:33:14Z</time>
      </trkpt>
      <trkpt lat="49.75773" lon="0.36265">
        <ele>32.9</ele>
        <time>2020-06-18T07:33:15Z</time>
      </trkpt>
      <trkpt lat="49.75776" lon="0.36266">
        <ele>31.9</ele>
        <time>2020-06-18T07:33:16Z</time>
      </trkpt>
      <trkpt lat="49.75777" lon="0.36266">
        <ele>31.8</ele>
        <time>2020-06-18T07:33:17Z</time>
      </trkpt>
      <trkpt lat="49.75779" lon="0.36266">
        <ele>31.5</ele>
        <time>2020-06-18T07:33:18Z</time>
      </trkpt>
      <trkpt lat="49.7578" lon="0.36266">
        <ele>31.3</ele>
        <time>2020-06-18T07:33:19Z</time>
      </trkpt>
      <trkpt lat="49.75783" lon="0.36268">
        <ele>30.8</ele>
        <time>2020-06-18T07:33:20Z</time>
      </trkpt>
      <trkpt lat="49.75784" lon="0.36269">
        <ele>30.7</ele>
        <time>2020-06-18T07:33:21Z</time>
      </trkpt>
      <trkpt lat="49.75787" lon="0.36271">
        <ele>30.1</ele>
        <time>2020-06-18T07:33:22Z</time>
      </trkpt>
      <trkpt lat="49.75788" lon="0.36273">
        <ele>29.9</ele>
        <time>2020-06-18T07:33:23Z</time>
      </trkpt>
      <trkpt lat="49.75792" lon="0.36274">
        <ele>29.2</ele>
        <time>2020-06-18T07:33:24Z</time>
      </trkpt>
      <trkpt lat="49.75794" lon="0.36275">
        <ele>28.5</ele>
        <time>2020-06-18T07:33:25Z</time>
      </trkpt>
      <trkpt lat="49.75798" lon="0.36275">
        <ele>27.9</ele>
        <time>2020-06-18T07:33:26Z</time>
      </trkpt>
      <trkpt lat="49.75803" lon="0.36277">
        <ele>27.1</ele>
        <time>2020-06-18T07:33:27Z</time>
      </trkpt>
      <trkpt lat="49.75809" lon="0.36281">
        <ele>26.1</ele>
        <time>2020-06-18T07:33:28Z</time>
      </trkpt>
      <trkpt lat="49.75816" lon="0.36285">
        <ele>25.1</ele>
        <time>2020-06-18T07:33:29Z</time>
      </trkpt>
      <trkpt lat="49.75821" lon="0.36287">
        <ele>24.3</ele>
        <time>2020-06-18T07:33:30Z</time>
      </trkpt>
      <trkpt lat="49.75826" lon="0.36288">
        <ele>23.6</ele>
        <time>2020-06-18T07:33:31Z</time>
      </trkpt>
      <trkpt lat="49.7583" lon="0.36289">
        <ele>22.9</ele>
        <time>2020-06-18T07:33:32Z</time>
      </trkpt>
      <trkpt lat="49.75835" lon="0.3629">
        <ele>22.2</ele>
        <time>2020-06-18T07:33:33Z</time>
      </trkpt>
      <trkpt lat="49.75839" lon="0.36291">
        <ele>21.6</ele>
        <time>2020-06-18T07:33:34Z</time>
      </trkpt>
      <trkpt lat="49.75844" lon="0.36291">
        <ele>20.9</ele>
        <time>2020-06-18T07:33:35Z</time>
      </trkpt>
      <trkpt lat="49.75848" lon="0.36291">
        <ele>20.3</ele>
        <time>2020-06-18T07:33:36Z</time>
      </trkpt>
      <trkpt lat="49.75852" lon="0.36292">
        <ele>19.8</ele>
        <time>2020-06-18T07:33:37Z</time>
      </trkpt>
      <trkpt lat="49.75855" lon="0.36291">
        <ele>19.3</ele>
        <time>2020-06-18T07:33:38Z</time>
      </trkpt>
      <trkpt lat="49.75859" lon="0.36292">
        <ele>18.7</ele>
        <time>2020-06-18T07:33:39Z</time>
      </trkpt>
      <trkpt lat="49.75863" lon="0.36291">
        <ele>18.2</ele>
        <time>2020-06-18T07:33:40Z</time>
      </trkpt>
      <trkpt lat="49.75866" lon="0.36289">
        <ele>17.8</ele>
        <time>2020-06-18T07:33:41Z</time>
      </trkpt>
      <trkpt lat="49.75869" lon="0.3629">
        <ele>17.4</ele>
        <time>2020-06-18T07:33:42Z</time>
      </trkpt>
      <trkpt lat="49.75872" lon="0.36288">
        <ele>17</ele>
        <time>2020-06-18T07:33:43Z</time>
      </trkpt>
      <trkpt lat="49.75875" lon="0.36287">
        <ele>16.6</ele>
        <time>2020-06-18T07:33:44Z</time>
      </trkpt>
      <trkpt lat="49.75879" lon="0.36287">
        <ele>16.2</ele>
        <time>2020-06-18T07:33:45Z</time>
      </trkpt>
      <trkpt lat="49.7588" lon="0.36287">
        <ele>16</ele>
        <time>2020-06-18T07:33:46Z</time>
      </trkpt>
      <trkpt lat="49.75884" lon="0.36287">
        <ele>15.6</ele>
        <time>2020-06-18T07:33:47Z</time>
      </trkpt>
      <trkpt lat="49.75885" lon="0.36288">
        <ele>15.4</ele>
        <time>2020-06-18T07:33:48Z</time>
      </trkpt>
      <trkpt lat="49.75889" lon="0.36289">
        <ele>15</ele>
        <time>2020-06-18T07:33:49Z</time>
      </trkpt>
      <trkpt lat="49.75889" lon="0.36289">
        <ele>14.9</ele>
        <time>2020-06-18T07:33:50Z</time>
      </trkpt>
      <trkpt lat="49.75891" lon="0.3629">
        <ele>14.7</ele>
        <time>2020-06-18T07:33:51Z</time>
      </trkpt>
      <trkpt lat="49.75892" lon="0.36289">
        <ele>14.5</ele>
        <time>2020-06-18T07:33:52Z</time>
      </trkpt>
      <trkpt lat="49.75894" lon="0.3629">
        <ele>14.2</ele>
        <time>2020-06-18T07:33:53Z</time>
      </trkpt>
      <trkpt lat="49.75895" lon="0.36287">
        <ele>13.9</ele>
        <time>2020-06-18T07:33:54Z</time>
      </trkpt>
      <trkpt lat="49.75896" lon="0.36286">
        <ele>13.8</ele>
        <time>2020-06-18T07:33:55Z</time>
      </trkpt>
      <trkpt lat="49.75897" lon="0.36285">
        <ele>13.6</ele>
        <time>2020-06-18T07:33:56Z</time>
      </trkpt>
      <trkpt lat="49.75898" lon="0.36285">
        <ele>13.5</ele>
        <time>2020-06-18T07:33:57Z</time>
      </trkpt>
      <trkpt lat="49.75899" lon="0.36285">
        <ele>13.4</ele>
        <time>2020-06-18T07:33:58Z</time>
      </trkpt>
      <trkpt lat="49.75899" lon="0.36283">
        <ele>13.2</ele>
        <time>2020-06-18T07:33:59Z</time>
      </trkpt>
      <trkpt lat="49.75901" lon="0.36282">
        <ele>13</ele>
        <time>2020-06-18T07:34:00Z</time>
      </trkpt>
      <trkpt lat="49.75902" lon="0.36281">
        <ele>12.7</ele>
        <time>2020-06-18T07:34:01Z</time>
      </trkpt>
      <trkpt lat="49.75903" lon="0.36279">
        <ele>12.6</ele>
        <time>2020-06-18T07:34:02Z</time>
      </trkpt>
      <trkpt lat="49.75904" lon="0.36277">
        <ele>12.3</ele>
        <time>2020-06-18T07:34:03Z</time>
      </trkpt>
      <trkpt lat="49.75905" lon="0.36276">
        <ele>12.1</ele>
        <time>2020-06-18T07:34:04Z</time>
      </trkpt>
      <trkpt lat="49.75906" lon="0.36275">
        <ele>12</ele>
        <time>2020-06-18T07:34:05Z</time>
      </trkpt>
      <trkpt lat="49.75907" lon="0.36271">
        <ele>11.6</ele>
        <time>2020-06-18T07:34:06Z</time>
      </trkpt>
      <trkpt lat="49.75907" lon="0.3627">
        <ele>11.6</ele>
        <time>2020-06-18T07:34:07Z</time>
      </trkpt>
      <trkpt lat="49.7591" lon="0.36266">
        <ele>11.5</ele>
        <time>2020-06-18T07:34:08Z</time>
      </trkpt>
      <trkpt lat="49.75911" lon="0.36264">
        <ele>11.4</ele>
        <time>2020-06-18T07:34:09Z</time>
      </trkpt>
      <trkpt lat="49.75912" lon="0.36261">
        <ele>11.3</ele>
        <time>2020-06-18T07:34:10Z</time>
      </trkpt>
      <trkpt lat="49.75914" lon="0.36257">
        <ele>11.1</ele>
        <time>2020-06-18T07:34:11Z</time>
      </trkpt>
      <trkpt lat="49.75916" lon="0.36254">
        <ele>11</ele>
        <time>2020-06-18T07:34:12Z</time>
      </trkpt>
      <trkpt lat="49.75917" lon="0.36249">
        <ele>10.9</ele>
        <time>2020-06-18T07:34:13Z</time>
      </trkpt>
      <trkpt lat="49.75919" lon="0.36245">
        <ele>10.7</ele>
        <time>2020-06-18T07:34:14Z</time>
      </trkpt>
      <trkpt lat="49.75921" lon="0.3624">
        <ele>10.6</ele>
        <time>2020-06-18T07:34:15Z</time>
      </trkpt>
      <trkpt lat="49.75923" lon="0.36235">
        <ele>10.5</ele>
        <time>2020-06-18T07:34:16Z</time>
      </trkpt>
      <trkpt lat="49.75924" lon="0.36229">
        <ele>10.2</ele>
        <time>2020-06-18T07:34:17Z</time>
      </trkpt>
      <trkpt lat="49.75926" lon="0.36224">
        <ele>10.1</ele>
        <time>2020-06-18T07:34:18Z</time>
      </trkpt>
      <trkpt lat="49.75929" lon="0.36219">
        <ele>10</ele>
        <time>2020-06-18T07:34:19Z</time>
      </trkpt>
      <trkpt lat="49.7593" lon="0.36214">
        <ele>10</ele>
        <time>2020-06-18T07:34:20Z</time>
      </trkpt>
      <trkpt lat="49.75931" lon="0.36208">
        <ele>9.9</ele>
        <time>2020-06-18T07:34:21Z</time>
      </trkpt>
      <trkpt lat="49.75933" lon="0.36202">
        <ele>9.8</ele>
        <time>2020-06-18T07:34:22Z</time>
      </trkpt>
      <trkpt lat="49.75935" lon="0.36197">
        <ele>9.8</ele>
        <time>2020-06-18T07:34:23Z</time>
      </trkpt>
      <trkpt lat="49.75938" lon="0.36194">
        <ele>9.7</ele>
        <time>2020-06-18T07:34:24Z</time>
      </trkpt>
      <trkpt lat="49.7594" lon="0.36188">
        <ele>9.7</ele>
        <time>2020-06-18T07:34:25Z</time>
      </trkpt>
      <trkpt lat="49.75941" lon="0.36183">
        <ele>9.6</ele>
        <time>2020-06-18T07:34:26Z</time>
      </trkpt>
      <trkpt lat="49.75943" lon="0.36178">
        <ele>9.6</ele>
        <time>2020-06-18T07:34:27Z</time>
      </trkpt>
      <trkpt lat="49.75944" lon="0.36174">
        <ele>9.6</ele>
        <time>2020-06-18T07:34:28Z</time>
      </trkpt>
      <trkpt lat="49.75946" lon="0.3617">
        <ele>9.7</ele>
        <time>2020-06-18T07:34:29Z</time>
      </trkpt>
      <trkpt lat="49.75948" lon="0.36166">
        <ele>9.7</ele>
        <time>2020-06-18T07:34:30Z</time>
      </trkpt>
      <trkpt lat="49.75948" lon="0.36162">
        <ele>9.7</ele>
        <time>2020-06-18T07:34:31Z</time>
      </trkpt>
      <trkpt lat="49.75949" lon="0.36159">
        <ele>9.7</ele>
        <time>2020-06-18T07:34:32Z</time>
      </trkpt>
      <trkpt lat="49.7595" lon="0.36157">
        <ele>9.7</ele>
        <time>2020-06-18T07:34:33Z</time>
      </trkpt>
      <trkpt lat="49.75951" lon="0.36154">
        <ele>9.7</ele>
        <time>2020-06-18T07:34:34Z</time>
      </trkpt>
      <trkpt lat="49.75951" lon="0.36153">
        <ele>9.7</ele>
        <time>2020-06-18T07:34:35Z</time>
      </trkpt>
      <trkpt lat="49.75954" lon="0.36151">
        <ele>9.7</ele>
        <time>2020-06-18T07:34:36Z</time>
      </trkpt>
      <trkpt lat="49.75956" lon="0.36147">
        <ele>9.7</ele>
        <time>2020-06-18T07:34:37Z</time>
      </trkpt>
      <trkpt lat="49.75956" lon="0.36145">
        <ele>9.7</ele>
        <time>2020-06-18T07:34:38Z</time>
      </trkpt>
      <trkpt lat="49.75956" lon="0.36142">
        <ele>9.7</ele>
        <time>2020-06-18T07:34:39Z</time>
      </trkpt>
      <trkpt lat="49.75955" lon="0.3614">
        <ele>9.7</ele>
        <time>2020-06-18T07:34:40Z</time>
      </trkpt>
      <trkpt lat="49.75953" lon="0.36136">
        <ele>9.7</ele>
        <time>2020-06-18T07:34:41Z</time>
      </trkpt>
      <trkpt lat="49.75951" lon="0.36133">
        <ele>9.7</ele>
        <time>2020-06-18T07:34:42Z</time>
      </trkpt>
      <trkpt lat="49.75948" lon="0.3613">
        <ele>9.8</ele>
        <time>2020-06-18T07:34:43Z</time>
      </trkpt>
      <trkpt lat="49.75946" lon="0.36127">
        <ele>9.8</ele>
        <time>2020-06-18T07:34:44Z</time>
      </trkpt>
      <trkpt lat="49.75944" lon="0.36124">
        <ele>9.8</ele>
        <time>2020-06-18T07:34:45Z</time>
      </trkpt>
      <trkpt lat="49.7594" lon="0.36122">
        <ele>9.8</ele>
        <time>2020-06-18T07:34:46Z</time>
      </trkpt>
      <trkpt lat="49.75939" lon="0.36121">
        <ele>9.8</ele>
        <time>2020-06-18T07:34:47Z</time>
      </trkpt>
      <trkpt lat="49.75937" lon="0.36117">
        <ele>9.8</ele>
        <time>2020-06-18T07:34:48Z</time>
      </trkpt>
      <trkpt lat="49.75936" lon="0.36116">
        <ele>9.9</ele>
        <time>2020-06-18T07:34:49Z</time>
      </trkpt>
      <trkpt lat="49.75935" lon="0.36114">
        <ele>9.9</ele>
        <time>2020-06-18T07:34:50Z</time>
      </trkpt>
      <trkpt lat="49.75934" lon="0.36113">
        <ele>9.9</ele>
        <time>2020-06-18T07:34:51Z</time>
      </trkpt>
      <trkpt lat="49.75931" lon="0.36111">
        <ele>9.9</ele>
        <time>2020-06-18T07:34:52Z</time>
      </trkpt>
      <trkpt lat="49.7593" lon="0.3611">
        <ele>9.9</ele>
        <time>2020-06-18T07:34:53Z</time>
      </trkpt>
      <trkpt lat="49.75927" lon="0.36109">
        <ele>9.9</ele>
        <time>2020-06-18T07:34:54Z</time>
      </trkpt>
      <trkpt lat="49.75924" lon="0.36106">
        <ele>10</ele>
        <time>2020-06-18T07:34:55Z</time>
      </trkpt>
      <trkpt lat="49.75923" lon="0.36106">
        <ele>10</ele>
        <time>2020-06-18T07:34:56Z</time>
      </trkpt>
      <trkpt lat="49.75922" lon="0.36106">
        <ele>10</ele>
        <time>2020-06-18T07:34:57Z</time>
      </trkpt>
      <trkpt lat="49.7592" lon="0.36106">
        <ele>10</ele>
        <time>2020-06-18T07:34:58Z</time>
      </trkpt>
      <trkpt lat="49.7592" lon="0.36106">
        <ele>10</ele>
        <time>2020-06-18T07:34:59Z</time>
      </trkpt>
      <trkpt lat="49.75918" lon="0.36106">
        <ele>10</ele>
        <time>2020-06-18T07:35:00Z</time>
      </trkpt>
      <trkpt lat="49.75918" lon="0.36105">
        <ele>10</ele>
        <time>2020-06-18T07:35:01Z</time>
      </trkpt>
      <trkpt lat="49.75918" lon="0.36105">
        <ele>10</ele>
        <time>2020-06-18T07:35:02Z</time>
      </trkpt>
      <trkpt lat="49.75918" lon="0.36105">
        <ele>10</ele>
        <time>2020-06-18T07:35:03Z</time>
      </trkpt>
      <trkpt lat="49.75918" lon="0.36105">
        <ele>10</ele>
        <time>2020-06-18T07:35:04Z</time>
      </trkpt>
      <trkpt lat="49.75917" lon="0.36104">
        <ele>10</ele>
        <time>2020-06-18T07:35:05Z</time>
      </trkpt>
      <trkpt lat="49.75917" lon="0.36104">
        <ele>10</ele>
        <time>2020-06-18T07:35:06Z</time>
      </trkpt>
      <trkpt lat="49.75918" lon="0.36105">
        <ele>10</ele>
        <time>2020-06-18T07:35:07Z</time>
      </trkpt>
      <trkpt lat="49.75918" lon="0.36105">
        <ele>10</ele>
        <time>2020-06-18T07:35:08Z</time>
      </trkpt>
      <trkpt lat="49.75917" lon="0.36104">
        <ele>10.1</ele>
        <time>2020-06-18T07:35:09Z</time>
      </trkpt>
      <trkpt lat="49.75919" lon="0.36103">
        <ele>10.1</ele>
        <time>2020-06-18T07:35:10Z</time>
      </trkpt>
      <trkpt lat="49.75918" lon="0.36103">
        <ele>10.1</ele>
        <time>2020-06-18T07:35:11Z</time>
      </trkpt>
      <trkpt lat="49.75917" lon="0.36102">
        <ele>10.1</ele>
        <time>2020-06-18T07:35:12Z</time>
      </trkpt>
      <trkpt lat="49.75918" lon="0.36104">
        <ele>10.1</ele>
        <time>2020-06-18T07:35:13Z</time>
      </trkpt>
      <trkpt lat="49.75918" lon="0.36103">
        <ele>10.1</ele>
        <time>2020-06-18T07:35:14Z</time>
      </trkpt>
      <trkpt lat="49.75918" lon="0.36103">
        <ele>10.1</ele>
        <time>2020-06-18T07:35:15Z</time>
      </trkpt>
      <trkpt lat="49.75918" lon="0.36103">
        <ele>10.1</ele>
        <time>2020-06-18T07:35:16Z</time>
      </trkpt>
      <trkpt lat="49.75917" lon="0.36103">
        <ele>10.1</ele>
        <time>2020-06-18T07:35:17Z</time>
      </trkpt>
      <trkpt lat="49.75917" lon="0.36102">
        <ele>10.1</ele>
        <time>2020-06-18T07:35:18Z</time>
      </trkpt>
      <trkpt lat="49.75917" lon="0.36102">
        <ele>10.1</ele>
        <time>2020-06-18T07:35:19Z</time>
      </trkpt>
      <trkpt lat="49.75917" lon="0.36101">
        <ele>10.1</ele>
        <time>2020-06-18T07:35:20Z</time>
      </trkpt>
      <trkpt lat="49.75917" lon="0.36102">
        <ele>10.1</ele>
        <time>2020-06-18T07:35:21Z</time>
      </trkpt>
      <trkpt lat="49.75917" lon="0.36102">
        <ele>10.1</ele>
        <time>2020-06-18T07:35:22Z</time>
      </trkpt>
      <trkpt lat="49.75917" lon="0.36102">
        <ele>10.1</ele>
        <time>2020-06-18T07:35:23Z</time>
      </trkpt>
      <trkpt lat="49.75912" lon="0.36097">
        <ele>10.1</ele>
        <time>2020-06-18T07:35:58Z</time>
      </trkpt>
      <trkpt lat="49.75911" lon="0.36096">
        <ele>10.1</ele>
        <time>2020-06-18T07:35:59Z</time>
      </trkpt>
      <trkpt lat="49.7591" lon="0.36096">
        <ele>10.1</ele>
        <time>2020-06-18T07:36:00Z</time>
      </trkpt>
      <trkpt lat="49.75909" lon="0.36095">
        <ele>10.1</ele>
        <time>2020-06-18T07:36:01Z</time>
      </trkpt>
      <trkpt lat="49.75908" lon="0.36094">
        <ele>10.1</ele>
        <time>2020-06-18T07:36:02Z</time>
      </trkpt>
      <trkpt lat="49.75907" lon="0.36094">
        <ele>10.1</ele>
        <time>2020-06-18T07:36:03Z</time>
      </trkpt>
      <trkpt lat="49.75906" lon="0.36094">
        <ele>10.1</ele>
        <time>2020-06-18T07:36:04Z</time>
      </trkpt>
      <trkpt lat="49.75906" lon="0.36092">
        <ele>10.1</ele>
        <time>2020-06-18T07:36:05Z</time>
      </trkpt>
      <trkpt lat="49.75906" lon="0.36092">
        <ele>10.1</ele>
        <time>2020-06-18T07:36:06Z</time>
      </trkpt>
      <trkpt lat="49.75905" lon="0.36091">
        <ele>10.2</ele>
        <time>2020-06-18T07:36:07Z</time>
      </trkpt>
      <trkpt lat="49.75905" lon="0.3609">
        <ele>10.2</ele>
        <time>2020-06-18T07:36:08Z</time>
      </trkpt>
      <trkpt lat="49.75905" lon="0.36089">
        <ele>10.2</ele>
        <time>2020-06-18T07:36:09Z</time>
      </trkpt>
      <trkpt lat="49.75904" lon="0.36088">
        <ele>10.2</ele>
        <time>2020-06-18T07:36:10Z</time>
      </trkpt>
      <trkpt lat="49.75903" lon="0.36087">
        <ele>10.2</ele>
        <time>2020-06-18T07:36:11Z</time>
      </trkpt>
      <trkpt lat="49.75902" lon="0.36087">
        <ele>10.2</ele>
        <time>2020-06-18T07:36:12Z</time>
      </trkpt>
      <trkpt lat="49.75902" lon="0.36086">
        <ele>10.2</ele>
        <time>2020-06-18T07:36:13Z</time>
      </trkpt>
      <trkpt lat="49.75902" lon="0.36087">
        <ele>10.2</ele>
        <time>2020-06-18T07:36:14Z</time>
      </trkpt>
      <trkpt lat="49.75902" lon="0.36087">
        <ele>10.2</ele>
        <time>2020-06-18T07:36:15Z</time>
      </trkpt>
      <trkpt lat="49.75903" lon="0.36089">
        <ele>10.2</ele>
        <time>2020-06-18T07:36:16Z</time>
      </trkpt>
      <trkpt lat="49.75903" lon="0.36089">
        <ele>10.2</ele>
        <time>2020-06-18T07:36:17Z</time>
      </trkpt>
      <trkpt lat="49.75903" lon="0.36089">
        <ele>10.2</ele>
        <time>2020-06-18T07:36:18Z</time>
      </trkpt>
      <trkpt lat="49.75903" lon="0.36089">
        <ele>10.2</ele>
        <time>2020-06-18T07:36:19Z</time>
      </trkpt>
      <trkpt lat="49.75903" lon="0.36089">
        <ele>10.2</ele>
        <time>2020-06-18T07:36:20Z</time>
      </trkpt>
      <trkpt lat="49.75903" lon="0.36089">
        <ele>10.2</ele>
        <time>2020-06-18T07:36:21Z</time>
      </trkpt>
      <trkpt lat="49.75903" lon="0.36089">
        <ele>10.2</ele>
        <time>2020-06-18T07:36:22Z</time>
      </trkpt>
      <trkpt lat="49.75903" lon="0.36089">
        <ele>10.2</ele>
        <time>2020-06-18T07:36:23Z</time>
      </trkpt>
      <trkpt lat="49.75903" lon="0.36093">
        <ele>10.2</ele>
        <time>2020-06-18T07:39:21Z</time>
      </trkpt>
      <trkpt lat="49.75903" lon="0.36093">
        <ele>10.2</ele>
        <time>2020-06-18T07:39:22Z</time>
      </trkpt>
      <trkpt lat="49.75903" lon="0.36094">
        <ele>10.2</ele>
        <time>2020-06-18T07:39:23Z</time>
      </trkpt>
      <trkpt lat="49.75903" lon="0.36094">
        <ele>10.2</ele>
        <time>2020-06-18T07:39:24Z</time>
      </trkpt>
      <trkpt lat="49.75904" lon="0.36093">
        <ele>10.2</ele>
        <time>2020-06-18T07:39:25Z</time>
      </trkpt>
      <trkpt lat="49.75903" lon="0.36094">
        <ele>10.2</ele>
        <time>2020-06-18T07:39:26Z</time>
      </trkpt>
      <trkpt lat="49.75904" lon="0.36094">
        <ele>10.2</ele>
        <time>2020-06-18T07:39:27Z</time>
      </trkpt>
      <trkpt lat="49.75903" lon="0.36093">
        <ele>10.2</ele>
        <time>2020-06-18T07:39:28Z</time>
      </trkpt>
      <trkpt lat="49.75903" lon="0.36093">
        <ele>10.2</ele>
        <time>2020-06-18T07:39:29Z</time>
      </trkpt>
      <trkpt lat="49.75903" lon="0.36093">
        <ele>10.2</ele>
        <time>2020-06-18T07:39:30Z</time>
      </trkpt>
      <trkpt lat="49.75903" lon="0.36092">
        <ele>10.2</ele>
        <time>2020-06-18T07:39:31Z</time>
      </trkpt>
      <trkpt lat="49.75897" lon="0.36099">
        <ele>10.2</ele>
        <time>2020-06-18T07:41:51Z</time>
      </trkpt>
      <trkpt lat="49.75898" lon="0.36098">
        <ele>10.2</ele>
        <time>2020-06-18T07:41:52Z</time>
      </trkpt>
      <trkpt lat="49.75898" lon="0.36098">
        <ele>10.2</ele>
        <time>2020-06-18T07:41:53Z</time>
      </trkpt>
      <trkpt lat="49.75898" lon="0.36098">
        <ele>10.2</ele>
        <time>2020-06-18T07:41:54Z</time>
      </trkpt>
      <trkpt lat="49.75898" lon="0.36098">
        <ele>10.2</ele>
        <time>2020-06-18T07:41:55Z</time>
      </trkpt>
      <trkpt lat="49.75898" lon="0.36098">
        <ele>10.2</ele>
        <time>2020-06-18T07:41:56Z</time>
      </trkpt>
      <trkpt lat="49.75898" lon="0.36098">
        <ele>10.2</ele>
        <time>2020-06-18T07:41:57Z</time>
      </trkpt>
      <trkpt lat="49.75898" lon="0.36098">
        <ele>10.2</ele>
        <time>2020-06-18T07:41:58Z</time>
      </trkpt>
      <trkpt lat="49.75898" lon="0.36098">
        <ele>10.2</ele>
        <time>2020-06-18T07:41:59Z</time>
      </trkpt>
      <trkpt lat="49.75896" lon="0.36097">
        <ele>10.2</ele>
        <time>2020-06-18T07:42:00Z</time>
      </trkpt>
      <trkpt lat="49.75896" lon="0.36097">
        <ele>10.2</ele>
        <time>2020-06-18T07:42:01Z</time>
      </trkpt>
      <trkpt lat="49.75901" lon="0.36089">
        <ele>10.2</ele>
        <time>2020-06-18T07:47:54Z</time>
      </trkpt>
      <trkpt lat="49.75901" lon="0.36088">
        <ele>10.2</ele>
        <time>2020-06-18T07:47:55Z</time>
      </trkpt>
      <trkpt lat="49.75901" lon="0.36088">
        <ele>10.2</ele>
        <time>2020-06-18T07:47:56Z</time>
      </trkpt>
      <trkpt lat="49.75901" lon="0.36088">
        <ele>10.2</ele>
        <time>2020-06-18T07:47:57Z</time>
      </trkpt>
      <trkpt lat="49.75901" lon="0.36088">
        <ele>10.2</ele>
        <time>2020-06-18T07:47:58Z</time>
      </trkpt>
      <trkpt lat="49.75901" lon="0.36088">
        <ele>10.2</ele>
        <time>2020-06-18T07:47:59Z</time>
      </trkpt>
      <trkpt lat="49.75901" lon="0.36088">
        <ele>10.2</ele>
        <time>2020-06-18T07:48:00Z</time>
      </trkpt>
      <trkpt lat="49.759" lon="0.36088">
        <ele>10.2</ele>
        <time>2020-06-18T07:48:01Z</time>
      </trkpt>
      <trkpt lat="49.75899" lon="0.36089">
        <ele>10.2</ele>
        <time>2020-06-18T07:48:02Z</time>
      </trkpt>
      <trkpt lat="49.75899" lon="0.36089">
        <ele>10.2</ele>
        <time>2020-06-18T07:48:03Z</time>
      </trkpt>
      <trkpt lat="49.75899" lon="0.36089">
        <ele>10.2</ele>
        <time>2020-06-18T07:48:04Z</time>
      </trkpt>
      <trkpt lat="49.75899" lon="0.36089">
        <ele>10.2</ele>
        <time>2020-06-18T07:48:05Z</time>
      </trkpt>
      <trkpt lat="49.75897" lon="0.36099">
        <ele>10.3</ele>
        <time>2020-06-18T07:48:37Z</time>
      </trkpt>
      <trkpt lat="49.75897" lon="0.36099">
        <ele>10.3</ele>
        <time>2020-06-18T07:48:38Z</time>
      </trkpt>
      <trkpt lat="49.75897" lon="0.361">
        <ele>10.3</ele>
        <time>2020-06-18T07:48:39Z</time>
      </trkpt>
      <trkpt lat="49.75897" lon="0.36101">
        <ele>10.3</ele>
        <time>2020-06-18T07:48:40Z</time>
      </trkpt>
      <trkpt lat="49.75897" lon="0.361">
        <ele>10.3</ele>
        <time>2020-06-18T07:48:41Z</time>
      </trkpt>
      <trkpt lat="49.75897" lon="0.36101">
        <ele>10.3</ele>
        <time>2020-06-18T07:48:42Z</time>
      </trkpt>
      <trkpt lat="49.75896" lon="0.36102">
        <ele>10.3</ele>
        <time>2020-06-18T07:48:43Z</time>
      </trkpt>
      <trkpt lat="49.75896" lon="0.36103">
        <ele>10.3</ele>
        <time>2020-06-18T07:48:44Z</time>
      </trkpt>
      <trkpt lat="49.75895" lon="0.36102">
        <ele>10.3</ele>
        <time>2020-06-18T07:48:45Z</time>
      </trkpt>
      <trkpt lat="49.75895" lon="0.36102">
        <ele>10.3</ele>
        <time>2020-06-18T07:48:46Z</time>
      </trkpt>
      <trkpt lat="49.75895" lon="0.36102">
        <ele>10.3</ele>
        <time>2020-06-18T07:48:47Z</time>
      </trkpt>
      <trkpt lat="49.75895" lon="0.36103">
        <ele>10.3</ele>
        <time>2020-06-18T07:48:48Z</time>
      </trkpt>
      <trkpt lat="49.75892" lon="0.36106">
        <ele>10.3</ele>
        <time>2020-06-18T07:48:56Z</time>
      </trkpt>
      <trkpt lat="49.75891" lon="0.36108">
        <ele>10.3</ele>
        <time>2020-06-18T07:48:57Z</time>
      </trkpt>
      <trkpt lat="49.75891" lon="0.36109">
        <ele>10.3</ele>
        <time>2020-06-18T07:48:58Z</time>
      </trkpt>
      <trkpt lat="49.75892" lon="0.36111">
        <ele>10.3</ele>
        <time>2020-06-18T07:48:59Z</time>
      </trkpt>
      <trkpt lat="49.75893" lon="0.36113">
        <ele>10.3</ele>
        <time>2020-06-18T07:49:00Z</time>
      </trkpt>
      <trkpt lat="49.75893" lon="0.36114">
        <ele>10.3</ele>
        <time>2020-06-18T07:49:01Z</time>
      </trkpt>
      <trkpt lat="49.75892" lon="0.36114">
        <ele>10.3</ele>
        <time>2020-06-18T07:49:02Z</time>
      </trkpt>
      <trkpt lat="49.75892" lon="0.36115">
        <ele>10.3</ele>
        <time>2020-06-18T07:49:03Z</time>
      </trkpt>
      <trkpt lat="49.75892" lon="0.36115">
        <ele>10.3</ele>
        <time>2020-06-18T07:49:04Z</time>
      </trkpt>
      <trkpt lat="49.75891" lon="0.36114">
        <ele>10.3</ele>
        <time>2020-06-18T07:49:05Z</time>
      </trkpt>
      <trkpt lat="49.75891" lon="0.36114">
        <ele>10.3</ele>
        <time>2020-06-18T07:49:06Z</time>
      </trkpt>
      <trkpt lat="49.75891" lon="0.36114">
        <ele>10.3</ele>
        <time>2020-06-18T07:49:07Z</time>
      </trkpt>
      <trkpt lat="49.75891" lon="0.36114">
        <ele>10.3</ele>
        <time>2020-06-18T07:49:08Z</time>
      </trkpt>
      <trkpt lat="49.75892" lon="0.36114">
        <ele>10.3</ele>
        <time>2020-06-18T07:49:09Z</time>
      </trkpt>
      <trkpt lat="49.75893" lon="0.36114">
        <ele>10.3</ele>
        <time>2020-06-18T07:49:10Z</time>
      </trkpt>
      <trkpt lat="49.75894" lon="0.36113">
        <ele>10.3</ele>
        <time>2020-06-18T07:49:11Z</time>
      </trkpt>
      <trkpt lat="49.75894" lon="0.36114">
        <ele>10.3</ele>
        <time>2020-06-18T07:49:12Z</time>
      </trkpt>
      <trkpt lat="49.75894" lon="0.36114">
        <ele>10.3</ele>
        <time>2020-06-18T07:49:13Z</time>
      </trkpt>
      <trkpt lat="49.75894" lon="0.36114">
        <ele>10.3</ele>
        <time>2020-06-18T07:49:14Z</time>
      </trkpt>
      <trkpt lat="49.75894" lon="0.36113">
        <ele>10.3</ele>
        <time>2020-06-18T07:49:15Z</time>
      </trkpt>
      <trkpt lat="49.75894" lon="0.36113">
        <ele>10.3</ele>
        <time>2020-06-18T07:49:16Z</time>
      </trkpt>
      <trkpt lat="49.75894" lon="0.36113">
        <ele>10.3</ele>
        <time>2020-06-18T07:49:17Z</time>
      </trkpt>
      <trkpt lat="49.75893" lon="0.36111">
        <ele>10.3</ele>
        <time>2020-06-18T07:49:18Z</time>
      </trkpt>
      <trkpt lat="49.75886" lon="0.36117">
        <ele>10.3</ele>
        <time>2020-06-18T08:03:07Z</time>
      </trkpt>
      <trkpt lat="49.75885" lon="0.36117">
        <ele>10.3</ele>
        <time>2020-06-18T08:03:08Z</time>
      </trkpt>
      <trkpt lat="49.75884" lon="0.36118">
        <ele>10.3</ele>
        <time>2020-06-18T08:03:09Z</time>
      </trkpt>
      <trkpt lat="49.75884" lon="0.36118">
        <ele>10.3</ele>
        <time>2020-06-18T08:03:10Z</time>
      </trkpt>
      <trkpt lat="49.75885" lon="0.36117">
        <ele>10.3</ele>
        <time>2020-06-18T08:03:11Z</time>
      </trkpt>
      <trkpt lat="49.75884" lon="0.36119">
        <ele>10.3</ele>
        <time>2020-06-18T08:03:12Z</time>
      </trkpt>
      <trkpt lat="49.75884" lon="0.36121">
        <ele>10.3</ele>
        <time>2020-06-18T08:03:13Z</time>
      </trkpt>
      <trkpt lat="49.75884" lon="0.36122">
        <ele>10.3</ele>
        <time>2020-06-18T08:03:14Z</time>
      </trkpt>
      <trkpt lat="49.75884" lon="0.36123">
        <ele>10.3</ele>
        <time>2020-06-18T08:03:15Z</time>
      </trkpt>
      <trkpt lat="49.75884" lon="0.36123">
        <ele>10.3</ele>
        <time>2020-06-18T08:03:16Z</time>
      </trkpt>
      <trkpt lat="49.75884" lon="0.36123">
        <ele>10.3</ele>
        <time>2020-06-18T08:03:17Z</time>
      </trkpt>
      <trkpt lat="49.75884" lon="0.36123">
        <ele>10.3</ele>
        <time>2020-06-18T08:03:18Z</time>
      </trkpt>
      <trkpt lat="49.75884" lon="0.36123">
        <ele>10.3</ele>
        <time>2020-06-18T08:03:19Z</time>
      </trkpt>
      <trkpt lat="49.75884" lon="0.36123">
        <ele>10.3</ele>
        <time>2020-06-18T08:03:20Z</time>
      </trkpt>
      <trkpt lat="49.75884" lon="0.36123">
        <ele>10.3</ele>
        <time>2020-06-18T08:03:21Z</time>
      </trkpt>
      <trkpt lat="49.75884" lon="0.36123">
        <ele>10.3</ele>
        <time>2020-06-18T08:03:22Z</time>
      </trkpt>
      <trkpt lat="49.75884" lon="0.36123">
        <ele>10.3</ele>
        <time>2020-06-18T08:03:23Z</time>
      </trkpt>
      <trkpt lat="49.75884" lon="0.36123">
        <ele>10.3</ele>
        <time>2020-06-18T08:03:24Z</time>
      </trkpt>
      <trkpt lat="49.75884" lon="0.36123">
        <ele>10.3</ele>
        <time>2020-06-18T08:03:25Z</time>
      </trkpt>
      <trkpt lat="49.75895" lon="0.36108">
        <ele>10.2</ele>
        <time>2020-06-18T08:07:39Z</time>
      </trkpt>
      <trkpt lat="49.75897" lon="0.36112">
        <ele>10.2</ele>
        <time>2020-06-18T08:07:40Z</time>
      </trkpt>
      <trkpt lat="49.759" lon="0.36116">
        <ele>10.2</ele>
        <time>2020-06-18T08:07:41Z</time>
      </trkpt>
      <trkpt lat="49.75901" lon="0.36117">
        <ele>10.2</ele>
        <time>2020-06-18T08:07:42Z</time>
      </trkpt>
      <trkpt lat="49.75905" lon="0.36118">
        <ele>10.2</ele>
        <time>2020-06-18T08:07:43Z</time>
      </trkpt>
      <trkpt lat="49.75905" lon="0.36119">
        <ele>10.2</ele>
        <time>2020-06-18T08:07:44Z</time>
      </trkpt>
      <trkpt lat="49.75907" lon="0.36121">
        <ele>10</ele>
        <time>2020-06-18T08:07:45Z</time>
      </trkpt>
      <trkpt lat="49.75907" lon="0.36123">
        <ele>10</ele>
        <time>2020-06-18T08:07:46Z</time>
      </trkpt>
      <trkpt lat="49.75908" lon="0.36127">
        <ele>10</ele>
        <time>2020-06-18T08:07:47Z</time>
      </trkpt>
      <trkpt lat="49.75908" lon="0.36129">
        <ele>10</ele>
        <time>2020-06-18T08:07:48Z</time>
      </trkpt>
      <trkpt lat="49.75908" lon="0.36131">
        <ele>10</ele>
        <time>2020-06-18T08:07:49Z</time>
      </trkpt>
      <trkpt lat="49.75907" lon="0.36134">
        <ele>9.9</ele>
        <time>2020-06-18T08:07:50Z</time>
      </trkpt>
      <trkpt lat="49.75906" lon="0.36139">
        <ele>9.9</ele>
        <time>2020-06-18T08:07:51Z</time>
      </trkpt>
      <trkpt lat="49.75905" lon="0.36141">
        <ele>9.9</ele>
        <time>2020-06-18T08:07:52Z</time>
      </trkpt>
      <trkpt lat="49.75904" lon="0.36148">
        <ele>9.9</ele>
        <time>2020-06-18T08:07:53Z</time>
      </trkpt>
      <trkpt lat="49.75904" lon="0.3615">
        <ele>9.9</ele>
        <time>2020-06-18T08:07:54Z</time>
      </trkpt>
      <trkpt lat="49.75903" lon="0.36152">
        <ele>9.9</ele>
        <time>2020-06-18T08:07:55Z</time>
      </trkpt>
      <trkpt lat="49.75902" lon="0.36154">
        <ele>9.9</ele>
        <time>2020-06-18T08:07:56Z</time>
      </trkpt>
      <trkpt lat="49.75901" lon="0.36156">
        <ele>9.9</ele>
        <time>2020-06-18T08:07:57Z</time>
      </trkpt>
      <trkpt lat="49.759" lon="0.36157">
        <ele>9.9</ele>
        <time>2020-06-18T08:07:58Z</time>
      </trkpt>
      <trkpt lat="49.75899" lon="0.36158">
        <ele>9.9</ele>
        <time>2020-06-18T08:07:59Z</time>
      </trkpt>
      <trkpt lat="49.75897" lon="0.36162">
        <ele>10</ele>
        <time>2020-06-18T08:08:00Z</time>
      </trkpt>
      <trkpt lat="49.75897" lon="0.36163">
        <ele>10</ele>
        <time>2020-06-18T08:08:01Z</time>
      </trkpt>
      <trkpt lat="49.75897" lon="0.36166">
        <ele>10</ele>
        <time>2020-06-18T08:08:02Z</time>
      </trkpt>
      <trkpt lat="49.75897" lon="0.36168">
        <ele>10</ele>
        <time>2020-06-18T08:08:03Z</time>
      </trkpt>
      <trkpt lat="49.75896" lon="0.36172">
        <ele>10.1</ele>
        <time>2020-06-18T08:08:04Z</time>
      </trkpt>
      <trkpt lat="49.75896" lon="0.36173">
        <ele>10.1</ele>
        <time>2020-06-18T08:08:05Z</time>
      </trkpt>
      <trkpt lat="49.75896" lon="0.36175">
        <ele>10.1</ele>
        <time>2020-06-18T08:08:06Z</time>
      </trkpt>
      <trkpt lat="49.75896" lon="0.36177">
        <ele>10.1</ele>
        <time>2020-06-18T08:08:07Z</time>
      </trkpt>
      <trkpt lat="49.75897" lon="0.36179">
        <ele>10.1</ele>
        <time>2020-06-18T08:08:08Z</time>
      </trkpt>
      <trkpt lat="49.75899" lon="0.36183">
        <ele>10.2</ele>
        <time>2020-06-18T08:08:09Z</time>
      </trkpt>
      <trkpt lat="49.759" lon="0.36185">
        <ele>10.2</ele>
        <time>2020-06-18T08:08:10Z</time>
      </trkpt>
      <trkpt lat="49.75901" lon="0.36189">
        <ele>10.2</ele>
        <time>2020-06-18T08:08:11Z</time>
      </trkpt>
      <trkpt lat="49.75903" lon="0.36192">
        <ele>10.2</ele>
        <time>2020-06-18T08:08:12Z</time>
      </trkpt>
      <trkpt lat="49.75905" lon="0.36197">
        <ele>10.2</ele>
        <time>2020-06-18T08:08:13Z</time>
      </trkpt>
      <trkpt lat="49.75907" lon="0.36201">
        <ele>10.2</ele>
        <time>2020-06-18T08:08:14Z</time>
      </trkpt>
      <trkpt lat="49.75908" lon="0.36204">
        <ele>10.2</ele>
        <time>2020-06-18T08:08:15Z</time>
      </trkpt>
      <trkpt lat="49.75911" lon="0.3621">
        <ele>10.2</ele>
        <time>2020-06-18T08:08:16Z</time>
      </trkpt>
      <trkpt lat="49.75913" lon="0.36211">
        <ele>10.2</ele>
        <time>2020-06-18T08:08:17Z</time>
      </trkpt>
      <trkpt lat="49.75916" lon="0.3622">
        <ele>10.2</ele>
        <time>2020-06-18T08:08:18Z</time>
      </trkpt>
      <trkpt lat="49.75917" lon="0.36224">
        <ele>10.2</ele>
        <time>2020-06-18T08:08:19Z</time>
      </trkpt>
      <trkpt lat="49.75916" lon="0.3623">
        <ele>10.5</ele>
        <time>2020-06-18T08:08:20Z</time>
      </trkpt>
      <trkpt lat="49.75915" lon="0.36232">
        <ele>10.5</ele>
        <time>2020-06-18T08:08:21Z</time>
      </trkpt>
      <trkpt lat="49.75913" lon="0.36237">
        <ele>10.7</ele>
        <time>2020-06-18T08:08:22Z</time>
      </trkpt>
      <trkpt lat="49.75912" lon="0.36242">
        <ele>10.8</ele>
        <time>2020-06-18T08:08:23Z</time>
      </trkpt>
      <trkpt lat="49.75911" lon="0.36248">
        <ele>11</ele>
        <time>2020-06-18T08:08:24Z</time>
      </trkpt>
      <trkpt lat="49.75909" lon="0.36253">
        <ele>11.1</ele>
        <time>2020-06-18T08:08:25Z</time>
      </trkpt>
      <trkpt lat="49.75908" lon="0.36259">
        <ele>11.2</ele>
        <time>2020-06-18T08:08:26Z</time>
      </trkpt>
      <trkpt lat="49.75907" lon="0.36265">
        <ele>11.4</ele>
        <time>2020-06-18T08:08:27Z</time>
      </trkpt>
      <trkpt lat="49.75906" lon="0.36269">
        <ele>11.5</ele>
        <time>2020-06-18T08:08:28Z</time>
      </trkpt>
      <trkpt lat="49.75905" lon="0.36274">
        <ele>11.7</ele>
        <time>2020-06-18T08:08:29Z</time>
      </trkpt>
      <trkpt lat="49.75904" lon="0.36279">
        <ele>12</ele>
        <time>2020-06-18T08:08:30Z</time>
      </trkpt>
      <trkpt lat="49.75902" lon="0.36285">
        <ele>12.1</ele>
        <time>2020-06-18T08:08:31Z</time>
      </trkpt>
      <trkpt lat="49.75902" lon="0.36291">
        <ele>12.2</ele>
        <time>2020-06-18T08:08:32Z</time>
      </trkpt>
      <trkpt lat="49.75902" lon="0.36297">
        <ele>12.3</ele>
        <time>2020-06-18T08:08:33Z</time>
      </trkpt>
      <trkpt lat="49.75901" lon="0.36302">
        <ele>12.4</ele>
        <time>2020-06-18T08:08:34Z</time>
      </trkpt>
      <trkpt lat="49.75899" lon="0.36308">
        <ele>12.5</ele>
        <time>2020-06-18T08:08:35Z</time>
      </trkpt>
      <trkpt lat="49.75897" lon="0.36313">
        <ele>12.6</ele>
        <time>2020-06-18T08:08:36Z</time>
      </trkpt>
      <trkpt lat="49.75894" lon="0.36319">
        <ele>12.7</ele>
        <time>2020-06-18T08:08:37Z</time>
      </trkpt>
      <trkpt lat="49.75892" lon="0.36327">
        <ele>12.8</ele>
        <time>2020-06-18T08:08:38Z</time>
      </trkpt>
      <trkpt lat="49.7589" lon="0.36333">
        <ele>13</ele>
        <time>2020-06-18T08:08:39Z</time>
      </trkpt>
      <trkpt lat="49.75887" lon="0.36339">
        <ele>13.1</ele>
        <time>2020-06-18T08:08:40Z</time>
      </trkpt>
      <trkpt lat="49.75885" lon="0.36345">
        <ele>13.2</ele>
        <time>2020-06-18T08:08:41Z</time>
      </trkpt>
      <trkpt lat="49.75884" lon="0.3635">
        <ele>13.3</ele>
        <time>2020-06-18T08:08:42Z</time>
      </trkpt>
      <trkpt lat="49.75882" lon="0.36356">
        <ele>13.3</ele>
        <time>2020-06-18T08:08:43Z</time>
      </trkpt>
      <trkpt lat="49.75881" lon="0.36362">
        <ele>13.4</ele>
        <time>2020-06-18T08:08:44Z</time>
      </trkpt>
      <trkpt lat="49.75879" lon="0.36367">
        <ele>13.4</ele>
        <time>2020-06-18T08:08:45Z</time>
      </trkpt>
      <trkpt lat="49.75878" lon="0.36373">
        <ele>13.5</ele>
        <time>2020-06-18T08:08:46Z</time>
      </trkpt>
      <trkpt lat="49.75876" lon="0.36377">
        <ele>13.7</ele>
        <time>2020-06-18T08:08:47Z</time>
      </trkpt>
      <trkpt lat="49.75874" lon="0.36382">
        <ele>13.8</ele>
        <time>2020-06-18T08:08:48Z</time>
      </trkpt>
      <trkpt lat="49.75872" lon="0.36388">
        <ele>14</ele>
        <time>2020-06-18T08:08:49Z</time>
      </trkpt>
      <trkpt lat="49.7587" lon="0.36394">
        <ele>14.2</ele>
        <time>2020-06-18T08:08:50Z</time>
      </trkpt>
      <trkpt lat="49.75868" lon="0.36399">
        <ele>14.4</ele>
        <time>2020-06-18T08:08:51Z</time>
      </trkpt>
      <trkpt lat="49.75867" lon="0.36403">
        <ele>14.5</ele>
        <time>2020-06-18T08:08:52Z</time>
      </trkpt>
      <trkpt lat="49.75866" lon="0.36408">
        <ele>14.6</ele>
        <time>2020-06-18T08:08:53Z</time>
      </trkpt>
      <trkpt lat="49.75865" lon="0.36414">
        <ele>14.8</ele>
        <time>2020-06-18T08:08:54Z</time>
      </trkpt>
      <trkpt lat="49.75865" lon="0.36416">
        <ele>14.9</ele>
        <time>2020-06-18T08:08:55Z</time>
      </trkpt>
      <trkpt lat="49.75864" lon="0.36421">
        <ele>15</ele>
        <time>2020-06-18T08:08:56Z</time>
      </trkpt>
      <trkpt lat="49.75864" lon="0.36425">
        <ele>15.2</ele>
        <time>2020-06-18T08:08:57Z</time>
      </trkpt>
      <trkpt lat="49.75864" lon="0.36429">
        <ele>15.3</ele>
        <time>2020-06-18T08:08:58Z</time>
      </trkpt>
      <trkpt lat="49.75864" lon="0.36434">
        <ele>15.5</ele>
        <time>2020-06-18T08:08:59Z</time>
      </trkpt>
      <trkpt lat="49.75864" lon="0.36436">
        <ele>15.5</ele>
        <time>2020-06-18T08:09:00Z</time>
      </trkpt>
      <trkpt lat="49.75864" lon="0.36437">
        <ele>15.5</ele>
        <time>2020-06-18T08:09:01Z</time>
      </trkpt>
      <trkpt lat="49.75865" lon="0.36439">
        <ele>15.6</ele>
        <time>2020-06-18T08:09:02Z</time>
      </trkpt>
      <trkpt lat="49.75865" lon="0.36441">
        <ele>15.7</ele>
        <time>2020-06-18T08:09:03Z</time>
      </trkpt>
      <trkpt lat="49.75866" lon="0.36442">
        <ele>15.7</ele>
        <time>2020-06-18T08:09:04Z</time>
      </trkpt>
      <trkpt lat="49.75866" lon="0.36443">
        <ele>15.8</ele>
        <time>2020-06-18T08:09:05Z</time>
      </trkpt>
      <trkpt lat="49.75865" lon="0.36444">
        <ele>15.8</ele>
        <time>2020-06-18T08:09:06Z</time>
      </trkpt>
      <trkpt lat="49.75866" lon="0.36445">
        <ele>15.8</ele>
        <time>2020-06-18T08:09:07Z</time>
      </trkpt>
      <trkpt lat="49.75866" lon="0.36447">
        <ele>15.9</ele>
        <time>2020-06-18T08:09:08Z</time>
      </trkpt>
      <trkpt lat="49.75865" lon="0.36449">
        <ele>15.9</ele>
        <time>2020-06-18T08:09:09Z</time>
      </trkpt>
      <trkpt lat="49.75865" lon="0.36452">
        <ele>16</ele>
        <time>2020-06-18T08:09:10Z</time>
      </trkpt>
      <trkpt lat="49.75864" lon="0.36456">
        <ele>16.2</ele>
        <time>2020-06-18T08:09:11Z</time>
      </trkpt>
      <trkpt lat="49.75863" lon="0.36461">
        <ele>16.2</ele>
        <time>2020-06-18T08:09:12Z</time>
      </trkpt>
      <trkpt lat="49.75863" lon="0.36462">
        <ele>16.2</ele>
        <time>2020-06-18T08:09:13Z</time>
      </trkpt>
      <trkpt lat="49.75861" lon="0.36466">
        <ele>16.2</ele>
        <time>2020-06-18T08:09:14Z</time>
      </trkpt>
      <trkpt lat="49.7586" lon="0.36472">
        <ele>16.2</ele>
        <time>2020-06-18T08:09:15Z</time>
      </trkpt>
      <trkpt lat="49.75858" lon="0.36476">
        <ele>16.3</ele>
        <time>2020-06-18T08:09:16Z</time>
      </trkpt>
      <trkpt lat="49.75857" lon="0.36481">
        <ele>16.3</ele>
        <time>2020-06-18T08:09:17Z</time>
      </trkpt>
      <trkpt lat="49.75856" lon="0.36488">
        <ele>16.3</ele>
        <time>2020-06-18T08:09:18Z</time>
      </trkpt>
      <trkpt lat="49.75856" lon="0.36494">
        <ele>16.3</ele>
        <time>2020-06-18T08:09:19Z</time>
      </trkpt>
      <trkpt lat="49.75855" lon="0.36496">
        <ele>16.3</ele>
        <time>2020-06-18T08:09:20Z</time>
      </trkpt>
      <trkpt lat="49.75855" lon="0.36501">
        <ele>16.3</ele>
        <time>2020-06-18T08:09:21Z</time>
      </trkpt>
      <trkpt lat="49.75855" lon="0.36507">
        <ele>16.3</ele>
        <time>2020-06-18T08:09:22Z</time>
      </trkpt>
      <trkpt lat="49.75854" lon="0.36514">
        <ele>16.4</ele>
        <time>2020-06-18T08:09:23Z</time>
      </trkpt>
      <trkpt lat="49.75853" lon="0.3652">
        <ele>16.5</ele>
        <time>2020-06-18T08:09:24Z</time>
      </trkpt>
      <trkpt lat="49.75853" lon="0.36527">
        <ele>16.6</ele>
        <time>2020-06-18T08:09:25Z</time>
      </trkpt>
      <trkpt lat="49.75851" lon="0.36532">
        <ele>16.7</ele>
        <time>2020-06-18T08:09:26Z</time>
      </trkpt>
      <trkpt lat="49.75849" lon="0.36538">
        <ele>16.8</ele>
        <time>2020-06-18T08:09:27Z</time>
      </trkpt>
      <trkpt lat="49.75848" lon="0.36543">
        <ele>16.8</ele>
        <time>2020-06-18T08:09:28Z</time>
      </trkpt>
      <trkpt lat="49.75847" lon="0.36547">
        <ele>16.9</ele>
        <time>2020-06-18T08:09:29Z</time>
      </trkpt>
      <trkpt lat="49.75846" lon="0.36553">
        <ele>17</ele>
        <time>2020-06-18T08:09:30Z</time>
      </trkpt>
      <trkpt lat="49.75846" lon="0.36555">
        <ele>17</ele>
        <time>2020-06-18T08:09:31Z</time>
      </trkpt>
      <trkpt lat="49.75845" lon="0.3656">
        <ele>17.1</ele>
        <time>2020-06-18T08:09:32Z</time>
      </trkpt>
      <trkpt lat="49.75844" lon="0.36562">
        <ele>17.1</ele>
        <time>2020-06-18T08:09:33Z</time>
      </trkpt>
      <trkpt lat="49.75843" lon="0.36567">
        <ele>17.2</ele>
        <time>2020-06-18T08:09:34Z</time>
      </trkpt>
      <trkpt lat="49.75843" lon="0.36573">
        <ele>17.3</ele>
        <time>2020-06-18T08:09:35Z</time>
      </trkpt>
      <trkpt lat="49.75842" lon="0.36579">
        <ele>17.4</ele>
        <time>2020-06-18T08:09:36Z</time>
      </trkpt>
      <trkpt lat="49.75842" lon="0.36586">
        <ele>17.5</ele>
        <time>2020-06-18T08:09:37Z</time>
      </trkpt>
      <trkpt lat="49.75841" lon="0.36593">
        <ele>17.5</ele>
        <time>2020-06-18T08:09:38Z</time>
      </trkpt>
      <trkpt lat="49.7584" lon="0.36599">
        <ele>17.6</ele>
        <time>2020-06-18T08:09:39Z</time>
      </trkpt>
      <trkpt lat="49.75839" lon="0.36605">
        <ele>17.7</ele>
        <time>2020-06-18T08:09:40Z</time>
      </trkpt>
      <trkpt lat="49.75839" lon="0.36611">
        <ele>17.7</ele>
        <time>2020-06-18T08:09:41Z</time>
      </trkpt>
      <trkpt lat="49.75838" lon="0.36617">
        <ele>17.8</ele>
        <time>2020-06-18T08:09:42Z</time>
      </trkpt>
      <trkpt lat="49.75836" lon="0.36623">
        <ele>17.9</ele>
        <time>2020-06-18T08:09:43Z</time>
      </trkpt>
      <trkpt lat="49.75835" lon="0.36629">
        <ele>17.9</ele>
        <time>2020-06-18T08:09:44Z</time>
      </trkpt>
      <trkpt lat="49.75834" lon="0.36636">
        <ele>18</ele>
        <time>2020-06-18T08:09:45Z</time>
      </trkpt>
      <trkpt lat="49.75832" lon="0.36642">
        <ele>18</ele>
        <time>2020-06-18T08:09:46Z</time>
      </trkpt>
      <trkpt lat="49.75831" lon="0.36649">
        <ele>18</ele>
        <time>2020-06-18T08:09:47Z</time>
      </trkpt>
      <trkpt lat="49.7583" lon="0.36657">
        <ele>18</ele>
        <time>2020-06-18T08:09:48Z</time>
      </trkpt>
      <trkpt lat="49.7583" lon="0.36665">
        <ele>18.1</ele>
        <time>2020-06-18T08:09:49Z</time>
      </trkpt>
      <trkpt lat="49.75827" lon="0.36671">
        <ele>18.1</ele>
        <time>2020-06-18T08:09:50Z</time>
      </trkpt>
      <trkpt lat="49.75826" lon="0.36677">
        <ele>18.1</ele>
        <time>2020-06-18T08:09:51Z</time>
      </trkpt>
      <trkpt lat="49.75824" lon="0.36683">
        <ele>18.2</ele>
        <time>2020-06-18T08:09:52Z</time>
      </trkpt>
      <trkpt lat="49.75823" lon="0.36689">
        <ele>18.2</ele>
        <time>2020-06-18T08:09:53Z</time>
      </trkpt>
      <trkpt lat="49.75822" lon="0.36694">
        <ele>18.2</ele>
        <time>2020-06-18T08:09:54Z</time>
      </trkpt>
      <trkpt lat="49.75822" lon="0.36701">
        <ele>18.2</ele>
        <time>2020-06-18T08:09:55Z</time>
      </trkpt>
      <trkpt lat="49.75823" lon="0.36707">
        <ele>18.2</ele>
        <time>2020-06-18T08:09:56Z</time>
      </trkpt>
      <trkpt lat="49.75823" lon="0.36712">
        <ele>18.2</ele>
        <time>2020-06-18T08:09:57Z</time>
      </trkpt>
      <trkpt lat="49.75823" lon="0.36717">
        <ele>18.2</ele>
        <time>2020-06-18T08:09:58Z</time>
      </trkpt>
      <trkpt lat="49.75823" lon="0.36724">
        <ele>18.2</ele>
        <time>2020-06-18T08:09:59Z</time>
      </trkpt>
      <trkpt lat="49.75822" lon="0.36731">
        <ele>18.2</ele>
        <time>2020-06-18T08:10:00Z</time>
      </trkpt>
      <trkpt lat="49.75822" lon="0.36738">
        <ele>18.2</ele>
        <time>2020-06-18T08:10:01Z</time>
      </trkpt>
      <trkpt lat="49.75822" lon="0.36744">
        <ele>18.2</ele>
        <time>2020-06-18T08:10:02Z</time>
      </trkpt>
      <trkpt lat="49.75822" lon="0.36751">
        <ele>18.2</ele>
        <time>2020-06-18T08:10:03Z</time>
      </trkpt>
      <trkpt lat="49.75821" lon="0.36758">
        <ele>18.2</ele>
        <time>2020-06-18T08:10:04Z</time>
      </trkpt>
      <trkpt lat="49.7582" lon="0.36764">
        <ele>18.2</ele>
        <time>2020-06-18T08:10:05Z</time>
      </trkpt>
      <trkpt lat="49.7582" lon="0.36771">
        <ele>18.2</ele>
        <time>2020-06-18T08:10:06Z</time>
      </trkpt>
      <trkpt lat="49.7582" lon="0.36777">
        <ele>18.2</ele>
        <time>2020-06-18T08:10:07Z</time>
      </trkpt>
      <trkpt lat="49.7582" lon="0.36784">
        <ele>18.1</ele>
        <time>2020-06-18T08:10:08Z</time>
      </trkpt>
      <trkpt lat="49.75819" lon="0.3679">
        <ele>18.2</ele>
        <time>2020-06-18T08:10:09Z</time>
      </trkpt>
      <trkpt lat="49.7582" lon="0.36795">
        <ele>18.2</ele>
        <time>2020-06-18T08:10:10Z</time>
      </trkpt>
      <trkpt lat="49.7582" lon="0.36801">
        <ele>18.2</ele>
        <time>2020-06-18T08:10:11Z</time>
      </trkpt>
      <trkpt lat="49.7582" lon="0.36806">
        <ele>18.2</ele>
        <time>2020-06-18T08:10:12Z</time>
      </trkpt>
      <trkpt lat="49.7582" lon="0.36811">
        <ele>18.2</ele>
        <time>2020-06-18T08:10:13Z</time>
      </trkpt>
      <trkpt lat="49.75819" lon="0.36815">
        <ele>18.2</ele>
        <time>2020-06-18T08:10:14Z</time>
      </trkpt>
      <trkpt lat="49.75817" lon="0.36819">
        <ele>18.2</ele>
        <time>2020-06-18T08:10:15Z</time>
      </trkpt>
      <trkpt lat="49.75817" lon="0.36823">
        <ele>18.3</ele>
        <time>2020-06-18T08:10:16Z</time>
      </trkpt>
      <trkpt lat="49.75816" lon="0.36828">
        <ele>18.3</ele>
        <time>2020-06-18T08:10:17Z</time>
      </trkpt>
      <trkpt lat="49.75815" lon="0.36833">
        <ele>18.3</ele>
        <time>2020-06-18T08:10:18Z</time>
      </trkpt>
      <trkpt lat="49.75813" lon="0.36839">
        <ele>18.3</ele>
        <time>2020-06-18T08:10:19Z</time>
      </trkpt>
      <trkpt lat="49.75811" lon="0.36845">
        <ele>18.3</ele>
        <time>2020-06-18T08:10:20Z</time>
      </trkpt>
      <trkpt lat="49.75809" lon="0.36852">
        <ele>18.3</ele>
        <time>2020-06-18T08:10:21Z</time>
      </trkpt>
      <trkpt lat="49.75807" lon="0.36857">
        <ele>18.3</ele>
        <time>2020-06-18T08:10:22Z</time>
      </trkpt>
      <trkpt lat="49.75805" lon="0.36864">
        <ele>18.3</ele>
        <time>2020-06-18T08:10:23Z</time>
      </trkpt>
      <trkpt lat="49.75803" lon="0.3687">
        <ele>18.4</ele>
        <time>2020-06-18T08:10:24Z</time>
      </trkpt>
      <trkpt lat="49.75801" lon="0.36877">
        <ele>18.4</ele>
        <time>2020-06-18T08:10:25Z</time>
      </trkpt>
      <trkpt lat="49.758" lon="0.36882">
        <ele>18.5</ele>
        <time>2020-06-18T08:10:26Z</time>
      </trkpt>
      <trkpt lat="49.75798" lon="0.36888">
        <ele>18.5</ele>
        <time>2020-06-18T08:10:27Z</time>
      </trkpt>
      <trkpt lat="49.75796" lon="0.36894">
        <ele>18.6</ele>
        <time>2020-06-18T08:10:28Z</time>
      </trkpt>
      <trkpt lat="49.75795" lon="0.36902">
        <ele>18.6</ele>
        <time>2020-06-18T08:10:29Z</time>
      </trkpt>
      <trkpt lat="49.75794" lon="0.36908">
        <ele>18.7</ele>
        <time>2020-06-18T08:10:30Z</time>
      </trkpt>
      <trkpt lat="49.75793" lon="0.36913">
        <ele>18.7</ele>
        <time>2020-06-18T08:10:31Z</time>
      </trkpt>
      <trkpt lat="49.75792" lon="0.36919">
        <ele>18.8</ele>
        <time>2020-06-18T08:10:32Z</time>
      </trkpt>
      <trkpt lat="49.75792" lon="0.36926">
        <ele>18.8</ele>
        <time>2020-06-18T08:10:33Z</time>
      </trkpt>
      <trkpt lat="49.75792" lon="0.36932">
        <ele>18.9</ele>
        <time>2020-06-18T08:10:34Z</time>
      </trkpt>
      <trkpt lat="49.75791" lon="0.36938">
        <ele>18.9</ele>
        <time>2020-06-18T08:10:35Z</time>
      </trkpt>
      <trkpt lat="49.7579" lon="0.36946">
        <ele>19</ele>
        <time>2020-06-18T08:10:36Z</time>
      </trkpt>
      <trkpt lat="49.7579" lon="0.36953">
        <ele>19.1</ele>
        <time>2020-06-18T08:10:37Z</time>
      </trkpt>
      <trkpt lat="49.75788" lon="0.36959">
        <ele>19.1</ele>
        <time>2020-06-18T08:10:38Z</time>
      </trkpt>
      <trkpt lat="49.75786" lon="0.36966">
        <ele>19.2</ele>
        <time>2020-06-18T08:10:39Z</time>
      </trkpt>
      <trkpt lat="49.75785" lon="0.36973">
        <ele>19.3</ele>
        <time>2020-06-18T08:10:40Z</time>
      </trkpt>
      <trkpt lat="49.75783" lon="0.36979">
        <ele>19.3</ele>
        <time>2020-06-18T08:10:41Z</time>
      </trkpt>
      <trkpt lat="49.75781" lon="0.36984">
        <ele>19.4</ele>
        <time>2020-06-18T08:10:42Z</time>
      </trkpt>
      <trkpt lat="49.7578" lon="0.36991">
        <ele>19.5</ele>
        <time>2020-06-18T08:10:43Z</time>
      </trkpt>
      <trkpt lat="49.75779" lon="0.36998">
        <ele>19.6</ele>
        <time>2020-06-18T08:10:44Z</time>
      </trkpt>
      <trkpt lat="49.75777" lon="0.37005">
        <ele>19.6</ele>
        <time>2020-06-18T08:10:45Z</time>
      </trkpt>
      <trkpt lat="49.75776" lon="0.37012">
        <ele>19.7</ele>
        <time>2020-06-18T08:10:46Z</time>
      </trkpt>
      <trkpt lat="49.75775" lon="0.37018">
        <ele>19.8</ele>
        <time>2020-06-18T08:10:47Z</time>
      </trkpt>
      <trkpt lat="49.75774" lon="0.37026">
        <ele>19.8</ele>
        <time>2020-06-18T08:10:48Z</time>
      </trkpt>
      <trkpt lat="49.75772" lon="0.37034">
        <ele>19.9</ele>
        <time>2020-06-18T08:10:49Z</time>
      </trkpt>
      <trkpt lat="49.75771" lon="0.3704">
        <ele>19.9</ele>
        <time>2020-06-18T08:10:50Z</time>
      </trkpt>
      <trkpt lat="49.75769" lon="0.37045">
        <ele>19.9</ele>
        <time>2020-06-18T08:10:51Z</time>
      </trkpt>
      <trkpt lat="49.75767" lon="0.37051">
        <ele>19.9</ele>
        <time>2020-06-18T08:10:52Z</time>
      </trkpt>
      <trkpt lat="49.75767" lon="0.37053">
        <ele>19.9</ele>
        <time>2020-06-18T08:10:53Z</time>
      </trkpt>
      <trkpt lat="49.75766" lon="0.37058">
        <ele>20</ele>
        <time>2020-06-18T08:10:54Z</time>
      </trkpt>
      <trkpt lat="49.75765" lon="0.37064">
        <ele>20</ele>
        <time>2020-06-18T08:10:55Z</time>
      </trkpt>
      <trkpt lat="49.75764" lon="0.37071">
        <ele>20.1</ele>
        <time>2020-06-18T08:10:56Z</time>
      </trkpt>
      <trkpt lat="49.75762" lon="0.37078">
        <ele>20.1</ele>
        <time>2020-06-18T08:10:57Z</time>
      </trkpt>
      <trkpt lat="49.75761" lon="0.37086">
        <ele>20.2</ele>
        <time>2020-06-18T08:10:58Z</time>
      </trkpt>
      <trkpt lat="49.75761" lon="0.37092">
        <ele>20.2</ele>
        <time>2020-06-18T08:10:59Z</time>
      </trkpt>
      <trkpt lat="49.75758" lon="0.37098">
        <ele>20.2</ele>
        <time>2020-06-18T08:11:00Z</time>
      </trkpt>
      <trkpt lat="49.75757" lon="0.37105">
        <ele>20.3</ele>
        <time>2020-06-18T08:11:01Z</time>
      </trkpt>
      <trkpt lat="49.75755" lon="0.37112">
        <ele>20.3</ele>
        <time>2020-06-18T08:11:02Z</time>
      </trkpt>
      <trkpt lat="49.75753" lon="0.37118">
        <ele>20.4</ele>
        <time>2020-06-18T08:11:03Z</time>
      </trkpt>
      <trkpt lat="49.75751" lon="0.37126">
        <ele>20.4</ele>
        <time>2020-06-18T08:11:04Z</time>
      </trkpt>
      <trkpt lat="49.75748" lon="0.37132">
        <ele>20.4</ele>
        <time>2020-06-18T08:11:05Z</time>
      </trkpt>
      <trkpt lat="49.75745" lon="0.37139">
        <ele>20.5</ele>
        <time>2020-06-18T08:11:06Z</time>
      </trkpt>
      <trkpt lat="49.75743" lon="0.37146">
        <ele>20.6</ele>
        <time>2020-06-18T08:11:07Z</time>
      </trkpt>
      <trkpt lat="49.75742" lon="0.37154">
        <ele>20.6</ele>
        <time>2020-06-18T08:11:08Z</time>
      </trkpt>
      <trkpt lat="49.7574" lon="0.37163">
        <ele>20.7</ele>
        <time>2020-06-18T08:11:09Z</time>
      </trkpt>
      <trkpt lat="49.75739" lon="0.3717">
        <ele>20.7</ele>
        <time>2020-06-18T08:11:10Z</time>
      </trkpt>
      <trkpt lat="49.75738" lon="0.37176">
        <ele>20.8</ele>
        <time>2020-06-18T08:11:11Z</time>
      </trkpt>
      <trkpt lat="49.75736" lon="0.37182">
        <ele>20.8</ele>
        <time>2020-06-18T08:11:12Z</time>
      </trkpt>
      <trkpt lat="49.75735" lon="0.37188">
        <ele>20.8</ele>
        <time>2020-06-18T08:11:13Z</time>
      </trkpt>
      <trkpt lat="49.75734" lon="0.37195">
        <ele>20.9</ele>
        <time>2020-06-18T08:11:14Z</time>
      </trkpt>
      <trkpt lat="49.75732" lon="0.37201">
        <ele>20.9</ele>
        <time>2020-06-18T08:11:15Z</time>
      </trkpt>
      <trkpt lat="49.75732" lon="0.37207">
        <ele>20.9</ele>
        <time>2020-06-18T08:11:16Z</time>
      </trkpt>
      <trkpt lat="49.75733" lon="0.37215">
        <ele>21</ele>
        <time>2020-06-18T08:11:17Z</time>
      </trkpt>
      <trkpt lat="49.75732" lon="0.37223">
        <ele>21</ele>
        <time>2020-06-18T08:11:18Z</time>
      </trkpt>
      <trkpt lat="49.75731" lon="0.37231">
        <ele>21.1</ele>
        <time>2020-06-18T08:11:19Z</time>
      </trkpt>
      <trkpt lat="49.75728" lon="0.37237">
        <ele>21.1</ele>
        <time>2020-06-18T08:11:20Z</time>
      </trkpt>
      <trkpt lat="49.75727" lon="0.37245">
        <ele>21.2</ele>
        <time>2020-06-18T08:11:21Z</time>
      </trkpt>
      <trkpt lat="49.75723" lon="0.37252">
        <ele>21.2</ele>
        <time>2020-06-18T08:11:22Z</time>
      </trkpt>
      <trkpt lat="49.75722" lon="0.3726">
        <ele>21.3</ele>
        <time>2020-06-18T08:11:23Z</time>
      </trkpt>
      <trkpt lat="49.75721" lon="0.37268">
        <ele>21.3</ele>
        <time>2020-06-18T08:11:24Z</time>
      </trkpt>
      <trkpt lat="49.75719" lon="0.37275">
        <ele>21.4</ele>
        <time>2020-06-18T08:11:25Z</time>
      </trkpt>
      <trkpt lat="49.75716" lon="0.37281">
        <ele>21.4</ele>
        <time>2020-06-18T08:11:26Z</time>
      </trkpt>
      <trkpt lat="49.75713" lon="0.37288">
        <ele>21.4</ele>
        <time>2020-06-18T08:11:27Z</time>
      </trkpt>
      <trkpt lat="49.7571" lon="0.37295">
        <ele>21.4</ele>
        <time>2020-06-18T08:11:28Z</time>
      </trkpt>
      <trkpt lat="49.75708" lon="0.373">
        <ele>21.4</ele>
        <time>2020-06-18T08:11:29Z</time>
      </trkpt>
      <trkpt lat="49.75705" lon="0.37305">
        <ele>21.4</ele>
        <time>2020-06-18T08:11:30Z</time>
      </trkpt>
      <trkpt lat="49.75703" lon="0.3731">
        <ele>21.4</ele>
        <time>2020-06-18T08:11:31Z</time>
      </trkpt>
      <trkpt lat="49.75702" lon="0.37317">
        <ele>21.4</ele>
        <time>2020-06-18T08:11:32Z</time>
      </trkpt>
      <trkpt lat="49.75702" lon="0.37323">
        <ele>21.4</ele>
        <time>2020-06-18T08:11:33Z</time>
      </trkpt>
      <trkpt lat="49.757" lon="0.37329">
        <ele>21.4</ele>
        <time>2020-06-18T08:11:34Z</time>
      </trkpt>
      <trkpt lat="49.757" lon="0.37335">
        <ele>21.4</ele>
        <time>2020-06-18T08:11:35Z</time>
      </trkpt>
      <trkpt lat="49.75699" lon="0.37342">
        <ele>21.4</ele>
        <time>2020-06-18T08:11:36Z</time>
      </trkpt>
      <trkpt lat="49.75698" lon="0.37349">
        <ele>21.5</ele>
        <time>2020-06-18T08:11:37Z</time>
      </trkpt>
      <trkpt lat="49.75698" lon="0.37357">
        <ele>21.5</ele>
        <time>2020-06-18T08:11:38Z</time>
      </trkpt>
      <trkpt lat="49.75698" lon="0.37364">
        <ele>21.5</ele>
        <time>2020-06-18T08:11:39Z</time>
      </trkpt>
      <trkpt lat="49.75696" lon="0.3737">
        <ele>21.5</ele>
        <time>2020-06-18T08:11:40Z</time>
      </trkpt>
      <trkpt lat="49.75695" lon="0.37375">
        <ele>21.5</ele>
        <time>2020-06-18T08:11:41Z</time>
      </trkpt>
      <trkpt lat="49.75694" lon="0.37379">
        <ele>21.5</ele>
        <time>2020-06-18T08:11:42Z</time>
      </trkpt>
      <trkpt lat="49.75693" lon="0.37385">
        <ele>21.5</ele>
        <time>2020-06-18T08:11:43Z</time>
      </trkpt>
      <trkpt lat="49.75692" lon="0.37391">
        <ele>21.5</ele>
        <time>2020-06-18T08:11:44Z</time>
      </trkpt>
      <trkpt lat="49.75691" lon="0.37397">
        <ele>21.4</ele>
        <time>2020-06-18T08:11:45Z</time>
      </trkpt>
      <trkpt lat="49.7569" lon="0.37405">
        <ele>21.4</ele>
        <time>2020-06-18T08:11:46Z</time>
      </trkpt>
      <trkpt lat="49.75689" lon="0.37411">
        <ele>21.3</ele>
        <time>2020-06-18T08:11:47Z</time>
      </trkpt>
      <trkpt lat="49.75686" lon="0.37416">
        <ele>21.3</ele>
        <time>2020-06-18T08:11:48Z</time>
      </trkpt>
      <trkpt lat="49.75684" lon="0.37424">
        <ele>21.3</ele>
        <time>2020-06-18T08:11:49Z</time>
      </trkpt>
      <trkpt lat="49.75681" lon="0.37431">
        <ele>21.2</ele>
        <time>2020-06-18T08:11:50Z</time>
      </trkpt>
      <trkpt lat="49.75678" lon="0.37437">
        <ele>21.1</ele>
        <time>2020-06-18T08:11:51Z</time>
      </trkpt>
      <trkpt lat="49.75675" lon="0.37444">
        <ele>21.1</ele>
        <time>2020-06-18T08:11:52Z</time>
      </trkpt>
      <trkpt lat="49.75674" lon="0.37451">
        <ele>21.1</ele>
        <time>2020-06-18T08:11:53Z</time>
      </trkpt>
      <trkpt lat="49.75673" lon="0.37457">
        <ele>21</ele>
        <time>2020-06-18T08:11:54Z</time>
      </trkpt>
      <trkpt lat="49.75671" lon="0.37464">
        <ele>21.1</ele>
        <time>2020-06-18T08:11:55Z</time>
      </trkpt>
      <trkpt lat="49.7567" lon="0.37471">
        <ele>21.1</ele>
        <time>2020-06-18T08:11:56Z</time>
      </trkpt>
      <trkpt lat="49.75668" lon="0.37477">
        <ele>21.1</ele>
        <time>2020-06-18T08:11:57Z</time>
      </trkpt>
      <trkpt lat="49.75666" lon="0.37483">
        <ele>21.2</ele>
        <time>2020-06-18T08:11:58Z</time>
      </trkpt>
      <trkpt lat="49.75663" lon="0.37487">
        <ele>21.2</ele>
        <time>2020-06-18T08:11:59Z</time>
      </trkpt>
      <trkpt lat="49.75661" lon="0.37492">
        <ele>21.2</ele>
        <time>2020-06-18T08:12:00Z</time>
      </trkpt>
      <trkpt lat="49.7566" lon="0.37499">
        <ele>21.3</ele>
        <time>2020-06-18T08:12:01Z</time>
      </trkpt>
      <trkpt lat="49.75657" lon="0.37504">
        <ele>21.3</ele>
        <time>2020-06-18T08:12:02Z</time>
      </trkpt>
      <trkpt lat="49.75657" lon="0.37509">
        <ele>21.3</ele>
        <time>2020-06-18T08:12:03Z</time>
      </trkpt>
      <trkpt lat="49.75657" lon="0.37512">
        <ele>21.4</ele>
        <time>2020-06-18T08:12:04Z</time>
      </trkpt>
      <trkpt lat="49.75657" lon="0.37516">
        <ele>21.4</ele>
        <time>2020-06-18T08:12:05Z</time>
      </trkpt>
      <trkpt lat="49.75658" lon="0.37521">
        <ele>21.4</ele>
        <time>2020-06-18T08:12:06Z</time>
      </trkpt>
      <trkpt lat="49.75657" lon="0.37526">
        <ele>21.4</ele>
        <time>2020-06-18T08:12:07Z</time>
      </trkpt>
      <trkpt lat="49.75656" lon="0.37528">
        <ele>21.4</ele>
        <time>2020-06-18T08:12:08Z</time>
      </trkpt>
      <trkpt lat="49.75654" lon="0.37532">
        <ele>21.5</ele>
        <time>2020-06-18T08:12:09Z</time>
      </trkpt>
      <trkpt lat="49.75652" lon="0.37534">
        <ele>21.5</ele>
        <time>2020-06-18T08:12:10Z</time>
      </trkpt>
      <trkpt lat="49.75651" lon="0.37538">
        <ele>21.5</ele>
        <time>2020-06-18T08:12:11Z</time>
      </trkpt>
      <trkpt lat="49.7565" lon="0.3754">
        <ele>21.5</ele>
        <time>2020-06-18T08:12:12Z</time>
      </trkpt>
      <trkpt lat="49.7565" lon="0.37542">
        <ele>21.5</ele>
        <time>2020-06-18T08:12:13Z</time>
      </trkpt>
      <trkpt lat="49.75648" lon="0.37542">
        <ele>21.5</ele>
        <time>2020-06-18T08:12:14Z</time>
      </trkpt>
      <trkpt lat="49.75646" lon="0.3754">
        <ele>21.5</ele>
        <time>2020-06-18T08:12:15Z</time>
      </trkpt>
      <trkpt lat="49.75643" lon="0.3754">
        <ele>21.9</ele>
        <time>2020-06-18T08:12:16Z</time>
      </trkpt>
      <trkpt lat="49.75642" lon="0.37539">
        <ele>22</ele>
        <time>2020-06-18T08:12:17Z</time>
      </trkpt>
      <trkpt lat="49.7564" lon="0.37538">
        <ele>22</ele>
        <time>2020-06-18T08:12:18Z</time>
      </trkpt>
      <trkpt lat="49.75638" lon="0.37538">
        <ele>22.1</ele>
        <time>2020-06-18T08:12:19Z</time>
      </trkpt>
      <trkpt lat="49.75635" lon="0.37535">
        <ele>22.3</ele>
        <time>2020-06-18T08:12:20Z</time>
      </trkpt>
      <trkpt lat="49.75634" lon="0.37534">
        <ele>22.4</ele>
        <time>2020-06-18T08:12:21Z</time>
      </trkpt>
      <trkpt lat="49.75631" lon="0.37531">
        <ele>22.5</ele>
        <time>2020-06-18T08:12:22Z</time>
      </trkpt>
      <trkpt lat="49.75628" lon="0.37529">
        <ele>22.7</ele>
        <time>2020-06-18T08:12:23Z</time>
      </trkpt>
      <trkpt lat="49.75625" lon="0.37526">
        <ele>22.8</ele>
        <time>2020-06-18T08:12:24Z</time>
      </trkpt>
      <trkpt lat="49.75623" lon="0.37525">
        <ele>22.9</ele>
        <time>2020-06-18T08:12:25Z</time>
      </trkpt>
      <trkpt lat="49.7562" lon="0.37521">
        <ele>23.1</ele>
        <time>2020-06-18T08:12:26Z</time>
      </trkpt>
      <trkpt lat="49.75619" lon="0.3752">
        <ele>23.1</ele>
        <time>2020-06-18T08:12:27Z</time>
      </trkpt>
      <trkpt lat="49.75616" lon="0.37516">
        <ele>23.2</ele>
        <time>2020-06-18T08:12:28Z</time>
      </trkpt>
      <trkpt lat="49.75613" lon="0.37513">
        <ele>23.4</ele>
        <time>2020-06-18T08:12:29Z</time>
      </trkpt>
      <trkpt lat="49.7561" lon="0.37509">
        <ele>23.5</ele>
        <time>2020-06-18T08:12:30Z</time>
      </trkpt>
      <trkpt lat="49.75608" lon="0.37508">
        <ele>23.6</ele>
        <time>2020-06-18T08:12:31Z</time>
      </trkpt>
      <trkpt lat="49.75604" lon="0.37505">
        <ele>23.8</ele>
        <time>2020-06-18T08:12:32Z</time>
      </trkpt>
      <trkpt lat="49.75603" lon="0.37504">
        <ele>23.8</ele>
        <time>2020-06-18T08:12:33Z</time>
      </trkpt>
      <trkpt lat="49.75599" lon="0.375">
        <ele>24</ele>
        <time>2020-06-18T08:12:34Z</time>
      </trkpt>
      <trkpt lat="49.75595" lon="0.37496">
        <ele>24.2</ele>
        <time>2020-06-18T08:12:35Z</time>
      </trkpt>
      <trkpt lat="49.7559" lon="0.37493">
        <ele>24.4</ele>
        <time>2020-06-18T08:12:36Z</time>
      </trkpt>
      <trkpt lat="49.75587" lon="0.37489">
        <ele>24.6</ele>
        <time>2020-06-18T08:12:37Z</time>
      </trkpt>
      <trkpt lat="49.75583" lon="0.37485">
        <ele>24.8</ele>
        <time>2020-06-18T08:12:38Z</time>
      </trkpt>
      <trkpt lat="49.75581" lon="0.37482">
        <ele>24.9</ele>
        <time>2020-06-18T08:12:39Z</time>
      </trkpt>
      <trkpt lat="49.75579" lon="0.37479">
        <ele>25</ele>
        <time>2020-06-18T08:12:40Z</time>
      </trkpt>
      <trkpt lat="49.75575" lon="0.37476">
        <ele>25.2</ele>
        <time>2020-06-18T08:12:41Z</time>
      </trkpt>
      <trkpt lat="49.75573" lon="0.37472">
        <ele>25.4</ele>
        <time>2020-06-18T08:12:42Z</time>
      </trkpt>
      <trkpt lat="49.75571" lon="0.37469">
        <ele>25.5</ele>
        <time>2020-06-18T08:12:43Z</time>
      </trkpt>
      <trkpt lat="49.75569" lon="0.37466">
        <ele>25.6</ele>
        <time>2020-06-18T08:12:44Z</time>
      </trkpt>
      <trkpt lat="49.75567" lon="0.37463">
        <ele>25.8</ele>
        <time>2020-06-18T08:12:45Z</time>
      </trkpt>
      <trkpt lat="49.75564" lon="0.37459">
        <ele>25.9</ele>
        <time>2020-06-18T08:12:46Z</time>
      </trkpt>
      <trkpt lat="49.75562" lon="0.37455">
        <ele>26.1</ele>
        <time>2020-06-18T08:12:47Z</time>
      </trkpt>
      <trkpt lat="49.75559" lon="0.3745">
        <ele>26.3</ele>
        <time>2020-06-18T08:12:48Z</time>
      </trkpt>
      <trkpt lat="49.75555" lon="0.37445">
        <ele>26.6</ele>
        <time>2020-06-18T08:12:49Z</time>
      </trkpt>
      <trkpt lat="49.75551" lon="0.37441">
        <ele>26.8</ele>
        <time>2020-06-18T08:12:50Z</time>
      </trkpt>
      <trkpt lat="49.75547" lon="0.37437">
        <ele>27</ele>
        <time>2020-06-18T08:12:51Z</time>
      </trkpt>
      <trkpt lat="49.75545" lon="0.37431">
        <ele>27.2</ele>
        <time>2020-06-18T08:12:52Z</time>
      </trkpt>
      <trkpt lat="49.75543" lon="0.37427">
        <ele>27.3</ele>
        <time>2020-06-18T08:12:53Z</time>
      </trkpt>
      <trkpt lat="49.7554" lon="0.37424">
        <ele>27.4</ele>
        <time>2020-06-18T08:12:54Z</time>
      </trkpt>
      <trkpt lat="49.75537" lon="0.37421">
        <ele>27.6</ele>
        <time>2020-06-18T08:12:55Z</time>
      </trkpt>
      <trkpt lat="49.75533" lon="0.37418">
        <ele>27.8</ele>
        <time>2020-06-18T08:12:56Z</time>
      </trkpt>
      <trkpt lat="49.75529" lon="0.37416">
        <ele>27.9</ele>
        <time>2020-06-18T08:12:57Z</time>
      </trkpt>
      <trkpt lat="49.75525" lon="0.37412">
        <ele>28.1</ele>
        <time>2020-06-18T08:12:58Z</time>
      </trkpt>
      <trkpt lat="49.75521" lon="0.37407">
        <ele>28.3</ele>
        <time>2020-06-18T08:12:59Z</time>
      </trkpt>
      <trkpt lat="49.75516" lon="0.37402">
        <ele>28.6</ele>
        <time>2020-06-18T08:13:00Z</time>
      </trkpt>
      <trkpt lat="49.75512" lon="0.37397">
        <ele>28.8</ele>
        <time>2020-06-18T08:13:01Z</time>
      </trkpt>
      <trkpt lat="49.75507" lon="0.37394">
        <ele>29.1</ele>
        <time>2020-06-18T08:13:02Z</time>
      </trkpt>
      <trkpt lat="49.75505" lon="0.37392">
        <ele>29.2</ele>
        <time>2020-06-18T08:13:03Z</time>
      </trkpt>
      <trkpt lat="49.75503" lon="0.37388">
        <ele>29.4</ele>
        <time>2020-06-18T08:13:04Z</time>
      </trkpt>
      <trkpt lat="49.75501" lon="0.37386">
        <ele>29.4</ele>
        <time>2020-06-18T08:13:05Z</time>
      </trkpt>
      <trkpt lat="49.75497" lon="0.37382">
        <ele>29.7</ele>
        <time>2020-06-18T08:13:06Z</time>
      </trkpt>
      <trkpt lat="49.75494" lon="0.37378">
        <ele>29.9</ele>
        <time>2020-06-18T08:13:07Z</time>
      </trkpt>
      <trkpt lat="49.7549" lon="0.37375">
        <ele>30.1</ele>
        <time>2020-06-18T08:13:08Z</time>
      </trkpt>
      <trkpt lat="49.75487" lon="0.37372">
        <ele>30.2</ele>
        <time>2020-06-18T08:13:09Z</time>
      </trkpt>
      <trkpt lat="49.75484" lon="0.37369">
        <ele>30.4</ele>
        <time>2020-06-18T08:13:10Z</time>
      </trkpt>
      <trkpt lat="49.75481" lon="0.37367">
        <ele>30.6</ele>
        <time>2020-06-18T08:13:11Z</time>
      </trkpt>
      <trkpt lat="49.75478" lon="0.37363">
        <ele>30.7</ele>
        <time>2020-06-18T08:13:12Z</time>
      </trkpt>
      <trkpt lat="49.75477" lon="0.37362">
        <ele>30.8</ele>
        <time>2020-06-18T08:13:13Z</time>
      </trkpt>
      <trkpt lat="49.75474" lon="0.3736">
        <ele>30.9</ele>
        <time>2020-06-18T08:13:14Z</time>
      </trkpt>
      <trkpt lat="49.75473" lon="0.37359">
        <ele>31</ele>
        <time>2020-06-18T08:13:15Z</time>
      </trkpt>
      <trkpt lat="49.7547" lon="0.37356">
        <ele>31.1</ele>
        <time>2020-06-18T08:13:16Z</time>
      </trkpt>
      <trkpt lat="49.75469" lon="0.37355">
        <ele>31.2</ele>
        <time>2020-06-18T08:13:17Z</time>
      </trkpt>
      <trkpt lat="49.75466" lon="0.37353">
        <ele>31.4</ele>
        <time>2020-06-18T08:13:18Z</time>
      </trkpt>
      <trkpt lat="49.75463" lon="0.3735">
        <ele>31.6</ele>
        <time>2020-06-18T08:13:19Z</time>
      </trkpt>
      <trkpt lat="49.7546" lon="0.37348">
        <ele>31.7</ele>
        <time>2020-06-18T08:13:20Z</time>
      </trkpt>
      <trkpt lat="49.75457" lon="0.37344">
        <ele>31.9</ele>
        <time>2020-06-18T08:13:21Z</time>
      </trkpt>
      <trkpt lat="49.75454" lon="0.3734">
        <ele>32.1</ele>
        <time>2020-06-18T08:13:22Z</time>
      </trkpt>
      <trkpt lat="49.75452" lon="0.37335">
        <ele>32.2</ele>
        <time>2020-06-18T08:13:23Z</time>
      </trkpt>
      <trkpt lat="49.7545" lon="0.37331">
        <ele>32.4</ele>
        <time>2020-06-18T08:13:24Z</time>
      </trkpt>
      <trkpt lat="49.75447" lon="0.37326">
        <ele>32.5</ele>
        <time>2020-06-18T08:13:25Z</time>
      </trkpt>
      <trkpt lat="49.75445" lon="0.37323">
        <ele>32.6</ele>
        <time>2020-06-18T08:13:26Z</time>
      </trkpt>
      <trkpt lat="49.75442" lon="0.3732">
        <ele>32.8</ele>
        <time>2020-06-18T08:13:27Z</time>
      </trkpt>
      <trkpt lat="49.75441" lon="0.37319">
        <ele>32.8</ele>
        <time>2020-06-18T08:13:28Z</time>
      </trkpt>
      <trkpt lat="49.75438" lon="0.37316">
        <ele>32.9</ele>
        <time>2020-06-18T08:13:29Z</time>
      </trkpt>
      <trkpt lat="49.75436" lon="0.37312">
        <ele>33</ele>
        <time>2020-06-18T08:13:30Z</time>
      </trkpt>
      <trkpt lat="49.75436" lon="0.37311">
        <ele>33.1</ele>
        <time>2020-06-18T08:13:31Z</time>
      </trkpt>
      <trkpt lat="49.75434" lon="0.3731">
        <ele>33.2</ele>
        <time>2020-06-18T08:13:32Z</time>
      </trkpt>
      <trkpt lat="49.75433" lon="0.37309">
        <ele>33.2</ele>
        <time>2020-06-18T08:13:33Z</time>
      </trkpt>
      <trkpt lat="49.75432" lon="0.37307">
        <ele>33.3</ele>
        <time>2020-06-18T08:13:34Z</time>
      </trkpt>
      <trkpt lat="49.75433" lon="0.37307">
        <ele>33.3</ele>
        <time>2020-06-18T08:13:35Z</time>
      </trkpt>
      <trkpt lat="49.75432" lon="0.37307">
        <ele>33.3</ele>
        <time>2020-06-18T08:13:36Z</time>
      </trkpt>
      <trkpt lat="49.75433" lon="0.37307">
        <ele>33.3</ele>
        <time>2020-06-18T08:13:37Z</time>
      </trkpt>
      <trkpt lat="49.75433" lon="0.37307">
        <ele>33.3</ele>
        <time>2020-06-18T08:13:38Z</time>
      </trkpt>
      <trkpt lat="49.75433" lon="0.37307">
        <ele>33.3</ele>
        <time>2020-06-18T08:13:39Z</time>
      </trkpt>
      <trkpt lat="49.75433" lon="0.37306">
        <ele>33.4</ele>
        <time>2020-06-18T08:13:40Z</time>
      </trkpt>
      <trkpt lat="49.75433" lon="0.37306">
        <ele>33.4</ele>
        <time>2020-06-18T08:13:41Z</time>
      </trkpt>
      <trkpt lat="49.75434" lon="0.37306">
        <ele>33.4</ele>
        <time>2020-06-18T08:13:42Z</time>
      </trkpt>
      <trkpt lat="49.75433" lon="0.37306">
        <ele>33.4</ele>
        <time>2020-06-18T08:13:43Z</time>
      </trkpt>
      <trkpt lat="49.75433" lon="0.37305">
        <ele>33.4</ele>
        <time>2020-06-18T08:13:44Z</time>
      </trkpt>
      <trkpt lat="49.75428" lon="0.373">
        <ele>33.6</ele>
        <time>2020-06-18T08:13:56Z</time>
      </trkpt>
      <trkpt lat="49.75427" lon="0.37299">
        <ele>33.6</ele>
        <time>2020-06-18T08:13:57Z</time>
      </trkpt>
      <trkpt lat="49.75426" lon="0.37299">
        <ele>33.6</ele>
        <time>2020-06-18T08:13:58Z</time>
      </trkpt>
      <trkpt lat="49.75425" lon="0.37297">
        <ele>33.7</ele>
        <time>2020-06-18T08:13:59Z</time>
      </trkpt>
      <trkpt lat="49.75424" lon="0.37296">
        <ele>33.7</ele>
        <time>2020-06-18T08:14:00Z</time>
      </trkpt>
      <trkpt lat="49.75423" lon="0.37295">
        <ele>33.8</ele>
        <time>2020-06-18T08:14:01Z</time>
      </trkpt>
      <trkpt lat="49.75421" lon="0.37295">
        <ele>33.8</ele>
        <time>2020-06-18T08:14:02Z</time>
      </trkpt>
      <trkpt lat="49.7542" lon="0.37294">
        <ele>33.8</ele>
        <time>2020-06-18T08:14:03Z</time>
      </trkpt>
      <trkpt lat="49.7542" lon="0.37294">
        <ele>33.8</ele>
        <time>2020-06-18T08:14:04Z</time>
      </trkpt>
      <trkpt lat="49.7542" lon="0.37293">
        <ele>33.8</ele>
        <time>2020-06-18T08:14:05Z</time>
      </trkpt>
      <trkpt lat="49.7542" lon="0.37292">
        <ele>33.8</ele>
        <time>2020-06-18T08:14:06Z</time>
      </trkpt>
      <trkpt lat="49.75419" lon="0.37292">
        <ele>33.8</ele>
        <time>2020-06-18T08:14:07Z</time>
      </trkpt>
      <trkpt lat="49.75419" lon="0.37292">
        <ele>33.8</ele>
        <time>2020-06-18T08:14:08Z</time>
      </trkpt>
      <trkpt lat="49.75418" lon="0.37292">
        <ele>33.8</ele>
        <time>2020-06-18T08:14:09Z</time>
      </trkpt>
      <trkpt lat="49.75417" lon="0.37292">
        <ele>33.8</ele>
        <time>2020-06-18T08:14:10Z</time>
      </trkpt>
      <trkpt lat="49.75416" lon="0.37292">
        <ele>33.8</ele>
        <time>2020-06-18T08:14:11Z</time>
      </trkpt>
      <trkpt lat="49.75416" lon="0.37294">
        <ele>33.8</ele>
        <time>2020-06-18T08:14:12Z</time>
      </trkpt>
      <trkpt lat="49.75415" lon="0.37295">
        <ele>33.8</ele>
        <time>2020-06-18T08:14:13Z</time>
      </trkpt>
      <trkpt lat="49.75414" lon="0.373">
        <ele>33.9</ele>
        <time>2020-06-18T08:14:14Z</time>
      </trkpt>
      <trkpt lat="49.75414" lon="0.37301">
        <ele>33.9</ele>
        <time>2020-06-18T08:14:15Z</time>
      </trkpt>
      <trkpt lat="49.75411" lon="0.37304">
        <ele>33.9</ele>
        <time>2020-06-18T08:14:16Z</time>
      </trkpt>
      <trkpt lat="49.7541" lon="0.37304">
        <ele>33.9</ele>
        <time>2020-06-18T08:14:17Z</time>
      </trkpt>
      <trkpt lat="49.75407" lon="0.37304">
        <ele>33.8</ele>
        <time>2020-06-18T08:14:18Z</time>
      </trkpt>
      <trkpt lat="49.75403" lon="0.37304">
        <ele>33.8</ele>
        <time>2020-06-18T08:14:19Z</time>
      </trkpt>
      <trkpt lat="49.75398" lon="0.37303">
        <ele>33.7</ele>
        <time>2020-06-18T08:14:20Z</time>
      </trkpt>
      <trkpt lat="49.75393" lon="0.37301">
        <ele>33.6</ele>
        <time>2020-06-18T08:14:21Z</time>
      </trkpt>
      <trkpt lat="49.75389" lon="0.37298">
        <ele>33.5</ele>
        <time>2020-06-18T08:14:22Z</time>
      </trkpt>
      <trkpt lat="49.75385" lon="0.37297">
        <ele>33.4</ele>
        <time>2020-06-18T08:14:23Z</time>
      </trkpt>
      <trkpt lat="49.75381" lon="0.37297">
        <ele>33.3</ele>
        <time>2020-06-18T08:14:24Z</time>
      </trkpt>
      <trkpt lat="49.75378" lon="0.37297">
        <ele>33.2</ele>
        <time>2020-06-18T08:14:25Z</time>
      </trkpt>
      <trkpt lat="49.75375" lon="0.37296">
        <ele>33.1</ele>
        <time>2020-06-18T08:14:26Z</time>
      </trkpt>
      <trkpt lat="49.75374" lon="0.37296">
        <ele>33.1</ele>
        <time>2020-06-18T08:14:27Z</time>
      </trkpt>
      <trkpt lat="49.75373" lon="0.37293">
        <ele>33</ele>
        <time>2020-06-18T08:14:28Z</time>
      </trkpt>
      <trkpt lat="49.75373" lon="0.37294">
        <ele>33</ele>
        <time>2020-06-18T08:14:29Z</time>
      </trkpt>
      <trkpt lat="49.75373" lon="0.37295">
        <ele>33</ele>
        <time>2020-06-18T08:14:30Z</time>
      </trkpt>
      <trkpt lat="49.75373" lon="0.37295">
        <ele>33</ele>
        <time>2020-06-18T08:14:31Z</time>
      </trkpt>
      <trkpt lat="49.75373" lon="0.37295">
        <ele>33</ele>
        <time>2020-06-18T08:14:32Z</time>
      </trkpt>
      <trkpt lat="49.75373" lon="0.37295">
        <ele>33</ele>
        <time>2020-06-18T08:14:33Z</time>
      </trkpt>
      <trkpt lat="49.75373" lon="0.37296">
        <ele>33</ele>
        <time>2020-06-18T08:14:34Z</time>
      </trkpt>
      <trkpt lat="49.75373" lon="0.37296">
        <ele>33</ele>
        <time>2020-06-18T08:14:35Z</time>
      </trkpt>
      <trkpt lat="49.75372" lon="0.37297">
        <ele>32.9</ele>
        <time>2020-06-18T08:14:36Z</time>
      </trkpt>
      <trkpt lat="49.75372" lon="0.37297">
        <ele>32.9</ele>
        <time>2020-06-18T08:14:37Z</time>
      </trkpt>
      <trkpt lat="49.75372" lon="0.37298">
        <ele>32.9</ele>
        <time>2020-06-18T08:14:38Z</time>
      </trkpt>
      <trkpt lat="49.75372" lon="0.37301">
        <ele>32.8</ele>
        <time>2020-06-18T08:14:39Z</time>
      </trkpt>
      <trkpt lat="49.75373" lon="0.37306">
        <ele>32.7</ele>
        <time>2020-06-18T08:14:40Z</time>
      </trkpt>
      <trkpt lat="49.75374" lon="0.37308">
        <ele>31.8</ele>
        <time>2020-06-18T08:14:41Z</time>
      </trkpt>
      <trkpt lat="49.75376" lon="0.37312">
        <ele>31.6</ele>
        <time>2020-06-18T08:14:42Z</time>
      </trkpt>
      <trkpt lat="49.75378" lon="0.37318">
        <ele>31.2</ele>
        <time>2020-06-18T08:14:43Z</time>
      </trkpt>
      <trkpt lat="49.75382" lon="0.37326">
        <ele>30.8</ele>
        <time>2020-06-18T08:14:44Z</time>
      </trkpt>
      <trkpt lat="49.75384" lon="0.37334">
        <ele>30.3</ele>
        <time>2020-06-18T08:14:45Z</time>
      </trkpt>
      <trkpt lat="49.75387" lon="0.37343">
        <ele>29.8</ele>
        <time>2020-06-18T08:14:46Z</time>
      </trkpt>
      <trkpt lat="49.7539" lon="0.37351">
        <ele>29.3</ele>
        <time>2020-06-18T08:14:47Z</time>
      </trkpt>
      <trkpt lat="49.75393" lon="0.37359">
        <ele>28.8</ele>
        <time>2020-06-18T08:14:48Z</time>
      </trkpt>
      <trkpt lat="49.75396" lon="0.37366">
        <ele>28.4</ele>
        <time>2020-06-18T08:14:49Z</time>
      </trkpt>
      <trkpt lat="49.75401" lon="0.37376">
        <ele>27.8</ele>
        <time>2020-06-18T08:14:50Z</time>
      </trkpt>
      <trkpt lat="49.75405" lon="0.37385">
        <ele>26.6</ele>
        <time>2020-06-18T08:14:51Z</time>
      </trkpt>
      <trkpt lat="49.75409" lon="0.37395">
        <ele>26.1</ele>
        <time>2020-06-18T08:14:52Z</time>
      </trkpt>
      <trkpt lat="49.75412" lon="0.37402">
        <ele>25.7</ele>
        <time>2020-06-18T08:14:53Z</time>
      </trkpt>
      <trkpt lat="49.75415" lon="0.3741">
        <ele>25.4</ele>
        <time>2020-06-18T08:14:54Z</time>
      </trkpt>
      <trkpt lat="49.75418" lon="0.37416">
        <ele>25.1</ele>
        <time>2020-06-18T08:14:55Z</time>
      </trkpt>
      <trkpt lat="49.75419" lon="0.37422">
        <ele>24.8</ele>
        <time>2020-06-18T08:14:56Z</time>
      </trkpt>
      <trkpt lat="49.75421" lon="0.37429">
        <ele>24.5</ele>
        <time>2020-06-18T08:14:57Z</time>
      </trkpt>
      <trkpt lat="49.75423" lon="0.37435">
        <ele>24.3</ele>
        <time>2020-06-18T08:14:58Z</time>
      </trkpt>
      <trkpt lat="49.75424" lon="0.37442">
        <ele>24</ele>
        <time>2020-06-18T08:14:59Z</time>
      </trkpt>
      <trkpt lat="49.75426" lon="0.37448">
        <ele>23.7</ele>
        <time>2020-06-18T08:15:00Z</time>
      </trkpt>
      <trkpt lat="49.75429" lon="0.37454">
        <ele>23.4</ele>
        <time>2020-06-18T08:15:01Z</time>
      </trkpt>
      <trkpt lat="49.75432" lon="0.37462">
        <ele>23.1</ele>
        <time>2020-06-18T08:15:02Z</time>
      </trkpt>
      <trkpt lat="49.75435" lon="0.37471">
        <ele>22.7</ele>
        <time>2020-06-18T08:15:03Z</time>
      </trkpt>
      <trkpt lat="49.75437" lon="0.37478">
        <ele>22.5</ele>
        <time>2020-06-18T08:15:04Z</time>
      </trkpt>
      <trkpt lat="49.7544" lon="0.37486">
        <ele>22.3</ele>
        <time>2020-06-18T08:15:05Z</time>
      </trkpt>
      <trkpt lat="49.75442" lon="0.37492">
        <ele>22.1</ele>
        <time>2020-06-18T08:15:06Z</time>
      </trkpt>
      <trkpt lat="49.75443" lon="0.37497">
        <ele>21.9</ele>
        <time>2020-06-18T08:15:07Z</time>
      </trkpt>
      <trkpt lat="49.75443" lon="0.37502">
        <ele>21.5</ele>
        <time>2020-06-18T08:15:08Z</time>
      </trkpt>
      <trkpt lat="49.75443" lon="0.37503">
        <ele>21.5</ele>
        <time>2020-06-18T08:15:09Z</time>
      </trkpt>
      <trkpt lat="49.75442" lon="0.37507">
        <ele>21.3</ele>
        <time>2020-06-18T08:15:10Z</time>
      </trkpt>
      <trkpt lat="49.75441" lon="0.37509">
        <ele>21.2</ele>
        <time>2020-06-18T08:15:11Z</time>
      </trkpt>
      <trkpt lat="49.75439" lon="0.37514">
        <ele>21</ele>
        <time>2020-06-18T08:15:12Z</time>
      </trkpt>
      <trkpt lat="49.75437" lon="0.37519">
        <ele>20.8</ele>
        <time>2020-06-18T08:15:13Z</time>
      </trkpt>
      <trkpt lat="49.75434" lon="0.37524">
        <ele>20.6</ele>
        <time>2020-06-18T08:15:14Z</time>
      </trkpt>
      <trkpt lat="49.75431" lon="0.3753">
        <ele>20.4</ele>
        <time>2020-06-18T08:15:15Z</time>
      </trkpt>
      <trkpt lat="49.75428" lon="0.37536">
        <ele>20.3</ele>
        <time>2020-06-18T08:15:16Z</time>
      </trkpt>
      <trkpt lat="49.75426" lon="0.3754">
        <ele>20.2</ele>
        <time>2020-06-18T08:15:17Z</time>
      </trkpt>
      <trkpt lat="49.75423" lon="0.37546">
        <ele>20.2</ele>
        <time>2020-06-18T08:15:18Z</time>
      </trkpt>
      <trkpt lat="49.75421" lon="0.37552">
        <ele>20.1</ele>
        <time>2020-06-18T08:15:19Z</time>
      </trkpt>
      <trkpt lat="49.75419" lon="0.37557">
        <ele>20.2</ele>
        <time>2020-06-18T08:15:20Z</time>
      </trkpt>
      <trkpt lat="49.75418" lon="0.37563">
        <ele>20.2</ele>
        <time>2020-06-18T08:15:21Z</time>
      </trkpt>
      <trkpt lat="49.75417" lon="0.37569">
        <ele>20.2</ele>
        <time>2020-06-18T08:15:22Z</time>
      </trkpt>
      <trkpt lat="49.75415" lon="0.37574">
        <ele>20.2</ele>
        <time>2020-06-18T08:15:23Z</time>
      </trkpt>
      <trkpt lat="49.75412" lon="0.37583">
        <ele>20.3</ele>
        <time>2020-06-18T08:15:24Z</time>
      </trkpt>
      <trkpt lat="49.75411" lon="0.37589">
        <ele>20.4</ele>
        <time>2020-06-18T08:15:25Z</time>
      </trkpt>
      <trkpt lat="49.75411" lon="0.37597">
        <ele>20.5</ele>
        <time>2020-06-18T08:15:26Z</time>
      </trkpt>
      <trkpt lat="49.75411" lon="0.37602">
        <ele>20.6</ele>
        <time>2020-06-18T08:15:27Z</time>
      </trkpt>
      <trkpt lat="49.75411" lon="0.37608">
        <ele>20.6</ele>
        <time>2020-06-18T08:15:28Z</time>
      </trkpt>
      <trkpt lat="49.7541" lon="0.37616">
        <ele>20.8</ele>
        <time>2020-06-18T08:15:29Z</time>
      </trkpt>
      <trkpt lat="49.75409" lon="0.37623">
        <ele>20.9</ele>
        <time>2020-06-18T08:15:30Z</time>
      </trkpt>
      <trkpt lat="49.75407" lon="0.37629">
        <ele>21.1</ele>
        <time>2020-06-18T08:15:31Z</time>
      </trkpt>
      <trkpt lat="49.75407" lon="0.37636">
        <ele>21.3</ele>
        <time>2020-06-18T08:15:32Z</time>
      </trkpt>
      <trkpt lat="49.75407" lon="0.37642">
        <ele>21.4</ele>
        <time>2020-06-18T08:15:33Z</time>
      </trkpt>
      <trkpt lat="49.75408" lon="0.37648">
        <ele>21.6</ele>
        <time>2020-06-18T08:15:34Z</time>
      </trkpt>
      <trkpt lat="49.75408" lon="0.37654">
        <ele>21.7</ele>
        <time>2020-06-18T08:15:35Z</time>
      </trkpt>
      <trkpt lat="49.75408" lon="0.37659">
        <ele>21.8</ele>
        <time>2020-06-18T08:15:36Z</time>
      </trkpt>
      <trkpt lat="49.75408" lon="0.37664">
        <ele>22</ele>
        <time>2020-06-18T08:15:37Z</time>
      </trkpt>
      <trkpt lat="49.75408" lon="0.37669">
        <ele>22.3</ele>
        <time>2020-06-18T08:15:38Z</time>
      </trkpt>
      <trkpt lat="49.75408" lon="0.37674">
        <ele>22.5</ele>
        <time>2020-06-18T08:15:39Z</time>
      </trkpt>
      <trkpt lat="49.75408" lon="0.3768">
        <ele>22.8</ele>
        <time>2020-06-18T08:15:40Z</time>
      </trkpt>
      <trkpt lat="49.75408" lon="0.37686">
        <ele>23.1</ele>
        <time>2020-06-18T08:15:41Z</time>
      </trkpt>
      <trkpt lat="49.75408" lon="0.37691">
        <ele>23.3</ele>
        <time>2020-06-18T08:15:42Z</time>
      </trkpt>
      <trkpt lat="49.75408" lon="0.37696">
        <ele>23.6</ele>
        <time>2020-06-18T08:15:43Z</time>
      </trkpt>
      <trkpt lat="49.75408" lon="0.37702">
        <ele>23.8</ele>
        <time>2020-06-18T08:15:44Z</time>
      </trkpt>
      <trkpt lat="49.75408" lon="0.37707">
        <ele>24.1</ele>
        <time>2020-06-18T08:15:45Z</time>
      </trkpt>
      <trkpt lat="49.75409" lon="0.37712">
        <ele>24.4</ele>
        <time>2020-06-18T08:15:46Z</time>
      </trkpt>
      <trkpt lat="49.75409" lon="0.37718">
        <ele>24.7</ele>
        <time>2020-06-18T08:15:47Z</time>
      </trkpt>
      <trkpt lat="49.7541" lon="0.37722">
        <ele>25</ele>
        <time>2020-06-18T08:15:48Z</time>
      </trkpt>
      <trkpt lat="49.75411" lon="0.37728">
        <ele>25.3</ele>
        <time>2020-06-18T08:15:49Z</time>
      </trkpt>
      <trkpt lat="49.75412" lon="0.37734">
        <ele>25.7</ele>
        <time>2020-06-18T08:15:50Z</time>
      </trkpt>
      <trkpt lat="49.75413" lon="0.3774">
        <ele>26</ele>
        <time>2020-06-18T08:15:51Z</time>
      </trkpt>
      <trkpt lat="49.75413" lon="0.37745">
        <ele>26.3</ele>
        <time>2020-06-18T08:15:52Z</time>
      </trkpt>
      <trkpt lat="49.75415" lon="0.37752">
        <ele>26.7</ele>
        <time>2020-06-18T08:15:53Z</time>
      </trkpt>
      <trkpt lat="49.75416" lon="0.37757">
        <ele>27</ele>
        <time>2020-06-18T08:15:54Z</time>
      </trkpt>
      <trkpt lat="49.75417" lon="0.37762">
        <ele>27.3</ele>
        <time>2020-06-18T08:15:55Z</time>
      </trkpt>
      <trkpt lat="49.75418" lon="0.37766">
        <ele>27.5</ele>
        <time>2020-06-18T08:15:56Z</time>
      </trkpt>
      <trkpt lat="49.75419" lon="0.3777">
        <ele>27.8</ele>
        <time>2020-06-18T08:15:57Z</time>
      </trkpt>
      <trkpt lat="49.7542" lon="0.37774">
        <ele>28</ele>
        <time>2020-06-18T08:15:58Z</time>
      </trkpt>
      <trkpt lat="49.75421" lon="0.3778">
        <ele>28.4</ele>
        <time>2020-06-18T08:15:59Z</time>
      </trkpt>
      <trkpt lat="49.75421" lon="0.37781">
        <ele>28.5</ele>
        <time>2020-06-18T08:16:00Z</time>
      </trkpt>
      <trkpt lat="49.75422" lon="0.37786">
        <ele>28.7</ele>
        <time>2020-06-18T08:16:01Z</time>
      </trkpt>
      <trkpt lat="49.75422" lon="0.37787">
        <ele>28.8</ele>
        <time>2020-06-18T08:16:02Z</time>
      </trkpt>
      <trkpt lat="49.75423" lon="0.37792">
        <ele>29</ele>
        <time>2020-06-18T08:16:03Z</time>
      </trkpt>
      <trkpt lat="49.75423" lon="0.37793">
        <ele>29</ele>
        <time>2020-06-18T08:16:04Z</time>
      </trkpt>
      <trkpt lat="49.75422" lon="0.37798">
        <ele>29.3</ele>
        <time>2020-06-18T08:16:05Z</time>
      </trkpt>
      <trkpt lat="49.75422" lon="0.378">
        <ele>29.4</ele>
        <time>2020-06-18T08:16:06Z</time>
      </trkpt>
      <trkpt lat="49.75422" lon="0.37804">
        <ele>29.5</ele>
        <time>2020-06-18T08:16:07Z</time>
      </trkpt>
      <trkpt lat="49.75422" lon="0.37809">
        <ele>29.8</ele>
        <time>2020-06-18T08:16:08Z</time>
      </trkpt>
      <trkpt lat="49.75423" lon="0.37814">
        <ele>29.6</ele>
        <time>2020-06-18T08:16:09Z</time>
      </trkpt>
      <trkpt lat="49.75425" lon="0.37821">
        <ele>29.3</ele>
        <time>2020-06-18T08:16:10Z</time>
      </trkpt>
      <trkpt lat="49.75426" lon="0.37828">
        <ele>29</ele>
        <time>2020-06-18T08:16:11Z</time>
      </trkpt>
      <trkpt lat="49.75427" lon="0.37835">
        <ele>28.7</ele>
        <time>2020-06-18T08:16:12Z</time>
      </trkpt>
      <trkpt lat="49.75428" lon="0.37841">
        <ele>28.4</ele>
        <time>2020-06-18T08:16:13Z</time>
      </trkpt>
      <trkpt lat="49.7543" lon="0.37849">
        <ele>28</ele>
        <time>2020-06-18T08:16:14Z</time>
      </trkpt>
      <trkpt lat="49.75432" lon="0.37855">
        <ele>27.7</ele>
        <time>2020-06-18T08:16:15Z</time>
      </trkpt>
      <trkpt lat="49.75433" lon="0.37862">
        <ele>27.4</ele>
        <time>2020-06-18T08:16:16Z</time>
      </trkpt>
      <trkpt lat="49.75433" lon="0.37868">
        <ele>27.2</ele>
        <time>2020-06-18T08:16:17Z</time>
      </trkpt>
      <trkpt lat="49.75434" lon="0.37873">
        <ele>27.1</ele>
        <time>2020-06-18T08:16:18Z</time>
      </trkpt>
      <trkpt lat="49.75432" lon="0.37876">
        <ele>27</ele>
        <time>2020-06-18T08:16:19Z</time>
      </trkpt>
      <trkpt lat="49.75431" lon="0.3788">
        <ele>26.9</ele>
        <time>2020-06-18T08:16:20Z</time>
      </trkpt>
      <trkpt lat="49.75429" lon="0.37884">
        <ele>26.7</ele>
        <time>2020-06-18T08:16:21Z</time>
      </trkpt>
      <trkpt lat="49.75431" lon="0.37888">
        <ele>26.6</ele>
        <time>2020-06-18T08:16:22Z</time>
      </trkpt>
      <trkpt lat="49.7543" lon="0.37893">
        <ele>26.6</ele>
        <time>2020-06-18T08:16:23Z</time>
      </trkpt>
      <trkpt lat="49.75429" lon="0.37895">
        <ele>26.6</ele>
        <time>2020-06-18T08:16:24Z</time>
      </trkpt>
      <trkpt lat="49.75427" lon="0.379">
        <ele>26.5</ele>
        <time>2020-06-18T08:16:25Z</time>
      </trkpt>
      <trkpt lat="49.75426" lon="0.37901">
        <ele>26.5</ele>
        <time>2020-06-18T08:16:26Z</time>
      </trkpt>
      <trkpt lat="49.75424" lon="0.37907">
        <ele>26.5</ele>
        <time>2020-06-18T08:16:27Z</time>
      </trkpt>
      <trkpt lat="49.75424" lon="0.37908">
        <ele>26.5</ele>
        <time>2020-06-18T08:16:28Z</time>
      </trkpt>
      <trkpt lat="49.75423" lon="0.37914">
        <ele>26.5</ele>
        <time>2020-06-18T08:16:29Z</time>
      </trkpt>
      <trkpt lat="49.75423" lon="0.37917">
        <ele>26.5</ele>
        <time>2020-06-18T08:16:30Z</time>
      </trkpt>
      <trkpt lat="49.75421" lon="0.37921">
        <ele>26.5</ele>
        <time>2020-06-18T08:16:31Z</time>
      </trkpt>
      <trkpt lat="49.75419" lon="0.37927">
        <ele>26.5</ele>
        <time>2020-06-18T08:16:32Z</time>
      </trkpt>
      <trkpt lat="49.75417" lon="0.37934">
        <ele>26.7</ele>
        <time>2020-06-18T08:16:33Z</time>
      </trkpt>
      <trkpt lat="49.75417" lon="0.3794">
        <ele>26.8</ele>
        <time>2020-06-18T08:16:34Z</time>
      </trkpt>
      <trkpt lat="49.75416" lon="0.37947">
        <ele>27</ele>
        <time>2020-06-18T08:16:35Z</time>
      </trkpt>
      <trkpt lat="49.75415" lon="0.37953">
        <ele>27.2</ele>
        <time>2020-06-18T08:16:36Z</time>
      </trkpt>
      <trkpt lat="49.75414" lon="0.37959">
        <ele>27.4</ele>
        <time>2020-06-18T08:16:37Z</time>
      </trkpt>
      <trkpt lat="49.75412" lon="0.37966">
        <ele>27.5</ele>
        <time>2020-06-18T08:16:38Z</time>
      </trkpt>
      <trkpt lat="49.7541" lon="0.37973">
        <ele>27.6</ele>
        <time>2020-06-18T08:16:39Z</time>
      </trkpt>
      <trkpt lat="49.75407" lon="0.37979">
        <ele>27.7</ele>
        <time>2020-06-18T08:16:40Z</time>
      </trkpt>
      <trkpt lat="49.75405" lon="0.37985">
        <ele>27.8</ele>
        <time>2020-06-18T08:16:41Z</time>
      </trkpt>
      <trkpt lat="49.75404" lon="0.37991">
        <ele>27.9</ele>
        <time>2020-06-18T08:16:42Z</time>
      </trkpt>
      <trkpt lat="49.75402" lon="0.37997">
        <ele>28</ele>
        <time>2020-06-18T08:16:43Z</time>
      </trkpt>
      <trkpt lat="49.754" lon="0.38002">
        <ele>28.1</ele>
        <time>2020-06-18T08:16:44Z</time>
      </trkpt>
      <trkpt lat="49.75398" lon="0.38006">
        <ele>28.2</ele>
        <time>2020-06-18T08:16:45Z</time>
      </trkpt>
      <trkpt lat="49.75397" lon="0.38011">
        <ele>28.3</ele>
        <time>2020-06-18T08:16:46Z</time>
      </trkpt>
      <trkpt lat="49.75397" lon="0.38013">
        <ele>28.3</ele>
        <time>2020-06-18T08:16:47Z</time>
      </trkpt>
      <trkpt lat="49.75397" lon="0.38019">
        <ele>28.4</ele>
        <time>2020-06-18T08:16:48Z</time>
      </trkpt>
      <trkpt lat="49.75396" lon="0.38024">
        <ele>28.5</ele>
        <time>2020-06-18T08:16:49Z</time>
      </trkpt>
      <trkpt lat="49.75395" lon="0.38029">
        <ele>28.5</ele>
        <time>2020-06-18T08:16:50Z</time>
      </trkpt>
      <trkpt lat="49.75393" lon="0.38035">
        <ele>28.5</ele>
        <time>2020-06-18T08:16:51Z</time>
      </trkpt>
      <trkpt lat="49.75392" lon="0.38041">
        <ele>28.5</ele>
        <time>2020-06-18T08:16:52Z</time>
      </trkpt>
      <trkpt lat="49.75391" lon="0.38045">
        <ele>28.5</ele>
        <time>2020-06-18T08:16:53Z</time>
      </trkpt>
      <trkpt lat="49.75391" lon="0.38052">
        <ele>28.5</ele>
        <time>2020-06-18T08:16:54Z</time>
      </trkpt>
      <trkpt lat="49.75391" lon="0.38054">
        <ele>28.5</ele>
        <time>2020-06-18T08:16:55Z</time>
      </trkpt>
      <trkpt lat="49.75389" lon="0.38058">
        <ele>28.4</ele>
        <time>2020-06-18T08:16:56Z</time>
      </trkpt>
      <trkpt lat="49.75388" lon="0.38064">
        <ele>28.4</ele>
        <time>2020-06-18T08:16:57Z</time>
      </trkpt>
      <trkpt lat="49.75387" lon="0.38068">
        <ele>28.4</ele>
        <time>2020-06-18T08:16:58Z</time>
      </trkpt>
      <trkpt lat="49.75385" lon="0.38072">
        <ele>28.3</ele>
        <time>2020-06-18T08:16:59Z</time>
      </trkpt>
      <trkpt lat="49.75383" lon="0.38077">
        <ele>28.3</ele>
        <time>2020-06-18T08:17:00Z</time>
      </trkpt>
      <trkpt lat="49.75381" lon="0.38082">
        <ele>28.2</ele>
        <time>2020-06-18T08:17:01Z</time>
      </trkpt>
      <trkpt lat="49.75379" lon="0.38087">
        <ele>28.2</ele>
        <time>2020-06-18T08:17:02Z</time>
      </trkpt>
      <trkpt lat="49.75376" lon="0.38092">
        <ele>28.2</ele>
        <time>2020-06-18T08:17:03Z</time>
      </trkpt>
      <trkpt lat="49.75374" lon="0.38099">
        <ele>28.3</ele>
        <time>2020-06-18T08:17:04Z</time>
      </trkpt>
      <trkpt lat="49.75373" lon="0.38104">
        <ele>28.3</ele>
        <time>2020-06-18T08:17:05Z</time>
      </trkpt>
      <trkpt lat="49.75371" lon="0.38107">
        <ele>28.3</ele>
        <time>2020-06-18T08:17:06Z</time>
      </trkpt>
      <trkpt lat="49.75369" lon="0.3811">
        <ele>28.4</ele>
        <time>2020-06-18T08:17:07Z</time>
      </trkpt>
      <trkpt lat="49.75369" lon="0.38116">
        <ele>28.4</ele>
        <time>2020-06-18T08:17:08Z</time>
      </trkpt>
      <trkpt lat="49.75368" lon="0.3812">
        <ele>28.4</ele>
        <time>2020-06-18T08:17:09Z</time>
      </trkpt>
      <trkpt lat="49.75367" lon="0.38125">
        <ele>28.4</ele>
        <time>2020-06-18T08:17:10Z</time>
      </trkpt>
      <trkpt lat="49.75367" lon="0.38128">
        <ele>27.7</ele>
        <time>2020-06-18T08:17:11Z</time>
      </trkpt>
      <trkpt lat="49.75368" lon="0.38133">
        <ele>27.4</ele>
        <time>2020-06-18T08:17:12Z</time>
      </trkpt>
      <trkpt lat="49.7537" lon="0.38139">
        <ele>27</ele>
        <time>2020-06-18T08:17:13Z</time>
      </trkpt>
      <trkpt lat="49.75372" lon="0.38145">
        <ele>26.7</ele>
        <time>2020-06-18T08:17:14Z</time>
      </trkpt>
      <trkpt lat="49.75374" lon="0.38148">
        <ele>26.4</ele>
        <time>2020-06-18T08:17:15Z</time>
      </trkpt>
      <trkpt lat="49.75375" lon="0.38151">
        <ele>26.2</ele>
        <time>2020-06-18T08:17:16Z</time>
      </trkpt>
      <trkpt lat="49.75375" lon="0.38153">
        <ele>26.1</ele>
        <time>2020-06-18T08:17:17Z</time>
      </trkpt>
      <trkpt lat="49.75375" lon="0.38155">
        <ele>25.9</ele>
        <time>2020-06-18T08:17:18Z</time>
      </trkpt>
      <trkpt lat="49.75375" lon="0.38155">
        <ele>25.9</ele>
        <time>2020-06-18T08:17:19Z</time>
      </trkpt>
      <trkpt lat="49.75375" lon="0.38156">
        <ele>25.9</ele>
        <time>2020-06-18T08:17:20Z</time>
      </trkpt>
      <trkpt lat="49.75375" lon="0.38158">
        <ele>25.7</ele>
        <time>2020-06-18T08:17:21Z</time>
      </trkpt>
      <trkpt lat="49.75376" lon="0.38164">
        <ele>25.4</ele>
        <time>2020-06-18T08:17:22Z</time>
      </trkpt>
      <trkpt lat="49.75376" lon="0.38167">
        <ele>25.2</ele>
        <time>2020-06-18T08:17:23Z</time>
      </trkpt>
      <trkpt lat="49.75377" lon="0.38173">
        <ele>24.8</ele>
        <time>2020-06-18T08:17:24Z</time>
      </trkpt>
      <trkpt lat="49.75379" lon="0.38179">
        <ele>24.4</ele>
        <time>2020-06-18T08:17:25Z</time>
      </trkpt>
      <trkpt lat="49.75381" lon="0.38186">
        <ele>24</ele>
        <time>2020-06-18T08:17:26Z</time>
      </trkpt>
      <trkpt lat="49.75382" lon="0.38191">
        <ele>23.6</ele>
        <time>2020-06-18T08:17:27Z</time>
      </trkpt>
      <trkpt lat="49.75384" lon="0.38196">
        <ele>23.3</ele>
        <time>2020-06-18T08:17:28Z</time>
      </trkpt>
      <trkpt lat="49.75386" lon="0.38202">
        <ele>23</ele>
        <time>2020-06-18T08:17:29Z</time>
      </trkpt>
      <trkpt lat="49.75387" lon="0.38208">
        <ele>22.6</ele>
        <time>2020-06-18T08:17:30Z</time>
      </trkpt>
      <trkpt lat="49.75388" lon="0.38215">
        <ele>22.2</ele>
        <time>2020-06-18T08:17:31Z</time>
      </trkpt>
      <trkpt lat="49.75389" lon="0.38218">
        <ele>22.1</ele>
        <time>2020-06-18T08:17:32Z</time>
      </trkpt>
      <trkpt lat="49.75388" lon="0.38222">
        <ele>22.1</ele>
        <time>2020-06-18T08:17:33Z</time>
      </trkpt>
      <trkpt lat="49.75388" lon="0.38229">
        <ele>22.1</ele>
        <time>2020-06-18T08:17:34Z</time>
      </trkpt>
      <trkpt lat="49.75387" lon="0.38231">
        <ele>22.1</ele>
        <time>2020-06-18T08:17:35Z</time>
      </trkpt>
      <trkpt lat="49.75385" lon="0.38236">
        <ele>22.2</ele>
        <time>2020-06-18T08:17:36Z</time>
      </trkpt>
      <trkpt lat="49.75382" lon="0.38241">
        <ele>22.2</ele>
        <time>2020-06-18T08:17:37Z</time>
      </trkpt>
      <trkpt lat="49.75378" lon="0.38246">
        <ele>22.4</ele>
        <time>2020-06-18T08:17:38Z</time>
      </trkpt>
      <trkpt lat="49.75375" lon="0.3825">
        <ele>22.5</ele>
        <time>2020-06-18T08:17:39Z</time>
      </trkpt>
      <trkpt lat="49.75372" lon="0.38253">
        <ele>22.6</ele>
        <time>2020-06-18T08:17:40Z</time>
      </trkpt>
      <trkpt lat="49.75369" lon="0.38257">
        <ele>22.7</ele>
        <time>2020-06-18T08:17:41Z</time>
      </trkpt>
      <trkpt lat="49.75366" lon="0.3826">
        <ele>22.8</ele>
        <time>2020-06-18T08:17:42Z</time>
      </trkpt>
      <trkpt lat="49.75364" lon="0.38264">
        <ele>22.9</ele>
        <time>2020-06-18T08:17:43Z</time>
      </trkpt>
      <trkpt lat="49.75361" lon="0.38269">
        <ele>23</ele>
        <time>2020-06-18T08:17:44Z</time>
      </trkpt>
      <trkpt lat="49.75358" lon="0.38274">
        <ele>23.2</ele>
        <time>2020-06-18T08:17:45Z</time>
      </trkpt>
      <trkpt lat="49.75356" lon="0.38278">
        <ele>23.3</ele>
        <time>2020-06-18T08:17:46Z</time>
      </trkpt>
      <trkpt lat="49.75355" lon="0.38283">
        <ele>23.4</ele>
        <time>2020-06-18T08:17:47Z</time>
      </trkpt>
      <trkpt lat="49.75352" lon="0.38288">
        <ele>23.5</ele>
        <time>2020-06-18T08:17:48Z</time>
      </trkpt>
      <trkpt lat="49.75348" lon="0.38293">
        <ele>23.7</ele>
        <time>2020-06-18T08:17:49Z</time>
      </trkpt>
      <trkpt lat="49.75346" lon="0.38298">
        <ele>23.8</ele>
        <time>2020-06-18T08:17:50Z</time>
      </trkpt>
      <trkpt lat="49.75343" lon="0.38302">
        <ele>23.9</ele>
        <time>2020-06-18T08:17:51Z</time>
      </trkpt>
      <trkpt lat="49.75341" lon="0.38305">
        <ele>24</ele>
        <time>2020-06-18T08:17:52Z</time>
      </trkpt>
      <trkpt lat="49.75338" lon="0.38309">
        <ele>24.1</ele>
        <time>2020-06-18T08:17:53Z</time>
      </trkpt>
      <trkpt lat="49.75334" lon="0.38311">
        <ele>24.2</ele>
        <time>2020-06-18T08:17:54Z</time>
      </trkpt>
      <trkpt lat="49.75331" lon="0.38314">
        <ele>24.3</ele>
        <time>2020-06-18T08:17:55Z</time>
      </trkpt>
      <trkpt lat="49.75328" lon="0.38318">
        <ele>24.4</ele>
        <time>2020-06-18T08:17:56Z</time>
      </trkpt>
      <trkpt lat="49.75326" lon="0.38323">
        <ele>24.5</ele>
        <time>2020-06-18T08:17:57Z</time>
      </trkpt>
      <trkpt lat="49.75323" lon="0.38326">
        <ele>24.6</ele>
        <time>2020-06-18T08:17:58Z</time>
      </trkpt>
      <trkpt lat="49.75321" lon="0.38329">
        <ele>24.6</ele>
        <time>2020-06-18T08:17:59Z</time>
      </trkpt>
      <trkpt lat="49.75319" lon="0.38332">
        <ele>24.7</ele>
        <time>2020-06-18T08:18:00Z</time>
      </trkpt>
      <trkpt lat="49.75317" lon="0.38337">
        <ele>24.7</ele>
        <time>2020-06-18T08:18:01Z</time>
      </trkpt>
      <trkpt lat="49.75316" lon="0.38339">
        <ele>24.7</ele>
        <time>2020-06-18T08:18:02Z</time>
      </trkpt>
      <trkpt lat="49.75314" lon="0.38343">
        <ele>24.8</ele>
        <time>2020-06-18T08:18:03Z</time>
      </trkpt>
      <trkpt lat="49.75312" lon="0.38348">
        <ele>24.8</ele>
        <time>2020-06-18T08:18:04Z</time>
      </trkpt>
      <trkpt lat="49.75311" lon="0.38351">
        <ele>24.8</ele>
        <time>2020-06-18T08:18:05Z</time>
      </trkpt>
      <trkpt lat="49.75309" lon="0.38356">
        <ele>24.8</ele>
        <time>2020-06-18T08:18:06Z</time>
      </trkpt>
      <trkpt lat="49.75307" lon="0.38363">
        <ele>24.8</ele>
        <time>2020-06-18T08:18:07Z</time>
      </trkpt>
      <trkpt lat="49.75305" lon="0.3837">
        <ele>24.7</ele>
        <time>2020-06-18T08:18:08Z</time>
      </trkpt>
      <trkpt lat="49.75303" lon="0.38377">
        <ele>24.7</ele>
        <time>2020-06-18T08:18:09Z</time>
      </trkpt>
      <trkpt lat="49.75301" lon="0.38383">
        <ele>24.7</ele>
        <time>2020-06-18T08:18:10Z</time>
      </trkpt>
      <trkpt lat="49.75299" lon="0.38391">
        <ele>24.6</ele>
        <time>2020-06-18T08:18:11Z</time>
      </trkpt>
      <trkpt lat="49.75298" lon="0.38397">
        <ele>24.6</ele>
        <time>2020-06-18T08:18:12Z</time>
      </trkpt>
      <trkpt lat="49.75296" lon="0.38403">
        <ele>24.6</ele>
        <time>2020-06-18T08:18:13Z</time>
      </trkpt>
      <trkpt lat="49.75296" lon="0.38412">
        <ele>24.6</ele>
        <time>2020-06-18T08:18:14Z</time>
      </trkpt>
      <trkpt lat="49.75292" lon="0.38418">
        <ele>24.6</ele>
        <time>2020-06-18T08:18:15Z</time>
      </trkpt>
      <trkpt lat="49.7529" lon="0.38423">
        <ele>24.6</ele>
        <time>2020-06-18T08:18:16Z</time>
      </trkpt>
      <trkpt lat="49.75288" lon="0.38429">
        <ele>24.6</ele>
        <time>2020-06-18T08:18:17Z</time>
      </trkpt>
      <trkpt lat="49.75287" lon="0.38436">
        <ele>24.7</ele>
        <time>2020-06-18T08:18:18Z</time>
      </trkpt>
      <trkpt lat="49.75285" lon="0.38442">
        <ele>24.8</ele>
        <time>2020-06-18T08:18:19Z</time>
      </trkpt>
      <trkpt lat="49.75284" lon="0.38449">
        <ele>24.8</ele>
        <time>2020-06-18T08:18:20Z</time>
      </trkpt>
      <trkpt lat="49.75284" lon="0.38456">
        <ele>24.9</ele>
        <time>2020-06-18T08:18:21Z</time>
      </trkpt>
      <trkpt lat="49.75281" lon="0.38463">
        <ele>25.1</ele>
        <time>2020-06-18T08:18:22Z</time>
      </trkpt>
      <trkpt lat="49.7528" lon="0.3847">
        <ele>25.2</ele>
        <time>2020-06-18T08:18:23Z</time>
      </trkpt>
      <trkpt lat="49.75279" lon="0.38477">
        <ele>25.2</ele>
        <time>2020-06-18T08:18:24Z</time>
      </trkpt>
      <trkpt lat="49.75277" lon="0.38483">
        <ele>25.3</ele>
        <time>2020-06-18T08:18:25Z</time>
      </trkpt>
      <trkpt lat="49.75276" lon="0.3849">
        <ele>25.3</ele>
        <time>2020-06-18T08:18:26Z</time>
      </trkpt>
      <trkpt lat="49.75275" lon="0.38496">
        <ele>25.3</ele>
        <time>2020-06-18T08:18:27Z</time>
      </trkpt>
      <trkpt lat="49.75275" lon="0.38503">
        <ele>25.4</ele>
        <time>2020-06-18T08:18:28Z</time>
      </trkpt>
      <trkpt lat="49.75273" lon="0.38509">
        <ele>25.4</ele>
        <time>2020-06-18T08:18:29Z</time>
      </trkpt>
      <trkpt lat="49.75271" lon="0.38517">
        <ele>25.4</ele>
        <time>2020-06-18T08:18:30Z</time>
      </trkpt>
      <trkpt lat="49.7527" lon="0.38524">
        <ele>25.4</ele>
        <time>2020-06-18T08:18:31Z</time>
      </trkpt>
      <trkpt lat="49.75269" lon="0.38528">
        <ele>25.4</ele>
        <time>2020-06-18T08:18:32Z</time>
      </trkpt>
      <trkpt lat="49.75268" lon="0.38533">
        <ele>25.4</ele>
        <time>2020-06-18T08:18:33Z</time>
      </trkpt>
      <trkpt lat="49.75266" lon="0.38538">
        <ele>25.4</ele>
        <time>2020-06-18T08:18:34Z</time>
      </trkpt>
      <trkpt lat="49.75266" lon="0.38544">
        <ele>25.4</ele>
        <time>2020-06-18T08:18:35Z</time>
      </trkpt>
      <trkpt lat="49.75265" lon="0.38549">
        <ele>25.5</ele>
        <time>2020-06-18T08:18:36Z</time>
      </trkpt>
      <trkpt lat="49.75264" lon="0.38553">
        <ele>25.5</ele>
        <time>2020-06-18T08:18:37Z</time>
      </trkpt>
      <trkpt lat="49.75263" lon="0.38554">
        <ele>25.5</ele>
        <time>2020-06-18T08:18:38Z</time>
      </trkpt>
      <trkpt lat="49.75262" lon="0.38557">
        <ele>25.5</ele>
        <time>2020-06-18T08:18:39Z</time>
      </trkpt>
      <trkpt lat="49.75262" lon="0.38559">
        <ele>25.5</ele>
        <time>2020-06-18T08:18:40Z</time>
      </trkpt>
      <trkpt lat="49.75262" lon="0.3856">
        <ele>25.5</ele>
        <time>2020-06-18T08:18:41Z</time>
      </trkpt>
      <trkpt lat="49.75266" lon="0.38559">
        <ele>25.3</ele>
        <time>2020-06-18T08:18:42Z</time>
      </trkpt>
      <trkpt lat="49.75268" lon="0.38562">
        <ele>25.2</ele>
        <time>2020-06-18T08:18:43Z</time>
      </trkpt>
      <trkpt lat="49.75269" lon="0.38564">
        <ele>25.1</ele>
        <time>2020-06-18T08:18:44Z</time>
      </trkpt>
      <trkpt lat="49.75272" lon="0.38566">
        <ele>25</ele>
        <time>2020-06-18T08:18:45Z</time>
      </trkpt>
      <trkpt lat="49.75276" lon="0.38568">
        <ele>24.7</ele>
        <time>2020-06-18T08:18:46Z</time>
      </trkpt>
      <trkpt lat="49.75279" lon="0.3857">
        <ele>24.4</ele>
        <time>2020-06-18T08:18:47Z</time>
      </trkpt>
      <trkpt lat="49.75283" lon="0.38574">
        <ele>24</ele>
        <time>2020-06-18T08:18:48Z</time>
      </trkpt>
      <trkpt lat="49.75286" lon="0.38575">
        <ele>23.7</ele>
        <time>2020-06-18T08:18:49Z</time>
      </trkpt>
      <trkpt lat="49.75291" lon="0.38576">
        <ele>23.3</ele>
        <time>2020-06-18T08:18:50Z</time>
      </trkpt>
      <trkpt lat="49.75296" lon="0.38577">
        <ele>23</ele>
        <time>2020-06-18T08:18:51Z</time>
      </trkpt>
      <trkpt lat="49.753" lon="0.38577">
        <ele>22.6</ele>
        <time>2020-06-18T08:18:52Z</time>
      </trkpt>
      <trkpt lat="49.75304" lon="0.38578">
        <ele>22.3</ele>
        <time>2020-06-18T08:18:53Z</time>
      </trkpt>
      <trkpt lat="49.75308" lon="0.38578">
        <ele>21.9</ele>
        <time>2020-06-18T08:18:54Z</time>
      </trkpt>
      <trkpt lat="49.75313" lon="0.38581">
        <ele>21.5</ele>
        <time>2020-06-18T08:18:55Z</time>
      </trkpt>
      <trkpt lat="49.75317" lon="0.38588">
        <ele>21</ele>
        <time>2020-06-18T08:18:56Z</time>
      </trkpt>
      <trkpt lat="49.75321" lon="0.3859">
        <ele>20.6</ele>
        <time>2020-06-18T08:18:57Z</time>
      </trkpt>
      <trkpt lat="49.75325" lon="0.38591">
        <ele>20.4</ele>
        <time>2020-06-18T08:18:58Z</time>
      </trkpt>
      <trkpt lat="49.7533" lon="0.38594">
        <ele>20.1</ele>
        <time>2020-06-18T08:18:59Z</time>
      </trkpt>
      <trkpt lat="49.75332" lon="0.38597">
        <ele>19.2</ele>
        <time>2020-06-18T08:19:00Z</time>
      </trkpt>
      <trkpt lat="49.75334" lon="0.38604">
        <ele>19.2</ele>
        <time>2020-06-18T08:19:01Z</time>
      </trkpt>
      <trkpt lat="49.75334" lon="0.38611">
        <ele>19.2</ele>
        <time>2020-06-18T08:19:02Z</time>
      </trkpt>
      <trkpt lat="49.75336" lon="0.38614">
        <ele>18.7</ele>
        <time>2020-06-18T08:19:03Z</time>
      </trkpt>
      <trkpt lat="49.75339" lon="0.38617">
        <ele>18.7</ele>
        <time>2020-06-18T08:19:04Z</time>
      </trkpt>
      <trkpt lat="49.75342" lon="0.38619">
        <ele>18.7</ele>
        <time>2020-06-18T08:19:05Z</time>
      </trkpt>
      <trkpt lat="49.75345" lon="0.38621">
        <ele>18.6</ele>
        <time>2020-06-18T08:19:06Z</time>
      </trkpt>
      <trkpt lat="49.75348" lon="0.38624">
        <ele>18.7</ele>
        <time>2020-06-18T08:19:07Z</time>
      </trkpt>
      <trkpt lat="49.75349" lon="0.38626">
        <ele>18.7</ele>
        <time>2020-06-18T08:19:08Z</time>
      </trkpt>
      <trkpt lat="49.75351" lon="0.38629">
        <ele>18.8</ele>
        <time>2020-06-18T08:19:09Z</time>
      </trkpt>
      <trkpt lat="49.75354" lon="0.38637">
        <ele>18.9</ele>
        <time>2020-06-18T08:19:10Z</time>
      </trkpt>
      <trkpt lat="49.75353" lon="0.38644">
        <ele>19</ele>
        <time>2020-06-18T08:19:11Z</time>
      </trkpt>
      <trkpt lat="49.75352" lon="0.3865">
        <ele>19.1</ele>
        <time>2020-06-18T08:19:12Z</time>
      </trkpt>
      <trkpt lat="49.7535" lon="0.38657">
        <ele>19.2</ele>
        <time>2020-06-18T08:19:13Z</time>
      </trkpt>
      <trkpt lat="49.75349" lon="0.38665">
        <ele>19.3</ele>
        <time>2020-06-18T08:19:14Z</time>
      </trkpt>
      <trkpt lat="49.75347" lon="0.38672">
        <ele>19.3</ele>
        <time>2020-06-18T08:19:15Z</time>
      </trkpt>
      <trkpt lat="49.75344" lon="0.38679">
        <ele>19.4</ele>
        <time>2020-06-18T08:19:16Z</time>
      </trkpt>
      <trkpt lat="49.75343" lon="0.38689">
        <ele>19.4</ele>
        <time>2020-06-18T08:19:17Z</time>
      </trkpt>
      <trkpt lat="49.75341" lon="0.38698">
        <ele>19.5</ele>
        <time>2020-06-18T08:19:18Z</time>
      </trkpt>
      <trkpt lat="49.7534" lon="0.38706">
        <ele>19.5</ele>
        <time>2020-06-18T08:19:19Z</time>
      </trkpt>
      <trkpt lat="49.75338" lon="0.38715">
        <ele>19.6</ele>
        <time>2020-06-18T08:19:20Z</time>
      </trkpt>
      <trkpt lat="49.75336" lon="0.38722">
        <ele>19.6</ele>
        <time>2020-06-18T08:19:21Z</time>
      </trkpt>
      <trkpt lat="49.75334" lon="0.3873">
        <ele>19.6</ele>
        <time>2020-06-18T08:19:22Z</time>
      </trkpt>
      <trkpt lat="49.75333" lon="0.38737">
        <ele>19.7</ele>
        <time>2020-06-18T08:19:23Z</time>
      </trkpt>
      <trkpt lat="49.75332" lon="0.38745">
        <ele>19.7</ele>
        <time>2020-06-18T08:19:24Z</time>
      </trkpt>
      <trkpt lat="49.75331" lon="0.38752">
        <ele>19.8</ele>
        <time>2020-06-18T08:19:25Z</time>
      </trkpt>
      <trkpt lat="49.7533" lon="0.3876">
        <ele>19.8</ele>
        <time>2020-06-18T08:19:26Z</time>
      </trkpt>
      <trkpt lat="49.75329" lon="0.38767">
        <ele>19.9</ele>
        <time>2020-06-18T08:19:27Z</time>
      </trkpt>
      <trkpt lat="49.75328" lon="0.38773">
        <ele>19.9</ele>
        <time>2020-06-18T08:19:28Z</time>
      </trkpt>
      <trkpt lat="49.75327" lon="0.3878">
        <ele>19.9</ele>
        <time>2020-06-18T08:19:29Z</time>
      </trkpt>
      <trkpt lat="49.75327" lon="0.38787">
        <ele>19.9</ele>
        <time>2020-06-18T08:19:30Z</time>
      </trkpt>
      <trkpt lat="49.75326" lon="0.38795">
        <ele>19.9</ele>
        <time>2020-06-18T08:19:31Z</time>
      </trkpt>
      <trkpt lat="49.75325" lon="0.38802">
        <ele>19.9</ele>
        <time>2020-06-18T08:19:32Z</time>
      </trkpt>
      <trkpt lat="49.75325" lon="0.38809">
        <ele>20</ele>
        <time>2020-06-18T08:19:33Z</time>
      </trkpt>
      <trkpt lat="49.75324" lon="0.38816">
        <ele>20</ele>
        <time>2020-06-18T08:19:34Z</time>
      </trkpt>
      <trkpt lat="49.75323" lon="0.38823">
        <ele>20</ele>
        <time>2020-06-18T08:19:35Z</time>
      </trkpt>
      <trkpt lat="49.75322" lon="0.38831">
        <ele>20.1</ele>
        <time>2020-06-18T08:19:36Z</time>
      </trkpt>
      <trkpt lat="49.75321" lon="0.3884">
        <ele>20.1</ele>
        <time>2020-06-18T08:19:37Z</time>
      </trkpt>
      <trkpt lat="49.7532" lon="0.38847">
        <ele>20.2</ele>
        <time>2020-06-18T08:19:38Z</time>
      </trkpt>
      <trkpt lat="49.7532" lon="0.38854">
        <ele>20.2</ele>
        <time>2020-06-18T08:19:39Z</time>
      </trkpt>
      <trkpt lat="49.75319" lon="0.38861">
        <ele>20.3</ele>
        <time>2020-06-18T08:19:40Z</time>
      </trkpt>
      <trkpt lat="49.75318" lon="0.38869">
        <ele>20.3</ele>
        <time>2020-06-18T08:19:41Z</time>
      </trkpt>
      <trkpt lat="49.75318" lon="0.38876">
        <ele>20.4</ele>
        <time>2020-06-18T08:19:42Z</time>
      </trkpt>
      <trkpt lat="49.75317" lon="0.38883">
        <ele>20.5</ele>
        <time>2020-06-18T08:19:43Z</time>
      </trkpt>
      <trkpt lat="49.75316" lon="0.38889">
        <ele>20.6</ele>
        <time>2020-06-18T08:19:44Z</time>
      </trkpt>
      <trkpt lat="49.75314" lon="0.38898">
        <ele>20.7</ele>
        <time>2020-06-18T08:19:45Z</time>
      </trkpt>
      <trkpt lat="49.75312" lon="0.38905">
        <ele>20.8</ele>
        <time>2020-06-18T08:19:46Z</time>
      </trkpt>
      <trkpt lat="49.75312" lon="0.38914">
        <ele>20.8</ele>
        <time>2020-06-18T08:19:47Z</time>
      </trkpt>
      <trkpt lat="49.75311" lon="0.38921">
        <ele>20.9</ele>
        <time>2020-06-18T08:19:48Z</time>
      </trkpt>
      <trkpt lat="49.7531" lon="0.38929">
        <ele>20.9</ele>
        <time>2020-06-18T08:19:49Z</time>
      </trkpt>
      <trkpt lat="49.75309" lon="0.38938">
        <ele>20.9</ele>
        <time>2020-06-18T08:19:50Z</time>
      </trkpt>
      <trkpt lat="49.75308" lon="0.38946">
        <ele>20.9</ele>
        <time>2020-06-18T08:19:51Z</time>
      </trkpt>
      <trkpt lat="49.75307" lon="0.38954">
        <ele>20.9</ele>
        <time>2020-06-18T08:19:52Z</time>
      </trkpt>
      <trkpt lat="49.75306" lon="0.38962">
        <ele>20.9</ele>
        <time>2020-06-18T08:19:53Z</time>
      </trkpt>
      <trkpt lat="49.75304" lon="0.38969">
        <ele>20.9</ele>
        <time>2020-06-18T08:19:54Z</time>
      </trkpt>
      <trkpt lat="49.75303" lon="0.38977">
        <ele>21</ele>
        <time>2020-06-18T08:19:55Z</time>
      </trkpt>
      <trkpt lat="49.75302" lon="0.38985">
        <ele>21</ele>
        <time>2020-06-18T08:19:56Z</time>
      </trkpt>
      <trkpt lat="49.753" lon="0.38993">
        <ele>21.1</ele>
        <time>2020-06-18T08:19:57Z</time>
      </trkpt>
      <trkpt lat="49.75299" lon="0.39001">
        <ele>21.1</ele>
        <time>2020-06-18T08:19:58Z</time>
      </trkpt>
      <trkpt lat="49.75298" lon="0.39009">
        <ele>21.1</ele>
        <time>2020-06-18T08:19:59Z</time>
      </trkpt>
      <trkpt lat="49.75297" lon="0.39016">
        <ele>21.1</ele>
        <time>2020-06-18T08:20:00Z</time>
      </trkpt>
      <trkpt lat="49.75297" lon="0.39024">
        <ele>21.2</ele>
        <time>2020-06-18T08:20:01Z</time>
      </trkpt>
      <trkpt lat="49.75295" lon="0.39032">
        <ele>21.2</ele>
        <time>2020-06-18T08:20:02Z</time>
      </trkpt>
      <trkpt lat="49.75294" lon="0.39041">
        <ele>21.2</ele>
        <time>2020-06-18T08:20:03Z</time>
      </trkpt>
      <trkpt lat="49.75293" lon="0.39049">
        <ele>21.2</ele>
        <time>2020-06-18T08:20:04Z</time>
      </trkpt>
      <trkpt lat="49.75292" lon="0.39057">
        <ele>21.2</ele>
        <time>2020-06-18T08:20:05Z</time>
      </trkpt>
      <trkpt lat="49.7529" lon="0.39066">
        <ele>21.1</ele>
        <time>2020-06-18T08:20:06Z</time>
      </trkpt>
      <trkpt lat="49.75288" lon="0.39074">
        <ele>21.1</ele>
        <time>2020-06-18T08:20:07Z</time>
      </trkpt>
      <trkpt lat="49.75287" lon="0.39083">
        <ele>21.1</ele>
        <time>2020-06-18T08:20:08Z</time>
      </trkpt>
      <trkpt lat="49.75286" lon="0.39092">
        <ele>21</ele>
        <time>2020-06-18T08:20:09Z</time>
      </trkpt>
      <trkpt lat="49.75285" lon="0.391">
        <ele>21</ele>
        <time>2020-06-18T08:20:10Z</time>
      </trkpt>
      <trkpt lat="49.75285" lon="0.39109">
        <ele>20.9</ele>
        <time>2020-06-18T08:20:11Z</time>
      </trkpt>
      <trkpt lat="49.75284" lon="0.39118">
        <ele>20.9</ele>
        <time>2020-06-18T08:20:12Z</time>
      </trkpt>
      <trkpt lat="49.75282" lon="0.39126">
        <ele>20.9</ele>
        <time>2020-06-18T08:20:13Z</time>
      </trkpt>
      <trkpt lat="49.7528" lon="0.39135">
        <ele>20.8</ele>
        <time>2020-06-18T08:20:14Z</time>
      </trkpt>
      <trkpt lat="49.75279" lon="0.39144">
        <ele>20.8</ele>
        <time>2020-06-18T08:20:15Z</time>
      </trkpt>
      <trkpt lat="49.75278" lon="0.39152">
        <ele>20.9</ele>
        <time>2020-06-18T08:20:16Z</time>
      </trkpt>
      <trkpt lat="49.75277" lon="0.39162">
        <ele>20.9</ele>
        <time>2020-06-18T08:20:17Z</time>
      </trkpt>
      <trkpt lat="49.75275" lon="0.3917">
        <ele>20.8</ele>
        <time>2020-06-18T08:20:18Z</time>
      </trkpt>
      <trkpt lat="49.75274" lon="0.3918">
        <ele>20.8</ele>
        <time>2020-06-18T08:20:19Z</time>
      </trkpt>
      <trkpt lat="49.75272" lon="0.3919">
        <ele>20.8</ele>
        <time>2020-06-18T08:20:20Z</time>
      </trkpt>
      <trkpt lat="49.75271" lon="0.39199">
        <ele>20.8</ele>
        <time>2020-06-18T08:20:21Z</time>
      </trkpt>
      <trkpt lat="49.75267" lon="0.39208">
        <ele>20.8</ele>
        <time>2020-06-18T08:20:22Z</time>
      </trkpt>
      <trkpt lat="49.75265" lon="0.39216">
        <ele>20.7</ele>
        <time>2020-06-18T08:20:23Z</time>
      </trkpt>
      <trkpt lat="49.75263" lon="0.39226">
        <ele>20.7</ele>
        <time>2020-06-18T08:20:24Z</time>
      </trkpt>
      <trkpt lat="49.75261" lon="0.39235">
        <ele>20.7</ele>
        <time>2020-06-18T08:20:25Z</time>
      </trkpt>
      <trkpt lat="49.7526" lon="0.39243">
        <ele>20.6</ele>
        <time>2020-06-18T08:20:26Z</time>
      </trkpt>
      <trkpt lat="49.75258" lon="0.39253">
        <ele>20.6</ele>
        <time>2020-06-18T08:20:27Z</time>
      </trkpt>
      <trkpt lat="49.75256" lon="0.39262">
        <ele>20.6</ele>
        <time>2020-06-18T08:20:28Z</time>
      </trkpt>
      <trkpt lat="49.75256" lon="0.39271">
        <ele>20.6</ele>
        <time>2020-06-18T08:20:29Z</time>
      </trkpt>
      <trkpt lat="49.75254" lon="0.39278">
        <ele>20.6</ele>
        <time>2020-06-18T08:20:30Z</time>
      </trkpt>
      <trkpt lat="49.75253" lon="0.39286">
        <ele>20.5</ele>
        <time>2020-06-18T08:20:31Z</time>
      </trkpt>
      <trkpt lat="49.75252" lon="0.39295">
        <ele>20.5</ele>
        <time>2020-06-18T08:20:32Z</time>
      </trkpt>
      <trkpt lat="49.75251" lon="0.39303">
        <ele>20.4</ele>
        <time>2020-06-18T08:20:33Z</time>
      </trkpt>
      <trkpt lat="49.7525" lon="0.39314">
        <ele>20.4</ele>
        <time>2020-06-18T08:20:34Z</time>
      </trkpt>
      <trkpt lat="49.75248" lon="0.39323">
        <ele>20.4</ele>
        <time>2020-06-18T08:20:35Z</time>
      </trkpt>
      <trkpt lat="49.75247" lon="0.39332">
        <ele>20.4</ele>
        <time>2020-06-18T08:20:36Z</time>
      </trkpt>
      <trkpt lat="49.75246" lon="0.39342">
        <ele>20.3</ele>
        <time>2020-06-18T08:20:37Z</time>
      </trkpt>
      <trkpt lat="49.75244" lon="0.39351">
        <ele>20.3</ele>
        <time>2020-06-18T08:20:38Z</time>
      </trkpt>
      <trkpt lat="49.75243" lon="0.39361">
        <ele>20.3</ele>
        <time>2020-06-18T08:20:39Z</time>
      </trkpt>
      <trkpt lat="49.75241" lon="0.39369">
        <ele>20.3</ele>
        <time>2020-06-18T08:20:40Z</time>
      </trkpt>
      <trkpt lat="49.7524" lon="0.39377">
        <ele>20.3</ele>
        <time>2020-06-18T08:20:41Z</time>
      </trkpt>
      <trkpt lat="49.75239" lon="0.39386">
        <ele>20.3</ele>
        <time>2020-06-18T08:20:42Z</time>
      </trkpt>
      <trkpt lat="49.75238" lon="0.39393">
        <ele>20.2</ele>
        <time>2020-06-18T08:20:43Z</time>
      </trkpt>
      <trkpt lat="49.75238" lon="0.39399">
        <ele>20.2</ele>
        <time>2020-06-18T08:20:44Z</time>
      </trkpt>
      <trkpt lat="49.75237" lon="0.39407">
        <ele>20.2</ele>
        <time>2020-06-18T08:20:45Z</time>
      </trkpt>
      <trkpt lat="49.75237" lon="0.39414">
        <ele>20.1</ele>
        <time>2020-06-18T08:20:46Z</time>
      </trkpt>
      <trkpt lat="49.75235" lon="0.39423">
        <ele>20.1</ele>
        <time>2020-06-18T08:20:47Z</time>
      </trkpt>
      <trkpt lat="49.75234" lon="0.39431">
        <ele>20.1</ele>
        <time>2020-06-18T08:20:48Z</time>
      </trkpt>
      <trkpt lat="49.75233" lon="0.39439">
        <ele>20.1</ele>
        <time>2020-06-18T08:20:49Z</time>
      </trkpt>
      <trkpt lat="49.75232" lon="0.39447">
        <ele>20.2</ele>
        <time>2020-06-18T08:20:50Z</time>
      </trkpt>
      <trkpt lat="49.7523" lon="0.39456">
        <ele>20.2</ele>
        <time>2020-06-18T08:20:51Z</time>
      </trkpt>
      <trkpt lat="49.75229" lon="0.39463">
        <ele>20.2</ele>
        <time>2020-06-18T08:20:52Z</time>
      </trkpt>
      <trkpt lat="49.75228" lon="0.39471">
        <ele>20.3</ele>
        <time>2020-06-18T08:20:53Z</time>
      </trkpt>
      <trkpt lat="49.75227" lon="0.3948">
        <ele>20.3</ele>
        <time>2020-06-18T08:20:54Z</time>
      </trkpt>
      <trkpt lat="49.75225" lon="0.39489">
        <ele>20.3</ele>
        <time>2020-06-18T08:20:55Z</time>
      </trkpt>
      <trkpt lat="49.75224" lon="0.39497">
        <ele>20.3</ele>
        <time>2020-06-18T08:20:56Z</time>
      </trkpt>
      <trkpt lat="49.75222" lon="0.39506">
        <ele>20.3</ele>
        <time>2020-06-18T08:20:57Z</time>
      </trkpt>
      <trkpt lat="49.75221" lon="0.39515">
        <ele>20.3</ele>
        <time>2020-06-18T08:20:58Z</time>
      </trkpt>
      <trkpt lat="49.7522" lon="0.39525">
        <ele>20.2</ele>
        <time>2020-06-18T08:20:59Z</time>
      </trkpt>
      <trkpt lat="49.75218" lon="0.39535">
        <ele>20.2</ele>
        <time>2020-06-18T08:21:00Z</time>
      </trkpt>
      <trkpt lat="49.75216" lon="0.39543">
        <ele>20.2</ele>
        <time>2020-06-18T08:21:01Z</time>
      </trkpt>
      <trkpt lat="49.75214" lon="0.39551">
        <ele>20.1</ele>
        <time>2020-06-18T08:21:02Z</time>
      </trkpt>
      <trkpt lat="49.75213" lon="0.3956">
        <ele>20.1</ele>
        <time>2020-06-18T08:21:03Z</time>
      </trkpt>
      <trkpt lat="49.75211" lon="0.3957">
        <ele>20</ele>
        <time>2020-06-18T08:21:04Z</time>
      </trkpt>
      <trkpt lat="49.7521" lon="0.39579">
        <ele>20</ele>
        <time>2020-06-18T08:21:05Z</time>
      </trkpt>
      <trkpt lat="49.75208" lon="0.39587">
        <ele>19.9</ele>
        <time>2020-06-18T08:21:06Z</time>
      </trkpt>
      <trkpt lat="49.75207" lon="0.39595">
        <ele>19.9</ele>
        <time>2020-06-18T08:21:07Z</time>
      </trkpt>
      <trkpt lat="49.75205" lon="0.39604">
        <ele>19.8</ele>
        <time>2020-06-18T08:21:08Z</time>
      </trkpt>
      <trkpt lat="49.75203" lon="0.39613">
        <ele>19.8</ele>
        <time>2020-06-18T08:21:09Z</time>
      </trkpt>
      <trkpt lat="49.75201" lon="0.39622">
        <ele>19.8</ele>
        <time>2020-06-18T08:21:10Z</time>
      </trkpt>
      <trkpt lat="49.752" lon="0.39631">
        <ele>19.8</ele>
        <time>2020-06-18T08:21:11Z</time>
      </trkpt>
      <trkpt lat="49.75199" lon="0.39639">
        <ele>19.8</ele>
        <time>2020-06-18T08:21:12Z</time>
      </trkpt>
      <trkpt lat="49.75198" lon="0.39648">
        <ele>19.7</ele>
        <time>2020-06-18T08:21:13Z</time>
      </trkpt>
      <trkpt lat="49.75197" lon="0.39656">
        <ele>19.7</ele>
        <time>2020-06-18T08:21:14Z</time>
      </trkpt>
      <trkpt lat="49.75196" lon="0.39664">
        <ele>19.7</ele>
        <time>2020-06-18T08:21:15Z</time>
      </trkpt>
      <trkpt lat="49.75196" lon="0.39673">
        <ele>19.7</ele>
        <time>2020-06-18T08:21:16Z</time>
      </trkpt>
      <trkpt lat="49.75195" lon="0.39681">
        <ele>19.7</ele>
        <time>2020-06-18T08:21:17Z</time>
      </trkpt>
      <trkpt lat="49.75194" lon="0.39692">
        <ele>19.6</ele>
        <time>2020-06-18T08:21:18Z</time>
      </trkpt>
      <trkpt lat="49.75193" lon="0.39701">
        <ele>19.6</ele>
        <time>2020-06-18T08:21:19Z</time>
      </trkpt>
      <trkpt lat="49.75191" lon="0.39711">
        <ele>19.5</ele>
        <time>2020-06-18T08:21:20Z</time>
      </trkpt>
      <trkpt lat="49.7519" lon="0.3972">
        <ele>19.5</ele>
        <time>2020-06-18T08:21:21Z</time>
      </trkpt>
      <trkpt lat="49.75188" lon="0.39728">
        <ele>19.5</ele>
        <time>2020-06-18T08:21:22Z</time>
      </trkpt>
      <trkpt lat="49.75186" lon="0.39736">
        <ele>19.5</ele>
        <time>2020-06-18T08:21:23Z</time>
      </trkpt>
      <trkpt lat="49.75185" lon="0.39744">
        <ele>19.5</ele>
        <time>2020-06-18T08:21:24Z</time>
      </trkpt>
      <trkpt lat="49.75184" lon="0.39753">
        <ele>19.5</ele>
        <time>2020-06-18T08:21:25Z</time>
      </trkpt>
      <trkpt lat="49.75183" lon="0.39761">
        <ele>19.5</ele>
        <time>2020-06-18T08:21:26Z</time>
      </trkpt>
      <trkpt lat="49.75183" lon="0.3977">
        <ele>19.5</ele>
        <time>2020-06-18T08:21:27Z</time>
      </trkpt>
      <trkpt lat="49.75182" lon="0.39778">
        <ele>19.5</ele>
        <time>2020-06-18T08:21:28Z</time>
      </trkpt>
      <trkpt lat="49.75181" lon="0.39787">
        <ele>19.4</ele>
        <time>2020-06-18T08:21:29Z</time>
      </trkpt>
      <trkpt lat="49.75179" lon="0.39796">
        <ele>19.4</ele>
        <time>2020-06-18T08:21:30Z</time>
      </trkpt>
      <trkpt lat="49.75178" lon="0.39804">
        <ele>19.4</ele>
        <time>2020-06-18T08:21:31Z</time>
      </trkpt>
      <trkpt lat="49.75177" lon="0.39813">
        <ele>19.3</ele>
        <time>2020-06-18T08:21:32Z</time>
      </trkpt>
      <trkpt lat="49.75175" lon="0.39822">
        <ele>19.3</ele>
        <time>2020-06-18T08:21:33Z</time>
      </trkpt>
      <trkpt lat="49.75174" lon="0.39831">
        <ele>19.3</ele>
        <time>2020-06-18T08:21:34Z</time>
      </trkpt>
      <trkpt lat="49.75173" lon="0.3984">
        <ele>19.2</ele>
        <time>2020-06-18T08:21:35Z</time>
      </trkpt>
      <trkpt lat="49.75171" lon="0.39849">
        <ele>19.2</ele>
        <time>2020-06-18T08:21:36Z</time>
      </trkpt>
      <trkpt lat="49.7517" lon="0.39857">
        <ele>19.1</ele>
        <time>2020-06-18T08:21:37Z</time>
      </trkpt>
      <trkpt lat="49.75169" lon="0.39866">
        <ele>19.1</ele>
        <time>2020-06-18T08:21:38Z</time>
      </trkpt>
      <trkpt lat="49.75167" lon="0.39875">
        <ele>19.1</ele>
        <time>2020-06-18T08:21:39Z</time>
      </trkpt>
      <trkpt lat="49.75163" lon="0.39882">
        <ele>19.1</ele>
        <time>2020-06-18T08:21:40Z</time>
      </trkpt>
      <trkpt lat="49.7516" lon="0.39891">
        <ele>19</ele>
        <time>2020-06-18T08:21:41Z</time>
      </trkpt>
      <trkpt lat="49.75159" lon="0.39902">
        <ele>19</ele>
        <time>2020-06-18T08:21:42Z</time>
      </trkpt>
      <trkpt lat="49.75158" lon="0.39912">
        <ele>19</ele>
        <time>2020-06-18T08:21:43Z</time>
      </trkpt>
      <trkpt lat="49.75156" lon="0.39921">
        <ele>18.9</ele>
        <time>2020-06-18T08:21:44Z</time>
      </trkpt>
      <trkpt lat="49.75154" lon="0.39931">
        <ele>18.9</ele>
        <time>2020-06-18T08:21:45Z</time>
      </trkpt>
      <trkpt lat="49.75152" lon="0.39941">
        <ele>18.8</ele>
        <time>2020-06-18T08:21:46Z</time>
      </trkpt>
      <trkpt lat="49.75152" lon="0.39951">
        <ele>18.7</ele>
        <time>2020-06-18T08:21:47Z</time>
      </trkpt>
      <trkpt lat="49.7515" lon="0.3996">
        <ele>18.7</ele>
        <time>2020-06-18T08:21:48Z</time>
      </trkpt>
      <trkpt lat="49.75149" lon="0.39968">
        <ele>18.6</ele>
        <time>2020-06-18T08:21:49Z</time>
      </trkpt>
      <trkpt lat="49.75149" lon="0.39978">
        <ele>18.5</ele>
        <time>2020-06-18T08:21:50Z</time>
      </trkpt>
      <trkpt lat="49.75148" lon="0.39988">
        <ele>18.5</ele>
        <time>2020-06-18T08:21:51Z</time>
      </trkpt>
      <trkpt lat="49.75147" lon="0.39998">
        <ele>18.4</ele>
        <time>2020-06-18T08:21:52Z</time>
      </trkpt>
      <trkpt lat="49.75145" lon="0.40007">
        <ele>18.4</ele>
        <time>2020-06-18T08:21:53Z</time>
      </trkpt>
      <trkpt lat="49.75143" lon="0.40015">
        <ele>18.3</ele>
        <time>2020-06-18T08:21:54Z</time>
      </trkpt>
      <trkpt lat="49.75141" lon="0.40024">
        <ele>18.2</ele>
        <time>2020-06-18T08:21:55Z</time>
      </trkpt>
      <trkpt lat="49.7514" lon="0.40035">
        <ele>18.1</ele>
        <time>2020-06-18T08:21:56Z</time>
      </trkpt>
      <trkpt lat="49.75138" lon="0.40045">
        <ele>18</ele>
        <time>2020-06-18T08:21:57Z</time>
      </trkpt>
      <trkpt lat="49.75136" lon="0.40055">
        <ele>17.9</ele>
        <time>2020-06-18T08:21:58Z</time>
      </trkpt>
      <trkpt lat="49.75134" lon="0.40064">
        <ele>17.9</ele>
        <time>2020-06-18T08:21:59Z</time>
      </trkpt>
      <trkpt lat="49.75132" lon="0.40073">
        <ele>17.9</ele>
        <time>2020-06-18T08:22:00Z</time>
      </trkpt>
      <trkpt lat="49.75131" lon="0.40081">
        <ele>17.9</ele>
        <time>2020-06-18T08:22:01Z</time>
      </trkpt>
      <trkpt lat="49.75129" lon="0.40091">
        <ele>17.9</ele>
        <time>2020-06-18T08:22:02Z</time>
      </trkpt>
      <trkpt lat="49.75128" lon="0.401">
        <ele>17.9</ele>
        <time>2020-06-18T08:22:03Z</time>
      </trkpt>
      <trkpt lat="49.75126" lon="0.4011">
        <ele>17.9</ele>
        <time>2020-06-18T08:22:04Z</time>
      </trkpt>
      <trkpt lat="49.75125" lon="0.40121">
        <ele>17.8</ele>
        <time>2020-06-18T08:22:05Z</time>
      </trkpt>
      <trkpt lat="49.75123" lon="0.40131">
        <ele>17.7</ele>
        <time>2020-06-18T08:22:06Z</time>
      </trkpt>
      <trkpt lat="49.75121" lon="0.40141">
        <ele>17.7</ele>
        <time>2020-06-18T08:22:07Z</time>
      </trkpt>
      <trkpt lat="49.7512" lon="0.40153">
        <ele>17.6</ele>
        <time>2020-06-18T08:22:08Z</time>
      </trkpt>
      <trkpt lat="49.75118" lon="0.40162">
        <ele>17.5</ele>
        <time>2020-06-18T08:22:09Z</time>
      </trkpt>
      <trkpt lat="49.75117" lon="0.40172">
        <ele>17.4</ele>
        <time>2020-06-18T08:22:10Z</time>
      </trkpt>
      <trkpt lat="49.75115" lon="0.40182">
        <ele>17.4</ele>
        <time>2020-06-18T08:22:11Z</time>
      </trkpt>
      <trkpt lat="49.75114" lon="0.4019">
        <ele>17.3</ele>
        <time>2020-06-18T08:22:12Z</time>
      </trkpt>
      <trkpt lat="49.75112" lon="0.402">
        <ele>17.3</ele>
        <time>2020-06-18T08:22:13Z</time>
      </trkpt>
      <trkpt lat="49.7511" lon="0.4021">
        <ele>17.2</ele>
        <time>2020-06-18T08:22:14Z</time>
      </trkpt>
      <trkpt lat="49.75109" lon="0.40219">
        <ele>17.2</ele>
        <time>2020-06-18T08:22:15Z</time>
      </trkpt>
      <trkpt lat="49.75108" lon="0.40228">
        <ele>17.2</ele>
        <time>2020-06-18T08:22:16Z</time>
      </trkpt>
      <trkpt lat="49.75106" lon="0.40238">
        <ele>17.1</ele>
        <time>2020-06-18T08:22:17Z</time>
      </trkpt>
      <trkpt lat="49.75104" lon="0.40248">
        <ele>17</ele>
        <time>2020-06-18T08:22:18Z</time>
      </trkpt>
      <trkpt lat="49.75103" lon="0.40256">
        <ele>17</ele>
        <time>2020-06-18T08:22:19Z</time>
      </trkpt>
      <trkpt lat="49.75101" lon="0.40265">
        <ele>16.9</ele>
        <time>2020-06-18T08:22:20Z</time>
      </trkpt>
      <trkpt lat="49.75099" lon="0.40273">
        <ele>16.9</ele>
        <time>2020-06-18T08:22:21Z</time>
      </trkpt>
      <trkpt lat="49.75098" lon="0.40281">
        <ele>16.9</ele>
        <time>2020-06-18T08:22:22Z</time>
      </trkpt>
      <trkpt lat="49.75096" lon="0.40288">
        <ele>16.9</ele>
        <time>2020-06-18T08:22:23Z</time>
      </trkpt>
      <trkpt lat="49.75094" lon="0.40295">
        <ele>16.9</ele>
        <time>2020-06-18T08:22:24Z</time>
      </trkpt>
      <trkpt lat="49.75092" lon="0.40301">
        <ele>17</ele>
        <time>2020-06-18T08:22:25Z</time>
      </trkpt>
      <trkpt lat="49.75091" lon="0.40306">
        <ele>17</ele>
        <time>2020-06-18T08:22:26Z</time>
      </trkpt>
      <trkpt lat="49.75089" lon="0.4031">
        <ele>17</ele>
        <time>2020-06-18T08:22:27Z</time>
      </trkpt>
      <trkpt lat="49.75086" lon="0.40311">
        <ele>17</ele>
        <time>2020-06-18T08:22:28Z</time>
      </trkpt>
      <trkpt lat="49.75083" lon="0.40314">
        <ele>17</ele>
        <time>2020-06-18T08:22:29Z</time>
      </trkpt>
      <trkpt lat="49.75081" lon="0.40316">
        <ele>17</ele>
        <time>2020-06-18T08:22:30Z</time>
      </trkpt>
      <trkpt lat="49.75077" lon="0.40319">
        <ele>17</ele>
        <time>2020-06-18T08:22:31Z</time>
      </trkpt>
      <trkpt lat="49.75073" lon="0.40322">
        <ele>17</ele>
        <time>2020-06-18T08:22:32Z</time>
      </trkpt>
      <trkpt lat="49.7507" lon="0.40327">
        <ele>17.3</ele>
        <time>2020-06-18T08:22:33Z</time>
      </trkpt>
      <trkpt lat="49.75069" lon="0.40334">
        <ele>17.4</ele>
        <time>2020-06-18T08:22:34Z</time>
      </trkpt>
      <trkpt lat="49.7507" lon="0.40341">
        <ele>17.5</ele>
        <time>2020-06-18T08:22:35Z</time>
      </trkpt>
      <trkpt lat="49.75072" lon="0.40347">
        <ele>17.9</ele>
        <time>2020-06-18T08:22:36Z</time>
      </trkpt>
      <trkpt lat="49.75076" lon="0.40351">
        <ele>17.9</ele>
        <time>2020-06-18T08:22:37Z</time>
      </trkpt>
      <trkpt lat="49.7508" lon="0.40353">
        <ele>17.8</ele>
        <time>2020-06-18T08:22:38Z</time>
      </trkpt>
      <trkpt lat="49.75084" lon="0.40358">
        <ele>17.8</ele>
        <time>2020-06-18T08:22:39Z</time>
      </trkpt>
      <trkpt lat="49.75089" lon="0.40362">
        <ele>17.6</ele>
        <time>2020-06-18T08:22:40Z</time>
      </trkpt>
      <trkpt lat="49.75093" lon="0.40366">
        <ele>17.3</ele>
        <time>2020-06-18T08:22:41Z</time>
      </trkpt>
      <trkpt lat="49.75096" lon="0.4037">
        <ele>17</ele>
        <time>2020-06-18T08:22:42Z</time>
      </trkpt>
      <trkpt lat="49.75099" lon="0.40376">
        <ele>16.7</ele>
        <time>2020-06-18T08:22:43Z</time>
      </trkpt>
      <trkpt lat="49.75101" lon="0.40385">
        <ele>16.5</ele>
        <time>2020-06-18T08:22:44Z</time>
      </trkpt>
      <trkpt lat="49.75104" lon="0.40395">
        <ele>16.3</ele>
        <time>2020-06-18T08:22:45Z</time>
      </trkpt>
      <trkpt lat="49.75106" lon="0.40404">
        <ele>16.2</ele>
        <time>2020-06-18T08:22:46Z</time>
      </trkpt>
      <trkpt lat="49.75108" lon="0.40414">
        <ele>16.1</ele>
        <time>2020-06-18T08:22:47Z</time>
      </trkpt>
      <trkpt lat="49.75109" lon="0.40422">
        <ele>16</ele>
        <time>2020-06-18T08:22:48Z</time>
      </trkpt>
      <trkpt lat="49.7511" lon="0.40429">
        <ele>16</ele>
        <time>2020-06-18T08:22:49Z</time>
      </trkpt>
      <trkpt lat="49.7511" lon="0.40436">
        <ele>15.9</ele>
        <time>2020-06-18T08:22:50Z</time>
      </trkpt>
      <trkpt lat="49.75111" lon="0.40445">
        <ele>15.9</ele>
        <time>2020-06-18T08:22:51Z</time>
      </trkpt>
      <trkpt lat="49.75113" lon="0.40454">
        <ele>15.9</ele>
        <time>2020-06-18T08:22:52Z</time>
      </trkpt>
      <trkpt lat="49.75114" lon="0.40459">
        <ele>15.9</ele>
        <time>2020-06-18T08:22:53Z</time>
      </trkpt>
      <trkpt lat="49.75116" lon="0.40467">
        <ele>15.9</ele>
        <time>2020-06-18T08:22:54Z</time>
      </trkpt>
      <trkpt lat="49.75117" lon="0.40475">
        <ele>15.9</ele>
        <time>2020-06-18T08:22:55Z</time>
      </trkpt>
      <trkpt lat="49.75119" lon="0.40482">
        <ele>15.9</ele>
        <time>2020-06-18T08:22:56Z</time>
      </trkpt>
      <trkpt lat="49.7512" lon="0.40491">
        <ele>15.9</ele>
        <time>2020-06-18T08:22:57Z</time>
      </trkpt>
      <trkpt lat="49.7512" lon="0.40498">
        <ele>15.9</ele>
        <time>2020-06-18T08:22:58Z</time>
      </trkpt>
      <trkpt lat="49.75119" lon="0.40502">
        <ele>15.9</ele>
        <time>2020-06-18T08:22:59Z</time>
      </trkpt>
      <trkpt lat="49.75118" lon="0.40509">
        <ele>15.8</ele>
        <time>2020-06-18T08:23:00Z</time>
      </trkpt>
      <trkpt lat="49.75118" lon="0.40511">
        <ele>15.8</ele>
        <time>2020-06-18T08:23:01Z</time>
      </trkpt>
      <trkpt lat="49.75118" lon="0.40516">
        <ele>15.8</ele>
        <time>2020-06-18T08:23:02Z</time>
      </trkpt>
      <trkpt lat="49.75117" lon="0.40517">
        <ele>15.8</ele>
        <time>2020-06-18T08:23:03Z</time>
      </trkpt>
      <trkpt lat="49.75117" lon="0.40517">
        <ele>15.8</ele>
        <time>2020-06-18T08:23:04Z</time>
      </trkpt>
      <trkpt lat="49.75117" lon="0.40514">
        <ele>15.8</ele>
        <time>2020-06-18T08:23:05Z</time>
      </trkpt>
      <trkpt lat="49.75117" lon="0.40513">
        <ele>15.8</ele>
        <time>2020-06-18T08:23:06Z</time>
      </trkpt>
      <trkpt lat="49.75117" lon="0.40513">
        <ele>15.8</ele>
        <time>2020-06-18T08:23:07Z</time>
      </trkpt>
      <trkpt lat="49.75117" lon="0.40514">
        <ele>15.8</ele>
        <time>2020-06-18T08:23:08Z</time>
      </trkpt>
      <trkpt lat="49.75116" lon="0.40517">
        <ele>15.7</ele>
        <time>2020-06-18T08:23:09Z</time>
      </trkpt>
      <trkpt lat="49.75115" lon="0.40522">
        <ele>15.7</ele>
        <time>2020-06-18T08:23:10Z</time>
      </trkpt>
      <trkpt lat="49.75115" lon="0.40524">
        <ele>15.7</ele>
        <time>2020-06-18T08:23:11Z</time>
      </trkpt>
      <trkpt lat="49.75113" lon="0.40528">
        <ele>15.7</ele>
        <time>2020-06-18T08:23:12Z</time>
      </trkpt>
      <trkpt lat="49.75112" lon="0.40529">
        <ele>15.7</ele>
        <time>2020-06-18T08:23:13Z</time>
      </trkpt>
      <trkpt lat="49.7511" lon="0.40533">
        <ele>15.7</ele>
        <time>2020-06-18T08:23:14Z</time>
      </trkpt>
      <trkpt lat="49.75108" lon="0.40537">
        <ele>15.6</ele>
        <time>2020-06-18T08:23:15Z</time>
      </trkpt>
      <trkpt lat="49.75106" lon="0.40542">
        <ele>15.6</ele>
        <time>2020-06-18T08:23:16Z</time>
      </trkpt>
      <trkpt lat="49.75106" lon="0.40547">
        <ele>15.6</ele>
        <time>2020-06-18T08:23:17Z</time>
      </trkpt>
      <trkpt lat="49.75104" lon="0.40551">
        <ele>15.6</ele>
        <time>2020-06-18T08:23:18Z</time>
      </trkpt>
      <trkpt lat="49.75102" lon="0.40554">
        <ele>15.6</ele>
        <time>2020-06-18T08:23:19Z</time>
      </trkpt>
      <trkpt lat="49.751" lon="0.40558">
        <ele>15.7</ele>
        <time>2020-06-18T08:23:20Z</time>
      </trkpt>
      <trkpt lat="49.75099" lon="0.40563">
        <ele>15.7</ele>
        <time>2020-06-18T08:23:21Z</time>
      </trkpt>
      <trkpt lat="49.75096" lon="0.40568">
        <ele>15.7</ele>
        <time>2020-06-18T08:23:22Z</time>
      </trkpt>
      <trkpt lat="49.75094" lon="0.40573">
        <ele>15.7</ele>
        <time>2020-06-18T08:23:23Z</time>
      </trkpt>
      <trkpt lat="49.75091" lon="0.40579">
        <ele>15.7</ele>
        <time>2020-06-18T08:23:24Z</time>
      </trkpt>
      <trkpt lat="49.75088" lon="0.40584">
        <ele>15.7</ele>
        <time>2020-06-18T08:23:25Z</time>
      </trkpt>
      <trkpt lat="49.75084" lon="0.4059">
        <ele>15.7</ele>
        <time>2020-06-18T08:23:26Z</time>
      </trkpt>
      <trkpt lat="49.75081" lon="0.40599">
        <ele>15.7</ele>
        <time>2020-06-18T08:23:27Z</time>
      </trkpt>
      <trkpt lat="49.75078" lon="0.40607">
        <ele>15.6</ele>
        <time>2020-06-18T08:23:28Z</time>
      </trkpt>
      <trkpt lat="49.75074" lon="0.40615">
        <ele>15.6</ele>
        <time>2020-06-18T08:23:29Z</time>
      </trkpt>
      <trkpt lat="49.7507" lon="0.40623">
        <ele>15.6</ele>
        <time>2020-06-18T08:23:30Z</time>
      </trkpt>
      <trkpt lat="49.75067" lon="0.40631">
        <ele>15.6</ele>
        <time>2020-06-18T08:23:31Z</time>
      </trkpt>
      <trkpt lat="49.75064" lon="0.4064">
        <ele>15.6</ele>
        <time>2020-06-18T08:23:32Z</time>
      </trkpt>
      <trkpt lat="49.7506" lon="0.40647">
        <ele>15.6</ele>
        <time>2020-06-18T08:23:33Z</time>
      </trkpt>
      <trkpt lat="49.75057" lon="0.40656">
        <ele>15.7</ele>
        <time>2020-06-18T08:23:34Z</time>
      </trkpt>
      <trkpt lat="49.75053" lon="0.40665">
        <ele>15.7</ele>
        <time>2020-06-18T08:23:35Z</time>
      </trkpt>
      <trkpt lat="49.75049" lon="0.40674">
        <ele>15.7</ele>
        <time>2020-06-18T08:23:36Z</time>
      </trkpt>
      <trkpt lat="49.75045" lon="0.40682">
        <ele>15.7</ele>
        <time>2020-06-18T08:23:37Z</time>
      </trkpt>
      <trkpt lat="49.75041" lon="0.4069">
        <ele>15.7</ele>
        <time>2020-06-18T08:23:38Z</time>
      </trkpt>
      <trkpt lat="49.75038" lon="0.40697">
        <ele>15.7</ele>
        <time>2020-06-18T08:23:39Z</time>
      </trkpt>
      <trkpt lat="49.75033" lon="0.40706">
        <ele>15.7</ele>
        <time>2020-06-18T08:23:40Z</time>
      </trkpt>
      <trkpt lat="49.75029" lon="0.40714">
        <ele>15.7</ele>
        <time>2020-06-18T08:23:41Z</time>
      </trkpt>
      <trkpt lat="49.75026" lon="0.40721">
        <ele>15.6</ele>
        <time>2020-06-18T08:23:42Z</time>
      </trkpt>
      <trkpt lat="49.75022" lon="0.4073">
        <ele>15.6</ele>
        <time>2020-06-18T08:23:43Z</time>
      </trkpt>
      <trkpt lat="49.75019" lon="0.40736">
        <ele>15.6</ele>
        <time>2020-06-18T08:23:44Z</time>
      </trkpt>
      <trkpt lat="49.75015" lon="0.40744">
        <ele>15.6</ele>
        <time>2020-06-18T08:23:45Z</time>
      </trkpt>
      <trkpt lat="49.75011" lon="0.40753">
        <ele>15.6</ele>
        <time>2020-06-18T08:23:46Z</time>
      </trkpt>
      <trkpt lat="49.75006" lon="0.40763">
        <ele>15.5</ele>
        <time>2020-06-18T08:23:47Z</time>
      </trkpt>
      <trkpt lat="49.74999" lon="0.40774">
        <ele>15.5</ele>
        <time>2020-06-18T08:23:48Z</time>
      </trkpt>
      <trkpt lat="49.74994" lon="0.40786">
        <ele>15.5</ele>
        <time>2020-06-18T08:23:49Z</time>
      </trkpt>
      <trkpt lat="49.74989" lon="0.40795">
        <ele>15.5</ele>
        <time>2020-06-18T08:23:50Z</time>
      </trkpt>
      <trkpt lat="49.74984" lon="0.40804">
        <ele>15.5</ele>
        <time>2020-06-18T08:23:51Z</time>
      </trkpt>
      <trkpt lat="49.74981" lon="0.40813">
        <ele>15.5</ele>
        <time>2020-06-18T08:23:52Z</time>
      </trkpt>
      <trkpt lat="49.74976" lon="0.40821">
        <ele>15.5</ele>
        <time>2020-06-18T08:23:53Z</time>
      </trkpt>
      <trkpt lat="49.74973" lon="0.4083">
        <ele>15.6</ele>
        <time>2020-06-18T08:23:54Z</time>
      </trkpt>
      <trkpt lat="49.74969" lon="0.4084">
        <ele>15.6</ele>
        <time>2020-06-18T08:23:55Z</time>
      </trkpt>
      <trkpt lat="49.74966" lon="0.40848">
        <ele>15.6</ele>
        <time>2020-06-18T08:23:56Z</time>
      </trkpt>
      <trkpt lat="49.74963" lon="0.40856">
        <ele>15.6</ele>
        <time>2020-06-18T08:23:57Z</time>
      </trkpt>
      <trkpt lat="49.7496" lon="0.40866">
        <ele>15.6</ele>
        <time>2020-06-18T08:23:58Z</time>
      </trkpt>
      <trkpt lat="49.74957" lon="0.40876">
        <ele>15.6</ele>
        <time>2020-06-18T08:23:59Z</time>
      </trkpt>
      <trkpt lat="49.74953" lon="0.40886">
        <ele>15.5</ele>
        <time>2020-06-18T08:24:00Z</time>
      </trkpt>
      <trkpt lat="49.74949" lon="0.40894">
        <ele>15.5</ele>
        <time>2020-06-18T08:24:01Z</time>
      </trkpt>
      <trkpt lat="49.74944" lon="0.40903">
        <ele>15.5</ele>
        <time>2020-06-18T08:24:02Z</time>
      </trkpt>
      <trkpt lat="49.74941" lon="0.40911">
        <ele>15.4</ele>
        <time>2020-06-18T08:24:03Z</time>
      </trkpt>
      <trkpt lat="49.74937" lon="0.40921">
        <ele>15.4</ele>
        <time>2020-06-18T08:24:04Z</time>
      </trkpt>
      <trkpt lat="49.74933" lon="0.40929">
        <ele>15.4</ele>
        <time>2020-06-18T08:24:05Z</time>
      </trkpt>
      <trkpt lat="49.7493" lon="0.40936">
        <ele>15.4</ele>
        <time>2020-06-18T08:24:06Z</time>
      </trkpt>
      <trkpt lat="49.74927" lon="0.40944">
        <ele>15.4</ele>
        <time>2020-06-18T08:24:07Z</time>
      </trkpt>
      <trkpt lat="49.74923" lon="0.40953">
        <ele>15.4</ele>
        <time>2020-06-18T08:24:08Z</time>
      </trkpt>
      <trkpt lat="49.74919" lon="0.40963">
        <ele>15.4</ele>
        <time>2020-06-18T08:24:09Z</time>
      </trkpt>
      <trkpt lat="49.74915" lon="0.40971">
        <ele>15.5</ele>
        <time>2020-06-18T08:24:10Z</time>
      </trkpt>
      <trkpt lat="49.74911" lon="0.4098">
        <ele>15.5</ele>
        <time>2020-06-18T08:24:11Z</time>
      </trkpt>
      <trkpt lat="49.74907" lon="0.40989">
        <ele>15.6</ele>
        <time>2020-06-18T08:24:12Z</time>
      </trkpt>
      <trkpt lat="49.74904" lon="0.40997">
        <ele>15.6</ele>
        <time>2020-06-18T08:24:13Z</time>
      </trkpt>
      <trkpt lat="49.74901" lon="0.41005">
        <ele>15.7</ele>
        <time>2020-06-18T08:24:14Z</time>
      </trkpt>
      <trkpt lat="49.74898" lon="0.41014">
        <ele>15.7</ele>
        <time>2020-06-18T08:24:15Z</time>
      </trkpt>
      <trkpt lat="49.74895" lon="0.41021">
        <ele>15.7</ele>
        <time>2020-06-18T08:24:16Z</time>
      </trkpt>
      <trkpt lat="49.74893" lon="0.41027">
        <ele>15.7</ele>
        <time>2020-06-18T08:24:17Z</time>
      </trkpt>
      <trkpt lat="49.7489" lon="0.41034">
        <ele>15.7</ele>
        <time>2020-06-18T08:24:18Z</time>
      </trkpt>
      <trkpt lat="49.74887" lon="0.41041">
        <ele>15.7</ele>
        <time>2020-06-18T08:24:19Z</time>
      </trkpt>
      <trkpt lat="49.74885" lon="0.41048">
        <ele>15.8</ele>
        <time>2020-06-18T08:24:20Z</time>
      </trkpt>
      <trkpt lat="49.74882" lon="0.41054">
        <ele>15.8</ele>
        <time>2020-06-18T08:24:21Z</time>
      </trkpt>
      <trkpt lat="49.74881" lon="0.41061">
        <ele>15.8</ele>
        <time>2020-06-18T08:24:22Z</time>
      </trkpt>
      <trkpt lat="49.74878" lon="0.41066">
        <ele>15.8</ele>
        <time>2020-06-18T08:24:23Z</time>
      </trkpt>
      <trkpt lat="49.74875" lon="0.41071">
        <ele>15.8</ele>
        <time>2020-06-18T08:24:24Z</time>
      </trkpt>
      <trkpt lat="49.74874" lon="0.41076">
        <ele>15.8</ele>
        <time>2020-06-18T08:24:25Z</time>
      </trkpt>
      <trkpt lat="49.74873" lon="0.41082">
        <ele>15.8</ele>
        <time>2020-06-18T08:24:26Z</time>
      </trkpt>
      <trkpt lat="49.74871" lon="0.41088">
        <ele>15.8</ele>
        <time>2020-06-18T08:24:27Z</time>
      </trkpt>
      <trkpt lat="49.74869" lon="0.41095">
        <ele>15.8</ele>
        <time>2020-06-18T08:24:28Z</time>
      </trkpt>
      <trkpt lat="49.74867" lon="0.41101">
        <ele>15.8</ele>
        <time>2020-06-18T08:24:29Z</time>
      </trkpt>
      <trkpt lat="49.74866" lon="0.41106">
        <ele>15.8</ele>
        <time>2020-06-18T08:24:30Z</time>
      </trkpt>
      <trkpt lat="49.74864" lon="0.41113">
        <ele>15.8</ele>
        <time>2020-06-18T08:24:31Z</time>
      </trkpt>
      <trkpt lat="49.74861" lon="0.41122">
        <ele>15.8</ele>
        <time>2020-06-18T08:24:32Z</time>
      </trkpt>
      <trkpt lat="49.74858" lon="0.4113">
        <ele>15.7</ele>
        <time>2020-06-18T08:24:33Z</time>
      </trkpt>
      <trkpt lat="49.74855" lon="0.4114">
        <ele>15.8</ele>
        <time>2020-06-18T08:24:34Z</time>
      </trkpt>
      <trkpt lat="49.74853" lon="0.41149">
        <ele>15.8</ele>
        <time>2020-06-18T08:24:35Z</time>
      </trkpt>
      <trkpt lat="49.7485" lon="0.41159">
        <ele>15.9</ele>
        <time>2020-06-18T08:24:36Z</time>
      </trkpt>
      <trkpt lat="49.74847" lon="0.41168">
        <ele>15.9</ele>
        <time>2020-06-18T08:24:37Z</time>
      </trkpt>
      <trkpt lat="49.74845" lon="0.41178">
        <ele>16</ele>
        <time>2020-06-18T08:24:38Z</time>
      </trkpt>
      <trkpt lat="49.74843" lon="0.41189">
        <ele>16</ele>
        <time>2020-06-18T08:24:39Z</time>
      </trkpt>
      <trkpt lat="49.7484" lon="0.41199">
        <ele>16.1</ele>
        <time>2020-06-18T08:24:40Z</time>
      </trkpt>
      <trkpt lat="49.74838" lon="0.41209">
        <ele>16.1</ele>
        <time>2020-06-18T08:24:41Z</time>
      </trkpt>
      <trkpt lat="49.74835" lon="0.41218">
        <ele>16.2</ele>
        <time>2020-06-18T08:24:42Z</time>
      </trkpt>
      <trkpt lat="49.74833" lon="0.41228">
        <ele>16.2</ele>
        <time>2020-06-18T08:24:43Z</time>
      </trkpt>
      <trkpt lat="49.74832" lon="0.41238">
        <ele>16.3</ele>
        <time>2020-06-18T08:24:44Z</time>
      </trkpt>
      <trkpt lat="49.74829" lon="0.41247">
        <ele>16.3</ele>
        <time>2020-06-18T08:24:45Z</time>
      </trkpt>
      <trkpt lat="49.74826" lon="0.41257">
        <ele>16.4</ele>
        <time>2020-06-18T08:24:46Z</time>
      </trkpt>
      <trkpt lat="49.74824" lon="0.41267">
        <ele>16.4</ele>
        <time>2020-06-18T08:24:47Z</time>
      </trkpt>
      <trkpt lat="49.74821" lon="0.41277">
        <ele>16.4</ele>
        <time>2020-06-18T08:24:48Z</time>
      </trkpt>
      <trkpt lat="49.74819" lon="0.41287">
        <ele>16.4</ele>
        <time>2020-06-18T08:24:49Z</time>
      </trkpt>
      <trkpt lat="49.74817" lon="0.41297">
        <ele>16.4</ele>
        <time>2020-06-18T08:24:50Z</time>
      </trkpt>
      <trkpt lat="49.74815" lon="0.41307">
        <ele>16.4</ele>
        <time>2020-06-18T08:24:51Z</time>
      </trkpt>
      <trkpt lat="49.74814" lon="0.41317">
        <ele>16.4</ele>
        <time>2020-06-18T08:24:52Z</time>
      </trkpt>
      <trkpt lat="49.74812" lon="0.41327">
        <ele>16.5</ele>
        <time>2020-06-18T08:24:53Z</time>
      </trkpt>
      <trkpt lat="49.7481" lon="0.41337">
        <ele>16.5</ele>
        <time>2020-06-18T08:24:54Z</time>
      </trkpt>
      <trkpt lat="49.74809" lon="0.41349">
        <ele>16.6</ele>
        <time>2020-06-18T08:24:55Z</time>
      </trkpt>
      <trkpt lat="49.74807" lon="0.4136">
        <ele>16.6</ele>
        <time>2020-06-18T08:24:56Z</time>
      </trkpt>
      <trkpt lat="49.74806" lon="0.41371">
        <ele>16.6</ele>
        <time>2020-06-18T08:24:57Z</time>
      </trkpt>
      <trkpt lat="49.74804" lon="0.41382">
        <ele>16.7</ele>
        <time>2020-06-18T08:24:58Z</time>
      </trkpt>
      <trkpt lat="49.74802" lon="0.41392">
        <ele>16.7</ele>
        <time>2020-06-18T08:24:59Z</time>
      </trkpt>
      <trkpt lat="49.74801" lon="0.41403">
        <ele>16.8</ele>
        <time>2020-06-18T08:25:00Z</time>
      </trkpt>
      <trkpt lat="49.748" lon="0.41414">
        <ele>16.9</ele>
        <time>2020-06-18T08:25:01Z</time>
      </trkpt>
      <trkpt lat="49.74799" lon="0.41424">
        <ele>16.9</ele>
        <time>2020-06-18T08:25:02Z</time>
      </trkpt>
      <trkpt lat="49.74798" lon="0.41434">
        <ele>17</ele>
        <time>2020-06-18T08:25:03Z</time>
      </trkpt>
      <trkpt lat="49.74797" lon="0.41444">
        <ele>17</ele>
        <time>2020-06-18T08:25:04Z</time>
      </trkpt>
      <trkpt lat="49.74796" lon="0.41453">
        <ele>17.1</ele>
        <time>2020-06-18T08:25:05Z</time>
      </trkpt>
      <trkpt lat="49.74795" lon="0.41463">
        <ele>17.1</ele>
        <time>2020-06-18T08:25:06Z</time>
      </trkpt>
      <trkpt lat="49.74795" lon="0.41473">
        <ele>17.1</ele>
        <time>2020-06-18T08:25:07Z</time>
      </trkpt>
      <trkpt lat="49.74794" lon="0.41482">
        <ele>17.1</ele>
        <time>2020-06-18T08:25:08Z</time>
      </trkpt>
      <trkpt lat="49.74793" lon="0.41492">
        <ele>17.2</ele>
        <time>2020-06-18T08:25:09Z</time>
      </trkpt>
      <trkpt lat="49.74792" lon="0.41503">
        <ele>17.3</ele>
        <time>2020-06-18T08:25:10Z</time>
      </trkpt>
      <trkpt lat="49.74791" lon="0.41512">
        <ele>17.3</ele>
        <time>2020-06-18T08:25:11Z</time>
      </trkpt>
      <trkpt lat="49.7479" lon="0.41522">
        <ele>17.4</ele>
        <time>2020-06-18T08:25:12Z</time>
      </trkpt>
      <trkpt lat="49.74789" lon="0.41531">
        <ele>17.5</ele>
        <time>2020-06-18T08:25:13Z</time>
      </trkpt>
      <trkpt lat="49.74787" lon="0.41539">
        <ele>17.5</ele>
        <time>2020-06-18T08:25:14Z</time>
      </trkpt>
      <trkpt lat="49.74787" lon="0.41549">
        <ele>17.6</ele>
        <time>2020-06-18T08:25:15Z</time>
      </trkpt>
      <trkpt lat="49.74785" lon="0.4156">
        <ele>17.6</ele>
        <time>2020-06-18T08:25:16Z</time>
      </trkpt>
      <trkpt lat="49.74783" lon="0.41571">
        <ele>17.6</ele>
        <time>2020-06-18T08:25:17Z</time>
      </trkpt>
      <trkpt lat="49.74782" lon="0.41584">
        <ele>17.7</ele>
        <time>2020-06-18T08:25:18Z</time>
      </trkpt>
      <trkpt lat="49.74781" lon="0.41596">
        <ele>17.7</ele>
        <time>2020-06-18T08:25:19Z</time>
      </trkpt>
      <trkpt lat="49.7478" lon="0.41607">
        <ele>17.7</ele>
        <time>2020-06-18T08:25:20Z</time>
      </trkpt>
      <trkpt lat="49.74778" lon="0.41619">
        <ele>17.8</ele>
        <time>2020-06-18T08:25:21Z</time>
      </trkpt>
      <trkpt lat="49.74777" lon="0.41629">
        <ele>17.8</ele>
        <time>2020-06-18T08:25:22Z</time>
      </trkpt>
      <trkpt lat="49.74777" lon="0.41641">
        <ele>17.8</ele>
        <time>2020-06-18T08:25:23Z</time>
      </trkpt>
      <trkpt lat="49.74777" lon="0.41652">
        <ele>17.9</ele>
        <time>2020-06-18T08:25:24Z</time>
      </trkpt>
      <trkpt lat="49.74777" lon="0.41665">
        <ele>17.9</ele>
        <time>2020-06-18T08:25:25Z</time>
      </trkpt>
      <trkpt lat="49.74777" lon="0.41676">
        <ele>18</ele>
        <time>2020-06-18T08:25:26Z</time>
      </trkpt>
      <trkpt lat="49.74777" lon="0.41686">
        <ele>18</ele>
        <time>2020-06-18T08:25:27Z</time>
      </trkpt>
      <trkpt lat="49.74776" lon="0.41697">
        <ele>18.1</ele>
        <time>2020-06-18T08:25:28Z</time>
      </trkpt>
      <trkpt lat="49.74775" lon="0.41709">
        <ele>18.1</ele>
        <time>2020-06-18T08:25:29Z</time>
      </trkpt>
      <trkpt lat="49.74775" lon="0.41719">
        <ele>18.2</ele>
        <time>2020-06-18T08:25:30Z</time>
      </trkpt>
      <trkpt lat="49.74775" lon="0.41731">
        <ele>18.2</ele>
        <time>2020-06-18T08:25:31Z</time>
      </trkpt>
      <trkpt lat="49.74775" lon="0.4174">
        <ele>18.3</ele>
        <time>2020-06-18T08:25:32Z</time>
      </trkpt>
      <trkpt lat="49.74775" lon="0.4175">
        <ele>18.3</ele>
        <time>2020-06-18T08:25:33Z</time>
      </trkpt>
      <trkpt lat="49.74775" lon="0.4176">
        <ele>18.4</ele>
        <time>2020-06-18T08:25:34Z</time>
      </trkpt>
      <trkpt lat="49.74775" lon="0.41771">
        <ele>18.4</ele>
        <time>2020-06-18T08:25:35Z</time>
      </trkpt>
      <trkpt lat="49.74774" lon="0.41781">
        <ele>18.5</ele>
        <time>2020-06-18T08:25:36Z</time>
      </trkpt>
      <trkpt lat="49.74774" lon="0.41792">
        <ele>18.5</ele>
        <time>2020-06-18T08:25:37Z</time>
      </trkpt>
      <trkpt lat="49.74772" lon="0.41802">
        <ele>18.6</ele>
        <time>2020-06-18T08:25:38Z</time>
      </trkpt>
      <trkpt lat="49.74772" lon="0.41813">
        <ele>18.6</ele>
        <time>2020-06-18T08:25:39Z</time>
      </trkpt>
      <trkpt lat="49.74771" lon="0.41823">
        <ele>18.7</ele>
        <time>2020-06-18T08:25:40Z</time>
      </trkpt>
      <trkpt lat="49.74769" lon="0.41834">
        <ele>18.8</ele>
        <time>2020-06-18T08:25:41Z</time>
      </trkpt>
      <trkpt lat="49.74769" lon="0.41845">
        <ele>18.9</ele>
        <time>2020-06-18T08:25:42Z</time>
      </trkpt>
      <trkpt lat="49.74768" lon="0.41856">
        <ele>18.9</ele>
        <time>2020-06-18T08:25:43Z</time>
      </trkpt>
      <trkpt lat="49.74767" lon="0.41866">
        <ele>19</ele>
        <time>2020-06-18T08:25:44Z</time>
      </trkpt>
      <trkpt lat="49.74766" lon="0.41877">
        <ele>19</ele>
        <time>2020-06-18T08:25:45Z</time>
      </trkpt>
      <trkpt lat="49.74765" lon="0.41887">
        <ele>19.1</ele>
        <time>2020-06-18T08:25:46Z</time>
      </trkpt>
      <trkpt lat="49.74764" lon="0.41897">
        <ele>19.1</ele>
        <time>2020-06-18T08:25:47Z</time>
      </trkpt>
      <trkpt lat="49.74763" lon="0.41906">
        <ele>19.2</ele>
        <time>2020-06-18T08:25:48Z</time>
      </trkpt>
      <trkpt lat="49.74762" lon="0.41916">
        <ele>19.3</ele>
        <time>2020-06-18T08:25:49Z</time>
      </trkpt>
      <trkpt lat="49.74761" lon="0.41926">
        <ele>19.4</ele>
        <time>2020-06-18T08:25:50Z</time>
      </trkpt>
      <trkpt lat="49.7476" lon="0.41935">
        <ele>19.5</ele>
        <time>2020-06-18T08:25:51Z</time>
      </trkpt>
      <trkpt lat="49.74759" lon="0.41945">
        <ele>19.5</ele>
        <time>2020-06-18T08:25:52Z</time>
      </trkpt>
      <trkpt lat="49.74758" lon="0.41954">
        <ele>19.5</ele>
        <time>2020-06-18T08:25:53Z</time>
      </trkpt>
      <trkpt lat="49.74757" lon="0.41964">
        <ele>19.6</ele>
        <time>2020-06-18T08:25:54Z</time>
      </trkpt>
      <trkpt lat="49.74757" lon="0.41974">
        <ele>19.6</ele>
        <time>2020-06-18T08:25:55Z</time>
      </trkpt>
      <trkpt lat="49.74756" lon="0.41983">
        <ele>19.7</ele>
        <time>2020-06-18T08:25:56Z</time>
      </trkpt>
      <trkpt lat="49.74755" lon="0.41992">
        <ele>19.7</ele>
        <time>2020-06-18T08:25:57Z</time>
      </trkpt>
      <trkpt lat="49.74754" lon="0.42002">
        <ele>19.8</ele>
        <time>2020-06-18T08:25:58Z</time>
      </trkpt>
      <trkpt lat="49.74753" lon="0.42013">
        <ele>19.8</ele>
        <time>2020-06-18T08:25:59Z</time>
      </trkpt>
      <trkpt lat="49.74752" lon="0.42023">
        <ele>19.8</ele>
        <time>2020-06-18T08:26:00Z</time>
      </trkpt>
      <trkpt lat="49.7475" lon="0.42032">
        <ele>19.8</ele>
        <time>2020-06-18T08:26:01Z</time>
      </trkpt>
      <trkpt lat="49.74748" lon="0.42041">
        <ele>19.8</ele>
        <time>2020-06-18T08:26:02Z</time>
      </trkpt>
      <trkpt lat="49.74746" lon="0.42049">
        <ele>19.8</ele>
        <time>2020-06-18T08:26:03Z</time>
      </trkpt>
      <trkpt lat="49.74743" lon="0.42059">
        <ele>19.8</ele>
        <time>2020-06-18T08:26:04Z</time>
      </trkpt>
      <trkpt lat="49.74741" lon="0.42069">
        <ele>19.8</ele>
        <time>2020-06-18T08:26:05Z</time>
      </trkpt>
      <trkpt lat="49.74739" lon="0.42078">
        <ele>19.9</ele>
        <time>2020-06-18T08:26:06Z</time>
      </trkpt>
      <trkpt lat="49.74736" lon="0.42088">
        <ele>19.9</ele>
        <time>2020-06-18T08:26:07Z</time>
      </trkpt>
      <trkpt lat="49.74734" lon="0.42098">
        <ele>19.9</ele>
        <time>2020-06-18T08:26:08Z</time>
      </trkpt>
      <trkpt lat="49.74733" lon="0.42107">
        <ele>19.9</ele>
        <time>2020-06-18T08:26:09Z</time>
      </trkpt>
      <trkpt lat="49.74731" lon="0.42115">
        <ele>19.9</ele>
        <time>2020-06-18T08:26:10Z</time>
      </trkpt>
      <trkpt lat="49.74729" lon="0.42122">
        <ele>19.9</ele>
        <time>2020-06-18T08:26:11Z</time>
      </trkpt>
      <trkpt lat="49.74727" lon="0.42129">
        <ele>19.9</ele>
        <time>2020-06-18T08:26:12Z</time>
      </trkpt>
      <trkpt lat="49.74725" lon="0.42136">
        <ele>19.9</ele>
        <time>2020-06-18T08:26:13Z</time>
      </trkpt>
      <trkpt lat="49.74725" lon="0.42143">
        <ele>19.9</ele>
        <time>2020-06-18T08:26:14Z</time>
      </trkpt>
      <trkpt lat="49.74723" lon="0.4215">
        <ele>19.9</ele>
        <time>2020-06-18T08:26:15Z</time>
      </trkpt>
      <trkpt lat="49.74722" lon="0.42157">
        <ele>19.9</ele>
        <time>2020-06-18T08:26:16Z</time>
      </trkpt>
      <trkpt lat="49.7472" lon="0.42165">
        <ele>19.9</ele>
        <time>2020-06-18T08:26:17Z</time>
      </trkpt>
      <trkpt lat="49.74718" lon="0.42173">
        <ele>19.9</ele>
        <time>2020-06-18T08:26:18Z</time>
      </trkpt>
      <trkpt lat="49.74716" lon="0.42181">
        <ele>20</ele>
        <time>2020-06-18T08:26:19Z</time>
      </trkpt>
      <trkpt lat="49.74715" lon="0.4219">
        <ele>19.9</ele>
        <time>2020-06-18T08:26:20Z</time>
      </trkpt>
      <trkpt lat="49.74713" lon="0.422">
        <ele>19.9</ele>
        <time>2020-06-18T08:26:21Z</time>
      </trkpt>
      <trkpt lat="49.74711" lon="0.42209">
        <ele>19.9</ele>
        <time>2020-06-18T08:26:22Z</time>
      </trkpt>
      <trkpt lat="49.74709" lon="0.42218">
        <ele>19.9</ele>
        <time>2020-06-18T08:26:23Z</time>
      </trkpt>
      <trkpt lat="49.74708" lon="0.42227">
        <ele>19.9</ele>
        <time>2020-06-18T08:26:24Z</time>
      </trkpt>
      <trkpt lat="49.74705" lon="0.42236">
        <ele>19.9</ele>
        <time>2020-06-18T08:26:25Z</time>
      </trkpt>
      <trkpt lat="49.74703" lon="0.42245">
        <ele>19.9</ele>
        <time>2020-06-18T08:26:26Z</time>
      </trkpt>
      <trkpt lat="49.74701" lon="0.42254">
        <ele>20</ele>
        <time>2020-06-18T08:26:27Z</time>
      </trkpt>
      <trkpt lat="49.747" lon="0.42263">
        <ele>20</ele>
        <time>2020-06-18T08:26:28Z</time>
      </trkpt>
      <trkpt lat="49.74698" lon="0.42273">
        <ele>20</ele>
        <time>2020-06-18T08:26:29Z</time>
      </trkpt>
      <trkpt lat="49.74697" lon="0.42283">
        <ele>20.1</ele>
        <time>2020-06-18T08:26:30Z</time>
      </trkpt>
      <trkpt lat="49.74694" lon="0.42295">
        <ele>20.1</ele>
        <time>2020-06-18T08:26:31Z</time>
      </trkpt>
      <trkpt lat="49.74692" lon="0.42308">
        <ele>20.1</ele>
        <time>2020-06-18T08:26:32Z</time>
      </trkpt>
      <trkpt lat="49.7469" lon="0.42321">
        <ele>20.1</ele>
        <time>2020-06-18T08:26:33Z</time>
      </trkpt>
      <trkpt lat="49.74688" lon="0.42334">
        <ele>20.2</ele>
        <time>2020-06-18T08:26:34Z</time>
      </trkpt>
      <trkpt lat="49.74687" lon="0.42347">
        <ele>20.2</ele>
        <time>2020-06-18T08:26:35Z</time>
      </trkpt>
      <trkpt lat="49.74685" lon="0.42359">
        <ele>20.2</ele>
        <time>2020-06-18T08:26:36Z</time>
      </trkpt>
      <trkpt lat="49.74684" lon="0.42372">
        <ele>20.2</ele>
        <time>2020-06-18T08:26:37Z</time>
      </trkpt>
      <trkpt lat="49.74683" lon="0.42385">
        <ele>20.2</ele>
        <time>2020-06-18T08:26:38Z</time>
      </trkpt>
      <trkpt lat="49.74683" lon="0.42398">
        <ele>20.2</ele>
        <time>2020-06-18T08:26:39Z</time>
      </trkpt>
      <trkpt lat="49.74681" lon="0.42411">
        <ele>20.3</ele>
        <time>2020-06-18T08:26:40Z</time>
      </trkpt>
      <trkpt lat="49.74679" lon="0.42422">
        <ele>20.3</ele>
        <time>2020-06-18T08:26:41Z</time>
      </trkpt>
      <trkpt lat="49.74677" lon="0.42434">
        <ele>20.3</ele>
        <time>2020-06-18T08:26:42Z</time>
      </trkpt>
      <trkpt lat="49.74675" lon="0.42445">
        <ele>20.4</ele>
        <time>2020-06-18T08:26:43Z</time>
      </trkpt>
      <trkpt lat="49.74673" lon="0.42456">
        <ele>20.4</ele>
        <time>2020-06-18T08:26:44Z</time>
      </trkpt>
      <trkpt lat="49.74671" lon="0.42467">
        <ele>20.4</ele>
        <time>2020-06-18T08:26:45Z</time>
      </trkpt>
      <trkpt lat="49.74669" lon="0.42478">
        <ele>20.5</ele>
        <time>2020-06-18T08:26:46Z</time>
      </trkpt>
      <trkpt lat="49.74667" lon="0.4249">
        <ele>20.5</ele>
        <time>2020-06-18T08:26:47Z</time>
      </trkpt>
      <trkpt lat="49.74665" lon="0.42501">
        <ele>20.6</ele>
        <time>2020-06-18T08:26:48Z</time>
      </trkpt>
      <trkpt lat="49.74664" lon="0.42513">
        <ele>20.6</ele>
        <time>2020-06-18T08:26:49Z</time>
      </trkpt>
      <trkpt lat="49.74662" lon="0.42523">
        <ele>20.6</ele>
        <time>2020-06-18T08:26:50Z</time>
      </trkpt>
      <trkpt lat="49.7466" lon="0.42533">
        <ele>20.6</ele>
        <time>2020-06-18T08:26:51Z</time>
      </trkpt>
      <trkpt lat="49.74658" lon="0.42544">
        <ele>20.7</ele>
        <time>2020-06-18T08:26:52Z</time>
      </trkpt>
      <trkpt lat="49.74656" lon="0.42556">
        <ele>20.7</ele>
        <time>2020-06-18T08:26:53Z</time>
      </trkpt>
      <trkpt lat="49.74654" lon="0.42567">
        <ele>20.7</ele>
        <time>2020-06-18T08:26:54Z</time>
      </trkpt>
      <trkpt lat="49.74652" lon="0.42578">
        <ele>20.7</ele>
        <time>2020-06-18T08:26:55Z</time>
      </trkpt>
      <trkpt lat="49.7465" lon="0.4259">
        <ele>20.7</ele>
        <time>2020-06-18T08:26:56Z</time>
      </trkpt>
      <trkpt lat="49.74648" lon="0.42601">
        <ele>20.7</ele>
        <time>2020-06-18T08:26:57Z</time>
      </trkpt>
      <trkpt lat="49.74646" lon="0.42612">
        <ele>20.7</ele>
        <time>2020-06-18T08:26:58Z</time>
      </trkpt>
      <trkpt lat="49.74645" lon="0.42624">
        <ele>20.7</ele>
        <time>2020-06-18T08:26:59Z</time>
      </trkpt>
      <trkpt lat="49.74643" lon="0.42637">
        <ele>20.7</ele>
        <time>2020-06-18T08:27:00Z</time>
      </trkpt>
      <trkpt lat="49.74641" lon="0.42647">
        <ele>20.8</ele>
        <time>2020-06-18T08:27:01Z</time>
      </trkpt>
      <trkpt lat="49.74639" lon="0.42657">
        <ele>20.8</ele>
        <time>2020-06-18T08:27:02Z</time>
      </trkpt>
      <trkpt lat="49.74638" lon="0.42666">
        <ele>20.9</ele>
        <time>2020-06-18T08:27:03Z</time>
      </trkpt>
      <trkpt lat="49.74636" lon="0.42675">
        <ele>20.9</ele>
        <time>2020-06-18T08:27:04Z</time>
      </trkpt>
      <trkpt lat="49.74635" lon="0.42684">
        <ele>21</ele>
        <time>2020-06-18T08:27:05Z</time>
      </trkpt>
      <trkpt lat="49.74634" lon="0.42693">
        <ele>21</ele>
        <time>2020-06-18T08:27:06Z</time>
      </trkpt>
      <trkpt lat="49.74633" lon="0.42703">
        <ele>21</ele>
        <time>2020-06-18T08:27:07Z</time>
      </trkpt>
      <trkpt lat="49.74632" lon="0.42712">
        <ele>21</ele>
        <time>2020-06-18T08:27:08Z</time>
      </trkpt>
      <trkpt lat="49.74631" lon="0.42722">
        <ele>21.1</ele>
        <time>2020-06-18T08:27:09Z</time>
      </trkpt>
      <trkpt lat="49.74629" lon="0.4273">
        <ele>21.1</ele>
        <time>2020-06-18T08:27:10Z</time>
      </trkpt>
      <trkpt lat="49.74628" lon="0.42738">
        <ele>21.1</ele>
        <time>2020-06-18T08:27:11Z</time>
      </trkpt>
      <trkpt lat="49.74628" lon="0.42747">
        <ele>21.2</ele>
        <time>2020-06-18T08:27:12Z</time>
      </trkpt>
      <trkpt lat="49.74629" lon="0.42757">
        <ele>21.2</ele>
        <time>2020-06-18T08:27:13Z</time>
      </trkpt>
      <trkpt lat="49.74628" lon="0.42765">
        <ele>21.1</ele>
        <time>2020-06-18T08:27:14Z</time>
      </trkpt>
      <trkpt lat="49.74626" lon="0.42774">
        <ele>21.2</ele>
        <time>2020-06-18T08:27:15Z</time>
      </trkpt>
      <trkpt lat="49.74625" lon="0.42785">
        <ele>21.2</ele>
        <time>2020-06-18T08:27:16Z</time>
      </trkpt>
      <trkpt lat="49.74623" lon="0.42796">
        <ele>21.2</ele>
        <time>2020-06-18T08:27:17Z</time>
      </trkpt>
      <trkpt lat="49.74621" lon="0.42807">
        <ele>21.2</ele>
        <time>2020-06-18T08:27:18Z</time>
      </trkpt>
      <trkpt lat="49.7462" lon="0.42816">
        <ele>21.2</ele>
        <time>2020-06-18T08:27:19Z</time>
      </trkpt>
      <trkpt lat="49.74619" lon="0.42826">
        <ele>21.3</ele>
        <time>2020-06-18T08:27:20Z</time>
      </trkpt>
      <trkpt lat="49.74618" lon="0.42836">
        <ele>21.3</ele>
        <time>2020-06-18T08:27:21Z</time>
      </trkpt>
      <trkpt lat="49.74616" lon="0.42847">
        <ele>21.4</ele>
        <time>2020-06-18T08:27:22Z</time>
      </trkpt>
      <trkpt lat="49.74615" lon="0.42858">
        <ele>21.5</ele>
        <time>2020-06-18T08:27:23Z</time>
      </trkpt>
      <trkpt lat="49.74614" lon="0.42869">
        <ele>21.5</ele>
        <time>2020-06-18T08:27:24Z</time>
      </trkpt>
      <trkpt lat="49.74613" lon="0.42879">
        <ele>21.6</ele>
        <time>2020-06-18T08:27:25Z</time>
      </trkpt>
      <trkpt lat="49.74611" lon="0.42891">
        <ele>21.6</ele>
        <time>2020-06-18T08:27:26Z</time>
      </trkpt>
      <trkpt lat="49.7461" lon="0.42901">
        <ele>21.5</ele>
        <time>2020-06-18T08:27:27Z</time>
      </trkpt>
      <trkpt lat="49.74609" lon="0.42913">
        <ele>21.5</ele>
        <time>2020-06-18T08:27:28Z</time>
      </trkpt>
      <trkpt lat="49.74608" lon="0.42923">
        <ele>21.5</ele>
        <time>2020-06-18T08:27:29Z</time>
      </trkpt>
      <trkpt lat="49.74607" lon="0.42933">
        <ele>21.5</ele>
        <time>2020-06-18T08:27:30Z</time>
      </trkpt>
      <trkpt lat="49.74606" lon="0.42944">
        <ele>21.4</ele>
        <time>2020-06-18T08:27:31Z</time>
      </trkpt>
      <trkpt lat="49.74606" lon="0.42956">
        <ele>21.5</ele>
        <time>2020-06-18T08:27:32Z</time>
      </trkpt>
      <trkpt lat="49.74605" lon="0.42969">
        <ele>21.5</ele>
        <time>2020-06-18T08:27:33Z</time>
      </trkpt>
      <trkpt lat="49.74604" lon="0.42982">
        <ele>21.6</ele>
        <time>2020-06-18T08:27:34Z</time>
      </trkpt>
      <trkpt lat="49.74604" lon="0.42994">
        <ele>21.6</ele>
        <time>2020-06-18T08:27:35Z</time>
      </trkpt>
      <trkpt lat="49.74604" lon="0.43005">
        <ele>21.6</ele>
        <time>2020-06-18T08:27:36Z</time>
      </trkpt>
      <trkpt lat="49.74604" lon="0.43016">
        <ele>21.6</ele>
        <time>2020-06-18T08:27:37Z</time>
      </trkpt>
      <trkpt lat="49.74604" lon="0.43027">
        <ele>21.6</ele>
        <time>2020-06-18T08:27:38Z</time>
      </trkpt>
      <trkpt lat="49.74605" lon="0.43039">
        <ele>21.6</ele>
        <time>2020-06-18T08:27:39Z</time>
      </trkpt>
      <trkpt lat="49.74606" lon="0.4305">
        <ele>21.7</ele>
        <time>2020-06-18T08:27:40Z</time>
      </trkpt>
      <trkpt lat="49.74606" lon="0.43061">
        <ele>21.7</ele>
        <time>2020-06-18T08:27:41Z</time>
      </trkpt>
      <trkpt lat="49.74607" lon="0.43072">
        <ele>21.7</ele>
        <time>2020-06-18T08:27:42Z</time>
      </trkpt>
      <trkpt lat="49.74608" lon="0.43083">
        <ele>21.8</ele>
        <time>2020-06-18T08:27:43Z</time>
      </trkpt>
      <trkpt lat="49.74608" lon="0.43092">
        <ele>21.8</ele>
        <time>2020-06-18T08:27:44Z</time>
      </trkpt>
      <trkpt lat="49.74608" lon="0.431">
        <ele>21.8</ele>
        <time>2020-06-18T08:27:45Z</time>
      </trkpt>
      <trkpt lat="49.74608" lon="0.43111">
        <ele>21.8</ele>
        <time>2020-06-18T08:27:46Z</time>
      </trkpt>
      <trkpt lat="49.74607" lon="0.43122">
        <ele>21.8</ele>
        <time>2020-06-18T08:27:47Z</time>
      </trkpt>
      <trkpt lat="49.74607" lon="0.43133">
        <ele>21.9</ele>
        <time>2020-06-18T08:27:48Z</time>
      </trkpt>
      <trkpt lat="49.74605" lon="0.43145">
        <ele>21.9</ele>
        <time>2020-06-18T08:27:49Z</time>
      </trkpt>
      <trkpt lat="49.74604" lon="0.43156">
        <ele>21.9</ele>
        <time>2020-06-18T08:27:50Z</time>
      </trkpt>
      <trkpt lat="49.74603" lon="0.43166">
        <ele>21.9</ele>
        <time>2020-06-18T08:27:51Z</time>
      </trkpt>
      <trkpt lat="49.74602" lon="0.43176">
        <ele>22</ele>
        <time>2020-06-18T08:27:52Z</time>
      </trkpt>
      <trkpt lat="49.74601" lon="0.43186">
        <ele>22</ele>
        <time>2020-06-18T08:27:53Z</time>
      </trkpt>
      <trkpt lat="49.74602" lon="0.43194">
        <ele>22</ele>
        <time>2020-06-18T08:27:54Z</time>
      </trkpt>
      <trkpt lat="49.74602" lon="0.43203">
        <ele>22</ele>
        <time>2020-06-18T08:27:55Z</time>
      </trkpt>
      <trkpt lat="49.74602" lon="0.43215">
        <ele>22.1</ele>
        <time>2020-06-18T08:27:56Z</time>
      </trkpt>
      <trkpt lat="49.74602" lon="0.43227">
        <ele>22.1</ele>
        <time>2020-06-18T08:27:57Z</time>
      </trkpt>
      <trkpt lat="49.74603" lon="0.43238">
        <ele>22.2</ele>
        <time>2020-06-18T08:27:58Z</time>
      </trkpt>
      <trkpt lat="49.74603" lon="0.43249">
        <ele>22.3</ele>
        <time>2020-06-18T08:27:59Z</time>
      </trkpt>
      <trkpt lat="49.74604" lon="0.43262">
        <ele>22.3</ele>
        <time>2020-06-18T08:28:00Z</time>
      </trkpt>
      <trkpt lat="49.74605" lon="0.43274">
        <ele>22.3</ele>
        <time>2020-06-18T08:28:01Z</time>
      </trkpt>
      <trkpt lat="49.74605" lon="0.43286">
        <ele>22.3</ele>
        <time>2020-06-18T08:28:02Z</time>
      </trkpt>
      <trkpt lat="49.74606" lon="0.43299">
        <ele>22.3</ele>
        <time>2020-06-18T08:28:03Z</time>
      </trkpt>
      <trkpt lat="49.74606" lon="0.43312">
        <ele>22.4</ele>
        <time>2020-06-18T08:28:04Z</time>
      </trkpt>
      <trkpt lat="49.74607" lon="0.43323">
        <ele>22.4</ele>
        <time>2020-06-18T08:28:05Z</time>
      </trkpt>
      <trkpt lat="49.74607" lon="0.43335">
        <ele>22.5</ele>
        <time>2020-06-18T08:28:06Z</time>
      </trkpt>
      <trkpt lat="49.74608" lon="0.43346">
        <ele>22.5</ele>
        <time>2020-06-18T08:28:07Z</time>
      </trkpt>
      <trkpt lat="49.74608" lon="0.43356">
        <ele>22.5</ele>
        <time>2020-06-18T08:28:08Z</time>
      </trkpt>
      <trkpt lat="49.74608" lon="0.43367">
        <ele>22.6</ele>
        <time>2020-06-18T08:28:09Z</time>
      </trkpt>
      <trkpt lat="49.74608" lon="0.43379">
        <ele>22.6</ele>
        <time>2020-06-18T08:28:10Z</time>
      </trkpt>
      <trkpt lat="49.74608" lon="0.43388">
        <ele>22.7</ele>
        <time>2020-06-18T08:28:11Z</time>
      </trkpt>
      <trkpt lat="49.74609" lon="0.43399">
        <ele>22.7</ele>
        <time>2020-06-18T08:28:12Z</time>
      </trkpt>
      <trkpt lat="49.7461" lon="0.4341">
        <ele>22.7</ele>
        <time>2020-06-18T08:28:13Z</time>
      </trkpt>
      <trkpt lat="49.74611" lon="0.4342">
        <ele>22.8</ele>
        <time>2020-06-18T08:28:14Z</time>
      </trkpt>
      <trkpt lat="49.74613" lon="0.43431">
        <ele>22.9</ele>
        <time>2020-06-18T08:28:15Z</time>
      </trkpt>
      <trkpt lat="49.74614" lon="0.43441">
        <ele>22.9</ele>
        <time>2020-06-18T08:28:16Z</time>
      </trkpt>
      <trkpt lat="49.74616" lon="0.43451">
        <ele>23</ele>
        <time>2020-06-18T08:28:17Z</time>
      </trkpt>
      <trkpt lat="49.74617" lon="0.43463">
        <ele>23.1</ele>
        <time>2020-06-18T08:28:18Z</time>
      </trkpt>
      <trkpt lat="49.7462" lon="0.43474">
        <ele>23.1</ele>
        <time>2020-06-18T08:28:19Z</time>
      </trkpt>
      <trkpt lat="49.74622" lon="0.43485">
        <ele>23.2</ele>
        <time>2020-06-18T08:28:20Z</time>
      </trkpt>
      <trkpt lat="49.74623" lon="0.43497">
        <ele>23.2</ele>
        <time>2020-06-18T08:28:21Z</time>
      </trkpt>
      <trkpt lat="49.74625" lon="0.43509">
        <ele>23.3</ele>
        <time>2020-06-18T08:28:22Z</time>
      </trkpt>
      <trkpt lat="49.74625" lon="0.43519">
        <ele>23.3</ele>
        <time>2020-06-18T08:28:23Z</time>
      </trkpt>
      <trkpt lat="49.74626" lon="0.43529">
        <ele>23.4</ele>
        <time>2020-06-18T08:28:24Z</time>
      </trkpt>
      <trkpt lat="49.74628" lon="0.43541">
        <ele>23.5</ele>
        <time>2020-06-18T08:28:25Z</time>
      </trkpt>
      <trkpt lat="49.7463" lon="0.43553">
        <ele>23.5</ele>
        <time>2020-06-18T08:28:26Z</time>
      </trkpt>
      <trkpt lat="49.74631" lon="0.43563">
        <ele>23.6</ele>
        <time>2020-06-18T08:28:27Z</time>
      </trkpt>
      <trkpt lat="49.74633" lon="0.43572">
        <ele>23.6</ele>
        <time>2020-06-18T08:28:28Z</time>
      </trkpt>
      <trkpt lat="49.74636" lon="0.43582">
        <ele>23.6</ele>
        <time>2020-06-18T08:28:29Z</time>
      </trkpt>
      <trkpt lat="49.74638" lon="0.43592">
        <ele>23.6</ele>
        <time>2020-06-18T08:28:30Z</time>
      </trkpt>
      <trkpt lat="49.7464" lon="0.43603">
        <ele>23.7</ele>
        <time>2020-06-18T08:28:31Z</time>
      </trkpt>
      <trkpt lat="49.74642" lon="0.43615">
        <ele>23.7</ele>
        <time>2020-06-18T08:28:32Z</time>
      </trkpt>
      <trkpt lat="49.74643" lon="0.43627">
        <ele>23.8</ele>
        <time>2020-06-18T08:28:33Z</time>
      </trkpt>
      <trkpt lat="49.74645" lon="0.43638">
        <ele>23.8</ele>
        <time>2020-06-18T08:28:34Z</time>
      </trkpt>
      <trkpt lat="49.74647" lon="0.43649">
        <ele>23.8</ele>
        <time>2020-06-18T08:28:35Z</time>
      </trkpt>
      <trkpt lat="49.7465" lon="0.43659">
        <ele>23.8</ele>
        <time>2020-06-18T08:28:36Z</time>
      </trkpt>
      <trkpt lat="49.74652" lon="0.4367">
        <ele>23.8</ele>
        <time>2020-06-18T08:28:37Z</time>
      </trkpt>
      <trkpt lat="49.74655" lon="0.4368">
        <ele>23.8</ele>
        <time>2020-06-18T08:28:38Z</time>
      </trkpt>
      <trkpt lat="49.74657" lon="0.4369">
        <ele>23.8</ele>
        <time>2020-06-18T08:28:39Z</time>
      </trkpt>
      <trkpt lat="49.7466" lon="0.437">
        <ele>23.8</ele>
        <time>2020-06-18T08:28:40Z</time>
      </trkpt>
      <trkpt lat="49.74664" lon="0.43712">
        <ele>23.8</ele>
        <time>2020-06-18T08:28:41Z</time>
      </trkpt>
      <trkpt lat="49.74667" lon="0.43722">
        <ele>23.9</ele>
        <time>2020-06-18T08:28:42Z</time>
      </trkpt>
      <trkpt lat="49.7467" lon="0.43733">
        <ele>23.9</ele>
        <time>2020-06-18T08:28:43Z</time>
      </trkpt>
      <trkpt lat="49.74674" lon="0.43744">
        <ele>23.9</ele>
        <time>2020-06-18T08:28:44Z</time>
      </trkpt>
      <trkpt lat="49.74678" lon="0.43755">
        <ele>24</ele>
        <time>2020-06-18T08:28:45Z</time>
      </trkpt>
      <trkpt lat="49.74681" lon="0.43765">
        <ele>24.1</ele>
        <time>2020-06-18T08:28:46Z</time>
      </trkpt>
      <trkpt lat="49.74683" lon="0.43776">
        <ele>24.1</ele>
        <time>2020-06-18T08:28:47Z</time>
      </trkpt>
      <trkpt lat="49.74685" lon="0.43786">
        <ele>24.2</ele>
        <time>2020-06-18T08:28:48Z</time>
      </trkpt>
      <trkpt lat="49.74687" lon="0.43797">
        <ele>24.3</ele>
        <time>2020-06-18T08:28:49Z</time>
      </trkpt>
      <trkpt lat="49.7469" lon="0.43808">
        <ele>24.3</ele>
        <time>2020-06-18T08:28:50Z</time>
      </trkpt>
      <trkpt lat="49.74693" lon="0.43818">
        <ele>24.4</ele>
        <time>2020-06-18T08:28:51Z</time>
      </trkpt>
      <trkpt lat="49.74695" lon="0.43829">
        <ele>24.4</ele>
        <time>2020-06-18T08:28:52Z</time>
      </trkpt>
      <trkpt lat="49.74698" lon="0.43839">
        <ele>24.5</ele>
        <time>2020-06-18T08:28:53Z</time>
      </trkpt>
      <trkpt lat="49.747" lon="0.43849">
        <ele>24.5</ele>
        <time>2020-06-18T08:28:54Z</time>
      </trkpt>
      <trkpt lat="49.74702" lon="0.43859">
        <ele>24.6</ele>
        <time>2020-06-18T08:28:55Z</time>
      </trkpt>
      <trkpt lat="49.74705" lon="0.4387">
        <ele>24.6</ele>
        <time>2020-06-18T08:28:56Z</time>
      </trkpt>
      <trkpt lat="49.74707" lon="0.4388">
        <ele>24.7</ele>
        <time>2020-06-18T08:28:57Z</time>
      </trkpt>
      <trkpt lat="49.7471" lon="0.4389">
        <ele>24.8</ele>
        <time>2020-06-18T08:28:58Z</time>
      </trkpt>
      <trkpt lat="49.74713" lon="0.439">
        <ele>24.8</ele>
        <time>2020-06-18T08:28:59Z</time>
      </trkpt>
      <trkpt lat="49.74715" lon="0.43911">
        <ele>24.9</ele>
        <time>2020-06-18T08:29:00Z</time>
      </trkpt>
      <trkpt lat="49.74717" lon="0.4392">
        <ele>24.9</ele>
        <time>2020-06-18T08:29:01Z</time>
      </trkpt>
      <trkpt lat="49.74719" lon="0.4393">
        <ele>25</ele>
        <time>2020-06-18T08:29:02Z</time>
      </trkpt>
      <trkpt lat="49.74722" lon="0.4394">
        <ele>25</ele>
        <time>2020-06-18T08:29:03Z</time>
      </trkpt>
      <trkpt lat="49.74724" lon="0.4395">
        <ele>25.1</ele>
        <time>2020-06-18T08:29:04Z</time>
      </trkpt>
      <trkpt lat="49.74726" lon="0.43959">
        <ele>25.1</ele>
        <time>2020-06-18T08:29:05Z</time>
      </trkpt>
      <trkpt lat="49.74728" lon="0.4397">
        <ele>25.1</ele>
        <time>2020-06-18T08:29:06Z</time>
      </trkpt>
      <trkpt lat="49.7473" lon="0.43981">
        <ele>25.2</ele>
        <time>2020-06-18T08:29:07Z</time>
      </trkpt>
      <trkpt lat="49.74732" lon="0.43992">
        <ele>25.2</ele>
        <time>2020-06-18T08:29:08Z</time>
      </trkpt>
      <trkpt lat="49.74734" lon="0.44002">
        <ele>25.3</ele>
        <time>2020-06-18T08:29:09Z</time>
      </trkpt>
      <trkpt lat="49.74736" lon="0.44013">
        <ele>25.3</ele>
        <time>2020-06-18T08:29:10Z</time>
      </trkpt>
      <trkpt lat="49.74737" lon="0.44024">
        <ele>25.4</ele>
        <time>2020-06-18T08:29:11Z</time>
      </trkpt>
      <trkpt lat="49.74739" lon="0.44034">
        <ele>25.4</ele>
        <time>2020-06-18T08:29:12Z</time>
      </trkpt>
      <trkpt lat="49.74741" lon="0.44045">
        <ele>25.5</ele>
        <time>2020-06-18T08:29:13Z</time>
      </trkpt>
      <trkpt lat="49.74742" lon="0.44055">
        <ele>25.6</ele>
        <time>2020-06-18T08:29:14Z</time>
      </trkpt>
      <trkpt lat="49.74743" lon="0.44065">
        <ele>25.6</ele>
        <time>2020-06-18T08:29:15Z</time>
      </trkpt>
      <trkpt lat="49.74745" lon="0.44076">
        <ele>25.7</ele>
        <time>2020-06-18T08:29:16Z</time>
      </trkpt>
      <trkpt lat="49.74747" lon="0.44086">
        <ele>25.7</ele>
        <time>2020-06-18T08:29:17Z</time>
      </trkpt>
      <trkpt lat="49.74749" lon="0.44097">
        <ele>25.8</ele>
        <time>2020-06-18T08:29:18Z</time>
      </trkpt>
      <trkpt lat="49.7475" lon="0.44106">
        <ele>25.8</ele>
        <time>2020-06-18T08:29:19Z</time>
      </trkpt>
      <trkpt lat="49.74751" lon="0.44116">
        <ele>25.9</ele>
        <time>2020-06-18T08:29:20Z</time>
      </trkpt>
      <trkpt lat="49.74753" lon="0.44127">
        <ele>25.9</ele>
        <time>2020-06-18T08:29:21Z</time>
      </trkpt>
      <trkpt lat="49.74753" lon="0.44137">
        <ele>25.9</ele>
        <time>2020-06-18T08:29:22Z</time>
      </trkpt>
      <trkpt lat="49.74754" lon="0.44147">
        <ele>26</ele>
        <time>2020-06-18T08:29:23Z</time>
      </trkpt>
      <trkpt lat="49.74754" lon="0.44157">
        <ele>26.1</ele>
        <time>2020-06-18T08:29:24Z</time>
      </trkpt>
      <trkpt lat="49.74755" lon="0.44166">
        <ele>26.1</ele>
        <time>2020-06-18T08:29:25Z</time>
      </trkpt>
      <trkpt lat="49.74755" lon="0.44173">
        <ele>26.2</ele>
        <time>2020-06-18T08:29:26Z</time>
      </trkpt>
      <trkpt lat="49.74756" lon="0.44181">
        <ele>26.3</ele>
        <time>2020-06-18T08:29:27Z</time>
      </trkpt>
      <trkpt lat="49.74756" lon="0.44188">
        <ele>26.4</ele>
        <time>2020-06-18T08:29:28Z</time>
      </trkpt>
      <trkpt lat="49.74756" lon="0.44196">
        <ele>26.4</ele>
        <time>2020-06-18T08:29:29Z</time>
      </trkpt>
      <trkpt lat="49.74756" lon="0.44203">
        <ele>26.5</ele>
        <time>2020-06-18T08:29:30Z</time>
      </trkpt>
      <trkpt lat="49.74756" lon="0.4421">
        <ele>26.6</ele>
        <time>2020-06-18T08:29:31Z</time>
      </trkpt>
      <trkpt lat="49.74756" lon="0.44216">
        <ele>26.6</ele>
        <time>2020-06-18T08:29:32Z</time>
      </trkpt>
      <trkpt lat="49.74757" lon="0.44223">
        <ele>26.7</ele>
        <time>2020-06-18T08:29:33Z</time>
      </trkpt>
      <trkpt lat="49.74758" lon="0.44231">
        <ele>26.8</ele>
        <time>2020-06-18T08:29:34Z</time>
      </trkpt>
      <trkpt lat="49.74758" lon="0.44238">
        <ele>26.8</ele>
        <time>2020-06-18T08:29:35Z</time>
      </trkpt>
      <trkpt lat="49.74758" lon="0.44247">
        <ele>26.8</ele>
        <time>2020-06-18T08:29:36Z</time>
      </trkpt>
      <trkpt lat="49.74759" lon="0.44256">
        <ele>26.8</ele>
        <time>2020-06-18T08:29:37Z</time>
      </trkpt>
      <trkpt lat="49.74759" lon="0.44266">
        <ele>26.7</ele>
        <time>2020-06-18T08:29:38Z</time>
      </trkpt>
      <trkpt lat="49.7476" lon="0.44277">
        <ele>26.7</ele>
        <time>2020-06-18T08:29:39Z</time>
      </trkpt>
      <trkpt lat="49.7476" lon="0.44288">
        <ele>26.7</ele>
        <time>2020-06-18T08:29:40Z</time>
      </trkpt>
      <trkpt lat="49.7476" lon="0.44298">
        <ele>26.7</ele>
        <time>2020-06-18T08:29:41Z</time>
      </trkpt>
      <trkpt lat="49.74761" lon="0.44309">
        <ele>26.7</ele>
        <time>2020-06-18T08:29:42Z</time>
      </trkpt>
      <trkpt lat="49.74761" lon="0.44321">
        <ele>26.7</ele>
        <time>2020-06-18T08:29:43Z</time>
      </trkpt>
      <trkpt lat="49.74762" lon="0.44331">
        <ele>26.7</ele>
        <time>2020-06-18T08:29:44Z</time>
      </trkpt>
      <trkpt lat="49.74762" lon="0.44341">
        <ele>26.7</ele>
        <time>2020-06-18T08:29:45Z</time>
      </trkpt>
      <trkpt lat="49.74763" lon="0.4435">
        <ele>26.8</ele>
        <time>2020-06-18T08:29:46Z</time>
      </trkpt>
      <trkpt lat="49.74763" lon="0.44358">
        <ele>26.8</ele>
        <time>2020-06-18T08:29:47Z</time>
      </trkpt>
      <trkpt lat="49.74763" lon="0.44368">
        <ele>26.8</ele>
        <time>2020-06-18T08:29:48Z</time>
      </trkpt>
      <trkpt lat="49.74762" lon="0.44377">
        <ele>26.9</ele>
        <time>2020-06-18T08:29:49Z</time>
      </trkpt>
      <trkpt lat="49.74762" lon="0.44389">
        <ele>26.9</ele>
        <time>2020-06-18T08:29:50Z</time>
      </trkpt>
      <trkpt lat="49.74761" lon="0.44399">
        <ele>26.9</ele>
        <time>2020-06-18T08:29:51Z</time>
      </trkpt>
      <trkpt lat="49.74761" lon="0.4441">
        <ele>26.9</ele>
        <time>2020-06-18T08:29:52Z</time>
      </trkpt>
      <trkpt lat="49.74761" lon="0.44421">
        <ele>26.9</ele>
        <time>2020-06-18T08:29:53Z</time>
      </trkpt>
      <trkpt lat="49.74761" lon="0.44431">
        <ele>27</ele>
        <time>2020-06-18T08:29:54Z</time>
      </trkpt>
      <trkpt lat="49.7476" lon="0.44443">
        <ele>27</ele>
        <time>2020-06-18T08:29:55Z</time>
      </trkpt>
      <trkpt lat="49.7476" lon="0.44453">
        <ele>27</ele>
        <time>2020-06-18T08:29:56Z</time>
      </trkpt>
      <trkpt lat="49.7476" lon="0.44463">
        <ele>27</ele>
        <time>2020-06-18T08:29:57Z</time>
      </trkpt>
      <trkpt lat="49.7476" lon="0.44474">
        <ele>27.1</ele>
        <time>2020-06-18T08:29:58Z</time>
      </trkpt>
      <trkpt lat="49.74759" lon="0.44484">
        <ele>27.1</ele>
        <time>2020-06-18T08:29:59Z</time>
      </trkpt>
      <trkpt lat="49.74759" lon="0.44494">
        <ele>27.2</ele>
        <time>2020-06-18T08:30:00Z</time>
      </trkpt>
      <trkpt lat="49.74758" lon="0.44504">
        <ele>27.3</ele>
        <time>2020-06-18T08:30:01Z</time>
      </trkpt>
      <trkpt lat="49.74758" lon="0.44514">
        <ele>27.3</ele>
        <time>2020-06-18T08:30:02Z</time>
      </trkpt>
      <trkpt lat="49.74758" lon="0.44523">
        <ele>27.4</ele>
        <time>2020-06-18T08:30:03Z</time>
      </trkpt>
      <trkpt lat="49.74758" lon="0.44533">
        <ele>27.4</ele>
        <time>2020-06-18T08:30:04Z</time>
      </trkpt>
      <trkpt lat="49.74758" lon="0.44543">
        <ele>27.5</ele>
        <time>2020-06-18T08:30:05Z</time>
      </trkpt>
      <trkpt lat="49.74758" lon="0.44553">
        <ele>27.5</ele>
        <time>2020-06-18T08:30:06Z</time>
      </trkpt>
      <trkpt lat="49.74757" lon="0.44563">
        <ele>27.5</ele>
        <time>2020-06-18T08:30:07Z</time>
      </trkpt>
      <trkpt lat="49.74757" lon="0.44572">
        <ele>27.6</ele>
        <time>2020-06-18T08:30:08Z</time>
      </trkpt>
      <trkpt lat="49.74756" lon="0.44581">
        <ele>27.6</ele>
        <time>2020-06-18T08:30:09Z</time>
      </trkpt>
      <trkpt lat="49.74756" lon="0.4459">
        <ele>27.6</ele>
        <time>2020-06-18T08:30:10Z</time>
      </trkpt>
      <trkpt lat="49.74756" lon="0.446">
        <ele>27.6</ele>
        <time>2020-06-18T08:30:11Z</time>
      </trkpt>
      <trkpt lat="49.74756" lon="0.4461">
        <ele>27.7</ele>
        <time>2020-06-18T08:30:12Z</time>
      </trkpt>
      <trkpt lat="49.74756" lon="0.44622">
        <ele>27.8</ele>
        <time>2020-06-18T08:30:13Z</time>
      </trkpt>
      <trkpt lat="49.74756" lon="0.44631">
        <ele>27.8</ele>
        <time>2020-06-18T08:30:14Z</time>
      </trkpt>
      <trkpt lat="49.74756" lon="0.4464">
        <ele>27.8</ele>
        <time>2020-06-18T08:30:15Z</time>
      </trkpt>
      <trkpt lat="49.74756" lon="0.44651">
        <ele>27.9</ele>
        <time>2020-06-18T08:30:16Z</time>
      </trkpt>
      <trkpt lat="49.74755" lon="0.44661">
        <ele>28</ele>
        <time>2020-06-18T08:30:17Z</time>
      </trkpt>
      <trkpt lat="49.74754" lon="0.44674">
        <ele>28</ele>
        <time>2020-06-18T08:30:18Z</time>
      </trkpt>
      <trkpt lat="49.74754" lon="0.44685">
        <ele>28.1</ele>
        <time>2020-06-18T08:30:19Z</time>
      </trkpt>
      <trkpt lat="49.74753" lon="0.44698">
        <ele>28.2</ele>
        <time>2020-06-18T08:30:20Z</time>
      </trkpt>
      <trkpt lat="49.74752" lon="0.44708">
        <ele>28.3</ele>
        <time>2020-06-18T08:30:21Z</time>
      </trkpt>
      <trkpt lat="49.74752" lon="0.44718">
        <ele>28.3</ele>
        <time>2020-06-18T08:30:22Z</time>
      </trkpt>
      <trkpt lat="49.74752" lon="0.44729">
        <ele>28.4</ele>
        <time>2020-06-18T08:30:23Z</time>
      </trkpt>
      <trkpt lat="49.74753" lon="0.4474">
        <ele>28.5</ele>
        <time>2020-06-18T08:30:24Z</time>
      </trkpt>
      <trkpt lat="49.74753" lon="0.44749">
        <ele>28.5</ele>
        <time>2020-06-18T08:30:25Z</time>
      </trkpt>
      <trkpt lat="49.74753" lon="0.44762">
        <ele>28.6</ele>
        <time>2020-06-18T08:30:26Z</time>
      </trkpt>
      <trkpt lat="49.74753" lon="0.44771">
        <ele>28.6</ele>
        <time>2020-06-18T08:30:27Z</time>
      </trkpt>
      <trkpt lat="49.74752" lon="0.44779">
        <ele>28.6</ele>
        <time>2020-06-18T08:30:28Z</time>
      </trkpt>
      <trkpt lat="49.74752" lon="0.44787">
        <ele>28.7</ele>
        <time>2020-06-18T08:30:29Z</time>
      </trkpt>
      <trkpt lat="49.74751" lon="0.44796">
        <ele>28.7</ele>
        <time>2020-06-18T08:30:30Z</time>
      </trkpt>
      <trkpt lat="49.74751" lon="0.44803">
        <ele>28.8</ele>
        <time>2020-06-18T08:30:31Z</time>
      </trkpt>
      <trkpt lat="49.74752" lon="0.44813">
        <ele>28.8</ele>
        <time>2020-06-18T08:30:32Z</time>
      </trkpt>
      <trkpt lat="49.74751" lon="0.4482">
        <ele>28.8</ele>
        <time>2020-06-18T08:30:33Z</time>
      </trkpt>
      <trkpt lat="49.74752" lon="0.44827">
        <ele>28.9</ele>
        <time>2020-06-18T08:30:34Z</time>
      </trkpt>
      <trkpt lat="49.74751" lon="0.44832">
        <ele>28.9</ele>
        <time>2020-06-18T08:30:35Z</time>
      </trkpt>
      <trkpt lat="49.74751" lon="0.44838">
        <ele>28.9</ele>
        <time>2020-06-18T08:30:36Z</time>
      </trkpt>
      <trkpt lat="49.7475" lon="0.44845">
        <ele>29</ele>
        <time>2020-06-18T08:30:37Z</time>
      </trkpt>
      <trkpt lat="49.74751" lon="0.44851">
        <ele>29</ele>
        <time>2020-06-18T08:30:38Z</time>
      </trkpt>
      <trkpt lat="49.74751" lon="0.44855">
        <ele>29</ele>
        <time>2020-06-18T08:30:39Z</time>
      </trkpt>
      <trkpt lat="49.74752" lon="0.44862">
        <ele>29.1</ele>
        <time>2020-06-18T08:30:40Z</time>
      </trkpt>
      <trkpt lat="49.74752" lon="0.44868">
        <ele>29.1</ele>
        <time>2020-06-18T08:30:41Z</time>
      </trkpt>
      <trkpt lat="49.74752" lon="0.44872">
        <ele>29.1</ele>
        <time>2020-06-18T08:30:42Z</time>
      </trkpt>
      <trkpt lat="49.74751" lon="0.44876">
        <ele>29.2</ele>
        <time>2020-06-18T08:30:43Z</time>
      </trkpt>
      <trkpt lat="49.74748" lon="0.4488">
        <ele>29.1</ele>
        <time>2020-06-18T08:30:44Z</time>
      </trkpt>
      <trkpt lat="49.74745" lon="0.44882">
        <ele>29</ele>
        <time>2020-06-18T08:30:45Z</time>
      </trkpt>
      <trkpt lat="49.7474" lon="0.44886">
        <ele>29</ele>
        <time>2020-06-18T08:30:46Z</time>
      </trkpt>
      <trkpt lat="49.74736" lon="0.44889">
        <ele>28.9</ele>
        <time>2020-06-18T08:30:47Z</time>
      </trkpt>
      <trkpt lat="49.74732" lon="0.44897">
        <ele>28.8</ele>
        <time>2020-06-18T08:30:48Z</time>
      </trkpt>
      <trkpt lat="49.74728" lon="0.44903">
        <ele>28.7</ele>
        <time>2020-06-18T08:30:49Z</time>
      </trkpt>
      <trkpt lat="49.74723" lon="0.4491">
        <ele>28.6</ele>
        <time>2020-06-18T08:30:50Z</time>
      </trkpt>
      <trkpt lat="49.74719" lon="0.44916">
        <ele>28.5</ele>
        <time>2020-06-18T08:30:51Z</time>
      </trkpt>
      <trkpt lat="49.74714" lon="0.44925">
        <ele>28.4</ele>
        <time>2020-06-18T08:30:52Z</time>
      </trkpt>
      <trkpt lat="49.7471" lon="0.44934">
        <ele>28.4</ele>
        <time>2020-06-18T08:30:53Z</time>
      </trkpt>
      <trkpt lat="49.74708" lon="0.4494">
        <ele>28.3</ele>
        <time>2020-06-18T08:30:54Z</time>
      </trkpt>
      <trkpt lat="49.74705" lon="0.44946">
        <ele>28.3</ele>
        <time>2020-06-18T08:30:55Z</time>
      </trkpt>
      <trkpt lat="49.74702" lon="0.44953">
        <ele>28.2</ele>
        <time>2020-06-18T08:30:56Z</time>
      </trkpt>
      <trkpt lat="49.747" lon="0.44961">
        <ele>28.2</ele>
        <time>2020-06-18T08:30:57Z</time>
      </trkpt>
      <trkpt lat="49.74698" lon="0.4497">
        <ele>28.2</ele>
        <time>2020-06-18T08:30:58Z</time>
      </trkpt>
      <trkpt lat="49.74697" lon="0.44979">
        <ele>28.2</ele>
        <time>2020-06-18T08:30:59Z</time>
      </trkpt>
      <trkpt lat="49.74697" lon="0.44988">
        <ele>28.2</ele>
        <time>2020-06-18T08:31:00Z</time>
      </trkpt>
      <trkpt lat="49.74697" lon="0.44998">
        <ele>28.3</ele>
        <time>2020-06-18T08:31:01Z</time>
      </trkpt>
      <trkpt lat="49.74696" lon="0.45006">
        <ele>28.3</ele>
        <time>2020-06-18T08:31:02Z</time>
      </trkpt>
      <trkpt lat="49.74696" lon="0.45015">
        <ele>28.4</ele>
        <time>2020-06-18T08:31:03Z</time>
      </trkpt>
      <trkpt lat="49.74695" lon="0.45023">
        <ele>28.4</ele>
        <time>2020-06-18T08:31:04Z</time>
      </trkpt>
      <trkpt lat="49.74694" lon="0.45031">
        <ele>28.5</ele>
        <time>2020-06-18T08:31:05Z</time>
      </trkpt>
      <trkpt lat="49.74693" lon="0.45037">
        <ele>28.5</ele>
        <time>2020-06-18T08:31:06Z</time>
      </trkpt>
      <trkpt lat="49.74692" lon="0.45046">
        <ele>28.6</ele>
        <time>2020-06-18T08:31:07Z</time>
      </trkpt>
      <trkpt lat="49.74691" lon="0.45057">
        <ele>28.7</ele>
        <time>2020-06-18T08:31:08Z</time>
      </trkpt>
      <trkpt lat="49.74692" lon="0.45067">
        <ele>28.8</ele>
        <time>2020-06-18T08:31:09Z</time>
      </trkpt>
      <trkpt lat="49.74691" lon="0.45075">
        <ele>28.8</ele>
        <time>2020-06-18T08:31:10Z</time>
      </trkpt>
      <trkpt lat="49.74689" lon="0.45084">
        <ele>28.9</ele>
        <time>2020-06-18T08:31:11Z</time>
      </trkpt>
      <trkpt lat="49.74687" lon="0.45093">
        <ele>29</ele>
        <time>2020-06-18T08:31:12Z</time>
      </trkpt>
      <trkpt lat="49.74686" lon="0.45101">
        <ele>29.1</ele>
        <time>2020-06-18T08:31:13Z</time>
      </trkpt>
      <trkpt lat="49.74684" lon="0.45108">
        <ele>29.1</ele>
        <time>2020-06-18T08:31:14Z</time>
      </trkpt>
      <trkpt lat="49.74683" lon="0.45115">
        <ele>29.2</ele>
        <time>2020-06-18T08:31:15Z</time>
      </trkpt>
      <trkpt lat="49.74682" lon="0.45121">
        <ele>29.2</ele>
        <time>2020-06-18T08:31:16Z</time>
      </trkpt>
      <trkpt lat="49.74681" lon="0.4513">
        <ele>29.3</ele>
        <time>2020-06-18T08:31:17Z</time>
      </trkpt>
      <trkpt lat="49.7468" lon="0.45138">
        <ele>29.4</ele>
        <time>2020-06-18T08:31:18Z</time>
      </trkpt>
      <trkpt lat="49.74678" lon="0.45145">
        <ele>29.4</ele>
        <time>2020-06-18T08:31:19Z</time>
      </trkpt>
      <trkpt lat="49.74676" lon="0.45151">
        <ele>29.5</ele>
        <time>2020-06-18T08:31:20Z</time>
      </trkpt>
      <trkpt lat="49.74674" lon="0.45157">
        <ele>29.6</ele>
        <time>2020-06-18T08:31:21Z</time>
      </trkpt>
      <trkpt lat="49.74671" lon="0.45163">
        <ele>29.7</ele>
        <time>2020-06-18T08:31:22Z</time>
      </trkpt>
      <trkpt lat="49.74666" lon="0.45166">
        <ele>29.8</ele>
        <time>2020-06-18T08:31:23Z</time>
      </trkpt>
      <trkpt lat="49.74661" lon="0.45167">
        <ele>29.9</ele>
        <time>2020-06-18T08:31:24Z</time>
      </trkpt>
      <trkpt lat="49.74656" lon="0.45166">
        <ele>30</ele>
        <time>2020-06-18T08:31:25Z</time>
      </trkpt>
      <trkpt lat="49.74651" lon="0.45166">
        <ele>30</ele>
        <time>2020-06-18T08:31:26Z</time>
      </trkpt>
      <trkpt lat="49.74646" lon="0.45166">
        <ele>29.9</ele>
        <time>2020-06-18T08:31:27Z</time>
      </trkpt>
      <trkpt lat="49.74642" lon="0.45168">
        <ele>29.9</ele>
        <time>2020-06-18T08:31:28Z</time>
      </trkpt>
      <trkpt lat="49.74639" lon="0.45175">
        <ele>29.8</ele>
        <time>2020-06-18T08:31:29Z</time>
      </trkpt>
      <trkpt lat="49.74638" lon="0.45187">
        <ele>29.8</ele>
        <time>2020-06-18T08:31:30Z</time>
      </trkpt>
      <trkpt lat="49.74639" lon="0.45196">
        <ele>29.8</ele>
        <time>2020-06-18T08:31:31Z</time>
      </trkpt>
      <trkpt lat="49.74639" lon="0.45205">
        <ele>29.8</ele>
        <time>2020-06-18T08:31:32Z</time>
      </trkpt>
      <trkpt lat="49.74639" lon="0.45215">
        <ele>29.8</ele>
        <time>2020-06-18T08:31:33Z</time>
      </trkpt>
      <trkpt lat="49.74639" lon="0.45224">
        <ele>29.8</ele>
        <time>2020-06-18T08:31:34Z</time>
      </trkpt>
      <trkpt lat="49.7464" lon="0.45235">
        <ele>29.7</ele>
        <time>2020-06-18T08:31:35Z</time>
      </trkpt>
      <trkpt lat="49.7464" lon="0.45245">
        <ele>29.7</ele>
        <time>2020-06-18T08:31:36Z</time>
      </trkpt>
      <trkpt lat="49.7464" lon="0.45254">
        <ele>29.7</ele>
        <time>2020-06-18T08:31:37Z</time>
      </trkpt>
      <trkpt lat="49.74641" lon="0.4526">
        <ele>29.7</ele>
        <time>2020-06-18T08:31:38Z</time>
      </trkpt>
      <trkpt lat="49.74642" lon="0.45267">
        <ele>29.7</ele>
        <time>2020-06-18T08:31:39Z</time>
      </trkpt>
      <trkpt lat="49.74642" lon="0.45277">
        <ele>29.7</ele>
        <time>2020-06-18T08:31:40Z</time>
      </trkpt>
      <trkpt lat="49.74643" lon="0.45286">
        <ele>29.7</ele>
        <time>2020-06-18T08:31:41Z</time>
      </trkpt>
      <trkpt lat="49.74644" lon="0.45295">
        <ele>29.7</ele>
        <time>2020-06-18T08:31:42Z</time>
      </trkpt>
      <trkpt lat="49.74644" lon="0.45304">
        <ele>29.7</ele>
        <time>2020-06-18T08:31:43Z</time>
      </trkpt>
      <trkpt lat="49.74646" lon="0.45315">
        <ele>29.7</ele>
        <time>2020-06-18T08:31:44Z</time>
      </trkpt>
      <trkpt lat="49.74648" lon="0.45326">
        <ele>29.7</ele>
        <time>2020-06-18T08:31:45Z</time>
      </trkpt>
      <trkpt lat="49.74652" lon="0.45333">
        <ele>29.7</ele>
        <time>2020-06-18T08:31:46Z</time>
      </trkpt>
      <trkpt lat="49.74655" lon="0.4534">
        <ele>29.7</ele>
        <time>2020-06-18T08:31:47Z</time>
      </trkpt>
      <trkpt lat="49.74659" lon="0.45349">
        <ele>29.7</ele>
        <time>2020-06-18T08:31:48Z</time>
      </trkpt>
      <trkpt lat="49.74662" lon="0.45358">
        <ele>29.7</ele>
        <time>2020-06-18T08:31:49Z</time>
      </trkpt>
      <trkpt lat="49.74665" lon="0.45364">
        <ele>29.8</ele>
        <time>2020-06-18T08:31:50Z</time>
      </trkpt>
      <trkpt lat="49.74668" lon="0.45372">
        <ele>29.8</ele>
        <time>2020-06-18T08:31:51Z</time>
      </trkpt>
      <trkpt lat="49.74671" lon="0.4538">
        <ele>29.8</ele>
        <time>2020-06-18T08:31:52Z</time>
      </trkpt>
      <trkpt lat="49.74675" lon="0.4539">
        <ele>29.8</ele>
        <time>2020-06-18T08:31:53Z</time>
      </trkpt>
      <trkpt lat="49.74677" lon="0.45397">
        <ele>29.9</ele>
        <time>2020-06-18T08:31:54Z</time>
      </trkpt>
      <trkpt lat="49.7468" lon="0.45405">
        <ele>29.9</ele>
        <time>2020-06-18T08:31:55Z</time>
      </trkpt>
      <trkpt lat="49.74682" lon="0.45412">
        <ele>29.9</ele>
        <time>2020-06-18T08:31:56Z</time>
      </trkpt>
      <trkpt lat="49.74684" lon="0.45422">
        <ele>30</ele>
        <time>2020-06-18T08:31:57Z</time>
      </trkpt>
      <trkpt lat="49.74686" lon="0.45432">
        <ele>30</ele>
        <time>2020-06-18T08:31:58Z</time>
      </trkpt>
      <trkpt lat="49.74689" lon="0.45441">
        <ele>30</ele>
        <time>2020-06-18T08:31:59Z</time>
      </trkpt>
      <trkpt lat="49.74692" lon="0.45452">
        <ele>30</ele>
        <time>2020-06-18T08:32:00Z</time>
      </trkpt>
      <trkpt lat="49.74694" lon="0.45462">
        <ele>30</ele>
        <time>2020-06-18T08:32:01Z</time>
      </trkpt>
      <trkpt lat="49.74696" lon="0.45471">
        <ele>30.1</ele>
        <time>2020-06-18T08:32:02Z</time>
      </trkpt>
      <trkpt lat="49.74697" lon="0.4548">
        <ele>30.1</ele>
        <time>2020-06-18T08:32:03Z</time>
      </trkpt>
      <trkpt lat="49.74699" lon="0.4549">
        <ele>30.2</ele>
        <time>2020-06-18T08:32:04Z</time>
      </trkpt>
      <trkpt lat="49.747" lon="0.455">
        <ele>30.2</ele>
        <time>2020-06-18T08:32:05Z</time>
      </trkpt>
      <trkpt lat="49.74702" lon="0.4551">
        <ele>30.3</ele>
        <time>2020-06-18T08:32:06Z</time>
      </trkpt>
      <trkpt lat="49.74704" lon="0.4552">
        <ele>30.3</ele>
        <time>2020-06-18T08:32:07Z</time>
      </trkpt>
      <trkpt lat="49.74706" lon="0.4553">
        <ele>30.4</ele>
        <time>2020-06-18T08:32:08Z</time>
      </trkpt>
      <trkpt lat="49.74708" lon="0.45539">
        <ele>30.4</ele>
        <time>2020-06-18T08:32:09Z</time>
      </trkpt>
      <trkpt lat="49.7471" lon="0.45549">
        <ele>30.4</ele>
        <time>2020-06-18T08:32:10Z</time>
      </trkpt>
      <trkpt lat="49.74713" lon="0.45559">
        <ele>30.5</ele>
        <time>2020-06-18T08:32:11Z</time>
      </trkpt>
      <trkpt lat="49.74715" lon="0.45569">
        <ele>30.5</ele>
        <time>2020-06-18T08:32:12Z</time>
      </trkpt>
      <trkpt lat="49.74718" lon="0.4558">
        <ele>30.5</ele>
        <time>2020-06-18T08:32:13Z</time>
      </trkpt>
      <trkpt lat="49.7472" lon="0.45589">
        <ele>30.6</ele>
        <time>2020-06-18T08:32:14Z</time>
      </trkpt>
      <trkpt lat="49.74722" lon="0.45599">
        <ele>30.6</ele>
        <time>2020-06-18T08:32:15Z</time>
      </trkpt>
      <trkpt lat="49.74724" lon="0.45608">
        <ele>30.6</ele>
        <time>2020-06-18T08:32:16Z</time>
      </trkpt>
      <trkpt lat="49.74726" lon="0.45617">
        <ele>30.7</ele>
        <time>2020-06-18T08:32:17Z</time>
      </trkpt>
      <trkpt lat="49.74728" lon="0.45627">
        <ele>30.7</ele>
        <time>2020-06-18T08:32:18Z</time>
      </trkpt>
      <trkpt lat="49.74731" lon="0.45634">
        <ele>30.7</ele>
        <time>2020-06-18T08:32:19Z</time>
      </trkpt>
      <trkpt lat="49.74733" lon="0.45643">
        <ele>30.7</ele>
        <time>2020-06-18T08:32:20Z</time>
      </trkpt>
      <trkpt lat="49.74736" lon="0.45653">
        <ele>30.7</ele>
        <time>2020-06-18T08:32:21Z</time>
      </trkpt>
      <trkpt lat="49.74738" lon="0.45661">
        <ele>30.6</ele>
        <time>2020-06-18T08:32:22Z</time>
      </trkpt>
      <trkpt lat="49.7474" lon="0.45668">
        <ele>30.6</ele>
        <time>2020-06-18T08:32:23Z</time>
      </trkpt>
      <trkpt lat="49.74743" lon="0.45674">
        <ele>30.6</ele>
        <time>2020-06-18T08:32:24Z</time>
      </trkpt>
      <trkpt lat="49.74745" lon="0.45679">
        <ele>30.7</ele>
        <time>2020-06-18T08:32:25Z</time>
      </trkpt>
      <trkpt lat="49.74748" lon="0.45683">
        <ele>30.7</ele>
        <time>2020-06-18T08:32:26Z</time>
      </trkpt>
      <trkpt lat="49.74752" lon="0.45689">
        <ele>30.7</ele>
        <time>2020-06-18T08:32:27Z</time>
      </trkpt>
      <trkpt lat="49.74757" lon="0.45695">
        <ele>30.8</ele>
        <time>2020-06-18T08:32:28Z</time>
      </trkpt>
      <trkpt lat="49.74761" lon="0.457">
        <ele>30.9</ele>
        <time>2020-06-18T08:32:29Z</time>
      </trkpt>
      <trkpt lat="49.74765" lon="0.45706">
        <ele>30.9</ele>
        <time>2020-06-18T08:32:30Z</time>
      </trkpt>
      <trkpt lat="49.74768" lon="0.45713">
        <ele>31</ele>
        <time>2020-06-18T08:32:31Z</time>
      </trkpt>
      <trkpt lat="49.74772" lon="0.45721">
        <ele>31</ele>
        <time>2020-06-18T08:32:32Z</time>
      </trkpt>
      <trkpt lat="49.74775" lon="0.45728">
        <ele>31</ele>
        <time>2020-06-18T08:32:33Z</time>
      </trkpt>
      <trkpt lat="49.74778" lon="0.45735">
        <ele>31.1</ele>
        <time>2020-06-18T08:32:34Z</time>
      </trkpt>
      <trkpt lat="49.74781" lon="0.45742">
        <ele>31.1</ele>
        <time>2020-06-18T08:32:35Z</time>
      </trkpt>
      <trkpt lat="49.74783" lon="0.45751">
        <ele>31.2</ele>
        <time>2020-06-18T08:32:36Z</time>
      </trkpt>
      <trkpt lat="49.74786" lon="0.4576">
        <ele>31.2</ele>
        <time>2020-06-18T08:32:37Z</time>
      </trkpt>
      <trkpt lat="49.74788" lon="0.45768">
        <ele>31.3</ele>
        <time>2020-06-18T08:32:38Z</time>
      </trkpt>
      <trkpt lat="49.74789" lon="0.45774">
        <ele>31.3</ele>
        <time>2020-06-18T08:32:39Z</time>
      </trkpt>
      <trkpt lat="49.74791" lon="0.45783">
        <ele>31.3</ele>
        <time>2020-06-18T08:32:40Z</time>
      </trkpt>
      <trkpt lat="49.74793" lon="0.45791">
        <ele>31.4</ele>
        <time>2020-06-18T08:32:41Z</time>
      </trkpt>
      <trkpt lat="49.74794" lon="0.458">
        <ele>31.4</ele>
        <time>2020-06-18T08:32:42Z</time>
      </trkpt>
      <trkpt lat="49.74795" lon="0.45808">
        <ele>31.5</ele>
        <time>2020-06-18T08:32:43Z</time>
      </trkpt>
      <trkpt lat="49.74797" lon="0.45818">
        <ele>31.5</ele>
        <time>2020-06-18T08:32:44Z</time>
      </trkpt>
      <trkpt lat="49.74798" lon="0.45827">
        <ele>31.6</ele>
        <time>2020-06-18T08:32:45Z</time>
      </trkpt>
      <trkpt lat="49.748" lon="0.45836">
        <ele>31.7</ele>
        <time>2020-06-18T08:32:46Z</time>
      </trkpt>
      <trkpt lat="49.74802" lon="0.45846">
        <ele>31.8</ele>
        <time>2020-06-18T08:32:47Z</time>
      </trkpt>
      <trkpt lat="49.74803" lon="0.45853">
        <ele>31.8</ele>
        <time>2020-06-18T08:32:48Z</time>
      </trkpt>
      <trkpt lat="49.74804" lon="0.45861">
        <ele>31.9</ele>
        <time>2020-06-18T08:32:49Z</time>
      </trkpt>
      <trkpt lat="49.74805" lon="0.45872">
        <ele>32</ele>
        <time>2020-06-18T08:32:50Z</time>
      </trkpt>
      <trkpt lat="49.74806" lon="0.45877">
        <ele>32</ele>
        <time>2020-06-18T08:32:51Z</time>
      </trkpt>
      <trkpt lat="49.74806" lon="0.45884">
        <ele>32</ele>
        <time>2020-06-18T08:32:52Z</time>
      </trkpt>
      <trkpt lat="49.74807" lon="0.45889">
        <ele>32</ele>
        <time>2020-06-18T08:32:53Z</time>
      </trkpt>
      <trkpt lat="49.74808" lon="0.45894">
        <ele>32.1</ele>
        <time>2020-06-18T08:32:54Z</time>
      </trkpt>
      <trkpt lat="49.74808" lon="0.459">
        <ele>32.1</ele>
        <time>2020-06-18T08:32:55Z</time>
      </trkpt>
      <trkpt lat="49.74809" lon="0.45907">
        <ele>32.1</ele>
        <time>2020-06-18T08:32:56Z</time>
      </trkpt>
      <trkpt lat="49.7481" lon="0.45912">
        <ele>32.2</ele>
        <time>2020-06-18T08:32:57Z</time>
      </trkpt>
      <trkpt lat="49.74814" lon="0.45916">
        <ele>32.2</ele>
        <time>2020-06-18T08:32:58Z</time>
      </trkpt>
      <trkpt lat="49.74815" lon="0.45917">
        <ele>32.2</ele>
        <time>2020-06-18T08:32:59Z</time>
      </trkpt>
      <trkpt lat="49.74819" lon="0.45916">
        <ele>32.3</ele>
        <time>2020-06-18T08:33:00Z</time>
      </trkpt>
      <trkpt lat="49.74821" lon="0.45914">
        <ele>32.3</ele>
        <time>2020-06-18T08:33:01Z</time>
      </trkpt>
      <trkpt lat="49.74825" lon="0.45911">
        <ele>32.3</ele>
        <time>2020-06-18T08:33:02Z</time>
      </trkpt>
      <trkpt lat="49.7483" lon="0.45908">
        <ele>32.3</ele>
        <time>2020-06-18T08:33:03Z</time>
      </trkpt>
      <trkpt lat="49.74834" lon="0.45904">
        <ele>32.3</ele>
        <time>2020-06-18T08:33:04Z</time>
      </trkpt>
      <trkpt lat="49.74841" lon="0.45901">
        <ele>32.4</ele>
        <time>2020-06-18T08:33:05Z</time>
      </trkpt>
      <trkpt lat="49.74846" lon="0.45898">
        <ele>32.4</ele>
        <time>2020-06-18T08:33:06Z</time>
      </trkpt>
      <trkpt lat="49.74851" lon="0.45895">
        <ele>32.4</ele>
        <time>2020-06-18T08:33:07Z</time>
      </trkpt>
      <trkpt lat="49.74855" lon="0.45893">
        <ele>32.4</ele>
        <time>2020-06-18T08:33:08Z</time>
      </trkpt>
      <trkpt lat="49.74859" lon="0.45891">
        <ele>32.4</ele>
        <time>2020-06-18T08:33:09Z</time>
      </trkpt>
      <trkpt lat="49.74864" lon="0.45893">
        <ele>32.5</ele>
        <time>2020-06-18T08:33:10Z</time>
      </trkpt>
      <trkpt lat="49.7487" lon="0.45895">
        <ele>32.5</ele>
        <time>2020-06-18T08:33:11Z</time>
      </trkpt>
      <trkpt lat="49.74875" lon="0.45896">
        <ele>32.5</ele>
        <time>2020-06-18T08:33:12Z</time>
      </trkpt>
      <trkpt lat="49.7488" lon="0.45899">
        <ele>32.5</ele>
        <time>2020-06-18T08:33:13Z</time>
      </trkpt>
      <trkpt lat="49.74884" lon="0.45902">
        <ele>32.6</ele>
        <time>2020-06-18T08:33:14Z</time>
      </trkpt>
      <trkpt lat="49.74887" lon="0.45906">
        <ele>32.6</ele>
        <time>2020-06-18T08:33:15Z</time>
      </trkpt>
      <trkpt lat="49.7489" lon="0.4591">
        <ele>32.7</ele>
        <time>2020-06-18T08:33:16Z</time>
      </trkpt>
      <trkpt lat="49.74891" lon="0.45917">
        <ele>32.7</ele>
        <time>2020-06-18T08:33:17Z</time>
      </trkpt>
      <trkpt lat="49.74892" lon="0.45923">
        <ele>32.7</ele>
        <time>2020-06-18T08:33:18Z</time>
      </trkpt>
      <trkpt lat="49.74894" lon="0.45931">
        <ele>32.7</ele>
        <time>2020-06-18T08:33:19Z</time>
      </trkpt>
      <trkpt lat="49.74894" lon="0.45938">
        <ele>32.7</ele>
        <time>2020-06-18T08:33:20Z</time>
      </trkpt>
      <trkpt lat="49.74895" lon="0.45946">
        <ele>32.7</ele>
        <time>2020-06-18T08:33:21Z</time>
      </trkpt>
      <trkpt lat="49.74896" lon="0.45954">
        <ele>32.7</ele>
        <time>2020-06-18T08:33:22Z</time>
      </trkpt>
      <trkpt lat="49.74897" lon="0.45961">
        <ele>32.7</ele>
        <time>2020-06-18T08:33:23Z</time>
      </trkpt>
      <trkpt lat="49.74897" lon="0.4597">
        <ele>32.7</ele>
        <time>2020-06-18T08:33:24Z</time>
      </trkpt>
      <trkpt lat="49.74897" lon="0.45978">
        <ele>32.7</ele>
        <time>2020-06-18T08:33:25Z</time>
      </trkpt>
      <trkpt lat="49.74897" lon="0.45987">
        <ele>32.8</ele>
        <time>2020-06-18T08:33:26Z</time>
      </trkpt>
      <trkpt lat="49.74897" lon="0.45995">
        <ele>32.8</ele>
        <time>2020-06-18T08:33:27Z</time>
      </trkpt>
      <trkpt lat="49.74898" lon="0.46004">
        <ele>32.8</ele>
        <time>2020-06-18T08:33:28Z</time>
      </trkpt>
      <trkpt lat="49.74898" lon="0.46012">
        <ele>32.8</ele>
        <time>2020-06-18T08:33:29Z</time>
      </trkpt>
      <trkpt lat="49.74899" lon="0.46021">
        <ele>32.9</ele>
        <time>2020-06-18T08:33:30Z</time>
      </trkpt>
      <trkpt lat="49.74899" lon="0.46029">
        <ele>32.9</ele>
        <time>2020-06-18T08:33:31Z</time>
      </trkpt>
      <trkpt lat="49.74899" lon="0.46037">
        <ele>32.9</ele>
        <time>2020-06-18T08:33:32Z</time>
      </trkpt>
      <trkpt lat="49.74899" lon="0.46046">
        <ele>32.9</ele>
        <time>2020-06-18T08:33:33Z</time>
      </trkpt>
      <trkpt lat="49.74899" lon="0.46054">
        <ele>33</ele>
        <time>2020-06-18T08:33:34Z</time>
      </trkpt>
      <trkpt lat="49.74897" lon="0.46062">
        <ele>33</ele>
        <time>2020-06-18T08:33:35Z</time>
      </trkpt>
      <trkpt lat="49.74895" lon="0.4607">
        <ele>33</ele>
        <time>2020-06-18T08:33:36Z</time>
      </trkpt>
      <trkpt lat="49.74894" lon="0.4608">
        <ele>33</ele>
        <time>2020-06-18T08:33:37Z</time>
      </trkpt>
      <trkpt lat="49.74895" lon="0.46091">
        <ele>33</ele>
        <time>2020-06-18T08:33:38Z</time>
      </trkpt>
      <trkpt lat="49.74894" lon="0.46101">
        <ele>33.1</ele>
        <time>2020-06-18T08:33:39Z</time>
      </trkpt>
      <trkpt lat="49.74894" lon="0.4611">
        <ele>33.1</ele>
        <time>2020-06-18T08:33:40Z</time>
      </trkpt>
      <trkpt lat="49.74894" lon="0.46119">
        <ele>33.1</ele>
        <time>2020-06-18T08:33:41Z</time>
      </trkpt>
      <trkpt lat="49.74893" lon="0.46128">
        <ele>33.1</ele>
        <time>2020-06-18T08:33:42Z</time>
      </trkpt>
      <trkpt lat="49.74893" lon="0.46138">
        <ele>33.2</ele>
        <time>2020-06-18T08:33:43Z</time>
      </trkpt>
      <trkpt lat="49.74892" lon="0.46147">
        <ele>33.2</ele>
        <time>2020-06-18T08:33:44Z</time>
      </trkpt>
      <trkpt lat="49.74891" lon="0.46158">
        <ele>33.2</ele>
        <time>2020-06-18T08:33:45Z</time>
      </trkpt>
      <trkpt lat="49.74889" lon="0.46167">
        <ele>33.2</ele>
        <time>2020-06-18T08:33:46Z</time>
      </trkpt>
      <trkpt lat="49.74887" lon="0.46176">
        <ele>33.3</ele>
        <time>2020-06-18T08:33:47Z</time>
      </trkpt>
      <trkpt lat="49.74885" lon="0.46185">
        <ele>33.3</ele>
        <time>2020-06-18T08:33:48Z</time>
      </trkpt>
      <trkpt lat="49.74883" lon="0.46194">
        <ele>33.3</ele>
        <time>2020-06-18T08:33:49Z</time>
      </trkpt>
      <trkpt lat="49.7488" lon="0.46204">
        <ele>33.4</ele>
        <time>2020-06-18T08:33:50Z</time>
      </trkpt>
      <trkpt lat="49.74878" lon="0.46214">
        <ele>33.4</ele>
        <time>2020-06-18T08:33:51Z</time>
      </trkpt>
      <trkpt lat="49.74876" lon="0.46224">
        <ele>33.4</ele>
        <time>2020-06-18T08:33:52Z</time>
      </trkpt>
      <trkpt lat="49.74874" lon="0.46233">
        <ele>33.5</ele>
        <time>2020-06-18T08:33:53Z</time>
      </trkpt>
      <trkpt lat="49.74872" lon="0.46242">
        <ele>33.5</ele>
        <time>2020-06-18T08:33:54Z</time>
      </trkpt>
      <trkpt lat="49.74869" lon="0.46251">
        <ele>33.5</ele>
        <time>2020-06-18T08:33:55Z</time>
      </trkpt>
      <trkpt lat="49.74866" lon="0.4626">
        <ele>33.6</ele>
        <time>2020-06-18T08:33:56Z</time>
      </trkpt>
      <trkpt lat="49.74863" lon="0.46269">
        <ele>33.7</ele>
        <time>2020-06-18T08:33:57Z</time>
      </trkpt>
      <trkpt lat="49.7486" lon="0.46279">
        <ele>33.7</ele>
        <time>2020-06-18T08:33:58Z</time>
      </trkpt>
      <trkpt lat="49.74857" lon="0.46288">
        <ele>33.8</ele>
        <time>2020-06-18T08:33:59Z</time>
      </trkpt>
      <trkpt lat="49.74854" lon="0.46296">
        <ele>33.8</ele>
        <time>2020-06-18T08:34:00Z</time>
      </trkpt>
      <trkpt lat="49.74852" lon="0.46306">
        <ele>33.8</ele>
        <time>2020-06-18T08:34:01Z</time>
      </trkpt>
      <trkpt lat="49.74848" lon="0.46314">
        <ele>33.9</ele>
        <time>2020-06-18T08:34:02Z</time>
      </trkpt>
      <trkpt lat="49.74845" lon="0.46323">
        <ele>33.9</ele>
        <time>2020-06-18T08:34:03Z</time>
      </trkpt>
      <trkpt lat="49.74841" lon="0.46331">
        <ele>33.9</ele>
        <time>2020-06-18T08:34:04Z</time>
      </trkpt>
      <trkpt lat="49.74837" lon="0.46338">
        <ele>33.9</ele>
        <time>2020-06-18T08:34:05Z</time>
      </trkpt>
      <trkpt lat="49.74834" lon="0.46344">
        <ele>34</ele>
        <time>2020-06-18T08:34:06Z</time>
      </trkpt>
      <trkpt lat="49.7483" lon="0.46352">
        <ele>34</ele>
        <time>2020-06-18T08:34:07Z</time>
      </trkpt>
      <trkpt lat="49.74826" lon="0.4636">
        <ele>34.1</ele>
        <time>2020-06-18T08:34:08Z</time>
      </trkpt>
      <trkpt lat="49.74821" lon="0.46368">
        <ele>34.1</ele>
        <time>2020-06-18T08:34:09Z</time>
      </trkpt>
      <trkpt lat="49.74816" lon="0.46377">
        <ele>34.2</ele>
        <time>2020-06-18T08:34:10Z</time>
      </trkpt>
      <trkpt lat="49.7481" lon="0.46386">
        <ele>34.2</ele>
        <time>2020-06-18T08:34:11Z</time>
      </trkpt>
      <trkpt lat="49.74805" lon="0.46396">
        <ele>34.2</ele>
        <time>2020-06-18T08:34:12Z</time>
      </trkpt>
      <trkpt lat="49.748" lon="0.46405">
        <ele>34.2</ele>
        <time>2020-06-18T08:34:13Z</time>
      </trkpt>
      <trkpt lat="49.74795" lon="0.46413">
        <ele>34.3</ele>
        <time>2020-06-18T08:34:14Z</time>
      </trkpt>
      <trkpt lat="49.7479" lon="0.46422">
        <ele>34.3</ele>
        <time>2020-06-18T08:34:15Z</time>
      </trkpt>
      <trkpt lat="49.74786" lon="0.46431">
        <ele>34.4</ele>
        <time>2020-06-18T08:34:16Z</time>
      </trkpt>
      <trkpt lat="49.74781" lon="0.46438">
        <ele>34.4</ele>
        <time>2020-06-18T08:34:17Z</time>
      </trkpt>
      <trkpt lat="49.74776" lon="0.46446">
        <ele>34.4</ele>
        <time>2020-06-18T08:34:18Z</time>
      </trkpt>
      <trkpt lat="49.74772" lon="0.46455">
        <ele>34.5</ele>
        <time>2020-06-18T08:34:19Z</time>
      </trkpt>
      <trkpt lat="49.74767" lon="0.46463">
        <ele>34.5</ele>
        <time>2020-06-18T08:34:20Z</time>
      </trkpt>
      <trkpt lat="49.74762" lon="0.4647">
        <ele>34.5</ele>
        <time>2020-06-18T08:34:21Z</time>
      </trkpt>
      <trkpt lat="49.74758" lon="0.46477">
        <ele>34.6</ele>
        <time>2020-06-18T08:34:22Z</time>
      </trkpt>
      <trkpt lat="49.74754" lon="0.46484">
        <ele>34.6</ele>
        <time>2020-06-18T08:34:23Z</time>
      </trkpt>
      <trkpt lat="49.74749" lon="0.46492">
        <ele>34.7</ele>
        <time>2020-06-18T08:34:24Z</time>
      </trkpt>
      <trkpt lat="49.74744" lon="0.465">
        <ele>34.7</ele>
        <time>2020-06-18T08:34:25Z</time>
      </trkpt>
      <trkpt lat="49.7474" lon="0.46508">
        <ele>34.7</ele>
        <time>2020-06-18T08:34:26Z</time>
      </trkpt>
      <trkpt lat="49.74735" lon="0.46516">
        <ele>34.7</ele>
        <time>2020-06-18T08:34:27Z</time>
      </trkpt>
      <trkpt lat="49.74731" lon="0.46525">
        <ele>34.8</ele>
        <time>2020-06-18T08:34:28Z</time>
      </trkpt>
      <trkpt lat="49.74726" lon="0.46533">
        <ele>34.8</ele>
        <time>2020-06-18T08:34:29Z</time>
      </trkpt>
      <trkpt lat="49.74722" lon="0.46541">
        <ele>34.9</ele>
        <time>2020-06-18T08:34:30Z</time>
      </trkpt>
      <trkpt lat="49.74717" lon="0.4655">
        <ele>34.9</ele>
        <time>2020-06-18T08:34:31Z</time>
      </trkpt>
      <trkpt lat="49.74713" lon="0.46558">
        <ele>35</ele>
        <time>2020-06-18T08:34:32Z</time>
      </trkpt>
      <trkpt lat="49.74708" lon="0.46566">
        <ele>35</ele>
        <time>2020-06-18T08:34:33Z</time>
      </trkpt>
      <trkpt lat="49.74704" lon="0.46574">
        <ele>35.1</ele>
        <time>2020-06-18T08:34:34Z</time>
      </trkpt>
      <trkpt lat="49.747" lon="0.46582">
        <ele>35.1</ele>
        <time>2020-06-18T08:34:35Z</time>
      </trkpt>
      <trkpt lat="49.74695" lon="0.4659">
        <ele>35.2</ele>
        <time>2020-06-18T08:34:36Z</time>
      </trkpt>
      <trkpt lat="49.74691" lon="0.46598">
        <ele>35.2</ele>
        <time>2020-06-18T08:34:37Z</time>
      </trkpt>
      <trkpt lat="49.74687" lon="0.46605">
        <ele>35.3</ele>
        <time>2020-06-18T08:34:38Z</time>
      </trkpt>
      <trkpt lat="49.74682" lon="0.46614">
        <ele>35.3</ele>
        <time>2020-06-18T08:34:39Z</time>
      </trkpt>
      <trkpt lat="49.74678" lon="0.46621">
        <ele>35.3</ele>
        <time>2020-06-18T08:34:40Z</time>
      </trkpt>
      <trkpt lat="49.74673" lon="0.46629">
        <ele>35.4</ele>
        <time>2020-06-18T08:34:41Z</time>
      </trkpt>
      <trkpt lat="49.74668" lon="0.46636">
        <ele>35.5</ele>
        <time>2020-06-18T08:34:42Z</time>
      </trkpt>
      <trkpt lat="49.74663" lon="0.46643">
        <ele>35.5</ele>
        <time>2020-06-18T08:34:43Z</time>
      </trkpt>
      <trkpt lat="49.74659" lon="0.46651">
        <ele>35.5</ele>
        <time>2020-06-18T08:34:44Z</time>
      </trkpt>
      <trkpt lat="49.74655" lon="0.4666">
        <ele>35.5</ele>
        <time>2020-06-18T08:34:45Z</time>
      </trkpt>
      <trkpt lat="49.7465" lon="0.46667">
        <ele>35.5</ele>
        <time>2020-06-18T08:34:46Z</time>
      </trkpt>
      <trkpt lat="49.74646" lon="0.46675">
        <ele>35.5</ele>
        <time>2020-06-18T08:34:47Z</time>
      </trkpt>
      <trkpt lat="49.74641" lon="0.46682">
        <ele>35.6</ele>
        <time>2020-06-18T08:34:48Z</time>
      </trkpt>
      <trkpt lat="49.74637" lon="0.46689">
        <ele>35.6</ele>
        <time>2020-06-18T08:34:49Z</time>
      </trkpt>
      <trkpt lat="49.74633" lon="0.46696">
        <ele>35.6</ele>
        <time>2020-06-18T08:34:50Z</time>
      </trkpt>
      <trkpt lat="49.74629" lon="0.46704">
        <ele>35.6</ele>
        <time>2020-06-18T08:34:51Z</time>
      </trkpt>
      <trkpt lat="49.74625" lon="0.46711">
        <ele>35.6</ele>
        <time>2020-06-18T08:34:52Z</time>
      </trkpt>
      <trkpt lat="49.74621" lon="0.46718">
        <ele>35.6</ele>
        <time>2020-06-18T08:34:53Z</time>
      </trkpt>
      <trkpt lat="49.74617" lon="0.46726">
        <ele>35.7</ele>
        <time>2020-06-18T08:34:54Z</time>
      </trkpt>
      <trkpt lat="49.74613" lon="0.46734">
        <ele>35.7</ele>
        <time>2020-06-18T08:34:55Z</time>
      </trkpt>
      <trkpt lat="49.7461" lon="0.46744">
        <ele>35.7</ele>
        <time>2020-06-18T08:34:56Z</time>
      </trkpt>
      <trkpt lat="49.74606" lon="0.46752">
        <ele>35.8</ele>
        <time>2020-06-18T08:34:57Z</time>
      </trkpt>
      <trkpt lat="49.74603" lon="0.46761">
        <ele>35.8</ele>
        <time>2020-06-18T08:34:58Z</time>
      </trkpt>
      <trkpt lat="49.74599" lon="0.4677">
        <ele>35.8</ele>
        <time>2020-06-18T08:34:59Z</time>
      </trkpt>
      <trkpt lat="49.74595" lon="0.46778">
        <ele>35.9</ele>
        <time>2020-06-18T08:35:00Z</time>
      </trkpt>
      <trkpt lat="49.74592" lon="0.46787">
        <ele>35.9</ele>
        <time>2020-06-18T08:35:01Z</time>
      </trkpt>
      <trkpt lat="49.74589" lon="0.46796">
        <ele>35.9</ele>
        <time>2020-06-18T08:35:02Z</time>
      </trkpt>
      <trkpt lat="49.74585" lon="0.46805">
        <ele>35.9</ele>
        <time>2020-06-18T08:35:03Z</time>
      </trkpt>
      <trkpt lat="49.74582" lon="0.46815">
        <ele>35.9</ele>
        <time>2020-06-18T08:35:04Z</time>
      </trkpt>
      <trkpt lat="49.74578" lon="0.46825">
        <ele>35.9</ele>
        <time>2020-06-18T08:35:05Z</time>
      </trkpt>
      <trkpt lat="49.74574" lon="0.46834">
        <ele>36</ele>
        <time>2020-06-18T08:35:06Z</time>
      </trkpt>
      <trkpt lat="49.74571" lon="0.46842">
        <ele>36</ele>
        <time>2020-06-18T08:35:07Z</time>
      </trkpt>
      <trkpt lat="49.74567" lon="0.46852">
        <ele>36</ele>
        <time>2020-06-18T08:35:08Z</time>
      </trkpt>
      <trkpt lat="49.74563" lon="0.4686">
        <ele>36</ele>
        <time>2020-06-18T08:35:09Z</time>
      </trkpt>
      <trkpt lat="49.7456" lon="0.4687">
        <ele>36.1</ele>
        <time>2020-06-18T08:35:10Z</time>
      </trkpt>
      <trkpt lat="49.74556" lon="0.4688">
        <ele>36.1</ele>
        <time>2020-06-18T08:35:11Z</time>
      </trkpt>
      <trkpt lat="49.74552" lon="0.46891">
        <ele>36.2</ele>
        <time>2020-06-18T08:35:12Z</time>
      </trkpt>
      <trkpt lat="49.74548" lon="0.469">
        <ele>36.2</ele>
        <time>2020-06-18T08:35:13Z</time>
      </trkpt>
      <trkpt lat="49.74545" lon="0.4691">
        <ele>36.2</ele>
        <time>2020-06-18T08:35:14Z</time>
      </trkpt>
      <trkpt lat="49.74541" lon="0.46918">
        <ele>36.2</ele>
        <time>2020-06-18T08:35:15Z</time>
      </trkpt>
      <trkpt lat="49.74538" lon="0.46928">
        <ele>36.3</ele>
        <time>2020-06-18T08:35:16Z</time>
      </trkpt>
      <trkpt lat="49.74535" lon="0.46938">
        <ele>36.3</ele>
        <time>2020-06-18T08:35:17Z</time>
      </trkpt>
      <trkpt lat="49.74532" lon="0.46947">
        <ele>36.3</ele>
        <time>2020-06-18T08:35:18Z</time>
      </trkpt>
      <trkpt lat="49.74529" lon="0.46957">
        <ele>36.4</ele>
        <time>2020-06-18T08:35:19Z</time>
      </trkpt>
      <trkpt lat="49.74526" lon="0.46966">
        <ele>36.5</ele>
        <time>2020-06-18T08:35:20Z</time>
      </trkpt>
      <trkpt lat="49.74523" lon="0.46975">
        <ele>36.6</ele>
        <time>2020-06-18T08:35:21Z</time>
      </trkpt>
      <trkpt lat="49.74521" lon="0.46985">
        <ele>36.6</ele>
        <time>2020-06-18T08:35:22Z</time>
      </trkpt>
      <trkpt lat="49.74518" lon="0.46995">
        <ele>36.7</ele>
        <time>2020-06-18T08:35:23Z</time>
      </trkpt>
      <trkpt lat="49.74515" lon="0.47004">
        <ele>36.7</ele>
        <time>2020-06-18T08:35:24Z</time>
      </trkpt>
      <trkpt lat="49.74511" lon="0.47013">
        <ele>36.7</ele>
        <time>2020-06-18T08:35:25Z</time>
      </trkpt>
      <trkpt lat="49.74508" lon="0.47021">
        <ele>36.7</ele>
        <time>2020-06-18T08:35:26Z</time>
      </trkpt>
      <trkpt lat="49.74505" lon="0.4703">
        <ele>36.8</ele>
        <time>2020-06-18T08:35:27Z</time>
      </trkpt>
      <trkpt lat="49.74503" lon="0.47039">
        <ele>36.8</ele>
        <time>2020-06-18T08:35:28Z</time>
      </trkpt>
      <trkpt lat="49.745" lon="0.47049">
        <ele>36.8</ele>
        <time>2020-06-18T08:35:29Z</time>
      </trkpt>
      <trkpt lat="49.74497" lon="0.47058">
        <ele>36.8</ele>
        <time>2020-06-18T08:35:30Z</time>
      </trkpt>
      <trkpt lat="49.74495" lon="0.47068">
        <ele>36.9</ele>
        <time>2020-06-18T08:35:31Z</time>
      </trkpt>
      <trkpt lat="49.74491" lon="0.47078">
        <ele>36.9</ele>
        <time>2020-06-18T08:35:32Z</time>
      </trkpt>
      <trkpt lat="49.74489" lon="0.47087">
        <ele>37</ele>
        <time>2020-06-18T08:35:33Z</time>
      </trkpt>
      <trkpt lat="49.74486" lon="0.47097">
        <ele>37</ele>
        <time>2020-06-18T08:35:34Z</time>
      </trkpt>
      <trkpt lat="49.74482" lon="0.47107">
        <ele>37.1</ele>
        <time>2020-06-18T08:35:35Z</time>
      </trkpt>
      <trkpt lat="49.74478" lon="0.47115">
        <ele>37.2</ele>
        <time>2020-06-18T08:35:36Z</time>
      </trkpt>
      <trkpt lat="49.74475" lon="0.47124">
        <ele>37.2</ele>
        <time>2020-06-18T08:35:37Z</time>
      </trkpt>
      <trkpt lat="49.74472" lon="0.47136">
        <ele>37.3</ele>
        <time>2020-06-18T08:35:38Z</time>
      </trkpt>
      <trkpt lat="49.74469" lon="0.47146">
        <ele>37.4</ele>
        <time>2020-06-18T08:35:39Z</time>
      </trkpt>
      <trkpt lat="49.74465" lon="0.47156">
        <ele>37.5</ele>
        <time>2020-06-18T08:35:40Z</time>
      </trkpt>
      <trkpt lat="49.74462" lon="0.47165">
        <ele>37.5</ele>
        <time>2020-06-18T08:35:41Z</time>
      </trkpt>
      <trkpt lat="49.7446" lon="0.47174">
        <ele>37.6</ele>
        <time>2020-06-18T08:35:42Z</time>
      </trkpt>
      <trkpt lat="49.74457" lon="0.47183">
        <ele>37.7</ele>
        <time>2020-06-18T08:35:43Z</time>
      </trkpt>
      <trkpt lat="49.74454" lon="0.47193">
        <ele>37.7</ele>
        <time>2020-06-18T08:35:44Z</time>
      </trkpt>
      <trkpt lat="49.74451" lon="0.47202">
        <ele>37.8</ele>
        <time>2020-06-18T08:35:45Z</time>
      </trkpt>
      <trkpt lat="49.74449" lon="0.47212">
        <ele>37.9</ele>
        <time>2020-06-18T08:35:46Z</time>
      </trkpt>
      <trkpt lat="49.74446" lon="0.47221">
        <ele>38</ele>
        <time>2020-06-18T08:35:47Z</time>
      </trkpt>
      <trkpt lat="49.74443" lon="0.47231">
        <ele>38</ele>
        <time>2020-06-18T08:35:48Z</time>
      </trkpt>
      <trkpt lat="49.7444" lon="0.47241">
        <ele>38.1</ele>
        <time>2020-06-18T08:35:49Z</time>
      </trkpt>
      <trkpt lat="49.74437" lon="0.4725">
        <ele>38.2</ele>
        <time>2020-06-18T08:35:50Z</time>
      </trkpt>
      <trkpt lat="49.74435" lon="0.4726">
        <ele>38.3</ele>
        <time>2020-06-18T08:35:51Z</time>
      </trkpt>
      <trkpt lat="49.74432" lon="0.47271">
        <ele>38.4</ele>
        <time>2020-06-18T08:35:52Z</time>
      </trkpt>
      <trkpt lat="49.74429" lon="0.47281">
        <ele>38.4</ele>
        <time>2020-06-18T08:35:53Z</time>
      </trkpt>
      <trkpt lat="49.74427" lon="0.47291">
        <ele>38.4</ele>
        <time>2020-06-18T08:35:54Z</time>
      </trkpt>
      <trkpt lat="49.74425" lon="0.473">
        <ele>38.5</ele>
        <time>2020-06-18T08:35:55Z</time>
      </trkpt>
      <trkpt lat="49.74423" lon="0.4731">
        <ele>38.5</ele>
        <time>2020-06-18T08:35:56Z</time>
      </trkpt>
      <trkpt lat="49.7442" lon="0.4732">
        <ele>38.5</ele>
        <time>2020-06-18T08:35:57Z</time>
      </trkpt>
      <trkpt lat="49.74418" lon="0.4733">
        <ele>38.6</ele>
        <time>2020-06-18T08:35:58Z</time>
      </trkpt>
      <trkpt lat="49.74417" lon="0.47341">
        <ele>38.6</ele>
        <time>2020-06-18T08:35:59Z</time>
      </trkpt>
      <trkpt lat="49.74415" lon="0.47351">
        <ele>38.6</ele>
        <time>2020-06-18T08:36:00Z</time>
      </trkpt>
      <trkpt lat="49.74414" lon="0.47362">
        <ele>38.7</ele>
        <time>2020-06-18T08:36:01Z</time>
      </trkpt>
      <trkpt lat="49.74413" lon="0.47372">
        <ele>38.7</ele>
        <time>2020-06-18T08:36:02Z</time>
      </trkpt>
      <trkpt lat="49.74412" lon="0.47382">
        <ele>38.7</ele>
        <time>2020-06-18T08:36:03Z</time>
      </trkpt>
      <trkpt lat="49.74411" lon="0.47393">
        <ele>38.7</ele>
        <time>2020-06-18T08:36:04Z</time>
      </trkpt>
      <trkpt lat="49.7441" lon="0.47403">
        <ele>38.7</ele>
        <time>2020-06-18T08:36:05Z</time>
      </trkpt>
      <trkpt lat="49.7441" lon="0.47413">
        <ele>38.7</ele>
        <time>2020-06-18T08:36:06Z</time>
      </trkpt>
      <trkpt lat="49.74409" lon="0.47423">
        <ele>38.8</ele>
        <time>2020-06-18T08:36:07Z</time>
      </trkpt>
      <trkpt lat="49.7441" lon="0.47433">
        <ele>38.8</ele>
        <time>2020-06-18T08:36:08Z</time>
      </trkpt>
      <trkpt lat="49.7441" lon="0.47444">
        <ele>38.9</ele>
        <time>2020-06-18T08:36:09Z</time>
      </trkpt>
      <trkpt lat="49.7441" lon="0.47454">
        <ele>38.9</ele>
        <time>2020-06-18T08:36:10Z</time>
      </trkpt>
      <trkpt lat="49.74409" lon="0.47465">
        <ele>39</ele>
        <time>2020-06-18T08:36:11Z</time>
      </trkpt>
      <trkpt lat="49.74409" lon="0.47475">
        <ele>39</ele>
        <time>2020-06-18T08:36:12Z</time>
      </trkpt>
      <trkpt lat="49.74409" lon="0.47485">
        <ele>39.1</ele>
        <time>2020-06-18T08:36:13Z</time>
      </trkpt>
      <trkpt lat="49.74408" lon="0.47494">
        <ele>39.1</ele>
        <time>2020-06-18T08:36:14Z</time>
      </trkpt>
      <trkpt lat="49.74408" lon="0.47505">
        <ele>39.2</ele>
        <time>2020-06-18T08:36:15Z</time>
      </trkpt>
      <trkpt lat="49.74408" lon="0.47516">
        <ele>39.2</ele>
        <time>2020-06-18T08:36:16Z</time>
      </trkpt>
      <trkpt lat="49.74408" lon="0.47527">
        <ele>39.2</ele>
        <time>2020-06-18T08:36:17Z</time>
      </trkpt>
      <trkpt lat="49.74409" lon="0.47537">
        <ele>39.2</ele>
        <time>2020-06-18T08:36:18Z</time>
      </trkpt>
      <trkpt lat="49.74409" lon="0.47548">
        <ele>39.3</ele>
        <time>2020-06-18T08:36:19Z</time>
      </trkpt>
      <trkpt lat="49.7441" lon="0.47559">
        <ele>39.3</ele>
        <time>2020-06-18T08:36:20Z</time>
      </trkpt>
      <trkpt lat="49.74411" lon="0.4757">
        <ele>39.3</ele>
        <time>2020-06-18T08:36:21Z</time>
      </trkpt>
      <trkpt lat="49.74412" lon="0.4758">
        <ele>39.3</ele>
        <time>2020-06-18T08:36:22Z</time>
      </trkpt>
      <trkpt lat="49.74413" lon="0.47591">
        <ele>39.4</ele>
        <time>2020-06-18T08:36:23Z</time>
      </trkpt>
      <trkpt lat="49.74414" lon="0.47602">
        <ele>39.4</ele>
        <time>2020-06-18T08:36:24Z</time>
      </trkpt>
      <trkpt lat="49.74415" lon="0.47612">
        <ele>39.5</ele>
        <time>2020-06-18T08:36:25Z</time>
      </trkpt>
      <trkpt lat="49.74416" lon="0.47622">
        <ele>39.6</ele>
        <time>2020-06-18T08:36:26Z</time>
      </trkpt>
      <trkpt lat="49.74417" lon="0.47632">
        <ele>39.6</ele>
        <time>2020-06-18T08:36:27Z</time>
      </trkpt>
      <trkpt lat="49.74419" lon="0.47643">
        <ele>39.5</ele>
        <time>2020-06-18T08:36:28Z</time>
      </trkpt>
      <trkpt lat="49.7442" lon="0.47653">
        <ele>39.5</ele>
        <time>2020-06-18T08:36:29Z</time>
      </trkpt>
      <trkpt lat="49.74422" lon="0.47664">
        <ele>39.5</ele>
        <time>2020-06-18T08:36:30Z</time>
      </trkpt>
      <trkpt lat="49.74423" lon="0.47674">
        <ele>39.5</ele>
        <time>2020-06-18T08:36:31Z</time>
      </trkpt>
      <trkpt lat="49.74424" lon="0.47685">
        <ele>39.6</ele>
        <time>2020-06-18T08:36:32Z</time>
      </trkpt>
      <trkpt lat="49.74426" lon="0.47696">
        <ele>39.6</ele>
        <time>2020-06-18T08:36:33Z</time>
      </trkpt>
      <trkpt lat="49.74427" lon="0.47706">
        <ele>39.7</ele>
        <time>2020-06-18T08:36:34Z</time>
      </trkpt>
      <trkpt lat="49.7443" lon="0.47716">
        <ele>39.7</ele>
        <time>2020-06-18T08:36:35Z</time>
      </trkpt>
      <trkpt lat="49.74433" lon="0.47726">
        <ele>39.7</ele>
        <time>2020-06-18T08:36:36Z</time>
      </trkpt>
      <trkpt lat="49.74436" lon="0.47736">
        <ele>39.8</ele>
        <time>2020-06-18T08:36:37Z</time>
      </trkpt>
      <trkpt lat="49.74438" lon="0.47746">
        <ele>39.8</ele>
        <time>2020-06-18T08:36:38Z</time>
      </trkpt>
      <trkpt lat="49.7444" lon="0.47757">
        <ele>39.8</ele>
        <time>2020-06-18T08:36:39Z</time>
      </trkpt>
      <trkpt lat="49.74442" lon="0.47767">
        <ele>39.8</ele>
        <time>2020-06-18T08:36:40Z</time>
      </trkpt>
      <trkpt lat="49.74445" lon="0.47777">
        <ele>39.8</ele>
        <time>2020-06-18T08:36:41Z</time>
      </trkpt>
      <trkpt lat="49.74447" lon="0.47787">
        <ele>39.8</ele>
        <time>2020-06-18T08:36:42Z</time>
      </trkpt>
      <trkpt lat="49.7445" lon="0.47798">
        <ele>39.9</ele>
        <time>2020-06-18T08:36:43Z</time>
      </trkpt>
      <trkpt lat="49.74453" lon="0.47807">
        <ele>39.9</ele>
        <time>2020-06-18T08:36:44Z</time>
      </trkpt>
      <trkpt lat="49.74455" lon="0.47816">
        <ele>39.9</ele>
        <time>2020-06-18T08:36:45Z</time>
      </trkpt>
      <trkpt lat="49.74458" lon="0.47826">
        <ele>40</ele>
        <time>2020-06-18T08:36:46Z</time>
      </trkpt>
      <trkpt lat="49.7446" lon="0.47835">
        <ele>40.1</ele>
        <time>2020-06-18T08:36:47Z</time>
      </trkpt>
      <trkpt lat="49.74462" lon="0.47844">
        <ele>40.2</ele>
        <time>2020-06-18T08:36:48Z</time>
      </trkpt>
      <trkpt lat="49.74465" lon="0.47852">
        <ele>40.3</ele>
        <time>2020-06-18T08:36:49Z</time>
      </trkpt>
      <trkpt lat="49.74467" lon="0.4786">
        <ele>40.4</ele>
        <time>2020-06-18T08:36:50Z</time>
      </trkpt>
      <trkpt lat="49.7447" lon="0.47868">
        <ele>40.4</ele>
        <time>2020-06-18T08:36:51Z</time>
      </trkpt>
      <trkpt lat="49.74473" lon="0.47875">
        <ele>40.5</ele>
        <time>2020-06-18T08:36:52Z</time>
      </trkpt>
      <trkpt lat="49.74475" lon="0.47882">
        <ele>40.5</ele>
        <time>2020-06-18T08:36:53Z</time>
      </trkpt>
      <trkpt lat="49.74477" lon="0.47888">
        <ele>40.6</ele>
        <time>2020-06-18T08:36:54Z</time>
      </trkpt>
      <trkpt lat="49.7448" lon="0.47893">
        <ele>40.6</ele>
        <time>2020-06-18T08:36:55Z</time>
      </trkpt>
      <trkpt lat="49.74482" lon="0.47897">
        <ele>40.6</ele>
        <time>2020-06-18T08:36:56Z</time>
      </trkpt>
      <trkpt lat="49.74484" lon="0.47902">
        <ele>40.7</ele>
        <time>2020-06-18T08:36:57Z</time>
      </trkpt>
      <trkpt lat="49.74487" lon="0.47905">
        <ele>40.7</ele>
        <time>2020-06-18T08:36:58Z</time>
      </trkpt>
      <trkpt lat="49.7449" lon="0.4791">
        <ele>40.7</ele>
        <time>2020-06-18T08:36:59Z</time>
      </trkpt>
      <trkpt lat="49.74492" lon="0.47915">
        <ele>40.6</ele>
        <time>2020-06-18T08:37:00Z</time>
      </trkpt>
      <trkpt lat="49.74496" lon="0.47919">
        <ele>40.6</ele>
        <time>2020-06-18T08:37:01Z</time>
      </trkpt>
      <trkpt lat="49.74499" lon="0.47924">
        <ele>40.5</ele>
        <time>2020-06-18T08:37:02Z</time>
      </trkpt>
      <trkpt lat="49.74501" lon="0.47931">
        <ele>40.5</ele>
        <time>2020-06-18T08:37:03Z</time>
      </trkpt>
      <trkpt lat="49.74505" lon="0.47937">
        <ele>40.4</ele>
        <time>2020-06-18T08:37:04Z</time>
      </trkpt>
      <trkpt lat="49.74508" lon="0.47944">
        <ele>40.4</ele>
        <time>2020-06-18T08:37:05Z</time>
      </trkpt>
      <trkpt lat="49.74511" lon="0.4795">
        <ele>40.4</ele>
        <time>2020-06-18T08:37:06Z</time>
      </trkpt>
      <trkpt lat="49.74514" lon="0.47957">
        <ele>40.4</ele>
        <time>2020-06-18T08:37:07Z</time>
      </trkpt>
      <trkpt lat="49.74518" lon="0.47964">
        <ele>40.3</ele>
        <time>2020-06-18T08:37:08Z</time>
      </trkpt>
      <trkpt lat="49.74522" lon="0.47971">
        <ele>40.3</ele>
        <time>2020-06-18T08:37:09Z</time>
      </trkpt>
      <trkpt lat="49.74525" lon="0.47978">
        <ele>40.3</ele>
        <time>2020-06-18T08:37:10Z</time>
      </trkpt>
      <trkpt lat="49.7453" lon="0.47986">
        <ele>40.3</ele>
        <time>2020-06-18T08:37:11Z</time>
      </trkpt>
      <trkpt lat="49.74533" lon="0.47994">
        <ele>40.3</ele>
        <time>2020-06-18T08:37:12Z</time>
      </trkpt>
      <trkpt lat="49.74537" lon="0.48">
        <ele>40.3</ele>
        <time>2020-06-18T08:37:13Z</time>
      </trkpt>
      <trkpt lat="49.74542" lon="0.48007">
        <ele>40.3</ele>
        <time>2020-06-18T08:37:14Z</time>
      </trkpt>
      <trkpt lat="49.74546" lon="0.48013">
        <ele>40.4</ele>
        <time>2020-06-18T08:37:15Z</time>
      </trkpt>
      <trkpt lat="49.7455" lon="0.48021">
        <ele>40.5</ele>
        <time>2020-06-18T08:37:16Z</time>
      </trkpt>
      <trkpt lat="49.74554" lon="0.48029">
        <ele>40.6</ele>
        <time>2020-06-18T08:37:17Z</time>
      </trkpt>
      <trkpt lat="49.74559" lon="0.48036">
        <ele>40.6</ele>
        <time>2020-06-18T08:37:18Z</time>
      </trkpt>
      <trkpt lat="49.74563" lon="0.48042">
        <ele>40.7</ele>
        <time>2020-06-18T08:37:19Z</time>
      </trkpt>
      <trkpt lat="49.74568" lon="0.48049">
        <ele>40.7</ele>
        <time>2020-06-18T08:37:20Z</time>
      </trkpt>
      <trkpt lat="49.74572" lon="0.48057">
        <ele>40.7</ele>
        <time>2020-06-18T08:37:21Z</time>
      </trkpt>
      <trkpt lat="49.74577" lon="0.48064">
        <ele>40.7</ele>
        <time>2020-06-18T08:37:22Z</time>
      </trkpt>
      <trkpt lat="49.74581" lon="0.48072">
        <ele>40.8</ele>
        <time>2020-06-18T08:37:23Z</time>
      </trkpt>
      <trkpt lat="49.74585" lon="0.48079">
        <ele>40.8</ele>
        <time>2020-06-18T08:37:24Z</time>
      </trkpt>
      <trkpt lat="49.74589" lon="0.48086">
        <ele>40.9</ele>
        <time>2020-06-18T08:37:25Z</time>
      </trkpt>
      <trkpt lat="49.74594" lon="0.48093">
        <ele>41</ele>
        <time>2020-06-18T08:37:26Z</time>
      </trkpt>
      <trkpt lat="49.74598" lon="0.48101">
        <ele>41.1</ele>
        <time>2020-06-18T08:37:27Z</time>
      </trkpt>
      <trkpt lat="49.74602" lon="0.48108">
        <ele>41.2</ele>
        <time>2020-06-18T08:37:28Z</time>
      </trkpt>
      <trkpt lat="49.74607" lon="0.48114">
        <ele>41.3</ele>
        <time>2020-06-18T08:37:29Z</time>
      </trkpt>
      <trkpt lat="49.74612" lon="0.4812">
        <ele>41.4</ele>
        <time>2020-06-18T08:37:30Z</time>
      </trkpt>
      <trkpt lat="49.74616" lon="0.48127">
        <ele>41.4</ele>
        <time>2020-06-18T08:37:31Z</time>
      </trkpt>
      <trkpt lat="49.7462" lon="0.48134">
        <ele>41.5</ele>
        <time>2020-06-18T08:37:32Z</time>
      </trkpt>
      <trkpt lat="49.74624" lon="0.48141">
        <ele>41.6</ele>
        <time>2020-06-18T08:37:33Z</time>
      </trkpt>
      <trkpt lat="49.74629" lon="0.48147">
        <ele>41.7</ele>
        <time>2020-06-18T08:37:34Z</time>
      </trkpt>
      <trkpt lat="49.74633" lon="0.48154">
        <ele>41.8</ele>
        <time>2020-06-18T08:37:35Z</time>
      </trkpt>
      <trkpt lat="49.74637" lon="0.48161">
        <ele>41.9</ele>
        <time>2020-06-18T08:37:36Z</time>
      </trkpt>
      <trkpt lat="49.74641" lon="0.48168">
        <ele>41.9</ele>
        <time>2020-06-18T08:37:37Z</time>
      </trkpt>
      <trkpt lat="49.74645" lon="0.48174">
        <ele>42</ele>
        <time>2020-06-18T08:37:38Z</time>
      </trkpt>
      <trkpt lat="49.74648" lon="0.48182">
        <ele>42.1</ele>
        <time>2020-06-18T08:37:39Z</time>
      </trkpt>
      <trkpt lat="49.74652" lon="0.48189">
        <ele>42.2</ele>
        <time>2020-06-18T08:37:40Z</time>
      </trkpt>
      <trkpt lat="49.74656" lon="0.48196">
        <ele>42.3</ele>
        <time>2020-06-18T08:37:41Z</time>
      </trkpt>
      <trkpt lat="49.74659" lon="0.48204">
        <ele>42.3</ele>
        <time>2020-06-18T08:37:42Z</time>
      </trkpt>
      <trkpt lat="49.74663" lon="0.48212">
        <ele>42.3</ele>
        <time>2020-06-18T08:37:43Z</time>
      </trkpt>
      <trkpt lat="49.74667" lon="0.4822">
        <ele>42.3</ele>
        <time>2020-06-18T08:37:44Z</time>
      </trkpt>
      <trkpt lat="49.7467" lon="0.48228">
        <ele>42.3</ele>
        <time>2020-06-18T08:37:45Z</time>
      </trkpt>
      <trkpt lat="49.74675" lon="0.48236">
        <ele>42.4</ele>
        <time>2020-06-18T08:37:46Z</time>
      </trkpt>
      <trkpt lat="49.74679" lon="0.48244">
        <ele>42.4</ele>
        <time>2020-06-18T08:37:47Z</time>
      </trkpt>
      <trkpt lat="49.74682" lon="0.48252">
        <ele>42.4</ele>
        <time>2020-06-18T08:37:48Z</time>
      </trkpt>
      <trkpt lat="49.74685" lon="0.48261">
        <ele>42.5</ele>
        <time>2020-06-18T08:37:49Z</time>
      </trkpt>
      <trkpt lat="49.74688" lon="0.48269">
        <ele>42.5</ele>
        <time>2020-06-18T08:37:50Z</time>
      </trkpt>
      <trkpt lat="49.74692" lon="0.48278">
        <ele>42.6</ele>
        <time>2020-06-18T08:37:51Z</time>
      </trkpt>
      <trkpt lat="49.74695" lon="0.48286">
        <ele>42.7</ele>
        <time>2020-06-18T08:37:52Z</time>
      </trkpt>
      <trkpt lat="49.74699" lon="0.48295">
        <ele>42.8</ele>
        <time>2020-06-18T08:37:53Z</time>
      </trkpt>
      <trkpt lat="49.74703" lon="0.48304">
        <ele>42.9</ele>
        <time>2020-06-18T08:37:54Z</time>
      </trkpt>
      <trkpt lat="49.74707" lon="0.48313">
        <ele>42.9</ele>
        <time>2020-06-18T08:37:55Z</time>
      </trkpt>
      <trkpt lat="49.7471" lon="0.48323">
        <ele>43</ele>
        <time>2020-06-18T08:37:56Z</time>
      </trkpt>
      <trkpt lat="49.74714" lon="0.48332">
        <ele>43.1</ele>
        <time>2020-06-18T08:37:57Z</time>
      </trkpt>
      <trkpt lat="49.74718" lon="0.48341">
        <ele>43.2</ele>
        <time>2020-06-18T08:37:58Z</time>
      </trkpt>
      <trkpt lat="49.74721" lon="0.4835">
        <ele>43.3</ele>
        <time>2020-06-18T08:37:59Z</time>
      </trkpt>
      <trkpt lat="49.74724" lon="0.48358">
        <ele>43.4</ele>
        <time>2020-06-18T08:38:00Z</time>
      </trkpt>
      <trkpt lat="49.74727" lon="0.48367">
        <ele>43.5</ele>
        <time>2020-06-18T08:38:01Z</time>
      </trkpt>
      <trkpt lat="49.7473" lon="0.48376">
        <ele>43.6</ele>
        <time>2020-06-18T08:38:02Z</time>
      </trkpt>
      <trkpt lat="49.74733" lon="0.48385">
        <ele>43.6</ele>
        <time>2020-06-18T08:38:03Z</time>
      </trkpt>
      <trkpt lat="49.74736" lon="0.48394">
        <ele>43.7</ele>
        <time>2020-06-18T08:38:04Z</time>
      </trkpt>
      <trkpt lat="49.74739" lon="0.48404">
        <ele>43.8</ele>
        <time>2020-06-18T08:38:05Z</time>
      </trkpt>
      <trkpt lat="49.74741" lon="0.48414">
        <ele>43.9</ele>
        <time>2020-06-18T08:38:06Z</time>
      </trkpt>
      <trkpt lat="49.74744" lon="0.48423">
        <ele>44</ele>
        <time>2020-06-18T08:38:07Z</time>
      </trkpt>
      <trkpt lat="49.74748" lon="0.48432">
        <ele>44.1</ele>
        <time>2020-06-18T08:38:08Z</time>
      </trkpt>
      <trkpt lat="49.7475" lon="0.48442">
        <ele>44.1</ele>
        <time>2020-06-18T08:38:09Z</time>
      </trkpt>
      <trkpt lat="49.74753" lon="0.48452">
        <ele>44.2</ele>
        <time>2020-06-18T08:38:10Z</time>
      </trkpt>
      <trkpt lat="49.74756" lon="0.48461">
        <ele>44.3</ele>
        <time>2020-06-18T08:38:11Z</time>
      </trkpt>
      <trkpt lat="49.74759" lon="0.48471">
        <ele>44.3</ele>
        <time>2020-06-18T08:38:12Z</time>
      </trkpt>
      <trkpt lat="49.74762" lon="0.4848">
        <ele>44.4</ele>
        <time>2020-06-18T08:38:13Z</time>
      </trkpt>
      <trkpt lat="49.74765" lon="0.48489">
        <ele>44.4</ele>
        <time>2020-06-18T08:38:14Z</time>
      </trkpt>
      <trkpt lat="49.74768" lon="0.48498">
        <ele>44.5</ele>
        <time>2020-06-18T08:38:15Z</time>
      </trkpt>
      <trkpt lat="49.74771" lon="0.48508">
        <ele>44.6</ele>
        <time>2020-06-18T08:38:16Z</time>
      </trkpt>
      <trkpt lat="49.74773" lon="0.48517">
        <ele>44.6</ele>
        <time>2020-06-18T08:38:17Z</time>
      </trkpt>
      <trkpt lat="49.74775" lon="0.48527">
        <ele>44.7</ele>
        <time>2020-06-18T08:38:18Z</time>
      </trkpt>
      <trkpt lat="49.74777" lon="0.48536">
        <ele>44.7</ele>
        <time>2020-06-18T08:38:19Z</time>
      </trkpt>
      <trkpt lat="49.74778" lon="0.48547">
        <ele>44.8</ele>
        <time>2020-06-18T08:38:20Z</time>
      </trkpt>
      <trkpt lat="49.74779" lon="0.48557">
        <ele>44.8</ele>
        <time>2020-06-18T08:38:21Z</time>
      </trkpt>
      <trkpt lat="49.74781" lon="0.48566">
        <ele>44.8</ele>
        <time>2020-06-18T08:38:22Z</time>
      </trkpt>
      <trkpt lat="49.74783" lon="0.48576">
        <ele>44.9</ele>
        <time>2020-06-18T08:38:23Z</time>
      </trkpt>
      <trkpt lat="49.74785" lon="0.48585">
        <ele>44.9</ele>
        <time>2020-06-18T08:38:24Z</time>
      </trkpt>
      <trkpt lat="49.74787" lon="0.48594">
        <ele>45</ele>
        <time>2020-06-18T08:38:25Z</time>
      </trkpt>
      <trkpt lat="49.74789" lon="0.48603">
        <ele>45</ele>
        <time>2020-06-18T08:38:26Z</time>
      </trkpt>
      <trkpt lat="49.7479" lon="0.48612">
        <ele>45.1</ele>
        <time>2020-06-18T08:38:27Z</time>
      </trkpt>
      <trkpt lat="49.74791" lon="0.4862">
        <ele>45.1</ele>
        <time>2020-06-18T08:38:28Z</time>
      </trkpt>
      <trkpt lat="49.74792" lon="0.48629">
        <ele>45.2</ele>
        <time>2020-06-18T08:38:29Z</time>
      </trkpt>
      <trkpt lat="49.74794" lon="0.48639">
        <ele>45.3</ele>
        <time>2020-06-18T08:38:30Z</time>
      </trkpt>
      <trkpt lat="49.74795" lon="0.48649">
        <ele>45.3</ele>
        <time>2020-06-18T08:38:31Z</time>
      </trkpt>
      <trkpt lat="49.74796" lon="0.48659">
        <ele>45.4</ele>
        <time>2020-06-18T08:38:32Z</time>
      </trkpt>
      <trkpt lat="49.74797" lon="0.48668">
        <ele>45.4</ele>
        <time>2020-06-18T08:38:33Z</time>
      </trkpt>
      <trkpt lat="49.74798" lon="0.48679">
        <ele>45.5</ele>
        <time>2020-06-18T08:38:34Z</time>
      </trkpt>
      <trkpt lat="49.74799" lon="0.48688">
        <ele>45.5</ele>
        <time>2020-06-18T08:38:35Z</time>
      </trkpt>
      <trkpt lat="49.748" lon="0.48698">
        <ele>45.6</ele>
        <time>2020-06-18T08:38:36Z</time>
      </trkpt>
      <trkpt lat="49.74801" lon="0.48707">
        <ele>45.6</ele>
        <time>2020-06-18T08:38:37Z</time>
      </trkpt>
      <trkpt lat="49.74802" lon="0.48716">
        <ele>45.7</ele>
        <time>2020-06-18T08:38:38Z</time>
      </trkpt>
      <trkpt lat="49.74802" lon="0.48726">
        <ele>45.7</ele>
        <time>2020-06-18T08:38:39Z</time>
      </trkpt>
      <trkpt lat="49.74802" lon="0.48736">
        <ele>45.8</ele>
        <time>2020-06-18T08:38:40Z</time>
      </trkpt>
      <trkpt lat="49.74802" lon="0.48746">
        <ele>45.8</ele>
        <time>2020-06-18T08:38:41Z</time>
      </trkpt>
      <trkpt lat="49.74802" lon="0.48756">
        <ele>45.9</ele>
        <time>2020-06-18T08:38:42Z</time>
      </trkpt>
      <trkpt lat="49.74803" lon="0.48765">
        <ele>45.9</ele>
        <time>2020-06-18T08:38:43Z</time>
      </trkpt>
      <trkpt lat="49.74804" lon="0.48775">
        <ele>46</ele>
        <time>2020-06-18T08:38:44Z</time>
      </trkpt>
      <trkpt lat="49.74804" lon="0.48785">
        <ele>46.1</ele>
        <time>2020-06-18T08:38:45Z</time>
      </trkpt>
      <trkpt lat="49.74805" lon="0.48795">
        <ele>46.1</ele>
        <time>2020-06-18T08:38:46Z</time>
      </trkpt>
      <trkpt lat="49.74804" lon="0.48805">
        <ele>46.2</ele>
        <time>2020-06-18T08:38:47Z</time>
      </trkpt>
      <trkpt lat="49.74804" lon="0.48814">
        <ele>46.2</ele>
        <time>2020-06-18T08:38:48Z</time>
      </trkpt>
      <trkpt lat="49.74804" lon="0.48824">
        <ele>46.2</ele>
        <time>2020-06-18T08:38:49Z</time>
      </trkpt>
      <trkpt lat="49.74804" lon="0.48833">
        <ele>46.3</ele>
        <time>2020-06-18T08:38:50Z</time>
      </trkpt>
      <trkpt lat="49.74804" lon="0.48844">
        <ele>46.3</ele>
        <time>2020-06-18T08:38:51Z</time>
      </trkpt>
      <trkpt lat="49.74804" lon="0.48854">
        <ele>46.4</ele>
        <time>2020-06-18T08:38:52Z</time>
      </trkpt>
      <trkpt lat="49.74805" lon="0.48865">
        <ele>46.4</ele>
        <time>2020-06-18T08:38:53Z</time>
      </trkpt>
      <trkpt lat="49.74805" lon="0.48876">
        <ele>46.5</ele>
        <time>2020-06-18T08:38:54Z</time>
      </trkpt>
      <trkpt lat="49.74805" lon="0.48887">
        <ele>46.5</ele>
        <time>2020-06-18T08:38:55Z</time>
      </trkpt>
      <trkpt lat="49.74804" lon="0.48897">
        <ele>46.5</ele>
        <time>2020-06-18T08:38:56Z</time>
      </trkpt>
      <trkpt lat="49.74803" lon="0.48907">
        <ele>46.5</ele>
        <time>2020-06-18T08:38:57Z</time>
      </trkpt>
      <trkpt lat="49.74802" lon="0.48918">
        <ele>46.5</ele>
        <time>2020-06-18T08:38:58Z</time>
      </trkpt>
      <trkpt lat="49.74801" lon="0.4893">
        <ele>46.5</ele>
        <time>2020-06-18T08:38:59Z</time>
      </trkpt>
      <trkpt lat="49.74798" lon="0.4894">
        <ele>46.5</ele>
        <time>2020-06-18T08:39:00Z</time>
      </trkpt>
      <trkpt lat="49.74797" lon="0.48951">
        <ele>46.5</ele>
        <time>2020-06-18T08:39:01Z</time>
      </trkpt>
      <trkpt lat="49.74795" lon="0.48962">
        <ele>46.5</ele>
        <time>2020-06-18T08:39:02Z</time>
      </trkpt>
      <trkpt lat="49.74793" lon="0.48973">
        <ele>46.5</ele>
        <time>2020-06-18T08:39:03Z</time>
      </trkpt>
      <trkpt lat="49.74792" lon="0.48983">
        <ele>46.5</ele>
        <time>2020-06-18T08:39:04Z</time>
      </trkpt>
      <trkpt lat="49.7479" lon="0.48993">
        <ele>46.6</ele>
        <time>2020-06-18T08:39:05Z</time>
      </trkpt>
      <trkpt lat="49.74788" lon="0.49004">
        <ele>46.6</ele>
        <time>2020-06-18T08:39:06Z</time>
      </trkpt>
      <trkpt lat="49.74787" lon="0.49015">
        <ele>46.6</ele>
        <time>2020-06-18T08:39:07Z</time>
      </trkpt>
      <trkpt lat="49.74785" lon="0.49025">
        <ele>46.6</ele>
        <time>2020-06-18T08:39:08Z</time>
      </trkpt>
      <trkpt lat="49.74784" lon="0.49036">
        <ele>46.6</ele>
        <time>2020-06-18T08:39:09Z</time>
      </trkpt>
      <trkpt lat="49.74782" lon="0.49047">
        <ele>46.7</ele>
        <time>2020-06-18T08:39:10Z</time>
      </trkpt>
      <trkpt lat="49.7478" lon="0.49057">
        <ele>46.7</ele>
        <time>2020-06-18T08:39:11Z</time>
      </trkpt>
      <trkpt lat="49.74778" lon="0.49068">
        <ele>46.7</ele>
        <time>2020-06-18T08:39:12Z</time>
      </trkpt>
      <trkpt lat="49.74776" lon="0.4908">
        <ele>46.7</ele>
        <time>2020-06-18T08:39:13Z</time>
      </trkpt>
      <trkpt lat="49.74774" lon="0.49091">
        <ele>46.7</ele>
        <time>2020-06-18T08:39:14Z</time>
      </trkpt>
      <trkpt lat="49.74772" lon="0.49103">
        <ele>46.7</ele>
        <time>2020-06-18T08:39:15Z</time>
      </trkpt>
      <trkpt lat="49.7477" lon="0.49114">
        <ele>46.6</ele>
        <time>2020-06-18T08:39:16Z</time>
      </trkpt>
      <trkpt lat="49.74767" lon="0.49125">
        <ele>46.6</ele>
        <time>2020-06-18T08:39:17Z</time>
      </trkpt>
      <trkpt lat="49.74765" lon="0.49136">
        <ele>46.6</ele>
        <time>2020-06-18T08:39:18Z</time>
      </trkpt>
      <trkpt lat="49.74763" lon="0.49148">
        <ele>46.6</ele>
        <time>2020-06-18T08:39:19Z</time>
      </trkpt>
      <trkpt lat="49.7476" lon="0.49159">
        <ele>46.6</ele>
        <time>2020-06-18T08:39:20Z</time>
      </trkpt>
      <trkpt lat="49.74758" lon="0.4917">
        <ele>46.6</ele>
        <time>2020-06-18T08:39:21Z</time>
      </trkpt>
      <trkpt lat="49.74756" lon="0.49183">
        <ele>46.6</ele>
        <time>2020-06-18T08:39:22Z</time>
      </trkpt>
      <trkpt lat="49.74755" lon="0.49194">
        <ele>46.6</ele>
        <time>2020-06-18T08:39:23Z</time>
      </trkpt>
      <trkpt lat="49.74752" lon="0.49205">
        <ele>46.6</ele>
        <time>2020-06-18T08:39:24Z</time>
      </trkpt>
      <trkpt lat="49.7475" lon="0.49216">
        <ele>46.6</ele>
        <time>2020-06-18T08:39:25Z</time>
      </trkpt>
      <trkpt lat="49.74748" lon="0.49228">
        <ele>46.7</ele>
        <time>2020-06-18T08:39:26Z</time>
      </trkpt>
      <trkpt lat="49.74747" lon="0.49239">
        <ele>46.7</ele>
        <time>2020-06-18T08:39:27Z</time>
      </trkpt>
      <trkpt lat="49.74744" lon="0.4925">
        <ele>46.7</ele>
        <time>2020-06-18T08:39:28Z</time>
      </trkpt>
      <trkpt lat="49.74742" lon="0.49261">
        <ele>46.7</ele>
        <time>2020-06-18T08:39:29Z</time>
      </trkpt>
      <trkpt lat="49.74739" lon="0.49273">
        <ele>46.7</ele>
        <time>2020-06-18T08:39:30Z</time>
      </trkpt>
      <trkpt lat="49.74737" lon="0.49284">
        <ele>46.7</ele>
        <time>2020-06-18T08:39:31Z</time>
      </trkpt>
      <trkpt lat="49.74734" lon="0.49295">
        <ele>46.7</ele>
        <time>2020-06-18T08:39:32Z</time>
      </trkpt>
      <trkpt lat="49.74732" lon="0.49306">
        <ele>46.8</ele>
        <time>2020-06-18T08:39:33Z</time>
      </trkpt>
      <trkpt lat="49.7473" lon="0.49317">
        <ele>46.8</ele>
        <time>2020-06-18T08:39:34Z</time>
      </trkpt>
      <trkpt lat="49.74727" lon="0.49328">
        <ele>46.8</ele>
        <time>2020-06-18T08:39:35Z</time>
      </trkpt>
      <trkpt lat="49.74724" lon="0.49339">
        <ele>46.8</ele>
        <time>2020-06-18T08:39:36Z</time>
      </trkpt>
      <trkpt lat="49.74722" lon="0.4935">
        <ele>46.9</ele>
        <time>2020-06-18T08:39:37Z</time>
      </trkpt>
      <trkpt lat="49.7472" lon="0.49361">
        <ele>46.9</ele>
        <time>2020-06-18T08:39:38Z</time>
      </trkpt>
      <trkpt lat="49.74718" lon="0.49372">
        <ele>47</ele>
        <time>2020-06-18T08:39:39Z</time>
      </trkpt>
      <trkpt lat="49.74716" lon="0.49383">
        <ele>47</ele>
        <time>2020-06-18T08:39:40Z</time>
      </trkpt>
      <trkpt lat="49.74715" lon="0.49393">
        <ele>47.1</ele>
        <time>2020-06-18T08:39:41Z</time>
      </trkpt>
      <trkpt lat="49.74713" lon="0.49403">
        <ele>47.1</ele>
        <time>2020-06-18T08:39:42Z</time>
      </trkpt>
      <trkpt lat="49.74711" lon="0.49412">
        <ele>47.2</ele>
        <time>2020-06-18T08:39:43Z</time>
      </trkpt>
      <trkpt lat="49.74709" lon="0.49421">
        <ele>47.2</ele>
        <time>2020-06-18T08:39:44Z</time>
      </trkpt>
      <trkpt lat="49.74707" lon="0.4943">
        <ele>47.3</ele>
        <time>2020-06-18T08:39:45Z</time>
      </trkpt>
      <trkpt lat="49.74705" lon="0.49439">
        <ele>47.4</ele>
        <time>2020-06-18T08:39:46Z</time>
      </trkpt>
      <trkpt lat="49.74704" lon="0.49447">
        <ele>47.4</ele>
        <time>2020-06-18T08:39:47Z</time>
      </trkpt>
      <trkpt lat="49.74703" lon="0.49456">
        <ele>47.5</ele>
        <time>2020-06-18T08:39:48Z</time>
      </trkpt>
      <trkpt lat="49.74701" lon="0.49463">
        <ele>47.6</ele>
        <time>2020-06-18T08:39:49Z</time>
      </trkpt>
      <trkpt lat="49.747" lon="0.49469">
        <ele>47.7</ele>
        <time>2020-06-18T08:39:50Z</time>
      </trkpt>
      <trkpt lat="49.74698" lon="0.49473">
        <ele>47.7</ele>
        <time>2020-06-18T08:39:51Z</time>
      </trkpt>
      <trkpt lat="49.74698" lon="0.49478">
        <ele>47.8</ele>
        <time>2020-06-18T08:39:52Z</time>
      </trkpt>
      <trkpt lat="49.74698" lon="0.49483">
        <ele>47.8</ele>
        <time>2020-06-18T08:39:53Z</time>
      </trkpt>
      <trkpt lat="49.74697" lon="0.49489">
        <ele>47.9</ele>
        <time>2020-06-18T08:39:54Z</time>
      </trkpt>
      <trkpt lat="49.74697" lon="0.49496">
        <ele>48.1</ele>
        <time>2020-06-18T08:39:55Z</time>
      </trkpt>
      <trkpt lat="49.74696" lon="0.49502">
        <ele>48</ele>
        <time>2020-06-18T08:39:56Z</time>
      </trkpt>
      <trkpt lat="49.74696" lon="0.49509">
        <ele>48</ele>
        <time>2020-06-18T08:39:57Z</time>
      </trkpt>
      <trkpt lat="49.74694" lon="0.49517">
        <ele>47.9</ele>
        <time>2020-06-18T08:39:58Z</time>
      </trkpt>
      <trkpt lat="49.74694" lon="0.49526">
        <ele>47.9</ele>
        <time>2020-06-18T08:39:59Z</time>
      </trkpt>
      <trkpt lat="49.74694" lon="0.49534">
        <ele>47.8</ele>
        <time>2020-06-18T08:40:00Z</time>
      </trkpt>
      <trkpt lat="49.74694" lon="0.49543">
        <ele>47.8</ele>
        <time>2020-06-18T08:40:01Z</time>
      </trkpt>
      <trkpt lat="49.74694" lon="0.49552">
        <ele>47.8</ele>
        <time>2020-06-18T08:40:02Z</time>
      </trkpt>
      <trkpt lat="49.74692" lon="0.49561">
        <ele>47.8</ele>
        <time>2020-06-18T08:40:03Z</time>
      </trkpt>
      <trkpt lat="49.74692" lon="0.4957">
        <ele>47.8</ele>
        <time>2020-06-18T08:40:04Z</time>
      </trkpt>
      <trkpt lat="49.74691" lon="0.4958">
        <ele>47.8</ele>
        <time>2020-06-18T08:40:05Z</time>
      </trkpt>
      <trkpt lat="49.7469" lon="0.49589">
        <ele>47.8</ele>
        <time>2020-06-18T08:40:06Z</time>
      </trkpt>
      <trkpt lat="49.7469" lon="0.49599">
        <ele>47.8</ele>
        <time>2020-06-18T08:40:07Z</time>
      </trkpt>
      <trkpt lat="49.7469" lon="0.49609">
        <ele>47.7</ele>
        <time>2020-06-18T08:40:08Z</time>
      </trkpt>
      <trkpt lat="49.74691" lon="0.49619">
        <ele>47.7</ele>
        <time>2020-06-18T08:40:09Z</time>
      </trkpt>
      <trkpt lat="49.74691" lon="0.49629">
        <ele>47.7</ele>
        <time>2020-06-18T08:40:10Z</time>
      </trkpt>
      <trkpt lat="49.74691" lon="0.49639">
        <ele>47.7</ele>
        <time>2020-06-18T08:40:11Z</time>
      </trkpt>
      <trkpt lat="49.74691" lon="0.4965">
        <ele>47.7</ele>
        <time>2020-06-18T08:40:12Z</time>
      </trkpt>
      <trkpt lat="49.74691" lon="0.4966">
        <ele>47.7</ele>
        <time>2020-06-18T08:40:13Z</time>
      </trkpt>
      <trkpt lat="49.74693" lon="0.4967">
        <ele>47.7</ele>
        <time>2020-06-18T08:40:14Z</time>
      </trkpt>
      <trkpt lat="49.74694" lon="0.4968">
        <ele>47.6</ele>
        <time>2020-06-18T08:40:15Z</time>
      </trkpt>
      <trkpt lat="49.74694" lon="0.4969">
        <ele>47.6</ele>
        <time>2020-06-18T08:40:16Z</time>
      </trkpt>
      <trkpt lat="49.74695" lon="0.49699">
        <ele>47.5</ele>
        <time>2020-06-18T08:40:17Z</time>
      </trkpt>
      <trkpt lat="49.74696" lon="0.4971">
        <ele>47.4</ele>
        <time>2020-06-18T08:40:18Z</time>
      </trkpt>
      <trkpt lat="49.74697" lon="0.49721">
        <ele>47.4</ele>
        <time>2020-06-18T08:40:19Z</time>
      </trkpt>
      <trkpt lat="49.74697" lon="0.49732">
        <ele>47.4</ele>
        <time>2020-06-18T08:40:20Z</time>
      </trkpt>
      <trkpt lat="49.74698" lon="0.49743">
        <ele>47.4</ele>
        <time>2020-06-18T08:40:21Z</time>
      </trkpt>
      <trkpt lat="49.74699" lon="0.49753">
        <ele>47.4</ele>
        <time>2020-06-18T08:40:22Z</time>
      </trkpt>
      <trkpt lat="49.74701" lon="0.49765">
        <ele>47.5</ele>
        <time>2020-06-18T08:40:23Z</time>
      </trkpt>
      <trkpt lat="49.74702" lon="0.49774">
        <ele>47.5</ele>
        <time>2020-06-18T08:40:24Z</time>
      </trkpt>
      <trkpt lat="49.74704" lon="0.49785">
        <ele>47.5</ele>
        <time>2020-06-18T08:40:25Z</time>
      </trkpt>
      <trkpt lat="49.74706" lon="0.49796">
        <ele>47.5</ele>
        <time>2020-06-18T08:40:26Z</time>
      </trkpt>
      <trkpt lat="49.74708" lon="0.49809">
        <ele>47.5</ele>
        <time>2020-06-18T08:40:27Z</time>
      </trkpt>
      <trkpt lat="49.74709" lon="0.49818">
        <ele>47.5</ele>
        <time>2020-06-18T08:40:28Z</time>
      </trkpt>
      <trkpt lat="49.74711" lon="0.49829">
        <ele>47.5</ele>
        <time>2020-06-18T08:40:29Z</time>
      </trkpt>
      <trkpt lat="49.74713" lon="0.4984">
        <ele>47.5</ele>
        <time>2020-06-18T08:40:30Z</time>
      </trkpt>
      <trkpt lat="49.74715" lon="0.49852">
        <ele>47.5</ele>
        <time>2020-06-18T08:40:31Z</time>
      </trkpt>
      <trkpt lat="49.74717" lon="0.49861">
        <ele>47.5</ele>
        <time>2020-06-18T08:40:32Z</time>
      </trkpt>
      <trkpt lat="49.74719" lon="0.49871">
        <ele>47.5</ele>
        <time>2020-06-18T08:40:33Z</time>
      </trkpt>
      <trkpt lat="49.74723" lon="0.4988">
        <ele>47.6</ele>
        <time>2020-06-18T08:40:34Z</time>
      </trkpt>
      <trkpt lat="49.74727" lon="0.49891">
        <ele>47.6</ele>
        <time>2020-06-18T08:40:35Z</time>
      </trkpt>
      <trkpt lat="49.7473" lon="0.49902">
        <ele>47.7</ele>
        <time>2020-06-18T08:40:36Z</time>
      </trkpt>
      <trkpt lat="49.74733" lon="0.49913">
        <ele>47.8</ele>
        <time>2020-06-18T08:40:37Z</time>
      </trkpt>
      <trkpt lat="49.74737" lon="0.49924">
        <ele>47.8</ele>
        <time>2020-06-18T08:40:38Z</time>
      </trkpt>
      <trkpt lat="49.7474" lon="0.49933">
        <ele>47.8</ele>
        <time>2020-06-18T08:40:39Z</time>
      </trkpt>
      <trkpt lat="49.74743" lon="0.49942">
        <ele>47.9</ele>
        <time>2020-06-18T08:40:40Z</time>
      </trkpt>
      <trkpt lat="49.74746" lon="0.49951">
        <ele>47.9</ele>
        <time>2020-06-18T08:40:41Z</time>
      </trkpt>
      <trkpt lat="49.74749" lon="0.4996">
        <ele>47.9</ele>
        <time>2020-06-18T08:40:42Z</time>
      </trkpt>
      <trkpt lat="49.74751" lon="0.49968">
        <ele>48</ele>
        <time>2020-06-18T08:40:43Z</time>
      </trkpt>
      <trkpt lat="49.74754" lon="0.49976">
        <ele>48</ele>
        <time>2020-06-18T08:40:44Z</time>
      </trkpt>
      <trkpt lat="49.74757" lon="0.49984">
        <ele>48.1</ele>
        <time>2020-06-18T08:40:45Z</time>
      </trkpt>
      <trkpt lat="49.7476" lon="0.49992">
        <ele>48.1</ele>
        <time>2020-06-18T08:40:46Z</time>
      </trkpt>
      <trkpt lat="49.74763" lon="0.49999">
        <ele>48.2</ele>
        <time>2020-06-18T08:40:47Z</time>
      </trkpt>
      <trkpt lat="49.74766" lon="0.50006">
        <ele>48.3</ele>
        <time>2020-06-18T08:40:48Z</time>
      </trkpt>
      <trkpt lat="49.74768" lon="0.50012">
        <ele>48.4</ele>
        <time>2020-06-18T08:40:49Z</time>
      </trkpt>
      <trkpt lat="49.7477" lon="0.50017">
        <ele>48.4</ele>
        <time>2020-06-18T08:40:50Z</time>
      </trkpt>
      <trkpt lat="49.74771" lon="0.50022">
        <ele>48.5</ele>
        <time>2020-06-18T08:40:51Z</time>
      </trkpt>
      <trkpt lat="49.74772" lon="0.50027">
        <ele>48.6</ele>
        <time>2020-06-18T08:40:52Z</time>
      </trkpt>
      <trkpt lat="49.74774" lon="0.50034">
        <ele>48.6</ele>
        <time>2020-06-18T08:40:53Z</time>
      </trkpt>
      <trkpt lat="49.74776" lon="0.50041">
        <ele>48.7</ele>
        <time>2020-06-18T08:40:54Z</time>
      </trkpt>
      <trkpt lat="49.74779" lon="0.50048">
        <ele>48.7</ele>
        <time>2020-06-18T08:40:55Z</time>
      </trkpt>
      <trkpt lat="49.74781" lon="0.50057">
        <ele>48.6</ele>
        <time>2020-06-18T08:40:56Z</time>
      </trkpt>
      <trkpt lat="49.74784" lon="0.50065">
        <ele>48.6</ele>
        <time>2020-06-18T08:40:57Z</time>
      </trkpt>
      <trkpt lat="49.74787" lon="0.50074">
        <ele>48.6</ele>
        <time>2020-06-18T08:40:58Z</time>
      </trkpt>
      <trkpt lat="49.7479" lon="0.50083">
        <ele>48.5</ele>
        <time>2020-06-18T08:40:59Z</time>
      </trkpt>
      <trkpt lat="49.74793" lon="0.50091">
        <ele>48.5</ele>
        <time>2020-06-18T08:41:00Z</time>
      </trkpt>
      <trkpt lat="49.74796" lon="0.501">
        <ele>48.4</ele>
        <time>2020-06-18T08:41:01Z</time>
      </trkpt>
      <trkpt lat="49.74799" lon="0.50108">
        <ele>48.4</ele>
        <time>2020-06-18T08:41:02Z</time>
      </trkpt>
      <trkpt lat="49.74803" lon="0.50117">
        <ele>48.4</ele>
        <time>2020-06-18T08:41:03Z</time>
      </trkpt>
      <trkpt lat="49.74806" lon="0.50125">
        <ele>48.4</ele>
        <time>2020-06-18T08:41:04Z</time>
      </trkpt>
      <trkpt lat="49.74809" lon="0.50135">
        <ele>48.5</ele>
        <time>2020-06-18T08:41:05Z</time>
      </trkpt>
      <trkpt lat="49.74811" lon="0.50143">
        <ele>48.5</ele>
        <time>2020-06-18T08:41:06Z</time>
      </trkpt>
      <trkpt lat="49.74814" lon="0.50152">
        <ele>48.5</ele>
        <time>2020-06-18T08:41:07Z</time>
      </trkpt>
      <trkpt lat="49.74817" lon="0.5016">
        <ele>48.5</ele>
        <time>2020-06-18T08:41:08Z</time>
      </trkpt>
      <trkpt lat="49.74821" lon="0.50167">
        <ele>48.5</ele>
        <time>2020-06-18T08:41:09Z</time>
      </trkpt>
      <trkpt lat="49.74824" lon="0.50175">
        <ele>48.5</ele>
        <time>2020-06-18T08:41:10Z</time>
      </trkpt>
      <trkpt lat="49.74826" lon="0.50183">
        <ele>48.5</ele>
        <time>2020-06-18T08:41:11Z</time>
      </trkpt>
      <trkpt lat="49.74829" lon="0.50192">
        <ele>48.5</ele>
        <time>2020-06-18T08:41:12Z</time>
      </trkpt>
      <trkpt lat="49.74832" lon="0.50201">
        <ele>48.4</ele>
        <time>2020-06-18T08:41:13Z</time>
      </trkpt>
      <trkpt lat="49.74835" lon="0.50209">
        <ele>48.4</ele>
        <time>2020-06-18T08:41:14Z</time>
      </trkpt>
      <trkpt lat="49.74836" lon="0.50219">
        <ele>48.4</ele>
        <time>2020-06-18T08:41:15Z</time>
      </trkpt>
      <trkpt lat="49.74839" lon="0.50229">
        <ele>48.4</ele>
        <time>2020-06-18T08:41:16Z</time>
      </trkpt>
      <trkpt lat="49.74841" lon="0.50238">
        <ele>48.5</ele>
        <time>2020-06-18T08:41:17Z</time>
      </trkpt>
      <trkpt lat="49.74844" lon="0.50248">
        <ele>48.5</ele>
        <time>2020-06-18T08:41:18Z</time>
      </trkpt>
      <trkpt lat="49.74846" lon="0.50257">
        <ele>48.5</ele>
        <time>2020-06-18T08:41:19Z</time>
      </trkpt>
      <trkpt lat="49.74849" lon="0.50267">
        <ele>48.6</ele>
        <time>2020-06-18T08:41:20Z</time>
      </trkpt>
      <trkpt lat="49.7485" lon="0.50277">
        <ele>48.6</ele>
        <time>2020-06-18T08:41:21Z</time>
      </trkpt>
      <trkpt lat="49.74852" lon="0.50287">
        <ele>48.7</ele>
        <time>2020-06-18T08:41:22Z</time>
      </trkpt>
      <trkpt lat="49.74854" lon="0.50298">
        <ele>48.7</ele>
        <time>2020-06-18T08:41:23Z</time>
      </trkpt>
      <trkpt lat="49.74855" lon="0.50308">
        <ele>48.7</ele>
        <time>2020-06-18T08:41:24Z</time>
      </trkpt>
      <trkpt lat="49.74856" lon="0.50319">
        <ele>48.8</ele>
        <time>2020-06-18T08:41:25Z</time>
      </trkpt>
      <trkpt lat="49.74857" lon="0.50329">
        <ele>48.8</ele>
        <time>2020-06-18T08:41:26Z</time>
      </trkpt>
      <trkpt lat="49.74858" lon="0.50339">
        <ele>48.9</ele>
        <time>2020-06-18T08:41:27Z</time>
      </trkpt>
      <trkpt lat="49.74859" lon="0.5035">
        <ele>48.9</ele>
        <time>2020-06-18T08:41:28Z</time>
      </trkpt>
      <trkpt lat="49.74861" lon="0.5036">
        <ele>49</ele>
        <time>2020-06-18T08:41:29Z</time>
      </trkpt>
      <trkpt lat="49.74862" lon="0.5037">
        <ele>49</ele>
        <time>2020-06-18T08:41:30Z</time>
      </trkpt>
      <trkpt lat="49.74863" lon="0.5038">
        <ele>49.1</ele>
        <time>2020-06-18T08:41:31Z</time>
      </trkpt>
      <trkpt lat="49.74864" lon="0.5039">
        <ele>49.2</ele>
        <time>2020-06-18T08:41:32Z</time>
      </trkpt>
      <trkpt lat="49.74864" lon="0.504">
        <ele>49.2</ele>
        <time>2020-06-18T08:41:33Z</time>
      </trkpt>
      <trkpt lat="49.74863" lon="0.50411">
        <ele>49.3</ele>
        <time>2020-06-18T08:41:34Z</time>
      </trkpt>
      <trkpt lat="49.74863" lon="0.50421">
        <ele>49.3</ele>
        <time>2020-06-18T08:41:35Z</time>
      </trkpt>
      <trkpt lat="49.74864" lon="0.50432">
        <ele>49.4</ele>
        <time>2020-06-18T08:41:36Z</time>
      </trkpt>
      <trkpt lat="49.74865" lon="0.50443">
        <ele>49.5</ele>
        <time>2020-06-18T08:41:37Z</time>
      </trkpt>
      <trkpt lat="49.74864" lon="0.50455">
        <ele>49.6</ele>
        <time>2020-06-18T08:41:38Z</time>
      </trkpt>
      <trkpt lat="49.74863" lon="0.50466">
        <ele>49.6</ele>
        <time>2020-06-18T08:41:39Z</time>
      </trkpt>
      <trkpt lat="49.74863" lon="0.50477">
        <ele>49.7</ele>
        <time>2020-06-18T08:41:40Z</time>
      </trkpt>
      <trkpt lat="49.74862" lon="0.50488">
        <ele>49.8</ele>
        <time>2020-06-18T08:41:41Z</time>
      </trkpt>
      <trkpt lat="49.74861" lon="0.50498">
        <ele>49.9</ele>
        <time>2020-06-18T08:41:42Z</time>
      </trkpt>
      <trkpt lat="49.74861" lon="0.50508">
        <ele>49.9</ele>
        <time>2020-06-18T08:41:43Z</time>
      </trkpt>
      <trkpt lat="49.7486" lon="0.50518">
        <ele>50</ele>
        <time>2020-06-18T08:41:44Z</time>
      </trkpt>
      <trkpt lat="49.74859" lon="0.50527">
        <ele>50</ele>
        <time>2020-06-18T08:41:45Z</time>
      </trkpt>
      <trkpt lat="49.74859" lon="0.50536">
        <ele>50.1</ele>
        <time>2020-06-18T08:41:46Z</time>
      </trkpt>
      <trkpt lat="49.74858" lon="0.50545">
        <ele>50.2</ele>
        <time>2020-06-18T08:41:47Z</time>
      </trkpt>
      <trkpt lat="49.74856" lon="0.50553">
        <ele>50.3</ele>
        <time>2020-06-18T08:41:48Z</time>
      </trkpt>
      <trkpt lat="49.74855" lon="0.50561">
        <ele>50.4</ele>
        <time>2020-06-18T08:41:49Z</time>
      </trkpt>
      <trkpt lat="49.74853" lon="0.50568">
        <ele>50.5</ele>
        <time>2020-06-18T08:41:50Z</time>
      </trkpt>
      <trkpt lat="49.74852" lon="0.50576">
        <ele>50.6</ele>
        <time>2020-06-18T08:41:51Z</time>
      </trkpt>
      <trkpt lat="49.74849" lon="0.50583">
        <ele>50.7</ele>
        <time>2020-06-18T08:41:52Z</time>
      </trkpt>
      <trkpt lat="49.74846" lon="0.5059">
        <ele>50.7</ele>
        <time>2020-06-18T08:41:53Z</time>
      </trkpt>
      <trkpt lat="49.74844" lon="0.50597">
        <ele>50.8</ele>
        <time>2020-06-18T08:41:54Z</time>
      </trkpt>
      <trkpt lat="49.74842" lon="0.50605">
        <ele>50.8</ele>
        <time>2020-06-18T08:41:55Z</time>
      </trkpt>
      <trkpt lat="49.7484" lon="0.50611">
        <ele>50.9</ele>
        <time>2020-06-18T08:41:56Z</time>
      </trkpt>
      <trkpt lat="49.74839" lon="0.50617">
        <ele>50.9</ele>
        <time>2020-06-18T08:41:57Z</time>
      </trkpt>
      <trkpt lat="49.74839" lon="0.50624">
        <ele>51</ele>
        <time>2020-06-18T08:41:58Z</time>
      </trkpt>
      <trkpt lat="49.74836" lon="0.5063">
        <ele>51.1</ele>
        <time>2020-06-18T08:41:59Z</time>
      </trkpt>
      <trkpt lat="49.74833" lon="0.50635">
        <ele>51.1</ele>
        <time>2020-06-18T08:42:00Z</time>
      </trkpt>
      <trkpt lat="49.74832" lon="0.5064">
        <ele>51.2</ele>
        <time>2020-06-18T08:42:01Z</time>
      </trkpt>
      <trkpt lat="49.74832" lon="0.50646">
        <ele>51.2</ele>
        <time>2020-06-18T08:42:02Z</time>
      </trkpt>
      <trkpt lat="49.74831" lon="0.50652">
        <ele>51.3</ele>
        <time>2020-06-18T08:42:03Z</time>
      </trkpt>
      <trkpt lat="49.7483" lon="0.50657">
        <ele>51.4</ele>
        <time>2020-06-18T08:42:04Z</time>
      </trkpt>
      <trkpt lat="49.74829" lon="0.50663">
        <ele>51.4</ele>
        <time>2020-06-18T08:42:05Z</time>
      </trkpt>
      <trkpt lat="49.74828" lon="0.50667">
        <ele>51.5</ele>
        <time>2020-06-18T08:42:06Z</time>
      </trkpt>
      <trkpt lat="49.74827" lon="0.50672">
        <ele>51.5</ele>
        <time>2020-06-18T08:42:07Z</time>
      </trkpt>
      <trkpt lat="49.74825" lon="0.50676">
        <ele>51.6</ele>
        <time>2020-06-18T08:42:08Z</time>
      </trkpt>
      <trkpt lat="49.74825" lon="0.50677">
        <ele>51.6</ele>
        <time>2020-06-18T08:42:09Z</time>
      </trkpt>
      <trkpt lat="49.74824" lon="0.5068">
        <ele>51.6</ele>
        <time>2020-06-18T08:42:10Z</time>
      </trkpt>
      <trkpt lat="49.74824" lon="0.50682">
        <ele>51.6</ele>
        <time>2020-06-18T08:42:11Z</time>
      </trkpt>
      <trkpt lat="49.74823" lon="0.50684">
        <ele>51.6</ele>
        <time>2020-06-18T08:42:12Z</time>
      </trkpt>
      <trkpt lat="49.74823" lon="0.50687">
        <ele>51.7</ele>
        <time>2020-06-18T08:42:13Z</time>
      </trkpt>
      <trkpt lat="49.74824" lon="0.50688">
        <ele>51.7</ele>
        <time>2020-06-18T08:42:14Z</time>
      </trkpt>
      <trkpt lat="49.74825" lon="0.5069">
        <ele>51.7</ele>
        <time>2020-06-18T08:42:15Z</time>
      </trkpt>
      <trkpt lat="49.74826" lon="0.50693">
        <ele>51.7</ele>
        <time>2020-06-18T08:42:16Z</time>
      </trkpt>
      <trkpt lat="49.74826" lon="0.50694">
        <ele>51.4</ele>
        <time>2020-06-18T08:42:17Z</time>
      </trkpt>
      <trkpt lat="49.74828" lon="0.50696">
        <ele>51.3</ele>
        <time>2020-06-18T08:42:18Z</time>
      </trkpt>
      <trkpt lat="49.74829" lon="0.50697">
        <ele>51.3</ele>
        <time>2020-06-18T08:42:19Z</time>
      </trkpt>
      <trkpt lat="49.7483" lon="0.50698">
        <ele>51.2</ele>
        <time>2020-06-18T08:42:20Z</time>
      </trkpt>
      <trkpt lat="49.74831" lon="0.50704">
        <ele>51</ele>
        <time>2020-06-18T08:42:21Z</time>
      </trkpt>
      <trkpt lat="49.74831" lon="0.50706">
        <ele>50.9</ele>
        <time>2020-06-18T08:42:22Z</time>
      </trkpt>
      <trkpt lat="49.7483" lon="0.50711">
        <ele>50.2</ele>
        <time>2020-06-18T08:42:23Z</time>
      </trkpt>
      <trkpt lat="49.7483" lon="0.50716">
        <ele>50.1</ele>
        <time>2020-06-18T08:42:24Z</time>
      </trkpt>
      <trkpt lat="49.74829" lon="0.5072">
        <ele>50.1</ele>
        <time>2020-06-18T08:42:25Z</time>
      </trkpt>
      <trkpt lat="49.74827" lon="0.50725">
        <ele>50.1</ele>
        <time>2020-06-18T08:42:26Z</time>
      </trkpt>
      <trkpt lat="49.74826" lon="0.50727">
        <ele>50</ele>
        <time>2020-06-18T08:42:27Z</time>
      </trkpt>
      <trkpt lat="49.74824" lon="0.50729">
        <ele>50</ele>
        <time>2020-06-18T08:42:28Z</time>
      </trkpt>
      <trkpt lat="49.74822" lon="0.50732">
        <ele>50</ele>
        <time>2020-06-18T08:42:29Z</time>
      </trkpt>
      <trkpt lat="49.74819" lon="0.50734">
        <ele>49.9</ele>
        <time>2020-06-18T08:42:30Z</time>
      </trkpt>
      <trkpt lat="49.74817" lon="0.50737">
        <ele>49.8</ele>
        <time>2020-06-18T08:42:31Z</time>
      </trkpt>
      <trkpt lat="49.74815" lon="0.50741">
        <ele>49.8</ele>
        <time>2020-06-18T08:42:32Z</time>
      </trkpt>
      <trkpt lat="49.74813" lon="0.50745">
        <ele>49.7</ele>
        <time>2020-06-18T08:42:33Z</time>
      </trkpt>
      <trkpt lat="49.74811" lon="0.50749">
        <ele>49.6</ele>
        <time>2020-06-18T08:42:34Z</time>
      </trkpt>
      <trkpt lat="49.74808" lon="0.50753">
        <ele>49.6</ele>
        <time>2020-06-18T08:42:35Z</time>
      </trkpt>
      <trkpt lat="49.74807" lon="0.50757">
        <ele>49.5</ele>
        <time>2020-06-18T08:42:36Z</time>
      </trkpt>
      <trkpt lat="49.74805" lon="0.50761">
        <ele>49.5</ele>
        <time>2020-06-18T08:42:37Z</time>
      </trkpt>
      <trkpt lat="49.74804" lon="0.50765">
        <ele>49.5</ele>
        <time>2020-06-18T08:42:38Z</time>
      </trkpt>
      <trkpt lat="49.74803" lon="0.5077">
        <ele>49.5</ele>
        <time>2020-06-18T08:42:39Z</time>
      </trkpt>
      <trkpt lat="49.74801" lon="0.50774">
        <ele>49.5</ele>
        <time>2020-06-18T08:42:40Z</time>
      </trkpt>
      <trkpt lat="49.74798" lon="0.50778">
        <ele>49.5</ele>
        <time>2020-06-18T08:42:41Z</time>
      </trkpt>
      <trkpt lat="49.74796" lon="0.50781">
        <ele>49.5</ele>
        <time>2020-06-18T08:42:42Z</time>
      </trkpt>
      <trkpt lat="49.74795" lon="0.50785">
        <ele>49.5</ele>
        <time>2020-06-18T08:42:43Z</time>
      </trkpt>
      <trkpt lat="49.74793" lon="0.5079">
        <ele>49.5</ele>
        <time>2020-06-18T08:42:44Z</time>
      </trkpt>
      <trkpt lat="49.74792" lon="0.50794">
        <ele>49.5</ele>
        <time>2020-06-18T08:42:45Z</time>
      </trkpt>
      <trkpt lat="49.74789" lon="0.50797">
        <ele>49.5</ele>
        <time>2020-06-18T08:42:46Z</time>
      </trkpt>
      <trkpt lat="49.74786" lon="0.50802">
        <ele>49.4</ele>
        <time>2020-06-18T08:42:47Z</time>
      </trkpt>
      <trkpt lat="49.74785" lon="0.50804">
        <ele>49.4</ele>
        <time>2020-06-18T08:42:48Z</time>
      </trkpt>
      <trkpt lat="49.74782" lon="0.50807">
        <ele>49.4</ele>
        <time>2020-06-18T08:42:49Z</time>
      </trkpt>
      <trkpt lat="49.7478" lon="0.50812">
        <ele>49.4</ele>
        <time>2020-06-18T08:42:50Z</time>
      </trkpt>
      <trkpt lat="49.74778" lon="0.50818">
        <ele>49.4</ele>
        <time>2020-06-18T08:42:51Z</time>
      </trkpt>
      <trkpt lat="49.74775" lon="0.50824">
        <ele>49.4</ele>
        <time>2020-06-18T08:42:52Z</time>
      </trkpt>
      <trkpt lat="49.74773" lon="0.5083">
        <ele>49.4</ele>
        <time>2020-06-18T08:42:53Z</time>
      </trkpt>
      <trkpt lat="49.7477" lon="0.50837">
        <ele>49.5</ele>
        <time>2020-06-18T08:42:54Z</time>
      </trkpt>
      <trkpt lat="49.74767" lon="0.50844">
        <ele>49.5</ele>
        <time>2020-06-18T08:42:55Z</time>
      </trkpt>
      <trkpt lat="49.74764" lon="0.5085">
        <ele>49.6</ele>
        <time>2020-06-18T08:42:56Z</time>
      </trkpt>
      <trkpt lat="49.74761" lon="0.50856">
        <ele>49.6</ele>
        <time>2020-06-18T08:42:57Z</time>
      </trkpt>
      <trkpt lat="49.74758" lon="0.5086">
        <ele>49.7</ele>
        <time>2020-06-18T08:42:58Z</time>
      </trkpt>
      <trkpt lat="49.74755" lon="0.50865">
        <ele>49.7</ele>
        <time>2020-06-18T08:42:59Z</time>
      </trkpt>
      <trkpt lat="49.74752" lon="0.50871">
        <ele>49.8</ele>
        <time>2020-06-18T08:43:00Z</time>
      </trkpt>
      <trkpt lat="49.74749" lon="0.50877">
        <ele>49.8</ele>
        <time>2020-06-18T08:43:01Z</time>
      </trkpt>
      <trkpt lat="49.74744" lon="0.50882">
        <ele>49.9</ele>
        <time>2020-06-18T08:43:02Z</time>
      </trkpt>
      <trkpt lat="49.74741" lon="0.50888">
        <ele>49.9</ele>
        <time>2020-06-18T08:43:03Z</time>
      </trkpt>
      <trkpt lat="49.74737" lon="0.50893">
        <ele>50.1</ele>
        <time>2020-06-18T08:43:04Z</time>
      </trkpt>
      <trkpt lat="49.74733" lon="0.50898">
        <ele>50.2</ele>
        <time>2020-06-18T08:43:05Z</time>
      </trkpt>
      <trkpt lat="49.74729" lon="0.50904">
        <ele>50.3</ele>
        <time>2020-06-18T08:43:06Z</time>
      </trkpt>
      <trkpt lat="49.74725" lon="0.50908">
        <ele>50.4</ele>
        <time>2020-06-18T08:43:07Z</time>
      </trkpt>
      <trkpt lat="49.74721" lon="0.50914">
        <ele>50.4</ele>
        <time>2020-06-18T08:43:08Z</time>
      </trkpt>
      <trkpt lat="49.74717" lon="0.50919">
        <ele>50.4</ele>
        <time>2020-06-18T08:43:09Z</time>
      </trkpt>
      <trkpt lat="49.74713" lon="0.50924">
        <ele>50.3</ele>
        <time>2020-06-18T08:43:10Z</time>
      </trkpt>
      <trkpt lat="49.74709" lon="0.5093">
        <ele>51</ele>
        <time>2020-06-18T08:43:11Z</time>
      </trkpt>
      <trkpt lat="49.74705" lon="0.50936">
        <ele>51.6</ele>
        <time>2020-06-18T08:43:12Z</time>
      </trkpt>
      <trkpt lat="49.74702" lon="0.50942">
        <ele>52.2</ele>
        <time>2020-06-18T08:43:13Z</time>
      </trkpt>
      <trkpt lat="49.74698" lon="0.50949">
        <ele>52.9</ele>
        <time>2020-06-18T08:43:14Z</time>
      </trkpt>
      <trkpt lat="49.74695" lon="0.50956">
        <ele>53.6</ele>
        <time>2020-06-18T08:43:15Z</time>
      </trkpt>
      <trkpt lat="49.74691" lon="0.50963">
        <ele>54.3</ele>
        <time>2020-06-18T08:43:16Z</time>
      </trkpt>
      <trkpt lat="49.74687" lon="0.50969">
        <ele>55</ele>
        <time>2020-06-18T08:43:17Z</time>
      </trkpt>
      <trkpt lat="49.74684" lon="0.50976">
        <ele>55.6</ele>
        <time>2020-06-18T08:43:18Z</time>
      </trkpt>
      <trkpt lat="49.74682" lon="0.50984">
        <ele>56.2</ele>
        <time>2020-06-18T08:43:19Z</time>
      </trkpt>
      <trkpt lat="49.7468" lon="0.50992">
        <ele>56.8</ele>
        <time>2020-06-18T08:43:20Z</time>
      </trkpt>
      <trkpt lat="49.74678" lon="0.51001">
        <ele>57.1</ele>
        <time>2020-06-18T08:43:21Z</time>
      </trkpt>
      <trkpt lat="49.74676" lon="0.5101">
        <ele>57.3</ele>
        <time>2020-06-18T08:43:22Z</time>
      </trkpt>
      <trkpt lat="49.74674" lon="0.51018">
        <ele>57.5</ele>
        <time>2020-06-18T08:43:23Z</time>
      </trkpt>
      <trkpt lat="49.74672" lon="0.51026">
        <ele>57.6</ele>
        <time>2020-06-18T08:43:24Z</time>
      </trkpt>
      <trkpt lat="49.74669" lon="0.51033">
        <ele>57.7</ele>
        <time>2020-06-18T08:43:25Z</time>
      </trkpt>
      <trkpt lat="49.74667" lon="0.51041">
        <ele>57.8</ele>
        <time>2020-06-18T08:43:26Z</time>
      </trkpt>
      <trkpt lat="49.74665" lon="0.51049">
        <ele>57.9</ele>
        <time>2020-06-18T08:43:27Z</time>
      </trkpt>
      <trkpt lat="49.74663" lon="0.51057">
        <ele>58.1</ele>
        <time>2020-06-18T08:43:28Z</time>
      </trkpt>
      <trkpt lat="49.7466" lon="0.51064">
        <ele>58.3</ele>
        <time>2020-06-18T08:43:29Z</time>
      </trkpt>
      <trkpt lat="49.74657" lon="0.51072">
        <ele>58.4</ele>
        <time>2020-06-18T08:43:30Z</time>
      </trkpt>
      <trkpt lat="49.74655" lon="0.51079">
        <ele>58.6</ele>
        <time>2020-06-18T08:43:31Z</time>
      </trkpt>
      <trkpt lat="49.74653" lon="0.51087">
        <ele>58.8</ele>
        <time>2020-06-18T08:43:32Z</time>
      </trkpt>
      <trkpt lat="49.74652" lon="0.51096">
        <ele>59</ele>
        <time>2020-06-18T08:43:33Z</time>
      </trkpt>
      <trkpt lat="49.7465" lon="0.51104">
        <ele>59.2</ele>
        <time>2020-06-18T08:43:34Z</time>
      </trkpt>
      <trkpt lat="49.7465" lon="0.51112">
        <ele>59.4</ele>
        <time>2020-06-18T08:43:35Z</time>
      </trkpt>
      <trkpt lat="49.74651" lon="0.5112">
        <ele>59.5</ele>
        <time>2020-06-18T08:43:36Z</time>
      </trkpt>
      <trkpt lat="49.74651" lon="0.51128">
        <ele>59.6</ele>
        <time>2020-06-18T08:43:37Z</time>
      </trkpt>
      <trkpt lat="49.74653" lon="0.51136">
        <ele>59.8</ele>
        <time>2020-06-18T08:43:38Z</time>
      </trkpt>
      <trkpt lat="49.74652" lon="0.51143">
        <ele>59.9</ele>
        <time>2020-06-18T08:43:39Z</time>
      </trkpt>
      <trkpt lat="49.74653" lon="0.51151">
        <ele>60</ele>
        <time>2020-06-18T08:43:40Z</time>
      </trkpt>
      <trkpt lat="49.74653" lon="0.51159">
        <ele>60.1</ele>
        <time>2020-06-18T08:43:41Z</time>
      </trkpt>
      <trkpt lat="49.74654" lon="0.51167">
        <ele>60.2</ele>
        <time>2020-06-18T08:43:42Z</time>
      </trkpt>
      <trkpt lat="49.74654" lon="0.51175">
        <ele>60.3</ele>
        <time>2020-06-18T08:43:43Z</time>
      </trkpt>
      <trkpt lat="49.74654" lon="0.51182">
        <ele>60.3</ele>
        <time>2020-06-18T08:43:44Z</time>
      </trkpt>
      <trkpt lat="49.74654" lon="0.51189">
        <ele>59.9</ele>
        <time>2020-06-18T08:43:45Z</time>
      </trkpt>
      <trkpt lat="49.74653" lon="0.51196">
        <ele>59.5</ele>
        <time>2020-06-18T08:43:46Z</time>
      </trkpt>
      <trkpt lat="49.74652" lon="0.51204">
        <ele>59.1</ele>
        <time>2020-06-18T08:43:47Z</time>
      </trkpt>
      <trkpt lat="49.74652" lon="0.5121">
        <ele>58.8</ele>
        <time>2020-06-18T08:43:48Z</time>
      </trkpt>
      <trkpt lat="49.74651" lon="0.51216">
        <ele>58.5</ele>
        <time>2020-06-18T08:43:49Z</time>
      </trkpt>
      <trkpt lat="49.74651" lon="0.51222">
        <ele>58.2</ele>
        <time>2020-06-18T08:43:50Z</time>
      </trkpt>
      <trkpt lat="49.7465" lon="0.51226">
        <ele>57.9</ele>
        <time>2020-06-18T08:43:51Z</time>
      </trkpt>
      <trkpt lat="49.74649" lon="0.51231">
        <ele>57.6</ele>
        <time>2020-06-18T08:43:52Z</time>
      </trkpt>
      <trkpt lat="49.74649" lon="0.51233">
        <ele>57.5</ele>
        <time>2020-06-18T08:43:53Z</time>
      </trkpt>
      <trkpt lat="49.74648" lon="0.51235">
        <ele>57.3</ele>
        <time>2020-06-18T08:43:54Z</time>
      </trkpt>
      <trkpt lat="49.74647" lon="0.51237">
        <ele>57.2</ele>
        <time>2020-06-18T08:43:55Z</time>
      </trkpt>
      <trkpt lat="49.74647" lon="0.51239">
        <ele>57.1</ele>
        <time>2020-06-18T08:43:56Z</time>
      </trkpt>
      <trkpt lat="49.74647" lon="0.51239">
        <ele>57.1</ele>
        <time>2020-06-18T08:43:57Z</time>
      </trkpt>
      <trkpt lat="49.74646" lon="0.51239">
        <ele>57.1</ele>
        <time>2020-06-18T08:43:58Z</time>
      </trkpt>
      <trkpt lat="49.74646" lon="0.5124">
        <ele>57</ele>
        <time>2020-06-18T08:43:59Z</time>
      </trkpt>
      <trkpt lat="49.74646" lon="0.51241">
        <ele>57</ele>
        <time>2020-06-18T08:44:00Z</time>
      </trkpt>
      <trkpt lat="49.74646" lon="0.51242">
        <ele>56.9</ele>
        <time>2020-06-18T08:44:01Z</time>
      </trkpt>
      <trkpt lat="49.74645" lon="0.51244">
        <ele>56.7</ele>
        <time>2020-06-18T08:44:02Z</time>
      </trkpt>
      <trkpt lat="49.74644" lon="0.51245">
        <ele>56.5</ele>
        <time>2020-06-18T08:44:03Z</time>
      </trkpt>
      <trkpt lat="49.74641" lon="0.51247">
        <ele>56.1</ele>
        <time>2020-06-18T08:44:04Z</time>
      </trkpt>
      <trkpt lat="49.7464" lon="0.51248">
        <ele>56</ele>
        <time>2020-06-18T08:44:05Z</time>
      </trkpt>
      <trkpt lat="49.74637" lon="0.51248">
        <ele>55.8</ele>
        <time>2020-06-18T08:44:06Z</time>
      </trkpt>
      <trkpt lat="49.74633" lon="0.51246">
        <ele>55.5</ele>
        <time>2020-06-18T08:44:07Z</time>
      </trkpt>
      <trkpt lat="49.74629" lon="0.51247">
        <ele>55.2</ele>
        <time>2020-06-18T08:44:08Z</time>
      </trkpt>
      <trkpt lat="49.74624" lon="0.51248">
        <ele>54.9</ele>
        <time>2020-06-18T08:44:09Z</time>
      </trkpt>
      <trkpt lat="49.74619" lon="0.51249">
        <ele>54.6</ele>
        <time>2020-06-18T08:44:10Z</time>
      </trkpt>
      <trkpt lat="49.74614" lon="0.5125">
        <ele>54.3</ele>
        <time>2020-06-18T08:44:11Z</time>
      </trkpt>
      <trkpt lat="49.7461" lon="0.51252">
        <ele>54.1</ele>
        <time>2020-06-18T08:44:12Z</time>
      </trkpt>
      <trkpt lat="49.74605" lon="0.51255">
        <ele>53.8</ele>
        <time>2020-06-18T08:44:13Z</time>
      </trkpt>
      <trkpt lat="49.746" lon="0.51256">
        <ele>53.7</ele>
        <time>2020-06-18T08:44:14Z</time>
      </trkpt>
      <trkpt lat="49.74596" lon="0.51256">
        <ele>53.5</ele>
        <time>2020-06-18T08:44:15Z</time>
      </trkpt>
      <trkpt lat="49.74591" lon="0.51256">
        <ele>53.3</ele>
        <time>2020-06-18T08:44:16Z</time>
      </trkpt>
      <trkpt lat="49.74587" lon="0.51257">
        <ele>53.2</ele>
        <time>2020-06-18T08:44:17Z</time>
      </trkpt>
      <trkpt lat="49.74581" lon="0.51258">
        <ele>53</ele>
        <time>2020-06-18T08:44:18Z</time>
      </trkpt>
      <trkpt lat="49.74576" lon="0.51259">
        <ele>52.8</ele>
        <time>2020-06-18T08:44:19Z</time>
      </trkpt>
      <trkpt lat="49.74571" lon="0.5126">
        <ele>52.6</ele>
        <time>2020-06-18T08:44:20Z</time>
      </trkpt>
      <trkpt lat="49.74567" lon="0.51261">
        <ele>52.5</ele>
        <time>2020-06-18T08:44:21Z</time>
      </trkpt>
      <trkpt lat="49.74562" lon="0.51262">
        <ele>52.4</ele>
        <time>2020-06-18T08:44:22Z</time>
      </trkpt>
      <trkpt lat="49.74558" lon="0.51262">
        <ele>52.3</ele>
        <time>2020-06-18T08:44:23Z</time>
      </trkpt>
      <trkpt lat="49.74554" lon="0.51264">
        <ele>52.2</ele>
        <time>2020-06-18T08:44:24Z</time>
      </trkpt>
      <trkpt lat="49.7455" lon="0.51268">
        <ele>52.1</ele>
        <time>2020-06-18T08:44:25Z</time>
      </trkpt>
      <trkpt lat="49.74546" lon="0.5127">
        <ele>52</ele>
        <time>2020-06-18T08:44:26Z</time>
      </trkpt>
      <trkpt lat="49.74541" lon="0.5127">
        <ele>51.9</ele>
        <time>2020-06-18T08:44:27Z</time>
      </trkpt>
      <trkpt lat="49.74536" lon="0.51271">
        <ele>51.9</ele>
        <time>2020-06-18T08:44:28Z</time>
      </trkpt>
      <trkpt lat="49.74531" lon="0.51273">
        <ele>51.9</ele>
        <time>2020-06-18T08:44:29Z</time>
      </trkpt>
      <trkpt lat="49.74526" lon="0.51275">
        <ele>51.8</ele>
        <time>2020-06-18T08:44:30Z</time>
      </trkpt>
      <trkpt lat="49.74521" lon="0.51276">
        <ele>51.8</ele>
        <time>2020-06-18T08:44:31Z</time>
      </trkpt>
      <trkpt lat="49.74516" lon="0.51277">
        <ele>51.8</ele>
        <time>2020-06-18T08:44:32Z</time>
      </trkpt>
      <trkpt lat="49.74511" lon="0.51278">
        <ele>51.8</ele>
        <time>2020-06-18T08:44:33Z</time>
      </trkpt>
      <trkpt lat="49.74506" lon="0.51278">
        <ele>51.8</ele>
        <time>2020-06-18T08:44:34Z</time>
      </trkpt>
      <trkpt lat="49.74502" lon="0.51281">
        <ele>51.8</ele>
        <time>2020-06-18T08:44:35Z</time>
      </trkpt>
      <trkpt lat="49.74498" lon="0.51283">
        <ele>51.8</ele>
        <time>2020-06-18T08:44:36Z</time>
      </trkpt>
      <trkpt lat="49.74494" lon="0.51284">
        <ele>51.8</ele>
        <time>2020-06-18T08:44:37Z</time>
      </trkpt>
      <trkpt lat="49.74489" lon="0.51284">
        <ele>51.8</ele>
        <time>2020-06-18T08:44:38Z</time>
      </trkpt>
      <trkpt lat="49.74485" lon="0.51286">
        <ele>51.8</ele>
        <time>2020-06-18T08:44:39Z</time>
      </trkpt>
      <trkpt lat="49.7448" lon="0.51287">
        <ele>51.9</ele>
        <time>2020-06-18T08:44:40Z</time>
      </trkpt>
      <trkpt lat="49.74475" lon="0.51289">
        <ele>51.9</ele>
        <time>2020-06-18T08:44:41Z</time>
      </trkpt>
      <trkpt lat="49.74471" lon="0.51291">
        <ele>52</ele>
        <time>2020-06-18T08:44:42Z</time>
      </trkpt>
      <trkpt lat="49.74467" lon="0.51293">
        <ele>52</ele>
        <time>2020-06-18T08:44:43Z</time>
      </trkpt>
      <trkpt lat="49.74463" lon="0.51293">
        <ele>52.3</ele>
        <time>2020-06-18T08:44:44Z</time>
      </trkpt>
      <trkpt lat="49.7446" lon="0.5129">
        <ele>52.4</ele>
        <time>2020-06-18T08:44:45Z</time>
      </trkpt>
      <trkpt lat="49.74457" lon="0.51288">
        <ele>52.4</ele>
        <time>2020-06-18T08:44:46Z</time>
      </trkpt>
      <trkpt lat="49.74456" lon="0.51284">
        <ele>52.5</ele>
        <time>2020-06-18T08:44:47Z</time>
      </trkpt>
      <trkpt lat="49.74454" lon="0.51281">
        <ele>52.5</ele>
        <time>2020-06-18T08:44:48Z</time>
      </trkpt>
      <trkpt lat="49.74452" lon="0.51277">
        <ele>52.5</ele>
        <time>2020-06-18T08:44:49Z</time>
      </trkpt>
      <trkpt lat="49.74451" lon="0.51273">
        <ele>52.6</ele>
        <time>2020-06-18T08:44:50Z</time>
      </trkpt>
      <trkpt lat="49.74449" lon="0.5127">
        <ele>52.7</ele>
        <time>2020-06-18T08:44:51Z</time>
      </trkpt>
      <trkpt lat="49.74448" lon="0.5127">
        <ele>52.7</ele>
        <time>2020-06-18T08:44:52Z</time>
      </trkpt>
      <trkpt lat="49.74446" lon="0.51269">
        <ele>52.7</ele>
        <time>2020-06-18T08:44:53Z</time>
      </trkpt>
      <trkpt lat="49.74445" lon="0.5127">
        <ele>52.7</ele>
        <time>2020-06-18T08:44:54Z</time>
      </trkpt>
      <trkpt lat="49.74445" lon="0.51273">
        <ele>52.8</ele>
        <time>2020-06-18T08:44:55Z</time>
      </trkpt>
      <trkpt lat="49.74446" lon="0.51273">
        <ele>52.8</ele>
        <time>2020-06-18T08:44:56Z</time>
      </trkpt>
      <trkpt lat="49.74447" lon="0.51274">
        <ele>52.8</ele>
        <time>2020-06-18T08:44:57Z</time>
      </trkpt>
      <trkpt lat="49.74448" lon="0.51277">
        <ele>52.8</ele>
        <time>2020-06-18T08:44:58Z</time>
      </trkpt>
      <trkpt lat="49.74449" lon="0.51279">
        <ele>52.8</ele>
        <time>2020-06-18T08:44:59Z</time>
      </trkpt>
      <trkpt lat="49.74451" lon="0.51281">
        <ele>52.7</ele>
        <time>2020-06-18T08:45:00Z</time>
      </trkpt>
      <trkpt lat="49.74452" lon="0.51282">
        <ele>52.7</ele>
        <time>2020-06-18T08:45:01Z</time>
      </trkpt>
      <trkpt lat="49.74453" lon="0.51284">
        <ele>52.7</ele>
        <time>2020-06-18T08:45:02Z</time>
      </trkpt>
      <trkpt lat="49.74454" lon="0.51284">
        <ele>52.7</ele>
        <time>2020-06-18T08:45:03Z</time>
      </trkpt>
      <trkpt lat="49.74455" lon="0.51284">
        <ele>52.7</ele>
        <time>2020-06-18T08:45:04Z</time>
      </trkpt>
      <trkpt lat="49.74455" lon="0.51283">
        <ele>52.7</ele>
        <time>2020-06-18T08:45:05Z</time>
      </trkpt>
      <trkpt lat="49.74454" lon="0.51281">
        <ele>52.7</ele>
        <time>2020-06-18T08:45:06Z</time>
      </trkpt>
      <trkpt lat="49.74453" lon="0.5128">
        <ele>52.6</ele>
        <time>2020-06-18T08:45:07Z</time>
      </trkpt>
      <trkpt lat="49.74453" lon="0.51279">
        <ele>52.6</ele>
        <time>2020-06-18T08:45:08Z</time>
      </trkpt>
      <trkpt lat="49.74452" lon="0.51278">
        <ele>52.6</ele>
        <time>2020-06-18T08:45:09Z</time>
      </trkpt>
      <trkpt lat="49.74452" lon="0.51277">
        <ele>52.6</ele>
        <time>2020-06-18T08:45:10Z</time>
      </trkpt>
      <trkpt lat="49.74452" lon="0.51276">
        <ele>52.6</ele>
        <time>2020-06-18T08:45:11Z</time>
      </trkpt>
      <trkpt lat="49.74451" lon="0.51276">
        <ele>52.6</ele>
        <time>2020-06-18T08:45:12Z</time>
      </trkpt>
      <trkpt lat="49.7445" lon="0.51276">
        <ele>52.6</ele>
        <time>2020-06-18T08:45:13Z</time>
      </trkpt>
      <trkpt lat="49.7445" lon="0.51275">
        <ele>52.6</ele>
        <time>2020-06-18T08:45:14Z</time>
      </trkpt>
      <trkpt lat="49.7445" lon="0.51274">
        <ele>52.6</ele>
        <time>2020-06-18T08:45:15Z</time>
      </trkpt>
      <trkpt lat="49.7445" lon="0.51274">
        <ele>52.6</ele>
        <time>2020-06-18T08:45:16Z</time>
      </trkpt>
      <trkpt lat="49.74449" lon="0.51275">
        <ele>52.6</ele>
        <time>2020-06-18T08:45:17Z</time>
      </trkpt>
      <trkpt lat="49.74449" lon="0.51275">
        <ele>52.6</ele>
        <time>2020-06-18T08:45:18Z</time>
      </trkpt>
      <trkpt lat="49.74449" lon="0.51275">
        <ele>52.6</ele>
        <time>2020-06-18T08:45:19Z</time>
      </trkpt>
      <trkpt lat="49.74449" lon="0.51275">
        <ele>52.6</ele>
        <time>2020-06-18T08:45:20Z</time>
      </trkpt>
      <trkpt lat="49.74449" lon="0.51276">
        <ele>52.6</ele>
        <time>2020-06-18T08:45:21Z</time>
      </trkpt>
      <trkpt lat="49.74449" lon="0.51278">
        <ele>52.5</ele>
        <time>2020-06-18T08:45:22Z</time>
      </trkpt>
      <trkpt lat="49.74449" lon="0.5128">
        <ele>52.5</ele>
        <time>2020-06-18T08:45:23Z</time>
      </trkpt>
      <trkpt lat="49.7445" lon="0.51282">
        <ele>52.5</ele>
        <time>2020-06-18T08:45:25Z</time>
      </trkpt>
      <trkpt lat="49.7445" lon="0.51284">
        <ele>52.5</ele>
        <time>2020-06-18T08:45:26Z</time>
      </trkpt>
      <trkpt lat="49.7445" lon="0.51285">
        <ele>52.5</ele>
        <time>2020-06-18T08:45:27Z</time>
      </trkpt>
      <trkpt lat="49.7445" lon="0.5129">
        <ele>52.5</ele>
        <time>2020-06-18T08:45:28Z</time>
      </trkpt>
      <trkpt lat="49.74452" lon="0.51292">
        <ele>52.4</ele>
        <time>2020-06-18T08:45:29Z</time>
      </trkpt>
      <trkpt lat="49.74452" lon="0.51293">
        <ele>52.4</ele>
        <time>2020-06-18T08:45:30Z</time>
      </trkpt>
      <trkpt lat="49.74453" lon="0.51295">
        <ele>52.4</ele>
        <time>2020-06-18T08:45:31Z</time>
      </trkpt>
      <trkpt lat="49.74453" lon="0.51295">
        <ele>52.4</ele>
        <time>2020-06-18T08:45:32Z</time>
      </trkpt>
      <trkpt lat="49.74453" lon="0.51296">
        <ele>52.4</ele>
        <time>2020-06-18T08:45:33Z</time>
      </trkpt>
      <trkpt lat="49.74452" lon="0.51298">
        <ele>52.4</ele>
        <time>2020-06-18T08:45:34Z</time>
      </trkpt>
      <trkpt lat="49.74453" lon="0.51298">
        <ele>52.4</ele>
        <time>2020-06-18T08:45:35Z</time>
      </trkpt>
      <trkpt lat="49.74453" lon="0.51299">
        <ele>52.4</ele>
        <time>2020-06-18T08:45:36Z</time>
      </trkpt>
      <trkpt lat="49.74453" lon="0.513">
        <ele>52.4</ele>
        <time>2020-06-18T08:45:37Z</time>
      </trkpt>
      <trkpt lat="49.74454" lon="0.51299">
        <ele>52.4</ele>
        <time>2020-06-18T08:45:38Z</time>
      </trkpt>
      <trkpt lat="49.74454" lon="0.51299">
        <ele>52.4</ele>
        <time>2020-06-18T08:45:39Z</time>
      </trkpt>
      <trkpt lat="49.74454" lon="0.51299">
        <ele>52.4</ele>
        <time>2020-06-18T08:45:40Z</time>
      </trkpt>
      <trkpt lat="49.74455" lon="0.51299">
        <ele>52.4</ele>
        <time>2020-06-18T08:45:41Z</time>
      </trkpt>
      <trkpt lat="49.74454" lon="0.513">
        <ele>52.4</ele>
        <time>2020-06-18T08:45:42Z</time>
      </trkpt>
      <trkpt lat="49.74454" lon="0.513">
        <ele>52.4</ele>
        <time>2020-06-18T08:45:43Z</time>
      </trkpt>
      <trkpt lat="49.74454" lon="0.513">
        <ele>52.4</ele>
        <time>2020-06-18T08:45:44Z</time>
      </trkpt>
      <trkpt lat="49.74453" lon="0.51301">
        <ele>52.3</ele>
        <time>2020-06-18T08:45:45Z</time>
      </trkpt>
      <trkpt lat="49.74454" lon="0.513">
        <ele>52.3</ele>
        <time>2020-06-18T08:45:46Z</time>
      </trkpt>
      <trkpt lat="49.74453" lon="0.51301">
        <ele>52.3</ele>
        <time>2020-06-18T08:45:47Z</time>
      </trkpt>
      <trkpt lat="49.74454" lon="0.51301">
        <ele>52.3</ele>
        <time>2020-06-18T08:45:48Z</time>
      </trkpt>
      <trkpt lat="49.74454" lon="0.513">
        <ele>52.3</ele>
        <time>2020-06-18T08:45:49Z</time>
      </trkpt>
      <trkpt lat="49.74454" lon="0.51301">
        <ele>52.3</ele>
        <time>2020-06-18T08:45:50Z</time>
      </trkpt>
      <trkpt lat="49.74454" lon="0.51301">
        <ele>52.3</ele>
        <time>2020-06-18T08:45:51Z</time>
      </trkpt>
      <trkpt lat="49.74454" lon="0.51301">
        <ele>52.3</ele>
        <time>2020-06-18T08:45:52Z</time>
      </trkpt>
      <trkpt lat="49.74454" lon="0.51301">
        <ele>52.3</ele>
        <time>2020-06-18T08:45:53Z</time>
      </trkpt>
      <trkpt lat="49.74454" lon="0.51301">
        <ele>52.3</ele>
        <time>2020-06-18T08:45:54Z</time>
      </trkpt>
      <trkpt lat="49.74456" lon="0.513">
        <ele>52.3</ele>
        <time>2020-06-18T08:45:55Z</time>
      </trkpt>
      <trkpt lat="49.74456" lon="0.513">
        <ele>52.3</ele>
        <time>2020-06-18T08:45:56Z</time>
      </trkpt>
      <trkpt lat="49.74457" lon="0.51299">
        <ele>52.2</ele>
        <time>2020-06-18T08:45:57Z</time>
      </trkpt>
      <trkpt lat="49.74459" lon="0.513">
        <ele>52.2</ele>
        <time>2020-06-18T08:45:58Z</time>
      </trkpt>
      <trkpt lat="49.74461" lon="0.51302">
        <ele>52.2</ele>
        <time>2020-06-18T08:45:59Z</time>
      </trkpt>
      <trkpt lat="49.74463" lon="0.51303">
        <ele>52.1</ele>
        <time>2020-06-18T08:46:00Z</time>
      </trkpt>
      <trkpt lat="49.74464" lon="0.51304">
        <ele>52.1</ele>
        <time>2020-06-18T08:46:01Z</time>
      </trkpt>
      <trkpt lat="49.74466" lon="0.51306">
        <ele>52.1</ele>
        <time>2020-06-18T08:47:55Z</time>
      </trkpt>
      <trkpt lat="49.74468" lon="0.51307">
        <ele>52</ele>
        <time>2020-06-18T08:47:56Z</time>
      </trkpt>
      <trkpt lat="49.74471" lon="0.51305">
        <ele>52</ele>
        <time>2020-06-18T08:47:57Z</time>
      </trkpt>
      <trkpt lat="49.74474" lon="0.51303">
        <ele>52</ele>
        <time>2020-06-18T08:47:58Z</time>
      </trkpt>
      <trkpt lat="49.74477" lon="0.513">
        <ele>51.9</ele>
        <time>2020-06-18T08:47:59Z</time>
      </trkpt>
      <trkpt lat="49.74481" lon="0.51296">
        <ele>51.9</ele>
        <time>2020-06-18T08:48:00Z</time>
      </trkpt>
      <trkpt lat="49.74486" lon="0.51291">
        <ele>51.8</ele>
        <time>2020-06-18T08:48:01Z</time>
      </trkpt>
      <trkpt lat="49.74491" lon="0.51291">
        <ele>51.8</ele>
        <time>2020-06-18T08:48:02Z</time>
      </trkpt>
      <trkpt lat="49.74496" lon="0.5129">
        <ele>51.8</ele>
        <time>2020-06-18T08:48:03Z</time>
      </trkpt>
      <trkpt lat="49.74502" lon="0.51289">
        <ele>51.8</ele>
        <time>2020-06-18T08:48:04Z</time>
      </trkpt>
      <trkpt lat="49.74507" lon="0.51288">
        <ele>51.8</ele>
        <time>2020-06-18T08:48:05Z</time>
      </trkpt>
      <trkpt lat="49.74512" lon="0.51286">
        <ele>51.8</ele>
        <time>2020-06-18T08:48:06Z</time>
      </trkpt>
      <trkpt lat="49.74517" lon="0.51284">
        <ele>51.8</ele>
        <time>2020-06-18T08:48:07Z</time>
      </trkpt>
      <trkpt lat="49.74522" lon="0.51281">
        <ele>51.8</ele>
        <time>2020-06-18T08:48:08Z</time>
      </trkpt>
      <trkpt lat="49.74527" lon="0.5128">
        <ele>51.8</ele>
        <time>2020-06-18T08:48:09Z</time>
      </trkpt>
      <trkpt lat="49.74533" lon="0.51278">
        <ele>51.9</ele>
        <time>2020-06-18T08:48:10Z</time>
      </trkpt>
      <trkpt lat="49.74539" lon="0.51277">
        <ele>51.9</ele>
        <time>2020-06-18T08:48:11Z</time>
      </trkpt>
      <trkpt lat="49.74545" lon="0.51274">
        <ele>52</ele>
        <time>2020-06-18T08:48:12Z</time>
      </trkpt>
      <trkpt lat="49.74551" lon="0.51273">
        <ele>52.1</ele>
        <time>2020-06-18T08:48:13Z</time>
      </trkpt>
      <trkpt lat="49.74557" lon="0.51271">
        <ele>52.3</ele>
        <time>2020-06-18T08:48:14Z</time>
      </trkpt>
      <trkpt lat="49.74563" lon="0.51268">
        <ele>52.4</ele>
        <time>2020-06-18T08:48:15Z</time>
      </trkpt>
      <trkpt lat="49.7457" lon="0.51266">
        <ele>52.6</ele>
        <time>2020-06-18T08:48:16Z</time>
      </trkpt>
      <trkpt lat="49.74576" lon="0.51264">
        <ele>52.8</ele>
        <time>2020-06-18T08:48:17Z</time>
      </trkpt>
      <trkpt lat="49.74582" lon="0.51262">
        <ele>53</ele>
        <time>2020-06-18T08:48:18Z</time>
      </trkpt>
      <trkpt lat="49.74588" lon="0.51259">
        <ele>53.2</ele>
        <time>2020-06-18T08:48:19Z</time>
      </trkpt>
      <trkpt lat="49.74594" lon="0.51258">
        <ele>53.5</ele>
        <time>2020-06-18T08:48:20Z</time>
      </trkpt>
      <trkpt lat="49.74601" lon="0.51257">
        <ele>53.7</ele>
        <time>2020-06-18T08:48:21Z</time>
      </trkpt>
      <trkpt lat="49.74607" lon="0.51256">
        <ele>54</ele>
        <time>2020-06-18T08:48:22Z</time>
      </trkpt>
      <trkpt lat="49.74614" lon="0.51256">
        <ele>54.3</ele>
        <time>2020-06-18T08:48:23Z</time>
      </trkpt>
      <trkpt lat="49.7462" lon="0.51255">
        <ele>54.7</ele>
        <time>2020-06-18T08:48:24Z</time>
      </trkpt>
      <trkpt lat="49.74626" lon="0.51255">
        <ele>55</ele>
        <time>2020-06-18T08:48:25Z</time>
      </trkpt>
      <trkpt lat="49.74632" lon="0.51256">
        <ele>55.5</ele>
        <time>2020-06-18T08:48:26Z</time>
      </trkpt>
      <trkpt lat="49.74638" lon="0.51256">
        <ele>55.9</ele>
        <time>2020-06-18T08:48:27Z</time>
      </trkpt>
      <trkpt lat="49.74643" lon="0.51259">
        <ele>56.1</ele>
        <time>2020-06-18T08:48:28Z</time>
      </trkpt>
      <trkpt lat="49.74648" lon="0.51261">
        <ele>56.1</ele>
        <time>2020-06-18T08:48:29Z</time>
      </trkpt>
      <trkpt lat="49.74653" lon="0.51264">
        <ele>56.1</ele>
        <time>2020-06-18T08:48:30Z</time>
      </trkpt>
      <trkpt lat="49.74656" lon="0.51269">
        <ele>56.2</ele>
        <time>2020-06-18T08:48:31Z</time>
      </trkpt>
      <trkpt lat="49.74661" lon="0.51272">
        <ele>56.3</ele>
        <time>2020-06-18T08:48:32Z</time>
      </trkpt>
      <trkpt lat="49.74665" lon="0.51276">
        <ele>56.4</ele>
        <time>2020-06-18T08:48:33Z</time>
      </trkpt>
      <trkpt lat="49.74669" lon="0.51281">
        <ele>56.7</ele>
        <time>2020-06-18T08:48:34Z</time>
      </trkpt>
      <trkpt lat="49.74672" lon="0.51286">
        <ele>57.1</ele>
        <time>2020-06-18T08:48:35Z</time>
      </trkpt>
      <trkpt lat="49.74676" lon="0.5129">
        <ele>57.6</ele>
        <time>2020-06-18T08:48:36Z</time>
      </trkpt>
      <trkpt lat="49.74678" lon="0.51295">
        <ele>57.9</ele>
        <time>2020-06-18T08:48:37Z</time>
      </trkpt>
      <trkpt lat="49.74681" lon="0.513">
        <ele>58.3</ele>
        <time>2020-06-18T08:48:38Z</time>
      </trkpt>
      <trkpt lat="49.74684" lon="0.51305">
        <ele>58.6</ele>
        <time>2020-06-18T08:48:39Z</time>
      </trkpt>
      <trkpt lat="49.74686" lon="0.51309">
        <ele>58.9</ele>
        <time>2020-06-18T08:48:40Z</time>
      </trkpt>
      <trkpt lat="49.74689" lon="0.51314">
        <ele>59.3</ele>
        <time>2020-06-18T08:48:41Z</time>
      </trkpt>
      <trkpt lat="49.7469" lon="0.51317">
        <ele>59.5</ele>
        <time>2020-06-18T08:48:42Z</time>
      </trkpt>
      <trkpt lat="49.74691" lon="0.51321">
        <ele>59.8</ele>
        <time>2020-06-18T08:48:43Z</time>
      </trkpt>
      <trkpt lat="49.74692" lon="0.51325">
        <ele>60</ele>
        <time>2020-06-18T08:48:44Z</time>
      </trkpt>
      <trkpt lat="49.74694" lon="0.5133">
        <ele>60.3</ele>
        <time>2020-06-18T08:48:45Z</time>
      </trkpt>
      <trkpt lat="49.74695" lon="0.51332">
        <ele>60.4</ele>
        <time>2020-06-18T08:48:46Z</time>
      </trkpt>
      <trkpt lat="49.74695" lon="0.51336">
        <ele>60.7</ele>
        <time>2020-06-18T08:48:47Z</time>
      </trkpt>
      <trkpt lat="49.74697" lon="0.5134">
        <ele>60.9</ele>
        <time>2020-06-18T08:48:48Z</time>
      </trkpt>
      <trkpt lat="49.747" lon="0.51345">
        <ele>61.3</ele>
        <time>2020-06-18T08:48:49Z</time>
      </trkpt>
      <trkpt lat="49.747" lon="0.51347">
        <ele>61.4</ele>
        <time>2020-06-18T08:48:50Z</time>
      </trkpt>
      <trkpt lat="49.74702" lon="0.51352">
        <ele>61.7</ele>
        <time>2020-06-18T08:48:51Z</time>
      </trkpt>
      <trkpt lat="49.74703" lon="0.51354">
        <ele>61.8</ele>
        <time>2020-06-18T08:48:52Z</time>
      </trkpt>
      <trkpt lat="49.74705" lon="0.51357">
        <ele>62</ele>
        <time>2020-06-18T08:48:53Z</time>
      </trkpt>
      <trkpt lat="49.74708" lon="0.51361">
        <ele>62.3</ele>
        <time>2020-06-18T08:48:54Z</time>
      </trkpt>
      <trkpt lat="49.7471" lon="0.51366">
        <ele>62.6</ele>
        <time>2020-06-18T08:48:55Z</time>
      </trkpt>
      <trkpt lat="49.74711" lon="0.51368">
        <ele>62.7</ele>
        <time>2020-06-18T08:48:56Z</time>
      </trkpt>
      <trkpt lat="49.74712" lon="0.51371">
        <ele>62.9</ele>
        <time>2020-06-18T08:48:57Z</time>
      </trkpt>
      <trkpt lat="49.74712" lon="0.51372">
        <ele>63</ele>
        <time>2020-06-18T08:48:58Z</time>
      </trkpt>
      <trkpt lat="49.74712" lon="0.51373">
        <ele>63</ele>
        <time>2020-06-18T08:48:59Z</time>
      </trkpt>
      <trkpt lat="49.74714" lon="0.51377">
        <ele>63.3</ele>
        <time>2020-06-18T08:49:00Z</time>
      </trkpt>
      <trkpt lat="49.74716" lon="0.51382">
        <ele>63.6</ele>
        <time>2020-06-18T08:49:01Z</time>
      </trkpt>
      <trkpt lat="49.74716" lon="0.51383">
        <ele>63.7</ele>
        <time>2020-06-18T08:49:02Z</time>
      </trkpt>
      <trkpt lat="49.74718" lon="0.51387">
        <ele>63.9</ele>
        <time>2020-06-18T08:49:03Z</time>
      </trkpt>
      <trkpt lat="49.74721" lon="0.51391">
        <ele>64.2</ele>
        <time>2020-06-18T08:49:04Z</time>
      </trkpt>
      <trkpt lat="49.74723" lon="0.51395">
        <ele>64.5</ele>
        <time>2020-06-18T08:49:05Z</time>
      </trkpt>
      <trkpt lat="49.74726" lon="0.51399">
        <ele>64.8</ele>
        <time>2020-06-18T08:49:06Z</time>
      </trkpt>
      <trkpt lat="49.74728" lon="0.51402">
        <ele>65.1</ele>
        <time>2020-06-18T08:49:07Z</time>
      </trkpt>
      <trkpt lat="49.74729" lon="0.51406">
        <ele>65.3</ele>
        <time>2020-06-18T08:49:08Z</time>
      </trkpt>
      <trkpt lat="49.74731" lon="0.51411">
        <ele>65.6</ele>
        <time>2020-06-18T08:49:09Z</time>
      </trkpt>
      <trkpt lat="49.74732" lon="0.51412">
        <ele>65.7</ele>
        <time>2020-06-18T08:49:10Z</time>
      </trkpt>
      <trkpt lat="49.74734" lon="0.51416">
        <ele>65.9</ele>
        <time>2020-06-18T08:49:11Z</time>
      </trkpt>
      <trkpt lat="49.74737" lon="0.51419">
        <ele>66.2</ele>
        <time>2020-06-18T08:49:12Z</time>
      </trkpt>
      <trkpt lat="49.74739" lon="0.51423">
        <ele>66.4</ele>
        <time>2020-06-18T08:49:13Z</time>
      </trkpt>
      <trkpt lat="49.74741" lon="0.51426">
        <ele>66.6</ele>
        <time>2020-06-18T08:49:14Z</time>
      </trkpt>
      <trkpt lat="49.74744" lon="0.5143">
        <ele>66.9</ele>
        <time>2020-06-18T08:49:15Z</time>
      </trkpt>
      <trkpt lat="49.74746" lon="0.51431">
        <ele>67</ele>
        <time>2020-06-18T08:49:16Z</time>
      </trkpt>
      <trkpt lat="49.74749" lon="0.51434">
        <ele>67.2</ele>
        <time>2020-06-18T08:49:17Z</time>
      </trkpt>
      <trkpt lat="49.7475" lon="0.51434">
        <ele>67.3</ele>
        <time>2020-06-18T08:49:18Z</time>
      </trkpt>
      <trkpt lat="49.74753" lon="0.51436">
        <ele>67.5</ele>
        <time>2020-06-18T08:49:19Z</time>
      </trkpt>
      <trkpt lat="49.74754" lon="0.51437">
        <ele>67.6</ele>
        <time>2020-06-18T08:49:20Z</time>
      </trkpt>
      <trkpt lat="49.74757" lon="0.51439">
        <ele>67.8</ele>
        <time>2020-06-18T08:49:21Z</time>
      </trkpt>
      <trkpt lat="49.7476" lon="0.51441">
        <ele>68</ele>
        <time>2020-06-18T08:49:22Z</time>
      </trkpt>
      <trkpt lat="49.74761" lon="0.51443">
        <ele>68</ele>
        <time>2020-06-18T08:49:23Z</time>
      </trkpt>
      <trkpt lat="49.74763" lon="0.51445">
        <ele>68.2</ele>
        <time>2020-06-18T08:49:24Z</time>
      </trkpt>
      <trkpt lat="49.74764" lon="0.51446">
        <ele>68.3</ele>
        <time>2020-06-18T08:49:25Z</time>
      </trkpt>
      <trkpt lat="49.74766" lon="0.51448">
        <ele>68.4</ele>
        <time>2020-06-18T08:49:26Z</time>
      </trkpt>
      <trkpt lat="49.74767" lon="0.51449">
        <ele>68.4</ele>
        <time>2020-06-18T08:49:27Z</time>
      </trkpt>
      <trkpt lat="49.7477" lon="0.51452">
        <ele>68.6</ele>
        <time>2020-06-18T08:49:28Z</time>
      </trkpt>
      <trkpt lat="49.74771" lon="0.51453">
        <ele>68.7</ele>
        <time>2020-06-18T08:49:29Z</time>
      </trkpt>
      <trkpt lat="49.74774" lon="0.51455">
        <ele>68.8</ele>
        <time>2020-06-18T08:49:30Z</time>
      </trkpt>
      <trkpt lat="49.74777" lon="0.51458">
        <ele>69</ele>
        <time>2020-06-18T08:49:31Z</time>
      </trkpt>
      <trkpt lat="49.74781" lon="0.51461">
        <ele>69.2</ele>
        <time>2020-06-18T08:49:32Z</time>
      </trkpt>
      <trkpt lat="49.74783" lon="0.51463">
        <ele>69.4</ele>
        <time>2020-06-18T08:49:33Z</time>
      </trkpt>
      <trkpt lat="49.74786" lon="0.51467">
        <ele>69.5</ele>
        <time>2020-06-18T08:49:34Z</time>
      </trkpt>
      <trkpt lat="49.7479" lon="0.51471">
        <ele>69.8</ele>
        <time>2020-06-18T08:49:35Z</time>
      </trkpt>
      <trkpt lat="49.74794" lon="0.51474">
        <ele>70</ele>
        <time>2020-06-18T08:49:36Z</time>
      </trkpt>
      <trkpt lat="49.74798" lon="0.51478">
        <ele>70.2</ele>
        <time>2020-06-18T08:49:37Z</time>
      </trkpt>
      <trkpt lat="49.748" lon="0.5148">
        <ele>70.3</ele>
        <time>2020-06-18T08:49:38Z</time>
      </trkpt>
      <trkpt lat="49.74804" lon="0.51482">
        <ele>70.5</ele>
        <time>2020-06-18T08:49:39Z</time>
      </trkpt>
      <trkpt lat="49.74805" lon="0.51483">
        <ele>70.5</ele>
        <time>2020-06-18T08:49:40Z</time>
      </trkpt>
      <trkpt lat="49.74808" lon="0.51485">
        <ele>70.7</ele>
        <time>2020-06-18T08:49:41Z</time>
      </trkpt>
      <trkpt lat="49.74809" lon="0.51485">
        <ele>70.7</ele>
        <time>2020-06-18T08:49:42Z</time>
      </trkpt>
      <trkpt lat="49.74812" lon="0.51489">
        <ele>70.9</ele>
        <time>2020-06-18T08:49:43Z</time>
      </trkpt>
      <trkpt lat="49.74813" lon="0.51491">
        <ele>71</ele>
        <time>2020-06-18T08:49:44Z</time>
      </trkpt>
      <trkpt lat="49.74816" lon="0.51494">
        <ele>71.1</ele>
        <time>2020-06-18T08:49:45Z</time>
      </trkpt>
      <trkpt lat="49.74819" lon="0.51497">
        <ele>71.3</ele>
        <time>2020-06-18T08:49:46Z</time>
      </trkpt>
      <trkpt lat="49.74823" lon="0.51501">
        <ele>71.5</ele>
        <time>2020-06-18T08:49:47Z</time>
      </trkpt>
      <trkpt lat="49.74826" lon="0.51504">
        <ele>71.6</ele>
        <time>2020-06-18T08:49:48Z</time>
      </trkpt>
      <trkpt lat="49.74826" lon="0.51505">
        <ele>71.7</ele>
        <time>2020-06-18T08:49:49Z</time>
      </trkpt>
      <trkpt lat="49.74829" lon="0.51507">
        <ele>71.8</ele>
        <time>2020-06-18T08:49:50Z</time>
      </trkpt>
      <trkpt lat="49.74832" lon="0.5151">
        <ele>71.9</ele>
        <time>2020-06-18T08:49:51Z</time>
      </trkpt>
      <trkpt lat="49.74834" lon="0.51512">
        <ele>72.1</ele>
        <time>2020-06-18T08:49:52Z</time>
      </trkpt>
      <trkpt lat="49.74838" lon="0.51516">
        <ele>72.2</ele>
        <time>2020-06-18T08:49:53Z</time>
      </trkpt>
      <trkpt lat="49.74839" lon="0.51517">
        <ele>72.3</ele>
        <time>2020-06-18T08:49:54Z</time>
      </trkpt>
      <trkpt lat="49.74843" lon="0.5152">
        <ele>72.5</ele>
        <time>2020-06-18T08:49:55Z</time>
      </trkpt>
      <trkpt lat="49.74843" lon="0.5152">
        <ele>72.5</ele>
        <time>2020-06-18T08:49:56Z</time>
      </trkpt>
      <trkpt lat="49.74847" lon="0.51522">
        <ele>72.7</ele>
        <time>2020-06-18T08:49:57Z</time>
      </trkpt>
      <trkpt lat="49.74851" lon="0.51526">
        <ele>72.9</ele>
        <time>2020-06-18T08:49:58Z</time>
      </trkpt>
      <trkpt lat="49.74852" lon="0.51527">
        <ele>73</ele>
        <time>2020-06-18T08:49:59Z</time>
      </trkpt>
      <trkpt lat="49.74855" lon="0.51529">
        <ele>73.1</ele>
        <time>2020-06-18T08:50:00Z</time>
      </trkpt>
      <trkpt lat="49.74858" lon="0.51532">
        <ele>73.3</ele>
        <time>2020-06-18T08:50:01Z</time>
      </trkpt>
      <trkpt lat="49.74861" lon="0.51536">
        <ele>73.5</ele>
        <time>2020-06-18T08:50:02Z</time>
      </trkpt>
      <trkpt lat="49.74865" lon="0.51538">
        <ele>73.6</ele>
        <time>2020-06-18T08:50:03Z</time>
      </trkpt>
      <trkpt lat="49.74868" lon="0.51541">
        <ele>73.8</ele>
        <time>2020-06-18T08:50:04Z</time>
      </trkpt>
      <trkpt lat="49.74871" lon="0.51543">
        <ele>74</ele>
        <time>2020-06-18T08:50:05Z</time>
      </trkpt>
      <trkpt lat="49.74873" lon="0.51544">
        <ele>74</ele>
        <time>2020-06-18T08:50:06Z</time>
      </trkpt>
      <trkpt lat="49.74876" lon="0.51547">
        <ele>74.2</ele>
        <time>2020-06-18T08:50:07Z</time>
      </trkpt>
      <trkpt lat="49.74879" lon="0.51549">
        <ele>74.4</ele>
        <time>2020-06-18T08:50:08Z</time>
      </trkpt>
      <trkpt lat="49.74882" lon="0.51551">
        <ele>74.5</ele>
        <time>2020-06-18T08:50:09Z</time>
      </trkpt>
      <trkpt lat="49.74886" lon="0.51553">
        <ele>74.7</ele>
        <time>2020-06-18T08:50:10Z</time>
      </trkpt>
      <trkpt lat="49.7489" lon="0.51555">
        <ele>74.9</ele>
        <time>2020-06-18T08:50:11Z</time>
      </trkpt>
      <trkpt lat="49.74893" lon="0.51558">
        <ele>75.1</ele>
        <time>2020-06-18T08:50:12Z</time>
      </trkpt>
      <trkpt lat="49.74895" lon="0.51561">
        <ele>75.2</ele>
        <time>2020-06-18T08:50:13Z</time>
      </trkpt>
      <trkpt lat="49.74898" lon="0.51563">
        <ele>75.4</ele>
        <time>2020-06-18T08:50:14Z</time>
      </trkpt>
      <trkpt lat="49.74902" lon="0.51566">
        <ele>75.6</ele>
        <time>2020-06-18T08:50:15Z</time>
      </trkpt>
      <trkpt lat="49.74905" lon="0.5157">
        <ele>75.8</ele>
        <time>2020-06-18T08:50:16Z</time>
      </trkpt>
      <trkpt lat="49.74909" lon="0.51572">
        <ele>76</ele>
        <time>2020-06-18T08:50:17Z</time>
      </trkpt>
      <trkpt lat="49.74913" lon="0.51575">
        <ele>76.3</ele>
        <time>2020-06-18T08:50:18Z</time>
      </trkpt>
      <trkpt lat="49.74919" lon="0.5158">
        <ele>76.6</ele>
        <time>2020-06-18T08:50:19Z</time>
      </trkpt>
      <trkpt lat="49.74924" lon="0.51583">
        <ele>76.9</ele>
        <time>2020-06-18T08:50:20Z</time>
      </trkpt>
      <trkpt lat="49.74928" lon="0.51585">
        <ele>77.1</ele>
        <time>2020-06-18T08:50:21Z</time>
      </trkpt>
      <trkpt lat="49.74932" lon="0.51588">
        <ele>77.3</ele>
        <time>2020-06-18T08:50:22Z</time>
      </trkpt>
      <trkpt lat="49.74936" lon="0.51591">
        <ele>77.5</ele>
        <time>2020-06-18T08:50:23Z</time>
      </trkpt>
      <trkpt lat="49.74939" lon="0.51593">
        <ele>77.6</ele>
        <time>2020-06-18T08:50:24Z</time>
      </trkpt>
      <trkpt lat="49.74941" lon="0.51595">
        <ele>77.8</ele>
        <time>2020-06-18T08:50:25Z</time>
      </trkpt>
      <trkpt lat="49.74942" lon="0.51596">
        <ele>77.8</ele>
        <time>2020-06-18T08:50:26Z</time>
      </trkpt>
      <trkpt lat="49.74943" lon="0.51598">
        <ele>77.9</ele>
        <time>2020-06-18T08:50:27Z</time>
      </trkpt>
      <trkpt lat="49.74945" lon="0.51599">
        <ele>78</ele>
        <time>2020-06-18T08:50:28Z</time>
      </trkpt>
      <trkpt lat="49.74947" lon="0.51601">
        <ele>78.1</ele>
        <time>2020-06-18T08:50:29Z</time>
      </trkpt>
      <trkpt lat="49.74948" lon="0.51602">
        <ele>78.2</ele>
        <time>2020-06-18T08:50:30Z</time>
      </trkpt>
      <trkpt lat="49.7495" lon="0.51605">
        <ele>78.3</ele>
        <time>2020-06-18T08:50:31Z</time>
      </trkpt>
      <trkpt lat="49.74953" lon="0.51608">
        <ele>78.5</ele>
        <time>2020-06-18T08:50:32Z</time>
      </trkpt>
      <trkpt lat="49.74955" lon="0.5161">
        <ele>78.7</ele>
        <time>2020-06-18T08:50:33Z</time>
      </trkpt>
      <trkpt lat="49.74958" lon="0.51611">
        <ele>78.8</ele>
        <time>2020-06-18T08:50:34Z</time>
      </trkpt>
      <trkpt lat="49.7496" lon="0.51612">
        <ele>78.9</ele>
        <time>2020-06-18T08:50:35Z</time>
      </trkpt>
      <trkpt lat="49.74963" lon="0.51614">
        <ele>79</ele>
        <time>2020-06-18T08:50:36Z</time>
      </trkpt>
      <trkpt lat="49.74966" lon="0.51615">
        <ele>79.2</ele>
        <time>2020-06-18T08:50:37Z</time>
      </trkpt>
      <trkpt lat="49.74971" lon="0.51616">
        <ele>79.4</ele>
        <time>2020-06-18T08:50:38Z</time>
      </trkpt>
      <trkpt lat="49.74973" lon="0.51616">
        <ele>79.5</ele>
        <time>2020-06-18T08:50:39Z</time>
      </trkpt>
      <trkpt lat="49.74977" lon="0.51615">
        <ele>79.7</ele>
        <time>2020-06-18T08:50:40Z</time>
      </trkpt>
      <trkpt lat="49.74982" lon="0.51615">
        <ele>79.9</ele>
        <time>2020-06-18T08:50:41Z</time>
      </trkpt>
      <trkpt lat="49.74987" lon="0.51616">
        <ele>80.1</ele>
        <time>2020-06-18T08:50:42Z</time>
      </trkpt>
      <trkpt lat="49.74989" lon="0.51615">
        <ele>80.2</ele>
        <time>2020-06-18T08:50:43Z</time>
      </trkpt>
      <trkpt lat="49.74994" lon="0.51613">
        <ele>80.4</ele>
        <time>2020-06-18T08:50:44Z</time>
      </trkpt>
      <trkpt lat="49.74997" lon="0.51612">
        <ele>80.5</ele>
        <time>2020-06-18T08:50:45Z</time>
      </trkpt>
      <trkpt lat="49.75" lon="0.51611">
        <ele>80.7</ele>
        <time>2020-06-18T08:50:46Z</time>
      </trkpt>
      <trkpt lat="49.75003" lon="0.51612">
        <ele>80.8</ele>
        <time>2020-06-18T08:50:47Z</time>
      </trkpt>
      <trkpt lat="49.75006" lon="0.51612">
        <ele>80.9</ele>
        <time>2020-06-18T08:50:48Z</time>
      </trkpt>
      <trkpt lat="49.75006" lon="0.51612">
        <ele>81</ele>
        <time>2020-06-18T08:50:49Z</time>
      </trkpt>
      <trkpt lat="49.75007" lon="0.51612">
        <ele>81</ele>
        <time>2020-06-18T08:50:50Z</time>
      </trkpt>
      <trkpt lat="49.75009" lon="0.51611">
        <ele>81.1</ele>
        <time>2020-06-18T08:50:51Z</time>
      </trkpt>
      <trkpt lat="49.75013" lon="0.51608">
        <ele>81.4</ele>
        <time>2020-06-18T08:50:52Z</time>
      </trkpt>
      <trkpt lat="49.75014" lon="0.51607">
        <ele>81.4</ele>
        <time>2020-06-18T08:50:53Z</time>
      </trkpt>
      <trkpt lat="49.75017" lon="0.51607">
        <ele>81.6</ele>
        <time>2020-06-18T08:50:54Z</time>
      </trkpt>
      <trkpt lat="49.75022" lon="0.51606">
        <ele>81.9</ele>
        <time>2020-06-18T08:50:55Z</time>
      </trkpt>
      <trkpt lat="49.75028" lon="0.51605">
        <ele>82.2</ele>
        <time>2020-06-18T08:50:56Z</time>
      </trkpt>
      <trkpt lat="49.75031" lon="0.51605">
        <ele>82.4</ele>
        <time>2020-06-18T08:50:57Z</time>
      </trkpt>
      <trkpt lat="49.75034" lon="0.51606">
        <ele>82.5</ele>
        <time>2020-06-18T08:50:58Z</time>
      </trkpt>
      <trkpt lat="49.75039" lon="0.51606">
        <ele>82.8</ele>
        <time>2020-06-18T08:50:59Z</time>
      </trkpt>
      <trkpt lat="49.75041" lon="0.51607">
        <ele>83</ele>
        <time>2020-06-18T08:51:00Z</time>
      </trkpt>
      <trkpt lat="49.75045" lon="0.51606">
        <ele>83.2</ele>
        <time>2020-06-18T08:51:01Z</time>
      </trkpt>
      <trkpt lat="49.75046" lon="0.51605">
        <ele>83.3</ele>
        <time>2020-06-18T08:51:02Z</time>
      </trkpt>
      <trkpt lat="49.75049" lon="0.51604">
        <ele>83.5</ele>
        <time>2020-06-18T08:51:03Z</time>
      </trkpt>
      <trkpt lat="49.75051" lon="0.51603">
        <ele>83.6</ele>
        <time>2020-06-18T08:51:04Z</time>
      </trkpt>
      <trkpt lat="49.75054" lon="0.51602">
        <ele>83.8</ele>
        <time>2020-06-18T08:51:05Z</time>
      </trkpt>
      <trkpt lat="49.75057" lon="0.51601">
        <ele>84</ele>
        <time>2020-06-18T08:51:06Z</time>
      </trkpt>
      <trkpt lat="49.75061" lon="0.516">
        <ele>84.3</ele>
        <time>2020-06-18T08:51:07Z</time>
      </trkpt>
      <trkpt lat="49.75064" lon="0.51598">
        <ele>84.5</ele>
        <time>2020-06-18T08:51:08Z</time>
      </trkpt>
      <trkpt lat="49.75066" lon="0.51598">
        <ele>84.6</ele>
        <time>2020-06-18T08:51:09Z</time>
      </trkpt>
      <trkpt lat="49.7507" lon="0.51596">
        <ele>84.8</ele>
        <time>2020-06-18T08:51:10Z</time>
      </trkpt>
      <trkpt lat="49.75072" lon="0.51596">
        <ele>84.9</ele>
        <time>2020-06-18T08:51:11Z</time>
      </trkpt>
      <trkpt lat="49.75078" lon="0.51598">
        <ele>85.3</ele>
        <time>2020-06-18T08:51:12Z</time>
      </trkpt>
      <trkpt lat="49.75083" lon="0.516">
        <ele>85.6</ele>
        <time>2020-06-18T08:51:13Z</time>
      </trkpt>
      <trkpt lat="49.75088" lon="0.51603">
        <ele>87</ele>
        <time>2020-06-18T08:51:14Z</time>
      </trkpt>
      <trkpt lat="49.75091" lon="0.51607">
        <ele>87.5</ele>
        <time>2020-06-18T08:51:15Z</time>
      </trkpt>
      <trkpt lat="49.75094" lon="0.51611">
        <ele>88</ele>
        <time>2020-06-18T08:51:16Z</time>
      </trkpt>
      <trkpt lat="49.75097" lon="0.51616">
        <ele>88.4</ele>
        <time>2020-06-18T08:51:17Z</time>
      </trkpt>
      <trkpt lat="49.751" lon="0.5162">
        <ele>88.8</ele>
        <time>2020-06-18T08:51:18Z</time>
      </trkpt>
      <trkpt lat="49.75103" lon="0.51624">
        <ele>89.2</ele>
        <time>2020-06-18T08:51:19Z</time>
      </trkpt>
      <trkpt lat="49.75105" lon="0.51628">
        <ele>89.6</ele>
        <time>2020-06-18T08:51:20Z</time>
      </trkpt>
      <trkpt lat="49.75106" lon="0.5163">
        <ele>89.7</ele>
        <time>2020-06-18T08:51:21Z</time>
      </trkpt>
      <trkpt lat="49.75108" lon="0.51634">
        <ele>90</ele>
        <time>2020-06-18T08:51:22Z</time>
      </trkpt>
      <trkpt lat="49.7511" lon="0.51636">
        <ele>90.3</ele>
        <time>2020-06-18T08:51:23Z</time>
      </trkpt>
      <trkpt lat="49.75111" lon="0.51638">
        <ele>90.4</ele>
        <time>2020-06-18T08:51:24Z</time>
      </trkpt>
      <trkpt lat="49.75113" lon="0.51641">
        <ele>90.7</ele>
        <time>2020-06-18T08:51:25Z</time>
      </trkpt>
      <trkpt lat="49.75114" lon="0.51642">
        <ele>90.8</ele>
        <time>2020-06-18T08:51:26Z</time>
      </trkpt>
      <trkpt lat="49.75115" lon="0.51645">
        <ele>91</ele>
        <time>2020-06-18T08:51:27Z</time>
      </trkpt>
      <trkpt lat="49.75115" lon="0.51647">
        <ele>91.2</ele>
        <time>2020-06-18T08:51:28Z</time>
      </trkpt>
      <trkpt lat="49.75116" lon="0.5165">
        <ele>91.3</ele>
        <time>2020-06-18T08:51:29Z</time>
      </trkpt>
      <trkpt lat="49.75116" lon="0.51652">
        <ele>91.5</ele>
        <time>2020-06-18T08:51:30Z</time>
      </trkpt>
      <trkpt lat="49.75117" lon="0.51654">
        <ele>91.6</ele>
        <time>2020-06-18T08:51:31Z</time>
      </trkpt>
      <trkpt lat="49.75118" lon="0.51657">
        <ele>91.8</ele>
        <time>2020-06-18T08:51:32Z</time>
      </trkpt>
      <trkpt lat="49.75119" lon="0.51662">
        <ele>92.2</ele>
        <time>2020-06-18T08:51:33Z</time>
      </trkpt>
      <trkpt lat="49.75119" lon="0.51664">
        <ele>92.4</ele>
        <time>2020-06-18T08:51:34Z</time>
      </trkpt>
      <trkpt lat="49.7512" lon="0.51669">
        <ele>92.8</ele>
        <time>2020-06-18T08:51:35Z</time>
      </trkpt>
      <trkpt lat="49.7512" lon="0.51674">
        <ele>93.2</ele>
        <time>2020-06-18T08:51:36Z</time>
      </trkpt>
      <trkpt lat="49.75122" lon="0.51679">
        <ele>93.6</ele>
        <time>2020-06-18T08:51:37Z</time>
      </trkpt>
      <trkpt lat="49.75122" lon="0.51681">
        <ele>93.8</ele>
        <time>2020-06-18T08:51:38Z</time>
      </trkpt>
      <trkpt lat="49.75124" lon="0.51684">
        <ele>94.1</ele>
        <time>2020-06-18T08:51:39Z</time>
      </trkpt>
      <trkpt lat="49.75124" lon="0.51686">
        <ele>94.2</ele>
        <time>2020-06-18T08:51:40Z</time>
      </trkpt>
      <trkpt lat="49.75124" lon="0.5169">
        <ele>94.6</ele>
        <time>2020-06-18T08:51:41Z</time>
      </trkpt>
      <trkpt lat="49.75124" lon="0.51692">
        <ele>94.7</ele>
        <time>2020-06-18T08:51:42Z</time>
      </trkpt>
      <trkpt lat="49.75124" lon="0.51697">
        <ele>95.1</ele>
        <time>2020-06-18T08:51:43Z</time>
      </trkpt>
      <trkpt lat="49.75124" lon="0.51699">
        <ele>95.3</ele>
        <time>2020-06-18T08:51:44Z</time>
      </trkpt>
      <trkpt lat="49.75124" lon="0.51704">
        <ele>95.7</ele>
        <time>2020-06-18T08:51:45Z</time>
      </trkpt>
      <trkpt lat="49.75123" lon="0.51706">
        <ele>95.8</ele>
        <time>2020-06-18T08:51:46Z</time>
      </trkpt>
      <trkpt lat="49.75123" lon="0.5171">
        <ele>96.2</ele>
        <time>2020-06-18T08:51:47Z</time>
      </trkpt>
      <trkpt lat="49.75122" lon="0.51716">
        <ele>96.7</ele>
        <time>2020-06-18T08:51:48Z</time>
      </trkpt>
      <trkpt lat="49.75122" lon="0.51717">
        <ele>96.9</ele>
        <time>2020-06-18T08:51:49Z</time>
      </trkpt>
      <trkpt lat="49.75121" lon="0.51722">
        <ele>97.3</ele>
        <time>2020-06-18T08:51:50Z</time>
      </trkpt>
      <trkpt lat="49.75121" lon="0.51724">
        <ele>97.4</ele>
        <time>2020-06-18T08:51:51Z</time>
      </trkpt>
      <trkpt lat="49.7512" lon="0.5173">
        <ele>97.9</ele>
        <time>2020-06-18T08:51:52Z</time>
      </trkpt>
      <trkpt lat="49.7512" lon="0.51732">
        <ele>98.1</ele>
        <time>2020-06-18T08:51:53Z</time>
      </trkpt>
      <trkpt lat="49.7512" lon="0.51737">
        <ele>98.6</ele>
        <time>2020-06-18T08:51:54Z</time>
      </trkpt>
      <trkpt lat="49.75121" lon="0.51739">
        <ele>98.7</ele>
        <time>2020-06-18T08:51:55Z</time>
      </trkpt>
      <trkpt lat="49.75121" lon="0.51744">
        <ele>99.1</ele>
        <time>2020-06-18T08:51:56Z</time>
      </trkpt>
      <trkpt lat="49.7512" lon="0.51745">
        <ele>99.2</ele>
        <time>2020-06-18T08:51:57Z</time>
      </trkpt>
      <trkpt lat="49.75121" lon="0.51751">
        <ele>99.6</ele>
        <time>2020-06-18T08:51:58Z</time>
      </trkpt>
      <trkpt lat="49.75121" lon="0.51753">
        <ele>99.7</ele>
        <time>2020-06-18T08:51:59Z</time>
      </trkpt>
      <trkpt lat="49.75122" lon="0.51756">
        <ele>99.9</ele>
        <time>2020-06-18T08:52:00Z</time>
      </trkpt>
      <trkpt lat="49.75123" lon="0.51758">
        <ele>100</ele>
        <time>2020-06-18T08:52:01Z</time>
      </trkpt>
      <trkpt lat="49.75123" lon="0.51762">
        <ele>100.3</ele>
        <time>2020-06-18T08:52:02Z</time>
      </trkpt>
      <trkpt lat="49.75124" lon="0.51763">
        <ele>100.4</ele>
        <time>2020-06-18T08:52:03Z</time>
      </trkpt>
      <trkpt lat="49.75124" lon="0.51769">
        <ele>100.8</ele>
        <time>2020-06-18T08:52:04Z</time>
      </trkpt>
      <trkpt lat="49.75124" lon="0.5177">
        <ele>100.9</ele>
        <time>2020-06-18T08:52:05Z</time>
      </trkpt>
      <trkpt lat="49.75124" lon="0.51775">
        <ele>101.2</ele>
        <time>2020-06-18T08:52:06Z</time>
      </trkpt>
      <trkpt lat="49.75124" lon="0.51777">
        <ele>101.3</ele>
        <time>2020-06-18T08:52:07Z</time>
      </trkpt>
      <trkpt lat="49.75124" lon="0.51782">
        <ele>101.6</ele>
        <time>2020-06-18T08:52:08Z</time>
      </trkpt>
      <trkpt lat="49.75124" lon="0.51783">
        <ele>101.8</ele>
        <time>2020-06-18T08:52:09Z</time>
      </trkpt>
      <trkpt lat="49.75123" lon="0.51789">
        <ele>102.2</ele>
        <time>2020-06-18T08:52:10Z</time>
      </trkpt>
      <trkpt lat="49.75123" lon="0.51791">
        <ele>102.3</ele>
        <time>2020-06-18T08:52:11Z</time>
      </trkpt>
      <trkpt lat="49.75123" lon="0.51796">
        <ele>102.6</ele>
        <time>2020-06-18T08:52:12Z</time>
      </trkpt>
      <trkpt lat="49.75123" lon="0.51797">
        <ele>102.7</ele>
        <time>2020-06-18T08:52:13Z</time>
      </trkpt>
      <trkpt lat="49.75123" lon="0.51801">
        <ele>103.1</ele>
        <time>2020-06-18T08:52:14Z</time>
      </trkpt>
      <trkpt lat="49.75123" lon="0.51803">
        <ele>103.2</ele>
        <time>2020-06-18T08:52:15Z</time>
      </trkpt>
      <trkpt lat="49.75124" lon="0.51805">
        <ele>103.4</ele>
        <time>2020-06-18T08:52:16Z</time>
      </trkpt>
      <trkpt lat="49.75124" lon="0.51808">
        <ele>103.6</ele>
        <time>2020-06-18T08:52:17Z</time>
      </trkpt>
      <trkpt lat="49.75124" lon="0.51812">
        <ele>103.9</ele>
        <time>2020-06-18T08:52:18Z</time>
      </trkpt>
      <trkpt lat="49.75124" lon="0.51814">
        <ele>104.1</ele>
        <time>2020-06-18T08:52:19Z</time>
      </trkpt>
      <trkpt lat="49.75125" lon="0.51819">
        <ele>104.5</ele>
        <time>2020-06-18T08:52:20Z</time>
      </trkpt>
      <trkpt lat="49.75125" lon="0.5182">
        <ele>104.6</ele>
        <time>2020-06-18T08:52:21Z</time>
      </trkpt>
      <trkpt lat="49.75125" lon="0.51826">
        <ele>105.1</ele>
        <time>2020-06-18T08:52:22Z</time>
      </trkpt>
      <trkpt lat="49.75125" lon="0.51828">
        <ele>105.3</ele>
        <time>2020-06-18T08:52:23Z</time>
      </trkpt>
      <trkpt lat="49.75125" lon="0.51832">
        <ele>105.7</ele>
        <time>2020-06-18T08:52:24Z</time>
      </trkpt>
      <trkpt lat="49.75125" lon="0.51834">
        <ele>105.8</ele>
        <time>2020-06-18T08:52:25Z</time>
      </trkpt>
      <trkpt lat="49.75125" lon="0.51838">
        <ele>106.2</ele>
        <time>2020-06-18T08:52:26Z</time>
      </trkpt>
      <trkpt lat="49.75124" lon="0.51843">
        <ele>106.5</ele>
        <time>2020-06-18T08:52:27Z</time>
      </trkpt>
      <trkpt lat="49.75124" lon="0.51844">
        <ele>106.7</ele>
        <time>2020-06-18T08:52:28Z</time>
      </trkpt>
      <trkpt lat="49.75122" lon="0.5185">
        <ele>107.1</ele>
        <time>2020-06-18T08:52:29Z</time>
      </trkpt>
      <trkpt lat="49.75122" lon="0.51852">
        <ele>107.2</ele>
        <time>2020-06-18T08:52:30Z</time>
      </trkpt>
      <trkpt lat="49.75121" lon="0.51856">
        <ele>107.6</ele>
        <time>2020-06-18T08:52:31Z</time>
      </trkpt>
      <trkpt lat="49.75121" lon="0.51858">
        <ele>107.8</ele>
        <time>2020-06-18T08:52:32Z</time>
      </trkpt>
      <trkpt lat="49.7512" lon="0.51862">
        <ele>108.1</ele>
        <time>2020-06-18T08:52:33Z</time>
      </trkpt>
      <trkpt lat="49.7512" lon="0.51864">
        <ele>108.2</ele>
        <time>2020-06-18T08:52:34Z</time>
      </trkpt>
      <trkpt lat="49.75119" lon="0.51868">
        <ele>108.6</ele>
        <time>2020-06-18T08:52:35Z</time>
      </trkpt>
      <trkpt lat="49.75118" lon="0.5187">
        <ele>108.8</ele>
        <time>2020-06-18T08:52:36Z</time>
      </trkpt>
      <trkpt lat="49.75117" lon="0.51873">
        <ele>109</ele>
        <time>2020-06-18T08:52:37Z</time>
      </trkpt>
      <trkpt lat="49.75117" lon="0.51875">
        <ele>109.2</ele>
        <time>2020-06-18T08:52:38Z</time>
      </trkpt>
      <trkpt lat="49.75116" lon="0.51878">
        <ele>109.5</ele>
        <time>2020-06-18T08:52:39Z</time>
      </trkpt>
      <trkpt lat="49.75116" lon="0.5188">
        <ele>109.6</ele>
        <time>2020-06-18T08:52:40Z</time>
      </trkpt>
      <trkpt lat="49.75116" lon="0.51883">
        <ele>109.8</ele>
        <time>2020-06-18T08:52:41Z</time>
      </trkpt>
      <trkpt lat="49.75116" lon="0.51886">
        <ele>110.1</ele>
        <time>2020-06-18T08:52:42Z</time>
      </trkpt>
      <trkpt lat="49.75115" lon="0.51889">
        <ele>110.3</ele>
        <time>2020-06-18T08:52:43Z</time>
      </trkpt>
      <trkpt lat="49.75115" lon="0.51891">
        <ele>110.5</ele>
        <time>2020-06-18T08:52:44Z</time>
      </trkpt>
      <trkpt lat="49.75115" lon="0.51897">
        <ele>111</ele>
        <time>2020-06-18T08:52:45Z</time>
      </trkpt>
      <trkpt lat="49.75115" lon="0.51898">
        <ele>111.1</ele>
        <time>2020-06-18T08:52:46Z</time>
      </trkpt>
      <trkpt lat="49.75114" lon="0.51902">
        <ele>111.4</ele>
        <time>2020-06-18T08:52:47Z</time>
      </trkpt>
      <trkpt lat="49.75114" lon="0.51904">
        <ele>111.6</ele>
        <time>2020-06-18T08:52:48Z</time>
      </trkpt>
      <trkpt lat="49.75113" lon="0.51909">
        <ele>112</ele>
        <time>2020-06-18T08:52:49Z</time>
      </trkpt>
      <trkpt lat="49.75113" lon="0.5191">
        <ele>112.1</ele>
        <time>2020-06-18T08:52:50Z</time>
      </trkpt>
      <trkpt lat="49.75113" lon="0.51915">
        <ele>112.4</ele>
        <time>2020-06-18T08:52:51Z</time>
      </trkpt>
      <trkpt lat="49.75114" lon="0.51917">
        <ele>112.6</ele>
        <time>2020-06-18T08:52:52Z</time>
      </trkpt>
      <trkpt lat="49.75114" lon="0.51921">
        <ele>112.9</ele>
        <time>2020-06-18T08:52:53Z</time>
      </trkpt>
      <trkpt lat="49.75114" lon="0.51927">
        <ele>113.3</ele>
        <time>2020-06-18T08:52:54Z</time>
      </trkpt>
      <trkpt lat="49.75113" lon="0.51929">
        <ele>113.5</ele>
        <time>2020-06-18T08:52:55Z</time>
      </trkpt>
      <trkpt lat="49.75112" lon="0.51935">
        <ele>113.9</ele>
        <time>2020-06-18T08:52:56Z</time>
      </trkpt>
      <trkpt lat="49.75112" lon="0.51936">
        <ele>114</ele>
        <time>2020-06-18T08:52:57Z</time>
      </trkpt>
      <trkpt lat="49.75113" lon="0.51941">
        <ele>114.3</ele>
        <time>2020-06-18T08:52:58Z</time>
      </trkpt>
      <trkpt lat="49.75114" lon="0.51945">
        <ele>114.6</ele>
        <time>2020-06-18T08:52:59Z</time>
      </trkpt>
      <trkpt lat="49.75114" lon="0.51946">
        <ele>114.7</ele>
        <time>2020-06-18T08:53:00Z</time>
      </trkpt>
      <trkpt lat="49.75115" lon="0.51951">
        <ele>115</ele>
        <time>2020-06-18T08:53:01Z</time>
      </trkpt>
      <trkpt lat="49.75115" lon="0.51953">
        <ele>115.1</ele>
        <time>2020-06-18T08:53:02Z</time>
      </trkpt>
      <trkpt lat="49.75117" lon="0.51957">
        <ele>115.5</ele>
        <time>2020-06-18T08:53:03Z</time>
      </trkpt>
      <trkpt lat="49.75118" lon="0.51962">
        <ele>115.6</ele>
        <time>2020-06-18T08:53:04Z</time>
      </trkpt>
      <trkpt lat="49.75119" lon="0.51964">
        <ele>115.7</ele>
        <time>2020-06-18T08:53:05Z</time>
      </trkpt>
      <trkpt lat="49.75121" lon="0.51968">
        <ele>115.8</ele>
        <time>2020-06-18T08:53:06Z</time>
      </trkpt>
      <trkpt lat="49.75122" lon="0.51969">
        <ele>115.9</ele>
        <time>2020-06-18T08:53:07Z</time>
      </trkpt>
      <trkpt lat="49.75125" lon="0.51971">
        <ele>116</ele>
        <time>2020-06-18T08:53:08Z</time>
      </trkpt>
      <trkpt lat="49.75126" lon="0.51975">
        <ele>116</ele>
        <time>2020-06-18T08:53:09Z</time>
      </trkpt>
      <trkpt lat="49.75129" lon="0.51979">
        <ele>116.1</ele>
        <time>2020-06-18T08:53:10Z</time>
      </trkpt>
      <trkpt lat="49.7513" lon="0.51981">
        <ele>116.1</ele>
        <time>2020-06-18T08:53:11Z</time>
      </trkpt>
      <trkpt lat="49.7513" lon="0.51986">
        <ele>116.2</ele>
        <time>2020-06-18T08:53:12Z</time>
      </trkpt>
      <trkpt lat="49.75133" lon="0.5199">
        <ele>116.2</ele>
        <time>2020-06-18T08:53:13Z</time>
      </trkpt>
      <trkpt lat="49.75135" lon="0.51995">
        <ele>116.2</ele>
        <time>2020-06-18T08:53:14Z</time>
      </trkpt>
      <trkpt lat="49.75138" lon="0.51999">
        <ele>116.3</ele>
        <time>2020-06-18T08:53:15Z</time>
      </trkpt>
      <trkpt lat="49.7514" lon="0.52003">
        <ele>116.3</ele>
        <time>2020-06-18T08:53:16Z</time>
      </trkpt>
      <trkpt lat="49.75141" lon="0.52008">
        <ele>116.4</ele>
        <time>2020-06-18T08:53:17Z</time>
      </trkpt>
      <trkpt lat="49.75144" lon="0.52012">
        <ele>116.5</ele>
        <time>2020-06-18T08:53:18Z</time>
      </trkpt>
      <trkpt lat="49.75146" lon="0.52016">
        <ele>116.6</ele>
        <time>2020-06-18T08:53:19Z</time>
      </trkpt>
      <trkpt lat="49.75148" lon="0.52021">
        <ele>116.7</ele>
        <time>2020-06-18T08:53:20Z</time>
      </trkpt>
      <trkpt lat="49.7515" lon="0.52025">
        <ele>116.9</ele>
        <time>2020-06-18T08:53:21Z</time>
      </trkpt>
      <trkpt lat="49.75152" lon="0.52029">
        <ele>117.1</ele>
        <time>2020-06-18T08:53:22Z</time>
      </trkpt>
      <trkpt lat="49.75153" lon="0.52034">
        <ele>117.3</ele>
        <time>2020-06-18T08:53:23Z</time>
      </trkpt>
      <trkpt lat="49.75156" lon="0.52039">
        <ele>117.5</ele>
        <time>2020-06-18T08:53:24Z</time>
      </trkpt>
      <trkpt lat="49.75157" lon="0.52041">
        <ele>117.6</ele>
        <time>2020-06-18T08:53:25Z</time>
      </trkpt>
      <trkpt lat="49.75159" lon="0.52045">
        <ele>117.7</ele>
        <time>2020-06-18T08:53:26Z</time>
      </trkpt>
      <trkpt lat="49.75161" lon="0.52048">
        <ele>117.9</ele>
        <time>2020-06-18T08:53:27Z</time>
      </trkpt>
      <trkpt lat="49.75163" lon="0.52052">
        <ele>118.1</ele>
        <time>2020-06-18T08:53:28Z</time>
      </trkpt>
      <trkpt lat="49.75165" lon="0.52056">
        <ele>118.2</ele>
        <time>2020-06-18T08:53:29Z</time>
      </trkpt>
      <trkpt lat="49.75167" lon="0.52059">
        <ele>118.4</ele>
        <time>2020-06-18T08:53:30Z</time>
      </trkpt>
      <trkpt lat="49.75169" lon="0.52064">
        <ele>118.6</ele>
        <time>2020-06-18T08:53:31Z</time>
      </trkpt>
      <trkpt lat="49.75171" lon="0.52067">
        <ele>118.7</ele>
        <time>2020-06-18T08:53:32Z</time>
      </trkpt>
      <trkpt lat="49.75174" lon="0.52071">
        <ele>118.9</ele>
        <time>2020-06-18T08:53:33Z</time>
      </trkpt>
      <trkpt lat="49.75176" lon="0.52075">
        <ele>119</ele>
        <time>2020-06-18T08:53:34Z</time>
      </trkpt>
      <trkpt lat="49.75178" lon="0.52078">
        <ele>119.2</ele>
        <time>2020-06-18T08:53:35Z</time>
      </trkpt>
      <trkpt lat="49.7518" lon="0.52081">
        <ele>119.3</ele>
        <time>2020-06-18T08:53:36Z</time>
      </trkpt>
      <trkpt lat="49.75183" lon="0.52084">
        <ele>119.5</ele>
        <time>2020-06-18T08:53:37Z</time>
      </trkpt>
      <trkpt lat="49.75185" lon="0.52087">
        <ele>119.6</ele>
        <time>2020-06-18T08:53:38Z</time>
      </trkpt>
      <trkpt lat="49.75187" lon="0.52092">
        <ele>119.7</ele>
        <time>2020-06-18T08:53:39Z</time>
      </trkpt>
      <trkpt lat="49.75189" lon="0.52095">
        <ele>119.8</ele>
        <time>2020-06-18T08:53:40Z</time>
      </trkpt>
      <trkpt lat="49.75192" lon="0.52099">
        <ele>119.9</ele>
        <time>2020-06-18T08:53:41Z</time>
      </trkpt>
      <trkpt lat="49.75193" lon="0.52103">
        <ele>120</ele>
        <time>2020-06-18T08:53:42Z</time>
      </trkpt>
      <trkpt lat="49.75196" lon="0.52108">
        <ele>120</ele>
        <time>2020-06-18T08:53:43Z</time>
      </trkpt>
      <trkpt lat="49.75199" lon="0.52112">
        <ele>120.1</ele>
        <time>2020-06-18T08:53:44Z</time>
      </trkpt>
      <trkpt lat="49.75201" lon="0.52116">
        <ele>120.2</ele>
        <time>2020-06-18T08:53:45Z</time>
      </trkpt>
      <trkpt lat="49.75203" lon="0.5212">
        <ele>120.2</ele>
        <time>2020-06-18T08:53:46Z</time>
      </trkpt>
      <trkpt lat="49.75206" lon="0.52124">
        <ele>120.3</ele>
        <time>2020-06-18T08:53:47Z</time>
      </trkpt>
      <trkpt lat="49.75208" lon="0.52129">
        <ele>120.4</ele>
        <time>2020-06-18T08:53:48Z</time>
      </trkpt>
      <trkpt lat="49.75212" lon="0.52133">
        <ele>120.4</ele>
        <time>2020-06-18T08:53:49Z</time>
      </trkpt>
      <trkpt lat="49.75213" lon="0.52137">
        <ele>120.5</ele>
        <time>2020-06-18T08:53:50Z</time>
      </trkpt>
      <trkpt lat="49.75215" lon="0.52142">
        <ele>120.6</ele>
        <time>2020-06-18T08:53:51Z</time>
      </trkpt>
      <trkpt lat="49.75217" lon="0.52147">
        <ele>120.6</ele>
        <time>2020-06-18T08:53:52Z</time>
      </trkpt>
      <trkpt lat="49.75219" lon="0.52151">
        <ele>120.7</ele>
        <time>2020-06-18T08:53:53Z</time>
      </trkpt>
      <trkpt lat="49.75222" lon="0.52158">
        <ele>120.8</ele>
        <time>2020-06-18T08:53:54Z</time>
      </trkpt>
      <trkpt lat="49.75223" lon="0.52164">
        <ele>120.8</ele>
        <time>2020-06-18T08:53:55Z</time>
      </trkpt>
      <trkpt lat="49.75225" lon="0.5217">
        <ele>120.8</ele>
        <time>2020-06-18T08:53:56Z</time>
      </trkpt>
      <trkpt lat="49.75227" lon="0.52176">
        <ele>120.9</ele>
        <time>2020-06-18T08:53:57Z</time>
      </trkpt>
      <trkpt lat="49.75229" lon="0.52181">
        <ele>120.9</ele>
        <time>2020-06-18T08:53:58Z</time>
      </trkpt>
      <trkpt lat="49.75231" lon="0.52188">
        <ele>121</ele>
        <time>2020-06-18T08:53:59Z</time>
      </trkpt>
      <trkpt lat="49.75233" lon="0.52193">
        <ele>121.1</ele>
        <time>2020-06-18T08:54:00Z</time>
      </trkpt>
      <trkpt lat="49.75234" lon="0.52199">
        <ele>121.3</ele>
        <time>2020-06-18T08:54:01Z</time>
      </trkpt>
      <trkpt lat="49.75236" lon="0.52204">
        <ele>121.4</ele>
        <time>2020-06-18T08:54:02Z</time>
      </trkpt>
      <trkpt lat="49.75238" lon="0.5221">
        <ele>121.6</ele>
        <time>2020-06-18T08:54:03Z</time>
      </trkpt>
      <trkpt lat="49.7524" lon="0.52215">
        <ele>121.7</ele>
        <time>2020-06-18T08:54:04Z</time>
      </trkpt>
      <trkpt lat="49.75241" lon="0.52221">
        <ele>121.8</ele>
        <time>2020-06-18T08:54:05Z</time>
      </trkpt>
      <trkpt lat="49.75242" lon="0.52227">
        <ele>121.9</ele>
        <time>2020-06-18T08:54:06Z</time>
      </trkpt>
      <trkpt lat="49.75244" lon="0.52233">
        <ele>122</ele>
        <time>2020-06-18T08:54:07Z</time>
      </trkpt>
      <trkpt lat="49.75245" lon="0.52239">
        <ele>122</ele>
        <time>2020-06-18T08:54:08Z</time>
      </trkpt>
      <trkpt lat="49.75246" lon="0.52245">
        <ele>122</ele>
        <time>2020-06-18T08:54:09Z</time>
      </trkpt>
      <trkpt lat="49.75248" lon="0.5225">
        <ele>122.1</ele>
        <time>2020-06-18T08:54:10Z</time>
      </trkpt>
      <trkpt lat="49.75249" lon="0.52255">
        <ele>122.1</ele>
        <time>2020-06-18T08:54:11Z</time>
      </trkpt>
      <trkpt lat="49.75251" lon="0.5226">
        <ele>122.1</ele>
        <time>2020-06-18T08:54:12Z</time>
      </trkpt>
      <trkpt lat="49.75252" lon="0.52266">
        <ele>122.1</ele>
        <time>2020-06-18T08:54:13Z</time>
      </trkpt>
      <trkpt lat="49.75253" lon="0.52272">
        <ele>122.1</ele>
        <time>2020-06-18T08:54:14Z</time>
      </trkpt>
      <trkpt lat="49.75254" lon="0.52278">
        <ele>122.1</ele>
        <time>2020-06-18T08:54:15Z</time>
      </trkpt>
      <trkpt lat="49.75255" lon="0.52283">
        <ele>122.1</ele>
        <time>2020-06-18T08:54:16Z</time>
      </trkpt>
      <trkpt lat="49.75257" lon="0.5229">
        <ele>122.1</ele>
        <time>2020-06-18T08:54:17Z</time>
      </trkpt>
      <trkpt lat="49.75258" lon="0.52296">
        <ele>122.1</ele>
        <time>2020-06-18T08:54:18Z</time>
      </trkpt>
      <trkpt lat="49.75261" lon="0.523">
        <ele>122</ele>
        <time>2020-06-18T08:54:19Z</time>
      </trkpt>
      <trkpt lat="49.75264" lon="0.52305">
        <ele>122</ele>
        <time>2020-06-18T08:54:20Z</time>
      </trkpt>
      <trkpt lat="49.75266" lon="0.5231">
        <ele>122</ele>
        <time>2020-06-18T08:54:21Z</time>
      </trkpt>
      <trkpt lat="49.75271" lon="0.52314">
        <ele>122</ele>
        <time>2020-06-18T08:54:22Z</time>
      </trkpt>
      <trkpt lat="49.75276" lon="0.52319">
        <ele>121.9</ele>
        <time>2020-06-18T08:54:23Z</time>
      </trkpt>
      <trkpt lat="49.75282" lon="0.52323">
        <ele>121.8</ele>
        <time>2020-06-18T08:54:24Z</time>
      </trkpt>
      <trkpt lat="49.75286" lon="0.52327">
        <ele>121.7</ele>
        <time>2020-06-18T08:54:25Z</time>
      </trkpt>
      <trkpt lat="49.75292" lon="0.52331">
        <ele>121.7</ele>
        <time>2020-06-18T08:54:26Z</time>
      </trkpt>
      <trkpt lat="49.75297" lon="0.52336">
        <ele>121.6</ele>
        <time>2020-06-18T08:54:27Z</time>
      </trkpt>
      <trkpt lat="49.75302" lon="0.52342">
        <ele>121.5</ele>
        <time>2020-06-18T08:54:28Z</time>
      </trkpt>
      <trkpt lat="49.75307" lon="0.52347">
        <ele>121.4</ele>
        <time>2020-06-18T08:54:29Z</time>
      </trkpt>
      <trkpt lat="49.75312" lon="0.52351">
        <ele>121.3</ele>
        <time>2020-06-18T08:54:30Z</time>
      </trkpt>
      <trkpt lat="49.75315" lon="0.52354">
        <ele>121.2</ele>
        <time>2020-06-18T08:54:31Z</time>
      </trkpt>
      <trkpt lat="49.75318" lon="0.52356">
        <ele>121.1</ele>
        <time>2020-06-18T08:54:32Z</time>
      </trkpt>
      <trkpt lat="49.75319" lon="0.52357">
        <ele>121.1</ele>
        <time>2020-06-18T08:54:33Z</time>
      </trkpt>
      <trkpt lat="49.75322" lon="0.52359">
        <ele>119.6</ele>
        <time>2020-06-18T08:54:34Z</time>
      </trkpt>
      <trkpt lat="49.75326" lon="0.52361">
        <ele>119.5</ele>
        <time>2020-06-18T08:54:35Z</time>
      </trkpt>
      <trkpt lat="49.75329" lon="0.52363">
        <ele>119.4</ele>
        <time>2020-06-18T08:54:36Z</time>
      </trkpt>
      <trkpt lat="49.75333" lon="0.52366">
        <ele>119.3</ele>
        <time>2020-06-18T08:54:37Z</time>
      </trkpt>
      <trkpt lat="49.75338" lon="0.5237">
        <ele>119.1</ele>
        <time>2020-06-18T08:54:38Z</time>
      </trkpt>
      <trkpt lat="49.75343" lon="0.52374">
        <ele>119</ele>
        <time>2020-06-18T08:54:39Z</time>
      </trkpt>
      <trkpt lat="49.75347" lon="0.52379">
        <ele>118.8</ele>
        <time>2020-06-18T08:54:40Z</time>
      </trkpt>
      <trkpt lat="49.75352" lon="0.52385">
        <ele>118.7</ele>
        <time>2020-06-18T08:54:41Z</time>
      </trkpt>
      <trkpt lat="49.75357" lon="0.5239">
        <ele>118.5</ele>
        <time>2020-06-18T08:54:42Z</time>
      </trkpt>
      <trkpt lat="49.75362" lon="0.52395">
        <ele>118.4</ele>
        <time>2020-06-18T08:54:43Z</time>
      </trkpt>
      <trkpt lat="49.75365" lon="0.52402">
        <ele>118.2</ele>
        <time>2020-06-18T08:54:44Z</time>
      </trkpt>
      <trkpt lat="49.7537" lon="0.52407">
        <ele>118.1</ele>
        <time>2020-06-18T08:54:45Z</time>
      </trkpt>
      <trkpt lat="49.75374" lon="0.52413">
        <ele>118.1</ele>
        <time>2020-06-18T08:54:46Z</time>
      </trkpt>
      <trkpt lat="49.75378" lon="0.5242">
        <ele>118</ele>
        <time>2020-06-18T08:54:47Z</time>
      </trkpt>
      <trkpt lat="49.75382" lon="0.52427">
        <ele>118</ele>
        <time>2020-06-18T08:54:48Z</time>
      </trkpt>
      <trkpt lat="49.75386" lon="0.52433">
        <ele>118.1</ele>
        <time>2020-06-18T08:54:49Z</time>
      </trkpt>
      <trkpt lat="49.7539" lon="0.5244">
        <ele>118.1</ele>
        <time>2020-06-18T08:54:50Z</time>
      </trkpt>
      <trkpt lat="49.75393" lon="0.52447">
        <ele>118.1</ele>
        <time>2020-06-18T08:54:51Z</time>
      </trkpt>
      <trkpt lat="49.75397" lon="0.52455">
        <ele>118.2</ele>
        <time>2020-06-18T08:54:52Z</time>
      </trkpt>
      <trkpt lat="49.75401" lon="0.52462">
        <ele>118.2</ele>
        <time>2020-06-18T08:54:53Z</time>
      </trkpt>
      <trkpt lat="49.75405" lon="0.52469">
        <ele>118.2</ele>
        <time>2020-06-18T08:54:54Z</time>
      </trkpt>
      <trkpt lat="49.75408" lon="0.52476">
        <ele>118.3</ele>
        <time>2020-06-18T08:54:55Z</time>
      </trkpt>
      <trkpt lat="49.75412" lon="0.52483">
        <ele>118.3</ele>
        <time>2020-06-18T08:54:56Z</time>
      </trkpt>
      <trkpt lat="49.75415" lon="0.52489">
        <ele>118.4</ele>
        <time>2020-06-18T08:54:57Z</time>
      </trkpt>
      <trkpt lat="49.75418" lon="0.52495">
        <ele>118.4</ele>
        <time>2020-06-18T08:54:58Z</time>
      </trkpt>
      <trkpt lat="49.7542" lon="0.52501">
        <ele>118.4</ele>
        <time>2020-06-18T08:54:59Z</time>
      </trkpt>
      <trkpt lat="49.75423" lon="0.52507">
        <ele>118.5</ele>
        <time>2020-06-18T08:55:00Z</time>
      </trkpt>
      <trkpt lat="49.75426" lon="0.52514">
        <ele>118.5</ele>
        <time>2020-06-18T08:55:01Z</time>
      </trkpt>
      <trkpt lat="49.75428" lon="0.5252">
        <ele>118.6</ele>
        <time>2020-06-18T08:55:02Z</time>
      </trkpt>
      <trkpt lat="49.75432" lon="0.52526">
        <ele>118.6</ele>
        <time>2020-06-18T08:55:03Z</time>
      </trkpt>
      <trkpt lat="49.75434" lon="0.52533">
        <ele>118.6</ele>
        <time>2020-06-18T08:55:04Z</time>
      </trkpt>
      <trkpt lat="49.75437" lon="0.52539">
        <ele>118.6</ele>
        <time>2020-06-18T08:55:05Z</time>
      </trkpt>
      <trkpt lat="49.7544" lon="0.52545">
        <ele>118.6</ele>
        <time>2020-06-18T08:55:06Z</time>
      </trkpt>
      <trkpt lat="49.75442" lon="0.52552">
        <ele>118.6</ele>
        <time>2020-06-18T08:55:07Z</time>
      </trkpt>
      <trkpt lat="49.75445" lon="0.5256">
        <ele>118.6</ele>
        <time>2020-06-18T08:55:08Z</time>
      </trkpt>
      <trkpt lat="49.75447" lon="0.52567">
        <ele>118.6</ele>
        <time>2020-06-18T08:55:09Z</time>
      </trkpt>
      <trkpt lat="49.7545" lon="0.52573">
        <ele>118.6</ele>
        <time>2020-06-18T08:55:10Z</time>
      </trkpt>
      <trkpt lat="49.75453" lon="0.52581">
        <ele>118.7</ele>
        <time>2020-06-18T08:55:11Z</time>
      </trkpt>
      <trkpt lat="49.75454" lon="0.52589">
        <ele>118.8</ele>
        <time>2020-06-18T08:55:12Z</time>
      </trkpt>
      <trkpt lat="49.75455" lon="0.52596">
        <ele>118.9</ele>
        <time>2020-06-18T08:55:13Z</time>
      </trkpt>
      <trkpt lat="49.75458" lon="0.52603">
        <ele>119</ele>
        <time>2020-06-18T08:55:14Z</time>
      </trkpt>
      <trkpt lat="49.7546" lon="0.5261">
        <ele>119</ele>
        <time>2020-06-18T08:55:15Z</time>
      </trkpt>
      <trkpt lat="49.75462" lon="0.52617">
        <ele>119.1</ele>
        <time>2020-06-18T08:55:16Z</time>
      </trkpt>
      <trkpt lat="49.75464" lon="0.52624">
        <ele>119.1</ele>
        <time>2020-06-18T08:55:17Z</time>
      </trkpt>
      <trkpt lat="49.75466" lon="0.52632">
        <ele>119.2</ele>
        <time>2020-06-18T08:55:18Z</time>
      </trkpt>
      <trkpt lat="49.75468" lon="0.5264">
        <ele>119.2</ele>
        <time>2020-06-18T08:55:19Z</time>
      </trkpt>
      <trkpt lat="49.7547" lon="0.52647">
        <ele>119.3</ele>
        <time>2020-06-18T08:55:20Z</time>
      </trkpt>
      <trkpt lat="49.75472" lon="0.52654">
        <ele>119.4</ele>
        <time>2020-06-18T08:55:21Z</time>
      </trkpt>
      <trkpt lat="49.75474" lon="0.52663">
        <ele>119.4</ele>
        <time>2020-06-18T08:55:22Z</time>
      </trkpt>
      <trkpt lat="49.75475" lon="0.5267">
        <ele>119.4</ele>
        <time>2020-06-18T08:55:23Z</time>
      </trkpt>
      <trkpt lat="49.75477" lon="0.52677">
        <ele>119.5</ele>
        <time>2020-06-18T08:55:24Z</time>
      </trkpt>
      <trkpt lat="49.7548" lon="0.52684">
        <ele>119.5</ele>
        <time>2020-06-18T08:55:25Z</time>
      </trkpt>
      <trkpt lat="49.75482" lon="0.52691">
        <ele>119.5</ele>
        <time>2020-06-18T08:55:26Z</time>
      </trkpt>
      <trkpt lat="49.75486" lon="0.52697">
        <ele>119.5</ele>
        <time>2020-06-18T08:55:27Z</time>
      </trkpt>
      <trkpt lat="49.75488" lon="0.52704">
        <ele>119.6</ele>
        <time>2020-06-18T08:55:28Z</time>
      </trkpt>
      <trkpt lat="49.75491" lon="0.5271">
        <ele>119.6</ele>
        <time>2020-06-18T08:55:29Z</time>
      </trkpt>
      <trkpt lat="49.75494" lon="0.52716">
        <ele>119.7</ele>
        <time>2020-06-18T08:55:30Z</time>
      </trkpt>
      <trkpt lat="49.75497" lon="0.52722">
        <ele>119.7</ele>
        <time>2020-06-18T08:55:31Z</time>
      </trkpt>
      <trkpt lat="49.755" lon="0.5273">
        <ele>119.8</ele>
        <time>2020-06-18T08:55:32Z</time>
      </trkpt>
      <trkpt lat="49.75502" lon="0.52736">
        <ele>119.8</ele>
        <time>2020-06-18T08:55:33Z</time>
      </trkpt>
      <trkpt lat="49.75504" lon="0.52744">
        <ele>119.9</ele>
        <time>2020-06-18T08:55:34Z</time>
      </trkpt>
      <trkpt lat="49.75505" lon="0.52751">
        <ele>119.9</ele>
        <time>2020-06-18T08:55:35Z</time>
      </trkpt>
      <trkpt lat="49.75507" lon="0.52758">
        <ele>120</ele>
        <time>2020-06-18T08:55:36Z</time>
      </trkpt>
      <trkpt lat="49.75508" lon="0.52767">
        <ele>120</ele>
        <time>2020-06-18T08:55:37Z</time>
      </trkpt>
      <trkpt lat="49.75508" lon="0.52776">
        <ele>120</ele>
        <time>2020-06-18T08:55:38Z</time>
      </trkpt>
      <trkpt lat="49.75509" lon="0.52784">
        <ele>120</ele>
        <time>2020-06-18T08:55:39Z</time>
      </trkpt>
      <trkpt lat="49.7551" lon="0.52792">
        <ele>120.1</ele>
        <time>2020-06-18T08:55:40Z</time>
      </trkpt>
      <trkpt lat="49.7551" lon="0.52799">
        <ele>120.1</ele>
        <time>2020-06-18T08:55:41Z</time>
      </trkpt>
      <trkpt lat="49.75511" lon="0.52806">
        <ele>120.1</ele>
        <time>2020-06-18T08:55:42Z</time>
      </trkpt>
      <trkpt lat="49.75512" lon="0.52813">
        <ele>120.2</ele>
        <time>2020-06-18T08:55:43Z</time>
      </trkpt>
      <trkpt lat="49.75513" lon="0.52818">
        <ele>120.2</ele>
        <time>2020-06-18T08:55:44Z</time>
      </trkpt>
      <trkpt lat="49.75513" lon="0.52824">
        <ele>120.2</ele>
        <time>2020-06-18T08:55:45Z</time>
      </trkpt>
      <trkpt lat="49.75514" lon="0.5283">
        <ele>120.2</ele>
        <time>2020-06-18T08:55:46Z</time>
      </trkpt>
      <trkpt lat="49.75513" lon="0.52835">
        <ele>120.3</ele>
        <time>2020-06-18T08:55:47Z</time>
      </trkpt>
      <trkpt lat="49.75511" lon="0.5284">
        <ele>120.3</ele>
        <time>2020-06-18T08:55:48Z</time>
      </trkpt>
      <trkpt lat="49.75511" lon="0.52843">
        <ele>120.3</ele>
        <time>2020-06-18T08:55:49Z</time>
      </trkpt>
      <trkpt lat="49.7551" lon="0.52845">
        <ele>120.3</ele>
        <time>2020-06-18T08:55:50Z</time>
      </trkpt>
      <trkpt lat="49.7551" lon="0.52847">
        <ele>120.3</ele>
        <time>2020-06-18T08:55:51Z</time>
      </trkpt>
      <trkpt lat="49.75511" lon="0.52846">
        <ele>120.3</ele>
        <time>2020-06-18T08:55:52Z</time>
      </trkpt>
      <trkpt lat="49.75511" lon="0.52845">
        <ele>120.3</ele>
        <time>2020-06-18T08:55:53Z</time>
      </trkpt>
      <trkpt lat="49.7551" lon="0.52843">
        <ele>120.3</ele>
        <time>2020-06-18T08:55:54Z</time>
      </trkpt>
      <trkpt lat="49.75509" lon="0.52841">
        <ele>120.4</ele>
        <time>2020-06-18T08:55:55Z</time>
      </trkpt>
      <trkpt lat="49.75509" lon="0.5284">
        <ele>120.4</ele>
        <time>2020-06-18T08:55:56Z</time>
      </trkpt>
      <trkpt lat="49.75509" lon="0.52839">
        <ele>120.4</ele>
        <time>2020-06-18T08:55:57Z</time>
      </trkpt>
      <trkpt lat="49.75509" lon="0.52839">
        <ele>120.4</ele>
        <time>2020-06-18T08:55:58Z</time>
      </trkpt>
      <trkpt lat="49.75509" lon="0.52838">
        <ele>120.4</ele>
        <time>2020-06-18T08:55:59Z</time>
      </trkpt>
      <trkpt lat="49.75509" lon="0.52838">
        <ele>120.4</ele>
        <time>2020-06-18T08:56:00Z</time>
      </trkpt>
      <trkpt lat="49.75509" lon="0.52837">
        <ele>120.4</ele>
        <time>2020-06-18T08:56:01Z</time>
      </trkpt>
      <trkpt lat="49.75509" lon="0.52837">
        <ele>120.4</ele>
        <time>2020-06-18T08:56:02Z</time>
      </trkpt>
      <trkpt lat="49.75509" lon="0.52836">
        <ele>120.4</ele>
        <time>2020-06-18T08:56:03Z</time>
      </trkpt>
      <trkpt lat="49.75509" lon="0.52836">
        <ele>120.4</ele>
        <time>2020-06-18T08:56:04Z</time>
      </trkpt>
      <trkpt lat="49.75509" lon="0.52835">
        <ele>120.4</ele>
        <time>2020-06-18T08:56:05Z</time>
      </trkpt>
      <trkpt lat="49.75508" lon="0.52831">
        <ele>120.4</ele>
        <time>2020-06-18T08:56:06Z</time>
      </trkpt>
      <trkpt lat="49.75508" lon="0.52829">
        <ele>120.4</ele>
        <time>2020-06-18T08:56:07Z</time>
      </trkpt>
      <trkpt lat="49.75509" lon="0.52825">
        <ele>120.4</ele>
        <time>2020-06-18T08:56:08Z</time>
      </trkpt>
      <trkpt lat="49.75511" lon="0.5282">
        <ele>120.5</ele>
        <time>2020-06-18T08:56:09Z</time>
      </trkpt>
      <trkpt lat="49.75515" lon="0.52819">
        <ele>120.5</ele>
        <time>2020-06-18T08:56:10Z</time>
      </trkpt>
      <trkpt lat="49.75518" lon="0.5282">
        <ele>120.4</ele>
        <time>2020-06-18T08:56:11Z</time>
      </trkpt>
      <trkpt lat="49.75522" lon="0.52822">
        <ele>120.4</ele>
        <time>2020-06-18T08:56:12Z</time>
      </trkpt>
      <trkpt lat="49.75526" lon="0.52825">
        <ele>120.4</ele>
        <time>2020-06-18T08:56:13Z</time>
      </trkpt>
      <trkpt lat="49.7553" lon="0.52828">
        <ele>120.4</ele>
        <time>2020-06-18T08:56:14Z</time>
      </trkpt>
      <trkpt lat="49.75533" lon="0.52832">
        <ele>120.4</ele>
        <time>2020-06-18T08:56:15Z</time>
      </trkpt>
      <trkpt lat="49.75537" lon="0.52834">
        <ele>120.4</ele>
        <time>2020-06-18T08:56:16Z</time>
      </trkpt>
      <trkpt lat="49.7554" lon="0.52836">
        <ele>120.4</ele>
        <time>2020-06-18T08:56:17Z</time>
      </trkpt>
      <trkpt lat="49.75544" lon="0.52836">
        <ele>120.4</ele>
        <time>2020-06-18T08:56:18Z</time>
      </trkpt>
      <trkpt lat="49.75548" lon="0.52838">
        <ele>120.4</ele>
        <time>2020-06-18T08:56:19Z</time>
      </trkpt>
      <trkpt lat="49.75552" lon="0.52841">
        <ele>120.4</ele>
        <time>2020-06-18T08:56:20Z</time>
      </trkpt>
      <trkpt lat="49.75557" lon="0.52842">
        <ele>120.4</ele>
        <time>2020-06-18T08:56:21Z</time>
      </trkpt>
      <trkpt lat="49.75561" lon="0.52845">
        <ele>120.4</ele>
        <time>2020-06-18T08:56:22Z</time>
      </trkpt>
      <trkpt lat="49.75566" lon="0.52847">
        <ele>120.4</ele>
        <time>2020-06-18T08:56:23Z</time>
      </trkpt>
      <trkpt lat="49.7557" lon="0.52851">
        <ele>120.4</ele>
        <time>2020-06-18T08:56:24Z</time>
      </trkpt>
      <trkpt lat="49.75575" lon="0.52855">
        <ele>120.4</ele>
        <time>2020-06-18T08:56:25Z</time>
      </trkpt>
      <trkpt lat="49.7558" lon="0.52858">
        <ele>120.5</ele>
        <time>2020-06-18T08:56:26Z</time>
      </trkpt>
      <trkpt lat="49.75584" lon="0.52863">
        <ele>120.5</ele>
        <time>2020-06-18T08:56:27Z</time>
      </trkpt>
      <trkpt lat="49.75588" lon="0.52867">
        <ele>120.5</ele>
        <time>2020-06-18T08:56:28Z</time>
      </trkpt>
      <trkpt lat="49.75593" lon="0.52872">
        <ele>120.5</ele>
        <time>2020-06-18T08:56:29Z</time>
      </trkpt>
      <trkpt lat="49.75596" lon="0.52878">
        <ele>120.5</ele>
        <time>2020-06-18T08:56:30Z</time>
      </trkpt>
      <trkpt lat="49.756" lon="0.52886">
        <ele>120.6</ele>
        <time>2020-06-18T08:56:31Z</time>
      </trkpt>
      <trkpt lat="49.75604" lon="0.52892">
        <ele>120.6</ele>
        <time>2020-06-18T08:56:32Z</time>
      </trkpt>
      <trkpt lat="49.75609" lon="0.52897">
        <ele>120.6</ele>
        <time>2020-06-18T08:56:33Z</time>
      </trkpt>
      <trkpt lat="49.75614" lon="0.52902">
        <ele>120.6</ele>
        <time>2020-06-18T08:56:34Z</time>
      </trkpt>
      <trkpt lat="49.75617" lon="0.52906">
        <ele>120.6</ele>
        <time>2020-06-18T08:56:35Z</time>
      </trkpt>
      <trkpt lat="49.75622" lon="0.52912">
        <ele>120.7</ele>
        <time>2020-06-18T08:56:36Z</time>
      </trkpt>
      <trkpt lat="49.75626" lon="0.52919">
        <ele>120.7</ele>
        <time>2020-06-18T08:56:37Z</time>
      </trkpt>
      <trkpt lat="49.7563" lon="0.52925">
        <ele>120.8</ele>
        <time>2020-06-18T08:56:38Z</time>
      </trkpt>
      <trkpt lat="49.75634" lon="0.52934">
        <ele>120.8</ele>
        <time>2020-06-18T08:56:39Z</time>
      </trkpt>
      <trkpt lat="49.75638" lon="0.5294">
        <ele>120.9</ele>
        <time>2020-06-18T08:56:40Z</time>
      </trkpt>
      <trkpt lat="49.75642" lon="0.52947">
        <ele>120.9</ele>
        <time>2020-06-18T08:56:41Z</time>
      </trkpt>
      <trkpt lat="49.75647" lon="0.52953">
        <ele>120.9</ele>
        <time>2020-06-18T08:56:42Z</time>
      </trkpt>
      <trkpt lat="49.75651" lon="0.52959">
        <ele>121</ele>
        <time>2020-06-18T08:56:43Z</time>
      </trkpt>
      <trkpt lat="49.75654" lon="0.52964">
        <ele>121</ele>
        <time>2020-06-18T08:56:44Z</time>
      </trkpt>
      <trkpt lat="49.75659" lon="0.5297">
        <ele>121</ele>
        <time>2020-06-18T08:56:45Z</time>
      </trkpt>
      <trkpt lat="49.75664" lon="0.52975">
        <ele>121</ele>
        <time>2020-06-18T08:56:46Z</time>
      </trkpt>
      <trkpt lat="49.75669" lon="0.52981">
        <ele>121</ele>
        <time>2020-06-18T08:56:47Z</time>
      </trkpt>
      <trkpt lat="49.75673" lon="0.52987">
        <ele>121</ele>
        <time>2020-06-18T08:56:48Z</time>
      </trkpt>
      <trkpt lat="49.75678" lon="0.52994">
        <ele>121</ele>
        <time>2020-06-18T08:56:49Z</time>
      </trkpt>
      <trkpt lat="49.75682" lon="0.53">
        <ele>121</ele>
        <time>2020-06-18T08:56:50Z</time>
      </trkpt>
      <trkpt lat="49.75687" lon="0.53007">
        <ele>121</ele>
        <time>2020-06-18T08:56:51Z</time>
      </trkpt>
      <trkpt lat="49.75691" lon="0.53014">
        <ele>121</ele>
        <time>2020-06-18T08:56:52Z</time>
      </trkpt>
      <trkpt lat="49.75696" lon="0.53019">
        <ele>121</ele>
        <time>2020-06-18T08:56:53Z</time>
      </trkpt>
      <trkpt lat="49.75702" lon="0.53026">
        <ele>121.1</ele>
        <time>2020-06-18T08:56:54Z</time>
      </trkpt>
      <trkpt lat="49.75706" lon="0.53032">
        <ele>121.1</ele>
        <time>2020-06-18T08:56:55Z</time>
      </trkpt>
      <trkpt lat="49.75709" lon="0.53038">
        <ele>121.1</ele>
        <time>2020-06-18T08:56:56Z</time>
      </trkpt>
      <trkpt lat="49.75714" lon="0.53046">
        <ele>121.1</ele>
        <time>2020-06-18T08:56:57Z</time>
      </trkpt>
      <trkpt lat="49.7572" lon="0.53052">
        <ele>121.1</ele>
        <time>2020-06-18T08:56:58Z</time>
      </trkpt>
      <trkpt lat="49.75725" lon="0.53059">
        <ele>121.1</ele>
        <time>2020-06-18T08:56:59Z</time>
      </trkpt>
      <trkpt lat="49.75731" lon="0.53067">
        <ele>121.2</ele>
        <time>2020-06-18T08:57:00Z</time>
      </trkpt>
      <trkpt lat="49.75735" lon="0.53073">
        <ele>121.3</ele>
        <time>2020-06-18T08:57:01Z</time>
      </trkpt>
      <trkpt lat="49.7574" lon="0.5308">
        <ele>121.3</ele>
        <time>2020-06-18T08:57:02Z</time>
      </trkpt>
      <trkpt lat="49.75744" lon="0.53086">
        <ele>121.4</ele>
        <time>2020-06-18T08:57:03Z</time>
      </trkpt>
      <trkpt lat="49.75749" lon="0.53092">
        <ele>121.5</ele>
        <time>2020-06-18T08:57:04Z</time>
      </trkpt>
      <trkpt lat="49.75753" lon="0.53098">
        <ele>121.5</ele>
        <time>2020-06-18T08:57:05Z</time>
      </trkpt>
      <trkpt lat="49.75757" lon="0.53105">
        <ele>121.6</ele>
        <time>2020-06-18T08:57:06Z</time>
      </trkpt>
      <trkpt lat="49.75762" lon="0.53112">
        <ele>121.6</ele>
        <time>2020-06-18T08:57:07Z</time>
      </trkpt>
      <trkpt lat="49.75767" lon="0.53118">
        <ele>121.6</ele>
        <time>2020-06-18T08:57:08Z</time>
      </trkpt>
      <trkpt lat="49.75771" lon="0.53125">
        <ele>121.6</ele>
        <time>2020-06-18T08:57:09Z</time>
      </trkpt>
      <trkpt lat="49.75775" lon="0.53131">
        <ele>121.7</ele>
        <time>2020-06-18T08:57:10Z</time>
      </trkpt>
      <trkpt lat="49.7578" lon="0.53139">
        <ele>121.7</ele>
        <time>2020-06-18T08:57:11Z</time>
      </trkpt>
      <trkpt lat="49.75785" lon="0.53146">
        <ele>121.7</ele>
        <time>2020-06-18T08:57:12Z</time>
      </trkpt>
      <trkpt lat="49.75789" lon="0.53152">
        <ele>121.8</ele>
        <time>2020-06-18T08:57:13Z</time>
      </trkpt>
      <trkpt lat="49.75794" lon="0.53159">
        <ele>121.8</ele>
        <time>2020-06-18T08:57:14Z</time>
      </trkpt>
      <trkpt lat="49.75798" lon="0.53166">
        <ele>121.9</ele>
        <time>2020-06-18T08:57:15Z</time>
      </trkpt>
      <trkpt lat="49.75802" lon="0.53174">
        <ele>121.9</ele>
        <time>2020-06-18T08:57:16Z</time>
      </trkpt>
      <trkpt lat="49.75807" lon="0.53181">
        <ele>121.9</ele>
        <time>2020-06-18T08:57:17Z</time>
      </trkpt>
      <trkpt lat="49.75811" lon="0.53188">
        <ele>121.9</ele>
        <time>2020-06-18T08:57:18Z</time>
      </trkpt>
      <trkpt lat="49.75815" lon="0.53195">
        <ele>121.9</ele>
        <time>2020-06-18T08:57:19Z</time>
      </trkpt>
      <trkpt lat="49.75819" lon="0.53203">
        <ele>121.9</ele>
        <time>2020-06-18T08:57:20Z</time>
      </trkpt>
      <trkpt lat="49.75824" lon="0.53211">
        <ele>121.9</ele>
        <time>2020-06-18T08:57:21Z</time>
      </trkpt>
      <trkpt lat="49.75828" lon="0.53219">
        <ele>121.8</ele>
        <time>2020-06-18T08:57:22Z</time>
      </trkpt>
      <trkpt lat="49.75832" lon="0.53226">
        <ele>121.8</ele>
        <time>2020-06-18T08:57:23Z</time>
      </trkpt>
      <trkpt lat="49.75836" lon="0.53234">
        <ele>121.8</ele>
        <time>2020-06-18T08:57:24Z</time>
      </trkpt>
      <trkpt lat="49.7584" lon="0.53241">
        <ele>121.7</ele>
        <time>2020-06-18T08:57:25Z</time>
      </trkpt>
      <trkpt lat="49.75844" lon="0.5325">
        <ele>121.7</ele>
        <time>2020-06-18T08:57:26Z</time>
      </trkpt>
      <trkpt lat="49.75849" lon="0.53258">
        <ele>121.7</ele>
        <time>2020-06-18T08:57:27Z</time>
      </trkpt>
      <trkpt lat="49.75853" lon="0.53266">
        <ele>121.7</ele>
        <time>2020-06-18T08:57:28Z</time>
      </trkpt>
      <trkpt lat="49.75857" lon="0.53274">
        <ele>121.7</ele>
        <time>2020-06-18T08:57:29Z</time>
      </trkpt>
      <trkpt lat="49.75861" lon="0.53283">
        <ele>121.7</ele>
        <time>2020-06-18T08:57:30Z</time>
      </trkpt>
      <trkpt lat="49.75866" lon="0.5329">
        <ele>121.7</ele>
        <time>2020-06-18T08:57:31Z</time>
      </trkpt>
      <trkpt lat="49.7587" lon="0.53299">
        <ele>121.7</ele>
        <time>2020-06-18T08:57:32Z</time>
      </trkpt>
      <trkpt lat="49.75875" lon="0.53307">
        <ele>121.7</ele>
        <time>2020-06-18T08:57:33Z</time>
      </trkpt>
      <trkpt lat="49.7588" lon="0.53315">
        <ele>121.7</ele>
        <time>2020-06-18T08:57:34Z</time>
      </trkpt>
      <trkpt lat="49.75886" lon="0.53323">
        <ele>121.7</ele>
        <time>2020-06-18T08:57:35Z</time>
      </trkpt>
      <trkpt lat="49.7589" lon="0.53331">
        <ele>121.7</ele>
        <time>2020-06-18T08:57:36Z</time>
      </trkpt>
      <trkpt lat="49.75895" lon="0.5334">
        <ele>121.7</ele>
        <time>2020-06-18T08:57:37Z</time>
      </trkpt>
      <trkpt lat="49.759" lon="0.53349">
        <ele>121.6</ele>
        <time>2020-06-18T08:57:38Z</time>
      </trkpt>
      <trkpt lat="49.75905" lon="0.53358">
        <ele>121.7</ele>
        <time>2020-06-18T08:57:39Z</time>
      </trkpt>
      <trkpt lat="49.7591" lon="0.53367">
        <ele>121.7</ele>
        <time>2020-06-18T08:57:40Z</time>
      </trkpt>
      <trkpt lat="49.75914" lon="0.53376">
        <ele>121.7</ele>
        <time>2020-06-18T08:57:41Z</time>
      </trkpt>
      <trkpt lat="49.75919" lon="0.53385">
        <ele>121.7</ele>
        <time>2020-06-18T08:57:42Z</time>
      </trkpt>
      <trkpt lat="49.75924" lon="0.53394">
        <ele>121.8</ele>
        <time>2020-06-18T08:57:43Z</time>
      </trkpt>
      <trkpt lat="49.75929" lon="0.53403">
        <ele>121.7</ele>
        <time>2020-06-18T08:57:44Z</time>
      </trkpt>
      <trkpt lat="49.75934" lon="0.53412">
        <ele>121.7</ele>
        <time>2020-06-18T08:57:45Z</time>
      </trkpt>
      <trkpt lat="49.75939" lon="0.53421">
        <ele>121.6</ele>
        <time>2020-06-18T08:57:46Z</time>
      </trkpt>
      <trkpt lat="49.75945" lon="0.53429">
        <ele>121.6</ele>
        <time>2020-06-18T08:57:47Z</time>
      </trkpt>
      <trkpt lat="49.7595" lon="0.53438">
        <ele>121.6</ele>
        <time>2020-06-18T08:57:48Z</time>
      </trkpt>
      <trkpt lat="49.75956" lon="0.53446">
        <ele>121.5</ele>
        <time>2020-06-18T08:57:49Z</time>
      </trkpt>
      <trkpt lat="49.75962" lon="0.53454">
        <ele>121.5</ele>
        <time>2020-06-18T08:57:50Z</time>
      </trkpt>
      <trkpt lat="49.75968" lon="0.53461">
        <ele>121.5</ele>
        <time>2020-06-18T08:57:51Z</time>
      </trkpt>
      <trkpt lat="49.75974" lon="0.53468">
        <ele>121.5</ele>
        <time>2020-06-18T08:57:52Z</time>
      </trkpt>
      <trkpt lat="49.75981" lon="0.53475">
        <ele>121.5</ele>
        <time>2020-06-18T08:57:53Z</time>
      </trkpt>
      <trkpt lat="49.75988" lon="0.53479">
        <ele>121.5</ele>
        <time>2020-06-18T08:57:54Z</time>
      </trkpt>
      <trkpt lat="49.75996" lon="0.53485">
        <ele>121.5</ele>
        <time>2020-06-18T08:57:55Z</time>
      </trkpt>
      <trkpt lat="49.76002" lon="0.5349">
        <ele>121.5</ele>
        <time>2020-06-18T08:57:56Z</time>
      </trkpt>
      <trkpt lat="49.76009" lon="0.53496">
        <ele>121.4</ele>
        <time>2020-06-18T08:57:57Z</time>
      </trkpt>
      <trkpt lat="49.76016" lon="0.53501">
        <ele>121.4</ele>
        <time>2020-06-18T08:57:58Z</time>
      </trkpt>
      <trkpt lat="49.76023" lon="0.53506">
        <ele>121.4</ele>
        <time>2020-06-18T08:57:59Z</time>
      </trkpt>
      <trkpt lat="49.7603" lon="0.5351">
        <ele>121.5</ele>
        <time>2020-06-18T08:58:00Z</time>
      </trkpt>
      <trkpt lat="49.76037" lon="0.53514">
        <ele>121.6</ele>
        <time>2020-06-18T08:58:01Z</time>
      </trkpt>
      <trkpt lat="49.76044" lon="0.53519">
        <ele>121.6</ele>
        <time>2020-06-18T08:58:02Z</time>
      </trkpt>
      <trkpt lat="49.76051" lon="0.53524">
        <ele>121.6</ele>
        <time>2020-06-18T08:58:03Z</time>
      </trkpt>
      <trkpt lat="49.76058" lon="0.53529">
        <ele>121.6</ele>
        <time>2020-06-18T08:58:04Z</time>
      </trkpt>
      <trkpt lat="49.76066" lon="0.53533">
        <ele>121.3</ele>
        <time>2020-06-18T08:58:05Z</time>
      </trkpt>
      <trkpt lat="49.76073" lon="0.53536">
        <ele>121.2</ele>
        <time>2020-06-18T08:58:06Z</time>
      </trkpt>
      <trkpt lat="49.7608" lon="0.5354">
        <ele>121.1</ele>
        <time>2020-06-18T08:58:07Z</time>
      </trkpt>
      <trkpt lat="49.76088" lon="0.53543">
        <ele>121</ele>
        <time>2020-06-18T08:58:08Z</time>
      </trkpt>
      <trkpt lat="49.76096" lon="0.53545">
        <ele>120.9</ele>
        <time>2020-06-18T08:58:09Z</time>
      </trkpt>
      <trkpt lat="49.76104" lon="0.53549">
        <ele>120.8</ele>
        <time>2020-06-18T08:58:10Z</time>
      </trkpt>
      <trkpt lat="49.76111" lon="0.53553">
        <ele>120.8</ele>
        <time>2020-06-18T08:58:11Z</time>
      </trkpt>
      <trkpt lat="49.76119" lon="0.53556">
        <ele>120.7</ele>
        <time>2020-06-18T08:58:12Z</time>
      </trkpt>
      <trkpt lat="49.76127" lon="0.53559">
        <ele>120.6</ele>
        <time>2020-06-18T08:58:13Z</time>
      </trkpt>
      <trkpt lat="49.76135" lon="0.53562">
        <ele>120.5</ele>
        <time>2020-06-18T08:58:14Z</time>
      </trkpt>
      <trkpt lat="49.76143" lon="0.53565">
        <ele>120.4</ele>
        <time>2020-06-18T08:58:15Z</time>
      </trkpt>
      <trkpt lat="49.7615" lon="0.53569">
        <ele>120.4</ele>
        <time>2020-06-18T08:58:16Z</time>
      </trkpt>
      <trkpt lat="49.76158" lon="0.53571">
        <ele>120.3</ele>
        <time>2020-06-18T08:58:17Z</time>
      </trkpt>
      <trkpt lat="49.76165" lon="0.53574">
        <ele>120.3</ele>
        <time>2020-06-18T08:58:18Z</time>
      </trkpt>
      <trkpt lat="49.76172" lon="0.53576">
        <ele>120.2</ele>
        <time>2020-06-18T08:58:19Z</time>
      </trkpt>
      <trkpt lat="49.76179" lon="0.53579">
        <ele>120.2</ele>
        <time>2020-06-18T08:58:20Z</time>
      </trkpt>
      <trkpt lat="49.76187" lon="0.53582">
        <ele>120.2</ele>
        <time>2020-06-18T08:58:21Z</time>
      </trkpt>
      <trkpt lat="49.76194" lon="0.53586">
        <ele>120.1</ele>
        <time>2020-06-18T08:58:22Z</time>
      </trkpt>
      <trkpt lat="49.76201" lon="0.53589">
        <ele>120</ele>
        <time>2020-06-18T08:58:23Z</time>
      </trkpt>
      <trkpt lat="49.76209" lon="0.53592">
        <ele>119.8</ele>
        <time>2020-06-18T08:58:24Z</time>
      </trkpt>
      <trkpt lat="49.76216" lon="0.53595">
        <ele>119.7</ele>
        <time>2020-06-18T08:58:25Z</time>
      </trkpt>
      <trkpt lat="49.76224" lon="0.53599">
        <ele>119.6</ele>
        <time>2020-06-18T08:58:26Z</time>
      </trkpt>
      <trkpt lat="49.7623" lon="0.53602">
        <ele>119.5</ele>
        <time>2020-06-18T08:58:27Z</time>
      </trkpt>
      <trkpt lat="49.76237" lon="0.53606">
        <ele>119.4</ele>
        <time>2020-06-18T08:58:28Z</time>
      </trkpt>
      <trkpt lat="49.76244" lon="0.53609">
        <ele>119.3</ele>
        <time>2020-06-18T08:58:29Z</time>
      </trkpt>
      <trkpt lat="49.76251" lon="0.53613">
        <ele>119.1</ele>
        <time>2020-06-18T08:58:30Z</time>
      </trkpt>
      <trkpt lat="49.76257" lon="0.53618">
        <ele>118.9</ele>
        <time>2020-06-18T08:58:31Z</time>
      </trkpt>
      <trkpt lat="49.76262" lon="0.53625">
        <ele>118.6</ele>
        <time>2020-06-18T08:58:32Z</time>
      </trkpt>
      <trkpt lat="49.76267" lon="0.53633">
        <ele>118.6</ele>
        <time>2020-06-18T08:58:33Z</time>
      </trkpt>
      <trkpt lat="49.76273" lon="0.5364">
        <ele>118.6</ele>
        <time>2020-06-18T08:58:34Z</time>
      </trkpt>
      <trkpt lat="49.76279" lon="0.53647">
        <ele>118.6</ele>
        <time>2020-06-18T08:58:35Z</time>
      </trkpt>
      <trkpt lat="49.76284" lon="0.53654">
        <ele>118.5</ele>
        <time>2020-06-18T08:58:36Z</time>
      </trkpt>
      <trkpt lat="49.7629" lon="0.53662">
        <ele>118.4</ele>
        <time>2020-06-18T08:58:37Z</time>
      </trkpt>
      <trkpt lat="49.76294" lon="0.53671">
        <ele>118.3</ele>
        <time>2020-06-18T08:58:38Z</time>
      </trkpt>
      <trkpt lat="49.763" lon="0.53679">
        <ele>118.1</ele>
        <time>2020-06-18T08:58:39Z</time>
      </trkpt>
      <trkpt lat="49.76306" lon="0.53688">
        <ele>117.9</ele>
        <time>2020-06-18T08:58:40Z</time>
      </trkpt>
      <trkpt lat="49.76312" lon="0.53696">
        <ele>117.8</ele>
        <time>2020-06-18T08:58:41Z</time>
      </trkpt>
      <trkpt lat="49.76318" lon="0.53704">
        <ele>117.7</ele>
        <time>2020-06-18T08:58:42Z</time>
      </trkpt>
      <trkpt lat="49.76324" lon="0.53711">
        <ele>117.6</ele>
        <time>2020-06-18T08:58:43Z</time>
      </trkpt>
      <trkpt lat="49.76329" lon="0.5372">
        <ele>117.6</ele>
        <time>2020-06-18T08:58:44Z</time>
      </trkpt>
      <trkpt lat="49.76335" lon="0.53728">
        <ele>117.5</ele>
        <time>2020-06-18T08:58:45Z</time>
      </trkpt>
      <trkpt lat="49.7634" lon="0.53737">
        <ele>117.3</ele>
        <time>2020-06-18T08:58:46Z</time>
      </trkpt>
      <trkpt lat="49.76345" lon="0.53745">
        <ele>117.1</ele>
        <time>2020-06-18T08:58:47Z</time>
      </trkpt>
      <trkpt lat="49.76351" lon="0.53754">
        <ele>116.9</ele>
        <time>2020-06-18T08:58:48Z</time>
      </trkpt>
      <trkpt lat="49.76356" lon="0.53763">
        <ele>116.8</ele>
        <time>2020-06-18T08:58:49Z</time>
      </trkpt>
      <trkpt lat="49.76361" lon="0.53772">
        <ele>116.6</ele>
        <time>2020-06-18T08:58:50Z</time>
      </trkpt>
      <trkpt lat="49.76367" lon="0.53781">
        <ele>116.6</ele>
        <time>2020-06-18T08:58:51Z</time>
      </trkpt>
      <trkpt lat="49.76371" lon="0.53789">
        <ele>116.5</ele>
        <time>2020-06-18T08:58:52Z</time>
      </trkpt>
      <trkpt lat="49.76376" lon="0.53798">
        <ele>116.5</ele>
        <time>2020-06-18T08:58:53Z</time>
      </trkpt>
      <trkpt lat="49.7638" lon="0.53806">
        <ele>116.4</ele>
        <time>2020-06-18T08:58:54Z</time>
      </trkpt>
      <trkpt lat="49.76384" lon="0.53816">
        <ele>116.4</ele>
        <time>2020-06-18T08:58:55Z</time>
      </trkpt>
      <trkpt lat="49.7639" lon="0.53824">
        <ele>116.4</ele>
        <time>2020-06-18T08:58:56Z</time>
      </trkpt>
      <trkpt lat="49.76395" lon="0.53831">
        <ele>116.3</ele>
        <time>2020-06-18T08:58:57Z</time>
      </trkpt>
      <trkpt lat="49.764" lon="0.53839">
        <ele>116.3</ele>
        <time>2020-06-18T08:58:58Z</time>
      </trkpt>
      <trkpt lat="49.76404" lon="0.53849">
        <ele>116.2</ele>
        <time>2020-06-18T08:58:59Z</time>
      </trkpt>
      <trkpt lat="49.76409" lon="0.53858">
        <ele>116.1</ele>
        <time>2020-06-18T08:59:00Z</time>
      </trkpt>
      <trkpt lat="49.76413" lon="0.53866">
        <ele>116</ele>
        <time>2020-06-18T08:59:01Z</time>
      </trkpt>
      <trkpt lat="49.76418" lon="0.53874">
        <ele>115.9</ele>
        <time>2020-06-18T08:59:02Z</time>
      </trkpt>
      <trkpt lat="49.76423" lon="0.53882">
        <ele>115.8</ele>
        <time>2020-06-18T08:59:03Z</time>
      </trkpt>
      <trkpt lat="49.76428" lon="0.5389">
        <ele>115.7</ele>
        <time>2020-06-18T08:59:04Z</time>
      </trkpt>
      <trkpt lat="49.76433" lon="0.53898">
        <ele>115.6</ele>
        <time>2020-06-18T08:59:05Z</time>
      </trkpt>
      <trkpt lat="49.76439" lon="0.53905">
        <ele>115.6</ele>
        <time>2020-06-18T08:59:06Z</time>
      </trkpt>
      <trkpt lat="49.76445" lon="0.53912">
        <ele>115.6</ele>
        <time>2020-06-18T08:59:07Z</time>
      </trkpt>
      <trkpt lat="49.7645" lon="0.53919">
        <ele>115.6</ele>
        <time>2020-06-18T08:59:08Z</time>
      </trkpt>
      <trkpt lat="49.76456" lon="0.53926">
        <ele>115.6</ele>
        <time>2020-06-18T08:59:09Z</time>
      </trkpt>
      <trkpt lat="49.76462" lon="0.53933">
        <ele>115.5</ele>
        <time>2020-06-18T08:59:10Z</time>
      </trkpt>
      <trkpt lat="49.76467" lon="0.5394">
        <ele>115.5</ele>
        <time>2020-06-18T08:59:11Z</time>
      </trkpt>
      <trkpt lat="49.76473" lon="0.53947">
        <ele>115.4</ele>
        <time>2020-06-18T08:59:12Z</time>
      </trkpt>
      <trkpt lat="49.76478" lon="0.53955">
        <ele>115.3</ele>
        <time>2020-06-18T08:59:13Z</time>
      </trkpt>
      <trkpt lat="49.76483" lon="0.53963">
        <ele>115.3</ele>
        <time>2020-06-18T08:59:14Z</time>
      </trkpt>
      <trkpt lat="49.76488" lon="0.5397">
        <ele>115.2</ele>
        <time>2020-06-18T08:59:15Z</time>
      </trkpt>
      <trkpt lat="49.76493" lon="0.53978">
        <ele>115.1</ele>
        <time>2020-06-18T08:59:16Z</time>
      </trkpt>
      <trkpt lat="49.76499" lon="0.53985">
        <ele>115</ele>
        <time>2020-06-18T08:59:17Z</time>
      </trkpt>
      <trkpt lat="49.76505" lon="0.53993">
        <ele>114.9</ele>
        <time>2020-06-18T08:59:18Z</time>
      </trkpt>
      <trkpt lat="49.7651" lon="0.54">
        <ele>114.9</ele>
        <time>2020-06-18T08:59:19Z</time>
      </trkpt>
      <trkpt lat="49.76516" lon="0.54008">
        <ele>114.8</ele>
        <time>2020-06-18T08:59:20Z</time>
      </trkpt>
      <trkpt lat="49.76521" lon="0.54016">
        <ele>114.7</ele>
        <time>2020-06-18T08:59:21Z</time>
      </trkpt>
      <trkpt lat="49.76526" lon="0.54024">
        <ele>114.6</ele>
        <time>2020-06-18T08:59:22Z</time>
      </trkpt>
      <trkpt lat="49.76531" lon="0.54032">
        <ele>114.6</ele>
        <time>2020-06-18T08:59:23Z</time>
      </trkpt>
      <trkpt lat="49.76536" lon="0.54039">
        <ele>114.5</ele>
        <time>2020-06-18T08:59:24Z</time>
      </trkpt>
      <trkpt lat="49.76541" lon="0.54047">
        <ele>114.4</ele>
        <time>2020-06-18T08:59:25Z</time>
      </trkpt>
      <trkpt lat="49.76546" lon="0.54054">
        <ele>114.4</ele>
        <time>2020-06-18T08:59:26Z</time>
      </trkpt>
      <trkpt lat="49.7655" lon="0.54061">
        <ele>114.3</ele>
        <time>2020-06-18T08:59:27Z</time>
      </trkpt>
      <trkpt lat="49.76555" lon="0.54068">
        <ele>114.2</ele>
        <time>2020-06-18T08:59:28Z</time>
      </trkpt>
      <trkpt lat="49.7656" lon="0.54076">
        <ele>114.1</ele>
        <time>2020-06-18T08:59:29Z</time>
      </trkpt>
      <trkpt lat="49.76566" lon="0.54082">
        <ele>114.1</ele>
        <time>2020-06-18T08:59:30Z</time>
      </trkpt>
      <trkpt lat="49.7657" lon="0.54089">
        <ele>114</ele>
        <time>2020-06-18T08:59:31Z</time>
      </trkpt>
      <trkpt lat="49.76575" lon="0.54096">
        <ele>114</ele>
        <time>2020-06-18T08:59:32Z</time>
      </trkpt>
      <trkpt lat="49.76579" lon="0.54103">
        <ele>113.9</ele>
        <time>2020-06-18T08:59:33Z</time>
      </trkpt>
      <trkpt lat="49.76584" lon="0.54109">
        <ele>113.8</ele>
        <time>2020-06-18T08:59:34Z</time>
      </trkpt>
      <trkpt lat="49.76589" lon="0.54117">
        <ele>113.7</ele>
        <time>2020-06-18T08:59:35Z</time>
      </trkpt>
      <trkpt lat="49.76593" lon="0.54124">
        <ele>113.6</ele>
        <time>2020-06-18T08:59:36Z</time>
      </trkpt>
      <trkpt lat="49.76598" lon="0.5413">
        <ele>113.4</ele>
        <time>2020-06-18T08:59:37Z</time>
      </trkpt>
      <trkpt lat="49.76602" lon="0.54136">
        <ele>113.4</ele>
        <time>2020-06-18T08:59:38Z</time>
      </trkpt>
      <trkpt lat="49.76607" lon="0.54142">
        <ele>113.3</ele>
        <time>2020-06-18T08:59:39Z</time>
      </trkpt>
      <trkpt lat="49.76611" lon="0.54148">
        <ele>113.3</ele>
        <time>2020-06-18T08:59:40Z</time>
      </trkpt>
      <trkpt lat="49.76615" lon="0.54155">
        <ele>113.2</ele>
        <time>2020-06-18T08:59:41Z</time>
      </trkpt>
      <trkpt lat="49.7662" lon="0.54161">
        <ele>113.2</ele>
        <time>2020-06-18T08:59:42Z</time>
      </trkpt>
      <trkpt lat="49.76625" lon="0.54168">
        <ele>113.2</ele>
        <time>2020-06-18T08:59:43Z</time>
      </trkpt>
      <trkpt lat="49.76629" lon="0.54174">
        <ele>113.2</ele>
        <time>2020-06-18T08:59:44Z</time>
      </trkpt>
      <trkpt lat="49.76634" lon="0.5418">
        <ele>113.2</ele>
        <time>2020-06-18T08:59:45Z</time>
      </trkpt>
      <trkpt lat="49.76639" lon="0.54186">
        <ele>113.1</ele>
        <time>2020-06-18T08:59:46Z</time>
      </trkpt>
      <trkpt lat="49.76643" lon="0.54193">
        <ele>113.1</ele>
        <time>2020-06-18T08:59:47Z</time>
      </trkpt>
      <trkpt lat="49.76647" lon="0.54199">
        <ele>113.1</ele>
        <time>2020-06-18T08:59:48Z</time>
      </trkpt>
      <trkpt lat="49.7665" lon="0.54204">
        <ele>113.1</ele>
        <time>2020-06-18T08:59:49Z</time>
      </trkpt>
      <trkpt lat="49.76653" lon="0.54208">
        <ele>113.1</ele>
        <time>2020-06-18T08:59:50Z</time>
      </trkpt>
      <trkpt lat="49.76657" lon="0.54211">
        <ele>113</ele>
        <time>2020-06-18T08:59:51Z</time>
      </trkpt>
      <trkpt lat="49.76661" lon="0.54212">
        <ele>113</ele>
        <time>2020-06-18T08:59:52Z</time>
      </trkpt>
      <trkpt lat="49.76665" lon="0.54214">
        <ele>112.9</ele>
        <time>2020-06-18T08:59:53Z</time>
      </trkpt>
      <trkpt lat="49.7667" lon="0.54214">
        <ele>112.9</ele>
        <time>2020-06-18T08:59:54Z</time>
      </trkpt>
      <trkpt lat="49.76674" lon="0.54212">
        <ele>112.8</ele>
        <time>2020-06-18T08:59:55Z</time>
      </trkpt>
      <trkpt lat="49.76679" lon="0.54211">
        <ele>112.8</ele>
        <time>2020-06-18T08:59:56Z</time>
      </trkpt>
      <trkpt lat="49.76684" lon="0.5421">
        <ele>112.7</ele>
        <time>2020-06-18T08:59:57Z</time>
      </trkpt>
      <trkpt lat="49.76689" lon="0.54211">
        <ele>112.7</ele>
        <time>2020-06-18T08:59:58Z</time>
      </trkpt>
      <trkpt lat="49.76695" lon="0.54212">
        <ele>112.6</ele>
        <time>2020-06-18T08:59:59Z</time>
      </trkpt>
      <trkpt lat="49.767" lon="0.54214">
        <ele>112.6</ele>
        <time>2020-06-18T09:00:00Z</time>
      </trkpt>
      <trkpt lat="49.76706" lon="0.54216">
        <ele>112.5</ele>
        <time>2020-06-18T09:00:01Z</time>
      </trkpt>
      <trkpt lat="49.76711" lon="0.54221">
        <ele>112.5</ele>
        <time>2020-06-18T09:00:02Z</time>
      </trkpt>
      <trkpt lat="49.76716" lon="0.54227">
        <ele>112.4</ele>
        <time>2020-06-18T09:00:03Z</time>
      </trkpt>
      <trkpt lat="49.76722" lon="0.54231">
        <ele>112.4</ele>
        <time>2020-06-18T09:00:04Z</time>
      </trkpt>
      <trkpt lat="49.76727" lon="0.54237">
        <ele>112.4</ele>
        <time>2020-06-18T09:00:05Z</time>
      </trkpt>
      <trkpt lat="49.76733" lon="0.54243">
        <ele>112.3</ele>
        <time>2020-06-18T09:00:06Z</time>
      </trkpt>
      <trkpt lat="49.76739" lon="0.54249">
        <ele>112.3</ele>
        <time>2020-06-18T09:00:07Z</time>
      </trkpt>
      <trkpt lat="49.76745" lon="0.54254">
        <ele>112.1</ele>
        <time>2020-06-18T09:00:08Z</time>
      </trkpt>
      <trkpt lat="49.76751" lon="0.54259">
        <ele>112</ele>
        <time>2020-06-18T09:00:09Z</time>
      </trkpt>
      <trkpt lat="49.76757" lon="0.54265">
        <ele>111.9</ele>
        <time>2020-06-18T09:00:10Z</time>
      </trkpt>
      <trkpt lat="49.76764" lon="0.54269">
        <ele>111.8</ele>
        <time>2020-06-18T09:00:11Z</time>
      </trkpt>
      <trkpt lat="49.7677" lon="0.54273">
        <ele>111.7</ele>
        <time>2020-06-18T09:00:12Z</time>
      </trkpt>
      <trkpt lat="49.76777" lon="0.54278">
        <ele>111.7</ele>
        <time>2020-06-18T09:00:13Z</time>
      </trkpt>
      <trkpt lat="49.76783" lon="0.54283">
        <ele>111.6</ele>
        <time>2020-06-18T09:00:14Z</time>
      </trkpt>
      <trkpt lat="49.76788" lon="0.54287">
        <ele>111.5</ele>
        <time>2020-06-18T09:00:15Z</time>
      </trkpt>
      <trkpt lat="49.76794" lon="0.54292">
        <ele>111.5</ele>
        <time>2020-06-18T09:00:16Z</time>
      </trkpt>
      <trkpt lat="49.768" lon="0.54296">
        <ele>111.3</ele>
        <time>2020-06-18T09:00:17Z</time>
      </trkpt>
      <trkpt lat="49.76806" lon="0.54301">
        <ele>111.1</ele>
        <time>2020-06-18T09:00:18Z</time>
      </trkpt>
      <trkpt lat="49.76812" lon="0.54305">
        <ele>110.9</ele>
        <time>2020-06-18T09:00:19Z</time>
      </trkpt>
      <trkpt lat="49.76819" lon="0.5431">
        <ele>110.6</ele>
        <time>2020-06-18T09:00:20Z</time>
      </trkpt>
      <trkpt lat="49.76825" lon="0.54315">
        <ele>110.4</ele>
        <time>2020-06-18T09:00:21Z</time>
      </trkpt>
      <trkpt lat="49.76832" lon="0.54321">
        <ele>110.2</ele>
        <time>2020-06-18T09:00:22Z</time>
      </trkpt>
      <trkpt lat="49.76839" lon="0.54328">
        <ele>110</ele>
        <time>2020-06-18T09:00:23Z</time>
      </trkpt>
      <trkpt lat="49.76845" lon="0.54335">
        <ele>109.8</ele>
        <time>2020-06-18T09:00:24Z</time>
      </trkpt>
      <trkpt lat="49.76853" lon="0.54341">
        <ele>109.6</ele>
        <time>2020-06-18T09:00:25Z</time>
      </trkpt>
      <trkpt lat="49.7686" lon="0.54348">
        <ele>109.5</ele>
        <time>2020-06-18T09:00:26Z</time>
      </trkpt>
      <trkpt lat="49.76868" lon="0.54354">
        <ele>109.4</ele>
        <time>2020-06-18T09:00:27Z</time>
      </trkpt>
      <trkpt lat="49.76875" lon="0.54361">
        <ele>109.3</ele>
        <time>2020-06-18T09:00:28Z</time>
      </trkpt>
      <trkpt lat="49.76882" lon="0.54368">
        <ele>109.3</ele>
        <time>2020-06-18T09:00:29Z</time>
      </trkpt>
      <trkpt lat="49.7689" lon="0.54375">
        <ele>109.2</ele>
        <time>2020-06-18T09:00:30Z</time>
      </trkpt>
      <trkpt lat="49.76897" lon="0.54382">
        <ele>109</ele>
        <time>2020-06-18T09:00:31Z</time>
      </trkpt>
      <trkpt lat="49.76905" lon="0.54388">
        <ele>108.9</ele>
        <time>2020-06-18T09:00:32Z</time>
      </trkpt>
      <trkpt lat="49.76912" lon="0.54395">
        <ele>108.8</ele>
        <time>2020-06-18T09:00:33Z</time>
      </trkpt>
      <trkpt lat="49.7692" lon="0.54402">
        <ele>108.7</ele>
        <time>2020-06-18T09:00:34Z</time>
      </trkpt>
      <trkpt lat="49.76927" lon="0.54409">
        <ele>108.7</ele>
        <time>2020-06-18T09:00:35Z</time>
      </trkpt>
      <trkpt lat="49.76935" lon="0.54416">
        <ele>108.6</ele>
        <time>2020-06-18T09:00:36Z</time>
      </trkpt>
      <trkpt lat="49.76942" lon="0.54423">
        <ele>108.5</ele>
        <time>2020-06-18T09:00:37Z</time>
      </trkpt>
      <trkpt lat="49.76949" lon="0.54431">
        <ele>108.5</ele>
        <time>2020-06-18T09:00:38Z</time>
      </trkpt>
      <trkpt lat="49.76956" lon="0.54439">
        <ele>108.5</ele>
        <time>2020-06-18T09:00:39Z</time>
      </trkpt>
      <trkpt lat="49.76964" lon="0.54446">
        <ele>108.5</ele>
        <time>2020-06-18T09:00:40Z</time>
      </trkpt>
      <trkpt lat="49.7697" lon="0.54454">
        <ele>108.5</ele>
        <time>2020-06-18T09:00:41Z</time>
      </trkpt>
      <trkpt lat="49.76976" lon="0.54463">
        <ele>108.5</ele>
        <time>2020-06-18T09:00:42Z</time>
      </trkpt>
      <trkpt lat="49.76982" lon="0.54473">
        <ele>108.6</ele>
        <time>2020-06-18T09:00:43Z</time>
      </trkpt>
      <trkpt lat="49.76988" lon="0.54483">
        <ele>108.6</ele>
        <time>2020-06-18T09:00:44Z</time>
      </trkpt>
      <trkpt lat="49.76993" lon="0.54493">
        <ele>108.6</ele>
        <time>2020-06-18T09:00:45Z</time>
      </trkpt>
      <trkpt lat="49.76998" lon="0.54503">
        <ele>108.6</ele>
        <time>2020-06-18T09:00:46Z</time>
      </trkpt>
      <trkpt lat="49.77003" lon="0.54514">
        <ele>108.7</ele>
        <time>2020-06-18T09:00:47Z</time>
      </trkpt>
      <trkpt lat="49.77008" lon="0.54524">
        <ele>108.7</ele>
        <time>2020-06-18T09:00:48Z</time>
      </trkpt>
      <trkpt lat="49.77012" lon="0.54534">
        <ele>108.7</ele>
        <time>2020-06-18T09:00:49Z</time>
      </trkpt>
      <trkpt lat="49.77017" lon="0.54543">
        <ele>108.7</ele>
        <time>2020-06-18T09:00:50Z</time>
      </trkpt>
      <trkpt lat="49.77022" lon="0.54553">
        <ele>108.7</ele>
        <time>2020-06-18T09:00:51Z</time>
      </trkpt>
      <trkpt lat="49.77027" lon="0.54561">
        <ele>108.6</ele>
        <time>2020-06-18T09:00:52Z</time>
      </trkpt>
      <trkpt lat="49.77032" lon="0.5457">
        <ele>108.5</ele>
        <time>2020-06-18T09:00:53Z</time>
      </trkpt>
      <trkpt lat="49.77036" lon="0.54579">
        <ele>108.5</ele>
        <time>2020-06-18T09:00:54Z</time>
      </trkpt>
      <trkpt lat="49.77041" lon="0.54587">
        <ele>108.5</ele>
        <time>2020-06-18T09:00:55Z</time>
      </trkpt>
      <trkpt lat="49.77045" lon="0.54595">
        <ele>108.4</ele>
        <time>2020-06-18T09:00:56Z</time>
      </trkpt>
      <trkpt lat="49.77049" lon="0.54603">
        <ele>108.4</ele>
        <time>2020-06-18T09:00:57Z</time>
      </trkpt>
      <trkpt lat="49.77054" lon="0.54611">
        <ele>108.3</ele>
        <time>2020-06-18T09:00:58Z</time>
      </trkpt>
      <trkpt lat="49.77058" lon="0.54619">
        <ele>108.2</ele>
        <time>2020-06-18T09:00:59Z</time>
      </trkpt>
      <trkpt lat="49.77062" lon="0.54627">
        <ele>108.1</ele>
        <time>2020-06-18T09:01:00Z</time>
      </trkpt>
      <trkpt lat="49.77066" lon="0.54634">
        <ele>107.9</ele>
        <time>2020-06-18T09:01:01Z</time>
      </trkpt>
      <trkpt lat="49.7707" lon="0.54642">
        <ele>107.8</ele>
        <time>2020-06-18T09:01:02Z</time>
      </trkpt>
      <trkpt lat="49.77075" lon="0.5465">
        <ele>107.5</ele>
        <time>2020-06-18T09:01:03Z</time>
      </trkpt>
      <trkpt lat="49.77079" lon="0.54659">
        <ele>107.3</ele>
        <time>2020-06-18T09:01:04Z</time>
      </trkpt>
      <trkpt lat="49.77082" lon="0.54668">
        <ele>107</ele>
        <time>2020-06-18T09:01:05Z</time>
      </trkpt>
      <trkpt lat="49.77086" lon="0.54677">
        <ele>106.7</ele>
        <time>2020-06-18T09:01:06Z</time>
      </trkpt>
      <trkpt lat="49.77088" lon="0.54687">
        <ele>106.5</ele>
        <time>2020-06-18T09:01:07Z</time>
      </trkpt>
      <trkpt lat="49.77087" lon="0.54697">
        <ele>106.3</ele>
        <time>2020-06-18T09:01:08Z</time>
      </trkpt>
      <trkpt lat="49.77085" lon="0.54708">
        <ele>106</ele>
        <time>2020-06-18T09:01:09Z</time>
      </trkpt>
      <trkpt lat="49.77082" lon="0.54719">
        <ele>105.8</ele>
        <time>2020-06-18T09:01:10Z</time>
      </trkpt>
      <trkpt lat="49.77079" lon="0.5473">
        <ele>105.5</ele>
        <time>2020-06-18T09:01:11Z</time>
      </trkpt>
      <trkpt lat="49.77075" lon="0.54741">
        <ele>105.4</ele>
        <time>2020-06-18T09:01:12Z</time>
      </trkpt>
      <trkpt lat="49.77071" lon="0.54751">
        <ele>105.2</ele>
        <time>2020-06-18T09:01:13Z</time>
      </trkpt>
      <trkpt lat="49.77067" lon="0.54762">
        <ele>105</ele>
        <time>2020-06-18T09:01:14Z</time>
      </trkpt>
      <trkpt lat="49.77063" lon="0.54774">
        <ele>104.8</ele>
        <time>2020-06-18T09:01:15Z</time>
      </trkpt>
      <trkpt lat="49.77059" lon="0.54785">
        <ele>104.6</ele>
        <time>2020-06-18T09:01:16Z</time>
      </trkpt>
      <trkpt lat="49.77056" lon="0.54797">
        <ele>104.5</ele>
        <time>2020-06-18T09:01:17Z</time>
      </trkpt>
      <trkpt lat="49.77053" lon="0.54809">
        <ele>104.4</ele>
        <time>2020-06-18T09:01:18Z</time>
      </trkpt>
      <trkpt lat="49.77051" lon="0.54821">
        <ele>104.2</ele>
        <time>2020-06-18T09:01:19Z</time>
      </trkpt>
      <trkpt lat="49.7705" lon="0.54834">
        <ele>104.1</ele>
        <time>2020-06-18T09:01:20Z</time>
      </trkpt>
      <trkpt lat="49.77049" lon="0.54847">
        <ele>103.9</ele>
        <time>2020-06-18T09:01:21Z</time>
      </trkpt>
      <trkpt lat="49.7705" lon="0.54861">
        <ele>103.7</ele>
        <time>2020-06-18T09:01:22Z</time>
      </trkpt>
      <trkpt lat="49.7705" lon="0.54874">
        <ele>103.5</ele>
        <time>2020-06-18T09:01:23Z</time>
      </trkpt>
      <trkpt lat="49.7705" lon="0.54888">
        <ele>103.4</ele>
        <time>2020-06-18T09:01:24Z</time>
      </trkpt>
      <trkpt lat="49.7705" lon="0.54901">
        <ele>103.2</ele>
        <time>2020-06-18T09:01:25Z</time>
      </trkpt>
      <trkpt lat="49.77053" lon="0.54914">
        <ele>103.3</ele>
        <time>2020-06-18T09:01:26Z</time>
      </trkpt>
      <trkpt lat="49.77057" lon="0.54926">
        <ele>103.2</ele>
        <time>2020-06-18T09:01:27Z</time>
      </trkpt>
      <trkpt lat="49.77061" lon="0.54939">
        <ele>103.1</ele>
        <time>2020-06-18T09:01:28Z</time>
      </trkpt>
      <trkpt lat="49.77066" lon="0.5495">
        <ele>102.8</ele>
        <time>2020-06-18T09:01:29Z</time>
      </trkpt>
      <trkpt lat="49.77071" lon="0.54962">
        <ele>102.6</ele>
        <time>2020-06-18T09:01:30Z</time>
      </trkpt>
      <trkpt lat="49.77076" lon="0.54974">
        <ele>102.4</ele>
        <time>2020-06-18T09:01:31Z</time>
      </trkpt>
      <trkpt lat="49.77081" lon="0.54985">
        <ele>102.1</ele>
        <time>2020-06-18T09:01:32Z</time>
      </trkpt>
      <trkpt lat="49.77086" lon="0.54996">
        <ele>101.7</ele>
        <time>2020-06-18T09:01:33Z</time>
      </trkpt>
      <trkpt lat="49.7709" lon="0.55008">
        <ele>101.4</ele>
        <time>2020-06-18T09:01:34Z</time>
      </trkpt>
      <trkpt lat="49.77095" lon="0.55021">
        <ele>101</ele>
        <time>2020-06-18T09:01:35Z</time>
      </trkpt>
      <trkpt lat="49.77099" lon="0.55034">
        <ele>100.7</ele>
        <time>2020-06-18T09:01:36Z</time>
      </trkpt>
      <trkpt lat="49.77102" lon="0.55048">
        <ele>100.4</ele>
        <time>2020-06-18T09:01:37Z</time>
      </trkpt>
      <trkpt lat="49.77106" lon="0.55061">
        <ele>100.1</ele>
        <time>2020-06-18T09:01:38Z</time>
      </trkpt>
      <trkpt lat="49.77109" lon="0.55075">
        <ele>99.8</ele>
        <time>2020-06-18T09:01:39Z</time>
      </trkpt>
      <trkpt lat="49.77112" lon="0.55089">
        <ele>99.6</ele>
        <time>2020-06-18T09:01:40Z</time>
      </trkpt>
      <trkpt lat="49.77115" lon="0.55102">
        <ele>99.4</ele>
        <time>2020-06-18T09:01:41Z</time>
      </trkpt>
      <trkpt lat="49.77118" lon="0.55116">
        <ele>99.2</ele>
        <time>2020-06-18T09:01:42Z</time>
      </trkpt>
      <trkpt lat="49.77121" lon="0.55129">
        <ele>98.9</ele>
        <time>2020-06-18T09:01:43Z</time>
      </trkpt>
      <trkpt lat="49.77125" lon="0.55142">
        <ele>98.6</ele>
        <time>2020-06-18T09:01:44Z</time>
      </trkpt>
      <trkpt lat="49.77128" lon="0.55156">
        <ele>98.4</ele>
        <time>2020-06-18T09:01:45Z</time>
      </trkpt>
      <trkpt lat="49.77131" lon="0.55169">
        <ele>98.3</ele>
        <time>2020-06-18T09:01:46Z</time>
      </trkpt>
      <trkpt lat="49.77134" lon="0.55183">
        <ele>98.2</ele>
        <time>2020-06-18T09:01:47Z</time>
      </trkpt>
      <trkpt lat="49.77138" lon="0.55196">
        <ele>98.1</ele>
        <time>2020-06-18T09:01:48Z</time>
      </trkpt>
      <trkpt lat="49.77141" lon="0.55209">
        <ele>98</ele>
        <time>2020-06-18T09:01:49Z</time>
      </trkpt>
      <trkpt lat="49.77144" lon="0.55222">
        <ele>97.9</ele>
        <time>2020-06-18T09:01:50Z</time>
      </trkpt>
      <trkpt lat="49.77147" lon="0.55235">
        <ele>97.8</ele>
        <time>2020-06-18T09:01:51Z</time>
      </trkpt>
      <trkpt lat="49.7715" lon="0.55248">
        <ele>97.7</ele>
        <time>2020-06-18T09:01:52Z</time>
      </trkpt>
      <trkpt lat="49.77154" lon="0.55261">
        <ele>97.6</ele>
        <time>2020-06-18T09:01:53Z</time>
      </trkpt>
      <trkpt lat="49.77157" lon="0.55274">
        <ele>97.5</ele>
        <time>2020-06-18T09:01:54Z</time>
      </trkpt>
      <trkpt lat="49.77159" lon="0.55287">
        <ele>97.5</ele>
        <time>2020-06-18T09:01:55Z</time>
      </trkpt>
      <trkpt lat="49.77162" lon="0.55301">
        <ele>97.5</ele>
        <time>2020-06-18T09:01:56Z</time>
      </trkpt>
      <trkpt lat="49.77165" lon="0.55314">
        <ele>97.4</ele>
        <time>2020-06-18T09:01:57Z</time>
      </trkpt>
      <trkpt lat="49.77168" lon="0.55327">
        <ele>97.3</ele>
        <time>2020-06-18T09:01:58Z</time>
      </trkpt>
      <trkpt lat="49.77172" lon="0.5534">
        <ele>97.2</ele>
        <time>2020-06-18T09:01:59Z</time>
      </trkpt>
      <trkpt lat="49.77174" lon="0.55353">
        <ele>97.1</ele>
        <time>2020-06-18T09:02:00Z</time>
      </trkpt>
      <trkpt lat="49.77178" lon="0.55366">
        <ele>97</ele>
        <time>2020-06-18T09:02:01Z</time>
      </trkpt>
      <trkpt lat="49.77181" lon="0.55379">
        <ele>96.9</ele>
        <time>2020-06-18T09:02:02Z</time>
      </trkpt>
      <trkpt lat="49.77184" lon="0.55392">
        <ele>96.9</ele>
        <time>2020-06-18T09:02:03Z</time>
      </trkpt>
      <trkpt lat="49.77187" lon="0.55405">
        <ele>96.8</ele>
        <time>2020-06-18T09:02:04Z</time>
      </trkpt>
      <trkpt lat="49.77191" lon="0.55419">
        <ele>96.7</ele>
        <time>2020-06-18T09:02:05Z</time>
      </trkpt>
      <trkpt lat="49.77193" lon="0.55432">
        <ele>96.7</ele>
        <time>2020-06-18T09:02:06Z</time>
      </trkpt>
      <trkpt lat="49.77196" lon="0.55446">
        <ele>96.6</ele>
        <time>2020-06-18T09:02:07Z</time>
      </trkpt>
      <trkpt lat="49.77199" lon="0.55459">
        <ele>96.5</ele>
        <time>2020-06-18T09:02:08Z</time>
      </trkpt>
      <trkpt lat="49.77202" lon="0.55472">
        <ele>96.5</ele>
        <time>2020-06-18T09:02:09Z</time>
      </trkpt>
      <trkpt lat="49.77207" lon="0.55484">
        <ele>96.5</ele>
        <time>2020-06-18T09:02:10Z</time>
      </trkpt>
      <trkpt lat="49.77211" lon="0.55497">
        <ele>96.5</ele>
        <time>2020-06-18T09:02:11Z</time>
      </trkpt>
      <trkpt lat="49.77214" lon="0.5551">
        <ele>96.4</ele>
        <time>2020-06-18T09:02:12Z</time>
      </trkpt>
      <trkpt lat="49.77218" lon="0.55523">
        <ele>96.4</ele>
        <time>2020-06-18T09:02:13Z</time>
      </trkpt>
      <trkpt lat="49.77221" lon="0.55536">
        <ele>96.4</ele>
        <time>2020-06-18T09:02:14Z</time>
      </trkpt>
      <trkpt lat="49.77224" lon="0.55549">
        <ele>96.3</ele>
        <time>2020-06-18T09:02:15Z</time>
      </trkpt>
      <trkpt lat="49.77227" lon="0.55562">
        <ele>96.2</ele>
        <time>2020-06-18T09:02:16Z</time>
      </trkpt>
      <trkpt lat="49.7723" lon="0.55575">
        <ele>96.2</ele>
        <time>2020-06-18T09:02:17Z</time>
      </trkpt>
      <trkpt lat="49.77232" lon="0.55588">
        <ele>96.2</ele>
        <time>2020-06-18T09:02:18Z</time>
      </trkpt>
      <trkpt lat="49.77235" lon="0.55601">
        <ele>96.2</ele>
        <time>2020-06-18T09:02:19Z</time>
      </trkpt>
      <trkpt lat="49.77238" lon="0.55614">
        <ele>96.1</ele>
        <time>2020-06-18T09:02:20Z</time>
      </trkpt>
      <trkpt lat="49.77241" lon="0.55627">
        <ele>96.1</ele>
        <time>2020-06-18T09:02:21Z</time>
      </trkpt>
      <trkpt lat="49.77244" lon="0.55639">
        <ele>96.1</ele>
        <time>2020-06-18T09:02:22Z</time>
      </trkpt>
      <trkpt lat="49.77247" lon="0.55652">
        <ele>96.1</ele>
        <time>2020-06-18T09:02:23Z</time>
      </trkpt>
      <trkpt lat="49.7725" lon="0.55664">
        <ele>96.2</ele>
        <time>2020-06-18T09:02:24Z</time>
      </trkpt>
      <trkpt lat="49.77252" lon="0.55677">
        <ele>96.2</ele>
        <time>2020-06-18T09:02:25Z</time>
      </trkpt>
      <trkpt lat="49.77255" lon="0.55689">
        <ele>96.2</ele>
        <time>2020-06-18T09:02:26Z</time>
      </trkpt>
      <trkpt lat="49.77256" lon="0.55702">
        <ele>96.2</ele>
        <time>2020-06-18T09:02:27Z</time>
      </trkpt>
      <trkpt lat="49.77258" lon="0.55715">
        <ele>96.1</ele>
        <time>2020-06-18T09:02:28Z</time>
      </trkpt>
      <trkpt lat="49.77259" lon="0.55728">
        <ele>95.9</ele>
        <time>2020-06-18T09:02:29Z</time>
      </trkpt>
      <trkpt lat="49.7726" lon="0.55741">
        <ele>95.8</ele>
        <time>2020-06-18T09:02:30Z</time>
      </trkpt>
      <trkpt lat="49.77261" lon="0.55754">
        <ele>95.7</ele>
        <time>2020-06-18T09:02:31Z</time>
      </trkpt>
      <trkpt lat="49.77261" lon="0.55767">
        <ele>95.6</ele>
        <time>2020-06-18T09:02:32Z</time>
      </trkpt>
      <trkpt lat="49.77261" lon="0.5578">
        <ele>95.5</ele>
        <time>2020-06-18T09:02:33Z</time>
      </trkpt>
      <trkpt lat="49.77261" lon="0.55793">
        <ele>95.5</ele>
        <time>2020-06-18T09:02:34Z</time>
      </trkpt>
      <trkpt lat="49.7726" lon="0.55807">
        <ele>95.6</ele>
        <time>2020-06-18T09:02:35Z</time>
      </trkpt>
      <trkpt lat="49.77261" lon="0.5582">
        <ele>95.6</ele>
        <time>2020-06-18T09:02:36Z</time>
      </trkpt>
      <trkpt lat="49.77261" lon="0.55833">
        <ele>95.6</ele>
        <time>2020-06-18T09:02:37Z</time>
      </trkpt>
      <trkpt lat="49.77262" lon="0.55847">
        <ele>95.6</ele>
        <time>2020-06-18T09:02:38Z</time>
      </trkpt>
      <trkpt lat="49.77263" lon="0.5586">
        <ele>95.6</ele>
        <time>2020-06-18T09:02:39Z</time>
      </trkpt>
      <trkpt lat="49.77264" lon="0.55873">
        <ele>95.6</ele>
        <time>2020-06-18T09:02:40Z</time>
      </trkpt>
      <trkpt lat="49.77264" lon="0.55886">
        <ele>95.7</ele>
        <time>2020-06-18T09:02:41Z</time>
      </trkpt>
      <trkpt lat="49.77265" lon="0.55899">
        <ele>95.7</ele>
        <time>2020-06-18T09:02:42Z</time>
      </trkpt>
      <trkpt lat="49.77267" lon="0.55912">
        <ele>95.7</ele>
        <time>2020-06-18T09:02:43Z</time>
      </trkpt>
      <trkpt lat="49.77268" lon="0.55925">
        <ele>95.7</ele>
        <time>2020-06-18T09:02:44Z</time>
      </trkpt>
      <trkpt lat="49.7727" lon="0.55938">
        <ele>95.8</ele>
        <time>2020-06-18T09:02:45Z</time>
      </trkpt>
      <trkpt lat="49.77272" lon="0.55951">
        <ele>95.9</ele>
        <time>2020-06-18T09:02:46Z</time>
      </trkpt>
      <trkpt lat="49.77274" lon="0.55964">
        <ele>96.1</ele>
        <time>2020-06-18T09:02:47Z</time>
      </trkpt>
      <trkpt lat="49.77275" lon="0.55977">
        <ele>96.2</ele>
        <time>2020-06-18T09:02:48Z</time>
      </trkpt>
      <trkpt lat="49.77278" lon="0.55989">
        <ele>96.4</ele>
        <time>2020-06-18T09:02:49Z</time>
      </trkpt>
      <trkpt lat="49.7728" lon="0.56001">
        <ele>96.7</ele>
        <time>2020-06-18T09:02:50Z</time>
      </trkpt>
      <trkpt lat="49.77282" lon="0.56013">
        <ele>97.1</ele>
        <time>2020-06-18T09:02:51Z</time>
      </trkpt>
      <trkpt lat="49.77284" lon="0.56025">
        <ele>97.4</ele>
        <time>2020-06-18T09:02:52Z</time>
      </trkpt>
      <trkpt lat="49.77287" lon="0.56036">
        <ele>97.8</ele>
        <time>2020-06-18T09:02:53Z</time>
      </trkpt>
      <trkpt lat="49.7729" lon="0.56046">
        <ele>98.2</ele>
        <time>2020-06-18T09:02:54Z</time>
      </trkpt>
      <trkpt lat="49.77292" lon="0.56056">
        <ele>98.6</ele>
        <time>2020-06-18T09:02:55Z</time>
      </trkpt>
      <trkpt lat="49.77295" lon="0.56066">
        <ele>99</ele>
        <time>2020-06-18T09:02:56Z</time>
      </trkpt>
      <trkpt lat="49.77298" lon="0.56075">
        <ele>99.2</ele>
        <time>2020-06-18T09:02:57Z</time>
      </trkpt>
      <trkpt lat="49.77301" lon="0.56084">
        <ele>99.5</ele>
        <time>2020-06-18T09:02:58Z</time>
      </trkpt>
      <trkpt lat="49.77303" lon="0.56093">
        <ele>99.7</ele>
        <time>2020-06-18T09:02:59Z</time>
      </trkpt>
      <trkpt lat="49.77305" lon="0.56101">
        <ele>99.9</ele>
        <time>2020-06-18T09:03:00Z</time>
      </trkpt>
      <trkpt lat="49.77308" lon="0.5611">
        <ele>100.2</ele>
        <time>2020-06-18T09:03:01Z</time>
      </trkpt>
      <trkpt lat="49.77311" lon="0.56118">
        <ele>100.4</ele>
        <time>2020-06-18T09:03:02Z</time>
      </trkpt>
      <trkpt lat="49.77313" lon="0.56126">
        <ele>100.7</ele>
        <time>2020-06-18T09:03:03Z</time>
      </trkpt>
      <trkpt lat="49.77316" lon="0.56133">
        <ele>100.9</ele>
        <time>2020-06-18T09:03:04Z</time>
      </trkpt>
      <trkpt lat="49.77318" lon="0.56141">
        <ele>101</ele>
        <time>2020-06-18T09:03:05Z</time>
      </trkpt>
      <trkpt lat="49.7732" lon="0.56149">
        <ele>101.2</ele>
        <time>2020-06-18T09:03:06Z</time>
      </trkpt>
      <trkpt lat="49.77323" lon="0.56156">
        <ele>101.3</ele>
        <time>2020-06-18T09:03:07Z</time>
      </trkpt>
      <trkpt lat="49.77325" lon="0.56164">
        <ele>101.4</ele>
        <time>2020-06-18T09:03:08Z</time>
      </trkpt>
      <trkpt lat="49.77328" lon="0.56171">
        <ele>101.5</ele>
        <time>2020-06-18T09:03:09Z</time>
      </trkpt>
      <trkpt lat="49.77329" lon="0.56179">
        <ele>101.7</ele>
        <time>2020-06-18T09:03:10Z</time>
      </trkpt>
      <trkpt lat="49.77331" lon="0.56187">
        <ele>101.8</ele>
        <time>2020-06-18T09:03:11Z</time>
      </trkpt>
      <trkpt lat="49.77333" lon="0.56195">
        <ele>101.9</ele>
        <time>2020-06-18T09:03:12Z</time>
      </trkpt>
      <trkpt lat="49.77335" lon="0.56204">
        <ele>102.1</ele>
        <time>2020-06-18T09:03:13Z</time>
      </trkpt>
      <trkpt lat="49.77338" lon="0.56212">
        <ele>102.1</ele>
        <time>2020-06-18T09:03:14Z</time>
      </trkpt>
      <trkpt lat="49.77341" lon="0.56221">
        <ele>102.2</ele>
        <time>2020-06-18T09:03:15Z</time>
      </trkpt>
      <trkpt lat="49.77344" lon="0.56229">
        <ele>102.3</ele>
        <time>2020-06-18T09:03:16Z</time>
      </trkpt>
      <trkpt lat="49.77346" lon="0.56238">
        <ele>102.4</ele>
        <time>2020-06-18T09:03:17Z</time>
      </trkpt>
      <trkpt lat="49.77349" lon="0.56247">
        <ele>102.5</ele>
        <time>2020-06-18T09:03:18Z</time>
      </trkpt>
      <trkpt lat="49.77352" lon="0.56255">
        <ele>102.6</ele>
        <time>2020-06-18T09:03:19Z</time>
      </trkpt>
      <trkpt lat="49.77355" lon="0.56264">
        <ele>102.7</ele>
        <time>2020-06-18T09:03:20Z</time>
      </trkpt>
      <trkpt lat="49.77359" lon="0.56273">
        <ele>102.9</ele>
        <time>2020-06-18T09:03:21Z</time>
      </trkpt>
      <trkpt lat="49.77362" lon="0.56281">
        <ele>103</ele>
        <time>2020-06-18T09:03:22Z</time>
      </trkpt>
      <trkpt lat="49.77365" lon="0.5629">
        <ele>103.1</ele>
        <time>2020-06-18T09:03:23Z</time>
      </trkpt>
      <trkpt lat="49.77367" lon="0.56299">
        <ele>103.2</ele>
        <time>2020-06-18T09:03:24Z</time>
      </trkpt>
      <trkpt lat="49.7737" lon="0.56307">
        <ele>103.3</ele>
        <time>2020-06-18T09:03:25Z</time>
      </trkpt>
      <trkpt lat="49.77372" lon="0.56316">
        <ele>103.3</ele>
        <time>2020-06-18T09:03:26Z</time>
      </trkpt>
      <trkpt lat="49.77375" lon="0.56325">
        <ele>103.4</ele>
        <time>2020-06-18T09:03:27Z</time>
      </trkpt>
      <trkpt lat="49.77377" lon="0.56334">
        <ele>103.5</ele>
        <time>2020-06-18T09:03:28Z</time>
      </trkpt>
      <trkpt lat="49.7738" lon="0.56343">
        <ele>103.6</ele>
        <time>2020-06-18T09:03:29Z</time>
      </trkpt>
      <trkpt lat="49.77382" lon="0.56352">
        <ele>103.7</ele>
        <time>2020-06-18T09:03:30Z</time>
      </trkpt>
      <trkpt lat="49.77384" lon="0.56361">
        <ele>103.8</ele>
        <time>2020-06-18T09:03:31Z</time>
      </trkpt>
      <trkpt lat="49.77387" lon="0.5637">
        <ele>103.9</ele>
        <time>2020-06-18T09:03:32Z</time>
      </trkpt>
      <trkpt lat="49.7739" lon="0.56378">
        <ele>104</ele>
        <time>2020-06-18T09:03:33Z</time>
      </trkpt>
      <trkpt lat="49.77392" lon="0.56387">
        <ele>104.1</ele>
        <time>2020-06-18T09:03:34Z</time>
      </trkpt>
      <trkpt lat="49.77396" lon="0.56394">
        <ele>104.2</ele>
        <time>2020-06-18T09:03:35Z</time>
      </trkpt>
      <trkpt lat="49.774" lon="0.56401">
        <ele>104.3</ele>
        <time>2020-06-18T09:03:36Z</time>
      </trkpt>
      <trkpt lat="49.77403" lon="0.56408">
        <ele>104.3</ele>
        <time>2020-06-18T09:03:37Z</time>
      </trkpt>
      <trkpt lat="49.77407" lon="0.56415">
        <ele>104.4</ele>
        <time>2020-06-18T09:03:38Z</time>
      </trkpt>
      <trkpt lat="49.7741" lon="0.56422">
        <ele>104.6</ele>
        <time>2020-06-18T09:03:39Z</time>
      </trkpt>
      <trkpt lat="49.77414" lon="0.56429">
        <ele>104.7</ele>
        <time>2020-06-18T09:03:40Z</time>
      </trkpt>
      <trkpt lat="49.77418" lon="0.56436">
        <ele>104.8</ele>
        <time>2020-06-18T09:03:41Z</time>
      </trkpt>
      <trkpt lat="49.77422" lon="0.56445">
        <ele>105</ele>
        <time>2020-06-18T09:03:42Z</time>
      </trkpt>
      <trkpt lat="49.77426" lon="0.56453">
        <ele>105.2</ele>
        <time>2020-06-18T09:03:43Z</time>
      </trkpt>
      <trkpt lat="49.77429" lon="0.56461">
        <ele>105.4</ele>
        <time>2020-06-18T09:03:44Z</time>
      </trkpt>
      <trkpt lat="49.77431" lon="0.56469">
        <ele>105.8</ele>
        <time>2020-06-18T09:03:45Z</time>
      </trkpt>
      <trkpt lat="49.77433" lon="0.56478">
        <ele>106.2</ele>
        <time>2020-06-18T09:03:46Z</time>
      </trkpt>
      <trkpt lat="49.77434" lon="0.56487">
        <ele>106.5</ele>
        <time>2020-06-18T09:03:47Z</time>
      </trkpt>
      <trkpt lat="49.77436" lon="0.56496">
        <ele>106.7</ele>
        <time>2020-06-18T09:03:48Z</time>
      </trkpt>
      <trkpt lat="49.77437" lon="0.56505">
        <ele>106.8</ele>
        <time>2020-06-18T09:03:49Z</time>
      </trkpt>
      <trkpt lat="49.77439" lon="0.56512">
        <ele>107</ele>
        <time>2020-06-18T09:03:50Z</time>
      </trkpt>
      <trkpt lat="49.77441" lon="0.56519">
        <ele>107.1</ele>
        <time>2020-06-18T09:03:51Z</time>
      </trkpt>
      <trkpt lat="49.77443" lon="0.56528">
        <ele>107.3</ele>
        <time>2020-06-18T09:03:52Z</time>
      </trkpt>
      <trkpt lat="49.77445" lon="0.56535">
        <ele>107.5</ele>
        <time>2020-06-18T09:03:53Z</time>
      </trkpt>
      <trkpt lat="49.77447" lon="0.56543">
        <ele>107.7</ele>
        <time>2020-06-18T09:03:54Z</time>
      </trkpt>
      <trkpt lat="49.77449" lon="0.56551">
        <ele>107.8</ele>
        <time>2020-06-18T09:03:55Z</time>
      </trkpt>
      <trkpt lat="49.77451" lon="0.5656">
        <ele>107.9</ele>
        <time>2020-06-18T09:03:56Z</time>
      </trkpt>
      <trkpt lat="49.77453" lon="0.56567">
        <ele>108.1</ele>
        <time>2020-06-18T09:03:57Z</time>
      </trkpt>
      <trkpt lat="49.77455" lon="0.56575">
        <ele>108.2</ele>
        <time>2020-06-18T09:03:58Z</time>
      </trkpt>
      <trkpt lat="49.77457" lon="0.56582">
        <ele>108.2</ele>
        <time>2020-06-18T09:03:59Z</time>
      </trkpt>
      <trkpt lat="49.77459" lon="0.5659">
        <ele>108.3</ele>
        <time>2020-06-18T09:04:00Z</time>
      </trkpt>
      <trkpt lat="49.77461" lon="0.56599">
        <ele>108.4</ele>
        <time>2020-06-18T09:04:01Z</time>
      </trkpt>
      <trkpt lat="49.77464" lon="0.56608">
        <ele>108.4</ele>
        <time>2020-06-18T09:04:02Z</time>
      </trkpt>
      <trkpt lat="49.77466" lon="0.56618">
        <ele>108.5</ele>
        <time>2020-06-18T09:04:03Z</time>
      </trkpt>
      <trkpt lat="49.77468" lon="0.56627">
        <ele>108.5</ele>
        <time>2020-06-18T09:04:04Z</time>
      </trkpt>
      <trkpt lat="49.7747" lon="0.56636">
        <ele>108.6</ele>
        <time>2020-06-18T09:04:05Z</time>
      </trkpt>
      <trkpt lat="49.77472" lon="0.56644">
        <ele>108.6</ele>
        <time>2020-06-18T09:04:06Z</time>
      </trkpt>
      <trkpt lat="49.77474" lon="0.56653">
        <ele>108.7</ele>
        <time>2020-06-18T09:04:07Z</time>
      </trkpt>
      <trkpt lat="49.77477" lon="0.56663">
        <ele>108.8</ele>
        <time>2020-06-18T09:04:08Z</time>
      </trkpt>
      <trkpt lat="49.77481" lon="0.56672">
        <ele>108.8</ele>
        <time>2020-06-18T09:04:09Z</time>
      </trkpt>
      <trkpt lat="49.77483" lon="0.5668">
        <ele>108.8</ele>
        <time>2020-06-18T09:04:10Z</time>
      </trkpt>
      <trkpt lat="49.77486" lon="0.56688">
        <ele>108.8</ele>
        <time>2020-06-18T09:04:11Z</time>
      </trkpt>
      <trkpt lat="49.77489" lon="0.56697">
        <ele>108.8</ele>
        <time>2020-06-18T09:04:12Z</time>
      </trkpt>
      <trkpt lat="49.77492" lon="0.56707">
        <ele>108.8</ele>
        <time>2020-06-18T09:04:13Z</time>
      </trkpt>
      <trkpt lat="49.77495" lon="0.56716">
        <ele>108.8</ele>
        <time>2020-06-18T09:04:14Z</time>
      </trkpt>
      <trkpt lat="49.77498" lon="0.56724">
        <ele>108.8</ele>
        <time>2020-06-18T09:04:15Z</time>
      </trkpt>
      <trkpt lat="49.77501" lon="0.56732">
        <ele>108.9</ele>
        <time>2020-06-18T09:04:16Z</time>
      </trkpt>
      <trkpt lat="49.77503" lon="0.56741">
        <ele>108.9</ele>
        <time>2020-06-18T09:04:17Z</time>
      </trkpt>
      <trkpt lat="49.77507" lon="0.5675">
        <ele>109</ele>
        <time>2020-06-18T09:04:18Z</time>
      </trkpt>
      <trkpt lat="49.7751" lon="0.56758">
        <ele>109</ele>
        <time>2020-06-18T09:04:19Z</time>
      </trkpt>
      <trkpt lat="49.77513" lon="0.56767">
        <ele>109.1</ele>
        <time>2020-06-18T09:04:20Z</time>
      </trkpt>
      <trkpt lat="49.77517" lon="0.56776">
        <ele>109.2</ele>
        <time>2020-06-18T09:04:21Z</time>
      </trkpt>
      <trkpt lat="49.77521" lon="0.56784">
        <ele>109.3</ele>
        <time>2020-06-18T09:04:22Z</time>
      </trkpt>
      <trkpt lat="49.77524" lon="0.56792">
        <ele>109.4</ele>
        <time>2020-06-18T09:04:23Z</time>
      </trkpt>
      <trkpt lat="49.77528" lon="0.56801">
        <ele>109.4</ele>
        <time>2020-06-18T09:04:24Z</time>
      </trkpt>
      <trkpt lat="49.77531" lon="0.56809">
        <ele>109.5</ele>
        <time>2020-06-18T09:04:25Z</time>
      </trkpt>
      <trkpt lat="49.77535" lon="0.56817">
        <ele>109.6</ele>
        <time>2020-06-18T09:04:26Z</time>
      </trkpt>
      <trkpt lat="49.77539" lon="0.56825">
        <ele>109.6</ele>
        <time>2020-06-18T09:04:27Z</time>
      </trkpt>
      <trkpt lat="49.77542" lon="0.56833">
        <ele>109.7</ele>
        <time>2020-06-18T09:04:28Z</time>
      </trkpt>
      <trkpt lat="49.77546" lon="0.56841">
        <ele>109.7</ele>
        <time>2020-06-18T09:04:29Z</time>
      </trkpt>
      <trkpt lat="49.7755" lon="0.5685">
        <ele>109.8</ele>
        <time>2020-06-18T09:04:30Z</time>
      </trkpt>
      <trkpt lat="49.77553" lon="0.56859">
        <ele>109.8</ele>
        <time>2020-06-18T09:04:31Z</time>
      </trkpt>
      <trkpt lat="49.77557" lon="0.56869">
        <ele>109.9</ele>
        <time>2020-06-18T09:04:32Z</time>
      </trkpt>
      <trkpt lat="49.77561" lon="0.56878">
        <ele>109.9</ele>
        <time>2020-06-18T09:04:33Z</time>
      </trkpt>
      <trkpt lat="49.77565" lon="0.56887">
        <ele>109.9</ele>
        <time>2020-06-18T09:04:34Z</time>
      </trkpt>
      <trkpt lat="49.77568" lon="0.56896">
        <ele>110</ele>
        <time>2020-06-18T09:04:35Z</time>
      </trkpt>
      <trkpt lat="49.77572" lon="0.56905">
        <ele>109.9</ele>
        <time>2020-06-18T09:04:36Z</time>
      </trkpt>
      <trkpt lat="49.77575" lon="0.56914">
        <ele>109.9</ele>
        <time>2020-06-18T09:04:37Z</time>
      </trkpt>
      <trkpt lat="49.77578" lon="0.56923">
        <ele>109.9</ele>
        <time>2020-06-18T09:04:38Z</time>
      </trkpt>
      <trkpt lat="49.77581" lon="0.56933">
        <ele>109.9</ele>
        <time>2020-06-18T09:04:39Z</time>
      </trkpt>
      <trkpt lat="49.77583" lon="0.56943">
        <ele>109.9</ele>
        <time>2020-06-18T09:04:40Z</time>
      </trkpt>
      <trkpt lat="49.77585" lon="0.56953">
        <ele>110</ele>
        <time>2020-06-18T09:04:41Z</time>
      </trkpt>
      <trkpt lat="49.77587" lon="0.56963">
        <ele>110</ele>
        <time>2020-06-18T09:04:42Z</time>
      </trkpt>
      <trkpt lat="49.77589" lon="0.56974">
        <ele>110</ele>
        <time>2020-06-18T09:04:43Z</time>
      </trkpt>
      <trkpt lat="49.77591" lon="0.56984">
        <ele>110.1</ele>
        <time>2020-06-18T09:04:44Z</time>
      </trkpt>
      <trkpt lat="49.77594" lon="0.56995">
        <ele>110.1</ele>
        <time>2020-06-18T09:04:45Z</time>
      </trkpt>
      <trkpt lat="49.77596" lon="0.57005">
        <ele>110.1</ele>
        <time>2020-06-18T09:04:46Z</time>
      </trkpt>
      <trkpt lat="49.77598" lon="0.57016">
        <ele>110</ele>
        <time>2020-06-18T09:04:47Z</time>
      </trkpt>
      <trkpt lat="49.776" lon="0.57026">
        <ele>110</ele>
        <time>2020-06-18T09:04:48Z</time>
      </trkpt>
      <trkpt lat="49.77603" lon="0.57036">
        <ele>110</ele>
        <time>2020-06-18T09:04:49Z</time>
      </trkpt>
      <trkpt lat="49.77605" lon="0.57046">
        <ele>110</ele>
        <time>2020-06-18T09:04:50Z</time>
      </trkpt>
      <trkpt lat="49.77608" lon="0.57056">
        <ele>110</ele>
        <time>2020-06-18T09:04:51Z</time>
      </trkpt>
      <trkpt lat="49.7761" lon="0.57066">
        <ele>110</ele>
        <time>2020-06-18T09:04:52Z</time>
      </trkpt>
      <trkpt lat="49.77613" lon="0.57075">
        <ele>110</ele>
        <time>2020-06-18T09:04:53Z</time>
      </trkpt>
      <trkpt lat="49.77615" lon="0.57086">
        <ele>110</ele>
        <time>2020-06-18T09:04:54Z</time>
      </trkpt>
      <trkpt lat="49.77618" lon="0.57095">
        <ele>110</ele>
        <time>2020-06-18T09:04:55Z</time>
      </trkpt>
      <trkpt lat="49.77621" lon="0.57105">
        <ele>109.9</ele>
        <time>2020-06-18T09:04:56Z</time>
      </trkpt>
      <trkpt lat="49.77623" lon="0.57116">
        <ele>109.9</ele>
        <time>2020-06-18T09:04:57Z</time>
      </trkpt>
      <trkpt lat="49.77626" lon="0.57126">
        <ele>109.9</ele>
        <time>2020-06-18T09:04:58Z</time>
      </trkpt>
      <trkpt lat="49.77629" lon="0.57135">
        <ele>109.9</ele>
        <time>2020-06-18T09:04:59Z</time>
      </trkpt>
      <trkpt lat="49.77633" lon="0.57145">
        <ele>109.9</ele>
        <time>2020-06-18T09:05:00Z</time>
      </trkpt>
      <trkpt lat="49.77635" lon="0.57155">
        <ele>109.9</ele>
        <time>2020-06-18T09:05:01Z</time>
      </trkpt>
      <trkpt lat="49.77638" lon="0.57165">
        <ele>109.9</ele>
        <time>2020-06-18T09:05:02Z</time>
      </trkpt>
      <trkpt lat="49.77642" lon="0.57175">
        <ele>109.9</ele>
        <time>2020-06-18T09:05:03Z</time>
      </trkpt>
      <trkpt lat="49.77646" lon="0.57183">
        <ele>109.8</ele>
        <time>2020-06-18T09:05:04Z</time>
      </trkpt>
      <trkpt lat="49.77649" lon="0.57192">
        <ele>109.8</ele>
        <time>2020-06-18T09:05:05Z</time>
      </trkpt>
      <trkpt lat="49.77652" lon="0.57202">
        <ele>109.8</ele>
        <time>2020-06-18T09:05:06Z</time>
      </trkpt>
      <trkpt lat="49.77654" lon="0.57212">
        <ele>109.7</ele>
        <time>2020-06-18T09:05:07Z</time>
      </trkpt>
      <trkpt lat="49.77657" lon="0.57222">
        <ele>109.7</ele>
        <time>2020-06-18T09:05:08Z</time>
      </trkpt>
      <trkpt lat="49.7766" lon="0.57232">
        <ele>109.7</ele>
        <time>2020-06-18T09:05:09Z</time>
      </trkpt>
      <trkpt lat="49.77663" lon="0.57241">
        <ele>109.6</ele>
        <time>2020-06-18T09:05:10Z</time>
      </trkpt>
      <trkpt lat="49.77667" lon="0.5725">
        <ele>109.6</ele>
        <time>2020-06-18T09:05:11Z</time>
      </trkpt>
      <trkpt lat="49.7767" lon="0.57259">
        <ele>109.5</ele>
        <time>2020-06-18T09:05:12Z</time>
      </trkpt>
      <trkpt lat="49.77673" lon="0.57269">
        <ele>109.5</ele>
        <time>2020-06-18T09:05:13Z</time>
      </trkpt>
      <trkpt lat="49.77676" lon="0.57278">
        <ele>109.4</ele>
        <time>2020-06-18T09:05:14Z</time>
      </trkpt>
      <trkpt lat="49.77679" lon="0.57288">
        <ele>109.3</ele>
        <time>2020-06-18T09:05:15Z</time>
      </trkpt>
      <trkpt lat="49.77683" lon="0.57296">
        <ele>109.2</ele>
        <time>2020-06-18T09:05:16Z</time>
      </trkpt>
      <trkpt lat="49.77687" lon="0.57305">
        <ele>109.3</ele>
        <time>2020-06-18T09:05:17Z</time>
      </trkpt>
      <trkpt lat="49.7769" lon="0.57314">
        <ele>109.2</ele>
        <time>2020-06-18T09:05:18Z</time>
      </trkpt>
      <trkpt lat="49.77693" lon="0.57324">
        <ele>109.2</ele>
        <time>2020-06-18T09:05:19Z</time>
      </trkpt>
      <trkpt lat="49.77697" lon="0.57333">
        <ele>109.2</ele>
        <time>2020-06-18T09:05:20Z</time>
      </trkpt>
      <trkpt lat="49.77701" lon="0.57342">
        <ele>109.2</ele>
        <time>2020-06-18T09:05:21Z</time>
      </trkpt>
      <trkpt lat="49.77705" lon="0.5735">
        <ele>109.2</ele>
        <time>2020-06-18T09:05:22Z</time>
      </trkpt>
      <trkpt lat="49.77709" lon="0.57359">
        <ele>109.1</ele>
        <time>2020-06-18T09:05:23Z</time>
      </trkpt>
      <trkpt lat="49.77712" lon="0.57368">
        <ele>109.1</ele>
        <time>2020-06-18T09:05:24Z</time>
      </trkpt>
      <trkpt lat="49.77716" lon="0.57377">
        <ele>109</ele>
        <time>2020-06-18T09:05:25Z</time>
      </trkpt>
      <trkpt lat="49.7772" lon="0.57386">
        <ele>108.9</ele>
        <time>2020-06-18T09:05:26Z</time>
      </trkpt>
      <trkpt lat="49.77724" lon="0.57396">
        <ele>108.9</ele>
        <time>2020-06-18T09:05:27Z</time>
      </trkpt>
      <trkpt lat="49.77728" lon="0.57406">
        <ele>108.8</ele>
        <time>2020-06-18T09:05:28Z</time>
      </trkpt>
      <trkpt lat="49.77732" lon="0.57415">
        <ele>108.8</ele>
        <time>2020-06-18T09:05:29Z</time>
      </trkpt>
      <trkpt lat="49.77736" lon="0.57424">
        <ele>108.7</ele>
        <time>2020-06-18T09:05:30Z</time>
      </trkpt>
      <trkpt lat="49.7774" lon="0.57434">
        <ele>108.7</ele>
        <time>2020-06-18T09:05:31Z</time>
      </trkpt>
      <trkpt lat="49.77744" lon="0.57443">
        <ele>108.6</ele>
        <time>2020-06-18T09:05:32Z</time>
      </trkpt>
      <trkpt lat="49.77748" lon="0.57452">
        <ele>108.5</ele>
        <time>2020-06-18T09:05:33Z</time>
      </trkpt>
      <trkpt lat="49.77752" lon="0.57462">
        <ele>108.4</ele>
        <time>2020-06-18T09:05:34Z</time>
      </trkpt>
      <trkpt lat="49.77756" lon="0.57472">
        <ele>108.4</ele>
        <time>2020-06-18T09:05:35Z</time>
      </trkpt>
      <trkpt lat="49.7776" lon="0.57481">
        <ele>108.3</ele>
        <time>2020-06-18T09:05:36Z</time>
      </trkpt>
      <trkpt lat="49.77764" lon="0.57491">
        <ele>108.3</ele>
        <time>2020-06-18T09:05:37Z</time>
      </trkpt>
      <trkpt lat="49.77768" lon="0.575">
        <ele>108.2</ele>
        <time>2020-06-18T09:05:38Z</time>
      </trkpt>
      <trkpt lat="49.77772" lon="0.5751">
        <ele>108.1</ele>
        <time>2020-06-18T09:05:39Z</time>
      </trkpt>
      <trkpt lat="49.77776" lon="0.5752">
        <ele>108</ele>
        <time>2020-06-18T09:05:40Z</time>
      </trkpt>
      <trkpt lat="49.7778" lon="0.5753">
        <ele>108</ele>
        <time>2020-06-18T09:05:41Z</time>
      </trkpt>
      <trkpt lat="49.77784" lon="0.5754">
        <ele>107.9</ele>
        <time>2020-06-18T09:05:42Z</time>
      </trkpt>
      <trkpt lat="49.77788" lon="0.57549">
        <ele>107.9</ele>
        <time>2020-06-18T09:05:43Z</time>
      </trkpt>
      <trkpt lat="49.77792" lon="0.57559">
        <ele>107.9</ele>
        <time>2020-06-18T09:05:44Z</time>
      </trkpt>
      <trkpt lat="49.77796" lon="0.57569">
        <ele>107.9</ele>
        <time>2020-06-18T09:05:45Z</time>
      </trkpt>
      <trkpt lat="49.778" lon="0.57579">
        <ele>107.9</ele>
        <time>2020-06-18T09:05:46Z</time>
      </trkpt>
      <trkpt lat="49.77804" lon="0.57589">
        <ele>107.9</ele>
        <time>2020-06-18T09:05:47Z</time>
      </trkpt>
      <trkpt lat="49.77808" lon="0.576">
        <ele>107.9</ele>
        <time>2020-06-18T09:05:48Z</time>
      </trkpt>
      <trkpt lat="49.77812" lon="0.5761">
        <ele>107.8</ele>
        <time>2020-06-18T09:05:49Z</time>
      </trkpt>
      <trkpt lat="49.77815" lon="0.5762">
        <ele>107.8</ele>
        <time>2020-06-18T09:05:50Z</time>
      </trkpt>
      <trkpt lat="49.77819" lon="0.5763">
        <ele>107.8</ele>
        <time>2020-06-18T09:05:51Z</time>
      </trkpt>
      <trkpt lat="49.77823" lon="0.57641">
        <ele>107.8</ele>
        <time>2020-06-18T09:05:52Z</time>
      </trkpt>
      <trkpt lat="49.77826" lon="0.57652">
        <ele>107.8</ele>
        <time>2020-06-18T09:05:53Z</time>
      </trkpt>
      <trkpt lat="49.77829" lon="0.57662">
        <ele>107.9</ele>
        <time>2020-06-18T09:05:54Z</time>
      </trkpt>
      <trkpt lat="49.77832" lon="0.57673">
        <ele>107.9</ele>
        <time>2020-06-18T09:05:55Z</time>
      </trkpt>
      <trkpt lat="49.77836" lon="0.57682">
        <ele>107.9</ele>
        <time>2020-06-18T09:05:56Z</time>
      </trkpt>
      <trkpt lat="49.77839" lon="0.57693">
        <ele>107.9</ele>
        <time>2020-06-18T09:05:57Z</time>
      </trkpt>
      <trkpt lat="49.77841" lon="0.57703">
        <ele>107.9</ele>
        <time>2020-06-18T09:05:58Z</time>
      </trkpt>
      <trkpt lat="49.77844" lon="0.57714">
        <ele>108</ele>
        <time>2020-06-18T09:05:59Z</time>
      </trkpt>
      <trkpt lat="49.77847" lon="0.57725">
        <ele>108.1</ele>
        <time>2020-06-18T09:06:00Z</time>
      </trkpt>
      <trkpt lat="49.77849" lon="0.57736">
        <ele>108.2</ele>
        <time>2020-06-18T09:06:01Z</time>
      </trkpt>
      <trkpt lat="49.77852" lon="0.57747">
        <ele>108.3</ele>
        <time>2020-06-18T09:06:02Z</time>
      </trkpt>
      <trkpt lat="49.77855" lon="0.57757">
        <ele>108.4</ele>
        <time>2020-06-18T09:06:03Z</time>
      </trkpt>
      <trkpt lat="49.77858" lon="0.57768">
        <ele>108.5</ele>
        <time>2020-06-18T09:06:04Z</time>
      </trkpt>
      <trkpt lat="49.77862" lon="0.57779">
        <ele>108.5</ele>
        <time>2020-06-18T09:06:05Z</time>
      </trkpt>
      <trkpt lat="49.77865" lon="0.5779">
        <ele>108.6</ele>
        <time>2020-06-18T09:06:06Z</time>
      </trkpt>
      <trkpt lat="49.77868" lon="0.57801">
        <ele>108.7</ele>
        <time>2020-06-18T09:06:07Z</time>
      </trkpt>
      <trkpt lat="49.77871" lon="0.57812">
        <ele>108.7</ele>
        <time>2020-06-18T09:06:08Z</time>
      </trkpt>
      <trkpt lat="49.77874" lon="0.57823">
        <ele>108.8</ele>
        <time>2020-06-18T09:06:09Z</time>
      </trkpt>
      <trkpt lat="49.77877" lon="0.57834">
        <ele>108.9</ele>
        <time>2020-06-18T09:06:10Z</time>
      </trkpt>
      <trkpt lat="49.7788" lon="0.57845">
        <ele>109</ele>
        <time>2020-06-18T09:06:11Z</time>
      </trkpt>
      <trkpt lat="49.77883" lon="0.57856">
        <ele>109.2</ele>
        <time>2020-06-18T09:06:12Z</time>
      </trkpt>
      <trkpt lat="49.77886" lon="0.57867">
        <ele>109.3</ele>
        <time>2020-06-18T09:06:13Z</time>
      </trkpt>
      <trkpt lat="49.77889" lon="0.57878">
        <ele>109.4</ele>
        <time>2020-06-18T09:06:14Z</time>
      </trkpt>
      <trkpt lat="49.77892" lon="0.57889">
        <ele>109.5</ele>
        <time>2020-06-18T09:06:15Z</time>
      </trkpt>
      <trkpt lat="49.77895" lon="0.579">
        <ele>109.6</ele>
        <time>2020-06-18T09:06:16Z</time>
      </trkpt>
      <trkpt lat="49.77898" lon="0.57911">
        <ele>109.8</ele>
        <time>2020-06-18T09:06:17Z</time>
      </trkpt>
      <trkpt lat="49.77901" lon="0.57921">
        <ele>109.8</ele>
        <time>2020-06-18T09:06:18Z</time>
      </trkpt>
      <trkpt lat="49.77905" lon="0.57932">
        <ele>109.9</ele>
        <time>2020-06-18T09:06:19Z</time>
      </trkpt>
      <trkpt lat="49.77908" lon="0.57943">
        <ele>110</ele>
        <time>2020-06-18T09:06:20Z</time>
      </trkpt>
      <trkpt lat="49.77911" lon="0.57953">
        <ele>110.1</ele>
        <time>2020-06-18T09:06:21Z</time>
      </trkpt>
      <trkpt lat="49.77915" lon="0.57964">
        <ele>110.2</ele>
        <time>2020-06-18T09:06:22Z</time>
      </trkpt>
      <trkpt lat="49.77919" lon="0.57973">
        <ele>110.3</ele>
        <time>2020-06-18T09:06:23Z</time>
      </trkpt>
      <trkpt lat="49.77922" lon="0.57983">
        <ele>110.4</ele>
        <time>2020-06-18T09:06:24Z</time>
      </trkpt>
      <trkpt lat="49.77927" lon="0.57993">
        <ele>110.5</ele>
        <time>2020-06-18T09:06:25Z</time>
      </trkpt>
      <trkpt lat="49.77931" lon="0.58003">
        <ele>110.5</ele>
        <time>2020-06-18T09:06:26Z</time>
      </trkpt>
      <trkpt lat="49.77935" lon="0.58012">
        <ele>110.5</ele>
        <time>2020-06-18T09:06:27Z</time>
      </trkpt>
      <trkpt lat="49.77939" lon="0.58022">
        <ele>110.5</ele>
        <time>2020-06-18T09:06:28Z</time>
      </trkpt>
      <trkpt lat="49.77943" lon="0.58032">
        <ele>110.5</ele>
        <time>2020-06-18T09:06:29Z</time>
      </trkpt>
      <trkpt lat="49.77948" lon="0.58041">
        <ele>110.5</ele>
        <time>2020-06-18T09:06:30Z</time>
      </trkpt>
      <trkpt lat="49.77952" lon="0.5805">
        <ele>110.5</ele>
        <time>2020-06-18T09:06:31Z</time>
      </trkpt>
      <trkpt lat="49.77957" lon="0.58059">
        <ele>110.6</ele>
        <time>2020-06-18T09:06:32Z</time>
      </trkpt>
      <trkpt lat="49.77962" lon="0.58068">
        <ele>110.6</ele>
        <time>2020-06-18T09:06:33Z</time>
      </trkpt>
      <trkpt lat="49.77967" lon="0.58076">
        <ele>110.6</ele>
        <time>2020-06-18T09:06:34Z</time>
      </trkpt>
      <trkpt lat="49.77972" lon="0.58084">
        <ele>110.6</ele>
        <time>2020-06-18T09:06:35Z</time>
      </trkpt>
      <trkpt lat="49.77977" lon="0.58092">
        <ele>110.5</ele>
        <time>2020-06-18T09:06:36Z</time>
      </trkpt>
      <trkpt lat="49.77983" lon="0.581">
        <ele>110.5</ele>
        <time>2020-06-18T09:06:37Z</time>
      </trkpt>
      <trkpt lat="49.77988" lon="0.58108">
        <ele>110.4</ele>
        <time>2020-06-18T09:06:38Z</time>
      </trkpt>
      <trkpt lat="49.77994" lon="0.58115">
        <ele>110.3</ele>
        <time>2020-06-18T09:06:39Z</time>
      </trkpt>
      <trkpt lat="49.77999" lon="0.58123">
        <ele>110.2</ele>
        <time>2020-06-18T09:06:40Z</time>
      </trkpt>
      <trkpt lat="49.78004" lon="0.5813">
        <ele>110.1</ele>
        <time>2020-06-18T09:06:41Z</time>
      </trkpt>
      <trkpt lat="49.7801" lon="0.58138">
        <ele>110</ele>
        <time>2020-06-18T09:06:42Z</time>
      </trkpt>
      <trkpt lat="49.78015" lon="0.58145">
        <ele>109.9</ele>
        <time>2020-06-18T09:06:43Z</time>
      </trkpt>
      <trkpt lat="49.78021" lon="0.58152">
        <ele>109.8</ele>
        <time>2020-06-18T09:06:44Z</time>
      </trkpt>
      <trkpt lat="49.78026" lon="0.58159">
        <ele>109.8</ele>
        <time>2020-06-18T09:06:45Z</time>
      </trkpt>
      <trkpt lat="49.78031" lon="0.58166">
        <ele>109.7</ele>
        <time>2020-06-18T09:06:46Z</time>
      </trkpt>
      <trkpt lat="49.78036" lon="0.58174">
        <ele>109.6</ele>
        <time>2020-06-18T09:06:47Z</time>
      </trkpt>
      <trkpt lat="49.78041" lon="0.58181">
        <ele>109.5</ele>
        <time>2020-06-18T09:06:48Z</time>
      </trkpt>
      <trkpt lat="49.78046" lon="0.58188">
        <ele>109.4</ele>
        <time>2020-06-18T09:06:49Z</time>
      </trkpt>
      <trkpt lat="49.78052" lon="0.58195">
        <ele>109.4</ele>
        <time>2020-06-18T09:06:50Z</time>
      </trkpt>
      <trkpt lat="49.78057" lon="0.58202">
        <ele>109.3</ele>
        <time>2020-06-18T09:06:51Z</time>
      </trkpt>
      <trkpt lat="49.78062" lon="0.58209">
        <ele>109.2</ele>
        <time>2020-06-18T09:06:52Z</time>
      </trkpt>
      <trkpt lat="49.78066" lon="0.58216">
        <ele>109.2</ele>
        <time>2020-06-18T09:06:53Z</time>
      </trkpt>
      <trkpt lat="49.78071" lon="0.58223">
        <ele>109.2</ele>
        <time>2020-06-18T09:06:54Z</time>
      </trkpt>
      <trkpt lat="49.78076" lon="0.5823">
        <ele>109.2</ele>
        <time>2020-06-18T09:06:55Z</time>
      </trkpt>
      <trkpt lat="49.7808" lon="0.58236">
        <ele>109.2</ele>
        <time>2020-06-18T09:06:56Z</time>
      </trkpt>
      <trkpt lat="49.78085" lon="0.58242">
        <ele>109.2</ele>
        <time>2020-06-18T09:06:57Z</time>
      </trkpt>
      <trkpt lat="49.7809" lon="0.58249">
        <ele>109.2</ele>
        <time>2020-06-18T09:06:58Z</time>
      </trkpt>
      <trkpt lat="49.78094" lon="0.58255">
        <ele>109.2</ele>
        <time>2020-06-18T09:06:59Z</time>
      </trkpt>
      <trkpt lat="49.78099" lon="0.58261">
        <ele>109.2</ele>
        <time>2020-06-18T09:07:00Z</time>
      </trkpt>
      <trkpt lat="49.78104" lon="0.58268">
        <ele>109.2</ele>
        <time>2020-06-18T09:07:01Z</time>
      </trkpt>
      <trkpt lat="49.78109" lon="0.58274">
        <ele>109.2</ele>
        <time>2020-06-18T09:07:02Z</time>
      </trkpt>
      <trkpt lat="49.78114" lon="0.58281">
        <ele>109.2</ele>
        <time>2020-06-18T09:07:03Z</time>
      </trkpt>
      <trkpt lat="49.78119" lon="0.58287">
        <ele>109.2</ele>
        <time>2020-06-18T09:07:04Z</time>
      </trkpt>
      <trkpt lat="49.78124" lon="0.58294">
        <ele>109.2</ele>
        <time>2020-06-18T09:07:05Z</time>
      </trkpt>
      <trkpt lat="49.78129" lon="0.58301">
        <ele>109.2</ele>
        <time>2020-06-18T09:07:06Z</time>
      </trkpt>
      <trkpt lat="49.78134" lon="0.58307">
        <ele>109.1</ele>
        <time>2020-06-18T09:07:07Z</time>
      </trkpt>
      <trkpt lat="49.78138" lon="0.58314">
        <ele>109.1</ele>
        <time>2020-06-18T09:07:08Z</time>
      </trkpt>
      <trkpt lat="49.78142" lon="0.58321">
        <ele>109.1</ele>
        <time>2020-06-18T09:07:09Z</time>
      </trkpt>
      <trkpt lat="49.78147" lon="0.58328">
        <ele>109.1</ele>
        <time>2020-06-18T09:07:10Z</time>
      </trkpt>
      <trkpt lat="49.78151" lon="0.58334">
        <ele>109.2</ele>
        <time>2020-06-18T09:07:11Z</time>
      </trkpt>
      <trkpt lat="49.78155" lon="0.5834">
        <ele>109.2</ele>
        <time>2020-06-18T09:07:12Z</time>
      </trkpt>
      <trkpt lat="49.7816" lon="0.58346">
        <ele>109.1</ele>
        <time>2020-06-18T09:07:13Z</time>
      </trkpt>
      <trkpt lat="49.78164" lon="0.58352">
        <ele>109.1</ele>
        <time>2020-06-18T09:07:14Z</time>
      </trkpt>
      <trkpt lat="49.78169" lon="0.58358">
        <ele>109.1</ele>
        <time>2020-06-18T09:07:15Z</time>
      </trkpt>
      <trkpt lat="49.78173" lon="0.58363">
        <ele>109.1</ele>
        <time>2020-06-18T09:07:16Z</time>
      </trkpt>
      <trkpt lat="49.78177" lon="0.5837">
        <ele>109.2</ele>
        <time>2020-06-18T09:07:17Z</time>
      </trkpt>
      <trkpt lat="49.78181" lon="0.58375">
        <ele>109.2</ele>
        <time>2020-06-18T09:07:18Z</time>
      </trkpt>
      <trkpt lat="49.78185" lon="0.5838">
        <ele>109.3</ele>
        <time>2020-06-18T09:07:19Z</time>
      </trkpt>
      <trkpt lat="49.78189" lon="0.58385">
        <ele>109.3</ele>
        <time>2020-06-18T09:07:20Z</time>
      </trkpt>
      <trkpt lat="49.78193" lon="0.58389">
        <ele>109.4</ele>
        <time>2020-06-18T09:07:21Z</time>
      </trkpt>
      <trkpt lat="49.78195" lon="0.58395">
        <ele>109.4</ele>
        <time>2020-06-18T09:07:22Z</time>
      </trkpt>
      <trkpt lat="49.78197" lon="0.58401">
        <ele>109.4</ele>
        <time>2020-06-18T09:07:23Z</time>
      </trkpt>
      <trkpt lat="49.78198" lon="0.58408">
        <ele>109.5</ele>
        <time>2020-06-18T09:07:24Z</time>
      </trkpt>
      <trkpt lat="49.78198" lon="0.58415">
        <ele>109.5</ele>
        <time>2020-06-18T09:07:25Z</time>
      </trkpt>
      <trkpt lat="49.78198" lon="0.58421">
        <ele>109.8</ele>
        <time>2020-06-18T09:07:26Z</time>
      </trkpt>
      <trkpt lat="49.78199" lon="0.58426">
        <ele>109.8</ele>
        <time>2020-06-18T09:07:27Z</time>
      </trkpt>
      <trkpt lat="49.78201" lon="0.5843">
        <ele>109.9</ele>
        <time>2020-06-18T09:07:28Z</time>
      </trkpt>
      <trkpt lat="49.78202" lon="0.58433">
        <ele>109.9</ele>
        <time>2020-06-18T09:07:29Z</time>
      </trkpt>
      <trkpt lat="49.78206" lon="0.58433">
        <ele>110</ele>
        <time>2020-06-18T09:07:30Z</time>
      </trkpt>
      <trkpt lat="49.78208" lon="0.58432">
        <ele>110</ele>
        <time>2020-06-18T09:07:31Z</time>
      </trkpt>
      <trkpt lat="49.78211" lon="0.58431">
        <ele>110</ele>
        <time>2020-06-18T09:07:32Z</time>
      </trkpt>
      <trkpt lat="49.78214" lon="0.58431">
        <ele>110</ele>
        <time>2020-06-18T09:07:33Z</time>
      </trkpt>
      <trkpt lat="49.78217" lon="0.58431">
        <ele>110</ele>
        <time>2020-06-18T09:07:34Z</time>
      </trkpt>
      <trkpt lat="49.78218" lon="0.58431">
        <ele>110</ele>
        <time>2020-06-18T09:07:35Z</time>
      </trkpt>
      <trkpt lat="49.7822" lon="0.5843">
        <ele>110</ele>
        <time>2020-06-18T09:07:36Z</time>
      </trkpt>
      <trkpt lat="49.78221" lon="0.58429">
        <ele>110</ele>
        <time>2020-06-18T09:07:37Z</time>
      </trkpt>
      <trkpt lat="49.78221" lon="0.58426">
        <ele>110</ele>
        <time>2020-06-18T09:07:38Z</time>
      </trkpt>
      <trkpt lat="49.7822" lon="0.58424">
        <ele>110</ele>
        <time>2020-06-18T09:07:39Z</time>
      </trkpt>
      <trkpt lat="49.7822" lon="0.58423">
        <ele>110</ele>
        <time>2020-06-18T09:07:40Z</time>
      </trkpt>
      <trkpt lat="49.78217" lon="0.58422">
        <ele>110</ele>
        <time>2020-06-18T09:07:41Z</time>
      </trkpt>
      <trkpt lat="49.78216" lon="0.58422">
        <ele>110</ele>
        <time>2020-06-18T09:07:42Z</time>
      </trkpt>
      <trkpt lat="49.78212" lon="0.58423">
        <ele>110</ele>
        <time>2020-06-18T09:07:43Z</time>
      </trkpt>
      <trkpt lat="49.78211" lon="0.58424">
        <ele>110</ele>
        <time>2020-06-18T09:07:44Z</time>
      </trkpt>
      <trkpt lat="49.78209" lon="0.58424">
        <ele>110</ele>
        <time>2020-06-18T09:07:45Z</time>
      </trkpt>
      <trkpt lat="49.78208" lon="0.58425">
        <ele>110</ele>
        <time>2020-06-18T09:07:46Z</time>
      </trkpt>
      <trkpt lat="49.78207" lon="0.58425">
        <ele>110</ele>
        <time>2020-06-18T09:07:47Z</time>
      </trkpt>
      <trkpt lat="49.78206" lon="0.58426">
        <ele>110</ele>
        <time>2020-06-18T09:07:48Z</time>
      </trkpt>
      <trkpt lat="49.78205" lon="0.58426">
        <ele>110</ele>
        <time>2020-06-18T09:07:49Z</time>
      </trkpt>
      <trkpt lat="49.78204" lon="0.58427">
        <ele>110</ele>
        <time>2020-06-18T09:07:50Z</time>
      </trkpt>
      <trkpt lat="49.78203" lon="0.58428">
        <ele>110</ele>
        <time>2020-06-18T09:07:51Z</time>
      </trkpt>
      <trkpt lat="49.78201" lon="0.58428">
        <ele>110</ele>
        <time>2020-06-18T09:07:52Z</time>
      </trkpt>
      <trkpt lat="49.78199" lon="0.58433">
        <ele>110</ele>
        <time>2020-06-18T09:07:53Z</time>
      </trkpt>
      <trkpt lat="49.78199" lon="0.58435">
        <ele>110</ele>
        <time>2020-06-18T09:07:54Z</time>
      </trkpt>
      <trkpt lat="49.782" lon="0.58439">
        <ele>110</ele>
        <time>2020-06-18T09:07:55Z</time>
      </trkpt>
      <trkpt lat="49.782" lon="0.58444">
        <ele>110</ele>
        <time>2020-06-18T09:07:56Z</time>
      </trkpt>
      <trkpt lat="49.782" lon="0.5845">
        <ele>110</ele>
        <time>2020-06-18T09:07:57Z</time>
      </trkpt>
      <trkpt lat="49.78199" lon="0.58456">
        <ele>110</ele>
        <time>2020-06-18T09:07:58Z</time>
      </trkpt>
      <trkpt lat="49.78199" lon="0.58463">
        <ele>110</ele>
        <time>2020-06-18T09:07:59Z</time>
      </trkpt>
      <trkpt lat="49.78199" lon="0.5847">
        <ele>110</ele>
        <time>2020-06-18T09:08:00Z</time>
      </trkpt>
      <trkpt lat="49.78199" lon="0.58479">
        <ele>110</ele>
        <time>2020-06-18T09:08:01Z</time>
      </trkpt>
      <trkpt lat="49.782" lon="0.58487">
        <ele>110</ele>
        <time>2020-06-18T09:08:02Z</time>
      </trkpt>
      <trkpt lat="49.782" lon="0.58497">
        <ele>110</ele>
        <time>2020-06-18T09:08:03Z</time>
      </trkpt>
      <trkpt lat="49.782" lon="0.58506">
        <ele>110.1</ele>
        <time>2020-06-18T09:08:04Z</time>
      </trkpt>
      <trkpt lat="49.78201" lon="0.58515">
        <ele>110.1</ele>
        <time>2020-06-18T09:08:05Z</time>
      </trkpt>
      <trkpt lat="49.78201" lon="0.58525">
        <ele>110.1</ele>
        <time>2020-06-18T09:08:06Z</time>
      </trkpt>
      <trkpt lat="49.78201" lon="0.58535">
        <ele>110.2</ele>
        <time>2020-06-18T09:08:07Z</time>
      </trkpt>
      <trkpt lat="49.78202" lon="0.58545">
        <ele>110.3</ele>
        <time>2020-06-18T09:08:08Z</time>
      </trkpt>
      <trkpt lat="49.78203" lon="0.58554">
        <ele>110.3</ele>
        <time>2020-06-18T09:08:09Z</time>
      </trkpt>
      <trkpt lat="49.78204" lon="0.58564">
        <ele>110.4</ele>
        <time>2020-06-18T09:08:10Z</time>
      </trkpt>
      <trkpt lat="49.78205" lon="0.58574">
        <ele>110.5</ele>
        <time>2020-06-18T09:08:11Z</time>
      </trkpt>
      <trkpt lat="49.78206" lon="0.58585">
        <ele>110.5</ele>
        <time>2020-06-18T09:08:12Z</time>
      </trkpt>
      <trkpt lat="49.78207" lon="0.58595">
        <ele>110.6</ele>
        <time>2020-06-18T09:08:13Z</time>
      </trkpt>
      <trkpt lat="49.78207" lon="0.58606">
        <ele>110.6</ele>
        <time>2020-06-18T09:08:14Z</time>
      </trkpt>
      <trkpt lat="49.78208" lon="0.58618">
        <ele>110.7</ele>
        <time>2020-06-18T09:08:15Z</time>
      </trkpt>
      <trkpt lat="49.78208" lon="0.5863">
        <ele>110.7</ele>
        <time>2020-06-18T09:08:16Z</time>
      </trkpt>
      <trkpt lat="49.78209" lon="0.58645">
        <ele>110.8</ele>
        <time>2020-06-18T09:08:17Z</time>
      </trkpt>
      <trkpt lat="49.7821" lon="0.58656">
        <ele>110.8</ele>
        <time>2020-06-18T09:08:18Z</time>
      </trkpt>
      <trkpt lat="49.78211" lon="0.5867">
        <ele>110.8</ele>
        <time>2020-06-18T09:08:19Z</time>
      </trkpt>
      <trkpt lat="49.78211" lon="0.58682">
        <ele>110.9</ele>
        <time>2020-06-18T09:08:20Z</time>
      </trkpt>
      <trkpt lat="49.78211" lon="0.58693">
        <ele>110.9</ele>
        <time>2020-06-18T09:08:21Z</time>
      </trkpt>
      <trkpt lat="49.78212" lon="0.58705">
        <ele>110.9</ele>
        <time>2020-06-18T09:08:22Z</time>
      </trkpt>
      <trkpt lat="49.78212" lon="0.58717">
        <ele>110.9</ele>
        <time>2020-06-18T09:08:23Z</time>
      </trkpt>
      <trkpt lat="49.78213" lon="0.58728">
        <ele>111</ele>
        <time>2020-06-18T09:08:24Z</time>
      </trkpt>
      <trkpt lat="49.78213" lon="0.58739">
        <ele>111</ele>
        <time>2020-06-18T09:08:25Z</time>
      </trkpt>
      <trkpt lat="49.78213" lon="0.58751">
        <ele>111.1</ele>
        <time>2020-06-18T09:08:26Z</time>
      </trkpt>
      <trkpt lat="49.78214" lon="0.58762">
        <ele>111.1</ele>
        <time>2020-06-18T09:08:27Z</time>
      </trkpt>
      <trkpt lat="49.78214" lon="0.58773">
        <ele>111.1</ele>
        <time>2020-06-18T09:08:28Z</time>
      </trkpt>
      <trkpt lat="49.78215" lon="0.58784">
        <ele>111.2</ele>
        <time>2020-06-18T09:08:29Z</time>
      </trkpt>
      <trkpt lat="49.78215" lon="0.58796">
        <ele>111.2</ele>
        <time>2020-06-18T09:08:30Z</time>
      </trkpt>
      <trkpt lat="49.78216" lon="0.58807">
        <ele>111.2</ele>
        <time>2020-06-18T09:08:31Z</time>
      </trkpt>
      <trkpt lat="49.78216" lon="0.58819">
        <ele>111.2</ele>
        <time>2020-06-18T09:08:32Z</time>
      </trkpt>
      <trkpt lat="49.78217" lon="0.58831">
        <ele>111.2</ele>
        <time>2020-06-18T09:08:33Z</time>
      </trkpt>
      <trkpt lat="49.78219" lon="0.58842">
        <ele>111.2</ele>
        <time>2020-06-18T09:08:34Z</time>
      </trkpt>
      <trkpt lat="49.78219" lon="0.58854">
        <ele>111.2</ele>
        <time>2020-06-18T09:08:35Z</time>
      </trkpt>
      <trkpt lat="49.7822" lon="0.58866">
        <ele>111.2</ele>
        <time>2020-06-18T09:08:36Z</time>
      </trkpt>
      <trkpt lat="49.7822" lon="0.58878">
        <ele>111.2</ele>
        <time>2020-06-18T09:08:37Z</time>
      </trkpt>
      <trkpt lat="49.78221" lon="0.5889">
        <ele>111.3</ele>
        <time>2020-06-18T09:08:38Z</time>
      </trkpt>
      <trkpt lat="49.78221" lon="0.58902">
        <ele>111.3</ele>
        <time>2020-06-18T09:08:39Z</time>
      </trkpt>
      <trkpt lat="49.78222" lon="0.58914">
        <ele>111.3</ele>
        <time>2020-06-18T09:08:40Z</time>
      </trkpt>
      <trkpt lat="49.78222" lon="0.58926">
        <ele>111.4</ele>
        <time>2020-06-18T09:08:41Z</time>
      </trkpt>
      <trkpt lat="49.78221" lon="0.58938">
        <ele>111.4</ele>
        <time>2020-06-18T09:08:42Z</time>
      </trkpt>
      <trkpt lat="49.78222" lon="0.5895">
        <ele>111.4</ele>
        <time>2020-06-18T09:08:43Z</time>
      </trkpt>
      <trkpt lat="49.78223" lon="0.58962">
        <ele>111.5</ele>
        <time>2020-06-18T09:08:44Z</time>
      </trkpt>
      <trkpt lat="49.78224" lon="0.58974">
        <ele>111.5</ele>
        <time>2020-06-18T09:08:45Z</time>
      </trkpt>
      <trkpt lat="49.78225" lon="0.58985">
        <ele>111.5</ele>
        <time>2020-06-18T09:08:46Z</time>
      </trkpt>
      <trkpt lat="49.78226" lon="0.58997">
        <ele>111.6</ele>
        <time>2020-06-18T09:08:47Z</time>
      </trkpt>
      <trkpt lat="49.78227" lon="0.59009">
        <ele>111.6</ele>
        <time>2020-06-18T09:08:48Z</time>
      </trkpt>
      <trkpt lat="49.78228" lon="0.59021">
        <ele>111.7</ele>
        <time>2020-06-18T09:08:49Z</time>
      </trkpt>
      <trkpt lat="49.78228" lon="0.59033">
        <ele>111.7</ele>
        <time>2020-06-18T09:08:50Z</time>
      </trkpt>
      <trkpt lat="49.78228" lon="0.59045">
        <ele>111.8</ele>
        <time>2020-06-18T09:08:51Z</time>
      </trkpt>
      <trkpt lat="49.78229" lon="0.59056">
        <ele>111.8</ele>
        <time>2020-06-18T09:08:52Z</time>
      </trkpt>
      <trkpt lat="49.7823" lon="0.59068">
        <ele>111.9</ele>
        <time>2020-06-18T09:08:53Z</time>
      </trkpt>
      <trkpt lat="49.78232" lon="0.5908">
        <ele>111.9</ele>
        <time>2020-06-18T09:08:54Z</time>
      </trkpt>
      <trkpt lat="49.78233" lon="0.59092">
        <ele>111.9</ele>
        <time>2020-06-18T09:08:55Z</time>
      </trkpt>
      <trkpt lat="49.78235" lon="0.59103">
        <ele>111.8</ele>
        <time>2020-06-18T09:08:56Z</time>
      </trkpt>
      <trkpt lat="49.78236" lon="0.59115">
        <ele>111.7</ele>
        <time>2020-06-18T09:08:57Z</time>
      </trkpt>
      <trkpt lat="49.78238" lon="0.59126">
        <ele>111.6</ele>
        <time>2020-06-18T09:08:58Z</time>
      </trkpt>
      <trkpt lat="49.7824" lon="0.59138">
        <ele>111.4</ele>
        <time>2020-06-18T09:08:59Z</time>
      </trkpt>
      <trkpt lat="49.78243" lon="0.59149">
        <ele>111.3</ele>
        <time>2020-06-18T09:09:00Z</time>
      </trkpt>
      <trkpt lat="49.78245" lon="0.59161">
        <ele>111.1</ele>
        <time>2020-06-18T09:09:01Z</time>
      </trkpt>
      <trkpt lat="49.78247" lon="0.59172">
        <ele>111</ele>
        <time>2020-06-18T09:09:02Z</time>
      </trkpt>
      <trkpt lat="49.7825" lon="0.59183">
        <ele>110.9</ele>
        <time>2020-06-18T09:09:03Z</time>
      </trkpt>
      <trkpt lat="49.78252" lon="0.59194">
        <ele>110.7</ele>
        <time>2020-06-18T09:09:04Z</time>
      </trkpt>
      <trkpt lat="49.78254" lon="0.59205">
        <ele>110.6</ele>
        <time>2020-06-18T09:09:05Z</time>
      </trkpt>
      <trkpt lat="49.78257" lon="0.59215">
        <ele>110.4</ele>
        <time>2020-06-18T09:09:06Z</time>
      </trkpt>
      <trkpt lat="49.78259" lon="0.59226">
        <ele>110.3</ele>
        <time>2020-06-18T09:09:07Z</time>
      </trkpt>
      <trkpt lat="49.78261" lon="0.59237">
        <ele>110.1</ele>
        <time>2020-06-18T09:09:08Z</time>
      </trkpt>
      <trkpt lat="49.78263" lon="0.59247">
        <ele>110</ele>
        <time>2020-06-18T09:09:09Z</time>
      </trkpt>
      <trkpt lat="49.78266" lon="0.59257">
        <ele>109.8</ele>
        <time>2020-06-18T09:09:10Z</time>
      </trkpt>
      <trkpt lat="49.78268" lon="0.59268">
        <ele>109.7</ele>
        <time>2020-06-18T09:09:11Z</time>
      </trkpt>
      <trkpt lat="49.78271" lon="0.59278">
        <ele>109.7</ele>
        <time>2020-06-18T09:09:12Z</time>
      </trkpt>
      <trkpt lat="49.78273" lon="0.59288">
        <ele>109.6</ele>
        <time>2020-06-18T09:09:13Z</time>
      </trkpt>
      <trkpt lat="49.78276" lon="0.59298">
        <ele>109.6</ele>
        <time>2020-06-18T09:09:14Z</time>
      </trkpt>
      <trkpt lat="49.78279" lon="0.59309">
        <ele>109.6</ele>
        <time>2020-06-18T09:09:15Z</time>
      </trkpt>
      <trkpt lat="49.78281" lon="0.59319">
        <ele>109.5</ele>
        <time>2020-06-18T09:09:16Z</time>
      </trkpt>
      <trkpt lat="49.78282" lon="0.59329">
        <ele>109.5</ele>
        <time>2020-06-18T09:09:17Z</time>
      </trkpt>
      <trkpt lat="49.78282" lon="0.59339">
        <ele>109.5</ele>
        <time>2020-06-18T09:09:18Z</time>
      </trkpt>
      <trkpt lat="49.78281" lon="0.59349">
        <ele>109.5</ele>
        <time>2020-06-18T09:09:19Z</time>
      </trkpt>
      <trkpt lat="49.7828" lon="0.59358">
        <ele>109.4</ele>
        <time>2020-06-18T09:09:20Z</time>
      </trkpt>
      <trkpt lat="49.7828" lon="0.59366">
        <ele>109.4</ele>
        <time>2020-06-18T09:09:21Z</time>
      </trkpt>
      <trkpt lat="49.78281" lon="0.59373">
        <ele>109.4</ele>
        <time>2020-06-18T09:09:22Z</time>
      </trkpt>
      <trkpt lat="49.78282" lon="0.59378">
        <ele>109.6</ele>
        <time>2020-06-18T09:09:23Z</time>
      </trkpt>
      <trkpt lat="49.78282" lon="0.59383">
        <ele>109.5</ele>
        <time>2020-06-18T09:09:24Z</time>
      </trkpt>
      <trkpt lat="49.78282" lon="0.59385">
        <ele>109.4</ele>
        <time>2020-06-18T09:09:25Z</time>
      </trkpt>
      <trkpt lat="49.78284" lon="0.5939">
        <ele>109.2</ele>
        <time>2020-06-18T09:09:26Z</time>
      </trkpt>
      <trkpt lat="49.78288" lon="0.59398">
        <ele>109</ele>
        <time>2020-06-18T09:09:27Z</time>
      </trkpt>
      <trkpt lat="49.7829" lon="0.59408">
        <ele>108.7</ele>
        <time>2020-06-18T09:09:28Z</time>
      </trkpt>
      <trkpt lat="49.78292" lon="0.59417">
        <ele>108.4</ele>
        <time>2020-06-18T09:09:29Z</time>
      </trkpt>
      <trkpt lat="49.78295" lon="0.59427">
        <ele>108.2</ele>
        <time>2020-06-18T09:09:30Z</time>
      </trkpt>
      <trkpt lat="49.78297" lon="0.59436">
        <ele>108.1</ele>
        <time>2020-06-18T09:09:31Z</time>
      </trkpt>
      <trkpt lat="49.783" lon="0.59446">
        <ele>108</ele>
        <time>2020-06-18T09:09:32Z</time>
      </trkpt>
      <trkpt lat="49.78303" lon="0.59456">
        <ele>108.7</ele>
        <time>2020-06-18T09:09:33Z</time>
      </trkpt>
      <trkpt lat="49.78307" lon="0.59466">
        <ele>109.1</ele>
        <time>2020-06-18T09:09:34Z</time>
      </trkpt>
      <trkpt lat="49.78311" lon="0.59476">
        <ele>109.2</ele>
        <time>2020-06-18T09:09:35Z</time>
      </trkpt>
      <trkpt lat="49.78315" lon="0.59486">
        <ele>109.1</ele>
        <time>2020-06-18T09:09:36Z</time>
      </trkpt>
      <trkpt lat="49.78319" lon="0.59496">
        <ele>109.1</ele>
        <time>2020-06-18T09:09:37Z</time>
      </trkpt>
      <trkpt lat="49.78323" lon="0.59506">
        <ele>109</ele>
        <time>2020-06-18T09:09:38Z</time>
      </trkpt>
      <trkpt lat="49.78326" lon="0.59517">
        <ele>109</ele>
        <time>2020-06-18T09:09:39Z</time>
      </trkpt>
      <trkpt lat="49.78329" lon="0.59528">
        <ele>108.8</ele>
        <time>2020-06-18T09:09:40Z</time>
      </trkpt>
      <trkpt lat="49.78333" lon="0.59538">
        <ele>108.7</ele>
        <time>2020-06-18T09:09:41Z</time>
      </trkpt>
      <trkpt lat="49.78336" lon="0.5955">
        <ele>108.5</ele>
        <time>2020-06-18T09:09:42Z</time>
      </trkpt>
      <trkpt lat="49.78338" lon="0.59561">
        <ele>108.3</ele>
        <time>2020-06-18T09:09:43Z</time>
      </trkpt>
      <trkpt lat="49.78341" lon="0.59573">
        <ele>108.2</ele>
        <time>2020-06-18T09:09:44Z</time>
      </trkpt>
      <trkpt lat="49.78343" lon="0.59584">
        <ele>108.1</ele>
        <time>2020-06-18T09:09:45Z</time>
      </trkpt>
      <trkpt lat="49.78345" lon="0.59596">
        <ele>108</ele>
        <time>2020-06-18T09:09:46Z</time>
      </trkpt>
      <trkpt lat="49.78348" lon="0.59606">
        <ele>108</ele>
        <time>2020-06-18T09:09:47Z</time>
      </trkpt>
      <trkpt lat="49.78351" lon="0.59617">
        <ele>107.9</ele>
        <time>2020-06-18T09:09:48Z</time>
      </trkpt>
      <trkpt lat="49.78353" lon="0.59628">
        <ele>107.9</ele>
        <time>2020-06-18T09:09:49Z</time>
      </trkpt>
      <trkpt lat="49.78356" lon="0.59638">
        <ele>108</ele>
        <time>2020-06-18T09:09:50Z</time>
      </trkpt>
      <trkpt lat="49.78358" lon="0.59649">
        <ele>108.1</ele>
        <time>2020-06-18T09:09:51Z</time>
      </trkpt>
      <trkpt lat="49.78362" lon="0.59659">
        <ele>108.3</ele>
        <time>2020-06-18T09:09:52Z</time>
      </trkpt>
      <trkpt lat="49.78365" lon="0.59669">
        <ele>108.4</ele>
        <time>2020-06-18T09:09:53Z</time>
      </trkpt>
      <trkpt lat="49.78369" lon="0.5968">
        <ele>108.5</ele>
        <time>2020-06-18T09:09:54Z</time>
      </trkpt>
      <trkpt lat="49.78372" lon="0.5969">
        <ele>108.7</ele>
        <time>2020-06-18T09:09:55Z</time>
      </trkpt>
      <trkpt lat="49.78375" lon="0.597">
        <ele>108.8</ele>
        <time>2020-06-18T09:09:56Z</time>
      </trkpt>
      <trkpt lat="49.78378" lon="0.5971">
        <ele>108.9</ele>
        <time>2020-06-18T09:09:57Z</time>
      </trkpt>
      <trkpt lat="49.78381" lon="0.59721">
        <ele>109</ele>
        <time>2020-06-18T09:09:58Z</time>
      </trkpt>
      <trkpt lat="49.78383" lon="0.59731">
        <ele>109.1</ele>
        <time>2020-06-18T09:09:59Z</time>
      </trkpt>
      <trkpt lat="49.78386" lon="0.59742">
        <ele>109.3</ele>
        <time>2020-06-18T09:10:00Z</time>
      </trkpt>
      <trkpt lat="49.78388" lon="0.59753">
        <ele>109.3</ele>
        <time>2020-06-18T09:10:01Z</time>
      </trkpt>
      <trkpt lat="49.78391" lon="0.59763">
        <ele>109.4</ele>
        <time>2020-06-18T09:10:02Z</time>
      </trkpt>
      <trkpt lat="49.78394" lon="0.59773">
        <ele>109.5</ele>
        <time>2020-06-18T09:10:03Z</time>
      </trkpt>
      <trkpt lat="49.78396" lon="0.59784">
        <ele>109.6</ele>
        <time>2020-06-18T09:10:04Z</time>
      </trkpt>
      <trkpt lat="49.78398" lon="0.59795">
        <ele>109.7</ele>
        <time>2020-06-18T09:10:05Z</time>
      </trkpt>
      <trkpt lat="49.784" lon="0.59805">
        <ele>109.9</ele>
        <time>2020-06-18T09:10:06Z</time>
      </trkpt>
      <trkpt lat="49.78402" lon="0.59816">
        <ele>110</ele>
        <time>2020-06-18T09:10:07Z</time>
      </trkpt>
      <trkpt lat="49.78405" lon="0.59827">
        <ele>110.1</ele>
        <time>2020-06-18T09:10:08Z</time>
      </trkpt>
      <trkpt lat="49.78408" lon="0.59838">
        <ele>110.2</ele>
        <time>2020-06-18T09:10:09Z</time>
      </trkpt>
      <trkpt lat="49.7841" lon="0.59849">
        <ele>110.3</ele>
        <time>2020-06-18T09:10:10Z</time>
      </trkpt>
      <trkpt lat="49.78411" lon="0.5986">
        <ele>110.4</ele>
        <time>2020-06-18T09:10:11Z</time>
      </trkpt>
      <trkpt lat="49.78413" lon="0.59872">
        <ele>110.4</ele>
        <time>2020-06-18T09:10:12Z</time>
      </trkpt>
      <trkpt lat="49.78415" lon="0.59883">
        <ele>110.5</ele>
        <time>2020-06-18T09:10:13Z</time>
      </trkpt>
      <trkpt lat="49.78417" lon="0.59894">
        <ele>110.6</ele>
        <time>2020-06-18T09:10:14Z</time>
      </trkpt>
      <trkpt lat="49.78419" lon="0.59905">
        <ele>110.6</ele>
        <time>2020-06-18T09:10:15Z</time>
      </trkpt>
      <trkpt lat="49.78421" lon="0.59916">
        <ele>110.7</ele>
        <time>2020-06-18T09:10:16Z</time>
      </trkpt>
      <trkpt lat="49.78422" lon="0.59928">
        <ele>110.7</ele>
        <time>2020-06-18T09:10:17Z</time>
      </trkpt>
      <trkpt lat="49.78423" lon="0.59939">
        <ele>110.7</ele>
        <time>2020-06-18T09:10:18Z</time>
      </trkpt>
      <trkpt lat="49.78424" lon="0.5995">
        <ele>110.8</ele>
        <time>2020-06-18T09:10:19Z</time>
      </trkpt>
      <trkpt lat="49.78425" lon="0.59962">
        <ele>110.8</ele>
        <time>2020-06-18T09:10:20Z</time>
      </trkpt>
      <trkpt lat="49.78427" lon="0.59973">
        <ele>110.9</ele>
        <time>2020-06-18T09:10:21Z</time>
      </trkpt>
      <trkpt lat="49.78427" lon="0.59985">
        <ele>110.9</ele>
        <time>2020-06-18T09:10:22Z</time>
      </trkpt>
      <trkpt lat="49.78428" lon="0.59996">
        <ele>111</ele>
        <time>2020-06-18T09:10:23Z</time>
      </trkpt>
      <trkpt lat="49.7843" lon="0.60008">
        <ele>111</ele>
        <time>2020-06-18T09:10:24Z</time>
      </trkpt>
      <trkpt lat="49.78431" lon="0.60019">
        <ele>111.1</ele>
        <time>2020-06-18T09:10:25Z</time>
      </trkpt>
      <trkpt lat="49.78431" lon="0.6003">
        <ele>111.2</ele>
        <time>2020-06-18T09:10:26Z</time>
      </trkpt>
      <trkpt lat="49.78431" lon="0.60042">
        <ele>111.2</ele>
        <time>2020-06-18T09:10:27Z</time>
      </trkpt>
      <trkpt lat="49.78431" lon="0.60053">
        <ele>111.2</ele>
        <time>2020-06-18T09:10:28Z</time>
      </trkpt>
      <trkpt lat="49.78431" lon="0.60064">
        <ele>111.2</ele>
        <time>2020-06-18T09:10:29Z</time>
      </trkpt>
      <trkpt lat="49.78431" lon="0.60076">
        <ele>111.2</ele>
        <time>2020-06-18T09:10:30Z</time>
      </trkpt>
      <trkpt lat="49.78432" lon="0.60087">
        <ele>111.2</ele>
        <time>2020-06-18T09:10:31Z</time>
      </trkpt>
      <trkpt lat="49.78432" lon="0.60098">
        <ele>111.2</ele>
        <time>2020-06-18T09:10:32Z</time>
      </trkpt>
      <trkpt lat="49.78432" lon="0.6011">
        <ele>111.1</ele>
        <time>2020-06-18T09:10:33Z</time>
      </trkpt>
      <trkpt lat="49.78432" lon="0.60121">
        <ele>111.1</ele>
        <time>2020-06-18T09:10:34Z</time>
      </trkpt>
      <trkpt lat="49.78432" lon="0.60133">
        <ele>111.1</ele>
        <time>2020-06-18T09:10:35Z</time>
      </trkpt>
      <trkpt lat="49.78432" lon="0.60144">
        <ele>111.1</ele>
        <time>2020-06-18T09:10:36Z</time>
      </trkpt>
      <trkpt lat="49.78432" lon="0.60155">
        <ele>111.2</ele>
        <time>2020-06-18T09:10:37Z</time>
      </trkpt>
      <trkpt lat="49.78432" lon="0.60167">
        <ele>111.2</ele>
        <time>2020-06-18T09:10:38Z</time>
      </trkpt>
      <trkpt lat="49.78432" lon="0.60179">
        <ele>111.3</ele>
        <time>2020-06-18T09:10:39Z</time>
      </trkpt>
      <trkpt lat="49.78432" lon="0.60191">
        <ele>111.3</ele>
        <time>2020-06-18T09:10:40Z</time>
      </trkpt>
      <trkpt lat="49.78432" lon="0.60203">
        <ele>111.3</ele>
        <time>2020-06-18T09:10:41Z</time>
      </trkpt>
      <trkpt lat="49.78431" lon="0.60215">
        <ele>111.3</ele>
        <time>2020-06-18T09:10:42Z</time>
      </trkpt>
      <trkpt lat="49.78432" lon="0.60227">
        <ele>111.4</ele>
        <time>2020-06-18T09:10:43Z</time>
      </trkpt>
      <trkpt lat="49.78432" lon="0.60239">
        <ele>111.4</ele>
        <time>2020-06-18T09:10:44Z</time>
      </trkpt>
      <trkpt lat="49.78432" lon="0.60251">
        <ele>111.4</ele>
        <time>2020-06-18T09:10:45Z</time>
      </trkpt>
      <trkpt lat="49.78431" lon="0.60262">
        <ele>111.5</ele>
        <time>2020-06-18T09:10:46Z</time>
      </trkpt>
      <trkpt lat="49.78431" lon="0.60274">
        <ele>111.5</ele>
        <time>2020-06-18T09:10:47Z</time>
      </trkpt>
      <trkpt lat="49.78431" lon="0.60285">
        <ele>111.5</ele>
        <time>2020-06-18T09:10:48Z</time>
      </trkpt>
      <trkpt lat="49.78431" lon="0.60296">
        <ele>111.5</ele>
        <time>2020-06-18T09:10:49Z</time>
      </trkpt>
      <trkpt lat="49.78431" lon="0.60307">
        <ele>111.5</ele>
        <time>2020-06-18T09:10:50Z</time>
      </trkpt>
      <trkpt lat="49.78431" lon="0.60319">
        <ele>111.5</ele>
        <time>2020-06-18T09:10:51Z</time>
      </trkpt>
      <trkpt lat="49.7843" lon="0.6033">
        <ele>111.6</ele>
        <time>2020-06-18T09:10:52Z</time>
      </trkpt>
      <trkpt lat="49.78431" lon="0.60341">
        <ele>111.6</ele>
        <time>2020-06-18T09:10:53Z</time>
      </trkpt>
      <trkpt lat="49.78431" lon="0.60352">
        <ele>111.7</ele>
        <time>2020-06-18T09:10:54Z</time>
      </trkpt>
      <trkpt lat="49.78431" lon="0.60364">
        <ele>111.7</ele>
        <time>2020-06-18T09:10:55Z</time>
      </trkpt>
      <trkpt lat="49.7843" lon="0.60376">
        <ele>111.7</ele>
        <time>2020-06-18T09:10:56Z</time>
      </trkpt>
      <trkpt lat="49.7843" lon="0.60388">
        <ele>111.8</ele>
        <time>2020-06-18T09:10:57Z</time>
      </trkpt>
      <trkpt lat="49.78431" lon="0.604">
        <ele>111.9</ele>
        <time>2020-06-18T09:10:58Z</time>
      </trkpt>
      <trkpt lat="49.78431" lon="0.60412">
        <ele>111.8</ele>
        <time>2020-06-18T09:10:59Z</time>
      </trkpt>
      <trkpt lat="49.78431" lon="0.60424">
        <ele>111.6</ele>
        <time>2020-06-18T09:11:00Z</time>
      </trkpt>
      <trkpt lat="49.78431" lon="0.60436">
        <ele>111.5</ele>
        <time>2020-06-18T09:11:01Z</time>
      </trkpt>
      <trkpt lat="49.78431" lon="0.60448">
        <ele>111.5</ele>
        <time>2020-06-18T09:11:02Z</time>
      </trkpt>
      <trkpt lat="49.78431" lon="0.6046">
        <ele>111.4</ele>
        <time>2020-06-18T09:11:03Z</time>
      </trkpt>
      <trkpt lat="49.78431" lon="0.60473">
        <ele>111.4</ele>
        <time>2020-06-18T09:11:04Z</time>
      </trkpt>
      <trkpt lat="49.78432" lon="0.60485">
        <ele>111.4</ele>
        <time>2020-06-18T09:11:05Z</time>
      </trkpt>
      <trkpt lat="49.78432" lon="0.60498">
        <ele>111.3</ele>
        <time>2020-06-18T09:11:06Z</time>
      </trkpt>
      <trkpt lat="49.78432" lon="0.60511">
        <ele>111.2</ele>
        <time>2020-06-18T09:11:07Z</time>
      </trkpt>
      <trkpt lat="49.78431" lon="0.60523">
        <ele>111.1</ele>
        <time>2020-06-18T09:11:08Z</time>
      </trkpt>
      <trkpt lat="49.78431" lon="0.60536">
        <ele>111</ele>
        <time>2020-06-18T09:11:09Z</time>
      </trkpt>
      <trkpt lat="49.78431" lon="0.60549">
        <ele>110.8</ele>
        <time>2020-06-18T09:11:10Z</time>
      </trkpt>
      <trkpt lat="49.78431" lon="0.60562">
        <ele>110.7</ele>
        <time>2020-06-18T09:11:11Z</time>
      </trkpt>
      <trkpt lat="49.78431" lon="0.60575">
        <ele>110.6</ele>
        <time>2020-06-18T09:11:12Z</time>
      </trkpt>
      <trkpt lat="49.78431" lon="0.60588">
        <ele>110.5</ele>
        <time>2020-06-18T09:11:13Z</time>
      </trkpt>
      <trkpt lat="49.78431" lon="0.606">
        <ele>110.4</ele>
        <time>2020-06-18T09:11:14Z</time>
      </trkpt>
      <trkpt lat="49.78431" lon="0.60613">
        <ele>110.4</ele>
        <time>2020-06-18T09:11:15Z</time>
      </trkpt>
      <trkpt lat="49.78431" lon="0.60626">
        <ele>110.3</ele>
        <time>2020-06-18T09:11:16Z</time>
      </trkpt>
      <trkpt lat="49.78431" lon="0.60639">
        <ele>110.2</ele>
        <time>2020-06-18T09:11:17Z</time>
      </trkpt>
      <trkpt lat="49.78431" lon="0.60652">
        <ele>110.1</ele>
        <time>2020-06-18T09:11:18Z</time>
      </trkpt>
      <trkpt lat="49.78431" lon="0.60664">
        <ele>110</ele>
        <time>2020-06-18T09:11:19Z</time>
      </trkpt>
      <trkpt lat="49.78432" lon="0.60677">
        <ele>110</ele>
        <time>2020-06-18T09:11:20Z</time>
      </trkpt>
      <trkpt lat="49.78432" lon="0.6069">
        <ele>109.9</ele>
        <time>2020-06-18T09:11:21Z</time>
      </trkpt>
      <trkpt lat="49.78432" lon="0.60703">
        <ele>109.9</ele>
        <time>2020-06-18T09:11:22Z</time>
      </trkpt>
      <trkpt lat="49.78432" lon="0.60716">
        <ele>109.8</ele>
        <time>2020-06-18T09:11:23Z</time>
      </trkpt>
      <trkpt lat="49.78432" lon="0.60729">
        <ele>109.7</ele>
        <time>2020-06-18T09:11:24Z</time>
      </trkpt>
      <trkpt lat="49.78432" lon="0.60742">
        <ele>109.7</ele>
        <time>2020-06-18T09:11:25Z</time>
      </trkpt>
      <trkpt lat="49.78432" lon="0.60755">
        <ele>109.6</ele>
        <time>2020-06-18T09:11:26Z</time>
      </trkpt>
      <trkpt lat="49.78432" lon="0.60769">
        <ele>109.5</ele>
        <time>2020-06-18T09:11:27Z</time>
      </trkpt>
      <trkpt lat="49.78432" lon="0.60782">
        <ele>109.4</ele>
        <time>2020-06-18T09:11:28Z</time>
      </trkpt>
      <trkpt lat="49.78432" lon="0.60795">
        <ele>109.2</ele>
        <time>2020-06-18T09:11:29Z</time>
      </trkpt>
      <trkpt lat="49.78432" lon="0.60809">
        <ele>109.1</ele>
        <time>2020-06-18T09:11:30Z</time>
      </trkpt>
      <trkpt lat="49.78431" lon="0.60823">
        <ele>109</ele>
        <time>2020-06-18T09:11:31Z</time>
      </trkpt>
      <trkpt lat="49.78431" lon="0.60836">
        <ele>108.9</ele>
        <time>2020-06-18T09:11:32Z</time>
      </trkpt>
      <trkpt lat="49.78431" lon="0.6085">
        <ele>108.8</ele>
        <time>2020-06-18T09:11:33Z</time>
      </trkpt>
      <trkpt lat="49.78431" lon="0.60863">
        <ele>108.7</ele>
        <time>2020-06-18T09:11:34Z</time>
      </trkpt>
      <trkpt lat="49.78431" lon="0.60877">
        <ele>108.7</ele>
        <time>2020-06-18T09:11:35Z</time>
      </trkpt>
      <trkpt lat="49.78431" lon="0.6089">
        <ele>108.7</ele>
        <time>2020-06-18T09:11:36Z</time>
      </trkpt>
      <trkpt lat="49.78431" lon="0.60904">
        <ele>108.6</ele>
        <time>2020-06-18T09:11:37Z</time>
      </trkpt>
      <trkpt lat="49.78431" lon="0.60918">
        <ele>108.6</ele>
        <time>2020-06-18T09:11:38Z</time>
      </trkpt>
      <trkpt lat="49.7843" lon="0.60931">
        <ele>108.5</ele>
        <time>2020-06-18T09:11:39Z</time>
      </trkpt>
      <trkpt lat="49.7843" lon="0.60945">
        <ele>108.4</ele>
        <time>2020-06-18T09:11:40Z</time>
      </trkpt>
      <trkpt lat="49.7843" lon="0.60959">
        <ele>108.3</ele>
        <time>2020-06-18T09:11:41Z</time>
      </trkpt>
      <trkpt lat="49.78429" lon="0.60972">
        <ele>108.2</ele>
        <time>2020-06-18T09:11:42Z</time>
      </trkpt>
      <trkpt lat="49.78428" lon="0.60986">
        <ele>108.2</ele>
        <time>2020-06-18T09:11:43Z</time>
      </trkpt>
      <trkpt lat="49.78428" lon="0.61">
        <ele>107.9</ele>
        <time>2020-06-18T09:11:44Z</time>
      </trkpt>
      <trkpt lat="49.78428" lon="0.61014">
        <ele>107.5</ele>
        <time>2020-06-18T09:11:45Z</time>
      </trkpt>
      <trkpt lat="49.78428" lon="0.61029">
        <ele>107</ele>
        <time>2020-06-18T09:11:46Z</time>
      </trkpt>
      <trkpt lat="49.78428" lon="0.61043">
        <ele>106.5</ele>
        <time>2020-06-18T09:11:47Z</time>
      </trkpt>
      <trkpt lat="49.78427" lon="0.61058">
        <ele>106</ele>
        <time>2020-06-18T09:11:48Z</time>
      </trkpt>
      <trkpt lat="49.78427" lon="0.61074">
        <ele>105.5</ele>
        <time>2020-06-18T09:11:49Z</time>
      </trkpt>
      <trkpt lat="49.78427" lon="0.6109">
        <ele>104.9</ele>
        <time>2020-06-18T09:11:50Z</time>
      </trkpt>
      <trkpt lat="49.78428" lon="0.61106">
        <ele>104.3</ele>
        <time>2020-06-18T09:11:51Z</time>
      </trkpt>
      <trkpt lat="49.78428" lon="0.61123">
        <ele>103.7</ele>
        <time>2020-06-18T09:11:52Z</time>
      </trkpt>
      <trkpt lat="49.78428" lon="0.61139">
        <ele>103</ele>
        <time>2020-06-18T09:11:53Z</time>
      </trkpt>
      <trkpt lat="49.78429" lon="0.61156">
        <ele>102.3</ele>
        <time>2020-06-18T09:11:54Z</time>
      </trkpt>
      <trkpt lat="49.7843" lon="0.61174">
        <ele>101.7</ele>
        <time>2020-06-18T09:11:55Z</time>
      </trkpt>
      <trkpt lat="49.78431" lon="0.61191">
        <ele>101</ele>
        <time>2020-06-18T09:11:56Z</time>
      </trkpt>
      <trkpt lat="49.78433" lon="0.61209">
        <ele>100.3</ele>
        <time>2020-06-18T09:11:57Z</time>
      </trkpt>
      <trkpt lat="49.78434" lon="0.61228">
        <ele>99.6</ele>
        <time>2020-06-18T09:11:58Z</time>
      </trkpt>
      <trkpt lat="49.78435" lon="0.61246">
        <ele>99</ele>
        <time>2020-06-18T09:11:59Z</time>
      </trkpt>
      <trkpt lat="49.78436" lon="0.61265">
        <ele>98.2</ele>
        <time>2020-06-18T09:12:00Z</time>
      </trkpt>
      <trkpt lat="49.78438" lon="0.61283">
        <ele>97.5</ele>
        <time>2020-06-18T09:12:01Z</time>
      </trkpt>
      <trkpt lat="49.78439" lon="0.61302">
        <ele>96.8</ele>
        <time>2020-06-18T09:12:02Z</time>
      </trkpt>
      <trkpt lat="49.7844" lon="0.61321">
        <ele>96.1</ele>
        <time>2020-06-18T09:12:03Z</time>
      </trkpt>
      <trkpt lat="49.78441" lon="0.6134">
        <ele>95.4</ele>
        <time>2020-06-18T09:12:04Z</time>
      </trkpt>
      <trkpt lat="49.78443" lon="0.61358">
        <ele>94.9</ele>
        <time>2020-06-18T09:12:05Z</time>
      </trkpt>
      <trkpt lat="49.78444" lon="0.61378">
        <ele>94.5</ele>
        <time>2020-06-18T09:12:06Z</time>
      </trkpt>
      <trkpt lat="49.78446" lon="0.61397">
        <ele>94.1</ele>
        <time>2020-06-18T09:12:07Z</time>
      </trkpt>
      <trkpt lat="49.78447" lon="0.61416">
        <ele>93.6</ele>
        <time>2020-06-18T09:12:08Z</time>
      </trkpt>
      <trkpt lat="49.78449" lon="0.61435">
        <ele>93.1</ele>
        <time>2020-06-18T09:12:09Z</time>
      </trkpt>
      <trkpt lat="49.78451" lon="0.61454">
        <ele>92.7</ele>
        <time>2020-06-18T09:12:10Z</time>
      </trkpt>
      <trkpt lat="49.78454" lon="0.61473">
        <ele>92.2</ele>
        <time>2020-06-18T09:12:11Z</time>
      </trkpt>
      <trkpt lat="49.78456" lon="0.61493">
        <ele>91.8</ele>
        <time>2020-06-18T09:12:12Z</time>
      </trkpt>
      <trkpt lat="49.78459" lon="0.61512">
        <ele>91.4</ele>
        <time>2020-06-18T09:12:13Z</time>
      </trkpt>
      <trkpt lat="49.78462" lon="0.6153">
        <ele>91.1</ele>
        <time>2020-06-18T09:12:14Z</time>
      </trkpt>
      <trkpt lat="49.78464" lon="0.61549">
        <ele>90.8</ele>
        <time>2020-06-18T09:12:15Z</time>
      </trkpt>
      <trkpt lat="49.78467" lon="0.61566">
        <ele>90.6</ele>
        <time>2020-06-18T09:12:16Z</time>
      </trkpt>
      <trkpt lat="49.7847" lon="0.61584">
        <ele>90.2</ele>
        <time>2020-06-18T09:12:17Z</time>
      </trkpt>
      <trkpt lat="49.78473" lon="0.61601">
        <ele>89.9</ele>
        <time>2020-06-18T09:12:18Z</time>
      </trkpt>
      <trkpt lat="49.78477" lon="0.61619">
        <ele>89.6</ele>
        <time>2020-06-18T09:12:19Z</time>
      </trkpt>
      <trkpt lat="49.7848" lon="0.61637">
        <ele>89.2</ele>
        <time>2020-06-18T09:12:20Z</time>
      </trkpt>
      <trkpt lat="49.78482" lon="0.61657">
        <ele>88.8</ele>
        <time>2020-06-18T09:12:21Z</time>
      </trkpt>
      <trkpt lat="49.78485" lon="0.61675">
        <ele>88.5</ele>
        <time>2020-06-18T09:12:22Z</time>
      </trkpt>
      <trkpt lat="49.78487" lon="0.61693">
        <ele>88.1</ele>
        <time>2020-06-18T09:12:23Z</time>
      </trkpt>
      <trkpt lat="49.78489" lon="0.61711">
        <ele>87.8</ele>
        <time>2020-06-18T09:12:24Z</time>
      </trkpt>
      <trkpt lat="49.78492" lon="0.61728">
        <ele>87.4</ele>
        <time>2020-06-18T09:12:25Z</time>
      </trkpt>
      <trkpt lat="49.78495" lon="0.61745">
        <ele>87.1</ele>
        <time>2020-06-18T09:12:26Z</time>
      </trkpt>
      <trkpt lat="49.78498" lon="0.61762">
        <ele>86.8</ele>
        <time>2020-06-18T09:12:27Z</time>
      </trkpt>
      <trkpt lat="49.78502" lon="0.61778">
        <ele>86.5</ele>
        <time>2020-06-18T09:12:28Z</time>
      </trkpt>
      <trkpt lat="49.78505" lon="0.61796">
        <ele>86.2</ele>
        <time>2020-06-18T09:12:29Z</time>
      </trkpt>
      <trkpt lat="49.78508" lon="0.61813">
        <ele>85.8</ele>
        <time>2020-06-18T09:12:30Z</time>
      </trkpt>
      <trkpt lat="49.78512" lon="0.61831">
        <ele>85.3</ele>
        <time>2020-06-18T09:12:31Z</time>
      </trkpt>
      <trkpt lat="49.78515" lon="0.61849">
        <ele>84.7</ele>
        <time>2020-06-18T09:12:32Z</time>
      </trkpt>
      <trkpt lat="49.78518" lon="0.61866">
        <ele>84</ele>
        <time>2020-06-18T09:12:33Z</time>
      </trkpt>
      <trkpt lat="49.78522" lon="0.61882">
        <ele>83.3</ele>
        <time>2020-06-18T09:12:34Z</time>
      </trkpt>
      <trkpt lat="49.78525" lon="0.61899">
        <ele>82.7</ele>
        <time>2020-06-18T09:12:35Z</time>
      </trkpt>
      <trkpt lat="49.78529" lon="0.61916">
        <ele>82.1</ele>
        <time>2020-06-18T09:12:36Z</time>
      </trkpt>
      <trkpt lat="49.78531" lon="0.61933">
        <ele>81.6</ele>
        <time>2020-06-18T09:12:37Z</time>
      </trkpt>
      <trkpt lat="49.78533" lon="0.6195">
        <ele>81</ele>
        <time>2020-06-18T09:12:38Z</time>
      </trkpt>
      <trkpt lat="49.78535" lon="0.61967">
        <ele>80.4</ele>
        <time>2020-06-18T09:12:39Z</time>
      </trkpt>
      <trkpt lat="49.78537" lon="0.61983">
        <ele>79.9</ele>
        <time>2020-06-18T09:12:40Z</time>
      </trkpt>
      <trkpt lat="49.7854" lon="0.61999">
        <ele>79.3</ele>
        <time>2020-06-18T09:12:41Z</time>
      </trkpt>
      <trkpt lat="49.78543" lon="0.62014">
        <ele>78.7</ele>
        <time>2020-06-18T09:12:42Z</time>
      </trkpt>
      <trkpt lat="49.78546" lon="0.62029">
        <ele>78.1</ele>
        <time>2020-06-18T09:12:43Z</time>
      </trkpt>
      <trkpt lat="49.78549" lon="0.62045">
        <ele>77.6</ele>
        <time>2020-06-18T09:12:44Z</time>
      </trkpt>
      <trkpt lat="49.78552" lon="0.62061">
        <ele>77.1</ele>
        <time>2020-06-18T09:12:45Z</time>
      </trkpt>
      <trkpt lat="49.78555" lon="0.62078">
        <ele>76.4</ele>
        <time>2020-06-18T09:12:46Z</time>
      </trkpt>
      <trkpt lat="49.78558" lon="0.62094">
        <ele>75.7</ele>
        <time>2020-06-18T09:12:47Z</time>
      </trkpt>
      <trkpt lat="49.78561" lon="0.6211">
        <ele>75.1</ele>
        <time>2020-06-18T09:12:48Z</time>
      </trkpt>
      <trkpt lat="49.78564" lon="0.62127">
        <ele>74.6</ele>
        <time>2020-06-18T09:12:49Z</time>
      </trkpt>
      <trkpt lat="49.78568" lon="0.62144">
        <ele>74</ele>
        <time>2020-06-18T09:12:50Z</time>
      </trkpt>
      <trkpt lat="49.78571" lon="0.62161">
        <ele>73.4</ele>
        <time>2020-06-18T09:12:51Z</time>
      </trkpt>
      <trkpt lat="49.78574" lon="0.62177">
        <ele>72.8</ele>
        <time>2020-06-18T09:12:52Z</time>
      </trkpt>
      <trkpt lat="49.78577" lon="0.62195">
        <ele>72.2</ele>
        <time>2020-06-18T09:12:53Z</time>
      </trkpt>
      <trkpt lat="49.7858" lon="0.62212">
        <ele>71.6</ele>
        <time>2020-06-18T09:12:54Z</time>
      </trkpt>
      <trkpt lat="49.78583" lon="0.6223">
        <ele>70.9</ele>
        <time>2020-06-18T09:12:55Z</time>
      </trkpt>
      <trkpt lat="49.78584" lon="0.62247">
        <ele>70.4</ele>
        <time>2020-06-18T09:12:56Z</time>
      </trkpt>
      <trkpt lat="49.78585" lon="0.62264">
        <ele>69.9</ele>
        <time>2020-06-18T09:12:57Z</time>
      </trkpt>
      <trkpt lat="49.78587" lon="0.62281">
        <ele>69.3</ele>
        <time>2020-06-18T09:12:58Z</time>
      </trkpt>
      <trkpt lat="49.78588" lon="0.623">
        <ele>68.7</ele>
        <time>2020-06-18T09:12:59Z</time>
      </trkpt>
      <trkpt lat="49.7859" lon="0.62317">
        <ele>68.1</ele>
        <time>2020-06-18T09:13:00Z</time>
      </trkpt>
      <trkpt lat="49.78589" lon="0.62335">
        <ele>67.5</ele>
        <time>2020-06-18T09:13:01Z</time>
      </trkpt>
      <trkpt lat="49.78588" lon="0.62352">
        <ele>66.9</ele>
        <time>2020-06-18T09:13:02Z</time>
      </trkpt>
      <trkpt lat="49.78587" lon="0.6237">
        <ele>66.2</ele>
        <time>2020-06-18T09:13:03Z</time>
      </trkpt>
      <trkpt lat="49.78586" lon="0.62388">
        <ele>65.6</ele>
        <time>2020-06-18T09:13:04Z</time>
      </trkpt>
      <trkpt lat="49.78585" lon="0.62404">
        <ele>64.9</ele>
        <time>2020-06-18T09:13:05Z</time>
      </trkpt>
      <trkpt lat="49.78582" lon="0.6242">
        <ele>64.1</ele>
        <time>2020-06-18T09:13:06Z</time>
      </trkpt>
      <trkpt lat="49.7858" lon="0.62437">
        <ele>63.3</ele>
        <time>2020-06-18T09:13:07Z</time>
      </trkpt>
      <trkpt lat="49.78576" lon="0.62455">
        <ele>62.5</ele>
        <time>2020-06-18T09:13:08Z</time>
      </trkpt>
      <trkpt lat="49.78574" lon="0.62472">
        <ele>61.7</ele>
        <time>2020-06-18T09:13:09Z</time>
      </trkpt>
      <trkpt lat="49.78572" lon="0.6249">
        <ele>61</ele>
        <time>2020-06-18T09:13:10Z</time>
      </trkpt>
      <trkpt lat="49.7857" lon="0.62508">
        <ele>60.2</ele>
        <time>2020-06-18T09:13:11Z</time>
      </trkpt>
      <trkpt lat="49.78567" lon="0.62525">
        <ele>59.5</ele>
        <time>2020-06-18T09:13:12Z</time>
      </trkpt>
      <trkpt lat="49.78564" lon="0.62543">
        <ele>58.8</ele>
        <time>2020-06-18T09:13:13Z</time>
      </trkpt>
      <trkpt lat="49.78561" lon="0.62561">
        <ele>58.1</ele>
        <time>2020-06-18T09:13:14Z</time>
      </trkpt>
      <trkpt lat="49.78558" lon="0.62579">
        <ele>57.4</ele>
        <time>2020-06-18T09:13:15Z</time>
      </trkpt>
      <trkpt lat="49.78555" lon="0.62598">
        <ele>56.7</ele>
        <time>2020-06-18T09:13:16Z</time>
      </trkpt>
      <trkpt lat="49.78552" lon="0.62616">
        <ele>55.9</ele>
        <time>2020-06-18T09:13:17Z</time>
      </trkpt>
      <trkpt lat="49.7855" lon="0.62635">
        <ele>55</ele>
        <time>2020-06-18T09:13:18Z</time>
      </trkpt>
      <trkpt lat="49.78548" lon="0.62654">
        <ele>54.3</ele>
        <time>2020-06-18T09:13:19Z</time>
      </trkpt>
      <trkpt lat="49.78547" lon="0.62673">
        <ele>53.6</ele>
        <time>2020-06-18T09:13:20Z</time>
      </trkpt>
      <trkpt lat="49.78546" lon="0.62691">
        <ele>52.9</ele>
        <time>2020-06-18T09:13:21Z</time>
      </trkpt>
      <trkpt lat="49.78545" lon="0.62709">
        <ele>52.1</ele>
        <time>2020-06-18T09:13:22Z</time>
      </trkpt>
      <trkpt lat="49.78542" lon="0.62727">
        <ele>51.4</ele>
        <time>2020-06-18T09:13:23Z</time>
      </trkpt>
      <trkpt lat="49.78542" lon="0.62745">
        <ele>50.6</ele>
        <time>2020-06-18T09:13:24Z</time>
      </trkpt>
      <trkpt lat="49.78541" lon="0.62763">
        <ele>49.9</ele>
        <time>2020-06-18T09:13:25Z</time>
      </trkpt>
      <trkpt lat="49.7854" lon="0.62781">
        <ele>49.1</ele>
        <time>2020-06-18T09:13:26Z</time>
      </trkpt>
      <trkpt lat="49.7854" lon="0.628">
        <ele>48.2</ele>
        <time>2020-06-18T09:13:27Z</time>
      </trkpt>
      <trkpt lat="49.78539" lon="0.62819">
        <ele>47.4</ele>
        <time>2020-06-18T09:13:28Z</time>
      </trkpt>
      <trkpt lat="49.78539" lon="0.62837">
        <ele>46.6</ele>
        <time>2020-06-18T09:13:29Z</time>
      </trkpt>
      <trkpt lat="49.78539" lon="0.62856">
        <ele>45.7</ele>
        <time>2020-06-18T09:13:30Z</time>
      </trkpt>
      <trkpt lat="49.78539" lon="0.62875">
        <ele>44.8</ele>
        <time>2020-06-18T09:13:31Z</time>
      </trkpt>
      <trkpt lat="49.78541" lon="0.62895">
        <ele>43.9</ele>
        <time>2020-06-18T09:13:32Z</time>
      </trkpt>
      <trkpt lat="49.78542" lon="0.62914">
        <ele>43</ele>
        <time>2020-06-18T09:13:33Z</time>
      </trkpt>
      <trkpt lat="49.78543" lon="0.62933">
        <ele>42.1</ele>
        <time>2020-06-18T09:13:34Z</time>
      </trkpt>
      <trkpt lat="49.78544" lon="0.6295">
        <ele>41.3</ele>
        <time>2020-06-18T09:13:35Z</time>
      </trkpt>
      <trkpt lat="49.78545" lon="0.62967">
        <ele>40.5</ele>
        <time>2020-06-18T09:13:36Z</time>
      </trkpt>
      <trkpt lat="49.78546" lon="0.62982">
        <ele>39.8</ele>
        <time>2020-06-18T09:13:37Z</time>
      </trkpt>
      <trkpt lat="49.78548" lon="0.62996">
        <ele>39</ele>
        <time>2020-06-18T09:13:38Z</time>
      </trkpt>
      <trkpt lat="49.78549" lon="0.6301">
        <ele>38.3</ele>
        <time>2020-06-18T09:13:39Z</time>
      </trkpt>
      <trkpt lat="49.78551" lon="0.63024">
        <ele>37.5</ele>
        <time>2020-06-18T09:13:40Z</time>
      </trkpt>
      <trkpt lat="49.78552" lon="0.63037">
        <ele>36.9</ele>
        <time>2020-06-18T09:13:41Z</time>
      </trkpt>
      <trkpt lat="49.78553" lon="0.63049">
        <ele>36.2</ele>
        <time>2020-06-18T09:13:42Z</time>
      </trkpt>
      <trkpt lat="49.78555" lon="0.6306">
        <ele>35.6</ele>
        <time>2020-06-18T09:13:43Z</time>
      </trkpt>
      <trkpt lat="49.78556" lon="0.63072">
        <ele>35</ele>
        <time>2020-06-18T09:13:44Z</time>
      </trkpt>
      <trkpt lat="49.78558" lon="0.63083">
        <ele>34.4</ele>
        <time>2020-06-18T09:13:45Z</time>
      </trkpt>
      <trkpt lat="49.7856" lon="0.63094">
        <ele>33.9</ele>
        <time>2020-06-18T09:13:46Z</time>
      </trkpt>
      <trkpt lat="49.78562" lon="0.63105">
        <ele>33.3</ele>
        <time>2020-06-18T09:13:47Z</time>
      </trkpt>
      <trkpt lat="49.78565" lon="0.63116">
        <ele>32.7</ele>
        <time>2020-06-18T09:13:48Z</time>
      </trkpt>
      <trkpt lat="49.78567" lon="0.63127">
        <ele>32.1</ele>
        <time>2020-06-18T09:13:49Z</time>
      </trkpt>
      <trkpt lat="49.7857" lon="0.63138">
        <ele>31.5</ele>
        <time>2020-06-18T09:13:50Z</time>
      </trkpt>
      <trkpt lat="49.78574" lon="0.63149">
        <ele>30.8</ele>
        <time>2020-06-18T09:13:51Z</time>
      </trkpt>
      <trkpt lat="49.78577" lon="0.6316">
        <ele>30.2</ele>
        <time>2020-06-18T09:13:52Z</time>
      </trkpt>
      <trkpt lat="49.7858" lon="0.6317">
        <ele>29.6</ele>
        <time>2020-06-18T09:13:53Z</time>
      </trkpt>
      <trkpt lat="49.78583" lon="0.63179">
        <ele>29.1</ele>
        <time>2020-06-18T09:13:54Z</time>
      </trkpt>
      <trkpt lat="49.78585" lon="0.63188">
        <ele>28.5</ele>
        <time>2020-06-18T09:13:55Z</time>
      </trkpt>
      <trkpt lat="49.78589" lon="0.63195">
        <ele>28</ele>
        <time>2020-06-18T09:13:56Z</time>
      </trkpt>
      <trkpt lat="49.78593" lon="0.63203">
        <ele>27.5</ele>
        <time>2020-06-18T09:13:57Z</time>
      </trkpt>
      <trkpt lat="49.78596" lon="0.6321">
        <ele>27.1</ele>
        <time>2020-06-18T09:13:58Z</time>
      </trkpt>
      <trkpt lat="49.78599" lon="0.63216">
        <ele>26.6</ele>
        <time>2020-06-18T09:13:59Z</time>
      </trkpt>
      <trkpt lat="49.786" lon="0.63225">
        <ele>26.2</ele>
        <time>2020-06-18T09:14:00Z</time>
      </trkpt>
      <trkpt lat="49.78604" lon="0.6323">
        <ele>26</ele>
        <time>2020-06-18T09:14:01Z</time>
      </trkpt>
      <trkpt lat="49.78609" lon="0.63236">
        <ele>25.8</ele>
        <time>2020-06-18T09:14:02Z</time>
      </trkpt>
      <trkpt lat="49.78614" lon="0.63241">
        <ele>25.6</ele>
        <time>2020-06-18T09:14:03Z</time>
      </trkpt>
      <trkpt lat="49.7862" lon="0.63248">
        <ele>25.1</ele>
        <time>2020-06-18T09:14:04Z</time>
      </trkpt>
      <trkpt lat="49.78625" lon="0.63254">
        <ele>24.6</ele>
        <time>2020-06-18T09:14:05Z</time>
      </trkpt>
      <trkpt lat="49.78631" lon="0.63259">
        <ele>24.1</ele>
        <time>2020-06-18T09:14:06Z</time>
      </trkpt>
      <trkpt lat="49.78636" lon="0.63264">
        <ele>23.7</ele>
        <time>2020-06-18T09:14:07Z</time>
      </trkpt>
      <trkpt lat="49.7864" lon="0.6327">
        <ele>23.3</ele>
        <time>2020-06-18T09:14:08Z</time>
      </trkpt>
      <trkpt lat="49.78644" lon="0.63275">
        <ele>23</ele>
        <time>2020-06-18T09:14:09Z</time>
      </trkpt>
      <trkpt lat="49.78647" lon="0.63278">
        <ele>22.7</ele>
        <time>2020-06-18T09:14:10Z</time>
      </trkpt>
      <trkpt lat="49.78649" lon="0.63281">
        <ele>22.5</ele>
        <time>2020-06-18T09:14:11Z</time>
      </trkpt>
      <trkpt lat="49.7865" lon="0.63283">
        <ele>22.4</ele>
        <time>2020-06-18T09:14:12Z</time>
      </trkpt>
      <trkpt lat="49.78651" lon="0.63285">
        <ele>22.3</ele>
        <time>2020-06-18T09:14:13Z</time>
      </trkpt>
      <trkpt lat="49.78652" lon="0.63285">
        <ele>22.3</ele>
        <time>2020-06-18T09:14:14Z</time>
      </trkpt>
      <trkpt lat="49.78652" lon="0.63285">
        <ele>22.2</ele>
        <time>2020-06-18T09:14:15Z</time>
      </trkpt>
      <trkpt lat="49.78652" lon="0.63286">
        <ele>22.2</ele>
        <time>2020-06-18T09:14:16Z</time>
      </trkpt>
      <trkpt lat="49.78652" lon="0.63287">
        <ele>22.1</ele>
        <time>2020-06-18T09:14:17Z</time>
      </trkpt>
      <trkpt lat="49.78652" lon="0.63286">
        <ele>22.1</ele>
        <time>2020-06-18T09:14:18Z</time>
      </trkpt>
      <trkpt lat="49.78652" lon="0.63286">
        <ele>22.1</ele>
        <time>2020-06-18T09:14:19Z</time>
      </trkpt>
      <trkpt lat="49.78653" lon="0.63285">
        <ele>22</ele>
        <time>2020-06-18T09:14:20Z</time>
      </trkpt>
      <trkpt lat="49.78653" lon="0.63284">
        <ele>22</ele>
        <time>2020-06-18T09:14:21Z</time>
      </trkpt>
      <trkpt lat="49.78653" lon="0.63283">
        <ele>21.9</ele>
        <time>2020-06-18T09:14:22Z</time>
      </trkpt>
      <trkpt lat="49.78655" lon="0.63285">
        <ele>21.8</ele>
        <time>2020-06-18T09:14:23Z</time>
      </trkpt>
      <trkpt lat="49.78656" lon="0.63288">
        <ele>21.7</ele>
        <time>2020-06-18T09:14:24Z</time>
      </trkpt>
      <trkpt lat="49.78657" lon="0.63291">
        <ele>21.4</ele>
        <time>2020-06-18T09:14:25Z</time>
      </trkpt>
      <trkpt lat="49.78658" lon="0.63293">
        <ele>21.3</ele>
        <time>2020-06-18T09:14:26Z</time>
      </trkpt>
      <trkpt lat="49.78659" lon="0.63296">
        <ele>21.2</ele>
        <time>2020-06-18T09:15:54Z</time>
      </trkpt>
      <trkpt lat="49.7866" lon="0.63299">
        <ele>21.2</ele>
        <time>2020-06-18T09:15:55Z</time>
      </trkpt>
      <trkpt lat="49.78662" lon="0.63303">
        <ele>21</ele>
        <time>2020-06-18T09:15:56Z</time>
      </trkpt>
      <trkpt lat="49.78663" lon="0.63304">
        <ele>20.9</ele>
        <time>2020-06-18T09:15:57Z</time>
      </trkpt>
      <trkpt lat="49.78666" lon="0.63307">
        <ele>20.7</ele>
        <time>2020-06-18T09:15:58Z</time>
      </trkpt>
      <trkpt lat="49.78669" lon="0.6331">
        <ele>20.6</ele>
        <time>2020-06-18T09:15:59Z</time>
      </trkpt>
      <trkpt lat="49.78673" lon="0.63313">
        <ele>20.4</ele>
        <time>2020-06-18T09:16:00Z</time>
      </trkpt>
      <trkpt lat="49.78676" lon="0.63316">
        <ele>20.2</ele>
        <time>2020-06-18T09:16:01Z</time>
      </trkpt>
      <trkpt lat="49.7868" lon="0.63319">
        <ele>20</ele>
        <time>2020-06-18T09:16:02Z</time>
      </trkpt>
      <trkpt lat="49.78683" lon="0.63323">
        <ele>19.8</ele>
        <time>2020-06-18T09:16:03Z</time>
      </trkpt>
      <trkpt lat="49.78685" lon="0.63326">
        <ele>19.8</ele>
        <time>2020-06-18T09:16:04Z</time>
      </trkpt>
      <trkpt lat="49.78688" lon="0.63329">
        <ele>19.8</ele>
        <time>2020-06-18T09:16:05Z</time>
      </trkpt>
      <trkpt lat="49.78691" lon="0.63333">
        <ele>19.6</ele>
        <time>2020-06-18T09:16:06Z</time>
      </trkpt>
      <trkpt lat="49.78693" lon="0.63335">
        <ele>19.5</ele>
        <time>2020-06-18T09:16:07Z</time>
      </trkpt>
      <trkpt lat="49.78696" lon="0.63339">
        <ele>19.5</ele>
        <time>2020-06-18T09:16:08Z</time>
      </trkpt>
      <trkpt lat="49.78699" lon="0.63343">
        <ele>19.3</ele>
        <time>2020-06-18T09:16:09Z</time>
      </trkpt>
      <trkpt lat="49.78701" lon="0.63348">
        <ele>19.2</ele>
        <time>2020-06-18T09:16:10Z</time>
      </trkpt>
      <trkpt lat="49.78704" lon="0.63354">
        <ele>19.1</ele>
        <time>2020-06-18T09:16:11Z</time>
      </trkpt>
      <trkpt lat="49.78706" lon="0.6336">
        <ele>19.1</ele>
        <time>2020-06-18T09:16:12Z</time>
      </trkpt>
      <trkpt lat="49.78707" lon="0.63369">
        <ele>18.9</ele>
        <time>2020-06-18T09:16:13Z</time>
      </trkpt>
      <trkpt lat="49.78708" lon="0.63378">
        <ele>18.8</ele>
        <time>2020-06-18T09:16:14Z</time>
      </trkpt>
      <trkpt lat="49.78709" lon="0.63388">
        <ele>18.6</ele>
        <time>2020-06-18T09:16:15Z</time>
      </trkpt>
      <trkpt lat="49.78709" lon="0.63397">
        <ele>18.5</ele>
        <time>2020-06-18T09:16:16Z</time>
      </trkpt>
      <trkpt lat="49.78709" lon="0.63405">
        <ele>18.4</ele>
        <time>2020-06-18T09:16:17Z</time>
      </trkpt>
      <trkpt lat="49.7871" lon="0.63414">
        <ele>18.3</ele>
        <time>2020-06-18T09:16:18Z</time>
      </trkpt>
      <trkpt lat="49.7871" lon="0.63422">
        <ele>18.2</ele>
        <time>2020-06-18T09:16:19Z</time>
      </trkpt>
      <trkpt lat="49.7871" lon="0.63431">
        <ele>18.2</ele>
        <time>2020-06-18T09:16:20Z</time>
      </trkpt>
      <trkpt lat="49.78711" lon="0.63439">
        <ele>18.2</ele>
        <time>2020-06-18T09:16:21Z</time>
      </trkpt>
      <trkpt lat="49.78711" lon="0.63446">
        <ele>18.2</ele>
        <time>2020-06-18T09:16:22Z</time>
      </trkpt>
      <trkpt lat="49.78712" lon="0.63454">
        <ele>18.2</ele>
        <time>2020-06-18T09:16:23Z</time>
      </trkpt>
      <trkpt lat="49.78712" lon="0.63461">
        <ele>18.2</ele>
        <time>2020-06-18T09:16:24Z</time>
      </trkpt>
      <trkpt lat="49.78712" lon="0.63469">
        <ele>18.2</ele>
        <time>2020-06-18T09:16:25Z</time>
      </trkpt>
      <trkpt lat="49.78712" lon="0.63477">
        <ele>18.3</ele>
        <time>2020-06-18T09:16:26Z</time>
      </trkpt>
      <trkpt lat="49.78713" lon="0.63484">
        <ele>18.3</ele>
        <time>2020-06-18T09:16:27Z</time>
      </trkpt>
      <trkpt lat="49.78713" lon="0.63492">
        <ele>18.3</ele>
        <time>2020-06-18T09:16:28Z</time>
      </trkpt>
      <trkpt lat="49.78713" lon="0.63499">
        <ele>18.3</ele>
        <time>2020-06-18T09:16:29Z</time>
      </trkpt>
      <trkpt lat="49.78714" lon="0.63507">
        <ele>18.4</ele>
        <time>2020-06-18T09:16:30Z</time>
      </trkpt>
      <trkpt lat="49.78716" lon="0.63516">
        <ele>18.4</ele>
        <time>2020-06-18T09:16:31Z</time>
      </trkpt>
      <trkpt lat="49.78717" lon="0.63524">
        <ele>18.4</ele>
        <time>2020-06-18T09:16:32Z</time>
      </trkpt>
      <trkpt lat="49.78719" lon="0.63532">
        <ele>18.4</ele>
        <time>2020-06-18T09:16:33Z</time>
      </trkpt>
      <trkpt lat="49.78721" lon="0.63539">
        <ele>18.5</ele>
        <time>2020-06-18T09:16:34Z</time>
      </trkpt>
      <trkpt lat="49.78722" lon="0.63546">
        <ele>18.5</ele>
        <time>2020-06-18T09:16:35Z</time>
      </trkpt>
      <trkpt lat="49.78723" lon="0.63553">
        <ele>18.5</ele>
        <time>2020-06-18T09:16:36Z</time>
      </trkpt>
      <trkpt lat="49.78725" lon="0.6356">
        <ele>18.5</ele>
        <time>2020-06-18T09:16:37Z</time>
      </trkpt>
      <trkpt lat="49.78726" lon="0.63567">
        <ele>18.6</ele>
        <time>2020-06-18T09:16:38Z</time>
      </trkpt>
      <trkpt lat="49.78728" lon="0.63573">
        <ele>18.6</ele>
        <time>2020-06-18T09:16:39Z</time>
      </trkpt>
      <trkpt lat="49.7873" lon="0.6358">
        <ele>18.7</ele>
        <time>2020-06-18T09:16:40Z</time>
      </trkpt>
      <trkpt lat="49.78732" lon="0.63587">
        <ele>18.7</ele>
        <time>2020-06-18T09:16:41Z</time>
      </trkpt>
      <trkpt lat="49.78735" lon="0.63594">
        <ele>18.8</ele>
        <time>2020-06-18T09:16:42Z</time>
      </trkpt>
      <trkpt lat="49.78737" lon="0.63601">
        <ele>18.8</ele>
        <time>2020-06-18T09:16:43Z</time>
      </trkpt>
      <trkpt lat="49.78739" lon="0.63608">
        <ele>18.9</ele>
        <time>2020-06-18T09:16:44Z</time>
      </trkpt>
      <trkpt lat="49.7874" lon="0.63616">
        <ele>19</ele>
        <time>2020-06-18T09:16:45Z</time>
      </trkpt>
      <trkpt lat="49.78742" lon="0.63624">
        <ele>19.1</ele>
        <time>2020-06-18T09:16:46Z</time>
      </trkpt>
      <trkpt lat="49.78744" lon="0.63631">
        <ele>19.2</ele>
        <time>2020-06-18T09:16:47Z</time>
      </trkpt>
      <trkpt lat="49.78745" lon="0.63638">
        <ele>19.2</ele>
        <time>2020-06-18T09:16:48Z</time>
      </trkpt>
      <trkpt lat="49.78747" lon="0.63644">
        <ele>19.3</ele>
        <time>2020-06-18T09:16:49Z</time>
      </trkpt>
      <trkpt lat="49.78748" lon="0.63651">
        <ele>19.3</ele>
        <time>2020-06-18T09:16:50Z</time>
      </trkpt>
      <trkpt lat="49.7875" lon="0.63657">
        <ele>19.3</ele>
        <time>2020-06-18T09:16:51Z</time>
      </trkpt>
      <trkpt lat="49.78751" lon="0.63663">
        <ele>19.3</ele>
        <time>2020-06-18T09:16:52Z</time>
      </trkpt>
      <trkpt lat="49.78753" lon="0.6367">
        <ele>19.3</ele>
        <time>2020-06-18T09:16:53Z</time>
      </trkpt>
      <trkpt lat="49.78754" lon="0.63677">
        <ele>19.4</ele>
        <time>2020-06-18T09:16:54Z</time>
      </trkpt>
      <trkpt lat="49.78756" lon="0.63684">
        <ele>19.4</ele>
        <time>2020-06-18T09:16:55Z</time>
      </trkpt>
      <trkpt lat="49.78758" lon="0.63691">
        <ele>19.4</ele>
        <time>2020-06-18T09:16:56Z</time>
      </trkpt>
      <trkpt lat="49.78759" lon="0.63698">
        <ele>19.4</ele>
        <time>2020-06-18T09:16:57Z</time>
      </trkpt>
      <trkpt lat="49.78761" lon="0.63704">
        <ele>19.4</ele>
        <time>2020-06-18T09:16:58Z</time>
      </trkpt>
      <trkpt lat="49.78762" lon="0.63711">
        <ele>19.4</ele>
        <time>2020-06-18T09:16:59Z</time>
      </trkpt>
      <trkpt lat="49.78763" lon="0.63719">
        <ele>19.5</ele>
        <time>2020-06-18T09:17:00Z</time>
      </trkpt>
      <trkpt lat="49.78764" lon="0.63727">
        <ele>19.5</ele>
        <time>2020-06-18T09:17:01Z</time>
      </trkpt>
      <trkpt lat="49.78764" lon="0.63735">
        <ele>19.5</ele>
        <time>2020-06-18T09:17:02Z</time>
      </trkpt>
      <trkpt lat="49.78765" lon="0.63742">
        <ele>19.6</ele>
        <time>2020-06-18T09:17:03Z</time>
      </trkpt>
      <trkpt lat="49.78766" lon="0.63749">
        <ele>19.7</ele>
        <time>2020-06-18T09:17:04Z</time>
      </trkpt>
      <trkpt lat="49.78767" lon="0.63756">
        <ele>19.9</ele>
        <time>2020-06-18T09:17:05Z</time>
      </trkpt>
      <trkpt lat="49.78767" lon="0.63763">
        <ele>20</ele>
        <time>2020-06-18T09:17:06Z</time>
      </trkpt>
      <trkpt lat="49.78768" lon="0.63769">
        <ele>20.1</ele>
        <time>2020-06-18T09:17:07Z</time>
      </trkpt>
      <trkpt lat="49.78768" lon="0.63776">
        <ele>20.4</ele>
        <time>2020-06-18T09:17:08Z</time>
      </trkpt>
      <trkpt lat="49.78768" lon="0.63782">
        <ele>20.6</ele>
        <time>2020-06-18T09:17:09Z</time>
      </trkpt>
      <trkpt lat="49.78769" lon="0.63789">
        <ele>20.8</ele>
        <time>2020-06-18T09:17:10Z</time>
      </trkpt>
      <trkpt lat="49.78769" lon="0.63795">
        <ele>21</ele>
        <time>2020-06-18T09:17:11Z</time>
      </trkpt>
      <trkpt lat="49.78769" lon="0.63801">
        <ele>21.2</ele>
        <time>2020-06-18T09:17:12Z</time>
      </trkpt>
      <trkpt lat="49.7877" lon="0.63806">
        <ele>21.4</ele>
        <time>2020-06-18T09:17:13Z</time>
      </trkpt>
      <trkpt lat="49.7877" lon="0.63812">
        <ele>21.7</ele>
        <time>2020-06-18T09:17:14Z</time>
      </trkpt>
      <trkpt lat="49.7877" lon="0.63818">
        <ele>21.9</ele>
        <time>2020-06-18T09:17:15Z</time>
      </trkpt>
      <trkpt lat="49.7877" lon="0.63825">
        <ele>22.3</ele>
        <time>2020-06-18T09:17:16Z</time>
      </trkpt>
      <trkpt lat="49.7877" lon="0.63831">
        <ele>22.6</ele>
        <time>2020-06-18T09:17:17Z</time>
      </trkpt>
      <trkpt lat="49.7877" lon="0.63837">
        <ele>22.9</ele>
        <time>2020-06-18T09:17:18Z</time>
      </trkpt>
      <trkpt lat="49.7877" lon="0.63843">
        <ele>23.1</ele>
        <time>2020-06-18T09:17:19Z</time>
      </trkpt>
      <trkpt lat="49.7877" lon="0.63849">
        <ele>23.4</ele>
        <time>2020-06-18T09:17:20Z</time>
      </trkpt>
      <trkpt lat="49.7877" lon="0.63855">
        <ele>23.7</ele>
        <time>2020-06-18T09:17:21Z</time>
      </trkpt>
      <trkpt lat="49.7877" lon="0.63861">
        <ele>23.9</ele>
        <time>2020-06-18T09:17:22Z</time>
      </trkpt>
      <trkpt lat="49.7877" lon="0.63867">
        <ele>24.2</ele>
        <time>2020-06-18T09:17:23Z</time>
      </trkpt>
      <trkpt lat="49.7877" lon="0.63872">
        <ele>24.4</ele>
        <time>2020-06-18T09:17:24Z</time>
      </trkpt>
      <trkpt lat="49.7877" lon="0.63876">
        <ele>24.6</ele>
        <time>2020-06-18T09:17:25Z</time>
      </trkpt>
      <trkpt lat="49.78769" lon="0.6388">
        <ele>24.7</ele>
        <time>2020-06-18T09:17:26Z</time>
      </trkpt>
      <trkpt lat="49.78767" lon="0.63884">
        <ele>24.9</ele>
        <time>2020-06-18T09:17:27Z</time>
      </trkpt>
      <trkpt lat="49.78765" lon="0.63888">
        <ele>25</ele>
        <time>2020-06-18T09:17:28Z</time>
      </trkpt>
      <trkpt lat="49.78765" lon="0.63889">
        <ele>25</ele>
        <time>2020-06-18T09:17:29Z</time>
      </trkpt>
      <trkpt lat="49.78764" lon="0.63895">
        <ele>25</ele>
        <time>2020-06-18T09:17:30Z</time>
      </trkpt>
      <trkpt lat="49.78763" lon="0.63897">
        <ele>24.9</ele>
        <time>2020-06-18T09:17:31Z</time>
      </trkpt>
      <trkpt lat="49.78762" lon="0.63902">
        <ele>24.9</ele>
        <time>2020-06-18T09:17:32Z</time>
      </trkpt>
      <trkpt lat="49.78762" lon="0.63903">
        <ele>24.9</ele>
        <time>2020-06-18T09:17:33Z</time>
      </trkpt>
      <trkpt lat="49.78761" lon="0.63906">
        <ele>24.8</ele>
        <time>2020-06-18T09:17:34Z</time>
      </trkpt>
      <trkpt lat="49.78761" lon="0.63907">
        <ele>24.8</ele>
        <time>2020-06-18T09:17:35Z</time>
      </trkpt>
      <trkpt lat="49.78761" lon="0.63909">
        <ele>24.8</ele>
        <time>2020-06-18T09:17:36Z</time>
      </trkpt>
      <trkpt lat="49.78761" lon="0.63909">
        <ele>24.8</ele>
        <time>2020-06-18T09:17:37Z</time>
      </trkpt>
      <trkpt lat="49.7876" lon="0.6391">
        <ele>24.8</ele>
        <time>2020-06-18T09:17:38Z</time>
      </trkpt>
      <trkpt lat="49.7876" lon="0.6391">
        <ele>24.8</ele>
        <time>2020-06-18T09:17:39Z</time>
      </trkpt>
      <trkpt lat="49.7876" lon="0.63911">
        <ele>24.8</ele>
        <time>2020-06-18T09:17:40Z</time>
      </trkpt>
      <trkpt lat="49.78759" lon="0.6391">
        <ele>24.7</ele>
        <time>2020-06-18T09:17:41Z</time>
      </trkpt>
      <trkpt lat="49.7876" lon="0.6391">
        <ele>24.7</ele>
        <time>2020-06-18T09:17:42Z</time>
      </trkpt>
      <trkpt lat="49.7876" lon="0.6391">
        <ele>24.7</ele>
        <time>2020-06-18T09:17:43Z</time>
      </trkpt>
      <trkpt lat="49.7876" lon="0.6391">
        <ele>24.7</ele>
        <time>2020-06-18T09:17:44Z</time>
      </trkpt>
      <trkpt lat="49.7876" lon="0.6391">
        <ele>24.7</ele>
        <time>2020-06-18T09:17:45Z</time>
      </trkpt>
      <trkpt lat="49.78761" lon="0.6391">
        <ele>24.7</ele>
        <time>2020-06-18T09:17:46Z</time>
      </trkpt>
      <trkpt lat="49.78761" lon="0.6391">
        <ele>24.7</ele>
        <time>2020-06-18T09:17:47Z</time>
      </trkpt>
      <trkpt lat="49.78761" lon="0.6391">
        <ele>24.7</ele>
        <time>2020-06-18T09:17:48Z</time>
      </trkpt>
      <trkpt lat="49.78762" lon="0.6391">
        <ele>24.7</ele>
        <time>2020-06-18T09:17:49Z</time>
      </trkpt>
      <trkpt lat="49.78762" lon="0.6391">
        <ele>24.7</ele>
        <time>2020-06-18T09:17:50Z</time>
      </trkpt>
      <trkpt lat="49.78762" lon="0.6391">
        <ele>24.7</ele>
        <time>2020-06-18T09:17:51Z</time>
      </trkpt>
      <trkpt lat="49.78762" lon="0.6391">
        <ele>24.7</ele>
        <time>2020-06-18T09:17:52Z</time>
      </trkpt>
      <trkpt lat="49.78763" lon="0.6391">
        <ele>24.7</ele>
        <time>2020-06-18T09:17:53Z</time>
      </trkpt>
      <trkpt lat="49.78763" lon="0.6391">
        <ele>24.7</ele>
        <time>2020-06-18T09:17:54Z</time>
      </trkpt>
      <trkpt lat="49.78763" lon="0.6391">
        <ele>24.7</ele>
        <time>2020-06-18T09:17:55Z</time>
      </trkpt>
      <trkpt lat="49.78763" lon="0.6391">
        <ele>24.7</ele>
        <time>2020-06-18T09:17:56Z</time>
      </trkpt>
      <trkpt lat="49.78765" lon="0.63909">
        <ele>24.6</ele>
        <time>2020-06-18T09:17:57Z</time>
      </trkpt>
      <trkpt lat="49.78766" lon="0.63906">
        <ele>24.6</ele>
        <time>2020-06-18T09:17:58Z</time>
      </trkpt>
      <trkpt lat="49.78768" lon="0.63902">
        <ele>24.5</ele>
        <time>2020-06-18T09:17:59Z</time>
      </trkpt>
      <trkpt lat="49.78769" lon="0.63901">
        <ele>24.5</ele>
        <time>2020-06-18T09:18:00Z</time>
      </trkpt>
      <trkpt lat="49.78771" lon="0.63899">
        <ele>24.4</ele>
        <time>2020-06-18T09:18:01Z</time>
      </trkpt>
      <trkpt lat="49.78772" lon="0.63898">
        <ele>24.3</ele>
        <time>2020-06-18T09:18:02Z</time>
      </trkpt>
      <trkpt lat="49.78776" lon="0.63898">
        <ele>24.2</ele>
        <time>2020-06-18T09:18:03Z</time>
      </trkpt>
      <trkpt lat="49.78777" lon="0.63898">
        <ele>24.2</ele>
        <time>2020-06-18T09:18:04Z</time>
      </trkpt>
      <trkpt lat="49.7878" lon="0.63897">
        <ele>24</ele>
        <time>2020-06-18T09:18:05Z</time>
      </trkpt>
      <trkpt lat="49.78784" lon="0.63896">
        <ele>23.9</ele>
        <time>2020-06-18T09:18:06Z</time>
      </trkpt>
      <trkpt lat="49.78787" lon="0.63895">
        <ele>23.8</ele>
        <time>2020-06-18T09:18:07Z</time>
      </trkpt>
      <trkpt lat="49.7879" lon="0.63894">
        <ele>23.7</ele>
        <time>2020-06-18T09:18:08Z</time>
      </trkpt>
      <trkpt lat="49.78794" lon="0.63893">
        <ele>23.5</ele>
        <time>2020-06-18T09:18:09Z</time>
      </trkpt>
      <trkpt lat="49.78798" lon="0.63892">
        <ele>23.4</ele>
        <time>2020-06-18T09:18:10Z</time>
      </trkpt>
      <trkpt lat="49.78803" lon="0.63891">
        <ele>23.2</ele>
        <time>2020-06-18T09:18:11Z</time>
      </trkpt>
      <trkpt lat="49.78808" lon="0.63889">
        <ele>23.1</ele>
        <time>2020-06-18T09:18:12Z</time>
      </trkpt>
      <trkpt lat="49.78813" lon="0.63887">
        <ele>22.9</ele>
        <time>2020-06-18T09:18:13Z</time>
      </trkpt>
      <trkpt lat="49.78818" lon="0.63887">
        <ele>22.8</ele>
        <time>2020-06-18T09:18:14Z</time>
      </trkpt>
      <trkpt lat="49.78823" lon="0.63885">
        <ele>22.6</ele>
        <time>2020-06-18T09:18:15Z</time>
      </trkpt>
      <trkpt lat="49.78829" lon="0.63884">
        <ele>22.4</ele>
        <time>2020-06-18T09:18:16Z</time>
      </trkpt>
      <trkpt lat="49.78834" lon="0.63884">
        <ele>22.2</ele>
        <time>2020-06-18T09:18:17Z</time>
      </trkpt>
      <trkpt lat="49.78839" lon="0.63884">
        <ele>22.1</ele>
        <time>2020-06-18T09:18:18Z</time>
      </trkpt>
      <trkpt lat="49.78844" lon="0.63885">
        <ele>22</ele>
        <time>2020-06-18T09:18:19Z</time>
      </trkpt>
      <trkpt lat="49.7885" lon="0.63885">
        <ele>21.9</ele>
        <time>2020-06-18T09:18:20Z</time>
      </trkpt>
      <trkpt lat="49.78855" lon="0.63886">
        <ele>21.8</ele>
        <time>2020-06-18T09:18:21Z</time>
      </trkpt>
      <trkpt lat="49.7886" lon="0.63887">
        <ele>21.7</ele>
        <time>2020-06-18T09:18:22Z</time>
      </trkpt>
      <trkpt lat="49.78865" lon="0.63887">
        <ele>21.6</ele>
        <time>2020-06-18T09:18:23Z</time>
      </trkpt>
      <trkpt lat="49.7887" lon="0.63889">
        <ele>21.5</ele>
        <time>2020-06-18T09:18:24Z</time>
      </trkpt>
      <trkpt lat="49.78875" lon="0.63891">
        <ele>21.4</ele>
        <time>2020-06-18T09:18:25Z</time>
      </trkpt>
      <trkpt lat="49.7888" lon="0.63892">
        <ele>21.3</ele>
        <time>2020-06-18T09:18:26Z</time>
      </trkpt>
      <trkpt lat="49.78885" lon="0.63894">
        <ele>21.3</ele>
        <time>2020-06-18T09:18:27Z</time>
      </trkpt>
      <trkpt lat="49.7889" lon="0.63897">
        <ele>21.2</ele>
        <time>2020-06-18T09:18:28Z</time>
      </trkpt>
      <trkpt lat="49.78894" lon="0.63901">
        <ele>21.1</ele>
        <time>2020-06-18T09:18:29Z</time>
      </trkpt>
      <trkpt lat="49.78899" lon="0.63904">
        <ele>21</ele>
        <time>2020-06-18T09:18:30Z</time>
      </trkpt>
      <trkpt lat="49.78903" lon="0.63908">
        <ele>20.8</ele>
        <time>2020-06-18T09:18:31Z</time>
      </trkpt>
      <trkpt lat="49.78908" lon="0.63913">
        <ele>20.7</ele>
        <time>2020-06-18T09:18:32Z</time>
      </trkpt>
      <trkpt lat="49.78913" lon="0.63917">
        <ele>20.6</ele>
        <time>2020-06-18T09:18:33Z</time>
      </trkpt>
      <trkpt lat="49.78918" lon="0.6392">
        <ele>20.4</ele>
        <time>2020-06-18T09:18:34Z</time>
      </trkpt>
      <trkpt lat="49.78923" lon="0.63923">
        <ele>20.3</ele>
        <time>2020-06-18T09:18:35Z</time>
      </trkpt>
      <trkpt lat="49.78928" lon="0.63925">
        <ele>20.2</ele>
        <time>2020-06-18T09:18:36Z</time>
      </trkpt>
      <trkpt lat="49.78933" lon="0.63928">
        <ele>20</ele>
        <time>2020-06-18T09:18:37Z</time>
      </trkpt>
      <trkpt lat="49.78939" lon="0.6393">
        <ele>19.9</ele>
        <time>2020-06-18T09:18:38Z</time>
      </trkpt>
      <trkpt lat="49.78945" lon="0.63932">
        <ele>19.7</ele>
        <time>2020-06-18T09:18:39Z</time>
      </trkpt>
      <trkpt lat="49.78952" lon="0.63932">
        <ele>19.5</ele>
        <time>2020-06-18T09:18:40Z</time>
      </trkpt>
      <trkpt lat="49.78958" lon="0.63933">
        <ele>19.3</ele>
        <time>2020-06-18T09:18:41Z</time>
      </trkpt>
      <trkpt lat="49.78965" lon="0.63934">
        <ele>19.2</ele>
        <time>2020-06-18T09:18:42Z</time>
      </trkpt>
      <trkpt lat="49.78972" lon="0.63934">
        <ele>19</ele>
        <time>2020-06-18T09:18:43Z</time>
      </trkpt>
      <trkpt lat="49.78978" lon="0.63934">
        <ele>18.9</ele>
        <time>2020-06-18T09:18:44Z</time>
      </trkpt>
      <trkpt lat="49.78984" lon="0.63934">
        <ele>18.8</ele>
        <time>2020-06-18T09:18:45Z</time>
      </trkpt>
      <trkpt lat="49.78991" lon="0.63935">
        <ele>18.7</ele>
        <time>2020-06-18T09:18:46Z</time>
      </trkpt>
      <trkpt lat="49.78997" lon="0.63935">
        <ele>18.7</ele>
        <time>2020-06-18T09:18:47Z</time>
      </trkpt>
      <trkpt lat="49.79003" lon="0.63935">
        <ele>18.6</ele>
        <time>2020-06-18T09:18:48Z</time>
      </trkpt>
      <trkpt lat="49.7901" lon="0.63936">
        <ele>18.5</ele>
        <time>2020-06-18T09:18:49Z</time>
      </trkpt>
      <trkpt lat="49.79016" lon="0.63936">
        <ele>18.5</ele>
        <time>2020-06-18T09:18:50Z</time>
      </trkpt>
      <trkpt lat="49.79022" lon="0.63937">
        <ele>18.4</ele>
        <time>2020-06-18T09:18:51Z</time>
      </trkpt>
      <trkpt lat="49.79027" lon="0.63937">
        <ele>18.4</ele>
        <time>2020-06-18T09:18:52Z</time>
      </trkpt>
      <trkpt lat="49.79032" lon="0.63937">
        <ele>18.3</ele>
        <time>2020-06-18T09:18:53Z</time>
      </trkpt>
      <trkpt lat="49.79036" lon="0.63936">
        <ele>18.3</ele>
        <time>2020-06-18T09:18:54Z</time>
      </trkpt>
      <trkpt lat="49.7904" lon="0.63936">
        <ele>18.3</ele>
        <time>2020-06-18T09:18:55Z</time>
      </trkpt>
      <trkpt lat="49.79044" lon="0.63936">
        <ele>18.3</ele>
        <time>2020-06-18T09:18:56Z</time>
      </trkpt>
      <trkpt lat="49.79047" lon="0.63936">
        <ele>18.3</ele>
        <time>2020-06-18T09:18:57Z</time>
      </trkpt>
      <trkpt lat="49.79051" lon="0.63935">
        <ele>18.3</ele>
        <time>2020-06-18T09:18:58Z</time>
      </trkpt>
      <trkpt lat="49.79052" lon="0.63936">
        <ele>18.3</ele>
        <time>2020-06-18T09:18:59Z</time>
      </trkpt>
      <trkpt lat="49.79053" lon="0.63936">
        <ele>18.3</ele>
        <time>2020-06-18T09:19:00Z</time>
      </trkpt>
      <trkpt lat="49.79055" lon="0.63937">
        <ele>18.3</ele>
        <time>2020-06-18T09:19:01Z</time>
      </trkpt>
      <trkpt lat="49.79057" lon="0.63936">
        <ele>18.3</ele>
        <time>2020-06-18T09:19:02Z</time>
      </trkpt>
      <trkpt lat="49.79058" lon="0.63936">
        <ele>18.3</ele>
        <time>2020-06-18T09:19:03Z</time>
      </trkpt>
      <trkpt lat="49.79059" lon="0.63936">
        <ele>18.3</ele>
        <time>2020-06-18T09:19:04Z</time>
      </trkpt>
      <trkpt lat="49.7906" lon="0.63936">
        <ele>18.3</ele>
        <time>2020-06-18T09:19:05Z</time>
      </trkpt>
      <trkpt lat="49.7906" lon="0.63936">
        <ele>18.3</ele>
        <time>2020-06-18T09:19:06Z</time>
      </trkpt>
      <trkpt lat="49.79061" lon="0.63935">
        <ele>18.3</ele>
        <time>2020-06-18T09:19:07Z</time>
      </trkpt>
      <trkpt lat="49.79062" lon="0.63932">
        <ele>18.3</ele>
        <time>2020-06-18T09:19:08Z</time>
      </trkpt>
      <trkpt lat="49.79062" lon="0.6393">
        <ele>18.3</ele>
        <time>2020-06-18T09:19:09Z</time>
      </trkpt>
      <trkpt lat="49.79062" lon="0.63928">
        <ele>18.3</ele>
        <time>2020-06-18T09:19:10Z</time>
      </trkpt>
      <trkpt lat="49.79062" lon="0.63927">
        <ele>18.3</ele>
        <time>2020-06-18T09:19:11Z</time>
      </trkpt>
      <trkpt lat="49.7906" lon="0.63925">
        <ele>18.3</ele>
        <time>2020-06-18T09:19:12Z</time>
      </trkpt>
      <trkpt lat="49.79057" lon="0.63926">
        <ele>18.3</ele>
        <time>2020-06-18T09:19:13Z</time>
      </trkpt>
      <trkpt lat="49.79055" lon="0.63926">
        <ele>18.3</ele>
        <time>2020-06-18T09:19:14Z</time>
      </trkpt>
      <trkpt lat="49.79052" lon="0.63928">
        <ele>18.3</ele>
        <time>2020-06-18T09:19:15Z</time>
      </trkpt>
      <trkpt lat="49.79051" lon="0.63928">
        <ele>18.3</ele>
        <time>2020-06-18T09:19:16Z</time>
      </trkpt>
      <trkpt lat="49.79047" lon="0.6393">
        <ele>18.3</ele>
        <time>2020-06-18T09:19:17Z</time>
      </trkpt>
      <trkpt lat="49.79046" lon="0.6393">
        <ele>18.3</ele>
        <time>2020-06-18T09:19:18Z</time>
      </trkpt>
      <trkpt lat="49.79043" lon="0.63931">
        <ele>18.4</ele>
        <time>2020-06-18T09:19:19Z</time>
      </trkpt>
      <trkpt lat="49.7904" lon="0.63931">
        <ele>18.4</ele>
        <time>2020-06-18T09:19:20Z</time>
      </trkpt>
      <trkpt lat="49.79037" lon="0.63932">
        <ele>18.4</ele>
        <time>2020-06-18T09:19:21Z</time>
      </trkpt>
      <trkpt lat="49.79033" lon="0.63933">
        <ele>18.4</ele>
        <time>2020-06-18T09:19:22Z</time>
      </trkpt>
      <trkpt lat="49.79029" lon="0.63934">
        <ele>18.4</ele>
        <time>2020-06-18T09:19:23Z</time>
      </trkpt>
      <trkpt lat="49.79024" lon="0.63934">
        <ele>18.5</ele>
        <time>2020-06-18T09:19:24Z</time>
      </trkpt>
      <trkpt lat="49.79019" lon="0.63934">
        <ele>18.5</ele>
        <time>2020-06-18T09:19:25Z</time>
      </trkpt>
      <trkpt lat="49.79015" lon="0.63934">
        <ele>18.5</ele>
        <time>2020-06-18T09:19:26Z</time>
      </trkpt>
      <trkpt lat="49.7901" lon="0.63934">
        <ele>18.5</ele>
        <time>2020-06-18T09:19:27Z</time>
      </trkpt>
      <trkpt lat="49.79006" lon="0.63934">
        <ele>18.6</ele>
        <time>2020-06-18T09:19:28Z</time>
      </trkpt>
      <trkpt lat="49.79001" lon="0.63934">
        <ele>18.6</ele>
        <time>2020-06-18T09:19:29Z</time>
      </trkpt>
      <trkpt lat="49.78996" lon="0.63933">
        <ele>18.7</ele>
        <time>2020-06-18T09:19:30Z</time>
      </trkpt>
      <trkpt lat="49.78992" lon="0.63934">
        <ele>18.7</ele>
        <time>2020-06-18T09:19:31Z</time>
      </trkpt>
      <trkpt lat="49.78988" lon="0.63934">
        <ele>18.8</ele>
        <time>2020-06-18T09:19:32Z</time>
      </trkpt>
      <trkpt lat="49.78984" lon="0.63933">
        <ele>18.8</ele>
        <time>2020-06-18T09:19:33Z</time>
      </trkpt>
      <trkpt lat="49.78979" lon="0.63933">
        <ele>18.9</ele>
        <time>2020-06-18T09:19:34Z</time>
      </trkpt>
      <trkpt lat="49.78974" lon="0.63933">
        <ele>19</ele>
        <time>2020-06-18T09:19:35Z</time>
      </trkpt>
      <trkpt lat="49.7897" lon="0.63932">
        <ele>19.1</ele>
        <time>2020-06-18T09:19:36Z</time>
      </trkpt>
      <trkpt lat="49.78965" lon="0.63933">
        <ele>19.2</ele>
        <time>2020-06-18T09:19:37Z</time>
      </trkpt>
      <trkpt lat="49.78961" lon="0.63932">
        <ele>19.3</ele>
        <time>2020-06-18T09:19:38Z</time>
      </trkpt>
      <trkpt lat="49.78956" lon="0.63932">
        <ele>19.4</ele>
        <time>2020-06-18T09:19:39Z</time>
      </trkpt>
      <trkpt lat="49.78953" lon="0.63932">
        <ele>19.5</ele>
        <time>2020-06-18T09:19:40Z</time>
      </trkpt>
      <trkpt lat="49.7895" lon="0.63931">
        <ele>19.6</ele>
        <time>2020-06-18T09:19:41Z</time>
      </trkpt>
      <trkpt lat="49.78946" lon="0.6393">
        <ele>19.7</ele>
        <time>2020-06-18T09:19:42Z</time>
      </trkpt>
      <trkpt lat="49.78943" lon="0.63929">
        <ele>19.8</ele>
        <time>2020-06-18T09:19:43Z</time>
      </trkpt>
      <trkpt lat="49.78939" lon="0.63928">
        <ele>19.9</ele>
        <time>2020-06-18T09:19:44Z</time>
      </trkpt>
      <trkpt lat="49.78936" lon="0.63928">
        <ele>20</ele>
        <time>2020-06-18T09:19:45Z</time>
      </trkpt>
      <trkpt lat="49.78934" lon="0.63926">
        <ele>20.1</ele>
        <time>2020-06-18T09:19:46Z</time>
      </trkpt>
      <trkpt lat="49.7893" lon="0.63925">
        <ele>20.2</ele>
        <time>2020-06-18T09:19:47Z</time>
      </trkpt>
      <trkpt lat="49.78929" lon="0.63924">
        <ele>20.2</ele>
        <time>2020-06-18T09:19:48Z</time>
      </trkpt>
      <trkpt lat="49.78925" lon="0.63923">
        <ele>20.3</ele>
        <time>2020-06-18T09:19:49Z</time>
      </trkpt>
      <trkpt lat="49.78924" lon="0.63922">
        <ele>20.3</ele>
        <time>2020-06-18T09:19:50Z</time>
      </trkpt>
      <trkpt lat="49.78921" lon="0.63921">
        <ele>20.4</ele>
        <time>2020-06-18T09:19:51Z</time>
      </trkpt>
      <trkpt lat="49.78918" lon="0.63919">
        <ele>20.5</ele>
        <time>2020-06-18T09:19:52Z</time>
      </trkpt>
      <trkpt lat="49.78915" lon="0.63917">
        <ele>20.6</ele>
        <time>2020-06-18T09:19:53Z</time>
      </trkpt>
      <trkpt lat="49.78911" lon="0.63915">
        <ele>20.7</ele>
        <time>2020-06-18T09:19:54Z</time>
      </trkpt>
      <trkpt lat="49.7891" lon="0.63914">
        <ele>20.7</ele>
        <time>2020-06-18T09:19:55Z</time>
      </trkpt>
      <trkpt lat="49.78906" lon="0.63912">
        <ele>20.8</ele>
        <time>2020-06-18T09:19:56Z</time>
      </trkpt>
      <trkpt lat="49.78903" lon="0.63911">
        <ele>20.9</ele>
        <time>2020-06-18T09:19:57Z</time>
      </trkpt>
      <trkpt lat="49.789" lon="0.63909">
        <ele>21.2</ele>
        <time>2020-06-18T09:19:58Z</time>
      </trkpt>
      <trkpt lat="49.789" lon="0.63908">
        <ele>21.3</ele>
        <time>2020-06-18T09:19:59Z</time>
      </trkpt>
      <trkpt lat="49.78897" lon="0.63909">
        <ele>21.6</ele>
        <time>2020-06-18T09:20:00Z</time>
      </trkpt>
      <trkpt lat="49.78896" lon="0.63911">
        <ele>21.7</ele>
        <time>2020-06-18T09:20:01Z</time>
      </trkpt>
      <trkpt lat="49.78896" lon="0.63912">
        <ele>21.8</ele>
        <time>2020-06-18T09:20:02Z</time>
      </trkpt>
      <trkpt lat="49.78895" lon="0.63917">
        <ele>22.2</ele>
        <time>2020-06-18T09:20:03Z</time>
      </trkpt>
      <trkpt lat="49.78895" lon="0.63918">
        <ele>22.3</ele>
        <time>2020-06-18T09:20:04Z</time>
      </trkpt>
      <trkpt lat="49.78894" lon="0.63924">
        <ele>22.7</ele>
        <time>2020-06-18T09:20:05Z</time>
      </trkpt>
      <trkpt lat="49.78894" lon="0.63925">
        <ele>22.8</ele>
        <time>2020-06-18T09:20:06Z</time>
      </trkpt>
      <trkpt lat="49.78893" lon="0.6393">
        <ele>23.1</ele>
        <time>2020-06-18T09:20:07Z</time>
      </trkpt>
      <trkpt lat="49.78892" lon="0.63931">
        <ele>23.2</ele>
        <time>2020-06-18T09:20:08Z</time>
      </trkpt>
      <trkpt lat="49.78892" lon="0.63933">
        <ele>23.4</ele>
        <time>2020-06-18T09:20:09Z</time>
      </trkpt>
      <trkpt lat="49.78891" lon="0.63935">
        <ele>23.5</ele>
        <time>2020-06-18T09:20:10Z</time>
      </trkpt>
      <trkpt lat="49.7889" lon="0.63938">
        <ele>23.8</ele>
        <time>2020-06-18T09:20:11Z</time>
      </trkpt>
      <trkpt lat="49.7889" lon="0.6394">
        <ele>24</ele>
        <time>2020-06-18T09:20:12Z</time>
      </trkpt>
      <trkpt lat="49.78889" lon="0.63942">
        <ele>24.1</ele>
        <time>2020-06-18T09:20:13Z</time>
      </trkpt>
      <trkpt lat="49.78888" lon="0.63947">
        <ele>24.5</ele>
        <time>2020-06-18T09:20:14Z</time>
      </trkpt>
      <trkpt lat="49.78888" lon="0.63949">
        <ele>24.7</ele>
        <time>2020-06-18T09:20:15Z</time>
      </trkpt>
      <trkpt lat="49.78887" lon="0.63953">
        <ele>25</ele>
        <time>2020-06-18T09:20:16Z</time>
      </trkpt>
      <trkpt lat="49.78887" lon="0.63954">
        <ele>25.1</ele>
        <time>2020-06-18T09:20:17Z</time>
      </trkpt>
      <trkpt lat="49.78885" lon="0.63959">
        <ele>25.5</ele>
        <time>2020-06-18T09:20:18Z</time>
      </trkpt>
      <trkpt lat="49.78885" lon="0.6396">
        <ele>25.6</ele>
        <time>2020-06-18T09:20:19Z</time>
      </trkpt>
      <trkpt lat="49.78883" lon="0.63965">
        <ele>26</ele>
        <time>2020-06-18T09:20:20Z</time>
      </trkpt>
      <trkpt lat="49.78883" lon="0.63966">
        <ele>26.1</ele>
        <time>2020-06-18T09:20:21Z</time>
      </trkpt>
      <trkpt lat="49.78881" lon="0.6397">
        <ele>26.4</ele>
        <time>2020-06-18T09:20:22Z</time>
      </trkpt>
      <trkpt lat="49.78881" lon="0.63972">
        <ele>26.6</ele>
        <time>2020-06-18T09:20:23Z</time>
      </trkpt>
      <trkpt lat="49.7888" lon="0.63976">
        <ele>26.9</ele>
        <time>2020-06-18T09:20:24Z</time>
      </trkpt>
      <trkpt lat="49.78879" lon="0.63978">
        <ele>27.1</ele>
        <time>2020-06-18T09:20:25Z</time>
      </trkpt>
      <trkpt lat="49.78878" lon="0.63981">
        <ele>27.4</ele>
        <time>2020-06-18T09:20:26Z</time>
      </trkpt>
      <trkpt lat="49.78877" lon="0.63984">
        <ele>27.6</ele>
        <time>2020-06-18T09:20:27Z</time>
      </trkpt>
      <trkpt lat="49.78877" lon="0.63986">
        <ele>27.8</ele>
        <time>2020-06-18T09:20:28Z</time>
      </trkpt>
      <trkpt lat="49.78875" lon="0.6399">
        <ele>28.2</ele>
        <time>2020-06-18T09:20:29Z</time>
      </trkpt>
      <trkpt lat="49.78875" lon="0.63991">
        <ele>28.3</ele>
        <time>2020-06-18T09:20:30Z</time>
      </trkpt>
      <trkpt lat="49.78874" lon="0.63994">
        <ele>28.5</ele>
        <time>2020-06-18T09:20:31Z</time>
      </trkpt>
      <trkpt lat="49.78873" lon="0.63996">
        <ele>28.7</ele>
        <time>2020-06-18T09:20:32Z</time>
      </trkpt>
      <trkpt lat="49.78873" lon="0.63998">
        <ele>28.8</ele>
        <time>2020-06-18T09:20:33Z</time>
      </trkpt>
      <trkpt lat="49.78872" lon="0.64001">
        <ele>29.1</ele>
        <time>2020-06-18T09:20:34Z</time>
      </trkpt>
      <trkpt lat="49.78871" lon="0.64004">
        <ele>29.3</ele>
        <time>2020-06-18T09:20:35Z</time>
      </trkpt>
      <trkpt lat="49.78871" lon="0.64006">
        <ele>29.6</ele>
        <time>2020-06-18T09:20:36Z</time>
      </trkpt>
      <trkpt lat="49.7887" lon="0.64011">
        <ele>29.9</ele>
        <time>2020-06-18T09:20:37Z</time>
      </trkpt>
      <trkpt lat="49.7887" lon="0.64012">
        <ele>30.1</ele>
        <time>2020-06-18T09:20:38Z</time>
      </trkpt>
      <trkpt lat="49.7887" lon="0.64015">
        <ele>30.3</ele>
        <time>2020-06-18T09:20:39Z</time>
      </trkpt>
      <trkpt lat="49.78869" lon="0.64017">
        <ele>30.4</ele>
        <time>2020-06-18T09:20:40Z</time>
      </trkpt>
      <trkpt lat="49.78869" lon="0.64018">
        <ele>30.5</ele>
        <time>2020-06-18T09:20:41Z</time>
      </trkpt>
      <trkpt lat="49.78868" lon="0.6402">
        <ele>30.7</ele>
        <time>2020-06-18T09:20:42Z</time>
      </trkpt>
      <trkpt lat="49.78868" lon="0.64023">
        <ele>31</ele>
        <time>2020-06-18T09:20:43Z</time>
      </trkpt>
      <trkpt lat="49.78867" lon="0.64025">
        <ele>31.2</ele>
        <time>2020-06-18T09:20:44Z</time>
      </trkpt>
      <trkpt lat="49.78867" lon="0.64028">
        <ele>31.4</ele>
        <time>2020-06-18T09:20:45Z</time>
      </trkpt>
      <trkpt lat="49.78867" lon="0.64031">
        <ele>31.7</ele>
        <time>2020-06-18T09:20:46Z</time>
      </trkpt>
      <trkpt lat="49.78867" lon="0.64033">
        <ele>31.9</ele>
        <time>2020-06-18T09:20:47Z</time>
      </trkpt>
      <trkpt lat="49.78866" lon="0.64038">
        <ele>32.2</ele>
        <time>2020-06-18T09:20:48Z</time>
      </trkpt>
      <trkpt lat="49.78865" lon="0.6404">
        <ele>32.4</ele>
        <time>2020-06-18T09:20:49Z</time>
      </trkpt>
      <trkpt lat="49.78865" lon="0.64044">
        <ele>32.8</ele>
        <time>2020-06-18T09:20:50Z</time>
      </trkpt>
      <trkpt lat="49.78865" lon="0.64045">
        <ele>32.9</ele>
        <time>2020-06-18T09:20:51Z</time>
      </trkpt>
      <trkpt lat="49.78865" lon="0.64049">
        <ele>33.1</ele>
        <time>2020-06-18T09:20:52Z</time>
      </trkpt>
      <trkpt lat="49.78865" lon="0.6405">
        <ele>33.3</ele>
        <time>2020-06-18T09:20:53Z</time>
      </trkpt>
      <trkpt lat="49.78865" lon="0.64053">
        <ele>33.5</ele>
        <time>2020-06-18T09:20:54Z</time>
      </trkpt>
      <trkpt lat="49.78865" lon="0.64055">
        <ele>33.7</ele>
        <time>2020-06-18T09:20:55Z</time>
      </trkpt>
      <trkpt lat="49.78865" lon="0.64058">
        <ele>33.9</ele>
        <time>2020-06-18T09:20:56Z</time>
      </trkpt>
      <trkpt lat="49.78866" lon="0.64061">
        <ele>34.2</ele>
        <time>2020-06-18T09:20:57Z</time>
      </trkpt>
      <trkpt lat="49.78866" lon="0.64063">
        <ele>34.4</ele>
        <time>2020-06-18T09:20:58Z</time>
      </trkpt>
      <trkpt lat="49.78866" lon="0.64065">
        <ele>34.6</ele>
        <time>2020-06-18T09:20:59Z</time>
      </trkpt>
      <trkpt lat="49.78865" lon="0.64069">
        <ele>35</ele>
        <time>2020-06-18T09:21:00Z</time>
      </trkpt>
      <trkpt lat="49.78865" lon="0.64071">
        <ele>35.1</ele>
        <time>2020-06-18T09:21:01Z</time>
      </trkpt>
      <trkpt lat="49.78865" lon="0.64073">
        <ele>35.3</ele>
        <time>2020-06-18T09:21:02Z</time>
      </trkpt>
      <trkpt lat="49.78864" lon="0.64076">
        <ele>35.5</ele>
        <time>2020-06-18T09:21:03Z</time>
      </trkpt>
      <trkpt lat="49.78864" lon="0.64078">
        <ele>35.7</ele>
        <time>2020-06-18T09:21:04Z</time>
      </trkpt>
      <trkpt lat="49.78863" lon="0.64081">
        <ele>36</ele>
        <time>2020-06-18T09:21:05Z</time>
      </trkpt>
      <trkpt lat="49.78863" lon="0.64083">
        <ele>36.2</ele>
        <time>2020-06-18T09:21:06Z</time>
      </trkpt>
      <trkpt lat="49.78863" lon="0.64085">
        <ele>36.3</ele>
        <time>2020-06-18T09:21:07Z</time>
      </trkpt>
      <trkpt lat="49.78863" lon="0.64088">
        <ele>36.5</ele>
        <time>2020-06-18T09:21:08Z</time>
      </trkpt>
      <trkpt lat="49.78863" lon="0.6409">
        <ele>36.7</ele>
        <time>2020-06-18T09:21:09Z</time>
      </trkpt>
      <trkpt lat="49.78863" lon="0.64092">
        <ele>36.9</ele>
        <time>2020-06-18T09:21:10Z</time>
      </trkpt>
      <trkpt lat="49.78864" lon="0.64095">
        <ele>37.2</ele>
        <time>2020-06-18T09:21:11Z</time>
      </trkpt>
      <trkpt lat="49.78864" lon="0.64098">
        <ele>37.5</ele>
        <time>2020-06-18T09:21:12Z</time>
      </trkpt>
      <trkpt lat="49.78864" lon="0.641">
        <ele>37.6</ele>
        <time>2020-06-18T09:21:13Z</time>
      </trkpt>
      <trkpt lat="49.78864" lon="0.64101">
        <ele>37.7</ele>
        <time>2020-06-18T09:21:14Z</time>
      </trkpt>
      <trkpt lat="49.78865" lon="0.64106">
        <ele>38.1</ele>
        <time>2020-06-18T09:21:15Z</time>
      </trkpt>
      <trkpt lat="49.78865" lon="0.64107">
        <ele>38.2</ele>
        <time>2020-06-18T09:21:16Z</time>
      </trkpt>
      <trkpt lat="49.78866" lon="0.6411">
        <ele>38.5</ele>
        <time>2020-06-18T09:21:17Z</time>
      </trkpt>
      <trkpt lat="49.78866" lon="0.64112">
        <ele>38.6</ele>
        <time>2020-06-18T09:21:18Z</time>
      </trkpt>
      <trkpt lat="49.78866" lon="0.64115">
        <ele>38.9</ele>
        <time>2020-06-18T09:21:19Z</time>
      </trkpt>
      <trkpt lat="49.78867" lon="0.64116">
        <ele>39</ele>
        <time>2020-06-18T09:21:20Z</time>
      </trkpt>
      <trkpt lat="49.78867" lon="0.64118">
        <ele>39.1</ele>
        <time>2020-06-18T09:21:21Z</time>
      </trkpt>
      <trkpt lat="49.78867" lon="0.6412">
        <ele>39.3</ele>
        <time>2020-06-18T09:21:22Z</time>
      </trkpt>
      <trkpt lat="49.78867" lon="0.64123">
        <ele>39.5</ele>
        <time>2020-06-18T09:21:23Z</time>
      </trkpt>
      <trkpt lat="49.78866" lon="0.64125">
        <ele>39.7</ele>
        <time>2020-06-18T09:21:24Z</time>
      </trkpt>
      <trkpt lat="49.78866" lon="0.64127">
        <ele>39.9</ele>
        <time>2020-06-18T09:21:25Z</time>
      </trkpt>
      <trkpt lat="49.78866" lon="0.64128">
        <ele>40</ele>
        <time>2020-06-18T09:21:26Z</time>
      </trkpt>
      <trkpt lat="49.78867" lon="0.64131">
        <ele>40.2</ele>
        <time>2020-06-18T09:21:27Z</time>
      </trkpt>
      <trkpt lat="49.78867" lon="0.64134">
        <ele>40.4</ele>
        <time>2020-06-18T09:21:28Z</time>
      </trkpt>
      <trkpt lat="49.78867" lon="0.64137">
        <ele>41.1</ele>
        <time>2020-06-18T09:21:29Z</time>
      </trkpt>
      <trkpt lat="49.78867" lon="0.64139">
        <ele>41.3</ele>
        <time>2020-06-18T09:21:30Z</time>
      </trkpt>
      <trkpt lat="49.78867" lon="0.64141">
        <ele>41.4</ele>
        <time>2020-06-18T09:21:31Z</time>
      </trkpt>
      <trkpt lat="49.78868" lon="0.64143">
        <ele>41.6</ele>
        <time>2020-06-18T09:21:32Z</time>
      </trkpt>
      <trkpt lat="49.78868" lon="0.64148">
        <ele>41.9</ele>
        <time>2020-06-18T09:21:33Z</time>
      </trkpt>
      <trkpt lat="49.78868" lon="0.64149">
        <ele>42</ele>
        <time>2020-06-18T09:21:34Z</time>
      </trkpt>
      <trkpt lat="49.78868" lon="0.64151">
        <ele>42.1</ele>
        <time>2020-06-18T09:21:35Z</time>
      </trkpt>
      <trkpt lat="49.78868" lon="0.64153">
        <ele>42.2</ele>
        <time>2020-06-18T09:21:36Z</time>
      </trkpt>
      <trkpt lat="49.78868" lon="0.64155">
        <ele>42.4</ele>
        <time>2020-06-18T09:21:37Z</time>
      </trkpt>
      <trkpt lat="49.78868" lon="0.64158">
        <ele>42.5</ele>
        <time>2020-06-18T09:21:38Z</time>
      </trkpt>
      <trkpt lat="49.78869" lon="0.64161">
        <ele>42.8</ele>
        <time>2020-06-18T09:21:39Z</time>
      </trkpt>
      <trkpt lat="49.78869" lon="0.64163">
        <ele>42.9</ele>
        <time>2020-06-18T09:21:40Z</time>
      </trkpt>
      <trkpt lat="49.78869" lon="0.64165">
        <ele>43</ele>
        <time>2020-06-18T09:21:41Z</time>
      </trkpt>
      <trkpt lat="49.78869" lon="0.6417">
        <ele>43.4</ele>
        <time>2020-06-18T09:21:42Z</time>
      </trkpt>
      <trkpt lat="49.78869" lon="0.64172">
        <ele>43.5</ele>
        <time>2020-06-18T09:21:43Z</time>
      </trkpt>
      <trkpt lat="49.7887" lon="0.64178">
        <ele>43.9</ele>
        <time>2020-06-18T09:21:44Z</time>
      </trkpt>
      <trkpt lat="49.7887" lon="0.64179">
        <ele>44</ele>
        <time>2020-06-18T09:21:45Z</time>
      </trkpt>
      <trkpt lat="49.7887" lon="0.64182">
        <ele>44.5</ele>
        <time>2020-06-18T09:21:46Z</time>
      </trkpt>
      <trkpt lat="49.78871" lon="0.64184">
        <ele>44.7</ele>
        <time>2020-06-18T09:21:47Z</time>
      </trkpt>
      <trkpt lat="49.78871" lon="0.64188">
        <ele>45.1</ele>
        <time>2020-06-18T09:21:48Z</time>
      </trkpt>
      <trkpt lat="49.78871" lon="0.6419">
        <ele>45.2</ele>
        <time>2020-06-18T09:21:49Z</time>
      </trkpt>
      <trkpt lat="49.78871" lon="0.64192">
        <ele>45.4</ele>
        <time>2020-06-18T09:21:50Z</time>
      </trkpt>
      <trkpt lat="49.78872" lon="0.64195">
        <ele>45.6</ele>
        <time>2020-06-18T09:21:51Z</time>
      </trkpt>
      <trkpt lat="49.78872" lon="0.64198">
        <ele>45.8</ele>
        <time>2020-06-18T09:21:52Z</time>
      </trkpt>
      <trkpt lat="49.78872" lon="0.642">
        <ele>46.1</ele>
        <time>2020-06-18T09:21:53Z</time>
      </trkpt>
      <trkpt lat="49.78873" lon="0.64203">
        <ele>46.3</ele>
        <time>2020-06-18T09:21:54Z</time>
      </trkpt>
      <trkpt lat="49.78873" lon="0.64206">
        <ele>46.5</ele>
        <time>2020-06-18T09:21:55Z</time>
      </trkpt>
      <trkpt lat="49.78873" lon="0.6421">
        <ele>46.9</ele>
        <time>2020-06-18T09:21:56Z</time>
      </trkpt>
      <trkpt lat="49.78874" lon="0.64215">
        <ele>47.3</ele>
        <time>2020-06-18T09:21:57Z</time>
      </trkpt>
      <trkpt lat="49.78874" lon="0.64216">
        <ele>47.4</ele>
        <time>2020-06-18T09:21:58Z</time>
      </trkpt>
      <trkpt lat="49.78874" lon="0.64221">
        <ele>47.7</ele>
        <time>2020-06-18T09:21:59Z</time>
      </trkpt>
      <trkpt lat="49.78874" lon="0.64222">
        <ele>47.9</ele>
        <time>2020-06-18T09:22:00Z</time>
      </trkpt>
      <trkpt lat="49.78875" lon="0.64227">
        <ele>48.3</ele>
        <time>2020-06-18T09:22:01Z</time>
      </trkpt>
      <trkpt lat="49.78875" lon="0.64228">
        <ele>48.4</ele>
        <time>2020-06-18T09:22:02Z</time>
      </trkpt>
      <trkpt lat="49.78876" lon="0.64233">
        <ele>48.8</ele>
        <time>2020-06-18T09:22:03Z</time>
      </trkpt>
      <trkpt lat="49.78877" lon="0.64234">
        <ele>48.9</ele>
        <time>2020-06-18T09:22:04Z</time>
      </trkpt>
      <trkpt lat="49.78878" lon="0.64238">
        <ele>49.3</ele>
        <time>2020-06-18T09:22:05Z</time>
      </trkpt>
      <trkpt lat="49.78878" lon="0.6424">
        <ele>49.5</ele>
        <time>2020-06-18T09:22:06Z</time>
      </trkpt>
      <trkpt lat="49.78878" lon="0.64245">
        <ele>49.9</ele>
        <time>2020-06-18T09:22:07Z</time>
      </trkpt>
      <trkpt lat="49.78878" lon="0.64246">
        <ele>50.4</ele>
        <time>2020-06-18T09:22:08Z</time>
      </trkpt>
      <trkpt lat="49.78878" lon="0.64251">
        <ele>50.4</ele>
        <time>2020-06-18T09:22:09Z</time>
      </trkpt>
      <trkpt lat="49.78878" lon="0.64252">
        <ele>50.4</ele>
        <time>2020-06-18T09:22:10Z</time>
      </trkpt>
      <trkpt lat="49.78879" lon="0.64255">
        <ele>50.5</ele>
        <time>2020-06-18T09:22:11Z</time>
      </trkpt>
      <trkpt lat="49.78879" lon="0.64258">
        <ele>50.5</ele>
        <time>2020-06-18T09:22:12Z</time>
      </trkpt>
      <trkpt lat="49.78878" lon="0.64262">
        <ele>50.5</ele>
        <time>2020-06-18T09:22:13Z</time>
      </trkpt>
      <trkpt lat="49.78878" lon="0.64264">
        <ele>50.7</ele>
        <time>2020-06-18T09:22:14Z</time>
      </trkpt>
      <trkpt lat="49.78879" lon="0.64268">
        <ele>51.2</ele>
        <time>2020-06-18T09:22:15Z</time>
      </trkpt>
      <trkpt lat="49.78879" lon="0.64269">
        <ele>51.4</ele>
        <time>2020-06-18T09:22:16Z</time>
      </trkpt>
      <trkpt lat="49.78879" lon="0.64273">
        <ele>51.8</ele>
        <time>2020-06-18T09:22:17Z</time>
      </trkpt>
      <trkpt lat="49.78879" lon="0.64274">
        <ele>52</ele>
        <time>2020-06-18T09:22:18Z</time>
      </trkpt>
      <trkpt lat="49.78878" lon="0.64276">
        <ele>52.2</ele>
        <time>2020-06-18T09:22:19Z</time>
      </trkpt>
      <trkpt lat="49.78878" lon="0.64278">
        <ele>52.5</ele>
        <time>2020-06-18T09:22:20Z</time>
      </trkpt>
      <trkpt lat="49.78878" lon="0.64281">
        <ele>52.8</ele>
        <time>2020-06-18T09:22:21Z</time>
      </trkpt>
      <trkpt lat="49.78878" lon="0.64286">
        <ele>53.4</ele>
        <time>2020-06-18T09:22:22Z</time>
      </trkpt>
      <trkpt lat="49.78878" lon="0.64287">
        <ele>53.6</ele>
        <time>2020-06-18T09:22:23Z</time>
      </trkpt>
      <trkpt lat="49.78878" lon="0.64292">
        <ele>54.1</ele>
        <time>2020-06-18T09:22:24Z</time>
      </trkpt>
      <trkpt lat="49.78878" lon="0.64293">
        <ele>54.3</ele>
        <time>2020-06-18T09:22:25Z</time>
      </trkpt>
      <trkpt lat="49.78878" lon="0.64297">
        <ele>54.8</ele>
        <time>2020-06-18T09:22:26Z</time>
      </trkpt>
      <trkpt lat="49.78877" lon="0.64299">
        <ele>55</ele>
        <time>2020-06-18T09:22:27Z</time>
      </trkpt>
      <trkpt lat="49.78877" lon="0.64301">
        <ele>55.3</ele>
        <time>2020-06-18T09:22:28Z</time>
      </trkpt>
      <trkpt lat="49.78877" lon="0.64304">
        <ele>55.6</ele>
        <time>2020-06-18T09:22:29Z</time>
      </trkpt>
      <trkpt lat="49.78877" lon="0.64307">
        <ele>56.1</ele>
        <time>2020-06-18T09:22:30Z</time>
      </trkpt>
      <trkpt lat="49.78877" lon="0.64309">
        <ele>56.1</ele>
        <time>2020-06-18T09:22:31Z</time>
      </trkpt>
      <trkpt lat="49.78876" lon="0.6431">
        <ele>56.1</ele>
        <time>2020-06-18T09:22:32Z</time>
      </trkpt>
      <trkpt lat="49.78876" lon="0.64312">
        <ele>56.1</ele>
        <time>2020-06-18T09:22:33Z</time>
      </trkpt>
      <trkpt lat="49.78876" lon="0.64315">
        <ele>56.1</ele>
        <time>2020-06-18T09:22:34Z</time>
      </trkpt>
      <trkpt lat="49.78876" lon="0.64318">
        <ele>56.2</ele>
        <time>2020-06-18T09:22:35Z</time>
      </trkpt>
      <trkpt lat="49.78876" lon="0.6432">
        <ele>56.2</ele>
        <time>2020-06-18T09:22:36Z</time>
      </trkpt>
      <trkpt lat="49.78876" lon="0.64322">
        <ele>56.2</ele>
        <time>2020-06-18T09:22:37Z</time>
      </trkpt>
      <trkpt lat="49.78876" lon="0.64323">
        <ele>56.3</ele>
        <time>2020-06-18T09:22:38Z</time>
      </trkpt>
      <trkpt lat="49.78876" lon="0.64325">
        <ele>56.5</ele>
        <time>2020-06-18T09:22:39Z</time>
      </trkpt>
      <trkpt lat="49.78876" lon="0.64327">
        <ele>56.6</ele>
        <time>2020-06-18T09:22:40Z</time>
      </trkpt>
      <trkpt lat="49.78876" lon="0.64328">
        <ele>56.7</ele>
        <time>2020-06-18T09:22:41Z</time>
      </trkpt>
      <trkpt lat="49.78877" lon="0.64329">
        <ele>56.8</ele>
        <time>2020-06-18T09:22:42Z</time>
      </trkpt>
      <trkpt lat="49.78879" lon="0.64334">
        <ele>57.2</ele>
        <time>2020-06-18T09:22:43Z</time>
      </trkpt>
      <trkpt lat="49.78879" lon="0.64335">
        <ele>57.3</ele>
        <time>2020-06-18T09:22:44Z</time>
      </trkpt>
      <trkpt lat="49.78881" lon="0.6434">
        <ele>57.7</ele>
        <time>2020-06-18T09:22:45Z</time>
      </trkpt>
      <trkpt lat="49.78881" lon="0.64341">
        <ele>57.8</ele>
        <time>2020-06-18T09:22:46Z</time>
      </trkpt>
      <trkpt lat="49.78881" lon="0.64343">
        <ele>57.9</ele>
        <time>2020-06-18T09:22:47Z</time>
      </trkpt>
      <trkpt lat="49.78881" lon="0.64345">
        <ele>58.1</ele>
        <time>2020-06-18T09:22:48Z</time>
      </trkpt>
      <trkpt lat="49.78881" lon="0.64346">
        <ele>58.2</ele>
        <time>2020-06-18T09:22:49Z</time>
      </trkpt>
      <trkpt lat="49.78881" lon="0.6435">
        <ele>58.5</ele>
        <time>2020-06-18T09:22:50Z</time>
      </trkpt>
      <trkpt lat="49.78881" lon="0.64351">
        <ele>58.6</ele>
        <time>2020-06-18T09:22:51Z</time>
      </trkpt>
      <trkpt lat="49.78881" lon="0.64353">
        <ele>58.7</ele>
        <time>2020-06-18T09:22:52Z</time>
      </trkpt>
      <trkpt lat="49.78881" lon="0.64356">
        <ele>58.9</ele>
        <time>2020-06-18T09:22:53Z</time>
      </trkpt>
      <trkpt lat="49.78881" lon="0.64358">
        <ele>59.1</ele>
        <time>2020-06-18T09:22:54Z</time>
      </trkpt>
      <trkpt lat="49.78881" lon="0.64361">
        <ele>59.3</ele>
        <time>2020-06-18T09:22:55Z</time>
      </trkpt>
      <trkpt lat="49.78881" lon="0.64363">
        <ele>59.5</ele>
        <time>2020-06-18T09:22:56Z</time>
      </trkpt>
      <trkpt lat="49.78881" lon="0.64367">
        <ele>59.8</ele>
        <time>2020-06-18T09:22:57Z</time>
      </trkpt>
      <trkpt lat="49.7888" lon="0.64368">
        <ele>59.9</ele>
        <time>2020-06-18T09:22:58Z</time>
      </trkpt>
      <trkpt lat="49.7888" lon="0.6437">
        <ele>60</ele>
        <time>2020-06-18T09:22:59Z</time>
      </trkpt>
      <trkpt lat="49.78881" lon="0.64372">
        <ele>60.2</ele>
        <time>2020-06-18T09:23:00Z</time>
      </trkpt>
      <trkpt lat="49.78881" lon="0.64375">
        <ele>60.4</ele>
        <time>2020-06-18T09:23:01Z</time>
      </trkpt>
      <trkpt lat="49.78881" lon="0.64379">
        <ele>60.7</ele>
        <time>2020-06-18T09:23:02Z</time>
      </trkpt>
      <trkpt lat="49.78881" lon="0.6438">
        <ele>60.9</ele>
        <time>2020-06-18T09:23:03Z</time>
      </trkpt>
      <trkpt lat="49.78882" lon="0.64383">
        <ele>61.1</ele>
        <time>2020-06-18T09:23:04Z</time>
      </trkpt>
      <trkpt lat="49.78882" lon="0.64386">
        <ele>61.3</ele>
        <time>2020-06-18T09:23:05Z</time>
      </trkpt>
      <trkpt lat="49.78882" lon="0.6439">
        <ele>61.7</ele>
        <time>2020-06-18T09:23:06Z</time>
      </trkpt>
      <trkpt lat="49.78882" lon="0.64391">
        <ele>61.8</ele>
        <time>2020-06-18T09:23:07Z</time>
      </trkpt>
      <trkpt lat="49.78882" lon="0.64394">
        <ele>62.1</ele>
        <time>2020-06-18T09:23:08Z</time>
      </trkpt>
      <trkpt lat="49.78882" lon="0.64397">
        <ele>62.3</ele>
        <time>2020-06-18T09:23:09Z</time>
      </trkpt>
      <trkpt lat="49.78882" lon="0.64399">
        <ele>62.5</ele>
        <time>2020-06-18T09:23:10Z</time>
      </trkpt>
      <trkpt lat="49.78882" lon="0.64402">
        <ele>62.7</ele>
        <time>2020-06-18T09:23:11Z</time>
      </trkpt>
      <trkpt lat="49.78882" lon="0.64405">
        <ele>63</ele>
        <time>2020-06-18T09:23:12Z</time>
      </trkpt>
      <trkpt lat="49.78882" lon="0.64406">
        <ele>63.1</ele>
        <time>2020-06-18T09:23:13Z</time>
      </trkpt>
      <trkpt lat="49.78882" lon="0.64408">
        <ele>63.3</ele>
        <time>2020-06-18T09:23:14Z</time>
      </trkpt>
      <trkpt lat="49.78882" lon="0.64412">
        <ele>63.7</ele>
        <time>2020-06-18T09:23:15Z</time>
      </trkpt>
      <trkpt lat="49.78882" lon="0.64414">
        <ele>63.8</ele>
        <time>2020-06-18T09:23:16Z</time>
      </trkpt>
      <trkpt lat="49.78883" lon="0.64416">
        <ele>64</ele>
        <time>2020-06-18T09:23:17Z</time>
      </trkpt>
      <trkpt lat="49.78883" lon="0.64418">
        <ele>64.2</ele>
        <time>2020-06-18T09:23:18Z</time>
      </trkpt>
      <trkpt lat="49.78883" lon="0.6442">
        <ele>64.4</ele>
        <time>2020-06-18T09:23:19Z</time>
      </trkpt>
      <trkpt lat="49.78883" lon="0.64423">
        <ele>64.6</ele>
        <time>2020-06-18T09:23:20Z</time>
      </trkpt>
      <trkpt lat="49.78883" lon="0.64426">
        <ele>64.8</ele>
        <time>2020-06-18T09:23:21Z</time>
      </trkpt>
      <trkpt lat="49.78883" lon="0.64427">
        <ele>65</ele>
        <time>2020-06-18T09:23:22Z</time>
      </trkpt>
      <trkpt lat="49.78883" lon="0.64429">
        <ele>65.5</ele>
        <time>2020-06-18T09:23:23Z</time>
      </trkpt>
      <trkpt lat="49.78882" lon="0.64432">
        <ele>65.7</ele>
        <time>2020-06-18T09:23:24Z</time>
      </trkpt>
      <trkpt lat="49.78883" lon="0.64436">
        <ele>66</ele>
        <time>2020-06-18T09:23:25Z</time>
      </trkpt>
      <trkpt lat="49.78882" lon="0.64438">
        <ele>66.2</ele>
        <time>2020-06-18T09:23:26Z</time>
      </trkpt>
      <trkpt lat="49.78882" lon="0.6444">
        <ele>66.3</ele>
        <time>2020-06-18T09:23:27Z</time>
      </trkpt>
      <trkpt lat="49.78882" lon="0.64442">
        <ele>66.5</ele>
        <time>2020-06-18T09:23:28Z</time>
      </trkpt>
      <trkpt lat="49.78883" lon="0.64444">
        <ele>66.7</ele>
        <time>2020-06-18T09:23:29Z</time>
      </trkpt>
      <trkpt lat="49.78882" lon="0.64446">
        <ele>66.8</ele>
        <time>2020-06-18T09:23:30Z</time>
      </trkpt>
      <trkpt lat="49.78883" lon="0.6445">
        <ele>67.1</ele>
        <time>2020-06-18T09:23:31Z</time>
      </trkpt>
      <trkpt lat="49.78883" lon="0.64452">
        <ele>67.3</ele>
        <time>2020-06-18T09:23:32Z</time>
      </trkpt>
      <trkpt lat="49.78883" lon="0.64455">
        <ele>67.5</ele>
        <time>2020-06-18T09:23:33Z</time>
      </trkpt>
      <trkpt lat="49.78883" lon="0.6446">
        <ele>67.9</ele>
        <time>2020-06-18T09:23:34Z</time>
      </trkpt>
      <trkpt lat="49.78883" lon="0.64461">
        <ele>68</ele>
        <time>2020-06-18T09:23:35Z</time>
      </trkpt>
      <trkpt lat="49.78882" lon="0.64464">
        <ele>68.2</ele>
        <time>2020-06-18T09:23:36Z</time>
      </trkpt>
      <trkpt lat="49.78882" lon="0.64466">
        <ele>68.5</ele>
        <time>2020-06-18T09:23:37Z</time>
      </trkpt>
      <trkpt lat="49.78881" lon="0.64469">
        <ele>68.6</ele>
        <time>2020-06-18T09:23:38Z</time>
      </trkpt>
      <trkpt lat="49.78881" lon="0.64471">
        <ele>68.8</ele>
        <time>2020-06-18T09:23:39Z</time>
      </trkpt>
      <trkpt lat="49.78881" lon="0.64476">
        <ele>69.2</ele>
        <time>2020-06-18T09:23:40Z</time>
      </trkpt>
      <trkpt lat="49.78881" lon="0.64481">
        <ele>69.5</ele>
        <time>2020-06-18T09:23:41Z</time>
      </trkpt>
      <trkpt lat="49.78881" lon="0.64482">
        <ele>69.6</ele>
        <time>2020-06-18T09:23:42Z</time>
      </trkpt>
      <trkpt lat="49.78881" lon="0.64487">
        <ele>70</ele>
        <time>2020-06-18T09:23:43Z</time>
      </trkpt>
      <trkpt lat="49.7888" lon="0.64488">
        <ele>70.1</ele>
        <time>2020-06-18T09:23:44Z</time>
      </trkpt>
      <trkpt lat="49.7888" lon="0.64491">
        <ele>70.3</ele>
        <time>2020-06-18T09:23:45Z</time>
      </trkpt>
      <trkpt lat="49.7888" lon="0.64493">
        <ele>70.4</ele>
        <time>2020-06-18T09:23:46Z</time>
      </trkpt>
      <trkpt lat="49.7888" lon="0.64494">
        <ele>70.5</ele>
        <time>2020-06-18T09:23:47Z</time>
      </trkpt>
      <trkpt lat="49.78881" lon="0.64499">
        <ele>70.9</ele>
        <time>2020-06-18T09:23:48Z</time>
      </trkpt>
      <trkpt lat="49.78881" lon="0.645">
        <ele>71</ele>
        <time>2020-06-18T09:23:49Z</time>
      </trkpt>
      <trkpt lat="49.78881" lon="0.64502">
        <ele>71.1</ele>
        <time>2020-06-18T09:23:50Z</time>
      </trkpt>
      <trkpt lat="49.78882" lon="0.64505">
        <ele>71.3</ele>
        <time>2020-06-18T09:23:51Z</time>
      </trkpt>
      <trkpt lat="49.78882" lon="0.6451">
        <ele>72.1</ele>
        <time>2020-06-18T09:23:52Z</time>
      </trkpt>
      <trkpt lat="49.78883" lon="0.64512">
        <ele>72.2</ele>
        <time>2020-06-18T09:23:53Z</time>
      </trkpt>
      <trkpt lat="49.78882" lon="0.64516">
        <ele>72.6</ele>
        <time>2020-06-18T09:23:54Z</time>
      </trkpt>
      <trkpt lat="49.78882" lon="0.64518">
        <ele>72.7</ele>
        <time>2020-06-18T09:23:55Z</time>
      </trkpt>
      <trkpt lat="49.78883" lon="0.64522">
        <ele>73</ele>
        <time>2020-06-18T09:23:56Z</time>
      </trkpt>
      <trkpt lat="49.78883" lon="0.64524">
        <ele>73.1</ele>
        <time>2020-06-18T09:23:57Z</time>
      </trkpt>
      <trkpt lat="49.78883" lon="0.64528">
        <ele>73.4</ele>
        <time>2020-06-18T09:23:58Z</time>
      </trkpt>
      <trkpt lat="49.78883" lon="0.6453">
        <ele>73.5</ele>
        <time>2020-06-18T09:23:59Z</time>
      </trkpt>
      <trkpt lat="49.78882" lon="0.64532">
        <ele>73.7</ele>
        <time>2020-06-18T09:24:00Z</time>
      </trkpt>
      <trkpt lat="49.78882" lon="0.64535">
        <ele>73.9</ele>
        <time>2020-06-18T09:24:01Z</time>
      </trkpt>
      <trkpt lat="49.78882" lon="0.64537">
        <ele>74</ele>
        <time>2020-06-18T09:24:02Z</time>
      </trkpt>
      <trkpt lat="49.78882" lon="0.6454">
        <ele>74.2</ele>
        <time>2020-06-18T09:24:03Z</time>
      </trkpt>
      <trkpt lat="49.78881" lon="0.64544">
        <ele>74.4</ele>
        <time>2020-06-18T09:24:04Z</time>
      </trkpt>
      <trkpt lat="49.78881" lon="0.64545">
        <ele>74.5</ele>
        <time>2020-06-18T09:24:05Z</time>
      </trkpt>
      <trkpt lat="49.78882" lon="0.64548">
        <ele>74.7</ele>
        <time>2020-06-18T09:24:06Z</time>
      </trkpt>
      <trkpt lat="49.78881" lon="0.6455">
        <ele>74.8</ele>
        <time>2020-06-18T09:24:07Z</time>
      </trkpt>
      <trkpt lat="49.78882" lon="0.64552">
        <ele>75</ele>
        <time>2020-06-18T09:24:08Z</time>
      </trkpt>
      <trkpt lat="49.78882" lon="0.64554">
        <ele>75.1</ele>
        <time>2020-06-18T09:24:09Z</time>
      </trkpt>
      <trkpt lat="49.78883" lon="0.64556">
        <ele>75.2</ele>
        <time>2020-06-18T09:24:10Z</time>
      </trkpt>
      <trkpt lat="49.78883" lon="0.64559">
        <ele>75.3</ele>
        <time>2020-06-18T09:24:11Z</time>
      </trkpt>
      <trkpt lat="49.78883" lon="0.64562">
        <ele>75.5</ele>
        <time>2020-06-18T09:24:12Z</time>
      </trkpt>
      <trkpt lat="49.78883" lon="0.64564">
        <ele>75.7</ele>
        <time>2020-06-18T09:24:13Z</time>
      </trkpt>
      <trkpt lat="49.78884" lon="0.64568">
        <ele>75.9</ele>
        <time>2020-06-18T09:24:14Z</time>
      </trkpt>
      <trkpt lat="49.78884" lon="0.6457">
        <ele>76</ele>
        <time>2020-06-18T09:24:15Z</time>
      </trkpt>
      <trkpt lat="49.78884" lon="0.64575">
        <ele>76.3</ele>
        <time>2020-06-18T09:24:16Z</time>
      </trkpt>
      <trkpt lat="49.78884" lon="0.64576">
        <ele>76.3</ele>
        <time>2020-06-18T09:24:17Z</time>
      </trkpt>
      <trkpt lat="49.78884" lon="0.64581">
        <ele>76.6</ele>
        <time>2020-06-18T09:24:18Z</time>
      </trkpt>
      <trkpt lat="49.78885" lon="0.64583">
        <ele>76.7</ele>
        <time>2020-06-18T09:24:19Z</time>
      </trkpt>
      <trkpt lat="49.78886" lon="0.64588">
        <ele>77</ele>
        <time>2020-06-18T09:24:20Z</time>
      </trkpt>
      <trkpt lat="49.78886" lon="0.6459">
        <ele>77.1</ele>
        <time>2020-06-18T09:24:21Z</time>
      </trkpt>
      <trkpt lat="49.78887" lon="0.64595">
        <ele>77.4</ele>
        <time>2020-06-18T09:24:22Z</time>
      </trkpt>
      <trkpt lat="49.78887" lon="0.64597">
        <ele>77.5</ele>
        <time>2020-06-18T09:24:23Z</time>
      </trkpt>
      <trkpt lat="49.78887" lon="0.64599">
        <ele>77.6</ele>
        <time>2020-06-18T09:24:24Z</time>
      </trkpt>
      <trkpt lat="49.78888" lon="0.64602">
        <ele>77.8</ele>
        <time>2020-06-18T09:24:25Z</time>
      </trkpt>
      <trkpt lat="49.78888" lon="0.64608">
        <ele>78.1</ele>
        <time>2020-06-18T09:24:26Z</time>
      </trkpt>
      <trkpt lat="49.78888" lon="0.64609">
        <ele>78.2</ele>
        <time>2020-06-18T09:24:27Z</time>
      </trkpt>
      <trkpt lat="49.78889" lon="0.64614">
        <ele>78.4</ele>
        <time>2020-06-18T09:24:28Z</time>
      </trkpt>
      <trkpt lat="49.78889" lon="0.64616">
        <ele>78.5</ele>
        <time>2020-06-18T09:24:29Z</time>
      </trkpt>
      <trkpt lat="49.7889" lon="0.64621">
        <ele>78.8</ele>
        <time>2020-06-18T09:24:30Z</time>
      </trkpt>
      <trkpt lat="49.7889" lon="0.64623">
        <ele>78.9</ele>
        <time>2020-06-18T09:24:31Z</time>
      </trkpt>
      <trkpt lat="49.78891" lon="0.64628">
        <ele>79.1</ele>
        <time>2020-06-18T09:24:32Z</time>
      </trkpt>
      <trkpt lat="49.78891" lon="0.6463">
        <ele>79.2</ele>
        <time>2020-06-18T09:24:33Z</time>
      </trkpt>
      <trkpt lat="49.78892" lon="0.64635">
        <ele>79.5</ele>
        <time>2020-06-18T09:24:34Z</time>
      </trkpt>
      <trkpt lat="49.78892" lon="0.64637">
        <ele>79.6</ele>
        <time>2020-06-18T09:24:35Z</time>
      </trkpt>
      <trkpt lat="49.78893" lon="0.64641">
        <ele>79.7</ele>
        <time>2020-06-18T09:24:36Z</time>
      </trkpt>
      <trkpt lat="49.78893" lon="0.64645">
        <ele>79.9</ele>
        <time>2020-06-18T09:24:37Z</time>
      </trkpt>
      <trkpt lat="49.78894" lon="0.64651">
        <ele>80.2</ele>
        <time>2020-06-18T09:24:38Z</time>
      </trkpt>
      <trkpt lat="49.78895" lon="0.64653">
        <ele>80.3</ele>
        <time>2020-06-18T09:24:39Z</time>
      </trkpt>
      <trkpt lat="49.78895" lon="0.64657">
        <ele>80.5</ele>
        <time>2020-06-18T09:24:40Z</time>
      </trkpt>
      <trkpt lat="49.78896" lon="0.64663">
        <ele>80.7</ele>
        <time>2020-06-18T09:24:41Z</time>
      </trkpt>
      <trkpt lat="49.78896" lon="0.64665">
        <ele>80.8</ele>
        <time>2020-06-18T09:24:42Z</time>
      </trkpt>
      <trkpt lat="49.78897" lon="0.64671">
        <ele>81.1</ele>
        <time>2020-06-18T09:24:43Z</time>
      </trkpt>
      <trkpt lat="49.78897" lon="0.64673">
        <ele>81.2</ele>
        <time>2020-06-18T09:24:44Z</time>
      </trkpt>
      <trkpt lat="49.78897" lon="0.64677">
        <ele>81.4</ele>
        <time>2020-06-18T09:24:45Z</time>
      </trkpt>
      <trkpt lat="49.78898" lon="0.64681">
        <ele>81.6</ele>
        <time>2020-06-18T09:24:46Z</time>
      </trkpt>
      <trkpt lat="49.78899" lon="0.64685">
        <ele>81.8</ele>
        <time>2020-06-18T09:24:47Z</time>
      </trkpt>
      <trkpt lat="49.789" lon="0.6469">
        <ele>82.1</ele>
        <time>2020-06-18T09:24:48Z</time>
      </trkpt>
      <trkpt lat="49.78901" lon="0.64692">
        <ele>82.2</ele>
        <time>2020-06-18T09:24:49Z</time>
      </trkpt>
      <trkpt lat="49.78901" lon="0.64698">
        <ele>82.4</ele>
        <time>2020-06-18T09:24:50Z</time>
      </trkpt>
      <trkpt lat="49.78902" lon="0.64699">
        <ele>82.5</ele>
        <time>2020-06-18T09:24:51Z</time>
      </trkpt>
      <trkpt lat="49.78903" lon="0.64704">
        <ele>82.7</ele>
        <time>2020-06-18T09:24:52Z</time>
      </trkpt>
      <trkpt lat="49.78903" lon="0.64709">
        <ele>83</ele>
        <time>2020-06-18T09:24:53Z</time>
      </trkpt>
      <trkpt lat="49.78903" lon="0.64711">
        <ele>83.1</ele>
        <time>2020-06-18T09:24:54Z</time>
      </trkpt>
      <trkpt lat="49.78904" lon="0.64717">
        <ele>83.4</ele>
        <time>2020-06-18T09:24:55Z</time>
      </trkpt>
      <trkpt lat="49.78904" lon="0.64718">
        <ele>83.4</ele>
        <time>2020-06-18T09:24:56Z</time>
      </trkpt>
      <trkpt lat="49.78905" lon="0.64724">
        <ele>83.7</ele>
        <time>2020-06-18T09:24:57Z</time>
      </trkpt>
      <trkpt lat="49.78905" lon="0.64726">
        <ele>83.8</ele>
        <time>2020-06-18T09:24:58Z</time>
      </trkpt>
      <trkpt lat="49.78906" lon="0.64731">
        <ele>84.1</ele>
        <time>2020-06-18T09:24:59Z</time>
      </trkpt>
      <trkpt lat="49.78906" lon="0.64733">
        <ele>84.1</ele>
        <time>2020-06-18T09:25:00Z</time>
      </trkpt>
      <trkpt lat="49.78907" lon="0.64737">
        <ele>84.4</ele>
        <time>2020-06-18T09:25:01Z</time>
      </trkpt>
      <trkpt lat="49.78907" lon="0.64743">
        <ele>84.6</ele>
        <time>2020-06-18T09:25:02Z</time>
      </trkpt>
      <trkpt lat="49.78908" lon="0.64745">
        <ele>84.7</ele>
        <time>2020-06-18T09:25:03Z</time>
      </trkpt>
      <trkpt lat="49.78909" lon="0.6475">
        <ele>85</ele>
        <time>2020-06-18T09:25:04Z</time>
      </trkpt>
      <trkpt lat="49.78909" lon="0.64751">
        <ele>85</ele>
        <time>2020-06-18T09:25:05Z</time>
      </trkpt>
      <trkpt lat="49.7891" lon="0.64756">
        <ele>85.3</ele>
        <time>2020-06-18T09:25:06Z</time>
      </trkpt>
      <trkpt lat="49.7891" lon="0.64757">
        <ele>85.3</ele>
        <time>2020-06-18T09:25:07Z</time>
      </trkpt>
      <trkpt lat="49.7891" lon="0.64763">
        <ele>85.5</ele>
        <time>2020-06-18T09:25:08Z</time>
      </trkpt>
      <trkpt lat="49.7891" lon="0.64764">
        <ele>85.6</ele>
        <time>2020-06-18T09:25:09Z</time>
      </trkpt>
      <trkpt lat="49.78911" lon="0.6477">
        <ele>85.8</ele>
        <time>2020-06-18T09:25:10Z</time>
      </trkpt>
      <trkpt lat="49.78911" lon="0.64771">
        <ele>85.8</ele>
        <time>2020-06-18T09:25:11Z</time>
      </trkpt>
      <trkpt lat="49.78913" lon="0.64777">
        <ele>86.1</ele>
        <time>2020-06-18T09:25:12Z</time>
      </trkpt>
      <trkpt lat="49.78913" lon="0.6478">
        <ele>86.1</ele>
        <time>2020-06-18T09:25:13Z</time>
      </trkpt>
      <trkpt lat="49.78914" lon="0.64784">
        <ele>86.3</ele>
        <time>2020-06-18T09:25:14Z</time>
      </trkpt>
      <trkpt lat="49.78916" lon="0.64789">
        <ele>86.5</ele>
        <time>2020-06-18T09:25:15Z</time>
      </trkpt>
      <trkpt lat="49.78917" lon="0.64791">
        <ele>86.6</ele>
        <time>2020-06-18T09:25:16Z</time>
      </trkpt>
      <trkpt lat="49.78918" lon="0.64796">
        <ele>86.7</ele>
        <time>2020-06-18T09:25:17Z</time>
      </trkpt>
      <trkpt lat="49.78918" lon="0.64797">
        <ele>86.8</ele>
        <time>2020-06-18T09:25:18Z</time>
      </trkpt>
      <trkpt lat="49.7892" lon="0.64802">
        <ele>87</ele>
        <time>2020-06-18T09:25:19Z</time>
      </trkpt>
      <trkpt lat="49.7892" lon="0.64803">
        <ele>87</ele>
        <time>2020-06-18T09:25:20Z</time>
      </trkpt>
      <trkpt lat="49.78921" lon="0.64806">
        <ele>87.1</ele>
        <time>2020-06-18T09:25:21Z</time>
      </trkpt>
      <trkpt lat="49.7892" lon="0.64808">
        <ele>87.2</ele>
        <time>2020-06-18T09:25:22Z</time>
      </trkpt>
      <trkpt lat="49.78922" lon="0.64813">
        <ele>87.4</ele>
        <time>2020-06-18T09:25:23Z</time>
      </trkpt>
      <trkpt lat="49.78922" lon="0.64814">
        <ele>87.4</ele>
        <time>2020-06-18T09:25:24Z</time>
      </trkpt>
      <trkpt lat="49.78923" lon="0.64819">
        <ele>87.6</ele>
        <time>2020-06-18T09:25:25Z</time>
      </trkpt>
      <trkpt lat="49.78924" lon="0.64821">
        <ele>87.7</ele>
        <time>2020-06-18T09:25:26Z</time>
      </trkpt>
      <trkpt lat="49.78925" lon="0.64827">
        <ele>87.9</ele>
        <time>2020-06-18T09:25:27Z</time>
      </trkpt>
      <trkpt lat="49.78925" lon="0.64829">
        <ele>88</ele>
        <time>2020-06-18T09:25:28Z</time>
      </trkpt>
      <trkpt lat="49.78926" lon="0.64835">
        <ele>88.1</ele>
        <time>2020-06-18T09:25:29Z</time>
      </trkpt>
      <trkpt lat="49.78926" lon="0.64837">
        <ele>88.2</ele>
        <time>2020-06-18T09:25:30Z</time>
      </trkpt>
      <trkpt lat="49.78927" lon="0.64841">
        <ele>88.4</ele>
        <time>2020-06-18T09:25:31Z</time>
      </trkpt>
      <trkpt lat="49.78927" lon="0.64843">
        <ele>88.4</ele>
        <time>2020-06-18T09:25:32Z</time>
      </trkpt>
      <trkpt lat="49.78928" lon="0.64847">
        <ele>88.5</ele>
        <time>2020-06-18T09:25:33Z</time>
      </trkpt>
      <trkpt lat="49.78929" lon="0.64851">
        <ele>88.6</ele>
        <time>2020-06-18T09:25:34Z</time>
      </trkpt>
      <trkpt lat="49.7893" lon="0.64855">
        <ele>88.8</ele>
        <time>2020-06-18T09:25:35Z</time>
      </trkpt>
      <trkpt lat="49.78931" lon="0.64862">
        <ele>88.9</ele>
        <time>2020-06-18T09:25:36Z</time>
      </trkpt>
      <trkpt lat="49.78932" lon="0.64864">
        <ele>89</ele>
        <time>2020-06-18T09:25:37Z</time>
      </trkpt>
      <trkpt lat="49.78933" lon="0.64869">
        <ele>89.1</ele>
        <time>2020-06-18T09:25:38Z</time>
      </trkpt>
      <trkpt lat="49.78934" lon="0.64874">
        <ele>89.2</ele>
        <time>2020-06-18T09:25:39Z</time>
      </trkpt>
      <trkpt lat="49.78935" lon="0.64878">
        <ele>89.3</ele>
        <time>2020-06-18T09:25:40Z</time>
      </trkpt>
      <trkpt lat="49.78936" lon="0.64882">
        <ele>89.5</ele>
        <time>2020-06-18T09:25:41Z</time>
      </trkpt>
      <trkpt lat="49.78939" lon="0.64886">
        <ele>89.6</ele>
        <time>2020-06-18T09:25:42Z</time>
      </trkpt>
      <trkpt lat="49.7894" lon="0.64888">
        <ele>89.7</ele>
        <time>2020-06-18T09:25:43Z</time>
      </trkpt>
      <trkpt lat="49.78941" lon="0.64892">
        <ele>89.8</ele>
        <time>2020-06-18T09:25:44Z</time>
      </trkpt>
      <trkpt lat="49.78942" lon="0.64896">
        <ele>89.9</ele>
        <time>2020-06-18T09:25:45Z</time>
      </trkpt>
      <trkpt lat="49.78943" lon="0.64901">
        <ele>90.1</ele>
        <time>2020-06-18T09:25:46Z</time>
      </trkpt>
      <trkpt lat="49.78944" lon="0.64906">
        <ele>90.2</ele>
        <time>2020-06-18T09:25:47Z</time>
      </trkpt>
      <trkpt lat="49.78944" lon="0.64911">
        <ele>90.3</ele>
        <time>2020-06-18T09:25:48Z</time>
      </trkpt>
      <trkpt lat="49.78945" lon="0.64915">
        <ele>90.4</ele>
        <time>2020-06-18T09:25:49Z</time>
      </trkpt>
      <trkpt lat="49.78946" lon="0.64919">
        <ele>90.5</ele>
        <time>2020-06-18T09:25:50Z</time>
      </trkpt>
      <trkpt lat="49.78947" lon="0.64924">
        <ele>90.7</ele>
        <time>2020-06-18T09:25:51Z</time>
      </trkpt>
      <trkpt lat="49.78949" lon="0.64929">
        <ele>90.8</ele>
        <time>2020-06-18T09:25:52Z</time>
      </trkpt>
      <trkpt lat="49.78949" lon="0.64931">
        <ele>90.9</ele>
        <time>2020-06-18T09:25:53Z</time>
      </trkpt>
      <trkpt lat="49.78951" lon="0.64937">
        <ele>91</ele>
        <time>2020-06-18T09:25:54Z</time>
      </trkpt>
      <trkpt lat="49.78952" lon="0.64943">
        <ele>91.2</ele>
        <time>2020-06-18T09:25:55Z</time>
      </trkpt>
      <trkpt lat="49.78953" lon="0.64945">
        <ele>91.3</ele>
        <time>2020-06-18T09:25:56Z</time>
      </trkpt>
      <trkpt lat="49.78954" lon="0.64951">
        <ele>91.4</ele>
        <time>2020-06-18T09:25:57Z</time>
      </trkpt>
      <trkpt lat="49.78955" lon="0.64957">
        <ele>91.6</ele>
        <time>2020-06-18T09:25:58Z</time>
      </trkpt>
      <trkpt lat="49.78957" lon="0.64962">
        <ele>91.7</ele>
        <time>2020-06-18T09:25:59Z</time>
      </trkpt>
      <trkpt lat="49.78958" lon="0.64967">
        <ele>91.9</ele>
        <time>2020-06-18T09:26:00Z</time>
      </trkpt>
      <trkpt lat="49.78959" lon="0.64972">
        <ele>92</ele>
        <time>2020-06-18T09:26:01Z</time>
      </trkpt>
      <trkpt lat="49.7896" lon="0.64977">
        <ele>92.1</ele>
        <time>2020-06-18T09:26:02Z</time>
      </trkpt>
      <trkpt lat="49.78961" lon="0.64982">
        <ele>92.3</ele>
        <time>2020-06-18T09:26:03Z</time>
      </trkpt>
      <trkpt lat="49.78962" lon="0.64987">
        <ele>92.4</ele>
        <time>2020-06-18T09:26:04Z</time>
      </trkpt>
      <trkpt lat="49.78963" lon="0.64993">
        <ele>92.5</ele>
        <time>2020-06-18T09:26:05Z</time>
      </trkpt>
      <trkpt lat="49.78964" lon="0.64998">
        <ele>92.6</ele>
        <time>2020-06-18T09:26:06Z</time>
      </trkpt>
      <trkpt lat="49.78966" lon="0.65004">
        <ele>92.7</ele>
        <time>2020-06-18T09:26:07Z</time>
      </trkpt>
      <trkpt lat="49.78967" lon="0.65009">
        <ele>92.8</ele>
        <time>2020-06-18T09:26:08Z</time>
      </trkpt>
      <trkpt lat="49.78968" lon="0.65013">
        <ele>92.9</ele>
        <time>2020-06-18T09:26:09Z</time>
      </trkpt>
      <trkpt lat="49.78969" lon="0.65019">
        <ele>93</ele>
        <time>2020-06-18T09:26:10Z</time>
      </trkpt>
      <trkpt lat="49.7897" lon="0.65024">
        <ele>93.2</ele>
        <time>2020-06-18T09:26:11Z</time>
      </trkpt>
      <trkpt lat="49.78971" lon="0.6503">
        <ele>93.3</ele>
        <time>2020-06-18T09:26:12Z</time>
      </trkpt>
      <trkpt lat="49.78973" lon="0.65036">
        <ele>93.5</ele>
        <time>2020-06-18T09:26:13Z</time>
      </trkpt>
      <trkpt lat="49.78974" lon="0.65041">
        <ele>93.6</ele>
        <time>2020-06-18T09:26:14Z</time>
      </trkpt>
      <trkpt lat="49.78975" lon="0.65047">
        <ele>93.7</ele>
        <time>2020-06-18T09:26:15Z</time>
      </trkpt>
      <trkpt lat="49.78976" lon="0.65053">
        <ele>93.9</ele>
        <time>2020-06-18T09:26:16Z</time>
      </trkpt>
      <trkpt lat="49.78977" lon="0.65059">
        <ele>94</ele>
        <time>2020-06-18T09:26:17Z</time>
      </trkpt>
      <trkpt lat="49.78978" lon="0.65065">
        <ele>94.1</ele>
        <time>2020-06-18T09:26:18Z</time>
      </trkpt>
      <trkpt lat="49.78979" lon="0.6507">
        <ele>94.2</ele>
        <time>2020-06-18T09:26:19Z</time>
      </trkpt>
      <trkpt lat="49.7898" lon="0.65077">
        <ele>94.3</ele>
        <time>2020-06-18T09:26:20Z</time>
      </trkpt>
      <trkpt lat="49.78981" lon="0.65083">
        <ele>94.4</ele>
        <time>2020-06-18T09:26:21Z</time>
      </trkpt>
      <trkpt lat="49.78982" lon="0.65089">
        <ele>94.5</ele>
        <time>2020-06-18T09:26:22Z</time>
      </trkpt>
      <trkpt lat="49.78983" lon="0.65095">
        <ele>94.6</ele>
        <time>2020-06-18T09:26:23Z</time>
      </trkpt>
      <trkpt lat="49.78984" lon="0.65101">
        <ele>94.7</ele>
        <time>2020-06-18T09:26:24Z</time>
      </trkpt>
      <trkpt lat="49.78985" lon="0.65105">
        <ele>94.8</ele>
        <time>2020-06-18T09:26:25Z</time>
      </trkpt>
      <trkpt lat="49.78986" lon="0.65111">
        <ele>94.9</ele>
        <time>2020-06-18T09:26:26Z</time>
      </trkpt>
      <trkpt lat="49.78987" lon="0.65117">
        <ele>95</ele>
        <time>2020-06-18T09:26:27Z</time>
      </trkpt>
      <trkpt lat="49.78987" lon="0.65123">
        <ele>95.1</ele>
        <time>2020-06-18T09:26:28Z</time>
      </trkpt>
      <trkpt lat="49.78988" lon="0.65129">
        <ele>95.2</ele>
        <time>2020-06-18T09:26:29Z</time>
      </trkpt>
      <trkpt lat="49.7899" lon="0.65136">
        <ele>95.3</ele>
        <time>2020-06-18T09:26:30Z</time>
      </trkpt>
      <trkpt lat="49.78991" lon="0.65142">
        <ele>95.4</ele>
        <time>2020-06-18T09:26:31Z</time>
      </trkpt>
      <trkpt lat="49.78993" lon="0.65149">
        <ele>95.5</ele>
        <time>2020-06-18T09:26:32Z</time>
      </trkpt>
      <trkpt lat="49.78994" lon="0.65156">
        <ele>95.6</ele>
        <time>2020-06-18T09:26:33Z</time>
      </trkpt>
      <trkpt lat="49.78995" lon="0.65164">
        <ele>95.7</ele>
        <time>2020-06-18T09:26:34Z</time>
      </trkpt>
      <trkpt lat="49.78997" lon="0.65172">
        <ele>95.8</ele>
        <time>2020-06-18T09:26:35Z</time>
      </trkpt>
      <trkpt lat="49.78998" lon="0.65178">
        <ele>95.9</ele>
        <time>2020-06-18T09:26:36Z</time>
      </trkpt>
      <trkpt lat="49.78999" lon="0.65185">
        <ele>96</ele>
        <time>2020-06-18T09:26:37Z</time>
      </trkpt>
      <trkpt lat="49.79" lon="0.65191">
        <ele>96.1</ele>
        <time>2020-06-18T09:26:38Z</time>
      </trkpt>
      <trkpt lat="49.79001" lon="0.65197">
        <ele>96.2</ele>
        <time>2020-06-18T09:26:39Z</time>
      </trkpt>
      <trkpt lat="49.79003" lon="0.65204">
        <ele>96.3</ele>
        <time>2020-06-18T09:26:40Z</time>
      </trkpt>
      <trkpt lat="49.79004" lon="0.6521">
        <ele>96.4</ele>
        <time>2020-06-18T09:26:41Z</time>
      </trkpt>
      <trkpt lat="49.79005" lon="0.65216">
        <ele>96.4</ele>
        <time>2020-06-18T09:26:42Z</time>
      </trkpt>
      <trkpt lat="49.79005" lon="0.65223">
        <ele>96.4</ele>
        <time>2020-06-18T09:26:43Z</time>
      </trkpt>
      <trkpt lat="49.79006" lon="0.65229">
        <ele>96.5</ele>
        <time>2020-06-18T09:26:44Z</time>
      </trkpt>
      <trkpt lat="49.79007" lon="0.65236">
        <ele>96.6</ele>
        <time>2020-06-18T09:26:45Z</time>
      </trkpt>
      <trkpt lat="49.79007" lon="0.65243">
        <ele>96.6</ele>
        <time>2020-06-18T09:26:46Z</time>
      </trkpt>
      <trkpt lat="49.79008" lon="0.6525">
        <ele>96.7</ele>
        <time>2020-06-18T09:26:47Z</time>
      </trkpt>
      <trkpt lat="49.79008" lon="0.65258">
        <ele>96.8</ele>
        <time>2020-06-18T09:26:48Z</time>
      </trkpt>
      <trkpt lat="49.7901" lon="0.65265">
        <ele>96.9</ele>
        <time>2020-06-18T09:26:49Z</time>
      </trkpt>
      <trkpt lat="49.79011" lon="0.65272">
        <ele>97</ele>
        <time>2020-06-18T09:26:50Z</time>
      </trkpt>
      <trkpt lat="49.79012" lon="0.65279">
        <ele>97.1</ele>
        <time>2020-06-18T09:26:51Z</time>
      </trkpt>
      <trkpt lat="49.79013" lon="0.65287">
        <ele>97.2</ele>
        <time>2020-06-18T09:26:52Z</time>
      </trkpt>
      <trkpt lat="49.79014" lon="0.65295">
        <ele>97.4</ele>
        <time>2020-06-18T09:26:53Z</time>
      </trkpt>
      <trkpt lat="49.79016" lon="0.65302">
        <ele>97.5</ele>
        <time>2020-06-18T09:26:54Z</time>
      </trkpt>
      <trkpt lat="49.79018" lon="0.6531">
        <ele>97.7</ele>
        <time>2020-06-18T09:26:55Z</time>
      </trkpt>
      <trkpt lat="49.79019" lon="0.65318">
        <ele>98</ele>
        <time>2020-06-18T09:26:56Z</time>
      </trkpt>
      <trkpt lat="49.79021" lon="0.65326">
        <ele>98.2</ele>
        <time>2020-06-18T09:26:57Z</time>
      </trkpt>
      <trkpt lat="49.79022" lon="0.65333">
        <ele>98.4</ele>
        <time>2020-06-18T09:26:58Z</time>
      </trkpt>
      <trkpt lat="49.79023" lon="0.6534">
        <ele>98.5</ele>
        <time>2020-06-18T09:26:59Z</time>
      </trkpt>
      <trkpt lat="49.79024" lon="0.65348">
        <ele>98.6</ele>
        <time>2020-06-18T09:27:00Z</time>
      </trkpt>
      <trkpt lat="49.79025" lon="0.65355">
        <ele>98.7</ele>
        <time>2020-06-18T09:27:01Z</time>
      </trkpt>
      <trkpt lat="49.79026" lon="0.65362">
        <ele>98.8</ele>
        <time>2020-06-18T09:27:02Z</time>
      </trkpt>
      <trkpt lat="49.79027" lon="0.6537">
        <ele>98.9</ele>
        <time>2020-06-18T09:27:03Z</time>
      </trkpt>
      <trkpt lat="49.79028" lon="0.65377">
        <ele>99</ele>
        <time>2020-06-18T09:27:04Z</time>
      </trkpt>
      <trkpt lat="49.79028" lon="0.65385">
        <ele>99.1</ele>
        <time>2020-06-18T09:27:05Z</time>
      </trkpt>
      <trkpt lat="49.79028" lon="0.65392">
        <ele>99.2</ele>
        <time>2020-06-18T09:27:06Z</time>
      </trkpt>
      <trkpt lat="49.79028" lon="0.654">
        <ele>99.3</ele>
        <time>2020-06-18T09:27:07Z</time>
      </trkpt>
      <trkpt lat="49.79029" lon="0.65408">
        <ele>99.4</ele>
        <time>2020-06-18T09:27:08Z</time>
      </trkpt>
      <trkpt lat="49.7903" lon="0.65415">
        <ele>99.5</ele>
        <time>2020-06-18T09:27:09Z</time>
      </trkpt>
      <trkpt lat="49.7903" lon="0.65423">
        <ele>99.5</ele>
        <time>2020-06-18T09:27:10Z</time>
      </trkpt>
      <trkpt lat="49.79031" lon="0.6543">
        <ele>99.6</ele>
        <time>2020-06-18T09:27:11Z</time>
      </trkpt>
      <trkpt lat="49.79031" lon="0.65437">
        <ele>99.7</ele>
        <time>2020-06-18T09:27:12Z</time>
      </trkpt>
      <trkpt lat="49.79031" lon="0.65443">
        <ele>99.7</ele>
        <time>2020-06-18T09:27:13Z</time>
      </trkpt>
      <trkpt lat="49.79031" lon="0.6545">
        <ele>99.7</ele>
        <time>2020-06-18T09:27:14Z</time>
      </trkpt>
      <trkpt lat="49.79032" lon="0.65457">
        <ele>99.8</ele>
        <time>2020-06-18T09:27:15Z</time>
      </trkpt>
      <trkpt lat="49.79033" lon="0.65463">
        <ele>99.8</ele>
        <time>2020-06-18T09:27:16Z</time>
      </trkpt>
      <trkpt lat="49.79033" lon="0.65471">
        <ele>99.9</ele>
        <time>2020-06-18T09:27:17Z</time>
      </trkpt>
      <trkpt lat="49.79034" lon="0.65477">
        <ele>99.9</ele>
        <time>2020-06-18T09:27:18Z</time>
      </trkpt>
      <trkpt lat="49.79034" lon="0.65482">
        <ele>100</ele>
        <time>2020-06-18T09:27:19Z</time>
      </trkpt>
      <trkpt lat="49.79034" lon="0.65488">
        <ele>100.1</ele>
        <time>2020-06-18T09:27:20Z</time>
      </trkpt>
      <trkpt lat="49.79035" lon="0.65493">
        <ele>100.1</ele>
        <time>2020-06-18T09:27:21Z</time>
      </trkpt>
      <trkpt lat="49.79036" lon="0.65498">
        <ele>100.2</ele>
        <time>2020-06-18T09:27:22Z</time>
      </trkpt>
      <trkpt lat="49.79036" lon="0.65504">
        <ele>100.2</ele>
        <time>2020-06-18T09:27:23Z</time>
      </trkpt>
      <trkpt lat="49.79036" lon="0.65509">
        <ele>100.3</ele>
        <time>2020-06-18T09:27:24Z</time>
      </trkpt>
      <trkpt lat="49.79035" lon="0.65514">
        <ele>100.3</ele>
        <time>2020-06-18T09:27:25Z</time>
      </trkpt>
      <trkpt lat="49.79036" lon="0.65519">
        <ele>100.4</ele>
        <time>2020-06-18T09:27:26Z</time>
      </trkpt>
      <trkpt lat="49.79036" lon="0.65523">
        <ele>100.4</ele>
        <time>2020-06-18T09:27:27Z</time>
      </trkpt>
      <trkpt lat="49.79036" lon="0.65529">
        <ele>100.5</ele>
        <time>2020-06-18T09:27:28Z</time>
      </trkpt>
      <trkpt lat="49.79037" lon="0.65534">
        <ele>100.6</ele>
        <time>2020-06-18T09:27:29Z</time>
      </trkpt>
      <trkpt lat="49.79037" lon="0.65541">
        <ele>100.6</ele>
        <time>2020-06-18T09:27:30Z</time>
      </trkpt>
      <trkpt lat="49.79038" lon="0.65548">
        <ele>100.7</ele>
        <time>2020-06-18T09:27:31Z</time>
      </trkpt>
      <trkpt lat="49.79039" lon="0.65553">
        <ele>100.7</ele>
        <time>2020-06-18T09:27:32Z</time>
      </trkpt>
      <trkpt lat="49.79039" lon="0.6556">
        <ele>100.8</ele>
        <time>2020-06-18T09:27:33Z</time>
      </trkpt>
      <trkpt lat="49.79039" lon="0.65567">
        <ele>100.8</ele>
        <time>2020-06-18T09:27:34Z</time>
      </trkpt>
      <trkpt lat="49.7904" lon="0.65574">
        <ele>100.9</ele>
        <time>2020-06-18T09:27:35Z</time>
      </trkpt>
      <trkpt lat="49.79041" lon="0.6558">
        <ele>100.9</ele>
        <time>2020-06-18T09:27:36Z</time>
      </trkpt>
      <trkpt lat="49.79041" lon="0.65586">
        <ele>100.9</ele>
        <time>2020-06-18T09:27:37Z</time>
      </trkpt>
      <trkpt lat="49.79042" lon="0.65594">
        <ele>101</ele>
        <time>2020-06-18T09:27:38Z</time>
      </trkpt>
      <trkpt lat="49.79042" lon="0.656">
        <ele>101</ele>
        <time>2020-06-18T09:27:39Z</time>
      </trkpt>
      <trkpt lat="49.79043" lon="0.65606">
        <ele>101</ele>
        <time>2020-06-18T09:27:40Z</time>
      </trkpt>
      <trkpt lat="49.79044" lon="0.65612">
        <ele>101</ele>
        <time>2020-06-18T09:27:41Z</time>
      </trkpt>
      <trkpt lat="49.79045" lon="0.65617">
        <ele>101</ele>
        <time>2020-06-18T09:27:42Z</time>
      </trkpt>
      <trkpt lat="49.79046" lon="0.65624">
        <ele>101.1</ele>
        <time>2020-06-18T09:27:43Z</time>
      </trkpt>
      <trkpt lat="49.79047" lon="0.6563">
        <ele>101.1</ele>
        <time>2020-06-18T09:27:44Z</time>
      </trkpt>
      <trkpt lat="49.79047" lon="0.65637">
        <ele>101.1</ele>
        <time>2020-06-18T09:27:45Z</time>
      </trkpt>
      <trkpt lat="49.79048" lon="0.65643">
        <ele>101.1</ele>
        <time>2020-06-18T09:27:46Z</time>
      </trkpt>
      <trkpt lat="49.79049" lon="0.6565">
        <ele>101.2</ele>
        <time>2020-06-18T09:27:47Z</time>
      </trkpt>
      <trkpt lat="49.79051" lon="0.65657">
        <ele>101.2</ele>
        <time>2020-06-18T09:27:48Z</time>
      </trkpt>
      <trkpt lat="49.79051" lon="0.65664">
        <ele>101.3</ele>
        <time>2020-06-18T09:27:49Z</time>
      </trkpt>
      <trkpt lat="49.79051" lon="0.6567">
        <ele>101.4</ele>
        <time>2020-06-18T09:27:50Z</time>
      </trkpt>
      <trkpt lat="49.79052" lon="0.65676">
        <ele>101.4</ele>
        <time>2020-06-18T09:27:51Z</time>
      </trkpt>
      <trkpt lat="49.79053" lon="0.65681">
        <ele>101.5</ele>
        <time>2020-06-18T09:27:52Z</time>
      </trkpt>
      <trkpt lat="49.79054" lon="0.65686">
        <ele>101.5</ele>
        <time>2020-06-18T09:27:53Z</time>
      </trkpt>
      <trkpt lat="49.79055" lon="0.65691">
        <ele>101.6</ele>
        <time>2020-06-18T09:27:54Z</time>
      </trkpt>
      <trkpt lat="49.79056" lon="0.65696">
        <ele>101.6</ele>
        <time>2020-06-18T09:27:55Z</time>
      </trkpt>
      <trkpt lat="49.79056" lon="0.657">
        <ele>101.7</ele>
        <time>2020-06-18T09:27:56Z</time>
      </trkpt>
      <trkpt lat="49.79057" lon="0.65704">
        <ele>101.7</ele>
        <time>2020-06-18T09:27:57Z</time>
      </trkpt>
      <trkpt lat="49.79057" lon="0.65709">
        <ele>101.8</ele>
        <time>2020-06-18T09:27:58Z</time>
      </trkpt>
      <trkpt lat="49.79057" lon="0.65714">
        <ele>101.9</ele>
        <time>2020-06-18T09:27:59Z</time>
      </trkpt>
      <trkpt lat="49.79058" lon="0.65716">
        <ele>101.9</ele>
        <time>2020-06-18T09:28:00Z</time>
      </trkpt>
      <trkpt lat="49.79057" lon="0.65722">
        <ele>102</ele>
        <time>2020-06-18T09:28:01Z</time>
      </trkpt>
      <trkpt lat="49.79055" lon="0.65724">
        <ele>102</ele>
        <time>2020-06-18T09:28:02Z</time>
      </trkpt>
      <trkpt lat="49.79055" lon="0.65727">
        <ele>102.1</ele>
        <time>2020-06-18T09:28:03Z</time>
      </trkpt>
      <trkpt lat="49.79054" lon="0.65729">
        <ele>102.1</ele>
        <time>2020-06-18T09:28:04Z</time>
      </trkpt>
      <trkpt lat="49.79054" lon="0.65731">
        <ele>102.1</ele>
        <time>2020-06-18T09:28:05Z</time>
      </trkpt>
      <trkpt lat="49.79054" lon="0.65733">
        <ele>102.2</ele>
        <time>2020-06-18T09:28:06Z</time>
      </trkpt>
      <trkpt lat="49.79054" lon="0.65735">
        <ele>102.2</ele>
        <time>2020-06-18T09:28:07Z</time>
      </trkpt>
      <trkpt lat="49.79054" lon="0.65737">
        <ele>102.2</ele>
        <time>2020-06-18T09:28:08Z</time>
      </trkpt>
      <trkpt lat="49.79054" lon="0.65737">
        <ele>102.2</ele>
        <time>2020-06-18T09:28:09Z</time>
      </trkpt>
      <trkpt lat="49.79055" lon="0.65738">
        <ele>102.2</ele>
        <time>2020-06-18T09:28:10Z</time>
      </trkpt>
      <trkpt lat="49.79055" lon="0.65739">
        <ele>102.2</ele>
        <time>2020-06-18T09:28:11Z</time>
      </trkpt>
      <trkpt lat="49.79055" lon="0.6574">
        <ele>102.2</ele>
        <time>2020-06-18T09:28:12Z</time>
      </trkpt>
      <trkpt lat="49.79055" lon="0.65741">
        <ele>102.2</ele>
        <time>2020-06-18T09:28:13Z</time>
      </trkpt>
      <trkpt lat="49.79055" lon="0.65742">
        <ele>102.2</ele>
        <time>2020-06-18T09:28:14Z</time>
      </trkpt>
      <trkpt lat="49.79056" lon="0.65743">
        <ele>102.2</ele>
        <time>2020-06-18T09:28:15Z</time>
      </trkpt>
      <trkpt lat="49.79056" lon="0.65744">
        <ele>102.2</ele>
        <time>2020-06-18T09:28:16Z</time>
      </trkpt>
      <trkpt lat="49.79058" lon="0.6575">
        <ele>102.3</ele>
        <time>2020-06-18T09:28:17Z</time>
      </trkpt>
      <trkpt lat="49.79059" lon="0.65752">
        <ele>102.3</ele>
        <time>2020-06-18T09:28:18Z</time>
      </trkpt>
      <trkpt lat="49.79062" lon="0.65757">
        <ele>102.3</ele>
        <time>2020-06-18T09:28:19Z</time>
      </trkpt>
      <trkpt lat="49.79066" lon="0.65762">
        <ele>102.2</ele>
        <time>2020-06-18T09:28:20Z</time>
      </trkpt>
      <trkpt lat="49.79069" lon="0.65766">
        <ele>102.1</ele>
        <time>2020-06-18T09:28:21Z</time>
      </trkpt>
      <trkpt lat="49.79073" lon="0.6577">
        <ele>102.1</ele>
        <time>2020-06-18T09:28:22Z</time>
      </trkpt>
      <trkpt lat="49.79076" lon="0.65775">
        <ele>102</ele>
        <time>2020-06-18T09:28:23Z</time>
      </trkpt>
      <trkpt lat="49.79078" lon="0.6578">
        <ele>101.9</ele>
        <time>2020-06-18T09:28:24Z</time>
      </trkpt>
      <trkpt lat="49.79083" lon="0.65784">
        <ele>101.8</ele>
        <time>2020-06-18T09:28:25Z</time>
      </trkpt>
      <trkpt lat="49.79085" lon="0.6579">
        <ele>101.8</ele>
        <time>2020-06-18T09:28:26Z</time>
      </trkpt>
      <trkpt lat="49.79089" lon="0.65794">
        <ele>101.8</ele>
        <time>2020-06-18T09:28:27Z</time>
      </trkpt>
      <trkpt lat="49.79093" lon="0.65799">
        <ele>101.7</ele>
        <time>2020-06-18T09:28:28Z</time>
      </trkpt>
      <trkpt lat="49.79095" lon="0.65803">
        <ele>101.7</ele>
        <time>2020-06-18T09:28:29Z</time>
      </trkpt>
      <trkpt lat="49.79098" lon="0.65807">
        <ele>101.6</ele>
        <time>2020-06-18T09:28:30Z</time>
      </trkpt>
      <trkpt lat="49.791" lon="0.6581">
        <ele>101.6</ele>
        <time>2020-06-18T09:28:31Z</time>
      </trkpt>
      <trkpt lat="49.79102" lon="0.65814">
        <ele>101.6</ele>
        <time>2020-06-18T09:28:32Z</time>
      </trkpt>
      <trkpt lat="49.79102" lon="0.65815">
        <ele>101.6</ele>
        <time>2020-06-18T09:28:33Z</time>
      </trkpt>
      <trkpt lat="49.79103" lon="0.65816">
        <ele>101.6</ele>
        <time>2020-06-18T09:28:34Z</time>
      </trkpt>
      <trkpt lat="49.79103" lon="0.65816">
        <ele>101.6</ele>
        <time>2020-06-18T09:28:35Z</time>
      </trkpt>
      <trkpt lat="49.79104" lon="0.65817">
        <ele>101.6</ele>
        <time>2020-06-18T09:28:36Z</time>
      </trkpt>
      <trkpt lat="49.79105" lon="0.65817">
        <ele>101.6</ele>
        <time>2020-06-18T09:28:37Z</time>
      </trkpt>
      <trkpt lat="49.79105" lon="0.65818">
        <ele>101.5</ele>
        <time>2020-06-18T09:28:38Z</time>
      </trkpt>
      <trkpt lat="49.79108" lon="0.65818">
        <ele>101.5</ele>
        <time>2020-06-18T09:28:39Z</time>
      </trkpt>
      <trkpt lat="49.79109" lon="0.65819">
        <ele>101.5</ele>
        <time>2020-06-18T09:28:40Z</time>
      </trkpt>
      <trkpt lat="49.79108" lon="0.65819">
        <ele>101.5</ele>
        <time>2020-06-18T09:28:41Z</time>
      </trkpt>
      <trkpt lat="49.7911" lon="0.65818">
        <ele>101.5</ele>
        <time>2020-06-18T09:28:42Z</time>
      </trkpt>
      <trkpt lat="49.7911" lon="0.65818">
        <ele>101.5</ele>
        <time>2020-06-18T09:28:43Z</time>
      </trkpt>
      <trkpt lat="49.79111" lon="0.65816">
        <ele>101.5</ele>
        <time>2020-06-18T09:28:44Z</time>
      </trkpt>
      <trkpt lat="49.7911" lon="0.65814">
        <ele>101.5</ele>
        <time>2020-06-18T09:28:45Z</time>
      </trkpt>
      <trkpt lat="49.79109" lon="0.65811">
        <ele>101.4</ele>
        <time>2020-06-18T09:28:46Z</time>
      </trkpt>
      <trkpt lat="49.79106" lon="0.65809">
        <ele>101.5</ele>
        <time>2020-06-18T09:28:47Z</time>
      </trkpt>
      <trkpt lat="49.79103" lon="0.65804">
        <ele>101.5</ele>
        <time>2020-06-18T09:28:48Z</time>
      </trkpt>
      <trkpt lat="49.79101" lon="0.65799">
        <ele>101.6</ele>
        <time>2020-06-18T09:28:49Z</time>
      </trkpt>
      <trkpt lat="49.79098" lon="0.65795">
        <ele>101.6</ele>
        <time>2020-06-18T09:28:50Z</time>
      </trkpt>
      <trkpt lat="49.79095" lon="0.65792">
        <ele>101.6</ele>
        <time>2020-06-18T09:28:51Z</time>
      </trkpt>
      <trkpt lat="49.79092" lon="0.65788">
        <ele>101.7</ele>
        <time>2020-06-18T09:28:52Z</time>
      </trkpt>
      <trkpt lat="49.79089" lon="0.65784">
        <ele>101.7</ele>
        <time>2020-06-18T09:28:53Z</time>
      </trkpt>
      <trkpt lat="49.79086" lon="0.65781">
        <ele>101.8</ele>
        <time>2020-06-18T09:28:54Z</time>
      </trkpt>
      <trkpt lat="49.79084" lon="0.65778">
        <ele>101.8</ele>
        <time>2020-06-18T09:28:55Z</time>
      </trkpt>
      <trkpt lat="49.79081" lon="0.65775">
        <ele>101.9</ele>
        <time>2020-06-18T09:28:56Z</time>
      </trkpt>
      <trkpt lat="49.79079" lon="0.65772">
        <ele>101.9</ele>
        <time>2020-06-18T09:28:57Z</time>
      </trkpt>
      <trkpt lat="49.79076" lon="0.65768">
        <ele>102</ele>
        <time>2020-06-18T09:28:58Z</time>
      </trkpt>
      <trkpt lat="49.79075" lon="0.65766">
        <ele>102</ele>
        <time>2020-06-18T09:28:59Z</time>
      </trkpt>
      <trkpt lat="49.79072" lon="0.65763">
        <ele>102.1</ele>
        <time>2020-06-18T09:29:00Z</time>
      </trkpt>
      <trkpt lat="49.79071" lon="0.65762">
        <ele>102.3</ele>
        <time>2020-06-18T09:29:01Z</time>
      </trkpt>
      <trkpt lat="49.79067" lon="0.65763">
        <ele>102.3</ele>
        <time>2020-06-18T09:29:02Z</time>
      </trkpt>
      <trkpt lat="49.79063" lon="0.65767">
        <ele>102.2</ele>
        <time>2020-06-18T09:29:03Z</time>
      </trkpt>
      <trkpt lat="49.79062" lon="0.65772">
        <ele>102.2</ele>
        <time>2020-06-18T09:29:04Z</time>
      </trkpt>
      <trkpt lat="49.79061" lon="0.65779">
        <ele>102.1</ele>
        <time>2020-06-18T09:29:05Z</time>
      </trkpt>
      <trkpt lat="49.79062" lon="0.65785">
        <ele>102.1</ele>
        <time>2020-06-18T09:29:06Z</time>
      </trkpt>
      <trkpt lat="49.79062" lon="0.65791">
        <ele>102.1</ele>
        <time>2020-06-18T09:29:07Z</time>
      </trkpt>
      <trkpt lat="49.79063" lon="0.65797">
        <ele>102.1</ele>
        <time>2020-06-18T09:29:08Z</time>
      </trkpt>
      <trkpt lat="49.79063" lon="0.65804">
        <ele>102.1</ele>
        <time>2020-06-18T09:29:09Z</time>
      </trkpt>
      <trkpt lat="49.79063" lon="0.6581">
        <ele>102.1</ele>
        <time>2020-06-18T09:29:10Z</time>
      </trkpt>
      <trkpt lat="49.79064" lon="0.65816">
        <ele>102.1</ele>
        <time>2020-06-18T09:29:11Z</time>
      </trkpt>
      <trkpt lat="49.79064" lon="0.65821">
        <ele>102.1</ele>
        <time>2020-06-18T09:29:12Z</time>
      </trkpt>
      <trkpt lat="49.79063" lon="0.65828">
        <ele>102.1</ele>
        <time>2020-06-18T09:29:13Z</time>
      </trkpt>
      <trkpt lat="49.79064" lon="0.65833">
        <ele>102.2</ele>
        <time>2020-06-18T09:29:14Z</time>
      </trkpt>
      <trkpt lat="49.79063" lon="0.6584">
        <ele>102.2</ele>
        <time>2020-06-18T09:29:15Z</time>
      </trkpt>
      <trkpt lat="49.79064" lon="0.65845">
        <ele>102.2</ele>
        <time>2020-06-18T09:29:16Z</time>
      </trkpt>
      <trkpt lat="49.79065" lon="0.65853">
        <ele>102.2</ele>
        <time>2020-06-18T09:29:17Z</time>
      </trkpt>
      <trkpt lat="49.79065" lon="0.6586">
        <ele>102.2</ele>
        <time>2020-06-18T09:29:18Z</time>
      </trkpt>
      <trkpt lat="49.79065" lon="0.65867">
        <ele>102.2</ele>
        <time>2020-06-18T09:29:19Z</time>
      </trkpt>
      <trkpt lat="49.79066" lon="0.65875">
        <ele>102.2</ele>
        <time>2020-06-18T09:29:20Z</time>
      </trkpt>
      <trkpt lat="49.79066" lon="0.65882">
        <ele>102.2</ele>
        <time>2020-06-18T09:29:21Z</time>
      </trkpt>
      <trkpt lat="49.79066" lon="0.6589">
        <ele>102.2</ele>
        <time>2020-06-18T09:29:22Z</time>
      </trkpt>
      <trkpt lat="49.79066" lon="0.65896">
        <ele>102.2</ele>
        <time>2020-06-18T09:29:23Z</time>
      </trkpt>
      <trkpt lat="49.79067" lon="0.65902">
        <ele>102.3</ele>
        <time>2020-06-18T09:29:24Z</time>
      </trkpt>
      <trkpt lat="49.79067" lon="0.65908">
        <ele>102.3</ele>
        <time>2020-06-18T09:29:25Z</time>
      </trkpt>
      <trkpt lat="49.79066" lon="0.65916">
        <ele>102.3</ele>
        <time>2020-06-18T09:29:26Z</time>
      </trkpt>
      <trkpt lat="49.79066" lon="0.65923">
        <ele>102.3</ele>
        <time>2020-06-18T09:29:27Z</time>
      </trkpt>
      <trkpt lat="49.79065" lon="0.6593">
        <ele>102.3</ele>
        <time>2020-06-18T09:29:28Z</time>
      </trkpt>
      <trkpt lat="49.79065" lon="0.65937">
        <ele>102.3</ele>
        <time>2020-06-18T09:29:29Z</time>
      </trkpt>
      <trkpt lat="49.79065" lon="0.65944">
        <ele>102.3</ele>
        <time>2020-06-18T09:29:30Z</time>
      </trkpt>
      <trkpt lat="49.79065" lon="0.65951">
        <ele>102.3</ele>
        <time>2020-06-18T09:29:31Z</time>
      </trkpt>
      <trkpt lat="49.79065" lon="0.65959">
        <ele>102.3</ele>
        <time>2020-06-18T09:29:32Z</time>
      </trkpt>
      <trkpt lat="49.79065" lon="0.65966">
        <ele>102.3</ele>
        <time>2020-06-18T09:29:33Z</time>
      </trkpt>
      <trkpt lat="49.79065" lon="0.65973">
        <ele>102.3</ele>
        <time>2020-06-18T09:29:34Z</time>
      </trkpt>
      <trkpt lat="49.79065" lon="0.65981">
        <ele>102.3</ele>
        <time>2020-06-18T09:29:35Z</time>
      </trkpt>
      <trkpt lat="49.79065" lon="0.6599">
        <ele>102.4</ele>
        <time>2020-06-18T09:29:36Z</time>
      </trkpt>
      <trkpt lat="49.79066" lon="0.65997">
        <ele>102.4</ele>
        <time>2020-06-18T09:29:37Z</time>
      </trkpt>
      <trkpt lat="49.79067" lon="0.66005">
        <ele>102.4</ele>
        <time>2020-06-18T09:29:38Z</time>
      </trkpt>
      <trkpt lat="49.79068" lon="0.66013">
        <ele>102.4</ele>
        <time>2020-06-18T09:29:39Z</time>
      </trkpt>
      <trkpt lat="49.7907" lon="0.6602">
        <ele>102.4</ele>
        <time>2020-06-18T09:29:40Z</time>
      </trkpt>
      <trkpt lat="49.7907" lon="0.66026">
        <ele>102.4</ele>
        <time>2020-06-18T09:29:41Z</time>
      </trkpt>
      <trkpt lat="49.7907" lon="0.66033">
        <ele>102.4</ele>
        <time>2020-06-18T09:29:42Z</time>
      </trkpt>
      <trkpt lat="49.79071" lon="0.66039">
        <ele>102.4</ele>
        <time>2020-06-18T09:29:43Z</time>
      </trkpt>
      <trkpt lat="49.79072" lon="0.66046">
        <ele>102.4</ele>
        <time>2020-06-18T09:29:44Z</time>
      </trkpt>
      <trkpt lat="49.79074" lon="0.66053">
        <ele>102.4</ele>
        <time>2020-06-18T09:29:45Z</time>
      </trkpt>
      <trkpt lat="49.79076" lon="0.66061">
        <ele>102.4</ele>
        <time>2020-06-18T09:29:46Z</time>
      </trkpt>
      <trkpt lat="49.79077" lon="0.66068">
        <ele>102.4</ele>
        <time>2020-06-18T09:29:47Z</time>
      </trkpt>
      <trkpt lat="49.79078" lon="0.66076">
        <ele>102.4</ele>
        <time>2020-06-18T09:29:48Z</time>
      </trkpt>
      <trkpt lat="49.79079" lon="0.66083">
        <ele>102.4</ele>
        <time>2020-06-18T09:29:49Z</time>
      </trkpt>
      <trkpt lat="49.79081" lon="0.66091">
        <ele>102.4</ele>
        <time>2020-06-18T09:29:50Z</time>
      </trkpt>
      <trkpt lat="49.79081" lon="0.66098">
        <ele>102.3</ele>
        <time>2020-06-18T09:29:51Z</time>
      </trkpt>
      <trkpt lat="49.79084" lon="0.66105">
        <ele>102.3</ele>
        <time>2020-06-18T09:29:52Z</time>
      </trkpt>
      <trkpt lat="49.79085" lon="0.66112">
        <ele>102.3</ele>
        <time>2020-06-18T09:29:53Z</time>
      </trkpt>
      <trkpt lat="49.79087" lon="0.66119">
        <ele>102.3</ele>
        <time>2020-06-18T09:29:54Z</time>
      </trkpt>
      <trkpt lat="49.79088" lon="0.66126">
        <ele>102.3</ele>
        <time>2020-06-18T09:29:55Z</time>
      </trkpt>
      <trkpt lat="49.7909" lon="0.66134">
        <ele>102.3</ele>
        <time>2020-06-18T09:29:56Z</time>
      </trkpt>
      <trkpt lat="49.79092" lon="0.66141">
        <ele>102.3</ele>
        <time>2020-06-18T09:29:57Z</time>
      </trkpt>
      <trkpt lat="49.79093" lon="0.66148">
        <ele>102.3</ele>
        <time>2020-06-18T09:29:58Z</time>
      </trkpt>
      <trkpt lat="49.79095" lon="0.66155">
        <ele>102.3</ele>
        <time>2020-06-18T09:29:59Z</time>
      </trkpt>
      <trkpt lat="49.79097" lon="0.66162">
        <ele>102.3</ele>
        <time>2020-06-18T09:30:00Z</time>
      </trkpt>
      <trkpt lat="49.79099" lon="0.6617">
        <ele>102.2</ele>
        <time>2020-06-18T09:30:01Z</time>
      </trkpt>
      <trkpt lat="49.79101" lon="0.66178">
        <ele>102.2</ele>
        <time>2020-06-18T09:30:02Z</time>
      </trkpt>
      <trkpt lat="49.79103" lon="0.66186">
        <ele>102.1</ele>
        <time>2020-06-18T09:30:03Z</time>
      </trkpt>
      <trkpt lat="49.79106" lon="0.66193">
        <ele>102.1</ele>
        <time>2020-06-18T09:30:04Z</time>
      </trkpt>
      <trkpt lat="49.79109" lon="0.662">
        <ele>102.1</ele>
        <time>2020-06-18T09:30:05Z</time>
      </trkpt>
      <trkpt lat="49.79112" lon="0.66208">
        <ele>102.1</ele>
        <time>2020-06-18T09:30:06Z</time>
      </trkpt>
      <trkpt lat="49.79114" lon="0.66216">
        <ele>102.1</ele>
        <time>2020-06-18T09:30:07Z</time>
      </trkpt>
      <trkpt lat="49.79117" lon="0.66224">
        <ele>102.1</ele>
        <time>2020-06-18T09:30:08Z</time>
      </trkpt>
      <trkpt lat="49.79119" lon="0.66231">
        <ele>102.1</ele>
        <time>2020-06-18T09:30:09Z</time>
      </trkpt>
      <trkpt lat="49.79121" lon="0.66239">
        <ele>102.1</ele>
        <time>2020-06-18T09:30:10Z</time>
      </trkpt>
      <trkpt lat="49.79124" lon="0.66247">
        <ele>102.1</ele>
        <time>2020-06-18T09:30:11Z</time>
      </trkpt>
      <trkpt lat="49.79127" lon="0.66255">
        <ele>102.1</ele>
        <time>2020-06-18T09:30:12Z</time>
      </trkpt>
      <trkpt lat="49.79129" lon="0.66262">
        <ele>102.1</ele>
        <time>2020-06-18T09:30:13Z</time>
      </trkpt>
      <trkpt lat="49.79132" lon="0.6627">
        <ele>102.1</ele>
        <time>2020-06-18T09:30:14Z</time>
      </trkpt>
      <trkpt lat="49.79134" lon="0.66278">
        <ele>102.1</ele>
        <time>2020-06-18T09:30:15Z</time>
      </trkpt>
      <trkpt lat="49.79137" lon="0.66286">
        <ele>102.1</ele>
        <time>2020-06-18T09:30:16Z</time>
      </trkpt>
      <trkpt lat="49.7914" lon="0.66293">
        <ele>102.1</ele>
        <time>2020-06-18T09:30:17Z</time>
      </trkpt>
      <trkpt lat="49.79143" lon="0.663">
        <ele>102.1</ele>
        <time>2020-06-18T09:30:18Z</time>
      </trkpt>
      <trkpt lat="49.79146" lon="0.66307">
        <ele>102.1</ele>
        <time>2020-06-18T09:30:19Z</time>
      </trkpt>
      <trkpt lat="49.7915" lon="0.66314">
        <ele>102.1</ele>
        <time>2020-06-18T09:30:20Z</time>
      </trkpt>
      <trkpt lat="49.79151" lon="0.66322">
        <ele>102.1</ele>
        <time>2020-06-18T09:30:21Z</time>
      </trkpt>
      <trkpt lat="49.79154" lon="0.6633">
        <ele>102.1</ele>
        <time>2020-06-18T09:30:22Z</time>
      </trkpt>
      <trkpt lat="49.79156" lon="0.66338">
        <ele>102.1</ele>
        <time>2020-06-18T09:30:23Z</time>
      </trkpt>
      <trkpt lat="49.7916" lon="0.66347">
        <ele>102.2</ele>
        <time>2020-06-18T09:30:24Z</time>
      </trkpt>
      <trkpt lat="49.79163" lon="0.66357">
        <ele>102.2</ele>
        <time>2020-06-18T09:30:25Z</time>
      </trkpt>
      <trkpt lat="49.79165" lon="0.66365">
        <ele>102.2</ele>
        <time>2020-06-18T09:30:26Z</time>
      </trkpt>
      <trkpt lat="49.79167" lon="0.66373">
        <ele>102.2</ele>
        <time>2020-06-18T09:30:27Z</time>
      </trkpt>
      <trkpt lat="49.79169" lon="0.66381">
        <ele>102.2</ele>
        <time>2020-06-18T09:30:28Z</time>
      </trkpt>
      <trkpt lat="49.79171" lon="0.66389">
        <ele>102.2</ele>
        <time>2020-06-18T09:30:29Z</time>
      </trkpt>
      <trkpt lat="49.79174" lon="0.66397">
        <ele>102.3</ele>
        <time>2020-06-18T09:30:30Z</time>
      </trkpt>
      <trkpt lat="49.79174" lon="0.66403">
        <ele>102.3</ele>
        <time>2020-06-18T09:30:31Z</time>
      </trkpt>
      <trkpt lat="49.79177" lon="0.66411">
        <ele>102.3</ele>
        <time>2020-06-18T09:30:32Z</time>
      </trkpt>
      <trkpt lat="49.7918" lon="0.66419">
        <ele>102.4</ele>
        <time>2020-06-18T09:30:33Z</time>
      </trkpt>
      <trkpt lat="49.79182" lon="0.66426">
        <ele>102.4</ele>
        <time>2020-06-18T09:30:34Z</time>
      </trkpt>
      <trkpt lat="49.79183" lon="0.66433">
        <ele>102.5</ele>
        <time>2020-06-18T09:30:35Z</time>
      </trkpt>
      <trkpt lat="49.79185" lon="0.66441">
        <ele>102.5</ele>
        <time>2020-06-18T09:30:36Z</time>
      </trkpt>
      <trkpt lat="49.79188" lon="0.66449">
        <ele>102.6</ele>
        <time>2020-06-18T09:30:37Z</time>
      </trkpt>
      <trkpt lat="49.7919" lon="0.66457">
        <ele>102.6</ele>
        <time>2020-06-18T09:30:38Z</time>
      </trkpt>
      <trkpt lat="49.79191" lon="0.66465">
        <ele>102.7</ele>
        <time>2020-06-18T09:30:39Z</time>
      </trkpt>
      <trkpt lat="49.79193" lon="0.66472">
        <ele>102.7</ele>
        <time>2020-06-18T09:30:40Z</time>
      </trkpt>
      <trkpt lat="49.79195" lon="0.66481">
        <ele>102.7</ele>
        <time>2020-06-18T09:30:41Z</time>
      </trkpt>
      <trkpt lat="49.79197" lon="0.66489">
        <ele>102.7</ele>
        <time>2020-06-18T09:30:42Z</time>
      </trkpt>
      <trkpt lat="49.79198" lon="0.66497">
        <ele>102.8</ele>
        <time>2020-06-18T09:30:43Z</time>
      </trkpt>
      <trkpt lat="49.79199" lon="0.66506">
        <ele>102.8</ele>
        <time>2020-06-18T09:30:44Z</time>
      </trkpt>
      <trkpt lat="49.79201" lon="0.66514">
        <ele>102.7</ele>
        <time>2020-06-18T09:30:45Z</time>
      </trkpt>
      <trkpt lat="49.79203" lon="0.66524">
        <ele>102.7</ele>
        <time>2020-06-18T09:30:46Z</time>
      </trkpt>
      <trkpt lat="49.79205" lon="0.66533">
        <ele>102.7</ele>
        <time>2020-06-18T09:30:47Z</time>
      </trkpt>
      <trkpt lat="49.79207" lon="0.66542">
        <ele>102.8</ele>
        <time>2020-06-18T09:30:48Z</time>
      </trkpt>
      <trkpt lat="49.79208" lon="0.6655">
        <ele>102.8</ele>
        <time>2020-06-18T09:30:49Z</time>
      </trkpt>
      <trkpt lat="49.7921" lon="0.66559">
        <ele>102.9</ele>
        <time>2020-06-18T09:30:50Z</time>
      </trkpt>
      <trkpt lat="49.79212" lon="0.66567">
        <ele>103</ele>
        <time>2020-06-18T09:30:51Z</time>
      </trkpt>
      <trkpt lat="49.79212" lon="0.66575">
        <ele>103</ele>
        <time>2020-06-18T09:30:52Z</time>
      </trkpt>
      <trkpt lat="49.79213" lon="0.66584">
        <ele>103.1</ele>
        <time>2020-06-18T09:30:53Z</time>
      </trkpt>
      <trkpt lat="49.79215" lon="0.66593">
        <ele>103.2</ele>
        <time>2020-06-18T09:30:54Z</time>
      </trkpt>
      <trkpt lat="49.79217" lon="0.66602">
        <ele>103.3</ele>
        <time>2020-06-18T09:30:55Z</time>
      </trkpt>
      <trkpt lat="49.79219" lon="0.6661">
        <ele>103.3</ele>
        <time>2020-06-18T09:30:56Z</time>
      </trkpt>
      <trkpt lat="49.79221" lon="0.66619">
        <ele>103.4</ele>
        <time>2020-06-18T09:30:57Z</time>
      </trkpt>
      <trkpt lat="49.79222" lon="0.66627">
        <ele>103.4</ele>
        <time>2020-06-18T09:30:58Z</time>
      </trkpt>
      <trkpt lat="49.79225" lon="0.66636">
        <ele>103.4</ele>
        <time>2020-06-18T09:30:59Z</time>
      </trkpt>
      <trkpt lat="49.79226" lon="0.66645">
        <ele>103.4</ele>
        <time>2020-06-18T09:31:00Z</time>
      </trkpt>
      <trkpt lat="49.79227" lon="0.66655">
        <ele>103.5</ele>
        <time>2020-06-18T09:31:01Z</time>
      </trkpt>
      <trkpt lat="49.79228" lon="0.66664">
        <ele>103.5</ele>
        <time>2020-06-18T09:31:02Z</time>
      </trkpt>
      <trkpt lat="49.79228" lon="0.66674">
        <ele>103.6</ele>
        <time>2020-06-18T09:31:03Z</time>
      </trkpt>
      <trkpt lat="49.79229" lon="0.66683">
        <ele>103.7</ele>
        <time>2020-06-18T09:31:04Z</time>
      </trkpt>
      <trkpt lat="49.7923" lon="0.66692">
        <ele>103.8</ele>
        <time>2020-06-18T09:31:05Z</time>
      </trkpt>
      <trkpt lat="49.79232" lon="0.66701">
        <ele>103.8</ele>
        <time>2020-06-18T09:31:06Z</time>
      </trkpt>
      <trkpt lat="49.79233" lon="0.66709">
        <ele>103.9</ele>
        <time>2020-06-18T09:31:07Z</time>
      </trkpt>
      <trkpt lat="49.79234" lon="0.66718">
        <ele>103.9</ele>
        <time>2020-06-18T09:31:08Z</time>
      </trkpt>
      <trkpt lat="49.79234" lon="0.66728">
        <ele>103.9</ele>
        <time>2020-06-18T09:31:09Z</time>
      </trkpt>
      <trkpt lat="49.79235" lon="0.66739">
        <ele>104</ele>
        <time>2020-06-18T09:31:10Z</time>
      </trkpt>
      <trkpt lat="49.79235" lon="0.66748">
        <ele>104</ele>
        <time>2020-06-18T09:31:11Z</time>
      </trkpt>
      <trkpt lat="49.79236" lon="0.66757">
        <ele>104</ele>
        <time>2020-06-18T09:31:12Z</time>
      </trkpt>
      <trkpt lat="49.79237" lon="0.66767">
        <ele>104.1</ele>
        <time>2020-06-18T09:31:13Z</time>
      </trkpt>
      <trkpt lat="49.79238" lon="0.66776">
        <ele>104.2</ele>
        <time>2020-06-18T09:31:14Z</time>
      </trkpt>
      <trkpt lat="49.7924" lon="0.66784">
        <ele>104.2</ele>
        <time>2020-06-18T09:31:15Z</time>
      </trkpt>
      <trkpt lat="49.7924" lon="0.66791">
        <ele>104.3</ele>
        <time>2020-06-18T09:31:16Z</time>
      </trkpt>
      <trkpt lat="49.79241" lon="0.668">
        <ele>104.3</ele>
        <time>2020-06-18T09:31:17Z</time>
      </trkpt>
      <trkpt lat="49.79242" lon="0.6681">
        <ele>104.4</ele>
        <time>2020-06-18T09:31:18Z</time>
      </trkpt>
      <trkpt lat="49.79244" lon="0.6682">
        <ele>104.5</ele>
        <time>2020-06-18T09:31:19Z</time>
      </trkpt>
      <trkpt lat="49.79245" lon="0.6683">
        <ele>104.6</ele>
        <time>2020-06-18T09:31:20Z</time>
      </trkpt>
      <trkpt lat="49.79247" lon="0.66838">
        <ele>104.7</ele>
        <time>2020-06-18T09:31:21Z</time>
      </trkpt>
      <trkpt lat="49.79248" lon="0.66848">
        <ele>104.8</ele>
        <time>2020-06-18T09:31:22Z</time>
      </trkpt>
      <trkpt lat="49.79249" lon="0.66857">
        <ele>104.8</ele>
        <time>2020-06-18T09:31:23Z</time>
      </trkpt>
      <trkpt lat="49.79251" lon="0.66865">
        <ele>104.8</ele>
        <time>2020-06-18T09:31:24Z</time>
      </trkpt>
      <trkpt lat="49.79252" lon="0.66875">
        <ele>104.9</ele>
        <time>2020-06-18T09:31:25Z</time>
      </trkpt>
      <trkpt lat="49.79253" lon="0.66884">
        <ele>104.9</ele>
        <time>2020-06-18T09:31:26Z</time>
      </trkpt>
      <trkpt lat="49.79255" lon="0.66892">
        <ele>104.9</ele>
        <time>2020-06-18T09:31:27Z</time>
      </trkpt>
      <trkpt lat="49.79256" lon="0.66902">
        <ele>105</ele>
        <time>2020-06-18T09:31:28Z</time>
      </trkpt>
      <trkpt lat="49.79258" lon="0.66911">
        <ele>105</ele>
        <time>2020-06-18T09:31:29Z</time>
      </trkpt>
      <trkpt lat="49.79259" lon="0.6692">
        <ele>105</ele>
        <time>2020-06-18T09:31:30Z</time>
      </trkpt>
      <trkpt lat="49.79261" lon="0.66929">
        <ele>105.1</ele>
        <time>2020-06-18T09:31:31Z</time>
      </trkpt>
      <trkpt lat="49.79263" lon="0.66938">
        <ele>105.1</ele>
        <time>2020-06-18T09:31:32Z</time>
      </trkpt>
      <trkpt lat="49.79264" lon="0.66949">
        <ele>105.2</ele>
        <time>2020-06-18T09:31:33Z</time>
      </trkpt>
      <trkpt lat="49.79265" lon="0.66958">
        <ele>105.2</ele>
        <time>2020-06-18T09:31:34Z</time>
      </trkpt>
      <trkpt lat="49.79267" lon="0.66966">
        <ele>105.3</ele>
        <time>2020-06-18T09:31:35Z</time>
      </trkpt>
      <trkpt lat="49.79268" lon="0.66975">
        <ele>105.3</ele>
        <time>2020-06-18T09:31:36Z</time>
      </trkpt>
      <trkpt lat="49.7927" lon="0.66983">
        <ele>105.3</ele>
        <time>2020-06-18T09:31:37Z</time>
      </trkpt>
      <trkpt lat="49.79271" lon="0.66992">
        <ele>105.3</ele>
        <time>2020-06-18T09:31:38Z</time>
      </trkpt>
      <trkpt lat="49.79274" lon="0.67003">
        <ele>105.4</ele>
        <time>2020-06-18T09:31:39Z</time>
      </trkpt>
      <trkpt lat="49.79276" lon="0.67013">
        <ele>105.4</ele>
        <time>2020-06-18T09:31:40Z</time>
      </trkpt>
      <trkpt lat="49.79277" lon="0.67022">
        <ele>105.4</ele>
        <time>2020-06-18T09:31:41Z</time>
      </trkpt>
      <trkpt lat="49.79279" lon="0.67032">
        <ele>105.2</ele>
        <time>2020-06-18T09:31:42Z</time>
      </trkpt>
      <trkpt lat="49.7928" lon="0.6704">
        <ele>105</ele>
        <time>2020-06-18T09:31:43Z</time>
      </trkpt>
      <trkpt lat="49.79281" lon="0.6705">
        <ele>104.9</ele>
        <time>2020-06-18T09:31:44Z</time>
      </trkpt>
      <trkpt lat="49.79283" lon="0.6706">
        <ele>104.9</ele>
        <time>2020-06-18T09:31:45Z</time>
      </trkpt>
      <trkpt lat="49.79284" lon="0.6707">
        <ele>104.9</ele>
        <time>2020-06-18T09:31:46Z</time>
      </trkpt>
      <trkpt lat="49.79285" lon="0.67078">
        <ele>104.9</ele>
        <time>2020-06-18T09:31:47Z</time>
      </trkpt>
      <trkpt lat="49.79287" lon="0.67088">
        <ele>104.9</ele>
        <time>2020-06-18T09:31:48Z</time>
      </trkpt>
      <trkpt lat="49.79288" lon="0.67098">
        <ele>104.9</ele>
        <time>2020-06-18T09:31:49Z</time>
      </trkpt>
      <trkpt lat="49.7929" lon="0.67107">
        <ele>104.9</ele>
        <time>2020-06-18T09:31:50Z</time>
      </trkpt>
      <trkpt lat="49.79291" lon="0.67117">
        <ele>105</ele>
        <time>2020-06-18T09:31:51Z</time>
      </trkpt>
      <trkpt lat="49.79292" lon="0.67127">
        <ele>105</ele>
        <time>2020-06-18T09:31:52Z</time>
      </trkpt>
      <trkpt lat="49.79293" lon="0.67136">
        <ele>105</ele>
        <time>2020-06-18T09:31:53Z</time>
      </trkpt>
      <trkpt lat="49.79295" lon="0.67147">
        <ele>105.1</ele>
        <time>2020-06-18T09:31:54Z</time>
      </trkpt>
      <trkpt lat="49.79296" lon="0.67157">
        <ele>105.1</ele>
        <time>2020-06-18T09:31:55Z</time>
      </trkpt>
      <trkpt lat="49.79298" lon="0.67167">
        <ele>105.2</ele>
        <time>2020-06-18T09:31:56Z</time>
      </trkpt>
      <trkpt lat="49.793" lon="0.67176">
        <ele>105.3</ele>
        <time>2020-06-18T09:31:57Z</time>
      </trkpt>
      <trkpt lat="49.79301" lon="0.67186">
        <ele>105.3</ele>
        <time>2020-06-18T09:31:58Z</time>
      </trkpt>
      <trkpt lat="49.79302" lon="0.67195">
        <ele>105.3</ele>
        <time>2020-06-18T09:31:59Z</time>
      </trkpt>
      <trkpt lat="49.79304" lon="0.67204">
        <ele>105.4</ele>
        <time>2020-06-18T09:32:00Z</time>
      </trkpt>
      <trkpt lat="49.79306" lon="0.67213">
        <ele>105.4</ele>
        <time>2020-06-18T09:32:01Z</time>
      </trkpt>
      <trkpt lat="49.79308" lon="0.67224">
        <ele>105.5</ele>
        <time>2020-06-18T09:32:02Z</time>
      </trkpt>
      <trkpt lat="49.79309" lon="0.67233">
        <ele>105.5</ele>
        <time>2020-06-18T09:32:03Z</time>
      </trkpt>
      <trkpt lat="49.79311" lon="0.67244">
        <ele>105.6</ele>
        <time>2020-06-18T09:32:04Z</time>
      </trkpt>
      <trkpt lat="49.79313" lon="0.67253">
        <ele>105.6</ele>
        <time>2020-06-18T09:32:05Z</time>
      </trkpt>
      <trkpt lat="49.79315" lon="0.67263">
        <ele>105.6</ele>
        <time>2020-06-18T09:32:06Z</time>
      </trkpt>
      <trkpt lat="49.79317" lon="0.67273">
        <ele>105.7</ele>
        <time>2020-06-18T09:32:07Z</time>
      </trkpt>
      <trkpt lat="49.79319" lon="0.67283">
        <ele>105.7</ele>
        <time>2020-06-18T09:32:08Z</time>
      </trkpt>
      <trkpt lat="49.79321" lon="0.67293">
        <ele>105.8</ele>
        <time>2020-06-18T09:32:09Z</time>
      </trkpt>
      <trkpt lat="49.79323" lon="0.67303">
        <ele>105.8</ele>
        <time>2020-06-18T09:32:10Z</time>
      </trkpt>
      <trkpt lat="49.79325" lon="0.67313">
        <ele>105.9</ele>
        <time>2020-06-18T09:32:11Z</time>
      </trkpt>
      <trkpt lat="49.79327" lon="0.67322">
        <ele>105.9</ele>
        <time>2020-06-18T09:32:12Z</time>
      </trkpt>
      <trkpt lat="49.79329" lon="0.67332">
        <ele>106</ele>
        <time>2020-06-18T09:32:13Z</time>
      </trkpt>
      <trkpt lat="49.79331" lon="0.67342">
        <ele>106</ele>
        <time>2020-06-18T09:32:14Z</time>
      </trkpt>
      <trkpt lat="49.79333" lon="0.67352">
        <ele>106.1</ele>
        <time>2020-06-18T09:32:15Z</time>
      </trkpt>
      <trkpt lat="49.79335" lon="0.67361">
        <ele>106.1</ele>
        <time>2020-06-18T09:32:16Z</time>
      </trkpt>
      <trkpt lat="49.79337" lon="0.6737">
        <ele>106.1</ele>
        <time>2020-06-18T09:32:17Z</time>
      </trkpt>
      <trkpt lat="49.79339" lon="0.6738">
        <ele>106.1</ele>
        <time>2020-06-18T09:32:18Z</time>
      </trkpt>
      <trkpt lat="49.79341" lon="0.67389">
        <ele>106.1</ele>
        <time>2020-06-18T09:32:19Z</time>
      </trkpt>
      <trkpt lat="49.79343" lon="0.67399">
        <ele>106.1</ele>
        <time>2020-06-18T09:32:20Z</time>
      </trkpt>
      <trkpt lat="49.79345" lon="0.67409">
        <ele>106.1</ele>
        <time>2020-06-18T09:32:21Z</time>
      </trkpt>
      <trkpt lat="49.79347" lon="0.67419">
        <ele>106.1</ele>
        <time>2020-06-18T09:32:22Z</time>
      </trkpt>
      <trkpt lat="49.79348" lon="0.6743">
        <ele>106.1</ele>
        <time>2020-06-18T09:32:23Z</time>
      </trkpt>
      <trkpt lat="49.79351" lon="0.6744">
        <ele>106.1</ele>
        <time>2020-06-18T09:32:24Z</time>
      </trkpt>
      <trkpt lat="49.79353" lon="0.6745">
        <ele>106.1</ele>
        <time>2020-06-18T09:32:25Z</time>
      </trkpt>
      <trkpt lat="49.79354" lon="0.6746">
        <ele>106.1</ele>
        <time>2020-06-18T09:32:26Z</time>
      </trkpt>
      <trkpt lat="49.79357" lon="0.6747">
        <ele>106.1</ele>
        <time>2020-06-18T09:32:27Z</time>
      </trkpt>
      <trkpt lat="49.79359" lon="0.6748">
        <ele>106.2</ele>
        <time>2020-06-18T09:32:28Z</time>
      </trkpt>
      <trkpt lat="49.79361" lon="0.6749">
        <ele>106.2</ele>
        <time>2020-06-18T09:32:29Z</time>
      </trkpt>
      <trkpt lat="49.79362" lon="0.675">
        <ele>106.2</ele>
        <time>2020-06-18T09:32:30Z</time>
      </trkpt>
      <trkpt lat="49.79364" lon="0.67511">
        <ele>106.2</ele>
        <time>2020-06-18T09:32:31Z</time>
      </trkpt>
      <trkpt lat="49.79366" lon="0.67521">
        <ele>106.2</ele>
        <time>2020-06-18T09:32:32Z</time>
      </trkpt>
      <trkpt lat="49.79368" lon="0.67531">
        <ele>106.2</ele>
        <time>2020-06-18T09:32:33Z</time>
      </trkpt>
      <trkpt lat="49.7937" lon="0.67542">
        <ele>106.2</ele>
        <time>2020-06-18T09:32:34Z</time>
      </trkpt>
      <trkpt lat="49.79371" lon="0.67553">
        <ele>106.3</ele>
        <time>2020-06-18T09:32:35Z</time>
      </trkpt>
      <trkpt lat="49.79374" lon="0.67563">
        <ele>106.3</ele>
        <time>2020-06-18T09:32:36Z</time>
      </trkpt>
      <trkpt lat="49.79376" lon="0.67574">
        <ele>106.4</ele>
        <time>2020-06-18T09:32:37Z</time>
      </trkpt>
      <trkpt lat="49.79378" lon="0.67584">
        <ele>106.5</ele>
        <time>2020-06-18T09:32:38Z</time>
      </trkpt>
      <trkpt lat="49.7938" lon="0.67595">
        <ele>106.5</ele>
        <time>2020-06-18T09:32:39Z</time>
      </trkpt>
      <trkpt lat="49.79382" lon="0.67605">
        <ele>106.6</ele>
        <time>2020-06-18T09:32:40Z</time>
      </trkpt>
      <trkpt lat="49.79383" lon="0.67616">
        <ele>106.7</ele>
        <time>2020-06-18T09:32:41Z</time>
      </trkpt>
      <trkpt lat="49.79385" lon="0.67626">
        <ele>106.7</ele>
        <time>2020-06-18T09:32:42Z</time>
      </trkpt>
      <trkpt lat="49.79387" lon="0.67637">
        <ele>106.8</ele>
        <time>2020-06-18T09:32:43Z</time>
      </trkpt>
      <trkpt lat="49.79389" lon="0.67647">
        <ele>106.8</ele>
        <time>2020-06-18T09:32:44Z</time>
      </trkpt>
      <trkpt lat="49.7939" lon="0.67657">
        <ele>106.8</ele>
        <time>2020-06-18T09:32:45Z</time>
      </trkpt>
      <trkpt lat="49.79392" lon="0.67668">
        <ele>106.9</ele>
        <time>2020-06-18T09:32:46Z</time>
      </trkpt>
      <trkpt lat="49.79393" lon="0.67678">
        <ele>106.9</ele>
        <time>2020-06-18T09:32:47Z</time>
      </trkpt>
      <trkpt lat="49.79394" lon="0.67689">
        <ele>107</ele>
        <time>2020-06-18T09:32:48Z</time>
      </trkpt>
      <trkpt lat="49.79395" lon="0.67699">
        <ele>107</ele>
        <time>2020-06-18T09:32:49Z</time>
      </trkpt>
      <trkpt lat="49.79396" lon="0.6771">
        <ele>107.1</ele>
        <time>2020-06-18T09:32:50Z</time>
      </trkpt>
      <trkpt lat="49.79397" lon="0.6772">
        <ele>107.1</ele>
        <time>2020-06-18T09:32:51Z</time>
      </trkpt>
      <trkpt lat="49.79398" lon="0.6773">
        <ele>107.2</ele>
        <time>2020-06-18T09:32:52Z</time>
      </trkpt>
      <trkpt lat="49.79399" lon="0.6774">
        <ele>107.2</ele>
        <time>2020-06-18T09:32:53Z</time>
      </trkpt>
      <trkpt lat="49.794" lon="0.6775">
        <ele>107.2</ele>
        <time>2020-06-18T09:32:54Z</time>
      </trkpt>
      <trkpt lat="49.79402" lon="0.67761">
        <ele>107.2</ele>
        <time>2020-06-18T09:32:55Z</time>
      </trkpt>
      <trkpt lat="49.79404" lon="0.67771">
        <ele>107.2</ele>
        <time>2020-06-18T09:32:56Z</time>
      </trkpt>
      <trkpt lat="49.79404" lon="0.67782">
        <ele>107.2</ele>
        <time>2020-06-18T09:32:57Z</time>
      </trkpt>
      <trkpt lat="49.79405" lon="0.67792">
        <ele>107.2</ele>
        <time>2020-06-18T09:32:58Z</time>
      </trkpt>
      <trkpt lat="49.79407" lon="0.67802">
        <ele>107.2</ele>
        <time>2020-06-18T09:32:59Z</time>
      </trkpt>
      <trkpt lat="49.79409" lon="0.67812">
        <ele>107.2</ele>
        <time>2020-06-18T09:33:00Z</time>
      </trkpt>
      <trkpt lat="49.7941" lon="0.67822">
        <ele>107.2</ele>
        <time>2020-06-18T09:33:01Z</time>
      </trkpt>
      <trkpt lat="49.79412" lon="0.67831">
        <ele>107.1</ele>
        <time>2020-06-18T09:33:02Z</time>
      </trkpt>
      <trkpt lat="49.79413" lon="0.67841">
        <ele>107.1</ele>
        <time>2020-06-18T09:33:03Z</time>
      </trkpt>
      <trkpt lat="49.79415" lon="0.6785">
        <ele>107.1</ele>
        <time>2020-06-18T09:33:04Z</time>
      </trkpt>
      <trkpt lat="49.79417" lon="0.67859">
        <ele>107.1</ele>
        <time>2020-06-18T09:33:05Z</time>
      </trkpt>
      <trkpt lat="49.79419" lon="0.67868">
        <ele>107.1</ele>
        <time>2020-06-18T09:33:06Z</time>
      </trkpt>
      <trkpt lat="49.79421" lon="0.67877">
        <ele>107</ele>
        <time>2020-06-18T09:33:07Z</time>
      </trkpt>
      <trkpt lat="49.79423" lon="0.67886">
        <ele>107</ele>
        <time>2020-06-18T09:33:08Z</time>
      </trkpt>
      <trkpt lat="49.79425" lon="0.67895">
        <ele>107</ele>
        <time>2020-06-18T09:33:09Z</time>
      </trkpt>
      <trkpt lat="49.79426" lon="0.67904">
        <ele>107</ele>
        <time>2020-06-18T09:33:10Z</time>
      </trkpt>
      <trkpt lat="49.79428" lon="0.67913">
        <ele>106.9</ele>
        <time>2020-06-18T09:33:11Z</time>
      </trkpt>
      <trkpt lat="49.7943" lon="0.67922">
        <ele>106.9</ele>
        <time>2020-06-18T09:33:12Z</time>
      </trkpt>
      <trkpt lat="49.79432" lon="0.6793">
        <ele>106.9</ele>
        <time>2020-06-18T09:33:13Z</time>
      </trkpt>
      <trkpt lat="49.79433" lon="0.67939">
        <ele>106.9</ele>
        <time>2020-06-18T09:33:14Z</time>
      </trkpt>
      <trkpt lat="49.79435" lon="0.67947">
        <ele>107</ele>
        <time>2020-06-18T09:33:15Z</time>
      </trkpt>
      <trkpt lat="49.79437" lon="0.67955">
        <ele>107</ele>
        <time>2020-06-18T09:33:16Z</time>
      </trkpt>
      <trkpt lat="49.79439" lon="0.67963">
        <ele>107</ele>
        <time>2020-06-18T09:33:17Z</time>
      </trkpt>
      <trkpt lat="49.79441" lon="0.67971">
        <ele>107</ele>
        <time>2020-06-18T09:33:18Z</time>
      </trkpt>
      <trkpt lat="49.79442" lon="0.67979">
        <ele>107.1</ele>
        <time>2020-06-18T09:33:19Z</time>
      </trkpt>
      <trkpt lat="49.79444" lon="0.67987">
        <ele>107.1</ele>
        <time>2020-06-18T09:33:20Z</time>
      </trkpt>
      <trkpt lat="49.79448" lon="0.67994">
        <ele>107.3</ele>
        <time>2020-06-18T09:33:21Z</time>
      </trkpt>
      <trkpt lat="49.79451" lon="0.68001">
        <ele>107.4</ele>
        <time>2020-06-18T09:33:22Z</time>
      </trkpt>
      <trkpt lat="49.79455" lon="0.68007">
        <ele>107.5</ele>
        <time>2020-06-18T09:33:23Z</time>
      </trkpt>
      <trkpt lat="49.7946" lon="0.68013">
        <ele>107.4</ele>
        <time>2020-06-18T09:33:24Z</time>
      </trkpt>
      <trkpt lat="49.79463" lon="0.6802">
        <ele>107.4</ele>
        <time>2020-06-18T09:33:25Z</time>
      </trkpt>
      <trkpt lat="49.79467" lon="0.68027">
        <ele>107.3</ele>
        <time>2020-06-18T09:33:26Z</time>
      </trkpt>
      <trkpt lat="49.79471" lon="0.68034">
        <ele>107.3</ele>
        <time>2020-06-18T09:33:27Z</time>
      </trkpt>
      <trkpt lat="49.79474" lon="0.68041">
        <ele>107.2</ele>
        <time>2020-06-18T09:33:28Z</time>
      </trkpt>
      <trkpt lat="49.79478" lon="0.68048">
        <ele>107.2</ele>
        <time>2020-06-18T09:33:29Z</time>
      </trkpt>
      <trkpt lat="49.79482" lon="0.68056">
        <ele>107.1</ele>
        <time>2020-06-18T09:33:30Z</time>
      </trkpt>
      <trkpt lat="49.79486" lon="0.68062">
        <ele>107.1</ele>
        <time>2020-06-18T09:33:31Z</time>
      </trkpt>
      <trkpt lat="49.7949" lon="0.6807">
        <ele>107</ele>
        <time>2020-06-18T09:33:32Z</time>
      </trkpt>
      <trkpt lat="49.79494" lon="0.68077">
        <ele>107</ele>
        <time>2020-06-18T09:33:33Z</time>
      </trkpt>
      <trkpt lat="49.79498" lon="0.68084">
        <ele>106.9</ele>
        <time>2020-06-18T09:33:34Z</time>
      </trkpt>
      <trkpt lat="49.79502" lon="0.68092">
        <ele>106.8</ele>
        <time>2020-06-18T09:33:35Z</time>
      </trkpt>
      <trkpt lat="49.79506" lon="0.681">
        <ele>106.7</ele>
        <time>2020-06-18T09:33:36Z</time>
      </trkpt>
      <trkpt lat="49.7951" lon="0.68109">
        <ele>106.6</ele>
        <time>2020-06-18T09:33:37Z</time>
      </trkpt>
      <trkpt lat="49.79514" lon="0.68117">
        <ele>106.5</ele>
        <time>2020-06-18T09:33:38Z</time>
      </trkpt>
      <trkpt lat="49.79518" lon="0.68126">
        <ele>106.4</ele>
        <time>2020-06-18T09:33:39Z</time>
      </trkpt>
      <trkpt lat="49.79522" lon="0.68134">
        <ele>106.3</ele>
        <time>2020-06-18T09:33:40Z</time>
      </trkpt>
      <trkpt lat="49.79526" lon="0.68143">
        <ele>106.2</ele>
        <time>2020-06-18T09:33:41Z</time>
      </trkpt>
      <trkpt lat="49.7953" lon="0.68152">
        <ele>106.2</ele>
        <time>2020-06-18T09:33:42Z</time>
      </trkpt>
      <trkpt lat="49.79534" lon="0.68161">
        <ele>106.1</ele>
        <time>2020-06-18T09:33:43Z</time>
      </trkpt>
      <trkpt lat="49.79537" lon="0.6817">
        <ele>106</ele>
        <time>2020-06-18T09:33:44Z</time>
      </trkpt>
      <trkpt lat="49.79541" lon="0.68178">
        <ele>106</ele>
        <time>2020-06-18T09:33:45Z</time>
      </trkpt>
      <trkpt lat="49.79544" lon="0.68187">
        <ele>105.9</ele>
        <time>2020-06-18T09:33:46Z</time>
      </trkpt>
      <trkpt lat="49.79548" lon="0.68195">
        <ele>105.9</ele>
        <time>2020-06-18T09:33:47Z</time>
      </trkpt>
      <trkpt lat="49.79551" lon="0.68204">
        <ele>105.8</ele>
        <time>2020-06-18T09:33:48Z</time>
      </trkpt>
      <trkpt lat="49.79554" lon="0.68213">
        <ele>105.8</ele>
        <time>2020-06-18T09:33:49Z</time>
      </trkpt>
      <trkpt lat="49.79558" lon="0.68221">
        <ele>105.8</ele>
        <time>2020-06-18T09:33:50Z</time>
      </trkpt>
      <trkpt lat="49.79561" lon="0.68229">
        <ele>105.8</ele>
        <time>2020-06-18T09:33:51Z</time>
      </trkpt>
      <trkpt lat="49.79565" lon="0.68238">
        <ele>105.7</ele>
        <time>2020-06-18T09:33:52Z</time>
      </trkpt>
      <trkpt lat="49.79568" lon="0.68246">
        <ele>105.6</ele>
        <time>2020-06-18T09:33:53Z</time>
      </trkpt>
      <trkpt lat="49.79572" lon="0.68254">
        <ele>105.5</ele>
        <time>2020-06-18T09:33:54Z</time>
      </trkpt>
      <trkpt lat="49.79576" lon="0.68263">
        <ele>105.3</ele>
        <time>2020-06-18T09:33:55Z</time>
      </trkpt>
      <trkpt lat="49.7958" lon="0.68271">
        <ele>105.1</ele>
        <time>2020-06-18T09:33:56Z</time>
      </trkpt>
      <trkpt lat="49.79584" lon="0.6828">
        <ele>105</ele>
        <time>2020-06-18T09:33:57Z</time>
      </trkpt>
      <trkpt lat="49.79588" lon="0.68288">
        <ele>104.9</ele>
        <time>2020-06-18T09:33:58Z</time>
      </trkpt>
      <trkpt lat="49.79592" lon="0.68297">
        <ele>104.8</ele>
        <time>2020-06-18T09:33:59Z</time>
      </trkpt>
      <trkpt lat="49.79596" lon="0.68306">
        <ele>104.7</ele>
        <time>2020-06-18T09:34:00Z</time>
      </trkpt>
      <trkpt lat="49.796" lon="0.68315">
        <ele>104.6</ele>
        <time>2020-06-18T09:34:01Z</time>
      </trkpt>
      <trkpt lat="49.79604" lon="0.68323">
        <ele>104.5</ele>
        <time>2020-06-18T09:34:02Z</time>
      </trkpt>
      <trkpt lat="49.79609" lon="0.68331">
        <ele>104.4</ele>
        <time>2020-06-18T09:34:03Z</time>
      </trkpt>
      <trkpt lat="49.79612" lon="0.6834">
        <ele>104.2</ele>
        <time>2020-06-18T09:34:04Z</time>
      </trkpt>
      <trkpt lat="49.79616" lon="0.68349">
        <ele>104.2</ele>
        <time>2020-06-18T09:34:05Z</time>
      </trkpt>
      <trkpt lat="49.7962" lon="0.68357">
        <ele>104.1</ele>
        <time>2020-06-18T09:34:06Z</time>
      </trkpt>
      <trkpt lat="49.79624" lon="0.68365">
        <ele>103.9</ele>
        <time>2020-06-18T09:34:07Z</time>
      </trkpt>
      <trkpt lat="49.79628" lon="0.68373">
        <ele>103.8</ele>
        <time>2020-06-18T09:34:08Z</time>
      </trkpt>
      <trkpt lat="49.79632" lon="0.68381">
        <ele>103.6</ele>
        <time>2020-06-18T09:34:09Z</time>
      </trkpt>
      <trkpt lat="49.79635" lon="0.6839">
        <ele>103.5</ele>
        <time>2020-06-18T09:34:10Z</time>
      </trkpt>
      <trkpt lat="49.79638" lon="0.68399">
        <ele>103.4</ele>
        <time>2020-06-18T09:34:11Z</time>
      </trkpt>
      <trkpt lat="49.79641" lon="0.68408">
        <ele>103.3</ele>
        <time>2020-06-18T09:34:12Z</time>
      </trkpt>
      <trkpt lat="49.79644" lon="0.68416">
        <ele>103.3</ele>
        <time>2020-06-18T09:34:13Z</time>
      </trkpt>
      <trkpt lat="49.79647" lon="0.68425">
        <ele>103.2</ele>
        <time>2020-06-18T09:34:14Z</time>
      </trkpt>
      <trkpt lat="49.79649" lon="0.68434">
        <ele>103.1</ele>
        <time>2020-06-18T09:34:15Z</time>
      </trkpt>
      <trkpt lat="49.79651" lon="0.68444">
        <ele>103.1</ele>
        <time>2020-06-18T09:34:16Z</time>
      </trkpt>
      <trkpt lat="49.79654" lon="0.68453">
        <ele>103</ele>
        <time>2020-06-18T09:34:17Z</time>
      </trkpt>
      <trkpt lat="49.79656" lon="0.68462">
        <ele>103</ele>
        <time>2020-06-18T09:34:18Z</time>
      </trkpt>
      <trkpt lat="49.79658" lon="0.68472">
        <ele>102.9</ele>
        <time>2020-06-18T09:34:19Z</time>
      </trkpt>
      <trkpt lat="49.79659" lon="0.68481">
        <ele>102.9</ele>
        <time>2020-06-18T09:34:20Z</time>
      </trkpt>
      <trkpt lat="49.79661" lon="0.6849">
        <ele>102.8</ele>
        <time>2020-06-18T09:34:21Z</time>
      </trkpt>
      <trkpt lat="49.79663" lon="0.68499">
        <ele>102.7</ele>
        <time>2020-06-18T09:34:22Z</time>
      </trkpt>
      <trkpt lat="49.79665" lon="0.68508">
        <ele>102.7</ele>
        <time>2020-06-18T09:34:23Z</time>
      </trkpt>
      <trkpt lat="49.79667" lon="0.68517">
        <ele>102.6</ele>
        <time>2020-06-18T09:34:24Z</time>
      </trkpt>
      <trkpt lat="49.79669" lon="0.68525">
        <ele>102.6</ele>
        <time>2020-06-18T09:34:25Z</time>
      </trkpt>
      <trkpt lat="49.79671" lon="0.68533">
        <ele>102.7</ele>
        <time>2020-06-18T09:34:26Z</time>
      </trkpt>
      <trkpt lat="49.79674" lon="0.68541">
        <ele>102.8</ele>
        <time>2020-06-18T09:34:27Z</time>
      </trkpt>
      <trkpt lat="49.79676" lon="0.68548">
        <ele>102.9</ele>
        <time>2020-06-18T09:34:28Z</time>
      </trkpt>
      <trkpt lat="49.79678" lon="0.68555">
        <ele>103</ele>
        <time>2020-06-18T09:34:29Z</time>
      </trkpt>
      <trkpt lat="49.79681" lon="0.68563">
        <ele>103.1</ele>
        <time>2020-06-18T09:34:30Z</time>
      </trkpt>
      <trkpt lat="49.79682" lon="0.68571">
        <ele>103.2</ele>
        <time>2020-06-18T09:34:31Z</time>
      </trkpt>
      <trkpt lat="49.79684" lon="0.68579">
        <ele>103.3</ele>
        <time>2020-06-18T09:34:32Z</time>
      </trkpt>
      <trkpt lat="49.79685" lon="0.68586">
        <ele>103.2</ele>
        <time>2020-06-18T09:34:33Z</time>
      </trkpt>
      <trkpt lat="49.79686" lon="0.68593">
        <ele>103.2</ele>
        <time>2020-06-18T09:34:34Z</time>
      </trkpt>
      <trkpt lat="49.79688" lon="0.68599">
        <ele>103.2</ele>
        <time>2020-06-18T09:34:35Z</time>
      </trkpt>
      <trkpt lat="49.79691" lon="0.68604">
        <ele>103.2</ele>
        <time>2020-06-18T09:34:36Z</time>
      </trkpt>
      <trkpt lat="49.79696" lon="0.68608">
        <ele>103.2</ele>
        <time>2020-06-18T09:34:37Z</time>
      </trkpt>
      <trkpt lat="49.79701" lon="0.68613">
        <ele>103.2</ele>
        <time>2020-06-18T09:34:38Z</time>
      </trkpt>
      <trkpt lat="49.79705" lon="0.68619">
        <ele>103.2</ele>
        <time>2020-06-18T09:34:39Z</time>
      </trkpt>
      <trkpt lat="49.7971" lon="0.68625">
        <ele>103.2</ele>
        <time>2020-06-18T09:34:40Z</time>
      </trkpt>
      <trkpt lat="49.79713" lon="0.68633">
        <ele>103.2</ele>
        <time>2020-06-18T09:34:41Z</time>
      </trkpt>
      <trkpt lat="49.79717" lon="0.6864">
        <ele>103.2</ele>
        <time>2020-06-18T09:34:42Z</time>
      </trkpt>
      <trkpt lat="49.79721" lon="0.68646">
        <ele>103.2</ele>
        <time>2020-06-18T09:34:43Z</time>
      </trkpt>
      <trkpt lat="49.79725" lon="0.68654">
        <ele>103.3</ele>
        <time>2020-06-18T09:34:44Z</time>
      </trkpt>
      <trkpt lat="49.79729" lon="0.68661">
        <ele>103.3</ele>
        <time>2020-06-18T09:34:45Z</time>
      </trkpt>
      <trkpt lat="49.79733" lon="0.68668">
        <ele>103.4</ele>
        <time>2020-06-18T09:34:46Z</time>
      </trkpt>
      <trkpt lat="49.79738" lon="0.68674">
        <ele>103.4</ele>
        <time>2020-06-18T09:34:47Z</time>
      </trkpt>
      <trkpt lat="49.79742" lon="0.68681">
        <ele>103.5</ele>
        <time>2020-06-18T09:34:48Z</time>
      </trkpt>
      <trkpt lat="49.79746" lon="0.68687">
        <ele>103.5</ele>
        <time>2020-06-18T09:34:49Z</time>
      </trkpt>
      <trkpt lat="49.79751" lon="0.68693">
        <ele>103.6</ele>
        <time>2020-06-18T09:34:50Z</time>
      </trkpt>
      <trkpt lat="49.79755" lon="0.687">
        <ele>103.6</ele>
        <time>2020-06-18T09:34:51Z</time>
      </trkpt>
      <trkpt lat="49.7976" lon="0.68707">
        <ele>103.6</ele>
        <time>2020-06-18T09:34:52Z</time>
      </trkpt>
      <trkpt lat="49.79765" lon="0.68713">
        <ele>103.7</ele>
        <time>2020-06-18T09:34:53Z</time>
      </trkpt>
      <trkpt lat="49.7977" lon="0.6872">
        <ele>103.7</ele>
        <time>2020-06-18T09:34:54Z</time>
      </trkpt>
      <trkpt lat="49.79774" lon="0.68726">
        <ele>103.7</ele>
        <time>2020-06-18T09:34:55Z</time>
      </trkpt>
      <trkpt lat="49.79779" lon="0.68733">
        <ele>103.8</ele>
        <time>2020-06-18T09:34:56Z</time>
      </trkpt>
      <trkpt lat="49.79783" lon="0.6874">
        <ele>103.8</ele>
        <time>2020-06-18T09:34:57Z</time>
      </trkpt>
      <trkpt lat="49.79788" lon="0.68747">
        <ele>103.9</ele>
        <time>2020-06-18T09:34:58Z</time>
      </trkpt>
      <trkpt lat="49.79793" lon="0.68753">
        <ele>103.9</ele>
        <time>2020-06-18T09:34:59Z</time>
      </trkpt>
      <trkpt lat="49.79798" lon="0.6876">
        <ele>104</ele>
        <time>2020-06-18T09:35:00Z</time>
      </trkpt>
      <trkpt lat="49.79802" lon="0.68766">
        <ele>104</ele>
        <time>2020-06-18T09:35:01Z</time>
      </trkpt>
      <trkpt lat="49.79806" lon="0.68774">
        <ele>104.1</ele>
        <time>2020-06-18T09:35:02Z</time>
      </trkpt>
      <trkpt lat="49.79811" lon="0.68781">
        <ele>104.1</ele>
        <time>2020-06-18T09:35:03Z</time>
      </trkpt>
      <trkpt lat="49.79816" lon="0.68789">
        <ele>104.1</ele>
        <time>2020-06-18T09:35:04Z</time>
      </trkpt>
      <trkpt lat="49.7982" lon="0.68797">
        <ele>104</ele>
        <time>2020-06-18T09:35:05Z</time>
      </trkpt>
      <trkpt lat="49.79825" lon="0.68804">
        <ele>103.9</ele>
        <time>2020-06-18T09:35:06Z</time>
      </trkpt>
      <trkpt lat="49.7983" lon="0.68811">
        <ele>103.9</ele>
        <time>2020-06-18T09:35:07Z</time>
      </trkpt>
      <trkpt lat="49.79835" lon="0.68818">
        <ele>103.8</ele>
        <time>2020-06-18T09:35:08Z</time>
      </trkpt>
      <trkpt lat="49.7984" lon="0.68825">
        <ele>103.8</ele>
        <time>2020-06-18T09:35:09Z</time>
      </trkpt>
      <trkpt lat="49.79844" lon="0.68832">
        <ele>103.9</ele>
        <time>2020-06-18T09:35:10Z</time>
      </trkpt>
      <trkpt lat="49.79848" lon="0.68838">
        <ele>103.9</ele>
        <time>2020-06-18T09:35:11Z</time>
      </trkpt>
      <trkpt lat="49.79852" lon="0.68845">
        <ele>103.9</ele>
        <time>2020-06-18T09:35:12Z</time>
      </trkpt>
      <trkpt lat="49.79856" lon="0.68852">
        <ele>103.9</ele>
        <time>2020-06-18T09:35:13Z</time>
      </trkpt>
      <trkpt lat="49.7986" lon="0.68858">
        <ele>103.9</ele>
        <time>2020-06-18T09:35:14Z</time>
      </trkpt>
      <trkpt lat="49.79864" lon="0.68864">
        <ele>103.9</ele>
        <time>2020-06-18T09:35:15Z</time>
      </trkpt>
      <trkpt lat="49.79868" lon="0.68871">
        <ele>103.9</ele>
        <time>2020-06-18T09:35:16Z</time>
      </trkpt>
      <trkpt lat="49.79871" lon="0.68878">
        <ele>103.9</ele>
        <time>2020-06-18T09:35:17Z</time>
      </trkpt>
      <trkpt lat="49.79875" lon="0.68885">
        <ele>103.9</ele>
        <time>2020-06-18T09:35:18Z</time>
      </trkpt>
      <trkpt lat="49.79878" lon="0.68892">
        <ele>103.9</ele>
        <time>2020-06-18T09:35:19Z</time>
      </trkpt>
      <trkpt lat="49.79882" lon="0.68899">
        <ele>103.9</ele>
        <time>2020-06-18T09:35:20Z</time>
      </trkpt>
      <trkpt lat="49.79886" lon="0.68905">
        <ele>103.9</ele>
        <time>2020-06-18T09:35:21Z</time>
      </trkpt>
      <trkpt lat="49.79889" lon="0.68913">
        <ele>103.9</ele>
        <time>2020-06-18T09:35:22Z</time>
      </trkpt>
      <trkpt lat="49.79893" lon="0.68919">
        <ele>104</ele>
        <time>2020-06-18T09:35:23Z</time>
      </trkpt>
      <trkpt lat="49.79896" lon="0.68927">
        <ele>104</ele>
        <time>2020-06-18T09:35:24Z</time>
      </trkpt>
      <trkpt lat="49.79898" lon="0.68934">
        <ele>104.1</ele>
        <time>2020-06-18T09:35:25Z</time>
      </trkpt>
      <trkpt lat="49.79901" lon="0.6894">
        <ele>104.1</ele>
        <time>2020-06-18T09:35:26Z</time>
      </trkpt>
      <trkpt lat="49.79905" lon="0.68946">
        <ele>104.1</ele>
        <time>2020-06-18T09:35:27Z</time>
      </trkpt>
      <trkpt lat="49.79908" lon="0.68951">
        <ele>104</ele>
        <time>2020-06-18T09:35:28Z</time>
      </trkpt>
      <trkpt lat="49.79911" lon="0.68957">
        <ele>103.9</ele>
        <time>2020-06-18T09:35:29Z</time>
      </trkpt>
      <trkpt lat="49.79914" lon="0.68963">
        <ele>103.9</ele>
        <time>2020-06-18T09:35:30Z</time>
      </trkpt>
      <trkpt lat="49.79917" lon="0.68968">
        <ele>103.9</ele>
        <time>2020-06-18T09:35:31Z</time>
      </trkpt>
      <trkpt lat="49.7992" lon="0.68974">
        <ele>103.8</ele>
        <time>2020-06-18T09:35:32Z</time>
      </trkpt>
      <trkpt lat="49.79923" lon="0.68981">
        <ele>103.8</ele>
        <time>2020-06-18T09:35:33Z</time>
      </trkpt>
      <trkpt lat="49.79927" lon="0.68988">
        <ele>103.8</ele>
        <time>2020-06-18T09:35:34Z</time>
      </trkpt>
      <trkpt lat="49.7993" lon="0.68995">
        <ele>103.8</ele>
        <time>2020-06-18T09:35:35Z</time>
      </trkpt>
      <trkpt lat="49.79933" lon="0.69002">
        <ele>103.8</ele>
        <time>2020-06-18T09:35:36Z</time>
      </trkpt>
      <trkpt lat="49.79936" lon="0.69009">
        <ele>103.8</ele>
        <time>2020-06-18T09:35:37Z</time>
      </trkpt>
      <trkpt lat="49.79939" lon="0.69016">
        <ele>103.8</ele>
        <time>2020-06-18T09:35:38Z</time>
      </trkpt>
      <trkpt lat="49.79942" lon="0.69024">
        <ele>103.8</ele>
        <time>2020-06-18T09:35:39Z</time>
      </trkpt>
      <trkpt lat="49.79946" lon="0.69031">
        <ele>103.8</ele>
        <time>2020-06-18T09:35:40Z</time>
      </trkpt>
      <trkpt lat="49.7995" lon="0.69038">
        <ele>103.8</ele>
        <time>2020-06-18T09:35:41Z</time>
      </trkpt>
      <trkpt lat="49.79953" lon="0.69046">
        <ele>103.8</ele>
        <time>2020-06-18T09:35:42Z</time>
      </trkpt>
      <trkpt lat="49.79954" lon="0.69056">
        <ele>103.8</ele>
        <time>2020-06-18T09:35:43Z</time>
      </trkpt>
      <trkpt lat="49.79957" lon="0.69064">
        <ele>103.8</ele>
        <time>2020-06-18T09:35:44Z</time>
      </trkpt>
      <trkpt lat="49.7996" lon="0.69073">
        <ele>103.8</ele>
        <time>2020-06-18T09:35:45Z</time>
      </trkpt>
      <trkpt lat="49.79962" lon="0.69083">
        <ele>103.8</ele>
        <time>2020-06-18T09:35:46Z</time>
      </trkpt>
      <trkpt lat="49.79965" lon="0.69092">
        <ele>103.8</ele>
        <time>2020-06-18T09:35:47Z</time>
      </trkpt>
      <trkpt lat="49.79969" lon="0.691">
        <ele>103.8</ele>
        <time>2020-06-18T09:35:48Z</time>
      </trkpt>
      <trkpt lat="49.79972" lon="0.69108">
        <ele>103.9</ele>
        <time>2020-06-18T09:35:49Z</time>
      </trkpt>
      <trkpt lat="49.79975" lon="0.69116">
        <ele>103.9</ele>
        <time>2020-06-18T09:35:50Z</time>
      </trkpt>
      <trkpt lat="49.79978" lon="0.69125">
        <ele>104</ele>
        <time>2020-06-18T09:35:51Z</time>
      </trkpt>
      <trkpt lat="49.7998" lon="0.69132">
        <ele>104.1</ele>
        <time>2020-06-18T09:35:52Z</time>
      </trkpt>
      <trkpt lat="49.79983" lon="0.69141">
        <ele>104.1</ele>
        <time>2020-06-18T09:35:53Z</time>
      </trkpt>
      <trkpt lat="49.79986" lon="0.6915">
        <ele>104.2</ele>
        <time>2020-06-18T09:35:54Z</time>
      </trkpt>
      <trkpt lat="49.7999" lon="0.69159">
        <ele>104.2</ele>
        <time>2020-06-18T09:35:55Z</time>
      </trkpt>
      <trkpt lat="49.79994" lon="0.6917">
        <ele>104.3</ele>
        <time>2020-06-18T09:35:56Z</time>
      </trkpt>
      <trkpt lat="49.79998" lon="0.6918">
        <ele>104.3</ele>
        <time>2020-06-18T09:35:57Z</time>
      </trkpt>
      <trkpt lat="49.80001" lon="0.69188">
        <ele>104.3</ele>
        <time>2020-06-18T09:35:58Z</time>
      </trkpt>
      <trkpt lat="49.80004" lon="0.69196">
        <ele>104.3</ele>
        <time>2020-06-18T09:35:59Z</time>
      </trkpt>
      <trkpt lat="49.80007" lon="0.69205">
        <ele>104.3</ele>
        <time>2020-06-18T09:36:00Z</time>
      </trkpt>
      <trkpt lat="49.80011" lon="0.69214">
        <ele>104.2</ele>
        <time>2020-06-18T09:36:01Z</time>
      </trkpt>
      <trkpt lat="49.80012" lon="0.69223">
        <ele>104.2</ele>
        <time>2020-06-18T09:36:02Z</time>
      </trkpt>
      <trkpt lat="49.80016" lon="0.69233">
        <ele>104.1</ele>
        <time>2020-06-18T09:36:03Z</time>
      </trkpt>
      <trkpt lat="49.80018" lon="0.69241">
        <ele>104</ele>
        <time>2020-06-18T09:36:04Z</time>
      </trkpt>
      <trkpt lat="49.80018" lon="0.69246">
        <ele>103.9</ele>
        <time>2020-06-18T09:36:05Z</time>
      </trkpt>
      <trkpt lat="49.8002" lon="0.69254">
        <ele>103.8</ele>
        <time>2020-06-18T09:36:06Z</time>
      </trkpt>
      <trkpt lat="49.80023" lon="0.69263">
        <ele>103.7</ele>
        <time>2020-06-18T09:36:07Z</time>
      </trkpt>
      <trkpt lat="49.80026" lon="0.69271">
        <ele>103.6</ele>
        <time>2020-06-18T09:36:08Z</time>
      </trkpt>
      <trkpt lat="49.80029" lon="0.69281">
        <ele>103.6</ele>
        <time>2020-06-18T09:36:09Z</time>
      </trkpt>
      <trkpt lat="49.80032" lon="0.69289">
        <ele>103.5</ele>
        <time>2020-06-18T09:36:10Z</time>
      </trkpt>
      <trkpt lat="49.80035" lon="0.69297">
        <ele>103.5</ele>
        <time>2020-06-18T09:36:11Z</time>
      </trkpt>
      <trkpt lat="49.80038" lon="0.69305">
        <ele>103.4</ele>
        <time>2020-06-18T09:36:12Z</time>
      </trkpt>
      <trkpt lat="49.8004" lon="0.69315">
        <ele>103.3</ele>
        <time>2020-06-18T09:36:13Z</time>
      </trkpt>
      <trkpt lat="49.80042" lon="0.69324">
        <ele>103.2</ele>
        <time>2020-06-18T09:36:14Z</time>
      </trkpt>
      <trkpt lat="49.80045" lon="0.69333">
        <ele>103.1</ele>
        <time>2020-06-18T09:36:15Z</time>
      </trkpt>
      <trkpt lat="49.80048" lon="0.69342">
        <ele>102.9</ele>
        <time>2020-06-18T09:36:16Z</time>
      </trkpt>
      <trkpt lat="49.80051" lon="0.69351">
        <ele>102.8</ele>
        <time>2020-06-18T09:36:17Z</time>
      </trkpt>
      <trkpt lat="49.80054" lon="0.6936">
        <ele>102.6</ele>
        <time>2020-06-18T09:36:18Z</time>
      </trkpt>
      <trkpt lat="49.80056" lon="0.6937">
        <ele>102.5</ele>
        <time>2020-06-18T09:36:19Z</time>
      </trkpt>
      <trkpt lat="49.80059" lon="0.69381">
        <ele>102.3</ele>
        <time>2020-06-18T09:36:20Z</time>
      </trkpt>
      <trkpt lat="49.80062" lon="0.69392">
        <ele>102.1</ele>
        <time>2020-06-18T09:36:21Z</time>
      </trkpt>
      <trkpt lat="49.80065" lon="0.69403">
        <ele>101.9</ele>
        <time>2020-06-18T09:36:22Z</time>
      </trkpt>
      <trkpt lat="49.80069" lon="0.69413">
        <ele>101.8</ele>
        <time>2020-06-18T09:36:23Z</time>
      </trkpt>
      <trkpt lat="49.80074" lon="0.69422">
        <ele>101.6</ele>
        <time>2020-06-18T09:36:24Z</time>
      </trkpt>
      <trkpt lat="49.80078" lon="0.69431">
        <ele>101.4</ele>
        <time>2020-06-18T09:36:25Z</time>
      </trkpt>
      <trkpt lat="49.80081" lon="0.69441">
        <ele>101.3</ele>
        <time>2020-06-18T09:36:26Z</time>
      </trkpt>
      <trkpt lat="49.80085" lon="0.69451">
        <ele>101.1</ele>
        <time>2020-06-18T09:36:27Z</time>
      </trkpt>
      <trkpt lat="49.80088" lon="0.6946">
        <ele>101</ele>
        <time>2020-06-18T09:36:28Z</time>
      </trkpt>
      <trkpt lat="49.80092" lon="0.6947">
        <ele>100.9</ele>
        <time>2020-06-18T09:36:29Z</time>
      </trkpt>
      <trkpt lat="49.80096" lon="0.69479">
        <ele>100.7</ele>
        <time>2020-06-18T09:36:30Z</time>
      </trkpt>
      <trkpt lat="49.80099" lon="0.69489">
        <ele>100.6</ele>
        <time>2020-06-18T09:36:31Z</time>
      </trkpt>
      <trkpt lat="49.80102" lon="0.69499">
        <ele>100.6</ele>
        <time>2020-06-18T09:36:32Z</time>
      </trkpt>
      <trkpt lat="49.80105" lon="0.6951">
        <ele>100.5</ele>
        <time>2020-06-18T09:36:33Z</time>
      </trkpt>
      <trkpt lat="49.80108" lon="0.6952">
        <ele>100.4</ele>
        <time>2020-06-18T09:36:34Z</time>
      </trkpt>
      <trkpt lat="49.8011" lon="0.6953">
        <ele>100.3</ele>
        <time>2020-06-18T09:36:35Z</time>
      </trkpt>
      <trkpt lat="49.80113" lon="0.69541">
        <ele>100.2</ele>
        <time>2020-06-18T09:36:36Z</time>
      </trkpt>
      <trkpt lat="49.80115" lon="0.69551">
        <ele>100.1</ele>
        <time>2020-06-18T09:36:37Z</time>
      </trkpt>
      <trkpt lat="49.80117" lon="0.69562">
        <ele>100</ele>
        <time>2020-06-18T09:36:38Z</time>
      </trkpt>
      <trkpt lat="49.80119" lon="0.69572">
        <ele>100</ele>
        <time>2020-06-18T09:36:39Z</time>
      </trkpt>
      <trkpt lat="49.80121" lon="0.69583">
        <ele>99.9</ele>
        <time>2020-06-18T09:36:40Z</time>
      </trkpt>
      <trkpt lat="49.80122" lon="0.69593">
        <ele>99.8</ele>
        <time>2020-06-18T09:36:41Z</time>
      </trkpt>
      <trkpt lat="49.80124" lon="0.69604">
        <ele>99.8</ele>
        <time>2020-06-18T09:36:42Z</time>
      </trkpt>
      <trkpt lat="49.80126" lon="0.69614">
        <ele>99.7</ele>
        <time>2020-06-18T09:36:43Z</time>
      </trkpt>
      <trkpt lat="49.80127" lon="0.69625">
        <ele>99.6</ele>
        <time>2020-06-18T09:36:44Z</time>
      </trkpt>
      <trkpt lat="49.80129" lon="0.69635">
        <ele>99.6</ele>
        <time>2020-06-18T09:36:45Z</time>
      </trkpt>
      <trkpt lat="49.8013" lon="0.69645">
        <ele>99.5</ele>
        <time>2020-06-18T09:36:46Z</time>
      </trkpt>
      <trkpt lat="49.80132" lon="0.69656">
        <ele>99.5</ele>
        <time>2020-06-18T09:36:47Z</time>
      </trkpt>
      <trkpt lat="49.80133" lon="0.69665">
        <ele>99.5</ele>
        <time>2020-06-18T09:36:48Z</time>
      </trkpt>
      <trkpt lat="49.80135" lon="0.69675">
        <ele>99.4</ele>
        <time>2020-06-18T09:36:49Z</time>
      </trkpt>
      <trkpt lat="49.80136" lon="0.69685">
        <ele>99.4</ele>
        <time>2020-06-18T09:36:50Z</time>
      </trkpt>
      <trkpt lat="49.80138" lon="0.69694">
        <ele>99.4</ele>
        <time>2020-06-18T09:36:51Z</time>
      </trkpt>
      <trkpt lat="49.80139" lon="0.69702">
        <ele>99.3</ele>
        <time>2020-06-18T09:36:52Z</time>
      </trkpt>
      <trkpt lat="49.80141" lon="0.69709">
        <ele>99.2</ele>
        <time>2020-06-18T09:36:53Z</time>
      </trkpt>
      <trkpt lat="49.80143" lon="0.69716">
        <ele>99.2</ele>
        <time>2020-06-18T09:36:54Z</time>
      </trkpt>
      <trkpt lat="49.80144" lon="0.69724">
        <ele>99.1</ele>
        <time>2020-06-18T09:36:55Z</time>
      </trkpt>
      <trkpt lat="49.80145" lon="0.69732">
        <ele>99.1</ele>
        <time>2020-06-18T09:36:56Z</time>
      </trkpt>
      <trkpt lat="49.80145" lon="0.6974">
        <ele>99</ele>
        <time>2020-06-18T09:36:57Z</time>
      </trkpt>
      <trkpt lat="49.80147" lon="0.69749">
        <ele>99</ele>
        <time>2020-06-18T09:36:58Z</time>
      </trkpt>
      <trkpt lat="49.80149" lon="0.69758">
        <ele>98.6</ele>
        <time>2020-06-18T09:36:59Z</time>
      </trkpt>
      <trkpt lat="49.80152" lon="0.69767">
        <ele>98.3</ele>
        <time>2020-06-18T09:37:00Z</time>
      </trkpt>
      <trkpt lat="49.80154" lon="0.69776">
        <ele>98.1</ele>
        <time>2020-06-18T09:37:01Z</time>
      </trkpt>
      <trkpt lat="49.80157" lon="0.69786">
        <ele>97.9</ele>
        <time>2020-06-18T09:37:02Z</time>
      </trkpt>
      <trkpt lat="49.80158" lon="0.69797">
        <ele>97.7</ele>
        <time>2020-06-18T09:37:03Z</time>
      </trkpt>
      <trkpt lat="49.8016" lon="0.69808">
        <ele>97.6</ele>
        <time>2020-06-18T09:37:04Z</time>
      </trkpt>
      <trkpt lat="49.80161" lon="0.6982">
        <ele>97.5</ele>
        <time>2020-06-18T09:37:05Z</time>
      </trkpt>
      <trkpt lat="49.80163" lon="0.69831">
        <ele>97.4</ele>
        <time>2020-06-18T09:37:06Z</time>
      </trkpt>
      <trkpt lat="49.80164" lon="0.69841">
        <ele>97.3</ele>
        <time>2020-06-18T09:37:07Z</time>
      </trkpt>
      <trkpt lat="49.80166" lon="0.69853">
        <ele>97.2</ele>
        <time>2020-06-18T09:37:08Z</time>
      </trkpt>
      <trkpt lat="49.80167" lon="0.69863">
        <ele>97.1</ele>
        <time>2020-06-18T09:37:09Z</time>
      </trkpt>
      <trkpt lat="49.80168" lon="0.69874">
        <ele>97</ele>
        <time>2020-06-18T09:37:10Z</time>
      </trkpt>
      <trkpt lat="49.80169" lon="0.69884">
        <ele>96.9</ele>
        <time>2020-06-18T09:37:11Z</time>
      </trkpt>
      <trkpt lat="49.8017" lon="0.69895">
        <ele>96.8</ele>
        <time>2020-06-18T09:37:12Z</time>
      </trkpt>
      <trkpt lat="49.80171" lon="0.69905">
        <ele>96.7</ele>
        <time>2020-06-18T09:37:13Z</time>
      </trkpt>
      <trkpt lat="49.80171" lon="0.69916">
        <ele>96.7</ele>
        <time>2020-06-18T09:37:14Z</time>
      </trkpt>
      <trkpt lat="49.80171" lon="0.69927">
        <ele>96.6</ele>
        <time>2020-06-18T09:37:15Z</time>
      </trkpt>
      <trkpt lat="49.80171" lon="0.69937">
        <ele>96.5</ele>
        <time>2020-06-18T09:37:16Z</time>
      </trkpt>
      <trkpt lat="49.80172" lon="0.69948">
        <ele>96.5</ele>
        <time>2020-06-18T09:37:17Z</time>
      </trkpt>
      <trkpt lat="49.80172" lon="0.69959">
        <ele>96.4</ele>
        <time>2020-06-18T09:37:18Z</time>
      </trkpt>
      <trkpt lat="49.80173" lon="0.6997">
        <ele>96.3</ele>
        <time>2020-06-18T09:37:19Z</time>
      </trkpt>
      <trkpt lat="49.80173" lon="0.69981">
        <ele>96.2</ele>
        <time>2020-06-18T09:37:20Z</time>
      </trkpt>
      <trkpt lat="49.80174" lon="0.69992">
        <ele>96.2</ele>
        <time>2020-06-18T09:37:21Z</time>
      </trkpt>
      <trkpt lat="49.80175" lon="0.70003">
        <ele>96.2</ele>
        <time>2020-06-18T09:37:22Z</time>
      </trkpt>
      <trkpt lat="49.80176" lon="0.70014">
        <ele>96.1</ele>
        <time>2020-06-18T09:37:23Z</time>
      </trkpt>
      <trkpt lat="49.80176" lon="0.70025">
        <ele>96</ele>
        <time>2020-06-18T09:37:24Z</time>
      </trkpt>
      <trkpt lat="49.80177" lon="0.70036">
        <ele>96</ele>
        <time>2020-06-18T09:37:25Z</time>
      </trkpt>
      <trkpt lat="49.80178" lon="0.70048">
        <ele>96</ele>
        <time>2020-06-18T09:37:26Z</time>
      </trkpt>
      <trkpt lat="49.80179" lon="0.70059">
        <ele>96</ele>
        <time>2020-06-18T09:37:27Z</time>
      </trkpt>
      <trkpt lat="49.80179" lon="0.7007">
        <ele>96</ele>
        <time>2020-06-18T09:37:28Z</time>
      </trkpt>
      <trkpt lat="49.8018" lon="0.70081">
        <ele>95.9</ele>
        <time>2020-06-18T09:37:29Z</time>
      </trkpt>
      <trkpt lat="49.80181" lon="0.70092">
        <ele>95.8</ele>
        <time>2020-06-18T09:37:30Z</time>
      </trkpt>
      <trkpt lat="49.80182" lon="0.70104">
        <ele>95.8</ele>
        <time>2020-06-18T09:37:31Z</time>
      </trkpt>
      <trkpt lat="49.80182" lon="0.70115">
        <ele>95.7</ele>
        <time>2020-06-18T09:37:32Z</time>
      </trkpt>
      <trkpt lat="49.80182" lon="0.70126">
        <ele>95.7</ele>
        <time>2020-06-18T09:37:33Z</time>
      </trkpt>
      <trkpt lat="49.80182" lon="0.70138">
        <ele>95.7</ele>
        <time>2020-06-18T09:37:34Z</time>
      </trkpt>
      <trkpt lat="49.80183" lon="0.70149">
        <ele>95.7</ele>
        <time>2020-06-18T09:37:35Z</time>
      </trkpt>
      <trkpt lat="49.80184" lon="0.7016">
        <ele>95.8</ele>
        <time>2020-06-18T09:37:36Z</time>
      </trkpt>
      <trkpt lat="49.80184" lon="0.70171">
        <ele>95.9</ele>
        <time>2020-06-18T09:37:37Z</time>
      </trkpt>
      <trkpt lat="49.80185" lon="0.70182">
        <ele>96</ele>
        <time>2020-06-18T09:37:38Z</time>
      </trkpt>
      <trkpt lat="49.80185" lon="0.70193">
        <ele>96</ele>
        <time>2020-06-18T09:37:39Z</time>
      </trkpt>
      <trkpt lat="49.80186" lon="0.70204">
        <ele>96.1</ele>
        <time>2020-06-18T09:37:40Z</time>
      </trkpt>
      <trkpt lat="49.80186" lon="0.70215">
        <ele>96.2</ele>
        <time>2020-06-18T09:37:41Z</time>
      </trkpt>
      <trkpt lat="49.80186" lon="0.70225">
        <ele>96.2</ele>
        <time>2020-06-18T09:37:42Z</time>
      </trkpt>
      <trkpt lat="49.80187" lon="0.70236">
        <ele>96.3</ele>
        <time>2020-06-18T09:37:43Z</time>
      </trkpt>
      <trkpt lat="49.80187" lon="0.70246">
        <ele>96.3</ele>
        <time>2020-06-18T09:37:44Z</time>
      </trkpt>
      <trkpt lat="49.80188" lon="0.70256">
        <ele>96.4</ele>
        <time>2020-06-18T09:37:45Z</time>
      </trkpt>
      <trkpt lat="49.80189" lon="0.70267">
        <ele>96.5</ele>
        <time>2020-06-18T09:37:46Z</time>
      </trkpt>
      <trkpt lat="49.80189" lon="0.70277">
        <ele>96.5</ele>
        <time>2020-06-18T09:37:47Z</time>
      </trkpt>
      <trkpt lat="49.8019" lon="0.70287">
        <ele>96.5</ele>
        <time>2020-06-18T09:37:48Z</time>
      </trkpt>
      <trkpt lat="49.80189" lon="0.70298">
        <ele>96.6</ele>
        <time>2020-06-18T09:37:49Z</time>
      </trkpt>
      <trkpt lat="49.80189" lon="0.70308">
        <ele>96.6</ele>
        <time>2020-06-18T09:37:50Z</time>
      </trkpt>
      <trkpt lat="49.8019" lon="0.70318">
        <ele>96.7</ele>
        <time>2020-06-18T09:37:51Z</time>
      </trkpt>
      <trkpt lat="49.8019" lon="0.70328">
        <ele>96.8</ele>
        <time>2020-06-18T09:37:52Z</time>
      </trkpt>
      <trkpt lat="49.80191" lon="0.70338">
        <ele>96.8</ele>
        <time>2020-06-18T09:37:53Z</time>
      </trkpt>
      <trkpt lat="49.8019" lon="0.70348">
        <ele>96.9</ele>
        <time>2020-06-18T09:37:54Z</time>
      </trkpt>
      <trkpt lat="49.8019" lon="0.70358">
        <ele>97</ele>
        <time>2020-06-18T09:37:55Z</time>
      </trkpt>
      <trkpt lat="49.80191" lon="0.70368">
        <ele>97</ele>
        <time>2020-06-18T09:37:56Z</time>
      </trkpt>
      <trkpt lat="49.80191" lon="0.70378">
        <ele>97.1</ele>
        <time>2020-06-18T09:37:57Z</time>
      </trkpt>
      <trkpt lat="49.8019" lon="0.70387">
        <ele>97.1</ele>
        <time>2020-06-18T09:37:58Z</time>
      </trkpt>
      <trkpt lat="49.8019" lon="0.70397">
        <ele>97.2</ele>
        <time>2020-06-18T09:37:59Z</time>
      </trkpt>
      <trkpt lat="49.8019" lon="0.70406">
        <ele>97.2</ele>
        <time>2020-06-18T09:38:00Z</time>
      </trkpt>
      <trkpt lat="49.80189" lon="0.70416">
        <ele>97.3</ele>
        <time>2020-06-18T09:38:01Z</time>
      </trkpt>
      <trkpt lat="49.80189" lon="0.70425">
        <ele>97.3</ele>
        <time>2020-06-18T09:38:02Z</time>
      </trkpt>
      <trkpt lat="49.80189" lon="0.70435">
        <ele>97.4</ele>
        <time>2020-06-18T09:38:03Z</time>
      </trkpt>
      <trkpt lat="49.8019" lon="0.70445">
        <ele>97.4</ele>
        <time>2020-06-18T09:38:04Z</time>
      </trkpt>
      <trkpt lat="49.8019" lon="0.70454">
        <ele>97.5</ele>
        <time>2020-06-18T09:38:05Z</time>
      </trkpt>
      <trkpt lat="49.8019" lon="0.70463">
        <ele>97.6</ele>
        <time>2020-06-18T09:38:06Z</time>
      </trkpt>
      <trkpt lat="49.8019" lon="0.70473">
        <ele>97.6</ele>
        <time>2020-06-18T09:38:07Z</time>
      </trkpt>
      <trkpt lat="49.80191" lon="0.70483">
        <ele>97.7</ele>
        <time>2020-06-18T09:38:08Z</time>
      </trkpt>
      <trkpt lat="49.80191" lon="0.70492">
        <ele>97.7</ele>
        <time>2020-06-18T09:38:09Z</time>
      </trkpt>
      <trkpt lat="49.80191" lon="0.70503">
        <ele>97.7</ele>
        <time>2020-06-18T09:38:10Z</time>
      </trkpt>
      <trkpt lat="49.80191" lon="0.70512">
        <ele>97.8</ele>
        <time>2020-06-18T09:38:11Z</time>
      </trkpt>
      <trkpt lat="49.80191" lon="0.70522">
        <ele>97.8</ele>
        <time>2020-06-18T09:38:12Z</time>
      </trkpt>
      <trkpt lat="49.80192" lon="0.70531">
        <ele>97.8</ele>
        <time>2020-06-18T09:38:13Z</time>
      </trkpt>
      <trkpt lat="49.80192" lon="0.7054">
        <ele>97.9</ele>
        <time>2020-06-18T09:38:14Z</time>
      </trkpt>
      <trkpt lat="49.80192" lon="0.7055">
        <ele>97.9</ele>
        <time>2020-06-18T09:38:15Z</time>
      </trkpt>
      <trkpt lat="49.80192" lon="0.70559">
        <ele>98</ele>
        <time>2020-06-18T09:38:16Z</time>
      </trkpt>
      <trkpt lat="49.80192" lon="0.70569">
        <ele>98</ele>
        <time>2020-06-18T09:38:17Z</time>
      </trkpt>
      <trkpt lat="49.80192" lon="0.70579">
        <ele>98</ele>
        <time>2020-06-18T09:38:18Z</time>
      </trkpt>
      <trkpt lat="49.80192" lon="0.70588">
        <ele>98</ele>
        <time>2020-06-18T09:38:19Z</time>
      </trkpt>
      <trkpt lat="49.80193" lon="0.70598">
        <ele>98</ele>
        <time>2020-06-18T09:38:20Z</time>
      </trkpt>
      <trkpt lat="49.80193" lon="0.70608">
        <ele>97.8</ele>
        <time>2020-06-18T09:38:21Z</time>
      </trkpt>
      <trkpt lat="49.80193" lon="0.70617">
        <ele>97.8</ele>
        <time>2020-06-18T09:38:22Z</time>
      </trkpt>
      <trkpt lat="49.80192" lon="0.70627">
        <ele>97.7</ele>
        <time>2020-06-18T09:38:23Z</time>
      </trkpt>
      <trkpt lat="49.80191" lon="0.70637">
        <ele>97.7</ele>
        <time>2020-06-18T09:38:24Z</time>
      </trkpt>
      <trkpt lat="49.8019" lon="0.70648">
        <ele>97.7</ele>
        <time>2020-06-18T09:38:25Z</time>
      </trkpt>
      <trkpt lat="49.80189" lon="0.70658">
        <ele>97.7</ele>
        <time>2020-06-18T09:38:26Z</time>
      </trkpt>
      <trkpt lat="49.80187" lon="0.70668">
        <ele>97.7</ele>
        <time>2020-06-18T09:38:27Z</time>
      </trkpt>
      <trkpt lat="49.80186" lon="0.70677">
        <ele>97.6</ele>
        <time>2020-06-18T09:38:28Z</time>
      </trkpt>
      <trkpt lat="49.80184" lon="0.70687">
        <ele>97.6</ele>
        <time>2020-06-18T09:38:29Z</time>
      </trkpt>
      <trkpt lat="49.80182" lon="0.70697">
        <ele>97.6</ele>
        <time>2020-06-18T09:38:30Z</time>
      </trkpt>
      <trkpt lat="49.80181" lon="0.70706">
        <ele>97.6</ele>
        <time>2020-06-18T09:38:31Z</time>
      </trkpt>
      <trkpt lat="49.8018" lon="0.70716">
        <ele>97.5</ele>
        <time>2020-06-18T09:38:32Z</time>
      </trkpt>
      <trkpt lat="49.80178" lon="0.70726">
        <ele>97.5</ele>
        <time>2020-06-18T09:38:33Z</time>
      </trkpt>
      <trkpt lat="49.80177" lon="0.70736">
        <ele>97.5</ele>
        <time>2020-06-18T09:38:34Z</time>
      </trkpt>
      <trkpt lat="49.80175" lon="0.70746">
        <ele>97.5</ele>
        <time>2020-06-18T09:38:35Z</time>
      </trkpt>
      <trkpt lat="49.80173" lon="0.70756">
        <ele>97.5</ele>
        <time>2020-06-18T09:38:36Z</time>
      </trkpt>
      <trkpt lat="49.80172" lon="0.70766">
        <ele>97.4</ele>
        <time>2020-06-18T09:38:37Z</time>
      </trkpt>
      <trkpt lat="49.8017" lon="0.70776">
        <ele>97.4</ele>
        <time>2020-06-18T09:38:38Z</time>
      </trkpt>
      <trkpt lat="49.80169" lon="0.70786">
        <ele>97.3</ele>
        <time>2020-06-18T09:38:39Z</time>
      </trkpt>
      <trkpt lat="49.80167" lon="0.70796">
        <ele>97.2</ele>
        <time>2020-06-18T09:38:40Z</time>
      </trkpt>
      <trkpt lat="49.80165" lon="0.70805">
        <ele>97.2</ele>
        <time>2020-06-18T09:38:41Z</time>
      </trkpt>
      <trkpt lat="49.80163" lon="0.70815">
        <ele>97.2</ele>
        <time>2020-06-18T09:38:42Z</time>
      </trkpt>
      <trkpt lat="49.80161" lon="0.70825">
        <ele>97.2</ele>
        <time>2020-06-18T09:38:43Z</time>
      </trkpt>
      <trkpt lat="49.8016" lon="0.70834">
        <ele>97.1</ele>
        <time>2020-06-18T09:38:44Z</time>
      </trkpt>
      <trkpt lat="49.80159" lon="0.70844">
        <ele>97.1</ele>
        <time>2020-06-18T09:38:45Z</time>
      </trkpt>
      <trkpt lat="49.80157" lon="0.70853">
        <ele>97.1</ele>
        <time>2020-06-18T09:38:46Z</time>
      </trkpt>
      <trkpt lat="49.80156" lon="0.70863">
        <ele>97</ele>
        <time>2020-06-18T09:38:47Z</time>
      </trkpt>
      <trkpt lat="49.80154" lon="0.70872">
        <ele>97.1</ele>
        <time>2020-06-18T09:38:48Z</time>
      </trkpt>
      <trkpt lat="49.80152" lon="0.7088">
        <ele>97.1</ele>
        <time>2020-06-18T09:38:49Z</time>
      </trkpt>
      <trkpt lat="49.8015" lon="0.70888">
        <ele>97.1</ele>
        <time>2020-06-18T09:38:50Z</time>
      </trkpt>
      <trkpt lat="49.80147" lon="0.70896">
        <ele>96.9</ele>
        <time>2020-06-18T09:38:51Z</time>
      </trkpt>
      <trkpt lat="49.80146" lon="0.70904">
        <ele>96.8</ele>
        <time>2020-06-18T09:38:52Z</time>
      </trkpt>
      <trkpt lat="49.80145" lon="0.70914">
        <ele>96.7</ele>
        <time>2020-06-18T09:38:53Z</time>
      </trkpt>
      <trkpt lat="49.80144" lon="0.70923">
        <ele>96.5</ele>
        <time>2020-06-18T09:38:54Z</time>
      </trkpt>
      <trkpt lat="49.80142" lon="0.70932">
        <ele>96.4</ele>
        <time>2020-06-18T09:38:55Z</time>
      </trkpt>
      <trkpt lat="49.80141" lon="0.70941">
        <ele>96.3</ele>
        <time>2020-06-18T09:38:56Z</time>
      </trkpt>
      <trkpt lat="49.8014" lon="0.70949">
        <ele>96.2</ele>
        <time>2020-06-18T09:38:57Z</time>
      </trkpt>
      <trkpt lat="49.80138" lon="0.70959">
        <ele>96.1</ele>
        <time>2020-06-18T09:38:58Z</time>
      </trkpt>
      <trkpt lat="49.80137" lon="0.70968">
        <ele>96</ele>
        <time>2020-06-18T09:38:59Z</time>
      </trkpt>
      <trkpt lat="49.80136" lon="0.70978">
        <ele>95.9</ele>
        <time>2020-06-18T09:39:00Z</time>
      </trkpt>
      <trkpt lat="49.80135" lon="0.70988">
        <ele>95.8</ele>
        <time>2020-06-18T09:39:01Z</time>
      </trkpt>
      <trkpt lat="49.80133" lon="0.70998">
        <ele>95.8</ele>
        <time>2020-06-18T09:39:02Z</time>
      </trkpt>
      <trkpt lat="49.80131" lon="0.71008">
        <ele>95.7</ele>
        <time>2020-06-18T09:39:03Z</time>
      </trkpt>
      <trkpt lat="49.80128" lon="0.71018">
        <ele>95.7</ele>
        <time>2020-06-18T09:39:04Z</time>
      </trkpt>
      <trkpt lat="49.80126" lon="0.71028">
        <ele>95.7</ele>
        <time>2020-06-18T09:39:05Z</time>
      </trkpt>
      <trkpt lat="49.80125" lon="0.71038">
        <ele>95.7</ele>
        <time>2020-06-18T09:39:06Z</time>
      </trkpt>
      <trkpt lat="49.80124" lon="0.71049">
        <ele>95.7</ele>
        <time>2020-06-18T09:39:07Z</time>
      </trkpt>
      <trkpt lat="49.80122" lon="0.71058">
        <ele>95.8</ele>
        <time>2020-06-18T09:39:08Z</time>
      </trkpt>
      <trkpt lat="49.8012" lon="0.71069">
        <ele>95.8</ele>
        <time>2020-06-18T09:39:09Z</time>
      </trkpt>
      <trkpt lat="49.80118" lon="0.7108">
        <ele>95.9</ele>
        <time>2020-06-18T09:39:10Z</time>
      </trkpt>
      <trkpt lat="49.80117" lon="0.7109">
        <ele>95.9</ele>
        <time>2020-06-18T09:39:11Z</time>
      </trkpt>
      <trkpt lat="49.80115" lon="0.71101">
        <ele>95.9</ele>
        <time>2020-06-18T09:39:12Z</time>
      </trkpt>
      <trkpt lat="49.80114" lon="0.71111">
        <ele>95.9</ele>
        <time>2020-06-18T09:39:13Z</time>
      </trkpt>
      <trkpt lat="49.80112" lon="0.71122">
        <ele>96</ele>
        <time>2020-06-18T09:39:14Z</time>
      </trkpt>
      <trkpt lat="49.80111" lon="0.71133">
        <ele>96</ele>
        <time>2020-06-18T09:39:15Z</time>
      </trkpt>
      <trkpt lat="49.80109" lon="0.71144">
        <ele>96.1</ele>
        <time>2020-06-18T09:39:16Z</time>
      </trkpt>
      <trkpt lat="49.80106" lon="0.71155">
        <ele>96.2</ele>
        <time>2020-06-18T09:39:17Z</time>
      </trkpt>
      <trkpt lat="49.80104" lon="0.71167">
        <ele>96.3</ele>
        <time>2020-06-18T09:39:18Z</time>
      </trkpt>
      <trkpt lat="49.80102" lon="0.71178">
        <ele>96.4</ele>
        <time>2020-06-18T09:39:19Z</time>
      </trkpt>
      <trkpt lat="49.80101" lon="0.71189">
        <ele>96.5</ele>
        <time>2020-06-18T09:39:20Z</time>
      </trkpt>
      <trkpt lat="49.801" lon="0.712">
        <ele>96.5</ele>
        <time>2020-06-18T09:39:21Z</time>
      </trkpt>
      <trkpt lat="49.80098" lon="0.71211">
        <ele>96.6</ele>
        <time>2020-06-18T09:39:22Z</time>
      </trkpt>
      <trkpt lat="49.80097" lon="0.71222">
        <ele>96.6</ele>
        <time>2020-06-18T09:39:23Z</time>
      </trkpt>
      <trkpt lat="49.80095" lon="0.71233">
        <ele>96.6</ele>
        <time>2020-06-18T09:39:24Z</time>
      </trkpt>
      <trkpt lat="49.80093" lon="0.71244">
        <ele>96.6</ele>
        <time>2020-06-18T09:39:25Z</time>
      </trkpt>
      <trkpt lat="49.80091" lon="0.71254">
        <ele>96.7</ele>
        <time>2020-06-18T09:39:26Z</time>
      </trkpt>
      <trkpt lat="49.80089" lon="0.71265">
        <ele>96.7</ele>
        <time>2020-06-18T09:39:27Z</time>
      </trkpt>
      <trkpt lat="49.80087" lon="0.71276">
        <ele>96.8</ele>
        <time>2020-06-18T09:39:28Z</time>
      </trkpt>
      <trkpt lat="49.80085" lon="0.71287">
        <ele>96.9</ele>
        <time>2020-06-18T09:39:29Z</time>
      </trkpt>
      <trkpt lat="49.80084" lon="0.71297">
        <ele>96.9</ele>
        <time>2020-06-18T09:39:30Z</time>
      </trkpt>
      <trkpt lat="49.80082" lon="0.71308">
        <ele>97</ele>
        <time>2020-06-18T09:39:31Z</time>
      </trkpt>
      <trkpt lat="49.80081" lon="0.71318">
        <ele>97</ele>
        <time>2020-06-18T09:39:32Z</time>
      </trkpt>
      <trkpt lat="49.80079" lon="0.71328">
        <ele>97</ele>
        <time>2020-06-18T09:39:33Z</time>
      </trkpt>
      <trkpt lat="49.80078" lon="0.71338">
        <ele>97</ele>
        <time>2020-06-18T09:39:34Z</time>
      </trkpt>
      <trkpt lat="49.80077" lon="0.71348">
        <ele>97</ele>
        <time>2020-06-18T09:39:35Z</time>
      </trkpt>
      <trkpt lat="49.80076" lon="0.71359">
        <ele>97</ele>
        <time>2020-06-18T09:39:36Z</time>
      </trkpt>
      <trkpt lat="49.80076" lon="0.71369">
        <ele>97</ele>
        <time>2020-06-18T09:39:37Z</time>
      </trkpt>
      <trkpt lat="49.80075" lon="0.71379">
        <ele>97</ele>
        <time>2020-06-18T09:39:38Z</time>
      </trkpt>
      <trkpt lat="49.80075" lon="0.71388">
        <ele>97</ele>
        <time>2020-06-18T09:39:39Z</time>
      </trkpt>
      <trkpt lat="49.80076" lon="0.71399">
        <ele>96.9</ele>
        <time>2020-06-18T09:39:40Z</time>
      </trkpt>
      <trkpt lat="49.80076" lon="0.71409">
        <ele>96.9</ele>
        <time>2020-06-18T09:39:41Z</time>
      </trkpt>
      <trkpt lat="49.80076" lon="0.71419">
        <ele>96.8</ele>
        <time>2020-06-18T09:39:42Z</time>
      </trkpt>
      <trkpt lat="49.80076" lon="0.7143">
        <ele>96.7</ele>
        <time>2020-06-18T09:39:43Z</time>
      </trkpt>
      <trkpt lat="49.80077" lon="0.7144">
        <ele>96.6</ele>
        <time>2020-06-18T09:39:44Z</time>
      </trkpt>
      <trkpt lat="49.80077" lon="0.7145">
        <ele>96.5</ele>
        <time>2020-06-18T09:39:45Z</time>
      </trkpt>
      <trkpt lat="49.80078" lon="0.71461">
        <ele>96.5</ele>
        <time>2020-06-18T09:39:46Z</time>
      </trkpt>
      <trkpt lat="49.80079" lon="0.71471">
        <ele>96.4</ele>
        <time>2020-06-18T09:39:47Z</time>
      </trkpt>
      <trkpt lat="49.80079" lon="0.71481">
        <ele>96.3</ele>
        <time>2020-06-18T09:39:48Z</time>
      </trkpt>
      <trkpt lat="49.8008" lon="0.71491">
        <ele>96.2</ele>
        <time>2020-06-18T09:39:49Z</time>
      </trkpt>
      <trkpt lat="49.8008" lon="0.71501">
        <ele>96.1</ele>
        <time>2020-06-18T09:39:50Z</time>
      </trkpt>
      <trkpt lat="49.80081" lon="0.71511">
        <ele>96</ele>
        <time>2020-06-18T09:39:51Z</time>
      </trkpt>
      <trkpt lat="49.80082" lon="0.71521">
        <ele>95.9</ele>
        <time>2020-06-18T09:39:52Z</time>
      </trkpt>
      <trkpt lat="49.80083" lon="0.71531">
        <ele>95.7</ele>
        <time>2020-06-18T09:39:53Z</time>
      </trkpt>
      <trkpt lat="49.80083" lon="0.71542">
        <ele>95.4</ele>
        <time>2020-06-18T09:39:54Z</time>
      </trkpt>
      <trkpt lat="49.80083" lon="0.71552">
        <ele>94.9</ele>
        <time>2020-06-18T09:39:55Z</time>
      </trkpt>
      <trkpt lat="49.80084" lon="0.71561">
        <ele>94.8</ele>
        <time>2020-06-18T09:39:56Z</time>
      </trkpt>
      <trkpt lat="49.80084" lon="0.71571">
        <ele>94.7</ele>
        <time>2020-06-18T09:39:57Z</time>
      </trkpt>
      <trkpt lat="49.80085" lon="0.71581">
        <ele>94.5</ele>
        <time>2020-06-18T09:39:58Z</time>
      </trkpt>
      <trkpt lat="49.80085" lon="0.71591">
        <ele>94.4</ele>
        <time>2020-06-18T09:39:59Z</time>
      </trkpt>
      <trkpt lat="49.80086" lon="0.716">
        <ele>94.2</ele>
        <time>2020-06-18T09:40:00Z</time>
      </trkpt>
      <trkpt lat="49.80086" lon="0.71609">
        <ele>94.1</ele>
        <time>2020-06-18T09:40:01Z</time>
      </trkpt>
      <trkpt lat="49.80086" lon="0.71619">
        <ele>93.9</ele>
        <time>2020-06-18T09:40:02Z</time>
      </trkpt>
      <trkpt lat="49.80085" lon="0.71627">
        <ele>93.7</ele>
        <time>2020-06-18T09:40:03Z</time>
      </trkpt>
      <trkpt lat="49.80085" lon="0.71636">
        <ele>93.5</ele>
        <time>2020-06-18T09:40:04Z</time>
      </trkpt>
      <trkpt lat="49.80084" lon="0.71646">
        <ele>93.3</ele>
        <time>2020-06-18T09:40:05Z</time>
      </trkpt>
      <trkpt lat="49.80084" lon="0.71655">
        <ele>93.1</ele>
        <time>2020-06-18T09:40:06Z</time>
      </trkpt>
      <trkpt lat="49.80084" lon="0.71664">
        <ele>92.9</ele>
        <time>2020-06-18T09:40:07Z</time>
      </trkpt>
      <trkpt lat="49.80085" lon="0.71673">
        <ele>92.8</ele>
        <time>2020-06-18T09:40:08Z</time>
      </trkpt>
      <trkpt lat="49.80084" lon="0.71682">
        <ele>92.5</ele>
        <time>2020-06-18T09:40:09Z</time>
      </trkpt>
      <trkpt lat="49.80085" lon="0.71692">
        <ele>92.3</ele>
        <time>2020-06-18T09:40:10Z</time>
      </trkpt>
      <trkpt lat="49.80087" lon="0.71703">
        <ele>92</ele>
        <time>2020-06-18T09:40:11Z</time>
      </trkpt>
      <trkpt lat="49.80088" lon="0.71714">
        <ele>91.6</ele>
        <time>2020-06-18T09:40:12Z</time>
      </trkpt>
      <trkpt lat="49.80089" lon="0.71724">
        <ele>91.3</ele>
        <time>2020-06-18T09:40:13Z</time>
      </trkpt>
      <trkpt lat="49.8009" lon="0.71735">
        <ele>90.9</ele>
        <time>2020-06-18T09:40:14Z</time>
      </trkpt>
      <trkpt lat="49.8009" lon="0.71745">
        <ele>90.6</ele>
        <time>2020-06-18T09:40:15Z</time>
      </trkpt>
      <trkpt lat="49.8009" lon="0.71756">
        <ele>90.3</ele>
        <time>2020-06-18T09:40:16Z</time>
      </trkpt>
      <trkpt lat="49.8009" lon="0.71767">
        <ele>89.9</ele>
        <time>2020-06-18T09:40:17Z</time>
      </trkpt>
      <trkpt lat="49.80091" lon="0.71779">
        <ele>89.5</ele>
        <time>2020-06-18T09:40:18Z</time>
      </trkpt>
      <trkpt lat="49.8009" lon="0.71791">
        <ele>89.1</ele>
        <time>2020-06-18T09:40:19Z</time>
      </trkpt>
      <trkpt lat="49.80091" lon="0.71802">
        <ele>88.7</ele>
        <time>2020-06-18T09:40:20Z</time>
      </trkpt>
      <trkpt lat="49.80092" lon="0.71814">
        <ele>88.2</ele>
        <time>2020-06-18T09:40:21Z</time>
      </trkpt>
      <trkpt lat="49.80092" lon="0.71825">
        <ele>87.8</ele>
        <time>2020-06-18T09:40:22Z</time>
      </trkpt>
      <trkpt lat="49.80092" lon="0.71837">
        <ele>87.4</ele>
        <time>2020-06-18T09:40:23Z</time>
      </trkpt>
      <trkpt lat="49.80093" lon="0.7185">
        <ele>87</ele>
        <time>2020-06-18T09:40:24Z</time>
      </trkpt>
      <trkpt lat="49.80093" lon="0.71863">
        <ele>86.6</ele>
        <time>2020-06-18T09:40:25Z</time>
      </trkpt>
      <trkpt lat="49.80094" lon="0.71876">
        <ele>86.2</ele>
        <time>2020-06-18T09:40:26Z</time>
      </trkpt>
      <trkpt lat="49.80097" lon="0.71889">
        <ele>85.7</ele>
        <time>2020-06-18T09:40:27Z</time>
      </trkpt>
      <trkpt lat="49.801" lon="0.71902">
        <ele>85.3</ele>
        <time>2020-06-18T09:40:28Z</time>
      </trkpt>
      <trkpt lat="49.80103" lon="0.71915">
        <ele>84.9</ele>
        <time>2020-06-18T09:40:29Z</time>
      </trkpt>
      <trkpt lat="49.80107" lon="0.71928">
        <ele>84.7</ele>
        <time>2020-06-18T09:40:30Z</time>
      </trkpt>
      <trkpt lat="49.80111" lon="0.7194">
        <ele>84.6</ele>
        <time>2020-06-18T09:40:31Z</time>
      </trkpt>
      <trkpt lat="49.80115" lon="0.71952">
        <ele>84.5</ele>
        <time>2020-06-18T09:40:32Z</time>
      </trkpt>
      <trkpt lat="49.80118" lon="0.71964">
        <ele>84.5</ele>
        <time>2020-06-18T09:40:33Z</time>
      </trkpt>
      <trkpt lat="49.80122" lon="0.71975">
        <ele>84.8</ele>
        <time>2020-06-18T09:40:34Z</time>
      </trkpt>
      <trkpt lat="49.80126" lon="0.71986">
        <ele>84.7</ele>
        <time>2020-06-18T09:40:35Z</time>
      </trkpt>
      <trkpt lat="49.8013" lon="0.71997">
        <ele>84.7</ele>
        <time>2020-06-18T09:40:36Z</time>
      </trkpt>
      <trkpt lat="49.80133" lon="0.72007">
        <ele>84.8</ele>
        <time>2020-06-18T09:40:37Z</time>
      </trkpt>
      <trkpt lat="49.80137" lon="0.72016">
        <ele>84.8</ele>
        <time>2020-06-18T09:40:38Z</time>
      </trkpt>
      <trkpt lat="49.80141" lon="0.72026">
        <ele>84.9</ele>
        <time>2020-06-18T09:40:39Z</time>
      </trkpt>
      <trkpt lat="49.80144" lon="0.72036">
        <ele>85</ele>
        <time>2020-06-18T09:40:40Z</time>
      </trkpt>
      <trkpt lat="49.80148" lon="0.72046">
        <ele>85.1</ele>
        <time>2020-06-18T09:40:41Z</time>
      </trkpt>
      <trkpt lat="49.80151" lon="0.72057">
        <ele>85.1</ele>
        <time>2020-06-18T09:40:42Z</time>
      </trkpt>
      <trkpt lat="49.80154" lon="0.72067">
        <ele>85.1</ele>
        <time>2020-06-18T09:40:43Z</time>
      </trkpt>
      <trkpt lat="49.80157" lon="0.72077">
        <ele>85.2</ele>
        <time>2020-06-18T09:40:44Z</time>
      </trkpt>
      <trkpt lat="49.80161" lon="0.72086">
        <ele>85.2</ele>
        <time>2020-06-18T09:40:45Z</time>
      </trkpt>
      <trkpt lat="49.80164" lon="0.72096">
        <ele>85.3</ele>
        <time>2020-06-18T09:40:46Z</time>
      </trkpt>
      <trkpt lat="49.80167" lon="0.72106">
        <ele>85.4</ele>
        <time>2020-06-18T09:40:47Z</time>
      </trkpt>
      <trkpt lat="49.8017" lon="0.72115">
        <ele>85.5</ele>
        <time>2020-06-18T09:40:48Z</time>
      </trkpt>
      <trkpt lat="49.80173" lon="0.72123">
        <ele>85.5</ele>
        <time>2020-06-18T09:40:49Z</time>
      </trkpt>
      <trkpt lat="49.80176" lon="0.72132">
        <ele>85.5</ele>
        <time>2020-06-18T09:40:50Z</time>
      </trkpt>
      <trkpt lat="49.80179" lon="0.72141">
        <ele>85.6</ele>
        <time>2020-06-18T09:40:51Z</time>
      </trkpt>
      <trkpt lat="49.80181" lon="0.7215">
        <ele>85.5</ele>
        <time>2020-06-18T09:40:52Z</time>
      </trkpt>
      <trkpt lat="49.80185" lon="0.72158">
        <ele>85.5</ele>
        <time>2020-06-18T09:40:53Z</time>
      </trkpt>
      <trkpt lat="49.80188" lon="0.72167">
        <ele>85.4</ele>
        <time>2020-06-18T09:40:54Z</time>
      </trkpt>
      <trkpt lat="49.80191" lon="0.72176">
        <ele>85.3</ele>
        <time>2020-06-18T09:40:55Z</time>
      </trkpt>
      <trkpt lat="49.80194" lon="0.72185">
        <ele>85.2</ele>
        <time>2020-06-18T09:40:56Z</time>
      </trkpt>
      <trkpt lat="49.80197" lon="0.72194">
        <ele>85.1</ele>
        <time>2020-06-18T09:40:57Z</time>
      </trkpt>
      <trkpt lat="49.802" lon="0.72203">
        <ele>85</ele>
        <time>2020-06-18T09:40:58Z</time>
      </trkpt>
      <trkpt lat="49.80203" lon="0.72213">
        <ele>84.8</ele>
        <time>2020-06-18T09:40:59Z</time>
      </trkpt>
      <trkpt lat="49.80206" lon="0.72222">
        <ele>84.6</ele>
        <time>2020-06-18T09:41:00Z</time>
      </trkpt>
      <trkpt lat="49.80208" lon="0.72233">
        <ele>84.4</ele>
        <time>2020-06-18T09:41:01Z</time>
      </trkpt>
      <trkpt lat="49.80211" lon="0.72243">
        <ele>84.2</ele>
        <time>2020-06-18T09:41:02Z</time>
      </trkpt>
      <trkpt lat="49.80213" lon="0.72254">
        <ele>83.9</ele>
        <time>2020-06-18T09:41:03Z</time>
      </trkpt>
      <trkpt lat="49.80216" lon="0.72264">
        <ele>83.7</ele>
        <time>2020-06-18T09:41:04Z</time>
      </trkpt>
      <trkpt lat="49.80219" lon="0.72275">
        <ele>83.4</ele>
        <time>2020-06-18T09:41:05Z</time>
      </trkpt>
      <trkpt lat="49.80221" lon="0.72286">
        <ele>83.1</ele>
        <time>2020-06-18T09:41:06Z</time>
      </trkpt>
      <trkpt lat="49.80224" lon="0.72297">
        <ele>82.9</ele>
        <time>2020-06-18T09:41:07Z</time>
      </trkpt>
      <trkpt lat="49.80226" lon="0.72309">
        <ele>82.7</ele>
        <time>2020-06-18T09:41:08Z</time>
      </trkpt>
      <trkpt lat="49.80228" lon="0.7232">
        <ele>82.4</ele>
        <time>2020-06-18T09:41:09Z</time>
      </trkpt>
      <trkpt lat="49.80229" lon="0.72332">
        <ele>82.1</ele>
        <time>2020-06-18T09:41:10Z</time>
      </trkpt>
      <trkpt lat="49.80231" lon="0.72344">
        <ele>81.8</ele>
        <time>2020-06-18T09:41:11Z</time>
      </trkpt>
      <trkpt lat="49.80232" lon="0.72356">
        <ele>81.5</ele>
        <time>2020-06-18T09:41:12Z</time>
      </trkpt>
      <trkpt lat="49.80234" lon="0.72368">
        <ele>81.3</ele>
        <time>2020-06-18T09:41:13Z</time>
      </trkpt>
      <trkpt lat="49.80235" lon="0.7238">
        <ele>81</ele>
        <time>2020-06-18T09:41:14Z</time>
      </trkpt>
      <trkpt lat="49.80236" lon="0.72393">
        <ele>80.7</ele>
        <time>2020-06-18T09:41:15Z</time>
      </trkpt>
      <trkpt lat="49.80238" lon="0.72405">
        <ele>80.5</ele>
        <time>2020-06-18T09:41:16Z</time>
      </trkpt>
      <trkpt lat="49.80239" lon="0.72418">
        <ele>80.3</ele>
        <time>2020-06-18T09:41:17Z</time>
      </trkpt>
      <trkpt lat="49.8024" lon="0.7243">
        <ele>80</ele>
        <time>2020-06-18T09:41:18Z</time>
      </trkpt>
      <trkpt lat="49.80242" lon="0.72443">
        <ele>79.8</ele>
        <time>2020-06-18T09:41:19Z</time>
      </trkpt>
      <trkpt lat="49.80243" lon="0.72455">
        <ele>79.6</ele>
        <time>2020-06-18T09:41:20Z</time>
      </trkpt>
      <trkpt lat="49.80245" lon="0.72468">
        <ele>79.5</ele>
        <time>2020-06-18T09:41:21Z</time>
      </trkpt>
      <trkpt lat="49.80246" lon="0.7248">
        <ele>79.5</ele>
        <time>2020-06-18T09:41:22Z</time>
      </trkpt>
      <trkpt lat="49.80248" lon="0.72492">
        <ele>79.4</ele>
        <time>2020-06-18T09:41:23Z</time>
      </trkpt>
      <trkpt lat="49.80249" lon="0.72505">
        <ele>79.4</ele>
        <time>2020-06-18T09:41:24Z</time>
      </trkpt>
      <trkpt lat="49.8025" lon="0.72517">
        <ele>79.4</ele>
        <time>2020-06-18T09:41:25Z</time>
      </trkpt>
      <trkpt lat="49.80251" lon="0.72528">
        <ele>79.4</ele>
        <time>2020-06-18T09:41:26Z</time>
      </trkpt>
      <trkpt lat="49.80253" lon="0.7254">
        <ele>79.4</ele>
        <time>2020-06-18T09:41:27Z</time>
      </trkpt>
      <trkpt lat="49.80253" lon="0.72551">
        <ele>79.4</ele>
        <time>2020-06-18T09:41:28Z</time>
      </trkpt>
      <trkpt lat="49.80254" lon="0.72563">
        <ele>79.5</ele>
        <time>2020-06-18T09:41:29Z</time>
      </trkpt>
      <trkpt lat="49.80255" lon="0.72574">
        <ele>79.5</ele>
        <time>2020-06-18T09:41:30Z</time>
      </trkpt>
      <trkpt lat="49.80256" lon="0.72584">
        <ele>79.6</ele>
        <time>2020-06-18T09:41:31Z</time>
      </trkpt>
      <trkpt lat="49.80256" lon="0.72594">
        <ele>79.6</ele>
        <time>2020-06-18T09:41:32Z</time>
      </trkpt>
      <trkpt lat="49.80257" lon="0.72605">
        <ele>79.7</ele>
        <time>2020-06-18T09:41:33Z</time>
      </trkpt>
      <trkpt lat="49.80258" lon="0.72615">
        <ele>79.8</ele>
        <time>2020-06-18T09:41:34Z</time>
      </trkpt>
      <trkpt lat="49.80259" lon="0.72625">
        <ele>79.9</ele>
        <time>2020-06-18T09:41:35Z</time>
      </trkpt>
      <trkpt lat="49.80259" lon="0.72636">
        <ele>80</ele>
        <time>2020-06-18T09:41:36Z</time>
      </trkpt>
      <trkpt lat="49.80259" lon="0.72647">
        <ele>80.3</ele>
        <time>2020-06-18T09:41:37Z</time>
      </trkpt>
      <trkpt lat="49.8026" lon="0.72657">
        <ele>80.6</ele>
        <time>2020-06-18T09:41:38Z</time>
      </trkpt>
      <trkpt lat="49.8026" lon="0.72667">
        <ele>80.8</ele>
        <time>2020-06-18T09:41:39Z</time>
      </trkpt>
      <trkpt lat="49.80261" lon="0.72677">
        <ele>81.1</ele>
        <time>2020-06-18T09:41:40Z</time>
      </trkpt>
      <trkpt lat="49.80261" lon="0.72687">
        <ele>81.4</ele>
        <time>2020-06-18T09:41:41Z</time>
      </trkpt>
      <trkpt lat="49.80261" lon="0.72697">
        <ele>81.8</ele>
        <time>2020-06-18T09:41:42Z</time>
      </trkpt>
      <trkpt lat="49.80262" lon="0.72706">
        <ele>82.1</ele>
        <time>2020-06-18T09:41:43Z</time>
      </trkpt>
      <trkpt lat="49.80263" lon="0.72715">
        <ele>82.4</ele>
        <time>2020-06-18T09:41:44Z</time>
      </trkpt>
      <trkpt lat="49.80263" lon="0.72724">
        <ele>82.7</ele>
        <time>2020-06-18T09:41:45Z</time>
      </trkpt>
      <trkpt lat="49.80264" lon="0.72732">
        <ele>83</ele>
        <time>2020-06-18T09:41:46Z</time>
      </trkpt>
      <trkpt lat="49.80264" lon="0.72741">
        <ele>83.3</ele>
        <time>2020-06-18T09:41:47Z</time>
      </trkpt>
      <trkpt lat="49.80265" lon="0.72748">
        <ele>83.5</ele>
        <time>2020-06-18T09:41:48Z</time>
      </trkpt>
      <trkpt lat="49.80265" lon="0.72756">
        <ele>83.8</ele>
        <time>2020-06-18T09:41:49Z</time>
      </trkpt>
      <trkpt lat="49.80265" lon="0.72763">
        <ele>84.1</ele>
        <time>2020-06-18T09:41:50Z</time>
      </trkpt>
      <trkpt lat="49.80265" lon="0.7277">
        <ele>84.3</ele>
        <time>2020-06-18T09:41:51Z</time>
      </trkpt>
      <trkpt lat="49.80266" lon="0.72778">
        <ele>84.6</ele>
        <time>2020-06-18T09:41:52Z</time>
      </trkpt>
      <trkpt lat="49.80266" lon="0.72785">
        <ele>84.9</ele>
        <time>2020-06-18T09:41:53Z</time>
      </trkpt>
      <trkpt lat="49.80267" lon="0.72793">
        <ele>85.2</ele>
        <time>2020-06-18T09:41:54Z</time>
      </trkpt>
      <trkpt lat="49.80267" lon="0.728">
        <ele>85.5</ele>
        <time>2020-06-18T09:41:55Z</time>
      </trkpt>
      <trkpt lat="49.80267" lon="0.72807">
        <ele>85.8</ele>
        <time>2020-06-18T09:41:56Z</time>
      </trkpt>
      <trkpt lat="49.80267" lon="0.72813">
        <ele>86.1</ele>
        <time>2020-06-18T09:41:57Z</time>
      </trkpt>
      <trkpt lat="49.80268" lon="0.7282">
        <ele>86.4</ele>
        <time>2020-06-18T09:41:58Z</time>
      </trkpt>
      <trkpt lat="49.80268" lon="0.72827">
        <ele>86.7</ele>
        <time>2020-06-18T09:41:59Z</time>
      </trkpt>
      <trkpt lat="49.80268" lon="0.72835">
        <ele>87</ele>
        <time>2020-06-18T09:42:00Z</time>
      </trkpt>
      <trkpt lat="49.80267" lon="0.72843">
        <ele>87.3</ele>
        <time>2020-06-18T09:42:01Z</time>
      </trkpt>
      <trkpt lat="49.80267" lon="0.72851">
        <ele>87.6</ele>
        <time>2020-06-18T09:42:02Z</time>
      </trkpt>
      <trkpt lat="49.80266" lon="0.72859">
        <ele>87.9</ele>
        <time>2020-06-18T09:42:03Z</time>
      </trkpt>
      <trkpt lat="49.80267" lon="0.72868">
        <ele>88.3</ele>
        <time>2020-06-18T09:42:04Z</time>
      </trkpt>
      <trkpt lat="49.80267" lon="0.72876">
        <ele>88.6</ele>
        <time>2020-06-18T09:42:05Z</time>
      </trkpt>
      <trkpt lat="49.80268" lon="0.72884">
        <ele>88.9</ele>
        <time>2020-06-18T09:42:06Z</time>
      </trkpt>
      <trkpt lat="49.80268" lon="0.72892">
        <ele>89.2</ele>
        <time>2020-06-18T09:42:07Z</time>
      </trkpt>
      <trkpt lat="49.80268" lon="0.729">
        <ele>89.5</ele>
        <time>2020-06-18T09:42:08Z</time>
      </trkpt>
      <trkpt lat="49.80269" lon="0.72907">
        <ele>89.8</ele>
        <time>2020-06-18T09:42:09Z</time>
      </trkpt>
      <trkpt lat="49.8027" lon="0.72915">
        <ele>90</ele>
        <time>2020-06-18T09:42:10Z</time>
      </trkpt>
      <trkpt lat="49.80271" lon="0.72921">
        <ele>90.3</ele>
        <time>2020-06-18T09:42:11Z</time>
      </trkpt>
      <trkpt lat="49.80272" lon="0.72927">
        <ele>90.5</ele>
        <time>2020-06-18T09:42:12Z</time>
      </trkpt>
      <trkpt lat="49.80273" lon="0.72933">
        <ele>90.7</ele>
        <time>2020-06-18T09:42:13Z</time>
      </trkpt>
      <trkpt lat="49.80273" lon="0.72941">
        <ele>91</ele>
        <time>2020-06-18T09:42:14Z</time>
      </trkpt>
      <trkpt lat="49.80274" lon="0.72948">
        <ele>91.2</ele>
        <time>2020-06-18T09:42:15Z</time>
      </trkpt>
      <trkpt lat="49.80275" lon="0.72954">
        <ele>91.4</ele>
        <time>2020-06-18T09:42:16Z</time>
      </trkpt>
      <trkpt lat="49.80274" lon="0.72961">
        <ele>91.6</ele>
        <time>2020-06-18T09:42:17Z</time>
      </trkpt>
      <trkpt lat="49.80275" lon="0.72967">
        <ele>91.8</ele>
        <time>2020-06-18T09:42:18Z</time>
      </trkpt>
      <trkpt lat="49.80275" lon="0.72972">
        <ele>91.9</ele>
        <time>2020-06-18T09:42:19Z</time>
      </trkpt>
      <trkpt lat="49.80276" lon="0.72979">
        <ele>92.1</ele>
        <time>2020-06-18T09:42:20Z</time>
      </trkpt>
      <trkpt lat="49.80276" lon="0.72985">
        <ele>92.3</ele>
        <time>2020-06-18T09:42:21Z</time>
      </trkpt>
      <trkpt lat="49.80277" lon="0.72991">
        <ele>92.5</ele>
        <time>2020-06-18T09:42:22Z</time>
      </trkpt>
      <trkpt lat="49.80277" lon="0.72998">
        <ele>92.7</ele>
        <time>2020-06-18T09:42:23Z</time>
      </trkpt>
      <trkpt lat="49.80278" lon="0.73004">
        <ele>92.9</ele>
        <time>2020-06-18T09:42:24Z</time>
      </trkpt>
      <trkpt lat="49.80279" lon="0.73012">
        <ele>93</ele>
        <time>2020-06-18T09:42:25Z</time>
      </trkpt>
      <trkpt lat="49.80279" lon="0.73021">
        <ele>93.2</ele>
        <time>2020-06-18T09:42:26Z</time>
      </trkpt>
      <trkpt lat="49.80279" lon="0.73029">
        <ele>93.4</ele>
        <time>2020-06-18T09:42:27Z</time>
      </trkpt>
      <trkpt lat="49.8028" lon="0.73038">
        <ele>93.6</ele>
        <time>2020-06-18T09:42:28Z</time>
      </trkpt>
      <trkpt lat="49.80281" lon="0.73045">
        <ele>93.7</ele>
        <time>2020-06-18T09:42:29Z</time>
      </trkpt>
      <trkpt lat="49.80282" lon="0.73052">
        <ele>93.8</ele>
        <time>2020-06-18T09:42:30Z</time>
      </trkpt>
      <trkpt lat="49.80283" lon="0.73058">
        <ele>94</ele>
        <time>2020-06-18T09:42:31Z</time>
      </trkpt>
      <trkpt lat="49.80283" lon="0.73065">
        <ele>94.1</ele>
        <time>2020-06-18T09:42:32Z</time>
      </trkpt>
      <trkpt lat="49.80284" lon="0.73072">
        <ele>94.3</ele>
        <time>2020-06-18T09:42:33Z</time>
      </trkpt>
      <trkpt lat="49.80284" lon="0.73079">
        <ele>94.4</ele>
        <time>2020-06-18T09:42:34Z</time>
      </trkpt>
      <trkpt lat="49.80284" lon="0.73086">
        <ele>94.5</ele>
        <time>2020-06-18T09:42:35Z</time>
      </trkpt>
      <trkpt lat="49.80284" lon="0.73093">
        <ele>94.7</ele>
        <time>2020-06-18T09:42:36Z</time>
      </trkpt>
      <trkpt lat="49.80285" lon="0.73099">
        <ele>94.8</ele>
        <time>2020-06-18T09:42:37Z</time>
      </trkpt>
      <trkpt lat="49.80285" lon="0.73107">
        <ele>94.9</ele>
        <time>2020-06-18T09:42:38Z</time>
      </trkpt>
      <trkpt lat="49.80286" lon="0.73115">
        <ele>95</ele>
        <time>2020-06-18T09:42:39Z</time>
      </trkpt>
      <trkpt lat="49.80285" lon="0.73122">
        <ele>95.1</ele>
        <time>2020-06-18T09:42:40Z</time>
      </trkpt>
      <trkpt lat="49.80286" lon="0.73128">
        <ele>95.2</ele>
        <time>2020-06-18T09:42:41Z</time>
      </trkpt>
      <trkpt lat="49.80286" lon="0.73134">
        <ele>95.3</ele>
        <time>2020-06-18T09:42:42Z</time>
      </trkpt>
      <trkpt lat="49.80285" lon="0.73142">
        <ele>95.4</ele>
        <time>2020-06-18T09:42:43Z</time>
      </trkpt>
      <trkpt lat="49.80286" lon="0.7315">
        <ele>95.6</ele>
        <time>2020-06-18T09:42:44Z</time>
      </trkpt>
      <trkpt lat="49.80287" lon="0.73159">
        <ele>95.7</ele>
        <time>2020-06-18T09:42:45Z</time>
      </trkpt>
      <trkpt lat="49.80287" lon="0.73165">
        <ele>95.8</ele>
        <time>2020-06-18T09:42:46Z</time>
      </trkpt>
      <trkpt lat="49.80288" lon="0.73174">
        <ele>95.9</ele>
        <time>2020-06-18T09:42:47Z</time>
      </trkpt>
      <trkpt lat="49.80288" lon="0.73181">
        <ele>96</ele>
        <time>2020-06-18T09:42:48Z</time>
      </trkpt>
      <trkpt lat="49.80289" lon="0.73186">
        <ele>96.1</ele>
        <time>2020-06-18T09:42:49Z</time>
      </trkpt>
      <trkpt lat="49.8029" lon="0.73194">
        <ele>96.2</ele>
        <time>2020-06-18T09:42:50Z</time>
      </trkpt>
      <trkpt lat="49.80291" lon="0.73201">
        <ele>96.3</ele>
        <time>2020-06-18T09:42:51Z</time>
      </trkpt>
      <trkpt lat="49.80292" lon="0.73209">
        <ele>96.5</ele>
        <time>2020-06-18T09:42:52Z</time>
      </trkpt>
      <trkpt lat="49.80292" lon="0.73217">
        <ele>96.6</ele>
        <time>2020-06-18T09:42:53Z</time>
      </trkpt>
      <trkpt lat="49.80292" lon="0.73225">
        <ele>96.7</ele>
        <time>2020-06-18T09:42:54Z</time>
      </trkpt>
      <trkpt lat="49.80293" lon="0.73235">
        <ele>96.8</ele>
        <time>2020-06-18T09:42:55Z</time>
      </trkpt>
      <trkpt lat="49.80293" lon="0.73242">
        <ele>96.9</ele>
        <time>2020-06-18T09:42:56Z</time>
      </trkpt>
      <trkpt lat="49.80292" lon="0.73251">
        <ele>97</ele>
        <time>2020-06-18T09:42:57Z</time>
      </trkpt>
      <trkpt lat="49.80293" lon="0.73259">
        <ele>97</ele>
        <time>2020-06-18T09:42:58Z</time>
      </trkpt>
      <trkpt lat="49.80294" lon="0.73267">
        <ele>97.1</ele>
        <time>2020-06-18T09:42:59Z</time>
      </trkpt>
      <trkpt lat="49.80294" lon="0.73276">
        <ele>97.2</ele>
        <time>2020-06-18T09:43:00Z</time>
      </trkpt>
      <trkpt lat="49.80294" lon="0.73285">
        <ele>97.3</ele>
        <time>2020-06-18T09:43:01Z</time>
      </trkpt>
      <trkpt lat="49.80295" lon="0.73293">
        <ele>97.4</ele>
        <time>2020-06-18T09:43:02Z</time>
      </trkpt>
      <trkpt lat="49.80295" lon="0.73301">
        <ele>97.5</ele>
        <time>2020-06-18T09:43:03Z</time>
      </trkpt>
      <trkpt lat="49.80296" lon="0.7331">
        <ele>97.5</ele>
        <time>2020-06-18T09:43:04Z</time>
      </trkpt>
      <trkpt lat="49.80296" lon="0.73319">
        <ele>97.6</ele>
        <time>2020-06-18T09:43:05Z</time>
      </trkpt>
      <trkpt lat="49.80297" lon="0.73329">
        <ele>97.5</ele>
        <time>2020-06-18T09:43:06Z</time>
      </trkpt>
      <trkpt lat="49.80298" lon="0.73337">
        <ele>97.4</ele>
        <time>2020-06-18T09:43:07Z</time>
      </trkpt>
      <trkpt lat="49.80299" lon="0.73346">
        <ele>97.2</ele>
        <time>2020-06-18T09:43:08Z</time>
      </trkpt>
      <trkpt lat="49.803" lon="0.73353">
        <ele>97.2</ele>
        <time>2020-06-18T09:43:09Z</time>
      </trkpt>
      <trkpt lat="49.80301" lon="0.73365">
        <ele>97.1</ele>
        <time>2020-06-18T09:43:10Z</time>
      </trkpt>
      <trkpt lat="49.80302" lon="0.73376">
        <ele>97.1</ele>
        <time>2020-06-18T09:43:11Z</time>
      </trkpt>
      <trkpt lat="49.80303" lon="0.73386">
        <ele>97.1</ele>
        <time>2020-06-18T09:43:12Z</time>
      </trkpt>
      <trkpt lat="49.80304" lon="0.73397">
        <ele>97.1</ele>
        <time>2020-06-18T09:43:13Z</time>
      </trkpt>
      <trkpt lat="49.80305" lon="0.73407">
        <ele>97.1</ele>
        <time>2020-06-18T09:43:14Z</time>
      </trkpt>
      <trkpt lat="49.80305" lon="0.73417">
        <ele>97.1</ele>
        <time>2020-06-18T09:43:15Z</time>
      </trkpt>
      <trkpt lat="49.80305" lon="0.73425">
        <ele>97.2</ele>
        <time>2020-06-18T09:43:16Z</time>
      </trkpt>
      <trkpt lat="49.80306" lon="0.73434">
        <ele>97.2</ele>
        <time>2020-06-18T09:43:17Z</time>
      </trkpt>
      <trkpt lat="49.80307" lon="0.73442">
        <ele>97.2</ele>
        <time>2020-06-18T09:43:18Z</time>
      </trkpt>
      <trkpt lat="49.80307" lon="0.7345">
        <ele>97.2</ele>
        <time>2020-06-18T09:43:19Z</time>
      </trkpt>
      <trkpt lat="49.80308" lon="0.73457">
        <ele>97.2</ele>
        <time>2020-06-18T09:43:20Z</time>
      </trkpt>
      <trkpt lat="49.80309" lon="0.73464">
        <ele>97.3</ele>
        <time>2020-06-18T09:43:21Z</time>
      </trkpt>
      <trkpt lat="49.8031" lon="0.73473">
        <ele>97.3</ele>
        <time>2020-06-18T09:43:22Z</time>
      </trkpt>
      <trkpt lat="49.80311" lon="0.73481">
        <ele>97.3</ele>
        <time>2020-06-18T09:43:23Z</time>
      </trkpt>
      <trkpt lat="49.80311" lon="0.73488">
        <ele>97.4</ele>
        <time>2020-06-18T09:43:24Z</time>
      </trkpt>
      <trkpt lat="49.80313" lon="0.73497">
        <ele>97.4</ele>
        <time>2020-06-18T09:43:25Z</time>
      </trkpt>
      <trkpt lat="49.80313" lon="0.73506">
        <ele>97.5</ele>
        <time>2020-06-18T09:43:26Z</time>
      </trkpt>
      <trkpt lat="49.80314" lon="0.73515">
        <ele>97.5</ele>
        <time>2020-06-18T09:43:27Z</time>
      </trkpt>
      <trkpt lat="49.80315" lon="0.73522">
        <ele>97.6</ele>
        <time>2020-06-18T09:43:28Z</time>
      </trkpt>
      <trkpt lat="49.80315" lon="0.73531">
        <ele>97.6</ele>
        <time>2020-06-18T09:43:29Z</time>
      </trkpt>
      <trkpt lat="49.80315" lon="0.73539">
        <ele>97.5</ele>
        <time>2020-06-18T09:43:30Z</time>
      </trkpt>
      <trkpt lat="49.80315" lon="0.73547">
        <ele>97.5</ele>
        <time>2020-06-18T09:43:31Z</time>
      </trkpt>
      <trkpt lat="49.80315" lon="0.73555">
        <ele>97.5</ele>
        <time>2020-06-18T09:43:32Z</time>
      </trkpt>
      <trkpt lat="49.80316" lon="0.73565">
        <ele>97.5</ele>
        <time>2020-06-18T09:43:33Z</time>
      </trkpt>
      <trkpt lat="49.80316" lon="0.73575">
        <ele>97.6</ele>
        <time>2020-06-18T09:43:34Z</time>
      </trkpt>
      <trkpt lat="49.80317" lon="0.73584">
        <ele>97.6</ele>
        <time>2020-06-18T09:43:35Z</time>
      </trkpt>
      <trkpt lat="49.80319" lon="0.73594">
        <ele>97.6</ele>
        <time>2020-06-18T09:43:36Z</time>
      </trkpt>
      <trkpt lat="49.8032" lon="0.73602">
        <ele>97.6</ele>
        <time>2020-06-18T09:43:37Z</time>
      </trkpt>
      <trkpt lat="49.80321" lon="0.7361">
        <ele>97.6</ele>
        <time>2020-06-18T09:43:38Z</time>
      </trkpt>
      <trkpt lat="49.80322" lon="0.7362">
        <ele>97.7</ele>
        <time>2020-06-18T09:43:39Z</time>
      </trkpt>
      <trkpt lat="49.80323" lon="0.73628">
        <ele>97.7</ele>
        <time>2020-06-18T09:43:40Z</time>
      </trkpt>
      <trkpt lat="49.80324" lon="0.73637">
        <ele>97.7</ele>
        <time>2020-06-18T09:43:41Z</time>
      </trkpt>
      <trkpt lat="49.80325" lon="0.73646">
        <ele>97.6</ele>
        <time>2020-06-18T09:43:42Z</time>
      </trkpt>
      <trkpt lat="49.80326" lon="0.73657">
        <ele>97.5</ele>
        <time>2020-06-18T09:43:43Z</time>
      </trkpt>
      <trkpt lat="49.80328" lon="0.73668">
        <ele>97.3</ele>
        <time>2020-06-18T09:43:44Z</time>
      </trkpt>
      <trkpt lat="49.80331" lon="0.73677">
        <ele>97.1</ele>
        <time>2020-06-18T09:43:45Z</time>
      </trkpt>
      <trkpt lat="49.80334" lon="0.73687">
        <ele>97</ele>
        <time>2020-06-18T09:43:46Z</time>
      </trkpt>
      <trkpt lat="49.80336" lon="0.73696">
        <ele>96.9</ele>
        <time>2020-06-18T09:43:47Z</time>
      </trkpt>
      <trkpt lat="49.80338" lon="0.73707">
        <ele>96.9</ele>
        <time>2020-06-18T09:43:48Z</time>
      </trkpt>
      <trkpt lat="49.80341" lon="0.73717">
        <ele>96.8</ele>
        <time>2020-06-18T09:43:49Z</time>
      </trkpt>
      <trkpt lat="49.80344" lon="0.73728">
        <ele>96.8</ele>
        <time>2020-06-18T09:43:50Z</time>
      </trkpt>
      <trkpt lat="49.80346" lon="0.73737">
        <ele>96.7</ele>
        <time>2020-06-18T09:43:51Z</time>
      </trkpt>
      <trkpt lat="49.80349" lon="0.73747">
        <ele>96.7</ele>
        <time>2020-06-18T09:43:52Z</time>
      </trkpt>
      <trkpt lat="49.80351" lon="0.73756">
        <ele>96.6</ele>
        <time>2020-06-18T09:43:53Z</time>
      </trkpt>
      <trkpt lat="49.80353" lon="0.73765">
        <ele>96.5</ele>
        <time>2020-06-18T09:43:54Z</time>
      </trkpt>
      <trkpt lat="49.80356" lon="0.73774">
        <ele>96.5</ele>
        <time>2020-06-18T09:43:55Z</time>
      </trkpt>
      <trkpt lat="49.80358" lon="0.73782">
        <ele>96.4</ele>
        <time>2020-06-18T09:43:56Z</time>
      </trkpt>
      <trkpt lat="49.8036" lon="0.7379">
        <ele>96.3</ele>
        <time>2020-06-18T09:43:57Z</time>
      </trkpt>
      <trkpt lat="49.80363" lon="0.73799">
        <ele>96.2</ele>
        <time>2020-06-18T09:43:58Z</time>
      </trkpt>
      <trkpt lat="49.80365" lon="0.73806">
        <ele>96.2</ele>
        <time>2020-06-18T09:43:59Z</time>
      </trkpt>
      <trkpt lat="49.80368" lon="0.73814">
        <ele>96.1</ele>
        <time>2020-06-18T09:44:00Z</time>
      </trkpt>
      <trkpt lat="49.8037" lon="0.73822">
        <ele>96</ele>
        <time>2020-06-18T09:44:01Z</time>
      </trkpt>
      <trkpt lat="49.80372" lon="0.7383">
        <ele>95.9</ele>
        <time>2020-06-18T09:44:02Z</time>
      </trkpt>
      <trkpt lat="49.80374" lon="0.73839">
        <ele>95.8</ele>
        <time>2020-06-18T09:44:03Z</time>
      </trkpt>
      <trkpt lat="49.80377" lon="0.73847">
        <ele>95.8</ele>
        <time>2020-06-18T09:44:04Z</time>
      </trkpt>
      <trkpt lat="49.80379" lon="0.73856">
        <ele>95.7</ele>
        <time>2020-06-18T09:44:05Z</time>
      </trkpt>
      <trkpt lat="49.80381" lon="0.73864">
        <ele>95.5</ele>
        <time>2020-06-18T09:44:06Z</time>
      </trkpt>
      <trkpt lat="49.80383" lon="0.73873">
        <ele>95.4</ele>
        <time>2020-06-18T09:44:07Z</time>
      </trkpt>
      <trkpt lat="49.80385" lon="0.73882">
        <ele>95.2</ele>
        <time>2020-06-18T09:44:08Z</time>
      </trkpt>
      <trkpt lat="49.80387" lon="0.7389">
        <ele>95</ele>
        <time>2020-06-18T09:44:09Z</time>
      </trkpt>
      <trkpt lat="49.8039" lon="0.73899">
        <ele>94.8</ele>
        <time>2020-06-18T09:44:10Z</time>
      </trkpt>
      <trkpt lat="49.80392" lon="0.73908">
        <ele>94.6</ele>
        <time>2020-06-18T09:44:11Z</time>
      </trkpt>
      <trkpt lat="49.80394" lon="0.73916">
        <ele>94.4</ele>
        <time>2020-06-18T09:44:12Z</time>
      </trkpt>
      <trkpt lat="49.80397" lon="0.73925">
        <ele>94.2</ele>
        <time>2020-06-18T09:44:13Z</time>
      </trkpt>
      <trkpt lat="49.80399" lon="0.73934">
        <ele>94</ele>
        <time>2020-06-18T09:44:14Z</time>
      </trkpt>
      <trkpt lat="49.804" lon="0.73943">
        <ele>93.8</ele>
        <time>2020-06-18T09:44:15Z</time>
      </trkpt>
      <trkpt lat="49.80403" lon="0.73953">
        <ele>93.6</ele>
        <time>2020-06-18T09:44:16Z</time>
      </trkpt>
      <trkpt lat="49.80406" lon="0.73962">
        <ele>93.3</ele>
        <time>2020-06-18T09:44:17Z</time>
      </trkpt>
      <trkpt lat="49.80409" lon="0.73971">
        <ele>93.1</ele>
        <time>2020-06-18T09:44:18Z</time>
      </trkpt>
      <trkpt lat="49.80413" lon="0.73981">
        <ele>92.8</ele>
        <time>2020-06-18T09:44:19Z</time>
      </trkpt>
      <trkpt lat="49.80416" lon="0.73991">
        <ele>92.6</ele>
        <time>2020-06-18T09:44:20Z</time>
      </trkpt>
      <trkpt lat="49.80418" lon="0.74002">
        <ele>92.3</ele>
        <time>2020-06-18T09:44:21Z</time>
      </trkpt>
      <trkpt lat="49.80421" lon="0.74012">
        <ele>92</ele>
        <time>2020-06-18T09:44:22Z</time>
      </trkpt>
      <trkpt lat="49.80423" lon="0.74024">
        <ele>91.6</ele>
        <time>2020-06-18T09:44:23Z</time>
      </trkpt>
      <trkpt lat="49.80426" lon="0.74035">
        <ele>91.3</ele>
        <time>2020-06-18T09:44:24Z</time>
      </trkpt>
      <trkpt lat="49.80428" lon="0.74047">
        <ele>90.9</ele>
        <time>2020-06-18T09:44:25Z</time>
      </trkpt>
      <trkpt lat="49.80431" lon="0.74058">
        <ele>90.6</ele>
        <time>2020-06-18T09:44:26Z</time>
      </trkpt>
      <trkpt lat="49.80435" lon="0.7407">
        <ele>90.3</ele>
        <time>2020-06-18T09:44:27Z</time>
      </trkpt>
      <trkpt lat="49.80438" lon="0.74082">
        <ele>90</ele>
        <time>2020-06-18T09:44:28Z</time>
      </trkpt>
      <trkpt lat="49.80441" lon="0.74094">
        <ele>89.7</ele>
        <time>2020-06-18T09:44:29Z</time>
      </trkpt>
      <trkpt lat="49.80444" lon="0.74106">
        <ele>89.3</ele>
        <time>2020-06-18T09:44:30Z</time>
      </trkpt>
      <trkpt lat="49.80447" lon="0.74119">
        <ele>88.8</ele>
        <time>2020-06-18T09:44:31Z</time>
      </trkpt>
      <trkpt lat="49.80451" lon="0.74132">
        <ele>88</ele>
        <time>2020-06-18T09:44:32Z</time>
      </trkpt>
      <trkpt lat="49.80454" lon="0.74144">
        <ele>87.6</ele>
        <time>2020-06-18T09:44:33Z</time>
      </trkpt>
      <trkpt lat="49.80457" lon="0.74157">
        <ele>87.1</ele>
        <time>2020-06-18T09:44:34Z</time>
      </trkpt>
      <trkpt lat="49.8046" lon="0.7417">
        <ele>86.6</ele>
        <time>2020-06-18T09:44:35Z</time>
      </trkpt>
      <trkpt lat="49.80464" lon="0.74184">
        <ele>86.2</ele>
        <time>2020-06-18T09:44:36Z</time>
      </trkpt>
      <trkpt lat="49.80467" lon="0.74197">
        <ele>85.7</ele>
        <time>2020-06-18T09:44:37Z</time>
      </trkpt>
      <trkpt lat="49.80471" lon="0.7421">
        <ele>85.2</ele>
        <time>2020-06-18T09:44:38Z</time>
      </trkpt>
      <trkpt lat="49.80475" lon="0.74223">
        <ele>84.8</ele>
        <time>2020-06-18T09:44:39Z</time>
      </trkpt>
      <trkpt lat="49.80479" lon="0.74236">
        <ele>84.4</ele>
        <time>2020-06-18T09:44:40Z</time>
      </trkpt>
      <trkpt lat="49.80483" lon="0.74249">
        <ele>84</ele>
        <time>2020-06-18T09:44:41Z</time>
      </trkpt>
      <trkpt lat="49.80488" lon="0.74261">
        <ele>83.5</ele>
        <time>2020-06-18T09:44:42Z</time>
      </trkpt>
      <trkpt lat="49.80493" lon="0.74274">
        <ele>83</ele>
        <time>2020-06-18T09:44:43Z</time>
      </trkpt>
      <trkpt lat="49.80498" lon="0.74286">
        <ele>82.5</ele>
        <time>2020-06-18T09:44:44Z</time>
      </trkpt>
      <trkpt lat="49.80503" lon="0.74299">
        <ele>81.9</ele>
        <time>2020-06-18T09:44:45Z</time>
      </trkpt>
      <trkpt lat="49.80508" lon="0.74311">
        <ele>81.4</ele>
        <time>2020-06-18T09:44:46Z</time>
      </trkpt>
      <trkpt lat="49.80514" lon="0.74322">
        <ele>80.9</ele>
        <time>2020-06-18T09:44:47Z</time>
      </trkpt>
      <trkpt lat="49.8052" lon="0.74334">
        <ele>80.5</ele>
        <time>2020-06-18T09:44:48Z</time>
      </trkpt>
      <trkpt lat="49.80526" lon="0.74345">
        <ele>80.1</ele>
        <time>2020-06-18T09:44:49Z</time>
      </trkpt>
      <trkpt lat="49.80533" lon="0.74357">
        <ele>79.6</ele>
        <time>2020-06-18T09:44:50Z</time>
      </trkpt>
      <trkpt lat="49.80539" lon="0.74368">
        <ele>79.1</ele>
        <time>2020-06-18T09:44:51Z</time>
      </trkpt>
      <trkpt lat="49.80546" lon="0.7438">
        <ele>78.8</ele>
        <time>2020-06-18T09:44:52Z</time>
      </trkpt>
      <trkpt lat="49.80552" lon="0.74391">
        <ele>78.5</ele>
        <time>2020-06-18T09:44:53Z</time>
      </trkpt>
      <trkpt lat="49.80558" lon="0.74402">
        <ele>78.2</ele>
        <time>2020-06-18T09:44:54Z</time>
      </trkpt>
      <trkpt lat="49.80564" lon="0.74414">
        <ele>77.9</ele>
        <time>2020-06-18T09:44:55Z</time>
      </trkpt>
      <trkpt lat="49.8057" lon="0.74425">
        <ele>77.8</ele>
        <time>2020-06-18T09:44:56Z</time>
      </trkpt>
      <trkpt lat="49.80576" lon="0.74436">
        <ele>77.6</ele>
        <time>2020-06-18T09:44:57Z</time>
      </trkpt>
      <trkpt lat="49.80582" lon="0.74448">
        <ele>77.5</ele>
        <time>2020-06-18T09:44:58Z</time>
      </trkpt>
      <trkpt lat="49.80587" lon="0.74459">
        <ele>77.5</ele>
        <time>2020-06-18T09:44:59Z</time>
      </trkpt>
      <trkpt lat="49.80591" lon="0.74471">
        <ele>77.4</ele>
        <time>2020-06-18T09:45:00Z</time>
      </trkpt>
      <trkpt lat="49.80594" lon="0.74483">
        <ele>77.5</ele>
        <time>2020-06-18T09:45:01Z</time>
      </trkpt>
      <trkpt lat="49.80596" lon="0.74495">
        <ele>77.7</ele>
        <time>2020-06-18T09:45:02Z</time>
      </trkpt>
      <trkpt lat="49.80597" lon="0.74506">
        <ele>77.9</ele>
        <time>2020-06-18T09:45:03Z</time>
      </trkpt>
      <trkpt lat="49.80598" lon="0.74518">
        <ele>78.2</ele>
        <time>2020-06-18T09:45:04Z</time>
      </trkpt>
      <trkpt lat="49.80599" lon="0.74528">
        <ele>78.5</ele>
        <time>2020-06-18T09:45:05Z</time>
      </trkpt>
      <trkpt lat="49.806" lon="0.74538">
        <ele>78.8</ele>
        <time>2020-06-18T09:45:06Z</time>
      </trkpt>
      <trkpt lat="49.806" lon="0.74547">
        <ele>79.1</ele>
        <time>2020-06-18T09:45:07Z</time>
      </trkpt>
      <trkpt lat="49.80598" lon="0.74556">
        <ele>79.4</ele>
        <time>2020-06-18T09:45:08Z</time>
      </trkpt>
      <trkpt lat="49.80597" lon="0.74565">
        <ele>79.7</ele>
        <time>2020-06-18T09:45:09Z</time>
      </trkpt>
      <trkpt lat="49.80596" lon="0.74575">
        <ele>79.9</ele>
        <time>2020-06-18T09:45:10Z</time>
      </trkpt>
      <trkpt lat="49.80594" lon="0.74584">
        <ele>80.2</ele>
        <time>2020-06-18T09:45:11Z</time>
      </trkpt>
      <trkpt lat="49.80593" lon="0.74593">
        <ele>80.5</ele>
        <time>2020-06-18T09:45:12Z</time>
      </trkpt>
      <trkpt lat="49.80593" lon="0.74601">
        <ele>80.8</ele>
        <time>2020-06-18T09:45:13Z</time>
      </trkpt>
      <trkpt lat="49.80592" lon="0.74609">
        <ele>81</ele>
        <time>2020-06-18T09:45:14Z</time>
      </trkpt>
      <trkpt lat="49.80591" lon="0.74616">
        <ele>81.3</ele>
        <time>2020-06-18T09:45:15Z</time>
      </trkpt>
      <trkpt lat="49.8059" lon="0.74624">
        <ele>81.5</ele>
        <time>2020-06-18T09:45:16Z</time>
      </trkpt>
      <trkpt lat="49.8059" lon="0.74632">
        <ele>81.7</ele>
        <time>2020-06-18T09:45:17Z</time>
      </trkpt>
      <trkpt lat="49.8059" lon="0.74639">
        <ele>82</ele>
        <time>2020-06-18T09:45:18Z</time>
      </trkpt>
      <trkpt lat="49.80589" lon="0.74647">
        <ele>82.2</ele>
        <time>2020-06-18T09:45:19Z</time>
      </trkpt>
      <trkpt lat="49.80588" lon="0.74653">
        <ele>82.4</ele>
        <time>2020-06-18T09:45:20Z</time>
      </trkpt>
      <trkpt lat="49.80587" lon="0.7466">
        <ele>82.6</ele>
        <time>2020-06-18T09:45:21Z</time>
      </trkpt>
      <trkpt lat="49.80588" lon="0.74667">
        <ele>82.9</ele>
        <time>2020-06-18T09:45:22Z</time>
      </trkpt>
      <trkpt lat="49.80588" lon="0.74673">
        <ele>83.1</ele>
        <time>2020-06-18T09:45:23Z</time>
      </trkpt>
      <trkpt lat="49.80588" lon="0.74679">
        <ele>83.3</ele>
        <time>2020-06-18T09:45:24Z</time>
      </trkpt>
      <trkpt lat="49.80587" lon="0.74685">
        <ele>83.5</ele>
        <time>2020-06-18T09:45:25Z</time>
      </trkpt>
      <trkpt lat="49.80587" lon="0.74691">
        <ele>83.7</ele>
        <time>2020-06-18T09:45:26Z</time>
      </trkpt>
      <trkpt lat="49.80588" lon="0.74697">
        <ele>83.9</ele>
        <time>2020-06-18T09:45:27Z</time>
      </trkpt>
      <trkpt lat="49.80588" lon="0.74703">
        <ele>84.1</ele>
        <time>2020-06-18T09:45:28Z</time>
      </trkpt>
      <trkpt lat="49.8059" lon="0.74709">
        <ele>84.3</ele>
        <time>2020-06-18T09:45:29Z</time>
      </trkpt>
      <trkpt lat="49.80591" lon="0.74714">
        <ele>84.5</ele>
        <time>2020-06-18T09:45:30Z</time>
      </trkpt>
      <trkpt lat="49.80592" lon="0.7472">
        <ele>84.7</ele>
        <time>2020-06-18T09:45:31Z</time>
      </trkpt>
      <trkpt lat="49.80594" lon="0.74726">
        <ele>84.9</ele>
        <time>2020-06-18T09:45:32Z</time>
      </trkpt>
      <trkpt lat="49.80595" lon="0.74731">
        <ele>85.1</ele>
        <time>2020-06-18T09:45:33Z</time>
      </trkpt>
      <trkpt lat="49.80596" lon="0.74736">
        <ele>85.3</ele>
        <time>2020-06-18T09:45:34Z</time>
      </trkpt>
      <trkpt lat="49.80598" lon="0.74742">
        <ele>85.5</ele>
        <time>2020-06-18T09:45:35Z</time>
      </trkpt>
      <trkpt lat="49.80599" lon="0.74747">
        <ele>85.7</ele>
        <time>2020-06-18T09:45:36Z</time>
      </trkpt>
      <trkpt lat="49.806" lon="0.74753">
        <ele>85.9</ele>
        <time>2020-06-18T09:45:37Z</time>
      </trkpt>
      <trkpt lat="49.80601" lon="0.74759">
        <ele>86.1</ele>
        <time>2020-06-18T09:45:38Z</time>
      </trkpt>
      <trkpt lat="49.80602" lon="0.74765">
        <ele>86.3</ele>
        <time>2020-06-18T09:45:39Z</time>
      </trkpt>
      <trkpt lat="49.80604" lon="0.7477">
        <ele>86.5</ele>
        <time>2020-06-18T09:45:40Z</time>
      </trkpt>
      <trkpt lat="49.80605" lon="0.74776">
        <ele>86.7</ele>
        <time>2020-06-18T09:45:41Z</time>
      </trkpt>
      <trkpt lat="49.80608" lon="0.74783">
        <ele>87</ele>
        <time>2020-06-18T09:45:42Z</time>
      </trkpt>
      <trkpt lat="49.80609" lon="0.74788">
        <ele>87.2</ele>
        <time>2020-06-18T09:45:43Z</time>
      </trkpt>
      <trkpt lat="49.80611" lon="0.74795">
        <ele>87.4</ele>
        <time>2020-06-18T09:45:44Z</time>
      </trkpt>
      <trkpt lat="49.80613" lon="0.74802">
        <ele>87.6</ele>
        <time>2020-06-18T09:45:45Z</time>
      </trkpt>
      <trkpt lat="49.80615" lon="0.74809">
        <ele>87.8</ele>
        <time>2020-06-18T09:45:46Z</time>
      </trkpt>
      <trkpt lat="49.80617" lon="0.74814">
        <ele>88</ele>
        <time>2020-06-18T09:45:47Z</time>
      </trkpt>
      <trkpt lat="49.80618" lon="0.7482">
        <ele>88.2</ele>
        <time>2020-06-18T09:45:48Z</time>
      </trkpt>
      <trkpt lat="49.80621" lon="0.74825">
        <ele>88.4</ele>
        <time>2020-06-18T09:45:49Z</time>
      </trkpt>
      <trkpt lat="49.80623" lon="0.74831">
        <ele>88.6</ele>
        <time>2020-06-18T09:45:50Z</time>
      </trkpt>
      <trkpt lat="49.80625" lon="0.74837">
        <ele>88.9</ele>
        <time>2020-06-18T09:45:51Z</time>
      </trkpt>
      <trkpt lat="49.80627" lon="0.74842">
        <ele>89.1</ele>
        <time>2020-06-18T09:45:52Z</time>
      </trkpt>
      <trkpt lat="49.80629" lon="0.7485">
        <ele>89.4</ele>
        <time>2020-06-18T09:45:53Z</time>
      </trkpt>
      <trkpt lat="49.80631" lon="0.74856">
        <ele>89.6</ele>
        <time>2020-06-18T09:45:54Z</time>
      </trkpt>
      <trkpt lat="49.80634" lon="0.74862">
        <ele>89.8</ele>
        <time>2020-06-18T09:45:55Z</time>
      </trkpt>
      <trkpt lat="49.80635" lon="0.74868">
        <ele>90.1</ele>
        <time>2020-06-18T09:45:56Z</time>
      </trkpt>
      <trkpt lat="49.80637" lon="0.74873">
        <ele>90.3</ele>
        <time>2020-06-18T09:45:57Z</time>
      </trkpt>
      <trkpt lat="49.80639" lon="0.74879">
        <ele>90.5</ele>
        <time>2020-06-18T09:45:58Z</time>
      </trkpt>
      <trkpt lat="49.80641" lon="0.74884">
        <ele>90.7</ele>
        <time>2020-06-18T09:45:59Z</time>
      </trkpt>
      <trkpt lat="49.80643" lon="0.7489">
        <ele>90.9</ele>
        <time>2020-06-18T09:46:00Z</time>
      </trkpt>
      <trkpt lat="49.80645" lon="0.74897">
        <ele>91.1</ele>
        <time>2020-06-18T09:46:01Z</time>
      </trkpt>
      <trkpt lat="49.80648" lon="0.74902">
        <ele>91.3</ele>
        <time>2020-06-18T09:46:02Z</time>
      </trkpt>
      <trkpt lat="49.8065" lon="0.74909">
        <ele>91.5</ele>
        <time>2020-06-18T09:46:03Z</time>
      </trkpt>
      <trkpt lat="49.80653" lon="0.74915">
        <ele>91.7</ele>
        <time>2020-06-18T09:46:04Z</time>
      </trkpt>
      <trkpt lat="49.80654" lon="0.74921">
        <ele>91.9</ele>
        <time>2020-06-18T09:46:05Z</time>
      </trkpt>
      <trkpt lat="49.80657" lon="0.74927">
        <ele>92.1</ele>
        <time>2020-06-18T09:46:06Z</time>
      </trkpt>
      <trkpt lat="49.80659" lon="0.74934">
        <ele>92.3</ele>
        <time>2020-06-18T09:46:07Z</time>
      </trkpt>
      <trkpt lat="49.80661" lon="0.7494">
        <ele>92.5</ele>
        <time>2020-06-18T09:46:08Z</time>
      </trkpt>
      <trkpt lat="49.80663" lon="0.74945">
        <ele>92.7</ele>
        <time>2020-06-18T09:46:09Z</time>
      </trkpt>
      <trkpt lat="49.80665" lon="0.74951">
        <ele>92.8</ele>
        <time>2020-06-18T09:46:10Z</time>
      </trkpt>
      <trkpt lat="49.80668" lon="0.74958">
        <ele>93</ele>
        <time>2020-06-18T09:46:11Z</time>
      </trkpt>
      <trkpt lat="49.8067" lon="0.74964">
        <ele>93.2</ele>
        <time>2020-06-18T09:46:12Z</time>
      </trkpt>
      <trkpt lat="49.80671" lon="0.74968">
        <ele>93.3</ele>
        <time>2020-06-18T09:46:13Z</time>
      </trkpt>
      <trkpt lat="49.80674" lon="0.74975">
        <ele>93.5</ele>
        <time>2020-06-18T09:46:14Z</time>
      </trkpt>
      <trkpt lat="49.80675" lon="0.7498">
        <ele>93.6</ele>
        <time>2020-06-18T09:46:15Z</time>
      </trkpt>
      <trkpt lat="49.80677" lon="0.74986">
        <ele>93.8</ele>
        <time>2020-06-18T09:46:16Z</time>
      </trkpt>
      <trkpt lat="49.8068" lon="0.74992">
        <ele>94</ele>
        <time>2020-06-18T09:46:17Z</time>
      </trkpt>
      <trkpt lat="49.80682" lon="0.74996">
        <ele>94.1</ele>
        <time>2020-06-18T09:46:18Z</time>
      </trkpt>
      <trkpt lat="49.80684" lon="0.75002">
        <ele>94.2</ele>
        <time>2020-06-18T09:46:19Z</time>
      </trkpt>
      <trkpt lat="49.80686" lon="0.75008">
        <ele>94.3</ele>
        <time>2020-06-18T09:46:20Z</time>
      </trkpt>
      <trkpt lat="49.80689" lon="0.75015">
        <ele>94.5</ele>
        <time>2020-06-18T09:46:21Z</time>
      </trkpt>
      <trkpt lat="49.80691" lon="0.75022">
        <ele>94.6</ele>
        <time>2020-06-18T09:46:22Z</time>
      </trkpt>
      <trkpt lat="49.80692" lon="0.75028">
        <ele>94.7</ele>
        <time>2020-06-18T09:46:23Z</time>
      </trkpt>
      <trkpt lat="49.80694" lon="0.75034">
        <ele>94.8</ele>
        <time>2020-06-18T09:46:24Z</time>
      </trkpt>
      <trkpt lat="49.80696" lon="0.7504">
        <ele>94.9</ele>
        <time>2020-06-18T09:46:25Z</time>
      </trkpt>
      <trkpt lat="49.80698" lon="0.75047">
        <ele>95</ele>
        <time>2020-06-18T09:46:26Z</time>
      </trkpt>
      <trkpt lat="49.807" lon="0.75053">
        <ele>95.1</ele>
        <time>2020-06-18T09:46:27Z</time>
      </trkpt>
      <trkpt lat="49.80703" lon="0.75059">
        <ele>95.2</ele>
        <time>2020-06-18T09:46:28Z</time>
      </trkpt>
      <trkpt lat="49.80706" lon="0.75066">
        <ele>95.3</ele>
        <time>2020-06-18T09:46:29Z</time>
      </trkpt>
      <trkpt lat="49.80708" lon="0.7507">
        <ele>95.3</ele>
        <time>2020-06-18T09:46:30Z</time>
      </trkpt>
      <trkpt lat="49.8071" lon="0.75077">
        <ele>95.4</ele>
        <time>2020-06-18T09:46:31Z</time>
      </trkpt>
      <trkpt lat="49.80713" lon="0.75081">
        <ele>95.4</ele>
        <time>2020-06-18T09:46:32Z</time>
      </trkpt>
      <trkpt lat="49.80715" lon="0.75087">
        <ele>95.5</ele>
        <time>2020-06-18T09:46:33Z</time>
      </trkpt>
      <trkpt lat="49.80718" lon="0.75093">
        <ele>95.5</ele>
        <time>2020-06-18T09:46:34Z</time>
      </trkpt>
      <trkpt lat="49.8072" lon="0.75099">
        <ele>95.6</ele>
        <time>2020-06-18T09:46:35Z</time>
      </trkpt>
      <trkpt lat="49.80723" lon="0.75106">
        <ele>95.7</ele>
        <time>2020-06-18T09:46:36Z</time>
      </trkpt>
      <trkpt lat="49.80725" lon="0.75113">
        <ele>95.7</ele>
        <time>2020-06-18T09:46:37Z</time>
      </trkpt>
      <trkpt lat="49.80727" lon="0.7512">
        <ele>95.8</ele>
        <time>2020-06-18T09:46:38Z</time>
      </trkpt>
      <trkpt lat="49.8073" lon="0.75126">
        <ele>95.8</ele>
        <time>2020-06-18T09:46:39Z</time>
      </trkpt>
      <trkpt lat="49.80733" lon="0.75132">
        <ele>95.9</ele>
        <time>2020-06-18T09:46:40Z</time>
      </trkpt>
      <trkpt lat="49.80735" lon="0.75138">
        <ele>95.9</ele>
        <time>2020-06-18T09:46:41Z</time>
      </trkpt>
      <trkpt lat="49.80738" lon="0.75145">
        <ele>96</ele>
        <time>2020-06-18T09:46:42Z</time>
      </trkpt>
      <trkpt lat="49.8074" lon="0.7515">
        <ele>96</ele>
        <time>2020-06-18T09:46:43Z</time>
      </trkpt>
      <trkpt lat="49.80742" lon="0.75156">
        <ele>96</ele>
        <time>2020-06-18T09:46:44Z</time>
      </trkpt>
      <trkpt lat="49.80745" lon="0.75163">
        <ele>96.1</ele>
        <time>2020-06-18T09:46:45Z</time>
      </trkpt>
      <trkpt lat="49.80748" lon="0.75168">
        <ele>96.1</ele>
        <time>2020-06-18T09:46:46Z</time>
      </trkpt>
      <trkpt lat="49.8075" lon="0.75174">
        <ele>96.2</ele>
        <time>2020-06-18T09:46:47Z</time>
      </trkpt>
      <trkpt lat="49.80752" lon="0.7518">
        <ele>96.2</ele>
        <time>2020-06-18T09:46:48Z</time>
      </trkpt>
      <trkpt lat="49.80754" lon="0.75187">
        <ele>96.3</ele>
        <time>2020-06-18T09:46:49Z</time>
      </trkpt>
      <trkpt lat="49.80757" lon="0.75193">
        <ele>96.3</ele>
        <time>2020-06-18T09:46:50Z</time>
      </trkpt>
      <trkpt lat="49.80759" lon="0.75199">
        <ele>96.4</ele>
        <time>2020-06-18T09:46:51Z</time>
      </trkpt>
      <trkpt lat="49.80761" lon="0.75205">
        <ele>96.4</ele>
        <time>2020-06-18T09:46:52Z</time>
      </trkpt>
      <trkpt lat="49.80762" lon="0.75211">
        <ele>96.4</ele>
        <time>2020-06-18T09:46:53Z</time>
      </trkpt>
      <trkpt lat="49.80764" lon="0.75217">
        <ele>96.5</ele>
        <time>2020-06-18T09:46:54Z</time>
      </trkpt>
      <trkpt lat="49.80767" lon="0.75224">
        <ele>96.5</ele>
        <time>2020-06-18T09:46:55Z</time>
      </trkpt>
      <trkpt lat="49.8077" lon="0.75231">
        <ele>96.6</ele>
        <time>2020-06-18T09:46:56Z</time>
      </trkpt>
      <trkpt lat="49.80772" lon="0.75238">
        <ele>96.7</ele>
        <time>2020-06-18T09:46:57Z</time>
      </trkpt>
      <trkpt lat="49.80775" lon="0.75244">
        <ele>96.7</ele>
        <time>2020-06-18T09:46:58Z</time>
      </trkpt>
      <trkpt lat="49.80777" lon="0.7525">
        <ele>96.8</ele>
        <time>2020-06-18T09:46:59Z</time>
      </trkpt>
      <trkpt lat="49.8078" lon="0.75257">
        <ele>96.9</ele>
        <time>2020-06-18T09:47:00Z</time>
      </trkpt>
      <trkpt lat="49.80782" lon="0.75263">
        <ele>97</ele>
        <time>2020-06-18T09:47:01Z</time>
      </trkpt>
      <trkpt lat="49.80785" lon="0.75269">
        <ele>97.1</ele>
        <time>2020-06-18T09:47:02Z</time>
      </trkpt>
      <trkpt lat="49.80787" lon="0.75276">
        <ele>97.2</ele>
        <time>2020-06-18T09:47:03Z</time>
      </trkpt>
      <trkpt lat="49.80788" lon="0.75284">
        <ele>97.3</ele>
        <time>2020-06-18T09:47:04Z</time>
      </trkpt>
      <trkpt lat="49.8079" lon="0.75291">
        <ele>97.4</ele>
        <time>2020-06-18T09:47:05Z</time>
      </trkpt>
      <trkpt lat="49.80791" lon="0.75298">
        <ele>97.5</ele>
        <time>2020-06-18T09:47:06Z</time>
      </trkpt>
      <trkpt lat="49.80792" lon="0.75306">
        <ele>97.6</ele>
        <time>2020-06-18T09:47:07Z</time>
      </trkpt>
      <trkpt lat="49.80794" lon="0.75314">
        <ele>97.7</ele>
        <time>2020-06-18T09:47:08Z</time>
      </trkpt>
      <trkpt lat="49.80796" lon="0.7532">
        <ele>97.6</ele>
        <time>2020-06-18T09:47:09Z</time>
      </trkpt>
      <trkpt lat="49.80797" lon="0.75325">
        <ele>97.6</ele>
        <time>2020-06-18T09:47:10Z</time>
      </trkpt>
      <trkpt lat="49.80798" lon="0.75332">
        <ele>97.7</ele>
        <time>2020-06-18T09:47:11Z</time>
      </trkpt>
      <trkpt lat="49.808" lon="0.75338">
        <ele>97.7</ele>
        <time>2020-06-18T09:47:12Z</time>
      </trkpt>
      <trkpt lat="49.80802" lon="0.75344">
        <ele>97.7</ele>
        <time>2020-06-18T09:47:13Z</time>
      </trkpt>
      <trkpt lat="49.80803" lon="0.7535">
        <ele>97.7</ele>
        <time>2020-06-18T09:47:14Z</time>
      </trkpt>
      <trkpt lat="49.80805" lon="0.75356">
        <ele>97.7</ele>
        <time>2020-06-18T09:47:15Z</time>
      </trkpt>
      <trkpt lat="49.80808" lon="0.75364">
        <ele>97.6</ele>
        <time>2020-06-18T09:47:16Z</time>
      </trkpt>
      <trkpt lat="49.8081" lon="0.7537">
        <ele>97.6</ele>
        <time>2020-06-18T09:47:17Z</time>
      </trkpt>
      <trkpt lat="49.80814" lon="0.75376">
        <ele>97.6</ele>
        <time>2020-06-18T09:47:18Z</time>
      </trkpt>
      <trkpt lat="49.80818" lon="0.75381">
        <ele>97.7</ele>
        <time>2020-06-18T09:47:19Z</time>
      </trkpt>
      <trkpt lat="49.80821" lon="0.75388">
        <ele>97.7</ele>
        <time>2020-06-18T09:47:20Z</time>
      </trkpt>
      <trkpt lat="49.80824" lon="0.75393">
        <ele>97.8</ele>
        <time>2020-06-18T09:47:21Z</time>
      </trkpt>
      <trkpt lat="49.80827" lon="0.75399">
        <ele>97.8</ele>
        <time>2020-06-18T09:47:22Z</time>
      </trkpt>
      <trkpt lat="49.80829" lon="0.75406">
        <ele>97.9</ele>
        <time>2020-06-18T09:47:23Z</time>
      </trkpt>
      <trkpt lat="49.80831" lon="0.75413">
        <ele>98</ele>
        <time>2020-06-18T09:47:24Z</time>
      </trkpt>
      <trkpt lat="49.80833" lon="0.7542">
        <ele>98.1</ele>
        <time>2020-06-18T09:47:25Z</time>
      </trkpt>
      <trkpt lat="49.80835" lon="0.75428">
        <ele>98.2</ele>
        <time>2020-06-18T09:47:26Z</time>
      </trkpt>
      <trkpt lat="49.80836" lon="0.75435">
        <ele>98.4</ele>
        <time>2020-06-18T09:47:27Z</time>
      </trkpt>
      <trkpt lat="49.80839" lon="0.75443">
        <ele>98.5</ele>
        <time>2020-06-18T09:47:28Z</time>
      </trkpt>
      <trkpt lat="49.80841" lon="0.75449">
        <ele>98.7</ele>
        <time>2020-06-18T09:47:29Z</time>
      </trkpt>
      <trkpt lat="49.80843" lon="0.75456">
        <ele>98.8</ele>
        <time>2020-06-18T09:47:30Z</time>
      </trkpt>
      <trkpt lat="49.80845" lon="0.75464">
        <ele>98.9</ele>
        <time>2020-06-18T09:47:31Z</time>
      </trkpt>
      <trkpt lat="49.80847" lon="0.75472">
        <ele>99.1</ele>
        <time>2020-06-18T09:47:32Z</time>
      </trkpt>
      <trkpt lat="49.8085" lon="0.7548">
        <ele>99.2</ele>
        <time>2020-06-18T09:47:33Z</time>
      </trkpt>
      <trkpt lat="49.80852" lon="0.75488">
        <ele>99.3</ele>
        <time>2020-06-18T09:47:34Z</time>
      </trkpt>
      <trkpt lat="49.80855" lon="0.75495">
        <ele>99.5</ele>
        <time>2020-06-18T09:47:35Z</time>
      </trkpt>
      <trkpt lat="49.80858" lon="0.75503">
        <ele>99.6</ele>
        <time>2020-06-18T09:47:36Z</time>
      </trkpt>
      <trkpt lat="49.80861" lon="0.75511">
        <ele>99.8</ele>
        <time>2020-06-18T09:47:37Z</time>
      </trkpt>
      <trkpt lat="49.80864" lon="0.7552">
        <ele>100</ele>
        <time>2020-06-18T09:47:38Z</time>
      </trkpt>
      <trkpt lat="49.80866" lon="0.75527">
        <ele>100.1</ele>
        <time>2020-06-18T09:47:39Z</time>
      </trkpt>
      <trkpt lat="49.80867" lon="0.75535">
        <ele>100.2</ele>
        <time>2020-06-18T09:47:40Z</time>
      </trkpt>
      <trkpt lat="49.80868" lon="0.75542">
        <ele>100.3</ele>
        <time>2020-06-18T09:47:41Z</time>
      </trkpt>
      <trkpt lat="49.8087" lon="0.7555">
        <ele>100.4</ele>
        <time>2020-06-18T09:47:42Z</time>
      </trkpt>
      <trkpt lat="49.80872" lon="0.75557">
        <ele>100.5</ele>
        <time>2020-06-18T09:47:43Z</time>
      </trkpt>
      <trkpt lat="49.80875" lon="0.75564">
        <ele>100.6</ele>
        <time>2020-06-18T09:47:44Z</time>
      </trkpt>
      <trkpt lat="49.80878" lon="0.75572">
        <ele>100.7</ele>
        <time>2020-06-18T09:47:45Z</time>
      </trkpt>
      <trkpt lat="49.8088" lon="0.75579">
        <ele>100.7</ele>
        <time>2020-06-18T09:47:46Z</time>
      </trkpt>
      <trkpt lat="49.80882" lon="0.75586">
        <ele>100.8</ele>
        <time>2020-06-18T09:47:47Z</time>
      </trkpt>
      <trkpt lat="49.80885" lon="0.75594">
        <ele>100.8</ele>
        <time>2020-06-18T09:47:48Z</time>
      </trkpt>
      <trkpt lat="49.80888" lon="0.75602">
        <ele>100.8</ele>
        <time>2020-06-18T09:47:49Z</time>
      </trkpt>
      <trkpt lat="49.8089" lon="0.75611">
        <ele>100.8</ele>
        <time>2020-06-18T09:47:50Z</time>
      </trkpt>
      <trkpt lat="49.80892" lon="0.7562">
        <ele>100.8</ele>
        <time>2020-06-18T09:47:51Z</time>
      </trkpt>
      <trkpt lat="49.80895" lon="0.75629">
        <ele>100.7</ele>
        <time>2020-06-18T09:47:52Z</time>
      </trkpt>
      <trkpt lat="49.80898" lon="0.75638">
        <ele>100.7</ele>
        <time>2020-06-18T09:47:53Z</time>
      </trkpt>
      <trkpt lat="49.80901" lon="0.75646">
        <ele>100.7</ele>
        <time>2020-06-18T09:47:54Z</time>
      </trkpt>
      <trkpt lat="49.80903" lon="0.75655">
        <ele>100.6</ele>
        <time>2020-06-18T09:47:55Z</time>
      </trkpt>
      <trkpt lat="49.80905" lon="0.75663">
        <ele>100.6</ele>
        <time>2020-06-18T09:47:56Z</time>
      </trkpt>
      <trkpt lat="49.80907" lon="0.75671">
        <ele>100.5</ele>
        <time>2020-06-18T09:47:57Z</time>
      </trkpt>
      <trkpt lat="49.8091" lon="0.7568">
        <ele>100.4</ele>
        <time>2020-06-18T09:47:58Z</time>
      </trkpt>
      <trkpt lat="49.80913" lon="0.75688">
        <ele>100.3</ele>
        <time>2020-06-18T09:47:59Z</time>
      </trkpt>
      <trkpt lat="49.80916" lon="0.75695">
        <ele>100.2</ele>
        <time>2020-06-18T09:48:00Z</time>
      </trkpt>
      <trkpt lat="49.80918" lon="0.75703">
        <ele>100.1</ele>
        <time>2020-06-18T09:48:01Z</time>
      </trkpt>
      <trkpt lat="49.80921" lon="0.75712">
        <ele>100</ele>
        <time>2020-06-18T09:48:02Z</time>
      </trkpt>
      <trkpt lat="49.80924" lon="0.7572">
        <ele>99.9</ele>
        <time>2020-06-18T09:48:03Z</time>
      </trkpt>
      <trkpt lat="49.80926" lon="0.75729">
        <ele>99.8</ele>
        <time>2020-06-18T09:48:04Z</time>
      </trkpt>
      <trkpt lat="49.8093" lon="0.75739">
        <ele>99.7</ele>
        <time>2020-06-18T09:48:05Z</time>
      </trkpt>
      <trkpt lat="49.80932" lon="0.75747">
        <ele>99.6</ele>
        <time>2020-06-18T09:48:06Z</time>
      </trkpt>
      <trkpt lat="49.80935" lon="0.75757">
        <ele>99.5</ele>
        <time>2020-06-18T09:48:07Z</time>
      </trkpt>
      <trkpt lat="49.80938" lon="0.75767">
        <ele>99.3</ele>
        <time>2020-06-18T09:48:08Z</time>
      </trkpt>
      <trkpt lat="49.8094" lon="0.75777">
        <ele>99</ele>
        <time>2020-06-18T09:48:09Z</time>
      </trkpt>
      <trkpt lat="49.80943" lon="0.75786">
        <ele>98.7</ele>
        <time>2020-06-18T09:48:10Z</time>
      </trkpt>
      <trkpt lat="49.80947" lon="0.75796">
        <ele>98.4</ele>
        <time>2020-06-18T09:48:11Z</time>
      </trkpt>
      <trkpt lat="49.8095" lon="0.75806">
        <ele>98.2</ele>
        <time>2020-06-18T09:48:12Z</time>
      </trkpt>
      <trkpt lat="49.80952" lon="0.75816">
        <ele>97.9</ele>
        <time>2020-06-18T09:48:13Z</time>
      </trkpt>
      <trkpt lat="49.80955" lon="0.75827">
        <ele>97.7</ele>
        <time>2020-06-18T09:48:14Z</time>
      </trkpt>
      <trkpt lat="49.80957" lon="0.75837">
        <ele>97.4</ele>
        <time>2020-06-18T09:48:15Z</time>
      </trkpt>
      <trkpt lat="49.8096" lon="0.75847">
        <ele>97.1</ele>
        <time>2020-06-18T09:48:16Z</time>
      </trkpt>
      <trkpt lat="49.80962" lon="0.75858">
        <ele>96.8</ele>
        <time>2020-06-18T09:48:17Z</time>
      </trkpt>
      <trkpt lat="49.80964" lon="0.75869">
        <ele>96.5</ele>
        <time>2020-06-18T09:48:18Z</time>
      </trkpt>
      <trkpt lat="49.80966" lon="0.7588">
        <ele>96.2</ele>
        <time>2020-06-18T09:48:19Z</time>
      </trkpt>
      <trkpt lat="49.80968" lon="0.75892">
        <ele>95.9</ele>
        <time>2020-06-18T09:48:20Z</time>
      </trkpt>
      <trkpt lat="49.8097" lon="0.75903">
        <ele>95.5</ele>
        <time>2020-06-18T09:48:21Z</time>
      </trkpt>
      <trkpt lat="49.80971" lon="0.75915">
        <ele>95.2</ele>
        <time>2020-06-18T09:48:22Z</time>
      </trkpt>
      <trkpt lat="49.80973" lon="0.75926">
        <ele>94.9</ele>
        <time>2020-06-18T09:48:23Z</time>
      </trkpt>
      <trkpt lat="49.80974" lon="0.75939">
        <ele>94.6</ele>
        <time>2020-06-18T09:48:24Z</time>
      </trkpt>
      <trkpt lat="49.80976" lon="0.75951">
        <ele>94.2</ele>
        <time>2020-06-18T09:48:25Z</time>
      </trkpt>
      <trkpt lat="49.80978" lon="0.75963">
        <ele>93.9</ele>
        <time>2020-06-18T09:48:26Z</time>
      </trkpt>
      <trkpt lat="49.80979" lon="0.75977">
        <ele>93.5</ele>
        <time>2020-06-18T09:48:27Z</time>
      </trkpt>
      <trkpt lat="49.80981" lon="0.7599">
        <ele>93.2</ele>
        <time>2020-06-18T09:48:28Z</time>
      </trkpt>
      <trkpt lat="49.80982" lon="0.76002">
        <ele>92.8</ele>
        <time>2020-06-18T09:48:29Z</time>
      </trkpt>
      <trkpt lat="49.80984" lon="0.76015">
        <ele>92.5</ele>
        <time>2020-06-18T09:48:30Z</time>
      </trkpt>
      <trkpt lat="49.80986" lon="0.76028">
        <ele>92.1</ele>
        <time>2020-06-18T09:48:31Z</time>
      </trkpt>
      <trkpt lat="49.80988" lon="0.76041">
        <ele>91.8</ele>
        <time>2020-06-18T09:48:32Z</time>
      </trkpt>
      <trkpt lat="49.80989" lon="0.76055">
        <ele>91.4</ele>
        <time>2020-06-18T09:48:33Z</time>
      </trkpt>
      <trkpt lat="49.80991" lon="0.76068">
        <ele>91</ele>
        <time>2020-06-18T09:48:34Z</time>
      </trkpt>
      <trkpt lat="49.80992" lon="0.76081">
        <ele>90.7</ele>
        <time>2020-06-18T09:48:35Z</time>
      </trkpt>
      <trkpt lat="49.80993" lon="0.76095">
        <ele>90.3</ele>
        <time>2020-06-18T09:48:36Z</time>
      </trkpt>
      <trkpt lat="49.80995" lon="0.76108">
        <ele>89.9</ele>
        <time>2020-06-18T09:48:37Z</time>
      </trkpt>
      <trkpt lat="49.80997" lon="0.76122">
        <ele>89.5</ele>
        <time>2020-06-18T09:48:38Z</time>
      </trkpt>
      <trkpt lat="49.80998" lon="0.76135">
        <ele>89.2</ele>
        <time>2020-06-18T09:48:39Z</time>
      </trkpt>
      <trkpt lat="49.81" lon="0.76149">
        <ele>88.8</ele>
        <time>2020-06-18T09:48:40Z</time>
      </trkpt>
      <trkpt lat="49.81002" lon="0.76163">
        <ele>88.4</ele>
        <time>2020-06-18T09:48:41Z</time>
      </trkpt>
      <trkpt lat="49.81003" lon="0.76177">
        <ele>88</ele>
        <time>2020-06-18T09:48:42Z</time>
      </trkpt>
      <trkpt lat="49.81004" lon="0.76191">
        <ele>87.6</ele>
        <time>2020-06-18T09:48:43Z</time>
      </trkpt>
      <trkpt lat="49.81005" lon="0.76205">
        <ele>87.2</ele>
        <time>2020-06-18T09:48:44Z</time>
      </trkpt>
      <trkpt lat="49.81007" lon="0.76219">
        <ele>86.9</ele>
        <time>2020-06-18T09:48:45Z</time>
      </trkpt>
      <trkpt lat="49.81009" lon="0.76233">
        <ele>86.5</ele>
        <time>2020-06-18T09:48:46Z</time>
      </trkpt>
      <trkpt lat="49.8101" lon="0.76247">
        <ele>86</ele>
        <time>2020-06-18T09:48:47Z</time>
      </trkpt>
      <trkpt lat="49.81011" lon="0.76261">
        <ele>85.6</ele>
        <time>2020-06-18T09:48:48Z</time>
      </trkpt>
      <trkpt lat="49.81011" lon="0.76275">
        <ele>85.2</ele>
        <time>2020-06-18T09:48:49Z</time>
      </trkpt>
      <trkpt lat="49.81012" lon="0.76289">
        <ele>84.8</ele>
        <time>2020-06-18T09:48:50Z</time>
      </trkpt>
      <trkpt lat="49.81012" lon="0.76303">
        <ele>84.5</ele>
        <time>2020-06-18T09:48:51Z</time>
      </trkpt>
      <trkpt lat="49.81013" lon="0.76317">
        <ele>84.1</ele>
        <time>2020-06-18T09:48:52Z</time>
      </trkpt>
      <trkpt lat="49.81013" lon="0.76331">
        <ele>83.9</ele>
        <time>2020-06-18T09:48:53Z</time>
      </trkpt>
      <trkpt lat="49.81014" lon="0.76346">
        <ele>83.6</ele>
        <time>2020-06-18T09:48:54Z</time>
      </trkpt>
      <trkpt lat="49.81014" lon="0.7636">
        <ele>83.3</ele>
        <time>2020-06-18T09:48:55Z</time>
      </trkpt>
      <trkpt lat="49.81013" lon="0.76374">
        <ele>83</ele>
        <time>2020-06-18T09:48:56Z</time>
      </trkpt>
      <trkpt lat="49.81013" lon="0.76388">
        <ele>82.8</ele>
        <time>2020-06-18T09:48:57Z</time>
      </trkpt>
      <trkpt lat="49.81013" lon="0.76402">
        <ele>82.7</ele>
        <time>2020-06-18T09:48:58Z</time>
      </trkpt>
      <trkpt lat="49.81013" lon="0.76416">
        <ele>82.5</ele>
        <time>2020-06-18T09:48:59Z</time>
      </trkpt>
      <trkpt lat="49.81012" lon="0.7643">
        <ele>82.4</ele>
        <time>2020-06-18T09:49:00Z</time>
      </trkpt>
      <trkpt lat="49.81011" lon="0.76444">
        <ele>82.2</ele>
        <time>2020-06-18T09:49:01Z</time>
      </trkpt>
      <trkpt lat="49.8101" lon="0.76458">
        <ele>82.1</ele>
        <time>2020-06-18T09:49:02Z</time>
      </trkpt>
      <trkpt lat="49.81009" lon="0.76472">
        <ele>82.1</ele>
        <time>2020-06-18T09:49:03Z</time>
      </trkpt>
      <trkpt lat="49.81008" lon="0.76486">
        <ele>82.1</ele>
        <time>2020-06-18T09:49:04Z</time>
      </trkpt>
      <trkpt lat="49.81007" lon="0.765">
        <ele>82.1</ele>
        <time>2020-06-18T09:49:05Z</time>
      </trkpt>
      <trkpt lat="49.81005" lon="0.76514">
        <ele>82.1</ele>
        <time>2020-06-18T09:49:06Z</time>
      </trkpt>
      <trkpt lat="49.81003" lon="0.76528">
        <ele>82.1</ele>
        <time>2020-06-18T09:49:07Z</time>
      </trkpt>
      <trkpt lat="49.81001" lon="0.76542">
        <ele>82.2</ele>
        <time>2020-06-18T09:49:08Z</time>
      </trkpt>
      <trkpt lat="49.80999" lon="0.76556">
        <ele>82.2</ele>
        <time>2020-06-18T09:49:09Z</time>
      </trkpt>
      <trkpt lat="49.80998" lon="0.76571">
        <ele>82.3</ele>
        <time>2020-06-18T09:49:10Z</time>
      </trkpt>
      <trkpt lat="49.80997" lon="0.76586">
        <ele>82.4</ele>
        <time>2020-06-18T09:49:11Z</time>
      </trkpt>
      <trkpt lat="49.80996" lon="0.76601">
        <ele>82.4</ele>
        <time>2020-06-18T09:49:12Z</time>
      </trkpt>
      <trkpt lat="49.80995" lon="0.76615">
        <ele>82.5</ele>
        <time>2020-06-18T09:49:13Z</time>
      </trkpt>
      <trkpt lat="49.80993" lon="0.76629">
        <ele>82.5</ele>
        <time>2020-06-18T09:49:14Z</time>
      </trkpt>
      <trkpt lat="49.80992" lon="0.76643">
        <ele>82.6</ele>
        <time>2020-06-18T09:49:15Z</time>
      </trkpt>
      <trkpt lat="49.80991" lon="0.76657">
        <ele>82.7</ele>
        <time>2020-06-18T09:49:16Z</time>
      </trkpt>
      <trkpt lat="49.8099" lon="0.7667">
        <ele>82.8</ele>
        <time>2020-06-18T09:49:17Z</time>
      </trkpt>
      <trkpt lat="49.80989" lon="0.76684">
        <ele>82.8</ele>
        <time>2020-06-18T09:49:18Z</time>
      </trkpt>
      <trkpt lat="49.80988" lon="0.76697">
        <ele>82.8</ele>
        <time>2020-06-18T09:49:19Z</time>
      </trkpt>
      <trkpt lat="49.80987" lon="0.7671">
        <ele>82.8</ele>
        <time>2020-06-18T09:49:20Z</time>
      </trkpt>
      <trkpt lat="49.80986" lon="0.76723">
        <ele>82.8</ele>
        <time>2020-06-18T09:49:21Z</time>
      </trkpt>
      <trkpt lat="49.80985" lon="0.76736">
        <ele>82.8</ele>
        <time>2020-06-18T09:49:22Z</time>
      </trkpt>
      <trkpt lat="49.80984" lon="0.76748">
        <ele>82.8</ele>
        <time>2020-06-18T09:49:23Z</time>
      </trkpt>
      <trkpt lat="49.80984" lon="0.76761">
        <ele>82.7</ele>
        <time>2020-06-18T09:49:24Z</time>
      </trkpt>
      <trkpt lat="49.80983" lon="0.76774">
        <ele>82.6</ele>
        <time>2020-06-18T09:49:25Z</time>
      </trkpt>
      <trkpt lat="49.80983" lon="0.76787">
        <ele>82.5</ele>
        <time>2020-06-18T09:49:26Z</time>
      </trkpt>
      <trkpt lat="49.80984" lon="0.768">
        <ele>82.4</ele>
        <time>2020-06-18T09:49:27Z</time>
      </trkpt>
      <trkpt lat="49.80984" lon="0.76812">
        <ele>82.3</ele>
        <time>2020-06-18T09:49:28Z</time>
      </trkpt>
      <trkpt lat="49.80985" lon="0.76825">
        <ele>82</ele>
        <time>2020-06-18T09:49:29Z</time>
      </trkpt>
      <trkpt lat="49.80985" lon="0.76837">
        <ele>81.8</ele>
        <time>2020-06-18T09:49:30Z</time>
      </trkpt>
      <trkpt lat="49.80987" lon="0.7685">
        <ele>81.6</ele>
        <time>2020-06-18T09:49:31Z</time>
      </trkpt>
      <trkpt lat="49.80989" lon="0.76862">
        <ele>81.3</ele>
        <time>2020-06-18T09:49:32Z</time>
      </trkpt>
      <trkpt lat="49.80991" lon="0.76874">
        <ele>81</ele>
        <time>2020-06-18T09:49:33Z</time>
      </trkpt>
      <trkpt lat="49.80993" lon="0.76887">
        <ele>80.7</ele>
        <time>2020-06-18T09:49:34Z</time>
      </trkpt>
      <trkpt lat="49.80996" lon="0.76899">
        <ele>80.4</ele>
        <time>2020-06-18T09:49:35Z</time>
      </trkpt>
      <trkpt lat="49.80998" lon="0.76911">
        <ele>80.1</ele>
        <time>2020-06-18T09:49:36Z</time>
      </trkpt>
      <trkpt lat="49.81001" lon="0.76924">
        <ele>79.7</ele>
        <time>2020-06-18T09:49:37Z</time>
      </trkpt>
      <trkpt lat="49.81004" lon="0.76936">
        <ele>79.4</ele>
        <time>2020-06-18T09:49:38Z</time>
      </trkpt>
      <trkpt lat="49.81008" lon="0.76948">
        <ele>79</ele>
        <time>2020-06-18T09:49:39Z</time>
      </trkpt>
      <trkpt lat="49.81012" lon="0.7696">
        <ele>78.6</ele>
        <time>2020-06-18T09:49:40Z</time>
      </trkpt>
      <trkpt lat="49.81017" lon="0.76971">
        <ele>78.3</ele>
        <time>2020-06-18T09:49:41Z</time>
      </trkpt>
      <trkpt lat="49.81021" lon="0.76983">
        <ele>77.9</ele>
        <time>2020-06-18T09:49:42Z</time>
      </trkpt>
      <trkpt lat="49.81026" lon="0.76995">
        <ele>77.5</ele>
        <time>2020-06-18T09:49:43Z</time>
      </trkpt>
      <trkpt lat="49.8103" lon="0.77007">
        <ele>77.2</ele>
        <time>2020-06-18T09:49:44Z</time>
      </trkpt>
      <trkpt lat="49.81034" lon="0.77019">
        <ele>76.9</ele>
        <time>2020-06-18T09:49:45Z</time>
      </trkpt>
      <trkpt lat="49.81038" lon="0.77031">
        <ele>76.7</ele>
        <time>2020-06-18T09:49:46Z</time>
      </trkpt>
      <trkpt lat="49.81042" lon="0.77043">
        <ele>76.5</ele>
        <time>2020-06-18T09:49:47Z</time>
      </trkpt>
      <trkpt lat="49.81046" lon="0.77055">
        <ele>76.4</ele>
        <time>2020-06-18T09:49:48Z</time>
      </trkpt>
      <trkpt lat="49.8105" lon="0.77067">
        <ele>76.4</ele>
        <time>2020-06-18T09:49:49Z</time>
      </trkpt>
      <trkpt lat="49.81053" lon="0.7708">
        <ele>76.4</ele>
        <time>2020-06-18T09:49:50Z</time>
      </trkpt>
      <trkpt lat="49.81057" lon="0.77092">
        <ele>76.3</ele>
        <time>2020-06-18T09:49:51Z</time>
      </trkpt>
      <trkpt lat="49.81059" lon="0.77105">
        <ele>76.3</ele>
        <time>2020-06-18T09:49:52Z</time>
      </trkpt>
      <trkpt lat="49.81062" lon="0.77117">
        <ele>76.4</ele>
        <time>2020-06-18T09:49:53Z</time>
      </trkpt>
      <trkpt lat="49.81064" lon="0.7713">
        <ele>76.5</ele>
        <time>2020-06-18T09:49:54Z</time>
      </trkpt>
      <trkpt lat="49.81065" lon="0.77142">
        <ele>76.6</ele>
        <time>2020-06-18T09:49:55Z</time>
      </trkpt>
      <trkpt lat="49.81066" lon="0.77154">
        <ele>76.8</ele>
        <time>2020-06-18T09:49:56Z</time>
      </trkpt>
      <trkpt lat="49.81067" lon="0.77166">
        <ele>77</ele>
        <time>2020-06-18T09:49:57Z</time>
      </trkpt>
      <trkpt lat="49.81067" lon="0.77178">
        <ele>77.2</ele>
        <time>2020-06-18T09:49:58Z</time>
      </trkpt>
      <trkpt lat="49.81068" lon="0.77189">
        <ele>77.4</ele>
        <time>2020-06-18T09:49:59Z</time>
      </trkpt>
      <trkpt lat="49.81069" lon="0.77199">
        <ele>77.5</ele>
        <time>2020-06-18T09:50:00Z</time>
      </trkpt>
      <trkpt lat="49.81072" lon="0.77208">
        <ele>77.6</ele>
        <time>2020-06-18T09:50:01Z</time>
      </trkpt>
      <trkpt lat="49.81075" lon="0.77215">
        <ele>77.8</ele>
        <time>2020-06-18T09:50:02Z</time>
      </trkpt>
      <trkpt lat="49.81079" lon="0.77221">
        <ele>77.9</ele>
        <time>2020-06-18T09:50:03Z</time>
      </trkpt>
      <trkpt lat="49.81084" lon="0.77227">
        <ele>78.2</ele>
        <time>2020-06-18T09:50:04Z</time>
      </trkpt>
      <trkpt lat="49.81089" lon="0.77233">
        <ele>78.5</ele>
        <time>2020-06-18T09:50:05Z</time>
      </trkpt>
      <trkpt lat="49.81093" lon="0.77239">
        <ele>78.9</ele>
        <time>2020-06-18T09:50:06Z</time>
      </trkpt>
      <trkpt lat="49.81097" lon="0.77245">
        <ele>79.3</ele>
        <time>2020-06-18T09:50:07Z</time>
      </trkpt>
      <trkpt lat="49.81101" lon="0.77252">
        <ele>79.7</ele>
        <time>2020-06-18T09:50:08Z</time>
      </trkpt>
      <trkpt lat="49.81105" lon="0.77257">
        <ele>80.1</ele>
        <time>2020-06-18T09:50:09Z</time>
      </trkpt>
      <trkpt lat="49.81109" lon="0.77262">
        <ele>80.4</ele>
        <time>2020-06-18T09:50:10Z</time>
      </trkpt>
      <trkpt lat="49.81112" lon="0.77267">
        <ele>80.7</ele>
        <time>2020-06-18T09:50:11Z</time>
      </trkpt>
      <trkpt lat="49.81116" lon="0.77272">
        <ele>81.1</ele>
        <time>2020-06-18T09:50:12Z</time>
      </trkpt>
      <trkpt lat="49.8112" lon="0.77276">
        <ele>81.4</ele>
        <time>2020-06-18T09:50:13Z</time>
      </trkpt>
      <trkpt lat="49.81124" lon="0.77281">
        <ele>81.7</ele>
        <time>2020-06-18T09:50:14Z</time>
      </trkpt>
      <trkpt lat="49.81127" lon="0.77285">
        <ele>82</ele>
        <time>2020-06-18T09:50:15Z</time>
      </trkpt>
      <trkpt lat="49.81131" lon="0.77289">
        <ele>82.3</ele>
        <time>2020-06-18T09:50:16Z</time>
      </trkpt>
      <trkpt lat="49.81135" lon="0.77292">
        <ele>82.5</ele>
        <time>2020-06-18T09:50:17Z</time>
      </trkpt>
      <trkpt lat="49.8114" lon="0.77295">
        <ele>82.8</ele>
        <time>2020-06-18T09:50:18Z</time>
      </trkpt>
      <trkpt lat="49.81144" lon="0.77299">
        <ele>83.1</ele>
        <time>2020-06-18T09:50:19Z</time>
      </trkpt>
      <trkpt lat="49.81148" lon="0.77304">
        <ele>83.4</ele>
        <time>2020-06-18T09:50:20Z</time>
      </trkpt>
      <trkpt lat="49.81153" lon="0.77308">
        <ele>83.7</ele>
        <time>2020-06-18T09:50:21Z</time>
      </trkpt>
      <trkpt lat="49.81157" lon="0.77311">
        <ele>83.9</ele>
        <time>2020-06-18T09:50:22Z</time>
      </trkpt>
      <trkpt lat="49.81162" lon="0.77314">
        <ele>84.2</ele>
        <time>2020-06-18T09:50:23Z</time>
      </trkpt>
      <trkpt lat="49.81167" lon="0.77318">
        <ele>84.5</ele>
        <time>2020-06-18T09:50:24Z</time>
      </trkpt>
      <trkpt lat="49.81171" lon="0.77323">
        <ele>84.8</ele>
        <time>2020-06-18T09:50:25Z</time>
      </trkpt>
      <trkpt lat="49.81175" lon="0.77327">
        <ele>85</ele>
        <time>2020-06-18T09:50:26Z</time>
      </trkpt>
      <trkpt lat="49.8118" lon="0.77332">
        <ele>85.2</ele>
        <time>2020-06-18T09:50:27Z</time>
      </trkpt>
      <trkpt lat="49.81183" lon="0.77338">
        <ele>85.4</ele>
        <time>2020-06-18T09:50:28Z</time>
      </trkpt>
      <trkpt lat="49.81187" lon="0.77342">
        <ele>85.6</ele>
        <time>2020-06-18T09:50:29Z</time>
      </trkpt>
      <trkpt lat="49.81191" lon="0.77347">
        <ele>85.7</ele>
        <time>2020-06-18T09:50:30Z</time>
      </trkpt>
      <trkpt lat="49.81193" lon="0.77353">
        <ele>85.9</ele>
        <time>2020-06-18T09:50:31Z</time>
      </trkpt>
      <trkpt lat="49.81197" lon="0.77358">
        <ele>86</ele>
        <time>2020-06-18T09:50:32Z</time>
      </trkpt>
      <trkpt lat="49.81199" lon="0.77365">
        <ele>86.2</ele>
        <time>2020-06-18T09:50:33Z</time>
      </trkpt>
      <trkpt lat="49.81202" lon="0.77371">
        <ele>86.4</ele>
        <time>2020-06-18T09:50:34Z</time>
      </trkpt>
      <trkpt lat="49.81207" lon="0.77376">
        <ele>86.6</ele>
        <time>2020-06-18T09:50:35Z</time>
      </trkpt>
      <trkpt lat="49.81209" lon="0.77381">
        <ele>86.7</ele>
        <time>2020-06-18T09:50:36Z</time>
      </trkpt>
      <trkpt lat="49.81213" lon="0.77387">
        <ele>86.8</ele>
        <time>2020-06-18T09:50:37Z</time>
      </trkpt>
      <trkpt lat="49.81217" lon="0.77391">
        <ele>86.9</ele>
        <time>2020-06-18T09:50:38Z</time>
      </trkpt>
      <trkpt lat="49.81221" lon="0.77397">
        <ele>87.1</ele>
        <time>2020-06-18T09:50:39Z</time>
      </trkpt>
      <trkpt lat="49.81224" lon="0.77401">
        <ele>87.3</ele>
        <time>2020-06-18T09:50:40Z</time>
      </trkpt>
      <trkpt lat="49.81228" lon="0.77406">
        <ele>87.4</ele>
        <time>2020-06-18T09:50:41Z</time>
      </trkpt>
      <trkpt lat="49.81231" lon="0.7741">
        <ele>87.5</ele>
        <time>2020-06-18T09:50:42Z</time>
      </trkpt>
      <trkpt lat="49.81234" lon="0.77414">
        <ele>87.6</ele>
        <time>2020-06-18T09:50:43Z</time>
      </trkpt>
      <trkpt lat="49.81236" lon="0.77419">
        <ele>87.8</ele>
        <time>2020-06-18T09:50:44Z</time>
      </trkpt>
      <trkpt lat="49.8124" lon="0.77423">
        <ele>87.9</ele>
        <time>2020-06-18T09:50:45Z</time>
      </trkpt>
      <trkpt lat="49.81244" lon="0.77428">
        <ele>88.1</ele>
        <time>2020-06-18T09:50:46Z</time>
      </trkpt>
      <trkpt lat="49.81248" lon="0.77432">
        <ele>88.2</ele>
        <time>2020-06-18T09:50:47Z</time>
      </trkpt>
      <trkpt lat="49.81251" lon="0.77435">
        <ele>88.3</ele>
        <time>2020-06-18T09:50:48Z</time>
      </trkpt>
      <trkpt lat="49.81255" lon="0.77439">
        <ele>88.5</ele>
        <time>2020-06-18T09:50:49Z</time>
      </trkpt>
      <trkpt lat="49.81259" lon="0.77443">
        <ele>88.7</ele>
        <time>2020-06-18T09:50:50Z</time>
      </trkpt>
      <trkpt lat="49.81263" lon="0.77448">
        <ele>88.8</ele>
        <time>2020-06-18T09:50:51Z</time>
      </trkpt>
      <trkpt lat="49.81267" lon="0.77452">
        <ele>89</ele>
        <time>2020-06-18T09:50:52Z</time>
      </trkpt>
      <trkpt lat="49.8127" lon="0.77457">
        <ele>89.2</ele>
        <time>2020-06-18T09:50:53Z</time>
      </trkpt>
      <trkpt lat="49.81273" lon="0.7746">
        <ele>89.3</ele>
        <time>2020-06-18T09:50:54Z</time>
      </trkpt>
      <trkpt lat="49.81277" lon="0.77466">
        <ele>89.5</ele>
        <time>2020-06-18T09:50:55Z</time>
      </trkpt>
      <trkpt lat="49.81281" lon="0.77471">
        <ele>89.7</ele>
        <time>2020-06-18T09:50:56Z</time>
      </trkpt>
      <trkpt lat="49.81284" lon="0.77475">
        <ele>89.8</ele>
        <time>2020-06-18T09:50:57Z</time>
      </trkpt>
      <trkpt lat="49.81289" lon="0.77479">
        <ele>90</ele>
        <time>2020-06-18T09:50:58Z</time>
      </trkpt>
      <trkpt lat="49.81292" lon="0.77483">
        <ele>90</ele>
        <time>2020-06-18T09:50:59Z</time>
      </trkpt>
      <trkpt lat="49.81296" lon="0.77487">
        <ele>90.1</ele>
        <time>2020-06-18T09:51:00Z</time>
      </trkpt>
      <trkpt lat="49.81299" lon="0.77491">
        <ele>90.2</ele>
        <time>2020-06-18T09:51:01Z</time>
      </trkpt>
      <trkpt lat="49.81302" lon="0.77496">
        <ele>90.3</ele>
        <time>2020-06-18T09:51:02Z</time>
      </trkpt>
      <trkpt lat="49.81306" lon="0.77501">
        <ele>90.5</ele>
        <time>2020-06-18T09:51:03Z</time>
      </trkpt>
      <trkpt lat="49.81309" lon="0.77506">
        <ele>90.6</ele>
        <time>2020-06-18T09:51:04Z</time>
      </trkpt>
      <trkpt lat="49.81313" lon="0.7751">
        <ele>90.7</ele>
        <time>2020-06-18T09:51:05Z</time>
      </trkpt>
      <trkpt lat="49.81316" lon="0.77511">
        <ele>90.8</ele>
        <time>2020-06-18T09:51:06Z</time>
      </trkpt>
      <trkpt lat="49.81319" lon="0.77514">
        <ele>90.9</ele>
        <time>2020-06-18T09:51:07Z</time>
      </trkpt>
      <trkpt lat="49.81323" lon="0.77518">
        <ele>91</ele>
        <time>2020-06-18T09:51:08Z</time>
      </trkpt>
      <trkpt lat="49.81328" lon="0.77524">
        <ele>91.1</ele>
        <time>2020-06-18T09:51:09Z</time>
      </trkpt>
      <trkpt lat="49.81331" lon="0.77528">
        <ele>91.2</ele>
        <time>2020-06-18T09:51:10Z</time>
      </trkpt>
      <trkpt lat="49.81335" lon="0.77532">
        <ele>91.3</ele>
        <time>2020-06-18T09:51:11Z</time>
      </trkpt>
      <trkpt lat="49.81338" lon="0.77536">
        <ele>91.3</ele>
        <time>2020-06-18T09:51:12Z</time>
      </trkpt>
      <trkpt lat="49.81341" lon="0.7754">
        <ele>91.4</ele>
        <time>2020-06-18T09:51:13Z</time>
      </trkpt>
      <trkpt lat="49.81345" lon="0.77545">
        <ele>91.4</ele>
        <time>2020-06-18T09:51:14Z</time>
      </trkpt>
      <trkpt lat="49.81349" lon="0.7755">
        <ele>91.5</ele>
        <time>2020-06-18T09:51:15Z</time>
      </trkpt>
      <trkpt lat="49.81352" lon="0.77553">
        <ele>91.5</ele>
        <time>2020-06-18T09:51:16Z</time>
      </trkpt>
      <trkpt lat="49.81356" lon="0.77557">
        <ele>91.5</ele>
        <time>2020-06-18T09:51:17Z</time>
      </trkpt>
      <trkpt lat="49.81357" lon="0.77558">
        <ele>91.5</ele>
        <time>2020-06-18T09:51:18Z</time>
      </trkpt>
      <trkpt lat="49.8136" lon="0.77561">
        <ele>91.5</ele>
        <time>2020-06-18T09:51:19Z</time>
      </trkpt>
      <trkpt lat="49.81362" lon="0.77565">
        <ele>91.5</ele>
        <time>2020-06-18T09:51:20Z</time>
      </trkpt>
      <trkpt lat="49.81366" lon="0.77569">
        <ele>91.5</ele>
        <time>2020-06-18T09:51:21Z</time>
      </trkpt>
      <trkpt lat="49.81369" lon="0.77574">
        <ele>91.5</ele>
        <time>2020-06-18T09:51:22Z</time>
      </trkpt>
      <trkpt lat="49.81372" lon="0.77577">
        <ele>91.5</ele>
        <time>2020-06-18T09:51:23Z</time>
      </trkpt>
      <trkpt lat="49.81373" lon="0.77578">
        <ele>91.5</ele>
        <time>2020-06-18T09:51:24Z</time>
      </trkpt>
      <trkpt lat="49.81377" lon="0.77581">
        <ele>91.5</ele>
        <time>2020-06-18T09:51:25Z</time>
      </trkpt>
      <trkpt lat="49.81379" lon="0.77586">
        <ele>91.4</ele>
        <time>2020-06-18T09:51:26Z</time>
      </trkpt>
      <trkpt lat="49.81383" lon="0.7759">
        <ele>91.4</ele>
        <time>2020-06-18T09:51:27Z</time>
      </trkpt>
      <trkpt lat="49.81385" lon="0.77593">
        <ele>91.4</ele>
        <time>2020-06-18T09:51:28Z</time>
      </trkpt>
      <trkpt lat="49.81389" lon="0.77597">
        <ele>91.4</ele>
        <time>2020-06-18T09:51:29Z</time>
      </trkpt>
      <trkpt lat="49.81391" lon="0.77599">
        <ele>91.4</ele>
        <time>2020-06-18T09:51:30Z</time>
      </trkpt>
      <trkpt lat="49.81394" lon="0.77602">
        <ele>91.4</ele>
        <time>2020-06-18T09:51:31Z</time>
      </trkpt>
      <trkpt lat="49.81398" lon="0.77606">
        <ele>91.4</ele>
        <time>2020-06-18T09:51:32Z</time>
      </trkpt>
      <trkpt lat="49.81401" lon="0.77608">
        <ele>91.4</ele>
        <time>2020-06-18T09:51:33Z</time>
      </trkpt>
      <trkpt lat="49.81404" lon="0.77611">
        <ele>91.4</ele>
        <time>2020-06-18T09:51:34Z</time>
      </trkpt>
      <trkpt lat="49.81406" lon="0.77616">
        <ele>91.4</ele>
        <time>2020-06-18T09:51:35Z</time>
      </trkpt>
      <trkpt lat="49.81409" lon="0.77618">
        <ele>91.4</ele>
        <time>2020-06-18T09:51:36Z</time>
      </trkpt>
      <trkpt lat="49.81412" lon="0.77621">
        <ele>91.4</ele>
        <time>2020-06-18T09:51:37Z</time>
      </trkpt>
      <trkpt lat="49.81415" lon="0.77624">
        <ele>91.4</ele>
        <time>2020-06-18T09:51:38Z</time>
      </trkpt>
      <trkpt lat="49.81418" lon="0.77627">
        <ele>91.4</ele>
        <time>2020-06-18T09:51:39Z</time>
      </trkpt>
      <trkpt lat="49.81421" lon="0.77631">
        <ele>91.4</ele>
        <time>2020-06-18T09:51:40Z</time>
      </trkpt>
      <trkpt lat="49.81425" lon="0.77633">
        <ele>91.3</ele>
        <time>2020-06-18T09:51:41Z</time>
      </trkpt>
      <trkpt lat="49.81429" lon="0.77635">
        <ele>91.3</ele>
        <time>2020-06-18T09:51:42Z</time>
      </trkpt>
      <trkpt lat="49.81434" lon="0.77637">
        <ele>91.3</ele>
        <time>2020-06-18T09:51:43Z</time>
      </trkpt>
      <trkpt lat="49.81438" lon="0.77639">
        <ele>91.3</ele>
        <time>2020-06-18T09:51:44Z</time>
      </trkpt>
      <trkpt lat="49.81443" lon="0.77642">
        <ele>91.3</ele>
        <time>2020-06-18T09:51:45Z</time>
      </trkpt>
      <trkpt lat="49.81447" lon="0.77644">
        <ele>91.2</ele>
        <time>2020-06-18T09:51:46Z</time>
      </trkpt>
      <trkpt lat="49.81452" lon="0.77647">
        <ele>91.2</ele>
        <time>2020-06-18T09:51:47Z</time>
      </trkpt>
      <trkpt lat="49.81457" lon="0.77651">
        <ele>91.1</ele>
        <time>2020-06-18T09:51:48Z</time>
      </trkpt>
      <trkpt lat="49.81461" lon="0.77654">
        <ele>91</ele>
        <time>2020-06-18T09:51:49Z</time>
      </trkpt>
      <trkpt lat="49.81467" lon="0.77656">
        <ele>90.9</ele>
        <time>2020-06-18T09:51:50Z</time>
      </trkpt>
      <trkpt lat="49.81472" lon="0.77658">
        <ele>90.8</ele>
        <time>2020-06-18T09:51:51Z</time>
      </trkpt>
      <trkpt lat="49.81477" lon="0.77661">
        <ele>90.7</ele>
        <time>2020-06-18T09:51:52Z</time>
      </trkpt>
      <trkpt lat="49.81481" lon="0.77663">
        <ele>90.6</ele>
        <time>2020-06-18T09:51:53Z</time>
      </trkpt>
      <trkpt lat="49.81486" lon="0.77666">
        <ele>90.5</ele>
        <time>2020-06-18T09:51:54Z</time>
      </trkpt>
      <trkpt lat="49.81491" lon="0.7767">
        <ele>90.4</ele>
        <time>2020-06-18T09:51:55Z</time>
      </trkpt>
      <trkpt lat="49.81498" lon="0.77676">
        <ele>90.3</ele>
        <time>2020-06-18T09:51:56Z</time>
      </trkpt>
      <trkpt lat="49.81503" lon="0.77681">
        <ele>90.3</ele>
        <time>2020-06-18T09:51:57Z</time>
      </trkpt>
      <trkpt lat="49.81508" lon="0.77686">
        <ele>90.2</ele>
        <time>2020-06-18T09:51:58Z</time>
      </trkpt>
      <trkpt lat="49.81513" lon="0.77689">
        <ele>90.2</ele>
        <time>2020-06-18T09:51:59Z</time>
      </trkpt>
      <trkpt lat="49.81517" lon="0.77692">
        <ele>90.2</ele>
        <time>2020-06-18T09:52:00Z</time>
      </trkpt>
      <trkpt lat="49.81521" lon="0.77695">
        <ele>90.1</ele>
        <time>2020-06-18T09:52:01Z</time>
      </trkpt>
      <trkpt lat="49.81525" lon="0.77698">
        <ele>90.1</ele>
        <time>2020-06-18T09:52:02Z</time>
      </trkpt>
      <trkpt lat="49.8153" lon="0.77701">
        <ele>90</ele>
        <time>2020-06-18T09:52:03Z</time>
      </trkpt>
      <trkpt lat="49.81536" lon="0.77705">
        <ele>90</ele>
        <time>2020-06-18T09:52:04Z</time>
      </trkpt>
      <trkpt lat="49.81542" lon="0.77709">
        <ele>89.9</ele>
        <time>2020-06-18T09:52:05Z</time>
      </trkpt>
      <trkpt lat="49.81545" lon="0.77713">
        <ele>89.9</ele>
        <time>2020-06-18T09:52:06Z</time>
      </trkpt>
      <trkpt lat="49.81552" lon="0.77717">
        <ele>89.8</ele>
        <time>2020-06-18T09:52:07Z</time>
      </trkpt>
      <trkpt lat="49.81556" lon="0.77721">
        <ele>89.8</ele>
        <time>2020-06-18T09:52:08Z</time>
      </trkpt>
      <trkpt lat="49.81559" lon="0.77725">
        <ele>89.7</ele>
        <time>2020-06-18T09:52:09Z</time>
      </trkpt>
      <trkpt lat="49.81564" lon="0.77729">
        <ele>89.7</ele>
        <time>2020-06-18T09:52:10Z</time>
      </trkpt>
      <trkpt lat="49.8157" lon="0.77733">
        <ele>89.6</ele>
        <time>2020-06-18T09:52:11Z</time>
      </trkpt>
      <trkpt lat="49.81575" lon="0.77737">
        <ele>89.6</ele>
        <time>2020-06-18T09:52:12Z</time>
      </trkpt>
      <trkpt lat="49.81579" lon="0.77742">
        <ele>89.5</ele>
        <time>2020-06-18T09:52:13Z</time>
      </trkpt>
      <trkpt lat="49.81584" lon="0.77748">
        <ele>89.4</ele>
        <time>2020-06-18T09:52:14Z</time>
      </trkpt>
      <trkpt lat="49.81589" lon="0.77753">
        <ele>89.4</ele>
        <time>2020-06-18T09:52:15Z</time>
      </trkpt>
      <trkpt lat="49.81595" lon="0.77758">
        <ele>89.2</ele>
        <time>2020-06-18T09:52:16Z</time>
      </trkpt>
      <trkpt lat="49.81599" lon="0.7776">
        <ele>89.2</ele>
        <time>2020-06-18T09:52:17Z</time>
      </trkpt>
      <trkpt lat="49.81602" lon="0.77763">
        <ele>89.2</ele>
        <time>2020-06-18T09:52:18Z</time>
      </trkpt>
      <trkpt lat="49.81606" lon="0.77766">
        <ele>89.2</ele>
        <time>2020-06-18T09:52:19Z</time>
      </trkpt>
      <trkpt lat="49.8161" lon="0.77769">
        <ele>89.2</ele>
        <time>2020-06-18T09:52:20Z</time>
      </trkpt>
      <trkpt lat="49.81615" lon="0.77773">
        <ele>89.2</ele>
        <time>2020-06-18T09:52:21Z</time>
      </trkpt>
      <trkpt lat="49.8162" lon="0.77777">
        <ele>89.1</ele>
        <time>2020-06-18T09:52:22Z</time>
      </trkpt>
      <trkpt lat="49.81624" lon="0.77781">
        <ele>89</ele>
        <time>2020-06-18T09:52:23Z</time>
      </trkpt>
      <trkpt lat="49.8163" lon="0.77786">
        <ele>88.9</ele>
        <time>2020-06-18T09:52:24Z</time>
      </trkpt>
      <trkpt lat="49.81633" lon="0.7779">
        <ele>88.8</ele>
        <time>2020-06-18T09:52:25Z</time>
      </trkpt>
      <trkpt lat="49.81638" lon="0.77794">
        <ele>88.7</ele>
        <time>2020-06-18T09:52:26Z</time>
      </trkpt>
      <trkpt lat="49.81642" lon="0.77797">
        <ele>88.6</ele>
        <time>2020-06-18T09:52:27Z</time>
      </trkpt>
      <trkpt lat="49.81647" lon="0.77802">
        <ele>88.4</ele>
        <time>2020-06-18T09:52:28Z</time>
      </trkpt>
      <trkpt lat="49.81652" lon="0.77806">
        <ele>88.2</ele>
        <time>2020-06-18T09:52:29Z</time>
      </trkpt>
      <trkpt lat="49.81657" lon="0.7781">
        <ele>88</ele>
        <time>2020-06-18T09:52:30Z</time>
      </trkpt>
      <trkpt lat="49.81662" lon="0.77814">
        <ele>87.8</ele>
        <time>2020-06-18T09:52:31Z</time>
      </trkpt>
      <trkpt lat="49.81666" lon="0.77818">
        <ele>87.7</ele>
        <time>2020-06-18T09:52:32Z</time>
      </trkpt>
      <trkpt lat="49.81671" lon="0.77823">
        <ele>87.5</ele>
        <time>2020-06-18T09:52:33Z</time>
      </trkpt>
      <trkpt lat="49.81676" lon="0.77827">
        <ele>87.4</ele>
        <time>2020-06-18T09:52:34Z</time>
      </trkpt>
      <trkpt lat="49.81681" lon="0.77833">
        <ele>87.2</ele>
        <time>2020-06-18T09:52:35Z</time>
      </trkpt>
      <trkpt lat="49.81686" lon="0.77838">
        <ele>87</ele>
        <time>2020-06-18T09:52:36Z</time>
      </trkpt>
      <trkpt lat="49.81691" lon="0.77843">
        <ele>86.8</ele>
        <time>2020-06-18T09:52:37Z</time>
      </trkpt>
      <trkpt lat="49.81696" lon="0.77847">
        <ele>86.6</ele>
        <time>2020-06-18T09:52:38Z</time>
      </trkpt>
      <trkpt lat="49.81702" lon="0.77853">
        <ele>86.5</ele>
        <time>2020-06-18T09:52:39Z</time>
      </trkpt>
      <trkpt lat="49.81707" lon="0.77858">
        <ele>86.4</ele>
        <time>2020-06-18T09:52:40Z</time>
      </trkpt>
      <trkpt lat="49.81714" lon="0.77864">
        <ele>86.2</ele>
        <time>2020-06-18T09:52:41Z</time>
      </trkpt>
      <trkpt lat="49.81719" lon="0.77869">
        <ele>86.1</ele>
        <time>2020-06-18T09:52:42Z</time>
      </trkpt>
      <trkpt lat="49.81725" lon="0.77875">
        <ele>85.9</ele>
        <time>2020-06-18T09:52:43Z</time>
      </trkpt>
      <trkpt lat="49.8173" lon="0.7788">
        <ele>85.8</ele>
        <time>2020-06-18T09:52:44Z</time>
      </trkpt>
      <trkpt lat="49.81736" lon="0.77885">
        <ele>85.6</ele>
        <time>2020-06-18T09:52:45Z</time>
      </trkpt>
      <trkpt lat="49.81741" lon="0.7789">
        <ele>85.4</ele>
        <time>2020-06-18T09:52:46Z</time>
      </trkpt>
      <trkpt lat="49.81746" lon="0.77895">
        <ele>85.3</ele>
        <time>2020-06-18T09:52:47Z</time>
      </trkpt>
      <trkpt lat="49.81752" lon="0.779">
        <ele>85.2</ele>
        <time>2020-06-18T09:52:48Z</time>
      </trkpt>
      <trkpt lat="49.81757" lon="0.77904">
        <ele>85.1</ele>
        <time>2020-06-18T09:52:49Z</time>
      </trkpt>
      <trkpt lat="49.81762" lon="0.77909">
        <ele>85.1</ele>
        <time>2020-06-18T09:52:50Z</time>
      </trkpt>
      <trkpt lat="49.81767" lon="0.77913">
        <ele>85</ele>
        <time>2020-06-18T09:52:51Z</time>
      </trkpt>
      <trkpt lat="49.81772" lon="0.77919">
        <ele>84.9</ele>
        <time>2020-06-18T09:52:52Z</time>
      </trkpt>
      <trkpt lat="49.81776" lon="0.77924">
        <ele>84.9</ele>
        <time>2020-06-18T09:52:53Z</time>
      </trkpt>
      <trkpt lat="49.81781" lon="0.77929">
        <ele>84.8</ele>
        <time>2020-06-18T09:52:54Z</time>
      </trkpt>
      <trkpt lat="49.81786" lon="0.77932">
        <ele>84.8</ele>
        <time>2020-06-18T09:52:55Z</time>
      </trkpt>
      <trkpt lat="49.81791" lon="0.77935">
        <ele>84.8</ele>
        <time>2020-06-18T09:52:56Z</time>
      </trkpt>
      <trkpt lat="49.81796" lon="0.77939">
        <ele>84.7</ele>
        <time>2020-06-18T09:52:57Z</time>
      </trkpt>
      <trkpt lat="49.81801" lon="0.77944">
        <ele>84.6</ele>
        <time>2020-06-18T09:52:58Z</time>
      </trkpt>
      <trkpt lat="49.81807" lon="0.7795">
        <ele>84.5</ele>
        <time>2020-06-18T09:52:59Z</time>
      </trkpt>
      <trkpt lat="49.81813" lon="0.77954">
        <ele>84.5</ele>
        <time>2020-06-18T09:53:00Z</time>
      </trkpt>
      <trkpt lat="49.81819" lon="0.7796">
        <ele>84.4</ele>
        <time>2020-06-18T09:53:01Z</time>
      </trkpt>
      <trkpt lat="49.81825" lon="0.77964">
        <ele>84.4</ele>
        <time>2020-06-18T09:53:02Z</time>
      </trkpt>
      <trkpt lat="49.81829" lon="0.77968">
        <ele>84.4</ele>
        <time>2020-06-18T09:53:03Z</time>
      </trkpt>
      <trkpt lat="49.81834" lon="0.77972">
        <ele>84.4</ele>
        <time>2020-06-18T09:53:04Z</time>
      </trkpt>
      <trkpt lat="49.8184" lon="0.77977">
        <ele>84.3</ele>
        <time>2020-06-18T09:53:05Z</time>
      </trkpt>
      <trkpt lat="49.81846" lon="0.77982">
        <ele>84.2</ele>
        <time>2020-06-18T09:53:06Z</time>
      </trkpt>
      <trkpt lat="49.81852" lon="0.77987">
        <ele>84.1</ele>
        <time>2020-06-18T09:53:07Z</time>
      </trkpt>
      <trkpt lat="49.81858" lon="0.77991">
        <ele>84</ele>
        <time>2020-06-18T09:53:08Z</time>
      </trkpt>
      <trkpt lat="49.81864" lon="0.77996">
        <ele>83.8</ele>
        <time>2020-06-18T09:53:09Z</time>
      </trkpt>
      <trkpt lat="49.8187" lon="0.78">
        <ele>83.8</ele>
        <time>2020-06-18T09:53:10Z</time>
      </trkpt>
      <trkpt lat="49.81876" lon="0.78003">
        <ele>83.7</ele>
        <time>2020-06-18T09:53:11Z</time>
      </trkpt>
      <trkpt lat="49.81882" lon="0.78006">
        <ele>83.6</ele>
        <time>2020-06-18T09:53:12Z</time>
      </trkpt>
      <trkpt lat="49.81889" lon="0.78009">
        <ele>83.6</ele>
        <time>2020-06-18T09:53:13Z</time>
      </trkpt>
      <trkpt lat="49.81895" lon="0.78013">
        <ele>83.6</ele>
        <time>2020-06-18T09:53:14Z</time>
      </trkpt>
      <trkpt lat="49.81901" lon="0.78017">
        <ele>83.5</ele>
        <time>2020-06-18T09:53:15Z</time>
      </trkpt>
      <trkpt lat="49.81907" lon="0.78021">
        <ele>83.5</ele>
        <time>2020-06-18T09:53:16Z</time>
      </trkpt>
      <trkpt lat="49.81914" lon="0.78025">
        <ele>83.5</ele>
        <time>2020-06-18T09:53:17Z</time>
      </trkpt>
      <trkpt lat="49.8192" lon="0.78029">
        <ele>83.4</ele>
        <time>2020-06-18T09:53:18Z</time>
      </trkpt>
      <trkpt lat="49.81926" lon="0.78033">
        <ele>83.4</ele>
        <time>2020-06-18T09:53:19Z</time>
      </trkpt>
      <trkpt lat="49.81933" lon="0.78036">
        <ele>83.3</ele>
        <time>2020-06-18T09:53:20Z</time>
      </trkpt>
      <trkpt lat="49.81939" lon="0.7804">
        <ele>83.4</ele>
        <time>2020-06-18T09:53:21Z</time>
      </trkpt>
      <trkpt lat="49.81945" lon="0.78044">
        <ele>83.4</ele>
        <time>2020-06-18T09:53:22Z</time>
      </trkpt>
      <trkpt lat="49.81951" lon="0.78048">
        <ele>83.4</ele>
        <time>2020-06-18T09:53:23Z</time>
      </trkpt>
      <trkpt lat="49.81958" lon="0.78052">
        <ele>83.4</ele>
        <time>2020-06-18T09:53:24Z</time>
      </trkpt>
      <trkpt lat="49.81964" lon="0.78057">
        <ele>83.4</ele>
        <time>2020-06-18T09:53:25Z</time>
      </trkpt>
      <trkpt lat="49.8197" lon="0.78061">
        <ele>83.4</ele>
        <time>2020-06-18T09:53:26Z</time>
      </trkpt>
      <trkpt lat="49.81977" lon="0.78064">
        <ele>83.4</ele>
        <time>2020-06-18T09:53:27Z</time>
      </trkpt>
      <trkpt lat="49.81983" lon="0.78069">
        <ele>83.5</ele>
        <time>2020-06-18T09:53:28Z</time>
      </trkpt>
      <trkpt lat="49.81989" lon="0.78073">
        <ele>83.5</ele>
        <time>2020-06-18T09:53:29Z</time>
      </trkpt>
      <trkpt lat="49.81995" lon="0.78077">
        <ele>83.5</ele>
        <time>2020-06-18T09:53:30Z</time>
      </trkpt>
      <trkpt lat="49.82001" lon="0.78082">
        <ele>83.4</ele>
        <time>2020-06-18T09:53:31Z</time>
      </trkpt>
      <trkpt lat="49.82008" lon="0.78086">
        <ele>83.3</ele>
        <time>2020-06-18T09:53:32Z</time>
      </trkpt>
      <trkpt lat="49.82014" lon="0.78089">
        <ele>83.2</ele>
        <time>2020-06-18T09:53:33Z</time>
      </trkpt>
      <trkpt lat="49.8202" lon="0.78093">
        <ele>83.1</ele>
        <time>2020-06-18T09:53:34Z</time>
      </trkpt>
      <trkpt lat="49.82026" lon="0.78097">
        <ele>83.1</ele>
        <time>2020-06-18T09:53:35Z</time>
      </trkpt>
      <trkpt lat="49.82033" lon="0.78101">
        <ele>83.1</ele>
        <time>2020-06-18T09:53:36Z</time>
      </trkpt>
      <trkpt lat="49.82039" lon="0.78105">
        <ele>83</ele>
        <time>2020-06-18T09:53:37Z</time>
      </trkpt>
      <trkpt lat="49.82046" lon="0.78108">
        <ele>82.9</ele>
        <time>2020-06-18T09:53:38Z</time>
      </trkpt>
      <trkpt lat="49.82053" lon="0.78112">
        <ele>82.8</ele>
        <time>2020-06-18T09:53:39Z</time>
      </trkpt>
      <trkpt lat="49.82059" lon="0.78116">
        <ele>82.8</ele>
        <time>2020-06-18T09:53:40Z</time>
      </trkpt>
      <trkpt lat="49.82066" lon="0.7812">
        <ele>82.7</ele>
        <time>2020-06-18T09:53:41Z</time>
      </trkpt>
      <trkpt lat="49.82072" lon="0.78125">
        <ele>82.6</ele>
        <time>2020-06-18T09:53:42Z</time>
      </trkpt>
      <trkpt lat="49.82078" lon="0.78129">
        <ele>82.5</ele>
        <time>2020-06-18T09:53:43Z</time>
      </trkpt>
      <trkpt lat="49.82085" lon="0.78134">
        <ele>82.5</ele>
        <time>2020-06-18T09:53:44Z</time>
      </trkpt>
      <trkpt lat="49.82091" lon="0.78138">
        <ele>82.4</ele>
        <time>2020-06-18T09:53:45Z</time>
      </trkpt>
      <trkpt lat="49.82098" lon="0.78142">
        <ele>82.4</ele>
        <time>2020-06-18T09:53:46Z</time>
      </trkpt>
      <trkpt lat="49.82105" lon="0.78146">
        <ele>82.3</ele>
        <time>2020-06-18T09:53:47Z</time>
      </trkpt>
      <trkpt lat="49.82111" lon="0.7815">
        <ele>82.2</ele>
        <time>2020-06-18T09:53:48Z</time>
      </trkpt>
      <trkpt lat="49.82118" lon="0.78153">
        <ele>82.2</ele>
        <time>2020-06-18T09:53:49Z</time>
      </trkpt>
      <trkpt lat="49.82125" lon="0.78158">
        <ele>82.1</ele>
        <time>2020-06-18T09:53:50Z</time>
      </trkpt>
      <trkpt lat="49.82131" lon="0.78162">
        <ele>82.1</ele>
        <time>2020-06-18T09:53:51Z</time>
      </trkpt>
      <trkpt lat="49.82138" lon="0.78166">
        <ele>82.1</ele>
        <time>2020-06-18T09:53:52Z</time>
      </trkpt>
      <trkpt lat="49.82145" lon="0.7817">
        <ele>82.1</ele>
        <time>2020-06-18T09:53:53Z</time>
      </trkpt>
      <trkpt lat="49.82151" lon="0.78174">
        <ele>82.1</ele>
        <time>2020-06-18T09:53:54Z</time>
      </trkpt>
      <trkpt lat="49.82158" lon="0.78179">
        <ele>82</ele>
        <time>2020-06-18T09:53:55Z</time>
      </trkpt>
      <trkpt lat="49.82165" lon="0.78183">
        <ele>82</ele>
        <time>2020-06-18T09:53:56Z</time>
      </trkpt>
      <trkpt lat="49.82171" lon="0.78187">
        <ele>82</ele>
        <time>2020-06-18T09:53:57Z</time>
      </trkpt>
      <trkpt lat="49.82178" lon="0.7819">
        <ele>81.9</ele>
        <time>2020-06-18T09:53:58Z</time>
      </trkpt>
      <trkpt lat="49.82185" lon="0.78193">
        <ele>81.9</ele>
        <time>2020-06-18T09:53:59Z</time>
      </trkpt>
      <trkpt lat="49.82191" lon="0.78196">
        <ele>81.9</ele>
        <time>2020-06-18T09:54:00Z</time>
      </trkpt>
      <trkpt lat="49.82198" lon="0.78201">
        <ele>81.9</ele>
        <time>2020-06-18T09:54:01Z</time>
      </trkpt>
      <trkpt lat="49.82204" lon="0.78205">
        <ele>82</ele>
        <time>2020-06-18T09:54:02Z</time>
      </trkpt>
      <trkpt lat="49.8221" lon="0.78209">
        <ele>82.1</ele>
        <time>2020-06-18T09:54:03Z</time>
      </trkpt>
      <trkpt lat="49.82216" lon="0.78214">
        <ele>82.2</ele>
        <time>2020-06-18T09:54:04Z</time>
      </trkpt>
      <trkpt lat="49.82223" lon="0.78218">
        <ele>82.2</ele>
        <time>2020-06-18T09:54:05Z</time>
      </trkpt>
      <trkpt lat="49.82229" lon="0.78222">
        <ele>82.2</ele>
        <time>2020-06-18T09:54:06Z</time>
      </trkpt>
      <trkpt lat="49.82235" lon="0.78225">
        <ele>82.3</ele>
        <time>2020-06-18T09:54:07Z</time>
      </trkpt>
      <trkpt lat="49.82242" lon="0.78229">
        <ele>82.3</ele>
        <time>2020-06-18T09:54:08Z</time>
      </trkpt>
      <trkpt lat="49.82248" lon="0.78234">
        <ele>82.4</ele>
        <time>2020-06-18T09:54:09Z</time>
      </trkpt>
      <trkpt lat="49.82254" lon="0.78238">
        <ele>82.4</ele>
        <time>2020-06-18T09:54:10Z</time>
      </trkpt>
      <trkpt lat="49.8226" lon="0.78242">
        <ele>82.4</ele>
        <time>2020-06-18T09:54:11Z</time>
      </trkpt>
      <trkpt lat="49.82267" lon="0.78245">
        <ele>82.4</ele>
        <time>2020-06-18T09:54:12Z</time>
      </trkpt>
      <trkpt lat="49.82273" lon="0.78249">
        <ele>82.3</ele>
        <time>2020-06-18T09:54:13Z</time>
      </trkpt>
      <trkpt lat="49.82279" lon="0.78253">
        <ele>82.4</ele>
        <time>2020-06-18T09:54:14Z</time>
      </trkpt>
      <trkpt lat="49.82285" lon="0.78257">
        <ele>82.4</ele>
        <time>2020-06-18T09:54:15Z</time>
      </trkpt>
      <trkpt lat="49.82291" lon="0.78261">
        <ele>82.5</ele>
        <time>2020-06-18T09:54:16Z</time>
      </trkpt>
      <trkpt lat="49.82298" lon="0.78265">
        <ele>82.6</ele>
        <time>2020-06-18T09:54:17Z</time>
      </trkpt>
      <trkpt lat="49.82304" lon="0.78268">
        <ele>82.7</ele>
        <time>2020-06-18T09:54:18Z</time>
      </trkpt>
      <trkpt lat="49.8231" lon="0.78272">
        <ele>82.9</ele>
        <time>2020-06-18T09:54:19Z</time>
      </trkpt>
      <trkpt lat="49.82317" lon="0.78275">
        <ele>83</ele>
        <time>2020-06-18T09:54:20Z</time>
      </trkpt>
      <trkpt lat="49.82323" lon="0.78278">
        <ele>83.1</ele>
        <time>2020-06-18T09:54:21Z</time>
      </trkpt>
      <trkpt lat="49.82329" lon="0.78281">
        <ele>83.2</ele>
        <time>2020-06-18T09:54:22Z</time>
      </trkpt>
      <trkpt lat="49.82335" lon="0.78285">
        <ele>83.2</ele>
        <time>2020-06-18T09:54:23Z</time>
      </trkpt>
      <trkpt lat="49.82341" lon="0.78288">
        <ele>83.2</ele>
        <time>2020-06-18T09:54:24Z</time>
      </trkpt>
      <trkpt lat="49.82347" lon="0.78292">
        <ele>83.3</ele>
        <time>2020-06-18T09:54:25Z</time>
      </trkpt>
      <trkpt lat="49.82353" lon="0.78295">
        <ele>83.3</ele>
        <time>2020-06-18T09:54:26Z</time>
      </trkpt>
      <trkpt lat="49.82359" lon="0.78299">
        <ele>83.4</ele>
        <time>2020-06-18T09:54:27Z</time>
      </trkpt>
      <trkpt lat="49.82365" lon="0.78303">
        <ele>83.4</ele>
        <time>2020-06-18T09:54:28Z</time>
      </trkpt>
      <trkpt lat="49.82371" lon="0.78307">
        <ele>83.5</ele>
        <time>2020-06-18T09:54:29Z</time>
      </trkpt>
      <trkpt lat="49.82377" lon="0.78311">
        <ele>83.6</ele>
        <time>2020-06-18T09:54:30Z</time>
      </trkpt>
      <trkpt lat="49.82382" lon="0.78317">
        <ele>83.6</ele>
        <time>2020-06-18T09:54:31Z</time>
      </trkpt>
      <trkpt lat="49.82388" lon="0.78321">
        <ele>83.7</ele>
        <time>2020-06-18T09:54:32Z</time>
      </trkpt>
      <trkpt lat="49.82393" lon="0.78325">
        <ele>83.7</ele>
        <time>2020-06-18T09:54:33Z</time>
      </trkpt>
      <trkpt lat="49.82398" lon="0.7833">
        <ele>83.8</ele>
        <time>2020-06-18T09:54:34Z</time>
      </trkpt>
      <trkpt lat="49.82403" lon="0.78334">
        <ele>83.9</ele>
        <time>2020-06-18T09:54:35Z</time>
      </trkpt>
      <trkpt lat="49.82408" lon="0.78339">
        <ele>84</ele>
        <time>2020-06-18T09:54:36Z</time>
      </trkpt>
      <trkpt lat="49.82413" lon="0.78344">
        <ele>84.1</ele>
        <time>2020-06-18T09:54:37Z</time>
      </trkpt>
      <trkpt lat="49.82418" lon="0.78348">
        <ele>84.2</ele>
        <time>2020-06-18T09:54:38Z</time>
      </trkpt>
      <trkpt lat="49.82423" lon="0.78353">
        <ele>84.3</ele>
        <time>2020-06-18T09:54:39Z</time>
      </trkpt>
      <trkpt lat="49.82427" lon="0.78359">
        <ele>84.4</ele>
        <time>2020-06-18T09:54:40Z</time>
      </trkpt>
      <trkpt lat="49.82432" lon="0.78363">
        <ele>84.5</ele>
        <time>2020-06-18T09:54:41Z</time>
      </trkpt>
      <trkpt lat="49.82437" lon="0.78368">
        <ele>84.6</ele>
        <time>2020-06-18T09:54:42Z</time>
      </trkpt>
      <trkpt lat="49.82442" lon="0.78374">
        <ele>84.7</ele>
        <time>2020-06-18T09:54:43Z</time>
      </trkpt>
      <trkpt lat="49.82447" lon="0.78379">
        <ele>84.8</ele>
        <time>2020-06-18T09:54:44Z</time>
      </trkpt>
      <trkpt lat="49.82451" lon="0.78385">
        <ele>85</ele>
        <time>2020-06-18T09:54:45Z</time>
      </trkpt>
      <trkpt lat="49.82455" lon="0.78391">
        <ele>85.1</ele>
        <time>2020-06-18T09:54:46Z</time>
      </trkpt>
      <trkpt lat="49.82459" lon="0.78397">
        <ele>85.3</ele>
        <time>2020-06-18T09:54:47Z</time>
      </trkpt>
      <trkpt lat="49.82463" lon="0.78402">
        <ele>85.3</ele>
        <time>2020-06-18T09:54:48Z</time>
      </trkpt>
      <trkpt lat="49.82468" lon="0.78407">
        <ele>85.4</ele>
        <time>2020-06-18T09:54:49Z</time>
      </trkpt>
      <trkpt lat="49.82473" lon="0.78412">
        <ele>85.6</ele>
        <time>2020-06-18T09:54:50Z</time>
      </trkpt>
      <trkpt lat="49.82477" lon="0.78418">
        <ele>85.7</ele>
        <time>2020-06-18T09:54:51Z</time>
      </trkpt>
      <trkpt lat="49.82481" lon="0.78423">
        <ele>85.8</ele>
        <time>2020-06-18T09:54:52Z</time>
      </trkpt>
      <trkpt lat="49.82484" lon="0.7843">
        <ele>85.9</ele>
        <time>2020-06-18T09:54:53Z</time>
      </trkpt>
      <trkpt lat="49.82488" lon="0.78436">
        <ele>86.1</ele>
        <time>2020-06-18T09:54:54Z</time>
      </trkpt>
      <trkpt lat="49.82492" lon="0.78442">
        <ele>86.2</ele>
        <time>2020-06-18T09:54:55Z</time>
      </trkpt>
      <trkpt lat="49.82496" lon="0.78448">
        <ele>86.3</ele>
        <time>2020-06-18T09:54:56Z</time>
      </trkpt>
      <trkpt lat="49.825" lon="0.78455">
        <ele>86.4</ele>
        <time>2020-06-18T09:54:57Z</time>
      </trkpt>
      <trkpt lat="49.82503" lon="0.78462">
        <ele>86.6</ele>
        <time>2020-06-18T09:54:58Z</time>
      </trkpt>
      <trkpt lat="49.82507" lon="0.7847">
        <ele>86.7</ele>
        <time>2020-06-18T09:54:59Z</time>
      </trkpt>
      <trkpt lat="49.82511" lon="0.78475">
        <ele>86.7</ele>
        <time>2020-06-18T09:55:00Z</time>
      </trkpt>
      <trkpt lat="49.82516" lon="0.78481">
        <ele>86.8</ele>
        <time>2020-06-18T09:55:01Z</time>
      </trkpt>
      <trkpt lat="49.8252" lon="0.78487">
        <ele>86.9</ele>
        <time>2020-06-18T09:55:02Z</time>
      </trkpt>
      <trkpt lat="49.82524" lon="0.78493">
        <ele>87</ele>
        <time>2020-06-18T09:55:03Z</time>
      </trkpt>
      <trkpt lat="49.82529" lon="0.78498">
        <ele>87.2</ele>
        <time>2020-06-18T09:55:04Z</time>
      </trkpt>
      <trkpt lat="49.82534" lon="0.78504">
        <ele>87.3</ele>
        <time>2020-06-18T09:55:05Z</time>
      </trkpt>
      <trkpt lat="49.82537" lon="0.7851">
        <ele>87.5</ele>
        <time>2020-06-18T09:55:06Z</time>
      </trkpt>
      <trkpt lat="49.82542" lon="0.78516">
        <ele>87.5</ele>
        <time>2020-06-18T09:55:07Z</time>
      </trkpt>
      <trkpt lat="49.82546" lon="0.78522">
        <ele>87.6</ele>
        <time>2020-06-18T09:55:08Z</time>
      </trkpt>
      <trkpt lat="49.8255" lon="0.78528">
        <ele>87.7</ele>
        <time>2020-06-18T09:55:09Z</time>
      </trkpt>
      <trkpt lat="49.82554" lon="0.78533">
        <ele>87.7</ele>
        <time>2020-06-18T09:55:10Z</time>
      </trkpt>
      <trkpt lat="49.82558" lon="0.78539">
        <ele>87.8</ele>
        <time>2020-06-18T09:55:11Z</time>
      </trkpt>
      <trkpt lat="49.82562" lon="0.78544">
        <ele>87.9</ele>
        <time>2020-06-18T09:55:12Z</time>
      </trkpt>
      <trkpt lat="49.82566" lon="0.78549">
        <ele>87.9</ele>
        <time>2020-06-18T09:55:13Z</time>
      </trkpt>
      <trkpt lat="49.8257" lon="0.78554">
        <ele>88</ele>
        <time>2020-06-18T09:55:14Z</time>
      </trkpt>
      <trkpt lat="49.82574" lon="0.7856">
        <ele>88.1</ele>
        <time>2020-06-18T09:55:15Z</time>
      </trkpt>
      <trkpt lat="49.82578" lon="0.78566">
        <ele>88.2</ele>
        <time>2020-06-18T09:55:16Z</time>
      </trkpt>
      <trkpt lat="49.82581" lon="0.78573">
        <ele>88.3</ele>
        <time>2020-06-18T09:55:17Z</time>
      </trkpt>
      <trkpt lat="49.82584" lon="0.78579">
        <ele>88.4</ele>
        <time>2020-06-18T09:55:18Z</time>
      </trkpt>
      <trkpt lat="49.82588" lon="0.78584">
        <ele>88.5</ele>
        <time>2020-06-18T09:55:19Z</time>
      </trkpt>
      <trkpt lat="49.82592" lon="0.78589">
        <ele>88.6</ele>
        <time>2020-06-18T09:55:20Z</time>
      </trkpt>
      <trkpt lat="49.82595" lon="0.78595">
        <ele>88.7</ele>
        <time>2020-06-18T09:55:21Z</time>
      </trkpt>
      <trkpt lat="49.82599" lon="0.786">
        <ele>88.8</ele>
        <time>2020-06-18T09:55:22Z</time>
      </trkpt>
      <trkpt lat="49.82602" lon="0.78605">
        <ele>88.9</ele>
        <time>2020-06-18T09:55:23Z</time>
      </trkpt>
      <trkpt lat="49.82606" lon="0.78609">
        <ele>89</ele>
        <time>2020-06-18T09:55:24Z</time>
      </trkpt>
      <trkpt lat="49.82609" lon="0.78614">
        <ele>89.1</ele>
        <time>2020-06-18T09:55:25Z</time>
      </trkpt>
      <trkpt lat="49.82613" lon="0.78619">
        <ele>89.3</ele>
        <time>2020-06-18T09:55:26Z</time>
      </trkpt>
      <trkpt lat="49.82617" lon="0.78622">
        <ele>89.4</ele>
        <time>2020-06-18T09:55:27Z</time>
      </trkpt>
      <trkpt lat="49.8262" lon="0.78626">
        <ele>89.5</ele>
        <time>2020-06-18T09:55:28Z</time>
      </trkpt>
      <trkpt lat="49.82624" lon="0.78631">
        <ele>89.6</ele>
        <time>2020-06-18T09:55:29Z</time>
      </trkpt>
      <trkpt lat="49.82629" lon="0.78635">
        <ele>89.8</ele>
        <time>2020-06-18T09:55:30Z</time>
      </trkpt>
      <trkpt lat="49.82633" lon="0.78639">
        <ele>89.9</ele>
        <time>2020-06-18T09:55:31Z</time>
      </trkpt>
      <trkpt lat="49.82637" lon="0.78642">
        <ele>90</ele>
        <time>2020-06-18T09:55:32Z</time>
      </trkpt>
      <trkpt lat="49.82641" lon="0.78645">
        <ele>90.1</ele>
        <time>2020-06-18T09:55:33Z</time>
      </trkpt>
      <trkpt lat="49.82645" lon="0.78649">
        <ele>90.2</ele>
        <time>2020-06-18T09:55:34Z</time>
      </trkpt>
      <trkpt lat="49.82649" lon="0.78651">
        <ele>90.2</ele>
        <time>2020-06-18T09:55:35Z</time>
      </trkpt>
      <trkpt lat="49.82652" lon="0.78655">
        <ele>90.3</ele>
        <time>2020-06-18T09:55:36Z</time>
      </trkpt>
      <trkpt lat="49.82656" lon="0.78659">
        <ele>90.3</ele>
        <time>2020-06-18T09:55:37Z</time>
      </trkpt>
      <trkpt lat="49.8266" lon="0.78662">
        <ele>90.4</ele>
        <time>2020-06-18T09:55:38Z</time>
      </trkpt>
      <trkpt lat="49.82664" lon="0.78666">
        <ele>90.4</ele>
        <time>2020-06-18T09:55:39Z</time>
      </trkpt>
      <trkpt lat="49.82667" lon="0.7867">
        <ele>90.4</ele>
        <time>2020-06-18T09:55:40Z</time>
      </trkpt>
      <trkpt lat="49.82671" lon="0.78674">
        <ele>90.4</ele>
        <time>2020-06-18T09:55:41Z</time>
      </trkpt>
      <trkpt lat="49.82674" lon="0.78678">
        <ele>90.5</ele>
        <time>2020-06-18T09:55:42Z</time>
      </trkpt>
      <trkpt lat="49.82678" lon="0.78682">
        <ele>90.5</ele>
        <time>2020-06-18T09:55:43Z</time>
      </trkpt>
      <trkpt lat="49.82682" lon="0.78686">
        <ele>90.5</ele>
        <time>2020-06-18T09:55:44Z</time>
      </trkpt>
      <trkpt lat="49.82687" lon="0.78689">
        <ele>90.5</ele>
        <time>2020-06-18T09:55:45Z</time>
      </trkpt>
      <trkpt lat="49.82692" lon="0.78691">
        <ele>90.5</ele>
        <time>2020-06-18T09:55:46Z</time>
      </trkpt>
      <trkpt lat="49.82696" lon="0.78695">
        <ele>90.5</ele>
        <time>2020-06-18T09:55:47Z</time>
      </trkpt>
      <trkpt lat="49.82699" lon="0.787">
        <ele>90.4</ele>
        <time>2020-06-18T09:55:48Z</time>
      </trkpt>
      <trkpt lat="49.82703" lon="0.78704">
        <ele>90.4</ele>
        <time>2020-06-18T09:55:49Z</time>
      </trkpt>
      <trkpt lat="49.82706" lon="0.78708">
        <ele>90.4</ele>
        <time>2020-06-18T09:55:50Z</time>
      </trkpt>
      <trkpt lat="49.8271" lon="0.78711">
        <ele>90.3</ele>
        <time>2020-06-18T09:55:51Z</time>
      </trkpt>
      <trkpt lat="49.82714" lon="0.78714">
        <ele>90.3</ele>
        <time>2020-06-18T09:55:52Z</time>
      </trkpt>
      <trkpt lat="49.82718" lon="0.78717">
        <ele>90.3</ele>
        <time>2020-06-18T09:55:53Z</time>
      </trkpt>
      <trkpt lat="49.82721" lon="0.78721">
        <ele>90.3</ele>
        <time>2020-06-18T09:55:54Z</time>
      </trkpt>
      <trkpt lat="49.82723" lon="0.78726">
        <ele>90.2</ele>
        <time>2020-06-18T09:55:55Z</time>
      </trkpt>
      <trkpt lat="49.82722" lon="0.78733">
        <ele>90.6</ele>
        <time>2020-06-18T09:55:56Z</time>
      </trkpt>
      <trkpt lat="49.8272" lon="0.78738">
        <ele>90.7</ele>
        <time>2020-06-18T09:55:57Z</time>
      </trkpt>
      <trkpt lat="49.82717" lon="0.78743">
        <ele>90.7</ele>
        <time>2020-06-18T09:55:58Z</time>
      </trkpt>
      <trkpt lat="49.82713" lon="0.78747">
        <ele>90.8</ele>
        <time>2020-06-18T09:55:59Z</time>
      </trkpt>
      <trkpt lat="49.82711" lon="0.78751">
        <ele>90.8</ele>
        <time>2020-06-18T09:56:00Z</time>
      </trkpt>
      <trkpt lat="49.82707" lon="0.78755">
        <ele>90.9</ele>
        <time>2020-06-18T09:56:01Z</time>
      </trkpt>
      <trkpt lat="49.82705" lon="0.78757">
        <ele>90.9</ele>
        <time>2020-06-18T09:56:02Z</time>
      </trkpt>
      <trkpt lat="49.82702" lon="0.7876">
        <ele>90.9</ele>
        <time>2020-06-18T09:56:03Z</time>
      </trkpt>
      <trkpt lat="49.82701" lon="0.7876">
        <ele>90.9</ele>
        <time>2020-06-18T09:56:04Z</time>
      </trkpt>
      <trkpt lat="49.82698" lon="0.78763">
        <ele>91</ele>
        <time>2020-06-18T09:56:05Z</time>
      </trkpt>
      <trkpt lat="49.82697" lon="0.78763">
        <ele>91</ele>
        <time>2020-06-18T09:56:06Z</time>
      </trkpt>
      <trkpt lat="49.82695" lon="0.78764">
        <ele>91</ele>
        <time>2020-06-18T09:56:07Z</time>
      </trkpt>
      <trkpt lat="49.82694" lon="0.78766">
        <ele>91</ele>
        <time>2020-06-18T09:56:08Z</time>
      </trkpt>
      <trkpt lat="49.82694" lon="0.78768">
        <ele>91</ele>
        <time>2020-06-18T09:56:09Z</time>
      </trkpt>
      <trkpt lat="49.82695" lon="0.78768">
        <ele>91</ele>
        <time>2020-06-18T09:56:10Z</time>
      </trkpt>
      <trkpt lat="49.82695" lon="0.78767">
        <ele>91</ele>
        <time>2020-06-18T09:56:11Z</time>
      </trkpt>
      <trkpt lat="49.82696" lon="0.78766">
        <ele>91</ele>
        <time>2020-06-18T09:56:12Z</time>
      </trkpt>
      <trkpt lat="49.82697" lon="0.78765">
        <ele>91</ele>
        <time>2020-06-18T09:56:13Z</time>
      </trkpt>
      <trkpt lat="49.82698" lon="0.78764">
        <ele>91</ele>
        <time>2020-06-18T09:56:14Z</time>
      </trkpt>
      <trkpt lat="49.827" lon="0.78762">
        <ele>91</ele>
        <time>2020-06-18T09:56:15Z</time>
      </trkpt>
      <trkpt lat="49.82701" lon="0.7876">
        <ele>91</ele>
        <time>2020-06-18T09:56:16Z</time>
      </trkpt>
      <trkpt lat="49.82704" lon="0.78757">
        <ele>91</ele>
        <time>2020-06-18T09:56:17Z</time>
      </trkpt>
      <trkpt lat="49.82706" lon="0.78754">
        <ele>90.9</ele>
        <time>2020-06-18T09:56:18Z</time>
      </trkpt>
      <trkpt lat="49.8271" lon="0.78752">
        <ele>90.9</ele>
        <time>2020-06-18T09:56:19Z</time>
      </trkpt>
      <trkpt lat="49.82712" lon="0.78748">
        <ele>90.8</ele>
        <time>2020-06-18T09:56:20Z</time>
      </trkpt>
      <trkpt lat="49.82716" lon="0.78744">
        <ele>90.8</ele>
        <time>2020-06-18T09:56:21Z</time>
      </trkpt>
      <trkpt lat="49.82719" lon="0.7874">
        <ele>90.7</ele>
        <time>2020-06-18T09:56:22Z</time>
      </trkpt>
      <trkpt lat="49.82722" lon="0.78737">
        <ele>90.7</ele>
        <time>2020-06-18T09:56:23Z</time>
      </trkpt>
      <trkpt lat="49.82725" lon="0.78733">
        <ele>90.6</ele>
        <time>2020-06-18T09:56:24Z</time>
      </trkpt>
      <trkpt lat="49.82728" lon="0.7873">
        <ele>90.6</ele>
        <time>2020-06-18T09:56:25Z</time>
      </trkpt>
      <trkpt lat="49.82731" lon="0.78726">
        <ele>90.5</ele>
        <time>2020-06-18T09:56:26Z</time>
      </trkpt>
      <trkpt lat="49.82734" lon="0.78723">
        <ele>90.5</ele>
        <time>2020-06-18T09:56:27Z</time>
      </trkpt>
      <trkpt lat="49.82737" lon="0.78721">
        <ele>90.4</ele>
        <time>2020-06-18T09:56:28Z</time>
      </trkpt>
      <trkpt lat="49.8274" lon="0.78718">
        <ele>90.3</ele>
        <time>2020-06-18T09:56:29Z</time>
      </trkpt>
      <trkpt lat="49.82743" lon="0.78714">
        <ele>90.3</ele>
        <time>2020-06-18T09:56:30Z</time>
      </trkpt>
      <trkpt lat="49.82746" lon="0.7871">
        <ele>90.2</ele>
        <time>2020-06-18T09:56:31Z</time>
      </trkpt>
      <trkpt lat="49.8275" lon="0.78708">
        <ele>90.2</ele>
        <time>2020-06-18T09:56:32Z</time>
      </trkpt>
      <trkpt lat="49.82753" lon="0.78705">
        <ele>90.1</ele>
        <time>2020-06-18T09:56:33Z</time>
      </trkpt>
      <trkpt lat="49.82756" lon="0.78701">
        <ele>90.1</ele>
        <time>2020-06-18T09:56:34Z</time>
      </trkpt>
      <trkpt lat="49.82758" lon="0.78698">
        <ele>90.1</ele>
        <time>2020-06-18T09:56:35Z</time>
      </trkpt>
      <trkpt lat="49.82761" lon="0.78696">
        <ele>90.1</ele>
        <time>2020-06-18T09:56:36Z</time>
      </trkpt>
      <trkpt lat="49.82764" lon="0.78693">
        <ele>90.1</ele>
        <time>2020-06-18T09:56:37Z</time>
      </trkpt>
      <trkpt lat="49.82765" lon="0.78693">
        <ele>90</ele>
        <time>2020-06-18T09:56:38Z</time>
      </trkpt>
      <trkpt lat="49.82769" lon="0.78694">
        <ele>89.9</ele>
        <time>2020-06-18T09:56:39Z</time>
      </trkpt>
      <trkpt lat="49.82771" lon="0.78699">
        <ele>89.8</ele>
        <time>2020-06-18T09:56:40Z</time>
      </trkpt>
      <trkpt lat="49.82774" lon="0.78705">
        <ele>89.7</ele>
        <time>2020-06-18T09:56:41Z</time>
      </trkpt>
      <trkpt lat="49.82777" lon="0.78712">
        <ele>89.6</ele>
        <time>2020-06-18T09:56:42Z</time>
      </trkpt>
      <trkpt lat="49.82779" lon="0.78719">
        <ele>89.5</ele>
        <time>2020-06-18T09:56:43Z</time>
      </trkpt>
      <trkpt lat="49.82782" lon="0.78725">
        <ele>89.5</ele>
        <time>2020-06-18T09:56:44Z</time>
      </trkpt>
      <trkpt lat="49.82784" lon="0.78732">
        <ele>89.4</ele>
        <time>2020-06-18T09:56:45Z</time>
      </trkpt>
      <trkpt lat="49.82787" lon="0.78738">
        <ele>89.4</ele>
        <time>2020-06-18T09:56:46Z</time>
      </trkpt>
      <trkpt lat="49.82789" lon="0.78746">
        <ele>89.4</ele>
        <time>2020-06-18T09:56:47Z</time>
      </trkpt>
      <trkpt lat="49.82791" lon="0.78753">
        <ele>89.4</ele>
        <time>2020-06-18T09:56:48Z</time>
      </trkpt>
      <trkpt lat="49.82794" lon="0.78759">
        <ele>89.4</ele>
        <time>2020-06-18T09:56:49Z</time>
      </trkpt>
      <trkpt lat="49.82797" lon="0.78765">
        <ele>89.4</ele>
        <time>2020-06-18T09:56:50Z</time>
      </trkpt>
      <trkpt lat="49.82799" lon="0.7877">
        <ele>89.4</ele>
        <time>2020-06-18T09:56:51Z</time>
      </trkpt>
      <trkpt lat="49.82801" lon="0.78775">
        <ele>89.4</ele>
        <time>2020-06-18T09:56:52Z</time>
      </trkpt>
      <trkpt lat="49.828" lon="0.7878">
        <ele>89.4</ele>
        <time>2020-06-18T09:56:53Z</time>
      </trkpt>
      <trkpt lat="49.82796" lon="0.78786">
        <ele>89.4</ele>
        <time>2020-06-18T09:56:54Z</time>
      </trkpt>
      <trkpt lat="49.82792" lon="0.78791">
        <ele>89.4</ele>
        <time>2020-06-18T09:56:55Z</time>
      </trkpt>
      <trkpt lat="49.82788" lon="0.78795">
        <ele>89.4</ele>
        <time>2020-06-18T09:56:56Z</time>
      </trkpt>
      <trkpt lat="49.82784" lon="0.78799">
        <ele>89.3</ele>
        <time>2020-06-18T09:56:57Z</time>
      </trkpt>
      <trkpt lat="49.82781" lon="0.78802">
        <ele>89.3</ele>
        <time>2020-06-18T09:56:58Z</time>
      </trkpt>
      <trkpt lat="49.82778" lon="0.78806">
        <ele>89.3</ele>
        <time>2020-06-18T09:56:59Z</time>
      </trkpt>
      <trkpt lat="49.82774" lon="0.78809">
        <ele>89.2</ele>
        <time>2020-06-18T09:57:00Z</time>
      </trkpt>
      <trkpt lat="49.82773" lon="0.78813">
        <ele>89.2</ele>
        <time>2020-06-18T09:57:01Z</time>
      </trkpt>
      <trkpt lat="49.82772" lon="0.78819">
        <ele>89.2</ele>
        <time>2020-06-18T09:57:02Z</time>
      </trkpt>
      <trkpt lat="49.82774" lon="0.78826">
        <ele>89.2</ele>
        <time>2020-06-18T09:57:03Z</time>
      </trkpt>
      <trkpt lat="49.82775" lon="0.78833">
        <ele>89.2</ele>
        <time>2020-06-18T09:57:04Z</time>
      </trkpt>
      <trkpt lat="49.82777" lon="0.7884">
        <ele>89.2</ele>
        <time>2020-06-18T09:57:05Z</time>
      </trkpt>
      <trkpt lat="49.82779" lon="0.78847">
        <ele>89.2</ele>
        <time>2020-06-18T09:57:06Z</time>
      </trkpt>
      <trkpt lat="49.8278" lon="0.78854">
        <ele>89.2</ele>
        <time>2020-06-18T09:57:07Z</time>
      </trkpt>
      <trkpt lat="49.82782" lon="0.78861">
        <ele>89.3</ele>
        <time>2020-06-18T09:57:08Z</time>
      </trkpt>
      <trkpt lat="49.82785" lon="0.78867">
        <ele>89.3</ele>
        <time>2020-06-18T09:57:09Z</time>
      </trkpt>
      <trkpt lat="49.82787" lon="0.78873">
        <ele>89.4</ele>
        <time>2020-06-18T09:57:10Z</time>
      </trkpt>
      <trkpt lat="49.82789" lon="0.7888">
        <ele>89.4</ele>
        <time>2020-06-18T09:57:11Z</time>
      </trkpt>
      <trkpt lat="49.82792" lon="0.78886">
        <ele>89.5</ele>
        <time>2020-06-18T09:57:12Z</time>
      </trkpt>
      <trkpt lat="49.82793" lon="0.78893">
        <ele>89.6</ele>
        <time>2020-06-18T09:57:13Z</time>
      </trkpt>
      <trkpt lat="49.82795" lon="0.78899">
        <ele>89.7</ele>
        <time>2020-06-18T09:57:14Z</time>
      </trkpt>
      <trkpt lat="49.82798" lon="0.78905">
        <ele>89.8</ele>
        <time>2020-06-18T09:57:15Z</time>
      </trkpt>
      <trkpt lat="49.828" lon="0.78911">
        <ele>89.9</ele>
        <time>2020-06-18T09:57:16Z</time>
      </trkpt>
      <trkpt lat="49.82803" lon="0.78916">
        <ele>89.9</ele>
        <time>2020-06-18T09:57:17Z</time>
      </trkpt>
      <trkpt lat="49.82806" lon="0.78921">
        <ele>90</ele>
        <time>2020-06-18T09:57:18Z</time>
      </trkpt>
      <trkpt lat="49.82809" lon="0.78924">
        <ele>90.1</ele>
        <time>2020-06-18T09:57:19Z</time>
      </trkpt>
      <trkpt lat="49.82811" lon="0.78929">
        <ele>90.2</ele>
        <time>2020-06-18T09:57:20Z</time>
      </trkpt>
      <trkpt lat="49.82814" lon="0.78933">
        <ele>90.3</ele>
        <time>2020-06-18T09:57:21Z</time>
      </trkpt>
      <trkpt lat="49.82818" lon="0.78936">
        <ele>90.4</ele>
        <time>2020-06-18T09:57:22Z</time>
      </trkpt>
      <trkpt lat="49.82821" lon="0.78939">
        <ele>90.5</ele>
        <time>2020-06-18T09:57:23Z</time>
      </trkpt>
      <trkpt lat="49.82824" lon="0.78943">
        <ele>90.6</ele>
        <time>2020-06-18T09:57:24Z</time>
      </trkpt>
      <trkpt lat="49.82827" lon="0.78946">
        <ele>90.7</ele>
        <time>2020-06-18T09:57:25Z</time>
      </trkpt>
      <trkpt lat="49.82831" lon="0.78948">
        <ele>90.8</ele>
        <time>2020-06-18T09:57:26Z</time>
      </trkpt>
      <trkpt lat="49.82835" lon="0.78951">
        <ele>91</ele>
        <time>2020-06-18T09:57:27Z</time>
      </trkpt>
      <trkpt lat="49.82838" lon="0.78954">
        <ele>91</ele>
        <time>2020-06-18T09:57:28Z</time>
      </trkpt>
      <trkpt lat="49.82843" lon="0.78956">
        <ele>91.1</ele>
        <time>2020-06-18T09:57:29Z</time>
      </trkpt>
      <trkpt lat="49.82845" lon="0.78961">
        <ele>91.2</ele>
        <time>2020-06-18T09:57:30Z</time>
      </trkpt>
      <trkpt lat="49.82847" lon="0.78967">
        <ele>91.3</ele>
        <time>2020-06-18T09:57:31Z</time>
      </trkpt>
      <trkpt lat="49.82846" lon="0.78974">
        <ele>91.4</ele>
        <time>2020-06-18T09:57:32Z</time>
      </trkpt>
      <trkpt lat="49.82846" lon="0.7898">
        <ele>91.4</ele>
        <time>2020-06-18T09:57:33Z</time>
      </trkpt>
      <trkpt lat="49.82845" lon="0.78986">
        <ele>91.5</ele>
        <time>2020-06-18T09:57:34Z</time>
      </trkpt>
      <trkpt lat="49.82845" lon="0.78992">
        <ele>91.6</ele>
        <time>2020-06-18T09:57:35Z</time>
      </trkpt>
      <trkpt lat="49.82845" lon="0.78999">
        <ele>91.6</ele>
        <time>2020-06-18T09:57:36Z</time>
      </trkpt>
      <trkpt lat="49.82844" lon="0.79006">
        <ele>91.7</ele>
        <time>2020-06-18T09:57:37Z</time>
      </trkpt>
      <trkpt lat="49.82843" lon="0.79012">
        <ele>91.7</ele>
        <time>2020-06-18T09:57:38Z</time>
      </trkpt>
      <trkpt lat="49.82844" lon="0.79018">
        <ele>91.8</ele>
        <time>2020-06-18T09:57:39Z</time>
      </trkpt>
      <trkpt lat="49.82844" lon="0.79024">
        <ele>91.8</ele>
        <time>2020-06-18T09:57:40Z</time>
      </trkpt>
      <trkpt lat="49.82843" lon="0.7903">
        <ele>91.9</ele>
        <time>2020-06-18T09:57:41Z</time>
      </trkpt>
      <trkpt lat="49.82843" lon="0.79036">
        <ele>91.9</ele>
        <time>2020-06-18T09:57:42Z</time>
      </trkpt>
      <trkpt lat="49.82843" lon="0.79042">
        <ele>91.9</ele>
        <time>2020-06-18T09:57:43Z</time>
      </trkpt>
      <trkpt lat="49.82842" lon="0.79047">
        <ele>92</ele>
        <time>2020-06-18T09:57:44Z</time>
      </trkpt>
      <trkpt lat="49.82842" lon="0.79052">
        <ele>92</ele>
        <time>2020-06-18T09:57:45Z</time>
      </trkpt>
      <trkpt lat="49.82842" lon="0.79056">
        <ele>92</ele>
        <time>2020-06-18T09:57:46Z</time>
      </trkpt>
      <trkpt lat="49.82841" lon="0.79061">
        <ele>92.1</ele>
        <time>2020-06-18T09:57:47Z</time>
      </trkpt>
      <trkpt lat="49.82842" lon="0.79066">
        <ele>92.1</ele>
        <time>2020-06-18T09:57:48Z</time>
      </trkpt>
      <trkpt lat="49.82842" lon="0.79067">
        <ele>92.1</ele>
        <time>2020-06-18T09:57:49Z</time>
      </trkpt>
      <trkpt lat="49.82841" lon="0.7907">
        <ele>92.1</ele>
        <time>2020-06-18T09:57:50Z</time>
      </trkpt>
      <trkpt lat="49.82841" lon="0.79072">
        <ele>92.1</ele>
        <time>2020-06-18T09:57:51Z</time>
      </trkpt>
      <trkpt lat="49.82841" lon="0.79073">
        <ele>92.2</ele>
        <time>2020-06-18T09:57:52Z</time>
      </trkpt>
      <trkpt lat="49.82842" lon="0.79074">
        <ele>92.2</ele>
        <time>2020-06-18T09:57:53Z</time>
      </trkpt>
      <trkpt lat="49.82842" lon="0.79074">
        <ele>92.2</ele>
        <time>2020-06-18T09:57:54Z</time>
      </trkpt>
      <trkpt lat="49.82843" lon="0.79075">
        <ele>92.2</ele>
        <time>2020-06-18T09:57:55Z</time>
      </trkpt>
      <trkpt lat="49.82846" lon="0.79079">
        <ele>92.2</ele>
        <time>2020-06-18T09:57:56Z</time>
      </trkpt>
      <trkpt lat="49.82847" lon="0.7908">
        <ele>92.2</ele>
        <time>2020-06-18T09:57:57Z</time>
      </trkpt>
      <trkpt lat="49.8285" lon="0.79081">
        <ele>92.2</ele>
        <time>2020-06-18T09:57:58Z</time>
      </trkpt>
      <trkpt lat="49.82854" lon="0.79082">
        <ele>92.2</ele>
        <time>2020-06-18T09:57:59Z</time>
      </trkpt>
      <trkpt lat="49.82856" lon="0.79082">
        <ele>92.2</ele>
        <time>2020-06-18T09:58:00Z</time>
      </trkpt>
      <trkpt lat="49.82859" lon="0.79081">
        <ele>92.2</ele>
        <time>2020-06-18T09:58:01Z</time>
      </trkpt>
      <trkpt lat="49.82863" lon="0.79081">
        <ele>92.2</ele>
        <time>2020-06-18T09:58:02Z</time>
      </trkpt>
      <trkpt lat="49.82867" lon="0.79083">
        <ele>92.2</ele>
        <time>2020-06-18T09:58:03Z</time>
      </trkpt>
      <trkpt lat="49.82871" lon="0.79085">
        <ele>92.1</ele>
        <time>2020-06-18T09:58:04Z</time>
      </trkpt>
      <trkpt lat="49.82876" lon="0.79087">
        <ele>92.1</ele>
        <time>2020-06-18T09:58:05Z</time>
      </trkpt>
      <trkpt lat="49.8288" lon="0.79088">
        <ele>92.1</ele>
        <time>2020-06-18T09:58:06Z</time>
      </trkpt>
      <trkpt lat="49.82885" lon="0.79089">
        <ele>92.1</ele>
        <time>2020-06-18T09:58:07Z</time>
      </trkpt>
      <trkpt lat="49.82889" lon="0.79089">
        <ele>92.1</ele>
        <time>2020-06-18T09:58:08Z</time>
      </trkpt>
      <trkpt lat="49.82892" lon="0.79091">
        <ele>92.1</ele>
        <time>2020-06-18T09:58:09Z</time>
      </trkpt>
      <trkpt lat="49.82896" lon="0.79092">
        <ele>92.1</ele>
        <time>2020-06-18T09:58:10Z</time>
      </trkpt>
      <trkpt lat="49.82899" lon="0.79093">
        <ele>92.1</ele>
        <time>2020-06-18T09:58:11Z</time>
      </trkpt>
      <trkpt lat="49.82903" lon="0.79092">
        <ele>92.1</ele>
        <time>2020-06-18T09:58:12Z</time>
      </trkpt>
      <trkpt lat="49.82907" lon="0.79094">
        <ele>92.1</ele>
        <time>2020-06-18T09:58:13Z</time>
      </trkpt>
      <trkpt lat="49.82911" lon="0.79095">
        <ele>92.1</ele>
        <time>2020-06-18T09:58:14Z</time>
      </trkpt>
      <trkpt lat="49.82915" lon="0.79097">
        <ele>92.1</ele>
        <time>2020-06-18T09:58:15Z</time>
      </trkpt>
      <trkpt lat="49.82918" lon="0.79101">
        <ele>92</ele>
        <time>2020-06-18T09:58:16Z</time>
      </trkpt>
      <trkpt lat="49.8292" lon="0.79107">
        <ele>92</ele>
        <time>2020-06-18T09:58:17Z</time>
      </trkpt>
      <trkpt lat="49.82923" lon="0.79112">
        <ele>91.9</ele>
        <time>2020-06-18T09:58:18Z</time>
      </trkpt>
      <trkpt lat="49.82926" lon="0.79118">
        <ele>91.9</ele>
        <time>2020-06-18T09:58:19Z</time>
      </trkpt>
      <trkpt lat="49.82928" lon="0.79124">
        <ele>91.8</ele>
        <time>2020-06-18T09:58:20Z</time>
      </trkpt>
      <trkpt lat="49.82931" lon="0.79131">
        <ele>91.8</ele>
        <time>2020-06-18T09:58:21Z</time>
      </trkpt>
      <trkpt lat="49.82934" lon="0.79137">
        <ele>91.7</ele>
        <time>2020-06-18T09:58:22Z</time>
      </trkpt>
      <trkpt lat="49.82936" lon="0.79144">
        <ele>91.6</ele>
        <time>2020-06-18T09:58:23Z</time>
      </trkpt>
      <trkpt lat="49.82938" lon="0.7915">
        <ele>91.6</ele>
        <time>2020-06-18T09:58:24Z</time>
      </trkpt>
      <trkpt lat="49.8294" lon="0.79157">
        <ele>91.5</ele>
        <time>2020-06-18T09:58:25Z</time>
      </trkpt>
      <trkpt lat="49.82943" lon="0.79164">
        <ele>91.4</ele>
        <time>2020-06-18T09:58:26Z</time>
      </trkpt>
      <trkpt lat="49.82945" lon="0.7917">
        <ele>91.4</ele>
        <time>2020-06-18T09:58:27Z</time>
      </trkpt>
      <trkpt lat="49.82948" lon="0.79177">
        <ele>91.3</ele>
        <time>2020-06-18T09:58:28Z</time>
      </trkpt>
      <trkpt lat="49.82951" lon="0.79183">
        <ele>91.3</ele>
        <time>2020-06-18T09:58:29Z</time>
      </trkpt>
      <trkpt lat="49.82954" lon="0.7919">
        <ele>91.3</ele>
        <time>2020-06-18T09:58:30Z</time>
      </trkpt>
      <trkpt lat="49.82957" lon="0.79198">
        <ele>91.4</ele>
        <time>2020-06-18T09:58:31Z</time>
      </trkpt>
      <trkpt lat="49.8296" lon="0.79204">
        <ele>91.4</ele>
        <time>2020-06-18T09:58:32Z</time>
      </trkpt>
      <trkpt lat="49.82964" lon="0.79211">
        <ele>91.3</ele>
        <time>2020-06-18T09:58:33Z</time>
      </trkpt>
      <trkpt lat="49.82967" lon="0.79218">
        <ele>91.3</ele>
        <time>2020-06-18T09:58:34Z</time>
      </trkpt>
      <trkpt lat="49.8297" lon="0.79225">
        <ele>91.3</ele>
        <time>2020-06-18T09:58:35Z</time>
      </trkpt>
      <trkpt lat="49.82974" lon="0.79232">
        <ele>91.2</ele>
        <time>2020-06-18T09:58:36Z</time>
      </trkpt>
      <trkpt lat="49.82977" lon="0.79238">
        <ele>91.2</ele>
        <time>2020-06-18T09:58:37Z</time>
      </trkpt>
      <trkpt lat="49.8298" lon="0.79245">
        <ele>91.1</ele>
        <time>2020-06-18T09:58:38Z</time>
      </trkpt>
      <trkpt lat="49.82983" lon="0.79252">
        <ele>91</ele>
        <time>2020-06-18T09:58:39Z</time>
      </trkpt>
      <trkpt lat="49.82985" lon="0.79258">
        <ele>91</ele>
        <time>2020-06-18T09:58:40Z</time>
      </trkpt>
      <trkpt lat="49.82988" lon="0.79265">
        <ele>90.9</ele>
        <time>2020-06-18T09:58:41Z</time>
      </trkpt>
      <trkpt lat="49.82989" lon="0.79274">
        <ele>90.8</ele>
        <time>2020-06-18T09:58:42Z</time>
      </trkpt>
      <trkpt lat="49.82992" lon="0.7928">
        <ele>90.7</ele>
        <time>2020-06-18T09:58:43Z</time>
      </trkpt>
      <trkpt lat="49.82994" lon="0.79288">
        <ele>90.6</ele>
        <time>2020-06-18T09:58:44Z</time>
      </trkpt>
      <trkpt lat="49.82995" lon="0.79296">
        <ele>90.5</ele>
        <time>2020-06-18T09:58:45Z</time>
      </trkpt>
      <trkpt lat="49.82997" lon="0.79305">
        <ele>90.4</ele>
        <time>2020-06-18T09:58:46Z</time>
      </trkpt>
      <trkpt lat="49.82999" lon="0.79314">
        <ele>90.3</ele>
        <time>2020-06-18T09:58:47Z</time>
      </trkpt>
      <trkpt lat="49.83" lon="0.79323">
        <ele>90.2</ele>
        <time>2020-06-18T09:58:48Z</time>
      </trkpt>
      <trkpt lat="49.83002" lon="0.79332">
        <ele>90.1</ele>
        <time>2020-06-18T09:58:49Z</time>
      </trkpt>
      <trkpt lat="49.83003" lon="0.79341">
        <ele>90</ele>
        <time>2020-06-18T09:58:50Z</time>
      </trkpt>
      <trkpt lat="49.83005" lon="0.79348">
        <ele>89.9</ele>
        <time>2020-06-18T09:58:51Z</time>
      </trkpt>
      <trkpt lat="49.83007" lon="0.79356">
        <ele>89.7</ele>
        <time>2020-06-18T09:58:52Z</time>
      </trkpt>
      <trkpt lat="49.83009" lon="0.79364">
        <ele>89.6</ele>
        <time>2020-06-18T09:58:53Z</time>
      </trkpt>
      <trkpt lat="49.83011" lon="0.79373">
        <ele>89.4</ele>
        <time>2020-06-18T09:58:54Z</time>
      </trkpt>
      <trkpt lat="49.83015" lon="0.7938">
        <ele>89.3</ele>
        <time>2020-06-18T09:58:55Z</time>
      </trkpt>
      <trkpt lat="49.83019" lon="0.79387">
        <ele>89.1</ele>
        <time>2020-06-18T09:58:56Z</time>
      </trkpt>
      <trkpt lat="49.83025" lon="0.79391">
        <ele>88.9</ele>
        <time>2020-06-18T09:58:57Z</time>
      </trkpt>
      <trkpt lat="49.83031" lon="0.79397">
        <ele>88.7</ele>
        <time>2020-06-18T09:58:58Z</time>
      </trkpt>
      <trkpt lat="49.83036" lon="0.79403">
        <ele>88.5</ele>
        <time>2020-06-18T09:58:59Z</time>
      </trkpt>
      <trkpt lat="49.83042" lon="0.79408">
        <ele>88.3</ele>
        <time>2020-06-18T09:59:00Z</time>
      </trkpt>
      <trkpt lat="49.83048" lon="0.79414">
        <ele>88.1</ele>
        <time>2020-06-18T09:59:01Z</time>
      </trkpt>
      <trkpt lat="49.83054" lon="0.7942">
        <ele>87.9</ele>
        <time>2020-06-18T09:59:02Z</time>
      </trkpt>
      <trkpt lat="49.8306" lon="0.79426">
        <ele>87.7</ele>
        <time>2020-06-18T09:59:03Z</time>
      </trkpt>
      <trkpt lat="49.83065" lon="0.79433">
        <ele>87.5</ele>
        <time>2020-06-18T09:59:04Z</time>
      </trkpt>
      <trkpt lat="49.83072" lon="0.79439">
        <ele>87.3</ele>
        <time>2020-06-18T09:59:05Z</time>
      </trkpt>
      <trkpt lat="49.83078" lon="0.79445">
        <ele>87.1</ele>
        <time>2020-06-18T09:59:06Z</time>
      </trkpt>
      <trkpt lat="49.83084" lon="0.79451">
        <ele>86.9</ele>
        <time>2020-06-18T09:59:07Z</time>
      </trkpt>
      <trkpt lat="49.8309" lon="0.79457">
        <ele>86.7</ele>
        <time>2020-06-18T09:59:08Z</time>
      </trkpt>
      <trkpt lat="49.83095" lon="0.79465">
        <ele>86.6</ele>
        <time>2020-06-18T09:59:09Z</time>
      </trkpt>
      <trkpt lat="49.83101" lon="0.79472">
        <ele>86.5</ele>
        <time>2020-06-18T09:59:10Z</time>
      </trkpt>
      <trkpt lat="49.83106" lon="0.7948">
        <ele>86.4</ele>
        <time>2020-06-18T09:59:11Z</time>
      </trkpt>
      <trkpt lat="49.83111" lon="0.79488">
        <ele>86.3</ele>
        <time>2020-06-18T09:59:12Z</time>
      </trkpt>
      <trkpt lat="49.83116" lon="0.79497">
        <ele>86</ele>
        <time>2020-06-18T09:59:13Z</time>
      </trkpt>
      <trkpt lat="49.83121" lon="0.79505">
        <ele>85.8</ele>
        <time>2020-06-18T09:59:14Z</time>
      </trkpt>
      <trkpt lat="49.83126" lon="0.79512">
        <ele>85.7</ele>
        <time>2020-06-18T09:59:15Z</time>
      </trkpt>
      <trkpt lat="49.83132" lon="0.7952">
        <ele>85.6</ele>
        <time>2020-06-18T09:59:16Z</time>
      </trkpt>
      <trkpt lat="49.83136" lon="0.79529">
        <ele>85.5</ele>
        <time>2020-06-18T09:59:17Z</time>
      </trkpt>
      <trkpt lat="49.8314" lon="0.79538">
        <ele>85.4</ele>
        <time>2020-06-18T09:59:18Z</time>
      </trkpt>
      <trkpt lat="49.83143" lon="0.79547">
        <ele>85.3</ele>
        <time>2020-06-18T09:59:19Z</time>
      </trkpt>
      <trkpt lat="49.83146" lon="0.79557">
        <ele>85.2</ele>
        <time>2020-06-18T09:59:20Z</time>
      </trkpt>
      <trkpt lat="49.83149" lon="0.79566">
        <ele>85.1</ele>
        <time>2020-06-18T09:59:21Z</time>
      </trkpt>
      <trkpt lat="49.83152" lon="0.79575">
        <ele>85.1</ele>
        <time>2020-06-18T09:59:22Z</time>
      </trkpt>
      <trkpt lat="49.83156" lon="0.79584">
        <ele>85</ele>
        <time>2020-06-18T09:59:23Z</time>
      </trkpt>
      <trkpt lat="49.83159" lon="0.79594">
        <ele>84.9</ele>
        <time>2020-06-18T09:59:24Z</time>
      </trkpt>
      <trkpt lat="49.83162" lon="0.79604">
        <ele>84.8</ele>
        <time>2020-06-18T09:59:25Z</time>
      </trkpt>
      <trkpt lat="49.83165" lon="0.79613">
        <ele>84.8</ele>
        <time>2020-06-18T09:59:26Z</time>
      </trkpt>
      <trkpt lat="49.83168" lon="0.79623">
        <ele>84.7</ele>
        <time>2020-06-18T09:59:27Z</time>
      </trkpt>
      <trkpt lat="49.83171" lon="0.79632">
        <ele>84.6</ele>
        <time>2020-06-18T09:59:28Z</time>
      </trkpt>
      <trkpt lat="49.83175" lon="0.79641">
        <ele>84.5</ele>
        <time>2020-06-18T09:59:29Z</time>
      </trkpt>
      <trkpt lat="49.83178" lon="0.7965">
        <ele>84.5</ele>
        <time>2020-06-18T09:59:30Z</time>
      </trkpt>
      <trkpt lat="49.83181" lon="0.7966">
        <ele>84.5</ele>
        <time>2020-06-18T09:59:31Z</time>
      </trkpt>
      <trkpt lat="49.83185" lon="0.79669">
        <ele>84.5</ele>
        <time>2020-06-18T09:59:32Z</time>
      </trkpt>
      <trkpt lat="49.83188" lon="0.79678">
        <ele>84.5</ele>
        <time>2020-06-18T09:59:33Z</time>
      </trkpt>
      <trkpt lat="49.83192" lon="0.79687">
        <ele>84.5</ele>
        <time>2020-06-18T09:59:34Z</time>
      </trkpt>
      <trkpt lat="49.83196" lon="0.79695">
        <ele>84.5</ele>
        <time>2020-06-18T09:59:35Z</time>
      </trkpt>
      <trkpt lat="49.83201" lon="0.79702">
        <ele>84.5</ele>
        <time>2020-06-18T09:59:36Z</time>
      </trkpt>
      <trkpt lat="49.83205" lon="0.79709">
        <ele>84.5</ele>
        <time>2020-06-18T09:59:37Z</time>
      </trkpt>
      <trkpt lat="49.8321" lon="0.79716">
        <ele>84.6</ele>
        <time>2020-06-18T09:59:38Z</time>
      </trkpt>
      <trkpt lat="49.83214" lon="0.79722">
        <ele>84.6</ele>
        <time>2020-06-18T09:59:39Z</time>
      </trkpt>
      <trkpt lat="49.8322" lon="0.79726">
        <ele>84.6</ele>
        <time>2020-06-18T09:59:40Z</time>
      </trkpt>
      <trkpt lat="49.83225" lon="0.79732">
        <ele>84.5</ele>
        <time>2020-06-18T09:59:41Z</time>
      </trkpt>
      <trkpt lat="49.8323" lon="0.79737">
        <ele>84.5</ele>
        <time>2020-06-18T09:59:42Z</time>
      </trkpt>
      <trkpt lat="49.83234" lon="0.79743">
        <ele>84.4</ele>
        <time>2020-06-18T09:59:43Z</time>
      </trkpt>
      <trkpt lat="49.83239" lon="0.7975">
        <ele>84.3</ele>
        <time>2020-06-18T09:59:44Z</time>
      </trkpt>
      <trkpt lat="49.83243" lon="0.79757">
        <ele>84.2</ele>
        <time>2020-06-18T09:59:45Z</time>
      </trkpt>
      <trkpt lat="49.83248" lon="0.79764">
        <ele>84.2</ele>
        <time>2020-06-18T09:59:46Z</time>
      </trkpt>
      <trkpt lat="49.83252" lon="0.79772">
        <ele>84.1</ele>
        <time>2020-06-18T09:59:47Z</time>
      </trkpt>
      <trkpt lat="49.83257" lon="0.79779">
        <ele>84</ele>
        <time>2020-06-18T09:59:48Z</time>
      </trkpt>
      <trkpt lat="49.83263" lon="0.79785">
        <ele>83.9</ele>
        <time>2020-06-18T09:59:49Z</time>
      </trkpt>
      <trkpt lat="49.83268" lon="0.79792">
        <ele>83.9</ele>
        <time>2020-06-18T09:59:50Z</time>
      </trkpt>
      <trkpt lat="49.83273" lon="0.79799">
        <ele>83.8</ele>
        <time>2020-06-18T09:59:51Z</time>
      </trkpt>
      <trkpt lat="49.83278" lon="0.79807">
        <ele>83.8</ele>
        <time>2020-06-18T09:59:52Z</time>
      </trkpt>
      <trkpt lat="49.83283" lon="0.79815">
        <ele>83.7</ele>
        <time>2020-06-18T09:59:53Z</time>
      </trkpt>
      <trkpt lat="49.83288" lon="0.79822">
        <ele>83.5</ele>
        <time>2020-06-18T09:59:54Z</time>
      </trkpt>
      <trkpt lat="49.83294" lon="0.79828">
        <ele>83.4</ele>
        <time>2020-06-18T09:59:55Z</time>
      </trkpt>
      <trkpt lat="49.833" lon="0.79835">
        <ele>83.3</ele>
        <time>2020-06-18T09:59:56Z</time>
      </trkpt>
      <trkpt lat="49.83305" lon="0.79842">
        <ele>83.1</ele>
        <time>2020-06-18T09:59:57Z</time>
      </trkpt>
      <trkpt lat="49.83311" lon="0.7985">
        <ele>83</ele>
        <time>2020-06-18T09:59:58Z</time>
      </trkpt>
      <trkpt lat="49.83316" lon="0.79859">
        <ele>82.9</ele>
        <time>2020-06-18T09:59:59Z</time>
      </trkpt>
      <trkpt lat="49.83321" lon="0.79866">
        <ele>82.8</ele>
        <time>2020-06-18T10:00:00Z</time>
      </trkpt>
      <trkpt lat="49.83326" lon="0.79874">
        <ele>82.7</ele>
        <time>2020-06-18T10:00:01Z</time>
      </trkpt>
      <trkpt lat="49.83331" lon="0.79882">
        <ele>82.7</ele>
        <time>2020-06-18T10:00:02Z</time>
      </trkpt>
      <trkpt lat="49.83337" lon="0.79889">
        <ele>82.6</ele>
        <time>2020-06-18T10:00:03Z</time>
      </trkpt>
      <trkpt lat="49.83341" lon="0.79898">
        <ele>82.6</ele>
        <time>2020-06-18T10:00:04Z</time>
      </trkpt>
      <trkpt lat="49.83346" lon="0.79905">
        <ele>82.6</ele>
        <time>2020-06-18T10:00:05Z</time>
      </trkpt>
      <trkpt lat="49.83351" lon="0.79913">
        <ele>82.5</ele>
        <time>2020-06-18T10:00:06Z</time>
      </trkpt>
      <trkpt lat="49.83356" lon="0.7992">
        <ele>82.3</ele>
        <time>2020-06-18T10:00:07Z</time>
      </trkpt>
      <trkpt lat="49.83361" lon="0.79928">
        <ele>82.2</ele>
        <time>2020-06-18T10:00:08Z</time>
      </trkpt>
      <trkpt lat="49.83366" lon="0.79935">
        <ele>82.2</ele>
        <time>2020-06-18T10:00:09Z</time>
      </trkpt>
      <trkpt lat="49.83371" lon="0.79942">
        <ele>82.1</ele>
        <time>2020-06-18T10:00:10Z</time>
      </trkpt>
      <trkpt lat="49.83376" lon="0.7995">
        <ele>82.1</ele>
        <time>2020-06-18T10:00:11Z</time>
      </trkpt>
      <trkpt lat="49.83381" lon="0.79957">
        <ele>82.1</ele>
        <time>2020-06-18T10:00:12Z</time>
      </trkpt>
      <trkpt lat="49.83386" lon="0.79964">
        <ele>82.1</ele>
        <time>2020-06-18T10:00:13Z</time>
      </trkpt>
      <trkpt lat="49.83391" lon="0.79971">
        <ele>82.1</ele>
        <time>2020-06-18T10:00:14Z</time>
      </trkpt>
      <trkpt lat="49.83395" lon="0.79979">
        <ele>82.1</ele>
        <time>2020-06-18T10:00:15Z</time>
      </trkpt>
      <trkpt lat="49.83399" lon="0.79987">
        <ele>82.1</ele>
        <time>2020-06-18T10:00:16Z</time>
      </trkpt>
      <trkpt lat="49.83404" lon="0.79995">
        <ele>82.1</ele>
        <time>2020-06-18T10:00:17Z</time>
      </trkpt>
      <trkpt lat="49.83408" lon="0.80003">
        <ele>82.2</ele>
        <time>2020-06-18T10:00:18Z</time>
      </trkpt>
      <trkpt lat="49.83412" lon="0.80011">
        <ele>82.2</ele>
        <time>2020-06-18T10:00:19Z</time>
      </trkpt>
      <trkpt lat="49.83416" lon="0.80018">
        <ele>82.3</ele>
        <time>2020-06-18T10:00:20Z</time>
      </trkpt>
      <trkpt lat="49.83421" lon="0.80026">
        <ele>82.3</ele>
        <time>2020-06-18T10:00:21Z</time>
      </trkpt>
      <trkpt lat="49.83425" lon="0.80034">
        <ele>82.2</ele>
        <time>2020-06-18T10:00:22Z</time>
      </trkpt>
      <trkpt lat="49.83429" lon="0.80042">
        <ele>82.2</ele>
        <time>2020-06-18T10:00:23Z</time>
      </trkpt>
      <trkpt lat="49.83433" lon="0.8005">
        <ele>82.2</ele>
        <time>2020-06-18T10:00:24Z</time>
      </trkpt>
      <trkpt lat="49.83437" lon="0.80058">
        <ele>82.2</ele>
        <time>2020-06-18T10:00:25Z</time>
      </trkpt>
      <trkpt lat="49.83441" lon="0.80065">
        <ele>82.1</ele>
        <time>2020-06-18T10:00:26Z</time>
      </trkpt>
      <trkpt lat="49.83445" lon="0.80074">
        <ele>82.1</ele>
        <time>2020-06-18T10:00:27Z</time>
      </trkpt>
      <trkpt lat="49.83448" lon="0.80082">
        <ele>82</ele>
        <time>2020-06-18T10:00:28Z</time>
      </trkpt>
      <trkpt lat="49.83452" lon="0.80091">
        <ele>82</ele>
        <time>2020-06-18T10:00:29Z</time>
      </trkpt>
      <trkpt lat="49.83456" lon="0.80099">
        <ele>82</ele>
        <time>2020-06-18T10:00:30Z</time>
      </trkpt>
      <trkpt lat="49.8346" lon="0.80108">
        <ele>81.9</ele>
        <time>2020-06-18T10:00:31Z</time>
      </trkpt>
      <trkpt lat="49.83464" lon="0.80116">
        <ele>81.9</ele>
        <time>2020-06-18T10:00:32Z</time>
      </trkpt>
      <trkpt lat="49.83468" lon="0.80124">
        <ele>81.8</ele>
        <time>2020-06-18T10:00:33Z</time>
      </trkpt>
      <trkpt lat="49.83471" lon="0.80131">
        <ele>81.7</ele>
        <time>2020-06-18T10:00:34Z</time>
      </trkpt>
      <trkpt lat="49.83475" lon="0.80139">
        <ele>81.6</ele>
        <time>2020-06-18T10:00:35Z</time>
      </trkpt>
      <trkpt lat="49.83479" lon="0.80145">
        <ele>81.5</ele>
        <time>2020-06-18T10:00:36Z</time>
      </trkpt>
      <trkpt lat="49.83483" lon="0.80153">
        <ele>81.4</ele>
        <time>2020-06-18T10:00:37Z</time>
      </trkpt>
      <trkpt lat="49.83486" lon="0.8016">
        <ele>81.3</ele>
        <time>2020-06-18T10:00:38Z</time>
      </trkpt>
      <trkpt lat="49.8349" lon="0.80168">
        <ele>81.2</ele>
        <time>2020-06-18T10:00:39Z</time>
      </trkpt>
      <trkpt lat="49.83492" lon="0.80176">
        <ele>81.1</ele>
        <time>2020-06-18T10:00:40Z</time>
      </trkpt>
      <trkpt lat="49.83495" lon="0.80185">
        <ele>81.1</ele>
        <time>2020-06-18T10:00:41Z</time>
      </trkpt>
      <trkpt lat="49.83499" lon="0.80194">
        <ele>81</ele>
        <time>2020-06-18T10:00:42Z</time>
      </trkpt>
      <trkpt lat="49.83503" lon="0.80201">
        <ele>81</ele>
        <time>2020-06-18T10:00:43Z</time>
      </trkpt>
      <trkpt lat="49.83507" lon="0.80209">
        <ele>80.9</ele>
        <time>2020-06-18T10:00:44Z</time>
      </trkpt>
      <trkpt lat="49.83511" lon="0.80216">
        <ele>80.8</ele>
        <time>2020-06-18T10:00:45Z</time>
      </trkpt>
      <trkpt lat="49.83514" lon="0.80224">
        <ele>80.8</ele>
        <time>2020-06-18T10:00:46Z</time>
      </trkpt>
      <trkpt lat="49.83517" lon="0.80232">
        <ele>80.7</ele>
        <time>2020-06-18T10:00:47Z</time>
      </trkpt>
      <trkpt lat="49.83519" lon="0.80239">
        <ele>80.6</ele>
        <time>2020-06-18T10:00:48Z</time>
      </trkpt>
      <trkpt lat="49.83523" lon="0.80245">
        <ele>80.6</ele>
        <time>2020-06-18T10:00:49Z</time>
      </trkpt>
      <trkpt lat="49.83526" lon="0.80252">
        <ele>80.4</ele>
        <time>2020-06-18T10:00:50Z</time>
      </trkpt>
      <trkpt lat="49.83529" lon="0.80259">
        <ele>80.3</ele>
        <time>2020-06-18T10:00:51Z</time>
      </trkpt>
      <trkpt lat="49.83533" lon="0.80267">
        <ele>80.1</ele>
        <time>2020-06-18T10:00:52Z</time>
      </trkpt>
      <trkpt lat="49.83536" lon="0.80274">
        <ele>80</ele>
        <time>2020-06-18T10:00:53Z</time>
      </trkpt>
      <trkpt lat="49.83539" lon="0.80282">
        <ele>79.8</ele>
        <time>2020-06-18T10:00:54Z</time>
      </trkpt>
      <trkpt lat="49.83543" lon="0.8029">
        <ele>79.7</ele>
        <time>2020-06-18T10:00:55Z</time>
      </trkpt>
      <trkpt lat="49.83546" lon="0.80298">
        <ele>79.6</ele>
        <time>2020-06-18T10:00:56Z</time>
      </trkpt>
      <trkpt lat="49.8355" lon="0.80306">
        <ele>79.5</ele>
        <time>2020-06-18T10:00:57Z</time>
      </trkpt>
      <trkpt lat="49.83553" lon="0.80314">
        <ele>79.4</ele>
        <time>2020-06-18T10:00:58Z</time>
      </trkpt>
      <trkpt lat="49.83556" lon="0.80322">
        <ele>79.2</ele>
        <time>2020-06-18T10:00:59Z</time>
      </trkpt>
      <trkpt lat="49.8356" lon="0.8033">
        <ele>79.1</ele>
        <time>2020-06-18T10:01:00Z</time>
      </trkpt>
      <trkpt lat="49.83563" lon="0.80338">
        <ele>78.9</ele>
        <time>2020-06-18T10:01:01Z</time>
      </trkpt>
      <trkpt lat="49.83567" lon="0.80346">
        <ele>78.7</ele>
        <time>2020-06-18T10:01:02Z</time>
      </trkpt>
      <trkpt lat="49.8357" lon="0.80354">
        <ele>78.6</ele>
        <time>2020-06-18T10:01:03Z</time>
      </trkpt>
      <trkpt lat="49.83574" lon="0.80362">
        <ele>78.4</ele>
        <time>2020-06-18T10:01:04Z</time>
      </trkpt>
      <trkpt lat="49.83576" lon="0.80371">
        <ele>78.3</ele>
        <time>2020-06-18T10:01:05Z</time>
      </trkpt>
      <trkpt lat="49.8358" lon="0.80379">
        <ele>78.2</ele>
        <time>2020-06-18T10:01:06Z</time>
      </trkpt>
      <trkpt lat="49.83583" lon="0.80388">
        <ele>78.1</ele>
        <time>2020-06-18T10:01:07Z</time>
      </trkpt>
      <trkpt lat="49.83586" lon="0.80396">
        <ele>78</ele>
        <time>2020-06-18T10:01:08Z</time>
      </trkpt>
      <trkpt lat="49.83589" lon="0.80405">
        <ele>77.8</ele>
        <time>2020-06-18T10:01:09Z</time>
      </trkpt>
      <trkpt lat="49.83593" lon="0.80414">
        <ele>77.7</ele>
        <time>2020-06-18T10:01:10Z</time>
      </trkpt>
      <trkpt lat="49.83596" lon="0.80423">
        <ele>77.6</ele>
        <time>2020-06-18T10:01:11Z</time>
      </trkpt>
      <trkpt lat="49.836" lon="0.80432">
        <ele>77.4</ele>
        <time>2020-06-18T10:01:12Z</time>
      </trkpt>
      <trkpt lat="49.83604" lon="0.80441">
        <ele>77.3</ele>
        <time>2020-06-18T10:01:13Z</time>
      </trkpt>
      <trkpt lat="49.83608" lon="0.8045">
        <ele>77.2</ele>
        <time>2020-06-18T10:01:14Z</time>
      </trkpt>
      <trkpt lat="49.83612" lon="0.80459">
        <ele>77.1</ele>
        <time>2020-06-18T10:01:15Z</time>
      </trkpt>
      <trkpt lat="49.83616" lon="0.80468">
        <ele>77</ele>
        <time>2020-06-18T10:01:16Z</time>
      </trkpt>
      <trkpt lat="49.83619" lon="0.80477">
        <ele>76.9</ele>
        <time>2020-06-18T10:01:17Z</time>
      </trkpt>
      <trkpt lat="49.83623" lon="0.80486">
        <ele>76.9</ele>
        <time>2020-06-18T10:01:18Z</time>
      </trkpt>
      <trkpt lat="49.83627" lon="0.80495">
        <ele>76.8</ele>
        <time>2020-06-18T10:01:19Z</time>
      </trkpt>
      <trkpt lat="49.83631" lon="0.80504">
        <ele>76.7</ele>
        <time>2020-06-18T10:01:20Z</time>
      </trkpt>
      <trkpt lat="49.83635" lon="0.80513">
        <ele>76.5</ele>
        <time>2020-06-18T10:01:21Z</time>
      </trkpt>
      <trkpt lat="49.83639" lon="0.80521">
        <ele>76.4</ele>
        <time>2020-06-18T10:01:22Z</time>
      </trkpt>
      <trkpt lat="49.83642" lon="0.8053">
        <ele>76.3</ele>
        <time>2020-06-18T10:01:23Z</time>
      </trkpt>
      <trkpt lat="49.83645" lon="0.80539">
        <ele>76.2</ele>
        <time>2020-06-18T10:01:24Z</time>
      </trkpt>
      <trkpt lat="49.83649" lon="0.80547">
        <ele>76.1</ele>
        <time>2020-06-18T10:01:25Z</time>
      </trkpt>
      <trkpt lat="49.83652" lon="0.80556">
        <ele>76</ele>
        <time>2020-06-18T10:01:26Z</time>
      </trkpt>
      <trkpt lat="49.83656" lon="0.80565">
        <ele>75.9</ele>
        <time>2020-06-18T10:01:27Z</time>
      </trkpt>
      <trkpt lat="49.83659" lon="0.80575">
        <ele>75.9</ele>
        <time>2020-06-18T10:01:28Z</time>
      </trkpt>
      <trkpt lat="49.83662" lon="0.80584">
        <ele>75.8</ele>
        <time>2020-06-18T10:01:29Z</time>
      </trkpt>
      <trkpt lat="49.83665" lon="0.80594">
        <ele>75.7</ele>
        <time>2020-06-18T10:01:30Z</time>
      </trkpt>
      <trkpt lat="49.83667" lon="0.80604">
        <ele>75.6</ele>
        <time>2020-06-18T10:01:31Z</time>
      </trkpt>
      <trkpt lat="49.8367" lon="0.80614">
        <ele>75.5</ele>
        <time>2020-06-18T10:01:32Z</time>
      </trkpt>
      <trkpt lat="49.83672" lon="0.80624">
        <ele>75.4</ele>
        <time>2020-06-18T10:01:33Z</time>
      </trkpt>
      <trkpt lat="49.83674" lon="0.80635">
        <ele>75.3</ele>
        <time>2020-06-18T10:01:34Z</time>
      </trkpt>
      <trkpt lat="49.83676" lon="0.80645">
        <ele>75.3</ele>
        <time>2020-06-18T10:01:35Z</time>
      </trkpt>
      <trkpt lat="49.83678" lon="0.80655">
        <ele>75.2</ele>
        <time>2020-06-18T10:01:36Z</time>
      </trkpt>
      <trkpt lat="49.8368" lon="0.80666">
        <ele>75.1</ele>
        <time>2020-06-18T10:01:37Z</time>
      </trkpt>
      <trkpt lat="49.83681" lon="0.80676">
        <ele>75</ele>
        <time>2020-06-18T10:01:38Z</time>
      </trkpt>
      <trkpt lat="49.83683" lon="0.80687">
        <ele>74.9</ele>
        <time>2020-06-18T10:01:39Z</time>
      </trkpt>
      <trkpt lat="49.83685" lon="0.80697">
        <ele>74.9</ele>
        <time>2020-06-18T10:01:40Z</time>
      </trkpt>
      <trkpt lat="49.83687" lon="0.80708">
        <ele>74.8</ele>
        <time>2020-06-18T10:01:41Z</time>
      </trkpt>
      <trkpt lat="49.83689" lon="0.80719">
        <ele>74.8</ele>
        <time>2020-06-18T10:01:42Z</time>
      </trkpt>
      <trkpt lat="49.83691" lon="0.80729">
        <ele>74.7</ele>
        <time>2020-06-18T10:01:43Z</time>
      </trkpt>
      <trkpt lat="49.83693" lon="0.8074">
        <ele>74.7</ele>
        <time>2020-06-18T10:01:44Z</time>
      </trkpt>
      <trkpt lat="49.83695" lon="0.80751">
        <ele>74.7</ele>
        <time>2020-06-18T10:01:45Z</time>
      </trkpt>
      <trkpt lat="49.83697" lon="0.80762">
        <ele>74.7</ele>
        <time>2020-06-18T10:01:46Z</time>
      </trkpt>
      <trkpt lat="49.83699" lon="0.80773">
        <ele>74.7</ele>
        <time>2020-06-18T10:01:47Z</time>
      </trkpt>
      <trkpt lat="49.83701" lon="0.80784">
        <ele>74.7</ele>
        <time>2020-06-18T10:01:48Z</time>
      </trkpt>
      <trkpt lat="49.83704" lon="0.80794">
        <ele>74.6</ele>
        <time>2020-06-18T10:01:49Z</time>
      </trkpt>
      <trkpt lat="49.83706" lon="0.80805">
        <ele>74.6</ele>
        <time>2020-06-18T10:01:50Z</time>
      </trkpt>
      <trkpt lat="49.83708" lon="0.80816">
        <ele>74.5</ele>
        <time>2020-06-18T10:01:51Z</time>
      </trkpt>
      <trkpt lat="49.8371" lon="0.80827">
        <ele>74.4</ele>
        <time>2020-06-18T10:01:52Z</time>
      </trkpt>
      <trkpt lat="49.83711" lon="0.80838">
        <ele>74.4</ele>
        <time>2020-06-18T10:01:53Z</time>
      </trkpt>
      <trkpt lat="49.83712" lon="0.80848">
        <ele>74.3</ele>
        <time>2020-06-18T10:01:54Z</time>
      </trkpt>
      <trkpt lat="49.83714" lon="0.80859">
        <ele>74.3</ele>
        <time>2020-06-18T10:01:55Z</time>
      </trkpt>
      <trkpt lat="49.83717" lon="0.8087">
        <ele>74.2</ele>
        <time>2020-06-18T10:01:56Z</time>
      </trkpt>
      <trkpt lat="49.83719" lon="0.80881">
        <ele>74.1</ele>
        <time>2020-06-18T10:01:57Z</time>
      </trkpt>
      <trkpt lat="49.8372" lon="0.80893">
        <ele>74.1</ele>
        <time>2020-06-18T10:01:58Z</time>
      </trkpt>
      <trkpt lat="49.83722" lon="0.80904">
        <ele>74.1</ele>
        <time>2020-06-18T10:01:59Z</time>
      </trkpt>
      <trkpt lat="49.83725" lon="0.80915">
        <ele>74.1</ele>
        <time>2020-06-18T10:02:00Z</time>
      </trkpt>
      <trkpt lat="49.83727" lon="0.80926">
        <ele>74</ele>
        <time>2020-06-18T10:02:01Z</time>
      </trkpt>
      <trkpt lat="49.83729" lon="0.80939">
        <ele>74</ele>
        <time>2020-06-18T10:02:02Z</time>
      </trkpt>
      <trkpt lat="49.83732" lon="0.80949">
        <ele>73.9</ele>
        <time>2020-06-18T10:02:03Z</time>
      </trkpt>
      <trkpt lat="49.83735" lon="0.80959">
        <ele>73.8</ele>
        <time>2020-06-18T10:02:04Z</time>
      </trkpt>
      <trkpt lat="49.83738" lon="0.80969">
        <ele>73.8</ele>
        <time>2020-06-18T10:02:05Z</time>
      </trkpt>
      <trkpt lat="49.83741" lon="0.80978">
        <ele>73.9</ele>
        <time>2020-06-18T10:02:06Z</time>
      </trkpt>
      <trkpt lat="49.83743" lon="0.80987">
        <ele>74</ele>
        <time>2020-06-18T10:02:07Z</time>
      </trkpt>
      <trkpt lat="49.83746" lon="0.80996">
        <ele>74</ele>
        <time>2020-06-18T10:02:08Z</time>
      </trkpt>
      <trkpt lat="49.83748" lon="0.81004">
        <ele>74.1</ele>
        <time>2020-06-18T10:02:09Z</time>
      </trkpt>
      <trkpt lat="49.83751" lon="0.81013">
        <ele>74</ele>
        <time>2020-06-18T10:02:10Z</time>
      </trkpt>
      <trkpt lat="49.83754" lon="0.81021">
        <ele>74</ele>
        <time>2020-06-18T10:02:11Z</time>
      </trkpt>
      <trkpt lat="49.83758" lon="0.8103">
        <ele>73.9</ele>
        <time>2020-06-18T10:02:12Z</time>
      </trkpt>
      <trkpt lat="49.83761" lon="0.81039">
        <ele>73.8</ele>
        <time>2020-06-18T10:02:13Z</time>
      </trkpt>
      <trkpt lat="49.83764" lon="0.81049">
        <ele>73.7</ele>
        <time>2020-06-18T10:02:14Z</time>
      </trkpt>
      <trkpt lat="49.83768" lon="0.81058">
        <ele>73.6</ele>
        <time>2020-06-18T10:02:15Z</time>
      </trkpt>
      <trkpt lat="49.83771" lon="0.81068">
        <ele>73.6</ele>
        <time>2020-06-18T10:02:16Z</time>
      </trkpt>
      <trkpt lat="49.83774" lon="0.81078">
        <ele>73.6</ele>
        <time>2020-06-18T10:02:17Z</time>
      </trkpt>
      <trkpt lat="49.83777" lon="0.81088">
        <ele>73.5</ele>
        <time>2020-06-18T10:02:18Z</time>
      </trkpt>
      <trkpt lat="49.83781" lon="0.81097">
        <ele>73.4</ele>
        <time>2020-06-18T10:02:19Z</time>
      </trkpt>
      <trkpt lat="49.83785" lon="0.81106">
        <ele>73.3</ele>
        <time>2020-06-18T10:02:20Z</time>
      </trkpt>
      <trkpt lat="49.83789" lon="0.81116">
        <ele>73.2</ele>
        <time>2020-06-18T10:02:21Z</time>
      </trkpt>
      <trkpt lat="49.83793" lon="0.81125">
        <ele>73.2</ele>
        <time>2020-06-18T10:02:22Z</time>
      </trkpt>
      <trkpt lat="49.83797" lon="0.81134">
        <ele>73.1</ele>
        <time>2020-06-18T10:02:23Z</time>
      </trkpt>
      <trkpt lat="49.83801" lon="0.81142">
        <ele>73</ele>
        <time>2020-06-18T10:02:24Z</time>
      </trkpt>
      <trkpt lat="49.83805" lon="0.81151">
        <ele>73</ele>
        <time>2020-06-18T10:02:25Z</time>
      </trkpt>
      <trkpt lat="49.83809" lon="0.8116">
        <ele>72.9</ele>
        <time>2020-06-18T10:02:26Z</time>
      </trkpt>
      <trkpt lat="49.83813" lon="0.81168">
        <ele>72.9</ele>
        <time>2020-06-18T10:02:27Z</time>
      </trkpt>
      <trkpt lat="49.83817" lon="0.81177">
        <ele>72.8</ele>
        <time>2020-06-18T10:02:28Z</time>
      </trkpt>
      <trkpt lat="49.83821" lon="0.81187">
        <ele>72.6</ele>
        <time>2020-06-18T10:02:29Z</time>
      </trkpt>
      <trkpt lat="49.83825" lon="0.81196">
        <ele>72.4</ele>
        <time>2020-06-18T10:02:30Z</time>
      </trkpt>
      <trkpt lat="49.8383" lon="0.81205">
        <ele>72.3</ele>
        <time>2020-06-18T10:02:31Z</time>
      </trkpt>
      <trkpt lat="49.83834" lon="0.81215">
        <ele>72.2</ele>
        <time>2020-06-18T10:02:32Z</time>
      </trkpt>
      <trkpt lat="49.83839" lon="0.81224">
        <ele>72.1</ele>
        <time>2020-06-18T10:02:33Z</time>
      </trkpt>
      <trkpt lat="49.83843" lon="0.81233">
        <ele>72.1</ele>
        <time>2020-06-18T10:02:34Z</time>
      </trkpt>
      <trkpt lat="49.83847" lon="0.81242">
        <ele>71.9</ele>
        <time>2020-06-18T10:02:35Z</time>
      </trkpt>
      <trkpt lat="49.83852" lon="0.8125">
        <ele>71.9</ele>
        <time>2020-06-18T10:02:36Z</time>
      </trkpt>
      <trkpt lat="49.83856" lon="0.81258">
        <ele>71.8</ele>
        <time>2020-06-18T10:02:37Z</time>
      </trkpt>
      <trkpt lat="49.8386" lon="0.81266">
        <ele>71.7</ele>
        <time>2020-06-18T10:02:38Z</time>
      </trkpt>
      <trkpt lat="49.83863" lon="0.81273">
        <ele>71.6</ele>
        <time>2020-06-18T10:02:39Z</time>
      </trkpt>
      <trkpt lat="49.83867" lon="0.81282">
        <ele>71.5</ele>
        <time>2020-06-18T10:02:40Z</time>
      </trkpt>
      <trkpt lat="49.83871" lon="0.81289">
        <ele>71.4</ele>
        <time>2020-06-18T10:02:41Z</time>
      </trkpt>
      <trkpt lat="49.83874" lon="0.81297">
        <ele>71.3</ele>
        <time>2020-06-18T10:02:42Z</time>
      </trkpt>
      <trkpt lat="49.83878" lon="0.81304">
        <ele>71.3</ele>
        <time>2020-06-18T10:02:43Z</time>
      </trkpt>
      <trkpt lat="49.83881" lon="0.81311">
        <ele>71.2</ele>
        <time>2020-06-18T10:02:44Z</time>
      </trkpt>
      <trkpt lat="49.83885" lon="0.81319">
        <ele>71.2</ele>
        <time>2020-06-18T10:02:45Z</time>
      </trkpt>
      <trkpt lat="49.83888" lon="0.81326">
        <ele>71.2</ele>
        <time>2020-06-18T10:02:46Z</time>
      </trkpt>
      <trkpt lat="49.83891" lon="0.81333">
        <ele>71.1</ele>
        <time>2020-06-18T10:02:47Z</time>
      </trkpt>
      <trkpt lat="49.83894" lon="0.8134">
        <ele>71</ele>
        <time>2020-06-18T10:02:48Z</time>
      </trkpt>
      <trkpt lat="49.83897" lon="0.81347">
        <ele>71</ele>
        <time>2020-06-18T10:02:49Z</time>
      </trkpt>
      <trkpt lat="49.839" lon="0.81354">
        <ele>70.9</ele>
        <time>2020-06-18T10:02:50Z</time>
      </trkpt>
      <trkpt lat="49.83903" lon="0.81361">
        <ele>70.8</ele>
        <time>2020-06-18T10:02:51Z</time>
      </trkpt>
      <trkpt lat="49.83907" lon="0.81368">
        <ele>70.7</ele>
        <time>2020-06-18T10:02:52Z</time>
      </trkpt>
      <trkpt lat="49.8391" lon="0.81374">
        <ele>70.6</ele>
        <time>2020-06-18T10:02:53Z</time>
      </trkpt>
      <trkpt lat="49.83914" lon="0.81382">
        <ele>70.6</ele>
        <time>2020-06-18T10:02:54Z</time>
      </trkpt>
      <trkpt lat="49.83918" lon="0.81389">
        <ele>70.6</ele>
        <time>2020-06-18T10:02:55Z</time>
      </trkpt>
      <trkpt lat="49.83921" lon="0.81396">
        <ele>70.6</ele>
        <time>2020-06-18T10:02:56Z</time>
      </trkpt>
      <trkpt lat="49.83925" lon="0.81403">
        <ele>70.5</ele>
        <time>2020-06-18T10:02:57Z</time>
      </trkpt>
      <trkpt lat="49.83927" lon="0.81411">
        <ele>70.5</ele>
        <time>2020-06-18T10:02:58Z</time>
      </trkpt>
      <trkpt lat="49.8393" lon="0.81417">
        <ele>70.4</ele>
        <time>2020-06-18T10:02:59Z</time>
      </trkpt>
      <trkpt lat="49.83932" lon="0.81424">
        <ele>70.3</ele>
        <time>2020-06-18T10:03:00Z</time>
      </trkpt>
      <trkpt lat="49.83935" lon="0.8143">
        <ele>70.3</ele>
        <time>2020-06-18T10:03:01Z</time>
      </trkpt>
      <trkpt lat="49.83938" lon="0.81436">
        <ele>70.2</ele>
        <time>2020-06-18T10:03:02Z</time>
      </trkpt>
      <trkpt lat="49.83941" lon="0.81442">
        <ele>70.1</ele>
        <time>2020-06-18T10:03:03Z</time>
      </trkpt>
      <trkpt lat="49.83944" lon="0.81448">
        <ele>70</ele>
        <time>2020-06-18T10:03:04Z</time>
      </trkpt>
      <trkpt lat="49.83948" lon="0.81455">
        <ele>70</ele>
        <time>2020-06-18T10:03:05Z</time>
      </trkpt>
      <trkpt lat="49.83951" lon="0.81462">
        <ele>69.9</ele>
        <time>2020-06-18T10:03:06Z</time>
      </trkpt>
      <trkpt lat="49.83954" lon="0.81469">
        <ele>69.9</ele>
        <time>2020-06-18T10:03:07Z</time>
      </trkpt>
      <trkpt lat="49.83957" lon="0.81476">
        <ele>69.8</ele>
        <time>2020-06-18T10:03:08Z</time>
      </trkpt>
      <trkpt lat="49.83961" lon="0.81482">
        <ele>69.8</ele>
        <time>2020-06-18T10:03:09Z</time>
      </trkpt>
      <trkpt lat="49.83964" lon="0.81489">
        <ele>69.8</ele>
        <time>2020-06-18T10:03:10Z</time>
      </trkpt>
      <trkpt lat="49.83967" lon="0.81495">
        <ele>69.8</ele>
        <time>2020-06-18T10:03:11Z</time>
      </trkpt>
      <trkpt lat="49.83971" lon="0.81502">
        <ele>69.8</ele>
        <time>2020-06-18T10:03:12Z</time>
      </trkpt>
      <trkpt lat="49.83973" lon="0.81508">
        <ele>69.7</ele>
        <time>2020-06-18T10:03:13Z</time>
      </trkpt>
      <trkpt lat="49.83977" lon="0.81515">
        <ele>69.7</ele>
        <time>2020-06-18T10:03:14Z</time>
      </trkpt>
      <trkpt lat="49.8398" lon="0.81522">
        <ele>69.7</ele>
        <time>2020-06-18T10:03:15Z</time>
      </trkpt>
      <trkpt lat="49.83982" lon="0.81529">
        <ele>69.7</ele>
        <time>2020-06-18T10:03:16Z</time>
      </trkpt>
      <trkpt lat="49.83985" lon="0.81535">
        <ele>69.7</ele>
        <time>2020-06-18T10:03:17Z</time>
      </trkpt>
      <trkpt lat="49.83989" lon="0.81541">
        <ele>69.7</ele>
        <time>2020-06-18T10:03:18Z</time>
      </trkpt>
      <trkpt lat="49.83992" lon="0.81547">
        <ele>69.6</ele>
        <time>2020-06-18T10:03:19Z</time>
      </trkpt>
      <trkpt lat="49.83995" lon="0.81553">
        <ele>69.6</ele>
        <time>2020-06-18T10:03:20Z</time>
      </trkpt>
      <trkpt lat="49.83998" lon="0.81559">
        <ele>69.6</ele>
        <time>2020-06-18T10:03:21Z</time>
      </trkpt>
      <trkpt lat="49.84001" lon="0.81566">
        <ele>69.5</ele>
        <time>2020-06-18T10:03:22Z</time>
      </trkpt>
      <trkpt lat="49.84004" lon="0.81572">
        <ele>69.5</ele>
        <time>2020-06-18T10:03:23Z</time>
      </trkpt>
      <trkpt lat="49.84006" lon="0.81579">
        <ele>69.5</ele>
        <time>2020-06-18T10:03:24Z</time>
      </trkpt>
      <trkpt lat="49.84009" lon="0.81584">
        <ele>69.5</ele>
        <time>2020-06-18T10:03:25Z</time>
      </trkpt>
      <trkpt lat="49.84012" lon="0.8159">
        <ele>69.4</ele>
        <time>2020-06-18T10:03:26Z</time>
      </trkpt>
      <trkpt lat="49.84014" lon="0.81596">
        <ele>69.4</ele>
        <time>2020-06-18T10:03:27Z</time>
      </trkpt>
      <trkpt lat="49.84016" lon="0.81601">
        <ele>69.4</ele>
        <time>2020-06-18T10:03:28Z</time>
      </trkpt>
      <trkpt lat="49.84019" lon="0.81606">
        <ele>69.4</ele>
        <time>2020-06-18T10:03:29Z</time>
      </trkpt>
      <trkpt lat="49.84021" lon="0.8161">
        <ele>69.4</ele>
        <time>2020-06-18T10:03:30Z</time>
      </trkpt>
      <trkpt lat="49.84023" lon="0.81613">
        <ele>69.5</ele>
        <time>2020-06-18T10:03:31Z</time>
      </trkpt>
      <trkpt lat="49.84025" lon="0.81619">
        <ele>69.5</ele>
        <time>2020-06-18T10:03:32Z</time>
      </trkpt>
      <trkpt lat="49.84025" lon="0.81621">
        <ele>69.5</ele>
        <time>2020-06-18T10:03:33Z</time>
      </trkpt>
      <trkpt lat="49.84026" lon="0.81627">
        <ele>69.5</ele>
        <time>2020-06-18T10:03:34Z</time>
      </trkpt>
      <trkpt lat="49.84027" lon="0.81634">
        <ele>69.6</ele>
        <time>2020-06-18T10:03:35Z</time>
      </trkpt>
      <trkpt lat="49.84027" lon="0.8164">
        <ele>69.6</ele>
        <time>2020-06-18T10:03:36Z</time>
      </trkpt>
      <trkpt lat="49.84028" lon="0.81647">
        <ele>69.5</ele>
        <time>2020-06-18T10:03:37Z</time>
      </trkpt>
      <trkpt lat="49.84028" lon="0.81654">
        <ele>69.4</ele>
        <time>2020-06-18T10:03:38Z</time>
      </trkpt>
      <trkpt lat="49.84027" lon="0.81661">
        <ele>69.3</ele>
        <time>2020-06-18T10:03:39Z</time>
      </trkpt>
      <trkpt lat="49.84027" lon="0.8167">
        <ele>69.2</ele>
        <time>2020-06-18T10:03:40Z</time>
      </trkpt>
      <trkpt lat="49.84028" lon="0.8168">
        <ele>69.1</ele>
        <time>2020-06-18T10:03:41Z</time>
      </trkpt>
      <trkpt lat="49.84028" lon="0.8169">
        <ele>69</ele>
        <time>2020-06-18T10:03:42Z</time>
      </trkpt>
      <trkpt lat="49.84029" lon="0.817">
        <ele>68.9</ele>
        <time>2020-06-18T10:03:43Z</time>
      </trkpt>
      <trkpt lat="49.84029" lon="0.8171">
        <ele>68.8</ele>
        <time>2020-06-18T10:03:44Z</time>
      </trkpt>
      <trkpt lat="49.84029" lon="0.81719">
        <ele>68.7</ele>
        <time>2020-06-18T10:03:45Z</time>
      </trkpt>
      <trkpt lat="49.84029" lon="0.81728">
        <ele>68.6</ele>
        <time>2020-06-18T10:03:46Z</time>
      </trkpt>
      <trkpt lat="49.84029" lon="0.81738">
        <ele>68.6</ele>
        <time>2020-06-18T10:03:47Z</time>
      </trkpt>
      <trkpt lat="49.84029" lon="0.81748">
        <ele>68.5</ele>
        <time>2020-06-18T10:03:48Z</time>
      </trkpt>
      <trkpt lat="49.84029" lon="0.81758">
        <ele>68.4</ele>
        <time>2020-06-18T10:03:49Z</time>
      </trkpt>
      <trkpt lat="49.84028" lon="0.81767">
        <ele>68.3</ele>
        <time>2020-06-18T10:03:50Z</time>
      </trkpt>
      <trkpt lat="49.84028" lon="0.81778">
        <ele>68.2</ele>
        <time>2020-06-18T10:03:51Z</time>
      </trkpt>
      <trkpt lat="49.84029" lon="0.81789">
        <ele>68.1</ele>
        <time>2020-06-18T10:03:52Z</time>
      </trkpt>
      <trkpt lat="49.8403" lon="0.81801">
        <ele>68</ele>
        <time>2020-06-18T10:03:53Z</time>
      </trkpt>
      <trkpt lat="49.8403" lon="0.81812">
        <ele>67.9</ele>
        <time>2020-06-18T10:03:54Z</time>
      </trkpt>
      <trkpt lat="49.84031" lon="0.81823">
        <ele>67.8</ele>
        <time>2020-06-18T10:03:55Z</time>
      </trkpt>
      <trkpt lat="49.8403" lon="0.81834">
        <ele>67.8</ele>
        <time>2020-06-18T10:03:56Z</time>
      </trkpt>
      <trkpt lat="49.8403" lon="0.81844">
        <ele>67.7</ele>
        <time>2020-06-18T10:03:57Z</time>
      </trkpt>
      <trkpt lat="49.8403" lon="0.81855">
        <ele>67.6</ele>
        <time>2020-06-18T10:03:58Z</time>
      </trkpt>
      <trkpt lat="49.84031" lon="0.81866">
        <ele>67.5</ele>
        <time>2020-06-18T10:03:59Z</time>
      </trkpt>
      <trkpt lat="49.84031" lon="0.81877">
        <ele>67.4</ele>
        <time>2020-06-18T10:04:00Z</time>
      </trkpt>
      <trkpt lat="49.84031" lon="0.81889">
        <ele>67.3</ele>
        <time>2020-06-18T10:04:01Z</time>
      </trkpt>
      <trkpt lat="49.84032" lon="0.81901">
        <ele>67.2</ele>
        <time>2020-06-18T10:04:02Z</time>
      </trkpt>
      <trkpt lat="49.84032" lon="0.81912">
        <ele>67.1</ele>
        <time>2020-06-18T10:04:03Z</time>
      </trkpt>
      <trkpt lat="49.84032" lon="0.81923">
        <ele>67</ele>
        <time>2020-06-18T10:04:04Z</time>
      </trkpt>
      <trkpt lat="49.84033" lon="0.81935">
        <ele>66.9</ele>
        <time>2020-06-18T10:04:05Z</time>
      </trkpt>
      <trkpt lat="49.84034" lon="0.81944">
        <ele>66.8</ele>
        <time>2020-06-18T10:04:06Z</time>
      </trkpt>
      <trkpt lat="49.84034" lon="0.81953">
        <ele>66.7</ele>
        <time>2020-06-18T10:04:07Z</time>
      </trkpt>
      <trkpt lat="49.84035" lon="0.81964">
        <ele>66.6</ele>
        <time>2020-06-18T10:04:08Z</time>
      </trkpt>
      <trkpt lat="49.84036" lon="0.81974">
        <ele>66.5</ele>
        <time>2020-06-18T10:04:09Z</time>
      </trkpt>
      <trkpt lat="49.84036" lon="0.81985">
        <ele>66.4</ele>
        <time>2020-06-18T10:04:10Z</time>
      </trkpt>
      <trkpt lat="49.84035" lon="0.81995">
        <ele>66.4</ele>
        <time>2020-06-18T10:04:11Z</time>
      </trkpt>
      <trkpt lat="49.84034" lon="0.82006">
        <ele>66.4</ele>
        <time>2020-06-18T10:04:12Z</time>
      </trkpt>
      <trkpt lat="49.84034" lon="0.82018">
        <ele>66.3</ele>
        <time>2020-06-18T10:04:13Z</time>
      </trkpt>
      <trkpt lat="49.84034" lon="0.82031">
        <ele>66.3</ele>
        <time>2020-06-18T10:04:14Z</time>
      </trkpt>
      <trkpt lat="49.84034" lon="0.82042">
        <ele>66.3</ele>
        <time>2020-06-18T10:04:15Z</time>
      </trkpt>
      <trkpt lat="49.84034" lon="0.82055">
        <ele>66.2</ele>
        <time>2020-06-18T10:04:16Z</time>
      </trkpt>
      <trkpt lat="49.84035" lon="0.82069">
        <ele>66.2</ele>
        <time>2020-06-18T10:04:17Z</time>
      </trkpt>
      <trkpt lat="49.84035" lon="0.82083">
        <ele>66.1</ele>
        <time>2020-06-18T10:04:18Z</time>
      </trkpt>
      <trkpt lat="49.84036" lon="0.82096">
        <ele>66.1</ele>
        <time>2020-06-18T10:04:19Z</time>
      </trkpt>
      <trkpt lat="49.84036" lon="0.82109">
        <ele>66.1</ele>
        <time>2020-06-18T10:04:20Z</time>
      </trkpt>
      <trkpt lat="49.84036" lon="0.82121">
        <ele>66.1</ele>
        <time>2020-06-18T10:04:21Z</time>
      </trkpt>
      <trkpt lat="49.84037" lon="0.82134">
        <ele>66.1</ele>
        <time>2020-06-18T10:04:22Z</time>
      </trkpt>
      <trkpt lat="49.84037" lon="0.82147">
        <ele>66.1</ele>
        <time>2020-06-18T10:04:23Z</time>
      </trkpt>
      <trkpt lat="49.84038" lon="0.82159">
        <ele>66.1</ele>
        <time>2020-06-18T10:04:24Z</time>
      </trkpt>
      <trkpt lat="49.84038" lon="0.8217">
        <ele>66</ele>
        <time>2020-06-18T10:04:25Z</time>
      </trkpt>
      <trkpt lat="49.84039" lon="0.82182">
        <ele>65.9</ele>
        <time>2020-06-18T10:04:26Z</time>
      </trkpt>
      <trkpt lat="49.84039" lon="0.82194">
        <ele>65.9</ele>
        <time>2020-06-18T10:04:27Z</time>
      </trkpt>
      <trkpt lat="49.84039" lon="0.82207">
        <ele>65.9</ele>
        <time>2020-06-18T10:04:28Z</time>
      </trkpt>
      <trkpt lat="49.84039" lon="0.8222">
        <ele>65.9</ele>
        <time>2020-06-18T10:04:29Z</time>
      </trkpt>
      <trkpt lat="49.8404" lon="0.82233">
        <ele>65.9</ele>
        <time>2020-06-18T10:04:30Z</time>
      </trkpt>
      <trkpt lat="49.8404" lon="0.82246">
        <ele>66</ele>
        <time>2020-06-18T10:04:31Z</time>
      </trkpt>
      <trkpt lat="49.84039" lon="0.82258">
        <ele>66</ele>
        <time>2020-06-18T10:04:32Z</time>
      </trkpt>
      <trkpt lat="49.84039" lon="0.82271">
        <ele>66.1</ele>
        <time>2020-06-18T10:04:33Z</time>
      </trkpt>
      <trkpt lat="49.8404" lon="0.82283">
        <ele>66.1</ele>
        <time>2020-06-18T10:04:34Z</time>
      </trkpt>
      <trkpt lat="49.8404" lon="0.82295">
        <ele>66.1</ele>
        <time>2020-06-18T10:04:35Z</time>
      </trkpt>
      <trkpt lat="49.8404" lon="0.82308">
        <ele>66.1</ele>
        <time>2020-06-18T10:04:36Z</time>
      </trkpt>
      <trkpt lat="49.8404" lon="0.82318">
        <ele>66.1</ele>
        <time>2020-06-18T10:04:37Z</time>
      </trkpt>
      <trkpt lat="49.8404" lon="0.82327">
        <ele>66</ele>
        <time>2020-06-18T10:04:38Z</time>
      </trkpt>
      <trkpt lat="49.84041" lon="0.82337">
        <ele>66.1</ele>
        <time>2020-06-18T10:04:39Z</time>
      </trkpt>
      <trkpt lat="49.84041" lon="0.82348">
        <ele>66.1</ele>
        <time>2020-06-18T10:04:40Z</time>
      </trkpt>
      <trkpt lat="49.84041" lon="0.82358">
        <ele>66.1</ele>
        <time>2020-06-18T10:04:41Z</time>
      </trkpt>
      <trkpt lat="49.84041" lon="0.8237">
        <ele>66.1</ele>
        <time>2020-06-18T10:04:42Z</time>
      </trkpt>
      <trkpt lat="49.84042" lon="0.82381">
        <ele>66.2</ele>
        <time>2020-06-18T10:04:43Z</time>
      </trkpt>
      <trkpt lat="49.84043" lon="0.82391">
        <ele>66.2</ele>
        <time>2020-06-18T10:04:44Z</time>
      </trkpt>
      <trkpt lat="49.84043" lon="0.82401">
        <ele>66.3</ele>
        <time>2020-06-18T10:04:45Z</time>
      </trkpt>
      <trkpt lat="49.84043" lon="0.82411">
        <ele>66.3</ele>
        <time>2020-06-18T10:04:46Z</time>
      </trkpt>
      <trkpt lat="49.84044" lon="0.8242">
        <ele>66.4</ele>
        <time>2020-06-18T10:04:47Z</time>
      </trkpt>
      <trkpt lat="49.84044" lon="0.82429">
        <ele>66.5</ele>
        <time>2020-06-18T10:04:48Z</time>
      </trkpt>
      <trkpt lat="49.84044" lon="0.82438">
        <ele>66.5</ele>
        <time>2020-06-18T10:04:49Z</time>
      </trkpt>
      <trkpt lat="49.84045" lon="0.82446">
        <ele>66.6</ele>
        <time>2020-06-18T10:04:50Z</time>
      </trkpt>
      <trkpt lat="49.84045" lon="0.82455">
        <ele>66.7</ele>
        <time>2020-06-18T10:04:51Z</time>
      </trkpt>
      <trkpt lat="49.84046" lon="0.82464">
        <ele>66.8</ele>
        <time>2020-06-18T10:04:52Z</time>
      </trkpt>
      <trkpt lat="49.84046" lon="0.82473">
        <ele>66.9</ele>
        <time>2020-06-18T10:04:53Z</time>
      </trkpt>
      <trkpt lat="49.84046" lon="0.82482">
        <ele>67</ele>
        <time>2020-06-18T10:04:54Z</time>
      </trkpt>
      <trkpt lat="49.84047" lon="0.8249">
        <ele>67.1</ele>
        <time>2020-06-18T10:04:55Z</time>
      </trkpt>
      <trkpt lat="49.84047" lon="0.82499">
        <ele>67.2</ele>
        <time>2020-06-18T10:04:56Z</time>
      </trkpt>
      <trkpt lat="49.84047" lon="0.82507">
        <ele>67.3</ele>
        <time>2020-06-18T10:04:57Z</time>
      </trkpt>
      <trkpt lat="49.84047" lon="0.82516">
        <ele>67.4</ele>
        <time>2020-06-18T10:04:58Z</time>
      </trkpt>
      <trkpt lat="49.84047" lon="0.82525">
        <ele>67.5</ele>
        <time>2020-06-18T10:04:59Z</time>
      </trkpt>
      <trkpt lat="49.84047" lon="0.82533">
        <ele>67.6</ele>
        <time>2020-06-18T10:05:00Z</time>
      </trkpt>
      <trkpt lat="49.84047" lon="0.82541">
        <ele>67.7</ele>
        <time>2020-06-18T10:05:01Z</time>
      </trkpt>
      <trkpt lat="49.84048" lon="0.82549">
        <ele>67.8</ele>
        <time>2020-06-18T10:05:02Z</time>
      </trkpt>
      <trkpt lat="49.84048" lon="0.82557">
        <ele>68</ele>
        <time>2020-06-18T10:05:03Z</time>
      </trkpt>
      <trkpt lat="49.84048" lon="0.82565">
        <ele>68.1</ele>
        <time>2020-06-18T10:05:04Z</time>
      </trkpt>
      <trkpt lat="49.84048" lon="0.82573">
        <ele>68.2</ele>
        <time>2020-06-18T10:05:05Z</time>
      </trkpt>
      <trkpt lat="49.84048" lon="0.82581">
        <ele>68.3</ele>
        <time>2020-06-18T10:05:06Z</time>
      </trkpt>
      <trkpt lat="49.84048" lon="0.82589">
        <ele>68.5</ele>
        <time>2020-06-18T10:05:07Z</time>
      </trkpt>
      <trkpt lat="49.84048" lon="0.82596">
        <ele>68.6</ele>
        <time>2020-06-18T10:05:08Z</time>
      </trkpt>
      <trkpt lat="49.84048" lon="0.82603">
        <ele>68.7</ele>
        <time>2020-06-18T10:05:09Z</time>
      </trkpt>
      <trkpt lat="49.84048" lon="0.82609">
        <ele>68.8</ele>
        <time>2020-06-18T10:05:10Z</time>
      </trkpt>
      <trkpt lat="49.84048" lon="0.82615">
        <ele>68.9</ele>
        <time>2020-06-18T10:05:11Z</time>
      </trkpt>
      <trkpt lat="49.84048" lon="0.82622">
        <ele>69</ele>
        <time>2020-06-18T10:05:12Z</time>
      </trkpt>
      <trkpt lat="49.84048" lon="0.82628">
        <ele>69.1</ele>
        <time>2020-06-18T10:05:13Z</time>
      </trkpt>
      <trkpt lat="49.84048" lon="0.82635">
        <ele>69.2</ele>
        <time>2020-06-18T10:05:14Z</time>
      </trkpt>
      <trkpt lat="49.84048" lon="0.82642">
        <ele>69.4</ele>
        <time>2020-06-18T10:05:15Z</time>
      </trkpt>
      <trkpt lat="49.84048" lon="0.82647">
        <ele>69.5</ele>
        <time>2020-06-18T10:05:16Z</time>
      </trkpt>
      <trkpt lat="49.84047" lon="0.82654">
        <ele>69.6</ele>
        <time>2020-06-18T10:05:17Z</time>
      </trkpt>
      <trkpt lat="49.84046" lon="0.82661">
        <ele>69.8</ele>
        <time>2020-06-18T10:05:18Z</time>
      </trkpt>
      <trkpt lat="49.84046" lon="0.82667">
        <ele>69.9</ele>
        <time>2020-06-18T10:05:19Z</time>
      </trkpt>
      <trkpt lat="49.84046" lon="0.82672">
        <ele>69.9</ele>
        <time>2020-06-18T10:05:20Z</time>
      </trkpt>
      <trkpt lat="49.84046" lon="0.82677">
        <ele>69.8</ele>
        <time>2020-06-18T10:05:21Z</time>
      </trkpt>
      <trkpt lat="49.84046" lon="0.82678">
        <ele>69.8</ele>
        <time>2020-06-18T10:05:22Z</time>
      </trkpt>
      <trkpt lat="49.84047" lon="0.82678">
        <ele>69.7</ele>
        <time>2020-06-18T10:05:23Z</time>
      </trkpt>
      <trkpt lat="49.84048" lon="0.82678">
        <ele>69.7</ele>
        <time>2020-06-18T10:05:24Z</time>
      </trkpt>
      <trkpt lat="49.8405" lon="0.82678">
        <ele>69.7</ele>
        <time>2020-06-18T10:05:25Z</time>
      </trkpt>
      <trkpt lat="49.84051" lon="0.82678">
        <ele>69.7</ele>
        <time>2020-06-18T10:05:26Z</time>
      </trkpt>
      <trkpt lat="49.84053" lon="0.82676">
        <ele>69.6</ele>
        <time>2020-06-18T10:05:27Z</time>
      </trkpt>
      <trkpt lat="49.84055" lon="0.82671">
        <ele>69.5</ele>
        <time>2020-06-18T10:05:28Z</time>
      </trkpt>
      <trkpt lat="49.84059" lon="0.82667">
        <ele>69.4</ele>
        <time>2020-06-18T10:05:29Z</time>
      </trkpt>
      <trkpt lat="49.84062" lon="0.82662">
        <ele>69.3</ele>
        <time>2020-06-18T10:05:30Z</time>
      </trkpt>
      <trkpt lat="49.84067" lon="0.82657">
        <ele>69.2</ele>
        <time>2020-06-18T10:05:31Z</time>
      </trkpt>
      <trkpt lat="49.84071" lon="0.82653">
        <ele>69.1</ele>
        <time>2020-06-18T10:05:32Z</time>
      </trkpt>
      <trkpt lat="49.84075" lon="0.82649">
        <ele>69</ele>
        <time>2020-06-18T10:05:33Z</time>
      </trkpt>
      <trkpt lat="49.84079" lon="0.82645">
        <ele>68.9</ele>
        <time>2020-06-18T10:05:34Z</time>
      </trkpt>
      <trkpt lat="49.84083" lon="0.82639">
        <ele>68.8</ele>
        <time>2020-06-18T10:05:35Z</time>
      </trkpt>
      <trkpt lat="49.84087" lon="0.82635">
        <ele>68.7</ele>
        <time>2020-06-18T10:05:36Z</time>
      </trkpt>
      <trkpt lat="49.8409" lon="0.82632">
        <ele>68.7</ele>
        <time>2020-06-18T10:05:37Z</time>
      </trkpt>
      <trkpt lat="49.84094" lon="0.82627">
        <ele>68.6</ele>
        <time>2020-06-18T10:05:38Z</time>
      </trkpt>
      <trkpt lat="49.84098" lon="0.82624">
        <ele>68.5</ele>
        <time>2020-06-18T10:05:39Z</time>
      </trkpt>
      <trkpt lat="49.84102" lon="0.82619">
        <ele>68.4</ele>
        <time>2020-06-18T10:05:40Z</time>
      </trkpt>
      <trkpt lat="49.84107" lon="0.82615">
        <ele>68.3</ele>
        <time>2020-06-18T10:05:41Z</time>
      </trkpt>
      <trkpt lat="49.84111" lon="0.82612">
        <ele>68.6</ele>
        <time>2020-06-18T10:05:42Z</time>
      </trkpt>
      <trkpt lat="49.84116" lon="0.8261">
        <ele>68.7</ele>
        <time>2020-06-18T10:05:43Z</time>
      </trkpt>
      <trkpt lat="49.8412" lon="0.82611">
        <ele>68.7</ele>
        <time>2020-06-18T10:05:44Z</time>
      </trkpt>
      <trkpt lat="49.84126" lon="0.82612">
        <ele>68.6</ele>
        <time>2020-06-18T10:05:45Z</time>
      </trkpt>
      <trkpt lat="49.84131" lon="0.82614">
        <ele>68.4</ele>
        <time>2020-06-18T10:05:46Z</time>
      </trkpt>
      <trkpt lat="49.84136" lon="0.82616">
        <ele>68.2</ele>
        <time>2020-06-18T10:05:47Z</time>
      </trkpt>
      <trkpt lat="49.84141" lon="0.82619">
        <ele>68.1</ele>
        <time>2020-06-18T10:05:48Z</time>
      </trkpt>
      <trkpt lat="49.84147" lon="0.82622">
        <ele>67.9</ele>
        <time>2020-06-18T10:05:49Z</time>
      </trkpt>
      <trkpt lat="49.84152" lon="0.82625">
        <ele>67.8</ele>
        <time>2020-06-18T10:05:50Z</time>
      </trkpt>
      <trkpt lat="49.84157" lon="0.82629">
        <ele>67.7</ele>
        <time>2020-06-18T10:05:51Z</time>
      </trkpt>
      <trkpt lat="49.84164" lon="0.82632">
        <ele>67.6</ele>
        <time>2020-06-18T10:05:52Z</time>
      </trkpt>
      <trkpt lat="49.84169" lon="0.82635">
        <ele>67.6</ele>
        <time>2020-06-18T10:05:53Z</time>
      </trkpt>
      <trkpt lat="49.84175" lon="0.82639">
        <ele>67.6</ele>
        <time>2020-06-18T10:05:54Z</time>
      </trkpt>
      <trkpt lat="49.84181" lon="0.82642">
        <ele>67.5</ele>
        <time>2020-06-18T10:05:55Z</time>
      </trkpt>
      <trkpt lat="49.84186" lon="0.82648">
        <ele>67.5</ele>
        <time>2020-06-18T10:05:56Z</time>
      </trkpt>
      <trkpt lat="49.84191" lon="0.82652">
        <ele>67.5</ele>
        <time>2020-06-18T10:05:57Z</time>
      </trkpt>
      <trkpt lat="49.84196" lon="0.82658">
        <ele>67.5</ele>
        <time>2020-06-18T10:05:58Z</time>
      </trkpt>
      <trkpt lat="49.842" lon="0.82663">
        <ele>67.6</ele>
        <time>2020-06-18T10:05:59Z</time>
      </trkpt>
      <trkpt lat="49.84205" lon="0.82666">
        <ele>67.6</ele>
        <time>2020-06-18T10:06:00Z</time>
      </trkpt>
      <trkpt lat="49.8421" lon="0.8267">
        <ele>67.6</ele>
        <time>2020-06-18T10:06:01Z</time>
      </trkpt>
      <trkpt lat="49.84213" lon="0.82674">
        <ele>67.6</ele>
        <time>2020-06-18T10:06:02Z</time>
      </trkpt>
      <trkpt lat="49.84218" lon="0.82677">
        <ele>67.6</ele>
        <time>2020-06-18T10:06:03Z</time>
      </trkpt>
      <trkpt lat="49.84222" lon="0.8268">
        <ele>67.7</ele>
        <time>2020-06-18T10:06:04Z</time>
      </trkpt>
      <trkpt lat="49.84227" lon="0.82684">
        <ele>67.7</ele>
        <time>2020-06-18T10:06:05Z</time>
      </trkpt>
      <trkpt lat="49.84231" lon="0.82688">
        <ele>67.8</ele>
        <time>2020-06-18T10:06:06Z</time>
      </trkpt>
      <trkpt lat="49.84236" lon="0.82691">
        <ele>67.8</ele>
        <time>2020-06-18T10:06:07Z</time>
      </trkpt>
      <trkpt lat="49.84241" lon="0.82695">
        <ele>67.9</ele>
        <time>2020-06-18T10:06:08Z</time>
      </trkpt>
      <trkpt lat="49.84246" lon="0.82699">
        <ele>68</ele>
        <time>2020-06-18T10:06:09Z</time>
      </trkpt>
      <trkpt lat="49.8425" lon="0.82703">
        <ele>68.1</ele>
        <time>2020-06-18T10:06:10Z</time>
      </trkpt>
      <trkpt lat="49.84255" lon="0.82706">
        <ele>68.2</ele>
        <time>2020-06-18T10:06:11Z</time>
      </trkpt>
      <trkpt lat="49.84259" lon="0.82709">
        <ele>68.3</ele>
        <time>2020-06-18T10:06:12Z</time>
      </trkpt>
      <trkpt lat="49.84264" lon="0.82713">
        <ele>68.4</ele>
        <time>2020-06-18T10:06:13Z</time>
      </trkpt>
      <trkpt lat="49.84269" lon="0.82717">
        <ele>68.4</ele>
        <time>2020-06-18T10:06:14Z</time>
      </trkpt>
      <trkpt lat="49.84275" lon="0.82721">
        <ele>68.5</ele>
        <time>2020-06-18T10:06:15Z</time>
      </trkpt>
      <trkpt lat="49.8428" lon="0.82725">
        <ele>68.6</ele>
        <time>2020-06-18T10:06:16Z</time>
      </trkpt>
      <trkpt lat="49.84285" lon="0.82731">
        <ele>68.7</ele>
        <time>2020-06-18T10:06:17Z</time>
      </trkpt>
      <trkpt lat="49.8429" lon="0.82735">
        <ele>68.8</ele>
        <time>2020-06-18T10:06:18Z</time>
      </trkpt>
      <trkpt lat="49.84294" lon="0.8274">
        <ele>68.9</ele>
        <time>2020-06-18T10:06:19Z</time>
      </trkpt>
      <trkpt lat="49.84299" lon="0.82745">
        <ele>69</ele>
        <time>2020-06-18T10:06:20Z</time>
      </trkpt>
      <trkpt lat="49.84304" lon="0.82749">
        <ele>69.1</ele>
        <time>2020-06-18T10:06:21Z</time>
      </trkpt>
      <trkpt lat="49.84309" lon="0.82752">
        <ele>69.3</ele>
        <time>2020-06-18T10:06:22Z</time>
      </trkpt>
      <trkpt lat="49.84314" lon="0.82755">
        <ele>69.4</ele>
        <time>2020-06-18T10:06:23Z</time>
      </trkpt>
      <trkpt lat="49.84319" lon="0.82759">
        <ele>69.5</ele>
        <time>2020-06-18T10:06:24Z</time>
      </trkpt>
      <trkpt lat="49.84324" lon="0.82763">
        <ele>69.6</ele>
        <time>2020-06-18T10:06:25Z</time>
      </trkpt>
      <trkpt lat="49.84329" lon="0.82767">
        <ele>69.7</ele>
        <time>2020-06-18T10:06:26Z</time>
      </trkpt>
      <trkpt lat="49.84334" lon="0.82772">
        <ele>69.8</ele>
        <time>2020-06-18T10:06:27Z</time>
      </trkpt>
      <trkpt lat="49.84338" lon="0.82776">
        <ele>70</ele>
        <time>2020-06-18T10:06:28Z</time>
      </trkpt>
      <trkpt lat="49.84343" lon="0.8278">
        <ele>70.1</ele>
        <time>2020-06-18T10:06:29Z</time>
      </trkpt>
      <trkpt lat="49.84348" lon="0.82785">
        <ele>70.2</ele>
        <time>2020-06-18T10:06:30Z</time>
      </trkpt>
      <trkpt lat="49.84354" lon="0.82789">
        <ele>70.4</ele>
        <time>2020-06-18T10:06:31Z</time>
      </trkpt>
      <trkpt lat="49.84359" lon="0.82795">
        <ele>70.5</ele>
        <time>2020-06-18T10:06:32Z</time>
      </trkpt>
      <trkpt lat="49.84363" lon="0.82799">
        <ele>70.7</ele>
        <time>2020-06-18T10:06:33Z</time>
      </trkpt>
      <trkpt lat="49.84369" lon="0.82803">
        <ele>70.8</ele>
        <time>2020-06-18T10:06:34Z</time>
      </trkpt>
      <trkpt lat="49.84373" lon="0.82806">
        <ele>70.8</ele>
        <time>2020-06-18T10:06:35Z</time>
      </trkpt>
      <trkpt lat="49.84377" lon="0.82809">
        <ele>70.9</ele>
        <time>2020-06-18T10:06:36Z</time>
      </trkpt>
      <trkpt lat="49.84382" lon="0.82813">
        <ele>71</ele>
        <time>2020-06-18T10:06:37Z</time>
      </trkpt>
      <trkpt lat="49.84387" lon="0.82817">
        <ele>71.1</ele>
        <time>2020-06-18T10:06:38Z</time>
      </trkpt>
      <trkpt lat="49.84392" lon="0.82821">
        <ele>71.2</ele>
        <time>2020-06-18T10:06:39Z</time>
      </trkpt>
      <trkpt lat="49.84397" lon="0.82825">
        <ele>71.3</ele>
        <time>2020-06-18T10:06:40Z</time>
      </trkpt>
      <trkpt lat="49.84402" lon="0.82829">
        <ele>71.4</ele>
        <time>2020-06-18T10:06:41Z</time>
      </trkpt>
      <trkpt lat="49.84407" lon="0.82835">
        <ele>71.5</ele>
        <time>2020-06-18T10:06:42Z</time>
      </trkpt>
      <trkpt lat="49.84412" lon="0.82839">
        <ele>71.7</ele>
        <time>2020-06-18T10:06:43Z</time>
      </trkpt>
      <trkpt lat="49.84417" lon="0.82843">
        <ele>71.8</ele>
        <time>2020-06-18T10:06:44Z</time>
      </trkpt>
      <trkpt lat="49.84422" lon="0.82847">
        <ele>71.9</ele>
        <time>2020-06-18T10:06:45Z</time>
      </trkpt>
      <trkpt lat="49.84427" lon="0.82851">
        <ele>72</ele>
        <time>2020-06-18T10:06:46Z</time>
      </trkpt>
      <trkpt lat="49.84431" lon="0.82856">
        <ele>72.1</ele>
        <time>2020-06-18T10:06:47Z</time>
      </trkpt>
      <trkpt lat="49.84436" lon="0.8286">
        <ele>72.1</ele>
        <time>2020-06-18T10:06:48Z</time>
      </trkpt>
      <trkpt lat="49.84441" lon="0.82864">
        <ele>72.2</ele>
        <time>2020-06-18T10:06:49Z</time>
      </trkpt>
      <trkpt lat="49.84446" lon="0.82867">
        <ele>72.2</ele>
        <time>2020-06-18T10:06:50Z</time>
      </trkpt>
      <trkpt lat="49.84451" lon="0.82871">
        <ele>72.2</ele>
        <time>2020-06-18T10:06:51Z</time>
      </trkpt>
      <trkpt lat="49.84456" lon="0.82875">
        <ele>72.2</ele>
        <time>2020-06-18T10:06:52Z</time>
      </trkpt>
      <trkpt lat="49.8446" lon="0.82879">
        <ele>72.2</ele>
        <time>2020-06-18T10:06:53Z</time>
      </trkpt>
      <trkpt lat="49.84466" lon="0.82884">
        <ele>72.3</ele>
        <time>2020-06-18T10:06:54Z</time>
      </trkpt>
      <trkpt lat="49.84472" lon="0.82889">
        <ele>72.2</ele>
        <time>2020-06-18T10:06:55Z</time>
      </trkpt>
      <trkpt lat="49.84478" lon="0.82893">
        <ele>72.2</ele>
        <time>2020-06-18T10:06:56Z</time>
      </trkpt>
      <trkpt lat="49.84484" lon="0.82895">
        <ele>72.2</ele>
        <time>2020-06-18T10:06:57Z</time>
      </trkpt>
      <trkpt lat="49.84489" lon="0.82898">
        <ele>72.1</ele>
        <time>2020-06-18T10:06:58Z</time>
      </trkpt>
      <trkpt lat="49.84495" lon="0.82901">
        <ele>72</ele>
        <time>2020-06-18T10:06:59Z</time>
      </trkpt>
      <trkpt lat="49.84501" lon="0.82903">
        <ele>72</ele>
        <time>2020-06-18T10:07:00Z</time>
      </trkpt>
      <trkpt lat="49.84507" lon="0.82904">
        <ele>72</ele>
        <time>2020-06-18T10:07:01Z</time>
      </trkpt>
      <trkpt lat="49.84513" lon="0.82906">
        <ele>71.9</ele>
        <time>2020-06-18T10:07:02Z</time>
      </trkpt>
      <trkpt lat="49.84519" lon="0.82909">
        <ele>71.9</ele>
        <time>2020-06-18T10:07:03Z</time>
      </trkpt>
      <trkpt lat="49.84525" lon="0.82911">
        <ele>71.9</ele>
        <time>2020-06-18T10:07:04Z</time>
      </trkpt>
      <trkpt lat="49.84532" lon="0.82914">
        <ele>71.8</ele>
        <time>2020-06-18T10:07:05Z</time>
      </trkpt>
      <trkpt lat="49.84538" lon="0.82916">
        <ele>71.7</ele>
        <time>2020-06-18T10:07:06Z</time>
      </trkpt>
      <trkpt lat="49.84545" lon="0.82918">
        <ele>71.7</ele>
        <time>2020-06-18T10:07:07Z</time>
      </trkpt>
      <trkpt lat="49.84551" lon="0.8292">
        <ele>71.6</ele>
        <time>2020-06-18T10:07:08Z</time>
      </trkpt>
      <trkpt lat="49.84555" lon="0.82921">
        <ele>71.5</ele>
        <time>2020-06-18T10:07:09Z</time>
      </trkpt>
      <trkpt lat="49.8456" lon="0.82924">
        <ele>71.5</ele>
        <time>2020-06-18T10:07:10Z</time>
      </trkpt>
      <trkpt lat="49.84565" lon="0.82927">
        <ele>71.5</ele>
        <time>2020-06-18T10:07:11Z</time>
      </trkpt>
      <trkpt lat="49.84571" lon="0.8293">
        <ele>71.4</ele>
        <time>2020-06-18T10:07:12Z</time>
      </trkpt>
      <trkpt lat="49.84577" lon="0.82931">
        <ele>71.4</ele>
        <time>2020-06-18T10:07:13Z</time>
      </trkpt>
      <trkpt lat="49.8458" lon="0.82932">
        <ele>71.4</ele>
        <time>2020-06-18T10:07:14Z</time>
      </trkpt>
      <trkpt lat="49.84584" lon="0.82934">
        <ele>71.4</ele>
        <time>2020-06-18T10:07:15Z</time>
      </trkpt>
      <trkpt lat="49.84589" lon="0.82936">
        <ele>71.4</ele>
        <time>2020-06-18T10:07:16Z</time>
      </trkpt>
      <trkpt lat="49.84593" lon="0.82938">
        <ele>71.3</ele>
        <time>2020-06-18T10:07:17Z</time>
      </trkpt>
      <trkpt lat="49.84599" lon="0.82942">
        <ele>71.3</ele>
        <time>2020-06-18T10:07:18Z</time>
      </trkpt>
      <trkpt lat="49.84603" lon="0.82946">
        <ele>71.3</ele>
        <time>2020-06-18T10:07:19Z</time>
      </trkpt>
      <trkpt lat="49.84608" lon="0.8295">
        <ele>71.3</ele>
        <time>2020-06-18T10:07:20Z</time>
      </trkpt>
      <trkpt lat="49.84613" lon="0.82954">
        <ele>71.2</ele>
        <time>2020-06-18T10:07:21Z</time>
      </trkpt>
      <trkpt lat="49.84618" lon="0.82959">
        <ele>71.1</ele>
        <time>2020-06-18T10:07:22Z</time>
      </trkpt>
      <trkpt lat="49.84623" lon="0.82964">
        <ele>70.9</ele>
        <time>2020-06-18T10:07:23Z</time>
      </trkpt>
      <trkpt lat="49.84628" lon="0.82968">
        <ele>70.8</ele>
        <time>2020-06-18T10:07:24Z</time>
      </trkpt>
      <trkpt lat="49.84633" lon="0.82972">
        <ele>70.7</ele>
        <time>2020-06-18T10:07:25Z</time>
      </trkpt>
      <trkpt lat="49.84638" lon="0.82977">
        <ele>70.6</ele>
        <time>2020-06-18T10:07:26Z</time>
      </trkpt>
      <trkpt lat="49.84643" lon="0.82982">
        <ele>70.5</ele>
        <time>2020-06-18T10:07:27Z</time>
      </trkpt>
      <trkpt lat="49.84647" lon="0.82985">
        <ele>70.5</ele>
        <time>2020-06-18T10:07:28Z</time>
      </trkpt>
      <trkpt lat="49.84652" lon="0.82989">
        <ele>70.4</ele>
        <time>2020-06-18T10:07:29Z</time>
      </trkpt>
      <trkpt lat="49.84656" lon="0.82993">
        <ele>70.4</ele>
        <time>2020-06-18T10:07:30Z</time>
      </trkpt>
      <trkpt lat="49.84661" lon="0.82999">
        <ele>70.3</ele>
        <time>2020-06-18T10:07:31Z</time>
      </trkpt>
      <trkpt lat="49.84666" lon="0.83002">
        <ele>70.2</ele>
        <time>2020-06-18T10:07:32Z</time>
      </trkpt>
      <trkpt lat="49.84671" lon="0.83007">
        <ele>70.1</ele>
        <time>2020-06-18T10:07:33Z</time>
      </trkpt>
      <trkpt lat="49.84677" lon="0.83011">
        <ele>70.1</ele>
        <time>2020-06-18T10:07:34Z</time>
      </trkpt>
      <trkpt lat="49.84682" lon="0.83014">
        <ele>70</ele>
        <time>2020-06-18T10:07:35Z</time>
      </trkpt>
      <trkpt lat="49.84687" lon="0.83018">
        <ele>69.9</ele>
        <time>2020-06-18T10:07:36Z</time>
      </trkpt>
      <trkpt lat="49.84693" lon="0.83022">
        <ele>69.8</ele>
        <time>2020-06-18T10:07:37Z</time>
      </trkpt>
      <trkpt lat="49.84697" lon="0.83024">
        <ele>69.8</ele>
        <time>2020-06-18T10:07:38Z</time>
      </trkpt>
      <trkpt lat="49.84702" lon="0.83027">
        <ele>69.7</ele>
        <time>2020-06-18T10:07:39Z</time>
      </trkpt>
      <trkpt lat="49.84707" lon="0.8303">
        <ele>69.7</ele>
        <time>2020-06-18T10:07:40Z</time>
      </trkpt>
      <trkpt lat="49.84713" lon="0.83034">
        <ele>69.6</ele>
        <time>2020-06-18T10:07:41Z</time>
      </trkpt>
      <trkpt lat="49.84719" lon="0.83037">
        <ele>69.5</ele>
        <time>2020-06-18T10:07:42Z</time>
      </trkpt>
      <trkpt lat="49.84725" lon="0.8304">
        <ele>69.5</ele>
        <time>2020-06-18T10:07:43Z</time>
      </trkpt>
      <trkpt lat="49.84731" lon="0.83043">
        <ele>69.4</ele>
        <time>2020-06-18T10:07:44Z</time>
      </trkpt>
      <trkpt lat="49.84738" lon="0.83044">
        <ele>69.4</ele>
        <time>2020-06-18T10:07:45Z</time>
      </trkpt>
      <trkpt lat="49.84743" lon="0.83045">
        <ele>69.4</ele>
        <time>2020-06-18T10:07:46Z</time>
      </trkpt>
      <trkpt lat="49.84749" lon="0.83045">
        <ele>69.4</ele>
        <time>2020-06-18T10:07:47Z</time>
      </trkpt>
      <trkpt lat="49.84755" lon="0.83046">
        <ele>69.4</ele>
        <time>2020-06-18T10:07:48Z</time>
      </trkpt>
      <trkpt lat="49.8476" lon="0.83047">
        <ele>69.3</ele>
        <time>2020-06-18T10:07:49Z</time>
      </trkpt>
      <trkpt lat="49.84766" lon="0.83048">
        <ele>69.3</ele>
        <time>2020-06-18T10:07:50Z</time>
      </trkpt>
      <trkpt lat="49.84771" lon="0.8305">
        <ele>69.2</ele>
        <time>2020-06-18T10:07:51Z</time>
      </trkpt>
      <trkpt lat="49.84776" lon="0.8305">
        <ele>69.2</ele>
        <time>2020-06-18T10:07:52Z</time>
      </trkpt>
      <trkpt lat="49.84781" lon="0.8305">
        <ele>69.2</ele>
        <time>2020-06-18T10:07:53Z</time>
      </trkpt>
      <trkpt lat="49.84784" lon="0.8305">
        <ele>69.2</ele>
        <time>2020-06-18T10:07:54Z</time>
      </trkpt>
      <trkpt lat="49.84787" lon="0.8305">
        <ele>69.2</ele>
        <time>2020-06-18T10:07:55Z</time>
      </trkpt>
      <trkpt lat="49.8479" lon="0.83049">
        <ele>69.2</ele>
        <time>2020-06-18T10:07:56Z</time>
      </trkpt>
      <trkpt lat="49.84793" lon="0.83051">
        <ele>69.2</ele>
        <time>2020-06-18T10:07:57Z</time>
      </trkpt>
      <trkpt lat="49.84795" lon="0.83052">
        <ele>69.2</ele>
        <time>2020-06-18T10:07:58Z</time>
      </trkpt>
      <trkpt lat="49.84795" lon="0.83052">
        <ele>69.2</ele>
        <time>2020-06-18T10:07:59Z</time>
      </trkpt>
      <trkpt lat="49.84796" lon="0.83053">
        <ele>69.2</ele>
        <time>2020-06-18T10:08:00Z</time>
      </trkpt>
      <trkpt lat="49.84796" lon="0.83053">
        <ele>69.2</ele>
        <time>2020-06-18T10:08:01Z</time>
      </trkpt>
      <trkpt lat="49.84795" lon="0.83053">
        <ele>69.2</ele>
        <time>2020-06-18T10:08:02Z</time>
      </trkpt>
      <trkpt lat="49.84794" lon="0.83053">
        <ele>69.2</ele>
        <time>2020-06-18T10:08:03Z</time>
      </trkpt>
      <trkpt lat="49.84794" lon="0.83051">
        <ele>69.2</ele>
        <time>2020-06-18T10:08:04Z</time>
      </trkpt>
      <trkpt lat="49.84794" lon="0.83052">
        <ele>69.2</ele>
        <time>2020-06-18T10:08:05Z</time>
      </trkpt>
      <trkpt lat="49.84794" lon="0.83052">
        <ele>69.2</ele>
        <time>2020-06-18T10:08:06Z</time>
      </trkpt>
      <trkpt lat="49.84794" lon="0.83052">
        <ele>69.2</ele>
        <time>2020-06-18T10:08:07Z</time>
      </trkpt>
      <trkpt lat="49.84794" lon="0.83052">
        <ele>69.2</ele>
        <time>2020-06-18T10:08:08Z</time>
      </trkpt>
      <trkpt lat="49.84794" lon="0.83051">
        <ele>69.2</ele>
        <time>2020-06-18T10:08:09Z</time>
      </trkpt>
      <trkpt lat="49.84794" lon="0.83051">
        <ele>69.2</ele>
        <time>2020-06-18T10:08:10Z</time>
      </trkpt>
      <trkpt lat="49.84794" lon="0.83051">
        <ele>69.2</ele>
        <time>2020-06-18T10:08:11Z</time>
      </trkpt>
      <trkpt lat="49.84794" lon="0.83051">
        <ele>69.2</ele>
        <time>2020-06-18T10:08:12Z</time>
      </trkpt>
      <trkpt lat="49.84794" lon="0.83051">
        <ele>69.2</ele>
        <time>2020-06-18T10:08:13Z</time>
      </trkpt>
      <trkpt lat="49.84794" lon="0.83051">
        <ele>69.2</ele>
        <time>2020-06-18T10:08:14Z</time>
      </trkpt>
      <trkpt lat="49.84794" lon="0.83051">
        <ele>69.2</ele>
        <time>2020-06-18T10:08:15Z</time>
      </trkpt>
      <trkpt lat="49.84797" lon="0.83051">
        <ele>69.2</ele>
        <time>2020-06-18T10:09:46Z</time>
      </trkpt>
      <trkpt lat="49.84798" lon="0.83051">
        <ele>69.2</ele>
        <time>2020-06-18T10:09:47Z</time>
      </trkpt>
      <trkpt lat="49.84799" lon="0.83051">
        <ele>69.2</ele>
        <time>2020-06-18T10:09:48Z</time>
      </trkpt>
      <trkpt lat="49.84801" lon="0.83051">
        <ele>69.2</ele>
        <time>2020-06-18T10:09:49Z</time>
      </trkpt>
      <trkpt lat="49.84802" lon="0.83051">
        <ele>69.1</ele>
        <time>2020-06-18T10:09:50Z</time>
      </trkpt>
      <trkpt lat="49.84804" lon="0.83051">
        <ele>69.1</ele>
        <time>2020-06-18T10:09:51Z</time>
      </trkpt>
      <trkpt lat="49.84806" lon="0.83051">
        <ele>69.1</ele>
        <time>2020-06-18T10:09:52Z</time>
      </trkpt>
      <trkpt lat="49.84809" lon="0.83052">
        <ele>69.1</ele>
        <time>2020-06-18T10:09:53Z</time>
      </trkpt>
      <trkpt lat="49.84811" lon="0.83052">
        <ele>69.1</ele>
        <time>2020-06-18T10:09:54Z</time>
      </trkpt>
      <trkpt lat="49.84815" lon="0.83053">
        <ele>69</ele>
        <time>2020-06-18T10:09:55Z</time>
      </trkpt>
      <trkpt lat="49.84816" lon="0.83053">
        <ele>69</ele>
        <time>2020-06-18T10:09:56Z</time>
      </trkpt>
      <trkpt lat="49.84819" lon="0.83052">
        <ele>69</ele>
        <time>2020-06-18T10:09:57Z</time>
      </trkpt>
      <trkpt lat="49.84823" lon="0.83052">
        <ele>69</ele>
        <time>2020-06-18T10:09:58Z</time>
      </trkpt>
      <trkpt lat="49.84827" lon="0.83053">
        <ele>69</ele>
        <time>2020-06-18T10:09:59Z</time>
      </trkpt>
      <trkpt lat="49.8483" lon="0.83052">
        <ele>69</ele>
        <time>2020-06-18T10:10:00Z</time>
      </trkpt>
      <trkpt lat="49.84834" lon="0.83052">
        <ele>69</ele>
        <time>2020-06-18T10:10:01Z</time>
      </trkpt>
      <trkpt lat="49.84838" lon="0.83051">
        <ele>69</ele>
        <time>2020-06-18T10:10:02Z</time>
      </trkpt>
      <trkpt lat="49.84843" lon="0.83051">
        <ele>68.9</ele>
        <time>2020-06-18T10:10:03Z</time>
      </trkpt>
      <trkpt lat="49.84847" lon="0.83053">
        <ele>68.9</ele>
        <time>2020-06-18T10:10:04Z</time>
      </trkpt>
      <trkpt lat="49.84852" lon="0.83053">
        <ele>68.9</ele>
        <time>2020-06-18T10:10:05Z</time>
      </trkpt>
      <trkpt lat="49.84856" lon="0.83054">
        <ele>68.8</ele>
        <time>2020-06-18T10:10:06Z</time>
      </trkpt>
      <trkpt lat="49.84861" lon="0.83053">
        <ele>68.7</ele>
        <time>2020-06-18T10:10:07Z</time>
      </trkpt>
      <trkpt lat="49.84865" lon="0.83053">
        <ele>68.7</ele>
        <time>2020-06-18T10:10:08Z</time>
      </trkpt>
      <trkpt lat="49.8487" lon="0.83053">
        <ele>68.7</ele>
        <time>2020-06-18T10:10:09Z</time>
      </trkpt>
      <trkpt lat="49.84874" lon="0.83052">
        <ele>68.7</ele>
        <time>2020-06-18T10:10:10Z</time>
      </trkpt>
      <trkpt lat="49.84879" lon="0.83052">
        <ele>68.7</ele>
        <time>2020-06-18T10:10:11Z</time>
      </trkpt>
      <trkpt lat="49.84885" lon="0.83052">
        <ele>68.7</ele>
        <time>2020-06-18T10:10:12Z</time>
      </trkpt>
      <trkpt lat="49.8489" lon="0.83052">
        <ele>68.7</ele>
        <time>2020-06-18T10:10:13Z</time>
      </trkpt>
      <trkpt lat="49.84895" lon="0.83053">
        <ele>68.7</ele>
        <time>2020-06-18T10:10:14Z</time>
      </trkpt>
      <trkpt lat="49.849" lon="0.83054">
        <ele>68.7</ele>
        <time>2020-06-18T10:10:15Z</time>
      </trkpt>
      <trkpt lat="49.84904" lon="0.83054">
        <ele>68.8</ele>
        <time>2020-06-18T10:10:16Z</time>
      </trkpt>
      <trkpt lat="49.84909" lon="0.83055">
        <ele>68.8</ele>
        <time>2020-06-18T10:10:17Z</time>
      </trkpt>
      <trkpt lat="49.84914" lon="0.83054">
        <ele>68.8</ele>
        <time>2020-06-18T10:10:18Z</time>
      </trkpt>
      <trkpt lat="49.84919" lon="0.83054">
        <ele>68.9</ele>
        <time>2020-06-18T10:10:19Z</time>
      </trkpt>
      <trkpt lat="49.84924" lon="0.83054">
        <ele>68.9</ele>
        <time>2020-06-18T10:10:20Z</time>
      </trkpt>
      <trkpt lat="49.84928" lon="0.83054">
        <ele>68.9</ele>
        <time>2020-06-18T10:10:21Z</time>
      </trkpt>
      <trkpt lat="49.84933" lon="0.83054">
        <ele>69</ele>
        <time>2020-06-18T10:10:22Z</time>
      </trkpt>
      <trkpt lat="49.84937" lon="0.83055">
        <ele>69</ele>
        <time>2020-06-18T10:10:23Z</time>
      </trkpt>
      <trkpt lat="49.84942" lon="0.83055">
        <ele>69</ele>
        <time>2020-06-18T10:10:24Z</time>
      </trkpt>
      <trkpt lat="49.84946" lon="0.83056">
        <ele>69.1</ele>
        <time>2020-06-18T10:10:25Z</time>
      </trkpt>
      <trkpt lat="49.84951" lon="0.83057">
        <ele>69.2</ele>
        <time>2020-06-18T10:10:26Z</time>
      </trkpt>
      <trkpt lat="49.84956" lon="0.83057">
        <ele>69.2</ele>
        <time>2020-06-18T10:10:27Z</time>
      </trkpt>
      <trkpt lat="49.84961" lon="0.83057">
        <ele>69.2</ele>
        <time>2020-06-18T10:10:28Z</time>
      </trkpt>
      <trkpt lat="49.84966" lon="0.83058">
        <ele>69.2</ele>
        <time>2020-06-18T10:10:29Z</time>
      </trkpt>
      <trkpt lat="49.8497" lon="0.83059">
        <ele>69.2</ele>
        <time>2020-06-18T10:10:30Z</time>
      </trkpt>
      <trkpt lat="49.84974" lon="0.8306">
        <ele>69.2</ele>
        <time>2020-06-18T10:10:31Z</time>
      </trkpt>
      <trkpt lat="49.84979" lon="0.8306">
        <ele>69.2</ele>
        <time>2020-06-18T10:10:32Z</time>
      </trkpt>
      <trkpt lat="49.84983" lon="0.8306">
        <ele>69.2</ele>
        <time>2020-06-18T10:10:33Z</time>
      </trkpt>
      <trkpt lat="49.84989" lon="0.83061">
        <ele>69.2</ele>
        <time>2020-06-18T10:10:34Z</time>
      </trkpt>
      <trkpt lat="49.84994" lon="0.83061">
        <ele>69.2</ele>
        <time>2020-06-18T10:10:35Z</time>
      </trkpt>
      <trkpt lat="49.85" lon="0.83062">
        <ele>69.2</ele>
        <time>2020-06-18T10:10:36Z</time>
      </trkpt>
      <trkpt lat="49.85006" lon="0.83063">
        <ele>69.2</ele>
        <time>2020-06-18T10:10:37Z</time>
      </trkpt>
      <trkpt lat="49.85012" lon="0.83064">
        <ele>69.2</ele>
        <time>2020-06-18T10:10:38Z</time>
      </trkpt>
      <trkpt lat="49.85018" lon="0.83065">
        <ele>69.1</ele>
        <time>2020-06-18T10:10:39Z</time>
      </trkpt>
      <trkpt lat="49.85024" lon="0.83066">
        <ele>69.1</ele>
        <time>2020-06-18T10:10:40Z</time>
      </trkpt>
      <trkpt lat="49.85029" lon="0.83068">
        <ele>69.1</ele>
        <time>2020-06-18T10:10:41Z</time>
      </trkpt>
      <trkpt lat="49.85035" lon="0.83069">
        <ele>69</ele>
        <time>2020-06-18T10:10:42Z</time>
      </trkpt>
      <trkpt lat="49.8504" lon="0.83072">
        <ele>68.9</ele>
        <time>2020-06-18T10:10:43Z</time>
      </trkpt>
      <trkpt lat="49.85045" lon="0.83075">
        <ele>68.7</ele>
        <time>2020-06-18T10:10:44Z</time>
      </trkpt>
      <trkpt lat="49.85051" lon="0.83077">
        <ele>68.6</ele>
        <time>2020-06-18T10:10:45Z</time>
      </trkpt>
      <trkpt lat="49.85056" lon="0.8308">
        <ele>68.5</ele>
        <time>2020-06-18T10:10:46Z</time>
      </trkpt>
      <trkpt lat="49.85061" lon="0.83082">
        <ele>68.4</ele>
        <time>2020-06-18T10:10:47Z</time>
      </trkpt>
      <trkpt lat="49.85067" lon="0.83085">
        <ele>68.4</ele>
        <time>2020-06-18T10:10:48Z</time>
      </trkpt>
      <trkpt lat="49.85072" lon="0.83087">
        <ele>68.3</ele>
        <time>2020-06-18T10:10:49Z</time>
      </trkpt>
      <trkpt lat="49.85078" lon="0.8309">
        <ele>68.3</ele>
        <time>2020-06-18T10:10:50Z</time>
      </trkpt>
      <trkpt lat="49.85083" lon="0.83093">
        <ele>68.2</ele>
        <time>2020-06-18T10:10:51Z</time>
      </trkpt>
      <trkpt lat="49.85088" lon="0.83096">
        <ele>68.2</ele>
        <time>2020-06-18T10:10:52Z</time>
      </trkpt>
      <trkpt lat="49.85093" lon="0.831">
        <ele>68.2</ele>
        <time>2020-06-18T10:10:53Z</time>
      </trkpt>
      <trkpt lat="49.85099" lon="0.83103">
        <ele>68.2</ele>
        <time>2020-06-18T10:10:54Z</time>
      </trkpt>
      <trkpt lat="49.85105" lon="0.83108">
        <ele>68.2</ele>
        <time>2020-06-18T10:10:55Z</time>
      </trkpt>
      <trkpt lat="49.85111" lon="0.83112">
        <ele>68.3</ele>
        <time>2020-06-18T10:10:56Z</time>
      </trkpt>
      <trkpt lat="49.85117" lon="0.83117">
        <ele>68.3</ele>
        <time>2020-06-18T10:10:57Z</time>
      </trkpt>
      <trkpt lat="49.85122" lon="0.83121">
        <ele>68.3</ele>
        <time>2020-06-18T10:10:58Z</time>
      </trkpt>
      <trkpt lat="49.85127" lon="0.83125">
        <ele>68.3</ele>
        <time>2020-06-18T10:10:59Z</time>
      </trkpt>
      <trkpt lat="49.85132" lon="0.83129">
        <ele>68.3</ele>
        <time>2020-06-18T10:11:00Z</time>
      </trkpt>
      <trkpt lat="49.85137" lon="0.83133">
        <ele>68.4</ele>
        <time>2020-06-18T10:11:01Z</time>
      </trkpt>
      <trkpt lat="49.85141" lon="0.83138">
        <ele>68.4</ele>
        <time>2020-06-18T10:11:02Z</time>
      </trkpt>
      <trkpt lat="49.85146" lon="0.83142">
        <ele>68.4</ele>
        <time>2020-06-18T10:11:03Z</time>
      </trkpt>
      <trkpt lat="49.85151" lon="0.83146">
        <ele>68.4</ele>
        <time>2020-06-18T10:11:04Z</time>
      </trkpt>
      <trkpt lat="49.85156" lon="0.83151">
        <ele>68.4</ele>
        <time>2020-06-18T10:11:05Z</time>
      </trkpt>
      <trkpt lat="49.8516" lon="0.83156">
        <ele>68.4</ele>
        <time>2020-06-18T10:11:06Z</time>
      </trkpt>
      <trkpt lat="49.85165" lon="0.83161">
        <ele>68.4</ele>
        <time>2020-06-18T10:11:07Z</time>
      </trkpt>
      <trkpt lat="49.8517" lon="0.83165">
        <ele>68.4</ele>
        <time>2020-06-18T10:11:08Z</time>
      </trkpt>
      <trkpt lat="49.85174" lon="0.83169">
        <ele>68.5</ele>
        <time>2020-06-18T10:11:09Z</time>
      </trkpt>
      <trkpt lat="49.85179" lon="0.83174">
        <ele>68.5</ele>
        <time>2020-06-18T10:11:10Z</time>
      </trkpt>
      <trkpt lat="49.85183" lon="0.83178">
        <ele>68.5</ele>
        <time>2020-06-18T10:11:11Z</time>
      </trkpt>
      <trkpt lat="49.85188" lon="0.83182">
        <ele>68.5</ele>
        <time>2020-06-18T10:11:12Z</time>
      </trkpt>
      <trkpt lat="49.85193" lon="0.83186">
        <ele>68.5</ele>
        <time>2020-06-18T10:11:13Z</time>
      </trkpt>
      <trkpt lat="49.85198" lon="0.8319">
        <ele>68.4</ele>
        <time>2020-06-18T10:11:14Z</time>
      </trkpt>
      <trkpt lat="49.85203" lon="0.83194">
        <ele>68.4</ele>
        <time>2020-06-18T10:11:15Z</time>
      </trkpt>
      <trkpt lat="49.85208" lon="0.83198">
        <ele>68.4</ele>
        <time>2020-06-18T10:11:16Z</time>
      </trkpt>
      <trkpt lat="49.85213" lon="0.83201">
        <ele>68.3</ele>
        <time>2020-06-18T10:11:17Z</time>
      </trkpt>
      <trkpt lat="49.85217" lon="0.83205">
        <ele>68.2</ele>
        <time>2020-06-18T10:11:18Z</time>
      </trkpt>
      <trkpt lat="49.85223" lon="0.83209">
        <ele>68.2</ele>
        <time>2020-06-18T10:11:19Z</time>
      </trkpt>
      <trkpt lat="49.85228" lon="0.83213">
        <ele>68.2</ele>
        <time>2020-06-18T10:11:20Z</time>
      </trkpt>
      <trkpt lat="49.85233" lon="0.83217">
        <ele>68.2</ele>
        <time>2020-06-18T10:11:21Z</time>
      </trkpt>
      <trkpt lat="49.85237" lon="0.83223">
        <ele>68.1</ele>
        <time>2020-06-18T10:11:22Z</time>
      </trkpt>
      <trkpt lat="49.85242" lon="0.83227">
        <ele>67.9</ele>
        <time>2020-06-18T10:11:23Z</time>
      </trkpt>
      <trkpt lat="49.85247" lon="0.83231">
        <ele>67.8</ele>
        <time>2020-06-18T10:11:24Z</time>
      </trkpt>
      <trkpt lat="49.85252" lon="0.83236">
        <ele>67.6</ele>
        <time>2020-06-18T10:11:25Z</time>
      </trkpt>
      <trkpt lat="49.85257" lon="0.83242">
        <ele>67.4</ele>
        <time>2020-06-18T10:11:26Z</time>
      </trkpt>
      <trkpt lat="49.85262" lon="0.83247">
        <ele>67.3</ele>
        <time>2020-06-18T10:11:27Z</time>
      </trkpt>
      <trkpt lat="49.85268" lon="0.83252">
        <ele>67.1</ele>
        <time>2020-06-18T10:11:28Z</time>
      </trkpt>
      <trkpt lat="49.85273" lon="0.83257">
        <ele>67</ele>
        <time>2020-06-18T10:11:29Z</time>
      </trkpt>
      <trkpt lat="49.85278" lon="0.83263">
        <ele>66.9</ele>
        <time>2020-06-18T10:11:30Z</time>
      </trkpt>
      <trkpt lat="49.85283" lon="0.83269">
        <ele>66.8</ele>
        <time>2020-06-18T10:11:31Z</time>
      </trkpt>
      <trkpt lat="49.85288" lon="0.83274">
        <ele>66.7</ele>
        <time>2020-06-18T10:11:32Z</time>
      </trkpt>
      <trkpt lat="49.85294" lon="0.8328">
        <ele>66.5</ele>
        <time>2020-06-18T10:11:33Z</time>
      </trkpt>
      <trkpt lat="49.85299" lon="0.83285">
        <ele>66.3</ele>
        <time>2020-06-18T10:11:34Z</time>
      </trkpt>
      <trkpt lat="49.85306" lon="0.83291">
        <ele>66.1</ele>
        <time>2020-06-18T10:11:35Z</time>
      </trkpt>
      <trkpt lat="49.85311" lon="0.83297">
        <ele>65.9</ele>
        <time>2020-06-18T10:11:36Z</time>
      </trkpt>
      <trkpt lat="49.85317" lon="0.83302">
        <ele>65.8</ele>
        <time>2020-06-18T10:11:37Z</time>
      </trkpt>
      <trkpt lat="49.85323" lon="0.83308">
        <ele>65.6</ele>
        <time>2020-06-18T10:11:38Z</time>
      </trkpt>
      <trkpt lat="49.85329" lon="0.83315">
        <ele>65.4</ele>
        <time>2020-06-18T10:11:39Z</time>
      </trkpt>
      <trkpt lat="49.85333" lon="0.8332">
        <ele>65.3</ele>
        <time>2020-06-18T10:11:40Z</time>
      </trkpt>
      <trkpt lat="49.85338" lon="0.83327">
        <ele>65.1</ele>
        <time>2020-06-18T10:11:41Z</time>
      </trkpt>
      <trkpt lat="49.85343" lon="0.83334">
        <ele>64.9</ele>
        <time>2020-06-18T10:11:42Z</time>
      </trkpt>
      <trkpt lat="49.85349" lon="0.83341">
        <ele>64.8</ele>
        <time>2020-06-18T10:11:43Z</time>
      </trkpt>
      <trkpt lat="49.85354" lon="0.83349">
        <ele>64.7</ele>
        <time>2020-06-18T10:11:44Z</time>
      </trkpt>
      <trkpt lat="49.85359" lon="0.83357">
        <ele>64.5</ele>
        <time>2020-06-18T10:11:45Z</time>
      </trkpt>
      <trkpt lat="49.85365" lon="0.83364">
        <ele>64.4</ele>
        <time>2020-06-18T10:11:46Z</time>
      </trkpt>
      <trkpt lat="49.85371" lon="0.83371">
        <ele>64.3</ele>
        <time>2020-06-18T10:11:47Z</time>
      </trkpt>
      <trkpt lat="49.85376" lon="0.83377">
        <ele>64.2</ele>
        <time>2020-06-18T10:11:48Z</time>
      </trkpt>
      <trkpt lat="49.85381" lon="0.83385">
        <ele>64</ele>
        <time>2020-06-18T10:11:49Z</time>
      </trkpt>
      <trkpt lat="49.85386" lon="0.83391">
        <ele>63.9</ele>
        <time>2020-06-18T10:11:50Z</time>
      </trkpt>
      <trkpt lat="49.85391" lon="0.83397">
        <ele>63.9</ele>
        <time>2020-06-18T10:11:51Z</time>
      </trkpt>
      <trkpt lat="49.85396" lon="0.83404">
        <ele>63.8</ele>
        <time>2020-06-18T10:11:52Z</time>
      </trkpt>
      <trkpt lat="49.85402" lon="0.83411">
        <ele>63.8</ele>
        <time>2020-06-18T10:11:53Z</time>
      </trkpt>
      <trkpt lat="49.85407" lon="0.83416">
        <ele>63.8</ele>
        <time>2020-06-18T10:11:54Z</time>
      </trkpt>
      <trkpt lat="49.85412" lon="0.83422">
        <ele>63.8</ele>
        <time>2020-06-18T10:11:55Z</time>
      </trkpt>
      <trkpt lat="49.85418" lon="0.83428">
        <ele>63.8</ele>
        <time>2020-06-18T10:11:56Z</time>
      </trkpt>
      <trkpt lat="49.85423" lon="0.83435">
        <ele>63.8</ele>
        <time>2020-06-18T10:11:57Z</time>
      </trkpt>
      <trkpt lat="49.85429" lon="0.83441">
        <ele>63.9</ele>
        <time>2020-06-18T10:11:58Z</time>
      </trkpt>
      <trkpt lat="49.85435" lon="0.83447">
        <ele>63.9</ele>
        <time>2020-06-18T10:11:59Z</time>
      </trkpt>
      <trkpt lat="49.8544" lon="0.83453">
        <ele>63.8</ele>
        <time>2020-06-18T10:12:00Z</time>
      </trkpt>
      <trkpt lat="49.85445" lon="0.8346">
        <ele>63.8</ele>
        <time>2020-06-18T10:12:01Z</time>
      </trkpt>
      <trkpt lat="49.85451" lon="0.83466">
        <ele>63.7</ele>
        <time>2020-06-18T10:12:02Z</time>
      </trkpt>
      <trkpt lat="49.85456" lon="0.83472">
        <ele>63.6</ele>
        <time>2020-06-18T10:12:03Z</time>
      </trkpt>
      <trkpt lat="49.85462" lon="0.83478">
        <ele>63.6</ele>
        <time>2020-06-18T10:12:04Z</time>
      </trkpt>
      <trkpt lat="49.85468" lon="0.83484">
        <ele>63.5</ele>
        <time>2020-06-18T10:12:05Z</time>
      </trkpt>
      <trkpt lat="49.85474" lon="0.8349">
        <ele>63.5</ele>
        <time>2020-06-18T10:12:06Z</time>
      </trkpt>
      <trkpt lat="49.85479" lon="0.83495">
        <ele>63.4</ele>
        <time>2020-06-18T10:12:07Z</time>
      </trkpt>
      <trkpt lat="49.85484" lon="0.835">
        <ele>63.4</ele>
        <time>2020-06-18T10:12:08Z</time>
      </trkpt>
      <trkpt lat="49.85489" lon="0.83506">
        <ele>63.3</ele>
        <time>2020-06-18T10:12:09Z</time>
      </trkpt>
      <trkpt lat="49.85494" lon="0.83512">
        <ele>63.3</ele>
        <time>2020-06-18T10:12:10Z</time>
      </trkpt>
      <trkpt lat="49.85499" lon="0.83517">
        <ele>63.3</ele>
        <time>2020-06-18T10:12:11Z</time>
      </trkpt>
      <trkpt lat="49.85503" lon="0.83523">
        <ele>63.4</ele>
        <time>2020-06-18T10:12:12Z</time>
      </trkpt>
      <trkpt lat="49.85508" lon="0.83529">
        <ele>63.4</ele>
        <time>2020-06-18T10:12:13Z</time>
      </trkpt>
      <trkpt lat="49.85512" lon="0.83534">
        <ele>63.4</ele>
        <time>2020-06-18T10:12:14Z</time>
      </trkpt>
      <trkpt lat="49.85517" lon="0.83539">
        <ele>63.4</ele>
        <time>2020-06-18T10:12:15Z</time>
      </trkpt>
      <trkpt lat="49.85521" lon="0.83545">
        <ele>63.3</ele>
        <time>2020-06-18T10:12:16Z</time>
      </trkpt>
      <trkpt lat="49.85526" lon="0.8355">
        <ele>63.2</ele>
        <time>2020-06-18T10:12:17Z</time>
      </trkpt>
      <trkpt lat="49.8553" lon="0.83555">
        <ele>63.2</ele>
        <time>2020-06-18T10:12:18Z</time>
      </trkpt>
      <trkpt lat="49.85536" lon="0.83561">
        <ele>63.1</ele>
        <time>2020-06-18T10:12:19Z</time>
      </trkpt>
      <trkpt lat="49.85541" lon="0.83566">
        <ele>63.1</ele>
        <time>2020-06-18T10:12:20Z</time>
      </trkpt>
      <trkpt lat="49.85547" lon="0.83571">
        <ele>63.1</ele>
        <time>2020-06-18T10:12:21Z</time>
      </trkpt>
      <trkpt lat="49.85552" lon="0.83577">
        <ele>63.4</ele>
        <time>2020-06-18T10:12:22Z</time>
      </trkpt>
      <trkpt lat="49.85558" lon="0.83584">
        <ele>63.4</ele>
        <time>2020-06-18T10:12:23Z</time>
      </trkpt>
      <trkpt lat="49.85563" lon="0.83589">
        <ele>63.4</ele>
        <time>2020-06-18T10:12:24Z</time>
      </trkpt>
      <trkpt lat="49.85569" lon="0.83595">
        <ele>63.4</ele>
        <time>2020-06-18T10:12:25Z</time>
      </trkpt>
      <trkpt lat="49.85574" lon="0.83601">
        <ele>63.4</ele>
        <time>2020-06-18T10:12:26Z</time>
      </trkpt>
      <trkpt lat="49.85579" lon="0.83606">
        <ele>63.3</ele>
        <time>2020-06-18T10:12:27Z</time>
      </trkpt>
      <trkpt lat="49.85584" lon="0.83612">
        <ele>63.2</ele>
        <time>2020-06-18T10:12:28Z</time>
      </trkpt>
      <trkpt lat="49.85588" lon="0.83616">
        <ele>63</ele>
        <time>2020-06-18T10:12:29Z</time>
      </trkpt>
      <trkpt lat="49.85593" lon="0.83621">
        <ele>62.9</ele>
        <time>2020-06-18T10:12:30Z</time>
      </trkpt>
      <trkpt lat="49.85598" lon="0.83627">
        <ele>62.8</ele>
        <time>2020-06-18T10:12:31Z</time>
      </trkpt>
      <trkpt lat="49.85603" lon="0.83632">
        <ele>62.8</ele>
        <time>2020-06-18T10:12:32Z</time>
      </trkpt>
      <trkpt lat="49.85608" lon="0.83637">
        <ele>62.8</ele>
        <time>2020-06-18T10:12:33Z</time>
      </trkpt>
      <trkpt lat="49.85612" lon="0.83643">
        <ele>62.8</ele>
        <time>2020-06-18T10:12:34Z</time>
      </trkpt>
      <trkpt lat="49.85618" lon="0.83649">
        <ele>62.8</ele>
        <time>2020-06-18T10:12:35Z</time>
      </trkpt>
      <trkpt lat="49.85623" lon="0.83655">
        <ele>62.7</ele>
        <time>2020-06-18T10:12:36Z</time>
      </trkpt>
      <trkpt lat="49.85629" lon="0.83661">
        <ele>62.7</ele>
        <time>2020-06-18T10:12:37Z</time>
      </trkpt>
      <trkpt lat="49.85634" lon="0.83666">
        <ele>62.7</ele>
        <time>2020-06-18T10:12:38Z</time>
      </trkpt>
      <trkpt lat="49.85639" lon="0.83672">
        <ele>62.6</ele>
        <time>2020-06-18T10:12:39Z</time>
      </trkpt>
      <trkpt lat="49.85645" lon="0.83679">
        <ele>62.5</ele>
        <time>2020-06-18T10:12:40Z</time>
      </trkpt>
      <trkpt lat="49.8565" lon="0.83686">
        <ele>62.4</ele>
        <time>2020-06-18T10:12:41Z</time>
      </trkpt>
      <trkpt lat="49.85655" lon="0.83693">
        <ele>62.3</ele>
        <time>2020-06-18T10:12:42Z</time>
      </trkpt>
      <trkpt lat="49.85659" lon="0.83699">
        <ele>62.2</ele>
        <time>2020-06-18T10:12:43Z</time>
      </trkpt>
      <trkpt lat="49.85664" lon="0.83705">
        <ele>62.1</ele>
        <time>2020-06-18T10:12:44Z</time>
      </trkpt>
      <trkpt lat="49.85669" lon="0.8371">
        <ele>62.1</ele>
        <time>2020-06-18T10:12:45Z</time>
      </trkpt>
      <trkpt lat="49.85673" lon="0.83715">
        <ele>62</ele>
        <time>2020-06-18T10:12:46Z</time>
      </trkpt>
      <trkpt lat="49.85678" lon="0.83721">
        <ele>61.9</ele>
        <time>2020-06-18T10:12:47Z</time>
      </trkpt>
      <trkpt lat="49.85682" lon="0.83728">
        <ele>61.9</ele>
        <time>2020-06-18T10:12:48Z</time>
      </trkpt>
      <trkpt lat="49.85686" lon="0.83735">
        <ele>61.8</ele>
        <time>2020-06-18T10:12:49Z</time>
      </trkpt>
      <trkpt lat="49.8569" lon="0.83742">
        <ele>61.8</ele>
        <time>2020-06-18T10:12:50Z</time>
      </trkpt>
      <trkpt lat="49.85695" lon="0.83748">
        <ele>61.7</ele>
        <time>2020-06-18T10:12:51Z</time>
      </trkpt>
      <trkpt lat="49.857" lon="0.83756">
        <ele>61.7</ele>
        <time>2020-06-18T10:12:52Z</time>
      </trkpt>
      <trkpt lat="49.85704" lon="0.83762">
        <ele>61.6</ele>
        <time>2020-06-18T10:12:53Z</time>
      </trkpt>
      <trkpt lat="49.85707" lon="0.83768">
        <ele>61.6</ele>
        <time>2020-06-18T10:12:54Z</time>
      </trkpt>
      <trkpt lat="49.8571" lon="0.83774">
        <ele>61.6</ele>
        <time>2020-06-18T10:12:55Z</time>
      </trkpt>
      <trkpt lat="49.85713" lon="0.83781">
        <ele>61.5</ele>
        <time>2020-06-18T10:12:56Z</time>
      </trkpt>
      <trkpt lat="49.85717" lon="0.83789">
        <ele>61.5</ele>
        <time>2020-06-18T10:12:57Z</time>
      </trkpt>
      <trkpt lat="49.8572" lon="0.83796">
        <ele>61.4</ele>
        <time>2020-06-18T10:12:58Z</time>
      </trkpt>
      <trkpt lat="49.85725" lon="0.83804">
        <ele>61.3</ele>
        <time>2020-06-18T10:12:59Z</time>
      </trkpt>
      <trkpt lat="49.85729" lon="0.83812">
        <ele>61.2</ele>
        <time>2020-06-18T10:13:00Z</time>
      </trkpt>
      <trkpt lat="49.85733" lon="0.83819">
        <ele>61.2</ele>
        <time>2020-06-18T10:13:01Z</time>
      </trkpt>
      <trkpt lat="49.85738" lon="0.83827">
        <ele>61.1</ele>
        <time>2020-06-18T10:13:02Z</time>
      </trkpt>
      <trkpt lat="49.85742" lon="0.83834">
        <ele>61.1</ele>
        <time>2020-06-18T10:13:03Z</time>
      </trkpt>
      <trkpt lat="49.85746" lon="0.83842">
        <ele>61.1</ele>
        <time>2020-06-18T10:13:04Z</time>
      </trkpt>
      <trkpt lat="49.85749" lon="0.83848">
        <ele>61</ele>
        <time>2020-06-18T10:13:05Z</time>
      </trkpt>
      <trkpt lat="49.85753" lon="0.83855">
        <ele>61</ele>
        <time>2020-06-18T10:13:06Z</time>
      </trkpt>
      <trkpt lat="49.85757" lon="0.83863">
        <ele>60.9</ele>
        <time>2020-06-18T10:13:07Z</time>
      </trkpt>
      <trkpt lat="49.85761" lon="0.83869">
        <ele>60.8</ele>
        <time>2020-06-18T10:13:08Z</time>
      </trkpt>
      <trkpt lat="49.85765" lon="0.83876">
        <ele>60.6</ele>
        <time>2020-06-18T10:13:09Z</time>
      </trkpt>
      <trkpt lat="49.85768" lon="0.83881">
        <ele>60.5</ele>
        <time>2020-06-18T10:13:10Z</time>
      </trkpt>
      <trkpt lat="49.85772" lon="0.83887">
        <ele>60.4</ele>
        <time>2020-06-18T10:13:11Z</time>
      </trkpt>
      <trkpt lat="49.85775" lon="0.83893">
        <ele>60.3</ele>
        <time>2020-06-18T10:13:12Z</time>
      </trkpt>
      <trkpt lat="49.85779" lon="0.83899">
        <ele>60.2</ele>
        <time>2020-06-18T10:13:13Z</time>
      </trkpt>
      <trkpt lat="49.85783" lon="0.83906">
        <ele>60.2</ele>
        <time>2020-06-18T10:13:14Z</time>
      </trkpt>
      <trkpt lat="49.85786" lon="0.83912">
        <ele>60.1</ele>
        <time>2020-06-18T10:13:15Z</time>
      </trkpt>
      <trkpt lat="49.8579" lon="0.8392">
        <ele>60.1</ele>
        <time>2020-06-18T10:13:16Z</time>
      </trkpt>
      <trkpt lat="49.85794" lon="0.83927">
        <ele>60</ele>
        <time>2020-06-18T10:13:17Z</time>
      </trkpt>
      <trkpt lat="49.85798" lon="0.83933">
        <ele>60</ele>
        <time>2020-06-18T10:13:18Z</time>
      </trkpt>
      <trkpt lat="49.85802" lon="0.8394">
        <ele>59.9</ele>
        <time>2020-06-18T10:13:19Z</time>
      </trkpt>
      <trkpt lat="49.85806" lon="0.83947">
        <ele>59.9</ele>
        <time>2020-06-18T10:13:20Z</time>
      </trkpt>
      <trkpt lat="49.8581" lon="0.83953">
        <ele>59.9</ele>
        <time>2020-06-18T10:13:21Z</time>
      </trkpt>
      <trkpt lat="49.85814" lon="0.83959">
        <ele>59.8</ele>
        <time>2020-06-18T10:13:22Z</time>
      </trkpt>
      <trkpt lat="49.85818" lon="0.83964">
        <ele>59.8</ele>
        <time>2020-06-18T10:13:23Z</time>
      </trkpt>
      <trkpt lat="49.85822" lon="0.8397">
        <ele>59.7</ele>
        <time>2020-06-18T10:13:24Z</time>
      </trkpt>
      <trkpt lat="49.85826" lon="0.83976">
        <ele>59.7</ele>
        <time>2020-06-18T10:13:25Z</time>
      </trkpt>
      <trkpt lat="49.85829" lon="0.83981">
        <ele>59.6</ele>
        <time>2020-06-18T10:13:26Z</time>
      </trkpt>
      <trkpt lat="49.85833" lon="0.83987">
        <ele>59.6</ele>
        <time>2020-06-18T10:13:27Z</time>
      </trkpt>
      <trkpt lat="49.85838" lon="0.83995">
        <ele>59.5</ele>
        <time>2020-06-18T10:13:28Z</time>
      </trkpt>
      <trkpt lat="49.85842" lon="0.84002">
        <ele>59.5</ele>
        <time>2020-06-18T10:13:29Z</time>
      </trkpt>
      <trkpt lat="49.85847" lon="0.84008">
        <ele>59.4</ele>
        <time>2020-06-18T10:13:30Z</time>
      </trkpt>
      <trkpt lat="49.8585" lon="0.84014">
        <ele>59.3</ele>
        <time>2020-06-18T10:13:31Z</time>
      </trkpt>
      <trkpt lat="49.85855" lon="0.84021">
        <ele>59.2</ele>
        <time>2020-06-18T10:13:32Z</time>
      </trkpt>
      <trkpt lat="49.8586" lon="0.84028">
        <ele>59.2</ele>
        <time>2020-06-18T10:13:33Z</time>
      </trkpt>
      <trkpt lat="49.85864" lon="0.84035">
        <ele>59.1</ele>
        <time>2020-06-18T10:13:34Z</time>
      </trkpt>
      <trkpt lat="49.85869" lon="0.84042">
        <ele>59.1</ele>
        <time>2020-06-18T10:13:35Z</time>
      </trkpt>
      <trkpt lat="49.85873" lon="0.84047">
        <ele>59</ele>
        <time>2020-06-18T10:13:36Z</time>
      </trkpt>
      <trkpt lat="49.85877" lon="0.84054">
        <ele>59</ele>
        <time>2020-06-18T10:13:37Z</time>
      </trkpt>
      <trkpt lat="49.85883" lon="0.84061">
        <ele>58.8</ele>
        <time>2020-06-18T10:13:38Z</time>
      </trkpt>
      <trkpt lat="49.85887" lon="0.84068">
        <ele>58.7</ele>
        <time>2020-06-18T10:13:39Z</time>
      </trkpt>
      <trkpt lat="49.85892" lon="0.84075">
        <ele>58.5</ele>
        <time>2020-06-18T10:13:40Z</time>
      </trkpt>
      <trkpt lat="49.85896" lon="0.84082">
        <ele>58.4</ele>
        <time>2020-06-18T10:13:41Z</time>
      </trkpt>
      <trkpt lat="49.85901" lon="0.84087">
        <ele>58.3</ele>
        <time>2020-06-18T10:13:42Z</time>
      </trkpt>
      <trkpt lat="49.85905" lon="0.84093">
        <ele>58.2</ele>
        <time>2020-06-18T10:13:43Z</time>
      </trkpt>
      <trkpt lat="49.8591" lon="0.841">
        <ele>58.2</ele>
        <time>2020-06-18T10:13:44Z</time>
      </trkpt>
      <trkpt lat="49.85914" lon="0.84106">
        <ele>58.1</ele>
        <time>2020-06-18T10:13:45Z</time>
      </trkpt>
      <trkpt lat="49.85919" lon="0.84112">
        <ele>58.1</ele>
        <time>2020-06-18T10:13:46Z</time>
      </trkpt>
      <trkpt lat="49.85923" lon="0.84117">
        <ele>58.1</ele>
        <time>2020-06-18T10:13:47Z</time>
      </trkpt>
      <trkpt lat="49.85926" lon="0.84123">
        <ele>58.1</ele>
        <time>2020-06-18T10:13:48Z</time>
      </trkpt>
      <trkpt lat="49.8593" lon="0.8413">
        <ele>58.1</ele>
        <time>2020-06-18T10:13:49Z</time>
      </trkpt>
      <trkpt lat="49.85934" lon="0.84136">
        <ele>58.1</ele>
        <time>2020-06-18T10:13:50Z</time>
      </trkpt>
      <trkpt lat="49.85939" lon="0.84143">
        <ele>58</ele>
        <time>2020-06-18T10:13:51Z</time>
      </trkpt>
      <trkpt lat="49.85943" lon="0.84152">
        <ele>58</ele>
        <time>2020-06-18T10:13:52Z</time>
      </trkpt>
      <trkpt lat="49.85948" lon="0.84158">
        <ele>58</ele>
        <time>2020-06-18T10:13:53Z</time>
      </trkpt>
      <trkpt lat="49.85952" lon="0.84164">
        <ele>57.9</ele>
        <time>2020-06-18T10:13:54Z</time>
      </trkpt>
      <trkpt lat="49.85957" lon="0.84172">
        <ele>57.8</ele>
        <time>2020-06-18T10:13:55Z</time>
      </trkpt>
      <trkpt lat="49.85963" lon="0.84179">
        <ele>57.8</ele>
        <time>2020-06-18T10:13:56Z</time>
      </trkpt>
      <trkpt lat="49.85968" lon="0.84187">
        <ele>57.7</ele>
        <time>2020-06-18T10:13:57Z</time>
      </trkpt>
      <trkpt lat="49.85973" lon="0.84194">
        <ele>57.7</ele>
        <time>2020-06-18T10:13:58Z</time>
      </trkpt>
      <trkpt lat="49.85977" lon="0.84202">
        <ele>57.7</ele>
        <time>2020-06-18T10:13:59Z</time>
      </trkpt>
      <trkpt lat="49.85982" lon="0.84209">
        <ele>57.7</ele>
        <time>2020-06-18T10:14:00Z</time>
      </trkpt>
      <trkpt lat="49.85986" lon="0.84217">
        <ele>57.6</ele>
        <time>2020-06-18T10:14:01Z</time>
      </trkpt>
      <trkpt lat="49.85991" lon="0.84226">
        <ele>57.6</ele>
        <time>2020-06-18T10:14:02Z</time>
      </trkpt>
      <trkpt lat="49.85995" lon="0.84236">
        <ele>57.5</ele>
        <time>2020-06-18T10:14:03Z</time>
      </trkpt>
      <trkpt lat="49.85998" lon="0.84245">
        <ele>57.4</ele>
        <time>2020-06-18T10:14:04Z</time>
      </trkpt>
      <trkpt lat="49.86002" lon="0.84254">
        <ele>57.4</ele>
        <time>2020-06-18T10:14:05Z</time>
      </trkpt>
      <trkpt lat="49.86006" lon="0.84262">
        <ele>57.3</ele>
        <time>2020-06-18T10:14:06Z</time>
      </trkpt>
      <trkpt lat="49.8601" lon="0.84272">
        <ele>57.3</ele>
        <time>2020-06-18T10:14:07Z</time>
      </trkpt>
      <trkpt lat="49.86014" lon="0.84281">
        <ele>57.2</ele>
        <time>2020-06-18T10:14:08Z</time>
      </trkpt>
      <trkpt lat="49.86018" lon="0.8429">
        <ele>57.2</ele>
        <time>2020-06-18T10:14:09Z</time>
      </trkpt>
      <trkpt lat="49.86022" lon="0.84299">
        <ele>57.1</ele>
        <time>2020-06-18T10:14:10Z</time>
      </trkpt>
      <trkpt lat="49.86026" lon="0.84308">
        <ele>57.1</ele>
        <time>2020-06-18T10:14:11Z</time>
      </trkpt>
      <trkpt lat="49.86029" lon="0.84317">
        <ele>57</ele>
        <time>2020-06-18T10:14:12Z</time>
      </trkpt>
      <trkpt lat="49.86032" lon="0.84326">
        <ele>56.9</ele>
        <time>2020-06-18T10:14:13Z</time>
      </trkpt>
      <trkpt lat="49.86036" lon="0.84335">
        <ele>56.8</ele>
        <time>2020-06-18T10:14:14Z</time>
      </trkpt>
      <trkpt lat="49.8604" lon="0.84345">
        <ele>56.7</ele>
        <time>2020-06-18T10:14:15Z</time>
      </trkpt>
      <trkpt lat="49.86044" lon="0.84354">
        <ele>56.7</ele>
        <time>2020-06-18T10:14:16Z</time>
      </trkpt>
      <trkpt lat="49.86047" lon="0.84364">
        <ele>56.6</ele>
        <time>2020-06-18T10:14:17Z</time>
      </trkpt>
      <trkpt lat="49.86051" lon="0.84373">
        <ele>56.6</ele>
        <time>2020-06-18T10:14:18Z</time>
      </trkpt>
      <trkpt lat="49.86055" lon="0.84383">
        <ele>56.5</ele>
        <time>2020-06-18T10:14:19Z</time>
      </trkpt>
      <trkpt lat="49.8606" lon="0.84392">
        <ele>56.4</ele>
        <time>2020-06-18T10:14:20Z</time>
      </trkpt>
      <trkpt lat="49.86064" lon="0.84401">
        <ele>56.3</ele>
        <time>2020-06-18T10:14:21Z</time>
      </trkpt>
      <trkpt lat="49.86068" lon="0.8441">
        <ele>56.2</ele>
        <time>2020-06-18T10:14:22Z</time>
      </trkpt>
      <trkpt lat="49.86072" lon="0.84418">
        <ele>56.1</ele>
        <time>2020-06-18T10:14:23Z</time>
      </trkpt>
      <trkpt lat="49.86076" lon="0.84427">
        <ele>56</ele>
        <time>2020-06-18T10:14:24Z</time>
      </trkpt>
      <trkpt lat="49.8608" lon="0.84435">
        <ele>55.8</ele>
        <time>2020-06-18T10:14:25Z</time>
      </trkpt>
      <trkpt lat="49.86083" lon="0.84444">
        <ele>55.7</ele>
        <time>2020-06-18T10:14:26Z</time>
      </trkpt>
      <trkpt lat="49.86087" lon="0.84452">
        <ele>55.6</ele>
        <time>2020-06-18T10:14:27Z</time>
      </trkpt>
      <trkpt lat="49.8609" lon="0.8446">
        <ele>55.4</ele>
        <time>2020-06-18T10:14:28Z</time>
      </trkpt>
      <trkpt lat="49.86094" lon="0.84468">
        <ele>55.3</ele>
        <time>2020-06-18T10:14:29Z</time>
      </trkpt>
      <trkpt lat="49.86097" lon="0.84476">
        <ele>55.3</ele>
        <time>2020-06-18T10:14:30Z</time>
      </trkpt>
      <trkpt lat="49.86099" lon="0.84485">
        <ele>55.3</ele>
        <time>2020-06-18T10:14:31Z</time>
      </trkpt>
      <trkpt lat="49.86103" lon="0.84492">
        <ele>55.2</ele>
        <time>2020-06-18T10:14:32Z</time>
      </trkpt>
      <trkpt lat="49.86106" lon="0.84498">
        <ele>55.2</ele>
        <time>2020-06-18T10:14:33Z</time>
      </trkpt>
      <trkpt lat="49.86109" lon="0.84506">
        <ele>55.1</ele>
        <time>2020-06-18T10:14:34Z</time>
      </trkpt>
      <trkpt lat="49.86112" lon="0.84513">
        <ele>55</ele>
        <time>2020-06-18T10:14:35Z</time>
      </trkpt>
      <trkpt lat="49.86116" lon="0.8452">
        <ele>54.9</ele>
        <time>2020-06-18T10:14:36Z</time>
      </trkpt>
      <trkpt lat="49.86118" lon="0.84529">
        <ele>54.8</ele>
        <time>2020-06-18T10:14:37Z</time>
      </trkpt>
      <trkpt lat="49.86122" lon="0.84536">
        <ele>54.6</ele>
        <time>2020-06-18T10:14:38Z</time>
      </trkpt>
      <trkpt lat="49.86125" lon="0.84544">
        <ele>54.4</ele>
        <time>2020-06-18T10:14:39Z</time>
      </trkpt>
      <trkpt lat="49.86128" lon="0.84553">
        <ele>54.3</ele>
        <time>2020-06-18T10:14:40Z</time>
      </trkpt>
      <trkpt lat="49.86132" lon="0.8456">
        <ele>54</ele>
        <time>2020-06-18T10:14:41Z</time>
      </trkpt>
      <trkpt lat="49.86135" lon="0.84569">
        <ele>53.8</ele>
        <time>2020-06-18T10:14:42Z</time>
      </trkpt>
      <trkpt lat="49.86139" lon="0.84576">
        <ele>53.6</ele>
        <time>2020-06-18T10:14:43Z</time>
      </trkpt>
      <trkpt lat="49.86143" lon="0.84581">
        <ele>53.4</ele>
        <time>2020-06-18T10:14:44Z</time>
      </trkpt>
      <trkpt lat="49.86147" lon="0.84588">
        <ele>53.2</ele>
        <time>2020-06-18T10:14:45Z</time>
      </trkpt>
      <trkpt lat="49.8615" lon="0.84596">
        <ele>53</ele>
        <time>2020-06-18T10:14:46Z</time>
      </trkpt>
      <trkpt lat="49.86155" lon="0.84605">
        <ele>52.8</ele>
        <time>2020-06-18T10:14:47Z</time>
      </trkpt>
      <trkpt lat="49.86159" lon="0.84614">
        <ele>52.7</ele>
        <time>2020-06-18T10:14:48Z</time>
      </trkpt>
      <trkpt lat="49.86162" lon="0.84623">
        <ele>52.7</ele>
        <time>2020-06-18T10:14:49Z</time>
      </trkpt>
      <trkpt lat="49.86166" lon="0.84632">
        <ele>52.6</ele>
        <time>2020-06-18T10:14:50Z</time>
      </trkpt>
      <trkpt lat="49.86168" lon="0.84641">
        <ele>52.5</ele>
        <time>2020-06-18T10:14:51Z</time>
      </trkpt>
      <trkpt lat="49.86172" lon="0.84648">
        <ele>52.5</ele>
        <time>2020-06-18T10:14:52Z</time>
      </trkpt>
      <trkpt lat="49.86175" lon="0.84655">
        <ele>52.4</ele>
        <time>2020-06-18T10:14:53Z</time>
      </trkpt>
      <trkpt lat="49.86178" lon="0.84662">
        <ele>52.3</ele>
        <time>2020-06-18T10:14:54Z</time>
      </trkpt>
      <trkpt lat="49.86182" lon="0.84669">
        <ele>52.2</ele>
        <time>2020-06-18T10:14:55Z</time>
      </trkpt>
      <trkpt lat="49.86185" lon="0.84676">
        <ele>52.1</ele>
        <time>2020-06-18T10:14:56Z</time>
      </trkpt>
      <trkpt lat="49.86188" lon="0.84684">
        <ele>52</ele>
        <time>2020-06-18T10:14:57Z</time>
      </trkpt>
      <trkpt lat="49.86191" lon="0.84691">
        <ele>51.9</ele>
        <time>2020-06-18T10:14:58Z</time>
      </trkpt>
      <trkpt lat="49.86195" lon="0.84697">
        <ele>51.8</ele>
        <time>2020-06-18T10:14:59Z</time>
      </trkpt>
      <trkpt lat="49.86199" lon="0.84703">
        <ele>51.8</ele>
        <time>2020-06-18T10:15:00Z</time>
      </trkpt>
      <trkpt lat="49.86203" lon="0.8471">
        <ele>51.7</ele>
        <time>2020-06-18T10:15:01Z</time>
      </trkpt>
      <trkpt lat="49.86208" lon="0.84717">
        <ele>51.6</ele>
        <time>2020-06-18T10:15:02Z</time>
      </trkpt>
      <trkpt lat="49.86212" lon="0.84723">
        <ele>51.5</ele>
        <time>2020-06-18T10:15:03Z</time>
      </trkpt>
      <trkpt lat="49.86216" lon="0.8473">
        <ele>51.5</ele>
        <time>2020-06-18T10:15:04Z</time>
      </trkpt>
      <trkpt lat="49.86218" lon="0.84739">
        <ele>51.4</ele>
        <time>2020-06-18T10:15:05Z</time>
      </trkpt>
      <trkpt lat="49.86221" lon="0.84747">
        <ele>51.4</ele>
        <time>2020-06-18T10:15:06Z</time>
      </trkpt>
      <trkpt lat="49.86224" lon="0.84754">
        <ele>51.4</ele>
        <time>2020-06-18T10:15:07Z</time>
      </trkpt>
      <trkpt lat="49.86228" lon="0.84761">
        <ele>51.5</ele>
        <time>2020-06-18T10:15:08Z</time>
      </trkpt>
      <trkpt lat="49.8623" lon="0.84769">
        <ele>51.5</ele>
        <time>2020-06-18T10:15:09Z</time>
      </trkpt>
      <trkpt lat="49.86233" lon="0.84777">
        <ele>51.5</ele>
        <time>2020-06-18T10:15:10Z</time>
      </trkpt>
      <trkpt lat="49.86236" lon="0.84784">
        <ele>51.6</ele>
        <time>2020-06-18T10:15:11Z</time>
      </trkpt>
      <trkpt lat="49.86238" lon="0.84791">
        <ele>51.6</ele>
        <time>2020-06-18T10:15:12Z</time>
      </trkpt>
      <trkpt lat="49.8624" lon="0.848">
        <ele>51.6</ele>
        <time>2020-06-18T10:15:13Z</time>
      </trkpt>
      <trkpt lat="49.86244" lon="0.84808">
        <ele>51.6</ele>
        <time>2020-06-18T10:15:14Z</time>
      </trkpt>
      <trkpt lat="49.86247" lon="0.84815">
        <ele>51.6</ele>
        <time>2020-06-18T10:15:15Z</time>
      </trkpt>
      <trkpt lat="49.86248" lon="0.84822">
        <ele>51.6</ele>
        <time>2020-06-18T10:15:16Z</time>
      </trkpt>
      <trkpt lat="49.8625" lon="0.84829">
        <ele>51.6</ele>
        <time>2020-06-18T10:15:17Z</time>
      </trkpt>
      <trkpt lat="49.8625" lon="0.84837">
        <ele>51.5</ele>
        <time>2020-06-18T10:15:18Z</time>
      </trkpt>
      <trkpt lat="49.86252" lon="0.84847">
        <ele>51.5</ele>
        <time>2020-06-18T10:15:19Z</time>
      </trkpt>
      <trkpt lat="49.86254" lon="0.84857">
        <ele>51.4</ele>
        <time>2020-06-18T10:15:20Z</time>
      </trkpt>
      <trkpt lat="49.86256" lon="0.84866">
        <ele>51.4</ele>
        <time>2020-06-18T10:15:21Z</time>
      </trkpt>
      <trkpt lat="49.86257" lon="0.84874">
        <ele>51.4</ele>
        <time>2020-06-18T10:15:22Z</time>
      </trkpt>
      <trkpt lat="49.86258" lon="0.84882">
        <ele>51.4</ele>
        <time>2020-06-18T10:15:23Z</time>
      </trkpt>
      <trkpt lat="49.86257" lon="0.84892">
        <ele>51.4</ele>
        <time>2020-06-18T10:15:24Z</time>
      </trkpt>
      <trkpt lat="49.86258" lon="0.849">
        <ele>51.5</ele>
        <time>2020-06-18T10:15:25Z</time>
      </trkpt>
      <trkpt lat="49.86258" lon="0.84907">
        <ele>51.5</ele>
        <time>2020-06-18T10:15:26Z</time>
      </trkpt>
      <trkpt lat="49.86258" lon="0.84915">
        <ele>51.6</ele>
        <time>2020-06-18T10:15:27Z</time>
      </trkpt>
      <trkpt lat="49.86257" lon="0.8492">
        <ele>51.6</ele>
        <time>2020-06-18T10:15:28Z</time>
      </trkpt>
      <trkpt lat="49.86259" lon="0.84924">
        <ele>51.6</ele>
        <time>2020-06-18T10:15:29Z</time>
      </trkpt>
      <trkpt lat="49.86262" lon="0.84926">
        <ele>51.6</ele>
        <time>2020-06-18T10:15:30Z</time>
      </trkpt>
      <trkpt lat="49.86266" lon="0.84926">
        <ele>51.5</ele>
        <time>2020-06-18T10:15:31Z</time>
      </trkpt>
      <trkpt lat="49.8627" lon="0.84926">
        <ele>51.5</ele>
        <time>2020-06-18T10:15:32Z</time>
      </trkpt>
      <trkpt lat="49.86274" lon="0.84928">
        <ele>51.5</ele>
        <time>2020-06-18T10:15:33Z</time>
      </trkpt>
      <trkpt lat="49.86278" lon="0.84928">
        <ele>51.4</ele>
        <time>2020-06-18T10:15:34Z</time>
      </trkpt>
      <trkpt lat="49.86283" lon="0.84928">
        <ele>51.3</ele>
        <time>2020-06-18T10:15:35Z</time>
      </trkpt>
      <trkpt lat="49.86287" lon="0.84928">
        <ele>51.2</ele>
        <time>2020-06-18T10:15:36Z</time>
      </trkpt>
      <trkpt lat="49.86292" lon="0.84928">
        <ele>51.1</ele>
        <time>2020-06-18T10:15:37Z</time>
      </trkpt>
      <trkpt lat="49.86297" lon="0.84929">
        <ele>51</ele>
        <time>2020-06-18T10:15:38Z</time>
      </trkpt>
      <trkpt lat="49.86303" lon="0.84929">
        <ele>50.9</ele>
        <time>2020-06-18T10:15:39Z</time>
      </trkpt>
      <trkpt lat="49.86308" lon="0.8493">
        <ele>50.9</ele>
        <time>2020-06-18T10:15:40Z</time>
      </trkpt>
      <trkpt lat="49.86313" lon="0.84931">
        <ele>50.8</ele>
        <time>2020-06-18T10:15:41Z</time>
      </trkpt>
      <trkpt lat="49.86319" lon="0.84932">
        <ele>50.8</ele>
        <time>2020-06-18T10:15:42Z</time>
      </trkpt>
      <trkpt lat="49.86324" lon="0.84934">
        <ele>50.9</ele>
        <time>2020-06-18T10:15:43Z</time>
      </trkpt>
      <trkpt lat="49.86329" lon="0.84933">
        <ele>50.9</ele>
        <time>2020-06-18T10:15:44Z</time>
      </trkpt>
      <trkpt lat="49.86334" lon="0.84932">
        <ele>50.9</ele>
        <time>2020-06-18T10:15:45Z</time>
      </trkpt>
      <trkpt lat="49.86339" lon="0.84932">
        <ele>50.9</ele>
        <time>2020-06-18T10:15:46Z</time>
      </trkpt>
      <trkpt lat="49.86343" lon="0.84931">
        <ele>50.8</ele>
        <time>2020-06-18T10:15:47Z</time>
      </trkpt>
      <trkpt lat="49.86348" lon="0.8493">
        <ele>50.8</ele>
        <time>2020-06-18T10:15:48Z</time>
      </trkpt>
      <trkpt lat="49.86352" lon="0.8493">
        <ele>50.9</ele>
        <time>2020-06-18T10:15:49Z</time>
      </trkpt>
      <trkpt lat="49.86355" lon="0.84929">
        <ele>50.9</ele>
        <time>2020-06-18T10:15:50Z</time>
      </trkpt>
      <trkpt lat="49.86359" lon="0.84929">
        <ele>50.9</ele>
        <time>2020-06-18T10:15:51Z</time>
      </trkpt>
      <trkpt lat="49.86364" lon="0.8493">
        <ele>50.9</ele>
        <time>2020-06-18T10:15:52Z</time>
      </trkpt>
      <trkpt lat="49.86369" lon="0.84931">
        <ele>51</ele>
        <time>2020-06-18T10:15:53Z</time>
      </trkpt>
      <trkpt lat="49.86374" lon="0.84931">
        <ele>51</ele>
        <time>2020-06-18T10:15:54Z</time>
      </trkpt>
      <trkpt lat="49.86378" lon="0.84932">
        <ele>51</ele>
        <time>2020-06-18T10:15:55Z</time>
      </trkpt>
      <trkpt lat="49.86384" lon="0.84931">
        <ele>51</ele>
        <time>2020-06-18T10:15:56Z</time>
      </trkpt>
      <trkpt lat="49.86389" lon="0.84932">
        <ele>51</ele>
        <time>2020-06-18T10:15:57Z</time>
      </trkpt>
      <trkpt lat="49.86394" lon="0.84932">
        <ele>51</ele>
        <time>2020-06-18T10:15:58Z</time>
      </trkpt>
      <trkpt lat="49.86398" lon="0.84933">
        <ele>51</ele>
        <time>2020-06-18T10:15:59Z</time>
      </trkpt>
      <trkpt lat="49.86403" lon="0.84932">
        <ele>50.9</ele>
        <time>2020-06-18T10:16:00Z</time>
      </trkpt>
      <trkpt lat="49.86408" lon="0.84931">
        <ele>50.9</ele>
        <time>2020-06-18T10:16:01Z</time>
      </trkpt>
      <trkpt lat="49.86413" lon="0.84929">
        <ele>50.9</ele>
        <time>2020-06-18T10:16:02Z</time>
      </trkpt>
      <trkpt lat="49.86417" lon="0.84929">
        <ele>50.8</ele>
        <time>2020-06-18T10:16:03Z</time>
      </trkpt>
      <trkpt lat="49.86421" lon="0.8493">
        <ele>50.8</ele>
        <time>2020-06-18T10:16:04Z</time>
      </trkpt>
      <trkpt lat="49.86425" lon="0.84929">
        <ele>50.8</ele>
        <time>2020-06-18T10:16:05Z</time>
      </trkpt>
      <trkpt lat="49.86428" lon="0.84927">
        <ele>50.8</ele>
        <time>2020-06-18T10:16:06Z</time>
      </trkpt>
      <trkpt lat="49.86432" lon="0.84926">
        <ele>50.8</ele>
        <time>2020-06-18T10:16:07Z</time>
      </trkpt>
      <trkpt lat="49.86436" lon="0.84925">
        <ele>50.8</ele>
        <time>2020-06-18T10:16:08Z</time>
      </trkpt>
      <trkpt lat="49.8644" lon="0.84924">
        <ele>50.8</ele>
        <time>2020-06-18T10:16:09Z</time>
      </trkpt>
      <trkpt lat="49.86444" lon="0.84922">
        <ele>50.8</ele>
        <time>2020-06-18T10:16:10Z</time>
      </trkpt>
      <trkpt lat="49.86448" lon="0.84921">
        <ele>50.7</ele>
        <time>2020-06-18T10:16:11Z</time>
      </trkpt>
      <trkpt lat="49.86453" lon="0.84921">
        <ele>50.7</ele>
        <time>2020-06-18T10:16:12Z</time>
      </trkpt>
      <trkpt lat="49.86457" lon="0.84923">
        <ele>50.7</ele>
        <time>2020-06-18T10:16:13Z</time>
      </trkpt>
      <trkpt lat="49.86463" lon="0.84926">
        <ele>50.6</ele>
        <time>2020-06-18T10:16:14Z</time>
      </trkpt>
      <trkpt lat="49.86467" lon="0.84927">
        <ele>50.6</ele>
        <time>2020-06-18T10:16:15Z</time>
      </trkpt>
      <trkpt lat="49.86471" lon="0.84928">
        <ele>50.5</ele>
        <time>2020-06-18T10:16:16Z</time>
      </trkpt>
      <trkpt lat="49.86475" lon="0.84929">
        <ele>50.4</ele>
        <time>2020-06-18T10:16:17Z</time>
      </trkpt>
      <trkpt lat="49.86479" lon="0.84929">
        <ele>50.4</ele>
        <time>2020-06-18T10:16:18Z</time>
      </trkpt>
      <trkpt lat="49.86483" lon="0.84925">
        <ele>50.3</ele>
        <time>2020-06-18T10:16:19Z</time>
      </trkpt>
      <trkpt lat="49.86488" lon="0.84925">
        <ele>50.3</ele>
        <time>2020-06-18T10:16:20Z</time>
      </trkpt>
      <trkpt lat="49.86492" lon="0.84925">
        <ele>50.2</ele>
        <time>2020-06-18T10:16:21Z</time>
      </trkpt>
      <trkpt lat="49.86496" lon="0.84926">
        <ele>50.1</ele>
        <time>2020-06-18T10:16:22Z</time>
      </trkpt>
      <trkpt lat="49.86501" lon="0.84928">
        <ele>50.1</ele>
        <time>2020-06-18T10:16:23Z</time>
      </trkpt>
      <trkpt lat="49.86505" lon="0.8493">
        <ele>50</ele>
        <time>2020-06-18T10:16:24Z</time>
      </trkpt>
      <trkpt lat="49.86509" lon="0.84932">
        <ele>50</ele>
        <time>2020-06-18T10:16:25Z</time>
      </trkpt>
      <trkpt lat="49.86513" lon="0.84932">
        <ele>49.9</ele>
        <time>2020-06-18T10:16:26Z</time>
      </trkpt>
      <trkpt lat="49.86517" lon="0.84933">
        <ele>49.9</ele>
        <time>2020-06-18T10:16:27Z</time>
      </trkpt>
      <trkpt lat="49.8652" lon="0.84935">
        <ele>49.9</ele>
        <time>2020-06-18T10:16:28Z</time>
      </trkpt>
      <trkpt lat="49.86523" lon="0.84938">
        <ele>49.8</ele>
        <time>2020-06-18T10:16:29Z</time>
      </trkpt>
      <trkpt lat="49.86526" lon="0.84942">
        <ele>49.8</ele>
        <time>2020-06-18T10:16:30Z</time>
      </trkpt>
      <trkpt lat="49.86529" lon="0.84946">
        <ele>49.8</ele>
        <time>2020-06-18T10:16:31Z</time>
      </trkpt>
      <trkpt lat="49.8653" lon="0.8495">
        <ele>49.8</ele>
        <time>2020-06-18T10:16:32Z</time>
      </trkpt>
      <trkpt lat="49.86533" lon="0.84953">
        <ele>49.9</ele>
        <time>2020-06-18T10:16:33Z</time>
      </trkpt>
      <trkpt lat="49.86534" lon="0.84954">
        <ele>49.9</ele>
        <time>2020-06-18T10:16:34Z</time>
      </trkpt>
      <trkpt lat="49.86535" lon="0.84956">
        <ele>49.9</ele>
        <time>2020-06-18T10:16:35Z</time>
      </trkpt>
      <trkpt lat="49.86536" lon="0.84956">
        <ele>49.9</ele>
        <time>2020-06-18T10:16:36Z</time>
      </trkpt>
      <trkpt lat="49.86536" lon="0.84957">
        <ele>49.9</ele>
        <time>2020-06-18T10:16:37Z</time>
      </trkpt>
      <trkpt lat="49.86537" lon="0.84957">
        <ele>49.9</ele>
        <time>2020-06-18T10:16:38Z</time>
      </trkpt>
      <trkpt lat="49.86539" lon="0.84961">
        <ele>49.9</ele>
        <time>2020-06-18T10:16:39Z</time>
      </trkpt>
      <trkpt lat="49.8654" lon="0.84963">
        <ele>49.1</ele>
        <time>2020-06-18T10:16:40Z</time>
      </trkpt>
      <trkpt lat="49.86542" lon="0.84966">
        <ele>49</ele>
        <time>2020-06-18T10:16:41Z</time>
      </trkpt>
      <trkpt lat="49.86544" lon="0.8497">
        <ele>49</ele>
        <time>2020-06-18T10:16:42Z</time>
      </trkpt>
      <trkpt lat="49.86545" lon="0.84975">
        <ele>48.9</ele>
        <time>2020-06-18T10:16:43Z</time>
      </trkpt>
      <trkpt lat="49.86546" lon="0.84979">
        <ele>48.8</ele>
        <time>2020-06-18T10:16:44Z</time>
      </trkpt>
      <trkpt lat="49.86548" lon="0.84985">
        <ele>48.8</ele>
        <time>2020-06-18T10:16:45Z</time>
      </trkpt>
      <trkpt lat="49.86549" lon="0.8499">
        <ele>48.7</ele>
        <time>2020-06-18T10:16:46Z</time>
      </trkpt>
      <trkpt lat="49.86551" lon="0.84996">
        <ele>48.6</ele>
        <time>2020-06-18T10:16:47Z</time>
      </trkpt>
      <trkpt lat="49.86551" lon="0.85002">
        <ele>48.5</ele>
        <time>2020-06-18T10:16:48Z</time>
      </trkpt>
      <trkpt lat="49.86551" lon="0.85009">
        <ele>48.5</ele>
        <time>2020-06-18T10:16:49Z</time>
      </trkpt>
      <trkpt lat="49.86551" lon="0.85016">
        <ele>48.4</ele>
        <time>2020-06-18T10:16:50Z</time>
      </trkpt>
      <trkpt lat="49.86552" lon="0.85022">
        <ele>48.3</ele>
        <time>2020-06-18T10:16:51Z</time>
      </trkpt>
      <trkpt lat="49.86552" lon="0.85029">
        <ele>48.3</ele>
        <time>2020-06-18T10:16:52Z</time>
      </trkpt>
      <trkpt lat="49.86555" lon="0.85035">
        <ele>48.3</ele>
        <time>2020-06-18T10:16:53Z</time>
      </trkpt>
      <trkpt lat="49.86557" lon="0.85042">
        <ele>48.3</ele>
        <time>2020-06-18T10:16:54Z</time>
      </trkpt>
      <trkpt lat="49.86557" lon="0.85048">
        <ele>48.3</ele>
        <time>2020-06-18T10:16:55Z</time>
      </trkpt>
      <trkpt lat="49.86558" lon="0.85055">
        <ele>48.3</ele>
        <time>2020-06-18T10:16:56Z</time>
      </trkpt>
      <trkpt lat="49.86558" lon="0.85062">
        <ele>48.3</ele>
        <time>2020-06-18T10:16:57Z</time>
      </trkpt>
      <trkpt lat="49.86559" lon="0.85069">
        <ele>48.2</ele>
        <time>2020-06-18T10:16:58Z</time>
      </trkpt>
      <trkpt lat="49.8656" lon="0.85075">
        <ele>48.2</ele>
        <time>2020-06-18T10:16:59Z</time>
      </trkpt>
      <trkpt lat="49.8656" lon="0.85081">
        <ele>48.2</ele>
        <time>2020-06-18T10:17:00Z</time>
      </trkpt>
      <trkpt lat="49.8656" lon="0.85088">
        <ele>48.2</ele>
        <time>2020-06-18T10:17:01Z</time>
      </trkpt>
      <trkpt lat="49.8656" lon="0.85095">
        <ele>48.2</ele>
        <time>2020-06-18T10:17:02Z</time>
      </trkpt>
      <trkpt lat="49.8656" lon="0.85101">
        <ele>48.2</ele>
        <time>2020-06-18T10:17:03Z</time>
      </trkpt>
      <trkpt lat="49.8656" lon="0.85109">
        <ele>48.3</ele>
        <time>2020-06-18T10:17:04Z</time>
      </trkpt>
      <trkpt lat="49.86558" lon="0.85117">
        <ele>48.3</ele>
        <time>2020-06-18T10:17:05Z</time>
      </trkpt>
      <trkpt lat="49.86557" lon="0.85124">
        <ele>48.4</ele>
        <time>2020-06-18T10:17:06Z</time>
      </trkpt>
      <trkpt lat="49.86555" lon="0.85131">
        <ele>48.4</ele>
        <time>2020-06-18T10:17:07Z</time>
      </trkpt>
      <trkpt lat="49.86554" lon="0.85139">
        <ele>48.4</ele>
        <time>2020-06-18T10:17:08Z</time>
      </trkpt>
      <trkpt lat="49.86554" lon="0.85148">
        <ele>48.5</ele>
        <time>2020-06-18T10:17:09Z</time>
      </trkpt>
      <trkpt lat="49.86554" lon="0.85157">
        <ele>48.7</ele>
        <time>2020-06-18T10:17:10Z</time>
      </trkpt>
      <trkpt lat="49.86556" lon="0.85166">
        <ele>49.1</ele>
        <time>2020-06-18T10:17:11Z</time>
      </trkpt>
      <trkpt lat="49.86558" lon="0.85175">
        <ele>49.5</ele>
        <time>2020-06-18T10:17:12Z</time>
      </trkpt>
      <trkpt lat="49.86557" lon="0.85183">
        <ele>49.7</ele>
        <time>2020-06-18T10:17:13Z</time>
      </trkpt>
      <trkpt lat="49.86558" lon="0.85192">
        <ele>49.7</ele>
        <time>2020-06-18T10:17:14Z</time>
      </trkpt>
      <trkpt lat="49.86557" lon="0.85201">
        <ele>49.8</ele>
        <time>2020-06-18T10:17:15Z</time>
      </trkpt>
      <trkpt lat="49.86558" lon="0.8521">
        <ele>49.8</ele>
        <time>2020-06-18T10:17:16Z</time>
      </trkpt>
      <trkpt lat="49.86558" lon="0.85218">
        <ele>49.8</ele>
        <time>2020-06-18T10:17:17Z</time>
      </trkpt>
      <trkpt lat="49.86559" lon="0.85226">
        <ele>49.7</ele>
        <time>2020-06-18T10:17:18Z</time>
      </trkpt>
      <trkpt lat="49.8656" lon="0.85235">
        <ele>49.7</ele>
        <time>2020-06-18T10:17:19Z</time>
      </trkpt>
      <trkpt lat="49.8656" lon="0.85244">
        <ele>49.5</ele>
        <time>2020-06-18T10:17:20Z</time>
      </trkpt>
      <trkpt lat="49.8656" lon="0.85252">
        <ele>49.4</ele>
        <time>2020-06-18T10:17:21Z</time>
      </trkpt>
      <trkpt lat="49.86559" lon="0.85262">
        <ele>49.3</ele>
        <time>2020-06-18T10:17:22Z</time>
      </trkpt>
      <trkpt lat="49.86559" lon="0.85271">
        <ele>49.4</ele>
        <time>2020-06-18T10:17:23Z</time>
      </trkpt>
      <trkpt lat="49.86558" lon="0.85279">
        <ele>49.4</ele>
        <time>2020-06-18T10:17:24Z</time>
      </trkpt>
      <trkpt lat="49.86557" lon="0.85288">
        <ele>49.5</ele>
        <time>2020-06-18T10:17:25Z</time>
      </trkpt>
      <trkpt lat="49.86556" lon="0.85298">
        <ele>49.5</ele>
        <time>2020-06-18T10:17:26Z</time>
      </trkpt>
      <trkpt lat="49.86556" lon="0.85307">
        <ele>49.6</ele>
        <time>2020-06-18T10:17:27Z</time>
      </trkpt>
      <trkpt lat="49.86556" lon="0.85315">
        <ele>49.6</ele>
        <time>2020-06-18T10:17:28Z</time>
      </trkpt>
      <trkpt lat="49.86556" lon="0.85325">
        <ele>49.6</ele>
        <time>2020-06-18T10:17:29Z</time>
      </trkpt>
      <trkpt lat="49.86556" lon="0.85334">
        <ele>49.7</ele>
        <time>2020-06-18T10:17:30Z</time>
      </trkpt>
      <trkpt lat="49.86555" lon="0.85342">
        <ele>49.7</ele>
        <time>2020-06-18T10:17:31Z</time>
      </trkpt>
      <trkpt lat="49.86553" lon="0.85351">
        <ele>49.9</ele>
        <time>2020-06-18T10:17:32Z</time>
      </trkpt>
      <trkpt lat="49.86553" lon="0.85361">
        <ele>50</ele>
        <time>2020-06-18T10:17:33Z</time>
      </trkpt>
      <trkpt lat="49.86554" lon="0.85371">
        <ele>50.2</ele>
        <time>2020-06-18T10:17:34Z</time>
      </trkpt>
      <trkpt lat="49.86554" lon="0.85381">
        <ele>50.3</ele>
        <time>2020-06-18T10:17:35Z</time>
      </trkpt>
      <trkpt lat="49.86554" lon="0.85391">
        <ele>50.3</ele>
        <time>2020-06-18T10:17:36Z</time>
      </trkpt>
      <trkpt lat="49.86555" lon="0.85401">
        <ele>50.3</ele>
        <time>2020-06-18T10:17:37Z</time>
      </trkpt>
      <trkpt lat="49.86554" lon="0.8541">
        <ele>50.3</ele>
        <time>2020-06-18T10:17:38Z</time>
      </trkpt>
      <trkpt lat="49.86554" lon="0.85419">
        <ele>50.3</ele>
        <time>2020-06-18T10:17:39Z</time>
      </trkpt>
      <trkpt lat="49.86554" lon="0.85428">
        <ele>50.3</ele>
        <time>2020-06-18T10:17:40Z</time>
      </trkpt>
      <trkpt lat="49.86554" lon="0.85437">
        <ele>50.3</ele>
        <time>2020-06-18T10:17:41Z</time>
      </trkpt>
      <trkpt lat="49.86555" lon="0.85445">
        <ele>50.3</ele>
        <time>2020-06-18T10:17:42Z</time>
      </trkpt>
      <trkpt lat="49.86555" lon="0.85454">
        <ele>50.3</ele>
        <time>2020-06-18T10:17:43Z</time>
      </trkpt>
      <trkpt lat="49.86555" lon="0.85464">
        <ele>50.4</ele>
        <time>2020-06-18T10:17:44Z</time>
      </trkpt>
      <trkpt lat="49.86555" lon="0.85472">
        <ele>50.5</ele>
        <time>2020-06-18T10:17:45Z</time>
      </trkpt>
      <trkpt lat="49.86555" lon="0.85481">
        <ele>50.5</ele>
        <time>2020-06-18T10:17:46Z</time>
      </trkpt>
      <trkpt lat="49.86554" lon="0.8549">
        <ele>50.5</ele>
        <time>2020-06-18T10:17:47Z</time>
      </trkpt>
      <trkpt lat="49.86554" lon="0.85498">
        <ele>50.5</ele>
        <time>2020-06-18T10:17:48Z</time>
      </trkpt>
      <trkpt lat="49.86553" lon="0.85506">
        <ele>50.4</ele>
        <time>2020-06-18T10:17:49Z</time>
      </trkpt>
      <trkpt lat="49.86553" lon="0.85515">
        <ele>50.4</ele>
        <time>2020-06-18T10:17:50Z</time>
      </trkpt>
      <trkpt lat="49.86553" lon="0.85526">
        <ele>50.3</ele>
        <time>2020-06-18T10:17:51Z</time>
      </trkpt>
      <trkpt lat="49.86553" lon="0.85537">
        <ele>50.3</ele>
        <time>2020-06-18T10:17:52Z</time>
      </trkpt>
      <trkpt lat="49.86552" lon="0.85546">
        <ele>50.2</ele>
        <time>2020-06-18T10:17:53Z</time>
      </trkpt>
      <trkpt lat="49.86552" lon="0.85554">
        <ele>50.2</ele>
        <time>2020-06-18T10:17:54Z</time>
      </trkpt>
      <trkpt lat="49.86552" lon="0.85564">
        <ele>50.2</ele>
        <time>2020-06-18T10:17:55Z</time>
      </trkpt>
      <trkpt lat="49.86551" lon="0.85573">
        <ele>50.2</ele>
        <time>2020-06-18T10:17:56Z</time>
      </trkpt>
      <trkpt lat="49.86551" lon="0.85583">
        <ele>50.7</ele>
        <time>2020-06-18T10:17:57Z</time>
      </trkpt>
      <trkpt lat="49.86552" lon="0.85592">
        <ele>51</ele>
        <time>2020-06-18T10:17:58Z</time>
      </trkpt>
      <trkpt lat="49.86552" lon="0.85603">
        <ele>51.1</ele>
        <time>2020-06-18T10:17:59Z</time>
      </trkpt>
      <trkpt lat="49.86553" lon="0.85615">
        <ele>51.1</ele>
        <time>2020-06-18T10:18:00Z</time>
      </trkpt>
      <trkpt lat="49.86552" lon="0.85626">
        <ele>51</ele>
        <time>2020-06-18T10:18:01Z</time>
      </trkpt>
      <trkpt lat="49.86552" lon="0.85636">
        <ele>50.9</ele>
        <time>2020-06-18T10:18:02Z</time>
      </trkpt>
      <trkpt lat="49.86552" lon="0.85646">
        <ele>50.9</ele>
        <time>2020-06-18T10:18:03Z</time>
      </trkpt>
      <trkpt lat="49.86552" lon="0.85656">
        <ele>50.8</ele>
        <time>2020-06-18T10:18:04Z</time>
      </trkpt>
      <trkpt lat="49.86553" lon="0.85666">
        <ele>50.8</ele>
        <time>2020-06-18T10:18:05Z</time>
      </trkpt>
      <trkpt lat="49.86553" lon="0.85675">
        <ele>50.8</ele>
        <time>2020-06-18T10:18:06Z</time>
      </trkpt>
      <trkpt lat="49.86553" lon="0.85685">
        <ele>50.7</ele>
        <time>2020-06-18T10:18:07Z</time>
      </trkpt>
      <trkpt lat="49.86553" lon="0.85696">
        <ele>50.7</ele>
        <time>2020-06-18T10:18:08Z</time>
      </trkpt>
      <trkpt lat="49.86552" lon="0.85705">
        <ele>50.7</ele>
        <time>2020-06-18T10:18:09Z</time>
      </trkpt>
      <trkpt lat="49.86552" lon="0.85716">
        <ele>50.7</ele>
        <time>2020-06-18T10:18:10Z</time>
      </trkpt>
      <trkpt lat="49.86551" lon="0.85727">
        <ele>50.7</ele>
        <time>2020-06-18T10:18:11Z</time>
      </trkpt>
      <trkpt lat="49.86551" lon="0.85737">
        <ele>50.7</ele>
        <time>2020-06-18T10:18:12Z</time>
      </trkpt>
      <trkpt lat="49.86551" lon="0.85748">
        <ele>50.7</ele>
        <time>2020-06-18T10:18:13Z</time>
      </trkpt>
      <trkpt lat="49.86551" lon="0.85758">
        <ele>50.6</ele>
        <time>2020-06-18T10:18:14Z</time>
      </trkpt>
      <trkpt lat="49.86551" lon="0.85769">
        <ele>50.6</ele>
        <time>2020-06-18T10:18:15Z</time>
      </trkpt>
      <trkpt lat="49.8655" lon="0.8578">
        <ele>50.6</ele>
        <time>2020-06-18T10:18:16Z</time>
      </trkpt>
      <trkpt lat="49.8655" lon="0.85791">
        <ele>50.6</ele>
        <time>2020-06-18T10:18:17Z</time>
      </trkpt>
      <trkpt lat="49.8655" lon="0.85804">
        <ele>50.5</ele>
        <time>2020-06-18T10:18:18Z</time>
      </trkpt>
      <trkpt lat="49.8655" lon="0.85815">
        <ele>50.5</ele>
        <time>2020-06-18T10:18:19Z</time>
      </trkpt>
      <trkpt lat="49.8655" lon="0.85826">
        <ele>50.4</ele>
        <time>2020-06-18T10:18:20Z</time>
      </trkpt>
      <trkpt lat="49.8655" lon="0.85837">
        <ele>50.2</ele>
        <time>2020-06-18T10:18:21Z</time>
      </trkpt>
      <trkpt lat="49.8655" lon="0.85848">
        <ele>50.1</ele>
        <time>2020-06-18T10:18:22Z</time>
      </trkpt>
      <trkpt lat="49.86549" lon="0.85858">
        <ele>50.1</ele>
        <time>2020-06-18T10:18:23Z</time>
      </trkpt>
      <trkpt lat="49.86549" lon="0.85869">
        <ele>50.1</ele>
        <time>2020-06-18T10:18:24Z</time>
      </trkpt>
      <trkpt lat="49.86548" lon="0.85879">
        <ele>50.1</ele>
        <time>2020-06-18T10:18:25Z</time>
      </trkpt>
      <trkpt lat="49.86548" lon="0.85889">
        <ele>50</ele>
        <time>2020-06-18T10:18:26Z</time>
      </trkpt>
      <trkpt lat="49.86548" lon="0.85899">
        <ele>50</ele>
        <time>2020-06-18T10:18:27Z</time>
      </trkpt>
      <trkpt lat="49.86548" lon="0.85908">
        <ele>50</ele>
        <time>2020-06-18T10:18:28Z</time>
      </trkpt>
      <trkpt lat="49.86549" lon="0.85917">
        <ele>50</ele>
        <time>2020-06-18T10:18:29Z</time>
      </trkpt>
      <trkpt lat="49.86549" lon="0.85927">
        <ele>49.9</ele>
        <time>2020-06-18T10:18:30Z</time>
      </trkpt>
      <trkpt lat="49.86549" lon="0.85938">
        <ele>49.9</ele>
        <time>2020-06-18T10:18:31Z</time>
      </trkpt>
      <trkpt lat="49.86548" lon="0.85948">
        <ele>49.8</ele>
        <time>2020-06-18T10:18:32Z</time>
      </trkpt>
      <trkpt lat="49.86549" lon="0.85959">
        <ele>49.8</ele>
        <time>2020-06-18T10:18:33Z</time>
      </trkpt>
      <trkpt lat="49.86548" lon="0.85969">
        <ele>49.7</ele>
        <time>2020-06-18T10:18:34Z</time>
      </trkpt>
      <trkpt lat="49.86548" lon="0.8598">
        <ele>49.7</ele>
        <time>2020-06-18T10:18:35Z</time>
      </trkpt>
      <trkpt lat="49.86548" lon="0.85991">
        <ele>49.6</ele>
        <time>2020-06-18T10:18:36Z</time>
      </trkpt>
      <trkpt lat="49.86548" lon="0.86003">
        <ele>49.5</ele>
        <time>2020-06-18T10:18:37Z</time>
      </trkpt>
      <trkpt lat="49.86548" lon="0.86014">
        <ele>49.3</ele>
        <time>2020-06-18T10:18:38Z</time>
      </trkpt>
      <trkpt lat="49.86548" lon="0.86026">
        <ele>49.3</ele>
        <time>2020-06-18T10:18:39Z</time>
      </trkpt>
      <trkpt lat="49.86548" lon="0.86037">
        <ele>49.2</ele>
        <time>2020-06-18T10:18:40Z</time>
      </trkpt>
      <trkpt lat="49.86548" lon="0.86049">
        <ele>49.2</ele>
        <time>2020-06-18T10:18:41Z</time>
      </trkpt>
      <trkpt lat="49.86548" lon="0.86061">
        <ele>49.2</ele>
        <time>2020-06-18T10:18:42Z</time>
      </trkpt>
      <trkpt lat="49.86548" lon="0.86073">
        <ele>49.2</ele>
        <time>2020-06-18T10:18:43Z</time>
      </trkpt>
      <trkpt lat="49.86548" lon="0.86085">
        <ele>49.3</ele>
        <time>2020-06-18T10:18:44Z</time>
      </trkpt>
      <trkpt lat="49.86548" lon="0.86097">
        <ele>49.3</ele>
        <time>2020-06-18T10:18:45Z</time>
      </trkpt>
      <trkpt lat="49.86548" lon="0.86108">
        <ele>49.4</ele>
        <time>2020-06-18T10:18:46Z</time>
      </trkpt>
      <trkpt lat="49.86548" lon="0.8612">
        <ele>49.6</ele>
        <time>2020-06-18T10:18:47Z</time>
      </trkpt>
      <trkpt lat="49.86547" lon="0.86131">
        <ele>49.7</ele>
        <time>2020-06-18T10:18:48Z</time>
      </trkpt>
      <trkpt lat="49.86547" lon="0.86143">
        <ele>49.8</ele>
        <time>2020-06-18T10:18:49Z</time>
      </trkpt>
      <trkpt lat="49.86547" lon="0.86154">
        <ele>49.9</ele>
        <time>2020-06-18T10:18:50Z</time>
      </trkpt>
      <trkpt lat="49.86546" lon="0.86165">
        <ele>49.9</ele>
        <time>2020-06-18T10:18:51Z</time>
      </trkpt>
      <trkpt lat="49.86546" lon="0.86176">
        <ele>49.9</ele>
        <time>2020-06-18T10:18:52Z</time>
      </trkpt>
      <trkpt lat="49.86546" lon="0.86187">
        <ele>50</ele>
        <time>2020-06-18T10:18:53Z</time>
      </trkpt>
      <trkpt lat="49.86546" lon="0.86198">
        <ele>50.1</ele>
        <time>2020-06-18T10:18:54Z</time>
      </trkpt>
      <trkpt lat="49.86546" lon="0.86209">
        <ele>50.2</ele>
        <time>2020-06-18T10:18:55Z</time>
      </trkpt>
      <trkpt lat="49.86545" lon="0.8622">
        <ele>50.2</ele>
        <time>2020-06-18T10:18:56Z</time>
      </trkpt>
      <trkpt lat="49.86545" lon="0.8623">
        <ele>50.1</ele>
        <time>2020-06-18T10:18:57Z</time>
      </trkpt>
      <trkpt lat="49.86545" lon="0.86241">
        <ele>49.9</ele>
        <time>2020-06-18T10:18:58Z</time>
      </trkpt>
      <trkpt lat="49.86545" lon="0.86251">
        <ele>50.9</ele>
        <time>2020-06-18T10:18:59Z</time>
      </trkpt>
      <trkpt lat="49.86545" lon="0.86261">
        <ele>51.6</ele>
        <time>2020-06-18T10:19:00Z</time>
      </trkpt>
      <trkpt lat="49.86545" lon="0.86272">
        <ele>52</ele>
        <time>2020-06-18T10:19:01Z</time>
      </trkpt>
      <trkpt lat="49.86544" lon="0.86282">
        <ele>52.2</ele>
        <time>2020-06-18T10:19:02Z</time>
      </trkpt>
      <trkpt lat="49.86545" lon="0.86291">
        <ele>52.2</ele>
        <time>2020-06-18T10:19:03Z</time>
      </trkpt>
      <trkpt lat="49.86544" lon="0.86301">
        <ele>52.2</ele>
        <time>2020-06-18T10:19:04Z</time>
      </trkpt>
      <trkpt lat="49.86544" lon="0.86311">
        <ele>52.3</ele>
        <time>2020-06-18T10:19:05Z</time>
      </trkpt>
      <trkpt lat="49.86544" lon="0.8632">
        <ele>52.4</ele>
        <time>2020-06-18T10:19:06Z</time>
      </trkpt>
      <trkpt lat="49.86544" lon="0.8633">
        <ele>52.6</ele>
        <time>2020-06-18T10:19:07Z</time>
      </trkpt>
      <trkpt lat="49.86544" lon="0.86339">
        <ele>52.8</ele>
        <time>2020-06-18T10:19:08Z</time>
      </trkpt>
      <trkpt lat="49.86544" lon="0.86349">
        <ele>53.1</ele>
        <time>2020-06-18T10:19:09Z</time>
      </trkpt>
      <trkpt lat="49.86544" lon="0.86358">
        <ele>53.3</ele>
        <time>2020-06-18T10:19:10Z</time>
      </trkpt>
      <trkpt lat="49.86543" lon="0.86367">
        <ele>53.5</ele>
        <time>2020-06-18T10:19:11Z</time>
      </trkpt>
      <trkpt lat="49.86543" lon="0.86376">
        <ele>53.5</ele>
        <time>2020-06-18T10:19:12Z</time>
      </trkpt>
      <trkpt lat="49.86544" lon="0.86385">
        <ele>53.6</ele>
        <time>2020-06-18T10:19:13Z</time>
      </trkpt>
      <trkpt lat="49.86543" lon="0.86393">
        <ele>53.7</ele>
        <time>2020-06-18T10:19:14Z</time>
      </trkpt>
      <trkpt lat="49.86543" lon="0.86401">
        <ele>53.8</ele>
        <time>2020-06-18T10:19:15Z</time>
      </trkpt>
      <trkpt lat="49.86543" lon="0.8641">
        <ele>53.9</ele>
        <time>2020-06-18T10:19:16Z</time>
      </trkpt>
      <trkpt lat="49.86543" lon="0.86418">
        <ele>54.1</ele>
        <time>2020-06-18T10:19:17Z</time>
      </trkpt>
      <trkpt lat="49.86544" lon="0.86426">
        <ele>54.3</ele>
        <time>2020-06-18T10:19:18Z</time>
      </trkpt>
      <trkpt lat="49.86544" lon="0.86435">
        <ele>54.5</ele>
        <time>2020-06-18T10:19:19Z</time>
      </trkpt>
      <trkpt lat="49.86544" lon="0.86443">
        <ele>54.7</ele>
        <time>2020-06-18T10:19:20Z</time>
      </trkpt>
      <trkpt lat="49.86543" lon="0.86451">
        <ele>54.9</ele>
        <time>2020-06-18T10:19:21Z</time>
      </trkpt>
      <trkpt lat="49.86543" lon="0.8646">
        <ele>55</ele>
        <time>2020-06-18T10:19:22Z</time>
      </trkpt>
      <trkpt lat="49.86543" lon="0.86467">
        <ele>55.1</ele>
        <time>2020-06-18T10:19:23Z</time>
      </trkpt>
      <trkpt lat="49.86542" lon="0.86475">
        <ele>55.2</ele>
        <time>2020-06-18T10:19:24Z</time>
      </trkpt>
      <trkpt lat="49.86542" lon="0.86483">
        <ele>55.4</ele>
        <time>2020-06-18T10:19:25Z</time>
      </trkpt>
      <trkpt lat="49.86542" lon="0.86491">
        <ele>55.5</ele>
        <time>2020-06-18T10:19:26Z</time>
      </trkpt>
      <trkpt lat="49.86542" lon="0.86499">
        <ele>55.6</ele>
        <time>2020-06-18T10:19:27Z</time>
      </trkpt>
      <trkpt lat="49.86542" lon="0.86508">
        <ele>55.7</ele>
        <time>2020-06-18T10:19:28Z</time>
      </trkpt>
      <trkpt lat="49.86543" lon="0.86516">
        <ele>55.8</ele>
        <time>2020-06-18T10:19:29Z</time>
      </trkpt>
      <trkpt lat="49.86542" lon="0.86525">
        <ele>55.9</ele>
        <time>2020-06-18T10:19:30Z</time>
      </trkpt>
      <trkpt lat="49.86541" lon="0.86534">
        <ele>56.1</ele>
        <time>2020-06-18T10:19:31Z</time>
      </trkpt>
      <trkpt lat="49.86541" lon="0.86542">
        <ele>56.2</ele>
        <time>2020-06-18T10:19:32Z</time>
      </trkpt>
      <trkpt lat="49.86541" lon="0.86551">
        <ele>56.3</ele>
        <time>2020-06-18T10:19:33Z</time>
      </trkpt>
      <trkpt lat="49.86541" lon="0.86559">
        <ele>56.3</ele>
        <time>2020-06-18T10:19:34Z</time>
      </trkpt>
      <trkpt lat="49.86541" lon="0.86569">
        <ele>56.4</ele>
        <time>2020-06-18T10:19:35Z</time>
      </trkpt>
      <trkpt lat="49.86539" lon="0.86577">
        <ele>56.4</ele>
        <time>2020-06-18T10:19:36Z</time>
      </trkpt>
      <trkpt lat="49.8654" lon="0.86586">
        <ele>56.5</ele>
        <time>2020-06-18T10:19:37Z</time>
      </trkpt>
      <trkpt lat="49.8654" lon="0.86595">
        <ele>56.6</ele>
        <time>2020-06-18T10:19:38Z</time>
      </trkpt>
      <trkpt lat="49.86539" lon="0.86603">
        <ele>56.6</ele>
        <time>2020-06-18T10:19:39Z</time>
      </trkpt>
      <trkpt lat="49.86539" lon="0.8661">
        <ele>56.7</ele>
        <time>2020-06-18T10:19:40Z</time>
      </trkpt>
      <trkpt lat="49.86538" lon="0.86619">
        <ele>56.9</ele>
        <time>2020-06-18T10:19:41Z</time>
      </trkpt>
      <trkpt lat="49.86539" lon="0.86627">
        <ele>57</ele>
        <time>2020-06-18T10:19:42Z</time>
      </trkpt>
      <trkpt lat="49.86539" lon="0.86635">
        <ele>57.2</ele>
        <time>2020-06-18T10:19:43Z</time>
      </trkpt>
      <trkpt lat="49.86539" lon="0.86644">
        <ele>57.3</ele>
        <time>2020-06-18T10:19:44Z</time>
      </trkpt>
      <trkpt lat="49.8654" lon="0.86653">
        <ele>57.3</ele>
        <time>2020-06-18T10:19:45Z</time>
      </trkpt>
      <trkpt lat="49.8654" lon="0.86662">
        <ele>57.4</ele>
        <time>2020-06-18T10:19:46Z</time>
      </trkpt>
      <trkpt lat="49.86541" lon="0.86668">
        <ele>57.4</ele>
        <time>2020-06-18T10:19:47Z</time>
      </trkpt>
      <trkpt lat="49.86541" lon="0.86677">
        <ele>57.4</ele>
        <time>2020-06-18T10:19:48Z</time>
      </trkpt>
      <trkpt lat="49.86541" lon="0.86685">
        <ele>57.6</ele>
        <time>2020-06-18T10:19:49Z</time>
      </trkpt>
      <trkpt lat="49.86542" lon="0.8669">
        <ele>57.7</ele>
        <time>2020-06-18T10:19:50Z</time>
      </trkpt>
      <trkpt lat="49.86541" lon="0.86699">
        <ele>57.8</ele>
        <time>2020-06-18T10:19:51Z</time>
      </trkpt>
      <trkpt lat="49.86541" lon="0.86705">
        <ele>57.9</ele>
        <time>2020-06-18T10:19:52Z</time>
      </trkpt>
      <trkpt lat="49.86541" lon="0.86712">
        <ele>58</ele>
        <time>2020-06-18T10:19:53Z</time>
      </trkpt>
      <trkpt lat="49.86541" lon="0.86721">
        <ele>58.1</ele>
        <time>2020-06-18T10:19:54Z</time>
      </trkpt>
      <trkpt lat="49.8654" lon="0.8673">
        <ele>58.2</ele>
        <time>2020-06-18T10:19:55Z</time>
      </trkpt>
      <trkpt lat="49.8654" lon="0.86739">
        <ele>58.2</ele>
        <time>2020-06-18T10:19:56Z</time>
      </trkpt>
      <trkpt lat="49.8654" lon="0.86749">
        <ele>58.4</ele>
        <time>2020-06-18T10:19:57Z</time>
      </trkpt>
      <trkpt lat="49.8654" lon="0.86756">
        <ele>58.5</ele>
        <time>2020-06-18T10:19:58Z</time>
      </trkpt>
      <trkpt lat="49.86541" lon="0.86766">
        <ele>58.6</ele>
        <time>2020-06-18T10:19:59Z</time>
      </trkpt>
      <trkpt lat="49.8654" lon="0.86777">
        <ele>58.7</ele>
        <time>2020-06-18T10:20:00Z</time>
      </trkpt>
      <trkpt lat="49.8654" lon="0.86786">
        <ele>58.8</ele>
        <time>2020-06-18T10:20:01Z</time>
      </trkpt>
      <trkpt lat="49.8654" lon="0.86795">
        <ele>58.9</ele>
        <time>2020-06-18T10:20:02Z</time>
      </trkpt>
      <trkpt lat="49.86541" lon="0.86805">
        <ele>59</ele>
        <time>2020-06-18T10:20:03Z</time>
      </trkpt>
      <trkpt lat="49.86541" lon="0.86813">
        <ele>59.1</ele>
        <time>2020-06-18T10:20:04Z</time>
      </trkpt>
      <trkpt lat="49.86541" lon="0.86821">
        <ele>59.2</ele>
        <time>2020-06-18T10:20:05Z</time>
      </trkpt>
      <trkpt lat="49.86541" lon="0.8683">
        <ele>59.2</ele>
        <time>2020-06-18T10:20:06Z</time>
      </trkpt>
      <trkpt lat="49.8654" lon="0.86838">
        <ele>59.2</ele>
        <time>2020-06-18T10:20:07Z</time>
      </trkpt>
      <trkpt lat="49.8654" lon="0.86849">
        <ele>59.2</ele>
        <time>2020-06-18T10:20:08Z</time>
      </trkpt>
      <trkpt lat="49.86539" lon="0.86858">
        <ele>59.2</ele>
        <time>2020-06-18T10:20:09Z</time>
      </trkpt>
      <trkpt lat="49.8654" lon="0.8687">
        <ele>59.3</ele>
        <time>2020-06-18T10:20:10Z</time>
      </trkpt>
      <trkpt lat="49.8654" lon="0.86877">
        <ele>59.4</ele>
        <time>2020-06-18T10:20:11Z</time>
      </trkpt>
      <trkpt lat="49.8654" lon="0.86887">
        <ele>59.4</ele>
        <time>2020-06-18T10:20:12Z</time>
      </trkpt>
      <trkpt lat="49.86539" lon="0.86898">
        <ele>59.5</ele>
        <time>2020-06-18T10:20:13Z</time>
      </trkpt>
      <trkpt lat="49.86539" lon="0.86908">
        <ele>59.5</ele>
        <time>2020-06-18T10:20:14Z</time>
      </trkpt>
      <trkpt lat="49.86539" lon="0.86918">
        <ele>59.6</ele>
        <time>2020-06-18T10:20:15Z</time>
      </trkpt>
      <trkpt lat="49.86539" lon="0.86926">
        <ele>59.6</ele>
        <time>2020-06-18T10:20:16Z</time>
      </trkpt>
      <trkpt lat="49.86539" lon="0.86934">
        <ele>59.6</ele>
        <time>2020-06-18T10:20:17Z</time>
      </trkpt>
      <trkpt lat="49.86538" lon="0.86942">
        <ele>59.7</ele>
        <time>2020-06-18T10:20:18Z</time>
      </trkpt>
      <trkpt lat="49.86539" lon="0.8695">
        <ele>59.8</ele>
        <time>2020-06-18T10:20:19Z</time>
      </trkpt>
      <trkpt lat="49.86539" lon="0.86957">
        <ele>59.8</ele>
        <time>2020-06-18T10:20:20Z</time>
      </trkpt>
      <trkpt lat="49.86539" lon="0.86967">
        <ele>59.9</ele>
        <time>2020-06-18T10:20:21Z</time>
      </trkpt>
      <trkpt lat="49.86538" lon="0.86977">
        <ele>59.9</ele>
        <time>2020-06-18T10:20:22Z</time>
      </trkpt>
      <trkpt lat="49.86538" lon="0.86988">
        <ele>59.9</ele>
        <time>2020-06-18T10:20:23Z</time>
      </trkpt>
      <trkpt lat="49.86537" lon="0.86998">
        <ele>59.8</ele>
        <time>2020-06-18T10:20:24Z</time>
      </trkpt>
      <trkpt lat="49.86537" lon="0.87007">
        <ele>59.8</ele>
        <time>2020-06-18T10:20:25Z</time>
      </trkpt>
      <trkpt lat="49.86537" lon="0.87014">
        <ele>59.8</ele>
        <time>2020-06-18T10:20:26Z</time>
      </trkpt>
      <trkpt lat="49.86536" lon="0.87023">
        <ele>59.8</ele>
        <time>2020-06-18T10:20:27Z</time>
      </trkpt>
      <trkpt lat="49.86537" lon="0.87032">
        <ele>59.9</ele>
        <time>2020-06-18T10:20:28Z</time>
      </trkpt>
      <trkpt lat="49.86537" lon="0.87042">
        <ele>60</ele>
        <time>2020-06-18T10:20:29Z</time>
      </trkpt>
      <trkpt lat="49.86537" lon="0.87051">
        <ele>60.1</ele>
        <time>2020-06-18T10:20:30Z</time>
      </trkpt>
      <trkpt lat="49.86537" lon="0.87062">
        <ele>60.1</ele>
        <time>2020-06-18T10:20:31Z</time>
      </trkpt>
      <trkpt lat="49.86536" lon="0.8707">
        <ele>60.1</ele>
        <time>2020-06-18T10:20:32Z</time>
      </trkpt>
      <trkpt lat="49.86536" lon="0.87078">
        <ele>60.1</ele>
        <time>2020-06-18T10:20:33Z</time>
      </trkpt>
      <trkpt lat="49.86535" lon="0.87087">
        <ele>60.1</ele>
        <time>2020-06-18T10:20:34Z</time>
      </trkpt>
      <trkpt lat="49.86535" lon="0.87098">
        <ele>60.1</ele>
        <time>2020-06-18T10:20:35Z</time>
      </trkpt>
      <trkpt lat="49.86535" lon="0.8711">
        <ele>60.1</ele>
        <time>2020-06-18T10:20:36Z</time>
      </trkpt>
      <trkpt lat="49.86535" lon="0.87121">
        <ele>60.1</ele>
        <time>2020-06-18T10:20:37Z</time>
      </trkpt>
      <trkpt lat="49.86535" lon="0.87131">
        <ele>60.1</ele>
        <time>2020-06-18T10:20:38Z</time>
      </trkpt>
      <trkpt lat="49.86536" lon="0.8714">
        <ele>60.1</ele>
        <time>2020-06-18T10:20:39Z</time>
      </trkpt>
      <trkpt lat="49.86535" lon="0.87151">
        <ele>60.2</ele>
        <time>2020-06-18T10:20:40Z</time>
      </trkpt>
      <trkpt lat="49.86535" lon="0.87161">
        <ele>60.2</ele>
        <time>2020-06-18T10:20:41Z</time>
      </trkpt>
      <trkpt lat="49.86535" lon="0.87172">
        <ele>60.2</ele>
        <time>2020-06-18T10:20:42Z</time>
      </trkpt>
      <trkpt lat="49.86535" lon="0.87183">
        <ele>60.1</ele>
        <time>2020-06-18T10:20:43Z</time>
      </trkpt>
      <trkpt lat="49.86535" lon="0.87192">
        <ele>60.1</ele>
        <time>2020-06-18T10:20:44Z</time>
      </trkpt>
      <trkpt lat="49.86535" lon="0.87202">
        <ele>60</ele>
        <time>2020-06-18T10:20:45Z</time>
      </trkpt>
      <trkpt lat="49.86535" lon="0.87211">
        <ele>60</ele>
        <time>2020-06-18T10:20:46Z</time>
      </trkpt>
      <trkpt lat="49.86535" lon="0.87221">
        <ele>60</ele>
        <time>2020-06-18T10:20:47Z</time>
      </trkpt>
      <trkpt lat="49.86534" lon="0.87231">
        <ele>59.9</ele>
        <time>2020-06-18T10:20:48Z</time>
      </trkpt>
      <trkpt lat="49.86534" lon="0.87241">
        <ele>59.8</ele>
        <time>2020-06-18T10:20:49Z</time>
      </trkpt>
      <trkpt lat="49.86534" lon="0.87251">
        <ele>59.7</ele>
        <time>2020-06-18T10:20:50Z</time>
      </trkpt>
      <trkpt lat="49.86534" lon="0.87261">
        <ele>59.5</ele>
        <time>2020-06-18T10:20:51Z</time>
      </trkpt>
      <trkpt lat="49.86534" lon="0.87271">
        <ele>59.4</ele>
        <time>2020-06-18T10:20:52Z</time>
      </trkpt>
      <trkpt lat="49.86534" lon="0.8728">
        <ele>59.2</ele>
        <time>2020-06-18T10:20:53Z</time>
      </trkpt>
      <trkpt lat="49.86534" lon="0.87289">
        <ele>59.1</ele>
        <time>2020-06-18T10:20:54Z</time>
      </trkpt>
      <trkpt lat="49.86534" lon="0.873">
        <ele>59</ele>
        <time>2020-06-18T10:20:55Z</time>
      </trkpt>
      <trkpt lat="49.86534" lon="0.87309">
        <ele>58.9</ele>
        <time>2020-06-18T10:20:56Z</time>
      </trkpt>
      <trkpt lat="49.86534" lon="0.8732">
        <ele>58.8</ele>
        <time>2020-06-18T10:20:57Z</time>
      </trkpt>
      <trkpt lat="49.86534" lon="0.87332">
        <ele>58.5</ele>
        <time>2020-06-18T10:20:58Z</time>
      </trkpt>
      <trkpt lat="49.86533" lon="0.87342">
        <ele>58.3</ele>
        <time>2020-06-18T10:20:59Z</time>
      </trkpt>
      <trkpt lat="49.86533" lon="0.87353">
        <ele>58.1</ele>
        <time>2020-06-18T10:21:00Z</time>
      </trkpt>
      <trkpt lat="49.86533" lon="0.87364">
        <ele>57.9</ele>
        <time>2020-06-18T10:21:01Z</time>
      </trkpt>
      <trkpt lat="49.86533" lon="0.87376">
        <ele>57.8</ele>
        <time>2020-06-18T10:21:02Z</time>
      </trkpt>
      <trkpt lat="49.86533" lon="0.87387">
        <ele>57.5</ele>
        <time>2020-06-18T10:21:03Z</time>
      </trkpt>
      <trkpt lat="49.86532" lon="0.87399">
        <ele>57.2</ele>
        <time>2020-06-18T10:21:04Z</time>
      </trkpt>
      <trkpt lat="49.86532" lon="0.87411">
        <ele>56.8</ele>
        <time>2020-06-18T10:21:05Z</time>
      </trkpt>
      <trkpt lat="49.86532" lon="0.87423">
        <ele>56.4</ele>
        <time>2020-06-18T10:21:06Z</time>
      </trkpt>
      <trkpt lat="49.86532" lon="0.87435">
        <ele>56</ele>
        <time>2020-06-18T10:21:07Z</time>
      </trkpt>
      <trkpt lat="49.86532" lon="0.87448">
        <ele>55.6</ele>
        <time>2020-06-18T10:21:08Z</time>
      </trkpt>
      <trkpt lat="49.86531" lon="0.8746">
        <ele>55.2</ele>
        <time>2020-06-18T10:21:09Z</time>
      </trkpt>
      <trkpt lat="49.86531" lon="0.87472">
        <ele>54.8</ele>
        <time>2020-06-18T10:21:10Z</time>
      </trkpt>
      <trkpt lat="49.86531" lon="0.87485">
        <ele>54.4</ele>
        <time>2020-06-18T10:21:11Z</time>
      </trkpt>
      <trkpt lat="49.86531" lon="0.87497">
        <ele>54</ele>
        <time>2020-06-18T10:21:12Z</time>
      </trkpt>
      <trkpt lat="49.86531" lon="0.8751">
        <ele>53.5</ele>
        <time>2020-06-18T10:21:13Z</time>
      </trkpt>
      <trkpt lat="49.8653" lon="0.87522">
        <ele>53.1</ele>
        <time>2020-06-18T10:21:14Z</time>
      </trkpt>
      <trkpt lat="49.8653" lon="0.87535">
        <ele>52.6</ele>
        <time>2020-06-18T10:21:15Z</time>
      </trkpt>
      <trkpt lat="49.8653" lon="0.87548">
        <ele>52.2</ele>
        <time>2020-06-18T10:21:16Z</time>
      </trkpt>
      <trkpt lat="49.8653" lon="0.8756">
        <ele>51.8</ele>
        <time>2020-06-18T10:21:17Z</time>
      </trkpt>
      <trkpt lat="49.8653" lon="0.87573">
        <ele>51.3</ele>
        <time>2020-06-18T10:21:18Z</time>
      </trkpt>
      <trkpt lat="49.8653" lon="0.87587">
        <ele>51</ele>
        <time>2020-06-18T10:21:19Z</time>
      </trkpt>
      <trkpt lat="49.8653" lon="0.876">
        <ele>50.5</ele>
        <time>2020-06-18T10:21:20Z</time>
      </trkpt>
      <trkpt lat="49.8653" lon="0.87614">
        <ele>50.1</ele>
        <time>2020-06-18T10:21:21Z</time>
      </trkpt>
      <trkpt lat="49.8653" lon="0.87627">
        <ele>49.7</ele>
        <time>2020-06-18T10:21:22Z</time>
      </trkpt>
      <trkpt lat="49.8653" lon="0.87641">
        <ele>49.2</ele>
        <time>2020-06-18T10:21:23Z</time>
      </trkpt>
      <trkpt lat="49.86531" lon="0.87654">
        <ele>48.8</ele>
        <time>2020-06-18T10:21:24Z</time>
      </trkpt>
      <trkpt lat="49.86531" lon="0.87668">
        <ele>48.4</ele>
        <time>2020-06-18T10:21:25Z</time>
      </trkpt>
      <trkpt lat="49.86532" lon="0.87682">
        <ele>48.1</ele>
        <time>2020-06-18T10:21:26Z</time>
      </trkpt>
      <trkpt lat="49.86534" lon="0.87696">
        <ele>47.8</ele>
        <time>2020-06-18T10:21:27Z</time>
      </trkpt>
      <trkpt lat="49.86535" lon="0.8771">
        <ele>47.3</ele>
        <time>2020-06-18T10:21:28Z</time>
      </trkpt>
      <trkpt lat="49.86537" lon="0.87724">
        <ele>46.8</ele>
        <time>2020-06-18T10:21:29Z</time>
      </trkpt>
      <trkpt lat="49.86539" lon="0.87738">
        <ele>46.4</ele>
        <time>2020-06-18T10:21:30Z</time>
      </trkpt>
      <trkpt lat="49.8654" lon="0.87753">
        <ele>46</ele>
        <time>2020-06-18T10:21:31Z</time>
      </trkpt>
      <trkpt lat="49.86542" lon="0.87767">
        <ele>45.6</ele>
        <time>2020-06-18T10:21:32Z</time>
      </trkpt>
      <trkpt lat="49.86543" lon="0.87782">
        <ele>45.2</ele>
        <time>2020-06-18T10:21:33Z</time>
      </trkpt>
      <trkpt lat="49.86545" lon="0.87796">
        <ele>44.7</ele>
        <time>2020-06-18T10:21:34Z</time>
      </trkpt>
      <trkpt lat="49.86546" lon="0.87811">
        <ele>44.2</ele>
        <time>2020-06-18T10:21:35Z</time>
      </trkpt>
      <trkpt lat="49.86548" lon="0.87825">
        <ele>43.8</ele>
        <time>2020-06-18T10:21:36Z</time>
      </trkpt>
      <trkpt lat="49.8655" lon="0.8784">
        <ele>43.3</ele>
        <time>2020-06-18T10:21:37Z</time>
      </trkpt>
      <trkpt lat="49.86552" lon="0.87855">
        <ele>42.8</ele>
        <time>2020-06-18T10:21:38Z</time>
      </trkpt>
      <trkpt lat="49.86553" lon="0.8787">
        <ele>42.3</ele>
        <time>2020-06-18T10:21:39Z</time>
      </trkpt>
      <trkpt lat="49.86555" lon="0.87885">
        <ele>41.8</ele>
        <time>2020-06-18T10:21:40Z</time>
      </trkpt>
      <trkpt lat="49.86557" lon="0.879">
        <ele>41.3</ele>
        <time>2020-06-18T10:21:41Z</time>
      </trkpt>
      <trkpt lat="49.86559" lon="0.87915">
        <ele>40.9</ele>
        <time>2020-06-18T10:21:42Z</time>
      </trkpt>
      <trkpt lat="49.8656" lon="0.8793">
        <ele>40.4</ele>
        <time>2020-06-18T10:21:43Z</time>
      </trkpt>
      <trkpt lat="49.86562" lon="0.87946">
        <ele>39.9</ele>
        <time>2020-06-18T10:21:44Z</time>
      </trkpt>
      <trkpt lat="49.86564" lon="0.87961">
        <ele>39.5</ele>
        <time>2020-06-18T10:21:45Z</time>
      </trkpt>
      <trkpt lat="49.86566" lon="0.87976">
        <ele>39.2</ele>
        <time>2020-06-18T10:21:46Z</time>
      </trkpt>
      <trkpt lat="49.86568" lon="0.87991">
        <ele>38.8</ele>
        <time>2020-06-18T10:21:47Z</time>
      </trkpt>
      <trkpt lat="49.86569" lon="0.88007">
        <ele>38.3</ele>
        <time>2020-06-18T10:21:48Z</time>
      </trkpt>
      <trkpt lat="49.86571" lon="0.88022">
        <ele>37.8</ele>
        <time>2020-06-18T10:21:49Z</time>
      </trkpt>
      <trkpt lat="49.86573" lon="0.88037">
        <ele>37.4</ele>
        <time>2020-06-18T10:21:50Z</time>
      </trkpt>
      <trkpt lat="49.86575" lon="0.88052">
        <ele>37</ele>
        <time>2020-06-18T10:21:51Z</time>
      </trkpt>
      <trkpt lat="49.86577" lon="0.88067">
        <ele>36.6</ele>
        <time>2020-06-18T10:21:52Z</time>
      </trkpt>
      <trkpt lat="49.86579" lon="0.88083">
        <ele>36.2</ele>
        <time>2020-06-18T10:21:53Z</time>
      </trkpt>
      <trkpt lat="49.8658" lon="0.88098">
        <ele>35.7</ele>
        <time>2020-06-18T10:21:54Z</time>
      </trkpt>
      <trkpt lat="49.86582" lon="0.88113">
        <ele>35.3</ele>
        <time>2020-06-18T10:21:55Z</time>
      </trkpt>
      <trkpt lat="49.86584" lon="0.88128">
        <ele>34.8</ele>
        <time>2020-06-18T10:21:56Z</time>
      </trkpt>
      <trkpt lat="49.86586" lon="0.88144">
        <ele>34.3</ele>
        <time>2020-06-18T10:21:57Z</time>
      </trkpt>
      <trkpt lat="49.86587" lon="0.88159">
        <ele>33.7</ele>
        <time>2020-06-18T10:21:58Z</time>
      </trkpt>
      <trkpt lat="49.86589" lon="0.88174">
        <ele>33.1</ele>
        <time>2020-06-18T10:21:59Z</time>
      </trkpt>
      <trkpt lat="49.8659" lon="0.88188">
        <ele>32.5</ele>
        <time>2020-06-18T10:22:00Z</time>
      </trkpt>
      <trkpt lat="49.86592" lon="0.88202">
        <ele>32.1</ele>
        <time>2020-06-18T10:22:01Z</time>
      </trkpt>
      <trkpt lat="49.86594" lon="0.88215">
        <ele>31.7</ele>
        <time>2020-06-18T10:22:02Z</time>
      </trkpt>
      <trkpt lat="49.86596" lon="0.88229">
        <ele>31.3</ele>
        <time>2020-06-18T10:22:03Z</time>
      </trkpt>
      <trkpt lat="49.86597" lon="0.88242">
        <ele>31</ele>
        <time>2020-06-18T10:22:04Z</time>
      </trkpt>
      <trkpt lat="49.86598" lon="0.88256">
        <ele>30.7</ele>
        <time>2020-06-18T10:22:05Z</time>
      </trkpt>
      <trkpt lat="49.86599" lon="0.88269">
        <ele>30.4</ele>
        <time>2020-06-18T10:22:06Z</time>
      </trkpt>
      <trkpt lat="49.866" lon="0.88282">
        <ele>30</ele>
        <time>2020-06-18T10:22:07Z</time>
      </trkpt>
      <trkpt lat="49.86601" lon="0.88295">
        <ele>29.7</ele>
        <time>2020-06-18T10:22:08Z</time>
      </trkpt>
      <trkpt lat="49.86603" lon="0.88308">
        <ele>29.5</ele>
        <time>2020-06-18T10:22:09Z</time>
      </trkpt>
      <trkpt lat="49.86604" lon="0.88321">
        <ele>29.2</ele>
        <time>2020-06-18T10:22:10Z</time>
      </trkpt>
      <trkpt lat="49.86606" lon="0.88334">
        <ele>28.8</ele>
        <time>2020-06-18T10:22:11Z</time>
      </trkpt>
      <trkpt lat="49.86607" lon="0.88347">
        <ele>28.4</ele>
        <time>2020-06-18T10:22:12Z</time>
      </trkpt>
      <trkpt lat="49.86608" lon="0.88361">
        <ele>27.9</ele>
        <time>2020-06-18T10:22:13Z</time>
      </trkpt>
      <trkpt lat="49.8661" lon="0.88374">
        <ele>27.4</ele>
        <time>2020-06-18T10:22:14Z</time>
      </trkpt>
      <trkpt lat="49.86611" lon="0.88388">
        <ele>26.9</ele>
        <time>2020-06-18T10:22:15Z</time>
      </trkpt>
      <trkpt lat="49.86613" lon="0.88402">
        <ele>26.5</ele>
        <time>2020-06-18T10:22:16Z</time>
      </trkpt>
      <trkpt lat="49.86613" lon="0.88416">
        <ele>26.1</ele>
        <time>2020-06-18T10:22:17Z</time>
      </trkpt>
      <trkpt lat="49.86613" lon="0.8843">
        <ele>25.7</ele>
        <time>2020-06-18T10:22:18Z</time>
      </trkpt>
      <trkpt lat="49.86612" lon="0.88443">
        <ele>25.5</ele>
        <time>2020-06-18T10:22:19Z</time>
      </trkpt>
      <trkpt lat="49.8661" lon="0.88457">
        <ele>24.9</ele>
        <time>2020-06-18T10:22:20Z</time>
      </trkpt>
      <trkpt lat="49.86607" lon="0.8847">
        <ele>24.3</ele>
        <time>2020-06-18T10:22:21Z</time>
      </trkpt>
      <trkpt lat="49.86604" lon="0.88483">
        <ele>23.7</ele>
        <time>2020-06-18T10:22:22Z</time>
      </trkpt>
      <trkpt lat="49.866" lon="0.88496">
        <ele>23.2</ele>
        <time>2020-06-18T10:22:23Z</time>
      </trkpt>
      <trkpt lat="49.86595" lon="0.88509">
        <ele>22.6</ele>
        <time>2020-06-18T10:22:24Z</time>
      </trkpt>
      <trkpt lat="49.8659" lon="0.88521">
        <ele>22</ele>
        <time>2020-06-18T10:22:25Z</time>
      </trkpt>
      <trkpt lat="49.86586" lon="0.88533">
        <ele>21.5</ele>
        <time>2020-06-18T10:22:26Z</time>
      </trkpt>
      <trkpt lat="49.86582" lon="0.88546">
        <ele>21</ele>
        <time>2020-06-18T10:22:27Z</time>
      </trkpt>
      <trkpt lat="49.86578" lon="0.88558">
        <ele>20.4</ele>
        <time>2020-06-18T10:22:28Z</time>
      </trkpt>
      <trkpt lat="49.86573" lon="0.8857">
        <ele>19.9</ele>
        <time>2020-06-18T10:22:29Z</time>
      </trkpt>
      <trkpt lat="49.86567" lon="0.88582">
        <ele>19.8</ele>
        <time>2020-06-18T10:22:30Z</time>
      </trkpt>
      <trkpt lat="49.86562" lon="0.88595">
        <ele>19.8</ele>
        <time>2020-06-18T10:22:31Z</time>
      </trkpt>
      <trkpt lat="49.86557" lon="0.88607">
        <ele>19.2</ele>
        <time>2020-06-18T10:22:32Z</time>
      </trkpt>
      <trkpt lat="49.86552" lon="0.8862">
        <ele>18.6</ele>
        <time>2020-06-18T10:22:33Z</time>
      </trkpt>
      <trkpt lat="49.86547" lon="0.88632">
        <ele>18.1</ele>
        <time>2020-06-18T10:22:34Z</time>
      </trkpt>
      <trkpt lat="49.86541" lon="0.88645">
        <ele>17.6</ele>
        <time>2020-06-18T10:22:35Z</time>
      </trkpt>
      <trkpt lat="49.86536" lon="0.88657">
        <ele>17.2</ele>
        <time>2020-06-18T10:22:36Z</time>
      </trkpt>
      <trkpt lat="49.8653" lon="0.88669">
        <ele>16.8</ele>
        <time>2020-06-18T10:22:37Z</time>
      </trkpt>
      <trkpt lat="49.86525" lon="0.88682">
        <ele>16.5</ele>
        <time>2020-06-18T10:22:38Z</time>
      </trkpt>
      <trkpt lat="49.86519" lon="0.88694">
        <ele>16.1</ele>
        <time>2020-06-18T10:22:39Z</time>
      </trkpt>
      <trkpt lat="49.86514" lon="0.88705">
        <ele>16.1</ele>
        <time>2020-06-18T10:22:40Z</time>
      </trkpt>
      <trkpt lat="49.86509" lon="0.88717">
        <ele>16</ele>
        <time>2020-06-18T10:22:41Z</time>
      </trkpt>
      <trkpt lat="49.86504" lon="0.88728">
        <ele>15.9</ele>
        <time>2020-06-18T10:22:42Z</time>
      </trkpt>
      <trkpt lat="49.865" lon="0.8874">
        <ele>15.9</ele>
        <time>2020-06-18T10:22:43Z</time>
      </trkpt>
      <trkpt lat="49.86497" lon="0.88752">
        <ele>16</ele>
        <time>2020-06-18T10:22:44Z</time>
      </trkpt>
      <trkpt lat="49.86496" lon="0.88764">
        <ele>16.1</ele>
        <time>2020-06-18T10:22:45Z</time>
      </trkpt>
      <trkpt lat="49.86496" lon="0.88775">
        <ele>16.3</ele>
        <time>2020-06-18T10:22:46Z</time>
      </trkpt>
      <trkpt lat="49.86496" lon="0.88786">
        <ele>16.8</ele>
        <time>2020-06-18T10:22:47Z</time>
      </trkpt>
      <trkpt lat="49.86496" lon="0.88796">
        <ele>17.3</ele>
        <time>2020-06-18T10:22:48Z</time>
      </trkpt>
      <trkpt lat="49.86496" lon="0.88806">
        <ele>17.7</ele>
        <time>2020-06-18T10:22:49Z</time>
      </trkpt>
      <trkpt lat="49.86497" lon="0.88816">
        <ele>18.2</ele>
        <time>2020-06-18T10:22:50Z</time>
      </trkpt>
      <trkpt lat="49.86497" lon="0.88824">
        <ele>18.6</ele>
        <time>2020-06-18T10:22:51Z</time>
      </trkpt>
      <trkpt lat="49.86498" lon="0.88833">
        <ele>19.1</ele>
        <time>2020-06-18T10:22:52Z</time>
      </trkpt>
      <trkpt lat="49.86498" lon="0.88841">
        <ele>19.6</ele>
        <time>2020-06-18T10:22:53Z</time>
      </trkpt>
      <trkpt lat="49.86497" lon="0.88849">
        <ele>20</ele>
        <time>2020-06-18T10:22:54Z</time>
      </trkpt>
      <trkpt lat="49.86497" lon="0.88856">
        <ele>20.5</ele>
        <time>2020-06-18T10:22:55Z</time>
      </trkpt>
      <trkpt lat="49.86497" lon="0.88863">
        <ele>21.2</ele>
        <time>2020-06-18T10:22:56Z</time>
      </trkpt>
      <trkpt lat="49.86496" lon="0.8887">
        <ele>21.3</ele>
        <time>2020-06-18T10:22:57Z</time>
      </trkpt>
      <trkpt lat="49.86496" lon="0.88877">
        <ele>21.3</ele>
        <time>2020-06-18T10:22:58Z</time>
      </trkpt>
      <trkpt lat="49.86496" lon="0.88884">
        <ele>21.3</ele>
        <time>2020-06-18T10:22:59Z</time>
      </trkpt>
      <trkpt lat="49.86496" lon="0.8889">
        <ele>21.3</ele>
        <time>2020-06-18T10:23:00Z</time>
      </trkpt>
      <trkpt lat="49.86496" lon="0.88896">
        <ele>21.6</ele>
        <time>2020-06-18T10:23:01Z</time>
      </trkpt>
      <trkpt lat="49.86496" lon="0.88901">
        <ele>21.8</ele>
        <time>2020-06-18T10:23:02Z</time>
      </trkpt>
      <trkpt lat="49.86495" lon="0.88906">
        <ele>21.9</ele>
        <time>2020-06-18T10:23:03Z</time>
      </trkpt>
      <trkpt lat="49.86496" lon="0.88912">
        <ele>22.1</ele>
        <time>2020-06-18T10:23:04Z</time>
      </trkpt>
      <trkpt lat="49.86496" lon="0.88917">
        <ele>22.2</ele>
        <time>2020-06-18T10:23:05Z</time>
      </trkpt>
      <trkpt lat="49.86496" lon="0.88923">
        <ele>22.4</ele>
        <time>2020-06-18T10:23:06Z</time>
      </trkpt>
      <trkpt lat="49.86497" lon="0.8893">
        <ele>22.5</ele>
        <time>2020-06-18T10:23:07Z</time>
      </trkpt>
      <trkpt lat="49.86497" lon="0.88936">
        <ele>22.7</ele>
        <time>2020-06-18T10:23:08Z</time>
      </trkpt>
      <trkpt lat="49.86497" lon="0.88942">
        <ele>22.9</ele>
        <time>2020-06-18T10:23:09Z</time>
      </trkpt>
      <trkpt lat="49.86497" lon="0.88949">
        <ele>23.1</ele>
        <time>2020-06-18T10:23:10Z</time>
      </trkpt>
      <trkpt lat="49.86498" lon="0.88955">
        <ele>23.3</ele>
        <time>2020-06-18T10:23:11Z</time>
      </trkpt>
      <trkpt lat="49.865" lon="0.8896">
        <ele>23.5</ele>
        <time>2020-06-18T10:23:12Z</time>
      </trkpt>
      <trkpt lat="49.86503" lon="0.88966">
        <ele>23.7</ele>
        <time>2020-06-18T10:23:13Z</time>
      </trkpt>
      <trkpt lat="49.86506" lon="0.8897">
        <ele>23.9</ele>
        <time>2020-06-18T10:23:14Z</time>
      </trkpt>
      <trkpt lat="49.8651" lon="0.88976">
        <ele>24.2</ele>
        <time>2020-06-18T10:23:15Z</time>
      </trkpt>
      <trkpt lat="49.86514" lon="0.88981">
        <ele>24.5</ele>
        <time>2020-06-18T10:23:16Z</time>
      </trkpt>
      <trkpt lat="49.86518" lon="0.88985">
        <ele>24.8</ele>
        <time>2020-06-18T10:23:17Z</time>
      </trkpt>
      <trkpt lat="49.86521" lon="0.8899">
        <ele>25</ele>
        <time>2020-06-18T10:23:18Z</time>
      </trkpt>
      <trkpt lat="49.86523" lon="0.88993">
        <ele>25.2</ele>
        <time>2020-06-18T10:23:19Z</time>
      </trkpt>
      <trkpt lat="49.86526" lon="0.88996">
        <ele>25.3</ele>
        <time>2020-06-18T10:23:20Z</time>
      </trkpt>
      <trkpt lat="49.86529" lon="0.88999">
        <ele>25.5</ele>
        <time>2020-06-18T10:23:21Z</time>
      </trkpt>
      <trkpt lat="49.86532" lon="0.89002">
        <ele>25.7</ele>
        <time>2020-06-18T10:23:22Z</time>
      </trkpt>
      <trkpt lat="49.86537" lon="0.89006">
        <ele>25.9</ele>
        <time>2020-06-18T10:23:23Z</time>
      </trkpt>
      <trkpt lat="49.86541" lon="0.89008">
        <ele>26.1</ele>
        <time>2020-06-18T10:23:24Z</time>
      </trkpt>
      <trkpt lat="49.86545" lon="0.89011">
        <ele>26.3</ele>
        <time>2020-06-18T10:23:25Z</time>
      </trkpt>
      <trkpt lat="49.86549" lon="0.89015">
        <ele>26.5</ele>
        <time>2020-06-18T10:23:26Z</time>
      </trkpt>
      <trkpt lat="49.86552" lon="0.89017">
        <ele>26.7</ele>
        <time>2020-06-18T10:23:27Z</time>
      </trkpt>
      <trkpt lat="49.86556" lon="0.8902">
        <ele>26.9</ele>
        <time>2020-06-18T10:23:28Z</time>
      </trkpt>
      <trkpt lat="49.8656" lon="0.89025">
        <ele>27.1</ele>
        <time>2020-06-18T10:23:29Z</time>
      </trkpt>
      <trkpt lat="49.86563" lon="0.89027">
        <ele>27.3</ele>
        <time>2020-06-18T10:23:30Z</time>
      </trkpt>
      <trkpt lat="49.86567" lon="0.8903">
        <ele>27.5</ele>
        <time>2020-06-18T10:23:31Z</time>
      </trkpt>
      <trkpt lat="49.8657" lon="0.89032">
        <ele>27.7</ele>
        <time>2020-06-18T10:23:32Z</time>
      </trkpt>
      <trkpt lat="49.86573" lon="0.89035">
        <ele>27.9</ele>
        <time>2020-06-18T10:23:33Z</time>
      </trkpt>
      <trkpt lat="49.86574" lon="0.89036">
        <ele>28</ele>
        <time>2020-06-18T10:23:34Z</time>
      </trkpt>
      <trkpt lat="49.86578" lon="0.89039">
        <ele>28.2</ele>
        <time>2020-06-18T10:23:35Z</time>
      </trkpt>
      <trkpt lat="49.86581" lon="0.89042">
        <ele>28.5</ele>
        <time>2020-06-18T10:23:36Z</time>
      </trkpt>
      <trkpt lat="49.86584" lon="0.89045">
        <ele>28.7</ele>
        <time>2020-06-18T10:23:37Z</time>
      </trkpt>
      <trkpt lat="49.86587" lon="0.89048">
        <ele>28.9</ele>
        <time>2020-06-18T10:23:38Z</time>
      </trkpt>
      <trkpt lat="49.8659" lon="0.89051">
        <ele>29.1</ele>
        <time>2020-06-18T10:23:39Z</time>
      </trkpt>
      <trkpt lat="49.86594" lon="0.89052">
        <ele>29.3</ele>
        <time>2020-06-18T10:23:40Z</time>
      </trkpt>
      <trkpt lat="49.86597" lon="0.89055">
        <ele>29.5</ele>
        <time>2020-06-18T10:23:41Z</time>
      </trkpt>
      <trkpt lat="49.866" lon="0.89056">
        <ele>29.6</ele>
        <time>2020-06-18T10:23:42Z</time>
      </trkpt>
      <trkpt lat="49.86603" lon="0.89058">
        <ele>29.8</ele>
        <time>2020-06-18T10:23:43Z</time>
      </trkpt>
      <trkpt lat="49.86606" lon="0.8906">
        <ele>30</ele>
        <time>2020-06-18T10:23:44Z</time>
      </trkpt>
      <trkpt lat="49.86609" lon="0.89061">
        <ele>30.2</ele>
        <time>2020-06-18T10:23:45Z</time>
      </trkpt>
      <trkpt lat="49.86613" lon="0.89065">
        <ele>30.4</ele>
        <time>2020-06-18T10:23:46Z</time>
      </trkpt>
      <trkpt lat="49.86615" lon="0.89067">
        <ele>30.6</ele>
        <time>2020-06-18T10:23:47Z</time>
      </trkpt>
      <trkpt lat="49.86619" lon="0.89069">
        <ele>30.8</ele>
        <time>2020-06-18T10:23:48Z</time>
      </trkpt>
      <trkpt lat="49.86622" lon="0.8907">
        <ele>31</ele>
        <time>2020-06-18T10:23:49Z</time>
      </trkpt>
      <trkpt lat="49.86626" lon="0.89074">
        <ele>31.3</ele>
        <time>2020-06-18T10:23:50Z</time>
      </trkpt>
      <trkpt lat="49.86628" lon="0.89075">
        <ele>31.4</ele>
        <time>2020-06-18T10:23:51Z</time>
      </trkpt>
      <trkpt lat="49.86632" lon="0.89077">
        <ele>31.7</ele>
        <time>2020-06-18T10:23:52Z</time>
      </trkpt>
      <trkpt lat="49.86635" lon="0.8908">
        <ele>31.9</ele>
        <time>2020-06-18T10:23:53Z</time>
      </trkpt>
      <trkpt lat="49.86638" lon="0.89082">
        <ele>32.1</ele>
        <time>2020-06-18T10:23:54Z</time>
      </trkpt>
      <trkpt lat="49.86641" lon="0.89084">
        <ele>32.4</ele>
        <time>2020-06-18T10:23:55Z</time>
      </trkpt>
      <trkpt lat="49.86644" lon="0.89087">
        <ele>32.6</ele>
        <time>2020-06-18T10:23:56Z</time>
      </trkpt>
      <trkpt lat="49.86647" lon="0.89089">
        <ele>32.8</ele>
        <time>2020-06-18T10:23:57Z</time>
      </trkpt>
      <trkpt lat="49.8665" lon="0.89092">
        <ele>33.1</ele>
        <time>2020-06-18T10:23:58Z</time>
      </trkpt>
      <trkpt lat="49.86653" lon="0.89093">
        <ele>33.3</ele>
        <time>2020-06-18T10:23:59Z</time>
      </trkpt>
      <trkpt lat="49.86657" lon="0.89096">
        <ele>33.5</ele>
        <time>2020-06-18T10:24:00Z</time>
      </trkpt>
      <trkpt lat="49.86659" lon="0.89098">
        <ele>33.6</ele>
        <time>2020-06-18T10:24:01Z</time>
      </trkpt>
      <trkpt lat="49.86662" lon="0.891">
        <ele>33.8</ele>
        <time>2020-06-18T10:24:02Z</time>
      </trkpt>
      <trkpt lat="49.86665" lon="0.89102">
        <ele>34</ele>
        <time>2020-06-18T10:24:03Z</time>
      </trkpt>
      <trkpt lat="49.86667" lon="0.89103">
        <ele>34.1</ele>
        <time>2020-06-18T10:24:04Z</time>
      </trkpt>
      <trkpt lat="49.8667" lon="0.89105">
        <ele>34.3</ele>
        <time>2020-06-18T10:24:05Z</time>
      </trkpt>
      <trkpt lat="49.86673" lon="0.89107">
        <ele>34.4</ele>
        <time>2020-06-18T10:24:06Z</time>
      </trkpt>
      <trkpt lat="49.86677" lon="0.8911">
        <ele>34.6</ele>
        <time>2020-06-18T10:24:07Z</time>
      </trkpt>
      <trkpt lat="49.86678" lon="0.89111">
        <ele>34.7</ele>
        <time>2020-06-18T10:24:08Z</time>
      </trkpt>
      <trkpt lat="49.86681" lon="0.89115">
        <ele>34.8</ele>
        <time>2020-06-18T10:24:09Z</time>
      </trkpt>
      <trkpt lat="49.86685" lon="0.89118">
        <ele>35</ele>
        <time>2020-06-18T10:24:10Z</time>
      </trkpt>
      <trkpt lat="49.86688" lon="0.89123">
        <ele>35.3</ele>
        <time>2020-06-18T10:24:11Z</time>
      </trkpt>
      <trkpt lat="49.86693" lon="0.89127">
        <ele>35.9</ele>
        <time>2020-06-18T10:24:12Z</time>
      </trkpt>
      <trkpt lat="49.86695" lon="0.8913">
        <ele>36.3</ele>
        <time>2020-06-18T10:24:13Z</time>
      </trkpt>
      <trkpt lat="49.86698" lon="0.89132">
        <ele>36.6</ele>
        <time>2020-06-18T10:24:14Z</time>
      </trkpt>
      <trkpt lat="49.86701" lon="0.89135">
        <ele>36.8</ele>
        <time>2020-06-18T10:24:15Z</time>
      </trkpt>
      <trkpt lat="49.86702" lon="0.89139">
        <ele>37.1</ele>
        <time>2020-06-18T10:24:16Z</time>
      </trkpt>
      <trkpt lat="49.86704" lon="0.89143">
        <ele>37.2</ele>
        <time>2020-06-18T10:24:17Z</time>
      </trkpt>
      <trkpt lat="49.86706" lon="0.89148">
        <ele>37.4</ele>
        <time>2020-06-18T10:24:18Z</time>
      </trkpt>
      <trkpt lat="49.86708" lon="0.89152">
        <ele>37.5</ele>
        <time>2020-06-18T10:24:19Z</time>
      </trkpt>
      <trkpt lat="49.8671" lon="0.89158">
        <ele>37.7</ele>
        <time>2020-06-18T10:24:20Z</time>
      </trkpt>
      <trkpt lat="49.86711" lon="0.89164">
        <ele>37.8</ele>
        <time>2020-06-18T10:24:21Z</time>
      </trkpt>
      <trkpt lat="49.86713" lon="0.89169">
        <ele>38</ele>
        <time>2020-06-18T10:24:22Z</time>
      </trkpt>
      <trkpt lat="49.86714" lon="0.89174">
        <ele>38.1</ele>
        <time>2020-06-18T10:24:23Z</time>
      </trkpt>
      <trkpt lat="49.86716" lon="0.8918">
        <ele>38.3</ele>
        <time>2020-06-18T10:24:24Z</time>
      </trkpt>
      <trkpt lat="49.86716" lon="0.89184">
        <ele>38.4</ele>
        <time>2020-06-18T10:24:25Z</time>
      </trkpt>
      <trkpt lat="49.86717" lon="0.89192">
        <ele>38.5</ele>
        <time>2020-06-18T10:24:26Z</time>
      </trkpt>
      <trkpt lat="49.86718" lon="0.89197">
        <ele>38.7</ele>
        <time>2020-06-18T10:24:27Z</time>
      </trkpt>
      <trkpt lat="49.86718" lon="0.89202">
        <ele>38.7</ele>
        <time>2020-06-18T10:24:28Z</time>
      </trkpt>
      <trkpt lat="49.86719" lon="0.89206">
        <ele>38.8</ele>
        <time>2020-06-18T10:24:29Z</time>
      </trkpt>
      <trkpt lat="49.86719" lon="0.89212">
        <ele>38.9</ele>
        <time>2020-06-18T10:24:30Z</time>
      </trkpt>
      <trkpt lat="49.8672" lon="0.89219">
        <ele>39</ele>
        <time>2020-06-18T10:24:31Z</time>
      </trkpt>
      <trkpt lat="49.86721" lon="0.89225">
        <ele>39.1</ele>
        <time>2020-06-18T10:24:32Z</time>
      </trkpt>
      <trkpt lat="49.86722" lon="0.89232">
        <ele>39.2</ele>
        <time>2020-06-18T10:24:33Z</time>
      </trkpt>
      <trkpt lat="49.86722" lon="0.89238">
        <ele>39.3</ele>
        <time>2020-06-18T10:24:34Z</time>
      </trkpt>
      <trkpt lat="49.86723" lon="0.89244">
        <ele>39.3</ele>
        <time>2020-06-18T10:24:35Z</time>
      </trkpt>
      <trkpt lat="49.86724" lon="0.8925">
        <ele>39.4</ele>
        <time>2020-06-18T10:24:36Z</time>
      </trkpt>
      <trkpt lat="49.86724" lon="0.89255">
        <ele>39.6</ele>
        <time>2020-06-18T10:24:37Z</time>
      </trkpt>
      <trkpt lat="49.86724" lon="0.89262">
        <ele>39.7</ele>
        <time>2020-06-18T10:24:38Z</time>
      </trkpt>
      <trkpt lat="49.86724" lon="0.89267">
        <ele>39.8</ele>
        <time>2020-06-18T10:24:39Z</time>
      </trkpt>
      <trkpt lat="49.86725" lon="0.89273">
        <ele>40</ele>
        <time>2020-06-18T10:24:40Z</time>
      </trkpt>
      <trkpt lat="49.86725" lon="0.89278">
        <ele>40.1</ele>
        <time>2020-06-18T10:24:41Z</time>
      </trkpt>
      <trkpt lat="49.86726" lon="0.89283">
        <ele>40.2</ele>
        <time>2020-06-18T10:24:42Z</time>
      </trkpt>
      <trkpt lat="49.86726" lon="0.89288">
        <ele>40.3</ele>
        <time>2020-06-18T10:24:43Z</time>
      </trkpt>
      <trkpt lat="49.86727" lon="0.89294">
        <ele>40.5</ele>
        <time>2020-06-18T10:24:44Z</time>
      </trkpt>
      <trkpt lat="49.86728" lon="0.89299">
        <ele>40.6</ele>
        <time>2020-06-18T10:24:45Z</time>
      </trkpt>
      <trkpt lat="49.86728" lon="0.89306">
        <ele>40.7</ele>
        <time>2020-06-18T10:24:46Z</time>
      </trkpt>
      <trkpt lat="49.86729" lon="0.89312">
        <ele>40.9</ele>
        <time>2020-06-18T10:24:47Z</time>
      </trkpt>
      <trkpt lat="49.8673" lon="0.89318">
        <ele>41</ele>
        <time>2020-06-18T10:24:48Z</time>
      </trkpt>
      <trkpt lat="49.8673" lon="0.89324">
        <ele>41.1</ele>
        <time>2020-06-18T10:24:49Z</time>
      </trkpt>
      <trkpt lat="49.86732" lon="0.89328">
        <ele>41.1</ele>
        <time>2020-06-18T10:24:50Z</time>
      </trkpt>
      <trkpt lat="49.86732" lon="0.8933">
        <ele>41.2</ele>
        <time>2020-06-18T10:24:51Z</time>
      </trkpt>
      <trkpt lat="49.86732" lon="0.89336">
        <ele>41.3</ele>
        <time>2020-06-18T10:24:52Z</time>
      </trkpt>
      <trkpt lat="49.86733" lon="0.89343">
        <ele>41.4</ele>
        <time>2020-06-18T10:24:53Z</time>
      </trkpt>
      <trkpt lat="49.86733" lon="0.89349">
        <ele>41.5</ele>
        <time>2020-06-18T10:24:54Z</time>
      </trkpt>
      <trkpt lat="49.86733" lon="0.89354">
        <ele>41.6</ele>
        <time>2020-06-18T10:24:55Z</time>
      </trkpt>
      <trkpt lat="49.86735" lon="0.89361">
        <ele>41.7</ele>
        <time>2020-06-18T10:24:56Z</time>
      </trkpt>
      <trkpt lat="49.86735" lon="0.89367">
        <ele>41.8</ele>
        <time>2020-06-18T10:24:57Z</time>
      </trkpt>
      <trkpt lat="49.86735" lon="0.89374">
        <ele>42</ele>
        <time>2020-06-18T10:24:58Z</time>
      </trkpt>
      <trkpt lat="49.86735" lon="0.89381">
        <ele>42.1</ele>
        <time>2020-06-18T10:24:59Z</time>
      </trkpt>
      <trkpt lat="49.86735" lon="0.89389">
        <ele>42.3</ele>
        <time>2020-06-18T10:25:00Z</time>
      </trkpt>
      <trkpt lat="49.86736" lon="0.89397">
        <ele>42.4</ele>
        <time>2020-06-18T10:25:01Z</time>
      </trkpt>
      <trkpt lat="49.86737" lon="0.89406">
        <ele>42.6</ele>
        <time>2020-06-18T10:25:02Z</time>
      </trkpt>
      <trkpt lat="49.86737" lon="0.89414">
        <ele>42.7</ele>
        <time>2020-06-18T10:25:03Z</time>
      </trkpt>
      <trkpt lat="49.86738" lon="0.89422">
        <ele>42.7</ele>
        <time>2020-06-18T10:25:04Z</time>
      </trkpt>
      <trkpt lat="49.86738" lon="0.8943">
        <ele>42.8</ele>
        <time>2020-06-18T10:25:05Z</time>
      </trkpt>
      <trkpt lat="49.86739" lon="0.89436">
        <ele>42.9</ele>
        <time>2020-06-18T10:25:06Z</time>
      </trkpt>
      <trkpt lat="49.8674" lon="0.89443">
        <ele>42.9</ele>
        <time>2020-06-18T10:25:07Z</time>
      </trkpt>
      <trkpt lat="49.86741" lon="0.89452">
        <ele>43.1</ele>
        <time>2020-06-18T10:25:08Z</time>
      </trkpt>
      <trkpt lat="49.86742" lon="0.8946">
        <ele>43.2</ele>
        <time>2020-06-18T10:25:09Z</time>
      </trkpt>
      <trkpt lat="49.86743" lon="0.89467">
        <ele>43.5</ele>
        <time>2020-06-18T10:25:10Z</time>
      </trkpt>
      <trkpt lat="49.86744" lon="0.89474">
        <ele>43.6</ele>
        <time>2020-06-18T10:25:11Z</time>
      </trkpt>
      <trkpt lat="49.86746" lon="0.89481">
        <ele>43.8</ele>
        <time>2020-06-18T10:25:12Z</time>
      </trkpt>
      <trkpt lat="49.86747" lon="0.89489">
        <ele>43.9</ele>
        <time>2020-06-18T10:25:13Z</time>
      </trkpt>
      <trkpt lat="49.86746" lon="0.89494">
        <ele>44</ele>
        <time>2020-06-18T10:25:14Z</time>
      </trkpt>
      <trkpt lat="49.86747" lon="0.895">
        <ele>44</ele>
        <time>2020-06-18T10:25:15Z</time>
      </trkpt>
      <trkpt lat="49.86748" lon="0.89505">
        <ele>44.1</ele>
        <time>2020-06-18T10:25:16Z</time>
      </trkpt>
      <trkpt lat="49.86748" lon="0.89512">
        <ele>44.2</ele>
        <time>2020-06-18T10:25:17Z</time>
      </trkpt>
      <trkpt lat="49.86749" lon="0.89519">
        <ele>44.3</ele>
        <time>2020-06-18T10:25:18Z</time>
      </trkpt>
      <trkpt lat="49.86749" lon="0.89527">
        <ele>44.4</ele>
        <time>2020-06-18T10:25:19Z</time>
      </trkpt>
      <trkpt lat="49.8675" lon="0.89535">
        <ele>44.6</ele>
        <time>2020-06-18T10:25:20Z</time>
      </trkpt>
      <trkpt lat="49.8675" lon="0.89538">
        <ele>44.6</ele>
        <time>2020-06-18T10:25:21Z</time>
      </trkpt>
      <trkpt lat="49.86751" lon="0.89544">
        <ele>44.7</ele>
        <time>2020-06-18T10:25:22Z</time>
      </trkpt>
      <trkpt lat="49.86753" lon="0.89551">
        <ele>44.9</ele>
        <time>2020-06-18T10:25:23Z</time>
      </trkpt>
      <trkpt lat="49.86754" lon="0.89559">
        <ele>45</ele>
        <time>2020-06-18T10:25:24Z</time>
      </trkpt>
      <trkpt lat="49.86755" lon="0.89566">
        <ele>45.2</ele>
        <time>2020-06-18T10:25:25Z</time>
      </trkpt>
      <trkpt lat="49.86755" lon="0.89574">
        <ele>45.4</ele>
        <time>2020-06-18T10:25:26Z</time>
      </trkpt>
      <trkpt lat="49.86757" lon="0.89581">
        <ele>45.5</ele>
        <time>2020-06-18T10:25:27Z</time>
      </trkpt>
      <trkpt lat="49.86757" lon="0.89588">
        <ele>45.7</ele>
        <time>2020-06-18T10:25:28Z</time>
      </trkpt>
      <trkpt lat="49.86757" lon="0.89595">
        <ele>45.7</ele>
        <time>2020-06-18T10:25:29Z</time>
      </trkpt>
      <trkpt lat="49.86758" lon="0.896">
        <ele>45.8</ele>
        <time>2020-06-18T10:25:30Z</time>
      </trkpt>
      <trkpt lat="49.86758" lon="0.89608">
        <ele>46</ele>
        <time>2020-06-18T10:25:31Z</time>
      </trkpt>
      <trkpt lat="49.86759" lon="0.89614">
        <ele>46.1</ele>
        <time>2020-06-18T10:25:32Z</time>
      </trkpt>
      <trkpt lat="49.8676" lon="0.89622">
        <ele>46.2</ele>
        <time>2020-06-18T10:25:33Z</time>
      </trkpt>
      <trkpt lat="49.8676" lon="0.8963">
        <ele>46.4</ele>
        <time>2020-06-18T10:25:34Z</time>
      </trkpt>
      <trkpt lat="49.86761" lon="0.89638">
        <ele>46.5</ele>
        <time>2020-06-18T10:25:35Z</time>
      </trkpt>
      <trkpt lat="49.86762" lon="0.89645">
        <ele>46.6</ele>
        <time>2020-06-18T10:25:36Z</time>
      </trkpt>
      <trkpt lat="49.86762" lon="0.89651">
        <ele>46.7</ele>
        <time>2020-06-18T10:25:37Z</time>
      </trkpt>
      <trkpt lat="49.86763" lon="0.89658">
        <ele>46.8</ele>
        <time>2020-06-18T10:25:38Z</time>
      </trkpt>
      <trkpt lat="49.86763" lon="0.89663">
        <ele>46.9</ele>
        <time>2020-06-18T10:25:39Z</time>
      </trkpt>
      <trkpt lat="49.86764" lon="0.89672">
        <ele>47</ele>
        <time>2020-06-18T10:25:40Z</time>
      </trkpt>
      <trkpt lat="49.86765" lon="0.89678">
        <ele>47.1</ele>
        <time>2020-06-18T10:25:41Z</time>
      </trkpt>
      <trkpt lat="49.86766" lon="0.89686">
        <ele>47.3</ele>
        <time>2020-06-18T10:25:42Z</time>
      </trkpt>
      <trkpt lat="49.86768" lon="0.89692">
        <ele>47.4</ele>
        <time>2020-06-18T10:25:43Z</time>
      </trkpt>
      <trkpt lat="49.86769" lon="0.89699">
        <ele>47.5</ele>
        <time>2020-06-18T10:25:44Z</time>
      </trkpt>
      <trkpt lat="49.86769" lon="0.89707">
        <ele>47.6</ele>
        <time>2020-06-18T10:25:45Z</time>
      </trkpt>
      <trkpt lat="49.8677" lon="0.89714">
        <ele>47.7</ele>
        <time>2020-06-18T10:25:46Z</time>
      </trkpt>
      <trkpt lat="49.86771" lon="0.89721">
        <ele>47.8</ele>
        <time>2020-06-18T10:25:47Z</time>
      </trkpt>
      <trkpt lat="49.86772" lon="0.89729">
        <ele>47.9</ele>
        <time>2020-06-18T10:25:48Z</time>
      </trkpt>
      <trkpt lat="49.86773" lon="0.89736">
        <ele>48</ele>
        <time>2020-06-18T10:25:49Z</time>
      </trkpt>
      <trkpt lat="49.86774" lon="0.89743">
        <ele>48.1</ele>
        <time>2020-06-18T10:25:50Z</time>
      </trkpt>
      <trkpt lat="49.86774" lon="0.89749">
        <ele>48.1</ele>
        <time>2020-06-18T10:25:51Z</time>
      </trkpt>
      <trkpt lat="49.86775" lon="0.89756">
        <ele>48.2</ele>
        <time>2020-06-18T10:25:52Z</time>
      </trkpt>
      <trkpt lat="49.86775" lon="0.89763">
        <ele>48.3</ele>
        <time>2020-06-18T10:25:53Z</time>
      </trkpt>
      <trkpt lat="49.86776" lon="0.89769">
        <ele>48.4</ele>
        <time>2020-06-18T10:25:54Z</time>
      </trkpt>
      <trkpt lat="49.86777" lon="0.89778">
        <ele>48.6</ele>
        <time>2020-06-18T10:25:55Z</time>
      </trkpt>
      <trkpt lat="49.86778" lon="0.89787">
        <ele>48.7</ele>
        <time>2020-06-18T10:25:56Z</time>
      </trkpt>
      <trkpt lat="49.86779" lon="0.89795">
        <ele>48.8</ele>
        <time>2020-06-18T10:25:57Z</time>
      </trkpt>
      <trkpt lat="49.8678" lon="0.89801">
        <ele>48.9</ele>
        <time>2020-06-18T10:25:58Z</time>
      </trkpt>
      <trkpt lat="49.86781" lon="0.89808">
        <ele>48.9</ele>
        <time>2020-06-18T10:25:59Z</time>
      </trkpt>
      <trkpt lat="49.86781" lon="0.89815">
        <ele>49</ele>
        <time>2020-06-18T10:26:00Z</time>
      </trkpt>
      <trkpt lat="49.86781" lon="0.89821">
        <ele>49</ele>
        <time>2020-06-18T10:26:01Z</time>
      </trkpt>
      <trkpt lat="49.86782" lon="0.89828">
        <ele>49.1</ele>
        <time>2020-06-18T10:26:02Z</time>
      </trkpt>
      <trkpt lat="49.86782" lon="0.89836">
        <ele>49.1</ele>
        <time>2020-06-18T10:26:03Z</time>
      </trkpt>
      <trkpt lat="49.86783" lon="0.89842">
        <ele>49.1</ele>
        <time>2020-06-18T10:26:04Z</time>
      </trkpt>
      <trkpt lat="49.86785" lon="0.89847">
        <ele>49.1</ele>
        <time>2020-06-18T10:26:05Z</time>
      </trkpt>
      <trkpt lat="49.86786" lon="0.89854">
        <ele>49.1</ele>
        <time>2020-06-18T10:26:06Z</time>
      </trkpt>
      <trkpt lat="49.86788" lon="0.89861">
        <ele>49</ele>
        <time>2020-06-18T10:26:07Z</time>
      </trkpt>
      <trkpt lat="49.86789" lon="0.89868">
        <ele>49</ele>
        <time>2020-06-18T10:26:08Z</time>
      </trkpt>
      <trkpt lat="49.8679" lon="0.89876">
        <ele>49</ele>
        <time>2020-06-18T10:26:09Z</time>
      </trkpt>
      <trkpt lat="49.86791" lon="0.89885">
        <ele>48.9</ele>
        <time>2020-06-18T10:26:10Z</time>
      </trkpt>
      <trkpt lat="49.86792" lon="0.89893">
        <ele>48.9</ele>
        <time>2020-06-18T10:26:11Z</time>
      </trkpt>
      <trkpt lat="49.86794" lon="0.89901">
        <ele>48.8</ele>
        <time>2020-06-18T10:26:12Z</time>
      </trkpt>
      <trkpt lat="49.86793" lon="0.89909">
        <ele>48.8</ele>
        <time>2020-06-18T10:26:13Z</time>
      </trkpt>
      <trkpt lat="49.86795" lon="0.89915">
        <ele>48.7</ele>
        <time>2020-06-18T10:26:14Z</time>
      </trkpt>
      <trkpt lat="49.86796" lon="0.89924">
        <ele>48.6</ele>
        <time>2020-06-18T10:26:15Z</time>
      </trkpt>
      <trkpt lat="49.86799" lon="0.89934">
        <ele>48.4</ele>
        <time>2020-06-18T10:26:16Z</time>
      </trkpt>
      <trkpt lat="49.868" lon="0.89944">
        <ele>48.7</ele>
        <time>2020-06-18T10:26:17Z</time>
      </trkpt>
      <trkpt lat="49.86802" lon="0.89954">
        <ele>48.8</ele>
        <time>2020-06-18T10:26:18Z</time>
      </trkpt>
      <trkpt lat="49.86803" lon="0.89962">
        <ele>48.8</ele>
        <time>2020-06-18T10:26:19Z</time>
      </trkpt>
      <trkpt lat="49.86804" lon="0.89971">
        <ele>48.7</ele>
        <time>2020-06-18T10:26:20Z</time>
      </trkpt>
      <trkpt lat="49.86806" lon="0.89981">
        <ele>48.6</ele>
        <time>2020-06-18T10:26:21Z</time>
      </trkpt>
      <trkpt lat="49.86808" lon="0.8999">
        <ele>48.5</ele>
        <time>2020-06-18T10:26:22Z</time>
      </trkpt>
      <trkpt lat="49.86811" lon="0.9">
        <ele>48.5</ele>
        <time>2020-06-18T10:26:23Z</time>
      </trkpt>
      <trkpt lat="49.86812" lon="0.9001">
        <ele>48.4</ele>
        <time>2020-06-18T10:26:24Z</time>
      </trkpt>
      <trkpt lat="49.86814" lon="0.90018">
        <ele>48.3</ele>
        <time>2020-06-18T10:26:25Z</time>
      </trkpt>
      <trkpt lat="49.86815" lon="0.90027">
        <ele>48.3</ele>
        <time>2020-06-18T10:26:26Z</time>
      </trkpt>
      <trkpt lat="49.86816" lon="0.90035">
        <ele>48.2</ele>
        <time>2020-06-18T10:26:27Z</time>
      </trkpt>
      <trkpt lat="49.86818" lon="0.90044">
        <ele>48.1</ele>
        <time>2020-06-18T10:26:28Z</time>
      </trkpt>
      <trkpt lat="49.86819" lon="0.90052">
        <ele>48.1</ele>
        <time>2020-06-18T10:26:29Z</time>
      </trkpt>
      <trkpt lat="49.8682" lon="0.9006">
        <ele>48</ele>
        <time>2020-06-18T10:26:30Z</time>
      </trkpt>
      <trkpt lat="49.86821" lon="0.90069">
        <ele>47.9</ele>
        <time>2020-06-18T10:26:31Z</time>
      </trkpt>
      <trkpt lat="49.86823" lon="0.90077">
        <ele>47.7</ele>
        <time>2020-06-18T10:26:32Z</time>
      </trkpt>
      <trkpt lat="49.86825" lon="0.90087">
        <ele>47.6</ele>
        <time>2020-06-18T10:26:33Z</time>
      </trkpt>
      <trkpt lat="49.86826" lon="0.90096">
        <ele>47.4</ele>
        <time>2020-06-18T10:26:34Z</time>
      </trkpt>
      <trkpt lat="49.86827" lon="0.90106">
        <ele>47.3</ele>
        <time>2020-06-18T10:26:35Z</time>
      </trkpt>
      <trkpt lat="49.86829" lon="0.90115">
        <ele>47.1</ele>
        <time>2020-06-18T10:26:36Z</time>
      </trkpt>
      <trkpt lat="49.86831" lon="0.90125">
        <ele>46.9</ele>
        <time>2020-06-18T10:26:37Z</time>
      </trkpt>
      <trkpt lat="49.86833" lon="0.90134">
        <ele>46.6</ele>
        <time>2020-06-18T10:26:38Z</time>
      </trkpt>
      <trkpt lat="49.86835" lon="0.90144">
        <ele>46.4</ele>
        <time>2020-06-18T10:26:39Z</time>
      </trkpt>
      <trkpt lat="49.86836" lon="0.90153">
        <ele>46.2</ele>
        <time>2020-06-18T10:26:40Z</time>
      </trkpt>
      <trkpt lat="49.86838" lon="0.90163">
        <ele>46.1</ele>
        <time>2020-06-18T10:26:41Z</time>
      </trkpt>
      <trkpt lat="49.8684" lon="0.90173">
        <ele>46.1</ele>
        <time>2020-06-18T10:26:42Z</time>
      </trkpt>
      <trkpt lat="49.86842" lon="0.90184">
        <ele>46</ele>
        <time>2020-06-18T10:26:43Z</time>
      </trkpt>
      <trkpt lat="49.86844" lon="0.90194">
        <ele>46</ele>
        <time>2020-06-18T10:26:44Z</time>
      </trkpt>
      <trkpt lat="49.86846" lon="0.90205">
        <ele>45.8</ele>
        <time>2020-06-18T10:26:45Z</time>
      </trkpt>
      <trkpt lat="49.86848" lon="0.90215">
        <ele>45.5</ele>
        <time>2020-06-18T10:26:46Z</time>
      </trkpt>
      <trkpt lat="49.8685" lon="0.90226">
        <ele>45.3</ele>
        <time>2020-06-18T10:26:47Z</time>
      </trkpt>
      <trkpt lat="49.86852" lon="0.90237">
        <ele>45.2</ele>
        <time>2020-06-18T10:26:48Z</time>
      </trkpt>
      <trkpt lat="49.86854" lon="0.90248">
        <ele>45</ele>
        <time>2020-06-18T10:26:49Z</time>
      </trkpt>
      <trkpt lat="49.86856" lon="0.9026">
        <ele>44.9</ele>
        <time>2020-06-18T10:26:50Z</time>
      </trkpt>
      <trkpt lat="49.86858" lon="0.90271">
        <ele>44.7</ele>
        <time>2020-06-18T10:26:51Z</time>
      </trkpt>
      <trkpt lat="49.8686" lon="0.90283">
        <ele>44.6</ele>
        <time>2020-06-18T10:26:52Z</time>
      </trkpt>
      <trkpt lat="49.86862" lon="0.90295">
        <ele>44.5</ele>
        <time>2020-06-18T10:26:53Z</time>
      </trkpt>
      <trkpt lat="49.86864" lon="0.90306">
        <ele>44.4</ele>
        <time>2020-06-18T10:26:54Z</time>
      </trkpt>
      <trkpt lat="49.86866" lon="0.90318">
        <ele>44.4</ele>
        <time>2020-06-18T10:26:55Z</time>
      </trkpt>
      <trkpt lat="49.86868" lon="0.90329">
        <ele>44.4</ele>
        <time>2020-06-18T10:26:56Z</time>
      </trkpt>
      <trkpt lat="49.8687" lon="0.9034">
        <ele>44.4</ele>
        <time>2020-06-18T10:26:57Z</time>
      </trkpt>
      <trkpt lat="49.86872" lon="0.90352">
        <ele>44.4</ele>
        <time>2020-06-18T10:26:58Z</time>
      </trkpt>
      <trkpt lat="49.86874" lon="0.90363">
        <ele>44.4</ele>
        <time>2020-06-18T10:26:59Z</time>
      </trkpt>
      <trkpt lat="49.86876" lon="0.90374">
        <ele>44.5</ele>
        <time>2020-06-18T10:27:00Z</time>
      </trkpt>
      <trkpt lat="49.86878" lon="0.90385">
        <ele>44.6</ele>
        <time>2020-06-18T10:27:01Z</time>
      </trkpt>
      <trkpt lat="49.8688" lon="0.90395">
        <ele>44.7</ele>
        <time>2020-06-18T10:27:02Z</time>
      </trkpt>
      <trkpt lat="49.86882" lon="0.90406">
        <ele>44.8</ele>
        <time>2020-06-18T10:27:03Z</time>
      </trkpt>
      <trkpt lat="49.86884" lon="0.90416">
        <ele>44.9</ele>
        <time>2020-06-18T10:27:04Z</time>
      </trkpt>
      <trkpt lat="49.86885" lon="0.90427">
        <ele>44.9</ele>
        <time>2020-06-18T10:27:05Z</time>
      </trkpt>
      <trkpt lat="49.86887" lon="0.90437">
        <ele>45</ele>
        <time>2020-06-18T10:27:06Z</time>
      </trkpt>
      <trkpt lat="49.86889" lon="0.90447">
        <ele>45</ele>
        <time>2020-06-18T10:27:07Z</time>
      </trkpt>
      <trkpt lat="49.8689" lon="0.90457">
        <ele>45.2</ele>
        <time>2020-06-18T10:27:08Z</time>
      </trkpt>
      <trkpt lat="49.86892" lon="0.90466">
        <ele>45.3</ele>
        <time>2020-06-18T10:27:09Z</time>
      </trkpt>
      <trkpt lat="49.86893" lon="0.90476">
        <ele>45.5</ele>
        <time>2020-06-18T10:27:10Z</time>
      </trkpt>
      <trkpt lat="49.86895" lon="0.90485">
        <ele>45.6</ele>
        <time>2020-06-18T10:27:11Z</time>
      </trkpt>
      <trkpt lat="49.86897" lon="0.90494">
        <ele>45.7</ele>
        <time>2020-06-18T10:27:12Z</time>
      </trkpt>
      <trkpt lat="49.86898" lon="0.90504">
        <ele>45.8</ele>
        <time>2020-06-18T10:27:13Z</time>
      </trkpt>
      <trkpt lat="49.869" lon="0.90513">
        <ele>46</ele>
        <time>2020-06-18T10:27:14Z</time>
      </trkpt>
      <trkpt lat="49.86901" lon="0.90523">
        <ele>46.2</ele>
        <time>2020-06-18T10:27:15Z</time>
      </trkpt>
      <trkpt lat="49.86903" lon="0.90532">
        <ele>46.3</ele>
        <time>2020-06-18T10:27:16Z</time>
      </trkpt>
      <trkpt lat="49.86904" lon="0.90541">
        <ele>46.4</ele>
        <time>2020-06-18T10:27:17Z</time>
      </trkpt>
      <trkpt lat="49.86906" lon="0.9055">
        <ele>46.4</ele>
        <time>2020-06-18T10:27:18Z</time>
      </trkpt>
      <trkpt lat="49.86908" lon="0.90558">
        <ele>46.4</ele>
        <time>2020-06-18T10:27:19Z</time>
      </trkpt>
      <trkpt lat="49.8691" lon="0.90567">
        <ele>46.5</ele>
        <time>2020-06-18T10:27:20Z</time>
      </trkpt>
      <trkpt lat="49.86911" lon="0.90575">
        <ele>46.5</ele>
        <time>2020-06-18T10:27:21Z</time>
      </trkpt>
      <trkpt lat="49.86912" lon="0.90584">
        <ele>46.6</ele>
        <time>2020-06-18T10:27:22Z</time>
      </trkpt>
      <trkpt lat="49.86914" lon="0.90593">
        <ele>46.7</ele>
        <time>2020-06-18T10:27:23Z</time>
      </trkpt>
      <trkpt lat="49.86915" lon="0.90601">
        <ele>46.7</ele>
        <time>2020-06-18T10:27:24Z</time>
      </trkpt>
      <trkpt lat="49.86917" lon="0.9061">
        <ele>46.8</ele>
        <time>2020-06-18T10:27:25Z</time>
      </trkpt>
      <trkpt lat="49.86918" lon="0.90619">
        <ele>46.8</ele>
        <time>2020-06-18T10:27:26Z</time>
      </trkpt>
      <trkpt lat="49.86919" lon="0.90627">
        <ele>46.9</ele>
        <time>2020-06-18T10:27:27Z</time>
      </trkpt>
      <trkpt lat="49.86921" lon="0.90636">
        <ele>47</ele>
        <time>2020-06-18T10:27:28Z</time>
      </trkpt>
      <trkpt lat="49.86923" lon="0.90643">
        <ele>47</ele>
        <time>2020-06-18T10:27:29Z</time>
      </trkpt>
      <trkpt lat="49.86925" lon="0.90652">
        <ele>47</ele>
        <time>2020-06-18T10:27:30Z</time>
      </trkpt>
      <trkpt lat="49.86927" lon="0.9066">
        <ele>47</ele>
        <time>2020-06-18T10:27:31Z</time>
      </trkpt>
      <trkpt lat="49.86928" lon="0.90669">
        <ele>47.1</ele>
        <time>2020-06-18T10:27:32Z</time>
      </trkpt>
      <trkpt lat="49.86929" lon="0.90677">
        <ele>47.1</ele>
        <time>2020-06-18T10:27:33Z</time>
      </trkpt>
      <trkpt lat="49.86931" lon="0.90686">
        <ele>47.1</ele>
        <time>2020-06-18T10:27:34Z</time>
      </trkpt>
      <trkpt lat="49.86932" lon="0.90694">
        <ele>47.1</ele>
        <time>2020-06-18T10:27:35Z</time>
      </trkpt>
      <trkpt lat="49.86934" lon="0.90702">
        <ele>47</ele>
        <time>2020-06-18T10:27:36Z</time>
      </trkpt>
      <trkpt lat="49.86935" lon="0.9071">
        <ele>47</ele>
        <time>2020-06-18T10:27:37Z</time>
      </trkpt>
      <trkpt lat="49.86936" lon="0.90718">
        <ele>47</ele>
        <time>2020-06-18T10:27:38Z</time>
      </trkpt>
      <trkpt lat="49.86938" lon="0.90726">
        <ele>47</ele>
        <time>2020-06-18T10:27:39Z</time>
      </trkpt>
      <trkpt lat="49.8694" lon="0.90734">
        <ele>47</ele>
        <time>2020-06-18T10:27:40Z</time>
      </trkpt>
      <trkpt lat="49.86941" lon="0.90743">
        <ele>47</ele>
        <time>2020-06-18T10:27:41Z</time>
      </trkpt>
      <trkpt lat="49.86942" lon="0.90753">
        <ele>47</ele>
        <time>2020-06-18T10:27:42Z</time>
      </trkpt>
      <trkpt lat="49.86944" lon="0.90762">
        <ele>47</ele>
        <time>2020-06-18T10:27:43Z</time>
      </trkpt>
      <trkpt lat="49.86945" lon="0.90771">
        <ele>47</ele>
        <time>2020-06-18T10:27:44Z</time>
      </trkpt>
      <trkpt lat="49.86947" lon="0.9078">
        <ele>47</ele>
        <time>2020-06-18T10:27:45Z</time>
      </trkpt>
      <trkpt lat="49.86948" lon="0.9079">
        <ele>47</ele>
        <time>2020-06-18T10:27:46Z</time>
      </trkpt>
      <trkpt lat="49.8695" lon="0.90799">
        <ele>47</ele>
        <time>2020-06-18T10:27:47Z</time>
      </trkpt>
      <trkpt lat="49.86952" lon="0.90809">
        <ele>47</ele>
        <time>2020-06-18T10:27:48Z</time>
      </trkpt>
      <trkpt lat="49.86954" lon="0.90818">
        <ele>47</ele>
        <time>2020-06-18T10:27:49Z</time>
      </trkpt>
      <trkpt lat="49.86955" lon="0.90827">
        <ele>47.1</ele>
        <time>2020-06-18T10:27:50Z</time>
      </trkpt>
      <trkpt lat="49.86956" lon="0.90836">
        <ele>47.1</ele>
        <time>2020-06-18T10:27:51Z</time>
      </trkpt>
      <trkpt lat="49.86958" lon="0.90845">
        <ele>47.1</ele>
        <time>2020-06-18T10:27:52Z</time>
      </trkpt>
      <trkpt lat="49.8696" lon="0.90853">
        <ele>47.2</ele>
        <time>2020-06-18T10:27:53Z</time>
      </trkpt>
      <trkpt lat="49.86961" lon="0.90863">
        <ele>47.2</ele>
        <time>2020-06-18T10:27:54Z</time>
      </trkpt>
      <trkpt lat="49.86964" lon="0.90872">
        <ele>47.3</ele>
        <time>2020-06-18T10:27:55Z</time>
      </trkpt>
      <trkpt lat="49.86965" lon="0.90882">
        <ele>47.4</ele>
        <time>2020-06-18T10:27:56Z</time>
      </trkpt>
      <trkpt lat="49.86966" lon="0.9089">
        <ele>47.5</ele>
        <time>2020-06-18T10:27:57Z</time>
      </trkpt>
      <trkpt lat="49.86968" lon="0.90898">
        <ele>47.5</ele>
        <time>2020-06-18T10:27:58Z</time>
      </trkpt>
      <trkpt lat="49.86969" lon="0.90907">
        <ele>47.5</ele>
        <time>2020-06-18T10:27:59Z</time>
      </trkpt>
      <trkpt lat="49.8697" lon="0.90916">
        <ele>47.5</ele>
        <time>2020-06-18T10:28:00Z</time>
      </trkpt>
      <trkpt lat="49.86972" lon="0.90925">
        <ele>47.5</ele>
        <time>2020-06-18T10:28:01Z</time>
      </trkpt>
      <trkpt lat="49.86973" lon="0.90932">
        <ele>47.4</ele>
        <time>2020-06-18T10:28:02Z</time>
      </trkpt>
      <trkpt lat="49.86975" lon="0.90941">
        <ele>47.4</ele>
        <time>2020-06-18T10:28:03Z</time>
      </trkpt>
      <trkpt lat="49.86977" lon="0.9095">
        <ele>47.4</ele>
        <time>2020-06-18T10:28:04Z</time>
      </trkpt>
      <trkpt lat="49.86979" lon="0.90958">
        <ele>47.3</ele>
        <time>2020-06-18T10:28:05Z</time>
      </trkpt>
      <trkpt lat="49.8698" lon="0.90968">
        <ele>47.3</ele>
        <time>2020-06-18T10:28:06Z</time>
      </trkpt>
      <trkpt lat="49.8698" lon="0.90975">
        <ele>47.2</ele>
        <time>2020-06-18T10:28:07Z</time>
      </trkpt>
      <trkpt lat="49.86981" lon="0.90984">
        <ele>47.2</ele>
        <time>2020-06-18T10:28:08Z</time>
      </trkpt>
      <trkpt lat="49.86982" lon="0.90994">
        <ele>47.1</ele>
        <time>2020-06-18T10:28:09Z</time>
      </trkpt>
      <trkpt lat="49.86983" lon="0.91003">
        <ele>47</ele>
        <time>2020-06-18T10:28:10Z</time>
      </trkpt>
      <trkpt lat="49.86984" lon="0.91012">
        <ele>47</ele>
        <time>2020-06-18T10:28:11Z</time>
      </trkpt>
      <trkpt lat="49.86986" lon="0.91022">
        <ele>47</ele>
        <time>2020-06-18T10:28:12Z</time>
      </trkpt>
      <trkpt lat="49.86989" lon="0.91032">
        <ele>47</ele>
        <time>2020-06-18T10:28:13Z</time>
      </trkpt>
      <trkpt lat="49.86991" lon="0.91043">
        <ele>47</ele>
        <time>2020-06-18T10:28:14Z</time>
      </trkpt>
      <trkpt lat="49.86992" lon="0.91051">
        <ele>46.9</ele>
        <time>2020-06-18T10:28:15Z</time>
      </trkpt>
      <trkpt lat="49.86995" lon="0.91059">
        <ele>46.9</ele>
        <time>2020-06-18T10:28:16Z</time>
      </trkpt>
      <trkpt lat="49.86997" lon="0.91068">
        <ele>46.9</ele>
        <time>2020-06-18T10:28:17Z</time>
      </trkpt>
      <trkpt lat="49.86999" lon="0.91077">
        <ele>46.9</ele>
        <time>2020-06-18T10:28:18Z</time>
      </trkpt>
      <trkpt lat="49.87001" lon="0.91085">
        <ele>46.9</ele>
        <time>2020-06-18T10:28:19Z</time>
      </trkpt>
      <trkpt lat="49.87002" lon="0.91094">
        <ele>46.9</ele>
        <time>2020-06-18T10:28:20Z</time>
      </trkpt>
      <trkpt lat="49.87003" lon="0.91104">
        <ele>46.9</ele>
        <time>2020-06-18T10:28:21Z</time>
      </trkpt>
      <trkpt lat="49.87005" lon="0.91113">
        <ele>46.9</ele>
        <time>2020-06-18T10:28:22Z</time>
      </trkpt>
      <trkpt lat="49.87007" lon="0.91122">
        <ele>46.9</ele>
        <time>2020-06-18T10:28:23Z</time>
      </trkpt>
      <trkpt lat="49.87009" lon="0.91131">
        <ele>47</ele>
        <time>2020-06-18T10:28:24Z</time>
      </trkpt>
      <trkpt lat="49.8701" lon="0.9114">
        <ele>47.1</ele>
        <time>2020-06-18T10:28:25Z</time>
      </trkpt>
      <trkpt lat="49.87012" lon="0.91149">
        <ele>47.3</ele>
        <time>2020-06-18T10:28:26Z</time>
      </trkpt>
      <trkpt lat="49.87014" lon="0.91159">
        <ele>47.5</ele>
        <time>2020-06-18T10:28:27Z</time>
      </trkpt>
      <trkpt lat="49.87015" lon="0.91168">
        <ele>47.6</ele>
        <time>2020-06-18T10:28:28Z</time>
      </trkpt>
      <trkpt lat="49.87017" lon="0.91177">
        <ele>47.6</ele>
        <time>2020-06-18T10:28:29Z</time>
      </trkpt>
      <trkpt lat="49.87018" lon="0.91186">
        <ele>47.4</ele>
        <time>2020-06-18T10:28:30Z</time>
      </trkpt>
      <trkpt lat="49.8702" lon="0.91196">
        <ele>47.2</ele>
        <time>2020-06-18T10:28:31Z</time>
      </trkpt>
      <trkpt lat="49.87021" lon="0.91205">
        <ele>47</ele>
        <time>2020-06-18T10:28:32Z</time>
      </trkpt>
      <trkpt lat="49.87023" lon="0.91214">
        <ele>46.8</ele>
        <time>2020-06-18T10:28:33Z</time>
      </trkpt>
      <trkpt lat="49.87025" lon="0.91224">
        <ele>46.7</ele>
        <time>2020-06-18T10:28:34Z</time>
      </trkpt>
      <trkpt lat="49.87027" lon="0.91234">
        <ele>46.7</ele>
        <time>2020-06-18T10:28:35Z</time>
      </trkpt>
      <trkpt lat="49.87028" lon="0.91244">
        <ele>46.6</ele>
        <time>2020-06-18T10:28:36Z</time>
      </trkpt>
      <trkpt lat="49.8703" lon="0.91254">
        <ele>46.6</ele>
        <time>2020-06-18T10:28:37Z</time>
      </trkpt>
      <trkpt lat="49.87032" lon="0.91265">
        <ele>46.4</ele>
        <time>2020-06-18T10:28:38Z</time>
      </trkpt>
      <trkpt lat="49.87034" lon="0.91276">
        <ele>46.4</ele>
        <time>2020-06-18T10:28:39Z</time>
      </trkpt>
      <trkpt lat="49.87035" lon="0.91286">
        <ele>46.3</ele>
        <time>2020-06-18T10:28:40Z</time>
      </trkpt>
      <trkpt lat="49.87037" lon="0.91296">
        <ele>46.4</ele>
        <time>2020-06-18T10:28:41Z</time>
      </trkpt>
      <trkpt lat="49.87039" lon="0.91306">
        <ele>46.4</ele>
        <time>2020-06-18T10:28:42Z</time>
      </trkpt>
      <trkpt lat="49.87041" lon="0.91316">
        <ele>46.4</ele>
        <time>2020-06-18T10:28:43Z</time>
      </trkpt>
      <trkpt lat="49.87042" lon="0.91325">
        <ele>46.4</ele>
        <time>2020-06-18T10:28:44Z</time>
      </trkpt>
      <trkpt lat="49.87044" lon="0.91335">
        <ele>46.3</ele>
        <time>2020-06-18T10:28:45Z</time>
      </trkpt>
      <trkpt lat="49.87046" lon="0.91345">
        <ele>46.3</ele>
        <time>2020-06-18T10:28:46Z</time>
      </trkpt>
      <trkpt lat="49.87047" lon="0.91354">
        <ele>46.3</ele>
        <time>2020-06-18T10:28:47Z</time>
      </trkpt>
      <trkpt lat="49.87049" lon="0.91364">
        <ele>46.3</ele>
        <time>2020-06-18T10:28:48Z</time>
      </trkpt>
      <trkpt lat="49.87051" lon="0.91374">
        <ele>46.3</ele>
        <time>2020-06-18T10:28:49Z</time>
      </trkpt>
      <trkpt lat="49.87053" lon="0.91384">
        <ele>46.2</ele>
        <time>2020-06-18T10:28:50Z</time>
      </trkpt>
      <trkpt lat="49.87054" lon="0.91394">
        <ele>46.2</ele>
        <time>2020-06-18T10:28:51Z</time>
      </trkpt>
      <trkpt lat="49.87056" lon="0.91404">
        <ele>46.2</ele>
        <time>2020-06-18T10:28:52Z</time>
      </trkpt>
      <trkpt lat="49.87058" lon="0.91414">
        <ele>46.2</ele>
        <time>2020-06-18T10:28:53Z</time>
      </trkpt>
      <trkpt lat="49.8706" lon="0.91424">
        <ele>46.2</ele>
        <time>2020-06-18T10:28:54Z</time>
      </trkpt>
      <trkpt lat="49.87061" lon="0.91434">
        <ele>46.2</ele>
        <time>2020-06-18T10:28:55Z</time>
      </trkpt>
      <trkpt lat="49.87063" lon="0.91444">
        <ele>46.2</ele>
        <time>2020-06-18T10:28:56Z</time>
      </trkpt>
      <trkpt lat="49.87065" lon="0.91454">
        <ele>46.2</ele>
        <time>2020-06-18T10:28:57Z</time>
      </trkpt>
      <trkpt lat="49.87067" lon="0.91464">
        <ele>46.2</ele>
        <time>2020-06-18T10:28:58Z</time>
      </trkpt>
      <trkpt lat="49.87068" lon="0.91475">
        <ele>46.2</ele>
        <time>2020-06-18T10:28:59Z</time>
      </trkpt>
      <trkpt lat="49.8707" lon="0.91485">
        <ele>46.2</ele>
        <time>2020-06-18T10:29:00Z</time>
      </trkpt>
      <trkpt lat="49.87072" lon="0.91495">
        <ele>46.1</ele>
        <time>2020-06-18T10:29:01Z</time>
      </trkpt>
      <trkpt lat="49.87073" lon="0.91506">
        <ele>46.1</ele>
        <time>2020-06-18T10:29:02Z</time>
      </trkpt>
      <trkpt lat="49.87075" lon="0.91516">
        <ele>46.1</ele>
        <time>2020-06-18T10:29:03Z</time>
      </trkpt>
      <trkpt lat="49.87077" lon="0.91526">
        <ele>46</ele>
        <time>2020-06-18T10:29:04Z</time>
      </trkpt>
      <trkpt lat="49.87078" lon="0.91536">
        <ele>45.9</ele>
        <time>2020-06-18T10:29:05Z</time>
      </trkpt>
      <trkpt lat="49.8708" lon="0.91546">
        <ele>45.9</ele>
        <time>2020-06-18T10:29:06Z</time>
      </trkpt>
      <trkpt lat="49.87082" lon="0.91557">
        <ele>45.8</ele>
        <time>2020-06-18T10:29:07Z</time>
      </trkpt>
      <trkpt lat="49.87084" lon="0.91567">
        <ele>45.8</ele>
        <time>2020-06-18T10:29:08Z</time>
      </trkpt>
      <trkpt lat="49.87086" lon="0.91577">
        <ele>45.8</ele>
        <time>2020-06-18T10:29:09Z</time>
      </trkpt>
      <trkpt lat="49.87088" lon="0.91588">
        <ele>45.8</ele>
        <time>2020-06-18T10:29:10Z</time>
      </trkpt>
      <trkpt lat="49.8709" lon="0.91598">
        <ele>45.8</ele>
        <time>2020-06-18T10:29:11Z</time>
      </trkpt>
      <trkpt lat="49.87092" lon="0.91609">
        <ele>45.8</ele>
        <time>2020-06-18T10:29:12Z</time>
      </trkpt>
      <trkpt lat="49.87093" lon="0.91619">
        <ele>45.7</ele>
        <time>2020-06-18T10:29:13Z</time>
      </trkpt>
      <trkpt lat="49.87095" lon="0.91629">
        <ele>45.7</ele>
        <time>2020-06-18T10:29:14Z</time>
      </trkpt>
      <trkpt lat="49.87097" lon="0.9164">
        <ele>45.7</ele>
        <time>2020-06-18T10:29:15Z</time>
      </trkpt>
      <trkpt lat="49.87099" lon="0.9165">
        <ele>45.7</ele>
        <time>2020-06-18T10:29:16Z</time>
      </trkpt>
      <trkpt lat="49.871" lon="0.91661">
        <ele>45.6</ele>
        <time>2020-06-18T10:29:17Z</time>
      </trkpt>
      <trkpt lat="49.87102" lon="0.91671">
        <ele>45.6</ele>
        <time>2020-06-18T10:29:18Z</time>
      </trkpt>
      <trkpt lat="49.87104" lon="0.91682">
        <ele>45.6</ele>
        <time>2020-06-18T10:29:19Z</time>
      </trkpt>
      <trkpt lat="49.87105" lon="0.91692">
        <ele>45.6</ele>
        <time>2020-06-18T10:29:20Z</time>
      </trkpt>
      <trkpt lat="49.87107" lon="0.91702">
        <ele>45.6</ele>
        <time>2020-06-18T10:29:21Z</time>
      </trkpt>
      <trkpt lat="49.87109" lon="0.91712">
        <ele>45.6</ele>
        <time>2020-06-18T10:29:22Z</time>
      </trkpt>
      <trkpt lat="49.87111" lon="0.91722">
        <ele>45.6</ele>
        <time>2020-06-18T10:29:23Z</time>
      </trkpt>
      <trkpt lat="49.87112" lon="0.91733">
        <ele>45.6</ele>
        <time>2020-06-18T10:29:24Z</time>
      </trkpt>
      <trkpt lat="49.87114" lon="0.91743">
        <ele>45.6</ele>
        <time>2020-06-18T10:29:25Z</time>
      </trkpt>
      <trkpt lat="49.87116" lon="0.91753">
        <ele>45.7</ele>
        <time>2020-06-18T10:29:26Z</time>
      </trkpt>
      <trkpt lat="49.87118" lon="0.91763">
        <ele>45.7</ele>
        <time>2020-06-18T10:29:27Z</time>
      </trkpt>
      <trkpt lat="49.8712" lon="0.91774">
        <ele>45.8</ele>
        <time>2020-06-18T10:29:28Z</time>
      </trkpt>
      <trkpt lat="49.87122" lon="0.91784">
        <ele>45.9</ele>
        <time>2020-06-18T10:29:29Z</time>
      </trkpt>
      <trkpt lat="49.87124" lon="0.91795">
        <ele>46</ele>
        <time>2020-06-18T10:29:30Z</time>
      </trkpt>
      <trkpt lat="49.87126" lon="0.91805">
        <ele>46.1</ele>
        <time>2020-06-18T10:29:31Z</time>
      </trkpt>
      <trkpt lat="49.87127" lon="0.91814">
        <ele>46.2</ele>
        <time>2020-06-18T10:29:32Z</time>
      </trkpt>
      <trkpt lat="49.87129" lon="0.91824">
        <ele>46.3</ele>
        <time>2020-06-18T10:29:33Z</time>
      </trkpt>
      <trkpt lat="49.87131" lon="0.91833">
        <ele>46.4</ele>
        <time>2020-06-18T10:29:34Z</time>
      </trkpt>
      <trkpt lat="49.87133" lon="0.91843">
        <ele>46.5</ele>
        <time>2020-06-18T10:29:35Z</time>
      </trkpt>
      <trkpt lat="49.87135" lon="0.91852">
        <ele>46.6</ele>
        <time>2020-06-18T10:29:36Z</time>
      </trkpt>
      <trkpt lat="49.87136" lon="0.91862">
        <ele>46.6</ele>
        <time>2020-06-18T10:29:37Z</time>
      </trkpt>
      <trkpt lat="49.87138" lon="0.91872">
        <ele>46.7</ele>
        <time>2020-06-18T10:29:38Z</time>
      </trkpt>
      <trkpt lat="49.87139" lon="0.91881">
        <ele>46.7</ele>
        <time>2020-06-18T10:29:39Z</time>
      </trkpt>
      <trkpt lat="49.87141" lon="0.9189">
        <ele>46.8</ele>
        <time>2020-06-18T10:29:40Z</time>
      </trkpt>
      <trkpt lat="49.87143" lon="0.919">
        <ele>46.8</ele>
        <time>2020-06-18T10:29:41Z</time>
      </trkpt>
      <trkpt lat="49.87145" lon="0.9191">
        <ele>46.9</ele>
        <time>2020-06-18T10:29:42Z</time>
      </trkpt>
      <trkpt lat="49.87146" lon="0.91919">
        <ele>47</ele>
        <time>2020-06-18T10:29:43Z</time>
      </trkpt>
      <trkpt lat="49.87148" lon="0.91929">
        <ele>47.1</ele>
        <time>2020-06-18T10:29:44Z</time>
      </trkpt>
      <trkpt lat="49.8715" lon="0.91938">
        <ele>47.3</ele>
        <time>2020-06-18T10:29:45Z</time>
      </trkpt>
      <trkpt lat="49.87151" lon="0.91947">
        <ele>47.4</ele>
        <time>2020-06-18T10:29:46Z</time>
      </trkpt>
      <trkpt lat="49.87153" lon="0.91956">
        <ele>47.5</ele>
        <time>2020-06-18T10:29:47Z</time>
      </trkpt>
      <trkpt lat="49.87154" lon="0.91964">
        <ele>47.5</ele>
        <time>2020-06-18T10:29:48Z</time>
      </trkpt>
      <trkpt lat="49.87156" lon="0.91974">
        <ele>47.6</ele>
        <time>2020-06-18T10:29:49Z</time>
      </trkpt>
      <trkpt lat="49.87157" lon="0.91983">
        <ele>47.7</ele>
        <time>2020-06-18T10:29:50Z</time>
      </trkpt>
      <trkpt lat="49.87159" lon="0.91991">
        <ele>47.7</ele>
        <time>2020-06-18T10:29:51Z</time>
      </trkpt>
      <trkpt lat="49.8716" lon="0.91999">
        <ele>47.8</ele>
        <time>2020-06-18T10:29:52Z</time>
      </trkpt>
      <trkpt lat="49.87162" lon="0.92007">
        <ele>47.8</ele>
        <time>2020-06-18T10:29:53Z</time>
      </trkpt>
      <trkpt lat="49.87163" lon="0.92015">
        <ele>47.9</ele>
        <time>2020-06-18T10:29:54Z</time>
      </trkpt>
      <trkpt lat="49.87164" lon="0.92023">
        <ele>48.1</ele>
        <time>2020-06-18T10:29:55Z</time>
      </trkpt>
      <trkpt lat="49.87166" lon="0.92031">
        <ele>48.3</ele>
        <time>2020-06-18T10:29:56Z</time>
      </trkpt>
      <trkpt lat="49.87167" lon="0.92039">
        <ele>48.4</ele>
        <time>2020-06-18T10:29:57Z</time>
      </trkpt>
      <trkpt lat="49.87168" lon="0.92046">
        <ele>48.5</ele>
        <time>2020-06-18T10:29:58Z</time>
      </trkpt>
      <trkpt lat="49.87169" lon="0.92056">
        <ele>48.7</ele>
        <time>2020-06-18T10:29:59Z</time>
      </trkpt>
      <trkpt lat="49.87171" lon="0.92063">
        <ele>48.9</ele>
        <time>2020-06-18T10:30:00Z</time>
      </trkpt>
      <trkpt lat="49.87172" lon="0.92072">
        <ele>49</ele>
        <time>2020-06-18T10:30:01Z</time>
      </trkpt>
      <trkpt lat="49.87173" lon="0.92079">
        <ele>49.1</ele>
        <time>2020-06-18T10:30:02Z</time>
      </trkpt>
      <trkpt lat="49.87175" lon="0.92088">
        <ele>49.2</ele>
        <time>2020-06-18T10:30:03Z</time>
      </trkpt>
      <trkpt lat="49.87176" lon="0.92098">
        <ele>49.3</ele>
        <time>2020-06-18T10:30:04Z</time>
      </trkpt>
      <trkpt lat="49.87178" lon="0.92108">
        <ele>49.4</ele>
        <time>2020-06-18T10:30:05Z</time>
      </trkpt>
      <trkpt lat="49.87179" lon="0.92116">
        <ele>49.4</ele>
        <time>2020-06-18T10:30:06Z</time>
      </trkpt>
      <trkpt lat="49.87181" lon="0.92125">
        <ele>49.5</ele>
        <time>2020-06-18T10:30:07Z</time>
      </trkpt>
      <trkpt lat="49.87182" lon="0.92133">
        <ele>49.5</ele>
        <time>2020-06-18T10:30:08Z</time>
      </trkpt>
      <trkpt lat="49.87183" lon="0.92142">
        <ele>49.6</ele>
        <time>2020-06-18T10:30:09Z</time>
      </trkpt>
      <trkpt lat="49.87186" lon="0.92152">
        <ele>49.6</ele>
        <time>2020-06-18T10:30:10Z</time>
      </trkpt>
      <trkpt lat="49.87187" lon="0.9216">
        <ele>49.6</ele>
        <time>2020-06-18T10:30:11Z</time>
      </trkpt>
      <trkpt lat="49.87188" lon="0.92168">
        <ele>49.7</ele>
        <time>2020-06-18T10:30:12Z</time>
      </trkpt>
      <trkpt lat="49.87189" lon="0.92176">
        <ele>49.7</ele>
        <time>2020-06-18T10:30:13Z</time>
      </trkpt>
      <trkpt lat="49.8719" lon="0.92183">
        <ele>49.8</ele>
        <time>2020-06-18T10:30:14Z</time>
      </trkpt>
      <trkpt lat="49.87192" lon="0.9219">
        <ele>49.8</ele>
        <time>2020-06-18T10:30:15Z</time>
      </trkpt>
      <trkpt lat="49.87193" lon="0.92198">
        <ele>49.9</ele>
        <time>2020-06-18T10:30:16Z</time>
      </trkpt>
      <trkpt lat="49.87195" lon="0.92208">
        <ele>50</ele>
        <time>2020-06-18T10:30:17Z</time>
      </trkpt>
      <trkpt lat="49.87197" lon="0.92216">
        <ele>50.1</ele>
        <time>2020-06-18T10:30:18Z</time>
      </trkpt>
      <trkpt lat="49.87198" lon="0.92224">
        <ele>50.3</ele>
        <time>2020-06-18T10:30:19Z</time>
      </trkpt>
      <trkpt lat="49.872" lon="0.92233">
        <ele>50.5</ele>
        <time>2020-06-18T10:30:20Z</time>
      </trkpt>
      <trkpt lat="49.87202" lon="0.92242">
        <ele>50.6</ele>
        <time>2020-06-18T10:30:21Z</time>
      </trkpt>
      <trkpt lat="49.87204" lon="0.92252">
        <ele>50.8</ele>
        <time>2020-06-18T10:30:22Z</time>
      </trkpt>
      <trkpt lat="49.87206" lon="0.92261">
        <ele>51</ele>
        <time>2020-06-18T10:30:23Z</time>
      </trkpt>
      <trkpt lat="49.87207" lon="0.92269">
        <ele>51.1</ele>
        <time>2020-06-18T10:30:24Z</time>
      </trkpt>
      <trkpt lat="49.87209" lon="0.92278">
        <ele>51.2</ele>
        <time>2020-06-18T10:30:25Z</time>
      </trkpt>
      <trkpt lat="49.8721" lon="0.92286">
        <ele>51.2</ele>
        <time>2020-06-18T10:30:26Z</time>
      </trkpt>
      <trkpt lat="49.87211" lon="0.92293">
        <ele>51.2</ele>
        <time>2020-06-18T10:30:27Z</time>
      </trkpt>
      <trkpt lat="49.87212" lon="0.92302">
        <ele>51.3</ele>
        <time>2020-06-18T10:30:28Z</time>
      </trkpt>
      <trkpt lat="49.87214" lon="0.92311">
        <ele>51.3</ele>
        <time>2020-06-18T10:30:29Z</time>
      </trkpt>
      <trkpt lat="49.87216" lon="0.9232">
        <ele>51.4</ele>
        <time>2020-06-18T10:30:30Z</time>
      </trkpt>
      <trkpt lat="49.87217" lon="0.92328">
        <ele>51.4</ele>
        <time>2020-06-18T10:30:31Z</time>
      </trkpt>
      <trkpt lat="49.87218" lon="0.92337">
        <ele>51.5</ele>
        <time>2020-06-18T10:30:32Z</time>
      </trkpt>
      <trkpt lat="49.87219" lon="0.92345">
        <ele>51.5</ele>
        <time>2020-06-18T10:30:33Z</time>
      </trkpt>
      <trkpt lat="49.87221" lon="0.92354">
        <ele>51.8</ele>
        <time>2020-06-18T10:30:34Z</time>
      </trkpt>
      <trkpt lat="49.87222" lon="0.92362">
        <ele>51.9</ele>
        <time>2020-06-18T10:30:35Z</time>
      </trkpt>
      <trkpt lat="49.87223" lon="0.9237">
        <ele>51.9</ele>
        <time>2020-06-18T10:30:36Z</time>
      </trkpt>
      <trkpt lat="49.87225" lon="0.92377">
        <ele>51.9</ele>
        <time>2020-06-18T10:30:37Z</time>
      </trkpt>
      <trkpt lat="49.87226" lon="0.92387">
        <ele>51.9</ele>
        <time>2020-06-18T10:30:38Z</time>
      </trkpt>
      <trkpt lat="49.87228" lon="0.92395">
        <ele>51.9</ele>
        <time>2020-06-18T10:30:39Z</time>
      </trkpt>
      <trkpt lat="49.8723" lon="0.92406">
        <ele>51.9</ele>
        <time>2020-06-18T10:30:40Z</time>
      </trkpt>
      <trkpt lat="49.87232" lon="0.92415">
        <ele>51.9</ele>
        <time>2020-06-18T10:30:41Z</time>
      </trkpt>
      <trkpt lat="49.87233" lon="0.92422">
        <ele>51.9</ele>
        <time>2020-06-18T10:30:42Z</time>
      </trkpt>
      <trkpt lat="49.87235" lon="0.92431">
        <ele>51.8</ele>
        <time>2020-06-18T10:30:43Z</time>
      </trkpt>
      <trkpt lat="49.87235" lon="0.92439">
        <ele>51.8</ele>
        <time>2020-06-18T10:30:44Z</time>
      </trkpt>
      <trkpt lat="49.87238" lon="0.92448">
        <ele>51.7</ele>
        <time>2020-06-18T10:30:45Z</time>
      </trkpt>
      <trkpt lat="49.87239" lon="0.92456">
        <ele>51.7</ele>
        <time>2020-06-18T10:30:46Z</time>
      </trkpt>
      <trkpt lat="49.8724" lon="0.92464">
        <ele>51.7</ele>
        <time>2020-06-18T10:30:47Z</time>
      </trkpt>
      <trkpt lat="49.87241" lon="0.92472">
        <ele>51.8</ele>
        <time>2020-06-18T10:30:48Z</time>
      </trkpt>
      <trkpt lat="49.87242" lon="0.92481">
        <ele>51.8</ele>
        <time>2020-06-18T10:30:49Z</time>
      </trkpt>
      <trkpt lat="49.87244" lon="0.92491">
        <ele>51.8</ele>
        <time>2020-06-18T10:30:50Z</time>
      </trkpt>
      <trkpt lat="49.87246" lon="0.92499">
        <ele>51.8</ele>
        <time>2020-06-18T10:30:51Z</time>
      </trkpt>
      <trkpt lat="49.87247" lon="0.92508">
        <ele>51.8</ele>
        <time>2020-06-18T10:30:52Z</time>
      </trkpt>
      <trkpt lat="49.87249" lon="0.92517">
        <ele>51.8</ele>
        <time>2020-06-18T10:30:53Z</time>
      </trkpt>
      <trkpt lat="49.87251" lon="0.92525">
        <ele>51.8</ele>
        <time>2020-06-18T10:30:54Z</time>
      </trkpt>
      <trkpt lat="49.87252" lon="0.92535">
        <ele>51.9</ele>
        <time>2020-06-18T10:30:55Z</time>
      </trkpt>
      <trkpt lat="49.87253" lon="0.92545">
        <ele>52</ele>
        <time>2020-06-18T10:30:56Z</time>
      </trkpt>
      <trkpt lat="49.87256" lon="0.92554">
        <ele>52.1</ele>
        <time>2020-06-18T10:30:57Z</time>
      </trkpt>
      <trkpt lat="49.87257" lon="0.92565">
        <ele>52.2</ele>
        <time>2020-06-18T10:30:58Z</time>
      </trkpt>
      <trkpt lat="49.87259" lon="0.92574">
        <ele>52.2</ele>
        <time>2020-06-18T10:30:59Z</time>
      </trkpt>
      <trkpt lat="49.87261" lon="0.92583">
        <ele>52.3</ele>
        <time>2020-06-18T10:31:00Z</time>
      </trkpt>
      <trkpt lat="49.87263" lon="0.92591">
        <ele>52.3</ele>
        <time>2020-06-18T10:31:01Z</time>
      </trkpt>
      <trkpt lat="49.87264" lon="0.926">
        <ele>52.2</ele>
        <time>2020-06-18T10:31:02Z</time>
      </trkpt>
      <trkpt lat="49.87266" lon="0.92609">
        <ele>52.2</ele>
        <time>2020-06-18T10:31:03Z</time>
      </trkpt>
      <trkpt lat="49.87268" lon="0.92618">
        <ele>52.1</ele>
        <time>2020-06-18T10:31:04Z</time>
      </trkpt>
      <trkpt lat="49.8727" lon="0.92626">
        <ele>52.2</ele>
        <time>2020-06-18T10:31:05Z</time>
      </trkpt>
      <trkpt lat="49.87271" lon="0.92636">
        <ele>52.2</ele>
        <time>2020-06-18T10:31:06Z</time>
      </trkpt>
      <trkpt lat="49.87272" lon="0.92644">
        <ele>52.2</ele>
        <time>2020-06-18T10:31:07Z</time>
      </trkpt>
      <trkpt lat="49.87273" lon="0.92652">
        <ele>52.2</ele>
        <time>2020-06-18T10:31:08Z</time>
      </trkpt>
      <trkpt lat="49.87275" lon="0.9266">
        <ele>52.2</ele>
        <time>2020-06-18T10:31:09Z</time>
      </trkpt>
      <trkpt lat="49.87276" lon="0.92668">
        <ele>52.2</ele>
        <time>2020-06-18T10:31:10Z</time>
      </trkpt>
      <trkpt lat="49.87278" lon="0.92676">
        <ele>52.2</ele>
        <time>2020-06-18T10:31:11Z</time>
      </trkpt>
      <trkpt lat="49.87279" lon="0.92685">
        <ele>52.3</ele>
        <time>2020-06-18T10:31:12Z</time>
      </trkpt>
      <trkpt lat="49.87281" lon="0.92695">
        <ele>52.4</ele>
        <time>2020-06-18T10:31:13Z</time>
      </trkpt>
      <trkpt lat="49.87282" lon="0.92704">
        <ele>52.3</ele>
        <time>2020-06-18T10:31:14Z</time>
      </trkpt>
      <trkpt lat="49.87284" lon="0.92712">
        <ele>52.3</ele>
        <time>2020-06-18T10:31:15Z</time>
      </trkpt>
      <trkpt lat="49.87286" lon="0.9272">
        <ele>52.3</ele>
        <time>2020-06-18T10:31:16Z</time>
      </trkpt>
      <trkpt lat="49.87287" lon="0.92729">
        <ele>52.4</ele>
        <time>2020-06-18T10:31:17Z</time>
      </trkpt>
      <trkpt lat="49.87288" lon="0.92738">
        <ele>52.4</ele>
        <time>2020-06-18T10:31:18Z</time>
      </trkpt>
      <trkpt lat="49.8729" lon="0.92747">
        <ele>52.5</ele>
        <time>2020-06-18T10:31:19Z</time>
      </trkpt>
      <trkpt lat="49.87291" lon="0.92757">
        <ele>52.6</ele>
        <time>2020-06-18T10:31:20Z</time>
      </trkpt>
      <trkpt lat="49.87292" lon="0.92765">
        <ele>52.6</ele>
        <time>2020-06-18T10:31:21Z</time>
      </trkpt>
      <trkpt lat="49.87294" lon="0.92774">
        <ele>52.7</ele>
        <time>2020-06-18T10:31:22Z</time>
      </trkpt>
      <trkpt lat="49.87295" lon="0.92783">
        <ele>52.7</ele>
        <time>2020-06-18T10:31:23Z</time>
      </trkpt>
      <trkpt lat="49.87297" lon="0.92792">
        <ele>52.8</ele>
        <time>2020-06-18T10:31:24Z</time>
      </trkpt>
      <trkpt lat="49.87298" lon="0.92801">
        <ele>53</ele>
        <time>2020-06-18T10:31:25Z</time>
      </trkpt>
      <trkpt lat="49.87299" lon="0.92809">
        <ele>53</ele>
        <time>2020-06-18T10:31:26Z</time>
      </trkpt>
      <trkpt lat="49.87301" lon="0.92818">
        <ele>53.1</ele>
        <time>2020-06-18T10:31:27Z</time>
      </trkpt>
      <trkpt lat="49.87303" lon="0.92826">
        <ele>53.1</ele>
        <time>2020-06-18T10:31:28Z</time>
      </trkpt>
      <trkpt lat="49.87304" lon="0.92834">
        <ele>53.2</ele>
        <time>2020-06-18T10:31:29Z</time>
      </trkpt>
      <trkpt lat="49.87306" lon="0.92842">
        <ele>53.3</ele>
        <time>2020-06-18T10:31:30Z</time>
      </trkpt>
      <trkpt lat="49.87307" lon="0.92852">
        <ele>53.4</ele>
        <time>2020-06-18T10:31:31Z</time>
      </trkpt>
      <trkpt lat="49.87308" lon="0.9286">
        <ele>53.5</ele>
        <time>2020-06-18T10:31:32Z</time>
      </trkpt>
      <trkpt lat="49.8731" lon="0.92869">
        <ele>53.6</ele>
        <time>2020-06-18T10:31:33Z</time>
      </trkpt>
      <trkpt lat="49.87311" lon="0.92875">
        <ele>53.7</ele>
        <time>2020-06-18T10:31:34Z</time>
      </trkpt>
      <trkpt lat="49.87313" lon="0.92883">
        <ele>53.8</ele>
        <time>2020-06-18T10:31:35Z</time>
      </trkpt>
      <trkpt lat="49.87314" lon="0.92892">
        <ele>53.9</ele>
        <time>2020-06-18T10:31:36Z</time>
      </trkpt>
      <trkpt lat="49.87316" lon="0.92902">
        <ele>54.1</ele>
        <time>2020-06-18T10:31:37Z</time>
      </trkpt>
      <trkpt lat="49.87318" lon="0.92912">
        <ele>54.2</ele>
        <time>2020-06-18T10:31:38Z</time>
      </trkpt>
      <trkpt lat="49.87319" lon="0.92921">
        <ele>54.2</ele>
        <time>2020-06-18T10:31:39Z</time>
      </trkpt>
      <trkpt lat="49.87321" lon="0.9293">
        <ele>54.3</ele>
        <time>2020-06-18T10:31:40Z</time>
      </trkpt>
      <trkpt lat="49.87323" lon="0.92937">
        <ele>54.3</ele>
        <time>2020-06-18T10:31:41Z</time>
      </trkpt>
      <trkpt lat="49.87325" lon="0.92946">
        <ele>54.4</ele>
        <time>2020-06-18T10:31:42Z</time>
      </trkpt>
      <trkpt lat="49.87326" lon="0.92956">
        <ele>54.5</ele>
        <time>2020-06-18T10:31:43Z</time>
      </trkpt>
      <trkpt lat="49.87328" lon="0.92964">
        <ele>54.6</ele>
        <time>2020-06-18T10:31:44Z</time>
      </trkpt>
      <trkpt lat="49.8733" lon="0.92973">
        <ele>54.7</ele>
        <time>2020-06-18T10:31:45Z</time>
      </trkpt>
      <trkpt lat="49.87331" lon="0.92982">
        <ele>54.8</ele>
        <time>2020-06-18T10:31:46Z</time>
      </trkpt>
      <trkpt lat="49.87333" lon="0.92992">
        <ele>54.8</ele>
        <time>2020-06-18T10:31:47Z</time>
      </trkpt>
      <trkpt lat="49.87335" lon="0.93">
        <ele>55</ele>
        <time>2020-06-18T10:31:48Z</time>
      </trkpt>
      <trkpt lat="49.87337" lon="0.93008">
        <ele>55.1</ele>
        <time>2020-06-18T10:31:49Z</time>
      </trkpt>
      <trkpt lat="49.87338" lon="0.93016">
        <ele>55.2</ele>
        <time>2020-06-18T10:31:50Z</time>
      </trkpt>
      <trkpt lat="49.8734" lon="0.93025">
        <ele>55.3</ele>
        <time>2020-06-18T10:31:51Z</time>
      </trkpt>
      <trkpt lat="49.87341" lon="0.93033">
        <ele>55.3</ele>
        <time>2020-06-18T10:31:52Z</time>
      </trkpt>
      <trkpt lat="49.87343" lon="0.93042">
        <ele>55.3</ele>
        <time>2020-06-18T10:31:53Z</time>
      </trkpt>
      <trkpt lat="49.87344" lon="0.9305">
        <ele>55.4</ele>
        <time>2020-06-18T10:31:54Z</time>
      </trkpt>
      <trkpt lat="49.87345" lon="0.93057">
        <ele>55.4</ele>
        <time>2020-06-18T10:31:55Z</time>
      </trkpt>
      <trkpt lat="49.87346" lon="0.93067">
        <ele>55.5</ele>
        <time>2020-06-18T10:31:56Z</time>
      </trkpt>
      <trkpt lat="49.87348" lon="0.93076">
        <ele>55.6</ele>
        <time>2020-06-18T10:31:57Z</time>
      </trkpt>
      <trkpt lat="49.8735" lon="0.93086">
        <ele>55.8</ele>
        <time>2020-06-18T10:31:58Z</time>
      </trkpt>
      <trkpt lat="49.87351" lon="0.93095">
        <ele>55.9</ele>
        <time>2020-06-18T10:31:59Z</time>
      </trkpt>
      <trkpt lat="49.87353" lon="0.93104">
        <ele>56</ele>
        <time>2020-06-18T10:32:00Z</time>
      </trkpt>
      <trkpt lat="49.87355" lon="0.93111">
        <ele>56.1</ele>
        <time>2020-06-18T10:32:01Z</time>
      </trkpt>
      <trkpt lat="49.87357" lon="0.93122">
        <ele>56.2</ele>
        <time>2020-06-18T10:32:02Z</time>
      </trkpt>
      <trkpt lat="49.87358" lon="0.9313">
        <ele>56.2</ele>
        <time>2020-06-18T10:32:03Z</time>
      </trkpt>
      <trkpt lat="49.87361" lon="0.93137">
        <ele>56.3</ele>
        <time>2020-06-18T10:32:04Z</time>
      </trkpt>
      <trkpt lat="49.87363" lon="0.93146">
        <ele>56.3</ele>
        <time>2020-06-18T10:32:05Z</time>
      </trkpt>
      <trkpt lat="49.87364" lon="0.93156">
        <ele>56.3</ele>
        <time>2020-06-18T10:32:06Z</time>
      </trkpt>
      <trkpt lat="49.87365" lon="0.93164">
        <ele>56.3</ele>
        <time>2020-06-18T10:32:07Z</time>
      </trkpt>
      <trkpt lat="49.87366" lon="0.93173">
        <ele>56.4</ele>
        <time>2020-06-18T10:32:08Z</time>
      </trkpt>
      <trkpt lat="49.87367" lon="0.93181">
        <ele>56.5</ele>
        <time>2020-06-18T10:32:09Z</time>
      </trkpt>
      <trkpt lat="49.87368" lon="0.93189">
        <ele>56.6</ele>
        <time>2020-06-18T10:32:10Z</time>
      </trkpt>
      <trkpt lat="49.87369" lon="0.93198">
        <ele>56.7</ele>
        <time>2020-06-18T10:32:11Z</time>
      </trkpt>
      <trkpt lat="49.8737" lon="0.93208">
        <ele>56.8</ele>
        <time>2020-06-18T10:32:12Z</time>
      </trkpt>
      <trkpt lat="49.87372" lon="0.93214">
        <ele>56.9</ele>
        <time>2020-06-18T10:32:13Z</time>
      </trkpt>
      <trkpt lat="49.87373" lon="0.93223">
        <ele>57</ele>
        <time>2020-06-18T10:32:14Z</time>
      </trkpt>
      <trkpt lat="49.87374" lon="0.93231">
        <ele>57.2</ele>
        <time>2020-06-18T10:32:15Z</time>
      </trkpt>
      <trkpt lat="49.87375" lon="0.9324">
        <ele>57.3</ele>
        <time>2020-06-18T10:32:16Z</time>
      </trkpt>
      <trkpt lat="49.87377" lon="0.93248">
        <ele>57.4</ele>
        <time>2020-06-18T10:32:17Z</time>
      </trkpt>
      <trkpt lat="49.87378" lon="0.93256">
        <ele>57.4</ele>
        <time>2020-06-18T10:32:18Z</time>
      </trkpt>
      <trkpt lat="49.8738" lon="0.93265">
        <ele>57.4</ele>
        <time>2020-06-18T10:32:19Z</time>
      </trkpt>
      <trkpt lat="49.87381" lon="0.93273">
        <ele>57.5</ele>
        <time>2020-06-18T10:32:20Z</time>
      </trkpt>
      <trkpt lat="49.87383" lon="0.93281">
        <ele>57.6</ele>
        <time>2020-06-18T10:32:21Z</time>
      </trkpt>
      <trkpt lat="49.87385" lon="0.93291">
        <ele>57.7</ele>
        <time>2020-06-18T10:32:22Z</time>
      </trkpt>
      <trkpt lat="49.87387" lon="0.93302">
        <ele>57.7</ele>
        <time>2020-06-18T10:32:23Z</time>
      </trkpt>
      <trkpt lat="49.87389" lon="0.93312">
        <ele>57.7</ele>
        <time>2020-06-18T10:32:24Z</time>
      </trkpt>
      <trkpt lat="49.8739" lon="0.93322">
        <ele>57.7</ele>
        <time>2020-06-18T10:32:25Z</time>
      </trkpt>
      <trkpt lat="49.87392" lon="0.93332">
        <ele>57.8</ele>
        <time>2020-06-18T10:32:26Z</time>
      </trkpt>
      <trkpt lat="49.87394" lon="0.93343">
        <ele>57.9</ele>
        <time>2020-06-18T10:32:27Z</time>
      </trkpt>
      <trkpt lat="49.87395" lon="0.93351">
        <ele>58</ele>
        <time>2020-06-18T10:32:28Z</time>
      </trkpt>
      <trkpt lat="49.87396" lon="0.9336">
        <ele>58.1</ele>
        <time>2020-06-18T10:32:29Z</time>
      </trkpt>
      <trkpt lat="49.87397" lon="0.93368">
        <ele>58.1</ele>
        <time>2020-06-18T10:32:30Z</time>
      </trkpt>
      <trkpt lat="49.87398" lon="0.93376">
        <ele>58.2</ele>
        <time>2020-06-18T10:32:31Z</time>
      </trkpt>
      <trkpt lat="49.874" lon="0.93384">
        <ele>58.2</ele>
        <time>2020-06-18T10:32:32Z</time>
      </trkpt>
      <trkpt lat="49.87401" lon="0.93393">
        <ele>58.3</ele>
        <time>2020-06-18T10:32:33Z</time>
      </trkpt>
      <trkpt lat="49.87403" lon="0.93402">
        <ele>58.5</ele>
        <time>2020-06-18T10:32:34Z</time>
      </trkpt>
      <trkpt lat="49.87404" lon="0.93411">
        <ele>58.7</ele>
        <time>2020-06-18T10:32:35Z</time>
      </trkpt>
      <trkpt lat="49.87406" lon="0.93421">
        <ele>59.7</ele>
        <time>2020-06-18T10:32:36Z</time>
      </trkpt>
      <trkpt lat="49.87407" lon="0.93429">
        <ele>60.7</ele>
        <time>2020-06-18T10:32:37Z</time>
      </trkpt>
      <trkpt lat="49.87409" lon="0.93438">
        <ele>61.2</ele>
        <time>2020-06-18T10:32:38Z</time>
      </trkpt>
      <trkpt lat="49.8741" lon="0.93446">
        <ele>61.4</ele>
        <time>2020-06-18T10:32:39Z</time>
      </trkpt>
      <trkpt lat="49.87412" lon="0.93456">
        <ele>61.6</ele>
        <time>2020-06-18T10:32:40Z</time>
      </trkpt>
      <trkpt lat="49.87414" lon="0.93464">
        <ele>61.7</ele>
        <time>2020-06-18T10:32:41Z</time>
      </trkpt>
      <trkpt lat="49.87416" lon="0.93474">
        <ele>61.8</ele>
        <time>2020-06-18T10:32:42Z</time>
      </trkpt>
      <trkpt lat="49.87417" lon="0.93484">
        <ele>61.9</ele>
        <time>2020-06-18T10:32:43Z</time>
      </trkpt>
      <trkpt lat="49.87418" lon="0.93493">
        <ele>62</ele>
        <time>2020-06-18T10:32:44Z</time>
      </trkpt>
      <trkpt lat="49.8742" lon="0.93502">
        <ele>62.1</ele>
        <time>2020-06-18T10:32:45Z</time>
      </trkpt>
      <trkpt lat="49.87422" lon="0.93511">
        <ele>62.2</ele>
        <time>2020-06-18T10:32:46Z</time>
      </trkpt>
      <trkpt lat="49.87424" lon="0.9352">
        <ele>62.3</ele>
        <time>2020-06-18T10:32:47Z</time>
      </trkpt>
      <trkpt lat="49.87425" lon="0.9353">
        <ele>62.3</ele>
        <time>2020-06-18T10:32:48Z</time>
      </trkpt>
      <trkpt lat="49.87427" lon="0.93538">
        <ele>62.2</ele>
        <time>2020-06-18T10:32:49Z</time>
      </trkpt>
      <trkpt lat="49.87428" lon="0.93547">
        <ele>62.1</ele>
        <time>2020-06-18T10:32:50Z</time>
      </trkpt>
      <trkpt lat="49.8743" lon="0.93555">
        <ele>62</ele>
        <time>2020-06-18T10:32:51Z</time>
      </trkpt>
      <trkpt lat="49.87432" lon="0.93564">
        <ele>61.9</ele>
        <time>2020-06-18T10:32:52Z</time>
      </trkpt>
      <trkpt lat="49.87433" lon="0.93572">
        <ele>61.8</ele>
        <time>2020-06-18T10:32:53Z</time>
      </trkpt>
      <trkpt lat="49.87434" lon="0.93581">
        <ele>61.7</ele>
        <time>2020-06-18T10:32:54Z</time>
      </trkpt>
      <trkpt lat="49.87435" lon="0.93589">
        <ele>61.6</ele>
        <time>2020-06-18T10:32:55Z</time>
      </trkpt>
      <trkpt lat="49.87437" lon="0.93597">
        <ele>61.6</ele>
        <time>2020-06-18T10:32:56Z</time>
      </trkpt>
      <trkpt lat="49.87438" lon="0.93606">
        <ele>61.5</ele>
        <time>2020-06-18T10:32:57Z</time>
      </trkpt>
      <trkpt lat="49.8744" lon="0.93614">
        <ele>61.4</ele>
        <time>2020-06-18T10:32:58Z</time>
      </trkpt>
      <trkpt lat="49.87442" lon="0.93624">
        <ele>61.2</ele>
        <time>2020-06-18T10:32:59Z</time>
      </trkpt>
      <trkpt lat="49.87444" lon="0.93634">
        <ele>61.1</ele>
        <time>2020-06-18T10:33:00Z</time>
      </trkpt>
      <trkpt lat="49.87447" lon="0.93644">
        <ele>61</ele>
        <time>2020-06-18T10:33:01Z</time>
      </trkpt>
      <trkpt lat="49.87448" lon="0.93654">
        <ele>60.9</ele>
        <time>2020-06-18T10:33:02Z</time>
      </trkpt>
      <trkpt lat="49.8745" lon="0.93664">
        <ele>60.8</ele>
        <time>2020-06-18T10:33:03Z</time>
      </trkpt>
      <trkpt lat="49.87451" lon="0.93675">
        <ele>60.7</ele>
        <time>2020-06-18T10:33:04Z</time>
      </trkpt>
      <trkpt lat="49.87453" lon="0.93685">
        <ele>60.6</ele>
        <time>2020-06-18T10:33:05Z</time>
      </trkpt>
      <trkpt lat="49.87455" lon="0.93696">
        <ele>60.5</ele>
        <time>2020-06-18T10:33:06Z</time>
      </trkpt>
      <trkpt lat="49.87456" lon="0.93705">
        <ele>60.4</ele>
        <time>2020-06-18T10:33:07Z</time>
      </trkpt>
      <trkpt lat="49.87458" lon="0.93714">
        <ele>60.3</ele>
        <time>2020-06-18T10:33:08Z</time>
      </trkpt>
      <trkpt lat="49.8746" lon="0.93724">
        <ele>60.3</ele>
        <time>2020-06-18T10:33:09Z</time>
      </trkpt>
      <trkpt lat="49.87461" lon="0.93733">
        <ele>60.2</ele>
        <time>2020-06-18T10:33:10Z</time>
      </trkpt>
      <trkpt lat="49.87463" lon="0.93743">
        <ele>60</ele>
        <time>2020-06-18T10:33:11Z</time>
      </trkpt>
      <trkpt lat="49.87464" lon="0.93753">
        <ele>59.8</ele>
        <time>2020-06-18T10:33:12Z</time>
      </trkpt>
      <trkpt lat="49.87466" lon="0.93763">
        <ele>59.6</ele>
        <time>2020-06-18T10:33:13Z</time>
      </trkpt>
      <trkpt lat="49.87468" lon="0.93773">
        <ele>59.3</ele>
        <time>2020-06-18T10:33:14Z</time>
      </trkpt>
      <trkpt lat="49.87469" lon="0.93783">
        <ele>59</ele>
        <time>2020-06-18T10:33:15Z</time>
      </trkpt>
      <trkpt lat="49.87471" lon="0.93792">
        <ele>58.7</ele>
        <time>2020-06-18T10:33:16Z</time>
      </trkpt>
      <trkpt lat="49.87473" lon="0.93802">
        <ele>58.5</ele>
        <time>2020-06-18T10:33:17Z</time>
      </trkpt>
      <trkpt lat="49.87474" lon="0.93812">
        <ele>58.4</ele>
        <time>2020-06-18T10:33:18Z</time>
      </trkpt>
      <trkpt lat="49.87476" lon="0.93823">
        <ele>58.2</ele>
        <time>2020-06-18T10:33:19Z</time>
      </trkpt>
      <trkpt lat="49.87478" lon="0.93834">
        <ele>58</ele>
        <time>2020-06-18T10:33:20Z</time>
      </trkpt>
      <trkpt lat="49.8748" lon="0.93845">
        <ele>57.9</ele>
        <time>2020-06-18T10:33:21Z</time>
      </trkpt>
      <trkpt lat="49.87482" lon="0.93856">
        <ele>57.7</ele>
        <time>2020-06-18T10:33:22Z</time>
      </trkpt>
      <trkpt lat="49.87484" lon="0.93866">
        <ele>57.4</ele>
        <time>2020-06-18T10:33:23Z</time>
      </trkpt>
      <trkpt lat="49.87486" lon="0.93877">
        <ele>57.2</ele>
        <time>2020-06-18T10:33:24Z</time>
      </trkpt>
      <trkpt lat="49.87488" lon="0.93887">
        <ele>57</ele>
        <time>2020-06-18T10:33:25Z</time>
      </trkpt>
      <trkpt lat="49.8749" lon="0.93897">
        <ele>56.8</ele>
        <time>2020-06-18T10:33:26Z</time>
      </trkpt>
      <trkpt lat="49.87491" lon="0.93906">
        <ele>56.6</ele>
        <time>2020-06-18T10:33:27Z</time>
      </trkpt>
      <trkpt lat="49.87493" lon="0.93916">
        <ele>56.4</ele>
        <time>2020-06-18T10:33:28Z</time>
      </trkpt>
      <trkpt lat="49.87495" lon="0.93927">
        <ele>56.1</ele>
        <time>2020-06-18T10:33:29Z</time>
      </trkpt>
      <trkpt lat="49.87497" lon="0.93936">
        <ele>55.9</ele>
        <time>2020-06-18T10:33:30Z</time>
      </trkpt>
      <trkpt lat="49.87499" lon="0.93947">
        <ele>55.6</ele>
        <time>2020-06-18T10:33:31Z</time>
      </trkpt>
      <trkpt lat="49.87501" lon="0.93957">
        <ele>55.5</ele>
        <time>2020-06-18T10:33:32Z</time>
      </trkpt>
      <trkpt lat="49.87503" lon="0.93968">
        <ele>55.4</ele>
        <time>2020-06-18T10:33:33Z</time>
      </trkpt>
      <trkpt lat="49.87504" lon="0.93979">
        <ele>55.3</ele>
        <time>2020-06-18T10:33:34Z</time>
      </trkpt>
      <trkpt lat="49.87506" lon="0.93989">
        <ele>55.2</ele>
        <time>2020-06-18T10:33:35Z</time>
      </trkpt>
      <trkpt lat="49.87508" lon="0.94">
        <ele>55.1</ele>
        <time>2020-06-18T10:33:36Z</time>
      </trkpt>
      <trkpt lat="49.8751" lon="0.9401">
        <ele>55</ele>
        <time>2020-06-18T10:33:37Z</time>
      </trkpt>
      <trkpt lat="49.87511" lon="0.94021">
        <ele>54.9</ele>
        <time>2020-06-18T10:33:38Z</time>
      </trkpt>
      <trkpt lat="49.87512" lon="0.94032">
        <ele>54.8</ele>
        <time>2020-06-18T10:33:39Z</time>
      </trkpt>
      <trkpt lat="49.87514" lon="0.94042">
        <ele>54.7</ele>
        <time>2020-06-18T10:33:40Z</time>
      </trkpt>
      <trkpt lat="49.87516" lon="0.94052">
        <ele>54.6</ele>
        <time>2020-06-18T10:33:41Z</time>
      </trkpt>
      <trkpt lat="49.87519" lon="0.94062">
        <ele>54.6</ele>
        <time>2020-06-18T10:33:42Z</time>
      </trkpt>
      <trkpt lat="49.87521" lon="0.94073">
        <ele>54.6</ele>
        <time>2020-06-18T10:33:43Z</time>
      </trkpt>
      <trkpt lat="49.87523" lon="0.94083">
        <ele>54.5</ele>
        <time>2020-06-18T10:33:44Z</time>
      </trkpt>
      <trkpt lat="49.87525" lon="0.94093">
        <ele>54.4</ele>
        <time>2020-06-18T10:33:45Z</time>
      </trkpt>
      <trkpt lat="49.87527" lon="0.94104">
        <ele>54.2</ele>
        <time>2020-06-18T10:33:46Z</time>
      </trkpt>
      <trkpt lat="49.87529" lon="0.94114">
        <ele>54</ele>
        <time>2020-06-18T10:33:47Z</time>
      </trkpt>
      <trkpt lat="49.87531" lon="0.94125">
        <ele>53.9</ele>
        <time>2020-06-18T10:33:48Z</time>
      </trkpt>
      <trkpt lat="49.87533" lon="0.94135">
        <ele>53.8</ele>
        <time>2020-06-18T10:33:49Z</time>
      </trkpt>
      <trkpt lat="49.87534" lon="0.94145">
        <ele>53.7</ele>
        <time>2020-06-18T10:33:50Z</time>
      </trkpt>
      <trkpt lat="49.87536" lon="0.94156">
        <ele>53.6</ele>
        <time>2020-06-18T10:33:51Z</time>
      </trkpt>
      <trkpt lat="49.87538" lon="0.94166">
        <ele>53.6</ele>
        <time>2020-06-18T10:33:52Z</time>
      </trkpt>
      <trkpt lat="49.87539" lon="0.94177">
        <ele>53.5</ele>
        <time>2020-06-18T10:33:53Z</time>
      </trkpt>
      <trkpt lat="49.87541" lon="0.94187">
        <ele>53.4</ele>
        <time>2020-06-18T10:33:54Z</time>
      </trkpt>
      <trkpt lat="49.87543" lon="0.94197">
        <ele>53.3</ele>
        <time>2020-06-18T10:33:55Z</time>
      </trkpt>
      <trkpt lat="49.87544" lon="0.94208">
        <ele>53.2</ele>
        <time>2020-06-18T10:33:56Z</time>
      </trkpt>
      <trkpt lat="49.87546" lon="0.94219">
        <ele>53.2</ele>
        <time>2020-06-18T10:33:57Z</time>
      </trkpt>
      <trkpt lat="49.87548" lon="0.94229">
        <ele>53.1</ele>
        <time>2020-06-18T10:33:58Z</time>
      </trkpt>
      <trkpt lat="49.8755" lon="0.9424">
        <ele>53.1</ele>
        <time>2020-06-18T10:33:59Z</time>
      </trkpt>
      <trkpt lat="49.87551" lon="0.9425">
        <ele>53.1</ele>
        <time>2020-06-18T10:34:00Z</time>
      </trkpt>
      <trkpt lat="49.87553" lon="0.94261">
        <ele>53</ele>
        <time>2020-06-18T10:34:01Z</time>
      </trkpt>
      <trkpt lat="49.87554" lon="0.94271">
        <ele>53</ele>
        <time>2020-06-18T10:34:02Z</time>
      </trkpt>
      <trkpt lat="49.87556" lon="0.94282">
        <ele>52.8</ele>
        <time>2020-06-18T10:34:03Z</time>
      </trkpt>
      <trkpt lat="49.87558" lon="0.94292">
        <ele>52.7</ele>
        <time>2020-06-18T10:34:04Z</time>
      </trkpt>
      <trkpt lat="49.8756" lon="0.94302">
        <ele>52.6</ele>
        <time>2020-06-18T10:34:05Z</time>
      </trkpt>
      <trkpt lat="49.87562" lon="0.94312">
        <ele>52.5</ele>
        <time>2020-06-18T10:34:06Z</time>
      </trkpt>
      <trkpt lat="49.87564" lon="0.94322">
        <ele>52.4</ele>
        <time>2020-06-18T10:34:07Z</time>
      </trkpt>
      <trkpt lat="49.87565" lon="0.94333">
        <ele>52.4</ele>
        <time>2020-06-18T10:34:08Z</time>
      </trkpt>
      <trkpt lat="49.87567" lon="0.94343">
        <ele>52.4</ele>
        <time>2020-06-18T10:34:09Z</time>
      </trkpt>
      <trkpt lat="49.87569" lon="0.94354">
        <ele>52.4</ele>
        <time>2020-06-18T10:34:10Z</time>
      </trkpt>
      <trkpt lat="49.87571" lon="0.94364">
        <ele>52.4</ele>
        <time>2020-06-18T10:34:11Z</time>
      </trkpt>
      <trkpt lat="49.87573" lon="0.94375">
        <ele>52.4</ele>
        <time>2020-06-18T10:34:12Z</time>
      </trkpt>
      <trkpt lat="49.87574" lon="0.94385">
        <ele>52.4</ele>
        <time>2020-06-18T10:34:13Z</time>
      </trkpt>
      <trkpt lat="49.87576" lon="0.94396">
        <ele>52.4</ele>
        <time>2020-06-18T10:34:14Z</time>
      </trkpt>
      <trkpt lat="49.87577" lon="0.94406">
        <ele>52.4</ele>
        <time>2020-06-18T10:34:15Z</time>
      </trkpt>
      <trkpt lat="49.8758" lon="0.94416">
        <ele>52.3</ele>
        <time>2020-06-18T10:34:16Z</time>
      </trkpt>
      <trkpt lat="49.87581" lon="0.94426">
        <ele>52.3</ele>
        <time>2020-06-18T10:34:17Z</time>
      </trkpt>
      <trkpt lat="49.87583" lon="0.94437">
        <ele>52.3</ele>
        <time>2020-06-18T10:34:18Z</time>
      </trkpt>
      <trkpt lat="49.87584" lon="0.94448">
        <ele>52.3</ele>
        <time>2020-06-18T10:34:19Z</time>
      </trkpt>
      <trkpt lat="49.87587" lon="0.94458">
        <ele>52.4</ele>
        <time>2020-06-18T10:34:20Z</time>
      </trkpt>
      <trkpt lat="49.87589" lon="0.94468">
        <ele>52.4</ele>
        <time>2020-06-18T10:34:21Z</time>
      </trkpt>
      <trkpt lat="49.87591" lon="0.94479">
        <ele>52.4</ele>
        <time>2020-06-18T10:34:22Z</time>
      </trkpt>
      <trkpt lat="49.87593" lon="0.9449">
        <ele>52.4</ele>
        <time>2020-06-18T10:34:23Z</time>
      </trkpt>
      <trkpt lat="49.87594" lon="0.94501">
        <ele>52.4</ele>
        <time>2020-06-18T10:34:24Z</time>
      </trkpt>
      <trkpt lat="49.87596" lon="0.94511">
        <ele>52.4</ele>
        <time>2020-06-18T10:34:25Z</time>
      </trkpt>
      <trkpt lat="49.87598" lon="0.94522">
        <ele>52.4</ele>
        <time>2020-06-18T10:34:26Z</time>
      </trkpt>
      <trkpt lat="49.876" lon="0.94534">
        <ele>52.3</ele>
        <time>2020-06-18T10:34:27Z</time>
      </trkpt>
      <trkpt lat="49.87602" lon="0.94545">
        <ele>52.2</ele>
        <time>2020-06-18T10:34:28Z</time>
      </trkpt>
      <trkpt lat="49.87603" lon="0.94556">
        <ele>52</ele>
        <time>2020-06-18T10:34:29Z</time>
      </trkpt>
      <trkpt lat="49.87605" lon="0.94567">
        <ele>51.7</ele>
        <time>2020-06-18T10:34:30Z</time>
      </trkpt>
      <trkpt lat="49.87606" lon="0.94579">
        <ele>51.5</ele>
        <time>2020-06-18T10:34:31Z</time>
      </trkpt>
      <trkpt lat="49.87607" lon="0.9459">
        <ele>51.2</ele>
        <time>2020-06-18T10:34:32Z</time>
      </trkpt>
      <trkpt lat="49.87608" lon="0.94601">
        <ele>50.9</ele>
        <time>2020-06-18T10:34:33Z</time>
      </trkpt>
      <trkpt lat="49.87609" lon="0.94613">
        <ele>50.6</ele>
        <time>2020-06-18T10:34:34Z</time>
      </trkpt>
      <trkpt lat="49.87609" lon="0.94624">
        <ele>50.2</ele>
        <time>2020-06-18T10:34:35Z</time>
      </trkpt>
      <trkpt lat="49.87609" lon="0.94636">
        <ele>49.8</ele>
        <time>2020-06-18T10:34:36Z</time>
      </trkpt>
      <trkpt lat="49.87609" lon="0.94647">
        <ele>49.5</ele>
        <time>2020-06-18T10:34:37Z</time>
      </trkpt>
      <trkpt lat="49.8761" lon="0.94659">
        <ele>49</ele>
        <time>2020-06-18T10:34:38Z</time>
      </trkpt>
      <trkpt lat="49.8761" lon="0.94671">
        <ele>48.5</ele>
        <time>2020-06-18T10:34:39Z</time>
      </trkpt>
      <trkpt lat="49.8761" lon="0.94682">
        <ele>47.8</ele>
        <time>2020-06-18T10:34:40Z</time>
      </trkpt>
      <trkpt lat="49.8761" lon="0.94694">
        <ele>46.9</ele>
        <time>2020-06-18T10:34:41Z</time>
      </trkpt>
      <trkpt lat="49.8761" lon="0.94706">
        <ele>46.2</ele>
        <time>2020-06-18T10:34:42Z</time>
      </trkpt>
      <trkpt lat="49.8761" lon="0.94719">
        <ele>45.8</ele>
        <time>2020-06-18T10:34:43Z</time>
      </trkpt>
      <trkpt lat="49.8761" lon="0.94731">
        <ele>45.3</ele>
        <time>2020-06-18T10:34:44Z</time>
      </trkpt>
      <trkpt lat="49.87611" lon="0.94744">
        <ele>44.9</ele>
        <time>2020-06-18T10:34:45Z</time>
      </trkpt>
      <trkpt lat="49.87611" lon="0.94756">
        <ele>44.4</ele>
        <time>2020-06-18T10:34:46Z</time>
      </trkpt>
      <trkpt lat="49.87611" lon="0.94769">
        <ele>43.9</ele>
        <time>2020-06-18T10:34:47Z</time>
      </trkpt>
      <trkpt lat="49.87611" lon="0.94782">
        <ele>43.3</ele>
        <time>2020-06-18T10:34:48Z</time>
      </trkpt>
      <trkpt lat="49.87611" lon="0.94795">
        <ele>42.8</ele>
        <time>2020-06-18T10:34:49Z</time>
      </trkpt>
      <trkpt lat="49.87611" lon="0.94809">
        <ele>42.4</ele>
        <time>2020-06-18T10:34:50Z</time>
      </trkpt>
      <trkpt lat="49.87611" lon="0.94823">
        <ele>41.9</ele>
        <time>2020-06-18T10:34:51Z</time>
      </trkpt>
      <trkpt lat="49.87612" lon="0.94837">
        <ele>41.4</ele>
        <time>2020-06-18T10:34:52Z</time>
      </trkpt>
      <trkpt lat="49.87611" lon="0.94851">
        <ele>41</ele>
        <time>2020-06-18T10:34:53Z</time>
      </trkpt>
      <trkpt lat="49.87612" lon="0.94865">
        <ele>40.5</ele>
        <time>2020-06-18T10:34:54Z</time>
      </trkpt>
      <trkpt lat="49.87612" lon="0.94879">
        <ele>40.1</ele>
        <time>2020-06-18T10:34:55Z</time>
      </trkpt>
      <trkpt lat="49.87611" lon="0.94893">
        <ele>39.7</ele>
        <time>2020-06-18T10:34:56Z</time>
      </trkpt>
      <trkpt lat="49.87611" lon="0.94907">
        <ele>39.2</ele>
        <time>2020-06-18T10:34:57Z</time>
      </trkpt>
      <trkpt lat="49.87611" lon="0.94921">
        <ele>38.6</ele>
        <time>2020-06-18T10:34:58Z</time>
      </trkpt>
      <trkpt lat="49.87611" lon="0.94935">
        <ele>38</ele>
        <time>2020-06-18T10:34:59Z</time>
      </trkpt>
      <trkpt lat="49.8761" lon="0.94949">
        <ele>37.3</ele>
        <time>2020-06-18T10:35:00Z</time>
      </trkpt>
      <trkpt lat="49.87609" lon="0.94963">
        <ele>36.7</ele>
        <time>2020-06-18T10:35:01Z</time>
      </trkpt>
      <trkpt lat="49.87606" lon="0.94977">
        <ele>36</ele>
        <time>2020-06-18T10:35:02Z</time>
      </trkpt>
      <trkpt lat="49.87603" lon="0.94991">
        <ele>35.3</ele>
        <time>2020-06-18T10:35:03Z</time>
      </trkpt>
      <trkpt lat="49.87601" lon="0.95006">
        <ele>34.6</ele>
        <time>2020-06-18T10:35:04Z</time>
      </trkpt>
      <trkpt lat="49.87597" lon="0.9502">
        <ele>33.8</ele>
        <time>2020-06-18T10:35:05Z</time>
      </trkpt>
      <trkpt lat="49.87594" lon="0.95034">
        <ele>33</ele>
        <time>2020-06-18T10:35:06Z</time>
      </trkpt>
      <trkpt lat="49.8759" lon="0.95048">
        <ele>32.3</ele>
        <time>2020-06-18T10:35:07Z</time>
      </trkpt>
      <trkpt lat="49.87586" lon="0.95061">
        <ele>31.6</ele>
        <time>2020-06-18T10:35:08Z</time>
      </trkpt>
      <trkpt lat="49.87581" lon="0.95074">
        <ele>30.9</ele>
        <time>2020-06-18T10:35:09Z</time>
      </trkpt>
      <trkpt lat="49.87575" lon="0.95087">
        <ele>30.2</ele>
        <time>2020-06-18T10:35:10Z</time>
      </trkpt>
      <trkpt lat="49.87569" lon="0.951">
        <ele>29.6</ele>
        <time>2020-06-18T10:35:11Z</time>
      </trkpt>
      <trkpt lat="49.87562" lon="0.95112">
        <ele>29</ele>
        <time>2020-06-18T10:35:12Z</time>
      </trkpt>
      <trkpt lat="49.87556" lon="0.95125">
        <ele>28.4</ele>
        <time>2020-06-18T10:35:13Z</time>
      </trkpt>
      <trkpt lat="49.87548" lon="0.95137">
        <ele>27.9</ele>
        <time>2020-06-18T10:35:14Z</time>
      </trkpt>
      <trkpt lat="49.87541" lon="0.95149">
        <ele>27.4</ele>
        <time>2020-06-18T10:35:15Z</time>
      </trkpt>
      <trkpt lat="49.87533" lon="0.9516">
        <ele>27</ele>
        <time>2020-06-18T10:35:16Z</time>
      </trkpt>
      <trkpt lat="49.87524" lon="0.9517">
        <ele>26.5</ele>
        <time>2020-06-18T10:35:17Z</time>
      </trkpt>
      <trkpt lat="49.87515" lon="0.9518">
        <ele>25.9</ele>
        <time>2020-06-18T10:35:18Z</time>
      </trkpt>
      <trkpt lat="49.87506" lon="0.9519">
        <ele>25.3</ele>
        <time>2020-06-18T10:35:19Z</time>
      </trkpt>
      <trkpt lat="49.87497" lon="0.952">
        <ele>24.7</ele>
        <time>2020-06-18T10:35:20Z</time>
      </trkpt>
      <trkpt lat="49.87488" lon="0.9521">
        <ele>24.1</ele>
        <time>2020-06-18T10:35:21Z</time>
      </trkpt>
      <trkpt lat="49.87479" lon="0.9522">
        <ele>23.4</ele>
        <time>2020-06-18T10:35:22Z</time>
      </trkpt>
      <trkpt lat="49.87469" lon="0.95228">
        <ele>22.8</ele>
        <time>2020-06-18T10:35:23Z</time>
      </trkpt>
      <trkpt lat="49.8746" lon="0.95236">
        <ele>22.2</ele>
        <time>2020-06-18T10:35:24Z</time>
      </trkpt>
      <trkpt lat="49.87451" lon="0.95244">
        <ele>21.7</ele>
        <time>2020-06-18T10:35:25Z</time>
      </trkpt>
      <trkpt lat="49.87443" lon="0.95253">
        <ele>21.1</ele>
        <time>2020-06-18T10:35:26Z</time>
      </trkpt>
      <trkpt lat="49.87435" lon="0.95262">
        <ele>20.6</ele>
        <time>2020-06-18T10:35:27Z</time>
      </trkpt>
      <trkpt lat="49.87427" lon="0.9527">
        <ele>20</ele>
        <time>2020-06-18T10:35:28Z</time>
      </trkpt>
      <trkpt lat="49.87418" lon="0.95278">
        <ele>19.4</ele>
        <time>2020-06-18T10:35:29Z</time>
      </trkpt>
      <trkpt lat="49.8741" lon="0.95286">
        <ele>18.8</ele>
        <time>2020-06-18T10:35:30Z</time>
      </trkpt>
      <trkpt lat="49.87402" lon="0.95295">
        <ele>18.1</ele>
        <time>2020-06-18T10:35:31Z</time>
      </trkpt>
      <trkpt lat="49.87395" lon="0.95303">
        <ele>17.5</ele>
        <time>2020-06-18T10:35:32Z</time>
      </trkpt>
      <trkpt lat="49.87389" lon="0.95309">
        <ele>17</ele>
        <time>2020-06-18T10:35:33Z</time>
      </trkpt>
      <trkpt lat="49.87383" lon="0.95317">
        <ele>16.4</ele>
        <time>2020-06-18T10:35:34Z</time>
      </trkpt>
      <trkpt lat="49.87378" lon="0.95325">
        <ele>15.9</ele>
        <time>2020-06-18T10:35:35Z</time>
      </trkpt>
      <trkpt lat="49.87373" lon="0.95335">
        <ele>15.4</ele>
        <time>2020-06-18T10:35:36Z</time>
      </trkpt>
      <trkpt lat="49.87368" lon="0.95345">
        <ele>14.9</ele>
        <time>2020-06-18T10:35:37Z</time>
      </trkpt>
      <trkpt lat="49.87365" lon="0.95356">
        <ele>14.5</ele>
        <time>2020-06-18T10:35:38Z</time>
      </trkpt>
      <trkpt lat="49.87363" lon="0.95368">
        <ele>14</ele>
        <time>2020-06-18T10:35:39Z</time>
      </trkpt>
      <trkpt lat="49.87361" lon="0.9538">
        <ele>13.6</ele>
        <time>2020-06-18T10:35:40Z</time>
      </trkpt>
      <trkpt lat="49.8736" lon="0.95391">
        <ele>13.3</ele>
        <time>2020-06-18T10:35:41Z</time>
      </trkpt>
      <trkpt lat="49.87359" lon="0.95402">
        <ele>13.1</ele>
        <time>2020-06-18T10:35:42Z</time>
      </trkpt>
      <trkpt lat="49.87359" lon="0.95411">
        <ele>13</ele>
        <time>2020-06-18T10:35:43Z</time>
      </trkpt>
      <trkpt lat="49.87361" lon="0.95418">
        <ele>12.9</ele>
        <time>2020-06-18T10:35:44Z</time>
      </trkpt>
      <trkpt lat="49.87362" lon="0.95424">
        <ele>12.7</ele>
        <time>2020-06-18T10:35:45Z</time>
      </trkpt>
      <trkpt lat="49.87362" lon="0.95431">
        <ele>12.6</ele>
        <time>2020-06-18T10:35:46Z</time>
      </trkpt>
      <trkpt lat="49.87361" lon="0.95437">
        <ele>12.5</ele>
        <time>2020-06-18T10:35:47Z</time>
      </trkpt>
      <trkpt lat="49.87362" lon="0.95444">
        <ele>13.1</ele>
        <time>2020-06-18T10:35:48Z</time>
      </trkpt>
      <trkpt lat="49.87361" lon="0.9545">
        <ele>13.2</ele>
        <time>2020-06-18T10:35:49Z</time>
      </trkpt>
      <trkpt lat="49.87362" lon="0.95456">
        <ele>13.2</ele>
        <time>2020-06-18T10:35:50Z</time>
      </trkpt>
      <trkpt lat="49.87364" lon="0.95462">
        <ele>11.7</ele>
        <time>2020-06-18T10:35:51Z</time>
      </trkpt>
      <trkpt lat="49.87367" lon="0.95469">
        <ele>11.6</ele>
        <time>2020-06-18T10:35:52Z</time>
      </trkpt>
      <trkpt lat="49.87372" lon="0.95475">
        <ele>11.4</ele>
        <time>2020-06-18T10:35:53Z</time>
      </trkpt>
      <trkpt lat="49.87375" lon="0.95481">
        <ele>11.2</ele>
        <time>2020-06-18T10:35:54Z</time>
      </trkpt>
      <trkpt lat="49.87378" lon="0.95489">
        <ele>11</ele>
        <time>2020-06-18T10:35:55Z</time>
      </trkpt>
      <trkpt lat="49.87379" lon="0.95498">
        <ele>10.7</ele>
        <time>2020-06-18T10:35:56Z</time>
      </trkpt>
      <trkpt lat="49.87382" lon="0.95507">
        <ele>10.5</ele>
        <time>2020-06-18T10:35:57Z</time>
      </trkpt>
      <trkpt lat="49.87385" lon="0.95516">
        <ele>10.2</ele>
        <time>2020-06-18T10:35:58Z</time>
      </trkpt>
      <trkpt lat="49.87388" lon="0.95525">
        <ele>10</ele>
        <time>2020-06-18T10:35:59Z</time>
      </trkpt>
      <trkpt lat="49.87391" lon="0.95533">
        <ele>9.9</ele>
        <time>2020-06-18T10:36:00Z</time>
      </trkpt>
      <trkpt lat="49.87393" lon="0.95543">
        <ele>9.8</ele>
        <time>2020-06-18T10:36:01Z</time>
      </trkpt>
      <trkpt lat="49.87395" lon="0.95552">
        <ele>9.7</ele>
        <time>2020-06-18T10:36:02Z</time>
      </trkpt>
      <trkpt lat="49.87397" lon="0.9556">
        <ele>9.6</ele>
        <time>2020-06-18T10:36:03Z</time>
      </trkpt>
      <trkpt lat="49.87399" lon="0.95568">
        <ele>9.5</ele>
        <time>2020-06-18T10:36:04Z</time>
      </trkpt>
      <trkpt lat="49.87402" lon="0.95577">
        <ele>9.4</ele>
        <time>2020-06-18T10:36:05Z</time>
      </trkpt>
      <trkpt lat="49.87403" lon="0.95586">
        <ele>9.4</ele>
        <time>2020-06-18T10:36:06Z</time>
      </trkpt>
      <trkpt lat="49.87405" lon="0.95594">
        <ele>9.3</ele>
        <time>2020-06-18T10:36:07Z</time>
      </trkpt>
      <trkpt lat="49.87407" lon="0.95603">
        <ele>9.2</ele>
        <time>2020-06-18T10:36:08Z</time>
      </trkpt>
      <trkpt lat="49.8741" lon="0.95611">
        <ele>9.1</ele>
        <time>2020-06-18T10:36:09Z</time>
      </trkpt>
      <trkpt lat="49.87411" lon="0.9562">
        <ele>9.1</ele>
        <time>2020-06-18T10:36:10Z</time>
      </trkpt>
      <trkpt lat="49.87413" lon="0.95629">
        <ele>9</ele>
        <time>2020-06-18T10:36:11Z</time>
      </trkpt>
      <trkpt lat="49.87415" lon="0.95638">
        <ele>9</ele>
        <time>2020-06-18T10:36:12Z</time>
      </trkpt>
      <trkpt lat="49.87418" lon="0.95646">
        <ele>8.9</ele>
        <time>2020-06-18T10:36:13Z</time>
      </trkpt>
      <trkpt lat="49.8742" lon="0.95654">
        <ele>8.8</ele>
        <time>2020-06-18T10:36:14Z</time>
      </trkpt>
      <trkpt lat="49.87423" lon="0.95662">
        <ele>8.8</ele>
        <time>2020-06-18T10:36:15Z</time>
      </trkpt>
      <trkpt lat="49.87425" lon="0.9567">
        <ele>8.7</ele>
        <time>2020-06-18T10:36:16Z</time>
      </trkpt>
      <trkpt lat="49.87427" lon="0.95679">
        <ele>8.6</ele>
        <time>2020-06-18T10:36:17Z</time>
      </trkpt>
      <trkpt lat="49.8743" lon="0.95688">
        <ele>8.5</ele>
        <time>2020-06-18T10:36:18Z</time>
      </trkpt>
      <trkpt lat="49.87432" lon="0.95698">
        <ele>8.4</ele>
        <time>2020-06-18T10:36:19Z</time>
      </trkpt>
      <trkpt lat="49.87434" lon="0.95707">
        <ele>8.3</ele>
        <time>2020-06-18T10:36:20Z</time>
      </trkpt>
      <trkpt lat="49.87437" lon="0.95717">
        <ele>8.3</ele>
        <time>2020-06-18T10:36:21Z</time>
      </trkpt>
      <trkpt lat="49.87439" lon="0.95726">
        <ele>8.3</ele>
        <time>2020-06-18T10:36:22Z</time>
      </trkpt>
      <trkpt lat="49.87441" lon="0.95734">
        <ele>8.3</ele>
        <time>2020-06-18T10:36:23Z</time>
      </trkpt>
      <trkpt lat="49.87442" lon="0.95743">
        <ele>8.3</ele>
        <time>2020-06-18T10:36:24Z</time>
      </trkpt>
      <trkpt lat="49.87444" lon="0.95752">
        <ele>8.3</ele>
        <time>2020-06-18T10:36:25Z</time>
      </trkpt>
      <trkpt lat="49.87442" lon="0.95761">
        <ele>8.3</ele>
        <time>2020-06-18T10:36:26Z</time>
      </trkpt>
      <trkpt lat="49.87442" lon="0.9577">
        <ele>8.3</ele>
        <time>2020-06-18T10:36:27Z</time>
      </trkpt>
      <trkpt lat="49.87439" lon="0.95778">
        <ele>8.3</ele>
        <time>2020-06-18T10:36:28Z</time>
      </trkpt>
      <trkpt lat="49.87434" lon="0.95785">
        <ele>8.4</ele>
        <time>2020-06-18T10:36:29Z</time>
      </trkpt>
      <trkpt lat="49.87432" lon="0.95794">
        <ele>8.5</ele>
        <time>2020-06-18T10:36:30Z</time>
      </trkpt>
      <trkpt lat="49.87429" lon="0.95803">
        <ele>8.5</ele>
        <time>2020-06-18T10:36:31Z</time>
      </trkpt>
      <trkpt lat="49.87427" lon="0.95811">
        <ele>8.6</ele>
        <time>2020-06-18T10:36:32Z</time>
      </trkpt>
      <trkpt lat="49.87424" lon="0.95819">
        <ele>8.7</ele>
        <time>2020-06-18T10:36:33Z</time>
      </trkpt>
      <trkpt lat="49.87423" lon="0.95827">
        <ele>8.7</ele>
        <time>2020-06-18T10:36:34Z</time>
      </trkpt>
      <trkpt lat="49.87422" lon="0.95835">
        <ele>8.8</ele>
        <time>2020-06-18T10:36:35Z</time>
      </trkpt>
      <trkpt lat="49.8742" lon="0.95842">
        <ele>8.8</ele>
        <time>2020-06-18T10:36:36Z</time>
      </trkpt>
      <trkpt lat="49.87418" lon="0.9585">
        <ele>8.8</ele>
        <time>2020-06-18T10:36:37Z</time>
      </trkpt>
      <trkpt lat="49.87416" lon="0.95858">
        <ele>8.8</ele>
        <time>2020-06-18T10:36:38Z</time>
      </trkpt>
      <trkpt lat="49.87413" lon="0.95867">
        <ele>8.8</ele>
        <time>2020-06-18T10:36:39Z</time>
      </trkpt>
      <trkpt lat="49.87411" lon="0.95875">
        <ele>8.9</ele>
        <time>2020-06-18T10:36:40Z</time>
      </trkpt>
      <trkpt lat="49.87408" lon="0.95884">
        <ele>8.9</ele>
        <time>2020-06-18T10:36:41Z</time>
      </trkpt>
      <trkpt lat="49.87406" lon="0.95894">
        <ele>9</ele>
        <time>2020-06-18T10:36:42Z</time>
      </trkpt>
      <trkpt lat="49.87404" lon="0.95905">
        <ele>9</ele>
        <time>2020-06-18T10:36:43Z</time>
      </trkpt>
      <trkpt lat="49.87401" lon="0.95915">
        <ele>9.1</ele>
        <time>2020-06-18T10:36:44Z</time>
      </trkpt>
      <trkpt lat="49.87398" lon="0.95925">
        <ele>9.2</ele>
        <time>2020-06-18T10:36:45Z</time>
      </trkpt>
      <trkpt lat="49.87395" lon="0.95935">
        <ele>9.2</ele>
        <time>2020-06-18T10:36:46Z</time>
      </trkpt>
      <trkpt lat="49.87393" lon="0.95944">
        <ele>9.3</ele>
        <time>2020-06-18T10:36:47Z</time>
      </trkpt>
      <trkpt lat="49.8739" lon="0.95953">
        <ele>9.4</ele>
        <time>2020-06-18T10:36:48Z</time>
      </trkpt>
      <trkpt lat="49.87388" lon="0.9596">
        <ele>9.5</ele>
        <time>2020-06-18T10:36:49Z</time>
      </trkpt>
      <trkpt lat="49.87385" lon="0.95968">
        <ele>9.6</ele>
        <time>2020-06-18T10:36:50Z</time>
      </trkpt>
      <trkpt lat="49.87382" lon="0.95976">
        <ele>9.8</ele>
        <time>2020-06-18T10:36:51Z</time>
      </trkpt>
      <trkpt lat="49.87378" lon="0.95983">
        <ele>10</ele>
        <time>2020-06-18T10:36:52Z</time>
      </trkpt>
      <trkpt lat="49.87372" lon="0.9599">
        <ele>10.2</ele>
        <time>2020-06-18T10:36:53Z</time>
      </trkpt>
      <trkpt lat="49.87369" lon="0.95994">
        <ele>10.4</ele>
        <time>2020-06-18T10:36:54Z</time>
      </trkpt>
      <trkpt lat="49.87368" lon="0.96">
        <ele>10.5</ele>
        <time>2020-06-18T10:36:55Z</time>
      </trkpt>
      <trkpt lat="49.87369" lon="0.96007">
        <ele>10.6</ele>
        <time>2020-06-18T10:36:56Z</time>
      </trkpt>
      <trkpt lat="49.8737" lon="0.96013">
        <ele>10.6</ele>
        <time>2020-06-18T10:36:57Z</time>
      </trkpt>
      <trkpt lat="49.87372" lon="0.9602">
        <ele>10.7</ele>
        <time>2020-06-18T10:36:58Z</time>
      </trkpt>
      <trkpt lat="49.87373" lon="0.96028">
        <ele>10.8</ele>
        <time>2020-06-18T10:36:59Z</time>
      </trkpt>
      <trkpt lat="49.87373" lon="0.96035">
        <ele>10.8</ele>
        <time>2020-06-18T10:37:00Z</time>
      </trkpt>
      <trkpt lat="49.87373" lon="0.96043">
        <ele>10.8</ele>
        <time>2020-06-18T10:37:01Z</time>
      </trkpt>
      <trkpt lat="49.87373" lon="0.96049">
        <ele>10.9</ele>
        <time>2020-06-18T10:37:02Z</time>
      </trkpt>
      <trkpt lat="49.87375" lon="0.96055">
        <ele>11</ele>
        <time>2020-06-18T10:37:03Z</time>
      </trkpt>
      <trkpt lat="49.87378" lon="0.96061">
        <ele>11.1</ele>
        <time>2020-06-18T10:37:04Z</time>
      </trkpt>
      <trkpt lat="49.87381" lon="0.96066">
        <ele>11.3</ele>
        <time>2020-06-18T10:37:05Z</time>
      </trkpt>
      <trkpt lat="49.87384" lon="0.96072">
        <ele>11.5</ele>
        <time>2020-06-18T10:37:06Z</time>
      </trkpt>
      <trkpt lat="49.87386" lon="0.96075">
        <ele>11.6</ele>
        <time>2020-06-18T10:37:07Z</time>
      </trkpt>
      <trkpt lat="49.8739" lon="0.96081">
        <ele>11.8</ele>
        <time>2020-06-18T10:37:08Z</time>
      </trkpt>
      <trkpt lat="49.87393" lon="0.96085">
        <ele>12</ele>
        <time>2020-06-18T10:37:09Z</time>
      </trkpt>
      <trkpt lat="49.87397" lon="0.9609">
        <ele>12.2</ele>
        <time>2020-06-18T10:37:10Z</time>
      </trkpt>
      <trkpt lat="49.87402" lon="0.96092">
        <ele>12.4</ele>
        <time>2020-06-18T10:37:11Z</time>
      </trkpt>
      <trkpt lat="49.87408" lon="0.96093">
        <ele>12.6</ele>
        <time>2020-06-18T10:37:12Z</time>
      </trkpt>
      <trkpt lat="49.87413" lon="0.96096">
        <ele>12.8</ele>
        <time>2020-06-18T10:37:13Z</time>
      </trkpt>
      <trkpt lat="49.87417" lon="0.96098">
        <ele>13.1</ele>
        <time>2020-06-18T10:37:14Z</time>
      </trkpt>
      <trkpt lat="49.87423" lon="0.96102">
        <ele>13.3</ele>
        <time>2020-06-18T10:37:15Z</time>
      </trkpt>
      <trkpt lat="49.87426" lon="0.96102">
        <ele>13.5</ele>
        <time>2020-06-18T10:37:16Z</time>
      </trkpt>
      <trkpt lat="49.8743" lon="0.96102">
        <ele>13.7</ele>
        <time>2020-06-18T10:37:17Z</time>
      </trkpt>
      <trkpt lat="49.87433" lon="0.961">
        <ele>13.9</ele>
        <time>2020-06-18T10:37:18Z</time>
      </trkpt>
      <trkpt lat="49.87436" lon="0.96098">
        <ele>14.1</ele>
        <time>2020-06-18T10:37:19Z</time>
      </trkpt>
      <trkpt lat="49.87439" lon="0.96098">
        <ele>14.3</ele>
        <time>2020-06-18T10:37:20Z</time>
      </trkpt>
      <trkpt lat="49.87443" lon="0.96097">
        <ele>14.5</ele>
        <time>2020-06-18T10:37:21Z</time>
      </trkpt>
      <trkpt lat="49.87447" lon="0.96095">
        <ele>14.8</ele>
        <time>2020-06-18T10:37:22Z</time>
      </trkpt>
      <trkpt lat="49.8745" lon="0.96094">
        <ele>15</ele>
        <time>2020-06-18T10:37:23Z</time>
      </trkpt>
      <trkpt lat="49.87454" lon="0.96094">
        <ele>15.3</ele>
        <time>2020-06-18T10:37:24Z</time>
      </trkpt>
      <trkpt lat="49.87458" lon="0.96093">
        <ele>15.5</ele>
        <time>2020-06-18T10:37:25Z</time>
      </trkpt>
      <trkpt lat="49.8746" lon="0.96093">
        <ele>15.7</ele>
        <time>2020-06-18T10:37:26Z</time>
      </trkpt>
      <trkpt lat="49.87464" lon="0.96091">
        <ele>15.9</ele>
        <time>2020-06-18T10:37:27Z</time>
      </trkpt>
      <trkpt lat="49.87467" lon="0.9609">
        <ele>16.1</ele>
        <time>2020-06-18T10:37:28Z</time>
      </trkpt>
      <trkpt lat="49.87472" lon="0.96089">
        <ele>16.3</ele>
        <time>2020-06-18T10:37:29Z</time>
      </trkpt>
      <trkpt lat="49.87473" lon="0.96089">
        <ele>16.4</ele>
        <time>2020-06-18T10:37:30Z</time>
      </trkpt>
      <trkpt lat="49.87477" lon="0.96089">
        <ele>16.6</ele>
        <time>2020-06-18T10:37:31Z</time>
      </trkpt>
      <trkpt lat="49.8748" lon="0.96088">
        <ele>16.7</ele>
        <time>2020-06-18T10:37:32Z</time>
      </trkpt>
      <trkpt lat="49.87484" lon="0.96088">
        <ele>16.9</ele>
        <time>2020-06-18T10:37:33Z</time>
      </trkpt>
      <trkpt lat="49.87487" lon="0.96088">
        <ele>17</ele>
        <time>2020-06-18T10:37:34Z</time>
      </trkpt>
      <trkpt lat="49.87491" lon="0.96087">
        <ele>17.5</ele>
        <time>2020-06-18T10:37:35Z</time>
      </trkpt>
      <trkpt lat="49.87494" lon="0.96086">
        <ele>17.7</ele>
        <time>2020-06-18T10:37:36Z</time>
      </trkpt>
      <trkpt lat="49.87498" lon="0.96084">
        <ele>18</ele>
        <time>2020-06-18T10:37:37Z</time>
      </trkpt>
      <trkpt lat="49.87502" lon="0.96084">
        <ele>18.2</ele>
        <time>2020-06-18T10:37:38Z</time>
      </trkpt>
      <trkpt lat="49.87505" lon="0.96082">
        <ele>18.4</ele>
        <time>2020-06-18T10:37:39Z</time>
      </trkpt>
      <trkpt lat="49.87507" lon="0.96082">
        <ele>18.6</ele>
        <time>2020-06-18T10:37:40Z</time>
      </trkpt>
      <trkpt lat="49.87509" lon="0.96081">
        <ele>18.7</ele>
        <time>2020-06-18T10:37:41Z</time>
      </trkpt>
      <trkpt lat="49.87511" lon="0.96081">
        <ele>18.9</ele>
        <time>2020-06-18T10:37:42Z</time>
      </trkpt>
      <trkpt lat="49.87514" lon="0.9608">
        <ele>19</ele>
        <time>2020-06-18T10:37:43Z</time>
      </trkpt>
      <trkpt lat="49.87518" lon="0.96078">
        <ele>19.3</ele>
        <time>2020-06-18T10:37:44Z</time>
      </trkpt>
      <trkpt lat="49.87522" lon="0.96077">
        <ele>19.6</ele>
        <time>2020-06-18T10:37:45Z</time>
      </trkpt>
      <trkpt lat="49.87526" lon="0.96077">
        <ele>19.8</ele>
        <time>2020-06-18T10:37:46Z</time>
      </trkpt>
      <trkpt lat="49.87527" lon="0.96077">
        <ele>19.9</ele>
        <time>2020-06-18T10:37:47Z</time>
      </trkpt>
      <trkpt lat="49.87531" lon="0.96077">
        <ele>20.1</ele>
        <time>2020-06-18T10:37:48Z</time>
      </trkpt>
      <trkpt lat="49.87534" lon="0.96076">
        <ele>20.4</ele>
        <time>2020-06-18T10:37:49Z</time>
      </trkpt>
      <trkpt lat="49.87539" lon="0.96076">
        <ele>20.7</ele>
        <time>2020-06-18T10:37:50Z</time>
      </trkpt>
      <trkpt lat="49.87543" lon="0.96076">
        <ele>21</ele>
        <time>2020-06-18T10:37:51Z</time>
      </trkpt>
      <trkpt lat="49.87545" lon="0.96075">
        <ele>21.1</ele>
        <time>2020-06-18T10:37:52Z</time>
      </trkpt>
      <trkpt lat="49.87549" lon="0.96075">
        <ele>21.4</ele>
        <time>2020-06-18T10:37:53Z</time>
      </trkpt>
      <trkpt lat="49.87553" lon="0.96074">
        <ele>21.6</ele>
        <time>2020-06-18T10:37:54Z</time>
      </trkpt>
      <trkpt lat="49.87555" lon="0.96073">
        <ele>21.8</ele>
        <time>2020-06-18T10:37:55Z</time>
      </trkpt>
      <trkpt lat="49.87558" lon="0.96073">
        <ele>22</ele>
        <time>2020-06-18T10:37:56Z</time>
      </trkpt>
      <trkpt lat="49.87562" lon="0.96072">
        <ele>22.3</ele>
        <time>2020-06-18T10:37:57Z</time>
      </trkpt>
      <trkpt lat="49.87565" lon="0.96071">
        <ele>22.6</ele>
        <time>2020-06-18T10:37:58Z</time>
      </trkpt>
      <trkpt lat="49.87569" lon="0.9607">
        <ele>22.9</ele>
        <time>2020-06-18T10:37:59Z</time>
      </trkpt>
      <trkpt lat="49.87571" lon="0.96069">
        <ele>23</ele>
        <time>2020-06-18T10:38:00Z</time>
      </trkpt>
      <trkpt lat="49.87575" lon="0.9607">
        <ele>23.3</ele>
        <time>2020-06-18T10:38:01Z</time>
      </trkpt>
      <trkpt lat="49.87578" lon="0.96069">
        <ele>23.6</ele>
        <time>2020-06-18T10:38:02Z</time>
      </trkpt>
      <trkpt lat="49.87582" lon="0.96068">
        <ele>23.9</ele>
        <time>2020-06-18T10:38:03Z</time>
      </trkpt>
      <trkpt lat="49.87584" lon="0.96068">
        <ele>24</ele>
        <time>2020-06-18T10:38:04Z</time>
      </trkpt>
      <trkpt lat="49.87588" lon="0.96067">
        <ele>24.2</ele>
        <time>2020-06-18T10:38:05Z</time>
      </trkpt>
      <trkpt lat="49.8759" lon="0.96066">
        <ele>24.4</ele>
        <time>2020-06-18T10:38:06Z</time>
      </trkpt>
      <trkpt lat="49.87595" lon="0.96065">
        <ele>24.6</ele>
        <time>2020-06-18T10:38:07Z</time>
      </trkpt>
      <trkpt lat="49.87596" lon="0.96064">
        <ele>24.8</ele>
        <time>2020-06-18T10:38:08Z</time>
      </trkpt>
      <trkpt lat="49.876" lon="0.96064">
        <ele>24.9</ele>
        <time>2020-06-18T10:38:09Z</time>
      </trkpt>
      <trkpt lat="49.87604" lon="0.96063">
        <ele>25.1</ele>
        <time>2020-06-18T10:38:10Z</time>
      </trkpt>
      <trkpt lat="49.87605" lon="0.96062">
        <ele>25.2</ele>
        <time>2020-06-18T10:38:11Z</time>
      </trkpt>
      <trkpt lat="49.87608" lon="0.96062">
        <ele>25.4</ele>
        <time>2020-06-18T10:38:12Z</time>
      </trkpt>
      <trkpt lat="49.87611" lon="0.9606">
        <ele>25.7</ele>
        <time>2020-06-18T10:38:13Z</time>
      </trkpt>
      <trkpt lat="49.87615" lon="0.9606">
        <ele>26</ele>
        <time>2020-06-18T10:38:14Z</time>
      </trkpt>
      <trkpt lat="49.87618" lon="0.9606">
        <ele>26.2</ele>
        <time>2020-06-18T10:38:15Z</time>
      </trkpt>
      <trkpt lat="49.8762" lon="0.9606">
        <ele>26.3</ele>
        <time>2020-06-18T10:38:16Z</time>
      </trkpt>
      <trkpt lat="49.87623" lon="0.96063">
        <ele>26.5</ele>
        <time>2020-06-18T10:38:17Z</time>
      </trkpt>
      <trkpt lat="49.87628" lon="0.96061">
        <ele>26.7</ele>
        <time>2020-06-18T10:38:18Z</time>
      </trkpt>
      <trkpt lat="49.87632" lon="0.9606">
        <ele>27</ele>
        <time>2020-06-18T10:38:19Z</time>
      </trkpt>
      <trkpt lat="49.87633" lon="0.9606">
        <ele>27</ele>
        <time>2020-06-18T10:38:20Z</time>
      </trkpt>
      <trkpt lat="49.87636" lon="0.96059">
        <ele>27.2</ele>
        <time>2020-06-18T10:38:21Z</time>
      </trkpt>
      <trkpt lat="49.87642" lon="0.96059">
        <ele>27.5</ele>
        <time>2020-06-18T10:38:22Z</time>
      </trkpt>
      <trkpt lat="49.87645" lon="0.96059">
        <ele>27.7</ele>
        <time>2020-06-18T10:38:23Z</time>
      </trkpt>
      <trkpt lat="49.87648" lon="0.96059">
        <ele>27.9</ele>
        <time>2020-06-18T10:38:24Z</time>
      </trkpt>
      <trkpt lat="49.87651" lon="0.96059">
        <ele>28</ele>
        <time>2020-06-18T10:38:25Z</time>
      </trkpt>
      <trkpt lat="49.87654" lon="0.96058">
        <ele>28.2</ele>
        <time>2020-06-18T10:38:26Z</time>
      </trkpt>
      <trkpt lat="49.87657" lon="0.96057">
        <ele>28.4</ele>
        <time>2020-06-18T10:38:27Z</time>
      </trkpt>
      <trkpt lat="49.87659" lon="0.96057">
        <ele>28.4</ele>
        <time>2020-06-18T10:38:28Z</time>
      </trkpt>
      <trkpt lat="49.87662" lon="0.96058">
        <ele>28.6</ele>
        <time>2020-06-18T10:38:29Z</time>
      </trkpt>
      <trkpt lat="49.87665" lon="0.96058">
        <ele>28.7</ele>
        <time>2020-06-18T10:38:30Z</time>
      </trkpt>
      <trkpt lat="49.87669" lon="0.96057">
        <ele>28.9</ele>
        <time>2020-06-18T10:38:31Z</time>
      </trkpt>
      <trkpt lat="49.87673" lon="0.96057">
        <ele>29.2</ele>
        <time>2020-06-18T10:38:32Z</time>
      </trkpt>
      <trkpt lat="49.87676" lon="0.96057">
        <ele>29.3</ele>
        <time>2020-06-18T10:38:33Z</time>
      </trkpt>
      <trkpt lat="49.87678" lon="0.96057">
        <ele>29.5</ele>
        <time>2020-06-18T10:38:34Z</time>
      </trkpt>
      <trkpt lat="49.87681" lon="0.96057">
        <ele>29.6</ele>
        <time>2020-06-18T10:38:35Z</time>
      </trkpt>
      <trkpt lat="49.87684" lon="0.96058">
        <ele>29.8</ele>
        <time>2020-06-18T10:38:36Z</time>
      </trkpt>
      <trkpt lat="49.87686" lon="0.96059">
        <ele>29.9</ele>
        <time>2020-06-18T10:38:37Z</time>
      </trkpt>
      <trkpt lat="49.87689" lon="0.96059">
        <ele>30.1</ele>
        <time>2020-06-18T10:38:38Z</time>
      </trkpt>
      <trkpt lat="49.87693" lon="0.96061">
        <ele>30.3</ele>
        <time>2020-06-18T10:38:39Z</time>
      </trkpt>
      <trkpt lat="49.87694" lon="0.96061">
        <ele>30.4</ele>
        <time>2020-06-18T10:38:40Z</time>
      </trkpt>
      <trkpt lat="49.87697" lon="0.96064">
        <ele>30.5</ele>
        <time>2020-06-18T10:38:41Z</time>
      </trkpt>
      <trkpt lat="49.87699" lon="0.96066">
        <ele>30.7</ele>
        <time>2020-06-18T10:38:42Z</time>
      </trkpt>
      <trkpt lat="49.87702" lon="0.96069">
        <ele>30.8</ele>
        <time>2020-06-18T10:38:43Z</time>
      </trkpt>
      <trkpt lat="49.87705" lon="0.96071">
        <ele>31</ele>
        <time>2020-06-18T10:38:44Z</time>
      </trkpt>
      <trkpt lat="49.87709" lon="0.96072">
        <ele>31.3</ele>
        <time>2020-06-18T10:38:45Z</time>
      </trkpt>
      <trkpt lat="49.8771" lon="0.96073">
        <ele>31.4</ele>
        <time>2020-06-18T10:38:46Z</time>
      </trkpt>
      <trkpt lat="49.87714" lon="0.96075">
        <ele>31.6</ele>
        <time>2020-06-18T10:38:47Z</time>
      </trkpt>
      <trkpt lat="49.87718" lon="0.96076">
        <ele>31.8</ele>
        <time>2020-06-18T10:38:48Z</time>
      </trkpt>
      <trkpt lat="49.87719" lon="0.96077">
        <ele>31.9</ele>
        <time>2020-06-18T10:38:49Z</time>
      </trkpt>
      <trkpt lat="49.87722" lon="0.96078">
        <ele>32.1</ele>
        <time>2020-06-18T10:38:50Z</time>
      </trkpt>
      <trkpt lat="49.87725" lon="0.9608">
        <ele>32.3</ele>
        <time>2020-06-18T10:38:51Z</time>
      </trkpt>
      <trkpt lat="49.87728" lon="0.96082">
        <ele>32.5</ele>
        <time>2020-06-18T10:38:52Z</time>
      </trkpt>
      <trkpt lat="49.87731" lon="0.96084">
        <ele>32.7</ele>
        <time>2020-06-18T10:38:53Z</time>
      </trkpt>
      <trkpt lat="49.87734" lon="0.96085">
        <ele>32.9</ele>
        <time>2020-06-18T10:38:54Z</time>
      </trkpt>
      <trkpt lat="49.87737" lon="0.96087">
        <ele>33.1</ele>
        <time>2020-06-18T10:38:55Z</time>
      </trkpt>
      <trkpt lat="49.8774" lon="0.9609">
        <ele>33.3</ele>
        <time>2020-06-18T10:38:56Z</time>
      </trkpt>
      <trkpt lat="49.87742" lon="0.9609">
        <ele>33.4</ele>
        <time>2020-06-18T10:38:57Z</time>
      </trkpt>
      <trkpt lat="49.87745" lon="0.96092">
        <ele>33.6</ele>
        <time>2020-06-18T10:38:58Z</time>
      </trkpt>
      <trkpt lat="49.87746" lon="0.96093">
        <ele>33.7</ele>
        <time>2020-06-18T10:38:59Z</time>
      </trkpt>
      <trkpt lat="49.8775" lon="0.96094">
        <ele>33.9</ele>
        <time>2020-06-18T10:39:00Z</time>
      </trkpt>
      <trkpt lat="49.87752" lon="0.96095">
        <ele>34</ele>
        <time>2020-06-18T10:39:01Z</time>
      </trkpt>
      <trkpt lat="49.87754" lon="0.96095">
        <ele>34.2</ele>
        <time>2020-06-18T10:39:02Z</time>
      </trkpt>
      <trkpt lat="49.87758" lon="0.96096">
        <ele>34.6</ele>
        <time>2020-06-18T10:39:03Z</time>
      </trkpt>
      <trkpt lat="49.87761" lon="0.96096">
        <ele>35</ele>
        <time>2020-06-18T10:39:04Z</time>
      </trkpt>
      <trkpt lat="49.87765" lon="0.96097">
        <ele>35.4</ele>
        <time>2020-06-18T10:39:05Z</time>
      </trkpt>
      <trkpt lat="49.87767" lon="0.96099">
        <ele>35.7</ele>
        <time>2020-06-18T10:39:06Z</time>
      </trkpt>
      <trkpt lat="49.8777" lon="0.96099">
        <ele>36</ele>
        <time>2020-06-18T10:39:07Z</time>
      </trkpt>
      <trkpt lat="49.87773" lon="0.96101">
        <ele>36.2</ele>
        <time>2020-06-18T10:39:08Z</time>
      </trkpt>
      <trkpt lat="49.87775" lon="0.96102">
        <ele>36.3</ele>
        <time>2020-06-18T10:39:09Z</time>
      </trkpt>
      <trkpt lat="49.87778" lon="0.96103">
        <ele>36.6</ele>
        <time>2020-06-18T10:39:10Z</time>
      </trkpt>
      <trkpt lat="49.87779" lon="0.96103">
        <ele>36.6</ele>
        <time>2020-06-18T10:39:11Z</time>
      </trkpt>
      <trkpt lat="49.87782" lon="0.96105">
        <ele>36.9</ele>
        <time>2020-06-18T10:39:12Z</time>
      </trkpt>
      <trkpt lat="49.87783" lon="0.96106">
        <ele>36.9</ele>
        <time>2020-06-18T10:39:13Z</time>
      </trkpt>
      <trkpt lat="49.87786" lon="0.96109">
        <ele>37.2</ele>
        <time>2020-06-18T10:39:14Z</time>
      </trkpt>
      <trkpt lat="49.87789" lon="0.96111">
        <ele>37.3</ele>
        <time>2020-06-18T10:39:15Z</time>
      </trkpt>
      <trkpt lat="49.87793" lon="0.96114">
        <ele>37.5</ele>
        <time>2020-06-18T10:39:16Z</time>
      </trkpt>
      <trkpt lat="49.87798" lon="0.96117">
        <ele>37.8</ele>
        <time>2020-06-18T10:39:17Z</time>
      </trkpt>
      <trkpt lat="49.87801" lon="0.96118">
        <ele>38</ele>
        <time>2020-06-18T10:39:18Z</time>
      </trkpt>
      <trkpt lat="49.87805" lon="0.9612">
        <ele>38.2</ele>
        <time>2020-06-18T10:39:19Z</time>
      </trkpt>
      <trkpt lat="49.87809" lon="0.96122">
        <ele>38.4</ele>
        <time>2020-06-18T10:39:20Z</time>
      </trkpt>
      <trkpt lat="49.87812" lon="0.96123">
        <ele>38.5</ele>
        <time>2020-06-18T10:39:21Z</time>
      </trkpt>
      <trkpt lat="49.87815" lon="0.96126">
        <ele>38.7</ele>
        <time>2020-06-18T10:39:22Z</time>
      </trkpt>
      <trkpt lat="49.87819" lon="0.96127">
        <ele>38.9</ele>
        <time>2020-06-18T10:39:23Z</time>
      </trkpt>
      <trkpt lat="49.87822" lon="0.9613">
        <ele>39.1</ele>
        <time>2020-06-18T10:39:24Z</time>
      </trkpt>
      <trkpt lat="49.87826" lon="0.96131">
        <ele>39.3</ele>
        <time>2020-06-18T10:39:25Z</time>
      </trkpt>
      <trkpt lat="49.87829" lon="0.96133">
        <ele>39.4</ele>
        <time>2020-06-18T10:39:26Z</time>
      </trkpt>
      <trkpt lat="49.87833" lon="0.96135">
        <ele>39.5</ele>
        <time>2020-06-18T10:39:27Z</time>
      </trkpt>
      <trkpt lat="49.87835" lon="0.96137">
        <ele>39.5</ele>
        <time>2020-06-18T10:39:28Z</time>
      </trkpt>
      <trkpt lat="49.87838" lon="0.96139">
        <ele>39.6</ele>
        <time>2020-06-18T10:39:29Z</time>
      </trkpt>
      <trkpt lat="49.87842" lon="0.96141">
        <ele>39.7</ele>
        <time>2020-06-18T10:39:30Z</time>
      </trkpt>
      <trkpt lat="49.87846" lon="0.96143">
        <ele>39.8</ele>
        <time>2020-06-18T10:39:31Z</time>
      </trkpt>
      <trkpt lat="49.87849" lon="0.96145">
        <ele>39.9</ele>
        <time>2020-06-18T10:39:32Z</time>
      </trkpt>
      <trkpt lat="49.87852" lon="0.96147">
        <ele>40.1</ele>
        <time>2020-06-18T10:39:33Z</time>
      </trkpt>
      <trkpt lat="49.87857" lon="0.96149">
        <ele>40.2</ele>
        <time>2020-06-18T10:39:34Z</time>
      </trkpt>
      <trkpt lat="49.87858" lon="0.9615">
        <ele>40.2</ele>
        <time>2020-06-18T10:39:35Z</time>
      </trkpt>
      <trkpt lat="49.87862" lon="0.96152">
        <ele>40.3</ele>
        <time>2020-06-18T10:39:36Z</time>
      </trkpt>
      <trkpt lat="49.87864" lon="0.96154">
        <ele>40.4</ele>
        <time>2020-06-18T10:39:37Z</time>
      </trkpt>
      <trkpt lat="49.87867" lon="0.96157">
        <ele>40.4</ele>
        <time>2020-06-18T10:39:38Z</time>
      </trkpt>
      <trkpt lat="49.8787" lon="0.96161">
        <ele>40.5</ele>
        <time>2020-06-18T10:39:39Z</time>
      </trkpt>
      <trkpt lat="49.87874" lon="0.96163">
        <ele>40.5</ele>
        <time>2020-06-18T10:39:40Z</time>
      </trkpt>
      <trkpt lat="49.87877" lon="0.96168">
        <ele>40.6</ele>
        <time>2020-06-18T10:39:41Z</time>
      </trkpt>
      <trkpt lat="49.8788" lon="0.96172">
        <ele>40.6</ele>
        <time>2020-06-18T10:39:42Z</time>
      </trkpt>
      <trkpt lat="49.87883" lon="0.96177">
        <ele>40.7</ele>
        <time>2020-06-18T10:39:43Z</time>
      </trkpt>
      <trkpt lat="49.87885" lon="0.96181">
        <ele>40.7</ele>
        <time>2020-06-18T10:39:44Z</time>
      </trkpt>
      <trkpt lat="49.87888" lon="0.96186">
        <ele>40.8</ele>
        <time>2020-06-18T10:39:45Z</time>
      </trkpt>
      <trkpt lat="49.87891" lon="0.96192">
        <ele>40.8</ele>
        <time>2020-06-18T10:39:46Z</time>
      </trkpt>
      <trkpt lat="49.87893" lon="0.96198">
        <ele>40.9</ele>
        <time>2020-06-18T10:39:47Z</time>
      </trkpt>
      <trkpt lat="49.87895" lon="0.96204">
        <ele>40.9</ele>
        <time>2020-06-18T10:39:48Z</time>
      </trkpt>
      <trkpt lat="49.87897" lon="0.96213">
        <ele>41</ele>
        <time>2020-06-18T10:39:49Z</time>
      </trkpt>
      <trkpt lat="49.87898" lon="0.9622">
        <ele>41</ele>
        <time>2020-06-18T10:39:50Z</time>
      </trkpt>
      <trkpt lat="49.87899" lon="0.96227">
        <ele>41.1</ele>
        <time>2020-06-18T10:39:51Z</time>
      </trkpt>
      <trkpt lat="49.879" lon="0.96233">
        <ele>41.1</ele>
        <time>2020-06-18T10:39:52Z</time>
      </trkpt>
      <trkpt lat="49.87901" lon="0.96242">
        <ele>41.1</ele>
        <time>2020-06-18T10:39:53Z</time>
      </trkpt>
      <trkpt lat="49.87902" lon="0.96249">
        <ele>41.2</ele>
        <time>2020-06-18T10:39:54Z</time>
      </trkpt>
      <trkpt lat="49.87903" lon="0.96256">
        <ele>41.2</ele>
        <time>2020-06-18T10:39:55Z</time>
      </trkpt>
      <trkpt lat="49.87904" lon="0.96263">
        <ele>41.2</ele>
        <time>2020-06-18T10:39:56Z</time>
      </trkpt>
      <trkpt lat="49.87905" lon="0.9627">
        <ele>41.3</ele>
        <time>2020-06-18T10:39:57Z</time>
      </trkpt>
      <trkpt lat="49.87907" lon="0.96279">
        <ele>41.4</ele>
        <time>2020-06-18T10:39:58Z</time>
      </trkpt>
      <trkpt lat="49.87908" lon="0.96286">
        <ele>41.4</ele>
        <time>2020-06-18T10:39:59Z</time>
      </trkpt>
      <trkpt lat="49.87909" lon="0.96292">
        <ele>41.5</ele>
        <time>2020-06-18T10:40:00Z</time>
      </trkpt>
      <trkpt lat="49.8791" lon="0.963">
        <ele>41.6</ele>
        <time>2020-06-18T10:40:01Z</time>
      </trkpt>
      <trkpt lat="49.8791" lon="0.96308">
        <ele>41.6</ele>
        <time>2020-06-18T10:40:02Z</time>
      </trkpt>
      <trkpt lat="49.87911" lon="0.96315">
        <ele>41.7</ele>
        <time>2020-06-18T10:40:03Z</time>
      </trkpt>
      <trkpt lat="49.87913" lon="0.96321">
        <ele>41.8</ele>
        <time>2020-06-18T10:40:04Z</time>
      </trkpt>
      <trkpt lat="49.87913" lon="0.96328">
        <ele>41.9</ele>
        <time>2020-06-18T10:40:05Z</time>
      </trkpt>
      <trkpt lat="49.87916" lon="0.96335">
        <ele>42.1</ele>
        <time>2020-06-18T10:40:06Z</time>
      </trkpt>
      <trkpt lat="49.87917" lon="0.96342">
        <ele>42.2</ele>
        <time>2020-06-18T10:40:07Z</time>
      </trkpt>
      <trkpt lat="49.87917" lon="0.96349">
        <ele>42.3</ele>
        <time>2020-06-18T10:40:08Z</time>
      </trkpt>
      <trkpt lat="49.87918" lon="0.96355">
        <ele>42.5</ele>
        <time>2020-06-18T10:40:09Z</time>
      </trkpt>
      <trkpt lat="49.87919" lon="0.96361">
        <ele>42.6</ele>
        <time>2020-06-18T10:40:10Z</time>
      </trkpt>
      <trkpt lat="49.8792" lon="0.96367">
        <ele>42.7</ele>
        <time>2020-06-18T10:40:11Z</time>
      </trkpt>
      <trkpt lat="49.87921" lon="0.96372">
        <ele>42.9</ele>
        <time>2020-06-18T10:40:12Z</time>
      </trkpt>
      <trkpt lat="49.87922" lon="0.96377">
        <ele>43</ele>
        <time>2020-06-18T10:40:13Z</time>
      </trkpt>
      <trkpt lat="49.87922" lon="0.96384">
        <ele>43.3</ele>
        <time>2020-06-18T10:40:14Z</time>
      </trkpt>
      <trkpt lat="49.87924" lon="0.96389">
        <ele>43.4</ele>
        <time>2020-06-18T10:40:15Z</time>
      </trkpt>
      <trkpt lat="49.87924" lon="0.96394">
        <ele>43.6</ele>
        <time>2020-06-18T10:40:16Z</time>
      </trkpt>
      <trkpt lat="49.87925" lon="0.96397">
        <ele>43.7</ele>
        <time>2020-06-18T10:40:17Z</time>
      </trkpt>
      <trkpt lat="49.87926" lon="0.96402">
        <ele>43.8</ele>
        <time>2020-06-18T10:40:18Z</time>
      </trkpt>
      <trkpt lat="49.87927" lon="0.96407">
        <ele>44</ele>
        <time>2020-06-18T10:40:19Z</time>
      </trkpt>
      <trkpt lat="49.87927" lon="0.96413">
        <ele>44.2</ele>
        <time>2020-06-18T10:40:20Z</time>
      </trkpt>
      <trkpt lat="49.87928" lon="0.96418">
        <ele>44.4</ele>
        <time>2020-06-18T10:40:21Z</time>
      </trkpt>
      <trkpt lat="49.87929" lon="0.96425">
        <ele>44.6</ele>
        <time>2020-06-18T10:40:22Z</time>
      </trkpt>
      <trkpt lat="49.8793" lon="0.96429">
        <ele>44.8</ele>
        <time>2020-06-18T10:40:23Z</time>
      </trkpt>
      <trkpt lat="49.87931" lon="0.96437">
        <ele>45.1</ele>
        <time>2020-06-18T10:40:24Z</time>
      </trkpt>
      <trkpt lat="49.87931" lon="0.96441">
        <ele>45.3</ele>
        <time>2020-06-18T10:40:25Z</time>
      </trkpt>
      <trkpt lat="49.87933" lon="0.96446">
        <ele>45.5</ele>
        <time>2020-06-18T10:40:26Z</time>
      </trkpt>
      <trkpt lat="49.87933" lon="0.96451">
        <ele>45.6</ele>
        <time>2020-06-18T10:40:27Z</time>
      </trkpt>
      <trkpt lat="49.87934" lon="0.96456">
        <ele>45.8</ele>
        <time>2020-06-18T10:40:28Z</time>
      </trkpt>
      <trkpt lat="49.87934" lon="0.96461">
        <ele>46</ele>
        <time>2020-06-18T10:40:29Z</time>
      </trkpt>
      <trkpt lat="49.87935" lon="0.96467">
        <ele>46.3</ele>
        <time>2020-06-18T10:40:30Z</time>
      </trkpt>
      <trkpt lat="49.87937" lon="0.96473">
        <ele>46.5</ele>
        <time>2020-06-18T10:40:31Z</time>
      </trkpt>
      <trkpt lat="49.87938" lon="0.96478">
        <ele>46.7</ele>
        <time>2020-06-18T10:40:32Z</time>
      </trkpt>
      <trkpt lat="49.87939" lon="0.96483">
        <ele>46.9</ele>
        <time>2020-06-18T10:40:33Z</time>
      </trkpt>
      <trkpt lat="49.8794" lon="0.96488">
        <ele>47.2</ele>
        <time>2020-06-18T10:40:34Z</time>
      </trkpt>
      <trkpt lat="49.87941" lon="0.96495">
        <ele>47.4</ele>
        <time>2020-06-18T10:40:35Z</time>
      </trkpt>
      <trkpt lat="49.87941" lon="0.96497">
        <ele>47.5</ele>
        <time>2020-06-18T10:40:36Z</time>
      </trkpt>
      <trkpt lat="49.87942" lon="0.96502">
        <ele>47.7</ele>
        <time>2020-06-18T10:40:37Z</time>
      </trkpt>
      <trkpt lat="49.87943" lon="0.96507">
        <ele>47.8</ele>
        <time>2020-06-18T10:40:38Z</time>
      </trkpt>
      <trkpt lat="49.87943" lon="0.96511">
        <ele>48</ele>
        <time>2020-06-18T10:40:39Z</time>
      </trkpt>
      <trkpt lat="49.87944" lon="0.96517">
        <ele>48.2</ele>
        <time>2020-06-18T10:40:40Z</time>
      </trkpt>
      <trkpt lat="49.87945" lon="0.96522">
        <ele>48.3</ele>
        <time>2020-06-18T10:40:41Z</time>
      </trkpt>
      <trkpt lat="49.87946" lon="0.96527">
        <ele>48.5</ele>
        <time>2020-06-18T10:40:42Z</time>
      </trkpt>
      <trkpt lat="49.87947" lon="0.96533">
        <ele>48.6</ele>
        <time>2020-06-18T10:40:43Z</time>
      </trkpt>
      <trkpt lat="49.87947" lon="0.96539">
        <ele>48.8</ele>
        <time>2020-06-18T10:40:44Z</time>
      </trkpt>
      <trkpt lat="49.87949" lon="0.96544">
        <ele>49</ele>
        <time>2020-06-18T10:40:45Z</time>
      </trkpt>
      <trkpt lat="49.8795" lon="0.9655">
        <ele>49.2</ele>
        <time>2020-06-18T10:40:46Z</time>
      </trkpt>
      <trkpt lat="49.8795" lon="0.96556">
        <ele>49.4</ele>
        <time>2020-06-18T10:40:47Z</time>
      </trkpt>
      <trkpt lat="49.87952" lon="0.9656">
        <ele>49.6</ele>
        <time>2020-06-18T10:40:48Z</time>
      </trkpt>
      <trkpt lat="49.87953" lon="0.96567">
        <ele>49.8</ele>
        <time>2020-06-18T10:40:49Z</time>
      </trkpt>
      <trkpt lat="49.87954" lon="0.96573">
        <ele>50</ele>
        <time>2020-06-18T10:40:50Z</time>
      </trkpt>
      <trkpt lat="49.87955" lon="0.96576">
        <ele>50.1</ele>
        <time>2020-06-18T10:40:51Z</time>
      </trkpt>
      <trkpt lat="49.87956" lon="0.9658">
        <ele>50.2</ele>
        <time>2020-06-18T10:40:52Z</time>
      </trkpt>
      <trkpt lat="49.87957" lon="0.96584">
        <ele>50.3</ele>
        <time>2020-06-18T10:40:53Z</time>
      </trkpt>
      <trkpt lat="49.87957" lon="0.96586">
        <ele>50.3</ele>
        <time>2020-06-18T10:40:54Z</time>
      </trkpt>
      <trkpt lat="49.87958" lon="0.96592">
        <ele>50.5</ele>
        <time>2020-06-18T10:40:55Z</time>
      </trkpt>
      <trkpt lat="49.8796" lon="0.96599">
        <ele>50.7</ele>
        <time>2020-06-18T10:40:56Z</time>
      </trkpt>
      <trkpt lat="49.87961" lon="0.96606">
        <ele>50.9</ele>
        <time>2020-06-18T10:40:57Z</time>
      </trkpt>
      <trkpt lat="49.87963" lon="0.96611">
        <ele>51.1</ele>
        <time>2020-06-18T10:40:58Z</time>
      </trkpt>
      <trkpt lat="49.87964" lon="0.96618">
        <ele>51.3</ele>
        <time>2020-06-18T10:40:59Z</time>
      </trkpt>
      <trkpt lat="49.87964" lon="0.96622">
        <ele>51.4</ele>
        <time>2020-06-18T10:41:00Z</time>
      </trkpt>
      <trkpt lat="49.87965" lon="0.96627">
        <ele>51.6</ele>
        <time>2020-06-18T10:41:01Z</time>
      </trkpt>
      <trkpt lat="49.87966" lon="0.96633">
        <ele>51.8</ele>
        <time>2020-06-18T10:41:02Z</time>
      </trkpt>
      <trkpt lat="49.87967" lon="0.96638">
        <ele>51.9</ele>
        <time>2020-06-18T10:41:03Z</time>
      </trkpt>
      <trkpt lat="49.87968" lon="0.96644">
        <ele>52.1</ele>
        <time>2020-06-18T10:41:04Z</time>
      </trkpt>
      <trkpt lat="49.87968" lon="0.96649">
        <ele>52.3</ele>
        <time>2020-06-18T10:41:05Z</time>
      </trkpt>
      <trkpt lat="49.87969" lon="0.96655">
        <ele>52.4</ele>
        <time>2020-06-18T10:41:06Z</time>
      </trkpt>
      <trkpt lat="49.8797" lon="0.96662">
        <ele>52.6</ele>
        <time>2020-06-18T10:41:07Z</time>
      </trkpt>
      <trkpt lat="49.87971" lon="0.9667">
        <ele>52.9</ele>
        <time>2020-06-18T10:41:08Z</time>
      </trkpt>
      <trkpt lat="49.87973" lon="0.96674">
        <ele>53</ele>
        <time>2020-06-18T10:41:09Z</time>
      </trkpt>
      <trkpt lat="49.87974" lon="0.9668">
        <ele>53.2</ele>
        <time>2020-06-18T10:41:10Z</time>
      </trkpt>
      <trkpt lat="49.87975" lon="0.96686">
        <ele>53.4</ele>
        <time>2020-06-18T10:41:11Z</time>
      </trkpt>
      <trkpt lat="49.87975" lon="0.96688">
        <ele>53.5</ele>
        <time>2020-06-18T10:41:12Z</time>
      </trkpt>
      <trkpt lat="49.87976" lon="0.96693">
        <ele>53.7</ele>
        <time>2020-06-18T10:41:13Z</time>
      </trkpt>
      <trkpt lat="49.87977" lon="0.96698">
        <ele>54</ele>
        <time>2020-06-18T10:41:14Z</time>
      </trkpt>
      <trkpt lat="49.87978" lon="0.96702">
        <ele>54.2</ele>
        <time>2020-06-18T10:41:15Z</time>
      </trkpt>
      <trkpt lat="49.87979" lon="0.96708">
        <ele>54.5</ele>
        <time>2020-06-18T10:41:16Z</time>
      </trkpt>
      <trkpt lat="49.8798" lon="0.96714">
        <ele>54.9</ele>
        <time>2020-06-18T10:41:17Z</time>
      </trkpt>
      <trkpt lat="49.8798" lon="0.96719">
        <ele>55.5</ele>
        <time>2020-06-18T10:41:18Z</time>
      </trkpt>
      <trkpt lat="49.87982" lon="0.96723">
        <ele>56.1</ele>
        <time>2020-06-18T10:41:19Z</time>
      </trkpt>
      <trkpt lat="49.87983" lon="0.96726">
        <ele>56.5</ele>
        <time>2020-06-18T10:41:20Z</time>
      </trkpt>
      <trkpt lat="49.87984" lon="0.96732">
        <ele>57</ele>
        <time>2020-06-18T10:41:21Z</time>
      </trkpt>
      <trkpt lat="49.87984" lon="0.96735">
        <ele>57.2</ele>
        <time>2020-06-18T10:41:22Z</time>
      </trkpt>
      <trkpt lat="49.87985" lon="0.96741">
        <ele>57.5</ele>
        <time>2020-06-18T10:41:23Z</time>
      </trkpt>
      <trkpt lat="49.87986" lon="0.96749">
        <ele>57.8</ele>
        <time>2020-06-18T10:41:24Z</time>
      </trkpt>
      <trkpt lat="49.87988" lon="0.96755">
        <ele>58</ele>
        <time>2020-06-18T10:41:25Z</time>
      </trkpt>
      <trkpt lat="49.87989" lon="0.96762">
        <ele>58.2</ele>
        <time>2020-06-18T10:41:26Z</time>
      </trkpt>
      <trkpt lat="49.8799" lon="0.96767">
        <ele>58.4</ele>
        <time>2020-06-18T10:41:27Z</time>
      </trkpt>
      <trkpt lat="49.8799" lon="0.96773">
        <ele>58.5</ele>
        <time>2020-06-18T10:41:28Z</time>
      </trkpt>
      <trkpt lat="49.87991" lon="0.9678">
        <ele>58.7</ele>
        <time>2020-06-18T10:41:29Z</time>
      </trkpt>
      <trkpt lat="49.87993" lon="0.96786">
        <ele>58.9</ele>
        <time>2020-06-18T10:41:30Z</time>
      </trkpt>
      <trkpt lat="49.87993" lon="0.96794">
        <ele>59.1</ele>
        <time>2020-06-18T10:41:31Z</time>
      </trkpt>
      <trkpt lat="49.87995" lon="0.96801">
        <ele>59.3</ele>
        <time>2020-06-18T10:41:32Z</time>
      </trkpt>
      <trkpt lat="49.87996" lon="0.96807">
        <ele>59.4</ele>
        <time>2020-06-18T10:41:33Z</time>
      </trkpt>
      <trkpt lat="49.87997" lon="0.96815">
        <ele>59.6</ele>
        <time>2020-06-18T10:41:34Z</time>
      </trkpt>
      <trkpt lat="49.87998" lon="0.9682">
        <ele>59.7</ele>
        <time>2020-06-18T10:41:35Z</time>
      </trkpt>
      <trkpt lat="49.88" lon="0.96828">
        <ele>59.9</ele>
        <time>2020-06-18T10:41:36Z</time>
      </trkpt>
      <trkpt lat="49.88001" lon="0.96835">
        <ele>60.1</ele>
        <time>2020-06-18T10:41:37Z</time>
      </trkpt>
      <trkpt lat="49.88002" lon="0.9684">
        <ele>60.2</ele>
        <time>2020-06-18T10:41:38Z</time>
      </trkpt>
      <trkpt lat="49.88003" lon="0.96846">
        <ele>60.3</ele>
        <time>2020-06-18T10:41:39Z</time>
      </trkpt>
      <trkpt lat="49.88003" lon="0.96852">
        <ele>60.5</ele>
        <time>2020-06-18T10:41:40Z</time>
      </trkpt>
      <trkpt lat="49.88004" lon="0.96858">
        <ele>60.6</ele>
        <time>2020-06-18T10:41:41Z</time>
      </trkpt>
      <trkpt lat="49.88005" lon="0.96863">
        <ele>60.7</ele>
        <time>2020-06-18T10:41:42Z</time>
      </trkpt>
      <trkpt lat="49.88006" lon="0.9687">
        <ele>60.9</ele>
        <time>2020-06-18T10:41:43Z</time>
      </trkpt>
      <trkpt lat="49.88007" lon="0.96877">
        <ele>61.1</ele>
        <time>2020-06-18T10:41:44Z</time>
      </trkpt>
      <trkpt lat="49.88008" lon="0.96883">
        <ele>61.2</ele>
        <time>2020-06-18T10:41:45Z</time>
      </trkpt>
      <trkpt lat="49.88008" lon="0.96888">
        <ele>61.3</ele>
        <time>2020-06-18T10:41:46Z</time>
      </trkpt>
      <trkpt lat="49.88009" lon="0.96894">
        <ele>61.5</ele>
        <time>2020-06-18T10:41:47Z</time>
      </trkpt>
      <trkpt lat="49.88011" lon="0.96899">
        <ele>61.6</ele>
        <time>2020-06-18T10:41:48Z</time>
      </trkpt>
      <trkpt lat="49.88012" lon="0.96905">
        <ele>61.6</ele>
        <time>2020-06-18T10:41:49Z</time>
      </trkpt>
      <trkpt lat="49.88013" lon="0.96912">
        <ele>61.7</ele>
        <time>2020-06-18T10:41:50Z</time>
      </trkpt>
      <trkpt lat="49.88015" lon="0.96919">
        <ele>61.8</ele>
        <time>2020-06-18T10:41:51Z</time>
      </trkpt>
      <trkpt lat="49.88016" lon="0.96925">
        <ele>61.9</ele>
        <time>2020-06-18T10:41:52Z</time>
      </trkpt>
      <trkpt lat="49.88017" lon="0.96932">
        <ele>62</ele>
        <time>2020-06-18T10:41:53Z</time>
      </trkpt>
      <trkpt lat="49.88018" lon="0.96937">
        <ele>62</ele>
        <time>2020-06-18T10:41:54Z</time>
      </trkpt>
      <trkpt lat="49.88018" lon="0.96943">
        <ele>62.1</ele>
        <time>2020-06-18T10:41:55Z</time>
      </trkpt>
      <trkpt lat="49.88019" lon="0.96949">
        <ele>62.2</ele>
        <time>2020-06-18T10:41:56Z</time>
      </trkpt>
      <trkpt lat="49.8802" lon="0.96954">
        <ele>62.2</ele>
        <time>2020-06-18T10:41:57Z</time>
      </trkpt>
      <trkpt lat="49.88022" lon="0.9696">
        <ele>62.3</ele>
        <time>2020-06-18T10:41:58Z</time>
      </trkpt>
      <trkpt lat="49.88023" lon="0.96967">
        <ele>62.4</ele>
        <time>2020-06-18T10:41:59Z</time>
      </trkpt>
      <trkpt lat="49.88025" lon="0.96973">
        <ele>62.4</ele>
        <time>2020-06-18T10:42:00Z</time>
      </trkpt>
      <trkpt lat="49.88026" lon="0.96979">
        <ele>62.5</ele>
        <time>2020-06-18T10:42:01Z</time>
      </trkpt>
      <trkpt lat="49.88026" lon="0.96985">
        <ele>62.6</ele>
        <time>2020-06-18T10:42:02Z</time>
      </trkpt>
      <trkpt lat="49.88027" lon="0.96991">
        <ele>62.8</ele>
        <time>2020-06-18T10:42:03Z</time>
      </trkpt>
      <trkpt lat="49.88029" lon="0.96998">
        <ele>62.9</ele>
        <time>2020-06-18T10:42:04Z</time>
      </trkpt>
      <trkpt lat="49.8803" lon="0.97004">
        <ele>63</ele>
        <time>2020-06-18T10:42:05Z</time>
      </trkpt>
      <trkpt lat="49.88031" lon="0.9701">
        <ele>63.1</ele>
        <time>2020-06-18T10:42:06Z</time>
      </trkpt>
      <trkpt lat="49.88032" lon="0.97017">
        <ele>63.2</ele>
        <time>2020-06-18T10:42:07Z</time>
      </trkpt>
      <trkpt lat="49.88032" lon="0.97022">
        <ele>63.3</ele>
        <time>2020-06-18T10:42:08Z</time>
      </trkpt>
      <trkpt lat="49.88033" lon="0.97028">
        <ele>63.4</ele>
        <time>2020-06-18T10:42:09Z</time>
      </trkpt>
      <trkpt lat="49.88034" lon="0.97034">
        <ele>63.5</ele>
        <time>2020-06-18T10:42:10Z</time>
      </trkpt>
      <trkpt lat="49.88036" lon="0.97041">
        <ele>63.5</ele>
        <time>2020-06-18T10:42:11Z</time>
      </trkpt>
      <trkpt lat="49.88037" lon="0.97048">
        <ele>63.6</ele>
        <time>2020-06-18T10:42:12Z</time>
      </trkpt>
      <trkpt lat="49.88039" lon="0.97054">
        <ele>63.7</ele>
        <time>2020-06-18T10:42:13Z</time>
      </trkpt>
      <trkpt lat="49.8804" lon="0.9706">
        <ele>63.8</ele>
        <time>2020-06-18T10:42:14Z</time>
      </trkpt>
      <trkpt lat="49.88041" lon="0.97067">
        <ele>63.8</ele>
        <time>2020-06-18T10:42:15Z</time>
      </trkpt>
      <trkpt lat="49.88042" lon="0.97073">
        <ele>63.9</ele>
        <time>2020-06-18T10:42:16Z</time>
      </trkpt>
      <trkpt lat="49.88042" lon="0.9708">
        <ele>64</ele>
        <time>2020-06-18T10:42:17Z</time>
      </trkpt>
      <trkpt lat="49.88043" lon="0.97086">
        <ele>64.1</ele>
        <time>2020-06-18T10:42:18Z</time>
      </trkpt>
      <trkpt lat="49.88044" lon="0.97092">
        <ele>64.2</ele>
        <time>2020-06-18T10:42:19Z</time>
      </trkpt>
      <trkpt lat="49.88045" lon="0.97098">
        <ele>64.3</ele>
        <time>2020-06-18T10:42:20Z</time>
      </trkpt>
      <trkpt lat="49.88046" lon="0.97104">
        <ele>64.4</ele>
        <time>2020-06-18T10:42:21Z</time>
      </trkpt>
      <trkpt lat="49.88048" lon="0.97108">
        <ele>64.4</ele>
        <time>2020-06-18T10:42:22Z</time>
      </trkpt>
      <trkpt lat="49.88049" lon="0.97117">
        <ele>64.5</ele>
        <time>2020-06-18T10:42:23Z</time>
      </trkpt>
      <trkpt lat="49.8805" lon="0.97124">
        <ele>64.5</ele>
        <time>2020-06-18T10:42:24Z</time>
      </trkpt>
      <trkpt lat="49.88052" lon="0.97131">
        <ele>64.6</ele>
        <time>2020-06-18T10:42:25Z</time>
      </trkpt>
      <trkpt lat="49.88053" lon="0.97137">
        <ele>64.7</ele>
        <time>2020-06-18T10:42:26Z</time>
      </trkpt>
      <trkpt lat="49.88055" lon="0.97144">
        <ele>64.7</ele>
        <time>2020-06-18T10:42:27Z</time>
      </trkpt>
      <trkpt lat="49.88056" lon="0.9715">
        <ele>64.8</ele>
        <time>2020-06-18T10:42:28Z</time>
      </trkpt>
      <trkpt lat="49.88057" lon="0.97157">
        <ele>64.8</ele>
        <time>2020-06-18T10:42:29Z</time>
      </trkpt>
      <trkpt lat="49.88058" lon="0.97163">
        <ele>64.8</ele>
        <time>2020-06-18T10:42:30Z</time>
      </trkpt>
      <trkpt lat="49.8806" lon="0.97168">
        <ele>64.8</ele>
        <time>2020-06-18T10:42:31Z</time>
      </trkpt>
      <trkpt lat="49.8806" lon="0.97173">
        <ele>64.8</ele>
        <time>2020-06-18T10:42:32Z</time>
      </trkpt>
      <trkpt lat="49.88061" lon="0.97179">
        <ele>64.8</ele>
        <time>2020-06-18T10:42:33Z</time>
      </trkpt>
      <trkpt lat="49.88061" lon="0.97185">
        <ele>64.8</ele>
        <time>2020-06-18T10:42:34Z</time>
      </trkpt>
      <trkpt lat="49.88063" lon="0.97191">
        <ele>64.9</ele>
        <time>2020-06-18T10:42:35Z</time>
      </trkpt>
      <trkpt lat="49.88064" lon="0.97197">
        <ele>64.9</ele>
        <time>2020-06-18T10:42:36Z</time>
      </trkpt>
      <trkpt lat="49.88065" lon="0.97203">
        <ele>64.9</ele>
        <time>2020-06-18T10:42:37Z</time>
      </trkpt>
      <trkpt lat="49.88066" lon="0.97211">
        <ele>65</ele>
        <time>2020-06-18T10:42:38Z</time>
      </trkpt>
      <trkpt lat="49.88068" lon="0.97217">
        <ele>65</ele>
        <time>2020-06-18T10:42:39Z</time>
      </trkpt>
      <trkpt lat="49.88069" lon="0.97225">
        <ele>65</ele>
        <time>2020-06-18T10:42:40Z</time>
      </trkpt>
      <trkpt lat="49.88071" lon="0.97233">
        <ele>65</ele>
        <time>2020-06-18T10:42:41Z</time>
      </trkpt>
      <trkpt lat="49.88072" lon="0.9724">
        <ele>65.1</ele>
        <time>2020-06-18T10:42:42Z</time>
      </trkpt>
      <trkpt lat="49.88073" lon="0.97246">
        <ele>65.1</ele>
        <time>2020-06-18T10:42:43Z</time>
      </trkpt>
      <trkpt lat="49.88075" lon="0.97254">
        <ele>65.2</ele>
        <time>2020-06-18T10:42:44Z</time>
      </trkpt>
      <trkpt lat="49.88076" lon="0.97261">
        <ele>65.3</ele>
        <time>2020-06-18T10:42:45Z</time>
      </trkpt>
      <trkpt lat="49.88077" lon="0.97268">
        <ele>65.3</ele>
        <time>2020-06-18T10:42:46Z</time>
      </trkpt>
      <trkpt lat="49.88079" lon="0.97275">
        <ele>65.4</ele>
        <time>2020-06-18T10:42:47Z</time>
      </trkpt>
      <trkpt lat="49.8808" lon="0.97283">
        <ele>65.5</ele>
        <time>2020-06-18T10:42:48Z</time>
      </trkpt>
      <trkpt lat="49.88081" lon="0.9729">
        <ele>65.5</ele>
        <time>2020-06-18T10:42:49Z</time>
      </trkpt>
      <trkpt lat="49.88082" lon="0.97296">
        <ele>65.6</ele>
        <time>2020-06-18T10:42:50Z</time>
      </trkpt>
      <trkpt lat="49.88083" lon="0.97303">
        <ele>65.6</ele>
        <time>2020-06-18T10:42:51Z</time>
      </trkpt>
      <trkpt lat="49.88084" lon="0.97309">
        <ele>65.7</ele>
        <time>2020-06-18T10:42:52Z</time>
      </trkpt>
      <trkpt lat="49.88085" lon="0.97316">
        <ele>65.8</ele>
        <time>2020-06-18T10:42:53Z</time>
      </trkpt>
      <trkpt lat="49.88086" lon="0.97323">
        <ele>65.9</ele>
        <time>2020-06-18T10:42:54Z</time>
      </trkpt>
      <trkpt lat="49.88087" lon="0.97331">
        <ele>66</ele>
        <time>2020-06-18T10:42:55Z</time>
      </trkpt>
      <trkpt lat="49.88088" lon="0.97338">
        <ele>66.2</ele>
        <time>2020-06-18T10:42:56Z</time>
      </trkpt>
      <trkpt lat="49.88089" lon="0.97346">
        <ele>66.3</ele>
        <time>2020-06-18T10:42:57Z</time>
      </trkpt>
      <trkpt lat="49.8809" lon="0.97353">
        <ele>66.3</ele>
        <time>2020-06-18T10:42:58Z</time>
      </trkpt>
      <trkpt lat="49.88092" lon="0.97362">
        <ele>66.3</ele>
        <time>2020-06-18T10:42:59Z</time>
      </trkpt>
      <trkpt lat="49.88093" lon="0.9737">
        <ele>66.4</ele>
        <time>2020-06-18T10:43:00Z</time>
      </trkpt>
      <trkpt lat="49.88095" lon="0.97377">
        <ele>66.4</ele>
        <time>2020-06-18T10:43:01Z</time>
      </trkpt>
      <trkpt lat="49.88096" lon="0.97384">
        <ele>66.5</ele>
        <time>2020-06-18T10:43:02Z</time>
      </trkpt>
      <trkpt lat="49.88097" lon="0.97391">
        <ele>66.5</ele>
        <time>2020-06-18T10:43:03Z</time>
      </trkpt>
      <trkpt lat="49.88098" lon="0.97399">
        <ele>66.6</ele>
        <time>2020-06-18T10:43:04Z</time>
      </trkpt>
      <trkpt lat="49.881" lon="0.97405">
        <ele>66.6</ele>
        <time>2020-06-18T10:43:05Z</time>
      </trkpt>
      <trkpt lat="49.881" lon="0.97412">
        <ele>66.6</ele>
        <time>2020-06-18T10:43:06Z</time>
      </trkpt>
      <trkpt lat="49.88102" lon="0.97419">
        <ele>66.7</ele>
        <time>2020-06-18T10:43:07Z</time>
      </trkpt>
      <trkpt lat="49.88103" lon="0.97426">
        <ele>66.7</ele>
        <time>2020-06-18T10:43:08Z</time>
      </trkpt>
      <trkpt lat="49.88104" lon="0.97433">
        <ele>66.8</ele>
        <time>2020-06-18T10:43:09Z</time>
      </trkpt>
      <trkpt lat="49.88105" lon="0.9744">
        <ele>66.8</ele>
        <time>2020-06-18T10:43:10Z</time>
      </trkpt>
      <trkpt lat="49.88106" lon="0.97447">
        <ele>66.9</ele>
        <time>2020-06-18T10:43:11Z</time>
      </trkpt>
      <trkpt lat="49.88108" lon="0.97455">
        <ele>67</ele>
        <time>2020-06-18T10:43:12Z</time>
      </trkpt>
      <trkpt lat="49.8811" lon="0.97462">
        <ele>67.1</ele>
        <time>2020-06-18T10:43:13Z</time>
      </trkpt>
      <trkpt lat="49.88111" lon="0.9747">
        <ele>67.2</ele>
        <time>2020-06-18T10:43:14Z</time>
      </trkpt>
      <trkpt lat="49.88112" lon="0.97478">
        <ele>67.3</ele>
        <time>2020-06-18T10:43:15Z</time>
      </trkpt>
      <trkpt lat="49.88113" lon="0.97485">
        <ele>67.3</ele>
        <time>2020-06-18T10:43:16Z</time>
      </trkpt>
      <trkpt lat="49.88114" lon="0.97493">
        <ele>67.4</ele>
        <time>2020-06-18T10:43:17Z</time>
      </trkpt>
      <trkpt lat="49.88115" lon="0.97502">
        <ele>67.5</ele>
        <time>2020-06-18T10:43:18Z</time>
      </trkpt>
      <trkpt lat="49.88117" lon="0.9751">
        <ele>67.6</ele>
        <time>2020-06-18T10:43:19Z</time>
      </trkpt>
      <trkpt lat="49.88118" lon="0.97518">
        <ele>67.7</ele>
        <time>2020-06-18T10:43:20Z</time>
      </trkpt>
      <trkpt lat="49.8812" lon="0.97526">
        <ele>67.7</ele>
        <time>2020-06-18T10:43:21Z</time>
      </trkpt>
      <trkpt lat="49.8812" lon="0.97533">
        <ele>67.8</ele>
        <time>2020-06-18T10:43:22Z</time>
      </trkpt>
      <trkpt lat="49.88121" lon="0.9754">
        <ele>67.8</ele>
        <time>2020-06-18T10:43:23Z</time>
      </trkpt>
      <trkpt lat="49.88123" lon="0.97547">
        <ele>67.9</ele>
        <time>2020-06-18T10:43:24Z</time>
      </trkpt>
      <trkpt lat="49.88125" lon="0.97554">
        <ele>68</ele>
        <time>2020-06-18T10:43:25Z</time>
      </trkpt>
      <trkpt lat="49.88126" lon="0.97564">
        <ele>68</ele>
        <time>2020-06-18T10:43:26Z</time>
      </trkpt>
      <trkpt lat="49.88128" lon="0.97572">
        <ele>68</ele>
        <time>2020-06-18T10:43:27Z</time>
      </trkpt>
      <trkpt lat="49.8813" lon="0.97579">
        <ele>68.3</ele>
        <time>2020-06-18T10:43:28Z</time>
      </trkpt>
      <trkpt lat="49.88131" lon="0.97587">
        <ele>68.8</ele>
        <time>2020-06-18T10:43:29Z</time>
      </trkpt>
      <trkpt lat="49.88132" lon="0.97593">
        <ele>69.1</ele>
        <time>2020-06-18T10:43:30Z</time>
      </trkpt>
      <trkpt lat="49.88134" lon="0.976">
        <ele>69.3</ele>
        <time>2020-06-18T10:43:31Z</time>
      </trkpt>
      <trkpt lat="49.88135" lon="0.97608">
        <ele>69.3</ele>
        <time>2020-06-18T10:43:32Z</time>
      </trkpt>
      <trkpt lat="49.88137" lon="0.97616">
        <ele>69.3</ele>
        <time>2020-06-18T10:43:33Z</time>
      </trkpt>
      <trkpt lat="49.88138" lon="0.97625">
        <ele>69.3</ele>
        <time>2020-06-18T10:43:34Z</time>
      </trkpt>
      <trkpt lat="49.88139" lon="0.97634">
        <ele>69.2</ele>
        <time>2020-06-18T10:43:35Z</time>
      </trkpt>
      <trkpt lat="49.88141" lon="0.97643">
        <ele>69.2</ele>
        <time>2020-06-18T10:43:36Z</time>
      </trkpt>
      <trkpt lat="49.88143" lon="0.97652">
        <ele>69.2</ele>
        <time>2020-06-18T10:43:37Z</time>
      </trkpt>
      <trkpt lat="49.88145" lon="0.9766">
        <ele>69.1</ele>
        <time>2020-06-18T10:43:38Z</time>
      </trkpt>
      <trkpt lat="49.88146" lon="0.97668">
        <ele>69.1</ele>
        <time>2020-06-18T10:43:39Z</time>
      </trkpt>
      <trkpt lat="49.88148" lon="0.97676">
        <ele>69.1</ele>
        <time>2020-06-18T10:43:40Z</time>
      </trkpt>
      <trkpt lat="49.88149" lon="0.97683">
        <ele>69.1</ele>
        <time>2020-06-18T10:43:41Z</time>
      </trkpt>
      <trkpt lat="49.8815" lon="0.97692">
        <ele>69.1</ele>
        <time>2020-06-18T10:43:42Z</time>
      </trkpt>
      <trkpt lat="49.88151" lon="0.977">
        <ele>69.1</ele>
        <time>2020-06-18T10:43:43Z</time>
      </trkpt>
      <trkpt lat="49.88151" lon="0.97706">
        <ele>69.1</ele>
        <time>2020-06-18T10:43:44Z</time>
      </trkpt>
      <trkpt lat="49.88152" lon="0.97714">
        <ele>69.1</ele>
        <time>2020-06-18T10:43:45Z</time>
      </trkpt>
      <trkpt lat="49.88154" lon="0.97722">
        <ele>69.2</ele>
        <time>2020-06-18T10:43:46Z</time>
      </trkpt>
      <trkpt lat="49.88156" lon="0.97731">
        <ele>69.2</ele>
        <time>2020-06-18T10:43:47Z</time>
      </trkpt>
      <trkpt lat="49.88158" lon="0.97739">
        <ele>69.3</ele>
        <time>2020-06-18T10:43:48Z</time>
      </trkpt>
      <trkpt lat="49.88159" lon="0.97747">
        <ele>69.3</ele>
        <time>2020-06-18T10:43:49Z</time>
      </trkpt>
      <trkpt lat="49.88161" lon="0.97755">
        <ele>69.4</ele>
        <time>2020-06-18T10:43:50Z</time>
      </trkpt>
      <trkpt lat="49.88162" lon="0.97763">
        <ele>69.5</ele>
        <time>2020-06-18T10:43:51Z</time>
      </trkpt>
      <trkpt lat="49.88163" lon="0.97772">
        <ele>69.6</ele>
        <time>2020-06-18T10:43:52Z</time>
      </trkpt>
      <trkpt lat="49.88165" lon="0.9778">
        <ele>69.7</ele>
        <time>2020-06-18T10:43:53Z</time>
      </trkpt>
      <trkpt lat="49.88166" lon="0.97789">
        <ele>69.8</ele>
        <time>2020-06-18T10:43:54Z</time>
      </trkpt>
      <trkpt lat="49.88169" lon="0.97797">
        <ele>69.9</ele>
        <time>2020-06-18T10:43:55Z</time>
      </trkpt>
      <trkpt lat="49.88169" lon="0.97805">
        <ele>69.8</ele>
        <time>2020-06-18T10:43:56Z</time>
      </trkpt>
      <trkpt lat="49.88171" lon="0.97814">
        <ele>69.8</ele>
        <time>2020-06-18T10:43:57Z</time>
      </trkpt>
      <trkpt lat="49.88172" lon="0.97823">
        <ele>69.7</ele>
        <time>2020-06-18T10:43:58Z</time>
      </trkpt>
      <trkpt lat="49.88174" lon="0.97832">
        <ele>69.6</ele>
        <time>2020-06-18T10:43:59Z</time>
      </trkpt>
      <trkpt lat="49.88176" lon="0.97839">
        <ele>69.5</ele>
        <time>2020-06-18T10:44:00Z</time>
      </trkpt>
      <trkpt lat="49.88177" lon="0.97847">
        <ele>69.5</ele>
        <time>2020-06-18T10:44:01Z</time>
      </trkpt>
      <trkpt lat="49.88178" lon="0.97855">
        <ele>69.4</ele>
        <time>2020-06-18T10:44:02Z</time>
      </trkpt>
      <trkpt lat="49.88179" lon="0.97863">
        <ele>69.5</ele>
        <time>2020-06-18T10:44:03Z</time>
      </trkpt>
      <trkpt lat="49.88181" lon="0.97871">
        <ele>69.5</ele>
        <time>2020-06-18T10:44:04Z</time>
      </trkpt>
      <trkpt lat="49.88182" lon="0.97878">
        <ele>69.5</ele>
        <time>2020-06-18T10:44:05Z</time>
      </trkpt>
      <trkpt lat="49.88184" lon="0.97886">
        <ele>69.5</ele>
        <time>2020-06-18T10:44:06Z</time>
      </trkpt>
      <trkpt lat="49.88184" lon="0.97891">
        <ele>69.5</ele>
        <time>2020-06-18T10:44:07Z</time>
      </trkpt>
      <trkpt lat="49.88185" lon="0.97898">
        <ele>69.5</ele>
        <time>2020-06-18T10:44:08Z</time>
      </trkpt>
      <trkpt lat="49.88187" lon="0.97905">
        <ele>69.5</ele>
        <time>2020-06-18T10:44:09Z</time>
      </trkpt>
      <trkpt lat="49.88188" lon="0.97912">
        <ele>69.5</ele>
        <time>2020-06-18T10:44:10Z</time>
      </trkpt>
      <trkpt lat="49.8819" lon="0.97921">
        <ele>69.5</ele>
        <time>2020-06-18T10:44:11Z</time>
      </trkpt>
      <trkpt lat="49.88192" lon="0.97929">
        <ele>69.5</ele>
        <time>2020-06-18T10:44:12Z</time>
      </trkpt>
      <trkpt lat="49.88193" lon="0.97937">
        <ele>69.4</ele>
        <time>2020-06-18T10:44:13Z</time>
      </trkpt>
      <trkpt lat="49.88195" lon="0.97944">
        <ele>69.4</ele>
        <time>2020-06-18T10:44:14Z</time>
      </trkpt>
      <trkpt lat="49.88196" lon="0.97951">
        <ele>69.4</ele>
        <time>2020-06-18T10:44:15Z</time>
      </trkpt>
      <trkpt lat="49.88197" lon="0.97959">
        <ele>69.3</ele>
        <time>2020-06-18T10:44:16Z</time>
      </trkpt>
      <trkpt lat="49.88198" lon="0.97966">
        <ele>69.2</ele>
        <time>2020-06-18T10:44:17Z</time>
      </trkpt>
      <trkpt lat="49.88199" lon="0.97974">
        <ele>69.2</ele>
        <time>2020-06-18T10:44:18Z</time>
      </trkpt>
      <trkpt lat="49.882" lon="0.97981">
        <ele>69.1</ele>
        <time>2020-06-18T10:44:19Z</time>
      </trkpt>
      <trkpt lat="49.88202" lon="0.97988">
        <ele>69.1</ele>
        <time>2020-06-18T10:44:20Z</time>
      </trkpt>
      <trkpt lat="49.88203" lon="0.97995">
        <ele>69</ele>
        <time>2020-06-18T10:44:21Z</time>
      </trkpt>
      <trkpt lat="49.88204" lon="0.98002">
        <ele>69</ele>
        <time>2020-06-18T10:44:22Z</time>
      </trkpt>
      <trkpt lat="49.88206" lon="0.98009">
        <ele>69</ele>
        <time>2020-06-18T10:44:23Z</time>
      </trkpt>
      <trkpt lat="49.88208" lon="0.98016">
        <ele>69</ele>
        <time>2020-06-18T10:44:24Z</time>
      </trkpt>
      <trkpt lat="49.88209" lon="0.98024">
        <ele>69</ele>
        <time>2020-06-18T10:44:25Z</time>
      </trkpt>
      <trkpt lat="49.8821" lon="0.98032">
        <ele>69</ele>
        <time>2020-06-18T10:44:26Z</time>
      </trkpt>
      <trkpt lat="49.88211" lon="0.9804">
        <ele>68.9</ele>
        <time>2020-06-18T10:44:27Z</time>
      </trkpt>
      <trkpt lat="49.88212" lon="0.98049">
        <ele>68.9</ele>
        <time>2020-06-18T10:44:28Z</time>
      </trkpt>
      <trkpt lat="49.88213" lon="0.9806">
        <ele>68.8</ele>
        <time>2020-06-18T10:44:29Z</time>
      </trkpt>
      <trkpt lat="49.88215" lon="0.98069">
        <ele>68.8</ele>
        <time>2020-06-18T10:44:30Z</time>
      </trkpt>
      <trkpt lat="49.88216" lon="0.98077">
        <ele>68.7</ele>
        <time>2020-06-18T10:44:31Z</time>
      </trkpt>
      <trkpt lat="49.88217" lon="0.98086">
        <ele>68.7</ele>
        <time>2020-06-18T10:44:32Z</time>
      </trkpt>
      <trkpt lat="49.88219" lon="0.98096">
        <ele>68.6</ele>
        <time>2020-06-18T10:44:33Z</time>
      </trkpt>
      <trkpt lat="49.8822" lon="0.98104">
        <ele>68.6</ele>
        <time>2020-06-18T10:44:34Z</time>
      </trkpt>
      <trkpt lat="49.88222" lon="0.98115">
        <ele>68.5</ele>
        <time>2020-06-18T10:44:35Z</time>
      </trkpt>
      <trkpt lat="49.88223" lon="0.98125">
        <ele>68.5</ele>
        <time>2020-06-18T10:44:36Z</time>
      </trkpt>
      <trkpt lat="49.88225" lon="0.98133">
        <ele>68.4</ele>
        <time>2020-06-18T10:44:37Z</time>
      </trkpt>
      <trkpt lat="49.88227" lon="0.98143">
        <ele>68.3</ele>
        <time>2020-06-18T10:44:38Z</time>
      </trkpt>
      <trkpt lat="49.88229" lon="0.98153">
        <ele>68.3</ele>
        <time>2020-06-18T10:44:39Z</time>
      </trkpt>
      <trkpt lat="49.8823" lon="0.98163">
        <ele>68.2</ele>
        <time>2020-06-18T10:44:40Z</time>
      </trkpt>
      <trkpt lat="49.88232" lon="0.98173">
        <ele>68.1</ele>
        <time>2020-06-18T10:44:41Z</time>
      </trkpt>
      <trkpt lat="49.88234" lon="0.98184">
        <ele>68.1</ele>
        <time>2020-06-18T10:44:42Z</time>
      </trkpt>
      <trkpt lat="49.88236" lon="0.98194">
        <ele>68</ele>
        <time>2020-06-18T10:44:43Z</time>
      </trkpt>
      <trkpt lat="49.88238" lon="0.98205">
        <ele>67.9</ele>
        <time>2020-06-18T10:44:44Z</time>
      </trkpt>
      <trkpt lat="49.8824" lon="0.98215">
        <ele>67.7</ele>
        <time>2020-06-18T10:44:45Z</time>
      </trkpt>
      <trkpt lat="49.88241" lon="0.98226">
        <ele>67.6</ele>
        <time>2020-06-18T10:44:46Z</time>
      </trkpt>
      <trkpt lat="49.88243" lon="0.98236">
        <ele>67.5</ele>
        <time>2020-06-18T10:44:47Z</time>
      </trkpt>
      <trkpt lat="49.88244" lon="0.98246">
        <ele>67.5</ele>
        <time>2020-06-18T10:44:48Z</time>
      </trkpt>
      <trkpt lat="49.88246" lon="0.98256">
        <ele>67.5</ele>
        <time>2020-06-18T10:44:49Z</time>
      </trkpt>
      <trkpt lat="49.88248" lon="0.98266">
        <ele>67.5</ele>
        <time>2020-06-18T10:44:50Z</time>
      </trkpt>
      <trkpt lat="49.88249" lon="0.98275">
        <ele>67.5</ele>
        <time>2020-06-18T10:44:51Z</time>
      </trkpt>
      <trkpt lat="49.88251" lon="0.98284">
        <ele>67.4</ele>
        <time>2020-06-18T10:44:52Z</time>
      </trkpt>
      <trkpt lat="49.88253" lon="0.98293">
        <ele>67.4</ele>
        <time>2020-06-18T10:44:53Z</time>
      </trkpt>
      <trkpt lat="49.88254" lon="0.98301">
        <ele>67.4</ele>
        <time>2020-06-18T10:44:54Z</time>
      </trkpt>
      <trkpt lat="49.88256" lon="0.98309">
        <ele>67.4</ele>
        <time>2020-06-18T10:44:55Z</time>
      </trkpt>
      <trkpt lat="49.88257" lon="0.98316">
        <ele>67.4</ele>
        <time>2020-06-18T10:44:56Z</time>
      </trkpt>
      <trkpt lat="49.88258" lon="0.98323">
        <ele>67.4</ele>
        <time>2020-06-18T10:44:57Z</time>
      </trkpt>
      <trkpt lat="49.8826" lon="0.98329">
        <ele>67.3</ele>
        <time>2020-06-18T10:44:58Z</time>
      </trkpt>
      <trkpt lat="49.88261" lon="0.98335">
        <ele>67.3</ele>
        <time>2020-06-18T10:44:59Z</time>
      </trkpt>
      <trkpt lat="49.88262" lon="0.9834">
        <ele>67.3</ele>
        <time>2020-06-18T10:45:00Z</time>
      </trkpt>
      <trkpt lat="49.88263" lon="0.98346">
        <ele>67.3</ele>
        <time>2020-06-18T10:45:01Z</time>
      </trkpt>
      <trkpt lat="49.88264" lon="0.98351">
        <ele>67.3</ele>
        <time>2020-06-18T10:45:02Z</time>
      </trkpt>
      <trkpt lat="49.88265" lon="0.98356">
        <ele>67.3</ele>
        <time>2020-06-18T10:45:03Z</time>
      </trkpt>
      <trkpt lat="49.88266" lon="0.98361">
        <ele>67.3</ele>
        <time>2020-06-18T10:45:04Z</time>
      </trkpt>
      <trkpt lat="49.88266" lon="0.98366">
        <ele>67.3</ele>
        <time>2020-06-18T10:45:05Z</time>
      </trkpt>
      <trkpt lat="49.88267" lon="0.9837">
        <ele>67.2</ele>
        <time>2020-06-18T10:45:06Z</time>
      </trkpt>
      <trkpt lat="49.88267" lon="0.98375">
        <ele>67.2</ele>
        <time>2020-06-18T10:45:07Z</time>
      </trkpt>
      <trkpt lat="49.88267" lon="0.98379">
        <ele>67.2</ele>
        <time>2020-06-18T10:45:08Z</time>
      </trkpt>
      <trkpt lat="49.88266" lon="0.9838">
        <ele>67.2</ele>
        <time>2020-06-18T10:45:09Z</time>
      </trkpt>
      <trkpt lat="49.88266" lon="0.98381">
        <ele>67.2</ele>
        <time>2020-06-18T10:45:10Z</time>
      </trkpt>
      <trkpt lat="49.88266" lon="0.9838">
        <ele>67.2</ele>
        <time>2020-06-18T10:45:11Z</time>
      </trkpt>
      <trkpt lat="49.88265" lon="0.9838">
        <ele>67.2</ele>
        <time>2020-06-18T10:45:12Z</time>
      </trkpt>
      <trkpt lat="49.88265" lon="0.9838">
        <ele>67.2</ele>
        <time>2020-06-18T10:45:13Z</time>
      </trkpt>
      <trkpt lat="49.88265" lon="0.9838">
        <ele>67.2</ele>
        <time>2020-06-18T10:45:14Z</time>
      </trkpt>
      <trkpt lat="49.88265" lon="0.98379">
        <ele>67.2</ele>
        <time>2020-06-18T10:45:15Z</time>
      </trkpt>
      <trkpt lat="49.88264" lon="0.98379">
        <ele>67.2</ele>
        <time>2020-06-18T10:45:16Z</time>
      </trkpt>
      <trkpt lat="49.88265" lon="0.98379">
        <ele>67.2</ele>
        <time>2020-06-18T10:45:17Z</time>
      </trkpt>
      <trkpt lat="49.88263" lon="0.98379">
        <ele>67.2</ele>
        <time>2020-06-18T10:45:18Z</time>
      </trkpt>
      <trkpt lat="49.88265" lon="0.98381">
        <ele>67.2</ele>
        <time>2020-06-18T10:45:19Z</time>
      </trkpt>
      <trkpt lat="49.88268" lon="0.98383">
        <ele>67.2</ele>
        <time>2020-06-18T10:45:20Z</time>
      </trkpt>
      <trkpt lat="49.8827" lon="0.98384">
        <ele>67.3</ele>
        <time>2020-06-18T10:49:03Z</time>
      </trkpt>
      <trkpt lat="49.88272" lon="0.98386">
        <ele>67.3</ele>
        <time>2020-06-18T10:49:04Z</time>
      </trkpt>
      <trkpt lat="49.88273" lon="0.9839">
        <ele>67.3</ele>
        <time>2020-06-18T10:49:05Z</time>
      </trkpt>
      <trkpt lat="49.88274" lon="0.98395">
        <ele>67.3</ele>
        <time>2020-06-18T10:49:06Z</time>
      </trkpt>
      <trkpt lat="49.88273" lon="0.984">
        <ele>67.3</ele>
        <time>2020-06-18T10:49:07Z</time>
      </trkpt>
      <trkpt lat="49.88274" lon="0.98404">
        <ele>67.2</ele>
        <time>2020-06-18T10:49:08Z</time>
      </trkpt>
      <trkpt lat="49.88274" lon="0.98409">
        <ele>67.2</ele>
        <time>2020-06-18T10:49:09Z</time>
      </trkpt>
      <trkpt lat="49.88275" lon="0.98413">
        <ele>67.2</ele>
        <time>2020-06-18T10:49:10Z</time>
      </trkpt>
      <trkpt lat="49.88274" lon="0.98418">
        <ele>67.1</ele>
        <time>2020-06-18T10:49:11Z</time>
      </trkpt>
      <trkpt lat="49.88275" lon="0.98422">
        <ele>67.1</ele>
        <time>2020-06-18T10:49:12Z</time>
      </trkpt>
      <trkpt lat="49.88276" lon="0.98428">
        <ele>67.1</ele>
        <time>2020-06-18T10:49:13Z</time>
      </trkpt>
      <trkpt lat="49.88277" lon="0.9843">
        <ele>67.1</ele>
        <time>2020-06-18T10:49:14Z</time>
      </trkpt>
      <trkpt lat="49.88276" lon="0.98434">
        <ele>67.1</ele>
        <time>2020-06-18T10:49:15Z</time>
      </trkpt>
      <trkpt lat="49.88277" lon="0.98439">
        <ele>67.1</ele>
        <time>2020-06-18T10:49:16Z</time>
      </trkpt>
      <trkpt lat="49.88277" lon="0.98444">
        <ele>67</ele>
        <time>2020-06-18T10:49:17Z</time>
      </trkpt>
      <trkpt lat="49.88278" lon="0.9845">
        <ele>67</ele>
        <time>2020-06-18T10:49:18Z</time>
      </trkpt>
      <trkpt lat="49.8828" lon="0.98457">
        <ele>67</ele>
        <time>2020-06-18T10:49:19Z</time>
      </trkpt>
      <trkpt lat="49.88282" lon="0.98462">
        <ele>66.9</ele>
        <time>2020-06-18T10:49:20Z</time>
      </trkpt>
      <trkpt lat="49.88283" lon="0.98469">
        <ele>66.9</ele>
        <time>2020-06-18T10:49:21Z</time>
      </trkpt>
      <trkpt lat="49.88284" lon="0.98476">
        <ele>66.9</ele>
        <time>2020-06-18T10:49:22Z</time>
      </trkpt>
      <trkpt lat="49.88286" lon="0.98484">
        <ele>66.8</ele>
        <time>2020-06-18T10:49:23Z</time>
      </trkpt>
      <trkpt lat="49.88287" lon="0.98491">
        <ele>66.8</ele>
        <time>2020-06-18T10:49:24Z</time>
      </trkpt>
      <trkpt lat="49.88288" lon="0.98499">
        <ele>66.8</ele>
        <time>2020-06-18T10:49:25Z</time>
      </trkpt>
      <trkpt lat="49.88289" lon="0.98506">
        <ele>66.7</ele>
        <time>2020-06-18T10:49:26Z</time>
      </trkpt>
      <trkpt lat="49.88291" lon="0.98514">
        <ele>66.7</ele>
        <time>2020-06-18T10:49:27Z</time>
      </trkpt>
      <trkpt lat="49.88292" lon="0.98521">
        <ele>66.6</ele>
        <time>2020-06-18T10:49:28Z</time>
      </trkpt>
      <trkpt lat="49.88294" lon="0.98528">
        <ele>66.6</ele>
        <time>2020-06-18T10:49:29Z</time>
      </trkpt>
      <trkpt lat="49.88295" lon="0.98536">
        <ele>66.5</ele>
        <time>2020-06-18T10:49:30Z</time>
      </trkpt>
      <trkpt lat="49.88297" lon="0.98546">
        <ele>66.5</ele>
        <time>2020-06-18T10:49:31Z</time>
      </trkpt>
      <trkpt lat="49.88298" lon="0.98553">
        <ele>66.4</ele>
        <time>2020-06-18T10:49:32Z</time>
      </trkpt>
      <trkpt lat="49.883" lon="0.98564">
        <ele>66.3</ele>
        <time>2020-06-18T10:49:33Z</time>
      </trkpt>
      <trkpt lat="49.88301" lon="0.98573">
        <ele>66.2</ele>
        <time>2020-06-18T10:49:34Z</time>
      </trkpt>
      <trkpt lat="49.88303" lon="0.98581">
        <ele>66.1</ele>
        <time>2020-06-18T10:49:35Z</time>
      </trkpt>
      <trkpt lat="49.88306" lon="0.98592">
        <ele>65.9</ele>
        <time>2020-06-18T10:49:36Z</time>
      </trkpt>
      <trkpt lat="49.88308" lon="0.98601">
        <ele>65.8</ele>
        <time>2020-06-18T10:49:37Z</time>
      </trkpt>
      <trkpt lat="49.88309" lon="0.9861">
        <ele>65.7</ele>
        <time>2020-06-18T10:49:38Z</time>
      </trkpt>
      <trkpt lat="49.8831" lon="0.98618">
        <ele>65.6</ele>
        <time>2020-06-18T10:49:39Z</time>
      </trkpt>
      <trkpt lat="49.88311" lon="0.98628">
        <ele>65.6</ele>
        <time>2020-06-18T10:49:40Z</time>
      </trkpt>
      <trkpt lat="49.88313" lon="0.98638">
        <ele>65.5</ele>
        <time>2020-06-18T10:49:41Z</time>
      </trkpt>
      <trkpt lat="49.88315" lon="0.98648">
        <ele>65.4</ele>
        <time>2020-06-18T10:49:42Z</time>
      </trkpt>
      <trkpt lat="49.88317" lon="0.98658">
        <ele>65.3</ele>
        <time>2020-06-18T10:49:43Z</time>
      </trkpt>
      <trkpt lat="49.88318" lon="0.98669">
        <ele>65.1</ele>
        <time>2020-06-18T10:49:44Z</time>
      </trkpt>
      <trkpt lat="49.8832" lon="0.98679">
        <ele>65</ele>
        <time>2020-06-18T10:49:45Z</time>
      </trkpt>
      <trkpt lat="49.88322" lon="0.98689">
        <ele>64.9</ele>
        <time>2020-06-18T10:49:46Z</time>
      </trkpt>
      <trkpt lat="49.88324" lon="0.98699">
        <ele>64.8</ele>
        <time>2020-06-18T10:49:47Z</time>
      </trkpt>
      <trkpt lat="49.88325" lon="0.9871">
        <ele>64.6</ele>
        <time>2020-06-18T10:49:48Z</time>
      </trkpt>
      <trkpt lat="49.88327" lon="0.98721">
        <ele>64.4</ele>
        <time>2020-06-18T10:49:49Z</time>
      </trkpt>
      <trkpt lat="49.88329" lon="0.98732">
        <ele>64.1</ele>
        <time>2020-06-18T10:49:50Z</time>
      </trkpt>
      <trkpt lat="49.88331" lon="0.98743">
        <ele>63.9</ele>
        <time>2020-06-18T10:49:51Z</time>
      </trkpt>
      <trkpt lat="49.88333" lon="0.98754">
        <ele>63.7</ele>
        <time>2020-06-18T10:49:52Z</time>
      </trkpt>
      <trkpt lat="49.88335" lon="0.98765">
        <ele>63.5</ele>
        <time>2020-06-18T10:49:53Z</time>
      </trkpt>
      <trkpt lat="49.88336" lon="0.98777">
        <ele>63.4</ele>
        <time>2020-06-18T10:49:54Z</time>
      </trkpt>
      <trkpt lat="49.88339" lon="0.98788">
        <ele>63.3</ele>
        <time>2020-06-18T10:49:55Z</time>
      </trkpt>
      <trkpt lat="49.8834" lon="0.98799">
        <ele>63.2</ele>
        <time>2020-06-18T10:49:56Z</time>
      </trkpt>
      <trkpt lat="49.88342" lon="0.9881">
        <ele>63.2</ele>
        <time>2020-06-18T10:49:57Z</time>
      </trkpt>
      <trkpt lat="49.88344" lon="0.9882">
        <ele>63.2</ele>
        <time>2020-06-18T10:49:58Z</time>
      </trkpt>
      <trkpt lat="49.88347" lon="0.98831">
        <ele>63.3</ele>
        <time>2020-06-18T10:49:59Z</time>
      </trkpt>
      <trkpt lat="49.88348" lon="0.98841">
        <ele>63.3</ele>
        <time>2020-06-18T10:50:00Z</time>
      </trkpt>
      <trkpt lat="49.8835" lon="0.98851">
        <ele>63.4</ele>
        <time>2020-06-18T10:50:01Z</time>
      </trkpt>
      <trkpt lat="49.88352" lon="0.98861">
        <ele>63.6</ele>
        <time>2020-06-18T10:50:02Z</time>
      </trkpt>
      <trkpt lat="49.88354" lon="0.98871">
        <ele>64.3</ele>
        <time>2020-06-18T10:50:03Z</time>
      </trkpt>
      <trkpt lat="49.88355" lon="0.98881">
        <ele>66.8</ele>
        <time>2020-06-18T10:50:04Z</time>
      </trkpt>
      <trkpt lat="49.88357" lon="0.98891">
        <ele>68.3</ele>
        <time>2020-06-18T10:50:05Z</time>
      </trkpt>
      <trkpt lat="49.88359" lon="0.98901">
        <ele>69</ele>
        <time>2020-06-18T10:50:06Z</time>
      </trkpt>
      <trkpt lat="49.8836" lon="0.98912">
        <ele>69.1</ele>
        <time>2020-06-18T10:50:07Z</time>
      </trkpt>
      <trkpt lat="49.88362" lon="0.98922">
        <ele>69.2</ele>
        <time>2020-06-18T10:50:08Z</time>
      </trkpt>
      <trkpt lat="49.88363" lon="0.98932">
        <ele>69.1</ele>
        <time>2020-06-18T10:50:09Z</time>
      </trkpt>
      <trkpt lat="49.88365" lon="0.98942">
        <ele>69.1</ele>
        <time>2020-06-18T10:50:10Z</time>
      </trkpt>
      <trkpt lat="49.88367" lon="0.98952">
        <ele>69.1</ele>
        <time>2020-06-18T10:50:11Z</time>
      </trkpt>
      <trkpt lat="49.88368" lon="0.98961">
        <ele>69</ele>
        <time>2020-06-18T10:50:12Z</time>
      </trkpt>
      <trkpt lat="49.8837" lon="0.98971">
        <ele>69</ele>
        <time>2020-06-18T10:50:13Z</time>
      </trkpt>
      <trkpt lat="49.88372" lon="0.98982">
        <ele>69</ele>
        <time>2020-06-18T10:50:14Z</time>
      </trkpt>
      <trkpt lat="49.88374" lon="0.98991">
        <ele>69</ele>
        <time>2020-06-18T10:50:15Z</time>
      </trkpt>
      <trkpt lat="49.88376" lon="0.99001">
        <ele>69</ele>
        <time>2020-06-18T10:50:16Z</time>
      </trkpt>
      <trkpt lat="49.88378" lon="0.99011">
        <ele>69.1</ele>
        <time>2020-06-18T10:50:17Z</time>
      </trkpt>
      <trkpt lat="49.88379" lon="0.99021">
        <ele>69</ele>
        <time>2020-06-18T10:50:18Z</time>
      </trkpt>
      <trkpt lat="49.88381" lon="0.99031">
        <ele>69</ele>
        <time>2020-06-18T10:50:19Z</time>
      </trkpt>
      <trkpt lat="49.88383" lon="0.99041">
        <ele>68.9</ele>
        <time>2020-06-18T10:50:20Z</time>
      </trkpt>
      <trkpt lat="49.88385" lon="0.99052">
        <ele>68.8</ele>
        <time>2020-06-18T10:50:21Z</time>
      </trkpt>
      <trkpt lat="49.88386" lon="0.99062">
        <ele>68.7</ele>
        <time>2020-06-18T10:50:22Z</time>
      </trkpt>
      <trkpt lat="49.88388" lon="0.99073">
        <ele>68.6</ele>
        <time>2020-06-18T10:50:23Z</time>
      </trkpt>
      <trkpt lat="49.8839" lon="0.99083">
        <ele>68.6</ele>
        <time>2020-06-18T10:50:24Z</time>
      </trkpt>
      <trkpt lat="49.88392" lon="0.99094">
        <ele>68.5</ele>
        <time>2020-06-18T10:50:25Z</time>
      </trkpt>
      <trkpt lat="49.88394" lon="0.99105">
        <ele>68.4</ele>
        <time>2020-06-18T10:50:26Z</time>
      </trkpt>
      <trkpt lat="49.88396" lon="0.99115">
        <ele>68.4</ele>
        <time>2020-06-18T10:50:27Z</time>
      </trkpt>
      <trkpt lat="49.88398" lon="0.99126">
        <ele>68.3</ele>
        <time>2020-06-18T10:50:28Z</time>
      </trkpt>
      <trkpt lat="49.884" lon="0.99136">
        <ele>68.3</ele>
        <time>2020-06-18T10:50:29Z</time>
      </trkpt>
      <trkpt lat="49.88402" lon="0.99148">
        <ele>68.2</ele>
        <time>2020-06-18T10:50:30Z</time>
      </trkpt>
      <trkpt lat="49.88404" lon="0.99159">
        <ele>68.1</ele>
        <time>2020-06-18T10:50:31Z</time>
      </trkpt>
      <trkpt lat="49.88405" lon="0.9917">
        <ele>68.1</ele>
        <time>2020-06-18T10:50:32Z</time>
      </trkpt>
      <trkpt lat="49.88407" lon="0.99182">
        <ele>68</ele>
        <time>2020-06-18T10:50:33Z</time>
      </trkpt>
      <trkpt lat="49.88409" lon="0.99193">
        <ele>68</ele>
        <time>2020-06-18T10:50:34Z</time>
      </trkpt>
      <trkpt lat="49.88411" lon="0.99205">
        <ele>67.9</ele>
        <time>2020-06-18T10:50:35Z</time>
      </trkpt>
      <trkpt lat="49.88413" lon="0.99216">
        <ele>67.9</ele>
        <time>2020-06-18T10:50:36Z</time>
      </trkpt>
      <trkpt lat="49.88416" lon="0.99227">
        <ele>67.9</ele>
        <time>2020-06-18T10:50:37Z</time>
      </trkpt>
      <trkpt lat="49.88418" lon="0.99238">
        <ele>67.8</ele>
        <time>2020-06-18T10:50:38Z</time>
      </trkpt>
      <trkpt lat="49.8842" lon="0.99249">
        <ele>67.8</ele>
        <time>2020-06-18T10:50:39Z</time>
      </trkpt>
      <trkpt lat="49.88421" lon="0.9926">
        <ele>67.8</ele>
        <time>2020-06-18T10:50:40Z</time>
      </trkpt>
      <trkpt lat="49.88423" lon="0.99272">
        <ele>67.8</ele>
        <time>2020-06-18T10:50:41Z</time>
      </trkpt>
      <trkpt lat="49.88424" lon="0.99283">
        <ele>67.7</ele>
        <time>2020-06-18T10:50:42Z</time>
      </trkpt>
      <trkpt lat="49.88426" lon="0.99293">
        <ele>67.7</ele>
        <time>2020-06-18T10:50:43Z</time>
      </trkpt>
      <trkpt lat="49.88428" lon="0.99303">
        <ele>67.7</ele>
        <time>2020-06-18T10:50:44Z</time>
      </trkpt>
      <trkpt lat="49.8843" lon="0.99313">
        <ele>67.7</ele>
        <time>2020-06-18T10:50:45Z</time>
      </trkpt>
      <trkpt lat="49.88432" lon="0.99323">
        <ele>67.7</ele>
        <time>2020-06-18T10:50:46Z</time>
      </trkpt>
      <trkpt lat="49.88433" lon="0.99333">
        <ele>67.7</ele>
        <time>2020-06-18T10:50:47Z</time>
      </trkpt>
      <trkpt lat="49.88435" lon="0.99343">
        <ele>67.7</ele>
        <time>2020-06-18T10:50:48Z</time>
      </trkpt>
      <trkpt lat="49.88437" lon="0.99353">
        <ele>67.6</ele>
        <time>2020-06-18T10:50:49Z</time>
      </trkpt>
      <trkpt lat="49.88439" lon="0.99363">
        <ele>67.6</ele>
        <time>2020-06-18T10:50:50Z</time>
      </trkpt>
      <trkpt lat="49.88441" lon="0.99372">
        <ele>67.6</ele>
        <time>2020-06-18T10:50:51Z</time>
      </trkpt>
      <trkpt lat="49.88443" lon="0.99382">
        <ele>67.6</ele>
        <time>2020-06-18T10:50:52Z</time>
      </trkpt>
      <trkpt lat="49.88444" lon="0.99392">
        <ele>67.7</ele>
        <time>2020-06-18T10:50:53Z</time>
      </trkpt>
      <trkpt lat="49.88446" lon="0.99401">
        <ele>67.7</ele>
        <time>2020-06-18T10:50:54Z</time>
      </trkpt>
      <trkpt lat="49.88448" lon="0.99411">
        <ele>67.8</ele>
        <time>2020-06-18T10:50:55Z</time>
      </trkpt>
      <trkpt lat="49.88449" lon="0.9942">
        <ele>67.9</ele>
        <time>2020-06-18T10:50:56Z</time>
      </trkpt>
      <trkpt lat="49.88451" lon="0.9943">
        <ele>67.9</ele>
        <time>2020-06-18T10:50:57Z</time>
      </trkpt>
      <trkpt lat="49.88453" lon="0.99439">
        <ele>68</ele>
        <time>2020-06-18T10:50:58Z</time>
      </trkpt>
      <trkpt lat="49.88454" lon="0.99448">
        <ele>67.9</ele>
        <time>2020-06-18T10:50:59Z</time>
      </trkpt>
      <trkpt lat="49.88456" lon="0.99458">
        <ele>67.9</ele>
        <time>2020-06-18T10:51:00Z</time>
      </trkpt>
      <trkpt lat="49.88458" lon="0.99467">
        <ele>67.9</ele>
        <time>2020-06-18T10:51:01Z</time>
      </trkpt>
      <trkpt lat="49.88459" lon="0.99476">
        <ele>67.9</ele>
        <time>2020-06-18T10:51:02Z</time>
      </trkpt>
      <trkpt lat="49.88461" lon="0.99486">
        <ele>67.9</ele>
        <time>2020-06-18T10:51:03Z</time>
      </trkpt>
      <trkpt lat="49.88463" lon="0.99495">
        <ele>67.9</ele>
        <time>2020-06-18T10:51:04Z</time>
      </trkpt>
      <trkpt lat="49.88464" lon="0.99504">
        <ele>67.8</ele>
        <time>2020-06-18T10:51:05Z</time>
      </trkpt>
      <trkpt lat="49.88466" lon="0.99514">
        <ele>67.8</ele>
        <time>2020-06-18T10:51:06Z</time>
      </trkpt>
      <trkpt lat="49.88467" lon="0.99523">
        <ele>67.8</ele>
        <time>2020-06-18T10:51:07Z</time>
      </trkpt>
      <trkpt lat="49.88469" lon="0.99533">
        <ele>67.7</ele>
        <time>2020-06-18T10:51:08Z</time>
      </trkpt>
      <trkpt lat="49.88471" lon="0.99542">
        <ele>67.7</ele>
        <time>2020-06-18T10:51:09Z</time>
      </trkpt>
      <trkpt lat="49.88472" lon="0.99552">
        <ele>67.6</ele>
        <time>2020-06-18T10:51:10Z</time>
      </trkpt>
      <trkpt lat="49.88474" lon="0.99562">
        <ele>67.5</ele>
        <time>2020-06-18T10:51:11Z</time>
      </trkpt>
      <trkpt lat="49.88476" lon="0.99572">
        <ele>67.5</ele>
        <time>2020-06-18T10:51:12Z</time>
      </trkpt>
      <trkpt lat="49.88478" lon="0.99581">
        <ele>67.5</ele>
        <time>2020-06-18T10:51:13Z</time>
      </trkpt>
      <trkpt lat="49.88479" lon="0.99591">
        <ele>67.5</ele>
        <time>2020-06-18T10:51:14Z</time>
      </trkpt>
      <trkpt lat="49.88481" lon="0.996">
        <ele>67.6</ele>
        <time>2020-06-18T10:51:15Z</time>
      </trkpt>
      <trkpt lat="49.88483" lon="0.9961">
        <ele>67.6</ele>
        <time>2020-06-18T10:51:16Z</time>
      </trkpt>
      <trkpt lat="49.88485" lon="0.99619">
        <ele>67.6</ele>
        <time>2020-06-18T10:51:17Z</time>
      </trkpt>
      <trkpt lat="49.88486" lon="0.99629">
        <ele>67.5</ele>
        <time>2020-06-18T10:51:18Z</time>
      </trkpt>
      <trkpt lat="49.88488" lon="0.99639">
        <ele>67.5</ele>
        <time>2020-06-18T10:51:19Z</time>
      </trkpt>
      <trkpt lat="49.8849" lon="0.99648">
        <ele>67.5</ele>
        <time>2020-06-18T10:51:20Z</time>
      </trkpt>
      <trkpt lat="49.88491" lon="0.99658">
        <ele>67.5</ele>
        <time>2020-06-18T10:51:21Z</time>
      </trkpt>
      <trkpt lat="49.88493" lon="0.99668">
        <ele>67.4</ele>
        <time>2020-06-18T10:51:22Z</time>
      </trkpt>
      <trkpt lat="49.88494" lon="0.99678">
        <ele>67.4</ele>
        <time>2020-06-18T10:51:23Z</time>
      </trkpt>
      <trkpt lat="49.88495" lon="0.99687">
        <ele>67.4</ele>
        <time>2020-06-18T10:51:24Z</time>
      </trkpt>
      <trkpt lat="49.88497" lon="0.99697">
        <ele>67.4</ele>
        <time>2020-06-18T10:51:25Z</time>
      </trkpt>
      <trkpt lat="49.88498" lon="0.99707">
        <ele>67.3</ele>
        <time>2020-06-18T10:51:26Z</time>
      </trkpt>
      <trkpt lat="49.885" lon="0.99716">
        <ele>67.3</ele>
        <time>2020-06-18T10:51:27Z</time>
      </trkpt>
      <trkpt lat="49.88502" lon="0.99726">
        <ele>67.2</ele>
        <time>2020-06-18T10:51:28Z</time>
      </trkpt>
      <trkpt lat="49.88504" lon="0.99735">
        <ele>67.2</ele>
        <time>2020-06-18T10:51:29Z</time>
      </trkpt>
      <trkpt lat="49.88505" lon="0.99745">
        <ele>67.1</ele>
        <time>2020-06-18T10:51:30Z</time>
      </trkpt>
      <trkpt lat="49.88507" lon="0.99755">
        <ele>67</ele>
        <time>2020-06-18T10:51:31Z</time>
      </trkpt>
      <trkpt lat="49.88509" lon="0.99764">
        <ele>66.9</ele>
        <time>2020-06-18T10:51:32Z</time>
      </trkpt>
      <trkpt lat="49.8851" lon="0.99774">
        <ele>66.8</ele>
        <time>2020-06-18T10:51:33Z</time>
      </trkpt>
      <trkpt lat="49.88512" lon="0.99785">
        <ele>66.7</ele>
        <time>2020-06-18T10:51:34Z</time>
      </trkpt>
      <trkpt lat="49.88514" lon="0.99795">
        <ele>66.6</ele>
        <time>2020-06-18T10:51:35Z</time>
      </trkpt>
      <trkpt lat="49.88516" lon="0.99805">
        <ele>66.5</ele>
        <time>2020-06-18T10:51:36Z</time>
      </trkpt>
      <trkpt lat="49.88517" lon="0.99816">
        <ele>66.4</ele>
        <time>2020-06-18T10:51:37Z</time>
      </trkpt>
      <trkpt lat="49.88519" lon="0.99826">
        <ele>66.3</ele>
        <time>2020-06-18T10:51:38Z</time>
      </trkpt>
      <trkpt lat="49.88521" lon="0.99837">
        <ele>66.2</ele>
        <time>2020-06-18T10:51:39Z</time>
      </trkpt>
      <trkpt lat="49.88523" lon="0.99848">
        <ele>66.1</ele>
        <time>2020-06-18T10:51:40Z</time>
      </trkpt>
      <trkpt lat="49.88525" lon="0.99858">
        <ele>66</ele>
        <time>2020-06-18T10:51:41Z</time>
      </trkpt>
      <trkpt lat="49.88527" lon="0.99869">
        <ele>65.9</ele>
        <time>2020-06-18T10:51:42Z</time>
      </trkpt>
      <trkpt lat="49.88529" lon="0.99879">
        <ele>65.8</ele>
        <time>2020-06-18T10:51:43Z</time>
      </trkpt>
      <trkpt lat="49.88531" lon="0.9989">
        <ele>65.7</ele>
        <time>2020-06-18T10:51:44Z</time>
      </trkpt>
      <trkpt lat="49.88533" lon="0.99902">
        <ele>65.6</ele>
        <time>2020-06-18T10:51:45Z</time>
      </trkpt>
      <trkpt lat="49.88535" lon="0.99913">
        <ele>65.5</ele>
        <time>2020-06-18T10:51:46Z</time>
      </trkpt>
      <trkpt lat="49.88537" lon="0.99924">
        <ele>65.4</ele>
        <time>2020-06-18T10:51:47Z</time>
      </trkpt>
      <trkpt lat="49.88539" lon="0.99935">
        <ele>65.2</ele>
        <time>2020-06-18T10:51:48Z</time>
      </trkpt>
      <trkpt lat="49.88541" lon="0.99946">
        <ele>65.1</ele>
        <time>2020-06-18T10:51:49Z</time>
      </trkpt>
      <trkpt lat="49.88542" lon="0.99957">
        <ele>65</ele>
        <time>2020-06-18T10:51:50Z</time>
      </trkpt>
      <trkpt lat="49.88544" lon="0.99969">
        <ele>64.9</ele>
        <time>2020-06-18T10:51:51Z</time>
      </trkpt>
      <trkpt lat="49.88546" lon="0.9998">
        <ele>64.8</ele>
        <time>2020-06-18T10:51:52Z</time>
      </trkpt>
      <trkpt lat="49.88548" lon="0.99991">
        <ele>64.7</ele>
        <time>2020-06-18T10:51:53Z</time>
      </trkpt>
      <trkpt lat="49.8855" lon="1.00001">
        <ele>64.7</ele>
        <time>2020-06-18T10:51:54Z</time>
      </trkpt>
      <trkpt lat="49.88552" lon="1.00012">
        <ele>64.6</ele>
        <time>2020-06-18T10:51:55Z</time>
      </trkpt>
      <trkpt lat="49.88553" lon="1.00023">
        <ele>64.5</ele>
        <time>2020-06-18T10:51:56Z</time>
      </trkpt>
      <trkpt lat="49.88556" lon="1.00033">
        <ele>64.4</ele>
        <time>2020-06-18T10:51:57Z</time>
      </trkpt>
      <trkpt lat="49.88558" lon="1.00044">
        <ele>64.3</ele>
        <time>2020-06-18T10:51:58Z</time>
      </trkpt>
      <trkpt lat="49.8856" lon="1.00054">
        <ele>64.2</ele>
        <time>2020-06-18T10:51:59Z</time>
      </trkpt>
      <trkpt lat="49.88561" lon="1.00064">
        <ele>64.1</ele>
        <time>2020-06-18T10:52:00Z</time>
      </trkpt>
      <trkpt lat="49.88563" lon="1.00075">
        <ele>64</ele>
        <time>2020-06-18T10:52:01Z</time>
      </trkpt>
      <trkpt lat="49.88564" lon="1.00086">
        <ele>63.9</ele>
        <time>2020-06-18T10:52:02Z</time>
      </trkpt>
      <trkpt lat="49.88566" lon="1.00096">
        <ele>63.8</ele>
        <time>2020-06-18T10:52:03Z</time>
      </trkpt>
      <trkpt lat="49.88568" lon="1.00107">
        <ele>63.7</ele>
        <time>2020-06-18T10:52:04Z</time>
      </trkpt>
      <trkpt lat="49.8857" lon="1.00118">
        <ele>63.7</ele>
        <time>2020-06-18T10:52:05Z</time>
      </trkpt>
      <trkpt lat="49.88572" lon="1.00129">
        <ele>63.7</ele>
        <time>2020-06-18T10:52:06Z</time>
      </trkpt>
      <trkpt lat="49.88574" lon="1.0014">
        <ele>63.8</ele>
        <time>2020-06-18T10:52:07Z</time>
      </trkpt>
      <trkpt lat="49.88576" lon="1.00151">
        <ele>63.9</ele>
        <time>2020-06-18T10:52:08Z</time>
      </trkpt>
      <trkpt lat="49.88577" lon="1.00162">
        <ele>64.1</ele>
        <time>2020-06-18T10:52:09Z</time>
      </trkpt>
      <trkpt lat="49.88579" lon="1.00172">
        <ele>65.7</ele>
        <time>2020-06-18T10:52:10Z</time>
      </trkpt>
      <trkpt lat="49.88581" lon="1.00183">
        <ele>66.7</ele>
        <time>2020-06-18T10:52:11Z</time>
      </trkpt>
      <trkpt lat="49.88583" lon="1.00194">
        <ele>67</ele>
        <time>2020-06-18T10:52:12Z</time>
      </trkpt>
      <trkpt lat="49.88585" lon="1.00204">
        <ele>67</ele>
        <time>2020-06-18T10:52:13Z</time>
      </trkpt>
      <trkpt lat="49.88587" lon="1.00215">
        <ele>67.1</ele>
        <time>2020-06-18T10:52:14Z</time>
      </trkpt>
      <trkpt lat="49.88588" lon="1.00226">
        <ele>67.1</ele>
        <time>2020-06-18T10:52:15Z</time>
      </trkpt>
      <trkpt lat="49.8859" lon="1.00236">
        <ele>67</ele>
        <time>2020-06-18T10:52:16Z</time>
      </trkpt>
      <trkpt lat="49.88591" lon="1.00247">
        <ele>67</ele>
        <time>2020-06-18T10:52:17Z</time>
      </trkpt>
      <trkpt lat="49.88593" lon="1.00257">
        <ele>66.9</ele>
        <time>2020-06-18T10:52:18Z</time>
      </trkpt>
      <trkpt lat="49.88595" lon="1.00268">
        <ele>66.8</ele>
        <time>2020-06-18T10:52:19Z</time>
      </trkpt>
      <trkpt lat="49.88597" lon="1.00278">
        <ele>66.7</ele>
        <time>2020-06-18T10:52:20Z</time>
      </trkpt>
      <trkpt lat="49.88599" lon="1.00288">
        <ele>66.7</ele>
        <time>2020-06-18T10:52:21Z</time>
      </trkpt>
      <trkpt lat="49.886" lon="1.00299">
        <ele>66.6</ele>
        <time>2020-06-18T10:52:22Z</time>
      </trkpt>
      <trkpt lat="49.88602" lon="1.00309">
        <ele>66.5</ele>
        <time>2020-06-18T10:52:23Z</time>
      </trkpt>
      <trkpt lat="49.88603" lon="1.00319">
        <ele>66.5</ele>
        <time>2020-06-18T10:52:24Z</time>
      </trkpt>
      <trkpt lat="49.88605" lon="1.00329">
        <ele>66.5</ele>
        <time>2020-06-18T10:52:25Z</time>
      </trkpt>
      <trkpt lat="49.88607" lon="1.00339">
        <ele>66.5</ele>
        <time>2020-06-18T10:52:26Z</time>
      </trkpt>
      <trkpt lat="49.88609" lon="1.00348">
        <ele>66.5</ele>
        <time>2020-06-18T10:52:27Z</time>
      </trkpt>
      <trkpt lat="49.8861" lon="1.00358">
        <ele>66.6</ele>
        <time>2020-06-18T10:52:28Z</time>
      </trkpt>
      <trkpt lat="49.88612" lon="1.00367">
        <ele>66.6</ele>
        <time>2020-06-18T10:52:29Z</time>
      </trkpt>
      <trkpt lat="49.88613" lon="1.00376">
        <ele>66.6</ele>
        <time>2020-06-18T10:52:30Z</time>
      </trkpt>
      <trkpt lat="49.88615" lon="1.00385">
        <ele>66.7</ele>
        <time>2020-06-18T10:52:31Z</time>
      </trkpt>
      <trkpt lat="49.88617" lon="1.00394">
        <ele>66.6</ele>
        <time>2020-06-18T10:52:32Z</time>
      </trkpt>
      <trkpt lat="49.88618" lon="1.00403">
        <ele>66.6</ele>
        <time>2020-06-18T10:52:33Z</time>
      </trkpt>
      <trkpt lat="49.8862" lon="1.00412">
        <ele>66.6</ele>
        <time>2020-06-18T10:52:34Z</time>
      </trkpt>
      <trkpt lat="49.88622" lon="1.00421">
        <ele>66.6</ele>
        <time>2020-06-18T10:52:35Z</time>
      </trkpt>
      <trkpt lat="49.88624" lon="1.0043">
        <ele>66.6</ele>
        <time>2020-06-18T10:52:36Z</time>
      </trkpt>
      <trkpt lat="49.88625" lon="1.00439">
        <ele>66.6</ele>
        <time>2020-06-18T10:52:37Z</time>
      </trkpt>
      <trkpt lat="49.88628" lon="1.00447">
        <ele>66.7</ele>
        <time>2020-06-18T10:52:38Z</time>
      </trkpt>
      <trkpt lat="49.8863" lon="1.00456">
        <ele>66.7</ele>
        <time>2020-06-18T10:52:39Z</time>
      </trkpt>
      <trkpt lat="49.88631" lon="1.00465">
        <ele>66.7</ele>
        <time>2020-06-18T10:52:40Z</time>
      </trkpt>
      <trkpt lat="49.88633" lon="1.00474">
        <ele>66.7</ele>
        <time>2020-06-18T10:52:41Z</time>
      </trkpt>
      <trkpt lat="49.88634" lon="1.00483">
        <ele>66.7</ele>
        <time>2020-06-18T10:52:42Z</time>
      </trkpt>
      <trkpt lat="49.88636" lon="1.00493">
        <ele>66.7</ele>
        <time>2020-06-18T10:52:43Z</time>
      </trkpt>
      <trkpt lat="49.88637" lon="1.00502">
        <ele>66.6</ele>
        <time>2020-06-18T10:52:44Z</time>
      </trkpt>
      <trkpt lat="49.88637" lon="1.00511">
        <ele>66.7</ele>
        <time>2020-06-18T10:52:45Z</time>
      </trkpt>
      <trkpt lat="49.88639" lon="1.0052">
        <ele>66.7</ele>
        <time>2020-06-18T10:52:46Z</time>
      </trkpt>
      <trkpt lat="49.8864" lon="1.00529">
        <ele>66.7</ele>
        <time>2020-06-18T10:52:47Z</time>
      </trkpt>
      <trkpt lat="49.88642" lon="1.00538">
        <ele>66.7</ele>
        <time>2020-06-18T10:52:48Z</time>
      </trkpt>
      <trkpt lat="49.88643" lon="1.00547">
        <ele>66.8</ele>
        <time>2020-06-18T10:52:49Z</time>
      </trkpt>
      <trkpt lat="49.88644" lon="1.00556">
        <ele>66.9</ele>
        <time>2020-06-18T10:52:50Z</time>
      </trkpt>
      <trkpt lat="49.88646" lon="1.00564">
        <ele>67</ele>
        <time>2020-06-18T10:52:51Z</time>
      </trkpt>
      <trkpt lat="49.88647" lon="1.00573">
        <ele>67.1</ele>
        <time>2020-06-18T10:52:52Z</time>
      </trkpt>
      <trkpt lat="49.88649" lon="1.00583">
        <ele>67.1</ele>
        <time>2020-06-18T10:52:53Z</time>
      </trkpt>
      <trkpt lat="49.88651" lon="1.00592">
        <ele>67</ele>
        <time>2020-06-18T10:52:54Z</time>
      </trkpt>
      <trkpt lat="49.88653" lon="1.006">
        <ele>67</ele>
        <time>2020-06-18T10:52:55Z</time>
      </trkpt>
      <trkpt lat="49.88654" lon="1.00609">
        <ele>66.9</ele>
        <time>2020-06-18T10:52:56Z</time>
      </trkpt>
      <trkpt lat="49.88656" lon="1.00619">
        <ele>66.8</ele>
        <time>2020-06-18T10:52:57Z</time>
      </trkpt>
      <trkpt lat="49.88658" lon="1.00628">
        <ele>66.8</ele>
        <time>2020-06-18T10:52:58Z</time>
      </trkpt>
      <trkpt lat="49.8866" lon="1.00639">
        <ele>66.7</ele>
        <time>2020-06-18T10:52:59Z</time>
      </trkpt>
      <trkpt lat="49.88662" lon="1.0065">
        <ele>66.6</ele>
        <time>2020-06-18T10:53:00Z</time>
      </trkpt>
      <trkpt lat="49.88664" lon="1.00659">
        <ele>66.5</ele>
        <time>2020-06-18T10:53:01Z</time>
      </trkpt>
      <trkpt lat="49.88665" lon="1.00668">
        <ele>66.4</ele>
        <time>2020-06-18T10:53:02Z</time>
      </trkpt>
      <trkpt lat="49.88667" lon="1.00678">
        <ele>66.4</ele>
        <time>2020-06-18T10:53:03Z</time>
      </trkpt>
      <trkpt lat="49.88669" lon="1.00688">
        <ele>66.5</ele>
        <time>2020-06-18T10:53:04Z</time>
      </trkpt>
      <trkpt lat="49.88671" lon="1.00698">
        <ele>66.6</ele>
        <time>2020-06-18T10:53:05Z</time>
      </trkpt>
      <trkpt lat="49.88673" lon="1.00707">
        <ele>66.7</ele>
        <time>2020-06-18T10:53:06Z</time>
      </trkpt>
      <trkpt lat="49.88674" lon="1.00718">
        <ele>66.8</ele>
        <time>2020-06-18T10:53:07Z</time>
      </trkpt>
      <trkpt lat="49.88676" lon="1.00729">
        <ele>66.7</ele>
        <time>2020-06-18T10:53:08Z</time>
      </trkpt>
      <trkpt lat="49.88678" lon="1.00738">
        <ele>66.5</ele>
        <time>2020-06-18T10:53:09Z</time>
      </trkpt>
      <trkpt lat="49.88679" lon="1.00749">
        <ele>66.3</ele>
        <time>2020-06-18T10:53:10Z</time>
      </trkpt>
      <trkpt lat="49.88681" lon="1.00759">
        <ele>66.2</ele>
        <time>2020-06-18T10:53:11Z</time>
      </trkpt>
      <trkpt lat="49.88683" lon="1.00768">
        <ele>66.1</ele>
        <time>2020-06-18T10:53:12Z</time>
      </trkpt>
      <trkpt lat="49.88684" lon="1.00778">
        <ele>66</ele>
        <time>2020-06-18T10:53:13Z</time>
      </trkpt>
      <trkpt lat="49.88686" lon="1.00788">
        <ele>66</ele>
        <time>2020-06-18T10:53:14Z</time>
      </trkpt>
      <trkpt lat="49.88688" lon="1.00799">
        <ele>66</ele>
        <time>2020-06-18T10:53:15Z</time>
      </trkpt>
      <trkpt lat="49.8869" lon="1.00809">
        <ele>66.1</ele>
        <time>2020-06-18T10:53:16Z</time>
      </trkpt>
      <trkpt lat="49.88692" lon="1.00819">
        <ele>66.1</ele>
        <time>2020-06-18T10:53:17Z</time>
      </trkpt>
      <trkpt lat="49.88694" lon="1.00829">
        <ele>66.1</ele>
        <time>2020-06-18T10:53:18Z</time>
      </trkpt>
      <trkpt lat="49.88696" lon="1.00839">
        <ele>66</ele>
        <time>2020-06-18T10:53:19Z</time>
      </trkpt>
      <trkpt lat="49.88698" lon="1.0085">
        <ele>66.1</ele>
        <time>2020-06-18T10:53:20Z</time>
      </trkpt>
      <trkpt lat="49.88699" lon="1.0086">
        <ele>66.1</ele>
        <time>2020-06-18T10:53:21Z</time>
      </trkpt>
      <trkpt lat="49.88701" lon="1.00871">
        <ele>66.1</ele>
        <time>2020-06-18T10:53:22Z</time>
      </trkpt>
      <trkpt lat="49.88702" lon="1.00881">
        <ele>66</ele>
        <time>2020-06-18T10:53:23Z</time>
      </trkpt>
      <trkpt lat="49.88704" lon="1.00892">
        <ele>66</ele>
        <time>2020-06-18T10:53:24Z</time>
      </trkpt>
      <trkpt lat="49.88706" lon="1.00902">
        <ele>65.9</ele>
        <time>2020-06-18T10:53:25Z</time>
      </trkpt>
      <trkpt lat="49.88708" lon="1.00912">
        <ele>65.9</ele>
        <time>2020-06-18T10:53:26Z</time>
      </trkpt>
      <trkpt lat="49.8871" lon="1.00923">
        <ele>65.8</ele>
        <time>2020-06-18T10:53:27Z</time>
      </trkpt>
      <trkpt lat="49.88712" lon="1.00933">
        <ele>65.8</ele>
        <time>2020-06-18T10:53:28Z</time>
      </trkpt>
      <trkpt lat="49.88714" lon="1.00943">
        <ele>65.7</ele>
        <time>2020-06-18T10:53:29Z</time>
      </trkpt>
      <trkpt lat="49.88715" lon="1.00954">
        <ele>65.7</ele>
        <time>2020-06-18T10:53:30Z</time>
      </trkpt>
      <trkpt lat="49.88717" lon="1.00965">
        <ele>65.7</ele>
        <time>2020-06-18T10:53:31Z</time>
      </trkpt>
      <trkpt lat="49.88719" lon="1.00975">
        <ele>65.7</ele>
        <time>2020-06-18T10:53:32Z</time>
      </trkpt>
      <trkpt lat="49.8872" lon="1.00986">
        <ele>65.7</ele>
        <time>2020-06-18T10:53:33Z</time>
      </trkpt>
      <trkpt lat="49.88722" lon="1.00996">
        <ele>65.7</ele>
        <time>2020-06-18T10:53:34Z</time>
      </trkpt>
      <trkpt lat="49.88724" lon="1.01006">
        <ele>65.7</ele>
        <time>2020-06-18T10:53:35Z</time>
      </trkpt>
      <trkpt lat="49.88726" lon="1.01016">
        <ele>65.7</ele>
        <time>2020-06-18T10:53:36Z</time>
      </trkpt>
      <trkpt lat="49.88728" lon="1.01027">
        <ele>65.7</ele>
        <time>2020-06-18T10:53:37Z</time>
      </trkpt>
      <trkpt lat="49.88729" lon="1.01037">
        <ele>65.7</ele>
        <time>2020-06-18T10:53:38Z</time>
      </trkpt>
      <trkpt lat="49.88731" lon="1.01046">
        <ele>65.7</ele>
        <time>2020-06-18T10:53:39Z</time>
      </trkpt>
      <trkpt lat="49.88733" lon="1.01056">
        <ele>65.7</ele>
        <time>2020-06-18T10:53:40Z</time>
      </trkpt>
      <trkpt lat="49.88735" lon="1.01065">
        <ele>65.7</ele>
        <time>2020-06-18T10:53:41Z</time>
      </trkpt>
      <trkpt lat="49.88737" lon="1.01075">
        <ele>65.7</ele>
        <time>2020-06-18T10:53:42Z</time>
      </trkpt>
      <trkpt lat="49.88738" lon="1.01085">
        <ele>65.8</ele>
        <time>2020-06-18T10:53:43Z</time>
      </trkpt>
      <trkpt lat="49.8874" lon="1.01095">
        <ele>65.9</ele>
        <time>2020-06-18T10:53:44Z</time>
      </trkpt>
      <trkpt lat="49.88742" lon="1.01105">
        <ele>66</ele>
        <time>2020-06-18T10:53:45Z</time>
      </trkpt>
      <trkpt lat="49.88743" lon="1.01115">
        <ele>66.1</ele>
        <time>2020-06-18T10:53:46Z</time>
      </trkpt>
      <trkpt lat="49.88745" lon="1.01125">
        <ele>66.2</ele>
        <time>2020-06-18T10:53:47Z</time>
      </trkpt>
      <trkpt lat="49.88747" lon="1.01136">
        <ele>66.4</ele>
        <time>2020-06-18T10:53:48Z</time>
      </trkpt>
      <trkpt lat="49.88748" lon="1.01146">
        <ele>66.6</ele>
        <time>2020-06-18T10:53:49Z</time>
      </trkpt>
      <trkpt lat="49.8875" lon="1.01156">
        <ele>66.9</ele>
        <time>2020-06-18T10:53:50Z</time>
      </trkpt>
      <trkpt lat="49.88752" lon="1.01167">
        <ele>66.8</ele>
        <time>2020-06-18T10:53:51Z</time>
      </trkpt>
      <trkpt lat="49.88753" lon="1.01177">
        <ele>66.6</ele>
        <time>2020-06-18T10:53:52Z</time>
      </trkpt>
      <trkpt lat="49.88755" lon="1.01187">
        <ele>66.5</ele>
        <time>2020-06-18T10:53:53Z</time>
      </trkpt>
      <trkpt lat="49.88757" lon="1.01197">
        <ele>66.4</ele>
        <time>2020-06-18T10:53:54Z</time>
      </trkpt>
      <trkpt lat="49.88759" lon="1.01208">
        <ele>66.3</ele>
        <time>2020-06-18T10:53:55Z</time>
      </trkpt>
      <trkpt lat="49.88761" lon="1.01218">
        <ele>66.2</ele>
        <time>2020-06-18T10:53:56Z</time>
      </trkpt>
      <trkpt lat="49.88763" lon="1.01228">
        <ele>66.2</ele>
        <time>2020-06-18T10:53:57Z</time>
      </trkpt>
      <trkpt lat="49.88765" lon="1.01239">
        <ele>66.2</ele>
        <time>2020-06-18T10:53:58Z</time>
      </trkpt>
      <trkpt lat="49.88767" lon="1.01249">
        <ele>66.3</ele>
        <time>2020-06-18T10:53:59Z</time>
      </trkpt>
      <trkpt lat="49.88768" lon="1.0126">
        <ele>66.3</ele>
        <time>2020-06-18T10:54:00Z</time>
      </trkpt>
      <trkpt lat="49.8877" lon="1.01271">
        <ele>66.4</ele>
        <time>2020-06-18T10:54:01Z</time>
      </trkpt>
      <trkpt lat="49.88772" lon="1.01281">
        <ele>66.4</ele>
        <time>2020-06-18T10:54:02Z</time>
      </trkpt>
      <trkpt lat="49.88774" lon="1.01292">
        <ele>66.5</ele>
        <time>2020-06-18T10:54:03Z</time>
      </trkpt>
      <trkpt lat="49.88775" lon="1.01302">
        <ele>67.4</ele>
        <time>2020-06-18T10:54:04Z</time>
      </trkpt>
      <trkpt lat="49.88777" lon="1.01313">
        <ele>68</ele>
        <time>2020-06-18T10:54:05Z</time>
      </trkpt>
      <trkpt lat="49.88779" lon="1.01323">
        <ele>68.2</ele>
        <time>2020-06-18T10:54:06Z</time>
      </trkpt>
      <trkpt lat="49.88781" lon="1.01334">
        <ele>68.3</ele>
        <time>2020-06-18T10:54:07Z</time>
      </trkpt>
      <trkpt lat="49.88782" lon="1.01345">
        <ele>68.3</ele>
        <time>2020-06-18T10:54:08Z</time>
      </trkpt>
      <trkpt lat="49.88785" lon="1.01356">
        <ele>68.1</ele>
        <time>2020-06-18T10:54:09Z</time>
      </trkpt>
      <trkpt lat="49.88786" lon="1.01367">
        <ele>68</ele>
        <time>2020-06-18T10:54:10Z</time>
      </trkpt>
      <trkpt lat="49.88788" lon="1.01378">
        <ele>68</ele>
        <time>2020-06-18T10:54:11Z</time>
      </trkpt>
      <trkpt lat="49.8879" lon="1.01389">
        <ele>67.9</ele>
        <time>2020-06-18T10:54:12Z</time>
      </trkpt>
      <trkpt lat="49.88792" lon="1.01399">
        <ele>67.9</ele>
        <time>2020-06-18T10:54:13Z</time>
      </trkpt>
      <trkpt lat="49.88794" lon="1.0141">
        <ele>67.8</ele>
        <time>2020-06-18T10:54:14Z</time>
      </trkpt>
      <trkpt lat="49.88795" lon="1.01421">
        <ele>67.7</ele>
        <time>2020-06-18T10:54:15Z</time>
      </trkpt>
      <trkpt lat="49.88797" lon="1.01432">
        <ele>67.6</ele>
        <time>2020-06-18T10:54:16Z</time>
      </trkpt>
      <trkpt lat="49.88799" lon="1.01443">
        <ele>67.6</ele>
        <time>2020-06-18T10:54:17Z</time>
      </trkpt>
      <trkpt lat="49.88801" lon="1.01454">
        <ele>67.5</ele>
        <time>2020-06-18T10:54:18Z</time>
      </trkpt>
      <trkpt lat="49.88803" lon="1.01465">
        <ele>67.5</ele>
        <time>2020-06-18T10:54:19Z</time>
      </trkpt>
      <trkpt lat="49.88805" lon="1.01476">
        <ele>67.4</ele>
        <time>2020-06-18T10:54:20Z</time>
      </trkpt>
      <trkpt lat="49.88807" lon="1.01487">
        <ele>67.4</ele>
        <time>2020-06-18T10:54:21Z</time>
      </trkpt>
      <trkpt lat="49.88809" lon="1.01498">
        <ele>67.2</ele>
        <time>2020-06-18T10:54:22Z</time>
      </trkpt>
      <trkpt lat="49.88811" lon="1.01509">
        <ele>67.1</ele>
        <time>2020-06-18T10:54:23Z</time>
      </trkpt>
      <trkpt lat="49.88813" lon="1.01519">
        <ele>67</ele>
        <time>2020-06-18T10:54:24Z</time>
      </trkpt>
      <trkpt lat="49.88815" lon="1.0153">
        <ele>66.9</ele>
        <time>2020-06-18T10:54:25Z</time>
      </trkpt>
      <trkpt lat="49.88816" lon="1.01541">
        <ele>66.9</ele>
        <time>2020-06-18T10:54:26Z</time>
      </trkpt>
      <trkpt lat="49.88818" lon="1.01552">
        <ele>66.9</ele>
        <time>2020-06-18T10:54:27Z</time>
      </trkpt>
      <trkpt lat="49.8882" lon="1.01563">
        <ele>67</ele>
        <time>2020-06-18T10:54:28Z</time>
      </trkpt>
      <trkpt lat="49.88822" lon="1.01574">
        <ele>67.1</ele>
        <time>2020-06-18T10:54:29Z</time>
      </trkpt>
      <trkpt lat="49.88824" lon="1.01585">
        <ele>67.1</ele>
        <time>2020-06-18T10:54:30Z</time>
      </trkpt>
      <trkpt lat="49.88826" lon="1.01596">
        <ele>67.1</ele>
        <time>2020-06-18T10:54:31Z</time>
      </trkpt>
      <trkpt lat="49.88828" lon="1.01607">
        <ele>67</ele>
        <time>2020-06-18T10:54:32Z</time>
      </trkpt>
      <trkpt lat="49.8883" lon="1.01618">
        <ele>66.9</ele>
        <time>2020-06-18T10:54:33Z</time>
      </trkpt>
      <trkpt lat="49.88832" lon="1.01629">
        <ele>66.8</ele>
        <time>2020-06-18T10:54:34Z</time>
      </trkpt>
      <trkpt lat="49.88834" lon="1.01641">
        <ele>66.7</ele>
        <time>2020-06-18T10:54:35Z</time>
      </trkpt>
      <trkpt lat="49.88835" lon="1.01652">
        <ele>66.6</ele>
        <time>2020-06-18T10:54:36Z</time>
      </trkpt>
      <trkpt lat="49.88837" lon="1.01662">
        <ele>66.5</ele>
        <time>2020-06-18T10:54:37Z</time>
      </trkpt>
      <trkpt lat="49.88839" lon="1.01673">
        <ele>66.6</ele>
        <time>2020-06-18T10:54:38Z</time>
      </trkpt>
      <trkpt lat="49.88841" lon="1.01684">
        <ele>66.7</ele>
        <time>2020-06-18T10:54:39Z</time>
      </trkpt>
      <trkpt lat="49.88842" lon="1.01694">
        <ele>66.8</ele>
        <time>2020-06-18T10:54:40Z</time>
      </trkpt>
      <trkpt lat="49.88844" lon="1.01704">
        <ele>66.9</ele>
        <time>2020-06-18T10:54:41Z</time>
      </trkpt>
      <trkpt lat="49.88847" lon="1.01714">
        <ele>67.1</ele>
        <time>2020-06-18T10:54:42Z</time>
      </trkpt>
      <trkpt lat="49.88848" lon="1.01725">
        <ele>67.2</ele>
        <time>2020-06-18T10:54:43Z</time>
      </trkpt>
      <trkpt lat="49.8885" lon="1.01735">
        <ele>67.3</ele>
        <time>2020-06-18T10:54:44Z</time>
      </trkpt>
      <trkpt lat="49.88852" lon="1.01744">
        <ele>67.5</ele>
        <time>2020-06-18T10:54:45Z</time>
      </trkpt>
      <trkpt lat="49.88854" lon="1.01754">
        <ele>67.7</ele>
        <time>2020-06-18T10:54:46Z</time>
      </trkpt>
      <trkpt lat="49.88856" lon="1.01763">
        <ele>67.9</ele>
        <time>2020-06-18T10:54:47Z</time>
      </trkpt>
      <trkpt lat="49.88857" lon="1.01772">
        <ele>68.1</ele>
        <time>2020-06-18T10:54:48Z</time>
      </trkpt>
      <trkpt lat="49.88859" lon="1.0178">
        <ele>68.3</ele>
        <time>2020-06-18T10:54:49Z</time>
      </trkpt>
      <trkpt lat="49.8886" lon="1.01789">
        <ele>68.5</ele>
        <time>2020-06-18T10:54:50Z</time>
      </trkpt>
      <trkpt lat="49.88862" lon="1.01798">
        <ele>68.8</ele>
        <time>2020-06-18T10:54:51Z</time>
      </trkpt>
      <trkpt lat="49.88864" lon="1.01806">
        <ele>69</ele>
        <time>2020-06-18T10:54:52Z</time>
      </trkpt>
      <trkpt lat="49.88865" lon="1.01815">
        <ele>69.2</ele>
        <time>2020-06-18T10:54:53Z</time>
      </trkpt>
      <trkpt lat="49.88867" lon="1.01822">
        <ele>69.4</ele>
        <time>2020-06-18T10:54:54Z</time>
      </trkpt>
      <trkpt lat="49.88868" lon="1.0183">
        <ele>69.6</ele>
        <time>2020-06-18T10:54:55Z</time>
      </trkpt>
      <trkpt lat="49.88869" lon="1.01837">
        <ele>69.8</ele>
        <time>2020-06-18T10:54:56Z</time>
      </trkpt>
      <trkpt lat="49.8887" lon="1.01845">
        <ele>69.9</ele>
        <time>2020-06-18T10:54:57Z</time>
      </trkpt>
      <trkpt lat="49.88871" lon="1.01852">
        <ele>70.1</ele>
        <time>2020-06-18T10:54:58Z</time>
      </trkpt>
      <trkpt lat="49.88872" lon="1.01859">
        <ele>70.2</ele>
        <time>2020-06-18T10:54:59Z</time>
      </trkpt>
      <trkpt lat="49.88874" lon="1.01867">
        <ele>70.4</ele>
        <time>2020-06-18T10:55:00Z</time>
      </trkpt>
      <trkpt lat="49.88875" lon="1.01875">
        <ele>70.5</ele>
        <time>2020-06-18T10:55:01Z</time>
      </trkpt>
      <trkpt lat="49.88876" lon="1.01883">
        <ele>70.6</ele>
        <time>2020-06-18T10:55:02Z</time>
      </trkpt>
      <trkpt lat="49.88877" lon="1.01891">
        <ele>70.7</ele>
        <time>2020-06-18T10:55:03Z</time>
      </trkpt>
      <trkpt lat="49.88879" lon="1.01899">
        <ele>70.8</ele>
        <time>2020-06-18T10:55:04Z</time>
      </trkpt>
      <trkpt lat="49.8888" lon="1.01905">
        <ele>70.9</ele>
        <time>2020-06-18T10:55:05Z</time>
      </trkpt>
      <trkpt lat="49.88882" lon="1.01914">
        <ele>70.9</ele>
        <time>2020-06-18T10:55:06Z</time>
      </trkpt>
      <trkpt lat="49.88884" lon="1.01922">
        <ele>71.1</ele>
        <time>2020-06-18T10:55:07Z</time>
      </trkpt>
      <trkpt lat="49.88885" lon="1.01929">
        <ele>71.2</ele>
        <time>2020-06-18T10:55:08Z</time>
      </trkpt>
      <trkpt lat="49.88886" lon="1.01937">
        <ele>71.3</ele>
        <time>2020-06-18T10:55:09Z</time>
      </trkpt>
      <trkpt lat="49.88887" lon="1.01943">
        <ele>71.4</ele>
        <time>2020-06-18T10:55:10Z</time>
      </trkpt>
      <trkpt lat="49.88888" lon="1.01952">
        <ele>71.5</ele>
        <time>2020-06-18T10:55:11Z</time>
      </trkpt>
      <trkpt lat="49.88889" lon="1.0196">
        <ele>71.7</ele>
        <time>2020-06-18T10:55:12Z</time>
      </trkpt>
      <trkpt lat="49.8889" lon="1.01968">
        <ele>71.8</ele>
        <time>2020-06-18T10:55:13Z</time>
      </trkpt>
      <trkpt lat="49.88891" lon="1.01976">
        <ele>71.9</ele>
        <time>2020-06-18T10:55:14Z</time>
      </trkpt>
      <trkpt lat="49.88893" lon="1.01984">
        <ele>71.9</ele>
        <time>2020-06-18T10:55:15Z</time>
      </trkpt>
      <trkpt lat="49.88894" lon="1.01992">
        <ele>71.9</ele>
        <time>2020-06-18T10:55:16Z</time>
      </trkpt>
      <trkpt lat="49.88896" lon="1.02002">
        <ele>71.9</ele>
        <time>2020-06-18T10:55:17Z</time>
      </trkpt>
      <trkpt lat="49.88897" lon="1.02009">
        <ele>71.8</ele>
        <time>2020-06-18T10:55:18Z</time>
      </trkpt>
      <trkpt lat="49.88898" lon="1.02016">
        <ele>71.8</ele>
        <time>2020-06-18T10:55:19Z</time>
      </trkpt>
      <trkpt lat="49.88899" lon="1.02025">
        <ele>71.7</ele>
        <time>2020-06-18T10:55:20Z</time>
      </trkpt>
      <trkpt lat="49.889" lon="1.02033">
        <ele>71.7</ele>
        <time>2020-06-18T10:55:21Z</time>
      </trkpt>
      <trkpt lat="49.88902" lon="1.02041">
        <ele>71.7</ele>
        <time>2020-06-18T10:55:22Z</time>
      </trkpt>
      <trkpt lat="49.88905" lon="1.0205">
        <ele>71.8</ele>
        <time>2020-06-18T10:55:23Z</time>
      </trkpt>
      <trkpt lat="49.88906" lon="1.02057">
        <ele>71.8</ele>
        <time>2020-06-18T10:55:24Z</time>
      </trkpt>
      <trkpt lat="49.88908" lon="1.02064">
        <ele>71.9</ele>
        <time>2020-06-18T10:55:25Z</time>
      </trkpt>
      <trkpt lat="49.88909" lon="1.02071">
        <ele>71.9</ele>
        <time>2020-06-18T10:55:26Z</time>
      </trkpt>
      <trkpt lat="49.88911" lon="1.0208">
        <ele>71.8</ele>
        <time>2020-06-18T10:55:27Z</time>
      </trkpt>
      <trkpt lat="49.88913" lon="1.02088">
        <ele>71.8</ele>
        <time>2020-06-18T10:55:28Z</time>
      </trkpt>
      <trkpt lat="49.88914" lon="1.02096">
        <ele>71.7</ele>
        <time>2020-06-18T10:55:29Z</time>
      </trkpt>
      <trkpt lat="49.88915" lon="1.02104">
        <ele>71.6</ele>
        <time>2020-06-18T10:55:30Z</time>
      </trkpt>
      <trkpt lat="49.88917" lon="1.02114">
        <ele>71.6</ele>
        <time>2020-06-18T10:55:31Z</time>
      </trkpt>
      <trkpt lat="49.88918" lon="1.02121">
        <ele>71.6</ele>
        <time>2020-06-18T10:55:32Z</time>
      </trkpt>
      <trkpt lat="49.88919" lon="1.0213">
        <ele>71.5</ele>
        <time>2020-06-18T10:55:33Z</time>
      </trkpt>
      <trkpt lat="49.8892" lon="1.0214">
        <ele>71.5</ele>
        <time>2020-06-18T10:55:34Z</time>
      </trkpt>
      <trkpt lat="49.88922" lon="1.0215">
        <ele>71.5</ele>
        <time>2020-06-18T10:55:35Z</time>
      </trkpt>
      <trkpt lat="49.88923" lon="1.02158">
        <ele>71.5</ele>
        <time>2020-06-18T10:55:36Z</time>
      </trkpt>
      <trkpt lat="49.88925" lon="1.02169">
        <ele>71.5</ele>
        <time>2020-06-18T10:55:37Z</time>
      </trkpt>
      <trkpt lat="49.88927" lon="1.02178">
        <ele>71.4</ele>
        <time>2020-06-18T10:55:38Z</time>
      </trkpt>
      <trkpt lat="49.88929" lon="1.02188">
        <ele>71.3</ele>
        <time>2020-06-18T10:55:39Z</time>
      </trkpt>
      <trkpt lat="49.88931" lon="1.02198">
        <ele>71.2</ele>
        <time>2020-06-18T10:55:40Z</time>
      </trkpt>
      <trkpt lat="49.88932" lon="1.02207">
        <ele>71.1</ele>
        <time>2020-06-18T10:55:41Z</time>
      </trkpt>
      <trkpt lat="49.88934" lon="1.02216">
        <ele>71</ele>
        <time>2020-06-18T10:55:42Z</time>
      </trkpt>
      <trkpt lat="49.88935" lon="1.02225">
        <ele>70.9</ele>
        <time>2020-06-18T10:55:43Z</time>
      </trkpt>
      <trkpt lat="49.88937" lon="1.02234">
        <ele>70.9</ele>
        <time>2020-06-18T10:55:44Z</time>
      </trkpt>
      <trkpt lat="49.88939" lon="1.02244">
        <ele>70.9</ele>
        <time>2020-06-18T10:55:45Z</time>
      </trkpt>
      <trkpt lat="49.88941" lon="1.02253">
        <ele>70.9</ele>
        <time>2020-06-18T10:55:46Z</time>
      </trkpt>
      <trkpt lat="49.88942" lon="1.02262">
        <ele>70.9</ele>
        <time>2020-06-18T10:55:47Z</time>
      </trkpt>
      <trkpt lat="49.88943" lon="1.02271">
        <ele>70.9</ele>
        <time>2020-06-18T10:55:48Z</time>
      </trkpt>
      <trkpt lat="49.88945" lon="1.0228">
        <ele>70.9</ele>
        <time>2020-06-18T10:55:49Z</time>
      </trkpt>
      <trkpt lat="49.88946" lon="1.0229">
        <ele>70.8</ele>
        <time>2020-06-18T10:55:50Z</time>
      </trkpt>
      <trkpt lat="49.88948" lon="1.02299">
        <ele>70.8</ele>
        <time>2020-06-18T10:55:51Z</time>
      </trkpt>
      <trkpt lat="49.8895" lon="1.02308">
        <ele>70.7</ele>
        <time>2020-06-18T10:55:52Z</time>
      </trkpt>
      <trkpt lat="49.88951" lon="1.02317">
        <ele>70.4</ele>
        <time>2020-06-18T10:55:53Z</time>
      </trkpt>
      <trkpt lat="49.88953" lon="1.02325">
        <ele>70.9</ele>
        <time>2020-06-18T10:55:54Z</time>
      </trkpt>
      <trkpt lat="49.88955" lon="1.02334">
        <ele>71.2</ele>
        <time>2020-06-18T10:55:55Z</time>
      </trkpt>
      <trkpt lat="49.88957" lon="1.02344">
        <ele>71.4</ele>
        <time>2020-06-18T10:55:56Z</time>
      </trkpt>
      <trkpt lat="49.88958" lon="1.02353">
        <ele>71.5</ele>
        <time>2020-06-18T10:55:57Z</time>
      </trkpt>
      <trkpt lat="49.88959" lon="1.02362">
        <ele>71.5</ele>
        <time>2020-06-18T10:55:58Z</time>
      </trkpt>
      <trkpt lat="49.8896" lon="1.02368">
        <ele>71.6</ele>
        <time>2020-06-18T10:55:59Z</time>
      </trkpt>
      <trkpt lat="49.88962" lon="1.02376">
        <ele>71.7</ele>
        <time>2020-06-18T10:56:00Z</time>
      </trkpt>
      <trkpt lat="49.88963" lon="1.02385">
        <ele>71.8</ele>
        <time>2020-06-18T10:56:01Z</time>
      </trkpt>
      <trkpt lat="49.88965" lon="1.02394">
        <ele>71.8</ele>
        <time>2020-06-18T10:56:02Z</time>
      </trkpt>
      <trkpt lat="49.88966" lon="1.02403">
        <ele>71.9</ele>
        <time>2020-06-18T10:56:03Z</time>
      </trkpt>
      <trkpt lat="49.88967" lon="1.02412">
        <ele>72</ele>
        <time>2020-06-18T10:56:04Z</time>
      </trkpt>
      <trkpt lat="49.88969" lon="1.02422">
        <ele>72.1</ele>
        <time>2020-06-18T10:56:05Z</time>
      </trkpt>
      <trkpt lat="49.88971" lon="1.02432">
        <ele>72.2</ele>
        <time>2020-06-18T10:56:06Z</time>
      </trkpt>
      <trkpt lat="49.88973" lon="1.02442">
        <ele>72.3</ele>
        <time>2020-06-18T10:56:07Z</time>
      </trkpt>
      <trkpt lat="49.88975" lon="1.02451">
        <ele>72.4</ele>
        <time>2020-06-18T10:56:08Z</time>
      </trkpt>
      <trkpt lat="49.88977" lon="1.02461">
        <ele>72.5</ele>
        <time>2020-06-18T10:56:09Z</time>
      </trkpt>
      <trkpt lat="49.88979" lon="1.02472">
        <ele>72.6</ele>
        <time>2020-06-18T10:56:10Z</time>
      </trkpt>
      <trkpt lat="49.8898" lon="1.02477">
        <ele>72.6</ele>
        <time>2020-06-18T10:56:11Z</time>
      </trkpt>
      <trkpt lat="49.88981" lon="1.02486">
        <ele>72.7</ele>
        <time>2020-06-18T10:56:12Z</time>
      </trkpt>
      <trkpt lat="49.88982" lon="1.02493">
        <ele>72.8</ele>
        <time>2020-06-18T10:56:13Z</time>
      </trkpt>
      <trkpt lat="49.88984" lon="1.02502">
        <ele>73</ele>
        <time>2020-06-18T10:56:14Z</time>
      </trkpt>
      <trkpt lat="49.88985" lon="1.02513">
        <ele>73.1</ele>
        <time>2020-06-18T10:56:15Z</time>
      </trkpt>
      <trkpt lat="49.88987" lon="1.02522">
        <ele>73.3</ele>
        <time>2020-06-18T10:56:16Z</time>
      </trkpt>
      <trkpt lat="49.88989" lon="1.02531">
        <ele>73.5</ele>
        <time>2020-06-18T10:56:17Z</time>
      </trkpt>
      <trkpt lat="49.8899" lon="1.0254">
        <ele>73.7</ele>
        <time>2020-06-18T10:56:18Z</time>
      </trkpt>
      <trkpt lat="49.88992" lon="1.02552">
        <ele>73.8</ele>
        <time>2020-06-18T10:56:19Z</time>
      </trkpt>
      <trkpt lat="49.88994" lon="1.02562">
        <ele>74</ele>
        <time>2020-06-18T10:56:20Z</time>
      </trkpt>
      <trkpt lat="49.88994" lon="1.02573">
        <ele>74.1</ele>
        <time>2020-06-18T10:56:21Z</time>
      </trkpt>
      <trkpt lat="49.88996" lon="1.02582">
        <ele>74.2</ele>
        <time>2020-06-18T10:56:22Z</time>
      </trkpt>
      <trkpt lat="49.88997" lon="1.02591">
        <ele>74.3</ele>
        <time>2020-06-18T10:56:23Z</time>
      </trkpt>
      <trkpt lat="49.88999" lon="1.026">
        <ele>74.4</ele>
        <time>2020-06-18T10:56:24Z</time>
      </trkpt>
      <trkpt lat="49.89001" lon="1.0261">
        <ele>74.6</ele>
        <time>2020-06-18T10:56:25Z</time>
      </trkpt>
      <trkpt lat="49.89003" lon="1.02619">
        <ele>74.8</ele>
        <time>2020-06-18T10:56:26Z</time>
      </trkpt>
      <trkpt lat="49.89005" lon="1.02627">
        <ele>75</ele>
        <time>2020-06-18T10:56:27Z</time>
      </trkpt>
      <trkpt lat="49.89006" lon="1.02635">
        <ele>75.2</ele>
        <time>2020-06-18T10:56:28Z</time>
      </trkpt>
      <trkpt lat="49.89007" lon="1.02643">
        <ele>75.4</ele>
        <time>2020-06-18T10:56:29Z</time>
      </trkpt>
      <trkpt lat="49.89008" lon="1.02652">
        <ele>75.6</ele>
        <time>2020-06-18T10:56:30Z</time>
      </trkpt>
      <trkpt lat="49.8901" lon="1.02662">
        <ele>75.9</ele>
        <time>2020-06-18T10:56:31Z</time>
      </trkpt>
      <trkpt lat="49.89011" lon="1.02671">
        <ele>76.2</ele>
        <time>2020-06-18T10:56:32Z</time>
      </trkpt>
      <trkpt lat="49.89012" lon="1.02679">
        <ele>76.5</ele>
        <time>2020-06-18T10:56:33Z</time>
      </trkpt>
      <trkpt lat="49.89014" lon="1.02686">
        <ele>76.7</ele>
        <time>2020-06-18T10:56:34Z</time>
      </trkpt>
      <trkpt lat="49.89016" lon="1.02695">
        <ele>76.9</ele>
        <time>2020-06-18T10:56:35Z</time>
      </trkpt>
      <trkpt lat="49.89017" lon="1.02703">
        <ele>77.1</ele>
        <time>2020-06-18T10:56:36Z</time>
      </trkpt>
      <trkpt lat="49.89018" lon="1.02711">
        <ele>77.3</ele>
        <time>2020-06-18T10:56:37Z</time>
      </trkpt>
      <trkpt lat="49.89019" lon="1.0272">
        <ele>77.4</ele>
        <time>2020-06-18T10:56:38Z</time>
      </trkpt>
      <trkpt lat="49.8902" lon="1.02727">
        <ele>77.6</ele>
        <time>2020-06-18T10:56:39Z</time>
      </trkpt>
      <trkpt lat="49.89022" lon="1.02736">
        <ele>77.7</ele>
        <time>2020-06-18T10:56:40Z</time>
      </trkpt>
      <trkpt lat="49.89024" lon="1.02744">
        <ele>77.9</ele>
        <time>2020-06-18T10:56:41Z</time>
      </trkpt>
      <trkpt lat="49.89026" lon="1.02755">
        <ele>78.2</ele>
        <time>2020-06-18T10:56:42Z</time>
      </trkpt>
      <trkpt lat="49.89028" lon="1.02764">
        <ele>78.3</ele>
        <time>2020-06-18T10:56:43Z</time>
      </trkpt>
      <trkpt lat="49.8903" lon="1.02772">
        <ele>78.4</ele>
        <time>2020-06-18T10:56:44Z</time>
      </trkpt>
      <trkpt lat="49.89032" lon="1.0278">
        <ele>78.5</ele>
        <time>2020-06-18T10:56:45Z</time>
      </trkpt>
      <trkpt lat="49.89033" lon="1.02788">
        <ele>78.6</ele>
        <time>2020-06-18T10:56:46Z</time>
      </trkpt>
      <trkpt lat="49.89034" lon="1.02795">
        <ele>78.7</ele>
        <time>2020-06-18T10:56:47Z</time>
      </trkpt>
      <trkpt lat="49.89035" lon="1.02803">
        <ele>78.8</ele>
        <time>2020-06-18T10:56:48Z</time>
      </trkpt>
      <trkpt lat="49.89036" lon="1.02812">
        <ele>78.9</ele>
        <time>2020-06-18T10:56:49Z</time>
      </trkpt>
      <trkpt lat="49.89037" lon="1.02822">
        <ele>78.9</ele>
        <time>2020-06-18T10:56:50Z</time>
      </trkpt>
      <trkpt lat="49.89038" lon="1.02831">
        <ele>79.1</ele>
        <time>2020-06-18T10:56:51Z</time>
      </trkpt>
      <trkpt lat="49.8904" lon="1.0284">
        <ele>79.2</ele>
        <time>2020-06-18T10:56:52Z</time>
      </trkpt>
      <trkpt lat="49.89041" lon="1.02848">
        <ele>79.3</ele>
        <time>2020-06-18T10:56:53Z</time>
      </trkpt>
      <trkpt lat="49.89043" lon="1.02857">
        <ele>79.3</ele>
        <time>2020-06-18T10:56:54Z</time>
      </trkpt>
      <trkpt lat="49.89044" lon="1.02865">
        <ele>79.4</ele>
        <time>2020-06-18T10:56:55Z</time>
      </trkpt>
      <trkpt lat="49.89045" lon="1.02874">
        <ele>79.5</ele>
        <time>2020-06-18T10:56:56Z</time>
      </trkpt>
      <trkpt lat="49.89047" lon="1.02882">
        <ele>79.6</ele>
        <time>2020-06-18T10:56:57Z</time>
      </trkpt>
      <trkpt lat="49.89049" lon="1.0289">
        <ele>79.6</ele>
        <time>2020-06-18T10:56:58Z</time>
      </trkpt>
      <trkpt lat="49.8905" lon="1.02898">
        <ele>79.5</ele>
        <time>2020-06-18T10:56:59Z</time>
      </trkpt>
      <trkpt lat="49.89052" lon="1.02908">
        <ele>78.8</ele>
        <time>2020-06-18T10:57:00Z</time>
      </trkpt>
      <trkpt lat="49.89053" lon="1.02916">
        <ele>77.5</ele>
        <time>2020-06-18T10:57:01Z</time>
      </trkpt>
      <trkpt lat="49.89055" lon="1.02925">
        <ele>75.5</ele>
        <time>2020-06-18T10:57:02Z</time>
      </trkpt>
      <trkpt lat="49.89056" lon="1.02934">
        <ele>75</ele>
        <time>2020-06-18T10:57:03Z</time>
      </trkpt>
      <trkpt lat="49.89058" lon="1.02944">
        <ele>75.2</ele>
        <time>2020-06-18T10:57:04Z</time>
      </trkpt>
      <trkpt lat="49.89059" lon="1.02951">
        <ele>75.3</ele>
        <time>2020-06-18T10:57:05Z</time>
      </trkpt>
      <trkpt lat="49.89061" lon="1.0296">
        <ele>75.3</ele>
        <time>2020-06-18T10:57:06Z</time>
      </trkpt>
      <trkpt lat="49.89062" lon="1.02969">
        <ele>75.3</ele>
        <time>2020-06-18T10:57:07Z</time>
      </trkpt>
      <trkpt lat="49.89064" lon="1.02978">
        <ele>75.3</ele>
        <time>2020-06-18T10:57:08Z</time>
      </trkpt>
      <trkpt lat="49.89066" lon="1.02988">
        <ele>75.3</ele>
        <time>2020-06-18T10:57:09Z</time>
      </trkpt>
      <trkpt lat="49.89068" lon="1.02996">
        <ele>75.3</ele>
        <time>2020-06-18T10:57:10Z</time>
      </trkpt>
      <trkpt lat="49.89069" lon="1.03004">
        <ele>75.3</ele>
        <time>2020-06-18T10:57:11Z</time>
      </trkpt>
      <trkpt lat="49.89071" lon="1.03013">
        <ele>75.3</ele>
        <time>2020-06-18T10:57:12Z</time>
      </trkpt>
      <trkpt lat="49.89072" lon="1.03021">
        <ele>75.4</ele>
        <time>2020-06-18T10:57:13Z</time>
      </trkpt>
      <trkpt lat="49.89074" lon="1.03029">
        <ele>75.5</ele>
        <time>2020-06-18T10:57:14Z</time>
      </trkpt>
      <trkpt lat="49.89076" lon="1.0304">
        <ele>75.6</ele>
        <time>2020-06-18T10:57:15Z</time>
      </trkpt>
      <trkpt lat="49.89077" lon="1.03048">
        <ele>75.6</ele>
        <time>2020-06-18T10:57:16Z</time>
      </trkpt>
      <trkpt lat="49.89079" lon="1.03054">
        <ele>75.6</ele>
        <time>2020-06-18T10:57:17Z</time>
      </trkpt>
      <trkpt lat="49.8908" lon="1.03063">
        <ele>75.6</ele>
        <time>2020-06-18T10:57:18Z</time>
      </trkpt>
      <trkpt lat="49.8908" lon="1.03071">
        <ele>75.6</ele>
        <time>2020-06-18T10:57:19Z</time>
      </trkpt>
      <trkpt lat="49.89081" lon="1.0308">
        <ele>75.7</ele>
        <time>2020-06-18T10:57:20Z</time>
      </trkpt>
      <trkpt lat="49.89084" lon="1.03089">
        <ele>75.8</ele>
        <time>2020-06-18T10:57:21Z</time>
      </trkpt>
      <trkpt lat="49.89085" lon="1.03098">
        <ele>75.8</ele>
        <time>2020-06-18T10:57:22Z</time>
      </trkpt>
      <trkpt lat="49.89085" lon="1.03107">
        <ele>75.9</ele>
        <time>2020-06-18T10:57:23Z</time>
      </trkpt>
      <trkpt lat="49.89087" lon="1.03117">
        <ele>76.1</ele>
        <time>2020-06-18T10:57:24Z</time>
      </trkpt>
      <trkpt lat="49.89089" lon="1.03125">
        <ele>76.2</ele>
        <time>2020-06-18T10:57:25Z</time>
      </trkpt>
      <trkpt lat="49.8909" lon="1.03133">
        <ele>76.4</ele>
        <time>2020-06-18T10:57:26Z</time>
      </trkpt>
      <trkpt lat="49.89091" lon="1.03139">
        <ele>76.5</ele>
        <time>2020-06-18T10:57:27Z</time>
      </trkpt>
      <trkpt lat="49.89091" lon="1.03147">
        <ele>76.6</ele>
        <time>2020-06-18T10:57:28Z</time>
      </trkpt>
      <trkpt lat="49.89089" lon="1.03157">
        <ele>76.6</ele>
        <time>2020-06-18T10:57:29Z</time>
      </trkpt>
      <trkpt lat="49.89088" lon="1.03166">
        <ele>76.9</ele>
        <time>2020-06-18T10:57:30Z</time>
      </trkpt>
      <trkpt lat="49.89088" lon="1.03174">
        <ele>76.9</ele>
        <time>2020-06-18T10:57:31Z</time>
      </trkpt>
      <trkpt lat="49.89089" lon="1.03181">
        <ele>76.9</ele>
        <time>2020-06-18T10:57:32Z</time>
      </trkpt>
      <trkpt lat="49.89092" lon="1.03188">
        <ele>76.6</ele>
        <time>2020-06-18T10:57:33Z</time>
      </trkpt>
      <trkpt lat="49.89096" lon="1.03193">
        <ele>76.6</ele>
        <time>2020-06-18T10:57:34Z</time>
      </trkpt>
      <trkpt lat="49.891" lon="1.03201">
        <ele>76.5</ele>
        <time>2020-06-18T10:57:35Z</time>
      </trkpt>
      <trkpt lat="49.89102" lon="1.0321">
        <ele>76.5</ele>
        <time>2020-06-18T10:57:36Z</time>
      </trkpt>
      <trkpt lat="49.89104" lon="1.03218">
        <ele>76.5</ele>
        <time>2020-06-18T10:57:37Z</time>
      </trkpt>
      <trkpt lat="49.89105" lon="1.03228">
        <ele>76.6</ele>
        <time>2020-06-18T10:57:38Z</time>
      </trkpt>
      <trkpt lat="49.89106" lon="1.03236">
        <ele>76.7</ele>
        <time>2020-06-18T10:57:39Z</time>
      </trkpt>
      <trkpt lat="49.89109" lon="1.03244">
        <ele>76.7</ele>
        <time>2020-06-18T10:57:40Z</time>
      </trkpt>
      <trkpt lat="49.89111" lon="1.03253">
        <ele>76.8</ele>
        <time>2020-06-18T10:57:41Z</time>
      </trkpt>
      <trkpt lat="49.89112" lon="1.03262">
        <ele>76.8</ele>
        <time>2020-06-18T10:57:42Z</time>
      </trkpt>
      <trkpt lat="49.89114" lon="1.03271">
        <ele>76.9</ele>
        <time>2020-06-18T10:57:43Z</time>
      </trkpt>
      <trkpt lat="49.89115" lon="1.0328">
        <ele>77</ele>
        <time>2020-06-18T10:57:44Z</time>
      </trkpt>
      <trkpt lat="49.89117" lon="1.03288">
        <ele>77</ele>
        <time>2020-06-18T10:57:45Z</time>
      </trkpt>
      <trkpt lat="49.89118" lon="1.03297">
        <ele>77.1</ele>
        <time>2020-06-18T10:57:46Z</time>
      </trkpt>
      <trkpt lat="49.8912" lon="1.03303">
        <ele>77.2</ele>
        <time>2020-06-18T10:57:47Z</time>
      </trkpt>
      <trkpt lat="49.89122" lon="1.03313">
        <ele>77.3</ele>
        <time>2020-06-18T10:57:48Z</time>
      </trkpt>
      <trkpt lat="49.89123" lon="1.03324">
        <ele>77.4</ele>
        <time>2020-06-18T10:57:49Z</time>
      </trkpt>
      <trkpt lat="49.89124" lon="1.03331">
        <ele>77.5</ele>
        <time>2020-06-18T10:57:50Z</time>
      </trkpt>
      <trkpt lat="49.89126" lon="1.0334">
        <ele>77.7</ele>
        <time>2020-06-18T10:57:51Z</time>
      </trkpt>
      <trkpt lat="49.89127" lon="1.03349">
        <ele>77.8</ele>
        <time>2020-06-18T10:57:52Z</time>
      </trkpt>
      <trkpt lat="49.89128" lon="1.03358">
        <ele>77.9</ele>
        <time>2020-06-18T10:57:53Z</time>
      </trkpt>
      <trkpt lat="49.8913" lon="1.03369">
        <ele>78.2</ele>
        <time>2020-06-18T10:57:54Z</time>
      </trkpt>
      <trkpt lat="49.89131" lon="1.03377">
        <ele>78.1</ele>
        <time>2020-06-18T10:57:55Z</time>
      </trkpt>
      <trkpt lat="49.89133" lon="1.03386">
        <ele>78.1</ele>
        <time>2020-06-18T10:57:56Z</time>
      </trkpt>
      <trkpt lat="49.89134" lon="1.03395">
        <ele>78.1</ele>
        <time>2020-06-18T10:57:57Z</time>
      </trkpt>
      <trkpt lat="49.89136" lon="1.034">
        <ele>78.1</ele>
        <time>2020-06-18T10:57:58Z</time>
      </trkpt>
      <trkpt lat="49.89136" lon="1.03409">
        <ele>78.1</ele>
        <time>2020-06-18T10:57:59Z</time>
      </trkpt>
      <trkpt lat="49.89137" lon="1.03418">
        <ele>78.2</ele>
        <time>2020-06-18T10:58:00Z</time>
      </trkpt>
      <trkpt lat="49.89139" lon="1.03426">
        <ele>78.2</ele>
        <time>2020-06-18T10:58:01Z</time>
      </trkpt>
      <trkpt lat="49.8914" lon="1.03434">
        <ele>78.4</ele>
        <time>2020-06-18T10:58:02Z</time>
      </trkpt>
      <trkpt lat="49.89142" lon="1.03441">
        <ele>78.5</ele>
        <time>2020-06-18T10:58:03Z</time>
      </trkpt>
      <trkpt lat="49.89144" lon="1.03449">
        <ele>78.6</ele>
        <time>2020-06-18T10:58:04Z</time>
      </trkpt>
      <trkpt lat="49.89146" lon="1.03457">
        <ele>78.7</ele>
        <time>2020-06-18T10:58:05Z</time>
      </trkpt>
      <trkpt lat="49.89148" lon="1.03464">
        <ele>78.8</ele>
        <time>2020-06-18T10:58:06Z</time>
      </trkpt>
      <trkpt lat="49.8915" lon="1.03472">
        <ele>78.9</ele>
        <time>2020-06-18T10:58:07Z</time>
      </trkpt>
      <trkpt lat="49.89151" lon="1.03482">
        <ele>79.1</ele>
        <time>2020-06-18T10:58:08Z</time>
      </trkpt>
      <trkpt lat="49.89153" lon="1.03491">
        <ele>79.2</ele>
        <time>2020-06-18T10:58:09Z</time>
      </trkpt>
      <trkpt lat="49.89156" lon="1.03498">
        <ele>79.3</ele>
        <time>2020-06-18T10:58:10Z</time>
      </trkpt>
      <trkpt lat="49.89157" lon="1.03506">
        <ele>79.4</ele>
        <time>2020-06-18T10:58:11Z</time>
      </trkpt>
      <trkpt lat="49.89158" lon="1.03514">
        <ele>79.5</ele>
        <time>2020-06-18T10:58:12Z</time>
      </trkpt>
      <trkpt lat="49.8916" lon="1.03522">
        <ele>79.7</ele>
        <time>2020-06-18T10:58:13Z</time>
      </trkpt>
      <trkpt lat="49.89161" lon="1.03531">
        <ele>79.8</ele>
        <time>2020-06-18T10:58:14Z</time>
      </trkpt>
      <trkpt lat="49.89161" lon="1.03537">
        <ele>79.9</ele>
        <time>2020-06-18T10:58:15Z</time>
      </trkpt>
      <trkpt lat="49.89163" lon="1.03545">
        <ele>80</ele>
        <time>2020-06-18T10:58:16Z</time>
      </trkpt>
      <trkpt lat="49.89165" lon="1.03555">
        <ele>80.1</ele>
        <time>2020-06-18T10:58:17Z</time>
      </trkpt>
      <trkpt lat="49.89167" lon="1.03563">
        <ele>80.3</ele>
        <time>2020-06-18T10:58:18Z</time>
      </trkpt>
      <trkpt lat="49.89168" lon="1.0357">
        <ele>80.4</ele>
        <time>2020-06-18T10:58:19Z</time>
      </trkpt>
      <trkpt lat="49.89169" lon="1.03578">
        <ele>80.5</ele>
        <time>2020-06-18T10:58:20Z</time>
      </trkpt>
      <trkpt lat="49.89171" lon="1.03587">
        <ele>80.6</ele>
        <time>2020-06-18T10:58:21Z</time>
      </trkpt>
      <trkpt lat="49.89172" lon="1.03596">
        <ele>80.8</ele>
        <time>2020-06-18T10:58:22Z</time>
      </trkpt>
      <trkpt lat="49.89173" lon="1.03604">
        <ele>80.9</ele>
        <time>2020-06-18T10:58:23Z</time>
      </trkpt>
      <trkpt lat="49.89174" lon="1.03611">
        <ele>81.1</ele>
        <time>2020-06-18T10:58:24Z</time>
      </trkpt>
      <trkpt lat="49.89175" lon="1.0362">
        <ele>81.2</ele>
        <time>2020-06-18T10:58:25Z</time>
      </trkpt>
      <trkpt lat="49.89177" lon="1.03626">
        <ele>81.3</ele>
        <time>2020-06-18T10:58:26Z</time>
      </trkpt>
      <trkpt lat="49.89179" lon="1.03635">
        <ele>81.5</ele>
        <time>2020-06-18T10:58:27Z</time>
      </trkpt>
      <trkpt lat="49.8918" lon="1.03644">
        <ele>81.7</ele>
        <time>2020-06-18T10:58:28Z</time>
      </trkpt>
      <trkpt lat="49.89182" lon="1.03652">
        <ele>81.8</ele>
        <time>2020-06-18T10:58:29Z</time>
      </trkpt>
      <trkpt lat="49.89183" lon="1.03661">
        <ele>81.9</ele>
        <time>2020-06-18T10:58:30Z</time>
      </trkpt>
      <trkpt lat="49.89184" lon="1.03668">
        <ele>82</ele>
        <time>2020-06-18T10:58:31Z</time>
      </trkpt>
      <trkpt lat="49.89185" lon="1.03677">
        <ele>82.2</ele>
        <time>2020-06-18T10:58:32Z</time>
      </trkpt>
      <trkpt lat="49.89187" lon="1.03687">
        <ele>82.4</ele>
        <time>2020-06-18T10:58:33Z</time>
      </trkpt>
      <trkpt lat="49.89188" lon="1.03696">
        <ele>82.5</ele>
        <time>2020-06-18T10:58:34Z</time>
      </trkpt>
      <trkpt lat="49.8919" lon="1.03704">
        <ele>82.7</ele>
        <time>2020-06-18T10:58:35Z</time>
      </trkpt>
      <trkpt lat="49.89191" lon="1.03713">
        <ele>82.9</ele>
        <time>2020-06-18T10:58:36Z</time>
      </trkpt>
      <trkpt lat="49.89192" lon="1.03721">
        <ele>83</ele>
        <time>2020-06-18T10:58:37Z</time>
      </trkpt>
      <trkpt lat="49.89194" lon="1.03729">
        <ele>83.1</ele>
        <time>2020-06-18T10:58:38Z</time>
      </trkpt>
      <trkpt lat="49.89195" lon="1.03738">
        <ele>83.3</ele>
        <time>2020-06-18T10:58:39Z</time>
      </trkpt>
      <trkpt lat="49.89196" lon="1.03746">
        <ele>83.4</ele>
        <time>2020-06-18T10:58:40Z</time>
      </trkpt>
      <trkpt lat="49.89198" lon="1.03755">
        <ele>83.5</ele>
        <time>2020-06-18T10:58:41Z</time>
      </trkpt>
      <trkpt lat="49.89199" lon="1.03763">
        <ele>83.6</ele>
        <time>2020-06-18T10:58:42Z</time>
      </trkpt>
      <trkpt lat="49.892" lon="1.03771">
        <ele>83.7</ele>
        <time>2020-06-18T10:58:43Z</time>
      </trkpt>
      <trkpt lat="49.89201" lon="1.0378">
        <ele>83.8</ele>
        <time>2020-06-18T10:58:44Z</time>
      </trkpt>
      <trkpt lat="49.89203" lon="1.03787">
        <ele>84</ele>
        <time>2020-06-18T10:58:45Z</time>
      </trkpt>
      <trkpt lat="49.89204" lon="1.03795">
        <ele>84.1</ele>
        <time>2020-06-18T10:58:46Z</time>
      </trkpt>
      <trkpt lat="49.89206" lon="1.03804">
        <ele>84.3</ele>
        <time>2020-06-18T10:58:47Z</time>
      </trkpt>
      <trkpt lat="49.89208" lon="1.03813">
        <ele>84.4</ele>
        <time>2020-06-18T10:58:48Z</time>
      </trkpt>
      <trkpt lat="49.8921" lon="1.03821">
        <ele>84.6</ele>
        <time>2020-06-18T10:58:49Z</time>
      </trkpt>
      <trkpt lat="49.89211" lon="1.03829">
        <ele>84.8</ele>
        <time>2020-06-18T10:58:50Z</time>
      </trkpt>
      <trkpt lat="49.89212" lon="1.03838">
        <ele>84.9</ele>
        <time>2020-06-18T10:58:51Z</time>
      </trkpt>
      <trkpt lat="49.89214" lon="1.03846">
        <ele>85.1</ele>
        <time>2020-06-18T10:58:52Z</time>
      </trkpt>
      <trkpt lat="49.89215" lon="1.03853">
        <ele>85.2</ele>
        <time>2020-06-18T10:58:53Z</time>
      </trkpt>
      <trkpt lat="49.89216" lon="1.03862">
        <ele>85.4</ele>
        <time>2020-06-18T10:58:54Z</time>
      </trkpt>
      <trkpt lat="49.89217" lon="1.03871">
        <ele>85.5</ele>
        <time>2020-06-18T10:58:55Z</time>
      </trkpt>
      <trkpt lat="49.89218" lon="1.03878">
        <ele>85.7</ele>
        <time>2020-06-18T10:58:56Z</time>
      </trkpt>
      <trkpt lat="49.89221" lon="1.03886">
        <ele>85.8</ele>
        <time>2020-06-18T10:58:57Z</time>
      </trkpt>
      <trkpt lat="49.89222" lon="1.03894">
        <ele>85.9</ele>
        <time>2020-06-18T10:58:58Z</time>
      </trkpt>
      <trkpt lat="49.89223" lon="1.03903">
        <ele>86</ele>
        <time>2020-06-18T10:58:59Z</time>
      </trkpt>
      <trkpt lat="49.89225" lon="1.03911">
        <ele>86.1</ele>
        <time>2020-06-18T10:59:00Z</time>
      </trkpt>
      <trkpt lat="49.89226" lon="1.03918">
        <ele>86.2</ele>
        <time>2020-06-18T10:59:01Z</time>
      </trkpt>
      <trkpt lat="49.89228" lon="1.03926">
        <ele>86.3</ele>
        <time>2020-06-18T10:59:02Z</time>
      </trkpt>
      <trkpt lat="49.89229" lon="1.03935">
        <ele>86.4</ele>
        <time>2020-06-18T10:59:03Z</time>
      </trkpt>
      <trkpt lat="49.8923" lon="1.03943">
        <ele>86.6</ele>
        <time>2020-06-18T10:59:04Z</time>
      </trkpt>
      <trkpt lat="49.89231" lon="1.0395">
        <ele>86.7</ele>
        <time>2020-06-18T10:59:05Z</time>
      </trkpt>
      <trkpt lat="49.89233" lon="1.03961">
        <ele>86.8</ele>
        <time>2020-06-18T10:59:06Z</time>
      </trkpt>
      <trkpt lat="49.89235" lon="1.03969">
        <ele>87</ele>
        <time>2020-06-18T10:59:07Z</time>
      </trkpt>
      <trkpt lat="49.89236" lon="1.03977">
        <ele>87.1</ele>
        <time>2020-06-18T10:59:08Z</time>
      </trkpt>
      <trkpt lat="49.89238" lon="1.03984">
        <ele>87.2</ele>
        <time>2020-06-18T10:59:09Z</time>
      </trkpt>
      <trkpt lat="49.89239" lon="1.03992">
        <ele>87.4</ele>
        <time>2020-06-18T10:59:10Z</time>
      </trkpt>
      <trkpt lat="49.8924" lon="1.04001">
        <ele>87.5</ele>
        <time>2020-06-18T10:59:11Z</time>
      </trkpt>
      <trkpt lat="49.89242" lon="1.0401">
        <ele>87.6</ele>
        <time>2020-06-18T10:59:12Z</time>
      </trkpt>
      <trkpt lat="49.89243" lon="1.04018">
        <ele>87.7</ele>
        <time>2020-06-18T10:59:13Z</time>
      </trkpt>
      <trkpt lat="49.89244" lon="1.04026">
        <ele>87.7</ele>
        <time>2020-06-18T10:59:14Z</time>
      </trkpt>
      <trkpt lat="49.89246" lon="1.04033">
        <ele>87.8</ele>
        <time>2020-06-18T10:59:15Z</time>
      </trkpt>
      <trkpt lat="49.89247" lon="1.0404">
        <ele>87.8</ele>
        <time>2020-06-18T10:59:16Z</time>
      </trkpt>
      <trkpt lat="49.89248" lon="1.04048">
        <ele>87.9</ele>
        <time>2020-06-18T10:59:17Z</time>
      </trkpt>
      <trkpt lat="49.89249" lon="1.04055">
        <ele>87.9</ele>
        <time>2020-06-18T10:59:18Z</time>
      </trkpt>
      <trkpt lat="49.89251" lon="1.04063">
        <ele>87.9</ele>
        <time>2020-06-18T10:59:19Z</time>
      </trkpt>
      <trkpt lat="49.89252" lon="1.04071">
        <ele>87.7</ele>
        <time>2020-06-18T10:59:20Z</time>
      </trkpt>
      <trkpt lat="49.89253" lon="1.04079">
        <ele>87.6</ele>
        <time>2020-06-18T10:59:21Z</time>
      </trkpt>
      <trkpt lat="49.89254" lon="1.04086">
        <ele>87.4</ele>
        <time>2020-06-18T10:59:22Z</time>
      </trkpt>
      <trkpt lat="49.89256" lon="1.04093">
        <ele>87.3</ele>
        <time>2020-06-18T10:59:23Z</time>
      </trkpt>
      <trkpt lat="49.89258" lon="1.04101">
        <ele>87.1</ele>
        <time>2020-06-18T10:59:24Z</time>
      </trkpt>
      <trkpt lat="49.8926" lon="1.0411">
        <ele>87.1</ele>
        <time>2020-06-18T10:59:25Z</time>
      </trkpt>
      <trkpt lat="49.89262" lon="1.04118">
        <ele>87.1</ele>
        <time>2020-06-18T10:59:26Z</time>
      </trkpt>
      <trkpt lat="49.89264" lon="1.04127">
        <ele>87</ele>
        <time>2020-06-18T10:59:27Z</time>
      </trkpt>
      <trkpt lat="49.89266" lon="1.04135">
        <ele>87</ele>
        <time>2020-06-18T10:59:28Z</time>
      </trkpt>
      <trkpt lat="49.89267" lon="1.04145">
        <ele>87</ele>
        <time>2020-06-18T10:59:29Z</time>
      </trkpt>
      <trkpt lat="49.89268" lon="1.04153">
        <ele>87</ele>
        <time>2020-06-18T10:59:30Z</time>
      </trkpt>
      <trkpt lat="49.89268" lon="1.04161">
        <ele>87</ele>
        <time>2020-06-18T10:59:31Z</time>
      </trkpt>
      <trkpt lat="49.89269" lon="1.04169">
        <ele>86.9</ele>
        <time>2020-06-18T10:59:32Z</time>
      </trkpt>
      <trkpt lat="49.8927" lon="1.04179">
        <ele>86.7</ele>
        <time>2020-06-18T10:59:33Z</time>
      </trkpt>
      <trkpt lat="49.89271" lon="1.04188">
        <ele>86.5</ele>
        <time>2020-06-18T10:59:34Z</time>
      </trkpt>
      <trkpt lat="49.89273" lon="1.04197">
        <ele>86.3</ele>
        <time>2020-06-18T10:59:35Z</time>
      </trkpt>
      <trkpt lat="49.89274" lon="1.04207">
        <ele>86.1</ele>
        <time>2020-06-18T10:59:36Z</time>
      </trkpt>
      <trkpt lat="49.89275" lon="1.04218">
        <ele>85.9</ele>
        <time>2020-06-18T10:59:37Z</time>
      </trkpt>
      <trkpt lat="49.89276" lon="1.04229">
        <ele>85.7</ele>
        <time>2020-06-18T10:59:38Z</time>
      </trkpt>
      <trkpt lat="49.89277" lon="1.0424">
        <ele>85.6</ele>
        <time>2020-06-18T10:59:39Z</time>
      </trkpt>
      <trkpt lat="49.89278" lon="1.04251">
        <ele>85.4</ele>
        <time>2020-06-18T10:59:40Z</time>
      </trkpt>
      <trkpt lat="49.89279" lon="1.04262">
        <ele>85.3</ele>
        <time>2020-06-18T10:59:41Z</time>
      </trkpt>
      <trkpt lat="49.89281" lon="1.04275">
        <ele>85.1</ele>
        <time>2020-06-18T10:59:42Z</time>
      </trkpt>
      <trkpt lat="49.89282" lon="1.04288">
        <ele>84.9</ele>
        <time>2020-06-18T10:59:43Z</time>
      </trkpt>
      <trkpt lat="49.89283" lon="1.043">
        <ele>84.7</ele>
        <time>2020-06-18T10:59:44Z</time>
      </trkpt>
      <trkpt lat="49.89285" lon="1.04313">
        <ele>84.4</ele>
        <time>2020-06-18T10:59:45Z</time>
      </trkpt>
      <trkpt lat="49.89286" lon="1.04326">
        <ele>84.1</ele>
        <time>2020-06-18T10:59:46Z</time>
      </trkpt>
      <trkpt lat="49.89287" lon="1.04338">
        <ele>83.9</ele>
        <time>2020-06-18T10:59:47Z</time>
      </trkpt>
      <trkpt lat="49.89288" lon="1.04351">
        <ele>83.7</ele>
        <time>2020-06-18T10:59:48Z</time>
      </trkpt>
      <trkpt lat="49.89289" lon="1.04363">
        <ele>83.6</ele>
        <time>2020-06-18T10:59:49Z</time>
      </trkpt>
      <trkpt lat="49.89291" lon="1.04377">
        <ele>83.3</ele>
        <time>2020-06-18T10:59:50Z</time>
      </trkpt>
      <trkpt lat="49.89292" lon="1.0439">
        <ele>83.1</ele>
        <time>2020-06-18T10:59:51Z</time>
      </trkpt>
      <trkpt lat="49.89293" lon="1.04402">
        <ele>82.8</ele>
        <time>2020-06-18T10:59:52Z</time>
      </trkpt>
      <trkpt lat="49.89294" lon="1.04416">
        <ele>82.5</ele>
        <time>2020-06-18T10:59:53Z</time>
      </trkpt>
      <trkpt lat="49.89295" lon="1.04429">
        <ele>82.2</ele>
        <time>2020-06-18T10:59:54Z</time>
      </trkpt>
      <trkpt lat="49.89297" lon="1.04443">
        <ele>82</ele>
        <time>2020-06-18T10:59:55Z</time>
      </trkpt>
      <trkpt lat="49.89298" lon="1.04456">
        <ele>81.8</ele>
        <time>2020-06-18T10:59:56Z</time>
      </trkpt>
      <trkpt lat="49.89299" lon="1.0447">
        <ele>81.5</ele>
        <time>2020-06-18T10:59:57Z</time>
      </trkpt>
      <trkpt lat="49.893" lon="1.04483">
        <ele>81.2</ele>
        <time>2020-06-18T10:59:58Z</time>
      </trkpt>
      <trkpt lat="49.89302" lon="1.04497">
        <ele>80.9</ele>
        <time>2020-06-18T10:59:59Z</time>
      </trkpt>
      <trkpt lat="49.89303" lon="1.0451">
        <ele>80.5</ele>
        <time>2020-06-18T11:00:00Z</time>
      </trkpt>
      <trkpt lat="49.89305" lon="1.04523">
        <ele>80.2</ele>
        <time>2020-06-18T11:00:01Z</time>
      </trkpt>
      <trkpt lat="49.89306" lon="1.04537">
        <ele>79.9</ele>
        <time>2020-06-18T11:00:02Z</time>
      </trkpt>
      <trkpt lat="49.89307" lon="1.0455">
        <ele>79.7</ele>
        <time>2020-06-18T11:00:03Z</time>
      </trkpt>
      <trkpt lat="49.89309" lon="1.04563">
        <ele>79.4</ele>
        <time>2020-06-18T11:00:04Z</time>
      </trkpt>
      <trkpt lat="49.89309" lon="1.04576">
        <ele>79.2</ele>
        <time>2020-06-18T11:00:05Z</time>
      </trkpt>
      <trkpt lat="49.8931" lon="1.0459">
        <ele>78.9</ele>
        <time>2020-06-18T11:00:06Z</time>
      </trkpt>
      <trkpt lat="49.89312" lon="1.04603">
        <ele>78.5</ele>
        <time>2020-06-18T11:00:07Z</time>
      </trkpt>
      <trkpt lat="49.89313" lon="1.04617">
        <ele>78.2</ele>
        <time>2020-06-18T11:00:08Z</time>
      </trkpt>
      <trkpt lat="49.89315" lon="1.0463">
        <ele>77.9</ele>
        <time>2020-06-18T11:00:09Z</time>
      </trkpt>
      <trkpt lat="49.89316" lon="1.04643">
        <ele>77.6</ele>
        <time>2020-06-18T11:00:10Z</time>
      </trkpt>
      <trkpt lat="49.89318" lon="1.04657">
        <ele>77.2</ele>
        <time>2020-06-18T11:00:11Z</time>
      </trkpt>
      <trkpt lat="49.89319" lon="1.04671">
        <ele>76.7</ele>
        <time>2020-06-18T11:00:12Z</time>
      </trkpt>
      <trkpt lat="49.89321" lon="1.04685">
        <ele>76.3</ele>
        <time>2020-06-18T11:00:13Z</time>
      </trkpt>
      <trkpt lat="49.89322" lon="1.04699">
        <ele>75.8</ele>
        <time>2020-06-18T11:00:14Z</time>
      </trkpt>
      <trkpt lat="49.89323" lon="1.04713">
        <ele>75.4</ele>
        <time>2020-06-18T11:00:15Z</time>
      </trkpt>
      <trkpt lat="49.89325" lon="1.04728">
        <ele>75.1</ele>
        <time>2020-06-18T11:00:16Z</time>
      </trkpt>
      <trkpt lat="49.89326" lon="1.04742">
        <ele>74.8</ele>
        <time>2020-06-18T11:00:17Z</time>
      </trkpt>
      <trkpt lat="49.89328" lon="1.04757">
        <ele>74.4</ele>
        <time>2020-06-18T11:00:18Z</time>
      </trkpt>
      <trkpt lat="49.89329" lon="1.04772">
        <ele>73.9</ele>
        <time>2020-06-18T11:00:19Z</time>
      </trkpt>
      <trkpt lat="49.8933" lon="1.04787">
        <ele>73.4</ele>
        <time>2020-06-18T11:00:20Z</time>
      </trkpt>
      <trkpt lat="49.89331" lon="1.04802">
        <ele>72.9</ele>
        <time>2020-06-18T11:00:21Z</time>
      </trkpt>
      <trkpt lat="49.89333" lon="1.04817">
        <ele>72.4</ele>
        <time>2020-06-18T11:00:22Z</time>
      </trkpt>
      <trkpt lat="49.89335" lon="1.04832">
        <ele>71.9</ele>
        <time>2020-06-18T11:00:23Z</time>
      </trkpt>
      <trkpt lat="49.89336" lon="1.04847">
        <ele>71.3</ele>
        <time>2020-06-18T11:00:24Z</time>
      </trkpt>
      <trkpt lat="49.89338" lon="1.04863">
        <ele>70.8</ele>
        <time>2020-06-18T11:00:25Z</time>
      </trkpt>
      <trkpt lat="49.89339" lon="1.04879">
        <ele>70.3</ele>
        <time>2020-06-18T11:00:26Z</time>
      </trkpt>
      <trkpt lat="49.89341" lon="1.04894">
        <ele>69.8</ele>
        <time>2020-06-18T11:00:27Z</time>
      </trkpt>
      <trkpt lat="49.89342" lon="1.0491">
        <ele>69.2</ele>
        <time>2020-06-18T11:00:28Z</time>
      </trkpt>
      <trkpt lat="49.89343" lon="1.04926">
        <ele>68.6</ele>
        <time>2020-06-18T11:00:29Z</time>
      </trkpt>
      <trkpt lat="49.89345" lon="1.04942">
        <ele>68</ele>
        <time>2020-06-18T11:00:30Z</time>
      </trkpt>
      <trkpt lat="49.89346" lon="1.04959">
        <ele>67.3</ele>
        <time>2020-06-18T11:00:31Z</time>
      </trkpt>
      <trkpt lat="49.89347" lon="1.04975">
        <ele>66.6</ele>
        <time>2020-06-18T11:00:32Z</time>
      </trkpt>
      <trkpt lat="49.89349" lon="1.04992">
        <ele>66</ele>
        <time>2020-06-18T11:00:33Z</time>
      </trkpt>
      <trkpt lat="49.89351" lon="1.05009">
        <ele>65.3</ele>
        <time>2020-06-18T11:00:34Z</time>
      </trkpt>
      <trkpt lat="49.89353" lon="1.05025">
        <ele>64.6</ele>
        <time>2020-06-18T11:00:35Z</time>
      </trkpt>
      <trkpt lat="49.89356" lon="1.05042">
        <ele>63.9</ele>
        <time>2020-06-18T11:00:36Z</time>
      </trkpt>
      <trkpt lat="49.8936" lon="1.05059">
        <ele>63.3</ele>
        <time>2020-06-18T11:00:37Z</time>
      </trkpt>
      <trkpt lat="49.89364" lon="1.05075">
        <ele>62.6</ele>
        <time>2020-06-18T11:00:38Z</time>
      </trkpt>
      <trkpt lat="49.89369" lon="1.05091">
        <ele>61.8</ele>
        <time>2020-06-18T11:00:39Z</time>
      </trkpt>
      <trkpt lat="49.89374" lon="1.05107">
        <ele>61.1</ele>
        <time>2020-06-18T11:00:40Z</time>
      </trkpt>
      <trkpt lat="49.89381" lon="1.05121">
        <ele>60.3</ele>
        <time>2020-06-18T11:00:41Z</time>
      </trkpt>
      <trkpt lat="49.89389" lon="1.05134">
        <ele>59.5</ele>
        <time>2020-06-18T11:00:42Z</time>
      </trkpt>
      <trkpt lat="49.89397" lon="1.05147">
        <ele>58.7</ele>
        <time>2020-06-18T11:00:43Z</time>
      </trkpt>
      <trkpt lat="49.89405" lon="1.0516">
        <ele>57.9</ele>
        <time>2020-06-18T11:00:44Z</time>
      </trkpt>
      <trkpt lat="49.89413" lon="1.05172">
        <ele>57.1</ele>
        <time>2020-06-18T11:00:45Z</time>
      </trkpt>
      <trkpt lat="49.89422" lon="1.05184">
        <ele>56.2</ele>
        <time>2020-06-18T11:00:46Z</time>
      </trkpt>
      <trkpt lat="49.89432" lon="1.05194">
        <ele>55.4</ele>
        <time>2020-06-18T11:00:47Z</time>
      </trkpt>
      <trkpt lat="49.89442" lon="1.05203">
        <ele>54.6</ele>
        <time>2020-06-18T11:00:48Z</time>
      </trkpt>
      <trkpt lat="49.89454" lon="1.0521">
        <ele>53.8</ele>
        <time>2020-06-18T11:00:49Z</time>
      </trkpt>
      <trkpt lat="49.89465" lon="1.05217">
        <ele>53.2</ele>
        <time>2020-06-18T11:00:50Z</time>
      </trkpt>
      <trkpt lat="49.89476" lon="1.05223">
        <ele>52.5</ele>
        <time>2020-06-18T11:00:51Z</time>
      </trkpt>
      <trkpt lat="49.89487" lon="1.05227">
        <ele>51.8</ele>
        <time>2020-06-18T11:00:52Z</time>
      </trkpt>
      <trkpt lat="49.89498" lon="1.05231">
        <ele>51.2</ele>
        <time>2020-06-18T11:00:53Z</time>
      </trkpt>
      <trkpt lat="49.89509" lon="1.05236">
        <ele>50.6</ele>
        <time>2020-06-18T11:00:54Z</time>
      </trkpt>
      <trkpt lat="49.89521" lon="1.05238">
        <ele>50</ele>
        <time>2020-06-18T11:00:55Z</time>
      </trkpt>
      <trkpt lat="49.89532" lon="1.05239">
        <ele>49.4</ele>
        <time>2020-06-18T11:00:56Z</time>
      </trkpt>
      <trkpt lat="49.89543" lon="1.05239">
        <ele>48.8</ele>
        <time>2020-06-18T11:00:57Z</time>
      </trkpt>
      <trkpt lat="49.89554" lon="1.05236">
        <ele>48</ele>
        <time>2020-06-18T11:00:58Z</time>
      </trkpt>
      <trkpt lat="49.89565" lon="1.05232">
        <ele>47.3</ele>
        <time>2020-06-18T11:00:59Z</time>
      </trkpt>
      <trkpt lat="49.89576" lon="1.05228">
        <ele>46.6</ele>
        <time>2020-06-18T11:01:00Z</time>
      </trkpt>
      <trkpt lat="49.89586" lon="1.05223">
        <ele>45.9</ele>
        <time>2020-06-18T11:01:01Z</time>
      </trkpt>
      <trkpt lat="49.89597" lon="1.05219">
        <ele>45.2</ele>
        <time>2020-06-18T11:01:02Z</time>
      </trkpt>
      <trkpt lat="49.89608" lon="1.05215">
        <ele>44.5</ele>
        <time>2020-06-18T11:01:03Z</time>
      </trkpt>
      <trkpt lat="49.89618" lon="1.0521">
        <ele>43.8</ele>
        <time>2020-06-18T11:01:04Z</time>
      </trkpt>
      <trkpt lat="49.89629" lon="1.05205">
        <ele>43.2</ele>
        <time>2020-06-18T11:01:05Z</time>
      </trkpt>
      <trkpt lat="49.89639" lon="1.05199">
        <ele>42.5</ele>
        <time>2020-06-18T11:01:06Z</time>
      </trkpt>
      <trkpt lat="49.89649" lon="1.05194">
        <ele>41.9</ele>
        <time>2020-06-18T11:01:07Z</time>
      </trkpt>
      <trkpt lat="49.8966" lon="1.0519">
        <ele>41.3</ele>
        <time>2020-06-18T11:01:08Z</time>
      </trkpt>
      <trkpt lat="49.8967" lon="1.05184">
        <ele>40.6</ele>
        <time>2020-06-18T11:01:09Z</time>
      </trkpt>
      <trkpt lat="49.8968" lon="1.0518">
        <ele>40</ele>
        <time>2020-06-18T11:01:10Z</time>
      </trkpt>
      <trkpt lat="49.8969" lon="1.05175">
        <ele>39.4</ele>
        <time>2020-06-18T11:01:11Z</time>
      </trkpt>
      <trkpt lat="49.897" lon="1.0517">
        <ele>38.7</ele>
        <time>2020-06-18T11:01:12Z</time>
      </trkpt>
      <trkpt lat="49.8971" lon="1.05166">
        <ele>38.1</ele>
        <time>2020-06-18T11:01:13Z</time>
      </trkpt>
      <trkpt lat="49.89719" lon="1.05161">
        <ele>37.4</ele>
        <time>2020-06-18T11:01:14Z</time>
      </trkpt>
      <trkpt lat="49.89729" lon="1.05156">
        <ele>36.7</ele>
        <time>2020-06-18T11:01:15Z</time>
      </trkpt>
      <trkpt lat="49.89739" lon="1.05152">
        <ele>36</ele>
        <time>2020-06-18T11:01:16Z</time>
      </trkpt>
      <trkpt lat="49.89749" lon="1.05147">
        <ele>35.4</ele>
        <time>2020-06-18T11:01:17Z</time>
      </trkpt>
      <trkpt lat="49.89759" lon="1.05143">
        <ele>34.8</ele>
        <time>2020-06-18T11:01:18Z</time>
      </trkpt>
      <trkpt lat="49.89769" lon="1.05138">
        <ele>34.2</ele>
        <time>2020-06-18T11:01:19Z</time>
      </trkpt>
      <trkpt lat="49.89778" lon="1.05132">
        <ele>33.6</ele>
        <time>2020-06-18T11:01:20Z</time>
      </trkpt>
      <trkpt lat="49.89788" lon="1.05127">
        <ele>33</ele>
        <time>2020-06-18T11:01:21Z</time>
      </trkpt>
      <trkpt lat="49.89798" lon="1.05123">
        <ele>32.4</ele>
        <time>2020-06-18T11:01:22Z</time>
      </trkpt>
      <trkpt lat="49.89808" lon="1.05119">
        <ele>31.8</ele>
        <time>2020-06-18T11:01:23Z</time>
      </trkpt>
      <trkpt lat="49.89819" lon="1.05115">
        <ele>31.2</ele>
        <time>2020-06-18T11:01:24Z</time>
      </trkpt>
      <trkpt lat="49.89829" lon="1.05111">
        <ele>30.5</ele>
        <time>2020-06-18T11:01:25Z</time>
      </trkpt>
      <trkpt lat="49.89839" lon="1.05107">
        <ele>29.9</ele>
        <time>2020-06-18T11:01:26Z</time>
      </trkpt>
      <trkpt lat="49.89849" lon="1.05105">
        <ele>29.3</ele>
        <time>2020-06-18T11:01:27Z</time>
      </trkpt>
      <trkpt lat="49.89859" lon="1.05102">
        <ele>28.6</ele>
        <time>2020-06-18T11:01:28Z</time>
      </trkpt>
      <trkpt lat="49.89869" lon="1.051">
        <ele>28</ele>
        <time>2020-06-18T11:01:29Z</time>
      </trkpt>
      <trkpt lat="49.8988" lon="1.051">
        <ele>27.4</ele>
        <time>2020-06-18T11:01:30Z</time>
      </trkpt>
      <trkpt lat="49.8989" lon="1.05099">
        <ele>26.7</ele>
        <time>2020-06-18T11:01:31Z</time>
      </trkpt>
      <trkpt lat="49.89901" lon="1.05099">
        <ele>26</ele>
        <time>2020-06-18T11:01:32Z</time>
      </trkpt>
      <trkpt lat="49.89911" lon="1.05099">
        <ele>25.4</ele>
        <time>2020-06-18T11:01:33Z</time>
      </trkpt>
      <trkpt lat="49.89922" lon="1.051">
        <ele>24.8</ele>
        <time>2020-06-18T11:01:34Z</time>
      </trkpt>
      <trkpt lat="49.89932" lon="1.05101">
        <ele>24.1</ele>
        <time>2020-06-18T11:01:35Z</time>
      </trkpt>
      <trkpt lat="49.89942" lon="1.05101">
        <ele>23.5</ele>
        <time>2020-06-18T11:01:36Z</time>
      </trkpt>
      <trkpt lat="49.89953" lon="1.05101">
        <ele>22.9</ele>
        <time>2020-06-18T11:01:37Z</time>
      </trkpt>
      <trkpt lat="49.89963" lon="1.051">
        <ele>22.2</ele>
        <time>2020-06-18T11:01:38Z</time>
      </trkpt>
      <trkpt lat="49.89974" lon="1.05101">
        <ele>21.6</ele>
        <time>2020-06-18T11:01:39Z</time>
      </trkpt>
      <trkpt lat="49.89984" lon="1.05102">
        <ele>21</ele>
        <time>2020-06-18T11:01:40Z</time>
      </trkpt>
      <trkpt lat="49.89994" lon="1.05103">
        <ele>20.4</ele>
        <time>2020-06-18T11:01:41Z</time>
      </trkpt>
      <trkpt lat="49.90004" lon="1.05104">
        <ele>19.7</ele>
        <time>2020-06-18T11:01:42Z</time>
      </trkpt>
      <trkpt lat="49.90015" lon="1.05106">
        <ele>19.2</ele>
        <time>2020-06-18T11:01:43Z</time>
      </trkpt>
      <trkpt lat="49.90025" lon="1.05107">
        <ele>18.7</ele>
        <time>2020-06-18T11:01:44Z</time>
      </trkpt>
      <trkpt lat="49.90034" lon="1.05108">
        <ele>18.1</ele>
        <time>2020-06-18T11:01:45Z</time>
      </trkpt>
      <trkpt lat="49.90044" lon="1.05109">
        <ele>17.6</ele>
        <time>2020-06-18T11:01:46Z</time>
      </trkpt>
      <trkpt lat="49.90053" lon="1.05109">
        <ele>17</ele>
        <time>2020-06-18T11:01:47Z</time>
      </trkpt>
      <trkpt lat="49.90062" lon="1.0511">
        <ele>16.5</ele>
        <time>2020-06-18T11:01:48Z</time>
      </trkpt>
      <trkpt lat="49.9007" lon="1.0511">
        <ele>15.9</ele>
        <time>2020-06-18T11:01:49Z</time>
      </trkpt>
      <trkpt lat="49.90078" lon="1.05113">
        <ele>15.4</ele>
        <time>2020-06-18T11:01:50Z</time>
      </trkpt>
      <trkpt lat="49.90086" lon="1.05115">
        <ele>14.9</ele>
        <time>2020-06-18T11:01:51Z</time>
      </trkpt>
      <trkpt lat="49.90093" lon="1.05119">
        <ele>14.4</ele>
        <time>2020-06-18T11:01:52Z</time>
      </trkpt>
      <trkpt lat="49.90099" lon="1.05125">
        <ele>14</ele>
        <time>2020-06-18T11:01:53Z</time>
      </trkpt>
      <trkpt lat="49.90105" lon="1.05133">
        <ele>13.5</ele>
        <time>2020-06-18T11:01:54Z</time>
      </trkpt>
      <trkpt lat="49.9011" lon="1.05142">
        <ele>13.1</ele>
        <time>2020-06-18T11:01:55Z</time>
      </trkpt>
      <trkpt lat="49.90116" lon="1.05151">
        <ele>12.6</ele>
        <time>2020-06-18T11:01:56Z</time>
      </trkpt>
      <trkpt lat="49.90122" lon="1.05161">
        <ele>12.2</ele>
        <time>2020-06-18T11:01:57Z</time>
      </trkpt>
      <trkpt lat="49.90127" lon="1.05171">
        <ele>11.9</ele>
        <time>2020-06-18T11:01:58Z</time>
      </trkpt>
      <trkpt lat="49.90133" lon="1.05181">
        <ele>11.6</ele>
        <time>2020-06-18T11:01:59Z</time>
      </trkpt>
      <trkpt lat="49.90141" lon="1.05188">
        <ele>11.4</ele>
        <time>2020-06-18T11:02:00Z</time>
      </trkpt>
      <trkpt lat="49.90149" lon="1.05195">
        <ele>11.1</ele>
        <time>2020-06-18T11:02:01Z</time>
      </trkpt>
      <trkpt lat="49.90157" lon="1.05203">
        <ele>10.7</ele>
        <time>2020-06-18T11:02:02Z</time>
      </trkpt>
      <trkpt lat="49.90164" lon="1.05212">
        <ele>10.3</ele>
        <time>2020-06-18T11:02:03Z</time>
      </trkpt>
      <trkpt lat="49.90171" lon="1.05221">
        <ele>9.9</ele>
        <time>2020-06-18T11:02:04Z</time>
      </trkpt>
      <trkpt lat="49.90179" lon="1.05229">
        <ele>9.6</ele>
        <time>2020-06-18T11:02:05Z</time>
      </trkpt>
      <trkpt lat="49.90185" lon="1.05238">
        <ele>9.3</ele>
        <time>2020-06-18T11:02:06Z</time>
      </trkpt>
      <trkpt lat="49.90192" lon="1.05247">
        <ele>9.1</ele>
        <time>2020-06-18T11:02:07Z</time>
      </trkpt>
      <trkpt lat="49.90197" lon="1.05255">
        <ele>8.9</ele>
        <time>2020-06-18T11:02:08Z</time>
      </trkpt>
      <trkpt lat="49.90203" lon="1.05263">
        <ele>8.7</ele>
        <time>2020-06-18T11:02:09Z</time>
      </trkpt>
      <trkpt lat="49.90208" lon="1.05272">
        <ele>8.5</ele>
        <time>2020-06-18T11:02:10Z</time>
      </trkpt>
      <trkpt lat="49.90213" lon="1.0528">
        <ele>8.4</ele>
        <time>2020-06-18T11:02:11Z</time>
      </trkpt>
      <trkpt lat="49.90219" lon="1.05288">
        <ele>8.2</ele>
        <time>2020-06-18T11:02:12Z</time>
      </trkpt>
      <trkpt lat="49.90223" lon="1.05298">
        <ele>8.1</ele>
        <time>2020-06-18T11:02:13Z</time>
      </trkpt>
      <trkpt lat="49.90228" lon="1.05304">
        <ele>7.9</ele>
        <time>2020-06-18T11:02:14Z</time>
      </trkpt>
      <trkpt lat="49.90233" lon="1.05311">
        <ele>8</ele>
        <time>2020-06-18T11:02:15Z</time>
      </trkpt>
      <trkpt lat="49.90239" lon="1.05316">
        <ele>8.1</ele>
        <time>2020-06-18T11:02:16Z</time>
      </trkpt>
      <trkpt lat="49.90245" lon="1.05322">
        <ele>8.1</ele>
        <time>2020-06-18T11:02:17Z</time>
      </trkpt>
      <trkpt lat="49.9025" lon="1.05327">
        <ele>8.2</ele>
        <time>2020-06-18T11:02:18Z</time>
      </trkpt>
      <trkpt lat="49.90256" lon="1.05333">
        <ele>8.3</ele>
        <time>2020-06-18T11:02:19Z</time>
      </trkpt>
      <trkpt lat="49.90261" lon="1.05338">
        <ele>8.4</ele>
        <time>2020-06-18T11:02:20Z</time>
      </trkpt>
      <trkpt lat="49.90267" lon="1.05344">
        <ele>8.5</ele>
        <time>2020-06-18T11:02:21Z</time>
      </trkpt>
      <trkpt lat="49.90272" lon="1.05351">
        <ele>8.6</ele>
        <time>2020-06-18T11:02:22Z</time>
      </trkpt>
      <trkpt lat="49.90277" lon="1.05357">
        <ele>8.5</ele>
        <time>2020-06-18T11:02:23Z</time>
      </trkpt>
      <trkpt lat="49.90282" lon="1.05364">
        <ele>8.5</ele>
        <time>2020-06-18T11:02:24Z</time>
      </trkpt>
      <trkpt lat="49.90287" lon="1.05371">
        <ele>8.8</ele>
        <time>2020-06-18T11:02:25Z</time>
      </trkpt>
      <trkpt lat="49.90293" lon="1.05377">
        <ele>8.9</ele>
        <time>2020-06-18T11:02:26Z</time>
      </trkpt>
      <trkpt lat="49.90297" lon="1.05383">
        <ele>9</ele>
        <time>2020-06-18T11:02:27Z</time>
      </trkpt>
      <trkpt lat="49.90302" lon="1.05389">
        <ele>9.2</ele>
        <time>2020-06-18T11:02:28Z</time>
      </trkpt>
      <trkpt lat="49.90307" lon="1.05395">
        <ele>9.3</ele>
        <time>2020-06-18T11:02:29Z</time>
      </trkpt>
      <trkpt lat="49.90312" lon="1.05401">
        <ele>9.6</ele>
        <time>2020-06-18T11:02:30Z</time>
      </trkpt>
      <trkpt lat="49.90318" lon="1.05406">
        <ele>9.8</ele>
        <time>2020-06-18T11:02:31Z</time>
      </trkpt>
      <trkpt lat="49.90322" lon="1.05412">
        <ele>10</ele>
        <time>2020-06-18T11:02:32Z</time>
      </trkpt>
      <trkpt lat="49.90326" lon="1.05419">
        <ele>10.3</ele>
        <time>2020-06-18T11:02:33Z</time>
      </trkpt>
      <trkpt lat="49.9033" lon="1.05424">
        <ele>10.5</ele>
        <time>2020-06-18T11:02:34Z</time>
      </trkpt>
      <trkpt lat="49.90334" lon="1.05429">
        <ele>10.8</ele>
        <time>2020-06-18T11:02:35Z</time>
      </trkpt>
      <trkpt lat="49.90338" lon="1.05434">
        <ele>11.1</ele>
        <time>2020-06-18T11:02:36Z</time>
      </trkpt>
      <trkpt lat="49.90342" lon="1.05439">
        <ele>11.4</ele>
        <time>2020-06-18T11:02:37Z</time>
      </trkpt>
      <trkpt lat="49.90345" lon="1.05443">
        <ele>11.7</ele>
        <time>2020-06-18T11:02:38Z</time>
      </trkpt>
      <trkpt lat="49.90349" lon="1.05448">
        <ele>11.9</ele>
        <time>2020-06-18T11:02:39Z</time>
      </trkpt>
      <trkpt lat="49.90353" lon="1.05453">
        <ele>12.3</ele>
        <time>2020-06-18T11:02:40Z</time>
      </trkpt>
      <trkpt lat="49.90356" lon="1.05459">
        <ele>12.6</ele>
        <time>2020-06-18T11:02:41Z</time>
      </trkpt>
      <trkpt lat="49.90359" lon="1.05463">
        <ele>12.9</ele>
        <time>2020-06-18T11:02:42Z</time>
      </trkpt>
      <trkpt lat="49.90362" lon="1.05466">
        <ele>13.2</ele>
        <time>2020-06-18T11:02:43Z</time>
      </trkpt>
      <trkpt lat="49.90363" lon="1.05467">
        <ele>13.3</ele>
        <time>2020-06-18T11:02:44Z</time>
      </trkpt>
      <trkpt lat="49.90366" lon="1.0547">
        <ele>13.5</ele>
        <time>2020-06-18T11:02:45Z</time>
      </trkpt>
      <trkpt lat="49.90369" lon="1.05475">
        <ele>13.8</ele>
        <time>2020-06-18T11:02:46Z</time>
      </trkpt>
      <trkpt lat="49.90371" lon="1.05477">
        <ele>14</ele>
        <time>2020-06-18T11:02:47Z</time>
      </trkpt>
      <trkpt lat="49.90374" lon="1.05481">
        <ele>14.3</ele>
        <time>2020-06-18T11:02:48Z</time>
      </trkpt>
      <trkpt lat="49.90376" lon="1.05485">
        <ele>14.5</ele>
        <time>2020-06-18T11:02:49Z</time>
      </trkpt>
      <trkpt lat="49.90379" lon="1.0549">
        <ele>14.8</ele>
        <time>2020-06-18T11:02:50Z</time>
      </trkpt>
      <trkpt lat="49.90383" lon="1.05495">
        <ele>15.2</ele>
        <time>2020-06-18T11:02:51Z</time>
      </trkpt>
      <trkpt lat="49.90385" lon="1.05497">
        <ele>15.4</ele>
        <time>2020-06-18T11:02:52Z</time>
      </trkpt>
      <trkpt lat="49.9039" lon="1.05504">
        <ele>15.8</ele>
        <time>2020-06-18T11:02:53Z</time>
      </trkpt>
      <trkpt lat="49.90393" lon="1.05508">
        <ele>16.1</ele>
        <time>2020-06-18T11:02:54Z</time>
      </trkpt>
      <trkpt lat="49.90396" lon="1.05512">
        <ele>16.4</ele>
        <time>2020-06-18T11:02:55Z</time>
      </trkpt>
      <trkpt lat="49.90399" lon="1.05515">
        <ele>16.6</ele>
        <time>2020-06-18T11:02:56Z</time>
      </trkpt>
      <trkpt lat="49.90401" lon="1.0552">
        <ele>16.9</ele>
        <time>2020-06-18T11:02:57Z</time>
      </trkpt>
      <trkpt lat="49.90403" lon="1.05523">
        <ele>17</ele>
        <time>2020-06-18T11:02:58Z</time>
      </trkpt>
      <trkpt lat="49.90405" lon="1.05526">
        <ele>17.2</ele>
        <time>2020-06-18T11:02:59Z</time>
      </trkpt>
      <trkpt lat="49.90408" lon="1.05529">
        <ele>17.4</ele>
        <time>2020-06-18T11:03:00Z</time>
      </trkpt>
      <trkpt lat="49.90411" lon="1.05533">
        <ele>17.7</ele>
        <time>2020-06-18T11:03:01Z</time>
      </trkpt>
      <trkpt lat="49.90414" lon="1.05535">
        <ele>17.9</ele>
        <time>2020-06-18T11:03:02Z</time>
      </trkpt>
      <trkpt lat="49.90415" lon="1.05536">
        <ele>18</ele>
        <time>2020-06-18T11:03:03Z</time>
      </trkpt>
      <trkpt lat="49.90418" lon="1.05539">
        <ele>18.2</ele>
        <time>2020-06-18T11:03:04Z</time>
      </trkpt>
      <trkpt lat="49.90421" lon="1.05545">
        <ele>18.5</ele>
        <time>2020-06-18T11:03:05Z</time>
      </trkpt>
      <trkpt lat="49.90424" lon="1.05548">
        <ele>18.7</ele>
        <time>2020-06-18T11:03:06Z</time>
      </trkpt>
      <trkpt lat="49.90427" lon="1.05552">
        <ele>18.9</ele>
        <time>2020-06-18T11:03:07Z</time>
      </trkpt>
      <trkpt lat="49.90429" lon="1.05555">
        <ele>19.4</ele>
        <time>2020-06-18T11:03:08Z</time>
      </trkpt>
      <trkpt lat="49.90432" lon="1.05559">
        <ele>19.8</ele>
        <time>2020-06-18T11:03:09Z</time>
      </trkpt>
      <trkpt lat="49.90434" lon="1.05562">
        <ele>20.2</ele>
        <time>2020-06-18T11:03:10Z</time>
      </trkpt>
      <trkpt lat="49.90436" lon="1.05565">
        <ele>20.6</ele>
        <time>2020-06-18T11:03:11Z</time>
      </trkpt>
      <trkpt lat="49.90438" lon="1.05567">
        <ele>20.9</ele>
        <time>2020-06-18T11:03:12Z</time>
      </trkpt>
      <trkpt lat="49.90441" lon="1.0557">
        <ele>21.2</ele>
        <time>2020-06-18T11:03:13Z</time>
      </trkpt>
      <trkpt lat="49.90443" lon="1.05572">
        <ele>21.5</ele>
        <time>2020-06-18T11:03:14Z</time>
      </trkpt>
      <trkpt lat="49.90446" lon="1.05575">
        <ele>21.9</ele>
        <time>2020-06-18T11:03:15Z</time>
      </trkpt>
      <trkpt lat="49.90448" lon="1.05578">
        <ele>22.3</ele>
        <time>2020-06-18T11:03:16Z</time>
      </trkpt>
      <trkpt lat="49.90451" lon="1.05582">
        <ele>22.7</ele>
        <time>2020-06-18T11:03:17Z</time>
      </trkpt>
      <trkpt lat="49.90453" lon="1.05585">
        <ele>22.9</ele>
        <time>2020-06-18T11:03:18Z</time>
      </trkpt>
      <trkpt lat="49.90454" lon="1.05588">
        <ele>23.2</ele>
        <time>2020-06-18T11:03:19Z</time>
      </trkpt>
      <trkpt lat="49.90456" lon="1.05591">
        <ele>23.5</ele>
        <time>2020-06-18T11:03:20Z</time>
      </trkpt>
      <trkpt lat="49.90459" lon="1.05594">
        <ele>23.9</ele>
        <time>2020-06-18T11:03:21Z</time>
      </trkpt>
      <trkpt lat="49.9046" lon="1.05594">
        <ele>24</ele>
        <time>2020-06-18T11:03:22Z</time>
      </trkpt>
      <trkpt lat="49.90463" lon="1.05598">
        <ele>24.4</ele>
        <time>2020-06-18T11:03:23Z</time>
      </trkpt>
      <trkpt lat="49.90465" lon="1.05603">
        <ele>24.8</ele>
        <time>2020-06-18T11:03:24Z</time>
      </trkpt>
      <trkpt lat="49.90468" lon="1.05606">
        <ele>25.2</ele>
        <time>2020-06-18T11:03:25Z</time>
      </trkpt>
      <trkpt lat="49.90469" lon="1.05608">
        <ele>25.3</ele>
        <time>2020-06-18T11:03:26Z</time>
      </trkpt>
      <trkpt lat="49.90471" lon="1.05612">
        <ele>23.4</ele>
        <time>2020-06-18T11:03:27Z</time>
      </trkpt>
      <trkpt lat="49.90473" lon="1.05615">
        <ele>23.6</ele>
        <time>2020-06-18T11:03:28Z</time>
      </trkpt>
      <trkpt lat="49.90475" lon="1.05618">
        <ele>23.8</ele>
        <time>2020-06-18T11:03:29Z</time>
      </trkpt>
      <trkpt lat="49.90476" lon="1.05618">
        <ele>23.9</ele>
        <time>2020-06-18T11:03:30Z</time>
      </trkpt>
      <trkpt lat="49.90477" lon="1.05621">
        <ele>24.1</ele>
        <time>2020-06-18T11:03:31Z</time>
      </trkpt>
      <trkpt lat="49.90479" lon="1.05624">
        <ele>24.2</ele>
        <time>2020-06-18T11:03:32Z</time>
      </trkpt>
      <trkpt lat="49.90481" lon="1.05627">
        <ele>24.4</ele>
        <time>2020-06-18T11:03:33Z</time>
      </trkpt>
      <trkpt lat="49.90482" lon="1.05629">
        <ele>24.5</ele>
        <time>2020-06-18T11:03:34Z</time>
      </trkpt>
      <trkpt lat="49.90484" lon="1.05632">
        <ele>24.7</ele>
        <time>2020-06-18T11:03:35Z</time>
      </trkpt>
      <trkpt lat="49.90486" lon="1.05635">
        <ele>24.9</ele>
        <time>2020-06-18T11:03:36Z</time>
      </trkpt>
      <trkpt lat="49.90489" lon="1.05638">
        <ele>25.2</ele>
        <time>2020-06-18T11:03:37Z</time>
      </trkpt>
      <trkpt lat="49.90492" lon="1.05641">
        <ele>25.4</ele>
        <time>2020-06-18T11:03:38Z</time>
      </trkpt>
      <trkpt lat="49.90494" lon="1.05644">
        <ele>25.6</ele>
        <time>2020-06-18T11:03:39Z</time>
      </trkpt>
      <trkpt lat="49.90499" lon="1.05648">
        <ele>25.9</ele>
        <time>2020-06-18T11:03:40Z</time>
      </trkpt>
      <trkpt lat="49.905" lon="1.05649">
        <ele>26.1</ele>
        <time>2020-06-18T11:03:41Z</time>
      </trkpt>
      <trkpt lat="49.90503" lon="1.05651">
        <ele>26.3</ele>
        <time>2020-06-18T11:03:42Z</time>
      </trkpt>
      <trkpt lat="49.90505" lon="1.05654">
        <ele>26.5</ele>
        <time>2020-06-18T11:03:43Z</time>
      </trkpt>
      <trkpt lat="49.90508" lon="1.05655">
        <ele>26.7</ele>
        <time>2020-06-18T11:03:44Z</time>
      </trkpt>
      <trkpt lat="49.90512" lon="1.05657">
        <ele>26.9</ele>
        <time>2020-06-18T11:03:45Z</time>
      </trkpt>
      <trkpt lat="49.90514" lon="1.05657">
        <ele>27.1</ele>
        <time>2020-06-18T11:03:46Z</time>
      </trkpt>
      <trkpt lat="49.90517" lon="1.05659">
        <ele>27.3</ele>
        <time>2020-06-18T11:03:47Z</time>
      </trkpt>
      <trkpt lat="49.90521" lon="1.05661">
        <ele>27.6</ele>
        <time>2020-06-18T11:03:48Z</time>
      </trkpt>
      <trkpt lat="49.90524" lon="1.05662">
        <ele>27.8</ele>
        <time>2020-06-18T11:03:49Z</time>
      </trkpt>
      <trkpt lat="49.90528" lon="1.05664">
        <ele>28</ele>
        <time>2020-06-18T11:03:50Z</time>
      </trkpt>
      <trkpt lat="49.90529" lon="1.05664">
        <ele>28.1</ele>
        <time>2020-06-18T11:03:51Z</time>
      </trkpt>
      <trkpt lat="49.90532" lon="1.05665">
        <ele>28.3</ele>
        <time>2020-06-18T11:03:52Z</time>
      </trkpt>
      <trkpt lat="49.90536" lon="1.05666">
        <ele>28.5</ele>
        <time>2020-06-18T11:03:53Z</time>
      </trkpt>
      <trkpt lat="49.90538" lon="1.05666">
        <ele>28.7</ele>
        <time>2020-06-18T11:03:54Z</time>
      </trkpt>
      <trkpt lat="49.90541" lon="1.05665">
        <ele>28.9</ele>
        <time>2020-06-18T11:03:55Z</time>
      </trkpt>
      <trkpt lat="49.90544" lon="1.05667">
        <ele>29.1</ele>
        <time>2020-06-18T11:03:56Z</time>
      </trkpt>
      <trkpt lat="49.90547" lon="1.05666">
        <ele>29.3</ele>
        <time>2020-06-18T11:03:57Z</time>
      </trkpt>
      <trkpt lat="49.9055" lon="1.05666">
        <ele>29.5</ele>
        <time>2020-06-18T11:03:58Z</time>
      </trkpt>
      <trkpt lat="49.90552" lon="1.05665">
        <ele>29.6</ele>
        <time>2020-06-18T11:03:59Z</time>
      </trkpt>
      <trkpt lat="49.90555" lon="1.05664">
        <ele>29.8</ele>
        <time>2020-06-18T11:04:00Z</time>
      </trkpt>
      <trkpt lat="49.90556" lon="1.05664">
        <ele>29.9</ele>
        <time>2020-06-18T11:04:01Z</time>
      </trkpt>
      <trkpt lat="49.90559" lon="1.05664">
        <ele>30.1</ele>
        <time>2020-06-18T11:04:02Z</time>
      </trkpt>
      <trkpt lat="49.9056" lon="1.05665">
        <ele>30.1</ele>
        <time>2020-06-18T11:04:03Z</time>
      </trkpt>
      <trkpt lat="49.90563" lon="1.05665">
        <ele>30.3</ele>
        <time>2020-06-18T11:04:04Z</time>
      </trkpt>
      <trkpt lat="49.90567" lon="1.05667">
        <ele>30.6</ele>
        <time>2020-06-18T11:04:05Z</time>
      </trkpt>
      <trkpt lat="49.9057" lon="1.05667">
        <ele>30.7</ele>
        <time>2020-06-18T11:04:06Z</time>
      </trkpt>
      <trkpt lat="49.90574" lon="1.05666">
        <ele>31</ele>
        <time>2020-06-18T11:04:07Z</time>
      </trkpt>
      <trkpt lat="49.90576" lon="1.05666">
        <ele>31.1</ele>
        <time>2020-06-18T11:04:08Z</time>
      </trkpt>
      <trkpt lat="49.90578" lon="1.05666">
        <ele>31.2</ele>
        <time>2020-06-18T11:04:09Z</time>
      </trkpt>
      <trkpt lat="49.90582" lon="1.05667">
        <ele>31.5</ele>
        <time>2020-06-18T11:04:10Z</time>
      </trkpt>
      <trkpt lat="49.90583" lon="1.05667">
        <ele>31.6</ele>
        <time>2020-06-18T11:04:11Z</time>
      </trkpt>
      <trkpt lat="49.90585" lon="1.05667">
        <ele>31.7</ele>
        <time>2020-06-18T11:04:12Z</time>
      </trkpt>
      <trkpt lat="49.90586" lon="1.05667">
        <ele>31.8</ele>
        <time>2020-06-18T11:04:13Z</time>
      </trkpt>
      <trkpt lat="49.90589" lon="1.05666">
        <ele>31.9</ele>
        <time>2020-06-18T11:04:14Z</time>
      </trkpt>
      <trkpt lat="49.9059" lon="1.05666">
        <ele>32</ele>
        <time>2020-06-18T11:04:15Z</time>
      </trkpt>
      <trkpt lat="49.90594" lon="1.05666">
        <ele>32.2</ele>
        <time>2020-06-18T11:04:16Z</time>
      </trkpt>
      <trkpt lat="49.90595" lon="1.05667">
        <ele>32.3</ele>
        <time>2020-06-18T11:04:17Z</time>
      </trkpt>
      <trkpt lat="49.90599" lon="1.05668">
        <ele>32.6</ele>
        <time>2020-06-18T11:04:18Z</time>
      </trkpt>
      <trkpt lat="49.90603" lon="1.05667">
        <ele>32.8</ele>
        <time>2020-06-18T11:04:19Z</time>
      </trkpt>
      <trkpt lat="49.90607" lon="1.05666">
        <ele>33</ele>
        <time>2020-06-18T11:04:20Z</time>
      </trkpt>
      <trkpt lat="49.9061" lon="1.05665">
        <ele>33.2</ele>
        <time>2020-06-18T11:04:21Z</time>
      </trkpt>
      <trkpt lat="49.90614" lon="1.05665">
        <ele>33.4</ele>
        <time>2020-06-18T11:04:22Z</time>
      </trkpt>
      <trkpt lat="49.90616" lon="1.05664">
        <ele>33.6</ele>
        <time>2020-06-18T11:04:23Z</time>
      </trkpt>
      <trkpt lat="49.90618" lon="1.05664">
        <ele>33.7</ele>
        <time>2020-06-18T11:04:24Z</time>
      </trkpt>
      <trkpt lat="49.90621" lon="1.05663">
        <ele>33.9</ele>
        <time>2020-06-18T11:04:25Z</time>
      </trkpt>
      <trkpt lat="49.90622" lon="1.05664">
        <ele>33.9</ele>
        <time>2020-06-18T11:04:26Z</time>
      </trkpt>
      <trkpt lat="49.90626" lon="1.05664">
        <ele>34.1</ele>
        <time>2020-06-18T11:04:27Z</time>
      </trkpt>
      <trkpt lat="49.90627" lon="1.05664">
        <ele>34.2</ele>
        <time>2020-06-18T11:04:28Z</time>
      </trkpt>
      <trkpt lat="49.9063" lon="1.05663">
        <ele>34.4</ele>
        <time>2020-06-18T11:04:29Z</time>
      </trkpt>
      <trkpt lat="49.90632" lon="1.05663">
        <ele>34.5</ele>
        <time>2020-06-18T11:04:30Z</time>
      </trkpt>
      <trkpt lat="49.90636" lon="1.05664">
        <ele>34.7</ele>
        <time>2020-06-18T11:04:31Z</time>
      </trkpt>
      <trkpt lat="49.90637" lon="1.05664">
        <ele>34.8</ele>
        <time>2020-06-18T11:04:32Z</time>
      </trkpt>
      <trkpt lat="49.90641" lon="1.05665">
        <ele>35</ele>
        <time>2020-06-18T11:04:33Z</time>
      </trkpt>
      <trkpt lat="49.90644" lon="1.05665">
        <ele>35.2</ele>
        <time>2020-06-18T11:04:34Z</time>
      </trkpt>
      <trkpt lat="49.90648" lon="1.05665">
        <ele>35.4</ele>
        <time>2020-06-18T11:04:35Z</time>
      </trkpt>
      <trkpt lat="49.90651" lon="1.05664">
        <ele>35.6</ele>
        <time>2020-06-18T11:04:36Z</time>
      </trkpt>
      <trkpt lat="49.90652" lon="1.05664">
        <ele>35.7</ele>
        <time>2020-06-18T11:04:37Z</time>
      </trkpt>
      <trkpt lat="49.90656" lon="1.05664">
        <ele>35.9</ele>
        <time>2020-06-18T11:04:38Z</time>
      </trkpt>
      <trkpt lat="49.90659" lon="1.05663">
        <ele>36.1</ele>
        <time>2020-06-18T11:04:39Z</time>
      </trkpt>
      <trkpt lat="49.90662" lon="1.05663">
        <ele>36.3</ele>
        <time>2020-06-18T11:04:40Z</time>
      </trkpt>
      <trkpt lat="49.90666" lon="1.05664">
        <ele>36.5</ele>
        <time>2020-06-18T11:04:41Z</time>
      </trkpt>
      <trkpt lat="49.9067" lon="1.05664">
        <ele>36.8</ele>
        <time>2020-06-18T11:04:42Z</time>
      </trkpt>
      <trkpt lat="49.90671" lon="1.05664">
        <ele>36.8</ele>
        <time>2020-06-18T11:04:43Z</time>
      </trkpt>
      <trkpt lat="49.90674" lon="1.05664">
        <ele>37</ele>
        <time>2020-06-18T11:04:44Z</time>
      </trkpt>
      <trkpt lat="49.90677" lon="1.05663">
        <ele>37.4</ele>
        <time>2020-06-18T11:04:45Z</time>
      </trkpt>
      <trkpt lat="49.90681" lon="1.05664">
        <ele>37.6</ele>
        <time>2020-06-18T11:04:46Z</time>
      </trkpt>
      <trkpt lat="49.90683" lon="1.05664">
        <ele>37.6</ele>
        <time>2020-06-18T11:04:47Z</time>
      </trkpt>
      <trkpt lat="49.90687" lon="1.05664">
        <ele>37.8</ele>
        <time>2020-06-18T11:04:48Z</time>
      </trkpt>
      <trkpt lat="49.9069" lon="1.05664">
        <ele>38</ele>
        <time>2020-06-18T11:04:49Z</time>
      </trkpt>
      <trkpt lat="49.90692" lon="1.05663">
        <ele>38.1</ele>
        <time>2020-06-18T11:04:50Z</time>
      </trkpt>
      <trkpt lat="49.90696" lon="1.05663">
        <ele>38.3</ele>
        <time>2020-06-18T11:04:51Z</time>
      </trkpt>
      <trkpt lat="49.907" lon="1.05664">
        <ele>38.5</ele>
        <time>2020-06-18T11:04:52Z</time>
      </trkpt>
      <trkpt lat="49.90704" lon="1.05663">
        <ele>38.7</ele>
        <time>2020-06-18T11:04:53Z</time>
      </trkpt>
      <trkpt lat="49.90705" lon="1.05663">
        <ele>38.7</ele>
        <time>2020-06-18T11:04:54Z</time>
      </trkpt>
      <trkpt lat="49.90708" lon="1.05663">
        <ele>38.9</ele>
        <time>2020-06-18T11:04:55Z</time>
      </trkpt>
      <trkpt lat="49.90709" lon="1.0566">
        <ele>39</ele>
        <time>2020-06-18T11:04:56Z</time>
      </trkpt>
      <trkpt lat="49.90711" lon="1.0566">
        <ele>39.1</ele>
        <time>2020-06-18T11:04:57Z</time>
      </trkpt>
      <trkpt lat="49.90714" lon="1.05658">
        <ele>39.3</ele>
        <time>2020-06-18T11:04:58Z</time>
      </trkpt>
      <trkpt lat="49.90715" lon="1.05658">
        <ele>39.3</ele>
        <time>2020-06-18T11:04:59Z</time>
      </trkpt>
      <trkpt lat="49.90719" lon="1.05657">
        <ele>39.5</ele>
        <time>2020-06-18T11:05:00Z</time>
      </trkpt>
      <trkpt lat="49.90723" lon="1.05656">
        <ele>39.8</ele>
        <time>2020-06-18T11:05:01Z</time>
      </trkpt>
      <trkpt lat="49.90725" lon="1.05656">
        <ele>39.9</ele>
        <time>2020-06-18T11:05:02Z</time>
      </trkpt>
      <trkpt lat="49.90728" lon="1.05653">
        <ele>40.1</ele>
        <time>2020-06-18T11:05:03Z</time>
      </trkpt>
      <trkpt lat="49.90729" lon="1.05653">
        <ele>40.2</ele>
        <time>2020-06-18T11:05:04Z</time>
      </trkpt>
      <trkpt lat="49.90734" lon="1.05651">
        <ele>40.4</ele>
        <time>2020-06-18T11:05:05Z</time>
      </trkpt>
      <trkpt lat="49.90736" lon="1.05651">
        <ele>40.6</ele>
        <time>2020-06-18T11:05:06Z</time>
      </trkpt>
      <trkpt lat="49.9074" lon="1.05653">
        <ele>40.8</ele>
        <time>2020-06-18T11:05:07Z</time>
      </trkpt>
      <trkpt lat="49.90743" lon="1.05654">
        <ele>40.9</ele>
        <time>2020-06-18T11:05:08Z</time>
      </trkpt>
      <trkpt lat="49.90746" lon="1.05654">
        <ele>41.1</ele>
        <time>2020-06-18T11:05:09Z</time>
      </trkpt>
      <trkpt lat="49.90747" lon="1.05654">
        <ele>41.1</ele>
        <time>2020-06-18T11:05:10Z</time>
      </trkpt>
      <trkpt lat="49.90751" lon="1.05654">
        <ele>41.3</ele>
        <time>2020-06-18T11:05:11Z</time>
      </trkpt>
      <trkpt lat="49.90753" lon="1.05653">
        <ele>41.5</ele>
        <time>2020-06-18T11:05:12Z</time>
      </trkpt>
      <trkpt lat="49.90757" lon="1.05653">
        <ele>41.6</ele>
        <time>2020-06-18T11:05:13Z</time>
      </trkpt>
      <trkpt lat="49.9076" lon="1.05653">
        <ele>41.8</ele>
        <time>2020-06-18T11:05:14Z</time>
      </trkpt>
      <trkpt lat="49.90763" lon="1.05651">
        <ele>41.9</ele>
        <time>2020-06-18T11:05:15Z</time>
      </trkpt>
      <trkpt lat="49.90764" lon="1.05651">
        <ele>42</ele>
        <time>2020-06-18T11:05:16Z</time>
      </trkpt>
      <trkpt lat="49.90766" lon="1.05651">
        <ele>42.1</ele>
        <time>2020-06-18T11:05:17Z</time>
      </trkpt>
      <trkpt lat="49.90769" lon="1.05651">
        <ele>42.2</ele>
        <time>2020-06-18T11:05:18Z</time>
      </trkpt>
      <trkpt lat="49.90772" lon="1.05652">
        <ele>42.4</ele>
        <time>2020-06-18T11:05:19Z</time>
      </trkpt>
      <trkpt lat="49.90775" lon="1.05653">
        <ele>42.5</ele>
        <time>2020-06-18T11:05:20Z</time>
      </trkpt>
      <trkpt lat="49.90779" lon="1.05654">
        <ele>42.8</ele>
        <time>2020-06-18T11:05:21Z</time>
      </trkpt>
      <trkpt lat="49.90783" lon="1.05656">
        <ele>43</ele>
        <time>2020-06-18T11:05:22Z</time>
      </trkpt>
      <trkpt lat="49.90785" lon="1.05658">
        <ele>43.1</ele>
        <time>2020-06-18T11:05:23Z</time>
      </trkpt>
      <trkpt lat="49.90789" lon="1.05658">
        <ele>43.4</ele>
        <time>2020-06-18T11:05:24Z</time>
      </trkpt>
      <trkpt lat="49.9079" lon="1.05658">
        <ele>43.4</ele>
        <time>2020-06-18T11:05:25Z</time>
      </trkpt>
      <trkpt lat="49.90794" lon="1.0566">
        <ele>43.6</ele>
        <time>2020-06-18T11:05:26Z</time>
      </trkpt>
      <trkpt lat="49.90798" lon="1.05661">
        <ele>43.8</ele>
        <time>2020-06-18T11:05:27Z</time>
      </trkpt>
      <trkpt lat="49.90801" lon="1.05662">
        <ele>44</ele>
        <time>2020-06-18T11:05:28Z</time>
      </trkpt>
      <trkpt lat="49.90804" lon="1.05662">
        <ele>44.2</ele>
        <time>2020-06-18T11:05:29Z</time>
      </trkpt>
      <trkpt lat="49.90808" lon="1.05664">
        <ele>44.4</ele>
        <time>2020-06-18T11:05:30Z</time>
      </trkpt>
      <trkpt lat="49.90809" lon="1.05665">
        <ele>44.5</ele>
        <time>2020-06-18T11:05:31Z</time>
      </trkpt>
      <trkpt lat="49.90813" lon="1.05666">
        <ele>44.6</ele>
        <time>2020-06-18T11:05:32Z</time>
      </trkpt>
      <trkpt lat="49.90814" lon="1.05667">
        <ele>44.7</ele>
        <time>2020-06-18T11:05:33Z</time>
      </trkpt>
      <trkpt lat="49.90817" lon="1.05668">
        <ele>44.9</ele>
        <time>2020-06-18T11:05:34Z</time>
      </trkpt>
      <trkpt lat="49.90821" lon="1.05669">
        <ele>45</ele>
        <time>2020-06-18T11:05:35Z</time>
      </trkpt>
      <trkpt lat="49.90825" lon="1.05673">
        <ele>45.3</ele>
        <time>2020-06-18T11:05:36Z</time>
      </trkpt>
      <trkpt lat="49.90827" lon="1.05675">
        <ele>45.4</ele>
        <time>2020-06-18T11:05:37Z</time>
      </trkpt>
      <trkpt lat="49.9083" lon="1.05678">
        <ele>45.6</ele>
        <time>2020-06-18T11:05:38Z</time>
      </trkpt>
      <trkpt lat="49.90832" lon="1.0568">
        <ele>45.8</ele>
        <time>2020-06-18T11:05:39Z</time>
      </trkpt>
      <trkpt lat="49.90835" lon="1.05683">
        <ele>45.9</ele>
        <time>2020-06-18T11:05:40Z</time>
      </trkpt>
      <trkpt lat="49.90838" lon="1.05686">
        <ele>46.1</ele>
        <time>2020-06-18T11:05:41Z</time>
      </trkpt>
      <trkpt lat="49.90839" lon="1.05686">
        <ele>46.2</ele>
        <time>2020-06-18T11:05:42Z</time>
      </trkpt>
      <trkpt lat="49.90842" lon="1.05687">
        <ele>46.3</ele>
        <time>2020-06-18T11:05:43Z</time>
      </trkpt>
      <trkpt lat="49.90843" lon="1.05688">
        <ele>46.4</ele>
        <time>2020-06-18T11:05:44Z</time>
      </trkpt>
      <trkpt lat="49.90845" lon="1.05692">
        <ele>46.6</ele>
        <time>2020-06-18T11:05:45Z</time>
      </trkpt>
      <trkpt lat="49.90846" lon="1.05692">
        <ele>46.6</ele>
        <time>2020-06-18T11:05:46Z</time>
      </trkpt>
      <trkpt lat="49.90848" lon="1.05696">
        <ele>46.8</ele>
        <time>2020-06-18T11:05:47Z</time>
      </trkpt>
      <trkpt lat="49.9085" lon="1.05698">
        <ele>47</ele>
        <time>2020-06-18T11:05:48Z</time>
      </trkpt>
      <trkpt lat="49.90851" lon="1.057">
        <ele>47.1</ele>
        <time>2020-06-18T11:05:49Z</time>
      </trkpt>
      <trkpt lat="49.90854" lon="1.05703">
        <ele>47.2</ele>
        <time>2020-06-18T11:05:50Z</time>
      </trkpt>
      <trkpt lat="49.90856" lon="1.05705">
        <ele>47.4</ele>
        <time>2020-06-18T11:05:51Z</time>
      </trkpt>
      <trkpt lat="49.90859" lon="1.05708">
        <ele>47.6</ele>
        <time>2020-06-18T11:05:52Z</time>
      </trkpt>
      <trkpt lat="49.90863" lon="1.05711">
        <ele>47.9</ele>
        <time>2020-06-18T11:05:53Z</time>
      </trkpt>
      <trkpt lat="49.90864" lon="1.05712">
        <ele>48</ele>
        <time>2020-06-18T11:05:54Z</time>
      </trkpt>
      <trkpt lat="49.90868" lon="1.05715">
        <ele>48.2</ele>
        <time>2020-06-18T11:05:55Z</time>
      </trkpt>
      <trkpt lat="49.90871" lon="1.05719">
        <ele>48.4</ele>
        <time>2020-06-18T11:05:56Z</time>
      </trkpt>
      <trkpt lat="49.90874" lon="1.05724">
        <ele>48.7</ele>
        <time>2020-06-18T11:05:57Z</time>
      </trkpt>
      <trkpt lat="49.90876" lon="1.05727">
        <ele>48.9</ele>
        <time>2020-06-18T11:05:58Z</time>
      </trkpt>
      <trkpt lat="49.90879" lon="1.05732">
        <ele>49.2</ele>
        <time>2020-06-18T11:05:59Z</time>
      </trkpt>
      <trkpt lat="49.90882" lon="1.05735">
        <ele>49.4</ele>
        <time>2020-06-18T11:06:00Z</time>
      </trkpt>
      <trkpt lat="49.90885" lon="1.05738">
        <ele>49.6</ele>
        <time>2020-06-18T11:06:01Z</time>
      </trkpt>
      <trkpt lat="49.90887" lon="1.05742">
        <ele>49.8</ele>
        <time>2020-06-18T11:06:02Z</time>
      </trkpt>
      <trkpt lat="49.90889" lon="1.05747">
        <ele>50.1</ele>
        <time>2020-06-18T11:06:03Z</time>
      </trkpt>
      <trkpt lat="49.9089" lon="1.05749">
        <ele>50.2</ele>
        <time>2020-06-18T11:06:04Z</time>
      </trkpt>
      <trkpt lat="49.90891" lon="1.05754">
        <ele>50.5</ele>
        <time>2020-06-18T11:06:05Z</time>
      </trkpt>
      <trkpt lat="49.90891" lon="1.05756">
        <ele>50.5</ele>
        <time>2020-06-18T11:06:06Z</time>
      </trkpt>
      <trkpt lat="49.90892" lon="1.05761">
        <ele>50.8</ele>
        <time>2020-06-18T11:06:07Z</time>
      </trkpt>
      <trkpt lat="49.90892" lon="1.05763">
        <ele>50.8</ele>
        <time>2020-06-18T11:06:08Z</time>
      </trkpt>
      <trkpt lat="49.90894" lon="1.05767">
        <ele>51.1</ele>
        <time>2020-06-18T11:06:09Z</time>
      </trkpt>
      <trkpt lat="49.90894" lon="1.05768">
        <ele>51.1</ele>
        <time>2020-06-18T11:06:10Z</time>
      </trkpt>
      <trkpt lat="49.90895" lon="1.05772">
        <ele>51.3</ele>
        <time>2020-06-18T11:06:11Z</time>
      </trkpt>
      <trkpt lat="49.90897" lon="1.05778">
        <ele>51.6</ele>
        <time>2020-06-18T11:06:12Z</time>
      </trkpt>
      <trkpt lat="49.90897" lon="1.0578">
        <ele>51.7</ele>
        <time>2020-06-18T11:06:13Z</time>
      </trkpt>
      <trkpt lat="49.909" lon="1.05784">
        <ele>52</ele>
        <time>2020-06-18T11:06:14Z</time>
      </trkpt>
      <trkpt lat="49.90902" lon="1.05789">
        <ele>52.2</ele>
        <time>2020-06-18T11:06:15Z</time>
      </trkpt>
      <trkpt lat="49.90902" lon="1.0579">
        <ele>52.3</ele>
        <time>2020-06-18T11:06:16Z</time>
      </trkpt>
      <trkpt lat="49.90903" lon="1.05795">
        <ele>52.5</ele>
        <time>2020-06-18T11:06:17Z</time>
      </trkpt>
      <trkpt lat="49.90904" lon="1.05801">
        <ele>52.8</ele>
        <time>2020-06-18T11:06:18Z</time>
      </trkpt>
      <trkpt lat="49.90905" lon="1.05803">
        <ele>52.9</ele>
        <time>2020-06-18T11:06:19Z</time>
      </trkpt>
      <trkpt lat="49.90906" lon="1.05807">
        <ele>53.1</ele>
        <time>2020-06-18T11:06:20Z</time>
      </trkpt>
      <trkpt lat="49.90907" lon="1.05812">
        <ele>53.3</ele>
        <time>2020-06-18T11:06:21Z</time>
      </trkpt>
      <trkpt lat="49.90907" lon="1.05814">
        <ele>53.4</ele>
        <time>2020-06-18T11:06:22Z</time>
      </trkpt>
      <trkpt lat="49.90909" lon="1.05818">
        <ele>53.6</ele>
        <time>2020-06-18T11:06:23Z</time>
      </trkpt>
      <trkpt lat="49.9091" lon="1.05823">
        <ele>53.8</ele>
        <time>2020-06-18T11:06:24Z</time>
      </trkpt>
      <trkpt lat="49.90911" lon="1.05829">
        <ele>54.1</ele>
        <time>2020-06-18T11:06:25Z</time>
      </trkpt>
      <trkpt lat="49.90911" lon="1.05831">
        <ele>54.2</ele>
        <time>2020-06-18T11:06:26Z</time>
      </trkpt>
      <trkpt lat="49.90912" lon="1.05836">
        <ele>54.4</ele>
        <time>2020-06-18T11:06:27Z</time>
      </trkpt>
      <trkpt lat="49.90913" lon="1.0584">
        <ele>54.6</ele>
        <time>2020-06-18T11:06:28Z</time>
      </trkpt>
      <trkpt lat="49.90914" lon="1.05844">
        <ele>54.8</ele>
        <time>2020-06-18T11:06:29Z</time>
      </trkpt>
      <trkpt lat="49.90916" lon="1.05851">
        <ele>55.1</ele>
        <time>2020-06-18T11:06:30Z</time>
      </trkpt>
      <trkpt lat="49.90917" lon="1.05853">
        <ele>55.2</ele>
        <time>2020-06-18T11:06:31Z</time>
      </trkpt>
      <trkpt lat="49.90919" lon="1.05858">
        <ele>55.5</ele>
        <time>2020-06-18T11:06:32Z</time>
      </trkpt>
      <trkpt lat="49.9092" lon="1.0586">
        <ele>55.6</ele>
        <time>2020-06-18T11:06:33Z</time>
      </trkpt>
      <trkpt lat="49.90921" lon="1.05864">
        <ele>55.8</ele>
        <time>2020-06-18T11:06:34Z</time>
      </trkpt>
      <trkpt lat="49.90923" lon="1.05868">
        <ele>56</ele>
        <time>2020-06-18T11:06:35Z</time>
      </trkpt>
      <trkpt lat="49.90924" lon="1.05873">
        <ele>56.2</ele>
        <time>2020-06-18T11:06:36Z</time>
      </trkpt>
      <trkpt lat="49.90926" lon="1.05878">
        <ele>56.5</ele>
        <time>2020-06-18T11:06:37Z</time>
      </trkpt>
      <trkpt lat="49.90927" lon="1.05884">
        <ele>56.7</ele>
        <time>2020-06-18T11:06:38Z</time>
      </trkpt>
      <trkpt lat="49.90928" lon="1.05889">
        <ele>56.9</ele>
        <time>2020-06-18T11:06:39Z</time>
      </trkpt>
      <trkpt lat="49.90929" lon="1.05893">
        <ele>57.1</ele>
        <time>2020-06-18T11:06:40Z</time>
      </trkpt>
      <trkpt lat="49.90929" lon="1.05899">
        <ele>57.3</ele>
        <time>2020-06-18T11:06:41Z</time>
      </trkpt>
      <trkpt lat="49.9093" lon="1.05904">
        <ele>57.6</ele>
        <time>2020-06-18T11:06:42Z</time>
      </trkpt>
      <trkpt lat="49.90932" lon="1.05909">
        <ele>57.8</ele>
        <time>2020-06-18T11:06:43Z</time>
      </trkpt>
      <trkpt lat="49.90933" lon="1.05914">
        <ele>58.1</ele>
        <time>2020-06-18T11:06:44Z</time>
      </trkpt>
      <trkpt lat="49.90935" lon="1.05918">
        <ele>58.3</ele>
        <time>2020-06-18T11:06:45Z</time>
      </trkpt>
      <trkpt lat="49.90936" lon="1.05922">
        <ele>58.5</ele>
        <time>2020-06-18T11:06:46Z</time>
      </trkpt>
      <trkpt lat="49.90937" lon="1.05926">
        <ele>58.7</ele>
        <time>2020-06-18T11:06:47Z</time>
      </trkpt>
      <trkpt lat="49.90938" lon="1.05928">
        <ele>58.8</ele>
        <time>2020-06-18T11:06:48Z</time>
      </trkpt>
      <trkpt lat="49.90939" lon="1.05933">
        <ele>59</ele>
        <time>2020-06-18T11:06:49Z</time>
      </trkpt>
      <trkpt lat="49.9094" lon="1.05934">
        <ele>59.1</ele>
        <time>2020-06-18T11:06:50Z</time>
      </trkpt>
      <trkpt lat="49.90941" lon="1.05939">
        <ele>59.4</ele>
        <time>2020-06-18T11:06:51Z</time>
      </trkpt>
      <trkpt lat="49.90941" lon="1.05944">
        <ele>59.6</ele>
        <time>2020-06-18T11:06:52Z</time>
      </trkpt>
      <trkpt lat="49.90943" lon="1.05949">
        <ele>59.8</ele>
        <time>2020-06-18T11:06:53Z</time>
      </trkpt>
      <trkpt lat="49.90944" lon="1.05954">
        <ele>60.1</ele>
        <time>2020-06-18T11:06:54Z</time>
      </trkpt>
      <trkpt lat="49.90945" lon="1.05959">
        <ele>60.3</ele>
        <time>2020-06-18T11:06:55Z</time>
      </trkpt>
      <trkpt lat="49.90946" lon="1.05964">
        <ele>60.6</ele>
        <time>2020-06-18T11:06:56Z</time>
      </trkpt>
      <trkpt lat="49.90947" lon="1.0597">
        <ele>60.8</ele>
        <time>2020-06-18T11:06:57Z</time>
      </trkpt>
      <trkpt lat="49.90948" lon="1.05974">
        <ele>61</ele>
        <time>2020-06-18T11:06:58Z</time>
      </trkpt>
      <trkpt lat="49.90949" lon="1.05979">
        <ele>61.3</ele>
        <time>2020-06-18T11:06:59Z</time>
      </trkpt>
      <trkpt lat="49.90951" lon="1.05984">
        <ele>61.5</ele>
        <time>2020-06-18T11:07:00Z</time>
      </trkpt>
      <trkpt lat="49.90953" lon="1.05988">
        <ele>61.8</ele>
        <time>2020-06-18T11:07:01Z</time>
      </trkpt>
      <trkpt lat="49.90953" lon="1.05989">
        <ele>61.8</ele>
        <time>2020-06-18T11:07:02Z</time>
      </trkpt>
      <trkpt lat="49.90955" lon="1.05995">
        <ele>62.1</ele>
        <time>2020-06-18T11:07:03Z</time>
      </trkpt>
      <trkpt lat="49.90956" lon="1.05998">
        <ele>62.3</ele>
        <time>2020-06-18T11:07:04Z</time>
      </trkpt>
      <trkpt lat="49.90958" lon="1.06004">
        <ele>62.5</ele>
        <time>2020-06-18T11:07:05Z</time>
      </trkpt>
      <trkpt lat="49.90958" lon="1.06006">
        <ele>62.6</ele>
        <time>2020-06-18T11:07:06Z</time>
      </trkpt>
      <trkpt lat="49.90959" lon="1.06011">
        <ele>62.8</ele>
        <time>2020-06-18T11:07:07Z</time>
      </trkpt>
      <trkpt lat="49.9096" lon="1.06016">
        <ele>63</ele>
        <time>2020-06-18T11:07:08Z</time>
      </trkpt>
      <trkpt lat="49.90962" lon="1.0602">
        <ele>63.2</ele>
        <time>2020-06-18T11:07:09Z</time>
      </trkpt>
      <trkpt lat="49.90962" lon="1.06024">
        <ele>63.4</ele>
        <time>2020-06-18T11:07:10Z</time>
      </trkpt>
      <trkpt lat="49.90963" lon="1.06029">
        <ele>63.6</ele>
        <time>2020-06-18T11:07:11Z</time>
      </trkpt>
      <trkpt lat="49.90964" lon="1.06034">
        <ele>63.8</ele>
        <time>2020-06-18T11:07:12Z</time>
      </trkpt>
      <trkpt lat="49.90965" lon="1.06039">
        <ele>64</ele>
        <time>2020-06-18T11:07:13Z</time>
      </trkpt>
      <trkpt lat="49.90965" lon="1.06041">
        <ele>64.1</ele>
        <time>2020-06-18T11:07:14Z</time>
      </trkpt>
      <trkpt lat="49.90965" lon="1.06046">
        <ele>64.3</ele>
        <time>2020-06-18T11:07:15Z</time>
      </trkpt>
      <trkpt lat="49.90966" lon="1.06051">
        <ele>64.5</ele>
        <time>2020-06-18T11:07:16Z</time>
      </trkpt>
      <trkpt lat="49.90964" lon="1.06055">
        <ele>64.7</ele>
        <time>2020-06-18T11:07:17Z</time>
      </trkpt>
      <trkpt lat="49.90963" lon="1.06059">
        <ele>64.9</ele>
        <time>2020-06-18T11:07:18Z</time>
      </trkpt>
      <trkpt lat="49.90963" lon="1.06064">
        <ele>65.1</ele>
        <time>2020-06-18T11:07:19Z</time>
      </trkpt>
      <trkpt lat="49.90962" lon="1.06069">
        <ele>65.3</ele>
        <time>2020-06-18T11:07:20Z</time>
      </trkpt>
      <trkpt lat="49.90962" lon="1.06076">
        <ele>65.6</ele>
        <time>2020-06-18T11:07:21Z</time>
      </trkpt>
      <trkpt lat="49.90961" lon="1.06078">
        <ele>65.7</ele>
        <time>2020-06-18T11:07:22Z</time>
      </trkpt>
      <trkpt lat="49.90961" lon="1.06083">
        <ele>65.9</ele>
        <time>2020-06-18T11:07:23Z</time>
      </trkpt>
      <trkpt lat="49.9096" lon="1.06087">
        <ele>66.1</ele>
        <time>2020-06-18T11:07:24Z</time>
      </trkpt>
      <trkpt lat="49.9096" lon="1.06092">
        <ele>66.4</ele>
        <time>2020-06-18T11:07:25Z</time>
      </trkpt>
      <trkpt lat="49.90959" lon="1.06096">
        <ele>66.6</ele>
        <time>2020-06-18T11:07:26Z</time>
      </trkpt>
      <trkpt lat="49.90957" lon="1.06101">
        <ele>66.8</ele>
        <time>2020-06-18T11:07:27Z</time>
      </trkpt>
      <trkpt lat="49.90956" lon="1.06104">
        <ele>67</ele>
        <time>2020-06-18T11:07:28Z</time>
      </trkpt>
      <trkpt lat="49.90955" lon="1.06109">
        <ele>67.2</ele>
        <time>2020-06-18T11:07:29Z</time>
      </trkpt>
      <trkpt lat="49.90954" lon="1.06114">
        <ele>67.4</ele>
        <time>2020-06-18T11:07:30Z</time>
      </trkpt>
      <trkpt lat="49.90953" lon="1.06116">
        <ele>67.5</ele>
        <time>2020-06-18T11:07:31Z</time>
      </trkpt>
      <trkpt lat="49.90953" lon="1.0612">
        <ele>67.7</ele>
        <time>2020-06-18T11:07:32Z</time>
      </trkpt>
      <trkpt lat="49.90952" lon="1.06121">
        <ele>67.8</ele>
        <time>2020-06-18T11:07:33Z</time>
      </trkpt>
      <trkpt lat="49.9095" lon="1.06126">
        <ele>68.1</ele>
        <time>2020-06-18T11:07:34Z</time>
      </trkpt>
      <trkpt lat="49.90949" lon="1.06128">
        <ele>68.2</ele>
        <time>2020-06-18T11:07:35Z</time>
      </trkpt>
      <trkpt lat="49.90947" lon="1.06133">
        <ele>68.4</ele>
        <time>2020-06-18T11:07:36Z</time>
      </trkpt>
      <trkpt lat="49.90946" lon="1.06135">
        <ele>68.5</ele>
        <time>2020-06-18T11:07:37Z</time>
      </trkpt>
      <trkpt lat="49.90944" lon="1.06139">
        <ele>68.7</ele>
        <time>2020-06-18T11:07:38Z</time>
      </trkpt>
      <trkpt lat="49.90942" lon="1.06143">
        <ele>69</ele>
        <time>2020-06-18T11:07:39Z</time>
      </trkpt>
      <trkpt lat="49.90942" lon="1.06144">
        <ele>69.1</ele>
        <time>2020-06-18T11:07:40Z</time>
      </trkpt>
      <trkpt lat="49.9094" lon="1.06148">
        <ele>69.3</ele>
        <time>2020-06-18T11:07:41Z</time>
      </trkpt>
      <trkpt lat="49.90938" lon="1.06152">
        <ele>69.6</ele>
        <time>2020-06-18T11:07:42Z</time>
      </trkpt>
      <trkpt lat="49.90937" lon="1.06153">
        <ele>69.6</ele>
        <time>2020-06-18T11:07:43Z</time>
      </trkpt>
      <trkpt lat="49.90936" lon="1.06157">
        <ele>69.9</ele>
        <time>2020-06-18T11:07:44Z</time>
      </trkpt>
      <trkpt lat="49.90935" lon="1.06158">
        <ele>69.9</ele>
        <time>2020-06-18T11:07:45Z</time>
      </trkpt>
      <trkpt lat="49.90934" lon="1.06162">
        <ele>70.1</ele>
        <time>2020-06-18T11:07:46Z</time>
      </trkpt>
      <trkpt lat="49.90932" lon="1.06166">
        <ele>70.4</ele>
        <time>2020-06-18T11:07:47Z</time>
      </trkpt>
      <trkpt lat="49.90931" lon="1.0617">
        <ele>70.6</ele>
        <time>2020-06-18T11:07:48Z</time>
      </trkpt>
      <trkpt lat="49.90928" lon="1.06175">
        <ele>70.8</ele>
        <time>2020-06-18T11:07:49Z</time>
      </trkpt>
      <trkpt lat="49.90927" lon="1.06177">
        <ele>70.9</ele>
        <time>2020-06-18T11:07:50Z</time>
      </trkpt>
      <trkpt lat="49.90925" lon="1.06179">
        <ele>71.4</ele>
        <time>2020-06-18T11:07:51Z</time>
      </trkpt>
      <trkpt lat="49.90922" lon="1.06182">
        <ele>71.6</ele>
        <time>2020-06-18T11:07:52Z</time>
      </trkpt>
      <trkpt lat="49.9092" lon="1.06186">
        <ele>71.8</ele>
        <time>2020-06-18T11:07:53Z</time>
      </trkpt>
      <trkpt lat="49.90918" lon="1.06189">
        <ele>72</ele>
        <time>2020-06-18T11:07:54Z</time>
      </trkpt>
      <trkpt lat="49.90916" lon="1.06193">
        <ele>72.2</ele>
        <time>2020-06-18T11:07:55Z</time>
      </trkpt>
      <trkpt lat="49.90914" lon="1.06197">
        <ele>72.4</ele>
        <time>2020-06-18T11:07:56Z</time>
      </trkpt>
      <trkpt lat="49.90913" lon="1.06199">
        <ele>72.5</ele>
        <time>2020-06-18T11:07:57Z</time>
      </trkpt>
      <trkpt lat="49.90911" lon="1.06203">
        <ele>72.8</ele>
        <time>2020-06-18T11:07:58Z</time>
      </trkpt>
      <trkpt lat="49.9091" lon="1.06205">
        <ele>72.8</ele>
        <time>2020-06-18T11:07:59Z</time>
      </trkpt>
      <trkpt lat="49.90908" lon="1.06209">
        <ele>73.1</ele>
        <time>2020-06-18T11:08:00Z</time>
      </trkpt>
      <trkpt lat="49.90907" lon="1.06211">
        <ele>73.2</ele>
        <time>2020-06-18T11:08:01Z</time>
      </trkpt>
      <trkpt lat="49.90905" lon="1.06214">
        <ele>73.4</ele>
        <time>2020-06-18T11:08:02Z</time>
      </trkpt>
      <trkpt lat="49.90903" lon="1.06217">
        <ele>73.6</ele>
        <time>2020-06-18T11:08:03Z</time>
      </trkpt>
      <trkpt lat="49.909" lon="1.0622">
        <ele>73.8</ele>
        <time>2020-06-18T11:08:04Z</time>
      </trkpt>
      <trkpt lat="49.90897" lon="1.06225">
        <ele>74.1</ele>
        <time>2020-06-18T11:08:05Z</time>
      </trkpt>
      <trkpt lat="49.90896" lon="1.06227">
        <ele>74.2</ele>
        <time>2020-06-18T11:08:06Z</time>
      </trkpt>
      <trkpt lat="49.90895" lon="1.06231">
        <ele>74.4</ele>
        <time>2020-06-18T11:08:07Z</time>
      </trkpt>
      <trkpt lat="49.90892" lon="1.06235">
        <ele>74.7</ele>
        <time>2020-06-18T11:08:08Z</time>
      </trkpt>
      <trkpt lat="49.90889" lon="1.06239">
        <ele>74.9</ele>
        <time>2020-06-18T11:08:09Z</time>
      </trkpt>
      <trkpt lat="49.90888" lon="1.06243">
        <ele>75.2</ele>
        <time>2020-06-18T11:08:10Z</time>
      </trkpt>
      <trkpt lat="49.90886" lon="1.06247">
        <ele>75.4</ele>
        <time>2020-06-18T11:08:11Z</time>
      </trkpt>
      <trkpt lat="49.90884" lon="1.06251">
        <ele>75.6</ele>
        <time>2020-06-18T11:08:12Z</time>
      </trkpt>
      <trkpt lat="49.90882" lon="1.06254">
        <ele>75.8</ele>
        <time>2020-06-18T11:08:13Z</time>
      </trkpt>
      <trkpt lat="49.90879" lon="1.06257">
        <ele>76</ele>
        <time>2020-06-18T11:08:14Z</time>
      </trkpt>
      <trkpt lat="49.90877" lon="1.06262">
        <ele>76.2</ele>
        <time>2020-06-18T11:08:15Z</time>
      </trkpt>
      <trkpt lat="49.90877" lon="1.06264">
        <ele>76.3</ele>
        <time>2020-06-18T11:08:16Z</time>
      </trkpt>
      <trkpt lat="49.90874" lon="1.06269">
        <ele>76.6</ele>
        <time>2020-06-18T11:08:17Z</time>
      </trkpt>
      <trkpt lat="49.90873" lon="1.0627">
        <ele>76.7</ele>
        <time>2020-06-18T11:08:18Z</time>
      </trkpt>
      <trkpt lat="49.9087" lon="1.06274">
        <ele>76.9</ele>
        <time>2020-06-18T11:08:19Z</time>
      </trkpt>
      <trkpt lat="49.9087" lon="1.06275">
        <ele>76.9</ele>
        <time>2020-06-18T11:08:20Z</time>
      </trkpt>
      <trkpt lat="49.90867" lon="1.0628">
        <ele>77.2</ele>
        <time>2020-06-18T11:08:21Z</time>
      </trkpt>
      <trkpt lat="49.90866" lon="1.06281">
        <ele>77.3</ele>
        <time>2020-06-18T11:08:22Z</time>
      </trkpt>
      <trkpt lat="49.90864" lon="1.06285">
        <ele>77.4</ele>
        <time>2020-06-18T11:08:23Z</time>
      </trkpt>
      <trkpt lat="49.90862" lon="1.06288">
        <ele>77.6</ele>
        <time>2020-06-18T11:08:24Z</time>
      </trkpt>
      <trkpt lat="49.9086" lon="1.06293">
        <ele>78</ele>
        <time>2020-06-18T11:08:25Z</time>
      </trkpt>
      <trkpt lat="49.90859" lon="1.06295">
        <ele>78.1</ele>
        <time>2020-06-18T11:08:26Z</time>
      </trkpt>
      <trkpt lat="49.90858" lon="1.06298">
        <ele>78.2</ele>
        <time>2020-06-18T11:08:27Z</time>
      </trkpt>
      <trkpt lat="49.90856" lon="1.06301">
        <ele>78.4</ele>
        <time>2020-06-18T11:08:28Z</time>
      </trkpt>
      <trkpt lat="49.90854" lon="1.06305">
        <ele>78.6</ele>
        <time>2020-06-18T11:08:29Z</time>
      </trkpt>
      <trkpt lat="49.90851" lon="1.06308">
        <ele>78.8</ele>
        <time>2020-06-18T11:08:30Z</time>
      </trkpt>
      <trkpt lat="49.9085" lon="1.06313">
        <ele>78.9</ele>
        <time>2020-06-18T11:08:31Z</time>
      </trkpt>
      <trkpt lat="49.90848" lon="1.06318">
        <ele>79.2</ele>
        <time>2020-06-18T11:08:32Z</time>
      </trkpt>
      <trkpt lat="49.90847" lon="1.0632">
        <ele>79.3</ele>
        <time>2020-06-18T11:08:33Z</time>
      </trkpt>
      <trkpt lat="49.90846" lon="1.06325">
        <ele>79.4</ele>
        <time>2020-06-18T11:08:34Z</time>
      </trkpt>
      <trkpt lat="49.90845" lon="1.06329">
        <ele>79.6</ele>
        <time>2020-06-18T11:08:35Z</time>
      </trkpt>
      <trkpt lat="49.90842" lon="1.06333">
        <ele>79.8</ele>
        <time>2020-06-18T11:08:36Z</time>
      </trkpt>
      <trkpt lat="49.90841" lon="1.06336">
        <ele>79.9</ele>
        <time>2020-06-18T11:08:37Z</time>
      </trkpt>
      <trkpt lat="49.90839" lon="1.0634">
        <ele>80.1</ele>
        <time>2020-06-18T11:08:38Z</time>
      </trkpt>
      <trkpt lat="49.90836" lon="1.06343">
        <ele>80.3</ele>
        <time>2020-06-18T11:08:39Z</time>
      </trkpt>
      <trkpt lat="49.90834" lon="1.06348">
        <ele>80.5</ele>
        <time>2020-06-18T11:08:40Z</time>
      </trkpt>
      <trkpt lat="49.90832" lon="1.06351">
        <ele>80.6</ele>
        <time>2020-06-18T11:08:41Z</time>
      </trkpt>
      <trkpt lat="49.9083" lon="1.06354">
        <ele>80.8</ele>
        <time>2020-06-18T11:08:42Z</time>
      </trkpt>
      <trkpt lat="49.90828" lon="1.06359">
        <ele>81</ele>
        <time>2020-06-18T11:08:43Z</time>
      </trkpt>
      <trkpt lat="49.90827" lon="1.06361">
        <ele>81</ele>
        <time>2020-06-18T11:08:44Z</time>
      </trkpt>
      <trkpt lat="49.90826" lon="1.06365">
        <ele>81.2</ele>
        <time>2020-06-18T11:08:45Z</time>
      </trkpt>
      <trkpt lat="49.90826" lon="1.0637">
        <ele>81.3</ele>
        <time>2020-06-18T11:08:46Z</time>
      </trkpt>
      <trkpt lat="49.90825" lon="1.06374">
        <ele>81.5</ele>
        <time>2020-06-18T11:08:47Z</time>
      </trkpt>
      <trkpt lat="49.90825" lon="1.06379">
        <ele>81.6</ele>
        <time>2020-06-18T11:08:48Z</time>
      </trkpt>
      <trkpt lat="49.90825" lon="1.06384">
        <ele>81.8</ele>
        <time>2020-06-18T11:08:49Z</time>
      </trkpt>
      <trkpt lat="49.90825" lon="1.06389">
        <ele>81.9</ele>
        <time>2020-06-18T11:08:50Z</time>
      </trkpt>
      <trkpt lat="49.90823" lon="1.06395">
        <ele>82.1</ele>
        <time>2020-06-18T11:08:51Z</time>
      </trkpt>
      <trkpt lat="49.90823" lon="1.06402">
        <ele>82.1</ele>
        <time>2020-06-18T11:08:52Z</time>
      </trkpt>
      <trkpt lat="49.90824" lon="1.06404">
        <ele>82.1</ele>
        <time>2020-06-18T11:08:53Z</time>
      </trkpt>
      <trkpt lat="49.90825" lon="1.06409">
        <ele>82.1</ele>
        <time>2020-06-18T11:08:54Z</time>
      </trkpt>
      <trkpt lat="49.90826" lon="1.06414">
        <ele>82</ele>
        <time>2020-06-18T11:08:55Z</time>
      </trkpt>
      <trkpt lat="49.90828" lon="1.06418">
        <ele>81.9</ele>
        <time>2020-06-18T11:08:56Z</time>
      </trkpt>
      <trkpt lat="49.90829" lon="1.06423">
        <ele>81.9</ele>
        <time>2020-06-18T11:08:57Z</time>
      </trkpt>
      <trkpt lat="49.90831" lon="1.06426">
        <ele>81.8</ele>
        <time>2020-06-18T11:08:58Z</time>
      </trkpt>
      <trkpt lat="49.90834" lon="1.06429">
        <ele>81.7</ele>
        <time>2020-06-18T11:08:59Z</time>
      </trkpt>
      <trkpt lat="49.90836" lon="1.06433">
        <ele>81.6</ele>
        <time>2020-06-18T11:09:00Z</time>
      </trkpt>
      <trkpt lat="49.90839" lon="1.06438">
        <ele>81.5</ele>
        <time>2020-06-18T11:09:01Z</time>
      </trkpt>
      <trkpt lat="49.90841" lon="1.06442">
        <ele>81.4</ele>
        <time>2020-06-18T11:09:02Z</time>
      </trkpt>
      <trkpt lat="49.90844" lon="1.06446">
        <ele>81.3</ele>
        <time>2020-06-18T11:09:03Z</time>
      </trkpt>
      <trkpt lat="49.90847" lon="1.06451">
        <ele>81.2</ele>
        <time>2020-06-18T11:09:04Z</time>
      </trkpt>
      <trkpt lat="49.90849" lon="1.06456">
        <ele>81.2</ele>
        <time>2020-06-18T11:09:05Z</time>
      </trkpt>
      <trkpt lat="49.90852" lon="1.06461">
        <ele>81.1</ele>
        <time>2020-06-18T11:09:06Z</time>
      </trkpt>
      <trkpt lat="49.90855" lon="1.06466">
        <ele>81</ele>
        <time>2020-06-18T11:09:07Z</time>
      </trkpt>
      <trkpt lat="49.90858" lon="1.0647">
        <ele>80.9</ele>
        <time>2020-06-18T11:09:08Z</time>
      </trkpt>
      <trkpt lat="49.90861" lon="1.06475">
        <ele>80.8</ele>
        <time>2020-06-18T11:09:09Z</time>
      </trkpt>
      <trkpt lat="49.90863" lon="1.0648">
        <ele>80.8</ele>
        <time>2020-06-18T11:09:10Z</time>
      </trkpt>
      <trkpt lat="49.90866" lon="1.06484">
        <ele>80.7</ele>
        <time>2020-06-18T11:09:11Z</time>
      </trkpt>
      <trkpt lat="49.90868" lon="1.06489">
        <ele>80.6</ele>
        <time>2020-06-18T11:09:12Z</time>
      </trkpt>
      <trkpt lat="49.90871" lon="1.06494">
        <ele>80.6</ele>
        <time>2020-06-18T11:09:13Z</time>
      </trkpt>
      <trkpt lat="49.90874" lon="1.06499">
        <ele>80.5</ele>
        <time>2020-06-18T11:09:14Z</time>
      </trkpt>
      <trkpt lat="49.90877" lon="1.06504">
        <ele>80.4</ele>
        <time>2020-06-18T11:09:15Z</time>
      </trkpt>
      <trkpt lat="49.9088" lon="1.06508">
        <ele>80.4</ele>
        <time>2020-06-18T11:09:16Z</time>
      </trkpt>
      <trkpt lat="49.90882" lon="1.06512">
        <ele>80.3</ele>
        <time>2020-06-18T11:09:17Z</time>
      </trkpt>
      <trkpt lat="49.90885" lon="1.06516">
        <ele>80.3</ele>
        <time>2020-06-18T11:09:18Z</time>
      </trkpt>
      <trkpt lat="49.90887" lon="1.06521">
        <ele>80.2</ele>
        <time>2020-06-18T11:09:19Z</time>
      </trkpt>
      <trkpt lat="49.90891" lon="1.06525">
        <ele>80.2</ele>
        <time>2020-06-18T11:09:20Z</time>
      </trkpt>
      <trkpt lat="49.90894" lon="1.0653">
        <ele>80.1</ele>
        <time>2020-06-18T11:09:21Z</time>
      </trkpt>
      <trkpt lat="49.90898" lon="1.06535">
        <ele>80</ele>
        <time>2020-06-18T11:09:22Z</time>
      </trkpt>
      <trkpt lat="49.90901" lon="1.06541">
        <ele>79.9</ele>
        <time>2020-06-18T11:09:23Z</time>
      </trkpt>
      <trkpt lat="49.90905" lon="1.06545">
        <ele>79.8</ele>
        <time>2020-06-18T11:09:24Z</time>
      </trkpt>
      <trkpt lat="49.90909" lon="1.06551">
        <ele>79.7</ele>
        <time>2020-06-18T11:09:25Z</time>
      </trkpt>
      <trkpt lat="49.90913" lon="1.06557">
        <ele>79.5</ele>
        <time>2020-06-18T11:09:26Z</time>
      </trkpt>
      <trkpt lat="49.90918" lon="1.06562">
        <ele>79.4</ele>
        <time>2020-06-18T11:09:27Z</time>
      </trkpt>
      <trkpt lat="49.90922" lon="1.06567">
        <ele>79.3</ele>
        <time>2020-06-18T11:09:28Z</time>
      </trkpt>
      <trkpt lat="49.90926" lon="1.06574">
        <ele>79.1</ele>
        <time>2020-06-18T11:09:29Z</time>
      </trkpt>
      <trkpt lat="49.90931" lon="1.06577">
        <ele>79</ele>
        <time>2020-06-18T11:09:30Z</time>
      </trkpt>
      <trkpt lat="49.90935" lon="1.06583">
        <ele>79</ele>
        <time>2020-06-18T11:09:31Z</time>
      </trkpt>
      <trkpt lat="49.90939" lon="1.06589">
        <ele>78.9</ele>
        <time>2020-06-18T11:09:32Z</time>
      </trkpt>
      <trkpt lat="49.90943" lon="1.06594">
        <ele>78.8</ele>
        <time>2020-06-18T11:09:33Z</time>
      </trkpt>
      <trkpt lat="49.90947" lon="1.066">
        <ele>78.7</ele>
        <time>2020-06-18T11:09:34Z</time>
      </trkpt>
      <trkpt lat="49.9095" lon="1.06606">
        <ele>78.6</ele>
        <time>2020-06-18T11:09:35Z</time>
      </trkpt>
      <trkpt lat="49.90954" lon="1.06611">
        <ele>78.5</ele>
        <time>2020-06-18T11:09:36Z</time>
      </trkpt>
      <trkpt lat="49.90958" lon="1.06616">
        <ele>78.4</ele>
        <time>2020-06-18T11:09:37Z</time>
      </trkpt>
      <trkpt lat="49.90962" lon="1.06621">
        <ele>78.2</ele>
        <time>2020-06-18T11:09:38Z</time>
      </trkpt>
      <trkpt lat="49.90965" lon="1.06628">
        <ele>78.1</ele>
        <time>2020-06-18T11:09:39Z</time>
      </trkpt>
      <trkpt lat="49.90968" lon="1.06635">
        <ele>78</ele>
        <time>2020-06-18T11:09:40Z</time>
      </trkpt>
      <trkpt lat="49.90972" lon="1.06641">
        <ele>77.8</ele>
        <time>2020-06-18T11:09:41Z</time>
      </trkpt>
      <trkpt lat="49.90976" lon="1.06647">
        <ele>77.7</ele>
        <time>2020-06-18T11:09:42Z</time>
      </trkpt>
      <trkpt lat="49.90979" lon="1.06653">
        <ele>77.5</ele>
        <time>2020-06-18T11:09:43Z</time>
      </trkpt>
      <trkpt lat="49.90982" lon="1.06659">
        <ele>77.4</ele>
        <time>2020-06-18T11:09:44Z</time>
      </trkpt>
      <trkpt lat="49.90986" lon="1.06665">
        <ele>77.4</ele>
        <time>2020-06-18T11:09:45Z</time>
      </trkpt>
      <trkpt lat="49.9099" lon="1.06672">
        <ele>77.3</ele>
        <time>2020-06-18T11:09:46Z</time>
      </trkpt>
      <trkpt lat="49.90994" lon="1.06678">
        <ele>77.2</ele>
        <time>2020-06-18T11:09:47Z</time>
      </trkpt>
      <trkpt lat="49.90997" lon="1.06685">
        <ele>77.1</ele>
        <time>2020-06-18T11:09:48Z</time>
      </trkpt>
      <trkpt lat="49.91001" lon="1.06691">
        <ele>77</ele>
        <time>2020-06-18T11:09:49Z</time>
      </trkpt>
      <trkpt lat="49.91004" lon="1.06697">
        <ele>76.9</ele>
        <time>2020-06-18T11:09:50Z</time>
      </trkpt>
      <trkpt lat="49.91008" lon="1.06704">
        <ele>76.8</ele>
        <time>2020-06-18T11:09:51Z</time>
      </trkpt>
      <trkpt lat="49.91012" lon="1.06711">
        <ele>76.6</ele>
        <time>2020-06-18T11:09:52Z</time>
      </trkpt>
      <trkpt lat="49.91016" lon="1.06717">
        <ele>76.5</ele>
        <time>2020-06-18T11:09:53Z</time>
      </trkpt>
      <trkpt lat="49.91019" lon="1.06722">
        <ele>76.5</ele>
        <time>2020-06-18T11:09:54Z</time>
      </trkpt>
      <trkpt lat="49.91023" lon="1.06728">
        <ele>76.4</ele>
        <time>2020-06-18T11:09:55Z</time>
      </trkpt>
      <trkpt lat="49.91027" lon="1.06733">
        <ele>76.4</ele>
        <time>2020-06-18T11:09:56Z</time>
      </trkpt>
      <trkpt lat="49.91031" lon="1.06738">
        <ele>76.4</ele>
        <time>2020-06-18T11:09:57Z</time>
      </trkpt>
      <trkpt lat="49.91035" lon="1.06743">
        <ele>76.3</ele>
        <time>2020-06-18T11:09:58Z</time>
      </trkpt>
      <trkpt lat="49.91039" lon="1.06749">
        <ele>76.2</ele>
        <time>2020-06-18T11:09:59Z</time>
      </trkpt>
      <trkpt lat="49.91043" lon="1.06755">
        <ele>76</ele>
        <time>2020-06-18T11:10:00Z</time>
      </trkpt>
      <trkpt lat="49.91048" lon="1.06761">
        <ele>75.9</ele>
        <time>2020-06-18T11:10:01Z</time>
      </trkpt>
      <trkpt lat="49.91052" lon="1.06768">
        <ele>75.8</ele>
        <time>2020-06-18T11:10:02Z</time>
      </trkpt>
      <trkpt lat="49.91056" lon="1.06774">
        <ele>75.7</ele>
        <time>2020-06-18T11:10:03Z</time>
      </trkpt>
      <trkpt lat="49.9106" lon="1.0678">
        <ele>75.6</ele>
        <time>2020-06-18T11:10:04Z</time>
      </trkpt>
      <trkpt lat="49.91064" lon="1.06786">
        <ele>75.5</ele>
        <time>2020-06-18T11:10:05Z</time>
      </trkpt>
      <trkpt lat="49.91068" lon="1.0679">
        <ele>75.4</ele>
        <time>2020-06-18T11:10:06Z</time>
      </trkpt>
      <trkpt lat="49.91071" lon="1.06796">
        <ele>75.4</ele>
        <time>2020-06-18T11:10:07Z</time>
      </trkpt>
      <trkpt lat="49.91076" lon="1.06801">
        <ele>75.3</ele>
        <time>2020-06-18T11:10:08Z</time>
      </trkpt>
      <trkpt lat="49.91081" lon="1.06807">
        <ele>75.2</ele>
        <time>2020-06-18T11:10:09Z</time>
      </trkpt>
      <trkpt lat="49.91086" lon="1.06813">
        <ele>75.1</ele>
        <time>2020-06-18T11:10:10Z</time>
      </trkpt>
      <trkpt lat="49.9109" lon="1.06818">
        <ele>75</ele>
        <time>2020-06-18T11:10:11Z</time>
      </trkpt>
      <trkpt lat="49.91094" lon="1.06823">
        <ele>74.9</ele>
        <time>2020-06-18T11:10:12Z</time>
      </trkpt>
      <trkpt lat="49.91097" lon="1.06829">
        <ele>74.8</ele>
        <time>2020-06-18T11:10:13Z</time>
      </trkpt>
      <trkpt lat="49.91101" lon="1.06835">
        <ele>74.8</ele>
        <time>2020-06-18T11:10:14Z</time>
      </trkpt>
      <trkpt lat="49.91103" lon="1.0684">
        <ele>74.7</ele>
        <time>2020-06-18T11:10:15Z</time>
      </trkpt>
      <trkpt lat="49.91107" lon="1.06846">
        <ele>74.6</ele>
        <time>2020-06-18T11:10:16Z</time>
      </trkpt>
      <trkpt lat="49.9111" lon="1.06851">
        <ele>74.6</ele>
        <time>2020-06-18T11:10:17Z</time>
      </trkpt>
      <trkpt lat="49.91113" lon="1.06855">
        <ele>74.5</ele>
        <time>2020-06-18T11:10:18Z</time>
      </trkpt>
      <trkpt lat="49.91117" lon="1.06858">
        <ele>74.4</ele>
        <time>2020-06-18T11:10:19Z</time>
      </trkpt>
      <trkpt lat="49.9112" lon="1.06861">
        <ele>74.3</ele>
        <time>2020-06-18T11:10:20Z</time>
      </trkpt>
      <trkpt lat="49.91123" lon="1.06865">
        <ele>74.2</ele>
        <time>2020-06-18T11:10:21Z</time>
      </trkpt>
      <trkpt lat="49.91127" lon="1.06868">
        <ele>74.1</ele>
        <time>2020-06-18T11:10:22Z</time>
      </trkpt>
      <trkpt lat="49.9113" lon="1.06873">
        <ele>74</ele>
        <time>2020-06-18T11:10:23Z</time>
      </trkpt>
      <trkpt lat="49.91134" lon="1.06878">
        <ele>73.9</ele>
        <time>2020-06-18T11:10:24Z</time>
      </trkpt>
      <trkpt lat="49.91136" lon="1.06883">
        <ele>73.7</ele>
        <time>2020-06-18T11:10:25Z</time>
      </trkpt>
      <trkpt lat="49.91139" lon="1.06888">
        <ele>73.6</ele>
        <time>2020-06-18T11:10:26Z</time>
      </trkpt>
      <trkpt lat="49.9114" lon="1.06895">
        <ele>73.4</ele>
        <time>2020-06-18T11:10:27Z</time>
      </trkpt>
      <trkpt lat="49.91143" lon="1.06902">
        <ele>73.3</ele>
        <time>2020-06-18T11:10:28Z</time>
      </trkpt>
      <trkpt lat="49.91145" lon="1.06907">
        <ele>73.1</ele>
        <time>2020-06-18T11:10:29Z</time>
      </trkpt>
      <trkpt lat="49.91148" lon="1.06912">
        <ele>73</ele>
        <time>2020-06-18T11:10:30Z</time>
      </trkpt>
      <trkpt lat="49.91149" lon="1.06918">
        <ele>72.9</ele>
        <time>2020-06-18T11:10:31Z</time>
      </trkpt>
      <trkpt lat="49.91152" lon="1.06924">
        <ele>72.7</ele>
        <time>2020-06-18T11:10:32Z</time>
      </trkpt>
      <trkpt lat="49.91155" lon="1.06929">
        <ele>72.6</ele>
        <time>2020-06-18T11:10:33Z</time>
      </trkpt>
      <trkpt lat="49.91157" lon="1.06932">
        <ele>72.5</ele>
        <time>2020-06-18T11:10:34Z</time>
      </trkpt>
      <trkpt lat="49.91159" lon="1.06936">
        <ele>72.4</ele>
        <time>2020-06-18T11:10:35Z</time>
      </trkpt>
      <trkpt lat="49.91162" lon="1.06942">
        <ele>72.3</ele>
        <time>2020-06-18T11:10:36Z</time>
      </trkpt>
      <trkpt lat="49.91165" lon="1.06948">
        <ele>72.1</ele>
        <time>2020-06-18T11:10:37Z</time>
      </trkpt>
      <trkpt lat="49.91168" lon="1.06954">
        <ele>71.9</ele>
        <time>2020-06-18T11:10:38Z</time>
      </trkpt>
      <trkpt lat="49.91172" lon="1.0696">
        <ele>71.8</ele>
        <time>2020-06-18T11:10:39Z</time>
      </trkpt>
      <trkpt lat="49.91175" lon="1.06967">
        <ele>71.6</ele>
        <time>2020-06-18T11:10:40Z</time>
      </trkpt>
      <trkpt lat="49.91178" lon="1.06971">
        <ele>71.5</ele>
        <time>2020-06-18T11:10:41Z</time>
      </trkpt>
      <trkpt lat="49.91182" lon="1.06976">
        <ele>71.4</ele>
        <time>2020-06-18T11:10:42Z</time>
      </trkpt>
      <trkpt lat="49.91185" lon="1.06981">
        <ele>71.2</ele>
        <time>2020-06-18T11:10:43Z</time>
      </trkpt>
      <trkpt lat="49.91188" lon="1.06985">
        <ele>71.1</ele>
        <time>2020-06-18T11:10:44Z</time>
      </trkpt>
      <trkpt lat="49.91191" lon="1.06991">
        <ele>71</ele>
        <time>2020-06-18T11:10:45Z</time>
      </trkpt>
      <trkpt lat="49.91194" lon="1.06995">
        <ele>70.9</ele>
        <time>2020-06-18T11:10:46Z</time>
      </trkpt>
      <trkpt lat="49.91197" lon="1.06998">
        <ele>70.8</ele>
        <time>2020-06-18T11:10:47Z</time>
      </trkpt>
      <trkpt lat="49.91198" lon="1.07003">
        <ele>70.7</ele>
        <time>2020-06-18T11:10:48Z</time>
      </trkpt>
      <trkpt lat="49.91199" lon="1.07005">
        <ele>70.7</ele>
        <time>2020-06-18T11:10:49Z</time>
      </trkpt>
      <trkpt lat="49.91199" lon="1.07005">
        <ele>70.7</ele>
        <time>2020-06-18T11:10:50Z</time>
      </trkpt>
      <trkpt lat="49.91199" lon="1.07006">
        <ele>70.7</ele>
        <time>2020-06-18T11:10:51Z</time>
      </trkpt>
      <trkpt lat="49.912" lon="1.07007">
        <ele>70.7</ele>
        <time>2020-06-18T11:10:52Z</time>
      </trkpt>
      <trkpt lat="49.912" lon="1.07007">
        <ele>70.7</ele>
        <time>2020-06-18T11:10:53Z</time>
      </trkpt>
      <trkpt lat="49.912" lon="1.07008">
        <ele>70.6</ele>
        <time>2020-06-18T11:10:54Z</time>
      </trkpt>
      <trkpt lat="49.91201" lon="1.07009">
        <ele>70.6</ele>
        <time>2020-06-18T11:10:55Z</time>
      </trkpt>
      <trkpt lat="49.91201" lon="1.0701">
        <ele>70.6</ele>
        <time>2020-06-18T11:10:56Z</time>
      </trkpt>
      <trkpt lat="49.91201" lon="1.0701">
        <ele>70.6</ele>
        <time>2020-06-18T11:10:57Z</time>
      </trkpt>
      <trkpt lat="49.91202" lon="1.07011">
        <ele>70.6</ele>
        <time>2020-06-18T11:10:58Z</time>
      </trkpt>
      <trkpt lat="49.91202" lon="1.07012">
        <ele>70.6</ele>
        <time>2020-06-18T11:10:59Z</time>
      </trkpt>
      <trkpt lat="49.91202" lon="1.07012">
        <ele>70.6</ele>
        <time>2020-06-18T11:11:00Z</time>
      </trkpt>
      <trkpt lat="49.91203" lon="1.07013">
        <ele>70.6</ele>
        <time>2020-06-18T11:11:01Z</time>
      </trkpt>
      <trkpt lat="49.91203" lon="1.07014">
        <ele>70.5</ele>
        <time>2020-06-18T11:15:34Z</time>
      </trkpt>
      <trkpt lat="49.91203" lon="1.07015">
        <ele>70.5</ele>
        <time>2020-06-18T11:15:35Z</time>
      </trkpt>
      <trkpt lat="49.91204" lon="1.07015">
        <ele>70.5</ele>
        <time>2020-06-18T11:15:36Z</time>
      </trkpt>
      <trkpt lat="49.91205" lon="1.07016">
        <ele>70.5</ele>
        <time>2020-06-18T11:15:37Z</time>
      </trkpt>
      <trkpt lat="49.91206" lon="1.07018">
        <ele>70.4</ele>
        <time>2020-06-18T11:15:38Z</time>
      </trkpt>
      <trkpt lat="49.91209" lon="1.07022">
        <ele>70.3</ele>
        <time>2020-06-18T11:15:39Z</time>
      </trkpt>
      <trkpt lat="49.9121" lon="1.07024">
        <ele>70.2</ele>
        <time>2020-06-18T11:15:40Z</time>
      </trkpt>
      <trkpt lat="49.91214" lon="1.07028">
        <ele>70.2</ele>
        <time>2020-06-18T11:15:41Z</time>
      </trkpt>
      <trkpt lat="49.91216" lon="1.07029">
        <ele>70.2</ele>
        <time>2020-06-18T11:15:42Z</time>
      </trkpt>
      <trkpt lat="49.9122" lon="1.07031">
        <ele>70.1</ele>
        <time>2020-06-18T11:15:43Z</time>
      </trkpt>
      <trkpt lat="49.91223" lon="1.07035">
        <ele>70.1</ele>
        <time>2020-06-18T11:15:44Z</time>
      </trkpt>
      <trkpt lat="49.91226" lon="1.07038">
        <ele>70</ele>
        <time>2020-06-18T11:15:45Z</time>
      </trkpt>
      <trkpt lat="49.91229" lon="1.07042">
        <ele>69.9</ele>
        <time>2020-06-18T11:15:46Z</time>
      </trkpt>
      <trkpt lat="49.91232" lon="1.07047">
        <ele>69.9</ele>
        <time>2020-06-18T11:15:47Z</time>
      </trkpt>
      <trkpt lat="49.91236" lon="1.07051">
        <ele>69.8</ele>
        <time>2020-06-18T11:15:48Z</time>
      </trkpt>
      <trkpt lat="49.9124" lon="1.07056">
        <ele>69.6</ele>
        <time>2020-06-18T11:15:49Z</time>
      </trkpt>
      <trkpt lat="49.91244" lon="1.07063">
        <ele>69.5</ele>
        <time>2020-06-18T11:15:50Z</time>
      </trkpt>
      <trkpt lat="49.91247" lon="1.07068">
        <ele>69.4</ele>
        <time>2020-06-18T11:15:51Z</time>
      </trkpt>
      <trkpt lat="49.9125" lon="1.07073">
        <ele>69.4</ele>
        <time>2020-06-18T11:15:52Z</time>
      </trkpt>
      <trkpt lat="49.91253" lon="1.07078">
        <ele>69.3</ele>
        <time>2020-06-18T11:15:53Z</time>
      </trkpt>
      <trkpt lat="49.91257" lon="1.07083">
        <ele>69.2</ele>
        <time>2020-06-18T11:15:54Z</time>
      </trkpt>
      <trkpt lat="49.91261" lon="1.07088">
        <ele>69.1</ele>
        <time>2020-06-18T11:15:55Z</time>
      </trkpt>
      <trkpt lat="49.91264" lon="1.07094">
        <ele>68.9</ele>
        <time>2020-06-18T11:15:56Z</time>
      </trkpt>
      <trkpt lat="49.91268" lon="1.07101">
        <ele>68.8</ele>
        <time>2020-06-18T11:15:57Z</time>
      </trkpt>
      <trkpt lat="49.91271" lon="1.07106">
        <ele>68.7</ele>
        <time>2020-06-18T11:15:58Z</time>
      </trkpt>
      <trkpt lat="49.91275" lon="1.07112">
        <ele>68.5</ele>
        <time>2020-06-18T11:15:59Z</time>
      </trkpt>
      <trkpt lat="49.91278" lon="1.07119">
        <ele>68.4</ele>
        <time>2020-06-18T11:16:00Z</time>
      </trkpt>
      <trkpt lat="49.91282" lon="1.07125">
        <ele>68.2</ele>
        <time>2020-06-18T11:16:01Z</time>
      </trkpt>
      <trkpt lat="49.91286" lon="1.07132">
        <ele>68.1</ele>
        <time>2020-06-18T11:16:02Z</time>
      </trkpt>
      <trkpt lat="49.91291" lon="1.07138">
        <ele>67.9</ele>
        <time>2020-06-18T11:16:03Z</time>
      </trkpt>
      <trkpt lat="49.91294" lon="1.07145">
        <ele>67.8</ele>
        <time>2020-06-18T11:16:04Z</time>
      </trkpt>
      <trkpt lat="49.91298" lon="1.07151">
        <ele>67.6</ele>
        <time>2020-06-18T11:16:05Z</time>
      </trkpt>
      <trkpt lat="49.91301" lon="1.07157">
        <ele>67.5</ele>
        <time>2020-06-18T11:16:06Z</time>
      </trkpt>
      <trkpt lat="49.91304" lon="1.07163">
        <ele>67.4</ele>
        <time>2020-06-18T11:16:07Z</time>
      </trkpt>
      <trkpt lat="49.91308" lon="1.07169">
        <ele>67.3</ele>
        <time>2020-06-18T11:16:08Z</time>
      </trkpt>
      <trkpt lat="49.91313" lon="1.07177">
        <ele>67.2</ele>
        <time>2020-06-18T11:16:09Z</time>
      </trkpt>
      <trkpt lat="49.91317" lon="1.07184">
        <ele>67.1</ele>
        <time>2020-06-18T11:16:10Z</time>
      </trkpt>
      <trkpt lat="49.91321" lon="1.0719">
        <ele>67</ele>
        <time>2020-06-18T11:16:11Z</time>
      </trkpt>
      <trkpt lat="49.91325" lon="1.07197">
        <ele>66.9</ele>
        <time>2020-06-18T11:16:12Z</time>
      </trkpt>
      <trkpt lat="49.91329" lon="1.07203">
        <ele>66.8</ele>
        <time>2020-06-18T11:16:13Z</time>
      </trkpt>
      <trkpt lat="49.91333" lon="1.07209">
        <ele>66.7</ele>
        <time>2020-06-18T11:16:14Z</time>
      </trkpt>
      <trkpt lat="49.91338" lon="1.07214">
        <ele>66.5</ele>
        <time>2020-06-18T11:16:15Z</time>
      </trkpt>
      <trkpt lat="49.91343" lon="1.07219">
        <ele>66.1</ele>
        <time>2020-06-18T11:16:16Z</time>
      </trkpt>
      <trkpt lat="49.91347" lon="1.07225">
        <ele>65.9</ele>
        <time>2020-06-18T11:16:17Z</time>
      </trkpt>
      <trkpt lat="49.91351" lon="1.07231">
        <ele>65.7</ele>
        <time>2020-06-18T11:16:18Z</time>
      </trkpt>
      <trkpt lat="49.91355" lon="1.07238">
        <ele>65.6</ele>
        <time>2020-06-18T11:16:19Z</time>
      </trkpt>
      <trkpt lat="49.91358" lon="1.07244">
        <ele>65.4</ele>
        <time>2020-06-18T11:16:20Z</time>
      </trkpt>
      <trkpt lat="49.91362" lon="1.0725">
        <ele>65.2</ele>
        <time>2020-06-18T11:16:21Z</time>
      </trkpt>
      <trkpt lat="49.91366" lon="1.07256">
        <ele>65</ele>
        <time>2020-06-18T11:16:22Z</time>
      </trkpt>
      <trkpt lat="49.91371" lon="1.07262">
        <ele>64.8</ele>
        <time>2020-06-18T11:16:23Z</time>
      </trkpt>
      <trkpt lat="49.91376" lon="1.07268">
        <ele>64.6</ele>
        <time>2020-06-18T11:16:24Z</time>
      </trkpt>
      <trkpt lat="49.9138" lon="1.07275">
        <ele>64.4</ele>
        <time>2020-06-18T11:16:25Z</time>
      </trkpt>
      <trkpt lat="49.91383" lon="1.07281">
        <ele>64.2</ele>
        <time>2020-06-18T11:16:26Z</time>
      </trkpt>
      <trkpt lat="49.91386" lon="1.07288">
        <ele>64</ele>
        <time>2020-06-18T11:16:27Z</time>
      </trkpt>
      <trkpt lat="49.91389" lon="1.07293">
        <ele>63.8</ele>
        <time>2020-06-18T11:16:28Z</time>
      </trkpt>
      <trkpt lat="49.91392" lon="1.07299">
        <ele>63.7</ele>
        <time>2020-06-18T11:16:29Z</time>
      </trkpt>
      <trkpt lat="49.91395" lon="1.07306">
        <ele>63.5</ele>
        <time>2020-06-18T11:16:30Z</time>
      </trkpt>
      <trkpt lat="49.91399" lon="1.07311">
        <ele>63.4</ele>
        <time>2020-06-18T11:16:31Z</time>
      </trkpt>
      <trkpt lat="49.91402" lon="1.07317">
        <ele>63.2</ele>
        <time>2020-06-18T11:16:32Z</time>
      </trkpt>
      <trkpt lat="49.91405" lon="1.07321">
        <ele>63.1</ele>
        <time>2020-06-18T11:16:33Z</time>
      </trkpt>
      <trkpt lat="49.91408" lon="1.07325">
        <ele>63</ele>
        <time>2020-06-18T11:16:34Z</time>
      </trkpt>
      <trkpt lat="49.91412" lon="1.07329">
        <ele>62.8</ele>
        <time>2020-06-18T11:16:35Z</time>
      </trkpt>
      <trkpt lat="49.91415" lon="1.07333">
        <ele>62.6</ele>
        <time>2020-06-18T11:16:36Z</time>
      </trkpt>
      <trkpt lat="49.91419" lon="1.07337">
        <ele>62.4</ele>
        <time>2020-06-18T11:16:37Z</time>
      </trkpt>
      <trkpt lat="49.91422" lon="1.07341">
        <ele>62.3</ele>
        <time>2020-06-18T11:16:38Z</time>
      </trkpt>
      <trkpt lat="49.91426" lon="1.07348">
        <ele>62</ele>
        <time>2020-06-18T11:16:39Z</time>
      </trkpt>
      <trkpt lat="49.91429" lon="1.07355">
        <ele>61.8</ele>
        <time>2020-06-18T11:16:40Z</time>
      </trkpt>
      <trkpt lat="49.91433" lon="1.07363">
        <ele>61.5</ele>
        <time>2020-06-18T11:16:41Z</time>
      </trkpt>
      <trkpt lat="49.91437" lon="1.07369">
        <ele>61.3</ele>
        <time>2020-06-18T11:16:42Z</time>
      </trkpt>
      <trkpt lat="49.9144" lon="1.07375">
        <ele>61.1</ele>
        <time>2020-06-18T11:16:43Z</time>
      </trkpt>
      <trkpt lat="49.91444" lon="1.07382">
        <ele>60.9</ele>
        <time>2020-06-18T11:16:44Z</time>
      </trkpt>
      <trkpt lat="49.91448" lon="1.07387">
        <ele>60.7</ele>
        <time>2020-06-18T11:16:45Z</time>
      </trkpt>
      <trkpt lat="49.91452" lon="1.07394">
        <ele>60.5</ele>
        <time>2020-06-18T11:16:46Z</time>
      </trkpt>
      <trkpt lat="49.91456" lon="1.074">
        <ele>60.4</ele>
        <time>2020-06-18T11:16:47Z</time>
      </trkpt>
      <trkpt lat="49.9146" lon="1.07405">
        <ele>60.2</ele>
        <time>2020-06-18T11:16:48Z</time>
      </trkpt>
      <trkpt lat="49.91464" lon="1.0741">
        <ele>60</ele>
        <time>2020-06-18T11:16:49Z</time>
      </trkpt>
      <trkpt lat="49.91468" lon="1.07416">
        <ele>59.9</ele>
        <time>2020-06-18T11:16:50Z</time>
      </trkpt>
      <trkpt lat="49.91471" lon="1.07424">
        <ele>59.7</ele>
        <time>2020-06-18T11:16:51Z</time>
      </trkpt>
      <trkpt lat="49.91475" lon="1.07429">
        <ele>59.6</ele>
        <time>2020-06-18T11:16:52Z</time>
      </trkpt>
      <trkpt lat="49.91478" lon="1.07434">
        <ele>59.4</ele>
        <time>2020-06-18T11:16:53Z</time>
      </trkpt>
      <trkpt lat="49.9148" lon="1.0744">
        <ele>59.3</ele>
        <time>2020-06-18T11:16:54Z</time>
      </trkpt>
      <trkpt lat="49.91481" lon="1.07443">
        <ele>59.2</ele>
        <time>2020-06-18T11:16:55Z</time>
      </trkpt>
      <trkpt lat="49.91484" lon="1.07447">
        <ele>59.2</ele>
        <time>2020-06-18T11:16:56Z</time>
      </trkpt>
      <trkpt lat="49.91485" lon="1.07448">
        <ele>59.1</ele>
        <time>2020-06-18T11:16:57Z</time>
      </trkpt>
      <trkpt lat="49.91487" lon="1.0745">
        <ele>59.1</ele>
        <time>2020-06-18T11:16:58Z</time>
      </trkpt>
      <trkpt lat="49.91488" lon="1.07451">
        <ele>59.1</ele>
        <time>2020-06-18T11:16:59Z</time>
      </trkpt>
      <trkpt lat="49.91489" lon="1.07451">
        <ele>59</ele>
        <time>2020-06-18T11:17:00Z</time>
      </trkpt>
      <trkpt lat="49.9149" lon="1.0745">
        <ele>59</ele>
        <time>2020-06-18T11:17:01Z</time>
      </trkpt>
      <trkpt lat="49.91491" lon="1.0745">
        <ele>59</ele>
        <time>2020-06-18T11:17:02Z</time>
      </trkpt>
      <trkpt lat="49.91491" lon="1.07449">
        <ele>59</ele>
        <time>2020-06-18T11:17:03Z</time>
      </trkpt>
      <trkpt lat="49.91491" lon="1.07449">
        <ele>59</ele>
        <time>2020-06-18T11:17:04Z</time>
      </trkpt>
      <trkpt lat="49.91491" lon="1.0745">
        <ele>59</ele>
        <time>2020-06-18T11:17:05Z</time>
      </trkpt>
      <trkpt lat="49.91491" lon="1.0745">
        <ele>59</ele>
        <time>2020-06-18T11:17:06Z</time>
      </trkpt>
      <trkpt lat="49.91491" lon="1.0745">
        <ele>59</ele>
        <time>2020-06-18T11:17:07Z</time>
      </trkpt>
      <trkpt lat="49.91491" lon="1.07451">
        <ele>59</ele>
        <time>2020-06-18T11:17:08Z</time>
      </trkpt>
      <trkpt lat="49.91492" lon="1.07452">
        <ele>59</ele>
        <time>2020-06-18T11:17:09Z</time>
      </trkpt>
      <trkpt lat="49.91492" lon="1.07453">
        <ele>58.9</ele>
        <time>2020-06-18T11:17:10Z</time>
      </trkpt>
      <trkpt lat="49.91492" lon="1.07454">
        <ele>58.9</ele>
        <time>2020-06-18T11:17:11Z</time>
      </trkpt>
      <trkpt lat="49.91493" lon="1.07459">
        <ele>58.9</ele>
        <time>2020-06-18T11:17:12Z</time>
      </trkpt>
      <trkpt lat="49.91493" lon="1.0746">
        <ele>58.8</ele>
        <time>2020-06-18T11:17:13Z</time>
      </trkpt>
      <trkpt lat="49.91494" lon="1.07466">
        <ele>58.8</ele>
        <time>2020-06-18T11:17:14Z</time>
      </trkpt>
      <trkpt lat="49.91494" lon="1.07468">
        <ele>58.7</ele>
        <time>2020-06-18T11:17:15Z</time>
      </trkpt>
      <trkpt lat="49.91496" lon="1.07472">
        <ele>58.7</ele>
        <time>2020-06-18T11:17:16Z</time>
      </trkpt>
      <trkpt lat="49.91499" lon="1.07476">
        <ele>58.6</ele>
        <time>2020-06-18T11:17:17Z</time>
      </trkpt>
      <trkpt lat="49.915" lon="1.07477">
        <ele>58.6</ele>
        <time>2020-06-18T11:17:18Z</time>
      </trkpt>
      <trkpt lat="49.91502" lon="1.0748">
        <ele>58.5</ele>
        <time>2020-06-18T11:17:19Z</time>
      </trkpt>
      <trkpt lat="49.91505" lon="1.07482">
        <ele>58.5</ele>
        <time>2020-06-18T11:17:20Z</time>
      </trkpt>
      <trkpt lat="49.91507" lon="1.07482">
        <ele>58.5</ele>
        <time>2020-06-18T11:17:21Z</time>
      </trkpt>
      <trkpt lat="49.9151" lon="1.07482">
        <ele>58.4</ele>
        <time>2020-06-18T11:17:22Z</time>
      </trkpt>
      <trkpt lat="49.91513" lon="1.0748">
        <ele>58.4</ele>
        <time>2020-06-18T11:17:23Z</time>
      </trkpt>
      <trkpt lat="49.91517" lon="1.07477">
        <ele>58.4</ele>
        <time>2020-06-18T11:17:24Z</time>
      </trkpt>
      <trkpt lat="49.91521" lon="1.07476">
        <ele>58.3</ele>
        <time>2020-06-18T11:17:25Z</time>
      </trkpt>
      <trkpt lat="49.91526" lon="1.07475">
        <ele>58.3</ele>
        <time>2020-06-18T11:17:26Z</time>
      </trkpt>
      <trkpt lat="49.91531" lon="1.07473">
        <ele>58.3</ele>
        <time>2020-06-18T11:17:27Z</time>
      </trkpt>
      <trkpt lat="49.91536" lon="1.07472">
        <ele>58.2</ele>
        <time>2020-06-18T11:17:28Z</time>
      </trkpt>
      <trkpt lat="49.91541" lon="1.0747">
        <ele>58.2</ele>
        <time>2020-06-18T11:17:29Z</time>
      </trkpt>
      <trkpt lat="49.91547" lon="1.07468">
        <ele>58.2</ele>
        <time>2020-06-18T11:17:30Z</time>
      </trkpt>
      <trkpt lat="49.91554" lon="1.07467">
        <ele>58.1</ele>
        <time>2020-06-18T11:17:31Z</time>
      </trkpt>
      <trkpt lat="49.91559" lon="1.07466">
        <ele>58.1</ele>
        <time>2020-06-18T11:17:32Z</time>
      </trkpt>
      <trkpt lat="49.91565" lon="1.07466">
        <ele>58.1</ele>
        <time>2020-06-18T11:17:33Z</time>
      </trkpt>
      <trkpt lat="49.9157" lon="1.07465">
        <ele>58</ele>
        <time>2020-06-18T11:17:34Z</time>
      </trkpt>
      <trkpt lat="49.91575" lon="1.07464">
        <ele>58</ele>
        <time>2020-06-18T11:17:35Z</time>
      </trkpt>
      <trkpt lat="49.9158" lon="1.07463">
        <ele>57.9</ele>
        <time>2020-06-18T11:17:36Z</time>
      </trkpt>
      <trkpt lat="49.91585" lon="1.0746">
        <ele>57.9</ele>
        <time>2020-06-18T11:17:37Z</time>
      </trkpt>
      <trkpt lat="49.9159" lon="1.07458">
        <ele>57.8</ele>
        <time>2020-06-18T11:17:38Z</time>
      </trkpt>
      <trkpt lat="49.91595" lon="1.07456">
        <ele>57.7</ele>
        <time>2020-06-18T11:17:39Z</time>
      </trkpt>
      <trkpt lat="49.916" lon="1.07453">
        <ele>57.6</ele>
        <time>2020-06-18T11:17:40Z</time>
      </trkpt>
      <trkpt lat="49.91605" lon="1.07451">
        <ele>57.5</ele>
        <time>2020-06-18T11:17:41Z</time>
      </trkpt>
      <trkpt lat="49.91611" lon="1.0745">
        <ele>57.5</ele>
        <time>2020-06-18T11:17:42Z</time>
      </trkpt>
      <trkpt lat="49.91617" lon="1.07449">
        <ele>57.4</ele>
        <time>2020-06-18T11:17:43Z</time>
      </trkpt>
      <trkpt lat="49.91623" lon="1.07447">
        <ele>57.3</ele>
        <time>2020-06-18T11:17:44Z</time>
      </trkpt>
      <trkpt lat="49.91628" lon="1.07446">
        <ele>57.2</ele>
        <time>2020-06-18T11:17:45Z</time>
      </trkpt>
      <trkpt lat="49.91633" lon="1.07445">
        <ele>57.1</ele>
        <time>2020-06-18T11:17:46Z</time>
      </trkpt>
      <trkpt lat="49.91637" lon="1.07443">
        <ele>57</ele>
        <time>2020-06-18T11:17:47Z</time>
      </trkpt>
      <trkpt lat="49.91642" lon="1.07441">
        <ele>56.9</ele>
        <time>2020-06-18T11:17:48Z</time>
      </trkpt>
      <trkpt lat="49.91647" lon="1.07442">
        <ele>56.8</ele>
        <time>2020-06-18T11:17:49Z</time>
      </trkpt>
      <trkpt lat="49.91651" lon="1.07439">
        <ele>56.7</ele>
        <time>2020-06-18T11:17:50Z</time>
      </trkpt>
      <trkpt lat="49.91656" lon="1.07434">
        <ele>56.5</ele>
        <time>2020-06-18T11:17:51Z</time>
      </trkpt>
      <trkpt lat="49.91661" lon="1.07433">
        <ele>56.1</ele>
        <time>2020-06-18T11:17:52Z</time>
      </trkpt>
      <trkpt lat="49.91667" lon="1.07433">
        <ele>55.7</ele>
        <time>2020-06-18T11:17:53Z</time>
      </trkpt>
      <trkpt lat="49.91673" lon="1.07432">
        <ele>55.3</ele>
        <time>2020-06-18T11:17:54Z</time>
      </trkpt>
      <trkpt lat="49.91679" lon="1.07431">
        <ele>54.9</ele>
        <time>2020-06-18T11:17:55Z</time>
      </trkpt>
      <trkpt lat="49.91685" lon="1.0743">
        <ele>54.4</ele>
        <time>2020-06-18T11:17:56Z</time>
      </trkpt>
      <trkpt lat="49.91691" lon="1.07429">
        <ele>54</ele>
        <time>2020-06-18T11:17:57Z</time>
      </trkpt>
      <trkpt lat="49.91699" lon="1.07428">
        <ele>53.4</ele>
        <time>2020-06-18T11:17:58Z</time>
      </trkpt>
      <trkpt lat="49.91707" lon="1.07426">
        <ele>52.8</ele>
        <time>2020-06-18T11:17:59Z</time>
      </trkpt>
      <trkpt lat="49.91714" lon="1.07425">
        <ele>52.3</ele>
        <time>2020-06-18T11:18:00Z</time>
      </trkpt>
      <trkpt lat="49.91721" lon="1.07423">
        <ele>51.7</ele>
        <time>2020-06-18T11:18:01Z</time>
      </trkpt>
      <trkpt lat="49.91729" lon="1.07422">
        <ele>51</ele>
        <time>2020-06-18T11:18:02Z</time>
      </trkpt>
      <trkpt lat="49.91736" lon="1.07421">
        <ele>50.4</ele>
        <time>2020-06-18T11:18:03Z</time>
      </trkpt>
      <trkpt lat="49.91743" lon="1.07421">
        <ele>49.8</ele>
        <time>2020-06-18T11:18:04Z</time>
      </trkpt>
      <trkpt lat="49.9175" lon="1.07421">
        <ele>49.2</ele>
        <time>2020-06-18T11:18:05Z</time>
      </trkpt>
      <trkpt lat="49.91757" lon="1.07419">
        <ele>48.6</ele>
        <time>2020-06-18T11:18:06Z</time>
      </trkpt>
      <trkpt lat="49.91762" lon="1.0742">
        <ele>48.2</ele>
        <time>2020-06-18T11:18:07Z</time>
      </trkpt>
      <trkpt lat="49.91767" lon="1.0742">
        <ele>47.8</ele>
        <time>2020-06-18T11:18:08Z</time>
      </trkpt>
      <trkpt lat="49.9177" lon="1.0742">
        <ele>47.6</ele>
        <time>2020-06-18T11:18:09Z</time>
      </trkpt>
      <trkpt lat="49.91774" lon="1.07419">
        <ele>47.3</ele>
        <time>2020-06-18T11:18:10Z</time>
      </trkpt>
      <trkpt lat="49.91779" lon="1.07418">
        <ele>47.2</ele>
        <time>2020-06-18T11:18:11Z</time>
      </trkpt>
      <trkpt lat="49.91784" lon="1.07417">
        <ele>46.9</ele>
        <time>2020-06-18T11:18:12Z</time>
      </trkpt>
      <trkpt lat="49.91789" lon="1.07415">
        <ele>46.7</ele>
        <time>2020-06-18T11:18:13Z</time>
      </trkpt>
      <trkpt lat="49.91795" lon="1.07414">
        <ele>46.5</ele>
        <time>2020-06-18T11:18:14Z</time>
      </trkpt>
      <trkpt lat="49.91801" lon="1.07414">
        <ele>45.6</ele>
        <time>2020-06-18T11:18:15Z</time>
      </trkpt>
      <trkpt lat="49.91807" lon="1.07414">
        <ele>45.1</ele>
        <time>2020-06-18T11:18:16Z</time>
      </trkpt>
      <trkpt lat="49.91811" lon="1.07414">
        <ele>44.7</ele>
        <time>2020-06-18T11:18:17Z</time>
      </trkpt>
      <trkpt lat="49.91815" lon="1.07413">
        <ele>44.3</ele>
        <time>2020-06-18T11:18:18Z</time>
      </trkpt>
      <trkpt lat="49.91821" lon="1.07411">
        <ele>43.8</ele>
        <time>2020-06-18T11:18:19Z</time>
      </trkpt>
      <trkpt lat="49.91828" lon="1.07408">
        <ele>43.2</ele>
        <time>2020-06-18T11:18:20Z</time>
      </trkpt>
      <trkpt lat="49.91835" lon="1.07406">
        <ele>42.6</ele>
        <time>2020-06-18T11:18:21Z</time>
      </trkpt>
      <trkpt lat="49.91842" lon="1.07404">
        <ele>41.4</ele>
        <time>2020-06-18T11:18:22Z</time>
      </trkpt>
      <trkpt lat="49.91848" lon="1.07401">
        <ele>41</ele>
        <time>2020-06-18T11:18:23Z</time>
      </trkpt>
      <trkpt lat="49.91855" lon="1.074">
        <ele>40.6</ele>
        <time>2020-06-18T11:18:24Z</time>
      </trkpt>
      <trkpt lat="49.91863" lon="1.07399">
        <ele>40</ele>
        <time>2020-06-18T11:18:25Z</time>
      </trkpt>
      <trkpt lat="49.91873" lon="1.07398">
        <ele>39.4</ele>
        <time>2020-06-18T11:18:26Z</time>
      </trkpt>
      <trkpt lat="49.91882" lon="1.07395">
        <ele>38.8</ele>
        <time>2020-06-18T11:18:27Z</time>
      </trkpt>
      <trkpt lat="49.91891" lon="1.07393">
        <ele>38.2</ele>
        <time>2020-06-18T11:18:28Z</time>
      </trkpt>
      <trkpt lat="49.91901" lon="1.07391">
        <ele>37.6</ele>
        <time>2020-06-18T11:18:29Z</time>
      </trkpt>
      <trkpt lat="49.9191" lon="1.07389">
        <ele>37</ele>
        <time>2020-06-18T11:18:30Z</time>
      </trkpt>
      <trkpt lat="49.91918" lon="1.07386">
        <ele>36.4</ele>
        <time>2020-06-18T11:18:31Z</time>
      </trkpt>
      <trkpt lat="49.91927" lon="1.07384">
        <ele>35.2</ele>
        <time>2020-06-18T11:18:32Z</time>
      </trkpt>
      <trkpt lat="49.91937" lon="1.07382">
        <ele>34.5</ele>
        <time>2020-06-18T11:18:33Z</time>
      </trkpt>
      <trkpt lat="49.91946" lon="1.07379">
        <ele>33.7</ele>
        <time>2020-06-18T11:18:34Z</time>
      </trkpt>
      <trkpt lat="49.91955" lon="1.07377">
        <ele>33</ele>
        <time>2020-06-18T11:18:35Z</time>
      </trkpt>
      <trkpt lat="49.91965" lon="1.07374">
        <ele>32.2</ele>
        <time>2020-06-18T11:18:36Z</time>
      </trkpt>
      <trkpt lat="49.91975" lon="1.07371">
        <ele>31.4</ele>
        <time>2020-06-18T11:18:37Z</time>
      </trkpt>
      <trkpt lat="49.91983" lon="1.07369">
        <ele>30.7</ele>
        <time>2020-06-18T11:18:38Z</time>
      </trkpt>
      <trkpt lat="49.91991" lon="1.07367">
        <ele>30.2</ele>
        <time>2020-06-18T11:18:39Z</time>
      </trkpt>
      <trkpt lat="49.92" lon="1.07367">
        <ele>29.6</ele>
        <time>2020-06-18T11:18:40Z</time>
      </trkpt>
      <trkpt lat="49.92009" lon="1.07366">
        <ele>28.9</ele>
        <time>2020-06-18T11:18:41Z</time>
      </trkpt>
      <trkpt lat="49.92019" lon="1.07365">
        <ele>28.2</ele>
        <time>2020-06-18T11:18:42Z</time>
      </trkpt>
      <trkpt lat="49.92028" lon="1.07365">
        <ele>27.5</ele>
        <time>2020-06-18T11:18:43Z</time>
      </trkpt>
      <trkpt lat="49.92037" lon="1.07364">
        <ele>26.9</ele>
        <time>2020-06-18T11:18:44Z</time>
      </trkpt>
      <trkpt lat="49.92045" lon="1.07363">
        <ele>26.3</ele>
        <time>2020-06-18T11:18:45Z</time>
      </trkpt>
      <trkpt lat="49.92054" lon="1.0736">
        <ele>25.7</ele>
        <time>2020-06-18T11:18:46Z</time>
      </trkpt>
      <trkpt lat="49.92062" lon="1.0736">
        <ele>25.1</ele>
        <time>2020-06-18T11:18:47Z</time>
      </trkpt>
      <trkpt lat="49.9207" lon="1.07359">
        <ele>24.5</ele>
        <time>2020-06-18T11:18:48Z</time>
      </trkpt>
      <trkpt lat="49.92078" lon="1.07359">
        <ele>23.9</ele>
        <time>2020-06-18T11:18:49Z</time>
      </trkpt>
      <trkpt lat="49.92086" lon="1.07358">
        <ele>23.3</ele>
        <time>2020-06-18T11:18:50Z</time>
      </trkpt>
      <trkpt lat="49.92094" lon="1.07359">
        <ele>22.6</ele>
        <time>2020-06-18T11:18:51Z</time>
      </trkpt>
      <trkpt lat="49.92102" lon="1.07359">
        <ele>21.9</ele>
        <time>2020-06-18T11:18:52Z</time>
      </trkpt>
      <trkpt lat="49.9211" lon="1.07359">
        <ele>21.2</ele>
        <time>2020-06-18T11:18:53Z</time>
      </trkpt>
      <trkpt lat="49.92118" lon="1.07358">
        <ele>20.6</ele>
        <time>2020-06-18T11:18:54Z</time>
      </trkpt>
      <trkpt lat="49.92125" lon="1.07358">
        <ele>20.2</ele>
        <time>2020-06-18T11:18:55Z</time>
      </trkpt>
      <trkpt lat="49.92132" lon="1.07353">
        <ele>19.7</ele>
        <time>2020-06-18T11:18:56Z</time>
      </trkpt>
      <trkpt lat="49.92139" lon="1.07353">
        <ele>19.1</ele>
        <time>2020-06-18T11:18:57Z</time>
      </trkpt>
      <trkpt lat="49.92147" lon="1.07353">
        <ele>18.5</ele>
        <time>2020-06-18T11:18:58Z</time>
      </trkpt>
      <trkpt lat="49.92154" lon="1.07352">
        <ele>18</ele>
        <time>2020-06-18T11:18:59Z</time>
      </trkpt>
      <trkpt lat="49.92161" lon="1.07349">
        <ele>17.5</ele>
        <time>2020-06-18T11:19:00Z</time>
      </trkpt>
      <trkpt lat="49.92168" lon="1.07346">
        <ele>17.1</ele>
        <time>2020-06-18T11:19:01Z</time>
      </trkpt>
      <trkpt lat="49.92174" lon="1.07343">
        <ele>16.6</ele>
        <time>2020-06-18T11:19:02Z</time>
      </trkpt>
      <trkpt lat="49.92181" lon="1.07339">
        <ele>16.2</ele>
        <time>2020-06-18T11:19:03Z</time>
      </trkpt>
      <trkpt lat="49.92187" lon="1.07337">
        <ele>15.8</ele>
        <time>2020-06-18T11:19:04Z</time>
      </trkpt>
      <trkpt lat="49.92193" lon="1.07335">
        <ele>15.4</ele>
        <time>2020-06-18T11:19:05Z</time>
      </trkpt>
      <trkpt lat="49.922" lon="1.07335">
        <ele>15</ele>
        <time>2020-06-18T11:19:06Z</time>
      </trkpt>
      <trkpt lat="49.92206" lon="1.07332">
        <ele>14.7</ele>
        <time>2020-06-18T11:19:07Z</time>
      </trkpt>
      <trkpt lat="49.92212" lon="1.07331">
        <ele>14.3</ele>
        <time>2020-06-18T11:19:08Z</time>
      </trkpt>
      <trkpt lat="49.92217" lon="1.0733">
        <ele>14.1</ele>
        <time>2020-06-18T11:19:09Z</time>
      </trkpt>
      <trkpt lat="49.92223" lon="1.0733">
        <ele>13.8</ele>
        <time>2020-06-18T11:19:10Z</time>
      </trkpt>
      <trkpt lat="49.92228" lon="1.07329">
        <ele>13.5</ele>
        <time>2020-06-18T11:19:11Z</time>
      </trkpt>
      <trkpt lat="49.92232" lon="1.07328">
        <ele>13.2</ele>
        <time>2020-06-18T11:19:12Z</time>
      </trkpt>
      <trkpt lat="49.92236" lon="1.07329">
        <ele>13.1</ele>
        <time>2020-06-18T11:19:13Z</time>
      </trkpt>
      <trkpt lat="49.92241" lon="1.0733">
        <ele>13</ele>
        <time>2020-06-18T11:19:14Z</time>
      </trkpt>
      <trkpt lat="49.92244" lon="1.07328">
        <ele>13</ele>
        <time>2020-06-18T11:19:15Z</time>
      </trkpt>
      <trkpt lat="49.92248" lon="1.07327">
        <ele>13</ele>
        <time>2020-06-18T11:19:16Z</time>
      </trkpt>
      <trkpt lat="49.92252" lon="1.07326">
        <ele>12.9</ele>
        <time>2020-06-18T11:19:17Z</time>
      </trkpt>
      <trkpt lat="49.92255" lon="1.07323">
        <ele>12.9</ele>
        <time>2020-06-18T11:19:18Z</time>
      </trkpt>
      <trkpt lat="49.92258" lon="1.07322">
        <ele>12.9</ele>
        <time>2020-06-18T11:19:19Z</time>
      </trkpt>
      <trkpt lat="49.92262" lon="1.0732">
        <ele>12.8</ele>
        <time>2020-06-18T11:19:20Z</time>
      </trkpt>
      <trkpt lat="49.92265" lon="1.07319">
        <ele>12.8</ele>
        <time>2020-06-18T11:19:21Z</time>
      </trkpt>
      <trkpt lat="49.92267" lon="1.07314">
        <ele>12.7</ele>
        <time>2020-06-18T11:19:22Z</time>
      </trkpt>
      <trkpt lat="49.9227" lon="1.07314">
        <ele>12.7</ele>
        <time>2020-06-18T11:19:23Z</time>
      </trkpt>
      <trkpt lat="49.92273" lon="1.07314">
        <ele>12.7</ele>
        <time>2020-06-18T11:19:24Z</time>
      </trkpt>
      <trkpt lat="49.92275" lon="1.07321">
        <ele>12.6</ele>
        <time>2020-06-18T11:19:25Z</time>
      </trkpt>
      <trkpt lat="49.92279" lon="1.07322">
        <ele>12.6</ele>
        <time>2020-06-18T11:19:26Z</time>
      </trkpt>
      <trkpt lat="49.9228" lon="1.07321">
        <ele>12.6</ele>
        <time>2020-06-18T11:19:27Z</time>
      </trkpt>
      <trkpt lat="49.92284" lon="1.07318">
        <ele>12.5</ele>
        <time>2020-06-18T11:19:28Z</time>
      </trkpt>
      <trkpt lat="49.92285" lon="1.07317">
        <ele>12.5</ele>
        <time>2020-06-18T11:19:29Z</time>
      </trkpt>
      <trkpt lat="49.92288" lon="1.07315">
        <ele>12.5</ele>
        <time>2020-06-18T11:19:30Z</time>
      </trkpt>
      <trkpt lat="49.92289" lon="1.07314">
        <ele>12.5</ele>
        <time>2020-06-18T11:19:31Z</time>
      </trkpt>
      <trkpt lat="49.92292" lon="1.07315">
        <ele>12.5</ele>
        <time>2020-06-18T11:19:32Z</time>
      </trkpt>
      <trkpt lat="49.92293" lon="1.07315">
        <ele>12.5</ele>
        <time>2020-06-18T11:19:33Z</time>
      </trkpt>
      <trkpt lat="49.92295" lon="1.07312">
        <ele>12.4</ele>
        <time>2020-06-18T11:19:34Z</time>
      </trkpt>
      <trkpt lat="49.92299" lon="1.07313">
        <ele>12.3</ele>
        <time>2020-06-18T11:19:35Z</time>
      </trkpt>
      <trkpt lat="49.92301" lon="1.07312">
        <ele>12.3</ele>
        <time>2020-06-18T11:19:36Z</time>
      </trkpt>
      <trkpt lat="49.92304" lon="1.07313">
        <ele>12.2</ele>
        <time>2020-06-18T11:19:37Z</time>
      </trkpt>
      <trkpt lat="49.92306" lon="1.07321">
        <ele>12</ele>
        <time>2020-06-18T11:19:38Z</time>
      </trkpt>
      <trkpt lat="49.92309" lon="1.07325">
        <ele>12</ele>
        <time>2020-06-18T11:19:39Z</time>
      </trkpt>
      <trkpt lat="49.92311" lon="1.07328">
        <ele>11.9</ele>
        <time>2020-06-18T11:19:40Z</time>
      </trkpt>
      <trkpt lat="49.92312" lon="1.07328">
        <ele>11.9</ele>
        <time>2020-06-18T11:19:41Z</time>
      </trkpt>
      <trkpt lat="49.92313" lon="1.07328">
        <ele>11.8</ele>
        <time>2020-06-18T11:19:42Z</time>
      </trkpt>
      <trkpt lat="49.92314" lon="1.07329">
        <ele>11.8</ele>
        <time>2020-06-18T11:19:43Z</time>
      </trkpt>
      <trkpt lat="49.92314" lon="1.07329">
        <ele>11.8</ele>
        <time>2020-06-18T11:19:44Z</time>
      </trkpt>
      <trkpt lat="49.92314" lon="1.07329">
        <ele>11.8</ele>
        <time>2020-06-18T11:19:45Z</time>
      </trkpt>
      <trkpt lat="49.92315" lon="1.07329">
        <ele>11.8</ele>
        <time>2020-06-18T11:19:46Z</time>
      </trkpt>
      <trkpt lat="49.92315" lon="1.07328">
        <ele>11.8</ele>
        <time>2020-06-18T11:19:47Z</time>
      </trkpt>
      <trkpt lat="49.92316" lon="1.0733">
        <ele>11.7</ele>
        <time>2020-06-18T11:19:48Z</time>
      </trkpt>
      <trkpt lat="49.92316" lon="1.07331">
        <ele>11.7</ele>
        <time>2020-06-18T11:19:49Z</time>
      </trkpt>
      <trkpt lat="49.92316" lon="1.07332">
        <ele>11.7</ele>
        <time>2020-06-18T11:19:50Z</time>
      </trkpt>
      <trkpt lat="49.92316" lon="1.07332">
        <ele>11.7</ele>
        <time>2020-06-18T11:19:51Z</time>
      </trkpt>
      <trkpt lat="49.92316" lon="1.07332">
        <ele>11.7</ele>
        <time>2020-06-18T11:19:52Z</time>
      </trkpt>
      <trkpt lat="49.92318" lon="1.07333">
        <ele>11.7</ele>
        <time>2020-06-18T11:19:53Z</time>
      </trkpt>
      <trkpt lat="49.92319" lon="1.07333">
        <ele>11.6</ele>
        <time>2020-06-18T11:19:54Z</time>
      </trkpt>
      <trkpt lat="49.9232" lon="1.07333">
        <ele>11.6</ele>
        <time>2020-06-18T11:19:55Z</time>
      </trkpt>
      <trkpt lat="49.92322" lon="1.07333">
        <ele>11.5</ele>
        <time>2020-06-18T11:19:56Z</time>
      </trkpt>
      <trkpt lat="49.92323" lon="1.07332">
        <ele>11.5</ele>
        <time>2020-06-18T11:19:57Z</time>
      </trkpt>
      <trkpt lat="49.92323" lon="1.07332">
        <ele>11.5</ele>
        <time>2020-06-18T11:19:58Z</time>
      </trkpt>
      <trkpt lat="49.92324" lon="1.07332">
        <ele>11.5</ele>
        <time>2020-06-18T11:19:59Z</time>
      </trkpt>
      <trkpt lat="49.92325" lon="1.07331">
        <ele>11.5</ele>
        <time>2020-06-18T11:20:00Z</time>
      </trkpt>
      <trkpt lat="49.92326" lon="1.07332">
        <ele>11.4</ele>
        <time>2020-06-18T11:20:01Z</time>
      </trkpt>
      <trkpt lat="49.92327" lon="1.07334">
        <ele>11.4</ele>
        <time>2020-06-18T11:20:02Z</time>
      </trkpt>
      <trkpt lat="49.92328" lon="1.07334">
        <ele>11.4</ele>
        <time>2020-06-18T11:20:03Z</time>
      </trkpt>
      <trkpt lat="49.92329" lon="1.07335">
        <ele>11.3</ele>
        <time>2020-06-18T11:20:04Z</time>
      </trkpt>
      <trkpt lat="49.9233" lon="1.07335">
        <ele>11.3</ele>
        <time>2020-06-18T11:20:05Z</time>
      </trkpt>
      <trkpt lat="49.92331" lon="1.07335">
        <ele>11.3</ele>
        <time>2020-06-18T11:20:06Z</time>
      </trkpt>
      <trkpt lat="49.92331" lon="1.07335">
        <ele>11.3</ele>
        <time>2020-06-18T11:20:07Z</time>
      </trkpt>
      <trkpt lat="49.92331" lon="1.07335">
        <ele>11.3</ele>
        <time>2020-06-18T11:20:08Z</time>
      </trkpt>
      <trkpt lat="49.92331" lon="1.07334">
        <ele>11.3</ele>
        <time>2020-06-18T11:20:09Z</time>
      </trkpt>
      <trkpt lat="49.92332" lon="1.07334">
        <ele>11.3</ele>
        <time>2020-06-18T11:20:10Z</time>
      </trkpt>
      <trkpt lat="49.92333" lon="1.07335">
        <ele>11.1</ele>
        <time>2020-06-18T11:20:11Z</time>
      </trkpt>
      <trkpt lat="49.92333" lon="1.07335">
        <ele>11.1</ele>
        <time>2020-06-18T11:20:12Z</time>
      </trkpt>
      <trkpt lat="49.92335" lon="1.07337">
        <ele>11</ele>
        <time>2020-06-18T11:20:13Z</time>
      </trkpt>
      <trkpt lat="49.92336" lon="1.07339">
        <ele>10.9</ele>
        <time>2020-06-18T11:20:14Z</time>
      </trkpt>
      <trkpt lat="49.92337" lon="1.07341">
        <ele>10.9</ele>
        <time>2020-06-18T11:20:15Z</time>
      </trkpt>
      <trkpt lat="49.92338" lon="1.07346">
        <ele>10.8</ele>
        <time>2020-06-18T11:20:16Z</time>
      </trkpt>
      <trkpt lat="49.92339" lon="1.07348">
        <ele>10.7</ele>
        <time>2020-06-18T11:20:17Z</time>
      </trkpt>
      <trkpt lat="49.92341" lon="1.07351">
        <ele>10.7</ele>
        <time>2020-06-18T11:20:18Z</time>
      </trkpt>
      <trkpt lat="49.92343" lon="1.07354">
        <ele>10.6</ele>
        <time>2020-06-18T11:20:19Z</time>
      </trkpt>
      <trkpt lat="49.92344" lon="1.07358">
        <ele>10.6</ele>
        <time>2020-06-18T11:20:20Z</time>
      </trkpt>
      <trkpt lat="49.92344" lon="1.07364">
        <ele>10.5</ele>
        <time>2020-06-18T11:20:21Z</time>
      </trkpt>
      <trkpt lat="49.92343" lon="1.07369">
        <ele>10.4</ele>
        <time>2020-06-18T11:20:22Z</time>
      </trkpt>
      <trkpt lat="49.92342" lon="1.07375">
        <ele>10.4</ele>
        <time>2020-06-18T11:20:23Z</time>
      </trkpt>
      <trkpt lat="49.92342" lon="1.07381">
        <ele>10.3</ele>
        <time>2020-06-18T11:20:24Z</time>
      </trkpt>
      <trkpt lat="49.92343" lon="1.07385">
        <ele>10.2</ele>
        <time>2020-06-18T11:20:25Z</time>
      </trkpt>
      <trkpt lat="49.92344" lon="1.0739">
        <ele>10.2</ele>
        <time>2020-06-18T11:20:26Z</time>
      </trkpt>
      <trkpt lat="49.92344" lon="1.07392">
        <ele>10.2</ele>
        <time>2020-06-18T11:20:27Z</time>
      </trkpt>
      <trkpt lat="49.92345" lon="1.07397">
        <ele>10.1</ele>
        <time>2020-06-18T11:20:28Z</time>
      </trkpt>
      <trkpt lat="49.92345" lon="1.07402">
        <ele>10</ele>
        <time>2020-06-18T11:20:29Z</time>
      </trkpt>
      <trkpt lat="49.92346" lon="1.07404">
        <ele>10</ele>
        <time>2020-06-18T11:20:30Z</time>
      </trkpt>
      <trkpt lat="49.92345" lon="1.07409">
        <ele>10</ele>
        <time>2020-06-18T11:20:31Z</time>
      </trkpt>
      <trkpt lat="49.92346" lon="1.07414">
        <ele>9.9</ele>
        <time>2020-06-18T11:20:32Z</time>
      </trkpt>
      <trkpt lat="49.92347" lon="1.07418">
        <ele>9.8</ele>
        <time>2020-06-18T11:20:33Z</time>
      </trkpt>
      <trkpt lat="49.92348" lon="1.07423">
        <ele>9.8</ele>
        <time>2020-06-18T11:20:34Z</time>
      </trkpt>
      <trkpt lat="49.92349" lon="1.07425">
        <ele>9.8</ele>
        <time>2020-06-18T11:20:35Z</time>
      </trkpt>
      <trkpt lat="49.92348" lon="1.07432">
        <ele>9.7</ele>
        <time>2020-06-18T11:20:36Z</time>
      </trkpt>
      <trkpt lat="49.92347" lon="1.07435">
        <ele>9.6</ele>
        <time>2020-06-18T11:20:37Z</time>
      </trkpt>
      <trkpt lat="49.92348" lon="1.07439">
        <ele>9.6</ele>
        <time>2020-06-18T11:20:38Z</time>
      </trkpt>
      <trkpt lat="49.92351" lon="1.07443">
        <ele>9.5</ele>
        <time>2020-06-18T11:20:39Z</time>
      </trkpt>
      <trkpt lat="49.92353" lon="1.07446">
        <ele>9.5</ele>
        <time>2020-06-18T11:20:40Z</time>
      </trkpt>
      <trkpt lat="49.92355" lon="1.07451">
        <ele>9.4</ele>
        <time>2020-06-18T11:20:41Z</time>
      </trkpt>
      <trkpt lat="49.92356" lon="1.07453">
        <ele>9.4</ele>
        <time>2020-06-18T11:20:42Z</time>
      </trkpt>
      <trkpt lat="49.92353" lon="1.07465">
        <ele>9.3</ele>
        <time>2020-06-18T11:20:43Z</time>
      </trkpt>
      <trkpt lat="49.92353" lon="1.07471">
        <ele>9.2</ele>
        <time>2020-06-18T11:20:44Z</time>
      </trkpt>
      <trkpt lat="49.92353" lon="1.07472">
        <ele>9.2</ele>
        <time>2020-06-18T11:20:45Z</time>
      </trkpt>
      <trkpt lat="49.92352" lon="1.07477">
        <ele>9.2</ele>
        <time>2020-06-18T11:20:46Z</time>
      </trkpt>
      <trkpt lat="49.92351" lon="1.07479">
        <ele>9.2</ele>
        <time>2020-06-18T11:20:47Z</time>
      </trkpt>
      <trkpt lat="49.92351" lon="1.07484">
        <ele>9.2</ele>
        <time>2020-06-18T11:20:48Z</time>
      </trkpt>
      <trkpt lat="49.92349" lon="1.0749">
        <ele>9.1</ele>
        <time>2020-06-18T11:20:49Z</time>
      </trkpt>
      <trkpt lat="49.92347" lon="1.07495">
        <ele>9.1</ele>
        <time>2020-06-18T11:20:50Z</time>
      </trkpt>
      <trkpt lat="49.92344" lon="1.07498">
        <ele>9.1</ele>
        <time>2020-06-18T11:20:51Z</time>
      </trkpt>
      <trkpt lat="49.9234" lon="1.07501">
        <ele>9.1</ele>
        <time>2020-06-18T11:20:52Z</time>
      </trkpt>
      <trkpt lat="49.92337" lon="1.07504">
        <ele>9.1</ele>
        <time>2020-06-18T11:20:53Z</time>
      </trkpt>
      <trkpt lat="49.92333" lon="1.07508">
        <ele>9</ele>
        <time>2020-06-18T11:20:54Z</time>
      </trkpt>
      <trkpt lat="49.92332" lon="1.07516">
        <ele>9</ele>
        <time>2020-06-18T11:20:55Z</time>
      </trkpt>
      <trkpt lat="49.9233" lon="1.0752">
        <ele>9</ele>
        <time>2020-06-18T11:20:56Z</time>
      </trkpt>
      <trkpt lat="49.92328" lon="1.07524">
        <ele>9</ele>
        <time>2020-06-18T11:20:57Z</time>
      </trkpt>
      <trkpt lat="49.92327" lon="1.07528">
        <ele>9</ele>
        <time>2020-06-18T11:20:58Z</time>
      </trkpt>
      <trkpt lat="49.92326" lon="1.07533">
        <ele>9</ele>
        <time>2020-06-18T11:20:59Z</time>
      </trkpt>
      <trkpt lat="49.92325" lon="1.07537">
        <ele>9</ele>
        <time>2020-06-18T11:21:00Z</time>
      </trkpt>
      <trkpt lat="49.92323" lon="1.07541">
        <ele>9</ele>
        <time>2020-06-18T11:21:01Z</time>
      </trkpt>
      <trkpt lat="49.92322" lon="1.07549">
        <ele>9</ele>
        <time>2020-06-18T11:21:02Z</time>
      </trkpt>
      <trkpt lat="49.92322" lon="1.07554">
        <ele>8.7</ele>
        <time>2020-06-18T11:21:03Z</time>
      </trkpt>
      <trkpt lat="49.92322" lon="1.07556">
        <ele>8.7</ele>
        <time>2020-06-18T11:21:04Z</time>
      </trkpt>
      <trkpt lat="49.92322" lon="1.07561">
        <ele>8.7</ele>
        <time>2020-06-18T11:21:05Z</time>
      </trkpt>
      <trkpt lat="49.92321" lon="1.07567">
        <ele>8.7</ele>
        <time>2020-06-18T11:21:06Z</time>
      </trkpt>
      <trkpt lat="49.92321" lon="1.07569">
        <ele>8.7</ele>
        <time>2020-06-18T11:21:07Z</time>
      </trkpt>
      <trkpt lat="49.92321" lon="1.07575">
        <ele>8.7</ele>
        <time>2020-06-18T11:21:08Z</time>
      </trkpt>
      <trkpt lat="49.92321" lon="1.07577">
        <ele>8.7</ele>
        <time>2020-06-18T11:21:09Z</time>
      </trkpt>
      <trkpt lat="49.92321" lon="1.07582">
        <ele>8.6</ele>
        <time>2020-06-18T11:21:10Z</time>
      </trkpt>
      <trkpt lat="49.92321" lon="1.07587">
        <ele>8.8</ele>
        <time>2020-06-18T11:21:11Z</time>
      </trkpt>
      <trkpt lat="49.92321" lon="1.07593">
        <ele>9</ele>
        <time>2020-06-18T11:21:12Z</time>
      </trkpt>
      <trkpt lat="49.92318" lon="1.07599">
        <ele>9.3</ele>
        <time>2020-06-18T11:21:13Z</time>
      </trkpt>
      <trkpt lat="49.92318" lon="1.07605">
        <ele>9.5</ele>
        <time>2020-06-18T11:21:14Z</time>
      </trkpt>
      <trkpt lat="49.92317" lon="1.07611">
        <ele>9.7</ele>
        <time>2020-06-18T11:21:15Z</time>
      </trkpt>
      <trkpt lat="49.92317" lon="1.07618">
        <ele>9.9</ele>
        <time>2020-06-18T11:21:16Z</time>
      </trkpt>
      <trkpt lat="49.92317" lon="1.07623">
        <ele>10.1</ele>
        <time>2020-06-18T11:21:17Z</time>
      </trkpt>
      <trkpt lat="49.92317" lon="1.07628">
        <ele>10.2</ele>
        <time>2020-06-18T11:21:18Z</time>
      </trkpt>
      <trkpt lat="49.92317" lon="1.0763">
        <ele>10.2</ele>
        <time>2020-06-18T11:21:19Z</time>
      </trkpt>
      <trkpt lat="49.92317" lon="1.07635">
        <ele>10.2</ele>
        <time>2020-06-18T11:21:20Z</time>
      </trkpt>
      <trkpt lat="49.92317" lon="1.07637">
        <ele>10.3</ele>
        <time>2020-06-18T11:21:21Z</time>
      </trkpt>
      <trkpt lat="49.92317" lon="1.07642">
        <ele>10.3</ele>
        <time>2020-06-18T11:21:22Z</time>
      </trkpt>
      <trkpt lat="49.92316" lon="1.07647">
        <ele>10.4</ele>
        <time>2020-06-18T11:21:23Z</time>
      </trkpt>
      <trkpt lat="49.92316" lon="1.07649">
        <ele>10.5</ele>
        <time>2020-06-18T11:21:24Z</time>
      </trkpt>
      <trkpt lat="49.92315" lon="1.07655">
        <ele>10.5</ele>
        <time>2020-06-18T11:21:25Z</time>
      </trkpt>
      <trkpt lat="49.92315" lon="1.07657">
        <ele>10.5</ele>
        <time>2020-06-18T11:21:26Z</time>
      </trkpt>
      <trkpt lat="49.92315" lon="1.07663">
        <ele>10.6</ele>
        <time>2020-06-18T11:21:27Z</time>
      </trkpt>
      <trkpt lat="49.92315" lon="1.07665">
        <ele>10.6</ele>
        <time>2020-06-18T11:21:28Z</time>
      </trkpt>
      <trkpt lat="49.92315" lon="1.07669">
        <ele>10.6</ele>
        <time>2020-06-18T11:21:29Z</time>
      </trkpt>
      <trkpt lat="49.92315" lon="1.07673">
        <ele>10.6</ele>
        <time>2020-06-18T11:21:30Z</time>
      </trkpt>
      <trkpt lat="49.92315" lon="1.07673">
        <ele>10.6</ele>
        <time>2020-06-18T11:21:31Z</time>
      </trkpt>
      <trkpt lat="49.92315" lon="1.07679">
        <ele>10.6</ele>
        <time>2020-06-18T11:21:32Z</time>
      </trkpt>
      <trkpt lat="49.92315" lon="1.07681">
        <ele>10.6</ele>
        <time>2020-06-18T11:21:33Z</time>
      </trkpt>
      <trkpt lat="49.92317" lon="1.07686">
        <ele>10.6</ele>
        <time>2020-06-18T11:21:34Z</time>
      </trkpt>
      <trkpt lat="49.92318" lon="1.07688">
        <ele>10.6</ele>
        <time>2020-06-18T11:21:35Z</time>
      </trkpt>
      <trkpt lat="49.9232" lon="1.07696">
        <ele>10.5</ele>
        <time>2020-06-18T11:21:36Z</time>
      </trkpt>
      <trkpt lat="49.92322" lon="1.07702">
        <ele>10.5</ele>
        <time>2020-06-18T11:21:37Z</time>
      </trkpt>
      <trkpt lat="49.92323" lon="1.07707">
        <ele>10.5</ele>
        <time>2020-06-18T11:21:38Z</time>
      </trkpt>
      <trkpt lat="49.92325" lon="1.07711">
        <ele>10.4</ele>
        <time>2020-06-18T11:21:39Z</time>
      </trkpt>
      <trkpt lat="49.92327" lon="1.07712">
        <ele>10.4</ele>
        <time>2020-06-18T11:21:40Z</time>
      </trkpt>
      <trkpt lat="49.9233" lon="1.07714">
        <ele>10.4</ele>
        <time>2020-06-18T11:21:41Z</time>
      </trkpt>
      <trkpt lat="49.92331" lon="1.07715">
        <ele>10.4</ele>
        <time>2020-06-18T11:21:42Z</time>
      </trkpt>
      <trkpt lat="49.92334" lon="1.07718">
        <ele>10.3</ele>
        <time>2020-06-18T11:21:43Z</time>
      </trkpt>
      <trkpt lat="49.92337" lon="1.07719">
        <ele>10.2</ele>
        <time>2020-06-18T11:21:44Z</time>
      </trkpt>
      <trkpt lat="49.9234" lon="1.07724">
        <ele>9.7</ele>
        <time>2020-06-18T11:21:45Z</time>
      </trkpt>
      <trkpt lat="49.92342" lon="1.07729">
        <ele>9.2</ele>
        <time>2020-06-18T11:21:46Z</time>
      </trkpt>
      <trkpt lat="49.92345" lon="1.07731">
        <ele>8.9</ele>
        <time>2020-06-18T11:21:47Z</time>
      </trkpt>
      <trkpt lat="49.92347" lon="1.07733">
        <ele>8.6</ele>
        <time>2020-06-18T11:21:48Z</time>
      </trkpt>
      <trkpt lat="49.9235" lon="1.07736">
        <ele>8.6</ele>
        <time>2020-06-18T11:21:49Z</time>
      </trkpt>
      <trkpt lat="49.92352" lon="1.07738">
        <ele>8.6</ele>
        <time>2020-06-18T11:21:50Z</time>
      </trkpt>
      <trkpt lat="49.92353" lon="1.07741">
        <ele>8.6</ele>
        <time>2020-06-18T11:21:51Z</time>
      </trkpt>
      <trkpt lat="49.92354" lon="1.07744">
        <ele>8.6</ele>
        <time>2020-06-18T11:21:52Z</time>
      </trkpt>
      <trkpt lat="49.92354" lon="1.07746">
        <ele>8.6</ele>
        <time>2020-06-18T11:21:53Z</time>
      </trkpt>
      <trkpt lat="49.92354" lon="1.07746">
        <ele>8.6</ele>
        <time>2020-06-18T11:21:54Z</time>
      </trkpt>
      <trkpt lat="49.92354" lon="1.07746">
        <ele>8.6</ele>
        <time>2020-06-18T11:21:55Z</time>
      </trkpt>
      <trkpt lat="49.92354" lon="1.07746">
        <ele>8.6</ele>
        <time>2020-06-18T11:21:56Z</time>
      </trkpt>
      <trkpt lat="49.92354" lon="1.07746">
        <ele>8.6</ele>
        <time>2020-06-18T11:21:57Z</time>
      </trkpt>
      <trkpt lat="49.92355" lon="1.07747">
        <ele>8.5</ele>
        <time>2020-06-18T11:21:58Z</time>
      </trkpt>
      <trkpt lat="49.92355" lon="1.07747">
        <ele>8.5</ele>
        <time>2020-06-18T11:21:59Z</time>
      </trkpt>
      <trkpt lat="49.92356" lon="1.07748">
        <ele>8.5</ele>
        <time>2020-06-18T11:22:00Z</time>
      </trkpt>
      <trkpt lat="49.92356" lon="1.07748">
        <ele>8.5</ele>
        <time>2020-06-18T11:22:01Z</time>
      </trkpt>
      <trkpt lat="49.92356" lon="1.07748">
        <ele>8.5</ele>
        <time>2020-06-18T11:22:02Z</time>
      </trkpt>
      <trkpt lat="49.92361" lon="1.07751">
        <ele>8.5</ele>
        <time>2020-06-18T11:22:11Z</time>
      </trkpt>
      <trkpt lat="49.92362" lon="1.07751">
        <ele>8.5</ele>
        <time>2020-06-18T11:22:12Z</time>
      </trkpt>
      <trkpt lat="49.92362" lon="1.07751">
        <ele>8.5</ele>
        <time>2020-06-18T11:22:13Z</time>
      </trkpt>
      <trkpt lat="49.92363" lon="1.0775">
        <ele>8.5</ele>
        <time>2020-06-18T11:22:14Z</time>
      </trkpt>
      <trkpt lat="49.92365" lon="1.0775">
        <ele>8.5</ele>
        <time>2020-06-18T11:22:15Z</time>
      </trkpt>
      <trkpt lat="49.92365" lon="1.0775">
        <ele>8.5</ele>
        <time>2020-06-18T11:22:16Z</time>
      </trkpt>
      <trkpt lat="49.92366" lon="1.0775">
        <ele>8.5</ele>
        <time>2020-06-18T11:22:17Z</time>
      </trkpt>
      <trkpt lat="49.92369" lon="1.07751">
        <ele>8.5</ele>
        <time>2020-06-18T11:22:18Z</time>
      </trkpt>
      <trkpt lat="49.9237" lon="1.07751">
        <ele>8.4</ele>
        <time>2020-06-18T11:22:19Z</time>
      </trkpt>
      <trkpt lat="49.92373" lon="1.07752">
        <ele>8.4</ele>
        <time>2020-06-18T11:22:20Z</time>
      </trkpt>
      <trkpt lat="49.92377" lon="1.07755">
        <ele>8.4</ele>
        <time>2020-06-18T11:22:21Z</time>
      </trkpt>
      <trkpt lat="49.92381" lon="1.07758">
        <ele>8.4</ele>
        <time>2020-06-18T11:22:22Z</time>
      </trkpt>
      <trkpt lat="49.92385" lon="1.07759">
        <ele>8.4</ele>
        <time>2020-06-18T11:22:23Z</time>
      </trkpt>
      <trkpt lat="49.92389" lon="1.0776">
        <ele>8.4</ele>
        <time>2020-06-18T11:22:24Z</time>
      </trkpt>
      <trkpt lat="49.92393" lon="1.07762">
        <ele>8.4</ele>
        <time>2020-06-18T11:22:25Z</time>
      </trkpt>
      <trkpt lat="49.92396" lon="1.07763">
        <ele>8.4</ele>
        <time>2020-06-18T11:22:26Z</time>
      </trkpt>
      <trkpt lat="49.92399" lon="1.07764">
        <ele>8.4</ele>
        <time>2020-06-18T11:22:27Z</time>
      </trkpt>
      <trkpt lat="49.92402" lon="1.07766">
        <ele>8.4</ele>
        <time>2020-06-18T11:22:28Z</time>
      </trkpt>
      <trkpt lat="49.92405" lon="1.07768">
        <ele>8.3</ele>
        <time>2020-06-18T11:22:29Z</time>
      </trkpt>
      <trkpt lat="49.92406" lon="1.07769">
        <ele>8.3</ele>
        <time>2020-06-18T11:22:30Z</time>
      </trkpt>
      <trkpt lat="49.9241" lon="1.07771">
        <ele>8.3</ele>
        <time>2020-06-18T11:22:31Z</time>
      </trkpt>
      <trkpt lat="49.92413" lon="1.07773">
        <ele>8.2</ele>
        <time>2020-06-18T11:22:32Z</time>
      </trkpt>
      <trkpt lat="49.92413" lon="1.07774">
        <ele>8.2</ele>
        <time>2020-06-18T11:22:33Z</time>
      </trkpt>
      <trkpt lat="49.92415" lon="1.07778">
        <ele>8.2</ele>
        <time>2020-06-18T11:22:34Z</time>
      </trkpt>
      <trkpt lat="49.92417" lon="1.07783">
        <ele>8.2</ele>
        <time>2020-06-18T11:22:35Z</time>
      </trkpt>
      <trkpt lat="49.92417" lon="1.07785">
        <ele>8.2</ele>
        <time>2020-06-18T11:22:36Z</time>
      </trkpt>
      <trkpt lat="49.92417" lon="1.07789">
        <ele>8.2</ele>
        <time>2020-06-18T11:22:37Z</time>
      </trkpt>
      <trkpt lat="49.92417" lon="1.07791">
        <ele>8.2</ele>
        <time>2020-06-18T11:22:38Z</time>
      </trkpt>
      <trkpt lat="49.92419" lon="1.07794">
        <ele>8.4</ele>
        <time>2020-06-18T11:22:39Z</time>
      </trkpt>
      <trkpt lat="49.9242" lon="1.07796">
        <ele>8.4</ele>
        <time>2020-06-18T11:22:40Z</time>
      </trkpt>
      <trkpt lat="49.92421" lon="1.07798">
        <ele>8.4</ele>
        <time>2020-06-18T11:22:41Z</time>
      </trkpt>
      <trkpt lat="49.92421" lon="1.07801">
        <ele>8.5</ele>
        <time>2020-06-18T11:22:42Z</time>
      </trkpt>
      <trkpt lat="49.92422" lon="1.07806">
        <ele>8.5</ele>
        <time>2020-06-18T11:22:43Z</time>
      </trkpt>
      <trkpt lat="49.92422" lon="1.07808">
        <ele>8.5</ele>
        <time>2020-06-18T11:22:44Z</time>
      </trkpt>
      <trkpt lat="49.92423" lon="1.07813">
        <ele>8.6</ele>
        <time>2020-06-18T11:22:45Z</time>
      </trkpt>
      <trkpt lat="49.92423" lon="1.07818">
        <ele>8.6</ele>
        <time>2020-06-18T11:22:46Z</time>
      </trkpt>
      <trkpt lat="49.92424" lon="1.07821">
        <ele>8.7</ele>
        <time>2020-06-18T11:22:47Z</time>
      </trkpt>
      <trkpt lat="49.92424" lon="1.07822">
        <ele>8.7</ele>
        <time>2020-06-18T11:22:48Z</time>
      </trkpt>
      <trkpt lat="49.92425" lon="1.07824">
        <ele>8.8</ele>
        <time>2020-06-18T11:22:49Z</time>
      </trkpt>
      <trkpt lat="49.92427" lon="1.07825">
        <ele>8.9</ele>
        <time>2020-06-18T11:22:50Z</time>
      </trkpt>
      <trkpt lat="49.92428" lon="1.07824">
        <ele>8.9</ele>
        <time>2020-06-18T11:22:51Z</time>
      </trkpt>
      <trkpt lat="49.92429" lon="1.07823">
        <ele>8.9</ele>
        <time>2020-06-18T11:22:52Z</time>
      </trkpt>
      <trkpt lat="49.92429" lon="1.07822">
        <ele>9</ele>
        <time>2020-06-18T11:22:53Z</time>
      </trkpt>
      <trkpt lat="49.9243" lon="1.07824">
        <ele>9.1</ele>
        <time>2020-06-18T11:22:54Z</time>
      </trkpt>
      <trkpt lat="49.92431" lon="1.07824">
        <ele>9.1</ele>
        <time>2020-06-18T11:22:55Z</time>
      </trkpt>
      <trkpt lat="49.92431" lon="1.07825">
        <ele>9.1</ele>
        <time>2020-06-18T11:22:56Z</time>
      </trkpt>
      <trkpt lat="49.92431" lon="1.07824">
        <ele>9.2</ele>
        <time>2020-06-18T11:22:57Z</time>
      </trkpt>
      <trkpt lat="49.92431" lon="1.07825">
        <ele>9.2</ele>
        <time>2020-06-18T11:22:58Z</time>
      </trkpt>
      <trkpt lat="49.92431" lon="1.07826">
        <ele>9.2</ele>
        <time>2020-06-18T11:22:59Z</time>
      </trkpt>
      <trkpt lat="49.92432" lon="1.07827">
        <ele>9.3</ele>
        <time>2020-06-18T11:23:00Z</time>
      </trkpt>
      <trkpt lat="49.92432" lon="1.07828">
        <ele>9.4</ele>
        <time>2020-06-18T11:23:01Z</time>
      </trkpt>
      <trkpt lat="49.92433" lon="1.07828">
        <ele>9.4</ele>
        <time>2020-06-18T11:23:02Z</time>
      </trkpt>
      <trkpt lat="49.92434" lon="1.07828">
        <ele>9.4</ele>
        <time>2020-06-18T11:23:03Z</time>
      </trkpt>
      <trkpt lat="49.92435" lon="1.07829">
        <ele>9.5</ele>
        <time>2020-06-18T11:23:04Z</time>
      </trkpt>
      <trkpt lat="49.92436" lon="1.07829">
        <ele>9.6</ele>
        <time>2020-06-18T11:23:05Z</time>
      </trkpt>
      <trkpt lat="49.92437" lon="1.07832">
        <ele>9.6</ele>
        <time>2020-06-18T11:23:06Z</time>
      </trkpt>
      <trkpt lat="49.92438" lon="1.07835">
        <ele>9.7</ele>
        <time>2020-06-18T11:23:07Z</time>
      </trkpt>
      <trkpt lat="49.92438" lon="1.07837">
        <ele>9.7</ele>
        <time>2020-06-18T11:23:08Z</time>
      </trkpt>
      <trkpt lat="49.92439" lon="1.0784">
        <ele>9.8</ele>
        <time>2020-06-18T11:23:09Z</time>
      </trkpt>
      <trkpt lat="49.9244" lon="1.07843">
        <ele>9.8</ele>
        <time>2020-06-18T11:23:10Z</time>
      </trkpt>
      <trkpt lat="49.9244" lon="1.07845">
        <ele>9.9</ele>
        <time>2020-06-18T11:23:11Z</time>
      </trkpt>
      <trkpt lat="49.92441" lon="1.07848">
        <ele>10</ele>
        <time>2020-06-18T11:24:03Z</time>
      </trkpt>
      <trkpt lat="49.92441" lon="1.07851">
        <ele>10</ele>
        <time>2020-06-18T11:24:04Z</time>
      </trkpt>
      <trkpt lat="49.92442" lon="1.07853">
        <ele>10</ele>
        <time>2020-06-18T11:24:05Z</time>
      </trkpt>
      <trkpt lat="49.92442" lon="1.07856">
        <ele>10.1</ele>
        <time>2020-06-18T11:24:06Z</time>
      </trkpt>
      <trkpt lat="49.92443" lon="1.07858">
        <ele>10.2</ele>
        <time>2020-06-18T11:24:07Z</time>
      </trkpt>
      <trkpt lat="49.92443" lon="1.0786">
        <ele>10.2</ele>
        <time>2020-06-18T11:24:08Z</time>
      </trkpt>
      <trkpt lat="49.92444" lon="1.07866">
        <ele>10.3</ele>
        <time>2020-06-18T11:24:09Z</time>
      </trkpt>
      <trkpt lat="49.92444" lon="1.07867">
        <ele>10.3</ele>
        <time>2020-06-18T11:24:10Z</time>
      </trkpt>
      <trkpt lat="49.92445" lon="1.07873">
        <ele>10.4</ele>
        <time>2020-06-18T11:24:11Z</time>
      </trkpt>
      <trkpt lat="49.92445" lon="1.07875">
        <ele>10.4</ele>
        <time>2020-06-18T11:24:12Z</time>
      </trkpt>
      <trkpt lat="49.92446" lon="1.0788">
        <ele>10.5</ele>
        <time>2020-06-18T11:24:13Z</time>
      </trkpt>
      <trkpt lat="49.92447" lon="1.07884">
        <ele>10.6</ele>
        <time>2020-06-18T11:24:14Z</time>
      </trkpt>
      <trkpt lat="49.92449" lon="1.07888">
        <ele>10.7</ele>
        <time>2020-06-18T11:24:15Z</time>
      </trkpt>
      <trkpt lat="49.9245" lon="1.07893">
        <ele>10.8</ele>
        <time>2020-06-18T11:24:16Z</time>
      </trkpt>
      <trkpt lat="49.92451" lon="1.07898">
        <ele>10.9</ele>
        <time>2020-06-18T11:24:17Z</time>
      </trkpt>
      <trkpt lat="49.92452" lon="1.07904">
        <ele>10.9</ele>
        <time>2020-06-18T11:24:18Z</time>
      </trkpt>
      <trkpt lat="49.92447" lon="1.07914">
        <ele>10.9</ele>
        <time>2020-06-18T11:24:19Z</time>
      </trkpt>
      <trkpt lat="49.92449" lon="1.07917">
        <ele>11</ele>
        <time>2020-06-18T11:24:20Z</time>
      </trkpt>
      <trkpt lat="49.92448" lon="1.07919">
        <ele>11</ele>
        <time>2020-06-18T11:24:21Z</time>
      </trkpt>
      <trkpt lat="49.92449" lon="1.07924">
        <ele>11</ele>
        <time>2020-06-18T11:24:22Z</time>
      </trkpt>
      <trkpt lat="49.92449" lon="1.07926">
        <ele>11.1</ele>
        <time>2020-06-18T11:24:23Z</time>
      </trkpt>
      <trkpt lat="49.9245" lon="1.0793">
        <ele>11.1</ele>
        <time>2020-06-18T11:24:24Z</time>
      </trkpt>
      <trkpt lat="49.9245" lon="1.07934">
        <ele>11.1</ele>
        <time>2020-06-18T11:24:25Z</time>
      </trkpt>
      <trkpt lat="49.9245" lon="1.07939">
        <ele>11.1</ele>
        <time>2020-06-18T11:24:26Z</time>
      </trkpt>
      <trkpt lat="49.9245" lon="1.07941">
        <ele>11.2</ele>
        <time>2020-06-18T11:24:27Z</time>
      </trkpt>
      <trkpt lat="49.92451" lon="1.07945">
        <ele>11.2</ele>
        <time>2020-06-18T11:24:28Z</time>
      </trkpt>
      <trkpt lat="49.92451" lon="1.07947">
        <ele>11.2</ele>
        <time>2020-06-18T11:24:29Z</time>
      </trkpt>
      <trkpt lat="49.9245" lon="1.07947">
        <ele>11.2</ele>
        <time>2020-06-18T11:24:30Z</time>
      </trkpt>
      <trkpt lat="49.92448" lon="1.07949">
        <ele>11.2</ele>
        <time>2020-06-18T11:24:31Z</time>
      </trkpt>
      <trkpt lat="49.92447" lon="1.07953">
        <ele>11.2</ele>
        <time>2020-06-18T11:24:32Z</time>
      </trkpt>
      <trkpt lat="49.92447" lon="1.07955">
        <ele>11.2</ele>
        <time>2020-06-18T11:24:33Z</time>
      </trkpt>
      <trkpt lat="49.92445" lon="1.07958">
        <ele>11.2</ele>
        <time>2020-06-18T11:24:34Z</time>
      </trkpt>
      <trkpt lat="49.92442" lon="1.07963">
        <ele>11.1</ele>
        <time>2020-06-18T11:24:35Z</time>
      </trkpt>
      <trkpt lat="49.9244" lon="1.07969">
        <ele>10.9</ele>
        <time>2020-06-18T11:24:36Z</time>
      </trkpt>
      <trkpt lat="49.92439" lon="1.07974">
        <ele>10.9</ele>
        <time>2020-06-18T11:24:37Z</time>
      </trkpt>
      <trkpt lat="49.92438" lon="1.07979">
        <ele>10.8</ele>
        <time>2020-06-18T11:24:38Z</time>
      </trkpt>
      <trkpt lat="49.92438" lon="1.07984">
        <ele>10.5</ele>
        <time>2020-06-18T11:24:39Z</time>
      </trkpt>
      <trkpt lat="49.92439" lon="1.07988">
        <ele>10.4</ele>
        <time>2020-06-18T11:24:40Z</time>
      </trkpt>
      <trkpt lat="49.92441" lon="1.07994">
        <ele>10.3</ele>
        <time>2020-06-18T11:24:41Z</time>
      </trkpt>
      <trkpt lat="49.92441" lon="1.07999">
        <ele>10.1</ele>
        <time>2020-06-18T11:24:42Z</time>
      </trkpt>
      <trkpt lat="49.92441" lon="1.08004">
        <ele>9.9</ele>
        <time>2020-06-18T11:24:43Z</time>
      </trkpt>
      <trkpt lat="49.92441" lon="1.08009">
        <ele>9.7</ele>
        <time>2020-06-18T11:24:44Z</time>
      </trkpt>
      <trkpt lat="49.92441" lon="1.08015">
        <ele>9.2</ele>
        <time>2020-06-18T11:24:45Z</time>
      </trkpt>
      <trkpt lat="49.92442" lon="1.08021">
        <ele>9</ele>
        <time>2020-06-18T11:24:46Z</time>
      </trkpt>
      <trkpt lat="49.92441" lon="1.08028">
        <ele>8.5</ele>
        <time>2020-06-18T11:24:47Z</time>
      </trkpt>
      <trkpt lat="49.92438" lon="1.08035">
        <ele>8.1</ele>
        <time>2020-06-18T11:24:48Z</time>
      </trkpt>
      <trkpt lat="49.92437" lon="1.08042">
        <ele>8</ele>
        <time>2020-06-18T11:24:49Z</time>
      </trkpt>
      <trkpt lat="49.92435" lon="1.08047">
        <ele>7.8</ele>
        <time>2020-06-18T11:24:50Z</time>
      </trkpt>
      <trkpt lat="49.92434" lon="1.08054">
        <ele>7.5</ele>
        <time>2020-06-18T11:24:51Z</time>
      </trkpt>
      <trkpt lat="49.92432" lon="1.08059">
        <ele>7.4</ele>
        <time>2020-06-18T11:24:52Z</time>
      </trkpt>
      <trkpt lat="49.92431" lon="1.08064">
        <ele>7.4</ele>
        <time>2020-06-18T11:24:53Z</time>
      </trkpt>
      <trkpt lat="49.9243" lon="1.08069">
        <ele>7.3</ele>
        <time>2020-06-18T11:24:54Z</time>
      </trkpt>
      <trkpt lat="49.9243" lon="1.08074">
        <ele>7.2</ele>
        <time>2020-06-18T11:24:55Z</time>
      </trkpt>
      <trkpt lat="49.92429" lon="1.08079">
        <ele>7</ele>
        <time>2020-06-18T11:24:56Z</time>
      </trkpt>
      <trkpt lat="49.92428" lon="1.08084">
        <ele>7</ele>
        <time>2020-06-18T11:24:57Z</time>
      </trkpt>
      <trkpt lat="49.92428" lon="1.08089">
        <ele>6.9</ele>
        <time>2020-06-18T11:24:58Z</time>
      </trkpt>
      <trkpt lat="49.92428" lon="1.08091">
        <ele>6.8</ele>
        <time>2020-06-18T11:24:59Z</time>
      </trkpt>
      <trkpt lat="49.92427" lon="1.08096">
        <ele>6.7</ele>
        <time>2020-06-18T11:25:00Z</time>
      </trkpt>
      <trkpt lat="49.92426" lon="1.08097">
        <ele>6.7</ele>
        <time>2020-06-18T11:25:01Z</time>
      </trkpt>
      <trkpt lat="49.92426" lon="1.08099">
        <ele>6.7</ele>
        <time>2020-06-18T11:25:02Z</time>
      </trkpt>
      <trkpt lat="49.92425" lon="1.081">
        <ele>6.7</ele>
        <time>2020-06-18T11:25:03Z</time>
      </trkpt>
      <trkpt lat="49.92425" lon="1.081">
        <ele>6.7</ele>
        <time>2020-06-18T11:25:04Z</time>
      </trkpt>
      <trkpt lat="49.92425" lon="1.081">
        <ele>6.7</ele>
        <time>2020-06-18T11:25:05Z</time>
      </trkpt>
      <trkpt lat="49.92425" lon="1.08101">
        <ele>6.7</ele>
        <time>2020-06-18T11:25:06Z</time>
      </trkpt>
      <trkpt lat="49.92425" lon="1.08102">
        <ele>6.7</ele>
        <time>2020-06-18T11:25:07Z</time>
      </trkpt>
      <trkpt lat="49.92426" lon="1.08104">
        <ele>6.7</ele>
        <time>2020-06-18T11:25:08Z</time>
      </trkpt>
      <trkpt lat="49.92427" lon="1.08105">
        <ele>6.7</ele>
        <time>2020-06-18T11:25:09Z</time>
      </trkpt>
      <trkpt lat="49.92427" lon="1.08105">
        <ele>6.7</ele>
        <time>2020-06-18T11:25:10Z</time>
      </trkpt>
      <trkpt lat="49.92428" lon="1.08105">
        <ele>6.7</ele>
        <time>2020-06-18T11:25:11Z</time>
      </trkpt>
      <trkpt lat="49.92432" lon="1.08101">
        <ele>6.8</ele>
        <time>2020-06-18T11:25:14Z</time>
      </trkpt>
      <trkpt lat="49.92434" lon="1.081">
        <ele>6.8</ele>
        <time>2020-06-18T11:25:15Z</time>
      </trkpt>
      <trkpt lat="49.92436" lon="1.08097">
        <ele>6.8</ele>
        <time>2020-06-18T11:25:16Z</time>
      </trkpt>
      <trkpt lat="49.92438" lon="1.08094">
        <ele>6.8</ele>
        <time>2020-06-18T11:25:17Z</time>
      </trkpt>
      <trkpt lat="49.92439" lon="1.08093">
        <ele>6.8</ele>
        <time>2020-06-18T11:25:18Z</time>
      </trkpt>
      <trkpt lat="49.92442" lon="1.08091">
        <ele>6.8</ele>
        <time>2020-06-18T11:25:19Z</time>
      </trkpt>
      <trkpt lat="49.92443" lon="1.0809">
        <ele>6.8</ele>
        <time>2020-06-18T11:25:20Z</time>
      </trkpt>
      <trkpt lat="49.92447" lon="1.08088">
        <ele>6.8</ele>
        <time>2020-06-18T11:25:21Z</time>
      </trkpt>
      <trkpt lat="49.92449" lon="1.08086">
        <ele>6.8</ele>
        <time>2020-06-18T11:25:22Z</time>
      </trkpt>
      <trkpt lat="49.92452" lon="1.08085">
        <ele>6.9</ele>
        <time>2020-06-18T11:25:23Z</time>
      </trkpt>
      <trkpt lat="49.92455" lon="1.08083">
        <ele>6.9</ele>
        <time>2020-06-18T11:25:24Z</time>
      </trkpt>
      <trkpt lat="49.92458" lon="1.08082">
        <ele>6.9</ele>
        <time>2020-06-18T11:25:25Z</time>
      </trkpt>
      <trkpt lat="49.92459" lon="1.08081">
        <ele>6.9</ele>
        <time>2020-06-18T11:25:26Z</time>
      </trkpt>
      <trkpt lat="49.92462" lon="1.08078">
        <ele>6.9</ele>
        <time>2020-06-18T11:25:27Z</time>
      </trkpt>
      <trkpt lat="49.92462" lon="1.08077">
        <ele>6.9</ele>
        <time>2020-06-18T11:25:28Z</time>
      </trkpt>
      <trkpt lat="49.92464" lon="1.08072">
        <ele>6.9</ele>
        <time>2020-06-18T11:25:29Z</time>
      </trkpt>
      <trkpt lat="49.92465" lon="1.08071">
        <ele>6.9</ele>
        <time>2020-06-18T11:25:30Z</time>
      </trkpt>
      <trkpt lat="49.92467" lon="1.08067">
        <ele>6.9</ele>
        <time>2020-06-18T11:25:31Z</time>
      </trkpt>
      <trkpt lat="49.92467" lon="1.08066">
        <ele>6.9</ele>
        <time>2020-06-18T11:25:32Z</time>
      </trkpt>
      <trkpt lat="49.92468" lon="1.08064">
        <ele>7</ele>
        <time>2020-06-18T11:25:33Z</time>
      </trkpt>
      <trkpt lat="49.92469" lon="1.08063">
        <ele>7</ele>
        <time>2020-06-18T11:25:34Z</time>
      </trkpt>
      <trkpt lat="49.9247" lon="1.08064">
        <ele>7</ele>
        <time>2020-06-18T11:25:35Z</time>
      </trkpt>
      <trkpt lat="49.9247" lon="1.08064">
        <ele>7</ele>
        <time>2020-06-18T11:25:36Z</time>
      </trkpt>
      <trkpt lat="49.92472" lon="1.08064">
        <ele>7</ele>
        <time>2020-06-18T11:25:37Z</time>
      </trkpt>
      <trkpt lat="49.92474" lon="1.08065">
        <ele>7</ele>
        <time>2020-06-18T11:25:38Z</time>
      </trkpt>
      <trkpt lat="49.92477" lon="1.08064">
        <ele>7</ele>
        <time>2020-06-18T11:25:39Z</time>
      </trkpt>
      <trkpt lat="49.92478" lon="1.08063">
        <ele>7</ele>
        <time>2020-06-18T11:25:40Z</time>
      </trkpt>
      <trkpt lat="49.92481" lon="1.08061">
        <ele>7</ele>
        <time>2020-06-18T11:25:41Z</time>
      </trkpt>
      <trkpt lat="49.92483" lon="1.08059">
        <ele>7</ele>
        <time>2020-06-18T11:25:42Z</time>
      </trkpt>
      <trkpt lat="49.92487" lon="1.08057">
        <ele>7</ele>
        <time>2020-06-18T11:25:43Z</time>
      </trkpt>
      <trkpt lat="49.92488" lon="1.08057">
        <ele>7</ele>
        <time>2020-06-18T11:25:44Z</time>
      </trkpt>
      <trkpt lat="49.92491" lon="1.08054">
        <ele>7</ele>
        <time>2020-06-18T11:25:45Z</time>
      </trkpt>
      <trkpt lat="49.92493" lon="1.08052">
        <ele>7</ele>
        <time>2020-06-18T11:25:46Z</time>
      </trkpt>
      <trkpt lat="49.92496" lon="1.08049">
        <ele>7</ele>
        <time>2020-06-18T11:25:47Z</time>
      </trkpt>
      <trkpt lat="49.92497" lon="1.08048">
        <ele>7</ele>
        <time>2020-06-18T11:25:48Z</time>
      </trkpt>
      <trkpt lat="49.92498" lon="1.08046">
        <ele>7</ele>
        <time>2020-06-18T11:25:49Z</time>
      </trkpt>
      <trkpt lat="49.92499" lon="1.08045">
        <ele>7</ele>
        <time>2020-06-18T11:25:50Z</time>
      </trkpt>
      <trkpt lat="49.92501" lon="1.08044">
        <ele>7</ele>
        <time>2020-06-18T11:25:51Z</time>
      </trkpt>
      <trkpt lat="49.92502" lon="1.08044">
        <ele>7</ele>
        <time>2020-06-18T11:25:52Z</time>
      </trkpt>
      <trkpt lat="49.92503" lon="1.08042">
        <ele>7</ele>
        <time>2020-06-18T11:25:53Z</time>
      </trkpt>
      <trkpt lat="49.92503" lon="1.08042">
        <ele>7</ele>
        <time>2020-06-18T11:25:54Z</time>
      </trkpt>
      <trkpt lat="49.92503" lon="1.08042">
        <ele>7</ele>
        <time>2020-06-18T11:25:55Z</time>
      </trkpt>
      <trkpt lat="49.92504" lon="1.08041">
        <ele>7</ele>
        <time>2020-06-18T11:25:56Z</time>
      </trkpt>
      <trkpt lat="49.92504" lon="1.08041">
        <ele>7</ele>
        <time>2020-06-18T11:25:57Z</time>
      </trkpt>
      <trkpt lat="49.92504" lon="1.08041">
        <ele>7</ele>
        <time>2020-06-18T11:25:58Z</time>
      </trkpt>
      <trkpt lat="49.92505" lon="1.0804">
        <ele>7</ele>
        <time>2020-06-18T11:25:59Z</time>
      </trkpt>
      <trkpt lat="49.92506" lon="1.08038">
        <ele>7</ele>
        <time>2020-06-18T11:26:00Z</time>
      </trkpt>
      <trkpt lat="49.92507" lon="1.08037">
        <ele>7</ele>
        <time>2020-06-18T11:26:01Z</time>
      </trkpt>
      <trkpt lat="49.92508" lon="1.08036">
        <ele>7</ele>
        <time>2020-06-18T11:26:02Z</time>
      </trkpt>
      <trkpt lat="49.92512" lon="1.08035">
        <ele>7</ele>
        <time>2020-06-18T11:26:03Z</time>
      </trkpt>
      <trkpt lat="49.92512" lon="1.08034">
        <ele>7</ele>
        <time>2020-06-18T11:26:04Z</time>
      </trkpt>
      <trkpt lat="49.92515" lon="1.08033">
        <ele>7</ele>
        <time>2020-06-18T11:26:05Z</time>
      </trkpt>
      <trkpt lat="49.92516" lon="1.08033">
        <ele>7</ele>
        <time>2020-06-18T11:26:06Z</time>
      </trkpt>
      <trkpt lat="49.92519" lon="1.08031">
        <ele>7</ele>
        <time>2020-06-18T11:26:07Z</time>
      </trkpt>
      <trkpt lat="49.9252" lon="1.08031">
        <ele>7</ele>
        <time>2020-06-18T11:26:08Z</time>
      </trkpt>
      <trkpt lat="49.92523" lon="1.08029">
        <ele>7</ele>
        <time>2020-06-18T11:26:09Z</time>
      </trkpt>
      <trkpt lat="49.92524" lon="1.08028">
        <ele>7</ele>
        <time>2020-06-18T11:26:10Z</time>
      </trkpt>
      <trkpt lat="49.92526" lon="1.08027">
        <ele>7</ele>
        <time>2020-06-18T11:26:11Z</time>
      </trkpt>
      <trkpt lat="49.92527" lon="1.08025">
        <ele>7</ele>
        <time>2020-06-18T11:26:12Z</time>
      </trkpt>
      <trkpt lat="49.92528" lon="1.08024">
        <ele>7</ele>
        <time>2020-06-18T11:26:13Z</time>
      </trkpt>
      <trkpt lat="49.9253" lon="1.08022">
        <ele>7</ele>
        <time>2020-06-18T11:26:14Z</time>
      </trkpt>
      <trkpt lat="49.92533" lon="1.0802">
        <ele>7</ele>
        <time>2020-06-18T11:26:15Z</time>
      </trkpt>
      <trkpt lat="49.92534" lon="1.08019">
        <ele>7</ele>
        <time>2020-06-18T11:26:16Z</time>
      </trkpt>
      <trkpt lat="49.92536" lon="1.08018">
        <ele>7</ele>
        <time>2020-06-18T11:26:17Z</time>
      </trkpt>
      <trkpt lat="49.92537" lon="1.08017">
        <ele>7</ele>
        <time>2020-06-18T11:26:18Z</time>
      </trkpt>
      <trkpt lat="49.92537" lon="1.08016">
        <ele>7</ele>
        <time>2020-06-18T11:26:19Z</time>
      </trkpt>
      <trkpt lat="49.9254" lon="1.08014">
        <ele>7</ele>
        <time>2020-06-18T11:26:20Z</time>
      </trkpt>
      <trkpt lat="49.92541" lon="1.08014">
        <ele>7.1</ele>
        <time>2020-06-18T11:26:21Z</time>
      </trkpt>
      <trkpt lat="49.92541" lon="1.08012">
        <ele>7.1</ele>
        <time>2020-06-18T11:26:22Z</time>
      </trkpt>
      <trkpt lat="49.92542" lon="1.0801">
        <ele>7.1</ele>
        <time>2020-06-18T11:26:23Z</time>
      </trkpt>
      <trkpt lat="49.92544" lon="1.08009">
        <ele>7.1</ele>
        <time>2020-06-18T11:26:24Z</time>
      </trkpt>
      <trkpt lat="49.92546" lon="1.08008">
        <ele>6.9</ele>
        <time>2020-06-18T11:26:25Z</time>
      </trkpt>
      <trkpt lat="49.92549" lon="1.08007">
        <ele>6.9</ele>
        <time>2020-06-18T11:26:26Z</time>
      </trkpt>
      <trkpt lat="49.9255" lon="1.08006">
        <ele>6.9</ele>
        <time>2020-06-18T11:26:27Z</time>
      </trkpt>
      <trkpt lat="49.92554" lon="1.08005">
        <ele>6.9</ele>
        <time>2020-06-18T11:26:28Z</time>
      </trkpt>
      <trkpt lat="49.92556" lon="1.08004">
        <ele>6.9</ele>
        <time>2020-06-18T11:26:29Z</time>
      </trkpt>
      <trkpt lat="49.9256" lon="1.08002">
        <ele>6.9</ele>
        <time>2020-06-18T11:26:30Z</time>
      </trkpt>
      <trkpt lat="49.92561" lon="1.08001">
        <ele>6.9</ele>
        <time>2020-06-18T11:26:31Z</time>
      </trkpt>
      <trkpt lat="49.92564" lon="1.07998">
        <ele>6.9</ele>
        <time>2020-06-18T11:26:32Z</time>
      </trkpt>
      <trkpt lat="49.92564" lon="1.07998">
        <ele>6.9</ele>
        <time>2020-06-18T11:26:33Z</time>
      </trkpt>
      <trkpt lat="49.92568" lon="1.07996">
        <ele>6.9</ele>
        <time>2020-06-18T11:26:34Z</time>
      </trkpt>
      <trkpt lat="49.9257" lon="1.07995">
        <ele>6.9</ele>
        <time>2020-06-18T11:26:35Z</time>
      </trkpt>
      <trkpt lat="49.92573" lon="1.07992">
        <ele>6.9</ele>
        <time>2020-06-18T11:26:36Z</time>
      </trkpt>
      <trkpt lat="49.92574" lon="1.07992">
        <ele>6.9</ele>
        <time>2020-06-18T11:26:37Z</time>
      </trkpt>
      <trkpt lat="49.92575" lon="1.07991">
        <ele>6.9</ele>
        <time>2020-06-18T11:26:38Z</time>
      </trkpt>
      <trkpt lat="49.92576" lon="1.0799">
        <ele>6.9</ele>
        <time>2020-06-18T11:26:39Z</time>
      </trkpt>
      <trkpt lat="49.92579" lon="1.07987">
        <ele>6.9</ele>
        <time>2020-06-18T11:26:40Z</time>
      </trkpt>
      <trkpt lat="49.92581" lon="1.07986">
        <ele>6.9</ele>
        <time>2020-06-18T11:26:41Z</time>
      </trkpt>
      <trkpt lat="49.92583" lon="1.07983">
        <ele>6.9</ele>
        <time>2020-06-18T11:26:42Z</time>
      </trkpt>
      <trkpt lat="49.92584" lon="1.07982">
        <ele>7</ele>
        <time>2020-06-18T11:26:43Z</time>
      </trkpt>
      <trkpt lat="49.92587" lon="1.07979">
        <ele>7</ele>
        <time>2020-06-18T11:26:44Z</time>
      </trkpt>
      <trkpt lat="49.92588" lon="1.07978">
        <ele>7</ele>
        <time>2020-06-18T11:26:45Z</time>
      </trkpt>
      <trkpt lat="49.92592" lon="1.07977">
        <ele>7</ele>
        <time>2020-06-18T11:26:46Z</time>
      </trkpt>
      <trkpt lat="49.92593" lon="1.07976">
        <ele>7</ele>
        <time>2020-06-18T11:26:47Z</time>
      </trkpt>
      <trkpt lat="49.92594" lon="1.07975">
        <ele>7</ele>
        <time>2020-06-18T11:26:48Z</time>
      </trkpt>
      <trkpt lat="49.92596" lon="1.07974">
        <ele>7</ele>
        <time>2020-06-18T11:26:49Z</time>
      </trkpt>
      <trkpt lat="49.92597" lon="1.07972">
        <ele>7</ele>
        <time>2020-06-18T11:26:50Z</time>
      </trkpt>
      <trkpt lat="49.92598" lon="1.07971">
        <ele>7</ele>
        <time>2020-06-18T11:26:51Z</time>
      </trkpt>
      <trkpt lat="49.92601" lon="1.07969">
        <ele>7</ele>
        <time>2020-06-18T11:26:52Z</time>
      </trkpt>
      <trkpt lat="49.92602" lon="1.07969">
        <ele>7</ele>
        <time>2020-06-18T11:26:53Z</time>
      </trkpt>
      <trkpt lat="49.92604" lon="1.07968">
        <ele>7.1</ele>
        <time>2020-06-18T11:26:54Z</time>
      </trkpt>
      <trkpt lat="49.92605" lon="1.07966">
        <ele>7.1</ele>
        <time>2020-06-18T11:26:55Z</time>
      </trkpt>
      <trkpt lat="49.92607" lon="1.07966">
        <ele>7.1</ele>
        <time>2020-06-18T11:26:56Z</time>
      </trkpt>
      <trkpt lat="49.92608" lon="1.07964">
        <ele>7.1</ele>
        <time>2020-06-18T11:26:57Z</time>
      </trkpt>
      <trkpt lat="49.9261" lon="1.07963">
        <ele>7.1</ele>
        <time>2020-06-18T11:26:58Z</time>
      </trkpt>
      <trkpt lat="49.92611" lon="1.07962">
        <ele>7.1</ele>
        <time>2020-06-18T11:26:59Z</time>
      </trkpt>
      <trkpt lat="49.92615" lon="1.07962">
        <ele>7.2</ele>
        <time>2020-06-18T11:27:00Z</time>
      </trkpt>
      <trkpt lat="49.92615" lon="1.07962">
        <ele>7.2</ele>
        <time>2020-06-18T11:27:01Z</time>
      </trkpt>
      <trkpt lat="49.92617" lon="1.07961">
        <ele>7.2</ele>
        <time>2020-06-18T11:27:02Z</time>
      </trkpt>
      <trkpt lat="49.92618" lon="1.0796">
        <ele>7.2</ele>
        <time>2020-06-18T11:27:03Z</time>
      </trkpt>
      <trkpt lat="49.92619" lon="1.0796">
        <ele>7.2</ele>
        <time>2020-06-18T11:27:04Z</time>
      </trkpt>
      <trkpt lat="49.92621" lon="1.07959">
        <ele>7.2</ele>
        <time>2020-06-18T11:27:05Z</time>
      </trkpt>
      <trkpt lat="49.92623" lon="1.07958">
        <ele>7.2</ele>
        <time>2020-06-18T11:27:06Z</time>
      </trkpt>
      <trkpt lat="49.92624" lon="1.07957">
        <ele>7.2</ele>
        <time>2020-06-18T11:27:07Z</time>
      </trkpt>
      <trkpt lat="49.92624" lon="1.07955">
        <ele>7.3</ele>
        <time>2020-06-18T11:27:08Z</time>
      </trkpt>
      <trkpt lat="49.92626" lon="1.07954">
        <ele>7.4</ele>
        <time>2020-06-18T11:27:09Z</time>
      </trkpt>
      <trkpt lat="49.92627" lon="1.07953">
        <ele>7.4</ele>
        <time>2020-06-18T11:27:10Z</time>
      </trkpt>
      <trkpt lat="49.92629" lon="1.07952">
        <ele>7.4</ele>
        <time>2020-06-18T11:27:11Z</time>
      </trkpt>
      <trkpt lat="49.92631" lon="1.07953">
        <ele>7.4</ele>
        <time>2020-06-18T11:27:12Z</time>
      </trkpt>
      <trkpt lat="49.92632" lon="1.07953">
        <ele>7.4</ele>
        <time>2020-06-18T11:27:13Z</time>
      </trkpt>
      <trkpt lat="49.92634" lon="1.07953">
        <ele>7.4</ele>
        <time>2020-06-18T11:27:14Z</time>
      </trkpt>
      <trkpt lat="49.92636" lon="1.07953">
        <ele>7.4</ele>
        <time>2020-06-18T11:27:15Z</time>
      </trkpt>
      <trkpt lat="49.92638" lon="1.0795">
        <ele>7.6</ele>
        <time>2020-06-18T11:27:16Z</time>
      </trkpt>
      <trkpt lat="49.92639" lon="1.07949">
        <ele>7.6</ele>
        <time>2020-06-18T11:27:17Z</time>
      </trkpt>
      <trkpt lat="49.92642" lon="1.07948">
        <ele>7.6</ele>
        <time>2020-06-18T11:27:18Z</time>
      </trkpt>
      <trkpt lat="49.92643" lon="1.07947">
        <ele>7.6</ele>
        <time>2020-06-18T11:27:19Z</time>
      </trkpt>
      <trkpt lat="49.92644" lon="1.07946">
        <ele>7.5</ele>
        <time>2020-06-18T11:27:20Z</time>
      </trkpt>
      <trkpt lat="49.92645" lon="1.07945">
        <ele>7.5</ele>
        <time>2020-06-18T11:27:21Z</time>
      </trkpt>
      <trkpt lat="49.92647" lon="1.07943">
        <ele>7.5</ele>
        <time>2020-06-18T11:27:22Z</time>
      </trkpt>
      <trkpt lat="49.92648" lon="1.07942">
        <ele>7.5</ele>
        <time>2020-06-18T11:27:23Z</time>
      </trkpt>
      <trkpt lat="49.92648" lon="1.07941">
        <ele>7.5</ele>
        <time>2020-06-18T11:27:24Z</time>
      </trkpt>
      <trkpt lat="49.9265" lon="1.07939">
        <ele>7.5</ele>
        <time>2020-06-18T11:27:25Z</time>
      </trkpt>
      <trkpt lat="49.92651" lon="1.07937">
        <ele>7.5</ele>
        <time>2020-06-18T11:27:26Z</time>
      </trkpt>
      <trkpt lat="49.92652" lon="1.07937">
        <ele>7.5</ele>
        <time>2020-06-18T11:27:27Z</time>
      </trkpt>
      <trkpt lat="49.92653" lon="1.07935">
        <ele>7.5</ele>
        <time>2020-06-18T11:27:28Z</time>
      </trkpt>
      <trkpt lat="49.92655" lon="1.07934">
        <ele>7.5</ele>
        <time>2020-06-18T11:27:29Z</time>
      </trkpt>
      <trkpt lat="49.92656" lon="1.07933">
        <ele>7.5</ele>
        <time>2020-06-18T11:27:30Z</time>
      </trkpt>
      <trkpt lat="49.92656" lon="1.07932">
        <ele>7.5</ele>
        <time>2020-06-18T11:27:31Z</time>
      </trkpt>
      <trkpt lat="49.92658" lon="1.07932">
        <ele>7.5</ele>
        <time>2020-06-18T11:27:32Z</time>
      </trkpt>
      <trkpt lat="49.9266" lon="1.07933">
        <ele>7.5</ele>
        <time>2020-06-18T11:27:33Z</time>
      </trkpt>
      <trkpt lat="49.92663" lon="1.07932">
        <ele>7.5</ele>
        <time>2020-06-18T11:27:34Z</time>
      </trkpt>
      <trkpt lat="49.92663" lon="1.07932">
        <ele>7.5</ele>
        <time>2020-06-18T11:27:35Z</time>
      </trkpt>
      <trkpt lat="49.92664" lon="1.07931">
        <ele>7.5</ele>
        <time>2020-06-18T11:27:36Z</time>
      </trkpt>
      <trkpt lat="49.92665" lon="1.0793">
        <ele>7.5</ele>
        <time>2020-06-18T11:27:37Z</time>
      </trkpt>
      <trkpt lat="49.92665" lon="1.07928">
        <ele>7.5</ele>
        <time>2020-06-18T11:27:38Z</time>
      </trkpt>
      <trkpt lat="49.92667" lon="1.07927">
        <ele>7.5</ele>
        <time>2020-06-18T11:27:39Z</time>
      </trkpt>
      <trkpt lat="49.92668" lon="1.07926">
        <ele>7.5</ele>
        <time>2020-06-18T11:27:40Z</time>
      </trkpt>
      <trkpt lat="49.92669" lon="1.07925">
        <ele>7.5</ele>
        <time>2020-06-18T11:27:41Z</time>
      </trkpt>
      <trkpt lat="49.9267" lon="1.07924">
        <ele>7.5</ele>
        <time>2020-06-18T11:27:42Z</time>
      </trkpt>
      <trkpt lat="49.9267" lon="1.07924">
        <ele>7.5</ele>
        <time>2020-06-18T11:27:43Z</time>
      </trkpt>
      <trkpt lat="49.92671" lon="1.07923">
        <ele>7.5</ele>
        <time>2020-06-18T11:27:44Z</time>
      </trkpt>
      <trkpt lat="49.92671" lon="1.0792">
        <ele>7.5</ele>
        <time>2020-06-18T11:27:45Z</time>
      </trkpt>
      <trkpt lat="49.92671" lon="1.0792">
        <ele>7.5</ele>
        <time>2020-06-18T11:27:46Z</time>
      </trkpt>
      <trkpt lat="49.92672" lon="1.07919">
        <ele>7.5</ele>
        <time>2020-06-18T11:27:47Z</time>
      </trkpt>
      <trkpt lat="49.92673" lon="1.07919">
        <ele>7.5</ele>
        <time>2020-06-18T11:27:48Z</time>
      </trkpt>
      <trkpt lat="49.92674" lon="1.07919">
        <ele>7.5</ele>
        <time>2020-06-18T11:27:49Z</time>
      </trkpt>
      <trkpt lat="49.92674" lon="1.0792">
        <ele>7.5</ele>
        <time>2020-06-18T11:27:50Z</time>
      </trkpt>
      <trkpt lat="49.92675" lon="1.07921">
        <ele>7.5</ele>
        <time>2020-06-18T11:27:51Z</time>
      </trkpt>
      <trkpt lat="49.92676" lon="1.07924">
        <ele>7.5</ele>
        <time>2020-06-18T11:27:52Z</time>
      </trkpt>
      <trkpt lat="49.92676" lon="1.07924">
        <ele>7.5</ele>
        <time>2020-06-18T11:27:53Z</time>
      </trkpt>
      <trkpt lat="49.92677" lon="1.07925">
        <ele>7.6</ele>
        <time>2020-06-18T11:27:54Z</time>
      </trkpt>
      <trkpt lat="49.92677" lon="1.07926">
        <ele>7.6</ele>
        <time>2020-06-18T11:27:55Z</time>
      </trkpt>
      <trkpt lat="49.92678" lon="1.07927">
        <ele>7.6</ele>
        <time>2020-06-18T11:27:56Z</time>
      </trkpt>
      <trkpt lat="49.92679" lon="1.07926">
        <ele>7.6</ele>
        <time>2020-06-18T11:27:57Z</time>
      </trkpt>
      <trkpt lat="49.92679" lon="1.07926">
        <ele>7.6</ele>
        <time>2020-06-18T11:27:58Z</time>
      </trkpt>
      <trkpt lat="49.92679" lon="1.07925">
        <ele>7.6</ele>
        <time>2020-06-18T11:27:59Z</time>
      </trkpt>
      <trkpt lat="49.92681" lon="1.07926">
        <ele>7.6</ele>
        <time>2020-06-18T11:28:00Z</time>
      </trkpt>
      <trkpt lat="49.92683" lon="1.07925">
        <ele>7.6</ele>
        <time>2020-06-18T11:28:01Z</time>
      </trkpt>
      <trkpt lat="49.92684" lon="1.07924">
        <ele>7.6</ele>
        <time>2020-06-18T11:28:02Z</time>
      </trkpt>
      <trkpt lat="49.92686" lon="1.07924">
        <ele>7.6</ele>
        <time>2020-06-18T11:28:03Z</time>
      </trkpt>
      <trkpt lat="49.9269" lon="1.07922">
        <ele>7.6</ele>
        <time>2020-06-18T11:28:04Z</time>
      </trkpt>
      <trkpt lat="49.92691" lon="1.07922">
        <ele>7.7</ele>
        <time>2020-06-18T11:28:05Z</time>
      </trkpt>
      <trkpt lat="49.92693" lon="1.07923">
        <ele>7.7</ele>
        <time>2020-06-18T11:28:06Z</time>
      </trkpt>
      <trkpt lat="49.92694" lon="1.07922">
        <ele>7.7</ele>
        <time>2020-06-18T11:28:07Z</time>
      </trkpt>
      <trkpt lat="49.92695" lon="1.07923">
        <ele>7.7</ele>
        <time>2020-06-18T11:28:08Z</time>
      </trkpt>
      <trkpt lat="49.92696" lon="1.07922">
        <ele>7.7</ele>
        <time>2020-06-18T11:28:09Z</time>
      </trkpt>
      <trkpt lat="49.92697" lon="1.07921">
        <ele>7.7</ele>
        <time>2020-06-18T11:28:10Z</time>
      </trkpt>
      <trkpt lat="49.92698" lon="1.0792">
        <ele>7.7</ele>
        <time>2020-06-18T11:28:11Z</time>
      </trkpt>
      <trkpt lat="49.92699" lon="1.07919">
        <ele>7.7</ele>
        <time>2020-06-18T11:28:12Z</time>
      </trkpt>
      <trkpt lat="49.927" lon="1.07921">
        <ele>7.7</ele>
        <time>2020-06-18T11:28:13Z</time>
      </trkpt>
      <trkpt lat="49.927" lon="1.07922">
        <ele>7.7</ele>
        <time>2020-06-18T11:28:14Z</time>
      </trkpt>
      <trkpt lat="49.92701" lon="1.07922">
        <ele>7.7</ele>
        <time>2020-06-18T11:28:15Z</time>
      </trkpt>
      <trkpt lat="49.92701" lon="1.07922">
        <ele>7.7</ele>
        <time>2020-06-18T11:28:16Z</time>
      </trkpt>
      <trkpt lat="49.92702" lon="1.07922">
        <ele>7.7</ele>
        <time>2020-06-18T11:28:17Z</time>
      </trkpt>
      <trkpt lat="49.92702" lon="1.07921">
        <ele>7.7</ele>
        <time>2020-06-18T11:28:18Z</time>
      </trkpt>
      <trkpt lat="49.92702" lon="1.07921">
        <ele>7.7</ele>
        <time>2020-06-18T11:28:19Z</time>
      </trkpt>
      <trkpt lat="49.92702" lon="1.0792">
        <ele>7.7</ele>
        <time>2020-06-18T11:28:20Z</time>
      </trkpt>
      <trkpt lat="49.92702" lon="1.0792">
        <ele>7.7</ele>
        <time>2020-06-18T11:28:21Z</time>
      </trkpt>
      <trkpt lat="49.92702" lon="1.0792">
        <ele>7.7</ele>
        <time>2020-06-18T11:28:22Z</time>
      </trkpt>
      <trkpt lat="49.92702" lon="1.0792">
        <ele>7.7</ele>
        <time>2020-06-18T11:28:23Z</time>
      </trkpt>
      <trkpt lat="49.92703" lon="1.0792">
        <ele>7.7</ele>
        <time>2020-06-18T11:28:24Z</time>
      </trkpt>
      <trkpt lat="49.92702" lon="1.0792">
        <ele>7.7</ele>
        <time>2020-06-18T11:28:25Z</time>
      </trkpt>
      <trkpt lat="49.92702" lon="1.07919">
        <ele>7.7</ele>
        <time>2020-06-18T11:28:26Z</time>
      </trkpt>
      <trkpt lat="49.92703" lon="1.07919">
        <ele>7.8</ele>
        <time>2020-06-18T11:28:27Z</time>
      </trkpt>
      <trkpt lat="49.92703" lon="1.07918">
        <ele>7.8</ele>
        <time>2020-06-18T11:28:28Z</time>
      </trkpt>
      <trkpt lat="49.92703" lon="1.07917">
        <ele>7.8</ele>
        <time>2020-06-18T11:28:29Z</time>
      </trkpt>
      <trkpt lat="49.92703" lon="1.07916">
        <ele>7.8</ele>
        <time>2020-06-18T11:28:30Z</time>
      </trkpt>
      <trkpt lat="49.92704" lon="1.07915">
        <ele>7.8</ele>
        <time>2020-06-18T11:28:31Z</time>
      </trkpt>
      <trkpt lat="49.92704" lon="1.07914">
        <ele>7.8</ele>
        <time>2020-06-18T11:28:32Z</time>
      </trkpt>
      <trkpt lat="49.92703" lon="1.07913">
        <ele>7.8</ele>
        <time>2020-06-18T11:28:33Z</time>
      </trkpt>
      <trkpt lat="49.92703" lon="1.07913">
        <ele>7.8</ele>
        <time>2020-06-18T11:28:34Z</time>
      </trkpt>
      <trkpt lat="49.92704" lon="1.07912">
        <ele>7.8</ele>
        <time>2020-06-18T11:28:35Z</time>
      </trkpt>
      <trkpt lat="49.92704" lon="1.07912">
        <ele>7.8</ele>
        <time>2020-06-18T11:28:36Z</time>
      </trkpt>
      <trkpt lat="49.92704" lon="1.07911">
        <ele>7.8</ele>
        <time>2020-06-18T11:28:37Z</time>
      </trkpt>
      <trkpt lat="49.92704" lon="1.0791">
        <ele>7.8</ele>
        <time>2020-06-18T11:28:38Z</time>
      </trkpt>
      <trkpt lat="49.92705" lon="1.07908">
        <ele>7.8</ele>
        <time>2020-06-18T11:28:39Z</time>
      </trkpt>
      <trkpt lat="49.92705" lon="1.07907">
        <ele>7.8</ele>
        <time>2020-06-18T11:28:40Z</time>
      </trkpt>
      <trkpt lat="49.92705" lon="1.07905">
        <ele>7.8</ele>
        <time>2020-06-18T11:28:41Z</time>
      </trkpt>
      <trkpt lat="49.92705" lon="1.07904">
        <ele>7.8</ele>
        <time>2020-06-18T11:28:42Z</time>
      </trkpt>
      <trkpt lat="49.92706" lon="1.07903">
        <ele>7.8</ele>
        <time>2020-06-18T11:28:43Z</time>
      </trkpt>
      <trkpt lat="49.92706" lon="1.07902">
        <ele>7.8</ele>
        <time>2020-06-18T11:28:44Z</time>
      </trkpt>
      <trkpt lat="49.92706" lon="1.07901">
        <ele>7.8</ele>
        <time>2020-06-18T11:28:45Z</time>
      </trkpt>
      <trkpt lat="49.92706" lon="1.07901">
        <ele>7.8</ele>
        <time>2020-06-18T11:28:46Z</time>
      </trkpt>
      <trkpt lat="49.92706" lon="1.079">
        <ele>7.8</ele>
        <time>2020-06-18T11:28:47Z</time>
      </trkpt>
      <trkpt lat="49.92706" lon="1.07899">
        <ele>7.8</ele>
        <time>2020-06-18T11:28:48Z</time>
      </trkpt>
      <trkpt lat="49.92706" lon="1.07898">
        <ele>7.9</ele>
        <time>2020-06-18T11:28:49Z</time>
      </trkpt>
      <trkpt lat="49.92706" lon="1.07898">
        <ele>7.9</ele>
        <time>2020-06-18T11:28:50Z</time>
      </trkpt>
      <trkpt lat="49.92706" lon="1.07897">
        <ele>7.9</ele>
        <time>2020-06-18T11:28:51Z</time>
      </trkpt>
      <trkpt lat="49.92706" lon="1.07896">
        <ele>7.9</ele>
        <time>2020-06-18T11:28:52Z</time>
      </trkpt>
      <trkpt lat="49.92707" lon="1.07896">
        <ele>7.9</ele>
        <time>2020-06-18T11:28:53Z</time>
      </trkpt>
      <trkpt lat="49.92706" lon="1.07895">
        <ele>7.9</ele>
        <time>2020-06-18T11:28:54Z</time>
      </trkpt>
      <trkpt lat="49.92706" lon="1.07895">
        <ele>7.9</ele>
        <time>2020-06-18T11:28:55Z</time>
      </trkpt>
      <trkpt lat="49.92706" lon="1.07895">
        <ele>7.9</ele>
        <time>2020-06-18T11:28:56Z</time>
      </trkpt>
      <trkpt lat="49.92706" lon="1.07895">
        <ele>7.9</ele>
        <time>2020-06-18T11:28:57Z</time>
      </trkpt>
      <trkpt lat="49.92706" lon="1.07895">
        <ele>7.9</ele>
        <time>2020-06-18T11:28:58Z</time>
      </trkpt>
      <trkpt lat="49.92707" lon="1.07895">
        <ele>7.9</ele>
        <time>2020-06-18T11:28:59Z</time>
      </trkpt>
      <trkpt lat="49.92707" lon="1.07895">
        <ele>7.9</ele>
        <time>2020-06-18T11:29:00Z</time>
      </trkpt>
      <trkpt lat="49.92709" lon="1.07895">
        <ele>7.9</ele>
        <time>2020-06-18T11:29:01Z</time>
      </trkpt>
      <trkpt lat="49.92712" lon="1.07896">
        <ele>7.9</ele>
        <time>2020-06-18T11:29:02Z</time>
      </trkpt>
      <trkpt lat="49.92715" lon="1.079">
        <ele>7.9</ele>
        <time>2020-06-18T11:29:03Z</time>
      </trkpt>
      <trkpt lat="49.92716" lon="1.07902">
        <ele>7.9</ele>
        <time>2020-06-18T11:29:04Z</time>
      </trkpt>
      <trkpt lat="49.92719" lon="1.07906">
        <ele>8</ele>
        <time>2020-06-18T11:29:05Z</time>
      </trkpt>
      <trkpt lat="49.92718" lon="1.07906">
        <ele>8</ele>
        <time>2020-06-18T11:29:06Z</time>
      </trkpt>
      <trkpt lat="49.92719" lon="1.07909">
        <ele>8</ele>
        <time>2020-06-18T11:29:07Z</time>
      </trkpt>
      <trkpt lat="49.92719" lon="1.0791">
        <ele>8</ele>
        <time>2020-06-18T11:29:08Z</time>
      </trkpt>
      <trkpt lat="49.92719" lon="1.07913">
        <ele>8</ele>
        <time>2020-06-18T11:29:09Z</time>
      </trkpt>
      <trkpt lat="49.92718" lon="1.07914">
        <ele>8</ele>
        <time>2020-06-18T11:29:10Z</time>
      </trkpt>
      <trkpt lat="49.92717" lon="1.07915">
        <ele>8</ele>
        <time>2020-06-18T11:29:11Z</time>
      </trkpt>
      <trkpt lat="49.92716" lon="1.07916">
        <ele>8</ele>
        <time>2020-06-18T11:29:12Z</time>
      </trkpt>
      <trkpt lat="49.92715" lon="1.07916">
        <ele>8</ele>
        <time>2020-06-18T11:29:13Z</time>
      </trkpt>
      <trkpt lat="49.92714" lon="1.07916">
        <ele>8</ele>
        <time>2020-06-18T11:29:14Z</time>
      </trkpt>
      <trkpt lat="49.92714" lon="1.07917">
        <ele>8</ele>
        <time>2020-06-18T11:29:15Z</time>
      </trkpt>
      <trkpt lat="49.92713" lon="1.07917">
        <ele>8</ele>
        <time>2020-06-18T11:29:16Z</time>
      </trkpt>
      <trkpt lat="49.92712" lon="1.07917">
        <ele>8</ele>
        <time>2020-06-18T11:29:17Z</time>
      </trkpt>
      <trkpt lat="49.92711" lon="1.07917">
        <ele>8</ele>
        <time>2020-06-18T11:29:18Z</time>
      </trkpt>
      <trkpt lat="49.9271" lon="1.07916">
        <ele>8</ele>
        <time>2020-06-18T11:29:19Z</time>
      </trkpt>
      <trkpt lat="49.9271" lon="1.07916">
        <ele>8</ele>
        <time>2020-06-18T11:29:20Z</time>
      </trkpt>
      <trkpt lat="49.92709" lon="1.07916">
        <ele>8</ele>
        <time>2020-06-18T11:29:21Z</time>
      </trkpt>
      <trkpt lat="49.92709" lon="1.07916">
        <ele>8</ele>
        <time>2020-06-18T11:29:22Z</time>
      </trkpt>
      <trkpt lat="49.92708" lon="1.07916">
        <ele>8</ele>
        <time>2020-06-18T11:29:23Z</time>
      </trkpt>
      <trkpt lat="49.92708" lon="1.07916">
        <ele>8</ele>
        <time>2020-06-18T11:29:24Z</time>
      </trkpt>
      <trkpt lat="49.92707" lon="1.07916">
        <ele>8.1</ele>
        <time>2020-06-18T11:29:25Z</time>
      </trkpt>
      <trkpt lat="49.92706" lon="1.07915">
        <ele>8.1</ele>
        <time>2020-06-18T11:29:26Z</time>
      </trkpt>
      <trkpt lat="49.92706" lon="1.07915">
        <ele>8.1</ele>
        <time>2020-06-18T11:29:27Z</time>
      </trkpt>
      <trkpt lat="49.92705" lon="1.07914">
        <ele>8.1</ele>
        <time>2020-06-18T11:29:28Z</time>
      </trkpt>
      <trkpt lat="49.92705" lon="1.07913">
        <ele>8.1</ele>
        <time>2020-06-18T11:29:29Z</time>
      </trkpt>
      <trkpt lat="49.92705" lon="1.07912">
        <ele>8.1</ele>
        <time>2020-06-18T11:29:30Z</time>
      </trkpt>
      <trkpt lat="49.92705" lon="1.07911">
        <ele>8.1</ele>
        <time>2020-06-18T11:29:31Z</time>
      </trkpt>
      <trkpt lat="49.92705" lon="1.07909">
        <ele>8.1</ele>
        <time>2020-06-18T11:29:32Z</time>
      </trkpt>
      <trkpt lat="49.92706" lon="1.07908">
        <ele>8.1</ele>
        <time>2020-06-18T11:29:33Z</time>
      </trkpt>
      <trkpt lat="49.92707" lon="1.07907">
        <ele>8.1</ele>
        <time>2020-06-18T11:29:34Z</time>
      </trkpt>
      <trkpt lat="49.92707" lon="1.07905">
        <ele>8.1</ele>
        <time>2020-06-18T11:29:35Z</time>
      </trkpt>
      <trkpt lat="49.92707" lon="1.07903">
        <ele>8.1</ele>
        <time>2020-06-18T11:29:36Z</time>
      </trkpt>
      <trkpt lat="49.92707" lon="1.07902">
        <ele>8.1</ele>
        <time>2020-06-18T11:29:37Z</time>
      </trkpt>
      <trkpt lat="49.92707" lon="1.07901">
        <ele>8.1</ele>
        <time>2020-06-18T11:29:38Z</time>
      </trkpt>
      <trkpt lat="49.92707" lon="1.079">
        <ele>8.1</ele>
        <time>2020-06-18T11:29:39Z</time>
      </trkpt>
      <trkpt lat="49.92707" lon="1.07899">
        <ele>8.1</ele>
        <time>2020-06-18T11:29:40Z</time>
      </trkpt>
      <trkpt lat="49.92708" lon="1.07896">
        <ele>8.1</ele>
        <time>2020-06-18T11:29:41Z</time>
      </trkpt>
      <trkpt lat="49.92708" lon="1.07895">
        <ele>8.4</ele>
        <time>2020-06-18T11:29:42Z</time>
      </trkpt>
      <trkpt lat="49.92709" lon="1.07894">
        <ele>8.4</ele>
        <time>2020-06-18T11:29:43Z</time>
      </trkpt>
      <trkpt lat="49.92709" lon="1.07893">
        <ele>8.4</ele>
        <time>2020-06-18T11:29:44Z</time>
      </trkpt>
      <trkpt lat="49.92709" lon="1.07891">
        <ele>8.4</ele>
        <time>2020-06-18T11:29:45Z</time>
      </trkpt>
      <trkpt lat="49.9271" lon="1.07889">
        <ele>8.4</ele>
        <time>2020-06-18T11:29:46Z</time>
      </trkpt>
      <trkpt lat="49.9271" lon="1.07888">
        <ele>8.4</ele>
        <time>2020-06-18T11:29:47Z</time>
      </trkpt>
      <trkpt lat="49.9271" lon="1.07887">
        <ele>8.4</ele>
        <time>2020-06-18T11:29:48Z</time>
      </trkpt>
      <trkpt lat="49.9271" lon="1.07885">
        <ele>8.4</ele>
        <time>2020-06-18T11:29:49Z</time>
      </trkpt>
      <trkpt lat="49.92711" lon="1.07882">
        <ele>8.4</ele>
        <time>2020-06-18T11:29:50Z</time>
      </trkpt>
      <trkpt lat="49.92711" lon="1.0788">
        <ele>8.4</ele>
        <time>2020-06-18T11:29:51Z</time>
      </trkpt>
      <trkpt lat="49.92712" lon="1.07879">
        <ele>8.4</ele>
        <time>2020-06-18T11:29:52Z</time>
      </trkpt>
      <trkpt lat="49.92711" lon="1.07881">
        <ele>8.4</ele>
        <time>2020-06-18T11:29:53Z</time>
      </trkpt>
      <trkpt lat="49.92712" lon="1.07882">
        <ele>8.4</ele>
        <time>2020-06-18T11:29:54Z</time>
      </trkpt>
      <trkpt lat="49.92712" lon="1.07882">
        <ele>8.4</ele>
        <time>2020-06-18T11:29:55Z</time>
      </trkpt>
      <trkpt lat="49.92712" lon="1.07881">
        <ele>8.4</ele>
        <time>2020-06-18T11:29:56Z</time>
      </trkpt>
      <trkpt lat="49.92712" lon="1.07882">
        <ele>8.4</ele>
        <time>2020-06-18T11:29:57Z</time>
      </trkpt>
      <trkpt lat="49.92713" lon="1.07883">
        <ele>8.4</ele>
        <time>2020-06-18T11:29:58Z</time>
      </trkpt>
      <trkpt lat="49.92716" lon="1.07887">
        <ele>8.4</ele>
        <time>2020-06-18T11:29:59Z</time>
      </trkpt>
      <trkpt lat="49.92717" lon="1.07891">
        <ele>8.4</ele>
        <time>2020-06-18T11:30:00Z</time>
      </trkpt>
      <trkpt lat="49.92718" lon="1.07892">
        <ele>8.4</ele>
        <time>2020-06-18T11:30:01Z</time>
      </trkpt>
      <trkpt lat="49.92719" lon="1.07891">
        <ele>8.4</ele>
        <time>2020-06-18T11:30:02Z</time>
      </trkpt>
      <trkpt lat="49.92719" lon="1.07891">
        <ele>8.4</ele>
        <time>2020-06-18T11:30:03Z</time>
      </trkpt>
      <trkpt lat="49.92719" lon="1.07891">
        <ele>8.4</ele>
        <time>2020-06-18T11:30:04Z</time>
      </trkpt>
      <trkpt lat="49.92731" lon="1.07898">
        <ele>8.7</ele>
        <time>2020-06-18T11:30:20Z</time>
      </trkpt>
      <trkpt lat="49.92731" lon="1.07899">
        <ele>8.7</ele>
        <time>2020-06-18T11:30:21Z</time>
      </trkpt>
      <trkpt lat="49.92731" lon="1.07901">
        <ele>8.7</ele>
        <time>2020-06-18T11:30:22Z</time>
      </trkpt>
      <trkpt lat="49.92731" lon="1.07902">
        <ele>8.7</ele>
        <time>2020-06-18T11:30:23Z</time>
      </trkpt>
      <trkpt lat="49.92732" lon="1.07905">
        <ele>8.7</ele>
        <time>2020-06-18T11:30:24Z</time>
      </trkpt>
      <trkpt lat="49.92731" lon="1.07907">
        <ele>8.7</ele>
        <time>2020-06-18T11:30:25Z</time>
      </trkpt>
      <trkpt lat="49.92732" lon="1.07911">
        <ele>8.7</ele>
        <time>2020-06-18T11:30:26Z</time>
      </trkpt>
      <trkpt lat="49.92732" lon="1.07913">
        <ele>8.5</ele>
        <time>2020-06-18T11:30:27Z</time>
      </trkpt>
      <trkpt lat="49.92734" lon="1.07917">
        <ele>8.5</ele>
        <time>2020-06-18T11:30:28Z</time>
      </trkpt>
      <trkpt lat="49.92735" lon="1.07922">
        <ele>8.5</ele>
        <time>2020-06-18T11:30:29Z</time>
      </trkpt>
      <trkpt lat="49.92737" lon="1.07926">
        <ele>8.3</ele>
        <time>2020-06-18T11:30:30Z</time>
      </trkpt>
      <trkpt lat="49.92737" lon="1.07927">
        <ele>8.3</ele>
        <time>2020-06-18T11:30:31Z</time>
      </trkpt>
      <trkpt lat="49.9274" lon="1.0793">
        <ele>8.3</ele>
        <time>2020-06-18T11:30:32Z</time>
      </trkpt>
      <trkpt lat="49.92741" lon="1.07932">
        <ele>8.2</ele>
        <time>2020-06-18T11:30:33Z</time>
      </trkpt>
      <trkpt lat="49.92743" lon="1.07935">
        <ele>8.2</ele>
        <time>2020-06-18T11:30:34Z</time>
      </trkpt>
      <trkpt lat="49.92745" lon="1.0794">
        <ele>8.2</ele>
        <time>2020-06-18T11:30:35Z</time>
      </trkpt>
      <trkpt lat="49.92746" lon="1.07942">
        <ele>8.1</ele>
        <time>2020-06-18T11:30:36Z</time>
      </trkpt>
      <trkpt lat="49.92748" lon="1.07946">
        <ele>8.1</ele>
        <time>2020-06-18T11:30:37Z</time>
      </trkpt>
      <trkpt lat="49.9275" lon="1.07951">
        <ele>8</ele>
        <time>2020-06-18T11:30:38Z</time>
      </trkpt>
      <trkpt lat="49.92751" lon="1.07954">
        <ele>8</ele>
        <time>2020-06-18T11:30:39Z</time>
      </trkpt>
      <trkpt lat="49.92751" lon="1.07956">
        <ele>8</ele>
        <time>2020-06-18T11:30:40Z</time>
      </trkpt>
      <trkpt lat="49.92753" lon="1.07961">
        <ele>7.9</ele>
        <time>2020-06-18T11:30:41Z</time>
      </trkpt>
      <trkpt lat="49.92754" lon="1.07963">
        <ele>7.9</ele>
        <time>2020-06-18T11:30:42Z</time>
      </trkpt>
      <trkpt lat="49.92755" lon="1.07966">
        <ele>7.8</ele>
        <time>2020-06-18T11:30:43Z</time>
      </trkpt>
      <trkpt lat="49.92756" lon="1.07967">
        <ele>7.8</ele>
        <time>2020-06-18T11:30:44Z</time>
      </trkpt>
      <trkpt lat="49.92757" lon="1.07969">
        <ele>7.8</ele>
        <time>2020-06-18T11:30:45Z</time>
      </trkpt>
      <trkpt lat="49.92758" lon="1.07971">
        <ele>7.8</ele>
        <time>2020-06-18T11:30:46Z</time>
      </trkpt>
      <trkpt lat="49.92759" lon="1.07973">
        <ele>7.7</ele>
        <time>2020-06-18T11:30:47Z</time>
      </trkpt>
      <trkpt lat="49.9276" lon="1.07975">
        <ele>7.7</ele>
        <time>2020-06-18T11:30:48Z</time>
      </trkpt>
      <trkpt lat="49.92762" lon="1.07979">
        <ele>7.7</ele>
        <time>2020-06-18T11:30:49Z</time>
      </trkpt>
      <trkpt lat="49.92763" lon="1.07981">
        <ele>7.7</ele>
        <time>2020-06-18T11:30:50Z</time>
      </trkpt>
      <trkpt lat="49.92765" lon="1.07985">
        <ele>7.7</ele>
        <time>2020-06-18T11:30:51Z</time>
      </trkpt>
      <trkpt lat="49.92766" lon="1.07987">
        <ele>7.6</ele>
        <time>2020-06-18T11:30:52Z</time>
      </trkpt>
      <trkpt lat="49.92768" lon="1.07991">
        <ele>7.6</ele>
        <time>2020-06-18T11:30:53Z</time>
      </trkpt>
      <trkpt lat="49.92769" lon="1.07992">
        <ele>7.6</ele>
        <time>2020-06-18T11:30:54Z</time>
      </trkpt>
      <trkpt lat="49.92771" lon="1.07996">
        <ele>7.6</ele>
        <time>2020-06-18T11:30:55Z</time>
      </trkpt>
      <trkpt lat="49.92772" lon="1.07997">
        <ele>7.6</ele>
        <time>2020-06-18T11:30:56Z</time>
      </trkpt>
      <trkpt lat="49.92775" lon="1.08002">
        <ele>7.6</ele>
        <time>2020-06-18T11:30:57Z</time>
      </trkpt>
      <trkpt lat="49.92776" lon="1.08003">
        <ele>7.6</ele>
        <time>2020-06-18T11:30:58Z</time>
      </trkpt>
      <trkpt lat="49.92778" lon="1.08006">
        <ele>7.6</ele>
        <time>2020-06-18T11:30:59Z</time>
      </trkpt>
      <trkpt lat="49.92778" lon="1.08008">
        <ele>7.6</ele>
        <time>2020-06-18T11:31:00Z</time>
      </trkpt>
      <trkpt lat="49.92781" lon="1.08011">
        <ele>7.7</ele>
        <time>2020-06-18T11:31:01Z</time>
      </trkpt>
      <trkpt lat="49.92782" lon="1.08013">
        <ele>7.7</ele>
        <time>2020-06-18T11:31:02Z</time>
      </trkpt>
      <trkpt lat="49.92784" lon="1.08016">
        <ele>7.7</ele>
        <time>2020-06-18T11:31:03Z</time>
      </trkpt>
      <trkpt lat="49.92786" lon="1.0802">
        <ele>7.7</ele>
        <time>2020-06-18T11:31:04Z</time>
      </trkpt>
      <trkpt lat="49.92789" lon="1.08025">
        <ele>7.7</ele>
        <time>2020-06-18T11:31:05Z</time>
      </trkpt>
      <trkpt lat="49.92792" lon="1.0803">
        <ele>7.8</ele>
        <time>2020-06-18T11:31:06Z</time>
      </trkpt>
      <trkpt lat="49.92795" lon="1.08036">
        <ele>7.8</ele>
        <time>2020-06-18T11:31:07Z</time>
      </trkpt>
      <trkpt lat="49.92798" lon="1.08041">
        <ele>7.8</ele>
        <time>2020-06-18T11:31:08Z</time>
      </trkpt>
      <trkpt lat="49.92801" lon="1.08047">
        <ele>7.7</ele>
        <time>2020-06-18T11:31:09Z</time>
      </trkpt>
      <trkpt lat="49.92804" lon="1.08052">
        <ele>7.7</ele>
        <time>2020-06-18T11:31:10Z</time>
      </trkpt>
      <trkpt lat="49.92807" lon="1.08057">
        <ele>7.7</ele>
        <time>2020-06-18T11:31:11Z</time>
      </trkpt>
      <trkpt lat="49.92809" lon="1.08062">
        <ele>7.6</ele>
        <time>2020-06-18T11:31:12Z</time>
      </trkpt>
      <trkpt lat="49.92812" lon="1.08068">
        <ele>7.6</ele>
        <time>2020-06-18T11:31:13Z</time>
      </trkpt>
      <trkpt lat="49.92814" lon="1.08076">
        <ele>7.6</ele>
        <time>2020-06-18T11:31:14Z</time>
      </trkpt>
      <trkpt lat="49.92818" lon="1.08082">
        <ele>7.5</ele>
        <time>2020-06-18T11:31:15Z</time>
      </trkpt>
      <trkpt lat="49.92821" lon="1.08088">
        <ele>7.5</ele>
        <time>2020-06-18T11:31:16Z</time>
      </trkpt>
      <trkpt lat="49.92824" lon="1.08094">
        <ele>7.4</ele>
        <time>2020-06-18T11:31:17Z</time>
      </trkpt>
      <trkpt lat="49.92827" lon="1.081">
        <ele>7.4</ele>
        <time>2020-06-18T11:31:18Z</time>
      </trkpt>
      <trkpt lat="49.92831" lon="1.08108">
        <ele>7.4</ele>
        <time>2020-06-18T11:31:19Z</time>
      </trkpt>
      <trkpt lat="49.92835" lon="1.08116">
        <ele>7.3</ele>
        <time>2020-06-18T11:31:20Z</time>
      </trkpt>
      <trkpt lat="49.92837" lon="1.08124">
        <ele>7.3</ele>
        <time>2020-06-18T11:31:21Z</time>
      </trkpt>
      <trkpt lat="49.9284" lon="1.08131">
        <ele>7.3</ele>
        <time>2020-06-18T11:31:22Z</time>
      </trkpt>
      <trkpt lat="49.92843" lon="1.08138">
        <ele>7.3</ele>
        <time>2020-06-18T11:31:23Z</time>
      </trkpt>
      <trkpt lat="49.92847" lon="1.08144">
        <ele>7.3</ele>
        <time>2020-06-18T11:31:24Z</time>
      </trkpt>
      <trkpt lat="49.9285" lon="1.0815">
        <ele>7.3</ele>
        <time>2020-06-18T11:31:25Z</time>
      </trkpt>
      <trkpt lat="49.92854" lon="1.08157">
        <ele>7.3</ele>
        <time>2020-06-18T11:31:26Z</time>
      </trkpt>
      <trkpt lat="49.92857" lon="1.08164">
        <ele>7.3</ele>
        <time>2020-06-18T11:31:27Z</time>
      </trkpt>
      <trkpt lat="49.92859" lon="1.08173">
        <ele>7.3</ele>
        <time>2020-06-18T11:31:28Z</time>
      </trkpt>
      <trkpt lat="49.92862" lon="1.08179">
        <ele>7.3</ele>
        <time>2020-06-18T11:31:29Z</time>
      </trkpt>
      <trkpt lat="49.92865" lon="1.08184">
        <ele>7.2</ele>
        <time>2020-06-18T11:31:30Z</time>
      </trkpt>
      <trkpt lat="49.92868" lon="1.08191">
        <ele>7.2</ele>
        <time>2020-06-18T11:31:31Z</time>
      </trkpt>
      <trkpt lat="49.92871" lon="1.08197">
        <ele>7.2</ele>
        <time>2020-06-18T11:31:32Z</time>
      </trkpt>
      <trkpt lat="49.92875" lon="1.08204">
        <ele>7.1</ele>
        <time>2020-06-18T11:31:33Z</time>
      </trkpt>
      <trkpt lat="49.92877" lon="1.08211">
        <ele>7.1</ele>
        <time>2020-06-18T11:31:34Z</time>
      </trkpt>
      <trkpt lat="49.92879" lon="1.08217">
        <ele>7.2</ele>
        <time>2020-06-18T11:31:35Z</time>
      </trkpt>
      <trkpt lat="49.92881" lon="1.08224">
        <ele>7.2</ele>
        <time>2020-06-18T11:31:36Z</time>
      </trkpt>
      <trkpt lat="49.92884" lon="1.08231">
        <ele>7.2</ele>
        <time>2020-06-18T11:31:37Z</time>
      </trkpt>
      <trkpt lat="49.92887" lon="1.08238">
        <ele>7.2</ele>
        <time>2020-06-18T11:31:38Z</time>
      </trkpt>
      <trkpt lat="49.92892" lon="1.08245">
        <ele>7.3</ele>
        <time>2020-06-18T11:31:39Z</time>
      </trkpt>
      <trkpt lat="49.92895" lon="1.08251">
        <ele>7.3</ele>
        <time>2020-06-18T11:31:40Z</time>
      </trkpt>
      <trkpt lat="49.92897" lon="1.08258">
        <ele>7.3</ele>
        <time>2020-06-18T11:31:41Z</time>
      </trkpt>
      <trkpt lat="49.92899" lon="1.08265">
        <ele>7.3</ele>
        <time>2020-06-18T11:31:42Z</time>
      </trkpt>
      <trkpt lat="49.92902" lon="1.0827">
        <ele>7.3</ele>
        <time>2020-06-18T11:31:43Z</time>
      </trkpt>
      <trkpt lat="49.92905" lon="1.08275">
        <ele>7.3</ele>
        <time>2020-06-18T11:31:44Z</time>
      </trkpt>
      <trkpt lat="49.92907" lon="1.0828">
        <ele>7.3</ele>
        <time>2020-06-18T11:31:45Z</time>
      </trkpt>
      <trkpt lat="49.92909" lon="1.08286">
        <ele>7.4</ele>
        <time>2020-06-18T11:31:46Z</time>
      </trkpt>
      <trkpt lat="49.92911" lon="1.08291">
        <ele>7.4</ele>
        <time>2020-06-18T11:31:47Z</time>
      </trkpt>
      <trkpt lat="49.92912" lon="1.08299">
        <ele>7.5</ele>
        <time>2020-06-18T11:31:48Z</time>
      </trkpt>
      <trkpt lat="49.92914" lon="1.08303">
        <ele>7.6</ele>
        <time>2020-06-18T11:31:49Z</time>
      </trkpt>
      <trkpt lat="49.92916" lon="1.08309">
        <ele>7.6</ele>
        <time>2020-06-18T11:31:50Z</time>
      </trkpt>
      <trkpt lat="49.92917" lon="1.08312">
        <ele>7.6</ele>
        <time>2020-06-18T11:31:51Z</time>
      </trkpt>
      <trkpt lat="49.9292" lon="1.08316">
        <ele>7.7</ele>
        <time>2020-06-18T11:31:52Z</time>
      </trkpt>
      <trkpt lat="49.92921" lon="1.08318">
        <ele>7.7</ele>
        <time>2020-06-18T11:31:53Z</time>
      </trkpt>
      <trkpt lat="49.92919" lon="1.08324">
        <ele>7.7</ele>
        <time>2020-06-18T11:31:54Z</time>
      </trkpt>
      <trkpt lat="49.92921" lon="1.08328">
        <ele>7.8</ele>
        <time>2020-06-18T11:31:55Z</time>
      </trkpt>
      <trkpt lat="49.92923" lon="1.08334">
        <ele>8.7</ele>
        <time>2020-06-18T11:31:56Z</time>
      </trkpt>
      <trkpt lat="49.92924" lon="1.08337">
        <ele>8.7</ele>
        <time>2020-06-18T11:31:57Z</time>
      </trkpt>
      <trkpt lat="49.92926" lon="1.08341">
        <ele>8.6</ele>
        <time>2020-06-18T11:31:58Z</time>
      </trkpt>
      <trkpt lat="49.92926" lon="1.08343">
        <ele>8.6</ele>
        <time>2020-06-18T11:31:59Z</time>
      </trkpt>
      <trkpt lat="49.92925" lon="1.08347">
        <ele>8.6</ele>
        <time>2020-06-18T11:32:00Z</time>
      </trkpt>
      <trkpt lat="49.92925" lon="1.08347">
        <ele>8.6</ele>
        <time>2020-06-18T11:32:01Z</time>
      </trkpt>
      <trkpt lat="49.92926" lon="1.08346">
        <ele>8.6</ele>
        <time>2020-06-18T11:32:02Z</time>
      </trkpt>
      <trkpt lat="49.92928" lon="1.08345">
        <ele>8.6</ele>
        <time>2020-06-18T11:32:03Z</time>
      </trkpt>
      <trkpt lat="49.92929" lon="1.08346">
        <ele>8.6</ele>
        <time>2020-06-18T11:32:04Z</time>
      </trkpt>
      <trkpt lat="49.92929" lon="1.08343">
        <ele>8.6</ele>
        <time>2020-06-18T11:32:05Z</time>
      </trkpt>
      <trkpt lat="49.92929" lon="1.08342">
        <ele>8.6</ele>
        <time>2020-06-18T11:32:06Z</time>
      </trkpt>
      <trkpt lat="49.92929" lon="1.08341">
        <ele>8.6</ele>
        <time>2020-06-18T11:32:07Z</time>
      </trkpt>
      <trkpt lat="49.9293" lon="1.08338">
        <ele>8.6</ele>
        <time>2020-06-18T11:32:08Z</time>
      </trkpt>
      <trkpt lat="49.92929" lon="1.08336">
        <ele>8.5</ele>
        <time>2020-06-18T11:32:09Z</time>
      </trkpt>
      <trkpt lat="49.92928" lon="1.08336">
        <ele>8.5</ele>
        <time>2020-06-18T11:32:10Z</time>
      </trkpt>
      <trkpt lat="49.92927" lon="1.08335">
        <ele>8.5</ele>
        <time>2020-06-18T11:32:11Z</time>
      </trkpt>
      <trkpt lat="49.92927" lon="1.08334">
        <ele>8.5</ele>
        <time>2020-06-18T11:32:12Z</time>
      </trkpt>
      <trkpt lat="49.92926" lon="1.08334">
        <ele>8.5</ele>
        <time>2020-06-18T11:32:13Z</time>
      </trkpt>
      <trkpt lat="49.92926" lon="1.08334">
        <ele>8.5</ele>
        <time>2020-06-18T11:32:14Z</time>
      </trkpt>
      <trkpt lat="49.92926" lon="1.08333">
        <ele>8.5</ele>
        <time>2020-06-18T11:32:15Z</time>
      </trkpt>
      <trkpt lat="49.92925" lon="1.08333">
        <ele>8.5</ele>
        <time>2020-06-18T11:32:16Z</time>
      </trkpt>
      <trkpt lat="49.92925" lon="1.08331">
        <ele>8.5</ele>
        <time>2020-06-18T11:32:17Z</time>
      </trkpt>
      <trkpt lat="49.92924" lon="1.0833">
        <ele>8.2</ele>
        <time>2020-06-18T11:32:18Z</time>
      </trkpt>
      <trkpt lat="49.92924" lon="1.08329">
        <ele>8.2</ele>
        <time>2020-06-18T11:32:19Z</time>
      </trkpt>
      <trkpt lat="49.92924" lon="1.0833">
        <ele>8.2</ele>
        <time>2020-06-18T11:32:20Z</time>
      </trkpt>
      <trkpt lat="49.92923" lon="1.08328">
        <ele>8.1</ele>
        <time>2020-06-18T11:32:21Z</time>
      </trkpt>
      <trkpt lat="49.92922" lon="1.08325">
        <ele>8</ele>
        <time>2020-06-18T11:32:22Z</time>
      </trkpt>
      <trkpt lat="49.92921" lon="1.08324">
        <ele>7.9</ele>
        <time>2020-06-18T11:32:23Z</time>
      </trkpt>
      <trkpt lat="49.92921" lon="1.0832">
        <ele>7.8</ele>
        <time>2020-06-18T11:32:24Z</time>
      </trkpt>
      <trkpt lat="49.92921" lon="1.08319">
        <ele>7.8</ele>
        <time>2020-06-18T11:32:25Z</time>
      </trkpt>
      <trkpt lat="49.9292" lon="1.08317">
        <ele>7.7</ele>
        <time>2020-06-18T11:32:26Z</time>
      </trkpt>
      <trkpt lat="49.9292" lon="1.08313">
        <ele>7.7</ele>
        <time>2020-06-18T11:32:27Z</time>
      </trkpt>
      <trkpt lat="49.92919" lon="1.08311">
        <ele>7.7</ele>
        <time>2020-06-18T11:32:28Z</time>
      </trkpt>
      <trkpt lat="49.92919" lon="1.08309">
        <ele>7.7</ele>
        <time>2020-06-18T11:32:29Z</time>
      </trkpt>
      <trkpt lat="49.92918" lon="1.08307">
        <ele>7.6</ele>
        <time>2020-06-18T11:32:30Z</time>
      </trkpt>
      <trkpt lat="49.92918" lon="1.08305">
        <ele>7.6</ele>
        <time>2020-06-18T11:32:31Z</time>
      </trkpt>
      <trkpt lat="49.92918" lon="1.08304">
        <ele>7.6</ele>
        <time>2020-06-18T11:32:32Z</time>
      </trkpt>
      <trkpt lat="49.92918" lon="1.08303">
        <ele>7.6</ele>
        <time>2020-06-18T11:32:33Z</time>
      </trkpt>
      <trkpt lat="49.92919" lon="1.08305">
        <ele>7.6</ele>
        <time>2020-06-18T11:32:34Z</time>
      </trkpt>
      <trkpt lat="49.9292" lon="1.08308">
        <ele>7.6</ele>
        <time>2020-06-18T11:32:35Z</time>
      </trkpt>
      <trkpt lat="49.9292" lon="1.08308">
        <ele>7.6</ele>
        <time>2020-06-18T11:32:36Z</time>
      </trkpt>
      <trkpt lat="49.9292" lon="1.0831">
        <ele>7.6</ele>
        <time>2020-06-18T11:32:37Z</time>
      </trkpt>
      <trkpt lat="49.92919" lon="1.08311">
        <ele>7.6</ele>
        <time>2020-06-18T11:32:38Z</time>
      </trkpt>
      <trkpt lat="49.92919" lon="1.08311">
        <ele>7.6</ele>
        <time>2020-06-18T11:32:39Z</time>
      </trkpt>
      <trkpt lat="49.92919" lon="1.0831">
        <ele>7.6</ele>
        <time>2020-06-18T11:32:40Z</time>
      </trkpt>
      <trkpt lat="49.9292" lon="1.0831">
        <ele>7.6</ele>
        <time>2020-06-18T11:32:41Z</time>
      </trkpt>
      <trkpt lat="49.9292" lon="1.0831">
        <ele>7.6</ele>
        <time>2020-06-18T11:32:42Z</time>
      </trkpt>
      <trkpt lat="49.9292" lon="1.0831">
        <ele>7.6</ele>
        <time>2020-06-18T11:32:43Z</time>
      </trkpt>
      <trkpt lat="49.9292" lon="1.0831">
        <ele>7.6</ele>
        <time>2020-06-18T11:32:44Z</time>
      </trkpt>
      <trkpt lat="49.9292" lon="1.0831">
        <ele>7.6</ele>
        <time>2020-06-18T11:32:45Z</time>
      </trkpt>
      <trkpt lat="49.9292" lon="1.08309">
        <ele>7.6</ele>
        <time>2020-06-18T11:32:46Z</time>
      </trkpt>
      <trkpt lat="49.9292" lon="1.08309">
        <ele>7.6</ele>
        <time>2020-06-18T11:32:47Z</time>
      </trkpt>
      <trkpt lat="49.9292" lon="1.08309">
        <ele>7.6</ele>
        <time>2020-06-18T11:34:11Z</time>
      </trkpt>
      <trkpt lat="49.9292" lon="1.08309">
        <ele>7.6</ele>
        <time>2020-06-18T11:34:12Z</time>
      </trkpt>
      <trkpt lat="49.9292" lon="1.08309">
        <ele>7.6</ele>
        <time>2020-06-18T11:34:13Z</time>
      </trkpt>
      <trkpt lat="49.92921" lon="1.08309">
        <ele>7.6</ele>
        <time>2020-06-18T11:34:14Z</time>
      </trkpt>
      <trkpt lat="49.92917" lon="1.08309">
        <ele>7.5</ele>
        <time>2020-06-18T11:34:15Z</time>
      </trkpt>
      <trkpt lat="49.92915" lon="1.08309">
        <ele>7.5</ele>
        <time>2020-06-18T11:34:16Z</time>
      </trkpt>
      <trkpt lat="49.92915" lon="1.08307">
        <ele>7.5</ele>
        <time>2020-06-18T11:34:17Z</time>
      </trkpt>
      <trkpt lat="49.92914" lon="1.08303">
        <ele>7.5</ele>
        <time>2020-06-18T11:34:18Z</time>
      </trkpt>
      <trkpt lat="49.92915" lon="1.08301">
        <ele>7.5</ele>
        <time>2020-06-18T11:34:19Z</time>
      </trkpt>
      <trkpt lat="49.92915" lon="1.08301">
        <ele>7.5</ele>
        <time>2020-06-18T11:34:20Z</time>
      </trkpt>
      <trkpt lat="49.92915" lon="1.083">
        <ele>7.5</ele>
        <time>2020-06-18T11:34:21Z</time>
      </trkpt>
      <trkpt lat="49.92915" lon="1.08299">
        <ele>7.5</ele>
        <time>2020-06-18T11:34:22Z</time>
      </trkpt>
      <trkpt lat="49.92915" lon="1.08299">
        <ele>7.4</ele>
        <time>2020-06-18T11:34:23Z</time>
      </trkpt>
      <trkpt lat="49.92915" lon="1.08298">
        <ele>7.4</ele>
        <time>2020-06-18T11:34:24Z</time>
      </trkpt>
      <trkpt lat="49.92915" lon="1.08297">
        <ele>7.4</ele>
        <time>2020-06-18T11:34:25Z</time>
      </trkpt>
      <trkpt lat="49.92915" lon="1.08296">
        <ele>7.4</ele>
        <time>2020-06-18T11:34:26Z</time>
      </trkpt>
      <trkpt lat="49.92915" lon="1.08295">
        <ele>7.4</ele>
        <time>2020-06-18T11:34:27Z</time>
      </trkpt>
      <trkpt lat="49.92914" lon="1.08293">
        <ele>7.4</ele>
        <time>2020-06-18T11:34:28Z</time>
      </trkpt>
      <trkpt lat="49.92914" lon="1.0829">
        <ele>7.4</ele>
        <time>2020-06-18T11:34:29Z</time>
      </trkpt>
      <trkpt lat="49.92913" lon="1.08289">
        <ele>7.4</ele>
        <time>2020-06-18T11:34:30Z</time>
      </trkpt>
      <trkpt lat="49.92913" lon="1.08288">
        <ele>7.4</ele>
        <time>2020-06-18T11:34:31Z</time>
      </trkpt>
      <trkpt lat="49.92912" lon="1.08285">
        <ele>7.4</ele>
        <time>2020-06-18T11:34:32Z</time>
      </trkpt>
      <trkpt lat="49.92912" lon="1.08283">
        <ele>7.3</ele>
        <time>2020-06-18T11:34:33Z</time>
      </trkpt>
      <trkpt lat="49.92912" lon="1.08282">
        <ele>7.3</ele>
        <time>2020-06-18T11:34:34Z</time>
      </trkpt>
      <trkpt lat="49.92911" lon="1.08281">
        <ele>7.3</ele>
        <time>2020-06-18T11:34:35Z</time>
      </trkpt>
      <trkpt lat="49.92911" lon="1.0828">
        <ele>7.3</ele>
        <time>2020-06-18T11:34:36Z</time>
      </trkpt>
      <trkpt lat="49.92911" lon="1.08279">
        <ele>7.3</ele>
        <time>2020-06-18T11:34:37Z</time>
      </trkpt>
      <trkpt lat="49.92911" lon="1.08279">
        <ele>7.3</ele>
        <time>2020-06-18T11:34:38Z</time>
      </trkpt>
      <trkpt lat="49.92911" lon="1.08279">
        <ele>7.3</ele>
        <time>2020-06-18T11:34:39Z</time>
      </trkpt>
      <trkpt lat="49.92911" lon="1.08278">
        <ele>7.3</ele>
        <time>2020-06-18T11:34:40Z</time>
      </trkpt>
      <trkpt lat="49.9291" lon="1.08278">
        <ele>7.3</ele>
        <time>2020-06-18T11:34:41Z</time>
      </trkpt>
      <trkpt lat="49.92909" lon="1.08278">
        <ele>7.3</ele>
        <time>2020-06-18T11:34:42Z</time>
      </trkpt>
      <trkpt lat="49.92909" lon="1.08278">
        <ele>7.3</ele>
        <time>2020-06-18T11:34:43Z</time>
      </trkpt>
      <trkpt lat="49.92909" lon="1.08278">
        <ele>7.3</ele>
        <time>2020-06-18T11:34:44Z</time>
      </trkpt>
      <trkpt lat="49.92909" lon="1.08278">
        <ele>7.3</ele>
        <time>2020-06-18T11:34:45Z</time>
      </trkpt>
      <trkpt lat="49.92903" lon="1.08266">
        <ele>7.3</ele>
        <time>2020-06-18T11:34:59Z</time>
      </trkpt>
      <trkpt lat="49.92904" lon="1.08264">
        <ele>7.3</ele>
        <time>2020-06-18T11:35:00Z</time>
      </trkpt>
      <trkpt lat="49.92904" lon="1.08263">
        <ele>7.3</ele>
        <time>2020-06-18T11:35:01Z</time>
      </trkpt>
      <trkpt lat="49.92903" lon="1.0826">
        <ele>7.3</ele>
        <time>2020-06-18T11:35:02Z</time>
      </trkpt>
      <trkpt lat="49.92903" lon="1.08258">
        <ele>7.3</ele>
        <time>2020-06-18T11:35:03Z</time>
      </trkpt>
      <trkpt lat="49.92903" lon="1.08257">
        <ele>7.3</ele>
        <time>2020-06-18T11:35:04Z</time>
      </trkpt>
      <trkpt lat="49.92902" lon="1.08255">
        <ele>7.3</ele>
        <time>2020-06-18T11:35:05Z</time>
      </trkpt>
      <trkpt lat="49.92901" lon="1.08252">
        <ele>7.3</ele>
        <time>2020-06-18T11:35:06Z</time>
      </trkpt>
      <trkpt lat="49.92899" lon="1.08248">
        <ele>7.3</ele>
        <time>2020-06-18T11:35:07Z</time>
      </trkpt>
      <trkpt lat="49.92899" lon="1.08247">
        <ele>7.3</ele>
        <time>2020-06-18T11:35:08Z</time>
      </trkpt>
      <trkpt lat="49.92898" lon="1.08243">
        <ele>7.3</ele>
        <time>2020-06-18T11:35:09Z</time>
      </trkpt>
      <trkpt lat="49.92897" lon="1.08241">
        <ele>7.3</ele>
        <time>2020-06-18T11:35:10Z</time>
      </trkpt>
      <trkpt lat="49.92897" lon="1.08239">
        <ele>7.3</ele>
        <time>2020-06-18T11:35:11Z</time>
      </trkpt>
      <trkpt lat="49.92897" lon="1.08236">
        <ele>7.3</ele>
        <time>2020-06-18T11:35:12Z</time>
      </trkpt>
      <trkpt lat="49.92896" lon="1.08234">
        <ele>7.2</ele>
        <time>2020-06-18T11:35:13Z</time>
      </trkpt>
      <trkpt lat="49.92895" lon="1.08231">
        <ele>7.2</ele>
        <time>2020-06-18T11:35:14Z</time>
      </trkpt>
      <trkpt lat="49.92895" lon="1.08229">
        <ele>7.2</ele>
        <time>2020-06-18T11:35:15Z</time>
      </trkpt>
      <trkpt lat="49.92893" lon="1.08227">
        <ele>7.2</ele>
        <time>2020-06-18T11:35:16Z</time>
      </trkpt>
      <trkpt lat="49.92891" lon="1.08223">
        <ele>7.2</ele>
        <time>2020-06-18T11:35:17Z</time>
      </trkpt>
      <trkpt lat="49.9289" lon="1.0822">
        <ele>7.2</ele>
        <time>2020-06-18T11:35:18Z</time>
      </trkpt>
      <trkpt lat="49.9289" lon="1.08216">
        <ele>7.2</ele>
        <time>2020-06-18T11:35:19Z</time>
      </trkpt>
      <trkpt lat="49.92889" lon="1.08215">
        <ele>7.2</ele>
        <time>2020-06-18T11:35:20Z</time>
      </trkpt>
      <trkpt lat="49.92887" lon="1.08211">
        <ele>7.2</ele>
        <time>2020-06-18T11:35:21Z</time>
      </trkpt>
      <trkpt lat="49.92886" lon="1.08207">
        <ele>7.2</ele>
        <time>2020-06-18T11:35:22Z</time>
      </trkpt>
      <trkpt lat="49.92885" lon="1.08205">
        <ele>7.2</ele>
        <time>2020-06-18T11:35:23Z</time>
      </trkpt>
      <trkpt lat="49.92884" lon="1.08202">
        <ele>7.1</ele>
        <time>2020-06-18T11:35:24Z</time>
      </trkpt>
      <trkpt lat="49.92883" lon="1.08201">
        <ele>7.1</ele>
        <time>2020-06-18T11:35:25Z</time>
      </trkpt>
      <trkpt lat="49.92881" lon="1.08197">
        <ele>7.1</ele>
        <time>2020-06-18T11:35:26Z</time>
      </trkpt>
      <trkpt lat="49.9288" lon="1.08195">
        <ele>7.1</ele>
        <time>2020-06-18T11:35:27Z</time>
      </trkpt>
      <trkpt lat="49.92878" lon="1.08191">
        <ele>7.2</ele>
        <time>2020-06-18T11:35:28Z</time>
      </trkpt>
      <trkpt lat="49.92877" lon="1.0819">
        <ele>7.2</ele>
        <time>2020-06-18T11:35:29Z</time>
      </trkpt>
      <trkpt lat="49.92876" lon="1.08186">
        <ele>7.2</ele>
        <time>2020-06-18T11:35:30Z</time>
      </trkpt>
      <trkpt lat="49.92875" lon="1.08185">
        <ele>7.2</ele>
        <time>2020-06-18T11:35:31Z</time>
      </trkpt>
      <trkpt lat="49.92874" lon="1.08183">
        <ele>7.2</ele>
        <time>2020-06-18T11:35:32Z</time>
      </trkpt>
      <trkpt lat="49.92873" lon="1.08183">
        <ele>7.2</ele>
        <time>2020-06-18T11:35:33Z</time>
      </trkpt>
      <trkpt lat="49.92872" lon="1.08182">
        <ele>7.2</ele>
        <time>2020-06-18T11:35:34Z</time>
      </trkpt>
      <trkpt lat="49.92872" lon="1.08181">
        <ele>7.2</ele>
        <time>2020-06-18T11:35:35Z</time>
      </trkpt>
      <trkpt lat="49.92872" lon="1.08181">
        <ele>7.2</ele>
        <time>2020-06-18T11:35:36Z</time>
      </trkpt>
      <trkpt lat="49.92871" lon="1.08181">
        <ele>7.2</ele>
        <time>2020-06-18T11:35:37Z</time>
      </trkpt>
      <trkpt lat="49.9287" lon="1.08182">
        <ele>7.2</ele>
        <time>2020-06-18T11:35:38Z</time>
      </trkpt>
      <trkpt lat="49.92869" lon="1.08182">
        <ele>7.2</ele>
        <time>2020-06-18T11:35:39Z</time>
      </trkpt>
      <trkpt lat="49.92869" lon="1.08181">
        <ele>7.2</ele>
        <time>2020-06-18T11:35:40Z</time>
      </trkpt>
      <trkpt lat="49.92869" lon="1.08181">
        <ele>7.3</ele>
        <time>2020-06-18T11:35:41Z</time>
      </trkpt>
      <trkpt lat="49.9287" lon="1.08179">
        <ele>7.3</ele>
        <time>2020-06-18T11:35:42Z</time>
      </trkpt>
      <trkpt lat="49.92869" lon="1.08178">
        <ele>7.3</ele>
        <time>2020-06-18T11:35:43Z</time>
      </trkpt>
      <trkpt lat="49.92868" lon="1.08175">
        <ele>7.3</ele>
        <time>2020-06-18T11:35:44Z</time>
      </trkpt>
      <trkpt lat="49.92868" lon="1.08174">
        <ele>7.3</ele>
        <time>2020-06-18T11:35:45Z</time>
      </trkpt>
      <trkpt lat="49.92867" lon="1.08173">
        <ele>7.3</ele>
        <time>2020-06-18T11:35:46Z</time>
      </trkpt>
      <trkpt lat="49.92866" lon="1.0817">
        <ele>7.3</ele>
        <time>2020-06-18T11:35:47Z</time>
      </trkpt>
      <trkpt lat="49.92865" lon="1.08169">
        <ele>7.3</ele>
        <time>2020-06-18T11:35:48Z</time>
      </trkpt>
      <trkpt lat="49.92863" lon="1.08166">
        <ele>7.3</ele>
        <time>2020-06-18T11:35:49Z</time>
      </trkpt>
      <trkpt lat="49.92863" lon="1.08165">
        <ele>7.3</ele>
        <time>2020-06-18T11:35:50Z</time>
      </trkpt>
      <trkpt lat="49.92863" lon="1.08163">
        <ele>7.3</ele>
        <time>2020-06-18T11:35:51Z</time>
      </trkpt>
      <trkpt lat="49.92862" lon="1.08159">
        <ele>7.3</ele>
        <time>2020-06-18T11:35:52Z</time>
      </trkpt>
      <trkpt lat="49.92862" lon="1.08157">
        <ele>7.3</ele>
        <time>2020-06-18T11:35:53Z</time>
      </trkpt>
      <trkpt lat="49.92861" lon="1.08156">
        <ele>7.3</ele>
        <time>2020-06-18T11:35:54Z</time>
      </trkpt>
      <trkpt lat="49.9286" lon="1.08151">
        <ele>7.3</ele>
        <time>2020-06-18T11:35:55Z</time>
      </trkpt>
      <trkpt lat="49.92859" lon="1.0815">
        <ele>7.3</ele>
        <time>2020-06-18T11:35:56Z</time>
      </trkpt>
      <trkpt lat="49.92857" lon="1.08145">
        <ele>7.3</ele>
        <time>2020-06-18T11:35:57Z</time>
      </trkpt>
      <trkpt lat="49.92856" lon="1.08143">
        <ele>7.3</ele>
        <time>2020-06-18T11:35:58Z</time>
      </trkpt>
      <trkpt lat="49.92855" lon="1.08139">
        <ele>7.3</ele>
        <time>2020-06-18T11:35:59Z</time>
      </trkpt>
      <trkpt lat="49.92854" lon="1.08135">
        <ele>7.3</ele>
        <time>2020-06-18T11:36:00Z</time>
      </trkpt>
      <trkpt lat="49.92851" lon="1.08131">
        <ele>7.3</ele>
        <time>2020-06-18T11:36:01Z</time>
      </trkpt>
      <trkpt lat="49.9285" lon="1.0813">
        <ele>7.3</ele>
        <time>2020-06-18T11:36:02Z</time>
      </trkpt>
      <trkpt lat="49.92846" lon="1.08126">
        <ele>7.3</ele>
        <time>2020-06-18T11:36:03Z</time>
      </trkpt>
      <trkpt lat="49.92845" lon="1.08124">
        <ele>7.3</ele>
        <time>2020-06-18T11:36:04Z</time>
      </trkpt>
      <trkpt lat="49.92841" lon="1.08122">
        <ele>7.3</ele>
        <time>2020-06-18T11:36:05Z</time>
      </trkpt>
      <trkpt lat="49.92839" lon="1.08118">
        <ele>7.3</ele>
        <time>2020-06-18T11:36:06Z</time>
      </trkpt>
      <trkpt lat="49.92835" lon="1.08112">
        <ele>7.3</ele>
        <time>2020-06-18T11:36:07Z</time>
      </trkpt>
      <trkpt lat="49.92832" lon="1.08105">
        <ele>7.4</ele>
        <time>2020-06-18T11:36:08Z</time>
      </trkpt>
      <trkpt lat="49.92829" lon="1.08098">
        <ele>7.4</ele>
        <time>2020-06-18T11:36:09Z</time>
      </trkpt>
      <trkpt lat="49.92826" lon="1.0809">
        <ele>7.4</ele>
        <time>2020-06-18T11:36:10Z</time>
      </trkpt>
      <trkpt lat="49.92823" lon="1.08084">
        <ele>7.5</ele>
        <time>2020-06-18T11:36:11Z</time>
      </trkpt>
      <trkpt lat="49.92821" lon="1.08079">
        <ele>7.5</ele>
        <time>2020-06-18T11:36:12Z</time>
      </trkpt>
      <trkpt lat="49.92819" lon="1.08076">
        <ele>7.5</ele>
        <time>2020-06-18T11:36:13Z</time>
      </trkpt>
      <trkpt lat="49.92817" lon="1.08073">
        <ele>7.6</ele>
        <time>2020-06-18T11:36:14Z</time>
      </trkpt>
      <trkpt lat="49.92815" lon="1.08069">
        <ele>7.6</ele>
        <time>2020-06-18T11:36:15Z</time>
      </trkpt>
      <trkpt lat="49.92812" lon="1.08066">
        <ele>7.6</ele>
        <time>2020-06-18T11:36:16Z</time>
      </trkpt>
      <trkpt lat="49.92809" lon="1.08061">
        <ele>7.6</ele>
        <time>2020-06-18T11:36:17Z</time>
      </trkpt>
      <trkpt lat="49.92807" lon="1.08056">
        <ele>7.7</ele>
        <time>2020-06-18T11:36:18Z</time>
      </trkpt>
      <trkpt lat="49.92805" lon="1.08052">
        <ele>7.7</ele>
        <time>2020-06-18T11:36:19Z</time>
      </trkpt>
      <trkpt lat="49.92802" lon="1.08046">
        <ele>7.7</ele>
        <time>2020-06-18T11:36:20Z</time>
      </trkpt>
      <trkpt lat="49.92801" lon="1.08042">
        <ele>7.8</ele>
        <time>2020-06-18T11:36:21Z</time>
      </trkpt>
      <trkpt lat="49.92796" lon="1.08041">
        <ele>7.8</ele>
        <time>2020-06-18T11:36:22Z</time>
      </trkpt>
      <trkpt lat="49.92795" lon="1.08037">
        <ele>7.8</ele>
        <time>2020-06-18T11:36:23Z</time>
      </trkpt>
      <trkpt lat="49.92792" lon="1.08033">
        <ele>7.8</ele>
        <time>2020-06-18T11:36:24Z</time>
      </trkpt>
      <trkpt lat="49.9279" lon="1.08029">
        <ele>7.8</ele>
        <time>2020-06-18T11:36:25Z</time>
      </trkpt>
      <trkpt lat="49.92788" lon="1.08025">
        <ele>7.7</ele>
        <time>2020-06-18T11:36:26Z</time>
      </trkpt>
      <trkpt lat="49.92787" lon="1.08024">
        <ele>7.7</ele>
        <time>2020-06-18T11:36:27Z</time>
      </trkpt>
      <trkpt lat="49.92784" lon="1.08021">
        <ele>7.7</ele>
        <time>2020-06-18T11:36:28Z</time>
      </trkpt>
      <trkpt lat="49.92784" lon="1.0802">
        <ele>7.7</ele>
        <time>2020-06-18T11:36:29Z</time>
      </trkpt>
      <trkpt lat="49.92782" lon="1.08019">
        <ele>7.7</ele>
        <time>2020-06-18T11:36:30Z</time>
      </trkpt>
      <trkpt lat="49.92782" lon="1.08018">
        <ele>7.7</ele>
        <time>2020-06-18T11:36:31Z</time>
      </trkpt>
      <trkpt lat="49.9278" lon="1.08016">
        <ele>7.7</ele>
        <time>2020-06-18T11:36:32Z</time>
      </trkpt>
      <trkpt lat="49.92779" lon="1.08014">
        <ele>7.7</ele>
        <time>2020-06-18T11:36:33Z</time>
      </trkpt>
      <trkpt lat="49.92779" lon="1.08013">
        <ele>7.7</ele>
        <time>2020-06-18T11:36:34Z</time>
      </trkpt>
      <trkpt lat="49.9278" lon="1.08012">
        <ele>7.7</ele>
        <time>2020-06-18T11:36:35Z</time>
      </trkpt>
      <trkpt lat="49.9278" lon="1.0801">
        <ele>7.7</ele>
        <time>2020-06-18T11:36:36Z</time>
      </trkpt>
      <trkpt lat="49.9278" lon="1.0801">
        <ele>7.7</ele>
        <time>2020-06-18T11:36:37Z</time>
      </trkpt>
      <trkpt lat="49.92779" lon="1.08009">
        <ele>7.6</ele>
        <time>2020-06-18T11:36:38Z</time>
      </trkpt>
      <trkpt lat="49.92779" lon="1.08008">
        <ele>7.6</ele>
        <time>2020-06-18T11:36:39Z</time>
      </trkpt>
      <trkpt lat="49.92779" lon="1.08009">
        <ele>7.6</ele>
        <time>2020-06-18T11:36:40Z</time>
      </trkpt>
      <trkpt lat="49.9278" lon="1.0801">
        <ele>7.6</ele>
        <time>2020-06-18T11:36:41Z</time>
      </trkpt>
      <trkpt lat="49.92779" lon="1.08009">
        <ele>7.6</ele>
        <time>2020-06-18T11:36:42Z</time>
      </trkpt>
      <trkpt lat="49.92778" lon="1.08009">
        <ele>7.6</ele>
        <time>2020-06-18T11:36:43Z</time>
      </trkpt>
      <trkpt lat="49.92776" lon="1.08008">
        <ele>7.6</ele>
        <time>2020-06-18T11:36:44Z</time>
      </trkpt>
      <trkpt lat="49.92776" lon="1.08009">
        <ele>7.6</ele>
        <time>2020-06-18T11:36:45Z</time>
      </trkpt>
      <trkpt lat="49.92776" lon="1.0801">
        <ele>7.6</ele>
        <time>2020-06-18T11:36:46Z</time>
      </trkpt>
      <trkpt lat="49.92776" lon="1.0801">
        <ele>7.6</ele>
        <time>2020-06-18T11:36:47Z</time>
      </trkpt>
      <trkpt lat="49.92776" lon="1.0801">
        <ele>7.6</ele>
        <time>2020-06-18T11:36:48Z</time>
      </trkpt>
      <trkpt lat="49.92776" lon="1.0801">
        <ele>7.6</ele>
        <time>2020-06-18T11:36:49Z</time>
      </trkpt>
      <trkpt lat="49.92776" lon="1.0801">
        <ele>7.6</ele>
        <time>2020-06-18T11:36:50Z</time>
      </trkpt>
      <trkpt lat="49.92776" lon="1.0801">
        <ele>7.6</ele>
        <time>2020-06-18T11:36:51Z</time>
      </trkpt>
      <trkpt lat="49.92775" lon="1.0801">
        <ele>7.6</ele>
        <time>2020-06-18T11:36:52Z</time>
      </trkpt>
      <trkpt lat="49.92775" lon="1.0801">
        <ele>7.6</ele>
        <time>2020-06-18T11:36:53Z</time>
      </trkpt>
      <trkpt lat="49.92775" lon="1.0801">
        <ele>7.6</ele>
        <time>2020-06-18T11:36:54Z</time>
      </trkpt>
      <trkpt lat="49.92775" lon="1.0801">
        <ele>7.6</ele>
        <time>2020-06-18T11:36:55Z</time>
      </trkpt>
      <trkpt lat="49.92774" lon="1.08005">
        <ele>7.6</ele>
        <time>2020-06-18T11:36:59Z</time>
      </trkpt>
      <trkpt lat="49.92774" lon="1.08004">
        <ele>7.6</ele>
        <time>2020-06-18T11:37:00Z</time>
      </trkpt>
      <trkpt lat="49.92773" lon="1.08003">
        <ele>7.6</ele>
        <time>2020-06-18T11:37:01Z</time>
      </trkpt>
      <trkpt lat="49.92773" lon="1.08002">
        <ele>7.6</ele>
        <time>2020-06-18T11:37:02Z</time>
      </trkpt>
      <trkpt lat="49.92772" lon="1.08002">
        <ele>7.6</ele>
        <time>2020-06-18T11:37:03Z</time>
      </trkpt>
      <trkpt lat="49.92773" lon="1.08002">
        <ele>7.6</ele>
        <time>2020-06-18T11:37:04Z</time>
      </trkpt>
      <trkpt lat="49.92772" lon="1.08002">
        <ele>7.6</ele>
        <time>2020-06-18T11:37:05Z</time>
      </trkpt>
      <trkpt lat="49.92772" lon="1.08003">
        <ele>7.6</ele>
        <time>2020-06-18T11:37:06Z</time>
      </trkpt>
      <trkpt lat="49.92772" lon="1.08003">
        <ele>7.6</ele>
        <time>2020-06-18T11:37:07Z</time>
      </trkpt>
      <trkpt lat="49.92772" lon="1.08002">
        <ele>7.6</ele>
        <time>2020-06-18T11:37:08Z</time>
      </trkpt>
      <trkpt lat="49.9277" lon="1.08003">
        <ele>7.6</ele>
        <time>2020-06-18T11:37:09Z</time>
      </trkpt>
      <trkpt lat="49.9277" lon="1.08003">
        <ele>7.6</ele>
        <time>2020-06-18T11:37:10Z</time>
      </trkpt>
      <trkpt lat="49.92769" lon="1.08003">
        <ele>7.6</ele>
        <time>2020-06-18T11:37:11Z</time>
      </trkpt>
      <trkpt lat="49.9277" lon="1.08003">
        <ele>7.6</ele>
        <time>2020-06-18T11:37:12Z</time>
      </trkpt>
      <trkpt lat="49.9277" lon="1.08003">
        <ele>7.6</ele>
        <time>2020-06-18T11:37:13Z</time>
      </trkpt>
      <trkpt lat="49.9277" lon="1.08003">
        <ele>7.6</ele>
        <time>2020-06-18T11:37:14Z</time>
      </trkpt>
      <trkpt lat="49.92769" lon="1.08002">
        <ele>7.6</ele>
        <time>2020-06-18T11:37:15Z</time>
      </trkpt>
      <trkpt lat="49.9277" lon="1.07999">
        <ele>7.7</ele>
        <time>2020-06-18T11:37:16Z</time>
      </trkpt>
      <trkpt lat="49.9277" lon="1.07999">
        <ele>7.7</ele>
        <time>2020-06-18T11:37:17Z</time>
      </trkpt>
      <trkpt lat="49.9277" lon="1.07999">
        <ele>7.7</ele>
        <time>2020-06-18T11:37:18Z</time>
      </trkpt>
      <trkpt lat="49.9277" lon="1.07998">
        <ele>7.7</ele>
        <time>2020-06-18T11:37:19Z</time>
      </trkpt>
      <trkpt lat="49.92769" lon="1.07997">
        <ele>7.7</ele>
        <time>2020-06-18T11:37:20Z</time>
      </trkpt>
      <trkpt lat="49.92768" lon="1.07995">
        <ele>7.7</ele>
        <time>2020-06-18T11:37:21Z</time>
      </trkpt>
      <trkpt lat="49.92766" lon="1.07994">
        <ele>7.7</ele>
        <time>2020-06-18T11:37:22Z</time>
      </trkpt>
      <trkpt lat="49.92765" lon="1.07993">
        <ele>7.7</ele>
        <time>2020-06-18T11:37:23Z</time>
      </trkpt>
      <trkpt lat="49.92765" lon="1.07992">
        <ele>7.7</ele>
        <time>2020-06-18T11:37:24Z</time>
      </trkpt>
      <trkpt lat="49.92765" lon="1.0799">
        <ele>7.7</ele>
        <time>2020-06-18T11:37:25Z</time>
      </trkpt>
      <trkpt lat="49.92764" lon="1.07988">
        <ele>7.7</ele>
        <time>2020-06-18T11:37:26Z</time>
      </trkpt>
      <trkpt lat="49.92763" lon="1.07986">
        <ele>7.7</ele>
        <time>2020-06-18T11:37:27Z</time>
      </trkpt>
      <trkpt lat="49.92762" lon="1.07984">
        <ele>7.8</ele>
        <time>2020-06-18T11:37:28Z</time>
      </trkpt>
      <trkpt lat="49.92761" lon="1.07979">
        <ele>7.8</ele>
        <time>2020-06-18T11:37:29Z</time>
      </trkpt>
      <trkpt lat="49.92761" lon="1.07976">
        <ele>7.8</ele>
        <time>2020-06-18T11:37:30Z</time>
      </trkpt>
      <trkpt lat="49.9276" lon="1.07972">
        <ele>7.9</ele>
        <time>2020-06-18T11:37:31Z</time>
      </trkpt>
      <trkpt lat="49.92759" lon="1.07968">
        <ele>7.9</ele>
        <time>2020-06-18T11:37:32Z</time>
      </trkpt>
      <trkpt lat="49.92757" lon="1.07965">
        <ele>8</ele>
        <time>2020-06-18T11:37:33Z</time>
      </trkpt>
      <trkpt lat="49.92756" lon="1.07962">
        <ele>8</ele>
        <time>2020-06-18T11:37:34Z</time>
      </trkpt>
      <trkpt lat="49.92756" lon="1.07961">
        <ele>8</ele>
        <time>2020-06-18T11:37:35Z</time>
      </trkpt>
      <trkpt lat="49.92755" lon="1.07956">
        <ele>8.1</ele>
        <time>2020-06-18T11:37:36Z</time>
      </trkpt>
      <trkpt lat="49.92754" lon="1.07955">
        <ele>8.1</ele>
        <time>2020-06-18T11:37:37Z</time>
      </trkpt>
      <trkpt lat="49.92753" lon="1.07954">
        <ele>8.1</ele>
        <time>2020-06-18T11:37:38Z</time>
      </trkpt>
      <trkpt lat="49.92752" lon="1.07953">
        <ele>8.1</ele>
        <time>2020-06-18T11:37:39Z</time>
      </trkpt>
      <trkpt lat="49.92752" lon="1.07953">
        <ele>8.1</ele>
        <time>2020-06-18T11:37:40Z</time>
      </trkpt>
      <trkpt lat="49.92751" lon="1.07953">
        <ele>8.1</ele>
        <time>2020-06-18T11:37:41Z</time>
      </trkpt>
      <trkpt lat="49.9275" lon="1.07952">
        <ele>8.1</ele>
        <time>2020-06-18T11:37:42Z</time>
      </trkpt>
      <trkpt lat="49.9275" lon="1.07951">
        <ele>8.1</ele>
        <time>2020-06-18T11:37:43Z</time>
      </trkpt>
      <trkpt lat="49.9275" lon="1.07951">
        <ele>8.1</ele>
        <time>2020-06-18T11:37:44Z</time>
      </trkpt>
      <trkpt lat="49.9275" lon="1.07951">
        <ele>8.1</ele>
        <time>2020-06-18T11:37:45Z</time>
      </trkpt>
      <trkpt lat="49.9275" lon="1.07951">
        <ele>8.1</ele>
        <time>2020-06-18T11:37:46Z</time>
      </trkpt>
      <trkpt lat="49.9275" lon="1.07952">
        <ele>8.1</ele>
        <time>2020-06-18T11:37:47Z</time>
      </trkpt>
      <trkpt lat="49.9275" lon="1.07952">
        <ele>8.1</ele>
        <time>2020-06-18T11:37:48Z</time>
      </trkpt>
      <trkpt lat="49.9275" lon="1.07952">
        <ele>8.1</ele>
        <time>2020-06-18T11:37:49Z</time>
      </trkpt>
      <trkpt lat="49.92747" lon="1.07946">
        <ele>8.2</ele>
        <time>2020-06-18T11:37:58Z</time>
      </trkpt>
      <trkpt lat="49.92746" lon="1.07943">
        <ele>8.2</ele>
        <time>2020-06-18T11:37:59Z</time>
      </trkpt>
      <trkpt lat="49.92744" lon="1.07943">
        <ele>8.2</ele>
        <time>2020-06-18T11:38:00Z</time>
      </trkpt>
      <trkpt lat="49.92742" lon="1.07943">
        <ele>8.2</ele>
        <time>2020-06-18T11:38:01Z</time>
      </trkpt>
      <trkpt lat="49.92739" lon="1.07942">
        <ele>8.2</ele>
        <time>2020-06-18T11:38:02Z</time>
      </trkpt>
      <trkpt lat="49.92738" lon="1.07942">
        <ele>8.2</ele>
        <time>2020-06-18T11:38:03Z</time>
      </trkpt>
      <trkpt lat="49.92737" lon="1.07943">
        <ele>8.2</ele>
        <time>2020-06-18T11:38:04Z</time>
      </trkpt>
      <trkpt lat="49.92737" lon="1.07942">
        <ele>8.2</ele>
        <time>2020-06-18T11:38:05Z</time>
      </trkpt>
      <trkpt lat="49.92737" lon="1.07942">
        <ele>8.2</ele>
        <time>2020-06-18T11:38:06Z</time>
      </trkpt>
      <trkpt lat="49.92737" lon="1.07942">
        <ele>8.2</ele>
        <time>2020-06-18T11:38:07Z</time>
      </trkpt>
      <trkpt lat="49.92737" lon="1.07942">
        <ele>8.2</ele>
        <time>2020-06-18T11:38:08Z</time>
      </trkpt>
      <trkpt lat="49.92736" lon="1.07941">
        <ele>8.2</ele>
        <time>2020-06-18T11:38:09Z</time>
      </trkpt>
      <trkpt lat="49.92736" lon="1.0794">
        <ele>8.3</ele>
        <time>2020-06-18T11:38:10Z</time>
      </trkpt>
      <trkpt lat="49.92735" lon="1.0794">
        <ele>8.3</ele>
        <time>2020-06-18T11:38:11Z</time>
      </trkpt>
      <trkpt lat="49.92734" lon="1.07939">
        <ele>8.3</ele>
        <time>2020-06-18T11:38:12Z</time>
      </trkpt>
      <trkpt lat="49.92733" lon="1.07939">
        <ele>8.3</ele>
        <time>2020-06-18T11:38:13Z</time>
      </trkpt>
      <trkpt lat="49.92733" lon="1.07938">
        <ele>8.3</ele>
        <time>2020-06-18T11:38:14Z</time>
      </trkpt>
      <trkpt lat="49.92733" lon="1.07938">
        <ele>8.3</ele>
        <time>2020-06-18T11:38:15Z</time>
      </trkpt>
      <trkpt lat="49.92732" lon="1.07937">
        <ele>8.3</ele>
        <time>2020-06-18T11:38:16Z</time>
      </trkpt>
      <trkpt lat="49.92731" lon="1.07936">
        <ele>8.3</ele>
        <time>2020-06-18T11:38:17Z</time>
      </trkpt>
      <trkpt lat="49.92731" lon="1.07934">
        <ele>8.4</ele>
        <time>2020-06-18T11:38:18Z</time>
      </trkpt>
      <trkpt lat="49.92732" lon="1.07929">
        <ele>8.5</ele>
        <time>2020-06-18T11:38:19Z</time>
      </trkpt>
      <trkpt lat="49.92731" lon="1.07927">
        <ele>8.5</ele>
        <time>2020-06-18T11:38:20Z</time>
      </trkpt>
      <trkpt lat="49.92731" lon="1.07926">
        <ele>8.6</ele>
        <time>2020-06-18T11:38:21Z</time>
      </trkpt>
      <trkpt lat="49.9273" lon="1.07925">
        <ele>8.6</ele>
        <time>2020-06-18T11:38:22Z</time>
      </trkpt>
      <trkpt lat="49.92729" lon="1.07924">
        <ele>8.6</ele>
        <time>2020-06-18T11:38:23Z</time>
      </trkpt>
      <trkpt lat="49.92725" lon="1.07922">
        <ele>8.6</ele>
        <time>2020-06-18T11:38:27Z</time>
      </trkpt>
      <trkpt lat="49.92723" lon="1.07922">
        <ele>8.7</ele>
        <time>2020-06-18T11:38:28Z</time>
      </trkpt>
      <trkpt lat="49.92723" lon="1.07922">
        <ele>8.7</ele>
        <time>2020-06-18T11:38:29Z</time>
      </trkpt>
      <trkpt lat="49.92723" lon="1.07921">
        <ele>8.7</ele>
        <time>2020-06-18T11:38:30Z</time>
      </trkpt>
      <trkpt lat="49.92723" lon="1.0792">
        <ele>8.7</ele>
        <time>2020-06-18T11:38:31Z</time>
      </trkpt>
      <trkpt lat="49.92722" lon="1.0792">
        <ele>8.7</ele>
        <time>2020-06-18T11:38:32Z</time>
      </trkpt>
      <trkpt lat="49.92723" lon="1.0792">
        <ele>8.7</ele>
        <time>2020-06-18T11:38:33Z</time>
      </trkpt>
      <trkpt lat="49.92723" lon="1.07919">
        <ele>8.7</ele>
        <time>2020-06-18T11:38:34Z</time>
      </trkpt>
      <trkpt lat="49.92723" lon="1.07919">
        <ele>8.7</ele>
        <time>2020-06-18T11:38:35Z</time>
      </trkpt>
      <trkpt lat="49.92723" lon="1.07918">
        <ele>8.7</ele>
        <time>2020-06-18T11:38:36Z</time>
      </trkpt>
      <trkpt lat="49.92723" lon="1.07917">
        <ele>8.7</ele>
        <time>2020-06-18T11:38:37Z</time>
      </trkpt>
      <trkpt lat="49.92724" lon="1.07916">
        <ele>8.7</ele>
        <time>2020-06-18T11:38:38Z</time>
      </trkpt>
      <trkpt lat="49.92724" lon="1.07913">
        <ele>8.7</ele>
        <time>2020-06-18T11:38:39Z</time>
      </trkpt>
      <trkpt lat="49.92725" lon="1.07911">
        <ele>8.7</ele>
        <time>2020-06-18T11:38:40Z</time>
      </trkpt>
      <trkpt lat="49.92725" lon="1.0791">
        <ele>8.7</ele>
        <time>2020-06-18T11:38:41Z</time>
      </trkpt>
      <trkpt lat="49.92725" lon="1.07908">
        <ele>8.8</ele>
        <time>2020-06-18T11:38:42Z</time>
      </trkpt>
      <trkpt lat="49.92726" lon="1.07906">
        <ele>8.8</ele>
        <time>2020-06-18T11:38:43Z</time>
      </trkpt>
      <trkpt lat="49.92726" lon="1.07903">
        <ele>8.8</ele>
        <time>2020-06-18T11:38:44Z</time>
      </trkpt>
      <trkpt lat="49.92727" lon="1.07902">
        <ele>8.8</ele>
        <time>2020-06-18T11:38:45Z</time>
      </trkpt>
      <trkpt lat="49.92728" lon="1.079">
        <ele>8.8</ele>
        <time>2020-06-18T11:38:46Z</time>
      </trkpt>
      <trkpt lat="49.92728" lon="1.07899">
        <ele>8.8</ele>
        <time>2020-06-18T11:38:47Z</time>
      </trkpt>
      <trkpt lat="49.92729" lon="1.07898">
        <ele>8.8</ele>
        <time>2020-06-18T11:38:48Z</time>
      </trkpt>
      <trkpt lat="49.92728" lon="1.07899">
        <ele>8.8</ele>
        <time>2020-06-18T11:38:49Z</time>
      </trkpt>
      <trkpt lat="49.9273" lon="1.07896">
        <ele>8.8</ele>
        <time>2020-06-18T11:38:50Z</time>
      </trkpt>
      <trkpt lat="49.9273" lon="1.07896">
        <ele>8.8</ele>
        <time>2020-06-18T11:38:51Z</time>
      </trkpt>
      <trkpt lat="49.92731" lon="1.07895">
        <ele>8.8</ele>
        <time>2020-06-18T11:38:52Z</time>
      </trkpt>
      <trkpt lat="49.92731" lon="1.07896">
        <ele>8.8</ele>
        <time>2020-06-18T11:38:53Z</time>
      </trkpt>
      <trkpt lat="49.92731" lon="1.07896">
        <ele>8.8</ele>
        <time>2020-06-18T11:38:54Z</time>
      </trkpt>
      <trkpt lat="49.92731" lon="1.07896">
        <ele>8.8</ele>
        <time>2020-06-18T11:38:55Z</time>
      </trkpt>
      <trkpt lat="49.92731" lon="1.07896">
        <ele>8.8</ele>
        <time>2020-06-18T11:38:56Z</time>
      </trkpt>
      <trkpt lat="49.92731" lon="1.07896">
        <ele>8.8</ele>
        <time>2020-06-18T11:38:57Z</time>
      </trkpt>
      <trkpt lat="49.92731" lon="1.07896">
        <ele>8.8</ele>
        <time>2020-06-18T11:38:58Z</time>
      </trkpt>
      <trkpt lat="49.92731" lon="1.07897">
        <ele>8.8</ele>
        <time>2020-06-18T11:38:59Z</time>
      </trkpt>
      <trkpt lat="49.9273" lon="1.07897">
        <ele>8.8</ele>
        <time>2020-06-18T11:39:00Z</time>
      </trkpt>
      <trkpt lat="49.92734" lon="1.07891">
        <ele>8.8</ele>
        <time>2020-06-18T11:39:19Z</time>
      </trkpt>
      <trkpt lat="49.92734" lon="1.0789">
        <ele>8.8</ele>
        <time>2020-06-18T11:39:20Z</time>
      </trkpt>
      <trkpt lat="49.92735" lon="1.07889">
        <ele>8.8</ele>
        <time>2020-06-18T11:39:21Z</time>
      </trkpt>
      <trkpt lat="49.92735" lon="1.07889">
        <ele>8.8</ele>
        <time>2020-06-18T11:39:22Z</time>
      </trkpt>
      <trkpt lat="49.92735" lon="1.07889">
        <ele>8.8</ele>
        <time>2020-06-18T11:39:23Z</time>
      </trkpt>
      <trkpt lat="49.92735" lon="1.07889">
        <ele>8.8</ele>
        <time>2020-06-18T11:39:24Z</time>
      </trkpt>
      <trkpt lat="49.92736" lon="1.07889">
        <ele>8.8</ele>
        <time>2020-06-18T11:39:25Z</time>
      </trkpt>
      <trkpt lat="49.92736" lon="1.07888">
        <ele>8.8</ele>
        <time>2020-06-18T11:39:26Z</time>
      </trkpt>
      <trkpt lat="49.92737" lon="1.07887">
        <ele>8.8</ele>
        <time>2020-06-18T11:39:27Z</time>
      </trkpt>
      <trkpt lat="49.92737" lon="1.07887">
        <ele>8.8</ele>
        <time>2020-06-18T11:39:28Z</time>
      </trkpt>
      <trkpt lat="49.92737" lon="1.07886">
        <ele>8.8</ele>
        <time>2020-06-18T11:39:29Z</time>
      </trkpt>
      <trkpt lat="49.92737" lon="1.07886">
        <ele>8.8</ele>
        <time>2020-06-18T11:39:30Z</time>
      </trkpt>
      <trkpt lat="49.92737" lon="1.07886">
        <ele>8.8</ele>
        <time>2020-06-18T11:39:31Z</time>
      </trkpt>
      <trkpt lat="49.92737" lon="1.07886">
        <ele>8.8</ele>
        <time>2020-06-18T11:39:32Z</time>
      </trkpt>
      <trkpt lat="49.92738" lon="1.07885">
        <ele>8.8</ele>
        <time>2020-06-18T11:39:33Z</time>
      </trkpt>
      <trkpt lat="49.92738" lon="1.07885">
        <ele>8.8</ele>
        <time>2020-06-18T11:39:34Z</time>
      </trkpt>
      <trkpt lat="49.92738" lon="1.07886">
        <ele>8.8</ele>
        <time>2020-06-18T11:39:35Z</time>
      </trkpt>
      <trkpt lat="49.92738" lon="1.07887">
        <ele>8.8</ele>
        <time>2020-06-18T11:39:36Z</time>
      </trkpt>
      <trkpt lat="49.92737" lon="1.07888">
        <ele>8.8</ele>
        <time>2020-06-18T11:39:37Z</time>
      </trkpt>
      <trkpt lat="49.92737" lon="1.07888">
        <ele>8.8</ele>
        <time>2020-06-18T11:39:38Z</time>
      </trkpt>
      <trkpt lat="49.92737" lon="1.07888">
        <ele>8.8</ele>
        <time>2020-06-18T11:39:39Z</time>
      </trkpt>
      <trkpt lat="49.92721" lon="1.0789">
        <ele>8.9</ele>
        <time>2020-06-18T11:41:41Z</time>
      </trkpt>
      <trkpt lat="49.92723" lon="1.07891">
        <ele>8.9</ele>
        <time>2020-06-18T11:41:42Z</time>
      </trkpt>
      <trkpt lat="49.92724" lon="1.07894">
        <ele>8.9</ele>
        <time>2020-06-18T11:41:43Z</time>
      </trkpt>
      <trkpt lat="49.92725" lon="1.07894">
        <ele>8.9</ele>
        <time>2020-06-18T11:41:44Z</time>
      </trkpt>
      <trkpt lat="49.92727" lon="1.07895">
        <ele>8.9</ele>
        <time>2020-06-18T11:41:45Z</time>
      </trkpt>
      <trkpt lat="49.92728" lon="1.07896">
        <ele>8.9</ele>
        <time>2020-06-18T11:41:46Z</time>
      </trkpt>
      <trkpt lat="49.92729" lon="1.07897">
        <ele>8.9</ele>
        <time>2020-06-18T11:41:47Z</time>
      </trkpt>
      <trkpt lat="49.92729" lon="1.07898">
        <ele>8.9</ele>
        <time>2020-06-18T11:41:48Z</time>
      </trkpt>
      <trkpt lat="49.92731" lon="1.07901">
        <ele>9</ele>
        <time>2020-06-18T11:41:49Z</time>
      </trkpt>
      <trkpt lat="49.92731" lon="1.07903">
        <ele>9</ele>
        <time>2020-06-18T11:41:50Z</time>
      </trkpt>
      <trkpt lat="49.92732" lon="1.07905">
        <ele>9</ele>
        <time>2020-06-18T11:41:51Z</time>
      </trkpt>
      <trkpt lat="49.92733" lon="1.07907">
        <ele>9</ele>
        <time>2020-06-18T11:41:52Z</time>
      </trkpt>
      <trkpt lat="49.92733" lon="1.07908">
        <ele>9</ele>
        <time>2020-06-18T11:41:53Z</time>
      </trkpt>
      <trkpt lat="49.92733" lon="1.07908">
        <ele>9</ele>
        <time>2020-06-18T11:41:54Z</time>
      </trkpt>
      <trkpt lat="49.92733" lon="1.07909">
        <ele>9</ele>
        <time>2020-06-18T11:41:55Z</time>
      </trkpt>
      <trkpt lat="49.92734" lon="1.07909">
        <ele>9</ele>
        <time>2020-06-18T11:41:56Z</time>
      </trkpt>
      <trkpt lat="49.92734" lon="1.07909">
        <ele>9</ele>
        <time>2020-06-18T11:41:57Z</time>
      </trkpt>
      <trkpt lat="49.92734" lon="1.0791">
        <ele>9</ele>
        <time>2020-06-18T11:41:58Z</time>
      </trkpt>
      <trkpt lat="49.92733" lon="1.07911">
        <ele>9</ele>
        <time>2020-06-18T11:41:59Z</time>
      </trkpt>
      <trkpt lat="49.92732" lon="1.07912">
        <ele>9</ele>
        <time>2020-06-18T11:42:00Z</time>
      </trkpt>
      <trkpt lat="49.92725" lon="1.07918">
        <ele>9</ele>
        <time>2020-06-18T11:50:24Z</time>
      </trkpt>
      <trkpt lat="49.92725" lon="1.07917">
        <ele>9</ele>
        <time>2020-06-18T11:50:25Z</time>
      </trkpt>
      <trkpt lat="49.92725" lon="1.07916">
        <ele>9</ele>
        <time>2020-06-18T11:50:26Z</time>
      </trkpt>
      <trkpt lat="49.92725" lon="1.07915">
        <ele>9</ele>
        <time>2020-06-18T11:50:27Z</time>
      </trkpt>
      <trkpt lat="49.92725" lon="1.07915">
        <ele>9.1</ele>
        <time>2020-06-18T11:50:28Z</time>
      </trkpt>
      <trkpt lat="49.92724" lon="1.07915">
        <ele>9.1</ele>
        <time>2020-06-18T11:50:29Z</time>
      </trkpt>
      <trkpt lat="49.92724" lon="1.07915">
        <ele>9.1</ele>
        <time>2020-06-18T11:50:30Z</time>
      </trkpt>
      <trkpt lat="49.92724" lon="1.07914">
        <ele>9.1</ele>
        <time>2020-06-18T11:50:31Z</time>
      </trkpt>
      <trkpt lat="49.92715" lon="1.07882">
        <ele>9.2</ele>
        <time>2020-06-18T12:07:52Z</time>
      </trkpt>
      <trkpt lat="49.92714" lon="1.07879">
        <ele>9.2</ele>
        <time>2020-06-18T12:07:53Z</time>
      </trkpt>
      <trkpt lat="49.92714" lon="1.07878">
        <ele>9.2</ele>
        <time>2020-06-18T12:07:54Z</time>
      </trkpt>
      <trkpt lat="49.92714" lon="1.07881">
        <ele>9.2</ele>
        <time>2020-06-18T12:07:55Z</time>
      </trkpt>
      <trkpt lat="49.92714" lon="1.07884">
        <ele>9.2</ele>
        <time>2020-06-18T12:07:56Z</time>
      </trkpt>
      <trkpt lat="49.92714" lon="1.07887">
        <ele>9.2</ele>
        <time>2020-06-18T12:07:57Z</time>
      </trkpt>
      <trkpt lat="49.92714" lon="1.0789">
        <ele>9.2</ele>
        <time>2020-06-18T12:07:58Z</time>
      </trkpt>
      <trkpt lat="49.92714" lon="1.07893">
        <ele>9.1</ele>
        <time>2020-06-18T12:07:59Z</time>
      </trkpt>
      <trkpt lat="49.92714" lon="1.07896">
        <ele>9.1</ele>
        <time>2020-06-18T12:08:00Z</time>
      </trkpt>
      <trkpt lat="49.92714" lon="1.07899">
        <ele>9</ele>
        <time>2020-06-18T12:08:01Z</time>
      </trkpt>
      <trkpt lat="49.92714" lon="1.07903">
        <ele>9</ele>
        <time>2020-06-18T12:08:02Z</time>
      </trkpt>
      <trkpt lat="49.92714" lon="1.07906">
        <ele>8.9</ele>
        <time>2020-06-18T12:08:03Z</time>
      </trkpt>
      <trkpt lat="49.92714" lon="1.07909">
        <ele>8.9</ele>
        <time>2020-06-18T12:08:04Z</time>
      </trkpt>
      <trkpt lat="49.92714" lon="1.07912">
        <ele>8.8</ele>
        <time>2020-06-18T12:08:05Z</time>
      </trkpt>
      <trkpt lat="49.92714" lon="1.07915">
        <ele>8.8</ele>
        <time>2020-06-18T12:08:06Z</time>
      </trkpt>
      <trkpt lat="49.92714" lon="1.07918">
        <ele>8.8</ele>
        <time>2020-06-18T12:08:07Z</time>
      </trkpt>
      <trkpt lat="49.92714" lon="1.07921">
        <ele>8.7</ele>
        <time>2020-06-18T12:08:08Z</time>
      </trkpt>
      <trkpt lat="49.92714" lon="1.07924">
        <ele>8.7</ele>
        <time>2020-06-18T12:08:09Z</time>
      </trkpt>
      <trkpt lat="49.92714" lon="1.07927">
        <ele>8.7</ele>
        <time>2020-06-18T12:52:07Z</time>
      </trkpt>
      <trkpt lat="49.92714" lon="1.0793">
        <ele>8.2</ele>
        <time>2020-06-18T12:52:08Z</time>
      </trkpt>
      <trkpt lat="49.92714" lon="1.07933">
        <ele>8.2</ele>
        <time>2020-06-18T12:52:09Z</time>
      </trkpt>
      <trkpt lat="49.92714" lon="1.07936">
        <ele>8.2</ele>
        <time>2020-06-18T12:52:10Z</time>
      </trkpt>
      <trkpt lat="49.92713" lon="1.07939">
        <ele>8.2</ele>
        <time>2020-06-18T12:52:11Z</time>
      </trkpt>
      <trkpt lat="49.92713" lon="1.07942">
        <ele>8.2</ele>
        <time>2020-06-18T12:52:12Z</time>
      </trkpt>
      <trkpt lat="49.92713" lon="1.07946">
        <ele>8.2</ele>
        <time>2020-06-18T12:52:13Z</time>
      </trkpt>
      <trkpt lat="49.92713" lon="1.07949">
        <ele>8.2</ele>
        <time>2020-06-18T12:52:14Z</time>
      </trkpt>
      <trkpt lat="49.92713" lon="1.07952">
        <ele>8.2</ele>
        <time>2020-06-18T12:52:15Z</time>
      </trkpt>
      <trkpt lat="49.92713" lon="1.07955">
        <ele>8.2</ele>
        <time>2020-06-18T12:52:16Z</time>
      </trkpt>
      <trkpt lat="49.92713" lon="1.07958">
        <ele>8.2</ele>
        <time>2020-06-18T12:52:17Z</time>
      </trkpt>
      <trkpt lat="49.92713" lon="1.07961">
        <ele>8.2</ele>
        <time>2020-06-18T12:56:52Z</time>
      </trkpt>
      <trkpt lat="49.92713" lon="1.07964">
        <ele>8.2</ele>
        <time>2020-06-18T12:56:53Z</time>
      </trkpt>
      <trkpt lat="49.92716" lon="1.07966">
        <ele>8.2</ele>
        <time>2020-06-18T12:56:54Z</time>
      </trkpt>
      <trkpt lat="49.92718" lon="1.07958">
        <ele>8.2</ele>
        <time>2020-06-18T12:56:55Z</time>
      </trkpt>
      <trkpt lat="49.92721" lon="1.07951">
        <ele>8.2</ele>
        <time>2020-06-18T12:56:56Z</time>
      </trkpt>
      <trkpt lat="49.92723" lon="1.07943">
        <ele>8.2</ele>
        <time>2020-06-18T12:56:57Z</time>
      </trkpt>
      <trkpt lat="49.92724" lon="1.07944">
        <ele>8.2</ele>
        <time>2020-06-18T12:56:58Z</time>
      </trkpt>
      <trkpt lat="49.92723" lon="1.07945">
        <ele>8.2</ele>
        <time>2020-06-18T12:56:59Z</time>
      </trkpt>
      <trkpt lat="49.92724" lon="1.07946">
        <ele>8.2</ele>
        <time>2020-06-18T12:57:00Z</time>
      </trkpt>
      <trkpt lat="49.92724" lon="1.07947">
        <ele>8.2</ele>
        <time>2020-06-18T12:57:01Z</time>
      </trkpt>
      <trkpt lat="49.92725" lon="1.07949">
        <ele>8.2</ele>
        <time>2020-06-18T12:57:02Z</time>
      </trkpt>
      <trkpt lat="49.92725" lon="1.07948">
        <ele>8.2</ele>
        <time>2020-06-18T12:57:03Z</time>
      </trkpt>
      <trkpt lat="49.92725" lon="1.07945">
        <ele>8.2</ele>
        <time>2020-06-18T12:57:04Z</time>
      </trkpt>
      <trkpt lat="49.92725" lon="1.07945">
        <ele>8.2</ele>
        <time>2020-06-18T12:57:05Z</time>
      </trkpt>
      <trkpt lat="49.92725" lon="1.07943">
        <ele>8.2</ele>
        <time>2020-06-18T12:57:06Z</time>
      </trkpt>
      <trkpt lat="49.92725" lon="1.07941">
        <ele>8.2</ele>
        <time>2020-06-18T12:57:07Z</time>
      </trkpt>
      <trkpt lat="49.92724" lon="1.0794">
        <ele>8.2</ele>
        <time>2020-06-18T12:57:08Z</time>
      </trkpt>
      <trkpt lat="49.92723" lon="1.07939">
        <ele>8.2</ele>
        <time>2020-06-18T12:57:09Z</time>
      </trkpt>
      <trkpt lat="49.92722" lon="1.07938">
        <ele>8.2</ele>
        <time>2020-06-18T12:57:10Z</time>
      </trkpt>
      <trkpt lat="49.92721" lon="1.07937">
        <ele>8.2</ele>
        <time>2020-06-18T12:57:11Z</time>
      </trkpt>
      <trkpt lat="49.9272" lon="1.07936">
        <ele>8.2</ele>
        <time>2020-06-18T12:57:12Z</time>
      </trkpt>
      <trkpt lat="49.92719" lon="1.07934">
        <ele>8.1</ele>
        <time>2020-06-18T12:59:06Z</time>
      </trkpt>
      <trkpt lat="49.92718" lon="1.07933">
        <ele>8.1</ele>
        <time>2020-06-18T12:59:07Z</time>
      </trkpt>
      <trkpt lat="49.92715" lon="1.07934">
        <ele>8.1</ele>
        <time>2020-06-18T12:59:08Z</time>
      </trkpt>
      <trkpt lat="49.92714" lon="1.07935">
        <ele>8.1</ele>
        <time>2020-06-18T12:59:09Z</time>
      </trkpt>
      <trkpt lat="49.92711" lon="1.07935">
        <ele>8</ele>
        <time>2020-06-18T12:59:10Z</time>
      </trkpt>
      <trkpt lat="49.92707" lon="1.07936">
        <ele>8</ele>
        <time>2020-06-18T12:59:11Z</time>
      </trkpt>
      <trkpt lat="49.92703" lon="1.07937">
        <ele>7.9</ele>
        <time>2020-06-18T12:59:12Z</time>
      </trkpt>
      <trkpt lat="49.92699" lon="1.07938">
        <ele>7.9</ele>
        <time>2020-06-18T12:59:13Z</time>
      </trkpt>
      <trkpt lat="49.92695" lon="1.0794">
        <ele>7.8</ele>
        <time>2020-06-18T12:59:14Z</time>
      </trkpt>
      <trkpt lat="49.92692" lon="1.07941">
        <ele>7.7</ele>
        <time>2020-06-18T12:59:15Z</time>
      </trkpt>
      <trkpt lat="49.92688" lon="1.07943">
        <ele>7.7</ele>
        <time>2020-06-18T12:59:16Z</time>
      </trkpt>
      <trkpt lat="49.92682" lon="1.07945">
        <ele>7.6</ele>
        <time>2020-06-18T12:59:17Z</time>
      </trkpt>
      <trkpt lat="49.92678" lon="1.07947">
        <ele>7.5</ele>
        <time>2020-06-18T12:59:18Z</time>
      </trkpt>
      <trkpt lat="49.92673" lon="1.0795">
        <ele>7.5</ele>
        <time>2020-06-18T12:59:19Z</time>
      </trkpt>
      <trkpt lat="49.9267" lon="1.07953">
        <ele>7.5</ele>
        <time>2020-06-18T12:59:20Z</time>
      </trkpt>
      <trkpt lat="49.92667" lon="1.07956">
        <ele>7.5</ele>
        <time>2020-06-18T12:59:21Z</time>
      </trkpt>
      <trkpt lat="49.92664" lon="1.07957">
        <ele>7.5</ele>
        <time>2020-06-18T12:59:22Z</time>
      </trkpt>
      <trkpt lat="49.92659" lon="1.07959">
        <ele>7.5</ele>
        <time>2020-06-18T12:59:23Z</time>
      </trkpt>
      <trkpt lat="49.92655" lon="1.07961">
        <ele>7.5</ele>
        <time>2020-06-18T12:59:24Z</time>
      </trkpt>
      <trkpt lat="49.92652" lon="1.07963">
        <ele>7.5</ele>
        <time>2020-06-18T12:59:25Z</time>
      </trkpt>
      <trkpt lat="49.92648" lon="1.07964">
        <ele>7.6</ele>
        <time>2020-06-18T12:59:26Z</time>
      </trkpt>
      <trkpt lat="49.92644" lon="1.07966">
        <ele>7.5</ele>
        <time>2020-06-18T12:59:27Z</time>
      </trkpt>
      <trkpt lat="49.92639" lon="1.07968">
        <ele>7.4</ele>
        <time>2020-06-18T12:59:28Z</time>
      </trkpt>
      <trkpt lat="49.92634" lon="1.07971">
        <ele>7.4</ele>
        <time>2020-06-18T12:59:29Z</time>
      </trkpt>
      <trkpt lat="49.9263" lon="1.07974">
        <ele>7.3</ele>
        <time>2020-06-18T12:59:30Z</time>
      </trkpt>
      <trkpt lat="49.92626" lon="1.07978">
        <ele>7.2</ele>
        <time>2020-06-18T12:59:31Z</time>
      </trkpt>
      <trkpt lat="49.92621" lon="1.07981">
        <ele>7.1</ele>
        <time>2020-06-18T12:59:32Z</time>
      </trkpt>
      <trkpt lat="49.92616" lon="1.07984">
        <ele>7.1</ele>
        <time>2020-06-18T12:59:33Z</time>
      </trkpt>
      <trkpt lat="49.92611" lon="1.07986">
        <ele>7.1</ele>
        <time>2020-06-18T12:59:34Z</time>
      </trkpt>
      <trkpt lat="49.92607" lon="1.07989">
        <ele>7</ele>
        <time>2020-06-18T12:59:35Z</time>
      </trkpt>
      <trkpt lat="49.92602" lon="1.07992">
        <ele>7</ele>
        <time>2020-06-18T12:59:36Z</time>
      </trkpt>
      <trkpt lat="49.92598" lon="1.07994">
        <ele>7</ele>
        <time>2020-06-18T12:59:37Z</time>
      </trkpt>
      <trkpt lat="49.92594" lon="1.07997">
        <ele>7</ele>
        <time>2020-06-18T12:59:38Z</time>
      </trkpt>
      <trkpt lat="49.92591" lon="1.07999">
        <ele>7</ele>
        <time>2020-06-18T12:59:39Z</time>
      </trkpt>
      <trkpt lat="49.92587" lon="1.08001">
        <ele>7</ele>
        <time>2020-06-18T12:59:40Z</time>
      </trkpt>
      <trkpt lat="49.92584" lon="1.08003">
        <ele>6.9</ele>
        <time>2020-06-18T12:59:41Z</time>
      </trkpt>
      <trkpt lat="49.9258" lon="1.08005">
        <ele>6.9</ele>
        <time>2020-06-18T12:59:42Z</time>
      </trkpt>
      <trkpt lat="49.92577" lon="1.08006">
        <ele>6.9</ele>
        <time>2020-06-18T12:59:43Z</time>
      </trkpt>
      <trkpt lat="49.92574" lon="1.08009">
        <ele>6.9</ele>
        <time>2020-06-18T12:59:44Z</time>
      </trkpt>
      <trkpt lat="49.92571" lon="1.08012">
        <ele>6.9</ele>
        <time>2020-06-18T12:59:45Z</time>
      </trkpt>
      <trkpt lat="49.9257" lon="1.08013">
        <ele>6.9</ele>
        <time>2020-06-18T12:59:46Z</time>
      </trkpt>
      <trkpt lat="49.92568" lon="1.08014">
        <ele>6.9</ele>
        <time>2020-06-18T12:59:47Z</time>
      </trkpt>
      <trkpt lat="49.92567" lon="1.08015">
        <ele>6.9</ele>
        <time>2020-06-18T12:59:48Z</time>
      </trkpt>
      <trkpt lat="49.92565" lon="1.08016">
        <ele>6.9</ele>
        <time>2020-06-18T12:59:49Z</time>
      </trkpt>
      <trkpt lat="49.92565" lon="1.08016">
        <ele>6.9</ele>
        <time>2020-06-18T12:59:50Z</time>
      </trkpt>
      <trkpt lat="49.92564" lon="1.08016">
        <ele>6.9</ele>
        <time>2020-06-18T12:59:51Z</time>
      </trkpt>
      <trkpt lat="49.92566" lon="1.08014">
        <ele>6.9</ele>
        <time>2020-06-18T12:59:52Z</time>
      </trkpt>
      <trkpt lat="49.92565" lon="1.08013">
        <ele>6.9</ele>
        <time>2020-06-18T12:59:53Z</time>
      </trkpt>
      <trkpt lat="49.92565" lon="1.08013">
        <ele>6.9</ele>
        <time>2020-06-18T12:59:54Z</time>
      </trkpt>
      <trkpt lat="49.92564" lon="1.08013">
        <ele>6.9</ele>
        <time>2020-06-18T12:59:55Z</time>
      </trkpt>
      <trkpt lat="49.92564" lon="1.08014">
        <ele>6.9</ele>
        <time>2020-06-18T12:59:56Z</time>
      </trkpt>
      <trkpt lat="49.92565" lon="1.08016">
        <ele>6.9</ele>
        <time>2020-06-18T12:59:57Z</time>
      </trkpt>
      <trkpt lat="49.92564" lon="1.08016">
        <ele>6.9</ele>
        <time>2020-06-18T12:59:58Z</time>
      </trkpt>
      <trkpt lat="49.92564" lon="1.08016">
        <ele>6.9</ele>
        <time>2020-06-18T12:59:59Z</time>
      </trkpt>
      <trkpt lat="49.92564" lon="1.08015">
        <ele>6.9</ele>
        <time>2020-06-18T13:00:00Z</time>
      </trkpt>
      <trkpt lat="49.92565" lon="1.08015">
        <ele>6.9</ele>
        <time>2020-06-18T13:00:01Z</time>
      </trkpt>
      <trkpt lat="49.92564" lon="1.08015">
        <ele>6.9</ele>
        <time>2020-06-18T13:00:02Z</time>
      </trkpt>
      <trkpt lat="49.92564" lon="1.08015">
        <ele>6.9</ele>
        <time>2020-06-18T13:00:03Z</time>
      </trkpt>
      <trkpt lat="49.92563" lon="1.08016">
        <ele>6.9</ele>
        <time>2020-06-18T13:00:04Z</time>
      </trkpt>
      <trkpt lat="49.92562" lon="1.08016">
        <ele>6.9</ele>
        <time>2020-06-18T13:00:05Z</time>
      </trkpt>
      <trkpt lat="49.92563" lon="1.08015">
        <ele>6.9</ele>
        <time>2020-06-18T13:00:06Z</time>
      </trkpt>
      <trkpt lat="49.92563" lon="1.08015">
        <ele>6.9</ele>
        <time>2020-06-18T13:00:07Z</time>
      </trkpt>
      <trkpt lat="49.92551" lon="1.08221">
        <ele>6.4</ele>
        <time>2020-06-18T13:03:54Z</time>
      </trkpt>
      <trkpt lat="49.9255" lon="1.08212">
        <ele>5.8</ele>
        <time>2020-06-18T13:03:55Z</time>
      </trkpt>
      <trkpt lat="49.92549" lon="1.08204">
        <ele>5.1</ele>
        <time>2020-06-18T13:03:56Z</time>
      </trkpt>
      <trkpt lat="49.92549" lon="1.08203">
        <ele>5.1</ele>
        <time>2020-06-18T13:03:57Z</time>
      </trkpt>
      <trkpt lat="49.92549" lon="1.08203">
        <ele>5.1</ele>
        <time>2020-06-18T13:03:58Z</time>
      </trkpt>
      <trkpt lat="49.9255" lon="1.08203">
        <ele>5.1</ele>
        <time>2020-06-18T13:03:59Z</time>
      </trkpt>
      <trkpt lat="49.92549" lon="1.08203">
        <ele>5.1</ele>
        <time>2020-06-18T13:04:00Z</time>
      </trkpt>
      <trkpt lat="49.92549" lon="1.08203">
        <ele>5.1</ele>
        <time>2020-06-18T13:04:01Z</time>
      </trkpt>
      <trkpt lat="49.92549" lon="1.08203">
        <ele>5.1</ele>
        <time>2020-06-18T13:04:02Z</time>
      </trkpt>
      <trkpt lat="49.92549" lon="1.08203">
        <ele>5.1</ele>
        <time>2020-06-18T13:04:03Z</time>
      </trkpt>
      <trkpt lat="49.92549" lon="1.08201">
        <ele>4.7</ele>
        <time>2020-06-18T13:04:04Z</time>
      </trkpt>
      <trkpt lat="49.92549" lon="1.08199">
        <ele>4.7</ele>
        <time>2020-06-18T13:04:05Z</time>
      </trkpt>
      <trkpt lat="49.92548" lon="1.08198">
        <ele>4.3</ele>
        <time>2020-06-18T13:04:06Z</time>
      </trkpt>
      <trkpt lat="49.92551" lon="1.08163">
        <ele>2.4</ele>
        <time>2020-06-18T13:05:08Z</time>
      </trkpt>
      <trkpt lat="49.92551" lon="1.08162">
        <ele>2.4</ele>
        <time>2020-06-18T13:05:09Z</time>
      </trkpt>
      <trkpt lat="49.92551" lon="1.08161">
        <ele>2.4</ele>
        <time>2020-06-18T13:05:10Z</time>
      </trkpt>
      <trkpt lat="49.92552" lon="1.08161">
        <ele>2.4</ele>
        <time>2020-06-18T13:05:11Z</time>
      </trkpt>
      <trkpt lat="49.92552" lon="1.0816">
        <ele>2.4</ele>
        <time>2020-06-18T13:05:12Z</time>
      </trkpt>
      <trkpt lat="49.92552" lon="1.08159">
        <ele>2.4</ele>
        <time>2020-06-18T13:05:13Z</time>
      </trkpt>
      <trkpt lat="49.92552" lon="1.0816">
        <ele>2.4</ele>
        <time>2020-06-18T13:05:14Z</time>
      </trkpt>
      <trkpt lat="49.92552" lon="1.08159">
        <ele>2.4</ele>
        <time>2020-06-18T13:05:15Z</time>
      </trkpt>
      <trkpt lat="49.92552" lon="1.08159">
        <ele>2.4</ele>
        <time>2020-06-18T13:05:16Z</time>
      </trkpt>
      <trkpt lat="49.92551" lon="1.0816">
        <ele>2.5</ele>
        <time>2020-06-18T13:05:17Z</time>
      </trkpt>
      <trkpt lat="49.92551" lon="1.08159">
        <ele>2.4</ele>
        <time>2020-06-18T13:05:18Z</time>
      </trkpt>
      <trkpt lat="49.92552" lon="1.08159">
        <ele>2.4</ele>
        <time>2020-06-18T13:05:19Z</time>
      </trkpt>
      <trkpt lat="49.92553" lon="1.08157">
        <ele>2.4</ele>
        <time>2020-06-18T13:05:20Z</time>
      </trkpt>
      <trkpt lat="49.92553" lon="1.08156">
        <ele>2.4</ele>
        <time>2020-06-18T13:05:21Z</time>
      </trkpt>
      <trkpt lat="49.92554" lon="1.08155">
        <ele>2.4</ele>
        <time>2020-06-18T13:05:22Z</time>
      </trkpt>
      <trkpt lat="49.92554" lon="1.08155">
        <ele>2.4</ele>
        <time>2020-06-18T13:05:23Z</time>
      </trkpt>
      <trkpt lat="49.92554" lon="1.08155">
        <ele>2.4</ele>
        <time>2020-06-18T13:05:24Z</time>
      </trkpt>
      <trkpt lat="49.92553" lon="1.08155">
        <ele>2.5</ele>
        <time>2020-06-18T13:05:25Z</time>
      </trkpt>
      <trkpt lat="49.92556" lon="1.08154">
        <ele>2.4</ele>
        <time>2020-06-18T13:05:26Z</time>
      </trkpt>
      <trkpt lat="49.92556" lon="1.08154">
        <ele>2.4</ele>
        <time>2020-06-18T13:05:27Z</time>
      </trkpt>
      <trkpt lat="49.92556" lon="1.08154">
        <ele>2.4</ele>
        <time>2020-06-18T13:05:28Z</time>
      </trkpt>
      <trkpt lat="49.92556" lon="1.08154">
        <ele>2.5</ele>
        <time>2020-06-18T13:05:29Z</time>
      </trkpt>
      <trkpt lat="49.92556" lon="1.08153">
        <ele>2.5</ele>
        <time>2020-06-18T13:05:30Z</time>
      </trkpt>
      <trkpt lat="49.92556" lon="1.08152">
        <ele>2.5</ele>
        <time>2020-06-18T13:05:31Z</time>
      </trkpt>
      <trkpt lat="49.92555" lon="1.08151">
        <ele>2.5</ele>
        <time>2020-06-18T13:05:32Z</time>
      </trkpt>
      <trkpt lat="49.92556" lon="1.0815">
        <ele>2.5</ele>
        <time>2020-06-18T13:05:33Z</time>
      </trkpt>
      <trkpt lat="49.92556" lon="1.0815">
        <ele>2.5</ele>
        <time>2020-06-18T13:05:34Z</time>
      </trkpt>
      <trkpt lat="49.92556" lon="1.0815">
        <ele>2.5</ele>
        <time>2020-06-18T13:05:35Z</time>
      </trkpt>
      <trkpt lat="49.92556" lon="1.0815">
        <ele>2.5</ele>
        <time>2020-06-18T13:05:36Z</time>
      </trkpt>
      <trkpt lat="49.92556" lon="1.0815">
        <ele>2.5</ele>
        <time>2020-06-18T13:05:37Z</time>
      </trkpt>
      <trkpt lat="49.92556" lon="1.08143">
        <ele>2.5</ele>
        <time>2020-06-18T13:05:50Z</time>
      </trkpt>
      <trkpt lat="49.92557" lon="1.08142">
        <ele>2.5</ele>
        <time>2020-06-18T13:05:51Z</time>
      </trkpt>
      <trkpt lat="49.92557" lon="1.08142">
        <ele>2.5</ele>
        <time>2020-06-18T13:05:52Z</time>
      </trkpt>
      <trkpt lat="49.92558" lon="1.0814">
        <ele>2.5</ele>
        <time>2020-06-18T13:05:53Z</time>
      </trkpt>
      <trkpt lat="49.92558" lon="1.08139">
        <ele>2.5</ele>
        <time>2020-06-18T13:05:54Z</time>
      </trkpt>
      <trkpt lat="49.92558" lon="1.08139">
        <ele>2.5</ele>
        <time>2020-06-18T13:05:55Z</time>
      </trkpt>
      <trkpt lat="49.92558" lon="1.08137">
        <ele>2.5</ele>
        <time>2020-06-18T13:05:56Z</time>
      </trkpt>
      <trkpt lat="49.92558" lon="1.08137">
        <ele>2.5</ele>
        <time>2020-06-18T13:05:57Z</time>
      </trkpt>
      <trkpt lat="49.92559" lon="1.08136">
        <ele>2.5</ele>
        <time>2020-06-18T13:05:58Z</time>
      </trkpt>
      <trkpt lat="49.92559" lon="1.08135">
        <ele>2.6</ele>
        <time>2020-06-18T13:05:59Z</time>
      </trkpt>
      <trkpt lat="49.92559" lon="1.08135">
        <ele>2.6</ele>
        <time>2020-06-18T13:06:00Z</time>
      </trkpt>
      <trkpt lat="49.9256" lon="1.08134">
        <ele>2.6</ele>
        <time>2020-06-18T13:06:01Z</time>
      </trkpt>
      <trkpt lat="49.92559" lon="1.08134">
        <ele>2.6</ele>
        <time>2020-06-18T13:06:02Z</time>
      </trkpt>
      <trkpt lat="49.92557" lon="1.08134">
        <ele>2.6</ele>
        <time>2020-06-18T13:06:03Z</time>
      </trkpt>
      <trkpt lat="49.92558" lon="1.08135">
        <ele>2.6</ele>
        <time>2020-06-18T13:06:04Z</time>
      </trkpt>
      <trkpt lat="49.92558" lon="1.08134">
        <ele>2.6</ele>
        <time>2020-06-18T13:06:05Z</time>
      </trkpt>
      <trkpt lat="49.92558" lon="1.08133">
        <ele>2.6</ele>
        <time>2020-06-18T13:06:06Z</time>
      </trkpt>
      <trkpt lat="49.92558" lon="1.08133">
        <ele>2.6</ele>
        <time>2020-06-18T13:06:07Z</time>
      </trkpt>
      <trkpt lat="49.92558" lon="1.0813">
        <ele>2.6</ele>
        <time>2020-06-18T13:06:08Z</time>
      </trkpt>
      <trkpt lat="49.92559" lon="1.08129">
        <ele>2.6</ele>
        <time>2020-06-18T13:06:09Z</time>
      </trkpt>
      <trkpt lat="49.92558" lon="1.08128">
        <ele>2.6</ele>
        <time>2020-06-18T13:06:10Z</time>
      </trkpt>
      <trkpt lat="49.92558" lon="1.08126">
        <ele>2.6</ele>
        <time>2020-06-18T13:06:11Z</time>
      </trkpt>
      <trkpt lat="49.92558" lon="1.08124">
        <ele>2.6</ele>
        <time>2020-06-18T13:06:12Z</time>
      </trkpt>
      <trkpt lat="49.92558" lon="1.08122">
        <ele>2.7</ele>
        <time>2020-06-18T13:06:13Z</time>
      </trkpt>
      <trkpt lat="49.92557" lon="1.08119">
        <ele>2.7</ele>
        <time>2020-06-18T13:06:14Z</time>
      </trkpt>
      <trkpt lat="49.92557" lon="1.08118">
        <ele>2.7</ele>
        <time>2020-06-18T13:06:15Z</time>
      </trkpt>
      <trkpt lat="49.92556" lon="1.08116">
        <ele>2.7</ele>
        <time>2020-06-18T13:06:16Z</time>
      </trkpt>
      <trkpt lat="49.92556" lon="1.08116">
        <ele>2.8</ele>
        <time>2020-06-18T13:06:17Z</time>
      </trkpt>
      <trkpt lat="49.92555" lon="1.08115">
        <ele>2.8</ele>
        <time>2020-06-18T13:06:18Z</time>
      </trkpt>
      <trkpt lat="49.92555" lon="1.08114">
        <ele>2.8</ele>
        <time>2020-06-18T13:06:19Z</time>
      </trkpt>
      <trkpt lat="49.92554" lon="1.08113">
        <ele>2.8</ele>
        <time>2020-06-18T13:06:20Z</time>
      </trkpt>
      <trkpt lat="49.92554" lon="1.08112">
        <ele>2.8</ele>
        <time>2020-06-18T13:06:21Z</time>
      </trkpt>
      <trkpt lat="49.92554" lon="1.08111">
        <ele>2.8</ele>
        <time>2020-06-18T13:06:22Z</time>
      </trkpt>
      <trkpt lat="49.92553" lon="1.0811">
        <ele>2.9</ele>
        <time>2020-06-18T13:06:23Z</time>
      </trkpt>
      <trkpt lat="49.92553" lon="1.08109">
        <ele>2.9</ele>
        <time>2020-06-18T13:06:24Z</time>
      </trkpt>
      <trkpt lat="49.92553" lon="1.08109">
        <ele>2.9</ele>
        <time>2020-06-18T13:06:25Z</time>
      </trkpt>
      <trkpt lat="49.92554" lon="1.08108">
        <ele>2.8</ele>
        <time>2020-06-18T13:06:26Z</time>
      </trkpt>
      <trkpt lat="49.92554" lon="1.08108">
        <ele>2.9</ele>
        <time>2020-06-18T13:06:27Z</time>
      </trkpt>
      <trkpt lat="49.92554" lon="1.08108">
        <ele>2.9</ele>
        <time>2020-06-18T13:06:28Z</time>
      </trkpt>
      <trkpt lat="49.92554" lon="1.08105">
        <ele>2.9</ele>
        <time>2020-06-18T13:06:29Z</time>
      </trkpt>
      <trkpt lat="49.92554" lon="1.08103">
        <ele>3</ele>
        <time>2020-06-18T13:06:30Z</time>
      </trkpt>
      <trkpt lat="49.92553" lon="1.08101">
        <ele>3.1</ele>
        <time>2020-06-18T13:06:31Z</time>
      </trkpt>
      <trkpt lat="49.92552" lon="1.08099">
        <ele>3.3</ele>
        <time>2020-06-18T13:06:32Z</time>
      </trkpt>
      <trkpt lat="49.92552" lon="1.08097">
        <ele>3.3</ele>
        <time>2020-06-18T13:06:33Z</time>
      </trkpt>
      <trkpt lat="49.92551" lon="1.08097">
        <ele>3.3</ele>
        <time>2020-06-18T13:06:34Z</time>
      </trkpt>
      <trkpt lat="49.92551" lon="1.08096">
        <ele>3.3</ele>
        <time>2020-06-18T13:06:35Z</time>
      </trkpt>
      <trkpt lat="49.92551" lon="1.08096">
        <ele>3.3</ele>
        <time>2020-06-18T13:06:36Z</time>
      </trkpt>
      <trkpt lat="49.9255" lon="1.08095">
        <ele>3.6</ele>
        <time>2020-06-18T13:06:37Z</time>
      </trkpt>
      <trkpt lat="49.92551" lon="1.08095">
        <ele>3.5</ele>
        <time>2020-06-18T13:06:38Z</time>
      </trkpt>
      <trkpt lat="49.92551" lon="1.08096">
        <ele>3.3</ele>
        <time>2020-06-18T13:06:39Z</time>
      </trkpt>
      <trkpt lat="49.92552" lon="1.08096">
        <ele>3.3</ele>
        <time>2020-06-18T13:06:40Z</time>
      </trkpt>
      <trkpt lat="49.92553" lon="1.08097">
        <ele>3.3</ele>
        <time>2020-06-18T13:06:41Z</time>
      </trkpt>
      <trkpt lat="49.92553" lon="1.08097">
        <ele>3.3</ele>
        <time>2020-06-18T13:06:42Z</time>
      </trkpt>
      <trkpt lat="49.92554" lon="1.08097">
        <ele>3.2</ele>
        <time>2020-06-18T13:06:43Z</time>
      </trkpt>
      <trkpt lat="49.92554" lon="1.08097">
        <ele>3.2</ele>
        <time>2020-06-18T13:06:44Z</time>
      </trkpt>
      <trkpt lat="49.92555" lon="1.08097">
        <ele>3.2</ele>
        <time>2020-06-18T13:06:45Z</time>
      </trkpt>
      <trkpt lat="49.92554" lon="1.08096">
        <ele>3.3</ele>
        <time>2020-06-18T13:06:46Z</time>
      </trkpt>
      <trkpt lat="49.92554" lon="1.08096">
        <ele>3.3</ele>
        <time>2020-06-18T13:06:47Z</time>
      </trkpt>
      <trkpt lat="49.92554" lon="1.08096">
        <ele>3.3</ele>
        <time>2020-06-18T13:06:48Z</time>
      </trkpt>
      <trkpt lat="49.92555" lon="1.08096">
        <ele>3.3</ele>
        <time>2020-06-18T13:06:49Z</time>
      </trkpt>
      <trkpt lat="49.92555" lon="1.0809">
        <ele>3.6</ele>
        <time>2020-06-18T13:07:12Z</time>
      </trkpt>
      <trkpt lat="49.92556" lon="1.08089">
        <ele>3.6</ele>
        <time>2020-06-18T13:07:13Z</time>
      </trkpt>
      <trkpt lat="49.92556" lon="1.08088">
        <ele>3.6</ele>
        <time>2020-06-18T13:07:14Z</time>
      </trkpt>
      <trkpt lat="49.92556" lon="1.08088">
        <ele>3.5</ele>
        <time>2020-06-18T13:07:15Z</time>
      </trkpt>
      <trkpt lat="49.92556" lon="1.08088">
        <ele>3.5</ele>
        <time>2020-06-18T13:07:16Z</time>
      </trkpt>
      <trkpt lat="49.92556" lon="1.08089">
        <ele>3.5</ele>
        <time>2020-06-18T13:07:17Z</time>
      </trkpt>
      <trkpt lat="49.92557" lon="1.08088">
        <ele>3.5</ele>
        <time>2020-06-18T13:07:18Z</time>
      </trkpt>
      <trkpt lat="49.92557" lon="1.08088">
        <ele>3.5</ele>
        <time>2020-06-18T13:07:19Z</time>
      </trkpt>
      <trkpt lat="49.92558" lon="1.08088">
        <ele>3.5</ele>
        <time>2020-06-18T13:07:20Z</time>
      </trkpt>
      <trkpt lat="49.92558" lon="1.08087">
        <ele>3.5</ele>
        <time>2020-06-18T13:07:21Z</time>
      </trkpt>
      <trkpt lat="49.92559" lon="1.08087">
        <ele>3.5</ele>
        <time>2020-06-18T13:07:22Z</time>
      </trkpt>
      <trkpt lat="49.9256" lon="1.08087">
        <ele>3.4</ele>
        <time>2020-06-18T13:07:23Z</time>
      </trkpt>
      <trkpt lat="49.9256" lon="1.08087">
        <ele>3.4</ele>
        <time>2020-06-18T13:07:24Z</time>
      </trkpt>
      <trkpt lat="49.9256" lon="1.08087">
        <ele>3.5</ele>
        <time>2020-06-18T13:07:25Z</time>
      </trkpt>
      <trkpt lat="49.9256" lon="1.08087">
        <ele>3.5</ele>
        <time>2020-06-18T13:07:26Z</time>
      </trkpt>
      <trkpt lat="49.9256" lon="1.08087">
        <ele>3.5</ele>
        <time>2020-06-18T13:07:27Z</time>
      </trkpt>
      <trkpt lat="49.9256" lon="1.08088">
        <ele>3.5</ele>
        <time>2020-06-18T13:07:28Z</time>
      </trkpt>
      <trkpt lat="49.92559" lon="1.08087">
        <ele>3.5</ele>
        <time>2020-06-18T13:07:29Z</time>
      </trkpt>
      <trkpt lat="49.92559" lon="1.08086">
        <ele>3.8</ele>
        <time>2020-06-18T13:07:30Z</time>
      </trkpt>
      <trkpt lat="49.92558" lon="1.08085">
        <ele>3.8</ele>
        <time>2020-06-18T13:07:31Z</time>
      </trkpt>
      <trkpt lat="49.92557" lon="1.08083">
        <ele>3.8</ele>
        <time>2020-06-18T13:07:32Z</time>
      </trkpt>
      <trkpt lat="49.92558" lon="1.08082">
        <ele>4</ele>
        <time>2020-06-18T13:07:33Z</time>
      </trkpt>
      <trkpt lat="49.92558" lon="1.08081">
        <ele>4</ele>
        <time>2020-06-18T13:07:34Z</time>
      </trkpt>
      <trkpt lat="49.92558" lon="1.0808">
        <ele>4</ele>
        <time>2020-06-18T13:07:35Z</time>
      </trkpt>
      <trkpt lat="49.92558" lon="1.08079">
        <ele>4</ele>
        <time>2020-06-18T13:07:36Z</time>
      </trkpt>
      <trkpt lat="49.92558" lon="1.08078">
        <ele>4.3</ele>
        <time>2020-06-18T13:07:37Z</time>
      </trkpt>
      <trkpt lat="49.92558" lon="1.08078">
        <ele>4.3</ele>
        <time>2020-06-18T13:07:38Z</time>
      </trkpt>
      <trkpt lat="49.92558" lon="1.08077">
        <ele>4.3</ele>
        <time>2020-06-18T13:07:39Z</time>
      </trkpt>
      <trkpt lat="49.92558" lon="1.08077">
        <ele>4.3</ele>
        <time>2020-06-18T13:07:40Z</time>
      </trkpt>
      <trkpt lat="49.92558" lon="1.08077">
        <ele>4.3</ele>
        <time>2020-06-18T13:07:41Z</time>
      </trkpt>
      <trkpt lat="49.92558" lon="1.08076">
        <ele>4.3</ele>
        <time>2020-06-18T13:07:42Z</time>
      </trkpt>
      <trkpt lat="49.92558" lon="1.08076">
        <ele>4.3</ele>
        <time>2020-06-18T13:07:43Z</time>
      </trkpt>
      <trkpt lat="49.92558" lon="1.08075">
        <ele>4.3</ele>
        <time>2020-06-18T13:07:44Z</time>
      </trkpt>
      <trkpt lat="49.92555" lon="1.08036">
        <ele>6.7</ele>
        <time>2020-06-18T13:09:36Z</time>
      </trkpt>
      <trkpt lat="49.92554" lon="1.08036">
        <ele>6.7</ele>
        <time>2020-06-18T13:09:37Z</time>
      </trkpt>
      <trkpt lat="49.92553" lon="1.08037">
        <ele>6.7</ele>
        <time>2020-06-18T13:09:38Z</time>
      </trkpt>
      <trkpt lat="49.92551" lon="1.08036">
        <ele>6.7</ele>
        <time>2020-06-18T13:09:39Z</time>
      </trkpt>
      <trkpt lat="49.92551" lon="1.08035">
        <ele>6.7</ele>
        <time>2020-06-18T13:09:40Z</time>
      </trkpt>
      <trkpt lat="49.9255" lon="1.08035">
        <ele>6.7</ele>
        <time>2020-06-18T13:09:41Z</time>
      </trkpt>
      <trkpt lat="49.92549" lon="1.08034">
        <ele>6.7</ele>
        <time>2020-06-18T13:09:42Z</time>
      </trkpt>
      <trkpt lat="49.92549" lon="1.08035">
        <ele>6.7</ele>
        <time>2020-06-18T13:09:43Z</time>
      </trkpt>
      <trkpt lat="49.92549" lon="1.08036">
        <ele>6.7</ele>
        <time>2020-06-18T13:09:44Z</time>
      </trkpt>
      <trkpt lat="49.92549" lon="1.08036">
        <ele>6.7</ele>
        <time>2020-06-18T13:09:45Z</time>
      </trkpt>
      <trkpt lat="49.92549" lon="1.08038">
        <ele>6.7</ele>
        <time>2020-06-18T13:09:46Z</time>
      </trkpt>
      <trkpt lat="49.9255" lon="1.08038">
        <ele>6.7</ele>
        <time>2020-06-18T13:09:47Z</time>
      </trkpt>
      <trkpt lat="49.92551" lon="1.08039">
        <ele>6.7</ele>
        <time>2020-06-18T13:09:48Z</time>
      </trkpt>
      <trkpt lat="49.92554" lon="1.08038">
        <ele>6.7</ele>
        <time>2020-06-18T13:09:49Z</time>
      </trkpt>
      <trkpt lat="49.92555" lon="1.08038">
        <ele>6.7</ele>
        <time>2020-06-18T13:09:50Z</time>
      </trkpt>
      <trkpt lat="49.92559" lon="1.08035">
        <ele>6.7</ele>
        <time>2020-06-18T13:09:51Z</time>
      </trkpt>
      <trkpt lat="49.92563" lon="1.08033">
        <ele>6.7</ele>
        <time>2020-06-18T13:09:52Z</time>
      </trkpt>
      <trkpt lat="49.92567" lon="1.08031">
        <ele>6.7</ele>
        <time>2020-06-18T13:09:53Z</time>
      </trkpt>
      <trkpt lat="49.9257" lon="1.08029">
        <ele>6.7</ele>
        <time>2020-06-18T13:09:54Z</time>
      </trkpt>
      <trkpt lat="49.92574" lon="1.08026">
        <ele>6.7</ele>
        <time>2020-06-18T13:09:55Z</time>
      </trkpt>
      <trkpt lat="49.92577" lon="1.08023">
        <ele>6.7</ele>
        <time>2020-06-18T13:09:56Z</time>
      </trkpt>
      <trkpt lat="49.9258" lon="1.08021">
        <ele>6.8</ele>
        <time>2020-06-18T13:09:57Z</time>
      </trkpt>
      <trkpt lat="49.92584" lon="1.08018">
        <ele>6.8</ele>
        <time>2020-06-18T13:09:58Z</time>
      </trkpt>
      <trkpt lat="49.92586" lon="1.08015">
        <ele>6.8</ele>
        <time>2020-06-18T13:09:59Z</time>
      </trkpt>
      <trkpt lat="49.92589" lon="1.08012">
        <ele>6.8</ele>
        <time>2020-06-18T13:10:00Z</time>
      </trkpt>
      <trkpt lat="49.92592" lon="1.08009">
        <ele>6.9</ele>
        <time>2020-06-18T13:10:01Z</time>
      </trkpt>
      <trkpt lat="49.92595" lon="1.08006">
        <ele>6.9</ele>
        <time>2020-06-18T13:10:02Z</time>
      </trkpt>
      <trkpt lat="49.92598" lon="1.08003">
        <ele>6.9</ele>
        <time>2020-06-18T13:10:03Z</time>
      </trkpt>
      <trkpt lat="49.92601" lon="1.08002">
        <ele>7</ele>
        <time>2020-06-18T13:10:04Z</time>
      </trkpt>
      <trkpt lat="49.92604" lon="1.08">
        <ele>7</ele>
        <time>2020-06-18T13:10:05Z</time>
      </trkpt>
      <trkpt lat="49.92605" lon="1.08">
        <ele>7</ele>
        <time>2020-06-18T13:10:06Z</time>
      </trkpt>
      <trkpt lat="49.92608" lon="1.07999">
        <ele>7</ele>
        <time>2020-06-18T13:10:07Z</time>
      </trkpt>
      <trkpt lat="49.92609" lon="1.07998">
        <ele>7</ele>
        <time>2020-06-18T13:10:08Z</time>
      </trkpt>
      <trkpt lat="49.92609" lon="1.07997">
        <ele>7.1</ele>
        <time>2020-06-18T13:10:09Z</time>
      </trkpt>
      <trkpt lat="49.92612" lon="1.07996">
        <ele>7.1</ele>
        <time>2020-06-18T13:10:10Z</time>
      </trkpt>
      <trkpt lat="49.92614" lon="1.07995">
        <ele>7.1</ele>
        <time>2020-06-18T13:10:11Z</time>
      </trkpt>
      <trkpt lat="49.92615" lon="1.07995">
        <ele>7.1</ele>
        <time>2020-06-18T13:10:12Z</time>
      </trkpt>
      <trkpt lat="49.92616" lon="1.07995">
        <ele>7.1</ele>
        <time>2020-06-18T13:10:13Z</time>
      </trkpt>
      <trkpt lat="49.92618" lon="1.07996">
        <ele>7.1</ele>
        <time>2020-06-18T13:10:14Z</time>
      </trkpt>
      <trkpt lat="49.92621" lon="1.07999">
        <ele>7.1</ele>
        <time>2020-06-18T13:10:15Z</time>
      </trkpt>
      <trkpt lat="49.92622" lon="1.08001">
        <ele>7.1</ele>
        <time>2020-06-18T13:10:16Z</time>
      </trkpt>
      <trkpt lat="49.92625" lon="1.08005">
        <ele>7.2</ele>
        <time>2020-06-18T13:10:17Z</time>
      </trkpt>
      <trkpt lat="49.92627" lon="1.08009">
        <ele>7.4</ele>
        <time>2020-06-18T13:10:18Z</time>
      </trkpt>
      <trkpt lat="49.92631" lon="1.08013">
        <ele>7.4</ele>
        <time>2020-06-18T13:10:19Z</time>
      </trkpt>
      <trkpt lat="49.92634" lon="1.08016">
        <ele>7.3</ele>
        <time>2020-06-18T13:10:20Z</time>
      </trkpt>
      <trkpt lat="49.92637" lon="1.08019">
        <ele>7.2</ele>
        <time>2020-06-18T13:10:21Z</time>
      </trkpt>
      <trkpt lat="49.9264" lon="1.08022">
        <ele>7.1</ele>
        <time>2020-06-18T13:10:22Z</time>
      </trkpt>
      <trkpt lat="49.92641" lon="1.08028">
        <ele>7</ele>
        <time>2020-06-18T13:10:23Z</time>
      </trkpt>
      <trkpt lat="49.92642" lon="1.08034">
        <ele>7</ele>
        <time>2020-06-18T13:10:24Z</time>
      </trkpt>
      <trkpt lat="49.92643" lon="1.08041">
        <ele>6.8</ele>
        <time>2020-06-18T13:10:25Z</time>
      </trkpt>
      <trkpt lat="49.92644" lon="1.0805">
        <ele>6.8</ele>
        <time>2020-06-18T13:10:26Z</time>
      </trkpt>
      <trkpt lat="49.92644" lon="1.08057">
        <ele>6.9</ele>
        <time>2020-06-18T13:10:27Z</time>
      </trkpt>
      <trkpt lat="49.92644" lon="1.08064">
        <ele>7</ele>
        <time>2020-06-18T13:10:28Z</time>
      </trkpt>
      <trkpt lat="49.92644" lon="1.08071">
        <ele>7.1</ele>
        <time>2020-06-18T13:10:29Z</time>
      </trkpt>
      <trkpt lat="49.92644" lon="1.08077">
        <ele>7.1</ele>
        <time>2020-06-18T13:10:30Z</time>
      </trkpt>
      <trkpt lat="49.92644" lon="1.08083">
        <ele>7.1</ele>
        <time>2020-06-18T13:10:31Z</time>
      </trkpt>
      <trkpt lat="49.92643" lon="1.08089">
        <ele>7.2</ele>
        <time>2020-06-18T13:10:32Z</time>
      </trkpt>
      <trkpt lat="49.92644" lon="1.08095">
        <ele>7.2</ele>
        <time>2020-06-18T13:10:33Z</time>
      </trkpt>
      <trkpt lat="49.92643" lon="1.081">
        <ele>7.2</ele>
        <time>2020-06-18T13:10:34Z</time>
      </trkpt>
      <trkpt lat="49.92643" lon="1.08106">
        <ele>7.2</ele>
        <time>2020-06-18T13:10:35Z</time>
      </trkpt>
      <trkpt lat="49.92641" lon="1.0811">
        <ele>7.2</ele>
        <time>2020-06-18T13:10:36Z</time>
      </trkpt>
      <trkpt lat="49.92639" lon="1.08114">
        <ele>7.2</ele>
        <time>2020-06-18T13:10:37Z</time>
      </trkpt>
      <trkpt lat="49.92639" lon="1.08116">
        <ele>7.2</ele>
        <time>2020-06-18T13:10:38Z</time>
      </trkpt>
      <trkpt lat="49.92639" lon="1.08122">
        <ele>7.2</ele>
        <time>2020-06-18T13:10:39Z</time>
      </trkpt>
      <trkpt lat="49.92639" lon="1.08123">
        <ele>7.2</ele>
        <time>2020-06-18T13:10:40Z</time>
      </trkpt>
      <trkpt lat="49.92639" lon="1.08129">
        <ele>7.2</ele>
        <time>2020-06-18T13:10:41Z</time>
      </trkpt>
      <trkpt lat="49.92639" lon="1.08133">
        <ele>7.1</ele>
        <time>2020-06-18T13:10:42Z</time>
      </trkpt>
      <trkpt lat="49.92639" lon="1.08138">
        <ele>7.1</ele>
        <time>2020-06-18T13:10:43Z</time>
      </trkpt>
      <trkpt lat="49.92639" lon="1.08143">
        <ele>7.1</ele>
        <time>2020-06-18T13:10:44Z</time>
      </trkpt>
      <trkpt lat="49.92639" lon="1.08149">
        <ele>7</ele>
        <time>2020-06-18T13:10:45Z</time>
      </trkpt>
      <trkpt lat="49.92639" lon="1.08156">
        <ele>7</ele>
        <time>2020-06-18T13:10:46Z</time>
      </trkpt>
      <trkpt lat="49.9264" lon="1.08164">
        <ele>7</ele>
        <time>2020-06-18T13:10:47Z</time>
      </trkpt>
      <trkpt lat="49.92641" lon="1.08171">
        <ele>6.9</ele>
        <time>2020-06-18T13:10:48Z</time>
      </trkpt>
      <trkpt lat="49.92643" lon="1.08178">
        <ele>6.9</ele>
        <time>2020-06-18T13:10:49Z</time>
      </trkpt>
      <trkpt lat="49.92646" lon="1.08184">
        <ele>6.8</ele>
        <time>2020-06-18T13:10:50Z</time>
      </trkpt>
      <trkpt lat="49.92648" lon="1.0819">
        <ele>6.8</ele>
        <time>2020-06-18T13:10:51Z</time>
      </trkpt>
      <trkpt lat="49.92651" lon="1.08197">
        <ele>6.7</ele>
        <time>2020-06-18T13:10:52Z</time>
      </trkpt>
      <trkpt lat="49.92654" lon="1.08205">
        <ele>6.6</ele>
        <time>2020-06-18T13:10:53Z</time>
      </trkpt>
      <trkpt lat="49.92657" lon="1.08212">
        <ele>6.6</ele>
        <time>2020-06-18T13:10:54Z</time>
      </trkpt>
      <trkpt lat="49.92661" lon="1.0822">
        <ele>6.5</ele>
        <time>2020-06-18T13:10:55Z</time>
      </trkpt>
      <trkpt lat="49.92664" lon="1.08226">
        <ele>6.5</ele>
        <time>2020-06-18T13:10:56Z</time>
      </trkpt>
      <trkpt lat="49.92669" lon="1.08232">
        <ele>6.4</ele>
        <time>2020-06-18T13:10:57Z</time>
      </trkpt>
      <trkpt lat="49.92673" lon="1.08241">
        <ele>6.4</ele>
        <time>2020-06-18T13:10:58Z</time>
      </trkpt>
      <trkpt lat="49.92677" lon="1.08249">
        <ele>6.4</ele>
        <time>2020-06-18T13:10:59Z</time>
      </trkpt>
      <trkpt lat="49.9268" lon="1.08257">
        <ele>6.3</ele>
        <time>2020-06-18T13:11:00Z</time>
      </trkpt>
      <trkpt lat="49.92682" lon="1.08265">
        <ele>6.3</ele>
        <time>2020-06-18T13:11:01Z</time>
      </trkpt>
      <trkpt lat="49.92684" lon="1.08272">
        <ele>6.2</ele>
        <time>2020-06-18T13:11:02Z</time>
      </trkpt>
      <trkpt lat="49.92687" lon="1.0828">
        <ele>6.2</ele>
        <time>2020-06-18T13:11:03Z</time>
      </trkpt>
      <trkpt lat="49.9269" lon="1.08289">
        <ele>6.2</ele>
        <time>2020-06-18T13:11:04Z</time>
      </trkpt>
      <trkpt lat="49.92692" lon="1.08297">
        <ele>6.1</ele>
        <time>2020-06-18T13:11:05Z</time>
      </trkpt>
      <trkpt lat="49.92695" lon="1.08303">
        <ele>6.1</ele>
        <time>2020-06-18T13:11:06Z</time>
      </trkpt>
      <trkpt lat="49.92698" lon="1.08308">
        <ele>6.1</ele>
        <time>2020-06-18T13:11:07Z</time>
      </trkpt>
      <trkpt lat="49.927" lon="1.08317">
        <ele>6</ele>
        <time>2020-06-18T13:11:08Z</time>
      </trkpt>
      <trkpt lat="49.92703" lon="1.08326">
        <ele>6</ele>
        <time>2020-06-18T13:11:09Z</time>
      </trkpt>
      <trkpt lat="49.92705" lon="1.08333">
        <ele>6</ele>
        <time>2020-06-18T13:11:10Z</time>
      </trkpt>
      <trkpt lat="49.92709" lon="1.08341">
        <ele>6</ele>
        <time>2020-06-18T13:11:11Z</time>
      </trkpt>
      <trkpt lat="49.92712" lon="1.08348">
        <ele>6</ele>
        <time>2020-06-18T13:11:12Z</time>
      </trkpt>
      <trkpt lat="49.92716" lon="1.08355">
        <ele>6</ele>
        <time>2020-06-18T13:11:13Z</time>
      </trkpt>
      <trkpt lat="49.9272" lon="1.08362">
        <ele>6</ele>
        <time>2020-06-18T13:11:14Z</time>
      </trkpt>
      <trkpt lat="49.92721" lon="1.08369">
        <ele>6</ele>
        <time>2020-06-18T13:11:15Z</time>
      </trkpt>
      <trkpt lat="49.92723" lon="1.08376">
        <ele>6</ele>
        <time>2020-06-18T13:11:16Z</time>
      </trkpt>
      <trkpt lat="49.92725" lon="1.08384">
        <ele>6.1</ele>
        <time>2020-06-18T13:11:17Z</time>
      </trkpt>
      <trkpt lat="49.92726" lon="1.08393">
        <ele>6.1</ele>
        <time>2020-06-18T13:11:18Z</time>
      </trkpt>
      <trkpt lat="49.92728" lon="1.08402">
        <ele>6.2</ele>
        <time>2020-06-18T13:11:19Z</time>
      </trkpt>
      <trkpt lat="49.92728" lon="1.08409">
        <ele>6.3</ele>
        <time>2020-06-18T13:11:20Z</time>
      </trkpt>
      <trkpt lat="49.92728" lon="1.08415">
        <ele>6.3</ele>
        <time>2020-06-18T13:11:21Z</time>
      </trkpt>
      <trkpt lat="49.92728" lon="1.08424">
        <ele>6.4</ele>
        <time>2020-06-18T13:11:22Z</time>
      </trkpt>
      <trkpt lat="49.92728" lon="1.08432">
        <ele>6.5</ele>
        <time>2020-06-18T13:11:23Z</time>
      </trkpt>
      <trkpt lat="49.92728" lon="1.08441">
        <ele>6.6</ele>
        <time>2020-06-18T13:11:24Z</time>
      </trkpt>
      <trkpt lat="49.92728" lon="1.08449">
        <ele>6.7</ele>
        <time>2020-06-18T13:11:25Z</time>
      </trkpt>
      <trkpt lat="49.92728" lon="1.08455">
        <ele>6.8</ele>
        <time>2020-06-18T13:11:26Z</time>
      </trkpt>
      <trkpt lat="49.92728" lon="1.08462">
        <ele>6.8</ele>
        <time>2020-06-18T13:11:27Z</time>
      </trkpt>
      <trkpt lat="49.92729" lon="1.08469">
        <ele>6.9</ele>
        <time>2020-06-18T13:11:28Z</time>
      </trkpt>
      <trkpt lat="49.9273" lon="1.08476">
        <ele>6.9</ele>
        <time>2020-06-18T13:11:29Z</time>
      </trkpt>
      <trkpt lat="49.9273" lon="1.08482">
        <ele>7</ele>
        <time>2020-06-18T13:11:30Z</time>
      </trkpt>
      <trkpt lat="49.9273" lon="1.08488">
        <ele>7</ele>
        <time>2020-06-18T13:11:31Z</time>
      </trkpt>
      <trkpt lat="49.92729" lon="1.08492">
        <ele>7.1</ele>
        <time>2020-06-18T13:11:32Z</time>
      </trkpt>
      <trkpt lat="49.92732" lon="1.08493">
        <ele>7.1</ele>
        <time>2020-06-18T13:11:33Z</time>
      </trkpt>
      <trkpt lat="49.92733" lon="1.08494">
        <ele>7.1</ele>
        <time>2020-06-18T13:11:34Z</time>
      </trkpt>
      <trkpt lat="49.92735" lon="1.08499">
        <ele>7.1</ele>
        <time>2020-06-18T13:11:35Z</time>
      </trkpt>
      <trkpt lat="49.92735" lon="1.085">
        <ele>7.2</ele>
        <time>2020-06-18T13:11:36Z</time>
      </trkpt>
      <trkpt lat="49.92734" lon="1.08501">
        <ele>7.2</ele>
        <time>2020-06-18T13:11:37Z</time>
      </trkpt>
      <trkpt lat="49.92734" lon="1.08505">
        <ele>7.2</ele>
        <time>2020-06-18T13:11:38Z</time>
      </trkpt>
      <trkpt lat="49.92736" lon="1.08511">
        <ele>7.3</ele>
        <time>2020-06-18T13:11:39Z</time>
      </trkpt>
      <trkpt lat="49.92736" lon="1.08513">
        <ele>7.3</ele>
        <time>2020-06-18T13:11:40Z</time>
      </trkpt>
      <trkpt lat="49.92736" lon="1.08518">
        <ele>7.3</ele>
        <time>2020-06-18T13:11:41Z</time>
      </trkpt>
      <trkpt lat="49.92736" lon="1.08523">
        <ele>7.4</ele>
        <time>2020-06-18T13:11:42Z</time>
      </trkpt>
      <trkpt lat="49.92736" lon="1.0853">
        <ele>7.5</ele>
        <time>2020-06-18T13:11:43Z</time>
      </trkpt>
      <trkpt lat="49.92737" lon="1.08535">
        <ele>7.5</ele>
        <time>2020-06-18T13:11:44Z</time>
      </trkpt>
      <trkpt lat="49.92736" lon="1.08542">
        <ele>7.6</ele>
        <time>2020-06-18T13:11:45Z</time>
      </trkpt>
      <trkpt lat="49.92735" lon="1.08549">
        <ele>7.6</ele>
        <time>2020-06-18T13:11:46Z</time>
      </trkpt>
      <trkpt lat="49.92734" lon="1.08555">
        <ele>7.6</ele>
        <time>2020-06-18T13:11:47Z</time>
      </trkpt>
      <trkpt lat="49.92735" lon="1.08562">
        <ele>7.7</ele>
        <time>2020-06-18T13:11:48Z</time>
      </trkpt>
      <trkpt lat="49.92736" lon="1.08569">
        <ele>7.7</ele>
        <time>2020-06-18T13:11:49Z</time>
      </trkpt>
      <trkpt lat="49.92737" lon="1.08576">
        <ele>7.7</ele>
        <time>2020-06-18T13:11:50Z</time>
      </trkpt>
      <trkpt lat="49.92739" lon="1.08583">
        <ele>7.8</ele>
        <time>2020-06-18T13:11:51Z</time>
      </trkpt>
      <trkpt lat="49.9274" lon="1.0859">
        <ele>7.9</ele>
        <time>2020-06-18T13:11:52Z</time>
      </trkpt>
      <trkpt lat="49.92741" lon="1.08597">
        <ele>8</ele>
        <time>2020-06-18T13:11:53Z</time>
      </trkpt>
      <trkpt lat="49.92741" lon="1.08604">
        <ele>8</ele>
        <time>2020-06-18T13:11:54Z</time>
      </trkpt>
      <trkpt lat="49.9274" lon="1.08611">
        <ele>8.1</ele>
        <time>2020-06-18T13:11:55Z</time>
      </trkpt>
      <trkpt lat="49.92738" lon="1.08615">
        <ele>8.2</ele>
        <time>2020-06-18T13:11:56Z</time>
      </trkpt>
      <trkpt lat="49.92736" lon="1.08619">
        <ele>8.2</ele>
        <time>2020-06-18T13:11:57Z</time>
      </trkpt>
      <trkpt lat="49.92735" lon="1.08625">
        <ele>8.2</ele>
        <time>2020-06-18T13:11:58Z</time>
      </trkpt>
      <trkpt lat="49.92735" lon="1.08628">
        <ele>8.3</ele>
        <time>2020-06-18T13:11:59Z</time>
      </trkpt>
      <trkpt lat="49.92736" lon="1.08633">
        <ele>8.3</ele>
        <time>2020-06-18T13:12:00Z</time>
      </trkpt>
      <trkpt lat="49.92737" lon="1.08638">
        <ele>8.3</ele>
        <time>2020-06-18T13:12:01Z</time>
      </trkpt>
      <trkpt lat="49.92738" lon="1.0864">
        <ele>8.3</ele>
        <time>2020-06-18T13:12:02Z</time>
      </trkpt>
      <trkpt lat="49.92739" lon="1.08644">
        <ele>8.3</ele>
        <time>2020-06-18T13:12:03Z</time>
      </trkpt>
      <trkpt lat="49.9274" lon="1.08649">
        <ele>8.3</ele>
        <time>2020-06-18T13:12:04Z</time>
      </trkpt>
      <trkpt lat="49.92741" lon="1.08654">
        <ele>8.2</ele>
        <time>2020-06-18T13:12:05Z</time>
      </trkpt>
      <trkpt lat="49.9274" lon="1.08661">
        <ele>8.2</ele>
        <time>2020-06-18T13:12:06Z</time>
      </trkpt>
      <trkpt lat="49.9274" lon="1.08667">
        <ele>8.1</ele>
        <time>2020-06-18T13:12:07Z</time>
      </trkpt>
      <trkpt lat="49.92741" lon="1.08674">
        <ele>8.1</ele>
        <time>2020-06-18T13:12:08Z</time>
      </trkpt>
      <trkpt lat="49.92742" lon="1.08682">
        <ele>8.1</ele>
        <time>2020-06-18T13:12:09Z</time>
      </trkpt>
      <trkpt lat="49.92743" lon="1.0869">
        <ele>8.2</ele>
        <time>2020-06-18T13:12:10Z</time>
      </trkpt>
      <trkpt lat="49.92743" lon="1.08697">
        <ele>8.2</ele>
        <time>2020-06-18T13:12:11Z</time>
      </trkpt>
      <trkpt lat="49.92743" lon="1.08703">
        <ele>8.2</ele>
        <time>2020-06-18T13:12:12Z</time>
      </trkpt>
      <trkpt lat="49.92743" lon="1.08708">
        <ele>8.3</ele>
        <time>2020-06-18T13:12:13Z</time>
      </trkpt>
      <trkpt lat="49.92743" lon="1.08715">
        <ele>8.4</ele>
        <time>2020-06-18T13:12:14Z</time>
      </trkpt>
      <trkpt lat="49.92745" lon="1.08721">
        <ele>8.5</ele>
        <time>2020-06-18T13:12:15Z</time>
      </trkpt>
      <trkpt lat="49.92746" lon="1.08729">
        <ele>8.6</ele>
        <time>2020-06-18T13:12:16Z</time>
      </trkpt>
      <trkpt lat="49.92748" lon="1.08735">
        <ele>8.7</ele>
        <time>2020-06-18T13:12:17Z</time>
      </trkpt>
      <trkpt lat="49.9275" lon="1.08741">
        <ele>8.9</ele>
        <time>2020-06-18T13:12:18Z</time>
      </trkpt>
      <trkpt lat="49.92752" lon="1.08748">
        <ele>9</ele>
        <time>2020-06-18T13:12:19Z</time>
      </trkpt>
      <trkpt lat="49.92754" lon="1.08755">
        <ele>9.2</ele>
        <time>2020-06-18T13:12:20Z</time>
      </trkpt>
      <trkpt lat="49.92755" lon="1.08758">
        <ele>9.3</ele>
        <time>2020-06-18T13:12:21Z</time>
      </trkpt>
      <trkpt lat="49.92755" lon="1.08764">
        <ele>9.4</ele>
        <time>2020-06-18T13:12:22Z</time>
      </trkpt>
      <trkpt lat="49.92755" lon="1.08769">
        <ele>9.5</ele>
        <time>2020-06-18T13:12:23Z</time>
      </trkpt>
      <trkpt lat="49.92755" lon="1.08774">
        <ele>9.7</ele>
        <time>2020-06-18T13:12:24Z</time>
      </trkpt>
      <trkpt lat="49.92755" lon="1.08779">
        <ele>9.8</ele>
        <time>2020-06-18T13:12:25Z</time>
      </trkpt>
      <trkpt lat="49.92756" lon="1.08785">
        <ele>9.9</ele>
        <time>2020-06-18T13:12:26Z</time>
      </trkpt>
      <trkpt lat="49.92758" lon="1.08791">
        <ele>10</ele>
        <time>2020-06-18T13:12:27Z</time>
      </trkpt>
      <trkpt lat="49.92759" lon="1.08798">
        <ele>10.3</ele>
        <time>2020-06-18T13:12:28Z</time>
      </trkpt>
      <trkpt lat="49.92759" lon="1.08804">
        <ele>10.4</ele>
        <time>2020-06-18T13:12:29Z</time>
      </trkpt>
      <trkpt lat="49.9276" lon="1.08811">
        <ele>10.6</ele>
        <time>2020-06-18T13:12:30Z</time>
      </trkpt>
      <trkpt lat="49.92761" lon="1.08818">
        <ele>10.8</ele>
        <time>2020-06-18T13:12:31Z</time>
      </trkpt>
      <trkpt lat="49.92762" lon="1.08824">
        <ele>10.9</ele>
        <time>2020-06-18T13:12:32Z</time>
      </trkpt>
      <trkpt lat="49.92763" lon="1.0883">
        <ele>11.1</ele>
        <time>2020-06-18T13:12:33Z</time>
      </trkpt>
      <trkpt lat="49.92765" lon="1.08837">
        <ele>11.2</ele>
        <time>2020-06-18T13:12:34Z</time>
      </trkpt>
      <trkpt lat="49.92767" lon="1.08843">
        <ele>11.4</ele>
        <time>2020-06-18T13:12:35Z</time>
      </trkpt>
      <trkpt lat="49.92768" lon="1.08849">
        <ele>11.5</ele>
        <time>2020-06-18T13:12:36Z</time>
      </trkpt>
      <trkpt lat="49.92769" lon="1.08853">
        <ele>11.7</ele>
        <time>2020-06-18T13:12:37Z</time>
      </trkpt>
      <trkpt lat="49.92771" lon="1.08858">
        <ele>11.8</ele>
        <time>2020-06-18T13:12:38Z</time>
      </trkpt>
      <trkpt lat="49.92773" lon="1.08862">
        <ele>11.9</ele>
        <time>2020-06-18T13:12:39Z</time>
      </trkpt>
      <trkpt lat="49.92775" lon="1.08867">
        <ele>12.1</ele>
        <time>2020-06-18T13:12:40Z</time>
      </trkpt>
      <trkpt lat="49.92777" lon="1.08871">
        <ele>12.2</ele>
        <time>2020-06-18T13:12:41Z</time>
      </trkpt>
      <trkpt lat="49.92778" lon="1.08876">
        <ele>12.3</ele>
        <time>2020-06-18T13:12:42Z</time>
      </trkpt>
      <trkpt lat="49.92779" lon="1.08881">
        <ele>12.5</ele>
        <time>2020-06-18T13:12:43Z</time>
      </trkpt>
      <trkpt lat="49.92781" lon="1.08887">
        <ele>12.7</ele>
        <time>2020-06-18T13:12:44Z</time>
      </trkpt>
      <trkpt lat="49.92782" lon="1.08894">
        <ele>12.8</ele>
        <time>2020-06-18T13:12:45Z</time>
      </trkpt>
      <trkpt lat="49.92783" lon="1.089">
        <ele>13</ele>
        <time>2020-06-18T13:12:46Z</time>
      </trkpt>
      <trkpt lat="49.92784" lon="1.08907">
        <ele>13.2</ele>
        <time>2020-06-18T13:12:47Z</time>
      </trkpt>
      <trkpt lat="49.92784" lon="1.08914">
        <ele>13.4</ele>
        <time>2020-06-18T13:12:48Z</time>
      </trkpt>
      <trkpt lat="49.92785" lon="1.0892">
        <ele>13.6</ele>
        <time>2020-06-18T13:12:49Z</time>
      </trkpt>
      <trkpt lat="49.92786" lon="1.08925">
        <ele>13.7</ele>
        <time>2020-06-18T13:12:50Z</time>
      </trkpt>
      <trkpt lat="49.92787" lon="1.0893">
        <ele>13.9</ele>
        <time>2020-06-18T13:12:51Z</time>
      </trkpt>
      <trkpt lat="49.92787" lon="1.08937">
        <ele>14.1</ele>
        <time>2020-06-18T13:12:52Z</time>
      </trkpt>
      <trkpt lat="49.92787" lon="1.08944">
        <ele>14.2</ele>
        <time>2020-06-18T13:12:53Z</time>
      </trkpt>
      <trkpt lat="49.92788" lon="1.08951">
        <ele>14.4</ele>
        <time>2020-06-18T13:12:54Z</time>
      </trkpt>
      <trkpt lat="49.92788" lon="1.08955">
        <ele>14.5</ele>
        <time>2020-06-18T13:12:55Z</time>
      </trkpt>
      <trkpt lat="49.92789" lon="1.08961">
        <ele>14.6</ele>
        <time>2020-06-18T13:12:56Z</time>
      </trkpt>
      <trkpt lat="49.92789" lon="1.08966">
        <ele>14.7</ele>
        <time>2020-06-18T13:12:57Z</time>
      </trkpt>
      <trkpt lat="49.92788" lon="1.08972">
        <ele>14.9</ele>
        <time>2020-06-18T13:12:58Z</time>
      </trkpt>
      <trkpt lat="49.92789" lon="1.08978">
        <ele>15</ele>
        <time>2020-06-18T13:12:59Z</time>
      </trkpt>
      <trkpt lat="49.9279" lon="1.08984">
        <ele>15.2</ele>
        <time>2020-06-18T13:13:00Z</time>
      </trkpt>
      <trkpt lat="49.92791" lon="1.0899">
        <ele>15.4</ele>
        <time>2020-06-18T13:13:01Z</time>
      </trkpt>
      <trkpt lat="49.92792" lon="1.08996">
        <ele>15.5</ele>
        <time>2020-06-18T13:13:02Z</time>
      </trkpt>
      <trkpt lat="49.92792" lon="1.09003">
        <ele>15.6</ele>
        <time>2020-06-18T13:13:03Z</time>
      </trkpt>
      <trkpt lat="49.92792" lon="1.09009">
        <ele>15.8</ele>
        <time>2020-06-18T13:13:04Z</time>
      </trkpt>
      <trkpt lat="49.92792" lon="1.09017">
        <ele>15.9</ele>
        <time>2020-06-18T13:13:05Z</time>
      </trkpt>
      <trkpt lat="49.92791" lon="1.09024">
        <ele>16.1</ele>
        <time>2020-06-18T13:13:06Z</time>
      </trkpt>
      <trkpt lat="49.9279" lon="1.0903">
        <ele>16.2</ele>
        <time>2020-06-18T13:13:07Z</time>
      </trkpt>
      <trkpt lat="49.9279" lon="1.09036">
        <ele>16.3</ele>
        <time>2020-06-18T13:13:08Z</time>
      </trkpt>
      <trkpt lat="49.92789" lon="1.09042">
        <ele>16.5</ele>
        <time>2020-06-18T13:13:09Z</time>
      </trkpt>
      <trkpt lat="49.92789" lon="1.09047">
        <ele>16.6</ele>
        <time>2020-06-18T13:13:10Z</time>
      </trkpt>
      <trkpt lat="49.92789" lon="1.09052">
        <ele>16.7</ele>
        <time>2020-06-18T13:13:11Z</time>
      </trkpt>
      <trkpt lat="49.92789" lon="1.09057">
        <ele>16.9</ele>
        <time>2020-06-18T13:13:12Z</time>
      </trkpt>
      <trkpt lat="49.92788" lon="1.09063">
        <ele>17</ele>
        <time>2020-06-18T13:13:13Z</time>
      </trkpt>
      <trkpt lat="49.92785" lon="1.09067">
        <ele>17.2</ele>
        <time>2020-06-18T13:13:14Z</time>
      </trkpt>
      <trkpt lat="49.92782" lon="1.09071">
        <ele>17.4</ele>
        <time>2020-06-18T13:13:15Z</time>
      </trkpt>
      <trkpt lat="49.9278" lon="1.09076">
        <ele>17.5</ele>
        <time>2020-06-18T13:13:16Z</time>
      </trkpt>
      <trkpt lat="49.92779" lon="1.09081">
        <ele>17.7</ele>
        <time>2020-06-18T13:13:17Z</time>
      </trkpt>
      <trkpt lat="49.92778" lon="1.09085">
        <ele>17.8</ele>
        <time>2020-06-18T13:13:18Z</time>
      </trkpt>
      <trkpt lat="49.92778" lon="1.0909">
        <ele>18</ele>
        <time>2020-06-18T13:13:19Z</time>
      </trkpt>
      <trkpt lat="49.92777" lon="1.09096">
        <ele>18.1</ele>
        <time>2020-06-18T13:13:20Z</time>
      </trkpt>
      <trkpt lat="49.92776" lon="1.09101">
        <ele>18.3</ele>
        <time>2020-06-18T13:13:21Z</time>
      </trkpt>
      <trkpt lat="49.92775" lon="1.09107">
        <ele>18.6</ele>
        <time>2020-06-18T13:13:22Z</time>
      </trkpt>
      <trkpt lat="49.92775" lon="1.09112">
        <ele>18.8</ele>
        <time>2020-06-18T13:13:23Z</time>
      </trkpt>
      <trkpt lat="49.92775" lon="1.09117">
        <ele>19</ele>
        <time>2020-06-18T13:13:24Z</time>
      </trkpt>
      <trkpt lat="49.92774" lon="1.09121">
        <ele>19.1</ele>
        <time>2020-06-18T13:13:25Z</time>
      </trkpt>
      <trkpt lat="49.92773" lon="1.09127">
        <ele>19.3</ele>
        <time>2020-06-18T13:13:26Z</time>
      </trkpt>
      <trkpt lat="49.92772" lon="1.0913">
        <ele>19.4</ele>
        <time>2020-06-18T13:13:27Z</time>
      </trkpt>
      <trkpt lat="49.92771" lon="1.09134">
        <ele>19.5</ele>
        <time>2020-06-18T13:13:28Z</time>
      </trkpt>
      <trkpt lat="49.92769" lon="1.09139">
        <ele>19.7</ele>
        <time>2020-06-18T13:13:29Z</time>
      </trkpt>
      <trkpt lat="49.92769" lon="1.09141">
        <ele>19.8</ele>
        <time>2020-06-18T13:13:30Z</time>
      </trkpt>
      <trkpt lat="49.92767" lon="1.09147">
        <ele>20</ele>
        <time>2020-06-18T13:13:31Z</time>
      </trkpt>
      <trkpt lat="49.92766" lon="1.09154">
        <ele>20.2</ele>
        <time>2020-06-18T13:13:32Z</time>
      </trkpt>
      <trkpt lat="49.92764" lon="1.09161">
        <ele>20.4</ele>
        <time>2020-06-18T13:13:33Z</time>
      </trkpt>
      <trkpt lat="49.92763" lon="1.09167">
        <ele>20.7</ele>
        <time>2020-06-18T13:13:34Z</time>
      </trkpt>
      <trkpt lat="49.92763" lon="1.09173">
        <ele>20.9</ele>
        <time>2020-06-18T13:13:35Z</time>
      </trkpt>
      <trkpt lat="49.92762" lon="1.09178">
        <ele>21</ele>
        <time>2020-06-18T13:13:36Z</time>
      </trkpt>
      <trkpt lat="49.9276" lon="1.09184">
        <ele>21.2</ele>
        <time>2020-06-18T13:13:37Z</time>
      </trkpt>
      <trkpt lat="49.9276" lon="1.0919">
        <ele>21.4</ele>
        <time>2020-06-18T13:13:38Z</time>
      </trkpt>
      <trkpt lat="49.92759" lon="1.09194">
        <ele>21.6</ele>
        <time>2020-06-18T13:13:39Z</time>
      </trkpt>
      <trkpt lat="49.92757" lon="1.09199">
        <ele>21.7</ele>
        <time>2020-06-18T13:13:40Z</time>
      </trkpt>
      <trkpt lat="49.92756" lon="1.09202">
        <ele>21.9</ele>
        <time>2020-06-18T13:13:41Z</time>
      </trkpt>
      <trkpt lat="49.92755" lon="1.09207">
        <ele>22</ele>
        <time>2020-06-18T13:13:42Z</time>
      </trkpt>
      <trkpt lat="49.92753" lon="1.09212">
        <ele>22.2</ele>
        <time>2020-06-18T13:13:43Z</time>
      </trkpt>
      <trkpt lat="49.92752" lon="1.09217">
        <ele>22.4</ele>
        <time>2020-06-18T13:13:44Z</time>
      </trkpt>
      <trkpt lat="49.92751" lon="1.09222">
        <ele>22.5</ele>
        <time>2020-06-18T13:13:45Z</time>
      </trkpt>
      <trkpt lat="49.92751" lon="1.09227">
        <ele>22.7</ele>
        <time>2020-06-18T13:13:46Z</time>
      </trkpt>
      <trkpt lat="49.9275" lon="1.09232">
        <ele>22.8</ele>
        <time>2020-06-18T13:13:47Z</time>
      </trkpt>
      <trkpt lat="49.92749" lon="1.09236">
        <ele>23</ele>
        <time>2020-06-18T13:13:48Z</time>
      </trkpt>
      <trkpt lat="49.92749" lon="1.0924">
        <ele>23.1</ele>
        <time>2020-06-18T13:13:49Z</time>
      </trkpt>
      <trkpt lat="49.92748" lon="1.09245">
        <ele>23.3</ele>
        <time>2020-06-18T13:13:50Z</time>
      </trkpt>
      <trkpt lat="49.92747" lon="1.0925">
        <ele>23.5</ele>
        <time>2020-06-18T13:13:51Z</time>
      </trkpt>
      <trkpt lat="49.92747" lon="1.09254">
        <ele>23.6</ele>
        <time>2020-06-18T13:13:52Z</time>
      </trkpt>
      <trkpt lat="49.92746" lon="1.0926">
        <ele>23.8</ele>
        <time>2020-06-18T13:13:53Z</time>
      </trkpt>
      <trkpt lat="49.92744" lon="1.09265">
        <ele>24</ele>
        <time>2020-06-18T13:13:54Z</time>
      </trkpt>
      <trkpt lat="49.92743" lon="1.0927">
        <ele>24.2</ele>
        <time>2020-06-18T13:13:55Z</time>
      </trkpt>
      <trkpt lat="49.92741" lon="1.09275">
        <ele>24.3</ele>
        <time>2020-06-18T13:13:56Z</time>
      </trkpt>
      <trkpt lat="49.9274" lon="1.09279">
        <ele>24.5</ele>
        <time>2020-06-18T13:13:57Z</time>
      </trkpt>
      <trkpt lat="49.92738" lon="1.09285">
        <ele>24.7</ele>
        <time>2020-06-18T13:13:58Z</time>
      </trkpt>
      <trkpt lat="49.92735" lon="1.09292">
        <ele>25</ele>
        <time>2020-06-18T13:13:59Z</time>
      </trkpt>
      <trkpt lat="49.92734" lon="1.09297">
        <ele>25.1</ele>
        <time>2020-06-18T13:14:00Z</time>
      </trkpt>
      <trkpt lat="49.92733" lon="1.09301">
        <ele>25.3</ele>
        <time>2020-06-18T13:14:01Z</time>
      </trkpt>
      <trkpt lat="49.92732" lon="1.09307">
        <ele>25.5</ele>
        <time>2020-06-18T13:14:02Z</time>
      </trkpt>
      <trkpt lat="49.9273" lon="1.09313">
        <ele>25.7</ele>
        <time>2020-06-18T13:14:03Z</time>
      </trkpt>
      <trkpt lat="49.92729" lon="1.09321">
        <ele>25.9</ele>
        <time>2020-06-18T13:14:04Z</time>
      </trkpt>
      <trkpt lat="49.92727" lon="1.09326">
        <ele>26.1</ele>
        <time>2020-06-18T13:14:05Z</time>
      </trkpt>
      <trkpt lat="49.92725" lon="1.09334">
        <ele>26.4</ele>
        <time>2020-06-18T13:14:06Z</time>
      </trkpt>
      <trkpt lat="49.92723" lon="1.09342">
        <ele>26.7</ele>
        <time>2020-06-18T13:14:07Z</time>
      </trkpt>
      <trkpt lat="49.92722" lon="1.09349">
        <ele>27</ele>
        <time>2020-06-18T13:14:08Z</time>
      </trkpt>
      <trkpt lat="49.92721" lon="1.09354">
        <ele>27.1</ele>
        <time>2020-06-18T13:14:09Z</time>
      </trkpt>
      <trkpt lat="49.92719" lon="1.0936">
        <ele>27.4</ele>
        <time>2020-06-18T13:14:10Z</time>
      </trkpt>
      <trkpt lat="49.92718" lon="1.09366">
        <ele>27.6</ele>
        <time>2020-06-18T13:14:11Z</time>
      </trkpt>
      <trkpt lat="49.92716" lon="1.09371">
        <ele>27.8</ele>
        <time>2020-06-18T13:14:12Z</time>
      </trkpt>
      <trkpt lat="49.92715" lon="1.09377">
        <ele>28</ele>
        <time>2020-06-18T13:14:13Z</time>
      </trkpt>
      <trkpt lat="49.92714" lon="1.09383">
        <ele>28.3</ele>
        <time>2020-06-18T13:14:14Z</time>
      </trkpt>
      <trkpt lat="49.92713" lon="1.09388">
        <ele>28.5</ele>
        <time>2020-06-18T13:14:15Z</time>
      </trkpt>
      <trkpt lat="49.92711" lon="1.09392">
        <ele>28.7</ele>
        <time>2020-06-18T13:14:16Z</time>
      </trkpt>
      <trkpt lat="49.9271" lon="1.09396">
        <ele>28.8</ele>
        <time>2020-06-18T13:14:17Z</time>
      </trkpt>
      <trkpt lat="49.92708" lon="1.09402">
        <ele>29.1</ele>
        <time>2020-06-18T13:14:18Z</time>
      </trkpt>
      <trkpt lat="49.92707" lon="1.09407">
        <ele>29.2</ele>
        <time>2020-06-18T13:14:19Z</time>
      </trkpt>
      <trkpt lat="49.92705" lon="1.09411">
        <ele>29.5</ele>
        <time>2020-06-18T13:14:20Z</time>
      </trkpt>
      <trkpt lat="49.92703" lon="1.09416">
        <ele>29.7</ele>
        <time>2020-06-18T13:14:21Z</time>
      </trkpt>
      <trkpt lat="49.92701" lon="1.09421">
        <ele>29.9</ele>
        <time>2020-06-18T13:14:22Z</time>
      </trkpt>
      <trkpt lat="49.92699" lon="1.09427">
        <ele>30.1</ele>
        <time>2020-06-18T13:14:23Z</time>
      </trkpt>
      <trkpt lat="49.92698" lon="1.09432">
        <ele>30.3</ele>
        <time>2020-06-18T13:14:24Z</time>
      </trkpt>
      <trkpt lat="49.92697" lon="1.09437">
        <ele>30.5</ele>
        <time>2020-06-18T13:14:25Z</time>
      </trkpt>
      <trkpt lat="49.92696" lon="1.09442">
        <ele>30.7</ele>
        <time>2020-06-18T13:14:26Z</time>
      </trkpt>
      <trkpt lat="49.92694" lon="1.09447">
        <ele>30.9</ele>
        <time>2020-06-18T13:14:27Z</time>
      </trkpt>
      <trkpt lat="49.92693" lon="1.09452">
        <ele>31.1</ele>
        <time>2020-06-18T13:14:28Z</time>
      </trkpt>
      <trkpt lat="49.92691" lon="1.09458">
        <ele>31.3</ele>
        <time>2020-06-18T13:14:29Z</time>
      </trkpt>
      <trkpt lat="49.92691" lon="1.09461">
        <ele>31.4</ele>
        <time>2020-06-18T13:14:30Z</time>
      </trkpt>
      <trkpt lat="49.92689" lon="1.09465">
        <ele>31.6</ele>
        <time>2020-06-18T13:14:31Z</time>
      </trkpt>
      <trkpt lat="49.92688" lon="1.0947">
        <ele>31.7</ele>
        <time>2020-06-18T13:14:32Z</time>
      </trkpt>
      <trkpt lat="49.92686" lon="1.09475">
        <ele>31.9</ele>
        <time>2020-06-18T13:14:33Z</time>
      </trkpt>
      <trkpt lat="49.92685" lon="1.09482">
        <ele>32.1</ele>
        <time>2020-06-18T13:14:34Z</time>
      </trkpt>
      <trkpt lat="49.92684" lon="1.09488">
        <ele>32.5</ele>
        <time>2020-06-18T13:14:35Z</time>
      </trkpt>
      <trkpt lat="49.92683" lon="1.09495">
        <ele>32.7</ele>
        <time>2020-06-18T13:14:36Z</time>
      </trkpt>
      <trkpt lat="49.92682" lon="1.09498">
        <ele>32.9</ele>
        <time>2020-06-18T13:14:37Z</time>
      </trkpt>
      <trkpt lat="49.9268" lon="1.09504">
        <ele>33.1</ele>
        <time>2020-06-18T13:14:38Z</time>
      </trkpt>
      <trkpt lat="49.92679" lon="1.09509">
        <ele>33.3</ele>
        <time>2020-06-18T13:14:39Z</time>
      </trkpt>
      <trkpt lat="49.92677" lon="1.09514">
        <ele>33.5</ele>
        <time>2020-06-18T13:14:40Z</time>
      </trkpt>
      <trkpt lat="49.92676" lon="1.09519">
        <ele>33.7</ele>
        <time>2020-06-18T13:14:41Z</time>
      </trkpt>
      <trkpt lat="49.92676" lon="1.09525">
        <ele>33.9</ele>
        <time>2020-06-18T13:14:42Z</time>
      </trkpt>
      <trkpt lat="49.92675" lon="1.09529">
        <ele>34.1</ele>
        <time>2020-06-18T13:14:43Z</time>
      </trkpt>
      <trkpt lat="49.92675" lon="1.09535">
        <ele>34.3</ele>
        <time>2020-06-18T13:14:44Z</time>
      </trkpt>
      <trkpt lat="49.92673" lon="1.09539">
        <ele>34.5</ele>
        <time>2020-06-18T13:14:45Z</time>
      </trkpt>
      <trkpt lat="49.92671" lon="1.09543">
        <ele>34.6</ele>
        <time>2020-06-18T13:14:46Z</time>
      </trkpt>
      <trkpt lat="49.92669" lon="1.09548">
        <ele>34.8</ele>
        <time>2020-06-18T13:14:47Z</time>
      </trkpt>
      <trkpt lat="49.92668" lon="1.09553">
        <ele>35</ele>
        <time>2020-06-18T13:14:48Z</time>
      </trkpt>
      <trkpt lat="49.92667" lon="1.09557">
        <ele>35.1</ele>
        <time>2020-06-18T13:14:49Z</time>
      </trkpt>
      <trkpt lat="49.92665" lon="1.09562">
        <ele>35.3</ele>
        <time>2020-06-18T13:14:50Z</time>
      </trkpt>
      <trkpt lat="49.92664" lon="1.09566">
        <ele>35.5</ele>
        <time>2020-06-18T13:14:51Z</time>
      </trkpt>
      <trkpt lat="49.92663" lon="1.09571">
        <ele>35.6</ele>
        <time>2020-06-18T13:14:52Z</time>
      </trkpt>
      <trkpt lat="49.92661" lon="1.09575">
        <ele>35.8</ele>
        <time>2020-06-18T13:14:53Z</time>
      </trkpt>
      <trkpt lat="49.92659" lon="1.09579">
        <ele>35.9</ele>
        <time>2020-06-18T13:14:54Z</time>
      </trkpt>
      <trkpt lat="49.92658" lon="1.09584">
        <ele>36.1</ele>
        <time>2020-06-18T13:14:55Z</time>
      </trkpt>
      <trkpt lat="49.92658" lon="1.09589">
        <ele>36.3</ele>
        <time>2020-06-18T13:14:56Z</time>
      </trkpt>
      <trkpt lat="49.92656" lon="1.09595">
        <ele>36.5</ele>
        <time>2020-06-18T13:14:57Z</time>
      </trkpt>
      <trkpt lat="49.92655" lon="1.096">
        <ele>36.7</ele>
        <time>2020-06-18T13:14:58Z</time>
      </trkpt>
      <trkpt lat="49.92654" lon="1.09605">
        <ele>36.9</ele>
        <time>2020-06-18T13:14:59Z</time>
      </trkpt>
      <trkpt lat="49.92653" lon="1.09609">
        <ele>37</ele>
        <time>2020-06-18T13:15:00Z</time>
      </trkpt>
      <trkpt lat="49.92652" lon="1.09614">
        <ele>37.2</ele>
        <time>2020-06-18T13:15:01Z</time>
      </trkpt>
      <trkpt lat="49.9265" lon="1.09618">
        <ele>37.4</ele>
        <time>2020-06-18T13:15:02Z</time>
      </trkpt>
      <trkpt lat="49.9265" lon="1.09625">
        <ele>37.6</ele>
        <time>2020-06-18T13:15:03Z</time>
      </trkpt>
      <trkpt lat="49.92649" lon="1.09631">
        <ele>37.9</ele>
        <time>2020-06-18T13:15:04Z</time>
      </trkpt>
      <trkpt lat="49.92648" lon="1.09636">
        <ele>38</ele>
        <time>2020-06-18T13:15:05Z</time>
      </trkpt>
      <trkpt lat="49.92647" lon="1.0964">
        <ele>38.2</ele>
        <time>2020-06-18T13:15:06Z</time>
      </trkpt>
      <trkpt lat="49.92645" lon="1.09645">
        <ele>38.4</ele>
        <time>2020-06-18T13:15:07Z</time>
      </trkpt>
      <trkpt lat="49.92645" lon="1.0965">
        <ele>38.6</ele>
        <time>2020-06-18T13:15:08Z</time>
      </trkpt>
      <trkpt lat="49.92644" lon="1.09655">
        <ele>38.8</ele>
        <time>2020-06-18T13:15:09Z</time>
      </trkpt>
      <trkpt lat="49.92642" lon="1.09661">
        <ele>39</ele>
        <time>2020-06-18T13:15:10Z</time>
      </trkpt>
      <trkpt lat="49.92642" lon="1.09666">
        <ele>39.2</ele>
        <time>2020-06-18T13:15:11Z</time>
      </trkpt>
      <trkpt lat="49.92641" lon="1.09673">
        <ele>39.5</ele>
        <time>2020-06-18T13:15:12Z</time>
      </trkpt>
      <trkpt lat="49.92638" lon="1.0968">
        <ele>39.8</ele>
        <time>2020-06-18T13:15:13Z</time>
      </trkpt>
      <trkpt lat="49.92637" lon="1.09686">
        <ele>40</ele>
        <time>2020-06-18T13:15:14Z</time>
      </trkpt>
      <trkpt lat="49.92633" lon="1.09692">
        <ele>40.3</ele>
        <time>2020-06-18T13:15:15Z</time>
      </trkpt>
      <trkpt lat="49.92632" lon="1.09696">
        <ele>40.5</ele>
        <time>2020-06-18T13:15:16Z</time>
      </trkpt>
      <trkpt lat="49.92631" lon="1.09702">
        <ele>40.7</ele>
        <time>2020-06-18T13:15:17Z</time>
      </trkpt>
      <trkpt lat="49.9263" lon="1.09707">
        <ele>40.9</ele>
        <time>2020-06-18T13:15:18Z</time>
      </trkpt>
      <trkpt lat="49.92628" lon="1.09713">
        <ele>41.2</ele>
        <time>2020-06-18T13:15:19Z</time>
      </trkpt>
      <trkpt lat="49.92626" lon="1.0972">
        <ele>41.5</ele>
        <time>2020-06-18T13:15:20Z</time>
      </trkpt>
      <trkpt lat="49.92624" lon="1.09726">
        <ele>41.7</ele>
        <time>2020-06-18T13:15:21Z</time>
      </trkpt>
      <trkpt lat="49.92622" lon="1.09732">
        <ele>42</ele>
        <time>2020-06-18T13:15:22Z</time>
      </trkpt>
      <trkpt lat="49.92621" lon="1.09736">
        <ele>42.1</ele>
        <time>2020-06-18T13:15:23Z</time>
      </trkpt>
      <trkpt lat="49.92619" lon="1.09742">
        <ele>42.3</ele>
        <time>2020-06-18T13:15:24Z</time>
      </trkpt>
      <trkpt lat="49.92618" lon="1.09744">
        <ele>42.4</ele>
        <time>2020-06-18T13:15:25Z</time>
      </trkpt>
      <trkpt lat="49.92616" lon="1.09749">
        <ele>42.6</ele>
        <time>2020-06-18T13:15:26Z</time>
      </trkpt>
      <trkpt lat="49.92614" lon="1.09759">
        <ele>43</ele>
        <time>2020-06-18T13:15:27Z</time>
      </trkpt>
      <trkpt lat="49.92612" lon="1.09764">
        <ele>43.2</ele>
        <time>2020-06-18T13:15:28Z</time>
      </trkpt>
      <trkpt lat="49.9261" lon="1.09769">
        <ele>43.4</ele>
        <time>2020-06-18T13:15:29Z</time>
      </trkpt>
      <trkpt lat="49.92609" lon="1.09774">
        <ele>43.6</ele>
        <time>2020-06-18T13:15:30Z</time>
      </trkpt>
      <trkpt lat="49.92608" lon="1.09779">
        <ele>43.8</ele>
        <time>2020-06-18T13:15:31Z</time>
      </trkpt>
      <trkpt lat="49.92607" lon="1.09784">
        <ele>44</ele>
        <time>2020-06-18T13:15:32Z</time>
      </trkpt>
      <trkpt lat="49.92606" lon="1.09789">
        <ele>44.2</ele>
        <time>2020-06-18T13:15:33Z</time>
      </trkpt>
      <trkpt lat="49.92605" lon="1.09794">
        <ele>44.4</ele>
        <time>2020-06-18T13:15:34Z</time>
      </trkpt>
      <trkpt lat="49.92603" lon="1.098">
        <ele>44.6</ele>
        <time>2020-06-18T13:15:35Z</time>
      </trkpt>
      <trkpt lat="49.92601" lon="1.09805">
        <ele>44.9</ele>
        <time>2020-06-18T13:15:36Z</time>
      </trkpt>
      <trkpt lat="49.92599" lon="1.09811">
        <ele>45.1</ele>
        <time>2020-06-18T13:15:37Z</time>
      </trkpt>
      <trkpt lat="49.92598" lon="1.09815">
        <ele>45.2</ele>
        <time>2020-06-18T13:15:38Z</time>
      </trkpt>
      <trkpt lat="49.92595" lon="1.09819">
        <ele>45.4</ele>
        <time>2020-06-18T13:15:39Z</time>
      </trkpt>
      <trkpt lat="49.92593" lon="1.09823">
        <ele>45.6</ele>
        <time>2020-06-18T13:15:40Z</time>
      </trkpt>
      <trkpt lat="49.92591" lon="1.09827">
        <ele>45.8</ele>
        <time>2020-06-18T13:15:41Z</time>
      </trkpt>
      <trkpt lat="49.92589" lon="1.09833">
        <ele>46</ele>
        <time>2020-06-18T13:15:42Z</time>
      </trkpt>
      <trkpt lat="49.92588" lon="1.09838">
        <ele>46.2</ele>
        <time>2020-06-18T13:15:43Z</time>
      </trkpt>
      <trkpt lat="49.92586" lon="1.09844">
        <ele>46.4</ele>
        <time>2020-06-18T13:15:44Z</time>
      </trkpt>
      <trkpt lat="49.92585" lon="1.09849">
        <ele>46.7</ele>
        <time>2020-06-18T13:15:45Z</time>
      </trkpt>
      <trkpt lat="49.92583" lon="1.09854">
        <ele>46.9</ele>
        <time>2020-06-18T13:15:46Z</time>
      </trkpt>
      <trkpt lat="49.92581" lon="1.0986">
        <ele>47.1</ele>
        <time>2020-06-18T13:15:47Z</time>
      </trkpt>
      <trkpt lat="49.92579" lon="1.09867">
        <ele>47.4</ele>
        <time>2020-06-18T13:15:48Z</time>
      </trkpt>
      <trkpt lat="49.92579" lon="1.0987">
        <ele>47.5</ele>
        <time>2020-06-18T13:15:49Z</time>
      </trkpt>
      <trkpt lat="49.92578" lon="1.09875">
        <ele>47.7</ele>
        <time>2020-06-18T13:15:50Z</time>
      </trkpt>
      <trkpt lat="49.92577" lon="1.0988">
        <ele>47.9</ele>
        <time>2020-06-18T13:15:51Z</time>
      </trkpt>
      <trkpt lat="49.92576" lon="1.09886">
        <ele>48.2</ele>
        <time>2020-06-18T13:15:52Z</time>
      </trkpt>
      <trkpt lat="49.92574" lon="1.09892">
        <ele>48.5</ele>
        <time>2020-06-18T13:15:53Z</time>
      </trkpt>
      <trkpt lat="49.92573" lon="1.09898">
        <ele>48.8</ele>
        <time>2020-06-18T13:15:54Z</time>
      </trkpt>
      <trkpt lat="49.92571" lon="1.09902">
        <ele>48.9</ele>
        <time>2020-06-18T13:15:55Z</time>
      </trkpt>
      <trkpt lat="49.9257" lon="1.09908">
        <ele>49.1</ele>
        <time>2020-06-18T13:15:56Z</time>
      </trkpt>
      <trkpt lat="49.92569" lon="1.09914">
        <ele>49.3</ele>
        <time>2020-06-18T13:15:57Z</time>
      </trkpt>
      <trkpt lat="49.92568" lon="1.09919">
        <ele>49.4</ele>
        <time>2020-06-18T13:15:58Z</time>
      </trkpt>
      <trkpt lat="49.92567" lon="1.09923">
        <ele>49.6</ele>
        <time>2020-06-18T13:15:59Z</time>
      </trkpt>
      <trkpt lat="49.92566" lon="1.09927">
        <ele>49.7</ele>
        <time>2020-06-18T13:16:00Z</time>
      </trkpt>
      <trkpt lat="49.92565" lon="1.09932">
        <ele>49.9</ele>
        <time>2020-06-18T13:16:01Z</time>
      </trkpt>
      <trkpt lat="49.92564" lon="1.09938">
        <ele>50.1</ele>
        <time>2020-06-18T13:16:02Z</time>
      </trkpt>
      <trkpt lat="49.92563" lon="1.09943">
        <ele>50.3</ele>
        <time>2020-06-18T13:16:03Z</time>
      </trkpt>
      <trkpt lat="49.92562" lon="1.09947">
        <ele>50.5</ele>
        <time>2020-06-18T13:16:04Z</time>
      </trkpt>
      <trkpt lat="49.92561" lon="1.09952">
        <ele>50.6</ele>
        <time>2020-06-18T13:16:05Z</time>
      </trkpt>
      <trkpt lat="49.9256" lon="1.09958">
        <ele>50.8</ele>
        <time>2020-06-18T13:16:06Z</time>
      </trkpt>
      <trkpt lat="49.9256" lon="1.09964">
        <ele>51</ele>
        <time>2020-06-18T13:16:07Z</time>
      </trkpt>
      <trkpt lat="49.92559" lon="1.09968">
        <ele>51.2</ele>
        <time>2020-06-18T13:16:08Z</time>
      </trkpt>
      <trkpt lat="49.92558" lon="1.09974">
        <ele>51.3</ele>
        <time>2020-06-18T13:16:09Z</time>
      </trkpt>
      <trkpt lat="49.92557" lon="1.09976">
        <ele>51.4</ele>
        <time>2020-06-18T13:16:10Z</time>
      </trkpt>
      <trkpt lat="49.92557" lon="1.09981">
        <ele>51.5</ele>
        <time>2020-06-18T13:16:11Z</time>
      </trkpt>
      <trkpt lat="49.92556" lon="1.09983">
        <ele>51.6</ele>
        <time>2020-06-18T13:16:12Z</time>
      </trkpt>
      <trkpt lat="49.92555" lon="1.09987">
        <ele>51.7</ele>
        <time>2020-06-18T13:16:13Z</time>
      </trkpt>
      <trkpt lat="49.92553" lon="1.09991">
        <ele>52.1</ele>
        <time>2020-06-18T13:16:14Z</time>
      </trkpt>
      <trkpt lat="49.92552" lon="1.09997">
        <ele>52.3</ele>
        <time>2020-06-18T13:16:15Z</time>
      </trkpt>
      <trkpt lat="49.9255" lon="1.10002">
        <ele>52.6</ele>
        <time>2020-06-18T13:16:16Z</time>
      </trkpt>
      <trkpt lat="49.92549" lon="1.10008">
        <ele>52.8</ele>
        <time>2020-06-18T13:16:17Z</time>
      </trkpt>
      <trkpt lat="49.92548" lon="1.10015">
        <ele>53.1</ele>
        <time>2020-06-18T13:16:18Z</time>
      </trkpt>
      <trkpt lat="49.92545" lon="1.10022">
        <ele>53.5</ele>
        <time>2020-06-18T13:16:19Z</time>
      </trkpt>
      <trkpt lat="49.92543" lon="1.10028">
        <ele>53.8</ele>
        <time>2020-06-18T13:16:20Z</time>
      </trkpt>
      <trkpt lat="49.92542" lon="1.10034">
        <ele>54</ele>
        <time>2020-06-18T13:16:21Z</time>
      </trkpt>
      <trkpt lat="49.9254" lon="1.10039">
        <ele>54.3</ele>
        <time>2020-06-18T13:16:22Z</time>
      </trkpt>
      <trkpt lat="49.9254" lon="1.10044">
        <ele>54.5</ele>
        <time>2020-06-18T13:16:23Z</time>
      </trkpt>
      <trkpt lat="49.92539" lon="1.10048">
        <ele>54.7</ele>
        <time>2020-06-18T13:16:24Z</time>
      </trkpt>
      <trkpt lat="49.92538" lon="1.10053">
        <ele>54.9</ele>
        <time>2020-06-18T13:16:25Z</time>
      </trkpt>
      <trkpt lat="49.92536" lon="1.10058">
        <ele>55.1</ele>
        <time>2020-06-18T13:16:26Z</time>
      </trkpt>
      <trkpt lat="49.92534" lon="1.10063">
        <ele>55.4</ele>
        <time>2020-06-18T13:16:27Z</time>
      </trkpt>
      <trkpt lat="49.92531" lon="1.10069">
        <ele>55.7</ele>
        <time>2020-06-18T13:16:28Z</time>
      </trkpt>
      <trkpt lat="49.92529" lon="1.10074">
        <ele>55.9</ele>
        <time>2020-06-18T13:16:29Z</time>
      </trkpt>
      <trkpt lat="49.92527" lon="1.1008">
        <ele>56.2</ele>
        <time>2020-06-18T13:16:30Z</time>
      </trkpt>
      <trkpt lat="49.92525" lon="1.10085">
        <ele>56.7</ele>
        <time>2020-06-18T13:16:31Z</time>
      </trkpt>
      <trkpt lat="49.92524" lon="1.1009">
        <ele>56.7</ele>
        <time>2020-06-18T13:16:32Z</time>
      </trkpt>
      <trkpt lat="49.92523" lon="1.10096">
        <ele>56.7</ele>
        <time>2020-06-18T13:16:33Z</time>
      </trkpt>
      <trkpt lat="49.92521" lon="1.101">
        <ele>56.8</ele>
        <time>2020-06-18T13:16:34Z</time>
      </trkpt>
      <trkpt lat="49.92519" lon="1.10107">
        <ele>56.9</ele>
        <time>2020-06-18T13:16:35Z</time>
      </trkpt>
      <trkpt lat="49.92517" lon="1.10113">
        <ele>57.1</ele>
        <time>2020-06-18T13:16:36Z</time>
      </trkpt>
      <trkpt lat="49.92515" lon="1.10119">
        <ele>57.3</ele>
        <time>2020-06-18T13:16:37Z</time>
      </trkpt>
      <trkpt lat="49.92513" lon="1.10123">
        <ele>57.5</ele>
        <time>2020-06-18T13:16:38Z</time>
      </trkpt>
      <trkpt lat="49.92511" lon="1.10129">
        <ele>57.7</ele>
        <time>2020-06-18T13:16:39Z</time>
      </trkpt>
      <trkpt lat="49.92509" lon="1.10135">
        <ele>57.9</ele>
        <time>2020-06-18T13:16:40Z</time>
      </trkpt>
      <trkpt lat="49.92508" lon="1.1014">
        <ele>58.1</ele>
        <time>2020-06-18T13:16:41Z</time>
      </trkpt>
      <trkpt lat="49.92506" lon="1.10145">
        <ele>58.2</ele>
        <time>2020-06-18T13:16:42Z</time>
      </trkpt>
      <trkpt lat="49.92505" lon="1.10151">
        <ele>58.4</ele>
        <time>2020-06-18T13:16:43Z</time>
      </trkpt>
      <trkpt lat="49.92504" lon="1.10158">
        <ele>58.6</ele>
        <time>2020-06-18T13:16:44Z</time>
      </trkpt>
      <trkpt lat="49.92504" lon="1.10166">
        <ele>58.8</ele>
        <time>2020-06-18T13:16:45Z</time>
      </trkpt>
      <trkpt lat="49.92503" lon="1.10172">
        <ele>59</ele>
        <time>2020-06-18T13:16:46Z</time>
      </trkpt>
      <trkpt lat="49.92503" lon="1.1018">
        <ele>59.1</ele>
        <time>2020-06-18T13:16:47Z</time>
      </trkpt>
      <trkpt lat="49.92502" lon="1.10187">
        <ele>59.3</ele>
        <time>2020-06-18T13:16:48Z</time>
      </trkpt>
      <trkpt lat="49.925" lon="1.10193">
        <ele>59.5</ele>
        <time>2020-06-18T13:16:49Z</time>
      </trkpt>
      <trkpt lat="49.92498" lon="1.10199">
        <ele>59.8</ele>
        <time>2020-06-18T13:16:50Z</time>
      </trkpt>
      <trkpt lat="49.92497" lon="1.10204">
        <ele>59.9</ele>
        <time>2020-06-18T13:16:51Z</time>
      </trkpt>
      <trkpt lat="49.92495" lon="1.1021">
        <ele>60</ele>
        <time>2020-06-18T13:16:52Z</time>
      </trkpt>
      <trkpt lat="49.92493" lon="1.10215">
        <ele>60.1</ele>
        <time>2020-06-18T13:16:53Z</time>
      </trkpt>
      <trkpt lat="49.92491" lon="1.1022">
        <ele>60.3</ele>
        <time>2020-06-18T13:16:54Z</time>
      </trkpt>
      <trkpt lat="49.9249" lon="1.10225">
        <ele>60.4</ele>
        <time>2020-06-18T13:16:55Z</time>
      </trkpt>
      <trkpt lat="49.92489" lon="1.10229">
        <ele>60.5</ele>
        <time>2020-06-18T13:16:56Z</time>
      </trkpt>
      <trkpt lat="49.92487" lon="1.10234">
        <ele>60.6</ele>
        <time>2020-06-18T13:16:57Z</time>
      </trkpt>
      <trkpt lat="49.92485" lon="1.1024">
        <ele>60.8</ele>
        <time>2020-06-18T13:16:58Z</time>
      </trkpt>
      <trkpt lat="49.92485" lon="1.10245">
        <ele>60.9</ele>
        <time>2020-06-18T13:16:59Z</time>
      </trkpt>
      <trkpt lat="49.92483" lon="1.1025">
        <ele>61</ele>
        <time>2020-06-18T13:17:00Z</time>
      </trkpt>
      <trkpt lat="49.92482" lon="1.10256">
        <ele>61.2</ele>
        <time>2020-06-18T13:17:01Z</time>
      </trkpt>
      <trkpt lat="49.92481" lon="1.10261">
        <ele>61.3</ele>
        <time>2020-06-18T13:17:02Z</time>
      </trkpt>
      <trkpt lat="49.9248" lon="1.10266">
        <ele>61.4</ele>
        <time>2020-06-18T13:17:03Z</time>
      </trkpt>
      <trkpt lat="49.92479" lon="1.10271">
        <ele>61.6</ele>
        <time>2020-06-18T13:17:04Z</time>
      </trkpt>
      <trkpt lat="49.92478" lon="1.10277">
        <ele>61.7</ele>
        <time>2020-06-18T13:17:05Z</time>
      </trkpt>
      <trkpt lat="49.92478" lon="1.10283">
        <ele>61.9</ele>
        <time>2020-06-18T13:17:06Z</time>
      </trkpt>
      <trkpt lat="49.92476" lon="1.10287">
        <ele>62</ele>
        <time>2020-06-18T13:17:07Z</time>
      </trkpt>
      <trkpt lat="49.92474" lon="1.10291">
        <ele>62.1</ele>
        <time>2020-06-18T13:17:08Z</time>
      </trkpt>
      <trkpt lat="49.92472" lon="1.10297">
        <ele>62.3</ele>
        <time>2020-06-18T13:17:09Z</time>
      </trkpt>
      <trkpt lat="49.9247" lon="1.10305">
        <ele>62.5</ele>
        <time>2020-06-18T13:17:10Z</time>
      </trkpt>
      <trkpt lat="49.92468" lon="1.10311">
        <ele>62.7</ele>
        <time>2020-06-18T13:17:11Z</time>
      </trkpt>
      <trkpt lat="49.92467" lon="1.10315">
        <ele>62.8</ele>
        <time>2020-06-18T13:17:12Z</time>
      </trkpt>
      <trkpt lat="49.92466" lon="1.10321">
        <ele>62.9</ele>
        <time>2020-06-18T13:17:13Z</time>
      </trkpt>
      <trkpt lat="49.92463" lon="1.10327">
        <ele>63.2</ele>
        <time>2020-06-18T13:17:14Z</time>
      </trkpt>
      <trkpt lat="49.9246" lon="1.10332">
        <ele>63.3</ele>
        <time>2020-06-18T13:17:15Z</time>
      </trkpt>
      <trkpt lat="49.92459" lon="1.10337">
        <ele>63.5</ele>
        <time>2020-06-18T13:17:16Z</time>
      </trkpt>
      <trkpt lat="49.92459" lon="1.10339">
        <ele>63.5</ele>
        <time>2020-06-18T13:17:17Z</time>
      </trkpt>
      <trkpt lat="49.92459" lon="1.10342">
        <ele>63.6</ele>
        <time>2020-06-18T13:17:18Z</time>
      </trkpt>
      <trkpt lat="49.92458" lon="1.10344">
        <ele>63.7</ele>
        <time>2020-06-18T13:17:19Z</time>
      </trkpt>
      <trkpt lat="49.92457" lon="1.10347">
        <ele>63.8</ele>
        <time>2020-06-18T13:17:20Z</time>
      </trkpt>
      <trkpt lat="49.92457" lon="1.10348">
        <ele>63.8</ele>
        <time>2020-06-18T13:17:21Z</time>
      </trkpt>
      <trkpt lat="49.92456" lon="1.1035">
        <ele>63.8</ele>
        <time>2020-06-18T13:17:22Z</time>
      </trkpt>
      <trkpt lat="49.92456" lon="1.10351">
        <ele>63.9</ele>
        <time>2020-06-18T13:17:23Z</time>
      </trkpt>
      <trkpt lat="49.92456" lon="1.10352">
        <ele>63.9</ele>
        <time>2020-06-18T13:17:24Z</time>
      </trkpt>
      <trkpt lat="49.92456" lon="1.10354">
        <ele>63.9</ele>
        <time>2020-06-18T13:17:25Z</time>
      </trkpt>
      <trkpt lat="49.92456" lon="1.10359">
        <ele>64.1</ele>
        <time>2020-06-18T13:17:26Z</time>
      </trkpt>
      <trkpt lat="49.92456" lon="1.10361">
        <ele>64.1</ele>
        <time>2020-06-18T13:17:27Z</time>
      </trkpt>
      <trkpt lat="49.92456" lon="1.10367">
        <ele>64.2</ele>
        <time>2020-06-18T13:17:28Z</time>
      </trkpt>
      <trkpt lat="49.92457" lon="1.10372">
        <ele>64.5</ele>
        <time>2020-06-18T13:17:29Z</time>
      </trkpt>
      <trkpt lat="49.92458" lon="1.10377">
        <ele>64.5</ele>
        <time>2020-06-18T13:17:30Z</time>
      </trkpt>
      <trkpt lat="49.92459" lon="1.10383">
        <ele>64.6</ele>
        <time>2020-06-18T13:17:31Z</time>
      </trkpt>
      <trkpt lat="49.9246" lon="1.10388">
        <ele>64.6</ele>
        <time>2020-06-18T13:17:32Z</time>
      </trkpt>
      <trkpt lat="49.92462" lon="1.10393">
        <ele>64.7</ele>
        <time>2020-06-18T13:17:33Z</time>
      </trkpt>
      <trkpt lat="49.92463" lon="1.10398">
        <ele>64.7</ele>
        <time>2020-06-18T13:17:34Z</time>
      </trkpt>
      <trkpt lat="49.92464" lon="1.10407">
        <ele>64.8</ele>
        <time>2020-06-18T13:17:35Z</time>
      </trkpt>
      <trkpt lat="49.92466" lon="1.10413">
        <ele>64.9</ele>
        <time>2020-06-18T13:17:36Z</time>
      </trkpt>
      <trkpt lat="49.92468" lon="1.10418">
        <ele>64.9</ele>
        <time>2020-06-18T13:17:37Z</time>
      </trkpt>
      <trkpt lat="49.9247" lon="1.10423">
        <ele>65</ele>
        <time>2020-06-18T13:17:38Z</time>
      </trkpt>
      <trkpt lat="49.92473" lon="1.10428">
        <ele>65</ele>
        <time>2020-06-18T13:17:39Z</time>
      </trkpt>
      <trkpt lat="49.92476" lon="1.10432">
        <ele>65.1</ele>
        <time>2020-06-18T13:17:40Z</time>
      </trkpt>
      <trkpt lat="49.92478" lon="1.10437">
        <ele>65.1</ele>
        <time>2020-06-18T13:17:41Z</time>
      </trkpt>
      <trkpt lat="49.92481" lon="1.10441">
        <ele>65.1</ele>
        <time>2020-06-18T13:17:42Z</time>
      </trkpt>
      <trkpt lat="49.92483" lon="1.10446">
        <ele>65.4</ele>
        <time>2020-06-18T13:17:43Z</time>
      </trkpt>
      <trkpt lat="49.92486" lon="1.10451">
        <ele>65.6</ele>
        <time>2020-06-18T13:17:44Z</time>
      </trkpt>
      <trkpt lat="49.92488" lon="1.10456">
        <ele>65.7</ele>
        <time>2020-06-18T13:17:45Z</time>
      </trkpt>
      <trkpt lat="49.92491" lon="1.1046">
        <ele>65.9</ele>
        <time>2020-06-18T13:17:46Z</time>
      </trkpt>
      <trkpt lat="49.92494" lon="1.10465">
        <ele>66</ele>
        <time>2020-06-18T13:17:47Z</time>
      </trkpt>
      <trkpt lat="49.92496" lon="1.10469">
        <ele>66.2</ele>
        <time>2020-06-18T13:17:48Z</time>
      </trkpt>
      <trkpt lat="49.92498" lon="1.10474">
        <ele>66.3</ele>
        <time>2020-06-18T13:17:49Z</time>
      </trkpt>
      <trkpt lat="49.92501" lon="1.10478">
        <ele>66.5</ele>
        <time>2020-06-18T13:17:50Z</time>
      </trkpt>
      <trkpt lat="49.92503" lon="1.10482">
        <ele>66.6</ele>
        <time>2020-06-18T13:17:51Z</time>
      </trkpt>
      <trkpt lat="49.92506" lon="1.10488">
        <ele>66.8</ele>
        <time>2020-06-18T13:17:52Z</time>
      </trkpt>
      <trkpt lat="49.92509" lon="1.10493">
        <ele>67</ele>
        <time>2020-06-18T13:17:53Z</time>
      </trkpt>
      <trkpt lat="49.92512" lon="1.10497">
        <ele>67.1</ele>
        <time>2020-06-18T13:17:54Z</time>
      </trkpt>
      <trkpt lat="49.92515" lon="1.10502">
        <ele>67.3</ele>
        <time>2020-06-18T13:17:55Z</time>
      </trkpt>
      <trkpt lat="49.92519" lon="1.10506">
        <ele>67.5</ele>
        <time>2020-06-18T13:17:56Z</time>
      </trkpt>
      <trkpt lat="49.92521" lon="1.10511">
        <ele>67.6</ele>
        <time>2020-06-18T13:17:57Z</time>
      </trkpt>
      <trkpt lat="49.92524" lon="1.10517">
        <ele>67.8</ele>
        <time>2020-06-18T13:17:58Z</time>
      </trkpt>
      <trkpt lat="49.92527" lon="1.10522">
        <ele>67.9</ele>
        <time>2020-06-18T13:17:59Z</time>
      </trkpt>
      <trkpt lat="49.92529" lon="1.10525">
        <ele>68</ele>
        <time>2020-06-18T13:18:00Z</time>
      </trkpt>
      <trkpt lat="49.92532" lon="1.10529">
        <ele>68.1</ele>
        <time>2020-06-18T13:18:01Z</time>
      </trkpt>
      <trkpt lat="49.92535" lon="1.10533">
        <ele>68.1</ele>
        <time>2020-06-18T13:18:02Z</time>
      </trkpt>
      <trkpt lat="49.92539" lon="1.10537">
        <ele>68.2</ele>
        <time>2020-06-18T13:18:03Z</time>
      </trkpt>
      <trkpt lat="49.92541" lon="1.1054">
        <ele>68.3</ele>
        <time>2020-06-18T13:18:04Z</time>
      </trkpt>
      <trkpt lat="49.92545" lon="1.10545">
        <ele>68.4</ele>
        <time>2020-06-18T13:18:05Z</time>
      </trkpt>
      <trkpt lat="49.92548" lon="1.10548">
        <ele>68.4</ele>
        <time>2020-06-18T13:18:06Z</time>
      </trkpt>
      <trkpt lat="49.92549" lon="1.10549">
        <ele>68.4</ele>
        <time>2020-06-18T13:18:07Z</time>
      </trkpt>
      <trkpt lat="49.92551" lon="1.10553">
        <ele>68.5</ele>
        <time>2020-06-18T13:18:08Z</time>
      </trkpt>
      <trkpt lat="49.92554" lon="1.10558">
        <ele>68.6</ele>
        <time>2020-06-18T13:18:09Z</time>
      </trkpt>
      <trkpt lat="49.92557" lon="1.10561">
        <ele>68.7</ele>
        <time>2020-06-18T13:18:10Z</time>
      </trkpt>
      <trkpt lat="49.9256" lon="1.10566">
        <ele>68.8</ele>
        <time>2020-06-18T13:18:11Z</time>
      </trkpt>
      <trkpt lat="49.92563" lon="1.1057">
        <ele>68.9</ele>
        <time>2020-06-18T13:18:12Z</time>
      </trkpt>
      <trkpt lat="49.92566" lon="1.10575">
        <ele>69</ele>
        <time>2020-06-18T13:18:13Z</time>
      </trkpt>
      <trkpt lat="49.92569" lon="1.1058">
        <ele>69.1</ele>
        <time>2020-06-18T13:18:14Z</time>
      </trkpt>
      <trkpt lat="49.92571" lon="1.10584">
        <ele>69.1</ele>
        <time>2020-06-18T13:18:15Z</time>
      </trkpt>
      <trkpt lat="49.92574" lon="1.10589">
        <ele>69.2</ele>
        <time>2020-06-18T13:18:16Z</time>
      </trkpt>
      <trkpt lat="49.92578" lon="1.10594">
        <ele>69.3</ele>
        <time>2020-06-18T13:18:17Z</time>
      </trkpt>
      <trkpt lat="49.9258" lon="1.10598">
        <ele>69.4</ele>
        <time>2020-06-18T13:18:18Z</time>
      </trkpt>
      <trkpt lat="49.92583" lon="1.10602">
        <ele>69.5</ele>
        <time>2020-06-18T13:18:19Z</time>
      </trkpt>
      <trkpt lat="49.92586" lon="1.10606">
        <ele>69.7</ele>
        <time>2020-06-18T13:18:20Z</time>
      </trkpt>
      <trkpt lat="49.92588" lon="1.10611">
        <ele>69.8</ele>
        <time>2020-06-18T13:18:21Z</time>
      </trkpt>
      <trkpt lat="49.92591" lon="1.10617">
        <ele>70</ele>
        <time>2020-06-18T13:18:22Z</time>
      </trkpt>
      <trkpt lat="49.92595" lon="1.10623">
        <ele>70.1</ele>
        <time>2020-06-18T13:18:23Z</time>
      </trkpt>
      <trkpt lat="49.92598" lon="1.10628">
        <ele>70.3</ele>
        <time>2020-06-18T13:18:24Z</time>
      </trkpt>
      <trkpt lat="49.926" lon="1.10631">
        <ele>70.3</ele>
        <time>2020-06-18T13:18:25Z</time>
      </trkpt>
      <trkpt lat="49.92603" lon="1.10634">
        <ele>70.4</ele>
        <time>2020-06-18T13:18:26Z</time>
      </trkpt>
      <trkpt lat="49.92605" lon="1.10638">
        <ele>70.5</ele>
        <time>2020-06-18T13:18:27Z</time>
      </trkpt>
      <trkpt lat="49.92608" lon="1.10641">
        <ele>70.6</ele>
        <time>2020-06-18T13:18:28Z</time>
      </trkpt>
      <trkpt lat="49.9261" lon="1.10644">
        <ele>70.7</ele>
        <time>2020-06-18T13:18:29Z</time>
      </trkpt>
      <trkpt lat="49.92612" lon="1.10646">
        <ele>70.8</ele>
        <time>2020-06-18T13:18:30Z</time>
      </trkpt>
      <trkpt lat="49.92614" lon="1.10651">
        <ele>70.9</ele>
        <time>2020-06-18T13:18:31Z</time>
      </trkpt>
      <trkpt lat="49.92615" lon="1.10653">
        <ele>71</ele>
        <time>2020-06-18T13:18:32Z</time>
      </trkpt>
      <trkpt lat="49.92617" lon="1.10657">
        <ele>71.1</ele>
        <time>2020-06-18T13:18:33Z</time>
      </trkpt>
      <trkpt lat="49.92618" lon="1.10658">
        <ele>71.1</ele>
        <time>2020-06-18T13:18:34Z</time>
      </trkpt>
      <trkpt lat="49.92619" lon="1.10663">
        <ele>71.2</ele>
        <time>2020-06-18T13:18:35Z</time>
      </trkpt>
      <trkpt lat="49.9262" lon="1.10664">
        <ele>71.2</ele>
        <time>2020-06-18T13:18:36Z</time>
      </trkpt>
      <trkpt lat="49.92622" lon="1.10668">
        <ele>71.2</ele>
        <time>2020-06-18T13:18:37Z</time>
      </trkpt>
      <trkpt lat="49.92624" lon="1.10672">
        <ele>71.3</ele>
        <time>2020-06-18T13:18:38Z</time>
      </trkpt>
      <trkpt lat="49.92624" lon="1.10676">
        <ele>71.3</ele>
        <time>2020-06-18T13:18:39Z</time>
      </trkpt>
      <trkpt lat="49.92627" lon="1.1068">
        <ele>71.3</ele>
        <time>2020-06-18T13:18:40Z</time>
      </trkpt>
      <trkpt lat="49.9263" lon="1.10684">
        <ele>71.3</ele>
        <time>2020-06-18T13:18:41Z</time>
      </trkpt>
      <trkpt lat="49.92633" lon="1.10689">
        <ele>71.2</ele>
        <time>2020-06-18T13:18:42Z</time>
      </trkpt>
      <trkpt lat="49.92636" lon="1.10693">
        <ele>71.2</ele>
        <time>2020-06-18T13:18:43Z</time>
      </trkpt>
      <trkpt lat="49.9264" lon="1.10699">
        <ele>71.1</ele>
        <time>2020-06-18T13:18:44Z</time>
      </trkpt>
      <trkpt lat="49.92644" lon="1.10703">
        <ele>71.1</ele>
        <time>2020-06-18T13:18:45Z</time>
      </trkpt>
      <trkpt lat="49.92649" lon="1.10708">
        <ele>71.1</ele>
        <time>2020-06-18T13:18:46Z</time>
      </trkpt>
      <trkpt lat="49.92653" lon="1.10713">
        <ele>71</ele>
        <time>2020-06-18T13:18:47Z</time>
      </trkpt>
      <trkpt lat="49.92657" lon="1.10718">
        <ele>70.9</ele>
        <time>2020-06-18T13:18:48Z</time>
      </trkpt>
      <trkpt lat="49.9266" lon="1.10724">
        <ele>70.9</ele>
        <time>2020-06-18T13:18:49Z</time>
      </trkpt>
      <trkpt lat="49.92664" lon="1.10729">
        <ele>70.8</ele>
        <time>2020-06-18T13:18:50Z</time>
      </trkpt>
      <trkpt lat="49.92668" lon="1.10734">
        <ele>70.8</ele>
        <time>2020-06-18T13:18:51Z</time>
      </trkpt>
      <trkpt lat="49.92672" lon="1.10739">
        <ele>70.7</ele>
        <time>2020-06-18T13:18:52Z</time>
      </trkpt>
      <trkpt lat="49.92675" lon="1.10744">
        <ele>70.7</ele>
        <time>2020-06-18T13:18:53Z</time>
      </trkpt>
      <trkpt lat="49.92678" lon="1.10749">
        <ele>70.7</ele>
        <time>2020-06-18T13:18:54Z</time>
      </trkpt>
      <trkpt lat="49.92681" lon="1.10753">
        <ele>70.6</ele>
        <time>2020-06-18T13:18:55Z</time>
      </trkpt>
      <trkpt lat="49.92684" lon="1.10758">
        <ele>70.6</ele>
        <time>2020-06-18T13:18:56Z</time>
      </trkpt>
      <trkpt lat="49.92688" lon="1.10762">
        <ele>70.6</ele>
        <time>2020-06-18T13:18:57Z</time>
      </trkpt>
      <trkpt lat="49.92691" lon="1.10767">
        <ele>70.5</ele>
        <time>2020-06-18T13:18:58Z</time>
      </trkpt>
      <trkpt lat="49.92694" lon="1.10771">
        <ele>70.5</ele>
        <time>2020-06-18T13:18:59Z</time>
      </trkpt>
      <trkpt lat="49.92698" lon="1.10774">
        <ele>70.5</ele>
        <time>2020-06-18T13:19:00Z</time>
      </trkpt>
      <trkpt lat="49.92702" lon="1.10779">
        <ele>70.5</ele>
        <time>2020-06-18T13:19:01Z</time>
      </trkpt>
      <trkpt lat="49.92707" lon="1.10783">
        <ele>70.5</ele>
        <time>2020-06-18T13:19:02Z</time>
      </trkpt>
      <trkpt lat="49.92711" lon="1.10785">
        <ele>70.5</ele>
        <time>2020-06-18T13:19:03Z</time>
      </trkpt>
      <trkpt lat="49.92716" lon="1.10787">
        <ele>70.4</ele>
        <time>2020-06-18T13:19:04Z</time>
      </trkpt>
      <trkpt lat="49.9272" lon="1.10789">
        <ele>70.4</ele>
        <time>2020-06-18T13:19:05Z</time>
      </trkpt>
      <trkpt lat="49.92723" lon="1.10791">
        <ele>70.4</ele>
        <time>2020-06-18T13:19:06Z</time>
      </trkpt>
      <trkpt lat="49.92728" lon="1.10793">
        <ele>70.4</ele>
        <time>2020-06-18T13:19:07Z</time>
      </trkpt>
      <trkpt lat="49.92732" lon="1.10795">
        <ele>70.4</ele>
        <time>2020-06-18T13:19:08Z</time>
      </trkpt>
      <trkpt lat="49.92737" lon="1.10798">
        <ele>70.4</ele>
        <time>2020-06-18T13:19:09Z</time>
      </trkpt>
      <trkpt lat="49.92741" lon="1.10802">
        <ele>70.4</ele>
        <time>2020-06-18T13:19:10Z</time>
      </trkpt>
      <trkpt lat="49.92746" lon="1.10805">
        <ele>70.4</ele>
        <time>2020-06-18T13:19:11Z</time>
      </trkpt>
      <trkpt lat="49.92751" lon="1.10808">
        <ele>70.4</ele>
        <time>2020-06-18T13:19:12Z</time>
      </trkpt>
      <trkpt lat="49.92756" lon="1.10811">
        <ele>70.4</ele>
        <time>2020-06-18T13:19:13Z</time>
      </trkpt>
      <trkpt lat="49.92761" lon="1.10813">
        <ele>70.3</ele>
        <time>2020-06-18T13:19:14Z</time>
      </trkpt>
      <trkpt lat="49.92766" lon="1.10816">
        <ele>70.3</ele>
        <time>2020-06-18T13:19:15Z</time>
      </trkpt>
      <trkpt lat="49.92771" lon="1.10819">
        <ele>70.3</ele>
        <time>2020-06-18T13:19:16Z</time>
      </trkpt>
      <trkpt lat="49.92775" lon="1.10824">
        <ele>70.2</ele>
        <time>2020-06-18T13:19:17Z</time>
      </trkpt>
      <trkpt lat="49.9278" lon="1.10827">
        <ele>70.1</ele>
        <time>2020-06-18T13:19:18Z</time>
      </trkpt>
      <trkpt lat="49.92785" lon="1.10831">
        <ele>70.1</ele>
        <time>2020-06-18T13:19:19Z</time>
      </trkpt>
      <trkpt lat="49.9279" lon="1.10834">
        <ele>70</ele>
        <time>2020-06-18T13:19:20Z</time>
      </trkpt>
      <trkpt lat="49.92796" lon="1.10838">
        <ele>69.9</ele>
        <time>2020-06-18T13:19:21Z</time>
      </trkpt>
      <trkpt lat="49.92801" lon="1.1084">
        <ele>69.8</ele>
        <time>2020-06-18T13:19:22Z</time>
      </trkpt>
      <trkpt lat="49.92806" lon="1.10844">
        <ele>69.6</ele>
        <time>2020-06-18T13:19:23Z</time>
      </trkpt>
      <trkpt lat="49.92811" lon="1.10849">
        <ele>69.5</ele>
        <time>2020-06-18T13:19:24Z</time>
      </trkpt>
      <trkpt lat="49.92816" lon="1.10852">
        <ele>69.3</ele>
        <time>2020-06-18T13:19:25Z</time>
      </trkpt>
      <trkpt lat="49.92821" lon="1.10856">
        <ele>69.2</ele>
        <time>2020-06-18T13:19:26Z</time>
      </trkpt>
      <trkpt lat="49.92826" lon="1.10859">
        <ele>69.1</ele>
        <time>2020-06-18T13:19:27Z</time>
      </trkpt>
      <trkpt lat="49.92831" lon="1.10863">
        <ele>68.9</ele>
        <time>2020-06-18T13:19:28Z</time>
      </trkpt>
      <trkpt lat="49.92836" lon="1.10866">
        <ele>68.8</ele>
        <time>2020-06-18T13:19:29Z</time>
      </trkpt>
      <trkpt lat="49.92842" lon="1.10869">
        <ele>68.7</ele>
        <time>2020-06-18T13:19:30Z</time>
      </trkpt>
      <trkpt lat="49.92848" lon="1.10872">
        <ele>68.6</ele>
        <time>2020-06-18T13:19:31Z</time>
      </trkpt>
      <trkpt lat="49.92855" lon="1.10876">
        <ele>68.6</ele>
        <time>2020-06-18T13:19:32Z</time>
      </trkpt>
      <trkpt lat="49.92861" lon="1.1088">
        <ele>68.6</ele>
        <time>2020-06-18T13:19:33Z</time>
      </trkpt>
      <trkpt lat="49.92866" lon="1.10883">
        <ele>68.6</ele>
        <time>2020-06-18T13:19:34Z</time>
      </trkpt>
      <trkpt lat="49.92869" lon="1.10887">
        <ele>68.6</ele>
        <time>2020-06-18T13:19:35Z</time>
      </trkpt>
      <trkpt lat="49.92874" lon="1.1089">
        <ele>68.6</ele>
        <time>2020-06-18T13:19:36Z</time>
      </trkpt>
      <trkpt lat="49.92879" lon="1.10894">
        <ele>68.6</ele>
        <time>2020-06-18T13:19:37Z</time>
      </trkpt>
      <trkpt lat="49.92884" lon="1.10897">
        <ele>68.6</ele>
        <time>2020-06-18T13:19:38Z</time>
      </trkpt>
      <trkpt lat="49.92889" lon="1.109">
        <ele>68.6</ele>
        <time>2020-06-18T13:19:39Z</time>
      </trkpt>
      <trkpt lat="49.92894" lon="1.10903">
        <ele>68.6</ele>
        <time>2020-06-18T13:19:40Z</time>
      </trkpt>
      <trkpt lat="49.92899" lon="1.10907">
        <ele>68.6</ele>
        <time>2020-06-18T13:19:41Z</time>
      </trkpt>
      <trkpt lat="49.92904" lon="1.10911">
        <ele>68.6</ele>
        <time>2020-06-18T13:19:42Z</time>
      </trkpt>
      <trkpt lat="49.9291" lon="1.10914">
        <ele>68.6</ele>
        <time>2020-06-18T13:19:43Z</time>
      </trkpt>
      <trkpt lat="49.92915" lon="1.10918">
        <ele>68.6</ele>
        <time>2020-06-18T13:19:44Z</time>
      </trkpt>
      <trkpt lat="49.9292" lon="1.10923">
        <ele>68.6</ele>
        <time>2020-06-18T13:19:45Z</time>
      </trkpt>
      <trkpt lat="49.92925" lon="1.10927">
        <ele>68.6</ele>
        <time>2020-06-18T13:19:46Z</time>
      </trkpt>
      <trkpt lat="49.92929" lon="1.1093">
        <ele>68.7</ele>
        <time>2020-06-18T13:19:47Z</time>
      </trkpt>
      <trkpt lat="49.92934" lon="1.10935">
        <ele>68.7</ele>
        <time>2020-06-18T13:19:48Z</time>
      </trkpt>
      <trkpt lat="49.92938" lon="1.10939">
        <ele>68.6</ele>
        <time>2020-06-18T13:19:49Z</time>
      </trkpt>
      <trkpt lat="49.92943" lon="1.10943">
        <ele>68.6</ele>
        <time>2020-06-18T13:19:50Z</time>
      </trkpt>
      <trkpt lat="49.92948" lon="1.10947">
        <ele>68.6</ele>
        <time>2020-06-18T13:19:51Z</time>
      </trkpt>
      <trkpt lat="49.92953" lon="1.10951">
        <ele>68.6</ele>
        <time>2020-06-18T13:19:52Z</time>
      </trkpt>
      <trkpt lat="49.92958" lon="1.10955">
        <ele>68.5</ele>
        <time>2020-06-18T13:19:53Z</time>
      </trkpt>
      <trkpt lat="49.92962" lon="1.1096">
        <ele>68.5</ele>
        <time>2020-06-18T13:19:54Z</time>
      </trkpt>
      <trkpt lat="49.92966" lon="1.10963">
        <ele>68.5</ele>
        <time>2020-06-18T13:19:55Z</time>
      </trkpt>
      <trkpt lat="49.92971" lon="1.10968">
        <ele>68.5</ele>
        <time>2020-06-18T13:19:56Z</time>
      </trkpt>
      <trkpt lat="49.92976" lon="1.10973">
        <ele>68.5</ele>
        <time>2020-06-18T13:19:57Z</time>
      </trkpt>
      <trkpt lat="49.92981" lon="1.10978">
        <ele>68.4</ele>
        <time>2020-06-18T13:19:58Z</time>
      </trkpt>
      <trkpt lat="49.92986" lon="1.10984">
        <ele>68.4</ele>
        <time>2020-06-18T13:19:59Z</time>
      </trkpt>
      <trkpt lat="49.92991" lon="1.10989">
        <ele>68.4</ele>
        <time>2020-06-18T13:20:00Z</time>
      </trkpt>
      <trkpt lat="49.92996" lon="1.10993">
        <ele>68.4</ele>
        <time>2020-06-18T13:20:01Z</time>
      </trkpt>
      <trkpt lat="49.93001" lon="1.10997">
        <ele>68.4</ele>
        <time>2020-06-18T13:20:02Z</time>
      </trkpt>
      <trkpt lat="49.93005" lon="1.11002">
        <ele>68.4</ele>
        <time>2020-06-18T13:20:03Z</time>
      </trkpt>
      <trkpt lat="49.9301" lon="1.11007">
        <ele>68.4</ele>
        <time>2020-06-18T13:20:04Z</time>
      </trkpt>
      <trkpt lat="49.93015" lon="1.11012">
        <ele>68.4</ele>
        <time>2020-06-18T13:20:05Z</time>
      </trkpt>
      <trkpt lat="49.93019" lon="1.11017">
        <ele>68.4</ele>
        <time>2020-06-18T13:20:06Z</time>
      </trkpt>
      <trkpt lat="49.93024" lon="1.11021">
        <ele>68.4</ele>
        <time>2020-06-18T13:20:07Z</time>
      </trkpt>
      <trkpt lat="49.93028" lon="1.11026">
        <ele>68.4</ele>
        <time>2020-06-18T13:20:08Z</time>
      </trkpt>
      <trkpt lat="49.93032" lon="1.1103">
        <ele>68.4</ele>
        <time>2020-06-18T13:20:09Z</time>
      </trkpt>
      <trkpt lat="49.93036" lon="1.11034">
        <ele>68.4</ele>
        <time>2020-06-18T13:20:10Z</time>
      </trkpt>
      <trkpt lat="49.93039" lon="1.11039">
        <ele>68.4</ele>
        <time>2020-06-18T13:20:11Z</time>
      </trkpt>
      <trkpt lat="49.93042" lon="1.11043">
        <ele>68.4</ele>
        <time>2020-06-18T13:20:12Z</time>
      </trkpt>
      <trkpt lat="49.93045" lon="1.11049">
        <ele>68.4</ele>
        <time>2020-06-18T13:20:13Z</time>
      </trkpt>
      <trkpt lat="49.93045" lon="1.11055">
        <ele>68.4</ele>
        <time>2020-06-18T13:20:14Z</time>
      </trkpt>
      <trkpt lat="49.93045" lon="1.11061">
        <ele>68.3</ele>
        <time>2020-06-18T13:20:15Z</time>
      </trkpt>
      <trkpt lat="49.93045" lon="1.11066">
        <ele>68.3</ele>
        <time>2020-06-18T13:20:16Z</time>
      </trkpt>
      <trkpt lat="49.93047" lon="1.1107">
        <ele>68.3</ele>
        <time>2020-06-18T13:20:17Z</time>
      </trkpt>
      <trkpt lat="49.93048" lon="1.11074">
        <ele>68.3</ele>
        <time>2020-06-18T13:20:18Z</time>
      </trkpt>
      <trkpt lat="49.93051" lon="1.11074">
        <ele>68.2</ele>
        <time>2020-06-18T13:20:19Z</time>
      </trkpt>
      <trkpt lat="49.93053" lon="1.11073">
        <ele>68.2</ele>
        <time>2020-06-18T13:20:20Z</time>
      </trkpt>
      <trkpt lat="49.93056" lon="1.11075">
        <ele>68.2</ele>
        <time>2020-06-18T13:20:21Z</time>
      </trkpt>
      <trkpt lat="49.93059" lon="1.11078">
        <ele>68.2</ele>
        <time>2020-06-18T13:20:22Z</time>
      </trkpt>
      <trkpt lat="49.93063" lon="1.11082">
        <ele>68.2</ele>
        <time>2020-06-18T13:20:23Z</time>
      </trkpt>
      <trkpt lat="49.93067" lon="1.11086">
        <ele>68.2</ele>
        <time>2020-06-18T13:20:24Z</time>
      </trkpt>
      <trkpt lat="49.9307" lon="1.1109">
        <ele>68.2</ele>
        <time>2020-06-18T13:20:25Z</time>
      </trkpt>
      <trkpt lat="49.93074" lon="1.11094">
        <ele>68.2</ele>
        <time>2020-06-18T13:20:26Z</time>
      </trkpt>
      <trkpt lat="49.93078" lon="1.11099">
        <ele>68.2</ele>
        <time>2020-06-18T13:20:27Z</time>
      </trkpt>
      <trkpt lat="49.93082" lon="1.11104">
        <ele>68.2</ele>
        <time>2020-06-18T13:20:28Z</time>
      </trkpt>
      <trkpt lat="49.93086" lon="1.11109">
        <ele>68.2</ele>
        <time>2020-06-18T13:20:29Z</time>
      </trkpt>
      <trkpt lat="49.93091" lon="1.11114">
        <ele>68.2</ele>
        <time>2020-06-18T13:20:30Z</time>
      </trkpt>
      <trkpt lat="49.93095" lon="1.11119">
        <ele>68.3</ele>
        <time>2020-06-18T13:20:31Z</time>
      </trkpt>
      <trkpt lat="49.93099" lon="1.11125">
        <ele>68.3</ele>
        <time>2020-06-18T13:20:32Z</time>
      </trkpt>
      <trkpt lat="49.93103" lon="1.1113">
        <ele>68.4</ele>
        <time>2020-06-18T13:20:33Z</time>
      </trkpt>
      <trkpt lat="49.93107" lon="1.11136">
        <ele>68.4</ele>
        <time>2020-06-18T13:20:34Z</time>
      </trkpt>
      <trkpt lat="49.93111" lon="1.11141">
        <ele>68.5</ele>
        <time>2020-06-18T13:20:35Z</time>
      </trkpt>
      <trkpt lat="49.93115" lon="1.11146">
        <ele>68.5</ele>
        <time>2020-06-18T13:20:36Z</time>
      </trkpt>
      <trkpt lat="49.93118" lon="1.11151">
        <ele>68.5</ele>
        <time>2020-06-18T13:20:37Z</time>
      </trkpt>
      <trkpt lat="49.93121" lon="1.11156">
        <ele>68.5</ele>
        <time>2020-06-18T13:20:38Z</time>
      </trkpt>
      <trkpt lat="49.93124" lon="1.11161">
        <ele>68.5</ele>
        <time>2020-06-18T13:20:39Z</time>
      </trkpt>
      <trkpt lat="49.93126" lon="1.11165">
        <ele>68.5</ele>
        <time>2020-06-18T13:20:40Z</time>
      </trkpt>
      <trkpt lat="49.93128" lon="1.11169">
        <ele>68.5</ele>
        <time>2020-06-18T13:20:41Z</time>
      </trkpt>
      <trkpt lat="49.93131" lon="1.11171">
        <ele>68.5</ele>
        <time>2020-06-18T13:20:42Z</time>
      </trkpt>
      <trkpt lat="49.93132" lon="1.11171">
        <ele>68.5</ele>
        <time>2020-06-18T13:20:43Z</time>
      </trkpt>
      <trkpt lat="49.93135" lon="1.11173">
        <ele>68.5</ele>
        <time>2020-06-18T13:20:44Z</time>
      </trkpt>
      <trkpt lat="49.93137" lon="1.11176">
        <ele>68.5</ele>
        <time>2020-06-18T13:20:45Z</time>
      </trkpt>
      <trkpt lat="49.93139" lon="1.11181">
        <ele>68.5</ele>
        <time>2020-06-18T13:20:46Z</time>
      </trkpt>
      <trkpt lat="49.93141" lon="1.11188">
        <ele>68.5</ele>
        <time>2020-06-18T13:20:47Z</time>
      </trkpt>
      <trkpt lat="49.93142" lon="1.11195">
        <ele>68.5</ele>
        <time>2020-06-18T13:20:48Z</time>
      </trkpt>
      <trkpt lat="49.93144" lon="1.11202">
        <ele>68.1</ele>
        <time>2020-06-18T13:20:49Z</time>
      </trkpt>
      <trkpt lat="49.93148" lon="1.11208">
        <ele>68.2</ele>
        <time>2020-06-18T13:20:50Z</time>
      </trkpt>
      <trkpt lat="49.93152" lon="1.11213">
        <ele>68.2</ele>
        <time>2020-06-18T13:20:51Z</time>
      </trkpt>
      <trkpt lat="49.93156" lon="1.11217">
        <ele>68.5</ele>
        <time>2020-06-18T13:20:52Z</time>
      </trkpt>
      <trkpt lat="49.93161" lon="1.1122">
        <ele>68.6</ele>
        <time>2020-06-18T13:20:53Z</time>
      </trkpt>
      <trkpt lat="49.93166" lon="1.11225">
        <ele>68.6</ele>
        <time>2020-06-18T13:20:54Z</time>
      </trkpt>
      <trkpt lat="49.93169" lon="1.1123">
        <ele>68.5</ele>
        <time>2020-06-18T13:20:55Z</time>
      </trkpt>
      <trkpt lat="49.93173" lon="1.11235">
        <ele>68.5</ele>
        <time>2020-06-18T13:20:56Z</time>
      </trkpt>
      <trkpt lat="49.93177" lon="1.1124">
        <ele>68.4</ele>
        <time>2020-06-18T13:20:57Z</time>
      </trkpt>
      <trkpt lat="49.93181" lon="1.11245">
        <ele>68.3</ele>
        <time>2020-06-18T13:20:58Z</time>
      </trkpt>
      <trkpt lat="49.93183" lon="1.1125">
        <ele>68.2</ele>
        <time>2020-06-18T13:20:59Z</time>
      </trkpt>
      <trkpt lat="49.93187" lon="1.11255">
        <ele>68.1</ele>
        <time>2020-06-18T13:21:00Z</time>
      </trkpt>
      <trkpt lat="49.93192" lon="1.11261">
        <ele>67.9</ele>
        <time>2020-06-18T13:21:01Z</time>
      </trkpt>
      <trkpt lat="49.93197" lon="1.11268">
        <ele>67.8</ele>
        <time>2020-06-18T13:21:02Z</time>
      </trkpt>
      <trkpt lat="49.93202" lon="1.11274">
        <ele>67.7</ele>
        <time>2020-06-18T13:21:03Z</time>
      </trkpt>
      <trkpt lat="49.93206" lon="1.11281">
        <ele>67.6</ele>
        <time>2020-06-18T13:21:04Z</time>
      </trkpt>
      <trkpt lat="49.93211" lon="1.11287">
        <ele>67.5</ele>
        <time>2020-06-18T13:21:05Z</time>
      </trkpt>
      <trkpt lat="49.93215" lon="1.11293">
        <ele>67.3</ele>
        <time>2020-06-18T13:21:06Z</time>
      </trkpt>
      <trkpt lat="49.9322" lon="1.11298">
        <ele>67.2</ele>
        <time>2020-06-18T13:21:07Z</time>
      </trkpt>
      <trkpt lat="49.93224" lon="1.11305">
        <ele>67.1</ele>
        <time>2020-06-18T13:21:08Z</time>
      </trkpt>
      <trkpt lat="49.93229" lon="1.11311">
        <ele>67</ele>
        <time>2020-06-18T13:21:09Z</time>
      </trkpt>
      <trkpt lat="49.93233" lon="1.11318">
        <ele>66.8</ele>
        <time>2020-06-18T13:21:10Z</time>
      </trkpt>
      <trkpt lat="49.93238" lon="1.11324">
        <ele>66.7</ele>
        <time>2020-06-18T13:21:11Z</time>
      </trkpt>
      <trkpt lat="49.93242" lon="1.1133">
        <ele>66.5</ele>
        <time>2020-06-18T13:21:12Z</time>
      </trkpt>
      <trkpt lat="49.93248" lon="1.11337">
        <ele>66.3</ele>
        <time>2020-06-18T13:21:13Z</time>
      </trkpt>
      <trkpt lat="49.93253" lon="1.11344">
        <ele>66.1</ele>
        <time>2020-06-18T13:21:14Z</time>
      </trkpt>
      <trkpt lat="49.93258" lon="1.1135">
        <ele>65.8</ele>
        <time>2020-06-18T13:21:15Z</time>
      </trkpt>
      <trkpt lat="49.93263" lon="1.11357">
        <ele>65.6</ele>
        <time>2020-06-18T13:21:16Z</time>
      </trkpt>
      <trkpt lat="49.93268" lon="1.11363">
        <ele>65.3</ele>
        <time>2020-06-18T13:21:17Z</time>
      </trkpt>
      <trkpt lat="49.93273" lon="1.11369">
        <ele>65.1</ele>
        <time>2020-06-18T13:21:18Z</time>
      </trkpt>
      <trkpt lat="49.93278" lon="1.11375">
        <ele>64.8</ele>
        <time>2020-06-18T13:21:19Z</time>
      </trkpt>
      <trkpt lat="49.93284" lon="1.11382">
        <ele>64.5</ele>
        <time>2020-06-18T13:21:20Z</time>
      </trkpt>
      <trkpt lat="49.93289" lon="1.11388">
        <ele>64.2</ele>
        <time>2020-06-18T13:21:21Z</time>
      </trkpt>
      <trkpt lat="49.93295" lon="1.11394">
        <ele>63.9</ele>
        <time>2020-06-18T13:21:22Z</time>
      </trkpt>
      <trkpt lat="49.93301" lon="1.114">
        <ele>63.6</ele>
        <time>2020-06-18T13:21:23Z</time>
      </trkpt>
      <trkpt lat="49.93307" lon="1.11405">
        <ele>63.3</ele>
        <time>2020-06-18T13:21:24Z</time>
      </trkpt>
      <trkpt lat="49.93313" lon="1.11414">
        <ele>62.9</ele>
        <time>2020-06-18T13:21:25Z</time>
      </trkpt>
      <trkpt lat="49.9332" lon="1.1142">
        <ele>62.6</ele>
        <time>2020-06-18T13:21:26Z</time>
      </trkpt>
      <trkpt lat="49.93326" lon="1.11427">
        <ele>62.2</ele>
        <time>2020-06-18T13:21:27Z</time>
      </trkpt>
      <trkpt lat="49.93333" lon="1.11433">
        <ele>61.8</ele>
        <time>2020-06-18T13:21:28Z</time>
      </trkpt>
      <trkpt lat="49.93338" lon="1.1144">
        <ele>61.5</ele>
        <time>2020-06-18T13:21:29Z</time>
      </trkpt>
      <trkpt lat="49.93344" lon="1.11447">
        <ele>61.1</ele>
        <time>2020-06-18T13:21:30Z</time>
      </trkpt>
      <trkpt lat="49.93349" lon="1.11455">
        <ele>60.8</ele>
        <time>2020-06-18T13:21:31Z</time>
      </trkpt>
      <trkpt lat="49.93355" lon="1.11461">
        <ele>60.4</ele>
        <time>2020-06-18T13:21:32Z</time>
      </trkpt>
      <trkpt lat="49.9336" lon="1.11469">
        <ele>60</ele>
        <time>2020-06-18T13:21:33Z</time>
      </trkpt>
      <trkpt lat="49.93365" lon="1.11477">
        <ele>59.5</ele>
        <time>2020-06-18T13:21:34Z</time>
      </trkpt>
      <trkpt lat="49.93369" lon="1.11485">
        <ele>59.1</ele>
        <time>2020-06-18T13:21:35Z</time>
      </trkpt>
      <trkpt lat="49.93372" lon="1.11494">
        <ele>58.7</ele>
        <time>2020-06-18T13:21:36Z</time>
      </trkpt>
      <trkpt lat="49.93375" lon="1.11501">
        <ele>58.4</ele>
        <time>2020-06-18T13:21:37Z</time>
      </trkpt>
      <trkpt lat="49.93378" lon="1.11509">
        <ele>58</ele>
        <time>2020-06-18T13:21:38Z</time>
      </trkpt>
      <trkpt lat="49.9338" lon="1.11517">
        <ele>57.7</ele>
        <time>2020-06-18T13:21:39Z</time>
      </trkpt>
      <trkpt lat="49.93382" lon="1.11525">
        <ele>57.3</ele>
        <time>2020-06-18T13:21:40Z</time>
      </trkpt>
      <trkpt lat="49.93384" lon="1.11533">
        <ele>56.8</ele>
        <time>2020-06-18T13:21:41Z</time>
      </trkpt>
      <trkpt lat="49.93387" lon="1.11541">
        <ele>56.3</ele>
        <time>2020-06-18T13:21:42Z</time>
      </trkpt>
      <trkpt lat="49.9339" lon="1.1155">
        <ele>55.8</ele>
        <time>2020-06-18T13:21:43Z</time>
      </trkpt>
      <trkpt lat="49.93393" lon="1.11558">
        <ele>55.2</ele>
        <time>2020-06-18T13:21:44Z</time>
      </trkpt>
      <trkpt lat="49.93397" lon="1.11566">
        <ele>54.5</ele>
        <time>2020-06-18T13:21:45Z</time>
      </trkpt>
      <trkpt lat="49.93401" lon="1.11573">
        <ele>53.7</ele>
        <time>2020-06-18T13:21:46Z</time>
      </trkpt>
      <trkpt lat="49.93406" lon="1.1158">
        <ele>52.8</ele>
        <time>2020-06-18T13:21:47Z</time>
      </trkpt>
      <trkpt lat="49.9341" lon="1.11587">
        <ele>51.9</ele>
        <time>2020-06-18T13:21:48Z</time>
      </trkpt>
      <trkpt lat="49.93415" lon="1.11594">
        <ele>51.1</ele>
        <time>2020-06-18T13:21:49Z</time>
      </trkpt>
      <trkpt lat="49.9342" lon="1.11599">
        <ele>50.3</ele>
        <time>2020-06-18T13:21:50Z</time>
      </trkpt>
      <trkpt lat="49.93425" lon="1.11605">
        <ele>49.5</ele>
        <time>2020-06-18T13:21:51Z</time>
      </trkpt>
      <trkpt lat="49.9343" lon="1.11611">
        <ele>48.8</ele>
        <time>2020-06-18T13:21:52Z</time>
      </trkpt>
      <trkpt lat="49.93435" lon="1.11617">
        <ele>48.2</ele>
        <time>2020-06-18T13:21:53Z</time>
      </trkpt>
      <trkpt lat="49.93439" lon="1.11624">
        <ele>47.7</ele>
        <time>2020-06-18T13:21:54Z</time>
      </trkpt>
      <trkpt lat="49.93443" lon="1.11631">
        <ele>47.3</ele>
        <time>2020-06-18T13:21:55Z</time>
      </trkpt>
      <trkpt lat="49.93447" lon="1.11637">
        <ele>46.9</ele>
        <time>2020-06-18T13:21:56Z</time>
      </trkpt>
      <trkpt lat="49.9345" lon="1.11643">
        <ele>46.6</ele>
        <time>2020-06-18T13:21:57Z</time>
      </trkpt>
      <trkpt lat="49.93453" lon="1.11649">
        <ele>46.3</ele>
        <time>2020-06-18T13:21:58Z</time>
      </trkpt>
      <trkpt lat="49.93455" lon="1.11654">
        <ele>46.1</ele>
        <time>2020-06-18T13:21:59Z</time>
      </trkpt>
      <trkpt lat="49.93458" lon="1.11657">
        <ele>45.8</ele>
        <time>2020-06-18T13:22:00Z</time>
      </trkpt>
      <trkpt lat="49.93461" lon="1.1166">
        <ele>45.7</ele>
        <time>2020-06-18T13:22:01Z</time>
      </trkpt>
      <trkpt lat="49.93463" lon="1.11664">
        <ele>45.5</ele>
        <time>2020-06-18T13:22:02Z</time>
      </trkpt>
      <trkpt lat="49.93466" lon="1.11667">
        <ele>45.3</ele>
        <time>2020-06-18T13:22:03Z</time>
      </trkpt>
      <trkpt lat="49.93468" lon="1.11671">
        <ele>45</ele>
        <time>2020-06-18T13:22:04Z</time>
      </trkpt>
      <trkpt lat="49.93471" lon="1.11675">
        <ele>44.8</ele>
        <time>2020-06-18T13:22:05Z</time>
      </trkpt>
      <trkpt lat="49.93474" lon="1.11676">
        <ele>44.5</ele>
        <time>2020-06-18T13:22:06Z</time>
      </trkpt>
      <trkpt lat="49.93477" lon="1.11677">
        <ele>44.2</ele>
        <time>2020-06-18T13:22:07Z</time>
      </trkpt>
      <trkpt lat="49.93478" lon="1.11678">
        <ele>44.1</ele>
        <time>2020-06-18T13:22:08Z</time>
      </trkpt>
      <trkpt lat="49.93481" lon="1.11678">
        <ele>43.8</ele>
        <time>2020-06-18T13:22:09Z</time>
      </trkpt>
      <trkpt lat="49.93482" lon="1.11678">
        <ele>43.7</ele>
        <time>2020-06-18T13:22:10Z</time>
      </trkpt>
      <trkpt lat="49.93484" lon="1.11679">
        <ele>43.5</ele>
        <time>2020-06-18T13:22:11Z</time>
      </trkpt>
      <trkpt lat="49.93485" lon="1.1168">
        <ele>43.3</ele>
        <time>2020-06-18T13:22:12Z</time>
      </trkpt>
      <trkpt lat="49.93487" lon="1.11681">
        <ele>43.1</ele>
        <time>2020-06-18T13:22:13Z</time>
      </trkpt>
      <trkpt lat="49.93489" lon="1.1168">
        <ele>42.8</ele>
        <time>2020-06-18T13:22:14Z</time>
      </trkpt>
      <trkpt lat="49.93492" lon="1.11679">
        <ele>42.3</ele>
        <time>2020-06-18T13:22:15Z</time>
      </trkpt>
      <trkpt lat="49.93493" lon="1.11678">
        <ele>42.1</ele>
        <time>2020-06-18T13:22:16Z</time>
      </trkpt>
      <trkpt lat="49.93497" lon="1.11676">
        <ele>41.6</ele>
        <time>2020-06-18T13:22:17Z</time>
      </trkpt>
      <trkpt lat="49.93497" lon="1.11676">
        <ele>41.4</ele>
        <time>2020-06-18T13:22:18Z</time>
      </trkpt>
      <trkpt lat="49.935" lon="1.11673">
        <ele>41</ele>
        <time>2020-06-18T13:22:19Z</time>
      </trkpt>
      <trkpt lat="49.93501" lon="1.11673">
        <ele>40.8</ele>
        <time>2020-06-18T13:22:20Z</time>
      </trkpt>
      <trkpt lat="49.93504" lon="1.11671">
        <ele>40.4</ele>
        <time>2020-06-18T13:22:21Z</time>
      </trkpt>
      <trkpt lat="49.93507" lon="1.1167">
        <ele>39.9</ele>
        <time>2020-06-18T13:22:22Z</time>
      </trkpt>
      <trkpt lat="49.9351" lon="1.11668">
        <ele>39.4</ele>
        <time>2020-06-18T13:22:23Z</time>
      </trkpt>
      <trkpt lat="49.93513" lon="1.11668">
        <ele>39</ele>
        <time>2020-06-18T13:22:24Z</time>
      </trkpt>
      <trkpt lat="49.93516" lon="1.11668">
        <ele>38.6</ele>
        <time>2020-06-18T13:22:25Z</time>
      </trkpt>
      <trkpt lat="49.93519" lon="1.11668">
        <ele>38.1</ele>
        <time>2020-06-18T13:22:26Z</time>
      </trkpt>
      <trkpt lat="49.9352" lon="1.11667">
        <ele>37.9</ele>
        <time>2020-06-18T13:22:27Z</time>
      </trkpt>
      <trkpt lat="49.93523" lon="1.11666">
        <ele>37.5</ele>
        <time>2020-06-18T13:22:28Z</time>
      </trkpt>
      <trkpt lat="49.93526" lon="1.11665">
        <ele>37.1</ele>
        <time>2020-06-18T13:22:29Z</time>
      </trkpt>
      <trkpt lat="49.9353" lon="1.11664">
        <ele>36.6</ele>
        <time>2020-06-18T13:22:30Z</time>
      </trkpt>
      <trkpt lat="49.93532" lon="1.11663">
        <ele>36.4</ele>
        <time>2020-06-18T13:22:31Z</time>
      </trkpt>
      <trkpt lat="49.93535" lon="1.11662">
        <ele>36</ele>
        <time>2020-06-18T13:22:32Z</time>
      </trkpt>
      <trkpt lat="49.93536" lon="1.11662">
        <ele>35.9</ele>
        <time>2020-06-18T13:22:33Z</time>
      </trkpt>
      <trkpt lat="49.93539" lon="1.11661">
        <ele>35.4</ele>
        <time>2020-06-18T13:22:34Z</time>
      </trkpt>
      <trkpt lat="49.93541" lon="1.11661">
        <ele>35.3</ele>
        <time>2020-06-18T13:22:35Z</time>
      </trkpt>
      <trkpt lat="49.93544" lon="1.11662">
        <ele>34.8</ele>
        <time>2020-06-18T13:22:36Z</time>
      </trkpt>
      <trkpt lat="49.93546" lon="1.11663">
        <ele>34.6</ele>
        <time>2020-06-18T13:22:37Z</time>
      </trkpt>
      <trkpt lat="49.93548" lon="1.11666">
        <ele>34.2</ele>
        <time>2020-06-18T13:22:38Z</time>
      </trkpt>
      <trkpt lat="49.93551" lon="1.1167">
        <ele>33.8</ele>
        <time>2020-06-18T13:22:39Z</time>
      </trkpt>
      <trkpt lat="49.93554" lon="1.11675">
        <ele>30</ele>
        <time>2020-06-18T13:22:40Z</time>
      </trkpt>
      <trkpt lat="49.93557" lon="1.11683">
        <ele>29.9</ele>
        <time>2020-06-18T13:22:41Z</time>
      </trkpt>
      <trkpt lat="49.9356" lon="1.1169">
        <ele>29.7</ele>
        <time>2020-06-18T13:22:42Z</time>
      </trkpt>
      <trkpt lat="49.93561" lon="1.11697">
        <ele>29.5</ele>
        <time>2020-06-18T13:22:43Z</time>
      </trkpt>
      <trkpt lat="49.93562" lon="1.11704">
        <ele>29.3</ele>
        <time>2020-06-18T13:22:44Z</time>
      </trkpt>
      <trkpt lat="49.93563" lon="1.11711">
        <ele>29.1</ele>
        <time>2020-06-18T13:22:45Z</time>
      </trkpt>
      <trkpt lat="49.93566" lon="1.11718">
        <ele>28.9</ele>
        <time>2020-06-18T13:22:46Z</time>
      </trkpt>
      <trkpt lat="49.93568" lon="1.11725">
        <ele>28.6</ele>
        <time>2020-06-18T13:22:47Z</time>
      </trkpt>
      <trkpt lat="49.9357" lon="1.11733">
        <ele>28.4</ele>
        <time>2020-06-18T13:22:48Z</time>
      </trkpt>
      <trkpt lat="49.93572" lon="1.11741">
        <ele>28.1</ele>
        <time>2020-06-18T13:22:49Z</time>
      </trkpt>
      <trkpt lat="49.93573" lon="1.11749">
        <ele>27.9</ele>
        <time>2020-06-18T13:22:50Z</time>
      </trkpt>
      <trkpt lat="49.93575" lon="1.11757">
        <ele>27.6</ele>
        <time>2020-06-18T13:22:51Z</time>
      </trkpt>
      <trkpt lat="49.93577" lon="1.11766">
        <ele>27.3</ele>
        <time>2020-06-18T13:22:52Z</time>
      </trkpt>
      <trkpt lat="49.93581" lon="1.11776">
        <ele>27</ele>
        <time>2020-06-18T13:22:53Z</time>
      </trkpt>
      <trkpt lat="49.93584" lon="1.11783">
        <ele>26.7</ele>
        <time>2020-06-18T13:22:54Z</time>
      </trkpt>
      <trkpt lat="49.93588" lon="1.11789">
        <ele>26.5</ele>
        <time>2020-06-18T13:22:55Z</time>
      </trkpt>
      <trkpt lat="49.93592" lon="1.11795">
        <ele>26.3</ele>
        <time>2020-06-18T13:22:56Z</time>
      </trkpt>
      <trkpt lat="49.93597" lon="1.11799">
        <ele>26.1</ele>
        <time>2020-06-18T13:22:57Z</time>
      </trkpt>
      <trkpt lat="49.93603" lon="1.11804">
        <ele>25.8</ele>
        <time>2020-06-18T13:22:58Z</time>
      </trkpt>
      <trkpt lat="49.93609" lon="1.11808">
        <ele>25.6</ele>
        <time>2020-06-18T13:22:59Z</time>
      </trkpt>
      <trkpt lat="49.93614" lon="1.1181">
        <ele>25.3</ele>
        <time>2020-06-18T13:23:00Z</time>
      </trkpt>
      <trkpt lat="49.93619" lon="1.1181">
        <ele>25.2</ele>
        <time>2020-06-18T13:23:01Z</time>
      </trkpt>
      <trkpt lat="49.93625" lon="1.11811">
        <ele>24.9</ele>
        <time>2020-06-18T13:23:02Z</time>
      </trkpt>
      <trkpt lat="49.9363" lon="1.11811">
        <ele>24.7</ele>
        <time>2020-06-18T13:23:03Z</time>
      </trkpt>
      <trkpt lat="49.93636" lon="1.11813">
        <ele>24.5</ele>
        <time>2020-06-18T13:23:04Z</time>
      </trkpt>
      <trkpt lat="49.93641" lon="1.11813">
        <ele>24.3</ele>
        <time>2020-06-18T13:23:05Z</time>
      </trkpt>
      <trkpt lat="49.93647" lon="1.11813">
        <ele>24</ele>
        <time>2020-06-18T13:23:06Z</time>
      </trkpt>
      <trkpt lat="49.93653" lon="1.11813">
        <ele>23.8</ele>
        <time>2020-06-18T13:23:07Z</time>
      </trkpt>
      <trkpt lat="49.93659" lon="1.11813">
        <ele>23.5</ele>
        <time>2020-06-18T13:23:08Z</time>
      </trkpt>
      <trkpt lat="49.93664" lon="1.11814">
        <ele>23.3</ele>
        <time>2020-06-18T13:23:09Z</time>
      </trkpt>
      <trkpt lat="49.93669" lon="1.11815">
        <ele>23.1</ele>
        <time>2020-06-18T13:23:10Z</time>
      </trkpt>
      <trkpt lat="49.93674" lon="1.11816">
        <ele>22.9</ele>
        <time>2020-06-18T13:23:11Z</time>
      </trkpt>
      <trkpt lat="49.9368" lon="1.11817">
        <ele>22.7</ele>
        <time>2020-06-18T13:23:12Z</time>
      </trkpt>
      <trkpt lat="49.93687" lon="1.11818">
        <ele>22.4</ele>
        <time>2020-06-18T13:23:13Z</time>
      </trkpt>
      <trkpt lat="49.93693" lon="1.11818">
        <ele>22.3</ele>
        <time>2020-06-18T13:23:14Z</time>
      </trkpt>
      <trkpt lat="49.93699" lon="1.11819">
        <ele>22.1</ele>
        <time>2020-06-18T13:23:15Z</time>
      </trkpt>
      <trkpt lat="49.93704" lon="1.1182">
        <ele>22</ele>
        <time>2020-06-18T13:23:16Z</time>
      </trkpt>
      <trkpt lat="49.93709" lon="1.11821">
        <ele>21.8</ele>
        <time>2020-06-18T13:23:17Z</time>
      </trkpt>
      <trkpt lat="49.93714" lon="1.11824">
        <ele>21.7</ele>
        <time>2020-06-18T13:23:18Z</time>
      </trkpt>
      <trkpt lat="49.93719" lon="1.11828">
        <ele>21.7</ele>
        <time>2020-06-18T13:23:19Z</time>
      </trkpt>
      <trkpt lat="49.93724" lon="1.11833">
        <ele>21.6</ele>
        <time>2020-06-18T13:23:20Z</time>
      </trkpt>
      <trkpt lat="49.93728" lon="1.11838">
        <ele>21.4</ele>
        <time>2020-06-18T13:23:21Z</time>
      </trkpt>
      <trkpt lat="49.9373" lon="1.11845">
        <ele>21.4</ele>
        <time>2020-06-18T13:23:22Z</time>
      </trkpt>
      <trkpt lat="49.93732" lon="1.11851">
        <ele>21.4</ele>
        <time>2020-06-18T13:23:23Z</time>
      </trkpt>
      <trkpt lat="49.93734" lon="1.11857">
        <ele>21.4</ele>
        <time>2020-06-18T13:23:24Z</time>
      </trkpt>
      <trkpt lat="49.93736" lon="1.11863">
        <ele>21.4</ele>
        <time>2020-06-18T13:23:25Z</time>
      </trkpt>
      <trkpt lat="49.93738" lon="1.1187">
        <ele>21.4</ele>
        <time>2020-06-18T13:23:26Z</time>
      </trkpt>
      <trkpt lat="49.93739" lon="1.11877">
        <ele>21.4</ele>
        <time>2020-06-18T13:23:27Z</time>
      </trkpt>
      <trkpt lat="49.93741" lon="1.11884">
        <ele>21.5</ele>
        <time>2020-06-18T13:23:28Z</time>
      </trkpt>
      <trkpt lat="49.93742" lon="1.11893">
        <ele>21.5</ele>
        <time>2020-06-18T13:23:29Z</time>
      </trkpt>
      <trkpt lat="49.93744" lon="1.119">
        <ele>21.6</ele>
        <time>2020-06-18T13:23:30Z</time>
      </trkpt>
      <trkpt lat="49.93746" lon="1.11908">
        <ele>21.6</ele>
        <time>2020-06-18T13:23:31Z</time>
      </trkpt>
      <trkpt lat="49.93747" lon="1.11914">
        <ele>21.6</ele>
        <time>2020-06-18T13:23:32Z</time>
      </trkpt>
      <trkpt lat="49.93749" lon="1.11921">
        <ele>21.7</ele>
        <time>2020-06-18T13:23:33Z</time>
      </trkpt>
      <trkpt lat="49.9375" lon="1.11928">
        <ele>21.7</ele>
        <time>2020-06-18T13:23:34Z</time>
      </trkpt>
      <trkpt lat="49.93748" lon="1.11933">
        <ele>21.8</ele>
        <time>2020-06-18T13:23:35Z</time>
      </trkpt>
      <trkpt lat="49.93749" lon="1.1194">
        <ele>21.9</ele>
        <time>2020-06-18T13:23:36Z</time>
      </trkpt>
      <trkpt lat="49.9375" lon="1.11948">
        <ele>22</ele>
        <time>2020-06-18T13:23:37Z</time>
      </trkpt>
      <trkpt lat="49.93751" lon="1.11955">
        <ele>22</ele>
        <time>2020-06-18T13:23:38Z</time>
      </trkpt>
      <trkpt lat="49.93752" lon="1.11962">
        <ele>22.1</ele>
        <time>2020-06-18T13:23:39Z</time>
      </trkpt>
      <trkpt lat="49.93753" lon="1.11968">
        <ele>22.3</ele>
        <time>2020-06-18T13:23:40Z</time>
      </trkpt>
      <trkpt lat="49.93754" lon="1.11976">
        <ele>22.4</ele>
        <time>2020-06-18T13:23:41Z</time>
      </trkpt>
      <trkpt lat="49.93755" lon="1.11984">
        <ele>22.5</ele>
        <time>2020-06-18T13:23:42Z</time>
      </trkpt>
      <trkpt lat="49.93755" lon="1.11992">
        <ele>22.6</ele>
        <time>2020-06-18T13:23:43Z</time>
      </trkpt>
      <trkpt lat="49.93756" lon="1.11999">
        <ele>22.7</ele>
        <time>2020-06-18T13:23:44Z</time>
      </trkpt>
      <trkpt lat="49.93756" lon="1.12005">
        <ele>22.9</ele>
        <time>2020-06-18T13:23:45Z</time>
      </trkpt>
      <trkpt lat="49.93755" lon="1.12013">
        <ele>22.9</ele>
        <time>2020-06-18T13:23:46Z</time>
      </trkpt>
      <trkpt lat="49.93756" lon="1.1202">
        <ele>23</ele>
        <time>2020-06-18T13:23:47Z</time>
      </trkpt>
      <trkpt lat="49.93756" lon="1.12026">
        <ele>23.1</ele>
        <time>2020-06-18T13:23:48Z</time>
      </trkpt>
      <trkpt lat="49.93755" lon="1.12032">
        <ele>23.1</ele>
        <time>2020-06-18T13:23:49Z</time>
      </trkpt>
      <trkpt lat="49.93755" lon="1.12039">
        <ele>23.2</ele>
        <time>2020-06-18T13:23:50Z</time>
      </trkpt>
      <trkpt lat="49.93754" lon="1.12045">
        <ele>23.2</ele>
        <time>2020-06-18T13:23:51Z</time>
      </trkpt>
      <trkpt lat="49.93753" lon="1.12051">
        <ele>23.3</ele>
        <time>2020-06-18T13:23:52Z</time>
      </trkpt>
      <trkpt lat="49.93752" lon="1.12058">
        <ele>23.3</ele>
        <time>2020-06-18T13:23:53Z</time>
      </trkpt>
      <trkpt lat="49.93751" lon="1.12065">
        <ele>23.4</ele>
        <time>2020-06-18T13:23:54Z</time>
      </trkpt>
      <trkpt lat="49.9375" lon="1.12072">
        <ele>23.5</ele>
        <time>2020-06-18T13:23:55Z</time>
      </trkpt>
      <trkpt lat="49.9375" lon="1.12079">
        <ele>23.5</ele>
        <time>2020-06-18T13:23:56Z</time>
      </trkpt>
      <trkpt lat="49.93749" lon="1.12085">
        <ele>23.6</ele>
        <time>2020-06-18T13:23:57Z</time>
      </trkpt>
      <trkpt lat="49.93747" lon="1.12092">
        <ele>23.7</ele>
        <time>2020-06-18T13:23:58Z</time>
      </trkpt>
      <trkpt lat="49.93749" lon="1.12097">
        <ele>23.8</ele>
        <time>2020-06-18T13:23:59Z</time>
      </trkpt>
      <trkpt lat="49.93749" lon="1.12103">
        <ele>23.9</ele>
        <time>2020-06-18T13:24:00Z</time>
      </trkpt>
      <trkpt lat="49.93749" lon="1.1211">
        <ele>24</ele>
        <time>2020-06-18T13:24:01Z</time>
      </trkpt>
      <trkpt lat="49.93748" lon="1.12117">
        <ele>24.1</ele>
        <time>2020-06-18T13:24:02Z</time>
      </trkpt>
      <trkpt lat="49.93747" lon="1.12124">
        <ele>24.1</ele>
        <time>2020-06-18T13:24:03Z</time>
      </trkpt>
      <trkpt lat="49.93747" lon="1.1213">
        <ele>24.2</ele>
        <time>2020-06-18T13:24:04Z</time>
      </trkpt>
      <trkpt lat="49.93746" lon="1.12137">
        <ele>24.3</ele>
        <time>2020-06-18T13:24:05Z</time>
      </trkpt>
      <trkpt lat="49.93746" lon="1.12142">
        <ele>24.4</ele>
        <time>2020-06-18T13:24:06Z</time>
      </trkpt>
      <trkpt lat="49.93746" lon="1.12149">
        <ele>24.5</ele>
        <time>2020-06-18T13:24:07Z</time>
      </trkpt>
      <trkpt lat="49.93745" lon="1.12156">
        <ele>24.6</ele>
        <time>2020-06-18T13:24:08Z</time>
      </trkpt>
      <trkpt lat="49.93745" lon="1.12163">
        <ele>24.7</ele>
        <time>2020-06-18T13:24:09Z</time>
      </trkpt>
      <trkpt lat="49.93745" lon="1.12169">
        <ele>24.8</ele>
        <time>2020-06-18T13:24:10Z</time>
      </trkpt>
      <trkpt lat="49.93745" lon="1.12174">
        <ele>24.9</ele>
        <time>2020-06-18T13:24:11Z</time>
      </trkpt>
      <trkpt lat="49.93745" lon="1.1218">
        <ele>25</ele>
        <time>2020-06-18T13:24:12Z</time>
      </trkpt>
      <trkpt lat="49.93745" lon="1.12186">
        <ele>25.1</ele>
        <time>2020-06-18T13:24:13Z</time>
      </trkpt>
      <trkpt lat="49.93745" lon="1.12193">
        <ele>25.2</ele>
        <time>2020-06-18T13:24:14Z</time>
      </trkpt>
      <trkpt lat="49.93746" lon="1.12199">
        <ele>25.2</ele>
        <time>2020-06-18T13:24:15Z</time>
      </trkpt>
      <trkpt lat="49.93746" lon="1.12204">
        <ele>25.3</ele>
        <time>2020-06-18T13:24:16Z</time>
      </trkpt>
      <trkpt lat="49.93746" lon="1.12209">
        <ele>25.4</ele>
        <time>2020-06-18T13:24:17Z</time>
      </trkpt>
      <trkpt lat="49.93746" lon="1.12215">
        <ele>25.5</ele>
        <time>2020-06-18T13:24:18Z</time>
      </trkpt>
      <trkpt lat="49.93747" lon="1.12222">
        <ele>25.6</ele>
        <time>2020-06-18T13:24:19Z</time>
      </trkpt>
      <trkpt lat="49.93747" lon="1.12229">
        <ele>25.6</ele>
        <time>2020-06-18T13:24:20Z</time>
      </trkpt>
      <trkpt lat="49.93747" lon="1.12235">
        <ele>25.7</ele>
        <time>2020-06-18T13:24:21Z</time>
      </trkpt>
      <trkpt lat="49.93746" lon="1.12243">
        <ele>25.8</ele>
        <time>2020-06-18T13:24:22Z</time>
      </trkpt>
      <trkpt lat="49.93746" lon="1.12251">
        <ele>25.9</ele>
        <time>2020-06-18T13:24:23Z</time>
      </trkpt>
      <trkpt lat="49.93746" lon="1.12258">
        <ele>26.1</ele>
        <time>2020-06-18T13:24:24Z</time>
      </trkpt>
      <trkpt lat="49.93745" lon="1.12266">
        <ele>26.2</ele>
        <time>2020-06-18T13:24:25Z</time>
      </trkpt>
      <trkpt lat="49.93744" lon="1.12275">
        <ele>26.3</ele>
        <time>2020-06-18T13:24:26Z</time>
      </trkpt>
      <trkpt lat="49.93743" lon="1.12282">
        <ele>26.4</ele>
        <time>2020-06-18T13:24:27Z</time>
      </trkpt>
      <trkpt lat="49.93743" lon="1.12289">
        <ele>26.5</ele>
        <time>2020-06-18T13:24:28Z</time>
      </trkpt>
      <trkpt lat="49.93743" lon="1.12296">
        <ele>26.6</ele>
        <time>2020-06-18T13:24:29Z</time>
      </trkpt>
      <trkpt lat="49.93742" lon="1.12305">
        <ele>26.7</ele>
        <time>2020-06-18T13:24:30Z</time>
      </trkpt>
      <trkpt lat="49.93742" lon="1.12313">
        <ele>26.8</ele>
        <time>2020-06-18T13:24:31Z</time>
      </trkpt>
      <trkpt lat="49.93742" lon="1.12319">
        <ele>26.9</ele>
        <time>2020-06-18T13:24:32Z</time>
      </trkpt>
      <trkpt lat="49.93741" lon="1.12326">
        <ele>27</ele>
        <time>2020-06-18T13:24:33Z</time>
      </trkpt>
      <trkpt lat="49.93741" lon="1.12334">
        <ele>27.1</ele>
        <time>2020-06-18T13:24:34Z</time>
      </trkpt>
      <trkpt lat="49.93742" lon="1.12342">
        <ele>27.2</ele>
        <time>2020-06-18T13:24:35Z</time>
      </trkpt>
      <trkpt lat="49.93742" lon="1.1235">
        <ele>27.3</ele>
        <time>2020-06-18T13:24:36Z</time>
      </trkpt>
      <trkpt lat="49.93741" lon="1.12359">
        <ele>27.4</ele>
        <time>2020-06-18T13:24:37Z</time>
      </trkpt>
      <trkpt lat="49.93741" lon="1.12367">
        <ele>27.5</ele>
        <time>2020-06-18T13:24:38Z</time>
      </trkpt>
      <trkpt lat="49.93741" lon="1.12376">
        <ele>27.7</ele>
        <time>2020-06-18T13:24:39Z</time>
      </trkpt>
      <trkpt lat="49.93741" lon="1.12384">
        <ele>27.8</ele>
        <time>2020-06-18T13:24:40Z</time>
      </trkpt>
      <trkpt lat="49.93741" lon="1.12392">
        <ele>28</ele>
        <time>2020-06-18T13:24:41Z</time>
      </trkpt>
      <trkpt lat="49.93741" lon="1.124">
        <ele>28.1</ele>
        <time>2020-06-18T13:24:42Z</time>
      </trkpt>
      <trkpt lat="49.93742" lon="1.12408">
        <ele>28.1</ele>
        <time>2020-06-18T13:24:43Z</time>
      </trkpt>
      <trkpt lat="49.93744" lon="1.12415">
        <ele>28.2</ele>
        <time>2020-06-18T13:24:44Z</time>
      </trkpt>
      <trkpt lat="49.93746" lon="1.12422">
        <ele>28.2</ele>
        <time>2020-06-18T13:24:45Z</time>
      </trkpt>
      <trkpt lat="49.93747" lon="1.12428">
        <ele>28.3</ele>
        <time>2020-06-18T13:24:46Z</time>
      </trkpt>
      <trkpt lat="49.93748" lon="1.12435">
        <ele>28.3</ele>
        <time>2020-06-18T13:24:47Z</time>
      </trkpt>
      <trkpt lat="49.93749" lon="1.12442">
        <ele>28.4</ele>
        <time>2020-06-18T13:24:48Z</time>
      </trkpt>
      <trkpt lat="49.93751" lon="1.12448">
        <ele>28.4</ele>
        <time>2020-06-18T13:24:49Z</time>
      </trkpt>
      <trkpt lat="49.93752" lon="1.12455">
        <ele>28.4</ele>
        <time>2020-06-18T13:24:50Z</time>
      </trkpt>
      <trkpt lat="49.93754" lon="1.12462">
        <ele>28.5</ele>
        <time>2020-06-18T13:24:51Z</time>
      </trkpt>
      <trkpt lat="49.93756" lon="1.12469">
        <ele>28.5</ele>
        <time>2020-06-18T13:24:52Z</time>
      </trkpt>
      <trkpt lat="49.93756" lon="1.12477">
        <ele>28.5</ele>
        <time>2020-06-18T13:24:53Z</time>
      </trkpt>
      <trkpt lat="49.93758" lon="1.12485">
        <ele>28.6</ele>
        <time>2020-06-18T13:24:54Z</time>
      </trkpt>
      <trkpt lat="49.93758" lon="1.12492">
        <ele>28.6</ele>
        <time>2020-06-18T13:24:55Z</time>
      </trkpt>
      <trkpt lat="49.93759" lon="1.125">
        <ele>28.7</ele>
        <time>2020-06-18T13:24:56Z</time>
      </trkpt>
      <trkpt lat="49.9376" lon="1.12508">
        <ele>28.7</ele>
        <time>2020-06-18T13:24:57Z</time>
      </trkpt>
      <trkpt lat="49.93761" lon="1.12516">
        <ele>28.7</ele>
        <time>2020-06-18T13:24:58Z</time>
      </trkpt>
      <trkpt lat="49.93761" lon="1.12523">
        <ele>28.8</ele>
        <time>2020-06-18T13:24:59Z</time>
      </trkpt>
      <trkpt lat="49.93762" lon="1.12531">
        <ele>28.9</ele>
        <time>2020-06-18T13:25:00Z</time>
      </trkpt>
      <trkpt lat="49.93765" lon="1.12538">
        <ele>29</ele>
        <time>2020-06-18T13:25:01Z</time>
      </trkpt>
      <trkpt lat="49.93767" lon="1.12545">
        <ele>29.1</ele>
        <time>2020-06-18T13:25:02Z</time>
      </trkpt>
      <trkpt lat="49.93768" lon="1.12553">
        <ele>29.2</ele>
        <time>2020-06-18T13:25:03Z</time>
      </trkpt>
      <trkpt lat="49.9377" lon="1.12559">
        <ele>29.2</ele>
        <time>2020-06-18T13:25:04Z</time>
      </trkpt>
      <trkpt lat="49.93772" lon="1.12567">
        <ele>29.3</ele>
        <time>2020-06-18T13:25:05Z</time>
      </trkpt>
      <trkpt lat="49.93773" lon="1.12574">
        <ele>29.3</ele>
        <time>2020-06-18T13:25:06Z</time>
      </trkpt>
      <trkpt lat="49.93775" lon="1.12582">
        <ele>29.4</ele>
        <time>2020-06-18T13:25:07Z</time>
      </trkpt>
      <trkpt lat="49.93777" lon="1.12589">
        <ele>29.5</ele>
        <time>2020-06-18T13:25:08Z</time>
      </trkpt>
      <trkpt lat="49.93779" lon="1.12598">
        <ele>29.5</ele>
        <time>2020-06-18T13:25:09Z</time>
      </trkpt>
      <trkpt lat="49.93781" lon="1.12606">
        <ele>29.6</ele>
        <time>2020-06-18T13:25:10Z</time>
      </trkpt>
      <trkpt lat="49.93783" lon="1.12613">
        <ele>29.7</ele>
        <time>2020-06-18T13:25:11Z</time>
      </trkpt>
      <trkpt lat="49.93785" lon="1.12621">
        <ele>29.8</ele>
        <time>2020-06-18T13:25:12Z</time>
      </trkpt>
      <trkpt lat="49.93786" lon="1.12629">
        <ele>29.8</ele>
        <time>2020-06-18T13:25:13Z</time>
      </trkpt>
      <trkpt lat="49.93787" lon="1.12636">
        <ele>29.9</ele>
        <time>2020-06-18T13:25:14Z</time>
      </trkpt>
      <trkpt lat="49.93789" lon="1.12643">
        <ele>29.9</ele>
        <time>2020-06-18T13:25:15Z</time>
      </trkpt>
      <trkpt lat="49.93791" lon="1.1265">
        <ele>30</ele>
        <time>2020-06-18T13:25:16Z</time>
      </trkpt>
      <trkpt lat="49.93794" lon="1.12655">
        <ele>30.1</ele>
        <time>2020-06-18T13:25:17Z</time>
      </trkpt>
      <trkpt lat="49.93796" lon="1.12661">
        <ele>30.1</ele>
        <time>2020-06-18T13:25:18Z</time>
      </trkpt>
      <trkpt lat="49.93799" lon="1.12667">
        <ele>30.2</ele>
        <time>2020-06-18T13:25:19Z</time>
      </trkpt>
      <trkpt lat="49.93802" lon="1.12673">
        <ele>30.3</ele>
        <time>2020-06-18T13:25:20Z</time>
      </trkpt>
      <trkpt lat="49.93805" lon="1.12679">
        <ele>30.4</ele>
        <time>2020-06-18T13:25:21Z</time>
      </trkpt>
      <trkpt lat="49.93809" lon="1.12685">
        <ele>30.5</ele>
        <time>2020-06-18T13:25:22Z</time>
      </trkpt>
      <trkpt lat="49.93813" lon="1.12691">
        <ele>30.6</ele>
        <time>2020-06-18T13:25:23Z</time>
      </trkpt>
      <trkpt lat="49.93818" lon="1.12695">
        <ele>30.7</ele>
        <time>2020-06-18T13:25:24Z</time>
      </trkpt>
      <trkpt lat="49.93822" lon="1.12698">
        <ele>30.8</ele>
        <time>2020-06-18T13:25:25Z</time>
      </trkpt>
      <trkpt lat="49.93826" lon="1.12702">
        <ele>31</ele>
        <time>2020-06-18T13:25:26Z</time>
      </trkpt>
      <trkpt lat="49.93829" lon="1.12706">
        <ele>31.1</ele>
        <time>2020-06-18T13:25:27Z</time>
      </trkpt>
      <trkpt lat="49.93833" lon="1.12711">
        <ele>31.3</ele>
        <time>2020-06-18T13:25:28Z</time>
      </trkpt>
      <trkpt lat="49.93837" lon="1.12714">
        <ele>31.4</ele>
        <time>2020-06-18T13:25:29Z</time>
      </trkpt>
      <trkpt lat="49.93841" lon="1.12715">
        <ele>31.6</ele>
        <time>2020-06-18T13:25:30Z</time>
      </trkpt>
      <trkpt lat="49.93844" lon="1.12716">
        <ele>31.7</ele>
        <time>2020-06-18T13:25:31Z</time>
      </trkpt>
      <trkpt lat="49.93848" lon="1.12717">
        <ele>31.8</ele>
        <time>2020-06-18T13:25:32Z</time>
      </trkpt>
      <trkpt lat="49.93851" lon="1.12717">
        <ele>32</ele>
        <time>2020-06-18T13:25:33Z</time>
      </trkpt>
      <trkpt lat="49.93854" lon="1.12718">
        <ele>32.1</ele>
        <time>2020-06-18T13:25:34Z</time>
      </trkpt>
      <trkpt lat="49.93858" lon="1.1272">
        <ele>32.2</ele>
        <time>2020-06-18T13:25:35Z</time>
      </trkpt>
      <trkpt lat="49.93861" lon="1.12722">
        <ele>32.5</ele>
        <time>2020-06-18T13:25:36Z</time>
      </trkpt>
      <trkpt lat="49.93864" lon="1.12725">
        <ele>32.7</ele>
        <time>2020-06-18T13:25:37Z</time>
      </trkpt>
      <trkpt lat="49.93866" lon="1.12728">
        <ele>32.9</ele>
        <time>2020-06-18T13:25:38Z</time>
      </trkpt>
      <trkpt lat="49.9387" lon="1.12732">
        <ele>33.1</ele>
        <time>2020-06-18T13:25:39Z</time>
      </trkpt>
      <trkpt lat="49.93871" lon="1.12733">
        <ele>33.2</ele>
        <time>2020-06-18T13:25:40Z</time>
      </trkpt>
      <trkpt lat="49.93874" lon="1.12737">
        <ele>33.4</ele>
        <time>2020-06-18T13:25:41Z</time>
      </trkpt>
      <trkpt lat="49.93874" lon="1.12739">
        <ele>33.4</ele>
        <time>2020-06-18T13:25:42Z</time>
      </trkpt>
      <trkpt lat="49.93877" lon="1.12745">
        <ele>33.6</ele>
        <time>2020-06-18T13:25:43Z</time>
      </trkpt>
      <trkpt lat="49.93879" lon="1.12749">
        <ele>33.8</ele>
        <time>2020-06-18T13:25:44Z</time>
      </trkpt>
      <trkpt lat="49.93881" lon="1.12753">
        <ele>34</ele>
        <time>2020-06-18T13:25:45Z</time>
      </trkpt>
      <trkpt lat="49.93882" lon="1.12757">
        <ele>34.1</ele>
        <time>2020-06-18T13:25:46Z</time>
      </trkpt>
      <trkpt lat="49.93884" lon="1.12762">
        <ele>34.3</ele>
        <time>2020-06-18T13:25:47Z</time>
      </trkpt>
      <trkpt lat="49.93885" lon="1.12767">
        <ele>34.5</ele>
        <time>2020-06-18T13:25:48Z</time>
      </trkpt>
      <trkpt lat="49.93886" lon="1.12771">
        <ele>34.6</ele>
        <time>2020-06-18T13:25:49Z</time>
      </trkpt>
      <trkpt lat="49.93888" lon="1.12777">
        <ele>34.8</ele>
        <time>2020-06-18T13:25:50Z</time>
      </trkpt>
      <trkpt lat="49.93888" lon="1.12779">
        <ele>34.9</ele>
        <time>2020-06-18T13:25:51Z</time>
      </trkpt>
      <trkpt lat="49.9389" lon="1.12783">
        <ele>35.1</ele>
        <time>2020-06-18T13:25:52Z</time>
      </trkpt>
      <trkpt lat="49.93891" lon="1.12787">
        <ele>35.2</ele>
        <time>2020-06-18T13:25:53Z</time>
      </trkpt>
      <trkpt lat="49.93893" lon="1.12793">
        <ele>35.4</ele>
        <time>2020-06-18T13:25:54Z</time>
      </trkpt>
      <trkpt lat="49.93893" lon="1.12795">
        <ele>35.4</ele>
        <time>2020-06-18T13:25:55Z</time>
      </trkpt>
      <trkpt lat="49.93894" lon="1.12799">
        <ele>35.6</ele>
        <time>2020-06-18T13:25:56Z</time>
      </trkpt>
      <trkpt lat="49.93895" lon="1.12804">
        <ele>35.7</ele>
        <time>2020-06-18T13:25:57Z</time>
      </trkpt>
      <trkpt lat="49.93896" lon="1.1281">
        <ele>35.9</ele>
        <time>2020-06-18T13:25:58Z</time>
      </trkpt>
      <trkpt lat="49.93895" lon="1.12814">
        <ele>36</ele>
        <time>2020-06-18T13:25:59Z</time>
      </trkpt>
      <trkpt lat="49.93893" lon="1.12822">
        <ele>36.2</ele>
        <time>2020-06-18T13:26:00Z</time>
      </trkpt>
      <trkpt lat="49.93892" lon="1.12829">
        <ele>36.4</ele>
        <time>2020-06-18T13:26:01Z</time>
      </trkpt>
      <trkpt lat="49.93892" lon="1.12835">
        <ele>36.6</ele>
        <time>2020-06-18T13:26:02Z</time>
      </trkpt>
      <trkpt lat="49.93893" lon="1.1284">
        <ele>36.7</ele>
        <time>2020-06-18T13:26:03Z</time>
      </trkpt>
      <trkpt lat="49.93893" lon="1.12845">
        <ele>36.9</ele>
        <time>2020-06-18T13:26:04Z</time>
      </trkpt>
      <trkpt lat="49.93893" lon="1.1285">
        <ele>37</ele>
        <time>2020-06-18T13:26:05Z</time>
      </trkpt>
      <trkpt lat="49.93893" lon="1.12857">
        <ele>37.2</ele>
        <time>2020-06-18T13:26:06Z</time>
      </trkpt>
      <trkpt lat="49.93893" lon="1.12862">
        <ele>37.4</ele>
        <time>2020-06-18T13:26:07Z</time>
      </trkpt>
      <trkpt lat="49.93894" lon="1.12867">
        <ele>37.5</ele>
        <time>2020-06-18T13:26:08Z</time>
      </trkpt>
      <trkpt lat="49.93894" lon="1.12872">
        <ele>37.7</ele>
        <time>2020-06-18T13:26:09Z</time>
      </trkpt>
      <trkpt lat="49.93895" lon="1.12878">
        <ele>37.9</ele>
        <time>2020-06-18T13:26:10Z</time>
      </trkpt>
      <trkpt lat="49.93894" lon="1.12885">
        <ele>38.2</ele>
        <time>2020-06-18T13:26:11Z</time>
      </trkpt>
      <trkpt lat="49.93894" lon="1.12892">
        <ele>38.4</ele>
        <time>2020-06-18T13:26:12Z</time>
      </trkpt>
      <trkpt lat="49.93894" lon="1.12897">
        <ele>38.5</ele>
        <time>2020-06-18T13:26:13Z</time>
      </trkpt>
      <trkpt lat="49.93894" lon="1.12901">
        <ele>38.7</ele>
        <time>2020-06-18T13:26:14Z</time>
      </trkpt>
      <trkpt lat="49.93894" lon="1.12907">
        <ele>38.8</ele>
        <time>2020-06-18T13:26:15Z</time>
      </trkpt>
      <trkpt lat="49.93893" lon="1.12912">
        <ele>39</ele>
        <time>2020-06-18T13:26:16Z</time>
      </trkpt>
      <trkpt lat="49.93893" lon="1.12918">
        <ele>39.2</ele>
        <time>2020-06-18T13:26:17Z</time>
      </trkpt>
      <trkpt lat="49.93893" lon="1.12924">
        <ele>39.3</ele>
        <time>2020-06-18T13:26:18Z</time>
      </trkpt>
      <trkpt lat="49.93893" lon="1.1293">
        <ele>39.5</ele>
        <time>2020-06-18T13:26:19Z</time>
      </trkpt>
      <trkpt lat="49.93893" lon="1.12935">
        <ele>39.7</ele>
        <time>2020-06-18T13:26:20Z</time>
      </trkpt>
      <trkpt lat="49.93893" lon="1.1294">
        <ele>39.8</ele>
        <time>2020-06-18T13:26:21Z</time>
      </trkpt>
      <trkpt lat="49.93894" lon="1.12945">
        <ele>40</ele>
        <time>2020-06-18T13:26:22Z</time>
      </trkpt>
      <trkpt lat="49.93893" lon="1.12951">
        <ele>40.1</ele>
        <time>2020-06-18T13:26:23Z</time>
      </trkpt>
      <trkpt lat="49.93893" lon="1.12956">
        <ele>40.3</ele>
        <time>2020-06-18T13:26:24Z</time>
      </trkpt>
      <trkpt lat="49.93893" lon="1.12961">
        <ele>40.4</ele>
        <time>2020-06-18T13:26:25Z</time>
      </trkpt>
      <trkpt lat="49.93893" lon="1.12967">
        <ele>40.6</ele>
        <time>2020-06-18T13:26:26Z</time>
      </trkpt>
      <trkpt lat="49.93893" lon="1.12973">
        <ele>40.8</ele>
        <time>2020-06-18T13:26:27Z</time>
      </trkpt>
      <trkpt lat="49.93894" lon="1.12979">
        <ele>41</ele>
        <time>2020-06-18T13:26:28Z</time>
      </trkpt>
      <trkpt lat="49.93894" lon="1.12984">
        <ele>41.1</ele>
        <time>2020-06-18T13:26:29Z</time>
      </trkpt>
      <trkpt lat="49.93895" lon="1.12989">
        <ele>41.3</ele>
        <time>2020-06-18T13:26:30Z</time>
      </trkpt>
      <trkpt lat="49.93895" lon="1.12993">
        <ele>41.5</ele>
        <time>2020-06-18T13:26:31Z</time>
      </trkpt>
      <trkpt lat="49.93894" lon="1.12998">
        <ele>41.6</ele>
        <time>2020-06-18T13:26:32Z</time>
      </trkpt>
      <trkpt lat="49.93894" lon="1.13003">
        <ele>41.8</ele>
        <time>2020-06-18T13:26:33Z</time>
      </trkpt>
      <trkpt lat="49.93893" lon="1.13009">
        <ele>42</ele>
        <time>2020-06-18T13:26:34Z</time>
      </trkpt>
      <trkpt lat="49.93893" lon="1.13014">
        <ele>42.2</ele>
        <time>2020-06-18T13:26:35Z</time>
      </trkpt>
      <trkpt lat="49.93894" lon="1.13019">
        <ele>42.4</ele>
        <time>2020-06-18T13:26:36Z</time>
      </trkpt>
      <trkpt lat="49.93895" lon="1.13024">
        <ele>42.5</ele>
        <time>2020-06-18T13:26:37Z</time>
      </trkpt>
      <trkpt lat="49.93895" lon="1.13029">
        <ele>42.7</ele>
        <time>2020-06-18T13:26:38Z</time>
      </trkpt>
      <trkpt lat="49.93895" lon="1.13034">
        <ele>42.9</ele>
        <time>2020-06-18T13:26:39Z</time>
      </trkpt>
      <trkpt lat="49.93894" lon="1.13039">
        <ele>43.1</ele>
        <time>2020-06-18T13:26:40Z</time>
      </trkpt>
      <trkpt lat="49.93895" lon="1.13045">
        <ele>43.2</ele>
        <time>2020-06-18T13:26:41Z</time>
      </trkpt>
      <trkpt lat="49.93895" lon="1.13051">
        <ele>43.4</ele>
        <time>2020-06-18T13:26:42Z</time>
      </trkpt>
      <trkpt lat="49.93895" lon="1.13057">
        <ele>43.6</ele>
        <time>2020-06-18T13:26:43Z</time>
      </trkpt>
      <trkpt lat="49.93895" lon="1.13063">
        <ele>43.8</ele>
        <time>2020-06-18T13:26:44Z</time>
      </trkpt>
      <trkpt lat="49.93896" lon="1.13068">
        <ele>44</ele>
        <time>2020-06-18T13:26:45Z</time>
      </trkpt>
      <trkpt lat="49.93897" lon="1.13074">
        <ele>44.2</ele>
        <time>2020-06-18T13:26:46Z</time>
      </trkpt>
      <trkpt lat="49.93898" lon="1.13079">
        <ele>44.4</ele>
        <time>2020-06-18T13:26:47Z</time>
      </trkpt>
      <trkpt lat="49.939" lon="1.13085">
        <ele>44.5</ele>
        <time>2020-06-18T13:26:48Z</time>
      </trkpt>
      <trkpt lat="49.93901" lon="1.1309">
        <ele>44.7</ele>
        <time>2020-06-18T13:26:49Z</time>
      </trkpt>
      <trkpt lat="49.93902" lon="1.13096">
        <ele>44.9</ele>
        <time>2020-06-18T13:26:50Z</time>
      </trkpt>
      <trkpt lat="49.93903" lon="1.13102">
        <ele>45</ele>
        <time>2020-06-18T13:26:51Z</time>
      </trkpt>
      <trkpt lat="49.93905" lon="1.13106">
        <ele>45.2</ele>
        <time>2020-06-18T13:26:52Z</time>
      </trkpt>
      <trkpt lat="49.93906" lon="1.13111">
        <ele>45.3</ele>
        <time>2020-06-18T13:26:53Z</time>
      </trkpt>
      <trkpt lat="49.93908" lon="1.13116">
        <ele>45.5</ele>
        <time>2020-06-18T13:26:54Z</time>
      </trkpt>
      <trkpt lat="49.93909" lon="1.13122">
        <ele>45.7</ele>
        <time>2020-06-18T13:26:55Z</time>
      </trkpt>
      <trkpt lat="49.9391" lon="1.13128">
        <ele>45.9</ele>
        <time>2020-06-18T13:26:56Z</time>
      </trkpt>
      <trkpt lat="49.93913" lon="1.13133">
        <ele>46.1</ele>
        <time>2020-06-18T13:26:57Z</time>
      </trkpt>
      <trkpt lat="49.93914" lon="1.13138">
        <ele>46.3</ele>
        <time>2020-06-18T13:26:58Z</time>
      </trkpt>
      <trkpt lat="49.93915" lon="1.13144">
        <ele>46.5</ele>
        <time>2020-06-18T13:26:59Z</time>
      </trkpt>
      <trkpt lat="49.93916" lon="1.1315">
        <ele>46.7</ele>
        <time>2020-06-18T13:27:00Z</time>
      </trkpt>
      <trkpt lat="49.93918" lon="1.13156">
        <ele>46.9</ele>
        <time>2020-06-18T13:27:01Z</time>
      </trkpt>
      <trkpt lat="49.93919" lon="1.13161">
        <ele>47.1</ele>
        <time>2020-06-18T13:27:02Z</time>
      </trkpt>
      <trkpt lat="49.93921" lon="1.13166">
        <ele>47.3</ele>
        <time>2020-06-18T13:27:03Z</time>
      </trkpt>
      <trkpt lat="49.93922" lon="1.1317">
        <ele>47.5</ele>
        <time>2020-06-18T13:27:04Z</time>
      </trkpt>
      <trkpt lat="49.93923" lon="1.13174">
        <ele>47.7</ele>
        <time>2020-06-18T13:27:05Z</time>
      </trkpt>
      <trkpt lat="49.93926" lon="1.13179">
        <ele>47.9</ele>
        <time>2020-06-18T13:27:06Z</time>
      </trkpt>
      <trkpt lat="49.93926" lon="1.13181">
        <ele>47.9</ele>
        <time>2020-06-18T13:27:07Z</time>
      </trkpt>
      <trkpt lat="49.93928" lon="1.13186">
        <ele>48.2</ele>
        <time>2020-06-18T13:27:08Z</time>
      </trkpt>
      <trkpt lat="49.93929" lon="1.13188">
        <ele>48.3</ele>
        <time>2020-06-18T13:27:09Z</time>
      </trkpt>
      <trkpt lat="49.93932" lon="1.13192">
        <ele>48.4</ele>
        <time>2020-06-18T13:27:10Z</time>
      </trkpt>
      <trkpt lat="49.93933" lon="1.13197">
        <ele>48.6</ele>
        <time>2020-06-18T13:27:11Z</time>
      </trkpt>
      <trkpt lat="49.93935" lon="1.132">
        <ele>48.8</ele>
        <time>2020-06-18T13:27:12Z</time>
      </trkpt>
      <trkpt lat="49.93937" lon="1.13204">
        <ele>49</ele>
        <time>2020-06-18T13:27:13Z</time>
      </trkpt>
      <trkpt lat="49.9394" lon="1.13207">
        <ele>49.2</ele>
        <time>2020-06-18T13:27:14Z</time>
      </trkpt>
      <trkpt lat="49.93942" lon="1.13211">
        <ele>49.3</ele>
        <time>2020-06-18T13:27:15Z</time>
      </trkpt>
      <trkpt lat="49.93945" lon="1.13216">
        <ele>49.5</ele>
        <time>2020-06-18T13:27:16Z</time>
      </trkpt>
      <trkpt lat="49.93947" lon="1.1322">
        <ele>49.7</ele>
        <time>2020-06-18T13:27:17Z</time>
      </trkpt>
      <trkpt lat="49.93949" lon="1.13224">
        <ele>49.9</ele>
        <time>2020-06-18T13:27:18Z</time>
      </trkpt>
      <trkpt lat="49.93951" lon="1.13227">
        <ele>50</ele>
        <time>2020-06-18T13:27:19Z</time>
      </trkpt>
      <trkpt lat="49.93953" lon="1.13234">
        <ele>50.3</ele>
        <time>2020-06-18T13:27:20Z</time>
      </trkpt>
      <trkpt lat="49.93954" lon="1.1324">
        <ele>50.5</ele>
        <time>2020-06-18T13:27:21Z</time>
      </trkpt>
      <trkpt lat="49.93956" lon="1.13246">
        <ele>50.7</ele>
        <time>2020-06-18T13:27:22Z</time>
      </trkpt>
      <trkpt lat="49.93957" lon="1.13252">
        <ele>50.9</ele>
        <time>2020-06-18T13:27:23Z</time>
      </trkpt>
      <trkpt lat="49.93959" lon="1.13257">
        <ele>51.1</ele>
        <time>2020-06-18T13:27:24Z</time>
      </trkpt>
      <trkpt lat="49.93961" lon="1.1326">
        <ele>51.2</ele>
        <time>2020-06-18T13:27:25Z</time>
      </trkpt>
      <trkpt lat="49.93963" lon="1.13266">
        <ele>51.4</ele>
        <time>2020-06-18T13:27:26Z</time>
      </trkpt>
      <trkpt lat="49.93965" lon="1.13271">
        <ele>51.6</ele>
        <time>2020-06-18T13:27:27Z</time>
      </trkpt>
      <trkpt lat="49.93966" lon="1.13276">
        <ele>51.8</ele>
        <time>2020-06-18T13:27:28Z</time>
      </trkpt>
      <trkpt lat="49.93968" lon="1.13282">
        <ele>52</ele>
        <time>2020-06-18T13:27:29Z</time>
      </trkpt>
      <trkpt lat="49.93969" lon="1.13288">
        <ele>52.2</ele>
        <time>2020-06-18T13:27:30Z</time>
      </trkpt>
      <trkpt lat="49.9397" lon="1.13294">
        <ele>52.4</ele>
        <time>2020-06-18T13:27:31Z</time>
      </trkpt>
      <trkpt lat="49.93971" lon="1.13299">
        <ele>52.5</ele>
        <time>2020-06-18T13:27:32Z</time>
      </trkpt>
      <trkpt lat="49.93971" lon="1.13305">
        <ele>52.7</ele>
        <time>2020-06-18T13:27:33Z</time>
      </trkpt>
      <trkpt lat="49.93973" lon="1.1331">
        <ele>52.9</ele>
        <time>2020-06-18T13:27:34Z</time>
      </trkpt>
      <trkpt lat="49.93973" lon="1.13312">
        <ele>53</ele>
        <time>2020-06-18T13:27:35Z</time>
      </trkpt>
      <trkpt lat="49.93974" lon="1.13317">
        <ele>53.2</ele>
        <time>2020-06-18T13:27:36Z</time>
      </trkpt>
      <trkpt lat="49.93974" lon="1.13323">
        <ele>53.4</ele>
        <time>2020-06-18T13:27:37Z</time>
      </trkpt>
      <trkpt lat="49.93975" lon="1.13329">
        <ele>53.6</ele>
        <time>2020-06-18T13:27:38Z</time>
      </trkpt>
      <trkpt lat="49.93976" lon="1.13334">
        <ele>53.7</ele>
        <time>2020-06-18T13:27:39Z</time>
      </trkpt>
      <trkpt lat="49.93977" lon="1.13339">
        <ele>53.9</ele>
        <time>2020-06-18T13:27:40Z</time>
      </trkpt>
      <trkpt lat="49.93978" lon="1.13343">
        <ele>54</ele>
        <time>2020-06-18T13:27:41Z</time>
      </trkpt>
      <trkpt lat="49.93979" lon="1.13349">
        <ele>54.2</ele>
        <time>2020-06-18T13:27:42Z</time>
      </trkpt>
      <trkpt lat="49.93979" lon="1.13351">
        <ele>54.2</ele>
        <time>2020-06-18T13:27:43Z</time>
      </trkpt>
      <trkpt lat="49.93979" lon="1.13358">
        <ele>54.4</ele>
        <time>2020-06-18T13:27:44Z</time>
      </trkpt>
      <trkpt lat="49.9398" lon="1.1336">
        <ele>54.5</ele>
        <time>2020-06-18T13:27:45Z</time>
      </trkpt>
      <trkpt lat="49.93981" lon="1.13364">
        <ele>54.6</ele>
        <time>2020-06-18T13:27:46Z</time>
      </trkpt>
      <trkpt lat="49.93982" lon="1.1337">
        <ele>54.8</ele>
        <time>2020-06-18T13:27:47Z</time>
      </trkpt>
      <trkpt lat="49.93982" lon="1.13381">
        <ele>55.1</ele>
        <time>2020-06-18T13:27:48Z</time>
      </trkpt>
      <trkpt lat="49.93982" lon="1.13391">
        <ele>55.4</ele>
        <time>2020-06-18T13:27:49Z</time>
      </trkpt>
      <trkpt lat="49.93982" lon="1.134">
        <ele>55.7</ele>
        <time>2020-06-18T13:27:50Z</time>
      </trkpt>
      <trkpt lat="49.93982" lon="1.1341">
        <ele>56</ele>
        <time>2020-06-18T13:27:51Z</time>
      </trkpt>
      <trkpt lat="49.93982" lon="1.13419">
        <ele>56.2</ele>
        <time>2020-06-18T13:27:52Z</time>
      </trkpt>
      <trkpt lat="49.93982" lon="1.13426">
        <ele>56.4</ele>
        <time>2020-06-18T13:27:53Z</time>
      </trkpt>
      <trkpt lat="49.93982" lon="1.13433">
        <ele>56.6</ele>
        <time>2020-06-18T13:27:54Z</time>
      </trkpt>
      <trkpt lat="49.93982" lon="1.13438">
        <ele>56.7</ele>
        <time>2020-06-18T13:27:55Z</time>
      </trkpt>
      <trkpt lat="49.93982" lon="1.13444">
        <ele>56.9</ele>
        <time>2020-06-18T13:27:56Z</time>
      </trkpt>
      <trkpt lat="49.93981" lon="1.13455">
        <ele>57.3</ele>
        <time>2020-06-18T13:27:57Z</time>
      </trkpt>
      <trkpt lat="49.93979" lon="1.13465">
        <ele>57.6</ele>
        <time>2020-06-18T13:27:58Z</time>
      </trkpt>
      <trkpt lat="49.93978" lon="1.13474">
        <ele>57.9</ele>
        <time>2020-06-18T13:27:59Z</time>
      </trkpt>
      <trkpt lat="49.93978" lon="1.13481">
        <ele>58.1</ele>
        <time>2020-06-18T13:28:00Z</time>
      </trkpt>
      <trkpt lat="49.93978" lon="1.13486">
        <ele>58.3</ele>
        <time>2020-06-18T13:28:01Z</time>
      </trkpt>
      <trkpt lat="49.93976" lon="1.13495">
        <ele>58.6</ele>
        <time>2020-06-18T13:28:02Z</time>
      </trkpt>
      <trkpt lat="49.93975" lon="1.13503">
        <ele>58.9</ele>
        <time>2020-06-18T13:28:03Z</time>
      </trkpt>
      <trkpt lat="49.93974" lon="1.13509">
        <ele>59.2</ele>
        <time>2020-06-18T13:28:04Z</time>
      </trkpt>
      <trkpt lat="49.93972" lon="1.13516">
        <ele>59.4</ele>
        <time>2020-06-18T13:28:05Z</time>
      </trkpt>
      <trkpt lat="49.93972" lon="1.13522">
        <ele>59.6</ele>
        <time>2020-06-18T13:28:06Z</time>
      </trkpt>
      <trkpt lat="49.93971" lon="1.13529">
        <ele>59.8</ele>
        <time>2020-06-18T13:28:07Z</time>
      </trkpt>
      <trkpt lat="49.93972" lon="1.13535">
        <ele>60</ele>
        <time>2020-06-18T13:28:08Z</time>
      </trkpt>
      <trkpt lat="49.93972" lon="1.13541">
        <ele>60.3</ele>
        <time>2020-06-18T13:28:09Z</time>
      </trkpt>
      <trkpt lat="49.93972" lon="1.13548">
        <ele>60.5</ele>
        <time>2020-06-18T13:28:10Z</time>
      </trkpt>
      <trkpt lat="49.93973" lon="1.13554">
        <ele>60.7</ele>
        <time>2020-06-18T13:28:11Z</time>
      </trkpt>
      <trkpt lat="49.93972" lon="1.13558">
        <ele>60.8</ele>
        <time>2020-06-18T13:28:12Z</time>
      </trkpt>
      <trkpt lat="49.93972" lon="1.13565">
        <ele>61</ele>
        <time>2020-06-18T13:28:13Z</time>
      </trkpt>
      <trkpt lat="49.93971" lon="1.13567">
        <ele>61.1</ele>
        <time>2020-06-18T13:28:14Z</time>
      </trkpt>
      <trkpt lat="49.93971" lon="1.13573">
        <ele>61.3</ele>
        <time>2020-06-18T13:28:15Z</time>
      </trkpt>
      <trkpt lat="49.9397" lon="1.13579">
        <ele>61.5</ele>
        <time>2020-06-18T13:28:16Z</time>
      </trkpt>
      <trkpt lat="49.9397" lon="1.13584">
        <ele>61.6</ele>
        <time>2020-06-18T13:28:17Z</time>
      </trkpt>
      <trkpt lat="49.93969" lon="1.13589">
        <ele>61.8</ele>
        <time>2020-06-18T13:28:18Z</time>
      </trkpt>
      <trkpt lat="49.93969" lon="1.13594">
        <ele>61.9</ele>
        <time>2020-06-18T13:28:19Z</time>
      </trkpt>
      <trkpt lat="49.93969" lon="1.13598">
        <ele>62.1</ele>
        <time>2020-06-18T13:28:20Z</time>
      </trkpt>
      <trkpt lat="49.93969" lon="1.13603">
        <ele>62.3</ele>
        <time>2020-06-18T13:28:21Z</time>
      </trkpt>
      <trkpt lat="49.93969" lon="1.13607">
        <ele>62.4</ele>
        <time>2020-06-18T13:28:22Z</time>
      </trkpt>
      <trkpt lat="49.9397" lon="1.13612">
        <ele>62.6</ele>
        <time>2020-06-18T13:28:23Z</time>
      </trkpt>
      <trkpt lat="49.9397" lon="1.13617">
        <ele>62.7</ele>
        <time>2020-06-18T13:28:24Z</time>
      </trkpt>
      <trkpt lat="49.93969" lon="1.13622">
        <ele>62.9</ele>
        <time>2020-06-18T13:28:25Z</time>
      </trkpt>
      <trkpt lat="49.93968" lon="1.13629">
        <ele>63.1</ele>
        <time>2020-06-18T13:28:26Z</time>
      </trkpt>
      <trkpt lat="49.93968" lon="1.13633">
        <ele>63.3</ele>
        <time>2020-06-18T13:28:27Z</time>
      </trkpt>
      <trkpt lat="49.93967" lon="1.13638">
        <ele>63.4</ele>
        <time>2020-06-18T13:28:28Z</time>
      </trkpt>
      <trkpt lat="49.93966" lon="1.13643">
        <ele>63.6</ele>
        <time>2020-06-18T13:28:29Z</time>
      </trkpt>
      <trkpt lat="49.93965" lon="1.13649">
        <ele>63.7</ele>
        <time>2020-06-18T13:28:30Z</time>
      </trkpt>
      <trkpt lat="49.93965" lon="1.13656">
        <ele>63.9</ele>
        <time>2020-06-18T13:28:31Z</time>
      </trkpt>
      <trkpt lat="49.93965" lon="1.13664">
        <ele>64.1</ele>
        <time>2020-06-18T13:28:32Z</time>
      </trkpt>
      <trkpt lat="49.93964" lon="1.13674">
        <ele>64.3</ele>
        <time>2020-06-18T13:28:33Z</time>
      </trkpt>
      <trkpt lat="49.93965" lon="1.13685">
        <ele>64.5</ele>
        <time>2020-06-18T13:28:34Z</time>
      </trkpt>
      <trkpt lat="49.93964" lon="1.13694">
        <ele>64.7</ele>
        <time>2020-06-18T13:28:35Z</time>
      </trkpt>
      <trkpt lat="49.93962" lon="1.13701">
        <ele>64.8</ele>
        <time>2020-06-18T13:28:36Z</time>
      </trkpt>
      <trkpt lat="49.93962" lon="1.13706">
        <ele>64.9</ele>
        <time>2020-06-18T13:28:37Z</time>
      </trkpt>
      <trkpt lat="49.93961" lon="1.13713">
        <ele>65</ele>
        <time>2020-06-18T13:28:38Z</time>
      </trkpt>
      <trkpt lat="49.93959" lon="1.1372">
        <ele>65.2</ele>
        <time>2020-06-18T13:28:39Z</time>
      </trkpt>
      <trkpt lat="49.93957" lon="1.13726">
        <ele>65.3</ele>
        <time>2020-06-18T13:28:40Z</time>
      </trkpt>
      <trkpt lat="49.93956" lon="1.13732">
        <ele>65.4</ele>
        <time>2020-06-18T13:28:41Z</time>
      </trkpt>
      <trkpt lat="49.93955" lon="1.13738">
        <ele>65.6</ele>
        <time>2020-06-18T13:28:42Z</time>
      </trkpt>
      <trkpt lat="49.93953" lon="1.13747">
        <ele>65.8</ele>
        <time>2020-06-18T13:28:43Z</time>
      </trkpt>
      <trkpt lat="49.93952" lon="1.13755">
        <ele>65.9</ele>
        <time>2020-06-18T13:28:44Z</time>
      </trkpt>
      <trkpt lat="49.93952" lon="1.13763">
        <ele>66</ele>
        <time>2020-06-18T13:28:45Z</time>
      </trkpt>
      <trkpt lat="49.93952" lon="1.13769">
        <ele>66.1</ele>
        <time>2020-06-18T13:28:46Z</time>
      </trkpt>
      <trkpt lat="49.93951" lon="1.13774">
        <ele>66.2</ele>
        <time>2020-06-18T13:28:47Z</time>
      </trkpt>
      <trkpt lat="49.93949" lon="1.1378">
        <ele>66.3</ele>
        <time>2020-06-18T13:28:48Z</time>
      </trkpt>
      <trkpt lat="49.93949" lon="1.13785">
        <ele>66.4</ele>
        <time>2020-06-18T13:28:49Z</time>
      </trkpt>
      <trkpt lat="49.93949" lon="1.13789">
        <ele>66.5</ele>
        <time>2020-06-18T13:28:50Z</time>
      </trkpt>
      <trkpt lat="49.93949" lon="1.13794">
        <ele>66.6</ele>
        <time>2020-06-18T13:28:51Z</time>
      </trkpt>
      <trkpt lat="49.93947" lon="1.13798">
        <ele>66.7</ele>
        <time>2020-06-18T13:28:52Z</time>
      </trkpt>
      <trkpt lat="49.93946" lon="1.13803">
        <ele>66.8</ele>
        <time>2020-06-18T13:28:53Z</time>
      </trkpt>
      <trkpt lat="49.93945" lon="1.13808">
        <ele>66.9</ele>
        <time>2020-06-18T13:28:54Z</time>
      </trkpt>
      <trkpt lat="49.93944" lon="1.13814">
        <ele>67</ele>
        <time>2020-06-18T13:28:55Z</time>
      </trkpt>
      <trkpt lat="49.93943" lon="1.1382">
        <ele>67.2</ele>
        <time>2020-06-18T13:28:56Z</time>
      </trkpt>
      <trkpt lat="49.93943" lon="1.13826">
        <ele>67.3</ele>
        <time>2020-06-18T13:28:57Z</time>
      </trkpt>
      <trkpt lat="49.93942" lon="1.13832">
        <ele>67.5</ele>
        <time>2020-06-18T13:28:58Z</time>
      </trkpt>
      <trkpt lat="49.93942" lon="1.13837">
        <ele>67.6</ele>
        <time>2020-06-18T13:28:59Z</time>
      </trkpt>
      <trkpt lat="49.93943" lon="1.13843">
        <ele>67.7</ele>
        <time>2020-06-18T13:29:00Z</time>
      </trkpt>
      <trkpt lat="49.93943" lon="1.13848">
        <ele>67.8</ele>
        <time>2020-06-18T13:29:01Z</time>
      </trkpt>
      <trkpt lat="49.93944" lon="1.13854">
        <ele>68</ele>
        <time>2020-06-18T13:29:02Z</time>
      </trkpt>
      <trkpt lat="49.93945" lon="1.13861">
        <ele>68.2</ele>
        <time>2020-06-18T13:29:03Z</time>
      </trkpt>
      <trkpt lat="49.93946" lon="1.13867">
        <ele>69.4</ele>
        <time>2020-06-18T13:29:04Z</time>
      </trkpt>
      <trkpt lat="49.93948" lon="1.13873">
        <ele>69.7</ele>
        <time>2020-06-18T13:29:05Z</time>
      </trkpt>
      <trkpt lat="49.93949" lon="1.13879">
        <ele>70</ele>
        <time>2020-06-18T13:29:06Z</time>
      </trkpt>
      <trkpt lat="49.93951" lon="1.13885">
        <ele>70.3</ele>
        <time>2020-06-18T13:29:07Z</time>
      </trkpt>
      <trkpt lat="49.93951" lon="1.13887">
        <ele>70.4</ele>
        <time>2020-06-18T13:29:08Z</time>
      </trkpt>
      <trkpt lat="49.93953" lon="1.1389">
        <ele>70.6</ele>
        <time>2020-06-18T13:29:09Z</time>
      </trkpt>
      <trkpt lat="49.93955" lon="1.13894">
        <ele>70.9</ele>
        <time>2020-06-18T13:29:10Z</time>
      </trkpt>
      <trkpt lat="49.93957" lon="1.139">
        <ele>71.2</ele>
        <time>2020-06-18T13:29:11Z</time>
      </trkpt>
      <trkpt lat="49.93959" lon="1.13903">
        <ele>71.3</ele>
        <time>2020-06-18T13:29:12Z</time>
      </trkpt>
      <trkpt lat="49.9396" lon="1.13908">
        <ele>71.6</ele>
        <time>2020-06-18T13:29:13Z</time>
      </trkpt>
      <trkpt lat="49.93961" lon="1.13913">
        <ele>71.8</ele>
        <time>2020-06-18T13:29:14Z</time>
      </trkpt>
      <trkpt lat="49.93963" lon="1.1392">
        <ele>72.1</ele>
        <time>2020-06-18T13:29:15Z</time>
      </trkpt>
      <trkpt lat="49.93964" lon="1.13926">
        <ele>72.4</ele>
        <time>2020-06-18T13:29:16Z</time>
      </trkpt>
      <trkpt lat="49.93966" lon="1.1393">
        <ele>72.6</ele>
        <time>2020-06-18T13:29:17Z</time>
      </trkpt>
      <trkpt lat="49.93968" lon="1.13935">
        <ele>72.9</ele>
        <time>2020-06-18T13:29:18Z</time>
      </trkpt>
      <trkpt lat="49.93969" lon="1.13939">
        <ele>73.1</ele>
        <time>2020-06-18T13:29:19Z</time>
      </trkpt>
      <trkpt lat="49.93972" lon="1.13943">
        <ele>73.4</ele>
        <time>2020-06-18T13:29:20Z</time>
      </trkpt>
      <trkpt lat="49.93974" lon="1.13947">
        <ele>73.6</ele>
        <time>2020-06-18T13:29:21Z</time>
      </trkpt>
      <trkpt lat="49.93976" lon="1.13951">
        <ele>73.9</ele>
        <time>2020-06-18T13:29:22Z</time>
      </trkpt>
      <trkpt lat="49.93979" lon="1.13954">
        <ele>74.1</ele>
        <time>2020-06-18T13:29:23Z</time>
      </trkpt>
      <trkpt lat="49.93981" lon="1.13957">
        <ele>74.3</ele>
        <time>2020-06-18T13:29:24Z</time>
      </trkpt>
      <trkpt lat="49.93984" lon="1.1396">
        <ele>74.5</ele>
        <time>2020-06-18T13:29:25Z</time>
      </trkpt>
      <trkpt lat="49.93987" lon="1.13963">
        <ele>74.7</ele>
        <time>2020-06-18T13:29:26Z</time>
      </trkpt>
      <trkpt lat="49.9399" lon="1.13966">
        <ele>75</ele>
        <time>2020-06-18T13:29:27Z</time>
      </trkpt>
      <trkpt lat="49.93993" lon="1.13968">
        <ele>75.2</ele>
        <time>2020-06-18T13:29:28Z</time>
      </trkpt>
      <trkpt lat="49.93997" lon="1.13971">
        <ele>75.5</ele>
        <time>2020-06-18T13:29:29Z</time>
      </trkpt>
      <trkpt lat="49.94001" lon="1.13974">
        <ele>75.7</ele>
        <time>2020-06-18T13:29:30Z</time>
      </trkpt>
      <trkpt lat="49.94003" lon="1.13977">
        <ele>75.9</ele>
        <time>2020-06-18T13:29:31Z</time>
      </trkpt>
      <trkpt lat="49.94006" lon="1.1398">
        <ele>76.1</ele>
        <time>2020-06-18T13:29:32Z</time>
      </trkpt>
      <trkpt lat="49.94009" lon="1.13983">
        <ele>76.3</ele>
        <time>2020-06-18T13:29:33Z</time>
      </trkpt>
      <trkpt lat="49.94012" lon="1.13985">
        <ele>76.5</ele>
        <time>2020-06-18T13:29:34Z</time>
      </trkpt>
      <trkpt lat="49.94014" lon="1.13989">
        <ele>76.7</ele>
        <time>2020-06-18T13:29:35Z</time>
      </trkpt>
      <trkpt lat="49.94017" lon="1.13994">
        <ele>76.9</ele>
        <time>2020-06-18T13:29:36Z</time>
      </trkpt>
      <trkpt lat="49.94018" lon="1.13996">
        <ele>76.9</ele>
        <time>2020-06-18T13:29:37Z</time>
      </trkpt>
      <trkpt lat="49.94021" lon="1.14">
        <ele>77.1</ele>
        <time>2020-06-18T13:29:38Z</time>
      </trkpt>
      <trkpt lat="49.94022" lon="1.14005">
        <ele>77.2</ele>
        <time>2020-06-18T13:29:39Z</time>
      </trkpt>
      <trkpt lat="49.94023" lon="1.1401">
        <ele>77.4</ele>
        <time>2020-06-18T13:29:40Z</time>
      </trkpt>
      <trkpt lat="49.94025" lon="1.14016">
        <ele>77.5</ele>
        <time>2020-06-18T13:29:41Z</time>
      </trkpt>
      <trkpt lat="49.94026" lon="1.14022">
        <ele>77.6</ele>
        <time>2020-06-18T13:29:42Z</time>
      </trkpt>
      <trkpt lat="49.94027" lon="1.14029">
        <ele>77.7</ele>
        <time>2020-06-18T13:29:43Z</time>
      </trkpt>
      <trkpt lat="49.94027" lon="1.14035">
        <ele>77.8</ele>
        <time>2020-06-18T13:29:44Z</time>
      </trkpt>
      <trkpt lat="49.94028" lon="1.1404">
        <ele>77.9</ele>
        <time>2020-06-18T13:29:45Z</time>
      </trkpt>
      <trkpt lat="49.94029" lon="1.14046">
        <ele>78</ele>
        <time>2020-06-18T13:29:46Z</time>
      </trkpt>
      <trkpt lat="49.9403" lon="1.14054">
        <ele>78.1</ele>
        <time>2020-06-18T13:29:47Z</time>
      </trkpt>
      <trkpt lat="49.9403" lon="1.14061">
        <ele>78.1</ele>
        <time>2020-06-18T13:29:48Z</time>
      </trkpt>
      <trkpt lat="49.94031" lon="1.14068">
        <ele>78.2</ele>
        <time>2020-06-18T13:29:49Z</time>
      </trkpt>
      <trkpt lat="49.94031" lon="1.14074">
        <ele>78.3</ele>
        <time>2020-06-18T13:29:50Z</time>
      </trkpt>
      <trkpt lat="49.94032" lon="1.1408">
        <ele>78.4</ele>
        <time>2020-06-18T13:29:51Z</time>
      </trkpt>
      <trkpt lat="49.94033" lon="1.14086">
        <ele>78.4</ele>
        <time>2020-06-18T13:29:52Z</time>
      </trkpt>
      <trkpt lat="49.94034" lon="1.14093">
        <ele>78.5</ele>
        <time>2020-06-18T13:29:53Z</time>
      </trkpt>
      <trkpt lat="49.94036" lon="1.141">
        <ele>78.6</ele>
        <time>2020-06-18T13:29:54Z</time>
      </trkpt>
      <trkpt lat="49.94037" lon="1.14106">
        <ele>78.7</ele>
        <time>2020-06-18T13:29:55Z</time>
      </trkpt>
      <trkpt lat="49.94037" lon="1.14112">
        <ele>78.7</ele>
        <time>2020-06-18T13:29:56Z</time>
      </trkpt>
      <trkpt lat="49.94038" lon="1.14118">
        <ele>78.8</ele>
        <time>2020-06-18T13:29:57Z</time>
      </trkpt>
      <trkpt lat="49.94038" lon="1.14127">
        <ele>78.9</ele>
        <time>2020-06-18T13:29:58Z</time>
      </trkpt>
      <trkpt lat="49.94038" lon="1.14134">
        <ele>79</ele>
        <time>2020-06-18T13:29:59Z</time>
      </trkpt>
      <trkpt lat="49.94038" lon="1.14139">
        <ele>79.1</ele>
        <time>2020-06-18T13:30:00Z</time>
      </trkpt>
      <trkpt lat="49.94038" lon="1.14145">
        <ele>79.1</ele>
        <time>2020-06-18T13:30:01Z</time>
      </trkpt>
      <trkpt lat="49.94039" lon="1.14152">
        <ele>79.2</ele>
        <time>2020-06-18T13:30:02Z</time>
      </trkpt>
      <trkpt lat="49.94038" lon="1.14159">
        <ele>79.2</ele>
        <time>2020-06-18T13:30:03Z</time>
      </trkpt>
      <trkpt lat="49.94039" lon="1.14166">
        <ele>79.3</ele>
        <time>2020-06-18T13:30:04Z</time>
      </trkpt>
      <trkpt lat="49.94038" lon="1.14175">
        <ele>79.4</ele>
        <time>2020-06-18T13:30:05Z</time>
      </trkpt>
      <trkpt lat="49.94038" lon="1.14183">
        <ele>79.5</ele>
        <time>2020-06-18T13:30:06Z</time>
      </trkpt>
      <trkpt lat="49.94038" lon="1.14189">
        <ele>79.5</ele>
        <time>2020-06-18T13:30:07Z</time>
      </trkpt>
      <trkpt lat="49.94038" lon="1.14197">
        <ele>79.6</ele>
        <time>2020-06-18T13:30:08Z</time>
      </trkpt>
      <trkpt lat="49.94037" lon="1.14204">
        <ele>79.6</ele>
        <time>2020-06-18T13:30:09Z</time>
      </trkpt>
      <trkpt lat="49.94037" lon="1.14211">
        <ele>79.7</ele>
        <time>2020-06-18T13:30:10Z</time>
      </trkpt>
      <trkpt lat="49.94037" lon="1.14218">
        <ele>79.7</ele>
        <time>2020-06-18T13:30:11Z</time>
      </trkpt>
      <trkpt lat="49.94037" lon="1.14225">
        <ele>79.8</ele>
        <time>2020-06-18T13:30:12Z</time>
      </trkpt>
      <trkpt lat="49.94038" lon="1.14233">
        <ele>79.8</ele>
        <time>2020-06-18T13:30:13Z</time>
      </trkpt>
      <trkpt lat="49.94038" lon="1.1424">
        <ele>79.9</ele>
        <time>2020-06-18T13:30:14Z</time>
      </trkpt>
      <trkpt lat="49.94039" lon="1.14247">
        <ele>80</ele>
        <time>2020-06-18T13:30:15Z</time>
      </trkpt>
      <trkpt lat="49.94039" lon="1.14255">
        <ele>80</ele>
        <time>2020-06-18T13:30:16Z</time>
      </trkpt>
      <trkpt lat="49.9404" lon="1.14263">
        <ele>80.1</ele>
        <time>2020-06-18T13:30:17Z</time>
      </trkpt>
      <trkpt lat="49.9404" lon="1.1427">
        <ele>80.2</ele>
        <time>2020-06-18T13:30:18Z</time>
      </trkpt>
      <trkpt lat="49.94041" lon="1.14277">
        <ele>80.2</ele>
        <time>2020-06-18T13:30:19Z</time>
      </trkpt>
      <trkpt lat="49.94041" lon="1.14283">
        <ele>80.3</ele>
        <time>2020-06-18T13:30:20Z</time>
      </trkpt>
      <trkpt lat="49.94042" lon="1.14289">
        <ele>80.3</ele>
        <time>2020-06-18T13:30:21Z</time>
      </trkpt>
      <trkpt lat="49.94043" lon="1.14296">
        <ele>80.4</ele>
        <time>2020-06-18T13:30:22Z</time>
      </trkpt>
      <trkpt lat="49.94044" lon="1.14302">
        <ele>80.4</ele>
        <time>2020-06-18T13:30:23Z</time>
      </trkpt>
      <trkpt lat="49.94044" lon="1.14309">
        <ele>80.5</ele>
        <time>2020-06-18T13:30:24Z</time>
      </trkpt>
      <trkpt lat="49.94045" lon="1.14315">
        <ele>80.5</ele>
        <time>2020-06-18T13:30:25Z</time>
      </trkpt>
      <trkpt lat="49.94045" lon="1.14322">
        <ele>80.6</ele>
        <time>2020-06-18T13:30:26Z</time>
      </trkpt>
      <trkpt lat="49.94046" lon="1.1433">
        <ele>80.7</ele>
        <time>2020-06-18T13:30:27Z</time>
      </trkpt>
      <trkpt lat="49.94047" lon="1.14338">
        <ele>80.8</ele>
        <time>2020-06-18T13:30:28Z</time>
      </trkpt>
      <trkpt lat="49.94048" lon="1.14345">
        <ele>80.8</ele>
        <time>2020-06-18T13:30:29Z</time>
      </trkpt>
      <trkpt lat="49.94048" lon="1.14352">
        <ele>80.9</ele>
        <time>2020-06-18T13:30:30Z</time>
      </trkpt>
      <trkpt lat="49.94049" lon="1.14359">
        <ele>80.9</ele>
        <time>2020-06-18T13:30:31Z</time>
      </trkpt>
      <trkpt lat="49.9405" lon="1.14365">
        <ele>80.9</ele>
        <time>2020-06-18T13:30:32Z</time>
      </trkpt>
      <trkpt lat="49.9405" lon="1.14371">
        <ele>81</ele>
        <time>2020-06-18T13:30:33Z</time>
      </trkpt>
      <trkpt lat="49.94051" lon="1.14377">
        <ele>81</ele>
        <time>2020-06-18T13:30:34Z</time>
      </trkpt>
      <trkpt lat="49.94052" lon="1.14384">
        <ele>81</ele>
        <time>2020-06-18T13:30:35Z</time>
      </trkpt>
      <trkpt lat="49.94054" lon="1.14389">
        <ele>81</ele>
        <time>2020-06-18T13:30:36Z</time>
      </trkpt>
      <trkpt lat="49.94056" lon="1.14395">
        <ele>81.2</ele>
        <time>2020-06-18T13:30:37Z</time>
      </trkpt>
      <trkpt lat="49.94058" lon="1.14401">
        <ele>81.3</ele>
        <time>2020-06-18T13:30:38Z</time>
      </trkpt>
      <trkpt lat="49.9406" lon="1.14408">
        <ele>81.4</ele>
        <time>2020-06-18T13:30:39Z</time>
      </trkpt>
      <trkpt lat="49.94061" lon="1.14413">
        <ele>81.4</ele>
        <time>2020-06-18T13:30:40Z</time>
      </trkpt>
      <trkpt lat="49.94063" lon="1.14419">
        <ele>81.5</ele>
        <time>2020-06-18T13:30:41Z</time>
      </trkpt>
      <trkpt lat="49.94065" lon="1.14424">
        <ele>81.5</ele>
        <time>2020-06-18T13:30:42Z</time>
      </trkpt>
      <trkpt lat="49.94067" lon="1.1443">
        <ele>81.6</ele>
        <time>2020-06-18T13:30:43Z</time>
      </trkpt>
      <trkpt lat="49.94068" lon="1.14436">
        <ele>81.7</ele>
        <time>2020-06-18T13:30:44Z</time>
      </trkpt>
      <trkpt lat="49.94071" lon="1.14441">
        <ele>81.7</ele>
        <time>2020-06-18T13:30:45Z</time>
      </trkpt>
      <trkpt lat="49.94073" lon="1.14446">
        <ele>81.8</ele>
        <time>2020-06-18T13:30:46Z</time>
      </trkpt>
      <trkpt lat="49.94076" lon="1.14452">
        <ele>81.9</ele>
        <time>2020-06-18T13:30:47Z</time>
      </trkpt>
      <trkpt lat="49.94079" lon="1.14458">
        <ele>81.9</ele>
        <time>2020-06-18T13:30:48Z</time>
      </trkpt>
      <trkpt lat="49.94082" lon="1.14464">
        <ele>82</ele>
        <time>2020-06-18T13:30:49Z</time>
      </trkpt>
      <trkpt lat="49.94085" lon="1.1447">
        <ele>82.1</ele>
        <time>2020-06-18T13:30:50Z</time>
      </trkpt>
      <trkpt lat="49.94088" lon="1.14475">
        <ele>82.2</ele>
        <time>2020-06-18T13:30:51Z</time>
      </trkpt>
      <trkpt lat="49.9409" lon="1.1448">
        <ele>82.3</ele>
        <time>2020-06-18T13:30:52Z</time>
      </trkpt>
      <trkpt lat="49.94093" lon="1.14486">
        <ele>82.4</ele>
        <time>2020-06-18T13:30:53Z</time>
      </trkpt>
      <trkpt lat="49.94096" lon="1.1449">
        <ele>82.5</ele>
        <time>2020-06-18T13:30:54Z</time>
      </trkpt>
      <trkpt lat="49.94098" lon="1.14494">
        <ele>82.5</ele>
        <time>2020-06-18T13:30:55Z</time>
      </trkpt>
      <trkpt lat="49.94101" lon="1.14498">
        <ele>82.6</ele>
        <time>2020-06-18T13:30:56Z</time>
      </trkpt>
      <trkpt lat="49.94105" lon="1.14503">
        <ele>82.7</ele>
        <time>2020-06-18T13:30:57Z</time>
      </trkpt>
      <trkpt lat="49.94108" lon="1.14507">
        <ele>82.8</ele>
        <time>2020-06-18T13:30:58Z</time>
      </trkpt>
      <trkpt lat="49.94111" lon="1.1451">
        <ele>82.9</ele>
        <time>2020-06-18T13:30:59Z</time>
      </trkpt>
      <trkpt lat="49.94115" lon="1.14514">
        <ele>83</ele>
        <time>2020-06-18T13:31:00Z</time>
      </trkpt>
      <trkpt lat="49.94119" lon="1.14517">
        <ele>83.1</ele>
        <time>2020-06-18T13:31:01Z</time>
      </trkpt>
      <trkpt lat="49.94122" lon="1.1452">
        <ele>83.2</ele>
        <time>2020-06-18T13:31:02Z</time>
      </trkpt>
      <trkpt lat="49.94126" lon="1.14524">
        <ele>83.3</ele>
        <time>2020-06-18T13:31:03Z</time>
      </trkpt>
      <trkpt lat="49.94129" lon="1.14527">
        <ele>83.3</ele>
        <time>2020-06-18T13:31:04Z</time>
      </trkpt>
      <trkpt lat="49.94133" lon="1.1453">
        <ele>83.4</ele>
        <time>2020-06-18T13:31:05Z</time>
      </trkpt>
      <trkpt lat="49.94137" lon="1.14533">
        <ele>83.5</ele>
        <time>2020-06-18T13:31:06Z</time>
      </trkpt>
      <trkpt lat="49.94141" lon="1.14536">
        <ele>83.5</ele>
        <time>2020-06-18T13:31:07Z</time>
      </trkpt>
      <trkpt lat="49.94145" lon="1.1454">
        <ele>83.6</ele>
        <time>2020-06-18T13:31:08Z</time>
      </trkpt>
      <trkpt lat="49.94148" lon="1.14544">
        <ele>83.6</ele>
        <time>2020-06-18T13:31:09Z</time>
      </trkpt>
      <trkpt lat="49.94152" lon="1.14548">
        <ele>83.7</ele>
        <time>2020-06-18T13:31:10Z</time>
      </trkpt>
      <trkpt lat="49.94155" lon="1.14552">
        <ele>83.8</ele>
        <time>2020-06-18T13:31:11Z</time>
      </trkpt>
      <trkpt lat="49.94158" lon="1.14556">
        <ele>83.8</ele>
        <time>2020-06-18T13:31:12Z</time>
      </trkpt>
      <trkpt lat="49.94162" lon="1.14561">
        <ele>83.9</ele>
        <time>2020-06-18T13:31:13Z</time>
      </trkpt>
      <trkpt lat="49.94166" lon="1.14565">
        <ele>83.9</ele>
        <time>2020-06-18T13:31:14Z</time>
      </trkpt>
      <trkpt lat="49.94171" lon="1.1457">
        <ele>84</ele>
        <time>2020-06-18T13:31:15Z</time>
      </trkpt>
      <trkpt lat="49.94175" lon="1.14575">
        <ele>84</ele>
        <time>2020-06-18T13:31:16Z</time>
      </trkpt>
      <trkpt lat="49.94178" lon="1.14579">
        <ele>84.1</ele>
        <time>2020-06-18T13:31:17Z</time>
      </trkpt>
      <trkpt lat="49.94182" lon="1.14584">
        <ele>84.2</ele>
        <time>2020-06-18T13:31:18Z</time>
      </trkpt>
      <trkpt lat="49.94186" lon="1.14589">
        <ele>84.2</ele>
        <time>2020-06-18T13:31:19Z</time>
      </trkpt>
      <trkpt lat="49.94189" lon="1.14594">
        <ele>84.3</ele>
        <time>2020-06-18T13:31:20Z</time>
      </trkpt>
      <trkpt lat="49.94193" lon="1.14599">
        <ele>84.4</ele>
        <time>2020-06-18T13:31:21Z</time>
      </trkpt>
      <trkpt lat="49.94197" lon="1.14604">
        <ele>84.5</ele>
        <time>2020-06-18T13:31:22Z</time>
      </trkpt>
      <trkpt lat="49.942" lon="1.14609">
        <ele>84.5</ele>
        <time>2020-06-18T13:31:23Z</time>
      </trkpt>
      <trkpt lat="49.94203" lon="1.14613">
        <ele>84.6</ele>
        <time>2020-06-18T13:31:24Z</time>
      </trkpt>
      <trkpt lat="49.94206" lon="1.14617">
        <ele>84.7</ele>
        <time>2020-06-18T13:31:25Z</time>
      </trkpt>
      <trkpt lat="49.94209" lon="1.14622">
        <ele>84.7</ele>
        <time>2020-06-18T13:31:26Z</time>
      </trkpt>
      <trkpt lat="49.94212" lon="1.14626">
        <ele>84.8</ele>
        <time>2020-06-18T13:31:27Z</time>
      </trkpt>
      <trkpt lat="49.94215" lon="1.1463">
        <ele>84.8</ele>
        <time>2020-06-18T13:31:28Z</time>
      </trkpt>
      <trkpt lat="49.94218" lon="1.14636">
        <ele>84.9</ele>
        <time>2020-06-18T13:31:29Z</time>
      </trkpt>
      <trkpt lat="49.94221" lon="1.14641">
        <ele>85</ele>
        <time>2020-06-18T13:31:30Z</time>
      </trkpt>
      <trkpt lat="49.94224" lon="1.14646">
        <ele>85.1</ele>
        <time>2020-06-18T13:31:31Z</time>
      </trkpt>
      <trkpt lat="49.94227" lon="1.14652">
        <ele>85.1</ele>
        <time>2020-06-18T13:31:32Z</time>
      </trkpt>
      <trkpt lat="49.94229" lon="1.14659">
        <ele>85.2</ele>
        <time>2020-06-18T13:31:33Z</time>
      </trkpt>
      <trkpt lat="49.94231" lon="1.14666">
        <ele>85.3</ele>
        <time>2020-06-18T13:31:34Z</time>
      </trkpt>
      <trkpt lat="49.94233" lon="1.14672">
        <ele>85.3</ele>
        <time>2020-06-18T13:31:35Z</time>
      </trkpt>
      <trkpt lat="49.94235" lon="1.14679">
        <ele>85.4</ele>
        <time>2020-06-18T13:31:36Z</time>
      </trkpt>
      <trkpt lat="49.94237" lon="1.14685">
        <ele>85.4</ele>
        <time>2020-06-18T13:31:37Z</time>
      </trkpt>
      <trkpt lat="49.9424" lon="1.1469">
        <ele>85.4</ele>
        <time>2020-06-18T13:31:38Z</time>
      </trkpt>
      <trkpt lat="49.94242" lon="1.14694">
        <ele>85.5</ele>
        <time>2020-06-18T13:31:39Z</time>
      </trkpt>
      <trkpt lat="49.94244" lon="1.147">
        <ele>85.5</ele>
        <time>2020-06-18T13:31:40Z</time>
      </trkpt>
      <trkpt lat="49.94245" lon="1.14707">
        <ele>85.5</ele>
        <time>2020-06-18T13:31:41Z</time>
      </trkpt>
      <trkpt lat="49.94247" lon="1.14713">
        <ele>85.6</ele>
        <time>2020-06-18T13:31:42Z</time>
      </trkpt>
      <trkpt lat="49.94249" lon="1.14719">
        <ele>85.7</ele>
        <time>2020-06-18T13:31:43Z</time>
      </trkpt>
      <trkpt lat="49.9425" lon="1.14726">
        <ele>85.7</ele>
        <time>2020-06-18T13:31:44Z</time>
      </trkpt>
      <trkpt lat="49.94252" lon="1.14732">
        <ele>85.8</ele>
        <time>2020-06-18T13:31:45Z</time>
      </trkpt>
      <trkpt lat="49.94254" lon="1.14737">
        <ele>85.9</ele>
        <time>2020-06-18T13:31:46Z</time>
      </trkpt>
      <trkpt lat="49.94256" lon="1.14744">
        <ele>85.9</ele>
        <time>2020-06-18T13:31:47Z</time>
      </trkpt>
      <trkpt lat="49.94258" lon="1.14751">
        <ele>86</ele>
        <time>2020-06-18T13:31:48Z</time>
      </trkpt>
      <trkpt lat="49.9426" lon="1.14756">
        <ele>86.1</ele>
        <time>2020-06-18T13:31:49Z</time>
      </trkpt>
      <trkpt lat="49.94261" lon="1.14763">
        <ele>86.2</ele>
        <time>2020-06-18T13:31:50Z</time>
      </trkpt>
      <trkpt lat="49.94263" lon="1.14769">
        <ele>86.2</ele>
        <time>2020-06-18T13:31:51Z</time>
      </trkpt>
      <trkpt lat="49.94265" lon="1.14775">
        <ele>86.3</ele>
        <time>2020-06-18T13:31:52Z</time>
      </trkpt>
      <trkpt lat="49.94268" lon="1.14781">
        <ele>86.4</ele>
        <time>2020-06-18T13:31:53Z</time>
      </trkpt>
      <trkpt lat="49.94272" lon="1.14785">
        <ele>86.5</ele>
        <time>2020-06-18T13:31:54Z</time>
      </trkpt>
      <trkpt lat="49.94274" lon="1.1479">
        <ele>86.6</ele>
        <time>2020-06-18T13:31:55Z</time>
      </trkpt>
      <trkpt lat="49.94277" lon="1.14796">
        <ele>86.7</ele>
        <time>2020-06-18T13:31:56Z</time>
      </trkpt>
      <trkpt lat="49.94279" lon="1.14802">
        <ele>86.7</ele>
        <time>2020-06-18T13:31:57Z</time>
      </trkpt>
      <trkpt lat="49.94282" lon="1.14807">
        <ele>86.8</ele>
        <time>2020-06-18T13:31:58Z</time>
      </trkpt>
      <trkpt lat="49.94284" lon="1.14813">
        <ele>86.9</ele>
        <time>2020-06-18T13:31:59Z</time>
      </trkpt>
      <trkpt lat="49.94287" lon="1.14819">
        <ele>87</ele>
        <time>2020-06-18T13:32:00Z</time>
      </trkpt>
      <trkpt lat="49.94289" lon="1.14825">
        <ele>87.2</ele>
        <time>2020-06-18T13:32:01Z</time>
      </trkpt>
      <trkpt lat="49.94292" lon="1.14831">
        <ele>87.3</ele>
        <time>2020-06-18T13:32:02Z</time>
      </trkpt>
      <trkpt lat="49.94294" lon="1.14837">
        <ele>87.4</ele>
        <time>2020-06-18T13:32:03Z</time>
      </trkpt>
      <trkpt lat="49.94298" lon="1.14843">
        <ele>87.4</ele>
        <time>2020-06-18T13:32:04Z</time>
      </trkpt>
      <trkpt lat="49.94301" lon="1.14848">
        <ele>87.4</ele>
        <time>2020-06-18T13:32:05Z</time>
      </trkpt>
      <trkpt lat="49.94304" lon="1.14854">
        <ele>87.4</ele>
        <time>2020-06-18T13:32:06Z</time>
      </trkpt>
      <trkpt lat="49.94308" lon="1.14859">
        <ele>87.4</ele>
        <time>2020-06-18T13:32:07Z</time>
      </trkpt>
      <trkpt lat="49.94311" lon="1.14865">
        <ele>87.5</ele>
        <time>2020-06-18T13:32:08Z</time>
      </trkpt>
      <trkpt lat="49.94313" lon="1.1487">
        <ele>87.5</ele>
        <time>2020-06-18T13:32:09Z</time>
      </trkpt>
      <trkpt lat="49.94316" lon="1.14876">
        <ele>87.5</ele>
        <time>2020-06-18T13:32:10Z</time>
      </trkpt>
      <trkpt lat="49.94319" lon="1.14881">
        <ele>87.6</ele>
        <time>2020-06-18T13:32:11Z</time>
      </trkpt>
      <trkpt lat="49.94322" lon="1.14886">
        <ele>87.6</ele>
        <time>2020-06-18T13:32:12Z</time>
      </trkpt>
      <trkpt lat="49.94326" lon="1.14891">
        <ele>87.7</ele>
        <time>2020-06-18T13:32:13Z</time>
      </trkpt>
      <trkpt lat="49.94329" lon="1.14896">
        <ele>87.7</ele>
        <time>2020-06-18T13:32:14Z</time>
      </trkpt>
      <trkpt lat="49.94332" lon="1.14902">
        <ele>87.7</ele>
        <time>2020-06-18T13:32:15Z</time>
      </trkpt>
      <trkpt lat="49.94335" lon="1.14906">
        <ele>87.8</ele>
        <time>2020-06-18T13:32:16Z</time>
      </trkpt>
      <trkpt lat="49.94338" lon="1.14911">
        <ele>87.8</ele>
        <time>2020-06-18T13:32:17Z</time>
      </trkpt>
      <trkpt lat="49.94341" lon="1.14917">
        <ele>87.8</ele>
        <time>2020-06-18T13:32:18Z</time>
      </trkpt>
      <trkpt lat="49.94345" lon="1.14922">
        <ele>87.9</ele>
        <time>2020-06-18T13:32:19Z</time>
      </trkpt>
      <trkpt lat="49.94349" lon="1.14927">
        <ele>87.9</ele>
        <time>2020-06-18T13:32:20Z</time>
      </trkpt>
      <trkpt lat="49.94353" lon="1.14932">
        <ele>88</ele>
        <time>2020-06-18T13:32:21Z</time>
      </trkpt>
      <trkpt lat="49.94356" lon="1.14938">
        <ele>88</ele>
        <time>2020-06-18T13:32:22Z</time>
      </trkpt>
      <trkpt lat="49.94359" lon="1.14943">
        <ele>88</ele>
        <time>2020-06-18T13:32:23Z</time>
      </trkpt>
      <trkpt lat="49.94362" lon="1.14948">
        <ele>88</ele>
        <time>2020-06-18T13:32:24Z</time>
      </trkpt>
      <trkpt lat="49.94366" lon="1.14953">
        <ele>88</ele>
        <time>2020-06-18T13:32:25Z</time>
      </trkpt>
      <trkpt lat="49.9437" lon="1.14957">
        <ele>88</ele>
        <time>2020-06-18T13:32:26Z</time>
      </trkpt>
      <trkpt lat="49.94374" lon="1.14962">
        <ele>88.1</ele>
        <time>2020-06-18T13:32:27Z</time>
      </trkpt>
      <trkpt lat="49.94377" lon="1.14967">
        <ele>88.1</ele>
        <time>2020-06-18T13:32:28Z</time>
      </trkpt>
      <trkpt lat="49.94381" lon="1.14971">
        <ele>88.1</ele>
        <time>2020-06-18T13:32:29Z</time>
      </trkpt>
      <trkpt lat="49.94384" lon="1.14975">
        <ele>88.1</ele>
        <time>2020-06-18T13:32:30Z</time>
      </trkpt>
      <trkpt lat="49.94388" lon="1.14978">
        <ele>88.1</ele>
        <time>2020-06-18T13:32:31Z</time>
      </trkpt>
      <trkpt lat="49.94391" lon="1.14982">
        <ele>88.1</ele>
        <time>2020-06-18T13:32:32Z</time>
      </trkpt>
      <trkpt lat="49.94395" lon="1.14985">
        <ele>88.1</ele>
        <time>2020-06-18T13:32:33Z</time>
      </trkpt>
      <trkpt lat="49.94398" lon="1.14989">
        <ele>88.2</ele>
        <time>2020-06-18T13:32:34Z</time>
      </trkpt>
      <trkpt lat="49.944" lon="1.14992">
        <ele>88.2</ele>
        <time>2020-06-18T13:32:35Z</time>
      </trkpt>
      <trkpt lat="49.94403" lon="1.14996">
        <ele>88.2</ele>
        <time>2020-06-18T13:32:36Z</time>
      </trkpt>
      <trkpt lat="49.94405" lon="1.15001">
        <ele>88.2</ele>
        <time>2020-06-18T13:32:37Z</time>
      </trkpt>
      <trkpt lat="49.94408" lon="1.15005">
        <ele>88.3</ele>
        <time>2020-06-18T13:32:38Z</time>
      </trkpt>
      <trkpt lat="49.94412" lon="1.1501">
        <ele>88.3</ele>
        <time>2020-06-18T13:32:39Z</time>
      </trkpt>
      <trkpt lat="49.94415" lon="1.15014">
        <ele>88.3</ele>
        <time>2020-06-18T13:32:40Z</time>
      </trkpt>
      <trkpt lat="49.94419" lon="1.15019">
        <ele>88.4</ele>
        <time>2020-06-18T13:32:41Z</time>
      </trkpt>
      <trkpt lat="49.94422" lon="1.15024">
        <ele>88.4</ele>
        <time>2020-06-18T13:32:42Z</time>
      </trkpt>
      <trkpt lat="49.94426" lon="1.15029">
        <ele>88.4</ele>
        <time>2020-06-18T13:32:43Z</time>
      </trkpt>
      <trkpt lat="49.94429" lon="1.15035">
        <ele>88.5</ele>
        <time>2020-06-18T13:32:44Z</time>
      </trkpt>
      <trkpt lat="49.94432" lon="1.1504">
        <ele>88.5</ele>
        <time>2020-06-18T13:32:45Z</time>
      </trkpt>
      <trkpt lat="49.94437" lon="1.15045">
        <ele>88.5</ele>
        <time>2020-06-18T13:32:46Z</time>
      </trkpt>
      <trkpt lat="49.94441" lon="1.1505">
        <ele>88.5</ele>
        <time>2020-06-18T13:32:47Z</time>
      </trkpt>
      <trkpt lat="49.94445" lon="1.15056">
        <ele>88.5</ele>
        <time>2020-06-18T13:32:48Z</time>
      </trkpt>
      <trkpt lat="49.94448" lon="1.15061">
        <ele>88.6</ele>
        <time>2020-06-18T13:32:49Z</time>
      </trkpt>
      <trkpt lat="49.94452" lon="1.15066">
        <ele>88.6</ele>
        <time>2020-06-18T13:32:50Z</time>
      </trkpt>
      <trkpt lat="49.94454" lon="1.15071">
        <ele>88.6</ele>
        <time>2020-06-18T13:32:51Z</time>
      </trkpt>
      <trkpt lat="49.94458" lon="1.15076">
        <ele>88.7</ele>
        <time>2020-06-18T13:32:52Z</time>
      </trkpt>
      <trkpt lat="49.94461" lon="1.15081">
        <ele>88.7</ele>
        <time>2020-06-18T13:32:53Z</time>
      </trkpt>
      <trkpt lat="49.94465" lon="1.15087">
        <ele>88.7</ele>
        <time>2020-06-18T13:32:54Z</time>
      </trkpt>
      <trkpt lat="49.94469" lon="1.15093">
        <ele>88.7</ele>
        <time>2020-06-18T13:32:55Z</time>
      </trkpt>
      <trkpt lat="49.94472" lon="1.151">
        <ele>88.7</ele>
        <time>2020-06-18T13:32:56Z</time>
      </trkpt>
      <trkpt lat="49.94475" lon="1.15106">
        <ele>88.7</ele>
        <time>2020-06-18T13:32:57Z</time>
      </trkpt>
      <trkpt lat="49.94478" lon="1.15113">
        <ele>88.7</ele>
        <time>2020-06-18T13:32:58Z</time>
      </trkpt>
      <trkpt lat="49.94481" lon="1.15119">
        <ele>88.7</ele>
        <time>2020-06-18T13:32:59Z</time>
      </trkpt>
      <trkpt lat="49.94484" lon="1.15126">
        <ele>88.7</ele>
        <time>2020-06-18T13:33:00Z</time>
      </trkpt>
      <trkpt lat="49.94487" lon="1.15132">
        <ele>88.7</ele>
        <time>2020-06-18T13:33:01Z</time>
      </trkpt>
      <trkpt lat="49.9449" lon="1.15138">
        <ele>88.7</ele>
        <time>2020-06-18T13:33:02Z</time>
      </trkpt>
      <trkpt lat="49.94493" lon="1.15145">
        <ele>88.7</ele>
        <time>2020-06-18T13:33:03Z</time>
      </trkpt>
      <trkpt lat="49.94496" lon="1.15151">
        <ele>88.7</ele>
        <time>2020-06-18T13:33:04Z</time>
      </trkpt>
      <trkpt lat="49.94499" lon="1.15157">
        <ele>88.7</ele>
        <time>2020-06-18T13:33:05Z</time>
      </trkpt>
      <trkpt lat="49.94502" lon="1.15163">
        <ele>88.7</ele>
        <time>2020-06-18T13:33:06Z</time>
      </trkpt>
      <trkpt lat="49.94506" lon="1.15169">
        <ele>88.8</ele>
        <time>2020-06-18T13:33:07Z</time>
      </trkpt>
      <trkpt lat="49.9451" lon="1.15175">
        <ele>88.8</ele>
        <time>2020-06-18T13:33:08Z</time>
      </trkpt>
      <trkpt lat="49.94513" lon="1.15181">
        <ele>88.8</ele>
        <time>2020-06-18T13:33:09Z</time>
      </trkpt>
      <trkpt lat="49.94517" lon="1.15186">
        <ele>88.9</ele>
        <time>2020-06-18T13:33:10Z</time>
      </trkpt>
      <trkpt lat="49.94521" lon="1.15192">
        <ele>88.9</ele>
        <time>2020-06-18T13:33:11Z</time>
      </trkpt>
      <trkpt lat="49.94524" lon="1.15197">
        <ele>89</ele>
        <time>2020-06-18T13:33:12Z</time>
      </trkpt>
      <trkpt lat="49.94528" lon="1.15203">
        <ele>89</ele>
        <time>2020-06-18T13:33:13Z</time>
      </trkpt>
      <trkpt lat="49.94531" lon="1.15209">
        <ele>89.1</ele>
        <time>2020-06-18T13:33:14Z</time>
      </trkpt>
      <trkpt lat="49.94534" lon="1.15214">
        <ele>89.1</ele>
        <time>2020-06-18T13:33:15Z</time>
      </trkpt>
      <trkpt lat="49.94538" lon="1.15219">
        <ele>89.1</ele>
        <time>2020-06-18T13:33:16Z</time>
      </trkpt>
      <trkpt lat="49.94541" lon="1.15225">
        <ele>89.2</ele>
        <time>2020-06-18T13:33:17Z</time>
      </trkpt>
      <trkpt lat="49.94544" lon="1.1523">
        <ele>89.2</ele>
        <time>2020-06-18T13:33:18Z</time>
      </trkpt>
      <trkpt lat="49.94548" lon="1.15234">
        <ele>89.2</ele>
        <time>2020-06-18T13:33:19Z</time>
      </trkpt>
      <trkpt lat="49.94551" lon="1.15239">
        <ele>89.3</ele>
        <time>2020-06-18T13:33:20Z</time>
      </trkpt>
      <trkpt lat="49.94555" lon="1.15243">
        <ele>89.4</ele>
        <time>2020-06-18T13:33:21Z</time>
      </trkpt>
      <trkpt lat="49.94559" lon="1.15249">
        <ele>89.5</ele>
        <time>2020-06-18T13:33:22Z</time>
      </trkpt>
      <trkpt lat="49.94563" lon="1.15254">
        <ele>89.6</ele>
        <time>2020-06-18T13:33:23Z</time>
      </trkpt>
      <trkpt lat="49.94566" lon="1.15261">
        <ele>89.7</ele>
        <time>2020-06-18T13:33:24Z</time>
      </trkpt>
      <trkpt lat="49.9457" lon="1.15268">
        <ele>89.8</ele>
        <time>2020-06-18T13:33:25Z</time>
      </trkpt>
      <trkpt lat="49.94574" lon="1.15274">
        <ele>89.9</ele>
        <time>2020-06-18T13:33:26Z</time>
      </trkpt>
      <trkpt lat="49.94578" lon="1.15281">
        <ele>90</ele>
        <time>2020-06-18T13:33:27Z</time>
      </trkpt>
      <trkpt lat="49.94582" lon="1.15287">
        <ele>90</ele>
        <time>2020-06-18T13:33:28Z</time>
      </trkpt>
      <trkpt lat="49.94585" lon="1.15294">
        <ele>90.1</ele>
        <time>2020-06-18T13:33:29Z</time>
      </trkpt>
      <trkpt lat="49.94589" lon="1.153">
        <ele>90.1</ele>
        <time>2020-06-18T13:33:30Z</time>
      </trkpt>
      <trkpt lat="49.94593" lon="1.15306">
        <ele>90.2</ele>
        <time>2020-06-18T13:33:31Z</time>
      </trkpt>
      <trkpt lat="49.94596" lon="1.15311">
        <ele>90.2</ele>
        <time>2020-06-18T13:33:32Z</time>
      </trkpt>
      <trkpt lat="49.94599" lon="1.15316">
        <ele>90.3</ele>
        <time>2020-06-18T13:33:33Z</time>
      </trkpt>
      <trkpt lat="49.94603" lon="1.15322">
        <ele>90.4</ele>
        <time>2020-06-18T13:33:34Z</time>
      </trkpt>
      <trkpt lat="49.94606" lon="1.15328">
        <ele>90.5</ele>
        <time>2020-06-18T13:33:35Z</time>
      </trkpt>
      <trkpt lat="49.9461" lon="1.15333">
        <ele>90.6</ele>
        <time>2020-06-18T13:33:36Z</time>
      </trkpt>
      <trkpt lat="49.94613" lon="1.1534">
        <ele>90.7</ele>
        <time>2020-06-18T13:33:37Z</time>
      </trkpt>
      <trkpt lat="49.94617" lon="1.15346">
        <ele>90.8</ele>
        <time>2020-06-18T13:33:38Z</time>
      </trkpt>
      <trkpt lat="49.9462" lon="1.15352">
        <ele>90.9</ele>
        <time>2020-06-18T13:33:39Z</time>
      </trkpt>
      <trkpt lat="49.94623" lon="1.15358">
        <ele>91</ele>
        <time>2020-06-18T13:33:40Z</time>
      </trkpt>
      <trkpt lat="49.94626" lon="1.15364">
        <ele>91.1</ele>
        <time>2020-06-18T13:33:41Z</time>
      </trkpt>
      <trkpt lat="49.9463" lon="1.15371">
        <ele>91.2</ele>
        <time>2020-06-18T13:33:42Z</time>
      </trkpt>
      <trkpt lat="49.94633" lon="1.15378">
        <ele>91.3</ele>
        <time>2020-06-18T13:33:43Z</time>
      </trkpt>
      <trkpt lat="49.94636" lon="1.15384">
        <ele>91.3</ele>
        <time>2020-06-18T13:33:44Z</time>
      </trkpt>
      <trkpt lat="49.94639" lon="1.15389">
        <ele>91.4</ele>
        <time>2020-06-18T13:33:45Z</time>
      </trkpt>
      <trkpt lat="49.94643" lon="1.15395">
        <ele>91.5</ele>
        <time>2020-06-18T13:33:46Z</time>
      </trkpt>
      <trkpt lat="49.94646" lon="1.15401">
        <ele>91.5</ele>
        <time>2020-06-18T13:33:47Z</time>
      </trkpt>
      <trkpt lat="49.94649" lon="1.15407">
        <ele>91.6</ele>
        <time>2020-06-18T13:33:48Z</time>
      </trkpt>
      <trkpt lat="49.94652" lon="1.15414">
        <ele>91.7</ele>
        <time>2020-06-18T13:33:49Z</time>
      </trkpt>
      <trkpt lat="49.94655" lon="1.1542">
        <ele>91.8</ele>
        <time>2020-06-18T13:33:50Z</time>
      </trkpt>
      <trkpt lat="49.94658" lon="1.15428">
        <ele>91.9</ele>
        <time>2020-06-18T13:33:51Z</time>
      </trkpt>
      <trkpt lat="49.94661" lon="1.15435">
        <ele>92.1</ele>
        <time>2020-06-18T13:33:52Z</time>
      </trkpt>
      <trkpt lat="49.94664" lon="1.15442">
        <ele>92.2</ele>
        <time>2020-06-18T13:33:53Z</time>
      </trkpt>
      <trkpt lat="49.94666" lon="1.15448">
        <ele>92.4</ele>
        <time>2020-06-18T13:33:54Z</time>
      </trkpt>
      <trkpt lat="49.94669" lon="1.15454">
        <ele>92.5</ele>
        <time>2020-06-18T13:33:55Z</time>
      </trkpt>
      <trkpt lat="49.94672" lon="1.15459">
        <ele>92.6</ele>
        <time>2020-06-18T13:33:56Z</time>
      </trkpt>
      <trkpt lat="49.94675" lon="1.15465">
        <ele>92.8</ele>
        <time>2020-06-18T13:33:57Z</time>
      </trkpt>
      <trkpt lat="49.94678" lon="1.15471">
        <ele>92.9</ele>
        <time>2020-06-18T13:33:58Z</time>
      </trkpt>
      <trkpt lat="49.94681" lon="1.15477">
        <ele>93</ele>
        <time>2020-06-18T13:33:59Z</time>
      </trkpt>
      <trkpt lat="49.94684" lon="1.15483">
        <ele>93</ele>
        <time>2020-06-18T13:34:00Z</time>
      </trkpt>
      <trkpt lat="49.94688" lon="1.1549">
        <ele>93.1</ele>
        <time>2020-06-18T13:34:01Z</time>
      </trkpt>
      <trkpt lat="49.94691" lon="1.15497">
        <ele>93.2</ele>
        <time>2020-06-18T13:34:02Z</time>
      </trkpt>
      <trkpt lat="49.94695" lon="1.15503">
        <ele>93.3</ele>
        <time>2020-06-18T13:34:03Z</time>
      </trkpt>
      <trkpt lat="49.94698" lon="1.15509">
        <ele>93.4</ele>
        <time>2020-06-18T13:34:04Z</time>
      </trkpt>
      <trkpt lat="49.94701" lon="1.15515">
        <ele>93.4</ele>
        <time>2020-06-18T13:34:05Z</time>
      </trkpt>
      <trkpt lat="49.94704" lon="1.15521">
        <ele>93.4</ele>
        <time>2020-06-18T13:34:06Z</time>
      </trkpt>
      <trkpt lat="49.94707" lon="1.15527">
        <ele>93.5</ele>
        <time>2020-06-18T13:34:07Z</time>
      </trkpt>
      <trkpt lat="49.9471" lon="1.15533">
        <ele>93.5</ele>
        <time>2020-06-18T13:34:08Z</time>
      </trkpt>
      <trkpt lat="49.94713" lon="1.15539">
        <ele>93.6</ele>
        <time>2020-06-18T13:34:09Z</time>
      </trkpt>
      <trkpt lat="49.94717" lon="1.15546">
        <ele>93.6</ele>
        <time>2020-06-18T13:34:10Z</time>
      </trkpt>
      <trkpt lat="49.9472" lon="1.15552">
        <ele>93.7</ele>
        <time>2020-06-18T13:34:11Z</time>
      </trkpt>
      <trkpt lat="49.94723" lon="1.15558">
        <ele>93.7</ele>
        <time>2020-06-18T13:34:12Z</time>
      </trkpt>
      <trkpt lat="49.94726" lon="1.15564">
        <ele>93.8</ele>
        <time>2020-06-18T13:34:13Z</time>
      </trkpt>
      <trkpt lat="49.94729" lon="1.1557">
        <ele>93.9</ele>
        <time>2020-06-18T13:34:14Z</time>
      </trkpt>
      <trkpt lat="49.94733" lon="1.15577">
        <ele>93.9</ele>
        <time>2020-06-18T13:34:15Z</time>
      </trkpt>
      <trkpt lat="49.94736" lon="1.15585">
        <ele>94</ele>
        <time>2020-06-18T13:34:16Z</time>
      </trkpt>
      <trkpt lat="49.94739" lon="1.15592">
        <ele>94</ele>
        <time>2020-06-18T13:34:17Z</time>
      </trkpt>
      <trkpt lat="49.94741" lon="1.15599">
        <ele>94</ele>
        <time>2020-06-18T13:34:18Z</time>
      </trkpt>
      <trkpt lat="49.94744" lon="1.15606">
        <ele>94</ele>
        <time>2020-06-18T13:34:19Z</time>
      </trkpt>
      <trkpt lat="49.94746" lon="1.15613">
        <ele>94</ele>
        <time>2020-06-18T13:34:20Z</time>
      </trkpt>
      <trkpt lat="49.94749" lon="1.1562">
        <ele>94</ele>
        <time>2020-06-18T13:34:21Z</time>
      </trkpt>
      <trkpt lat="49.94751" lon="1.15626">
        <ele>94</ele>
        <time>2020-06-18T13:34:22Z</time>
      </trkpt>
      <trkpt lat="49.94754" lon="1.15633">
        <ele>94</ele>
        <time>2020-06-18T13:34:23Z</time>
      </trkpt>
      <trkpt lat="49.94757" lon="1.1564">
        <ele>94</ele>
        <time>2020-06-18T13:34:24Z</time>
      </trkpt>
      <trkpt lat="49.94759" lon="1.15647">
        <ele>94</ele>
        <time>2020-06-18T13:34:25Z</time>
      </trkpt>
      <trkpt lat="49.94761" lon="1.15655">
        <ele>94</ele>
        <time>2020-06-18T13:34:26Z</time>
      </trkpt>
      <trkpt lat="49.94763" lon="1.15663">
        <ele>94</ele>
        <time>2020-06-18T13:34:27Z</time>
      </trkpt>
      <trkpt lat="49.94765" lon="1.15671">
        <ele>94</ele>
        <time>2020-06-18T13:34:28Z</time>
      </trkpt>
      <trkpt lat="49.94767" lon="1.15679">
        <ele>93.9</ele>
        <time>2020-06-18T13:34:29Z</time>
      </trkpt>
      <trkpt lat="49.94768" lon="1.15688">
        <ele>93.9</ele>
        <time>2020-06-18T13:34:30Z</time>
      </trkpt>
      <trkpt lat="49.9477" lon="1.15695">
        <ele>93.9</ele>
        <time>2020-06-18T13:34:31Z</time>
      </trkpt>
      <trkpt lat="49.94771" lon="1.15702">
        <ele>93.9</ele>
        <time>2020-06-18T13:34:32Z</time>
      </trkpt>
      <trkpt lat="49.94773" lon="1.1571">
        <ele>93.9</ele>
        <time>2020-06-18T13:34:33Z</time>
      </trkpt>
      <trkpt lat="49.94775" lon="1.15718">
        <ele>94</ele>
        <time>2020-06-18T13:34:34Z</time>
      </trkpt>
      <trkpt lat="49.94776" lon="1.15725">
        <ele>94</ele>
        <time>2020-06-18T13:34:35Z</time>
      </trkpt>
      <trkpt lat="49.94777" lon="1.15734">
        <ele>94</ele>
        <time>2020-06-18T13:34:36Z</time>
      </trkpt>
      <trkpt lat="49.94778" lon="1.15742">
        <ele>94.1</ele>
        <time>2020-06-18T13:34:37Z</time>
      </trkpt>
      <trkpt lat="49.94779" lon="1.1575">
        <ele>94.1</ele>
        <time>2020-06-18T13:34:38Z</time>
      </trkpt>
      <trkpt lat="49.94781" lon="1.15758">
        <ele>94.1</ele>
        <time>2020-06-18T13:34:39Z</time>
      </trkpt>
      <trkpt lat="49.94782" lon="1.15766">
        <ele>94.2</ele>
        <time>2020-06-18T13:34:40Z</time>
      </trkpt>
      <trkpt lat="49.94783" lon="1.15773">
        <ele>94.2</ele>
        <time>2020-06-18T13:34:41Z</time>
      </trkpt>
      <trkpt lat="49.94784" lon="1.15782">
        <ele>94.2</ele>
        <time>2020-06-18T13:34:42Z</time>
      </trkpt>
      <trkpt lat="49.94786" lon="1.1579">
        <ele>94.2</ele>
        <time>2020-06-18T13:34:43Z</time>
      </trkpt>
      <trkpt lat="49.94788" lon="1.15798">
        <ele>94.3</ele>
        <time>2020-06-18T13:34:44Z</time>
      </trkpt>
      <trkpt lat="49.94789" lon="1.15806">
        <ele>94.3</ele>
        <time>2020-06-18T13:34:45Z</time>
      </trkpt>
      <trkpt lat="49.94791" lon="1.15813">
        <ele>94.4</ele>
        <time>2020-06-18T13:34:46Z</time>
      </trkpt>
      <trkpt lat="49.94792" lon="1.15821">
        <ele>94.4</ele>
        <time>2020-06-18T13:34:47Z</time>
      </trkpt>
      <trkpt lat="49.94794" lon="1.1583">
        <ele>94.5</ele>
        <time>2020-06-18T13:34:48Z</time>
      </trkpt>
      <trkpt lat="49.94796" lon="1.15837">
        <ele>94.6</ele>
        <time>2020-06-18T13:34:49Z</time>
      </trkpt>
      <trkpt lat="49.94798" lon="1.15844">
        <ele>94.6</ele>
        <time>2020-06-18T13:34:50Z</time>
      </trkpt>
      <trkpt lat="49.948" lon="1.15852">
        <ele>94.7</ele>
        <time>2020-06-18T13:34:51Z</time>
      </trkpt>
      <trkpt lat="49.94801" lon="1.1586">
        <ele>94.8</ele>
        <time>2020-06-18T13:34:52Z</time>
      </trkpt>
      <trkpt lat="49.94803" lon="1.15868">
        <ele>94.8</ele>
        <time>2020-06-18T13:34:53Z</time>
      </trkpt>
      <trkpt lat="49.94805" lon="1.15875">
        <ele>94.9</ele>
        <time>2020-06-18T13:34:54Z</time>
      </trkpt>
      <trkpt lat="49.94807" lon="1.15883">
        <ele>94.9</ele>
        <time>2020-06-18T13:34:55Z</time>
      </trkpt>
      <trkpt lat="49.94809" lon="1.1589">
        <ele>95</ele>
        <time>2020-06-18T13:34:56Z</time>
      </trkpt>
      <trkpt lat="49.94812" lon="1.15896">
        <ele>95</ele>
        <time>2020-06-18T13:34:57Z</time>
      </trkpt>
      <trkpt lat="49.94814" lon="1.15904">
        <ele>95.1</ele>
        <time>2020-06-18T13:34:58Z</time>
      </trkpt>
      <trkpt lat="49.94816" lon="1.15911">
        <ele>95.1</ele>
        <time>2020-06-18T13:34:59Z</time>
      </trkpt>
      <trkpt lat="49.94818" lon="1.15919">
        <ele>95.1</ele>
        <time>2020-06-18T13:35:00Z</time>
      </trkpt>
      <trkpt lat="49.94821" lon="1.15927">
        <ele>95.2</ele>
        <time>2020-06-18T13:35:01Z</time>
      </trkpt>
      <trkpt lat="49.94823" lon="1.15935">
        <ele>95.2</ele>
        <time>2020-06-18T13:35:02Z</time>
      </trkpt>
      <trkpt lat="49.94825" lon="1.15942">
        <ele>95.3</ele>
        <time>2020-06-18T13:35:03Z</time>
      </trkpt>
      <trkpt lat="49.94827" lon="1.1595">
        <ele>95.4</ele>
        <time>2020-06-18T13:35:04Z</time>
      </trkpt>
      <trkpt lat="49.94828" lon="1.15959">
        <ele>95.4</ele>
        <time>2020-06-18T13:35:05Z</time>
      </trkpt>
      <trkpt lat="49.9483" lon="1.15966">
        <ele>95.5</ele>
        <time>2020-06-18T13:35:06Z</time>
      </trkpt>
      <trkpt lat="49.94832" lon="1.15975">
        <ele>95.6</ele>
        <time>2020-06-18T13:35:07Z</time>
      </trkpt>
      <trkpt lat="49.94833" lon="1.15984">
        <ele>95.7</ele>
        <time>2020-06-18T13:35:08Z</time>
      </trkpt>
      <trkpt lat="49.94835" lon="1.15993">
        <ele>95.8</ele>
        <time>2020-06-18T13:35:09Z</time>
      </trkpt>
      <trkpt lat="49.94837" lon="1.16001">
        <ele>95.9</ele>
        <time>2020-06-18T13:35:10Z</time>
      </trkpt>
      <trkpt lat="49.94839" lon="1.1601">
        <ele>96</ele>
        <time>2020-06-18T13:35:11Z</time>
      </trkpt>
      <trkpt lat="49.9484" lon="1.16019">
        <ele>96.1</ele>
        <time>2020-06-18T13:35:12Z</time>
      </trkpt>
      <trkpt lat="49.94843" lon="1.16029">
        <ele>96.3</ele>
        <time>2020-06-18T13:35:13Z</time>
      </trkpt>
      <trkpt lat="49.94845" lon="1.16038">
        <ele>96.5</ele>
        <time>2020-06-18T13:35:14Z</time>
      </trkpt>
      <trkpt lat="49.94847" lon="1.16047">
        <ele>96.7</ele>
        <time>2020-06-18T13:35:15Z</time>
      </trkpt>
      <trkpt lat="49.94849" lon="1.16056">
        <ele>96.8</ele>
        <time>2020-06-18T13:35:16Z</time>
      </trkpt>
      <trkpt lat="49.94851" lon="1.16066">
        <ele>97</ele>
        <time>2020-06-18T13:35:17Z</time>
      </trkpt>
      <trkpt lat="49.94853" lon="1.16075">
        <ele>97.1</ele>
        <time>2020-06-18T13:35:18Z</time>
      </trkpt>
      <trkpt lat="49.94854" lon="1.16083">
        <ele>97.2</ele>
        <time>2020-06-18T13:35:19Z</time>
      </trkpt>
      <trkpt lat="49.94856" lon="1.16093">
        <ele>97.3</ele>
        <time>2020-06-18T13:35:20Z</time>
      </trkpt>
      <trkpt lat="49.94857" lon="1.16101">
        <ele>97.4</ele>
        <time>2020-06-18T13:35:21Z</time>
      </trkpt>
      <trkpt lat="49.94859" lon="1.1611">
        <ele>97.6</ele>
        <time>2020-06-18T13:35:22Z</time>
      </trkpt>
      <trkpt lat="49.94861" lon="1.16118">
        <ele>97.6</ele>
        <time>2020-06-18T13:35:23Z</time>
      </trkpt>
      <trkpt lat="49.94863" lon="1.16127">
        <ele>97.8</ele>
        <time>2020-06-18T13:35:24Z</time>
      </trkpt>
      <trkpt lat="49.94864" lon="1.16136">
        <ele>97.9</ele>
        <time>2020-06-18T13:35:25Z</time>
      </trkpt>
      <trkpt lat="49.94867" lon="1.16145">
        <ele>98</ele>
        <time>2020-06-18T13:35:26Z</time>
      </trkpt>
      <trkpt lat="49.94869" lon="1.16154">
        <ele>98.1</ele>
        <time>2020-06-18T13:35:27Z</time>
      </trkpt>
      <trkpt lat="49.9487" lon="1.16162">
        <ele>98.2</ele>
        <time>2020-06-18T13:35:28Z</time>
      </trkpt>
      <trkpt lat="49.94871" lon="1.1617">
        <ele>98.2</ele>
        <time>2020-06-18T13:35:29Z</time>
      </trkpt>
      <trkpt lat="49.94872" lon="1.16179">
        <ele>98.3</ele>
        <time>2020-06-18T13:35:30Z</time>
      </trkpt>
      <trkpt lat="49.94874" lon="1.16188">
        <ele>98.4</ele>
        <time>2020-06-18T13:35:31Z</time>
      </trkpt>
      <trkpt lat="49.94875" lon="1.16197">
        <ele>98.4</ele>
        <time>2020-06-18T13:35:32Z</time>
      </trkpt>
      <trkpt lat="49.94877" lon="1.16206">
        <ele>98.5</ele>
        <time>2020-06-18T13:35:33Z</time>
      </trkpt>
      <trkpt lat="49.94879" lon="1.16213">
        <ele>98.5</ele>
        <time>2020-06-18T13:35:34Z</time>
      </trkpt>
      <trkpt lat="49.94881" lon="1.16222">
        <ele>98.6</ele>
        <time>2020-06-18T13:35:35Z</time>
      </trkpt>
      <trkpt lat="49.94882" lon="1.16231">
        <ele>98.7</ele>
        <time>2020-06-18T13:35:36Z</time>
      </trkpt>
      <trkpt lat="49.94883" lon="1.16239">
        <ele>98.7</ele>
        <time>2020-06-18T13:35:37Z</time>
      </trkpt>
      <trkpt lat="49.94884" lon="1.16246">
        <ele>98.8</ele>
        <time>2020-06-18T13:35:38Z</time>
      </trkpt>
      <trkpt lat="49.94885" lon="1.16253">
        <ele>98.9</ele>
        <time>2020-06-18T13:35:39Z</time>
      </trkpt>
      <trkpt lat="49.94886" lon="1.1626">
        <ele>98.9</ele>
        <time>2020-06-18T13:35:40Z</time>
      </trkpt>
      <trkpt lat="49.94887" lon="1.16267">
        <ele>99</ele>
        <time>2020-06-18T13:35:41Z</time>
      </trkpt>
      <trkpt lat="49.94888" lon="1.16273">
        <ele>99.1</ele>
        <time>2020-06-18T13:35:42Z</time>
      </trkpt>
      <trkpt lat="49.94889" lon="1.1628">
        <ele>99.1</ele>
        <time>2020-06-18T13:35:43Z</time>
      </trkpt>
      <trkpt lat="49.9489" lon="1.16288">
        <ele>99.2</ele>
        <time>2020-06-18T13:35:44Z</time>
      </trkpt>
      <trkpt lat="49.94891" lon="1.16295">
        <ele>99.3</ele>
        <time>2020-06-18T13:35:45Z</time>
      </trkpt>
      <trkpt lat="49.94892" lon="1.16303">
        <ele>99.3</ele>
        <time>2020-06-18T13:35:46Z</time>
      </trkpt>
      <trkpt lat="49.94894" lon="1.16312">
        <ele>99.4</ele>
        <time>2020-06-18T13:35:47Z</time>
      </trkpt>
      <trkpt lat="49.94896" lon="1.1632">
        <ele>99.4</ele>
        <time>2020-06-18T13:35:48Z</time>
      </trkpt>
      <trkpt lat="49.94898" lon="1.16329">
        <ele>99.5</ele>
        <time>2020-06-18T13:35:49Z</time>
      </trkpt>
      <trkpt lat="49.94899" lon="1.16339">
        <ele>99.5</ele>
        <time>2020-06-18T13:35:50Z</time>
      </trkpt>
      <trkpt lat="49.94901" lon="1.16348">
        <ele>99.5</ele>
        <time>2020-06-18T13:35:51Z</time>
      </trkpt>
      <trkpt lat="49.94904" lon="1.16357">
        <ele>99.5</ele>
        <time>2020-06-18T13:35:52Z</time>
      </trkpt>
      <trkpt lat="49.94906" lon="1.16366">
        <ele>99.6</ele>
        <time>2020-06-18T13:35:53Z</time>
      </trkpt>
      <trkpt lat="49.94908" lon="1.16373">
        <ele>99.6</ele>
        <time>2020-06-18T13:35:54Z</time>
      </trkpt>
      <trkpt lat="49.94909" lon="1.16381">
        <ele>99.6</ele>
        <time>2020-06-18T13:35:55Z</time>
      </trkpt>
      <trkpt lat="49.94911" lon="1.1639">
        <ele>99.6</ele>
        <time>2020-06-18T13:35:56Z</time>
      </trkpt>
      <trkpt lat="49.94913" lon="1.16399">
        <ele>99.7</ele>
        <time>2020-06-18T13:35:57Z</time>
      </trkpt>
      <trkpt lat="49.94914" lon="1.16408">
        <ele>99.7</ele>
        <time>2020-06-18T13:35:58Z</time>
      </trkpt>
      <trkpt lat="49.94916" lon="1.16417">
        <ele>99.7</ele>
        <time>2020-06-18T13:35:59Z</time>
      </trkpt>
      <trkpt lat="49.94918" lon="1.16426">
        <ele>99.7</ele>
        <time>2020-06-18T13:36:00Z</time>
      </trkpt>
      <trkpt lat="49.9492" lon="1.16434">
        <ele>99.6</ele>
        <time>2020-06-18T13:36:01Z</time>
      </trkpt>
      <trkpt lat="49.94921" lon="1.16442">
        <ele>99.5</ele>
        <time>2020-06-18T13:36:02Z</time>
      </trkpt>
      <trkpt lat="49.94922" lon="1.16448">
        <ele>99.4</ele>
        <time>2020-06-18T13:36:03Z</time>
      </trkpt>
      <trkpt lat="49.94921" lon="1.16455">
        <ele>99.3</ele>
        <time>2020-06-18T13:36:04Z</time>
      </trkpt>
      <trkpt lat="49.94921" lon="1.16462">
        <ele>99.3</ele>
        <time>2020-06-18T13:36:05Z</time>
      </trkpt>
      <trkpt lat="49.94922" lon="1.16469">
        <ele>99.3</ele>
        <time>2020-06-18T13:36:06Z</time>
      </trkpt>
      <trkpt lat="49.94924" lon="1.16476">
        <ele>99.3</ele>
        <time>2020-06-18T13:36:07Z</time>
      </trkpt>
      <trkpt lat="49.94926" lon="1.16484">
        <ele>99.3</ele>
        <time>2020-06-18T13:36:08Z</time>
      </trkpt>
      <trkpt lat="49.94928" lon="1.16492">
        <ele>99.3</ele>
        <time>2020-06-18T13:36:09Z</time>
      </trkpt>
      <trkpt lat="49.94929" lon="1.16501">
        <ele>99.3</ele>
        <time>2020-06-18T13:36:10Z</time>
      </trkpt>
      <trkpt lat="49.9493" lon="1.1651">
        <ele>99.4</ele>
        <time>2020-06-18T13:36:11Z</time>
      </trkpt>
      <trkpt lat="49.9493" lon="1.1652">
        <ele>99.5</ele>
        <time>2020-06-18T13:36:12Z</time>
      </trkpt>
      <trkpt lat="49.9493" lon="1.16529">
        <ele>99.6</ele>
        <time>2020-06-18T13:36:13Z</time>
      </trkpt>
      <trkpt lat="49.94931" lon="1.16538">
        <ele>99.7</ele>
        <time>2020-06-18T13:36:14Z</time>
      </trkpt>
      <trkpt lat="49.94931" lon="1.16548">
        <ele>99.8</ele>
        <time>2020-06-18T13:36:15Z</time>
      </trkpt>
      <trkpt lat="49.94931" lon="1.16558">
        <ele>99.9</ele>
        <time>2020-06-18T13:36:16Z</time>
      </trkpt>
      <trkpt lat="49.94932" lon="1.16568">
        <ele>100</ele>
        <time>2020-06-18T13:36:17Z</time>
      </trkpt>
      <trkpt lat="49.94933" lon="1.16577">
        <ele>100.1</ele>
        <time>2020-06-18T13:36:18Z</time>
      </trkpt>
      <trkpt lat="49.94933" lon="1.16585">
        <ele>100.2</ele>
        <time>2020-06-18T13:36:19Z</time>
      </trkpt>
      <trkpt lat="49.94933" lon="1.16594">
        <ele>100.2</ele>
        <time>2020-06-18T13:36:20Z</time>
      </trkpt>
      <trkpt lat="49.94934" lon="1.16602">
        <ele>100.3</ele>
        <time>2020-06-18T13:36:21Z</time>
      </trkpt>
      <trkpt lat="49.94935" lon="1.16611">
        <ele>100.3</ele>
        <time>2020-06-18T13:36:22Z</time>
      </trkpt>
      <trkpt lat="49.94937" lon="1.16619">
        <ele>100.2</ele>
        <time>2020-06-18T13:36:23Z</time>
      </trkpt>
      <trkpt lat="49.94938" lon="1.16627">
        <ele>100.2</ele>
        <time>2020-06-18T13:36:24Z</time>
      </trkpt>
      <trkpt lat="49.94939" lon="1.16635">
        <ele>100.1</ele>
        <time>2020-06-18T13:36:25Z</time>
      </trkpt>
      <trkpt lat="49.94941" lon="1.16644">
        <ele>100</ele>
        <time>2020-06-18T13:36:26Z</time>
      </trkpt>
      <trkpt lat="49.94944" lon="1.16652">
        <ele>100</ele>
        <time>2020-06-18T13:36:27Z</time>
      </trkpt>
      <trkpt lat="49.94946" lon="1.16662">
        <ele>99.9</ele>
        <time>2020-06-18T13:36:28Z</time>
      </trkpt>
      <trkpt lat="49.94948" lon="1.16672">
        <ele>99.7</ele>
        <time>2020-06-18T13:36:29Z</time>
      </trkpt>
      <trkpt lat="49.94949" lon="1.16681">
        <ele>99.6</ele>
        <time>2020-06-18T13:36:30Z</time>
      </trkpt>
      <trkpt lat="49.9495" lon="1.16691">
        <ele>99.5</ele>
        <time>2020-06-18T13:36:31Z</time>
      </trkpt>
      <trkpt lat="49.94952" lon="1.167">
        <ele>99.4</ele>
        <time>2020-06-18T13:36:32Z</time>
      </trkpt>
      <trkpt lat="49.94953" lon="1.16709">
        <ele>99.3</ele>
        <time>2020-06-18T13:36:33Z</time>
      </trkpt>
      <trkpt lat="49.94955" lon="1.16719">
        <ele>99.2</ele>
        <time>2020-06-18T13:36:34Z</time>
      </trkpt>
      <trkpt lat="49.94957" lon="1.16729">
        <ele>99.1</ele>
        <time>2020-06-18T13:36:35Z</time>
      </trkpt>
      <trkpt lat="49.94959" lon="1.16739">
        <ele>98.9</ele>
        <time>2020-06-18T13:36:36Z</time>
      </trkpt>
      <trkpt lat="49.94961" lon="1.1675">
        <ele>98.7</ele>
        <time>2020-06-18T13:36:37Z</time>
      </trkpt>
      <trkpt lat="49.94964" lon="1.16762">
        <ele>98.5</ele>
        <time>2020-06-18T13:36:38Z</time>
      </trkpt>
      <trkpt lat="49.94966" lon="1.16774">
        <ele>98.2</ele>
        <time>2020-06-18T13:36:39Z</time>
      </trkpt>
      <trkpt lat="49.94969" lon="1.16784">
        <ele>98</ele>
        <time>2020-06-18T13:36:40Z</time>
      </trkpt>
      <trkpt lat="49.94973" lon="1.16795">
        <ele>97.7</ele>
        <time>2020-06-18T13:36:41Z</time>
      </trkpt>
      <trkpt lat="49.94976" lon="1.16806">
        <ele>97.5</ele>
        <time>2020-06-18T13:36:42Z</time>
      </trkpt>
      <trkpt lat="49.9498" lon="1.16817">
        <ele>97.3</ele>
        <time>2020-06-18T13:36:43Z</time>
      </trkpt>
      <trkpt lat="49.94984" lon="1.16828">
        <ele>97</ele>
        <time>2020-06-18T13:36:44Z</time>
      </trkpt>
      <trkpt lat="49.94988" lon="1.16839">
        <ele>96.8</ele>
        <time>2020-06-18T13:36:45Z</time>
      </trkpt>
      <trkpt lat="49.94992" lon="1.1685">
        <ele>96.5</ele>
        <time>2020-06-18T13:36:46Z</time>
      </trkpt>
      <trkpt lat="49.94996" lon="1.16862">
        <ele>96.3</ele>
        <time>2020-06-18T13:36:47Z</time>
      </trkpt>
      <trkpt lat="49.95001" lon="1.16873">
        <ele>96.1</ele>
        <time>2020-06-18T13:36:48Z</time>
      </trkpt>
      <trkpt lat="49.95005" lon="1.16884">
        <ele>95.9</ele>
        <time>2020-06-18T13:36:49Z</time>
      </trkpt>
      <trkpt lat="49.9501" lon="1.16896">
        <ele>95.7</ele>
        <time>2020-06-18T13:36:50Z</time>
      </trkpt>
      <trkpt lat="49.95015" lon="1.16907">
        <ele>95.5</ele>
        <time>2020-06-18T13:36:51Z</time>
      </trkpt>
      <trkpt lat="49.9502" lon="1.16918">
        <ele>95.4</ele>
        <time>2020-06-18T13:36:52Z</time>
      </trkpt>
      <trkpt lat="49.95025" lon="1.16929">
        <ele>95.3</ele>
        <time>2020-06-18T13:36:53Z</time>
      </trkpt>
      <trkpt lat="49.9503" lon="1.1694">
        <ele>95.1</ele>
        <time>2020-06-18T13:36:54Z</time>
      </trkpt>
      <trkpt lat="49.95034" lon="1.1695">
        <ele>95.1</ele>
        <time>2020-06-18T13:36:55Z</time>
      </trkpt>
      <trkpt lat="49.95038" lon="1.1696">
        <ele>95</ele>
        <time>2020-06-18T13:36:56Z</time>
      </trkpt>
      <trkpt lat="49.95042" lon="1.16971">
        <ele>95</ele>
        <time>2020-06-18T13:36:57Z</time>
      </trkpt>
      <trkpt lat="49.95047" lon="1.16982">
        <ele>95</ele>
        <time>2020-06-18T13:36:58Z</time>
      </trkpt>
      <trkpt lat="49.95051" lon="1.16992">
        <ele>94.9</ele>
        <time>2020-06-18T13:36:59Z</time>
      </trkpt>
      <trkpt lat="49.95056" lon="1.17002">
        <ele>94.7</ele>
        <time>2020-06-18T13:37:00Z</time>
      </trkpt>
      <trkpt lat="49.9506" lon="1.17012">
        <ele>94.6</ele>
        <time>2020-06-18T13:37:01Z</time>
      </trkpt>
      <trkpt lat="49.95064" lon="1.17022">
        <ele>94.4</ele>
        <time>2020-06-18T13:37:02Z</time>
      </trkpt>
      <trkpt lat="49.95067" lon="1.17032">
        <ele>94.3</ele>
        <time>2020-06-18T13:37:03Z</time>
      </trkpt>
      <trkpt lat="49.95071" lon="1.17042">
        <ele>94.1</ele>
        <time>2020-06-18T13:37:04Z</time>
      </trkpt>
      <trkpt lat="49.95075" lon="1.17052">
        <ele>93.9</ele>
        <time>2020-06-18T13:37:05Z</time>
      </trkpt>
      <trkpt lat="49.9508" lon="1.17062">
        <ele>93.7</ele>
        <time>2020-06-18T13:37:06Z</time>
      </trkpt>
      <trkpt lat="49.95084" lon="1.17071">
        <ele>93.5</ele>
        <time>2020-06-18T13:37:07Z</time>
      </trkpt>
      <trkpt lat="49.95088" lon="1.1708">
        <ele>93.3</ele>
        <time>2020-06-18T13:37:08Z</time>
      </trkpt>
      <trkpt lat="49.95092" lon="1.17089">
        <ele>93</ele>
        <time>2020-06-18T13:37:09Z</time>
      </trkpt>
      <trkpt lat="49.95096" lon="1.17098">
        <ele>92.7</ele>
        <time>2020-06-18T13:37:10Z</time>
      </trkpt>
      <trkpt lat="49.95099" lon="1.17106">
        <ele>92.4</ele>
        <time>2020-06-18T13:37:11Z</time>
      </trkpt>
      <trkpt lat="49.95103" lon="1.17114">
        <ele>92</ele>
        <time>2020-06-18T13:37:12Z</time>
      </trkpt>
      <trkpt lat="49.95107" lon="1.17123">
        <ele>91.6</ele>
        <time>2020-06-18T13:37:13Z</time>
      </trkpt>
      <trkpt lat="49.95111" lon="1.17132">
        <ele>91.2</ele>
        <time>2020-06-18T13:37:14Z</time>
      </trkpt>
      <trkpt lat="49.95116" lon="1.17141">
        <ele>90.8</ele>
        <time>2020-06-18T13:37:15Z</time>
      </trkpt>
      <trkpt lat="49.9512" lon="1.17151">
        <ele>90.3</ele>
        <time>2020-06-18T13:37:16Z</time>
      </trkpt>
      <trkpt lat="49.95124" lon="1.17161">
        <ele>89.8</ele>
        <time>2020-06-18T13:37:17Z</time>
      </trkpt>
      <trkpt lat="49.95129" lon="1.1717">
        <ele>89.4</ele>
        <time>2020-06-18T13:37:18Z</time>
      </trkpt>
      <trkpt lat="49.95134" lon="1.17181">
        <ele>88.9</ele>
        <time>2020-06-18T13:37:19Z</time>
      </trkpt>
      <trkpt lat="49.95139" lon="1.1719">
        <ele>88.5</ele>
        <time>2020-06-18T13:37:20Z</time>
      </trkpt>
      <trkpt lat="49.95143" lon="1.17202">
        <ele>87.9</ele>
        <time>2020-06-18T13:37:21Z</time>
      </trkpt>
      <trkpt lat="49.95148" lon="1.17213">
        <ele>87.6</ele>
        <time>2020-06-18T13:37:22Z</time>
      </trkpt>
      <trkpt lat="49.95153" lon="1.17224">
        <ele>87.3</ele>
        <time>2020-06-18T13:37:23Z</time>
      </trkpt>
      <trkpt lat="49.95158" lon="1.17235">
        <ele>87.1</ele>
        <time>2020-06-18T13:37:24Z</time>
      </trkpt>
      <trkpt lat="49.95164" lon="1.17247">
        <ele>86.8</ele>
        <time>2020-06-18T13:37:25Z</time>
      </trkpt>
      <trkpt lat="49.95169" lon="1.17258">
        <ele>86.6</ele>
        <time>2020-06-18T13:37:26Z</time>
      </trkpt>
      <trkpt lat="49.95175" lon="1.17269">
        <ele>86.5</ele>
        <time>2020-06-18T13:37:27Z</time>
      </trkpt>
      <trkpt lat="49.9518" lon="1.17281">
        <ele>86.4</ele>
        <time>2020-06-18T13:37:28Z</time>
      </trkpt>
      <trkpt lat="49.95184" lon="1.17291">
        <ele>86.3</ele>
        <time>2020-06-18T13:37:29Z</time>
      </trkpt>
      <trkpt lat="49.95189" lon="1.17301">
        <ele>86.3</ele>
        <time>2020-06-18T13:37:30Z</time>
      </trkpt>
      <trkpt lat="49.95194" lon="1.17312">
        <ele>86.2</ele>
        <time>2020-06-18T13:37:31Z</time>
      </trkpt>
      <trkpt lat="49.95198" lon="1.17324">
        <ele>86.2</ele>
        <time>2020-06-18T13:37:32Z</time>
      </trkpt>
      <trkpt lat="49.95203" lon="1.17335">
        <ele>86.1</ele>
        <time>2020-06-18T13:37:33Z</time>
      </trkpt>
      <trkpt lat="49.95207" lon="1.17346">
        <ele>86.1</ele>
        <time>2020-06-18T13:37:34Z</time>
      </trkpt>
      <trkpt lat="49.95212" lon="1.17357">
        <ele>86</ele>
        <time>2020-06-18T13:37:35Z</time>
      </trkpt>
      <trkpt lat="49.95216" lon="1.17368">
        <ele>86</ele>
        <time>2020-06-18T13:37:36Z</time>
      </trkpt>
      <trkpt lat="49.95219" lon="1.17378">
        <ele>86.1</ele>
        <time>2020-06-18T13:37:37Z</time>
      </trkpt>
      <trkpt lat="49.95223" lon="1.17389">
        <ele>86.1</ele>
        <time>2020-06-18T13:37:38Z</time>
      </trkpt>
      <trkpt lat="49.95226" lon="1.17401">
        <ele>86.2</ele>
        <time>2020-06-18T13:37:39Z</time>
      </trkpt>
      <trkpt lat="49.95229" lon="1.17412">
        <ele>86.2</ele>
        <time>2020-06-18T13:37:40Z</time>
      </trkpt>
      <trkpt lat="49.95232" lon="1.17423">
        <ele>86.2</ele>
        <time>2020-06-18T13:37:41Z</time>
      </trkpt>
      <trkpt lat="49.95235" lon="1.17435">
        <ele>86.3</ele>
        <time>2020-06-18T13:37:42Z</time>
      </trkpt>
      <trkpt lat="49.95239" lon="1.17445">
        <ele>86.3</ele>
        <time>2020-06-18T13:37:43Z</time>
      </trkpt>
      <trkpt lat="49.95242" lon="1.17456">
        <ele>86.4</ele>
        <time>2020-06-18T13:37:44Z</time>
      </trkpt>
      <trkpt lat="49.95245" lon="1.17466">
        <ele>86.5</ele>
        <time>2020-06-18T13:37:45Z</time>
      </trkpt>
      <trkpt lat="49.95248" lon="1.17476">
        <ele>86.6</ele>
        <time>2020-06-18T13:37:46Z</time>
      </trkpt>
      <trkpt lat="49.95251" lon="1.17486">
        <ele>86.7</ele>
        <time>2020-06-18T13:37:47Z</time>
      </trkpt>
      <trkpt lat="49.95254" lon="1.17496">
        <ele>86.7</ele>
        <time>2020-06-18T13:37:48Z</time>
      </trkpt>
      <trkpt lat="49.95256" lon="1.17507">
        <ele>86.9</ele>
        <time>2020-06-18T13:37:49Z</time>
      </trkpt>
      <trkpt lat="49.95259" lon="1.17516">
        <ele>87</ele>
        <time>2020-06-18T13:37:50Z</time>
      </trkpt>
      <trkpt lat="49.95261" lon="1.17526">
        <ele>87.2</ele>
        <time>2020-06-18T13:37:51Z</time>
      </trkpt>
      <trkpt lat="49.95263" lon="1.17536">
        <ele>87.4</ele>
        <time>2020-06-18T13:37:52Z</time>
      </trkpt>
      <trkpt lat="49.95265" lon="1.17546">
        <ele>87.7</ele>
        <time>2020-06-18T13:37:53Z</time>
      </trkpt>
      <trkpt lat="49.95267" lon="1.17557">
        <ele>87.9</ele>
        <time>2020-06-18T13:37:54Z</time>
      </trkpt>
      <trkpt lat="49.95268" lon="1.17568">
        <ele>88.2</ele>
        <time>2020-06-18T13:37:55Z</time>
      </trkpt>
      <trkpt lat="49.9527" lon="1.17578">
        <ele>88.4</ele>
        <time>2020-06-18T13:37:56Z</time>
      </trkpt>
      <trkpt lat="49.95272" lon="1.17589">
        <ele>88.5</ele>
        <time>2020-06-18T13:37:57Z</time>
      </trkpt>
      <trkpt lat="49.95274" lon="1.17599">
        <ele>88.6</ele>
        <time>2020-06-18T13:37:58Z</time>
      </trkpt>
      <trkpt lat="49.95275" lon="1.17609">
        <ele>88.8</ele>
        <time>2020-06-18T13:37:59Z</time>
      </trkpt>
      <trkpt lat="49.95277" lon="1.17618">
        <ele>89</ele>
        <time>2020-06-18T13:38:00Z</time>
      </trkpt>
      <trkpt lat="49.95279" lon="1.17628">
        <ele>89.2</ele>
        <time>2020-06-18T13:38:01Z</time>
      </trkpt>
      <trkpt lat="49.95281" lon="1.17638">
        <ele>89.5</ele>
        <time>2020-06-18T13:38:02Z</time>
      </trkpt>
      <trkpt lat="49.95284" lon="1.17646">
        <ele>89.7</ele>
        <time>2020-06-18T13:38:03Z</time>
      </trkpt>
      <trkpt lat="49.95287" lon="1.17655">
        <ele>89.9</ele>
        <time>2020-06-18T13:38:04Z</time>
      </trkpt>
      <trkpt lat="49.9529" lon="1.17665">
        <ele>90.1</ele>
        <time>2020-06-18T13:38:05Z</time>
      </trkpt>
      <trkpt lat="49.95293" lon="1.17673">
        <ele>90.3</ele>
        <time>2020-06-18T13:38:06Z</time>
      </trkpt>
      <trkpt lat="49.95295" lon="1.17683">
        <ele>90.6</ele>
        <time>2020-06-18T13:38:07Z</time>
      </trkpt>
      <trkpt lat="49.95298" lon="1.17692">
        <ele>90.8</ele>
        <time>2020-06-18T13:38:08Z</time>
      </trkpt>
      <trkpt lat="49.95301" lon="1.177">
        <ele>91</ele>
        <time>2020-06-18T13:38:09Z</time>
      </trkpt>
      <trkpt lat="49.95304" lon="1.17709">
        <ele>91.2</ele>
        <time>2020-06-18T13:38:10Z</time>
      </trkpt>
      <trkpt lat="49.95307" lon="1.17717">
        <ele>91.4</ele>
        <time>2020-06-18T13:38:11Z</time>
      </trkpt>
      <trkpt lat="49.95311" lon="1.17724">
        <ele>91.5</ele>
        <time>2020-06-18T13:38:12Z</time>
      </trkpt>
      <trkpt lat="49.95314" lon="1.17732">
        <ele>91.7</ele>
        <time>2020-06-18T13:38:13Z</time>
      </trkpt>
      <trkpt lat="49.95317" lon="1.1774">
        <ele>91.8</ele>
        <time>2020-06-18T13:38:14Z</time>
      </trkpt>
      <trkpt lat="49.9532" lon="1.17748">
        <ele>92</ele>
        <time>2020-06-18T13:38:15Z</time>
      </trkpt>
      <trkpt lat="49.95323" lon="1.17755">
        <ele>92.1</ele>
        <time>2020-06-18T13:38:16Z</time>
      </trkpt>
      <trkpt lat="49.95326" lon="1.17762">
        <ele>92.2</ele>
        <time>2020-06-18T13:38:17Z</time>
      </trkpt>
      <trkpt lat="49.9533" lon="1.17768">
        <ele>92.4</ele>
        <time>2020-06-18T13:38:18Z</time>
      </trkpt>
      <trkpt lat="49.95333" lon="1.17776">
        <ele>92.5</ele>
        <time>2020-06-18T13:38:19Z</time>
      </trkpt>
      <trkpt lat="49.95336" lon="1.17785">
        <ele>92.7</ele>
        <time>2020-06-18T13:38:20Z</time>
      </trkpt>
      <trkpt lat="49.95339" lon="1.17792">
        <ele>92.8</ele>
        <time>2020-06-18T13:38:21Z</time>
      </trkpt>
      <trkpt lat="49.95342" lon="1.17799">
        <ele>92.9</ele>
        <time>2020-06-18T13:38:22Z</time>
      </trkpt>
      <trkpt lat="49.95345" lon="1.17806">
        <ele>93</ele>
        <time>2020-06-18T13:38:23Z</time>
      </trkpt>
      <trkpt lat="49.95348" lon="1.17814">
        <ele>93.1</ele>
        <time>2020-06-18T13:38:24Z</time>
      </trkpt>
      <trkpt lat="49.95351" lon="1.1782">
        <ele>93.1</ele>
        <time>2020-06-18T13:38:25Z</time>
      </trkpt>
      <trkpt lat="49.95354" lon="1.17827">
        <ele>93.2</ele>
        <time>2020-06-18T13:38:26Z</time>
      </trkpt>
      <trkpt lat="49.95356" lon="1.17833">
        <ele>93.3</ele>
        <time>2020-06-18T13:38:27Z</time>
      </trkpt>
      <trkpt lat="49.95359" lon="1.17839">
        <ele>93.3</ele>
        <time>2020-06-18T13:38:28Z</time>
      </trkpt>
      <trkpt lat="49.95361" lon="1.17846">
        <ele>93.4</ele>
        <time>2020-06-18T13:38:29Z</time>
      </trkpt>
      <trkpt lat="49.95364" lon="1.17854">
        <ele>93.5</ele>
        <time>2020-06-18T13:38:30Z</time>
      </trkpt>
      <trkpt lat="49.95367" lon="1.17861">
        <ele>93.6</ele>
        <time>2020-06-18T13:38:31Z</time>
      </trkpt>
      <trkpt lat="49.9537" lon="1.17869">
        <ele>93.7</ele>
        <time>2020-06-18T13:38:32Z</time>
      </trkpt>
      <trkpt lat="49.95373" lon="1.17877">
        <ele>93.8</ele>
        <time>2020-06-18T13:38:33Z</time>
      </trkpt>
      <trkpt lat="49.95376" lon="1.17884">
        <ele>93.8</ele>
        <time>2020-06-18T13:38:34Z</time>
      </trkpt>
      <trkpt lat="49.95378" lon="1.17892">
        <ele>93.9</ele>
        <time>2020-06-18T13:38:35Z</time>
      </trkpt>
      <trkpt lat="49.9538" lon="1.179">
        <ele>94</ele>
        <time>2020-06-18T13:38:36Z</time>
      </trkpt>
      <trkpt lat="49.95383" lon="1.1791">
        <ele>94</ele>
        <time>2020-06-18T13:38:37Z</time>
      </trkpt>
      <trkpt lat="49.95386" lon="1.17919">
        <ele>94.1</ele>
        <time>2020-06-18T13:38:38Z</time>
      </trkpt>
      <trkpt lat="49.95388" lon="1.17928">
        <ele>94.2</ele>
        <time>2020-06-18T13:38:39Z</time>
      </trkpt>
      <trkpt lat="49.9539" lon="1.17937">
        <ele>94.2</ele>
        <time>2020-06-18T13:38:40Z</time>
      </trkpt>
      <trkpt lat="49.95392" lon="1.17945">
        <ele>94.3</ele>
        <time>2020-06-18T13:38:41Z</time>
      </trkpt>
      <trkpt lat="49.95393" lon="1.17954">
        <ele>94.4</ele>
        <time>2020-06-18T13:38:42Z</time>
      </trkpt>
      <trkpt lat="49.95395" lon="1.17962">
        <ele>94.5</ele>
        <time>2020-06-18T13:38:43Z</time>
      </trkpt>
      <trkpt lat="49.95396" lon="1.1797">
        <ele>94.6</ele>
        <time>2020-06-18T13:38:44Z</time>
      </trkpt>
      <trkpt lat="49.95397" lon="1.17981">
        <ele>94.8</ele>
        <time>2020-06-18T13:38:45Z</time>
      </trkpt>
      <trkpt lat="49.95398" lon="1.1799">
        <ele>94.9</ele>
        <time>2020-06-18T13:38:46Z</time>
      </trkpt>
      <trkpt lat="49.95399" lon="1.18">
        <ele>95.1</ele>
        <time>2020-06-18T13:38:47Z</time>
      </trkpt>
      <trkpt lat="49.954" lon="1.18009">
        <ele>95.2</ele>
        <time>2020-06-18T13:38:48Z</time>
      </trkpt>
      <trkpt lat="49.95402" lon="1.18017">
        <ele>95.2</ele>
        <time>2020-06-18T13:38:49Z</time>
      </trkpt>
      <trkpt lat="49.95404" lon="1.18026">
        <ele>95.3</ele>
        <time>2020-06-18T13:38:50Z</time>
      </trkpt>
      <trkpt lat="49.95406" lon="1.18035">
        <ele>95.4</ele>
        <time>2020-06-18T13:38:51Z</time>
      </trkpt>
      <trkpt lat="49.95408" lon="1.18045">
        <ele>95.5</ele>
        <time>2020-06-18T13:38:52Z</time>
      </trkpt>
      <trkpt lat="49.9541" lon="1.18052">
        <ele>95.6</ele>
        <time>2020-06-18T13:38:53Z</time>
      </trkpt>
      <trkpt lat="49.95412" lon="1.18059">
        <ele>95.7</ele>
        <time>2020-06-18T13:38:54Z</time>
      </trkpt>
      <trkpt lat="49.95413" lon="1.18068">
        <ele>95.8</ele>
        <time>2020-06-18T13:38:55Z</time>
      </trkpt>
      <trkpt lat="49.95415" lon="1.18076">
        <ele>95.9</ele>
        <time>2020-06-18T13:38:56Z</time>
      </trkpt>
      <trkpt lat="49.95416" lon="1.18084">
        <ele>96</ele>
        <time>2020-06-18T13:38:57Z</time>
      </trkpt>
      <trkpt lat="49.95418" lon="1.18092">
        <ele>96.1</ele>
        <time>2020-06-18T13:38:58Z</time>
      </trkpt>
      <trkpt lat="49.9542" lon="1.18101">
        <ele>96.2</ele>
        <time>2020-06-18T13:38:59Z</time>
      </trkpt>
      <trkpt lat="49.95422" lon="1.18109">
        <ele>96.3</ele>
        <time>2020-06-18T13:39:00Z</time>
      </trkpt>
      <trkpt lat="49.95424" lon="1.18116">
        <ele>96.4</ele>
        <time>2020-06-18T13:39:01Z</time>
      </trkpt>
      <trkpt lat="49.95425" lon="1.18125">
        <ele>96.5</ele>
        <time>2020-06-18T13:39:02Z</time>
      </trkpt>
      <trkpt lat="49.95427" lon="1.18134">
        <ele>96.6</ele>
        <time>2020-06-18T13:39:03Z</time>
      </trkpt>
      <trkpt lat="49.95429" lon="1.18143">
        <ele>96.8</ele>
        <time>2020-06-18T13:39:04Z</time>
      </trkpt>
      <trkpt lat="49.95431" lon="1.18152">
        <ele>96.9</ele>
        <time>2020-06-18T13:39:05Z</time>
      </trkpt>
      <trkpt lat="49.95433" lon="1.1816">
        <ele>97</ele>
        <time>2020-06-18T13:39:06Z</time>
      </trkpt>
      <trkpt lat="49.95435" lon="1.18168">
        <ele>97.1</ele>
        <time>2020-06-18T13:39:07Z</time>
      </trkpt>
      <trkpt lat="49.95436" lon="1.18177">
        <ele>97.3</ele>
        <time>2020-06-18T13:39:08Z</time>
      </trkpt>
      <trkpt lat="49.95438" lon="1.18185">
        <ele>97.4</ele>
        <time>2020-06-18T13:39:09Z</time>
      </trkpt>
      <trkpt lat="49.9544" lon="1.18193">
        <ele>97.5</ele>
        <time>2020-06-18T13:39:10Z</time>
      </trkpt>
      <trkpt lat="49.95442" lon="1.18201">
        <ele>97.7</ele>
        <time>2020-06-18T13:39:11Z</time>
      </trkpt>
      <trkpt lat="49.95444" lon="1.18208">
        <ele>97.8</ele>
        <time>2020-06-18T13:39:12Z</time>
      </trkpt>
      <trkpt lat="49.95445" lon="1.18215">
        <ele>97.9</ele>
        <time>2020-06-18T13:39:13Z</time>
      </trkpt>
      <trkpt lat="49.95447" lon="1.18224">
        <ele>98</ele>
        <time>2020-06-18T13:39:14Z</time>
      </trkpt>
      <trkpt lat="49.95448" lon="1.18232">
        <ele>98.2</ele>
        <time>2020-06-18T13:39:15Z</time>
      </trkpt>
      <trkpt lat="49.9545" lon="1.1824">
        <ele>98.3</ele>
        <time>2020-06-18T13:39:16Z</time>
      </trkpt>
      <trkpt lat="49.95451" lon="1.1825">
        <ele>98.5</ele>
        <time>2020-06-18T13:39:17Z</time>
      </trkpt>
      <trkpt lat="49.95452" lon="1.18259">
        <ele>98.6</ele>
        <time>2020-06-18T13:39:18Z</time>
      </trkpt>
      <trkpt lat="49.95454" lon="1.18267">
        <ele>98.6</ele>
        <time>2020-06-18T13:39:19Z</time>
      </trkpt>
      <trkpt lat="49.95455" lon="1.18275">
        <ele>98.7</ele>
        <time>2020-06-18T13:39:20Z</time>
      </trkpt>
      <trkpt lat="49.95457" lon="1.18283">
        <ele>98.9</ele>
        <time>2020-06-18T13:39:21Z</time>
      </trkpt>
      <trkpt lat="49.95459" lon="1.18291">
        <ele>99</ele>
        <time>2020-06-18T13:39:22Z</time>
      </trkpt>
      <trkpt lat="49.9546" lon="1.18299">
        <ele>99.1</ele>
        <time>2020-06-18T13:39:23Z</time>
      </trkpt>
      <trkpt lat="49.95461" lon="1.18308">
        <ele>99.2</ele>
        <time>2020-06-18T13:39:24Z</time>
      </trkpt>
      <trkpt lat="49.95463" lon="1.18316">
        <ele>99.3</ele>
        <time>2020-06-18T13:39:25Z</time>
      </trkpt>
      <trkpt lat="49.95464" lon="1.18326">
        <ele>99.4</ele>
        <time>2020-06-18T13:39:26Z</time>
      </trkpt>
      <trkpt lat="49.95464" lon="1.18337">
        <ele>99.5</ele>
        <time>2020-06-18T13:39:27Z</time>
      </trkpt>
      <trkpt lat="49.95465" lon="1.18347">
        <ele>99.6</ele>
        <time>2020-06-18T13:39:28Z</time>
      </trkpt>
      <trkpt lat="49.95467" lon="1.18356">
        <ele>99.7</ele>
        <time>2020-06-18T13:39:29Z</time>
      </trkpt>
      <trkpt lat="49.95468" lon="1.18365">
        <ele>99.8</ele>
        <time>2020-06-18T13:39:30Z</time>
      </trkpt>
      <trkpt lat="49.95469" lon="1.18373">
        <ele>99.9</ele>
        <time>2020-06-18T13:39:31Z</time>
      </trkpt>
      <trkpt lat="49.95469" lon="1.18382">
        <ele>100</ele>
        <time>2020-06-18T13:39:32Z</time>
      </trkpt>
      <trkpt lat="49.9547" lon="1.18391">
        <ele>100.1</ele>
        <time>2020-06-18T13:39:33Z</time>
      </trkpt>
      <trkpt lat="49.95471" lon="1.18399">
        <ele>100.2</ele>
        <time>2020-06-18T13:39:34Z</time>
      </trkpt>
      <trkpt lat="49.95472" lon="1.18406">
        <ele>100.3</ele>
        <time>2020-06-18T13:39:35Z</time>
      </trkpt>
      <trkpt lat="49.95473" lon="1.18414">
        <ele>100.4</ele>
        <time>2020-06-18T13:39:36Z</time>
      </trkpt>
      <trkpt lat="49.95474" lon="1.18422">
        <ele>100.4</ele>
        <time>2020-06-18T13:39:37Z</time>
      </trkpt>
      <trkpt lat="49.95476" lon="1.18429">
        <ele>100.5</ele>
        <time>2020-06-18T13:39:38Z</time>
      </trkpt>
      <trkpt lat="49.95476" lon="1.18436">
        <ele>100.6</ele>
        <time>2020-06-18T13:39:39Z</time>
      </trkpt>
      <trkpt lat="49.95476" lon="1.18443">
        <ele>100.7</ele>
        <time>2020-06-18T13:39:40Z</time>
      </trkpt>
      <trkpt lat="49.95477" lon="1.1845">
        <ele>100.7</ele>
        <time>2020-06-18T13:39:41Z</time>
      </trkpt>
      <trkpt lat="49.95478" lon="1.18459">
        <ele>100.8</ele>
        <time>2020-06-18T13:39:42Z</time>
      </trkpt>
      <trkpt lat="49.95479" lon="1.18468">
        <ele>100.9</ele>
        <time>2020-06-18T13:39:43Z</time>
      </trkpt>
      <trkpt lat="49.9548" lon="1.18478">
        <ele>100.9</ele>
        <time>2020-06-18T13:39:44Z</time>
      </trkpt>
      <trkpt lat="49.95482" lon="1.18486">
        <ele>100.9</ele>
        <time>2020-06-18T13:39:45Z</time>
      </trkpt>
      <trkpt lat="49.95483" lon="1.18497">
        <ele>101</ele>
        <time>2020-06-18T13:39:46Z</time>
      </trkpt>
      <trkpt lat="49.95484" lon="1.18504">
        <ele>101</ele>
        <time>2020-06-18T13:39:47Z</time>
      </trkpt>
      <trkpt lat="49.95486" lon="1.18512">
        <ele>101.1</ele>
        <time>2020-06-18T13:39:48Z</time>
      </trkpt>
      <trkpt lat="49.95487" lon="1.18521">
        <ele>101.1</ele>
        <time>2020-06-18T13:39:49Z</time>
      </trkpt>
      <trkpt lat="49.95488" lon="1.18529">
        <ele>101.2</ele>
        <time>2020-06-18T13:39:50Z</time>
      </trkpt>
      <trkpt lat="49.95489" lon="1.18537">
        <ele>101.2</ele>
        <time>2020-06-18T13:39:51Z</time>
      </trkpt>
      <trkpt lat="49.9549" lon="1.18545">
        <ele>101.3</ele>
        <time>2020-06-18T13:39:52Z</time>
      </trkpt>
      <trkpt lat="49.95491" lon="1.18554">
        <ele>101.4</ele>
        <time>2020-06-18T13:39:53Z</time>
      </trkpt>
      <trkpt lat="49.95492" lon="1.18564">
        <ele>101.5</ele>
        <time>2020-06-18T13:39:54Z</time>
      </trkpt>
      <trkpt lat="49.95492" lon="1.18572">
        <ele>101.6</ele>
        <time>2020-06-18T13:39:55Z</time>
      </trkpt>
      <trkpt lat="49.95493" lon="1.18579">
        <ele>101.7</ele>
        <time>2020-06-18T13:39:56Z</time>
      </trkpt>
      <trkpt lat="49.95494" lon="1.18587">
        <ele>101.8</ele>
        <time>2020-06-18T13:39:57Z</time>
      </trkpt>
      <trkpt lat="49.95495" lon="1.18596">
        <ele>101.9</ele>
        <time>2020-06-18T13:39:58Z</time>
      </trkpt>
      <trkpt lat="49.95496" lon="1.18604">
        <ele>101.9</ele>
        <time>2020-06-18T13:39:59Z</time>
      </trkpt>
      <trkpt lat="49.95497" lon="1.18613">
        <ele>102</ele>
        <time>2020-06-18T13:40:00Z</time>
      </trkpt>
      <trkpt lat="49.95498" lon="1.18622">
        <ele>102.1</ele>
        <time>2020-06-18T13:40:01Z</time>
      </trkpt>
      <trkpt lat="49.95499" lon="1.18629">
        <ele>102.1</ele>
        <time>2020-06-18T13:40:02Z</time>
      </trkpt>
      <trkpt lat="49.955" lon="1.18636">
        <ele>102.1</ele>
        <time>2020-06-18T13:40:03Z</time>
      </trkpt>
      <trkpt lat="49.95501" lon="1.18644">
        <ele>102.1</ele>
        <time>2020-06-18T13:40:04Z</time>
      </trkpt>
      <trkpt lat="49.95501" lon="1.18653">
        <ele>102.1</ele>
        <time>2020-06-18T13:40:05Z</time>
      </trkpt>
      <trkpt lat="49.95501" lon="1.18661">
        <ele>102.2</ele>
        <time>2020-06-18T13:40:06Z</time>
      </trkpt>
      <trkpt lat="49.95502" lon="1.1867">
        <ele>102.2</ele>
        <time>2020-06-18T13:40:07Z</time>
      </trkpt>
      <trkpt lat="49.95502" lon="1.18679">
        <ele>102.3</ele>
        <time>2020-06-18T13:40:08Z</time>
      </trkpt>
      <trkpt lat="49.95504" lon="1.18686">
        <ele>102.3</ele>
        <time>2020-06-18T13:40:09Z</time>
      </trkpt>
      <trkpt lat="49.95506" lon="1.18693">
        <ele>102.3</ele>
        <time>2020-06-18T13:40:10Z</time>
      </trkpt>
      <trkpt lat="49.95508" lon="1.18699">
        <ele>102.4</ele>
        <time>2020-06-18T13:40:11Z</time>
      </trkpt>
      <trkpt lat="49.95512" lon="1.18704">
        <ele>102.4</ele>
        <time>2020-06-18T13:40:12Z</time>
      </trkpt>
      <trkpt lat="49.95515" lon="1.18709">
        <ele>102.5</ele>
        <time>2020-06-18T13:40:13Z</time>
      </trkpt>
      <trkpt lat="49.95518" lon="1.18716">
        <ele>102.5</ele>
        <time>2020-06-18T13:40:14Z</time>
      </trkpt>
      <trkpt lat="49.95521" lon="1.18722">
        <ele>102.6</ele>
        <time>2020-06-18T13:40:15Z</time>
      </trkpt>
      <trkpt lat="49.95522" lon="1.18729">
        <ele>102.8</ele>
        <time>2020-06-18T13:40:16Z</time>
      </trkpt>
      <trkpt lat="49.95522" lon="1.18737">
        <ele>102.9</ele>
        <time>2020-06-18T13:40:17Z</time>
      </trkpt>
      <trkpt lat="49.95521" lon="1.18745">
        <ele>103.1</ele>
        <time>2020-06-18T13:40:18Z</time>
      </trkpt>
      <trkpt lat="49.95521" lon="1.18754">
        <ele>103.2</ele>
        <time>2020-06-18T13:40:19Z</time>
      </trkpt>
      <trkpt lat="49.95521" lon="1.18763">
        <ele>103</ele>
        <time>2020-06-18T13:40:20Z</time>
      </trkpt>
      <trkpt lat="49.9552" lon="1.18773">
        <ele>102.9</ele>
        <time>2020-06-18T13:40:21Z</time>
      </trkpt>
      <trkpt lat="49.95521" lon="1.18782">
        <ele>102.9</ele>
        <time>2020-06-18T13:40:22Z</time>
      </trkpt>
      <trkpt lat="49.95521" lon="1.18792">
        <ele>102.9</ele>
        <time>2020-06-18T13:40:23Z</time>
      </trkpt>
      <trkpt lat="49.95521" lon="1.18801">
        <ele>102.8</ele>
        <time>2020-06-18T13:40:24Z</time>
      </trkpt>
      <trkpt lat="49.95522" lon="1.18811">
        <ele>102.8</ele>
        <time>2020-06-18T13:40:25Z</time>
      </trkpt>
      <trkpt lat="49.95522" lon="1.18819">
        <ele>102.8</ele>
        <time>2020-06-18T13:40:26Z</time>
      </trkpt>
      <trkpt lat="49.95522" lon="1.18827">
        <ele>102.7</ele>
        <time>2020-06-18T13:40:27Z</time>
      </trkpt>
      <trkpt lat="49.95522" lon="1.18834">
        <ele>102.7</ele>
        <time>2020-06-18T13:40:28Z</time>
      </trkpt>
      <trkpt lat="49.95523" lon="1.18843">
        <ele>102.7</ele>
        <time>2020-06-18T13:40:29Z</time>
      </trkpt>
      <trkpt lat="49.95524" lon="1.18852">
        <ele>102.6</ele>
        <time>2020-06-18T13:40:30Z</time>
      </trkpt>
      <trkpt lat="49.95524" lon="1.18861">
        <ele>102.6</ele>
        <time>2020-06-18T13:40:31Z</time>
      </trkpt>
      <trkpt lat="49.95525" lon="1.1887">
        <ele>102.5</ele>
        <time>2020-06-18T13:40:32Z</time>
      </trkpt>
      <trkpt lat="49.95526" lon="1.1888">
        <ele>102.5</ele>
        <time>2020-06-18T13:40:33Z</time>
      </trkpt>
      <trkpt lat="49.95526" lon="1.18889">
        <ele>102.5</ele>
        <time>2020-06-18T13:40:34Z</time>
      </trkpt>
      <trkpt lat="49.95527" lon="1.18898">
        <ele>102.4</ele>
        <time>2020-06-18T13:40:35Z</time>
      </trkpt>
      <trkpt lat="49.95528" lon="1.18907">
        <ele>102.4</ele>
        <time>2020-06-18T13:40:36Z</time>
      </trkpt>
      <trkpt lat="49.95529" lon="1.18915">
        <ele>102.4</ele>
        <time>2020-06-18T13:40:37Z</time>
      </trkpt>
      <trkpt lat="49.9553" lon="1.18924">
        <ele>102.3</ele>
        <time>2020-06-18T13:40:38Z</time>
      </trkpt>
      <trkpt lat="49.95532" lon="1.18934">
        <ele>102.3</ele>
        <time>2020-06-18T13:40:39Z</time>
      </trkpt>
      <trkpt lat="49.95533" lon="1.18944">
        <ele>102.3</ele>
        <time>2020-06-18T13:40:40Z</time>
      </trkpt>
      <trkpt lat="49.95534" lon="1.18954">
        <ele>102.2</ele>
        <time>2020-06-18T13:40:41Z</time>
      </trkpt>
      <trkpt lat="49.95535" lon="1.18964">
        <ele>102.1</ele>
        <time>2020-06-18T13:40:42Z</time>
      </trkpt>
      <trkpt lat="49.95537" lon="1.18972">
        <ele>102.1</ele>
        <time>2020-06-18T13:40:43Z</time>
      </trkpt>
      <trkpt lat="49.95538" lon="1.18982">
        <ele>102.1</ele>
        <time>2020-06-18T13:40:44Z</time>
      </trkpt>
      <trkpt lat="49.95539" lon="1.18993">
        <ele>102</ele>
        <time>2020-06-18T13:40:45Z</time>
      </trkpt>
      <trkpt lat="49.9554" lon="1.19004">
        <ele>102</ele>
        <time>2020-06-18T13:40:46Z</time>
      </trkpt>
      <trkpt lat="49.95542" lon="1.19016">
        <ele>102</ele>
        <time>2020-06-18T13:40:47Z</time>
      </trkpt>
      <trkpt lat="49.95543" lon="1.19026">
        <ele>102</ele>
        <time>2020-06-18T13:40:48Z</time>
      </trkpt>
      <trkpt lat="49.95545" lon="1.19037">
        <ele>102</ele>
        <time>2020-06-18T13:40:49Z</time>
      </trkpt>
      <trkpt lat="49.95546" lon="1.19048">
        <ele>102</ele>
        <time>2020-06-18T13:40:50Z</time>
      </trkpt>
      <trkpt lat="49.95547" lon="1.19058">
        <ele>102</ele>
        <time>2020-06-18T13:40:51Z</time>
      </trkpt>
      <trkpt lat="49.95548" lon="1.19069">
        <ele>101.9</ele>
        <time>2020-06-18T13:40:52Z</time>
      </trkpt>
      <trkpt lat="49.95549" lon="1.19078">
        <ele>101.9</ele>
        <time>2020-06-18T13:40:53Z</time>
      </trkpt>
      <trkpt lat="49.95551" lon="1.19087">
        <ele>101.9</ele>
        <time>2020-06-18T13:40:54Z</time>
      </trkpt>
      <trkpt lat="49.95553" lon="1.19097">
        <ele>101.8</ele>
        <time>2020-06-18T13:40:55Z</time>
      </trkpt>
      <trkpt lat="49.95555" lon="1.19108">
        <ele>101.8</ele>
        <time>2020-06-18T13:40:56Z</time>
      </trkpt>
      <trkpt lat="49.95556" lon="1.19119">
        <ele>101.8</ele>
        <time>2020-06-18T13:40:57Z</time>
      </trkpt>
      <trkpt lat="49.95557" lon="1.19131">
        <ele>101.7</ele>
        <time>2020-06-18T13:40:58Z</time>
      </trkpt>
      <trkpt lat="49.95558" lon="1.19144">
        <ele>101.8</ele>
        <time>2020-06-18T13:40:59Z</time>
      </trkpt>
      <trkpt lat="49.95559" lon="1.19156">
        <ele>101.8</ele>
        <time>2020-06-18T13:41:00Z</time>
      </trkpt>
      <trkpt lat="49.95559" lon="1.19167">
        <ele>101.9</ele>
        <time>2020-06-18T13:41:01Z</time>
      </trkpt>
      <trkpt lat="49.9556" lon="1.19178">
        <ele>101.9</ele>
        <time>2020-06-18T13:41:02Z</time>
      </trkpt>
      <trkpt lat="49.95561" lon="1.19189">
        <ele>101.9</ele>
        <time>2020-06-18T13:41:03Z</time>
      </trkpt>
      <trkpt lat="49.95563" lon="1.192">
        <ele>101.9</ele>
        <time>2020-06-18T13:41:04Z</time>
      </trkpt>
      <trkpt lat="49.95564" lon="1.19211">
        <ele>102</ele>
        <time>2020-06-18T13:41:05Z</time>
      </trkpt>
      <trkpt lat="49.95565" lon="1.19222">
        <ele>102</ele>
        <time>2020-06-18T13:41:06Z</time>
      </trkpt>
      <trkpt lat="49.95566" lon="1.19232">
        <ele>102.1</ele>
        <time>2020-06-18T13:41:07Z</time>
      </trkpt>
      <trkpt lat="49.95567" lon="1.19243">
        <ele>102.1</ele>
        <time>2020-06-18T13:41:08Z</time>
      </trkpt>
      <trkpt lat="49.95568" lon="1.19253">
        <ele>102.2</ele>
        <time>2020-06-18T13:41:09Z</time>
      </trkpt>
      <trkpt lat="49.95569" lon="1.19264">
        <ele>102.2</ele>
        <time>2020-06-18T13:41:10Z</time>
      </trkpt>
      <trkpt lat="49.9557" lon="1.19274">
        <ele>102.3</ele>
        <time>2020-06-18T13:41:11Z</time>
      </trkpt>
      <trkpt lat="49.9557" lon="1.19283">
        <ele>102.4</ele>
        <time>2020-06-18T13:41:12Z</time>
      </trkpt>
      <trkpt lat="49.95571" lon="1.19293">
        <ele>102.4</ele>
        <time>2020-06-18T13:41:13Z</time>
      </trkpt>
      <trkpt lat="49.95571" lon="1.19303">
        <ele>102.5</ele>
        <time>2020-06-18T13:41:14Z</time>
      </trkpt>
      <trkpt lat="49.95572" lon="1.19313">
        <ele>102.6</ele>
        <time>2020-06-18T13:41:15Z</time>
      </trkpt>
      <trkpt lat="49.95572" lon="1.19323">
        <ele>102.6</ele>
        <time>2020-06-18T13:41:16Z</time>
      </trkpt>
      <trkpt lat="49.95572" lon="1.19333">
        <ele>102.7</ele>
        <time>2020-06-18T13:41:17Z</time>
      </trkpt>
      <trkpt lat="49.95572" lon="1.19342">
        <ele>102.8</ele>
        <time>2020-06-18T13:41:18Z</time>
      </trkpt>
      <trkpt lat="49.95572" lon="1.19352">
        <ele>102.9</ele>
        <time>2020-06-18T13:41:19Z</time>
      </trkpt>
      <trkpt lat="49.95573" lon="1.19361">
        <ele>102.9</ele>
        <time>2020-06-18T13:41:20Z</time>
      </trkpt>
      <trkpt lat="49.95573" lon="1.19371">
        <ele>103</ele>
        <time>2020-06-18T13:41:21Z</time>
      </trkpt>
      <trkpt lat="49.95573" lon="1.1938">
        <ele>103</ele>
        <time>2020-06-18T13:41:22Z</time>
      </trkpt>
      <trkpt lat="49.95573" lon="1.1939">
        <ele>103.1</ele>
        <time>2020-06-18T13:41:23Z</time>
      </trkpt>
      <trkpt lat="49.95573" lon="1.194">
        <ele>103.1</ele>
        <time>2020-06-18T13:41:24Z</time>
      </trkpt>
      <trkpt lat="49.95574" lon="1.19409">
        <ele>103.1</ele>
        <time>2020-06-18T13:41:25Z</time>
      </trkpt>
      <trkpt lat="49.95574" lon="1.19417">
        <ele>103.1</ele>
        <time>2020-06-18T13:41:26Z</time>
      </trkpt>
      <trkpt lat="49.95574" lon="1.19427">
        <ele>103.1</ele>
        <time>2020-06-18T13:41:27Z</time>
      </trkpt>
      <trkpt lat="49.95574" lon="1.19436">
        <ele>103.1</ele>
        <time>2020-06-18T13:41:28Z</time>
      </trkpt>
      <trkpt lat="49.95574" lon="1.19447">
        <ele>103.2</ele>
        <time>2020-06-18T13:41:29Z</time>
      </trkpt>
      <trkpt lat="49.95574" lon="1.19457">
        <ele>103.3</ele>
        <time>2020-06-18T13:41:30Z</time>
      </trkpt>
      <trkpt lat="49.95574" lon="1.19467">
        <ele>103.4</ele>
        <time>2020-06-18T13:41:31Z</time>
      </trkpt>
      <trkpt lat="49.95574" lon="1.19477">
        <ele>103.5</ele>
        <time>2020-06-18T13:41:32Z</time>
      </trkpt>
      <trkpt lat="49.95574" lon="1.19486">
        <ele>103.6</ele>
        <time>2020-06-18T13:41:33Z</time>
      </trkpt>
      <trkpt lat="49.95575" lon="1.19496">
        <ele>103.8</ele>
        <time>2020-06-18T13:41:34Z</time>
      </trkpt>
      <trkpt lat="49.95575" lon="1.19506">
        <ele>104</ele>
        <time>2020-06-18T13:41:35Z</time>
      </trkpt>
      <trkpt lat="49.95576" lon="1.19516">
        <ele>104.2</ele>
        <time>2020-06-18T13:41:36Z</time>
      </trkpt>
      <trkpt lat="49.95576" lon="1.19526">
        <ele>104.3</ele>
        <time>2020-06-18T13:41:37Z</time>
      </trkpt>
      <trkpt lat="49.95576" lon="1.19536">
        <ele>104.5</ele>
        <time>2020-06-18T13:41:38Z</time>
      </trkpt>
      <trkpt lat="49.95576" lon="1.19545">
        <ele>104.6</ele>
        <time>2020-06-18T13:41:39Z</time>
      </trkpt>
      <trkpt lat="49.95577" lon="1.19555">
        <ele>104.8</ele>
        <time>2020-06-18T13:41:40Z</time>
      </trkpt>
      <trkpt lat="49.95577" lon="1.19563">
        <ele>104.9</ele>
        <time>2020-06-18T13:41:41Z</time>
      </trkpt>
      <trkpt lat="49.95577" lon="1.19572">
        <ele>105</ele>
        <time>2020-06-18T13:41:42Z</time>
      </trkpt>
      <trkpt lat="49.95577" lon="1.19582">
        <ele>105.1</ele>
        <time>2020-06-18T13:41:43Z</time>
      </trkpt>
      <trkpt lat="49.95578" lon="1.1959">
        <ele>105.2</ele>
        <time>2020-06-18T13:41:44Z</time>
      </trkpt>
      <trkpt lat="49.95579" lon="1.19599">
        <ele>105.3</ele>
        <time>2020-06-18T13:41:45Z</time>
      </trkpt>
      <trkpt lat="49.95579" lon="1.19607">
        <ele>105.4</ele>
        <time>2020-06-18T13:41:46Z</time>
      </trkpt>
      <trkpt lat="49.9558" lon="1.19617">
        <ele>105.6</ele>
        <time>2020-06-18T13:41:47Z</time>
      </trkpt>
      <trkpt lat="49.95581" lon="1.19626">
        <ele>105.7</ele>
        <time>2020-06-18T13:41:48Z</time>
      </trkpt>
      <trkpt lat="49.95582" lon="1.19637">
        <ele>105.8</ele>
        <time>2020-06-18T13:41:49Z</time>
      </trkpt>
      <trkpt lat="49.95583" lon="1.19646">
        <ele>105.9</ele>
        <time>2020-06-18T13:41:50Z</time>
      </trkpt>
      <trkpt lat="49.95584" lon="1.19655">
        <ele>106</ele>
        <time>2020-06-18T13:41:51Z</time>
      </trkpt>
      <trkpt lat="49.95585" lon="1.19663">
        <ele>106.1</ele>
        <time>2020-06-18T13:41:52Z</time>
      </trkpt>
      <trkpt lat="49.95586" lon="1.19673">
        <ele>106.2</ele>
        <time>2020-06-18T13:41:53Z</time>
      </trkpt>
      <trkpt lat="49.95587" lon="1.19682">
        <ele>106.3</ele>
        <time>2020-06-18T13:41:54Z</time>
      </trkpt>
      <trkpt lat="49.95588" lon="1.19691">
        <ele>106.4</ele>
        <time>2020-06-18T13:41:55Z</time>
      </trkpt>
      <trkpt lat="49.95589" lon="1.19699">
        <ele>106.4</ele>
        <time>2020-06-18T13:41:56Z</time>
      </trkpt>
      <trkpt lat="49.9559" lon="1.19708">
        <ele>106.5</ele>
        <time>2020-06-18T13:41:57Z</time>
      </trkpt>
      <trkpt lat="49.95592" lon="1.19719">
        <ele>106.5</ele>
        <time>2020-06-18T13:41:58Z</time>
      </trkpt>
      <trkpt lat="49.95593" lon="1.19729">
        <ele>106.6</ele>
        <time>2020-06-18T13:41:59Z</time>
      </trkpt>
      <trkpt lat="49.95594" lon="1.19738">
        <ele>106.7</ele>
        <time>2020-06-18T13:42:00Z</time>
      </trkpt>
      <trkpt lat="49.95595" lon="1.19748">
        <ele>106.7</ele>
        <time>2020-06-18T13:42:01Z</time>
      </trkpt>
      <trkpt lat="49.95596" lon="1.19758">
        <ele>106.8</ele>
        <time>2020-06-18T13:42:02Z</time>
      </trkpt>
      <trkpt lat="49.95597" lon="1.19767">
        <ele>106.9</ele>
        <time>2020-06-18T13:42:03Z</time>
      </trkpt>
      <trkpt lat="49.95599" lon="1.19776">
        <ele>106.9</ele>
        <time>2020-06-18T13:42:04Z</time>
      </trkpt>
      <trkpt lat="49.956" lon="1.19785">
        <ele>107</ele>
        <time>2020-06-18T13:42:05Z</time>
      </trkpt>
      <trkpt lat="49.95602" lon="1.19794">
        <ele>107.1</ele>
        <time>2020-06-18T13:42:06Z</time>
      </trkpt>
      <trkpt lat="49.95603" lon="1.19803">
        <ele>107.1</ele>
        <time>2020-06-18T13:42:07Z</time>
      </trkpt>
      <trkpt lat="49.95604" lon="1.19812">
        <ele>107.2</ele>
        <time>2020-06-18T13:42:08Z</time>
      </trkpt>
      <trkpt lat="49.95605" lon="1.19822">
        <ele>107.3</ele>
        <time>2020-06-18T13:42:09Z</time>
      </trkpt>
      <trkpt lat="49.95606" lon="1.19831">
        <ele>107.4</ele>
        <time>2020-06-18T13:42:10Z</time>
      </trkpt>
      <trkpt lat="49.95607" lon="1.1984">
        <ele>107.4</ele>
        <time>2020-06-18T13:42:11Z</time>
      </trkpt>
      <trkpt lat="49.95608" lon="1.19848">
        <ele>107.5</ele>
        <time>2020-06-18T13:42:12Z</time>
      </trkpt>
      <trkpt lat="49.9561" lon="1.19858">
        <ele>107.6</ele>
        <time>2020-06-18T13:42:13Z</time>
      </trkpt>
      <trkpt lat="49.95611" lon="1.19867">
        <ele>107.7</ele>
        <time>2020-06-18T13:42:14Z</time>
      </trkpt>
      <trkpt lat="49.95612" lon="1.19876">
        <ele>107.7</ele>
        <time>2020-06-18T13:42:15Z</time>
      </trkpt>
      <trkpt lat="49.95614" lon="1.19885">
        <ele>107.8</ele>
        <time>2020-06-18T13:42:16Z</time>
      </trkpt>
      <trkpt lat="49.95614" lon="1.19895">
        <ele>107.9</ele>
        <time>2020-06-18T13:42:17Z</time>
      </trkpt>
      <trkpt lat="49.95615" lon="1.19903">
        <ele>107.9</ele>
        <time>2020-06-18T13:42:18Z</time>
      </trkpt>
      <trkpt lat="49.95616" lon="1.19914">
        <ele>108</ele>
        <time>2020-06-18T13:42:19Z</time>
      </trkpt>
      <trkpt lat="49.95617" lon="1.19924">
        <ele>108</ele>
        <time>2020-06-18T13:42:20Z</time>
      </trkpt>
      <trkpt lat="49.95619" lon="1.19935">
        <ele>108.1</ele>
        <time>2020-06-18T13:42:21Z</time>
      </trkpt>
      <trkpt lat="49.9562" lon="1.19945">
        <ele>108.1</ele>
        <time>2020-06-18T13:42:22Z</time>
      </trkpt>
      <trkpt lat="49.95621" lon="1.19956">
        <ele>108.1</ele>
        <time>2020-06-18T13:42:23Z</time>
      </trkpt>
      <trkpt lat="49.95622" lon="1.19966">
        <ele>108.2</ele>
        <time>2020-06-18T13:42:24Z</time>
      </trkpt>
      <trkpt lat="49.95624" lon="1.19976">
        <ele>108.2</ele>
        <time>2020-06-18T13:42:25Z</time>
      </trkpt>
      <trkpt lat="49.95625" lon="1.19986">
        <ele>108.2</ele>
        <time>2020-06-18T13:42:26Z</time>
      </trkpt>
      <trkpt lat="49.95626" lon="1.19996">
        <ele>108.2</ele>
        <time>2020-06-18T13:42:27Z</time>
      </trkpt>
      <trkpt lat="49.95628" lon="1.20007">
        <ele>108.2</ele>
        <time>2020-06-18T13:42:28Z</time>
      </trkpt>
      <trkpt lat="49.95629" lon="1.20016">
        <ele>108.2</ele>
        <time>2020-06-18T13:42:29Z</time>
      </trkpt>
      <trkpt lat="49.95631" lon="1.20028">
        <ele>108.3</ele>
        <time>2020-06-18T13:42:30Z</time>
      </trkpt>
      <trkpt lat="49.95632" lon="1.20038">
        <ele>108.4</ele>
        <time>2020-06-18T13:42:31Z</time>
      </trkpt>
      <trkpt lat="49.95633" lon="1.20049">
        <ele>108.4</ele>
        <time>2020-06-18T13:42:32Z</time>
      </trkpt>
      <trkpt lat="49.95634" lon="1.2006">
        <ele>108.4</ele>
        <time>2020-06-18T13:42:33Z</time>
      </trkpt>
      <trkpt lat="49.95635" lon="1.2007">
        <ele>108.4</ele>
        <time>2020-06-18T13:42:34Z</time>
      </trkpt>
      <trkpt lat="49.95637" lon="1.20081">
        <ele>108.4</ele>
        <time>2020-06-18T13:42:35Z</time>
      </trkpt>
      <trkpt lat="49.95638" lon="1.20091">
        <ele>108.5</ele>
        <time>2020-06-18T13:42:36Z</time>
      </trkpt>
      <trkpt lat="49.95639" lon="1.20101">
        <ele>108.5</ele>
        <time>2020-06-18T13:42:37Z</time>
      </trkpt>
      <trkpt lat="49.95641" lon="1.20111">
        <ele>108.6</ele>
        <time>2020-06-18T13:42:38Z</time>
      </trkpt>
      <trkpt lat="49.95642" lon="1.20121">
        <ele>108.6</ele>
        <time>2020-06-18T13:42:39Z</time>
      </trkpt>
      <trkpt lat="49.95643" lon="1.20131">
        <ele>108.7</ele>
        <time>2020-06-18T13:42:40Z</time>
      </trkpt>
      <trkpt lat="49.95645" lon="1.20141">
        <ele>108.7</ele>
        <time>2020-06-18T13:42:41Z</time>
      </trkpt>
      <trkpt lat="49.95646" lon="1.20151">
        <ele>108.8</ele>
        <time>2020-06-18T13:42:42Z</time>
      </trkpt>
      <trkpt lat="49.95648" lon="1.20162">
        <ele>108.8</ele>
        <time>2020-06-18T13:42:43Z</time>
      </trkpt>
      <trkpt lat="49.95648" lon="1.20171">
        <ele>108.8</ele>
        <time>2020-06-18T13:42:44Z</time>
      </trkpt>
      <trkpt lat="49.95649" lon="1.20182">
        <ele>108.8</ele>
        <time>2020-06-18T13:42:45Z</time>
      </trkpt>
      <trkpt lat="49.9565" lon="1.20193">
        <ele>108.8</ele>
        <time>2020-06-18T13:42:46Z</time>
      </trkpt>
      <trkpt lat="49.95651" lon="1.20204">
        <ele>108.7</ele>
        <time>2020-06-18T13:42:47Z</time>
      </trkpt>
      <trkpt lat="49.95652" lon="1.20214">
        <ele>108.7</ele>
        <time>2020-06-18T13:42:48Z</time>
      </trkpt>
      <trkpt lat="49.95652" lon="1.20225">
        <ele>108.6</ele>
        <time>2020-06-18T13:42:49Z</time>
      </trkpt>
      <trkpt lat="49.95654" lon="1.20235">
        <ele>108.6</ele>
        <time>2020-06-18T13:42:50Z</time>
      </trkpt>
      <trkpt lat="49.95654" lon="1.20245">
        <ele>108.5</ele>
        <time>2020-06-18T13:42:51Z</time>
      </trkpt>
      <trkpt lat="49.95655" lon="1.20256">
        <ele>108.5</ele>
        <time>2020-06-18T13:42:52Z</time>
      </trkpt>
      <trkpt lat="49.95656" lon="1.20268">
        <ele>108.4</ele>
        <time>2020-06-18T13:42:53Z</time>
      </trkpt>
      <trkpt lat="49.95657" lon="1.20278">
        <ele>108.4</ele>
        <time>2020-06-18T13:42:54Z</time>
      </trkpt>
      <trkpt lat="49.95658" lon="1.20289">
        <ele>108.4</ele>
        <time>2020-06-18T13:42:55Z</time>
      </trkpt>
      <trkpt lat="49.95659" lon="1.20299">
        <ele>108.4</ele>
        <time>2020-06-18T13:42:56Z</time>
      </trkpt>
      <trkpt lat="49.95659" lon="1.2031">
        <ele>108.4</ele>
        <time>2020-06-18T13:42:57Z</time>
      </trkpt>
      <trkpt lat="49.9566" lon="1.2032">
        <ele>108.4</ele>
        <time>2020-06-18T13:42:58Z</time>
      </trkpt>
      <trkpt lat="49.9566" lon="1.20331">
        <ele>108.4</ele>
        <time>2020-06-18T13:42:59Z</time>
      </trkpt>
      <trkpt lat="49.95661" lon="1.20343">
        <ele>108.4</ele>
        <time>2020-06-18T13:43:00Z</time>
      </trkpt>
      <trkpt lat="49.95662" lon="1.20355">
        <ele>108.4</ele>
        <time>2020-06-18T13:43:01Z</time>
      </trkpt>
      <trkpt lat="49.95662" lon="1.20366">
        <ele>108.4</ele>
        <time>2020-06-18T13:43:02Z</time>
      </trkpt>
      <trkpt lat="49.95663" lon="1.20378">
        <ele>108.4</ele>
        <time>2020-06-18T13:43:03Z</time>
      </trkpt>
      <trkpt lat="49.95663" lon="1.20389">
        <ele>108.4</ele>
        <time>2020-06-18T13:43:04Z</time>
      </trkpt>
      <trkpt lat="49.95664" lon="1.20399">
        <ele>108.4</ele>
        <time>2020-06-18T13:43:05Z</time>
      </trkpt>
      <trkpt lat="49.95665" lon="1.2041">
        <ele>108.4</ele>
        <time>2020-06-18T13:43:06Z</time>
      </trkpt>
      <trkpt lat="49.95666" lon="1.2042">
        <ele>108.4</ele>
        <time>2020-06-18T13:43:07Z</time>
      </trkpt>
      <trkpt lat="49.95666" lon="1.20431">
        <ele>108.4</ele>
        <time>2020-06-18T13:43:08Z</time>
      </trkpt>
      <trkpt lat="49.95667" lon="1.20442">
        <ele>108.4</ele>
        <time>2020-06-18T13:43:09Z</time>
      </trkpt>
      <trkpt lat="49.95669" lon="1.20453">
        <ele>108.4</ele>
        <time>2020-06-18T13:43:10Z</time>
      </trkpt>
      <trkpt lat="49.95671" lon="1.20463">
        <ele>108.4</ele>
        <time>2020-06-18T13:43:11Z</time>
      </trkpt>
      <trkpt lat="49.95673" lon="1.20473">
        <ele>108.4</ele>
        <time>2020-06-18T13:43:12Z</time>
      </trkpt>
      <trkpt lat="49.95675" lon="1.20482">
        <ele>108.4</ele>
        <time>2020-06-18T13:43:13Z</time>
      </trkpt>
      <trkpt lat="49.95678" lon="1.20493">
        <ele>108.3</ele>
        <time>2020-06-18T13:43:14Z</time>
      </trkpt>
      <trkpt lat="49.9568" lon="1.20503">
        <ele>108.3</ele>
        <time>2020-06-18T13:43:15Z</time>
      </trkpt>
      <trkpt lat="49.95683" lon="1.20513">
        <ele>108.3</ele>
        <time>2020-06-18T13:43:16Z</time>
      </trkpt>
      <trkpt lat="49.95687" lon="1.20522">
        <ele>108.3</ele>
        <time>2020-06-18T13:43:17Z</time>
      </trkpt>
      <trkpt lat="49.95691" lon="1.20531">
        <ele>108.3</ele>
        <time>2020-06-18T13:43:18Z</time>
      </trkpt>
      <trkpt lat="49.95695" lon="1.20541">
        <ele>108.3</ele>
        <time>2020-06-18T13:43:19Z</time>
      </trkpt>
      <trkpt lat="49.95699" lon="1.2055">
        <ele>108.4</ele>
        <time>2020-06-18T13:43:20Z</time>
      </trkpt>
      <trkpt lat="49.95703" lon="1.20558">
        <ele>108.4</ele>
        <time>2020-06-18T13:43:21Z</time>
      </trkpt>
      <trkpt lat="49.95707" lon="1.20567">
        <ele>108.4</ele>
        <time>2020-06-18T13:43:22Z</time>
      </trkpt>
      <trkpt lat="49.95711" lon="1.20576">
        <ele>108.4</ele>
        <time>2020-06-18T13:43:23Z</time>
      </trkpt>
      <trkpt lat="49.95715" lon="1.20584">
        <ele>108.4</ele>
        <time>2020-06-18T13:43:24Z</time>
      </trkpt>
      <trkpt lat="49.95719" lon="1.20592">
        <ele>108.4</ele>
        <time>2020-06-18T13:43:25Z</time>
      </trkpt>
      <trkpt lat="49.95723" lon="1.206">
        <ele>108.4</ele>
        <time>2020-06-18T13:43:26Z</time>
      </trkpt>
      <trkpt lat="49.95728" lon="1.20608">
        <ele>108.4</ele>
        <time>2020-06-18T13:43:27Z</time>
      </trkpt>
      <trkpt lat="49.95732" lon="1.20616">
        <ele>108.4</ele>
        <time>2020-06-18T13:43:28Z</time>
      </trkpt>
      <trkpt lat="49.95736" lon="1.20624">
        <ele>108.4</ele>
        <time>2020-06-18T13:43:29Z</time>
      </trkpt>
      <trkpt lat="49.95741" lon="1.20633">
        <ele>108.3</ele>
        <time>2020-06-18T13:43:30Z</time>
      </trkpt>
      <trkpt lat="49.95744" lon="1.20641">
        <ele>108.3</ele>
        <time>2020-06-18T13:43:31Z</time>
      </trkpt>
      <trkpt lat="49.95748" lon="1.20649">
        <ele>108.3</ele>
        <time>2020-06-18T13:43:32Z</time>
      </trkpt>
      <trkpt lat="49.95753" lon="1.20658">
        <ele>108.3</ele>
        <time>2020-06-18T13:43:33Z</time>
      </trkpt>
      <trkpt lat="49.95757" lon="1.20666">
        <ele>108.3</ele>
        <time>2020-06-18T13:43:34Z</time>
      </trkpt>
      <trkpt lat="49.95761" lon="1.20674">
        <ele>108.3</ele>
        <time>2020-06-18T13:43:35Z</time>
      </trkpt>
      <trkpt lat="49.95765" lon="1.20682">
        <ele>108.4</ele>
        <time>2020-06-18T13:43:36Z</time>
      </trkpt>
      <trkpt lat="49.95769" lon="1.20689">
        <ele>108.4</ele>
        <time>2020-06-18T13:43:37Z</time>
      </trkpt>
      <trkpt lat="49.95772" lon="1.20697">
        <ele>108.4</ele>
        <time>2020-06-18T13:43:38Z</time>
      </trkpt>
      <trkpt lat="49.95776" lon="1.20705">
        <ele>108.4</ele>
        <time>2020-06-18T13:43:39Z</time>
      </trkpt>
      <trkpt lat="49.9578" lon="1.20713">
        <ele>108.4</ele>
        <time>2020-06-18T13:43:40Z</time>
      </trkpt>
      <trkpt lat="49.95784" lon="1.20721">
        <ele>108.4</ele>
        <time>2020-06-18T13:43:41Z</time>
      </trkpt>
      <trkpt lat="49.95787" lon="1.2073">
        <ele>108.4</ele>
        <time>2020-06-18T13:43:42Z</time>
      </trkpt>
      <trkpt lat="49.95791" lon="1.20737">
        <ele>108.4</ele>
        <time>2020-06-18T13:43:43Z</time>
      </trkpt>
      <trkpt lat="49.95795" lon="1.20745">
        <ele>108.4</ele>
        <time>2020-06-18T13:43:44Z</time>
      </trkpt>
      <trkpt lat="49.95799" lon="1.20754">
        <ele>108.4</ele>
        <time>2020-06-18T13:43:45Z</time>
      </trkpt>
      <trkpt lat="49.95802" lon="1.20762">
        <ele>108.4</ele>
        <time>2020-06-18T13:43:46Z</time>
      </trkpt>
      <trkpt lat="49.95805" lon="1.20772">
        <ele>108.4</ele>
        <time>2020-06-18T13:43:47Z</time>
      </trkpt>
      <trkpt lat="49.95807" lon="1.20781">
        <ele>108.3</ele>
        <time>2020-06-18T13:43:48Z</time>
      </trkpt>
      <trkpt lat="49.95809" lon="1.20791">
        <ele>108.3</ele>
        <time>2020-06-18T13:43:49Z</time>
      </trkpt>
      <trkpt lat="49.95809" lon="1.208">
        <ele>108.2</ele>
        <time>2020-06-18T13:43:50Z</time>
      </trkpt>
      <trkpt lat="49.9581" lon="1.2081">
        <ele>108.2</ele>
        <time>2020-06-18T13:43:51Z</time>
      </trkpt>
      <trkpt lat="49.95809" lon="1.2082">
        <ele>108.2</ele>
        <time>2020-06-18T13:43:52Z</time>
      </trkpt>
      <trkpt lat="49.95808" lon="1.20831">
        <ele>108.2</ele>
        <time>2020-06-18T13:43:53Z</time>
      </trkpt>
      <trkpt lat="49.95807" lon="1.2084">
        <ele>108.3</ele>
        <time>2020-06-18T13:43:54Z</time>
      </trkpt>
      <trkpt lat="49.95806" lon="1.2085">
        <ele>108.3</ele>
        <time>2020-06-18T13:43:55Z</time>
      </trkpt>
      <trkpt lat="49.95805" lon="1.20859">
        <ele>108.3</ele>
        <time>2020-06-18T13:43:56Z</time>
      </trkpt>
      <trkpt lat="49.95803" lon="1.20869">
        <ele>108.3</ele>
        <time>2020-06-18T13:43:57Z</time>
      </trkpt>
      <trkpt lat="49.95802" lon="1.20879">
        <ele>108.3</ele>
        <time>2020-06-18T13:43:58Z</time>
      </trkpt>
      <trkpt lat="49.958" lon="1.2089">
        <ele>108.4</ele>
        <time>2020-06-18T13:43:59Z</time>
      </trkpt>
      <trkpt lat="49.95799" lon="1.209">
        <ele>108.4</ele>
        <time>2020-06-18T13:44:00Z</time>
      </trkpt>
      <trkpt lat="49.95798" lon="1.20911">
        <ele>108.4</ele>
        <time>2020-06-18T13:44:01Z</time>
      </trkpt>
      <trkpt lat="49.95796" lon="1.20921">
        <ele>108.5</ele>
        <time>2020-06-18T13:44:02Z</time>
      </trkpt>
      <trkpt lat="49.95795" lon="1.20931">
        <ele>108.5</ele>
        <time>2020-06-18T13:44:03Z</time>
      </trkpt>
      <trkpt lat="49.95794" lon="1.20942">
        <ele>108.5</ele>
        <time>2020-06-18T13:44:04Z</time>
      </trkpt>
      <trkpt lat="49.95792" lon="1.20951">
        <ele>108.5</ele>
        <time>2020-06-18T13:44:05Z</time>
      </trkpt>
      <trkpt lat="49.95791" lon="1.20962">
        <ele>108.5</ele>
        <time>2020-06-18T13:44:06Z</time>
      </trkpt>
      <trkpt lat="49.95789" lon="1.20972">
        <ele>108.5</ele>
        <time>2020-06-18T13:44:07Z</time>
      </trkpt>
      <trkpt lat="49.95788" lon="1.20982">
        <ele>108.4</ele>
        <time>2020-06-18T13:44:08Z</time>
      </trkpt>
      <trkpt lat="49.95787" lon="1.20992">
        <ele>108.4</ele>
        <time>2020-06-18T13:44:09Z</time>
      </trkpt>
      <trkpt lat="49.95786" lon="1.21003">
        <ele>108.4</ele>
        <time>2020-06-18T13:44:10Z</time>
      </trkpt>
      <trkpt lat="49.95784" lon="1.21014">
        <ele>108.3</ele>
        <time>2020-06-18T13:44:11Z</time>
      </trkpt>
      <trkpt lat="49.95783" lon="1.21025">
        <ele>108.3</ele>
        <time>2020-06-18T13:44:12Z</time>
      </trkpt>
      <trkpt lat="49.95781" lon="1.21036">
        <ele>108.3</ele>
        <time>2020-06-18T13:44:13Z</time>
      </trkpt>
      <trkpt lat="49.95779" lon="1.21047">
        <ele>108.3</ele>
        <time>2020-06-18T13:44:14Z</time>
      </trkpt>
      <trkpt lat="49.95778" lon="1.21057">
        <ele>108.3</ele>
        <time>2020-06-18T13:44:15Z</time>
      </trkpt>
      <trkpt lat="49.95776" lon="1.21068">
        <ele>108.3</ele>
        <time>2020-06-18T13:44:16Z</time>
      </trkpt>
      <trkpt lat="49.95775" lon="1.21079">
        <ele>108.3</ele>
        <time>2020-06-18T13:44:17Z</time>
      </trkpt>
      <trkpt lat="49.95773" lon="1.21089">
        <ele>108.2</ele>
        <time>2020-06-18T13:44:18Z</time>
      </trkpt>
      <trkpt lat="49.95771" lon="1.211">
        <ele>108.2</ele>
        <time>2020-06-18T13:44:19Z</time>
      </trkpt>
      <trkpt lat="49.9577" lon="1.2111">
        <ele>108.2</ele>
        <time>2020-06-18T13:44:20Z</time>
      </trkpt>
      <trkpt lat="49.95768" lon="1.21122">
        <ele>108.2</ele>
        <time>2020-06-18T13:44:21Z</time>
      </trkpt>
      <trkpt lat="49.95767" lon="1.21134">
        <ele>108.2</ele>
        <time>2020-06-18T13:44:22Z</time>
      </trkpt>
      <trkpt lat="49.95766" lon="1.21145">
        <ele>108.1</ele>
        <time>2020-06-18T13:44:23Z</time>
      </trkpt>
      <trkpt lat="49.95764" lon="1.21156">
        <ele>108.1</ele>
        <time>2020-06-18T13:44:24Z</time>
      </trkpt>
      <trkpt lat="49.95764" lon="1.21167">
        <ele>108.1</ele>
        <time>2020-06-18T13:44:25Z</time>
      </trkpt>
      <trkpt lat="49.95763" lon="1.21177">
        <ele>108.1</ele>
        <time>2020-06-18T13:44:26Z</time>
      </trkpt>
      <trkpt lat="49.95763" lon="1.21188">
        <ele>108.1</ele>
        <time>2020-06-18T13:44:27Z</time>
      </trkpt>
      <trkpt lat="49.95763" lon="1.21199">
        <ele>108.1</ele>
        <time>2020-06-18T13:44:28Z</time>
      </trkpt>
      <trkpt lat="49.95763" lon="1.2121">
        <ele>108.2</ele>
        <time>2020-06-18T13:44:29Z</time>
      </trkpt>
      <trkpt lat="49.95764" lon="1.21222">
        <ele>108.2</ele>
        <time>2020-06-18T13:44:30Z</time>
      </trkpt>
      <trkpt lat="49.95764" lon="1.21232">
        <ele>108.3</ele>
        <time>2020-06-18T13:44:31Z</time>
      </trkpt>
      <trkpt lat="49.95765" lon="1.21243">
        <ele>108.3</ele>
        <time>2020-06-18T13:44:32Z</time>
      </trkpt>
      <trkpt lat="49.95766" lon="1.21252">
        <ele>108.4</ele>
        <time>2020-06-18T13:44:33Z</time>
      </trkpt>
      <trkpt lat="49.95767" lon="1.21262">
        <ele>108.4</ele>
        <time>2020-06-18T13:44:34Z</time>
      </trkpt>
      <trkpt lat="49.95768" lon="1.21272">
        <ele>108.5</ele>
        <time>2020-06-18T13:44:35Z</time>
      </trkpt>
      <trkpt lat="49.95769" lon="1.21283">
        <ele>108.5</ele>
        <time>2020-06-18T13:44:36Z</time>
      </trkpt>
      <trkpt lat="49.95769" lon="1.21293">
        <ele>108.5</ele>
        <time>2020-06-18T13:44:37Z</time>
      </trkpt>
      <trkpt lat="49.9577" lon="1.21303">
        <ele>108.6</ele>
        <time>2020-06-18T13:44:38Z</time>
      </trkpt>
      <trkpt lat="49.9577" lon="1.21313">
        <ele>108.6</ele>
        <time>2020-06-18T13:44:39Z</time>
      </trkpt>
      <trkpt lat="49.9577" lon="1.21324">
        <ele>108.7</ele>
        <time>2020-06-18T13:44:40Z</time>
      </trkpt>
      <trkpt lat="49.95769" lon="1.21334">
        <ele>108.8</ele>
        <time>2020-06-18T13:44:41Z</time>
      </trkpt>
      <trkpt lat="49.95767" lon="1.21344">
        <ele>108.8</ele>
        <time>2020-06-18T13:44:42Z</time>
      </trkpt>
      <trkpt lat="49.95766" lon="1.21354">
        <ele>108.8</ele>
        <time>2020-06-18T13:44:43Z</time>
      </trkpt>
      <trkpt lat="49.95765" lon="1.21364">
        <ele>108.8</ele>
        <time>2020-06-18T13:44:44Z</time>
      </trkpt>
      <trkpt lat="49.95764" lon="1.21375">
        <ele>108.8</ele>
        <time>2020-06-18T13:44:45Z</time>
      </trkpt>
      <trkpt lat="49.95763" lon="1.21384">
        <ele>108.8</ele>
        <time>2020-06-18T13:44:46Z</time>
      </trkpt>
      <trkpt lat="49.95761" lon="1.21394">
        <ele>108.8</ele>
        <time>2020-06-18T13:44:47Z</time>
      </trkpt>
      <trkpt lat="49.9576" lon="1.21404">
        <ele>108.8</ele>
        <time>2020-06-18T13:44:48Z</time>
      </trkpt>
      <trkpt lat="49.95758" lon="1.21413">
        <ele>108.8</ele>
        <time>2020-06-18T13:44:49Z</time>
      </trkpt>
      <trkpt lat="49.95756" lon="1.21423">
        <ele>108.9</ele>
        <time>2020-06-18T13:44:50Z</time>
      </trkpt>
      <trkpt lat="49.95755" lon="1.21434">
        <ele>108.9</ele>
        <time>2020-06-18T13:44:51Z</time>
      </trkpt>
      <trkpt lat="49.95753" lon="1.21444">
        <ele>108.9</ele>
        <time>2020-06-18T13:44:52Z</time>
      </trkpt>
      <trkpt lat="49.95751" lon="1.21454">
        <ele>109</ele>
        <time>2020-06-18T13:44:53Z</time>
      </trkpt>
      <trkpt lat="49.9575" lon="1.21464">
        <ele>109</ele>
        <time>2020-06-18T13:44:54Z</time>
      </trkpt>
      <trkpt lat="49.95748" lon="1.21475">
        <ele>109.1</ele>
        <time>2020-06-18T13:44:55Z</time>
      </trkpt>
      <trkpt lat="49.95746" lon="1.21485">
        <ele>109.1</ele>
        <time>2020-06-18T13:44:56Z</time>
      </trkpt>
      <trkpt lat="49.95746" lon="1.21496">
        <ele>109.2</ele>
        <time>2020-06-18T13:44:57Z</time>
      </trkpt>
      <trkpt lat="49.95744" lon="1.21506">
        <ele>109.2</ele>
        <time>2020-06-18T13:44:58Z</time>
      </trkpt>
      <trkpt lat="49.95744" lon="1.21516">
        <ele>109.2</ele>
        <time>2020-06-18T13:44:59Z</time>
      </trkpt>
      <trkpt lat="49.95743" lon="1.21527">
        <ele>109.3</ele>
        <time>2020-06-18T13:45:00Z</time>
      </trkpt>
      <trkpt lat="49.95743" lon="1.21538">
        <ele>109.5</ele>
        <time>2020-06-18T13:45:01Z</time>
      </trkpt>
      <trkpt lat="49.95742" lon="1.21547">
        <ele>109.6</ele>
        <time>2020-06-18T13:45:02Z</time>
      </trkpt>
      <trkpt lat="49.95743" lon="1.21555">
        <ele>109.7</ele>
        <time>2020-06-18T13:45:03Z</time>
      </trkpt>
      <trkpt lat="49.95743" lon="1.21565">
        <ele>109.8</ele>
        <time>2020-06-18T13:45:04Z</time>
      </trkpt>
      <trkpt lat="49.95741" lon="1.21575">
        <ele>109.8</ele>
        <time>2020-06-18T13:45:05Z</time>
      </trkpt>
      <trkpt lat="49.95741" lon="1.21586">
        <ele>109.9</ele>
        <time>2020-06-18T13:45:06Z</time>
      </trkpt>
      <trkpt lat="49.95741" lon="1.21595">
        <ele>109.9</ele>
        <time>2020-06-18T13:45:07Z</time>
      </trkpt>
      <trkpt lat="49.95741" lon="1.21605">
        <ele>110</ele>
        <time>2020-06-18T13:45:08Z</time>
      </trkpt>
      <trkpt lat="49.95741" lon="1.21616">
        <ele>110.1</ele>
        <time>2020-06-18T13:45:09Z</time>
      </trkpt>
      <trkpt lat="49.9574" lon="1.21627">
        <ele>110.2</ele>
        <time>2020-06-18T13:45:10Z</time>
      </trkpt>
      <trkpt lat="49.95739" lon="1.21638">
        <ele>110.2</ele>
        <time>2020-06-18T13:45:11Z</time>
      </trkpt>
      <trkpt lat="49.95738" lon="1.21647">
        <ele>110.3</ele>
        <time>2020-06-18T13:45:12Z</time>
      </trkpt>
      <trkpt lat="49.95738" lon="1.21657">
        <ele>110.4</ele>
        <time>2020-06-18T13:45:13Z</time>
      </trkpt>
      <trkpt lat="49.95738" lon="1.21667">
        <ele>110.4</ele>
        <time>2020-06-18T13:45:14Z</time>
      </trkpt>
      <trkpt lat="49.95738" lon="1.21678">
        <ele>110.5</ele>
        <time>2020-06-18T13:45:15Z</time>
      </trkpt>
      <trkpt lat="49.95738" lon="1.21689">
        <ele>110.6</ele>
        <time>2020-06-18T13:45:16Z</time>
      </trkpt>
      <trkpt lat="49.95738" lon="1.21698">
        <ele>110.7</ele>
        <time>2020-06-18T13:45:17Z</time>
      </trkpt>
      <trkpt lat="49.95737" lon="1.21708">
        <ele>110.7</ele>
        <time>2020-06-18T13:45:18Z</time>
      </trkpt>
      <trkpt lat="49.95737" lon="1.21718">
        <ele>110.8</ele>
        <time>2020-06-18T13:45:19Z</time>
      </trkpt>
      <trkpt lat="49.95737" lon="1.21726">
        <ele>110.9</ele>
        <time>2020-06-18T13:45:20Z</time>
      </trkpt>
      <trkpt lat="49.95737" lon="1.21735">
        <ele>110.9</ele>
        <time>2020-06-18T13:45:21Z</time>
      </trkpt>
      <trkpt lat="49.95737" lon="1.21745">
        <ele>111</ele>
        <time>2020-06-18T13:45:22Z</time>
      </trkpt>
      <trkpt lat="49.95737" lon="1.21755">
        <ele>111.2</ele>
        <time>2020-06-18T13:45:23Z</time>
      </trkpt>
      <trkpt lat="49.95737" lon="1.21765">
        <ele>111.3</ele>
        <time>2020-06-18T13:45:24Z</time>
      </trkpt>
      <trkpt lat="49.95737" lon="1.21774">
        <ele>111.3</ele>
        <time>2020-06-18T13:45:25Z</time>
      </trkpt>
      <trkpt lat="49.95737" lon="1.21782">
        <ele>111.4</ele>
        <time>2020-06-18T13:45:26Z</time>
      </trkpt>
      <trkpt lat="49.95736" lon="1.21791">
        <ele>111.5</ele>
        <time>2020-06-18T13:45:27Z</time>
      </trkpt>
      <trkpt lat="49.95736" lon="1.21801">
        <ele>111.5</ele>
        <time>2020-06-18T13:45:28Z</time>
      </trkpt>
      <trkpt lat="49.95736" lon="1.21811">
        <ele>111.6</ele>
        <time>2020-06-18T13:45:29Z</time>
      </trkpt>
      <trkpt lat="49.95735" lon="1.2182">
        <ele>111.6</ele>
        <time>2020-06-18T13:45:30Z</time>
      </trkpt>
      <trkpt lat="49.95735" lon="1.2183">
        <ele>111.7</ele>
        <time>2020-06-18T13:45:31Z</time>
      </trkpt>
      <trkpt lat="49.95735" lon="1.21839">
        <ele>111.8</ele>
        <time>2020-06-18T13:45:32Z</time>
      </trkpt>
      <trkpt lat="49.95734" lon="1.21851">
        <ele>112</ele>
        <time>2020-06-18T13:45:33Z</time>
      </trkpt>
      <trkpt lat="49.95732" lon="1.21862">
        <ele>112.1</ele>
        <time>2020-06-18T13:45:34Z</time>
      </trkpt>
      <trkpt lat="49.95731" lon="1.21872">
        <ele>112.3</ele>
        <time>2020-06-18T13:45:35Z</time>
      </trkpt>
      <trkpt lat="49.9573" lon="1.2188">
        <ele>112.3</ele>
        <time>2020-06-18T13:45:36Z</time>
      </trkpt>
      <trkpt lat="49.95728" lon="1.21889">
        <ele>112.4</ele>
        <time>2020-06-18T13:45:37Z</time>
      </trkpt>
      <trkpt lat="49.95726" lon="1.21897">
        <ele>112.4</ele>
        <time>2020-06-18T13:45:38Z</time>
      </trkpt>
      <trkpt lat="49.95726" lon="1.21904">
        <ele>112.5</ele>
        <time>2020-06-18T13:45:39Z</time>
      </trkpt>
      <trkpt lat="49.95726" lon="1.21912">
        <ele>112.6</ele>
        <time>2020-06-18T13:45:40Z</time>
      </trkpt>
      <trkpt lat="49.95726" lon="1.21922">
        <ele>112.6</ele>
        <time>2020-06-18T13:45:41Z</time>
      </trkpt>
      <trkpt lat="49.95727" lon="1.21931">
        <ele>112.7</ele>
        <time>2020-06-18T13:45:42Z</time>
      </trkpt>
      <trkpt lat="49.95729" lon="1.21938">
        <ele>112.7</ele>
        <time>2020-06-18T13:45:43Z</time>
      </trkpt>
      <trkpt lat="49.95731" lon="1.21944">
        <ele>112.7</ele>
        <time>2020-06-18T13:45:44Z</time>
      </trkpt>
      <trkpt lat="49.95733" lon="1.2195">
        <ele>112.8</ele>
        <time>2020-06-18T13:45:45Z</time>
      </trkpt>
      <trkpt lat="49.95736" lon="1.21957">
        <ele>112.8</ele>
        <time>2020-06-18T13:45:46Z</time>
      </trkpt>
      <trkpt lat="49.9574" lon="1.21964">
        <ele>112.8</ele>
        <time>2020-06-18T13:45:47Z</time>
      </trkpt>
      <trkpt lat="49.95743" lon="1.21971">
        <ele>112.8</ele>
        <time>2020-06-18T13:45:48Z</time>
      </trkpt>
      <trkpt lat="49.95746" lon="1.21977">
        <ele>112.9</ele>
        <time>2020-06-18T13:45:49Z</time>
      </trkpt>
      <trkpt lat="49.9575" lon="1.21983">
        <ele>113</ele>
        <time>2020-06-18T13:45:50Z</time>
      </trkpt>
      <trkpt lat="49.95753" lon="1.21989">
        <ele>113</ele>
        <time>2020-06-18T13:45:51Z</time>
      </trkpt>
      <trkpt lat="49.95757" lon="1.21994">
        <ele>113.1</ele>
        <time>2020-06-18T13:45:52Z</time>
      </trkpt>
      <trkpt lat="49.9576" lon="1.22001">
        <ele>113.1</ele>
        <time>2020-06-18T13:45:53Z</time>
      </trkpt>
      <trkpt lat="49.95762" lon="1.22008">
        <ele>113.2</ele>
        <time>2020-06-18T13:45:54Z</time>
      </trkpt>
      <trkpt lat="49.95762" lon="1.22013">
        <ele>113.2</ele>
        <time>2020-06-18T13:45:55Z</time>
      </trkpt>
      <trkpt lat="49.9576" lon="1.22021">
        <ele>113.2</ele>
        <time>2020-06-18T13:45:56Z</time>
      </trkpt>
      <trkpt lat="49.95758" lon="1.22029">
        <ele>113.3</ele>
        <time>2020-06-18T13:45:57Z</time>
      </trkpt>
      <trkpt lat="49.95756" lon="1.22038">
        <ele>113.3</ele>
        <time>2020-06-18T13:45:58Z</time>
      </trkpt>
      <trkpt lat="49.95754" lon="1.22048">
        <ele>113.3</ele>
        <time>2020-06-18T13:45:59Z</time>
      </trkpt>
      <trkpt lat="49.95751" lon="1.22056">
        <ele>113.4</ele>
        <time>2020-06-18T13:46:00Z</time>
      </trkpt>
      <trkpt lat="49.95748" lon="1.22065">
        <ele>113.4</ele>
        <time>2020-06-18T13:46:01Z</time>
      </trkpt>
      <trkpt lat="49.95746" lon="1.22072">
        <ele>113.5</ele>
        <time>2020-06-18T13:46:02Z</time>
      </trkpt>
      <trkpt lat="49.95743" lon="1.22079">
        <ele>113.6</ele>
        <time>2020-06-18T13:46:03Z</time>
      </trkpt>
      <trkpt lat="49.95739" lon="1.22088">
        <ele>113.7</ele>
        <time>2020-06-18T13:46:04Z</time>
      </trkpt>
      <trkpt lat="49.95736" lon="1.22098">
        <ele>113.8</ele>
        <time>2020-06-18T13:46:05Z</time>
      </trkpt>
      <trkpt lat="49.95734" lon="1.22107">
        <ele>114</ele>
        <time>2020-06-18T13:46:06Z</time>
      </trkpt>
      <trkpt lat="49.95731" lon="1.22115">
        <ele>114.1</ele>
        <time>2020-06-18T13:46:07Z</time>
      </trkpt>
      <trkpt lat="49.95728" lon="1.22123">
        <ele>114.2</ele>
        <time>2020-06-18T13:46:08Z</time>
      </trkpt>
      <trkpt lat="49.95725" lon="1.22132">
        <ele>114.2</ele>
        <time>2020-06-18T13:46:09Z</time>
      </trkpt>
      <trkpt lat="49.95724" lon="1.22141">
        <ele>114.2</ele>
        <time>2020-06-18T13:46:10Z</time>
      </trkpt>
      <trkpt lat="49.95722" lon="1.22149">
        <ele>114.2</ele>
        <time>2020-06-18T13:46:11Z</time>
      </trkpt>
      <trkpt lat="49.95721" lon="1.22158">
        <ele>114.2</ele>
        <time>2020-06-18T13:46:12Z</time>
      </trkpt>
      <trkpt lat="49.95718" lon="1.22167">
        <ele>114.2</ele>
        <time>2020-06-18T13:46:13Z</time>
      </trkpt>
      <trkpt lat="49.95717" lon="1.22175">
        <ele>114.2</ele>
        <time>2020-06-18T13:46:14Z</time>
      </trkpt>
      <trkpt lat="49.95715" lon="1.22183">
        <ele>114.2</ele>
        <time>2020-06-18T13:46:15Z</time>
      </trkpt>
      <trkpt lat="49.95714" lon="1.2219">
        <ele>114.2</ele>
        <time>2020-06-18T13:46:16Z</time>
      </trkpt>
      <trkpt lat="49.95713" lon="1.22198">
        <ele>114.3</ele>
        <time>2020-06-18T13:46:17Z</time>
      </trkpt>
      <trkpt lat="49.95711" lon="1.22204">
        <ele>114.3</ele>
        <time>2020-06-18T13:46:18Z</time>
      </trkpt>
      <trkpt lat="49.9571" lon="1.2221">
        <ele>114.3</ele>
        <time>2020-06-18T13:46:19Z</time>
      </trkpt>
      <trkpt lat="49.95709" lon="1.22218">
        <ele>114.4</ele>
        <time>2020-06-18T13:46:20Z</time>
      </trkpt>
      <trkpt lat="49.95709" lon="1.22224">
        <ele>114.4</ele>
        <time>2020-06-18T13:46:21Z</time>
      </trkpt>
      <trkpt lat="49.9571" lon="1.22231">
        <ele>114.5</ele>
        <time>2020-06-18T13:46:22Z</time>
      </trkpt>
      <trkpt lat="49.95711" lon="1.22238">
        <ele>114.4</ele>
        <time>2020-06-18T13:46:23Z</time>
      </trkpt>
      <trkpt lat="49.95713" lon="1.22244">
        <ele>114.3</ele>
        <time>2020-06-18T13:46:24Z</time>
      </trkpt>
      <trkpt lat="49.95717" lon="1.22249">
        <ele>114.2</ele>
        <time>2020-06-18T13:46:25Z</time>
      </trkpt>
      <trkpt lat="49.95721" lon="1.22253">
        <ele>114.1</ele>
        <time>2020-06-18T13:46:26Z</time>
      </trkpt>
      <trkpt lat="49.95725" lon="1.22256">
        <ele>114</ele>
        <time>2020-06-18T13:46:27Z</time>
      </trkpt>
      <trkpt lat="49.95731" lon="1.2226">
        <ele>113.9</ele>
        <time>2020-06-18T13:46:28Z</time>
      </trkpt>
      <trkpt lat="49.95737" lon="1.22264">
        <ele>113.8</ele>
        <time>2020-06-18T13:46:29Z</time>
      </trkpt>
      <trkpt lat="49.95742" lon="1.22267">
        <ele>113.7</ele>
        <time>2020-06-18T13:46:30Z</time>
      </trkpt>
      <trkpt lat="49.95747" lon="1.2227">
        <ele>113.7</ele>
        <time>2020-06-18T13:46:31Z</time>
      </trkpt>
      <trkpt lat="49.95752" lon="1.22274">
        <ele>113.7</ele>
        <time>2020-06-18T13:46:32Z</time>
      </trkpt>
      <trkpt lat="49.95757" lon="1.22277">
        <ele>113.7</ele>
        <time>2020-06-18T13:46:33Z</time>
      </trkpt>
      <trkpt lat="49.95762" lon="1.22281">
        <ele>113.7</ele>
        <time>2020-06-18T13:46:34Z</time>
      </trkpt>
      <trkpt lat="49.95767" lon="1.22285">
        <ele>113.7</ele>
        <time>2020-06-18T13:46:35Z</time>
      </trkpt>
      <trkpt lat="49.95773" lon="1.2229">
        <ele>113.7</ele>
        <time>2020-06-18T13:46:36Z</time>
      </trkpt>
      <trkpt lat="49.95779" lon="1.22294">
        <ele>113.7</ele>
        <time>2020-06-18T13:46:37Z</time>
      </trkpt>
      <trkpt lat="49.95785" lon="1.22298">
        <ele>113.7</ele>
        <time>2020-06-18T13:46:38Z</time>
      </trkpt>
      <trkpt lat="49.95791" lon="1.22302">
        <ele>113.7</ele>
        <time>2020-06-18T13:46:39Z</time>
      </trkpt>
      <trkpt lat="49.95797" lon="1.22306">
        <ele>113.7</ele>
        <time>2020-06-18T13:46:40Z</time>
      </trkpt>
      <trkpt lat="49.95803" lon="1.2231">
        <ele>113.7</ele>
        <time>2020-06-18T13:46:41Z</time>
      </trkpt>
      <trkpt lat="49.95809" lon="1.22313">
        <ele>113.7</ele>
        <time>2020-06-18T13:46:42Z</time>
      </trkpt>
      <trkpt lat="49.95814" lon="1.22318">
        <ele>113.7</ele>
        <time>2020-06-18T13:46:43Z</time>
      </trkpt>
      <trkpt lat="49.9582" lon="1.2232">
        <ele>113.8</ele>
        <time>2020-06-18T13:46:44Z</time>
      </trkpt>
      <trkpt lat="49.95826" lon="1.22324">
        <ele>113.8</ele>
        <time>2020-06-18T13:46:45Z</time>
      </trkpt>
      <trkpt lat="49.95832" lon="1.22327">
        <ele>113.9</ele>
        <time>2020-06-18T13:46:46Z</time>
      </trkpt>
      <trkpt lat="49.95838" lon="1.2233">
        <ele>113.9</ele>
        <time>2020-06-18T13:46:47Z</time>
      </trkpt>
      <trkpt lat="49.95844" lon="1.22332">
        <ele>114</ele>
        <time>2020-06-18T13:46:48Z</time>
      </trkpt>
      <trkpt lat="49.9585" lon="1.22336">
        <ele>114</ele>
        <time>2020-06-18T13:46:49Z</time>
      </trkpt>
      <trkpt lat="49.95856" lon="1.22339">
        <ele>114.1</ele>
        <time>2020-06-18T13:46:50Z</time>
      </trkpt>
      <trkpt lat="49.95862" lon="1.22343">
        <ele>114.1</ele>
        <time>2020-06-18T13:46:51Z</time>
      </trkpt>
      <trkpt lat="49.95868" lon="1.22346">
        <ele>114.1</ele>
        <time>2020-06-18T13:46:52Z</time>
      </trkpt>
      <trkpt lat="49.95874" lon="1.2235">
        <ele>114.1</ele>
        <time>2020-06-18T13:46:53Z</time>
      </trkpt>
      <trkpt lat="49.95879" lon="1.22353">
        <ele>114.2</ele>
        <time>2020-06-18T13:46:54Z</time>
      </trkpt>
      <trkpt lat="49.95885" lon="1.22356">
        <ele>114.2</ele>
        <time>2020-06-18T13:46:55Z</time>
      </trkpt>
      <trkpt lat="49.95891" lon="1.2236">
        <ele>114.2</ele>
        <time>2020-06-18T13:46:56Z</time>
      </trkpt>
      <trkpt lat="49.95897" lon="1.22363">
        <ele>114.2</ele>
        <time>2020-06-18T13:46:57Z</time>
      </trkpt>
      <trkpt lat="49.95903" lon="1.22367">
        <ele>114.3</ele>
        <time>2020-06-18T13:46:58Z</time>
      </trkpt>
      <trkpt lat="49.95909" lon="1.2237">
        <ele>114.3</ele>
        <time>2020-06-18T13:46:59Z</time>
      </trkpt>
      <trkpt lat="49.95915" lon="1.22372">
        <ele>114.4</ele>
        <time>2020-06-18T13:47:00Z</time>
      </trkpt>
      <trkpt lat="49.95921" lon="1.22374">
        <ele>114.4</ele>
        <time>2020-06-18T13:47:01Z</time>
      </trkpt>
      <trkpt lat="49.95927" lon="1.22377">
        <ele>114.4</ele>
        <time>2020-06-18T13:47:02Z</time>
      </trkpt>
      <trkpt lat="49.95933" lon="1.22379">
        <ele>114.5</ele>
        <time>2020-06-18T13:47:03Z</time>
      </trkpt>
      <trkpt lat="49.95939" lon="1.2238">
        <ele>114.5</ele>
        <time>2020-06-18T13:47:04Z</time>
      </trkpt>
      <trkpt lat="49.95945" lon="1.22383">
        <ele>114.5</ele>
        <time>2020-06-18T13:47:05Z</time>
      </trkpt>
      <trkpt lat="49.95951" lon="1.22385">
        <ele>114.5</ele>
        <time>2020-06-18T13:47:06Z</time>
      </trkpt>
      <trkpt lat="49.95957" lon="1.22386">
        <ele>114.5</ele>
        <time>2020-06-18T13:47:07Z</time>
      </trkpt>
      <trkpt lat="49.95963" lon="1.22388">
        <ele>114.5</ele>
        <time>2020-06-18T13:47:08Z</time>
      </trkpt>
      <trkpt lat="49.9597" lon="1.22388">
        <ele>114.5</ele>
        <time>2020-06-18T13:47:09Z</time>
      </trkpt>
      <trkpt lat="49.95977" lon="1.22389">
        <ele>114.5</ele>
        <time>2020-06-18T13:47:10Z</time>
      </trkpt>
      <trkpt lat="49.95983" lon="1.22391">
        <ele>114.5</ele>
        <time>2020-06-18T13:47:11Z</time>
      </trkpt>
      <trkpt lat="49.9599" lon="1.22392">
        <ele>114.5</ele>
        <time>2020-06-18T13:47:12Z</time>
      </trkpt>
      <trkpt lat="49.95996" lon="1.22392">
        <ele>114.4</ele>
        <time>2020-06-18T13:47:13Z</time>
      </trkpt>
      <trkpt lat="49.96002" lon="1.22393">
        <ele>114.4</ele>
        <time>2020-06-18T13:47:14Z</time>
      </trkpt>
      <trkpt lat="49.96008" lon="1.22393">
        <ele>114.4</ele>
        <time>2020-06-18T13:47:15Z</time>
      </trkpt>
      <trkpt lat="49.96014" lon="1.22395">
        <ele>114.4</ele>
        <time>2020-06-18T13:47:16Z</time>
      </trkpt>
      <trkpt lat="49.9602" lon="1.22396">
        <ele>114.3</ele>
        <time>2020-06-18T13:47:17Z</time>
      </trkpt>
      <trkpt lat="49.96026" lon="1.22398">
        <ele>114.3</ele>
        <time>2020-06-18T13:47:18Z</time>
      </trkpt>
      <trkpt lat="49.96033" lon="1.224">
        <ele>114.3</ele>
        <time>2020-06-18T13:47:19Z</time>
      </trkpt>
      <trkpt lat="49.96039" lon="1.22402">
        <ele>114.2</ele>
        <time>2020-06-18T13:47:20Z</time>
      </trkpt>
      <trkpt lat="49.96045" lon="1.22404">
        <ele>114.2</ele>
        <time>2020-06-18T13:47:21Z</time>
      </trkpt>
      <trkpt lat="49.96051" lon="1.22406">
        <ele>114.2</ele>
        <time>2020-06-18T13:47:22Z</time>
      </trkpt>
      <trkpt lat="49.96057" lon="1.22408">
        <ele>114.1</ele>
        <time>2020-06-18T13:47:23Z</time>
      </trkpt>
      <trkpt lat="49.96064" lon="1.22411">
        <ele>114.1</ele>
        <time>2020-06-18T13:47:24Z</time>
      </trkpt>
      <trkpt lat="49.9607" lon="1.22413">
        <ele>114.1</ele>
        <time>2020-06-18T13:47:25Z</time>
      </trkpt>
      <trkpt lat="49.96077" lon="1.22416">
        <ele>114.1</ele>
        <time>2020-06-18T13:47:26Z</time>
      </trkpt>
      <trkpt lat="49.96082" lon="1.22418">
        <ele>114.1</ele>
        <time>2020-06-18T13:47:27Z</time>
      </trkpt>
      <trkpt lat="49.96087" lon="1.2242">
        <ele>114.1</ele>
        <time>2020-06-18T13:47:28Z</time>
      </trkpt>
      <trkpt lat="49.96093" lon="1.22423">
        <ele>114</ele>
        <time>2020-06-18T13:47:29Z</time>
      </trkpt>
      <trkpt lat="49.96099" lon="1.22425">
        <ele>114</ele>
        <time>2020-06-18T13:47:30Z</time>
      </trkpt>
      <trkpt lat="49.96104" lon="1.22429">
        <ele>114</ele>
        <time>2020-06-18T13:47:31Z</time>
      </trkpt>
      <trkpt lat="49.9611" lon="1.22431">
        <ele>114</ele>
        <time>2020-06-18T13:47:32Z</time>
      </trkpt>
      <trkpt lat="49.96115" lon="1.22434">
        <ele>114</ele>
        <time>2020-06-18T13:47:33Z</time>
      </trkpt>
      <trkpt lat="49.96123" lon="1.22437">
        <ele>114</ele>
        <time>2020-06-18T13:47:34Z</time>
      </trkpt>
      <trkpt lat="49.96129" lon="1.22438">
        <ele>114</ele>
        <time>2020-06-18T13:47:35Z</time>
      </trkpt>
      <trkpt lat="49.96134" lon="1.22439">
        <ele>114</ele>
        <time>2020-06-18T13:47:36Z</time>
      </trkpt>
      <trkpt lat="49.9614" lon="1.22441">
        <ele>113.9</ele>
        <time>2020-06-18T13:47:37Z</time>
      </trkpt>
      <trkpt lat="49.96144" lon="1.22443">
        <ele>113.9</ele>
        <time>2020-06-18T13:47:38Z</time>
      </trkpt>
      <trkpt lat="49.9615" lon="1.22446">
        <ele>113.8</ele>
        <time>2020-06-18T13:47:39Z</time>
      </trkpt>
      <trkpt lat="49.96155" lon="1.2245">
        <ele>113.7</ele>
        <time>2020-06-18T13:47:40Z</time>
      </trkpt>
      <trkpt lat="49.96161" lon="1.22452">
        <ele>113.7</ele>
        <time>2020-06-18T13:47:41Z</time>
      </trkpt>
      <trkpt lat="49.96167" lon="1.22455">
        <ele>113.6</ele>
        <time>2020-06-18T13:47:42Z</time>
      </trkpt>
      <trkpt lat="49.96172" lon="1.22458">
        <ele>113.6</ele>
        <time>2020-06-18T13:47:43Z</time>
      </trkpt>
      <trkpt lat="49.96177" lon="1.2246">
        <ele>113.5</ele>
        <time>2020-06-18T13:47:44Z</time>
      </trkpt>
      <trkpt lat="49.96182" lon="1.22462">
        <ele>113.5</ele>
        <time>2020-06-18T13:47:45Z</time>
      </trkpt>
      <trkpt lat="49.96188" lon="1.22464">
        <ele>113.5</ele>
        <time>2020-06-18T13:47:46Z</time>
      </trkpt>
      <trkpt lat="49.96194" lon="1.22466">
        <ele>113.5</ele>
        <time>2020-06-18T13:47:47Z</time>
      </trkpt>
      <trkpt lat="49.962" lon="1.22469">
        <ele>113.5</ele>
        <time>2020-06-18T13:47:48Z</time>
      </trkpt>
      <trkpt lat="49.96205" lon="1.22471">
        <ele>113.5</ele>
        <time>2020-06-18T13:47:49Z</time>
      </trkpt>
      <trkpt lat="49.96212" lon="1.22474">
        <ele>113.5</ele>
        <time>2020-06-18T13:47:50Z</time>
      </trkpt>
      <trkpt lat="49.96217" lon="1.22477">
        <ele>113.6</ele>
        <time>2020-06-18T13:47:51Z</time>
      </trkpt>
      <trkpt lat="49.96223" lon="1.22479">
        <ele>113.6</ele>
        <time>2020-06-18T13:47:52Z</time>
      </trkpt>
      <trkpt lat="49.96228" lon="1.22482">
        <ele>113.7</ele>
        <time>2020-06-18T13:47:53Z</time>
      </trkpt>
      <trkpt lat="49.96233" lon="1.22485">
        <ele>113.7</ele>
        <time>2020-06-18T13:47:54Z</time>
      </trkpt>
      <trkpt lat="49.96239" lon="1.22486">
        <ele>113.8</ele>
        <time>2020-06-18T13:47:55Z</time>
      </trkpt>
      <trkpt lat="49.96245" lon="1.22489">
        <ele>113.8</ele>
        <time>2020-06-18T13:47:56Z</time>
      </trkpt>
      <trkpt lat="49.96251" lon="1.22492">
        <ele>113.8</ele>
        <time>2020-06-18T13:47:57Z</time>
      </trkpt>
      <trkpt lat="49.96258" lon="1.22493">
        <ele>113.9</ele>
        <time>2020-06-18T13:47:58Z</time>
      </trkpt>
      <trkpt lat="49.96263" lon="1.22497">
        <ele>113.9</ele>
        <time>2020-06-18T13:47:59Z</time>
      </trkpt>
      <trkpt lat="49.96269" lon="1.22499">
        <ele>113.9</ele>
        <time>2020-06-18T13:48:00Z</time>
      </trkpt>
      <trkpt lat="49.96275" lon="1.22502">
        <ele>114</ele>
        <time>2020-06-18T13:48:01Z</time>
      </trkpt>
      <trkpt lat="49.9628" lon="1.22505">
        <ele>114</ele>
        <time>2020-06-18T13:48:02Z</time>
      </trkpt>
      <trkpt lat="49.96286" lon="1.22509">
        <ele>114</ele>
        <time>2020-06-18T13:48:03Z</time>
      </trkpt>
      <trkpt lat="49.9629" lon="1.22512">
        <ele>114.1</ele>
        <time>2020-06-18T13:48:04Z</time>
      </trkpt>
      <trkpt lat="49.96294" lon="1.22515">
        <ele>114.1</ele>
        <time>2020-06-18T13:48:05Z</time>
      </trkpt>
      <trkpt lat="49.96297" lon="1.22517">
        <ele>114.1</ele>
        <time>2020-06-18T13:48:06Z</time>
      </trkpt>
      <trkpt lat="49.963" lon="1.22518">
        <ele>114.2</ele>
        <time>2020-06-18T13:48:07Z</time>
      </trkpt>
      <trkpt lat="49.96303" lon="1.22521">
        <ele>114.2</ele>
        <time>2020-06-18T13:48:08Z</time>
      </trkpt>
      <trkpt lat="49.96307" lon="1.22523">
        <ele>114.2</ele>
        <time>2020-06-18T13:48:09Z</time>
      </trkpt>
      <trkpt lat="49.9631" lon="1.22525">
        <ele>114.2</ele>
        <time>2020-06-18T13:48:10Z</time>
      </trkpt>
      <trkpt lat="49.96311" lon="1.22526">
        <ele>114.2</ele>
        <time>2020-06-18T13:48:11Z</time>
      </trkpt>
      <trkpt lat="49.96311" lon="1.22527">
        <ele>114.2</ele>
        <time>2020-06-18T13:48:12Z</time>
      </trkpt>
      <trkpt lat="49.96311" lon="1.22528">
        <ele>114.2</ele>
        <time>2020-06-18T13:48:13Z</time>
      </trkpt>
      <trkpt lat="49.96311" lon="1.22529">
        <ele>114.2</ele>
        <time>2020-06-18T13:48:14Z</time>
      </trkpt>
      <trkpt lat="49.96311" lon="1.2253">
        <ele>114.3</ele>
        <time>2020-06-18T13:48:15Z</time>
      </trkpt>
      <trkpt lat="49.96311" lon="1.2253">
        <ele>114.3</ele>
        <time>2020-06-18T13:48:16Z</time>
      </trkpt>
      <trkpt lat="49.96311" lon="1.22531">
        <ele>114.3</ele>
        <time>2020-06-18T13:48:17Z</time>
      </trkpt>
      <trkpt lat="49.96311" lon="1.22532">
        <ele>114.3</ele>
        <time>2020-06-18T13:48:18Z</time>
      </trkpt>
      <trkpt lat="49.96311" lon="1.22533">
        <ele>114.3</ele>
        <time>2020-06-18T13:48:19Z</time>
      </trkpt>
      <trkpt lat="49.96311" lon="1.22534">
        <ele>114.3</ele>
        <time>2020-06-18T13:48:20Z</time>
      </trkpt>
      <trkpt lat="49.9631" lon="1.22535">
        <ele>114.3</ele>
        <time>2020-06-18T13:48:21Z</time>
      </trkpt>
      <trkpt lat="49.9631" lon="1.22536">
        <ele>114.3</ele>
        <time>2020-06-18T13:48:22Z</time>
      </trkpt>
      <trkpt lat="49.9631" lon="1.22536">
        <ele>114.3</ele>
        <time>2020-06-18T13:48:23Z</time>
      </trkpt>
      <trkpt lat="49.9631" lon="1.22537">
        <ele>114.3</ele>
        <time>2020-06-18T13:50:28Z</time>
      </trkpt>
      <trkpt lat="49.9631" lon="1.22538">
        <ele>114.3</ele>
        <time>2020-06-18T13:50:29Z</time>
      </trkpt>
      <trkpt lat="49.96314" lon="1.22541">
        <ele>114.3</ele>
        <time>2020-06-18T13:50:30Z</time>
      </trkpt>
      <trkpt lat="49.96315" lon="1.22542">
        <ele>114.3</ele>
        <time>2020-06-18T13:50:31Z</time>
      </trkpt>
      <trkpt lat="49.96317" lon="1.22545">
        <ele>114.3</ele>
        <time>2020-06-18T13:50:32Z</time>
      </trkpt>
      <trkpt lat="49.96321" lon="1.22548">
        <ele>114.3</ele>
        <time>2020-06-18T13:50:33Z</time>
      </trkpt>
      <trkpt lat="49.96324" lon="1.2255">
        <ele>114.4</ele>
        <time>2020-06-18T13:50:34Z</time>
      </trkpt>
      <trkpt lat="49.96328" lon="1.22553">
        <ele>114.4</ele>
        <time>2020-06-18T13:50:35Z</time>
      </trkpt>
      <trkpt lat="49.96331" lon="1.22556">
        <ele>114.4</ele>
        <time>2020-06-18T13:50:36Z</time>
      </trkpt>
      <trkpt lat="49.96335" lon="1.22559">
        <ele>114.5</ele>
        <time>2020-06-18T13:50:37Z</time>
      </trkpt>
      <trkpt lat="49.96337" lon="1.22561">
        <ele>114.5</ele>
        <time>2020-06-18T13:50:38Z</time>
      </trkpt>
      <trkpt lat="49.96341" lon="1.22563">
        <ele>114.5</ele>
        <time>2020-06-18T13:50:39Z</time>
      </trkpt>
      <trkpt lat="49.96344" lon="1.22566">
        <ele>114.5</ele>
        <time>2020-06-18T13:50:40Z</time>
      </trkpt>
      <trkpt lat="49.96348" lon="1.22569">
        <ele>114.6</ele>
        <time>2020-06-18T13:50:41Z</time>
      </trkpt>
      <trkpt lat="49.96351" lon="1.22571">
        <ele>114.6</ele>
        <time>2020-06-18T13:50:42Z</time>
      </trkpt>
      <trkpt lat="49.96354" lon="1.22574">
        <ele>114.6</ele>
        <time>2020-06-18T13:50:43Z</time>
      </trkpt>
      <trkpt lat="49.96357" lon="1.22578">
        <ele>114.6</ele>
        <time>2020-06-18T13:50:44Z</time>
      </trkpt>
      <trkpt lat="49.9636" lon="1.22581">
        <ele>114.7</ele>
        <time>2020-06-18T13:50:45Z</time>
      </trkpt>
      <trkpt lat="49.96363" lon="1.22584">
        <ele>114.7</ele>
        <time>2020-06-18T13:50:46Z</time>
      </trkpt>
      <trkpt lat="49.96367" lon="1.22588">
        <ele>114.7</ele>
        <time>2020-06-18T13:50:47Z</time>
      </trkpt>
      <trkpt lat="49.9637" lon="1.22592">
        <ele>114.7</ele>
        <time>2020-06-18T13:50:48Z</time>
      </trkpt>
      <trkpt lat="49.96373" lon="1.22597">
        <ele>114.8</ele>
        <time>2020-06-18T13:50:49Z</time>
      </trkpt>
      <trkpt lat="49.96377" lon="1.22601">
        <ele>114.8</ele>
        <time>2020-06-18T13:50:50Z</time>
      </trkpt>
      <trkpt lat="49.9638" lon="1.22605">
        <ele>114.8</ele>
        <time>2020-06-18T13:50:51Z</time>
      </trkpt>
      <trkpt lat="49.96384" lon="1.22608">
        <ele>114.8</ele>
        <time>2020-06-18T13:50:52Z</time>
      </trkpt>
      <trkpt lat="49.96387" lon="1.22612">
        <ele>114.9</ele>
        <time>2020-06-18T13:50:53Z</time>
      </trkpt>
      <trkpt lat="49.9639" lon="1.22615">
        <ele>114.9</ele>
        <time>2020-06-18T13:50:54Z</time>
      </trkpt>
      <trkpt lat="49.96393" lon="1.22619">
        <ele>114.9</ele>
        <time>2020-06-18T13:50:55Z</time>
      </trkpt>
      <trkpt lat="49.96397" lon="1.22623">
        <ele>114.9</ele>
        <time>2020-06-18T13:50:56Z</time>
      </trkpt>
      <trkpt lat="49.96401" lon="1.22627">
        <ele>114.9</ele>
        <time>2020-06-18T13:50:57Z</time>
      </trkpt>
      <trkpt lat="49.96406" lon="1.22631">
        <ele>114.9</ele>
        <time>2020-06-18T13:50:58Z</time>
      </trkpt>
      <trkpt lat="49.9641" lon="1.22635">
        <ele>115</ele>
        <time>2020-06-18T13:50:59Z</time>
      </trkpt>
      <trkpt lat="49.96413" lon="1.2264">
        <ele>115</ele>
        <time>2020-06-18T13:51:00Z</time>
      </trkpt>
      <trkpt lat="49.96417" lon="1.22645">
        <ele>115</ele>
        <time>2020-06-18T13:51:01Z</time>
      </trkpt>
      <trkpt lat="49.96421" lon="1.2265">
        <ele>115</ele>
        <time>2020-06-18T13:51:02Z</time>
      </trkpt>
      <trkpt lat="49.96425" lon="1.22655">
        <ele>115</ele>
        <time>2020-06-18T13:51:03Z</time>
      </trkpt>
      <trkpt lat="49.96428" lon="1.2266">
        <ele>115.1</ele>
        <time>2020-06-18T13:51:04Z</time>
      </trkpt>
      <trkpt lat="49.96432" lon="1.22664">
        <ele>115.1</ele>
        <time>2020-06-18T13:51:05Z</time>
      </trkpt>
      <trkpt lat="49.96436" lon="1.22669">
        <ele>115.1</ele>
        <time>2020-06-18T13:51:06Z</time>
      </trkpt>
      <trkpt lat="49.9644" lon="1.22675">
        <ele>115.2</ele>
        <time>2020-06-18T13:51:07Z</time>
      </trkpt>
      <trkpt lat="49.96444" lon="1.22679">
        <ele>115.2</ele>
        <time>2020-06-18T13:51:08Z</time>
      </trkpt>
      <trkpt lat="49.96448" lon="1.22684">
        <ele>115.2</ele>
        <time>2020-06-18T13:51:09Z</time>
      </trkpt>
      <trkpt lat="49.96452" lon="1.22689">
        <ele>115.2</ele>
        <time>2020-06-18T13:51:10Z</time>
      </trkpt>
      <trkpt lat="49.96456" lon="1.22695">
        <ele>115.3</ele>
        <time>2020-06-18T13:51:11Z</time>
      </trkpt>
      <trkpt lat="49.9646" lon="1.227">
        <ele>115.3</ele>
        <time>2020-06-18T13:51:12Z</time>
      </trkpt>
      <trkpt lat="49.96465" lon="1.22706">
        <ele>115.3</ele>
        <time>2020-06-18T13:51:13Z</time>
      </trkpt>
      <trkpt lat="49.96469" lon="1.22711">
        <ele>115.3</ele>
        <time>2020-06-18T13:51:14Z</time>
      </trkpt>
      <trkpt lat="49.96473" lon="1.22716">
        <ele>115.3</ele>
        <time>2020-06-18T13:51:15Z</time>
      </trkpt>
      <trkpt lat="49.96476" lon="1.22721">
        <ele>115.4</ele>
        <time>2020-06-18T13:51:16Z</time>
      </trkpt>
      <trkpt lat="49.9648" lon="1.22727">
        <ele>115.5</ele>
        <time>2020-06-18T13:51:17Z</time>
      </trkpt>
      <trkpt lat="49.96484" lon="1.22732">
        <ele>115.5</ele>
        <time>2020-06-18T13:51:18Z</time>
      </trkpt>
      <trkpt lat="49.96487" lon="1.22737">
        <ele>115.6</ele>
        <time>2020-06-18T13:51:19Z</time>
      </trkpt>
      <trkpt lat="49.96491" lon="1.22743">
        <ele>115.7</ele>
        <time>2020-06-18T13:51:20Z</time>
      </trkpt>
      <trkpt lat="49.96495" lon="1.22749">
        <ele>115.7</ele>
        <time>2020-06-18T13:51:21Z</time>
      </trkpt>
      <trkpt lat="49.96499" lon="1.22754">
        <ele>115.7</ele>
        <time>2020-06-18T13:51:22Z</time>
      </trkpt>
      <trkpt lat="49.96503" lon="1.22759">
        <ele>115.7</ele>
        <time>2020-06-18T13:51:23Z</time>
      </trkpt>
      <trkpt lat="49.96507" lon="1.22765">
        <ele>115.6</ele>
        <time>2020-06-18T13:51:24Z</time>
      </trkpt>
      <trkpt lat="49.96511" lon="1.2277">
        <ele>115.6</ele>
        <time>2020-06-18T13:51:25Z</time>
      </trkpt>
      <trkpt lat="49.96515" lon="1.22775">
        <ele>115.6</ele>
        <time>2020-06-18T13:51:26Z</time>
      </trkpt>
      <trkpt lat="49.96519" lon="1.22781">
        <ele>115.6</ele>
        <time>2020-06-18T13:51:27Z</time>
      </trkpt>
      <trkpt lat="49.96522" lon="1.22787">
        <ele>115.6</ele>
        <time>2020-06-18T13:51:28Z</time>
      </trkpt>
      <trkpt lat="49.96525" lon="1.22793">
        <ele>115.5</ele>
        <time>2020-06-18T13:51:29Z</time>
      </trkpt>
      <trkpt lat="49.96528" lon="1.22798">
        <ele>115.5</ele>
        <time>2020-06-18T13:51:30Z</time>
      </trkpt>
      <trkpt lat="49.96531" lon="1.22803">
        <ele>115.5</ele>
        <time>2020-06-18T13:51:31Z</time>
      </trkpt>
      <trkpt lat="49.96535" lon="1.22808">
        <ele>115.4</ele>
        <time>2020-06-18T13:51:32Z</time>
      </trkpt>
      <trkpt lat="49.96539" lon="1.22813">
        <ele>115.4</ele>
        <time>2020-06-18T13:51:33Z</time>
      </trkpt>
      <trkpt lat="49.96542" lon="1.22818">
        <ele>115.4</ele>
        <time>2020-06-18T13:51:34Z</time>
      </trkpt>
      <trkpt lat="49.96546" lon="1.22823">
        <ele>115.4</ele>
        <time>2020-06-18T13:51:35Z</time>
      </trkpt>
      <trkpt lat="49.96549" lon="1.22828">
        <ele>115.3</ele>
        <time>2020-06-18T13:51:36Z</time>
      </trkpt>
      <trkpt lat="49.96553" lon="1.22833">
        <ele>115.2</ele>
        <time>2020-06-18T13:51:37Z</time>
      </trkpt>
      <trkpt lat="49.96557" lon="1.22837">
        <ele>115.2</ele>
        <time>2020-06-18T13:51:38Z</time>
      </trkpt>
      <trkpt lat="49.96561" lon="1.22842">
        <ele>115.1</ele>
        <time>2020-06-18T13:51:39Z</time>
      </trkpt>
      <trkpt lat="49.96564" lon="1.22845">
        <ele>115.1</ele>
        <time>2020-06-18T13:51:40Z</time>
      </trkpt>
      <trkpt lat="49.96568" lon="1.22848">
        <ele>115.1</ele>
        <time>2020-06-18T13:51:41Z</time>
      </trkpt>
      <trkpt lat="49.96571" lon="1.22848">
        <ele>115.1</ele>
        <time>2020-06-18T13:51:42Z</time>
      </trkpt>
      <trkpt lat="49.96574" lon="1.22847">
        <ele>115.1</ele>
        <time>2020-06-18T13:51:43Z</time>
      </trkpt>
      <trkpt lat="49.96575" lon="1.22846">
        <ele>115.1</ele>
        <time>2020-06-18T13:51:44Z</time>
      </trkpt>
      <trkpt lat="49.96577" lon="1.22844">
        <ele>115.1</ele>
        <time>2020-06-18T13:51:45Z</time>
      </trkpt>
      <trkpt lat="49.96578" lon="1.22842">
        <ele>115</ele>
        <time>2020-06-18T13:51:46Z</time>
      </trkpt>
      <trkpt lat="49.96579" lon="1.2284">
        <ele>115</ele>
        <time>2020-06-18T13:51:47Z</time>
      </trkpt>
      <trkpt lat="49.96579" lon="1.2284">
        <ele>115</ele>
        <time>2020-06-18T13:51:48Z</time>
      </trkpt>
      <trkpt lat="49.96577" lon="1.22839">
        <ele>115</ele>
        <time>2020-06-18T13:51:49Z</time>
      </trkpt>
      <trkpt lat="49.96577" lon="1.22839">
        <ele>115</ele>
        <time>2020-06-18T13:51:50Z</time>
      </trkpt>
      <trkpt lat="49.96576" lon="1.2284">
        <ele>115</ele>
        <time>2020-06-18T13:51:51Z</time>
      </trkpt>
      <trkpt lat="49.96575" lon="1.22841">
        <ele>115</ele>
        <time>2020-06-18T13:51:52Z</time>
      </trkpt>
      <trkpt lat="49.96575" lon="1.22844">
        <ele>115</ele>
        <time>2020-06-18T13:51:53Z</time>
      </trkpt>
      <trkpt lat="49.96575" lon="1.22846">
        <ele>115</ele>
        <time>2020-06-18T13:51:54Z</time>
      </trkpt>
      <trkpt lat="49.96575" lon="1.22847">
        <ele>115</ele>
        <time>2020-06-18T13:51:55Z</time>
      </trkpt>
      <trkpt lat="49.96575" lon="1.22852">
        <ele>115</ele>
        <time>2020-06-18T13:51:56Z</time>
      </trkpt>
      <trkpt lat="49.96574" lon="1.22854">
        <ele>114.9</ele>
        <time>2020-06-18T13:51:57Z</time>
      </trkpt>
      <trkpt lat="49.96573" lon="1.22858">
        <ele>114.9</ele>
        <time>2020-06-18T13:51:58Z</time>
      </trkpt>
      <trkpt lat="49.96572" lon="1.22864">
        <ele>114.9</ele>
        <time>2020-06-18T13:51:59Z</time>
      </trkpt>
      <trkpt lat="49.96573" lon="1.22871">
        <ele>114.9</ele>
        <time>2020-06-18T13:52:00Z</time>
      </trkpt>
      <trkpt lat="49.96572" lon="1.22877">
        <ele>114.9</ele>
        <time>2020-06-18T13:52:01Z</time>
      </trkpt>
      <trkpt lat="49.96572" lon="1.22885">
        <ele>114.8</ele>
        <time>2020-06-18T13:52:02Z</time>
      </trkpt>
      <trkpt lat="49.96571" lon="1.22891">
        <ele>114.8</ele>
        <time>2020-06-18T13:52:03Z</time>
      </trkpt>
      <trkpt lat="49.96571" lon="1.22899">
        <ele>114.8</ele>
        <time>2020-06-18T13:52:04Z</time>
      </trkpt>
      <trkpt lat="49.96571" lon="1.22908">
        <ele>114.8</ele>
        <time>2020-06-18T13:52:05Z</time>
      </trkpt>
      <trkpt lat="49.96571" lon="1.22916">
        <ele>114.7</ele>
        <time>2020-06-18T13:52:06Z</time>
      </trkpt>
      <trkpt lat="49.96571" lon="1.22924">
        <ele>114.7</ele>
        <time>2020-06-18T13:52:07Z</time>
      </trkpt>
      <trkpt lat="49.96571" lon="1.22932">
        <ele>114.6</ele>
        <time>2020-06-18T13:52:08Z</time>
      </trkpt>
      <trkpt lat="49.96571" lon="1.22941">
        <ele>114.5</ele>
        <time>2020-06-18T13:52:09Z</time>
      </trkpt>
      <trkpt lat="49.96571" lon="1.22949">
        <ele>114.5</ele>
        <time>2020-06-18T13:52:10Z</time>
      </trkpt>
      <trkpt lat="49.96572" lon="1.22959">
        <ele>114.4</ele>
        <time>2020-06-18T13:52:11Z</time>
      </trkpt>
      <trkpt lat="49.96572" lon="1.22968">
        <ele>114.3</ele>
        <time>2020-06-18T13:52:12Z</time>
      </trkpt>
      <trkpt lat="49.96573" lon="1.22977">
        <ele>114.3</ele>
        <time>2020-06-18T13:52:13Z</time>
      </trkpt>
      <trkpt lat="49.96574" lon="1.22987">
        <ele>114.2</ele>
        <time>2020-06-18T13:52:14Z</time>
      </trkpt>
      <trkpt lat="49.96576" lon="1.22996">
        <ele>114.2</ele>
        <time>2020-06-18T13:52:15Z</time>
      </trkpt>
      <trkpt lat="49.96579" lon="1.23001">
        <ele>114.2</ele>
        <time>2020-06-18T13:52:16Z</time>
      </trkpt>
      <trkpt lat="49.96583" lon="1.23006">
        <ele>114.2</ele>
        <time>2020-06-18T13:52:17Z</time>
      </trkpt>
      <trkpt lat="49.96587" lon="1.23013">
        <ele>114.2</ele>
        <time>2020-06-18T13:52:18Z</time>
      </trkpt>
      <trkpt lat="49.9659" lon="1.23018">
        <ele>114.2</ele>
        <time>2020-06-18T13:52:19Z</time>
      </trkpt>
      <trkpt lat="49.96594" lon="1.23024">
        <ele>114.2</ele>
        <time>2020-06-18T13:52:20Z</time>
      </trkpt>
      <trkpt lat="49.96598" lon="1.23029">
        <ele>114.2</ele>
        <time>2020-06-18T13:52:21Z</time>
      </trkpt>
      <trkpt lat="49.96602" lon="1.23032">
        <ele>114.1</ele>
        <time>2020-06-18T13:52:22Z</time>
      </trkpt>
      <trkpt lat="49.96607" lon="1.23034">
        <ele>114.1</ele>
        <time>2020-06-18T13:52:23Z</time>
      </trkpt>
      <trkpt lat="49.96612" lon="1.23033">
        <ele>114</ele>
        <time>2020-06-18T13:52:24Z</time>
      </trkpt>
      <trkpt lat="49.96617" lon="1.23032">
        <ele>113.8</ele>
        <time>2020-06-18T13:52:25Z</time>
      </trkpt>
      <trkpt lat="49.96623" lon="1.2303">
        <ele>113.7</ele>
        <time>2020-06-18T13:52:26Z</time>
      </trkpt>
      <trkpt lat="49.96629" lon="1.23028">
        <ele>113.5</ele>
        <time>2020-06-18T13:52:27Z</time>
      </trkpt>
      <trkpt lat="49.96634" lon="1.23026">
        <ele>113.3</ele>
        <time>2020-06-18T13:52:28Z</time>
      </trkpt>
      <trkpt lat="49.9664" lon="1.23024">
        <ele>113.1</ele>
        <time>2020-06-18T13:52:29Z</time>
      </trkpt>
      <trkpt lat="49.96645" lon="1.23021">
        <ele>113</ele>
        <time>2020-06-18T13:52:30Z</time>
      </trkpt>
      <trkpt lat="49.96649" lon="1.23018">
        <ele>112.8</ele>
        <time>2020-06-18T13:52:31Z</time>
      </trkpt>
      <trkpt lat="49.96655" lon="1.23015">
        <ele>112.6</ele>
        <time>2020-06-18T13:52:32Z</time>
      </trkpt>
      <trkpt lat="49.96661" lon="1.23013">
        <ele>112.5</ele>
        <time>2020-06-18T13:52:33Z</time>
      </trkpt>
      <trkpt lat="49.96668" lon="1.23011">
        <ele>112.2</ele>
        <time>2020-06-18T13:52:34Z</time>
      </trkpt>
      <trkpt lat="49.96675" lon="1.2301">
        <ele>112</ele>
        <time>2020-06-18T13:52:35Z</time>
      </trkpt>
      <trkpt lat="49.96682" lon="1.23009">
        <ele>111.8</ele>
        <time>2020-06-18T13:52:36Z</time>
      </trkpt>
      <trkpt lat="49.96688" lon="1.23011">
        <ele>111.6</ele>
        <time>2020-06-18T13:52:37Z</time>
      </trkpt>
      <trkpt lat="49.96694" lon="1.23014">
        <ele>111.4</ele>
        <time>2020-06-18T13:52:38Z</time>
      </trkpt>
      <trkpt lat="49.96701" lon="1.23018">
        <ele>111.3</ele>
        <time>2020-06-18T13:52:39Z</time>
      </trkpt>
      <trkpt lat="49.96706" lon="1.23025">
        <ele>111.1</ele>
        <time>2020-06-18T13:52:40Z</time>
      </trkpt>
      <trkpt lat="49.96711" lon="1.23032">
        <ele>111</ele>
        <time>2020-06-18T13:52:41Z</time>
      </trkpt>
      <trkpt lat="49.96716" lon="1.23039">
        <ele>110.9</ele>
        <time>2020-06-18T13:52:42Z</time>
      </trkpt>
      <trkpt lat="49.9672" lon="1.23046">
        <ele>110.7</ele>
        <time>2020-06-18T13:52:43Z</time>
      </trkpt>
      <trkpt lat="49.96726" lon="1.23054">
        <ele>110.5</ele>
        <time>2020-06-18T13:52:44Z</time>
      </trkpt>
      <trkpt lat="49.96731" lon="1.23061">
        <ele>110.3</ele>
        <time>2020-06-18T13:52:45Z</time>
      </trkpt>
      <trkpt lat="49.96735" lon="1.23067">
        <ele>110.3</ele>
        <time>2020-06-18T13:52:46Z</time>
      </trkpt>
      <trkpt lat="49.9674" lon="1.23074">
        <ele>110.2</ele>
        <time>2020-06-18T13:52:47Z</time>
      </trkpt>
      <trkpt lat="49.96744" lon="1.23081">
        <ele>110.2</ele>
        <time>2020-06-18T13:52:48Z</time>
      </trkpt>
      <trkpt lat="49.96749" lon="1.23088">
        <ele>110.2</ele>
        <time>2020-06-18T13:52:49Z</time>
      </trkpt>
      <trkpt lat="49.96753" lon="1.23093">
        <ele>110.2</ele>
        <time>2020-06-18T13:52:50Z</time>
      </trkpt>
      <trkpt lat="49.96757" lon="1.23099">
        <ele>110.3</ele>
        <time>2020-06-18T13:52:51Z</time>
      </trkpt>
      <trkpt lat="49.96761" lon="1.23105">
        <ele>110.3</ele>
        <time>2020-06-18T13:52:52Z</time>
      </trkpt>
      <trkpt lat="49.96766" lon="1.2311">
        <ele>110.3</ele>
        <time>2020-06-18T13:52:53Z</time>
      </trkpt>
      <trkpt lat="49.96769" lon="1.23117">
        <ele>110.4</ele>
        <time>2020-06-18T13:52:54Z</time>
      </trkpt>
      <trkpt lat="49.96773" lon="1.23124">
        <ele>110.4</ele>
        <time>2020-06-18T13:52:55Z</time>
      </trkpt>
      <trkpt lat="49.96777" lon="1.2313">
        <ele>110.4</ele>
        <time>2020-06-18T13:52:56Z</time>
      </trkpt>
      <trkpt lat="49.9678" lon="1.23136">
        <ele>110.5</ele>
        <time>2020-06-18T13:52:57Z</time>
      </trkpt>
      <trkpt lat="49.96784" lon="1.2314">
        <ele>110.5</ele>
        <time>2020-06-18T13:52:58Z</time>
      </trkpt>
      <trkpt lat="49.96787" lon="1.23146">
        <ele>110.5</ele>
        <time>2020-06-18T13:52:59Z</time>
      </trkpt>
      <trkpt lat="49.96791" lon="1.23151">
        <ele>110.6</ele>
        <time>2020-06-18T13:53:00Z</time>
      </trkpt>
      <trkpt lat="49.96794" lon="1.23156">
        <ele>110.6</ele>
        <time>2020-06-18T13:53:01Z</time>
      </trkpt>
      <trkpt lat="49.96798" lon="1.23161">
        <ele>110.7</ele>
        <time>2020-06-18T13:53:02Z</time>
      </trkpt>
      <trkpt lat="49.96802" lon="1.23166">
        <ele>110.7</ele>
        <time>2020-06-18T13:53:03Z</time>
      </trkpt>
      <trkpt lat="49.96806" lon="1.23169">
        <ele>110.8</ele>
        <time>2020-06-18T13:53:04Z</time>
      </trkpt>
      <trkpt lat="49.9681" lon="1.23173">
        <ele>110.8</ele>
        <time>2020-06-18T13:53:05Z</time>
      </trkpt>
      <trkpt lat="49.96813" lon="1.23176">
        <ele>110.9</ele>
        <time>2020-06-18T13:53:06Z</time>
      </trkpt>
      <trkpt lat="49.96816" lon="1.2318">
        <ele>111</ele>
        <time>2020-06-18T13:53:07Z</time>
      </trkpt>
      <trkpt lat="49.9682" lon="1.23184">
        <ele>111</ele>
        <time>2020-06-18T13:53:08Z</time>
      </trkpt>
      <trkpt lat="49.96824" lon="1.23189">
        <ele>111.1</ele>
        <time>2020-06-18T13:53:09Z</time>
      </trkpt>
      <trkpt lat="49.96827" lon="1.23193">
        <ele>111.2</ele>
        <time>2020-06-18T13:53:10Z</time>
      </trkpt>
      <trkpt lat="49.96832" lon="1.23199">
        <ele>111.2</ele>
        <time>2020-06-18T13:53:11Z</time>
      </trkpt>
      <trkpt lat="49.96836" lon="1.23205">
        <ele>111.3</ele>
        <time>2020-06-18T13:53:12Z</time>
      </trkpt>
      <trkpt lat="49.9684" lon="1.23211">
        <ele>111.3</ele>
        <time>2020-06-18T13:53:13Z</time>
      </trkpt>
      <trkpt lat="49.96845" lon="1.23217">
        <ele>111.4</ele>
        <time>2020-06-18T13:53:14Z</time>
      </trkpt>
      <trkpt lat="49.96849" lon="1.23223">
        <ele>111.4</ele>
        <time>2020-06-18T13:53:15Z</time>
      </trkpt>
      <trkpt lat="49.96853" lon="1.23229">
        <ele>111.5</ele>
        <time>2020-06-18T13:53:16Z</time>
      </trkpt>
      <trkpt lat="49.96857" lon="1.23236">
        <ele>111.6</ele>
        <time>2020-06-18T13:53:17Z</time>
      </trkpt>
      <trkpt lat="49.9686" lon="1.23241">
        <ele>111.6</ele>
        <time>2020-06-18T13:53:18Z</time>
      </trkpt>
      <trkpt lat="49.96863" lon="1.23248">
        <ele>111.7</ele>
        <time>2020-06-18T13:53:19Z</time>
      </trkpt>
      <trkpt lat="49.96867" lon="1.23252">
        <ele>111.7</ele>
        <time>2020-06-18T13:53:20Z</time>
      </trkpt>
      <trkpt lat="49.96871" lon="1.23258">
        <ele>111.8</ele>
        <time>2020-06-18T13:53:21Z</time>
      </trkpt>
      <trkpt lat="49.96876" lon="1.23263">
        <ele>111.9</ele>
        <time>2020-06-18T13:53:22Z</time>
      </trkpt>
      <trkpt lat="49.9688" lon="1.23269">
        <ele>112</ele>
        <time>2020-06-18T13:53:23Z</time>
      </trkpt>
      <trkpt lat="49.96884" lon="1.23276">
        <ele>112.1</ele>
        <time>2020-06-18T13:53:24Z</time>
      </trkpt>
      <trkpt lat="49.96887" lon="1.23282">
        <ele>112.2</ele>
        <time>2020-06-18T13:53:25Z</time>
      </trkpt>
      <trkpt lat="49.96891" lon="1.23288">
        <ele>112.3</ele>
        <time>2020-06-18T13:53:26Z</time>
      </trkpt>
      <trkpt lat="49.96894" lon="1.23293">
        <ele>112.5</ele>
        <time>2020-06-18T13:53:27Z</time>
      </trkpt>
      <trkpt lat="49.96898" lon="1.23297">
        <ele>112.6</ele>
        <time>2020-06-18T13:53:28Z</time>
      </trkpt>
      <trkpt lat="49.96902" lon="1.23301">
        <ele>112.7</ele>
        <time>2020-06-18T13:53:29Z</time>
      </trkpt>
      <trkpt lat="49.96906" lon="1.23305">
        <ele>112.9</ele>
        <time>2020-06-18T13:53:30Z</time>
      </trkpt>
      <trkpt lat="49.96909" lon="1.23308">
        <ele>113</ele>
        <time>2020-06-18T13:53:31Z</time>
      </trkpt>
      <trkpt lat="49.96913" lon="1.23312">
        <ele>113.2</ele>
        <time>2020-06-18T13:53:32Z</time>
      </trkpt>
      <trkpt lat="49.96917" lon="1.23315">
        <ele>113.4</ele>
        <time>2020-06-18T13:53:33Z</time>
      </trkpt>
      <trkpt lat="49.96921" lon="1.23317">
        <ele>113.6</ele>
        <time>2020-06-18T13:53:34Z</time>
      </trkpt>
      <trkpt lat="49.96925" lon="1.2332">
        <ele>113.8</ele>
        <time>2020-06-18T13:53:35Z</time>
      </trkpt>
      <trkpt lat="49.96929" lon="1.23321">
        <ele>113.9</ele>
        <time>2020-06-18T13:53:36Z</time>
      </trkpt>
      <trkpt lat="49.96934" lon="1.23322">
        <ele>114.1</ele>
        <time>2020-06-18T13:53:37Z</time>
      </trkpt>
      <trkpt lat="49.96938" lon="1.23321">
        <ele>114.2</ele>
        <time>2020-06-18T13:53:38Z</time>
      </trkpt>
      <trkpt lat="49.96943" lon="1.23322">
        <ele>114.3</ele>
        <time>2020-06-18T13:53:39Z</time>
      </trkpt>
      <trkpt lat="49.96947" lon="1.23322">
        <ele>114.4</ele>
        <time>2020-06-18T13:53:40Z</time>
      </trkpt>
      <trkpt lat="49.96952" lon="1.23321">
        <ele>114.5</ele>
        <time>2020-06-18T13:53:41Z</time>
      </trkpt>
      <trkpt lat="49.96957" lon="1.23321">
        <ele>114.6</ele>
        <time>2020-06-18T13:53:42Z</time>
      </trkpt>
      <trkpt lat="49.96961" lon="1.2332">
        <ele>114.8</ele>
        <time>2020-06-18T13:53:43Z</time>
      </trkpt>
      <trkpt lat="49.96966" lon="1.23318">
        <ele>114.9</ele>
        <time>2020-06-18T13:53:44Z</time>
      </trkpt>
      <trkpt lat="49.96971" lon="1.23316">
        <ele>115.1</ele>
        <time>2020-06-18T13:53:45Z</time>
      </trkpt>
      <trkpt lat="49.96976" lon="1.23315">
        <ele>115.2</ele>
        <time>2020-06-18T13:53:46Z</time>
      </trkpt>
      <trkpt lat="49.9698" lon="1.23312">
        <ele>115.3</ele>
        <time>2020-06-18T13:53:47Z</time>
      </trkpt>
      <trkpt lat="49.96984" lon="1.23309">
        <ele>115.5</ele>
        <time>2020-06-18T13:53:48Z</time>
      </trkpt>
      <trkpt lat="49.96989" lon="1.23305">
        <ele>115.6</ele>
        <time>2020-06-18T13:53:49Z</time>
      </trkpt>
      <trkpt lat="49.96993" lon="1.23302">
        <ele>115.7</ele>
        <time>2020-06-18T13:53:50Z</time>
      </trkpt>
      <trkpt lat="49.96998" lon="1.23299">
        <ele>115.8</ele>
        <time>2020-06-18T13:53:51Z</time>
      </trkpt>
      <trkpt lat="49.97002" lon="1.23295">
        <ele>115.8</ele>
        <time>2020-06-18T13:53:52Z</time>
      </trkpt>
      <trkpt lat="49.97006" lon="1.23292">
        <ele>115.9</ele>
        <time>2020-06-18T13:53:53Z</time>
      </trkpt>
      <trkpt lat="49.9701" lon="1.23288">
        <ele>116</ele>
        <time>2020-06-18T13:53:54Z</time>
      </trkpt>
      <trkpt lat="49.97014" lon="1.23284">
        <ele>116.1</ele>
        <time>2020-06-18T13:53:55Z</time>
      </trkpt>
      <trkpt lat="49.97018" lon="1.23281">
        <ele>116.2</ele>
        <time>2020-06-18T13:53:56Z</time>
      </trkpt>
      <trkpt lat="49.97023" lon="1.23278">
        <ele>116.2</ele>
        <time>2020-06-18T13:53:57Z</time>
      </trkpt>
      <trkpt lat="49.97027" lon="1.23274">
        <ele>116.3</ele>
        <time>2020-06-18T13:53:58Z</time>
      </trkpt>
      <trkpt lat="49.97031" lon="1.23272">
        <ele>116.4</ele>
        <time>2020-06-18T13:53:59Z</time>
      </trkpt>
      <trkpt lat="49.97035" lon="1.23269">
        <ele>116.5</ele>
        <time>2020-06-18T13:54:00Z</time>
      </trkpt>
      <trkpt lat="49.9704" lon="1.23266">
        <ele>116.6</ele>
        <time>2020-06-18T13:54:01Z</time>
      </trkpt>
      <trkpt lat="49.97044" lon="1.23262">
        <ele>116.7</ele>
        <time>2020-06-18T13:54:02Z</time>
      </trkpt>
      <trkpt lat="49.97049" lon="1.23259">
        <ele>116.7</ele>
        <time>2020-06-18T13:54:03Z</time>
      </trkpt>
      <trkpt lat="49.97053" lon="1.23257">
        <ele>116.7</ele>
        <time>2020-06-18T13:54:04Z</time>
      </trkpt>
      <trkpt lat="49.97058" lon="1.23254">
        <ele>116.8</ele>
        <time>2020-06-18T13:54:05Z</time>
      </trkpt>
      <trkpt lat="49.97062" lon="1.23251">
        <ele>116.8</ele>
        <time>2020-06-18T13:54:06Z</time>
      </trkpt>
      <trkpt lat="49.97066" lon="1.23248">
        <ele>116.8</ele>
        <time>2020-06-18T13:54:07Z</time>
      </trkpt>
      <trkpt lat="49.9707" lon="1.23244">
        <ele>116.8</ele>
        <time>2020-06-18T13:54:08Z</time>
      </trkpt>
      <trkpt lat="49.97075" lon="1.23241">
        <ele>116.8</ele>
        <time>2020-06-18T13:54:09Z</time>
      </trkpt>
      <trkpt lat="49.97079" lon="1.23238">
        <ele>116.8</ele>
        <time>2020-06-18T13:54:10Z</time>
      </trkpt>
      <trkpt lat="49.97083" lon="1.23234">
        <ele>116.8</ele>
        <time>2020-06-18T13:54:11Z</time>
      </trkpt>
      <trkpt lat="49.97088" lon="1.23231">
        <ele>116.8</ele>
        <time>2020-06-18T13:54:12Z</time>
      </trkpt>
      <trkpt lat="49.97093" lon="1.23229">
        <ele>116.8</ele>
        <time>2020-06-18T13:54:13Z</time>
      </trkpt>
      <trkpt lat="49.97097" lon="1.23226">
        <ele>116.8</ele>
        <time>2020-06-18T13:54:14Z</time>
      </trkpt>
      <trkpt lat="49.97102" lon="1.23223">
        <ele>116.8</ele>
        <time>2020-06-18T13:54:15Z</time>
      </trkpt>
      <trkpt lat="49.97107" lon="1.23221">
        <ele>116.8</ele>
        <time>2020-06-18T13:54:16Z</time>
      </trkpt>
      <trkpt lat="49.97113" lon="1.23219">
        <ele>116.7</ele>
        <time>2020-06-18T13:54:17Z</time>
      </trkpt>
      <trkpt lat="49.97118" lon="1.23218">
        <ele>116.7</ele>
        <time>2020-06-18T13:54:18Z</time>
      </trkpt>
      <trkpt lat="49.97123" lon="1.23216">
        <ele>116.7</ele>
        <time>2020-06-18T13:54:19Z</time>
      </trkpt>
      <trkpt lat="49.97128" lon="1.23214">
        <ele>116.6</ele>
        <time>2020-06-18T13:54:20Z</time>
      </trkpt>
      <trkpt lat="49.97134" lon="1.23213">
        <ele>116.6</ele>
        <time>2020-06-18T13:54:21Z</time>
      </trkpt>
      <trkpt lat="49.97139" lon="1.23211">
        <ele>116.6</ele>
        <time>2020-06-18T13:54:22Z</time>
      </trkpt>
      <trkpt lat="49.97144" lon="1.23209">
        <ele>116.6</ele>
        <time>2020-06-18T13:54:23Z</time>
      </trkpt>
      <trkpt lat="49.9715" lon="1.23208">
        <ele>116.6</ele>
        <time>2020-06-18T13:54:24Z</time>
      </trkpt>
      <trkpt lat="49.97155" lon="1.23207">
        <ele>116.6</ele>
        <time>2020-06-18T13:54:25Z</time>
      </trkpt>
      <trkpt lat="49.97161" lon="1.23205">
        <ele>116.6</ele>
        <time>2020-06-18T13:54:26Z</time>
      </trkpt>
      <trkpt lat="49.97166" lon="1.23203">
        <ele>116.5</ele>
        <time>2020-06-18T13:54:27Z</time>
      </trkpt>
      <trkpt lat="49.97171" lon="1.23202">
        <ele>116.5</ele>
        <time>2020-06-18T13:54:28Z</time>
      </trkpt>
      <trkpt lat="49.97176" lon="1.232">
        <ele>116.5</ele>
        <time>2020-06-18T13:54:29Z</time>
      </trkpt>
      <trkpt lat="49.97181" lon="1.23198">
        <ele>116.5</ele>
        <time>2020-06-18T13:54:30Z</time>
      </trkpt>
      <trkpt lat="49.97187" lon="1.23197">
        <ele>116.4</ele>
        <time>2020-06-18T13:54:31Z</time>
      </trkpt>
      <trkpt lat="49.97193" lon="1.23196">
        <ele>116.4</ele>
        <time>2020-06-18T13:54:32Z</time>
      </trkpt>
      <trkpt lat="49.97199" lon="1.23194">
        <ele>116.4</ele>
        <time>2020-06-18T13:54:33Z</time>
      </trkpt>
      <trkpt lat="49.97205" lon="1.23193">
        <ele>116.4</ele>
        <time>2020-06-18T13:54:34Z</time>
      </trkpt>
      <trkpt lat="49.9721" lon="1.23192">
        <ele>116.4</ele>
        <time>2020-06-18T13:54:35Z</time>
      </trkpt>
      <trkpt lat="49.97215" lon="1.23191">
        <ele>116.3</ele>
        <time>2020-06-18T13:54:36Z</time>
      </trkpt>
      <trkpt lat="49.9722" lon="1.2319">
        <ele>116.3</ele>
        <time>2020-06-18T13:54:37Z</time>
      </trkpt>
      <trkpt lat="49.97226" lon="1.23189">
        <ele>116.2</ele>
        <time>2020-06-18T13:54:38Z</time>
      </trkpt>
      <trkpt lat="49.97232" lon="1.23187">
        <ele>116.2</ele>
        <time>2020-06-18T13:54:39Z</time>
      </trkpt>
      <trkpt lat="49.97238" lon="1.23186">
        <ele>116.1</ele>
        <time>2020-06-18T13:54:40Z</time>
      </trkpt>
      <trkpt lat="49.97243" lon="1.23184">
        <ele>116</ele>
        <time>2020-06-18T13:54:41Z</time>
      </trkpt>
      <trkpt lat="49.97248" lon="1.23182">
        <ele>116</ele>
        <time>2020-06-18T13:54:42Z</time>
      </trkpt>
      <trkpt lat="49.97253" lon="1.23182">
        <ele>115.9</ele>
        <time>2020-06-18T13:54:43Z</time>
      </trkpt>
      <trkpt lat="49.97259" lon="1.23179">
        <ele>115.8</ele>
        <time>2020-06-18T13:54:44Z</time>
      </trkpt>
      <trkpt lat="49.97265" lon="1.23178">
        <ele>115.8</ele>
        <time>2020-06-18T13:54:45Z</time>
      </trkpt>
      <trkpt lat="49.97271" lon="1.23176">
        <ele>115.7</ele>
        <time>2020-06-18T13:54:46Z</time>
      </trkpt>
      <trkpt lat="49.97277" lon="1.23175">
        <ele>115.6</ele>
        <time>2020-06-18T13:54:47Z</time>
      </trkpt>
      <trkpt lat="49.97283" lon="1.23174">
        <ele>115.6</ele>
        <time>2020-06-18T13:54:48Z</time>
      </trkpt>
      <trkpt lat="49.9729" lon="1.23174">
        <ele>115.5</ele>
        <time>2020-06-18T13:54:49Z</time>
      </trkpt>
      <trkpt lat="49.97298" lon="1.23172">
        <ele>115.4</ele>
        <time>2020-06-18T13:54:50Z</time>
      </trkpt>
      <trkpt lat="49.97305" lon="1.23171">
        <ele>115.4</ele>
        <time>2020-06-18T13:54:51Z</time>
      </trkpt>
      <trkpt lat="49.97311" lon="1.2317">
        <ele>115.3</ele>
        <time>2020-06-18T13:54:52Z</time>
      </trkpt>
      <trkpt lat="49.97316" lon="1.23169">
        <ele>115.3</ele>
        <time>2020-06-18T13:54:53Z</time>
      </trkpt>
      <trkpt lat="49.97323" lon="1.23167">
        <ele>115.2</ele>
        <time>2020-06-18T13:54:54Z</time>
      </trkpt>
      <trkpt lat="49.97329" lon="1.23166">
        <ele>115.1</ele>
        <time>2020-06-18T13:54:55Z</time>
      </trkpt>
      <trkpt lat="49.97335" lon="1.23165">
        <ele>115</ele>
        <time>2020-06-18T13:54:56Z</time>
      </trkpt>
      <trkpt lat="49.97341" lon="1.23163">
        <ele>114.9</ele>
        <time>2020-06-18T13:54:57Z</time>
      </trkpt>
      <trkpt lat="49.97346" lon="1.23162">
        <ele>114.8</ele>
        <time>2020-06-18T13:54:58Z</time>
      </trkpt>
      <trkpt lat="49.97352" lon="1.2316">
        <ele>114.8</ele>
        <time>2020-06-18T13:54:59Z</time>
      </trkpt>
      <trkpt lat="49.97357" lon="1.2316">
        <ele>114.7</ele>
        <time>2020-06-18T13:55:00Z</time>
      </trkpt>
      <trkpt lat="49.97362" lon="1.2316">
        <ele>114.7</ele>
        <time>2020-06-18T13:55:01Z</time>
      </trkpt>
      <trkpt lat="49.97368" lon="1.2316">
        <ele>114.6</ele>
        <time>2020-06-18T13:55:02Z</time>
      </trkpt>
      <trkpt lat="49.97374" lon="1.2316">
        <ele>114.4</ele>
        <time>2020-06-18T13:55:03Z</time>
      </trkpt>
      <trkpt lat="49.97379" lon="1.23158">
        <ele>114.3</ele>
        <time>2020-06-18T13:55:04Z</time>
      </trkpt>
      <trkpt lat="49.97385" lon="1.23156">
        <ele>114.2</ele>
        <time>2020-06-18T13:55:05Z</time>
      </trkpt>
      <trkpt lat="49.97391" lon="1.23155">
        <ele>114</ele>
        <time>2020-06-18T13:55:06Z</time>
      </trkpt>
      <trkpt lat="49.97398" lon="1.23153">
        <ele>113.8</ele>
        <time>2020-06-18T13:55:07Z</time>
      </trkpt>
      <trkpt lat="49.97403" lon="1.23152">
        <ele>113.7</ele>
        <time>2020-06-18T13:55:08Z</time>
      </trkpt>
      <trkpt lat="49.97408" lon="1.23151">
        <ele>113.5</ele>
        <time>2020-06-18T13:55:09Z</time>
      </trkpt>
      <trkpt lat="49.97413" lon="1.23152">
        <ele>113.4</ele>
        <time>2020-06-18T13:55:10Z</time>
      </trkpt>
      <trkpt lat="49.97419" lon="1.23152">
        <ele>113.2</ele>
        <time>2020-06-18T13:55:11Z</time>
      </trkpt>
      <trkpt lat="49.97425" lon="1.23151">
        <ele>113.1</ele>
        <time>2020-06-18T13:55:12Z</time>
      </trkpt>
      <trkpt lat="49.97431" lon="1.2315">
        <ele>113</ele>
        <time>2020-06-18T13:55:13Z</time>
      </trkpt>
      <trkpt lat="49.97437" lon="1.23148">
        <ele>112.9</ele>
        <time>2020-06-18T13:55:14Z</time>
      </trkpt>
      <trkpt lat="49.97443" lon="1.23147">
        <ele>112.7</ele>
        <time>2020-06-18T13:55:15Z</time>
      </trkpt>
      <trkpt lat="49.9745" lon="1.23146">
        <ele>112.6</ele>
        <time>2020-06-18T13:55:16Z</time>
      </trkpt>
      <trkpt lat="49.97458" lon="1.23147">
        <ele>112.5</ele>
        <time>2020-06-18T13:55:17Z</time>
      </trkpt>
      <trkpt lat="49.97465" lon="1.23146">
        <ele>112.3</ele>
        <time>2020-06-18T13:55:18Z</time>
      </trkpt>
      <trkpt lat="49.97472" lon="1.23145">
        <ele>112.2</ele>
        <time>2020-06-18T13:55:19Z</time>
      </trkpt>
      <trkpt lat="49.97477" lon="1.23143">
        <ele>112.2</ele>
        <time>2020-06-18T13:55:20Z</time>
      </trkpt>
      <trkpt lat="49.97484" lon="1.23142">
        <ele>112.1</ele>
        <time>2020-06-18T13:55:21Z</time>
      </trkpt>
      <trkpt lat="49.9749" lon="1.23141">
        <ele>112</ele>
        <time>2020-06-18T13:55:22Z</time>
      </trkpt>
      <trkpt lat="49.97496" lon="1.2314">
        <ele>111.9</ele>
        <time>2020-06-18T13:55:23Z</time>
      </trkpt>
      <trkpt lat="49.97502" lon="1.23138">
        <ele>111.8</ele>
        <time>2020-06-18T13:55:24Z</time>
      </trkpt>
      <trkpt lat="49.97509" lon="1.23136">
        <ele>111.6</ele>
        <time>2020-06-18T13:55:25Z</time>
      </trkpt>
      <trkpt lat="49.97515" lon="1.23133">
        <ele>111.4</ele>
        <time>2020-06-18T13:55:26Z</time>
      </trkpt>
      <trkpt lat="49.97521" lon="1.2313">
        <ele>111.3</ele>
        <time>2020-06-18T13:55:27Z</time>
      </trkpt>
      <trkpt lat="49.97528" lon="1.23127">
        <ele>111.1</ele>
        <time>2020-06-18T13:55:28Z</time>
      </trkpt>
      <trkpt lat="49.97535" lon="1.23124">
        <ele>110.9</ele>
        <time>2020-06-18T13:55:29Z</time>
      </trkpt>
      <trkpt lat="49.97541" lon="1.2312">
        <ele>110.8</ele>
        <time>2020-06-18T13:55:30Z</time>
      </trkpt>
      <trkpt lat="49.97548" lon="1.23117">
        <ele>110.6</ele>
        <time>2020-06-18T13:55:31Z</time>
      </trkpt>
      <trkpt lat="49.97556" lon="1.23115">
        <ele>110.5</ele>
        <time>2020-06-18T13:55:32Z</time>
      </trkpt>
      <trkpt lat="49.97563" lon="1.23111">
        <ele>110.3</ele>
        <time>2020-06-18T13:55:33Z</time>
      </trkpt>
      <trkpt lat="49.9757" lon="1.23108">
        <ele>110.2</ele>
        <time>2020-06-18T13:55:34Z</time>
      </trkpt>
      <trkpt lat="49.97576" lon="1.23104">
        <ele>110.1</ele>
        <time>2020-06-18T13:55:35Z</time>
      </trkpt>
      <trkpt lat="49.97583" lon="1.231">
        <ele>110.1</ele>
        <time>2020-06-18T13:55:36Z</time>
      </trkpt>
      <trkpt lat="49.9759" lon="1.23096">
        <ele>110</ele>
        <time>2020-06-18T13:55:37Z</time>
      </trkpt>
      <trkpt lat="49.97597" lon="1.23093">
        <ele>109.9</ele>
        <time>2020-06-18T13:55:38Z</time>
      </trkpt>
      <trkpt lat="49.97603" lon="1.2309">
        <ele>109.8</ele>
        <time>2020-06-18T13:55:39Z</time>
      </trkpt>
      <trkpt lat="49.9761" lon="1.23088">
        <ele>109.7</ele>
        <time>2020-06-18T13:55:40Z</time>
      </trkpt>
      <trkpt lat="49.97617" lon="1.23085">
        <ele>109.6</ele>
        <time>2020-06-18T13:55:41Z</time>
      </trkpt>
      <trkpt lat="49.97624" lon="1.23082">
        <ele>109.5</ele>
        <time>2020-06-18T13:55:42Z</time>
      </trkpt>
      <trkpt lat="49.97631" lon="1.23079">
        <ele>109.4</ele>
        <time>2020-06-18T13:55:43Z</time>
      </trkpt>
      <trkpt lat="49.97638" lon="1.23077">
        <ele>109.2</ele>
        <time>2020-06-18T13:55:44Z</time>
      </trkpt>
      <trkpt lat="49.97644" lon="1.23075">
        <ele>109.1</ele>
        <time>2020-06-18T13:55:45Z</time>
      </trkpt>
      <trkpt lat="49.97651" lon="1.23073">
        <ele>109</ele>
        <time>2020-06-18T13:55:46Z</time>
      </trkpt>
      <trkpt lat="49.97658" lon="1.23069">
        <ele>109</ele>
        <time>2020-06-18T13:55:47Z</time>
      </trkpt>
      <trkpt lat="49.97665" lon="1.23067">
        <ele>108.9</ele>
        <time>2020-06-18T13:55:48Z</time>
      </trkpt>
      <trkpt lat="49.97671" lon="1.23065">
        <ele>108.8</ele>
        <time>2020-06-18T13:55:49Z</time>
      </trkpt>
      <trkpt lat="49.97677" lon="1.23063">
        <ele>108.8</ele>
        <time>2020-06-18T13:55:50Z</time>
      </trkpt>
      <trkpt lat="49.97683" lon="1.2306">
        <ele>108.7</ele>
        <time>2020-06-18T13:55:51Z</time>
      </trkpt>
      <trkpt lat="49.97689" lon="1.23059">
        <ele>108.6</ele>
        <time>2020-06-18T13:55:52Z</time>
      </trkpt>
      <trkpt lat="49.97696" lon="1.23058">
        <ele>108.6</ele>
        <time>2020-06-18T13:55:53Z</time>
      </trkpt>
      <trkpt lat="49.97703" lon="1.23056">
        <ele>108.5</ele>
        <time>2020-06-18T13:55:54Z</time>
      </trkpt>
      <trkpt lat="49.97711" lon="1.23054">
        <ele>108.6</ele>
        <time>2020-06-18T13:55:55Z</time>
      </trkpt>
      <trkpt lat="49.97718" lon="1.23053">
        <ele>108.6</ele>
        <time>2020-06-18T13:55:56Z</time>
      </trkpt>
      <trkpt lat="49.97725" lon="1.23051">
        <ele>108.7</ele>
        <time>2020-06-18T13:55:57Z</time>
      </trkpt>
      <trkpt lat="49.97731" lon="1.23049">
        <ele>108.8</ele>
        <time>2020-06-18T13:55:58Z</time>
      </trkpt>
      <trkpt lat="49.97737" lon="1.23048">
        <ele>108.9</ele>
        <time>2020-06-18T13:55:59Z</time>
      </trkpt>
      <trkpt lat="49.97744" lon="1.23046">
        <ele>108.9</ele>
        <time>2020-06-18T13:56:00Z</time>
      </trkpt>
      <trkpt lat="49.9775" lon="1.23044">
        <ele>109.1</ele>
        <time>2020-06-18T13:56:01Z</time>
      </trkpt>
      <trkpt lat="49.97756" lon="1.23043">
        <ele>109.2</ele>
        <time>2020-06-18T13:56:02Z</time>
      </trkpt>
      <trkpt lat="49.97761" lon="1.23042">
        <ele>109.3</ele>
        <time>2020-06-18T13:56:03Z</time>
      </trkpt>
      <trkpt lat="49.97767" lon="1.23043">
        <ele>109.4</ele>
        <time>2020-06-18T13:56:04Z</time>
      </trkpt>
      <trkpt lat="49.97772" lon="1.23043">
        <ele>109.5</ele>
        <time>2020-06-18T13:56:05Z</time>
      </trkpt>
      <trkpt lat="49.97778" lon="1.23044">
        <ele>109.6</ele>
        <time>2020-06-18T13:56:06Z</time>
      </trkpt>
      <trkpt lat="49.97783" lon="1.23047">
        <ele>109.7</ele>
        <time>2020-06-18T13:56:07Z</time>
      </trkpt>
      <trkpt lat="49.97788" lon="1.23048">
        <ele>109.8</ele>
        <time>2020-06-18T13:56:08Z</time>
      </trkpt>
      <trkpt lat="49.97793" lon="1.23049">
        <ele>109.9</ele>
        <time>2020-06-18T13:56:09Z</time>
      </trkpt>
      <trkpt lat="49.97797" lon="1.2305">
        <ele>110</ele>
        <time>2020-06-18T13:56:10Z</time>
      </trkpt>
      <trkpt lat="49.97802" lon="1.23052">
        <ele>110.1</ele>
        <time>2020-06-18T13:56:11Z</time>
      </trkpt>
      <trkpt lat="49.97807" lon="1.23056">
        <ele>110.2</ele>
        <time>2020-06-18T13:56:12Z</time>
      </trkpt>
      <trkpt lat="49.97812" lon="1.23061">
        <ele>110.3</ele>
        <time>2020-06-18T13:56:13Z</time>
      </trkpt>
      <trkpt lat="49.97817" lon="1.23065">
        <ele>110.4</ele>
        <time>2020-06-18T13:56:14Z</time>
      </trkpt>
      <trkpt lat="49.97822" lon="1.23068">
        <ele>110.5</ele>
        <time>2020-06-18T13:56:15Z</time>
      </trkpt>
      <trkpt lat="49.97828" lon="1.23073">
        <ele>110.7</ele>
        <time>2020-06-18T13:56:16Z</time>
      </trkpt>
      <trkpt lat="49.97836" lon="1.23078">
        <ele>110.9</ele>
        <time>2020-06-18T13:56:17Z</time>
      </trkpt>
      <trkpt lat="49.97842" lon="1.23082">
        <ele>111.1</ele>
        <time>2020-06-18T13:56:18Z</time>
      </trkpt>
      <trkpt lat="49.97847" lon="1.23084">
        <ele>111.3</ele>
        <time>2020-06-18T13:56:19Z</time>
      </trkpt>
      <trkpt lat="49.97851" lon="1.23087">
        <ele>111.5</ele>
        <time>2020-06-18T13:56:20Z</time>
      </trkpt>
      <trkpt lat="49.97856" lon="1.23087">
        <ele>111.8</ele>
        <time>2020-06-18T13:56:21Z</time>
      </trkpt>
      <trkpt lat="49.97861" lon="1.23085">
        <ele>111.8</ele>
        <time>2020-06-18T13:56:22Z</time>
      </trkpt>
      <trkpt lat="49.97866" lon="1.23083">
        <ele>111.9</ele>
        <time>2020-06-18T13:56:23Z</time>
      </trkpt>
      <trkpt lat="49.9787" lon="1.23082">
        <ele>112</ele>
        <time>2020-06-18T13:56:24Z</time>
      </trkpt>
      <trkpt lat="49.97877" lon="1.23081">
        <ele>112.1</ele>
        <time>2020-06-18T13:56:25Z</time>
      </trkpt>
      <trkpt lat="49.97882" lon="1.2308">
        <ele>112.2</ele>
        <time>2020-06-18T13:56:26Z</time>
      </trkpt>
      <trkpt lat="49.97887" lon="1.23082">
        <ele>112.2</ele>
        <time>2020-06-18T13:56:27Z</time>
      </trkpt>
      <trkpt lat="49.97892" lon="1.23085">
        <ele>112.3</ele>
        <time>2020-06-18T13:56:28Z</time>
      </trkpt>
      <trkpt lat="49.97897" lon="1.23086">
        <ele>112.3</ele>
        <time>2020-06-18T13:56:29Z</time>
      </trkpt>
      <trkpt lat="49.97901" lon="1.23088">
        <ele>112.4</ele>
        <time>2020-06-18T13:56:30Z</time>
      </trkpt>
      <trkpt lat="49.97906" lon="1.2309">
        <ele>112.4</ele>
        <time>2020-06-18T13:56:31Z</time>
      </trkpt>
      <trkpt lat="49.9791" lon="1.23092">
        <ele>112.5</ele>
        <time>2020-06-18T13:56:32Z</time>
      </trkpt>
      <trkpt lat="49.97915" lon="1.23095">
        <ele>112.6</ele>
        <time>2020-06-18T13:56:33Z</time>
      </trkpt>
      <trkpt lat="49.9792" lon="1.23097">
        <ele>112.6</ele>
        <time>2020-06-18T13:56:34Z</time>
      </trkpt>
      <trkpt lat="49.97926" lon="1.23099">
        <ele>112.7</ele>
        <time>2020-06-18T13:56:35Z</time>
      </trkpt>
      <trkpt lat="49.9793" lon="1.23102">
        <ele>112.7</ele>
        <time>2020-06-18T13:56:36Z</time>
      </trkpt>
      <trkpt lat="49.97935" lon="1.23105">
        <ele>112.8</ele>
        <time>2020-06-18T13:56:37Z</time>
      </trkpt>
      <trkpt lat="49.97939" lon="1.2311">
        <ele>112.9</ele>
        <time>2020-06-18T13:56:38Z</time>
      </trkpt>
      <trkpt lat="49.97942" lon="1.23115">
        <ele>112.9</ele>
        <time>2020-06-18T13:56:39Z</time>
      </trkpt>
      <trkpt lat="49.97945" lon="1.23121">
        <ele>113</ele>
        <time>2020-06-18T13:56:40Z</time>
      </trkpt>
      <trkpt lat="49.97949" lon="1.23127">
        <ele>113</ele>
        <time>2020-06-18T13:56:41Z</time>
      </trkpt>
      <trkpt lat="49.97952" lon="1.23135">
        <ele>113</ele>
        <time>2020-06-18T13:56:42Z</time>
      </trkpt>
      <trkpt lat="49.97954" lon="1.23145">
        <ele>113</ele>
        <time>2020-06-18T13:56:43Z</time>
      </trkpt>
      <trkpt lat="49.97957" lon="1.23153">
        <ele>113</ele>
        <time>2020-06-18T13:56:44Z</time>
      </trkpt>
      <trkpt lat="49.9796" lon="1.23161">
        <ele>113</ele>
        <time>2020-06-18T13:56:45Z</time>
      </trkpt>
      <trkpt lat="49.97963" lon="1.2317">
        <ele>113</ele>
        <time>2020-06-18T13:56:46Z</time>
      </trkpt>
      <trkpt lat="49.97965" lon="1.23177">
        <ele>113</ele>
        <time>2020-06-18T13:56:47Z</time>
      </trkpt>
      <trkpt lat="49.97967" lon="1.23187">
        <ele>113</ele>
        <time>2020-06-18T13:56:48Z</time>
      </trkpt>
      <trkpt lat="49.97969" lon="1.23197">
        <ele>113.1</ele>
        <time>2020-06-18T13:56:49Z</time>
      </trkpt>
      <trkpt lat="49.97971" lon="1.23205">
        <ele>113.1</ele>
        <time>2020-06-18T13:56:50Z</time>
      </trkpt>
      <trkpt lat="49.97974" lon="1.23213">
        <ele>113.2</ele>
        <time>2020-06-18T13:56:51Z</time>
      </trkpt>
      <trkpt lat="49.97975" lon="1.23221">
        <ele>113.2</ele>
        <time>2020-06-18T13:56:52Z</time>
      </trkpt>
      <trkpt lat="49.97977" lon="1.2323">
        <ele>113.3</ele>
        <time>2020-06-18T13:56:53Z</time>
      </trkpt>
      <trkpt lat="49.97978" lon="1.23238">
        <ele>113.3</ele>
        <time>2020-06-18T13:56:54Z</time>
      </trkpt>
      <trkpt lat="49.97981" lon="1.23247">
        <ele>113.4</ele>
        <time>2020-06-18T13:56:55Z</time>
      </trkpt>
      <trkpt lat="49.97983" lon="1.23255">
        <ele>113.4</ele>
        <time>2020-06-18T13:56:56Z</time>
      </trkpt>
      <trkpt lat="49.97986" lon="1.23263">
        <ele>113.5</ele>
        <time>2020-06-18T13:56:57Z</time>
      </trkpt>
      <trkpt lat="49.9799" lon="1.23272">
        <ele>113.6</ele>
        <time>2020-06-18T13:56:58Z</time>
      </trkpt>
      <trkpt lat="49.97992" lon="1.23279">
        <ele>113.6</ele>
        <time>2020-06-18T13:56:59Z</time>
      </trkpt>
      <trkpt lat="49.97995" lon="1.23288">
        <ele>113.7</ele>
        <time>2020-06-18T13:57:00Z</time>
      </trkpt>
      <trkpt lat="49.97997" lon="1.23296">
        <ele>113.7</ele>
        <time>2020-06-18T13:57:01Z</time>
      </trkpt>
      <trkpt lat="49.97999" lon="1.23304">
        <ele>113.8</ele>
        <time>2020-06-18T13:57:02Z</time>
      </trkpt>
      <trkpt lat="49.98001" lon="1.23313">
        <ele>113.9</ele>
        <time>2020-06-18T13:57:03Z</time>
      </trkpt>
      <trkpt lat="49.98002" lon="1.2332">
        <ele>114</ele>
        <time>2020-06-18T13:57:04Z</time>
      </trkpt>
      <trkpt lat="49.98004" lon="1.23328">
        <ele>114.1</ele>
        <time>2020-06-18T13:57:05Z</time>
      </trkpt>
      <trkpt lat="49.98006" lon="1.23337">
        <ele>114.2</ele>
        <time>2020-06-18T13:57:06Z</time>
      </trkpt>
      <trkpt lat="49.98007" lon="1.23345">
        <ele>114.4</ele>
        <time>2020-06-18T13:57:07Z</time>
      </trkpt>
      <trkpt lat="49.98008" lon="1.23354">
        <ele>114.4</ele>
        <time>2020-06-18T13:57:08Z</time>
      </trkpt>
      <trkpt lat="49.98008" lon="1.23361">
        <ele>114.5</ele>
        <time>2020-06-18T13:57:09Z</time>
      </trkpt>
      <trkpt lat="49.9801" lon="1.23369">
        <ele>114.5</ele>
        <time>2020-06-18T13:57:10Z</time>
      </trkpt>
      <trkpt lat="49.98012" lon="1.23376">
        <ele>114.6</ele>
        <time>2020-06-18T13:57:11Z</time>
      </trkpt>
      <trkpt lat="49.98014" lon="1.23384">
        <ele>114.6</ele>
        <time>2020-06-18T13:57:12Z</time>
      </trkpt>
      <trkpt lat="49.98016" lon="1.23392">
        <ele>114.7</ele>
        <time>2020-06-18T13:57:13Z</time>
      </trkpt>
      <trkpt lat="49.98018" lon="1.23402">
        <ele>114.8</ele>
        <time>2020-06-18T13:57:14Z</time>
      </trkpt>
      <trkpt lat="49.9802" lon="1.2341">
        <ele>114.9</ele>
        <time>2020-06-18T13:57:15Z</time>
      </trkpt>
      <trkpt lat="49.98022" lon="1.23418">
        <ele>115</ele>
        <time>2020-06-18T13:57:16Z</time>
      </trkpt>
      <trkpt lat="49.98025" lon="1.23427">
        <ele>115.2</ele>
        <time>2020-06-18T13:57:17Z</time>
      </trkpt>
      <trkpt lat="49.98028" lon="1.23436">
        <ele>115.3</ele>
        <time>2020-06-18T13:57:18Z</time>
      </trkpt>
      <trkpt lat="49.9803" lon="1.23446">
        <ele>115.4</ele>
        <time>2020-06-18T13:57:19Z</time>
      </trkpt>
      <trkpt lat="49.98033" lon="1.23456">
        <ele>115.6</ele>
        <time>2020-06-18T13:57:20Z</time>
      </trkpt>
      <trkpt lat="49.98035" lon="1.23465">
        <ele>115.7</ele>
        <time>2020-06-18T13:57:21Z</time>
      </trkpt>
      <trkpt lat="49.98036" lon="1.23473">
        <ele>115.8</ele>
        <time>2020-06-18T13:57:22Z</time>
      </trkpt>
      <trkpt lat="49.98038" lon="1.23481">
        <ele>115.9</ele>
        <time>2020-06-18T13:57:23Z</time>
      </trkpt>
      <trkpt lat="49.98039" lon="1.23489">
        <ele>116</ele>
        <time>2020-06-18T13:57:24Z</time>
      </trkpt>
      <trkpt lat="49.9804" lon="1.23498">
        <ele>116.1</ele>
        <time>2020-06-18T13:57:25Z</time>
      </trkpt>
      <trkpt lat="49.98042" lon="1.23508">
        <ele>116.2</ele>
        <time>2020-06-18T13:57:26Z</time>
      </trkpt>
      <trkpt lat="49.98044" lon="1.2352">
        <ele>116.3</ele>
        <time>2020-06-18T13:57:27Z</time>
      </trkpt>
      <trkpt lat="49.98045" lon="1.23526">
        <ele>116.3</ele>
        <time>2020-06-18T13:57:28Z</time>
      </trkpt>
      <trkpt lat="49.98045" lon="1.23532">
        <ele>116.4</ele>
        <time>2020-06-18T13:57:29Z</time>
      </trkpt>
      <trkpt lat="49.98046" lon="1.2354">
        <ele>116.5</ele>
        <time>2020-06-18T13:57:30Z</time>
      </trkpt>
      <trkpt lat="49.98047" lon="1.23548">
        <ele>116.6</ele>
        <time>2020-06-18T13:57:31Z</time>
      </trkpt>
      <trkpt lat="49.98048" lon="1.23556">
        <ele>116.7</ele>
        <time>2020-06-18T13:57:32Z</time>
      </trkpt>
      <trkpt lat="49.9805" lon="1.23566">
        <ele>116.8</ele>
        <time>2020-06-18T13:57:33Z</time>
      </trkpt>
      <trkpt lat="49.9805" lon="1.23576">
        <ele>116.9</ele>
        <time>2020-06-18T13:57:34Z</time>
      </trkpt>
      <trkpt lat="49.98051" lon="1.23585">
        <ele>117.1</ele>
        <time>2020-06-18T13:57:35Z</time>
      </trkpt>
      <trkpt lat="49.98051" lon="1.23594">
        <ele>117.2</ele>
        <time>2020-06-18T13:57:36Z</time>
      </trkpt>
      <trkpt lat="49.98052" lon="1.23605">
        <ele>117.3</ele>
        <time>2020-06-18T13:57:37Z</time>
      </trkpt>
      <trkpt lat="49.98053" lon="1.23616">
        <ele>117.3</ele>
        <time>2020-06-18T13:57:38Z</time>
      </trkpt>
      <trkpt lat="49.98054" lon="1.23626">
        <ele>117.4</ele>
        <time>2020-06-18T13:57:39Z</time>
      </trkpt>
      <trkpt lat="49.98054" lon="1.23636">
        <ele>117.4</ele>
        <time>2020-06-18T13:57:40Z</time>
      </trkpt>
      <trkpt lat="49.98055" lon="1.23645">
        <ele>117.4</ele>
        <time>2020-06-18T13:57:41Z</time>
      </trkpt>
      <trkpt lat="49.98055" lon="1.23654">
        <ele>117.5</ele>
        <time>2020-06-18T13:57:42Z</time>
      </trkpt>
      <trkpt lat="49.98056" lon="1.23663">
        <ele>117.5</ele>
        <time>2020-06-18T13:57:43Z</time>
      </trkpt>
      <trkpt lat="49.98056" lon="1.23673">
        <ele>117.5</ele>
        <time>2020-06-18T13:57:44Z</time>
      </trkpt>
      <trkpt lat="49.98056" lon="1.23682">
        <ele>117.6</ele>
        <time>2020-06-18T13:57:45Z</time>
      </trkpt>
      <trkpt lat="49.98056" lon="1.23692">
        <ele>117.6</ele>
        <time>2020-06-18T13:57:46Z</time>
      </trkpt>
      <trkpt lat="49.98056" lon="1.23701">
        <ele>117.7</ele>
        <time>2020-06-18T13:57:47Z</time>
      </trkpt>
      <trkpt lat="49.98057" lon="1.23711">
        <ele>117.7</ele>
        <time>2020-06-18T13:57:48Z</time>
      </trkpt>
      <trkpt lat="49.98057" lon="1.2372">
        <ele>117.8</ele>
        <time>2020-06-18T13:57:49Z</time>
      </trkpt>
      <trkpt lat="49.98057" lon="1.2373">
        <ele>117.8</ele>
        <time>2020-06-18T13:57:50Z</time>
      </trkpt>
      <trkpt lat="49.98057" lon="1.23741">
        <ele>117.8</ele>
        <time>2020-06-18T13:57:51Z</time>
      </trkpt>
      <trkpt lat="49.98057" lon="1.23751">
        <ele>117.8</ele>
        <time>2020-06-18T13:57:52Z</time>
      </trkpt>
      <trkpt lat="49.98056" lon="1.23761">
        <ele>117.8</ele>
        <time>2020-06-18T13:57:53Z</time>
      </trkpt>
      <trkpt lat="49.98056" lon="1.23771">
        <ele>117.8</ele>
        <time>2020-06-18T13:57:54Z</time>
      </trkpt>
      <trkpt lat="49.98056" lon="1.23781">
        <ele>117.8</ele>
        <time>2020-06-18T13:57:55Z</time>
      </trkpt>
      <trkpt lat="49.98056" lon="1.23791">
        <ele>117.8</ele>
        <time>2020-06-18T13:57:56Z</time>
      </trkpt>
      <trkpt lat="49.98056" lon="1.23802">
        <ele>117.8</ele>
        <time>2020-06-18T13:57:57Z</time>
      </trkpt>
      <trkpt lat="49.98055" lon="1.23813">
        <ele>117.8</ele>
        <time>2020-06-18T13:57:58Z</time>
      </trkpt>
      <trkpt lat="49.98056" lon="1.23825">
        <ele>117.8</ele>
        <time>2020-06-18T13:57:59Z</time>
      </trkpt>
      <trkpt lat="49.98056" lon="1.23837">
        <ele>117.8</ele>
        <time>2020-06-18T13:58:00Z</time>
      </trkpt>
      <trkpt lat="49.98056" lon="1.23847">
        <ele>117.8</ele>
        <time>2020-06-18T13:58:01Z</time>
      </trkpt>
      <trkpt lat="49.98054" lon="1.23861">
        <ele>117.7</ele>
        <time>2020-06-18T13:58:02Z</time>
      </trkpt>
      <trkpt lat="49.98054" lon="1.23874">
        <ele>117.7</ele>
        <time>2020-06-18T13:58:03Z</time>
      </trkpt>
      <trkpt lat="49.98054" lon="1.23884">
        <ele>117.7</ele>
        <time>2020-06-18T13:58:04Z</time>
      </trkpt>
      <trkpt lat="49.98054" lon="1.23896">
        <ele>117.7</ele>
        <time>2020-06-18T13:58:05Z</time>
      </trkpt>
      <trkpt lat="49.98055" lon="1.23907">
        <ele>117.6</ele>
        <time>2020-06-18T13:58:06Z</time>
      </trkpt>
      <trkpt lat="49.98055" lon="1.23917">
        <ele>117.6</ele>
        <time>2020-06-18T13:58:07Z</time>
      </trkpt>
      <trkpt lat="49.98055" lon="1.23928">
        <ele>117.5</ele>
        <time>2020-06-18T13:58:08Z</time>
      </trkpt>
      <trkpt lat="49.98054" lon="1.23939">
        <ele>117.5</ele>
        <time>2020-06-18T13:58:09Z</time>
      </trkpt>
      <trkpt lat="49.98054" lon="1.23951">
        <ele>117.5</ele>
        <time>2020-06-18T13:58:10Z</time>
      </trkpt>
      <trkpt lat="49.98055" lon="1.23962">
        <ele>117.4</ele>
        <time>2020-06-18T13:58:11Z</time>
      </trkpt>
      <trkpt lat="49.98056" lon="1.23974">
        <ele>117.4</ele>
        <time>2020-06-18T13:58:12Z</time>
      </trkpt>
      <trkpt lat="49.98057" lon="1.23985">
        <ele>117.4</ele>
        <time>2020-06-18T13:58:13Z</time>
      </trkpt>
      <trkpt lat="49.98058" lon="1.23996">
        <ele>117.3</ele>
        <time>2020-06-18T13:58:14Z</time>
      </trkpt>
      <trkpt lat="49.98059" lon="1.24007">
        <ele>117.3</ele>
        <time>2020-06-18T13:58:15Z</time>
      </trkpt>
      <trkpt lat="49.98061" lon="1.24018">
        <ele>117.3</ele>
        <time>2020-06-18T13:58:16Z</time>
      </trkpt>
      <trkpt lat="49.98062" lon="1.24029">
        <ele>117.3</ele>
        <time>2020-06-18T13:58:17Z</time>
      </trkpt>
      <trkpt lat="49.98063" lon="1.2404">
        <ele>117.3</ele>
        <time>2020-06-18T13:58:18Z</time>
      </trkpt>
      <trkpt lat="49.98064" lon="1.2405">
        <ele>117.2</ele>
        <time>2020-06-18T13:58:19Z</time>
      </trkpt>
      <trkpt lat="49.98065" lon="1.24061">
        <ele>117.2</ele>
        <time>2020-06-18T13:58:20Z</time>
      </trkpt>
      <trkpt lat="49.98066" lon="1.24071">
        <ele>117.1</ele>
        <time>2020-06-18T13:58:21Z</time>
      </trkpt>
      <trkpt lat="49.98067" lon="1.24081">
        <ele>117.1</ele>
        <time>2020-06-18T13:58:22Z</time>
      </trkpt>
      <trkpt lat="49.98068" lon="1.24092">
        <ele>117.1</ele>
        <time>2020-06-18T13:58:23Z</time>
      </trkpt>
      <trkpt lat="49.98069" lon="1.24102">
        <ele>117</ele>
        <time>2020-06-18T13:58:24Z</time>
      </trkpt>
      <trkpt lat="49.9807" lon="1.24113">
        <ele>117</ele>
        <time>2020-06-18T13:58:25Z</time>
      </trkpt>
      <trkpt lat="49.98071" lon="1.24124">
        <ele>116.9</ele>
        <time>2020-06-18T13:58:26Z</time>
      </trkpt>
      <trkpt lat="49.98073" lon="1.24135">
        <ele>116.8</ele>
        <time>2020-06-18T13:58:27Z</time>
      </trkpt>
      <trkpt lat="49.98074" lon="1.24146">
        <ele>116.8</ele>
        <time>2020-06-18T13:58:28Z</time>
      </trkpt>
      <trkpt lat="49.98076" lon="1.24156">
        <ele>116.7</ele>
        <time>2020-06-18T13:58:29Z</time>
      </trkpt>
      <trkpt lat="49.98077" lon="1.24168">
        <ele>116.6</ele>
        <time>2020-06-18T13:58:30Z</time>
      </trkpt>
      <trkpt lat="49.98078" lon="1.24178">
        <ele>116.6</ele>
        <time>2020-06-18T13:58:31Z</time>
      </trkpt>
      <trkpt lat="49.98079" lon="1.24189">
        <ele>116.5</ele>
        <time>2020-06-18T13:58:32Z</time>
      </trkpt>
      <trkpt lat="49.9808" lon="1.242">
        <ele>116.4</ele>
        <time>2020-06-18T13:58:33Z</time>
      </trkpt>
      <trkpt lat="49.9808" lon="1.24211">
        <ele>116.3</ele>
        <time>2020-06-18T13:58:34Z</time>
      </trkpt>
      <trkpt lat="49.98081" lon="1.24223">
        <ele>116.3</ele>
        <time>2020-06-18T13:58:35Z</time>
      </trkpt>
      <trkpt lat="49.98082" lon="1.24235">
        <ele>116.2</ele>
        <time>2020-06-18T13:58:36Z</time>
      </trkpt>
      <trkpt lat="49.98083" lon="1.24246">
        <ele>116.1</ele>
        <time>2020-06-18T13:58:37Z</time>
      </trkpt>
      <trkpt lat="49.98084" lon="1.24258">
        <ele>116</ele>
        <time>2020-06-18T13:58:38Z</time>
      </trkpt>
      <trkpt lat="49.98085" lon="1.24269">
        <ele>116</ele>
        <time>2020-06-18T13:58:39Z</time>
      </trkpt>
      <trkpt lat="49.98086" lon="1.2428">
        <ele>115.9</ele>
        <time>2020-06-18T13:58:40Z</time>
      </trkpt>
      <trkpt lat="49.98087" lon="1.24291">
        <ele>115.9</ele>
        <time>2020-06-18T13:58:41Z</time>
      </trkpt>
      <trkpt lat="49.98088" lon="1.24303">
        <ele>115.8</ele>
        <time>2020-06-18T13:58:42Z</time>
      </trkpt>
      <trkpt lat="49.98089" lon="1.24314">
        <ele>115.7</ele>
        <time>2020-06-18T13:58:43Z</time>
      </trkpt>
      <trkpt lat="49.9809" lon="1.24325">
        <ele>115.7</ele>
        <time>2020-06-18T13:58:44Z</time>
      </trkpt>
      <trkpt lat="49.98091" lon="1.24336">
        <ele>115.6</ele>
        <time>2020-06-18T13:58:45Z</time>
      </trkpt>
      <trkpt lat="49.98093" lon="1.24347">
        <ele>115.6</ele>
        <time>2020-06-18T13:58:46Z</time>
      </trkpt>
      <trkpt lat="49.98094" lon="1.24357">
        <ele>115.6</ele>
        <time>2020-06-18T13:58:47Z</time>
      </trkpt>
      <trkpt lat="49.98095" lon="1.24367">
        <ele>115.6</ele>
        <time>2020-06-18T13:58:48Z</time>
      </trkpt>
      <trkpt lat="49.98097" lon="1.24377">
        <ele>115.6</ele>
        <time>2020-06-18T13:58:49Z</time>
      </trkpt>
      <trkpt lat="49.98098" lon="1.24387">
        <ele>115.5</ele>
        <time>2020-06-18T13:58:50Z</time>
      </trkpt>
      <trkpt lat="49.98098" lon="1.24398">
        <ele>115.4</ele>
        <time>2020-06-18T13:58:51Z</time>
      </trkpt>
      <trkpt lat="49.98099" lon="1.24408">
        <ele>115.3</ele>
        <time>2020-06-18T13:58:52Z</time>
      </trkpt>
      <trkpt lat="49.98101" lon="1.24418">
        <ele>115.2</ele>
        <time>2020-06-18T13:58:53Z</time>
      </trkpt>
      <trkpt lat="49.98102" lon="1.24427">
        <ele>115.1</ele>
        <time>2020-06-18T13:58:54Z</time>
      </trkpt>
      <trkpt lat="49.98103" lon="1.24438">
        <ele>115.1</ele>
        <time>2020-06-18T13:58:55Z</time>
      </trkpt>
      <trkpt lat="49.98103" lon="1.24447">
        <ele>115</ele>
        <time>2020-06-18T13:58:56Z</time>
      </trkpt>
      <trkpt lat="49.98103" lon="1.24457">
        <ele>114.9</ele>
        <time>2020-06-18T13:58:57Z</time>
      </trkpt>
      <trkpt lat="49.98102" lon="1.24468">
        <ele>114.9</ele>
        <time>2020-06-18T13:58:58Z</time>
      </trkpt>
      <trkpt lat="49.98101" lon="1.24478">
        <ele>114.8</ele>
        <time>2020-06-18T13:58:59Z</time>
      </trkpt>
      <trkpt lat="49.981" lon="1.24488">
        <ele>114.8</ele>
        <time>2020-06-18T13:59:00Z</time>
      </trkpt>
      <trkpt lat="49.98098" lon="1.24498">
        <ele>114.7</ele>
        <time>2020-06-18T13:59:01Z</time>
      </trkpt>
      <trkpt lat="49.98096" lon="1.24508">
        <ele>114.6</ele>
        <time>2020-06-18T13:59:02Z</time>
      </trkpt>
      <trkpt lat="49.98093" lon="1.24518">
        <ele>114.6</ele>
        <time>2020-06-18T13:59:03Z</time>
      </trkpt>
      <trkpt lat="49.9809" lon="1.24527">
        <ele>114.5</ele>
        <time>2020-06-18T13:59:04Z</time>
      </trkpt>
      <trkpt lat="49.98086" lon="1.24537">
        <ele>114.4</ele>
        <time>2020-06-18T13:59:05Z</time>
      </trkpt>
      <trkpt lat="49.98083" lon="1.24545">
        <ele>114.3</ele>
        <time>2020-06-18T13:59:06Z</time>
      </trkpt>
      <trkpt lat="49.98079" lon="1.24554">
        <ele>114.2</ele>
        <time>2020-06-18T13:59:07Z</time>
      </trkpt>
      <trkpt lat="49.98075" lon="1.24563">
        <ele>114.1</ele>
        <time>2020-06-18T13:59:08Z</time>
      </trkpt>
      <trkpt lat="49.9807" lon="1.2457">
        <ele>114.1</ele>
        <time>2020-06-18T13:59:09Z</time>
      </trkpt>
      <trkpt lat="49.98065" lon="1.24577">
        <ele>114</ele>
        <time>2020-06-18T13:59:10Z</time>
      </trkpt>
      <trkpt lat="49.9806" lon="1.24585">
        <ele>113.9</ele>
        <time>2020-06-18T13:59:11Z</time>
      </trkpt>
      <trkpt lat="49.98055" lon="1.24592">
        <ele>113.9</ele>
        <time>2020-06-18T13:59:12Z</time>
      </trkpt>
      <trkpt lat="49.98051" lon="1.24598">
        <ele>113.8</ele>
        <time>2020-06-18T13:59:13Z</time>
      </trkpt>
      <trkpt lat="49.98046" lon="1.24606">
        <ele>113.8</ele>
        <time>2020-06-18T13:59:14Z</time>
      </trkpt>
      <trkpt lat="49.98041" lon="1.24613">
        <ele>113.7</ele>
        <time>2020-06-18T13:59:15Z</time>
      </trkpt>
      <trkpt lat="49.98037" lon="1.24622">
        <ele>113.7</ele>
        <time>2020-06-18T13:59:16Z</time>
      </trkpt>
      <trkpt lat="49.98032" lon="1.24632">
        <ele>113.6</ele>
        <time>2020-06-18T13:59:17Z</time>
      </trkpt>
      <trkpt lat="49.9803" lon="1.24642">
        <ele>113.6</ele>
        <time>2020-06-18T13:59:18Z</time>
      </trkpt>
      <trkpt lat="49.9803" lon="1.24652">
        <ele>113.6</ele>
        <time>2020-06-18T13:59:19Z</time>
      </trkpt>
      <trkpt lat="49.98033" lon="1.24663">
        <ele>113.5</ele>
        <time>2020-06-18T13:59:20Z</time>
      </trkpt>
      <trkpt lat="49.98036" lon="1.2467">
        <ele>113.4</ele>
        <time>2020-06-18T13:59:21Z</time>
      </trkpt>
      <trkpt lat="49.98041" lon="1.24674">
        <ele>113.4</ele>
        <time>2020-06-18T13:59:22Z</time>
      </trkpt>
      <trkpt lat="49.98046" lon="1.2468">
        <ele>113.3</ele>
        <time>2020-06-18T13:59:23Z</time>
      </trkpt>
      <trkpt lat="49.9805" lon="1.24686">
        <ele>113.3</ele>
        <time>2020-06-18T13:59:24Z</time>
      </trkpt>
      <trkpt lat="49.98055" lon="1.24693">
        <ele>113.2</ele>
        <time>2020-06-18T13:59:25Z</time>
      </trkpt>
      <trkpt lat="49.9806" lon="1.24699">
        <ele>113.1</ele>
        <time>2020-06-18T13:59:26Z</time>
      </trkpt>
      <trkpt lat="49.98066" lon="1.24706">
        <ele>113</ele>
        <time>2020-06-18T13:59:27Z</time>
      </trkpt>
      <trkpt lat="49.98072" lon="1.24713">
        <ele>112.9</ele>
        <time>2020-06-18T13:59:28Z</time>
      </trkpt>
      <trkpt lat="49.98077" lon="1.24721">
        <ele>112.9</ele>
        <time>2020-06-18T13:59:29Z</time>
      </trkpt>
      <trkpt lat="49.98082" lon="1.24728">
        <ele>112.8</ele>
        <time>2020-06-18T13:59:30Z</time>
      </trkpt>
      <trkpt lat="49.98087" lon="1.24734">
        <ele>112.8</ele>
        <time>2020-06-18T13:59:31Z</time>
      </trkpt>
      <trkpt lat="49.98091" lon="1.24741">
        <ele>112.7</ele>
        <time>2020-06-18T13:59:32Z</time>
      </trkpt>
      <trkpt lat="49.98097" lon="1.24748">
        <ele>112.6</ele>
        <time>2020-06-18T13:59:33Z</time>
      </trkpt>
      <trkpt lat="49.98102" lon="1.24754">
        <ele>112.5</ele>
        <time>2020-06-18T13:59:34Z</time>
      </trkpt>
      <trkpt lat="49.98108" lon="1.24759">
        <ele>112.4</ele>
        <time>2020-06-18T13:59:35Z</time>
      </trkpt>
      <trkpt lat="49.98113" lon="1.24766">
        <ele>112.4</ele>
        <time>2020-06-18T13:59:36Z</time>
      </trkpt>
      <trkpt lat="49.98119" lon="1.24774">
        <ele>112.3</ele>
        <time>2020-06-18T13:59:37Z</time>
      </trkpt>
      <trkpt lat="49.98124" lon="1.24781">
        <ele>112.2</ele>
        <time>2020-06-18T13:59:38Z</time>
      </trkpt>
      <trkpt lat="49.98129" lon="1.24788">
        <ele>112.1</ele>
        <time>2020-06-18T13:59:39Z</time>
      </trkpt>
      <trkpt lat="49.98135" lon="1.24796">
        <ele>112</ele>
        <time>2020-06-18T13:59:40Z</time>
      </trkpt>
      <trkpt lat="49.98141" lon="1.24803">
        <ele>111.9</ele>
        <time>2020-06-18T13:59:41Z</time>
      </trkpt>
      <trkpt lat="49.98146" lon="1.2481">
        <ele>111.8</ele>
        <time>2020-06-18T13:59:42Z</time>
      </trkpt>
      <trkpt lat="49.98151" lon="1.24816">
        <ele>111.7</ele>
        <time>2020-06-18T13:59:43Z</time>
      </trkpt>
      <trkpt lat="49.98156" lon="1.24822">
        <ele>111.6</ele>
        <time>2020-06-18T13:59:44Z</time>
      </trkpt>
      <trkpt lat="49.98162" lon="1.24829">
        <ele>111.5</ele>
        <time>2020-06-18T13:59:45Z</time>
      </trkpt>
      <trkpt lat="49.98168" lon="1.24835">
        <ele>111.4</ele>
        <time>2020-06-18T13:59:46Z</time>
      </trkpt>
      <trkpt lat="49.98173" lon="1.2484">
        <ele>111.4</ele>
        <time>2020-06-18T13:59:47Z</time>
      </trkpt>
      <trkpt lat="49.98178" lon="1.24846">
        <ele>111.4</ele>
        <time>2020-06-18T13:59:48Z</time>
      </trkpt>
      <trkpt lat="49.98183" lon="1.24852">
        <ele>111.4</ele>
        <time>2020-06-18T13:59:49Z</time>
      </trkpt>
      <trkpt lat="49.98189" lon="1.24858">
        <ele>111.3</ele>
        <time>2020-06-18T13:59:50Z</time>
      </trkpt>
      <trkpt lat="49.98194" lon="1.24864">
        <ele>111.2</ele>
        <time>2020-06-18T13:59:51Z</time>
      </trkpt>
      <trkpt lat="49.98201" lon="1.2487">
        <ele>111.2</ele>
        <time>2020-06-18T13:59:52Z</time>
      </trkpt>
      <trkpt lat="49.98206" lon="1.24876">
        <ele>111.1</ele>
        <time>2020-06-18T13:59:53Z</time>
      </trkpt>
      <trkpt lat="49.98211" lon="1.24881">
        <ele>111.1</ele>
        <time>2020-06-18T13:59:54Z</time>
      </trkpt>
      <trkpt lat="49.98216" lon="1.24888">
        <ele>111</ele>
        <time>2020-06-18T13:59:55Z</time>
      </trkpt>
      <trkpt lat="49.98223" lon="1.24896">
        <ele>110.9</ele>
        <time>2020-06-18T13:59:56Z</time>
      </trkpt>
      <trkpt lat="49.98228" lon="1.24902">
        <ele>110.8</ele>
        <time>2020-06-18T13:59:57Z</time>
      </trkpt>
      <trkpt lat="49.98234" lon="1.24909">
        <ele>110.6</ele>
        <time>2020-06-18T13:59:58Z</time>
      </trkpt>
      <trkpt lat="49.9824" lon="1.24916">
        <ele>110.5</ele>
        <time>2020-06-18T13:59:59Z</time>
      </trkpt>
      <trkpt lat="49.98245" lon="1.24923">
        <ele>110.4</ele>
        <time>2020-06-18T14:00:00Z</time>
      </trkpt>
      <trkpt lat="49.98251" lon="1.24929">
        <ele>110.3</ele>
        <time>2020-06-18T14:00:01Z</time>
      </trkpt>
      <trkpt lat="49.98256" lon="1.24935">
        <ele>110.2</ele>
        <time>2020-06-18T14:00:02Z</time>
      </trkpt>
      <trkpt lat="49.98262" lon="1.24942">
        <ele>110.1</ele>
        <time>2020-06-18T14:00:03Z</time>
      </trkpt>
      <trkpt lat="49.98267" lon="1.24948">
        <ele>110</ele>
        <time>2020-06-18T14:00:04Z</time>
      </trkpt>
      <trkpt lat="49.98272" lon="1.24953">
        <ele>110</ele>
        <time>2020-06-18T14:00:05Z</time>
      </trkpt>
      <trkpt lat="49.98277" lon="1.2496">
        <ele>109.9</ele>
        <time>2020-06-18T14:00:06Z</time>
      </trkpt>
      <trkpt lat="49.98283" lon="1.24967">
        <ele>109.9</ele>
        <time>2020-06-18T14:00:07Z</time>
      </trkpt>
      <trkpt lat="49.98289" lon="1.24973">
        <ele>109.8</ele>
        <time>2020-06-18T14:00:08Z</time>
      </trkpt>
      <trkpt lat="49.98294" lon="1.24979">
        <ele>109.8</ele>
        <time>2020-06-18T14:00:09Z</time>
      </trkpt>
      <trkpt lat="49.98299" lon="1.24985">
        <ele>109.8</ele>
        <time>2020-06-18T14:00:10Z</time>
      </trkpt>
      <trkpt lat="49.98305" lon="1.24992">
        <ele>109.7</ele>
        <time>2020-06-18T14:00:11Z</time>
      </trkpt>
      <trkpt lat="49.9831" lon="1.24999">
        <ele>109.7</ele>
        <time>2020-06-18T14:00:12Z</time>
      </trkpt>
      <trkpt lat="49.98315" lon="1.25006">
        <ele>109.7</ele>
        <time>2020-06-18T14:00:13Z</time>
      </trkpt>
      <trkpt lat="49.98319" lon="1.25013">
        <ele>109.7</ele>
        <time>2020-06-18T14:00:14Z</time>
      </trkpt>
      <trkpt lat="49.98324" lon="1.2502">
        <ele>109.6</ele>
        <time>2020-06-18T14:00:15Z</time>
      </trkpt>
      <trkpt lat="49.98327" lon="1.25026">
        <ele>109.6</ele>
        <time>2020-06-18T14:00:16Z</time>
      </trkpt>
      <trkpt lat="49.98331" lon="1.25033">
        <ele>109.6</ele>
        <time>2020-06-18T14:00:17Z</time>
      </trkpt>
      <trkpt lat="49.98335" lon="1.25039">
        <ele>109.5</ele>
        <time>2020-06-18T14:00:18Z</time>
      </trkpt>
      <trkpt lat="49.9834" lon="1.25045">
        <ele>109.4</ele>
        <time>2020-06-18T14:00:19Z</time>
      </trkpt>
      <trkpt lat="49.98345" lon="1.25051">
        <ele>109.3</ele>
        <time>2020-06-18T14:00:20Z</time>
      </trkpt>
      <trkpt lat="49.98352" lon="1.25058">
        <ele>109.2</ele>
        <time>2020-06-18T14:00:21Z</time>
      </trkpt>
      <trkpt lat="49.98358" lon="1.25067">
        <ele>109.1</ele>
        <time>2020-06-18T14:00:22Z</time>
      </trkpt>
      <trkpt lat="49.98363" lon="1.25075">
        <ele>109</ele>
        <time>2020-06-18T14:00:23Z</time>
      </trkpt>
      <trkpt lat="49.98368" lon="1.25082">
        <ele>109</ele>
        <time>2020-06-18T14:00:24Z</time>
      </trkpt>
      <trkpt lat="49.98373" lon="1.2509">
        <ele>108.9</ele>
        <time>2020-06-18T14:00:25Z</time>
      </trkpt>
      <trkpt lat="49.98377" lon="1.25098">
        <ele>108.8</ele>
        <time>2020-06-18T14:00:26Z</time>
      </trkpt>
      <trkpt lat="49.98381" lon="1.25106">
        <ele>108.7</ele>
        <time>2020-06-18T14:00:27Z</time>
      </trkpt>
      <trkpt lat="49.98385" lon="1.25115">
        <ele>108.6</ele>
        <time>2020-06-18T14:00:28Z</time>
      </trkpt>
      <trkpt lat="49.98389" lon="1.25124">
        <ele>108.5</ele>
        <time>2020-06-18T14:00:29Z</time>
      </trkpt>
      <trkpt lat="49.98393" lon="1.25133">
        <ele>108.5</ele>
        <time>2020-06-18T14:00:30Z</time>
      </trkpt>
      <trkpt lat="49.98397" lon="1.25141">
        <ele>108.4</ele>
        <time>2020-06-18T14:00:31Z</time>
      </trkpt>
      <trkpt lat="49.98401" lon="1.25148">
        <ele>108.4</ele>
        <time>2020-06-18T14:00:32Z</time>
      </trkpt>
      <trkpt lat="49.98405" lon="1.25157">
        <ele>108.4</ele>
        <time>2020-06-18T14:00:33Z</time>
      </trkpt>
      <trkpt lat="49.98409" lon="1.25165">
        <ele>108.4</ele>
        <time>2020-06-18T14:00:34Z</time>
      </trkpt>
      <trkpt lat="49.98413" lon="1.25174">
        <ele>108.3</ele>
        <time>2020-06-18T14:00:35Z</time>
      </trkpt>
      <trkpt lat="49.98417" lon="1.25183">
        <ele>108.3</ele>
        <time>2020-06-18T14:00:36Z</time>
      </trkpt>
      <trkpt lat="49.98421" lon="1.25192">
        <ele>108.3</ele>
        <time>2020-06-18T14:00:37Z</time>
      </trkpt>
      <trkpt lat="49.98425" lon="1.252">
        <ele>108.2</ele>
        <time>2020-06-18T14:00:38Z</time>
      </trkpt>
      <trkpt lat="49.98429" lon="1.25208">
        <ele>108.2</ele>
        <time>2020-06-18T14:00:39Z</time>
      </trkpt>
      <trkpt lat="49.98432" lon="1.25217">
        <ele>108.1</ele>
        <time>2020-06-18T14:00:40Z</time>
      </trkpt>
      <trkpt lat="49.98436" lon="1.25225">
        <ele>108.1</ele>
        <time>2020-06-18T14:00:41Z</time>
      </trkpt>
      <trkpt lat="49.98441" lon="1.25234">
        <ele>108</ele>
        <time>2020-06-18T14:00:42Z</time>
      </trkpt>
      <trkpt lat="49.98445" lon="1.25242">
        <ele>107.9</ele>
        <time>2020-06-18T14:00:43Z</time>
      </trkpt>
      <trkpt lat="49.9845" lon="1.25251">
        <ele>107.9</ele>
        <time>2020-06-18T14:00:44Z</time>
      </trkpt>
      <trkpt lat="49.98455" lon="1.25259">
        <ele>107.8</ele>
        <time>2020-06-18T14:00:45Z</time>
      </trkpt>
      <trkpt lat="49.9846" lon="1.25267">
        <ele>107.7</ele>
        <time>2020-06-18T14:00:46Z</time>
      </trkpt>
      <trkpt lat="49.98465" lon="1.25275">
        <ele>107.6</ele>
        <time>2020-06-18T14:00:47Z</time>
      </trkpt>
      <trkpt lat="49.9847" lon="1.25283">
        <ele>107.5</ele>
        <time>2020-06-18T14:00:48Z</time>
      </trkpt>
      <trkpt lat="49.98475" lon="1.25291">
        <ele>107.5</ele>
        <time>2020-06-18T14:00:49Z</time>
      </trkpt>
      <trkpt lat="49.9848" lon="1.25299">
        <ele>107.4</ele>
        <time>2020-06-18T14:00:50Z</time>
      </trkpt>
      <trkpt lat="49.98486" lon="1.25308">
        <ele>107.4</ele>
        <time>2020-06-18T14:00:51Z</time>
      </trkpt>
      <trkpt lat="49.98491" lon="1.25315">
        <ele>107.3</ele>
        <time>2020-06-18T14:00:52Z</time>
      </trkpt>
      <trkpt lat="49.98495" lon="1.25324">
        <ele>107.3</ele>
        <time>2020-06-18T14:00:53Z</time>
      </trkpt>
      <trkpt lat="49.985" lon="1.25332">
        <ele>107.2</ele>
        <time>2020-06-18T14:00:54Z</time>
      </trkpt>
      <trkpt lat="49.98505" lon="1.2534">
        <ele>107.1</ele>
        <time>2020-06-18T14:00:55Z</time>
      </trkpt>
      <trkpt lat="49.9851" lon="1.25346">
        <ele>107.1</ele>
        <time>2020-06-18T14:00:56Z</time>
      </trkpt>
      <trkpt lat="49.98515" lon="1.25354">
        <ele>107.1</ele>
        <time>2020-06-18T14:00:57Z</time>
      </trkpt>
      <trkpt lat="49.98521" lon="1.25363">
        <ele>107</ele>
        <time>2020-06-18T14:00:58Z</time>
      </trkpt>
      <trkpt lat="49.98527" lon="1.2537">
        <ele>107</ele>
        <time>2020-06-18T14:00:59Z</time>
      </trkpt>
      <trkpt lat="49.98533" lon="1.25378">
        <ele>106.8</ele>
        <time>2020-06-18T14:01:00Z</time>
      </trkpt>
      <trkpt lat="49.98539" lon="1.25385">
        <ele>106.7</ele>
        <time>2020-06-18T14:01:01Z</time>
      </trkpt>
      <trkpt lat="49.98544" lon="1.25393">
        <ele>106.6</ele>
        <time>2020-06-18T14:01:02Z</time>
      </trkpt>
      <trkpt lat="49.98549" lon="1.25399">
        <ele>106.5</ele>
        <time>2020-06-18T14:01:03Z</time>
      </trkpt>
      <trkpt lat="49.98554" lon="1.25407">
        <ele>106.4</ele>
        <time>2020-06-18T14:01:04Z</time>
      </trkpt>
      <trkpt lat="49.98559" lon="1.25414">
        <ele>106.3</ele>
        <time>2020-06-18T14:01:05Z</time>
      </trkpt>
      <trkpt lat="49.98563" lon="1.25421">
        <ele>106.2</ele>
        <time>2020-06-18T14:01:06Z</time>
      </trkpt>
      <trkpt lat="49.98569" lon="1.25428">
        <ele>106.1</ele>
        <time>2020-06-18T14:01:07Z</time>
      </trkpt>
      <trkpt lat="49.98573" lon="1.25434">
        <ele>106.1</ele>
        <time>2020-06-18T14:01:08Z</time>
      </trkpt>
      <trkpt lat="49.98578" lon="1.25441">
        <ele>106</ele>
        <time>2020-06-18T14:01:09Z</time>
      </trkpt>
      <trkpt lat="49.98583" lon="1.25447">
        <ele>105.9</ele>
        <time>2020-06-18T14:01:10Z</time>
      </trkpt>
      <trkpt lat="49.98588" lon="1.25454">
        <ele>105.9</ele>
        <time>2020-06-18T14:01:11Z</time>
      </trkpt>
      <trkpt lat="49.98593" lon="1.2546">
        <ele>105.8</ele>
        <time>2020-06-18T14:01:12Z</time>
      </trkpt>
      <trkpt lat="49.98598" lon="1.25466">
        <ele>105.8</ele>
        <time>2020-06-18T14:01:13Z</time>
      </trkpt>
      <trkpt lat="49.98602" lon="1.25472">
        <ele>105.8</ele>
        <time>2020-06-18T14:01:14Z</time>
      </trkpt>
      <trkpt lat="49.98606" lon="1.25479">
        <ele>105.8</ele>
        <time>2020-06-18T14:01:15Z</time>
      </trkpt>
      <trkpt lat="49.9861" lon="1.25486">
        <ele>105.7</ele>
        <time>2020-06-18T14:01:16Z</time>
      </trkpt>
      <trkpt lat="49.98615" lon="1.25492">
        <ele>105.7</ele>
        <time>2020-06-18T14:01:17Z</time>
      </trkpt>
      <trkpt lat="49.98619" lon="1.25499">
        <ele>105.7</ele>
        <time>2020-06-18T14:01:18Z</time>
      </trkpt>
      <trkpt lat="49.98623" lon="1.25506">
        <ele>105.7</ele>
        <time>2020-06-18T14:01:19Z</time>
      </trkpt>
      <trkpt lat="49.98627" lon="1.25513">
        <ele>105.7</ele>
        <time>2020-06-18T14:01:20Z</time>
      </trkpt>
      <trkpt lat="49.98631" lon="1.25518">
        <ele>105.7</ele>
        <time>2020-06-18T14:01:21Z</time>
      </trkpt>
      <trkpt lat="49.98636" lon="1.25524">
        <ele>105.6</ele>
        <time>2020-06-18T14:01:22Z</time>
      </trkpt>
      <trkpt lat="49.98641" lon="1.2553">
        <ele>105.5</ele>
        <time>2020-06-18T14:01:23Z</time>
      </trkpt>
      <trkpt lat="49.98646" lon="1.25536">
        <ele>105.4</ele>
        <time>2020-06-18T14:01:24Z</time>
      </trkpt>
      <trkpt lat="49.98651" lon="1.25541">
        <ele>105.3</ele>
        <time>2020-06-18T14:01:25Z</time>
      </trkpt>
      <trkpt lat="49.98655" lon="1.25547">
        <ele>105.2</ele>
        <time>2020-06-18T14:01:26Z</time>
      </trkpt>
      <trkpt lat="49.9866" lon="1.25552">
        <ele>105.1</ele>
        <time>2020-06-18T14:01:27Z</time>
      </trkpt>
      <trkpt lat="49.98665" lon="1.25558">
        <ele>104.9</ele>
        <time>2020-06-18T14:01:28Z</time>
      </trkpt>
      <trkpt lat="49.9867" lon="1.25563">
        <ele>104.8</ele>
        <time>2020-06-18T14:01:29Z</time>
      </trkpt>
      <trkpt lat="49.98675" lon="1.2557">
        <ele>104.6</ele>
        <time>2020-06-18T14:01:30Z</time>
      </trkpt>
      <trkpt lat="49.98681" lon="1.25577">
        <ele>104.4</ele>
        <time>2020-06-18T14:01:31Z</time>
      </trkpt>
      <trkpt lat="49.98687" lon="1.25586">
        <ele>104.2</ele>
        <time>2020-06-18T14:01:32Z</time>
      </trkpt>
      <trkpt lat="49.98694" lon="1.25595">
        <ele>104.1</ele>
        <time>2020-06-18T14:01:33Z</time>
      </trkpt>
      <trkpt lat="49.98699" lon="1.25604">
        <ele>103.9</ele>
        <time>2020-06-18T14:01:34Z</time>
      </trkpt>
      <trkpt lat="49.98705" lon="1.25612">
        <ele>103.7</ele>
        <time>2020-06-18T14:01:35Z</time>
      </trkpt>
      <trkpt lat="49.9871" lon="1.25621">
        <ele>103.5</ele>
        <time>2020-06-18T14:01:36Z</time>
      </trkpt>
      <trkpt lat="49.98716" lon="1.2563">
        <ele>103.3</ele>
        <time>2020-06-18T14:01:37Z</time>
      </trkpt>
      <trkpt lat="49.98721" lon="1.25638">
        <ele>103.1</ele>
        <time>2020-06-18T14:01:38Z</time>
      </trkpt>
      <trkpt lat="49.98726" lon="1.25648">
        <ele>102.9</ele>
        <time>2020-06-18T14:01:39Z</time>
      </trkpt>
      <trkpt lat="49.98731" lon="1.25658">
        <ele>102.7</ele>
        <time>2020-06-18T14:01:40Z</time>
      </trkpt>
      <trkpt lat="49.98737" lon="1.25668">
        <ele>102.5</ele>
        <time>2020-06-18T14:01:41Z</time>
      </trkpt>
      <trkpt lat="49.98742" lon="1.25678">
        <ele>102.3</ele>
        <time>2020-06-18T14:01:42Z</time>
      </trkpt>
      <trkpt lat="49.98747" lon="1.25687">
        <ele>102</ele>
        <time>2020-06-18T14:01:43Z</time>
      </trkpt>
      <trkpt lat="49.98752" lon="1.25696">
        <ele>101.8</ele>
        <time>2020-06-18T14:01:44Z</time>
      </trkpt>
      <trkpt lat="49.98757" lon="1.25706">
        <ele>101.6</ele>
        <time>2020-06-18T14:01:45Z</time>
      </trkpt>
      <trkpt lat="49.98762" lon="1.25715">
        <ele>101.4</ele>
        <time>2020-06-18T14:01:46Z</time>
      </trkpt>
      <trkpt lat="49.98767" lon="1.25723">
        <ele>101.3</ele>
        <time>2020-06-18T14:01:47Z</time>
      </trkpt>
      <trkpt lat="49.98772" lon="1.25732">
        <ele>101.1</ele>
        <time>2020-06-18T14:01:48Z</time>
      </trkpt>
      <trkpt lat="49.98777" lon="1.2574">
        <ele>100.9</ele>
        <time>2020-06-18T14:01:49Z</time>
      </trkpt>
      <trkpt lat="49.98782" lon="1.25748">
        <ele>100.6</ele>
        <time>2020-06-18T14:01:50Z</time>
      </trkpt>
      <trkpt lat="49.98787" lon="1.25757">
        <ele>100.4</ele>
        <time>2020-06-18T14:01:51Z</time>
      </trkpt>
      <trkpt lat="49.98792" lon="1.25764">
        <ele>100.2</ele>
        <time>2020-06-18T14:01:52Z</time>
      </trkpt>
      <trkpt lat="49.98797" lon="1.25772">
        <ele>100</ele>
        <time>2020-06-18T14:01:53Z</time>
      </trkpt>
      <trkpt lat="49.98803" lon="1.2578">
        <ele>99.8</ele>
        <time>2020-06-18T14:01:54Z</time>
      </trkpt>
      <trkpt lat="49.98807" lon="1.25788">
        <ele>99.6</ele>
        <time>2020-06-18T14:01:55Z</time>
      </trkpt>
      <trkpt lat="49.98812" lon="1.25796">
        <ele>99.4</ele>
        <time>2020-06-18T14:01:56Z</time>
      </trkpt>
      <trkpt lat="49.98817" lon="1.25806">
        <ele>99.2</ele>
        <time>2020-06-18T14:01:57Z</time>
      </trkpt>
      <trkpt lat="49.98822" lon="1.25815">
        <ele>99.1</ele>
        <time>2020-06-18T14:01:58Z</time>
      </trkpt>
      <trkpt lat="49.98827" lon="1.25825">
        <ele>98.9</ele>
        <time>2020-06-18T14:01:59Z</time>
      </trkpt>
      <trkpt lat="49.98831" lon="1.25835">
        <ele>98.7</ele>
        <time>2020-06-18T14:02:00Z</time>
      </trkpt>
      <trkpt lat="49.98835" lon="1.25845">
        <ele>98.5</ele>
        <time>2020-06-18T14:02:01Z</time>
      </trkpt>
      <trkpt lat="49.98839" lon="1.25855">
        <ele>98.3</ele>
        <time>2020-06-18T14:02:02Z</time>
      </trkpt>
      <trkpt lat="49.98843" lon="1.25866">
        <ele>98.2</ele>
        <time>2020-06-18T14:02:03Z</time>
      </trkpt>
      <trkpt lat="49.98848" lon="1.25877">
        <ele>98</ele>
        <time>2020-06-18T14:02:04Z</time>
      </trkpt>
      <trkpt lat="49.98853" lon="1.25887">
        <ele>97.8</ele>
        <time>2020-06-18T14:02:05Z</time>
      </trkpt>
      <trkpt lat="49.98857" lon="1.25898">
        <ele>97.6</ele>
        <time>2020-06-18T14:02:06Z</time>
      </trkpt>
      <trkpt lat="49.98862" lon="1.25908">
        <ele>97.4</ele>
        <time>2020-06-18T14:02:07Z</time>
      </trkpt>
      <trkpt lat="49.98867" lon="1.25917">
        <ele>97.2</ele>
        <time>2020-06-18T14:02:08Z</time>
      </trkpt>
      <trkpt lat="49.98872" lon="1.25927">
        <ele>97.1</ele>
        <time>2020-06-18T14:02:09Z</time>
      </trkpt>
      <trkpt lat="49.98878" lon="1.25936">
        <ele>97</ele>
        <time>2020-06-18T14:02:10Z</time>
      </trkpt>
      <trkpt lat="49.98883" lon="1.25946">
        <ele>96.9</ele>
        <time>2020-06-18T14:02:11Z</time>
      </trkpt>
      <trkpt lat="49.98888" lon="1.25955">
        <ele>96.7</ele>
        <time>2020-06-18T14:02:12Z</time>
      </trkpt>
      <trkpt lat="49.98894" lon="1.25965">
        <ele>96.6</ele>
        <time>2020-06-18T14:02:13Z</time>
      </trkpt>
      <trkpt lat="49.989" lon="1.25975">
        <ele>96.4</ele>
        <time>2020-06-18T14:02:14Z</time>
      </trkpt>
      <trkpt lat="49.98905" lon="1.25984">
        <ele>96.3</ele>
        <time>2020-06-18T14:02:15Z</time>
      </trkpt>
      <trkpt lat="49.98911" lon="1.25992">
        <ele>96.2</ele>
        <time>2020-06-18T14:02:16Z</time>
      </trkpt>
      <trkpt lat="49.98916" lon="1.26002">
        <ele>96.1</ele>
        <time>2020-06-18T14:02:17Z</time>
      </trkpt>
      <trkpt lat="49.98922" lon="1.2601">
        <ele>96</ele>
        <time>2020-06-18T14:02:18Z</time>
      </trkpt>
      <trkpt lat="49.98928" lon="1.26019">
        <ele>96</ele>
        <time>2020-06-18T14:02:19Z</time>
      </trkpt>
      <trkpt lat="49.98933" lon="1.26028">
        <ele>95.9</ele>
        <time>2020-06-18T14:02:20Z</time>
      </trkpt>
      <trkpt lat="49.98938" lon="1.26037">
        <ele>95.9</ele>
        <time>2020-06-18T14:02:21Z</time>
      </trkpt>
      <trkpt lat="49.98944" lon="1.26046">
        <ele>95.9</ele>
        <time>2020-06-18T14:02:22Z</time>
      </trkpt>
      <trkpt lat="49.98949" lon="1.26054">
        <ele>95.9</ele>
        <time>2020-06-18T14:02:23Z</time>
      </trkpt>
      <trkpt lat="49.98954" lon="1.26062">
        <ele>95.8</ele>
        <time>2020-06-18T14:02:24Z</time>
      </trkpt>
      <trkpt lat="49.9896" lon="1.26071">
        <ele>95.7</ele>
        <time>2020-06-18T14:02:25Z</time>
      </trkpt>
      <trkpt lat="49.98966" lon="1.26079">
        <ele>95.7</ele>
        <time>2020-06-18T14:02:26Z</time>
      </trkpt>
      <trkpt lat="49.98971" lon="1.26088">
        <ele>95.7</ele>
        <time>2020-06-18T14:02:27Z</time>
      </trkpt>
      <trkpt lat="49.98977" lon="1.26096">
        <ele>95.6</ele>
        <time>2020-06-18T14:02:28Z</time>
      </trkpt>
      <trkpt lat="49.98982" lon="1.26105">
        <ele>95.5</ele>
        <time>2020-06-18T14:02:29Z</time>
      </trkpt>
      <trkpt lat="49.98987" lon="1.26114">
        <ele>95.5</ele>
        <time>2020-06-18T14:02:30Z</time>
      </trkpt>
      <trkpt lat="49.98992" lon="1.26123">
        <ele>95.4</ele>
        <time>2020-06-18T14:02:31Z</time>
      </trkpt>
      <trkpt lat="49.98997" lon="1.26132">
        <ele>95.3</ele>
        <time>2020-06-18T14:02:32Z</time>
      </trkpt>
      <trkpt lat="49.99003" lon="1.2614">
        <ele>95.2</ele>
        <time>2020-06-18T14:02:33Z</time>
      </trkpt>
      <trkpt lat="49.99008" lon="1.26149">
        <ele>95.1</ele>
        <time>2020-06-18T14:02:34Z</time>
      </trkpt>
      <trkpt lat="49.99012" lon="1.26158">
        <ele>95</ele>
        <time>2020-06-18T14:02:35Z</time>
      </trkpt>
      <trkpt lat="49.99017" lon="1.26168">
        <ele>94.9</ele>
        <time>2020-06-18T14:02:36Z</time>
      </trkpt>
      <trkpt lat="49.99022" lon="1.26178">
        <ele>94.8</ele>
        <time>2020-06-18T14:02:37Z</time>
      </trkpt>
      <trkpt lat="49.99027" lon="1.26188">
        <ele>94.6</ele>
        <time>2020-06-18T14:02:38Z</time>
      </trkpt>
      <trkpt lat="49.99032" lon="1.26198">
        <ele>94.5</ele>
        <time>2020-06-18T14:02:39Z</time>
      </trkpt>
      <trkpt lat="49.99036" lon="1.26209">
        <ele>94.5</ele>
        <time>2020-06-18T14:02:40Z</time>
      </trkpt>
      <trkpt lat="49.9904" lon="1.26218">
        <ele>94.5</ele>
        <time>2020-06-18T14:02:41Z</time>
      </trkpt>
      <trkpt lat="49.99045" lon="1.26227">
        <ele>94.4</ele>
        <time>2020-06-18T14:02:42Z</time>
      </trkpt>
      <trkpt lat="49.9905" lon="1.26236">
        <ele>94.4</ele>
        <time>2020-06-18T14:02:43Z</time>
      </trkpt>
      <trkpt lat="49.99055" lon="1.26244">
        <ele>94.3</ele>
        <time>2020-06-18T14:02:44Z</time>
      </trkpt>
      <trkpt lat="49.99059" lon="1.26254">
        <ele>94.3</ele>
        <time>2020-06-18T14:02:45Z</time>
      </trkpt>
      <trkpt lat="49.99062" lon="1.26263">
        <ele>94.2</ele>
        <time>2020-06-18T14:02:46Z</time>
      </trkpt>
      <trkpt lat="49.99066" lon="1.26272">
        <ele>94.1</ele>
        <time>2020-06-18T14:02:47Z</time>
      </trkpt>
      <trkpt lat="49.9907" lon="1.26281">
        <ele>94.1</ele>
        <time>2020-06-18T14:02:48Z</time>
      </trkpt>
      <trkpt lat="49.99074" lon="1.26291">
        <ele>94</ele>
        <time>2020-06-18T14:02:49Z</time>
      </trkpt>
      <trkpt lat="49.99079" lon="1.26299">
        <ele>94</ele>
        <time>2020-06-18T14:02:50Z</time>
      </trkpt>
      <trkpt lat="49.99084" lon="1.2631">
        <ele>93.9</ele>
        <time>2020-06-18T14:02:51Z</time>
      </trkpt>
      <trkpt lat="49.99088" lon="1.26319">
        <ele>93.9</ele>
        <time>2020-06-18T14:02:52Z</time>
      </trkpt>
      <trkpt lat="49.99093" lon="1.26328">
        <ele>93.8</ele>
        <time>2020-06-18T14:02:53Z</time>
      </trkpt>
      <trkpt lat="49.99097" lon="1.26337">
        <ele>93.8</ele>
        <time>2020-06-18T14:02:54Z</time>
      </trkpt>
      <trkpt lat="49.99102" lon="1.26346">
        <ele>93.7</ele>
        <time>2020-06-18T14:02:55Z</time>
      </trkpt>
      <trkpt lat="49.99106" lon="1.26356">
        <ele>93.7</ele>
        <time>2020-06-18T14:02:56Z</time>
      </trkpt>
      <trkpt lat="49.9911" lon="1.26366">
        <ele>93.6</ele>
        <time>2020-06-18T14:02:57Z</time>
      </trkpt>
      <trkpt lat="49.99114" lon="1.26376">
        <ele>93.6</ele>
        <time>2020-06-18T14:02:58Z</time>
      </trkpt>
      <trkpt lat="49.99119" lon="1.26386">
        <ele>93.5</ele>
        <time>2020-06-18T14:02:59Z</time>
      </trkpt>
      <trkpt lat="49.99123" lon="1.26396">
        <ele>93.4</ele>
        <time>2020-06-18T14:03:00Z</time>
      </trkpt>
      <trkpt lat="49.99128" lon="1.26406">
        <ele>93.4</ele>
        <time>2020-06-18T14:03:01Z</time>
      </trkpt>
      <trkpt lat="49.99132" lon="1.26415">
        <ele>93.3</ele>
        <time>2020-06-18T14:03:02Z</time>
      </trkpt>
      <trkpt lat="49.99137" lon="1.26425">
        <ele>93.3</ele>
        <time>2020-06-18T14:03:03Z</time>
      </trkpt>
      <trkpt lat="49.99141" lon="1.26435">
        <ele>93.2</ele>
        <time>2020-06-18T14:03:04Z</time>
      </trkpt>
      <trkpt lat="49.99146" lon="1.26444">
        <ele>93.1</ele>
        <time>2020-06-18T14:03:05Z</time>
      </trkpt>
      <trkpt lat="49.9915" lon="1.26454">
        <ele>93</ele>
        <time>2020-06-18T14:03:06Z</time>
      </trkpt>
      <trkpt lat="49.99154" lon="1.26464">
        <ele>93</ele>
        <time>2020-06-18T14:03:07Z</time>
      </trkpt>
      <trkpt lat="49.99159" lon="1.26475">
        <ele>92.9</ele>
        <time>2020-06-18T14:03:08Z</time>
      </trkpt>
      <trkpt lat="49.99163" lon="1.26486">
        <ele>92.9</ele>
        <time>2020-06-18T14:03:09Z</time>
      </trkpt>
      <trkpt lat="49.99167" lon="1.26496">
        <ele>92.8</ele>
        <time>2020-06-18T14:03:10Z</time>
      </trkpt>
      <trkpt lat="49.99171" lon="1.26506">
        <ele>92.8</ele>
        <time>2020-06-18T14:03:11Z</time>
      </trkpt>
      <trkpt lat="49.99175" lon="1.26515">
        <ele>92.9</ele>
        <time>2020-06-18T14:03:12Z</time>
      </trkpt>
      <trkpt lat="49.9918" lon="1.26524">
        <ele>93</ele>
        <time>2020-06-18T14:03:13Z</time>
      </trkpt>
      <trkpt lat="49.99184" lon="1.26532">
        <ele>93</ele>
        <time>2020-06-18T14:03:14Z</time>
      </trkpt>
      <trkpt lat="49.99189" lon="1.2654">
        <ele>93.1</ele>
        <time>2020-06-18T14:03:15Z</time>
      </trkpt>
      <trkpt lat="49.99193" lon="1.26549">
        <ele>93</ele>
        <time>2020-06-18T14:03:16Z</time>
      </trkpt>
      <trkpt lat="49.99197" lon="1.26558">
        <ele>92.9</ele>
        <time>2020-06-18T14:03:17Z</time>
      </trkpt>
      <trkpt lat="49.99202" lon="1.26567">
        <ele>92.8</ele>
        <time>2020-06-18T14:03:18Z</time>
      </trkpt>
      <trkpt lat="49.99206" lon="1.26578">
        <ele>92.8</ele>
        <time>2020-06-18T14:03:19Z</time>
      </trkpt>
      <trkpt lat="49.99211" lon="1.26588">
        <ele>92.7</ele>
        <time>2020-06-18T14:03:20Z</time>
      </trkpt>
      <trkpt lat="49.99215" lon="1.26597">
        <ele>92.7</ele>
        <time>2020-06-18T14:03:21Z</time>
      </trkpt>
      <trkpt lat="49.99219" lon="1.26607">
        <ele>92.7</ele>
        <time>2020-06-18T14:03:22Z</time>
      </trkpt>
      <trkpt lat="49.99224" lon="1.26615">
        <ele>92.7</ele>
        <time>2020-06-18T14:03:23Z</time>
      </trkpt>
      <trkpt lat="49.99229" lon="1.26623">
        <ele>92.6</ele>
        <time>2020-06-18T14:03:24Z</time>
      </trkpt>
      <trkpt lat="49.99234" lon="1.26632">
        <ele>92.6</ele>
        <time>2020-06-18T14:03:25Z</time>
      </trkpt>
      <trkpt lat="49.99238" lon="1.26639">
        <ele>92.5</ele>
        <time>2020-06-18T14:03:26Z</time>
      </trkpt>
      <trkpt lat="49.99242" lon="1.26647">
        <ele>92.5</ele>
        <time>2020-06-18T14:03:27Z</time>
      </trkpt>
      <trkpt lat="49.99245" lon="1.26658">
        <ele>92.4</ele>
        <time>2020-06-18T14:03:28Z</time>
      </trkpt>
      <trkpt lat="49.99249" lon="1.26667">
        <ele>92.3</ele>
        <time>2020-06-18T14:03:29Z</time>
      </trkpt>
      <trkpt lat="49.99254" lon="1.26676">
        <ele>92.3</ele>
        <time>2020-06-18T14:03:30Z</time>
      </trkpt>
      <trkpt lat="49.99258" lon="1.26686">
        <ele>92.2</ele>
        <time>2020-06-18T14:03:31Z</time>
      </trkpt>
      <trkpt lat="49.99264" lon="1.26696">
        <ele>92.2</ele>
        <time>2020-06-18T14:03:32Z</time>
      </trkpt>
      <trkpt lat="49.99268" lon="1.26706">
        <ele>92.2</ele>
        <time>2020-06-18T14:03:33Z</time>
      </trkpt>
      <trkpt lat="49.99272" lon="1.26715">
        <ele>92.1</ele>
        <time>2020-06-18T14:03:34Z</time>
      </trkpt>
      <trkpt lat="49.99276" lon="1.26724">
        <ele>92.1</ele>
        <time>2020-06-18T14:03:35Z</time>
      </trkpt>
      <trkpt lat="49.9928" lon="1.26734">
        <ele>92</ele>
        <time>2020-06-18T14:03:36Z</time>
      </trkpt>
      <trkpt lat="49.99284" lon="1.26744">
        <ele>92</ele>
        <time>2020-06-18T14:03:37Z</time>
      </trkpt>
      <trkpt lat="49.99288" lon="1.26753">
        <ele>92</ele>
        <time>2020-06-18T14:03:38Z</time>
      </trkpt>
      <trkpt lat="49.99292" lon="1.26762">
        <ele>91.9</ele>
        <time>2020-06-18T14:03:39Z</time>
      </trkpt>
      <trkpt lat="49.99297" lon="1.26771">
        <ele>91.9</ele>
        <time>2020-06-18T14:03:40Z</time>
      </trkpt>
      <trkpt lat="49.99302" lon="1.26781">
        <ele>91.9</ele>
        <time>2020-06-18T14:03:41Z</time>
      </trkpt>
      <trkpt lat="49.99307" lon="1.2679">
        <ele>91.9</ele>
        <time>2020-06-18T14:03:42Z</time>
      </trkpt>
      <trkpt lat="49.99311" lon="1.268">
        <ele>91.9</ele>
        <time>2020-06-18T14:03:43Z</time>
      </trkpt>
      <trkpt lat="49.99316" lon="1.26811">
        <ele>91.8</ele>
        <time>2020-06-18T14:03:44Z</time>
      </trkpt>
      <trkpt lat="49.99321" lon="1.26821">
        <ele>91.8</ele>
        <time>2020-06-18T14:03:45Z</time>
      </trkpt>
      <trkpt lat="49.99325" lon="1.26829">
        <ele>91.8</ele>
        <time>2020-06-18T14:03:46Z</time>
      </trkpt>
      <trkpt lat="49.99329" lon="1.26837">
        <ele>91.8</ele>
        <time>2020-06-18T14:03:47Z</time>
      </trkpt>
      <trkpt lat="49.99333" lon="1.26847">
        <ele>91.7</ele>
        <time>2020-06-18T14:03:48Z</time>
      </trkpt>
      <trkpt lat="49.99337" lon="1.26857">
        <ele>91.7</ele>
        <time>2020-06-18T14:03:49Z</time>
      </trkpt>
      <trkpt lat="49.99342" lon="1.26867">
        <ele>91.6</ele>
        <time>2020-06-18T14:03:50Z</time>
      </trkpt>
      <trkpt lat="49.99346" lon="1.26877">
        <ele>91.6</ele>
        <time>2020-06-18T14:03:51Z</time>
      </trkpt>
      <trkpt lat="49.99351" lon="1.26888">
        <ele>91.5</ele>
        <time>2020-06-18T14:03:52Z</time>
      </trkpt>
      <trkpt lat="49.99357" lon="1.26898">
        <ele>91.4</ele>
        <time>2020-06-18T14:03:53Z</time>
      </trkpt>
      <trkpt lat="49.99361" lon="1.26909">
        <ele>91.4</ele>
        <time>2020-06-18T14:03:54Z</time>
      </trkpt>
      <trkpt lat="49.99366" lon="1.26919">
        <ele>91.4</ele>
        <time>2020-06-18T14:03:55Z</time>
      </trkpt>
      <trkpt lat="49.99371" lon="1.26928">
        <ele>91.4</ele>
        <time>2020-06-18T14:03:56Z</time>
      </trkpt>
      <trkpt lat="49.99375" lon="1.26937">
        <ele>91.4</ele>
        <time>2020-06-18T14:03:57Z</time>
      </trkpt>
      <trkpt lat="49.9938" lon="1.26946">
        <ele>91.4</ele>
        <time>2020-06-18T14:03:58Z</time>
      </trkpt>
      <trkpt lat="49.99385" lon="1.26955">
        <ele>91.3</ele>
        <time>2020-06-18T14:03:59Z</time>
      </trkpt>
      <trkpt lat="49.99389" lon="1.26965">
        <ele>91.3</ele>
        <time>2020-06-18T14:04:00Z</time>
      </trkpt>
      <trkpt lat="49.99394" lon="1.26974">
        <ele>91.2</ele>
        <time>2020-06-18T14:04:01Z</time>
      </trkpt>
      <trkpt lat="49.99398" lon="1.26983">
        <ele>91.2</ele>
        <time>2020-06-18T14:04:02Z</time>
      </trkpt>
      <trkpt lat="49.99403" lon="1.26992">
        <ele>91.2</ele>
        <time>2020-06-18T14:04:03Z</time>
      </trkpt>
      <trkpt lat="49.99407" lon="1.27002">
        <ele>91.2</ele>
        <time>2020-06-18T14:04:04Z</time>
      </trkpt>
      <trkpt lat="49.99412" lon="1.2701">
        <ele>91.2</ele>
        <time>2020-06-18T14:04:05Z</time>
      </trkpt>
      <trkpt lat="49.99416" lon="1.27019">
        <ele>91.2</ele>
        <time>2020-06-18T14:04:06Z</time>
      </trkpt>
      <trkpt lat="49.99419" lon="1.27027">
        <ele>91.2</ele>
        <time>2020-06-18T14:04:07Z</time>
      </trkpt>
      <trkpt lat="49.99422" lon="1.27036">
        <ele>91.2</ele>
        <time>2020-06-18T14:04:08Z</time>
      </trkpt>
      <trkpt lat="49.99426" lon="1.27045">
        <ele>91.1</ele>
        <time>2020-06-18T14:04:09Z</time>
      </trkpt>
      <trkpt lat="49.99431" lon="1.27054">
        <ele>91.1</ele>
        <time>2020-06-18T14:04:10Z</time>
      </trkpt>
      <trkpt lat="49.99435" lon="1.27063">
        <ele>91</ele>
        <time>2020-06-18T14:04:11Z</time>
      </trkpt>
      <trkpt lat="49.99439" lon="1.27072">
        <ele>90.9</ele>
        <time>2020-06-18T14:04:12Z</time>
      </trkpt>
      <trkpt lat="49.99444" lon="1.27081">
        <ele>90.9</ele>
        <time>2020-06-18T14:04:13Z</time>
      </trkpt>
      <trkpt lat="49.9945" lon="1.27087">
        <ele>90.8</ele>
        <time>2020-06-18T14:04:14Z</time>
      </trkpt>
      <trkpt lat="49.99455" lon="1.27093">
        <ele>90.8</ele>
        <time>2020-06-18T14:04:15Z</time>
      </trkpt>
      <trkpt lat="49.99461" lon="1.271">
        <ele>90.7</ele>
        <time>2020-06-18T14:04:16Z</time>
      </trkpt>
      <trkpt lat="49.99468" lon="1.27107">
        <ele>90.7</ele>
        <time>2020-06-18T14:04:17Z</time>
      </trkpt>
      <trkpt lat="49.99474" lon="1.27114">
        <ele>90.6</ele>
        <time>2020-06-18T14:04:18Z</time>
      </trkpt>
      <trkpt lat="49.9948" lon="1.27123">
        <ele>90.6</ele>
        <time>2020-06-18T14:04:19Z</time>
      </trkpt>
      <trkpt lat="49.99485" lon="1.27131">
        <ele>90.5</ele>
        <time>2020-06-18T14:04:20Z</time>
      </trkpt>
      <trkpt lat="49.99491" lon="1.2714">
        <ele>90.5</ele>
        <time>2020-06-18T14:04:21Z</time>
      </trkpt>
      <trkpt lat="49.99497" lon="1.27147">
        <ele>90.4</ele>
        <time>2020-06-18T14:04:22Z</time>
      </trkpt>
      <trkpt lat="49.99503" lon="1.27154">
        <ele>90.4</ele>
        <time>2020-06-18T14:04:23Z</time>
      </trkpt>
      <trkpt lat="49.99508" lon="1.27161">
        <ele>90.3</ele>
        <time>2020-06-18T14:04:24Z</time>
      </trkpt>
      <trkpt lat="49.99514" lon="1.27168">
        <ele>90.3</ele>
        <time>2020-06-18T14:04:25Z</time>
      </trkpt>
      <trkpt lat="49.99521" lon="1.27175">
        <ele>90.3</ele>
        <time>2020-06-18T14:04:26Z</time>
      </trkpt>
      <trkpt lat="49.99527" lon="1.27181">
        <ele>90.2</ele>
        <time>2020-06-18T14:04:27Z</time>
      </trkpt>
      <trkpt lat="49.99533" lon="1.27189">
        <ele>90.1</ele>
        <time>2020-06-18T14:04:28Z</time>
      </trkpt>
      <trkpt lat="49.99539" lon="1.27197">
        <ele>90.1</ele>
        <time>2020-06-18T14:04:29Z</time>
      </trkpt>
      <trkpt lat="49.99544" lon="1.27204">
        <ele>90</ele>
        <time>2020-06-18T14:04:30Z</time>
      </trkpt>
      <trkpt lat="49.9955" lon="1.27211">
        <ele>89.9</ele>
        <time>2020-06-18T14:04:31Z</time>
      </trkpt>
      <trkpt lat="49.99555" lon="1.27218">
        <ele>89.9</ele>
        <time>2020-06-18T14:04:32Z</time>
      </trkpt>
      <trkpt lat="49.99562" lon="1.27224">
        <ele>89.8</ele>
        <time>2020-06-18T14:04:33Z</time>
      </trkpt>
      <trkpt lat="49.99567" lon="1.27231">
        <ele>89.8</ele>
        <time>2020-06-18T14:04:34Z</time>
      </trkpt>
      <trkpt lat="49.99573" lon="1.27239">
        <ele>89.7</ele>
        <time>2020-06-18T14:04:35Z</time>
      </trkpt>
      <trkpt lat="49.99579" lon="1.27246">
        <ele>89.6</ele>
        <time>2020-06-18T14:04:36Z</time>
      </trkpt>
      <trkpt lat="49.99585" lon="1.27254">
        <ele>89.5</ele>
        <time>2020-06-18T14:04:37Z</time>
      </trkpt>
      <trkpt lat="49.99592" lon="1.27261">
        <ele>89.3</ele>
        <time>2020-06-18T14:04:38Z</time>
      </trkpt>
      <trkpt lat="49.99598" lon="1.27268">
        <ele>89.2</ele>
        <time>2020-06-18T14:04:39Z</time>
      </trkpt>
      <trkpt lat="49.99604" lon="1.27276">
        <ele>89.1</ele>
        <time>2020-06-18T14:04:40Z</time>
      </trkpt>
      <trkpt lat="49.9961" lon="1.27283">
        <ele>89.1</ele>
        <time>2020-06-18T14:04:41Z</time>
      </trkpt>
      <trkpt lat="49.99616" lon="1.2729">
        <ele>89</ele>
        <time>2020-06-18T14:04:42Z</time>
      </trkpt>
      <trkpt lat="49.99622" lon="1.27298">
        <ele>89</ele>
        <time>2020-06-18T14:04:43Z</time>
      </trkpt>
      <trkpt lat="49.99628" lon="1.27305">
        <ele>88.9</ele>
        <time>2020-06-18T14:04:44Z</time>
      </trkpt>
      <trkpt lat="49.99634" lon="1.27311">
        <ele>88.9</ele>
        <time>2020-06-18T14:04:45Z</time>
      </trkpt>
      <trkpt lat="49.99639" lon="1.27318">
        <ele>88.8</ele>
        <time>2020-06-18T14:04:46Z</time>
      </trkpt>
      <trkpt lat="49.99645" lon="1.27325">
        <ele>88.8</ele>
        <time>2020-06-18T14:04:47Z</time>
      </trkpt>
      <trkpt lat="49.99652" lon="1.27332">
        <ele>88.7</ele>
        <time>2020-06-18T14:04:48Z</time>
      </trkpt>
      <trkpt lat="49.99657" lon="1.27341">
        <ele>88.7</ele>
        <time>2020-06-18T14:04:49Z</time>
      </trkpt>
      <trkpt lat="49.99663" lon="1.2735">
        <ele>88.6</ele>
        <time>2020-06-18T14:04:50Z</time>
      </trkpt>
      <trkpt lat="49.99668" lon="1.27358">
        <ele>88.5</ele>
        <time>2020-06-18T14:04:51Z</time>
      </trkpt>
      <trkpt lat="49.99674" lon="1.27365">
        <ele>88.4</ele>
        <time>2020-06-18T14:04:52Z</time>
      </trkpt>
      <trkpt lat="49.9968" lon="1.27373">
        <ele>88.3</ele>
        <time>2020-06-18T14:04:53Z</time>
      </trkpt>
      <trkpt lat="49.99686" lon="1.27381">
        <ele>88.2</ele>
        <time>2020-06-18T14:04:54Z</time>
      </trkpt>
      <trkpt lat="49.99692" lon="1.27389">
        <ele>88.1</ele>
        <time>2020-06-18T14:04:55Z</time>
      </trkpt>
      <trkpt lat="49.99698" lon="1.27396">
        <ele>88</ele>
        <time>2020-06-18T14:04:56Z</time>
      </trkpt>
      <trkpt lat="49.99704" lon="1.27404">
        <ele>87.9</ele>
        <time>2020-06-18T14:04:57Z</time>
      </trkpt>
      <trkpt lat="49.99711" lon="1.27413">
        <ele>87.9</ele>
        <time>2020-06-18T14:04:58Z</time>
      </trkpt>
      <trkpt lat="49.99716" lon="1.27421">
        <ele>87.9</ele>
        <time>2020-06-18T14:04:59Z</time>
      </trkpt>
      <trkpt lat="49.99722" lon="1.27428">
        <ele>87.8</ele>
        <time>2020-06-18T14:05:00Z</time>
      </trkpt>
      <trkpt lat="49.99728" lon="1.27435">
        <ele>87.8</ele>
        <time>2020-06-18T14:05:01Z</time>
      </trkpt>
      <trkpt lat="49.99734" lon="1.27442">
        <ele>87.5</ele>
        <time>2020-06-18T14:05:02Z</time>
      </trkpt>
      <trkpt lat="49.9974" lon="1.27451">
        <ele>87.3</ele>
        <time>2020-06-18T14:05:03Z</time>
      </trkpt>
      <trkpt lat="49.99746" lon="1.27459">
        <ele>87.1</ele>
        <time>2020-06-18T14:05:04Z</time>
      </trkpt>
      <trkpt lat="49.99752" lon="1.27467">
        <ele>87</ele>
        <time>2020-06-18T14:05:05Z</time>
      </trkpt>
      <trkpt lat="49.99757" lon="1.27475">
        <ele>86.9</ele>
        <time>2020-06-18T14:05:06Z</time>
      </trkpt>
      <trkpt lat="49.99764" lon="1.27484">
        <ele>86.7</ele>
        <time>2020-06-18T14:05:07Z</time>
      </trkpt>
      <trkpt lat="49.9977" lon="1.27492">
        <ele>86.5</ele>
        <time>2020-06-18T14:05:08Z</time>
      </trkpt>
      <trkpt lat="49.99777" lon="1.27501">
        <ele>86.4</ele>
        <time>2020-06-18T14:05:09Z</time>
      </trkpt>
      <trkpt lat="49.99784" lon="1.27509">
        <ele>86.3</ele>
        <time>2020-06-18T14:05:10Z</time>
      </trkpt>
      <trkpt lat="49.9979" lon="1.27517">
        <ele>86.2</ele>
        <time>2020-06-18T14:05:11Z</time>
      </trkpt>
      <trkpt lat="49.99797" lon="1.27525">
        <ele>86.1</ele>
        <time>2020-06-18T14:05:12Z</time>
      </trkpt>
      <trkpt lat="49.99803" lon="1.27534">
        <ele>86</ele>
        <time>2020-06-18T14:05:13Z</time>
      </trkpt>
      <trkpt lat="49.99809" lon="1.27542">
        <ele>85.8</ele>
        <time>2020-06-18T14:05:14Z</time>
      </trkpt>
      <trkpt lat="49.99816" lon="1.27549">
        <ele>85.7</ele>
        <time>2020-06-18T14:05:15Z</time>
      </trkpt>
      <trkpt lat="49.99822" lon="1.27557">
        <ele>85.6</ele>
        <time>2020-06-18T14:05:16Z</time>
      </trkpt>
      <trkpt lat="49.99829" lon="1.27566">
        <ele>85.4</ele>
        <time>2020-06-18T14:05:17Z</time>
      </trkpt>
      <trkpt lat="49.99835" lon="1.27573">
        <ele>85.3</ele>
        <time>2020-06-18T14:05:18Z</time>
      </trkpt>
      <trkpt lat="49.99841" lon="1.2758">
        <ele>85.1</ele>
        <time>2020-06-18T14:05:19Z</time>
      </trkpt>
      <trkpt lat="49.99847" lon="1.27588">
        <ele>85</ele>
        <time>2020-06-18T14:05:20Z</time>
      </trkpt>
      <trkpt lat="49.99853" lon="1.27595">
        <ele>85</ele>
        <time>2020-06-18T14:05:21Z</time>
      </trkpt>
      <trkpt lat="49.99859" lon="1.27603">
        <ele>84.9</ele>
        <time>2020-06-18T14:05:22Z</time>
      </trkpt>
      <trkpt lat="49.99865" lon="1.2761">
        <ele>84.9</ele>
        <time>2020-06-18T14:05:23Z</time>
      </trkpt>
      <trkpt lat="49.99872" lon="1.27617">
        <ele>84.8</ele>
        <time>2020-06-18T14:05:24Z</time>
      </trkpt>
      <trkpt lat="49.99877" lon="1.27624">
        <ele>84.7</ele>
        <time>2020-06-18T14:05:25Z</time>
      </trkpt>
      <trkpt lat="49.99883" lon="1.27631">
        <ele>84.7</ele>
        <time>2020-06-18T14:05:26Z</time>
      </trkpt>
      <trkpt lat="49.99889" lon="1.27638">
        <ele>84.6</ele>
        <time>2020-06-18T14:05:27Z</time>
      </trkpt>
      <trkpt lat="49.99895" lon="1.27644">
        <ele>84.6</ele>
        <time>2020-06-18T14:05:28Z</time>
      </trkpt>
      <trkpt lat="49.99901" lon="1.27652">
        <ele>84.5</ele>
        <time>2020-06-18T14:05:29Z</time>
      </trkpt>
      <trkpt lat="49.99906" lon="1.27658">
        <ele>84.5</ele>
        <time>2020-06-18T14:05:30Z</time>
      </trkpt>
      <trkpt lat="49.99912" lon="1.27665">
        <ele>84.4</ele>
        <time>2020-06-18T14:05:31Z</time>
      </trkpt>
      <trkpt lat="49.99918" lon="1.27671">
        <ele>84.3</ele>
        <time>2020-06-18T14:05:32Z</time>
      </trkpt>
      <trkpt lat="49.99924" lon="1.27679">
        <ele>84.3</ele>
        <time>2020-06-18T14:05:33Z</time>
      </trkpt>
      <trkpt lat="49.99931" lon="1.27686">
        <ele>84.2</ele>
        <time>2020-06-18T14:05:34Z</time>
      </trkpt>
      <trkpt lat="49.99937" lon="1.27694">
        <ele>84.1</ele>
        <time>2020-06-18T14:05:35Z</time>
      </trkpt>
      <trkpt lat="49.99942" lon="1.277">
        <ele>84.1</ele>
        <time>2020-06-18T14:05:36Z</time>
      </trkpt>
      <trkpt lat="49.99948" lon="1.27707">
        <ele>84</ele>
        <time>2020-06-18T14:05:37Z</time>
      </trkpt>
      <trkpt lat="49.99954" lon="1.27715">
        <ele>83.9</ele>
        <time>2020-06-18T14:05:38Z</time>
      </trkpt>
      <trkpt lat="49.9996" lon="1.27721">
        <ele>83.9</ele>
        <time>2020-06-18T14:05:39Z</time>
      </trkpt>
      <trkpt lat="49.99965" lon="1.27727">
        <ele>83.9</ele>
        <time>2020-06-18T14:05:40Z</time>
      </trkpt>
      <trkpt lat="49.9997" lon="1.27734">
        <ele>83.9</ele>
        <time>2020-06-18T14:05:41Z</time>
      </trkpt>
      <trkpt lat="49.99975" lon="1.27741">
        <ele>83.9</ele>
        <time>2020-06-18T14:05:42Z</time>
      </trkpt>
      <trkpt lat="49.9998" lon="1.27748">
        <ele>83.9</ele>
        <time>2020-06-18T14:05:43Z</time>
      </trkpt>
      <trkpt lat="49.99985" lon="1.27754">
        <ele>83.9</ele>
        <time>2020-06-18T14:05:44Z</time>
      </trkpt>
      <trkpt lat="49.9999" lon="1.27759">
        <ele>83.8</ele>
        <time>2020-06-18T14:05:45Z</time>
      </trkpt>
      <trkpt lat="49.99997" lon="1.27766">
        <ele>83.8</ele>
        <time>2020-06-18T14:05:46Z</time>
      </trkpt>
      <trkpt lat="50.00002" lon="1.27772">
        <ele>83.8</ele>
        <time>2020-06-18T14:05:47Z</time>
      </trkpt>
      <trkpt lat="50.00007" lon="1.27778">
        <ele>83.8</ele>
        <time>2020-06-18T14:05:48Z</time>
      </trkpt>
      <trkpt lat="50.00012" lon="1.27784">
        <ele>83.8</ele>
        <time>2020-06-18T14:05:49Z</time>
      </trkpt>
      <trkpt lat="50.00017" lon="1.2779">
        <ele>83.8</ele>
        <time>2020-06-18T14:05:50Z</time>
      </trkpt>
      <trkpt lat="50.00022" lon="1.27796">
        <ele>83.8</ele>
        <time>2020-06-18T14:05:51Z</time>
      </trkpt>
      <trkpt lat="50.00027" lon="1.27803">
        <ele>83.7</ele>
        <time>2020-06-18T14:05:52Z</time>
      </trkpt>
      <trkpt lat="50.00032" lon="1.2781">
        <ele>83.7</ele>
        <time>2020-06-18T14:05:53Z</time>
      </trkpt>
      <trkpt lat="50.00037" lon="1.27816">
        <ele>83.6</ele>
        <time>2020-06-18T14:05:54Z</time>
      </trkpt>
      <trkpt lat="50.00041" lon="1.27823">
        <ele>83.6</ele>
        <time>2020-06-18T14:05:55Z</time>
      </trkpt>
      <trkpt lat="50.00045" lon="1.27829">
        <ele>83.6</ele>
        <time>2020-06-18T14:05:56Z</time>
      </trkpt>
      <trkpt lat="50.00049" lon="1.27836">
        <ele>83.6</ele>
        <time>2020-06-18T14:05:57Z</time>
      </trkpt>
      <trkpt lat="50.00054" lon="1.27843">
        <ele>83.6</ele>
        <time>2020-06-18T14:05:58Z</time>
      </trkpt>
      <trkpt lat="50.0006" lon="1.27848">
        <ele>83.6</ele>
        <time>2020-06-18T14:05:59Z</time>
      </trkpt>
      <trkpt lat="50.00066" lon="1.27856">
        <ele>83.5</ele>
        <time>2020-06-18T14:06:00Z</time>
      </trkpt>
      <trkpt lat="50.0007" lon="1.27864">
        <ele>83.5</ele>
        <time>2020-06-18T14:06:01Z</time>
      </trkpt>
      <trkpt lat="50.00074" lon="1.27874">
        <ele>83.5</ele>
        <time>2020-06-18T14:06:02Z</time>
      </trkpt>
      <trkpt lat="50.00077" lon="1.27882">
        <ele>83.5</ele>
        <time>2020-06-18T14:06:03Z</time>
      </trkpt>
      <trkpt lat="50.00079" lon="1.27891">
        <ele>83.5</ele>
        <time>2020-06-18T14:06:04Z</time>
      </trkpt>
      <trkpt lat="50.0008" lon="1.27901">
        <ele>83.6</ele>
        <time>2020-06-18T14:06:05Z</time>
      </trkpt>
      <trkpt lat="50.00079" lon="1.27911">
        <ele>83.6</ele>
        <time>2020-06-18T14:06:06Z</time>
      </trkpt>
      <trkpt lat="50.00076" lon="1.27922">
        <ele>83.6</ele>
        <time>2020-06-18T14:06:07Z</time>
      </trkpt>
      <trkpt lat="50.00075" lon="1.27932">
        <ele>83.6</ele>
        <time>2020-06-18T14:06:08Z</time>
      </trkpt>
      <trkpt lat="50.00075" lon="1.27943">
        <ele>83.6</ele>
        <time>2020-06-18T14:06:09Z</time>
      </trkpt>
      <trkpt lat="50.00075" lon="1.27955">
        <ele>83.6</ele>
        <time>2020-06-18T14:06:10Z</time>
      </trkpt>
      <trkpt lat="50.00075" lon="1.27966">
        <ele>83.6</ele>
        <time>2020-06-18T14:06:11Z</time>
      </trkpt>
      <trkpt lat="50.00076" lon="1.27976">
        <ele>83.6</ele>
        <time>2020-06-18T14:06:12Z</time>
      </trkpt>
      <trkpt lat="50.00077" lon="1.27987">
        <ele>83.6</ele>
        <time>2020-06-18T14:06:13Z</time>
      </trkpt>
      <trkpt lat="50.00078" lon="1.27998">
        <ele>83.6</ele>
        <time>2020-06-18T14:06:14Z</time>
      </trkpt>
      <trkpt lat="50.00079" lon="1.28008">
        <ele>83.6</ele>
        <time>2020-06-18T14:06:15Z</time>
      </trkpt>
      <trkpt lat="50.0008" lon="1.28016">
        <ele>83.6</ele>
        <time>2020-06-18T14:06:16Z</time>
      </trkpt>
      <trkpt lat="50.00082" lon="1.28025">
        <ele>83.6</ele>
        <time>2020-06-18T14:06:17Z</time>
      </trkpt>
      <trkpt lat="50.00084" lon="1.28035">
        <ele>83.6</ele>
        <time>2020-06-18T14:06:18Z</time>
      </trkpt>
      <trkpt lat="50.00085" lon="1.28042">
        <ele>83.6</ele>
        <time>2020-06-18T14:06:19Z</time>
      </trkpt>
      <trkpt lat="50.00086" lon="1.28051">
        <ele>83.7</ele>
        <time>2020-06-18T14:06:20Z</time>
      </trkpt>
      <trkpt lat="50.00088" lon="1.28061">
        <ele>83.7</ele>
        <time>2020-06-18T14:06:21Z</time>
      </trkpt>
      <trkpt lat="50.00089" lon="1.28072">
        <ele>83.7</ele>
        <time>2020-06-18T14:06:22Z</time>
      </trkpt>
      <trkpt lat="50.0009" lon="1.28081">
        <ele>83.7</ele>
        <time>2020-06-18T14:06:23Z</time>
      </trkpt>
      <trkpt lat="50.00091" lon="1.28088">
        <ele>83.7</ele>
        <time>2020-06-18T14:06:24Z</time>
      </trkpt>
      <trkpt lat="50.00089" lon="1.28095">
        <ele>83.7</ele>
        <time>2020-06-18T14:06:25Z</time>
      </trkpt>
      <trkpt lat="50.00088" lon="1.28103">
        <ele>83.6</ele>
        <time>2020-06-18T14:06:26Z</time>
      </trkpt>
      <trkpt lat="50.00088" lon="1.28109">
        <ele>83.6</ele>
        <time>2020-06-18T14:06:27Z</time>
      </trkpt>
      <trkpt lat="50.00087" lon="1.28116">
        <ele>83.6</ele>
        <time>2020-06-18T14:06:28Z</time>
      </trkpt>
      <trkpt lat="50.00087" lon="1.28124">
        <ele>83.6</ele>
        <time>2020-06-18T14:06:29Z</time>
      </trkpt>
      <trkpt lat="50.00088" lon="1.28136">
        <ele>83.6</ele>
        <time>2020-06-18T14:06:30Z</time>
      </trkpt>
      <trkpt lat="50.0009" lon="1.28147">
        <ele>83.6</ele>
        <time>2020-06-18T14:06:31Z</time>
      </trkpt>
      <trkpt lat="50.00091" lon="1.28156">
        <ele>83.6</ele>
        <time>2020-06-18T14:06:32Z</time>
      </trkpt>
      <trkpt lat="50.00093" lon="1.28166">
        <ele>83.5</ele>
        <time>2020-06-18T14:06:33Z</time>
      </trkpt>
      <trkpt lat="50.00094" lon="1.28174">
        <ele>83.5</ele>
        <time>2020-06-18T14:06:34Z</time>
      </trkpt>
      <trkpt lat="50.00095" lon="1.28182">
        <ele>83.5</ele>
        <time>2020-06-18T14:06:35Z</time>
      </trkpt>
      <trkpt lat="50.00096" lon="1.28191">
        <ele>83.5</ele>
        <time>2020-06-18T14:06:36Z</time>
      </trkpt>
      <trkpt lat="50.00097" lon="1.282">
        <ele>83.5</ele>
        <time>2020-06-18T14:06:37Z</time>
      </trkpt>
      <trkpt lat="50.00097" lon="1.28207">
        <ele>83.5</ele>
        <time>2020-06-18T14:06:38Z</time>
      </trkpt>
      <trkpt lat="50.00096" lon="1.28215">
        <ele>83.5</ele>
        <time>2020-06-18T14:06:39Z</time>
      </trkpt>
      <trkpt lat="50.00094" lon="1.2822">
        <ele>83.5</ele>
        <time>2020-06-18T14:06:40Z</time>
      </trkpt>
      <trkpt lat="50.00091" lon="1.28225">
        <ele>83.5</ele>
        <time>2020-06-18T14:06:41Z</time>
      </trkpt>
      <trkpt lat="50.00088" lon="1.2823">
        <ele>83.4</ele>
        <time>2020-06-18T14:06:42Z</time>
      </trkpt>
      <trkpt lat="50.00085" lon="1.28237">
        <ele>83.4</ele>
        <time>2020-06-18T14:06:43Z</time>
      </trkpt>
      <trkpt lat="50.00084" lon="1.28244">
        <ele>83.4</ele>
        <time>2020-06-18T14:06:44Z</time>
      </trkpt>
      <trkpt lat="50.00084" lon="1.28252">
        <ele>83.4</ele>
        <time>2020-06-18T14:06:45Z</time>
      </trkpt>
      <trkpt lat="50.00088" lon="1.28261">
        <ele>83.4</ele>
        <time>2020-06-18T14:06:46Z</time>
      </trkpt>
      <trkpt lat="50.00091" lon="1.28267">
        <ele>83.4</ele>
        <time>2020-06-18T14:06:47Z</time>
      </trkpt>
      <trkpt lat="50.00095" lon="1.28272">
        <ele>83.3</ele>
        <time>2020-06-18T14:06:48Z</time>
      </trkpt>
      <trkpt lat="50.00099" lon="1.28278">
        <ele>83.2</ele>
        <time>2020-06-18T14:06:49Z</time>
      </trkpt>
      <trkpt lat="50.00103" lon="1.28283">
        <ele>83.2</ele>
        <time>2020-06-18T14:06:50Z</time>
      </trkpt>
      <trkpt lat="50.00107" lon="1.28287">
        <ele>83.1</ele>
        <time>2020-06-18T14:06:51Z</time>
      </trkpt>
      <trkpt lat="50.00112" lon="1.28292">
        <ele>83.1</ele>
        <time>2020-06-18T14:06:52Z</time>
      </trkpt>
      <trkpt lat="50.00116" lon="1.28295">
        <ele>83.1</ele>
        <time>2020-06-18T14:06:53Z</time>
      </trkpt>
      <trkpt lat="50.0012" lon="1.28297">
        <ele>83.1</ele>
        <time>2020-06-18T14:06:54Z</time>
      </trkpt>
      <trkpt lat="50.00123" lon="1.283">
        <ele>83.1</ele>
        <time>2020-06-18T14:06:55Z</time>
      </trkpt>
      <trkpt lat="50.00128" lon="1.28302">
        <ele>83.1</ele>
        <time>2020-06-18T14:06:56Z</time>
      </trkpt>
      <trkpt lat="50.00133" lon="1.28301">
        <ele>83.1</ele>
        <time>2020-06-18T14:06:57Z</time>
      </trkpt>
      <trkpt lat="50.00138" lon="1.283">
        <ele>83</ele>
        <time>2020-06-18T14:06:58Z</time>
      </trkpt>
      <trkpt lat="50.00142" lon="1.283">
        <ele>83</ele>
        <time>2020-06-18T14:06:59Z</time>
      </trkpt>
      <trkpt lat="50.00146" lon="1.28298">
        <ele>83</ele>
        <time>2020-06-18T14:07:00Z</time>
      </trkpt>
      <trkpt lat="50.00151" lon="1.28296">
        <ele>83</ele>
        <time>2020-06-18T14:07:01Z</time>
      </trkpt>
      <trkpt lat="50.00155" lon="1.28294">
        <ele>82.9</ele>
        <time>2020-06-18T14:07:02Z</time>
      </trkpt>
      <trkpt lat="50.0016" lon="1.28292">
        <ele>82.9</ele>
        <time>2020-06-18T14:07:03Z</time>
      </trkpt>
      <trkpt lat="50.00166" lon="1.2829">
        <ele>82.9</ele>
        <time>2020-06-18T14:07:04Z</time>
      </trkpt>
      <trkpt lat="50.00171" lon="1.28287">
        <ele>82.9</ele>
        <time>2020-06-18T14:07:05Z</time>
      </trkpt>
      <trkpt lat="50.00176" lon="1.28285">
        <ele>82.9</ele>
        <time>2020-06-18T14:07:06Z</time>
      </trkpt>
      <trkpt lat="50.00182" lon="1.28285">
        <ele>82.8</ele>
        <time>2020-06-18T14:07:07Z</time>
      </trkpt>
      <trkpt lat="50.00187" lon="1.28286">
        <ele>82.8</ele>
        <time>2020-06-18T14:07:08Z</time>
      </trkpt>
      <trkpt lat="50.00193" lon="1.28288">
        <ele>82.8</ele>
        <time>2020-06-18T14:07:09Z</time>
      </trkpt>
      <trkpt lat="50.00199" lon="1.2829">
        <ele>82.7</ele>
        <time>2020-06-18T14:07:10Z</time>
      </trkpt>
      <trkpt lat="50.00206" lon="1.28292">
        <ele>82.7</ele>
        <time>2020-06-18T14:07:11Z</time>
      </trkpt>
      <trkpt lat="50.00212" lon="1.28294">
        <ele>82.7</ele>
        <time>2020-06-18T14:07:12Z</time>
      </trkpt>
      <trkpt lat="50.00217" lon="1.28295">
        <ele>82.7</ele>
        <time>2020-06-18T14:07:13Z</time>
      </trkpt>
      <trkpt lat="50.00223" lon="1.28296">
        <ele>82.6</ele>
        <time>2020-06-18T14:07:14Z</time>
      </trkpt>
      <trkpt lat="50.00229" lon="1.28298">
        <ele>82.5</ele>
        <time>2020-06-18T14:07:15Z</time>
      </trkpt>
      <trkpt lat="50.00234" lon="1.28299">
        <ele>82.5</ele>
        <time>2020-06-18T14:07:16Z</time>
      </trkpt>
      <trkpt lat="50.0024" lon="1.283">
        <ele>82.4</ele>
        <time>2020-06-18T14:07:17Z</time>
      </trkpt>
      <trkpt lat="50.00245" lon="1.28301">
        <ele>82.3</ele>
        <time>2020-06-18T14:07:18Z</time>
      </trkpt>
      <trkpt lat="50.00251" lon="1.28302">
        <ele>82.2</ele>
        <time>2020-06-18T14:07:19Z</time>
      </trkpt>
      <trkpt lat="50.00257" lon="1.28305">
        <ele>82.1</ele>
        <time>2020-06-18T14:07:20Z</time>
      </trkpt>
      <trkpt lat="50.00263" lon="1.28306">
        <ele>82.1</ele>
        <time>2020-06-18T14:07:21Z</time>
      </trkpt>
      <trkpt lat="50.00269" lon="1.28308">
        <ele>82</ele>
        <time>2020-06-18T14:07:22Z</time>
      </trkpt>
      <trkpt lat="50.00276" lon="1.28311">
        <ele>82</ele>
        <time>2020-06-18T14:07:23Z</time>
      </trkpt>
      <trkpt lat="50.00282" lon="1.28313">
        <ele>81.9</ele>
        <time>2020-06-18T14:07:24Z</time>
      </trkpt>
      <trkpt lat="50.00288" lon="1.28315">
        <ele>81.9</ele>
        <time>2020-06-18T14:07:25Z</time>
      </trkpt>
      <trkpt lat="50.00294" lon="1.28316">
        <ele>81.8</ele>
        <time>2020-06-18T14:07:26Z</time>
      </trkpt>
      <trkpt lat="50.003" lon="1.28319">
        <ele>81.8</ele>
        <time>2020-06-18T14:07:27Z</time>
      </trkpt>
      <trkpt lat="50.00308" lon="1.28322">
        <ele>81.7</ele>
        <time>2020-06-18T14:07:28Z</time>
      </trkpt>
      <trkpt lat="50.00314" lon="1.28325">
        <ele>81.6</ele>
        <time>2020-06-18T14:07:29Z</time>
      </trkpt>
      <trkpt lat="50.0032" lon="1.28328">
        <ele>81.6</ele>
        <time>2020-06-18T14:07:30Z</time>
      </trkpt>
      <trkpt lat="50.00326" lon="1.2833">
        <ele>81.5</ele>
        <time>2020-06-18T14:07:31Z</time>
      </trkpt>
      <trkpt lat="50.00333" lon="1.28334">
        <ele>81.5</ele>
        <time>2020-06-18T14:07:32Z</time>
      </trkpt>
      <trkpt lat="50.00339" lon="1.28336">
        <ele>81.4</ele>
        <time>2020-06-18T14:07:33Z</time>
      </trkpt>
      <trkpt lat="50.00344" lon="1.28337">
        <ele>81.4</ele>
        <time>2020-06-18T14:07:34Z</time>
      </trkpt>
      <trkpt lat="50.00352" lon="1.28341">
        <ele>81.3</ele>
        <time>2020-06-18T14:07:35Z</time>
      </trkpt>
      <trkpt lat="50.00358" lon="1.28345">
        <ele>81.2</ele>
        <time>2020-06-18T14:07:36Z</time>
      </trkpt>
      <trkpt lat="50.00364" lon="1.28348">
        <ele>81.1</ele>
        <time>2020-06-18T14:07:37Z</time>
      </trkpt>
      <trkpt lat="50.00368" lon="1.2835">
        <ele>81.1</ele>
        <time>2020-06-18T14:07:38Z</time>
      </trkpt>
      <trkpt lat="50.00374" lon="1.28354">
        <ele>81</ele>
        <time>2020-06-18T14:07:39Z</time>
      </trkpt>
      <trkpt lat="50.00378" lon="1.28357">
        <ele>81</ele>
        <time>2020-06-18T14:07:40Z</time>
      </trkpt>
      <trkpt lat="50.00383" lon="1.28362">
        <ele>81</ele>
        <time>2020-06-18T14:07:41Z</time>
      </trkpt>
      <trkpt lat="50.00388" lon="1.28365">
        <ele>80.9</ele>
        <time>2020-06-18T14:07:42Z</time>
      </trkpt>
      <trkpt lat="50.00392" lon="1.2837">
        <ele>80.9</ele>
        <time>2020-06-18T14:07:43Z</time>
      </trkpt>
      <trkpt lat="50.00397" lon="1.28377">
        <ele>80.9</ele>
        <time>2020-06-18T14:07:44Z</time>
      </trkpt>
      <trkpt lat="50.004" lon="1.28382">
        <ele>80.9</ele>
        <time>2020-06-18T14:07:45Z</time>
      </trkpt>
      <trkpt lat="50.00404" lon="1.28387">
        <ele>80.9</ele>
        <time>2020-06-18T14:07:46Z</time>
      </trkpt>
      <trkpt lat="50.00407" lon="1.28392">
        <ele>80.9</ele>
        <time>2020-06-18T14:07:47Z</time>
      </trkpt>
      <trkpt lat="50.00411" lon="1.28397">
        <ele>80.9</ele>
        <time>2020-06-18T14:07:48Z</time>
      </trkpt>
      <trkpt lat="50.00415" lon="1.284">
        <ele>80.9</ele>
        <time>2020-06-18T14:07:49Z</time>
      </trkpt>
      <trkpt lat="50.00418" lon="1.28401">
        <ele>80.8</ele>
        <time>2020-06-18T14:07:50Z</time>
      </trkpt>
      <trkpt lat="50.00422" lon="1.28396">
        <ele>80.6</ele>
        <time>2020-06-18T14:07:51Z</time>
      </trkpt>
      <trkpt lat="50.00424" lon="1.2839">
        <ele>80.4</ele>
        <time>2020-06-18T14:07:52Z</time>
      </trkpt>
      <trkpt lat="50.00427" lon="1.28385">
        <ele>80.3</ele>
        <time>2020-06-18T14:07:53Z</time>
      </trkpt>
      <trkpt lat="50.0043" lon="1.28379">
        <ele>80.1</ele>
        <time>2020-06-18T14:07:54Z</time>
      </trkpt>
      <trkpt lat="50.00433" lon="1.28373">
        <ele>79.9</ele>
        <time>2020-06-18T14:07:55Z</time>
      </trkpt>
      <trkpt lat="50.00436" lon="1.28367">
        <ele>79.7</ele>
        <time>2020-06-18T14:07:56Z</time>
      </trkpt>
      <trkpt lat="50.0044" lon="1.28362">
        <ele>79.5</ele>
        <time>2020-06-18T14:07:57Z</time>
      </trkpt>
      <trkpt lat="50.00443" lon="1.28358">
        <ele>79.6</ele>
        <time>2020-06-18T14:07:58Z</time>
      </trkpt>
      <trkpt lat="50.00447" lon="1.28355">
        <ele>79.7</ele>
        <time>2020-06-18T14:07:59Z</time>
      </trkpt>
      <trkpt lat="50.00449" lon="1.28351">
        <ele>79.8</ele>
        <time>2020-06-18T14:08:00Z</time>
      </trkpt>
      <trkpt lat="50.00449" lon="1.28349">
        <ele>79.8</ele>
        <time>2020-06-18T14:08:01Z</time>
      </trkpt>
      <trkpt lat="50.00449" lon="1.28348">
        <ele>79.8</ele>
        <time>2020-06-18T14:08:02Z</time>
      </trkpt>
      <trkpt lat="50.0045" lon="1.28349">
        <ele>79.8</ele>
        <time>2020-06-18T14:08:03Z</time>
      </trkpt>
      <trkpt lat="50.0045" lon="1.2835">
        <ele>79.8</ele>
        <time>2020-06-18T14:08:04Z</time>
      </trkpt>
      <trkpt lat="50.0045" lon="1.2835">
        <ele>79.9</ele>
        <time>2020-06-18T14:08:05Z</time>
      </trkpt>
      <trkpt lat="50.0045" lon="1.28351">
        <ele>79.9</ele>
        <time>2020-06-18T14:08:06Z</time>
      </trkpt>
      <trkpt lat="50.0045" lon="1.28352">
        <ele>79.9</ele>
        <time>2020-06-18T14:08:07Z</time>
      </trkpt>
      <trkpt lat="50.0045" lon="1.28354">
        <ele>79.9</ele>
        <time>2020-06-18T14:08:08Z</time>
      </trkpt>
      <trkpt lat="50.00449" lon="1.28356">
        <ele>79.9</ele>
        <time>2020-06-18T14:08:09Z</time>
      </trkpt>
      <trkpt lat="50.00448" lon="1.2836">
        <ele>80</ele>
        <time>2020-06-18T14:08:10Z</time>
      </trkpt>
      <trkpt lat="50.00445" lon="1.28364">
        <ele>80.1</ele>
        <time>2020-06-18T14:08:11Z</time>
      </trkpt>
      <trkpt lat="50.00443" lon="1.28368">
        <ele>80.1</ele>
        <time>2020-06-18T14:08:12Z</time>
      </trkpt>
      <trkpt lat="50.0044" lon="1.28373">
        <ele>80.2</ele>
        <time>2020-06-18T14:08:13Z</time>
      </trkpt>
      <trkpt lat="50.00439" lon="1.28378">
        <ele>80.3</ele>
        <time>2020-06-18T14:08:14Z</time>
      </trkpt>
      <trkpt lat="50.00436" lon="1.28383">
        <ele>80.4</ele>
        <time>2020-06-18T14:08:15Z</time>
      </trkpt>
      <trkpt lat="50.00435" lon="1.28387">
        <ele>80.4</ele>
        <time>2020-06-18T14:08:16Z</time>
      </trkpt>
      <trkpt lat="50.00434" lon="1.28391">
        <ele>80.5</ele>
        <time>2020-06-18T14:08:17Z</time>
      </trkpt>
      <trkpt lat="50.00432" lon="1.28395">
        <ele>80.5</ele>
        <time>2020-06-18T14:08:18Z</time>
      </trkpt>
      <trkpt lat="50.00431" lon="1.284">
        <ele>80.6</ele>
        <time>2020-06-18T14:08:19Z</time>
      </trkpt>
      <trkpt lat="50.0043" lon="1.28406">
        <ele>80.7</ele>
        <time>2020-06-18T14:08:20Z</time>
      </trkpt>
      <trkpt lat="50.0043" lon="1.28413">
        <ele>80.9</ele>
        <time>2020-06-18T14:08:21Z</time>
      </trkpt>
      <trkpt lat="50.00432" lon="1.28418">
        <ele>80.9</ele>
        <time>2020-06-18T14:08:22Z</time>
      </trkpt>
      <trkpt lat="50.00435" lon="1.28424">
        <ele>80.9</ele>
        <time>2020-06-18T14:08:23Z</time>
      </trkpt>
      <trkpt lat="50.00439" lon="1.28429">
        <ele>80.9</ele>
        <time>2020-06-18T14:08:24Z</time>
      </trkpt>
      <trkpt lat="50.00442" lon="1.28434">
        <ele>80.9</ele>
        <time>2020-06-18T14:08:25Z</time>
      </trkpt>
      <trkpt lat="50.00446" lon="1.2844">
        <ele>80.9</ele>
        <time>2020-06-18T14:08:26Z</time>
      </trkpt>
      <trkpt lat="50.0045" lon="1.28446">
        <ele>80.9</ele>
        <time>2020-06-18T14:08:27Z</time>
      </trkpt>
      <trkpt lat="50.00454" lon="1.28452">
        <ele>80.9</ele>
        <time>2020-06-18T14:08:28Z</time>
      </trkpt>
      <trkpt lat="50.00458" lon="1.28458">
        <ele>80.9</ele>
        <time>2020-06-18T14:08:29Z</time>
      </trkpt>
      <trkpt lat="50.00462" lon="1.28464">
        <ele>80.9</ele>
        <time>2020-06-18T14:08:30Z</time>
      </trkpt>
      <trkpt lat="50.00467" lon="1.28471">
        <ele>80.9</ele>
        <time>2020-06-18T14:08:31Z</time>
      </trkpt>
      <trkpt lat="50.00472" lon="1.28477">
        <ele>80.9</ele>
        <time>2020-06-18T14:08:32Z</time>
      </trkpt>
      <trkpt lat="50.00477" lon="1.28483">
        <ele>80.9</ele>
        <time>2020-06-18T14:08:33Z</time>
      </trkpt>
      <trkpt lat="50.00482" lon="1.28488">
        <ele>80.9</ele>
        <time>2020-06-18T14:08:34Z</time>
      </trkpt>
      <trkpt lat="50.00486" lon="1.28494">
        <ele>80.9</ele>
        <time>2020-06-18T14:08:35Z</time>
      </trkpt>
      <trkpt lat="50.0049" lon="1.28498">
        <ele>80.9</ele>
        <time>2020-06-18T14:08:36Z</time>
      </trkpt>
      <trkpt lat="50.00495" lon="1.28503">
        <ele>80.9</ele>
        <time>2020-06-18T14:08:37Z</time>
      </trkpt>
      <trkpt lat="50.00498" lon="1.28509">
        <ele>80.9</ele>
        <time>2020-06-18T14:08:38Z</time>
      </trkpt>
      <trkpt lat="50.00502" lon="1.28514">
        <ele>80.9</ele>
        <time>2020-06-18T14:08:39Z</time>
      </trkpt>
      <trkpt lat="50.00505" lon="1.2852">
        <ele>80.9</ele>
        <time>2020-06-18T14:08:40Z</time>
      </trkpt>
      <trkpt lat="50.00509" lon="1.28527">
        <ele>80.8</ele>
        <time>2020-06-18T14:08:41Z</time>
      </trkpt>
      <trkpt lat="50.00513" lon="1.28533">
        <ele>80.8</ele>
        <time>2020-06-18T14:08:42Z</time>
      </trkpt>
      <trkpt lat="50.00518" lon="1.28541">
        <ele>80.8</ele>
        <time>2020-06-18T14:08:43Z</time>
      </trkpt>
      <trkpt lat="50.00522" lon="1.28547">
        <ele>80.8</ele>
        <time>2020-06-18T14:08:44Z</time>
      </trkpt>
      <trkpt lat="50.00526" lon="1.28553">
        <ele>80.8</ele>
        <time>2020-06-18T14:08:45Z</time>
      </trkpt>
      <trkpt lat="50.00529" lon="1.2856">
        <ele>80.8</ele>
        <time>2020-06-18T14:08:46Z</time>
      </trkpt>
      <trkpt lat="50.00533" lon="1.28567">
        <ele>80.8</ele>
        <time>2020-06-18T14:08:47Z</time>
      </trkpt>
      <trkpt lat="50.00536" lon="1.28574">
        <ele>80.8</ele>
        <time>2020-06-18T14:08:48Z</time>
      </trkpt>
      <trkpt lat="50.0054" lon="1.2858">
        <ele>80.8</ele>
        <time>2020-06-18T14:08:49Z</time>
      </trkpt>
      <trkpt lat="50.00544" lon="1.28586">
        <ele>80.8</ele>
        <time>2020-06-18T14:08:50Z</time>
      </trkpt>
      <trkpt lat="50.00547" lon="1.28591">
        <ele>80.8</ele>
        <time>2020-06-18T14:08:51Z</time>
      </trkpt>
      <trkpt lat="50.00551" lon="1.28597">
        <ele>80.8</ele>
        <time>2020-06-18T14:08:52Z</time>
      </trkpt>
      <trkpt lat="50.00553" lon="1.28602">
        <ele>80.8</ele>
        <time>2020-06-18T14:08:53Z</time>
      </trkpt>
      <trkpt lat="50.00556" lon="1.28608">
        <ele>80.8</ele>
        <time>2020-06-18T14:08:54Z</time>
      </trkpt>
      <trkpt lat="50.00558" lon="1.28613">
        <ele>80.8</ele>
        <time>2020-06-18T14:08:55Z</time>
      </trkpt>
      <trkpt lat="50.00561" lon="1.28619">
        <ele>80.8</ele>
        <time>2020-06-18T14:08:56Z</time>
      </trkpt>
      <trkpt lat="50.00564" lon="1.28625">
        <ele>80.8</ele>
        <time>2020-06-18T14:08:57Z</time>
      </trkpt>
      <trkpt lat="50.00567" lon="1.28632">
        <ele>80.8</ele>
        <time>2020-06-18T14:08:58Z</time>
      </trkpt>
      <trkpt lat="50.00569" lon="1.28638">
        <ele>80.8</ele>
        <time>2020-06-18T14:08:59Z</time>
      </trkpt>
      <trkpt lat="50.00572" lon="1.28644">
        <ele>80.8</ele>
        <time>2020-06-18T14:09:00Z</time>
      </trkpt>
      <trkpt lat="50.00574" lon="1.28648">
        <ele>80.8</ele>
        <time>2020-06-18T14:09:01Z</time>
      </trkpt>
      <trkpt lat="50.00577" lon="1.28652">
        <ele>80.8</ele>
        <time>2020-06-18T14:09:02Z</time>
      </trkpt>
      <trkpt lat="50.00579" lon="1.28655">
        <ele>80.8</ele>
        <time>2020-06-18T14:09:03Z</time>
      </trkpt>
      <trkpt lat="50.00581" lon="1.28657">
        <ele>80.8</ele>
        <time>2020-06-18T14:09:04Z</time>
      </trkpt>
      <trkpt lat="50.00581" lon="1.28659">
        <ele>80.8</ele>
        <time>2020-06-18T14:09:05Z</time>
      </trkpt>
      <trkpt lat="50.00581" lon="1.2866">
        <ele>80.8</ele>
        <time>2020-06-18T14:09:06Z</time>
      </trkpt>
      <trkpt lat="50.00581" lon="1.28661">
        <ele>80.8</ele>
        <time>2020-06-18T14:09:07Z</time>
      </trkpt>
      <trkpt lat="50.00581" lon="1.28661">
        <ele>80.8</ele>
        <time>2020-06-18T14:09:08Z</time>
      </trkpt>
      <trkpt lat="50.0058" lon="1.2866">
        <ele>80.8</ele>
        <time>2020-06-18T14:09:09Z</time>
      </trkpt>
      <trkpt lat="50.00581" lon="1.28658">
        <ele>80.8</ele>
        <time>2020-06-18T14:09:10Z</time>
      </trkpt>
      <trkpt lat="50.00581" lon="1.28657">
        <ele>80.8</ele>
        <time>2020-06-18T14:09:11Z</time>
      </trkpt>
      <trkpt lat="50.00581" lon="1.28655">
        <ele>80.8</ele>
        <time>2020-06-18T14:09:12Z</time>
      </trkpt>
      <trkpt lat="50.00581" lon="1.28653">
        <ele>80.8</ele>
        <time>2020-06-18T14:09:13Z</time>
      </trkpt>
      <trkpt lat="50.0058" lon="1.28649">
        <ele>80.8</ele>
        <time>2020-06-18T14:09:14Z</time>
      </trkpt>
      <trkpt lat="50.00579" lon="1.28647">
        <ele>80.8</ele>
        <time>2020-06-18T14:09:15Z</time>
      </trkpt>
      <trkpt lat="50.00577" lon="1.28643">
        <ele>80.8</ele>
        <time>2020-06-18T14:09:16Z</time>
      </trkpt>
      <trkpt lat="50.00576" lon="1.28638">
        <ele>80.8</ele>
        <time>2020-06-18T14:09:17Z</time>
      </trkpt>
      <trkpt lat="50.00575" lon="1.28637">
        <ele>80.8</ele>
        <time>2020-06-18T14:09:18Z</time>
      </trkpt>
      <trkpt lat="50.00573" lon="1.28633">
        <ele>80.8</ele>
        <time>2020-06-18T14:09:19Z</time>
      </trkpt>
      <trkpt lat="50.00571" lon="1.28631">
        <ele>80.8</ele>
        <time>2020-06-18T14:09:20Z</time>
      </trkpt>
      <trkpt lat="50.0057" lon="1.28629">
        <ele>80.8</ele>
        <time>2020-06-18T14:09:21Z</time>
      </trkpt>
      <trkpt lat="50.00569" lon="1.28628">
        <ele>80.8</ele>
        <time>2020-06-18T14:09:22Z</time>
      </trkpt>
      <trkpt lat="50.00568" lon="1.28627">
        <ele>80.8</ele>
        <time>2020-06-18T14:09:23Z</time>
      </trkpt>
      <trkpt lat="50.00567" lon="1.28626">
        <ele>80.8</ele>
        <time>2020-06-18T14:09:24Z</time>
      </trkpt>
      <trkpt lat="50.00566" lon="1.28625">
        <ele>80.8</ele>
        <time>2020-06-18T14:09:25Z</time>
      </trkpt>
      <trkpt lat="50.00564" lon="1.28624">
        <ele>80.8</ele>
        <time>2020-06-18T14:09:26Z</time>
      </trkpt>
      <trkpt lat="50.00563" lon="1.28622">
        <ele>80.8</ele>
        <time>2020-06-18T14:09:27Z</time>
      </trkpt>
      <trkpt lat="50.00562" lon="1.28621">
        <ele>80.8</ele>
        <time>2020-06-18T14:09:28Z</time>
      </trkpt>
      <trkpt lat="50.0056" lon="1.28616">
        <ele>80.8</ele>
        <time>2020-06-18T14:09:29Z</time>
      </trkpt>
      <trkpt lat="50.00558" lon="1.28612">
        <ele>80.8</ele>
        <time>2020-06-18T14:09:30Z</time>
      </trkpt>
      <trkpt lat="50.00556" lon="1.28607">
        <ele>80.8</ele>
        <time>2020-06-18T14:09:31Z</time>
      </trkpt>
      <trkpt lat="50.00555" lon="1.28605">
        <ele>80.8</ele>
        <time>2020-06-18T14:09:32Z</time>
      </trkpt>
      <trkpt lat="50.00553" lon="1.28601">
        <ele>80.8</ele>
        <time>2020-06-18T14:09:33Z</time>
      </trkpt>
      <trkpt lat="50.00551" lon="1.28597">
        <ele>80.8</ele>
        <time>2020-06-18T14:09:34Z</time>
      </trkpt>
      <trkpt lat="50.00549" lon="1.28593">
        <ele>80.8</ele>
        <time>2020-06-18T14:09:35Z</time>
      </trkpt>
      <trkpt lat="50.00546" lon="1.28588">
        <ele>80.8</ele>
        <time>2020-06-18T14:09:36Z</time>
      </trkpt>
      <trkpt lat="50.00544" lon="1.28583">
        <ele>80.8</ele>
        <time>2020-06-18T14:09:37Z</time>
      </trkpt>
      <trkpt lat="50.00541" lon="1.28579">
        <ele>80.8</ele>
        <time>2020-06-18T14:09:38Z</time>
      </trkpt>
      <trkpt lat="50.00538" lon="1.28575">
        <ele>80.8</ele>
        <time>2020-06-18T14:09:39Z</time>
      </trkpt>
      <trkpt lat="50.00535" lon="1.2857">
        <ele>80.8</ele>
        <time>2020-06-18T14:09:40Z</time>
      </trkpt>
      <trkpt lat="50.00531" lon="1.28565">
        <ele>80.8</ele>
        <time>2020-06-18T14:09:41Z</time>
      </trkpt>
      <trkpt lat="50.00528" lon="1.2856">
        <ele>80.8</ele>
        <time>2020-06-18T14:09:42Z</time>
      </trkpt>
      <trkpt lat="50.00524" lon="1.28555">
        <ele>80.8</ele>
        <time>2020-06-18T14:09:43Z</time>
      </trkpt>
      <trkpt lat="50.00521" lon="1.28549">
        <ele>80.8</ele>
        <time>2020-06-18T14:09:44Z</time>
      </trkpt>
      <trkpt lat="50.00517" lon="1.28543">
        <ele>80.8</ele>
        <time>2020-06-18T14:09:45Z</time>
      </trkpt>
      <trkpt lat="50.00514" lon="1.28538">
        <ele>80.9</ele>
        <time>2020-06-18T14:09:46Z</time>
      </trkpt>
      <trkpt lat="50.0051" lon="1.28533">
        <ele>80.9</ele>
        <time>2020-06-18T14:09:47Z</time>
      </trkpt>
      <trkpt lat="50.00505" lon="1.28528">
        <ele>80.9</ele>
        <time>2020-06-18T14:09:48Z</time>
      </trkpt>
      <trkpt lat="50.00502" lon="1.28521">
        <ele>80.9</ele>
        <time>2020-06-18T14:09:49Z</time>
      </trkpt>
      <trkpt lat="50.00498" lon="1.28514">
        <ele>80.9</ele>
        <time>2020-06-18T14:09:50Z</time>
      </trkpt>
      <trkpt lat="50.00493" lon="1.28509">
        <ele>80.9</ele>
        <time>2020-06-18T14:09:51Z</time>
      </trkpt>
      <trkpt lat="50.00489" lon="1.28503">
        <ele>80.9</ele>
        <time>2020-06-18T14:09:52Z</time>
      </trkpt>
      <trkpt lat="50.00485" lon="1.28497">
        <ele>80.9</ele>
        <time>2020-06-18T14:09:53Z</time>
      </trkpt>
      <trkpt lat="50.00482" lon="1.28492">
        <ele>80.9</ele>
        <time>2020-06-18T14:09:54Z</time>
      </trkpt>
      <trkpt lat="50.00478" lon="1.28488">
        <ele>80.9</ele>
        <time>2020-06-18T14:09:55Z</time>
      </trkpt>
      <trkpt lat="50.00474" lon="1.28484">
        <ele>80.9</ele>
        <time>2020-06-18T14:09:56Z</time>
      </trkpt>
      <trkpt lat="50.0047" lon="1.28479">
        <ele>80.9</ele>
        <time>2020-06-18T14:09:57Z</time>
      </trkpt>
      <trkpt lat="50.00465" lon="1.28474">
        <ele>80.9</ele>
        <time>2020-06-18T14:09:58Z</time>
      </trkpt>
      <trkpt lat="50.00461" lon="1.28469">
        <ele>80.9</ele>
        <time>2020-06-18T14:09:59Z</time>
      </trkpt>
      <trkpt lat="50.00457" lon="1.28463">
        <ele>80.9</ele>
        <time>2020-06-18T14:10:00Z</time>
      </trkpt>
      <trkpt lat="50.00453" lon="1.28457">
        <ele>80.9</ele>
        <time>2020-06-18T14:10:01Z</time>
      </trkpt>
      <trkpt lat="50.00449" lon="1.28451">
        <ele>80.9</ele>
        <time>2020-06-18T14:10:02Z</time>
      </trkpt>
      <trkpt lat="50.00445" lon="1.28445">
        <ele>80.9</ele>
        <time>2020-06-18T14:10:03Z</time>
      </trkpt>
      <trkpt lat="50.00441" lon="1.28438">
        <ele>80.9</ele>
        <time>2020-06-18T14:10:04Z</time>
      </trkpt>
      <trkpt lat="50.00437" lon="1.28431">
        <ele>80.9</ele>
        <time>2020-06-18T14:10:05Z</time>
      </trkpt>
      <trkpt lat="50.00433" lon="1.28425">
        <ele>80.9</ele>
        <time>2020-06-18T14:10:06Z</time>
      </trkpt>
      <trkpt lat="50.00429" lon="1.28418">
        <ele>80.9</ele>
        <time>2020-06-18T14:10:07Z</time>
      </trkpt>
      <trkpt lat="50.00425" lon="1.28411">
        <ele>80.9</ele>
        <time>2020-06-18T14:10:08Z</time>
      </trkpt>
      <trkpt lat="50.00421" lon="1.28404">
        <ele>80.9</ele>
        <time>2020-06-18T14:10:09Z</time>
      </trkpt>
      <trkpt lat="50.00417" lon="1.28397">
        <ele>80.9</ele>
        <time>2020-06-18T14:10:10Z</time>
      </trkpt>
      <trkpt lat="50.00412" lon="1.28392">
        <ele>80.9</ele>
        <time>2020-06-18T14:10:11Z</time>
      </trkpt>
      <trkpt lat="50.00407" lon="1.28386">
        <ele>80.9</ele>
        <time>2020-06-18T14:10:12Z</time>
      </trkpt>
      <trkpt lat="50.00403" lon="1.28379">
        <ele>80.9</ele>
        <time>2020-06-18T14:10:13Z</time>
      </trkpt>
      <trkpt lat="50.00398" lon="1.28374">
        <ele>80.9</ele>
        <time>2020-06-18T14:10:14Z</time>
      </trkpt>
      <trkpt lat="50.00394" lon="1.2837">
        <ele>80.9</ele>
        <time>2020-06-18T14:10:15Z</time>
      </trkpt>
      <trkpt lat="50.0039" lon="1.28366">
        <ele>80.9</ele>
        <time>2020-06-18T14:10:16Z</time>
      </trkpt>
      <trkpt lat="50.00385" lon="1.28361">
        <ele>81</ele>
        <time>2020-06-18T14:10:17Z</time>
      </trkpt>
      <trkpt lat="50.0038" lon="1.28357">
        <ele>81</ele>
        <time>2020-06-18T14:10:18Z</time>
      </trkpt>
      <trkpt lat="50.00375" lon="1.28354">
        <ele>81</ele>
        <time>2020-06-18T14:10:19Z</time>
      </trkpt>
      <trkpt lat="50.0037" lon="1.28351">
        <ele>81.1</ele>
        <time>2020-06-18T14:10:20Z</time>
      </trkpt>
      <trkpt lat="50.00365" lon="1.28348">
        <ele>81.1</ele>
        <time>2020-06-18T14:10:21Z</time>
      </trkpt>
      <trkpt lat="50.00359" lon="1.28344">
        <ele>81.2</ele>
        <time>2020-06-18T14:10:22Z</time>
      </trkpt>
      <trkpt lat="50.00354" lon="1.28342">
        <ele>81.3</ele>
        <time>2020-06-18T14:10:23Z</time>
      </trkpt>
      <trkpt lat="50.00348" lon="1.2834">
        <ele>81.3</ele>
        <time>2020-06-18T14:10:24Z</time>
      </trkpt>
      <trkpt lat="50.00342" lon="1.28338">
        <ele>81.4</ele>
        <time>2020-06-18T14:10:25Z</time>
      </trkpt>
      <trkpt lat="50.00337" lon="1.28336">
        <ele>81.5</ele>
        <time>2020-06-18T14:10:26Z</time>
      </trkpt>
      <trkpt lat="50.00332" lon="1.28334">
        <ele>81.5</ele>
        <time>2020-06-18T14:10:27Z</time>
      </trkpt>
      <trkpt lat="50.00326" lon="1.28333">
        <ele>81.5</ele>
        <time>2020-06-18T14:10:28Z</time>
      </trkpt>
      <trkpt lat="50.00321" lon="1.28332">
        <ele>81.6</ele>
        <time>2020-06-18T14:10:29Z</time>
      </trkpt>
      <trkpt lat="50.00315" lon="1.28331">
        <ele>81.6</ele>
        <time>2020-06-18T14:10:30Z</time>
      </trkpt>
      <trkpt lat="50.0031" lon="1.2833">
        <ele>81.7</ele>
        <time>2020-06-18T14:10:31Z</time>
      </trkpt>
      <trkpt lat="50.00304" lon="1.28329">
        <ele>81.7</ele>
        <time>2020-06-18T14:10:32Z</time>
      </trkpt>
      <trkpt lat="50.003" lon="1.28326">
        <ele>81.8</ele>
        <time>2020-06-18T14:10:33Z</time>
      </trkpt>
      <trkpt lat="50.00296" lon="1.28324">
        <ele>81.8</ele>
        <time>2020-06-18T14:10:34Z</time>
      </trkpt>
      <trkpt lat="50.00291" lon="1.28321">
        <ele>81.9</ele>
        <time>2020-06-18T14:10:35Z</time>
      </trkpt>
      <trkpt lat="50.00287" lon="1.28319">
        <ele>81.9</ele>
        <time>2020-06-18T14:10:36Z</time>
      </trkpt>
      <trkpt lat="50.00284" lon="1.28318">
        <ele>81.9</ele>
        <time>2020-06-18T14:10:37Z</time>
      </trkpt>
      <trkpt lat="50.0028" lon="1.28317">
        <ele>82</ele>
        <time>2020-06-18T14:10:38Z</time>
      </trkpt>
      <trkpt lat="50.00276" lon="1.28314">
        <ele>82</ele>
        <time>2020-06-18T14:10:39Z</time>
      </trkpt>
      <trkpt lat="50.00271" lon="1.28313">
        <ele>82</ele>
        <time>2020-06-18T14:10:40Z</time>
      </trkpt>
      <trkpt lat="50.00266" lon="1.28312">
        <ele>82.1</ele>
        <time>2020-06-18T14:10:41Z</time>
      </trkpt>
      <trkpt lat="50.00261" lon="1.2831">
        <ele>82.1</ele>
        <time>2020-06-18T14:10:42Z</time>
      </trkpt>
      <trkpt lat="50.00256" lon="1.28308">
        <ele>82.2</ele>
        <time>2020-06-18T14:10:43Z</time>
      </trkpt>
      <trkpt lat="50.00252" lon="1.28307">
        <ele>82.2</ele>
        <time>2020-06-18T14:10:44Z</time>
      </trkpt>
      <trkpt lat="50.00246" lon="1.28306">
        <ele>82.3</ele>
        <time>2020-06-18T14:10:45Z</time>
      </trkpt>
      <trkpt lat="50.00241" lon="1.28305">
        <ele>82.4</ele>
        <time>2020-06-18T14:10:46Z</time>
      </trkpt>
      <trkpt lat="50.00236" lon="1.28305">
        <ele>82.4</ele>
        <time>2020-06-18T14:10:47Z</time>
      </trkpt>
      <trkpt lat="50.00232" lon="1.28303">
        <ele>82.5</ele>
        <time>2020-06-18T14:10:48Z</time>
      </trkpt>
      <trkpt lat="50.00226" lon="1.28303">
        <ele>82.6</ele>
        <time>2020-06-18T14:10:49Z</time>
      </trkpt>
      <trkpt lat="50.00222" lon="1.28303">
        <ele>82.6</ele>
        <time>2020-06-18T14:10:50Z</time>
      </trkpt>
      <trkpt lat="50.00218" lon="1.28302">
        <ele>82.7</ele>
        <time>2020-06-18T14:10:51Z</time>
      </trkpt>
      <trkpt lat="50.00215" lon="1.28302">
        <ele>82.7</ele>
        <time>2020-06-18T14:10:52Z</time>
      </trkpt>
      <trkpt lat="50.00212" lon="1.28307">
        <ele>82.7</ele>
        <time>2020-06-18T14:10:53Z</time>
      </trkpt>
      <trkpt lat="50.00211" lon="1.28309">
        <ele>82.7</ele>
        <time>2020-06-18T14:10:54Z</time>
      </trkpt>
      <trkpt lat="50.0021" lon="1.28315">
        <ele>82.7</ele>
        <time>2020-06-18T14:10:55Z</time>
      </trkpt>
      <trkpt lat="50.00209" lon="1.2832">
        <ele>82.7</ele>
        <time>2020-06-18T14:10:56Z</time>
      </trkpt>
      <trkpt lat="50.00208" lon="1.28325">
        <ele>82.8</ele>
        <time>2020-06-18T14:10:57Z</time>
      </trkpt>
      <trkpt lat="50.00206" lon="1.2833">
        <ele>82.8</ele>
        <time>2020-06-18T14:10:58Z</time>
      </trkpt>
      <trkpt lat="50.00204" lon="1.28336">
        <ele>82.8</ele>
        <time>2020-06-18T14:10:59Z</time>
      </trkpt>
      <trkpt lat="50.002" lon="1.2834">
        <ele>82.8</ele>
        <time>2020-06-18T14:11:00Z</time>
      </trkpt>
      <trkpt lat="50.00197" lon="1.28345">
        <ele>82.9</ele>
        <time>2020-06-18T14:11:01Z</time>
      </trkpt>
      <trkpt lat="50.00196" lon="1.28351">
        <ele>82.9</ele>
        <time>2020-06-18T14:11:02Z</time>
      </trkpt>
      <trkpt lat="50.00194" lon="1.28356">
        <ele>83</ele>
        <time>2020-06-18T14:11:03Z</time>
      </trkpt>
      <trkpt lat="50.00192" lon="1.28361">
        <ele>83</ele>
        <time>2020-06-18T14:11:04Z</time>
      </trkpt>
      <trkpt lat="50.0019" lon="1.28365">
        <ele>83.1</ele>
        <time>2020-06-18T14:11:05Z</time>
      </trkpt>
      <trkpt lat="50.00189" lon="1.28369">
        <ele>83.1</ele>
        <time>2020-06-18T14:11:06Z</time>
      </trkpt>
      <trkpt lat="50.00189" lon="1.28375">
        <ele>83.2</ele>
        <time>2020-06-18T14:11:07Z</time>
      </trkpt>
      <trkpt lat="50.00188" lon="1.28379">
        <ele>83.3</ele>
        <time>2020-06-18T14:11:08Z</time>
      </trkpt>
      <trkpt lat="50.00184" lon="1.28384">
        <ele>83.4</ele>
        <time>2020-06-18T14:11:09Z</time>
      </trkpt>
      <trkpt lat="50.00182" lon="1.28388">
        <ele>83.5</ele>
        <time>2020-06-18T14:11:10Z</time>
      </trkpt>
      <trkpt lat="50.00179" lon="1.28392">
        <ele>83.6</ele>
        <time>2020-06-18T14:11:11Z</time>
      </trkpt>
      <trkpt lat="50.00177" lon="1.28392">
        <ele>83.6</ele>
        <time>2020-06-18T14:11:12Z</time>
      </trkpt>
      <trkpt lat="50.00175" lon="1.28394">
        <ele>83.8</ele>
        <time>2020-06-18T14:11:13Z</time>
      </trkpt>
      <trkpt lat="50.00173" lon="1.28398">
        <ele>83.8</ele>
        <time>2020-06-18T14:11:14Z</time>
      </trkpt>
      <trkpt lat="50.00172" lon="1.28399">
        <ele>83.8</ele>
        <time>2020-06-18T14:11:15Z</time>
      </trkpt>
      <trkpt lat="50.00171" lon="1.28401">
        <ele>83.8</ele>
        <time>2020-06-18T14:11:16Z</time>
      </trkpt>
      <trkpt lat="50.00171" lon="1.28403">
        <ele>83.7</ele>
        <time>2020-06-18T14:11:17Z</time>
      </trkpt>
      <trkpt lat="50.00172" lon="1.28403">
        <ele>83.7</ele>
        <time>2020-06-18T14:11:18Z</time>
      </trkpt>
      <trkpt lat="50.00173" lon="1.28402">
        <ele>83.7</ele>
        <time>2020-06-18T14:11:19Z</time>
      </trkpt>
      <trkpt lat="50.00173" lon="1.28401">
        <ele>83.7</ele>
        <time>2020-06-18T14:11:20Z</time>
      </trkpt>
      <trkpt lat="50.00174" lon="1.28399">
        <ele>83.7</ele>
        <time>2020-06-18T14:11:21Z</time>
      </trkpt>
      <trkpt lat="50.00174" lon="1.28398">
        <ele>83.7</ele>
        <time>2020-06-18T14:11:22Z</time>
      </trkpt>
      <trkpt lat="50.00175" lon="1.28397">
        <ele>83.7</ele>
        <time>2020-06-18T14:11:23Z</time>
      </trkpt>
      <trkpt lat="50.00176" lon="1.28392">
        <ele>83.6</ele>
        <time>2020-06-18T14:11:24Z</time>
      </trkpt>
      <trkpt lat="50.00178" lon="1.28387">
        <ele>83.5</ele>
        <time>2020-06-18T14:11:25Z</time>
      </trkpt>
      <trkpt lat="50.0018" lon="1.28383">
        <ele>83.1</ele>
        <time>2020-06-18T14:11:26Z</time>
      </trkpt>
      <trkpt lat="50.00182" lon="1.28383">
        <ele>83.1</ele>
        <time>2020-06-18T14:11:27Z</time>
      </trkpt>
      <trkpt lat="50.00184" lon="1.28384">
        <ele>83.1</ele>
        <time>2020-06-18T14:11:28Z</time>
      </trkpt>
      <trkpt lat="50.00188" lon="1.28389">
        <ele>83.1</ele>
        <time>2020-06-18T14:11:29Z</time>
      </trkpt>
      <trkpt lat="50.00193" lon="1.28395">
        <ele>83.1</ele>
        <time>2020-06-18T14:11:30Z</time>
      </trkpt>
      <trkpt lat="50.00196" lon="1.28399">
        <ele>83</ele>
        <time>2020-06-18T14:11:31Z</time>
      </trkpt>
      <trkpt lat="50.002" lon="1.28406">
        <ele>83</ele>
        <time>2020-06-18T14:11:32Z</time>
      </trkpt>
      <trkpt lat="50.00204" lon="1.28411">
        <ele>83</ele>
        <time>2020-06-18T14:11:33Z</time>
      </trkpt>
      <trkpt lat="50.00206" lon="1.28414">
        <ele>82.9</ele>
        <time>2020-06-18T14:11:34Z</time>
      </trkpt>
      <trkpt lat="50.0021" lon="1.28418">
        <ele>82.9</ele>
        <time>2020-06-18T14:11:35Z</time>
      </trkpt>
      <trkpt lat="50.00213" lon="1.28421">
        <ele>82.8</ele>
        <time>2020-06-18T14:11:36Z</time>
      </trkpt>
      <trkpt lat="50.00217" lon="1.28423">
        <ele>82.7</ele>
        <time>2020-06-18T14:11:37Z</time>
      </trkpt>
      <trkpt lat="50.0022" lon="1.28428">
        <ele>82.6</ele>
        <time>2020-06-18T14:11:38Z</time>
      </trkpt>
      <trkpt lat="50.00224" lon="1.28429">
        <ele>82.6</ele>
        <time>2020-06-18T14:11:39Z</time>
      </trkpt>
      <trkpt lat="50.00228" lon="1.28433">
        <ele>82.5</ele>
        <time>2020-06-18T14:11:40Z</time>
      </trkpt>
      <trkpt lat="50.00231" lon="1.28437">
        <ele>82.4</ele>
        <time>2020-06-18T14:11:41Z</time>
      </trkpt>
      <trkpt lat="50.00235" lon="1.28441">
        <ele>82.3</ele>
        <time>2020-06-18T14:11:42Z</time>
      </trkpt>
      <trkpt lat="50.00238" lon="1.28445">
        <ele>82.3</ele>
        <time>2020-06-18T14:11:43Z</time>
      </trkpt>
      <trkpt lat="50.00242" lon="1.2845">
        <ele>82.2</ele>
        <time>2020-06-18T14:11:44Z</time>
      </trkpt>
      <trkpt lat="50.00247" lon="1.28456">
        <ele>82.2</ele>
        <time>2020-06-18T14:11:45Z</time>
      </trkpt>
      <trkpt lat="50.00252" lon="1.28463">
        <ele>82.1</ele>
        <time>2020-06-18T14:11:46Z</time>
      </trkpt>
      <trkpt lat="50.00256" lon="1.28468">
        <ele>82</ele>
        <time>2020-06-18T14:11:47Z</time>
      </trkpt>
      <trkpt lat="50.0026" lon="1.28474">
        <ele>82</ele>
        <time>2020-06-18T14:11:48Z</time>
      </trkpt>
      <trkpt lat="50.00262" lon="1.28479">
        <ele>82</ele>
        <time>2020-06-18T14:11:49Z</time>
      </trkpt>
      <trkpt lat="50.00265" lon="1.28485">
        <ele>82</ele>
        <time>2020-06-18T14:11:50Z</time>
      </trkpt>
      <trkpt lat="50.00268" lon="1.28492">
        <ele>82</ele>
        <time>2020-06-18T14:11:51Z</time>
      </trkpt>
      <trkpt lat="50.00273" lon="1.28501">
        <ele>82</ele>
        <time>2020-06-18T14:11:52Z</time>
      </trkpt>
      <trkpt lat="50.00276" lon="1.28509">
        <ele>82</ele>
        <time>2020-06-18T14:11:53Z</time>
      </trkpt>
      <trkpt lat="50.0028" lon="1.28518">
        <ele>82</ele>
        <time>2020-06-18T14:11:54Z</time>
      </trkpt>
      <trkpt lat="50.00285" lon="1.28526">
        <ele>82</ele>
        <time>2020-06-18T14:11:55Z</time>
      </trkpt>
      <trkpt lat="50.00289" lon="1.28534">
        <ele>81.9</ele>
        <time>2020-06-18T14:11:56Z</time>
      </trkpt>
      <trkpt lat="50.00293" lon="1.28543">
        <ele>81.9</ele>
        <time>2020-06-18T14:11:57Z</time>
      </trkpt>
      <trkpt lat="50.00296" lon="1.2855">
        <ele>81.9</ele>
        <time>2020-06-18T14:11:58Z</time>
      </trkpt>
      <trkpt lat="50.00298" lon="1.28557">
        <ele>82</ele>
        <time>2020-06-18T14:11:59Z</time>
      </trkpt>
      <trkpt lat="50.003" lon="1.28564">
        <ele>82</ele>
        <time>2020-06-18T14:12:00Z</time>
      </trkpt>
      <trkpt lat="50.00304" lon="1.28572">
        <ele>82</ele>
        <time>2020-06-18T14:12:01Z</time>
      </trkpt>
      <trkpt lat="50.00306" lon="1.2858">
        <ele>82.1</ele>
        <time>2020-06-18T14:12:02Z</time>
      </trkpt>
      <trkpt lat="50.00309" lon="1.28588">
        <ele>82.2</ele>
        <time>2020-06-18T14:12:03Z</time>
      </trkpt>
      <trkpt lat="50.00311" lon="1.28597">
        <ele>82.2</ele>
        <time>2020-06-18T14:12:04Z</time>
      </trkpt>
      <trkpt lat="50.00314" lon="1.28607">
        <ele>82.1</ele>
        <time>2020-06-18T14:12:05Z</time>
      </trkpt>
      <trkpt lat="50.00316" lon="1.28616">
        <ele>82.1</ele>
        <time>2020-06-18T14:12:06Z</time>
      </trkpt>
      <trkpt lat="50.00318" lon="1.28626">
        <ele>82</ele>
        <time>2020-06-18T14:12:07Z</time>
      </trkpt>
      <trkpt lat="50.0032" lon="1.28635">
        <ele>81.9</ele>
        <time>2020-06-18T14:12:08Z</time>
      </trkpt>
      <trkpt lat="50.00322" lon="1.28644">
        <ele>81.9</ele>
        <time>2020-06-18T14:12:09Z</time>
      </trkpt>
      <trkpt lat="50.00324" lon="1.28654">
        <ele>81.9</ele>
        <time>2020-06-18T14:12:10Z</time>
      </trkpt>
      <trkpt lat="50.00325" lon="1.28662">
        <ele>81.9</ele>
        <time>2020-06-18T14:12:11Z</time>
      </trkpt>
      <trkpt lat="50.00327" lon="1.2867">
        <ele>81.8</ele>
        <time>2020-06-18T14:12:12Z</time>
      </trkpt>
      <trkpt lat="50.0033" lon="1.28679">
        <ele>81.8</ele>
        <time>2020-06-18T14:12:13Z</time>
      </trkpt>
      <trkpt lat="50.00332" lon="1.28688">
        <ele>81.8</ele>
        <time>2020-06-18T14:12:14Z</time>
      </trkpt>
      <trkpt lat="50.00334" lon="1.28696">
        <ele>81.8</ele>
        <time>2020-06-18T14:12:15Z</time>
      </trkpt>
      <trkpt lat="50.00337" lon="1.28703">
        <ele>81.8</ele>
        <time>2020-06-18T14:12:16Z</time>
      </trkpt>
      <trkpt lat="50.00339" lon="1.2871">
        <ele>81.8</ele>
        <time>2020-06-18T14:12:17Z</time>
      </trkpt>
      <trkpt lat="50.00342" lon="1.28717">
        <ele>81.8</ele>
        <time>2020-06-18T14:12:18Z</time>
      </trkpt>
      <trkpt lat="50.00345" lon="1.28724">
        <ele>81.7</ele>
        <time>2020-06-18T14:12:19Z</time>
      </trkpt>
      <trkpt lat="50.00349" lon="1.28731">
        <ele>81.7</ele>
        <time>2020-06-18T14:12:20Z</time>
      </trkpt>
      <trkpt lat="50.00353" lon="1.28738">
        <ele>81.7</ele>
        <time>2020-06-18T14:12:21Z</time>
      </trkpt>
      <trkpt lat="50.00357" lon="1.28745">
        <ele>81.8</ele>
        <time>2020-06-18T14:12:22Z</time>
      </trkpt>
      <trkpt lat="50.00362" lon="1.28753">
        <ele>81.8</ele>
        <time>2020-06-18T14:12:23Z</time>
      </trkpt>
      <trkpt lat="50.00366" lon="1.28761">
        <ele>81.8</ele>
        <time>2020-06-18T14:12:24Z</time>
      </trkpt>
      <trkpt lat="50.0037" lon="1.28767">
        <ele>81.9</ele>
        <time>2020-06-18T14:12:25Z</time>
      </trkpt>
      <trkpt lat="50.00373" lon="1.28774">
        <ele>81.9</ele>
        <time>2020-06-18T14:12:26Z</time>
      </trkpt>
      <trkpt lat="50.00376" lon="1.2878">
        <ele>81.9</ele>
        <time>2020-06-18T14:12:27Z</time>
      </trkpt>
      <trkpt lat="50.00378" lon="1.28786">
        <ele>81.9</ele>
        <time>2020-06-18T14:12:28Z</time>
      </trkpt>
      <trkpt lat="50.00379" lon="1.28791">
        <ele>81.9</ele>
        <time>2020-06-18T14:12:29Z</time>
      </trkpt>
      <trkpt lat="50.00379" lon="1.28798">
        <ele>81.9</ele>
        <time>2020-06-18T14:12:30Z</time>
      </trkpt>
      <trkpt lat="50.00378" lon="1.28805">
        <ele>81.8</ele>
        <time>2020-06-18T14:12:31Z</time>
      </trkpt>
      <trkpt lat="50.00377" lon="1.28813">
        <ele>81.7</ele>
        <time>2020-06-18T14:12:32Z</time>
      </trkpt>
      <trkpt lat="50.00376" lon="1.28822">
        <ele>81.7</ele>
        <time>2020-06-18T14:12:33Z</time>
      </trkpt>
      <trkpt lat="50.00375" lon="1.28831">
        <ele>81.7</ele>
        <time>2020-06-18T14:12:34Z</time>
      </trkpt>
      <trkpt lat="50.00374" lon="1.28838">
        <ele>81.8</ele>
        <time>2020-06-18T14:12:35Z</time>
      </trkpt>
      <trkpt lat="50.00373" lon="1.28845">
        <ele>81.8</ele>
        <time>2020-06-18T14:12:36Z</time>
      </trkpt>
      <trkpt lat="50.00372" lon="1.2885">
        <ele>81.7</ele>
        <time>2020-06-18T14:12:37Z</time>
      </trkpt>
      <trkpt lat="50.00372" lon="1.28855">
        <ele>81.6</ele>
        <time>2020-06-18T14:12:38Z</time>
      </trkpt>
      <trkpt lat="50.00371" lon="1.2886">
        <ele>81.4</ele>
        <time>2020-06-18T14:12:39Z</time>
      </trkpt>
      <trkpt lat="50.00372" lon="1.28866">
        <ele>81.1</ele>
        <time>2020-06-18T14:12:40Z</time>
      </trkpt>
      <trkpt lat="50.00375" lon="1.28873">
        <ele>80.9</ele>
        <time>2020-06-18T14:12:41Z</time>
      </trkpt>
      <trkpt lat="50.00379" lon="1.28877">
        <ele>80.8</ele>
        <time>2020-06-18T14:12:42Z</time>
      </trkpt>
      <trkpt lat="50.00383" lon="1.28881">
        <ele>80.6</ele>
        <time>2020-06-18T14:12:43Z</time>
      </trkpt>
      <trkpt lat="50.00387" lon="1.28885">
        <ele>80.5</ele>
        <time>2020-06-18T14:12:44Z</time>
      </trkpt>
      <trkpt lat="50.00391" lon="1.2889">
        <ele>80.4</ele>
        <time>2020-06-18T14:12:45Z</time>
      </trkpt>
      <trkpt lat="50.00396" lon="1.28895">
        <ele>80.3</ele>
        <time>2020-06-18T14:12:46Z</time>
      </trkpt>
      <trkpt lat="50.00401" lon="1.28901">
        <ele>80.1</ele>
        <time>2020-06-18T14:12:47Z</time>
      </trkpt>
      <trkpt lat="50.00405" lon="1.28907">
        <ele>80</ele>
        <time>2020-06-18T14:12:48Z</time>
      </trkpt>
      <trkpt lat="50.0041" lon="1.28911">
        <ele>79.9</ele>
        <time>2020-06-18T14:12:49Z</time>
      </trkpt>
      <trkpt lat="50.00415" lon="1.28916">
        <ele>79.9</ele>
        <time>2020-06-18T14:12:50Z</time>
      </trkpt>
      <trkpt lat="50.0042" lon="1.2892">
        <ele>79.8</ele>
        <time>2020-06-18T14:12:51Z</time>
      </trkpt>
      <trkpt lat="50.00424" lon="1.28924">
        <ele>79.8</ele>
        <time>2020-06-18T14:12:52Z</time>
      </trkpt>
      <trkpt lat="50.00429" lon="1.28929">
        <ele>79.8</ele>
        <time>2020-06-18T14:12:53Z</time>
      </trkpt>
      <trkpt lat="50.00434" lon="1.28934">
        <ele>79.8</ele>
        <time>2020-06-18T14:12:54Z</time>
      </trkpt>
      <trkpt lat="50.00438" lon="1.2894">
        <ele>79.8</ele>
        <time>2020-06-18T14:12:55Z</time>
      </trkpt>
      <trkpt lat="50.00442" lon="1.28944">
        <ele>79.7</ele>
        <time>2020-06-18T14:12:56Z</time>
      </trkpt>
      <trkpt lat="50.00447" lon="1.28949">
        <ele>79.6</ele>
        <time>2020-06-18T14:12:57Z</time>
      </trkpt>
      <trkpt lat="50.00452" lon="1.28955">
        <ele>79.5</ele>
        <time>2020-06-18T14:12:58Z</time>
      </trkpt>
      <trkpt lat="50.00458" lon="1.28961">
        <ele>79.4</ele>
        <time>2020-06-18T14:12:59Z</time>
      </trkpt>
      <trkpt lat="50.00462" lon="1.28966">
        <ele>79.3</ele>
        <time>2020-06-18T14:13:00Z</time>
      </trkpt>
      <trkpt lat="50.00467" lon="1.28971">
        <ele>79.1</ele>
        <time>2020-06-18T14:13:01Z</time>
      </trkpt>
      <trkpt lat="50.00472" lon="1.28976">
        <ele>79</ele>
        <time>2020-06-18T14:13:02Z</time>
      </trkpt>
      <trkpt lat="50.00478" lon="1.28982">
        <ele>78.9</ele>
        <time>2020-06-18T14:13:03Z</time>
      </trkpt>
      <trkpt lat="50.00482" lon="1.28986">
        <ele>78.8</ele>
        <time>2020-06-18T14:13:04Z</time>
      </trkpt>
      <trkpt lat="50.00488" lon="1.28991">
        <ele>78.8</ele>
        <time>2020-06-18T14:13:05Z</time>
      </trkpt>
      <trkpt lat="50.00493" lon="1.28997">
        <ele>78.6</ele>
        <time>2020-06-18T14:13:06Z</time>
      </trkpt>
      <trkpt lat="50.00499" lon="1.29004">
        <ele>78.5</ele>
        <time>2020-06-18T14:13:07Z</time>
      </trkpt>
      <trkpt lat="50.00505" lon="1.29011">
        <ele>78.4</ele>
        <time>2020-06-18T14:13:08Z</time>
      </trkpt>
      <trkpt lat="50.00511" lon="1.29017">
        <ele>78.4</ele>
        <time>2020-06-18T14:13:09Z</time>
      </trkpt>
      <trkpt lat="50.00516" lon="1.29022">
        <ele>78.3</ele>
        <time>2020-06-18T14:13:10Z</time>
      </trkpt>
      <trkpt lat="50.00523" lon="1.29029">
        <ele>78.3</ele>
        <time>2020-06-18T14:13:11Z</time>
      </trkpt>
      <trkpt lat="50.00528" lon="1.29035">
        <ele>78.2</ele>
        <time>2020-06-18T14:13:12Z</time>
      </trkpt>
      <trkpt lat="50.00533" lon="1.29041">
        <ele>78.1</ele>
        <time>2020-06-18T14:13:13Z</time>
      </trkpt>
      <trkpt lat="50.00538" lon="1.29047">
        <ele>78</ele>
        <time>2020-06-18T14:13:14Z</time>
      </trkpt>
      <trkpt lat="50.00542" lon="1.29052">
        <ele>77.9</ele>
        <time>2020-06-18T14:13:15Z</time>
      </trkpt>
      <trkpt lat="50.00547" lon="1.29058">
        <ele>77.8</ele>
        <time>2020-06-18T14:13:16Z</time>
      </trkpt>
      <trkpt lat="50.00552" lon="1.29064">
        <ele>77.7</ele>
        <time>2020-06-18T14:13:17Z</time>
      </trkpt>
      <trkpt lat="50.00557" lon="1.29069">
        <ele>77.7</ele>
        <time>2020-06-18T14:13:18Z</time>
      </trkpt>
      <trkpt lat="50.00562" lon="1.29075">
        <ele>77.6</ele>
        <time>2020-06-18T14:13:19Z</time>
      </trkpt>
      <trkpt lat="50.00568" lon="1.29082">
        <ele>77.5</ele>
        <time>2020-06-18T14:13:20Z</time>
      </trkpt>
      <trkpt lat="50.00573" lon="1.29088">
        <ele>77.4</ele>
        <time>2020-06-18T14:13:21Z</time>
      </trkpt>
      <trkpt lat="50.00578" lon="1.29093">
        <ele>77.3</ele>
        <time>2020-06-18T14:13:22Z</time>
      </trkpt>
      <trkpt lat="50.00583" lon="1.291">
        <ele>77.2</ele>
        <time>2020-06-18T14:13:23Z</time>
      </trkpt>
      <trkpt lat="50.00589" lon="1.29106">
        <ele>77.1</ele>
        <time>2020-06-18T14:13:24Z</time>
      </trkpt>
      <trkpt lat="50.00595" lon="1.29113">
        <ele>77</ele>
        <time>2020-06-18T14:13:25Z</time>
      </trkpt>
      <trkpt lat="50.00601" lon="1.29118">
        <ele>76.9</ele>
        <time>2020-06-18T14:13:26Z</time>
      </trkpt>
      <trkpt lat="50.00607" lon="1.29125">
        <ele>76.8</ele>
        <time>2020-06-18T14:13:27Z</time>
      </trkpt>
      <trkpt lat="50.00613" lon="1.29131">
        <ele>76.8</ele>
        <time>2020-06-18T14:13:28Z</time>
      </trkpt>
      <trkpt lat="50.00619" lon="1.29138">
        <ele>76.9</ele>
        <time>2020-06-18T14:13:29Z</time>
      </trkpt>
      <trkpt lat="50.00626" lon="1.29145">
        <ele>77.5</ele>
        <time>2020-06-18T14:13:30Z</time>
      </trkpt>
      <trkpt lat="50.00631" lon="1.29151">
        <ele>77.6</ele>
        <time>2020-06-18T14:13:31Z</time>
      </trkpt>
      <trkpt lat="50.00637" lon="1.29155">
        <ele>77.6</ele>
        <time>2020-06-18T14:13:32Z</time>
      </trkpt>
      <trkpt lat="50.00643" lon="1.29162">
        <ele>77.5</ele>
        <time>2020-06-18T14:13:33Z</time>
      </trkpt>
      <trkpt lat="50.00649" lon="1.29168">
        <ele>77.4</ele>
        <time>2020-06-18T14:13:34Z</time>
      </trkpt>
      <trkpt lat="50.00656" lon="1.29175">
        <ele>77.2</ele>
        <time>2020-06-18T14:13:35Z</time>
      </trkpt>
      <trkpt lat="50.00662" lon="1.29182">
        <ele>77.1</ele>
        <time>2020-06-18T14:13:36Z</time>
      </trkpt>
      <trkpt lat="50.00668" lon="1.29189">
        <ele>77</ele>
        <time>2020-06-18T14:13:37Z</time>
      </trkpt>
      <trkpt lat="50.00674" lon="1.29195">
        <ele>76.9</ele>
        <time>2020-06-18T14:13:38Z</time>
      </trkpt>
      <trkpt lat="50.00679" lon="1.292">
        <ele>76.8</ele>
        <time>2020-06-18T14:13:39Z</time>
      </trkpt>
      <trkpt lat="50.00685" lon="1.29207">
        <ele>76.7</ele>
        <time>2020-06-18T14:13:40Z</time>
      </trkpt>
      <trkpt lat="50.00691" lon="1.29213">
        <ele>76.6</ele>
        <time>2020-06-18T14:13:41Z</time>
      </trkpt>
      <trkpt lat="50.00696" lon="1.29221">
        <ele>76.6</ele>
        <time>2020-06-18T14:13:42Z</time>
      </trkpt>
      <trkpt lat="50.00702" lon="1.29228">
        <ele>76.5</ele>
        <time>2020-06-18T14:13:43Z</time>
      </trkpt>
      <trkpt lat="50.00709" lon="1.29235">
        <ele>76.4</ele>
        <time>2020-06-18T14:13:44Z</time>
      </trkpt>
      <trkpt lat="50.00714" lon="1.29242">
        <ele>76.3</ele>
        <time>2020-06-18T14:13:45Z</time>
      </trkpt>
      <trkpt lat="50.00719" lon="1.29249">
        <ele>76.2</ele>
        <time>2020-06-18T14:13:46Z</time>
      </trkpt>
      <trkpt lat="50.00724" lon="1.29255">
        <ele>76.1</ele>
        <time>2020-06-18T14:13:47Z</time>
      </trkpt>
      <trkpt lat="50.0073" lon="1.29261">
        <ele>76</ele>
        <time>2020-06-18T14:13:48Z</time>
      </trkpt>
      <trkpt lat="50.00735" lon="1.29268">
        <ele>75.9</ele>
        <time>2020-06-18T14:13:49Z</time>
      </trkpt>
      <trkpt lat="50.00739" lon="1.29275">
        <ele>75.8</ele>
        <time>2020-06-18T14:13:50Z</time>
      </trkpt>
      <trkpt lat="50.00744" lon="1.29282">
        <ele>75.6</ele>
        <time>2020-06-18T14:13:51Z</time>
      </trkpt>
      <trkpt lat="50.00749" lon="1.29288">
        <ele>75.5</ele>
        <time>2020-06-18T14:13:52Z</time>
      </trkpt>
      <trkpt lat="50.00753" lon="1.29294">
        <ele>75.5</ele>
        <time>2020-06-18T14:13:53Z</time>
      </trkpt>
      <trkpt lat="50.00757" lon="1.29298">
        <ele>75.4</ele>
        <time>2020-06-18T14:13:54Z</time>
      </trkpt>
      <trkpt lat="50.00762" lon="1.29304">
        <ele>75.4</ele>
        <time>2020-06-18T14:13:55Z</time>
      </trkpt>
      <trkpt lat="50.00766" lon="1.29309">
        <ele>75.3</ele>
        <time>2020-06-18T14:13:56Z</time>
      </trkpt>
      <trkpt lat="50.0077" lon="1.29315">
        <ele>75.3</ele>
        <time>2020-06-18T14:13:57Z</time>
      </trkpt>
      <trkpt lat="50.00775" lon="1.2932">
        <ele>75.2</ele>
        <time>2020-06-18T14:13:58Z</time>
      </trkpt>
      <trkpt lat="50.00779" lon="1.29326">
        <ele>75.1</ele>
        <time>2020-06-18T14:13:59Z</time>
      </trkpt>
      <trkpt lat="50.00783" lon="1.29332">
        <ele>75</ele>
        <time>2020-06-18T14:14:00Z</time>
      </trkpt>
      <trkpt lat="50.00786" lon="1.29338">
        <ele>74.9</ele>
        <time>2020-06-18T14:14:01Z</time>
      </trkpt>
      <trkpt lat="50.00789" lon="1.29343">
        <ele>74.8</ele>
        <time>2020-06-18T14:14:02Z</time>
      </trkpt>
      <trkpt lat="50.00792" lon="1.29347">
        <ele>74.8</ele>
        <time>2020-06-18T14:14:03Z</time>
      </trkpt>
      <trkpt lat="50.00795" lon="1.2935">
        <ele>74.7</ele>
        <time>2020-06-18T14:14:04Z</time>
      </trkpt>
      <trkpt lat="50.00797" lon="1.29353">
        <ele>74.6</ele>
        <time>2020-06-18T14:14:05Z</time>
      </trkpt>
      <trkpt lat="50.00799" lon="1.29356">
        <ele>74.5</ele>
        <time>2020-06-18T14:14:06Z</time>
      </trkpt>
      <trkpt lat="50.008" lon="1.29357">
        <ele>74.5</ele>
        <time>2020-06-18T14:14:07Z</time>
      </trkpt>
      <trkpt lat="50.00803" lon="1.2936">
        <ele>74.4</ele>
        <time>2020-06-18T14:14:08Z</time>
      </trkpt>
      <trkpt lat="50.00805" lon="1.29362">
        <ele>74.4</ele>
        <time>2020-06-18T14:14:09Z</time>
      </trkpt>
      <trkpt lat="50.00808" lon="1.29364">
        <ele>74.3</ele>
        <time>2020-06-18T14:14:10Z</time>
      </trkpt>
      <trkpt lat="50.00811" lon="1.29367">
        <ele>74.2</ele>
        <time>2020-06-18T14:14:11Z</time>
      </trkpt>
      <trkpt lat="50.00814" lon="1.29371">
        <ele>74.1</ele>
        <time>2020-06-18T14:14:12Z</time>
      </trkpt>
      <trkpt lat="50.00817" lon="1.29374">
        <ele>74</ele>
        <time>2020-06-18T14:14:13Z</time>
      </trkpt>
      <trkpt lat="50.0082" lon="1.29379">
        <ele>73.9</ele>
        <time>2020-06-18T14:14:14Z</time>
      </trkpt>
      <trkpt lat="50.00823" lon="1.29383">
        <ele>73.8</ele>
        <time>2020-06-18T14:14:15Z</time>
      </trkpt>
      <trkpt lat="50.00826" lon="1.29389">
        <ele>73.7</ele>
        <time>2020-06-18T14:14:16Z</time>
      </trkpt>
      <trkpt lat="50.0083" lon="1.29395">
        <ele>73.6</ele>
        <time>2020-06-18T14:14:17Z</time>
      </trkpt>
      <trkpt lat="50.00833" lon="1.29402">
        <ele>73.4</ele>
        <time>2020-06-18T14:14:18Z</time>
      </trkpt>
      <trkpt lat="50.00836" lon="1.29408">
        <ele>73.3</ele>
        <time>2020-06-18T14:14:19Z</time>
      </trkpt>
      <trkpt lat="50.00838" lon="1.29415">
        <ele>73.1</ele>
        <time>2020-06-18T14:14:20Z</time>
      </trkpt>
      <trkpt lat="50.00842" lon="1.29421">
        <ele>72.9</ele>
        <time>2020-06-18T14:14:21Z</time>
      </trkpt>
      <trkpt lat="50.00846" lon="1.29427">
        <ele>72.6</ele>
        <time>2020-06-18T14:14:22Z</time>
      </trkpt>
      <trkpt lat="50.00848" lon="1.29431">
        <ele>72.5</ele>
        <time>2020-06-18T14:14:23Z</time>
      </trkpt>
      <trkpt lat="50.00853" lon="1.29438">
        <ele>72.2</ele>
        <time>2020-06-18T14:14:24Z</time>
      </trkpt>
      <trkpt lat="50.00857" lon="1.29446">
        <ele>71.9</ele>
        <time>2020-06-18T14:14:25Z</time>
      </trkpt>
      <trkpt lat="50.0086" lon="1.29452">
        <ele>71.7</ele>
        <time>2020-06-18T14:14:26Z</time>
      </trkpt>
      <trkpt lat="50.00864" lon="1.29459">
        <ele>71.5</ele>
        <time>2020-06-18T14:14:27Z</time>
      </trkpt>
      <trkpt lat="50.00867" lon="1.29466">
        <ele>71.2</ele>
        <time>2020-06-18T14:14:28Z</time>
      </trkpt>
      <trkpt lat="50.00871" lon="1.29472">
        <ele>71</ele>
        <time>2020-06-18T14:14:29Z</time>
      </trkpt>
      <trkpt lat="50.00875" lon="1.2948">
        <ele>70.7</ele>
        <time>2020-06-18T14:14:30Z</time>
      </trkpt>
      <trkpt lat="50.00879" lon="1.29486">
        <ele>70.4</ele>
        <time>2020-06-18T14:14:31Z</time>
      </trkpt>
      <trkpt lat="50.00884" lon="1.29496">
        <ele>70</ele>
        <time>2020-06-18T14:14:32Z</time>
      </trkpt>
      <trkpt lat="50.00889" lon="1.29504">
        <ele>69.6</ele>
        <time>2020-06-18T14:14:33Z</time>
      </trkpt>
      <trkpt lat="50.00893" lon="1.29512">
        <ele>69.1</ele>
        <time>2020-06-18T14:14:34Z</time>
      </trkpt>
      <trkpt lat="50.00898" lon="1.2952">
        <ele>68.7</ele>
        <time>2020-06-18T14:14:35Z</time>
      </trkpt>
      <trkpt lat="50.00902" lon="1.29527">
        <ele>68.3</ele>
        <time>2020-06-18T14:14:36Z</time>
      </trkpt>
      <trkpt lat="50.00906" lon="1.29535">
        <ele>67.8</ele>
        <time>2020-06-18T14:14:37Z</time>
      </trkpt>
      <trkpt lat="50.0091" lon="1.29545">
        <ele>67.3</ele>
        <time>2020-06-18T14:14:38Z</time>
      </trkpt>
      <trkpt lat="50.00915" lon="1.29557">
        <ele>66.8</ele>
        <time>2020-06-18T14:14:39Z</time>
      </trkpt>
      <trkpt lat="50.0092" lon="1.29567">
        <ele>66.3</ele>
        <time>2020-06-18T14:14:40Z</time>
      </trkpt>
      <trkpt lat="50.00925" lon="1.29576">
        <ele>65.8</ele>
        <time>2020-06-18T14:14:41Z</time>
      </trkpt>
      <trkpt lat="50.0093" lon="1.29585">
        <ele>65.3</ele>
        <time>2020-06-18T14:14:42Z</time>
      </trkpt>
      <trkpt lat="50.00936" lon="1.29594">
        <ele>64.8</ele>
        <time>2020-06-18T14:14:43Z</time>
      </trkpt>
      <trkpt lat="50.00941" lon="1.29602">
        <ele>64.3</ele>
        <time>2020-06-18T14:14:44Z</time>
      </trkpt>
      <trkpt lat="50.00946" lon="1.29611">
        <ele>63.7</ele>
        <time>2020-06-18T14:14:45Z</time>
      </trkpt>
      <trkpt lat="50.00952" lon="1.29622">
        <ele>63.1</ele>
        <time>2020-06-18T14:14:46Z</time>
      </trkpt>
      <trkpt lat="50.00958" lon="1.29634">
        <ele>62.4</ele>
        <time>2020-06-18T14:14:47Z</time>
      </trkpt>
      <trkpt lat="50.00963" lon="1.29645">
        <ele>61.7</ele>
        <time>2020-06-18T14:14:48Z</time>
      </trkpt>
      <trkpt lat="50.00969" lon="1.29656">
        <ele>60.9</ele>
        <time>2020-06-18T14:14:49Z</time>
      </trkpt>
      <trkpt lat="50.00975" lon="1.29668">
        <ele>60.1</ele>
        <time>2020-06-18T14:14:50Z</time>
      </trkpt>
      <trkpt lat="50.0098" lon="1.2968">
        <ele>59.5</ele>
        <time>2020-06-18T14:14:51Z</time>
      </trkpt>
      <trkpt lat="50.00986" lon="1.29692">
        <ele>58.8</ele>
        <time>2020-06-18T14:14:52Z</time>
      </trkpt>
      <trkpt lat="50.00992" lon="1.29704">
        <ele>58.1</ele>
        <time>2020-06-18T14:14:53Z</time>
      </trkpt>
      <trkpt lat="50.00997" lon="1.29716">
        <ele>57.4</ele>
        <time>2020-06-18T14:14:54Z</time>
      </trkpt>
      <trkpt lat="50.01003" lon="1.29728">
        <ele>56.6</ele>
        <time>2020-06-18T14:14:55Z</time>
      </trkpt>
      <trkpt lat="50.01009" lon="1.2974">
        <ele>55.9</ele>
        <time>2020-06-18T14:14:56Z</time>
      </trkpt>
      <trkpt lat="50.01015" lon="1.29752">
        <ele>55.1</ele>
        <time>2020-06-18T14:14:57Z</time>
      </trkpt>
      <trkpt lat="50.01021" lon="1.29763">
        <ele>54.4</ele>
        <time>2020-06-18T14:14:58Z</time>
      </trkpt>
      <trkpt lat="50.01028" lon="1.29774">
        <ele>53.8</ele>
        <time>2020-06-18T14:14:59Z</time>
      </trkpt>
      <trkpt lat="50.01034" lon="1.29784">
        <ele>53.2</ele>
        <time>2020-06-18T14:15:00Z</time>
      </trkpt>
      <trkpt lat="50.01039" lon="1.29795">
        <ele>52.5</ele>
        <time>2020-06-18T14:15:01Z</time>
      </trkpt>
      <trkpt lat="50.01045" lon="1.29805">
        <ele>51.9</ele>
        <time>2020-06-18T14:15:02Z</time>
      </trkpt>
      <trkpt lat="50.01051" lon="1.29815">
        <ele>51.3</ele>
        <time>2020-06-18T14:15:03Z</time>
      </trkpt>
      <trkpt lat="50.01056" lon="1.29824">
        <ele>50.8</ele>
        <time>2020-06-18T14:15:04Z</time>
      </trkpt>
      <trkpt lat="50.01062" lon="1.29832">
        <ele>50.3</ele>
        <time>2020-06-18T14:15:05Z</time>
      </trkpt>
      <trkpt lat="50.01067" lon="1.2984">
        <ele>49.7</ele>
        <time>2020-06-18T14:15:06Z</time>
      </trkpt>
      <trkpt lat="50.01072" lon="1.29849">
        <ele>49.2</ele>
        <time>2020-06-18T14:15:07Z</time>
      </trkpt>
      <trkpt lat="50.01078" lon="1.29856">
        <ele>48.8</ele>
        <time>2020-06-18T14:15:08Z</time>
      </trkpt>
      <trkpt lat="50.01083" lon="1.29864">
        <ele>48.2</ele>
        <time>2020-06-18T14:15:09Z</time>
      </trkpt>
      <trkpt lat="50.01088" lon="1.29873">
        <ele>47.6</ele>
        <time>2020-06-18T14:15:10Z</time>
      </trkpt>
      <trkpt lat="50.01094" lon="1.29882">
        <ele>47.1</ele>
        <time>2020-06-18T14:15:11Z</time>
      </trkpt>
      <trkpt lat="50.011" lon="1.29891">
        <ele>46.5</ele>
        <time>2020-06-18T14:15:12Z</time>
      </trkpt>
      <trkpt lat="50.01106" lon="1.29899">
        <ele>45.9</ele>
        <time>2020-06-18T14:15:13Z</time>
      </trkpt>
      <trkpt lat="50.01111" lon="1.29908">
        <ele>45.3</ele>
        <time>2020-06-18T14:15:14Z</time>
      </trkpt>
      <trkpt lat="50.01117" lon="1.29918">
        <ele>44.7</ele>
        <time>2020-06-18T14:15:15Z</time>
      </trkpt>
      <trkpt lat="50.01123" lon="1.29928">
        <ele>44</ele>
        <time>2020-06-18T14:15:16Z</time>
      </trkpt>
      <trkpt lat="50.01129" lon="1.29938">
        <ele>43.2</ele>
        <time>2020-06-18T14:15:17Z</time>
      </trkpt>
      <trkpt lat="50.01135" lon="1.29948">
        <ele>42.3</ele>
        <time>2020-06-18T14:15:18Z</time>
      </trkpt>
      <trkpt lat="50.0114" lon="1.29959">
        <ele>41.7</ele>
        <time>2020-06-18T14:15:19Z</time>
      </trkpt>
      <trkpt lat="50.01146" lon="1.2997">
        <ele>41.1</ele>
        <time>2020-06-18T14:15:20Z</time>
      </trkpt>
      <trkpt lat="50.01152" lon="1.2998">
        <ele>40.5</ele>
        <time>2020-06-18T14:15:21Z</time>
      </trkpt>
      <trkpt lat="50.01157" lon="1.29989">
        <ele>40</ele>
        <time>2020-06-18T14:15:22Z</time>
      </trkpt>
      <trkpt lat="50.01162" lon="1.29998">
        <ele>39.5</ele>
        <time>2020-06-18T14:15:23Z</time>
      </trkpt>
      <trkpt lat="50.01167" lon="1.30008">
        <ele>38.9</ele>
        <time>2020-06-18T14:15:24Z</time>
      </trkpt>
      <trkpt lat="50.01172" lon="1.30019">
        <ele>38.2</ele>
        <time>2020-06-18T14:15:25Z</time>
      </trkpt>
      <trkpt lat="50.01177" lon="1.30028">
        <ele>37.6</ele>
        <time>2020-06-18T14:15:26Z</time>
      </trkpt>
      <trkpt lat="50.01182" lon="1.30037">
        <ele>37.1</ele>
        <time>2020-06-18T14:15:27Z</time>
      </trkpt>
      <trkpt lat="50.01187" lon="1.30045">
        <ele>36.6</ele>
        <time>2020-06-18T14:15:28Z</time>
      </trkpt>
      <trkpt lat="50.01193" lon="1.30054">
        <ele>36.1</ele>
        <time>2020-06-18T14:15:29Z</time>
      </trkpt>
      <trkpt lat="50.01198" lon="1.30063">
        <ele>35.6</ele>
        <time>2020-06-18T14:15:30Z</time>
      </trkpt>
      <trkpt lat="50.01204" lon="1.30072">
        <ele>35.1</ele>
        <time>2020-06-18T14:15:31Z</time>
      </trkpt>
      <trkpt lat="50.01209" lon="1.30081">
        <ele>34.5</ele>
        <time>2020-06-18T14:15:32Z</time>
      </trkpt>
      <trkpt lat="50.01214" lon="1.3009">
        <ele>34</ele>
        <time>2020-06-18T14:15:33Z</time>
      </trkpt>
      <trkpt lat="50.01219" lon="1.30099">
        <ele>33.5</ele>
        <time>2020-06-18T14:15:34Z</time>
      </trkpt>
      <trkpt lat="50.01224" lon="1.30108">
        <ele>33</ele>
        <time>2020-06-18T14:15:35Z</time>
      </trkpt>
      <trkpt lat="50.01229" lon="1.30117">
        <ele>32.5</ele>
        <time>2020-06-18T14:15:36Z</time>
      </trkpt>
      <trkpt lat="50.01234" lon="1.30126">
        <ele>32</ele>
        <time>2020-06-18T14:15:37Z</time>
      </trkpt>
      <trkpt lat="50.01238" lon="1.30136">
        <ele>31.5</ele>
        <time>2020-06-18T14:15:38Z</time>
      </trkpt>
      <trkpt lat="50.01243" lon="1.30146">
        <ele>31.1</ele>
        <time>2020-06-18T14:15:39Z</time>
      </trkpt>
      <trkpt lat="50.01248" lon="1.30155">
        <ele>30.6</ele>
        <time>2020-06-18T14:15:40Z</time>
      </trkpt>
      <trkpt lat="50.01253" lon="1.30165">
        <ele>30.1</ele>
        <time>2020-06-18T14:15:41Z</time>
      </trkpt>
      <trkpt lat="50.01258" lon="1.30175">
        <ele>29.6</ele>
        <time>2020-06-18T14:15:42Z</time>
      </trkpt>
      <trkpt lat="50.01263" lon="1.30185">
        <ele>29.2</ele>
        <time>2020-06-18T14:15:43Z</time>
      </trkpt>
      <trkpt lat="50.01268" lon="1.30196">
        <ele>28.9</ele>
        <time>2020-06-18T14:15:44Z</time>
      </trkpt>
      <trkpt lat="50.01272" lon="1.30206">
        <ele>28.5</ele>
        <time>2020-06-18T14:15:45Z</time>
      </trkpt>
      <trkpt lat="50.01276" lon="1.30216">
        <ele>28.2</ele>
        <time>2020-06-18T14:15:46Z</time>
      </trkpt>
      <trkpt lat="50.01279" lon="1.30225">
        <ele>28</ele>
        <time>2020-06-18T14:15:47Z</time>
      </trkpt>
      <trkpt lat="50.01283" lon="1.30235">
        <ele>27.8</ele>
        <time>2020-06-18T14:15:48Z</time>
      </trkpt>
      <trkpt lat="50.01286" lon="1.30244">
        <ele>27.5</ele>
        <time>2020-06-18T14:15:49Z</time>
      </trkpt>
      <trkpt lat="50.0129" lon="1.30253">
        <ele>27.3</ele>
        <time>2020-06-18T14:15:50Z</time>
      </trkpt>
      <trkpt lat="50.01293" lon="1.30262">
        <ele>27.1</ele>
        <time>2020-06-18T14:15:51Z</time>
      </trkpt>
      <trkpt lat="50.01297" lon="1.30271">
        <ele>26.9</ele>
        <time>2020-06-18T14:15:52Z</time>
      </trkpt>
      <trkpt lat="50.013" lon="1.3028">
        <ele>26.6</ele>
        <time>2020-06-18T14:15:53Z</time>
      </trkpt>
      <trkpt lat="50.01301" lon="1.30293">
        <ele>26.3</ele>
        <time>2020-06-18T14:15:54Z</time>
      </trkpt>
      <trkpt lat="50.013" lon="1.30305">
        <ele>26</ele>
        <time>2020-06-18T14:15:55Z</time>
      </trkpt>
      <trkpt lat="50.01299" lon="1.30318">
        <ele>25.6</ele>
        <time>2020-06-18T14:15:56Z</time>
      </trkpt>
      <trkpt lat="50.01298" lon="1.30331">
        <ele>25.4</ele>
        <time>2020-06-18T14:15:57Z</time>
      </trkpt>
      <trkpt lat="50.01297" lon="1.30344">
        <ele>25.1</ele>
        <time>2020-06-18T14:15:58Z</time>
      </trkpt>
      <trkpt lat="50.01296" lon="1.30357">
        <ele>24.8</ele>
        <time>2020-06-18T14:15:59Z</time>
      </trkpt>
      <trkpt lat="50.01295" lon="1.3037">
        <ele>24.6</ele>
        <time>2020-06-18T14:16:00Z</time>
      </trkpt>
      <trkpt lat="50.01293" lon="1.30383">
        <ele>24.3</ele>
        <time>2020-06-18T14:16:01Z</time>
      </trkpt>
      <trkpt lat="50.01292" lon="1.30396">
        <ele>24</ele>
        <time>2020-06-18T14:16:02Z</time>
      </trkpt>
      <trkpt lat="50.0129" lon="1.30407">
        <ele>23.8</ele>
        <time>2020-06-18T14:16:03Z</time>
      </trkpt>
      <trkpt lat="50.01288" lon="1.30419">
        <ele>23.5</ele>
        <time>2020-06-18T14:16:04Z</time>
      </trkpt>
      <trkpt lat="50.01287" lon="1.30429">
        <ele>23.3</ele>
        <time>2020-06-18T14:16:05Z</time>
      </trkpt>
      <trkpt lat="50.01286" lon="1.30437">
        <ele>23.1</ele>
        <time>2020-06-18T14:16:06Z</time>
      </trkpt>
      <trkpt lat="50.01285" lon="1.30444">
        <ele>23</ele>
        <time>2020-06-18T14:16:07Z</time>
      </trkpt>
      <trkpt lat="50.01284" lon="1.3045">
        <ele>22.9</ele>
        <time>2020-06-18T14:16:08Z</time>
      </trkpt>
      <trkpt lat="50.01283" lon="1.30455">
        <ele>22.8</ele>
        <time>2020-06-18T14:16:09Z</time>
      </trkpt>
      <trkpt lat="50.01281" lon="1.30459">
        <ele>22.7</ele>
        <time>2020-06-18T14:16:10Z</time>
      </trkpt>
      <trkpt lat="50.01279" lon="1.30462">
        <ele>22.7</ele>
        <time>2020-06-18T14:16:11Z</time>
      </trkpt>
      <trkpt lat="50.01278" lon="1.30463">
        <ele>22.7</ele>
        <time>2020-06-18T14:16:12Z</time>
      </trkpt>
      <trkpt lat="50.01276" lon="1.30467">
        <ele>22.6</ele>
        <time>2020-06-18T14:16:13Z</time>
      </trkpt>
      <trkpt lat="50.01276" lon="1.30467">
        <ele>22.6</ele>
        <time>2020-06-18T14:16:14Z</time>
      </trkpt>
      <trkpt lat="50.01274" lon="1.30468">
        <ele>22.6</ele>
        <time>2020-06-18T14:16:15Z</time>
      </trkpt>
      <trkpt lat="50.01275" lon="1.30469">
        <ele>22.5</ele>
        <time>2020-06-18T14:16:16Z</time>
      </trkpt>
      <trkpt lat="50.01275" lon="1.30471">
        <ele>22.5</ele>
        <time>2020-06-18T14:16:17Z</time>
      </trkpt>
      <trkpt lat="50.01276" lon="1.30472">
        <ele>22.5</ele>
        <time>2020-06-18T14:16:18Z</time>
      </trkpt>
      <trkpt lat="50.01276" lon="1.30472">
        <ele>22.5</ele>
        <time>2020-06-18T14:16:19Z</time>
      </trkpt>
      <trkpt lat="50.01275" lon="1.30472">
        <ele>22.5</ele>
        <time>2020-06-18T14:16:20Z</time>
      </trkpt>
      <trkpt lat="50.01274" lon="1.30472">
        <ele>22.5</ele>
        <time>2020-06-18T14:16:21Z</time>
      </trkpt>
      <trkpt lat="50.01274" lon="1.30472">
        <ele>22.5</ele>
        <time>2020-06-18T14:16:22Z</time>
      </trkpt>
      <trkpt lat="50.01275" lon="1.30473">
        <ele>22.4</ele>
        <time>2020-06-18T14:16:23Z</time>
      </trkpt>
      <trkpt lat="50.01275" lon="1.30474">
        <ele>22.4</ele>
        <time>2020-06-18T14:16:24Z</time>
      </trkpt>
      <trkpt lat="50.01274" lon="1.30474">
        <ele>22.4</ele>
        <time>2020-06-18T14:16:25Z</time>
      </trkpt>
      <trkpt lat="50.01274" lon="1.30474">
        <ele>22.4</ele>
        <time>2020-06-18T14:16:26Z</time>
      </trkpt>
      <trkpt lat="50.01273" lon="1.30473">
        <ele>22.4</ele>
        <time>2020-06-18T14:16:27Z</time>
      </trkpt>
      <trkpt lat="50.01266" lon="1.30475">
        <ele>22.2</ele>
        <time>2020-06-18T14:16:39Z</time>
      </trkpt>
      <trkpt lat="50.01265" lon="1.30477">
        <ele>22.2</ele>
        <time>2020-06-18T14:16:40Z</time>
      </trkpt>
      <trkpt lat="50.01265" lon="1.30481">
        <ele>22.1</ele>
        <time>2020-06-18T14:16:41Z</time>
      </trkpt>
      <trkpt lat="50.01266" lon="1.30483">
        <ele>22.1</ele>
        <time>2020-06-18T14:16:42Z</time>
      </trkpt>
      <trkpt lat="50.01266" lon="1.30485">
        <ele>22</ele>
        <time>2020-06-18T14:16:43Z</time>
      </trkpt>
      <trkpt lat="50.01266" lon="1.30486">
        <ele>22</ele>
        <time>2020-06-18T14:16:44Z</time>
      </trkpt>
      <trkpt lat="50.01266" lon="1.30487">
        <ele>22</ele>
        <time>2020-06-18T14:16:45Z</time>
      </trkpt>
      <trkpt lat="50.01266" lon="1.30488">
        <ele>22</ele>
        <time>2020-06-18T14:16:46Z</time>
      </trkpt>
      <trkpt lat="50.01266" lon="1.30489">
        <ele>22</ele>
        <time>2020-06-18T14:16:47Z</time>
      </trkpt>
      <trkpt lat="50.01266" lon="1.30489">
        <ele>21.9</ele>
        <time>2020-06-18T14:16:48Z</time>
      </trkpt>
      <trkpt lat="50.01265" lon="1.30494">
        <ele>21.8</ele>
        <time>2020-06-18T14:16:49Z</time>
      </trkpt>
      <trkpt lat="50.01264" lon="1.30496">
        <ele>21.8</ele>
        <time>2020-06-18T14:16:50Z</time>
      </trkpt>
      <trkpt lat="50.01263" lon="1.305">
        <ele>21.7</ele>
        <time>2020-06-18T14:16:51Z</time>
      </trkpt>
      <trkpt lat="50.01262" lon="1.30505">
        <ele>21.5</ele>
        <time>2020-06-18T14:16:52Z</time>
      </trkpt>
      <trkpt lat="50.01261" lon="1.30509">
        <ele>21.4</ele>
        <time>2020-06-18T14:16:53Z</time>
      </trkpt>
      <trkpt lat="50.01262" lon="1.30515">
        <ele>21.3</ele>
        <time>2020-06-18T14:16:54Z</time>
      </trkpt>
      <trkpt lat="50.01262" lon="1.30521">
        <ele>21.2</ele>
        <time>2020-06-18T14:16:55Z</time>
      </trkpt>
      <trkpt lat="50.01263" lon="1.30528">
        <ele>21</ele>
        <time>2020-06-18T14:16:56Z</time>
      </trkpt>
      <trkpt lat="50.01264" lon="1.30534">
        <ele>20.9</ele>
        <time>2020-06-18T14:16:57Z</time>
      </trkpt>
      <trkpt lat="50.01266" lon="1.30541">
        <ele>20.8</ele>
        <time>2020-06-18T14:16:58Z</time>
      </trkpt>
      <trkpt lat="50.01267" lon="1.30548">
        <ele>20.6</ele>
        <time>2020-06-18T14:16:59Z</time>
      </trkpt>
      <trkpt lat="50.01269" lon="1.30557">
        <ele>20.5</ele>
        <time>2020-06-18T14:17:00Z</time>
      </trkpt>
      <trkpt lat="50.01271" lon="1.30566">
        <ele>20.3</ele>
        <time>2020-06-18T14:17:01Z</time>
      </trkpt>
      <trkpt lat="50.01272" lon="1.30573">
        <ele>20.1</ele>
        <time>2020-06-18T14:17:02Z</time>
      </trkpt>
      <trkpt lat="50.01274" lon="1.30581">
        <ele>20</ele>
        <time>2020-06-18T14:17:03Z</time>
      </trkpt>
      <trkpt lat="50.01276" lon="1.30591">
        <ele>19.8</ele>
        <time>2020-06-18T14:17:04Z</time>
      </trkpt>
      <trkpt lat="50.01279" lon="1.30601">
        <ele>19.6</ele>
        <time>2020-06-18T14:17:05Z</time>
      </trkpt>
      <trkpt lat="50.01282" lon="1.30611">
        <ele>19.4</ele>
        <time>2020-06-18T14:17:06Z</time>
      </trkpt>
      <trkpt lat="50.01284" lon="1.30619">
        <ele>19.2</ele>
        <time>2020-06-18T14:17:07Z</time>
      </trkpt>
      <trkpt lat="50.01286" lon="1.30626">
        <ele>19.1</ele>
        <time>2020-06-18T14:17:08Z</time>
      </trkpt>
      <trkpt lat="50.01288" lon="1.30633">
        <ele>18.9</ele>
        <time>2020-06-18T14:17:09Z</time>
      </trkpt>
      <trkpt lat="50.01289" lon="1.3064">
        <ele>18.8</ele>
        <time>2020-06-18T14:17:10Z</time>
      </trkpt>
      <trkpt lat="50.01291" lon="1.30648">
        <ele>18.6</ele>
        <time>2020-06-18T14:17:11Z</time>
      </trkpt>
      <trkpt lat="50.01293" lon="1.30657">
        <ele>18.5</ele>
        <time>2020-06-18T14:17:12Z</time>
      </trkpt>
      <trkpt lat="50.01295" lon="1.30664">
        <ele>18.3</ele>
        <time>2020-06-18T14:17:13Z</time>
      </trkpt>
      <trkpt lat="50.01298" lon="1.30674">
        <ele>18.2</ele>
        <time>2020-06-18T14:17:14Z</time>
      </trkpt>
      <trkpt lat="50.013" lon="1.30681">
        <ele>18</ele>
        <time>2020-06-18T14:17:15Z</time>
      </trkpt>
      <trkpt lat="50.01302" lon="1.30688">
        <ele>17.9</ele>
        <time>2020-06-18T14:17:16Z</time>
      </trkpt>
      <trkpt lat="50.01305" lon="1.30696">
        <ele>17.7</ele>
        <time>2020-06-18T14:17:17Z</time>
      </trkpt>
      <trkpt lat="50.01308" lon="1.30704">
        <ele>17.5</ele>
        <time>2020-06-18T14:17:18Z</time>
      </trkpt>
      <trkpt lat="50.01311" lon="1.30711">
        <ele>17.4</ele>
        <time>2020-06-18T14:17:19Z</time>
      </trkpt>
      <trkpt lat="50.01314" lon="1.3072">
        <ele>17.2</ele>
        <time>2020-06-18T14:17:20Z</time>
      </trkpt>
      <trkpt lat="50.01317" lon="1.30729">
        <ele>17</ele>
        <time>2020-06-18T14:17:21Z</time>
      </trkpt>
      <trkpt lat="50.0132" lon="1.30735">
        <ele>16.9</ele>
        <time>2020-06-18T14:17:22Z</time>
      </trkpt>
      <trkpt lat="50.01323" lon="1.30743">
        <ele>16.7</ele>
        <time>2020-06-18T14:17:23Z</time>
      </trkpt>
      <trkpt lat="50.01326" lon="1.30752">
        <ele>16.5</ele>
        <time>2020-06-18T14:17:24Z</time>
      </trkpt>
      <trkpt lat="50.0133" lon="1.30762">
        <ele>16.3</ele>
        <time>2020-06-18T14:17:25Z</time>
      </trkpt>
      <trkpt lat="50.01333" lon="1.30773">
        <ele>16.1</ele>
        <time>2020-06-18T14:17:26Z</time>
      </trkpt>
      <trkpt lat="50.01336" lon="1.30782">
        <ele>16</ele>
        <time>2020-06-18T14:17:27Z</time>
      </trkpt>
      <trkpt lat="50.01339" lon="1.30794">
        <ele>15.7</ele>
        <time>2020-06-18T14:17:28Z</time>
      </trkpt>
      <trkpt lat="50.01341" lon="1.30803">
        <ele>15.6</ele>
        <time>2020-06-18T14:17:29Z</time>
      </trkpt>
      <trkpt lat="50.01343" lon="1.30812">
        <ele>15.4</ele>
        <time>2020-06-18T14:17:30Z</time>
      </trkpt>
      <trkpt lat="50.01347" lon="1.30823">
        <ele>15.2</ele>
        <time>2020-06-18T14:17:31Z</time>
      </trkpt>
      <trkpt lat="50.0135" lon="1.30832">
        <ele>15</ele>
        <time>2020-06-18T14:17:32Z</time>
      </trkpt>
      <trkpt lat="50.01352" lon="1.30842">
        <ele>14.8</ele>
        <time>2020-06-18T14:17:33Z</time>
      </trkpt>
      <trkpt lat="50.01355" lon="1.30851">
        <ele>14.7</ele>
        <time>2020-06-18T14:17:34Z</time>
      </trkpt>
      <trkpt lat="50.01358" lon="1.3086">
        <ele>14.5</ele>
        <time>2020-06-18T14:17:35Z</time>
      </trkpt>
      <trkpt lat="50.01361" lon="1.3087">
        <ele>14.3</ele>
        <time>2020-06-18T14:17:36Z</time>
      </trkpt>
      <trkpt lat="50.01363" lon="1.30878">
        <ele>14.1</ele>
        <time>2020-06-18T14:17:37Z</time>
      </trkpt>
      <trkpt lat="50.01366" lon="1.30889">
        <ele>14</ele>
        <time>2020-06-18T14:17:38Z</time>
      </trkpt>
      <trkpt lat="50.01369" lon="1.30897">
        <ele>13.8</ele>
        <time>2020-06-18T14:17:39Z</time>
      </trkpt>
      <trkpt lat="50.01372" lon="1.30906">
        <ele>13.7</ele>
        <time>2020-06-18T14:17:40Z</time>
      </trkpt>
      <trkpt lat="50.01373" lon="1.3091">
        <ele>13.6</ele>
        <time>2020-06-18T14:17:41Z</time>
      </trkpt>
      <trkpt lat="50.01374" lon="1.30917">
        <ele>13.5</ele>
        <time>2020-06-18T14:17:42Z</time>
      </trkpt>
      <trkpt lat="50.01375" lon="1.30922">
        <ele>13.5</ele>
        <time>2020-06-18T14:17:43Z</time>
      </trkpt>
      <trkpt lat="50.01374" lon="1.30928">
        <ele>13.4</ele>
        <time>2020-06-18T14:17:44Z</time>
      </trkpt>
      <trkpt lat="50.01372" lon="1.30932">
        <ele>13.3</ele>
        <time>2020-06-18T14:17:45Z</time>
      </trkpt>
      <trkpt lat="50.01369" lon="1.30937">
        <ele>13.2</ele>
        <time>2020-06-18T14:17:46Z</time>
      </trkpt>
      <trkpt lat="50.01368" lon="1.30942">
        <ele>13.1</ele>
        <time>2020-06-18T14:17:47Z</time>
      </trkpt>
      <trkpt lat="50.01366" lon="1.30948">
        <ele>13</ele>
        <time>2020-06-18T14:17:48Z</time>
      </trkpt>
      <trkpt lat="50.01367" lon="1.30954">
        <ele>12.9</ele>
        <time>2020-06-18T14:17:49Z</time>
      </trkpt>
      <trkpt lat="50.01369" lon="1.30958">
        <ele>12.8</ele>
        <time>2020-06-18T14:17:50Z</time>
      </trkpt>
      <trkpt lat="50.01372" lon="1.30963">
        <ele>12.7</ele>
        <time>2020-06-18T14:17:51Z</time>
      </trkpt>
      <trkpt lat="50.01375" lon="1.30968">
        <ele>12.6</ele>
        <time>2020-06-18T14:17:52Z</time>
      </trkpt>
      <trkpt lat="50.01378" lon="1.30975">
        <ele>12.5</ele>
        <time>2020-06-18T14:17:53Z</time>
      </trkpt>
      <trkpt lat="50.01381" lon="1.30984">
        <ele>12.4</ele>
        <time>2020-06-18T14:17:54Z</time>
      </trkpt>
      <trkpt lat="50.01385" lon="1.30992">
        <ele>12.3</ele>
        <time>2020-06-18T14:17:55Z</time>
      </trkpt>
      <trkpt lat="50.01388" lon="1.30998">
        <ele>12.2</ele>
        <time>2020-06-18T14:17:56Z</time>
      </trkpt>
      <trkpt lat="50.01391" lon="1.31004">
        <ele>12.1</ele>
        <time>2020-06-18T14:17:57Z</time>
      </trkpt>
      <trkpt lat="50.01396" lon="1.31011">
        <ele>12.1</ele>
        <time>2020-06-18T14:17:58Z</time>
      </trkpt>
      <trkpt lat="50.01399" lon="1.31018">
        <ele>12</ele>
        <time>2020-06-18T14:17:59Z</time>
      </trkpt>
      <trkpt lat="50.01404" lon="1.31025">
        <ele>11.8</ele>
        <time>2020-06-18T14:18:00Z</time>
      </trkpt>
      <trkpt lat="50.01409" lon="1.31033">
        <ele>11.6</ele>
        <time>2020-06-18T14:18:01Z</time>
      </trkpt>
      <trkpt lat="50.01414" lon="1.3104">
        <ele>11.4</ele>
        <time>2020-06-18T14:18:02Z</time>
      </trkpt>
      <trkpt lat="50.01419" lon="1.31048">
        <ele>11.3</ele>
        <time>2020-06-18T14:18:03Z</time>
      </trkpt>
      <trkpt lat="50.01423" lon="1.31056">
        <ele>11.1</ele>
        <time>2020-06-18T14:18:04Z</time>
      </trkpt>
      <trkpt lat="50.01428" lon="1.31065">
        <ele>11</ele>
        <time>2020-06-18T14:18:05Z</time>
      </trkpt>
      <trkpt lat="50.01432" lon="1.31073">
        <ele>10.8</ele>
        <time>2020-06-18T14:18:06Z</time>
      </trkpt>
      <trkpt lat="50.01437" lon="1.31082">
        <ele>10.6</ele>
        <time>2020-06-18T14:18:07Z</time>
      </trkpt>
      <trkpt lat="50.01441" lon="1.31091">
        <ele>10.5</ele>
        <time>2020-06-18T14:18:08Z</time>
      </trkpt>
      <trkpt lat="50.01446" lon="1.311">
        <ele>10.5</ele>
        <time>2020-06-18T14:18:09Z</time>
      </trkpt>
      <trkpt lat="50.0145" lon="1.31109">
        <ele>10.4</ele>
        <time>2020-06-18T14:18:10Z</time>
      </trkpt>
      <trkpt lat="50.01454" lon="1.31118">
        <ele>10.3</ele>
        <time>2020-06-18T14:18:11Z</time>
      </trkpt>
      <trkpt lat="50.01458" lon="1.31126">
        <ele>10.2</ele>
        <time>2020-06-18T14:18:12Z</time>
      </trkpt>
      <trkpt lat="50.01462" lon="1.31133">
        <ele>10.2</ele>
        <time>2020-06-18T14:18:13Z</time>
      </trkpt>
      <trkpt lat="50.01465" lon="1.31141">
        <ele>10.1</ele>
        <time>2020-06-18T14:18:14Z</time>
      </trkpt>
      <trkpt lat="50.01468" lon="1.31149">
        <ele>10</ele>
        <time>2020-06-18T14:18:15Z</time>
      </trkpt>
      <trkpt lat="50.01471" lon="1.31158">
        <ele>10</ele>
        <time>2020-06-18T14:18:16Z</time>
      </trkpt>
      <trkpt lat="50.01472" lon="1.31166">
        <ele>9.9</ele>
        <time>2020-06-18T14:18:17Z</time>
      </trkpt>
      <trkpt lat="50.01473" lon="1.31175">
        <ele>9.9</ele>
        <time>2020-06-18T14:18:18Z</time>
      </trkpt>
      <trkpt lat="50.01475" lon="1.31183">
        <ele>9.9</ele>
        <time>2020-06-18T14:18:19Z</time>
      </trkpt>
      <trkpt lat="50.01478" lon="1.3119">
        <ele>9.9</ele>
        <time>2020-06-18T14:18:20Z</time>
      </trkpt>
      <trkpt lat="50.0148" lon="1.31198">
        <ele>9.9</ele>
        <time>2020-06-18T14:18:21Z</time>
      </trkpt>
      <trkpt lat="50.01481" lon="1.31206">
        <ele>9.9</ele>
        <time>2020-06-18T14:18:22Z</time>
      </trkpt>
      <trkpt lat="50.01483" lon="1.31215">
        <ele>9.8</ele>
        <time>2020-06-18T14:18:23Z</time>
      </trkpt>
      <trkpt lat="50.01486" lon="1.31224">
        <ele>9.8</ele>
        <time>2020-06-18T14:18:24Z</time>
      </trkpt>
      <trkpt lat="50.01487" lon="1.31233">
        <ele>9.7</ele>
        <time>2020-06-18T14:18:25Z</time>
      </trkpt>
      <trkpt lat="50.01489" lon="1.31243">
        <ele>9.7</ele>
        <time>2020-06-18T14:18:26Z</time>
      </trkpt>
      <trkpt lat="50.0149" lon="1.31252">
        <ele>9.6</ele>
        <time>2020-06-18T14:18:27Z</time>
      </trkpt>
      <trkpt lat="50.01491" lon="1.31261">
        <ele>9.6</ele>
        <time>2020-06-18T14:18:28Z</time>
      </trkpt>
      <trkpt lat="50.01491" lon="1.31272">
        <ele>9.5</ele>
        <time>2020-06-18T14:18:29Z</time>
      </trkpt>
      <trkpt lat="50.01494" lon="1.31285">
        <ele>9.4</ele>
        <time>2020-06-18T14:18:30Z</time>
      </trkpt>
      <trkpt lat="50.01495" lon="1.31295">
        <ele>9.4</ele>
        <time>2020-06-18T14:18:31Z</time>
      </trkpt>
      <trkpt lat="50.01495" lon="1.31305">
        <ele>9.3</ele>
        <time>2020-06-18T14:18:32Z</time>
      </trkpt>
      <trkpt lat="50.01497" lon="1.31313">
        <ele>9.3</ele>
        <time>2020-06-18T14:18:33Z</time>
      </trkpt>
      <trkpt lat="50.01498" lon="1.31322">
        <ele>9.2</ele>
        <time>2020-06-18T14:18:34Z</time>
      </trkpt>
      <trkpt lat="50.01501" lon="1.31331">
        <ele>9.2</ele>
        <time>2020-06-18T14:18:35Z</time>
      </trkpt>
      <trkpt lat="50.01504" lon="1.3134">
        <ele>9.1</ele>
        <time>2020-06-18T14:18:36Z</time>
      </trkpt>
      <trkpt lat="50.01506" lon="1.31349">
        <ele>9.1</ele>
        <time>2020-06-18T14:18:37Z</time>
      </trkpt>
      <trkpt lat="50.01509" lon="1.31357">
        <ele>9.1</ele>
        <time>2020-06-18T14:18:38Z</time>
      </trkpt>
      <trkpt lat="50.01511" lon="1.31367">
        <ele>9.1</ele>
        <time>2020-06-18T14:18:39Z</time>
      </trkpt>
      <trkpt lat="50.01512" lon="1.31376">
        <ele>9.1</ele>
        <time>2020-06-18T14:18:40Z</time>
      </trkpt>
      <trkpt lat="50.01515" lon="1.31385">
        <ele>9.1</ele>
        <time>2020-06-18T14:18:41Z</time>
      </trkpt>
      <trkpt lat="50.01516" lon="1.31394">
        <ele>9.1</ele>
        <time>2020-06-18T14:18:42Z</time>
      </trkpt>
      <trkpt lat="50.01517" lon="1.31403">
        <ele>9.1</ele>
        <time>2020-06-18T14:18:43Z</time>
      </trkpt>
      <trkpt lat="50.01519" lon="1.31414">
        <ele>9</ele>
        <time>2020-06-18T14:18:44Z</time>
      </trkpt>
      <trkpt lat="50.01521" lon="1.31421">
        <ele>9</ele>
        <time>2020-06-18T14:18:45Z</time>
      </trkpt>
      <trkpt lat="50.01522" lon="1.31428">
        <ele>9</ele>
        <time>2020-06-18T14:18:46Z</time>
      </trkpt>
      <trkpt lat="50.01523" lon="1.31435">
        <ele>9</ele>
        <time>2020-06-18T14:18:47Z</time>
      </trkpt>
      <trkpt lat="50.01526" lon="1.31444">
        <ele>9</ele>
        <time>2020-06-18T14:18:48Z</time>
      </trkpt>
      <trkpt lat="50.01528" lon="1.31451">
        <ele>9</ele>
        <time>2020-06-18T14:18:49Z</time>
      </trkpt>
      <trkpt lat="50.0153" lon="1.3146">
        <ele>9</ele>
        <time>2020-06-18T14:18:50Z</time>
      </trkpt>
      <trkpt lat="50.01533" lon="1.3147">
        <ele>9</ele>
        <time>2020-06-18T14:18:51Z</time>
      </trkpt>
      <trkpt lat="50.01537" lon="1.31482">
        <ele>9</ele>
        <time>2020-06-18T14:18:52Z</time>
      </trkpt>
      <trkpt lat="50.0154" lon="1.31489">
        <ele>9</ele>
        <time>2020-06-18T14:18:53Z</time>
      </trkpt>
      <trkpt lat="50.01542" lon="1.31496">
        <ele>9.1</ele>
        <time>2020-06-18T14:18:54Z</time>
      </trkpt>
      <trkpt lat="50.01545" lon="1.31504">
        <ele>9.1</ele>
        <time>2020-06-18T14:18:55Z</time>
      </trkpt>
      <trkpt lat="50.01549" lon="1.31512">
        <ele>9.2</ele>
        <time>2020-06-18T14:18:56Z</time>
      </trkpt>
      <trkpt lat="50.01552" lon="1.31521">
        <ele>9.3</ele>
        <time>2020-06-18T14:18:57Z</time>
      </trkpt>
      <trkpt lat="50.01554" lon="1.31531">
        <ele>9.4</ele>
        <time>2020-06-18T14:18:58Z</time>
      </trkpt>
      <trkpt lat="50.01557" lon="1.3154">
        <ele>9.5</ele>
        <time>2020-06-18T14:18:59Z</time>
      </trkpt>
      <trkpt lat="50.01558" lon="1.31549">
        <ele>9.6</ele>
        <time>2020-06-18T14:19:00Z</time>
      </trkpt>
      <trkpt lat="50.01559" lon="1.31558">
        <ele>9.7</ele>
        <time>2020-06-18T14:19:01Z</time>
      </trkpt>
      <trkpt lat="50.0156" lon="1.31568">
        <ele>9.8</ele>
        <time>2020-06-18T14:19:02Z</time>
      </trkpt>
      <trkpt lat="50.01563" lon="1.31576">
        <ele>9.7</ele>
        <time>2020-06-18T14:19:03Z</time>
      </trkpt>
      <trkpt lat="50.01566" lon="1.31584">
        <ele>9.7</ele>
        <time>2020-06-18T14:19:04Z</time>
      </trkpt>
      <trkpt lat="50.01568" lon="1.31591">
        <ele>9.7</ele>
        <time>2020-06-18T14:19:05Z</time>
      </trkpt>
      <trkpt lat="50.0157" lon="1.31599">
        <ele>9.6</ele>
        <time>2020-06-18T14:19:06Z</time>
      </trkpt>
      <trkpt lat="50.01574" lon="1.31608">
        <ele>9.6</ele>
        <time>2020-06-18T14:19:07Z</time>
      </trkpt>
      <trkpt lat="50.01577" lon="1.31616">
        <ele>9.6</ele>
        <time>2020-06-18T14:19:08Z</time>
      </trkpt>
      <trkpt lat="50.01582" lon="1.31626">
        <ele>9.7</ele>
        <time>2020-06-18T14:19:09Z</time>
      </trkpt>
      <trkpt lat="50.01585" lon="1.31633">
        <ele>9.7</ele>
        <time>2020-06-18T14:19:10Z</time>
      </trkpt>
      <trkpt lat="50.01589" lon="1.31639">
        <ele>9.7</ele>
        <time>2020-06-18T14:19:11Z</time>
      </trkpt>
      <trkpt lat="50.01593" lon="1.31646">
        <ele>9.6</ele>
        <time>2020-06-18T14:19:12Z</time>
      </trkpt>
      <trkpt lat="50.01596" lon="1.31651">
        <ele>9.6</ele>
        <time>2020-06-18T14:19:13Z</time>
      </trkpt>
      <trkpt lat="50.01599" lon="1.31656">
        <ele>9.6</ele>
        <time>2020-06-18T14:19:14Z</time>
      </trkpt>
      <trkpt lat="50.01605" lon="1.31663">
        <ele>9.5</ele>
        <time>2020-06-18T14:19:15Z</time>
      </trkpt>
      <trkpt lat="50.01609" lon="1.31669">
        <ele>9.4</ele>
        <time>2020-06-18T14:19:16Z</time>
      </trkpt>
      <trkpt lat="50.01612" lon="1.31677">
        <ele>9.2</ele>
        <time>2020-06-18T14:19:17Z</time>
      </trkpt>
      <trkpt lat="50.01615" lon="1.31683">
        <ele>9.2</ele>
        <time>2020-06-18T14:19:18Z</time>
      </trkpt>
      <trkpt lat="50.01618" lon="1.31691">
        <ele>9.1</ele>
        <time>2020-06-18T14:19:19Z</time>
      </trkpt>
      <trkpt lat="50.01621" lon="1.31699">
        <ele>9.1</ele>
        <time>2020-06-18T14:19:20Z</time>
      </trkpt>
      <trkpt lat="50.01623" lon="1.31706">
        <ele>9.1</ele>
        <time>2020-06-18T14:19:21Z</time>
      </trkpt>
      <trkpt lat="50.01626" lon="1.31715">
        <ele>9</ele>
        <time>2020-06-18T14:19:22Z</time>
      </trkpt>
      <trkpt lat="50.01628" lon="1.3172">
        <ele>9</ele>
        <time>2020-06-18T14:19:23Z</time>
      </trkpt>
      <trkpt lat="50.01631" lon="1.31726">
        <ele>9</ele>
        <time>2020-06-18T14:19:24Z</time>
      </trkpt>
      <trkpt lat="50.01633" lon="1.31733">
        <ele>8.9</ele>
        <time>2020-06-18T14:19:25Z</time>
      </trkpt>
      <trkpt lat="50.01635" lon="1.3174">
        <ele>8.9</ele>
        <time>2020-06-18T14:19:26Z</time>
      </trkpt>
      <trkpt lat="50.01637" lon="1.31745">
        <ele>8.9</ele>
        <time>2020-06-18T14:19:27Z</time>
      </trkpt>
      <trkpt lat="50.01638" lon="1.31751">
        <ele>8.9</ele>
        <time>2020-06-18T14:19:28Z</time>
      </trkpt>
      <trkpt lat="50.01638" lon="1.31758">
        <ele>8.9</ele>
        <time>2020-06-18T14:19:29Z</time>
      </trkpt>
      <trkpt lat="50.01639" lon="1.31765">
        <ele>8.8</ele>
        <time>2020-06-18T14:19:30Z</time>
      </trkpt>
      <trkpt lat="50.01641" lon="1.31772">
        <ele>8.8</ele>
        <time>2020-06-18T14:19:31Z</time>
      </trkpt>
      <trkpt lat="50.01642" lon="1.3178">
        <ele>8.8</ele>
        <time>2020-06-18T14:19:32Z</time>
      </trkpt>
      <trkpt lat="50.01643" lon="1.31788">
        <ele>8.8</ele>
        <time>2020-06-18T14:19:33Z</time>
      </trkpt>
      <trkpt lat="50.01645" lon="1.31797">
        <ele>8.9</ele>
        <time>2020-06-18T14:19:34Z</time>
      </trkpt>
      <trkpt lat="50.01647" lon="1.31807">
        <ele>8.9</ele>
        <time>2020-06-18T14:19:35Z</time>
      </trkpt>
      <trkpt lat="50.01649" lon="1.31815">
        <ele>9</ele>
        <time>2020-06-18T14:19:36Z</time>
      </trkpt>
      <trkpt lat="50.0165" lon="1.31824">
        <ele>9.1</ele>
        <time>2020-06-18T14:19:37Z</time>
      </trkpt>
      <trkpt lat="50.01652" lon="1.31833">
        <ele>9.2</ele>
        <time>2020-06-18T14:19:38Z</time>
      </trkpt>
      <trkpt lat="50.01654" lon="1.31841">
        <ele>9.3</ele>
        <time>2020-06-18T14:19:39Z</time>
      </trkpt>
      <trkpt lat="50.01655" lon="1.31849">
        <ele>9.4</ele>
        <time>2020-06-18T14:19:40Z</time>
      </trkpt>
      <trkpt lat="50.01656" lon="1.31856">
        <ele>9.4</ele>
        <time>2020-06-18T14:19:41Z</time>
      </trkpt>
      <trkpt lat="50.01656" lon="1.3186">
        <ele>9.5</ele>
        <time>2020-06-18T14:19:42Z</time>
      </trkpt>
      <trkpt lat="50.01657" lon="1.31865">
        <ele>9.5</ele>
        <time>2020-06-18T14:19:43Z</time>
      </trkpt>
      <trkpt lat="50.01659" lon="1.31871">
        <ele>9.6</ele>
        <time>2020-06-18T14:19:44Z</time>
      </trkpt>
      <trkpt lat="50.01661" lon="1.31876">
        <ele>9.7</ele>
        <time>2020-06-18T14:19:45Z</time>
      </trkpt>
      <trkpt lat="50.01663" lon="1.31882">
        <ele>9.8</ele>
        <time>2020-06-18T14:19:46Z</time>
      </trkpt>
      <trkpt lat="50.01664" lon="1.31886">
        <ele>9.9</ele>
        <time>2020-06-18T14:19:47Z</time>
      </trkpt>
      <trkpt lat="50.01665" lon="1.3189">
        <ele>10</ele>
        <time>2020-06-18T14:19:48Z</time>
      </trkpt>
      <trkpt lat="50.01666" lon="1.31896">
        <ele>10.1</ele>
        <time>2020-06-18T14:19:49Z</time>
      </trkpt>
      <trkpt lat="50.01667" lon="1.31902">
        <ele>10.2</ele>
        <time>2020-06-18T14:19:50Z</time>
      </trkpt>
      <trkpt lat="50.01669" lon="1.31909">
        <ele>10.3</ele>
        <time>2020-06-18T14:19:51Z</time>
      </trkpt>
      <trkpt lat="50.0167" lon="1.31915">
        <ele>10.5</ele>
        <time>2020-06-18T14:19:52Z</time>
      </trkpt>
      <trkpt lat="50.0167" lon="1.31921">
        <ele>10.6</ele>
        <time>2020-06-18T14:19:53Z</time>
      </trkpt>
      <trkpt lat="50.01671" lon="1.31927">
        <ele>10.9</ele>
        <time>2020-06-18T14:19:54Z</time>
      </trkpt>
      <trkpt lat="50.01673" lon="1.31932">
        <ele>11.1</ele>
        <time>2020-06-18T14:19:55Z</time>
      </trkpt>
      <trkpt lat="50.01676" lon="1.31939">
        <ele>11.3</ele>
        <time>2020-06-18T14:19:56Z</time>
      </trkpt>
      <trkpt lat="50.01676" lon="1.31944">
        <ele>11.5</ele>
        <time>2020-06-18T14:19:57Z</time>
      </trkpt>
      <trkpt lat="50.01678" lon="1.3195">
        <ele>11.7</ele>
        <time>2020-06-18T14:19:58Z</time>
      </trkpt>
      <trkpt lat="50.01679" lon="1.31952">
        <ele>11.8</ele>
        <time>2020-06-18T14:19:59Z</time>
      </trkpt>
      <trkpt lat="50.01678" lon="1.31956">
        <ele>12</ele>
        <time>2020-06-18T14:20:00Z</time>
      </trkpt>
      <trkpt lat="50.01678" lon="1.31961">
        <ele>12</ele>
        <time>2020-06-18T14:20:01Z</time>
      </trkpt>
      <trkpt lat="50.01679" lon="1.31966">
        <ele>12</ele>
        <time>2020-06-18T14:20:02Z</time>
      </trkpt>
      <trkpt lat="50.01679" lon="1.31967">
        <ele>12</ele>
        <time>2020-06-18T14:20:03Z</time>
      </trkpt>
      <trkpt lat="50.0168" lon="1.31972">
        <ele>12</ele>
        <time>2020-06-18T14:20:04Z</time>
      </trkpt>
      <trkpt lat="50.01681" lon="1.31974">
        <ele>12.1</ele>
        <time>2020-06-18T14:20:05Z</time>
      </trkpt>
      <trkpt lat="50.01682" lon="1.31977">
        <ele>12.1</ele>
        <time>2020-06-18T14:20:06Z</time>
      </trkpt>
      <trkpt lat="50.01685" lon="1.31981">
        <ele>12.2</ele>
        <time>2020-06-18T14:20:07Z</time>
      </trkpt>
      <trkpt lat="50.01686" lon="1.31983">
        <ele>12.2</ele>
        <time>2020-06-18T14:20:08Z</time>
      </trkpt>
      <trkpt lat="50.01688" lon="1.31987">
        <ele>12.3</ele>
        <time>2020-06-18T14:20:09Z</time>
      </trkpt>
      <trkpt lat="50.01689" lon="1.31988">
        <ele>12.3</ele>
        <time>2020-06-18T14:20:10Z</time>
      </trkpt>
      <trkpt lat="50.01692" lon="1.31991">
        <ele>12.5</ele>
        <time>2020-06-18T14:20:11Z</time>
      </trkpt>
      <trkpt lat="50.01694" lon="1.31992">
        <ele>12.5</ele>
        <time>2020-06-18T14:20:12Z</time>
      </trkpt>
      <trkpt lat="50.01697" lon="1.31994">
        <ele>12.6</ele>
        <time>2020-06-18T14:20:13Z</time>
      </trkpt>
      <trkpt lat="50.01699" lon="1.31996">
        <ele>12.7</ele>
        <time>2020-06-18T14:20:14Z</time>
      </trkpt>
      <trkpt lat="50.01702" lon="1.31998">
        <ele>12.8</ele>
        <time>2020-06-18T14:20:15Z</time>
      </trkpt>
      <trkpt lat="50.01707" lon="1.32001">
        <ele>12.9</ele>
        <time>2020-06-18T14:20:16Z</time>
      </trkpt>
      <trkpt lat="50.0171" lon="1.32003">
        <ele>13</ele>
        <time>2020-06-18T14:20:17Z</time>
      </trkpt>
      <trkpt lat="50.01713" lon="1.32006">
        <ele>13.1</ele>
        <time>2020-06-18T14:20:18Z</time>
      </trkpt>
      <trkpt lat="50.01716" lon="1.32009">
        <ele>13.2</ele>
        <time>2020-06-18T14:20:19Z</time>
      </trkpt>
      <trkpt lat="50.0172" lon="1.32011">
        <ele>13.4</ele>
        <time>2020-06-18T14:20:20Z</time>
      </trkpt>
      <trkpt lat="50.01723" lon="1.32012">
        <ele>13.5</ele>
        <time>2020-06-18T14:20:21Z</time>
      </trkpt>
      <trkpt lat="50.01727" lon="1.32013">
        <ele>13.6</ele>
        <time>2020-06-18T14:20:22Z</time>
      </trkpt>
      <trkpt lat="50.0173" lon="1.32015">
        <ele>13.7</ele>
        <time>2020-06-18T14:20:23Z</time>
      </trkpt>
      <trkpt lat="50.01734" lon="1.32018">
        <ele>13.8</ele>
        <time>2020-06-18T14:20:24Z</time>
      </trkpt>
      <trkpt lat="50.01739" lon="1.3202">
        <ele>14</ele>
        <time>2020-06-18T14:20:25Z</time>
      </trkpt>
      <trkpt lat="50.01742" lon="1.32021">
        <ele>14.1</ele>
        <time>2020-06-18T14:20:26Z</time>
      </trkpt>
      <trkpt lat="50.01745" lon="1.32024">
        <ele>14.2</ele>
        <time>2020-06-18T14:20:27Z</time>
      </trkpt>
      <trkpt lat="50.01748" lon="1.32027">
        <ele>14.3</ele>
        <time>2020-06-18T14:20:28Z</time>
      </trkpt>
      <trkpt lat="50.01752" lon="1.32029">
        <ele>14.4</ele>
        <time>2020-06-18T14:20:29Z</time>
      </trkpt>
      <trkpt lat="50.01754" lon="1.3203">
        <ele>14.5</ele>
        <time>2020-06-18T14:20:30Z</time>
      </trkpt>
      <trkpt lat="50.01758" lon="1.32032">
        <ele>14.6</ele>
        <time>2020-06-18T14:20:31Z</time>
      </trkpt>
      <trkpt lat="50.0176" lon="1.32035">
        <ele>14.7</ele>
        <time>2020-06-18T14:20:32Z</time>
      </trkpt>
      <trkpt lat="50.01763" lon="1.32036">
        <ele>14.9</ele>
        <time>2020-06-18T14:20:33Z</time>
      </trkpt>
      <trkpt lat="50.01764" lon="1.32037">
        <ele>14.9</ele>
        <time>2020-06-18T14:20:34Z</time>
      </trkpt>
      <trkpt lat="50.01767" lon="1.32038">
        <ele>15</ele>
        <time>2020-06-18T14:20:35Z</time>
      </trkpt>
      <trkpt lat="50.0177" lon="1.32039">
        <ele>15.1</ele>
        <time>2020-06-18T14:20:36Z</time>
      </trkpt>
      <trkpt lat="50.01772" lon="1.32039">
        <ele>15.1</ele>
        <time>2020-06-18T14:20:37Z</time>
      </trkpt>
      <trkpt lat="50.01772" lon="1.32039">
        <ele>15.1</ele>
        <time>2020-06-18T14:20:38Z</time>
      </trkpt>
      <trkpt lat="50.01772" lon="1.32039">
        <ele>15.1</ele>
        <time>2020-06-18T14:20:39Z</time>
      </trkpt>
      <trkpt lat="50.01773" lon="1.32039">
        <ele>15.1</ele>
        <time>2020-06-18T14:20:40Z</time>
      </trkpt>
      <trkpt lat="50.01773" lon="1.32038">
        <ele>15.1</ele>
        <time>2020-06-18T14:20:41Z</time>
      </trkpt>
      <trkpt lat="50.01773" lon="1.32038">
        <ele>15.1</ele>
        <time>2020-06-18T14:20:42Z</time>
      </trkpt>
      <trkpt lat="50.01773" lon="1.32038">
        <ele>15.1</ele>
        <time>2020-06-18T14:20:43Z</time>
      </trkpt>
      <trkpt lat="50.01774" lon="1.32038">
        <ele>15.1</ele>
        <time>2020-06-18T14:20:44Z</time>
      </trkpt>
      <trkpt lat="50.01774" lon="1.32038">
        <ele>15.1</ele>
        <time>2020-06-18T14:20:45Z</time>
      </trkpt>
      <trkpt lat="50.01774" lon="1.32038">
        <ele>15.1</ele>
        <time>2020-06-18T14:20:46Z</time>
      </trkpt>
      <trkpt lat="50.01775" lon="1.32037">
        <ele>15</ele>
        <time>2020-06-18T14:20:47Z</time>
      </trkpt>
      <trkpt lat="50.01773" lon="1.32027">
        <ele>14.9</ele>
        <time>2020-06-18T14:20:56Z</time>
      </trkpt>
      <trkpt lat="50.01772" lon="1.32026">
        <ele>14.9</ele>
        <time>2020-06-18T14:20:57Z</time>
      </trkpt>
      <trkpt lat="50.0177" lon="1.32023">
        <ele>14.9</ele>
        <time>2020-06-18T14:20:58Z</time>
      </trkpt>
      <trkpt lat="50.01769" lon="1.32023">
        <ele>14.9</ele>
        <time>2020-06-18T14:20:59Z</time>
      </trkpt>
      <trkpt lat="50.01766" lon="1.3202">
        <ele>14.8</ele>
        <time>2020-06-18T14:21:00Z</time>
      </trkpt>
      <trkpt lat="50.01765" lon="1.32019">
        <ele>14.8</ele>
        <time>2020-06-18T14:21:01Z</time>
      </trkpt>
      <trkpt lat="50.01763" lon="1.32017">
        <ele>14.6</ele>
        <time>2020-06-18T14:21:02Z</time>
      </trkpt>
      <trkpt lat="50.01759" lon="1.32015">
        <ele>14.5</ele>
        <time>2020-06-18T14:21:03Z</time>
      </trkpt>
      <trkpt lat="50.01758" lon="1.32014">
        <ele>14.4</ele>
        <time>2020-06-18T14:21:04Z</time>
      </trkpt>
      <trkpt lat="50.01754" lon="1.32012">
        <ele>14.3</ele>
        <time>2020-06-18T14:21:05Z</time>
      </trkpt>
      <trkpt lat="50.0175" lon="1.32009">
        <ele>14.2</ele>
        <time>2020-06-18T14:21:06Z</time>
      </trkpt>
      <trkpt lat="50.01747" lon="1.32009">
        <ele>14.1</ele>
        <time>2020-06-18T14:21:07Z</time>
      </trkpt>
      <trkpt lat="50.01743" lon="1.32008">
        <ele>14</ele>
        <time>2020-06-18T14:21:08Z</time>
      </trkpt>
      <trkpt lat="50.0174" lon="1.32007">
        <ele>13.9</ele>
        <time>2020-06-18T14:21:09Z</time>
      </trkpt>
      <trkpt lat="50.01737" lon="1.32005">
        <ele>13.8</ele>
        <time>2020-06-18T14:21:10Z</time>
      </trkpt>
      <trkpt lat="50.01734" lon="1.32003">
        <ele>13.6</ele>
        <time>2020-06-18T14:21:11Z</time>
      </trkpt>
      <trkpt lat="50.01731" lon="1.32001">
        <ele>13.5</ele>
        <time>2020-06-18T14:21:12Z</time>
      </trkpt>
      <trkpt lat="50.01727" lon="1.32">
        <ele>13.4</ele>
        <time>2020-06-18T14:21:13Z</time>
      </trkpt>
      <trkpt lat="50.01724" lon="1.31999">
        <ele>13.3</ele>
        <time>2020-06-18T14:21:14Z</time>
      </trkpt>
      <trkpt lat="50.01721" lon="1.31998">
        <ele>13.2</ele>
        <time>2020-06-18T14:21:15Z</time>
      </trkpt>
      <trkpt lat="50.01718" lon="1.31996">
        <ele>13.1</ele>
        <time>2020-06-18T14:21:16Z</time>
      </trkpt>
      <trkpt lat="50.01716" lon="1.31994">
        <ele>13</ele>
        <time>2020-06-18T14:21:17Z</time>
      </trkpt>
      <trkpt lat="50.01714" lon="1.31992">
        <ele>12.9</ele>
        <time>2020-06-18T14:21:18Z</time>
      </trkpt>
      <trkpt lat="50.01711" lon="1.3199">
        <ele>12.8</ele>
        <time>2020-06-18T14:21:19Z</time>
      </trkpt>
      <trkpt lat="50.01708" lon="1.31989">
        <ele>12.7</ele>
        <time>2020-06-18T14:21:20Z</time>
      </trkpt>
      <trkpt lat="50.01704" lon="1.31986">
        <ele>12.6</ele>
        <time>2020-06-18T14:21:21Z</time>
      </trkpt>
      <trkpt lat="50.01702" lon="1.31984">
        <ele>12.5</ele>
        <time>2020-06-18T14:21:22Z</time>
      </trkpt>
      <trkpt lat="50.017" lon="1.31982">
        <ele>12.5</ele>
        <time>2020-06-18T14:21:23Z</time>
      </trkpt>
      <trkpt lat="50.01697" lon="1.31976">
        <ele>12.4</ele>
        <time>2020-06-18T14:21:24Z</time>
      </trkpt>
      <trkpt lat="50.01697" lon="1.31974">
        <ele>12.3</ele>
        <time>2020-06-18T14:21:25Z</time>
      </trkpt>
      <trkpt lat="50.01694" lon="1.3197">
        <ele>12.2</ele>
        <time>2020-06-18T14:21:26Z</time>
      </trkpt>
      <trkpt lat="50.01692" lon="1.3197">
        <ele>12.2</ele>
        <time>2020-06-18T14:21:27Z</time>
      </trkpt>
      <trkpt lat="50.01689" lon="1.31969">
        <ele>12.1</ele>
        <time>2020-06-18T14:21:28Z</time>
      </trkpt>
      <trkpt lat="50.01686" lon="1.31969">
        <ele>12.1</ele>
        <time>2020-06-18T14:21:29Z</time>
      </trkpt>
      <trkpt lat="50.01683" lon="1.31968">
        <ele>12</ele>
        <time>2020-06-18T14:21:30Z</time>
      </trkpt>
      <trkpt lat="50.01682" lon="1.31968">
        <ele>12</ele>
        <time>2020-06-18T14:21:31Z</time>
      </trkpt>
      <trkpt lat="50.01679" lon="1.31966">
        <ele>12</ele>
        <time>2020-06-18T14:21:32Z</time>
      </trkpt>
      <trkpt lat="50.01678" lon="1.31964">
        <ele>12</ele>
        <time>2020-06-18T14:21:33Z</time>
      </trkpt>
      <trkpt lat="50.01675" lon="1.31961">
        <ele>12.1</ele>
        <time>2020-06-18T14:21:34Z</time>
      </trkpt>
      <trkpt lat="50.01673" lon="1.3196">
        <ele>12.1</ele>
        <time>2020-06-18T14:21:35Z</time>
      </trkpt>
      <trkpt lat="50.01672" lon="1.31961">
        <ele>12.1</ele>
        <time>2020-06-18T14:21:36Z</time>
      </trkpt>
      <trkpt lat="50.01671" lon="1.31961">
        <ele>12.1</ele>
        <time>2020-06-18T14:21:37Z</time>
      </trkpt>
      <trkpt lat="50.0167" lon="1.31961">
        <ele>12.1</ele>
        <time>2020-06-18T14:21:38Z</time>
      </trkpt>
      <trkpt lat="50.01669" lon="1.31962">
        <ele>12.1</ele>
        <time>2020-06-18T14:21:39Z</time>
      </trkpt>
      <trkpt lat="50.01667" lon="1.31962">
        <ele>12.1</ele>
        <time>2020-06-18T14:21:40Z</time>
      </trkpt>
      <trkpt lat="50.01666" lon="1.31963">
        <ele>12.1</ele>
        <time>2020-06-18T14:21:41Z</time>
      </trkpt>
      <trkpt lat="50.01665" lon="1.31962">
        <ele>12.1</ele>
        <time>2020-06-18T14:21:42Z</time>
      </trkpt>
      <trkpt lat="50.01664" lon="1.31965">
        <ele>12.2</ele>
        <time>2020-06-18T14:21:43Z</time>
      </trkpt>
      <trkpt lat="50.01664" lon="1.31966">
        <ele>12.2</ele>
        <time>2020-06-18T14:21:44Z</time>
      </trkpt>
      <trkpt lat="50.01664" lon="1.31967">
        <ele>12.2</ele>
        <time>2020-06-18T14:21:45Z</time>
      </trkpt>
      <trkpt lat="50.01664" lon="1.31968">
        <ele>12.2</ele>
        <time>2020-06-18T14:21:46Z</time>
      </trkpt>
      <trkpt lat="50.01664" lon="1.31969">
        <ele>12.2</ele>
        <time>2020-06-18T14:21:47Z</time>
      </trkpt>
      <trkpt lat="50.01665" lon="1.3197">
        <ele>12.2</ele>
        <time>2020-06-18T14:21:48Z</time>
      </trkpt>
      <trkpt lat="50.01665" lon="1.31971">
        <ele>12.2</ele>
        <time>2020-06-18T14:21:49Z</time>
      </trkpt>
      <trkpt lat="50.01664" lon="1.31973">
        <ele>12.4</ele>
        <time>2020-06-18T14:21:50Z</time>
      </trkpt>
      <trkpt lat="50.01663" lon="1.31974">
        <ele>12.5</ele>
        <time>2020-06-18T14:21:51Z</time>
      </trkpt>
      <trkpt lat="50.01663" lon="1.31975">
        <ele>12.5</ele>
        <time>2020-06-18T14:21:52Z</time>
      </trkpt>
      <trkpt lat="50.01662" lon="1.31975">
        <ele>12.6</ele>
        <time>2020-06-18T14:21:53Z</time>
      </trkpt>
      <trkpt lat="50.0166" lon="1.31976">
        <ele>12.7</ele>
        <time>2020-06-18T14:21:54Z</time>
      </trkpt>
      <trkpt lat="50.01659" lon="1.31978">
        <ele>12.8</ele>
        <time>2020-06-18T14:21:55Z</time>
      </trkpt>
      <trkpt lat="50.01657" lon="1.31982">
        <ele>13</ele>
        <time>2020-06-18T14:21:56Z</time>
      </trkpt>
      <trkpt lat="50.01657" lon="1.31984">
        <ele>13.1</ele>
        <time>2020-06-18T14:21:57Z</time>
      </trkpt>
      <trkpt lat="50.01654" lon="1.31988">
        <ele>13.4</ele>
        <time>2020-06-18T14:21:58Z</time>
      </trkpt>
      <trkpt lat="50.01653" lon="1.31989">
        <ele>13.5</ele>
        <time>2020-06-18T14:21:59Z</time>
      </trkpt>
      <trkpt lat="50.01649" lon="1.31992">
        <ele>13.8</ele>
        <time>2020-06-18T14:22:00Z</time>
      </trkpt>
      <trkpt lat="50.01647" lon="1.31993">
        <ele>13.9</ele>
        <time>2020-06-18T14:22:01Z</time>
      </trkpt>
      <trkpt lat="50.01645" lon="1.31996">
        <ele>14.2</ele>
        <time>2020-06-18T14:22:02Z</time>
      </trkpt>
      <trkpt lat="50.01642" lon="1.31999">
        <ele>14.5</ele>
        <time>2020-06-18T14:22:03Z</time>
      </trkpt>
      <trkpt lat="50.01641" lon="1.32">
        <ele>14.6</ele>
        <time>2020-06-18T14:22:04Z</time>
      </trkpt>
      <trkpt lat="50.01638" lon="1.32004">
        <ele>14.8</ele>
        <time>2020-06-18T14:22:05Z</time>
      </trkpt>
      <trkpt lat="50.01635" lon="1.32007">
        <ele>15.1</ele>
        <time>2020-06-18T14:22:06Z</time>
      </trkpt>
      <trkpt lat="50.01632" lon="1.32009">
        <ele>15.3</ele>
        <time>2020-06-18T14:22:07Z</time>
      </trkpt>
      <trkpt lat="50.0163" lon="1.32011">
        <ele>15.5</ele>
        <time>2020-06-18T14:22:08Z</time>
      </trkpt>
      <trkpt lat="50.01627" lon="1.32013">
        <ele>15.7</ele>
        <time>2020-06-18T14:22:09Z</time>
      </trkpt>
      <trkpt lat="50.01624" lon="1.32015">
        <ele>15.9</ele>
        <time>2020-06-18T14:22:10Z</time>
      </trkpt>
      <trkpt lat="50.0162" lon="1.32019">
        <ele>16.2</ele>
        <time>2020-06-18T14:22:11Z</time>
      </trkpt>
      <trkpt lat="50.01619" lon="1.3202">
        <ele>16.3</ele>
        <time>2020-06-18T14:22:12Z</time>
      </trkpt>
      <trkpt lat="50.01616" lon="1.32023">
        <ele>16.6</ele>
        <time>2020-06-18T14:22:13Z</time>
      </trkpt>
      <trkpt lat="50.01613" lon="1.32027">
        <ele>16.9</ele>
        <time>2020-06-18T14:22:14Z</time>
      </trkpt>
      <trkpt lat="50.01612" lon="1.32028">
        <ele>17</ele>
        <time>2020-06-18T14:22:15Z</time>
      </trkpt>
      <trkpt lat="50.01609" lon="1.3203">
        <ele>17.2</ele>
        <time>2020-06-18T14:22:16Z</time>
      </trkpt>
      <trkpt lat="50.01605" lon="1.32032">
        <ele>17.6</ele>
        <time>2020-06-18T14:22:17Z</time>
      </trkpt>
      <trkpt lat="50.01604" lon="1.32033">
        <ele>17.7</ele>
        <time>2020-06-18T14:22:18Z</time>
      </trkpt>
      <trkpt lat="50.01601" lon="1.32036">
        <ele>18</ele>
        <time>2020-06-18T14:22:19Z</time>
      </trkpt>
      <trkpt lat="50.01598" lon="1.32038">
        <ele>18.3</ele>
        <time>2020-06-18T14:22:20Z</time>
      </trkpt>
      <trkpt lat="50.01595" lon="1.32041">
        <ele>18.6</ele>
        <time>2020-06-18T14:22:21Z</time>
      </trkpt>
      <trkpt lat="50.01592" lon="1.32043">
        <ele>18.8</ele>
        <time>2020-06-18T14:22:22Z</time>
      </trkpt>
      <trkpt lat="50.0159" lon="1.32046">
        <ele>19.1</ele>
        <time>2020-06-18T14:22:23Z</time>
      </trkpt>
      <trkpt lat="50.01587" lon="1.32048">
        <ele>19.4</ele>
        <time>2020-06-18T14:22:24Z</time>
      </trkpt>
      <trkpt lat="50.01585" lon="1.32051">
        <ele>19.6</ele>
        <time>2020-06-18T14:22:25Z</time>
      </trkpt>
      <trkpt lat="50.01582" lon="1.32053">
        <ele>19.9</ele>
        <time>2020-06-18T14:22:26Z</time>
      </trkpt>
      <trkpt lat="50.0158" lon="1.32054">
        <ele>20</ele>
        <time>2020-06-18T14:22:27Z</time>
      </trkpt>
      <trkpt lat="50.01578" lon="1.32057">
        <ele>20.2</ele>
        <time>2020-06-18T14:22:28Z</time>
      </trkpt>
      <trkpt lat="50.01575" lon="1.32059">
        <ele>20.5</ele>
        <time>2020-06-18T14:22:29Z</time>
      </trkpt>
      <trkpt lat="50.01573" lon="1.3206">
        <ele>20.7</ele>
        <time>2020-06-18T14:22:30Z</time>
      </trkpt>
      <trkpt lat="50.0157" lon="1.32063">
        <ele>20.9</ele>
        <time>2020-06-18T14:22:31Z</time>
      </trkpt>
      <trkpt lat="50.01568" lon="1.32065">
        <ele>21.2</ele>
        <time>2020-06-18T14:22:32Z</time>
      </trkpt>
      <trkpt lat="50.01564" lon="1.32068">
        <ele>21.5</ele>
        <time>2020-06-18T14:22:33Z</time>
      </trkpt>
      <trkpt lat="50.01563" lon="1.32069">
        <ele>21.6</ele>
        <time>2020-06-18T14:22:34Z</time>
      </trkpt>
      <trkpt lat="50.01559" lon="1.32071">
        <ele>21.9</ele>
        <time>2020-06-18T14:22:35Z</time>
      </trkpt>
      <trkpt lat="50.01558" lon="1.32072">
        <ele>22</ele>
        <time>2020-06-18T14:22:36Z</time>
      </trkpt>
      <trkpt lat="50.01555" lon="1.32074">
        <ele>22.3</ele>
        <time>2020-06-18T14:22:37Z</time>
      </trkpt>
      <trkpt lat="50.01552" lon="1.32077">
        <ele>22.6</ele>
        <time>2020-06-18T14:22:38Z</time>
      </trkpt>
      <trkpt lat="50.01551" lon="1.32079">
        <ele>22.7</ele>
        <time>2020-06-18T14:22:39Z</time>
      </trkpt>
      <trkpt lat="50.01548" lon="1.32081">
        <ele>23</ele>
        <time>2020-06-18T14:22:40Z</time>
      </trkpt>
      <trkpt lat="50.01545" lon="1.32083">
        <ele>23.2</ele>
        <time>2020-06-18T14:22:41Z</time>
      </trkpt>
      <trkpt lat="50.01542" lon="1.32086">
        <ele>23.5</ele>
        <time>2020-06-18T14:22:42Z</time>
      </trkpt>
      <trkpt lat="50.01539" lon="1.32087">
        <ele>23.8</ele>
        <time>2020-06-18T14:22:43Z</time>
      </trkpt>
      <trkpt lat="50.01537" lon="1.32089">
        <ele>24</ele>
        <time>2020-06-18T14:22:44Z</time>
      </trkpt>
      <trkpt lat="50.01533" lon="1.32093">
        <ele>24.3</ele>
        <time>2020-06-18T14:22:45Z</time>
      </trkpt>
      <trkpt lat="50.01532" lon="1.32094">
        <ele>24.4</ele>
        <time>2020-06-18T14:22:46Z</time>
      </trkpt>
      <trkpt lat="50.01529" lon="1.32096">
        <ele>24.7</ele>
        <time>2020-06-18T14:22:47Z</time>
      </trkpt>
      <trkpt lat="50.01528" lon="1.32096">
        <ele>24.8</ele>
        <time>2020-06-18T14:22:48Z</time>
      </trkpt>
      <trkpt lat="50.01525" lon="1.32098">
        <ele>25</ele>
        <time>2020-06-18T14:22:49Z</time>
      </trkpt>
      <trkpt lat="50.01522" lon="1.32101">
        <ele>25.2</ele>
        <time>2020-06-18T14:22:50Z</time>
      </trkpt>
      <trkpt lat="50.0152" lon="1.32102">
        <ele>25.3</ele>
        <time>2020-06-18T14:22:51Z</time>
      </trkpt>
      <trkpt lat="50.01518" lon="1.32104">
        <ele>25.5</ele>
        <time>2020-06-18T14:22:52Z</time>
      </trkpt>
      <trkpt lat="50.01515" lon="1.32107">
        <ele>25.8</ele>
        <time>2020-06-18T14:22:53Z</time>
      </trkpt>
      <trkpt lat="50.01514" lon="1.32107">
        <ele>25.9</ele>
        <time>2020-06-18T14:22:54Z</time>
      </trkpt>
      <trkpt lat="50.01511" lon="1.32109">
        <ele>26.1</ele>
        <time>2020-06-18T14:22:55Z</time>
      </trkpt>
      <trkpt lat="50.0151" lon="1.3211">
        <ele>26.2</ele>
        <time>2020-06-18T14:22:56Z</time>
      </trkpt>
      <trkpt lat="50.01506" lon="1.32112">
        <ele>26.5</ele>
        <time>2020-06-18T14:22:57Z</time>
      </trkpt>
      <trkpt lat="50.01505" lon="1.32113">
        <ele>26.6</ele>
        <time>2020-06-18T14:22:58Z</time>
      </trkpt>
      <trkpt lat="50.01502" lon="1.32117">
        <ele>26.9</ele>
        <time>2020-06-18T14:22:59Z</time>
      </trkpt>
      <trkpt lat="50.015" lon="1.32119">
        <ele>27</ele>
        <time>2020-06-18T14:23:00Z</time>
      </trkpt>
      <trkpt lat="50.01497" lon="1.32122">
        <ele>27.3</ele>
        <time>2020-06-18T14:23:01Z</time>
      </trkpt>
      <trkpt lat="50.01496" lon="1.32123">
        <ele>27.4</ele>
        <time>2020-06-18T14:23:02Z</time>
      </trkpt>
      <trkpt lat="50.01494" lon="1.32126">
        <ele>27.6</ele>
        <time>2020-06-18T14:23:03Z</time>
      </trkpt>
      <trkpt lat="50.01491" lon="1.32129">
        <ele>27.9</ele>
        <time>2020-06-18T14:23:04Z</time>
      </trkpt>
      <trkpt lat="50.01489" lon="1.3213">
        <ele>28</ele>
        <time>2020-06-18T14:23:05Z</time>
      </trkpt>
      <trkpt lat="50.01486" lon="1.32133">
        <ele>28.3</ele>
        <time>2020-06-18T14:23:06Z</time>
      </trkpt>
      <trkpt lat="50.01485" lon="1.32134">
        <ele>28.3</ele>
        <time>2020-06-18T14:23:07Z</time>
      </trkpt>
      <trkpt lat="50.01482" lon="1.32137">
        <ele>28.6</ele>
        <time>2020-06-18T14:23:08Z</time>
      </trkpt>
      <trkpt lat="50.0148" lon="1.32138">
        <ele>28.7</ele>
        <time>2020-06-18T14:23:09Z</time>
      </trkpt>
      <trkpt lat="50.01477" lon="1.3214">
        <ele>28.9</ele>
        <time>2020-06-18T14:23:10Z</time>
      </trkpt>
      <trkpt lat="50.01476" lon="1.3214">
        <ele>29</ele>
        <time>2020-06-18T14:23:11Z</time>
      </trkpt>
      <trkpt lat="50.01473" lon="1.32142">
        <ele>29.3</ele>
        <time>2020-06-18T14:23:12Z</time>
      </trkpt>
      <trkpt lat="50.01471" lon="1.32143">
        <ele>29.4</ele>
        <time>2020-06-18T14:23:13Z</time>
      </trkpt>
      <trkpt lat="50.01468" lon="1.32147">
        <ele>29.6</ele>
        <time>2020-06-18T14:23:14Z</time>
      </trkpt>
      <trkpt lat="50.01467" lon="1.32148">
        <ele>29.7</ele>
        <time>2020-06-18T14:23:15Z</time>
      </trkpt>
      <trkpt lat="50.01464" lon="1.32151">
        <ele>30</ele>
        <time>2020-06-18T14:23:16Z</time>
      </trkpt>
      <trkpt lat="50.01462" lon="1.32151">
        <ele>30.1</ele>
        <time>2020-06-18T14:23:17Z</time>
      </trkpt>
      <trkpt lat="50.01459" lon="1.32153">
        <ele>30.4</ele>
        <time>2020-06-18T14:23:18Z</time>
      </trkpt>
      <trkpt lat="50.01458" lon="1.32154">
        <ele>30.4</ele>
        <time>2020-06-18T14:23:19Z</time>
      </trkpt>
      <trkpt lat="50.01455" lon="1.32157">
        <ele>30.7</ele>
        <time>2020-06-18T14:23:20Z</time>
      </trkpt>
      <trkpt lat="50.01453" lon="1.32158">
        <ele>30.8</ele>
        <time>2020-06-18T14:23:21Z</time>
      </trkpt>
      <trkpt lat="50.0145" lon="1.3216">
        <ele>31</ele>
        <time>2020-06-18T14:23:22Z</time>
      </trkpt>
      <trkpt lat="50.01447" lon="1.32163">
        <ele>31.3</ele>
        <time>2020-06-18T14:23:23Z</time>
      </trkpt>
      <trkpt lat="50.01446" lon="1.32164">
        <ele>31.4</ele>
        <time>2020-06-18T14:23:24Z</time>
      </trkpt>
      <trkpt lat="50.01443" lon="1.32166">
        <ele>31.6</ele>
        <time>2020-06-18T14:23:25Z</time>
      </trkpt>
      <trkpt lat="50.01442" lon="1.32167">
        <ele>31.7</ele>
        <time>2020-06-18T14:23:26Z</time>
      </trkpt>
      <trkpt lat="50.01439" lon="1.32168">
        <ele>31.9</ele>
        <time>2020-06-18T14:23:27Z</time>
      </trkpt>
      <trkpt lat="50.01437" lon="1.32171">
        <ele>32</ele>
        <time>2020-06-18T14:23:28Z</time>
      </trkpt>
      <trkpt lat="50.01434" lon="1.32173">
        <ele>32.3</ele>
        <time>2020-06-18T14:23:29Z</time>
      </trkpt>
      <trkpt lat="50.01433" lon="1.32174">
        <ele>32.4</ele>
        <time>2020-06-18T14:23:30Z</time>
      </trkpt>
      <trkpt lat="50.0143" lon="1.32178">
        <ele>32.6</ele>
        <time>2020-06-18T14:23:31Z</time>
      </trkpt>
      <trkpt lat="50.01428" lon="1.32179">
        <ele>32.7</ele>
        <time>2020-06-18T14:23:32Z</time>
      </trkpt>
      <trkpt lat="50.01426" lon="1.32182">
        <ele>32.9</ele>
        <time>2020-06-18T14:23:33Z</time>
      </trkpt>
      <trkpt lat="50.01424" lon="1.32185">
        <ele>33.1</ele>
        <time>2020-06-18T14:23:34Z</time>
      </trkpt>
      <trkpt lat="50.01422" lon="1.32188">
        <ele>33.2</ele>
        <time>2020-06-18T14:23:35Z</time>
      </trkpt>
      <trkpt lat="50.01419" lon="1.32192">
        <ele>33.5</ele>
        <time>2020-06-18T14:23:36Z</time>
      </trkpt>
      <trkpt lat="50.01417" lon="1.32193">
        <ele>33.6</ele>
        <time>2020-06-18T14:23:37Z</time>
      </trkpt>
      <trkpt lat="50.01415" lon="1.32195">
        <ele>33.7</ele>
        <time>2020-06-18T14:23:38Z</time>
      </trkpt>
      <trkpt lat="50.01411" lon="1.32197">
        <ele>34</ele>
        <time>2020-06-18T14:23:39Z</time>
      </trkpt>
      <trkpt lat="50.0141" lon="1.32198">
        <ele>34.1</ele>
        <time>2020-06-18T14:23:40Z</time>
      </trkpt>
      <trkpt lat="50.01407" lon="1.322">
        <ele>34.2</ele>
        <time>2020-06-18T14:23:41Z</time>
      </trkpt>
      <trkpt lat="50.01405" lon="1.32203">
        <ele>34.4</ele>
        <time>2020-06-18T14:23:42Z</time>
      </trkpt>
      <trkpt lat="50.01402" lon="1.32205">
        <ele>34.6</ele>
        <time>2020-06-18T14:23:43Z</time>
      </trkpt>
      <trkpt lat="50.01399" lon="1.32209">
        <ele>34.7</ele>
        <time>2020-06-18T14:23:44Z</time>
      </trkpt>
      <trkpt lat="50.01398" lon="1.3221">
        <ele>34.8</ele>
        <time>2020-06-18T14:23:45Z</time>
      </trkpt>
      <trkpt lat="50.01395" lon="1.32212">
        <ele>34.9</ele>
        <time>2020-06-18T14:23:46Z</time>
      </trkpt>
      <trkpt lat="50.01392" lon="1.32214">
        <ele>35.1</ele>
        <time>2020-06-18T14:23:47Z</time>
      </trkpt>
      <trkpt lat="50.01391" lon="1.32215">
        <ele>35.2</ele>
        <time>2020-06-18T14:23:48Z</time>
      </trkpt>
      <trkpt lat="50.01388" lon="1.32216">
        <ele>35.3</ele>
        <time>2020-06-18T14:23:49Z</time>
      </trkpt>
      <trkpt lat="50.01385" lon="1.32218">
        <ele>35.5</ele>
        <time>2020-06-18T14:23:50Z</time>
      </trkpt>
      <trkpt lat="50.01382" lon="1.3222">
        <ele>35.6</ele>
        <time>2020-06-18T14:23:51Z</time>
      </trkpt>
      <trkpt lat="50.01378" lon="1.32222">
        <ele>35.8</ele>
        <time>2020-06-18T14:23:52Z</time>
      </trkpt>
      <trkpt lat="50.01374" lon="1.32224">
        <ele>35.9</ele>
        <time>2020-06-18T14:23:53Z</time>
      </trkpt>
      <trkpt lat="50.01371" lon="1.32225">
        <ele>35.9</ele>
        <time>2020-06-18T14:23:54Z</time>
      </trkpt>
      <trkpt lat="50.01367" lon="1.32227">
        <ele>35.9</ele>
        <time>2020-06-18T14:23:55Z</time>
      </trkpt>
      <trkpt lat="50.01363" lon="1.32229">
        <ele>35.9</ele>
        <time>2020-06-18T14:23:56Z</time>
      </trkpt>
      <trkpt lat="50.01359" lon="1.32233">
        <ele>35.8</ele>
        <time>2020-06-18T14:23:57Z</time>
      </trkpt>
      <trkpt lat="50.01356" lon="1.32236">
        <ele>35.8</ele>
        <time>2020-06-18T14:23:58Z</time>
      </trkpt>
      <trkpt lat="50.01352" lon="1.32239">
        <ele>35.7</ele>
        <time>2020-06-18T14:23:59Z</time>
      </trkpt>
      <trkpt lat="50.01348" lon="1.32241">
        <ele>35.5</ele>
        <time>2020-06-18T14:24:00Z</time>
      </trkpt>
      <trkpt lat="50.01345" lon="1.32243">
        <ele>35.4</ele>
        <time>2020-06-18T14:24:01Z</time>
      </trkpt>
      <trkpt lat="50.01341" lon="1.32246">
        <ele>35.3</ele>
        <time>2020-06-18T14:24:02Z</time>
      </trkpt>
      <trkpt lat="50.01338" lon="1.32249">
        <ele>35.1</ele>
        <time>2020-06-18T14:24:03Z</time>
      </trkpt>
      <trkpt lat="50.01334" lon="1.32254">
        <ele>35</ele>
        <time>2020-06-18T14:24:04Z</time>
      </trkpt>
      <trkpt lat="50.01331" lon="1.32258">
        <ele>34.8</ele>
        <time>2020-06-18T14:24:05Z</time>
      </trkpt>
      <trkpt lat="50.01327" lon="1.32264">
        <ele>34.6</ele>
        <time>2020-06-18T14:24:06Z</time>
      </trkpt>
      <trkpt lat="50.01323" lon="1.32269">
        <ele>34.3</ele>
        <time>2020-06-18T14:24:07Z</time>
      </trkpt>
      <trkpt lat="50.01318" lon="1.32275">
        <ele>34.1</ele>
        <time>2020-06-18T14:24:08Z</time>
      </trkpt>
      <trkpt lat="50.01313" lon="1.3228">
        <ele>33.9</ele>
        <time>2020-06-18T14:24:09Z</time>
      </trkpt>
      <trkpt lat="50.01308" lon="1.32285">
        <ele>33.7</ele>
        <time>2020-06-18T14:24:10Z</time>
      </trkpt>
      <trkpt lat="50.01304" lon="1.32291">
        <ele>33.6</ele>
        <time>2020-06-18T14:24:11Z</time>
      </trkpt>
      <trkpt lat="50.013" lon="1.32297">
        <ele>33.5</ele>
        <time>2020-06-18T14:24:12Z</time>
      </trkpt>
      <trkpt lat="50.01295" lon="1.32303">
        <ele>34</ele>
        <time>2020-06-18T14:24:13Z</time>
      </trkpt>
      <trkpt lat="50.0129" lon="1.32308">
        <ele>34.3</ele>
        <time>2020-06-18T14:24:14Z</time>
      </trkpt>
      <trkpt lat="50.01286" lon="1.32314">
        <ele>34.6</ele>
        <time>2020-06-18T14:24:15Z</time>
      </trkpt>
      <trkpt lat="50.01283" lon="1.32321">
        <ele>34.9</ele>
        <time>2020-06-18T14:24:16Z</time>
      </trkpt>
      <trkpt lat="50.01279" lon="1.32327">
        <ele>35.4</ele>
        <time>2020-06-18T14:24:17Z</time>
      </trkpt>
      <trkpt lat="50.01276" lon="1.32333">
        <ele>35.8</ele>
        <time>2020-06-18T14:24:18Z</time>
      </trkpt>
      <trkpt lat="50.01273" lon="1.32337">
        <ele>36.2</ele>
        <time>2020-06-18T14:24:19Z</time>
      </trkpt>
      <trkpt lat="50.01271" lon="1.32341">
        <ele>36.6</ele>
        <time>2020-06-18T14:24:20Z</time>
      </trkpt>
      <trkpt lat="50.01269" lon="1.32345">
        <ele>37</ele>
        <time>2020-06-18T14:24:21Z</time>
      </trkpt>
      <trkpt lat="50.01267" lon="1.3235">
        <ele>37.5</ele>
        <time>2020-06-18T14:24:22Z</time>
      </trkpt>
      <trkpt lat="50.01267" lon="1.32355">
        <ele>37.9</ele>
        <time>2020-06-18T14:24:23Z</time>
      </trkpt>
      <trkpt lat="50.01267" lon="1.32358">
        <ele>38.2</ele>
        <time>2020-06-18T14:24:24Z</time>
      </trkpt>
      <trkpt lat="50.01266" lon="1.32359">
        <ele>38.3</ele>
        <time>2020-06-18T14:24:25Z</time>
      </trkpt>
      <trkpt lat="50.01265" lon="1.32362">
        <ele>38.6</ele>
        <time>2020-06-18T14:24:26Z</time>
      </trkpt>
      <trkpt lat="50.01265" lon="1.32363">
        <ele>38.7</ele>
        <time>2020-06-18T14:24:27Z</time>
      </trkpt>
      <trkpt lat="50.01264" lon="1.32364">
        <ele>38.8</ele>
        <time>2020-06-18T14:24:28Z</time>
      </trkpt>
      <trkpt lat="50.01265" lon="1.32366">
        <ele>38.9</ele>
        <time>2020-06-18T14:24:29Z</time>
      </trkpt>
      <trkpt lat="50.01265" lon="1.32369">
        <ele>39.1</ele>
        <time>2020-06-18T14:24:30Z</time>
      </trkpt>
      <trkpt lat="50.01263" lon="1.32371">
        <ele>39.4</ele>
        <time>2020-06-18T14:24:31Z</time>
      </trkpt>
      <trkpt lat="50.01262" lon="1.32371">
        <ele>39.5</ele>
        <time>2020-06-18T14:24:32Z</time>
      </trkpt>
      <trkpt lat="50.01261" lon="1.32372">
        <ele>39.6</ele>
        <time>2020-06-18T14:24:33Z</time>
      </trkpt>
      <trkpt lat="50.0126" lon="1.32374">
        <ele>39.8</ele>
        <time>2020-06-18T14:24:34Z</time>
      </trkpt>
      <trkpt lat="50.01258" lon="1.32375">
        <ele>40</ele>
        <time>2020-06-18T14:24:35Z</time>
      </trkpt>
      <trkpt lat="50.01257" lon="1.32379">
        <ele>40.4</ele>
        <time>2020-06-18T14:24:36Z</time>
      </trkpt>
      <trkpt lat="50.01257" lon="1.3238">
        <ele>40.5</ele>
        <time>2020-06-18T14:24:37Z</time>
      </trkpt>
      <trkpt lat="50.01257" lon="1.32383">
        <ele>40.7</ele>
        <time>2020-06-18T14:24:38Z</time>
      </trkpt>
      <trkpt lat="50.01257" lon="1.32385">
        <ele>40.9</ele>
        <time>2020-06-18T14:24:39Z</time>
      </trkpt>
      <trkpt lat="50.01256" lon="1.32387">
        <ele>41</ele>
        <time>2020-06-18T14:24:40Z</time>
      </trkpt>
      <trkpt lat="50.01255" lon="1.32389">
        <ele>41.2</ele>
        <time>2020-06-18T14:24:41Z</time>
      </trkpt>
      <trkpt lat="50.01253" lon="1.32391">
        <ele>41.6</ele>
        <time>2020-06-18T14:24:42Z</time>
      </trkpt>
      <trkpt lat="50.01252" lon="1.32392">
        <ele>41.7</ele>
        <time>2020-06-18T14:24:43Z</time>
      </trkpt>
      <trkpt lat="50.01251" lon="1.32396">
        <ele>42</ele>
        <time>2020-06-18T14:24:44Z</time>
      </trkpt>
      <trkpt lat="50.01251" lon="1.32398">
        <ele>42.1</ele>
        <time>2020-06-18T14:24:45Z</time>
      </trkpt>
      <trkpt lat="50.0125" lon="1.324">
        <ele>42.3</ele>
        <time>2020-06-18T14:24:46Z</time>
      </trkpt>
      <trkpt lat="50.0125" lon="1.32403">
        <ele>42.5</ele>
        <time>2020-06-18T14:24:47Z</time>
      </trkpt>
      <trkpt lat="50.01249" lon="1.32407">
        <ele>42.9</ele>
        <time>2020-06-18T14:24:48Z</time>
      </trkpt>
      <trkpt lat="50.01248" lon="1.32408">
        <ele>43</ele>
        <time>2020-06-18T14:24:49Z</time>
      </trkpt>
      <trkpt lat="50.01247" lon="1.32411">
        <ele>43.3</ele>
        <time>2020-06-18T14:24:50Z</time>
      </trkpt>
      <trkpt lat="50.01247" lon="1.32413">
        <ele>43.4</ele>
        <time>2020-06-18T14:24:51Z</time>
      </trkpt>
      <trkpt lat="50.01246" lon="1.32415">
        <ele>43.6</ele>
        <time>2020-06-18T14:24:52Z</time>
      </trkpt>
      <trkpt lat="50.01246" lon="1.32418">
        <ele>43.8</ele>
        <time>2020-06-18T14:24:53Z</time>
      </trkpt>
      <trkpt lat="50.01244" lon="1.32423">
        <ele>44.2</ele>
        <time>2020-06-18T14:24:54Z</time>
      </trkpt>
      <trkpt lat="50.01244" lon="1.32424">
        <ele>44.3</ele>
        <time>2020-06-18T14:24:55Z</time>
      </trkpt>
      <trkpt lat="50.01242" lon="1.32429">
        <ele>44.8</ele>
        <time>2020-06-18T14:24:56Z</time>
      </trkpt>
      <trkpt lat="50.01241" lon="1.3243">
        <ele>44.9</ele>
        <time>2020-06-18T14:24:57Z</time>
      </trkpt>
      <trkpt lat="50.0124" lon="1.32432">
        <ele>45.1</ele>
        <time>2020-06-18T14:24:58Z</time>
      </trkpt>
      <trkpt lat="50.0124" lon="1.32434">
        <ele>45.3</ele>
        <time>2020-06-18T14:24:59Z</time>
      </trkpt>
      <trkpt lat="50.0124" lon="1.32438">
        <ele>45.6</ele>
        <time>2020-06-18T14:25:00Z</time>
      </trkpt>
      <trkpt lat="50.0124" lon="1.32439">
        <ele>45.7</ele>
        <time>2020-06-18T14:25:01Z</time>
      </trkpt>
      <trkpt lat="50.0124" lon="1.32441">
        <ele>45.8</ele>
        <time>2020-06-18T14:25:02Z</time>
      </trkpt>
      <trkpt lat="50.01239" lon="1.32443">
        <ele>46</ele>
        <time>2020-06-18T14:25:03Z</time>
      </trkpt>
      <trkpt lat="50.01238" lon="1.32445">
        <ele>46.2</ele>
        <time>2020-06-18T14:25:04Z</time>
      </trkpt>
      <trkpt lat="50.01237" lon="1.32448">
        <ele>46.5</ele>
        <time>2020-06-18T14:25:05Z</time>
      </trkpt>
      <trkpt lat="50.01236" lon="1.32449">
        <ele>46.6</ele>
        <time>2020-06-18T14:25:06Z</time>
      </trkpt>
      <trkpt lat="50.01235" lon="1.32451">
        <ele>46.8</ele>
        <time>2020-06-18T14:25:07Z</time>
      </trkpt>
      <trkpt lat="50.01235" lon="1.32454">
        <ele>47.1</ele>
        <time>2020-06-18T14:25:08Z</time>
      </trkpt>
      <trkpt lat="50.01233" lon="1.32457">
        <ele>47.4</ele>
        <time>2020-06-18T14:25:09Z</time>
      </trkpt>
      <trkpt lat="50.01232" lon="1.32458">
        <ele>47.5</ele>
        <time>2020-06-18T14:25:10Z</time>
      </trkpt>
      <trkpt lat="50.01231" lon="1.3246">
        <ele>47.7</ele>
        <time>2020-06-18T14:25:11Z</time>
      </trkpt>
      <trkpt lat="50.01231" lon="1.32463">
        <ele>47.9</ele>
        <time>2020-06-18T14:25:12Z</time>
      </trkpt>
      <trkpt lat="50.01231" lon="1.32466">
        <ele>48.2</ele>
        <time>2020-06-18T14:25:13Z</time>
      </trkpt>
      <trkpt lat="50.01231" lon="1.32468">
        <ele>48.3</ele>
        <time>2020-06-18T14:25:14Z</time>
      </trkpt>
      <trkpt lat="50.01231" lon="1.3247">
        <ele>48.5</ele>
        <time>2020-06-18T14:25:15Z</time>
      </trkpt>
      <trkpt lat="50.0123" lon="1.32474">
        <ele>48.8</ele>
        <time>2020-06-18T14:25:16Z</time>
      </trkpt>
      <trkpt lat="50.0123" lon="1.32475">
        <ele>48.9</ele>
        <time>2020-06-18T14:25:17Z</time>
      </trkpt>
      <trkpt lat="50.01229" lon="1.32477">
        <ele>49.1</ele>
        <time>2020-06-18T14:25:18Z</time>
      </trkpt>
      <trkpt lat="50.01229" lon="1.3248">
        <ele>49.3</ele>
        <time>2020-06-18T14:25:19Z</time>
      </trkpt>
      <trkpt lat="50.01228" lon="1.32486">
        <ele>49.7</ele>
        <time>2020-06-18T14:25:20Z</time>
      </trkpt>
      <trkpt lat="50.01227" lon="1.32487">
        <ele>49.8</ele>
        <time>2020-06-18T14:25:21Z</time>
      </trkpt>
      <trkpt lat="50.01226" lon="1.32492">
        <ele>50.2</ele>
        <time>2020-06-18T14:25:22Z</time>
      </trkpt>
      <trkpt lat="50.01226" lon="1.32494">
        <ele>50.3</ele>
        <time>2020-06-18T14:25:23Z</time>
      </trkpt>
      <trkpt lat="50.01225" lon="1.32499">
        <ele>50.7</ele>
        <time>2020-06-18T14:25:24Z</time>
      </trkpt>
      <trkpt lat="50.01225" lon="1.32501">
        <ele>50.8</ele>
        <time>2020-06-18T14:25:25Z</time>
      </trkpt>
      <trkpt lat="50.01225" lon="1.32503">
        <ele>51</ele>
        <time>2020-06-18T14:25:26Z</time>
      </trkpt>
      <trkpt lat="50.01224" lon="1.32506">
        <ele>51.2</ele>
        <time>2020-06-18T14:25:27Z</time>
      </trkpt>
      <trkpt lat="50.01223" lon="1.32511">
        <ele>51.5</ele>
        <time>2020-06-18T14:25:28Z</time>
      </trkpt>
      <trkpt lat="50.01223" lon="1.32512">
        <ele>51.6</ele>
        <time>2020-06-18T14:25:29Z</time>
      </trkpt>
      <trkpt lat="50.01223" lon="1.32515">
        <ele>51.9</ele>
        <time>2020-06-18T14:25:30Z</time>
      </trkpt>
      <trkpt lat="50.01222" lon="1.32517">
        <ele>52</ele>
        <time>2020-06-18T14:25:31Z</time>
      </trkpt>
      <trkpt lat="50.01221" lon="1.32522">
        <ele>52.4</ele>
        <time>2020-06-18T14:25:32Z</time>
      </trkpt>
      <trkpt lat="50.01221" lon="1.32524">
        <ele>52.5</ele>
        <time>2020-06-18T14:25:33Z</time>
      </trkpt>
      <trkpt lat="50.01221" lon="1.32528">
        <ele>52.8</ele>
        <time>2020-06-18T14:25:34Z</time>
      </trkpt>
      <trkpt lat="50.0122" lon="1.32529">
        <ele>53</ele>
        <time>2020-06-18T14:25:35Z</time>
      </trkpt>
      <trkpt lat="50.01218" lon="1.32534">
        <ele>53.4</ele>
        <time>2020-06-18T14:25:36Z</time>
      </trkpt>
      <trkpt lat="50.01218" lon="1.32536">
        <ele>53.5</ele>
        <time>2020-06-18T14:25:37Z</time>
      </trkpt>
      <trkpt lat="50.01217" lon="1.32542">
        <ele>53.9</ele>
        <time>2020-06-18T14:25:38Z</time>
      </trkpt>
      <trkpt lat="50.01216" lon="1.32544">
        <ele>54.1</ele>
        <time>2020-06-18T14:25:39Z</time>
      </trkpt>
      <trkpt lat="50.01215" lon="1.32548">
        <ele>54.4</ele>
        <time>2020-06-18T14:25:40Z</time>
      </trkpt>
      <trkpt lat="50.01215" lon="1.3255">
        <ele>54.5</ele>
        <time>2020-06-18T14:25:41Z</time>
      </trkpt>
      <trkpt lat="50.01215" lon="1.32555">
        <ele>54.9</ele>
        <time>2020-06-18T14:25:42Z</time>
      </trkpt>
      <trkpt lat="50.01214" lon="1.32557">
        <ele>55.1</ele>
        <time>2020-06-18T14:25:43Z</time>
      </trkpt>
      <trkpt lat="50.01214" lon="1.32562">
        <ele>55.4</ele>
        <time>2020-06-18T14:25:44Z</time>
      </trkpt>
      <trkpt lat="50.01214" lon="1.32564">
        <ele>55.5</ele>
        <time>2020-06-18T14:25:45Z</time>
      </trkpt>
      <trkpt lat="50.01215" lon="1.32566">
        <ele>55.7</ele>
        <time>2020-06-18T14:25:46Z</time>
      </trkpt>
      <trkpt lat="50.01214" lon="1.32569">
        <ele>55.9</ele>
        <time>2020-06-18T14:25:47Z</time>
      </trkpt>
      <trkpt lat="50.01214" lon="1.32574">
        <ele>56.2</ele>
        <time>2020-06-18T14:25:48Z</time>
      </trkpt>
      <trkpt lat="50.01213" lon="1.32575">
        <ele>56.3</ele>
        <time>2020-06-18T14:25:49Z</time>
      </trkpt>
      <trkpt lat="50.01212" lon="1.3258">
        <ele>56.6</ele>
        <time>2020-06-18T14:25:50Z</time>
      </trkpt>
      <trkpt lat="50.01212" lon="1.32582">
        <ele>56.7</ele>
        <time>2020-06-18T14:25:51Z</time>
      </trkpt>
      <trkpt lat="50.01212" lon="1.32585">
        <ele>56.9</ele>
        <time>2020-06-18T14:25:52Z</time>
      </trkpt>
      <trkpt lat="50.01211" lon="1.32587">
        <ele>57</ele>
        <time>2020-06-18T14:25:53Z</time>
      </trkpt>
      <trkpt lat="50.01211" lon="1.3259">
        <ele>57.1</ele>
        <time>2020-06-18T14:25:54Z</time>
      </trkpt>
      <trkpt lat="50.0121" lon="1.32593">
        <ele>57.2</ele>
        <time>2020-06-18T14:25:55Z</time>
      </trkpt>
      <trkpt lat="50.01209" lon="1.32594">
        <ele>57.4</ele>
        <time>2020-06-18T14:25:56Z</time>
      </trkpt>
      <trkpt lat="50.01209" lon="1.32597">
        <ele>57.7</ele>
        <time>2020-06-18T14:25:57Z</time>
      </trkpt>
      <trkpt lat="50.01208" lon="1.32602">
        <ele>58</ele>
        <time>2020-06-18T14:25:58Z</time>
      </trkpt>
      <trkpt lat="50.01208" lon="1.32604">
        <ele>58.1</ele>
        <time>2020-06-18T14:25:59Z</time>
      </trkpt>
      <trkpt lat="50.01207" lon="1.32608">
        <ele>58.5</ele>
        <time>2020-06-18T14:26:00Z</time>
      </trkpt>
      <trkpt lat="50.01207" lon="1.3261">
        <ele>58.7</ele>
        <time>2020-06-18T14:26:01Z</time>
      </trkpt>
      <trkpt lat="50.01205" lon="1.32612">
        <ele>58.9</ele>
        <time>2020-06-18T14:26:02Z</time>
      </trkpt>
      <trkpt lat="50.01205" lon="1.32614">
        <ele>59</ele>
        <time>2020-06-18T14:26:03Z</time>
      </trkpt>
      <trkpt lat="50.01206" lon="1.32617">
        <ele>59.2</ele>
        <time>2020-06-18T14:26:04Z</time>
      </trkpt>
      <trkpt lat="50.01206" lon="1.32619">
        <ele>59.4</ele>
        <time>2020-06-18T14:26:05Z</time>
      </trkpt>
      <trkpt lat="50.01205" lon="1.32621">
        <ele>59.5</ele>
        <time>2020-06-18T14:26:06Z</time>
      </trkpt>
      <trkpt lat="50.01204" lon="1.32623">
        <ele>59.8</ele>
        <time>2020-06-18T14:26:07Z</time>
      </trkpt>
      <trkpt lat="50.01204" lon="1.32628">
        <ele>60.1</ele>
        <time>2020-06-18T14:26:08Z</time>
      </trkpt>
      <trkpt lat="50.01203" lon="1.32629">
        <ele>60.2</ele>
        <time>2020-06-18T14:26:09Z</time>
      </trkpt>
      <trkpt lat="50.01203" lon="1.32631">
        <ele>60.4</ele>
        <time>2020-06-18T14:26:10Z</time>
      </trkpt>
      <trkpt lat="50.01202" lon="1.32634">
        <ele>60.6</ele>
        <time>2020-06-18T14:26:11Z</time>
      </trkpt>
      <trkpt lat="50.012" lon="1.32638">
        <ele>61</ele>
        <time>2020-06-18T14:26:12Z</time>
      </trkpt>
      <trkpt lat="50.012" lon="1.32639">
        <ele>61.1</ele>
        <time>2020-06-18T14:26:13Z</time>
      </trkpt>
      <trkpt lat="50.01199" lon="1.32642">
        <ele>61.3</ele>
        <time>2020-06-18T14:26:14Z</time>
      </trkpt>
      <trkpt lat="50.01198" lon="1.32645">
        <ele>61.5</ele>
        <time>2020-06-18T14:26:15Z</time>
      </trkpt>
      <trkpt lat="50.01197" lon="1.3265">
        <ele>61.9</ele>
        <time>2020-06-18T14:26:16Z</time>
      </trkpt>
      <trkpt lat="50.01197" lon="1.32651">
        <ele>62</ele>
        <time>2020-06-18T14:26:17Z</time>
      </trkpt>
      <trkpt lat="50.01196" lon="1.32657">
        <ele>62.4</ele>
        <time>2020-06-18T14:26:18Z</time>
      </trkpt>
      <trkpt lat="50.01196" lon="1.32658">
        <ele>62.5</ele>
        <time>2020-06-18T14:26:19Z</time>
      </trkpt>
      <trkpt lat="50.01196" lon="1.32664">
        <ele>62.9</ele>
        <time>2020-06-18T14:26:20Z</time>
      </trkpt>
      <trkpt lat="50.01195" lon="1.32665">
        <ele>63</ele>
        <time>2020-06-18T14:26:21Z</time>
      </trkpt>
      <trkpt lat="50.01194" lon="1.32669">
        <ele>63.3</ele>
        <time>2020-06-18T14:26:22Z</time>
      </trkpt>
      <trkpt lat="50.01192" lon="1.32675">
        <ele>63.7</ele>
        <time>2020-06-18T14:26:23Z</time>
      </trkpt>
      <trkpt lat="50.01191" lon="1.32676">
        <ele>63.9</ele>
        <time>2020-06-18T14:26:24Z</time>
      </trkpt>
      <trkpt lat="50.01189" lon="1.3268">
        <ele>64.1</ele>
        <time>2020-06-18T14:26:25Z</time>
      </trkpt>
      <trkpt lat="50.01188" lon="1.32685">
        <ele>64.4</ele>
        <time>2020-06-18T14:26:26Z</time>
      </trkpt>
      <trkpt lat="50.01188" lon="1.32687">
        <ele>64.5</ele>
        <time>2020-06-18T14:26:27Z</time>
      </trkpt>
      <trkpt lat="50.01186" lon="1.32692">
        <ele>64.9</ele>
        <time>2020-06-18T14:26:28Z</time>
      </trkpt>
      <trkpt lat="50.01185" lon="1.32694">
        <ele>65</ele>
        <time>2020-06-18T14:26:29Z</time>
      </trkpt>
      <trkpt lat="50.01184" lon="1.32698">
        <ele>65.2</ele>
        <time>2020-06-18T14:26:30Z</time>
      </trkpt>
      <trkpt lat="50.01182" lon="1.32702">
        <ele>65.5</ele>
        <time>2020-06-18T14:26:31Z</time>
      </trkpt>
      <trkpt lat="50.0118" lon="1.32706">
        <ele>65.7</ele>
        <time>2020-06-18T14:26:32Z</time>
      </trkpt>
      <trkpt lat="50.01178" lon="1.32711">
        <ele>66</ele>
        <time>2020-06-18T14:26:33Z</time>
      </trkpt>
      <trkpt lat="50.01177" lon="1.32713">
        <ele>66.1</ele>
        <time>2020-06-18T14:26:34Z</time>
      </trkpt>
      <trkpt lat="50.01176" lon="1.32717">
        <ele>66.3</ele>
        <time>2020-06-18T14:26:35Z</time>
      </trkpt>
      <trkpt lat="50.01175" lon="1.32723">
        <ele>66.6</ele>
        <time>2020-06-18T14:26:36Z</time>
      </trkpt>
      <trkpt lat="50.01174" lon="1.32724">
        <ele>66.7</ele>
        <time>2020-06-18T14:26:37Z</time>
      </trkpt>
      <trkpt lat="50.01173" lon="1.32729">
        <ele>66.9</ele>
        <time>2020-06-18T14:26:38Z</time>
      </trkpt>
      <trkpt lat="50.01172" lon="1.32731">
        <ele>67</ele>
        <time>2020-06-18T14:26:39Z</time>
      </trkpt>
      <trkpt lat="50.01171" lon="1.32735">
        <ele>67.2</ele>
        <time>2020-06-18T14:26:40Z</time>
      </trkpt>
      <trkpt lat="50.0117" lon="1.3274">
        <ele>67.4</ele>
        <time>2020-06-18T14:26:41Z</time>
      </trkpt>
      <trkpt lat="50.0117" lon="1.32742">
        <ele>67.5</ele>
        <time>2020-06-18T14:26:42Z</time>
      </trkpt>
      <trkpt lat="50.01168" lon="1.32747">
        <ele>67.7</ele>
        <time>2020-06-18T14:26:43Z</time>
      </trkpt>
      <trkpt lat="50.01168" lon="1.32749">
        <ele>67.7</ele>
        <time>2020-06-18T14:26:44Z</time>
      </trkpt>
      <trkpt lat="50.01167" lon="1.32754">
        <ele>68</ele>
        <time>2020-06-18T14:26:45Z</time>
      </trkpt>
      <trkpt lat="50.01166" lon="1.32756">
        <ele>68</ele>
        <time>2020-06-18T14:26:46Z</time>
      </trkpt>
      <trkpt lat="50.01165" lon="1.32761">
        <ele>68.3</ele>
        <time>2020-06-18T14:26:47Z</time>
      </trkpt>
      <trkpt lat="50.01164" lon="1.32763">
        <ele>68.3</ele>
        <time>2020-06-18T14:26:48Z</time>
      </trkpt>
      <trkpt lat="50.01163" lon="1.32768">
        <ele>68.6</ele>
        <time>2020-06-18T14:26:49Z</time>
      </trkpt>
      <trkpt lat="50.01163" lon="1.3277">
        <ele>68.7</ele>
        <time>2020-06-18T14:26:50Z</time>
      </trkpt>
      <trkpt lat="50.01161" lon="1.32775">
        <ele>68.9</ele>
        <time>2020-06-18T14:26:51Z</time>
      </trkpt>
      <trkpt lat="50.01161" lon="1.32776">
        <ele>69</ele>
        <time>2020-06-18T14:26:52Z</time>
      </trkpt>
      <trkpt lat="50.01159" lon="1.32781">
        <ele>69.3</ele>
        <time>2020-06-18T14:26:53Z</time>
      </trkpt>
      <trkpt lat="50.01159" lon="1.32783">
        <ele>69.3</ele>
        <time>2020-06-18T14:26:54Z</time>
      </trkpt>
      <trkpt lat="50.01158" lon="1.32788">
        <ele>69.5</ele>
        <time>2020-06-18T14:26:55Z</time>
      </trkpt>
      <trkpt lat="50.01158" lon="1.3279">
        <ele>69.6</ele>
        <time>2020-06-18T14:26:56Z</time>
      </trkpt>
      <trkpt lat="50.01155" lon="1.32795">
        <ele>69.8</ele>
        <time>2020-06-18T14:26:57Z</time>
      </trkpt>
      <trkpt lat="50.01155" lon="1.32797">
        <ele>69.9</ele>
        <time>2020-06-18T14:26:58Z</time>
      </trkpt>
      <trkpt lat="50.01153" lon="1.32801">
        <ele>70.1</ele>
        <time>2020-06-18T14:26:59Z</time>
      </trkpt>
      <trkpt lat="50.01152" lon="1.32803">
        <ele>70.1</ele>
        <time>2020-06-18T14:27:00Z</time>
      </trkpt>
      <trkpt lat="50.0115" lon="1.32808">
        <ele>70.3</ele>
        <time>2020-06-18T14:27:01Z</time>
      </trkpt>
      <trkpt lat="50.01148" lon="1.32811">
        <ele>70.4</ele>
        <time>2020-06-18T14:27:02Z</time>
      </trkpt>
      <trkpt lat="50.01146" lon="1.32816">
        <ele>70.6</ele>
        <time>2020-06-18T14:27:03Z</time>
      </trkpt>
      <trkpt lat="50.01145" lon="1.32818">
        <ele>70.7</ele>
        <time>2020-06-18T14:27:04Z</time>
      </trkpt>
      <trkpt lat="50.01144" lon="1.32823">
        <ele>70.9</ele>
        <time>2020-06-18T14:27:05Z</time>
      </trkpt>
      <trkpt lat="50.01143" lon="1.32827">
        <ele>71</ele>
        <time>2020-06-18T14:27:06Z</time>
      </trkpt>
      <trkpt lat="50.01142" lon="1.32832">
        <ele>71.2</ele>
        <time>2020-06-18T14:27:07Z</time>
      </trkpt>
      <trkpt lat="50.0114" lon="1.32836">
        <ele>71.3</ele>
        <time>2020-06-18T14:27:08Z</time>
      </trkpt>
      <trkpt lat="50.01139" lon="1.3284">
        <ele>71.5</ele>
        <time>2020-06-18T14:27:09Z</time>
      </trkpt>
      <trkpt lat="50.01138" lon="1.32845">
        <ele>71.6</ele>
        <time>2020-06-18T14:27:10Z</time>
      </trkpt>
      <trkpt lat="50.01136" lon="1.32849">
        <ele>71.7</ele>
        <time>2020-06-18T14:27:11Z</time>
      </trkpt>
      <trkpt lat="50.01135" lon="1.32854">
        <ele>71.9</ele>
        <time>2020-06-18T14:27:12Z</time>
      </trkpt>
      <trkpt lat="50.01134" lon="1.32858">
        <ele>72</ele>
        <time>2020-06-18T14:27:13Z</time>
      </trkpt>
      <trkpt lat="50.01133" lon="1.32862">
        <ele>72.1</ele>
        <time>2020-06-18T14:27:14Z</time>
      </trkpt>
      <trkpt lat="50.01131" lon="1.32868">
        <ele>72.3</ele>
        <time>2020-06-18T14:27:15Z</time>
      </trkpt>
      <trkpt lat="50.0113" lon="1.3287">
        <ele>72.4</ele>
        <time>2020-06-18T14:27:16Z</time>
      </trkpt>
      <trkpt lat="50.01129" lon="1.32874">
        <ele>72.5</ele>
        <time>2020-06-18T14:27:17Z</time>
      </trkpt>
      <trkpt lat="50.01128" lon="1.32878">
        <ele>72.6</ele>
        <time>2020-06-18T14:27:18Z</time>
      </trkpt>
      <trkpt lat="50.01126" lon="1.32883">
        <ele>72.7</ele>
        <time>2020-06-18T14:27:19Z</time>
      </trkpt>
      <trkpt lat="50.01125" lon="1.32888">
        <ele>72.8</ele>
        <time>2020-06-18T14:27:20Z</time>
      </trkpt>
      <trkpt lat="50.01124" lon="1.32894">
        <ele>72.9</ele>
        <time>2020-06-18T14:27:21Z</time>
      </trkpt>
      <trkpt lat="50.01123" lon="1.32896">
        <ele>72.9</ele>
        <time>2020-06-18T14:27:22Z</time>
      </trkpt>
      <trkpt lat="50.01122" lon="1.32901">
        <ele>73</ele>
        <time>2020-06-18T14:27:23Z</time>
      </trkpt>
      <trkpt lat="50.01121" lon="1.32905">
        <ele>73.1</ele>
        <time>2020-06-18T14:27:24Z</time>
      </trkpt>
      <trkpt lat="50.01119" lon="1.3291">
        <ele>73.2</ele>
        <time>2020-06-18T14:27:25Z</time>
      </trkpt>
      <trkpt lat="50.01119" lon="1.32915">
        <ele>73.3</ele>
        <time>2020-06-18T14:27:26Z</time>
      </trkpt>
      <trkpt lat="50.01117" lon="1.32921">
        <ele>73.4</ele>
        <time>2020-06-18T14:27:27Z</time>
      </trkpt>
      <trkpt lat="50.01116" lon="1.32926">
        <ele>73.5</ele>
        <time>2020-06-18T14:27:28Z</time>
      </trkpt>
      <trkpt lat="50.01114" lon="1.32931">
        <ele>73.6</ele>
        <time>2020-06-18T14:27:29Z</time>
      </trkpt>
      <trkpt lat="50.01112" lon="1.32937">
        <ele>73.7</ele>
        <time>2020-06-18T14:27:30Z</time>
      </trkpt>
      <trkpt lat="50.0111" lon="1.32944">
        <ele>73.8</ele>
        <time>2020-06-18T14:27:31Z</time>
      </trkpt>
      <trkpt lat="50.0111" lon="1.3295">
        <ele>73.9</ele>
        <time>2020-06-18T14:27:32Z</time>
      </trkpt>
      <trkpt lat="50.01108" lon="1.32956">
        <ele>74</ele>
        <time>2020-06-18T14:27:33Z</time>
      </trkpt>
      <trkpt lat="50.01107" lon="1.32961">
        <ele>74</ele>
        <time>2020-06-18T14:27:34Z</time>
      </trkpt>
      <trkpt lat="50.01106" lon="1.32967">
        <ele>74.1</ele>
        <time>2020-06-18T14:27:35Z</time>
      </trkpt>
      <trkpt lat="50.01105" lon="1.32972">
        <ele>74.1</ele>
        <time>2020-06-18T14:27:36Z</time>
      </trkpt>
      <trkpt lat="50.01105" lon="1.32977">
        <ele>74.1</ele>
        <time>2020-06-18T14:27:37Z</time>
      </trkpt>
      <trkpt lat="50.01105" lon="1.32982">
        <ele>74.2</ele>
        <time>2020-06-18T14:27:38Z</time>
      </trkpt>
      <trkpt lat="50.01105" lon="1.32986">
        <ele>74.2</ele>
        <time>2020-06-18T14:27:39Z</time>
      </trkpt>
      <trkpt lat="50.01106" lon="1.32991">
        <ele>74.2</ele>
        <time>2020-06-18T14:27:40Z</time>
      </trkpt>
      <trkpt lat="50.01107" lon="1.32995">
        <ele>74.2</ele>
        <time>2020-06-18T14:27:41Z</time>
      </trkpt>
      <trkpt lat="50.01107" lon="1.33001">
        <ele>74.3</ele>
        <time>2020-06-18T14:27:42Z</time>
      </trkpt>
      <trkpt lat="50.01108" lon="1.33006">
        <ele>74.3</ele>
        <time>2020-06-18T14:27:43Z</time>
      </trkpt>
      <trkpt lat="50.01109" lon="1.33011">
        <ele>74.3</ele>
        <time>2020-06-18T14:27:44Z</time>
      </trkpt>
      <trkpt lat="50.0111" lon="1.33016">
        <ele>74.3</ele>
        <time>2020-06-18T14:27:45Z</time>
      </trkpt>
      <trkpt lat="50.01111" lon="1.33021">
        <ele>74.3</ele>
        <time>2020-06-18T14:27:46Z</time>
      </trkpt>
      <trkpt lat="50.01112" lon="1.33027">
        <ele>74.3</ele>
        <time>2020-06-18T14:27:47Z</time>
      </trkpt>
      <trkpt lat="50.01113" lon="1.33032">
        <ele>74.3</ele>
        <time>2020-06-18T14:27:48Z</time>
      </trkpt>
      <trkpt lat="50.01114" lon="1.33037">
        <ele>74.3</ele>
        <time>2020-06-18T14:27:49Z</time>
      </trkpt>
      <trkpt lat="50.01116" lon="1.33042">
        <ele>74.3</ele>
        <time>2020-06-18T14:27:50Z</time>
      </trkpt>
      <trkpt lat="50.01118" lon="1.33047">
        <ele>74.3</ele>
        <time>2020-06-18T14:27:51Z</time>
      </trkpt>
      <trkpt lat="50.01119" lon="1.33052">
        <ele>74.3</ele>
        <time>2020-06-18T14:27:52Z</time>
      </trkpt>
      <trkpt lat="50.0112" lon="1.33057">
        <ele>74.3</ele>
        <time>2020-06-18T14:27:53Z</time>
      </trkpt>
      <trkpt lat="50.01121" lon="1.33062">
        <ele>74.4</ele>
        <time>2020-06-18T14:27:54Z</time>
      </trkpt>
      <trkpt lat="50.01122" lon="1.33067">
        <ele>74.5</ele>
        <time>2020-06-18T14:27:55Z</time>
      </trkpt>
      <trkpt lat="50.01124" lon="1.33072">
        <ele>74.5</ele>
        <time>2020-06-18T14:27:56Z</time>
      </trkpt>
      <trkpt lat="50.01125" lon="1.33076">
        <ele>74.6</ele>
        <time>2020-06-18T14:27:57Z</time>
      </trkpt>
      <trkpt lat="50.01126" lon="1.33081">
        <ele>74.6</ele>
        <time>2020-06-18T14:27:58Z</time>
      </trkpt>
      <trkpt lat="50.01127" lon="1.33085">
        <ele>74.6</ele>
        <time>2020-06-18T14:27:59Z</time>
      </trkpt>
      <trkpt lat="50.01128" lon="1.33091">
        <ele>74.7</ele>
        <time>2020-06-18T14:28:00Z</time>
      </trkpt>
      <trkpt lat="50.0113" lon="1.33096">
        <ele>74.7</ele>
        <time>2020-06-18T14:28:01Z</time>
      </trkpt>
      <trkpt lat="50.01131" lon="1.33102">
        <ele>74.8</ele>
        <time>2020-06-18T14:28:02Z</time>
      </trkpt>
      <trkpt lat="50.01132" lon="1.33107">
        <ele>74.8</ele>
        <time>2020-06-18T14:28:03Z</time>
      </trkpt>
      <trkpt lat="50.01134" lon="1.33112">
        <ele>74.8</ele>
        <time>2020-06-18T14:28:04Z</time>
      </trkpt>
      <trkpt lat="50.01135" lon="1.33117">
        <ele>74.8</ele>
        <time>2020-06-18T14:28:05Z</time>
      </trkpt>
      <trkpt lat="50.01137" lon="1.33123">
        <ele>74.8</ele>
        <time>2020-06-18T14:28:06Z</time>
      </trkpt>
      <trkpt lat="50.01139" lon="1.33129">
        <ele>74.9</ele>
        <time>2020-06-18T14:28:07Z</time>
      </trkpt>
      <trkpt lat="50.0114" lon="1.33134">
        <ele>74.9</ele>
        <time>2020-06-18T14:28:08Z</time>
      </trkpt>
      <trkpt lat="50.01142" lon="1.3314">
        <ele>74.9</ele>
        <time>2020-06-18T14:28:09Z</time>
      </trkpt>
      <trkpt lat="50.01144" lon="1.33147">
        <ele>74.9</ele>
        <time>2020-06-18T14:28:10Z</time>
      </trkpt>
      <trkpt lat="50.01145" lon="1.33154">
        <ele>74.9</ele>
        <time>2020-06-18T14:28:11Z</time>
      </trkpt>
      <trkpt lat="50.01147" lon="1.3316">
        <ele>74.9</ele>
        <time>2020-06-18T14:28:12Z</time>
      </trkpt>
      <trkpt lat="50.01148" lon="1.33165">
        <ele>74.9</ele>
        <time>2020-06-18T14:28:13Z</time>
      </trkpt>
      <trkpt lat="50.0115" lon="1.33171">
        <ele>74.8</ele>
        <time>2020-06-18T14:28:14Z</time>
      </trkpt>
      <trkpt lat="50.01151" lon="1.33177">
        <ele>74.8</ele>
        <time>2020-06-18T14:28:15Z</time>
      </trkpt>
      <trkpt lat="50.01152" lon="1.33183">
        <ele>74.9</ele>
        <time>2020-06-18T14:28:16Z</time>
      </trkpt>
      <trkpt lat="50.01154" lon="1.33188">
        <ele>74.9</ele>
        <time>2020-06-18T14:28:17Z</time>
      </trkpt>
      <trkpt lat="50.01155" lon="1.33194">
        <ele>74.9</ele>
        <time>2020-06-18T14:28:18Z</time>
      </trkpt>
      <trkpt lat="50.01156" lon="1.332">
        <ele>74.9</ele>
        <time>2020-06-18T14:28:19Z</time>
      </trkpt>
      <trkpt lat="50.01157" lon="1.33205">
        <ele>75</ele>
        <time>2020-06-18T14:28:20Z</time>
      </trkpt>
      <trkpt lat="50.01158" lon="1.33211">
        <ele>75</ele>
        <time>2020-06-18T14:28:21Z</time>
      </trkpt>
      <trkpt lat="50.0116" lon="1.33217">
        <ele>75.1</ele>
        <time>2020-06-18T14:28:22Z</time>
      </trkpt>
      <trkpt lat="50.01161" lon="1.33222">
        <ele>75.1</ele>
        <time>2020-06-18T14:28:23Z</time>
      </trkpt>
      <trkpt lat="50.01163" lon="1.33228">
        <ele>75.2</ele>
        <time>2020-06-18T14:28:24Z</time>
      </trkpt>
      <trkpt lat="50.01165" lon="1.33234">
        <ele>75.3</ele>
        <time>2020-06-18T14:28:25Z</time>
      </trkpt>
      <trkpt lat="50.01166" lon="1.33239">
        <ele>75.4</ele>
        <time>2020-06-18T14:28:26Z</time>
      </trkpt>
      <trkpt lat="50.01168" lon="1.33245">
        <ele>75.5</ele>
        <time>2020-06-18T14:28:27Z</time>
      </trkpt>
      <trkpt lat="50.0117" lon="1.33251">
        <ele>75.6</ele>
        <time>2020-06-18T14:28:28Z</time>
      </trkpt>
      <trkpt lat="50.01171" lon="1.33257">
        <ele>75.6</ele>
        <time>2020-06-18T14:28:29Z</time>
      </trkpt>
      <trkpt lat="50.01172" lon="1.33263">
        <ele>75.7</ele>
        <time>2020-06-18T14:28:30Z</time>
      </trkpt>
      <trkpt lat="50.01174" lon="1.33268">
        <ele>75.7</ele>
        <time>2020-06-18T14:28:31Z</time>
      </trkpt>
      <trkpt lat="50.01175" lon="1.33273">
        <ele>75.8</ele>
        <time>2020-06-18T14:28:32Z</time>
      </trkpt>
      <trkpt lat="50.01176" lon="1.33278">
        <ele>75.8</ele>
        <time>2020-06-18T14:28:33Z</time>
      </trkpt>
      <trkpt lat="50.01178" lon="1.33283">
        <ele>75.8</ele>
        <time>2020-06-18T14:28:34Z</time>
      </trkpt>
      <trkpt lat="50.01179" lon="1.33288">
        <ele>75.9</ele>
        <time>2020-06-18T14:28:35Z</time>
      </trkpt>
      <trkpt lat="50.01181" lon="1.33294">
        <ele>75.9</ele>
        <time>2020-06-18T14:28:36Z</time>
      </trkpt>
      <trkpt lat="50.01182" lon="1.333">
        <ele>75.9</ele>
        <time>2020-06-18T14:28:37Z</time>
      </trkpt>
      <trkpt lat="50.01183" lon="1.33306">
        <ele>75.9</ele>
        <time>2020-06-18T14:28:38Z</time>
      </trkpt>
      <trkpt lat="50.01184" lon="1.33312">
        <ele>75.9</ele>
        <time>2020-06-18T14:28:39Z</time>
      </trkpt>
      <trkpt lat="50.01185" lon="1.33318">
        <ele>76</ele>
        <time>2020-06-18T14:28:40Z</time>
      </trkpt>
      <trkpt lat="50.01187" lon="1.33324">
        <ele>76</ele>
        <time>2020-06-18T14:28:41Z</time>
      </trkpt>
      <trkpt lat="50.01189" lon="1.3333">
        <ele>76.1</ele>
        <time>2020-06-18T14:28:42Z</time>
      </trkpt>
      <trkpt lat="50.01191" lon="1.33337">
        <ele>76.2</ele>
        <time>2020-06-18T14:28:43Z</time>
      </trkpt>
      <trkpt lat="50.01193" lon="1.33343">
        <ele>76.2</ele>
        <time>2020-06-18T14:28:44Z</time>
      </trkpt>
      <trkpt lat="50.01194" lon="1.33351">
        <ele>76.3</ele>
        <time>2020-06-18T14:28:45Z</time>
      </trkpt>
      <trkpt lat="50.01197" lon="1.33358">
        <ele>76.3</ele>
        <time>2020-06-18T14:28:46Z</time>
      </trkpt>
      <trkpt lat="50.01198" lon="1.33365">
        <ele>76.3</ele>
        <time>2020-06-18T14:28:47Z</time>
      </trkpt>
      <trkpt lat="50.012" lon="1.33373">
        <ele>76.4</ele>
        <time>2020-06-18T14:28:48Z</time>
      </trkpt>
      <trkpt lat="50.01201" lon="1.3338">
        <ele>76.5</ele>
        <time>2020-06-18T14:28:49Z</time>
      </trkpt>
      <trkpt lat="50.01202" lon="1.33388">
        <ele>76.6</ele>
        <time>2020-06-18T14:28:50Z</time>
      </trkpt>
      <trkpt lat="50.01203" lon="1.33395">
        <ele>76.7</ele>
        <time>2020-06-18T14:28:51Z</time>
      </trkpt>
      <trkpt lat="50.01205" lon="1.33402">
        <ele>76.7</ele>
        <time>2020-06-18T14:28:52Z</time>
      </trkpt>
      <trkpt lat="50.01207" lon="1.33408">
        <ele>76.8</ele>
        <time>2020-06-18T14:28:53Z</time>
      </trkpt>
      <trkpt lat="50.01209" lon="1.33414">
        <ele>76.9</ele>
        <time>2020-06-18T14:28:54Z</time>
      </trkpt>
      <trkpt lat="50.01211" lon="1.33421">
        <ele>76.9</ele>
        <time>2020-06-18T14:28:55Z</time>
      </trkpt>
      <trkpt lat="50.01212" lon="1.33427">
        <ele>76.9</ele>
        <time>2020-06-18T14:28:56Z</time>
      </trkpt>
      <trkpt lat="50.01215" lon="1.33433">
        <ele>77</ele>
        <time>2020-06-18T14:28:57Z</time>
      </trkpt>
      <trkpt lat="50.01217" lon="1.3344">
        <ele>77</ele>
        <time>2020-06-18T14:28:58Z</time>
      </trkpt>
      <trkpt lat="50.01219" lon="1.33447">
        <ele>77</ele>
        <time>2020-06-18T14:28:59Z</time>
      </trkpt>
      <trkpt lat="50.01221" lon="1.33454">
        <ele>77</ele>
        <time>2020-06-18T14:29:00Z</time>
      </trkpt>
      <trkpt lat="50.01222" lon="1.3346">
        <ele>77</ele>
        <time>2020-06-18T14:29:01Z</time>
      </trkpt>
      <trkpt lat="50.01224" lon="1.33467">
        <ele>77</ele>
        <time>2020-06-18T14:29:02Z</time>
      </trkpt>
      <trkpt lat="50.01226" lon="1.33474">
        <ele>77.1</ele>
        <time>2020-06-18T14:29:03Z</time>
      </trkpt>
      <trkpt lat="50.01227" lon="1.33481">
        <ele>77.1</ele>
        <time>2020-06-18T14:29:04Z</time>
      </trkpt>
      <trkpt lat="50.01228" lon="1.33488">
        <ele>77.2</ele>
        <time>2020-06-18T14:29:05Z</time>
      </trkpt>
      <trkpt lat="50.0123" lon="1.33495">
        <ele>77.3</ele>
        <time>2020-06-18T14:29:06Z</time>
      </trkpt>
      <trkpt lat="50.01231" lon="1.33502">
        <ele>77.4</ele>
        <time>2020-06-18T14:29:07Z</time>
      </trkpt>
      <trkpt lat="50.01232" lon="1.33509">
        <ele>77.5</ele>
        <time>2020-06-18T14:29:08Z</time>
      </trkpt>
      <trkpt lat="50.01234" lon="1.33516">
        <ele>77.7</ele>
        <time>2020-06-18T14:29:09Z</time>
      </trkpt>
      <trkpt lat="50.01236" lon="1.33524">
        <ele>77.7</ele>
        <time>2020-06-18T14:29:10Z</time>
      </trkpt>
      <trkpt lat="50.01238" lon="1.33532">
        <ele>77.8</ele>
        <time>2020-06-18T14:29:11Z</time>
      </trkpt>
      <trkpt lat="50.0124" lon="1.33539">
        <ele>77.8</ele>
        <time>2020-06-18T14:29:12Z</time>
      </trkpt>
      <trkpt lat="50.01242" lon="1.33545">
        <ele>77.8</ele>
        <time>2020-06-18T14:29:13Z</time>
      </trkpt>
      <trkpt lat="50.01244" lon="1.33552">
        <ele>77.9</ele>
        <time>2020-06-18T14:29:14Z</time>
      </trkpt>
      <trkpt lat="50.01247" lon="1.33559">
        <ele>77.9</ele>
        <time>2020-06-18T14:29:15Z</time>
      </trkpt>
      <trkpt lat="50.01249" lon="1.33567">
        <ele>77.9</ele>
        <time>2020-06-18T14:29:16Z</time>
      </trkpt>
      <trkpt lat="50.01252" lon="1.33574">
        <ele>78</ele>
        <time>2020-06-18T14:29:17Z</time>
      </trkpt>
      <trkpt lat="50.01254" lon="1.33582">
        <ele>78</ele>
        <time>2020-06-18T14:29:18Z</time>
      </trkpt>
      <trkpt lat="50.01255" lon="1.3359">
        <ele>78</ele>
        <time>2020-06-18T14:29:19Z</time>
      </trkpt>
      <trkpt lat="50.01257" lon="1.33597">
        <ele>78</ele>
        <time>2020-06-18T14:29:20Z</time>
      </trkpt>
      <trkpt lat="50.01258" lon="1.33604">
        <ele>78</ele>
        <time>2020-06-18T14:29:21Z</time>
      </trkpt>
      <trkpt lat="50.0126" lon="1.33612">
        <ele>77.8</ele>
        <time>2020-06-18T14:29:22Z</time>
      </trkpt>
      <trkpt lat="50.01262" lon="1.33619">
        <ele>77.5</ele>
        <time>2020-06-18T14:29:23Z</time>
      </trkpt>
      <trkpt lat="50.01264" lon="1.33626">
        <ele>77.3</ele>
        <time>2020-06-18T14:29:24Z</time>
      </trkpt>
      <trkpt lat="50.01265" lon="1.33634">
        <ele>77.4</ele>
        <time>2020-06-18T14:29:25Z</time>
      </trkpt>
      <trkpt lat="50.01267" lon="1.3364">
        <ele>77.4</ele>
        <time>2020-06-18T14:29:26Z</time>
      </trkpt>
      <trkpt lat="50.01269" lon="1.33645">
        <ele>77.4</ele>
        <time>2020-06-18T14:29:27Z</time>
      </trkpt>
      <trkpt lat="50.0127" lon="1.33652">
        <ele>77.4</ele>
        <time>2020-06-18T14:29:28Z</time>
      </trkpt>
      <trkpt lat="50.01272" lon="1.33659">
        <ele>77.4</ele>
        <time>2020-06-18T14:29:29Z</time>
      </trkpt>
      <trkpt lat="50.01274" lon="1.33667">
        <ele>77.4</ele>
        <time>2020-06-18T14:29:30Z</time>
      </trkpt>
      <trkpt lat="50.01275" lon="1.33674">
        <ele>77.4</ele>
        <time>2020-06-18T14:29:31Z</time>
      </trkpt>
      <trkpt lat="50.01278" lon="1.33681">
        <ele>77.4</ele>
        <time>2020-06-18T14:29:32Z</time>
      </trkpt>
      <trkpt lat="50.01279" lon="1.33689">
        <ele>77.5</ele>
        <time>2020-06-18T14:29:33Z</time>
      </trkpt>
      <trkpt lat="50.0128" lon="1.33695">
        <ele>77.5</ele>
        <time>2020-06-18T14:29:34Z</time>
      </trkpt>
      <trkpt lat="50.01281" lon="1.33701">
        <ele>77.5</ele>
        <time>2020-06-18T14:29:35Z</time>
      </trkpt>
      <trkpt lat="50.01283" lon="1.33707">
        <ele>77.5</ele>
        <time>2020-06-18T14:29:36Z</time>
      </trkpt>
      <trkpt lat="50.01286" lon="1.33715">
        <ele>77.5</ele>
        <time>2020-06-18T14:29:37Z</time>
      </trkpt>
      <trkpt lat="50.01288" lon="1.33723">
        <ele>77.6</ele>
        <time>2020-06-18T14:29:38Z</time>
      </trkpt>
      <trkpt lat="50.01289" lon="1.3373">
        <ele>77.6</ele>
        <time>2020-06-18T14:29:39Z</time>
      </trkpt>
      <trkpt lat="50.01291" lon="1.33735">
        <ele>77.7</ele>
        <time>2020-06-18T14:29:40Z</time>
      </trkpt>
      <trkpt lat="50.01293" lon="1.3374">
        <ele>77.7</ele>
        <time>2020-06-18T14:29:41Z</time>
      </trkpt>
      <trkpt lat="50.01294" lon="1.33745">
        <ele>77.7</ele>
        <time>2020-06-18T14:29:42Z</time>
      </trkpt>
      <trkpt lat="50.01295" lon="1.3375">
        <ele>77.8</ele>
        <time>2020-06-18T14:29:43Z</time>
      </trkpt>
      <trkpt lat="50.01297" lon="1.33756">
        <ele>77.8</ele>
        <time>2020-06-18T14:29:44Z</time>
      </trkpt>
      <trkpt lat="50.01298" lon="1.33761">
        <ele>77.7</ele>
        <time>2020-06-18T14:29:45Z</time>
      </trkpt>
      <trkpt lat="50.013" lon="1.33766">
        <ele>77.6</ele>
        <time>2020-06-18T14:29:46Z</time>
      </trkpt>
      <trkpt lat="50.01301" lon="1.33772">
        <ele>77.6</ele>
        <time>2020-06-18T14:29:47Z</time>
      </trkpt>
      <trkpt lat="50.01302" lon="1.33777">
        <ele>77.5</ele>
        <time>2020-06-18T14:29:48Z</time>
      </trkpt>
      <trkpt lat="50.01305" lon="1.33784">
        <ele>77.5</ele>
        <time>2020-06-18T14:29:49Z</time>
      </trkpt>
      <trkpt lat="50.01307" lon="1.3379">
        <ele>77.4</ele>
        <time>2020-06-18T14:29:50Z</time>
      </trkpt>
      <trkpt lat="50.01309" lon="1.33796">
        <ele>77.4</ele>
        <time>2020-06-18T14:29:51Z</time>
      </trkpt>
      <trkpt lat="50.0131" lon="1.33803">
        <ele>77.4</ele>
        <time>2020-06-18T14:29:52Z</time>
      </trkpt>
      <trkpt lat="50.01311" lon="1.3381">
        <ele>77.5</ele>
        <time>2020-06-18T14:29:53Z</time>
      </trkpt>
      <trkpt lat="50.01312" lon="1.33815">
        <ele>77.5</ele>
        <time>2020-06-18T14:29:54Z</time>
      </trkpt>
      <trkpt lat="50.01314" lon="1.3382">
        <ele>77.5</ele>
        <time>2020-06-18T14:29:55Z</time>
      </trkpt>
      <trkpt lat="50.01316" lon="1.33825">
        <ele>77.6</ele>
        <time>2020-06-18T14:29:56Z</time>
      </trkpt>
      <trkpt lat="50.01318" lon="1.33831">
        <ele>77.6</ele>
        <time>2020-06-18T14:29:57Z</time>
      </trkpt>
      <trkpt lat="50.01319" lon="1.33837">
        <ele>77.6</ele>
        <time>2020-06-18T14:29:58Z</time>
      </trkpt>
      <trkpt lat="50.0132" lon="1.33842">
        <ele>77.7</ele>
        <time>2020-06-18T14:29:59Z</time>
      </trkpt>
      <trkpt lat="50.01321" lon="1.33848">
        <ele>77.7</ele>
        <time>2020-06-18T14:30:00Z</time>
      </trkpt>
      <trkpt lat="50.01323" lon="1.33853">
        <ele>77.8</ele>
        <time>2020-06-18T14:30:01Z</time>
      </trkpt>
      <trkpt lat="50.01324" lon="1.33857">
        <ele>77.8</ele>
        <time>2020-06-18T14:30:02Z</time>
      </trkpt>
      <trkpt lat="50.01324" lon="1.33862">
        <ele>77.8</ele>
        <time>2020-06-18T14:30:03Z</time>
      </trkpt>
      <trkpt lat="50.01325" lon="1.33867">
        <ele>77.8</ele>
        <time>2020-06-18T14:30:04Z</time>
      </trkpt>
      <trkpt lat="50.01326" lon="1.33872">
        <ele>77.9</ele>
        <time>2020-06-18T14:30:05Z</time>
      </trkpt>
      <trkpt lat="50.01327" lon="1.33878">
        <ele>77.9</ele>
        <time>2020-06-18T14:30:06Z</time>
      </trkpt>
      <trkpt lat="50.01328" lon="1.33881">
        <ele>77.9</ele>
        <time>2020-06-18T14:30:07Z</time>
      </trkpt>
      <trkpt lat="50.0133" lon="1.33886">
        <ele>77.8</ele>
        <time>2020-06-18T14:30:08Z</time>
      </trkpt>
      <trkpt lat="50.01331" lon="1.33891">
        <ele>77.8</ele>
        <time>2020-06-18T14:30:09Z</time>
      </trkpt>
      <trkpt lat="50.01332" lon="1.33896">
        <ele>77.8</ele>
        <time>2020-06-18T14:30:10Z</time>
      </trkpt>
      <trkpt lat="50.01333" lon="1.33901">
        <ele>77.8</ele>
        <time>2020-06-18T14:30:11Z</time>
      </trkpt>
      <trkpt lat="50.01334" lon="1.33906">
        <ele>77.8</ele>
        <time>2020-06-18T14:30:12Z</time>
      </trkpt>
      <trkpt lat="50.01335" lon="1.33913">
        <ele>77.7</ele>
        <time>2020-06-18T14:30:13Z</time>
      </trkpt>
      <trkpt lat="50.01336" lon="1.33918">
        <ele>77.7</ele>
        <time>2020-06-18T14:30:14Z</time>
      </trkpt>
      <trkpt lat="50.01337" lon="1.33924">
        <ele>77.7</ele>
        <time>2020-06-18T14:30:15Z</time>
      </trkpt>
      <trkpt lat="50.01339" lon="1.33931">
        <ele>77.7</ele>
        <time>2020-06-18T14:30:16Z</time>
      </trkpt>
      <trkpt lat="50.0134" lon="1.33936">
        <ele>77.7</ele>
        <time>2020-06-18T14:30:17Z</time>
      </trkpt>
      <trkpt lat="50.01342" lon="1.3394">
        <ele>77.7</ele>
        <time>2020-06-18T14:30:18Z</time>
      </trkpt>
      <trkpt lat="50.01343" lon="1.33945">
        <ele>77.7</ele>
        <time>2020-06-18T14:30:19Z</time>
      </trkpt>
      <trkpt lat="50.01344" lon="1.3395">
        <ele>77.7</ele>
        <time>2020-06-18T14:30:20Z</time>
      </trkpt>
      <trkpt lat="50.01345" lon="1.33954">
        <ele>77.7</ele>
        <time>2020-06-18T14:30:21Z</time>
      </trkpt>
      <trkpt lat="50.01346" lon="1.33959">
        <ele>77.7</ele>
        <time>2020-06-18T14:30:22Z</time>
      </trkpt>
      <trkpt lat="50.01348" lon="1.33964">
        <ele>77.7</ele>
        <time>2020-06-18T14:30:23Z</time>
      </trkpt>
      <trkpt lat="50.01349" lon="1.33969">
        <ele>77.7</ele>
        <time>2020-06-18T14:30:24Z</time>
      </trkpt>
      <trkpt lat="50.0135" lon="1.33973">
        <ele>77.7</ele>
        <time>2020-06-18T14:30:25Z</time>
      </trkpt>
      <trkpt lat="50.01351" lon="1.33978">
        <ele>77.7</ele>
        <time>2020-06-18T14:30:26Z</time>
      </trkpt>
      <trkpt lat="50.01354" lon="1.33984">
        <ele>77.7</ele>
        <time>2020-06-18T14:30:27Z</time>
      </trkpt>
      <trkpt lat="50.01355" lon="1.33988">
        <ele>77.7</ele>
        <time>2020-06-18T14:30:28Z</time>
      </trkpt>
      <trkpt lat="50.01356" lon="1.33992">
        <ele>77.7</ele>
        <time>2020-06-18T14:30:29Z</time>
      </trkpt>
      <trkpt lat="50.01358" lon="1.33997">
        <ele>77.6</ele>
        <time>2020-06-18T14:30:30Z</time>
      </trkpt>
      <trkpt lat="50.01359" lon="1.34002">
        <ele>77.6</ele>
        <time>2020-06-18T14:30:31Z</time>
      </trkpt>
      <trkpt lat="50.01359" lon="1.34004">
        <ele>77.6</ele>
        <time>2020-06-18T14:30:32Z</time>
      </trkpt>
      <trkpt lat="50.01362" lon="1.3401">
        <ele>77.6</ele>
        <time>2020-06-18T14:30:33Z</time>
      </trkpt>
      <trkpt lat="50.01362" lon="1.34012">
        <ele>77.6</ele>
        <time>2020-06-18T14:30:34Z</time>
      </trkpt>
      <trkpt lat="50.01364" lon="1.34017">
        <ele>77.5</ele>
        <time>2020-06-18T14:30:35Z</time>
      </trkpt>
      <trkpt lat="50.01365" lon="1.34022">
        <ele>77.5</ele>
        <time>2020-06-18T14:30:36Z</time>
      </trkpt>
      <trkpt lat="50.01366" lon="1.34028">
        <ele>77.5</ele>
        <time>2020-06-18T14:30:37Z</time>
      </trkpt>
      <trkpt lat="50.01367" lon="1.34032">
        <ele>77.5</ele>
        <time>2020-06-18T14:30:38Z</time>
      </trkpt>
      <trkpt lat="50.01367" lon="1.34038">
        <ele>77.5</ele>
        <time>2020-06-18T14:30:39Z</time>
      </trkpt>
      <trkpt lat="50.01368" lon="1.34044">
        <ele>77.5</ele>
        <time>2020-06-18T14:30:40Z</time>
      </trkpt>
      <trkpt lat="50.01369" lon="1.34049">
        <ele>77.5</ele>
        <time>2020-06-18T14:30:41Z</time>
      </trkpt>
      <trkpt lat="50.0137" lon="1.34054">
        <ele>77.5</ele>
        <time>2020-06-18T14:30:42Z</time>
      </trkpt>
      <trkpt lat="50.01372" lon="1.34059">
        <ele>77.5</ele>
        <time>2020-06-18T14:30:43Z</time>
      </trkpt>
      <trkpt lat="50.01373" lon="1.34064">
        <ele>77.4</ele>
        <time>2020-06-18T14:30:44Z</time>
      </trkpt>
      <trkpt lat="50.01374" lon="1.34068">
        <ele>77.4</ele>
        <time>2020-06-18T14:30:45Z</time>
      </trkpt>
      <trkpt lat="50.01375" lon="1.34072">
        <ele>77.4</ele>
        <time>2020-06-18T14:30:46Z</time>
      </trkpt>
      <trkpt lat="50.01377" lon="1.34078">
        <ele>77.4</ele>
        <time>2020-06-18T14:30:47Z</time>
      </trkpt>
      <trkpt lat="50.01378" lon="1.34079">
        <ele>77.4</ele>
        <time>2020-06-18T14:30:48Z</time>
      </trkpt>
      <trkpt lat="50.01379" lon="1.34084">
        <ele>77.4</ele>
        <time>2020-06-18T14:30:49Z</time>
      </trkpt>
      <trkpt lat="50.0138" lon="1.3409">
        <ele>77.3</ele>
        <time>2020-06-18T14:30:50Z</time>
      </trkpt>
      <trkpt lat="50.0138" lon="1.34092">
        <ele>77.3</ele>
        <time>2020-06-18T14:30:51Z</time>
      </trkpt>
      <trkpt lat="50.01381" lon="1.34097">
        <ele>77.3</ele>
        <time>2020-06-18T14:30:52Z</time>
      </trkpt>
      <trkpt lat="50.01383" lon="1.34102">
        <ele>77.3</ele>
        <time>2020-06-18T14:30:53Z</time>
      </trkpt>
      <trkpt lat="50.01384" lon="1.34107">
        <ele>77.3</ele>
        <time>2020-06-18T14:30:54Z</time>
      </trkpt>
      <trkpt lat="50.01385" lon="1.34113">
        <ele>77.2</ele>
        <time>2020-06-18T14:30:55Z</time>
      </trkpt>
      <trkpt lat="50.01387" lon="1.34119">
        <ele>77.2</ele>
        <time>2020-06-18T14:30:56Z</time>
      </trkpt>
      <trkpt lat="50.01388" lon="1.34125">
        <ele>77.1</ele>
        <time>2020-06-18T14:30:57Z</time>
      </trkpt>
      <trkpt lat="50.0139" lon="1.34131">
        <ele>77.1</ele>
        <time>2020-06-18T14:30:58Z</time>
      </trkpt>
      <trkpt lat="50.01392" lon="1.34137">
        <ele>77</ele>
        <time>2020-06-18T14:30:59Z</time>
      </trkpt>
      <trkpt lat="50.01393" lon="1.34143">
        <ele>77</ele>
        <time>2020-06-18T14:31:00Z</time>
      </trkpt>
      <trkpt lat="50.01394" lon="1.34148">
        <ele>76.9</ele>
        <time>2020-06-18T14:31:01Z</time>
      </trkpt>
      <trkpt lat="50.01396" lon="1.34154">
        <ele>76.9</ele>
        <time>2020-06-18T14:31:02Z</time>
      </trkpt>
      <trkpt lat="50.01396" lon="1.34159">
        <ele>76.9</ele>
        <time>2020-06-18T14:31:03Z</time>
      </trkpt>
      <trkpt lat="50.01397" lon="1.34164">
        <ele>76.8</ele>
        <time>2020-06-18T14:31:04Z</time>
      </trkpt>
      <trkpt lat="50.01399" lon="1.34169">
        <ele>76.8</ele>
        <time>2020-06-18T14:31:05Z</time>
      </trkpt>
      <trkpt lat="50.01399" lon="1.34174">
        <ele>76.8</ele>
        <time>2020-06-18T14:31:06Z</time>
      </trkpt>
      <trkpt lat="50.014" lon="1.34179">
        <ele>76.8</ele>
        <time>2020-06-18T14:31:07Z</time>
      </trkpt>
      <trkpt lat="50.01402" lon="1.34185">
        <ele>76.8</ele>
        <time>2020-06-18T14:31:08Z</time>
      </trkpt>
      <trkpt lat="50.01403" lon="1.3419">
        <ele>76.7</ele>
        <time>2020-06-18T14:31:09Z</time>
      </trkpt>
      <trkpt lat="50.01405" lon="1.34196">
        <ele>76.7</ele>
        <time>2020-06-18T14:31:10Z</time>
      </trkpt>
      <trkpt lat="50.01406" lon="1.34202">
        <ele>76.7</ele>
        <time>2020-06-18T14:31:11Z</time>
      </trkpt>
      <trkpt lat="50.01408" lon="1.34208">
        <ele>76.7</ele>
        <time>2020-06-18T14:31:12Z</time>
      </trkpt>
      <trkpt lat="50.01409" lon="1.34214">
        <ele>76.7</ele>
        <time>2020-06-18T14:31:13Z</time>
      </trkpt>
      <trkpt lat="50.01411" lon="1.3422">
        <ele>76.7</ele>
        <time>2020-06-18T14:31:14Z</time>
      </trkpt>
      <trkpt lat="50.01412" lon="1.34226">
        <ele>76.7</ele>
        <time>2020-06-18T14:31:15Z</time>
      </trkpt>
      <trkpt lat="50.01413" lon="1.34231">
        <ele>76.7</ele>
        <time>2020-06-18T14:31:16Z</time>
      </trkpt>
      <trkpt lat="50.01415" lon="1.34235">
        <ele>76.7</ele>
        <time>2020-06-18T14:31:17Z</time>
      </trkpt>
      <trkpt lat="50.01416" lon="1.3424">
        <ele>76.7</ele>
        <time>2020-06-18T14:31:18Z</time>
      </trkpt>
      <trkpt lat="50.01417" lon="1.34245">
        <ele>76.7</ele>
        <time>2020-06-18T14:31:19Z</time>
      </trkpt>
      <trkpt lat="50.01418" lon="1.3425">
        <ele>76.7</ele>
        <time>2020-06-18T14:31:20Z</time>
      </trkpt>
      <trkpt lat="50.01419" lon="1.34257">
        <ele>76.7</ele>
        <time>2020-06-18T14:31:21Z</time>
      </trkpt>
      <trkpt lat="50.01421" lon="1.34262">
        <ele>76.7</ele>
        <time>2020-06-18T14:31:22Z</time>
      </trkpt>
      <trkpt lat="50.01423" lon="1.34267">
        <ele>76.8</ele>
        <time>2020-06-18T14:31:23Z</time>
      </trkpt>
      <trkpt lat="50.01424" lon="1.34271">
        <ele>76.8</ele>
        <time>2020-06-18T14:31:24Z</time>
      </trkpt>
      <trkpt lat="50.01425" lon="1.34276">
        <ele>76.8</ele>
        <time>2020-06-18T14:31:25Z</time>
      </trkpt>
      <trkpt lat="50.01426" lon="1.3428">
        <ele>76.8</ele>
        <time>2020-06-18T14:31:26Z</time>
      </trkpt>
      <trkpt lat="50.01427" lon="1.34284">
        <ele>76.8</ele>
        <time>2020-06-18T14:31:27Z</time>
      </trkpt>
      <trkpt lat="50.01428" lon="1.3429">
        <ele>76.8</ele>
        <time>2020-06-18T14:31:28Z</time>
      </trkpt>
      <trkpt lat="50.01429" lon="1.34295">
        <ele>76.8</ele>
        <time>2020-06-18T14:31:29Z</time>
      </trkpt>
      <trkpt lat="50.0143" lon="1.343">
        <ele>76.8</ele>
        <time>2020-06-18T14:31:30Z</time>
      </trkpt>
      <trkpt lat="50.0143" lon="1.34305">
        <ele>76.8</ele>
        <time>2020-06-18T14:31:31Z</time>
      </trkpt>
      <trkpt lat="50.01431" lon="1.34311">
        <ele>76.8</ele>
        <time>2020-06-18T14:31:32Z</time>
      </trkpt>
      <trkpt lat="50.01432" lon="1.34316">
        <ele>76.8</ele>
        <time>2020-06-18T14:31:33Z</time>
      </trkpt>
      <trkpt lat="50.01433" lon="1.34321">
        <ele>76.7</ele>
        <time>2020-06-18T14:31:34Z</time>
      </trkpt>
      <trkpt lat="50.01435" lon="1.34327">
        <ele>76.7</ele>
        <time>2020-06-18T14:31:35Z</time>
      </trkpt>
      <trkpt lat="50.01436" lon="1.34334">
        <ele>76.7</ele>
        <time>2020-06-18T14:31:36Z</time>
      </trkpt>
      <trkpt lat="50.01437" lon="1.3434">
        <ele>76.7</ele>
        <time>2020-06-18T14:31:37Z</time>
      </trkpt>
      <trkpt lat="50.01438" lon="1.34347">
        <ele>76.7</ele>
        <time>2020-06-18T14:31:38Z</time>
      </trkpt>
      <trkpt lat="50.01438" lon="1.34353">
        <ele>76.7</ele>
        <time>2020-06-18T14:31:39Z</time>
      </trkpt>
      <trkpt lat="50.01441" lon="1.3436">
        <ele>76.8</ele>
        <time>2020-06-18T14:31:40Z</time>
      </trkpt>
      <trkpt lat="50.01443" lon="1.34366">
        <ele>76.8</ele>
        <time>2020-06-18T14:31:41Z</time>
      </trkpt>
      <trkpt lat="50.01445" lon="1.34372">
        <ele>76.8</ele>
        <time>2020-06-18T14:31:42Z</time>
      </trkpt>
      <trkpt lat="50.01447" lon="1.34377">
        <ele>76.8</ele>
        <time>2020-06-18T14:31:43Z</time>
      </trkpt>
      <trkpt lat="50.01449" lon="1.34384">
        <ele>76.7</ele>
        <time>2020-06-18T14:31:44Z</time>
      </trkpt>
      <trkpt lat="50.01452" lon="1.3439">
        <ele>76.7</ele>
        <time>2020-06-18T14:31:45Z</time>
      </trkpt>
      <trkpt lat="50.01454" lon="1.34396">
        <ele>76.7</ele>
        <time>2020-06-18T14:31:46Z</time>
      </trkpt>
      <trkpt lat="50.01455" lon="1.34402">
        <ele>76.7</ele>
        <time>2020-06-18T14:31:47Z</time>
      </trkpt>
      <trkpt lat="50.01457" lon="1.34408">
        <ele>76.7</ele>
        <time>2020-06-18T14:31:48Z</time>
      </trkpt>
      <trkpt lat="50.01458" lon="1.34414">
        <ele>76.7</ele>
        <time>2020-06-18T14:31:49Z</time>
      </trkpt>
      <trkpt lat="50.0146" lon="1.3442">
        <ele>76.7</ele>
        <time>2020-06-18T14:31:50Z</time>
      </trkpt>
      <trkpt lat="50.01462" lon="1.34425">
        <ele>76.6</ele>
        <time>2020-06-18T14:31:51Z</time>
      </trkpt>
      <trkpt lat="50.01464" lon="1.34431">
        <ele>76.6</ele>
        <time>2020-06-18T14:31:52Z</time>
      </trkpt>
      <trkpt lat="50.01465" lon="1.34436">
        <ele>76.6</ele>
        <time>2020-06-18T14:31:53Z</time>
      </trkpt>
      <trkpt lat="50.01466" lon="1.34442">
        <ele>76.6</ele>
        <time>2020-06-18T14:31:54Z</time>
      </trkpt>
      <trkpt lat="50.01468" lon="1.34448">
        <ele>76.5</ele>
        <time>2020-06-18T14:31:55Z</time>
      </trkpt>
      <trkpt lat="50.0147" lon="1.34454">
        <ele>76.5</ele>
        <time>2020-06-18T14:31:56Z</time>
      </trkpt>
      <trkpt lat="50.01471" lon="1.3446">
        <ele>76.5</ele>
        <time>2020-06-18T14:31:57Z</time>
      </trkpt>
      <trkpt lat="50.01473" lon="1.34466">
        <ele>76.5</ele>
        <time>2020-06-18T14:31:58Z</time>
      </trkpt>
      <trkpt lat="50.01474" lon="1.34473">
        <ele>76.5</ele>
        <time>2020-06-18T14:31:59Z</time>
      </trkpt>
      <trkpt lat="50.01475" lon="1.34479">
        <ele>76.5</ele>
        <time>2020-06-18T14:32:00Z</time>
      </trkpt>
      <trkpt lat="50.0148" lon="1.34486">
        <ele>76.5</ele>
        <time>2020-06-18T14:32:01Z</time>
      </trkpt>
      <trkpt lat="50.01483" lon="1.34492">
        <ele>76.5</ele>
        <time>2020-06-18T14:32:02Z</time>
      </trkpt>
      <trkpt lat="50.01484" lon="1.345">
        <ele>76.5</ele>
        <time>2020-06-18T14:32:03Z</time>
      </trkpt>
      <trkpt lat="50.01485" lon="1.34508">
        <ele>76.4</ele>
        <time>2020-06-18T14:32:04Z</time>
      </trkpt>
      <trkpt lat="50.01487" lon="1.34514">
        <ele>76.4</ele>
        <time>2020-06-18T14:32:05Z</time>
      </trkpt>
      <trkpt lat="50.01488" lon="1.3452">
        <ele>76.4</ele>
        <time>2020-06-18T14:32:06Z</time>
      </trkpt>
      <trkpt lat="50.01491" lon="1.34526">
        <ele>76.4</ele>
        <time>2020-06-18T14:32:07Z</time>
      </trkpt>
      <trkpt lat="50.01493" lon="1.34533">
        <ele>76.3</ele>
        <time>2020-06-18T14:32:08Z</time>
      </trkpt>
      <trkpt lat="50.01494" lon="1.34538">
        <ele>76.3</ele>
        <time>2020-06-18T14:32:09Z</time>
      </trkpt>
      <trkpt lat="50.01495" lon="1.34545">
        <ele>76.3</ele>
        <time>2020-06-18T14:32:10Z</time>
      </trkpt>
      <trkpt lat="50.01496" lon="1.34553">
        <ele>76.2</ele>
        <time>2020-06-18T14:32:11Z</time>
      </trkpt>
      <trkpt lat="50.01496" lon="1.3456">
        <ele>76.2</ele>
        <time>2020-06-18T14:32:12Z</time>
      </trkpt>
      <trkpt lat="50.01496" lon="1.34567">
        <ele>76.2</ele>
        <time>2020-06-18T14:32:13Z</time>
      </trkpt>
      <trkpt lat="50.01497" lon="1.34573">
        <ele>76.1</ele>
        <time>2020-06-18T14:32:14Z</time>
      </trkpt>
      <trkpt lat="50.01499" lon="1.34579">
        <ele>76.1</ele>
        <time>2020-06-18T14:32:15Z</time>
      </trkpt>
      <trkpt lat="50.01501" lon="1.34584">
        <ele>76.1</ele>
        <time>2020-06-18T14:32:16Z</time>
      </trkpt>
      <trkpt lat="50.01502" lon="1.34589">
        <ele>76.1</ele>
        <time>2020-06-18T14:32:17Z</time>
      </trkpt>
      <trkpt lat="50.01502" lon="1.34592">
        <ele>76.1</ele>
        <time>2020-06-18T14:32:18Z</time>
      </trkpt>
      <trkpt lat="50.01502" lon="1.34593">
        <ele>76.1</ele>
        <time>2020-06-18T14:32:19Z</time>
      </trkpt>
      <trkpt lat="50.01502" lon="1.34592">
        <ele>76.1</ele>
        <time>2020-06-18T14:32:20Z</time>
      </trkpt>
      <trkpt lat="50.01502" lon="1.34592">
        <ele>76.1</ele>
        <time>2020-06-18T14:32:21Z</time>
      </trkpt>
      <trkpt lat="50.01503" lon="1.34593">
        <ele>76.1</ele>
        <time>2020-06-18T14:32:22Z</time>
      </trkpt>
      <trkpt lat="50.01503" lon="1.34593">
        <ele>76.1</ele>
        <time>2020-06-18T14:32:23Z</time>
      </trkpt>
      <trkpt lat="50.01503" lon="1.34593">
        <ele>76.1</ele>
        <time>2020-06-18T14:32:24Z</time>
      </trkpt>
      <trkpt lat="50.01503" lon="1.34593">
        <ele>76.1</ele>
        <time>2020-06-18T14:32:25Z</time>
      </trkpt>
      <trkpt lat="50.01503" lon="1.34593">
        <ele>76.1</ele>
        <time>2020-06-18T14:32:26Z</time>
      </trkpt>
      <trkpt lat="50.01502" lon="1.34592">
        <ele>76.1</ele>
        <time>2020-06-18T14:32:27Z</time>
      </trkpt>
      <trkpt lat="50.01502" lon="1.34589">
        <ele>76.1</ele>
        <time>2020-06-18T14:32:28Z</time>
      </trkpt>
      <trkpt lat="50.01502" lon="1.34586">
        <ele>76.1</ele>
        <time>2020-06-18T14:32:29Z</time>
      </trkpt>
      <trkpt lat="50.01501" lon="1.34583">
        <ele>76.1</ele>
        <time>2020-06-18T14:32:30Z</time>
      </trkpt>
      <trkpt lat="50.01501" lon="1.34582">
        <ele>76.1</ele>
        <time>2020-06-18T14:32:31Z</time>
      </trkpt>
      <trkpt lat="50.015" lon="1.34582">
        <ele>76.1</ele>
        <time>2020-06-18T14:32:32Z</time>
      </trkpt>
      <trkpt lat="50.01499" lon="1.34579">
        <ele>76.1</ele>
        <time>2020-06-18T14:32:33Z</time>
      </trkpt>
      <trkpt lat="50.01497" lon="1.34579">
        <ele>76.1</ele>
        <time>2020-06-18T14:32:34Z</time>
      </trkpt>
      <trkpt lat="50.01497" lon="1.3458">
        <ele>76.1</ele>
        <time>2020-06-18T14:32:35Z</time>
      </trkpt>
      <trkpt lat="50.01497" lon="1.34581">
        <ele>76.1</ele>
        <time>2020-06-18T14:32:36Z</time>
      </trkpt>
      <trkpt lat="50.01497" lon="1.34581">
        <ele>76.1</ele>
        <time>2020-06-18T14:32:37Z</time>
      </trkpt>
      <trkpt lat="50.01497" lon="1.34582">
        <ele>76.1</ele>
        <time>2020-06-18T14:32:38Z</time>
      </trkpt>
      <trkpt lat="50.01497" lon="1.34583">
        <ele>76.1</ele>
        <time>2020-06-18T14:32:39Z</time>
      </trkpt>
      <trkpt lat="50.01497" lon="1.34584">
        <ele>76.1</ele>
        <time>2020-06-18T14:32:40Z</time>
      </trkpt>
      <trkpt lat="50.01497" lon="1.34584">
        <ele>76.1</ele>
        <time>2020-06-18T14:33:08Z</time>
      </trkpt>
      <trkpt lat="50.01497" lon="1.34585">
        <ele>76.1</ele>
        <time>2020-06-18T14:33:09Z</time>
      </trkpt>
      <trkpt lat="50.01497" lon="1.34586">
        <ele>76.1</ele>
        <time>2020-06-18T14:33:10Z</time>
      </trkpt>
      <trkpt lat="50.01496" lon="1.34587">
        <ele>76.1</ele>
        <time>2020-06-18T14:33:11Z</time>
      </trkpt>
      <trkpt lat="50.01496" lon="1.34588">
        <ele>76.1</ele>
        <time>2020-06-18T14:33:12Z</time>
      </trkpt>
      <trkpt lat="50.01496" lon="1.34588">
        <ele>76.1</ele>
        <time>2020-06-18T14:33:13Z</time>
      </trkpt>
      <trkpt lat="50.01495" lon="1.34588">
        <ele>76.1</ele>
        <time>2020-06-18T14:33:14Z</time>
      </trkpt>
      <trkpt lat="50.01496" lon="1.34591">
        <ele>76.1</ele>
        <time>2020-06-18T14:33:15Z</time>
      </trkpt>
      <trkpt lat="50.01496" lon="1.34593">
        <ele>76.1</ele>
        <time>2020-06-18T14:33:16Z</time>
      </trkpt>
      <trkpt lat="50.01496" lon="1.34595">
        <ele>76.1</ele>
        <time>2020-06-18T14:33:17Z</time>
      </trkpt>
      <trkpt lat="50.01498" lon="1.346">
        <ele>76.1</ele>
        <time>2020-06-18T14:33:18Z</time>
      </trkpt>
      <trkpt lat="50.01498" lon="1.34602">
        <ele>76</ele>
        <time>2020-06-18T14:33:19Z</time>
      </trkpt>
      <trkpt lat="50.01501" lon="1.34606">
        <ele>76</ele>
        <time>2020-06-18T14:33:20Z</time>
      </trkpt>
      <trkpt lat="50.01502" lon="1.34607">
        <ele>76</ele>
        <time>2020-06-18T14:33:21Z</time>
      </trkpt>
      <trkpt lat="50.01503" lon="1.34611">
        <ele>76</ele>
        <time>2020-06-18T14:33:22Z</time>
      </trkpt>
      <trkpt lat="50.01505" lon="1.34615">
        <ele>76</ele>
        <time>2020-06-18T14:33:23Z</time>
      </trkpt>
      <trkpt lat="50.01507" lon="1.3462">
        <ele>76.1</ele>
        <time>2020-06-18T14:33:24Z</time>
      </trkpt>
      <trkpt lat="50.0151" lon="1.34625">
        <ele>76.1</ele>
        <time>2020-06-18T14:33:25Z</time>
      </trkpt>
      <trkpt lat="50.01512" lon="1.34629">
        <ele>76.1</ele>
        <time>2020-06-18T14:33:26Z</time>
      </trkpt>
      <trkpt lat="50.01514" lon="1.34633">
        <ele>76.1</ele>
        <time>2020-06-18T14:33:27Z</time>
      </trkpt>
      <trkpt lat="50.01517" lon="1.34638">
        <ele>76.1</ele>
        <time>2020-06-18T14:33:28Z</time>
      </trkpt>
      <trkpt lat="50.01519" lon="1.34644">
        <ele>76.1</ele>
        <time>2020-06-18T14:33:29Z</time>
      </trkpt>
      <trkpt lat="50.01522" lon="1.3465">
        <ele>76.1</ele>
        <time>2020-06-18T14:33:30Z</time>
      </trkpt>
      <trkpt lat="50.01524" lon="1.34657">
        <ele>76.1</ele>
        <time>2020-06-18T14:33:31Z</time>
      </trkpt>
      <trkpt lat="50.01527" lon="1.34662">
        <ele>76</ele>
        <time>2020-06-18T14:33:32Z</time>
      </trkpt>
      <trkpt lat="50.01529" lon="1.34669">
        <ele>76</ele>
        <time>2020-06-18T14:33:33Z</time>
      </trkpt>
      <trkpt lat="50.01532" lon="1.34675">
        <ele>76</ele>
        <time>2020-06-18T14:33:34Z</time>
      </trkpt>
      <trkpt lat="50.01535" lon="1.34683">
        <ele>76</ele>
        <time>2020-06-18T14:33:35Z</time>
      </trkpt>
      <trkpt lat="50.01537" lon="1.3469">
        <ele>76</ele>
        <time>2020-06-18T14:33:36Z</time>
      </trkpt>
      <trkpt lat="50.01538" lon="1.34697">
        <ele>76</ele>
        <time>2020-06-18T14:33:37Z</time>
      </trkpt>
      <trkpt lat="50.0154" lon="1.34705">
        <ele>75.9</ele>
        <time>2020-06-18T14:33:38Z</time>
      </trkpt>
      <trkpt lat="50.01543" lon="1.34713">
        <ele>75.9</ele>
        <time>2020-06-18T14:33:39Z</time>
      </trkpt>
      <trkpt lat="50.01545" lon="1.34721">
        <ele>75.9</ele>
        <time>2020-06-18T14:33:40Z</time>
      </trkpt>
      <trkpt lat="50.01546" lon="1.3473">
        <ele>75.9</ele>
        <time>2020-06-18T14:33:41Z</time>
      </trkpt>
      <trkpt lat="50.01547" lon="1.34738">
        <ele>75.8</ele>
        <time>2020-06-18T14:33:42Z</time>
      </trkpt>
      <trkpt lat="50.01549" lon="1.34749">
        <ele>75.8</ele>
        <time>2020-06-18T14:33:43Z</time>
      </trkpt>
      <trkpt lat="50.01551" lon="1.34757">
        <ele>75.8</ele>
        <time>2020-06-18T14:33:44Z</time>
      </trkpt>
      <trkpt lat="50.01552" lon="1.34765">
        <ele>75.8</ele>
        <time>2020-06-18T14:33:45Z</time>
      </trkpt>
      <trkpt lat="50.01552" lon="1.34773">
        <ele>75.7</ele>
        <time>2020-06-18T14:33:46Z</time>
      </trkpt>
      <trkpt lat="50.01553" lon="1.34783">
        <ele>75.7</ele>
        <time>2020-06-18T14:33:47Z</time>
      </trkpt>
      <trkpt lat="50.01554" lon="1.34792">
        <ele>75.7</ele>
        <time>2020-06-18T14:33:48Z</time>
      </trkpt>
      <trkpt lat="50.01555" lon="1.34802">
        <ele>75.7</ele>
        <time>2020-06-18T14:33:49Z</time>
      </trkpt>
      <trkpt lat="50.01557" lon="1.34812">
        <ele>75.7</ele>
        <time>2020-06-18T14:33:50Z</time>
      </trkpt>
      <trkpt lat="50.0156" lon="1.34822">
        <ele>75.7</ele>
        <time>2020-06-18T14:33:51Z</time>
      </trkpt>
      <trkpt lat="50.01562" lon="1.34831">
        <ele>75.7</ele>
        <time>2020-06-18T14:33:52Z</time>
      </trkpt>
      <trkpt lat="50.01564" lon="1.34841">
        <ele>75.6</ele>
        <time>2020-06-18T14:33:53Z</time>
      </trkpt>
      <trkpt lat="50.01567" lon="1.34853">
        <ele>75.5</ele>
        <time>2020-06-18T14:33:54Z</time>
      </trkpt>
      <trkpt lat="50.0157" lon="1.34863">
        <ele>75.5</ele>
        <time>2020-06-18T14:33:55Z</time>
      </trkpt>
      <trkpt lat="50.01573" lon="1.34874">
        <ele>75.4</ele>
        <time>2020-06-18T14:33:56Z</time>
      </trkpt>
      <trkpt lat="50.01575" lon="1.34884">
        <ele>75.4</ele>
        <time>2020-06-18T14:33:57Z</time>
      </trkpt>
      <trkpt lat="50.01578" lon="1.34895">
        <ele>75.4</ele>
        <time>2020-06-18T14:33:58Z</time>
      </trkpt>
      <trkpt lat="50.0158" lon="1.34906">
        <ele>75.4</ele>
        <time>2020-06-18T14:33:59Z</time>
      </trkpt>
      <trkpt lat="50.01583" lon="1.34917">
        <ele>75.4</ele>
        <time>2020-06-18T14:34:00Z</time>
      </trkpt>
      <trkpt lat="50.01586" lon="1.34928">
        <ele>75.4</ele>
        <time>2020-06-18T14:34:01Z</time>
      </trkpt>
      <trkpt lat="50.01589" lon="1.34939">
        <ele>75.4</ele>
        <time>2020-06-18T14:34:02Z</time>
      </trkpt>
      <trkpt lat="50.01591" lon="1.3495">
        <ele>75.4</ele>
        <time>2020-06-18T14:34:03Z</time>
      </trkpt>
      <trkpt lat="50.01593" lon="1.34961">
        <ele>75.3</ele>
        <time>2020-06-18T14:34:04Z</time>
      </trkpt>
      <trkpt lat="50.01595" lon="1.34972">
        <ele>75.3</ele>
        <time>2020-06-18T14:34:05Z</time>
      </trkpt>
      <trkpt lat="50.01597" lon="1.34984">
        <ele>75.2</ele>
        <time>2020-06-18T14:34:06Z</time>
      </trkpt>
      <trkpt lat="50.01599" lon="1.34996">
        <ele>75.2</ele>
        <time>2020-06-18T14:34:07Z</time>
      </trkpt>
      <trkpt lat="50.01602" lon="1.35007">
        <ele>75.3</ele>
        <time>2020-06-18T14:34:08Z</time>
      </trkpt>
      <trkpt lat="50.01605" lon="1.35019">
        <ele>75.4</ele>
        <time>2020-06-18T14:34:09Z</time>
      </trkpt>
      <trkpt lat="50.01608" lon="1.3503">
        <ele>75.4</ele>
        <time>2020-06-18T14:34:10Z</time>
      </trkpt>
      <trkpt lat="50.01611" lon="1.35042">
        <ele>75.4</ele>
        <time>2020-06-18T14:34:11Z</time>
      </trkpt>
      <trkpt lat="50.01615" lon="1.35054">
        <ele>75.4</ele>
        <time>2020-06-18T14:34:12Z</time>
      </trkpt>
      <trkpt lat="50.01618" lon="1.35065">
        <ele>75.3</ele>
        <time>2020-06-18T14:34:13Z</time>
      </trkpt>
      <trkpt lat="50.01622" lon="1.35077">
        <ele>75.3</ele>
        <time>2020-06-18T14:34:14Z</time>
      </trkpt>
      <trkpt lat="50.01626" lon="1.35089">
        <ele>75.3</ele>
        <time>2020-06-18T14:34:15Z</time>
      </trkpt>
      <trkpt lat="50.01629" lon="1.351">
        <ele>75.3</ele>
        <time>2020-06-18T14:34:16Z</time>
      </trkpt>
      <trkpt lat="50.01632" lon="1.35112">
        <ele>75.3</ele>
        <time>2020-06-18T14:34:17Z</time>
      </trkpt>
      <trkpt lat="50.01635" lon="1.35125">
        <ele>75.2</ele>
        <time>2020-06-18T14:34:18Z</time>
      </trkpt>
      <trkpt lat="50.01638" lon="1.35136">
        <ele>75.2</ele>
        <time>2020-06-18T14:34:19Z</time>
      </trkpt>
      <trkpt lat="50.01641" lon="1.35147">
        <ele>75.1</ele>
        <time>2020-06-18T14:34:20Z</time>
      </trkpt>
      <trkpt lat="50.01644" lon="1.35159">
        <ele>75</ele>
        <time>2020-06-18T14:34:21Z</time>
      </trkpt>
      <trkpt lat="50.01647" lon="1.3517">
        <ele>75</ele>
        <time>2020-06-18T14:34:22Z</time>
      </trkpt>
      <trkpt lat="50.0165" lon="1.35182">
        <ele>74.9</ele>
        <time>2020-06-18T14:34:23Z</time>
      </trkpt>
      <trkpt lat="50.01653" lon="1.35193">
        <ele>74.8</ele>
        <time>2020-06-18T14:34:24Z</time>
      </trkpt>
      <trkpt lat="50.01655" lon="1.35204">
        <ele>74.7</ele>
        <time>2020-06-18T14:34:25Z</time>
      </trkpt>
      <trkpt lat="50.01658" lon="1.35215">
        <ele>74.7</ele>
        <time>2020-06-18T14:34:26Z</time>
      </trkpt>
      <trkpt lat="50.01661" lon="1.35226">
        <ele>74.6</ele>
        <time>2020-06-18T14:34:27Z</time>
      </trkpt>
      <trkpt lat="50.01663" lon="1.35236">
        <ele>74.6</ele>
        <time>2020-06-18T14:34:28Z</time>
      </trkpt>
      <trkpt lat="50.01666" lon="1.35246">
        <ele>74.5</ele>
        <time>2020-06-18T14:34:29Z</time>
      </trkpt>
      <trkpt lat="50.01669" lon="1.35257">
        <ele>74.5</ele>
        <time>2020-06-18T14:34:30Z</time>
      </trkpt>
      <trkpt lat="50.01672" lon="1.35267">
        <ele>74.4</ele>
        <time>2020-06-18T14:34:31Z</time>
      </trkpt>
      <trkpt lat="50.01674" lon="1.35278">
        <ele>74.5</ele>
        <time>2020-06-18T14:34:32Z</time>
      </trkpt>
      <trkpt lat="50.01676" lon="1.35289">
        <ele>74.5</ele>
        <time>2020-06-18T14:34:33Z</time>
      </trkpt>
      <trkpt lat="50.01679" lon="1.35299">
        <ele>74.6</ele>
        <time>2020-06-18T14:34:34Z</time>
      </trkpt>
      <trkpt lat="50.01682" lon="1.35309">
        <ele>74.6</ele>
        <time>2020-06-18T14:34:35Z</time>
      </trkpt>
      <trkpt lat="50.01684" lon="1.35319">
        <ele>74.6</ele>
        <time>2020-06-18T14:34:36Z</time>
      </trkpt>
      <trkpt lat="50.01687" lon="1.35329">
        <ele>74.5</ele>
        <time>2020-06-18T14:34:37Z</time>
      </trkpt>
      <trkpt lat="50.01689" lon="1.35339">
        <ele>74.3</ele>
        <time>2020-06-18T14:34:38Z</time>
      </trkpt>
      <trkpt lat="50.01691" lon="1.35348">
        <ele>74.2</ele>
        <time>2020-06-18T14:34:39Z</time>
      </trkpt>
      <trkpt lat="50.01693" lon="1.35358">
        <ele>74.1</ele>
        <time>2020-06-18T14:34:40Z</time>
      </trkpt>
      <trkpt lat="50.01696" lon="1.35368">
        <ele>74</ele>
        <time>2020-06-18T14:34:41Z</time>
      </trkpt>
      <trkpt lat="50.01698" lon="1.35378">
        <ele>74</ele>
        <time>2020-06-18T14:34:42Z</time>
      </trkpt>
      <trkpt lat="50.017" lon="1.35388">
        <ele>74</ele>
        <time>2020-06-18T14:34:43Z</time>
      </trkpt>
      <trkpt lat="50.01703" lon="1.35398">
        <ele>74.1</ele>
        <time>2020-06-18T14:34:44Z</time>
      </trkpt>
      <trkpt lat="50.01705" lon="1.35408">
        <ele>74.1</ele>
        <time>2020-06-18T14:34:45Z</time>
      </trkpt>
      <trkpt lat="50.01707" lon="1.35418">
        <ele>74.1</ele>
        <time>2020-06-18T14:34:46Z</time>
      </trkpt>
      <trkpt lat="50.0171" lon="1.35428">
        <ele>74.1</ele>
        <time>2020-06-18T14:34:47Z</time>
      </trkpt>
      <trkpt lat="50.01713" lon="1.35438">
        <ele>74</ele>
        <time>2020-06-18T14:34:48Z</time>
      </trkpt>
      <trkpt lat="50.01716" lon="1.35449">
        <ele>73.9</ele>
        <time>2020-06-18T14:34:49Z</time>
      </trkpt>
      <trkpt lat="50.01719" lon="1.35459">
        <ele>73.8</ele>
        <time>2020-06-18T14:34:50Z</time>
      </trkpt>
      <trkpt lat="50.01721" lon="1.35469">
        <ele>73.7</ele>
        <time>2020-06-18T14:34:51Z</time>
      </trkpt>
      <trkpt lat="50.01723" lon="1.3548">
        <ele>73.6</ele>
        <time>2020-06-18T14:34:52Z</time>
      </trkpt>
      <trkpt lat="50.01725" lon="1.3549">
        <ele>73.6</ele>
        <time>2020-06-18T14:34:53Z</time>
      </trkpt>
      <trkpt lat="50.01728" lon="1.355">
        <ele>73.6</ele>
        <time>2020-06-18T14:34:54Z</time>
      </trkpt>
      <trkpt lat="50.0173" lon="1.3551">
        <ele>73.5</ele>
        <time>2020-06-18T14:34:55Z</time>
      </trkpt>
      <trkpt lat="50.01733" lon="1.35519">
        <ele>73.5</ele>
        <time>2020-06-18T14:34:56Z</time>
      </trkpt>
      <trkpt lat="50.01735" lon="1.35529">
        <ele>73.4</ele>
        <time>2020-06-18T14:34:57Z</time>
      </trkpt>
      <trkpt lat="50.01737" lon="1.35537">
        <ele>73.4</ele>
        <time>2020-06-18T14:34:58Z</time>
      </trkpt>
      <trkpt lat="50.0174" lon="1.35546">
        <ele>73.4</ele>
        <time>2020-06-18T14:34:59Z</time>
      </trkpt>
      <trkpt lat="50.01742" lon="1.35555">
        <ele>73.5</ele>
        <time>2020-06-18T14:35:00Z</time>
      </trkpt>
      <trkpt lat="50.01744" lon="1.35564">
        <ele>73.5</ele>
        <time>2020-06-18T14:35:01Z</time>
      </trkpt>
      <trkpt lat="50.01746" lon="1.35573">
        <ele>73.5</ele>
        <time>2020-06-18T14:35:02Z</time>
      </trkpt>
      <trkpt lat="50.01749" lon="1.35582">
        <ele>73.6</ele>
        <time>2020-06-18T14:35:03Z</time>
      </trkpt>
      <trkpt lat="50.01751" lon="1.35591">
        <ele>73.6</ele>
        <time>2020-06-18T14:35:04Z</time>
      </trkpt>
      <trkpt lat="50.01753" lon="1.356">
        <ele>73.6</ele>
        <time>2020-06-18T14:35:05Z</time>
      </trkpt>
      <trkpt lat="50.01755" lon="1.35609">
        <ele>73.5</ele>
        <time>2020-06-18T14:35:06Z</time>
      </trkpt>
      <trkpt lat="50.01757" lon="1.35618">
        <ele>73.5</ele>
        <time>2020-06-18T14:35:07Z</time>
      </trkpt>
      <trkpt lat="50.01759" lon="1.35627">
        <ele>73.5</ele>
        <time>2020-06-18T14:35:08Z</time>
      </trkpt>
      <trkpt lat="50.01761" lon="1.35635">
        <ele>73.5</ele>
        <time>2020-06-18T14:35:09Z</time>
      </trkpt>
      <trkpt lat="50.01763" lon="1.35644">
        <ele>73.4</ele>
        <time>2020-06-18T14:35:10Z</time>
      </trkpt>
      <trkpt lat="50.01765" lon="1.35654">
        <ele>73.4</ele>
        <time>2020-06-18T14:35:11Z</time>
      </trkpt>
      <trkpt lat="50.01767" lon="1.35664">
        <ele>73.4</ele>
        <time>2020-06-18T14:35:12Z</time>
      </trkpt>
      <trkpt lat="50.0177" lon="1.35673">
        <ele>73.3</ele>
        <time>2020-06-18T14:35:13Z</time>
      </trkpt>
      <trkpt lat="50.01773" lon="1.35682">
        <ele>73.3</ele>
        <time>2020-06-18T14:35:14Z</time>
      </trkpt>
      <trkpt lat="50.01776" lon="1.35692">
        <ele>73.2</ele>
        <time>2020-06-18T14:35:15Z</time>
      </trkpt>
      <trkpt lat="50.01778" lon="1.35702">
        <ele>73.1</ele>
        <time>2020-06-18T14:35:16Z</time>
      </trkpt>
      <trkpt lat="50.0178" lon="1.35713">
        <ele>73</ele>
        <time>2020-06-18T14:35:17Z</time>
      </trkpt>
      <trkpt lat="50.01782" lon="1.35723">
        <ele>72.9</ele>
        <time>2020-06-18T14:35:18Z</time>
      </trkpt>
      <trkpt lat="50.01784" lon="1.35733">
        <ele>72.9</ele>
        <time>2020-06-18T14:35:19Z</time>
      </trkpt>
      <trkpt lat="50.01786" lon="1.35743">
        <ele>72.9</ele>
        <time>2020-06-18T14:35:20Z</time>
      </trkpt>
      <trkpt lat="50.01789" lon="1.35752">
        <ele>72.9</ele>
        <time>2020-06-18T14:35:21Z</time>
      </trkpt>
      <trkpt lat="50.01791" lon="1.3576">
        <ele>73</ele>
        <time>2020-06-18T14:35:22Z</time>
      </trkpt>
      <trkpt lat="50.01794" lon="1.35768">
        <ele>73</ele>
        <time>2020-06-18T14:35:23Z</time>
      </trkpt>
      <trkpt lat="50.01795" lon="1.35774">
        <ele>73</ele>
        <time>2020-06-18T14:35:24Z</time>
      </trkpt>
      <trkpt lat="50.01797" lon="1.35784">
        <ele>73.1</ele>
        <time>2020-06-18T14:35:25Z</time>
      </trkpt>
      <trkpt lat="50.01799" lon="1.3579">
        <ele>73.1</ele>
        <time>2020-06-18T14:35:26Z</time>
      </trkpt>
      <trkpt lat="50.01801" lon="1.35797">
        <ele>73.1</ele>
        <time>2020-06-18T14:35:27Z</time>
      </trkpt>
      <trkpt lat="50.01802" lon="1.35804">
        <ele>73.2</ele>
        <time>2020-06-18T14:35:28Z</time>
      </trkpt>
      <trkpt lat="50.01804" lon="1.3581">
        <ele>73.2</ele>
        <time>2020-06-18T14:35:29Z</time>
      </trkpt>
      <trkpt lat="50.01806" lon="1.35817">
        <ele>73.2</ele>
        <time>2020-06-18T14:35:30Z</time>
      </trkpt>
      <trkpt lat="50.01807" lon="1.35824">
        <ele>73.3</ele>
        <time>2020-06-18T14:35:31Z</time>
      </trkpt>
      <trkpt lat="50.01809" lon="1.35831">
        <ele>73.3</ele>
        <time>2020-06-18T14:35:32Z</time>
      </trkpt>
      <trkpt lat="50.01811" lon="1.35838">
        <ele>73.4</ele>
        <time>2020-06-18T14:35:33Z</time>
      </trkpt>
      <trkpt lat="50.01813" lon="1.35845">
        <ele>73.4</ele>
        <time>2020-06-18T14:35:34Z</time>
      </trkpt>
      <trkpt lat="50.01816" lon="1.35853">
        <ele>73.5</ele>
        <time>2020-06-18T14:35:35Z</time>
      </trkpt>
      <trkpt lat="50.01817" lon="1.35859">
        <ele>73.6</ele>
        <time>2020-06-18T14:35:36Z</time>
      </trkpt>
      <trkpt lat="50.01819" lon="1.35866">
        <ele>73.7</ele>
        <time>2020-06-18T14:35:37Z</time>
      </trkpt>
      <trkpt lat="50.0182" lon="1.35874">
        <ele>73.8</ele>
        <time>2020-06-18T14:35:38Z</time>
      </trkpt>
      <trkpt lat="50.01822" lon="1.35882">
        <ele>74</ele>
        <time>2020-06-18T14:35:39Z</time>
      </trkpt>
      <trkpt lat="50.01824" lon="1.3589">
        <ele>74.1</ele>
        <time>2020-06-18T14:35:40Z</time>
      </trkpt>
      <trkpt lat="50.01825" lon="1.35896">
        <ele>74.1</ele>
        <time>2020-06-18T14:35:41Z</time>
      </trkpt>
      <trkpt lat="50.01827" lon="1.35903">
        <ele>74.1</ele>
        <time>2020-06-18T14:35:42Z</time>
      </trkpt>
      <trkpt lat="50.01829" lon="1.35908">
        <ele>74.1</ele>
        <time>2020-06-18T14:35:43Z</time>
      </trkpt>
      <trkpt lat="50.01831" lon="1.35912">
        <ele>74.1</ele>
        <time>2020-06-18T14:35:44Z</time>
      </trkpt>
      <trkpt lat="50.01833" lon="1.35916">
        <ele>74.1</ele>
        <time>2020-06-18T14:35:45Z</time>
      </trkpt>
      <trkpt lat="50.01834" lon="1.3592">
        <ele>74</ele>
        <time>2020-06-18T14:35:46Z</time>
      </trkpt>
      <trkpt lat="50.01836" lon="1.35924">
        <ele>74</ele>
        <time>2020-06-18T14:35:47Z</time>
      </trkpt>
      <trkpt lat="50.01838" lon="1.35926">
        <ele>74</ele>
        <time>2020-06-18T14:35:48Z</time>
      </trkpt>
      <trkpt lat="50.01842" lon="1.3593">
        <ele>74</ele>
        <time>2020-06-18T14:35:49Z</time>
      </trkpt>
      <trkpt lat="50.01845" lon="1.35934">
        <ele>73.9</ele>
        <time>2020-06-18T14:35:50Z</time>
      </trkpt>
      <trkpt lat="50.01848" lon="1.35939">
        <ele>73.9</ele>
        <time>2020-06-18T14:35:51Z</time>
      </trkpt>
      <trkpt lat="50.0185" lon="1.35945">
        <ele>73.8</ele>
        <time>2020-06-18T14:35:52Z</time>
      </trkpt>
      <trkpt lat="50.01851" lon="1.35952">
        <ele>73.9</ele>
        <time>2020-06-18T14:35:53Z</time>
      </trkpt>
      <trkpt lat="50.01851" lon="1.35959">
        <ele>73.9</ele>
        <time>2020-06-18T14:35:54Z</time>
      </trkpt>
      <trkpt lat="50.01851" lon="1.35967">
        <ele>74</ele>
        <time>2020-06-18T14:35:55Z</time>
      </trkpt>
      <trkpt lat="50.01851" lon="1.35976">
        <ele>74.1</ele>
        <time>2020-06-18T14:35:56Z</time>
      </trkpt>
      <trkpt lat="50.01851" lon="1.35984">
        <ele>74.2</ele>
        <time>2020-06-18T14:35:57Z</time>
      </trkpt>
      <trkpt lat="50.01852" lon="1.35992">
        <ele>74.3</ele>
        <time>2020-06-18T14:35:58Z</time>
      </trkpt>
      <trkpt lat="50.01853" lon="1.36">
        <ele>74.4</ele>
        <time>2020-06-18T14:35:59Z</time>
      </trkpt>
      <trkpt lat="50.01853" lon="1.36009">
        <ele>74.5</ele>
        <time>2020-06-18T14:36:00Z</time>
      </trkpt>
      <trkpt lat="50.01854" lon="1.36018">
        <ele>74.6</ele>
        <time>2020-06-18T14:36:01Z</time>
      </trkpt>
      <trkpt lat="50.01855" lon="1.36028">
        <ele>74.6</ele>
        <time>2020-06-18T14:36:02Z</time>
      </trkpt>
      <trkpt lat="50.01856" lon="1.36038">
        <ele>74.7</ele>
        <time>2020-06-18T14:36:03Z</time>
      </trkpt>
      <trkpt lat="50.01858" lon="1.36048">
        <ele>74.8</ele>
        <time>2020-06-18T14:36:04Z</time>
      </trkpt>
      <trkpt lat="50.01861" lon="1.36059">
        <ele>74.9</ele>
        <time>2020-06-18T14:36:05Z</time>
      </trkpt>
      <trkpt lat="50.01863" lon="1.3607">
        <ele>75</ele>
        <time>2020-06-18T14:36:06Z</time>
      </trkpt>
      <trkpt lat="50.01866" lon="1.3608">
        <ele>75.1</ele>
        <time>2020-06-18T14:36:07Z</time>
      </trkpt>
      <trkpt lat="50.01868" lon="1.3609">
        <ele>75.2</ele>
        <time>2020-06-18T14:36:08Z</time>
      </trkpt>
      <trkpt lat="50.0187" lon="1.36101">
        <ele>75.3</ele>
        <time>2020-06-18T14:36:09Z</time>
      </trkpt>
      <trkpt lat="50.01873" lon="1.3611">
        <ele>75.3</ele>
        <time>2020-06-18T14:36:10Z</time>
      </trkpt>
      <trkpt lat="50.01875" lon="1.36119">
        <ele>75.4</ele>
        <time>2020-06-18T14:36:11Z</time>
      </trkpt>
      <trkpt lat="50.01877" lon="1.36129">
        <ele>75.5</ele>
        <time>2020-06-18T14:36:12Z</time>
      </trkpt>
      <trkpt lat="50.01879" lon="1.36137">
        <ele>75.6</ele>
        <time>2020-06-18T14:36:13Z</time>
      </trkpt>
      <trkpt lat="50.01882" lon="1.36148">
        <ele>75.7</ele>
        <time>2020-06-18T14:36:14Z</time>
      </trkpt>
      <trkpt lat="50.01884" lon="1.36159">
        <ele>75.8</ele>
        <time>2020-06-18T14:36:15Z</time>
      </trkpt>
      <trkpt lat="50.01887" lon="1.3617">
        <ele>75.7</ele>
        <time>2020-06-18T14:36:16Z</time>
      </trkpt>
      <trkpt lat="50.01889" lon="1.36181">
        <ele>75.7</ele>
        <time>2020-06-18T14:36:17Z</time>
      </trkpt>
      <trkpt lat="50.01891" lon="1.36191">
        <ele>75.6</ele>
        <time>2020-06-18T14:36:18Z</time>
      </trkpt>
      <trkpt lat="50.01894" lon="1.36202">
        <ele>75.7</ele>
        <time>2020-06-18T14:36:19Z</time>
      </trkpt>
      <trkpt lat="50.01896" lon="1.36212">
        <ele>75.7</ele>
        <time>2020-06-18T14:36:20Z</time>
      </trkpt>
      <trkpt lat="50.01899" lon="1.36221">
        <ele>75.8</ele>
        <time>2020-06-18T14:36:21Z</time>
      </trkpt>
      <trkpt lat="50.01901" lon="1.36229">
        <ele>75.8</ele>
        <time>2020-06-18T14:36:22Z</time>
      </trkpt>
      <trkpt lat="50.01903" lon="1.36239">
        <ele>75.9</ele>
        <time>2020-06-18T14:36:23Z</time>
      </trkpt>
      <trkpt lat="50.01905" lon="1.36248">
        <ele>76</ele>
        <time>2020-06-18T14:36:24Z</time>
      </trkpt>
      <trkpt lat="50.01907" lon="1.36257">
        <ele>76.1</ele>
        <time>2020-06-18T14:36:25Z</time>
      </trkpt>
      <trkpt lat="50.0191" lon="1.36265">
        <ele>76.2</ele>
        <time>2020-06-18T14:36:26Z</time>
      </trkpt>
      <trkpt lat="50.01911" lon="1.36273">
        <ele>76.3</ele>
        <time>2020-06-18T14:36:27Z</time>
      </trkpt>
      <trkpt lat="50.01913" lon="1.3628">
        <ele>76.4</ele>
        <time>2020-06-18T14:36:28Z</time>
      </trkpt>
      <trkpt lat="50.01915" lon="1.36289">
        <ele>76.5</ele>
        <time>2020-06-18T14:36:29Z</time>
      </trkpt>
      <trkpt lat="50.01918" lon="1.36299">
        <ele>76.6</ele>
        <time>2020-06-18T14:36:30Z</time>
      </trkpt>
      <trkpt lat="50.0192" lon="1.36309">
        <ele>76.7</ele>
        <time>2020-06-18T14:36:31Z</time>
      </trkpt>
      <trkpt lat="50.01923" lon="1.36318">
        <ele>76.8</ele>
        <time>2020-06-18T14:36:32Z</time>
      </trkpt>
      <trkpt lat="50.01925" lon="1.36327">
        <ele>76.8</ele>
        <time>2020-06-18T14:36:33Z</time>
      </trkpt>
      <trkpt lat="50.01927" lon="1.36336">
        <ele>76.9</ele>
        <time>2020-06-18T14:36:34Z</time>
      </trkpt>
      <trkpt lat="50.0193" lon="1.36345">
        <ele>77</ele>
        <time>2020-06-18T14:36:35Z</time>
      </trkpt>
      <trkpt lat="50.01931" lon="1.36351">
        <ele>77</ele>
        <time>2020-06-18T14:36:36Z</time>
      </trkpt>
      <trkpt lat="50.01934" lon="1.3636">
        <ele>77.1</ele>
        <time>2020-06-18T14:36:37Z</time>
      </trkpt>
      <trkpt lat="50.01937" lon="1.36369">
        <ele>77.2</ele>
        <time>2020-06-18T14:36:38Z</time>
      </trkpt>
      <trkpt lat="50.01939" lon="1.36378">
        <ele>77.3</ele>
        <time>2020-06-18T14:36:39Z</time>
      </trkpt>
      <trkpt lat="50.01942" lon="1.36387">
        <ele>77.4</ele>
        <time>2020-06-18T14:36:40Z</time>
      </trkpt>
      <trkpt lat="50.01944" lon="1.36395">
        <ele>77.5</ele>
        <time>2020-06-18T14:36:41Z</time>
      </trkpt>
      <trkpt lat="50.01946" lon="1.36402">
        <ele>77.6</ele>
        <time>2020-06-18T14:36:42Z</time>
      </trkpt>
      <trkpt lat="50.01949" lon="1.36411">
        <ele>77.6</ele>
        <time>2020-06-18T14:36:43Z</time>
      </trkpt>
      <trkpt lat="50.0195" lon="1.36419">
        <ele>77.7</ele>
        <time>2020-06-18T14:36:44Z</time>
      </trkpt>
      <trkpt lat="50.01952" lon="1.36428">
        <ele>77.8</ele>
        <time>2020-06-18T14:36:45Z</time>
      </trkpt>
      <trkpt lat="50.01954" lon="1.36436">
        <ele>77.8</ele>
        <time>2020-06-18T14:36:46Z</time>
      </trkpt>
      <trkpt lat="50.01956" lon="1.36444">
        <ele>77.9</ele>
        <time>2020-06-18T14:36:47Z</time>
      </trkpt>
      <trkpt lat="50.01959" lon="1.36453">
        <ele>78</ele>
        <time>2020-06-18T14:36:48Z</time>
      </trkpt>
      <trkpt lat="50.01961" lon="1.36461">
        <ele>78.2</ele>
        <time>2020-06-18T14:36:49Z</time>
      </trkpt>
      <trkpt lat="50.01964" lon="1.36468">
        <ele>78.3</ele>
        <time>2020-06-18T14:36:50Z</time>
      </trkpt>
      <trkpt lat="50.01966" lon="1.36476">
        <ele>78.4</ele>
        <time>2020-06-18T14:36:51Z</time>
      </trkpt>
      <trkpt lat="50.01968" lon="1.36486">
        <ele>78.5</ele>
        <time>2020-06-18T14:36:52Z</time>
      </trkpt>
      <trkpt lat="50.0197" lon="1.36493">
        <ele>78.6</ele>
        <time>2020-06-18T14:36:53Z</time>
      </trkpt>
      <trkpt lat="50.01972" lon="1.365">
        <ele>78.7</ele>
        <time>2020-06-18T14:36:54Z</time>
      </trkpt>
      <trkpt lat="50.01974" lon="1.36509">
        <ele>78.8</ele>
        <time>2020-06-18T14:36:55Z</time>
      </trkpt>
      <trkpt lat="50.01976" lon="1.36516">
        <ele>78.8</ele>
        <time>2020-06-18T14:36:56Z</time>
      </trkpt>
      <trkpt lat="50.01978" lon="1.36523">
        <ele>78.9</ele>
        <time>2020-06-18T14:36:57Z</time>
      </trkpt>
      <trkpt lat="50.01979" lon="1.36531">
        <ele>79</ele>
        <time>2020-06-18T14:36:58Z</time>
      </trkpt>
      <trkpt lat="50.01982" lon="1.3654">
        <ele>79.1</ele>
        <time>2020-06-18T14:36:59Z</time>
      </trkpt>
      <trkpt lat="50.01984" lon="1.36548">
        <ele>79.2</ele>
        <time>2020-06-18T14:37:00Z</time>
      </trkpt>
      <trkpt lat="50.01986" lon="1.36556">
        <ele>79.3</ele>
        <time>2020-06-18T14:37:01Z</time>
      </trkpt>
      <trkpt lat="50.01988" lon="1.36564">
        <ele>79.3</ele>
        <time>2020-06-18T14:37:02Z</time>
      </trkpt>
      <trkpt lat="50.0199" lon="1.36571">
        <ele>79.4</ele>
        <time>2020-06-18T14:37:03Z</time>
      </trkpt>
      <trkpt lat="50.01992" lon="1.3658">
        <ele>79.5</ele>
        <time>2020-06-18T14:37:04Z</time>
      </trkpt>
      <trkpt lat="50.01994" lon="1.36588">
        <ele>79.6</ele>
        <time>2020-06-18T14:37:05Z</time>
      </trkpt>
      <trkpt lat="50.01996" lon="1.36594">
        <ele>79.7</ele>
        <time>2020-06-18T14:37:06Z</time>
      </trkpt>
      <trkpt lat="50.01996" lon="1.36599">
        <ele>79.8</ele>
        <time>2020-06-18T14:37:07Z</time>
      </trkpt>
      <trkpt lat="50.01998" lon="1.36605">
        <ele>79.8</ele>
        <time>2020-06-18T14:37:08Z</time>
      </trkpt>
      <trkpt lat="50.02" lon="1.3661">
        <ele>79.9</ele>
        <time>2020-06-18T14:37:09Z</time>
      </trkpt>
      <trkpt lat="50.02002" lon="1.36617">
        <ele>80</ele>
        <time>2020-06-18T14:37:10Z</time>
      </trkpt>
      <trkpt lat="50.02003" lon="1.36623">
        <ele>80.1</ele>
        <time>2020-06-18T14:37:11Z</time>
      </trkpt>
      <trkpt lat="50.02004" lon="1.36628">
        <ele>80.1</ele>
        <time>2020-06-18T14:37:12Z</time>
      </trkpt>
      <trkpt lat="50.02006" lon="1.36634">
        <ele>80.2</ele>
        <time>2020-06-18T14:37:13Z</time>
      </trkpt>
      <trkpt lat="50.02008" lon="1.3664">
        <ele>80.3</ele>
        <time>2020-06-18T14:37:14Z</time>
      </trkpt>
      <trkpt lat="50.0201" lon="1.36646">
        <ele>80.4</ele>
        <time>2020-06-18T14:37:15Z</time>
      </trkpt>
      <trkpt lat="50.02012" lon="1.36652">
        <ele>80.4</ele>
        <time>2020-06-18T14:37:16Z</time>
      </trkpt>
      <trkpt lat="50.02014" lon="1.36658">
        <ele>80.5</ele>
        <time>2020-06-18T14:37:17Z</time>
      </trkpt>
      <trkpt lat="50.02015" lon="1.36663">
        <ele>80.5</ele>
        <time>2020-06-18T14:37:18Z</time>
      </trkpt>
      <trkpt lat="50.02017" lon="1.36669">
        <ele>80.6</ele>
        <time>2020-06-18T14:37:19Z</time>
      </trkpt>
      <trkpt lat="50.02018" lon="1.36675">
        <ele>80.7</ele>
        <time>2020-06-18T14:37:20Z</time>
      </trkpt>
      <trkpt lat="50.0202" lon="1.36682">
        <ele>80.7</ele>
        <time>2020-06-18T14:37:21Z</time>
      </trkpt>
      <trkpt lat="50.02022" lon="1.36689">
        <ele>80.8</ele>
        <time>2020-06-18T14:37:22Z</time>
      </trkpt>
      <trkpt lat="50.02024" lon="1.36697">
        <ele>80.9</ele>
        <time>2020-06-18T14:37:23Z</time>
      </trkpt>
      <trkpt lat="50.02026" lon="1.36706">
        <ele>81</ele>
        <time>2020-06-18T14:37:24Z</time>
      </trkpt>
      <trkpt lat="50.02028" lon="1.36714">
        <ele>81.1</ele>
        <time>2020-06-18T14:37:25Z</time>
      </trkpt>
      <trkpt lat="50.0203" lon="1.36723">
        <ele>81.2</ele>
        <time>2020-06-18T14:37:26Z</time>
      </trkpt>
      <trkpt lat="50.02032" lon="1.36732">
        <ele>81.3</ele>
        <time>2020-06-18T14:37:27Z</time>
      </trkpt>
      <trkpt lat="50.02034" lon="1.36741">
        <ele>81.4</ele>
        <time>2020-06-18T14:37:28Z</time>
      </trkpt>
      <trkpt lat="50.02036" lon="1.36749">
        <ele>81.5</ele>
        <time>2020-06-18T14:37:29Z</time>
      </trkpt>
      <trkpt lat="50.02038" lon="1.36756">
        <ele>81.6</ele>
        <time>2020-06-18T14:37:30Z</time>
      </trkpt>
      <trkpt lat="50.0204" lon="1.36766">
        <ele>81.7</ele>
        <time>2020-06-18T14:37:31Z</time>
      </trkpt>
      <trkpt lat="50.02042" lon="1.36775">
        <ele>81.9</ele>
        <time>2020-06-18T14:37:32Z</time>
      </trkpt>
      <trkpt lat="50.02044" lon="1.36783">
        <ele>82</ele>
        <time>2020-06-18T14:37:33Z</time>
      </trkpt>
      <trkpt lat="50.02046" lon="1.36792">
        <ele>82.1</ele>
        <time>2020-06-18T14:37:34Z</time>
      </trkpt>
      <trkpt lat="50.02048" lon="1.36801">
        <ele>82.2</ele>
        <time>2020-06-18T14:37:35Z</time>
      </trkpt>
      <trkpt lat="50.0205" lon="1.36809">
        <ele>82.2</ele>
        <time>2020-06-18T14:37:36Z</time>
      </trkpt>
      <trkpt lat="50.02053" lon="1.36817">
        <ele>82.3</ele>
        <time>2020-06-18T14:37:37Z</time>
      </trkpt>
      <trkpt lat="50.02055" lon="1.36825">
        <ele>82.4</ele>
        <time>2020-06-18T14:37:38Z</time>
      </trkpt>
      <trkpt lat="50.02057" lon="1.36833">
        <ele>82.5</ele>
        <time>2020-06-18T14:37:39Z</time>
      </trkpt>
      <trkpt lat="50.02059" lon="1.36842">
        <ele>82.7</ele>
        <time>2020-06-18T14:37:40Z</time>
      </trkpt>
      <trkpt lat="50.02061" lon="1.3685">
        <ele>82.8</ele>
        <time>2020-06-18T14:37:41Z</time>
      </trkpt>
      <trkpt lat="50.02063" lon="1.36858">
        <ele>82.9</ele>
        <time>2020-06-18T14:37:42Z</time>
      </trkpt>
      <trkpt lat="50.02065" lon="1.36866">
        <ele>83</ele>
        <time>2020-06-18T14:37:43Z</time>
      </trkpt>
      <trkpt lat="50.02067" lon="1.36873">
        <ele>83.1</ele>
        <time>2020-06-18T14:37:44Z</time>
      </trkpt>
      <trkpt lat="50.0207" lon="1.3688">
        <ele>83.2</ele>
        <time>2020-06-18T14:37:45Z</time>
      </trkpt>
      <trkpt lat="50.02072" lon="1.36888">
        <ele>83.3</ele>
        <time>2020-06-18T14:37:46Z</time>
      </trkpt>
      <trkpt lat="50.02075" lon="1.36898">
        <ele>83.4</ele>
        <time>2020-06-18T14:37:47Z</time>
      </trkpt>
      <trkpt lat="50.02077" lon="1.36906">
        <ele>83.5</ele>
        <time>2020-06-18T14:37:48Z</time>
      </trkpt>
      <trkpt lat="50.0208" lon="1.36914">
        <ele>83.6</ele>
        <time>2020-06-18T14:37:49Z</time>
      </trkpt>
      <trkpt lat="50.02083" lon="1.36923">
        <ele>83.6</ele>
        <time>2020-06-18T14:37:50Z</time>
      </trkpt>
      <trkpt lat="50.02084" lon="1.36931">
        <ele>83.7</ele>
        <time>2020-06-18T14:37:51Z</time>
      </trkpt>
      <trkpt lat="50.02086" lon="1.36939">
        <ele>83.7</ele>
        <time>2020-06-18T14:37:52Z</time>
      </trkpt>
      <trkpt lat="50.02087" lon="1.36948">
        <ele>83.8</ele>
        <time>2020-06-18T14:37:53Z</time>
      </trkpt>
      <trkpt lat="50.02088" lon="1.36956">
        <ele>83.8</ele>
        <time>2020-06-18T14:37:54Z</time>
      </trkpt>
      <trkpt lat="50.0209" lon="1.36964">
        <ele>83.9</ele>
        <time>2020-06-18T14:37:55Z</time>
      </trkpt>
      <trkpt lat="50.02092" lon="1.36972">
        <ele>84</ele>
        <time>2020-06-18T14:37:56Z</time>
      </trkpt>
      <trkpt lat="50.02094" lon="1.3698">
        <ele>84.1</ele>
        <time>2020-06-18T14:37:57Z</time>
      </trkpt>
      <trkpt lat="50.02096" lon="1.36988">
        <ele>84.1</ele>
        <time>2020-06-18T14:37:58Z</time>
      </trkpt>
      <trkpt lat="50.02098" lon="1.36998">
        <ele>84.2</ele>
        <time>2020-06-18T14:37:59Z</time>
      </trkpt>
      <trkpt lat="50.021" lon="1.37007">
        <ele>84.3</ele>
        <time>2020-06-18T14:38:00Z</time>
      </trkpt>
      <trkpt lat="50.02102" lon="1.37016">
        <ele>84.4</ele>
        <time>2020-06-18T14:38:01Z</time>
      </trkpt>
      <trkpt lat="50.02104" lon="1.37025">
        <ele>84.5</ele>
        <time>2020-06-18T14:38:02Z</time>
      </trkpt>
      <trkpt lat="50.02107" lon="1.37034">
        <ele>84.6</ele>
        <time>2020-06-18T14:38:03Z</time>
      </trkpt>
      <trkpt lat="50.02109" lon="1.37044">
        <ele>84.6</ele>
        <time>2020-06-18T14:38:04Z</time>
      </trkpt>
      <trkpt lat="50.02112" lon="1.37053">
        <ele>84.2</ele>
        <time>2020-06-18T14:38:05Z</time>
      </trkpt>
      <trkpt lat="50.02114" lon="1.37062">
        <ele>83.7</ele>
        <time>2020-06-18T14:38:06Z</time>
      </trkpt>
      <trkpt lat="50.02116" lon="1.37072">
        <ele>83.7</ele>
        <time>2020-06-18T14:38:07Z</time>
      </trkpt>
      <trkpt lat="50.02118" lon="1.37081">
        <ele>83.7</ele>
        <time>2020-06-18T14:38:08Z</time>
      </trkpt>
      <trkpt lat="50.02121" lon="1.37089">
        <ele>83.8</ele>
        <time>2020-06-18T14:38:09Z</time>
      </trkpt>
      <trkpt lat="50.02123" lon="1.37096">
        <ele>83.8</ele>
        <time>2020-06-18T14:38:10Z</time>
      </trkpt>
      <trkpt lat="50.02126" lon="1.37105">
        <ele>83.8</ele>
        <time>2020-06-18T14:38:11Z</time>
      </trkpt>
      <trkpt lat="50.02127" lon="1.37113">
        <ele>83.8</ele>
        <time>2020-06-18T14:38:12Z</time>
      </trkpt>
      <trkpt lat="50.02129" lon="1.37122">
        <ele>83.8</ele>
        <time>2020-06-18T14:38:13Z</time>
      </trkpt>
      <trkpt lat="50.02132" lon="1.3713">
        <ele>83.8</ele>
        <time>2020-06-18T14:38:14Z</time>
      </trkpt>
      <trkpt lat="50.02134" lon="1.37139">
        <ele>83.8</ele>
        <time>2020-06-18T14:38:15Z</time>
      </trkpt>
      <trkpt lat="50.02137" lon="1.37147">
        <ele>83.8</ele>
        <time>2020-06-18T14:38:16Z</time>
      </trkpt>
      <trkpt lat="50.02139" lon="1.37157">
        <ele>83.8</ele>
        <time>2020-06-18T14:38:17Z</time>
      </trkpt>
      <trkpt lat="50.02141" lon="1.37167">
        <ele>83.8</ele>
        <time>2020-06-18T14:38:18Z</time>
      </trkpt>
      <trkpt lat="50.02143" lon="1.37177">
        <ele>83.8</ele>
        <time>2020-06-18T14:38:19Z</time>
      </trkpt>
      <trkpt lat="50.02145" lon="1.37185">
        <ele>83.9</ele>
        <time>2020-06-18T14:38:20Z</time>
      </trkpt>
      <trkpt lat="50.02147" lon="1.37195">
        <ele>83.9</ele>
        <time>2020-06-18T14:38:21Z</time>
      </trkpt>
      <trkpt lat="50.02149" lon="1.37205">
        <ele>83.9</ele>
        <time>2020-06-18T14:38:22Z</time>
      </trkpt>
      <trkpt lat="50.02151" lon="1.37214">
        <ele>83.9</ele>
        <time>2020-06-18T14:38:23Z</time>
      </trkpt>
      <trkpt lat="50.02154" lon="1.37224">
        <ele>84</ele>
        <time>2020-06-18T14:38:24Z</time>
      </trkpt>
      <trkpt lat="50.02156" lon="1.37234">
        <ele>84</ele>
        <time>2020-06-18T14:38:25Z</time>
      </trkpt>
      <trkpt lat="50.02158" lon="1.37243">
        <ele>83.9</ele>
        <time>2020-06-18T14:38:26Z</time>
      </trkpt>
      <trkpt lat="50.02161" lon="1.37253">
        <ele>83.9</ele>
        <time>2020-06-18T14:38:27Z</time>
      </trkpt>
      <trkpt lat="50.02163" lon="1.37263">
        <ele>83.8</ele>
        <time>2020-06-18T14:38:28Z</time>
      </trkpt>
      <trkpt lat="50.02166" lon="1.37273">
        <ele>83.8</ele>
        <time>2020-06-18T14:38:29Z</time>
      </trkpt>
      <trkpt lat="50.02168" lon="1.37282">
        <ele>83.8</ele>
        <time>2020-06-18T14:38:30Z</time>
      </trkpt>
      <trkpt lat="50.02171" lon="1.37292">
        <ele>83.8</ele>
        <time>2020-06-18T14:38:31Z</time>
      </trkpt>
      <trkpt lat="50.02173" lon="1.37301">
        <ele>83.8</ele>
        <time>2020-06-18T14:38:32Z</time>
      </trkpt>
      <trkpt lat="50.02175" lon="1.37312">
        <ele>83.8</ele>
        <time>2020-06-18T14:38:33Z</time>
      </trkpt>
      <trkpt lat="50.02178" lon="1.37323">
        <ele>83.7</ele>
        <time>2020-06-18T14:38:34Z</time>
      </trkpt>
      <trkpt lat="50.0218" lon="1.37332">
        <ele>83.7</ele>
        <time>2020-06-18T14:38:35Z</time>
      </trkpt>
      <trkpt lat="50.02182" lon="1.3734">
        <ele>83.7</ele>
        <time>2020-06-18T14:38:36Z</time>
      </trkpt>
      <trkpt lat="50.02184" lon="1.37349">
        <ele>83.7</ele>
        <time>2020-06-18T14:38:37Z</time>
      </trkpt>
      <trkpt lat="50.02187" lon="1.37359">
        <ele>83.7</ele>
        <time>2020-06-18T14:38:38Z</time>
      </trkpt>
      <trkpt lat="50.0219" lon="1.37368">
        <ele>83.6</ele>
        <time>2020-06-18T14:38:39Z</time>
      </trkpt>
      <trkpt lat="50.02192" lon="1.37378">
        <ele>83.6</ele>
        <time>2020-06-18T14:38:40Z</time>
      </trkpt>
      <trkpt lat="50.02195" lon="1.37388">
        <ele>83.6</ele>
        <time>2020-06-18T14:38:41Z</time>
      </trkpt>
      <trkpt lat="50.02197" lon="1.37397">
        <ele>83.6</ele>
        <time>2020-06-18T14:38:42Z</time>
      </trkpt>
      <trkpt lat="50.022" lon="1.37406">
        <ele>83.6</ele>
        <time>2020-06-18T14:38:43Z</time>
      </trkpt>
      <trkpt lat="50.02202" lon="1.37417">
        <ele>83.6</ele>
        <time>2020-06-18T14:38:44Z</time>
      </trkpt>
      <trkpt lat="50.02205" lon="1.37427">
        <ele>83.6</ele>
        <time>2020-06-18T14:38:45Z</time>
      </trkpt>
      <trkpt lat="50.02207" lon="1.37437">
        <ele>83.6</ele>
        <time>2020-06-18T14:38:46Z</time>
      </trkpt>
      <trkpt lat="50.02209" lon="1.37446">
        <ele>83.6</ele>
        <time>2020-06-18T14:38:47Z</time>
      </trkpt>
      <trkpt lat="50.02212" lon="1.37456">
        <ele>83.6</ele>
        <time>2020-06-18T14:38:48Z</time>
      </trkpt>
      <trkpt lat="50.02215" lon="1.37465">
        <ele>83.6</ele>
        <time>2020-06-18T14:38:49Z</time>
      </trkpt>
      <trkpt lat="50.02218" lon="1.37475">
        <ele>83.7</ele>
        <time>2020-06-18T14:38:50Z</time>
      </trkpt>
      <trkpt lat="50.0222" lon="1.37485">
        <ele>83.7</ele>
        <time>2020-06-18T14:38:51Z</time>
      </trkpt>
      <trkpt lat="50.02222" lon="1.37494">
        <ele>83.7</ele>
        <time>2020-06-18T14:38:52Z</time>
      </trkpt>
      <trkpt lat="50.02225" lon="1.37503">
        <ele>83.7</ele>
        <time>2020-06-18T14:38:53Z</time>
      </trkpt>
      <trkpt lat="50.02227" lon="1.37513">
        <ele>83.7</ele>
        <time>2020-06-18T14:38:54Z</time>
      </trkpt>
      <trkpt lat="50.02229" lon="1.37522">
        <ele>83.6</ele>
        <time>2020-06-18T14:38:55Z</time>
      </trkpt>
      <trkpt lat="50.02232" lon="1.37532">
        <ele>83.6</ele>
        <time>2020-06-18T14:38:56Z</time>
      </trkpt>
      <trkpt lat="50.02234" lon="1.37543">
        <ele>83.6</ele>
        <time>2020-06-18T14:38:57Z</time>
      </trkpt>
      <trkpt lat="50.02236" lon="1.37553">
        <ele>83.6</ele>
        <time>2020-06-18T14:38:58Z</time>
      </trkpt>
      <trkpt lat="50.02238" lon="1.37563">
        <ele>83.6</ele>
        <time>2020-06-18T14:38:59Z</time>
      </trkpt>
      <trkpt lat="50.0224" lon="1.37572">
        <ele>83.6</ele>
        <time>2020-06-18T14:39:00Z</time>
      </trkpt>
      <trkpt lat="50.02243" lon="1.37582">
        <ele>83.6</ele>
        <time>2020-06-18T14:39:01Z</time>
      </trkpt>
      <trkpt lat="50.02245" lon="1.37591">
        <ele>83.6</ele>
        <time>2020-06-18T14:39:02Z</time>
      </trkpt>
      <trkpt lat="50.02248" lon="1.37602">
        <ele>83.6</ele>
        <time>2020-06-18T14:39:03Z</time>
      </trkpt>
      <trkpt lat="50.0225" lon="1.37612">
        <ele>83.6</ele>
        <time>2020-06-18T14:39:04Z</time>
      </trkpt>
      <trkpt lat="50.02252" lon="1.37622">
        <ele>83.7</ele>
        <time>2020-06-18T14:39:05Z</time>
      </trkpt>
      <trkpt lat="50.02255" lon="1.37631">
        <ele>83.7</ele>
        <time>2020-06-18T14:39:06Z</time>
      </trkpt>
      <trkpt lat="50.02257" lon="1.37642">
        <ele>83.7</ele>
        <time>2020-06-18T14:39:07Z</time>
      </trkpt>
      <trkpt lat="50.0226" lon="1.37652">
        <ele>83.7</ele>
        <time>2020-06-18T14:39:08Z</time>
      </trkpt>
      <trkpt lat="50.02262" lon="1.37663">
        <ele>83.7</ele>
        <time>2020-06-18T14:39:09Z</time>
      </trkpt>
      <trkpt lat="50.02265" lon="1.37673">
        <ele>83.7</ele>
        <time>2020-06-18T14:39:10Z</time>
      </trkpt>
      <trkpt lat="50.02268" lon="1.37684">
        <ele>83.8</ele>
        <time>2020-06-18T14:39:11Z</time>
      </trkpt>
      <trkpt lat="50.02271" lon="1.37694">
        <ele>83.8</ele>
        <time>2020-06-18T14:39:12Z</time>
      </trkpt>
      <trkpt lat="50.02273" lon="1.37703">
        <ele>83.9</ele>
        <time>2020-06-18T14:39:13Z</time>
      </trkpt>
      <trkpt lat="50.02276" lon="1.37713">
        <ele>83.9</ele>
        <time>2020-06-18T14:39:14Z</time>
      </trkpt>
      <trkpt lat="50.02279" lon="1.37722">
        <ele>83.9</ele>
        <time>2020-06-18T14:39:15Z</time>
      </trkpt>
      <trkpt lat="50.02281" lon="1.37732">
        <ele>84</ele>
        <time>2020-06-18T14:39:16Z</time>
      </trkpt>
      <trkpt lat="50.02284" lon="1.37741">
        <ele>84</ele>
        <time>2020-06-18T14:39:17Z</time>
      </trkpt>
      <trkpt lat="50.02286" lon="1.37751">
        <ele>84</ele>
        <time>2020-06-18T14:39:18Z</time>
      </trkpt>
      <trkpt lat="50.02289" lon="1.37761">
        <ele>84.1</ele>
        <time>2020-06-18T14:39:19Z</time>
      </trkpt>
      <trkpt lat="50.02291" lon="1.37771">
        <ele>84.1</ele>
        <time>2020-06-18T14:39:20Z</time>
      </trkpt>
      <trkpt lat="50.02294" lon="1.3778">
        <ele>84.1</ele>
        <time>2020-06-18T14:39:21Z</time>
      </trkpt>
      <trkpt lat="50.02296" lon="1.37789">
        <ele>84.1</ele>
        <time>2020-06-18T14:39:22Z</time>
      </trkpt>
      <trkpt lat="50.02298" lon="1.37798">
        <ele>84.2</ele>
        <time>2020-06-18T14:39:23Z</time>
      </trkpt>
      <trkpt lat="50.02301" lon="1.37806">
        <ele>84.2</ele>
        <time>2020-06-18T14:39:24Z</time>
      </trkpt>
      <trkpt lat="50.02303" lon="1.37815">
        <ele>84.2</ele>
        <time>2020-06-18T14:39:25Z</time>
      </trkpt>
      <trkpt lat="50.02305" lon="1.37824">
        <ele>84.3</ele>
        <time>2020-06-18T14:39:26Z</time>
      </trkpt>
      <trkpt lat="50.02308" lon="1.37832">
        <ele>84.3</ele>
        <time>2020-06-18T14:39:27Z</time>
      </trkpt>
      <trkpt lat="50.0231" lon="1.37841">
        <ele>84.4</ele>
        <time>2020-06-18T14:39:28Z</time>
      </trkpt>
      <trkpt lat="50.02312" lon="1.3785">
        <ele>84.4</ele>
        <time>2020-06-18T14:39:29Z</time>
      </trkpt>
      <trkpt lat="50.02314" lon="1.37859">
        <ele>84.4</ele>
        <time>2020-06-18T14:39:30Z</time>
      </trkpt>
      <trkpt lat="50.02317" lon="1.37868">
        <ele>84.5</ele>
        <time>2020-06-18T14:39:31Z</time>
      </trkpt>
      <trkpt lat="50.02319" lon="1.37877">
        <ele>84.6</ele>
        <time>2020-06-18T14:39:32Z</time>
      </trkpt>
      <trkpt lat="50.02321" lon="1.37887">
        <ele>84.6</ele>
        <time>2020-06-18T14:39:33Z</time>
      </trkpt>
      <trkpt lat="50.02323" lon="1.37896">
        <ele>84.7</ele>
        <time>2020-06-18T14:39:34Z</time>
      </trkpt>
      <trkpt lat="50.02325" lon="1.37906">
        <ele>84.7</ele>
        <time>2020-06-18T14:39:35Z</time>
      </trkpt>
      <trkpt lat="50.02327" lon="1.37916">
        <ele>84.8</ele>
        <time>2020-06-18T14:39:36Z</time>
      </trkpt>
      <trkpt lat="50.02329" lon="1.37926">
        <ele>84.9</ele>
        <time>2020-06-18T14:39:37Z</time>
      </trkpt>
      <trkpt lat="50.02331" lon="1.37933">
        <ele>85</ele>
        <time>2020-06-18T14:39:38Z</time>
      </trkpt>
      <trkpt lat="50.02333" lon="1.37942">
        <ele>85.1</ele>
        <time>2020-06-18T14:39:39Z</time>
      </trkpt>
      <trkpt lat="50.02334" lon="1.3795">
        <ele>85.2</ele>
        <time>2020-06-18T14:39:40Z</time>
      </trkpt>
      <trkpt lat="50.02336" lon="1.37959">
        <ele>85.3</ele>
        <time>2020-06-18T14:39:41Z</time>
      </trkpt>
      <trkpt lat="50.02338" lon="1.37969">
        <ele>85.4</ele>
        <time>2020-06-18T14:39:42Z</time>
      </trkpt>
      <trkpt lat="50.0234" lon="1.37978">
        <ele>85.4</ele>
        <time>2020-06-18T14:39:43Z</time>
      </trkpt>
      <trkpt lat="50.02343" lon="1.37988">
        <ele>85.4</ele>
        <time>2020-06-18T14:39:44Z</time>
      </trkpt>
      <trkpt lat="50.02344" lon="1.37997">
        <ele>85.4</ele>
        <time>2020-06-18T14:39:45Z</time>
      </trkpt>
      <trkpt lat="50.02346" lon="1.38007">
        <ele>85.4</ele>
        <time>2020-06-18T14:39:46Z</time>
      </trkpt>
      <trkpt lat="50.02348" lon="1.38016">
        <ele>85.5</ele>
        <time>2020-06-18T14:39:47Z</time>
      </trkpt>
      <trkpt lat="50.02351" lon="1.38025">
        <ele>85.5</ele>
        <time>2020-06-18T14:39:48Z</time>
      </trkpt>
      <trkpt lat="50.02353" lon="1.38034">
        <ele>85.5</ele>
        <time>2020-06-18T14:39:49Z</time>
      </trkpt>
      <trkpt lat="50.02355" lon="1.38044">
        <ele>85.6</ele>
        <time>2020-06-18T14:39:50Z</time>
      </trkpt>
      <trkpt lat="50.02358" lon="1.38053">
        <ele>85.7</ele>
        <time>2020-06-18T14:39:51Z</time>
      </trkpt>
      <trkpt lat="50.0236" lon="1.38062">
        <ele>85.7</ele>
        <time>2020-06-18T14:39:52Z</time>
      </trkpt>
      <trkpt lat="50.02362" lon="1.38071">
        <ele>85.7</ele>
        <time>2020-06-18T14:39:53Z</time>
      </trkpt>
      <trkpt lat="50.02364" lon="1.38081">
        <ele>85.6</ele>
        <time>2020-06-18T14:39:54Z</time>
      </trkpt>
      <trkpt lat="50.02367" lon="1.3809">
        <ele>85.4</ele>
        <time>2020-06-18T14:39:55Z</time>
      </trkpt>
      <trkpt lat="50.02369" lon="1.38099">
        <ele>85.3</ele>
        <time>2020-06-18T14:39:56Z</time>
      </trkpt>
      <trkpt lat="50.02372" lon="1.38108">
        <ele>85.2</ele>
        <time>2020-06-18T14:39:57Z</time>
      </trkpt>
      <trkpt lat="50.02374" lon="1.38118">
        <ele>85.2</ele>
        <time>2020-06-18T14:39:58Z</time>
      </trkpt>
      <trkpt lat="50.02376" lon="1.38128">
        <ele>85.2</ele>
        <time>2020-06-18T14:39:59Z</time>
      </trkpt>
      <trkpt lat="50.02378" lon="1.38138">
        <ele>85.2</ele>
        <time>2020-06-18T14:40:00Z</time>
      </trkpt>
      <trkpt lat="50.02381" lon="1.38146">
        <ele>85.2</ele>
        <time>2020-06-18T14:40:01Z</time>
      </trkpt>
      <trkpt lat="50.02383" lon="1.38155">
        <ele>85.2</ele>
        <time>2020-06-18T14:40:02Z</time>
      </trkpt>
      <trkpt lat="50.02385" lon="1.38164">
        <ele>85.3</ele>
        <time>2020-06-18T14:40:03Z</time>
      </trkpt>
      <trkpt lat="50.02387" lon="1.38172">
        <ele>85.4</ele>
        <time>2020-06-18T14:40:04Z</time>
      </trkpt>
      <trkpt lat="50.0239" lon="1.38181">
        <ele>85.5</ele>
        <time>2020-06-18T14:40:05Z</time>
      </trkpt>
      <trkpt lat="50.02392" lon="1.38189">
        <ele>85.5</ele>
        <time>2020-06-18T14:40:06Z</time>
      </trkpt>
      <trkpt lat="50.02394" lon="1.38197">
        <ele>85.5</ele>
        <time>2020-06-18T14:40:07Z</time>
      </trkpt>
      <trkpt lat="50.02397" lon="1.38207">
        <ele>85.5</ele>
        <time>2020-06-18T14:40:08Z</time>
      </trkpt>
      <trkpt lat="50.02399" lon="1.38216">
        <ele>85.6</ele>
        <time>2020-06-18T14:40:09Z</time>
      </trkpt>
      <trkpt lat="50.02401" lon="1.38226">
        <ele>85.6</ele>
        <time>2020-06-18T14:40:10Z</time>
      </trkpt>
      <trkpt lat="50.02404" lon="1.38235">
        <ele>85.6</ele>
        <time>2020-06-18T14:40:11Z</time>
      </trkpt>
      <trkpt lat="50.02406" lon="1.38245">
        <ele>85.6</ele>
        <time>2020-06-18T14:40:12Z</time>
      </trkpt>
      <trkpt lat="50.02408" lon="1.38254">
        <ele>85.6</ele>
        <time>2020-06-18T14:40:13Z</time>
      </trkpt>
      <trkpt lat="50.02411" lon="1.38264">
        <ele>85.7</ele>
        <time>2020-06-18T14:40:14Z</time>
      </trkpt>
      <trkpt lat="50.02413" lon="1.38273">
        <ele>85.8</ele>
        <time>2020-06-18T14:40:15Z</time>
      </trkpt>
      <trkpt lat="50.02415" lon="1.38281">
        <ele>85.9</ele>
        <time>2020-06-18T14:40:16Z</time>
      </trkpt>
      <trkpt lat="50.02417" lon="1.3829">
        <ele>86.1</ele>
        <time>2020-06-18T14:40:17Z</time>
      </trkpt>
      <trkpt lat="50.02419" lon="1.38299">
        <ele>86.2</ele>
        <time>2020-06-18T14:40:18Z</time>
      </trkpt>
      <trkpt lat="50.02422" lon="1.38308">
        <ele>86.3</ele>
        <time>2020-06-18T14:40:19Z</time>
      </trkpt>
      <trkpt lat="50.02423" lon="1.38317">
        <ele>86.3</ele>
        <time>2020-06-18T14:40:20Z</time>
      </trkpt>
      <trkpt lat="50.02426" lon="1.38326">
        <ele>86.3</ele>
        <time>2020-06-18T14:40:21Z</time>
      </trkpt>
      <trkpt lat="50.02429" lon="1.38337">
        <ele>86.4</ele>
        <time>2020-06-18T14:40:22Z</time>
      </trkpt>
      <trkpt lat="50.02431" lon="1.38346">
        <ele>86.4</ele>
        <time>2020-06-18T14:40:23Z</time>
      </trkpt>
      <trkpt lat="50.02433" lon="1.38356">
        <ele>86.5</ele>
        <time>2020-06-18T14:40:24Z</time>
      </trkpt>
      <trkpt lat="50.02435" lon="1.38365">
        <ele>86.6</ele>
        <time>2020-06-18T14:40:25Z</time>
      </trkpt>
      <trkpt lat="50.02437" lon="1.38373">
        <ele>86.6</ele>
        <time>2020-06-18T14:40:26Z</time>
      </trkpt>
      <trkpt lat="50.02439" lon="1.38383">
        <ele>86.7</ele>
        <time>2020-06-18T14:40:27Z</time>
      </trkpt>
      <trkpt lat="50.02441" lon="1.38392">
        <ele>86.7</ele>
        <time>2020-06-18T14:40:28Z</time>
      </trkpt>
      <trkpt lat="50.02443" lon="1.38401">
        <ele>86.8</ele>
        <time>2020-06-18T14:40:29Z</time>
      </trkpt>
      <trkpt lat="50.02446" lon="1.3841">
        <ele>86.8</ele>
        <time>2020-06-18T14:40:30Z</time>
      </trkpt>
      <trkpt lat="50.02448" lon="1.3842">
        <ele>86.8</ele>
        <time>2020-06-18T14:40:31Z</time>
      </trkpt>
      <trkpt lat="50.0245" lon="1.38428">
        <ele>86.9</ele>
        <time>2020-06-18T14:40:32Z</time>
      </trkpt>
      <trkpt lat="50.02452" lon="1.38436">
        <ele>86.9</ele>
        <time>2020-06-18T14:40:33Z</time>
      </trkpt>
      <trkpt lat="50.02454" lon="1.38445">
        <ele>87</ele>
        <time>2020-06-18T14:40:34Z</time>
      </trkpt>
      <trkpt lat="50.02456" lon="1.38454">
        <ele>87</ele>
        <time>2020-06-18T14:40:35Z</time>
      </trkpt>
      <trkpt lat="50.02459" lon="1.38464">
        <ele>87.1</ele>
        <time>2020-06-18T14:40:36Z</time>
      </trkpt>
      <trkpt lat="50.02461" lon="1.38473">
        <ele>87.2</ele>
        <time>2020-06-18T14:40:37Z</time>
      </trkpt>
      <trkpt lat="50.02463" lon="1.38482">
        <ele>87.3</ele>
        <time>2020-06-18T14:40:38Z</time>
      </trkpt>
      <trkpt lat="50.02466" lon="1.38491">
        <ele>87.4</ele>
        <time>2020-06-18T14:40:39Z</time>
      </trkpt>
      <trkpt lat="50.02468" lon="1.38499">
        <ele>87.5</ele>
        <time>2020-06-18T14:40:40Z</time>
      </trkpt>
      <trkpt lat="50.0247" lon="1.38507">
        <ele>87.5</ele>
        <time>2020-06-18T14:40:41Z</time>
      </trkpt>
      <trkpt lat="50.02471" lon="1.38516">
        <ele>87.5</ele>
        <time>2020-06-18T14:40:42Z</time>
      </trkpt>
      <trkpt lat="50.02473" lon="1.38525">
        <ele>87.6</ele>
        <time>2020-06-18T14:40:43Z</time>
      </trkpt>
      <trkpt lat="50.02475" lon="1.38533">
        <ele>87.6</ele>
        <time>2020-06-18T14:40:44Z</time>
      </trkpt>
      <trkpt lat="50.02477" lon="1.38541">
        <ele>87.7</ele>
        <time>2020-06-18T14:40:45Z</time>
      </trkpt>
      <trkpt lat="50.02479" lon="1.38549">
        <ele>87.8</ele>
        <time>2020-06-18T14:40:46Z</time>
      </trkpt>
      <trkpt lat="50.02481" lon="1.38557">
        <ele>87.8</ele>
        <time>2020-06-18T14:40:47Z</time>
      </trkpt>
      <trkpt lat="50.02483" lon="1.38566">
        <ele>87.9</ele>
        <time>2020-06-18T14:40:48Z</time>
      </trkpt>
      <trkpt lat="50.02485" lon="1.38574">
        <ele>88</ele>
        <time>2020-06-18T14:40:49Z</time>
      </trkpt>
      <trkpt lat="50.02487" lon="1.38582">
        <ele>88.1</ele>
        <time>2020-06-18T14:40:50Z</time>
      </trkpt>
      <trkpt lat="50.02489" lon="1.3859">
        <ele>88.2</ele>
        <time>2020-06-18T14:40:51Z</time>
      </trkpt>
      <trkpt lat="50.0249" lon="1.38599">
        <ele>88.2</ele>
        <time>2020-06-18T14:40:52Z</time>
      </trkpt>
      <trkpt lat="50.02491" lon="1.38608">
        <ele>88.3</ele>
        <time>2020-06-18T14:40:53Z</time>
      </trkpt>
      <trkpt lat="50.02493" lon="1.38617">
        <ele>88.4</ele>
        <time>2020-06-18T14:40:54Z</time>
      </trkpt>
      <trkpt lat="50.02495" lon="1.38626">
        <ele>88.3</ele>
        <time>2020-06-18T14:40:55Z</time>
      </trkpt>
      <trkpt lat="50.02497" lon="1.38635">
        <ele>88.2</ele>
        <time>2020-06-18T14:40:56Z</time>
      </trkpt>
      <trkpt lat="50.02499" lon="1.38645">
        <ele>88</ele>
        <time>2020-06-18T14:40:57Z</time>
      </trkpt>
      <trkpt lat="50.02502" lon="1.38653">
        <ele>88</ele>
        <time>2020-06-18T14:40:58Z</time>
      </trkpt>
      <trkpt lat="50.02505" lon="1.38662">
        <ele>87.9</ele>
        <time>2020-06-18T14:40:59Z</time>
      </trkpt>
      <trkpt lat="50.02507" lon="1.38671">
        <ele>87.8</ele>
        <time>2020-06-18T14:41:00Z</time>
      </trkpt>
      <trkpt lat="50.0251" lon="1.3868">
        <ele>87.8</ele>
        <time>2020-06-18T14:41:01Z</time>
      </trkpt>
      <trkpt lat="50.02512" lon="1.3869">
        <ele>87.7</ele>
        <time>2020-06-18T14:41:02Z</time>
      </trkpt>
      <trkpt lat="50.02515" lon="1.38699">
        <ele>87.7</ele>
        <time>2020-06-18T14:41:03Z</time>
      </trkpt>
      <trkpt lat="50.02518" lon="1.38708">
        <ele>87.6</ele>
        <time>2020-06-18T14:41:04Z</time>
      </trkpt>
      <trkpt lat="50.02523" lon="1.38715">
        <ele>87.6</ele>
        <time>2020-06-18T14:41:05Z</time>
      </trkpt>
      <trkpt lat="50.02527" lon="1.38723">
        <ele>87.6</ele>
        <time>2020-06-18T14:41:06Z</time>
      </trkpt>
      <trkpt lat="50.02532" lon="1.38732">
        <ele>87.5</ele>
        <time>2020-06-18T14:41:07Z</time>
      </trkpt>
      <trkpt lat="50.02536" lon="1.3874">
        <ele>87.5</ele>
        <time>2020-06-18T14:41:08Z</time>
      </trkpt>
      <trkpt lat="50.0254" lon="1.38748">
        <ele>87.5</ele>
        <time>2020-06-18T14:41:09Z</time>
      </trkpt>
      <trkpt lat="50.02545" lon="1.38756">
        <ele>87.4</ele>
        <time>2020-06-18T14:41:10Z</time>
      </trkpt>
      <trkpt lat="50.02548" lon="1.38765">
        <ele>87.3</ele>
        <time>2020-06-18T14:41:11Z</time>
      </trkpt>
      <trkpt lat="50.02553" lon="1.38773">
        <ele>87.2</ele>
        <time>2020-06-18T14:41:12Z</time>
      </trkpt>
      <trkpt lat="50.02557" lon="1.38781">
        <ele>87.2</ele>
        <time>2020-06-18T14:41:13Z</time>
      </trkpt>
      <trkpt lat="50.02561" lon="1.38789">
        <ele>87.1</ele>
        <time>2020-06-18T14:41:14Z</time>
      </trkpt>
      <trkpt lat="50.02566" lon="1.38797">
        <ele>87</ele>
        <time>2020-06-18T14:41:15Z</time>
      </trkpt>
      <trkpt lat="50.02571" lon="1.38805">
        <ele>86.9</ele>
        <time>2020-06-18T14:41:16Z</time>
      </trkpt>
      <trkpt lat="50.02575" lon="1.38812">
        <ele>86.9</ele>
        <time>2020-06-18T14:41:17Z</time>
      </trkpt>
      <trkpt lat="50.02579" lon="1.38821">
        <ele>86.8</ele>
        <time>2020-06-18T14:41:18Z</time>
      </trkpt>
      <trkpt lat="50.02584" lon="1.38827">
        <ele>86.8</ele>
        <time>2020-06-18T14:41:19Z</time>
      </trkpt>
      <trkpt lat="50.02587" lon="1.38835">
        <ele>86.8</ele>
        <time>2020-06-18T14:41:20Z</time>
      </trkpt>
      <trkpt lat="50.02591" lon="1.38843">
        <ele>86.7</ele>
        <time>2020-06-18T14:41:21Z</time>
      </trkpt>
      <trkpt lat="50.02596" lon="1.3885">
        <ele>86.7</ele>
        <time>2020-06-18T14:41:22Z</time>
      </trkpt>
      <trkpt lat="50.026" lon="1.38857">
        <ele>86.7</ele>
        <time>2020-06-18T14:41:23Z</time>
      </trkpt>
      <trkpt lat="50.02603" lon="1.38864">
        <ele>86.7</ele>
        <time>2020-06-18T14:41:24Z</time>
      </trkpt>
      <trkpt lat="50.02607" lon="1.38869">
        <ele>86.6</ele>
        <time>2020-06-18T14:41:25Z</time>
      </trkpt>
      <trkpt lat="50.02611" lon="1.38874">
        <ele>86.6</ele>
        <time>2020-06-18T14:41:26Z</time>
      </trkpt>
      <trkpt lat="50.02614" lon="1.38878">
        <ele>86.6</ele>
        <time>2020-06-18T14:41:27Z</time>
      </trkpt>
      <trkpt lat="50.02616" lon="1.38882">
        <ele>86.6</ele>
        <time>2020-06-18T14:41:28Z</time>
      </trkpt>
      <trkpt lat="50.02618" lon="1.38886">
        <ele>86.6</ele>
        <time>2020-06-18T14:41:29Z</time>
      </trkpt>
      <trkpt lat="50.02619" lon="1.38887">
        <ele>86.6</ele>
        <time>2020-06-18T14:41:30Z</time>
      </trkpt>
      <trkpt lat="50.02621" lon="1.3889">
        <ele>86.6</ele>
        <time>2020-06-18T14:41:31Z</time>
      </trkpt>
      <trkpt lat="50.02623" lon="1.38893">
        <ele>86.6</ele>
        <time>2020-06-18T14:41:32Z</time>
      </trkpt>
      <trkpt lat="50.02624" lon="1.38895">
        <ele>86.6</ele>
        <time>2020-06-18T14:41:33Z</time>
      </trkpt>
      <trkpt lat="50.02624" lon="1.38899">
        <ele>86.6</ele>
        <time>2020-06-18T14:41:34Z</time>
      </trkpt>
      <trkpt lat="50.02625" lon="1.389">
        <ele>86.7</ele>
        <time>2020-06-18T14:41:35Z</time>
      </trkpt>
      <trkpt lat="50.02626" lon="1.38905">
        <ele>86.7</ele>
        <time>2020-06-18T14:41:36Z</time>
      </trkpt>
      <trkpt lat="50.02628" lon="1.38912">
        <ele>86.7</ele>
        <time>2020-06-18T14:41:37Z</time>
      </trkpt>
      <trkpt lat="50.02629" lon="1.38918">
        <ele>86.8</ele>
        <time>2020-06-18T14:41:38Z</time>
      </trkpt>
      <trkpt lat="50.02632" lon="1.38925">
        <ele>86.8</ele>
        <time>2020-06-18T14:41:39Z</time>
      </trkpt>
      <trkpt lat="50.02635" lon="1.3893">
        <ele>86.7</ele>
        <time>2020-06-18T14:41:40Z</time>
      </trkpt>
      <trkpt lat="50.02639" lon="1.38936">
        <ele>86.7</ele>
        <time>2020-06-18T14:41:41Z</time>
      </trkpt>
      <trkpt lat="50.02643" lon="1.38943">
        <ele>86.6</ele>
        <time>2020-06-18T14:41:42Z</time>
      </trkpt>
      <trkpt lat="50.02647" lon="1.3895">
        <ele>86.5</ele>
        <time>2020-06-18T14:41:43Z</time>
      </trkpt>
      <trkpt lat="50.02651" lon="1.38958">
        <ele>86.4</ele>
        <time>2020-06-18T14:41:44Z</time>
      </trkpt>
      <trkpt lat="50.02656" lon="1.38966">
        <ele>86.2</ele>
        <time>2020-06-18T14:41:45Z</time>
      </trkpt>
      <trkpt lat="50.02661" lon="1.38976">
        <ele>86</ele>
        <time>2020-06-18T14:41:46Z</time>
      </trkpt>
      <trkpt lat="50.02665" lon="1.38985">
        <ele>85.8</ele>
        <time>2020-06-18T14:41:47Z</time>
      </trkpt>
      <trkpt lat="50.0267" lon="1.38993">
        <ele>85.7</ele>
        <time>2020-06-18T14:41:48Z</time>
      </trkpt>
      <trkpt lat="50.02674" lon="1.39001">
        <ele>85.6</ele>
        <time>2020-06-18T14:41:49Z</time>
      </trkpt>
      <trkpt lat="50.02679" lon="1.3901">
        <ele>85.6</ele>
        <time>2020-06-18T14:41:50Z</time>
      </trkpt>
      <trkpt lat="50.02683" lon="1.39019">
        <ele>85.5</ele>
        <time>2020-06-18T14:41:51Z</time>
      </trkpt>
      <trkpt lat="50.02687" lon="1.39027">
        <ele>85.5</ele>
        <time>2020-06-18T14:41:52Z</time>
      </trkpt>
      <trkpt lat="50.02692" lon="1.39036">
        <ele>85.4</ele>
        <time>2020-06-18T14:41:53Z</time>
      </trkpt>
      <trkpt lat="50.02697" lon="1.39045">
        <ele>85.4</ele>
        <time>2020-06-18T14:41:54Z</time>
      </trkpt>
      <trkpt lat="50.02701" lon="1.39055">
        <ele>85.4</ele>
        <time>2020-06-18T14:41:55Z</time>
      </trkpt>
      <trkpt lat="50.02705" lon="1.39063">
        <ele>85.4</ele>
        <time>2020-06-18T14:41:56Z</time>
      </trkpt>
      <trkpt lat="50.02709" lon="1.39071">
        <ele>85.4</ele>
        <time>2020-06-18T14:41:57Z</time>
      </trkpt>
      <trkpt lat="50.02713" lon="1.39079">
        <ele>85.4</ele>
        <time>2020-06-18T14:41:58Z</time>
      </trkpt>
      <trkpt lat="50.02718" lon="1.39087">
        <ele>85.4</ele>
        <time>2020-06-18T14:41:59Z</time>
      </trkpt>
      <trkpt lat="50.02722" lon="1.39096">
        <ele>85.4</ele>
        <time>2020-06-18T14:42:00Z</time>
      </trkpt>
      <trkpt lat="50.02727" lon="1.39105">
        <ele>85.4</ele>
        <time>2020-06-18T14:42:01Z</time>
      </trkpt>
      <trkpt lat="50.02731" lon="1.39113">
        <ele>85.3</ele>
        <time>2020-06-18T14:42:02Z</time>
      </trkpt>
      <trkpt lat="50.02736" lon="1.39121">
        <ele>85.3</ele>
        <time>2020-06-18T14:42:03Z</time>
      </trkpt>
      <trkpt lat="50.0274" lon="1.39128">
        <ele>85.2</ele>
        <time>2020-06-18T14:42:04Z</time>
      </trkpt>
      <trkpt lat="50.02745" lon="1.39137">
        <ele>85.1</ele>
        <time>2020-06-18T14:42:05Z</time>
      </trkpt>
      <trkpt lat="50.02749" lon="1.39146">
        <ele>85.1</ele>
        <time>2020-06-18T14:42:06Z</time>
      </trkpt>
      <trkpt lat="50.02753" lon="1.39155">
        <ele>85</ele>
        <time>2020-06-18T14:42:07Z</time>
      </trkpt>
      <trkpt lat="50.02758" lon="1.39164">
        <ele>85</ele>
        <time>2020-06-18T14:42:08Z</time>
      </trkpt>
      <trkpt lat="50.02762" lon="1.39173">
        <ele>84.9</ele>
        <time>2020-06-18T14:42:09Z</time>
      </trkpt>
      <trkpt lat="50.02766" lon="1.39181">
        <ele>84.9</ele>
        <time>2020-06-18T14:42:10Z</time>
      </trkpt>
      <trkpt lat="50.0277" lon="1.39189">
        <ele>84.9</ele>
        <time>2020-06-18T14:42:11Z</time>
      </trkpt>
      <trkpt lat="50.02775" lon="1.39197">
        <ele>84.8</ele>
        <time>2020-06-18T14:42:12Z</time>
      </trkpt>
      <trkpt lat="50.0278" lon="1.39206">
        <ele>84.8</ele>
        <time>2020-06-18T14:42:13Z</time>
      </trkpt>
      <trkpt lat="50.02785" lon="1.39214">
        <ele>84.8</ele>
        <time>2020-06-18T14:42:14Z</time>
      </trkpt>
      <trkpt lat="50.02789" lon="1.39222">
        <ele>84.8</ele>
        <time>2020-06-18T14:42:15Z</time>
      </trkpt>
      <trkpt lat="50.02793" lon="1.3923">
        <ele>84.8</ele>
        <time>2020-06-18T14:42:16Z</time>
      </trkpt>
      <trkpt lat="50.02798" lon="1.39239">
        <ele>84.9</ele>
        <time>2020-06-18T14:42:17Z</time>
      </trkpt>
      <trkpt lat="50.02802" lon="1.39248">
        <ele>84.9</ele>
        <time>2020-06-18T14:42:18Z</time>
      </trkpt>
      <trkpt lat="50.02807" lon="1.39256">
        <ele>84.8</ele>
        <time>2020-06-18T14:42:19Z</time>
      </trkpt>
      <trkpt lat="50.02811" lon="1.39265">
        <ele>84.8</ele>
        <time>2020-06-18T14:42:20Z</time>
      </trkpt>
      <trkpt lat="50.02816" lon="1.39274">
        <ele>84.7</ele>
        <time>2020-06-18T14:42:21Z</time>
      </trkpt>
      <trkpt lat="50.0282" lon="1.39282">
        <ele>84.6</ele>
        <time>2020-06-18T14:42:22Z</time>
      </trkpt>
      <trkpt lat="50.02825" lon="1.39292">
        <ele>84.6</ele>
        <time>2020-06-18T14:42:23Z</time>
      </trkpt>
      <trkpt lat="50.0283" lon="1.393">
        <ele>84.6</ele>
        <time>2020-06-18T14:42:24Z</time>
      </trkpt>
      <trkpt lat="50.02834" lon="1.39309">
        <ele>84.6</ele>
        <time>2020-06-18T14:42:25Z</time>
      </trkpt>
      <trkpt lat="50.02838" lon="1.39317">
        <ele>84.6</ele>
        <time>2020-06-18T14:42:26Z</time>
      </trkpt>
      <trkpt lat="50.02842" lon="1.39325">
        <ele>84.5</ele>
        <time>2020-06-18T14:42:27Z</time>
      </trkpt>
      <trkpt lat="50.02847" lon="1.39334">
        <ele>84.5</ele>
        <time>2020-06-18T14:42:28Z</time>
      </trkpt>
      <trkpt lat="50.02851" lon="1.39343">
        <ele>84.5</ele>
        <time>2020-06-18T14:42:29Z</time>
      </trkpt>
      <trkpt lat="50.02855" lon="1.39351">
        <ele>84.4</ele>
        <time>2020-06-18T14:42:30Z</time>
      </trkpt>
      <trkpt lat="50.0286" lon="1.39359">
        <ele>84.4</ele>
        <time>2020-06-18T14:42:31Z</time>
      </trkpt>
      <trkpt lat="50.02864" lon="1.39367">
        <ele>84.4</ele>
        <time>2020-06-18T14:42:32Z</time>
      </trkpt>
      <trkpt lat="50.02868" lon="1.39376">
        <ele>84.4</ele>
        <time>2020-06-18T14:42:33Z</time>
      </trkpt>
      <trkpt lat="50.02872" lon="1.39384">
        <ele>84.4</ele>
        <time>2020-06-18T14:42:34Z</time>
      </trkpt>
      <trkpt lat="50.02876" lon="1.39393">
        <ele>84.4</ele>
        <time>2020-06-18T14:42:35Z</time>
      </trkpt>
      <trkpt lat="50.02879" lon="1.39402">
        <ele>84.4</ele>
        <time>2020-06-18T14:42:36Z</time>
      </trkpt>
      <trkpt lat="50.02883" lon="1.39411">
        <ele>84.5</ele>
        <time>2020-06-18T14:42:37Z</time>
      </trkpt>
      <trkpt lat="50.02886" lon="1.39419">
        <ele>84.5</ele>
        <time>2020-06-18T14:42:38Z</time>
      </trkpt>
      <trkpt lat="50.0289" lon="1.39428">
        <ele>84.5</ele>
        <time>2020-06-18T14:42:39Z</time>
      </trkpt>
      <trkpt lat="50.02894" lon="1.39436">
        <ele>84.5</ele>
        <time>2020-06-18T14:42:40Z</time>
      </trkpt>
      <trkpt lat="50.02898" lon="1.39443">
        <ele>84.5</ele>
        <time>2020-06-18T14:42:41Z</time>
      </trkpt>
      <trkpt lat="50.02902" lon="1.3945">
        <ele>84.6</ele>
        <time>2020-06-18T14:42:42Z</time>
      </trkpt>
      <trkpt lat="50.02907" lon="1.39457">
        <ele>84.6</ele>
        <time>2020-06-18T14:42:43Z</time>
      </trkpt>
      <trkpt lat="50.02911" lon="1.39466">
        <ele>84.6</ele>
        <time>2020-06-18T14:42:44Z</time>
      </trkpt>
      <trkpt lat="50.02915" lon="1.39473">
        <ele>84.6</ele>
        <time>2020-06-18T14:42:45Z</time>
      </trkpt>
      <trkpt lat="50.0292" lon="1.39481">
        <ele>84.6</ele>
        <time>2020-06-18T14:42:46Z</time>
      </trkpt>
      <trkpt lat="50.02924" lon="1.39489">
        <ele>84.7</ele>
        <time>2020-06-18T14:42:47Z</time>
      </trkpt>
      <trkpt lat="50.02928" lon="1.39497">
        <ele>84.7</ele>
        <time>2020-06-18T14:42:48Z</time>
      </trkpt>
      <trkpt lat="50.02933" lon="1.39505">
        <ele>84.7</ele>
        <time>2020-06-18T14:42:49Z</time>
      </trkpt>
      <trkpt lat="50.02938" lon="1.39513">
        <ele>84.8</ele>
        <time>2020-06-18T14:42:50Z</time>
      </trkpt>
      <trkpt lat="50.02942" lon="1.39522">
        <ele>84.8</ele>
        <time>2020-06-18T14:42:51Z</time>
      </trkpt>
      <trkpt lat="50.02946" lon="1.39532">
        <ele>84.8</ele>
        <time>2020-06-18T14:42:52Z</time>
      </trkpt>
      <trkpt lat="50.0295" lon="1.3954">
        <ele>84.9</ele>
        <time>2020-06-18T14:42:53Z</time>
      </trkpt>
      <trkpt lat="50.02953" lon="1.39547">
        <ele>84.9</ele>
        <time>2020-06-18T14:42:54Z</time>
      </trkpt>
      <trkpt lat="50.02956" lon="1.39555">
        <ele>84.9</ele>
        <time>2020-06-18T14:42:55Z</time>
      </trkpt>
      <trkpt lat="50.0296" lon="1.39563">
        <ele>84.9</ele>
        <time>2020-06-18T14:42:56Z</time>
      </trkpt>
      <trkpt lat="50.02964" lon="1.39571">
        <ele>84.9</ele>
        <time>2020-06-18T14:42:57Z</time>
      </trkpt>
      <trkpt lat="50.02967" lon="1.39579">
        <ele>84.9</ele>
        <time>2020-06-18T14:42:58Z</time>
      </trkpt>
      <trkpt lat="50.02973" lon="1.39585">
        <ele>84.9</ele>
        <time>2020-06-18T14:42:59Z</time>
      </trkpt>
      <trkpt lat="50.02977" lon="1.39594">
        <ele>84.9</ele>
        <time>2020-06-18T14:43:00Z</time>
      </trkpt>
      <trkpt lat="50.02981" lon="1.39602">
        <ele>84.9</ele>
        <time>2020-06-18T14:43:01Z</time>
      </trkpt>
      <trkpt lat="50.02985" lon="1.39611">
        <ele>84.9</ele>
        <time>2020-06-18T14:43:02Z</time>
      </trkpt>
      <trkpt lat="50.02989" lon="1.39618">
        <ele>85</ele>
        <time>2020-06-18T14:43:03Z</time>
      </trkpt>
      <trkpt lat="50.02994" lon="1.39626">
        <ele>85</ele>
        <time>2020-06-18T14:43:04Z</time>
      </trkpt>
      <trkpt lat="50.02997" lon="1.39636">
        <ele>85</ele>
        <time>2020-06-18T14:43:05Z</time>
      </trkpt>
      <trkpt lat="50.03001" lon="1.39644">
        <ele>85.1</ele>
        <time>2020-06-18T14:43:06Z</time>
      </trkpt>
      <trkpt lat="50.03004" lon="1.39651">
        <ele>85.1</ele>
        <time>2020-06-18T14:43:07Z</time>
      </trkpt>
      <trkpt lat="50.03008" lon="1.39658">
        <ele>85.1</ele>
        <time>2020-06-18T14:43:08Z</time>
      </trkpt>
      <trkpt lat="50.03013" lon="1.39666">
        <ele>85.2</ele>
        <time>2020-06-18T14:43:09Z</time>
      </trkpt>
      <trkpt lat="50.03017" lon="1.39674">
        <ele>85.2</ele>
        <time>2020-06-18T14:43:10Z</time>
      </trkpt>
      <trkpt lat="50.03021" lon="1.39682">
        <ele>85.2</ele>
        <time>2020-06-18T14:43:11Z</time>
      </trkpt>
      <trkpt lat="50.03026" lon="1.39691">
        <ele>85.2</ele>
        <time>2020-06-18T14:43:12Z</time>
      </trkpt>
      <trkpt lat="50.0303" lon="1.39698">
        <ele>85.2</ele>
        <time>2020-06-18T14:43:13Z</time>
      </trkpt>
      <trkpt lat="50.03035" lon="1.39705">
        <ele>85.2</ele>
        <time>2020-06-18T14:43:14Z</time>
      </trkpt>
      <trkpt lat="50.03039" lon="1.39713">
        <ele>85.3</ele>
        <time>2020-06-18T14:43:15Z</time>
      </trkpt>
      <trkpt lat="50.03043" lon="1.39722">
        <ele>85.3</ele>
        <time>2020-06-18T14:43:16Z</time>
      </trkpt>
      <trkpt lat="50.03048" lon="1.39729">
        <ele>85.3</ele>
        <time>2020-06-18T14:43:17Z</time>
      </trkpt>
      <trkpt lat="50.03052" lon="1.39738">
        <ele>85.3</ele>
        <time>2020-06-18T14:43:18Z</time>
      </trkpt>
      <trkpt lat="50.03056" lon="1.39745">
        <ele>85.3</ele>
        <time>2020-06-18T14:43:19Z</time>
      </trkpt>
      <trkpt lat="50.03059" lon="1.39753">
        <ele>85.3</ele>
        <time>2020-06-18T14:43:20Z</time>
      </trkpt>
      <trkpt lat="50.03063" lon="1.39762">
        <ele>85.4</ele>
        <time>2020-06-18T14:43:21Z</time>
      </trkpt>
      <trkpt lat="50.03068" lon="1.3977">
        <ele>85.4</ele>
        <time>2020-06-18T14:43:22Z</time>
      </trkpt>
      <trkpt lat="50.03072" lon="1.39778">
        <ele>85.4</ele>
        <time>2020-06-18T14:43:23Z</time>
      </trkpt>
      <trkpt lat="50.03076" lon="1.39786">
        <ele>85.4</ele>
        <time>2020-06-18T14:43:24Z</time>
      </trkpt>
      <trkpt lat="50.0308" lon="1.39793">
        <ele>85.4</ele>
        <time>2020-06-18T14:43:25Z</time>
      </trkpt>
      <trkpt lat="50.03084" lon="1.39801">
        <ele>85.4</ele>
        <time>2020-06-18T14:43:26Z</time>
      </trkpt>
      <trkpt lat="50.03088" lon="1.39808">
        <ele>85.4</ele>
        <time>2020-06-18T14:43:27Z</time>
      </trkpt>
      <trkpt lat="50.03092" lon="1.39817">
        <ele>85.4</ele>
        <time>2020-06-18T14:43:28Z</time>
      </trkpt>
      <trkpt lat="50.03097" lon="1.39825">
        <ele>85.4</ele>
        <time>2020-06-18T14:43:29Z</time>
      </trkpt>
      <trkpt lat="50.03101" lon="1.39832">
        <ele>85.4</ele>
        <time>2020-06-18T14:43:30Z</time>
      </trkpt>
      <trkpt lat="50.03105" lon="1.3984">
        <ele>85.4</ele>
        <time>2020-06-18T14:43:31Z</time>
      </trkpt>
      <trkpt lat="50.03109" lon="1.39848">
        <ele>85.4</ele>
        <time>2020-06-18T14:43:32Z</time>
      </trkpt>
      <trkpt lat="50.03113" lon="1.39856">
        <ele>85.5</ele>
        <time>2020-06-18T14:43:33Z</time>
      </trkpt>
      <trkpt lat="50.03116" lon="1.39864">
        <ele>85.5</ele>
        <time>2020-06-18T14:43:34Z</time>
      </trkpt>
      <trkpt lat="50.0312" lon="1.39872">
        <ele>85.5</ele>
        <time>2020-06-18T14:43:35Z</time>
      </trkpt>
      <trkpt lat="50.03124" lon="1.39879">
        <ele>85.5</ele>
        <time>2020-06-18T14:43:36Z</time>
      </trkpt>
      <trkpt lat="50.03128" lon="1.39888">
        <ele>85.5</ele>
        <time>2020-06-18T14:43:37Z</time>
      </trkpt>
      <trkpt lat="50.03131" lon="1.39895">
        <ele>85.5</ele>
        <time>2020-06-18T14:43:38Z</time>
      </trkpt>
      <trkpt lat="50.03135" lon="1.39902">
        <ele>85.6</ele>
        <time>2020-06-18T14:43:39Z</time>
      </trkpt>
      <trkpt lat="50.0314" lon="1.3991">
        <ele>85.6</ele>
        <time>2020-06-18T14:43:40Z</time>
      </trkpt>
      <trkpt lat="50.03143" lon="1.39917">
        <ele>85.6</ele>
        <time>2020-06-18T14:43:41Z</time>
      </trkpt>
      <trkpt lat="50.03146" lon="1.39925">
        <ele>85.6</ele>
        <time>2020-06-18T14:43:42Z</time>
      </trkpt>
      <trkpt lat="50.0315" lon="1.39932">
        <ele>85.6</ele>
        <time>2020-06-18T14:43:43Z</time>
      </trkpt>
      <trkpt lat="50.03154" lon="1.39941">
        <ele>85.6</ele>
        <time>2020-06-18T14:43:44Z</time>
      </trkpt>
      <trkpt lat="50.03158" lon="1.39948">
        <ele>85.7</ele>
        <time>2020-06-18T14:43:45Z</time>
      </trkpt>
      <trkpt lat="50.03161" lon="1.39953">
        <ele>85.7</ele>
        <time>2020-06-18T14:43:46Z</time>
      </trkpt>
      <trkpt lat="50.03164" lon="1.39961">
        <ele>85.8</ele>
        <time>2020-06-18T14:43:47Z</time>
      </trkpt>
      <trkpt lat="50.03168" lon="1.39967">
        <ele>85.9</ele>
        <time>2020-06-18T14:43:48Z</time>
      </trkpt>
      <trkpt lat="50.03172" lon="1.39974">
        <ele>85.9</ele>
        <time>2020-06-18T14:43:49Z</time>
      </trkpt>
      <trkpt lat="50.03175" lon="1.39982">
        <ele>86</ele>
        <time>2020-06-18T14:43:50Z</time>
      </trkpt>
      <trkpt lat="50.03178" lon="1.39989">
        <ele>86.1</ele>
        <time>2020-06-18T14:43:51Z</time>
      </trkpt>
      <trkpt lat="50.03181" lon="1.39995">
        <ele>86.1</ele>
        <time>2020-06-18T14:43:52Z</time>
      </trkpt>
      <trkpt lat="50.03185" lon="1.4">
        <ele>86.2</ele>
        <time>2020-06-18T14:43:53Z</time>
      </trkpt>
      <trkpt lat="50.03188" lon="1.40004">
        <ele>86.2</ele>
        <time>2020-06-18T14:43:54Z</time>
      </trkpt>
      <trkpt lat="50.0319" lon="1.40008">
        <ele>86.2</ele>
        <time>2020-06-18T14:43:55Z</time>
      </trkpt>
      <trkpt lat="50.03193" lon="1.40012">
        <ele>86.2</ele>
        <time>2020-06-18T14:43:56Z</time>
      </trkpt>
      <trkpt lat="50.03196" lon="1.40017">
        <ele>86.2</ele>
        <time>2020-06-18T14:43:57Z</time>
      </trkpt>
      <trkpt lat="50.03197" lon="1.40023">
        <ele>86.2</ele>
        <time>2020-06-18T14:43:58Z</time>
      </trkpt>
      <trkpt lat="50.03198" lon="1.40028">
        <ele>86.1</ele>
        <time>2020-06-18T14:43:59Z</time>
      </trkpt>
      <trkpt lat="50.03198" lon="1.40033">
        <ele>86.1</ele>
        <time>2020-06-18T14:44:00Z</time>
      </trkpt>
      <trkpt lat="50.03197" lon="1.40039">
        <ele>86.2</ele>
        <time>2020-06-18T14:44:01Z</time>
      </trkpt>
      <trkpt lat="50.03197" lon="1.40047">
        <ele>86.2</ele>
        <time>2020-06-18T14:44:02Z</time>
      </trkpt>
      <trkpt lat="50.03197" lon="1.40054">
        <ele>86.2</ele>
        <time>2020-06-18T14:44:03Z</time>
      </trkpt>
      <trkpt lat="50.03198" lon="1.40061">
        <ele>86.2</ele>
        <time>2020-06-18T14:44:04Z</time>
      </trkpt>
      <trkpt lat="50.03201" lon="1.40068">
        <ele>86.3</ele>
        <time>2020-06-18T14:44:05Z</time>
      </trkpt>
      <trkpt lat="50.03205" lon="1.40075">
        <ele>86.2</ele>
        <time>2020-06-18T14:44:06Z</time>
      </trkpt>
      <trkpt lat="50.03208" lon="1.4008">
        <ele>86.2</ele>
        <time>2020-06-18T14:44:07Z</time>
      </trkpt>
      <trkpt lat="50.0321" lon="1.40084">
        <ele>86.2</ele>
        <time>2020-06-18T14:44:08Z</time>
      </trkpt>
      <trkpt lat="50.03214" lon="1.40089">
        <ele>86.2</ele>
        <time>2020-06-18T14:44:09Z</time>
      </trkpt>
      <trkpt lat="50.03218" lon="1.40093">
        <ele>86.2</ele>
        <time>2020-06-18T14:44:10Z</time>
      </trkpt>
      <trkpt lat="50.03225" lon="1.40094">
        <ele>86.2</ele>
        <time>2020-06-18T14:44:11Z</time>
      </trkpt>
      <trkpt lat="50.03231" lon="1.40095">
        <ele>86.2</ele>
        <time>2020-06-18T14:44:12Z</time>
      </trkpt>
      <trkpt lat="50.03236" lon="1.40097">
        <ele>86.2</ele>
        <time>2020-06-18T14:44:13Z</time>
      </trkpt>
      <trkpt lat="50.0324" lon="1.401">
        <ele>86.3</ele>
        <time>2020-06-18T14:44:14Z</time>
      </trkpt>
      <trkpt lat="50.03244" lon="1.40105">
        <ele>86.3</ele>
        <time>2020-06-18T14:44:15Z</time>
      </trkpt>
      <trkpt lat="50.03248" lon="1.40113">
        <ele>86.3</ele>
        <time>2020-06-18T14:44:16Z</time>
      </trkpt>
      <trkpt lat="50.03251" lon="1.40121">
        <ele>86.4</ele>
        <time>2020-06-18T14:44:17Z</time>
      </trkpt>
      <trkpt lat="50.03255" lon="1.40128">
        <ele>86.4</ele>
        <time>2020-06-18T14:44:18Z</time>
      </trkpt>
      <trkpt lat="50.03256" lon="1.40134">
        <ele>86.3</ele>
        <time>2020-06-18T14:44:19Z</time>
      </trkpt>
      <trkpt lat="50.03259" lon="1.40139">
        <ele>86.3</ele>
        <time>2020-06-18T14:44:20Z</time>
      </trkpt>
      <trkpt lat="50.0326" lon="1.40144">
        <ele>86.3</ele>
        <time>2020-06-18T14:44:21Z</time>
      </trkpt>
      <trkpt lat="50.03261" lon="1.40146">
        <ele>86.2</ele>
        <time>2020-06-18T14:44:22Z</time>
      </trkpt>
      <trkpt lat="50.03261" lon="1.40148">
        <ele>86.2</ele>
        <time>2020-06-18T14:44:23Z</time>
      </trkpt>
      <trkpt lat="50.03261" lon="1.40148">
        <ele>86.2</ele>
        <time>2020-06-18T14:44:24Z</time>
      </trkpt>
      <trkpt lat="50.0326" lon="1.40147">
        <ele>86.2</ele>
        <time>2020-06-18T14:44:25Z</time>
      </trkpt>
      <trkpt lat="50.0326" lon="1.40145">
        <ele>86.2</ele>
        <time>2020-06-18T14:44:26Z</time>
      </trkpt>
      <trkpt lat="50.0326" lon="1.40145">
        <ele>86.2</ele>
        <time>2020-06-18T14:44:27Z</time>
      </trkpt>
      <trkpt lat="50.03261" lon="1.40145">
        <ele>86.2</ele>
        <time>2020-06-18T14:44:28Z</time>
      </trkpt>
      <trkpt lat="50.03261" lon="1.40144">
        <ele>86.2</ele>
        <time>2020-06-18T14:44:29Z</time>
      </trkpt>
      <trkpt lat="50.03261" lon="1.40144">
        <ele>86.2</ele>
        <time>2020-06-18T14:44:30Z</time>
      </trkpt>
      <trkpt lat="50.03261" lon="1.40146">
        <ele>86.2</ele>
        <time>2020-06-18T14:44:31Z</time>
      </trkpt>
      <trkpt lat="50.03262" lon="1.40149">
        <ele>86.1</ele>
        <time>2020-06-18T14:44:32Z</time>
      </trkpt>
      <trkpt lat="50.03263" lon="1.40151">
        <ele>86.1</ele>
        <time>2020-06-18T14:44:33Z</time>
      </trkpt>
      <trkpt lat="50.03264" lon="1.40154">
        <ele>86.1</ele>
        <time>2020-06-18T14:44:34Z</time>
      </trkpt>
      <trkpt lat="50.03265" lon="1.40157">
        <ele>86.1</ele>
        <time>2020-06-18T14:51:06Z</time>
      </trkpt>
      <trkpt lat="50.03266" lon="1.40159">
        <ele>86.1</ele>
        <time>2020-06-18T14:51:07Z</time>
      </trkpt>
      <trkpt lat="50.03267" lon="1.40162">
        <ele>86.1</ele>
        <time>2020-06-18T14:51:08Z</time>
      </trkpt>
      <trkpt lat="50.03271" lon="1.40167">
        <ele>86</ele>
        <time>2020-06-18T14:51:09Z</time>
      </trkpt>
      <trkpt lat="50.03271" lon="1.40169">
        <ele>86</ele>
        <time>2020-06-18T14:51:10Z</time>
      </trkpt>
      <trkpt lat="50.03274" lon="1.40173">
        <ele>86</ele>
        <time>2020-06-18T14:51:11Z</time>
      </trkpt>
      <trkpt lat="50.03277" lon="1.40177">
        <ele>86</ele>
        <time>2020-06-18T14:51:12Z</time>
      </trkpt>
      <trkpt lat="50.03279" lon="1.40182">
        <ele>86</ele>
        <time>2020-06-18T14:51:13Z</time>
      </trkpt>
      <trkpt lat="50.03281" lon="1.40187">
        <ele>86</ele>
        <time>2020-06-18T14:51:14Z</time>
      </trkpt>
      <trkpt lat="50.03284" lon="1.40191">
        <ele>86</ele>
        <time>2020-06-18T14:51:15Z</time>
      </trkpt>
      <trkpt lat="50.03286" lon="1.40198">
        <ele>86</ele>
        <time>2020-06-18T14:51:16Z</time>
      </trkpt>
      <trkpt lat="50.03289" lon="1.40203">
        <ele>86</ele>
        <time>2020-06-18T14:51:17Z</time>
      </trkpt>
      <trkpt lat="50.03293" lon="1.40208">
        <ele>86.1</ele>
        <time>2020-06-18T14:51:18Z</time>
      </trkpt>
      <trkpt lat="50.03296" lon="1.40214">
        <ele>86.1</ele>
        <time>2020-06-18T14:51:19Z</time>
      </trkpt>
      <trkpt lat="50.033" lon="1.4022">
        <ele>86.1</ele>
        <time>2020-06-18T14:51:20Z</time>
      </trkpt>
      <trkpt lat="50.03303" lon="1.40228">
        <ele>86.1</ele>
        <time>2020-06-18T14:51:21Z</time>
      </trkpt>
      <trkpt lat="50.03306" lon="1.40236">
        <ele>86.2</ele>
        <time>2020-06-18T14:51:22Z</time>
      </trkpt>
      <trkpt lat="50.0331" lon="1.40243">
        <ele>86.2</ele>
        <time>2020-06-18T14:51:23Z</time>
      </trkpt>
      <trkpt lat="50.03313" lon="1.4025">
        <ele>86.2</ele>
        <time>2020-06-18T14:51:24Z</time>
      </trkpt>
      <trkpt lat="50.03316" lon="1.40256">
        <ele>86.3</ele>
        <time>2020-06-18T14:51:25Z</time>
      </trkpt>
      <trkpt lat="50.0332" lon="1.40263">
        <ele>86.4</ele>
        <time>2020-06-18T14:51:26Z</time>
      </trkpt>
      <trkpt lat="50.03324" lon="1.4027">
        <ele>86.4</ele>
        <time>2020-06-18T14:51:27Z</time>
      </trkpt>
      <trkpt lat="50.03328" lon="1.40277">
        <ele>86.5</ele>
        <time>2020-06-18T14:51:28Z</time>
      </trkpt>
      <trkpt lat="50.03332" lon="1.40286">
        <ele>86.5</ele>
        <time>2020-06-18T14:51:29Z</time>
      </trkpt>
      <trkpt lat="50.03337" lon="1.40294">
        <ele>86.6</ele>
        <time>2020-06-18T14:51:30Z</time>
      </trkpt>
      <trkpt lat="50.03341" lon="1.40301">
        <ele>86.6</ele>
        <time>2020-06-18T14:51:31Z</time>
      </trkpt>
      <trkpt lat="50.03345" lon="1.40309">
        <ele>86.6</ele>
        <time>2020-06-18T14:51:32Z</time>
      </trkpt>
      <trkpt lat="50.03349" lon="1.40317">
        <ele>86.5</ele>
        <time>2020-06-18T14:51:33Z</time>
      </trkpt>
      <trkpt lat="50.03353" lon="1.40325">
        <ele>86.4</ele>
        <time>2020-06-18T14:51:34Z</time>
      </trkpt>
      <trkpt lat="50.03357" lon="1.40333">
        <ele>86.4</ele>
        <time>2020-06-18T14:51:35Z</time>
      </trkpt>
      <trkpt lat="50.0336" lon="1.4034">
        <ele>86.4</ele>
        <time>2020-06-18T14:51:36Z</time>
      </trkpt>
      <trkpt lat="50.03364" lon="1.40349">
        <ele>86.4</ele>
        <time>2020-06-18T14:51:37Z</time>
      </trkpt>
      <trkpt lat="50.03368" lon="1.40357">
        <ele>86.3</ele>
        <time>2020-06-18T14:51:38Z</time>
      </trkpt>
      <trkpt lat="50.03373" lon="1.40365">
        <ele>86.3</ele>
        <time>2020-06-18T14:51:39Z</time>
      </trkpt>
      <trkpt lat="50.03377" lon="1.40374">
        <ele>86.2</ele>
        <time>2020-06-18T14:51:40Z</time>
      </trkpt>
      <trkpt lat="50.03381" lon="1.40383">
        <ele>86.1</ele>
        <time>2020-06-18T14:51:41Z</time>
      </trkpt>
      <trkpt lat="50.03385" lon="1.40391">
        <ele>86.1</ele>
        <time>2020-06-18T14:51:42Z</time>
      </trkpt>
      <trkpt lat="50.03389" lon="1.404">
        <ele>86</ele>
        <time>2020-06-18T14:51:43Z</time>
      </trkpt>
      <trkpt lat="50.03394" lon="1.40409">
        <ele>85.9</ele>
        <time>2020-06-18T14:51:44Z</time>
      </trkpt>
      <trkpt lat="50.03398" lon="1.40418">
        <ele>85.8</ele>
        <time>2020-06-18T14:51:45Z</time>
      </trkpt>
      <trkpt lat="50.03402" lon="1.40427">
        <ele>85.7</ele>
        <time>2020-06-18T14:51:46Z</time>
      </trkpt>
      <trkpt lat="50.03406" lon="1.40435">
        <ele>85.7</ele>
        <time>2020-06-18T14:51:47Z</time>
      </trkpt>
      <trkpt lat="50.0341" lon="1.40442">
        <ele>85.6</ele>
        <time>2020-06-18T14:51:48Z</time>
      </trkpt>
      <trkpt lat="50.03414" lon="1.40451">
        <ele>85.5</ele>
        <time>2020-06-18T14:51:49Z</time>
      </trkpt>
      <trkpt lat="50.03419" lon="1.40459">
        <ele>85.5</ele>
        <time>2020-06-18T14:51:50Z</time>
      </trkpt>
      <trkpt lat="50.03423" lon="1.40467">
        <ele>85.4</ele>
        <time>2020-06-18T14:51:51Z</time>
      </trkpt>
      <trkpt lat="50.03428" lon="1.40476">
        <ele>85.4</ele>
        <time>2020-06-18T14:51:52Z</time>
      </trkpt>
      <trkpt lat="50.03431" lon="1.40484">
        <ele>85.3</ele>
        <time>2020-06-18T14:51:53Z</time>
      </trkpt>
      <trkpt lat="50.03435" lon="1.40492">
        <ele>85.3</ele>
        <time>2020-06-18T14:51:54Z</time>
      </trkpt>
      <trkpt lat="50.03439" lon="1.405">
        <ele>85.2</ele>
        <time>2020-06-18T14:51:55Z</time>
      </trkpt>
      <trkpt lat="50.03443" lon="1.40508">
        <ele>85.2</ele>
        <time>2020-06-18T14:51:56Z</time>
      </trkpt>
      <trkpt lat="50.03447" lon="1.40516">
        <ele>85.1</ele>
        <time>2020-06-18T14:51:57Z</time>
      </trkpt>
      <trkpt lat="50.0345" lon="1.40523">
        <ele>85.1</ele>
        <time>2020-06-18T14:51:58Z</time>
      </trkpt>
      <trkpt lat="50.03454" lon="1.40531">
        <ele>85</ele>
        <time>2020-06-18T14:51:59Z</time>
      </trkpt>
      <trkpt lat="50.03458" lon="1.40538">
        <ele>85</ele>
        <time>2020-06-18T14:52:00Z</time>
      </trkpt>
      <trkpt lat="50.03461" lon="1.40545">
        <ele>84.9</ele>
        <time>2020-06-18T14:52:01Z</time>
      </trkpt>
      <trkpt lat="50.03465" lon="1.40553">
        <ele>84.9</ele>
        <time>2020-06-18T14:52:02Z</time>
      </trkpt>
      <trkpt lat="50.03468" lon="1.4056">
        <ele>84.8</ele>
        <time>2020-06-18T14:52:03Z</time>
      </trkpt>
      <trkpt lat="50.03472" lon="1.40567">
        <ele>84.8</ele>
        <time>2020-06-18T14:52:04Z</time>
      </trkpt>
      <trkpt lat="50.03475" lon="1.40573">
        <ele>84.7</ele>
        <time>2020-06-18T14:52:05Z</time>
      </trkpt>
      <trkpt lat="50.03479" lon="1.40579">
        <ele>84.7</ele>
        <time>2020-06-18T14:52:06Z</time>
      </trkpt>
      <trkpt lat="50.03482" lon="1.40586">
        <ele>84.7</ele>
        <time>2020-06-18T14:52:07Z</time>
      </trkpt>
      <trkpt lat="50.03485" lon="1.40591">
        <ele>84.7</ele>
        <time>2020-06-18T14:52:08Z</time>
      </trkpt>
      <trkpt lat="50.03488" lon="1.40597">
        <ele>84.7</ele>
        <time>2020-06-18T14:52:09Z</time>
      </trkpt>
      <trkpt lat="50.03491" lon="1.40604">
        <ele>84.7</ele>
        <time>2020-06-18T14:52:10Z</time>
      </trkpt>
      <trkpt lat="50.03494" lon="1.40609">
        <ele>84.7</ele>
        <time>2020-06-18T14:52:11Z</time>
      </trkpt>
      <trkpt lat="50.03496" lon="1.40615">
        <ele>84.7</ele>
        <time>2020-06-18T14:52:12Z</time>
      </trkpt>
      <trkpt lat="50.03499" lon="1.4062">
        <ele>84.7</ele>
        <time>2020-06-18T14:52:13Z</time>
      </trkpt>
      <trkpt lat="50.035" lon="1.40623">
        <ele>84.7</ele>
        <time>2020-06-18T14:52:14Z</time>
      </trkpt>
      <trkpt lat="50.03501" lon="1.40623">
        <ele>84.7</ele>
        <time>2020-06-18T14:52:15Z</time>
      </trkpt>
      <trkpt lat="50.03501" lon="1.40623">
        <ele>84.7</ele>
        <time>2020-06-18T14:52:16Z</time>
      </trkpt>
      <trkpt lat="50.03501" lon="1.40622">
        <ele>84.7</ele>
        <time>2020-06-18T14:52:17Z</time>
      </trkpt>
      <trkpt lat="50.03501" lon="1.40621">
        <ele>84.7</ele>
        <time>2020-06-18T14:52:18Z</time>
      </trkpt>
      <trkpt lat="50.03501" lon="1.40621">
        <ele>84.7</ele>
        <time>2020-06-18T14:52:19Z</time>
      </trkpt>
      <trkpt lat="50.03502" lon="1.40621">
        <ele>84.7</ele>
        <time>2020-06-18T14:52:20Z</time>
      </trkpt>
      <trkpt lat="50.03502" lon="1.4062">
        <ele>84.7</ele>
        <time>2020-06-18T14:52:21Z</time>
      </trkpt>
      <trkpt lat="50.03503" lon="1.4062">
        <ele>84.7</ele>
        <time>2020-06-18T14:52:22Z</time>
      </trkpt>
      <trkpt lat="50.03503" lon="1.4062">
        <ele>84.7</ele>
        <time>2020-06-18T14:52:23Z</time>
      </trkpt>
      <trkpt lat="50.03504" lon="1.40621">
        <ele>84.7</ele>
        <time>2020-06-18T14:52:24Z</time>
      </trkpt>
      <trkpt lat="50.03504" lon="1.40621">
        <ele>84.7</ele>
        <time>2020-06-18T14:52:25Z</time>
      </trkpt>
      <trkpt lat="50.03505" lon="1.40622">
        <ele>84.7</ele>
        <time>2020-06-18T14:52:26Z</time>
      </trkpt>
      <trkpt lat="50.03506" lon="1.40622">
        <ele>84.7</ele>
        <time>2020-06-18T14:52:27Z</time>
      </trkpt>
      <trkpt lat="50.03506" lon="1.40623">
        <ele>84.7</ele>
        <time>2020-06-18T14:52:28Z</time>
      </trkpt>
      <trkpt lat="50.03507" lon="1.40623">
        <ele>84.7</ele>
        <time>2020-06-18T14:52:29Z</time>
      </trkpt>
      <trkpt lat="50.03507" lon="1.40624">
        <ele>84.7</ele>
        <time>2020-06-18T14:52:30Z</time>
      </trkpt>
      <trkpt lat="50.03508" lon="1.40624">
        <ele>84.7</ele>
        <time>2020-06-18T14:52:31Z</time>
      </trkpt>
      <trkpt lat="50.03508" lon="1.40625">
        <ele>84.7</ele>
        <time>2020-06-18T14:52:32Z</time>
      </trkpt>
      <trkpt lat="50.03509" lon="1.40625">
        <ele>84.7</ele>
        <time>2020-06-18T14:52:33Z</time>
      </trkpt>
      <trkpt lat="50.0351" lon="1.40626">
        <ele>84.7</ele>
        <time>2020-06-18T14:52:53Z</time>
      </trkpt>
      <trkpt lat="50.0351" lon="1.40626">
        <ele>84.7</ele>
        <time>2020-06-18T14:52:54Z</time>
      </trkpt>
      <trkpt lat="50.03512" lon="1.4063">
        <ele>84.7</ele>
        <time>2020-06-18T14:52:55Z</time>
      </trkpt>
      <trkpt lat="50.03514" lon="1.40634">
        <ele>84.7</ele>
        <time>2020-06-18T14:52:56Z</time>
      </trkpt>
      <trkpt lat="50.03517" lon="1.40639">
        <ele>84.7</ele>
        <time>2020-06-18T14:52:57Z</time>
      </trkpt>
      <trkpt lat="50.03519" lon="1.40644">
        <ele>84.7</ele>
        <time>2020-06-18T14:52:58Z</time>
      </trkpt>
      <trkpt lat="50.03522" lon="1.40649">
        <ele>84.6</ele>
        <time>2020-06-18T14:52:59Z</time>
      </trkpt>
      <trkpt lat="50.03524" lon="1.40655">
        <ele>84.6</ele>
        <time>2020-06-18T14:53:00Z</time>
      </trkpt>
      <trkpt lat="50.03527" lon="1.40661">
        <ele>84.6</ele>
        <time>2020-06-18T14:53:01Z</time>
      </trkpt>
      <trkpt lat="50.0353" lon="1.40667">
        <ele>84.6</ele>
        <time>2020-06-18T14:53:02Z</time>
      </trkpt>
      <trkpt lat="50.03533" lon="1.40673">
        <ele>84.6</ele>
        <time>2020-06-18T14:53:03Z</time>
      </trkpt>
      <trkpt lat="50.03537" lon="1.40679">
        <ele>84.5</ele>
        <time>2020-06-18T14:53:04Z</time>
      </trkpt>
      <trkpt lat="50.0354" lon="1.40685">
        <ele>84.5</ele>
        <time>2020-06-18T14:53:05Z</time>
      </trkpt>
      <trkpt lat="50.03544" lon="1.40692">
        <ele>84.5</ele>
        <time>2020-06-18T14:53:06Z</time>
      </trkpt>
      <trkpt lat="50.03547" lon="1.40699">
        <ele>84.5</ele>
        <time>2020-06-18T14:53:07Z</time>
      </trkpt>
      <trkpt lat="50.03551" lon="1.40706">
        <ele>84.5</ele>
        <time>2020-06-18T14:53:08Z</time>
      </trkpt>
      <trkpt lat="50.03554" lon="1.40714">
        <ele>84.5</ele>
        <time>2020-06-18T14:53:09Z</time>
      </trkpt>
      <trkpt lat="50.03557" lon="1.40721">
        <ele>84.5</ele>
        <time>2020-06-18T14:53:10Z</time>
      </trkpt>
      <trkpt lat="50.03561" lon="1.40728">
        <ele>84.5</ele>
        <time>2020-06-18T14:53:11Z</time>
      </trkpt>
      <trkpt lat="50.03564" lon="1.40735">
        <ele>84.4</ele>
        <time>2020-06-18T14:53:12Z</time>
      </trkpt>
      <trkpt lat="50.03567" lon="1.40742">
        <ele>84.4</ele>
        <time>2020-06-18T14:53:13Z</time>
      </trkpt>
      <trkpt lat="50.0357" lon="1.4075">
        <ele>84.4</ele>
        <time>2020-06-18T14:53:14Z</time>
      </trkpt>
      <trkpt lat="50.03573" lon="1.40757">
        <ele>84.4</ele>
        <time>2020-06-18T14:53:15Z</time>
      </trkpt>
      <trkpt lat="50.03576" lon="1.40764">
        <ele>84.3</ele>
        <time>2020-06-18T14:53:16Z</time>
      </trkpt>
      <trkpt lat="50.0358" lon="1.40771">
        <ele>84.2</ele>
        <time>2020-06-18T14:53:17Z</time>
      </trkpt>
      <trkpt lat="50.03583" lon="1.40778">
        <ele>84.1</ele>
        <time>2020-06-18T14:53:18Z</time>
      </trkpt>
      <trkpt lat="50.03586" lon="1.40786">
        <ele>84</ele>
        <time>2020-06-18T14:53:19Z</time>
      </trkpt>
      <trkpt lat="50.0359" lon="1.40793">
        <ele>83.9</ele>
        <time>2020-06-18T14:53:20Z</time>
      </trkpt>
      <trkpt lat="50.03594" lon="1.40801">
        <ele>83.7</ele>
        <time>2020-06-18T14:53:21Z</time>
      </trkpt>
      <trkpt lat="50.03598" lon="1.40809">
        <ele>83.6</ele>
        <time>2020-06-18T14:53:22Z</time>
      </trkpt>
      <trkpt lat="50.03602" lon="1.40818">
        <ele>83.5</ele>
        <time>2020-06-18T14:53:23Z</time>
      </trkpt>
      <trkpt lat="50.03606" lon="1.40826">
        <ele>83.4</ele>
        <time>2020-06-18T14:53:24Z</time>
      </trkpt>
      <trkpt lat="50.0361" lon="1.40834">
        <ele>83.3</ele>
        <time>2020-06-18T14:53:25Z</time>
      </trkpt>
      <trkpt lat="50.03614" lon="1.40842">
        <ele>83.1</ele>
        <time>2020-06-18T14:53:26Z</time>
      </trkpt>
      <trkpt lat="50.03618" lon="1.40849">
        <ele>83</ele>
        <time>2020-06-18T14:53:27Z</time>
      </trkpt>
      <trkpt lat="50.03622" lon="1.40857">
        <ele>82.9</ele>
        <time>2020-06-18T14:53:28Z</time>
      </trkpt>
      <trkpt lat="50.03626" lon="1.40865">
        <ele>82.8</ele>
        <time>2020-06-18T14:53:29Z</time>
      </trkpt>
      <trkpt lat="50.03629" lon="1.40873">
        <ele>82.7</ele>
        <time>2020-06-18T14:53:30Z</time>
      </trkpt>
      <trkpt lat="50.03633" lon="1.40881">
        <ele>82.6</ele>
        <time>2020-06-18T14:53:31Z</time>
      </trkpt>
      <trkpt lat="50.03637" lon="1.40888">
        <ele>82.4</ele>
        <time>2020-06-18T14:53:32Z</time>
      </trkpt>
      <trkpt lat="50.03641" lon="1.40895">
        <ele>82.3</ele>
        <time>2020-06-18T14:53:33Z</time>
      </trkpt>
      <trkpt lat="50.03645" lon="1.40903">
        <ele>82.2</ele>
        <time>2020-06-18T14:53:34Z</time>
      </trkpt>
      <trkpt lat="50.03649" lon="1.4091">
        <ele>82</ele>
        <time>2020-06-18T14:53:35Z</time>
      </trkpt>
      <trkpt lat="50.03652" lon="1.40917">
        <ele>81.9</ele>
        <time>2020-06-18T14:53:36Z</time>
      </trkpt>
      <trkpt lat="50.03655" lon="1.40924">
        <ele>81.7</ele>
        <time>2020-06-18T14:53:37Z</time>
      </trkpt>
      <trkpt lat="50.03658" lon="1.4093">
        <ele>81.6</ele>
        <time>2020-06-18T14:53:38Z</time>
      </trkpt>
      <trkpt lat="50.03661" lon="1.40937">
        <ele>81.5</ele>
        <time>2020-06-18T14:53:39Z</time>
      </trkpt>
      <trkpt lat="50.03665" lon="1.40944">
        <ele>81.4</ele>
        <time>2020-06-18T14:53:40Z</time>
      </trkpt>
      <trkpt lat="50.03668" lon="1.40951">
        <ele>81.3</ele>
        <time>2020-06-18T14:53:41Z</time>
      </trkpt>
      <trkpt lat="50.03672" lon="1.40958">
        <ele>81.1</ele>
        <time>2020-06-18T14:53:42Z</time>
      </trkpt>
      <trkpt lat="50.03675" lon="1.40965">
        <ele>81</ele>
        <time>2020-06-18T14:53:43Z</time>
      </trkpt>
      <trkpt lat="50.03679" lon="1.40972">
        <ele>80.9</ele>
        <time>2020-06-18T14:53:44Z</time>
      </trkpt>
      <trkpt lat="50.03683" lon="1.40979">
        <ele>80.8</ele>
        <time>2020-06-18T14:53:45Z</time>
      </trkpt>
      <trkpt lat="50.03687" lon="1.40987">
        <ele>80.6</ele>
        <time>2020-06-18T14:53:46Z</time>
      </trkpt>
      <trkpt lat="50.03691" lon="1.40994">
        <ele>80.5</ele>
        <time>2020-06-18T14:53:47Z</time>
      </trkpt>
      <trkpt lat="50.03695" lon="1.41002">
        <ele>80.4</ele>
        <time>2020-06-18T14:53:48Z</time>
      </trkpt>
      <trkpt lat="50.037" lon="1.4101">
        <ele>80.2</ele>
        <time>2020-06-18T14:53:49Z</time>
      </trkpt>
      <trkpt lat="50.03704" lon="1.41018">
        <ele>80</ele>
        <time>2020-06-18T14:53:50Z</time>
      </trkpt>
      <trkpt lat="50.03708" lon="1.41026">
        <ele>79.8</ele>
        <time>2020-06-18T14:53:51Z</time>
      </trkpt>
      <trkpt lat="50.03713" lon="1.41035">
        <ele>79.7</ele>
        <time>2020-06-18T14:53:52Z</time>
      </trkpt>
      <trkpt lat="50.03717" lon="1.41043">
        <ele>79.5</ele>
        <time>2020-06-18T14:53:53Z</time>
      </trkpt>
      <trkpt lat="50.03721" lon="1.41052">
        <ele>79.3</ele>
        <time>2020-06-18T14:53:54Z</time>
      </trkpt>
      <trkpt lat="50.03726" lon="1.41061">
        <ele>79.1</ele>
        <time>2020-06-18T14:53:55Z</time>
      </trkpt>
      <trkpt lat="50.0373" lon="1.4107">
        <ele>78.8</ele>
        <time>2020-06-18T14:53:56Z</time>
      </trkpt>
      <trkpt lat="50.03735" lon="1.41079">
        <ele>78.6</ele>
        <time>2020-06-18T14:53:57Z</time>
      </trkpt>
      <trkpt lat="50.03739" lon="1.41087">
        <ele>78.3</ele>
        <time>2020-06-18T14:53:58Z</time>
      </trkpt>
      <trkpt lat="50.03744" lon="1.41097">
        <ele>78.1</ele>
        <time>2020-06-18T14:53:59Z</time>
      </trkpt>
      <trkpt lat="50.03749" lon="1.41106">
        <ele>77.8</ele>
        <time>2020-06-18T14:54:00Z</time>
      </trkpt>
      <trkpt lat="50.03753" lon="1.41115">
        <ele>77.5</ele>
        <time>2020-06-18T14:54:01Z</time>
      </trkpt>
      <trkpt lat="50.03758" lon="1.41123">
        <ele>76.9</ele>
        <time>2020-06-18T14:54:02Z</time>
      </trkpt>
      <trkpt lat="50.03763" lon="1.41132">
        <ele>76.5</ele>
        <time>2020-06-18T14:54:03Z</time>
      </trkpt>
      <trkpt lat="50.03768" lon="1.41142">
        <ele>76.1</ele>
        <time>2020-06-18T14:54:04Z</time>
      </trkpt>
      <trkpt lat="50.03773" lon="1.41151">
        <ele>75.7</ele>
        <time>2020-06-18T14:54:05Z</time>
      </trkpt>
      <trkpt lat="50.03779" lon="1.4116">
        <ele>75.2</ele>
        <time>2020-06-18T14:54:06Z</time>
      </trkpt>
      <trkpt lat="50.03785" lon="1.41169">
        <ele>74.7</ele>
        <time>2020-06-18T14:54:07Z</time>
      </trkpt>
      <trkpt lat="50.0379" lon="1.41178">
        <ele>74.2</ele>
        <time>2020-06-18T14:54:08Z</time>
      </trkpt>
      <trkpt lat="50.03796" lon="1.41188">
        <ele>73.6</ele>
        <time>2020-06-18T14:54:09Z</time>
      </trkpt>
      <trkpt lat="50.03803" lon="1.41198">
        <ele>72.9</ele>
        <time>2020-06-18T14:54:10Z</time>
      </trkpt>
      <trkpt lat="50.03809" lon="1.41208">
        <ele>72.3</ele>
        <time>2020-06-18T14:54:11Z</time>
      </trkpt>
      <trkpt lat="50.03815" lon="1.41217">
        <ele>71.6</ele>
        <time>2020-06-18T14:54:12Z</time>
      </trkpt>
      <trkpt lat="50.03821" lon="1.41227">
        <ele>71</ele>
        <time>2020-06-18T14:54:13Z</time>
      </trkpt>
      <trkpt lat="50.03827" lon="1.41237">
        <ele>70.3</ele>
        <time>2020-06-18T14:54:14Z</time>
      </trkpt>
      <trkpt lat="50.03834" lon="1.41247">
        <ele>69.6</ele>
        <time>2020-06-18T14:54:15Z</time>
      </trkpt>
      <trkpt lat="50.0384" lon="1.41258">
        <ele>68.9</ele>
        <time>2020-06-18T14:54:16Z</time>
      </trkpt>
      <trkpt lat="50.03847" lon="1.41269">
        <ele>68.2</ele>
        <time>2020-06-18T14:54:17Z</time>
      </trkpt>
      <trkpt lat="50.03853" lon="1.41279">
        <ele>67.4</ele>
        <time>2020-06-18T14:54:18Z</time>
      </trkpt>
      <trkpt lat="50.0386" lon="1.4129">
        <ele>66.8</ele>
        <time>2020-06-18T14:54:19Z</time>
      </trkpt>
      <trkpt lat="50.03867" lon="1.41301">
        <ele>66.1</ele>
        <time>2020-06-18T14:54:20Z</time>
      </trkpt>
      <trkpt lat="50.03874" lon="1.41312">
        <ele>65.4</ele>
        <time>2020-06-18T14:54:21Z</time>
      </trkpt>
      <trkpt lat="50.0388" lon="1.41323">
        <ele>64.7</ele>
        <time>2020-06-18T14:54:22Z</time>
      </trkpt>
      <trkpt lat="50.03887" lon="1.41334">
        <ele>64</ele>
        <time>2020-06-18T14:54:23Z</time>
      </trkpt>
      <trkpt lat="50.03894" lon="1.41345">
        <ele>63.3</ele>
        <time>2020-06-18T14:54:24Z</time>
      </trkpt>
      <trkpt lat="50.03901" lon="1.41356">
        <ele>62.5</ele>
        <time>2020-06-18T14:54:25Z</time>
      </trkpt>
      <trkpt lat="50.03907" lon="1.41368">
        <ele>61.8</ele>
        <time>2020-06-18T14:54:26Z</time>
      </trkpt>
      <trkpt lat="50.03914" lon="1.41379">
        <ele>61.1</ele>
        <time>2020-06-18T14:54:27Z</time>
      </trkpt>
      <trkpt lat="50.03921" lon="1.41389">
        <ele>60.5</ele>
        <time>2020-06-18T14:54:28Z</time>
      </trkpt>
      <trkpt lat="50.03927" lon="1.414">
        <ele>59.8</ele>
        <time>2020-06-18T14:54:29Z</time>
      </trkpt>
      <trkpt lat="50.03934" lon="1.41411">
        <ele>59.2</ele>
        <time>2020-06-18T14:54:30Z</time>
      </trkpt>
      <trkpt lat="50.0394" lon="1.41422">
        <ele>58.6</ele>
        <time>2020-06-18T14:54:31Z</time>
      </trkpt>
      <trkpt lat="50.03947" lon="1.41432">
        <ele>58</ele>
        <time>2020-06-18T14:54:32Z</time>
      </trkpt>
      <trkpt lat="50.03954" lon="1.41442">
        <ele>57.4</ele>
        <time>2020-06-18T14:54:33Z</time>
      </trkpt>
      <trkpt lat="50.0396" lon="1.41452">
        <ele>56.9</ele>
        <time>2020-06-18T14:54:34Z</time>
      </trkpt>
      <trkpt lat="50.03966" lon="1.41463">
        <ele>56.3</ele>
        <time>2020-06-18T14:54:35Z</time>
      </trkpt>
      <trkpt lat="50.03973" lon="1.41474">
        <ele>55.7</ele>
        <time>2020-06-18T14:54:36Z</time>
      </trkpt>
      <trkpt lat="50.03979" lon="1.41485">
        <ele>55.1</ele>
        <time>2020-06-18T14:54:37Z</time>
      </trkpt>
      <trkpt lat="50.03986" lon="1.41496">
        <ele>54.4</ele>
        <time>2020-06-18T14:54:38Z</time>
      </trkpt>
      <trkpt lat="50.03993" lon="1.41507">
        <ele>53.7</ele>
        <time>2020-06-18T14:54:39Z</time>
      </trkpt>
      <trkpt lat="50.03999" lon="1.41518">
        <ele>53</ele>
        <time>2020-06-18T14:54:40Z</time>
      </trkpt>
      <trkpt lat="50.04006" lon="1.41529">
        <ele>52.4</ele>
        <time>2020-06-18T14:54:41Z</time>
      </trkpt>
      <trkpt lat="50.04013" lon="1.4154">
        <ele>51.8</ele>
        <time>2020-06-18T14:54:42Z</time>
      </trkpt>
      <trkpt lat="50.04019" lon="1.41551">
        <ele>51.2</ele>
        <time>2020-06-18T14:54:43Z</time>
      </trkpt>
      <trkpt lat="50.04026" lon="1.41562">
        <ele>50.6</ele>
        <time>2020-06-18T14:54:44Z</time>
      </trkpt>
      <trkpt lat="50.04033" lon="1.41573">
        <ele>49.9</ele>
        <time>2020-06-18T14:54:45Z</time>
      </trkpt>
      <trkpt lat="50.0404" lon="1.41585">
        <ele>49.3</ele>
        <time>2020-06-18T14:54:46Z</time>
      </trkpt>
      <trkpt lat="50.04047" lon="1.41596">
        <ele>48.6</ele>
        <time>2020-06-18T14:54:47Z</time>
      </trkpt>
      <trkpt lat="50.04053" lon="1.41608">
        <ele>48</ele>
        <time>2020-06-18T14:54:48Z</time>
      </trkpt>
      <trkpt lat="50.04061" lon="1.41619">
        <ele>47.3</ele>
        <time>2020-06-18T14:54:49Z</time>
      </trkpt>
      <trkpt lat="50.04068" lon="1.4163">
        <ele>46.6</ele>
        <time>2020-06-18T14:54:50Z</time>
      </trkpt>
      <trkpt lat="50.04075" lon="1.41641">
        <ele>45.9</ele>
        <time>2020-06-18T14:54:51Z</time>
      </trkpt>
      <trkpt lat="50.04082" lon="1.41652">
        <ele>45.2</ele>
        <time>2020-06-18T14:54:52Z</time>
      </trkpt>
      <trkpt lat="50.04088" lon="1.41663">
        <ele>44.6</ele>
        <time>2020-06-18T14:54:53Z</time>
      </trkpt>
      <trkpt lat="50.04095" lon="1.41674">
        <ele>43.9</ele>
        <time>2020-06-18T14:54:54Z</time>
      </trkpt>
      <trkpt lat="50.04102" lon="1.41684">
        <ele>43.3</ele>
        <time>2020-06-18T14:54:55Z</time>
      </trkpt>
      <trkpt lat="50.04109" lon="1.41694">
        <ele>42.6</ele>
        <time>2020-06-18T14:54:56Z</time>
      </trkpt>
      <trkpt lat="50.04116" lon="1.41704">
        <ele>41.9</ele>
        <time>2020-06-18T14:54:57Z</time>
      </trkpt>
      <trkpt lat="50.04122" lon="1.41716">
        <ele>41.3</ele>
        <time>2020-06-18T14:54:58Z</time>
      </trkpt>
      <trkpt lat="50.04128" lon="1.41727">
        <ele>40.6</ele>
        <time>2020-06-18T14:54:59Z</time>
      </trkpt>
      <trkpt lat="50.04134" lon="1.41737">
        <ele>40</ele>
        <time>2020-06-18T14:55:00Z</time>
      </trkpt>
      <trkpt lat="50.0414" lon="1.41748">
        <ele>39.4</ele>
        <time>2020-06-18T14:55:01Z</time>
      </trkpt>
      <trkpt lat="50.04147" lon="1.41758">
        <ele>38.8</ele>
        <time>2020-06-18T14:55:02Z</time>
      </trkpt>
      <trkpt lat="50.04153" lon="1.41768">
        <ele>38.2</ele>
        <time>2020-06-18T14:55:03Z</time>
      </trkpt>
      <trkpt lat="50.0416" lon="1.41779">
        <ele>37.6</ele>
        <time>2020-06-18T14:55:04Z</time>
      </trkpt>
      <trkpt lat="50.04165" lon="1.41789">
        <ele>37</ele>
        <time>2020-06-18T14:55:05Z</time>
      </trkpt>
      <trkpt lat="50.04171" lon="1.41799">
        <ele>36.4</ele>
        <time>2020-06-18T14:55:06Z</time>
      </trkpt>
      <trkpt lat="50.04177" lon="1.41808">
        <ele>35.8</ele>
        <time>2020-06-18T14:55:07Z</time>
      </trkpt>
      <trkpt lat="50.04182" lon="1.41817">
        <ele>35.3</ele>
        <time>2020-06-18T14:55:08Z</time>
      </trkpt>
      <trkpt lat="50.04188" lon="1.41827">
        <ele>34.7</ele>
        <time>2020-06-18T14:55:09Z</time>
      </trkpt>
      <trkpt lat="50.04194" lon="1.41837">
        <ele>34.1</ele>
        <time>2020-06-18T14:55:10Z</time>
      </trkpt>
      <trkpt lat="50.042" lon="1.41846">
        <ele>33.5</ele>
        <time>2020-06-18T14:55:11Z</time>
      </trkpt>
      <trkpt lat="50.04206" lon="1.41855">
        <ele>33</ele>
        <time>2020-06-18T14:55:12Z</time>
      </trkpt>
      <trkpt lat="50.04211" lon="1.41863">
        <ele>32.4</ele>
        <time>2020-06-18T14:55:13Z</time>
      </trkpt>
      <trkpt lat="50.04217" lon="1.41872">
        <ele>32.4</ele>
        <time>2020-06-18T14:55:14Z</time>
      </trkpt>
      <trkpt lat="50.04223" lon="1.41881">
        <ele>32.3</ele>
        <time>2020-06-18T14:55:15Z</time>
      </trkpt>
      <trkpt lat="50.04229" lon="1.41889">
        <ele>31.4</ele>
        <time>2020-06-18T14:55:16Z</time>
      </trkpt>
      <trkpt lat="50.04236" lon="1.41896">
        <ele>30.7</ele>
        <time>2020-06-18T14:55:17Z</time>
      </trkpt>
      <trkpt lat="50.04242" lon="1.41903">
        <ele>30.1</ele>
        <time>2020-06-18T14:55:18Z</time>
      </trkpt>
      <trkpt lat="50.04249" lon="1.41911">
        <ele>29.5</ele>
        <time>2020-06-18T14:55:19Z</time>
      </trkpt>
      <trkpt lat="50.04256" lon="1.41917">
        <ele>28.8</ele>
        <time>2020-06-18T14:55:20Z</time>
      </trkpt>
      <trkpt lat="50.04263" lon="1.41923">
        <ele>27.7</ele>
        <time>2020-06-18T14:55:21Z</time>
      </trkpt>
      <trkpt lat="50.04269" lon="1.41929">
        <ele>27.3</ele>
        <time>2020-06-18T14:55:22Z</time>
      </trkpt>
      <trkpt lat="50.04275" lon="1.41934">
        <ele>26.9</ele>
        <time>2020-06-18T14:55:23Z</time>
      </trkpt>
      <trkpt lat="50.04281" lon="1.4194">
        <ele>26.6</ele>
        <time>2020-06-18T14:55:24Z</time>
      </trkpt>
      <trkpt lat="50.04287" lon="1.41945">
        <ele>26.2</ele>
        <time>2020-06-18T14:55:25Z</time>
      </trkpt>
      <trkpt lat="50.04292" lon="1.4195">
        <ele>25.9</ele>
        <time>2020-06-18T14:55:26Z</time>
      </trkpt>
      <trkpt lat="50.04298" lon="1.41954">
        <ele>25.6</ele>
        <time>2020-06-18T14:55:27Z</time>
      </trkpt>
      <trkpt lat="50.04303" lon="1.41957">
        <ele>25.4</ele>
        <time>2020-06-18T14:55:28Z</time>
      </trkpt>
      <trkpt lat="50.04307" lon="1.41961">
        <ele>25.1</ele>
        <time>2020-06-18T14:55:29Z</time>
      </trkpt>
      <trkpt lat="50.04311" lon="1.41969">
        <ele>24.8</ele>
        <time>2020-06-18T14:55:30Z</time>
      </trkpt>
      <trkpt lat="50.04316" lon="1.41972">
        <ele>24.6</ele>
        <time>2020-06-18T14:55:31Z</time>
      </trkpt>
      <trkpt lat="50.0432" lon="1.41975">
        <ele>24.4</ele>
        <time>2020-06-18T14:55:32Z</time>
      </trkpt>
      <trkpt lat="50.04323" lon="1.4198">
        <ele>24.3</ele>
        <time>2020-06-18T14:55:33Z</time>
      </trkpt>
      <trkpt lat="50.04326" lon="1.41983">
        <ele>24.2</ele>
        <time>2020-06-18T14:55:34Z</time>
      </trkpt>
      <trkpt lat="50.04328" lon="1.41987">
        <ele>24.2</ele>
        <time>2020-06-18T14:55:35Z</time>
      </trkpt>
      <trkpt lat="50.04331" lon="1.41992">
        <ele>23.6</ele>
        <time>2020-06-18T14:55:36Z</time>
      </trkpt>
      <trkpt lat="50.04332" lon="1.41999">
        <ele>23.4</ele>
        <time>2020-06-18T14:55:37Z</time>
      </trkpt>
      <trkpt lat="50.04335" lon="1.42006">
        <ele>23.3</ele>
        <time>2020-06-18T14:55:38Z</time>
      </trkpt>
      <trkpt lat="50.04337" lon="1.42013">
        <ele>22.6</ele>
        <time>2020-06-18T14:55:39Z</time>
      </trkpt>
      <trkpt lat="50.04339" lon="1.42021">
        <ele>22.3</ele>
        <time>2020-06-18T14:55:40Z</time>
      </trkpt>
      <trkpt lat="50.04341" lon="1.42029">
        <ele>21.9</ele>
        <time>2020-06-18T14:55:41Z</time>
      </trkpt>
      <trkpt lat="50.04343" lon="1.42038">
        <ele>21.5</ele>
        <time>2020-06-18T14:55:42Z</time>
      </trkpt>
      <trkpt lat="50.04345" lon="1.42046">
        <ele>21.1</ele>
        <time>2020-06-18T14:55:43Z</time>
      </trkpt>
      <trkpt lat="50.04347" lon="1.42056">
        <ele>20.7</ele>
        <time>2020-06-18T14:55:44Z</time>
      </trkpt>
      <trkpt lat="50.0435" lon="1.42066">
        <ele>20.3</ele>
        <time>2020-06-18T14:55:45Z</time>
      </trkpt>
      <trkpt lat="50.04353" lon="1.42077">
        <ele>20</ele>
        <time>2020-06-18T14:55:46Z</time>
      </trkpt>
      <trkpt lat="50.04356" lon="1.42088">
        <ele>19.7</ele>
        <time>2020-06-18T14:55:47Z</time>
      </trkpt>
      <trkpt lat="50.04359" lon="1.42099">
        <ele>19.2</ele>
        <time>2020-06-18T14:55:48Z</time>
      </trkpt>
      <trkpt lat="50.04363" lon="1.42111">
        <ele>18.8</ele>
        <time>2020-06-18T14:55:49Z</time>
      </trkpt>
      <trkpt lat="50.04366" lon="1.42123">
        <ele>18.3</ele>
        <time>2020-06-18T14:55:50Z</time>
      </trkpt>
      <trkpt lat="50.0437" lon="1.42135">
        <ele>17.9</ele>
        <time>2020-06-18T14:55:51Z</time>
      </trkpt>
      <trkpt lat="50.04374" lon="1.42146">
        <ele>17.5</ele>
        <time>2020-06-18T14:55:52Z</time>
      </trkpt>
      <trkpt lat="50.04378" lon="1.42158">
        <ele>17.2</ele>
        <time>2020-06-18T14:55:53Z</time>
      </trkpt>
      <trkpt lat="50.04383" lon="1.42169">
        <ele>16.8</ele>
        <time>2020-06-18T14:55:54Z</time>
      </trkpt>
      <trkpt lat="50.04387" lon="1.42181">
        <ele>16.4</ele>
        <time>2020-06-18T14:55:55Z</time>
      </trkpt>
      <trkpt lat="50.04392" lon="1.42193">
        <ele>16</ele>
        <time>2020-06-18T14:55:56Z</time>
      </trkpt>
      <trkpt lat="50.04396" lon="1.42205">
        <ele>15.5</ele>
        <time>2020-06-18T14:55:57Z</time>
      </trkpt>
      <trkpt lat="50.04401" lon="1.42217">
        <ele>15.1</ele>
        <time>2020-06-18T14:55:58Z</time>
      </trkpt>
      <trkpt lat="50.04406" lon="1.42229">
        <ele>14.7</ele>
        <time>2020-06-18T14:55:59Z</time>
      </trkpt>
      <trkpt lat="50.04411" lon="1.42241">
        <ele>14.4</ele>
        <time>2020-06-18T14:56:00Z</time>
      </trkpt>
      <trkpt lat="50.04416" lon="1.42254">
        <ele>14</ele>
        <time>2020-06-18T14:56:01Z</time>
      </trkpt>
      <trkpt lat="50.04421" lon="1.42265">
        <ele>13.6</ele>
        <time>2020-06-18T14:56:02Z</time>
      </trkpt>
      <trkpt lat="50.04426" lon="1.42277">
        <ele>13.3</ele>
        <time>2020-06-18T14:56:03Z</time>
      </trkpt>
      <trkpt lat="50.04431" lon="1.42288">
        <ele>12.9</ele>
        <time>2020-06-18T14:56:04Z</time>
      </trkpt>
      <trkpt lat="50.04435" lon="1.42299">
        <ele>12.7</ele>
        <time>2020-06-18T14:56:05Z</time>
      </trkpt>
      <trkpt lat="50.0444" lon="1.42309">
        <ele>12.5</ele>
        <time>2020-06-18T14:56:06Z</time>
      </trkpt>
      <trkpt lat="50.04445" lon="1.4232">
        <ele>12.3</ele>
        <time>2020-06-18T14:56:07Z</time>
      </trkpt>
      <trkpt lat="50.0445" lon="1.42331">
        <ele>12.1</ele>
        <time>2020-06-18T14:56:08Z</time>
      </trkpt>
      <trkpt lat="50.04454" lon="1.42342">
        <ele>11.8</ele>
        <time>2020-06-18T14:56:09Z</time>
      </trkpt>
      <trkpt lat="50.04459" lon="1.4235">
        <ele>11.8</ele>
        <time>2020-06-18T14:56:10Z</time>
      </trkpt>
      <trkpt lat="50.04465" lon="1.42356">
        <ele>11.7</ele>
        <time>2020-06-18T14:56:11Z</time>
      </trkpt>
      <trkpt lat="50.04472" lon="1.4236">
        <ele>11.7</ele>
        <time>2020-06-18T14:56:12Z</time>
      </trkpt>
      <trkpt lat="50.04479" lon="1.42363">
        <ele>11.6</ele>
        <time>2020-06-18T14:56:13Z</time>
      </trkpt>
      <trkpt lat="50.04486" lon="1.42366">
        <ele>11.5</ele>
        <time>2020-06-18T14:56:14Z</time>
      </trkpt>
      <trkpt lat="50.04494" lon="1.42368">
        <ele>11.5</ele>
        <time>2020-06-18T14:56:15Z</time>
      </trkpt>
      <trkpt lat="50.04501" lon="1.42371">
        <ele>11.5</ele>
        <time>2020-06-18T14:56:16Z</time>
      </trkpt>
      <trkpt lat="50.04509" lon="1.42373">
        <ele>11.4</ele>
        <time>2020-06-18T14:56:17Z</time>
      </trkpt>
      <trkpt lat="50.04516" lon="1.42375">
        <ele>11.3</ele>
        <time>2020-06-18T14:56:18Z</time>
      </trkpt>
      <trkpt lat="50.04524" lon="1.42378">
        <ele>11.3</ele>
        <time>2020-06-18T14:56:19Z</time>
      </trkpt>
      <trkpt lat="50.04532" lon="1.42379">
        <ele>11.2</ele>
        <time>2020-06-18T14:56:20Z</time>
      </trkpt>
      <trkpt lat="50.0454" lon="1.4238">
        <ele>11.1</ele>
        <time>2020-06-18T14:56:21Z</time>
      </trkpt>
      <trkpt lat="50.04548" lon="1.42382">
        <ele>10.9</ele>
        <time>2020-06-18T14:56:22Z</time>
      </trkpt>
      <trkpt lat="50.04556" lon="1.42384">
        <ele>10.8</ele>
        <time>2020-06-18T14:56:23Z</time>
      </trkpt>
      <trkpt lat="50.04564" lon="1.42385">
        <ele>10.7</ele>
        <time>2020-06-18T14:56:24Z</time>
      </trkpt>
      <trkpt lat="50.04572" lon="1.42387">
        <ele>10.6</ele>
        <time>2020-06-18T14:56:25Z</time>
      </trkpt>
      <trkpt lat="50.0458" lon="1.42388">
        <ele>10.6</ele>
        <time>2020-06-18T14:56:26Z</time>
      </trkpt>
      <trkpt lat="50.04587" lon="1.42389">
        <ele>10.5</ele>
        <time>2020-06-18T14:56:27Z</time>
      </trkpt>
      <trkpt lat="50.04595" lon="1.4239">
        <ele>10.5</ele>
        <time>2020-06-18T14:56:28Z</time>
      </trkpt>
      <trkpt lat="50.04602" lon="1.42391">
        <ele>10.4</ele>
        <time>2020-06-18T14:56:29Z</time>
      </trkpt>
      <trkpt lat="50.0461" lon="1.42392">
        <ele>10.3</ele>
        <time>2020-06-18T14:56:30Z</time>
      </trkpt>
      <trkpt lat="50.04617" lon="1.42392">
        <ele>10.3</ele>
        <time>2020-06-18T14:56:31Z</time>
      </trkpt>
      <trkpt lat="50.04623" lon="1.42392">
        <ele>10.3</ele>
        <time>2020-06-18T14:56:32Z</time>
      </trkpt>
      <trkpt lat="50.0463" lon="1.42393">
        <ele>10.3</ele>
        <time>2020-06-18T14:56:33Z</time>
      </trkpt>
      <trkpt lat="50.04637" lon="1.42394">
        <ele>10.3</ele>
        <time>2020-06-18T14:56:34Z</time>
      </trkpt>
      <trkpt lat="50.04643" lon="1.42396">
        <ele>10.3</ele>
        <time>2020-06-18T14:56:35Z</time>
      </trkpt>
      <trkpt lat="50.04649" lon="1.42397">
        <ele>10.3</ele>
        <time>2020-06-18T14:56:36Z</time>
      </trkpt>
      <trkpt lat="50.04653" lon="1.424">
        <ele>10.3</ele>
        <time>2020-06-18T14:56:37Z</time>
      </trkpt>
      <trkpt lat="50.04658" lon="1.424">
        <ele>10.3</ele>
        <time>2020-06-18T14:56:38Z</time>
      </trkpt>
      <trkpt lat="50.04661" lon="1.42402">
        <ele>10.4</ele>
        <time>2020-06-18T14:56:39Z</time>
      </trkpt>
      <trkpt lat="50.04664" lon="1.42402">
        <ele>10.4</ele>
        <time>2020-06-18T14:56:40Z</time>
      </trkpt>
      <trkpt lat="50.04668" lon="1.42403">
        <ele>10.4</ele>
        <time>2020-06-18T14:56:41Z</time>
      </trkpt>
      <trkpt lat="50.04672" lon="1.42403">
        <ele>10.4</ele>
        <time>2020-06-18T14:56:42Z</time>
      </trkpt>
      <trkpt lat="50.04676" lon="1.42404">
        <ele>10.4</ele>
        <time>2020-06-18T14:56:43Z</time>
      </trkpt>
      <trkpt lat="50.0468" lon="1.42406">
        <ele>10.3</ele>
        <time>2020-06-18T14:56:44Z</time>
      </trkpt>
      <trkpt lat="50.04684" lon="1.42407">
        <ele>10.3</ele>
        <time>2020-06-18T14:56:45Z</time>
      </trkpt>
      <trkpt lat="50.04689" lon="1.42409">
        <ele>10.2</ele>
        <time>2020-06-18T14:56:46Z</time>
      </trkpt>
      <trkpt lat="50.04694" lon="1.42408">
        <ele>10.1</ele>
        <time>2020-06-18T14:56:47Z</time>
      </trkpt>
      <trkpt lat="50.047" lon="1.42409">
        <ele>10.2</ele>
        <time>2020-06-18T14:56:48Z</time>
      </trkpt>
      <trkpt lat="50.04707" lon="1.42411">
        <ele>10</ele>
        <time>2020-06-18T14:56:49Z</time>
      </trkpt>
      <trkpt lat="50.04713" lon="1.42413">
        <ele>9.9</ele>
        <time>2020-06-18T14:56:50Z</time>
      </trkpt>
      <trkpt lat="50.0472" lon="1.42417">
        <ele>9.7</ele>
        <time>2020-06-18T14:56:51Z</time>
      </trkpt>
      <trkpt lat="50.04727" lon="1.4242">
        <ele>9.5</ele>
        <time>2020-06-18T14:56:52Z</time>
      </trkpt>
      <trkpt lat="50.04734" lon="1.42422">
        <ele>9.3</ele>
        <time>2020-06-18T14:56:53Z</time>
      </trkpt>
      <trkpt lat="50.04741" lon="1.42422">
        <ele>9.1</ele>
        <time>2020-06-18T14:56:54Z</time>
      </trkpt>
      <trkpt lat="50.04748" lon="1.42423">
        <ele>8.9</ele>
        <time>2020-06-18T14:56:55Z</time>
      </trkpt>
      <trkpt lat="50.04755" lon="1.42422">
        <ele>8.7</ele>
        <time>2020-06-18T14:56:56Z</time>
      </trkpt>
      <trkpt lat="50.04762" lon="1.42422">
        <ele>8.4</ele>
        <time>2020-06-18T14:56:57Z</time>
      </trkpt>
      <trkpt lat="50.04769" lon="1.42423">
        <ele>8.2</ele>
        <time>2020-06-18T14:56:58Z</time>
      </trkpt>
      <trkpt lat="50.04776" lon="1.42427">
        <ele>7.9</ele>
        <time>2020-06-18T14:56:59Z</time>
      </trkpt>
      <trkpt lat="50.04783" lon="1.42428">
        <ele>7.8</ele>
        <time>2020-06-18T14:57:00Z</time>
      </trkpt>
      <trkpt lat="50.0479" lon="1.4243">
        <ele>7.6</ele>
        <time>2020-06-18T14:57:01Z</time>
      </trkpt>
      <trkpt lat="50.04796" lon="1.42431">
        <ele>7.5</ele>
        <time>2020-06-18T14:57:02Z</time>
      </trkpt>
      <trkpt lat="50.04802" lon="1.42433">
        <ele>7.3</ele>
        <time>2020-06-18T14:57:03Z</time>
      </trkpt>
      <trkpt lat="50.04808" lon="1.42436">
        <ele>7.3</ele>
        <time>2020-06-18T14:57:04Z</time>
      </trkpt>
      <trkpt lat="50.04814" lon="1.42439">
        <ele>7.2</ele>
        <time>2020-06-18T14:57:05Z</time>
      </trkpt>
      <trkpt lat="50.04819" lon="1.42442">
        <ele>7.2</ele>
        <time>2020-06-18T14:57:06Z</time>
      </trkpt>
      <trkpt lat="50.04824" lon="1.42445">
        <ele>7.1</ele>
        <time>2020-06-18T14:57:07Z</time>
      </trkpt>
      <trkpt lat="50.04828" lon="1.42443">
        <ele>7</ele>
        <time>2020-06-18T14:57:08Z</time>
      </trkpt>
      <trkpt lat="50.04833" lon="1.42443">
        <ele>7</ele>
        <time>2020-06-18T14:57:09Z</time>
      </trkpt>
      <trkpt lat="50.04839" lon="1.42443">
        <ele>7</ele>
        <time>2020-06-18T14:57:10Z</time>
      </trkpt>
      <trkpt lat="50.04844" lon="1.42444">
        <ele>6.9</ele>
        <time>2020-06-18T14:57:11Z</time>
      </trkpt>
      <trkpt lat="50.04849" lon="1.42445">
        <ele>6.9</ele>
        <time>2020-06-18T14:57:12Z</time>
      </trkpt>
      <trkpt lat="50.04854" lon="1.42447">
        <ele>6.9</ele>
        <time>2020-06-18T14:57:13Z</time>
      </trkpt>
      <trkpt lat="50.04858" lon="1.42448">
        <ele>6.9</ele>
        <time>2020-06-18T14:57:14Z</time>
      </trkpt>
      <trkpt lat="50.04862" lon="1.4245">
        <ele>6.8</ele>
        <time>2020-06-18T14:57:15Z</time>
      </trkpt>
      <trkpt lat="50.04867" lon="1.42453">
        <ele>6.8</ele>
        <time>2020-06-18T14:57:16Z</time>
      </trkpt>
      <trkpt lat="50.04873" lon="1.42455">
        <ele>6.8</ele>
        <time>2020-06-18T14:57:17Z</time>
      </trkpt>
      <trkpt lat="50.04879" lon="1.42454">
        <ele>6.8</ele>
        <time>2020-06-18T14:57:18Z</time>
      </trkpt>
      <trkpt lat="50.04885" lon="1.42455">
        <ele>6.7</ele>
        <time>2020-06-18T14:57:19Z</time>
      </trkpt>
      <trkpt lat="50.04891" lon="1.42454">
        <ele>6.7</ele>
        <time>2020-06-18T14:57:20Z</time>
      </trkpt>
      <trkpt lat="50.04897" lon="1.42455">
        <ele>6.6</ele>
        <time>2020-06-18T14:57:21Z</time>
      </trkpt>
      <trkpt lat="50.04904" lon="1.42454">
        <ele>6.6</ele>
        <time>2020-06-18T14:57:22Z</time>
      </trkpt>
      <trkpt lat="50.04911" lon="1.42455">
        <ele>6.5</ele>
        <time>2020-06-18T14:57:23Z</time>
      </trkpt>
      <trkpt lat="50.04918" lon="1.42455">
        <ele>6.4</ele>
        <time>2020-06-18T14:57:24Z</time>
      </trkpt>
      <trkpt lat="50.04924" lon="1.42455">
        <ele>6.4</ele>
        <time>2020-06-18T14:57:25Z</time>
      </trkpt>
      <trkpt lat="50.04931" lon="1.42454">
        <ele>6.3</ele>
        <time>2020-06-18T14:57:26Z</time>
      </trkpt>
      <trkpt lat="50.04937" lon="1.42453">
        <ele>6.3</ele>
        <time>2020-06-18T14:57:27Z</time>
      </trkpt>
      <trkpt lat="50.04943" lon="1.4245">
        <ele>6.3</ele>
        <time>2020-06-18T14:57:28Z</time>
      </trkpt>
      <trkpt lat="50.04949" lon="1.42448">
        <ele>6.3</ele>
        <time>2020-06-18T14:57:29Z</time>
      </trkpt>
      <trkpt lat="50.04958" lon="1.42455">
        <ele>6.3</ele>
        <time>2020-06-18T14:57:30Z</time>
      </trkpt>
      <trkpt lat="50.04964" lon="1.42452">
        <ele>6.4</ele>
        <time>2020-06-18T14:57:31Z</time>
      </trkpt>
      <trkpt lat="50.04968" lon="1.42444">
        <ele>6.4</ele>
        <time>2020-06-18T14:57:32Z</time>
      </trkpt>
      <trkpt lat="50.04973" lon="1.42437">
        <ele>6.4</ele>
        <time>2020-06-18T14:57:33Z</time>
      </trkpt>
      <trkpt lat="50.04978" lon="1.42431">
        <ele>6.4</ele>
        <time>2020-06-18T14:57:34Z</time>
      </trkpt>
      <trkpt lat="50.04984" lon="1.42427">
        <ele>6.4</ele>
        <time>2020-06-18T14:57:35Z</time>
      </trkpt>
      <trkpt lat="50.04989" lon="1.42419">
        <ele>6.4</ele>
        <time>2020-06-18T14:57:36Z</time>
      </trkpt>
      <trkpt lat="50.04995" lon="1.42413">
        <ele>6.4</ele>
        <time>2020-06-18T14:57:37Z</time>
      </trkpt>
      <trkpt lat="50.05001" lon="1.42407">
        <ele>6.4</ele>
        <time>2020-06-18T14:57:38Z</time>
      </trkpt>
      <trkpt lat="50.05006" lon="1.424">
        <ele>6.4</ele>
        <time>2020-06-18T14:57:39Z</time>
      </trkpt>
      <trkpt lat="50.05011" lon="1.42392">
        <ele>6.4</ele>
        <time>2020-06-18T14:57:40Z</time>
      </trkpt>
      <trkpt lat="50.05017" lon="1.42386">
        <ele>6.4</ele>
        <time>2020-06-18T14:57:41Z</time>
      </trkpt>
      <trkpt lat="50.05021" lon="1.42379">
        <ele>6.4</ele>
        <time>2020-06-18T14:57:42Z</time>
      </trkpt>
      <trkpt lat="50.05026" lon="1.42372">
        <ele>6.4</ele>
        <time>2020-06-18T14:57:43Z</time>
      </trkpt>
      <trkpt lat="50.05032" lon="1.42368">
        <ele>6.4</ele>
        <time>2020-06-18T14:57:44Z</time>
      </trkpt>
      <trkpt lat="50.05038" lon="1.42364">
        <ele>6.4</ele>
        <time>2020-06-18T14:57:45Z</time>
      </trkpt>
      <trkpt lat="50.05044" lon="1.42358">
        <ele>6.5</ele>
        <time>2020-06-18T14:57:46Z</time>
      </trkpt>
      <trkpt lat="50.05049" lon="1.42353">
        <ele>6.5</ele>
        <time>2020-06-18T14:57:47Z</time>
      </trkpt>
      <trkpt lat="50.05054" lon="1.42347">
        <ele>6.5</ele>
        <time>2020-06-18T14:57:48Z</time>
      </trkpt>
      <trkpt lat="50.0506" lon="1.42342">
        <ele>6.6</ele>
        <time>2020-06-18T14:57:49Z</time>
      </trkpt>
      <trkpt lat="50.05065" lon="1.42338">
        <ele>6.6</ele>
        <time>2020-06-18T14:57:50Z</time>
      </trkpt>
      <trkpt lat="50.0507" lon="1.42333">
        <ele>6.7</ele>
        <time>2020-06-18T14:57:51Z</time>
      </trkpt>
      <trkpt lat="50.05075" lon="1.42329">
        <ele>6.7</ele>
        <time>2020-06-18T14:57:52Z</time>
      </trkpt>
      <trkpt lat="50.05079" lon="1.42323">
        <ele>6.6</ele>
        <time>2020-06-18T14:57:53Z</time>
      </trkpt>
      <trkpt lat="50.05084" lon="1.42316">
        <ele>6.6</ele>
        <time>2020-06-18T14:57:54Z</time>
      </trkpt>
      <trkpt lat="50.05088" lon="1.42311">
        <ele>6.6</ele>
        <time>2020-06-18T14:57:55Z</time>
      </trkpt>
      <trkpt lat="50.05092" lon="1.42305">
        <ele>6.6</ele>
        <time>2020-06-18T14:57:56Z</time>
      </trkpt>
      <trkpt lat="50.05097" lon="1.42301">
        <ele>6.6</ele>
        <time>2020-06-18T14:57:57Z</time>
      </trkpt>
      <trkpt lat="50.05102" lon="1.42295">
        <ele>6.6</ele>
        <time>2020-06-18T14:57:58Z</time>
      </trkpt>
      <trkpt lat="50.05107" lon="1.4229">
        <ele>6.6</ele>
        <time>2020-06-18T14:57:59Z</time>
      </trkpt>
      <trkpt lat="50.05111" lon="1.42285">
        <ele>6.6</ele>
        <time>2020-06-18T14:58:00Z</time>
      </trkpt>
      <trkpt lat="50.05115" lon="1.42279">
        <ele>6.5</ele>
        <time>2020-06-18T14:58:01Z</time>
      </trkpt>
      <trkpt lat="50.05118" lon="1.42274">
        <ele>6.5</ele>
        <time>2020-06-18T14:58:02Z</time>
      </trkpt>
      <trkpt lat="50.05122" lon="1.42268">
        <ele>6.5</ele>
        <time>2020-06-18T14:58:03Z</time>
      </trkpt>
      <trkpt lat="50.05125" lon="1.42261">
        <ele>6.5</ele>
        <time>2020-06-18T14:58:04Z</time>
      </trkpt>
      <trkpt lat="50.05129" lon="1.42256">
        <ele>6.5</ele>
        <time>2020-06-18T14:58:05Z</time>
      </trkpt>
      <trkpt lat="50.05134" lon="1.4225">
        <ele>6.5</ele>
        <time>2020-06-18T14:58:06Z</time>
      </trkpt>
      <trkpt lat="50.05138" lon="1.42245">
        <ele>6.5</ele>
        <time>2020-06-18T14:58:07Z</time>
      </trkpt>
      <trkpt lat="50.05144" lon="1.42241">
        <ele>6.5</ele>
        <time>2020-06-18T14:58:08Z</time>
      </trkpt>
      <trkpt lat="50.05149" lon="1.42237">
        <ele>6.5</ele>
        <time>2020-06-18T14:58:09Z</time>
      </trkpt>
      <trkpt lat="50.05154" lon="1.42234">
        <ele>6.5</ele>
        <time>2020-06-18T14:58:10Z</time>
      </trkpt>
      <trkpt lat="50.05159" lon="1.42229">
        <ele>6.5</ele>
        <time>2020-06-18T14:58:11Z</time>
      </trkpt>
      <trkpt lat="50.05163" lon="1.42223">
        <ele>6.6</ele>
        <time>2020-06-18T14:58:12Z</time>
      </trkpt>
      <trkpt lat="50.05167" lon="1.42215">
        <ele>6.6</ele>
        <time>2020-06-18T14:58:13Z</time>
      </trkpt>
      <trkpt lat="50.05171" lon="1.42208">
        <ele>6.7</ele>
        <time>2020-06-18T14:58:14Z</time>
      </trkpt>
      <trkpt lat="50.05174" lon="1.42201">
        <ele>6.8</ele>
        <time>2020-06-18T14:58:15Z</time>
      </trkpt>
      <trkpt lat="50.05178" lon="1.42195">
        <ele>6.8</ele>
        <time>2020-06-18T14:58:16Z</time>
      </trkpt>
      <trkpt lat="50.05181" lon="1.42188">
        <ele>6.9</ele>
        <time>2020-06-18T14:58:17Z</time>
      </trkpt>
      <trkpt lat="50.05186" lon="1.42183">
        <ele>6.9</ele>
        <time>2020-06-18T14:58:18Z</time>
      </trkpt>
      <trkpt lat="50.05189" lon="1.42178">
        <ele>7</ele>
        <time>2020-06-18T14:58:19Z</time>
      </trkpt>
      <trkpt lat="50.05193" lon="1.42173">
        <ele>7.1</ele>
        <time>2020-06-18T14:58:20Z</time>
      </trkpt>
      <trkpt lat="50.05196" lon="1.42168">
        <ele>7.2</ele>
        <time>2020-06-18T14:58:21Z</time>
      </trkpt>
      <trkpt lat="50.05201" lon="1.42165">
        <ele>7.3</ele>
        <time>2020-06-18T14:58:22Z</time>
      </trkpt>
      <trkpt lat="50.05205" lon="1.42162">
        <ele>7.4</ele>
        <time>2020-06-18T14:58:23Z</time>
      </trkpt>
      <trkpt lat="50.05208" lon="1.42158">
        <ele>7.6</ele>
        <time>2020-06-18T14:58:24Z</time>
      </trkpt>
      <trkpt lat="50.05212" lon="1.42154">
        <ele>7.7</ele>
        <time>2020-06-18T14:58:25Z</time>
      </trkpt>
      <trkpt lat="50.05216" lon="1.42153">
        <ele>7.9</ele>
        <time>2020-06-18T14:58:26Z</time>
      </trkpt>
      <trkpt lat="50.05221" lon="1.42153">
        <ele>8</ele>
        <time>2020-06-18T14:58:27Z</time>
      </trkpt>
      <trkpt lat="50.05225" lon="1.42154">
        <ele>8.1</ele>
        <time>2020-06-18T14:58:28Z</time>
      </trkpt>
      <trkpt lat="50.0523" lon="1.42155">
        <ele>8.3</ele>
        <time>2020-06-18T14:58:29Z</time>
      </trkpt>
      <trkpt lat="50.05234" lon="1.42154">
        <ele>8.4</ele>
        <time>2020-06-18T14:58:30Z</time>
      </trkpt>
      <trkpt lat="50.05238" lon="1.42153">
        <ele>8.5</ele>
        <time>2020-06-18T14:58:31Z</time>
      </trkpt>
      <trkpt lat="50.05241" lon="1.42152">
        <ele>8.6</ele>
        <time>2020-06-18T14:58:32Z</time>
      </trkpt>
      <trkpt lat="50.05244" lon="1.42153">
        <ele>8.7</ele>
        <time>2020-06-18T14:58:33Z</time>
      </trkpt>
      <trkpt lat="50.05248" lon="1.42155">
        <ele>8.8</ele>
        <time>2020-06-18T14:58:34Z</time>
      </trkpt>
      <trkpt lat="50.05251" lon="1.42156">
        <ele>9</ele>
        <time>2020-06-18T14:58:35Z</time>
      </trkpt>
      <trkpt lat="50.05255" lon="1.42158">
        <ele>9.1</ele>
        <time>2020-06-18T14:58:36Z</time>
      </trkpt>
      <trkpt lat="50.05258" lon="1.4216">
        <ele>9.2</ele>
        <time>2020-06-18T14:58:37Z</time>
      </trkpt>
      <trkpt lat="50.05262" lon="1.42162">
        <ele>9.3</ele>
        <time>2020-06-18T14:58:38Z</time>
      </trkpt>
      <trkpt lat="50.05265" lon="1.42165">
        <ele>9.4</ele>
        <time>2020-06-18T14:58:39Z</time>
      </trkpt>
      <trkpt lat="50.0527" lon="1.42166">
        <ele>9.6</ele>
        <time>2020-06-18T14:58:40Z</time>
      </trkpt>
      <trkpt lat="50.05274" lon="1.42173">
        <ele>9.8</ele>
        <time>2020-06-18T14:58:41Z</time>
      </trkpt>
      <trkpt lat="50.05278" lon="1.42177">
        <ele>9.9</ele>
        <time>2020-06-18T14:58:42Z</time>
      </trkpt>
      <trkpt lat="50.05281" lon="1.42181">
        <ele>10</ele>
        <time>2020-06-18T14:58:43Z</time>
      </trkpt>
      <trkpt lat="50.05285" lon="1.42183">
        <ele>10.1</ele>
        <time>2020-06-18T14:58:44Z</time>
      </trkpt>
      <trkpt lat="50.05289" lon="1.42183">
        <ele>10.2</ele>
        <time>2020-06-18T14:58:45Z</time>
      </trkpt>
      <trkpt lat="50.0529" lon="1.42183">
        <ele>10.2</ele>
        <time>2020-06-18T14:58:46Z</time>
      </trkpt>
      <trkpt lat="50.05295" lon="1.42185">
        <ele>10.2</ele>
        <time>2020-06-18T14:58:47Z</time>
      </trkpt>
      <trkpt lat="50.053" lon="1.42186">
        <ele>10.2</ele>
        <time>2020-06-18T14:58:48Z</time>
      </trkpt>
      <trkpt lat="50.05304" lon="1.42187">
        <ele>10.2</ele>
        <time>2020-06-18T14:58:49Z</time>
      </trkpt>
      <trkpt lat="50.0531" lon="1.42189">
        <ele>10.2</ele>
        <time>2020-06-18T14:58:50Z</time>
      </trkpt>
      <trkpt lat="50.05315" lon="1.42191">
        <ele>10.1</ele>
        <time>2020-06-18T14:58:51Z</time>
      </trkpt>
      <trkpt lat="50.0532" lon="1.42194">
        <ele>10.1</ele>
        <time>2020-06-18T14:58:52Z</time>
      </trkpt>
      <trkpt lat="50.05322" lon="1.42194">
        <ele>10</ele>
        <time>2020-06-18T14:58:53Z</time>
      </trkpt>
      <trkpt lat="50.05326" lon="1.42196">
        <ele>9.9</ele>
        <time>2020-06-18T14:58:54Z</time>
      </trkpt>
      <trkpt lat="50.05331" lon="1.42198">
        <ele>9.8</ele>
        <time>2020-06-18T14:58:55Z</time>
      </trkpt>
      <trkpt lat="50.05337" lon="1.42202">
        <ele>9.6</ele>
        <time>2020-06-18T14:58:56Z</time>
      </trkpt>
      <trkpt lat="50.05344" lon="1.42205">
        <ele>9.4</ele>
        <time>2020-06-18T14:58:57Z</time>
      </trkpt>
      <trkpt lat="50.0535" lon="1.42209">
        <ele>9.1</ele>
        <time>2020-06-18T14:58:58Z</time>
      </trkpt>
      <trkpt lat="50.05357" lon="1.42213">
        <ele>8.8</ele>
        <time>2020-06-18T14:58:59Z</time>
      </trkpt>
      <trkpt lat="50.05363" lon="1.42216">
        <ele>8.6</ele>
        <time>2020-06-18T14:59:00Z</time>
      </trkpt>
      <trkpt lat="50.05369" lon="1.42219">
        <ele>8.3</ele>
        <time>2020-06-18T14:59:01Z</time>
      </trkpt>
      <trkpt lat="50.05374" lon="1.42221">
        <ele>8.1</ele>
        <time>2020-06-18T14:59:02Z</time>
      </trkpt>
      <trkpt lat="50.05377" lon="1.42224">
        <ele>7.9</ele>
        <time>2020-06-18T14:59:03Z</time>
      </trkpt>
      <trkpt lat="50.05381" lon="1.42226">
        <ele>7.7</ele>
        <time>2020-06-18T14:59:04Z</time>
      </trkpt>
      <trkpt lat="50.05384" lon="1.42228">
        <ele>7.6</ele>
        <time>2020-06-18T14:59:05Z</time>
      </trkpt>
      <trkpt lat="50.05388" lon="1.42229">
        <ele>7.4</ele>
        <time>2020-06-18T14:59:06Z</time>
      </trkpt>
      <trkpt lat="50.05391" lon="1.42232">
        <ele>7.3</ele>
        <time>2020-06-18T14:59:07Z</time>
      </trkpt>
      <trkpt lat="50.05392" lon="1.42233">
        <ele>7.3</ele>
        <time>2020-06-18T14:59:08Z</time>
      </trkpt>
      <trkpt lat="50.05394" lon="1.42233">
        <ele>7.2</ele>
        <time>2020-06-18T14:59:09Z</time>
      </trkpt>
      <trkpt lat="50.05395" lon="1.42233">
        <ele>7.1</ele>
        <time>2020-06-18T14:59:10Z</time>
      </trkpt>
      <trkpt lat="50.05396" lon="1.42234">
        <ele>7.1</ele>
        <time>2020-06-18T14:59:11Z</time>
      </trkpt>
      <trkpt lat="50.05398" lon="1.42237">
        <ele>7</ele>
        <time>2020-06-18T14:59:12Z</time>
      </trkpt>
      <trkpt lat="50.05399" lon="1.42238">
        <ele>7</ele>
        <time>2020-06-18T14:59:13Z</time>
      </trkpt>
      <trkpt lat="50.054" lon="1.42239">
        <ele>6.9</ele>
        <time>2020-06-18T14:59:14Z</time>
      </trkpt>
      <trkpt lat="50.05404" lon="1.42241">
        <ele>6.8</ele>
        <time>2020-06-18T14:59:15Z</time>
      </trkpt>
      <trkpt lat="50.05407" lon="1.42243">
        <ele>6.7</ele>
        <time>2020-06-18T14:59:16Z</time>
      </trkpt>
      <trkpt lat="50.05411" lon="1.42251">
        <ele>6.5</ele>
        <time>2020-06-18T14:59:17Z</time>
      </trkpt>
      <trkpt lat="50.05416" lon="1.42259">
        <ele>6.3</ele>
        <time>2020-06-18T14:59:18Z</time>
      </trkpt>
      <trkpt lat="50.0542" lon="1.42263">
        <ele>6.3</ele>
        <time>2020-06-18T14:59:19Z</time>
      </trkpt>
      <trkpt lat="50.05424" lon="1.42266">
        <ele>6.2</ele>
        <time>2020-06-18T14:59:20Z</time>
      </trkpt>
      <trkpt lat="50.0543" lon="1.4227">
        <ele>6.1</ele>
        <time>2020-06-18T14:59:21Z</time>
      </trkpt>
      <trkpt lat="50.05435" lon="1.42273">
        <ele>6</ele>
        <time>2020-06-18T14:59:22Z</time>
      </trkpt>
      <trkpt lat="50.05439" lon="1.42276">
        <ele>5.9</ele>
        <time>2020-06-18T14:59:23Z</time>
      </trkpt>
      <trkpt lat="50.05444" lon="1.42278">
        <ele>5.9</ele>
        <time>2020-06-18T14:59:24Z</time>
      </trkpt>
      <trkpt lat="50.05448" lon="1.4228">
        <ele>5.8</ele>
        <time>2020-06-18T14:59:25Z</time>
      </trkpt>
      <trkpt lat="50.05454" lon="1.42284">
        <ele>5.8</ele>
        <time>2020-06-18T14:59:26Z</time>
      </trkpt>
      <trkpt lat="50.0546" lon="1.42288">
        <ele>5.7</ele>
        <time>2020-06-18T14:59:27Z</time>
      </trkpt>
      <trkpt lat="50.05464" lon="1.42292">
        <ele>5.7</ele>
        <time>2020-06-18T14:59:28Z</time>
      </trkpt>
      <trkpt lat="50.05469" lon="1.42296">
        <ele>5.7</ele>
        <time>2020-06-18T14:59:29Z</time>
      </trkpt>
      <trkpt lat="50.05473" lon="1.42299">
        <ele>5.7</ele>
        <time>2020-06-18T14:59:30Z</time>
      </trkpt>
      <trkpt lat="50.05477" lon="1.42304">
        <ele>5.7</ele>
        <time>2020-06-18T14:59:31Z</time>
      </trkpt>
      <trkpt lat="50.05483" lon="1.42308">
        <ele>5.8</ele>
        <time>2020-06-18T14:59:32Z</time>
      </trkpt>
      <trkpt lat="50.05487" lon="1.42312">
        <ele>5.8</ele>
        <time>2020-06-18T14:59:33Z</time>
      </trkpt>
      <trkpt lat="50.05492" lon="1.42316">
        <ele>5.8</ele>
        <time>2020-06-18T14:59:34Z</time>
      </trkpt>
      <trkpt lat="50.05497" lon="1.42321">
        <ele>5.9</ele>
        <time>2020-06-18T14:59:35Z</time>
      </trkpt>
      <trkpt lat="50.05502" lon="1.42324">
        <ele>5.9</ele>
        <time>2020-06-18T14:59:36Z</time>
      </trkpt>
      <trkpt lat="50.05506" lon="1.42328">
        <ele>6</ele>
        <time>2020-06-18T14:59:37Z</time>
      </trkpt>
      <trkpt lat="50.0551" lon="1.42334">
        <ele>6</ele>
        <time>2020-06-18T14:59:38Z</time>
      </trkpt>
      <trkpt lat="50.05513" lon="1.42337">
        <ele>6.1</ele>
        <time>2020-06-18T14:59:39Z</time>
      </trkpt>
      <trkpt lat="50.05518" lon="1.4234">
        <ele>6.1</ele>
        <time>2020-06-18T14:59:40Z</time>
      </trkpt>
      <trkpt lat="50.05522" lon="1.42344">
        <ele>6.2</ele>
        <time>2020-06-18T14:59:41Z</time>
      </trkpt>
      <trkpt lat="50.05525" lon="1.42346">
        <ele>6.2</ele>
        <time>2020-06-18T14:59:42Z</time>
      </trkpt>
      <trkpt lat="50.05528" lon="1.42352">
        <ele>6.2</ele>
        <time>2020-06-18T14:59:43Z</time>
      </trkpt>
      <trkpt lat="50.05534" lon="1.42355">
        <ele>6.3</ele>
        <time>2020-06-18T14:59:44Z</time>
      </trkpt>
      <trkpt lat="50.05539" lon="1.42359">
        <ele>6.3</ele>
        <time>2020-06-18T14:59:45Z</time>
      </trkpt>
      <trkpt lat="50.05544" lon="1.42364">
        <ele>6.4</ele>
        <time>2020-06-18T14:59:46Z</time>
      </trkpt>
      <trkpt lat="50.05548" lon="1.42369">
        <ele>6.4</ele>
        <time>2020-06-18T14:59:47Z</time>
      </trkpt>
      <trkpt lat="50.05553" lon="1.42374">
        <ele>6.4</ele>
        <time>2020-06-18T14:59:48Z</time>
      </trkpt>
      <trkpt lat="50.05558" lon="1.42378">
        <ele>6.5</ele>
        <time>2020-06-18T14:59:49Z</time>
      </trkpt>
      <trkpt lat="50.05563" lon="1.42382">
        <ele>6.5</ele>
        <time>2020-06-18T14:59:50Z</time>
      </trkpt>
      <trkpt lat="50.05567" lon="1.42385">
        <ele>6.6</ele>
        <time>2020-06-18T14:59:51Z</time>
      </trkpt>
      <trkpt lat="50.05573" lon="1.4239">
        <ele>6.7</ele>
        <time>2020-06-18T14:59:52Z</time>
      </trkpt>
      <trkpt lat="50.05578" lon="1.42394">
        <ele>6.8</ele>
        <time>2020-06-18T14:59:53Z</time>
      </trkpt>
      <trkpt lat="50.05583" lon="1.42398">
        <ele>6.8</ele>
        <time>2020-06-18T14:59:54Z</time>
      </trkpt>
      <trkpt lat="50.05588" lon="1.42401">
        <ele>6.9</ele>
        <time>2020-06-18T14:59:55Z</time>
      </trkpt>
      <trkpt lat="50.05593" lon="1.42404">
        <ele>7</ele>
        <time>2020-06-18T14:59:56Z</time>
      </trkpt>
      <trkpt lat="50.05596" lon="1.42406">
        <ele>7.1</ele>
        <time>2020-06-18T14:59:57Z</time>
      </trkpt>
      <trkpt lat="50.05599" lon="1.42409">
        <ele>7.1</ele>
        <time>2020-06-18T14:59:58Z</time>
      </trkpt>
      <trkpt lat="50.05601" lon="1.42412">
        <ele>7.2</ele>
        <time>2020-06-18T14:59:59Z</time>
      </trkpt>
      <trkpt lat="50.05604" lon="1.42414">
        <ele>7.2</ele>
        <time>2020-06-18T15:00:00Z</time>
      </trkpt>
      <trkpt lat="50.05606" lon="1.42419">
        <ele>7.3</ele>
        <time>2020-06-18T15:00:01Z</time>
      </trkpt>
      <trkpt lat="50.05607" lon="1.42422">
        <ele>7.5</ele>
        <time>2020-06-18T15:00:02Z</time>
      </trkpt>
      <trkpt lat="50.05607" lon="1.42423">
        <ele>7.5</ele>
        <time>2020-06-18T15:00:03Z</time>
      </trkpt>
      <trkpt lat="50.05607" lon="1.42425">
        <ele>7.5</ele>
        <time>2020-06-18T15:00:04Z</time>
      </trkpt>
      <trkpt lat="50.05607" lon="1.42429">
        <ele>7.6</ele>
        <time>2020-06-18T15:00:05Z</time>
      </trkpt>
      <trkpt lat="50.05607" lon="1.42431">
        <ele>7.6</ele>
        <time>2020-06-18T15:00:06Z</time>
      </trkpt>
      <trkpt lat="50.05608" lon="1.42436">
        <ele>7.7</ele>
        <time>2020-06-18T15:00:07Z</time>
      </trkpt>
      <trkpt lat="50.05609" lon="1.4244">
        <ele>7.7</ele>
        <time>2020-06-18T15:00:08Z</time>
      </trkpt>
      <trkpt lat="50.05612" lon="1.42443">
        <ele>7.8</ele>
        <time>2020-06-18T15:00:09Z</time>
      </trkpt>
      <trkpt lat="50.05614" lon="1.42444">
        <ele>7.9</ele>
        <time>2020-06-18T15:00:10Z</time>
      </trkpt>
      <trkpt lat="50.05618" lon="1.42443">
        <ele>7.9</ele>
        <time>2020-06-18T15:00:11Z</time>
      </trkpt>
      <trkpt lat="50.05622" lon="1.42441">
        <ele>7.8</ele>
        <time>2020-06-18T15:00:12Z</time>
      </trkpt>
      <trkpt lat="50.05625" lon="1.42438">
        <ele>7.8</ele>
        <time>2020-06-18T15:00:13Z</time>
      </trkpt>
      <trkpt lat="50.05628" lon="1.42437">
        <ele>7.8</ele>
        <time>2020-06-18T15:00:14Z</time>
      </trkpt>
      <trkpt lat="50.05633" lon="1.42437">
        <ele>7.8</ele>
        <time>2020-06-18T15:00:15Z</time>
      </trkpt>
      <trkpt lat="50.05637" lon="1.42438">
        <ele>7.8</ele>
        <time>2020-06-18T15:00:16Z</time>
      </trkpt>
      <trkpt lat="50.05643" lon="1.4244">
        <ele>7.8</ele>
        <time>2020-06-18T15:00:17Z</time>
      </trkpt>
      <trkpt lat="50.05648" lon="1.42443">
        <ele>7.8</ele>
        <time>2020-06-18T15:00:18Z</time>
      </trkpt>
      <trkpt lat="50.05652" lon="1.42445">
        <ele>7.8</ele>
        <time>2020-06-18T15:00:19Z</time>
      </trkpt>
      <trkpt lat="50.05657" lon="1.42447">
        <ele>7.8</ele>
        <time>2020-06-18T15:00:20Z</time>
      </trkpt>
      <trkpt lat="50.05662" lon="1.42448">
        <ele>7.8</ele>
        <time>2020-06-18T15:00:21Z</time>
      </trkpt>
      <trkpt lat="50.05667" lon="1.42448">
        <ele>7.9</ele>
        <time>2020-06-18T15:00:22Z</time>
      </trkpt>
      <trkpt lat="50.05672" lon="1.42449">
        <ele>7.9</ele>
        <time>2020-06-18T15:00:23Z</time>
      </trkpt>
      <trkpt lat="50.05676" lon="1.4245">
        <ele>7.9</ele>
        <time>2020-06-18T15:00:24Z</time>
      </trkpt>
      <trkpt lat="50.05681" lon="1.42451">
        <ele>8</ele>
        <time>2020-06-18T15:00:25Z</time>
      </trkpt>
      <trkpt lat="50.05686" lon="1.42451">
        <ele>8.1</ele>
        <time>2020-06-18T15:00:26Z</time>
      </trkpt>
      <trkpt lat="50.05692" lon="1.4245">
        <ele>8.2</ele>
        <time>2020-06-18T15:00:27Z</time>
      </trkpt>
      <trkpt lat="50.05697" lon="1.4245">
        <ele>8.3</ele>
        <time>2020-06-18T15:00:28Z</time>
      </trkpt>
      <trkpt lat="50.05702" lon="1.4245">
        <ele>8.4</ele>
        <time>2020-06-18T15:00:29Z</time>
      </trkpt>
      <trkpt lat="50.05708" lon="1.42451">
        <ele>8.5</ele>
        <time>2020-06-18T15:00:30Z</time>
      </trkpt>
      <trkpt lat="50.05713" lon="1.42451">
        <ele>8.5</ele>
        <time>2020-06-18T15:00:31Z</time>
      </trkpt>
      <trkpt lat="50.05718" lon="1.42451">
        <ele>8.6</ele>
        <time>2020-06-18T15:00:32Z</time>
      </trkpt>
      <trkpt lat="50.05723" lon="1.4245">
        <ele>8.6</ele>
        <time>2020-06-18T15:00:33Z</time>
      </trkpt>
      <trkpt lat="50.05727" lon="1.4245">
        <ele>8.7</ele>
        <time>2020-06-18T15:00:34Z</time>
      </trkpt>
      <trkpt lat="50.05734" lon="1.4245">
        <ele>8.8</ele>
        <time>2020-06-18T15:00:35Z</time>
      </trkpt>
      <trkpt lat="50.05739" lon="1.4245">
        <ele>8.9</ele>
        <time>2020-06-18T15:00:36Z</time>
      </trkpt>
      <trkpt lat="50.05745" lon="1.42451">
        <ele>9.1</ele>
        <time>2020-06-18T15:00:37Z</time>
      </trkpt>
      <trkpt lat="50.0575" lon="1.42452">
        <ele>9.2</ele>
        <time>2020-06-18T15:00:38Z</time>
      </trkpt>
      <trkpt lat="50.05756" lon="1.4245">
        <ele>9.4</ele>
        <time>2020-06-18T15:00:39Z</time>
      </trkpt>
      <trkpt lat="50.0576" lon="1.42451">
        <ele>9.5</ele>
        <time>2020-06-18T15:00:40Z</time>
      </trkpt>
      <trkpt lat="50.05764" lon="1.42451">
        <ele>9.6</ele>
        <time>2020-06-18T15:00:41Z</time>
      </trkpt>
      <trkpt lat="50.05768" lon="1.42452">
        <ele>9.7</ele>
        <time>2020-06-18T15:00:42Z</time>
      </trkpt>
      <trkpt lat="50.05772" lon="1.42455">
        <ele>9.8</ele>
        <time>2020-06-18T15:00:43Z</time>
      </trkpt>
      <trkpt lat="50.05776" lon="1.42455">
        <ele>9.9</ele>
        <time>2020-06-18T15:00:44Z</time>
      </trkpt>
      <trkpt lat="50.0578" lon="1.42456">
        <ele>10.1</ele>
        <time>2020-06-18T15:00:45Z</time>
      </trkpt>
      <trkpt lat="50.05785" lon="1.42456">
        <ele>10.2</ele>
        <time>2020-06-18T15:00:46Z</time>
      </trkpt>
      <trkpt lat="50.05789" lon="1.42457">
        <ele>10.4</ele>
        <time>2020-06-18T15:00:47Z</time>
      </trkpt>
      <trkpt lat="50.05793" lon="1.42458">
        <ele>10.6</ele>
        <time>2020-06-18T15:00:48Z</time>
      </trkpt>
      <trkpt lat="50.05796" lon="1.42459">
        <ele>10.8</ele>
        <time>2020-06-18T15:00:49Z</time>
      </trkpt>
      <trkpt lat="50.05799" lon="1.42459">
        <ele>10.9</ele>
        <time>2020-06-18T15:00:50Z</time>
      </trkpt>
      <trkpt lat="50.05802" lon="1.42459">
        <ele>11.1</ele>
        <time>2020-06-18T15:00:51Z</time>
      </trkpt>
      <trkpt lat="50.05807" lon="1.4246">
        <ele>11.2</ele>
        <time>2020-06-18T15:00:52Z</time>
      </trkpt>
      <trkpt lat="50.05808" lon="1.4246">
        <ele>11.3</ele>
        <time>2020-06-18T15:00:53Z</time>
      </trkpt>
      <trkpt lat="50.05812" lon="1.42459">
        <ele>11.4</ele>
        <time>2020-06-18T15:00:54Z</time>
      </trkpt>
      <trkpt lat="50.05816" lon="1.4246">
        <ele>11.6</ele>
        <time>2020-06-18T15:00:55Z</time>
      </trkpt>
      <trkpt lat="50.05818" lon="1.4246">
        <ele>11.6</ele>
        <time>2020-06-18T15:00:56Z</time>
      </trkpt>
      <trkpt lat="50.05823" lon="1.4246">
        <ele>11.8</ele>
        <time>2020-06-18T15:00:57Z</time>
      </trkpt>
      <trkpt lat="50.05827" lon="1.42459">
        <ele>11.9</ele>
        <time>2020-06-18T15:00:58Z</time>
      </trkpt>
      <trkpt lat="50.05831" lon="1.42459">
        <ele>12</ele>
        <time>2020-06-18T15:00:59Z</time>
      </trkpt>
      <trkpt lat="50.05837" lon="1.42459">
        <ele>12.1</ele>
        <time>2020-06-18T15:01:00Z</time>
      </trkpt>
      <trkpt lat="50.0584" lon="1.4246">
        <ele>12.2</ele>
        <time>2020-06-18T15:01:01Z</time>
      </trkpt>
      <trkpt lat="50.05845" lon="1.42459">
        <ele>12.3</ele>
        <time>2020-06-18T15:01:02Z</time>
      </trkpt>
      <trkpt lat="50.05849" lon="1.42458">
        <ele>12.4</ele>
        <time>2020-06-18T15:01:03Z</time>
      </trkpt>
      <trkpt lat="50.05853" lon="1.42458">
        <ele>12.5</ele>
        <time>2020-06-18T15:01:04Z</time>
      </trkpt>
      <trkpt lat="50.05857" lon="1.42458">
        <ele>12.6</ele>
        <time>2020-06-18T15:01:05Z</time>
      </trkpt>
      <trkpt lat="50.0586" lon="1.42458">
        <ele>12.6</ele>
        <time>2020-06-18T15:01:06Z</time>
      </trkpt>
      <trkpt lat="50.05864" lon="1.42457">
        <ele>12.7</ele>
        <time>2020-06-18T15:01:07Z</time>
      </trkpt>
      <trkpt lat="50.05868" lon="1.42457">
        <ele>12.8</ele>
        <time>2020-06-18T15:01:08Z</time>
      </trkpt>
      <trkpt lat="50.05872" lon="1.42457">
        <ele>12.9</ele>
        <time>2020-06-18T15:01:09Z</time>
      </trkpt>
      <trkpt lat="50.05877" lon="1.42455">
        <ele>13.1</ele>
        <time>2020-06-18T15:01:10Z</time>
      </trkpt>
      <trkpt lat="50.0588" lon="1.42454">
        <ele>13.2</ele>
        <time>2020-06-18T15:01:11Z</time>
      </trkpt>
      <trkpt lat="50.05884" lon="1.42452">
        <ele>13.3</ele>
        <time>2020-06-18T15:01:12Z</time>
      </trkpt>
      <trkpt lat="50.05888" lon="1.4245">
        <ele>13.4</ele>
        <time>2020-06-18T15:01:13Z</time>
      </trkpt>
      <trkpt lat="50.05893" lon="1.4245">
        <ele>13.6</ele>
        <time>2020-06-18T15:01:14Z</time>
      </trkpt>
      <trkpt lat="50.05896" lon="1.42449">
        <ele>13.7</ele>
        <time>2020-06-18T15:01:15Z</time>
      </trkpt>
      <trkpt lat="50.05899" lon="1.42447">
        <ele>13.8</ele>
        <time>2020-06-18T15:01:16Z</time>
      </trkpt>
      <trkpt lat="50.05903" lon="1.42447">
        <ele>13.9</ele>
        <time>2020-06-18T15:01:17Z</time>
      </trkpt>
      <trkpt lat="50.05907" lon="1.42446">
        <ele>14.1</ele>
        <time>2020-06-18T15:01:18Z</time>
      </trkpt>
      <trkpt lat="50.05912" lon="1.42445">
        <ele>14.2</ele>
        <time>2020-06-18T15:01:19Z</time>
      </trkpt>
      <trkpt lat="50.05915" lon="1.42444">
        <ele>14.3</ele>
        <time>2020-06-18T15:01:20Z</time>
      </trkpt>
      <trkpt lat="50.05919" lon="1.42442">
        <ele>14.5</ele>
        <time>2020-06-18T15:01:21Z</time>
      </trkpt>
      <trkpt lat="50.05923" lon="1.42441">
        <ele>14.6</ele>
        <time>2020-06-18T15:01:22Z</time>
      </trkpt>
      <trkpt lat="50.05929" lon="1.42441">
        <ele>14.8</ele>
        <time>2020-06-18T15:01:23Z</time>
      </trkpt>
      <trkpt lat="50.05934" lon="1.4244">
        <ele>15</ele>
        <time>2020-06-18T15:01:24Z</time>
      </trkpt>
      <trkpt lat="50.05938" lon="1.42439">
        <ele>15.1</ele>
        <time>2020-06-18T15:01:25Z</time>
      </trkpt>
      <trkpt lat="50.05942" lon="1.42436">
        <ele>15.3</ele>
        <time>2020-06-18T15:01:26Z</time>
      </trkpt>
      <trkpt lat="50.05946" lon="1.42436">
        <ele>15.4</ele>
        <time>2020-06-18T15:01:27Z</time>
      </trkpt>
      <trkpt lat="50.05948" lon="1.42435">
        <ele>15.5</ele>
        <time>2020-06-18T15:01:28Z</time>
      </trkpt>
      <trkpt lat="50.05951" lon="1.42434">
        <ele>15.6</ele>
        <time>2020-06-18T15:01:29Z</time>
      </trkpt>
      <trkpt lat="50.05956" lon="1.42434">
        <ele>15.8</ele>
        <time>2020-06-18T15:01:30Z</time>
      </trkpt>
      <trkpt lat="50.05957" lon="1.42433">
        <ele>15.8</ele>
        <time>2020-06-18T15:01:31Z</time>
      </trkpt>
      <trkpt lat="50.0596" lon="1.42433">
        <ele>16</ele>
        <time>2020-06-18T15:01:32Z</time>
      </trkpt>
      <trkpt lat="50.05964" lon="1.42432">
        <ele>16.1</ele>
        <time>2020-06-18T15:01:33Z</time>
      </trkpt>
      <trkpt lat="50.05968" lon="1.42431">
        <ele>16.3</ele>
        <time>2020-06-18T15:01:34Z</time>
      </trkpt>
      <trkpt lat="50.05972" lon="1.4243">
        <ele>16.4</ele>
        <time>2020-06-18T15:01:35Z</time>
      </trkpt>
      <trkpt lat="50.05976" lon="1.42428">
        <ele>16.6</ele>
        <time>2020-06-18T15:01:36Z</time>
      </trkpt>
      <trkpt lat="50.05979" lon="1.42428">
        <ele>16.7</ele>
        <time>2020-06-18T15:01:37Z</time>
      </trkpt>
      <trkpt lat="50.05982" lon="1.42427">
        <ele>16.8</ele>
        <time>2020-06-18T15:01:38Z</time>
      </trkpt>
      <trkpt lat="50.05985" lon="1.42426">
        <ele>16.9</ele>
        <time>2020-06-18T15:01:39Z</time>
      </trkpt>
      <trkpt lat="50.05988" lon="1.42425">
        <ele>17.1</ele>
        <time>2020-06-18T15:01:40Z</time>
      </trkpt>
      <trkpt lat="50.05994" lon="1.42424">
        <ele>17.3</ele>
        <time>2020-06-18T15:01:41Z</time>
      </trkpt>
      <trkpt lat="50.05997" lon="1.42423">
        <ele>17.4</ele>
        <time>2020-06-18T15:01:42Z</time>
      </trkpt>
      <trkpt lat="50.06001" lon="1.42422">
        <ele>17.6</ele>
        <time>2020-06-18T15:01:43Z</time>
      </trkpt>
      <trkpt lat="50.06006" lon="1.42421">
        <ele>17.8</ele>
        <time>2020-06-18T15:01:44Z</time>
      </trkpt>
      <trkpt lat="50.06011" lon="1.4242">
        <ele>17.9</ele>
        <time>2020-06-18T15:01:45Z</time>
      </trkpt>
      <trkpt lat="50.06015" lon="1.4242">
        <ele>18.1</ele>
        <time>2020-06-18T15:01:46Z</time>
      </trkpt>
      <trkpt lat="50.06018" lon="1.42419">
        <ele>18.2</ele>
        <time>2020-06-18T15:01:47Z</time>
      </trkpt>
      <trkpt lat="50.06024" lon="1.4242">
        <ele>18.4</ele>
        <time>2020-06-18T15:01:48Z</time>
      </trkpt>
      <trkpt lat="50.06027" lon="1.42419">
        <ele>18.5</ele>
        <time>2020-06-18T15:01:49Z</time>
      </trkpt>
      <trkpt lat="50.0603" lon="1.42419">
        <ele>18.6</ele>
        <time>2020-06-18T15:01:50Z</time>
      </trkpt>
      <trkpt lat="50.06034" lon="1.42419">
        <ele>18.7</ele>
        <time>2020-06-18T15:01:51Z</time>
      </trkpt>
      <trkpt lat="50.06038" lon="1.42419">
        <ele>18.9</ele>
        <time>2020-06-18T15:01:52Z</time>
      </trkpt>
      <trkpt lat="50.06041" lon="1.42419">
        <ele>19.1</ele>
        <time>2020-06-18T15:01:53Z</time>
      </trkpt>
      <trkpt lat="50.06045" lon="1.4242">
        <ele>19.3</ele>
        <time>2020-06-18T15:01:54Z</time>
      </trkpt>
      <trkpt lat="50.06049" lon="1.4242">
        <ele>19.4</ele>
        <time>2020-06-18T15:01:55Z</time>
      </trkpt>
      <trkpt lat="50.06052" lon="1.42421">
        <ele>19.6</ele>
        <time>2020-06-18T15:01:56Z</time>
      </trkpt>
      <trkpt lat="50.06056" lon="1.42422">
        <ele>19.7</ele>
        <time>2020-06-18T15:01:57Z</time>
      </trkpt>
      <trkpt lat="50.0606" lon="1.42423">
        <ele>20</ele>
        <time>2020-06-18T15:01:58Z</time>
      </trkpt>
      <trkpt lat="50.06065" lon="1.42424">
        <ele>20.2</ele>
        <time>2020-06-18T15:01:59Z</time>
      </trkpt>
      <trkpt lat="50.06069" lon="1.42426">
        <ele>20.4</ele>
        <time>2020-06-18T15:02:00Z</time>
      </trkpt>
      <trkpt lat="50.06073" lon="1.42426">
        <ele>20.6</ele>
        <time>2020-06-18T15:02:01Z</time>
      </trkpt>
      <trkpt lat="50.06078" lon="1.42426">
        <ele>20.9</ele>
        <time>2020-06-18T15:02:02Z</time>
      </trkpt>
      <trkpt lat="50.06082" lon="1.42426">
        <ele>21.1</ele>
        <time>2020-06-18T15:02:03Z</time>
      </trkpt>
      <trkpt lat="50.06085" lon="1.42427">
        <ele>21.2</ele>
        <time>2020-06-18T15:02:04Z</time>
      </trkpt>
      <trkpt lat="50.0609" lon="1.42429">
        <ele>21.4</ele>
        <time>2020-06-18T15:02:05Z</time>
      </trkpt>
      <trkpt lat="50.06094" lon="1.42429">
        <ele>21.6</ele>
        <time>2020-06-18T15:02:06Z</time>
      </trkpt>
      <trkpt lat="50.06098" lon="1.4243">
        <ele>21.8</ele>
        <time>2020-06-18T15:02:07Z</time>
      </trkpt>
      <trkpt lat="50.06102" lon="1.42431">
        <ele>22</ele>
        <time>2020-06-18T15:02:08Z</time>
      </trkpt>
      <trkpt lat="50.06106" lon="1.42432">
        <ele>22.2</ele>
        <time>2020-06-18T15:02:09Z</time>
      </trkpt>
      <trkpt lat="50.06109" lon="1.42433">
        <ele>22.4</ele>
        <time>2020-06-18T15:02:10Z</time>
      </trkpt>
      <trkpt lat="50.06112" lon="1.42434">
        <ele>22.5</ele>
        <time>2020-06-18T15:02:11Z</time>
      </trkpt>
      <trkpt lat="50.06116" lon="1.42435">
        <ele>22.7</ele>
        <time>2020-06-18T15:02:12Z</time>
      </trkpt>
      <trkpt lat="50.06119" lon="1.42436">
        <ele>22.9</ele>
        <time>2020-06-18T15:02:13Z</time>
      </trkpt>
      <trkpt lat="50.06122" lon="1.42438">
        <ele>23.1</ele>
        <time>2020-06-18T15:02:14Z</time>
      </trkpt>
      <trkpt lat="50.06126" lon="1.4244">
        <ele>23.3</ele>
        <time>2020-06-18T15:02:15Z</time>
      </trkpt>
      <trkpt lat="50.0613" lon="1.42443">
        <ele>23.5</ele>
        <time>2020-06-18T15:02:16Z</time>
      </trkpt>
      <trkpt lat="50.06134" lon="1.42446">
        <ele>23.7</ele>
        <time>2020-06-18T15:02:17Z</time>
      </trkpt>
      <trkpt lat="50.06139" lon="1.4245">
        <ele>24</ele>
        <time>2020-06-18T15:02:18Z</time>
      </trkpt>
      <trkpt lat="50.06143" lon="1.42452">
        <ele>24.4</ele>
        <time>2020-06-18T15:02:19Z</time>
      </trkpt>
      <trkpt lat="50.06147" lon="1.42455">
        <ele>24.7</ele>
        <time>2020-06-18T15:02:20Z</time>
      </trkpt>
      <trkpt lat="50.0615" lon="1.42456">
        <ele>25</ele>
        <time>2020-06-18T15:02:21Z</time>
      </trkpt>
      <trkpt lat="50.06154" lon="1.42457">
        <ele>25.3</ele>
        <time>2020-06-18T15:02:22Z</time>
      </trkpt>
      <trkpt lat="50.06159" lon="1.42459">
        <ele>25.7</ele>
        <time>2020-06-18T15:02:23Z</time>
      </trkpt>
      <trkpt lat="50.06162" lon="1.42463">
        <ele>25.9</ele>
        <time>2020-06-18T15:02:24Z</time>
      </trkpt>
      <trkpt lat="50.06167" lon="1.42468">
        <ele>26.3</ele>
        <time>2020-06-18T15:02:25Z</time>
      </trkpt>
      <trkpt lat="50.06172" lon="1.4247">
        <ele>26.5</ele>
        <time>2020-06-18T15:02:26Z</time>
      </trkpt>
      <trkpt lat="50.06176" lon="1.42472">
        <ele>26.6</ele>
        <time>2020-06-18T15:02:27Z</time>
      </trkpt>
      <trkpt lat="50.06179" lon="1.42474">
        <ele>26.8</ele>
        <time>2020-06-18T15:02:28Z</time>
      </trkpt>
      <trkpt lat="50.06182" lon="1.42477">
        <ele>26.9</ele>
        <time>2020-06-18T15:02:29Z</time>
      </trkpt>
      <trkpt lat="50.06185" lon="1.42481">
        <ele>27.1</ele>
        <time>2020-06-18T15:02:30Z</time>
      </trkpt>
      <trkpt lat="50.06189" lon="1.42484">
        <ele>27.3</ele>
        <time>2020-06-18T15:02:31Z</time>
      </trkpt>
      <trkpt lat="50.06193" lon="1.42487">
        <ele>27.6</ele>
        <time>2020-06-18T15:02:32Z</time>
      </trkpt>
      <trkpt lat="50.06196" lon="1.42491">
        <ele>27.9</ele>
        <time>2020-06-18T15:02:33Z</time>
      </trkpt>
      <trkpt lat="50.06199" lon="1.42495">
        <ele>28.1</ele>
        <time>2020-06-18T15:02:34Z</time>
      </trkpt>
      <trkpt lat="50.06202" lon="1.425">
        <ele>28.4</ele>
        <time>2020-06-18T15:02:35Z</time>
      </trkpt>
      <trkpt lat="50.06204" lon="1.42504">
        <ele>28.6</ele>
        <time>2020-06-18T15:02:36Z</time>
      </trkpt>
      <trkpt lat="50.06208" lon="1.42507">
        <ele>28.8</ele>
        <time>2020-06-18T15:02:37Z</time>
      </trkpt>
      <trkpt lat="50.0621" lon="1.42511">
        <ele>29</ele>
        <time>2020-06-18T15:02:38Z</time>
      </trkpt>
      <trkpt lat="50.06213" lon="1.42515">
        <ele>29.2</ele>
        <time>2020-06-18T15:02:39Z</time>
      </trkpt>
      <trkpt lat="50.06216" lon="1.42519">
        <ele>29.5</ele>
        <time>2020-06-18T15:02:40Z</time>
      </trkpt>
      <trkpt lat="50.06218" lon="1.42521">
        <ele>29.6</ele>
        <time>2020-06-18T15:02:41Z</time>
      </trkpt>
      <trkpt lat="50.06221" lon="1.42526">
        <ele>29.8</ele>
        <time>2020-06-18T15:02:42Z</time>
      </trkpt>
      <trkpt lat="50.06224" lon="1.42532">
        <ele>30</ele>
        <time>2020-06-18T15:02:43Z</time>
      </trkpt>
      <trkpt lat="50.06227" lon="1.42537">
        <ele>30.3</ele>
        <time>2020-06-18T15:02:44Z</time>
      </trkpt>
      <trkpt lat="50.0623" lon="1.42543">
        <ele>30.4</ele>
        <time>2020-06-18T15:02:45Z</time>
      </trkpt>
      <trkpt lat="50.06232" lon="1.42547">
        <ele>30.7</ele>
        <time>2020-06-18T15:02:46Z</time>
      </trkpt>
      <trkpt lat="50.06235" lon="1.42553">
        <ele>30.9</ele>
        <time>2020-06-18T15:02:47Z</time>
      </trkpt>
      <trkpt lat="50.06237" lon="1.42557">
        <ele>31.1</ele>
        <time>2020-06-18T15:02:48Z</time>
      </trkpt>
      <trkpt lat="50.0624" lon="1.42563">
        <ele>31.4</ele>
        <time>2020-06-18T15:02:49Z</time>
      </trkpt>
      <trkpt lat="50.06243" lon="1.42568">
        <ele>31.6</ele>
        <time>2020-06-18T15:02:50Z</time>
      </trkpt>
      <trkpt lat="50.06245" lon="1.42574">
        <ele>31.9</ele>
        <time>2020-06-18T15:02:51Z</time>
      </trkpt>
      <trkpt lat="50.06248" lon="1.42579">
        <ele>31.7</ele>
        <time>2020-06-18T15:02:52Z</time>
      </trkpt>
      <trkpt lat="50.06251" lon="1.42584">
        <ele>31.6</ele>
        <time>2020-06-18T15:02:53Z</time>
      </trkpt>
      <trkpt lat="50.06254" lon="1.42591">
        <ele>31.5</ele>
        <time>2020-06-18T15:02:54Z</time>
      </trkpt>
      <trkpt lat="50.06256" lon="1.42596">
        <ele>31.4</ele>
        <time>2020-06-18T15:02:55Z</time>
      </trkpt>
      <trkpt lat="50.06258" lon="1.42603">
        <ele>31.3</ele>
        <time>2020-06-18T15:02:56Z</time>
      </trkpt>
      <trkpt lat="50.06261" lon="1.42609">
        <ele>31.2</ele>
        <time>2020-06-18T15:02:57Z</time>
      </trkpt>
      <trkpt lat="50.06264" lon="1.42614">
        <ele>31.1</ele>
        <time>2020-06-18T15:02:58Z</time>
      </trkpt>
      <trkpt lat="50.06266" lon="1.42621">
        <ele>31.1</ele>
        <time>2020-06-18T15:02:59Z</time>
      </trkpt>
      <trkpt lat="50.06268" lon="1.42626">
        <ele>31</ele>
        <time>2020-06-18T15:03:00Z</time>
      </trkpt>
      <trkpt lat="50.0627" lon="1.42632">
        <ele>30.9</ele>
        <time>2020-06-18T15:03:01Z</time>
      </trkpt>
      <trkpt lat="50.06272" lon="1.42638">
        <ele>30.9</ele>
        <time>2020-06-18T15:03:02Z</time>
      </trkpt>
      <trkpt lat="50.06274" lon="1.42642">
        <ele>30.9</ele>
        <time>2020-06-18T15:03:03Z</time>
      </trkpt>
      <trkpt lat="50.06276" lon="1.42649">
        <ele>30.9</ele>
        <time>2020-06-18T15:03:04Z</time>
      </trkpt>
      <trkpt lat="50.06278" lon="1.42656">
        <ele>30.9</ele>
        <time>2020-06-18T15:03:05Z</time>
      </trkpt>
      <trkpt lat="50.06281" lon="1.42663">
        <ele>30.9</ele>
        <time>2020-06-18T15:03:06Z</time>
      </trkpt>
      <trkpt lat="50.06283" lon="1.42669">
        <ele>31</ele>
        <time>2020-06-18T15:03:07Z</time>
      </trkpt>
      <trkpt lat="50.06284" lon="1.42674">
        <ele>31</ele>
        <time>2020-06-18T15:03:08Z</time>
      </trkpt>
      <trkpt lat="50.06287" lon="1.42681">
        <ele>31</ele>
        <time>2020-06-18T15:03:09Z</time>
      </trkpt>
      <trkpt lat="50.06288" lon="1.42684">
        <ele>31</ele>
        <time>2020-06-18T15:03:10Z</time>
      </trkpt>
      <trkpt lat="50.06289" lon="1.42691">
        <ele>31</ele>
        <time>2020-06-18T15:03:11Z</time>
      </trkpt>
      <trkpt lat="50.0629" lon="1.42693">
        <ele>31</ele>
        <time>2020-06-18T15:03:12Z</time>
      </trkpt>
      <trkpt lat="50.06292" lon="1.42697">
        <ele>30.9</ele>
        <time>2020-06-18T15:03:13Z</time>
      </trkpt>
      <trkpt lat="50.06294" lon="1.42704">
        <ele>31</ele>
        <time>2020-06-18T15:03:14Z</time>
      </trkpt>
      <trkpt lat="50.06294" lon="1.42705">
        <ele>31.1</ele>
        <time>2020-06-18T15:03:15Z</time>
      </trkpt>
      <trkpt lat="50.06294" lon="1.42706">
        <ele>31.1</ele>
        <time>2020-06-18T15:03:16Z</time>
      </trkpt>
      <trkpt lat="50.06295" lon="1.42709">
        <ele>31.2</ele>
        <time>2020-06-18T15:03:17Z</time>
      </trkpt>
      <trkpt lat="50.06295" lon="1.42711">
        <ele>31.2</ele>
        <time>2020-06-18T15:03:18Z</time>
      </trkpt>
      <trkpt lat="50.06296" lon="1.42713">
        <ele>31.3</ele>
        <time>2020-06-18T15:03:19Z</time>
      </trkpt>
      <trkpt lat="50.06297" lon="1.42715">
        <ele>31.3</ele>
        <time>2020-06-18T15:03:20Z</time>
      </trkpt>
      <trkpt lat="50.06297" lon="1.42715">
        <ele>31.3</ele>
        <time>2020-06-18T15:03:21Z</time>
      </trkpt>
      <trkpt lat="50.06297" lon="1.42716">
        <ele>31.3</ele>
        <time>2020-06-18T15:03:22Z</time>
      </trkpt>
      <trkpt lat="50.06296" lon="1.42715">
        <ele>31.4</ele>
        <time>2020-06-18T15:03:23Z</time>
      </trkpt>
      <trkpt lat="50.06296" lon="1.42718">
        <ele>31.4</ele>
        <time>2020-06-18T15:03:24Z</time>
      </trkpt>
      <trkpt lat="50.06296" lon="1.42718">
        <ele>31.5</ele>
        <time>2020-06-18T15:03:25Z</time>
      </trkpt>
      <trkpt lat="50.06296" lon="1.4272">
        <ele>31.5</ele>
        <time>2020-06-18T15:03:26Z</time>
      </trkpt>
      <trkpt lat="50.06296" lon="1.42719">
        <ele>31.5</ele>
        <time>2020-06-18T15:03:27Z</time>
      </trkpt>
      <trkpt lat="50.06296" lon="1.42721">
        <ele>31.6</ele>
        <time>2020-06-18T15:03:28Z</time>
      </trkpt>
      <trkpt lat="50.06296" lon="1.42721">
        <ele>31.6</ele>
        <time>2020-06-18T15:03:29Z</time>
      </trkpt>
      <trkpt lat="50.06296" lon="1.42722">
        <ele>31.6</ele>
        <time>2020-06-18T15:03:30Z</time>
      </trkpt>
      <trkpt lat="50.06296" lon="1.42721">
        <ele>31.6</ele>
        <time>2020-06-18T15:03:31Z</time>
      </trkpt>
      <trkpt lat="50.06295" lon="1.4272">
        <ele>31.6</ele>
        <time>2020-06-18T15:03:32Z</time>
      </trkpt>
      <trkpt lat="50.06295" lon="1.42721">
        <ele>31.6</ele>
        <time>2020-06-18T15:03:33Z</time>
      </trkpt>
      <trkpt lat="50.06295" lon="1.42722">
        <ele>31.7</ele>
        <time>2020-06-18T15:03:34Z</time>
      </trkpt>
      <trkpt lat="50.06295" lon="1.42722">
        <ele>31.7</ele>
        <time>2020-06-18T15:03:35Z</time>
      </trkpt>
      <trkpt lat="50.06295" lon="1.42723">
        <ele>31.7</ele>
        <time>2020-06-18T15:03:36Z</time>
      </trkpt>
      <trkpt lat="50.06295" lon="1.42722">
        <ele>31.7</ele>
        <time>2020-06-18T15:03:37Z</time>
      </trkpt>
      <trkpt lat="50.06295" lon="1.42722">
        <ele>31.7</ele>
        <time>2020-06-18T15:03:38Z</time>
      </trkpt>
      <trkpt lat="50.06295" lon="1.42722">
        <ele>31.7</ele>
        <time>2020-06-18T15:03:39Z</time>
      </trkpt>
      <trkpt lat="50.06298" lon="1.42726">
        <ele>31.8</ele>
        <time>2020-06-18T15:03:56Z</time>
      </trkpt>
      <trkpt lat="50.063" lon="1.42727">
        <ele>31.9</ele>
        <time>2020-06-18T15:03:57Z</time>
      </trkpt>
      <trkpt lat="50.06302" lon="1.4273">
        <ele>31.9</ele>
        <time>2020-06-18T15:03:58Z</time>
      </trkpt>
      <trkpt lat="50.06304" lon="1.42732">
        <ele>32</ele>
        <time>2020-06-18T15:03:59Z</time>
      </trkpt>
      <trkpt lat="50.06305" lon="1.42731">
        <ele>32</ele>
        <time>2020-06-18T15:04:00Z</time>
      </trkpt>
      <trkpt lat="50.06305" lon="1.4273">
        <ele>32</ele>
        <time>2020-06-18T15:04:01Z</time>
      </trkpt>
      <trkpt lat="50.06305" lon="1.42728">
        <ele>32.1</ele>
        <time>2020-06-18T15:04:02Z</time>
      </trkpt>
      <trkpt lat="50.06305" lon="1.42727">
        <ele>31.9</ele>
        <time>2020-06-18T15:04:03Z</time>
      </trkpt>
      <trkpt lat="50.06305" lon="1.42726">
        <ele>31.8</ele>
        <time>2020-06-18T15:04:04Z</time>
      </trkpt>
      <trkpt lat="50.06305" lon="1.42724">
        <ele>31.8</ele>
        <time>2020-06-18T15:04:05Z</time>
      </trkpt>
      <trkpt lat="50.06305" lon="1.42723">
        <ele>31.6</ele>
        <time>2020-06-18T15:04:06Z</time>
      </trkpt>
      <trkpt lat="50.06305" lon="1.42721">
        <ele>31.5</ele>
        <time>2020-06-18T15:04:07Z</time>
      </trkpt>
      <trkpt lat="50.06305" lon="1.4272">
        <ele>31.5</ele>
        <time>2020-06-18T15:04:08Z</time>
      </trkpt>
      <trkpt lat="50.06306" lon="1.42718">
        <ele>31.3</ele>
        <time>2020-06-18T15:04:09Z</time>
      </trkpt>
      <trkpt lat="50.06306" lon="1.42717">
        <ele>31.3</ele>
        <time>2020-06-18T15:04:10Z</time>
      </trkpt>
      <trkpt lat="50.06306" lon="1.42716">
        <ele>31.2</ele>
        <time>2020-06-18T15:04:11Z</time>
      </trkpt>
      <trkpt lat="50.06306" lon="1.42714">
        <ele>31</ele>
        <time>2020-06-18T15:04:12Z</time>
      </trkpt>
      <trkpt lat="50.06306" lon="1.42713">
        <ele>31</ele>
        <time>2020-06-18T15:04:53Z</time>
      </trkpt>
      <trkpt lat="50.06306" lon="1.42711">
        <ele>30.9</ele>
        <time>2020-06-18T15:04:54Z</time>
      </trkpt>
      <trkpt lat="50.06306" lon="1.42703">
        <ele>30.5</ele>
        <time>2020-06-18T15:04:55Z</time>
      </trkpt>
      <trkpt lat="50.06306" lon="1.42696">
        <ele>30.2</ele>
        <time>2020-06-18T15:04:56Z</time>
      </trkpt>
      <trkpt lat="50.06307" lon="1.4269">
        <ele>30</ele>
        <time>2020-06-18T15:04:57Z</time>
      </trkpt>
      <trkpt lat="50.06307" lon="1.42684">
        <ele>29.7</ele>
        <time>2020-06-18T15:04:58Z</time>
      </trkpt>
      <trkpt lat="50.06307" lon="1.42678">
        <ele>29.5</ele>
        <time>2020-06-18T15:04:59Z</time>
      </trkpt>
      <trkpt lat="50.06307" lon="1.42674">
        <ele>29.3</ele>
        <time>2020-06-18T15:05:00Z</time>
      </trkpt>
      <trkpt lat="50.06308" lon="1.42668">
        <ele>29.1</ele>
        <time>2020-06-18T15:05:01Z</time>
      </trkpt>
      <trkpt lat="50.06308" lon="1.42666">
        <ele>29</ele>
        <time>2020-06-18T15:05:02Z</time>
      </trkpt>
      <trkpt lat="50.06307" lon="1.42662">
        <ele>28.8</ele>
        <time>2020-06-18T15:05:03Z</time>
      </trkpt>
      <trkpt lat="50.06306" lon="1.42656">
        <ele>28.6</ele>
        <time>2020-06-18T15:05:04Z</time>
      </trkpt>
      <trkpt lat="50.06306" lon="1.42655">
        <ele>28.5</ele>
        <time>2020-06-18T15:05:05Z</time>
      </trkpt>
      <trkpt lat="50.06305" lon="1.42651">
        <ele>28.3</ele>
        <time>2020-06-18T15:05:06Z</time>
      </trkpt>
      <trkpt lat="50.06305" lon="1.42646">
        <ele>28.1</ele>
        <time>2020-06-18T15:05:07Z</time>
      </trkpt>
      <trkpt lat="50.06305" lon="1.42645">
        <ele>28.1</ele>
        <time>2020-06-18T15:05:08Z</time>
      </trkpt>
      <trkpt lat="50.06305" lon="1.42641">
        <ele>27.9</ele>
        <time>2020-06-18T15:05:09Z</time>
      </trkpt>
      <trkpt lat="50.06305" lon="1.42639">
        <ele>27.9</ele>
        <time>2020-06-18T15:05:10Z</time>
      </trkpt>
      <trkpt lat="50.06304" lon="1.42634">
        <ele>27.6</ele>
        <time>2020-06-18T15:05:11Z</time>
      </trkpt>
      <trkpt lat="50.06303" lon="1.42632">
        <ele>27.6</ele>
        <time>2020-06-18T15:05:12Z</time>
      </trkpt>
      <trkpt lat="50.06301" lon="1.42628">
        <ele>27.3</ele>
        <time>2020-06-18T15:05:13Z</time>
      </trkpt>
      <trkpt lat="50.06301" lon="1.42626">
        <ele>27.3</ele>
        <time>2020-06-18T15:05:14Z</time>
      </trkpt>
      <trkpt lat="50.06301" lon="1.42623">
        <ele>27.2</ele>
        <time>2020-06-18T15:05:15Z</time>
      </trkpt>
      <trkpt lat="50.063" lon="1.42621">
        <ele>27.1</ele>
        <time>2020-06-18T15:05:16Z</time>
      </trkpt>
      <trkpt lat="50.06298" lon="1.42616">
        <ele>26.8</ele>
        <time>2020-06-18T15:05:17Z</time>
      </trkpt>
      <trkpt lat="50.06298" lon="1.42614">
        <ele>26.8</ele>
        <time>2020-06-18T15:05:18Z</time>
      </trkpt>
      <trkpt lat="50.06295" lon="1.42609">
        <ele>26.5</ele>
        <time>2020-06-18T15:05:19Z</time>
      </trkpt>
      <trkpt lat="50.06295" lon="1.42607">
        <ele>26.4</ele>
        <time>2020-06-18T15:05:20Z</time>
      </trkpt>
      <trkpt lat="50.06294" lon="1.42601">
        <ele>26.2</ele>
        <time>2020-06-18T15:05:21Z</time>
      </trkpt>
      <trkpt lat="50.06292" lon="1.42595">
        <ele>25.9</ele>
        <time>2020-06-18T15:05:22Z</time>
      </trkpt>
      <trkpt lat="50.0629" lon="1.42589">
        <ele>25.6</ele>
        <time>2020-06-18T15:05:23Z</time>
      </trkpt>
      <trkpt lat="50.06287" lon="1.42582">
        <ele>25.3</ele>
        <time>2020-06-18T15:05:24Z</time>
      </trkpt>
      <trkpt lat="50.06285" lon="1.42575">
        <ele>25</ele>
        <time>2020-06-18T15:05:25Z</time>
      </trkpt>
      <trkpt lat="50.06283" lon="1.42568">
        <ele>24.7</ele>
        <time>2020-06-18T15:05:26Z</time>
      </trkpt>
      <trkpt lat="50.0628" lon="1.42562">
        <ele>24.4</ele>
        <time>2020-06-18T15:05:27Z</time>
      </trkpt>
      <trkpt lat="50.06278" lon="1.42556">
        <ele>24.1</ele>
        <time>2020-06-18T15:05:28Z</time>
      </trkpt>
      <trkpt lat="50.06276" lon="1.42551">
        <ele>23.9</ele>
        <time>2020-06-18T15:05:29Z</time>
      </trkpt>
      <trkpt lat="50.06274" lon="1.42547">
        <ele>23.7</ele>
        <time>2020-06-18T15:05:30Z</time>
      </trkpt>
      <trkpt lat="50.06273" lon="1.42543">
        <ele>23.5</ele>
        <time>2020-06-18T15:05:31Z</time>
      </trkpt>
      <trkpt lat="50.06271" lon="1.42537">
        <ele>23.2</ele>
        <time>2020-06-18T15:05:32Z</time>
      </trkpt>
      <trkpt lat="50.0627" lon="1.42535">
        <ele>23.1</ele>
        <time>2020-06-18T15:05:33Z</time>
      </trkpt>
      <trkpt lat="50.06268" lon="1.4253">
        <ele>22.9</ele>
        <time>2020-06-18T15:05:34Z</time>
      </trkpt>
      <trkpt lat="50.06266" lon="1.42525">
        <ele>22.6</ele>
        <time>2020-06-18T15:05:35Z</time>
      </trkpt>
      <trkpt lat="50.06264" lon="1.4252">
        <ele>22.4</ele>
        <time>2020-06-18T15:05:36Z</time>
      </trkpt>
      <trkpt lat="50.06262" lon="1.42515">
        <ele>22.2</ele>
        <time>2020-06-18T15:05:37Z</time>
      </trkpt>
      <trkpt lat="50.0626" lon="1.42511">
        <ele>21.9</ele>
        <time>2020-06-18T15:05:38Z</time>
      </trkpt>
      <trkpt lat="50.06258" lon="1.42507">
        <ele>21.8</ele>
        <time>2020-06-18T15:05:39Z</time>
      </trkpt>
      <trkpt lat="50.06257" lon="1.42503">
        <ele>21.6</ele>
        <time>2020-06-18T15:05:40Z</time>
      </trkpt>
      <trkpt lat="50.06255" lon="1.42499">
        <ele>21.4</ele>
        <time>2020-06-18T15:05:41Z</time>
      </trkpt>
      <trkpt lat="50.06253" lon="1.42495">
        <ele>21.2</ele>
        <time>2020-06-18T15:05:42Z</time>
      </trkpt>
      <trkpt lat="50.06251" lon="1.42491">
        <ele>21</ele>
        <time>2020-06-18T15:05:43Z</time>
      </trkpt>
      <trkpt lat="50.06249" lon="1.42487">
        <ele>20.8</ele>
        <time>2020-06-18T15:05:44Z</time>
      </trkpt>
      <trkpt lat="50.06247" lon="1.42483">
        <ele>20.6</ele>
        <time>2020-06-18T15:05:45Z</time>
      </trkpt>
      <trkpt lat="50.06245" lon="1.42479">
        <ele>20.4</ele>
        <time>2020-06-18T15:05:46Z</time>
      </trkpt>
      <trkpt lat="50.06243" lon="1.42476">
        <ele>20.2</ele>
        <time>2020-06-18T15:05:47Z</time>
      </trkpt>
      <trkpt lat="50.06242" lon="1.42475">
        <ele>20.1</ele>
        <time>2020-06-18T15:05:48Z</time>
      </trkpt>
      <trkpt lat="50.0624" lon="1.42471">
        <ele>19.9</ele>
        <time>2020-06-18T15:05:49Z</time>
      </trkpt>
      <trkpt lat="50.0624" lon="1.42469">
        <ele>19.8</ele>
        <time>2020-06-18T15:05:50Z</time>
      </trkpt>
      <trkpt lat="50.06238" lon="1.42465">
        <ele>19.7</ele>
        <time>2020-06-18T15:05:51Z</time>
      </trkpt>
      <trkpt lat="50.06236" lon="1.4246">
        <ele>19.4</ele>
        <time>2020-06-18T15:05:52Z</time>
      </trkpt>
      <trkpt lat="50.06236" lon="1.42459">
        <ele>19.4</ele>
        <time>2020-06-18T15:05:53Z</time>
      </trkpt>
      <trkpt lat="50.06232" lon="1.42455">
        <ele>19.1</ele>
        <time>2020-06-18T15:05:54Z</time>
      </trkpt>
      <trkpt lat="50.06231" lon="1.42453">
        <ele>19</ele>
        <time>2020-06-18T15:05:55Z</time>
      </trkpt>
      <trkpt lat="50.06229" lon="1.42449">
        <ele>18.8</ele>
        <time>2020-06-18T15:05:56Z</time>
      </trkpt>
      <trkpt lat="50.06228" lon="1.42447">
        <ele>18.7</ele>
        <time>2020-06-18T15:05:57Z</time>
      </trkpt>
      <trkpt lat="50.06226" lon="1.42443">
        <ele>18.5</ele>
        <time>2020-06-18T15:05:58Z</time>
      </trkpt>
      <trkpt lat="50.06225" lon="1.42442">
        <ele>18.4</ele>
        <time>2020-06-18T15:05:59Z</time>
      </trkpt>
      <trkpt lat="50.06223" lon="1.42439">
        <ele>18.2</ele>
        <time>2020-06-18T15:06:00Z</time>
      </trkpt>
      <trkpt lat="50.0622" lon="1.42436">
        <ele>18</ele>
        <time>2020-06-18T15:06:01Z</time>
      </trkpt>
      <trkpt lat="50.06219" lon="1.42435">
        <ele>17.9</ele>
        <time>2020-06-18T15:06:02Z</time>
      </trkpt>
      <trkpt lat="50.06217" lon="1.4243">
        <ele>17.7</ele>
        <time>2020-06-18T15:06:03Z</time>
      </trkpt>
      <trkpt lat="50.06216" lon="1.42429">
        <ele>17.6</ele>
        <time>2020-06-18T15:06:04Z</time>
      </trkpt>
      <trkpt lat="50.06215" lon="1.42425">
        <ele>17.5</ele>
        <time>2020-06-18T15:06:05Z</time>
      </trkpt>
      <trkpt lat="50.06215" lon="1.42423">
        <ele>17.4</ele>
        <time>2020-06-18T15:06:06Z</time>
      </trkpt>
      <trkpt lat="50.06215" lon="1.42422">
        <ele>17.3</ele>
        <time>2020-06-18T15:06:07Z</time>
      </trkpt>
      <trkpt lat="50.06216" lon="1.42423">
        <ele>17.3</ele>
        <time>2020-06-18T15:06:08Z</time>
      </trkpt>
      <trkpt lat="50.06218" lon="1.42422">
        <ele>17.2</ele>
        <time>2020-06-18T15:06:09Z</time>
      </trkpt>
      <trkpt lat="50.06219" lon="1.42422">
        <ele>17.1</ele>
        <time>2020-06-18T15:06:10Z</time>
      </trkpt>
      <trkpt lat="50.06221" lon="1.42424">
        <ele>17</ele>
        <time>2020-06-18T15:06:11Z</time>
      </trkpt>
      <trkpt lat="50.06222" lon="1.42426">
        <ele>16.4</ele>
        <time>2020-06-18T15:06:12Z</time>
      </trkpt>
      <trkpt lat="50.06224" lon="1.42427">
        <ele>16.4</ele>
        <time>2020-06-18T15:06:13Z</time>
      </trkpt>
      <trkpt lat="50.06225" lon="1.42428">
        <ele>16.4</ele>
        <time>2020-06-18T15:06:14Z</time>
      </trkpt>
      <trkpt lat="50.06227" lon="1.42432">
        <ele>16.5</ele>
        <time>2020-06-18T15:06:15Z</time>
      </trkpt>
      <trkpt lat="50.06228" lon="1.42433">
        <ele>16.5</ele>
        <time>2020-06-18T15:06:16Z</time>
      </trkpt>
      <trkpt lat="50.06231" lon="1.42436">
        <ele>16.6</ele>
        <time>2020-06-18T15:06:17Z</time>
      </trkpt>
      <trkpt lat="50.06232" lon="1.42436">
        <ele>16.7</ele>
        <time>2020-06-18T15:06:18Z</time>
      </trkpt>
      <trkpt lat="50.06235" lon="1.42439">
        <ele>16.8</ele>
        <time>2020-06-18T15:06:19Z</time>
      </trkpt>
      <trkpt lat="50.06237" lon="1.42442">
        <ele>16.9</ele>
        <time>2020-06-18T15:06:20Z</time>
      </trkpt>
      <trkpt lat="50.06238" lon="1.42443">
        <ele>16.9</ele>
        <time>2020-06-18T15:06:21Z</time>
      </trkpt>
      <trkpt lat="50.06241" lon="1.42446">
        <ele>17</ele>
        <time>2020-06-18T15:06:22Z</time>
      </trkpt>
      <trkpt lat="50.06244" lon="1.4245">
        <ele>17.1</ele>
        <time>2020-06-18T15:06:23Z</time>
      </trkpt>
      <trkpt lat="50.06247" lon="1.42453">
        <ele>17.2</ele>
        <time>2020-06-18T15:06:24Z</time>
      </trkpt>
      <trkpt lat="50.06249" lon="1.42456">
        <ele>17.2</ele>
        <time>2020-06-18T15:06:25Z</time>
      </trkpt>
      <trkpt lat="50.06252" lon="1.42458">
        <ele>17.3</ele>
        <time>2020-06-18T15:06:26Z</time>
      </trkpt>
      <trkpt lat="50.06256" lon="1.42462">
        <ele>17.4</ele>
        <time>2020-06-18T15:06:27Z</time>
      </trkpt>
      <trkpt lat="50.06257" lon="1.42463">
        <ele>17.5</ele>
        <time>2020-06-18T15:06:28Z</time>
      </trkpt>
      <trkpt lat="50.0626" lon="1.42468">
        <ele>17.6</ele>
        <time>2020-06-18T15:06:29Z</time>
      </trkpt>
      <trkpt lat="50.06262" lon="1.42472">
        <ele>17.7</ele>
        <time>2020-06-18T15:06:30Z</time>
      </trkpt>
      <trkpt lat="50.06264" lon="1.42475">
        <ele>17.7</ele>
        <time>2020-06-18T15:06:31Z</time>
      </trkpt>
      <trkpt lat="50.06267" lon="1.42479">
        <ele>17.8</ele>
        <time>2020-06-18T15:06:32Z</time>
      </trkpt>
      <trkpt lat="50.0627" lon="1.42482">
        <ele>17.9</ele>
        <time>2020-06-18T15:06:33Z</time>
      </trkpt>
      <trkpt lat="50.06273" lon="1.42485">
        <ele>18</ele>
        <time>2020-06-18T15:06:34Z</time>
      </trkpt>
      <trkpt lat="50.06276" lon="1.42489">
        <ele>18.2</ele>
        <time>2020-06-18T15:06:35Z</time>
      </trkpt>
      <trkpt lat="50.06278" lon="1.42492">
        <ele>18.3</ele>
        <time>2020-06-18T15:06:36Z</time>
      </trkpt>
      <trkpt lat="50.06281" lon="1.42497">
        <ele>18.4</ele>
        <time>2020-06-18T15:06:37Z</time>
      </trkpt>
      <trkpt lat="50.06282" lon="1.42498">
        <ele>18.5</ele>
        <time>2020-06-18T15:06:38Z</time>
      </trkpt>
      <trkpt lat="50.06285" lon="1.42503">
        <ele>18.6</ele>
        <time>2020-06-18T15:06:39Z</time>
      </trkpt>
      <trkpt lat="50.06286" lon="1.42505">
        <ele>18.7</ele>
        <time>2020-06-18T15:06:40Z</time>
      </trkpt>
      <trkpt lat="50.06289" lon="1.42511">
        <ele>18.8</ele>
        <time>2020-06-18T15:06:41Z</time>
      </trkpt>
      <trkpt lat="50.06293" lon="1.42516">
        <ele>18.9</ele>
        <time>2020-06-18T15:06:42Z</time>
      </trkpt>
      <trkpt lat="50.06296" lon="1.42521">
        <ele>19</ele>
        <time>2020-06-18T15:06:43Z</time>
      </trkpt>
      <trkpt lat="50.063" lon="1.42526">
        <ele>19.1</ele>
        <time>2020-06-18T15:06:44Z</time>
      </trkpt>
      <trkpt lat="50.06301" lon="1.42532">
        <ele>19.2</ele>
        <time>2020-06-18T15:06:45Z</time>
      </trkpt>
      <trkpt lat="50.06304" lon="1.42537">
        <ele>19.3</ele>
        <time>2020-06-18T15:06:46Z</time>
      </trkpt>
      <trkpt lat="50.06307" lon="1.42542">
        <ele>19.4</ele>
        <time>2020-06-18T15:06:47Z</time>
      </trkpt>
      <trkpt lat="50.06309" lon="1.42546">
        <ele>19.5</ele>
        <time>2020-06-18T15:06:48Z</time>
      </trkpt>
      <trkpt lat="50.06312" lon="1.4255">
        <ele>19.6</ele>
        <time>2020-06-18T15:06:49Z</time>
      </trkpt>
      <trkpt lat="50.06314" lon="1.42555">
        <ele>19.7</ele>
        <time>2020-06-18T15:06:50Z</time>
      </trkpt>
      <trkpt lat="50.06316" lon="1.42559">
        <ele>19.7</ele>
        <time>2020-06-18T15:06:51Z</time>
      </trkpt>
      <trkpt lat="50.06319" lon="1.42564">
        <ele>19.8</ele>
        <time>2020-06-18T15:06:52Z</time>
      </trkpt>
      <trkpt lat="50.06321" lon="1.42569">
        <ele>19.9</ele>
        <time>2020-06-18T15:06:53Z</time>
      </trkpt>
      <trkpt lat="50.06323" lon="1.42574">
        <ele>20</ele>
        <time>2020-06-18T15:06:54Z</time>
      </trkpt>
      <trkpt lat="50.06326" lon="1.42578">
        <ele>20.1</ele>
        <time>2020-06-18T15:06:55Z</time>
      </trkpt>
      <trkpt lat="50.06329" lon="1.42584">
        <ele>20.2</ele>
        <time>2020-06-18T15:06:56Z</time>
      </trkpt>
      <trkpt lat="50.06331" lon="1.42588">
        <ele>20.3</ele>
        <time>2020-06-18T15:06:57Z</time>
      </trkpt>
      <trkpt lat="50.06334" lon="1.42594">
        <ele>20.4</ele>
        <time>2020-06-18T15:06:58Z</time>
      </trkpt>
      <trkpt lat="50.06335" lon="1.42602">
        <ele>20.6</ele>
        <time>2020-06-18T15:06:59Z</time>
      </trkpt>
      <trkpt lat="50.06336" lon="1.42606">
        <ele>20.7</ele>
        <time>2020-06-18T15:07:00Z</time>
      </trkpt>
      <trkpt lat="50.06338" lon="1.42611">
        <ele>20.8</ele>
        <time>2020-06-18T15:07:01Z</time>
      </trkpt>
      <trkpt lat="50.0634" lon="1.42617">
        <ele>21</ele>
        <time>2020-06-18T15:07:02Z</time>
      </trkpt>
      <trkpt lat="50.06342" lon="1.42622">
        <ele>21.1</ele>
        <time>2020-06-18T15:07:03Z</time>
      </trkpt>
      <trkpt lat="50.06345" lon="1.42628">
        <ele>21.3</ele>
        <time>2020-06-18T15:07:04Z</time>
      </trkpt>
      <trkpt lat="50.06348" lon="1.42633">
        <ele>21.4</ele>
        <time>2020-06-18T15:07:05Z</time>
      </trkpt>
      <trkpt lat="50.0635" lon="1.42637">
        <ele>21.6</ele>
        <time>2020-06-18T15:07:06Z</time>
      </trkpt>
      <trkpt lat="50.06352" lon="1.42641">
        <ele>21.7</ele>
        <time>2020-06-18T15:07:07Z</time>
      </trkpt>
      <trkpt lat="50.06354" lon="1.42648">
        <ele>21.8</ele>
        <time>2020-06-18T15:07:08Z</time>
      </trkpt>
      <trkpt lat="50.06357" lon="1.42653">
        <ele>21.9</ele>
        <time>2020-06-18T15:07:09Z</time>
      </trkpt>
      <trkpt lat="50.0636" lon="1.42656">
        <ele>22</ele>
        <time>2020-06-18T15:07:10Z</time>
      </trkpt>
      <trkpt lat="50.06363" lon="1.42658">
        <ele>22.1</ele>
        <time>2020-06-18T15:07:11Z</time>
      </trkpt>
      <trkpt lat="50.06366" lon="1.4266">
        <ele>22.2</ele>
        <time>2020-06-18T15:07:12Z</time>
      </trkpt>
      <trkpt lat="50.06369" lon="1.42662">
        <ele>22.4</ele>
        <time>2020-06-18T15:07:13Z</time>
      </trkpt>
      <trkpt lat="50.06371" lon="1.42665">
        <ele>22.5</ele>
        <time>2020-06-18T15:07:14Z</time>
      </trkpt>
      <trkpt lat="50.06375" lon="1.42669">
        <ele>22.6</ele>
        <time>2020-06-18T15:07:15Z</time>
      </trkpt>
      <trkpt lat="50.06376" lon="1.4267">
        <ele>22.6</ele>
        <time>2020-06-18T15:07:16Z</time>
      </trkpt>
      <trkpt lat="50.06379" lon="1.42672">
        <ele>22.8</ele>
        <time>2020-06-18T15:07:17Z</time>
      </trkpt>
      <trkpt lat="50.06382" lon="1.42675">
        <ele>22.9</ele>
        <time>2020-06-18T15:07:18Z</time>
      </trkpt>
      <trkpt lat="50.06386" lon="1.42677">
        <ele>23</ele>
        <time>2020-06-18T15:07:19Z</time>
      </trkpt>
      <trkpt lat="50.0639" lon="1.4268">
        <ele>23.2</ele>
        <time>2020-06-18T15:07:20Z</time>
      </trkpt>
      <trkpt lat="50.06394" lon="1.42682">
        <ele>23.4</ele>
        <time>2020-06-18T15:07:21Z</time>
      </trkpt>
      <trkpt lat="50.06397" lon="1.42686">
        <ele>23.5</ele>
        <time>2020-06-18T15:07:22Z</time>
      </trkpt>
      <trkpt lat="50.064" lon="1.4269">
        <ele>23.7</ele>
        <time>2020-06-18T15:07:23Z</time>
      </trkpt>
      <trkpt lat="50.06403" lon="1.42692">
        <ele>23.8</ele>
        <time>2020-06-18T15:07:24Z</time>
      </trkpt>
      <trkpt lat="50.06406" lon="1.42695">
        <ele>24</ele>
        <time>2020-06-18T15:07:25Z</time>
      </trkpt>
      <trkpt lat="50.06409" lon="1.42698">
        <ele>24.1</ele>
        <time>2020-06-18T15:07:26Z</time>
      </trkpt>
      <trkpt lat="50.06413" lon="1.42701">
        <ele>24.3</ele>
        <time>2020-06-18T15:07:27Z</time>
      </trkpt>
      <trkpt lat="50.06416" lon="1.42704">
        <ele>24.5</ele>
        <time>2020-06-18T15:07:28Z</time>
      </trkpt>
      <trkpt lat="50.06418" lon="1.42707">
        <ele>24.7</ele>
        <time>2020-06-18T15:07:29Z</time>
      </trkpt>
      <trkpt lat="50.06421" lon="1.4271">
        <ele>24.9</ele>
        <time>2020-06-18T15:07:30Z</time>
      </trkpt>
      <trkpt lat="50.06424" lon="1.42713">
        <ele>25.1</ele>
        <time>2020-06-18T15:07:31Z</time>
      </trkpt>
      <trkpt lat="50.06427" lon="1.42716">
        <ele>25.3</ele>
        <time>2020-06-18T15:07:32Z</time>
      </trkpt>
      <trkpt lat="50.06429" lon="1.4272">
        <ele>25.5</ele>
        <time>2020-06-18T15:07:33Z</time>
      </trkpt>
      <trkpt lat="50.06431" lon="1.42722">
        <ele>25.6</ele>
        <time>2020-06-18T15:07:34Z</time>
      </trkpt>
      <trkpt lat="50.06434" lon="1.42725">
        <ele>25.8</ele>
        <time>2020-06-18T15:07:35Z</time>
      </trkpt>
      <trkpt lat="50.06436" lon="1.42727">
        <ele>26</ele>
        <time>2020-06-18T15:07:36Z</time>
      </trkpt>
      <trkpt lat="50.06439" lon="1.4273">
        <ele>26.2</ele>
        <time>2020-06-18T15:07:37Z</time>
      </trkpt>
      <trkpt lat="50.06441" lon="1.42733">
        <ele>26.4</ele>
        <time>2020-06-18T15:07:38Z</time>
      </trkpt>
      <trkpt lat="50.06444" lon="1.42737">
        <ele>26.7</ele>
        <time>2020-06-18T15:07:39Z</time>
      </trkpt>
      <trkpt lat="50.06445" lon="1.42738">
        <ele>26.8</ele>
        <time>2020-06-18T15:07:40Z</time>
      </trkpt>
      <trkpt lat="50.06447" lon="1.42742">
        <ele>27</ele>
        <time>2020-06-18T15:07:41Z</time>
      </trkpt>
      <trkpt lat="50.06448" lon="1.42744">
        <ele>27.1</ele>
        <time>2020-06-18T15:07:42Z</time>
      </trkpt>
      <trkpt lat="50.0645" lon="1.42747">
        <ele>27.4</ele>
        <time>2020-06-18T15:07:43Z</time>
      </trkpt>
      <trkpt lat="50.06452" lon="1.42749">
        <ele>27.6</ele>
        <time>2020-06-18T15:07:44Z</time>
      </trkpt>
      <trkpt lat="50.06453" lon="1.4275">
        <ele>27.6</ele>
        <time>2020-06-18T15:07:45Z</time>
      </trkpt>
      <trkpt lat="50.06457" lon="1.42752">
        <ele>27.9</ele>
        <time>2020-06-18T15:07:46Z</time>
      </trkpt>
      <trkpt lat="50.06458" lon="1.42754">
        <ele>28.1</ele>
        <time>2020-06-18T15:07:47Z</time>
      </trkpt>
      <trkpt lat="50.0646" lon="1.42758">
        <ele>28.3</ele>
        <time>2020-06-18T15:07:48Z</time>
      </trkpt>
      <trkpt lat="50.06463" lon="1.42761">
        <ele>28.6</ele>
        <time>2020-06-18T15:07:49Z</time>
      </trkpt>
      <trkpt lat="50.06466" lon="1.42764">
        <ele>28.9</ele>
        <time>2020-06-18T15:07:50Z</time>
      </trkpt>
      <trkpt lat="50.06469" lon="1.42765">
        <ele>29.1</ele>
        <time>2020-06-18T15:07:51Z</time>
      </trkpt>
      <trkpt lat="50.06471" lon="1.42768">
        <ele>29.3</ele>
        <time>2020-06-18T15:07:52Z</time>
      </trkpt>
      <trkpt lat="50.06474" lon="1.42772">
        <ele>29.6</ele>
        <time>2020-06-18T15:07:53Z</time>
      </trkpt>
      <trkpt lat="50.06477" lon="1.42776">
        <ele>29.9</ele>
        <time>2020-06-18T15:07:54Z</time>
      </trkpt>
      <trkpt lat="50.06479" lon="1.4278">
        <ele>30.1</ele>
        <time>2020-06-18T15:07:55Z</time>
      </trkpt>
      <trkpt lat="50.06482" lon="1.42783">
        <ele>30.4</ele>
        <time>2020-06-18T15:07:56Z</time>
      </trkpt>
      <trkpt lat="50.06484" lon="1.42786">
        <ele>30.6</ele>
        <time>2020-06-18T15:07:57Z</time>
      </trkpt>
      <trkpt lat="50.06486" lon="1.42791">
        <ele>30.8</ele>
        <time>2020-06-18T15:07:58Z</time>
      </trkpt>
      <trkpt lat="50.06489" lon="1.42795">
        <ele>31</ele>
        <time>2020-06-18T15:07:59Z</time>
      </trkpt>
      <trkpt lat="50.06492" lon="1.428">
        <ele>31.3</ele>
        <time>2020-06-18T15:08:00Z</time>
      </trkpt>
      <trkpt lat="50.06494" lon="1.42804">
        <ele>31.5</ele>
        <time>2020-06-18T15:08:01Z</time>
      </trkpt>
      <trkpt lat="50.06497" lon="1.42807">
        <ele>31.7</ele>
        <time>2020-06-18T15:08:02Z</time>
      </trkpt>
      <trkpt lat="50.06499" lon="1.42809">
        <ele>31.8</ele>
        <time>2020-06-18T15:08:03Z</time>
      </trkpt>
      <trkpt lat="50.065" lon="1.4281">
        <ele>31.9</ele>
        <time>2020-06-18T15:08:04Z</time>
      </trkpt>
      <trkpt lat="50.06502" lon="1.42812">
        <ele>32</ele>
        <time>2020-06-18T15:08:05Z</time>
      </trkpt>
      <trkpt lat="50.06503" lon="1.42814">
        <ele>32.1</ele>
        <time>2020-06-18T15:08:06Z</time>
      </trkpt>
      <trkpt lat="50.06506" lon="1.42818">
        <ele>32.3</ele>
        <time>2020-06-18T15:08:07Z</time>
      </trkpt>
      <trkpt lat="50.06508" lon="1.42822">
        <ele>32.4</ele>
        <time>2020-06-18T15:08:08Z</time>
      </trkpt>
      <trkpt lat="50.0651" lon="1.42825">
        <ele>32.6</ele>
        <time>2020-06-18T15:08:09Z</time>
      </trkpt>
      <trkpt lat="50.06512" lon="1.42829">
        <ele>32.7</ele>
        <time>2020-06-18T15:08:10Z</time>
      </trkpt>
      <trkpt lat="50.06515" lon="1.42836">
        <ele>32.9</ele>
        <time>2020-06-18T15:08:11Z</time>
      </trkpt>
      <trkpt lat="50.06518" lon="1.42842">
        <ele>33.1</ele>
        <time>2020-06-18T15:08:12Z</time>
      </trkpt>
      <trkpt lat="50.0652" lon="1.42847">
        <ele>33.2</ele>
        <time>2020-06-18T15:08:13Z</time>
      </trkpt>
      <trkpt lat="50.06523" lon="1.42852">
        <ele>33.4</ele>
        <time>2020-06-18T15:08:14Z</time>
      </trkpt>
      <trkpt lat="50.06525" lon="1.42857">
        <ele>33.5</ele>
        <time>2020-06-18T15:08:15Z</time>
      </trkpt>
      <trkpt lat="50.06526" lon="1.42859">
        <ele>33.5</ele>
        <time>2020-06-18T15:08:16Z</time>
      </trkpt>
      <trkpt lat="50.06528" lon="1.42862">
        <ele>33.6</ele>
        <time>2020-06-18T15:08:17Z</time>
      </trkpt>
      <trkpt lat="50.0653" lon="1.42869">
        <ele>33.8</ele>
        <time>2020-06-18T15:08:18Z</time>
      </trkpt>
      <trkpt lat="50.06532" lon="1.42876">
        <ele>33.9</ele>
        <time>2020-06-18T15:08:19Z</time>
      </trkpt>
      <trkpt lat="50.06535" lon="1.42881">
        <ele>34.1</ele>
        <time>2020-06-18T15:08:20Z</time>
      </trkpt>
      <trkpt lat="50.06537" lon="1.42887">
        <ele>34.2</ele>
        <time>2020-06-18T15:08:21Z</time>
      </trkpt>
      <trkpt lat="50.06539" lon="1.42893">
        <ele>34.3</ele>
        <time>2020-06-18T15:08:22Z</time>
      </trkpt>
      <trkpt lat="50.06542" lon="1.42897">
        <ele>34.4</ele>
        <time>2020-06-18T15:08:23Z</time>
      </trkpt>
      <trkpt lat="50.06545" lon="1.42902">
        <ele>34.6</ele>
        <time>2020-06-18T15:08:24Z</time>
      </trkpt>
      <trkpt lat="50.06547" lon="1.42906">
        <ele>34.6</ele>
        <time>2020-06-18T15:08:25Z</time>
      </trkpt>
      <trkpt lat="50.0655" lon="1.42912">
        <ele>34.7</ele>
        <time>2020-06-18T15:08:26Z</time>
      </trkpt>
      <trkpt lat="50.06553" lon="1.42918">
        <ele>34.9</ele>
        <time>2020-06-18T15:08:27Z</time>
      </trkpt>
      <trkpt lat="50.06556" lon="1.42924">
        <ele>35</ele>
        <time>2020-06-18T15:08:28Z</time>
      </trkpt>
      <trkpt lat="50.06558" lon="1.42929">
        <ele>35.1</ele>
        <time>2020-06-18T15:08:29Z</time>
      </trkpt>
      <trkpt lat="50.0656" lon="1.42934">
        <ele>35.2</ele>
        <time>2020-06-18T15:08:30Z</time>
      </trkpt>
      <trkpt lat="50.06563" lon="1.42938">
        <ele>35.3</ele>
        <time>2020-06-18T15:08:31Z</time>
      </trkpt>
      <trkpt lat="50.06566" lon="1.42943">
        <ele>35.4</ele>
        <time>2020-06-18T15:08:32Z</time>
      </trkpt>
      <trkpt lat="50.06569" lon="1.42948">
        <ele>35.5</ele>
        <time>2020-06-18T15:08:33Z</time>
      </trkpt>
      <trkpt lat="50.06572" lon="1.42953">
        <ele>35.6</ele>
        <time>2020-06-18T15:08:34Z</time>
      </trkpt>
      <trkpt lat="50.06574" lon="1.4296">
        <ele>35.8</ele>
        <time>2020-06-18T15:08:35Z</time>
      </trkpt>
      <trkpt lat="50.06577" lon="1.42966">
        <ele>35.9</ele>
        <time>2020-06-18T15:08:36Z</time>
      </trkpt>
      <trkpt lat="50.06581" lon="1.42971">
        <ele>36</ele>
        <time>2020-06-18T15:08:37Z</time>
      </trkpt>
      <trkpt lat="50.06584" lon="1.42976">
        <ele>36.1</ele>
        <time>2020-06-18T15:08:38Z</time>
      </trkpt>
      <trkpt lat="50.06587" lon="1.42983">
        <ele>36.2</ele>
        <time>2020-06-18T15:08:39Z</time>
      </trkpt>
      <trkpt lat="50.06589" lon="1.42988">
        <ele>36.3</ele>
        <time>2020-06-18T15:08:40Z</time>
      </trkpt>
      <trkpt lat="50.06592" lon="1.42994">
        <ele>36.4</ele>
        <time>2020-06-18T15:08:41Z</time>
      </trkpt>
      <trkpt lat="50.06594" lon="1.42998">
        <ele>36.4</ele>
        <time>2020-06-18T15:08:42Z</time>
      </trkpt>
      <trkpt lat="50.06598" lon="1.43004">
        <ele>36.5</ele>
        <time>2020-06-18T15:08:43Z</time>
      </trkpt>
      <trkpt lat="50.06601" lon="1.43009">
        <ele>36.6</ele>
        <time>2020-06-18T15:08:44Z</time>
      </trkpt>
      <trkpt lat="50.06604" lon="1.43014">
        <ele>36.7</ele>
        <time>2020-06-18T15:08:45Z</time>
      </trkpt>
      <trkpt lat="50.06606" lon="1.43021">
        <ele>36.8</ele>
        <time>2020-06-18T15:08:46Z</time>
      </trkpt>
      <trkpt lat="50.06609" lon="1.43027">
        <ele>36.9</ele>
        <time>2020-06-18T15:08:47Z</time>
      </trkpt>
      <trkpt lat="50.06612" lon="1.43032">
        <ele>37</ele>
        <time>2020-06-18T15:08:48Z</time>
      </trkpt>
      <trkpt lat="50.06615" lon="1.43038">
        <ele>37.1</ele>
        <time>2020-06-18T15:08:49Z</time>
      </trkpt>
      <trkpt lat="50.06618" lon="1.43044">
        <ele>37.2</ele>
        <time>2020-06-18T15:08:50Z</time>
      </trkpt>
      <trkpt lat="50.06621" lon="1.4305">
        <ele>37.3</ele>
        <time>2020-06-18T15:08:51Z</time>
      </trkpt>
      <trkpt lat="50.06624" lon="1.43056">
        <ele>37.4</ele>
        <time>2020-06-18T15:08:52Z</time>
      </trkpt>
      <trkpt lat="50.06627" lon="1.43061">
        <ele>37.4</ele>
        <time>2020-06-18T15:08:53Z</time>
      </trkpt>
      <trkpt lat="50.06631" lon="1.43067">
        <ele>37.5</ele>
        <time>2020-06-18T15:08:54Z</time>
      </trkpt>
      <trkpt lat="50.06634" lon="1.43072">
        <ele>37.6</ele>
        <time>2020-06-18T15:08:55Z</time>
      </trkpt>
      <trkpt lat="50.06636" lon="1.43077">
        <ele>37.6</ele>
        <time>2020-06-18T15:08:56Z</time>
      </trkpt>
      <trkpt lat="50.0664" lon="1.43084">
        <ele>37.7</ele>
        <time>2020-06-18T15:08:57Z</time>
      </trkpt>
      <trkpt lat="50.06642" lon="1.43089">
        <ele>37.8</ele>
        <time>2020-06-18T15:08:58Z</time>
      </trkpt>
      <trkpt lat="50.06645" lon="1.43094">
        <ele>37.8</ele>
        <time>2020-06-18T15:08:59Z</time>
      </trkpt>
      <trkpt lat="50.06648" lon="1.43101">
        <ele>37.9</ele>
        <time>2020-06-18T15:09:00Z</time>
      </trkpt>
      <trkpt lat="50.06651" lon="1.43106">
        <ele>38</ele>
        <time>2020-06-18T15:09:01Z</time>
      </trkpt>
      <trkpt lat="50.06653" lon="1.43112">
        <ele>38</ele>
        <time>2020-06-18T15:09:02Z</time>
      </trkpt>
      <trkpt lat="50.06656" lon="1.43118">
        <ele>38.1</ele>
        <time>2020-06-18T15:09:03Z</time>
      </trkpt>
      <trkpt lat="50.06658" lon="1.43124">
        <ele>38.2</ele>
        <time>2020-06-18T15:09:04Z</time>
      </trkpt>
      <trkpt lat="50.0666" lon="1.4313">
        <ele>38.2</ele>
        <time>2020-06-18T15:09:05Z</time>
      </trkpt>
      <trkpt lat="50.06663" lon="1.43136">
        <ele>38.3</ele>
        <time>2020-06-18T15:09:06Z</time>
      </trkpt>
      <trkpt lat="50.06666" lon="1.4314">
        <ele>38.4</ele>
        <time>2020-06-18T15:09:07Z</time>
      </trkpt>
      <trkpt lat="50.06668" lon="1.43146">
        <ele>38.4</ele>
        <time>2020-06-18T15:09:08Z</time>
      </trkpt>
      <trkpt lat="50.06671" lon="1.43152">
        <ele>38.5</ele>
        <time>2020-06-18T15:09:09Z</time>
      </trkpt>
      <trkpt lat="50.06673" lon="1.43157">
        <ele>38.6</ele>
        <time>2020-06-18T15:09:10Z</time>
      </trkpt>
      <trkpt lat="50.06676" lon="1.43163">
        <ele>38.6</ele>
        <time>2020-06-18T15:09:11Z</time>
      </trkpt>
      <trkpt lat="50.06679" lon="1.43168">
        <ele>38.7</ele>
        <time>2020-06-18T15:09:12Z</time>
      </trkpt>
      <trkpt lat="50.06681" lon="1.43175">
        <ele>38.8</ele>
        <time>2020-06-18T15:09:13Z</time>
      </trkpt>
      <trkpt lat="50.06683" lon="1.43182">
        <ele>38.8</ele>
        <time>2020-06-18T15:09:14Z</time>
      </trkpt>
      <trkpt lat="50.06685" lon="1.43187">
        <ele>38.9</ele>
        <time>2020-06-18T15:09:15Z</time>
      </trkpt>
      <trkpt lat="50.06687" lon="1.43192">
        <ele>38.9</ele>
        <time>2020-06-18T15:09:16Z</time>
      </trkpt>
      <trkpt lat="50.0669" lon="1.43197">
        <ele>39</ele>
        <time>2020-06-18T15:09:17Z</time>
      </trkpt>
      <trkpt lat="50.06694" lon="1.43204">
        <ele>39</ele>
        <time>2020-06-18T15:09:18Z</time>
      </trkpt>
      <trkpt lat="50.06697" lon="1.43211">
        <ele>39.1</ele>
        <time>2020-06-18T15:09:19Z</time>
      </trkpt>
      <trkpt lat="50.06699" lon="1.43216">
        <ele>39.2</ele>
        <time>2020-06-18T15:09:20Z</time>
      </trkpt>
      <trkpt lat="50.06702" lon="1.43222">
        <ele>39.3</ele>
        <time>2020-06-18T15:09:21Z</time>
      </trkpt>
      <trkpt lat="50.06705" lon="1.43226">
        <ele>39.4</ele>
        <time>2020-06-18T15:09:22Z</time>
      </trkpt>
      <trkpt lat="50.06707" lon="1.43232">
        <ele>39.5</ele>
        <time>2020-06-18T15:09:23Z</time>
      </trkpt>
      <trkpt lat="50.0671" lon="1.43238">
        <ele>39.7</ele>
        <time>2020-06-18T15:09:24Z</time>
      </trkpt>
      <trkpt lat="50.06713" lon="1.43244">
        <ele>39.8</ele>
        <time>2020-06-18T15:09:25Z</time>
      </trkpt>
      <trkpt lat="50.06715" lon="1.4325">
        <ele>39.9</ele>
        <time>2020-06-18T15:09:26Z</time>
      </trkpt>
      <trkpt lat="50.06718" lon="1.43257">
        <ele>40</ele>
        <time>2020-06-18T15:09:27Z</time>
      </trkpt>
      <trkpt lat="50.06721" lon="1.43262">
        <ele>40.1</ele>
        <time>2020-06-18T15:09:28Z</time>
      </trkpt>
      <trkpt lat="50.06723" lon="1.43269">
        <ele>40.1</ele>
        <time>2020-06-18T15:09:29Z</time>
      </trkpt>
      <trkpt lat="50.06727" lon="1.43276">
        <ele>40.2</ele>
        <time>2020-06-18T15:09:30Z</time>
      </trkpt>
      <trkpt lat="50.0673" lon="1.43283">
        <ele>40.3</ele>
        <time>2020-06-18T15:09:31Z</time>
      </trkpt>
      <trkpt lat="50.06733" lon="1.43289">
        <ele>40.3</ele>
        <time>2020-06-18T15:09:32Z</time>
      </trkpt>
      <trkpt lat="50.06736" lon="1.43296">
        <ele>40.4</ele>
        <time>2020-06-18T15:09:33Z</time>
      </trkpt>
      <trkpt lat="50.06739" lon="1.43302">
        <ele>40.4</ele>
        <time>2020-06-18T15:09:34Z</time>
      </trkpt>
      <trkpt lat="50.06742" lon="1.43311">
        <ele>40.5</ele>
        <time>2020-06-18T15:09:35Z</time>
      </trkpt>
      <trkpt lat="50.06744" lon="1.43317">
        <ele>40.6</ele>
        <time>2020-06-18T15:09:36Z</time>
      </trkpt>
      <trkpt lat="50.06747" lon="1.43325">
        <ele>40.8</ele>
        <time>2020-06-18T15:09:37Z</time>
      </trkpt>
      <trkpt lat="50.06749" lon="1.43332">
        <ele>40.8</ele>
        <time>2020-06-18T15:09:38Z</time>
      </trkpt>
      <trkpt lat="50.06752" lon="1.43338">
        <ele>40.9</ele>
        <time>2020-06-18T15:09:39Z</time>
      </trkpt>
      <trkpt lat="50.06754" lon="1.43345">
        <ele>41</ele>
        <time>2020-06-18T15:09:40Z</time>
      </trkpt>
      <trkpt lat="50.06756" lon="1.43351">
        <ele>41</ele>
        <time>2020-06-18T15:09:41Z</time>
      </trkpt>
      <trkpt lat="50.06759" lon="1.43358">
        <ele>41.1</ele>
        <time>2020-06-18T15:09:42Z</time>
      </trkpt>
      <trkpt lat="50.06761" lon="1.43365">
        <ele>41.2</ele>
        <time>2020-06-18T15:09:43Z</time>
      </trkpt>
      <trkpt lat="50.06764" lon="1.43371">
        <ele>41.2</ele>
        <time>2020-06-18T15:09:44Z</time>
      </trkpt>
      <trkpt lat="50.06766" lon="1.43377">
        <ele>41.3</ele>
        <time>2020-06-18T15:09:45Z</time>
      </trkpt>
      <trkpt lat="50.06769" lon="1.43385">
        <ele>41.4</ele>
        <time>2020-06-18T15:09:46Z</time>
      </trkpt>
      <trkpt lat="50.06772" lon="1.43394">
        <ele>41.5</ele>
        <time>2020-06-18T15:09:47Z</time>
      </trkpt>
      <trkpt lat="50.06774" lon="1.43402">
        <ele>41.6</ele>
        <time>2020-06-18T15:09:48Z</time>
      </trkpt>
      <trkpt lat="50.06776" lon="1.43411">
        <ele>41.8</ele>
        <time>2020-06-18T15:09:49Z</time>
      </trkpt>
      <trkpt lat="50.06778" lon="1.43418">
        <ele>41.9</ele>
        <time>2020-06-18T15:09:50Z</time>
      </trkpt>
      <trkpt lat="50.06781" lon="1.43427">
        <ele>42.1</ele>
        <time>2020-06-18T15:09:51Z</time>
      </trkpt>
      <trkpt lat="50.06783" lon="1.43435">
        <ele>42.2</ele>
        <time>2020-06-18T15:09:52Z</time>
      </trkpt>
      <trkpt lat="50.06785" lon="1.43443">
        <ele>42.3</ele>
        <time>2020-06-18T15:09:53Z</time>
      </trkpt>
      <trkpt lat="50.06787" lon="1.43451">
        <ele>42.4</ele>
        <time>2020-06-18T15:09:54Z</time>
      </trkpt>
      <trkpt lat="50.06788" lon="1.43458">
        <ele>42.5</ele>
        <time>2020-06-18T15:09:55Z</time>
      </trkpt>
      <trkpt lat="50.0679" lon="1.43465">
        <ele>42.5</ele>
        <time>2020-06-18T15:09:56Z</time>
      </trkpt>
      <trkpt lat="50.06792" lon="1.43472">
        <ele>42.6</ele>
        <time>2020-06-18T15:09:57Z</time>
      </trkpt>
      <trkpt lat="50.06794" lon="1.4348">
        <ele>42.7</ele>
        <time>2020-06-18T15:09:58Z</time>
      </trkpt>
      <trkpt lat="50.06795" lon="1.43487">
        <ele>42.7</ele>
        <time>2020-06-18T15:09:59Z</time>
      </trkpt>
      <trkpt lat="50.06798" lon="1.43494">
        <ele>42.8</ele>
        <time>2020-06-18T15:10:00Z</time>
      </trkpt>
      <trkpt lat="50.06801" lon="1.43502">
        <ele>42.9</ele>
        <time>2020-06-18T15:10:01Z</time>
      </trkpt>
      <trkpt lat="50.06803" lon="1.43509">
        <ele>42.9</ele>
        <time>2020-06-18T15:10:02Z</time>
      </trkpt>
      <trkpt lat="50.06805" lon="1.43517">
        <ele>43</ele>
        <time>2020-06-18T15:10:03Z</time>
      </trkpt>
      <trkpt lat="50.06807" lon="1.43525">
        <ele>43.1</ele>
        <time>2020-06-18T15:10:04Z</time>
      </trkpt>
      <trkpt lat="50.06808" lon="1.43532">
        <ele>43.2</ele>
        <time>2020-06-18T15:10:05Z</time>
      </trkpt>
      <trkpt lat="50.06809" lon="1.43539">
        <ele>43.3</ele>
        <time>2020-06-18T15:10:06Z</time>
      </trkpt>
      <trkpt lat="50.0681" lon="1.43545">
        <ele>43.4</ele>
        <time>2020-06-18T15:10:07Z</time>
      </trkpt>
      <trkpt lat="50.06812" lon="1.43552">
        <ele>43.5</ele>
        <time>2020-06-18T15:10:08Z</time>
      </trkpt>
      <trkpt lat="50.06813" lon="1.43559">
        <ele>43.7</ele>
        <time>2020-06-18T15:10:09Z</time>
      </trkpt>
      <trkpt lat="50.06816" lon="1.43565">
        <ele>43.8</ele>
        <time>2020-06-18T15:10:10Z</time>
      </trkpt>
      <trkpt lat="50.06817" lon="1.43572">
        <ele>43.9</ele>
        <time>2020-06-18T15:10:11Z</time>
      </trkpt>
      <trkpt lat="50.06819" lon="1.43579">
        <ele>44</ele>
        <time>2020-06-18T15:10:12Z</time>
      </trkpt>
      <trkpt lat="50.0682" lon="1.43586">
        <ele>44.1</ele>
        <time>2020-06-18T15:10:13Z</time>
      </trkpt>
      <trkpt lat="50.06822" lon="1.43593">
        <ele>44.3</ele>
        <time>2020-06-18T15:10:14Z</time>
      </trkpt>
      <trkpt lat="50.06823" lon="1.43599">
        <ele>44.4</ele>
        <time>2020-06-18T15:10:15Z</time>
      </trkpt>
      <trkpt lat="50.06825" lon="1.43606">
        <ele>44.5</ele>
        <time>2020-06-18T15:10:16Z</time>
      </trkpt>
      <trkpt lat="50.06826" lon="1.43612">
        <ele>44.7</ele>
        <time>2020-06-18T15:10:17Z</time>
      </trkpt>
      <trkpt lat="50.06828" lon="1.43618">
        <ele>44.8</ele>
        <time>2020-06-18T15:10:18Z</time>
      </trkpt>
      <trkpt lat="50.0683" lon="1.43625">
        <ele>45</ele>
        <time>2020-06-18T15:10:19Z</time>
      </trkpt>
      <trkpt lat="50.06831" lon="1.43633">
        <ele>45.2</ele>
        <time>2020-06-18T15:10:20Z</time>
      </trkpt>
      <trkpt lat="50.06832" lon="1.4364">
        <ele>45.4</ele>
        <time>2020-06-18T15:10:21Z</time>
      </trkpt>
      <trkpt lat="50.06833" lon="1.43646">
        <ele>45.6</ele>
        <time>2020-06-18T15:10:22Z</time>
      </trkpt>
      <trkpt lat="50.06834" lon="1.43652">
        <ele>45.8</ele>
        <time>2020-06-18T15:10:23Z</time>
      </trkpt>
      <trkpt lat="50.06835" lon="1.43658">
        <ele>45.9</ele>
        <time>2020-06-18T15:10:24Z</time>
      </trkpt>
      <trkpt lat="50.06837" lon="1.43663">
        <ele>46</ele>
        <time>2020-06-18T15:10:25Z</time>
      </trkpt>
      <trkpt lat="50.06838" lon="1.4367">
        <ele>46.2</ele>
        <time>2020-06-18T15:10:26Z</time>
      </trkpt>
      <trkpt lat="50.0684" lon="1.43677">
        <ele>46.4</ele>
        <time>2020-06-18T15:10:27Z</time>
      </trkpt>
      <trkpt lat="50.06841" lon="1.43683">
        <ele>46.5</ele>
        <time>2020-06-18T15:10:28Z</time>
      </trkpt>
      <trkpt lat="50.06842" lon="1.43689">
        <ele>46.7</ele>
        <time>2020-06-18T15:10:29Z</time>
      </trkpt>
      <trkpt lat="50.06844" lon="1.43697">
        <ele>46.8</ele>
        <time>2020-06-18T15:10:30Z</time>
      </trkpt>
      <trkpt lat="50.06846" lon="1.43703">
        <ele>47</ele>
        <time>2020-06-18T15:10:31Z</time>
      </trkpt>
      <trkpt lat="50.06847" lon="1.4371">
        <ele>47.2</ele>
        <time>2020-06-18T15:10:32Z</time>
      </trkpt>
      <trkpt lat="50.06847" lon="1.43719">
        <ele>47.3</ele>
        <time>2020-06-18T15:10:33Z</time>
      </trkpt>
      <trkpt lat="50.06849" lon="1.43726">
        <ele>47.5</ele>
        <time>2020-06-18T15:10:34Z</time>
      </trkpt>
      <trkpt lat="50.06849" lon="1.43733">
        <ele>47.6</ele>
        <time>2020-06-18T15:10:35Z</time>
      </trkpt>
      <trkpt lat="50.06851" lon="1.43739">
        <ele>47.7</ele>
        <time>2020-06-18T15:10:36Z</time>
      </trkpt>
      <trkpt lat="50.06852" lon="1.43747">
        <ele>47.9</ele>
        <time>2020-06-18T15:10:37Z</time>
      </trkpt>
      <trkpt lat="50.06854" lon="1.43755">
        <ele>48</ele>
        <time>2020-06-18T15:10:38Z</time>
      </trkpt>
      <trkpt lat="50.06855" lon="1.43763">
        <ele>48.1</ele>
        <time>2020-06-18T15:10:39Z</time>
      </trkpt>
      <trkpt lat="50.06856" lon="1.4377">
        <ele>48.1</ele>
        <time>2020-06-18T15:10:40Z</time>
      </trkpt>
      <trkpt lat="50.06856" lon="1.43777">
        <ele>48.2</ele>
        <time>2020-06-18T15:10:41Z</time>
      </trkpt>
      <trkpt lat="50.06857" lon="1.43785">
        <ele>48.3</ele>
        <time>2020-06-18T15:10:42Z</time>
      </trkpt>
      <trkpt lat="50.06858" lon="1.43792">
        <ele>48.4</ele>
        <time>2020-06-18T15:10:43Z</time>
      </trkpt>
      <trkpt lat="50.0686" lon="1.43799">
        <ele>48.4</ele>
        <time>2020-06-18T15:10:44Z</time>
      </trkpt>
      <trkpt lat="50.0686" lon="1.43807">
        <ele>48.5</ele>
        <time>2020-06-18T15:10:45Z</time>
      </trkpt>
      <trkpt lat="50.0686" lon="1.43814">
        <ele>48.6</ele>
        <time>2020-06-18T15:10:46Z</time>
      </trkpt>
      <trkpt lat="50.0686" lon="1.43821">
        <ele>48.6</ele>
        <time>2020-06-18T15:10:47Z</time>
      </trkpt>
      <trkpt lat="50.06859" lon="1.43827">
        <ele>48.7</ele>
        <time>2020-06-18T15:10:48Z</time>
      </trkpt>
      <trkpt lat="50.06858" lon="1.43833">
        <ele>48.7</ele>
        <time>2020-06-18T15:10:49Z</time>
      </trkpt>
      <trkpt lat="50.06859" lon="1.43839">
        <ele>48.8</ele>
        <time>2020-06-18T15:10:50Z</time>
      </trkpt>
      <trkpt lat="50.06859" lon="1.43846">
        <ele>48.9</ele>
        <time>2020-06-18T15:10:51Z</time>
      </trkpt>
      <trkpt lat="50.06858" lon="1.43851">
        <ele>49</ele>
        <time>2020-06-18T15:10:52Z</time>
      </trkpt>
      <trkpt lat="50.06858" lon="1.43858">
        <ele>49.1</ele>
        <time>2020-06-18T15:10:53Z</time>
      </trkpt>
      <trkpt lat="50.06858" lon="1.43864">
        <ele>49.2</ele>
        <time>2020-06-18T15:10:54Z</time>
      </trkpt>
      <trkpt lat="50.06857" lon="1.4387">
        <ele>49.3</ele>
        <time>2020-06-18T15:10:55Z</time>
      </trkpt>
      <trkpt lat="50.06856" lon="1.43877">
        <ele>49.4</ele>
        <time>2020-06-18T15:10:56Z</time>
      </trkpt>
      <trkpt lat="50.06855" lon="1.43884">
        <ele>49.6</ele>
        <time>2020-06-18T15:10:57Z</time>
      </trkpt>
      <trkpt lat="50.06854" lon="1.43891">
        <ele>49.8</ele>
        <time>2020-06-18T15:10:58Z</time>
      </trkpt>
      <trkpt lat="50.06853" lon="1.43898">
        <ele>50</ele>
        <time>2020-06-18T15:10:59Z</time>
      </trkpt>
      <trkpt lat="50.06852" lon="1.43906">
        <ele>50.2</ele>
        <time>2020-06-18T15:11:00Z</time>
      </trkpt>
      <trkpt lat="50.06851" lon="1.43914">
        <ele>50.3</ele>
        <time>2020-06-18T15:11:01Z</time>
      </trkpt>
      <trkpt lat="50.06851" lon="1.43921">
        <ele>50.5</ele>
        <time>2020-06-18T15:11:02Z</time>
      </trkpt>
      <trkpt lat="50.06851" lon="1.43928">
        <ele>50.7</ele>
        <time>2020-06-18T15:11:03Z</time>
      </trkpt>
      <trkpt lat="50.06851" lon="1.43934">
        <ele>50.8</ele>
        <time>2020-06-18T15:11:04Z</time>
      </trkpt>
      <trkpt lat="50.06851" lon="1.43941">
        <ele>51</ele>
        <time>2020-06-18T15:11:05Z</time>
      </trkpt>
      <trkpt lat="50.06851" lon="1.43949">
        <ele>51.2</ele>
        <time>2020-06-18T15:11:06Z</time>
      </trkpt>
      <trkpt lat="50.06851" lon="1.43957">
        <ele>51.4</ele>
        <time>2020-06-18T15:11:07Z</time>
      </trkpt>
      <trkpt lat="50.0685" lon="1.43964">
        <ele>51.6</ele>
        <time>2020-06-18T15:11:08Z</time>
      </trkpt>
      <trkpt lat="50.06851" lon="1.43971">
        <ele>51.8</ele>
        <time>2020-06-18T15:11:09Z</time>
      </trkpt>
      <trkpt lat="50.06852" lon="1.43978">
        <ele>51.9</ele>
        <time>2020-06-18T15:11:10Z</time>
      </trkpt>
      <trkpt lat="50.06852" lon="1.43987">
        <ele>52.1</ele>
        <time>2020-06-18T15:11:11Z</time>
      </trkpt>
      <trkpt lat="50.06851" lon="1.43994">
        <ele>52.3</ele>
        <time>2020-06-18T15:11:12Z</time>
      </trkpt>
      <trkpt lat="50.06852" lon="1.44">
        <ele>52.5</ele>
        <time>2020-06-18T15:11:13Z</time>
      </trkpt>
      <trkpt lat="50.06851" lon="1.44006">
        <ele>52.6</ele>
        <time>2020-06-18T15:11:14Z</time>
      </trkpt>
      <trkpt lat="50.0685" lon="1.44014">
        <ele>52.8</ele>
        <time>2020-06-18T15:11:15Z</time>
      </trkpt>
      <trkpt lat="50.06849" lon="1.44021">
        <ele>53</ele>
        <time>2020-06-18T15:11:16Z</time>
      </trkpt>
      <trkpt lat="50.0685" lon="1.44028">
        <ele>53.2</ele>
        <time>2020-06-18T15:11:17Z</time>
      </trkpt>
      <trkpt lat="50.0685" lon="1.44036">
        <ele>53.4</ele>
        <time>2020-06-18T15:11:18Z</time>
      </trkpt>
      <trkpt lat="50.0685" lon="1.44043">
        <ele>53.6</ele>
        <time>2020-06-18T15:11:19Z</time>
      </trkpt>
      <trkpt lat="50.06848" lon="1.44049">
        <ele>53.8</ele>
        <time>2020-06-18T15:11:20Z</time>
      </trkpt>
      <trkpt lat="50.06848" lon="1.44056">
        <ele>53.9</ele>
        <time>2020-06-18T15:11:21Z</time>
      </trkpt>
      <trkpt lat="50.06848" lon="1.44061">
        <ele>54.1</ele>
        <time>2020-06-18T15:11:22Z</time>
      </trkpt>
      <trkpt lat="50.06848" lon="1.44067">
        <ele>54.3</ele>
        <time>2020-06-18T15:11:23Z</time>
      </trkpt>
      <trkpt lat="50.06847" lon="1.44073">
        <ele>54.4</ele>
        <time>2020-06-18T15:11:24Z</time>
      </trkpt>
      <trkpt lat="50.06846" lon="1.44078">
        <ele>54.6</ele>
        <time>2020-06-18T15:11:25Z</time>
      </trkpt>
      <trkpt lat="50.06846" lon="1.44085">
        <ele>54.7</ele>
        <time>2020-06-18T15:11:26Z</time>
      </trkpt>
      <trkpt lat="50.06845" lon="1.44093">
        <ele>55</ele>
        <time>2020-06-18T15:11:27Z</time>
      </trkpt>
      <trkpt lat="50.06844" lon="1.44099">
        <ele>55.1</ele>
        <time>2020-06-18T15:11:28Z</time>
      </trkpt>
      <trkpt lat="50.06843" lon="1.44106">
        <ele>55.3</ele>
        <time>2020-06-18T15:11:29Z</time>
      </trkpt>
      <trkpt lat="50.06842" lon="1.44111">
        <ele>55.5</ele>
        <time>2020-06-18T15:11:30Z</time>
      </trkpt>
      <trkpt lat="50.06842" lon="1.44118">
        <ele>55.7</ele>
        <time>2020-06-18T15:11:31Z</time>
      </trkpt>
      <trkpt lat="50.06841" lon="1.44124">
        <ele>55.9</ele>
        <time>2020-06-18T15:11:32Z</time>
      </trkpt>
      <trkpt lat="50.0684" lon="1.4413">
        <ele>56.1</ele>
        <time>2020-06-18T15:11:33Z</time>
      </trkpt>
      <trkpt lat="50.06839" lon="1.44137">
        <ele>56.3</ele>
        <time>2020-06-18T15:11:34Z</time>
      </trkpt>
      <trkpt lat="50.06839" lon="1.44143">
        <ele>56.4</ele>
        <time>2020-06-18T15:11:35Z</time>
      </trkpt>
      <trkpt lat="50.06838" lon="1.4415">
        <ele>56.6</ele>
        <time>2020-06-18T15:11:36Z</time>
      </trkpt>
      <trkpt lat="50.06837" lon="1.44158">
        <ele>56.7</ele>
        <time>2020-06-18T15:11:37Z</time>
      </trkpt>
      <trkpt lat="50.06837" lon="1.44166">
        <ele>56.9</ele>
        <time>2020-06-18T15:11:38Z</time>
      </trkpt>
      <trkpt lat="50.06837" lon="1.44174">
        <ele>57.1</ele>
        <time>2020-06-18T15:11:39Z</time>
      </trkpt>
      <trkpt lat="50.06835" lon="1.44182">
        <ele>57.3</ele>
        <time>2020-06-18T15:11:40Z</time>
      </trkpt>
      <trkpt lat="50.06834" lon="1.44191">
        <ele>57.6</ele>
        <time>2020-06-18T15:11:41Z</time>
      </trkpt>
      <trkpt lat="50.06833" lon="1.44197">
        <ele>57.7</ele>
        <time>2020-06-18T15:11:42Z</time>
      </trkpt>
      <trkpt lat="50.06832" lon="1.44203">
        <ele>57.9</ele>
        <time>2020-06-18T15:11:43Z</time>
      </trkpt>
      <trkpt lat="50.06831" lon="1.44212">
        <ele>58.2</ele>
        <time>2020-06-18T15:11:44Z</time>
      </trkpt>
      <trkpt lat="50.06829" lon="1.44218">
        <ele>58.4</ele>
        <time>2020-06-18T15:11:45Z</time>
      </trkpt>
      <trkpt lat="50.06828" lon="1.44223">
        <ele>58.6</ele>
        <time>2020-06-18T15:11:46Z</time>
      </trkpt>
      <trkpt lat="50.06826" lon="1.4423">
        <ele>58.8</ele>
        <time>2020-06-18T15:11:47Z</time>
      </trkpt>
      <trkpt lat="50.06826" lon="1.44238">
        <ele>59</ele>
        <time>2020-06-18T15:11:48Z</time>
      </trkpt>
      <trkpt lat="50.06825" lon="1.44245">
        <ele>59.2</ele>
        <time>2020-06-18T15:11:49Z</time>
      </trkpt>
      <trkpt lat="50.06824" lon="1.44252">
        <ele>59.4</ele>
        <time>2020-06-18T15:11:50Z</time>
      </trkpt>
      <trkpt lat="50.06824" lon="1.4426">
        <ele>59.5</ele>
        <time>2020-06-18T15:11:51Z</time>
      </trkpt>
      <trkpt lat="50.06823" lon="1.44267">
        <ele>59.7</ele>
        <time>2020-06-18T15:11:52Z</time>
      </trkpt>
      <trkpt lat="50.06822" lon="1.44273">
        <ele>59.8</ele>
        <time>2020-06-18T15:11:53Z</time>
      </trkpt>
      <trkpt lat="50.06822" lon="1.44281">
        <ele>60</ele>
        <time>2020-06-18T15:11:54Z</time>
      </trkpt>
      <trkpt lat="50.06821" lon="1.44288">
        <ele>60.2</ele>
        <time>2020-06-18T15:11:55Z</time>
      </trkpt>
      <trkpt lat="50.0682" lon="1.44295">
        <ele>60.4</ele>
        <time>2020-06-18T15:11:56Z</time>
      </trkpt>
      <trkpt lat="50.06819" lon="1.44303">
        <ele>60.6</ele>
        <time>2020-06-18T15:11:57Z</time>
      </trkpt>
      <trkpt lat="50.06819" lon="1.44309">
        <ele>60.7</ele>
        <time>2020-06-18T15:11:58Z</time>
      </trkpt>
      <trkpt lat="50.06818" lon="1.44316">
        <ele>60.9</ele>
        <time>2020-06-18T15:11:59Z</time>
      </trkpt>
      <trkpt lat="50.06817" lon="1.44323">
        <ele>61.1</ele>
        <time>2020-06-18T15:12:00Z</time>
      </trkpt>
      <trkpt lat="50.06816" lon="1.4433">
        <ele>61.2</ele>
        <time>2020-06-18T15:12:01Z</time>
      </trkpt>
      <trkpt lat="50.06814" lon="1.44338">
        <ele>61.4</ele>
        <time>2020-06-18T15:12:02Z</time>
      </trkpt>
      <trkpt lat="50.06813" lon="1.44345">
        <ele>61.6</ele>
        <time>2020-06-18T15:12:03Z</time>
      </trkpt>
      <trkpt lat="50.06812" lon="1.44353">
        <ele>61.8</ele>
        <time>2020-06-18T15:12:04Z</time>
      </trkpt>
      <trkpt lat="50.06811" lon="1.4436">
        <ele>61.9</ele>
        <time>2020-06-18T15:12:05Z</time>
      </trkpt>
      <trkpt lat="50.0681" lon="1.44368">
        <ele>62.1</ele>
        <time>2020-06-18T15:12:06Z</time>
      </trkpt>
      <trkpt lat="50.0681" lon="1.44376">
        <ele>62.2</ele>
        <time>2020-06-18T15:12:07Z</time>
      </trkpt>
      <trkpt lat="50.06809" lon="1.44383">
        <ele>62.4</ele>
        <time>2020-06-18T15:12:08Z</time>
      </trkpt>
      <trkpt lat="50.06808" lon="1.4439">
        <ele>62.5</ele>
        <time>2020-06-18T15:12:09Z</time>
      </trkpt>
      <trkpt lat="50.06807" lon="1.44397">
        <ele>62.5</ele>
        <time>2020-06-18T15:12:10Z</time>
      </trkpt>
      <trkpt lat="50.06806" lon="1.44404">
        <ele>62.6</ele>
        <time>2020-06-18T15:12:11Z</time>
      </trkpt>
      <trkpt lat="50.06805" lon="1.44411">
        <ele>62.7</ele>
        <time>2020-06-18T15:12:12Z</time>
      </trkpt>
      <trkpt lat="50.06804" lon="1.44418">
        <ele>62.7</ele>
        <time>2020-06-18T15:12:13Z</time>
      </trkpt>
      <trkpt lat="50.06804" lon="1.44424">
        <ele>62.8</ele>
        <time>2020-06-18T15:12:14Z</time>
      </trkpt>
      <trkpt lat="50.06804" lon="1.44432">
        <ele>62.9</ele>
        <time>2020-06-18T15:12:15Z</time>
      </trkpt>
      <trkpt lat="50.06803" lon="1.4444">
        <ele>62.9</ele>
        <time>2020-06-18T15:12:16Z</time>
      </trkpt>
      <trkpt lat="50.06802" lon="1.44445">
        <ele>63</ele>
        <time>2020-06-18T15:12:17Z</time>
      </trkpt>
      <trkpt lat="50.06801" lon="1.44451">
        <ele>63</ele>
        <time>2020-06-18T15:12:18Z</time>
      </trkpt>
      <trkpt lat="50.06799" lon="1.44457">
        <ele>63</ele>
        <time>2020-06-18T15:12:19Z</time>
      </trkpt>
      <trkpt lat="50.06799" lon="1.44463">
        <ele>63.1</ele>
        <time>2020-06-18T15:12:20Z</time>
      </trkpt>
      <trkpt lat="50.06799" lon="1.4447">
        <ele>63.1</ele>
        <time>2020-06-18T15:12:21Z</time>
      </trkpt>
      <trkpt lat="50.068" lon="1.44478">
        <ele>63.2</ele>
        <time>2020-06-18T15:12:22Z</time>
      </trkpt>
      <trkpt lat="50.06799" lon="1.44486">
        <ele>63.3</ele>
        <time>2020-06-18T15:12:23Z</time>
      </trkpt>
      <trkpt lat="50.06799" lon="1.44493">
        <ele>63.3</ele>
        <time>2020-06-18T15:12:24Z</time>
      </trkpt>
      <trkpt lat="50.068" lon="1.445">
        <ele>63.4</ele>
        <time>2020-06-18T15:12:25Z</time>
      </trkpt>
      <trkpt lat="50.06799" lon="1.44507">
        <ele>63.4</ele>
        <time>2020-06-18T15:12:26Z</time>
      </trkpt>
      <trkpt lat="50.06798" lon="1.44515">
        <ele>63.5</ele>
        <time>2020-06-18T15:12:27Z</time>
      </trkpt>
      <trkpt lat="50.06799" lon="1.44524">
        <ele>63.6</ele>
        <time>2020-06-18T15:12:28Z</time>
      </trkpt>
      <trkpt lat="50.06799" lon="1.44532">
        <ele>63.7</ele>
        <time>2020-06-18T15:12:29Z</time>
      </trkpt>
      <trkpt lat="50.06799" lon="1.44541">
        <ele>63.8</ele>
        <time>2020-06-18T15:12:30Z</time>
      </trkpt>
      <trkpt lat="50.068" lon="1.44552">
        <ele>63.9</ele>
        <time>2020-06-18T15:12:31Z</time>
      </trkpt>
      <trkpt lat="50.06802" lon="1.44561">
        <ele>64</ele>
        <time>2020-06-18T15:12:32Z</time>
      </trkpt>
      <trkpt lat="50.06804" lon="1.44567">
        <ele>64.1</ele>
        <time>2020-06-18T15:12:33Z</time>
      </trkpt>
      <trkpt lat="50.06805" lon="1.44575">
        <ele>64.2</ele>
        <time>2020-06-18T15:12:34Z</time>
      </trkpt>
      <trkpt lat="50.06806" lon="1.44582">
        <ele>64.3</ele>
        <time>2020-06-18T15:12:35Z</time>
      </trkpt>
      <trkpt lat="50.06809" lon="1.44591">
        <ele>64.4</ele>
        <time>2020-06-18T15:12:36Z</time>
      </trkpt>
      <trkpt lat="50.0681" lon="1.44597">
        <ele>64.5</ele>
        <time>2020-06-18T15:12:37Z</time>
      </trkpt>
      <trkpt lat="50.06811" lon="1.44604">
        <ele>64.6</ele>
        <time>2020-06-18T15:12:38Z</time>
      </trkpt>
      <trkpt lat="50.06812" lon="1.44611">
        <ele>64.7</ele>
        <time>2020-06-18T15:12:39Z</time>
      </trkpt>
      <trkpt lat="50.06813" lon="1.44618">
        <ele>64.9</ele>
        <time>2020-06-18T15:12:40Z</time>
      </trkpt>
      <trkpt lat="50.06814" lon="1.44626">
        <ele>65</ele>
        <time>2020-06-18T15:12:41Z</time>
      </trkpt>
      <trkpt lat="50.06816" lon="1.44632">
        <ele>65.2</ele>
        <time>2020-06-18T15:12:42Z</time>
      </trkpt>
      <trkpt lat="50.06818" lon="1.44637">
        <ele>65.3</ele>
        <time>2020-06-18T15:12:43Z</time>
      </trkpt>
      <trkpt lat="50.06822" lon="1.44643">
        <ele>65.5</ele>
        <time>2020-06-18T15:12:44Z</time>
      </trkpt>
      <trkpt lat="50.06825" lon="1.4465">
        <ele>65.7</ele>
        <time>2020-06-18T15:12:45Z</time>
      </trkpt>
      <trkpt lat="50.06827" lon="1.44656">
        <ele>65.9</ele>
        <time>2020-06-18T15:12:46Z</time>
      </trkpt>
      <trkpt lat="50.06829" lon="1.44661">
        <ele>66.1</ele>
        <time>2020-06-18T15:12:47Z</time>
      </trkpt>
      <trkpt lat="50.06831" lon="1.44668">
        <ele>66.3</ele>
        <time>2020-06-18T15:12:48Z</time>
      </trkpt>
      <trkpt lat="50.06832" lon="1.44674">
        <ele>66.5</ele>
        <time>2020-06-18T15:12:49Z</time>
      </trkpt>
      <trkpt lat="50.06833" lon="1.4468">
        <ele>66.7</ele>
        <time>2020-06-18T15:12:50Z</time>
      </trkpt>
      <trkpt lat="50.06834" lon="1.44682">
        <ele>66.8</ele>
        <time>2020-06-18T15:12:51Z</time>
      </trkpt>
      <trkpt lat="50.06835" lon="1.44688">
        <ele>67</ele>
        <time>2020-06-18T15:12:52Z</time>
      </trkpt>
      <trkpt lat="50.06837" lon="1.44692">
        <ele>67.2</ele>
        <time>2020-06-18T15:12:53Z</time>
      </trkpt>
      <trkpt lat="50.06839" lon="1.44699">
        <ele>67.4</ele>
        <time>2020-06-18T15:12:54Z</time>
      </trkpt>
      <trkpt lat="50.0684" lon="1.44704">
        <ele>67.6</ele>
        <time>2020-06-18T15:12:55Z</time>
      </trkpt>
      <trkpt lat="50.06842" lon="1.44713">
        <ele>67.9</ele>
        <time>2020-06-18T15:12:56Z</time>
      </trkpt>
      <trkpt lat="50.06843" lon="1.44718">
        <ele>68</ele>
        <time>2020-06-18T15:12:57Z</time>
      </trkpt>
      <trkpt lat="50.06845" lon="1.44724">
        <ele>68.2</ele>
        <time>2020-06-18T15:12:58Z</time>
      </trkpt>
      <trkpt lat="50.06847" lon="1.44731">
        <ele>68.5</ele>
        <time>2020-06-18T15:12:59Z</time>
      </trkpt>
      <trkpt lat="50.0685" lon="1.44738">
        <ele>68.8</ele>
        <time>2020-06-18T15:13:00Z</time>
      </trkpt>
      <trkpt lat="50.06852" lon="1.44745">
        <ele>69</ele>
        <time>2020-06-18T15:13:01Z</time>
      </trkpt>
      <trkpt lat="50.06854" lon="1.44752">
        <ele>69.2</ele>
        <time>2020-06-18T15:13:02Z</time>
      </trkpt>
      <trkpt lat="50.06855" lon="1.44756">
        <ele>69.5</ele>
        <time>2020-06-18T15:13:03Z</time>
      </trkpt>
      <trkpt lat="50.06857" lon="1.44761">
        <ele>69.7</ele>
        <time>2020-06-18T15:13:04Z</time>
      </trkpt>
      <trkpt lat="50.06859" lon="1.44766">
        <ele>70</ele>
        <time>2020-06-18T15:13:05Z</time>
      </trkpt>
      <trkpt lat="50.06861" lon="1.44771">
        <ele>70.2</ele>
        <time>2020-06-18T15:13:06Z</time>
      </trkpt>
      <trkpt lat="50.06863" lon="1.44777">
        <ele>70.5</ele>
        <time>2020-06-18T15:13:07Z</time>
      </trkpt>
      <trkpt lat="50.06865" lon="1.44784">
        <ele>70.7</ele>
        <time>2020-06-18T15:13:08Z</time>
      </trkpt>
      <trkpt lat="50.06868" lon="1.4479">
        <ele>70.9</ele>
        <time>2020-06-18T15:13:09Z</time>
      </trkpt>
      <trkpt lat="50.06869" lon="1.44796">
        <ele>71.1</ele>
        <time>2020-06-18T15:13:10Z</time>
      </trkpt>
      <trkpt lat="50.0687" lon="1.44803">
        <ele>71.4</ele>
        <time>2020-06-18T15:13:11Z</time>
      </trkpt>
      <trkpt lat="50.06872" lon="1.44809">
        <ele>71.6</ele>
        <time>2020-06-18T15:13:12Z</time>
      </trkpt>
      <trkpt lat="50.06874" lon="1.44815">
        <ele>71.9</ele>
        <time>2020-06-18T15:13:13Z</time>
      </trkpt>
      <trkpt lat="50.06876" lon="1.4482">
        <ele>72.1</ele>
        <time>2020-06-18T15:13:14Z</time>
      </trkpt>
      <trkpt lat="50.06877" lon="1.44827">
        <ele>72.3</ele>
        <time>2020-06-18T15:13:15Z</time>
      </trkpt>
      <trkpt lat="50.06879" lon="1.44834">
        <ele>72.5</ele>
        <time>2020-06-18T15:13:16Z</time>
      </trkpt>
      <trkpt lat="50.06881" lon="1.4484">
        <ele>72.8</ele>
        <time>2020-06-18T15:13:17Z</time>
      </trkpt>
      <trkpt lat="50.06883" lon="1.44847">
        <ele>73</ele>
        <time>2020-06-18T15:13:18Z</time>
      </trkpt>
      <trkpt lat="50.06886" lon="1.44854">
        <ele>73.3</ele>
        <time>2020-06-18T15:13:19Z</time>
      </trkpt>
      <trkpt lat="50.06888" lon="1.44859">
        <ele>73.4</ele>
        <time>2020-06-18T15:13:20Z</time>
      </trkpt>
      <trkpt lat="50.06889" lon="1.44863">
        <ele>73.6</ele>
        <time>2020-06-18T15:13:21Z</time>
      </trkpt>
      <trkpt lat="50.0689" lon="1.44868">
        <ele>73.7</ele>
        <time>2020-06-18T15:13:22Z</time>
      </trkpt>
      <trkpt lat="50.06892" lon="1.44872">
        <ele>73.8</ele>
        <time>2020-06-18T15:13:23Z</time>
      </trkpt>
      <trkpt lat="50.06893" lon="1.44876">
        <ele>73.9</ele>
        <time>2020-06-18T15:13:24Z</time>
      </trkpt>
      <trkpt lat="50.06895" lon="1.44881">
        <ele>74.1</ele>
        <time>2020-06-18T15:13:25Z</time>
      </trkpt>
      <trkpt lat="50.06896" lon="1.44885">
        <ele>74.2</ele>
        <time>2020-06-18T15:13:26Z</time>
      </trkpt>
      <trkpt lat="50.06898" lon="1.44891">
        <ele>74.4</ele>
        <time>2020-06-18T15:13:27Z</time>
      </trkpt>
      <trkpt lat="50.069" lon="1.44895">
        <ele>74.5</ele>
        <time>2020-06-18T15:13:28Z</time>
      </trkpt>
      <trkpt lat="50.06902" lon="1.44901">
        <ele>74.6</ele>
        <time>2020-06-18T15:13:29Z</time>
      </trkpt>
      <trkpt lat="50.06905" lon="1.44908">
        <ele>74.8</ele>
        <time>2020-06-18T15:13:30Z</time>
      </trkpt>
      <trkpt lat="50.06907" lon="1.44913">
        <ele>74.9</ele>
        <time>2020-06-18T15:13:31Z</time>
      </trkpt>
      <trkpt lat="50.0691" lon="1.44918">
        <ele>75</ele>
        <time>2020-06-18T15:13:32Z</time>
      </trkpt>
      <trkpt lat="50.06913" lon="1.44922">
        <ele>75.1</ele>
        <time>2020-06-18T15:13:33Z</time>
      </trkpt>
      <trkpt lat="50.06915" lon="1.44926">
        <ele>75.2</ele>
        <time>2020-06-18T15:13:34Z</time>
      </trkpt>
      <trkpt lat="50.06918" lon="1.4493">
        <ele>75.3</ele>
        <time>2020-06-18T15:13:35Z</time>
      </trkpt>
      <trkpt lat="50.06921" lon="1.44934">
        <ele>75.4</ele>
        <time>2020-06-18T15:13:36Z</time>
      </trkpt>
      <trkpt lat="50.06923" lon="1.44937">
        <ele>75.4</ele>
        <time>2020-06-18T15:13:37Z</time>
      </trkpt>
      <trkpt lat="50.06925" lon="1.4494">
        <ele>75.5</ele>
        <time>2020-06-18T15:13:38Z</time>
      </trkpt>
      <trkpt lat="50.06928" lon="1.44943">
        <ele>75.6</ele>
        <time>2020-06-18T15:13:39Z</time>
      </trkpt>
      <trkpt lat="50.06932" lon="1.44946">
        <ele>75.7</ele>
        <time>2020-06-18T15:13:40Z</time>
      </trkpt>
      <trkpt lat="50.06935" lon="1.4495">
        <ele>75.8</ele>
        <time>2020-06-18T15:13:41Z</time>
      </trkpt>
      <trkpt lat="50.06939" lon="1.44954">
        <ele>75.9</ele>
        <time>2020-06-18T15:13:42Z</time>
      </trkpt>
      <trkpt lat="50.06944" lon="1.44957">
        <ele>76</ele>
        <time>2020-06-18T15:13:43Z</time>
      </trkpt>
      <trkpt lat="50.06948" lon="1.44961">
        <ele>76.1</ele>
        <time>2020-06-18T15:13:44Z</time>
      </trkpt>
      <trkpt lat="50.06952" lon="1.44964">
        <ele>76.2</ele>
        <time>2020-06-18T15:13:45Z</time>
      </trkpt>
      <trkpt lat="50.06957" lon="1.44967">
        <ele>76.3</ele>
        <time>2020-06-18T15:13:46Z</time>
      </trkpt>
      <trkpt lat="50.06961" lon="1.4497">
        <ele>76.4</ele>
        <time>2020-06-18T15:13:47Z</time>
      </trkpt>
      <trkpt lat="50.06966" lon="1.44974">
        <ele>76.5</ele>
        <time>2020-06-18T15:13:48Z</time>
      </trkpt>
      <trkpt lat="50.06971" lon="1.44977">
        <ele>76.6</ele>
        <time>2020-06-18T15:13:49Z</time>
      </trkpt>
      <trkpt lat="50.06975" lon="1.4498">
        <ele>76.7</ele>
        <time>2020-06-18T15:13:50Z</time>
      </trkpt>
      <trkpt lat="50.0698" lon="1.44984">
        <ele>76.8</ele>
        <time>2020-06-18T15:13:51Z</time>
      </trkpt>
      <trkpt lat="50.06984" lon="1.44987">
        <ele>76.8</ele>
        <time>2020-06-18T15:13:52Z</time>
      </trkpt>
      <trkpt lat="50.06989" lon="1.44992">
        <ele>76.9</ele>
        <time>2020-06-18T15:13:53Z</time>
      </trkpt>
      <trkpt lat="50.06993" lon="1.44996">
        <ele>77</ele>
        <time>2020-06-18T15:13:54Z</time>
      </trkpt>
      <trkpt lat="50.06997" lon="1.45001">
        <ele>77</ele>
        <time>2020-06-18T15:13:55Z</time>
      </trkpt>
      <trkpt lat="50.07001" lon="1.45006">
        <ele>77.1</ele>
        <time>2020-06-18T15:13:56Z</time>
      </trkpt>
      <trkpt lat="50.07005" lon="1.45011">
        <ele>77.2</ele>
        <time>2020-06-18T15:13:57Z</time>
      </trkpt>
      <trkpt lat="50.07009" lon="1.45016">
        <ele>77.3</ele>
        <time>2020-06-18T15:13:58Z</time>
      </trkpt>
      <trkpt lat="50.07013" lon="1.45022">
        <ele>77.3</ele>
        <time>2020-06-18T15:13:59Z</time>
      </trkpt>
      <trkpt lat="50.07016" lon="1.45027">
        <ele>77.4</ele>
        <time>2020-06-18T15:14:00Z</time>
      </trkpt>
      <trkpt lat="50.0702" lon="1.45034">
        <ele>77.5</ele>
        <time>2020-06-18T15:14:01Z</time>
      </trkpt>
      <trkpt lat="50.07024" lon="1.45041">
        <ele>77.6</ele>
        <time>2020-06-18T15:14:02Z</time>
      </trkpt>
      <trkpt lat="50.07027" lon="1.45047">
        <ele>77.7</ele>
        <time>2020-06-18T15:14:03Z</time>
      </trkpt>
      <trkpt lat="50.07029" lon="1.45052">
        <ele>77.8</ele>
        <time>2020-06-18T15:14:04Z</time>
      </trkpt>
      <trkpt lat="50.07031" lon="1.45057">
        <ele>77.8</ele>
        <time>2020-06-18T15:14:05Z</time>
      </trkpt>
      <trkpt lat="50.07034" lon="1.45062">
        <ele>77.9</ele>
        <time>2020-06-18T15:14:06Z</time>
      </trkpt>
      <trkpt lat="50.07038" lon="1.45069">
        <ele>78.1</ele>
        <time>2020-06-18T15:14:07Z</time>
      </trkpt>
      <trkpt lat="50.07041" lon="1.45075">
        <ele>78.2</ele>
        <time>2020-06-18T15:14:08Z</time>
      </trkpt>
      <trkpt lat="50.07044" lon="1.45082">
        <ele>78.4</ele>
        <time>2020-06-18T15:14:09Z</time>
      </trkpt>
      <trkpt lat="50.07046" lon="1.45089">
        <ele>78.6</ele>
        <time>2020-06-18T15:14:10Z</time>
      </trkpt>
      <trkpt lat="50.07049" lon="1.45095">
        <ele>78.7</ele>
        <time>2020-06-18T15:14:11Z</time>
      </trkpt>
      <trkpt lat="50.07051" lon="1.45101">
        <ele>78.9</ele>
        <time>2020-06-18T15:14:12Z</time>
      </trkpt>
      <trkpt lat="50.07054" lon="1.45106">
        <ele>79.1</ele>
        <time>2020-06-18T15:14:13Z</time>
      </trkpt>
      <trkpt lat="50.07056" lon="1.45111">
        <ele>79.2</ele>
        <time>2020-06-18T15:14:14Z</time>
      </trkpt>
      <trkpt lat="50.07059" lon="1.45117">
        <ele>79.4</ele>
        <time>2020-06-18T15:14:15Z</time>
      </trkpt>
      <trkpt lat="50.07062" lon="1.45122">
        <ele>79.5</ele>
        <time>2020-06-18T15:14:16Z</time>
      </trkpt>
      <trkpt lat="50.07065" lon="1.45126">
        <ele>79.7</ele>
        <time>2020-06-18T15:14:17Z</time>
      </trkpt>
      <trkpt lat="50.07068" lon="1.45132">
        <ele>79.9</ele>
        <time>2020-06-18T15:14:18Z</time>
      </trkpt>
      <trkpt lat="50.07071" lon="1.45137">
        <ele>80.1</ele>
        <time>2020-06-18T15:14:19Z</time>
      </trkpt>
      <trkpt lat="50.07074" lon="1.45142">
        <ele>80.2</ele>
        <time>2020-06-18T15:14:20Z</time>
      </trkpt>
      <trkpt lat="50.07076" lon="1.45149">
        <ele>80.4</ele>
        <time>2020-06-18T15:14:21Z</time>
      </trkpt>
      <trkpt lat="50.0708" lon="1.45155">
        <ele>80.7</ele>
        <time>2020-06-18T15:14:22Z</time>
      </trkpt>
      <trkpt lat="50.07083" lon="1.4516">
        <ele>80.9</ele>
        <time>2020-06-18T15:14:23Z</time>
      </trkpt>
      <trkpt lat="50.07086" lon="1.45166">
        <ele>81.1</ele>
        <time>2020-06-18T15:14:24Z</time>
      </trkpt>
      <trkpt lat="50.07088" lon="1.45171">
        <ele>81.3</ele>
        <time>2020-06-18T15:14:25Z</time>
      </trkpt>
      <trkpt lat="50.07091" lon="1.45176">
        <ele>81.4</ele>
        <time>2020-06-18T15:14:26Z</time>
      </trkpt>
      <trkpt lat="50.07094" lon="1.45181">
        <ele>81.7</ele>
        <time>2020-06-18T15:14:27Z</time>
      </trkpt>
      <trkpt lat="50.07096" lon="1.45186">
        <ele>81.8</ele>
        <time>2020-06-18T15:14:28Z</time>
      </trkpt>
      <trkpt lat="50.07099" lon="1.45189">
        <ele>82</ele>
        <time>2020-06-18T15:14:29Z</time>
      </trkpt>
      <trkpt lat="50.07102" lon="1.45192">
        <ele>82.1</ele>
        <time>2020-06-18T15:14:30Z</time>
      </trkpt>
      <trkpt lat="50.07105" lon="1.45197">
        <ele>82.3</ele>
        <time>2020-06-18T15:14:31Z</time>
      </trkpt>
      <trkpt lat="50.07105" lon="1.45204">
        <ele>82.5</ele>
        <time>2020-06-18T15:14:32Z</time>
      </trkpt>
      <trkpt lat="50.07108" lon="1.45209">
        <ele>82.7</ele>
        <time>2020-06-18T15:14:33Z</time>
      </trkpt>
      <trkpt lat="50.0711" lon="1.45215">
        <ele>82.9</ele>
        <time>2020-06-18T15:14:34Z</time>
      </trkpt>
      <trkpt lat="50.07112" lon="1.4522">
        <ele>83</ele>
        <time>2020-06-18T15:14:35Z</time>
      </trkpt>
      <trkpt lat="50.07115" lon="1.45226">
        <ele>83.3</ele>
        <time>2020-06-18T15:14:36Z</time>
      </trkpt>
      <trkpt lat="50.07117" lon="1.45231">
        <ele>83.4</ele>
        <time>2020-06-18T15:14:37Z</time>
      </trkpt>
      <trkpt lat="50.07119" lon="1.45236">
        <ele>83.6</ele>
        <time>2020-06-18T15:14:38Z</time>
      </trkpt>
      <trkpt lat="50.0712" lon="1.45241">
        <ele>83.8</ele>
        <time>2020-06-18T15:14:39Z</time>
      </trkpt>
      <trkpt lat="50.07121" lon="1.45247">
        <ele>83.9</ele>
        <time>2020-06-18T15:14:40Z</time>
      </trkpt>
      <trkpt lat="50.07122" lon="1.45251">
        <ele>84.1</ele>
        <time>2020-06-18T15:14:41Z</time>
      </trkpt>
      <trkpt lat="50.07124" lon="1.45257">
        <ele>84.2</ele>
        <time>2020-06-18T15:14:42Z</time>
      </trkpt>
      <trkpt lat="50.07127" lon="1.45264">
        <ele>84.5</ele>
        <time>2020-06-18T15:14:43Z</time>
      </trkpt>
      <trkpt lat="50.07128" lon="1.45268">
        <ele>84.6</ele>
        <time>2020-06-18T15:14:44Z</time>
      </trkpt>
      <trkpt lat="50.0713" lon="1.45272">
        <ele>84.8</ele>
        <time>2020-06-18T15:14:45Z</time>
      </trkpt>
      <trkpt lat="50.0713" lon="1.45274">
        <ele>84.9</ele>
        <time>2020-06-18T15:14:46Z</time>
      </trkpt>
      <trkpt lat="50.07134" lon="1.45279">
        <ele>85.1</ele>
        <time>2020-06-18T15:14:47Z</time>
      </trkpt>
      <trkpt lat="50.07135" lon="1.45283">
        <ele>85.2</ele>
        <time>2020-06-18T15:14:48Z</time>
      </trkpt>
      <trkpt lat="50.07137" lon="1.45286">
        <ele>85.4</ele>
        <time>2020-06-18T15:14:49Z</time>
      </trkpt>
      <trkpt lat="50.07139" lon="1.45291">
        <ele>85.5</ele>
        <time>2020-06-18T15:14:50Z</time>
      </trkpt>
      <trkpt lat="50.07141" lon="1.45296">
        <ele>85.7</ele>
        <time>2020-06-18T15:14:51Z</time>
      </trkpt>
      <trkpt lat="50.07142" lon="1.45298">
        <ele>85.8</ele>
        <time>2020-06-18T15:14:52Z</time>
      </trkpt>
      <trkpt lat="50.07143" lon="1.45302">
        <ele>85.9</ele>
        <time>2020-06-18T15:14:53Z</time>
      </trkpt>
      <trkpt lat="50.07144" lon="1.45307">
        <ele>86.1</ele>
        <time>2020-06-18T15:14:54Z</time>
      </trkpt>
      <trkpt lat="50.07146" lon="1.45311">
        <ele>86.3</ele>
        <time>2020-06-18T15:14:55Z</time>
      </trkpt>
      <trkpt lat="50.07148" lon="1.45315">
        <ele>86.4</ele>
        <time>2020-06-18T15:14:56Z</time>
      </trkpt>
      <trkpt lat="50.07151" lon="1.45319">
        <ele>86.6</ele>
        <time>2020-06-18T15:14:57Z</time>
      </trkpt>
      <trkpt lat="50.07153" lon="1.45324">
        <ele>86.7</ele>
        <time>2020-06-18T15:14:58Z</time>
      </trkpt>
      <trkpt lat="50.07155" lon="1.45328">
        <ele>86.9</ele>
        <time>2020-06-18T15:14:59Z</time>
      </trkpt>
      <trkpt lat="50.07155" lon="1.45334">
        <ele>87.1</ele>
        <time>2020-06-18T15:15:00Z</time>
      </trkpt>
      <trkpt lat="50.07157" lon="1.45339">
        <ele>87.3</ele>
        <time>2020-06-18T15:15:01Z</time>
      </trkpt>
      <trkpt lat="50.07159" lon="1.45342">
        <ele>87.4</ele>
        <time>2020-06-18T15:15:02Z</time>
      </trkpt>
      <trkpt lat="50.07161" lon="1.45346">
        <ele>87.6</ele>
        <time>2020-06-18T15:15:03Z</time>
      </trkpt>
      <trkpt lat="50.07163" lon="1.4535">
        <ele>87.8</ele>
        <time>2020-06-18T15:15:04Z</time>
      </trkpt>
      <trkpt lat="50.07165" lon="1.45354">
        <ele>87.9</ele>
        <time>2020-06-18T15:15:05Z</time>
      </trkpt>
      <trkpt lat="50.07166" lon="1.45357">
        <ele>88.1</ele>
        <time>2020-06-18T15:15:06Z</time>
      </trkpt>
      <trkpt lat="50.07168" lon="1.45361">
        <ele>88.2</ele>
        <time>2020-06-18T15:15:07Z</time>
      </trkpt>
      <trkpt lat="50.07171" lon="1.45365">
        <ele>88.4</ele>
        <time>2020-06-18T15:15:08Z</time>
      </trkpt>
      <trkpt lat="50.07173" lon="1.45369">
        <ele>88.6</ele>
        <time>2020-06-18T15:15:09Z</time>
      </trkpt>
      <trkpt lat="50.07175" lon="1.45374">
        <ele>88.8</ele>
        <time>2020-06-18T15:15:10Z</time>
      </trkpt>
      <trkpt lat="50.07176" lon="1.45377">
        <ele>88.8</ele>
        <time>2020-06-18T15:15:11Z</time>
      </trkpt>
      <trkpt lat="50.07178" lon="1.4538">
        <ele>89</ele>
        <time>2020-06-18T15:15:12Z</time>
      </trkpt>
      <trkpt lat="50.0718" lon="1.45383">
        <ele>89.1</ele>
        <time>2020-06-18T15:15:13Z</time>
      </trkpt>
      <trkpt lat="50.07182" lon="1.45387">
        <ele>89.3</ele>
        <time>2020-06-18T15:15:14Z</time>
      </trkpt>
      <trkpt lat="50.07184" lon="1.45392">
        <ele>89.4</ele>
        <time>2020-06-18T15:15:15Z</time>
      </trkpt>
      <trkpt lat="50.07185" lon="1.45399">
        <ele>89.7</ele>
        <time>2020-06-18T15:15:16Z</time>
      </trkpt>
      <trkpt lat="50.07187" lon="1.45402">
        <ele>89.8</ele>
        <time>2020-06-18T15:15:17Z</time>
      </trkpt>
      <trkpt lat="50.07189" lon="1.45406">
        <ele>89.9</ele>
        <time>2020-06-18T15:15:18Z</time>
      </trkpt>
      <trkpt lat="50.07191" lon="1.4541">
        <ele>90.2</ele>
        <time>2020-06-18T15:15:19Z</time>
      </trkpt>
      <trkpt lat="50.07193" lon="1.45414">
        <ele>90.4</ele>
        <time>2020-06-18T15:15:20Z</time>
      </trkpt>
      <trkpt lat="50.07196" lon="1.45417">
        <ele>90.6</ele>
        <time>2020-06-18T15:15:21Z</time>
      </trkpt>
      <trkpt lat="50.07198" lon="1.45421">
        <ele>90.8</ele>
        <time>2020-06-18T15:15:22Z</time>
      </trkpt>
      <trkpt lat="50.07202" lon="1.45425">
        <ele>91.1</ele>
        <time>2020-06-18T15:15:23Z</time>
      </trkpt>
      <trkpt lat="50.07205" lon="1.45431">
        <ele>91.3</ele>
        <time>2020-06-18T15:15:24Z</time>
      </trkpt>
      <trkpt lat="50.07207" lon="1.45435">
        <ele>91.5</ele>
        <time>2020-06-18T15:15:25Z</time>
      </trkpt>
      <trkpt lat="50.0721" lon="1.45441">
        <ele>91.8</ele>
        <time>2020-06-18T15:15:26Z</time>
      </trkpt>
      <trkpt lat="50.07212" lon="1.45446">
        <ele>92</ele>
        <time>2020-06-18T15:15:27Z</time>
      </trkpt>
      <trkpt lat="50.07213" lon="1.45448">
        <ele>92.2</ele>
        <time>2020-06-18T15:15:28Z</time>
      </trkpt>
      <trkpt lat="50.07215" lon="1.45453">
        <ele>92.4</ele>
        <time>2020-06-18T15:15:29Z</time>
      </trkpt>
      <trkpt lat="50.07217" lon="1.45457">
        <ele>92.6</ele>
        <time>2020-06-18T15:15:30Z</time>
      </trkpt>
      <trkpt lat="50.0722" lon="1.45462">
        <ele>92.9</ele>
        <time>2020-06-18T15:15:31Z</time>
      </trkpt>
      <trkpt lat="50.07223" lon="1.45466">
        <ele>93.1</ele>
        <time>2020-06-18T15:15:32Z</time>
      </trkpt>
      <trkpt lat="50.07225" lon="1.45471">
        <ele>93.4</ele>
        <time>2020-06-18T15:15:33Z</time>
      </trkpt>
      <trkpt lat="50.07225" lon="1.45472">
        <ele>93.4</ele>
        <time>2020-06-18T15:15:34Z</time>
      </trkpt>
      <trkpt lat="50.07228" lon="1.45477">
        <ele>93.5</ele>
        <time>2020-06-18T15:15:35Z</time>
      </trkpt>
      <trkpt lat="50.07231" lon="1.4548">
        <ele>93.5</ele>
        <time>2020-06-18T15:15:36Z</time>
      </trkpt>
      <trkpt lat="50.07234" lon="1.45485">
        <ele>93.6</ele>
        <time>2020-06-18T15:15:37Z</time>
      </trkpt>
      <trkpt lat="50.07236" lon="1.45489">
        <ele>93.6</ele>
        <time>2020-06-18T15:15:38Z</time>
      </trkpt>
      <trkpt lat="50.07239" lon="1.45492">
        <ele>93.7</ele>
        <time>2020-06-18T15:15:39Z</time>
      </trkpt>
      <trkpt lat="50.07242" lon="1.45497">
        <ele>93.8</ele>
        <time>2020-06-18T15:15:40Z</time>
      </trkpt>
      <trkpt lat="50.07244" lon="1.455">
        <ele>93.9</ele>
        <time>2020-06-18T15:15:41Z</time>
      </trkpt>
      <trkpt lat="50.07247" lon="1.45504">
        <ele>94</ele>
        <time>2020-06-18T15:15:42Z</time>
      </trkpt>
      <trkpt lat="50.0725" lon="1.45509">
        <ele>94</ele>
        <time>2020-06-18T15:15:43Z</time>
      </trkpt>
      <trkpt lat="50.07251" lon="1.45514">
        <ele>94.1</ele>
        <time>2020-06-18T15:15:44Z</time>
      </trkpt>
      <trkpt lat="50.07253" lon="1.45518">
        <ele>94.2</ele>
        <time>2020-06-18T15:15:45Z</time>
      </trkpt>
      <trkpt lat="50.07255" lon="1.45523">
        <ele>94.3</ele>
        <time>2020-06-18T15:15:46Z</time>
      </trkpt>
      <trkpt lat="50.07258" lon="1.45528">
        <ele>94.4</ele>
        <time>2020-06-18T15:15:47Z</time>
      </trkpt>
      <trkpt lat="50.0726" lon="1.45532">
        <ele>94.5</ele>
        <time>2020-06-18T15:15:48Z</time>
      </trkpt>
      <trkpt lat="50.07263" lon="1.45535">
        <ele>94.6</ele>
        <time>2020-06-18T15:15:49Z</time>
      </trkpt>
      <trkpt lat="50.07266" lon="1.45539">
        <ele>94.7</ele>
        <time>2020-06-18T15:15:50Z</time>
      </trkpt>
      <trkpt lat="50.07269" lon="1.45542">
        <ele>94.7</ele>
        <time>2020-06-18T15:15:51Z</time>
      </trkpt>
      <trkpt lat="50.07271" lon="1.45547">
        <ele>94.8</ele>
        <time>2020-06-18T15:15:52Z</time>
      </trkpt>
      <trkpt lat="50.07274" lon="1.4555">
        <ele>94.9</ele>
        <time>2020-06-18T15:15:53Z</time>
      </trkpt>
      <trkpt lat="50.07277" lon="1.45553">
        <ele>95</ele>
        <time>2020-06-18T15:15:54Z</time>
      </trkpt>
      <trkpt lat="50.0728" lon="1.45557">
        <ele>95.1</ele>
        <time>2020-06-18T15:15:55Z</time>
      </trkpt>
      <trkpt lat="50.07283" lon="1.4556">
        <ele>95.3</ele>
        <time>2020-06-18T15:15:56Z</time>
      </trkpt>
      <trkpt lat="50.07286" lon="1.45564">
        <ele>95.4</ele>
        <time>2020-06-18T15:15:57Z</time>
      </trkpt>
      <trkpt lat="50.07289" lon="1.45568">
        <ele>95.5</ele>
        <time>2020-06-18T15:15:58Z</time>
      </trkpt>
      <trkpt lat="50.07292" lon="1.45572">
        <ele>95.6</ele>
        <time>2020-06-18T15:15:59Z</time>
      </trkpt>
      <trkpt lat="50.07295" lon="1.45574">
        <ele>95.6</ele>
        <time>2020-06-18T15:16:00Z</time>
      </trkpt>
      <trkpt lat="50.07298" lon="1.45579">
        <ele>95.8</ele>
        <time>2020-06-18T15:16:01Z</time>
      </trkpt>
      <trkpt lat="50.073" lon="1.45582">
        <ele>95.8</ele>
        <time>2020-06-18T15:16:02Z</time>
      </trkpt>
      <trkpt lat="50.07302" lon="1.45588">
        <ele>95.9</ele>
        <time>2020-06-18T15:16:03Z</time>
      </trkpt>
      <trkpt lat="50.07305" lon="1.45593">
        <ele>96</ele>
        <time>2020-06-18T15:16:04Z</time>
      </trkpt>
      <trkpt lat="50.07308" lon="1.45597">
        <ele>96.1</ele>
        <time>2020-06-18T15:16:05Z</time>
      </trkpt>
      <trkpt lat="50.07311" lon="1.45603">
        <ele>96.3</ele>
        <time>2020-06-18T15:16:06Z</time>
      </trkpt>
      <trkpt lat="50.07313" lon="1.4561">
        <ele>96.4</ele>
        <time>2020-06-18T15:16:07Z</time>
      </trkpt>
      <trkpt lat="50.07316" lon="1.45615">
        <ele>96.6</ele>
        <time>2020-06-18T15:16:08Z</time>
      </trkpt>
      <trkpt lat="50.07319" lon="1.4562">
        <ele>96.8</ele>
        <time>2020-06-18T15:16:09Z</time>
      </trkpt>
      <trkpt lat="50.07322" lon="1.45626">
        <ele>96.9</ele>
        <time>2020-06-18T15:16:10Z</time>
      </trkpt>
      <trkpt lat="50.07326" lon="1.4563">
        <ele>97.1</ele>
        <time>2020-06-18T15:16:11Z</time>
      </trkpt>
      <trkpt lat="50.07329" lon="1.45633">
        <ele>97.2</ele>
        <time>2020-06-18T15:16:12Z</time>
      </trkpt>
      <trkpt lat="50.07333" lon="1.45638">
        <ele>97.4</ele>
        <time>2020-06-18T15:16:13Z</time>
      </trkpt>
      <trkpt lat="50.07336" lon="1.45642">
        <ele>97.5</ele>
        <time>2020-06-18T15:16:14Z</time>
      </trkpt>
      <trkpt lat="50.07339" lon="1.45645">
        <ele>97.6</ele>
        <time>2020-06-18T15:16:15Z</time>
      </trkpt>
      <trkpt lat="50.07343" lon="1.45649">
        <ele>97.7</ele>
        <time>2020-06-18T15:16:16Z</time>
      </trkpt>
      <trkpt lat="50.07347" lon="1.45653">
        <ele>97.9</ele>
        <time>2020-06-18T15:16:17Z</time>
      </trkpt>
      <trkpt lat="50.07351" lon="1.45657">
        <ele>98</ele>
        <time>2020-06-18T15:16:18Z</time>
      </trkpt>
      <trkpt lat="50.07354" lon="1.45661">
        <ele>98.1</ele>
        <time>2020-06-18T15:16:19Z</time>
      </trkpt>
      <trkpt lat="50.07357" lon="1.45664">
        <ele>98.2</ele>
        <time>2020-06-18T15:16:20Z</time>
      </trkpt>
      <trkpt lat="50.07358" lon="1.45671">
        <ele>98.4</ele>
        <time>2020-06-18T15:16:21Z</time>
      </trkpt>
      <trkpt lat="50.07361" lon="1.45674">
        <ele>98.5</ele>
        <time>2020-06-18T15:16:22Z</time>
      </trkpt>
      <trkpt lat="50.07364" lon="1.45678">
        <ele>98.6</ele>
        <time>2020-06-18T15:16:23Z</time>
      </trkpt>
      <trkpt lat="50.07368" lon="1.45682">
        <ele>98.8</ele>
        <time>2020-06-18T15:16:24Z</time>
      </trkpt>
      <trkpt lat="50.07372" lon="1.45688">
        <ele>98.9</ele>
        <time>2020-06-18T15:16:25Z</time>
      </trkpt>
      <trkpt lat="50.07374" lon="1.45694">
        <ele>99.1</ele>
        <time>2020-06-18T15:16:26Z</time>
      </trkpt>
      <trkpt lat="50.07378" lon="1.45697">
        <ele>99.1</ele>
        <time>2020-06-18T15:16:27Z</time>
      </trkpt>
      <trkpt lat="50.07381" lon="1.45701">
        <ele>99.2</ele>
        <time>2020-06-18T15:16:28Z</time>
      </trkpt>
      <trkpt lat="50.07384" lon="1.45705">
        <ele>99.3</ele>
        <time>2020-06-18T15:16:29Z</time>
      </trkpt>
      <trkpt lat="50.07387" lon="1.45708">
        <ele>99.3</ele>
        <time>2020-06-18T15:16:30Z</time>
      </trkpt>
      <trkpt lat="50.07391" lon="1.45713">
        <ele>99.4</ele>
        <time>2020-06-18T15:16:31Z</time>
      </trkpt>
      <trkpt lat="50.07394" lon="1.45717">
        <ele>99.5</ele>
        <time>2020-06-18T15:16:32Z</time>
      </trkpt>
      <trkpt lat="50.07399" lon="1.45725">
        <ele>99.6</ele>
        <time>2020-06-18T15:16:33Z</time>
      </trkpt>
      <trkpt lat="50.07403" lon="1.45731">
        <ele>99.6</ele>
        <time>2020-06-18T15:16:34Z</time>
      </trkpt>
      <trkpt lat="50.07406" lon="1.45736">
        <ele>99.7</ele>
        <time>2020-06-18T15:16:35Z</time>
      </trkpt>
      <trkpt lat="50.07411" lon="1.45741">
        <ele>99.8</ele>
        <time>2020-06-18T15:16:36Z</time>
      </trkpt>
      <trkpt lat="50.07414" lon="1.45746">
        <ele>100</ele>
        <time>2020-06-18T15:16:37Z</time>
      </trkpt>
      <trkpt lat="50.07418" lon="1.4575">
        <ele>100.1</ele>
        <time>2020-06-18T15:16:38Z</time>
      </trkpt>
      <trkpt lat="50.07421" lon="1.45755">
        <ele>100.2</ele>
        <time>2020-06-18T15:16:39Z</time>
      </trkpt>
      <trkpt lat="50.07425" lon="1.45759">
        <ele>100.4</ele>
        <time>2020-06-18T15:16:40Z</time>
      </trkpt>
      <trkpt lat="50.07429" lon="1.45764">
        <ele>100.5</ele>
        <time>2020-06-18T15:16:41Z</time>
      </trkpt>
      <trkpt lat="50.07432" lon="1.45768">
        <ele>100.6</ele>
        <time>2020-06-18T15:16:42Z</time>
      </trkpt>
      <trkpt lat="50.07436" lon="1.45773">
        <ele>100.7</ele>
        <time>2020-06-18T15:16:43Z</time>
      </trkpt>
      <trkpt lat="50.0744" lon="1.45777">
        <ele>100.8</ele>
        <time>2020-06-18T15:16:44Z</time>
      </trkpt>
      <trkpt lat="50.07443" lon="1.45782">
        <ele>100.9</ele>
        <time>2020-06-18T15:16:45Z</time>
      </trkpt>
      <trkpt lat="50.07446" lon="1.45787">
        <ele>101</ele>
        <time>2020-06-18T15:16:46Z</time>
      </trkpt>
      <trkpt lat="50.07448" lon="1.45795">
        <ele>101.2</ele>
        <time>2020-06-18T15:16:47Z</time>
      </trkpt>
      <trkpt lat="50.07451" lon="1.458">
        <ele>101.3</ele>
        <time>2020-06-18T15:16:48Z</time>
      </trkpt>
      <trkpt lat="50.07455" lon="1.45806">
        <ele>101.4</ele>
        <time>2020-06-18T15:16:49Z</time>
      </trkpt>
      <trkpt lat="50.07459" lon="1.45811">
        <ele>101.5</ele>
        <time>2020-06-18T15:16:50Z</time>
      </trkpt>
      <trkpt lat="50.07462" lon="1.45814">
        <ele>101.6</ele>
        <time>2020-06-18T15:16:51Z</time>
      </trkpt>
      <trkpt lat="50.07467" lon="1.45817">
        <ele>101.7</ele>
        <time>2020-06-18T15:16:52Z</time>
      </trkpt>
      <trkpt lat="50.07471" lon="1.45821">
        <ele>101.8</ele>
        <time>2020-06-18T15:16:53Z</time>
      </trkpt>
      <trkpt lat="50.07476" lon="1.45825">
        <ele>101.9</ele>
        <time>2020-06-18T15:16:54Z</time>
      </trkpt>
      <trkpt lat="50.07479" lon="1.45829">
        <ele>101.9</ele>
        <time>2020-06-18T15:16:55Z</time>
      </trkpt>
      <trkpt lat="50.07482" lon="1.45833">
        <ele>102</ele>
        <time>2020-06-18T15:16:56Z</time>
      </trkpt>
      <trkpt lat="50.07485" lon="1.45836">
        <ele>102.1</ele>
        <time>2020-06-18T15:16:57Z</time>
      </trkpt>
      <trkpt lat="50.07488" lon="1.4584">
        <ele>102.1</ele>
        <time>2020-06-18T15:16:58Z</time>
      </trkpt>
      <trkpt lat="50.07492" lon="1.45845">
        <ele>102.2</ele>
        <time>2020-06-18T15:16:59Z</time>
      </trkpt>
      <trkpt lat="50.07496" lon="1.4585">
        <ele>102.3</ele>
        <time>2020-06-18T15:17:00Z</time>
      </trkpt>
      <trkpt lat="50.075" lon="1.45854">
        <ele>102.4</ele>
        <time>2020-06-18T15:17:01Z</time>
      </trkpt>
      <trkpt lat="50.07504" lon="1.45859">
        <ele>102.4</ele>
        <time>2020-06-18T15:17:02Z</time>
      </trkpt>
      <trkpt lat="50.07507" lon="1.45864">
        <ele>102.6</ele>
        <time>2020-06-18T15:17:03Z</time>
      </trkpt>
      <trkpt lat="50.07511" lon="1.4587">
        <ele>102.7</ele>
        <time>2020-06-18T15:17:04Z</time>
      </trkpt>
      <trkpt lat="50.07516" lon="1.45872">
        <ele>102.8</ele>
        <time>2020-06-18T15:17:05Z</time>
      </trkpt>
      <trkpt lat="50.0752" lon="1.45876">
        <ele>102.9</ele>
        <time>2020-06-18T15:17:06Z</time>
      </trkpt>
      <trkpt lat="50.07524" lon="1.45881">
        <ele>103</ele>
        <time>2020-06-18T15:17:07Z</time>
      </trkpt>
      <trkpt lat="50.07527" lon="1.45885">
        <ele>103.1</ele>
        <time>2020-06-18T15:17:08Z</time>
      </trkpt>
      <trkpt lat="50.07532" lon="1.45889">
        <ele>103.2</ele>
        <time>2020-06-18T15:17:09Z</time>
      </trkpt>
      <trkpt lat="50.07536" lon="1.45892">
        <ele>103.2</ele>
        <time>2020-06-18T15:17:10Z</time>
      </trkpt>
      <trkpt lat="50.0754" lon="1.45896">
        <ele>103.3</ele>
        <time>2020-06-18T15:17:11Z</time>
      </trkpt>
      <trkpt lat="50.07544" lon="1.459">
        <ele>103.3</ele>
        <time>2020-06-18T15:17:12Z</time>
      </trkpt>
      <trkpt lat="50.07548" lon="1.45905">
        <ele>103.3</ele>
        <time>2020-06-18T15:17:13Z</time>
      </trkpt>
      <trkpt lat="50.07551" lon="1.45908">
        <ele>103.4</ele>
        <time>2020-06-18T15:17:14Z</time>
      </trkpt>
      <trkpt lat="50.07555" lon="1.45913">
        <ele>103.4</ele>
        <time>2020-06-18T15:17:15Z</time>
      </trkpt>
      <trkpt lat="50.07558" lon="1.45919">
        <ele>103.4</ele>
        <time>2020-06-18T15:17:16Z</time>
      </trkpt>
      <trkpt lat="50.07561" lon="1.45923">
        <ele>103.5</ele>
        <time>2020-06-18T15:17:17Z</time>
      </trkpt>
      <trkpt lat="50.07565" lon="1.45929">
        <ele>103.5</ele>
        <time>2020-06-18T15:17:18Z</time>
      </trkpt>
      <trkpt lat="50.07569" lon="1.45933">
        <ele>103.6</ele>
        <time>2020-06-18T15:17:19Z</time>
      </trkpt>
      <trkpt lat="50.07573" lon="1.4594">
        <ele>103.6</ele>
        <time>2020-06-18T15:17:20Z</time>
      </trkpt>
      <trkpt lat="50.07577" lon="1.45946">
        <ele>103.7</ele>
        <time>2020-06-18T15:17:21Z</time>
      </trkpt>
      <trkpt lat="50.07581" lon="1.45951">
        <ele>103.8</ele>
        <time>2020-06-18T15:17:22Z</time>
      </trkpt>
      <trkpt lat="50.07586" lon="1.45955">
        <ele>103.9</ele>
        <time>2020-06-18T15:17:23Z</time>
      </trkpt>
      <trkpt lat="50.0759" lon="1.4596">
        <ele>103.9</ele>
        <time>2020-06-18T15:17:24Z</time>
      </trkpt>
      <trkpt lat="50.07594" lon="1.45963">
        <ele>103.9</ele>
        <time>2020-06-18T15:17:25Z</time>
      </trkpt>
      <trkpt lat="50.07598" lon="1.45967">
        <ele>103.9</ele>
        <time>2020-06-18T15:17:26Z</time>
      </trkpt>
      <trkpt lat="50.07602" lon="1.45971">
        <ele>103.9</ele>
        <time>2020-06-18T15:17:27Z</time>
      </trkpt>
      <trkpt lat="50.07605" lon="1.45974">
        <ele>104</ele>
        <time>2020-06-18T15:17:28Z</time>
      </trkpt>
      <trkpt lat="50.07609" lon="1.45979">
        <ele>104</ele>
        <time>2020-06-18T15:17:29Z</time>
      </trkpt>
      <trkpt lat="50.07614" lon="1.45983">
        <ele>104</ele>
        <time>2020-06-18T15:17:30Z</time>
      </trkpt>
      <trkpt lat="50.07617" lon="1.45984">
        <ele>104</ele>
        <time>2020-06-18T15:17:31Z</time>
      </trkpt>
      <trkpt lat="50.07618" lon="1.45985">
        <ele>104</ele>
        <time>2020-06-18T15:17:32Z</time>
      </trkpt>
      <trkpt lat="50.07619" lon="1.45984">
        <ele>104</ele>
        <time>2020-06-18T15:17:33Z</time>
      </trkpt>
      <trkpt lat="50.07619" lon="1.45986">
        <ele>104</ele>
        <time>2020-06-18T15:17:34Z</time>
      </trkpt>
      <trkpt lat="50.07618" lon="1.45985">
        <ele>104</ele>
        <time>2020-06-18T15:17:35Z</time>
      </trkpt>
      <trkpt lat="50.07618" lon="1.45985">
        <ele>104</ele>
        <time>2020-06-18T15:17:36Z</time>
      </trkpt>
      <trkpt lat="50.07617" lon="1.45987">
        <ele>104</ele>
        <time>2020-06-18T15:17:37Z</time>
      </trkpt>
      <trkpt lat="50.07616" lon="1.45986">
        <ele>104</ele>
        <time>2020-06-18T15:17:38Z</time>
      </trkpt>
      <trkpt lat="50.07616" lon="1.45987">
        <ele>104</ele>
        <time>2020-06-18T15:17:39Z</time>
      </trkpt>
      <trkpt lat="50.07616" lon="1.45986">
        <ele>104</ele>
        <time>2020-06-18T15:17:40Z</time>
      </trkpt>
      <trkpt lat="50.07616" lon="1.45986">
        <ele>104</ele>
        <time>2020-06-18T15:17:41Z</time>
      </trkpt>
      <trkpt lat="50.07616" lon="1.45986">
        <ele>104</ele>
        <time>2020-06-18T15:17:42Z</time>
      </trkpt>
      <trkpt lat="50.07616" lon="1.45986">
        <ele>104</ele>
        <time>2020-06-18T15:17:43Z</time>
      </trkpt>
      <trkpt lat="50.07616" lon="1.45986">
        <ele>104</ele>
        <time>2020-06-18T15:17:44Z</time>
      </trkpt>
      <trkpt lat="50.07623" lon="1.4599">
        <ele>104.1</ele>
        <time>2020-06-18T15:18:09Z</time>
      </trkpt>
      <trkpt lat="50.07626" lon="1.45991">
        <ele>104.1</ele>
        <time>2020-06-18T15:18:10Z</time>
      </trkpt>
      <trkpt lat="50.0763" lon="1.45994">
        <ele>104.1</ele>
        <time>2020-06-18T15:18:11Z</time>
      </trkpt>
      <trkpt lat="50.07634" lon="1.45995">
        <ele>104.1</ele>
        <time>2020-06-18T15:18:12Z</time>
      </trkpt>
      <trkpt lat="50.07637" lon="1.45997">
        <ele>104.2</ele>
        <time>2020-06-18T15:18:13Z</time>
      </trkpt>
      <trkpt lat="50.07641" lon="1.46">
        <ele>104.2</ele>
        <time>2020-06-18T15:18:14Z</time>
      </trkpt>
      <trkpt lat="50.07645" lon="1.46004">
        <ele>104.2</ele>
        <time>2020-06-18T15:18:15Z</time>
      </trkpt>
      <trkpt lat="50.07648" lon="1.46007">
        <ele>104.3</ele>
        <time>2020-06-18T15:18:16Z</time>
      </trkpt>
      <trkpt lat="50.07651" lon="1.46011">
        <ele>104.3</ele>
        <time>2020-06-18T15:18:17Z</time>
      </trkpt>
      <trkpt lat="50.07656" lon="1.46015">
        <ele>104.3</ele>
        <time>2020-06-18T15:18:18Z</time>
      </trkpt>
      <trkpt lat="50.0766" lon="1.46019">
        <ele>104.4</ele>
        <time>2020-06-18T15:18:19Z</time>
      </trkpt>
      <trkpt lat="50.07665" lon="1.46023">
        <ele>104.4</ele>
        <time>2020-06-18T15:18:20Z</time>
      </trkpt>
      <trkpt lat="50.0767" lon="1.46027">
        <ele>104.5</ele>
        <time>2020-06-18T15:18:21Z</time>
      </trkpt>
      <trkpt lat="50.07674" lon="1.46032">
        <ele>104.5</ele>
        <time>2020-06-18T15:18:22Z</time>
      </trkpt>
      <trkpt lat="50.07679" lon="1.46038">
        <ele>104.5</ele>
        <time>2020-06-18T15:18:23Z</time>
      </trkpt>
      <trkpt lat="50.07683" lon="1.46042">
        <ele>104.5</ele>
        <time>2020-06-18T15:18:24Z</time>
      </trkpt>
      <trkpt lat="50.07687" lon="1.46045">
        <ele>104.6</ele>
        <time>2020-06-18T15:18:25Z</time>
      </trkpt>
      <trkpt lat="50.07691" lon="1.46049">
        <ele>104.6</ele>
        <time>2020-06-18T15:18:26Z</time>
      </trkpt>
      <trkpt lat="50.07696" lon="1.46053">
        <ele>104.6</ele>
        <time>2020-06-18T15:18:27Z</time>
      </trkpt>
      <trkpt lat="50.077" lon="1.46057">
        <ele>104.7</ele>
        <time>2020-06-18T15:18:28Z</time>
      </trkpt>
      <trkpt lat="50.07705" lon="1.46061">
        <ele>104.7</ele>
        <time>2020-06-18T15:18:29Z</time>
      </trkpt>
      <trkpt lat="50.07709" lon="1.46066">
        <ele>104.7</ele>
        <time>2020-06-18T15:18:30Z</time>
      </trkpt>
      <trkpt lat="50.07712" lon="1.46072">
        <ele>104.8</ele>
        <time>2020-06-18T15:18:31Z</time>
      </trkpt>
      <trkpt lat="50.07716" lon="1.46077">
        <ele>104.8</ele>
        <time>2020-06-18T15:18:32Z</time>
      </trkpt>
      <trkpt lat="50.0772" lon="1.46082">
        <ele>104.8</ele>
        <time>2020-06-18T15:18:33Z</time>
      </trkpt>
      <trkpt lat="50.07724" lon="1.46086">
        <ele>104.8</ele>
        <time>2020-06-18T15:18:34Z</time>
      </trkpt>
      <trkpt lat="50.07729" lon="1.4609">
        <ele>104.8</ele>
        <time>2020-06-18T15:18:35Z</time>
      </trkpt>
      <trkpt lat="50.07733" lon="1.46095">
        <ele>104.9</ele>
        <time>2020-06-18T15:18:36Z</time>
      </trkpt>
      <trkpt lat="50.07738" lon="1.461">
        <ele>104.9</ele>
        <time>2020-06-18T15:18:37Z</time>
      </trkpt>
      <trkpt lat="50.07742" lon="1.46105">
        <ele>104.9</ele>
        <time>2020-06-18T15:18:38Z</time>
      </trkpt>
      <trkpt lat="50.07747" lon="1.46109">
        <ele>104.9</ele>
        <time>2020-06-18T15:18:39Z</time>
      </trkpt>
      <trkpt lat="50.07751" lon="1.46114">
        <ele>104.9</ele>
        <time>2020-06-18T15:18:40Z</time>
      </trkpt>
      <trkpt lat="50.07755" lon="1.46119">
        <ele>104.8</ele>
        <time>2020-06-18T15:18:41Z</time>
      </trkpt>
      <trkpt lat="50.0776" lon="1.46123">
        <ele>104.8</ele>
        <time>2020-06-18T15:18:42Z</time>
      </trkpt>
      <trkpt lat="50.07764" lon="1.46126">
        <ele>104.7</ele>
        <time>2020-06-18T15:18:43Z</time>
      </trkpt>
      <trkpt lat="50.07768" lon="1.46128">
        <ele>104.7</ele>
        <time>2020-06-18T15:18:44Z</time>
      </trkpt>
      <trkpt lat="50.07773" lon="1.46132">
        <ele>104.6</ele>
        <time>2020-06-18T15:18:45Z</time>
      </trkpt>
      <trkpt lat="50.07777" lon="1.46138">
        <ele>104.6</ele>
        <time>2020-06-18T15:18:46Z</time>
      </trkpt>
      <trkpt lat="50.07782" lon="1.46142">
        <ele>104.5</ele>
        <time>2020-06-18T15:18:47Z</time>
      </trkpt>
      <trkpt lat="50.07787" lon="1.46148">
        <ele>104.5</ele>
        <time>2020-06-18T15:18:48Z</time>
      </trkpt>
      <trkpt lat="50.07791" lon="1.46154">
        <ele>104.4</ele>
        <time>2020-06-18T15:18:49Z</time>
      </trkpt>
      <trkpt lat="50.07797" lon="1.46159">
        <ele>104.4</ele>
        <time>2020-06-18T15:18:50Z</time>
      </trkpt>
      <trkpt lat="50.07802" lon="1.46165">
        <ele>104.4</ele>
        <time>2020-06-18T15:18:51Z</time>
      </trkpt>
      <trkpt lat="50.07806" lon="1.4617">
        <ele>104.3</ele>
        <time>2020-06-18T15:18:52Z</time>
      </trkpt>
      <trkpt lat="50.07811" lon="1.46177">
        <ele>104.2</ele>
        <time>2020-06-18T15:18:53Z</time>
      </trkpt>
      <trkpt lat="50.07815" lon="1.46183">
        <ele>104.2</ele>
        <time>2020-06-18T15:18:54Z</time>
      </trkpt>
      <trkpt lat="50.07819" lon="1.46188">
        <ele>104.1</ele>
        <time>2020-06-18T15:18:55Z</time>
      </trkpt>
      <trkpt lat="50.07824" lon="1.46193">
        <ele>104.1</ele>
        <time>2020-06-18T15:18:56Z</time>
      </trkpt>
      <trkpt lat="50.07829" lon="1.462">
        <ele>104.1</ele>
        <time>2020-06-18T15:18:57Z</time>
      </trkpt>
      <trkpt lat="50.07834" lon="1.46206">
        <ele>104</ele>
        <time>2020-06-18T15:18:58Z</time>
      </trkpt>
      <trkpt lat="50.07839" lon="1.46211">
        <ele>104</ele>
        <time>2020-06-18T15:18:59Z</time>
      </trkpt>
      <trkpt lat="50.07843" lon="1.46217">
        <ele>103.9</ele>
        <time>2020-06-18T15:19:00Z</time>
      </trkpt>
      <trkpt lat="50.07848" lon="1.46223">
        <ele>103.9</ele>
        <time>2020-06-18T15:19:01Z</time>
      </trkpt>
      <trkpt lat="50.07854" lon="1.46229">
        <ele>103.8</ele>
        <time>2020-06-18T15:19:02Z</time>
      </trkpt>
      <trkpt lat="50.07859" lon="1.46236">
        <ele>103.8</ele>
        <time>2020-06-18T15:19:03Z</time>
      </trkpt>
      <trkpt lat="50.07865" lon="1.46243">
        <ele>103.8</ele>
        <time>2020-06-18T15:19:04Z</time>
      </trkpt>
      <trkpt lat="50.07869" lon="1.46249">
        <ele>103.8</ele>
        <time>2020-06-18T15:19:05Z</time>
      </trkpt>
      <trkpt lat="50.07874" lon="1.46254">
        <ele>103.8</ele>
        <time>2020-06-18T15:19:06Z</time>
      </trkpt>
      <trkpt lat="50.07878" lon="1.46258">
        <ele>103.8</ele>
        <time>2020-06-18T15:19:07Z</time>
      </trkpt>
      <trkpt lat="50.07883" lon="1.46265">
        <ele>103.7</ele>
        <time>2020-06-18T15:19:08Z</time>
      </trkpt>
      <trkpt lat="50.07889" lon="1.4627">
        <ele>103.7</ele>
        <time>2020-06-18T15:19:09Z</time>
      </trkpt>
      <trkpt lat="50.07894" lon="1.46276">
        <ele>103.7</ele>
        <time>2020-06-18T15:19:10Z</time>
      </trkpt>
      <trkpt lat="50.07899" lon="1.46283">
        <ele>103.5</ele>
        <time>2020-06-18T15:19:11Z</time>
      </trkpt>
      <trkpt lat="50.07903" lon="1.46289">
        <ele>103.5</ele>
        <time>2020-06-18T15:19:12Z</time>
      </trkpt>
      <trkpt lat="50.07907" lon="1.46296">
        <ele>103.5</ele>
        <time>2020-06-18T15:19:13Z</time>
      </trkpt>
      <trkpt lat="50.07911" lon="1.46302">
        <ele>103.4</ele>
        <time>2020-06-18T15:19:14Z</time>
      </trkpt>
      <trkpt lat="50.07918" lon="1.46307">
        <ele>103.4</ele>
        <time>2020-06-18T15:19:15Z</time>
      </trkpt>
      <trkpt lat="50.07923" lon="1.46313">
        <ele>103.4</ele>
        <time>2020-06-18T15:19:16Z</time>
      </trkpt>
      <trkpt lat="50.07928" lon="1.46319">
        <ele>103.3</ele>
        <time>2020-06-18T15:19:17Z</time>
      </trkpt>
      <trkpt lat="50.07933" lon="1.46326">
        <ele>103.3</ele>
        <time>2020-06-18T15:19:18Z</time>
      </trkpt>
      <trkpt lat="50.07937" lon="1.46333">
        <ele>103.2</ele>
        <time>2020-06-18T15:19:19Z</time>
      </trkpt>
      <trkpt lat="50.07941" lon="1.4634">
        <ele>103.2</ele>
        <time>2020-06-18T15:19:20Z</time>
      </trkpt>
      <trkpt lat="50.07946" lon="1.46346">
        <ele>103.1</ele>
        <time>2020-06-18T15:19:21Z</time>
      </trkpt>
      <trkpt lat="50.07952" lon="1.46353">
        <ele>103.1</ele>
        <time>2020-06-18T15:19:22Z</time>
      </trkpt>
      <trkpt lat="50.07957" lon="1.4636">
        <ele>103</ele>
        <time>2020-06-18T15:19:23Z</time>
      </trkpt>
      <trkpt lat="50.07963" lon="1.46367">
        <ele>102.9</ele>
        <time>2020-06-18T15:19:24Z</time>
      </trkpt>
      <trkpt lat="50.07967" lon="1.46373">
        <ele>102.8</ele>
        <time>2020-06-18T15:19:25Z</time>
      </trkpt>
      <trkpt lat="50.07972" lon="1.4638">
        <ele>102.7</ele>
        <time>2020-06-18T15:19:26Z</time>
      </trkpt>
      <trkpt lat="50.07977" lon="1.46386">
        <ele>102.7</ele>
        <time>2020-06-18T15:19:27Z</time>
      </trkpt>
      <trkpt lat="50.07982" lon="1.46392">
        <ele>102.6</ele>
        <time>2020-06-18T15:19:28Z</time>
      </trkpt>
      <trkpt lat="50.07987" lon="1.46399">
        <ele>102.5</ele>
        <time>2020-06-18T15:19:29Z</time>
      </trkpt>
      <trkpt lat="50.07992" lon="1.46405">
        <ele>102.5</ele>
        <time>2020-06-18T15:19:30Z</time>
      </trkpt>
      <trkpt lat="50.07997" lon="1.46411">
        <ele>102.4</ele>
        <time>2020-06-18T15:19:31Z</time>
      </trkpt>
      <trkpt lat="50.08001" lon="1.46417">
        <ele>102.3</ele>
        <time>2020-06-18T15:19:32Z</time>
      </trkpt>
      <trkpt lat="50.08006" lon="1.46423">
        <ele>102.3</ele>
        <time>2020-06-18T15:19:33Z</time>
      </trkpt>
      <trkpt lat="50.08011" lon="1.46428">
        <ele>102.2</ele>
        <time>2020-06-18T15:19:34Z</time>
      </trkpt>
      <trkpt lat="50.08016" lon="1.46434">
        <ele>102.2</ele>
        <time>2020-06-18T15:19:35Z</time>
      </trkpt>
      <trkpt lat="50.08021" lon="1.4644">
        <ele>102.1</ele>
        <time>2020-06-18T15:19:36Z</time>
      </trkpt>
      <trkpt lat="50.08026" lon="1.46446">
        <ele>102.1</ele>
        <time>2020-06-18T15:19:37Z</time>
      </trkpt>
      <trkpt lat="50.08031" lon="1.46452">
        <ele>102</ele>
        <time>2020-06-18T15:19:38Z</time>
      </trkpt>
      <trkpt lat="50.08036" lon="1.46457">
        <ele>102</ele>
        <time>2020-06-18T15:19:39Z</time>
      </trkpt>
      <trkpt lat="50.08041" lon="1.46463">
        <ele>101.9</ele>
        <time>2020-06-18T15:19:40Z</time>
      </trkpt>
      <trkpt lat="50.08046" lon="1.46468">
        <ele>101.9</ele>
        <time>2020-06-18T15:19:41Z</time>
      </trkpt>
      <trkpt lat="50.08051" lon="1.46474">
        <ele>101.8</ele>
        <time>2020-06-18T15:19:42Z</time>
      </trkpt>
      <trkpt lat="50.08055" lon="1.46478">
        <ele>101.8</ele>
        <time>2020-06-18T15:19:43Z</time>
      </trkpt>
      <trkpt lat="50.0806" lon="1.46484">
        <ele>101.7</ele>
        <time>2020-06-18T15:19:44Z</time>
      </trkpt>
      <trkpt lat="50.08065" lon="1.46489">
        <ele>101.7</ele>
        <time>2020-06-18T15:19:45Z</time>
      </trkpt>
      <trkpt lat="50.0807" lon="1.46493">
        <ele>101.6</ele>
        <time>2020-06-18T15:19:46Z</time>
      </trkpt>
      <trkpt lat="50.08074" lon="1.46499">
        <ele>101.6</ele>
        <time>2020-06-18T15:19:47Z</time>
      </trkpt>
      <trkpt lat="50.08079" lon="1.46504">
        <ele>101.6</ele>
        <time>2020-06-18T15:19:48Z</time>
      </trkpt>
      <trkpt lat="50.08084" lon="1.46508">
        <ele>101.5</ele>
        <time>2020-06-18T15:19:49Z</time>
      </trkpt>
      <trkpt lat="50.08089" lon="1.46513">
        <ele>101.5</ele>
        <time>2020-06-18T15:19:50Z</time>
      </trkpt>
      <trkpt lat="50.08094" lon="1.46517">
        <ele>101.5</ele>
        <time>2020-06-18T15:19:51Z</time>
      </trkpt>
      <trkpt lat="50.08099" lon="1.4652">
        <ele>101.5</ele>
        <time>2020-06-18T15:19:52Z</time>
      </trkpt>
      <trkpt lat="50.08104" lon="1.46524">
        <ele>101.5</ele>
        <time>2020-06-18T15:19:53Z</time>
      </trkpt>
      <trkpt lat="50.08109" lon="1.46528">
        <ele>101.5</ele>
        <time>2020-06-18T15:19:54Z</time>
      </trkpt>
      <trkpt lat="50.08113" lon="1.46533">
        <ele>101.4</ele>
        <time>2020-06-18T15:19:55Z</time>
      </trkpt>
      <trkpt lat="50.08117" lon="1.46539">
        <ele>101.3</ele>
        <time>2020-06-18T15:19:56Z</time>
      </trkpt>
      <trkpt lat="50.0812" lon="1.46545">
        <ele>101.2</ele>
        <time>2020-06-18T15:19:57Z</time>
      </trkpt>
      <trkpt lat="50.08125" lon="1.46549">
        <ele>101.1</ele>
        <time>2020-06-18T15:19:58Z</time>
      </trkpt>
      <trkpt lat="50.0813" lon="1.46554">
        <ele>101</ele>
        <time>2020-06-18T15:19:59Z</time>
      </trkpt>
      <trkpt lat="50.08135" lon="1.46561">
        <ele>101</ele>
        <time>2020-06-18T15:20:00Z</time>
      </trkpt>
      <trkpt lat="50.0814" lon="1.46568">
        <ele>100.9</ele>
        <time>2020-06-18T15:20:01Z</time>
      </trkpt>
      <trkpt lat="50.08144" lon="1.46575">
        <ele>100.8</ele>
        <time>2020-06-18T15:20:02Z</time>
      </trkpt>
      <trkpt lat="50.08149" lon="1.46583">
        <ele>100.7</ele>
        <time>2020-06-18T15:20:03Z</time>
      </trkpt>
      <trkpt lat="50.08153" lon="1.46591">
        <ele>100.7</ele>
        <time>2020-06-18T15:20:04Z</time>
      </trkpt>
      <trkpt lat="50.08157" lon="1.46599">
        <ele>100.6</ele>
        <time>2020-06-18T15:20:05Z</time>
      </trkpt>
      <trkpt lat="50.08161" lon="1.46606">
        <ele>100.5</ele>
        <time>2020-06-18T15:20:06Z</time>
      </trkpt>
      <trkpt lat="50.08165" lon="1.46613">
        <ele>100.5</ele>
        <time>2020-06-18T15:20:07Z</time>
      </trkpt>
      <trkpt lat="50.08169" lon="1.46621">
        <ele>100.4</ele>
        <time>2020-06-18T15:20:08Z</time>
      </trkpt>
      <trkpt lat="50.08173" lon="1.46628">
        <ele>100.3</ele>
        <time>2020-06-18T15:20:09Z</time>
      </trkpt>
      <trkpt lat="50.08177" lon="1.46635">
        <ele>100.2</ele>
        <time>2020-06-18T15:20:10Z</time>
      </trkpt>
      <trkpt lat="50.08181" lon="1.46641">
        <ele>100.1</ele>
        <time>2020-06-18T15:20:11Z</time>
      </trkpt>
      <trkpt lat="50.08185" lon="1.46648">
        <ele>100</ele>
        <time>2020-06-18T15:20:12Z</time>
      </trkpt>
      <trkpt lat="50.0819" lon="1.46654">
        <ele>100</ele>
        <time>2020-06-18T15:20:13Z</time>
      </trkpt>
      <trkpt lat="50.08194" lon="1.4666">
        <ele>99.9</ele>
        <time>2020-06-18T15:20:14Z</time>
      </trkpt>
      <trkpt lat="50.08197" lon="1.46668">
        <ele>99.8</ele>
        <time>2020-06-18T15:20:15Z</time>
      </trkpt>
      <trkpt lat="50.08201" lon="1.46675">
        <ele>99.8</ele>
        <time>2020-06-18T15:20:16Z</time>
      </trkpt>
      <trkpt lat="50.08204" lon="1.46682">
        <ele>99.7</ele>
        <time>2020-06-18T15:20:17Z</time>
      </trkpt>
      <trkpt lat="50.08209" lon="1.46688">
        <ele>99.6</ele>
        <time>2020-06-18T15:20:18Z</time>
      </trkpt>
      <trkpt lat="50.08213" lon="1.46695">
        <ele>99.5</ele>
        <time>2020-06-18T15:20:19Z</time>
      </trkpt>
      <trkpt lat="50.08218" lon="1.46702">
        <ele>99.5</ele>
        <time>2020-06-18T15:20:20Z</time>
      </trkpt>
      <trkpt lat="50.08222" lon="1.4671">
        <ele>99.4</ele>
        <time>2020-06-18T15:20:21Z</time>
      </trkpt>
      <trkpt lat="50.08226" lon="1.46718">
        <ele>99.3</ele>
        <time>2020-06-18T15:20:22Z</time>
      </trkpt>
      <trkpt lat="50.0823" lon="1.46725">
        <ele>99.2</ele>
        <time>2020-06-18T15:20:23Z</time>
      </trkpt>
      <trkpt lat="50.08235" lon="1.46732">
        <ele>99.2</ele>
        <time>2020-06-18T15:20:24Z</time>
      </trkpt>
      <trkpt lat="50.0824" lon="1.4674">
        <ele>99.1</ele>
        <time>2020-06-18T15:20:25Z</time>
      </trkpt>
      <trkpt lat="50.08244" lon="1.46748">
        <ele>99.1</ele>
        <time>2020-06-18T15:20:26Z</time>
      </trkpt>
      <trkpt lat="50.08248" lon="1.46756">
        <ele>99</ele>
        <time>2020-06-18T15:20:27Z</time>
      </trkpt>
      <trkpt lat="50.08252" lon="1.46764">
        <ele>99</ele>
        <time>2020-06-18T15:20:28Z</time>
      </trkpt>
      <trkpt lat="50.08257" lon="1.46772">
        <ele>98.9</ele>
        <time>2020-06-18T15:20:29Z</time>
      </trkpt>
      <trkpt lat="50.08261" lon="1.4678">
        <ele>98.9</ele>
        <time>2020-06-18T15:20:30Z</time>
      </trkpt>
      <trkpt lat="50.08265" lon="1.46787">
        <ele>98.9</ele>
        <time>2020-06-18T15:20:31Z</time>
      </trkpt>
      <trkpt lat="50.08269" lon="1.46795">
        <ele>98.8</ele>
        <time>2020-06-18T15:20:32Z</time>
      </trkpt>
      <trkpt lat="50.08273" lon="1.46804">
        <ele>98.8</ele>
        <time>2020-06-18T15:20:33Z</time>
      </trkpt>
      <trkpt lat="50.08278" lon="1.46811">
        <ele>98.7</ele>
        <time>2020-06-18T15:20:34Z</time>
      </trkpt>
      <trkpt lat="50.08283" lon="1.46819">
        <ele>98.6</ele>
        <time>2020-06-18T15:20:35Z</time>
      </trkpt>
      <trkpt lat="50.08288" lon="1.46827">
        <ele>98.5</ele>
        <time>2020-06-18T15:20:36Z</time>
      </trkpt>
      <trkpt lat="50.08292" lon="1.46835">
        <ele>98.5</ele>
        <time>2020-06-18T15:20:37Z</time>
      </trkpt>
      <trkpt lat="50.08297" lon="1.46843">
        <ele>98.4</ele>
        <time>2020-06-18T15:20:38Z</time>
      </trkpt>
      <trkpt lat="50.08301" lon="1.46851">
        <ele>98.3</ele>
        <time>2020-06-18T15:20:39Z</time>
      </trkpt>
      <trkpt lat="50.08306" lon="1.46859">
        <ele>98.2</ele>
        <time>2020-06-18T15:20:40Z</time>
      </trkpt>
      <trkpt lat="50.0831" lon="1.46867">
        <ele>98.2</ele>
        <time>2020-06-18T15:20:41Z</time>
      </trkpt>
      <trkpt lat="50.08314" lon="1.46876">
        <ele>98.1</ele>
        <time>2020-06-18T15:20:42Z</time>
      </trkpt>
      <trkpt lat="50.08319" lon="1.46884">
        <ele>98.1</ele>
        <time>2020-06-18T15:20:43Z</time>
      </trkpt>
      <trkpt lat="50.08324" lon="1.46891">
        <ele>98</ele>
        <time>2020-06-18T15:20:44Z</time>
      </trkpt>
      <trkpt lat="50.08329" lon="1.469">
        <ele>97.9</ele>
        <time>2020-06-18T15:20:45Z</time>
      </trkpt>
      <trkpt lat="50.08334" lon="1.46908">
        <ele>97.8</ele>
        <time>2020-06-18T15:20:46Z</time>
      </trkpt>
      <trkpt lat="50.08338" lon="1.46915">
        <ele>97.8</ele>
        <time>2020-06-18T15:20:47Z</time>
      </trkpt>
      <trkpt lat="50.08343" lon="1.46923">
        <ele>97.7</ele>
        <time>2020-06-18T15:20:48Z</time>
      </trkpt>
      <trkpt lat="50.08348" lon="1.46931">
        <ele>97.7</ele>
        <time>2020-06-18T15:20:49Z</time>
      </trkpt>
      <trkpt lat="50.08353" lon="1.46939">
        <ele>97.6</ele>
        <time>2020-06-18T15:20:50Z</time>
      </trkpt>
      <trkpt lat="50.08358" lon="1.46947">
        <ele>97.6</ele>
        <time>2020-06-18T15:20:51Z</time>
      </trkpt>
      <trkpt lat="50.08363" lon="1.46954">
        <ele>97.5</ele>
        <time>2020-06-18T15:20:52Z</time>
      </trkpt>
      <trkpt lat="50.08368" lon="1.46962">
        <ele>97.4</ele>
        <time>2020-06-18T15:20:53Z</time>
      </trkpt>
      <trkpt lat="50.08373" lon="1.46971">
        <ele>97.3</ele>
        <time>2020-06-18T15:20:54Z</time>
      </trkpt>
      <trkpt lat="50.08377" lon="1.46979">
        <ele>97.2</ele>
        <time>2020-06-18T15:20:55Z</time>
      </trkpt>
      <trkpt lat="50.08382" lon="1.46987">
        <ele>97.1</ele>
        <time>2020-06-18T15:20:56Z</time>
      </trkpt>
      <trkpt lat="50.08387" lon="1.46995">
        <ele>97</ele>
        <time>2020-06-18T15:20:57Z</time>
      </trkpt>
      <trkpt lat="50.08392" lon="1.47003">
        <ele>96.9</ele>
        <time>2020-06-18T15:20:58Z</time>
      </trkpt>
      <trkpt lat="50.08396" lon="1.47011">
        <ele>96.9</ele>
        <time>2020-06-18T15:20:59Z</time>
      </trkpt>
      <trkpt lat="50.08401" lon="1.47019">
        <ele>96.8</ele>
        <time>2020-06-18T15:21:00Z</time>
      </trkpt>
      <trkpt lat="50.08406" lon="1.47027">
        <ele>96.7</ele>
        <time>2020-06-18T15:21:01Z</time>
      </trkpt>
      <trkpt lat="50.0841" lon="1.47035">
        <ele>96.7</ele>
        <time>2020-06-18T15:21:02Z</time>
      </trkpt>
      <trkpt lat="50.08415" lon="1.47042">
        <ele>96.6</ele>
        <time>2020-06-18T15:21:03Z</time>
      </trkpt>
      <trkpt lat="50.08419" lon="1.4705">
        <ele>96.6</ele>
        <time>2020-06-18T15:21:04Z</time>
      </trkpt>
      <trkpt lat="50.08424" lon="1.47057">
        <ele>96.5</ele>
        <time>2020-06-18T15:21:05Z</time>
      </trkpt>
      <trkpt lat="50.08429" lon="1.47064">
        <ele>96.5</ele>
        <time>2020-06-18T15:21:06Z</time>
      </trkpt>
      <trkpt lat="50.08433" lon="1.4707">
        <ele>96.4</ele>
        <time>2020-06-18T15:21:07Z</time>
      </trkpt>
      <trkpt lat="50.08439" lon="1.47076">
        <ele>96.4</ele>
        <time>2020-06-18T15:21:08Z</time>
      </trkpt>
      <trkpt lat="50.08444" lon="1.47082">
        <ele>96.3</ele>
        <time>2020-06-18T15:21:09Z</time>
      </trkpt>
      <trkpt lat="50.08449" lon="1.47088">
        <ele>96.3</ele>
        <time>2020-06-18T15:21:10Z</time>
      </trkpt>
      <trkpt lat="50.08455" lon="1.47094">
        <ele>96.2</ele>
        <time>2020-06-18T15:21:11Z</time>
      </trkpt>
      <trkpt lat="50.0846" lon="1.47101">
        <ele>96.2</ele>
        <time>2020-06-18T15:21:12Z</time>
      </trkpt>
      <trkpt lat="50.08467" lon="1.47106">
        <ele>96.2</ele>
        <time>2020-06-18T15:21:13Z</time>
      </trkpt>
      <trkpt lat="50.08473" lon="1.47111">
        <ele>96.1</ele>
        <time>2020-06-18T15:21:14Z</time>
      </trkpt>
      <trkpt lat="50.08479" lon="1.47115">
        <ele>96.1</ele>
        <time>2020-06-18T15:21:15Z</time>
      </trkpt>
      <trkpt lat="50.08485" lon="1.4712">
        <ele>96.1</ele>
        <time>2020-06-18T15:21:16Z</time>
      </trkpt>
      <trkpt lat="50.08491" lon="1.47125">
        <ele>96.1</ele>
        <time>2020-06-18T15:21:17Z</time>
      </trkpt>
      <trkpt lat="50.08498" lon="1.4713">
        <ele>96</ele>
        <time>2020-06-18T15:21:18Z</time>
      </trkpt>
      <trkpt lat="50.08504" lon="1.47136">
        <ele>96</ele>
        <time>2020-06-18T15:21:19Z</time>
      </trkpt>
      <trkpt lat="50.0851" lon="1.47142">
        <ele>96</ele>
        <time>2020-06-18T15:21:20Z</time>
      </trkpt>
      <trkpt lat="50.08515" lon="1.47148">
        <ele>95.9</ele>
        <time>2020-06-18T15:21:21Z</time>
      </trkpt>
      <trkpt lat="50.08521" lon="1.47155">
        <ele>95.9</ele>
        <time>2020-06-18T15:21:22Z</time>
      </trkpt>
      <trkpt lat="50.08528" lon="1.47161">
        <ele>95.9</ele>
        <time>2020-06-18T15:21:23Z</time>
      </trkpt>
      <trkpt lat="50.08533" lon="1.47168">
        <ele>95.9</ele>
        <time>2020-06-18T15:21:24Z</time>
      </trkpt>
      <trkpt lat="50.08539" lon="1.47175">
        <ele>95.8</ele>
        <time>2020-06-18T15:21:25Z</time>
      </trkpt>
      <trkpt lat="50.08544" lon="1.47182">
        <ele>95.8</ele>
        <time>2020-06-18T15:21:26Z</time>
      </trkpt>
      <trkpt lat="50.08549" lon="1.4719">
        <ele>95.7</ele>
        <time>2020-06-18T15:21:27Z</time>
      </trkpt>
      <trkpt lat="50.08554" lon="1.47197">
        <ele>95.7</ele>
        <time>2020-06-18T15:21:28Z</time>
      </trkpt>
      <trkpt lat="50.08559" lon="1.47204">
        <ele>95.7</ele>
        <time>2020-06-18T15:21:29Z</time>
      </trkpt>
      <trkpt lat="50.08564" lon="1.47211">
        <ele>95.7</ele>
        <time>2020-06-18T15:21:30Z</time>
      </trkpt>
      <trkpt lat="50.08568" lon="1.47217">
        <ele>95.7</ele>
        <time>2020-06-18T15:21:31Z</time>
      </trkpt>
      <trkpt lat="50.08573" lon="1.47224">
        <ele>95.7</ele>
        <time>2020-06-18T15:21:32Z</time>
      </trkpt>
      <trkpt lat="50.08578" lon="1.47231">
        <ele>95.7</ele>
        <time>2020-06-18T15:21:33Z</time>
      </trkpt>
      <trkpt lat="50.08583" lon="1.47238">
        <ele>95.6</ele>
        <time>2020-06-18T15:21:34Z</time>
      </trkpt>
      <trkpt lat="50.08588" lon="1.47244">
        <ele>95.5</ele>
        <time>2020-06-18T15:21:35Z</time>
      </trkpt>
      <trkpt lat="50.08594" lon="1.4725">
        <ele>95.4</ele>
        <time>2020-06-18T15:21:36Z</time>
      </trkpt>
      <trkpt lat="50.08599" lon="1.47256">
        <ele>95.3</ele>
        <time>2020-06-18T15:21:37Z</time>
      </trkpt>
      <trkpt lat="50.08605" lon="1.47261">
        <ele>95.2</ele>
        <time>2020-06-18T15:21:38Z</time>
      </trkpt>
      <trkpt lat="50.08611" lon="1.47267">
        <ele>95.1</ele>
        <time>2020-06-18T15:21:39Z</time>
      </trkpt>
      <trkpt lat="50.08617" lon="1.47273">
        <ele>95</ele>
        <time>2020-06-18T15:21:40Z</time>
      </trkpt>
      <trkpt lat="50.08623" lon="1.47278">
        <ele>95</ele>
        <time>2020-06-18T15:21:41Z</time>
      </trkpt>
      <trkpt lat="50.08628" lon="1.47285">
        <ele>94.9</ele>
        <time>2020-06-18T15:21:42Z</time>
      </trkpt>
      <trkpt lat="50.08634" lon="1.47291">
        <ele>94.9</ele>
        <time>2020-06-18T15:21:43Z</time>
      </trkpt>
      <trkpt lat="50.0864" lon="1.47296">
        <ele>94.9</ele>
        <time>2020-06-18T15:21:44Z</time>
      </trkpt>
      <trkpt lat="50.08646" lon="1.47302">
        <ele>94.8</ele>
        <time>2020-06-18T15:21:45Z</time>
      </trkpt>
      <trkpt lat="50.08652" lon="1.47307">
        <ele>94.8</ele>
        <time>2020-06-18T15:21:46Z</time>
      </trkpt>
      <trkpt lat="50.08658" lon="1.47313">
        <ele>94.7</ele>
        <time>2020-06-18T15:21:47Z</time>
      </trkpt>
      <trkpt lat="50.08664" lon="1.4732">
        <ele>94.7</ele>
        <time>2020-06-18T15:21:48Z</time>
      </trkpt>
      <trkpt lat="50.0867" lon="1.47326">
        <ele>94.6</ele>
        <time>2020-06-18T15:21:49Z</time>
      </trkpt>
      <trkpt lat="50.08676" lon="1.47331">
        <ele>94.6</ele>
        <time>2020-06-18T15:21:50Z</time>
      </trkpt>
      <trkpt lat="50.08682" lon="1.47337">
        <ele>94.5</ele>
        <time>2020-06-18T15:21:51Z</time>
      </trkpt>
      <trkpt lat="50.08688" lon="1.47342">
        <ele>94.5</ele>
        <time>2020-06-18T15:21:52Z</time>
      </trkpt>
      <trkpt lat="50.08694" lon="1.47346">
        <ele>94.4</ele>
        <time>2020-06-18T15:21:53Z</time>
      </trkpt>
      <trkpt lat="50.08701" lon="1.47349">
        <ele>94.3</ele>
        <time>2020-06-18T15:21:54Z</time>
      </trkpt>
      <trkpt lat="50.08707" lon="1.47353">
        <ele>94.3</ele>
        <time>2020-06-18T15:21:55Z</time>
      </trkpt>
      <trkpt lat="50.08714" lon="1.47354">
        <ele>94.2</ele>
        <time>2020-06-18T15:21:56Z</time>
      </trkpt>
      <trkpt lat="50.08721" lon="1.47356">
        <ele>94.1</ele>
        <time>2020-06-18T15:21:57Z</time>
      </trkpt>
      <trkpt lat="50.08727" lon="1.47359">
        <ele>94</ele>
        <time>2020-06-18T15:21:58Z</time>
      </trkpt>
      <trkpt lat="50.08734" lon="1.47362">
        <ele>93.9</ele>
        <time>2020-06-18T15:21:59Z</time>
      </trkpt>
      <trkpt lat="50.08741" lon="1.47365">
        <ele>93.8</ele>
        <time>2020-06-18T15:22:00Z</time>
      </trkpt>
      <trkpt lat="50.08748" lon="1.47368">
        <ele>93.8</ele>
        <time>2020-06-18T15:22:01Z</time>
      </trkpt>
      <trkpt lat="50.08754" lon="1.47371">
        <ele>93.7</ele>
        <time>2020-06-18T15:22:02Z</time>
      </trkpt>
      <trkpt lat="50.08761" lon="1.47375">
        <ele>93.7</ele>
        <time>2020-06-18T15:22:03Z</time>
      </trkpt>
      <trkpt lat="50.08768" lon="1.47378">
        <ele>93.6</ele>
        <time>2020-06-18T15:22:04Z</time>
      </trkpt>
      <trkpt lat="50.08774" lon="1.47383">
        <ele>93.5</ele>
        <time>2020-06-18T15:22:05Z</time>
      </trkpt>
      <trkpt lat="50.08781" lon="1.47387">
        <ele>93.4</ele>
        <time>2020-06-18T15:22:06Z</time>
      </trkpt>
      <trkpt lat="50.08788" lon="1.47392">
        <ele>93.4</ele>
        <time>2020-06-18T15:22:07Z</time>
      </trkpt>
      <trkpt lat="50.08795" lon="1.47396">
        <ele>93.2</ele>
        <time>2020-06-18T15:22:08Z</time>
      </trkpt>
      <trkpt lat="50.08802" lon="1.47401">
        <ele>93.1</ele>
        <time>2020-06-18T15:22:09Z</time>
      </trkpt>
      <trkpt lat="50.08808" lon="1.47406">
        <ele>93</ele>
        <time>2020-06-18T15:22:10Z</time>
      </trkpt>
      <trkpt lat="50.08815" lon="1.47411">
        <ele>92.9</ele>
        <time>2020-06-18T15:22:11Z</time>
      </trkpt>
      <trkpt lat="50.08821" lon="1.47415">
        <ele>92.8</ele>
        <time>2020-06-18T15:22:12Z</time>
      </trkpt>
      <trkpt lat="50.08828" lon="1.47419">
        <ele>92.7</ele>
        <time>2020-06-18T15:22:13Z</time>
      </trkpt>
      <trkpt lat="50.08834" lon="1.47423">
        <ele>92.7</ele>
        <time>2020-06-18T15:22:14Z</time>
      </trkpt>
      <trkpt lat="50.0884" lon="1.47427">
        <ele>92.6</ele>
        <time>2020-06-18T15:22:15Z</time>
      </trkpt>
      <trkpt lat="50.08847" lon="1.47431">
        <ele>92.6</ele>
        <time>2020-06-18T15:22:16Z</time>
      </trkpt>
      <trkpt lat="50.08853" lon="1.47434">
        <ele>92.6</ele>
        <time>2020-06-18T15:22:17Z</time>
      </trkpt>
      <trkpt lat="50.08859" lon="1.47437">
        <ele>92.6</ele>
        <time>2020-06-18T15:22:18Z</time>
      </trkpt>
      <trkpt lat="50.08865" lon="1.4744">
        <ele>92.5</ele>
        <time>2020-06-18T15:22:19Z</time>
      </trkpt>
      <trkpt lat="50.08871" lon="1.47444">
        <ele>92.5</ele>
        <time>2020-06-18T15:22:20Z</time>
      </trkpt>
      <trkpt lat="50.08876" lon="1.47448">
        <ele>92.4</ele>
        <time>2020-06-18T15:22:21Z</time>
      </trkpt>
      <trkpt lat="50.08881" lon="1.47453">
        <ele>92.4</ele>
        <time>2020-06-18T15:22:22Z</time>
      </trkpt>
      <trkpt lat="50.08887" lon="1.47456">
        <ele>92.3</ele>
        <time>2020-06-18T15:22:23Z</time>
      </trkpt>
      <trkpt lat="50.08892" lon="1.47461">
        <ele>92.3</ele>
        <time>2020-06-18T15:22:24Z</time>
      </trkpt>
      <trkpt lat="50.08897" lon="1.47466">
        <ele>92.3</ele>
        <time>2020-06-18T15:22:25Z</time>
      </trkpt>
      <trkpt lat="50.08902" lon="1.47468">
        <ele>92.3</ele>
        <time>2020-06-18T15:22:26Z</time>
      </trkpt>
      <trkpt lat="50.08906" lon="1.47471">
        <ele>92.3</ele>
        <time>2020-06-18T15:22:27Z</time>
      </trkpt>
      <trkpt lat="50.0891" lon="1.47474">
        <ele>92.3</ele>
        <time>2020-06-18T15:22:28Z</time>
      </trkpt>
      <trkpt lat="50.08914" lon="1.47476">
        <ele>92.3</ele>
        <time>2020-06-18T15:22:29Z</time>
      </trkpt>
      <trkpt lat="50.08916" lon="1.47477">
        <ele>92.3</ele>
        <time>2020-06-18T15:22:30Z</time>
      </trkpt>
      <trkpt lat="50.08918" lon="1.47477">
        <ele>92.3</ele>
        <time>2020-06-18T15:22:31Z</time>
      </trkpt>
      <trkpt lat="50.0892" lon="1.47478">
        <ele>92.3</ele>
        <time>2020-06-18T15:22:32Z</time>
      </trkpt>
      <trkpt lat="50.0892" lon="1.47479">
        <ele>92.3</ele>
        <time>2020-06-18T15:22:33Z</time>
      </trkpt>
      <trkpt lat="50.0892" lon="1.47479">
        <ele>92.3</ele>
        <time>2020-06-18T15:22:34Z</time>
      </trkpt>
      <trkpt lat="50.08921" lon="1.47479">
        <ele>92.3</ele>
        <time>2020-06-18T15:22:35Z</time>
      </trkpt>
      <trkpt lat="50.08921" lon="1.47479">
        <ele>92.3</ele>
        <time>2020-06-18T15:22:36Z</time>
      </trkpt>
      <trkpt lat="50.08921" lon="1.47479">
        <ele>92.2</ele>
        <time>2020-06-18T15:22:37Z</time>
      </trkpt>
      <trkpt lat="50.08922" lon="1.47479">
        <ele>92.2</ele>
        <time>2020-06-18T15:22:38Z</time>
      </trkpt>
      <trkpt lat="50.08922" lon="1.4748">
        <ele>92.2</ele>
        <time>2020-06-18T15:22:39Z</time>
      </trkpt>
      <trkpt lat="50.08922" lon="1.4748">
        <ele>92.2</ele>
        <time>2020-06-18T15:22:40Z</time>
      </trkpt>
      <trkpt lat="50.08923" lon="1.4748">
        <ele>92.2</ele>
        <time>2020-06-18T15:22:41Z</time>
      </trkpt>
      <trkpt lat="50.08923" lon="1.4748">
        <ele>92.2</ele>
        <time>2020-06-18T15:22:42Z</time>
      </trkpt>
      <trkpt lat="50.08923" lon="1.4748">
        <ele>92.2</ele>
        <time>2020-06-18T15:22:43Z</time>
      </trkpt>
      <trkpt lat="50.08923" lon="1.4748">
        <ele>92.2</ele>
        <time>2020-06-18T15:22:44Z</time>
      </trkpt>
      <trkpt lat="50.08926" lon="1.47482">
        <ele>92.2</ele>
        <time>2020-06-18T15:22:45Z</time>
      </trkpt>
      <trkpt lat="50.08927" lon="1.47482">
        <ele>92.2</ele>
        <time>2020-06-18T15:22:46Z</time>
      </trkpt>
      <trkpt lat="50.0893" lon="1.47484">
        <ele>92.1</ele>
        <time>2020-06-18T15:22:47Z</time>
      </trkpt>
      <trkpt lat="50.08931" lon="1.47485">
        <ele>92.1</ele>
        <time>2020-06-18T15:22:48Z</time>
      </trkpt>
      <trkpt lat="50.08935" lon="1.47488">
        <ele>92</ele>
        <time>2020-06-18T15:22:49Z</time>
      </trkpt>
      <trkpt lat="50.08936" lon="1.47489">
        <ele>92</ele>
        <time>2020-06-18T15:22:50Z</time>
      </trkpt>
      <trkpt lat="50.0894" lon="1.47492">
        <ele>91.9</ele>
        <time>2020-06-18T15:22:51Z</time>
      </trkpt>
      <trkpt lat="50.08943" lon="1.47494">
        <ele>91.9</ele>
        <time>2020-06-18T15:22:52Z</time>
      </trkpt>
      <trkpt lat="50.08947" lon="1.47496">
        <ele>91.8</ele>
        <time>2020-06-18T15:22:53Z</time>
      </trkpt>
      <trkpt lat="50.08951" lon="1.47499">
        <ele>91.8</ele>
        <time>2020-06-18T15:22:54Z</time>
      </trkpt>
      <trkpt lat="50.08955" lon="1.47501">
        <ele>91.7</ele>
        <time>2020-06-18T15:22:55Z</time>
      </trkpt>
      <trkpt lat="50.08959" lon="1.47503">
        <ele>91.7</ele>
        <time>2020-06-18T15:22:56Z</time>
      </trkpt>
      <trkpt lat="50.08964" lon="1.47507">
        <ele>91.7</ele>
        <time>2020-06-18T15:22:57Z</time>
      </trkpt>
      <trkpt lat="50.08969" lon="1.47508">
        <ele>91.7</ele>
        <time>2020-06-18T15:22:58Z</time>
      </trkpt>
      <trkpt lat="50.08975" lon="1.4751">
        <ele>91.7</ele>
        <time>2020-06-18T15:22:59Z</time>
      </trkpt>
      <trkpt lat="50.0898" lon="1.47515">
        <ele>91.8</ele>
        <time>2020-06-18T15:23:00Z</time>
      </trkpt>
      <trkpt lat="50.08986" lon="1.47516">
        <ele>91.8</ele>
        <time>2020-06-18T15:23:01Z</time>
      </trkpt>
      <trkpt lat="50.08992" lon="1.47517">
        <ele>91.8</ele>
        <time>2020-06-18T15:23:02Z</time>
      </trkpt>
      <trkpt lat="50.08998" lon="1.47518">
        <ele>91.8</ele>
        <time>2020-06-18T15:23:03Z</time>
      </trkpt>
      <trkpt lat="50.09004" lon="1.4752">
        <ele>91.8</ele>
        <time>2020-06-18T15:23:04Z</time>
      </trkpt>
      <trkpt lat="50.0901" lon="1.4752">
        <ele>91.9</ele>
        <time>2020-06-18T15:23:05Z</time>
      </trkpt>
      <trkpt lat="50.09016" lon="1.47522">
        <ele>91.9</ele>
        <time>2020-06-18T15:23:06Z</time>
      </trkpt>
      <trkpt lat="50.09022" lon="1.47524">
        <ele>92</ele>
        <time>2020-06-18T15:23:07Z</time>
      </trkpt>
      <trkpt lat="50.09028" lon="1.47527">
        <ele>92.1</ele>
        <time>2020-06-18T15:23:08Z</time>
      </trkpt>
      <trkpt lat="50.09034" lon="1.47527">
        <ele>92.2</ele>
        <time>2020-06-18T15:23:09Z</time>
      </trkpt>
      <trkpt lat="50.0904" lon="1.47529">
        <ele>92.2</ele>
        <time>2020-06-18T15:23:10Z</time>
      </trkpt>
      <trkpt lat="50.09046" lon="1.4753">
        <ele>92.3</ele>
        <time>2020-06-18T15:23:11Z</time>
      </trkpt>
      <trkpt lat="50.09052" lon="1.47533">
        <ele>92.4</ele>
        <time>2020-06-18T15:23:12Z</time>
      </trkpt>
      <trkpt lat="50.09058" lon="1.47537">
        <ele>92.5</ele>
        <time>2020-06-18T15:23:13Z</time>
      </trkpt>
      <trkpt lat="50.09064" lon="1.47538">
        <ele>92.6</ele>
        <time>2020-06-18T15:23:14Z</time>
      </trkpt>
      <trkpt lat="50.09069" lon="1.47542">
        <ele>92.7</ele>
        <time>2020-06-18T15:23:15Z</time>
      </trkpt>
      <trkpt lat="50.09075" lon="1.47543">
        <ele>92.7</ele>
        <time>2020-06-18T15:23:16Z</time>
      </trkpt>
      <trkpt lat="50.09081" lon="1.47545">
        <ele>92.6</ele>
        <time>2020-06-18T15:23:17Z</time>
      </trkpt>
      <trkpt lat="50.09086" lon="1.4755">
        <ele>92.6</ele>
        <time>2020-06-18T15:23:18Z</time>
      </trkpt>
      <trkpt lat="50.09091" lon="1.47553">
        <ele>92.6</ele>
        <time>2020-06-18T15:23:19Z</time>
      </trkpt>
      <trkpt lat="50.09096" lon="1.47556">
        <ele>92.6</ele>
        <time>2020-06-18T15:23:20Z</time>
      </trkpt>
      <trkpt lat="50.09101" lon="1.4756">
        <ele>92.7</ele>
        <time>2020-06-18T15:23:21Z</time>
      </trkpt>
      <trkpt lat="50.09106" lon="1.47565">
        <ele>92.7</ele>
        <time>2020-06-18T15:23:22Z</time>
      </trkpt>
      <trkpt lat="50.0911" lon="1.47571">
        <ele>92.8</ele>
        <time>2020-06-18T15:23:23Z</time>
      </trkpt>
      <trkpt lat="50.09115" lon="1.47575">
        <ele>92.8</ele>
        <time>2020-06-18T15:23:24Z</time>
      </trkpt>
      <trkpt lat="50.09119" lon="1.4758">
        <ele>92.9</ele>
        <time>2020-06-18T15:23:25Z</time>
      </trkpt>
      <trkpt lat="50.09124" lon="1.47586">
        <ele>93</ele>
        <time>2020-06-18T15:23:26Z</time>
      </trkpt>
      <trkpt lat="50.09129" lon="1.47592">
        <ele>93.1</ele>
        <time>2020-06-18T15:23:27Z</time>
      </trkpt>
      <trkpt lat="50.09135" lon="1.47596">
        <ele>93.1</ele>
        <time>2020-06-18T15:23:28Z</time>
      </trkpt>
      <trkpt lat="50.0914" lon="1.47601">
        <ele>93.2</ele>
        <time>2020-06-18T15:23:29Z</time>
      </trkpt>
      <trkpt lat="50.09145" lon="1.47607">
        <ele>93.2</ele>
        <time>2020-06-18T15:23:30Z</time>
      </trkpt>
      <trkpt lat="50.09149" lon="1.47613">
        <ele>93.3</ele>
        <time>2020-06-18T15:23:31Z</time>
      </trkpt>
      <trkpt lat="50.09154" lon="1.47618">
        <ele>93.3</ele>
        <time>2020-06-18T15:23:32Z</time>
      </trkpt>
      <trkpt lat="50.09158" lon="1.47624">
        <ele>93.4</ele>
        <time>2020-06-18T15:23:33Z</time>
      </trkpt>
      <trkpt lat="50.09163" lon="1.4763">
        <ele>93.4</ele>
        <time>2020-06-18T15:23:34Z</time>
      </trkpt>
      <trkpt lat="50.09168" lon="1.47635">
        <ele>93.4</ele>
        <time>2020-06-18T15:23:35Z</time>
      </trkpt>
      <trkpt lat="50.09172" lon="1.4764">
        <ele>93.5</ele>
        <time>2020-06-18T15:23:36Z</time>
      </trkpt>
      <trkpt lat="50.09176" lon="1.47648">
        <ele>93.5</ele>
        <time>2020-06-18T15:23:37Z</time>
      </trkpt>
      <trkpt lat="50.09181" lon="1.47654">
        <ele>93.6</ele>
        <time>2020-06-18T15:23:38Z</time>
      </trkpt>
      <trkpt lat="50.09187" lon="1.47661">
        <ele>93.6</ele>
        <time>2020-06-18T15:23:39Z</time>
      </trkpt>
      <trkpt lat="50.09191" lon="1.47667">
        <ele>93.7</ele>
        <time>2020-06-18T15:23:40Z</time>
      </trkpt>
      <trkpt lat="50.09195" lon="1.47673">
        <ele>93.7</ele>
        <time>2020-06-18T15:23:41Z</time>
      </trkpt>
      <trkpt lat="50.09199" lon="1.47679">
        <ele>93.8</ele>
        <time>2020-06-18T15:23:42Z</time>
      </trkpt>
      <trkpt lat="50.09203" lon="1.47684">
        <ele>93.8</ele>
        <time>2020-06-18T15:23:43Z</time>
      </trkpt>
      <trkpt lat="50.09207" lon="1.47693">
        <ele>93.9</ele>
        <time>2020-06-18T15:23:44Z</time>
      </trkpt>
      <trkpt lat="50.0921" lon="1.47699">
        <ele>93.9</ele>
        <time>2020-06-18T15:23:45Z</time>
      </trkpt>
      <trkpt lat="50.09214" lon="1.47705">
        <ele>94</ele>
        <time>2020-06-18T15:23:46Z</time>
      </trkpt>
      <trkpt lat="50.09218" lon="1.47716">
        <ele>94.1</ele>
        <time>2020-06-18T15:23:47Z</time>
      </trkpt>
      <trkpt lat="50.09221" lon="1.47722">
        <ele>94.1</ele>
        <time>2020-06-18T15:23:48Z</time>
      </trkpt>
      <trkpt lat="50.09224" lon="1.47729">
        <ele>94.1</ele>
        <time>2020-06-18T15:23:49Z</time>
      </trkpt>
      <trkpt lat="50.09228" lon="1.47737">
        <ele>94.2</ele>
        <time>2020-06-18T15:23:50Z</time>
      </trkpt>
      <trkpt lat="50.09232" lon="1.47748">
        <ele>94.2</ele>
        <time>2020-06-18T15:23:51Z</time>
      </trkpt>
      <trkpt lat="50.09235" lon="1.47755">
        <ele>94.2</ele>
        <time>2020-06-18T15:23:52Z</time>
      </trkpt>
      <trkpt lat="50.09238" lon="1.47763">
        <ele>94.2</ele>
        <time>2020-06-18T15:23:53Z</time>
      </trkpt>
      <trkpt lat="50.09241" lon="1.47769">
        <ele>94.3</ele>
        <time>2020-06-18T15:23:54Z</time>
      </trkpt>
      <trkpt lat="50.09245" lon="1.47776">
        <ele>94.3</ele>
        <time>2020-06-18T15:23:55Z</time>
      </trkpt>
      <trkpt lat="50.09248" lon="1.47783">
        <ele>94.3</ele>
        <time>2020-06-18T15:23:56Z</time>
      </trkpt>
      <trkpt lat="50.09252" lon="1.47791">
        <ele>94.4</ele>
        <time>2020-06-18T15:23:57Z</time>
      </trkpt>
      <trkpt lat="50.09256" lon="1.47799">
        <ele>94.4</ele>
        <time>2020-06-18T15:23:58Z</time>
      </trkpt>
      <trkpt lat="50.0926" lon="1.47807">
        <ele>94.4</ele>
        <time>2020-06-18T15:23:59Z</time>
      </trkpt>
      <trkpt lat="50.09263" lon="1.47813">
        <ele>94.5</ele>
        <time>2020-06-18T15:24:00Z</time>
      </trkpt>
      <trkpt lat="50.09266" lon="1.4782">
        <ele>94.5</ele>
        <time>2020-06-18T15:24:01Z</time>
      </trkpt>
      <trkpt lat="50.09269" lon="1.47828">
        <ele>94.5</ele>
        <time>2020-06-18T15:24:02Z</time>
      </trkpt>
      <trkpt lat="50.09271" lon="1.47834">
        <ele>94.5</ele>
        <time>2020-06-18T15:24:03Z</time>
      </trkpt>
      <trkpt lat="50.09274" lon="1.47842">
        <ele>94.5</ele>
        <time>2020-06-18T15:24:04Z</time>
      </trkpt>
      <trkpt lat="50.09278" lon="1.4785">
        <ele>94.4</ele>
        <time>2020-06-18T15:24:05Z</time>
      </trkpt>
      <trkpt lat="50.09282" lon="1.47859">
        <ele>94.3</ele>
        <time>2020-06-18T15:24:06Z</time>
      </trkpt>
      <trkpt lat="50.09284" lon="1.47864">
        <ele>94.2</ele>
        <time>2020-06-18T15:24:07Z</time>
      </trkpt>
      <trkpt lat="50.09288" lon="1.47874">
        <ele>94.1</ele>
        <time>2020-06-18T15:24:08Z</time>
      </trkpt>
      <trkpt lat="50.09292" lon="1.47882">
        <ele>94</ele>
        <time>2020-06-18T15:24:09Z</time>
      </trkpt>
      <trkpt lat="50.09296" lon="1.47893">
        <ele>93.8</ele>
        <time>2020-06-18T15:24:10Z</time>
      </trkpt>
      <trkpt lat="50.093" lon="1.47903">
        <ele>93.7</ele>
        <time>2020-06-18T15:24:11Z</time>
      </trkpt>
      <trkpt lat="50.09305" lon="1.47913">
        <ele>93.6</ele>
        <time>2020-06-18T15:24:12Z</time>
      </trkpt>
      <trkpt lat="50.09309" lon="1.47923">
        <ele>93.5</ele>
        <time>2020-06-18T15:24:13Z</time>
      </trkpt>
      <trkpt lat="50.09312" lon="1.47931">
        <ele>93.3</ele>
        <time>2020-06-18T15:24:14Z</time>
      </trkpt>
      <trkpt lat="50.09315" lon="1.47939">
        <ele>93.2</ele>
        <time>2020-06-18T15:24:15Z</time>
      </trkpt>
      <trkpt lat="50.09318" lon="1.47948">
        <ele>93</ele>
        <time>2020-06-18T15:24:16Z</time>
      </trkpt>
      <trkpt lat="50.09321" lon="1.47957">
        <ele>92.9</ele>
        <time>2020-06-18T15:24:17Z</time>
      </trkpt>
      <trkpt lat="50.09324" lon="1.47965">
        <ele>92.7</ele>
        <time>2020-06-18T15:24:18Z</time>
      </trkpt>
      <trkpt lat="50.09327" lon="1.47973">
        <ele>92.6</ele>
        <time>2020-06-18T15:24:19Z</time>
      </trkpt>
      <trkpt lat="50.09331" lon="1.47981">
        <ele>92.4</ele>
        <time>2020-06-18T15:24:20Z</time>
      </trkpt>
      <trkpt lat="50.09334" lon="1.4799">
        <ele>92.3</ele>
        <time>2020-06-18T15:24:21Z</time>
      </trkpt>
      <trkpt lat="50.09337" lon="1.47999">
        <ele>92.1</ele>
        <time>2020-06-18T15:24:22Z</time>
      </trkpt>
      <trkpt lat="50.09341" lon="1.48008">
        <ele>91.9</ele>
        <time>2020-06-18T15:24:23Z</time>
      </trkpt>
      <trkpt lat="50.09345" lon="1.48017">
        <ele>91.6</ele>
        <time>2020-06-18T15:24:24Z</time>
      </trkpt>
      <trkpt lat="50.09348" lon="1.48025">
        <ele>91.3</ele>
        <time>2020-06-18T15:24:25Z</time>
      </trkpt>
      <trkpt lat="50.09352" lon="1.48033">
        <ele>91.1</ele>
        <time>2020-06-18T15:24:26Z</time>
      </trkpt>
      <trkpt lat="50.09357" lon="1.48042">
        <ele>90.8</ele>
        <time>2020-06-18T15:24:27Z</time>
      </trkpt>
      <trkpt lat="50.0936" lon="1.48051">
        <ele>90.6</ele>
        <time>2020-06-18T15:24:28Z</time>
      </trkpt>
      <trkpt lat="50.09364" lon="1.4806">
        <ele>90.3</ele>
        <time>2020-06-18T15:24:29Z</time>
      </trkpt>
      <trkpt lat="50.09368" lon="1.48069">
        <ele>90.1</ele>
        <time>2020-06-18T15:24:30Z</time>
      </trkpt>
      <trkpt lat="50.09372" lon="1.48077">
        <ele>89.9</ele>
        <time>2020-06-18T15:24:31Z</time>
      </trkpt>
      <trkpt lat="50.09376" lon="1.48086">
        <ele>89.7</ele>
        <time>2020-06-18T15:24:32Z</time>
      </trkpt>
      <trkpt lat="50.09381" lon="1.48094">
        <ele>89.5</ele>
        <time>2020-06-18T15:24:33Z</time>
      </trkpt>
      <trkpt lat="50.09385" lon="1.48102">
        <ele>89.3</ele>
        <time>2020-06-18T15:24:34Z</time>
      </trkpt>
      <trkpt lat="50.09389" lon="1.4811">
        <ele>89.2</ele>
        <time>2020-06-18T15:24:35Z</time>
      </trkpt>
      <trkpt lat="50.09393" lon="1.48118">
        <ele>89</ele>
        <time>2020-06-18T15:24:36Z</time>
      </trkpt>
      <trkpt lat="50.09397" lon="1.48126">
        <ele>88.9</ele>
        <time>2020-06-18T15:24:37Z</time>
      </trkpt>
      <trkpt lat="50.09401" lon="1.48135">
        <ele>88.7</ele>
        <time>2020-06-18T15:24:38Z</time>
      </trkpt>
      <trkpt lat="50.09405" lon="1.48143">
        <ele>88.6</ele>
        <time>2020-06-18T15:24:39Z</time>
      </trkpt>
      <trkpt lat="50.09409" lon="1.48151">
        <ele>88.4</ele>
        <time>2020-06-18T15:24:40Z</time>
      </trkpt>
      <trkpt lat="50.09413" lon="1.48159">
        <ele>88.2</ele>
        <time>2020-06-18T15:24:41Z</time>
      </trkpt>
      <trkpt lat="50.09417" lon="1.48167">
        <ele>88</ele>
        <time>2020-06-18T15:24:42Z</time>
      </trkpt>
      <trkpt lat="50.09421" lon="1.48175">
        <ele>87.9</ele>
        <time>2020-06-18T15:24:43Z</time>
      </trkpt>
      <trkpt lat="50.09425" lon="1.48183">
        <ele>87.7</ele>
        <time>2020-06-18T15:24:44Z</time>
      </trkpt>
      <trkpt lat="50.09429" lon="1.48191">
        <ele>87.5</ele>
        <time>2020-06-18T15:24:45Z</time>
      </trkpt>
      <trkpt lat="50.09433" lon="1.482">
        <ele>87.4</ele>
        <time>2020-06-18T15:24:46Z</time>
      </trkpt>
      <trkpt lat="50.09437" lon="1.48208">
        <ele>87.2</ele>
        <time>2020-06-18T15:24:47Z</time>
      </trkpt>
      <trkpt lat="50.09441" lon="1.48216">
        <ele>87</ele>
        <time>2020-06-18T15:24:48Z</time>
      </trkpt>
      <trkpt lat="50.09445" lon="1.48225">
        <ele>86.8</ele>
        <time>2020-06-18T15:24:49Z</time>
      </trkpt>
      <trkpt lat="50.09449" lon="1.48234">
        <ele>86.6</ele>
        <time>2020-06-18T15:24:50Z</time>
      </trkpt>
      <trkpt lat="50.09453" lon="1.48242">
        <ele>86.4</ele>
        <time>2020-06-18T15:24:51Z</time>
      </trkpt>
      <trkpt lat="50.09457" lon="1.48251">
        <ele>86.2</ele>
        <time>2020-06-18T15:24:52Z</time>
      </trkpt>
      <trkpt lat="50.09461" lon="1.4826">
        <ele>86.1</ele>
        <time>2020-06-18T15:24:53Z</time>
      </trkpt>
      <trkpt lat="50.09465" lon="1.48268">
        <ele>85.9</ele>
        <time>2020-06-18T15:24:54Z</time>
      </trkpt>
      <trkpt lat="50.09469" lon="1.48277">
        <ele>85.8</ele>
        <time>2020-06-18T15:24:55Z</time>
      </trkpt>
      <trkpt lat="50.09473" lon="1.48286">
        <ele>85.7</ele>
        <time>2020-06-18T15:24:56Z</time>
      </trkpt>
      <trkpt lat="50.09478" lon="1.48294">
        <ele>85.5</ele>
        <time>2020-06-18T15:24:57Z</time>
      </trkpt>
      <trkpt lat="50.09482" lon="1.48303">
        <ele>85.4</ele>
        <time>2020-06-18T15:24:58Z</time>
      </trkpt>
      <trkpt lat="50.09486" lon="1.48312">
        <ele>85.3</ele>
        <time>2020-06-18T15:24:59Z</time>
      </trkpt>
      <trkpt lat="50.09489" lon="1.48321">
        <ele>85.2</ele>
        <time>2020-06-18T15:25:00Z</time>
      </trkpt>
      <trkpt lat="50.09493" lon="1.4833">
        <ele>85.1</ele>
        <time>2020-06-18T15:25:01Z</time>
      </trkpt>
      <trkpt lat="50.09496" lon="1.4834">
        <ele>84.9</ele>
        <time>2020-06-18T15:25:02Z</time>
      </trkpt>
      <trkpt lat="50.095" lon="1.48349">
        <ele>84.8</ele>
        <time>2020-06-18T15:25:03Z</time>
      </trkpt>
      <trkpt lat="50.09503" lon="1.48358">
        <ele>84.7</ele>
        <time>2020-06-18T15:25:04Z</time>
      </trkpt>
      <trkpt lat="50.09507" lon="1.48366">
        <ele>84.6</ele>
        <time>2020-06-18T15:25:05Z</time>
      </trkpt>
      <trkpt lat="50.09509" lon="1.48375">
        <ele>84.5</ele>
        <time>2020-06-18T15:25:06Z</time>
      </trkpt>
      <trkpt lat="50.09512" lon="1.48385">
        <ele>84.4</ele>
        <time>2020-06-18T15:25:07Z</time>
      </trkpt>
      <trkpt lat="50.09514" lon="1.48394">
        <ele>84.3</ele>
        <time>2020-06-18T15:25:08Z</time>
      </trkpt>
      <trkpt lat="50.09517" lon="1.48404">
        <ele>84.2</ele>
        <time>2020-06-18T15:25:09Z</time>
      </trkpt>
      <trkpt lat="50.09518" lon="1.48414">
        <ele>84.1</ele>
        <time>2020-06-18T15:25:10Z</time>
      </trkpt>
      <trkpt lat="50.0952" lon="1.48424">
        <ele>84</ele>
        <time>2020-06-18T15:25:11Z</time>
      </trkpt>
      <trkpt lat="50.09522" lon="1.48435">
        <ele>83.9</ele>
        <time>2020-06-18T15:25:12Z</time>
      </trkpt>
      <trkpt lat="50.09523" lon="1.48446">
        <ele>83.8</ele>
        <time>2020-06-18T15:25:13Z</time>
      </trkpt>
      <trkpt lat="50.09524" lon="1.48457">
        <ele>83.7</ele>
        <time>2020-06-18T15:25:14Z</time>
      </trkpt>
      <trkpt lat="50.09524" lon="1.48467">
        <ele>83.7</ele>
        <time>2020-06-18T15:25:15Z</time>
      </trkpt>
      <trkpt lat="50.09525" lon="1.48478">
        <ele>83.6</ele>
        <time>2020-06-18T15:25:16Z</time>
      </trkpt>
      <trkpt lat="50.09527" lon="1.48488">
        <ele>83.5</ele>
        <time>2020-06-18T15:25:17Z</time>
      </trkpt>
      <trkpt lat="50.09528" lon="1.48499">
        <ele>83.4</ele>
        <time>2020-06-18T15:25:18Z</time>
      </trkpt>
      <trkpt lat="50.09529" lon="1.48509">
        <ele>83.2</ele>
        <time>2020-06-18T15:25:19Z</time>
      </trkpt>
      <trkpt lat="50.0953" lon="1.48519">
        <ele>83.1</ele>
        <time>2020-06-18T15:25:20Z</time>
      </trkpt>
      <trkpt lat="50.09532" lon="1.48529">
        <ele>83</ele>
        <time>2020-06-18T15:25:21Z</time>
      </trkpt>
      <trkpt lat="50.09535" lon="1.48539">
        <ele>82.9</ele>
        <time>2020-06-18T15:25:22Z</time>
      </trkpt>
      <trkpt lat="50.09537" lon="1.48549">
        <ele>82.8</ele>
        <time>2020-06-18T15:25:23Z</time>
      </trkpt>
      <trkpt lat="50.09541" lon="1.48558">
        <ele>82.7</ele>
        <time>2020-06-18T15:25:24Z</time>
      </trkpt>
      <trkpt lat="50.09545" lon="1.48567">
        <ele>82.7</ele>
        <time>2020-06-18T15:25:25Z</time>
      </trkpt>
      <trkpt lat="50.09549" lon="1.48575">
        <ele>82.6</ele>
        <time>2020-06-18T15:25:26Z</time>
      </trkpt>
      <trkpt lat="50.09554" lon="1.48584">
        <ele>82.5</ele>
        <time>2020-06-18T15:25:27Z</time>
      </trkpt>
      <trkpt lat="50.09558" lon="1.48593">
        <ele>82.5</ele>
        <time>2020-06-18T15:25:28Z</time>
      </trkpt>
      <trkpt lat="50.09562" lon="1.48603">
        <ele>82.4</ele>
        <time>2020-06-18T15:25:29Z</time>
      </trkpt>
      <trkpt lat="50.09565" lon="1.48612">
        <ele>82.3</ele>
        <time>2020-06-18T15:25:30Z</time>
      </trkpt>
      <trkpt lat="50.09569" lon="1.48621">
        <ele>82.2</ele>
        <time>2020-06-18T15:25:31Z</time>
      </trkpt>
      <trkpt lat="50.09573" lon="1.4863">
        <ele>82.1</ele>
        <time>2020-06-18T15:25:32Z</time>
      </trkpt>
      <trkpt lat="50.09577" lon="1.48638">
        <ele>82</ele>
        <time>2020-06-18T15:25:33Z</time>
      </trkpt>
      <trkpt lat="50.09581" lon="1.48647">
        <ele>81.9</ele>
        <time>2020-06-18T15:25:34Z</time>
      </trkpt>
      <trkpt lat="50.09585" lon="1.48655">
        <ele>81.8</ele>
        <time>2020-06-18T15:25:35Z</time>
      </trkpt>
      <trkpt lat="50.09589" lon="1.48663">
        <ele>81.7</ele>
        <time>2020-06-18T15:25:36Z</time>
      </trkpt>
      <trkpt lat="50.09594" lon="1.48672">
        <ele>81.6</ele>
        <time>2020-06-18T15:25:37Z</time>
      </trkpt>
      <trkpt lat="50.09598" lon="1.4868">
        <ele>81.5</ele>
        <time>2020-06-18T15:25:38Z</time>
      </trkpt>
      <trkpt lat="50.09603" lon="1.48689">
        <ele>81.3</ele>
        <time>2020-06-18T15:25:39Z</time>
      </trkpt>
      <trkpt lat="50.09608" lon="1.48697">
        <ele>81.2</ele>
        <time>2020-06-18T15:25:40Z</time>
      </trkpt>
      <trkpt lat="50.09613" lon="1.48704">
        <ele>81</ele>
        <time>2020-06-18T15:25:41Z</time>
      </trkpt>
      <trkpt lat="50.09618" lon="1.48712">
        <ele>80.7</ele>
        <time>2020-06-18T15:25:42Z</time>
      </trkpt>
      <trkpt lat="50.09623" lon="1.4872">
        <ele>80.5</ele>
        <time>2020-06-18T15:25:43Z</time>
      </trkpt>
      <trkpt lat="50.09628" lon="1.48728">
        <ele>80.2</ele>
        <time>2020-06-18T15:25:44Z</time>
      </trkpt>
      <trkpt lat="50.09633" lon="1.48736">
        <ele>80</ele>
        <time>2020-06-18T15:25:45Z</time>
      </trkpt>
      <trkpt lat="50.09639" lon="1.48743">
        <ele>79.8</ele>
        <time>2020-06-18T15:25:46Z</time>
      </trkpt>
      <trkpt lat="50.09645" lon="1.4875">
        <ele>79.6</ele>
        <time>2020-06-18T15:25:47Z</time>
      </trkpt>
      <trkpt lat="50.0965" lon="1.48755">
        <ele>79.4</ele>
        <time>2020-06-18T15:25:48Z</time>
      </trkpt>
      <trkpt lat="50.09656" lon="1.48761">
        <ele>79.2</ele>
        <time>2020-06-18T15:25:49Z</time>
      </trkpt>
      <trkpt lat="50.09661" lon="1.48767">
        <ele>79.1</ele>
        <time>2020-06-18T15:25:50Z</time>
      </trkpt>
      <trkpt lat="50.09667" lon="1.48773">
        <ele>79</ele>
        <time>2020-06-18T15:25:51Z</time>
      </trkpt>
      <trkpt lat="50.09673" lon="1.48778">
        <ele>78.9</ele>
        <time>2020-06-18T15:25:52Z</time>
      </trkpt>
      <trkpt lat="50.09679" lon="1.48784">
        <ele>78.8</ele>
        <time>2020-06-18T15:25:53Z</time>
      </trkpt>
      <trkpt lat="50.09685" lon="1.48789">
        <ele>78.7</ele>
        <time>2020-06-18T15:25:54Z</time>
      </trkpt>
      <trkpt lat="50.09692" lon="1.48794">
        <ele>78.6</ele>
        <time>2020-06-18T15:25:55Z</time>
      </trkpt>
      <trkpt lat="50.09698" lon="1.48799">
        <ele>78.5</ele>
        <time>2020-06-18T15:25:56Z</time>
      </trkpt>
      <trkpt lat="50.09704" lon="1.48804">
        <ele>78.3</ele>
        <time>2020-06-18T15:25:57Z</time>
      </trkpt>
      <trkpt lat="50.09709" lon="1.4881">
        <ele>78.2</ele>
        <time>2020-06-18T15:25:58Z</time>
      </trkpt>
      <trkpt lat="50.09715" lon="1.48816">
        <ele>78.1</ele>
        <time>2020-06-18T15:25:59Z</time>
      </trkpt>
      <trkpt lat="50.0972" lon="1.48822">
        <ele>78</ele>
        <time>2020-06-18T15:26:00Z</time>
      </trkpt>
      <trkpt lat="50.09725" lon="1.48829">
        <ele>77.9</ele>
        <time>2020-06-18T15:26:01Z</time>
      </trkpt>
      <trkpt lat="50.0973" lon="1.48836">
        <ele>77.9</ele>
        <time>2020-06-18T15:26:02Z</time>
      </trkpt>
      <trkpt lat="50.09734" lon="1.48843">
        <ele>77.8</ele>
        <time>2020-06-18T15:26:03Z</time>
      </trkpt>
      <trkpt lat="50.09738" lon="1.4885">
        <ele>77.8</ele>
        <time>2020-06-18T15:26:04Z</time>
      </trkpt>
      <trkpt lat="50.09743" lon="1.48858">
        <ele>77.7</ele>
        <time>2020-06-18T15:26:05Z</time>
      </trkpt>
      <trkpt lat="50.09747" lon="1.48866">
        <ele>77.6</ele>
        <time>2020-06-18T15:26:06Z</time>
      </trkpt>
      <trkpt lat="50.09751" lon="1.48874">
        <ele>77.6</ele>
        <time>2020-06-18T15:26:07Z</time>
      </trkpt>
      <trkpt lat="50.09755" lon="1.48883">
        <ele>77.5</ele>
        <time>2020-06-18T15:26:08Z</time>
      </trkpt>
      <trkpt lat="50.09758" lon="1.48891">
        <ele>77.4</ele>
        <time>2020-06-18T15:26:09Z</time>
      </trkpt>
      <trkpt lat="50.09762" lon="1.48899">
        <ele>77.3</ele>
        <time>2020-06-18T15:26:10Z</time>
      </trkpt>
      <trkpt lat="50.09766" lon="1.48908">
        <ele>77.2</ele>
        <time>2020-06-18T15:26:11Z</time>
      </trkpt>
      <trkpt lat="50.0977" lon="1.48917">
        <ele>77.1</ele>
        <time>2020-06-18T15:26:12Z</time>
      </trkpt>
      <trkpt lat="50.09774" lon="1.48926">
        <ele>77.1</ele>
        <time>2020-06-18T15:26:13Z</time>
      </trkpt>
      <trkpt lat="50.09778" lon="1.48934">
        <ele>77</ele>
        <time>2020-06-18T15:26:14Z</time>
      </trkpt>
      <trkpt lat="50.09782" lon="1.48944">
        <ele>77</ele>
        <time>2020-06-18T15:26:15Z</time>
      </trkpt>
      <trkpt lat="50.09786" lon="1.48953">
        <ele>76.9</ele>
        <time>2020-06-18T15:26:16Z</time>
      </trkpt>
      <trkpt lat="50.09791" lon="1.48961">
        <ele>76.8</ele>
        <time>2020-06-18T15:26:17Z</time>
      </trkpt>
      <trkpt lat="50.09796" lon="1.4897">
        <ele>76.8</ele>
        <time>2020-06-18T15:26:18Z</time>
      </trkpt>
      <trkpt lat="50.09801" lon="1.4898">
        <ele>76.7</ele>
        <time>2020-06-18T15:26:19Z</time>
      </trkpt>
      <trkpt lat="50.09806" lon="1.48989">
        <ele>76.7</ele>
        <time>2020-06-18T15:26:20Z</time>
      </trkpt>
      <trkpt lat="50.0981" lon="1.48998">
        <ele>76.6</ele>
        <time>2020-06-18T15:26:21Z</time>
      </trkpt>
      <trkpt lat="50.09814" lon="1.49006">
        <ele>76.5</ele>
        <time>2020-06-18T15:26:22Z</time>
      </trkpt>
      <trkpt lat="50.09817" lon="1.49014">
        <ele>76.5</ele>
        <time>2020-06-18T15:26:23Z</time>
      </trkpt>
      <trkpt lat="50.09822" lon="1.49022">
        <ele>76.4</ele>
        <time>2020-06-18T15:26:24Z</time>
      </trkpt>
      <trkpt lat="50.09826" lon="1.49031">
        <ele>76.4</ele>
        <time>2020-06-18T15:26:25Z</time>
      </trkpt>
      <trkpt lat="50.09831" lon="1.49039">
        <ele>76.4</ele>
        <time>2020-06-18T15:26:26Z</time>
      </trkpt>
      <trkpt lat="50.09836" lon="1.49047">
        <ele>76.3</ele>
        <time>2020-06-18T15:26:27Z</time>
      </trkpt>
      <trkpt lat="50.09841" lon="1.49055">
        <ele>76.2</ele>
        <time>2020-06-18T15:26:28Z</time>
      </trkpt>
      <trkpt lat="50.09848" lon="1.49063">
        <ele>76.1</ele>
        <time>2020-06-18T15:26:29Z</time>
      </trkpt>
      <trkpt lat="50.09853" lon="1.49071">
        <ele>76</ele>
        <time>2020-06-18T15:26:30Z</time>
      </trkpt>
      <trkpt lat="50.09857" lon="1.49078">
        <ele>76</ele>
        <time>2020-06-18T15:26:31Z</time>
      </trkpt>
      <trkpt lat="50.09862" lon="1.49085">
        <ele>75.9</ele>
        <time>2020-06-18T15:26:32Z</time>
      </trkpt>
      <trkpt lat="50.09866" lon="1.49093">
        <ele>75.9</ele>
        <time>2020-06-18T15:26:33Z</time>
      </trkpt>
      <trkpt lat="50.09869" lon="1.49102">
        <ele>75.8</ele>
        <time>2020-06-18T15:26:34Z</time>
      </trkpt>
      <trkpt lat="50.09873" lon="1.49109">
        <ele>75.7</ele>
        <time>2020-06-18T15:26:35Z</time>
      </trkpt>
      <trkpt lat="50.09877" lon="1.4912">
        <ele>75.6</ele>
        <time>2020-06-18T15:26:36Z</time>
      </trkpt>
      <trkpt lat="50.09881" lon="1.4913">
        <ele>75.5</ele>
        <time>2020-06-18T15:26:37Z</time>
      </trkpt>
      <trkpt lat="50.09885" lon="1.49142">
        <ele>75.5</ele>
        <time>2020-06-18T15:26:38Z</time>
      </trkpt>
      <trkpt lat="50.09889" lon="1.49152">
        <ele>75.4</ele>
        <time>2020-06-18T15:26:39Z</time>
      </trkpt>
      <trkpt lat="50.09892" lon="1.49161">
        <ele>75.3</ele>
        <time>2020-06-18T15:26:40Z</time>
      </trkpt>
      <trkpt lat="50.09895" lon="1.49171">
        <ele>75.2</ele>
        <time>2020-06-18T15:26:41Z</time>
      </trkpt>
      <trkpt lat="50.09897" lon="1.4918">
        <ele>75.1</ele>
        <time>2020-06-18T15:26:42Z</time>
      </trkpt>
      <trkpt lat="50.099" lon="1.4919">
        <ele>74.9</ele>
        <time>2020-06-18T15:26:43Z</time>
      </trkpt>
      <trkpt lat="50.09902" lon="1.49202">
        <ele>74.8</ele>
        <time>2020-06-18T15:26:44Z</time>
      </trkpt>
      <trkpt lat="50.09904" lon="1.49211">
        <ele>74.6</ele>
        <time>2020-06-18T15:26:45Z</time>
      </trkpt>
      <trkpt lat="50.09907" lon="1.49221">
        <ele>74.5</ele>
        <time>2020-06-18T15:26:46Z</time>
      </trkpt>
      <trkpt lat="50.0991" lon="1.49232">
        <ele>74.3</ele>
        <time>2020-06-18T15:26:47Z</time>
      </trkpt>
      <trkpt lat="50.09911" lon="1.49245">
        <ele>74.1</ele>
        <time>2020-06-18T15:26:48Z</time>
      </trkpt>
      <trkpt lat="50.09914" lon="1.49255">
        <ele>73.9</ele>
        <time>2020-06-18T15:26:49Z</time>
      </trkpt>
      <trkpt lat="50.09917" lon="1.49265">
        <ele>73.7</ele>
        <time>2020-06-18T15:26:50Z</time>
      </trkpt>
      <trkpt lat="50.09921" lon="1.49275">
        <ele>73.5</ele>
        <time>2020-06-18T15:26:51Z</time>
      </trkpt>
      <trkpt lat="50.09924" lon="1.49285">
        <ele>73.3</ele>
        <time>2020-06-18T15:26:52Z</time>
      </trkpt>
      <trkpt lat="50.09927" lon="1.49295">
        <ele>73.1</ele>
        <time>2020-06-18T15:26:53Z</time>
      </trkpt>
      <trkpt lat="50.0993" lon="1.49304">
        <ele>72.9</ele>
        <time>2020-06-18T15:26:54Z</time>
      </trkpt>
      <trkpt lat="50.09934" lon="1.49313">
        <ele>72.8</ele>
        <time>2020-06-18T15:26:55Z</time>
      </trkpt>
      <trkpt lat="50.09937" lon="1.49323">
        <ele>72.6</ele>
        <time>2020-06-18T15:26:56Z</time>
      </trkpt>
      <trkpt lat="50.0994" lon="1.49332">
        <ele>72.5</ele>
        <time>2020-06-18T15:26:57Z</time>
      </trkpt>
      <trkpt lat="50.09943" lon="1.49341">
        <ele>72.4</ele>
        <time>2020-06-18T15:26:58Z</time>
      </trkpt>
      <trkpt lat="50.09947" lon="1.49351">
        <ele>72.3</ele>
        <time>2020-06-18T15:26:59Z</time>
      </trkpt>
      <trkpt lat="50.0995" lon="1.49361">
        <ele>72.2</ele>
        <time>2020-06-18T15:27:00Z</time>
      </trkpt>
      <trkpt lat="50.09954" lon="1.49371">
        <ele>72</ele>
        <time>2020-06-18T15:27:01Z</time>
      </trkpt>
      <trkpt lat="50.09957" lon="1.4938">
        <ele>71.8</ele>
        <time>2020-06-18T15:27:02Z</time>
      </trkpt>
      <trkpt lat="50.0996" lon="1.4939">
        <ele>71.6</ele>
        <time>2020-06-18T15:27:03Z</time>
      </trkpt>
      <trkpt lat="50.09964" lon="1.49399">
        <ele>71.4</ele>
        <time>2020-06-18T15:27:04Z</time>
      </trkpt>
      <trkpt lat="50.09967" lon="1.49409">
        <ele>71.3</ele>
        <time>2020-06-18T15:27:05Z</time>
      </trkpt>
      <trkpt lat="50.0997" lon="1.49417">
        <ele>71.1</ele>
        <time>2020-06-18T15:27:06Z</time>
      </trkpt>
      <trkpt lat="50.09973" lon="1.49426">
        <ele>70.9</ele>
        <time>2020-06-18T15:27:07Z</time>
      </trkpt>
      <trkpt lat="50.09977" lon="1.49434">
        <ele>70.7</ele>
        <time>2020-06-18T15:27:08Z</time>
      </trkpt>
      <trkpt lat="50.09981" lon="1.49443">
        <ele>70.4</ele>
        <time>2020-06-18T15:27:09Z</time>
      </trkpt>
      <trkpt lat="50.09984" lon="1.49452">
        <ele>70.2</ele>
        <time>2020-06-18T15:27:10Z</time>
      </trkpt>
      <trkpt lat="50.09988" lon="1.4946">
        <ele>69.9</ele>
        <time>2020-06-18T15:27:11Z</time>
      </trkpt>
      <trkpt lat="50.09992" lon="1.49469">
        <ele>69.7</ele>
        <time>2020-06-18T15:27:12Z</time>
      </trkpt>
      <trkpt lat="50.09995" lon="1.49478">
        <ele>69.4</ele>
        <time>2020-06-18T15:27:13Z</time>
      </trkpt>
      <trkpt lat="50.09998" lon="1.49489">
        <ele>69.2</ele>
        <time>2020-06-18T15:27:14Z</time>
      </trkpt>
      <trkpt lat="50.10001" lon="1.49499">
        <ele>68.9</ele>
        <time>2020-06-18T15:27:15Z</time>
      </trkpt>
      <trkpt lat="50.10004" lon="1.49509">
        <ele>68.7</ele>
        <time>2020-06-18T15:27:16Z</time>
      </trkpt>
      <trkpt lat="50.10007" lon="1.49518">
        <ele>68.4</ele>
        <time>2020-06-18T15:27:17Z</time>
      </trkpt>
      <trkpt lat="50.1001" lon="1.49528">
        <ele>68.2</ele>
        <time>2020-06-18T15:27:18Z</time>
      </trkpt>
      <trkpt lat="50.10013" lon="1.49538">
        <ele>67.9</ele>
        <time>2020-06-18T15:27:19Z</time>
      </trkpt>
      <trkpt lat="50.10016" lon="1.49548">
        <ele>67.6</ele>
        <time>2020-06-18T15:27:20Z</time>
      </trkpt>
      <trkpt lat="50.1002" lon="1.49558">
        <ele>67.4</ele>
        <time>2020-06-18T15:27:21Z</time>
      </trkpt>
      <trkpt lat="50.10024" lon="1.49567">
        <ele>67.1</ele>
        <time>2020-06-18T15:27:22Z</time>
      </trkpt>
      <trkpt lat="50.10028" lon="1.49577">
        <ele>66.8</ele>
        <time>2020-06-18T15:27:23Z</time>
      </trkpt>
      <trkpt lat="50.10032" lon="1.49587">
        <ele>66.6</ele>
        <time>2020-06-18T15:27:24Z</time>
      </trkpt>
      <trkpt lat="50.10036" lon="1.49597">
        <ele>66.3</ele>
        <time>2020-06-18T15:27:25Z</time>
      </trkpt>
      <trkpt lat="50.1004" lon="1.49607">
        <ele>66.1</ele>
        <time>2020-06-18T15:27:26Z</time>
      </trkpt>
      <trkpt lat="50.10044" lon="1.49617">
        <ele>65.8</ele>
        <time>2020-06-18T15:27:27Z</time>
      </trkpt>
      <trkpt lat="50.10049" lon="1.49627">
        <ele>65.5</ele>
        <time>2020-06-18T15:27:28Z</time>
      </trkpt>
      <trkpt lat="50.10053" lon="1.49637">
        <ele>65.2</ele>
        <time>2020-06-18T15:27:29Z</time>
      </trkpt>
      <trkpt lat="50.10058" lon="1.49647">
        <ele>64.8</ele>
        <time>2020-06-18T15:27:30Z</time>
      </trkpt>
      <trkpt lat="50.10063" lon="1.49658">
        <ele>64.5</ele>
        <time>2020-06-18T15:27:31Z</time>
      </trkpt>
      <trkpt lat="50.10067" lon="1.49668">
        <ele>64.2</ele>
        <time>2020-06-18T15:27:32Z</time>
      </trkpt>
      <trkpt lat="50.10072" lon="1.49678">
        <ele>64</ele>
        <time>2020-06-18T15:27:33Z</time>
      </trkpt>
      <trkpt lat="50.10077" lon="1.49688">
        <ele>63.7</ele>
        <time>2020-06-18T15:27:34Z</time>
      </trkpt>
      <trkpt lat="50.10081" lon="1.49698">
        <ele>63.5</ele>
        <time>2020-06-18T15:27:35Z</time>
      </trkpt>
      <trkpt lat="50.10086" lon="1.49708">
        <ele>63.2</ele>
        <time>2020-06-18T15:27:36Z</time>
      </trkpt>
      <trkpt lat="50.1009" lon="1.49718">
        <ele>62.9</ele>
        <time>2020-06-18T15:27:37Z</time>
      </trkpt>
      <trkpt lat="50.10095" lon="1.49727">
        <ele>62.7</ele>
        <time>2020-06-18T15:27:38Z</time>
      </trkpt>
      <trkpt lat="50.101" lon="1.49737">
        <ele>62.4</ele>
        <time>2020-06-18T15:27:39Z</time>
      </trkpt>
      <trkpt lat="50.10104" lon="1.49748">
        <ele>62.1</ele>
        <time>2020-06-18T15:27:40Z</time>
      </trkpt>
      <trkpt lat="50.10109" lon="1.49759">
        <ele>61.8</ele>
        <time>2020-06-18T15:27:41Z</time>
      </trkpt>
      <trkpt lat="50.10113" lon="1.49769">
        <ele>61.4</ele>
        <time>2020-06-18T15:27:42Z</time>
      </trkpt>
      <trkpt lat="50.10117" lon="1.49779">
        <ele>61.1</ele>
        <time>2020-06-18T15:27:43Z</time>
      </trkpt>
      <trkpt lat="50.10121" lon="1.49789">
        <ele>60.7</ele>
        <time>2020-06-18T15:27:44Z</time>
      </trkpt>
      <trkpt lat="50.10125" lon="1.498">
        <ele>59.3</ele>
        <time>2020-06-18T15:27:45Z</time>
      </trkpt>
      <trkpt lat="50.10128" lon="1.4981">
        <ele>59</ele>
        <time>2020-06-18T15:27:46Z</time>
      </trkpt>
      <trkpt lat="50.10132" lon="1.4982">
        <ele>58.7</ele>
        <time>2020-06-18T15:27:47Z</time>
      </trkpt>
      <trkpt lat="50.10134" lon="1.49831">
        <ele>58.4</ele>
        <time>2020-06-18T15:27:48Z</time>
      </trkpt>
      <trkpt lat="50.10136" lon="1.49842">
        <ele>58.1</ele>
        <time>2020-06-18T15:27:49Z</time>
      </trkpt>
      <trkpt lat="50.10137" lon="1.49854">
        <ele>57.8</ele>
        <time>2020-06-18T15:27:50Z</time>
      </trkpt>
      <trkpt lat="50.10138" lon="1.49867">
        <ele>57.4</ele>
        <time>2020-06-18T15:27:51Z</time>
      </trkpt>
      <trkpt lat="50.10139" lon="1.4988">
        <ele>57.1</ele>
        <time>2020-06-18T15:27:52Z</time>
      </trkpt>
      <trkpt lat="50.10139" lon="1.49892">
        <ele>56.7</ele>
        <time>2020-06-18T15:27:53Z</time>
      </trkpt>
      <trkpt lat="50.10139" lon="1.49904">
        <ele>56.4</ele>
        <time>2020-06-18T15:27:54Z</time>
      </trkpt>
      <trkpt lat="50.10139" lon="1.49917">
        <ele>56.1</ele>
        <time>2020-06-18T15:27:55Z</time>
      </trkpt>
      <trkpt lat="50.10139" lon="1.4993">
        <ele>55.8</ele>
        <time>2020-06-18T15:27:56Z</time>
      </trkpt>
      <trkpt lat="50.1014" lon="1.49943">
        <ele>55.6</ele>
        <time>2020-06-18T15:27:57Z</time>
      </trkpt>
      <trkpt lat="50.1014" lon="1.49956">
        <ele>55.4</ele>
        <time>2020-06-18T15:27:58Z</time>
      </trkpt>
      <trkpt lat="50.10141" lon="1.49969">
        <ele>55.2</ele>
        <time>2020-06-18T15:27:59Z</time>
      </trkpt>
      <trkpt lat="50.10143" lon="1.49982">
        <ele>55</ele>
        <time>2020-06-18T15:28:00Z</time>
      </trkpt>
      <trkpt lat="50.10145" lon="1.49994">
        <ele>54.9</ele>
        <time>2020-06-18T15:28:01Z</time>
      </trkpt>
      <trkpt lat="50.10149" lon="1.50004">
        <ele>54.9</ele>
        <time>2020-06-18T15:28:02Z</time>
      </trkpt>
      <trkpt lat="50.10153" lon="1.50013">
        <ele>54.9</ele>
        <time>2020-06-18T15:28:03Z</time>
      </trkpt>
      <trkpt lat="50.10157" lon="1.50023">
        <ele>54.9</ele>
        <time>2020-06-18T15:28:04Z</time>
      </trkpt>
      <trkpt lat="50.10161" lon="1.50033">
        <ele>54.8</ele>
        <time>2020-06-18T15:28:05Z</time>
      </trkpt>
      <trkpt lat="50.10165" lon="1.50043">
        <ele>54.8</ele>
        <time>2020-06-18T15:28:06Z</time>
      </trkpt>
      <trkpt lat="50.10169" lon="1.50052">
        <ele>54.8</ele>
        <time>2020-06-18T15:28:07Z</time>
      </trkpt>
      <trkpt lat="50.10172" lon="1.50061">
        <ele>54.8</ele>
        <time>2020-06-18T15:28:08Z</time>
      </trkpt>
      <trkpt lat="50.10175" lon="1.50071">
        <ele>54.8</ele>
        <time>2020-06-18T15:28:09Z</time>
      </trkpt>
      <trkpt lat="50.10178" lon="1.50079">
        <ele>54.9</ele>
        <time>2020-06-18T15:28:10Z</time>
      </trkpt>
      <trkpt lat="50.10182" lon="1.50088">
        <ele>54.9</ele>
        <time>2020-06-18T15:28:11Z</time>
      </trkpt>
      <trkpt lat="50.10185" lon="1.50097">
        <ele>54.9</ele>
        <time>2020-06-18T15:28:12Z</time>
      </trkpt>
      <trkpt lat="50.10188" lon="1.50106">
        <ele>55</ele>
        <time>2020-06-18T15:28:13Z</time>
      </trkpt>
      <trkpt lat="50.1019" lon="1.50116">
        <ele>55.1</ele>
        <time>2020-06-18T15:28:14Z</time>
      </trkpt>
      <trkpt lat="50.10192" lon="1.50126">
        <ele>55.2</ele>
        <time>2020-06-18T15:28:15Z</time>
      </trkpt>
      <trkpt lat="50.10194" lon="1.50136">
        <ele>55.3</ele>
        <time>2020-06-18T15:28:16Z</time>
      </trkpt>
      <trkpt lat="50.10195" lon="1.50145">
        <ele>55.5</ele>
        <time>2020-06-18T15:28:17Z</time>
      </trkpt>
      <trkpt lat="50.10197" lon="1.50154">
        <ele>55.8</ele>
        <time>2020-06-18T15:28:18Z</time>
      </trkpt>
      <trkpt lat="50.10199" lon="1.50162">
        <ele>56</ele>
        <time>2020-06-18T15:28:19Z</time>
      </trkpt>
      <trkpt lat="50.10201" lon="1.5017">
        <ele>56.3</ele>
        <time>2020-06-18T15:28:20Z</time>
      </trkpt>
      <trkpt lat="50.10203" lon="1.50178">
        <ele>56.6</ele>
        <time>2020-06-18T15:28:21Z</time>
      </trkpt>
      <trkpt lat="50.10205" lon="1.50185">
        <ele>56.8</ele>
        <time>2020-06-18T15:28:22Z</time>
      </trkpt>
      <trkpt lat="50.10207" lon="1.50193">
        <ele>57.1</ele>
        <time>2020-06-18T15:28:23Z</time>
      </trkpt>
      <trkpt lat="50.10209" lon="1.50199">
        <ele>57.4</ele>
        <time>2020-06-18T15:28:24Z</time>
      </trkpt>
      <trkpt lat="50.10211" lon="1.50206">
        <ele>57.7</ele>
        <time>2020-06-18T15:28:25Z</time>
      </trkpt>
      <trkpt lat="50.10212" lon="1.50214">
        <ele>58</ele>
        <time>2020-06-18T15:28:26Z</time>
      </trkpt>
      <trkpt lat="50.10214" lon="1.50221">
        <ele>58.3</ele>
        <time>2020-06-18T15:28:27Z</time>
      </trkpt>
      <trkpt lat="50.10215" lon="1.50228">
        <ele>58.6</ele>
        <time>2020-06-18T15:28:28Z</time>
      </trkpt>
      <trkpt lat="50.10217" lon="1.50235">
        <ele>58.9</ele>
        <time>2020-06-18T15:28:29Z</time>
      </trkpt>
      <trkpt lat="50.10219" lon="1.50241">
        <ele>59.1</ele>
        <time>2020-06-18T15:28:30Z</time>
      </trkpt>
      <trkpt lat="50.10221" lon="1.50247">
        <ele>59.4</ele>
        <time>2020-06-18T15:28:31Z</time>
      </trkpt>
      <trkpt lat="50.10223" lon="1.50254">
        <ele>59.7</ele>
        <time>2020-06-18T15:28:32Z</time>
      </trkpt>
      <trkpt lat="50.10224" lon="1.50262">
        <ele>59.9</ele>
        <time>2020-06-18T15:28:33Z</time>
      </trkpt>
      <trkpt lat="50.10225" lon="1.50269">
        <ele>60.2</ele>
        <time>2020-06-18T15:28:34Z</time>
      </trkpt>
      <trkpt lat="50.10226" lon="1.50276">
        <ele>60.5</ele>
        <time>2020-06-18T15:28:35Z</time>
      </trkpt>
      <trkpt lat="50.10228" lon="1.50282">
        <ele>60.6</ele>
        <time>2020-06-18T15:28:36Z</time>
      </trkpt>
      <trkpt lat="50.10229" lon="1.50287">
        <ele>60.8</ele>
        <time>2020-06-18T15:28:37Z</time>
      </trkpt>
      <trkpt lat="50.1023" lon="1.50293">
        <ele>61</ele>
        <time>2020-06-18T15:28:38Z</time>
      </trkpt>
      <trkpt lat="50.1023" lon="1.50299">
        <ele>61.1</ele>
        <time>2020-06-18T15:28:39Z</time>
      </trkpt>
      <trkpt lat="50.10231" lon="1.50306">
        <ele>61.3</ele>
        <time>2020-06-18T15:28:40Z</time>
      </trkpt>
      <trkpt lat="50.10233" lon="1.50313">
        <ele>61.5</ele>
        <time>2020-06-18T15:28:41Z</time>
      </trkpt>
      <trkpt lat="50.10235" lon="1.5032">
        <ele>61.6</ele>
        <time>2020-06-18T15:28:42Z</time>
      </trkpt>
      <trkpt lat="50.10237" lon="1.50325">
        <ele>61.7</ele>
        <time>2020-06-18T15:28:43Z</time>
      </trkpt>
      <trkpt lat="50.10237" lon="1.50332">
        <ele>61.9</ele>
        <time>2020-06-18T15:28:44Z</time>
      </trkpt>
      <trkpt lat="50.10238" lon="1.50335">
        <ele>62</ele>
        <time>2020-06-18T15:28:45Z</time>
      </trkpt>
      <trkpt lat="50.1024" lon="1.50341">
        <ele>62.1</ele>
        <time>2020-06-18T15:28:46Z</time>
      </trkpt>
      <trkpt lat="50.10241" lon="1.50347">
        <ele>62.2</ele>
        <time>2020-06-18T15:28:47Z</time>
      </trkpt>
      <trkpt lat="50.10243" lon="1.50352">
        <ele>62.3</ele>
        <time>2020-06-18T15:28:48Z</time>
      </trkpt>
      <trkpt lat="50.10245" lon="1.50358">
        <ele>62.4</ele>
        <time>2020-06-18T15:28:49Z</time>
      </trkpt>
      <trkpt lat="50.10246" lon="1.50364">
        <ele>62.5</ele>
        <time>2020-06-18T15:28:50Z</time>
      </trkpt>
      <trkpt lat="50.10248" lon="1.5037">
        <ele>62.5</ele>
        <time>2020-06-18T15:28:51Z</time>
      </trkpt>
      <trkpt lat="50.10249" lon="1.50377">
        <ele>62.6</ele>
        <time>2020-06-18T15:28:52Z</time>
      </trkpt>
      <trkpt lat="50.1025" lon="1.50384">
        <ele>62.6</ele>
        <time>2020-06-18T15:28:53Z</time>
      </trkpt>
      <trkpt lat="50.1025" lon="1.50391">
        <ele>62.6</ele>
        <time>2020-06-18T15:28:54Z</time>
      </trkpt>
      <trkpt lat="50.1025" lon="1.50398">
        <ele>62.6</ele>
        <time>2020-06-18T15:28:55Z</time>
      </trkpt>
      <trkpt lat="50.10252" lon="1.50405">
        <ele>62.6</ele>
        <time>2020-06-18T15:28:56Z</time>
      </trkpt>
      <trkpt lat="50.10252" lon="1.50414">
        <ele>62.6</ele>
        <time>2020-06-18T15:28:57Z</time>
      </trkpt>
      <trkpt lat="50.10253" lon="1.50422">
        <ele>62.6</ele>
        <time>2020-06-18T15:28:58Z</time>
      </trkpt>
      <trkpt lat="50.10254" lon="1.5043">
        <ele>62.6</ele>
        <time>2020-06-18T15:28:59Z</time>
      </trkpt>
      <trkpt lat="50.10255" lon="1.50439">
        <ele>62.6</ele>
        <time>2020-06-18T15:29:00Z</time>
      </trkpt>
      <trkpt lat="50.10256" lon="1.50448">
        <ele>62.6</ele>
        <time>2020-06-18T15:29:01Z</time>
      </trkpt>
      <trkpt lat="50.10256" lon="1.50458">
        <ele>62.6</ele>
        <time>2020-06-18T15:29:02Z</time>
      </trkpt>
      <trkpt lat="50.10257" lon="1.50465">
        <ele>62.6</ele>
        <time>2020-06-18T15:29:03Z</time>
      </trkpt>
      <trkpt lat="50.10258" lon="1.50473">
        <ele>62.6</ele>
        <time>2020-06-18T15:29:04Z</time>
      </trkpt>
      <trkpt lat="50.10259" lon="1.50482">
        <ele>62.6</ele>
        <time>2020-06-18T15:29:05Z</time>
      </trkpt>
      <trkpt lat="50.10259" lon="1.5049">
        <ele>62.6</ele>
        <time>2020-06-18T15:29:06Z</time>
      </trkpt>
      <trkpt lat="50.1026" lon="1.505">
        <ele>62.6</ele>
        <time>2020-06-18T15:29:07Z</time>
      </trkpt>
      <trkpt lat="50.10261" lon="1.50508">
        <ele>62.6</ele>
        <time>2020-06-18T15:29:08Z</time>
      </trkpt>
      <trkpt lat="50.10262" lon="1.50516">
        <ele>62.6</ele>
        <time>2020-06-18T15:29:09Z</time>
      </trkpt>
      <trkpt lat="50.10263" lon="1.50524">
        <ele>62.5</ele>
        <time>2020-06-18T15:29:10Z</time>
      </trkpt>
      <trkpt lat="50.10263" lon="1.50531">
        <ele>62.5</ele>
        <time>2020-06-18T15:29:11Z</time>
      </trkpt>
      <trkpt lat="50.10263" lon="1.50538">
        <ele>62.5</ele>
        <time>2020-06-18T15:29:12Z</time>
      </trkpt>
      <trkpt lat="50.10264" lon="1.50548">
        <ele>62.5</ele>
        <time>2020-06-18T15:29:13Z</time>
      </trkpt>
      <trkpt lat="50.10266" lon="1.50557">
        <ele>62.5</ele>
        <time>2020-06-18T15:29:14Z</time>
      </trkpt>
      <trkpt lat="50.10267" lon="1.50568">
        <ele>62.4</ele>
        <time>2020-06-18T15:29:15Z</time>
      </trkpt>
      <trkpt lat="50.10269" lon="1.50578">
        <ele>62.4</ele>
        <time>2020-06-18T15:29:16Z</time>
      </trkpt>
      <trkpt lat="50.1027" lon="1.50588">
        <ele>62.3</ele>
        <time>2020-06-18T15:29:17Z</time>
      </trkpt>
      <trkpt lat="50.10271" lon="1.50598">
        <ele>62.2</ele>
        <time>2020-06-18T15:29:18Z</time>
      </trkpt>
      <trkpt lat="50.10273" lon="1.50609">
        <ele>62.2</ele>
        <time>2020-06-18T15:29:19Z</time>
      </trkpt>
      <trkpt lat="50.10274" lon="1.50618">
        <ele>62.2</ele>
        <time>2020-06-18T15:29:20Z</time>
      </trkpt>
      <trkpt lat="50.10276" lon="1.50628">
        <ele>62.1</ele>
        <time>2020-06-18T15:29:21Z</time>
      </trkpt>
      <trkpt lat="50.10278" lon="1.50638">
        <ele>62.1</ele>
        <time>2020-06-18T15:29:22Z</time>
      </trkpt>
      <trkpt lat="50.1028" lon="1.50648">
        <ele>62</ele>
        <time>2020-06-18T15:29:23Z</time>
      </trkpt>
      <trkpt lat="50.10281" lon="1.50657">
        <ele>61.9</ele>
        <time>2020-06-18T15:29:24Z</time>
      </trkpt>
      <trkpt lat="50.10282" lon="1.50667">
        <ele>61.9</ele>
        <time>2020-06-18T15:29:25Z</time>
      </trkpt>
      <trkpt lat="50.10284" lon="1.50675">
        <ele>61.8</ele>
        <time>2020-06-18T15:29:26Z</time>
      </trkpt>
      <trkpt lat="50.10285" lon="1.50684">
        <ele>61.8</ele>
        <time>2020-06-18T15:29:27Z</time>
      </trkpt>
      <trkpt lat="50.10286" lon="1.50691">
        <ele>61.7</ele>
        <time>2020-06-18T15:29:28Z</time>
      </trkpt>
      <trkpt lat="50.10287" lon="1.50701">
        <ele>61.7</ele>
        <time>2020-06-18T15:29:29Z</time>
      </trkpt>
      <trkpt lat="50.10289" lon="1.5071">
        <ele>61.7</ele>
        <time>2020-06-18T15:29:30Z</time>
      </trkpt>
      <trkpt lat="50.1029" lon="1.50717">
        <ele>61.6</ele>
        <time>2020-06-18T15:29:31Z</time>
      </trkpt>
      <trkpt lat="50.10291" lon="1.50726">
        <ele>61.6</ele>
        <time>2020-06-18T15:29:32Z</time>
      </trkpt>
      <trkpt lat="50.10293" lon="1.50735">
        <ele>61.6</ele>
        <time>2020-06-18T15:29:33Z</time>
      </trkpt>
      <trkpt lat="50.10294" lon="1.50744">
        <ele>61.6</ele>
        <time>2020-06-18T15:29:34Z</time>
      </trkpt>
      <trkpt lat="50.10296" lon="1.50752">
        <ele>61.5</ele>
        <time>2020-06-18T15:29:35Z</time>
      </trkpt>
      <trkpt lat="50.10297" lon="1.5076">
        <ele>61.5</ele>
        <time>2020-06-18T15:29:36Z</time>
      </trkpt>
      <trkpt lat="50.10299" lon="1.50768">
        <ele>61.5</ele>
        <time>2020-06-18T15:29:37Z</time>
      </trkpt>
      <trkpt lat="50.103" lon="1.50776">
        <ele>61.4</ele>
        <time>2020-06-18T15:29:38Z</time>
      </trkpt>
      <trkpt lat="50.10302" lon="1.50785">
        <ele>61.4</ele>
        <time>2020-06-18T15:29:39Z</time>
      </trkpt>
      <trkpt lat="50.10304" lon="1.50794">
        <ele>61.4</ele>
        <time>2020-06-18T15:29:40Z</time>
      </trkpt>
      <trkpt lat="50.10305" lon="1.50803">
        <ele>61.4</ele>
        <time>2020-06-18T15:29:41Z</time>
      </trkpt>
      <trkpt lat="50.10306" lon="1.5081">
        <ele>61.4</ele>
        <time>2020-06-18T15:29:42Z</time>
      </trkpt>
      <trkpt lat="50.10307" lon="1.50819">
        <ele>61.4</ele>
        <time>2020-06-18T15:29:43Z</time>
      </trkpt>
      <trkpt lat="50.10307" lon="1.50827">
        <ele>61.4</ele>
        <time>2020-06-18T15:29:44Z</time>
      </trkpt>
      <trkpt lat="50.10308" lon="1.50835">
        <ele>61.5</ele>
        <time>2020-06-18T15:29:45Z</time>
      </trkpt>
      <trkpt lat="50.1031" lon="1.50844">
        <ele>61.5</ele>
        <time>2020-06-18T15:29:46Z</time>
      </trkpt>
      <trkpt lat="50.10311" lon="1.50852">
        <ele>61.5</ele>
        <time>2020-06-18T15:29:47Z</time>
      </trkpt>
      <trkpt lat="50.10314" lon="1.50862">
        <ele>61.6</ele>
        <time>2020-06-18T15:29:48Z</time>
      </trkpt>
      <trkpt lat="50.10316" lon="1.50871">
        <ele>61.6</ele>
        <time>2020-06-18T15:29:49Z</time>
      </trkpt>
      <trkpt lat="50.10317" lon="1.50881">
        <ele>61.6</ele>
        <time>2020-06-18T15:29:50Z</time>
      </trkpt>
      <trkpt lat="50.10319" lon="1.5089">
        <ele>61.6</ele>
        <time>2020-06-18T15:29:51Z</time>
      </trkpt>
      <trkpt lat="50.1032" lon="1.50898">
        <ele>61.6</ele>
        <time>2020-06-18T15:29:52Z</time>
      </trkpt>
      <trkpt lat="50.10321" lon="1.50906">
        <ele>61.6</ele>
        <time>2020-06-18T15:29:53Z</time>
      </trkpt>
      <trkpt lat="50.10323" lon="1.50914">
        <ele>61.6</ele>
        <time>2020-06-18T15:29:54Z</time>
      </trkpt>
      <trkpt lat="50.10325" lon="1.50923">
        <ele>61.6</ele>
        <time>2020-06-18T15:29:55Z</time>
      </trkpt>
      <trkpt lat="50.10326" lon="1.5093">
        <ele>61.6</ele>
        <time>2020-06-18T15:29:56Z</time>
      </trkpt>
      <trkpt lat="50.10328" lon="1.50938">
        <ele>61.5</ele>
        <time>2020-06-18T15:29:57Z</time>
      </trkpt>
      <trkpt lat="50.1033" lon="1.50948">
        <ele>61.4</ele>
        <time>2020-06-18T15:29:58Z</time>
      </trkpt>
      <trkpt lat="50.10332" lon="1.50958">
        <ele>61.4</ele>
        <time>2020-06-18T15:29:59Z</time>
      </trkpt>
      <trkpt lat="50.10334" lon="1.50967">
        <ele>61.3</ele>
        <time>2020-06-18T15:30:00Z</time>
      </trkpt>
      <trkpt lat="50.10336" lon="1.50976">
        <ele>61.3</ele>
        <time>2020-06-18T15:30:01Z</time>
      </trkpt>
      <trkpt lat="50.10338" lon="1.50985">
        <ele>61.2</ele>
        <time>2020-06-18T15:30:02Z</time>
      </trkpt>
      <trkpt lat="50.1034" lon="1.50994">
        <ele>61.2</ele>
        <time>2020-06-18T15:30:03Z</time>
      </trkpt>
      <trkpt lat="50.10341" lon="1.51003">
        <ele>61.2</ele>
        <time>2020-06-18T15:30:04Z</time>
      </trkpt>
      <trkpt lat="50.10343" lon="1.51012">
        <ele>61.1</ele>
        <time>2020-06-18T15:30:05Z</time>
      </trkpt>
      <trkpt lat="50.10345" lon="1.51024">
        <ele>61.1</ele>
        <time>2020-06-18T15:30:06Z</time>
      </trkpt>
      <trkpt lat="50.10347" lon="1.51033">
        <ele>61.1</ele>
        <time>2020-06-18T15:30:07Z</time>
      </trkpt>
      <trkpt lat="50.10348" lon="1.5104">
        <ele>61.1</ele>
        <time>2020-06-18T15:30:08Z</time>
      </trkpt>
      <trkpt lat="50.1035" lon="1.51049">
        <ele>61.1</ele>
        <time>2020-06-18T15:30:09Z</time>
      </trkpt>
      <trkpt lat="50.10352" lon="1.51058">
        <ele>61</ele>
        <time>2020-06-18T15:30:10Z</time>
      </trkpt>
      <trkpt lat="50.10353" lon="1.51071">
        <ele>61</ele>
        <time>2020-06-18T15:30:11Z</time>
      </trkpt>
      <trkpt lat="50.10355" lon="1.51082">
        <ele>61</ele>
        <time>2020-06-18T15:30:12Z</time>
      </trkpt>
      <trkpt lat="50.10357" lon="1.51092">
        <ele>61</ele>
        <time>2020-06-18T15:30:13Z</time>
      </trkpt>
      <trkpt lat="50.10359" lon="1.51104">
        <ele>61</ele>
        <time>2020-06-18T15:30:14Z</time>
      </trkpt>
      <trkpt lat="50.10362" lon="1.51114">
        <ele>61</ele>
        <time>2020-06-18T15:30:15Z</time>
      </trkpt>
      <trkpt lat="50.10364" lon="1.51124">
        <ele>61.1</ele>
        <time>2020-06-18T15:30:16Z</time>
      </trkpt>
      <trkpt lat="50.10366" lon="1.51132">
        <ele>61.1</ele>
        <time>2020-06-18T15:30:17Z</time>
      </trkpt>
      <trkpt lat="50.10368" lon="1.51141">
        <ele>61.1</ele>
        <time>2020-06-18T15:30:18Z</time>
      </trkpt>
      <trkpt lat="50.1037" lon="1.51152">
        <ele>61.1</ele>
        <time>2020-06-18T15:30:19Z</time>
      </trkpt>
      <trkpt lat="50.10372" lon="1.51161">
        <ele>61.2</ele>
        <time>2020-06-18T15:30:20Z</time>
      </trkpt>
      <trkpt lat="50.10374" lon="1.51171">
        <ele>61.2</ele>
        <time>2020-06-18T15:30:21Z</time>
      </trkpt>
      <trkpt lat="50.10375" lon="1.5118">
        <ele>61.2</ele>
        <time>2020-06-18T15:30:22Z</time>
      </trkpt>
      <trkpt lat="50.10377" lon="1.5119">
        <ele>61.2</ele>
        <time>2020-06-18T15:30:23Z</time>
      </trkpt>
      <trkpt lat="50.10379" lon="1.51199">
        <ele>61.3</ele>
        <time>2020-06-18T15:30:24Z</time>
      </trkpt>
      <trkpt lat="50.10381" lon="1.51206">
        <ele>61.3</ele>
        <time>2020-06-18T15:30:25Z</time>
      </trkpt>
      <trkpt lat="50.10383" lon="1.51214">
        <ele>61.4</ele>
        <time>2020-06-18T15:30:26Z</time>
      </trkpt>
      <trkpt lat="50.10385" lon="1.51221">
        <ele>61.4</ele>
        <time>2020-06-18T15:30:27Z</time>
      </trkpt>
      <trkpt lat="50.10388" lon="1.51228">
        <ele>61.5</ele>
        <time>2020-06-18T15:30:28Z</time>
      </trkpt>
      <trkpt lat="50.1039" lon="1.51239">
        <ele>61.6</ele>
        <time>2020-06-18T15:30:29Z</time>
      </trkpt>
      <trkpt lat="50.10392" lon="1.51248">
        <ele>61.7</ele>
        <time>2020-06-18T15:30:30Z</time>
      </trkpt>
      <trkpt lat="50.10393" lon="1.51256">
        <ele>61.7</ele>
        <time>2020-06-18T15:30:31Z</time>
      </trkpt>
      <trkpt lat="50.10395" lon="1.51264">
        <ele>61.7</ele>
        <time>2020-06-18T15:30:32Z</time>
      </trkpt>
      <trkpt lat="50.10396" lon="1.51271">
        <ele>61.7</ele>
        <time>2020-06-18T15:30:33Z</time>
      </trkpt>
      <trkpt lat="50.10398" lon="1.51278">
        <ele>61.7</ele>
        <time>2020-06-18T15:30:34Z</time>
      </trkpt>
      <trkpt lat="50.104" lon="1.51289">
        <ele>61.7</ele>
        <time>2020-06-18T15:30:35Z</time>
      </trkpt>
      <trkpt lat="50.10403" lon="1.51297">
        <ele>61.7</ele>
        <time>2020-06-18T15:30:36Z</time>
      </trkpt>
      <trkpt lat="50.10404" lon="1.51306">
        <ele>61.7</ele>
        <time>2020-06-18T15:30:37Z</time>
      </trkpt>
      <trkpt lat="50.10405" lon="1.51314">
        <ele>61.6</ele>
        <time>2020-06-18T15:30:38Z</time>
      </trkpt>
      <trkpt lat="50.10406" lon="1.51324">
        <ele>61.6</ele>
        <time>2020-06-18T15:30:39Z</time>
      </trkpt>
      <trkpt lat="50.10406" lon="1.51335">
        <ele>61.4</ele>
        <time>2020-06-18T15:30:40Z</time>
      </trkpt>
      <trkpt lat="50.10407" lon="1.51345">
        <ele>60.9</ele>
        <time>2020-06-18T15:30:41Z</time>
      </trkpt>
      <trkpt lat="50.10407" lon="1.51355">
        <ele>60.9</ele>
        <time>2020-06-18T15:30:42Z</time>
      </trkpt>
      <trkpt lat="50.10407" lon="1.51365">
        <ele>60.9</ele>
        <time>2020-06-18T15:30:43Z</time>
      </trkpt>
      <trkpt lat="50.10406" lon="1.51373">
        <ele>60.9</ele>
        <time>2020-06-18T15:30:44Z</time>
      </trkpt>
      <trkpt lat="50.10406" lon="1.51383">
        <ele>60.9</ele>
        <time>2020-06-18T15:30:45Z</time>
      </trkpt>
      <trkpt lat="50.10406" lon="1.51393">
        <ele>60.9</ele>
        <time>2020-06-18T15:30:46Z</time>
      </trkpt>
      <trkpt lat="50.10406" lon="1.51403">
        <ele>60.9</ele>
        <time>2020-06-18T15:30:47Z</time>
      </trkpt>
      <trkpt lat="50.10406" lon="1.51414">
        <ele>60.9</ele>
        <time>2020-06-18T15:30:48Z</time>
      </trkpt>
      <trkpt lat="50.10406" lon="1.51423">
        <ele>60.9</ele>
        <time>2020-06-18T15:30:49Z</time>
      </trkpt>
      <trkpt lat="50.10406" lon="1.51432">
        <ele>60.9</ele>
        <time>2020-06-18T15:30:50Z</time>
      </trkpt>
      <trkpt lat="50.10406" lon="1.51442">
        <ele>60.9</ele>
        <time>2020-06-18T15:30:51Z</time>
      </trkpt>
      <trkpt lat="50.10407" lon="1.51451">
        <ele>60.9</ele>
        <time>2020-06-18T15:30:52Z</time>
      </trkpt>
      <trkpt lat="50.10407" lon="1.51461">
        <ele>60.9</ele>
        <time>2020-06-18T15:30:53Z</time>
      </trkpt>
      <trkpt lat="50.10408" lon="1.51471">
        <ele>60.8</ele>
        <time>2020-06-18T15:30:54Z</time>
      </trkpt>
      <trkpt lat="50.10408" lon="1.51481">
        <ele>60.8</ele>
        <time>2020-06-18T15:30:55Z</time>
      </trkpt>
      <trkpt lat="50.10408" lon="1.51491">
        <ele>60.8</ele>
        <time>2020-06-18T15:30:56Z</time>
      </trkpt>
      <trkpt lat="50.10409" lon="1.51502">
        <ele>60.7</ele>
        <time>2020-06-18T15:30:57Z</time>
      </trkpt>
      <trkpt lat="50.1041" lon="1.51512">
        <ele>60.6</ele>
        <time>2020-06-18T15:30:58Z</time>
      </trkpt>
      <trkpt lat="50.10411" lon="1.51521">
        <ele>60.6</ele>
        <time>2020-06-18T15:30:59Z</time>
      </trkpt>
      <trkpt lat="50.10413" lon="1.5153">
        <ele>60.6</ele>
        <time>2020-06-18T15:31:00Z</time>
      </trkpt>
      <trkpt lat="50.10414" lon="1.51538">
        <ele>60.5</ele>
        <time>2020-06-18T15:31:01Z</time>
      </trkpt>
      <trkpt lat="50.10414" lon="1.51546">
        <ele>60.5</ele>
        <time>2020-06-18T15:31:02Z</time>
      </trkpt>
      <trkpt lat="50.10415" lon="1.51554">
        <ele>60.4</ele>
        <time>2020-06-18T15:31:03Z</time>
      </trkpt>
      <trkpt lat="50.10415" lon="1.5156">
        <ele>60.4</ele>
        <time>2020-06-18T15:31:04Z</time>
      </trkpt>
      <trkpt lat="50.10417" lon="1.5157">
        <ele>60.4</ele>
        <time>2020-06-18T15:31:05Z</time>
      </trkpt>
      <trkpt lat="50.10417" lon="1.5158">
        <ele>60.3</ele>
        <time>2020-06-18T15:31:06Z</time>
      </trkpt>
      <trkpt lat="50.10418" lon="1.5159">
        <ele>60.3</ele>
        <time>2020-06-18T15:31:07Z</time>
      </trkpt>
      <trkpt lat="50.10419" lon="1.516">
        <ele>60.2</ele>
        <time>2020-06-18T15:31:08Z</time>
      </trkpt>
      <trkpt lat="50.1042" lon="1.51611">
        <ele>60.1</ele>
        <time>2020-06-18T15:31:09Z</time>
      </trkpt>
      <trkpt lat="50.10421" lon="1.51622">
        <ele>60.1</ele>
        <time>2020-06-18T15:31:10Z</time>
      </trkpt>
      <trkpt lat="50.10421" lon="1.51632">
        <ele>60.1</ele>
        <time>2020-06-18T15:31:11Z</time>
      </trkpt>
      <trkpt lat="50.10422" lon="1.51643">
        <ele>60.1</ele>
        <time>2020-06-18T15:31:12Z</time>
      </trkpt>
      <trkpt lat="50.10423" lon="1.51652">
        <ele>60.1</ele>
        <time>2020-06-18T15:31:13Z</time>
      </trkpt>
      <trkpt lat="50.10423" lon="1.51663">
        <ele>60</ele>
        <time>2020-06-18T15:31:14Z</time>
      </trkpt>
      <trkpt lat="50.10424" lon="1.51674">
        <ele>59.9</ele>
        <time>2020-06-18T15:31:15Z</time>
      </trkpt>
      <trkpt lat="50.10425" lon="1.51683">
        <ele>59.8</ele>
        <time>2020-06-18T15:31:16Z</time>
      </trkpt>
      <trkpt lat="50.10426" lon="1.51694">
        <ele>59.8</ele>
        <time>2020-06-18T15:31:17Z</time>
      </trkpt>
      <trkpt lat="50.10427" lon="1.51704">
        <ele>59.7</ele>
        <time>2020-06-18T15:31:18Z</time>
      </trkpt>
      <trkpt lat="50.10428" lon="1.51715">
        <ele>59.6</ele>
        <time>2020-06-18T15:31:19Z</time>
      </trkpt>
      <trkpt lat="50.10428" lon="1.51725">
        <ele>59.5</ele>
        <time>2020-06-18T15:31:20Z</time>
      </trkpt>
      <trkpt lat="50.10428" lon="1.51736">
        <ele>59.5</ele>
        <time>2020-06-18T15:31:21Z</time>
      </trkpt>
      <trkpt lat="50.10426" lon="1.51746">
        <ele>59.4</ele>
        <time>2020-06-18T15:31:22Z</time>
      </trkpt>
      <trkpt lat="50.10422" lon="1.51755">
        <ele>59.2</ele>
        <time>2020-06-18T15:31:23Z</time>
      </trkpt>
      <trkpt lat="50.10418" lon="1.51763">
        <ele>59.2</ele>
        <time>2020-06-18T15:31:24Z</time>
      </trkpt>
      <trkpt lat="50.10413" lon="1.51769">
        <ele>59.2</ele>
        <time>2020-06-18T15:31:25Z</time>
      </trkpt>
      <trkpt lat="50.10408" lon="1.51774">
        <ele>59.2</ele>
        <time>2020-06-18T15:31:26Z</time>
      </trkpt>
      <trkpt lat="50.10403" lon="1.51779">
        <ele>59.2</ele>
        <time>2020-06-18T15:31:27Z</time>
      </trkpt>
      <trkpt lat="50.10398" lon="1.51783">
        <ele>59.2</ele>
        <time>2020-06-18T15:31:28Z</time>
      </trkpt>
      <trkpt lat="50.10393" lon="1.51789">
        <ele>59.2</ele>
        <time>2020-06-18T15:31:29Z</time>
      </trkpt>
      <trkpt lat="50.10389" lon="1.51793">
        <ele>59.2</ele>
        <time>2020-06-18T15:31:30Z</time>
      </trkpt>
      <trkpt lat="50.10384" lon="1.51798">
        <ele>59.2</ele>
        <time>2020-06-18T15:31:31Z</time>
      </trkpt>
      <trkpt lat="50.1038" lon="1.51803">
        <ele>59.2</ele>
        <time>2020-06-18T15:31:32Z</time>
      </trkpt>
      <trkpt lat="50.10375" lon="1.51808">
        <ele>59.2</ele>
        <time>2020-06-18T15:31:33Z</time>
      </trkpt>
      <trkpt lat="50.1037" lon="1.51812">
        <ele>59.2</ele>
        <time>2020-06-18T15:31:34Z</time>
      </trkpt>
      <trkpt lat="50.10365" lon="1.51816">
        <ele>59.2</ele>
        <time>2020-06-18T15:31:35Z</time>
      </trkpt>
      <trkpt lat="50.10359" lon="1.51821">
        <ele>59.2</ele>
        <time>2020-06-18T15:31:36Z</time>
      </trkpt>
      <trkpt lat="50.10354" lon="1.51826">
        <ele>59.2</ele>
        <time>2020-06-18T15:31:37Z</time>
      </trkpt>
      <trkpt lat="50.10348" lon="1.51832">
        <ele>59.2</ele>
        <time>2020-06-18T15:31:38Z</time>
      </trkpt>
      <trkpt lat="50.10343" lon="1.51838">
        <ele>59.3</ele>
        <time>2020-06-18T15:31:39Z</time>
      </trkpt>
      <trkpt lat="50.10337" lon="1.51843">
        <ele>59.3</ele>
        <time>2020-06-18T15:31:40Z</time>
      </trkpt>
      <trkpt lat="50.10332" lon="1.51848">
        <ele>59.3</ele>
        <time>2020-06-18T15:31:41Z</time>
      </trkpt>
      <trkpt lat="50.10327" lon="1.51854">
        <ele>59.4</ele>
        <time>2020-06-18T15:31:42Z</time>
      </trkpt>
      <trkpt lat="50.10321" lon="1.51859">
        <ele>59.6</ele>
        <time>2020-06-18T15:31:43Z</time>
      </trkpt>
      <trkpt lat="50.10316" lon="1.51864">
        <ele>59.8</ele>
        <time>2020-06-18T15:31:44Z</time>
      </trkpt>
      <trkpt lat="50.1031" lon="1.51868">
        <ele>59.9</ele>
        <time>2020-06-18T15:31:45Z</time>
      </trkpt>
      <trkpt lat="50.10305" lon="1.51872">
        <ele>60</ele>
        <time>2020-06-18T15:31:46Z</time>
      </trkpt>
      <trkpt lat="50.103" lon="1.51877">
        <ele>60.1</ele>
        <time>2020-06-18T15:31:47Z</time>
      </trkpt>
      <trkpt lat="50.10294" lon="1.51881">
        <ele>60.2</ele>
        <time>2020-06-18T15:31:48Z</time>
      </trkpt>
      <trkpt lat="50.10289" lon="1.51886">
        <ele>60.2</ele>
        <time>2020-06-18T15:31:49Z</time>
      </trkpt>
      <trkpt lat="50.10285" lon="1.51891">
        <ele>60.2</ele>
        <time>2020-06-18T15:31:50Z</time>
      </trkpt>
      <trkpt lat="50.1028" lon="1.51896">
        <ele>60.3</ele>
        <time>2020-06-18T15:31:51Z</time>
      </trkpt>
      <trkpt lat="50.10275" lon="1.51899">
        <ele>60.4</ele>
        <time>2020-06-18T15:31:52Z</time>
      </trkpt>
      <trkpt lat="50.1027" lon="1.51902">
        <ele>60.4</ele>
        <time>2020-06-18T15:31:53Z</time>
      </trkpt>
      <trkpt lat="50.10266" lon="1.51906">
        <ele>60.5</ele>
        <time>2020-06-18T15:31:54Z</time>
      </trkpt>
      <trkpt lat="50.10262" lon="1.5191">
        <ele>60.6</ele>
        <time>2020-06-18T15:31:55Z</time>
      </trkpt>
      <trkpt lat="50.10258" lon="1.51912">
        <ele>60.6</ele>
        <time>2020-06-18T15:31:56Z</time>
      </trkpt>
      <trkpt lat="50.10254" lon="1.51915">
        <ele>60.7</ele>
        <time>2020-06-18T15:31:57Z</time>
      </trkpt>
      <trkpt lat="50.1025" lon="1.51919">
        <ele>60.8</ele>
        <time>2020-06-18T15:31:58Z</time>
      </trkpt>
      <trkpt lat="50.10247" lon="1.51923">
        <ele>60.8</ele>
        <time>2020-06-18T15:31:59Z</time>
      </trkpt>
      <trkpt lat="50.10244" lon="1.51926">
        <ele>60.9</ele>
        <time>2020-06-18T15:32:00Z</time>
      </trkpt>
      <trkpt lat="50.10241" lon="1.5193">
        <ele>60.9</ele>
        <time>2020-06-18T15:32:01Z</time>
      </trkpt>
      <trkpt lat="50.10238" lon="1.51933">
        <ele>61</ele>
        <time>2020-06-18T15:32:02Z</time>
      </trkpt>
      <trkpt lat="50.10234" lon="1.51936">
        <ele>61.1</ele>
        <time>2020-06-18T15:32:03Z</time>
      </trkpt>
      <trkpt lat="50.1023" lon="1.51939">
        <ele>61.2</ele>
        <time>2020-06-18T15:32:04Z</time>
      </trkpt>
      <trkpt lat="50.10227" lon="1.51942">
        <ele>61.3</ele>
        <time>2020-06-18T15:32:05Z</time>
      </trkpt>
      <trkpt lat="50.10224" lon="1.51947">
        <ele>61.4</ele>
        <time>2020-06-18T15:32:06Z</time>
      </trkpt>
      <trkpt lat="50.10221" lon="1.51951">
        <ele>61.5</ele>
        <time>2020-06-18T15:32:07Z</time>
      </trkpt>
      <trkpt lat="50.10218" lon="1.51955">
        <ele>61.6</ele>
        <time>2020-06-18T15:32:08Z</time>
      </trkpt>
      <trkpt lat="50.10217" lon="1.5196">
        <ele>61.7</ele>
        <time>2020-06-18T15:32:09Z</time>
      </trkpt>
      <trkpt lat="50.10217" lon="1.51962">
        <ele>61.8</ele>
        <time>2020-06-18T15:32:10Z</time>
      </trkpt>
      <trkpt lat="50.10216" lon="1.51968">
        <ele>61.9</ele>
        <time>2020-06-18T15:32:11Z</time>
      </trkpt>
      <trkpt lat="50.10215" lon="1.5197">
        <ele>61.9</ele>
        <time>2020-06-18T15:32:12Z</time>
      </trkpt>
      <trkpt lat="50.10218" lon="1.51973">
        <ele>61.9</ele>
        <time>2020-06-18T15:32:13Z</time>
      </trkpt>
      <trkpt lat="50.1022" lon="1.51974">
        <ele>61.9</ele>
        <time>2020-06-18T15:32:14Z</time>
      </trkpt>
      <trkpt lat="50.10223" lon="1.51976">
        <ele>61.8</ele>
        <time>2020-06-18T15:32:15Z</time>
      </trkpt>
      <trkpt lat="50.10227" lon="1.51978">
        <ele>61.8</ele>
        <time>2020-06-18T15:32:16Z</time>
      </trkpt>
      <trkpt lat="50.10231" lon="1.5198">
        <ele>61.7</ele>
        <time>2020-06-18T15:32:17Z</time>
      </trkpt>
      <trkpt lat="50.10235" lon="1.51982">
        <ele>61.7</ele>
        <time>2020-06-18T15:32:18Z</time>
      </trkpt>
      <trkpt lat="50.1024" lon="1.51985">
        <ele>61.6</ele>
        <time>2020-06-18T15:32:19Z</time>
      </trkpt>
      <trkpt lat="50.10244" lon="1.51988">
        <ele>61.5</ele>
        <time>2020-06-18T15:32:20Z</time>
      </trkpt>
      <trkpt lat="50.10249" lon="1.5199">
        <ele>61.5</ele>
        <time>2020-06-18T15:32:21Z</time>
      </trkpt>
      <trkpt lat="50.10254" lon="1.51993">
        <ele>61.4</ele>
        <time>2020-06-18T15:32:22Z</time>
      </trkpt>
      <trkpt lat="50.10259" lon="1.51995">
        <ele>61.4</ele>
        <time>2020-06-18T15:32:23Z</time>
      </trkpt>
      <trkpt lat="50.10264" lon="1.51997">
        <ele>61.3</ele>
        <time>2020-06-18T15:32:24Z</time>
      </trkpt>
      <trkpt lat="50.10268" lon="1.52008">
        <ele>61.2</ele>
        <time>2020-06-18T15:32:25Z</time>
      </trkpt>
      <trkpt lat="50.10273" lon="1.52013">
        <ele>61.2</ele>
        <time>2020-06-18T15:32:26Z</time>
      </trkpt>
      <trkpt lat="50.1028" lon="1.52015">
        <ele>61.1</ele>
        <time>2020-06-18T15:32:27Z</time>
      </trkpt>
      <trkpt lat="50.10286" lon="1.52018">
        <ele>61</ele>
        <time>2020-06-18T15:32:28Z</time>
      </trkpt>
      <trkpt lat="50.10292" lon="1.52021">
        <ele>60.9</ele>
        <time>2020-06-18T15:32:29Z</time>
      </trkpt>
      <trkpt lat="50.10299" lon="1.52025">
        <ele>60.8</ele>
        <time>2020-06-18T15:32:30Z</time>
      </trkpt>
      <trkpt lat="50.10307" lon="1.52029">
        <ele>60.7</ele>
        <time>2020-06-18T15:32:31Z</time>
      </trkpt>
      <trkpt lat="50.10315" lon="1.52034">
        <ele>60.6</ele>
        <time>2020-06-18T15:32:32Z</time>
      </trkpt>
      <trkpt lat="50.10321" lon="1.52038">
        <ele>60.5</ele>
        <time>2020-06-18T15:32:33Z</time>
      </trkpt>
      <trkpt lat="50.10328" lon="1.52043">
        <ele>60.4</ele>
        <time>2020-06-18T15:32:34Z</time>
      </trkpt>
      <trkpt lat="50.10334" lon="1.52048">
        <ele>60.4</ele>
        <time>2020-06-18T15:32:35Z</time>
      </trkpt>
      <trkpt lat="50.1034" lon="1.52053">
        <ele>60.3</ele>
        <time>2020-06-18T15:32:36Z</time>
      </trkpt>
      <trkpt lat="50.10347" lon="1.52059">
        <ele>60.3</ele>
        <time>2020-06-18T15:32:37Z</time>
      </trkpt>
      <trkpt lat="50.10354" lon="1.52063">
        <ele>60.2</ele>
        <time>2020-06-18T15:32:38Z</time>
      </trkpt>
      <trkpt lat="50.1036" lon="1.52069">
        <ele>60.2</ele>
        <time>2020-06-18T15:32:39Z</time>
      </trkpt>
      <trkpt lat="50.10366" lon="1.52076">
        <ele>60.1</ele>
        <time>2020-06-18T15:32:40Z</time>
      </trkpt>
      <trkpt lat="50.10371" lon="1.52082">
        <ele>60</ele>
        <time>2020-06-18T15:32:41Z</time>
      </trkpt>
      <trkpt lat="50.10377" lon="1.52086">
        <ele>59.9</ele>
        <time>2020-06-18T15:32:42Z</time>
      </trkpt>
      <trkpt lat="50.10384" lon="1.52091">
        <ele>59.8</ele>
        <time>2020-06-18T15:32:43Z</time>
      </trkpt>
      <trkpt lat="50.1039" lon="1.52097">
        <ele>59.7</ele>
        <time>2020-06-18T15:32:44Z</time>
      </trkpt>
      <trkpt lat="50.10396" lon="1.52102">
        <ele>59.6</ele>
        <time>2020-06-18T15:32:45Z</time>
      </trkpt>
      <trkpt lat="50.10402" lon="1.52107">
        <ele>59.5</ele>
        <time>2020-06-18T15:32:46Z</time>
      </trkpt>
      <trkpt lat="50.10408" lon="1.52112">
        <ele>59.5</ele>
        <time>2020-06-18T15:32:47Z</time>
      </trkpt>
      <trkpt lat="50.10414" lon="1.52118">
        <ele>59.5</ele>
        <time>2020-06-18T15:32:48Z</time>
      </trkpt>
      <trkpt lat="50.10419" lon="1.52125">
        <ele>59.6</ele>
        <time>2020-06-18T15:32:49Z</time>
      </trkpt>
      <trkpt lat="50.10425" lon="1.52131">
        <ele>59.6</ele>
        <time>2020-06-18T15:32:50Z</time>
      </trkpt>
      <trkpt lat="50.1043" lon="1.52139">
        <ele>59.6</ele>
        <time>2020-06-18T15:32:51Z</time>
      </trkpt>
      <trkpt lat="50.10435" lon="1.52146">
        <ele>59.6</ele>
        <time>2020-06-18T15:32:52Z</time>
      </trkpt>
      <trkpt lat="50.10441" lon="1.52153">
        <ele>59.4</ele>
        <time>2020-06-18T15:32:53Z</time>
      </trkpt>
      <trkpt lat="50.10445" lon="1.52162">
        <ele>59.3</ele>
        <time>2020-06-18T15:32:54Z</time>
      </trkpt>
      <trkpt lat="50.1045" lon="1.52171">
        <ele>59.2</ele>
        <time>2020-06-18T15:32:55Z</time>
      </trkpt>
      <trkpt lat="50.10454" lon="1.5218">
        <ele>59.1</ele>
        <time>2020-06-18T15:32:56Z</time>
      </trkpt>
      <trkpt lat="50.10459" lon="1.52188">
        <ele>59.1</ele>
        <time>2020-06-18T15:32:57Z</time>
      </trkpt>
      <trkpt lat="50.10464" lon="1.52196">
        <ele>59</ele>
        <time>2020-06-18T15:32:58Z</time>
      </trkpt>
      <trkpt lat="50.10469" lon="1.52205">
        <ele>59</ele>
        <time>2020-06-18T15:32:59Z</time>
      </trkpt>
      <trkpt lat="50.10474" lon="1.52213">
        <ele>58.9</ele>
        <time>2020-06-18T15:33:00Z</time>
      </trkpt>
      <trkpt lat="50.10479" lon="1.52221">
        <ele>58.9</ele>
        <time>2020-06-18T15:33:01Z</time>
      </trkpt>
      <trkpt lat="50.10482" lon="1.52231">
        <ele>58.8</ele>
        <time>2020-06-18T15:33:02Z</time>
      </trkpt>
      <trkpt lat="50.10485" lon="1.52242">
        <ele>58.7</ele>
        <time>2020-06-18T15:33:03Z</time>
      </trkpt>
      <trkpt lat="50.10488" lon="1.52252">
        <ele>58.7</ele>
        <time>2020-06-18T15:33:04Z</time>
      </trkpt>
      <trkpt lat="50.10492" lon="1.52261">
        <ele>58.6</ele>
        <time>2020-06-18T15:33:05Z</time>
      </trkpt>
      <trkpt lat="50.10496" lon="1.52271">
        <ele>58.6</ele>
        <time>2020-06-18T15:33:06Z</time>
      </trkpt>
      <trkpt lat="50.10498" lon="1.52281">
        <ele>58.6</ele>
        <time>2020-06-18T15:33:07Z</time>
      </trkpt>
      <trkpt lat="50.10501" lon="1.52292">
        <ele>58.7</ele>
        <time>2020-06-18T15:33:08Z</time>
      </trkpt>
      <trkpt lat="50.10505" lon="1.52302">
        <ele>58.7</ele>
        <time>2020-06-18T15:33:09Z</time>
      </trkpt>
      <trkpt lat="50.10508" lon="1.52312">
        <ele>58.8</ele>
        <time>2020-06-18T15:33:10Z</time>
      </trkpt>
      <trkpt lat="50.10511" lon="1.52322">
        <ele>58.9</ele>
        <time>2020-06-18T15:33:11Z</time>
      </trkpt>
      <trkpt lat="50.10514" lon="1.52333">
        <ele>58.9</ele>
        <time>2020-06-18T15:33:12Z</time>
      </trkpt>
      <trkpt lat="50.10518" lon="1.52343">
        <ele>58.9</ele>
        <time>2020-06-18T15:33:13Z</time>
      </trkpt>
      <trkpt lat="50.10521" lon="1.52353">
        <ele>59</ele>
        <time>2020-06-18T15:33:14Z</time>
      </trkpt>
      <trkpt lat="50.10524" lon="1.52363">
        <ele>59</ele>
        <time>2020-06-18T15:33:15Z</time>
      </trkpt>
      <trkpt lat="50.10527" lon="1.52372">
        <ele>59</ele>
        <time>2020-06-18T15:33:16Z</time>
      </trkpt>
      <trkpt lat="50.1053" lon="1.52382">
        <ele>59.1</ele>
        <time>2020-06-18T15:33:17Z</time>
      </trkpt>
      <trkpt lat="50.10534" lon="1.52391">
        <ele>59.1</ele>
        <time>2020-06-18T15:33:18Z</time>
      </trkpt>
      <trkpt lat="50.10538" lon="1.52401">
        <ele>59</ele>
        <time>2020-06-18T15:33:19Z</time>
      </trkpt>
      <trkpt lat="50.10542" lon="1.5241">
        <ele>58.9</ele>
        <time>2020-06-18T15:33:20Z</time>
      </trkpt>
      <trkpt lat="50.10545" lon="1.5242">
        <ele>58.9</ele>
        <time>2020-06-18T15:33:21Z</time>
      </trkpt>
      <trkpt lat="50.10549" lon="1.5243">
        <ele>58.8</ele>
        <time>2020-06-18T15:33:22Z</time>
      </trkpt>
      <trkpt lat="50.10552" lon="1.5244">
        <ele>58.7</ele>
        <time>2020-06-18T15:33:23Z</time>
      </trkpt>
      <trkpt lat="50.10555" lon="1.5245">
        <ele>58.7</ele>
        <time>2020-06-18T15:33:24Z</time>
      </trkpt>
      <trkpt lat="50.10558" lon="1.52461">
        <ele>58.6</ele>
        <time>2020-06-18T15:33:25Z</time>
      </trkpt>
      <trkpt lat="50.10561" lon="1.52471">
        <ele>58.6</ele>
        <time>2020-06-18T15:33:26Z</time>
      </trkpt>
      <trkpt lat="50.10564" lon="1.52481">
        <ele>58.6</ele>
        <time>2020-06-18T15:33:27Z</time>
      </trkpt>
      <trkpt lat="50.10568" lon="1.52491">
        <ele>58.5</ele>
        <time>2020-06-18T15:33:28Z</time>
      </trkpt>
      <trkpt lat="50.1057" lon="1.52501">
        <ele>58.5</ele>
        <time>2020-06-18T15:33:29Z</time>
      </trkpt>
      <trkpt lat="50.10573" lon="1.5251">
        <ele>58.5</ele>
        <time>2020-06-18T15:33:30Z</time>
      </trkpt>
      <trkpt lat="50.10576" lon="1.5252">
        <ele>58.4</ele>
        <time>2020-06-18T15:33:31Z</time>
      </trkpt>
      <trkpt lat="50.10579" lon="1.52529">
        <ele>58.4</ele>
        <time>2020-06-18T15:33:32Z</time>
      </trkpt>
      <trkpt lat="50.10581" lon="1.52538">
        <ele>58.4</ele>
        <time>2020-06-18T15:33:33Z</time>
      </trkpt>
      <trkpt lat="50.10584" lon="1.52547">
        <ele>58.3</ele>
        <time>2020-06-18T15:33:34Z</time>
      </trkpt>
      <trkpt lat="50.10587" lon="1.52557">
        <ele>58.3</ele>
        <time>2020-06-18T15:33:35Z</time>
      </trkpt>
      <trkpt lat="50.10589" lon="1.52567">
        <ele>58.2</ele>
        <time>2020-06-18T15:33:36Z</time>
      </trkpt>
      <trkpt lat="50.10592" lon="1.52577">
        <ele>58.2</ele>
        <time>2020-06-18T15:33:37Z</time>
      </trkpt>
      <trkpt lat="50.10594" lon="1.52587">
        <ele>58.2</ele>
        <time>2020-06-18T15:33:38Z</time>
      </trkpt>
      <trkpt lat="50.10596" lon="1.52597">
        <ele>58.2</ele>
        <time>2020-06-18T15:33:39Z</time>
      </trkpt>
      <trkpt lat="50.10597" lon="1.52608">
        <ele>58.2</ele>
        <time>2020-06-18T15:33:40Z</time>
      </trkpt>
      <trkpt lat="50.10599" lon="1.52618">
        <ele>58.3</ele>
        <time>2020-06-18T15:33:41Z</time>
      </trkpt>
      <trkpt lat="50.10599" lon="1.52629">
        <ele>58.3</ele>
        <time>2020-06-18T15:33:42Z</time>
      </trkpt>
      <trkpt lat="50.10599" lon="1.52641">
        <ele>58.3</ele>
        <time>2020-06-18T15:33:43Z</time>
      </trkpt>
      <trkpt lat="50.106" lon="1.52651">
        <ele>58.3</ele>
        <time>2020-06-18T15:33:44Z</time>
      </trkpt>
      <trkpt lat="50.10601" lon="1.52662">
        <ele>58.4</ele>
        <time>2020-06-18T15:33:45Z</time>
      </trkpt>
      <trkpt lat="50.10602" lon="1.52673">
        <ele>58.5</ele>
        <time>2020-06-18T15:33:46Z</time>
      </trkpt>
      <trkpt lat="50.10603" lon="1.52684">
        <ele>58.5</ele>
        <time>2020-06-18T15:33:47Z</time>
      </trkpt>
      <trkpt lat="50.10604" lon="1.52694">
        <ele>58.6</ele>
        <time>2020-06-18T15:33:48Z</time>
      </trkpt>
      <trkpt lat="50.10606" lon="1.52705">
        <ele>58.7</ele>
        <time>2020-06-18T15:33:49Z</time>
      </trkpt>
      <trkpt lat="50.10607" lon="1.52715">
        <ele>58.8</ele>
        <time>2020-06-18T15:33:50Z</time>
      </trkpt>
      <trkpt lat="50.10608" lon="1.52725">
        <ele>58.9</ele>
        <time>2020-06-18T15:33:51Z</time>
      </trkpt>
      <trkpt lat="50.10609" lon="1.52735">
        <ele>59</ele>
        <time>2020-06-18T15:33:52Z</time>
      </trkpt>
      <trkpt lat="50.1061" lon="1.52744">
        <ele>59.1</ele>
        <time>2020-06-18T15:33:53Z</time>
      </trkpt>
      <trkpt lat="50.10611" lon="1.52753">
        <ele>59.2</ele>
        <time>2020-06-18T15:33:54Z</time>
      </trkpt>
      <trkpt lat="50.10611" lon="1.52762">
        <ele>59.3</ele>
        <time>2020-06-18T15:33:55Z</time>
      </trkpt>
      <trkpt lat="50.10613" lon="1.5277">
        <ele>59.3</ele>
        <time>2020-06-18T15:33:56Z</time>
      </trkpt>
      <trkpt lat="50.10614" lon="1.52779">
        <ele>59.3</ele>
        <time>2020-06-18T15:33:57Z</time>
      </trkpt>
      <trkpt lat="50.10616" lon="1.52785">
        <ele>59.3</ele>
        <time>2020-06-18T15:33:58Z</time>
      </trkpt>
      <trkpt lat="50.10617" lon="1.52791">
        <ele>59.2</ele>
        <time>2020-06-18T15:33:59Z</time>
      </trkpt>
      <trkpt lat="50.10619" lon="1.52795">
        <ele>59.1</ele>
        <time>2020-06-18T15:34:00Z</time>
      </trkpt>
      <trkpt lat="50.10622" lon="1.52801">
        <ele>59</ele>
        <time>2020-06-18T15:34:01Z</time>
      </trkpt>
      <trkpt lat="50.10622" lon="1.52808">
        <ele>58.9</ele>
        <time>2020-06-18T15:34:02Z</time>
      </trkpt>
      <trkpt lat="50.10624" lon="1.52816">
        <ele>58.8</ele>
        <time>2020-06-18T15:34:03Z</time>
      </trkpt>
      <trkpt lat="50.10626" lon="1.52824">
        <ele>58.7</ele>
        <time>2020-06-18T15:34:04Z</time>
      </trkpt>
      <trkpt lat="50.10627" lon="1.52833">
        <ele>58.6</ele>
        <time>2020-06-18T15:34:05Z</time>
      </trkpt>
      <trkpt lat="50.1063" lon="1.52841">
        <ele>58.6</ele>
        <time>2020-06-18T15:34:06Z</time>
      </trkpt>
      <trkpt lat="50.10632" lon="1.5285">
        <ele>58.5</ele>
        <time>2020-06-18T15:34:07Z</time>
      </trkpt>
      <trkpt lat="50.10633" lon="1.52859">
        <ele>58.5</ele>
        <time>2020-06-18T15:34:08Z</time>
      </trkpt>
      <trkpt lat="50.10634" lon="1.52868">
        <ele>58.5</ele>
        <time>2020-06-18T15:34:09Z</time>
      </trkpt>
      <trkpt lat="50.10637" lon="1.52877">
        <ele>58.5</ele>
        <time>2020-06-18T15:34:10Z</time>
      </trkpt>
      <trkpt lat="50.10639" lon="1.52885">
        <ele>58.6</ele>
        <time>2020-06-18T15:34:11Z</time>
      </trkpt>
      <trkpt lat="50.10643" lon="1.5289">
        <ele>58.6</ele>
        <time>2020-06-18T15:34:12Z</time>
      </trkpt>
      <trkpt lat="50.10648" lon="1.52893">
        <ele>58.6</ele>
        <time>2020-06-18T15:34:13Z</time>
      </trkpt>
      <trkpt lat="50.10654" lon="1.52895">
        <ele>58.6</ele>
        <time>2020-06-18T15:34:14Z</time>
      </trkpt>
      <trkpt lat="50.1066" lon="1.52896">
        <ele>58.6</ele>
        <time>2020-06-18T15:34:15Z</time>
      </trkpt>
      <trkpt lat="50.10666" lon="1.52897">
        <ele>58.6</ele>
        <time>2020-06-18T15:34:16Z</time>
      </trkpt>
      <trkpt lat="50.10671" lon="1.52899">
        <ele>58.6</ele>
        <time>2020-06-18T15:34:17Z</time>
      </trkpt>
      <trkpt lat="50.10676" lon="1.529">
        <ele>58.7</ele>
        <time>2020-06-18T15:34:18Z</time>
      </trkpt>
      <trkpt lat="50.10682" lon="1.52902">
        <ele>58.7</ele>
        <time>2020-06-18T15:34:19Z</time>
      </trkpt>
      <trkpt lat="50.10687" lon="1.52904">
        <ele>58.7</ele>
        <time>2020-06-18T15:34:20Z</time>
      </trkpt>
      <trkpt lat="50.10691" lon="1.52906">
        <ele>58.8</ele>
        <time>2020-06-18T15:34:21Z</time>
      </trkpt>
      <trkpt lat="50.10696" lon="1.52907">
        <ele>58.8</ele>
        <time>2020-06-18T15:34:22Z</time>
      </trkpt>
      <trkpt lat="50.10701" lon="1.52908">
        <ele>58.8</ele>
        <time>2020-06-18T15:34:23Z</time>
      </trkpt>
      <trkpt lat="50.10706" lon="1.52909">
        <ele>58.9</ele>
        <time>2020-06-18T15:34:24Z</time>
      </trkpt>
      <trkpt lat="50.1071" lon="1.52912">
        <ele>58.9</ele>
        <time>2020-06-18T15:34:25Z</time>
      </trkpt>
      <trkpt lat="50.10715" lon="1.52915">
        <ele>58.9</ele>
        <time>2020-06-18T15:34:26Z</time>
      </trkpt>
      <trkpt lat="50.10719" lon="1.52922">
        <ele>58.9</ele>
        <time>2020-06-18T15:34:27Z</time>
      </trkpt>
      <trkpt lat="50.10724" lon="1.52928">
        <ele>59</ele>
        <time>2020-06-18T15:34:28Z</time>
      </trkpt>
      <trkpt lat="50.10728" lon="1.52936">
        <ele>59</ele>
        <time>2020-06-18T15:34:29Z</time>
      </trkpt>
      <trkpt lat="50.10732" lon="1.52942">
        <ele>59</ele>
        <time>2020-06-18T15:34:30Z</time>
      </trkpt>
      <trkpt lat="50.10736" lon="1.52949">
        <ele>59</ele>
        <time>2020-06-18T15:34:31Z</time>
      </trkpt>
      <trkpt lat="50.1074" lon="1.52956">
        <ele>59</ele>
        <time>2020-06-18T15:34:32Z</time>
      </trkpt>
      <trkpt lat="50.10744" lon="1.52962">
        <ele>59</ele>
        <time>2020-06-18T15:34:33Z</time>
      </trkpt>
      <trkpt lat="50.10749" lon="1.5297">
        <ele>59</ele>
        <time>2020-06-18T15:34:34Z</time>
      </trkpt>
      <trkpt lat="50.10754" lon="1.52977">
        <ele>58.9</ele>
        <time>2020-06-18T15:34:35Z</time>
      </trkpt>
      <trkpt lat="50.10759" lon="1.52984">
        <ele>58.9</ele>
        <time>2020-06-18T15:34:36Z</time>
      </trkpt>
      <trkpt lat="50.10764" lon="1.52991">
        <ele>58.9</ele>
        <time>2020-06-18T15:34:37Z</time>
      </trkpt>
      <trkpt lat="50.10769" lon="1.52999">
        <ele>58.9</ele>
        <time>2020-06-18T15:34:38Z</time>
      </trkpt>
      <trkpt lat="50.10773" lon="1.53007">
        <ele>58.8</ele>
        <time>2020-06-18T15:34:39Z</time>
      </trkpt>
      <trkpt lat="50.10778" lon="1.53015">
        <ele>58.8</ele>
        <time>2020-06-18T15:34:40Z</time>
      </trkpt>
      <trkpt lat="50.10783" lon="1.53023">
        <ele>58.8</ele>
        <time>2020-06-18T15:34:41Z</time>
      </trkpt>
      <trkpt lat="50.10788" lon="1.53031">
        <ele>58.8</ele>
        <time>2020-06-18T15:34:42Z</time>
      </trkpt>
      <trkpt lat="50.10792" lon="1.5304">
        <ele>58.8</ele>
        <time>2020-06-18T15:34:43Z</time>
      </trkpt>
      <trkpt lat="50.10797" lon="1.53048">
        <ele>58.7</ele>
        <time>2020-06-18T15:34:44Z</time>
      </trkpt>
      <trkpt lat="50.10801" lon="1.53057">
        <ele>58.7</ele>
        <time>2020-06-18T15:34:45Z</time>
      </trkpt>
      <trkpt lat="50.10806" lon="1.53065">
        <ele>58.6</ele>
        <time>2020-06-18T15:34:46Z</time>
      </trkpt>
      <trkpt lat="50.10811" lon="1.53073">
        <ele>58.6</ele>
        <time>2020-06-18T15:34:47Z</time>
      </trkpt>
      <trkpt lat="50.10816" lon="1.53082">
        <ele>58.6</ele>
        <time>2020-06-18T15:34:48Z</time>
      </trkpt>
      <trkpt lat="50.10821" lon="1.5309">
        <ele>58.6</ele>
        <time>2020-06-18T15:34:49Z</time>
      </trkpt>
      <trkpt lat="50.10825" lon="1.53098">
        <ele>58.6</ele>
        <time>2020-06-18T15:34:50Z</time>
      </trkpt>
      <trkpt lat="50.1083" lon="1.53106">
        <ele>58.5</ele>
        <time>2020-06-18T15:34:51Z</time>
      </trkpt>
      <trkpt lat="50.10835" lon="1.53115">
        <ele>58.5</ele>
        <time>2020-06-18T15:34:52Z</time>
      </trkpt>
      <trkpt lat="50.1084" lon="1.53124">
        <ele>58.5</ele>
        <time>2020-06-18T15:34:53Z</time>
      </trkpt>
      <trkpt lat="50.10844" lon="1.53132">
        <ele>58.5</ele>
        <time>2020-06-18T15:34:54Z</time>
      </trkpt>
      <trkpt lat="50.10849" lon="1.53141">
        <ele>58.4</ele>
        <time>2020-06-18T15:34:55Z</time>
      </trkpt>
      <trkpt lat="50.10853" lon="1.53149">
        <ele>58.4</ele>
        <time>2020-06-18T15:34:56Z</time>
      </trkpt>
      <trkpt lat="50.10858" lon="1.53156">
        <ele>58.4</ele>
        <time>2020-06-18T15:34:57Z</time>
      </trkpt>
      <trkpt lat="50.10862" lon="1.53163">
        <ele>58.3</ele>
        <time>2020-06-18T15:34:58Z</time>
      </trkpt>
      <trkpt lat="50.10866" lon="1.53171">
        <ele>58.3</ele>
        <time>2020-06-18T15:34:59Z</time>
      </trkpt>
      <trkpt lat="50.10871" lon="1.53175">
        <ele>58.2</ele>
        <time>2020-06-18T15:35:00Z</time>
      </trkpt>
      <trkpt lat="50.10877" lon="1.53176">
        <ele>58.1</ele>
        <time>2020-06-18T15:35:01Z</time>
      </trkpt>
      <trkpt lat="50.10883" lon="1.53173">
        <ele>58</ele>
        <time>2020-06-18T15:35:02Z</time>
      </trkpt>
      <trkpt lat="50.10889" lon="1.53167">
        <ele>57.8</ele>
        <time>2020-06-18T15:35:03Z</time>
      </trkpt>
      <trkpt lat="50.10894" lon="1.5316">
        <ele>57.7</ele>
        <time>2020-06-18T15:35:04Z</time>
      </trkpt>
      <trkpt lat="50.10899" lon="1.53153">
        <ele>57.6</ele>
        <time>2020-06-18T15:35:05Z</time>
      </trkpt>
      <trkpt lat="50.10905" lon="1.53146">
        <ele>57.5</ele>
        <time>2020-06-18T15:35:06Z</time>
      </trkpt>
      <trkpt lat="50.1091" lon="1.53139">
        <ele>57.5</ele>
        <time>2020-06-18T15:35:07Z</time>
      </trkpt>
      <trkpt lat="50.10915" lon="1.53132">
        <ele>57.5</ele>
        <time>2020-06-18T15:35:08Z</time>
      </trkpt>
      <trkpt lat="50.1092" lon="1.53126">
        <ele>57.4</ele>
        <time>2020-06-18T15:35:09Z</time>
      </trkpt>
      <trkpt lat="50.10926" lon="1.53121">
        <ele>57.4</ele>
        <time>2020-06-18T15:35:10Z</time>
      </trkpt>
      <trkpt lat="50.10933" lon="1.53121">
        <ele>57.4</ele>
        <time>2020-06-18T15:35:11Z</time>
      </trkpt>
      <trkpt lat="50.1094" lon="1.53124">
        <ele>57.3</ele>
        <time>2020-06-18T15:35:12Z</time>
      </trkpt>
      <trkpt lat="50.10946" lon="1.53129">
        <ele>57.3</ele>
        <time>2020-06-18T15:35:13Z</time>
      </trkpt>
      <trkpt lat="50.10952" lon="1.53136">
        <ele>57.3</ele>
        <time>2020-06-18T15:35:14Z</time>
      </trkpt>
      <trkpt lat="50.10959" lon="1.53141">
        <ele>57.2</ele>
        <time>2020-06-18T15:35:15Z</time>
      </trkpt>
      <trkpt lat="50.10965" lon="1.53147">
        <ele>57.2</ele>
        <time>2020-06-18T15:35:16Z</time>
      </trkpt>
      <trkpt lat="50.10972" lon="1.53152">
        <ele>57.1</ele>
        <time>2020-06-18T15:35:17Z</time>
      </trkpt>
      <trkpt lat="50.10979" lon="1.53157">
        <ele>57.1</ele>
        <time>2020-06-18T15:35:18Z</time>
      </trkpt>
      <trkpt lat="50.10985" lon="1.53161">
        <ele>57</ele>
        <time>2020-06-18T15:35:19Z</time>
      </trkpt>
      <trkpt lat="50.10993" lon="1.53164">
        <ele>57</ele>
        <time>2020-06-18T15:35:20Z</time>
      </trkpt>
      <trkpt lat="50.11" lon="1.53168">
        <ele>56.9</ele>
        <time>2020-06-18T15:35:21Z</time>
      </trkpt>
      <trkpt lat="50.11007" lon="1.53171">
        <ele>56.9</ele>
        <time>2020-06-18T15:35:22Z</time>
      </trkpt>
      <trkpt lat="50.11015" lon="1.53174">
        <ele>56.8</ele>
        <time>2020-06-18T15:35:23Z</time>
      </trkpt>
      <trkpt lat="50.11022" lon="1.53177">
        <ele>56.8</ele>
        <time>2020-06-18T15:35:24Z</time>
      </trkpt>
      <trkpt lat="50.11029" lon="1.5318">
        <ele>56.7</ele>
        <time>2020-06-18T15:35:25Z</time>
      </trkpt>
      <trkpt lat="50.11037" lon="1.53183">
        <ele>56.6</ele>
        <time>2020-06-18T15:35:26Z</time>
      </trkpt>
      <trkpt lat="50.11044" lon="1.53185">
        <ele>56.6</ele>
        <time>2020-06-18T15:35:27Z</time>
      </trkpt>
      <trkpt lat="50.11052" lon="1.53186">
        <ele>56.5</ele>
        <time>2020-06-18T15:35:28Z</time>
      </trkpt>
      <trkpt lat="50.1106" lon="1.53188">
        <ele>56.4</ele>
        <time>2020-06-18T15:35:29Z</time>
      </trkpt>
      <trkpt lat="50.11067" lon="1.5319">
        <ele>56.4</ele>
        <time>2020-06-18T15:35:30Z</time>
      </trkpt>
      <trkpt lat="50.11074" lon="1.53191">
        <ele>56.3</ele>
        <time>2020-06-18T15:35:31Z</time>
      </trkpt>
      <trkpt lat="50.11081" lon="1.53192">
        <ele>56.3</ele>
        <time>2020-06-18T15:35:32Z</time>
      </trkpt>
      <trkpt lat="50.11088" lon="1.53192">
        <ele>56.3</ele>
        <time>2020-06-18T15:35:33Z</time>
      </trkpt>
      <trkpt lat="50.11095" lon="1.53193">
        <ele>56.2</ele>
        <time>2020-06-18T15:35:34Z</time>
      </trkpt>
      <trkpt lat="50.11103" lon="1.53193">
        <ele>56.2</ele>
        <time>2020-06-18T15:35:35Z</time>
      </trkpt>
      <trkpt lat="50.1111" lon="1.53193">
        <ele>56.2</ele>
        <time>2020-06-18T15:35:36Z</time>
      </trkpt>
      <trkpt lat="50.11117" lon="1.53195">
        <ele>56.2</ele>
        <time>2020-06-18T15:35:37Z</time>
      </trkpt>
      <trkpt lat="50.11124" lon="1.53196">
        <ele>56.3</ele>
        <time>2020-06-18T15:35:38Z</time>
      </trkpt>
      <trkpt lat="50.11131" lon="1.53197">
        <ele>56.3</ele>
        <time>2020-06-18T15:35:39Z</time>
      </trkpt>
      <trkpt lat="50.11138" lon="1.53198">
        <ele>56.4</ele>
        <time>2020-06-18T15:35:40Z</time>
      </trkpt>
      <trkpt lat="50.11145" lon="1.532">
        <ele>56.5</ele>
        <time>2020-06-18T15:35:41Z</time>
      </trkpt>
      <trkpt lat="50.11152" lon="1.53202">
        <ele>56.5</ele>
        <time>2020-06-18T15:35:42Z</time>
      </trkpt>
      <trkpt lat="50.11158" lon="1.53205">
        <ele>56.6</ele>
        <time>2020-06-18T15:35:43Z</time>
      </trkpt>
      <trkpt lat="50.11165" lon="1.53206">
        <ele>56.7</ele>
        <time>2020-06-18T15:35:44Z</time>
      </trkpt>
      <trkpt lat="50.11171" lon="1.53208">
        <ele>56.8</ele>
        <time>2020-06-18T15:35:45Z</time>
      </trkpt>
      <trkpt lat="50.11178" lon="1.53209">
        <ele>57</ele>
        <time>2020-06-18T15:35:46Z</time>
      </trkpt>
      <trkpt lat="50.11185" lon="1.53211">
        <ele>57.1</ele>
        <time>2020-06-18T15:35:47Z</time>
      </trkpt>
      <trkpt lat="50.11191" lon="1.53212">
        <ele>57.3</ele>
        <time>2020-06-18T15:35:48Z</time>
      </trkpt>
      <trkpt lat="50.11198" lon="1.53214">
        <ele>57.3</ele>
        <time>2020-06-18T15:35:49Z</time>
      </trkpt>
      <trkpt lat="50.11204" lon="1.53216">
        <ele>57.3</ele>
        <time>2020-06-18T15:35:50Z</time>
      </trkpt>
      <trkpt lat="50.11211" lon="1.53217">
        <ele>57.3</ele>
        <time>2020-06-18T15:35:51Z</time>
      </trkpt>
      <trkpt lat="50.11218" lon="1.5322">
        <ele>57.3</ele>
        <time>2020-06-18T15:35:52Z</time>
      </trkpt>
      <trkpt lat="50.11224" lon="1.53225">
        <ele>57.4</ele>
        <time>2020-06-18T15:35:53Z</time>
      </trkpt>
      <trkpt lat="50.11231" lon="1.53229">
        <ele>57.5</ele>
        <time>2020-06-18T15:35:54Z</time>
      </trkpt>
      <trkpt lat="50.11237" lon="1.53233">
        <ele>57.5</ele>
        <time>2020-06-18T15:35:55Z</time>
      </trkpt>
      <trkpt lat="50.11243" lon="1.53237">
        <ele>57.6</ele>
        <time>2020-06-18T15:35:56Z</time>
      </trkpt>
      <trkpt lat="50.1125" lon="1.53242">
        <ele>57.7</ele>
        <time>2020-06-18T15:35:57Z</time>
      </trkpt>
      <trkpt lat="50.11256" lon="1.53248">
        <ele>57.8</ele>
        <time>2020-06-18T15:35:58Z</time>
      </trkpt>
      <trkpt lat="50.11263" lon="1.53252">
        <ele>57.9</ele>
        <time>2020-06-18T15:35:59Z</time>
      </trkpt>
      <trkpt lat="50.11269" lon="1.53257">
        <ele>57.9</ele>
        <time>2020-06-18T15:36:00Z</time>
      </trkpt>
      <trkpt lat="50.11275" lon="1.53263">
        <ele>58</ele>
        <time>2020-06-18T15:36:01Z</time>
      </trkpt>
      <trkpt lat="50.11281" lon="1.53269">
        <ele>58</ele>
        <time>2020-06-18T15:36:02Z</time>
      </trkpt>
      <trkpt lat="50.11287" lon="1.53275">
        <ele>58.1</ele>
        <time>2020-06-18T15:36:03Z</time>
      </trkpt>
      <trkpt lat="50.11294" lon="1.53282">
        <ele>58.2</ele>
        <time>2020-06-18T15:36:04Z</time>
      </trkpt>
      <trkpt lat="50.113" lon="1.53288">
        <ele>58.3</ele>
        <time>2020-06-18T15:36:05Z</time>
      </trkpt>
      <trkpt lat="50.11305" lon="1.53293">
        <ele>58.4</ele>
        <time>2020-06-18T15:36:06Z</time>
      </trkpt>
      <trkpt lat="50.11311" lon="1.53299">
        <ele>58.5</ele>
        <time>2020-06-18T15:36:07Z</time>
      </trkpt>
      <trkpt lat="50.11316" lon="1.53305">
        <ele>58.6</ele>
        <time>2020-06-18T15:36:08Z</time>
      </trkpt>
      <trkpt lat="50.11322" lon="1.53311">
        <ele>58.7</ele>
        <time>2020-06-18T15:36:09Z</time>
      </trkpt>
      <trkpt lat="50.11327" lon="1.53316">
        <ele>58.8</ele>
        <time>2020-06-18T15:36:10Z</time>
      </trkpt>
      <trkpt lat="50.11333" lon="1.53321">
        <ele>58.8</ele>
        <time>2020-06-18T15:36:11Z</time>
      </trkpt>
      <trkpt lat="50.11338" lon="1.53327">
        <ele>58.9</ele>
        <time>2020-06-18T15:36:12Z</time>
      </trkpt>
      <trkpt lat="50.11344" lon="1.53332">
        <ele>59</ele>
        <time>2020-06-18T15:36:13Z</time>
      </trkpt>
      <trkpt lat="50.1135" lon="1.53337">
        <ele>59</ele>
        <time>2020-06-18T15:36:14Z</time>
      </trkpt>
      <trkpt lat="50.11355" lon="1.53343">
        <ele>59.1</ele>
        <time>2020-06-18T15:36:15Z</time>
      </trkpt>
      <trkpt lat="50.11361" lon="1.53348">
        <ele>59.1</ele>
        <time>2020-06-18T15:36:16Z</time>
      </trkpt>
      <trkpt lat="50.11366" lon="1.53354">
        <ele>59.2</ele>
        <time>2020-06-18T15:36:17Z</time>
      </trkpt>
      <trkpt lat="50.11371" lon="1.5336">
        <ele>59.2</ele>
        <time>2020-06-18T15:36:18Z</time>
      </trkpt>
      <trkpt lat="50.11377" lon="1.53365">
        <ele>59.3</ele>
        <time>2020-06-18T15:36:19Z</time>
      </trkpt>
      <trkpt lat="50.11382" lon="1.53371">
        <ele>59.3</ele>
        <time>2020-06-18T15:36:20Z</time>
      </trkpt>
      <trkpt lat="50.11387" lon="1.53377">
        <ele>59.4</ele>
        <time>2020-06-18T15:36:21Z</time>
      </trkpt>
      <trkpt lat="50.11392" lon="1.53383">
        <ele>59.4</ele>
        <time>2020-06-18T15:36:22Z</time>
      </trkpt>
      <trkpt lat="50.11397" lon="1.5339">
        <ele>59.4</ele>
        <time>2020-06-18T15:36:23Z</time>
      </trkpt>
      <trkpt lat="50.11401" lon="1.53396">
        <ele>59.4</ele>
        <time>2020-06-18T15:36:24Z</time>
      </trkpt>
      <trkpt lat="50.11406" lon="1.53403">
        <ele>59.4</ele>
        <time>2020-06-18T15:36:25Z</time>
      </trkpt>
      <trkpt lat="50.1141" lon="1.53411">
        <ele>59.5</ele>
        <time>2020-06-18T15:36:26Z</time>
      </trkpt>
      <trkpt lat="50.11413" lon="1.5342">
        <ele>59.5</ele>
        <time>2020-06-18T15:36:27Z</time>
      </trkpt>
      <trkpt lat="50.11416" lon="1.53429">
        <ele>59.6</ele>
        <time>2020-06-18T15:36:28Z</time>
      </trkpt>
      <trkpt lat="50.11418" lon="1.53438">
        <ele>59.6</ele>
        <time>2020-06-18T15:36:29Z</time>
      </trkpt>
      <trkpt lat="50.1142" lon="1.53447">
        <ele>59.6</ele>
        <time>2020-06-18T15:36:30Z</time>
      </trkpt>
      <trkpt lat="50.11422" lon="1.53456">
        <ele>59.7</ele>
        <time>2020-06-18T15:36:31Z</time>
      </trkpt>
      <trkpt lat="50.11424" lon="1.53466">
        <ele>59.7</ele>
        <time>2020-06-18T15:36:32Z</time>
      </trkpt>
      <trkpt lat="50.11427" lon="1.53475">
        <ele>59.7</ele>
        <time>2020-06-18T15:36:33Z</time>
      </trkpt>
      <trkpt lat="50.11429" lon="1.53484">
        <ele>59.7</ele>
        <time>2020-06-18T15:36:34Z</time>
      </trkpt>
      <trkpt lat="50.11431" lon="1.53494">
        <ele>59.7</ele>
        <time>2020-06-18T15:36:35Z</time>
      </trkpt>
      <trkpt lat="50.11433" lon="1.53504">
        <ele>59.8</ele>
        <time>2020-06-18T15:36:36Z</time>
      </trkpt>
      <trkpt lat="50.11435" lon="1.53514">
        <ele>59.8</ele>
        <time>2020-06-18T15:36:37Z</time>
      </trkpt>
      <trkpt lat="50.11437" lon="1.53523">
        <ele>59.8</ele>
        <time>2020-06-18T15:36:38Z</time>
      </trkpt>
      <trkpt lat="50.11438" lon="1.53533">
        <ele>59.8</ele>
        <time>2020-06-18T15:36:39Z</time>
      </trkpt>
      <trkpt lat="50.1144" lon="1.53543">
        <ele>59.8</ele>
        <time>2020-06-18T15:36:40Z</time>
      </trkpt>
      <trkpt lat="50.11442" lon="1.53553">
        <ele>59.8</ele>
        <time>2020-06-18T15:36:41Z</time>
      </trkpt>
      <trkpt lat="50.11444" lon="1.53563">
        <ele>59.8</ele>
        <time>2020-06-18T15:36:42Z</time>
      </trkpt>
      <trkpt lat="50.11446" lon="1.53573">
        <ele>59.8</ele>
        <time>2020-06-18T15:36:43Z</time>
      </trkpt>
      <trkpt lat="50.11448" lon="1.53583">
        <ele>59.8</ele>
        <time>2020-06-18T15:36:44Z</time>
      </trkpt>
      <trkpt lat="50.1145" lon="1.53593">
        <ele>59.7</ele>
        <time>2020-06-18T15:36:45Z</time>
      </trkpt>
      <trkpt lat="50.11451" lon="1.53603">
        <ele>59.7</ele>
        <time>2020-06-18T15:36:46Z</time>
      </trkpt>
      <trkpt lat="50.11452" lon="1.53613">
        <ele>59.7</ele>
        <time>2020-06-18T15:36:47Z</time>
      </trkpt>
      <trkpt lat="50.11454" lon="1.53623">
        <ele>59.6</ele>
        <time>2020-06-18T15:36:48Z</time>
      </trkpt>
      <trkpt lat="50.11457" lon="1.53633">
        <ele>59.6</ele>
        <time>2020-06-18T15:36:49Z</time>
      </trkpt>
      <trkpt lat="50.11458" lon="1.53643">
        <ele>59.6</ele>
        <time>2020-06-18T15:36:50Z</time>
      </trkpt>
      <trkpt lat="50.1146" lon="1.53653">
        <ele>59.5</ele>
        <time>2020-06-18T15:36:51Z</time>
      </trkpt>
      <trkpt lat="50.11461" lon="1.53664">
        <ele>59.5</ele>
        <time>2020-06-18T15:36:52Z</time>
      </trkpt>
      <trkpt lat="50.11463" lon="1.53674">
        <ele>59.4</ele>
        <time>2020-06-18T15:36:53Z</time>
      </trkpt>
      <trkpt lat="50.11465" lon="1.53684">
        <ele>59.4</ele>
        <time>2020-06-18T15:36:54Z</time>
      </trkpt>
      <trkpt lat="50.11467" lon="1.53695">
        <ele>59.4</ele>
        <time>2020-06-18T15:36:55Z</time>
      </trkpt>
      <trkpt lat="50.11468" lon="1.53704">
        <ele>59.4</ele>
        <time>2020-06-18T15:36:56Z</time>
      </trkpt>
      <trkpt lat="50.11471" lon="1.53714">
        <ele>59.4</ele>
        <time>2020-06-18T15:36:57Z</time>
      </trkpt>
      <trkpt lat="50.11473" lon="1.53725">
        <ele>59.4</ele>
        <time>2020-06-18T15:36:58Z</time>
      </trkpt>
      <trkpt lat="50.11475" lon="1.53737">
        <ele>59.5</ele>
        <time>2020-06-18T15:36:59Z</time>
      </trkpt>
      <trkpt lat="50.11478" lon="1.53746">
        <ele>59.5</ele>
        <time>2020-06-18T15:37:00Z</time>
      </trkpt>
      <trkpt lat="50.11481" lon="1.53755">
        <ele>59.5</ele>
        <time>2020-06-18T15:37:01Z</time>
      </trkpt>
      <trkpt lat="50.11484" lon="1.53765">
        <ele>59.6</ele>
        <time>2020-06-18T15:37:02Z</time>
      </trkpt>
      <trkpt lat="50.11487" lon="1.53773">
        <ele>59.6</ele>
        <time>2020-06-18T15:37:03Z</time>
      </trkpt>
      <trkpt lat="50.1149" lon="1.53782">
        <ele>59.6</ele>
        <time>2020-06-18T15:37:04Z</time>
      </trkpt>
      <trkpt lat="50.11493" lon="1.5379">
        <ele>59.4</ele>
        <time>2020-06-18T15:37:05Z</time>
      </trkpt>
      <trkpt lat="50.11497" lon="1.53798">
        <ele>59.1</ele>
        <time>2020-06-18T15:37:06Z</time>
      </trkpt>
      <trkpt lat="50.11501" lon="1.53807">
        <ele>58.9</ele>
        <time>2020-06-18T15:37:07Z</time>
      </trkpt>
      <trkpt lat="50.11505" lon="1.53816">
        <ele>58.8</ele>
        <time>2020-06-18T15:37:08Z</time>
      </trkpt>
      <trkpt lat="50.11509" lon="1.53824">
        <ele>58.7</ele>
        <time>2020-06-18T15:37:09Z</time>
      </trkpt>
      <trkpt lat="50.11514" lon="1.53833">
        <ele>58.6</ele>
        <time>2020-06-18T15:37:10Z</time>
      </trkpt>
      <trkpt lat="50.11518" lon="1.53842">
        <ele>58.5</ele>
        <time>2020-06-18T15:37:11Z</time>
      </trkpt>
      <trkpt lat="50.11523" lon="1.53851">
        <ele>58.5</ele>
        <time>2020-06-18T15:37:12Z</time>
      </trkpt>
      <trkpt lat="50.11527" lon="1.5386">
        <ele>58.4</ele>
        <time>2020-06-18T15:37:13Z</time>
      </trkpt>
      <trkpt lat="50.11531" lon="1.53868">
        <ele>58.4</ele>
        <time>2020-06-18T15:37:14Z</time>
      </trkpt>
      <trkpt lat="50.11534" lon="1.53877">
        <ele>58.4</ele>
        <time>2020-06-18T15:37:15Z</time>
      </trkpt>
      <trkpt lat="50.11538" lon="1.53885">
        <ele>58.4</ele>
        <time>2020-06-18T15:37:16Z</time>
      </trkpt>
      <trkpt lat="50.11542" lon="1.53894">
        <ele>58.4</ele>
        <time>2020-06-18T15:37:17Z</time>
      </trkpt>
      <trkpt lat="50.11546" lon="1.53902">
        <ele>58.3</ele>
        <time>2020-06-18T15:37:18Z</time>
      </trkpt>
      <trkpt lat="50.1155" lon="1.53911">
        <ele>58.3</ele>
        <time>2020-06-18T15:37:19Z</time>
      </trkpt>
      <trkpt lat="50.11555" lon="1.53918">
        <ele>58.2</ele>
        <time>2020-06-18T15:37:20Z</time>
      </trkpt>
      <trkpt lat="50.11559" lon="1.53927">
        <ele>58.2</ele>
        <time>2020-06-18T15:37:21Z</time>
      </trkpt>
      <trkpt lat="50.11563" lon="1.53934">
        <ele>58.1</ele>
        <time>2020-06-18T15:37:22Z</time>
      </trkpt>
      <trkpt lat="50.11568" lon="1.53943">
        <ele>58.1</ele>
        <time>2020-06-18T15:37:23Z</time>
      </trkpt>
      <trkpt lat="50.11572" lon="1.53952">
        <ele>58</ele>
        <time>2020-06-18T15:37:24Z</time>
      </trkpt>
      <trkpt lat="50.11576" lon="1.53961">
        <ele>58</ele>
        <time>2020-06-18T15:37:25Z</time>
      </trkpt>
      <trkpt lat="50.1158" lon="1.5397">
        <ele>57.9</ele>
        <time>2020-06-18T15:37:26Z</time>
      </trkpt>
      <trkpt lat="50.11584" lon="1.53979">
        <ele>57.9</ele>
        <time>2020-06-18T15:37:27Z</time>
      </trkpt>
      <trkpt lat="50.11588" lon="1.53988">
        <ele>57.8</ele>
        <time>2020-06-18T15:37:28Z</time>
      </trkpt>
      <trkpt lat="50.11591" lon="1.53997">
        <ele>57.8</ele>
        <time>2020-06-18T15:37:29Z</time>
      </trkpt>
      <trkpt lat="50.11595" lon="1.54005">
        <ele>57.8</ele>
        <time>2020-06-18T15:37:30Z</time>
      </trkpt>
      <trkpt lat="50.11599" lon="1.54014">
        <ele>57.7</ele>
        <time>2020-06-18T15:37:31Z</time>
      </trkpt>
      <trkpt lat="50.11602" lon="1.54022">
        <ele>57.7</ele>
        <time>2020-06-18T15:37:32Z</time>
      </trkpt>
      <trkpt lat="50.11605" lon="1.54032">
        <ele>57.7</ele>
        <time>2020-06-18T15:37:33Z</time>
      </trkpt>
      <trkpt lat="50.11609" lon="1.54041">
        <ele>57.6</ele>
        <time>2020-06-18T15:37:34Z</time>
      </trkpt>
      <trkpt lat="50.11612" lon="1.5405">
        <ele>57.6</ele>
        <time>2020-06-18T15:37:35Z</time>
      </trkpt>
      <trkpt lat="50.11616" lon="1.54059">
        <ele>57.6</ele>
        <time>2020-06-18T15:37:36Z</time>
      </trkpt>
      <trkpt lat="50.11619" lon="1.54068">
        <ele>57.6</ele>
        <time>2020-06-18T15:37:37Z</time>
      </trkpt>
      <trkpt lat="50.11622" lon="1.54077">
        <ele>57.6</ele>
        <time>2020-06-18T15:37:38Z</time>
      </trkpt>
      <trkpt lat="50.11625" lon="1.54086">
        <ele>57.5</ele>
        <time>2020-06-18T15:37:39Z</time>
      </trkpt>
      <trkpt lat="50.11629" lon="1.54095">
        <ele>57.5</ele>
        <time>2020-06-18T15:37:40Z</time>
      </trkpt>
      <trkpt lat="50.11633" lon="1.54104">
        <ele>57.5</ele>
        <time>2020-06-18T15:37:41Z</time>
      </trkpt>
      <trkpt lat="50.11637" lon="1.54112">
        <ele>57.5</ele>
        <time>2020-06-18T15:37:42Z</time>
      </trkpt>
      <trkpt lat="50.11642" lon="1.54122">
        <ele>57.5</ele>
        <time>2020-06-18T15:37:43Z</time>
      </trkpt>
      <trkpt lat="50.11646" lon="1.54131">
        <ele>57.5</ele>
        <time>2020-06-18T15:37:44Z</time>
      </trkpt>
      <trkpt lat="50.11649" lon="1.5414">
        <ele>57.5</ele>
        <time>2020-06-18T15:37:45Z</time>
      </trkpt>
      <trkpt lat="50.11653" lon="1.5415">
        <ele>57.4</ele>
        <time>2020-06-18T15:37:46Z</time>
      </trkpt>
      <trkpt lat="50.11656" lon="1.54159">
        <ele>57.4</ele>
        <time>2020-06-18T15:37:47Z</time>
      </trkpt>
      <trkpt lat="50.11661" lon="1.54168">
        <ele>57.4</ele>
        <time>2020-06-18T15:37:48Z</time>
      </trkpt>
      <trkpt lat="50.11665" lon="1.54176">
        <ele>57.3</ele>
        <time>2020-06-18T15:37:49Z</time>
      </trkpt>
      <trkpt lat="50.1167" lon="1.54185">
        <ele>57.3</ele>
        <time>2020-06-18T15:37:50Z</time>
      </trkpt>
      <trkpt lat="50.11674" lon="1.54194">
        <ele>57.2</ele>
        <time>2020-06-18T15:37:51Z</time>
      </trkpt>
      <trkpt lat="50.11678" lon="1.54204">
        <ele>57.2</ele>
        <time>2020-06-18T15:37:52Z</time>
      </trkpt>
      <trkpt lat="50.11682" lon="1.54213">
        <ele>57.2</ele>
        <time>2020-06-18T15:37:53Z</time>
      </trkpt>
      <trkpt lat="50.11686" lon="1.54223">
        <ele>57.2</ele>
        <time>2020-06-18T15:37:54Z</time>
      </trkpt>
      <trkpt lat="50.11689" lon="1.54232">
        <ele>57.1</ele>
        <time>2020-06-18T15:37:55Z</time>
      </trkpt>
      <trkpt lat="50.11693" lon="1.54242">
        <ele>57.1</ele>
        <time>2020-06-18T15:37:56Z</time>
      </trkpt>
      <trkpt lat="50.11697" lon="1.54252">
        <ele>57.1</ele>
        <time>2020-06-18T15:37:57Z</time>
      </trkpt>
      <trkpt lat="50.117" lon="1.54262">
        <ele>57</ele>
        <time>2020-06-18T15:37:58Z</time>
      </trkpt>
      <trkpt lat="50.11703" lon="1.54272">
        <ele>56.9</ele>
        <time>2020-06-18T15:37:59Z</time>
      </trkpt>
      <trkpt lat="50.11707" lon="1.54283">
        <ele>56.9</ele>
        <time>2020-06-18T15:38:00Z</time>
      </trkpt>
      <trkpt lat="50.11709" lon="1.54293">
        <ele>56.8</ele>
        <time>2020-06-18T15:38:01Z</time>
      </trkpt>
      <trkpt lat="50.11713" lon="1.54304">
        <ele>56.8</ele>
        <time>2020-06-18T15:38:02Z</time>
      </trkpt>
      <trkpt lat="50.11716" lon="1.54315">
        <ele>56.7</ele>
        <time>2020-06-18T15:38:03Z</time>
      </trkpt>
      <trkpt lat="50.11719" lon="1.54326">
        <ele>56.7</ele>
        <time>2020-06-18T15:38:04Z</time>
      </trkpt>
      <trkpt lat="50.11721" lon="1.54336">
        <ele>56.7</ele>
        <time>2020-06-18T15:38:05Z</time>
      </trkpt>
      <trkpt lat="50.11723" lon="1.54347">
        <ele>56.7</ele>
        <time>2020-06-18T15:38:06Z</time>
      </trkpt>
      <trkpt lat="50.11726" lon="1.54356">
        <ele>56.6</ele>
        <time>2020-06-18T15:38:07Z</time>
      </trkpt>
      <trkpt lat="50.11728" lon="1.54367">
        <ele>56.6</ele>
        <time>2020-06-18T15:38:08Z</time>
      </trkpt>
      <trkpt lat="50.1173" lon="1.54377">
        <ele>56.6</ele>
        <time>2020-06-18T15:38:09Z</time>
      </trkpt>
      <trkpt lat="50.11732" lon="1.54386">
        <ele>56.6</ele>
        <time>2020-06-18T15:38:10Z</time>
      </trkpt>
      <trkpt lat="50.11734" lon="1.54395">
        <ele>56.5</ele>
        <time>2020-06-18T15:38:11Z</time>
      </trkpt>
      <trkpt lat="50.11736" lon="1.54404">
        <ele>56.5</ele>
        <time>2020-06-18T15:38:12Z</time>
      </trkpt>
      <trkpt lat="50.11737" lon="1.54412">
        <ele>56.4</ele>
        <time>2020-06-18T15:38:13Z</time>
      </trkpt>
      <trkpt lat="50.11738" lon="1.54421">
        <ele>56.4</ele>
        <time>2020-06-18T15:38:14Z</time>
      </trkpt>
      <trkpt lat="50.1174" lon="1.5443">
        <ele>56.4</ele>
        <time>2020-06-18T15:38:15Z</time>
      </trkpt>
      <trkpt lat="50.11742" lon="1.54438">
        <ele>56.4</ele>
        <time>2020-06-18T15:38:16Z</time>
      </trkpt>
      <trkpt lat="50.11744" lon="1.54446">
        <ele>56.5</ele>
        <time>2020-06-18T15:38:17Z</time>
      </trkpt>
      <trkpt lat="50.11746" lon="1.54456">
        <ele>56.5</ele>
        <time>2020-06-18T15:38:18Z</time>
      </trkpt>
      <trkpt lat="50.11748" lon="1.54465">
        <ele>56.5</ele>
        <time>2020-06-18T15:38:19Z</time>
      </trkpt>
      <trkpt lat="50.11749" lon="1.54474">
        <ele>56.4</ele>
        <time>2020-06-18T15:38:20Z</time>
      </trkpt>
      <trkpt lat="50.1175" lon="1.54484">
        <ele>56.4</ele>
        <time>2020-06-18T15:38:21Z</time>
      </trkpt>
      <trkpt lat="50.11752" lon="1.54493">
        <ele>56.3</ele>
        <time>2020-06-18T15:38:22Z</time>
      </trkpt>
      <trkpt lat="50.11754" lon="1.54503">
        <ele>56.2</ele>
        <time>2020-06-18T15:38:23Z</time>
      </trkpt>
      <trkpt lat="50.11756" lon="1.54513">
        <ele>56.1</ele>
        <time>2020-06-18T15:38:24Z</time>
      </trkpt>
      <trkpt lat="50.11757" lon="1.54522">
        <ele>56.1</ele>
        <time>2020-06-18T15:38:25Z</time>
      </trkpt>
      <trkpt lat="50.11758" lon="1.54531">
        <ele>56</ele>
        <time>2020-06-18T15:38:26Z</time>
      </trkpt>
      <trkpt lat="50.11759" lon="1.5454">
        <ele>55.9</ele>
        <time>2020-06-18T15:38:27Z</time>
      </trkpt>
      <trkpt lat="50.11759" lon="1.54549">
        <ele>55.8</ele>
        <time>2020-06-18T15:38:28Z</time>
      </trkpt>
      <trkpt lat="50.11761" lon="1.5456">
        <ele>55.7</ele>
        <time>2020-06-18T15:38:29Z</time>
      </trkpt>
      <trkpt lat="50.11763" lon="1.5457">
        <ele>55.5</ele>
        <time>2020-06-18T15:38:30Z</time>
      </trkpt>
      <trkpt lat="50.11765" lon="1.54581">
        <ele>55.4</ele>
        <time>2020-06-18T15:38:31Z</time>
      </trkpt>
      <trkpt lat="50.11765" lon="1.54591">
        <ele>55.3</ele>
        <time>2020-06-18T15:38:32Z</time>
      </trkpt>
      <trkpt lat="50.11766" lon="1.54598">
        <ele>55.3</ele>
        <time>2020-06-18T15:38:33Z</time>
      </trkpt>
      <trkpt lat="50.11765" lon="1.54606">
        <ele>55.2</ele>
        <time>2020-06-18T15:38:34Z</time>
      </trkpt>
      <trkpt lat="50.11766" lon="1.54613">
        <ele>55.1</ele>
        <time>2020-06-18T15:38:35Z</time>
      </trkpt>
      <trkpt lat="50.11766" lon="1.54618">
        <ele>55</ele>
        <time>2020-06-18T15:38:36Z</time>
      </trkpt>
      <trkpt lat="50.11767" lon="1.54628">
        <ele>54.9</ele>
        <time>2020-06-18T15:38:37Z</time>
      </trkpt>
      <trkpt lat="50.11769" lon="1.54636">
        <ele>54.8</ele>
        <time>2020-06-18T15:38:38Z</time>
      </trkpt>
      <trkpt lat="50.11769" lon="1.54645">
        <ele>54.7</ele>
        <time>2020-06-18T15:38:39Z</time>
      </trkpt>
      <trkpt lat="50.11769" lon="1.54655">
        <ele>54.5</ele>
        <time>2020-06-18T15:38:40Z</time>
      </trkpt>
      <trkpt lat="50.11766" lon="1.54667">
        <ele>54.4</ele>
        <time>2020-06-18T15:38:41Z</time>
      </trkpt>
      <trkpt lat="50.11764" lon="1.54677">
        <ele>54.3</ele>
        <time>2020-06-18T15:38:42Z</time>
      </trkpt>
      <trkpt lat="50.11762" lon="1.54689">
        <ele>54.2</ele>
        <time>2020-06-18T15:38:43Z</time>
      </trkpt>
      <trkpt lat="50.11761" lon="1.547">
        <ele>54.1</ele>
        <time>2020-06-18T15:38:44Z</time>
      </trkpt>
      <trkpt lat="50.1176" lon="1.54711">
        <ele>54</ele>
        <time>2020-06-18T15:38:45Z</time>
      </trkpt>
      <trkpt lat="50.11761" lon="1.5472">
        <ele>53.9</ele>
        <time>2020-06-18T15:38:46Z</time>
      </trkpt>
      <trkpt lat="50.11764" lon="1.54729">
        <ele>53.8</ele>
        <time>2020-06-18T15:38:47Z</time>
      </trkpt>
      <trkpt lat="50.11765" lon="1.54738">
        <ele>53.7</ele>
        <time>2020-06-18T15:38:48Z</time>
      </trkpt>
      <trkpt lat="50.11766" lon="1.54746">
        <ele>53.6</ele>
        <time>2020-06-18T15:38:49Z</time>
      </trkpt>
      <trkpt lat="50.11769" lon="1.54753">
        <ele>53.5</ele>
        <time>2020-06-18T15:38:50Z</time>
      </trkpt>
      <trkpt lat="50.1177" lon="1.5476">
        <ele>53.4</ele>
        <time>2020-06-18T15:38:51Z</time>
      </trkpt>
      <trkpt lat="50.11772" lon="1.54768">
        <ele>53.3</ele>
        <time>2020-06-18T15:38:52Z</time>
      </trkpt>
      <trkpt lat="50.11775" lon="1.54774">
        <ele>53.2</ele>
        <time>2020-06-18T15:38:53Z</time>
      </trkpt>
      <trkpt lat="50.11778" lon="1.54778">
        <ele>53.2</ele>
        <time>2020-06-18T15:38:54Z</time>
      </trkpt>
      <trkpt lat="50.11784" lon="1.54779">
        <ele>53.1</ele>
        <time>2020-06-18T15:38:55Z</time>
      </trkpt>
      <trkpt lat="50.11791" lon="1.54784">
        <ele>53.1</ele>
        <time>2020-06-18T15:38:56Z</time>
      </trkpt>
      <trkpt lat="50.11796" lon="1.54789">
        <ele>53</ele>
        <time>2020-06-18T15:38:57Z</time>
      </trkpt>
      <trkpt lat="50.11802" lon="1.54793">
        <ele>52.9</ele>
        <time>2020-06-18T15:38:58Z</time>
      </trkpt>
      <trkpt lat="50.11808" lon="1.54797">
        <ele>52.9</ele>
        <time>2020-06-18T15:38:59Z</time>
      </trkpt>
      <trkpt lat="50.11815" lon="1.54802">
        <ele>52.8</ele>
        <time>2020-06-18T15:39:00Z</time>
      </trkpt>
      <trkpt lat="50.11821" lon="1.54807">
        <ele>52.8</ele>
        <time>2020-06-18T15:39:01Z</time>
      </trkpt>
      <trkpt lat="50.11827" lon="1.5481">
        <ele>52.8</ele>
        <time>2020-06-18T15:39:02Z</time>
      </trkpt>
      <trkpt lat="50.11832" lon="1.54814">
        <ele>52.7</ele>
        <time>2020-06-18T15:39:03Z</time>
      </trkpt>
      <trkpt lat="50.11837" lon="1.54818">
        <ele>52.7</ele>
        <time>2020-06-18T15:39:04Z</time>
      </trkpt>
      <trkpt lat="50.11842" lon="1.54823">
        <ele>52.6</ele>
        <time>2020-06-18T15:39:05Z</time>
      </trkpt>
      <trkpt lat="50.11848" lon="1.54828">
        <ele>52.5</ele>
        <time>2020-06-18T15:39:06Z</time>
      </trkpt>
      <trkpt lat="50.11853" lon="1.54832">
        <ele>52.5</ele>
        <time>2020-06-18T15:39:07Z</time>
      </trkpt>
      <trkpt lat="50.11858" lon="1.54838">
        <ele>52.4</ele>
        <time>2020-06-18T15:39:08Z</time>
      </trkpt>
      <trkpt lat="50.11863" lon="1.54842">
        <ele>52.3</ele>
        <time>2020-06-18T15:39:09Z</time>
      </trkpt>
      <trkpt lat="50.11868" lon="1.54849">
        <ele>52.3</ele>
        <time>2020-06-18T15:39:10Z</time>
      </trkpt>
      <trkpt lat="50.11873" lon="1.54855">
        <ele>52.2</ele>
        <time>2020-06-18T15:39:11Z</time>
      </trkpt>
      <trkpt lat="50.11878" lon="1.54861">
        <ele>52.2</ele>
        <time>2020-06-18T15:39:12Z</time>
      </trkpt>
      <trkpt lat="50.11884" lon="1.54868">
        <ele>52.1</ele>
        <time>2020-06-18T15:39:13Z</time>
      </trkpt>
      <trkpt lat="50.1189" lon="1.54873">
        <ele>52.1</ele>
        <time>2020-06-18T15:39:14Z</time>
      </trkpt>
      <trkpt lat="50.11895" lon="1.54878">
        <ele>52.1</ele>
        <time>2020-06-18T15:39:15Z</time>
      </trkpt>
      <trkpt lat="50.11901" lon="1.54884">
        <ele>52.1</ele>
        <time>2020-06-18T15:39:16Z</time>
      </trkpt>
      <trkpt lat="50.11908" lon="1.54891">
        <ele>52</ele>
        <time>2020-06-18T15:39:17Z</time>
      </trkpt>
      <trkpt lat="50.11914" lon="1.54896">
        <ele>52</ele>
        <time>2020-06-18T15:39:18Z</time>
      </trkpt>
      <trkpt lat="50.11919" lon="1.54902">
        <ele>51.9</ele>
        <time>2020-06-18T15:39:19Z</time>
      </trkpt>
      <trkpt lat="50.11924" lon="1.54906">
        <ele>51.9</ele>
        <time>2020-06-18T15:39:20Z</time>
      </trkpt>
      <trkpt lat="50.1193" lon="1.54911">
        <ele>51.8</ele>
        <time>2020-06-18T15:39:21Z</time>
      </trkpt>
      <trkpt lat="50.11935" lon="1.54916">
        <ele>51.8</ele>
        <time>2020-06-18T15:39:22Z</time>
      </trkpt>
      <trkpt lat="50.1194" lon="1.5492">
        <ele>51.7</ele>
        <time>2020-06-18T15:39:23Z</time>
      </trkpt>
      <trkpt lat="50.11945" lon="1.54924">
        <ele>51.6</ele>
        <time>2020-06-18T15:39:24Z</time>
      </trkpt>
      <trkpt lat="50.1195" lon="1.54929">
        <ele>51.4</ele>
        <time>2020-06-18T15:39:25Z</time>
      </trkpt>
      <trkpt lat="50.11955" lon="1.54932">
        <ele>51.3</ele>
        <time>2020-06-18T15:39:26Z</time>
      </trkpt>
      <trkpt lat="50.1196" lon="1.54937">
        <ele>51.2</ele>
        <time>2020-06-18T15:39:27Z</time>
      </trkpt>
      <trkpt lat="50.11964" lon="1.54941">
        <ele>51.1</ele>
        <time>2020-06-18T15:39:28Z</time>
      </trkpt>
      <trkpt lat="50.11968" lon="1.54945">
        <ele>51</ele>
        <time>2020-06-18T15:39:29Z</time>
      </trkpt>
      <trkpt lat="50.11973" lon="1.54949">
        <ele>50.9</ele>
        <time>2020-06-18T15:39:30Z</time>
      </trkpt>
      <trkpt lat="50.11978" lon="1.54956">
        <ele>50.8</ele>
        <time>2020-06-18T15:39:31Z</time>
      </trkpt>
      <trkpt lat="50.11983" lon="1.5496">
        <ele>50.7</ele>
        <time>2020-06-18T15:39:32Z</time>
      </trkpt>
      <trkpt lat="50.11987" lon="1.54965">
        <ele>50.6</ele>
        <time>2020-06-18T15:39:33Z</time>
      </trkpt>
      <trkpt lat="50.11992" lon="1.54971">
        <ele>50.5</ele>
        <time>2020-06-18T15:39:34Z</time>
      </trkpt>
      <trkpt lat="50.11993" lon="1.5498">
        <ele>50.5</ele>
        <time>2020-06-18T15:39:35Z</time>
      </trkpt>
      <trkpt lat="50.11993" lon="1.54989">
        <ele>50.3</ele>
        <time>2020-06-18T15:39:36Z</time>
      </trkpt>
      <trkpt lat="50.11992" lon="1.54999">
        <ele>50.2</ele>
        <time>2020-06-18T15:39:37Z</time>
      </trkpt>
      <trkpt lat="50.11991" lon="1.5501">
        <ele>50.1</ele>
        <time>2020-06-18T15:39:38Z</time>
      </trkpt>
      <trkpt lat="50.1199" lon="1.5502">
        <ele>50</ele>
        <time>2020-06-18T15:39:39Z</time>
      </trkpt>
      <trkpt lat="50.1199" lon="1.5503">
        <ele>49.9</ele>
        <time>2020-06-18T15:39:40Z</time>
      </trkpt>
      <trkpt lat="50.1199" lon="1.55041">
        <ele>49.8</ele>
        <time>2020-06-18T15:39:41Z</time>
      </trkpt>
      <trkpt lat="50.1199" lon="1.55051">
        <ele>49.7</ele>
        <time>2020-06-18T15:39:42Z</time>
      </trkpt>
      <trkpt lat="50.11991" lon="1.55061">
        <ele>49.7</ele>
        <time>2020-06-18T15:39:43Z</time>
      </trkpt>
      <trkpt lat="50.11992" lon="1.5507">
        <ele>49.6</ele>
        <time>2020-06-18T15:39:44Z</time>
      </trkpt>
      <trkpt lat="50.11993" lon="1.55083">
        <ele>49.6</ele>
        <time>2020-06-18T15:39:45Z</time>
      </trkpt>
      <trkpt lat="50.11995" lon="1.55095">
        <ele>49.6</ele>
        <time>2020-06-18T15:39:46Z</time>
      </trkpt>
      <trkpt lat="50.11997" lon="1.55106">
        <ele>49.5</ele>
        <time>2020-06-18T15:39:47Z</time>
      </trkpt>
      <trkpt lat="50.11999" lon="1.55116">
        <ele>49.5</ele>
        <time>2020-06-18T15:39:48Z</time>
      </trkpt>
      <trkpt lat="50.11999" lon="1.55128">
        <ele>49.5</ele>
        <time>2020-06-18T15:39:49Z</time>
      </trkpt>
      <trkpt lat="50.12" lon="1.55139">
        <ele>49.5</ele>
        <time>2020-06-18T15:39:50Z</time>
      </trkpt>
      <trkpt lat="50.12002" lon="1.55149">
        <ele>49.6</ele>
        <time>2020-06-18T15:39:51Z</time>
      </trkpt>
      <trkpt lat="50.12004" lon="1.55159">
        <ele>49.6</ele>
        <time>2020-06-18T15:39:52Z</time>
      </trkpt>
      <trkpt lat="50.12006" lon="1.55169">
        <ele>49.7</ele>
        <time>2020-06-18T15:39:53Z</time>
      </trkpt>
      <trkpt lat="50.12008" lon="1.55178">
        <ele>49.8</ele>
        <time>2020-06-18T15:39:54Z</time>
      </trkpt>
      <trkpt lat="50.1201" lon="1.55187">
        <ele>49.7</ele>
        <time>2020-06-18T15:39:55Z</time>
      </trkpt>
      <trkpt lat="50.12014" lon="1.55194">
        <ele>49.6</ele>
        <time>2020-06-18T15:39:56Z</time>
      </trkpt>
      <trkpt lat="50.12019" lon="1.552">
        <ele>49.5</ele>
        <time>2020-06-18T15:39:57Z</time>
      </trkpt>
      <trkpt lat="50.12024" lon="1.55205">
        <ele>49.4</ele>
        <time>2020-06-18T15:39:58Z</time>
      </trkpt>
      <trkpt lat="50.12029" lon="1.5521">
        <ele>49.3</ele>
        <time>2020-06-18T15:39:59Z</time>
      </trkpt>
      <trkpt lat="50.12034" lon="1.55215">
        <ele>49.2</ele>
        <time>2020-06-18T15:40:00Z</time>
      </trkpt>
      <trkpt lat="50.12038" lon="1.55222">
        <ele>49.1</ele>
        <time>2020-06-18T15:40:01Z</time>
      </trkpt>
      <trkpt lat="50.12043" lon="1.55228">
        <ele>49</ele>
        <time>2020-06-18T15:40:02Z</time>
      </trkpt>
      <trkpt lat="50.12049" lon="1.55234">
        <ele>48.8</ele>
        <time>2020-06-18T15:40:03Z</time>
      </trkpt>
      <trkpt lat="50.12053" lon="1.55241">
        <ele>48.7</ele>
        <time>2020-06-18T15:40:04Z</time>
      </trkpt>
      <trkpt lat="50.12059" lon="1.55247">
        <ele>48.6</ele>
        <time>2020-06-18T15:40:05Z</time>
      </trkpt>
      <trkpt lat="50.12064" lon="1.55252">
        <ele>48.6</ele>
        <time>2020-06-18T15:40:06Z</time>
      </trkpt>
      <trkpt lat="50.12069" lon="1.55258">
        <ele>48.5</ele>
        <time>2020-06-18T15:40:07Z</time>
      </trkpt>
      <trkpt lat="50.12075" lon="1.55262">
        <ele>48.4</ele>
        <time>2020-06-18T15:40:08Z</time>
      </trkpt>
      <trkpt lat="50.12081" lon="1.55266">
        <ele>48.4</ele>
        <time>2020-06-18T15:40:09Z</time>
      </trkpt>
      <trkpt lat="50.12086" lon="1.5527">
        <ele>48.3</ele>
        <time>2020-06-18T15:40:10Z</time>
      </trkpt>
      <trkpt lat="50.12092" lon="1.55275">
        <ele>48.2</ele>
        <time>2020-06-18T15:40:11Z</time>
      </trkpt>
      <trkpt lat="50.12098" lon="1.55279">
        <ele>48.1</ele>
        <time>2020-06-18T15:40:12Z</time>
      </trkpt>
      <trkpt lat="50.12104" lon="1.55283">
        <ele>47.9</ele>
        <time>2020-06-18T15:40:13Z</time>
      </trkpt>
      <trkpt lat="50.1211" lon="1.55287">
        <ele>47.8</ele>
        <time>2020-06-18T15:40:14Z</time>
      </trkpt>
      <trkpt lat="50.12116" lon="1.5529">
        <ele>47.7</ele>
        <time>2020-06-18T15:40:15Z</time>
      </trkpt>
      <trkpt lat="50.12122" lon="1.55293">
        <ele>47.6</ele>
        <time>2020-06-18T15:40:16Z</time>
      </trkpt>
      <trkpt lat="50.12128" lon="1.55296">
        <ele>47.4</ele>
        <time>2020-06-18T15:40:17Z</time>
      </trkpt>
      <trkpt lat="50.12134" lon="1.553">
        <ele>47.3</ele>
        <time>2020-06-18T15:40:18Z</time>
      </trkpt>
      <trkpt lat="50.12141" lon="1.55301">
        <ele>47.1</ele>
        <time>2020-06-18T15:40:19Z</time>
      </trkpt>
      <trkpt lat="50.12148" lon="1.55304">
        <ele>46.9</ele>
        <time>2020-06-18T15:40:20Z</time>
      </trkpt>
      <trkpt lat="50.12155" lon="1.55305">
        <ele>46.6</ele>
        <time>2020-06-18T15:40:21Z</time>
      </trkpt>
      <trkpt lat="50.12162" lon="1.55307">
        <ele>46.5</ele>
        <time>2020-06-18T15:40:22Z</time>
      </trkpt>
      <trkpt lat="50.12169" lon="1.55309">
        <ele>46.3</ele>
        <time>2020-06-18T15:40:23Z</time>
      </trkpt>
      <trkpt lat="50.12175" lon="1.55311">
        <ele>46.2</ele>
        <time>2020-06-18T15:40:24Z</time>
      </trkpt>
      <trkpt lat="50.12182" lon="1.55314">
        <ele>46.1</ele>
        <time>2020-06-18T15:40:25Z</time>
      </trkpt>
      <trkpt lat="50.12189" lon="1.55317">
        <ele>46</ele>
        <time>2020-06-18T15:40:26Z</time>
      </trkpt>
      <trkpt lat="50.12196" lon="1.55321">
        <ele>45.9</ele>
        <time>2020-06-18T15:40:27Z</time>
      </trkpt>
      <trkpt lat="50.12202" lon="1.55325">
        <ele>45.7</ele>
        <time>2020-06-18T15:40:28Z</time>
      </trkpt>
      <trkpt lat="50.12209" lon="1.55329">
        <ele>45.5</ele>
        <time>2020-06-18T15:40:29Z</time>
      </trkpt>
      <trkpt lat="50.12215" lon="1.55334">
        <ele>45.4</ele>
        <time>2020-06-18T15:40:30Z</time>
      </trkpt>
      <trkpt lat="50.12221" lon="1.55339">
        <ele>45.3</ele>
        <time>2020-06-18T15:40:31Z</time>
      </trkpt>
      <trkpt lat="50.12226" lon="1.55346">
        <ele>45.2</ele>
        <time>2020-06-18T15:40:32Z</time>
      </trkpt>
      <trkpt lat="50.12231" lon="1.55351">
        <ele>45.2</ele>
        <time>2020-06-18T15:40:33Z</time>
      </trkpt>
      <trkpt lat="50.12237" lon="1.55356">
        <ele>45.1</ele>
        <time>2020-06-18T15:40:34Z</time>
      </trkpt>
      <trkpt lat="50.12242" lon="1.55362">
        <ele>44.9</ele>
        <time>2020-06-18T15:40:35Z</time>
      </trkpt>
      <trkpt lat="50.12247" lon="1.55368">
        <ele>44.8</ele>
        <time>2020-06-18T15:40:36Z</time>
      </trkpt>
      <trkpt lat="50.12252" lon="1.55372">
        <ele>44.7</ele>
        <time>2020-06-18T15:40:37Z</time>
      </trkpt>
      <trkpt lat="50.12255" lon="1.55376">
        <ele>44.6</ele>
        <time>2020-06-18T15:40:38Z</time>
      </trkpt>
      <trkpt lat="50.12257" lon="1.55378">
        <ele>44.5</ele>
        <time>2020-06-18T15:40:39Z</time>
      </trkpt>
      <trkpt lat="50.12259" lon="1.55379">
        <ele>44.5</ele>
        <time>2020-06-18T15:40:40Z</time>
      </trkpt>
      <trkpt lat="50.12259" lon="1.55379">
        <ele>44.5</ele>
        <time>2020-06-18T15:40:41Z</time>
      </trkpt>
      <trkpt lat="50.12258" lon="1.55379">
        <ele>44.5</ele>
        <time>2020-06-18T15:40:42Z</time>
      </trkpt>
      <trkpt lat="50.12258" lon="1.55379">
        <ele>44.5</ele>
        <time>2020-06-18T15:40:43Z</time>
      </trkpt>
      <trkpt lat="50.12258" lon="1.55378">
        <ele>44.4</ele>
        <time>2020-06-18T15:40:44Z</time>
      </trkpt>
      <trkpt lat="50.12259" lon="1.55378">
        <ele>44.4</ele>
        <time>2020-06-18T15:40:45Z</time>
      </trkpt>
      <trkpt lat="50.1226" lon="1.55378">
        <ele>44.4</ele>
        <time>2020-06-18T15:40:46Z</time>
      </trkpt>
      <trkpt lat="50.12261" lon="1.55377">
        <ele>44.4</ele>
        <time>2020-06-18T15:40:47Z</time>
      </trkpt>
      <trkpt lat="50.12262" lon="1.55378">
        <ele>44.4</ele>
        <time>2020-06-18T15:40:48Z</time>
      </trkpt>
      <trkpt lat="50.12263" lon="1.55378">
        <ele>44.4</ele>
        <time>2020-06-18T15:40:49Z</time>
      </trkpt>
      <trkpt lat="50.12263" lon="1.55379">
        <ele>44.3</ele>
        <time>2020-06-18T15:40:50Z</time>
      </trkpt>
      <trkpt lat="50.12264" lon="1.55379">
        <ele>44.3</ele>
        <time>2020-06-18T15:40:51Z</time>
      </trkpt>
      <trkpt lat="50.12265" lon="1.5538">
        <ele>44.3</ele>
        <time>2020-06-18T15:40:52Z</time>
      </trkpt>
      <trkpt lat="50.12265" lon="1.5538">
        <ele>44.3</ele>
        <time>2020-06-18T15:40:53Z</time>
      </trkpt>
      <trkpt lat="50.12266" lon="1.55381">
        <ele>44.3</ele>
        <time>2020-06-18T15:40:54Z</time>
      </trkpt>
      <trkpt lat="50.12267" lon="1.55382">
        <ele>44.2</ele>
        <time>2020-06-18T15:40:55Z</time>
      </trkpt>
      <trkpt lat="50.12267" lon="1.55382">
        <ele>44.2</ele>
        <time>2020-06-18T15:40:56Z</time>
      </trkpt>
      <trkpt lat="50.12268" lon="1.55383">
        <ele>44.2</ele>
        <time>2020-06-18T15:40:57Z</time>
      </trkpt>
      <trkpt lat="50.12269" lon="1.55383">
        <ele>44.2</ele>
        <time>2020-06-18T15:41:15Z</time>
      </trkpt>
      <trkpt lat="50.1227" lon="1.55384">
        <ele>44.2</ele>
        <time>2020-06-18T15:41:16Z</time>
      </trkpt>
      <trkpt lat="50.12272" lon="1.55387">
        <ele>44.1</ele>
        <time>2020-06-18T15:41:17Z</time>
      </trkpt>
      <trkpt lat="50.12274" lon="1.55391">
        <ele>44</ele>
        <time>2020-06-18T15:41:18Z</time>
      </trkpt>
      <trkpt lat="50.12276" lon="1.55396">
        <ele>43.9</ele>
        <time>2020-06-18T15:41:19Z</time>
      </trkpt>
      <trkpt lat="50.12279" lon="1.55401">
        <ele>43.7</ele>
        <time>2020-06-18T15:41:20Z</time>
      </trkpt>
      <trkpt lat="50.12283" lon="1.55405">
        <ele>43.6</ele>
        <time>2020-06-18T15:41:21Z</time>
      </trkpt>
      <trkpt lat="50.12288" lon="1.55409">
        <ele>43.4</ele>
        <time>2020-06-18T15:41:22Z</time>
      </trkpt>
      <trkpt lat="50.12292" lon="1.55413">
        <ele>43.2</ele>
        <time>2020-06-18T15:41:23Z</time>
      </trkpt>
      <trkpt lat="50.12296" lon="1.55418">
        <ele>43</ele>
        <time>2020-06-18T15:41:24Z</time>
      </trkpt>
      <trkpt lat="50.123" lon="1.55424">
        <ele>42.8</ele>
        <time>2020-06-18T15:41:25Z</time>
      </trkpt>
      <trkpt lat="50.12305" lon="1.55428">
        <ele>42.6</ele>
        <time>2020-06-18T15:41:26Z</time>
      </trkpt>
      <trkpt lat="50.1231" lon="1.55433">
        <ele>42.5</ele>
        <time>2020-06-18T15:41:27Z</time>
      </trkpt>
      <trkpt lat="50.12315" lon="1.55438">
        <ele>42.3</ele>
        <time>2020-06-18T15:41:28Z</time>
      </trkpt>
      <trkpt lat="50.12319" lon="1.55443">
        <ele>42.1</ele>
        <time>2020-06-18T15:41:29Z</time>
      </trkpt>
      <trkpt lat="50.12324" lon="1.55448">
        <ele>42</ele>
        <time>2020-06-18T15:41:30Z</time>
      </trkpt>
      <trkpt lat="50.12328" lon="1.55453">
        <ele>41.9</ele>
        <time>2020-06-18T15:41:31Z</time>
      </trkpt>
      <trkpt lat="50.12333" lon="1.55459">
        <ele>41.8</ele>
        <time>2020-06-18T15:41:32Z</time>
      </trkpt>
      <trkpt lat="50.12338" lon="1.55465">
        <ele>41.7</ele>
        <time>2020-06-18T15:41:33Z</time>
      </trkpt>
      <trkpt lat="50.12343" lon="1.55471">
        <ele>41.6</ele>
        <time>2020-06-18T15:41:34Z</time>
      </trkpt>
      <trkpt lat="50.12349" lon="1.55478">
        <ele>41.4</ele>
        <time>2020-06-18T15:41:35Z</time>
      </trkpt>
      <trkpt lat="50.12354" lon="1.55483">
        <ele>41.3</ele>
        <time>2020-06-18T15:41:36Z</time>
      </trkpt>
      <trkpt lat="50.1236" lon="1.55489">
        <ele>41.1</ele>
        <time>2020-06-18T15:41:37Z</time>
      </trkpt>
      <trkpt lat="50.12365" lon="1.55496">
        <ele>41</ele>
        <time>2020-06-18T15:41:38Z</time>
      </trkpt>
      <trkpt lat="50.12371" lon="1.55502">
        <ele>40.9</ele>
        <time>2020-06-18T15:41:39Z</time>
      </trkpt>
      <trkpt lat="50.12376" lon="1.55509">
        <ele>40.8</ele>
        <time>2020-06-18T15:41:40Z</time>
      </trkpt>
      <trkpt lat="50.12382" lon="1.55516">
        <ele>40.6</ele>
        <time>2020-06-18T15:41:41Z</time>
      </trkpt>
      <trkpt lat="50.12388" lon="1.55522">
        <ele>40.5</ele>
        <time>2020-06-18T15:41:42Z</time>
      </trkpt>
      <trkpt lat="50.12393" lon="1.55529">
        <ele>40.3</ele>
        <time>2020-06-18T15:41:43Z</time>
      </trkpt>
      <trkpt lat="50.12398" lon="1.55537">
        <ele>40.2</ele>
        <time>2020-06-18T15:41:44Z</time>
      </trkpt>
      <trkpt lat="50.12404" lon="1.55544">
        <ele>40.1</ele>
        <time>2020-06-18T15:41:45Z</time>
      </trkpt>
      <trkpt lat="50.12409" lon="1.5555">
        <ele>39.9</ele>
        <time>2020-06-18T15:41:46Z</time>
      </trkpt>
      <trkpt lat="50.12414" lon="1.55557">
        <ele>39.8</ele>
        <time>2020-06-18T15:41:47Z</time>
      </trkpt>
      <trkpt lat="50.1242" lon="1.55563">
        <ele>39.8</ele>
        <time>2020-06-18T15:41:48Z</time>
      </trkpt>
      <trkpt lat="50.12425" lon="1.55569">
        <ele>39.7</ele>
        <time>2020-06-18T15:41:49Z</time>
      </trkpt>
      <trkpt lat="50.1243" lon="1.55575">
        <ele>39.6</ele>
        <time>2020-06-18T15:41:50Z</time>
      </trkpt>
      <trkpt lat="50.12435" lon="1.55581">
        <ele>39.5</ele>
        <time>2020-06-18T15:41:51Z</time>
      </trkpt>
      <trkpt lat="50.1244" lon="1.55587">
        <ele>39.4</ele>
        <time>2020-06-18T15:41:52Z</time>
      </trkpt>
      <trkpt lat="50.12445" lon="1.55593">
        <ele>39.4</ele>
        <time>2020-06-18T15:41:53Z</time>
      </trkpt>
      <trkpt lat="50.12451" lon="1.55599">
        <ele>39.3</ele>
        <time>2020-06-18T15:41:54Z</time>
      </trkpt>
      <trkpt lat="50.12456" lon="1.55604">
        <ele>39.2</ele>
        <time>2020-06-18T15:41:55Z</time>
      </trkpt>
      <trkpt lat="50.12461" lon="1.5561">
        <ele>39.1</ele>
        <time>2020-06-18T15:41:56Z</time>
      </trkpt>
      <trkpt lat="50.12466" lon="1.55616">
        <ele>39</ele>
        <time>2020-06-18T15:41:57Z</time>
      </trkpt>
      <trkpt lat="50.12471" lon="1.55621">
        <ele>39</ele>
        <time>2020-06-18T15:41:58Z</time>
      </trkpt>
      <trkpt lat="50.12476" lon="1.55626">
        <ele>38.9</ele>
        <time>2020-06-18T15:41:59Z</time>
      </trkpt>
      <trkpt lat="50.12482" lon="1.55632">
        <ele>38.8</ele>
        <time>2020-06-18T15:42:00Z</time>
      </trkpt>
      <trkpt lat="50.12488" lon="1.55637">
        <ele>38.7</ele>
        <time>2020-06-18T15:42:01Z</time>
      </trkpt>
      <trkpt lat="50.12493" lon="1.55642">
        <ele>38.6</ele>
        <time>2020-06-18T15:42:02Z</time>
      </trkpt>
      <trkpt lat="50.12499" lon="1.55647">
        <ele>38.5</ele>
        <time>2020-06-18T15:42:03Z</time>
      </trkpt>
      <trkpt lat="50.12504" lon="1.55652">
        <ele>38.4</ele>
        <time>2020-06-18T15:42:04Z</time>
      </trkpt>
      <trkpt lat="50.12509" lon="1.55658">
        <ele>38.3</ele>
        <time>2020-06-18T15:42:05Z</time>
      </trkpt>
      <trkpt lat="50.12514" lon="1.55663">
        <ele>38.2</ele>
        <time>2020-06-18T15:42:06Z</time>
      </trkpt>
      <trkpt lat="50.1252" lon="1.55668">
        <ele>38</ele>
        <time>2020-06-18T15:42:07Z</time>
      </trkpt>
      <trkpt lat="50.12525" lon="1.55673">
        <ele>37.9</ele>
        <time>2020-06-18T15:42:08Z</time>
      </trkpt>
      <trkpt lat="50.1253" lon="1.55678">
        <ele>37.8</ele>
        <time>2020-06-18T15:42:09Z</time>
      </trkpt>
      <trkpt lat="50.12535" lon="1.55684">
        <ele>37.6</ele>
        <time>2020-06-18T15:42:10Z</time>
      </trkpt>
      <trkpt lat="50.1254" lon="1.5569">
        <ele>37.4</ele>
        <time>2020-06-18T15:42:11Z</time>
      </trkpt>
      <trkpt lat="50.12545" lon="1.55696">
        <ele>37.1</ele>
        <time>2020-06-18T15:42:12Z</time>
      </trkpt>
      <trkpt lat="50.1255" lon="1.55702">
        <ele>36.8</ele>
        <time>2020-06-18T15:42:13Z</time>
      </trkpt>
      <trkpt lat="50.12555" lon="1.55707">
        <ele>36.6</ele>
        <time>2020-06-18T15:42:14Z</time>
      </trkpt>
      <trkpt lat="50.1256" lon="1.55714">
        <ele>36.4</ele>
        <time>2020-06-18T15:42:15Z</time>
      </trkpt>
      <trkpt lat="50.12565" lon="1.5572">
        <ele>36.1</ele>
        <time>2020-06-18T15:42:16Z</time>
      </trkpt>
      <trkpt lat="50.1257" lon="1.55727">
        <ele>35.9</ele>
        <time>2020-06-18T15:42:17Z</time>
      </trkpt>
      <trkpt lat="50.12575" lon="1.55733">
        <ele>35.7</ele>
        <time>2020-06-18T15:42:18Z</time>
      </trkpt>
      <trkpt lat="50.1258" lon="1.5574">
        <ele>35.6</ele>
        <time>2020-06-18T15:42:19Z</time>
      </trkpt>
      <trkpt lat="50.12584" lon="1.55748">
        <ele>35.4</ele>
        <time>2020-06-18T15:42:20Z</time>
      </trkpt>
      <trkpt lat="50.12589" lon="1.55755">
        <ele>35.2</ele>
        <time>2020-06-18T15:42:21Z</time>
      </trkpt>
      <trkpt lat="50.12593" lon="1.55763">
        <ele>35</ele>
        <time>2020-06-18T15:42:22Z</time>
      </trkpt>
      <trkpt lat="50.12598" lon="1.5577">
        <ele>34.8</ele>
        <time>2020-06-18T15:42:23Z</time>
      </trkpt>
      <trkpt lat="50.12602" lon="1.55779">
        <ele>34.6</ele>
        <time>2020-06-18T15:42:24Z</time>
      </trkpt>
      <trkpt lat="50.12607" lon="1.55787">
        <ele>34.4</ele>
        <time>2020-06-18T15:42:25Z</time>
      </trkpt>
      <trkpt lat="50.12611" lon="1.55796">
        <ele>34.3</ele>
        <time>2020-06-18T15:42:26Z</time>
      </trkpt>
      <trkpt lat="50.12615" lon="1.55804">
        <ele>34.1</ele>
        <time>2020-06-18T15:42:27Z</time>
      </trkpt>
      <trkpt lat="50.12619" lon="1.55813">
        <ele>33.8</ele>
        <time>2020-06-18T15:42:28Z</time>
      </trkpt>
      <trkpt lat="50.12623" lon="1.55821">
        <ele>33.6</ele>
        <time>2020-06-18T15:42:29Z</time>
      </trkpt>
      <trkpt lat="50.12627" lon="1.5583">
        <ele>33.4</ele>
        <time>2020-06-18T15:42:30Z</time>
      </trkpt>
      <trkpt lat="50.12632" lon="1.55839">
        <ele>33.3</ele>
        <time>2020-06-18T15:42:31Z</time>
      </trkpt>
      <trkpt lat="50.12635" lon="1.55848">
        <ele>33.1</ele>
        <time>2020-06-18T15:42:32Z</time>
      </trkpt>
      <trkpt lat="50.1264" lon="1.55857">
        <ele>33</ele>
        <time>2020-06-18T15:42:33Z</time>
      </trkpt>
      <trkpt lat="50.12644" lon="1.55866">
        <ele>32.8</ele>
        <time>2020-06-18T15:42:34Z</time>
      </trkpt>
      <trkpt lat="50.12648" lon="1.55874">
        <ele>32.6</ele>
        <time>2020-06-18T15:42:35Z</time>
      </trkpt>
      <trkpt lat="50.12652" lon="1.55883">
        <ele>32.5</ele>
        <time>2020-06-18T15:42:36Z</time>
      </trkpt>
      <trkpt lat="50.12657" lon="1.55892">
        <ele>32.3</ele>
        <time>2020-06-18T15:42:37Z</time>
      </trkpt>
      <trkpt lat="50.12661" lon="1.55899">
        <ele>32.2</ele>
        <time>2020-06-18T15:42:38Z</time>
      </trkpt>
      <trkpt lat="50.12665" lon="1.55909">
        <ele>32.1</ele>
        <time>2020-06-18T15:42:39Z</time>
      </trkpt>
      <trkpt lat="50.12669" lon="1.55918">
        <ele>31.9</ele>
        <time>2020-06-18T15:42:40Z</time>
      </trkpt>
      <trkpt lat="50.12673" lon="1.55927">
        <ele>31.8</ele>
        <time>2020-06-18T15:42:41Z</time>
      </trkpt>
      <trkpt lat="50.12677" lon="1.55936">
        <ele>31.7</ele>
        <time>2020-06-18T15:42:42Z</time>
      </trkpt>
      <trkpt lat="50.1268" lon="1.55946">
        <ele>31.5</ele>
        <time>2020-06-18T15:42:43Z</time>
      </trkpt>
      <trkpt lat="50.12684" lon="1.55955">
        <ele>31.4</ele>
        <time>2020-06-18T15:42:44Z</time>
      </trkpt>
      <trkpt lat="50.12689" lon="1.55964">
        <ele>31.3</ele>
        <time>2020-06-18T15:42:45Z</time>
      </trkpt>
      <trkpt lat="50.12692" lon="1.55973">
        <ele>31.2</ele>
        <time>2020-06-18T15:42:46Z</time>
      </trkpt>
      <trkpt lat="50.12696" lon="1.55982">
        <ele>31</ele>
        <time>2020-06-18T15:42:47Z</time>
      </trkpt>
      <trkpt lat="50.127" lon="1.55991">
        <ele>30.9</ele>
        <time>2020-06-18T15:42:48Z</time>
      </trkpt>
      <trkpt lat="50.12703" lon="1.56001">
        <ele>30.8</ele>
        <time>2020-06-18T15:42:49Z</time>
      </trkpt>
      <trkpt lat="50.12706" lon="1.5601">
        <ele>30.7</ele>
        <time>2020-06-18T15:42:50Z</time>
      </trkpt>
      <trkpt lat="50.1271" lon="1.56019">
        <ele>30.6</ele>
        <time>2020-06-18T15:42:51Z</time>
      </trkpt>
      <trkpt lat="50.12712" lon="1.56029">
        <ele>30.5</ele>
        <time>2020-06-18T15:42:52Z</time>
      </trkpt>
      <trkpt lat="50.12714" lon="1.56039">
        <ele>30.5</ele>
        <time>2020-06-18T15:42:53Z</time>
      </trkpt>
      <trkpt lat="50.12716" lon="1.56049">
        <ele>30.4</ele>
        <time>2020-06-18T15:42:54Z</time>
      </trkpt>
      <trkpt lat="50.12716" lon="1.56059">
        <ele>30.4</ele>
        <time>2020-06-18T15:42:55Z</time>
      </trkpt>
      <trkpt lat="50.12717" lon="1.56069">
        <ele>30.2</ele>
        <time>2020-06-18T15:42:56Z</time>
      </trkpt>
      <trkpt lat="50.12718" lon="1.56079">
        <ele>30.3</ele>
        <time>2020-06-18T15:42:57Z</time>
      </trkpt>
      <trkpt lat="50.12717" lon="1.56089">
        <ele>30.3</ele>
        <time>2020-06-18T15:42:58Z</time>
      </trkpt>
      <trkpt lat="50.12717" lon="1.56099">
        <ele>30.3</ele>
        <time>2020-06-18T15:42:59Z</time>
      </trkpt>
      <trkpt lat="50.12717" lon="1.56109">
        <ele>30.3</ele>
        <time>2020-06-18T15:43:00Z</time>
      </trkpt>
      <trkpt lat="50.12717" lon="1.56118">
        <ele>30.2</ele>
        <time>2020-06-18T15:43:01Z</time>
      </trkpt>
      <trkpt lat="50.12716" lon="1.56128">
        <ele>30.2</ele>
        <time>2020-06-18T15:43:02Z</time>
      </trkpt>
      <trkpt lat="50.12716" lon="1.56137">
        <ele>30.2</ele>
        <time>2020-06-18T15:43:03Z</time>
      </trkpt>
      <trkpt lat="50.12715" lon="1.56146">
        <ele>30.2</ele>
        <time>2020-06-18T15:43:04Z</time>
      </trkpt>
      <trkpt lat="50.12715" lon="1.56156">
        <ele>30.2</ele>
        <time>2020-06-18T15:43:05Z</time>
      </trkpt>
      <trkpt lat="50.12715" lon="1.56165">
        <ele>30.2</ele>
        <time>2020-06-18T15:43:06Z</time>
      </trkpt>
      <trkpt lat="50.12715" lon="1.56174">
        <ele>30.2</ele>
        <time>2020-06-18T15:43:07Z</time>
      </trkpt>
      <trkpt lat="50.12715" lon="1.56183">
        <ele>30.2</ele>
        <time>2020-06-18T15:43:08Z</time>
      </trkpt>
      <trkpt lat="50.12716" lon="1.56191">
        <ele>30.2</ele>
        <time>2020-06-18T15:43:09Z</time>
      </trkpt>
      <trkpt lat="50.12718" lon="1.56199">
        <ele>30.2</ele>
        <time>2020-06-18T15:43:10Z</time>
      </trkpt>
      <trkpt lat="50.12721" lon="1.56206">
        <ele>30.1</ele>
        <time>2020-06-18T15:43:11Z</time>
      </trkpt>
      <trkpt lat="50.12725" lon="1.56212">
        <ele>30.1</ele>
        <time>2020-06-18T15:43:12Z</time>
      </trkpt>
      <trkpt lat="50.1273" lon="1.56218">
        <ele>30.1</ele>
        <time>2020-06-18T15:43:13Z</time>
      </trkpt>
      <trkpt lat="50.12736" lon="1.56223">
        <ele>30.2</ele>
        <time>2020-06-18T15:43:14Z</time>
      </trkpt>
      <trkpt lat="50.12741" lon="1.56228">
        <ele>30.2</ele>
        <time>2020-06-18T15:43:15Z</time>
      </trkpt>
      <trkpt lat="50.12746" lon="1.56233">
        <ele>30.3</ele>
        <time>2020-06-18T15:43:16Z</time>
      </trkpt>
      <trkpt lat="50.12752" lon="1.56239">
        <ele>30.4</ele>
        <time>2020-06-18T15:43:17Z</time>
      </trkpt>
      <trkpt lat="50.12757" lon="1.56244">
        <ele>30.5</ele>
        <time>2020-06-18T15:43:18Z</time>
      </trkpt>
      <trkpt lat="50.12763" lon="1.56249">
        <ele>30.6</ele>
        <time>2020-06-18T15:43:19Z</time>
      </trkpt>
      <trkpt lat="50.12768" lon="1.56256">
        <ele>30.7</ele>
        <time>2020-06-18T15:43:20Z</time>
      </trkpt>
      <trkpt lat="50.12773" lon="1.56261">
        <ele>30.9</ele>
        <time>2020-06-18T15:43:21Z</time>
      </trkpt>
      <trkpt lat="50.12777" lon="1.56268">
        <ele>31</ele>
        <time>2020-06-18T15:43:22Z</time>
      </trkpt>
      <trkpt lat="50.12783" lon="1.56273">
        <ele>31.1</ele>
        <time>2020-06-18T15:43:23Z</time>
      </trkpt>
      <trkpt lat="50.12788" lon="1.56279">
        <ele>31.2</ele>
        <time>2020-06-18T15:43:24Z</time>
      </trkpt>
      <trkpt lat="50.12793" lon="1.56286">
        <ele>31.4</ele>
        <time>2020-06-18T15:43:25Z</time>
      </trkpt>
      <trkpt lat="50.12798" lon="1.56293">
        <ele>31.5</ele>
        <time>2020-06-18T15:43:26Z</time>
      </trkpt>
      <trkpt lat="50.12802" lon="1.563">
        <ele>31.7</ele>
        <time>2020-06-18T15:43:27Z</time>
      </trkpt>
      <trkpt lat="50.12807" lon="1.56307">
        <ele>31.9</ele>
        <time>2020-06-18T15:43:28Z</time>
      </trkpt>
      <trkpt lat="50.12811" lon="1.56314">
        <ele>32.1</ele>
        <time>2020-06-18T15:43:29Z</time>
      </trkpt>
      <trkpt lat="50.12815" lon="1.56321">
        <ele>32.3</ele>
        <time>2020-06-18T15:43:30Z</time>
      </trkpt>
      <trkpt lat="50.1282" lon="1.56328">
        <ele>32.6</ele>
        <time>2020-06-18T15:43:31Z</time>
      </trkpt>
      <trkpt lat="50.12825" lon="1.56333">
        <ele>32.8</ele>
        <time>2020-06-18T15:43:32Z</time>
      </trkpt>
      <trkpt lat="50.12829" lon="1.56339">
        <ele>33.1</ele>
        <time>2020-06-18T15:43:33Z</time>
      </trkpt>
      <trkpt lat="50.12834" lon="1.56345">
        <ele>33.3</ele>
        <time>2020-06-18T15:43:34Z</time>
      </trkpt>
      <trkpt lat="50.12838" lon="1.5635">
        <ele>33.6</ele>
        <time>2020-06-18T15:43:35Z</time>
      </trkpt>
      <trkpt lat="50.12842" lon="1.56355">
        <ele>33.8</ele>
        <time>2020-06-18T15:43:36Z</time>
      </trkpt>
      <trkpt lat="50.12845" lon="1.5636">
        <ele>34.1</ele>
        <time>2020-06-18T15:43:37Z</time>
      </trkpt>
      <trkpt lat="50.12849" lon="1.56364">
        <ele>34.3</ele>
        <time>2020-06-18T15:43:38Z</time>
      </trkpt>
      <trkpt lat="50.12852" lon="1.56369">
        <ele>34.5</ele>
        <time>2020-06-18T15:43:39Z</time>
      </trkpt>
      <trkpt lat="50.12856" lon="1.56373">
        <ele>34.8</ele>
        <time>2020-06-18T15:43:40Z</time>
      </trkpt>
      <trkpt lat="50.12861" lon="1.56381">
        <ele>35.2</ele>
        <time>2020-06-18T15:43:41Z</time>
      </trkpt>
      <trkpt lat="50.12864" lon="1.56385">
        <ele>35.4</ele>
        <time>2020-06-18T15:43:42Z</time>
      </trkpt>
      <trkpt lat="50.12867" lon="1.56389">
        <ele>35.6</ele>
        <time>2020-06-18T15:43:43Z</time>
      </trkpt>
      <trkpt lat="50.12871" lon="1.56394">
        <ele>35.9</ele>
        <time>2020-06-18T15:43:44Z</time>
      </trkpt>
      <trkpt lat="50.12874" lon="1.56398">
        <ele>36.1</ele>
        <time>2020-06-18T15:43:45Z</time>
      </trkpt>
      <trkpt lat="50.12876" lon="1.56402">
        <ele>36.3</ele>
        <time>2020-06-18T15:43:46Z</time>
      </trkpt>
      <trkpt lat="50.1288" lon="1.56407">
        <ele>36.6</ele>
        <time>2020-06-18T15:43:47Z</time>
      </trkpt>
      <trkpt lat="50.12884" lon="1.56412">
        <ele>36.9</ele>
        <time>2020-06-18T15:43:48Z</time>
      </trkpt>
      <trkpt lat="50.12887" lon="1.56416">
        <ele>37.1</ele>
        <time>2020-06-18T15:43:49Z</time>
      </trkpt>
      <trkpt lat="50.12891" lon="1.5642">
        <ele>37.5</ele>
        <time>2020-06-18T15:43:50Z</time>
      </trkpt>
      <trkpt lat="50.12895" lon="1.56424">
        <ele>37.8</ele>
        <time>2020-06-18T15:43:51Z</time>
      </trkpt>
      <trkpt lat="50.12899" lon="1.56428">
        <ele>38.1</ele>
        <time>2020-06-18T15:43:52Z</time>
      </trkpt>
      <trkpt lat="50.12902" lon="1.56431">
        <ele>38.3</ele>
        <time>2020-06-18T15:43:53Z</time>
      </trkpt>
      <trkpt lat="50.12904" lon="1.56434">
        <ele>38.5</ele>
        <time>2020-06-18T15:43:54Z</time>
      </trkpt>
      <trkpt lat="50.12906" lon="1.56438">
        <ele>38.6</ele>
        <time>2020-06-18T15:43:55Z</time>
      </trkpt>
      <trkpt lat="50.12907" lon="1.56438">
        <ele>38.7</ele>
        <time>2020-06-18T15:43:56Z</time>
      </trkpt>
      <trkpt lat="50.1291" lon="1.5644">
        <ele>39.1</ele>
        <time>2020-06-18T15:43:57Z</time>
      </trkpt>
      <trkpt lat="50.1291" lon="1.56441">
        <ele>39.2</ele>
        <time>2020-06-18T15:43:58Z</time>
      </trkpt>
      <trkpt lat="50.12911" lon="1.56441">
        <ele>39.3</ele>
        <time>2020-06-18T15:43:59Z</time>
      </trkpt>
      <trkpt lat="50.12912" lon="1.56444">
        <ele>39.4</ele>
        <time>2020-06-18T15:44:00Z</time>
      </trkpt>
      <trkpt lat="50.12913" lon="1.56446">
        <ele>39.6</ele>
        <time>2020-06-18T15:44:01Z</time>
      </trkpt>
      <trkpt lat="50.12913" lon="1.56449">
        <ele>39.7</ele>
        <time>2020-06-18T15:44:02Z</time>
      </trkpt>
      <trkpt lat="50.12914" lon="1.56454">
        <ele>40</ele>
        <time>2020-06-18T15:44:03Z</time>
      </trkpt>
      <trkpt lat="50.12915" lon="1.56456">
        <ele>40.1</ele>
        <time>2020-06-18T15:44:04Z</time>
      </trkpt>
      <trkpt lat="50.12917" lon="1.56461">
        <ele>40.4</ele>
        <time>2020-06-18T15:44:05Z</time>
      </trkpt>
      <trkpt lat="50.12919" lon="1.56465">
        <ele>40.6</ele>
        <time>2020-06-18T15:44:06Z</time>
      </trkpt>
      <trkpt lat="50.1292" lon="1.5647">
        <ele>40.9</ele>
        <time>2020-06-18T15:44:07Z</time>
      </trkpt>
      <trkpt lat="50.12921" lon="1.56475">
        <ele>41.1</ele>
        <time>2020-06-18T15:44:08Z</time>
      </trkpt>
      <trkpt lat="50.12924" lon="1.5648">
        <ele>41.4</ele>
        <time>2020-06-18T15:44:09Z</time>
      </trkpt>
      <trkpt lat="50.12926" lon="1.56486">
        <ele>41.8</ele>
        <time>2020-06-18T15:44:10Z</time>
      </trkpt>
      <trkpt lat="50.12927" lon="1.5649">
        <ele>42</ele>
        <time>2020-06-18T15:44:11Z</time>
      </trkpt>
      <trkpt lat="50.12929" lon="1.56494">
        <ele>42.3</ele>
        <time>2020-06-18T15:44:12Z</time>
      </trkpt>
      <trkpt lat="50.12931" lon="1.56497">
        <ele>42.5</ele>
        <time>2020-06-18T15:44:13Z</time>
      </trkpt>
      <trkpt lat="50.12933" lon="1.56502">
        <ele>42.8</ele>
        <time>2020-06-18T15:44:14Z</time>
      </trkpt>
      <trkpt lat="50.12934" lon="1.56507">
        <ele>43.1</ele>
        <time>2020-06-18T15:44:15Z</time>
      </trkpt>
      <trkpt lat="50.12935" lon="1.56512">
        <ele>43.3</ele>
        <time>2020-06-18T15:44:16Z</time>
      </trkpt>
      <trkpt lat="50.12936" lon="1.56517">
        <ele>43.6</ele>
        <time>2020-06-18T15:44:17Z</time>
      </trkpt>
      <trkpt lat="50.12939" lon="1.56522">
        <ele>43.9</ele>
        <time>2020-06-18T15:44:18Z</time>
      </trkpt>
      <trkpt lat="50.1294" lon="1.56525">
        <ele>44</ele>
        <time>2020-06-18T15:44:19Z</time>
      </trkpt>
      <trkpt lat="50.12941" lon="1.56529">
        <ele>44.3</ele>
        <time>2020-06-18T15:44:20Z</time>
      </trkpt>
      <trkpt lat="50.12943" lon="1.56532">
        <ele>44.5</ele>
        <time>2020-06-18T15:44:21Z</time>
      </trkpt>
      <trkpt lat="50.12945" lon="1.56537">
        <ele>44.8</ele>
        <time>2020-06-18T15:44:22Z</time>
      </trkpt>
      <trkpt lat="50.12948" lon="1.56542">
        <ele>45.1</ele>
        <time>2020-06-18T15:44:23Z</time>
      </trkpt>
      <trkpt lat="50.12948" lon="1.56546">
        <ele>45.3</ele>
        <time>2020-06-18T15:44:24Z</time>
      </trkpt>
      <trkpt lat="50.12948" lon="1.56551">
        <ele>45.5</ele>
        <time>2020-06-18T15:44:25Z</time>
      </trkpt>
      <trkpt lat="50.12949" lon="1.56554">
        <ele>45.6</ele>
        <time>2020-06-18T15:44:26Z</time>
      </trkpt>
      <trkpt lat="50.1295" lon="1.56561">
        <ele>45.9</ele>
        <time>2020-06-18T15:44:27Z</time>
      </trkpt>
      <trkpt lat="50.1295" lon="1.56564">
        <ele>46</ele>
        <time>2020-06-18T15:44:28Z</time>
      </trkpt>
      <trkpt lat="50.12951" lon="1.56568">
        <ele>46.1</ele>
        <time>2020-06-18T15:44:29Z</time>
      </trkpt>
      <trkpt lat="50.12952" lon="1.56574">
        <ele>46.4</ele>
        <time>2020-06-18T15:44:30Z</time>
      </trkpt>
      <trkpt lat="50.12952" lon="1.56578">
        <ele>46.6</ele>
        <time>2020-06-18T15:44:31Z</time>
      </trkpt>
      <trkpt lat="50.12952" lon="1.56579">
        <ele>46.7</ele>
        <time>2020-06-18T15:44:32Z</time>
      </trkpt>
      <trkpt lat="50.12955" lon="1.56583">
        <ele>47</ele>
        <time>2020-06-18T15:44:33Z</time>
      </trkpt>
      <trkpt lat="50.12956" lon="1.56585">
        <ele>47.1</ele>
        <time>2020-06-18T15:44:34Z</time>
      </trkpt>
      <trkpt lat="50.12958" lon="1.56588">
        <ele>47.3</ele>
        <time>2020-06-18T15:44:35Z</time>
      </trkpt>
      <trkpt lat="50.1296" lon="1.56592">
        <ele>47.4</ele>
        <time>2020-06-18T15:44:36Z</time>
      </trkpt>
      <trkpt lat="50.12963" lon="1.56598">
        <ele>47.7</ele>
        <time>2020-06-18T15:44:37Z</time>
      </trkpt>
      <trkpt lat="50.12964" lon="1.566">
        <ele>47.8</ele>
        <time>2020-06-18T15:44:38Z</time>
      </trkpt>
      <trkpt lat="50.12966" lon="1.56605">
        <ele>47.9</ele>
        <time>2020-06-18T15:44:39Z</time>
      </trkpt>
      <trkpt lat="50.12968" lon="1.56609">
        <ele>48.1</ele>
        <time>2020-06-18T15:44:40Z</time>
      </trkpt>
      <trkpt lat="50.12971" lon="1.56614">
        <ele>48.2</ele>
        <time>2020-06-18T15:44:41Z</time>
      </trkpt>
      <trkpt lat="50.12973" lon="1.56618">
        <ele>48.3</ele>
        <time>2020-06-18T15:44:42Z</time>
      </trkpt>
      <trkpt lat="50.12974" lon="1.56622">
        <ele>48.5</ele>
        <time>2020-06-18T15:44:43Z</time>
      </trkpt>
      <trkpt lat="50.12977" lon="1.56628">
        <ele>48.6</ele>
        <time>2020-06-18T15:44:44Z</time>
      </trkpt>
      <trkpt lat="50.12979" lon="1.56634">
        <ele>48.8</ele>
        <time>2020-06-18T15:44:45Z</time>
      </trkpt>
      <trkpt lat="50.12981" lon="1.56638">
        <ele>48.9</ele>
        <time>2020-06-18T15:44:46Z</time>
      </trkpt>
      <trkpt lat="50.12984" lon="1.56643">
        <ele>49</ele>
        <time>2020-06-18T15:44:47Z</time>
      </trkpt>
      <trkpt lat="50.12987" lon="1.56648">
        <ele>49.1</ele>
        <time>2020-06-18T15:44:48Z</time>
      </trkpt>
      <trkpt lat="50.1299" lon="1.56654">
        <ele>49.2</ele>
        <time>2020-06-18T15:44:49Z</time>
      </trkpt>
      <trkpt lat="50.12994" lon="1.5666">
        <ele>49.3</ele>
        <time>2020-06-18T15:44:50Z</time>
      </trkpt>
      <trkpt lat="50.12996" lon="1.56664">
        <ele>49.4</ele>
        <time>2020-06-18T15:44:51Z</time>
      </trkpt>
      <trkpt lat="50.12999" lon="1.5667">
        <ele>49.5</ele>
        <time>2020-06-18T15:44:52Z</time>
      </trkpt>
      <trkpt lat="50.13002" lon="1.56676">
        <ele>49.5</ele>
        <time>2020-06-18T15:44:53Z</time>
      </trkpt>
      <trkpt lat="50.13004" lon="1.56681">
        <ele>49.6</ele>
        <time>2020-06-18T15:44:54Z</time>
      </trkpt>
      <trkpt lat="50.13007" lon="1.56686">
        <ele>49.7</ele>
        <time>2020-06-18T15:44:55Z</time>
      </trkpt>
      <trkpt lat="50.13009" lon="1.5669">
        <ele>49.7</ele>
        <time>2020-06-18T15:44:56Z</time>
      </trkpt>
      <trkpt lat="50.13012" lon="1.56694">
        <ele>49.8</ele>
        <time>2020-06-18T15:44:57Z</time>
      </trkpt>
      <trkpt lat="50.13014" lon="1.56699">
        <ele>49.8</ele>
        <time>2020-06-18T15:44:58Z</time>
      </trkpt>
      <trkpt lat="50.13018" lon="1.56704">
        <ele>49.9</ele>
        <time>2020-06-18T15:44:59Z</time>
      </trkpt>
      <trkpt lat="50.13021" lon="1.5671">
        <ele>49.9</ele>
        <time>2020-06-18T15:45:00Z</time>
      </trkpt>
      <trkpt lat="50.13023" lon="1.56714">
        <ele>50</ele>
        <time>2020-06-18T15:45:01Z</time>
      </trkpt>
      <trkpt lat="50.13027" lon="1.5672">
        <ele>50</ele>
        <time>2020-06-18T15:45:02Z</time>
      </trkpt>
      <trkpt lat="50.13031" lon="1.56725">
        <ele>50.1</ele>
        <time>2020-06-18T15:45:03Z</time>
      </trkpt>
      <trkpt lat="50.13034" lon="1.56729">
        <ele>50.1</ele>
        <time>2020-06-18T15:45:04Z</time>
      </trkpt>
      <trkpt lat="50.13038" lon="1.56734">
        <ele>50.1</ele>
        <time>2020-06-18T15:45:05Z</time>
      </trkpt>
      <trkpt lat="50.13041" lon="1.56738">
        <ele>50.1</ele>
        <time>2020-06-18T15:45:06Z</time>
      </trkpt>
      <trkpt lat="50.13046" lon="1.56745">
        <ele>50.2</ele>
        <time>2020-06-18T15:45:07Z</time>
      </trkpt>
      <trkpt lat="50.1305" lon="1.5675">
        <ele>50.2</ele>
        <time>2020-06-18T15:45:08Z</time>
      </trkpt>
      <trkpt lat="50.13054" lon="1.56753">
        <ele>50.1</ele>
        <time>2020-06-18T15:45:09Z</time>
      </trkpt>
      <trkpt lat="50.13057" lon="1.56758">
        <ele>50.1</ele>
        <time>2020-06-18T15:45:10Z</time>
      </trkpt>
      <trkpt lat="50.13062" lon="1.56765">
        <ele>50.1</ele>
        <time>2020-06-18T15:45:11Z</time>
      </trkpt>
      <trkpt lat="50.13066" lon="1.56771">
        <ele>50.1</ele>
        <time>2020-06-18T15:45:12Z</time>
      </trkpt>
      <trkpt lat="50.13071" lon="1.56779">
        <ele>50.1</ele>
        <time>2020-06-18T15:45:13Z</time>
      </trkpt>
      <trkpt lat="50.13076" lon="1.56785">
        <ele>50</ele>
        <time>2020-06-18T15:45:14Z</time>
      </trkpt>
      <trkpt lat="50.13079" lon="1.56791">
        <ele>50</ele>
        <time>2020-06-18T15:45:15Z</time>
      </trkpt>
      <trkpt lat="50.13083" lon="1.56795">
        <ele>50</ele>
        <time>2020-06-18T15:45:16Z</time>
      </trkpt>
      <trkpt lat="50.13087" lon="1.56799">
        <ele>50</ele>
        <time>2020-06-18T15:45:17Z</time>
      </trkpt>
      <trkpt lat="50.13091" lon="1.56803">
        <ele>49.9</ele>
        <time>2020-06-18T15:45:18Z</time>
      </trkpt>
      <trkpt lat="50.13096" lon="1.56808">
        <ele>49.9</ele>
        <time>2020-06-18T15:45:19Z</time>
      </trkpt>
      <trkpt lat="50.13102" lon="1.5681">
        <ele>49.9</ele>
        <time>2020-06-18T15:45:20Z</time>
      </trkpt>
      <trkpt lat="50.13107" lon="1.56812">
        <ele>49.9</ele>
        <time>2020-06-18T15:45:21Z</time>
      </trkpt>
      <trkpt lat="50.13113" lon="1.56815">
        <ele>49.8</ele>
        <time>2020-06-18T15:45:22Z</time>
      </trkpt>
      <trkpt lat="50.13119" lon="1.56817">
        <ele>49.8</ele>
        <time>2020-06-18T15:45:23Z</time>
      </trkpt>
      <trkpt lat="50.13123" lon="1.56819">
        <ele>49.8</ele>
        <time>2020-06-18T15:45:24Z</time>
      </trkpt>
      <trkpt lat="50.1313" lon="1.56822">
        <ele>49.7</ele>
        <time>2020-06-18T15:45:25Z</time>
      </trkpt>
      <trkpt lat="50.13136" lon="1.56825">
        <ele>49.6</ele>
        <time>2020-06-18T15:45:26Z</time>
      </trkpt>
      <trkpt lat="50.13143" lon="1.56827">
        <ele>49.6</ele>
        <time>2020-06-18T15:45:27Z</time>
      </trkpt>
      <trkpt lat="50.13149" lon="1.56828">
        <ele>49.5</ele>
        <time>2020-06-18T15:45:28Z</time>
      </trkpt>
      <trkpt lat="50.13155" lon="1.56831">
        <ele>49.5</ele>
        <time>2020-06-18T15:45:29Z</time>
      </trkpt>
      <trkpt lat="50.13162" lon="1.56832">
        <ele>49.4</ele>
        <time>2020-06-18T15:45:30Z</time>
      </trkpt>
      <trkpt lat="50.13169" lon="1.56833">
        <ele>49.3</ele>
        <time>2020-06-18T15:45:31Z</time>
      </trkpt>
      <trkpt lat="50.13175" lon="1.56833">
        <ele>49.2</ele>
        <time>2020-06-18T15:45:32Z</time>
      </trkpt>
      <trkpt lat="50.13182" lon="1.56833">
        <ele>49.1</ele>
        <time>2020-06-18T15:45:33Z</time>
      </trkpt>
      <trkpt lat="50.13189" lon="1.56833">
        <ele>49.1</ele>
        <time>2020-06-18T15:45:34Z</time>
      </trkpt>
      <trkpt lat="50.13195" lon="1.56832">
        <ele>49</ele>
        <time>2020-06-18T15:45:35Z</time>
      </trkpt>
      <trkpt lat="50.13201" lon="1.56832">
        <ele>48.9</ele>
        <time>2020-06-18T15:45:36Z</time>
      </trkpt>
      <trkpt lat="50.13207" lon="1.56832">
        <ele>48.9</ele>
        <time>2020-06-18T15:45:37Z</time>
      </trkpt>
      <trkpt lat="50.13213" lon="1.56834">
        <ele>48.8</ele>
        <time>2020-06-18T15:45:38Z</time>
      </trkpt>
      <trkpt lat="50.13218" lon="1.56835">
        <ele>48.8</ele>
        <time>2020-06-18T15:45:39Z</time>
      </trkpt>
      <trkpt lat="50.13223" lon="1.56835">
        <ele>48.7</ele>
        <time>2020-06-18T15:45:40Z</time>
      </trkpt>
      <trkpt lat="50.13228" lon="1.56837">
        <ele>48.7</ele>
        <time>2020-06-18T15:45:41Z</time>
      </trkpt>
      <trkpt lat="50.13234" lon="1.56839">
        <ele>48.6</ele>
        <time>2020-06-18T15:45:42Z</time>
      </trkpt>
      <trkpt lat="50.1324" lon="1.56842">
        <ele>48.6</ele>
        <time>2020-06-18T15:45:43Z</time>
      </trkpt>
      <trkpt lat="50.13245" lon="1.56844">
        <ele>48.5</ele>
        <time>2020-06-18T15:45:44Z</time>
      </trkpt>
      <trkpt lat="50.1325" lon="1.56848">
        <ele>48.5</ele>
        <time>2020-06-18T15:45:45Z</time>
      </trkpt>
      <trkpt lat="50.13255" lon="1.56854">
        <ele>48.4</ele>
        <time>2020-06-18T15:45:46Z</time>
      </trkpt>
      <trkpt lat="50.13259" lon="1.56859">
        <ele>48.4</ele>
        <time>2020-06-18T15:45:47Z</time>
      </trkpt>
      <trkpt lat="50.13263" lon="1.56863">
        <ele>48.3</ele>
        <time>2020-06-18T15:45:48Z</time>
      </trkpt>
      <trkpt lat="50.13267" lon="1.56869">
        <ele>48.2</ele>
        <time>2020-06-18T15:45:49Z</time>
      </trkpt>
      <trkpt lat="50.13271" lon="1.56873">
        <ele>48.1</ele>
        <time>2020-06-18T15:45:50Z</time>
      </trkpt>
      <trkpt lat="50.13276" lon="1.56879">
        <ele>48.1</ele>
        <time>2020-06-18T15:45:51Z</time>
      </trkpt>
      <trkpt lat="50.1328" lon="1.56884">
        <ele>48</ele>
        <time>2020-06-18T15:45:52Z</time>
      </trkpt>
      <trkpt lat="50.13283" lon="1.56892">
        <ele>48</ele>
        <time>2020-06-18T15:45:53Z</time>
      </trkpt>
      <trkpt lat="50.13286" lon="1.56899">
        <ele>48</ele>
        <time>2020-06-18T15:45:54Z</time>
      </trkpt>
      <trkpt lat="50.13289" lon="1.56907">
        <ele>47.9</ele>
        <time>2020-06-18T15:45:55Z</time>
      </trkpt>
      <trkpt lat="50.13293" lon="1.56915">
        <ele>47.9</ele>
        <time>2020-06-18T15:45:56Z</time>
      </trkpt>
      <trkpt lat="50.13297" lon="1.56923">
        <ele>47.8</ele>
        <time>2020-06-18T15:45:57Z</time>
      </trkpt>
      <trkpt lat="50.13301" lon="1.56932">
        <ele>47.8</ele>
        <time>2020-06-18T15:45:58Z</time>
      </trkpt>
      <trkpt lat="50.13304" lon="1.56939">
        <ele>47.8</ele>
        <time>2020-06-18T15:45:59Z</time>
      </trkpt>
      <trkpt lat="50.13309" lon="1.56947">
        <ele>47.7</ele>
        <time>2020-06-18T15:46:00Z</time>
      </trkpt>
      <trkpt lat="50.13313" lon="1.56954">
        <ele>47.7</ele>
        <time>2020-06-18T15:46:01Z</time>
      </trkpt>
      <trkpt lat="50.13318" lon="1.56961">
        <ele>47.7</ele>
        <time>2020-06-18T15:46:02Z</time>
      </trkpt>
      <trkpt lat="50.13322" lon="1.56968">
        <ele>47.6</ele>
        <time>2020-06-18T15:46:03Z</time>
      </trkpt>
      <trkpt lat="50.13326" lon="1.56975">
        <ele>47.6</ele>
        <time>2020-06-18T15:46:04Z</time>
      </trkpt>
      <trkpt lat="50.1333" lon="1.56983">
        <ele>47.6</ele>
        <time>2020-06-18T15:46:05Z</time>
      </trkpt>
      <trkpt lat="50.13334" lon="1.56992">
        <ele>47.6</ele>
        <time>2020-06-18T15:46:06Z</time>
      </trkpt>
      <trkpt lat="50.13338" lon="1.56999">
        <ele>47.5</ele>
        <time>2020-06-18T15:46:07Z</time>
      </trkpt>
      <trkpt lat="50.13342" lon="1.57007">
        <ele>47.5</ele>
        <time>2020-06-18T15:46:08Z</time>
      </trkpt>
      <trkpt lat="50.13347" lon="1.57014">
        <ele>47.4</ele>
        <time>2020-06-18T15:46:09Z</time>
      </trkpt>
      <trkpt lat="50.13351" lon="1.57022">
        <ele>47.4</ele>
        <time>2020-06-18T15:46:10Z</time>
      </trkpt>
      <trkpt lat="50.13355" lon="1.5703">
        <ele>47.3</ele>
        <time>2020-06-18T15:46:11Z</time>
      </trkpt>
      <trkpt lat="50.13359" lon="1.57037">
        <ele>47.3</ele>
        <time>2020-06-18T15:46:12Z</time>
      </trkpt>
      <trkpt lat="50.13363" lon="1.57043">
        <ele>47.2</ele>
        <time>2020-06-18T15:46:13Z</time>
      </trkpt>
      <trkpt lat="50.13367" lon="1.5705">
        <ele>47.2</ele>
        <time>2020-06-18T15:46:14Z</time>
      </trkpt>
      <trkpt lat="50.1337" lon="1.57055">
        <ele>47.1</ele>
        <time>2020-06-18T15:46:15Z</time>
      </trkpt>
      <trkpt lat="50.13374" lon="1.57061">
        <ele>47.1</ele>
        <time>2020-06-18T15:46:16Z</time>
      </trkpt>
      <trkpt lat="50.13379" lon="1.57068">
        <ele>47</ele>
        <time>2020-06-18T15:46:17Z</time>
      </trkpt>
      <trkpt lat="50.13383" lon="1.57075">
        <ele>47</ele>
        <time>2020-06-18T15:46:18Z</time>
      </trkpt>
      <trkpt lat="50.13388" lon="1.57082">
        <ele>46.9</ele>
        <time>2020-06-18T15:46:19Z</time>
      </trkpt>
      <trkpt lat="50.13392" lon="1.57088">
        <ele>46.9</ele>
        <time>2020-06-18T15:46:20Z</time>
      </trkpt>
      <trkpt lat="50.13397" lon="1.57094">
        <ele>46.8</ele>
        <time>2020-06-18T15:46:21Z</time>
      </trkpt>
      <trkpt lat="50.13401" lon="1.57099">
        <ele>46.7</ele>
        <time>2020-06-18T15:46:22Z</time>
      </trkpt>
      <trkpt lat="50.13406" lon="1.57105">
        <ele>46.7</ele>
        <time>2020-06-18T15:46:23Z</time>
      </trkpt>
      <trkpt lat="50.13412" lon="1.57111">
        <ele>46.6</ele>
        <time>2020-06-18T15:46:24Z</time>
      </trkpt>
      <trkpt lat="50.13417" lon="1.57116">
        <ele>46.5</ele>
        <time>2020-06-18T15:46:25Z</time>
      </trkpt>
      <trkpt lat="50.13422" lon="1.57122">
        <ele>46.4</ele>
        <time>2020-06-18T15:46:26Z</time>
      </trkpt>
      <trkpt lat="50.13427" lon="1.57128">
        <ele>46.3</ele>
        <time>2020-06-18T15:46:27Z</time>
      </trkpt>
      <trkpt lat="50.13433" lon="1.57134">
        <ele>46.2</ele>
        <time>2020-06-18T15:46:28Z</time>
      </trkpt>
      <trkpt lat="50.13439" lon="1.57141">
        <ele>46.1</ele>
        <time>2020-06-18T15:46:29Z</time>
      </trkpt>
      <trkpt lat="50.13445" lon="1.57147">
        <ele>46</ele>
        <time>2020-06-18T15:46:30Z</time>
      </trkpt>
      <trkpt lat="50.13451" lon="1.57153">
        <ele>45.9</ele>
        <time>2020-06-18T15:46:31Z</time>
      </trkpt>
      <trkpt lat="50.13457" lon="1.57159">
        <ele>45.8</ele>
        <time>2020-06-18T15:46:32Z</time>
      </trkpt>
      <trkpt lat="50.13462" lon="1.57165">
        <ele>45.8</ele>
        <time>2020-06-18T15:46:33Z</time>
      </trkpt>
      <trkpt lat="50.13467" lon="1.5717">
        <ele>45.7</ele>
        <time>2020-06-18T15:46:34Z</time>
      </trkpt>
      <trkpt lat="50.13473" lon="1.57177">
        <ele>45.6</ele>
        <time>2020-06-18T15:46:35Z</time>
      </trkpt>
      <trkpt lat="50.13479" lon="1.57182">
        <ele>45.5</ele>
        <time>2020-06-18T15:46:36Z</time>
      </trkpt>
      <trkpt lat="50.13485" lon="1.57188">
        <ele>45.4</ele>
        <time>2020-06-18T15:46:37Z</time>
      </trkpt>
      <trkpt lat="50.1349" lon="1.57194">
        <ele>45.3</ele>
        <time>2020-06-18T15:46:38Z</time>
      </trkpt>
      <trkpt lat="50.13496" lon="1.572">
        <ele>45.2</ele>
        <time>2020-06-18T15:46:39Z</time>
      </trkpt>
      <trkpt lat="50.13502" lon="1.57206">
        <ele>45.1</ele>
        <time>2020-06-18T15:46:40Z</time>
      </trkpt>
      <trkpt lat="50.13507" lon="1.57213">
        <ele>45</ele>
        <time>2020-06-18T15:46:41Z</time>
      </trkpt>
      <trkpt lat="50.13513" lon="1.57219">
        <ele>44.9</ele>
        <time>2020-06-18T15:46:42Z</time>
      </trkpt>
      <trkpt lat="50.13518" lon="1.57226">
        <ele>44.7</ele>
        <time>2020-06-18T15:46:43Z</time>
      </trkpt>
      <trkpt lat="50.13524" lon="1.57232">
        <ele>44.6</ele>
        <time>2020-06-18T15:46:44Z</time>
      </trkpt>
      <trkpt lat="50.13529" lon="1.57239">
        <ele>44.5</ele>
        <time>2020-06-18T15:46:45Z</time>
      </trkpt>
      <trkpt lat="50.13535" lon="1.57246">
        <ele>44.4</ele>
        <time>2020-06-18T15:46:46Z</time>
      </trkpt>
      <trkpt lat="50.1354" lon="1.57252">
        <ele>44.3</ele>
        <time>2020-06-18T15:46:47Z</time>
      </trkpt>
      <trkpt lat="50.13546" lon="1.57259">
        <ele>44.2</ele>
        <time>2020-06-18T15:46:48Z</time>
      </trkpt>
      <trkpt lat="50.13552" lon="1.57266">
        <ele>44.1</ele>
        <time>2020-06-18T15:46:49Z</time>
      </trkpt>
      <trkpt lat="50.13557" lon="1.57273">
        <ele>44</ele>
        <time>2020-06-18T15:46:50Z</time>
      </trkpt>
      <trkpt lat="50.13563" lon="1.57279">
        <ele>43.8</ele>
        <time>2020-06-18T15:46:51Z</time>
      </trkpt>
      <trkpt lat="50.13568" lon="1.57287">
        <ele>43.7</ele>
        <time>2020-06-18T15:46:52Z</time>
      </trkpt>
      <trkpt lat="50.13573" lon="1.57294">
        <ele>43.7</ele>
        <time>2020-06-18T15:46:53Z</time>
      </trkpt>
      <trkpt lat="50.13578" lon="1.57301">
        <ele>43.6</ele>
        <time>2020-06-18T15:46:54Z</time>
      </trkpt>
      <trkpt lat="50.13583" lon="1.57309">
        <ele>43.5</ele>
        <time>2020-06-18T15:46:55Z</time>
      </trkpt>
      <trkpt lat="50.13588" lon="1.57317">
        <ele>43.5</ele>
        <time>2020-06-18T15:46:56Z</time>
      </trkpt>
      <trkpt lat="50.13592" lon="1.57325">
        <ele>43.4</ele>
        <time>2020-06-18T15:46:57Z</time>
      </trkpt>
      <trkpt lat="50.13597" lon="1.57334">
        <ele>43.3</ele>
        <time>2020-06-18T15:46:58Z</time>
      </trkpt>
      <trkpt lat="50.13601" lon="1.57343">
        <ele>42.9</ele>
        <time>2020-06-18T15:46:59Z</time>
      </trkpt>
      <trkpt lat="50.13606" lon="1.57351">
        <ele>42.1</ele>
        <time>2020-06-18T15:47:00Z</time>
      </trkpt>
      <trkpt lat="50.1361" lon="1.5736">
        <ele>41.9</ele>
        <time>2020-06-18T15:47:01Z</time>
      </trkpt>
      <trkpt lat="50.13614" lon="1.5737">
        <ele>41.8</ele>
        <time>2020-06-18T15:47:02Z</time>
      </trkpt>
      <trkpt lat="50.13617" lon="1.57381">
        <ele>41.7</ele>
        <time>2020-06-18T15:47:03Z</time>
      </trkpt>
      <trkpt lat="50.1362" lon="1.57391">
        <ele>41.5</ele>
        <time>2020-06-18T15:47:04Z</time>
      </trkpt>
      <trkpt lat="50.13623" lon="1.57402">
        <ele>41.4</ele>
        <time>2020-06-18T15:47:05Z</time>
      </trkpt>
      <trkpt lat="50.13626" lon="1.57412">
        <ele>41.3</ele>
        <time>2020-06-18T15:47:06Z</time>
      </trkpt>
      <trkpt lat="50.13629" lon="1.57423">
        <ele>41.2</ele>
        <time>2020-06-18T15:47:07Z</time>
      </trkpt>
      <trkpt lat="50.13631" lon="1.57434">
        <ele>41.2</ele>
        <time>2020-06-18T15:47:08Z</time>
      </trkpt>
      <trkpt lat="50.13634" lon="1.57445">
        <ele>41.1</ele>
        <time>2020-06-18T15:47:09Z</time>
      </trkpt>
      <trkpt lat="50.13637" lon="1.57456">
        <ele>41</ele>
        <time>2020-06-18T15:47:10Z</time>
      </trkpt>
      <trkpt lat="50.1364" lon="1.57467">
        <ele>40.9</ele>
        <time>2020-06-18T15:47:11Z</time>
      </trkpt>
      <trkpt lat="50.13642" lon="1.57478">
        <ele>40.8</ele>
        <time>2020-06-18T15:47:12Z</time>
      </trkpt>
      <trkpt lat="50.13645" lon="1.57489">
        <ele>40.7</ele>
        <time>2020-06-18T15:47:13Z</time>
      </trkpt>
      <trkpt lat="50.13648" lon="1.575">
        <ele>40.6</ele>
        <time>2020-06-18T15:47:14Z</time>
      </trkpt>
      <trkpt lat="50.13651" lon="1.5751">
        <ele>40.5</ele>
        <time>2020-06-18T15:47:15Z</time>
      </trkpt>
      <trkpt lat="50.13654" lon="1.57521">
        <ele>40.4</ele>
        <time>2020-06-18T15:47:16Z</time>
      </trkpt>
      <trkpt lat="50.13658" lon="1.57531">
        <ele>40.3</ele>
        <time>2020-06-18T15:47:17Z</time>
      </trkpt>
      <trkpt lat="50.13661" lon="1.57541">
        <ele>40.3</ele>
        <time>2020-06-18T15:47:18Z</time>
      </trkpt>
      <trkpt lat="50.13664" lon="1.57551">
        <ele>40.2</ele>
        <time>2020-06-18T15:47:19Z</time>
      </trkpt>
      <trkpt lat="50.13667" lon="1.57561">
        <ele>40.1</ele>
        <time>2020-06-18T15:47:20Z</time>
      </trkpt>
      <trkpt lat="50.13669" lon="1.57571">
        <ele>40</ele>
        <time>2020-06-18T15:47:21Z</time>
      </trkpt>
      <trkpt lat="50.13672" lon="1.57581">
        <ele>39.9</ele>
        <time>2020-06-18T15:47:22Z</time>
      </trkpt>
      <trkpt lat="50.13675" lon="1.5759">
        <ele>39.9</ele>
        <time>2020-06-18T15:47:23Z</time>
      </trkpt>
      <trkpt lat="50.13678" lon="1.57599">
        <ele>39.8</ele>
        <time>2020-06-18T15:47:24Z</time>
      </trkpt>
      <trkpt lat="50.1368" lon="1.57609">
        <ele>39.7</ele>
        <time>2020-06-18T15:47:25Z</time>
      </trkpt>
      <trkpt lat="50.13682" lon="1.57618">
        <ele>39.6</ele>
        <time>2020-06-18T15:47:26Z</time>
      </trkpt>
      <trkpt lat="50.13685" lon="1.57628">
        <ele>39.5</ele>
        <time>2020-06-18T15:47:27Z</time>
      </trkpt>
      <trkpt lat="50.13687" lon="1.57637">
        <ele>39.5</ele>
        <time>2020-06-18T15:47:28Z</time>
      </trkpt>
      <trkpt lat="50.1369" lon="1.57647">
        <ele>39.4</ele>
        <time>2020-06-18T15:47:29Z</time>
      </trkpt>
      <trkpt lat="50.13693" lon="1.57656">
        <ele>39.4</ele>
        <time>2020-06-18T15:47:30Z</time>
      </trkpt>
      <trkpt lat="50.13695" lon="1.57665">
        <ele>39.4</ele>
        <time>2020-06-18T15:47:31Z</time>
      </trkpt>
      <trkpt lat="50.13698" lon="1.57675">
        <ele>39.3</ele>
        <time>2020-06-18T15:47:32Z</time>
      </trkpt>
      <trkpt lat="50.137" lon="1.57684">
        <ele>39.3</ele>
        <time>2020-06-18T15:47:33Z</time>
      </trkpt>
      <trkpt lat="50.13704" lon="1.57694">
        <ele>39.3</ele>
        <time>2020-06-18T15:47:34Z</time>
      </trkpt>
      <trkpt lat="50.13707" lon="1.57703">
        <ele>39.2</ele>
        <time>2020-06-18T15:47:35Z</time>
      </trkpt>
      <trkpt lat="50.13709" lon="1.57713">
        <ele>39.2</ele>
        <time>2020-06-18T15:47:36Z</time>
      </trkpt>
      <trkpt lat="50.13711" lon="1.57722">
        <ele>39.1</ele>
        <time>2020-06-18T15:47:37Z</time>
      </trkpt>
      <trkpt lat="50.13714" lon="1.57731">
        <ele>39.1</ele>
        <time>2020-06-18T15:47:38Z</time>
      </trkpt>
      <trkpt lat="50.13716" lon="1.57741">
        <ele>39.1</ele>
        <time>2020-06-18T15:47:39Z</time>
      </trkpt>
      <trkpt lat="50.13718" lon="1.5775">
        <ele>39.1</ele>
        <time>2020-06-18T15:47:40Z</time>
      </trkpt>
      <trkpt lat="50.13719" lon="1.57759">
        <ele>39.1</ele>
        <time>2020-06-18T15:47:41Z</time>
      </trkpt>
      <trkpt lat="50.1372" lon="1.57768">
        <ele>39</ele>
        <time>2020-06-18T15:47:42Z</time>
      </trkpt>
      <trkpt lat="50.13722" lon="1.57777">
        <ele>39</ele>
        <time>2020-06-18T15:47:43Z</time>
      </trkpt>
      <trkpt lat="50.13723" lon="1.57786">
        <ele>39</ele>
        <time>2020-06-18T15:47:44Z</time>
      </trkpt>
      <trkpt lat="50.13723" lon="1.57795">
        <ele>39.1</ele>
        <time>2020-06-18T15:47:45Z</time>
      </trkpt>
      <trkpt lat="50.13724" lon="1.57804">
        <ele>39.1</ele>
        <time>2020-06-18T15:47:46Z</time>
      </trkpt>
      <trkpt lat="50.13726" lon="1.57812">
        <ele>39.1</ele>
        <time>2020-06-18T15:47:47Z</time>
      </trkpt>
      <trkpt lat="50.13727" lon="1.57821">
        <ele>39.2</ele>
        <time>2020-06-18T15:47:48Z</time>
      </trkpt>
      <trkpt lat="50.13729" lon="1.5783">
        <ele>39.2</ele>
        <time>2020-06-18T15:47:49Z</time>
      </trkpt>
      <trkpt lat="50.1373" lon="1.5784">
        <ele>39.2</ele>
        <time>2020-06-18T15:47:50Z</time>
      </trkpt>
      <trkpt lat="50.13731" lon="1.57849">
        <ele>39.3</ele>
        <time>2020-06-18T15:47:51Z</time>
      </trkpt>
      <trkpt lat="50.13733" lon="1.57859">
        <ele>39.3</ele>
        <time>2020-06-18T15:47:52Z</time>
      </trkpt>
      <trkpt lat="50.13734" lon="1.57868">
        <ele>39.2</ele>
        <time>2020-06-18T15:47:53Z</time>
      </trkpt>
      <trkpt lat="50.13738" lon="1.57876">
        <ele>39.1</ele>
        <time>2020-06-18T15:47:54Z</time>
      </trkpt>
      <trkpt lat="50.13741" lon="1.57884">
        <ele>39</ele>
        <time>2020-06-18T15:47:55Z</time>
      </trkpt>
      <trkpt lat="50.13746" lon="1.57891">
        <ele>38.9</ele>
        <time>2020-06-18T15:47:56Z</time>
      </trkpt>
      <trkpt lat="50.1375" lon="1.57898">
        <ele>38.9</ele>
        <time>2020-06-18T15:47:57Z</time>
      </trkpt>
      <trkpt lat="50.13754" lon="1.57904">
        <ele>38.8</ele>
        <time>2020-06-18T15:47:58Z</time>
      </trkpt>
      <trkpt lat="50.13759" lon="1.57912">
        <ele>38.7</ele>
        <time>2020-06-18T15:47:59Z</time>
      </trkpt>
      <trkpt lat="50.13763" lon="1.57918">
        <ele>38.6</ele>
        <time>2020-06-18T15:48:00Z</time>
      </trkpt>
      <trkpt lat="50.13768" lon="1.57924">
        <ele>38.6</ele>
        <time>2020-06-18T15:48:01Z</time>
      </trkpt>
      <trkpt lat="50.13773" lon="1.57929">
        <ele>38.5</ele>
        <time>2020-06-18T15:48:02Z</time>
      </trkpt>
      <trkpt lat="50.13778" lon="1.57935">
        <ele>38.5</ele>
        <time>2020-06-18T15:48:03Z</time>
      </trkpt>
      <trkpt lat="50.13782" lon="1.57942">
        <ele>38.4</ele>
        <time>2020-06-18T15:48:04Z</time>
      </trkpt>
      <trkpt lat="50.13786" lon="1.57949">
        <ele>38.4</ele>
        <time>2020-06-18T15:48:05Z</time>
      </trkpt>
      <trkpt lat="50.1379" lon="1.57956">
        <ele>38.3</ele>
        <time>2020-06-18T15:48:06Z</time>
      </trkpt>
      <trkpt lat="50.13794" lon="1.57964">
        <ele>38.2</ele>
        <time>2020-06-18T15:48:07Z</time>
      </trkpt>
      <trkpt lat="50.13798" lon="1.57972">
        <ele>38.2</ele>
        <time>2020-06-18T15:48:08Z</time>
      </trkpt>
      <trkpt lat="50.13801" lon="1.5798">
        <ele>38.1</ele>
        <time>2020-06-18T15:48:09Z</time>
      </trkpt>
      <trkpt lat="50.13805" lon="1.57989">
        <ele>38.1</ele>
        <time>2020-06-18T15:48:10Z</time>
      </trkpt>
      <trkpt lat="50.13808" lon="1.57998">
        <ele>38</ele>
        <time>2020-06-18T15:48:11Z</time>
      </trkpt>
      <trkpt lat="50.1381" lon="1.58007">
        <ele>38</ele>
        <time>2020-06-18T15:48:12Z</time>
      </trkpt>
      <trkpt lat="50.13813" lon="1.58013">
        <ele>38</ele>
        <time>2020-06-18T15:48:13Z</time>
      </trkpt>
      <trkpt lat="50.13813" lon="1.58018">
        <ele>38</ele>
        <time>2020-06-18T15:48:14Z</time>
      </trkpt>
      <trkpt lat="50.13814" lon="1.58021">
        <ele>38</ele>
        <time>2020-06-18T15:48:15Z</time>
      </trkpt>
      <trkpt lat="50.13814" lon="1.58021">
        <ele>38</ele>
        <time>2020-06-18T15:48:16Z</time>
      </trkpt>
      <trkpt lat="50.13813" lon="1.58021">
        <ele>38</ele>
        <time>2020-06-18T15:48:17Z</time>
      </trkpt>
      <trkpt lat="50.13813" lon="1.5802">
        <ele>37.9</ele>
        <time>2020-06-18T15:48:18Z</time>
      </trkpt>
      <trkpt lat="50.13813" lon="1.5802">
        <ele>37.9</ele>
        <time>2020-06-18T15:48:19Z</time>
      </trkpt>
      <trkpt lat="50.13812" lon="1.58022">
        <ele>37.9</ele>
        <time>2020-06-18T15:48:20Z</time>
      </trkpt>
      <trkpt lat="50.13811" lon="1.58022">
        <ele>37.9</ele>
        <time>2020-06-18T15:48:21Z</time>
      </trkpt>
      <trkpt lat="50.1381" lon="1.58022">
        <ele>37.9</ele>
        <time>2020-06-18T15:48:22Z</time>
      </trkpt>
      <trkpt lat="50.1381" lon="1.58021">
        <ele>37.9</ele>
        <time>2020-06-18T15:48:23Z</time>
      </trkpt>
      <trkpt lat="50.13809" lon="1.5802">
        <ele>37.9</ele>
        <time>2020-06-18T15:48:24Z</time>
      </trkpt>
      <trkpt lat="50.13808" lon="1.58019">
        <ele>37.9</ele>
        <time>2020-06-18T15:48:25Z</time>
      </trkpt>
      <trkpt lat="50.13808" lon="1.58017">
        <ele>37.9</ele>
        <time>2020-06-18T15:48:26Z</time>
      </trkpt>
      <trkpt lat="50.13809" lon="1.58017">
        <ele>37.9</ele>
        <time>2020-06-18T15:48:27Z</time>
      </trkpt>
      <trkpt lat="50.13809" lon="1.58016">
        <ele>37.9</ele>
        <time>2020-06-18T15:48:28Z</time>
      </trkpt>
      <trkpt lat="50.13809" lon="1.58015">
        <ele>37.9</ele>
        <time>2020-06-18T15:48:29Z</time>
      </trkpt>
      <trkpt lat="50.1381" lon="1.58014">
        <ele>37.9</ele>
        <time>2020-06-18T15:48:30Z</time>
      </trkpt>
      <trkpt lat="50.1381" lon="1.58014">
        <ele>37.9</ele>
        <time>2020-06-18T15:48:31Z</time>
      </trkpt>
      <trkpt lat="50.1381" lon="1.58013">
        <ele>37.8</ele>
        <time>2020-06-18T15:48:32Z</time>
      </trkpt>
      <trkpt lat="50.1381" lon="1.58012">
        <ele>37.8</ele>
        <time>2020-06-18T15:48:33Z</time>
      </trkpt>
      <trkpt lat="50.13811" lon="1.58012">
        <ele>37.8</ele>
        <time>2020-06-18T15:48:34Z</time>
      </trkpt>
      <trkpt lat="50.13811" lon="1.58011">
        <ele>37.8</ele>
        <time>2020-06-18T15:48:35Z</time>
      </trkpt>
      <trkpt lat="50.13811" lon="1.5801">
        <ele>37.8</ele>
        <time>2020-06-18T15:48:36Z</time>
      </trkpt>
      <trkpt lat="50.13812" lon="1.58009">
        <ele>37.8</ele>
        <time>2020-06-18T15:54:54Z</time>
      </trkpt>
      <trkpt lat="50.13812" lon="1.58009">
        <ele>37.8</ele>
        <time>2020-06-18T15:54:55Z</time>
      </trkpt>
      <trkpt lat="50.13814" lon="1.58013">
        <ele>37.8</ele>
        <time>2020-06-18T15:54:56Z</time>
      </trkpt>
      <trkpt lat="50.13815" lon="1.58015">
        <ele>37.8</ele>
        <time>2020-06-18T15:54:57Z</time>
      </trkpt>
      <trkpt lat="50.13816" lon="1.58018">
        <ele>37.7</ele>
        <time>2020-06-18T15:54:58Z</time>
      </trkpt>
      <trkpt lat="50.13818" lon="1.58022">
        <ele>37.7</ele>
        <time>2020-06-18T15:54:59Z</time>
      </trkpt>
      <trkpt lat="50.13819" lon="1.58028">
        <ele>37.7</ele>
        <time>2020-06-18T15:55:00Z</time>
      </trkpt>
      <trkpt lat="50.13821" lon="1.58033">
        <ele>37.6</ele>
        <time>2020-06-18T15:55:01Z</time>
      </trkpt>
      <trkpt lat="50.13823" lon="1.58038">
        <ele>37.6</ele>
        <time>2020-06-18T15:55:02Z</time>
      </trkpt>
      <trkpt lat="50.13824" lon="1.58043">
        <ele>37.6</ele>
        <time>2020-06-18T15:55:03Z</time>
      </trkpt>
      <trkpt lat="50.13825" lon="1.58049">
        <ele>37.5</ele>
        <time>2020-06-18T15:55:04Z</time>
      </trkpt>
      <trkpt lat="50.13827" lon="1.58054">
        <ele>37.5</ele>
        <time>2020-06-18T15:55:05Z</time>
      </trkpt>
      <trkpt lat="50.13828" lon="1.58058">
        <ele>37.5</ele>
        <time>2020-06-18T15:55:06Z</time>
      </trkpt>
      <trkpt lat="50.1383" lon="1.58063">
        <ele>37.5</ele>
        <time>2020-06-18T15:55:07Z</time>
      </trkpt>
      <trkpt lat="50.13832" lon="1.58069">
        <ele>37.4</ele>
        <time>2020-06-18T15:55:08Z</time>
      </trkpt>
      <trkpt lat="50.13835" lon="1.58074">
        <ele>37.4</ele>
        <time>2020-06-18T15:55:09Z</time>
      </trkpt>
      <trkpt lat="50.13838" lon="1.58078">
        <ele>37.3</ele>
        <time>2020-06-18T15:55:10Z</time>
      </trkpt>
      <trkpt lat="50.13841" lon="1.58082">
        <ele>37.3</ele>
        <time>2020-06-18T15:55:11Z</time>
      </trkpt>
      <trkpt lat="50.13845" lon="1.58086">
        <ele>37.3</ele>
        <time>2020-06-18T15:55:12Z</time>
      </trkpt>
      <trkpt lat="50.13848" lon="1.5809">
        <ele>37.2</ele>
        <time>2020-06-18T15:55:13Z</time>
      </trkpt>
      <trkpt lat="50.13852" lon="1.58094">
        <ele>37.2</ele>
        <time>2020-06-18T15:55:14Z</time>
      </trkpt>
      <trkpt lat="50.13857" lon="1.58098">
        <ele>37.1</ele>
        <time>2020-06-18T15:55:15Z</time>
      </trkpt>
      <trkpt lat="50.13862" lon="1.58102">
        <ele>37.1</ele>
        <time>2020-06-18T15:55:16Z</time>
      </trkpt>
      <trkpt lat="50.13868" lon="1.58105">
        <ele>37</ele>
        <time>2020-06-18T15:55:17Z</time>
      </trkpt>
      <trkpt lat="50.13873" lon="1.58108">
        <ele>36.9</ele>
        <time>2020-06-18T15:55:18Z</time>
      </trkpt>
      <trkpt lat="50.13879" lon="1.5811">
        <ele>36.9</ele>
        <time>2020-06-18T15:55:19Z</time>
      </trkpt>
      <trkpt lat="50.13886" lon="1.58112">
        <ele>36.8</ele>
        <time>2020-06-18T15:55:20Z</time>
      </trkpt>
      <trkpt lat="50.13891" lon="1.58114">
        <ele>36.8</ele>
        <time>2020-06-18T15:55:21Z</time>
      </trkpt>
      <trkpt lat="50.13897" lon="1.58116">
        <ele>36.8</ele>
        <time>2020-06-18T15:55:22Z</time>
      </trkpt>
      <trkpt lat="50.13902" lon="1.58117">
        <ele>36.8</ele>
        <time>2020-06-18T15:55:23Z</time>
      </trkpt>
      <trkpt lat="50.13907" lon="1.58118">
        <ele>36.9</ele>
        <time>2020-06-18T15:55:24Z</time>
      </trkpt>
      <trkpt lat="50.13912" lon="1.5812">
        <ele>36.9</ele>
        <time>2020-06-18T15:55:25Z</time>
      </trkpt>
      <trkpt lat="50.13918" lon="1.58122">
        <ele>36.9</ele>
        <time>2020-06-18T15:55:26Z</time>
      </trkpt>
      <trkpt lat="50.13924" lon="1.58125">
        <ele>36.9</ele>
        <time>2020-06-18T15:55:27Z</time>
      </trkpt>
      <trkpt lat="50.1393" lon="1.58131">
        <ele>36.8</ele>
        <time>2020-06-18T15:55:28Z</time>
      </trkpt>
      <trkpt lat="50.13936" lon="1.58136">
        <ele>36.8</ele>
        <time>2020-06-18T15:55:29Z</time>
      </trkpt>
      <trkpt lat="50.13941" lon="1.58143">
        <ele>36.7</ele>
        <time>2020-06-18T15:55:30Z</time>
      </trkpt>
      <trkpt lat="50.13945" lon="1.58148">
        <ele>36.7</ele>
        <time>2020-06-18T15:55:31Z</time>
      </trkpt>
      <trkpt lat="50.13949" lon="1.58152">
        <ele>36.6</ele>
        <time>2020-06-18T15:55:32Z</time>
      </trkpt>
      <trkpt lat="50.13954" lon="1.58158">
        <ele>36.6</ele>
        <time>2020-06-18T15:55:33Z</time>
      </trkpt>
      <trkpt lat="50.13958" lon="1.58163">
        <ele>36.5</ele>
        <time>2020-06-18T15:55:34Z</time>
      </trkpt>
      <trkpt lat="50.13964" lon="1.58169">
        <ele>36.4</ele>
        <time>2020-06-18T15:55:35Z</time>
      </trkpt>
      <trkpt lat="50.13969" lon="1.58174">
        <ele>36.4</ele>
        <time>2020-06-18T15:55:36Z</time>
      </trkpt>
      <trkpt lat="50.13974" lon="1.58178">
        <ele>36.4</ele>
        <time>2020-06-18T15:55:37Z</time>
      </trkpt>
      <trkpt lat="50.13979" lon="1.58183">
        <ele>36.3</ele>
        <time>2020-06-18T15:55:38Z</time>
      </trkpt>
      <trkpt lat="50.13985" lon="1.58188">
        <ele>36.3</ele>
        <time>2020-06-18T15:55:39Z</time>
      </trkpt>
      <trkpt lat="50.13991" lon="1.58194">
        <ele>36.3</ele>
        <time>2020-06-18T15:55:40Z</time>
      </trkpt>
      <trkpt lat="50.13995" lon="1.58197">
        <ele>36.2</ele>
        <time>2020-06-18T15:55:41Z</time>
      </trkpt>
      <trkpt lat="50.13999" lon="1.582">
        <ele>36.1</ele>
        <time>2020-06-18T15:55:42Z</time>
      </trkpt>
      <trkpt lat="50.14008" lon="1.58202">
        <ele>35.9</ele>
        <time>2020-06-18T15:55:43Z</time>
      </trkpt>
      <trkpt lat="50.14014" lon="1.58204">
        <ele>35.8</ele>
        <time>2020-06-18T15:55:44Z</time>
      </trkpt>
      <trkpt lat="50.1402" lon="1.58207">
        <ele>35.7</ele>
        <time>2020-06-18T15:55:45Z</time>
      </trkpt>
      <trkpt lat="50.14027" lon="1.58209">
        <ele>35.6</ele>
        <time>2020-06-18T15:55:46Z</time>
      </trkpt>
      <trkpt lat="50.14034" lon="1.58211">
        <ele>35.5</ele>
        <time>2020-06-18T15:55:47Z</time>
      </trkpt>
      <trkpt lat="50.1404" lon="1.58214">
        <ele>35.5</ele>
        <time>2020-06-18T15:55:48Z</time>
      </trkpt>
      <trkpt lat="50.14047" lon="1.58218">
        <ele>35.4</ele>
        <time>2020-06-18T15:55:49Z</time>
      </trkpt>
      <trkpt lat="50.14053" lon="1.58222">
        <ele>35.4</ele>
        <time>2020-06-18T15:55:50Z</time>
      </trkpt>
      <trkpt lat="50.1406" lon="1.58227">
        <ele>35.3</ele>
        <time>2020-06-18T15:55:51Z</time>
      </trkpt>
      <trkpt lat="50.14065" lon="1.58231">
        <ele>35.3</ele>
        <time>2020-06-18T15:55:52Z</time>
      </trkpt>
      <trkpt lat="50.14071" lon="1.58236">
        <ele>35.3</ele>
        <time>2020-06-18T15:55:53Z</time>
      </trkpt>
      <trkpt lat="50.14076" lon="1.5824">
        <ele>35.3</ele>
        <time>2020-06-18T15:55:54Z</time>
      </trkpt>
      <trkpt lat="50.1408" lon="1.58243">
        <ele>35.3</ele>
        <time>2020-06-18T15:55:55Z</time>
      </trkpt>
      <trkpt lat="50.14084" lon="1.58247">
        <ele>35.3</ele>
        <time>2020-06-18T15:55:56Z</time>
      </trkpt>
      <trkpt lat="50.1409" lon="1.58251">
        <ele>35.3</ele>
        <time>2020-06-18T15:55:57Z</time>
      </trkpt>
      <trkpt lat="50.14094" lon="1.58255">
        <ele>35.3</ele>
        <time>2020-06-18T15:55:58Z</time>
      </trkpt>
      <trkpt lat="50.141" lon="1.58259">
        <ele>35.3</ele>
        <time>2020-06-18T15:55:59Z</time>
      </trkpt>
      <trkpt lat="50.14107" lon="1.58263">
        <ele>35.3</ele>
        <time>2020-06-18T15:56:00Z</time>
      </trkpt>
      <trkpt lat="50.14114" lon="1.58269">
        <ele>35.3</ele>
        <time>2020-06-18T15:56:01Z</time>
      </trkpt>
      <trkpt lat="50.1412" lon="1.58273">
        <ele>35.3</ele>
        <time>2020-06-18T15:56:02Z</time>
      </trkpt>
      <trkpt lat="50.14126" lon="1.58278">
        <ele>35.3</ele>
        <time>2020-06-18T15:56:03Z</time>
      </trkpt>
      <trkpt lat="50.14132" lon="1.5828">
        <ele>35.3</ele>
        <time>2020-06-18T15:56:04Z</time>
      </trkpt>
      <trkpt lat="50.14138" lon="1.58283">
        <ele>35.3</ele>
        <time>2020-06-18T15:56:05Z</time>
      </trkpt>
      <trkpt lat="50.14145" lon="1.58285">
        <ele>35.2</ele>
        <time>2020-06-18T15:56:06Z</time>
      </trkpt>
      <trkpt lat="50.14152" lon="1.58288">
        <ele>35.1</ele>
        <time>2020-06-18T15:56:07Z</time>
      </trkpt>
      <trkpt lat="50.14158" lon="1.58291">
        <ele>34.7</ele>
        <time>2020-06-18T15:56:08Z</time>
      </trkpt>
      <trkpt lat="50.14166" lon="1.58294">
        <ele>34.7</ele>
        <time>2020-06-18T15:56:09Z</time>
      </trkpt>
      <trkpt lat="50.14173" lon="1.58297">
        <ele>34.6</ele>
        <time>2020-06-18T15:56:10Z</time>
      </trkpt>
      <trkpt lat="50.1418" lon="1.58301">
        <ele>34.6</ele>
        <time>2020-06-18T15:56:11Z</time>
      </trkpt>
      <trkpt lat="50.14187" lon="1.58304">
        <ele>34.5</ele>
        <time>2020-06-18T15:56:12Z</time>
      </trkpt>
      <trkpt lat="50.14194" lon="1.58308">
        <ele>34.3</ele>
        <time>2020-06-18T15:56:13Z</time>
      </trkpt>
      <trkpt lat="50.142" lon="1.58313">
        <ele>34.1</ele>
        <time>2020-06-18T15:56:14Z</time>
      </trkpt>
      <trkpt lat="50.14207" lon="1.58317">
        <ele>33.9</ele>
        <time>2020-06-18T15:56:15Z</time>
      </trkpt>
      <trkpt lat="50.14214" lon="1.58322">
        <ele>33.8</ele>
        <time>2020-06-18T15:56:16Z</time>
      </trkpt>
      <trkpt lat="50.14221" lon="1.58327">
        <ele>33.8</ele>
        <time>2020-06-18T15:56:17Z</time>
      </trkpt>
      <trkpt lat="50.14227" lon="1.58333">
        <ele>33.7</ele>
        <time>2020-06-18T15:56:18Z</time>
      </trkpt>
      <trkpt lat="50.14234" lon="1.58339">
        <ele>33.6</ele>
        <time>2020-06-18T15:56:19Z</time>
      </trkpt>
      <trkpt lat="50.1424" lon="1.58345">
        <ele>33.6</ele>
        <time>2020-06-18T15:56:20Z</time>
      </trkpt>
      <trkpt lat="50.14247" lon="1.5835">
        <ele>33.5</ele>
        <time>2020-06-18T15:56:21Z</time>
      </trkpt>
      <trkpt lat="50.14254" lon="1.58356">
        <ele>33.3</ele>
        <time>2020-06-18T15:56:22Z</time>
      </trkpt>
      <trkpt lat="50.14261" lon="1.58361">
        <ele>33.2</ele>
        <time>2020-06-18T15:56:23Z</time>
      </trkpt>
      <trkpt lat="50.14267" lon="1.58366">
        <ele>33.1</ele>
        <time>2020-06-18T15:56:24Z</time>
      </trkpt>
      <trkpt lat="50.14274" lon="1.5837">
        <ele>33</ele>
        <time>2020-06-18T15:56:25Z</time>
      </trkpt>
      <trkpt lat="50.14281" lon="1.58375">
        <ele>33</ele>
        <time>2020-06-18T15:56:26Z</time>
      </trkpt>
      <trkpt lat="50.14287" lon="1.5838">
        <ele>32.9</ele>
        <time>2020-06-18T15:56:27Z</time>
      </trkpt>
      <trkpt lat="50.14294" lon="1.58384">
        <ele>32.8</ele>
        <time>2020-06-18T15:56:28Z</time>
      </trkpt>
      <trkpt lat="50.143" lon="1.58389">
        <ele>32.7</ele>
        <time>2020-06-18T15:56:29Z</time>
      </trkpt>
      <trkpt lat="50.14307" lon="1.58393">
        <ele>32.6</ele>
        <time>2020-06-18T15:56:30Z</time>
      </trkpt>
      <trkpt lat="50.14314" lon="1.58397">
        <ele>32.5</ele>
        <time>2020-06-18T15:56:31Z</time>
      </trkpt>
      <trkpt lat="50.1432" lon="1.58401">
        <ele>32.4</ele>
        <time>2020-06-18T15:56:32Z</time>
      </trkpt>
      <trkpt lat="50.14326" lon="1.58406">
        <ele>32.4</ele>
        <time>2020-06-18T15:56:33Z</time>
      </trkpt>
      <trkpt lat="50.14333" lon="1.58409">
        <ele>32.3</ele>
        <time>2020-06-18T15:56:34Z</time>
      </trkpt>
      <trkpt lat="50.1434" lon="1.58413">
        <ele>32.2</ele>
        <time>2020-06-18T15:56:35Z</time>
      </trkpt>
      <trkpt lat="50.14346" lon="1.58417">
        <ele>32.2</ele>
        <time>2020-06-18T15:56:36Z</time>
      </trkpt>
      <trkpt lat="50.14352" lon="1.58421">
        <ele>32.2</ele>
        <time>2020-06-18T15:56:37Z</time>
      </trkpt>
      <trkpt lat="50.14359" lon="1.58425">
        <ele>32.1</ele>
        <time>2020-06-18T15:56:38Z</time>
      </trkpt>
      <trkpt lat="50.14366" lon="1.58429">
        <ele>32.1</ele>
        <time>2020-06-18T15:56:39Z</time>
      </trkpt>
      <trkpt lat="50.14372" lon="1.58432">
        <ele>32</ele>
        <time>2020-06-18T15:56:40Z</time>
      </trkpt>
      <trkpt lat="50.14379" lon="1.58436">
        <ele>31.9</ele>
        <time>2020-06-18T15:56:41Z</time>
      </trkpt>
      <trkpt lat="50.14386" lon="1.5844">
        <ele>31.8</ele>
        <time>2020-06-18T15:56:42Z</time>
      </trkpt>
      <trkpt lat="50.14392" lon="1.58444">
        <ele>31.7</ele>
        <time>2020-06-18T15:56:43Z</time>
      </trkpt>
      <trkpt lat="50.14399" lon="1.58447">
        <ele>31.6</ele>
        <time>2020-06-18T15:56:44Z</time>
      </trkpt>
      <trkpt lat="50.14406" lon="1.5845">
        <ele>31.5</ele>
        <time>2020-06-18T15:56:45Z</time>
      </trkpt>
      <trkpt lat="50.14413" lon="1.58454">
        <ele>31.4</ele>
        <time>2020-06-18T15:56:46Z</time>
      </trkpt>
      <trkpt lat="50.1442" lon="1.58457">
        <ele>31.3</ele>
        <time>2020-06-18T15:56:47Z</time>
      </trkpt>
      <trkpt lat="50.14427" lon="1.5846">
        <ele>31.2</ele>
        <time>2020-06-18T15:56:48Z</time>
      </trkpt>
      <trkpt lat="50.14434" lon="1.58463">
        <ele>31.2</ele>
        <time>2020-06-18T15:56:49Z</time>
      </trkpt>
      <trkpt lat="50.14441" lon="1.58465">
        <ele>31.1</ele>
        <time>2020-06-18T15:56:50Z</time>
      </trkpt>
      <trkpt lat="50.14448" lon="1.58467">
        <ele>31.1</ele>
        <time>2020-06-18T15:56:51Z</time>
      </trkpt>
      <trkpt lat="50.14455" lon="1.58468">
        <ele>31</ele>
        <time>2020-06-18T15:56:52Z</time>
      </trkpt>
      <trkpt lat="50.14462" lon="1.58469">
        <ele>31</ele>
        <time>2020-06-18T15:56:53Z</time>
      </trkpt>
      <trkpt lat="50.14469" lon="1.5847">
        <ele>30.9</ele>
        <time>2020-06-18T15:56:54Z</time>
      </trkpt>
      <trkpt lat="50.14475" lon="1.58472">
        <ele>30.8</ele>
        <time>2020-06-18T15:56:55Z</time>
      </trkpt>
      <trkpt lat="50.14482" lon="1.58473">
        <ele>30.7</ele>
        <time>2020-06-18T15:56:56Z</time>
      </trkpt>
      <trkpt lat="50.14489" lon="1.58474">
        <ele>30.6</ele>
        <time>2020-06-18T15:56:57Z</time>
      </trkpt>
      <trkpt lat="50.14495" lon="1.58475">
        <ele>30.5</ele>
        <time>2020-06-18T15:56:58Z</time>
      </trkpt>
      <trkpt lat="50.14502" lon="1.58476">
        <ele>30.4</ele>
        <time>2020-06-18T15:56:59Z</time>
      </trkpt>
      <trkpt lat="50.14509" lon="1.58477">
        <ele>30.4</ele>
        <time>2020-06-18T15:57:00Z</time>
      </trkpt>
      <trkpt lat="50.14516" lon="1.58478">
        <ele>30.3</ele>
        <time>2020-06-18T15:57:01Z</time>
      </trkpt>
      <trkpt lat="50.14523" lon="1.58478">
        <ele>30.3</ele>
        <time>2020-06-18T15:57:02Z</time>
      </trkpt>
      <trkpt lat="50.1453" lon="1.58479">
        <ele>30.2</ele>
        <time>2020-06-18T15:57:03Z</time>
      </trkpt>
      <trkpt lat="50.14537" lon="1.58481">
        <ele>30.1</ele>
        <time>2020-06-18T15:57:04Z</time>
      </trkpt>
      <trkpt lat="50.14544" lon="1.58483">
        <ele>30.1</ele>
        <time>2020-06-18T15:57:05Z</time>
      </trkpt>
      <trkpt lat="50.14551" lon="1.58485">
        <ele>30</ele>
        <time>2020-06-18T15:57:06Z</time>
      </trkpt>
      <trkpt lat="50.14558" lon="1.58487">
        <ele>29.9</ele>
        <time>2020-06-18T15:57:07Z</time>
      </trkpt>
      <trkpt lat="50.14566" lon="1.58488">
        <ele>29.8</ele>
        <time>2020-06-18T15:57:08Z</time>
      </trkpt>
      <trkpt lat="50.14573" lon="1.5849">
        <ele>29.7</ele>
        <time>2020-06-18T15:57:09Z</time>
      </trkpt>
      <trkpt lat="50.1458" lon="1.58492">
        <ele>29.6</ele>
        <time>2020-06-18T15:57:10Z</time>
      </trkpt>
      <trkpt lat="50.14587" lon="1.58493">
        <ele>29.5</ele>
        <time>2020-06-18T15:57:11Z</time>
      </trkpt>
      <trkpt lat="50.14594" lon="1.58495">
        <ele>29.4</ele>
        <time>2020-06-18T15:57:12Z</time>
      </trkpt>
      <trkpt lat="50.146" lon="1.58497">
        <ele>29.3</ele>
        <time>2020-06-18T15:57:13Z</time>
      </trkpt>
      <trkpt lat="50.14607" lon="1.58499">
        <ele>29.3</ele>
        <time>2020-06-18T15:57:14Z</time>
      </trkpt>
      <trkpt lat="50.14614" lon="1.58501">
        <ele>29.2</ele>
        <time>2020-06-18T15:57:15Z</time>
      </trkpt>
      <trkpt lat="50.14621" lon="1.58504">
        <ele>29.2</ele>
        <time>2020-06-18T15:57:16Z</time>
      </trkpt>
      <trkpt lat="50.14628" lon="1.58506">
        <ele>29.1</ele>
        <time>2020-06-18T15:57:17Z</time>
      </trkpt>
      <trkpt lat="50.14635" lon="1.58508">
        <ele>29</ele>
        <time>2020-06-18T15:57:18Z</time>
      </trkpt>
      <trkpt lat="50.14643" lon="1.58511">
        <ele>29</ele>
        <time>2020-06-18T15:57:19Z</time>
      </trkpt>
      <trkpt lat="50.1465" lon="1.58513">
        <ele>28.9</ele>
        <time>2020-06-18T15:57:20Z</time>
      </trkpt>
      <trkpt lat="50.14657" lon="1.58515">
        <ele>28.8</ele>
        <time>2020-06-18T15:57:21Z</time>
      </trkpt>
      <trkpt lat="50.14665" lon="1.58518">
        <ele>28.7</ele>
        <time>2020-06-18T15:57:22Z</time>
      </trkpt>
      <trkpt lat="50.14672" lon="1.5852">
        <ele>28.7</ele>
        <time>2020-06-18T15:57:23Z</time>
      </trkpt>
      <trkpt lat="50.14679" lon="1.58522">
        <ele>28.6</ele>
        <time>2020-06-18T15:57:24Z</time>
      </trkpt>
      <trkpt lat="50.14686" lon="1.58525">
        <ele>28.5</ele>
        <time>2020-06-18T15:57:25Z</time>
      </trkpt>
      <trkpt lat="50.14693" lon="1.58527">
        <ele>28.5</ele>
        <time>2020-06-18T15:57:26Z</time>
      </trkpt>
      <trkpt lat="50.147" lon="1.58529">
        <ele>28.4</ele>
        <time>2020-06-18T15:57:27Z</time>
      </trkpt>
      <trkpt lat="50.14707" lon="1.58531">
        <ele>28.3</ele>
        <time>2020-06-18T15:57:28Z</time>
      </trkpt>
      <trkpt lat="50.14714" lon="1.58534">
        <ele>28.3</ele>
        <time>2020-06-18T15:57:29Z</time>
      </trkpt>
      <trkpt lat="50.14721" lon="1.58536">
        <ele>28.2</ele>
        <time>2020-06-18T15:57:30Z</time>
      </trkpt>
      <trkpt lat="50.14728" lon="1.58538">
        <ele>28.1</ele>
        <time>2020-06-18T15:57:31Z</time>
      </trkpt>
      <trkpt lat="50.14735" lon="1.5854">
        <ele>28.1</ele>
        <time>2020-06-18T15:57:32Z</time>
      </trkpt>
      <trkpt lat="50.14742" lon="1.58542">
        <ele>28</ele>
        <time>2020-06-18T15:57:33Z</time>
      </trkpt>
      <trkpt lat="50.14749" lon="1.58545">
        <ele>27.9</ele>
        <time>2020-06-18T15:57:34Z</time>
      </trkpt>
      <trkpt lat="50.14756" lon="1.58547">
        <ele>27.8</ele>
        <time>2020-06-18T15:57:35Z</time>
      </trkpt>
      <trkpt lat="50.14763" lon="1.58549">
        <ele>27.8</ele>
        <time>2020-06-18T15:57:36Z</time>
      </trkpt>
      <trkpt lat="50.14771" lon="1.58551">
        <ele>27.7</ele>
        <time>2020-06-18T15:57:37Z</time>
      </trkpt>
      <trkpt lat="50.14778" lon="1.58553">
        <ele>27.6</ele>
        <time>2020-06-18T15:57:38Z</time>
      </trkpt>
      <trkpt lat="50.14785" lon="1.58556">
        <ele>27.5</ele>
        <time>2020-06-18T15:57:39Z</time>
      </trkpt>
      <trkpt lat="50.14792" lon="1.58558">
        <ele>27.4</ele>
        <time>2020-06-18T15:57:40Z</time>
      </trkpt>
      <trkpt lat="50.148" lon="1.5856">
        <ele>27.3</ele>
        <time>2020-06-18T15:57:41Z</time>
      </trkpt>
      <trkpt lat="50.14807" lon="1.58562">
        <ele>27.2</ele>
        <time>2020-06-18T15:57:42Z</time>
      </trkpt>
      <trkpt lat="50.14814" lon="1.58564">
        <ele>27.1</ele>
        <time>2020-06-18T15:57:43Z</time>
      </trkpt>
      <trkpt lat="50.14822" lon="1.58566">
        <ele>26.9</ele>
        <time>2020-06-18T15:57:44Z</time>
      </trkpt>
      <trkpt lat="50.1483" lon="1.58568">
        <ele>26.8</ele>
        <time>2020-06-18T15:57:45Z</time>
      </trkpt>
      <trkpt lat="50.14837" lon="1.58571">
        <ele>26.6</ele>
        <time>2020-06-18T15:57:46Z</time>
      </trkpt>
      <trkpt lat="50.14844" lon="1.58573">
        <ele>26.5</ele>
        <time>2020-06-18T15:57:47Z</time>
      </trkpt>
      <trkpt lat="50.14852" lon="1.58575">
        <ele>26.3</ele>
        <time>2020-06-18T15:57:48Z</time>
      </trkpt>
      <trkpt lat="50.14859" lon="1.58578">
        <ele>26.2</ele>
        <time>2020-06-18T15:57:49Z</time>
      </trkpt>
      <trkpt lat="50.14867" lon="1.5858">
        <ele>26.1</ele>
        <time>2020-06-18T15:57:50Z</time>
      </trkpt>
      <trkpt lat="50.14875" lon="1.58582">
        <ele>26</ele>
        <time>2020-06-18T15:57:51Z</time>
      </trkpt>
      <trkpt lat="50.14882" lon="1.58584">
        <ele>25.8</ele>
        <time>2020-06-18T15:57:52Z</time>
      </trkpt>
      <trkpt lat="50.1489" lon="1.58586">
        <ele>25.7</ele>
        <time>2020-06-18T15:57:53Z</time>
      </trkpt>
      <trkpt lat="50.14897" lon="1.58589">
        <ele>25.5</ele>
        <time>2020-06-18T15:57:54Z</time>
      </trkpt>
      <trkpt lat="50.14905" lon="1.58591">
        <ele>25.4</ele>
        <time>2020-06-18T15:57:55Z</time>
      </trkpt>
      <trkpt lat="50.14912" lon="1.58594">
        <ele>25.2</ele>
        <time>2020-06-18T15:57:56Z</time>
      </trkpt>
      <trkpt lat="50.1492" lon="1.58596">
        <ele>25.1</ele>
        <time>2020-06-18T15:57:57Z</time>
      </trkpt>
      <trkpt lat="50.14928" lon="1.58597">
        <ele>24.9</ele>
        <time>2020-06-18T15:57:58Z</time>
      </trkpt>
      <trkpt lat="50.14935" lon="1.58599">
        <ele>24.8</ele>
        <time>2020-06-18T15:57:59Z</time>
      </trkpt>
      <trkpt lat="50.14943" lon="1.58601">
        <ele>24.6</ele>
        <time>2020-06-18T15:58:00Z</time>
      </trkpt>
      <trkpt lat="50.14951" lon="1.58604">
        <ele>24.5</ele>
        <time>2020-06-18T15:58:01Z</time>
      </trkpt>
      <trkpt lat="50.14958" lon="1.58606">
        <ele>24.4</ele>
        <time>2020-06-18T15:58:02Z</time>
      </trkpt>
      <trkpt lat="50.14966" lon="1.58608">
        <ele>24.2</ele>
        <time>2020-06-18T15:58:03Z</time>
      </trkpt>
      <trkpt lat="50.14974" lon="1.5861">
        <ele>24.1</ele>
        <time>2020-06-18T15:58:04Z</time>
      </trkpt>
      <trkpt lat="50.14981" lon="1.58613">
        <ele>23.9</ele>
        <time>2020-06-18T15:58:05Z</time>
      </trkpt>
      <trkpt lat="50.14989" lon="1.58616">
        <ele>23.8</ele>
        <time>2020-06-18T15:58:06Z</time>
      </trkpt>
      <trkpt lat="50.14997" lon="1.58618">
        <ele>23.6</ele>
        <time>2020-06-18T15:58:07Z</time>
      </trkpt>
      <trkpt lat="50.15005" lon="1.5862">
        <ele>23.5</ele>
        <time>2020-06-18T15:58:08Z</time>
      </trkpt>
      <trkpt lat="50.15013" lon="1.58623">
        <ele>23.5</ele>
        <time>2020-06-18T15:58:09Z</time>
      </trkpt>
      <trkpt lat="50.1502" lon="1.58625">
        <ele>23.4</ele>
        <time>2020-06-18T15:58:10Z</time>
      </trkpt>
      <trkpt lat="50.15028" lon="1.58628">
        <ele>23.3</ele>
        <time>2020-06-18T15:58:11Z</time>
      </trkpt>
      <trkpt lat="50.15036" lon="1.5863">
        <ele>23</ele>
        <time>2020-06-18T15:58:12Z</time>
      </trkpt>
      <trkpt lat="50.15044" lon="1.58632">
        <ele>22.6</ele>
        <time>2020-06-18T15:58:13Z</time>
      </trkpt>
      <trkpt lat="50.15051" lon="1.58635">
        <ele>22.5</ele>
        <time>2020-06-18T15:58:14Z</time>
      </trkpt>
      <trkpt lat="50.15059" lon="1.58638">
        <ele>22.5</ele>
        <time>2020-06-18T15:58:15Z</time>
      </trkpt>
      <trkpt lat="50.15066" lon="1.58641">
        <ele>22.3</ele>
        <time>2020-06-18T15:58:16Z</time>
      </trkpt>
      <trkpt lat="50.15072" lon="1.58645">
        <ele>22.2</ele>
        <time>2020-06-18T15:58:17Z</time>
      </trkpt>
      <trkpt lat="50.15079" lon="1.5865">
        <ele>22.1</ele>
        <time>2020-06-18T15:58:18Z</time>
      </trkpt>
      <trkpt lat="50.15086" lon="1.58655">
        <ele>21.8</ele>
        <time>2020-06-18T15:58:19Z</time>
      </trkpt>
      <trkpt lat="50.15092" lon="1.5866">
        <ele>21.6</ele>
        <time>2020-06-18T15:58:20Z</time>
      </trkpt>
      <trkpt lat="50.15099" lon="1.58666">
        <ele>21.4</ele>
        <time>2020-06-18T15:58:21Z</time>
      </trkpt>
      <trkpt lat="50.15105" lon="1.58672">
        <ele>21.2</ele>
        <time>2020-06-18T15:58:22Z</time>
      </trkpt>
      <trkpt lat="50.15111" lon="1.58679">
        <ele>21</ele>
        <time>2020-06-18T15:58:23Z</time>
      </trkpt>
      <trkpt lat="50.15117" lon="1.58686">
        <ele>20.8</ele>
        <time>2020-06-18T15:58:24Z</time>
      </trkpt>
      <trkpt lat="50.15124" lon="1.58693">
        <ele>20.7</ele>
        <time>2020-06-18T15:58:25Z</time>
      </trkpt>
      <trkpt lat="50.15129" lon="1.587">
        <ele>20.5</ele>
        <time>2020-06-18T15:58:26Z</time>
      </trkpt>
      <trkpt lat="50.15135" lon="1.58707">
        <ele>20.3</ele>
        <time>2020-06-18T15:58:27Z</time>
      </trkpt>
      <trkpt lat="50.15141" lon="1.58715">
        <ele>20.2</ele>
        <time>2020-06-18T15:58:28Z</time>
      </trkpt>
      <trkpt lat="50.15147" lon="1.58723">
        <ele>20.1</ele>
        <time>2020-06-18T15:58:29Z</time>
      </trkpt>
      <trkpt lat="50.15154" lon="1.58731">
        <ele>19.9</ele>
        <time>2020-06-18T15:58:30Z</time>
      </trkpt>
      <trkpt lat="50.1516" lon="1.58739">
        <ele>19.7</ele>
        <time>2020-06-18T15:58:31Z</time>
      </trkpt>
      <trkpt lat="50.15166" lon="1.58747">
        <ele>19.5</ele>
        <time>2020-06-18T15:58:32Z</time>
      </trkpt>
      <trkpt lat="50.15172" lon="1.58756">
        <ele>19.4</ele>
        <time>2020-06-18T15:58:33Z</time>
      </trkpt>
      <trkpt lat="50.15179" lon="1.58764">
        <ele>19.2</ele>
        <time>2020-06-18T15:58:34Z</time>
      </trkpt>
      <trkpt lat="50.15185" lon="1.58771">
        <ele>19.1</ele>
        <time>2020-06-18T15:58:35Z</time>
      </trkpt>
      <trkpt lat="50.15191" lon="1.58779">
        <ele>18.9</ele>
        <time>2020-06-18T15:58:36Z</time>
      </trkpt>
      <trkpt lat="50.15197" lon="1.58786">
        <ele>18.7</ele>
        <time>2020-06-18T15:58:37Z</time>
      </trkpt>
      <trkpt lat="50.15203" lon="1.58794">
        <ele>18.4</ele>
        <time>2020-06-18T15:58:38Z</time>
      </trkpt>
      <trkpt lat="50.15209" lon="1.58801">
        <ele>18.2</ele>
        <time>2020-06-18T15:58:39Z</time>
      </trkpt>
      <trkpt lat="50.15215" lon="1.58809">
        <ele>18.1</ele>
        <time>2020-06-18T15:58:40Z</time>
      </trkpt>
      <trkpt lat="50.15221" lon="1.58816">
        <ele>18</ele>
        <time>2020-06-18T15:58:41Z</time>
      </trkpt>
      <trkpt lat="50.15227" lon="1.58824">
        <ele>17.8</ele>
        <time>2020-06-18T15:58:42Z</time>
      </trkpt>
      <trkpt lat="50.15233" lon="1.58831">
        <ele>17.6</ele>
        <time>2020-06-18T15:58:43Z</time>
      </trkpt>
      <trkpt lat="50.15239" lon="1.58838">
        <ele>17.4</ele>
        <time>2020-06-18T15:58:44Z</time>
      </trkpt>
      <trkpt lat="50.15245" lon="1.58846">
        <ele>17.2</ele>
        <time>2020-06-18T15:58:45Z</time>
      </trkpt>
      <trkpt lat="50.15251" lon="1.58853">
        <ele>17</ele>
        <time>2020-06-18T15:58:46Z</time>
      </trkpt>
      <trkpt lat="50.15258" lon="1.58861">
        <ele>16.8</ele>
        <time>2020-06-18T15:58:47Z</time>
      </trkpt>
      <trkpt lat="50.15265" lon="1.58868">
        <ele>16.6</ele>
        <time>2020-06-18T15:58:48Z</time>
      </trkpt>
      <trkpt lat="50.15272" lon="1.58875">
        <ele>16.4</ele>
        <time>2020-06-18T15:58:49Z</time>
      </trkpt>
      <trkpt lat="50.15279" lon="1.58881">
        <ele>16.3</ele>
        <time>2020-06-18T15:58:50Z</time>
      </trkpt>
      <trkpt lat="50.15286" lon="1.58887">
        <ele>16.2</ele>
        <time>2020-06-18T15:58:51Z</time>
      </trkpt>
      <trkpt lat="50.15293" lon="1.58891">
        <ele>16.2</ele>
        <time>2020-06-18T15:58:52Z</time>
      </trkpt>
      <trkpt lat="50.15301" lon="1.58893">
        <ele>15.8</ele>
        <time>2020-06-18T15:58:53Z</time>
      </trkpt>
      <trkpt lat="50.15309" lon="1.58894">
        <ele>15.5</ele>
        <time>2020-06-18T15:58:54Z</time>
      </trkpt>
      <trkpt lat="50.15317" lon="1.58894">
        <ele>15.3</ele>
        <time>2020-06-18T15:58:55Z</time>
      </trkpt>
      <trkpt lat="50.15325" lon="1.58894">
        <ele>15.1</ele>
        <time>2020-06-18T15:58:56Z</time>
      </trkpt>
      <trkpt lat="50.15332" lon="1.58893">
        <ele>15</ele>
        <time>2020-06-18T15:58:57Z</time>
      </trkpt>
      <trkpt lat="50.1534" lon="1.58892">
        <ele>14.9</ele>
        <time>2020-06-18T15:58:58Z</time>
      </trkpt>
      <trkpt lat="50.15347" lon="1.58891">
        <ele>14.8</ele>
        <time>2020-06-18T15:58:59Z</time>
      </trkpt>
      <trkpt lat="50.15355" lon="1.58889">
        <ele>14.7</ele>
        <time>2020-06-18T15:59:00Z</time>
      </trkpt>
      <trkpt lat="50.15362" lon="1.58888">
        <ele>14.7</ele>
        <time>2020-06-18T15:59:01Z</time>
      </trkpt>
      <trkpt lat="50.1537" lon="1.58887">
        <ele>14.6</ele>
        <time>2020-06-18T15:59:02Z</time>
      </trkpt>
      <trkpt lat="50.15378" lon="1.58886">
        <ele>14.5</ele>
        <time>2020-06-18T15:59:03Z</time>
      </trkpt>
      <trkpt lat="50.15385" lon="1.58885">
        <ele>14.4</ele>
        <time>2020-06-18T15:59:04Z</time>
      </trkpt>
      <trkpt lat="50.15393" lon="1.58883">
        <ele>14.3</ele>
        <time>2020-06-18T15:59:05Z</time>
      </trkpt>
      <trkpt lat="50.154" lon="1.58882">
        <ele>14.2</ele>
        <time>2020-06-18T15:59:06Z</time>
      </trkpt>
      <trkpt lat="50.15408" lon="1.5888">
        <ele>14.2</ele>
        <time>2020-06-18T15:59:07Z</time>
      </trkpt>
      <trkpt lat="50.15415" lon="1.58878">
        <ele>14.2</ele>
        <time>2020-06-18T15:59:08Z</time>
      </trkpt>
      <trkpt lat="50.15423" lon="1.58878">
        <ele>14.2</ele>
        <time>2020-06-18T15:59:09Z</time>
      </trkpt>
      <trkpt lat="50.15431" lon="1.58878">
        <ele>14.1</ele>
        <time>2020-06-18T15:59:10Z</time>
      </trkpt>
      <trkpt lat="50.15438" lon="1.58876">
        <ele>14.1</ele>
        <time>2020-06-18T15:59:11Z</time>
      </trkpt>
      <trkpt lat="50.15446" lon="1.58876">
        <ele>14.1</ele>
        <time>2020-06-18T15:59:12Z</time>
      </trkpt>
      <trkpt lat="50.15454" lon="1.58874">
        <ele>14</ele>
        <time>2020-06-18T15:59:13Z</time>
      </trkpt>
      <trkpt lat="50.15461" lon="1.58873">
        <ele>14</ele>
        <time>2020-06-18T15:59:14Z</time>
      </trkpt>
      <trkpt lat="50.15469" lon="1.58873">
        <ele>13.9</ele>
        <time>2020-06-18T15:59:15Z</time>
      </trkpt>
      <trkpt lat="50.15476" lon="1.58872">
        <ele>13.8</ele>
        <time>2020-06-18T15:59:16Z</time>
      </trkpt>
      <trkpt lat="50.15483" lon="1.5887">
        <ele>13.8</ele>
        <time>2020-06-18T15:59:17Z</time>
      </trkpt>
      <trkpt lat="50.15491" lon="1.58869">
        <ele>13.7</ele>
        <time>2020-06-18T15:59:18Z</time>
      </trkpt>
      <trkpt lat="50.15498" lon="1.58867">
        <ele>13.7</ele>
        <time>2020-06-18T15:59:19Z</time>
      </trkpt>
      <trkpt lat="50.15505" lon="1.58867">
        <ele>13.7</ele>
        <time>2020-06-18T15:59:20Z</time>
      </trkpt>
      <trkpt lat="50.15512" lon="1.58866">
        <ele>13.6</ele>
        <time>2020-06-18T15:59:21Z</time>
      </trkpt>
      <trkpt lat="50.15519" lon="1.58864">
        <ele>13.6</ele>
        <time>2020-06-18T15:59:22Z</time>
      </trkpt>
      <trkpt lat="50.15527" lon="1.58863">
        <ele>13.5</ele>
        <time>2020-06-18T15:59:23Z</time>
      </trkpt>
      <trkpt lat="50.15534" lon="1.58862">
        <ele>13.5</ele>
        <time>2020-06-18T15:59:24Z</time>
      </trkpt>
      <trkpt lat="50.15541" lon="1.58861">
        <ele>13.5</ele>
        <time>2020-06-18T15:59:25Z</time>
      </trkpt>
      <trkpt lat="50.15547" lon="1.58859">
        <ele>13.5</ele>
        <time>2020-06-18T15:59:26Z</time>
      </trkpt>
      <trkpt lat="50.15554" lon="1.58858">
        <ele>13.5</ele>
        <time>2020-06-18T15:59:27Z</time>
      </trkpt>
      <trkpt lat="50.15561" lon="1.58858">
        <ele>13.5</ele>
        <time>2020-06-18T15:59:28Z</time>
      </trkpt>
      <trkpt lat="50.15568" lon="1.58856">
        <ele>13.5</ele>
        <time>2020-06-18T15:59:29Z</time>
      </trkpt>
      <trkpt lat="50.15575" lon="1.58855">
        <ele>13.5</ele>
        <time>2020-06-18T15:59:30Z</time>
      </trkpt>
      <trkpt lat="50.15582" lon="1.58854">
        <ele>13.5</ele>
        <time>2020-06-18T15:59:31Z</time>
      </trkpt>
      <trkpt lat="50.15589" lon="1.58853">
        <ele>13.4</ele>
        <time>2020-06-18T15:59:32Z</time>
      </trkpt>
      <trkpt lat="50.15596" lon="1.58852">
        <ele>13.4</ele>
        <time>2020-06-18T15:59:33Z</time>
      </trkpt>
      <trkpt lat="50.15603" lon="1.58851">
        <ele>13.3</ele>
        <time>2020-06-18T15:59:34Z</time>
      </trkpt>
      <trkpt lat="50.15611" lon="1.5885">
        <ele>13.3</ele>
        <time>2020-06-18T15:59:35Z</time>
      </trkpt>
      <trkpt lat="50.15618" lon="1.58849">
        <ele>13.3</ele>
        <time>2020-06-18T15:59:36Z</time>
      </trkpt>
      <trkpt lat="50.15625" lon="1.58847">
        <ele>13.3</ele>
        <time>2020-06-18T15:59:37Z</time>
      </trkpt>
      <trkpt lat="50.15632" lon="1.58847">
        <ele>13.2</ele>
        <time>2020-06-18T15:59:38Z</time>
      </trkpt>
      <trkpt lat="50.1564" lon="1.58845">
        <ele>13.2</ele>
        <time>2020-06-18T15:59:39Z</time>
      </trkpt>
      <trkpt lat="50.15647" lon="1.58844">
        <ele>13.2</ele>
        <time>2020-06-18T15:59:40Z</time>
      </trkpt>
      <trkpt lat="50.15655" lon="1.58843">
        <ele>13.1</ele>
        <time>2020-06-18T15:59:41Z</time>
      </trkpt>
      <trkpt lat="50.15662" lon="1.58843">
        <ele>13.1</ele>
        <time>2020-06-18T15:59:42Z</time>
      </trkpt>
      <trkpt lat="50.15669" lon="1.58842">
        <ele>13.1</ele>
        <time>2020-06-18T15:59:43Z</time>
      </trkpt>
      <trkpt lat="50.15677" lon="1.5884">
        <ele>13</ele>
        <time>2020-06-18T15:59:44Z</time>
      </trkpt>
      <trkpt lat="50.15684" lon="1.5884">
        <ele>13</ele>
        <time>2020-06-18T15:59:45Z</time>
      </trkpt>
      <trkpt lat="50.15691" lon="1.58839">
        <ele>13</ele>
        <time>2020-06-18T15:59:46Z</time>
      </trkpt>
      <trkpt lat="50.15698" lon="1.58838">
        <ele>13</ele>
        <time>2020-06-18T15:59:47Z</time>
      </trkpt>
      <trkpt lat="50.15705" lon="1.58837">
        <ele>13</ele>
        <time>2020-06-18T15:59:48Z</time>
      </trkpt>
      <trkpt lat="50.15712" lon="1.58836">
        <ele>12.8</ele>
        <time>2020-06-18T15:59:49Z</time>
      </trkpt>
      <trkpt lat="50.15719" lon="1.58835">
        <ele>12.6</ele>
        <time>2020-06-18T15:59:50Z</time>
      </trkpt>
      <trkpt lat="50.15726" lon="1.58835">
        <ele>11.9</ele>
        <time>2020-06-18T15:59:51Z</time>
      </trkpt>
      <trkpt lat="50.15733" lon="1.58833">
        <ele>11.2</ele>
        <time>2020-06-18T15:59:52Z</time>
      </trkpt>
      <trkpt lat="50.1574" lon="1.58832">
        <ele>11</ele>
        <time>2020-06-18T15:59:53Z</time>
      </trkpt>
      <trkpt lat="50.15747" lon="1.5883">
        <ele>10.9</ele>
        <time>2020-06-18T15:59:54Z</time>
      </trkpt>
      <trkpt lat="50.15754" lon="1.58829">
        <ele>10.8</ele>
        <time>2020-06-18T15:59:55Z</time>
      </trkpt>
      <trkpt lat="50.15761" lon="1.58827">
        <ele>10.7</ele>
        <time>2020-06-18T15:59:56Z</time>
      </trkpt>
      <trkpt lat="50.15769" lon="1.58826">
        <ele>10.5</ele>
        <time>2020-06-18T15:59:57Z</time>
      </trkpt>
      <trkpt lat="50.15776" lon="1.58824">
        <ele>10.4</ele>
        <time>2020-06-18T15:59:58Z</time>
      </trkpt>
      <trkpt lat="50.15784" lon="1.58824">
        <ele>10.3</ele>
        <time>2020-06-18T15:59:59Z</time>
      </trkpt>
      <trkpt lat="50.15792" lon="1.58826">
        <ele>10.2</ele>
        <time>2020-06-18T16:00:00Z</time>
      </trkpt>
      <trkpt lat="50.15799" lon="1.58826">
        <ele>10.2</ele>
        <time>2020-06-18T16:00:01Z</time>
      </trkpt>
      <trkpt lat="50.15806" lon="1.58825">
        <ele>10.2</ele>
        <time>2020-06-18T16:00:02Z</time>
      </trkpt>
      <trkpt lat="50.15813" lon="1.58823">
        <ele>10.1</ele>
        <time>2020-06-18T16:00:03Z</time>
      </trkpt>
      <trkpt lat="50.1582" lon="1.58822">
        <ele>10.1</ele>
        <time>2020-06-18T16:00:04Z</time>
      </trkpt>
      <trkpt lat="50.15827" lon="1.5882">
        <ele>10.1</ele>
        <time>2020-06-18T16:00:05Z</time>
      </trkpt>
      <trkpt lat="50.15834" lon="1.58818">
        <ele>10</ele>
        <time>2020-06-18T16:00:06Z</time>
      </trkpt>
      <trkpt lat="50.15841" lon="1.58818">
        <ele>10</ele>
        <time>2020-06-18T16:00:07Z</time>
      </trkpt>
      <trkpt lat="50.15848" lon="1.58817">
        <ele>10</ele>
        <time>2020-06-18T16:00:08Z</time>
      </trkpt>
      <trkpt lat="50.15855" lon="1.58816">
        <ele>10.1</ele>
        <time>2020-06-18T16:00:09Z</time>
      </trkpt>
      <trkpt lat="50.15862" lon="1.58815">
        <ele>10.2</ele>
        <time>2020-06-18T16:00:10Z</time>
      </trkpt>
      <trkpt lat="50.15868" lon="1.58815">
        <ele>10.1</ele>
        <time>2020-06-18T16:00:11Z</time>
      </trkpt>
      <trkpt lat="50.15875" lon="1.58813">
        <ele>10.1</ele>
        <time>2020-06-18T16:00:12Z</time>
      </trkpt>
      <trkpt lat="50.15882" lon="1.58812">
        <ele>10.1</ele>
        <time>2020-06-18T16:00:13Z</time>
      </trkpt>
      <trkpt lat="50.15889" lon="1.58812">
        <ele>10</ele>
        <time>2020-06-18T16:00:14Z</time>
      </trkpt>
      <trkpt lat="50.15897" lon="1.5881">
        <ele>9.9</ele>
        <time>2020-06-18T16:00:15Z</time>
      </trkpt>
      <trkpt lat="50.15904" lon="1.58808">
        <ele>9.8</ele>
        <time>2020-06-18T16:00:16Z</time>
      </trkpt>
      <trkpt lat="50.15911" lon="1.58806">
        <ele>9.7</ele>
        <time>2020-06-18T16:00:17Z</time>
      </trkpt>
      <trkpt lat="50.15918" lon="1.58804">
        <ele>9.5</ele>
        <time>2020-06-18T16:00:18Z</time>
      </trkpt>
      <trkpt lat="50.15925" lon="1.58803">
        <ele>9.3</ele>
        <time>2020-06-18T16:00:19Z</time>
      </trkpt>
      <trkpt lat="50.15933" lon="1.58801">
        <ele>9.2</ele>
        <time>2020-06-18T16:00:20Z</time>
      </trkpt>
      <trkpt lat="50.1594" lon="1.588">
        <ele>9.1</ele>
        <time>2020-06-18T16:00:21Z</time>
      </trkpt>
      <trkpt lat="50.15948" lon="1.588">
        <ele>9</ele>
        <time>2020-06-18T16:00:22Z</time>
      </trkpt>
      <trkpt lat="50.15955" lon="1.58798">
        <ele>8.9</ele>
        <time>2020-06-18T16:00:23Z</time>
      </trkpt>
      <trkpt lat="50.15962" lon="1.58795">
        <ele>8.8</ele>
        <time>2020-06-18T16:00:24Z</time>
      </trkpt>
      <trkpt lat="50.15969" lon="1.58794">
        <ele>8.7</ele>
        <time>2020-06-18T16:00:25Z</time>
      </trkpt>
      <trkpt lat="50.15976" lon="1.58794">
        <ele>8.6</ele>
        <time>2020-06-18T16:00:26Z</time>
      </trkpt>
      <trkpt lat="50.15984" lon="1.58794">
        <ele>8.5</ele>
        <time>2020-06-18T16:00:27Z</time>
      </trkpt>
      <trkpt lat="50.15991" lon="1.58793">
        <ele>8.5</ele>
        <time>2020-06-18T16:00:28Z</time>
      </trkpt>
      <trkpt lat="50.15998" lon="1.58792">
        <ele>8.4</ele>
        <time>2020-06-18T16:00:29Z</time>
      </trkpt>
      <trkpt lat="50.16005" lon="1.58791">
        <ele>8.3</ele>
        <time>2020-06-18T16:00:30Z</time>
      </trkpt>
      <trkpt lat="50.16012" lon="1.58791">
        <ele>8.2</ele>
        <time>2020-06-18T16:00:31Z</time>
      </trkpt>
      <trkpt lat="50.1602" lon="1.58788">
        <ele>8.2</ele>
        <time>2020-06-18T16:00:32Z</time>
      </trkpt>
      <trkpt lat="50.16027" lon="1.58787">
        <ele>8.1</ele>
        <time>2020-06-18T16:00:33Z</time>
      </trkpt>
      <trkpt lat="50.16035" lon="1.58787">
        <ele>8.1</ele>
        <time>2020-06-18T16:00:34Z</time>
      </trkpt>
      <trkpt lat="50.16042" lon="1.58786">
        <ele>8.1</ele>
        <time>2020-06-18T16:00:35Z</time>
      </trkpt>
      <trkpt lat="50.1605" lon="1.58785">
        <ele>8</ele>
        <time>2020-06-18T16:00:36Z</time>
      </trkpt>
      <trkpt lat="50.16057" lon="1.58783">
        <ele>8</ele>
        <time>2020-06-18T16:00:37Z</time>
      </trkpt>
      <trkpt lat="50.16064" lon="1.58782">
        <ele>7.9</ele>
        <time>2020-06-18T16:00:38Z</time>
      </trkpt>
      <trkpt lat="50.16072" lon="1.58781">
        <ele>7.9</ele>
        <time>2020-06-18T16:00:39Z</time>
      </trkpt>
      <trkpt lat="50.16079" lon="1.5878">
        <ele>7.8</ele>
        <time>2020-06-18T16:00:40Z</time>
      </trkpt>
      <trkpt lat="50.16086" lon="1.58779">
        <ele>7.7</ele>
        <time>2020-06-18T16:00:41Z</time>
      </trkpt>
      <trkpt lat="50.16093" lon="1.58779">
        <ele>7.7</ele>
        <time>2020-06-18T16:00:42Z</time>
      </trkpt>
      <trkpt lat="50.16101" lon="1.58777">
        <ele>7.7</ele>
        <time>2020-06-18T16:00:43Z</time>
      </trkpt>
      <trkpt lat="50.16108" lon="1.58775">
        <ele>7.5</ele>
        <time>2020-06-18T16:00:44Z</time>
      </trkpt>
      <trkpt lat="50.16115" lon="1.58774">
        <ele>7.1</ele>
        <time>2020-06-18T16:00:45Z</time>
      </trkpt>
      <trkpt lat="50.16123" lon="1.58773">
        <ele>6.8</ele>
        <time>2020-06-18T16:00:46Z</time>
      </trkpt>
      <trkpt lat="50.1613" lon="1.58772">
        <ele>6.7</ele>
        <time>2020-06-18T16:00:47Z</time>
      </trkpt>
      <trkpt lat="50.16137" lon="1.5877">
        <ele>6.6</ele>
        <time>2020-06-18T16:00:48Z</time>
      </trkpt>
      <trkpt lat="50.16144" lon="1.58769">
        <ele>6.5</ele>
        <time>2020-06-18T16:00:49Z</time>
      </trkpt>
      <trkpt lat="50.16152" lon="1.58768">
        <ele>6.5</ele>
        <time>2020-06-18T16:00:50Z</time>
      </trkpt>
      <trkpt lat="50.1616" lon="1.58767">
        <ele>6.4</ele>
        <time>2020-06-18T16:00:51Z</time>
      </trkpt>
      <trkpt lat="50.16167" lon="1.58767">
        <ele>6.4</ele>
        <time>2020-06-18T16:00:52Z</time>
      </trkpt>
      <trkpt lat="50.16174" lon="1.58765">
        <ele>6.3</ele>
        <time>2020-06-18T16:00:53Z</time>
      </trkpt>
      <trkpt lat="50.16182" lon="1.58763">
        <ele>6.2</ele>
        <time>2020-06-18T16:00:54Z</time>
      </trkpt>
      <trkpt lat="50.16189" lon="1.58762">
        <ele>6.2</ele>
        <time>2020-06-18T16:00:55Z</time>
      </trkpt>
      <trkpt lat="50.16197" lon="1.58761">
        <ele>6.2</ele>
        <time>2020-06-18T16:00:56Z</time>
      </trkpt>
      <trkpt lat="50.16204" lon="1.5876">
        <ele>6.2</ele>
        <time>2020-06-18T16:00:57Z</time>
      </trkpt>
      <trkpt lat="50.16211" lon="1.5876">
        <ele>6.3</ele>
        <time>2020-06-18T16:00:58Z</time>
      </trkpt>
      <trkpt lat="50.16218" lon="1.58761">
        <ele>6.3</ele>
        <time>2020-06-18T16:00:59Z</time>
      </trkpt>
      <trkpt lat="50.16224" lon="1.58763">
        <ele>6.3</ele>
        <time>2020-06-18T16:01:00Z</time>
      </trkpt>
      <trkpt lat="50.16229" lon="1.58767">
        <ele>6.3</ele>
        <time>2020-06-18T16:01:01Z</time>
      </trkpt>
      <trkpt lat="50.16233" lon="1.58773">
        <ele>6.3</ele>
        <time>2020-06-18T16:01:02Z</time>
      </trkpt>
      <trkpt lat="50.16234" lon="1.58782">
        <ele>6.3</ele>
        <time>2020-06-18T16:01:03Z</time>
      </trkpt>
      <trkpt lat="50.16236" lon="1.58792">
        <ele>6.3</ele>
        <time>2020-06-18T16:01:04Z</time>
      </trkpt>
      <trkpt lat="50.16238" lon="1.58802">
        <ele>6.3</ele>
        <time>2020-06-18T16:01:05Z</time>
      </trkpt>
      <trkpt lat="50.1624" lon="1.58812">
        <ele>6.3</ele>
        <time>2020-06-18T16:01:06Z</time>
      </trkpt>
      <trkpt lat="50.16241" lon="1.58822">
        <ele>6.1</ele>
        <time>2020-06-18T16:01:07Z</time>
      </trkpt>
      <trkpt lat="50.16243" lon="1.58832">
        <ele>6.1</ele>
        <time>2020-06-18T16:01:08Z</time>
      </trkpt>
      <trkpt lat="50.16245" lon="1.58843">
        <ele>6.1</ele>
        <time>2020-06-18T16:01:09Z</time>
      </trkpt>
      <trkpt lat="50.16247" lon="1.58853">
        <ele>6.1</ele>
        <time>2020-06-18T16:01:10Z</time>
      </trkpt>
      <trkpt lat="50.16248" lon="1.58864">
        <ele>6.2</ele>
        <time>2020-06-18T16:01:11Z</time>
      </trkpt>
      <trkpt lat="50.16249" lon="1.58875">
        <ele>6.3</ele>
        <time>2020-06-18T16:01:12Z</time>
      </trkpt>
      <trkpt lat="50.16251" lon="1.58885">
        <ele>6.3</ele>
        <time>2020-06-18T16:01:13Z</time>
      </trkpt>
      <trkpt lat="50.16251" lon="1.58897">
        <ele>6.4</ele>
        <time>2020-06-18T16:01:14Z</time>
      </trkpt>
      <trkpt lat="50.16254" lon="1.58907">
        <ele>6.5</ele>
        <time>2020-06-18T16:01:15Z</time>
      </trkpt>
      <trkpt lat="50.16256" lon="1.58917">
        <ele>6.5</ele>
        <time>2020-06-18T16:01:16Z</time>
      </trkpt>
      <trkpt lat="50.16256" lon="1.58928">
        <ele>6.6</ele>
        <time>2020-06-18T16:01:17Z</time>
      </trkpt>
      <trkpt lat="50.16257" lon="1.58939">
        <ele>6.8</ele>
        <time>2020-06-18T16:01:18Z</time>
      </trkpt>
      <trkpt lat="50.16259" lon="1.58949">
        <ele>6.9</ele>
        <time>2020-06-18T16:01:19Z</time>
      </trkpt>
      <trkpt lat="50.16261" lon="1.5896">
        <ele>7</ele>
        <time>2020-06-18T16:01:20Z</time>
      </trkpt>
      <trkpt lat="50.16263" lon="1.5897">
        <ele>7.1</ele>
        <time>2020-06-18T16:01:21Z</time>
      </trkpt>
      <trkpt lat="50.16265" lon="1.58981">
        <ele>7.1</ele>
        <time>2020-06-18T16:01:22Z</time>
      </trkpt>
      <trkpt lat="50.16267" lon="1.58991">
        <ele>7.2</ele>
        <time>2020-06-18T16:01:23Z</time>
      </trkpt>
      <trkpt lat="50.16269" lon="1.59002">
        <ele>7.3</ele>
        <time>2020-06-18T16:01:24Z</time>
      </trkpt>
      <trkpt lat="50.16271" lon="1.59012">
        <ele>7.5</ele>
        <time>2020-06-18T16:01:25Z</time>
      </trkpt>
      <trkpt lat="50.16273" lon="1.59023">
        <ele>7.6</ele>
        <time>2020-06-18T16:01:26Z</time>
      </trkpt>
      <trkpt lat="50.16275" lon="1.59033">
        <ele>7.7</ele>
        <time>2020-06-18T16:01:27Z</time>
      </trkpt>
      <trkpt lat="50.16277" lon="1.59044">
        <ele>7.8</ele>
        <time>2020-06-18T16:01:28Z</time>
      </trkpt>
      <trkpt lat="50.1628" lon="1.59054">
        <ele>7.9</ele>
        <time>2020-06-18T16:01:29Z</time>
      </trkpt>
      <trkpt lat="50.16283" lon="1.59063">
        <ele>7.9</ele>
        <time>2020-06-18T16:01:30Z</time>
      </trkpt>
      <trkpt lat="50.16286" lon="1.59073">
        <ele>8</ele>
        <time>2020-06-18T16:01:31Z</time>
      </trkpt>
      <trkpt lat="50.16289" lon="1.59083">
        <ele>8.1</ele>
        <time>2020-06-18T16:01:32Z</time>
      </trkpt>
      <trkpt lat="50.16292" lon="1.59093">
        <ele>8.2</ele>
        <time>2020-06-18T16:01:33Z</time>
      </trkpt>
      <trkpt lat="50.16294" lon="1.59104">
        <ele>8.3</ele>
        <time>2020-06-18T16:01:34Z</time>
      </trkpt>
      <trkpt lat="50.16297" lon="1.59114">
        <ele>8.4</ele>
        <time>2020-06-18T16:01:35Z</time>
      </trkpt>
      <trkpt lat="50.16301" lon="1.59123">
        <ele>8.5</ele>
        <time>2020-06-18T16:01:36Z</time>
      </trkpt>
      <trkpt lat="50.16305" lon="1.59133">
        <ele>8.5</ele>
        <time>2020-06-18T16:01:37Z</time>
      </trkpt>
      <trkpt lat="50.16308" lon="1.59143">
        <ele>8.6</ele>
        <time>2020-06-18T16:01:38Z</time>
      </trkpt>
      <trkpt lat="50.16312" lon="1.59154">
        <ele>8.6</ele>
        <time>2020-06-18T16:01:39Z</time>
      </trkpt>
      <trkpt lat="50.16315" lon="1.59164">
        <ele>8.7</ele>
        <time>2020-06-18T16:01:40Z</time>
      </trkpt>
      <trkpt lat="50.16319" lon="1.59173">
        <ele>8.8</ele>
        <time>2020-06-18T16:01:41Z</time>
      </trkpt>
      <trkpt lat="50.16323" lon="1.59183">
        <ele>8.8</ele>
        <time>2020-06-18T16:01:42Z</time>
      </trkpt>
      <trkpt lat="50.16327" lon="1.59193">
        <ele>8.8</ele>
        <time>2020-06-18T16:01:43Z</time>
      </trkpt>
      <trkpt lat="50.1633" lon="1.59203">
        <ele>8.6</ele>
        <time>2020-06-18T16:01:44Z</time>
      </trkpt>
      <trkpt lat="50.16334" lon="1.59213">
        <ele>8.5</ele>
        <time>2020-06-18T16:01:45Z</time>
      </trkpt>
      <trkpt lat="50.16337" lon="1.59223">
        <ele>8.4</ele>
        <time>2020-06-18T16:01:46Z</time>
      </trkpt>
      <trkpt lat="50.16341" lon="1.59233">
        <ele>8.4</ele>
        <time>2020-06-18T16:01:47Z</time>
      </trkpt>
      <trkpt lat="50.16344" lon="1.59243">
        <ele>8.3</ele>
        <time>2020-06-18T16:01:48Z</time>
      </trkpt>
      <trkpt lat="50.16347" lon="1.59254">
        <ele>8.2</ele>
        <time>2020-06-18T16:01:49Z</time>
      </trkpt>
      <trkpt lat="50.16351" lon="1.59263">
        <ele>8.2</ele>
        <time>2020-06-18T16:01:50Z</time>
      </trkpt>
      <trkpt lat="50.16355" lon="1.59273">
        <ele>8.2</ele>
        <time>2020-06-18T16:01:51Z</time>
      </trkpt>
      <trkpt lat="50.16359" lon="1.59283">
        <ele>8.1</ele>
        <time>2020-06-18T16:01:52Z</time>
      </trkpt>
      <trkpt lat="50.16363" lon="1.59294">
        <ele>8.2</ele>
        <time>2020-06-18T16:01:53Z</time>
      </trkpt>
      <trkpt lat="50.16366" lon="1.59304">
        <ele>8.2</ele>
        <time>2020-06-18T16:01:54Z</time>
      </trkpt>
      <trkpt lat="50.1637" lon="1.59314">
        <ele>8</ele>
        <time>2020-06-18T16:01:55Z</time>
      </trkpt>
      <trkpt lat="50.16373" lon="1.59324">
        <ele>7.9</ele>
        <time>2020-06-18T16:01:56Z</time>
      </trkpt>
      <trkpt lat="50.16377" lon="1.59334">
        <ele>7.8</ele>
        <time>2020-06-18T16:01:57Z</time>
      </trkpt>
      <trkpt lat="50.16381" lon="1.59344">
        <ele>7.7</ele>
        <time>2020-06-18T16:01:58Z</time>
      </trkpt>
      <trkpt lat="50.16385" lon="1.59354">
        <ele>7.7</ele>
        <time>2020-06-18T16:01:59Z</time>
      </trkpt>
      <trkpt lat="50.16389" lon="1.59365">
        <ele>7.6</ele>
        <time>2020-06-18T16:02:00Z</time>
      </trkpt>
      <trkpt lat="50.16393" lon="1.59375">
        <ele>7.6</ele>
        <time>2020-06-18T16:02:01Z</time>
      </trkpt>
      <trkpt lat="50.16396" lon="1.59385">
        <ele>7.6</ele>
        <time>2020-06-18T16:02:02Z</time>
      </trkpt>
      <trkpt lat="50.164" lon="1.59395">
        <ele>7.5</ele>
        <time>2020-06-18T16:02:03Z</time>
      </trkpt>
      <trkpt lat="50.16404" lon="1.59405">
        <ele>7.5</ele>
        <time>2020-06-18T16:02:04Z</time>
      </trkpt>
      <trkpt lat="50.16408" lon="1.59416">
        <ele>7.5</ele>
        <time>2020-06-18T16:02:05Z</time>
      </trkpt>
      <trkpt lat="50.16412" lon="1.59426">
        <ele>7.5</ele>
        <time>2020-06-18T16:02:06Z</time>
      </trkpt>
      <trkpt lat="50.16416" lon="1.59436">
        <ele>7.5</ele>
        <time>2020-06-18T16:02:07Z</time>
      </trkpt>
      <trkpt lat="50.16419" lon="1.59447">
        <ele>7.4</ele>
        <time>2020-06-18T16:02:08Z</time>
      </trkpt>
      <trkpt lat="50.16423" lon="1.59457">
        <ele>7.3</ele>
        <time>2020-06-18T16:02:09Z</time>
      </trkpt>
      <trkpt lat="50.16428" lon="1.59467">
        <ele>7.2</ele>
        <time>2020-06-18T16:02:10Z</time>
      </trkpt>
      <trkpt lat="50.16432" lon="1.59477">
        <ele>7.1</ele>
        <time>2020-06-18T16:02:11Z</time>
      </trkpt>
      <trkpt lat="50.16437" lon="1.59487">
        <ele>7.1</ele>
        <time>2020-06-18T16:02:12Z</time>
      </trkpt>
      <trkpt lat="50.16441" lon="1.59497">
        <ele>7</ele>
        <time>2020-06-18T16:02:13Z</time>
      </trkpt>
      <trkpt lat="50.16446" lon="1.59506">
        <ele>7</ele>
        <time>2020-06-18T16:02:14Z</time>
      </trkpt>
      <trkpt lat="50.16451" lon="1.59517">
        <ele>6.9</ele>
        <time>2020-06-18T16:02:15Z</time>
      </trkpt>
      <trkpt lat="50.16456" lon="1.59526">
        <ele>6.8</ele>
        <time>2020-06-18T16:02:16Z</time>
      </trkpt>
      <trkpt lat="50.16462" lon="1.59535">
        <ele>6.7</ele>
        <time>2020-06-18T16:02:17Z</time>
      </trkpt>
      <trkpt lat="50.16468" lon="1.59544">
        <ele>6.7</ele>
        <time>2020-06-18T16:02:18Z</time>
      </trkpt>
      <trkpt lat="50.16473" lon="1.59554">
        <ele>6.7</ele>
        <time>2020-06-18T16:02:19Z</time>
      </trkpt>
      <trkpt lat="50.16478" lon="1.59562">
        <ele>6.7</ele>
        <time>2020-06-18T16:02:20Z</time>
      </trkpt>
      <trkpt lat="50.16484" lon="1.59571">
        <ele>6.6</ele>
        <time>2020-06-18T16:02:21Z</time>
      </trkpt>
      <trkpt lat="50.16489" lon="1.5958">
        <ele>6.7</ele>
        <time>2020-06-18T16:02:22Z</time>
      </trkpt>
      <trkpt lat="50.16494" lon="1.59588">
        <ele>6.8</ele>
        <time>2020-06-18T16:02:23Z</time>
      </trkpt>
      <trkpt lat="50.16499" lon="1.59597">
        <ele>7</ele>
        <time>2020-06-18T16:02:24Z</time>
      </trkpt>
      <trkpt lat="50.16505" lon="1.59605">
        <ele>6.9</ele>
        <time>2020-06-18T16:02:25Z</time>
      </trkpt>
      <trkpt lat="50.16511" lon="1.59612">
        <ele>6.8</ele>
        <time>2020-06-18T16:02:26Z</time>
      </trkpt>
      <trkpt lat="50.16517" lon="1.5962">
        <ele>6.8</ele>
        <time>2020-06-18T16:02:27Z</time>
      </trkpt>
      <trkpt lat="50.16522" lon="1.59628">
        <ele>6.8</ele>
        <time>2020-06-18T16:02:28Z</time>
      </trkpt>
      <trkpt lat="50.16528" lon="1.59635">
        <ele>6.9</ele>
        <time>2020-06-18T16:02:29Z</time>
      </trkpt>
      <trkpt lat="50.16534" lon="1.59643">
        <ele>6.9</ele>
        <time>2020-06-18T16:02:30Z</time>
      </trkpt>
      <trkpt lat="50.16539" lon="1.5965">
        <ele>7</ele>
        <time>2020-06-18T16:02:31Z</time>
      </trkpt>
      <trkpt lat="50.16544" lon="1.59658">
        <ele>7.1</ele>
        <time>2020-06-18T16:02:32Z</time>
      </trkpt>
      <trkpt lat="50.1655" lon="1.59665">
        <ele>7.2</ele>
        <time>2020-06-18T16:02:33Z</time>
      </trkpt>
      <trkpt lat="50.16556" lon="1.59672">
        <ele>7.4</ele>
        <time>2020-06-18T16:02:34Z</time>
      </trkpt>
      <trkpt lat="50.16561" lon="1.59679">
        <ele>7.5</ele>
        <time>2020-06-18T16:02:35Z</time>
      </trkpt>
      <trkpt lat="50.16567" lon="1.59686">
        <ele>7.6</ele>
        <time>2020-06-18T16:02:36Z</time>
      </trkpt>
      <trkpt lat="50.16572" lon="1.59692">
        <ele>7.8</ele>
        <time>2020-06-18T16:02:37Z</time>
      </trkpt>
      <trkpt lat="50.16577" lon="1.59699">
        <ele>7.9</ele>
        <time>2020-06-18T16:02:38Z</time>
      </trkpt>
      <trkpt lat="50.16583" lon="1.59706">
        <ele>8</ele>
        <time>2020-06-18T16:02:39Z</time>
      </trkpt>
      <trkpt lat="50.16588" lon="1.59712">
        <ele>8.1</ele>
        <time>2020-06-18T16:02:40Z</time>
      </trkpt>
      <trkpt lat="50.16594" lon="1.59718">
        <ele>8.2</ele>
        <time>2020-06-18T16:02:41Z</time>
      </trkpt>
      <trkpt lat="50.16599" lon="1.59725">
        <ele>8.3</ele>
        <time>2020-06-18T16:02:42Z</time>
      </trkpt>
      <trkpt lat="50.16604" lon="1.59732">
        <ele>8.4</ele>
        <time>2020-06-18T16:02:43Z</time>
      </trkpt>
      <trkpt lat="50.16609" lon="1.59739">
        <ele>8.6</ele>
        <time>2020-06-18T16:02:44Z</time>
      </trkpt>
      <trkpt lat="50.16615" lon="1.59745">
        <ele>8.7</ele>
        <time>2020-06-18T16:02:45Z</time>
      </trkpt>
      <trkpt lat="50.1662" lon="1.59751">
        <ele>8.8</ele>
        <time>2020-06-18T16:02:46Z</time>
      </trkpt>
      <trkpt lat="50.16626" lon="1.59758">
        <ele>8.9</ele>
        <time>2020-06-18T16:02:47Z</time>
      </trkpt>
      <trkpt lat="50.16631" lon="1.59764">
        <ele>9</ele>
        <time>2020-06-18T16:02:48Z</time>
      </trkpt>
      <trkpt lat="50.16636" lon="1.59771">
        <ele>9.1</ele>
        <time>2020-06-18T16:02:49Z</time>
      </trkpt>
      <trkpt lat="50.16641" lon="1.59777">
        <ele>9.1</ele>
        <time>2020-06-18T16:02:50Z</time>
      </trkpt>
      <trkpt lat="50.16647" lon="1.59784">
        <ele>9.3</ele>
        <time>2020-06-18T16:02:51Z</time>
      </trkpt>
      <trkpt lat="50.16651" lon="1.59791">
        <ele>9.4</ele>
        <time>2020-06-18T16:02:52Z</time>
      </trkpt>
      <trkpt lat="50.16657" lon="1.59796">
        <ele>9.5</ele>
        <time>2020-06-18T16:02:53Z</time>
      </trkpt>
      <trkpt lat="50.16661" lon="1.59802">
        <ele>9.6</ele>
        <time>2020-06-18T16:02:54Z</time>
      </trkpt>
      <trkpt lat="50.16666" lon="1.59809">
        <ele>9.7</ele>
        <time>2020-06-18T16:02:55Z</time>
      </trkpt>
      <trkpt lat="50.16671" lon="1.59814">
        <ele>9.8</ele>
        <time>2020-06-18T16:02:56Z</time>
      </trkpt>
      <trkpt lat="50.16676" lon="1.59821">
        <ele>9.9</ele>
        <time>2020-06-18T16:02:57Z</time>
      </trkpt>
      <trkpt lat="50.16681" lon="1.59827">
        <ele>10</ele>
        <time>2020-06-18T16:02:58Z</time>
      </trkpt>
      <trkpt lat="50.16685" lon="1.59833">
        <ele>10</ele>
        <time>2020-06-18T16:02:59Z</time>
      </trkpt>
      <trkpt lat="50.16689" lon="1.59839">
        <ele>10.1</ele>
        <time>2020-06-18T16:03:00Z</time>
      </trkpt>
      <trkpt lat="50.16694" lon="1.59844">
        <ele>10.2</ele>
        <time>2020-06-18T16:03:01Z</time>
      </trkpt>
      <trkpt lat="50.16699" lon="1.5985">
        <ele>10.3</ele>
        <time>2020-06-18T16:03:02Z</time>
      </trkpt>
      <trkpt lat="50.16704" lon="1.59855">
        <ele>10.4</ele>
        <time>2020-06-18T16:03:03Z</time>
      </trkpt>
      <trkpt lat="50.16708" lon="1.5986">
        <ele>10.6</ele>
        <time>2020-06-18T16:03:04Z</time>
      </trkpt>
      <trkpt lat="50.16713" lon="1.59865">
        <ele>10.7</ele>
        <time>2020-06-18T16:03:05Z</time>
      </trkpt>
      <trkpt lat="50.16716" lon="1.59871">
        <ele>10.8</ele>
        <time>2020-06-18T16:03:06Z</time>
      </trkpt>
      <trkpt lat="50.16721" lon="1.59876">
        <ele>10.9</ele>
        <time>2020-06-18T16:03:07Z</time>
      </trkpt>
      <trkpt lat="50.16725" lon="1.59881">
        <ele>10.9</ele>
        <time>2020-06-18T16:03:08Z</time>
      </trkpt>
      <trkpt lat="50.16728" lon="1.59886">
        <ele>10.9</ele>
        <time>2020-06-18T16:03:09Z</time>
      </trkpt>
      <trkpt lat="50.16732" lon="1.59891">
        <ele>11</ele>
        <time>2020-06-18T16:03:10Z</time>
      </trkpt>
      <trkpt lat="50.16736" lon="1.59896">
        <ele>11</ele>
        <time>2020-06-18T16:03:11Z</time>
      </trkpt>
      <trkpt lat="50.16741" lon="1.59901">
        <ele>11</ele>
        <time>2020-06-18T16:03:12Z</time>
      </trkpt>
      <trkpt lat="50.16745" lon="1.59909">
        <ele>11.1</ele>
        <time>2020-06-18T16:03:13Z</time>
      </trkpt>
      <trkpt lat="50.1675" lon="1.59916">
        <ele>11.1</ele>
        <time>2020-06-18T16:03:14Z</time>
      </trkpt>
      <trkpt lat="50.16755" lon="1.59922">
        <ele>11.1</ele>
        <time>2020-06-18T16:03:15Z</time>
      </trkpt>
      <trkpt lat="50.1676" lon="1.59929">
        <ele>11.1</ele>
        <time>2020-06-18T16:03:16Z</time>
      </trkpt>
      <trkpt lat="50.16764" lon="1.59935">
        <ele>11.1</ele>
        <time>2020-06-18T16:03:17Z</time>
      </trkpt>
      <trkpt lat="50.16768" lon="1.5994">
        <ele>11.1</ele>
        <time>2020-06-18T16:03:18Z</time>
      </trkpt>
      <trkpt lat="50.16772" lon="1.59944">
        <ele>11.1</ele>
        <time>2020-06-18T16:03:19Z</time>
      </trkpt>
      <trkpt lat="50.16777" lon="1.5995">
        <ele>11</ele>
        <time>2020-06-18T16:03:20Z</time>
      </trkpt>
      <trkpt lat="50.16782" lon="1.59956">
        <ele>10.9</ele>
        <time>2020-06-18T16:03:21Z</time>
      </trkpt>
      <trkpt lat="50.16787" lon="1.59963">
        <ele>10.9</ele>
        <time>2020-06-18T16:03:22Z</time>
      </trkpt>
      <trkpt lat="50.16792" lon="1.59969">
        <ele>10.8</ele>
        <time>2020-06-18T16:03:23Z</time>
      </trkpt>
      <trkpt lat="50.16796" lon="1.59974">
        <ele>10.7</ele>
        <time>2020-06-18T16:03:24Z</time>
      </trkpt>
      <trkpt lat="50.16801" lon="1.5998">
        <ele>10.7</ele>
        <time>2020-06-18T16:03:25Z</time>
      </trkpt>
      <trkpt lat="50.16806" lon="1.59987">
        <ele>10.6</ele>
        <time>2020-06-18T16:03:26Z</time>
      </trkpt>
      <trkpt lat="50.16812" lon="1.59993">
        <ele>10.6</ele>
        <time>2020-06-18T16:03:27Z</time>
      </trkpt>
      <trkpt lat="50.16816" lon="1.59999">
        <ele>10.6</ele>
        <time>2020-06-18T16:03:28Z</time>
      </trkpt>
      <trkpt lat="50.16821" lon="1.60005">
        <ele>10.6</ele>
        <time>2020-06-18T16:03:29Z</time>
      </trkpt>
      <trkpt lat="50.16826" lon="1.60011">
        <ele>10.6</ele>
        <time>2020-06-18T16:03:30Z</time>
      </trkpt>
      <trkpt lat="50.1683" lon="1.60017">
        <ele>10.5</ele>
        <time>2020-06-18T16:03:31Z</time>
      </trkpt>
      <trkpt lat="50.16834" lon="1.60024">
        <ele>10.5</ele>
        <time>2020-06-18T16:03:32Z</time>
      </trkpt>
      <trkpt lat="50.16839" lon="1.6003">
        <ele>10.5</ele>
        <time>2020-06-18T16:03:33Z</time>
      </trkpt>
      <trkpt lat="50.16844" lon="1.60037">
        <ele>10.4</ele>
        <time>2020-06-18T16:03:34Z</time>
      </trkpt>
      <trkpt lat="50.16849" lon="1.60043">
        <ele>10.4</ele>
        <time>2020-06-18T16:03:35Z</time>
      </trkpt>
      <trkpt lat="50.16854" lon="1.6005">
        <ele>10.3</ele>
        <time>2020-06-18T16:03:36Z</time>
      </trkpt>
      <trkpt lat="50.16858" lon="1.60056">
        <ele>10.3</ele>
        <time>2020-06-18T16:03:37Z</time>
      </trkpt>
      <trkpt lat="50.16863" lon="1.60063">
        <ele>10.3</ele>
        <time>2020-06-18T16:03:38Z</time>
      </trkpt>
      <trkpt lat="50.16868" lon="1.60069">
        <ele>10.2</ele>
        <time>2020-06-18T16:03:39Z</time>
      </trkpt>
      <trkpt lat="50.16873" lon="1.60076">
        <ele>10.1</ele>
        <time>2020-06-18T16:03:40Z</time>
      </trkpt>
      <trkpt lat="50.16878" lon="1.60083">
        <ele>10.1</ele>
        <time>2020-06-18T16:03:41Z</time>
      </trkpt>
      <trkpt lat="50.16882" lon="1.6009">
        <ele>10</ele>
        <time>2020-06-18T16:03:42Z</time>
      </trkpt>
      <trkpt lat="50.16887" lon="1.60097">
        <ele>10</ele>
        <time>2020-06-18T16:03:43Z</time>
      </trkpt>
      <trkpt lat="50.16892" lon="1.60105">
        <ele>9.9</ele>
        <time>2020-06-18T16:03:44Z</time>
      </trkpt>
      <trkpt lat="50.16897" lon="1.60112">
        <ele>9.9</ele>
        <time>2020-06-18T16:03:45Z</time>
      </trkpt>
      <trkpt lat="50.16902" lon="1.60119">
        <ele>9.8</ele>
        <time>2020-06-18T16:03:46Z</time>
      </trkpt>
      <trkpt lat="50.16907" lon="1.60127">
        <ele>9.8</ele>
        <time>2020-06-18T16:03:47Z</time>
      </trkpt>
      <trkpt lat="50.16912" lon="1.60134">
        <ele>9.7</ele>
        <time>2020-06-18T16:03:48Z</time>
      </trkpt>
      <trkpt lat="50.16917" lon="1.60142">
        <ele>9.7</ele>
        <time>2020-06-18T16:03:49Z</time>
      </trkpt>
      <trkpt lat="50.16922" lon="1.6015">
        <ele>9.7</ele>
        <time>2020-06-18T16:03:50Z</time>
      </trkpt>
      <trkpt lat="50.16927" lon="1.60158">
        <ele>9.6</ele>
        <time>2020-06-18T16:03:51Z</time>
      </trkpt>
      <trkpt lat="50.16933" lon="1.60165">
        <ele>9.6</ele>
        <time>2020-06-18T16:03:52Z</time>
      </trkpt>
      <trkpt lat="50.16938" lon="1.60173">
        <ele>9.6</ele>
        <time>2020-06-18T16:03:53Z</time>
      </trkpt>
      <trkpt lat="50.16943" lon="1.60181">
        <ele>9.6</ele>
        <time>2020-06-18T16:03:54Z</time>
      </trkpt>
      <trkpt lat="50.16949" lon="1.60189">
        <ele>9.5</ele>
        <time>2020-06-18T16:03:55Z</time>
      </trkpt>
      <trkpt lat="50.16954" lon="1.60197">
        <ele>9.4</ele>
        <time>2020-06-18T16:03:56Z</time>
      </trkpt>
      <trkpt lat="50.1696" lon="1.60205">
        <ele>9.4</ele>
        <time>2020-06-18T16:03:57Z</time>
      </trkpt>
      <trkpt lat="50.16965" lon="1.60213">
        <ele>9.3</ele>
        <time>2020-06-18T16:03:58Z</time>
      </trkpt>
      <trkpt lat="50.1697" lon="1.60221">
        <ele>9.3</ele>
        <time>2020-06-18T16:03:59Z</time>
      </trkpt>
      <trkpt lat="50.16975" lon="1.60229">
        <ele>9.3</ele>
        <time>2020-06-18T16:04:00Z</time>
      </trkpt>
      <trkpt lat="50.1698" lon="1.60237">
        <ele>9.2</ele>
        <time>2020-06-18T16:04:01Z</time>
      </trkpt>
      <trkpt lat="50.16985" lon="1.60245">
        <ele>9.2</ele>
        <time>2020-06-18T16:04:02Z</time>
      </trkpt>
      <trkpt lat="50.1699" lon="1.60253">
        <ele>9.2</ele>
        <time>2020-06-18T16:04:03Z</time>
      </trkpt>
      <trkpt lat="50.16995" lon="1.60261">
        <ele>9.1</ele>
        <time>2020-06-18T16:04:04Z</time>
      </trkpt>
      <trkpt lat="50.17" lon="1.60269">
        <ele>9.1</ele>
        <time>2020-06-18T16:04:05Z</time>
      </trkpt>
      <trkpt lat="50.17005" lon="1.60277">
        <ele>9.1</ele>
        <time>2020-06-18T16:04:06Z</time>
      </trkpt>
      <trkpt lat="50.1701" lon="1.60284">
        <ele>9</ele>
        <time>2020-06-18T16:04:07Z</time>
      </trkpt>
      <trkpt lat="50.17015" lon="1.60292">
        <ele>9</ele>
        <time>2020-06-18T16:04:08Z</time>
      </trkpt>
      <trkpt lat="50.1702" lon="1.603">
        <ele>8.9</ele>
        <time>2020-06-18T16:04:09Z</time>
      </trkpt>
      <trkpt lat="50.17026" lon="1.60309">
        <ele>8.9</ele>
        <time>2020-06-18T16:04:10Z</time>
      </trkpt>
      <trkpt lat="50.17031" lon="1.60317">
        <ele>8.8</ele>
        <time>2020-06-18T16:04:11Z</time>
      </trkpt>
      <trkpt lat="50.17036" lon="1.60324">
        <ele>8.8</ele>
        <time>2020-06-18T16:04:12Z</time>
      </trkpt>
      <trkpt lat="50.17041" lon="1.60332">
        <ele>8.7</ele>
        <time>2020-06-18T16:04:13Z</time>
      </trkpt>
      <trkpt lat="50.17046" lon="1.6034">
        <ele>8.7</ele>
        <time>2020-06-18T16:04:14Z</time>
      </trkpt>
      <trkpt lat="50.17051" lon="1.60348">
        <ele>8.7</ele>
        <time>2020-06-18T16:04:15Z</time>
      </trkpt>
      <trkpt lat="50.17056" lon="1.60357">
        <ele>8.7</ele>
        <time>2020-06-18T16:04:16Z</time>
      </trkpt>
      <trkpt lat="50.17062" lon="1.60365">
        <ele>8.6</ele>
        <time>2020-06-18T16:04:17Z</time>
      </trkpt>
      <trkpt lat="50.17067" lon="1.60373">
        <ele>8.5</ele>
        <time>2020-06-18T16:04:18Z</time>
      </trkpt>
      <trkpt lat="50.17072" lon="1.60381">
        <ele>8.4</ele>
        <time>2020-06-18T16:04:19Z</time>
      </trkpt>
      <trkpt lat="50.17078" lon="1.60389">
        <ele>8.3</ele>
        <time>2020-06-18T16:04:20Z</time>
      </trkpt>
      <trkpt lat="50.17083" lon="1.60398">
        <ele>8.3</ele>
        <time>2020-06-18T16:04:21Z</time>
      </trkpt>
      <trkpt lat="50.17089" lon="1.60406">
        <ele>8.3</ele>
        <time>2020-06-18T16:04:22Z</time>
      </trkpt>
      <trkpt lat="50.17094" lon="1.60415">
        <ele>8.3</ele>
        <time>2020-06-18T16:04:23Z</time>
      </trkpt>
      <trkpt lat="50.17099" lon="1.60424">
        <ele>8.3</ele>
        <time>2020-06-18T16:04:24Z</time>
      </trkpt>
      <trkpt lat="50.17104" lon="1.60432">
        <ele>8.4</ele>
        <time>2020-06-18T16:04:25Z</time>
      </trkpt>
      <trkpt lat="50.1711" lon="1.60441">
        <ele>8.6</ele>
        <time>2020-06-18T16:04:26Z</time>
      </trkpt>
      <trkpt lat="50.17115" lon="1.6045">
        <ele>8.7</ele>
        <time>2020-06-18T16:04:27Z</time>
      </trkpt>
      <trkpt lat="50.1712" lon="1.60459">
        <ele>8.7</ele>
        <time>2020-06-18T16:04:28Z</time>
      </trkpt>
      <trkpt lat="50.17125" lon="1.60467">
        <ele>8.6</ele>
        <time>2020-06-18T16:04:29Z</time>
      </trkpt>
      <trkpt lat="50.1713" lon="1.60476">
        <ele>8.6</ele>
        <time>2020-06-18T16:04:30Z</time>
      </trkpt>
      <trkpt lat="50.17136" lon="1.60485">
        <ele>8.5</ele>
        <time>2020-06-18T16:04:31Z</time>
      </trkpt>
      <trkpt lat="50.17141" lon="1.60493">
        <ele>8.5</ele>
        <time>2020-06-18T16:04:32Z</time>
      </trkpt>
      <trkpt lat="50.17147" lon="1.60502">
        <ele>8.5</ele>
        <time>2020-06-18T16:04:33Z</time>
      </trkpt>
      <trkpt lat="50.17152" lon="1.6051">
        <ele>8.5</ele>
        <time>2020-06-18T16:04:34Z</time>
      </trkpt>
      <trkpt lat="50.17157" lon="1.60518">
        <ele>8.5</ele>
        <time>2020-06-18T16:04:35Z</time>
      </trkpt>
      <trkpt lat="50.17162" lon="1.60527">
        <ele>8.4</ele>
        <time>2020-06-18T16:04:36Z</time>
      </trkpt>
      <trkpt lat="50.17167" lon="1.60536">
        <ele>8.4</ele>
        <time>2020-06-18T16:04:37Z</time>
      </trkpt>
      <trkpt lat="50.17172" lon="1.60545">
        <ele>8.4</ele>
        <time>2020-06-18T16:04:38Z</time>
      </trkpt>
      <trkpt lat="50.17177" lon="1.60554">
        <ele>8.3</ele>
        <time>2020-06-18T16:04:39Z</time>
      </trkpt>
      <trkpt lat="50.17182" lon="1.60563">
        <ele>8.3</ele>
        <time>2020-06-18T16:04:40Z</time>
      </trkpt>
      <trkpt lat="50.17188" lon="1.60571">
        <ele>8.3</ele>
        <time>2020-06-18T16:04:41Z</time>
      </trkpt>
      <trkpt lat="50.17193" lon="1.6058">
        <ele>8.3</ele>
        <time>2020-06-18T16:04:42Z</time>
      </trkpt>
      <trkpt lat="50.17199" lon="1.60589">
        <ele>8.3</ele>
        <time>2020-06-18T16:04:43Z</time>
      </trkpt>
      <trkpt lat="50.17204" lon="1.60598">
        <ele>8.3</ele>
        <time>2020-06-18T16:04:44Z</time>
      </trkpt>
      <trkpt lat="50.17209" lon="1.60607">
        <ele>8.2</ele>
        <time>2020-06-18T16:04:45Z</time>
      </trkpt>
      <trkpt lat="50.17214" lon="1.60616">
        <ele>8.2</ele>
        <time>2020-06-18T16:04:46Z</time>
      </trkpt>
      <trkpt lat="50.1722" lon="1.60625">
        <ele>8.2</ele>
        <time>2020-06-18T16:04:47Z</time>
      </trkpt>
      <trkpt lat="50.17225" lon="1.60634">
        <ele>8.2</ele>
        <time>2020-06-18T16:04:48Z</time>
      </trkpt>
      <trkpt lat="50.17231" lon="1.60643">
        <ele>8.2</ele>
        <time>2020-06-18T16:04:49Z</time>
      </trkpt>
      <trkpt lat="50.17237" lon="1.60652">
        <ele>8.2</ele>
        <time>2020-06-18T16:04:50Z</time>
      </trkpt>
      <trkpt lat="50.17242" lon="1.60661">
        <ele>8.2</ele>
        <time>2020-06-18T16:04:51Z</time>
      </trkpt>
      <trkpt lat="50.17248" lon="1.60669">
        <ele>8.3</ele>
        <time>2020-06-18T16:04:52Z</time>
      </trkpt>
      <trkpt lat="50.17253" lon="1.60678">
        <ele>8.3</ele>
        <time>2020-06-18T16:04:53Z</time>
      </trkpt>
      <trkpt lat="50.17258" lon="1.60688">
        <ele>8.3</ele>
        <time>2020-06-18T16:04:54Z</time>
      </trkpt>
      <trkpt lat="50.17263" lon="1.60697">
        <ele>8.3</ele>
        <time>2020-06-18T16:04:55Z</time>
      </trkpt>
      <trkpt lat="50.17269" lon="1.60707">
        <ele>8.3</ele>
        <time>2020-06-18T16:04:56Z</time>
      </trkpt>
      <trkpt lat="50.17274" lon="1.60716">
        <ele>8.3</ele>
        <time>2020-06-18T16:04:57Z</time>
      </trkpt>
      <trkpt lat="50.17279" lon="1.60725">
        <ele>8.3</ele>
        <time>2020-06-18T16:04:58Z</time>
      </trkpt>
      <trkpt lat="50.17284" lon="1.60734">
        <ele>8.3</ele>
        <time>2020-06-18T16:04:59Z</time>
      </trkpt>
      <trkpt lat="50.1729" lon="1.60743">
        <ele>8.3</ele>
        <time>2020-06-18T16:05:00Z</time>
      </trkpt>
      <trkpt lat="50.17295" lon="1.60751">
        <ele>8.3</ele>
        <time>2020-06-18T16:05:01Z</time>
      </trkpt>
      <trkpt lat="50.17301" lon="1.6076">
        <ele>8.4</ele>
        <time>2020-06-18T16:05:02Z</time>
      </trkpt>
      <trkpt lat="50.17306" lon="1.60769">
        <ele>8.4</ele>
        <time>2020-06-18T16:05:03Z</time>
      </trkpt>
      <trkpt lat="50.17311" lon="1.60778">
        <ele>8.4</ele>
        <time>2020-06-18T16:05:04Z</time>
      </trkpt>
      <trkpt lat="50.17317" lon="1.60787">
        <ele>8.5</ele>
        <time>2020-06-18T16:05:05Z</time>
      </trkpt>
      <trkpt lat="50.17322" lon="1.60796">
        <ele>8.5</ele>
        <time>2020-06-18T16:05:06Z</time>
      </trkpt>
      <trkpt lat="50.17327" lon="1.60804">
        <ele>8.6</ele>
        <time>2020-06-18T16:05:07Z</time>
      </trkpt>
      <trkpt lat="50.17332" lon="1.60813">
        <ele>8.6</ele>
        <time>2020-06-18T16:05:08Z</time>
      </trkpt>
      <trkpt lat="50.17337" lon="1.60821">
        <ele>8.7</ele>
        <time>2020-06-18T16:05:09Z</time>
      </trkpt>
      <trkpt lat="50.17342" lon="1.6083">
        <ele>8.8</ele>
        <time>2020-06-18T16:05:10Z</time>
      </trkpt>
      <trkpt lat="50.17347" lon="1.60838">
        <ele>9</ele>
        <time>2020-06-18T16:05:11Z</time>
      </trkpt>
      <trkpt lat="50.17352" lon="1.60847">
        <ele>9.1</ele>
        <time>2020-06-18T16:05:12Z</time>
      </trkpt>
      <trkpt lat="50.17357" lon="1.60856">
        <ele>9.1</ele>
        <time>2020-06-18T16:05:13Z</time>
      </trkpt>
      <trkpt lat="50.17362" lon="1.60864">
        <ele>9.2</ele>
        <time>2020-06-18T16:05:14Z</time>
      </trkpt>
      <trkpt lat="50.17366" lon="1.60873">
        <ele>9.3</ele>
        <time>2020-06-18T16:05:15Z</time>
      </trkpt>
      <trkpt lat="50.17372" lon="1.60881">
        <ele>9.4</ele>
        <time>2020-06-18T16:05:16Z</time>
      </trkpt>
      <trkpt lat="50.17376" lon="1.60889">
        <ele>9.5</ele>
        <time>2020-06-18T16:05:17Z</time>
      </trkpt>
      <trkpt lat="50.17381" lon="1.60896">
        <ele>9.6</ele>
        <time>2020-06-18T16:05:18Z</time>
      </trkpt>
      <trkpt lat="50.17386" lon="1.60904">
        <ele>9.7</ele>
        <time>2020-06-18T16:05:19Z</time>
      </trkpt>
      <trkpt lat="50.17391" lon="1.60912">
        <ele>9.9</ele>
        <time>2020-06-18T16:05:20Z</time>
      </trkpt>
      <trkpt lat="50.17396" lon="1.6092">
        <ele>10.1</ele>
        <time>2020-06-18T16:05:21Z</time>
      </trkpt>
      <trkpt lat="50.17401" lon="1.60928">
        <ele>10.3</ele>
        <time>2020-06-18T16:05:22Z</time>
      </trkpt>
      <trkpt lat="50.17406" lon="1.60936">
        <ele>10.5</ele>
        <time>2020-06-18T16:05:23Z</time>
      </trkpt>
      <trkpt lat="50.17411" lon="1.60944">
        <ele>10.6</ele>
        <time>2020-06-18T16:05:24Z</time>
      </trkpt>
      <trkpt lat="50.17416" lon="1.60951">
        <ele>10.7</ele>
        <time>2020-06-18T16:05:25Z</time>
      </trkpt>
      <trkpt lat="50.17421" lon="1.60959">
        <ele>10.8</ele>
        <time>2020-06-18T16:05:26Z</time>
      </trkpt>
      <trkpt lat="50.17426" lon="1.60966">
        <ele>10.9</ele>
        <time>2020-06-18T16:05:27Z</time>
      </trkpt>
      <trkpt lat="50.17431" lon="1.60974">
        <ele>11</ele>
        <time>2020-06-18T16:05:28Z</time>
      </trkpt>
      <trkpt lat="50.17435" lon="1.60982">
        <ele>11.1</ele>
        <time>2020-06-18T16:05:29Z</time>
      </trkpt>
      <trkpt lat="50.1744" lon="1.60989">
        <ele>11.2</ele>
        <time>2020-06-18T16:05:30Z</time>
      </trkpt>
      <trkpt lat="50.17445" lon="1.60997">
        <ele>11.3</ele>
        <time>2020-06-18T16:05:31Z</time>
      </trkpt>
      <trkpt lat="50.17449" lon="1.61004">
        <ele>11.5</ele>
        <time>2020-06-18T16:05:32Z</time>
      </trkpt>
      <trkpt lat="50.17454" lon="1.61011">
        <ele>11.6</ele>
        <time>2020-06-18T16:05:33Z</time>
      </trkpt>
      <trkpt lat="50.17458" lon="1.61018">
        <ele>11.7</ele>
        <time>2020-06-18T16:05:34Z</time>
      </trkpt>
      <trkpt lat="50.17462" lon="1.61025">
        <ele>11.8</ele>
        <time>2020-06-18T16:05:35Z</time>
      </trkpt>
      <trkpt lat="50.17467" lon="1.61033">
        <ele>12</ele>
        <time>2020-06-18T16:05:36Z</time>
      </trkpt>
      <trkpt lat="50.17471" lon="1.6104">
        <ele>12.2</ele>
        <time>2020-06-18T16:05:37Z</time>
      </trkpt>
      <trkpt lat="50.17476" lon="1.61047">
        <ele>12.4</ele>
        <time>2020-06-18T16:05:38Z</time>
      </trkpt>
      <trkpt lat="50.1748" lon="1.61054">
        <ele>12.5</ele>
        <time>2020-06-18T16:05:39Z</time>
      </trkpt>
      <trkpt lat="50.17485" lon="1.61061">
        <ele>12.6</ele>
        <time>2020-06-18T16:05:40Z</time>
      </trkpt>
      <trkpt lat="50.17489" lon="1.61069">
        <ele>12.7</ele>
        <time>2020-06-18T16:05:41Z</time>
      </trkpt>
      <trkpt lat="50.17494" lon="1.61075">
        <ele>12.8</ele>
        <time>2020-06-18T16:05:42Z</time>
      </trkpt>
      <trkpt lat="50.17498" lon="1.61083">
        <ele>12.9</ele>
        <time>2020-06-18T16:05:43Z</time>
      </trkpt>
      <trkpt lat="50.17502" lon="1.61089">
        <ele>13</ele>
        <time>2020-06-18T16:05:44Z</time>
      </trkpt>
      <trkpt lat="50.17507" lon="1.61096">
        <ele>13.2</ele>
        <time>2020-06-18T16:05:45Z</time>
      </trkpt>
      <trkpt lat="50.17512" lon="1.61103">
        <ele>13.3</ele>
        <time>2020-06-18T16:05:46Z</time>
      </trkpt>
      <trkpt lat="50.17516" lon="1.6111">
        <ele>13.5</ele>
        <time>2020-06-18T16:05:47Z</time>
      </trkpt>
      <trkpt lat="50.1752" lon="1.61116">
        <ele>13.7</ele>
        <time>2020-06-18T16:05:48Z</time>
      </trkpt>
      <trkpt lat="50.17524" lon="1.61123">
        <ele>13.9</ele>
        <time>2020-06-18T16:05:49Z</time>
      </trkpt>
      <trkpt lat="50.17528" lon="1.6113">
        <ele>14.1</ele>
        <time>2020-06-18T16:05:50Z</time>
      </trkpt>
      <trkpt lat="50.17532" lon="1.61136">
        <ele>14.4</ele>
        <time>2020-06-18T16:05:51Z</time>
      </trkpt>
      <trkpt lat="50.17536" lon="1.61143">
        <ele>14.6</ele>
        <time>2020-06-18T16:05:52Z</time>
      </trkpt>
      <trkpt lat="50.1754" lon="1.6115">
        <ele>14.9</ele>
        <time>2020-06-18T16:05:53Z</time>
      </trkpt>
      <trkpt lat="50.17543" lon="1.61156">
        <ele>15</ele>
        <time>2020-06-18T16:05:54Z</time>
      </trkpt>
      <trkpt lat="50.17547" lon="1.61163">
        <ele>15.2</ele>
        <time>2020-06-18T16:05:55Z</time>
      </trkpt>
      <trkpt lat="50.17551" lon="1.61169">
        <ele>15.3</ele>
        <time>2020-06-18T16:05:56Z</time>
      </trkpt>
      <trkpt lat="50.17555" lon="1.61176">
        <ele>15.4</ele>
        <time>2020-06-18T16:05:57Z</time>
      </trkpt>
      <trkpt lat="50.17559" lon="1.61183">
        <ele>15.5</ele>
        <time>2020-06-18T16:05:58Z</time>
      </trkpt>
      <trkpt lat="50.17562" lon="1.6119">
        <ele>15.7</ele>
        <time>2020-06-18T16:05:59Z</time>
      </trkpt>
      <trkpt lat="50.17566" lon="1.61197">
        <ele>15.8</ele>
        <time>2020-06-18T16:06:00Z</time>
      </trkpt>
      <trkpt lat="50.1757" lon="1.61203">
        <ele>15.9</ele>
        <time>2020-06-18T16:06:01Z</time>
      </trkpt>
      <trkpt lat="50.17574" lon="1.61209">
        <ele>16.1</ele>
        <time>2020-06-18T16:06:02Z</time>
      </trkpt>
      <trkpt lat="50.17579" lon="1.61215">
        <ele>16.3</ele>
        <time>2020-06-18T16:06:03Z</time>
      </trkpt>
      <trkpt lat="50.17583" lon="1.61222">
        <ele>16.4</ele>
        <time>2020-06-18T16:06:04Z</time>
      </trkpt>
      <trkpt lat="50.17587" lon="1.61228">
        <ele>16.6</ele>
        <time>2020-06-18T16:06:05Z</time>
      </trkpt>
      <trkpt lat="50.17591" lon="1.61235">
        <ele>16.8</ele>
        <time>2020-06-18T16:06:06Z</time>
      </trkpt>
      <trkpt lat="50.17596" lon="1.6124">
        <ele>16.9</ele>
        <time>2020-06-18T16:06:07Z</time>
      </trkpt>
      <trkpt lat="50.176" lon="1.61246">
        <ele>17</ele>
        <time>2020-06-18T16:06:08Z</time>
      </trkpt>
      <trkpt lat="50.17604" lon="1.61253">
        <ele>17.1</ele>
        <time>2020-06-18T16:06:09Z</time>
      </trkpt>
      <trkpt lat="50.17607" lon="1.61259">
        <ele>17.2</ele>
        <time>2020-06-18T16:06:10Z</time>
      </trkpt>
      <trkpt lat="50.1761" lon="1.61265">
        <ele>17.3</ele>
        <time>2020-06-18T16:06:11Z</time>
      </trkpt>
      <trkpt lat="50.17614" lon="1.61271">
        <ele>17.4</ele>
        <time>2020-06-18T16:06:12Z</time>
      </trkpt>
      <trkpt lat="50.17617" lon="1.61275">
        <ele>17.4</ele>
        <time>2020-06-18T16:06:13Z</time>
      </trkpt>
      <trkpt lat="50.17619" lon="1.6128">
        <ele>17.5</ele>
        <time>2020-06-18T16:06:14Z</time>
      </trkpt>
      <trkpt lat="50.17622" lon="1.61284">
        <ele>17.6</ele>
        <time>2020-06-18T16:06:15Z</time>
      </trkpt>
      <trkpt lat="50.17624" lon="1.61288">
        <ele>17.7</ele>
        <time>2020-06-18T16:06:16Z</time>
      </trkpt>
      <trkpt lat="50.17627" lon="1.61294">
        <ele>17.8</ele>
        <time>2020-06-18T16:06:17Z</time>
      </trkpt>
      <trkpt lat="50.17628" lon="1.61299">
        <ele>17.9</ele>
        <time>2020-06-18T16:06:18Z</time>
      </trkpt>
      <trkpt lat="50.17631" lon="1.61304">
        <ele>18</ele>
        <time>2020-06-18T16:06:19Z</time>
      </trkpt>
      <trkpt lat="50.17633" lon="1.61308">
        <ele>18</ele>
        <time>2020-06-18T16:06:20Z</time>
      </trkpt>
      <trkpt lat="50.17633" lon="1.61311">
        <ele>18</ele>
        <time>2020-06-18T16:06:21Z</time>
      </trkpt>
      <trkpt lat="50.17633" lon="1.61313">
        <ele>18.1</ele>
        <time>2020-06-18T16:06:22Z</time>
      </trkpt>
      <trkpt lat="50.17631" lon="1.61316">
        <ele>18.1</ele>
        <time>2020-06-18T16:06:23Z</time>
      </trkpt>
      <trkpt lat="50.17629" lon="1.61317">
        <ele>18.1</ele>
        <time>2020-06-18T16:06:24Z</time>
      </trkpt>
      <trkpt lat="50.17626" lon="1.61318">
        <ele>18.2</ele>
        <time>2020-06-18T16:06:25Z</time>
      </trkpt>
      <trkpt lat="50.17623" lon="1.61322">
        <ele>18.1</ele>
        <time>2020-06-18T16:06:26Z</time>
      </trkpt>
      <trkpt lat="50.1762" lon="1.61327">
        <ele>18.1</ele>
        <time>2020-06-18T16:06:27Z</time>
      </trkpt>
      <trkpt lat="50.17618" lon="1.61332">
        <ele>18.1</ele>
        <time>2020-06-18T16:06:28Z</time>
      </trkpt>
      <trkpt lat="50.17617" lon="1.61338">
        <ele>18</ele>
        <time>2020-06-18T16:06:29Z</time>
      </trkpt>
      <trkpt lat="50.17616" lon="1.61346">
        <ele>18</ele>
        <time>2020-06-18T16:06:30Z</time>
      </trkpt>
      <trkpt lat="50.17616" lon="1.61354">
        <ele>18</ele>
        <time>2020-06-18T16:06:31Z</time>
      </trkpt>
      <trkpt lat="50.17618" lon="1.61359">
        <ele>18.1</ele>
        <time>2020-06-18T16:06:32Z</time>
      </trkpt>
      <trkpt lat="50.17618" lon="1.61364">
        <ele>18.1</ele>
        <time>2020-06-18T16:06:33Z</time>
      </trkpt>
      <trkpt lat="50.17618" lon="1.61372">
        <ele>18.1</ele>
        <time>2020-06-18T16:06:34Z</time>
      </trkpt>
      <trkpt lat="50.17618" lon="1.6138">
        <ele>18.2</ele>
        <time>2020-06-18T16:06:35Z</time>
      </trkpt>
      <trkpt lat="50.17618" lon="1.61387">
        <ele>18.2</ele>
        <time>2020-06-18T16:06:36Z</time>
      </trkpt>
      <trkpt lat="50.17617" lon="1.61393">
        <ele>18.3</ele>
        <time>2020-06-18T16:06:37Z</time>
      </trkpt>
      <trkpt lat="50.17614" lon="1.61398">
        <ele>18.3</ele>
        <time>2020-06-18T16:06:38Z</time>
      </trkpt>
      <trkpt lat="50.17612" lon="1.61402">
        <ele>18.4</ele>
        <time>2020-06-18T16:06:39Z</time>
      </trkpt>
      <trkpt lat="50.1761" lon="1.61409">
        <ele>18.4</ele>
        <time>2020-06-18T16:06:40Z</time>
      </trkpt>
      <trkpt lat="50.17607" lon="1.61416">
        <ele>18.5</ele>
        <time>2020-06-18T16:06:41Z</time>
      </trkpt>
      <trkpt lat="50.17605" lon="1.61423">
        <ele>18.6</ele>
        <time>2020-06-18T16:06:42Z</time>
      </trkpt>
      <trkpt lat="50.17602" lon="1.61431">
        <ele>18.6</ele>
        <time>2020-06-18T16:06:43Z</time>
      </trkpt>
      <trkpt lat="50.176" lon="1.61438">
        <ele>18.7</ele>
        <time>2020-06-18T16:06:44Z</time>
      </trkpt>
      <trkpt lat="50.17597" lon="1.61446">
        <ele>18.8</ele>
        <time>2020-06-18T16:06:45Z</time>
      </trkpt>
      <trkpt lat="50.17593" lon="1.61456">
        <ele>18.8</ele>
        <time>2020-06-18T16:06:46Z</time>
      </trkpt>
      <trkpt lat="50.17591" lon="1.61464">
        <ele>18.9</ele>
        <time>2020-06-18T16:06:47Z</time>
      </trkpt>
      <trkpt lat="50.17588" lon="1.61471">
        <ele>18.9</ele>
        <time>2020-06-18T16:06:48Z</time>
      </trkpt>
      <trkpt lat="50.17586" lon="1.61479">
        <ele>18.9</ele>
        <time>2020-06-18T16:06:49Z</time>
      </trkpt>
      <trkpt lat="50.17583" lon="1.61487">
        <ele>18.9</ele>
        <time>2020-06-18T16:06:50Z</time>
      </trkpt>
      <trkpt lat="50.17581" lon="1.61495">
        <ele>18.9</ele>
        <time>2020-06-18T16:06:51Z</time>
      </trkpt>
      <trkpt lat="50.17578" lon="1.61503">
        <ele>18.9</ele>
        <time>2020-06-18T16:06:52Z</time>
      </trkpt>
      <trkpt lat="50.17575" lon="1.61511">
        <ele>18.9</ele>
        <time>2020-06-18T16:06:53Z</time>
      </trkpt>
      <trkpt lat="50.17572" lon="1.61519">
        <ele>18.9</ele>
        <time>2020-06-18T16:06:54Z</time>
      </trkpt>
      <trkpt lat="50.17569" lon="1.61526">
        <ele>18.9</ele>
        <time>2020-06-18T16:06:55Z</time>
      </trkpt>
      <trkpt lat="50.17567" lon="1.61536">
        <ele>18.9</ele>
        <time>2020-06-18T16:06:56Z</time>
      </trkpt>
      <trkpt lat="50.17564" lon="1.61546">
        <ele>18.8</ele>
        <time>2020-06-18T16:06:57Z</time>
      </trkpt>
      <trkpt lat="50.17561" lon="1.61555">
        <ele>18.8</ele>
        <time>2020-06-18T16:06:58Z</time>
      </trkpt>
      <trkpt lat="50.17559" lon="1.61563">
        <ele>18.8</ele>
        <time>2020-06-18T16:06:59Z</time>
      </trkpt>
      <trkpt lat="50.17555" lon="1.61572">
        <ele>18.8</ele>
        <time>2020-06-18T16:07:00Z</time>
      </trkpt>
      <trkpt lat="50.17552" lon="1.6158">
        <ele>18.8</ele>
        <time>2020-06-18T16:07:01Z</time>
      </trkpt>
      <trkpt lat="50.17549" lon="1.6159">
        <ele>18.8</ele>
        <time>2020-06-18T16:07:02Z</time>
      </trkpt>
      <trkpt lat="50.17546" lon="1.61598">
        <ele>18.8</ele>
        <time>2020-06-18T16:07:03Z</time>
      </trkpt>
      <trkpt lat="50.17544" lon="1.61605">
        <ele>18.8</ele>
        <time>2020-06-18T16:07:04Z</time>
      </trkpt>
      <trkpt lat="50.17541" lon="1.61615">
        <ele>18.8</ele>
        <time>2020-06-18T16:07:05Z</time>
      </trkpt>
      <trkpt lat="50.17538" lon="1.61626">
        <ele>18.8</ele>
        <time>2020-06-18T16:07:06Z</time>
      </trkpt>
      <trkpt lat="50.17534" lon="1.61637">
        <ele>18.8</ele>
        <time>2020-06-18T16:07:07Z</time>
      </trkpt>
      <trkpt lat="50.1753" lon="1.61647">
        <ele>18.8</ele>
        <time>2020-06-18T16:07:08Z</time>
      </trkpt>
      <trkpt lat="50.17527" lon="1.61656">
        <ele>18.9</ele>
        <time>2020-06-18T16:07:09Z</time>
      </trkpt>
      <trkpt lat="50.17523" lon="1.61667">
        <ele>18.9</ele>
        <time>2020-06-18T16:07:10Z</time>
      </trkpt>
      <trkpt lat="50.1752" lon="1.61677">
        <ele>18.9</ele>
        <time>2020-06-18T16:07:11Z</time>
      </trkpt>
      <trkpt lat="50.17516" lon="1.61686">
        <ele>18.9</ele>
        <time>2020-06-18T16:07:12Z</time>
      </trkpt>
      <trkpt lat="50.17513" lon="1.61696">
        <ele>18.9</ele>
        <time>2020-06-18T16:07:13Z</time>
      </trkpt>
      <trkpt lat="50.1751" lon="1.61705">
        <ele>18.9</ele>
        <time>2020-06-18T16:07:14Z</time>
      </trkpt>
      <trkpt lat="50.17507" lon="1.61714">
        <ele>18.9</ele>
        <time>2020-06-18T16:07:15Z</time>
      </trkpt>
      <trkpt lat="50.17503" lon="1.61723">
        <ele>19</ele>
        <time>2020-06-18T16:07:16Z</time>
      </trkpt>
      <trkpt lat="50.175" lon="1.61732">
        <ele>19</ele>
        <time>2020-06-18T16:07:17Z</time>
      </trkpt>
      <trkpt lat="50.17497" lon="1.61741">
        <ele>19</ele>
        <time>2020-06-18T16:07:18Z</time>
      </trkpt>
      <trkpt lat="50.17494" lon="1.61749">
        <ele>19.1</ele>
        <time>2020-06-18T16:07:19Z</time>
      </trkpt>
      <trkpt lat="50.17491" lon="1.61758">
        <ele>19.1</ele>
        <time>2020-06-18T16:07:20Z</time>
      </trkpt>
      <trkpt lat="50.17489" lon="1.61767">
        <ele>19.1</ele>
        <time>2020-06-18T16:07:21Z</time>
      </trkpt>
      <trkpt lat="50.17486" lon="1.61775">
        <ele>19.1</ele>
        <time>2020-06-18T16:07:22Z</time>
      </trkpt>
      <trkpt lat="50.17483" lon="1.61783">
        <ele>19.1</ele>
        <time>2020-06-18T16:07:23Z</time>
      </trkpt>
      <trkpt lat="50.1748" lon="1.61791">
        <ele>19.1</ele>
        <time>2020-06-18T16:07:24Z</time>
      </trkpt>
      <trkpt lat="50.17477" lon="1.61799">
        <ele>19.1</ele>
        <time>2020-06-18T16:07:25Z</time>
      </trkpt>
      <trkpt lat="50.17474" lon="1.61808">
        <ele>19.1</ele>
        <time>2020-06-18T16:07:26Z</time>
      </trkpt>
      <trkpt lat="50.1747" lon="1.61817">
        <ele>19.1</ele>
        <time>2020-06-18T16:07:27Z</time>
      </trkpt>
      <trkpt lat="50.17467" lon="1.61826">
        <ele>19.1</ele>
        <time>2020-06-18T16:07:28Z</time>
      </trkpt>
      <trkpt lat="50.17463" lon="1.61835">
        <ele>19.2</ele>
        <time>2020-06-18T16:07:29Z</time>
      </trkpt>
      <trkpt lat="50.1746" lon="1.61845">
        <ele>19.2</ele>
        <time>2020-06-18T16:07:30Z</time>
      </trkpt>
      <trkpt lat="50.17458" lon="1.61854">
        <ele>19.3</ele>
        <time>2020-06-18T16:07:31Z</time>
      </trkpt>
      <trkpt lat="50.17455" lon="1.61864">
        <ele>19.3</ele>
        <time>2020-06-18T16:07:32Z</time>
      </trkpt>
      <trkpt lat="50.17453" lon="1.61874">
        <ele>19.4</ele>
        <time>2020-06-18T16:07:33Z</time>
      </trkpt>
      <trkpt lat="50.1745" lon="1.61883">
        <ele>19.4</ele>
        <time>2020-06-18T16:07:34Z</time>
      </trkpt>
      <trkpt lat="50.17448" lon="1.61893">
        <ele>19.5</ele>
        <time>2020-06-18T16:07:35Z</time>
      </trkpt>
      <trkpt lat="50.17445" lon="1.61902">
        <ele>19.5</ele>
        <time>2020-06-18T16:07:36Z</time>
      </trkpt>
      <trkpt lat="50.17442" lon="1.61911">
        <ele>19.5</ele>
        <time>2020-06-18T16:07:37Z</time>
      </trkpt>
      <trkpt lat="50.1744" lon="1.61919">
        <ele>19.5</ele>
        <time>2020-06-18T16:07:38Z</time>
      </trkpt>
      <trkpt lat="50.17438" lon="1.61929">
        <ele>19.5</ele>
        <time>2020-06-18T16:07:39Z</time>
      </trkpt>
      <trkpt lat="50.17435" lon="1.61938">
        <ele>19.6</ele>
        <time>2020-06-18T16:07:40Z</time>
      </trkpt>
      <trkpt lat="50.17434" lon="1.61947">
        <ele>19.7</ele>
        <time>2020-06-18T16:07:41Z</time>
      </trkpt>
      <trkpt lat="50.17431" lon="1.61957">
        <ele>19.9</ele>
        <time>2020-06-18T16:07:42Z</time>
      </trkpt>
      <trkpt lat="50.17428" lon="1.61967">
        <ele>20</ele>
        <time>2020-06-18T16:07:43Z</time>
      </trkpt>
      <trkpt lat="50.17426" lon="1.61974">
        <ele>19.9</ele>
        <time>2020-06-18T16:07:44Z</time>
      </trkpt>
      <trkpt lat="50.17424" lon="1.61983">
        <ele>19.9</ele>
        <time>2020-06-18T16:07:45Z</time>
      </trkpt>
      <trkpt lat="50.17422" lon="1.61992">
        <ele>19.9</ele>
        <time>2020-06-18T16:07:46Z</time>
      </trkpt>
      <trkpt lat="50.1742" lon="1.62001">
        <ele>19.9</ele>
        <time>2020-06-18T16:07:47Z</time>
      </trkpt>
      <trkpt lat="50.17418" lon="1.6201">
        <ele>19.9</ele>
        <time>2020-06-18T16:07:48Z</time>
      </trkpt>
      <trkpt lat="50.17415" lon="1.62019">
        <ele>19.8</ele>
        <time>2020-06-18T16:07:49Z</time>
      </trkpt>
      <trkpt lat="50.17413" lon="1.62028">
        <ele>19.8</ele>
        <time>2020-06-18T16:07:50Z</time>
      </trkpt>
      <trkpt lat="50.1741" lon="1.62038">
        <ele>19.9</ele>
        <time>2020-06-18T16:07:51Z</time>
      </trkpt>
      <trkpt lat="50.17408" lon="1.62049">
        <ele>20</ele>
        <time>2020-06-18T16:07:52Z</time>
      </trkpt>
      <trkpt lat="50.17405" lon="1.62059">
        <ele>20.1</ele>
        <time>2020-06-18T16:07:53Z</time>
      </trkpt>
      <trkpt lat="50.17403" lon="1.62068">
        <ele>20.2</ele>
        <time>2020-06-18T16:07:54Z</time>
      </trkpt>
      <trkpt lat="50.17401" lon="1.62078">
        <ele>20.3</ele>
        <time>2020-06-18T16:07:55Z</time>
      </trkpt>
      <trkpt lat="50.17399" lon="1.62087">
        <ele>20.4</ele>
        <time>2020-06-18T16:07:56Z</time>
      </trkpt>
      <trkpt lat="50.17397" lon="1.62096">
        <ele>20.5</ele>
        <time>2020-06-18T16:07:57Z</time>
      </trkpt>
      <trkpt lat="50.17395" lon="1.62105">
        <ele>20.6</ele>
        <time>2020-06-18T16:07:58Z</time>
      </trkpt>
      <trkpt lat="50.17393" lon="1.62114">
        <ele>20.6</ele>
        <time>2020-06-18T16:07:59Z</time>
      </trkpt>
      <trkpt lat="50.17391" lon="1.62124">
        <ele>20.7</ele>
        <time>2020-06-18T16:08:00Z</time>
      </trkpt>
      <trkpt lat="50.17389" lon="1.62134">
        <ele>20.8</ele>
        <time>2020-06-18T16:08:01Z</time>
      </trkpt>
      <trkpt lat="50.17387" lon="1.62144">
        <ele>20.8</ele>
        <time>2020-06-18T16:08:02Z</time>
      </trkpt>
      <trkpt lat="50.17384" lon="1.62153">
        <ele>20.9</ele>
        <time>2020-06-18T16:08:03Z</time>
      </trkpt>
      <trkpt lat="50.17382" lon="1.62163">
        <ele>21</ele>
        <time>2020-06-18T16:08:04Z</time>
      </trkpt>
      <trkpt lat="50.1738" lon="1.62174">
        <ele>21.1</ele>
        <time>2020-06-18T16:08:05Z</time>
      </trkpt>
      <trkpt lat="50.17378" lon="1.62184">
        <ele>21.2</ele>
        <time>2020-06-18T16:08:06Z</time>
      </trkpt>
      <trkpt lat="50.17375" lon="1.62194">
        <ele>21.3</ele>
        <time>2020-06-18T16:08:07Z</time>
      </trkpt>
      <trkpt lat="50.17373" lon="1.62203">
        <ele>21.5</ele>
        <time>2020-06-18T16:08:08Z</time>
      </trkpt>
      <trkpt lat="50.17371" lon="1.62213">
        <ele>21.6</ele>
        <time>2020-06-18T16:08:09Z</time>
      </trkpt>
      <trkpt lat="50.17369" lon="1.62222">
        <ele>21.8</ele>
        <time>2020-06-18T16:08:10Z</time>
      </trkpt>
      <trkpt lat="50.17368" lon="1.62232">
        <ele>21.9</ele>
        <time>2020-06-18T16:08:11Z</time>
      </trkpt>
      <trkpt lat="50.17366" lon="1.62242">
        <ele>22.1</ele>
        <time>2020-06-18T16:08:12Z</time>
      </trkpt>
      <trkpt lat="50.17364" lon="1.62251">
        <ele>22.2</ele>
        <time>2020-06-18T16:08:13Z</time>
      </trkpt>
      <trkpt lat="50.17363" lon="1.62261">
        <ele>22.4</ele>
        <time>2020-06-18T16:08:14Z</time>
      </trkpt>
      <trkpt lat="50.17362" lon="1.6227">
        <ele>22.5</ele>
        <time>2020-06-18T16:08:15Z</time>
      </trkpt>
      <trkpt lat="50.1736" lon="1.62279">
        <ele>22.7</ele>
        <time>2020-06-18T16:08:16Z</time>
      </trkpt>
      <trkpt lat="50.17359" lon="1.62286">
        <ele>22.8</ele>
        <time>2020-06-18T16:08:17Z</time>
      </trkpt>
      <trkpt lat="50.17358" lon="1.62295">
        <ele>23</ele>
        <time>2020-06-18T16:08:18Z</time>
      </trkpt>
      <trkpt lat="50.17356" lon="1.62303">
        <ele>23.2</ele>
        <time>2020-06-18T16:08:19Z</time>
      </trkpt>
      <trkpt lat="50.17354" lon="1.62312">
        <ele>23.3</ele>
        <time>2020-06-18T16:08:20Z</time>
      </trkpt>
      <trkpt lat="50.17352" lon="1.62321">
        <ele>23.5</ele>
        <time>2020-06-18T16:08:21Z</time>
      </trkpt>
      <trkpt lat="50.17351" lon="1.6233">
        <ele>23.7</ele>
        <time>2020-06-18T16:08:22Z</time>
      </trkpt>
      <trkpt lat="50.1735" lon="1.62341">
        <ele>23.9</ele>
        <time>2020-06-18T16:08:23Z</time>
      </trkpt>
      <trkpt lat="50.17349" lon="1.6235">
        <ele>24.1</ele>
        <time>2020-06-18T16:08:24Z</time>
      </trkpt>
      <trkpt lat="50.17348" lon="1.62358">
        <ele>24.3</ele>
        <time>2020-06-18T16:08:25Z</time>
      </trkpt>
      <trkpt lat="50.17347" lon="1.62366">
        <ele>24.5</ele>
        <time>2020-06-18T16:08:26Z</time>
      </trkpt>
      <trkpt lat="50.17345" lon="1.62375">
        <ele>24.7</ele>
        <time>2020-06-18T16:08:27Z</time>
      </trkpt>
      <trkpt lat="50.17343" lon="1.62383">
        <ele>25</ele>
        <time>2020-06-18T16:08:28Z</time>
      </trkpt>
      <trkpt lat="50.17341" lon="1.62391">
        <ele>25.2</ele>
        <time>2020-06-18T16:08:29Z</time>
      </trkpt>
      <trkpt lat="50.1734" lon="1.62398">
        <ele>25.4</ele>
        <time>2020-06-18T16:08:30Z</time>
      </trkpt>
      <trkpt lat="50.17338" lon="1.62406">
        <ele>25.7</ele>
        <time>2020-06-18T16:08:31Z</time>
      </trkpt>
      <trkpt lat="50.17337" lon="1.62414">
        <ele>25.9</ele>
        <time>2020-06-18T16:08:32Z</time>
      </trkpt>
      <trkpt lat="50.17335" lon="1.62423">
        <ele>26.2</ele>
        <time>2020-06-18T16:08:33Z</time>
      </trkpt>
      <trkpt lat="50.17334" lon="1.6243">
        <ele>26.3</ele>
        <time>2020-06-18T16:08:34Z</time>
      </trkpt>
      <trkpt lat="50.17333" lon="1.62438">
        <ele>26.5</ele>
        <time>2020-06-18T16:08:35Z</time>
      </trkpt>
      <trkpt lat="50.17332" lon="1.62445">
        <ele>26.7</ele>
        <time>2020-06-18T16:08:36Z</time>
      </trkpt>
      <trkpt lat="50.17331" lon="1.62453">
        <ele>26.8</ele>
        <time>2020-06-18T16:08:37Z</time>
      </trkpt>
      <trkpt lat="50.1733" lon="1.6246">
        <ele>27</ele>
        <time>2020-06-18T16:08:38Z</time>
      </trkpt>
      <trkpt lat="50.17328" lon="1.62467">
        <ele>27.2</ele>
        <time>2020-06-18T16:08:39Z</time>
      </trkpt>
      <trkpt lat="50.17328" lon="1.62475">
        <ele>27.4</ele>
        <time>2020-06-18T16:08:40Z</time>
      </trkpt>
      <trkpt lat="50.17327" lon="1.62484">
        <ele>27.6</ele>
        <time>2020-06-18T16:08:41Z</time>
      </trkpt>
      <trkpt lat="50.17327" lon="1.62492">
        <ele>27.8</ele>
        <time>2020-06-18T16:08:42Z</time>
      </trkpt>
      <trkpt lat="50.17326" lon="1.62499">
        <ele>27.9</ele>
        <time>2020-06-18T16:08:43Z</time>
      </trkpt>
      <trkpt lat="50.17326" lon="1.62505">
        <ele>28</ele>
        <time>2020-06-18T16:08:44Z</time>
      </trkpt>
      <trkpt lat="50.17324" lon="1.62513">
        <ele>28.2</ele>
        <time>2020-06-18T16:08:45Z</time>
      </trkpt>
      <trkpt lat="50.17323" lon="1.62522">
        <ele>28.4</ele>
        <time>2020-06-18T16:08:46Z</time>
      </trkpt>
      <trkpt lat="50.17323" lon="1.62529">
        <ele>28.5</ele>
        <time>2020-06-18T16:08:47Z</time>
      </trkpt>
      <trkpt lat="50.17322" lon="1.62538">
        <ele>28.6</ele>
        <time>2020-06-18T16:08:48Z</time>
      </trkpt>
      <trkpt lat="50.17321" lon="1.62545">
        <ele>28.7</ele>
        <time>2020-06-18T16:08:49Z</time>
      </trkpt>
      <trkpt lat="50.17321" lon="1.62551">
        <ele>28.8</ele>
        <time>2020-06-18T16:08:50Z</time>
      </trkpt>
      <trkpt lat="50.1732" lon="1.62558">
        <ele>28.9</ele>
        <time>2020-06-18T16:08:51Z</time>
      </trkpt>
      <trkpt lat="50.1732" lon="1.62567">
        <ele>29</ele>
        <time>2020-06-18T16:08:52Z</time>
      </trkpt>
      <trkpt lat="50.17319" lon="1.62574">
        <ele>29.1</ele>
        <time>2020-06-18T16:08:53Z</time>
      </trkpt>
      <trkpt lat="50.17318" lon="1.62582">
        <ele>29.1</ele>
        <time>2020-06-18T16:08:54Z</time>
      </trkpt>
      <trkpt lat="50.17317" lon="1.62592">
        <ele>29.2</ele>
        <time>2020-06-18T16:08:55Z</time>
      </trkpt>
      <trkpt lat="50.17316" lon="1.62599">
        <ele>29.2</ele>
        <time>2020-06-18T16:08:56Z</time>
      </trkpt>
      <trkpt lat="50.17316" lon="1.62608">
        <ele>29.3</ele>
        <time>2020-06-18T16:08:57Z</time>
      </trkpt>
      <trkpt lat="50.17315" lon="1.62617">
        <ele>29.3</ele>
        <time>2020-06-18T16:08:58Z</time>
      </trkpt>
      <trkpt lat="50.17314" lon="1.62626">
        <ele>29.4</ele>
        <time>2020-06-18T16:08:59Z</time>
      </trkpt>
      <trkpt lat="50.17313" lon="1.62635">
        <ele>29.4</ele>
        <time>2020-06-18T16:09:00Z</time>
      </trkpt>
      <trkpt lat="50.17312" lon="1.62643">
        <ele>29.4</ele>
        <time>2020-06-18T16:09:01Z</time>
      </trkpt>
      <trkpt lat="50.17311" lon="1.62652">
        <ele>29.4</ele>
        <time>2020-06-18T16:09:02Z</time>
      </trkpt>
      <trkpt lat="50.1731" lon="1.62662">
        <ele>29.4</ele>
        <time>2020-06-18T16:09:03Z</time>
      </trkpt>
      <trkpt lat="50.1731" lon="1.62671">
        <ele>29.4</ele>
        <time>2020-06-18T16:09:04Z</time>
      </trkpt>
      <trkpt lat="50.17309" lon="1.6268">
        <ele>29.4</ele>
        <time>2020-06-18T16:09:05Z</time>
      </trkpt>
      <trkpt lat="50.17308" lon="1.62689">
        <ele>29.4</ele>
        <time>2020-06-18T16:09:06Z</time>
      </trkpt>
      <trkpt lat="50.17308" lon="1.62699">
        <ele>29.4</ele>
        <time>2020-06-18T16:09:07Z</time>
      </trkpt>
      <trkpt lat="50.17307" lon="1.62708">
        <ele>29.4</ele>
        <time>2020-06-18T16:09:08Z</time>
      </trkpt>
      <trkpt lat="50.17306" lon="1.62717">
        <ele>29.4</ele>
        <time>2020-06-18T16:09:09Z</time>
      </trkpt>
      <trkpt lat="50.17306" lon="1.62727">
        <ele>29.4</ele>
        <time>2020-06-18T16:09:10Z</time>
      </trkpt>
      <trkpt lat="50.17305" lon="1.62736">
        <ele>29.4</ele>
        <time>2020-06-18T16:09:11Z</time>
      </trkpt>
      <trkpt lat="50.17305" lon="1.62746">
        <ele>29.4</ele>
        <time>2020-06-18T16:09:12Z</time>
      </trkpt>
      <trkpt lat="50.17305" lon="1.62755">
        <ele>29.4</ele>
        <time>2020-06-18T16:09:13Z</time>
      </trkpt>
      <trkpt lat="50.17304" lon="1.62763">
        <ele>29.4</ele>
        <time>2020-06-18T16:09:14Z</time>
      </trkpt>
      <trkpt lat="50.17304" lon="1.62771">
        <ele>29.4</ele>
        <time>2020-06-18T16:09:15Z</time>
      </trkpt>
      <trkpt lat="50.17303" lon="1.62781">
        <ele>29.4</ele>
        <time>2020-06-18T16:09:16Z</time>
      </trkpt>
      <trkpt lat="50.17302" lon="1.62792">
        <ele>29.4</ele>
        <time>2020-06-18T16:09:17Z</time>
      </trkpt>
      <trkpt lat="50.17302" lon="1.62803">
        <ele>29.5</ele>
        <time>2020-06-18T16:09:18Z</time>
      </trkpt>
      <trkpt lat="50.17302" lon="1.62814">
        <ele>29.5</ele>
        <time>2020-06-18T16:09:19Z</time>
      </trkpt>
      <trkpt lat="50.17301" lon="1.62825">
        <ele>29.5</ele>
        <time>2020-06-18T16:09:20Z</time>
      </trkpt>
      <trkpt lat="50.17301" lon="1.62836">
        <ele>29.6</ele>
        <time>2020-06-18T16:09:21Z</time>
      </trkpt>
      <trkpt lat="50.17301" lon="1.62847">
        <ele>29.5</ele>
        <time>2020-06-18T16:09:22Z</time>
      </trkpt>
      <trkpt lat="50.173" lon="1.62859">
        <ele>29.5</ele>
        <time>2020-06-18T16:09:23Z</time>
      </trkpt>
      <trkpt lat="50.173" lon="1.62869">
        <ele>29.5</ele>
        <time>2020-06-18T16:09:24Z</time>
      </trkpt>
      <trkpt lat="50.173" lon="1.62879">
        <ele>29.5</ele>
        <time>2020-06-18T16:09:25Z</time>
      </trkpt>
      <trkpt lat="50.173" lon="1.62891">
        <ele>29.5</ele>
        <time>2020-06-18T16:09:26Z</time>
      </trkpt>
      <trkpt lat="50.173" lon="1.62901">
        <ele>29.5</ele>
        <time>2020-06-18T16:09:27Z</time>
      </trkpt>
      <trkpt lat="50.17298" lon="1.62912">
        <ele>29.4</ele>
        <time>2020-06-18T16:09:28Z</time>
      </trkpt>
      <trkpt lat="50.17298" lon="1.62922">
        <ele>29.4</ele>
        <time>2020-06-18T16:09:29Z</time>
      </trkpt>
      <trkpt lat="50.17297" lon="1.62932">
        <ele>29.4</ele>
        <time>2020-06-18T16:09:30Z</time>
      </trkpt>
      <trkpt lat="50.17297" lon="1.62942">
        <ele>29.3</ele>
        <time>2020-06-18T16:09:31Z</time>
      </trkpt>
      <trkpt lat="50.17297" lon="1.62953">
        <ele>29.3</ele>
        <time>2020-06-18T16:09:32Z</time>
      </trkpt>
      <trkpt lat="50.17298" lon="1.62964">
        <ele>29.2</ele>
        <time>2020-06-18T16:09:33Z</time>
      </trkpt>
      <trkpt lat="50.17297" lon="1.62974">
        <ele>29.2</ele>
        <time>2020-06-18T16:09:34Z</time>
      </trkpt>
      <trkpt lat="50.17298" lon="1.62984">
        <ele>29.2</ele>
        <time>2020-06-18T16:09:35Z</time>
      </trkpt>
      <trkpt lat="50.17297" lon="1.62995">
        <ele>29.1</ele>
        <time>2020-06-18T16:09:36Z</time>
      </trkpt>
      <trkpt lat="50.17298" lon="1.63006">
        <ele>29</ele>
        <time>2020-06-18T16:09:37Z</time>
      </trkpt>
      <trkpt lat="50.17298" lon="1.63018">
        <ele>28.9</ele>
        <time>2020-06-18T16:09:38Z</time>
      </trkpt>
      <trkpt lat="50.17298" lon="1.63029">
        <ele>28.8</ele>
        <time>2020-06-18T16:09:39Z</time>
      </trkpt>
      <trkpt lat="50.17298" lon="1.6304">
        <ele>28.7</ele>
        <time>2020-06-18T16:09:40Z</time>
      </trkpt>
      <trkpt lat="50.17298" lon="1.63051">
        <ele>28.6</ele>
        <time>2020-06-18T16:09:41Z</time>
      </trkpt>
      <trkpt lat="50.17298" lon="1.63063">
        <ele>28.6</ele>
        <time>2020-06-18T16:09:42Z</time>
      </trkpt>
      <trkpt lat="50.17298" lon="1.63075">
        <ele>28.5</ele>
        <time>2020-06-18T16:09:43Z</time>
      </trkpt>
      <trkpt lat="50.17298" lon="1.63086">
        <ele>28.5</ele>
        <time>2020-06-18T16:09:44Z</time>
      </trkpt>
      <trkpt lat="50.17298" lon="1.63098">
        <ele>28.5</ele>
        <time>2020-06-18T16:09:45Z</time>
      </trkpt>
      <trkpt lat="50.17298" lon="1.63109">
        <ele>28.5</ele>
        <time>2020-06-18T16:09:46Z</time>
      </trkpt>
      <trkpt lat="50.17298" lon="1.63121">
        <ele>28.5</ele>
        <time>2020-06-18T16:09:47Z</time>
      </trkpt>
      <trkpt lat="50.17298" lon="1.63132">
        <ele>28.5</ele>
        <time>2020-06-18T16:09:48Z</time>
      </trkpt>
      <trkpt lat="50.17298" lon="1.63143">
        <ele>28.4</ele>
        <time>2020-06-18T16:09:49Z</time>
      </trkpt>
      <trkpt lat="50.17298" lon="1.63154">
        <ele>28.4</ele>
        <time>2020-06-18T16:09:50Z</time>
      </trkpt>
      <trkpt lat="50.17298" lon="1.63165">
        <ele>28.3</ele>
        <time>2020-06-18T16:09:51Z</time>
      </trkpt>
      <trkpt lat="50.17297" lon="1.63177">
        <ele>28.3</ele>
        <time>2020-06-18T16:09:52Z</time>
      </trkpt>
      <trkpt lat="50.17297" lon="1.63188">
        <ele>28.3</ele>
        <time>2020-06-18T16:09:53Z</time>
      </trkpt>
      <trkpt lat="50.17297" lon="1.63199">
        <ele>28.3</ele>
        <time>2020-06-18T16:09:54Z</time>
      </trkpt>
      <trkpt lat="50.17296" lon="1.6321">
        <ele>28.3</ele>
        <time>2020-06-18T16:09:55Z</time>
      </trkpt>
      <trkpt lat="50.17295" lon="1.63221">
        <ele>28.3</ele>
        <time>2020-06-18T16:09:56Z</time>
      </trkpt>
      <trkpt lat="50.17294" lon="1.63232">
        <ele>28.2</ele>
        <time>2020-06-18T16:09:57Z</time>
      </trkpt>
      <trkpt lat="50.17294" lon="1.63243">
        <ele>28.2</ele>
        <time>2020-06-18T16:09:58Z</time>
      </trkpt>
      <trkpt lat="50.17294" lon="1.63255">
        <ele>28.1</ele>
        <time>2020-06-18T16:09:59Z</time>
      </trkpt>
      <trkpt lat="50.17294" lon="1.63266">
        <ele>28.1</ele>
        <time>2020-06-18T16:10:00Z</time>
      </trkpt>
      <trkpt lat="50.17294" lon="1.63277">
        <ele>28.1</ele>
        <time>2020-06-18T16:10:01Z</time>
      </trkpt>
      <trkpt lat="50.17294" lon="1.63288">
        <ele>28.1</ele>
        <time>2020-06-18T16:10:02Z</time>
      </trkpt>
      <trkpt lat="50.17294" lon="1.63299">
        <ele>28</ele>
        <time>2020-06-18T16:10:03Z</time>
      </trkpt>
      <trkpt lat="50.17295" lon="1.63311">
        <ele>27.9</ele>
        <time>2020-06-18T16:10:04Z</time>
      </trkpt>
      <trkpt lat="50.17295" lon="1.63322">
        <ele>27.8</ele>
        <time>2020-06-18T16:10:05Z</time>
      </trkpt>
      <trkpt lat="50.17296" lon="1.63333">
        <ele>27.7</ele>
        <time>2020-06-18T16:10:06Z</time>
      </trkpt>
      <trkpt lat="50.17296" lon="1.63345">
        <ele>27.7</ele>
        <time>2020-06-18T16:10:07Z</time>
      </trkpt>
      <trkpt lat="50.17296" lon="1.63357">
        <ele>27.6</ele>
        <time>2020-06-18T16:10:08Z</time>
      </trkpt>
      <trkpt lat="50.17296" lon="1.63368">
        <ele>27.5</ele>
        <time>2020-06-18T16:10:09Z</time>
      </trkpt>
      <trkpt lat="50.17296" lon="1.63379">
        <ele>27.5</ele>
        <time>2020-06-18T16:10:10Z</time>
      </trkpt>
      <trkpt lat="50.17296" lon="1.63391">
        <ele>27.5</ele>
        <time>2020-06-18T16:10:11Z</time>
      </trkpt>
      <trkpt lat="50.17296" lon="1.63402">
        <ele>27.5</ele>
        <time>2020-06-18T16:10:12Z</time>
      </trkpt>
      <trkpt lat="50.17296" lon="1.63413">
        <ele>27.5</ele>
        <time>2020-06-18T16:10:13Z</time>
      </trkpt>
      <trkpt lat="50.17296" lon="1.63424">
        <ele>27.5</ele>
        <time>2020-06-18T16:10:14Z</time>
      </trkpt>
      <trkpt lat="50.17296" lon="1.63435">
        <ele>27.5</ele>
        <time>2020-06-18T16:10:15Z</time>
      </trkpt>
      <trkpt lat="50.17295" lon="1.63445">
        <ele>27.5</ele>
        <time>2020-06-18T16:10:16Z</time>
      </trkpt>
      <trkpt lat="50.17296" lon="1.63456">
        <ele>27.5</ele>
        <time>2020-06-18T16:10:17Z</time>
      </trkpt>
      <trkpt lat="50.17295" lon="1.63466">
        <ele>27.5</ele>
        <time>2020-06-18T16:10:18Z</time>
      </trkpt>
      <trkpt lat="50.17295" lon="1.63476">
        <ele>27.5</ele>
        <time>2020-06-18T16:10:19Z</time>
      </trkpt>
      <trkpt lat="50.17295" lon="1.63487">
        <ele>27.4</ele>
        <time>2020-06-18T16:10:20Z</time>
      </trkpt>
      <trkpt lat="50.17294" lon="1.63497">
        <ele>27.4</ele>
        <time>2020-06-18T16:10:21Z</time>
      </trkpt>
      <trkpt lat="50.17294" lon="1.63506">
        <ele>27.4</ele>
        <time>2020-06-18T16:10:22Z</time>
      </trkpt>
      <trkpt lat="50.17294" lon="1.63516">
        <ele>27.4</ele>
        <time>2020-06-18T16:10:23Z</time>
      </trkpt>
      <trkpt lat="50.17294" lon="1.63525">
        <ele>27.5</ele>
        <time>2020-06-18T16:10:24Z</time>
      </trkpt>
      <trkpt lat="50.17294" lon="1.63535">
        <ele>27.6</ele>
        <time>2020-06-18T16:10:25Z</time>
      </trkpt>
      <trkpt lat="50.17293" lon="1.63544">
        <ele>27.6</ele>
        <time>2020-06-18T16:10:26Z</time>
      </trkpt>
      <trkpt lat="50.17294" lon="1.63552">
        <ele>27.7</ele>
        <time>2020-06-18T16:10:27Z</time>
      </trkpt>
      <trkpt lat="50.17294" lon="1.63561">
        <ele>27.8</ele>
        <time>2020-06-18T16:10:28Z</time>
      </trkpt>
      <trkpt lat="50.17294" lon="1.63569">
        <ele>27.9</ele>
        <time>2020-06-18T16:10:29Z</time>
      </trkpt>
      <trkpt lat="50.17294" lon="1.63577">
        <ele>28</ele>
        <time>2020-06-18T16:10:30Z</time>
      </trkpt>
      <trkpt lat="50.17294" lon="1.63583">
        <ele>28.1</ele>
        <time>2020-06-18T16:10:31Z</time>
      </trkpt>
      <trkpt lat="50.17293" lon="1.6359">
        <ele>28.2</ele>
        <time>2020-06-18T16:10:32Z</time>
      </trkpt>
      <trkpt lat="50.17291" lon="1.63593">
        <ele>28.3</ele>
        <time>2020-06-18T16:10:33Z</time>
      </trkpt>
      <trkpt lat="50.17288" lon="1.63595">
        <ele>28.4</ele>
        <time>2020-06-18T16:10:34Z</time>
      </trkpt>
      <trkpt lat="50.17285" lon="1.63595">
        <ele>28.4</ele>
        <time>2020-06-18T16:10:35Z</time>
      </trkpt>
      <trkpt lat="50.17282" lon="1.63597">
        <ele>28.5</ele>
        <time>2020-06-18T16:10:36Z</time>
      </trkpt>
      <trkpt lat="50.1728" lon="1.63602">
        <ele>28.5</ele>
        <time>2020-06-18T16:10:37Z</time>
      </trkpt>
      <trkpt lat="50.17279" lon="1.63604">
        <ele>28.5</ele>
        <time>2020-06-18T16:10:38Z</time>
      </trkpt>
      <trkpt lat="50.17277" lon="1.63608">
        <ele>28.4</ele>
        <time>2020-06-18T16:10:39Z</time>
      </trkpt>
      <trkpt lat="50.17275" lon="1.63614">
        <ele>28.3</ele>
        <time>2020-06-18T16:10:40Z</time>
      </trkpt>
      <trkpt lat="50.17275" lon="1.63619">
        <ele>28.2</ele>
        <time>2020-06-18T16:10:41Z</time>
      </trkpt>
      <trkpt lat="50.17275" lon="1.63625">
        <ele>28.1</ele>
        <time>2020-06-18T16:10:42Z</time>
      </trkpt>
      <trkpt lat="50.17274" lon="1.6363">
        <ele>28.1</ele>
        <time>2020-06-18T16:10:43Z</time>
      </trkpt>
      <trkpt lat="50.17274" lon="1.63635">
        <ele>28</ele>
        <time>2020-06-18T16:10:44Z</time>
      </trkpt>
      <trkpt lat="50.17274" lon="1.6364">
        <ele>28</ele>
        <time>2020-06-18T16:10:45Z</time>
      </trkpt>
      <trkpt lat="50.17275" lon="1.63646">
        <ele>27.9</ele>
        <time>2020-06-18T16:10:46Z</time>
      </trkpt>
      <trkpt lat="50.17276" lon="1.63651">
        <ele>27.8</ele>
        <time>2020-06-18T16:10:47Z</time>
      </trkpt>
      <trkpt lat="50.17277" lon="1.63655">
        <ele>27.8</ele>
        <time>2020-06-18T16:10:48Z</time>
      </trkpt>
      <trkpt lat="50.17278" lon="1.6366">
        <ele>27.8</ele>
        <time>2020-06-18T16:10:49Z</time>
      </trkpt>
      <trkpt lat="50.1728" lon="1.63664">
        <ele>27.7</ele>
        <time>2020-06-18T16:10:50Z</time>
      </trkpt>
      <trkpt lat="50.17283" lon="1.63668">
        <ele>27.7</ele>
        <time>2020-06-18T16:10:51Z</time>
      </trkpt>
      <trkpt lat="50.17286" lon="1.63672">
        <ele>27.6</ele>
        <time>2020-06-18T16:10:52Z</time>
      </trkpt>
      <trkpt lat="50.17288" lon="1.63677">
        <ele>27.6</ele>
        <time>2020-06-18T16:10:53Z</time>
      </trkpt>
      <trkpt lat="50.17289" lon="1.63683">
        <ele>27.6</ele>
        <time>2020-06-18T16:10:54Z</time>
      </trkpt>
      <trkpt lat="50.17288" lon="1.63689">
        <ele>27.5</ele>
        <time>2020-06-18T16:10:55Z</time>
      </trkpt>
      <trkpt lat="50.17288" lon="1.63695">
        <ele>27.5</ele>
        <time>2020-06-18T16:10:56Z</time>
      </trkpt>
      <trkpt lat="50.17287" lon="1.63701">
        <ele>27.4</ele>
        <time>2020-06-18T16:10:57Z</time>
      </trkpt>
      <trkpt lat="50.17287" lon="1.63708">
        <ele>27.4</ele>
        <time>2020-06-18T16:10:58Z</time>
      </trkpt>
      <trkpt lat="50.17287" lon="1.63714">
        <ele>27.3</ele>
        <time>2020-06-18T16:10:59Z</time>
      </trkpt>
      <trkpt lat="50.17287" lon="1.63721">
        <ele>27.3</ele>
        <time>2020-06-18T16:11:00Z</time>
      </trkpt>
      <trkpt lat="50.17287" lon="1.63727">
        <ele>27.3</ele>
        <time>2020-06-18T16:11:01Z</time>
      </trkpt>
      <trkpt lat="50.17287" lon="1.63734">
        <ele>27.2</ele>
        <time>2020-06-18T16:11:02Z</time>
      </trkpt>
      <trkpt lat="50.17287" lon="1.63742">
        <ele>27.2</ele>
        <time>2020-06-18T16:11:03Z</time>
      </trkpt>
      <trkpt lat="50.17288" lon="1.6375">
        <ele>27.1</ele>
        <time>2020-06-18T16:11:04Z</time>
      </trkpt>
      <trkpt lat="50.17289" lon="1.63757">
        <ele>27.1</ele>
        <time>2020-06-18T16:11:05Z</time>
      </trkpt>
      <trkpt lat="50.1729" lon="1.63766">
        <ele>27.1</ele>
        <time>2020-06-18T16:11:06Z</time>
      </trkpt>
      <trkpt lat="50.1729" lon="1.63775">
        <ele>27</ele>
        <time>2020-06-18T16:11:07Z</time>
      </trkpt>
      <trkpt lat="50.1729" lon="1.63783">
        <ele>27</ele>
        <time>2020-06-18T16:11:08Z</time>
      </trkpt>
      <trkpt lat="50.1729" lon="1.63791">
        <ele>26.9</ele>
        <time>2020-06-18T16:11:09Z</time>
      </trkpt>
      <trkpt lat="50.17291" lon="1.638">
        <ele>26.9</ele>
        <time>2020-06-18T16:11:10Z</time>
      </trkpt>
      <trkpt lat="50.17291" lon="1.63809">
        <ele>26.8</ele>
        <time>2020-06-18T16:11:11Z</time>
      </trkpt>
      <trkpt lat="50.17292" lon="1.63818">
        <ele>26.8</ele>
        <time>2020-06-18T16:11:12Z</time>
      </trkpt>
      <trkpt lat="50.17291" lon="1.63827">
        <ele>26.7</ele>
        <time>2020-06-18T16:11:13Z</time>
      </trkpt>
      <trkpt lat="50.17291" lon="1.63836">
        <ele>26.6</ele>
        <time>2020-06-18T16:11:14Z</time>
      </trkpt>
      <trkpt lat="50.17291" lon="1.63845">
        <ele>26.6</ele>
        <time>2020-06-18T16:11:15Z</time>
      </trkpt>
      <trkpt lat="50.1729" lon="1.63855">
        <ele>26.5</ele>
        <time>2020-06-18T16:11:16Z</time>
      </trkpt>
      <trkpt lat="50.17291" lon="1.63864">
        <ele>26.5</ele>
        <time>2020-06-18T16:11:17Z</time>
      </trkpt>
      <trkpt lat="50.17292" lon="1.63873">
        <ele>26.4</ele>
        <time>2020-06-18T16:11:18Z</time>
      </trkpt>
      <trkpt lat="50.17292" lon="1.63881">
        <ele>26.4</ele>
        <time>2020-06-18T16:11:19Z</time>
      </trkpt>
      <trkpt lat="50.17291" lon="1.6389">
        <ele>26.4</ele>
        <time>2020-06-18T16:11:20Z</time>
      </trkpt>
      <trkpt lat="50.17291" lon="1.63899">
        <ele>26.4</ele>
        <time>2020-06-18T16:11:21Z</time>
      </trkpt>
      <trkpt lat="50.17291" lon="1.63909">
        <ele>26.3</ele>
        <time>2020-06-18T16:11:22Z</time>
      </trkpt>
      <trkpt lat="50.17291" lon="1.63918">
        <ele>26.2</ele>
        <time>2020-06-18T16:11:23Z</time>
      </trkpt>
      <trkpt lat="50.17291" lon="1.63928">
        <ele>26.2</ele>
        <time>2020-06-18T16:11:24Z</time>
      </trkpt>
      <trkpt lat="50.17291" lon="1.63938">
        <ele>26.1</ele>
        <time>2020-06-18T16:11:25Z</time>
      </trkpt>
      <trkpt lat="50.17292" lon="1.63948">
        <ele>26</ele>
        <time>2020-06-18T16:11:26Z</time>
      </trkpt>
      <trkpt lat="50.17292" lon="1.63958">
        <ele>26</ele>
        <time>2020-06-18T16:11:27Z</time>
      </trkpt>
      <trkpt lat="50.17292" lon="1.63967">
        <ele>25.9</ele>
        <time>2020-06-18T16:11:28Z</time>
      </trkpt>
      <trkpt lat="50.17292" lon="1.63977">
        <ele>25.8</ele>
        <time>2020-06-18T16:11:29Z</time>
      </trkpt>
      <trkpt lat="50.17292" lon="1.63986">
        <ele>25.7</ele>
        <time>2020-06-18T16:11:30Z</time>
      </trkpt>
      <trkpt lat="50.17292" lon="1.63996">
        <ele>25.7</ele>
        <time>2020-06-18T16:11:31Z</time>
      </trkpt>
      <trkpt lat="50.17292" lon="1.64005">
        <ele>25.6</ele>
        <time>2020-06-18T16:11:32Z</time>
      </trkpt>
      <trkpt lat="50.17292" lon="1.64015">
        <ele>25.6</ele>
        <time>2020-06-18T16:11:33Z</time>
      </trkpt>
      <trkpt lat="50.17291" lon="1.64025">
        <ele>25.5</ele>
        <time>2020-06-18T16:11:34Z</time>
      </trkpt>
      <trkpt lat="50.1729" lon="1.64035">
        <ele>25.4</ele>
        <time>2020-06-18T16:11:35Z</time>
      </trkpt>
      <trkpt lat="50.1729" lon="1.64044">
        <ele>25.3</ele>
        <time>2020-06-18T16:11:36Z</time>
      </trkpt>
      <trkpt lat="50.1729" lon="1.64054">
        <ele>25.3</ele>
        <time>2020-06-18T16:11:37Z</time>
      </trkpt>
      <trkpt lat="50.17289" lon="1.64063">
        <ele>25.2</ele>
        <time>2020-06-18T16:11:38Z</time>
      </trkpt>
      <trkpt lat="50.17289" lon="1.64073">
        <ele>25</ele>
        <time>2020-06-18T16:11:39Z</time>
      </trkpt>
      <trkpt lat="50.17289" lon="1.64083">
        <ele>24.9</ele>
        <time>2020-06-18T16:11:40Z</time>
      </trkpt>
      <trkpt lat="50.17289" lon="1.64093">
        <ele>24.8</ele>
        <time>2020-06-18T16:11:41Z</time>
      </trkpt>
      <trkpt lat="50.17289" lon="1.64103">
        <ele>24.7</ele>
        <time>2020-06-18T16:11:42Z</time>
      </trkpt>
      <trkpt lat="50.17289" lon="1.64113">
        <ele>24.6</ele>
        <time>2020-06-18T16:11:43Z</time>
      </trkpt>
      <trkpt lat="50.17289" lon="1.64123">
        <ele>24.5</ele>
        <time>2020-06-18T16:11:44Z</time>
      </trkpt>
      <trkpt lat="50.17289" lon="1.64131">
        <ele>24.4</ele>
        <time>2020-06-18T16:11:45Z</time>
      </trkpt>
      <trkpt lat="50.17289" lon="1.6414">
        <ele>24.3</ele>
        <time>2020-06-18T16:11:46Z</time>
      </trkpt>
      <trkpt lat="50.17289" lon="1.6415">
        <ele>24.1</ele>
        <time>2020-06-18T16:11:47Z</time>
      </trkpt>
      <trkpt lat="50.1729" lon="1.64159">
        <ele>24</ele>
        <time>2020-06-18T16:11:48Z</time>
      </trkpt>
      <trkpt lat="50.1729" lon="1.64169">
        <ele>23.8</ele>
        <time>2020-06-18T16:11:49Z</time>
      </trkpt>
      <trkpt lat="50.17289" lon="1.64179">
        <ele>23.6</ele>
        <time>2020-06-18T16:11:50Z</time>
      </trkpt>
      <trkpt lat="50.17289" lon="1.6419">
        <ele>23.4</ele>
        <time>2020-06-18T16:11:51Z</time>
      </trkpt>
      <trkpt lat="50.17289" lon="1.64201">
        <ele>23.2</ele>
        <time>2020-06-18T16:11:52Z</time>
      </trkpt>
      <trkpt lat="50.17289" lon="1.64212">
        <ele>22.8</ele>
        <time>2020-06-18T16:11:53Z</time>
      </trkpt>
      <trkpt lat="50.17289" lon="1.64223">
        <ele>22.5</ele>
        <time>2020-06-18T16:11:54Z</time>
      </trkpt>
      <trkpt lat="50.1729" lon="1.64234">
        <ele>22.2</ele>
        <time>2020-06-18T16:11:55Z</time>
      </trkpt>
      <trkpt lat="50.1729" lon="1.64245">
        <ele>21.9</ele>
        <time>2020-06-18T16:11:56Z</time>
      </trkpt>
      <trkpt lat="50.1729" lon="1.64257">
        <ele>21.6</ele>
        <time>2020-06-18T16:11:57Z</time>
      </trkpt>
      <trkpt lat="50.1729" lon="1.64269">
        <ele>21.3</ele>
        <time>2020-06-18T16:11:58Z</time>
      </trkpt>
      <trkpt lat="50.1729" lon="1.64281">
        <ele>21</ele>
        <time>2020-06-18T16:11:59Z</time>
      </trkpt>
      <trkpt lat="50.1729" lon="1.64293">
        <ele>20.7</ele>
        <time>2020-06-18T16:12:00Z</time>
      </trkpt>
      <trkpt lat="50.1729" lon="1.64305">
        <ele>20.3</ele>
        <time>2020-06-18T16:12:01Z</time>
      </trkpt>
      <trkpt lat="50.1729" lon="1.64318">
        <ele>20</ele>
        <time>2020-06-18T16:12:02Z</time>
      </trkpt>
      <trkpt lat="50.1729" lon="1.64331">
        <ele>19.6</ele>
        <time>2020-06-18T16:12:03Z</time>
      </trkpt>
      <trkpt lat="50.1729" lon="1.64344">
        <ele>19.2</ele>
        <time>2020-06-18T16:12:04Z</time>
      </trkpt>
      <trkpt lat="50.17289" lon="1.64357">
        <ele>18.9</ele>
        <time>2020-06-18T16:12:05Z</time>
      </trkpt>
      <trkpt lat="50.17289" lon="1.64371">
        <ele>18.5</ele>
        <time>2020-06-18T16:12:06Z</time>
      </trkpt>
      <trkpt lat="50.17289" lon="1.64384">
        <ele>18.1</ele>
        <time>2020-06-18T16:12:07Z</time>
      </trkpt>
      <trkpt lat="50.17287" lon="1.64398">
        <ele>17.8</ele>
        <time>2020-06-18T16:12:08Z</time>
      </trkpt>
      <trkpt lat="50.17287" lon="1.64411">
        <ele>17.5</ele>
        <time>2020-06-18T16:12:09Z</time>
      </trkpt>
      <trkpt lat="50.17286" lon="1.64424">
        <ele>17.3</ele>
        <time>2020-06-18T16:12:10Z</time>
      </trkpt>
      <trkpt lat="50.17285" lon="1.64437">
        <ele>17.1</ele>
        <time>2020-06-18T16:12:11Z</time>
      </trkpt>
      <trkpt lat="50.17285" lon="1.64449">
        <ele>17</ele>
        <time>2020-06-18T16:12:12Z</time>
      </trkpt>
      <trkpt lat="50.17285" lon="1.64461">
        <ele>16.7</ele>
        <time>2020-06-18T16:12:13Z</time>
      </trkpt>
      <trkpt lat="50.17285" lon="1.64473">
        <ele>16.4</ele>
        <time>2020-06-18T16:12:14Z</time>
      </trkpt>
      <trkpt lat="50.17285" lon="1.64485">
        <ele>16</ele>
        <time>2020-06-18T16:12:15Z</time>
      </trkpt>
      <trkpt lat="50.17284" lon="1.64498">
        <ele>15.7</ele>
        <time>2020-06-18T16:12:16Z</time>
      </trkpt>
      <trkpt lat="50.17285" lon="1.6451">
        <ele>15.3</ele>
        <time>2020-06-18T16:12:17Z</time>
      </trkpt>
      <trkpt lat="50.17284" lon="1.64524">
        <ele>14.9</ele>
        <time>2020-06-18T16:12:18Z</time>
      </trkpt>
      <trkpt lat="50.17284" lon="1.64537">
        <ele>14.4</ele>
        <time>2020-06-18T16:12:19Z</time>
      </trkpt>
      <trkpt lat="50.17282" lon="1.64551">
        <ele>13.8</ele>
        <time>2020-06-18T16:12:20Z</time>
      </trkpt>
      <trkpt lat="50.17282" lon="1.64566">
        <ele>13.2</ele>
        <time>2020-06-18T16:12:21Z</time>
      </trkpt>
      <trkpt lat="50.1728" lon="1.64581">
        <ele>12.6</ele>
        <time>2020-06-18T16:12:22Z</time>
      </trkpt>
      <trkpt lat="50.17279" lon="1.64596">
        <ele>12</ele>
        <time>2020-06-18T16:12:23Z</time>
      </trkpt>
      <trkpt lat="50.17278" lon="1.64611">
        <ele>11.4</ele>
        <time>2020-06-18T16:12:24Z</time>
      </trkpt>
      <trkpt lat="50.17276" lon="1.64626">
        <ele>10.9</ele>
        <time>2020-06-18T16:12:25Z</time>
      </trkpt>
      <trkpt lat="50.17274" lon="1.64641">
        <ele>10.4</ele>
        <time>2020-06-18T16:12:26Z</time>
      </trkpt>
      <trkpt lat="50.17273" lon="1.64657">
        <ele>10</ele>
        <time>2020-06-18T16:12:27Z</time>
      </trkpt>
      <trkpt lat="50.1727" lon="1.64672">
        <ele>9.4</ele>
        <time>2020-06-18T16:12:28Z</time>
      </trkpt>
      <trkpt lat="50.17267" lon="1.64687">
        <ele>8.9</ele>
        <time>2020-06-18T16:12:29Z</time>
      </trkpt>
      <trkpt lat="50.17266" lon="1.64702">
        <ele>8.3</ele>
        <time>2020-06-18T16:12:30Z</time>
      </trkpt>
      <trkpt lat="50.17264" lon="1.64717">
        <ele>7.8</ele>
        <time>2020-06-18T16:12:31Z</time>
      </trkpt>
      <trkpt lat="50.17261" lon="1.64732">
        <ele>7.3</ele>
        <time>2020-06-18T16:12:32Z</time>
      </trkpt>
      <trkpt lat="50.17259" lon="1.64747">
        <ele>6.9</ele>
        <time>2020-06-18T16:12:33Z</time>
      </trkpt>
      <trkpt lat="50.17257" lon="1.64762">
        <ele>6.5</ele>
        <time>2020-06-18T16:12:34Z</time>
      </trkpt>
      <trkpt lat="50.17255" lon="1.64777">
        <ele>6.1</ele>
        <time>2020-06-18T16:12:35Z</time>
      </trkpt>
      <trkpt lat="50.17253" lon="1.64791">
        <ele>5.8</ele>
        <time>2020-06-18T16:12:36Z</time>
      </trkpt>
      <trkpt lat="50.17251" lon="1.64805">
        <ele>5.5</ele>
        <time>2020-06-18T16:12:37Z</time>
      </trkpt>
      <trkpt lat="50.17249" lon="1.64818">
        <ele>5.4</ele>
        <time>2020-06-18T16:12:38Z</time>
      </trkpt>
      <trkpt lat="50.17249" lon="1.64831">
        <ele>5.3</ele>
        <time>2020-06-18T16:12:39Z</time>
      </trkpt>
      <trkpt lat="50.17249" lon="1.64843">
        <ele>5.2</ele>
        <time>2020-06-18T16:12:40Z</time>
      </trkpt>
      <trkpt lat="50.17248" lon="1.64854">
        <ele>5.1</ele>
        <time>2020-06-18T16:12:41Z</time>
      </trkpt>
      <trkpt lat="50.17248" lon="1.64863">
        <ele>5</ele>
        <time>2020-06-18T16:12:42Z</time>
      </trkpt>
      <trkpt lat="50.17247" lon="1.64871">
        <ele>4.9</ele>
        <time>2020-06-18T16:12:43Z</time>
      </trkpt>
      <trkpt lat="50.17245" lon="1.64878">
        <ele>4.9</ele>
        <time>2020-06-18T16:12:44Z</time>
      </trkpt>
      <trkpt lat="50.17245" lon="1.64884">
        <ele>4.8</ele>
        <time>2020-06-18T16:12:45Z</time>
      </trkpt>
      <trkpt lat="50.17245" lon="1.64889">
        <ele>4.8</ele>
        <time>2020-06-18T16:12:46Z</time>
      </trkpt>
      <trkpt lat="50.17244" lon="1.64893">
        <ele>4.8</ele>
        <time>2020-06-18T16:12:47Z</time>
      </trkpt>
      <trkpt lat="50.17243" lon="1.64897">
        <ele>4.8</ele>
        <time>2020-06-18T16:12:48Z</time>
      </trkpt>
      <trkpt lat="50.17243" lon="1.64903">
        <ele>4.8</ele>
        <time>2020-06-18T16:12:49Z</time>
      </trkpt>
      <trkpt lat="50.17243" lon="1.64905">
        <ele>4.9</ele>
        <time>2020-06-18T16:12:50Z</time>
      </trkpt>
      <trkpt lat="50.17242" lon="1.64911">
        <ele>4.9</ele>
        <time>2020-06-18T16:12:51Z</time>
      </trkpt>
      <trkpt lat="50.17241" lon="1.64913">
        <ele>4.9</ele>
        <time>2020-06-18T16:12:52Z</time>
      </trkpt>
      <trkpt lat="50.1724" lon="1.64918">
        <ele>5</ele>
        <time>2020-06-18T16:12:53Z</time>
      </trkpt>
      <trkpt lat="50.1724" lon="1.64924">
        <ele>5.1</ele>
        <time>2020-06-18T16:12:54Z</time>
      </trkpt>
      <trkpt lat="50.17239" lon="1.6493">
        <ele>5.2</ele>
        <time>2020-06-18T16:12:55Z</time>
      </trkpt>
      <trkpt lat="50.17239" lon="1.64937">
        <ele>5.1</ele>
        <time>2020-06-18T16:12:56Z</time>
      </trkpt>
      <trkpt lat="50.1724" lon="1.64944">
        <ele>5</ele>
        <time>2020-06-18T16:12:57Z</time>
      </trkpt>
      <trkpt lat="50.1724" lon="1.64952">
        <ele>4.9</ele>
        <time>2020-06-18T16:12:58Z</time>
      </trkpt>
      <trkpt lat="50.17241" lon="1.64959">
        <ele>5</ele>
        <time>2020-06-18T16:12:59Z</time>
      </trkpt>
      <trkpt lat="50.17243" lon="1.64965">
        <ele>4.9</ele>
        <time>2020-06-18T16:13:00Z</time>
      </trkpt>
      <trkpt lat="50.17245" lon="1.64972">
        <ele>4.8</ele>
        <time>2020-06-18T16:13:01Z</time>
      </trkpt>
      <trkpt lat="50.17247" lon="1.64978">
        <ele>4.7</ele>
        <time>2020-06-18T16:13:02Z</time>
      </trkpt>
      <trkpt lat="50.17248" lon="1.64985">
        <ele>4.6</ele>
        <time>2020-06-18T16:13:03Z</time>
      </trkpt>
      <trkpt lat="50.1725" lon="1.64991">
        <ele>4.6</ele>
        <time>2020-06-18T16:13:04Z</time>
      </trkpt>
      <trkpt lat="50.1725" lon="1.64998">
        <ele>4.5</ele>
        <time>2020-06-18T16:13:05Z</time>
      </trkpt>
      <trkpt lat="50.17249" lon="1.65005">
        <ele>4.5</ele>
        <time>2020-06-18T16:13:06Z</time>
      </trkpt>
      <trkpt lat="50.17247" lon="1.65011">
        <ele>4.5</ele>
        <time>2020-06-18T16:13:07Z</time>
      </trkpt>
      <trkpt lat="50.17245" lon="1.65017">
        <ele>4.4</ele>
        <time>2020-06-18T16:13:08Z</time>
      </trkpt>
      <trkpt lat="50.17243" lon="1.65022">
        <ele>4.3</ele>
        <time>2020-06-18T16:13:09Z</time>
      </trkpt>
      <trkpt lat="50.1724" lon="1.65027">
        <ele>4.2</ele>
        <time>2020-06-18T16:13:10Z</time>
      </trkpt>
      <trkpt lat="50.17238" lon="1.65033">
        <ele>4.1</ele>
        <time>2020-06-18T16:13:11Z</time>
      </trkpt>
      <trkpt lat="50.17237" lon="1.65039">
        <ele>4</ele>
        <time>2020-06-18T16:13:12Z</time>
      </trkpt>
      <trkpt lat="50.17235" lon="1.65046">
        <ele>3.9</ele>
        <time>2020-06-18T16:13:13Z</time>
      </trkpt>
      <trkpt lat="50.17234" lon="1.65052">
        <ele>3.9</ele>
        <time>2020-06-18T16:13:14Z</time>
      </trkpt>
      <trkpt lat="50.17233" lon="1.65058">
        <ele>3.8</ele>
        <time>2020-06-18T16:13:15Z</time>
      </trkpt>
      <trkpt lat="50.17232" lon="1.65065">
        <ele>3.8</ele>
        <time>2020-06-18T16:13:16Z</time>
      </trkpt>
      <trkpt lat="50.1723" lon="1.65072">
        <ele>3.7</ele>
        <time>2020-06-18T16:13:17Z</time>
      </trkpt>
      <trkpt lat="50.17228" lon="1.65077">
        <ele>3.7</ele>
        <time>2020-06-18T16:13:18Z</time>
      </trkpt>
      <trkpt lat="50.17227" lon="1.65084">
        <ele>3.6</ele>
        <time>2020-06-18T16:13:19Z</time>
      </trkpt>
      <trkpt lat="50.17226" lon="1.6509">
        <ele>3.6</ele>
        <time>2020-06-18T16:13:20Z</time>
      </trkpt>
      <trkpt lat="50.17225" lon="1.65097">
        <ele>3.6</ele>
        <time>2020-06-18T16:13:21Z</time>
      </trkpt>
      <trkpt lat="50.17225" lon="1.65106">
        <ele>3.6</ele>
        <time>2020-06-18T16:13:22Z</time>
      </trkpt>
      <trkpt lat="50.17224" lon="1.65115">
        <ele>3.6</ele>
        <time>2020-06-18T16:13:23Z</time>
      </trkpt>
      <trkpt lat="50.17222" lon="1.65125">
        <ele>3.6</ele>
        <time>2020-06-18T16:13:24Z</time>
      </trkpt>
      <trkpt lat="50.17222" lon="1.65135">
        <ele>3.5</ele>
        <time>2020-06-18T16:13:25Z</time>
      </trkpt>
      <trkpt lat="50.1722" lon="1.65146">
        <ele>3.5</ele>
        <time>2020-06-18T16:13:26Z</time>
      </trkpt>
      <trkpt lat="50.17217" lon="1.65157">
        <ele>3.4</ele>
        <time>2020-06-18T16:13:27Z</time>
      </trkpt>
      <trkpt lat="50.17216" lon="1.65168">
        <ele>3.3</ele>
        <time>2020-06-18T16:13:28Z</time>
      </trkpt>
      <trkpt lat="50.17214" lon="1.65179">
        <ele>3.2</ele>
        <time>2020-06-18T16:13:29Z</time>
      </trkpt>
      <trkpt lat="50.17212" lon="1.6519">
        <ele>3.2</ele>
        <time>2020-06-18T16:13:30Z</time>
      </trkpt>
      <trkpt lat="50.17211" lon="1.65202">
        <ele>3.1</ele>
        <time>2020-06-18T16:13:31Z</time>
      </trkpt>
      <trkpt lat="50.1721" lon="1.65213">
        <ele>3</ele>
        <time>2020-06-18T16:13:32Z</time>
      </trkpt>
      <trkpt lat="50.17209" lon="1.65224">
        <ele>2.9</ele>
        <time>2020-06-18T16:13:33Z</time>
      </trkpt>
      <trkpt lat="50.17208" lon="1.65235">
        <ele>2.9</ele>
        <time>2020-06-18T16:13:34Z</time>
      </trkpt>
      <trkpt lat="50.17207" lon="1.65245">
        <ele>2.8</ele>
        <time>2020-06-18T16:13:35Z</time>
      </trkpt>
      <trkpt lat="50.17206" lon="1.65256">
        <ele>2.8</ele>
        <time>2020-06-18T16:13:36Z</time>
      </trkpt>
      <trkpt lat="50.17205" lon="1.65265">
        <ele>2.8</ele>
        <time>2020-06-18T16:13:37Z</time>
      </trkpt>
      <trkpt lat="50.17204" lon="1.65275">
        <ele>2.8</ele>
        <time>2020-06-18T16:13:38Z</time>
      </trkpt>
      <trkpt lat="50.17202" lon="1.65284">
        <ele>2.9</ele>
        <time>2020-06-18T16:13:39Z</time>
      </trkpt>
      <trkpt lat="50.17201" lon="1.65294">
        <ele>2.9</ele>
        <time>2020-06-18T16:13:40Z</time>
      </trkpt>
      <trkpt lat="50.17201" lon="1.65303">
        <ele>3</ele>
        <time>2020-06-18T16:13:41Z</time>
      </trkpt>
      <trkpt lat="50.172" lon="1.65312">
        <ele>3</ele>
        <time>2020-06-18T16:13:42Z</time>
      </trkpt>
      <trkpt lat="50.17201" lon="1.6532">
        <ele>3.1</ele>
        <time>2020-06-18T16:13:43Z</time>
      </trkpt>
      <trkpt lat="50.17202" lon="1.65329">
        <ele>3.1</ele>
        <time>2020-06-18T16:13:44Z</time>
      </trkpt>
      <trkpt lat="50.17202" lon="1.65336">
        <ele>3.1</ele>
        <time>2020-06-18T16:13:45Z</time>
      </trkpt>
      <trkpt lat="50.17202" lon="1.65344">
        <ele>3.1</ele>
        <time>2020-06-18T16:13:46Z</time>
      </trkpt>
      <trkpt lat="50.17201" lon="1.65353">
        <ele>3.1</ele>
        <time>2020-06-18T16:13:47Z</time>
      </trkpt>
      <trkpt lat="50.17202" lon="1.65362">
        <ele>3.1</ele>
        <time>2020-06-18T16:13:48Z</time>
      </trkpt>
      <trkpt lat="50.17202" lon="1.6537">
        <ele>3.1</ele>
        <time>2020-06-18T16:13:49Z</time>
      </trkpt>
      <trkpt lat="50.17201" lon="1.65379">
        <ele>3.1</ele>
        <time>2020-06-18T16:13:50Z</time>
      </trkpt>
      <trkpt lat="50.17201" lon="1.65388">
        <ele>3.1</ele>
        <time>2020-06-18T16:13:51Z</time>
      </trkpt>
      <trkpt lat="50.17201" lon="1.65397">
        <ele>3.1</ele>
        <time>2020-06-18T16:13:52Z</time>
      </trkpt>
      <trkpt lat="50.17201" lon="1.65406">
        <ele>3.1</ele>
        <time>2020-06-18T16:13:53Z</time>
      </trkpt>
      <trkpt lat="50.17201" lon="1.65416">
        <ele>3.1</ele>
        <time>2020-06-18T16:13:54Z</time>
      </trkpt>
      <trkpt lat="50.17202" lon="1.65425">
        <ele>3.1</ele>
        <time>2020-06-18T16:13:55Z</time>
      </trkpt>
      <trkpt lat="50.17202" lon="1.65435">
        <ele>3.2</ele>
        <time>2020-06-18T16:13:56Z</time>
      </trkpt>
      <trkpt lat="50.17204" lon="1.65444">
        <ele>3.3</ele>
        <time>2020-06-18T16:13:57Z</time>
      </trkpt>
      <trkpt lat="50.17205" lon="1.65456">
        <ele>3.3</ele>
        <time>2020-06-18T16:13:58Z</time>
      </trkpt>
      <trkpt lat="50.17205" lon="1.65466">
        <ele>3.4</ele>
        <time>2020-06-18T16:13:59Z</time>
      </trkpt>
      <trkpt lat="50.17206" lon="1.65478">
        <ele>3.5</ele>
        <time>2020-06-18T16:14:00Z</time>
      </trkpt>
      <trkpt lat="50.17206" lon="1.65487">
        <ele>3.5</ele>
        <time>2020-06-18T16:14:01Z</time>
      </trkpt>
      <trkpt lat="50.17207" lon="1.65495">
        <ele>3.6</ele>
        <time>2020-06-18T16:14:02Z</time>
      </trkpt>
      <trkpt lat="50.17208" lon="1.65506">
        <ele>3.7</ele>
        <time>2020-06-18T16:14:03Z</time>
      </trkpt>
      <trkpt lat="50.17209" lon="1.65514">
        <ele>3.7</ele>
        <time>2020-06-18T16:14:04Z</time>
      </trkpt>
      <trkpt lat="50.17211" lon="1.65526">
        <ele>3.9</ele>
        <time>2020-06-18T16:14:05Z</time>
      </trkpt>
      <trkpt lat="50.17212" lon="1.65536">
        <ele>4</ele>
        <time>2020-06-18T16:14:06Z</time>
      </trkpt>
      <trkpt lat="50.17214" lon="1.65543">
        <ele>4.1</ele>
        <time>2020-06-18T16:14:07Z</time>
      </trkpt>
      <trkpt lat="50.17215" lon="1.65552">
        <ele>4.3</ele>
        <time>2020-06-18T16:14:08Z</time>
      </trkpt>
      <trkpt lat="50.17217" lon="1.65562">
        <ele>4.6</ele>
        <time>2020-06-18T16:14:09Z</time>
      </trkpt>
      <trkpt lat="50.1722" lon="1.6557">
        <ele>4.8</ele>
        <time>2020-06-18T16:14:10Z</time>
      </trkpt>
      <trkpt lat="50.17223" lon="1.65578">
        <ele>5.1</ele>
        <time>2020-06-18T16:14:11Z</time>
      </trkpt>
      <trkpt lat="50.17225" lon="1.65588">
        <ele>5.3</ele>
        <time>2020-06-18T16:14:12Z</time>
      </trkpt>
      <trkpt lat="50.17227" lon="1.65596">
        <ele>5.4</ele>
        <time>2020-06-18T16:14:13Z</time>
      </trkpt>
      <trkpt lat="50.17231" lon="1.65604">
        <ele>5.5</ele>
        <time>2020-06-18T16:14:14Z</time>
      </trkpt>
      <trkpt lat="50.17234" lon="1.65613">
        <ele>5.5</ele>
        <time>2020-06-18T16:14:15Z</time>
      </trkpt>
      <trkpt lat="50.17237" lon="1.65622">
        <ele>5.6</ele>
        <time>2020-06-18T16:14:16Z</time>
      </trkpt>
      <trkpt lat="50.1724" lon="1.6563">
        <ele>5.7</ele>
        <time>2020-06-18T16:14:17Z</time>
      </trkpt>
      <trkpt lat="50.17243" lon="1.65638">
        <ele>5.8</ele>
        <time>2020-06-18T16:14:18Z</time>
      </trkpt>
      <trkpt lat="50.17245" lon="1.65645">
        <ele>5.8</ele>
        <time>2020-06-18T16:14:19Z</time>
      </trkpt>
      <trkpt lat="50.17248" lon="1.65652">
        <ele>5.9</ele>
        <time>2020-06-18T16:14:20Z</time>
      </trkpt>
      <trkpt lat="50.17251" lon="1.65657">
        <ele>5.9</ele>
        <time>2020-06-18T16:14:21Z</time>
      </trkpt>
      <trkpt lat="50.17254" lon="1.65664">
        <ele>6</ele>
        <time>2020-06-18T16:14:22Z</time>
      </trkpt>
      <trkpt lat="50.17257" lon="1.6567">
        <ele>6</ele>
        <time>2020-06-18T16:14:23Z</time>
      </trkpt>
      <trkpt lat="50.1726" lon="1.65676">
        <ele>6.1</ele>
        <time>2020-06-18T16:14:24Z</time>
      </trkpt>
      <trkpt lat="50.17263" lon="1.65682">
        <ele>6.1</ele>
        <time>2020-06-18T16:14:25Z</time>
      </trkpt>
      <trkpt lat="50.17266" lon="1.65688">
        <ele>6.2</ele>
        <time>2020-06-18T16:14:26Z</time>
      </trkpt>
      <trkpt lat="50.1727" lon="1.65694">
        <ele>6.3</ele>
        <time>2020-06-18T16:14:27Z</time>
      </trkpt>
      <trkpt lat="50.17274" lon="1.65701">
        <ele>6.4</ele>
        <time>2020-06-18T16:14:28Z</time>
      </trkpt>
      <trkpt lat="50.17277" lon="1.65707">
        <ele>6.4</ele>
        <time>2020-06-18T16:14:29Z</time>
      </trkpt>
      <trkpt lat="50.1728" lon="1.65713">
        <ele>6.5</ele>
        <time>2020-06-18T16:14:30Z</time>
      </trkpt>
      <trkpt lat="50.17283" lon="1.65719">
        <ele>6.5</ele>
        <time>2020-06-18T16:14:31Z</time>
      </trkpt>
      <trkpt lat="50.17286" lon="1.65723">
        <ele>6.6</ele>
        <time>2020-06-18T16:14:32Z</time>
      </trkpt>
      <trkpt lat="50.17289" lon="1.65727">
        <ele>6.6</ele>
        <time>2020-06-18T16:14:33Z</time>
      </trkpt>
      <trkpt lat="50.17292" lon="1.65733">
        <ele>6.7</ele>
        <time>2020-06-18T16:14:34Z</time>
      </trkpt>
      <trkpt lat="50.17295" lon="1.65737">
        <ele>6.7</ele>
        <time>2020-06-18T16:14:35Z</time>
      </trkpt>
      <trkpt lat="50.17298" lon="1.65743">
        <ele>6.7</ele>
        <time>2020-06-18T16:14:36Z</time>
      </trkpt>
      <trkpt lat="50.17301" lon="1.65749">
        <ele>6.8</ele>
        <time>2020-06-18T16:14:37Z</time>
      </trkpt>
      <trkpt lat="50.17304" lon="1.65755">
        <ele>6.8</ele>
        <time>2020-06-18T16:14:38Z</time>
      </trkpt>
      <trkpt lat="50.17306" lon="1.6576">
        <ele>6.8</ele>
        <time>2020-06-18T16:14:39Z</time>
      </trkpt>
      <trkpt lat="50.1731" lon="1.65767">
        <ele>6.8</ele>
        <time>2020-06-18T16:14:40Z</time>
      </trkpt>
      <trkpt lat="50.17313" lon="1.65772">
        <ele>6.8</ele>
        <time>2020-06-18T16:14:41Z</time>
      </trkpt>
      <trkpt lat="50.17315" lon="1.65776">
        <ele>6.8</ele>
        <time>2020-06-18T16:14:42Z</time>
      </trkpt>
      <trkpt lat="50.17319" lon="1.65782">
        <ele>6.8</ele>
        <time>2020-06-18T16:14:43Z</time>
      </trkpt>
      <trkpt lat="50.1732" lon="1.65786">
        <ele>6.8</ele>
        <time>2020-06-18T16:14:44Z</time>
      </trkpt>
      <trkpt lat="50.17323" lon="1.65791">
        <ele>6.8</ele>
        <time>2020-06-18T16:14:45Z</time>
      </trkpt>
      <trkpt lat="50.17325" lon="1.65796">
        <ele>6.8</ele>
        <time>2020-06-18T16:14:46Z</time>
      </trkpt>
      <trkpt lat="50.17327" lon="1.658">
        <ele>6.8</ele>
        <time>2020-06-18T16:14:47Z</time>
      </trkpt>
      <trkpt lat="50.1733" lon="1.65805">
        <ele>6.7</ele>
        <time>2020-06-18T16:14:48Z</time>
      </trkpt>
      <trkpt lat="50.17332" lon="1.6581">
        <ele>6.7</ele>
        <time>2020-06-18T16:14:49Z</time>
      </trkpt>
      <trkpt lat="50.17334" lon="1.65815">
        <ele>6.7</ele>
        <time>2020-06-18T16:14:50Z</time>
      </trkpt>
      <trkpt lat="50.17336" lon="1.65819">
        <ele>6.7</ele>
        <time>2020-06-18T16:14:51Z</time>
      </trkpt>
      <trkpt lat="50.17339" lon="1.65824">
        <ele>6.6</ele>
        <time>2020-06-18T16:14:52Z</time>
      </trkpt>
      <trkpt lat="50.17342" lon="1.6583">
        <ele>6.6</ele>
        <time>2020-06-18T16:14:53Z</time>
      </trkpt>
      <trkpt lat="50.17345" lon="1.65835">
        <ele>6.5</ele>
        <time>2020-06-18T16:14:54Z</time>
      </trkpt>
      <trkpt lat="50.17348" lon="1.65843">
        <ele>6.5</ele>
        <time>2020-06-18T16:14:55Z</time>
      </trkpt>
      <trkpt lat="50.17351" lon="1.65851">
        <ele>6.4</ele>
        <time>2020-06-18T16:14:56Z</time>
      </trkpt>
      <trkpt lat="50.17354" lon="1.65859">
        <ele>6.3</ele>
        <time>2020-06-18T16:14:57Z</time>
      </trkpt>
      <trkpt lat="50.17358" lon="1.65867">
        <ele>6.3</ele>
        <time>2020-06-18T16:14:58Z</time>
      </trkpt>
      <trkpt lat="50.17362" lon="1.65874">
        <ele>6.2</ele>
        <time>2020-06-18T16:14:59Z</time>
      </trkpt>
      <trkpt lat="50.17365" lon="1.65881">
        <ele>6.1</ele>
        <time>2020-06-18T16:15:00Z</time>
      </trkpt>
      <trkpt lat="50.17369" lon="1.65889">
        <ele>6.1</ele>
        <time>2020-06-18T16:15:01Z</time>
      </trkpt>
      <trkpt lat="50.17372" lon="1.65897">
        <ele>6</ele>
        <time>2020-06-18T16:15:02Z</time>
      </trkpt>
      <trkpt lat="50.17375" lon="1.65906">
        <ele>5.9</ele>
        <time>2020-06-18T16:15:03Z</time>
      </trkpt>
      <trkpt lat="50.17377" lon="1.65917">
        <ele>5.7</ele>
        <time>2020-06-18T16:15:04Z</time>
      </trkpt>
      <trkpt lat="50.17379" lon="1.65926">
        <ele>5.5</ele>
        <time>2020-06-18T16:15:05Z</time>
      </trkpt>
      <trkpt lat="50.1738" lon="1.65937">
        <ele>5.4</ele>
        <time>2020-06-18T16:15:06Z</time>
      </trkpt>
      <trkpt lat="50.17381" lon="1.65947">
        <ele>5.1</ele>
        <time>2020-06-18T16:15:07Z</time>
      </trkpt>
      <trkpt lat="50.17383" lon="1.65955">
        <ele>5</ele>
        <time>2020-06-18T16:15:08Z</time>
      </trkpt>
      <trkpt lat="50.17384" lon="1.65965">
        <ele>4.9</ele>
        <time>2020-06-18T16:15:09Z</time>
      </trkpt>
      <trkpt lat="50.17386" lon="1.65975">
        <ele>4.8</ele>
        <time>2020-06-18T16:15:10Z</time>
      </trkpt>
      <trkpt lat="50.17387" lon="1.65984">
        <ele>4.6</ele>
        <time>2020-06-18T16:15:11Z</time>
      </trkpt>
      <trkpt lat="50.17388" lon="1.65994">
        <ele>4.5</ele>
        <time>2020-06-18T16:15:12Z</time>
      </trkpt>
      <trkpt lat="50.17388" lon="1.66002">
        <ele>4.4</ele>
        <time>2020-06-18T16:15:13Z</time>
      </trkpt>
      <trkpt lat="50.17389" lon="1.66011">
        <ele>4.3</ele>
        <time>2020-06-18T16:15:14Z</time>
      </trkpt>
      <trkpt lat="50.17389" lon="1.66022">
        <ele>4.3</ele>
        <time>2020-06-18T16:15:15Z</time>
      </trkpt>
      <trkpt lat="50.1739" lon="1.66032">
        <ele>4.2</ele>
        <time>2020-06-18T16:15:16Z</time>
      </trkpt>
      <trkpt lat="50.1739" lon="1.66041">
        <ele>4.2</ele>
        <time>2020-06-18T16:15:17Z</time>
      </trkpt>
      <trkpt lat="50.17391" lon="1.66049">
        <ele>4.2</ele>
        <time>2020-06-18T16:15:18Z</time>
      </trkpt>
      <trkpt lat="50.17391" lon="1.66056">
        <ele>4.2</ele>
        <time>2020-06-18T16:15:19Z</time>
      </trkpt>
      <trkpt lat="50.17391" lon="1.66063">
        <ele>4.2</ele>
        <time>2020-06-18T16:15:20Z</time>
      </trkpt>
      <trkpt lat="50.1739" lon="1.6607">
        <ele>4.3</ele>
        <time>2020-06-18T16:15:21Z</time>
      </trkpt>
      <trkpt lat="50.17389" lon="1.66078">
        <ele>4.3</ele>
        <time>2020-06-18T16:15:22Z</time>
      </trkpt>
      <trkpt lat="50.17387" lon="1.66086">
        <ele>4.3</ele>
        <time>2020-06-18T16:15:23Z</time>
      </trkpt>
      <trkpt lat="50.17386" lon="1.66095">
        <ele>4.3</ele>
        <time>2020-06-18T16:15:24Z</time>
      </trkpt>
      <trkpt lat="50.17385" lon="1.66102">
        <ele>4.4</ele>
        <time>2020-06-18T16:15:25Z</time>
      </trkpt>
      <trkpt lat="50.17384" lon="1.66106">
        <ele>4.3</ele>
        <time>2020-06-18T16:15:26Z</time>
      </trkpt>
      <trkpt lat="50.17384" lon="1.66114">
        <ele>4.3</ele>
        <time>2020-06-18T16:15:27Z</time>
      </trkpt>
      <trkpt lat="50.17383" lon="1.66122">
        <ele>4.3</ele>
        <time>2020-06-18T16:15:28Z</time>
      </trkpt>
      <trkpt lat="50.17382" lon="1.6613">
        <ele>4.3</ele>
        <time>2020-06-18T16:15:29Z</time>
      </trkpt>
      <trkpt lat="50.17382" lon="1.66138">
        <ele>4.3</ele>
        <time>2020-06-18T16:15:30Z</time>
      </trkpt>
      <trkpt lat="50.17382" lon="1.66145">
        <ele>4.3</ele>
        <time>2020-06-18T16:15:31Z</time>
      </trkpt>
      <trkpt lat="50.17381" lon="1.66152">
        <ele>4.3</ele>
        <time>2020-06-18T16:15:32Z</time>
      </trkpt>
      <trkpt lat="50.17381" lon="1.66159">
        <ele>4.3</ele>
        <time>2020-06-18T16:15:33Z</time>
      </trkpt>
      <trkpt lat="50.17381" lon="1.66168">
        <ele>4.3</ele>
        <time>2020-06-18T16:15:34Z</time>
      </trkpt>
      <trkpt lat="50.17381" lon="1.66176">
        <ele>4.3</ele>
        <time>2020-06-18T16:15:35Z</time>
      </trkpt>
      <trkpt lat="50.1738" lon="1.66183">
        <ele>4.3</ele>
        <time>2020-06-18T16:15:36Z</time>
      </trkpt>
      <trkpt lat="50.1738" lon="1.66193">
        <ele>4.2</ele>
        <time>2020-06-18T16:15:37Z</time>
      </trkpt>
      <trkpt lat="50.1738" lon="1.66203">
        <ele>4.2</ele>
        <time>2020-06-18T16:15:38Z</time>
      </trkpt>
      <trkpt lat="50.1738" lon="1.66213">
        <ele>4.2</ele>
        <time>2020-06-18T16:15:39Z</time>
      </trkpt>
      <trkpt lat="50.17379" lon="1.66222">
        <ele>4.2</ele>
        <time>2020-06-18T16:15:40Z</time>
      </trkpt>
      <trkpt lat="50.17379" lon="1.66232">
        <ele>4.2</ele>
        <time>2020-06-18T16:15:41Z</time>
      </trkpt>
      <trkpt lat="50.17379" lon="1.66241">
        <ele>4.2</ele>
        <time>2020-06-18T16:15:42Z</time>
      </trkpt>
      <trkpt lat="50.17378" lon="1.6625">
        <ele>4.2</ele>
        <time>2020-06-18T16:15:43Z</time>
      </trkpt>
      <trkpt lat="50.17377" lon="1.6626">
        <ele>4.1</ele>
        <time>2020-06-18T16:15:44Z</time>
      </trkpt>
      <trkpt lat="50.17377" lon="1.66268">
        <ele>4.1</ele>
        <time>2020-06-18T16:15:45Z</time>
      </trkpt>
      <trkpt lat="50.17376" lon="1.66275">
        <ele>4.1</ele>
        <time>2020-06-18T16:15:46Z</time>
      </trkpt>
      <trkpt lat="50.17375" lon="1.66284">
        <ele>4.1</ele>
        <time>2020-06-18T16:15:47Z</time>
      </trkpt>
      <trkpt lat="50.17375" lon="1.66293">
        <ele>4.1</ele>
        <time>2020-06-18T16:15:48Z</time>
      </trkpt>
      <trkpt lat="50.17374" lon="1.66302">
        <ele>4.1</ele>
        <time>2020-06-18T16:15:49Z</time>
      </trkpt>
      <trkpt lat="50.17374" lon="1.66313">
        <ele>4.1</ele>
        <time>2020-06-18T16:15:50Z</time>
      </trkpt>
      <trkpt lat="50.17373" lon="1.66324">
        <ele>4.1</ele>
        <time>2020-06-18T16:15:51Z</time>
      </trkpt>
      <trkpt lat="50.17373" lon="1.66333">
        <ele>4.2</ele>
        <time>2020-06-18T16:15:52Z</time>
      </trkpt>
      <trkpt lat="50.17373" lon="1.66344">
        <ele>4.2</ele>
        <time>2020-06-18T16:15:53Z</time>
      </trkpt>
      <trkpt lat="50.17374" lon="1.66354">
        <ele>4.3</ele>
        <time>2020-06-18T16:15:54Z</time>
      </trkpt>
      <trkpt lat="50.17374" lon="1.66365">
        <ele>4.3</ele>
        <time>2020-06-18T16:15:55Z</time>
      </trkpt>
      <trkpt lat="50.17374" lon="1.66375">
        <ele>4.4</ele>
        <time>2020-06-18T16:15:56Z</time>
      </trkpt>
      <trkpt lat="50.17374" lon="1.66385">
        <ele>4.4</ele>
        <time>2020-06-18T16:15:57Z</time>
      </trkpt>
      <trkpt lat="50.17373" lon="1.66394">
        <ele>4.4</ele>
        <time>2020-06-18T16:15:58Z</time>
      </trkpt>
      <trkpt lat="50.17372" lon="1.66402">
        <ele>4.4</ele>
        <time>2020-06-18T16:15:59Z</time>
      </trkpt>
      <trkpt lat="50.17372" lon="1.66412">
        <ele>4.4</ele>
        <time>2020-06-18T16:16:00Z</time>
      </trkpt>
      <trkpt lat="50.17371" lon="1.66421">
        <ele>4.3</ele>
        <time>2020-06-18T16:16:01Z</time>
      </trkpt>
      <trkpt lat="50.1737" lon="1.66431">
        <ele>4.3</ele>
        <time>2020-06-18T16:16:02Z</time>
      </trkpt>
      <trkpt lat="50.17369" lon="1.66442">
        <ele>4.2</ele>
        <time>2020-06-18T16:16:03Z</time>
      </trkpt>
      <trkpt lat="50.17368" lon="1.66453">
        <ele>4.2</ele>
        <time>2020-06-18T16:16:04Z</time>
      </trkpt>
      <trkpt lat="50.17368" lon="1.66463">
        <ele>4.2</ele>
        <time>2020-06-18T16:16:05Z</time>
      </trkpt>
      <trkpt lat="50.17367" lon="1.66472">
        <ele>4.2</ele>
        <time>2020-06-18T16:16:06Z</time>
      </trkpt>
      <trkpt lat="50.17367" lon="1.66481">
        <ele>4.1</ele>
        <time>2020-06-18T16:16:07Z</time>
      </trkpt>
      <trkpt lat="50.17366" lon="1.66491">
        <ele>4.1</ele>
        <time>2020-06-18T16:16:08Z</time>
      </trkpt>
      <trkpt lat="50.17365" lon="1.66501">
        <ele>4.1</ele>
        <time>2020-06-18T16:16:09Z</time>
      </trkpt>
      <trkpt lat="50.17365" lon="1.6651">
        <ele>4.1</ele>
        <time>2020-06-18T16:16:10Z</time>
      </trkpt>
      <trkpt lat="50.17364" lon="1.6652">
        <ele>4</ele>
        <time>2020-06-18T16:16:11Z</time>
      </trkpt>
      <trkpt lat="50.17364" lon="1.66529">
        <ele>4</ele>
        <time>2020-06-18T16:16:12Z</time>
      </trkpt>
      <trkpt lat="50.17364" lon="1.66539">
        <ele>4</ele>
        <time>2020-06-18T16:16:13Z</time>
      </trkpt>
      <trkpt lat="50.17364" lon="1.66548">
        <ele>3.9</ele>
        <time>2020-06-18T16:16:14Z</time>
      </trkpt>
      <trkpt lat="50.17364" lon="1.66558">
        <ele>3.9</ele>
        <time>2020-06-18T16:16:15Z</time>
      </trkpt>
      <trkpt lat="50.17364" lon="1.66568">
        <ele>3.9</ele>
        <time>2020-06-18T16:16:16Z</time>
      </trkpt>
      <trkpt lat="50.17364" lon="1.66578">
        <ele>3.9</ele>
        <time>2020-06-18T16:16:17Z</time>
      </trkpt>
      <trkpt lat="50.17363" lon="1.66588">
        <ele>3.9</ele>
        <time>2020-06-18T16:16:18Z</time>
      </trkpt>
      <trkpt lat="50.17363" lon="1.66598">
        <ele>3.9</ele>
        <time>2020-06-18T16:16:19Z</time>
      </trkpt>
      <trkpt lat="50.17363" lon="1.66609">
        <ele>3.9</ele>
        <time>2020-06-18T16:16:20Z</time>
      </trkpt>
      <trkpt lat="50.17362" lon="1.66619">
        <ele>4</ele>
        <time>2020-06-18T16:16:21Z</time>
      </trkpt>
      <trkpt lat="50.17362" lon="1.66628">
        <ele>4</ele>
        <time>2020-06-18T16:16:22Z</time>
      </trkpt>
      <trkpt lat="50.17361" lon="1.66639">
        <ele>4</ele>
        <time>2020-06-18T16:16:23Z</time>
      </trkpt>
      <trkpt lat="50.17361" lon="1.66649">
        <ele>4</ele>
        <time>2020-06-18T16:16:24Z</time>
      </trkpt>
      <trkpt lat="50.1736" lon="1.6666">
        <ele>3.9</ele>
        <time>2020-06-18T16:16:25Z</time>
      </trkpt>
      <trkpt lat="50.1736" lon="1.66671">
        <ele>3.9</ele>
        <time>2020-06-18T16:16:26Z</time>
      </trkpt>
      <trkpt lat="50.17359" lon="1.66683">
        <ele>3.9</ele>
        <time>2020-06-18T16:16:27Z</time>
      </trkpt>
      <trkpt lat="50.17359" lon="1.66694">
        <ele>3.9</ele>
        <time>2020-06-18T16:16:28Z</time>
      </trkpt>
      <trkpt lat="50.17359" lon="1.66705">
        <ele>3.9</ele>
        <time>2020-06-18T16:16:29Z</time>
      </trkpt>
      <trkpt lat="50.17358" lon="1.66716">
        <ele>3.9</ele>
        <time>2020-06-18T16:16:30Z</time>
      </trkpt>
      <trkpt lat="50.17358" lon="1.66727">
        <ele>3.9</ele>
        <time>2020-06-18T16:16:31Z</time>
      </trkpt>
      <trkpt lat="50.17357" lon="1.66738">
        <ele>3.9</ele>
        <time>2020-06-18T16:16:32Z</time>
      </trkpt>
      <trkpt lat="50.17356" lon="1.66749">
        <ele>3.9</ele>
        <time>2020-06-18T16:16:33Z</time>
      </trkpt>
      <trkpt lat="50.17356" lon="1.6676">
        <ele>3.9</ele>
        <time>2020-06-18T16:16:34Z</time>
      </trkpt>
      <trkpt lat="50.17355" lon="1.66772">
        <ele>3.9</ele>
        <time>2020-06-18T16:16:35Z</time>
      </trkpt>
      <trkpt lat="50.17355" lon="1.66783">
        <ele>3.8</ele>
        <time>2020-06-18T16:16:36Z</time>
      </trkpt>
      <trkpt lat="50.17354" lon="1.66794">
        <ele>3.8</ele>
        <time>2020-06-18T16:16:37Z</time>
      </trkpt>
      <trkpt lat="50.17355" lon="1.66806">
        <ele>3.8</ele>
        <time>2020-06-18T16:16:38Z</time>
      </trkpt>
      <trkpt lat="50.17354" lon="1.66817">
        <ele>3.8</ele>
        <time>2020-06-18T16:16:39Z</time>
      </trkpt>
      <trkpt lat="50.17353" lon="1.66828">
        <ele>3.9</ele>
        <time>2020-06-18T16:16:40Z</time>
      </trkpt>
      <trkpt lat="50.17353" lon="1.6684">
        <ele>3.9</ele>
        <time>2020-06-18T16:16:41Z</time>
      </trkpt>
      <trkpt lat="50.17352" lon="1.66851">
        <ele>4</ele>
        <time>2020-06-18T16:16:42Z</time>
      </trkpt>
      <trkpt lat="50.17351" lon="1.66862">
        <ele>4</ele>
        <time>2020-06-18T16:16:43Z</time>
      </trkpt>
      <trkpt lat="50.17351" lon="1.66873">
        <ele>4.1</ele>
        <time>2020-06-18T16:16:44Z</time>
      </trkpt>
      <trkpt lat="50.1735" lon="1.66884">
        <ele>4.1</ele>
        <time>2020-06-18T16:16:45Z</time>
      </trkpt>
      <trkpt lat="50.17349" lon="1.66894">
        <ele>4.2</ele>
        <time>2020-06-18T16:16:46Z</time>
      </trkpt>
      <trkpt lat="50.17348" lon="1.66904">
        <ele>4.2</ele>
        <time>2020-06-18T16:16:47Z</time>
      </trkpt>
      <trkpt lat="50.17348" lon="1.66915">
        <ele>4.2</ele>
        <time>2020-06-18T16:16:48Z</time>
      </trkpt>
      <trkpt lat="50.17347" lon="1.66925">
        <ele>4.2</ele>
        <time>2020-06-18T16:16:49Z</time>
      </trkpt>
      <trkpt lat="50.17347" lon="1.66935">
        <ele>4.2</ele>
        <time>2020-06-18T16:16:50Z</time>
      </trkpt>
      <trkpt lat="50.17346" lon="1.66945">
        <ele>4.3</ele>
        <time>2020-06-18T16:16:51Z</time>
      </trkpt>
      <trkpt lat="50.17346" lon="1.66956">
        <ele>4.3</ele>
        <time>2020-06-18T16:16:52Z</time>
      </trkpt>
      <trkpt lat="50.17346" lon="1.66966">
        <ele>4.3</ele>
        <time>2020-06-18T16:16:53Z</time>
      </trkpt>
      <trkpt lat="50.17346" lon="1.66976">
        <ele>4.3</ele>
        <time>2020-06-18T16:16:54Z</time>
      </trkpt>
      <trkpt lat="50.17346" lon="1.66986">
        <ele>4.3</ele>
        <time>2020-06-18T16:16:55Z</time>
      </trkpt>
      <trkpt lat="50.17346" lon="1.66997">
        <ele>4.3</ele>
        <time>2020-06-18T16:16:56Z</time>
      </trkpt>
      <trkpt lat="50.17346" lon="1.67007">
        <ele>4.3</ele>
        <time>2020-06-18T16:16:57Z</time>
      </trkpt>
      <trkpt lat="50.17347" lon="1.67017">
        <ele>4.3</ele>
        <time>2020-06-18T16:16:58Z</time>
      </trkpt>
      <trkpt lat="50.17348" lon="1.67028">
        <ele>4.2</ele>
        <time>2020-06-18T16:16:59Z</time>
      </trkpt>
      <trkpt lat="50.17348" lon="1.67038">
        <ele>4.2</ele>
        <time>2020-06-18T16:17:00Z</time>
      </trkpt>
      <trkpt lat="50.17349" lon="1.67049">
        <ele>4.2</ele>
        <time>2020-06-18T16:17:01Z</time>
      </trkpt>
      <trkpt lat="50.17349" lon="1.6706">
        <ele>4.1</ele>
        <time>2020-06-18T16:17:02Z</time>
      </trkpt>
      <trkpt lat="50.1735" lon="1.6707">
        <ele>4.1</ele>
        <time>2020-06-18T16:17:03Z</time>
      </trkpt>
      <trkpt lat="50.17351" lon="1.67081">
        <ele>4.1</ele>
        <time>2020-06-18T16:17:04Z</time>
      </trkpt>
      <trkpt lat="50.17351" lon="1.67091">
        <ele>4.2</ele>
        <time>2020-06-18T16:17:05Z</time>
      </trkpt>
      <trkpt lat="50.17352" lon="1.67102">
        <ele>4.2</ele>
        <time>2020-06-18T16:17:06Z</time>
      </trkpt>
      <trkpt lat="50.17352" lon="1.67113">
        <ele>4.1</ele>
        <time>2020-06-18T16:17:07Z</time>
      </trkpt>
      <trkpt lat="50.17354" lon="1.67123">
        <ele>4.1</ele>
        <time>2020-06-18T16:17:08Z</time>
      </trkpt>
      <trkpt lat="50.17355" lon="1.67134">
        <ele>4.1</ele>
        <time>2020-06-18T16:17:09Z</time>
      </trkpt>
      <trkpt lat="50.17355" lon="1.67144">
        <ele>4</ele>
        <time>2020-06-18T16:17:10Z</time>
      </trkpt>
      <trkpt lat="50.17357" lon="1.67154">
        <ele>4</ele>
        <time>2020-06-18T16:17:11Z</time>
      </trkpt>
      <trkpt lat="50.17359" lon="1.67164">
        <ele>4</ele>
        <time>2020-06-18T16:17:12Z</time>
      </trkpt>
      <trkpt lat="50.1736" lon="1.67174">
        <ele>4</ele>
        <time>2020-06-18T16:17:13Z</time>
      </trkpt>
      <trkpt lat="50.17362" lon="1.67184">
        <ele>4</ele>
        <time>2020-06-18T16:17:14Z</time>
      </trkpt>
      <trkpt lat="50.17363" lon="1.67195">
        <ele>4</ele>
        <time>2020-06-18T16:17:15Z</time>
      </trkpt>
      <trkpt lat="50.17364" lon="1.67205">
        <ele>4</ele>
        <time>2020-06-18T16:17:16Z</time>
      </trkpt>
      <trkpt lat="50.17365" lon="1.67215">
        <ele>4</ele>
        <time>2020-06-18T16:17:17Z</time>
      </trkpt>
      <trkpt lat="50.17367" lon="1.67226">
        <ele>4</ele>
        <time>2020-06-18T16:17:18Z</time>
      </trkpt>
      <trkpt lat="50.17368" lon="1.67236">
        <ele>4</ele>
        <time>2020-06-18T16:17:19Z</time>
      </trkpt>
      <trkpt lat="50.17368" lon="1.67247">
        <ele>4</ele>
        <time>2020-06-18T16:17:20Z</time>
      </trkpt>
      <trkpt lat="50.17369" lon="1.67257">
        <ele>4</ele>
        <time>2020-06-18T16:17:21Z</time>
      </trkpt>
      <trkpt lat="50.1737" lon="1.67267">
        <ele>4</ele>
        <time>2020-06-18T16:17:22Z</time>
      </trkpt>
      <trkpt lat="50.17371" lon="1.67277">
        <ele>4</ele>
        <time>2020-06-18T16:17:23Z</time>
      </trkpt>
      <trkpt lat="50.17371" lon="1.67288">
        <ele>4</ele>
        <time>2020-06-18T16:17:24Z</time>
      </trkpt>
      <trkpt lat="50.17372" lon="1.67298">
        <ele>4</ele>
        <time>2020-06-18T16:17:25Z</time>
      </trkpt>
      <trkpt lat="50.17373" lon="1.67309">
        <ele>4</ele>
        <time>2020-06-18T16:17:26Z</time>
      </trkpt>
      <trkpt lat="50.17374" lon="1.67319">
        <ele>4</ele>
        <time>2020-06-18T16:17:27Z</time>
      </trkpt>
      <trkpt lat="50.17375" lon="1.67329">
        <ele>3.9</ele>
        <time>2020-06-18T16:17:28Z</time>
      </trkpt>
      <trkpt lat="50.17377" lon="1.67339">
        <ele>3.9</ele>
        <time>2020-06-18T16:17:29Z</time>
      </trkpt>
      <trkpt lat="50.17378" lon="1.67349">
        <ele>3.9</ele>
        <time>2020-06-18T16:17:30Z</time>
      </trkpt>
      <trkpt lat="50.17378" lon="1.67359">
        <ele>3.9</ele>
        <time>2020-06-18T16:17:31Z</time>
      </trkpt>
      <trkpt lat="50.17379" lon="1.6737">
        <ele>3.9</ele>
        <time>2020-06-18T16:17:32Z</time>
      </trkpt>
      <trkpt lat="50.17381" lon="1.6738">
        <ele>4</ele>
        <time>2020-06-18T16:17:33Z</time>
      </trkpt>
      <trkpt lat="50.17381" lon="1.6739">
        <ele>4</ele>
        <time>2020-06-18T16:17:34Z</time>
      </trkpt>
      <trkpt lat="50.17382" lon="1.67401">
        <ele>4</ele>
        <time>2020-06-18T16:17:35Z</time>
      </trkpt>
      <trkpt lat="50.17383" lon="1.67411">
        <ele>4</ele>
        <time>2020-06-18T16:17:36Z</time>
      </trkpt>
      <trkpt lat="50.17385" lon="1.67421">
        <ele>4</ele>
        <time>2020-06-18T16:17:37Z</time>
      </trkpt>
      <trkpt lat="50.17387" lon="1.6743">
        <ele>4</ele>
        <time>2020-06-18T16:17:38Z</time>
      </trkpt>
      <trkpt lat="50.17388" lon="1.67441">
        <ele>4</ele>
        <time>2020-06-18T16:17:39Z</time>
      </trkpt>
      <trkpt lat="50.17389" lon="1.67451">
        <ele>3.9</ele>
        <time>2020-06-18T16:17:40Z</time>
      </trkpt>
      <trkpt lat="50.1739" lon="1.67461">
        <ele>4</ele>
        <time>2020-06-18T16:17:41Z</time>
      </trkpt>
      <trkpt lat="50.17391" lon="1.67472">
        <ele>4.1</ele>
        <time>2020-06-18T16:17:42Z</time>
      </trkpt>
      <trkpt lat="50.17392" lon="1.67482">
        <ele>4.1</ele>
        <time>2020-06-18T16:17:43Z</time>
      </trkpt>
      <trkpt lat="50.17393" lon="1.67493">
        <ele>4.2</ele>
        <time>2020-06-18T16:17:44Z</time>
      </trkpt>
      <trkpt lat="50.17394" lon="1.67503">
        <ele>4.2</ele>
        <time>2020-06-18T16:17:45Z</time>
      </trkpt>
      <trkpt lat="50.17395" lon="1.67513">
        <ele>4.2</ele>
        <time>2020-06-18T16:17:46Z</time>
      </trkpt>
      <trkpt lat="50.17396" lon="1.67523">
        <ele>4.2</ele>
        <time>2020-06-18T16:17:47Z</time>
      </trkpt>
      <trkpt lat="50.17397" lon="1.67533">
        <ele>4.2</ele>
        <time>2020-06-18T16:17:48Z</time>
      </trkpt>
      <trkpt lat="50.17398" lon="1.67544">
        <ele>4.2</ele>
        <time>2020-06-18T16:17:49Z</time>
      </trkpt>
      <trkpt lat="50.17399" lon="1.67554">
        <ele>4.2</ele>
        <time>2020-06-18T16:17:50Z</time>
      </trkpt>
      <trkpt lat="50.174" lon="1.67564">
        <ele>4.1</ele>
        <time>2020-06-18T16:17:51Z</time>
      </trkpt>
      <trkpt lat="50.17402" lon="1.67575">
        <ele>4.1</ele>
        <time>2020-06-18T16:17:52Z</time>
      </trkpt>
      <trkpt lat="50.17403" lon="1.67585">
        <ele>4.1</ele>
        <time>2020-06-18T16:17:53Z</time>
      </trkpt>
      <trkpt lat="50.17403" lon="1.67596">
        <ele>4.1</ele>
        <time>2020-06-18T16:17:54Z</time>
      </trkpt>
      <trkpt lat="50.17404" lon="1.67607">
        <ele>4.1</ele>
        <time>2020-06-18T16:17:55Z</time>
      </trkpt>
      <trkpt lat="50.17405" lon="1.67617">
        <ele>4.1</ele>
        <time>2020-06-18T16:17:56Z</time>
      </trkpt>
      <trkpt lat="50.17406" lon="1.67627">
        <ele>4.1</ele>
        <time>2020-06-18T16:17:57Z</time>
      </trkpt>
      <trkpt lat="50.17408" lon="1.67637">
        <ele>4.1</ele>
        <time>2020-06-18T16:17:58Z</time>
      </trkpt>
      <trkpt lat="50.17409" lon="1.67647">
        <ele>4.1</ele>
        <time>2020-06-18T16:17:59Z</time>
      </trkpt>
      <trkpt lat="50.17411" lon="1.67658">
        <ele>4.1</ele>
        <time>2020-06-18T16:18:00Z</time>
      </trkpt>
      <trkpt lat="50.17412" lon="1.67668">
        <ele>4.1</ele>
        <time>2020-06-18T16:18:01Z</time>
      </trkpt>
      <trkpt lat="50.17413" lon="1.67678">
        <ele>4.1</ele>
        <time>2020-06-18T16:18:02Z</time>
      </trkpt>
      <trkpt lat="50.17414" lon="1.67688">
        <ele>4.1</ele>
        <time>2020-06-18T16:18:03Z</time>
      </trkpt>
      <trkpt lat="50.17414" lon="1.67699">
        <ele>4.1</ele>
        <time>2020-06-18T16:18:04Z</time>
      </trkpt>
      <trkpt lat="50.17416" lon="1.67709">
        <ele>4.1</ele>
        <time>2020-06-18T16:18:05Z</time>
      </trkpt>
      <trkpt lat="50.17417" lon="1.67719">
        <ele>4.2</ele>
        <time>2020-06-18T16:18:06Z</time>
      </trkpt>
      <trkpt lat="50.17417" lon="1.6773">
        <ele>4.2</ele>
        <time>2020-06-18T16:18:07Z</time>
      </trkpt>
      <trkpt lat="50.17418" lon="1.6774">
        <ele>4.1</ele>
        <time>2020-06-18T16:18:08Z</time>
      </trkpt>
      <trkpt lat="50.1742" lon="1.6775">
        <ele>4.1</ele>
        <time>2020-06-18T16:18:09Z</time>
      </trkpt>
      <trkpt lat="50.17421" lon="1.67761">
        <ele>4.1</ele>
        <time>2020-06-18T16:18:10Z</time>
      </trkpt>
      <trkpt lat="50.17422" lon="1.67771">
        <ele>4</ele>
        <time>2020-06-18T16:18:11Z</time>
      </trkpt>
      <trkpt lat="50.17422" lon="1.67782">
        <ele>4</ele>
        <time>2020-06-18T16:18:12Z</time>
      </trkpt>
      <trkpt lat="50.17423" lon="1.67792">
        <ele>4</ele>
        <time>2020-06-18T16:18:13Z</time>
      </trkpt>
      <trkpt lat="50.17425" lon="1.67803">
        <ele>4</ele>
        <time>2020-06-18T16:18:14Z</time>
      </trkpt>
      <trkpt lat="50.17426" lon="1.67813">
        <ele>4</ele>
        <time>2020-06-18T16:18:15Z</time>
      </trkpt>
      <trkpt lat="50.17427" lon="1.67823">
        <ele>4</ele>
        <time>2020-06-18T16:18:16Z</time>
      </trkpt>
      <trkpt lat="50.17429" lon="1.67834">
        <ele>3.9</ele>
        <time>2020-06-18T16:18:17Z</time>
      </trkpt>
      <trkpt lat="50.17429" lon="1.67844">
        <ele>3.9</ele>
        <time>2020-06-18T16:18:18Z</time>
      </trkpt>
      <trkpt lat="50.17431" lon="1.67855">
        <ele>3.8</ele>
        <time>2020-06-18T16:18:19Z</time>
      </trkpt>
      <trkpt lat="50.17432" lon="1.67865">
        <ele>3.8</ele>
        <time>2020-06-18T16:18:20Z</time>
      </trkpt>
      <trkpt lat="50.17433" lon="1.67876">
        <ele>3.8</ele>
        <time>2020-06-18T16:18:21Z</time>
      </trkpt>
      <trkpt lat="50.17434" lon="1.67887">
        <ele>3.8</ele>
        <time>2020-06-18T16:18:22Z</time>
      </trkpt>
      <trkpt lat="50.17435" lon="1.67898">
        <ele>3.8</ele>
        <time>2020-06-18T16:18:23Z</time>
      </trkpt>
      <trkpt lat="50.17436" lon="1.67909">
        <ele>3.8</ele>
        <time>2020-06-18T16:18:24Z</time>
      </trkpt>
      <trkpt lat="50.17437" lon="1.67919">
        <ele>3.7</ele>
        <time>2020-06-18T16:18:25Z</time>
      </trkpt>
      <trkpt lat="50.17438" lon="1.6793">
        <ele>3.6</ele>
        <time>2020-06-18T16:18:26Z</time>
      </trkpt>
      <trkpt lat="50.17439" lon="1.67941">
        <ele>3.5</ele>
        <time>2020-06-18T16:18:27Z</time>
      </trkpt>
      <trkpt lat="50.1744" lon="1.67952">
        <ele>3.4</ele>
        <time>2020-06-18T16:18:28Z</time>
      </trkpt>
      <trkpt lat="50.17441" lon="1.67963">
        <ele>3.4</ele>
        <time>2020-06-18T16:18:29Z</time>
      </trkpt>
      <trkpt lat="50.17442" lon="1.67974">
        <ele>3.3</ele>
        <time>2020-06-18T16:18:30Z</time>
      </trkpt>
      <trkpt lat="50.17443" lon="1.67985">
        <ele>3.4</ele>
        <time>2020-06-18T16:18:31Z</time>
      </trkpt>
      <trkpt lat="50.17445" lon="1.67995">
        <ele>3.4</ele>
        <time>2020-06-18T16:18:32Z</time>
      </trkpt>
      <trkpt lat="50.17446" lon="1.68006">
        <ele>3.4</ele>
        <time>2020-06-18T16:18:33Z</time>
      </trkpt>
      <trkpt lat="50.17448" lon="1.68017">
        <ele>3.4</ele>
        <time>2020-06-18T16:18:34Z</time>
      </trkpt>
      <trkpt lat="50.17449" lon="1.68027">
        <ele>3.4</ele>
        <time>2020-06-18T16:18:35Z</time>
      </trkpt>
      <trkpt lat="50.17449" lon="1.68038">
        <ele>3.3</ele>
        <time>2020-06-18T16:18:36Z</time>
      </trkpt>
      <trkpt lat="50.17451" lon="1.68049">
        <ele>3.3</ele>
        <time>2020-06-18T16:18:37Z</time>
      </trkpt>
      <trkpt lat="50.17452" lon="1.68059">
        <ele>3.3</ele>
        <time>2020-06-18T16:18:38Z</time>
      </trkpt>
      <trkpt lat="50.17453" lon="1.6807">
        <ele>3.3</ele>
        <time>2020-06-18T16:18:39Z</time>
      </trkpt>
      <trkpt lat="50.17454" lon="1.68081">
        <ele>3.3</ele>
        <time>2020-06-18T16:18:40Z</time>
      </trkpt>
      <trkpt lat="50.17455" lon="1.68092">
        <ele>3.3</ele>
        <time>2020-06-18T16:18:41Z</time>
      </trkpt>
      <trkpt lat="50.17456" lon="1.68102">
        <ele>3.4</ele>
        <time>2020-06-18T16:18:42Z</time>
      </trkpt>
      <trkpt lat="50.17458" lon="1.68113">
        <ele>3.4</ele>
        <time>2020-06-18T16:18:43Z</time>
      </trkpt>
      <trkpt lat="50.17458" lon="1.68124">
        <ele>3.4</ele>
        <time>2020-06-18T16:18:44Z</time>
      </trkpt>
      <trkpt lat="50.17459" lon="1.68134">
        <ele>3.4</ele>
        <time>2020-06-18T16:18:45Z</time>
      </trkpt>
      <trkpt lat="50.1746" lon="1.68144">
        <ele>3.4</ele>
        <time>2020-06-18T16:18:46Z</time>
      </trkpt>
      <trkpt lat="50.17462" lon="1.68154">
        <ele>3.5</ele>
        <time>2020-06-18T16:18:47Z</time>
      </trkpt>
      <trkpt lat="50.17463" lon="1.68165">
        <ele>3.5</ele>
        <time>2020-06-18T16:18:48Z</time>
      </trkpt>
      <trkpt lat="50.17464" lon="1.68175">
        <ele>3.5</ele>
        <time>2020-06-18T16:18:49Z</time>
      </trkpt>
      <trkpt lat="50.17466" lon="1.68186">
        <ele>3.5</ele>
        <time>2020-06-18T16:18:50Z</time>
      </trkpt>
      <trkpt lat="50.17467" lon="1.68196">
        <ele>3.6</ele>
        <time>2020-06-18T16:18:51Z</time>
      </trkpt>
      <trkpt lat="50.17467" lon="1.68206">
        <ele>3.6</ele>
        <time>2020-06-18T16:18:52Z</time>
      </trkpt>
      <trkpt lat="50.17468" lon="1.68217">
        <ele>3.6</ele>
        <time>2020-06-18T16:18:53Z</time>
      </trkpt>
      <trkpt lat="50.17468" lon="1.68227">
        <ele>3.6</ele>
        <time>2020-06-18T16:18:54Z</time>
      </trkpt>
      <trkpt lat="50.17469" lon="1.68237">
        <ele>3.6</ele>
        <time>2020-06-18T16:18:55Z</time>
      </trkpt>
      <trkpt lat="50.1747" lon="1.68248">
        <ele>3.7</ele>
        <time>2020-06-18T16:18:56Z</time>
      </trkpt>
      <trkpt lat="50.17471" lon="1.68258">
        <ele>3.8</ele>
        <time>2020-06-18T16:18:57Z</time>
      </trkpt>
      <trkpt lat="50.17473" lon="1.68268">
        <ele>3.9</ele>
        <time>2020-06-18T16:18:58Z</time>
      </trkpt>
      <trkpt lat="50.17474" lon="1.68279">
        <ele>4</ele>
        <time>2020-06-18T16:18:59Z</time>
      </trkpt>
      <trkpt lat="50.17475" lon="1.68289">
        <ele>3.9</ele>
        <time>2020-06-18T16:19:00Z</time>
      </trkpt>
      <trkpt lat="50.17476" lon="1.683">
        <ele>3.9</ele>
        <time>2020-06-18T16:19:01Z</time>
      </trkpt>
      <trkpt lat="50.17477" lon="1.6831">
        <ele>3.9</ele>
        <time>2020-06-18T16:19:02Z</time>
      </trkpt>
      <trkpt lat="50.17479" lon="1.6832">
        <ele>3.9</ele>
        <time>2020-06-18T16:19:03Z</time>
      </trkpt>
      <trkpt lat="50.17479" lon="1.68331">
        <ele>3.9</ele>
        <time>2020-06-18T16:19:04Z</time>
      </trkpt>
      <trkpt lat="50.17479" lon="1.68341">
        <ele>3.9</ele>
        <time>2020-06-18T16:19:05Z</time>
      </trkpt>
      <trkpt lat="50.1748" lon="1.68351">
        <ele>3.9</ele>
        <time>2020-06-18T16:19:06Z</time>
      </trkpt>
      <trkpt lat="50.17482" lon="1.68361">
        <ele>3.9</ele>
        <time>2020-06-18T16:19:07Z</time>
      </trkpt>
      <trkpt lat="50.17483" lon="1.68372">
        <ele>3.9</ele>
        <time>2020-06-18T16:19:08Z</time>
      </trkpt>
      <trkpt lat="50.17484" lon="1.68382">
        <ele>3.8</ele>
        <time>2020-06-18T16:19:09Z</time>
      </trkpt>
      <trkpt lat="50.17486" lon="1.68392">
        <ele>3.8</ele>
        <time>2020-06-18T16:19:10Z</time>
      </trkpt>
      <trkpt lat="50.17486" lon="1.68403">
        <ele>3.8</ele>
        <time>2020-06-18T16:19:11Z</time>
      </trkpt>
      <trkpt lat="50.17487" lon="1.68413">
        <ele>3.8</ele>
        <time>2020-06-18T16:19:12Z</time>
      </trkpt>
      <trkpt lat="50.17488" lon="1.68423">
        <ele>3.9</ele>
        <time>2020-06-18T16:19:13Z</time>
      </trkpt>
      <trkpt lat="50.1749" lon="1.68433">
        <ele>3.9</ele>
        <time>2020-06-18T16:19:14Z</time>
      </trkpt>
      <trkpt lat="50.17491" lon="1.68444">
        <ele>4</ele>
        <time>2020-06-18T16:19:15Z</time>
      </trkpt>
      <trkpt lat="50.17492" lon="1.68454">
        <ele>4.1</ele>
        <time>2020-06-18T16:19:16Z</time>
      </trkpt>
      <trkpt lat="50.17493" lon="1.68464">
        <ele>4.1</ele>
        <time>2020-06-18T16:19:17Z</time>
      </trkpt>
      <trkpt lat="50.17495" lon="1.68474">
        <ele>4.1</ele>
        <time>2020-06-18T16:19:18Z</time>
      </trkpt>
      <trkpt lat="50.17497" lon="1.68484">
        <ele>4.2</ele>
        <time>2020-06-18T16:19:19Z</time>
      </trkpt>
      <trkpt lat="50.17499" lon="1.68493">
        <ele>4.2</ele>
        <time>2020-06-18T16:19:20Z</time>
      </trkpt>
      <trkpt lat="50.175" lon="1.68503">
        <ele>4.2</ele>
        <time>2020-06-18T16:19:21Z</time>
      </trkpt>
      <trkpt lat="50.17502" lon="1.68513">
        <ele>4.2</ele>
        <time>2020-06-18T16:19:22Z</time>
      </trkpt>
      <trkpt lat="50.17504" lon="1.68523">
        <ele>4.3</ele>
        <time>2020-06-18T16:19:23Z</time>
      </trkpt>
      <trkpt lat="50.17506" lon="1.68533">
        <ele>4.3</ele>
        <time>2020-06-18T16:19:24Z</time>
      </trkpt>
      <trkpt lat="50.17508" lon="1.68543">
        <ele>4.4</ele>
        <time>2020-06-18T16:19:25Z</time>
      </trkpt>
      <trkpt lat="50.1751" lon="1.68552">
        <ele>4.4</ele>
        <time>2020-06-18T16:19:26Z</time>
      </trkpt>
      <trkpt lat="50.17513" lon="1.68562">
        <ele>4.4</ele>
        <time>2020-06-18T16:19:27Z</time>
      </trkpt>
      <trkpt lat="50.17516" lon="1.68571">
        <ele>4.4</ele>
        <time>2020-06-18T16:19:28Z</time>
      </trkpt>
      <trkpt lat="50.17519" lon="1.68581">
        <ele>4.5</ele>
        <time>2020-06-18T16:19:29Z</time>
      </trkpt>
      <trkpt lat="50.17522" lon="1.68589">
        <ele>4.4</ele>
        <time>2020-06-18T16:19:30Z</time>
      </trkpt>
      <trkpt lat="50.17524" lon="1.68598">
        <ele>4.4</ele>
        <time>2020-06-18T16:19:31Z</time>
      </trkpt>
      <trkpt lat="50.17528" lon="1.68606">
        <ele>4.4</ele>
        <time>2020-06-18T16:19:32Z</time>
      </trkpt>
      <trkpt lat="50.17531" lon="1.68615">
        <ele>4.3</ele>
        <time>2020-06-18T16:19:33Z</time>
      </trkpt>
      <trkpt lat="50.17534" lon="1.68624">
        <ele>4.3</ele>
        <time>2020-06-18T16:19:34Z</time>
      </trkpt>
      <trkpt lat="50.17537" lon="1.68633">
        <ele>4.3</ele>
        <time>2020-06-18T16:19:35Z</time>
      </trkpt>
      <trkpt lat="50.1754" lon="1.68641">
        <ele>4.2</ele>
        <time>2020-06-18T16:19:36Z</time>
      </trkpt>
      <trkpt lat="50.17543" lon="1.68649">
        <ele>4.2</ele>
        <time>2020-06-18T16:19:37Z</time>
      </trkpt>
      <trkpt lat="50.17547" lon="1.68657">
        <ele>4.2</ele>
        <time>2020-06-18T16:19:38Z</time>
      </trkpt>
      <trkpt lat="50.17551" lon="1.68665">
        <ele>4.2</ele>
        <time>2020-06-18T16:19:39Z</time>
      </trkpt>
      <trkpt lat="50.17554" lon="1.68673">
        <ele>4.3</ele>
        <time>2020-06-18T16:19:40Z</time>
      </trkpt>
      <trkpt lat="50.17557" lon="1.68682">
        <ele>4.3</ele>
        <time>2020-06-18T16:19:41Z</time>
      </trkpt>
      <trkpt lat="50.17562" lon="1.68689">
        <ele>4.4</ele>
        <time>2020-06-18T16:19:42Z</time>
      </trkpt>
      <trkpt lat="50.17567" lon="1.68696">
        <ele>4.5</ele>
        <time>2020-06-18T16:19:43Z</time>
      </trkpt>
      <trkpt lat="50.17572" lon="1.68704">
        <ele>4.5</ele>
        <time>2020-06-18T16:19:44Z</time>
      </trkpt>
      <trkpt lat="50.17577" lon="1.68711">
        <ele>4.5</ele>
        <time>2020-06-18T16:19:45Z</time>
      </trkpt>
      <trkpt lat="50.17583" lon="1.68718">
        <ele>4.5</ele>
        <time>2020-06-18T16:19:46Z</time>
      </trkpt>
      <trkpt lat="50.17588" lon="1.68725">
        <ele>4.5</ele>
        <time>2020-06-18T16:19:47Z</time>
      </trkpt>
      <trkpt lat="50.17593" lon="1.68733">
        <ele>4.5</ele>
        <time>2020-06-18T16:19:48Z</time>
      </trkpt>
      <trkpt lat="50.17598" lon="1.6874">
        <ele>4.5</ele>
        <time>2020-06-18T16:19:49Z</time>
      </trkpt>
      <trkpt lat="50.17604" lon="1.68747">
        <ele>4.5</ele>
        <time>2020-06-18T16:19:50Z</time>
      </trkpt>
      <trkpt lat="50.17609" lon="1.68754">
        <ele>4.5</ele>
        <time>2020-06-18T16:19:51Z</time>
      </trkpt>
      <trkpt lat="50.17614" lon="1.68761">
        <ele>4.5</ele>
        <time>2020-06-18T16:19:52Z</time>
      </trkpt>
      <trkpt lat="50.17619" lon="1.68768">
        <ele>4.5</ele>
        <time>2020-06-18T16:19:53Z</time>
      </trkpt>
      <trkpt lat="50.17624" lon="1.68775">
        <ele>4.5</ele>
        <time>2020-06-18T16:19:54Z</time>
      </trkpt>
      <trkpt lat="50.17629" lon="1.68782">
        <ele>4.5</ele>
        <time>2020-06-18T16:19:55Z</time>
      </trkpt>
      <trkpt lat="50.17635" lon="1.68789">
        <ele>4.5</ele>
        <time>2020-06-18T16:19:56Z</time>
      </trkpt>
      <trkpt lat="50.17641" lon="1.68796">
        <ele>4.6</ele>
        <time>2020-06-18T16:19:57Z</time>
      </trkpt>
      <trkpt lat="50.17646" lon="1.68802">
        <ele>4.6</ele>
        <time>2020-06-18T16:19:58Z</time>
      </trkpt>
      <trkpt lat="50.17652" lon="1.68809">
        <ele>4.5</ele>
        <time>2020-06-18T16:19:59Z</time>
      </trkpt>
      <trkpt lat="50.17657" lon="1.68815">
        <ele>4.5</ele>
        <time>2020-06-18T16:20:00Z</time>
      </trkpt>
      <trkpt lat="50.17662" lon="1.68822">
        <ele>4.5</ele>
        <time>2020-06-18T16:20:01Z</time>
      </trkpt>
      <trkpt lat="50.17668" lon="1.68828">
        <ele>4.4</ele>
        <time>2020-06-18T16:20:02Z</time>
      </trkpt>
      <trkpt lat="50.17673" lon="1.68835">
        <ele>4.4</ele>
        <time>2020-06-18T16:20:03Z</time>
      </trkpt>
      <trkpt lat="50.17678" lon="1.68841">
        <ele>4.4</ele>
        <time>2020-06-18T16:20:04Z</time>
      </trkpt>
      <trkpt lat="50.17684" lon="1.68848">
        <ele>4.4</ele>
        <time>2020-06-18T16:20:05Z</time>
      </trkpt>
      <trkpt lat="50.17689" lon="1.68855">
        <ele>4.3</ele>
        <time>2020-06-18T16:20:06Z</time>
      </trkpt>
      <trkpt lat="50.17694" lon="1.68861">
        <ele>4.3</ele>
        <time>2020-06-18T16:20:07Z</time>
      </trkpt>
      <trkpt lat="50.177" lon="1.68868">
        <ele>4.3</ele>
        <time>2020-06-18T16:20:08Z</time>
      </trkpt>
      <trkpt lat="50.17705" lon="1.68875">
        <ele>4.3</ele>
        <time>2020-06-18T16:20:09Z</time>
      </trkpt>
      <trkpt lat="50.17711" lon="1.68881">
        <ele>4.3</ele>
        <time>2020-06-18T16:20:10Z</time>
      </trkpt>
      <trkpt lat="50.17717" lon="1.68888">
        <ele>4.2</ele>
        <time>2020-06-18T16:20:11Z</time>
      </trkpt>
      <trkpt lat="50.17722" lon="1.68894">
        <ele>4.2</ele>
        <time>2020-06-18T16:20:12Z</time>
      </trkpt>
      <trkpt lat="50.17728" lon="1.68901">
        <ele>4.2</ele>
        <time>2020-06-18T16:20:13Z</time>
      </trkpt>
      <trkpt lat="50.17734" lon="1.68909">
        <ele>4.1</ele>
        <time>2020-06-18T16:20:14Z</time>
      </trkpt>
      <trkpt lat="50.17739" lon="1.68916">
        <ele>4.1</ele>
        <time>2020-06-18T16:20:15Z</time>
      </trkpt>
      <trkpt lat="50.17745" lon="1.68922">
        <ele>4.1</ele>
        <time>2020-06-18T16:20:16Z</time>
      </trkpt>
      <trkpt lat="50.17751" lon="1.68929">
        <ele>4.1</ele>
        <time>2020-06-18T16:20:17Z</time>
      </trkpt>
      <trkpt lat="50.17757" lon="1.68936">
        <ele>4.1</ele>
        <time>2020-06-18T16:20:18Z</time>
      </trkpt>
      <trkpt lat="50.17762" lon="1.68942">
        <ele>4.1</ele>
        <time>2020-06-18T16:20:19Z</time>
      </trkpt>
      <trkpt lat="50.17768" lon="1.68949">
        <ele>4.1</ele>
        <time>2020-06-18T16:20:20Z</time>
      </trkpt>
      <trkpt lat="50.17773" lon="1.68956">
        <ele>4.1</ele>
        <time>2020-06-18T16:20:21Z</time>
      </trkpt>
      <trkpt lat="50.17778" lon="1.68963">
        <ele>4.1</ele>
        <time>2020-06-18T16:20:22Z</time>
      </trkpt>
      <trkpt lat="50.17783" lon="1.6897">
        <ele>4.1</ele>
        <time>2020-06-18T16:20:23Z</time>
      </trkpt>
      <trkpt lat="50.17788" lon="1.68977">
        <ele>4.1</ele>
        <time>2020-06-18T16:20:24Z</time>
      </trkpt>
      <trkpt lat="50.17794" lon="1.68984">
        <ele>4.1</ele>
        <time>2020-06-18T16:20:25Z</time>
      </trkpt>
      <trkpt lat="50.17799" lon="1.68991">
        <ele>4.1</ele>
        <time>2020-06-18T16:20:26Z</time>
      </trkpt>
      <trkpt lat="50.17805" lon="1.68997">
        <ele>4.1</ele>
        <time>2020-06-18T16:20:27Z</time>
      </trkpt>
      <trkpt lat="50.1781" lon="1.69003">
        <ele>4.1</ele>
        <time>2020-06-18T16:20:28Z</time>
      </trkpt>
      <trkpt lat="50.17816" lon="1.6901">
        <ele>4.1</ele>
        <time>2020-06-18T16:20:29Z</time>
      </trkpt>
      <trkpt lat="50.17822" lon="1.69017">
        <ele>4.1</ele>
        <time>2020-06-18T16:20:30Z</time>
      </trkpt>
      <trkpt lat="50.17827" lon="1.69024">
        <ele>4.1</ele>
        <time>2020-06-18T16:20:31Z</time>
      </trkpt>
      <trkpt lat="50.17832" lon="1.69031">
        <ele>4.1</ele>
        <time>2020-06-18T16:20:32Z</time>
      </trkpt>
      <trkpt lat="50.17838" lon="1.69038">
        <ele>4</ele>
        <time>2020-06-18T16:20:33Z</time>
      </trkpt>
      <trkpt lat="50.17844" lon="1.69045">
        <ele>4</ele>
        <time>2020-06-18T16:20:34Z</time>
      </trkpt>
      <trkpt lat="50.1785" lon="1.69052">
        <ele>4</ele>
        <time>2020-06-18T16:20:35Z</time>
      </trkpt>
      <trkpt lat="50.17855" lon="1.69059">
        <ele>4</ele>
        <time>2020-06-18T16:20:36Z</time>
      </trkpt>
      <trkpt lat="50.17861" lon="1.69066">
        <ele>4</ele>
        <time>2020-06-18T16:20:37Z</time>
      </trkpt>
      <trkpt lat="50.17866" lon="1.69073">
        <ele>4</ele>
        <time>2020-06-18T16:20:38Z</time>
      </trkpt>
      <trkpt lat="50.17872" lon="1.6908">
        <ele>4</ele>
        <time>2020-06-18T16:20:39Z</time>
      </trkpt>
      <trkpt lat="50.17877" lon="1.69087">
        <ele>4</ele>
        <time>2020-06-18T16:20:40Z</time>
      </trkpt>
      <trkpt lat="50.17883" lon="1.69094">
        <ele>4.1</ele>
        <time>2020-06-18T16:20:41Z</time>
      </trkpt>
      <trkpt lat="50.17888" lon="1.69102">
        <ele>4.1</ele>
        <time>2020-06-18T16:20:42Z</time>
      </trkpt>
      <trkpt lat="50.17894" lon="1.69108">
        <ele>4.1</ele>
        <time>2020-06-18T16:20:43Z</time>
      </trkpt>
      <trkpt lat="50.179" lon="1.69114">
        <ele>4.1</ele>
        <time>2020-06-18T16:20:44Z</time>
      </trkpt>
      <trkpt lat="50.17906" lon="1.69121">
        <ele>4.2</ele>
        <time>2020-06-18T16:20:45Z</time>
      </trkpt>
      <trkpt lat="50.17912" lon="1.69127">
        <ele>4.2</ele>
        <time>2020-06-18T16:20:46Z</time>
      </trkpt>
      <trkpt lat="50.17917" lon="1.69133">
        <ele>4.2</ele>
        <time>2020-06-18T16:20:47Z</time>
      </trkpt>
      <trkpt lat="50.17923" lon="1.6914">
        <ele>4.3</ele>
        <time>2020-06-18T16:20:48Z</time>
      </trkpt>
      <trkpt lat="50.17928" lon="1.69147">
        <ele>4.3</ele>
        <time>2020-06-18T16:20:49Z</time>
      </trkpt>
      <trkpt lat="50.17934" lon="1.69153">
        <ele>4.3</ele>
        <time>2020-06-18T16:20:50Z</time>
      </trkpt>
      <trkpt lat="50.17939" lon="1.6916">
        <ele>4.3</ele>
        <time>2020-06-18T16:20:51Z</time>
      </trkpt>
      <trkpt lat="50.17944" lon="1.69167">
        <ele>4.3</ele>
        <time>2020-06-18T16:20:52Z</time>
      </trkpt>
      <trkpt lat="50.1795" lon="1.69174">
        <ele>4.3</ele>
        <time>2020-06-18T16:20:53Z</time>
      </trkpt>
      <trkpt lat="50.17955" lon="1.69181">
        <ele>4.3</ele>
        <time>2020-06-18T16:20:54Z</time>
      </trkpt>
      <trkpt lat="50.1796" lon="1.69187">
        <ele>4.2</ele>
        <time>2020-06-18T16:20:55Z</time>
      </trkpt>
      <trkpt lat="50.17965" lon="1.69195">
        <ele>4.2</ele>
        <time>2020-06-18T16:20:56Z</time>
      </trkpt>
      <trkpt lat="50.17971" lon="1.69201">
        <ele>4.2</ele>
        <time>2020-06-18T16:20:57Z</time>
      </trkpt>
      <trkpt lat="50.17976" lon="1.69208">
        <ele>4.2</ele>
        <time>2020-06-18T16:20:58Z</time>
      </trkpt>
      <trkpt lat="50.17982" lon="1.69215">
        <ele>4.2</ele>
        <time>2020-06-18T16:20:59Z</time>
      </trkpt>
      <trkpt lat="50.17988" lon="1.69221">
        <ele>4.2</ele>
        <time>2020-06-18T16:21:00Z</time>
      </trkpt>
      <trkpt lat="50.17994" lon="1.69227">
        <ele>4.2</ele>
        <time>2020-06-18T16:21:01Z</time>
      </trkpt>
      <trkpt lat="50.17999" lon="1.69234">
        <ele>4.2</ele>
        <time>2020-06-18T16:21:02Z</time>
      </trkpt>
      <trkpt lat="50.18004" lon="1.69242">
        <ele>4.2</ele>
        <time>2020-06-18T16:21:03Z</time>
      </trkpt>
      <trkpt lat="50.18009" lon="1.69249">
        <ele>4.2</ele>
        <time>2020-06-18T16:21:04Z</time>
      </trkpt>
      <trkpt lat="50.18014" lon="1.69255">
        <ele>4.2</ele>
        <time>2020-06-18T16:21:05Z</time>
      </trkpt>
      <trkpt lat="50.1802" lon="1.69262">
        <ele>4.2</ele>
        <time>2020-06-18T16:21:06Z</time>
      </trkpt>
      <trkpt lat="50.18025" lon="1.69269">
        <ele>4.2</ele>
        <time>2020-06-18T16:21:07Z</time>
      </trkpt>
      <trkpt lat="50.18029" lon="1.69276">
        <ele>4.2</ele>
        <time>2020-06-18T16:21:08Z</time>
      </trkpt>
      <trkpt lat="50.18034" lon="1.69283">
        <ele>4.1</ele>
        <time>2020-06-18T16:21:09Z</time>
      </trkpt>
      <trkpt lat="50.18039" lon="1.69291">
        <ele>4.1</ele>
        <time>2020-06-18T16:21:10Z</time>
      </trkpt>
      <trkpt lat="50.18044" lon="1.69298">
        <ele>4.1</ele>
        <time>2020-06-18T16:21:11Z</time>
      </trkpt>
      <trkpt lat="50.18049" lon="1.69306">
        <ele>4.2</ele>
        <time>2020-06-18T16:21:12Z</time>
      </trkpt>
      <trkpt lat="50.18054" lon="1.69314">
        <ele>4.2</ele>
        <time>2020-06-18T16:21:13Z</time>
      </trkpt>
      <trkpt lat="50.18059" lon="1.69322">
        <ele>4.3</ele>
        <time>2020-06-18T16:21:14Z</time>
      </trkpt>
      <trkpt lat="50.18064" lon="1.69329">
        <ele>4.3</ele>
        <time>2020-06-18T16:21:15Z</time>
      </trkpt>
      <trkpt lat="50.18069" lon="1.69337">
        <ele>4.3</ele>
        <time>2020-06-18T16:21:16Z</time>
      </trkpt>
      <trkpt lat="50.18073" lon="1.69345">
        <ele>4.2</ele>
        <time>2020-06-18T16:21:17Z</time>
      </trkpt>
      <trkpt lat="50.18078" lon="1.69353">
        <ele>4.2</ele>
        <time>2020-06-18T16:21:18Z</time>
      </trkpt>
      <trkpt lat="50.18082" lon="1.69361">
        <ele>4.3</ele>
        <time>2020-06-18T16:21:19Z</time>
      </trkpt>
      <trkpt lat="50.18086" lon="1.69369">
        <ele>4.3</ele>
        <time>2020-06-18T16:21:20Z</time>
      </trkpt>
      <trkpt lat="50.18089" lon="1.69377">
        <ele>4.3</ele>
        <time>2020-06-18T16:21:21Z</time>
      </trkpt>
      <trkpt lat="50.18093" lon="1.69385">
        <ele>4.3</ele>
        <time>2020-06-18T16:21:22Z</time>
      </trkpt>
      <trkpt lat="50.18097" lon="1.69392">
        <ele>4.3</ele>
        <time>2020-06-18T16:21:23Z</time>
      </trkpt>
      <trkpt lat="50.18101" lon="1.694">
        <ele>4.3</ele>
        <time>2020-06-18T16:21:24Z</time>
      </trkpt>
      <trkpt lat="50.18105" lon="1.69407">
        <ele>4.4</ele>
        <time>2020-06-18T16:21:25Z</time>
      </trkpt>
      <trkpt lat="50.18109" lon="1.69415">
        <ele>4.4</ele>
        <time>2020-06-18T16:21:26Z</time>
      </trkpt>
      <trkpt lat="50.18114" lon="1.69423">
        <ele>4.5</ele>
        <time>2020-06-18T16:21:27Z</time>
      </trkpt>
      <trkpt lat="50.18117" lon="1.69431">
        <ele>4.5</ele>
        <time>2020-06-18T16:21:28Z</time>
      </trkpt>
      <trkpt lat="50.1812" lon="1.69439">
        <ele>4.6</ele>
        <time>2020-06-18T16:21:29Z</time>
      </trkpt>
      <trkpt lat="50.18123" lon="1.69447">
        <ele>4.6</ele>
        <time>2020-06-18T16:21:30Z</time>
      </trkpt>
      <trkpt lat="50.18125" lon="1.69456">
        <ele>4.7</ele>
        <time>2020-06-18T16:21:31Z</time>
      </trkpt>
      <trkpt lat="50.18128" lon="1.69465">
        <ele>4.7</ele>
        <time>2020-06-18T16:21:32Z</time>
      </trkpt>
      <trkpt lat="50.18129" lon="1.69474">
        <ele>4.8</ele>
        <time>2020-06-18T16:21:33Z</time>
      </trkpt>
      <trkpt lat="50.18131" lon="1.69482">
        <ele>4.8</ele>
        <time>2020-06-18T16:21:34Z</time>
      </trkpt>
      <trkpt lat="50.18131" lon="1.69491">
        <ele>4.9</ele>
        <time>2020-06-18T16:21:35Z</time>
      </trkpt>
      <trkpt lat="50.18133" lon="1.69499">
        <ele>4.9</ele>
        <time>2020-06-18T16:21:36Z</time>
      </trkpt>
      <trkpt lat="50.18133" lon="1.69507">
        <ele>4.9</ele>
        <time>2020-06-18T16:21:37Z</time>
      </trkpt>
      <trkpt lat="50.18133" lon="1.69515">
        <ele>4.9</ele>
        <time>2020-06-18T16:21:38Z</time>
      </trkpt>
      <trkpt lat="50.18133" lon="1.69523">
        <ele>4.9</ele>
        <time>2020-06-18T16:21:39Z</time>
      </trkpt>
      <trkpt lat="50.18134" lon="1.6953">
        <ele>4.9</ele>
        <time>2020-06-18T16:21:40Z</time>
      </trkpt>
      <trkpt lat="50.18134" lon="1.69536">
        <ele>5.1</ele>
        <time>2020-06-18T16:21:41Z</time>
      </trkpt>
      <trkpt lat="50.18134" lon="1.69543">
        <ele>5.1</ele>
        <time>2020-06-18T16:21:42Z</time>
      </trkpt>
      <trkpt lat="50.18135" lon="1.69548">
        <ele>5.2</ele>
        <time>2020-06-18T16:21:43Z</time>
      </trkpt>
      <trkpt lat="50.18136" lon="1.69554">
        <ele>5.3</ele>
        <time>2020-06-18T16:21:44Z</time>
      </trkpt>
      <trkpt lat="50.18139" lon="1.69557">
        <ele>5.3</ele>
        <time>2020-06-18T16:21:45Z</time>
      </trkpt>
      <trkpt lat="50.18142" lon="1.69561">
        <ele>5.4</ele>
        <time>2020-06-18T16:21:46Z</time>
      </trkpt>
      <trkpt lat="50.18145" lon="1.69564">
        <ele>5.5</ele>
        <time>2020-06-18T16:21:47Z</time>
      </trkpt>
      <trkpt lat="50.18147" lon="1.69569">
        <ele>5.5</ele>
        <time>2020-06-18T16:21:48Z</time>
      </trkpt>
      <trkpt lat="50.18149" lon="1.69573">
        <ele>5.6</ele>
        <time>2020-06-18T16:21:49Z</time>
      </trkpt>
      <trkpt lat="50.18152" lon="1.69577">
        <ele>5.7</ele>
        <time>2020-06-18T16:21:50Z</time>
      </trkpt>
      <trkpt lat="50.18154" lon="1.69581">
        <ele>5.8</ele>
        <time>2020-06-18T16:21:51Z</time>
      </trkpt>
      <trkpt lat="50.18157" lon="1.69586">
        <ele>5.9</ele>
        <time>2020-06-18T16:21:52Z</time>
      </trkpt>
      <trkpt lat="50.18159" lon="1.6959">
        <ele>5.9</ele>
        <time>2020-06-18T16:21:53Z</time>
      </trkpt>
      <trkpt lat="50.18162" lon="1.69595">
        <ele>5.9</ele>
        <time>2020-06-18T16:21:54Z</time>
      </trkpt>
      <trkpt lat="50.18165" lon="1.69599">
        <ele>5.8</ele>
        <time>2020-06-18T16:21:55Z</time>
      </trkpt>
      <trkpt lat="50.18168" lon="1.69599">
        <ele>5.8</ele>
        <time>2020-06-18T16:21:56Z</time>
      </trkpt>
      <trkpt lat="50.18172" lon="1.69599">
        <ele>5.7</ele>
        <time>2020-06-18T16:21:57Z</time>
      </trkpt>
      <trkpt lat="50.18176" lon="1.69595">
        <ele>5.7</ele>
        <time>2020-06-18T16:21:58Z</time>
      </trkpt>
      <trkpt lat="50.1818" lon="1.69593">
        <ele>5.6</ele>
        <time>2020-06-18T16:21:59Z</time>
      </trkpt>
      <trkpt lat="50.18185" lon="1.69591">
        <ele>5.6</ele>
        <time>2020-06-18T16:22:00Z</time>
      </trkpt>
      <trkpt lat="50.1819" lon="1.69589">
        <ele>5.5</ele>
        <time>2020-06-18T16:22:01Z</time>
      </trkpt>
      <trkpt lat="50.18195" lon="1.69588">
        <ele>5.5</ele>
        <time>2020-06-18T16:22:02Z</time>
      </trkpt>
      <trkpt lat="50.182" lon="1.69587">
        <ele>5.4</ele>
        <time>2020-06-18T16:22:03Z</time>
      </trkpt>
      <trkpt lat="50.18205" lon="1.69585">
        <ele>5.4</ele>
        <time>2020-06-18T16:22:04Z</time>
      </trkpt>
      <trkpt lat="50.1821" lon="1.69584">
        <ele>5.4</ele>
        <time>2020-06-18T16:22:05Z</time>
      </trkpt>
      <trkpt lat="50.18215" lon="1.69584">
        <ele>5.4</ele>
        <time>2020-06-18T16:22:06Z</time>
      </trkpt>
      <trkpt lat="50.1822" lon="1.69585">
        <ele>5.3</ele>
        <time>2020-06-18T16:22:07Z</time>
      </trkpt>
      <trkpt lat="50.18225" lon="1.69585">
        <ele>5.2</ele>
        <time>2020-06-18T16:22:08Z</time>
      </trkpt>
      <trkpt lat="50.1823" lon="1.69586">
        <ele>5.1</ele>
        <time>2020-06-18T16:22:09Z</time>
      </trkpt>
      <trkpt lat="50.18235" lon="1.69589">
        <ele>5</ele>
        <time>2020-06-18T16:22:10Z</time>
      </trkpt>
      <trkpt lat="50.1824" lon="1.69593">
        <ele>4.9</ele>
        <time>2020-06-18T16:22:11Z</time>
      </trkpt>
      <trkpt lat="50.18245" lon="1.69596">
        <ele>4.8</ele>
        <time>2020-06-18T16:22:12Z</time>
      </trkpt>
      <trkpt lat="50.1825" lon="1.696">
        <ele>4.7</ele>
        <time>2020-06-18T16:22:13Z</time>
      </trkpt>
      <trkpt lat="50.18255" lon="1.69603">
        <ele>4.7</ele>
        <time>2020-06-18T16:22:14Z</time>
      </trkpt>
      <trkpt lat="50.1826" lon="1.69607">
        <ele>4.6</ele>
        <time>2020-06-18T16:22:15Z</time>
      </trkpt>
      <trkpt lat="50.18265" lon="1.69611">
        <ele>4.6</ele>
        <time>2020-06-18T16:22:16Z</time>
      </trkpt>
      <trkpt lat="50.1827" lon="1.69614">
        <ele>4.5</ele>
        <time>2020-06-18T16:22:17Z</time>
      </trkpt>
      <trkpt lat="50.18276" lon="1.69618">
        <ele>4.5</ele>
        <time>2020-06-18T16:22:18Z</time>
      </trkpt>
      <trkpt lat="50.18281" lon="1.69621">
        <ele>4.4</ele>
        <time>2020-06-18T16:22:19Z</time>
      </trkpt>
      <trkpt lat="50.18287" lon="1.69625">
        <ele>4.3</ele>
        <time>2020-06-18T16:22:20Z</time>
      </trkpt>
      <trkpt lat="50.18293" lon="1.6963">
        <ele>4.3</ele>
        <time>2020-06-18T16:22:21Z</time>
      </trkpt>
      <trkpt lat="50.18299" lon="1.69634">
        <ele>4.2</ele>
        <time>2020-06-18T16:22:22Z</time>
      </trkpt>
      <trkpt lat="50.18304" lon="1.69639">
        <ele>4.2</ele>
        <time>2020-06-18T16:22:23Z</time>
      </trkpt>
      <trkpt lat="50.1831" lon="1.69643">
        <ele>4.2</ele>
        <time>2020-06-18T16:22:24Z</time>
      </trkpt>
      <trkpt lat="50.18315" lon="1.69648">
        <ele>4.1</ele>
        <time>2020-06-18T16:22:25Z</time>
      </trkpt>
      <trkpt lat="50.1832" lon="1.69654">
        <ele>4.1</ele>
        <time>2020-06-18T16:22:26Z</time>
      </trkpt>
      <trkpt lat="50.18325" lon="1.69659">
        <ele>4</ele>
        <time>2020-06-18T16:22:27Z</time>
      </trkpt>
      <trkpt lat="50.18331" lon="1.69664">
        <ele>4</ele>
        <time>2020-06-18T16:22:28Z</time>
      </trkpt>
      <trkpt lat="50.18336" lon="1.69668">
        <ele>4</ele>
        <time>2020-06-18T16:22:29Z</time>
      </trkpt>
      <trkpt lat="50.18341" lon="1.69672">
        <ele>3.9</ele>
        <time>2020-06-18T16:22:30Z</time>
      </trkpt>
      <trkpt lat="50.18346" lon="1.69676">
        <ele>3.9</ele>
        <time>2020-06-18T16:22:31Z</time>
      </trkpt>
      <trkpt lat="50.1835" lon="1.69681">
        <ele>3.9</ele>
        <time>2020-06-18T16:22:32Z</time>
      </trkpt>
      <trkpt lat="50.18355" lon="1.69686">
        <ele>3.9</ele>
        <time>2020-06-18T16:22:33Z</time>
      </trkpt>
      <trkpt lat="50.1836" lon="1.6969">
        <ele>3.9</ele>
        <time>2020-06-18T16:22:34Z</time>
      </trkpt>
      <trkpt lat="50.18365" lon="1.69694">
        <ele>3.9</ele>
        <time>2020-06-18T16:22:35Z</time>
      </trkpt>
      <trkpt lat="50.1837" lon="1.697">
        <ele>3.9</ele>
        <time>2020-06-18T16:22:36Z</time>
      </trkpt>
      <trkpt lat="50.18375" lon="1.69704">
        <ele>3.9</ele>
        <time>2020-06-18T16:22:37Z</time>
      </trkpt>
      <trkpt lat="50.1838" lon="1.69709">
        <ele>3.9</ele>
        <time>2020-06-18T16:22:38Z</time>
      </trkpt>
      <trkpt lat="50.18385" lon="1.69715">
        <ele>3.9</ele>
        <time>2020-06-18T16:22:39Z</time>
      </trkpt>
      <trkpt lat="50.18391" lon="1.6972">
        <ele>3.9</ele>
        <time>2020-06-18T16:22:40Z</time>
      </trkpt>
      <trkpt lat="50.18396" lon="1.69725">
        <ele>3.9</ele>
        <time>2020-06-18T16:22:41Z</time>
      </trkpt>
      <trkpt lat="50.18402" lon="1.69731">
        <ele>3.9</ele>
        <time>2020-06-18T16:22:42Z</time>
      </trkpt>
      <trkpt lat="50.18407" lon="1.69737">
        <ele>3.9</ele>
        <time>2020-06-18T16:22:43Z</time>
      </trkpt>
      <trkpt lat="50.18412" lon="1.69744">
        <ele>3.9</ele>
        <time>2020-06-18T16:22:44Z</time>
      </trkpt>
      <trkpt lat="50.18417" lon="1.6975">
        <ele>3.9</ele>
        <time>2020-06-18T16:22:45Z</time>
      </trkpt>
      <trkpt lat="50.18422" lon="1.69756">
        <ele>3.9</ele>
        <time>2020-06-18T16:22:46Z</time>
      </trkpt>
      <trkpt lat="50.18427" lon="1.69763">
        <ele>3.9</ele>
        <time>2020-06-18T16:22:47Z</time>
      </trkpt>
      <trkpt lat="50.18432" lon="1.69768">
        <ele>4</ele>
        <time>2020-06-18T16:22:48Z</time>
      </trkpt>
      <trkpt lat="50.18437" lon="1.69775">
        <ele>4.1</ele>
        <time>2020-06-18T16:22:49Z</time>
      </trkpt>
      <trkpt lat="50.18442" lon="1.69781">
        <ele>4.1</ele>
        <time>2020-06-18T16:22:50Z</time>
      </trkpt>
      <trkpt lat="50.18447" lon="1.69787">
        <ele>4.1</ele>
        <time>2020-06-18T16:22:51Z</time>
      </trkpt>
      <trkpt lat="50.18453" lon="1.69794">
        <ele>4.1</ele>
        <time>2020-06-18T16:22:52Z</time>
      </trkpt>
      <trkpt lat="50.18458" lon="1.698">
        <ele>4.1</ele>
        <time>2020-06-18T16:22:53Z</time>
      </trkpt>
      <trkpt lat="50.18464" lon="1.69806">
        <ele>4.2</ele>
        <time>2020-06-18T16:22:54Z</time>
      </trkpt>
      <trkpt lat="50.1847" lon="1.69812">
        <ele>4.2</ele>
        <time>2020-06-18T16:22:55Z</time>
      </trkpt>
      <trkpt lat="50.18475" lon="1.69818">
        <ele>4.3</ele>
        <time>2020-06-18T16:22:56Z</time>
      </trkpt>
      <trkpt lat="50.18481" lon="1.69824">
        <ele>4.3</ele>
        <time>2020-06-18T16:22:57Z</time>
      </trkpt>
      <trkpt lat="50.18486" lon="1.69829">
        <ele>4.4</ele>
        <time>2020-06-18T16:22:58Z</time>
      </trkpt>
      <trkpt lat="50.18491" lon="1.69835">
        <ele>4.3</ele>
        <time>2020-06-18T16:22:59Z</time>
      </trkpt>
      <trkpt lat="50.18497" lon="1.69842">
        <ele>4.3</ele>
        <time>2020-06-18T16:23:00Z</time>
      </trkpt>
      <trkpt lat="50.18502" lon="1.69848">
        <ele>4.3</ele>
        <time>2020-06-18T16:23:01Z</time>
      </trkpt>
      <trkpt lat="50.18507" lon="1.69855">
        <ele>4.2</ele>
        <time>2020-06-18T16:23:02Z</time>
      </trkpt>
      <trkpt lat="50.18513" lon="1.69862">
        <ele>4.2</ele>
        <time>2020-06-18T16:23:03Z</time>
      </trkpt>
      <trkpt lat="50.18518" lon="1.69868">
        <ele>4.2</ele>
        <time>2020-06-18T16:23:04Z</time>
      </trkpt>
      <trkpt lat="50.18524" lon="1.69874">
        <ele>4.2</ele>
        <time>2020-06-18T16:23:05Z</time>
      </trkpt>
      <trkpt lat="50.18529" lon="1.69881">
        <ele>4.2</ele>
        <time>2020-06-18T16:23:06Z</time>
      </trkpt>
      <trkpt lat="50.18533" lon="1.69887">
        <ele>4.2</ele>
        <time>2020-06-18T16:23:07Z</time>
      </trkpt>
      <trkpt lat="50.18538" lon="1.69892">
        <ele>4.3</ele>
        <time>2020-06-18T16:23:08Z</time>
      </trkpt>
      <trkpt lat="50.18543" lon="1.69898">
        <ele>4.3</ele>
        <time>2020-06-18T16:23:09Z</time>
      </trkpt>
      <trkpt lat="50.18547" lon="1.69904">
        <ele>4.4</ele>
        <time>2020-06-18T16:23:10Z</time>
      </trkpt>
      <trkpt lat="50.18551" lon="1.69909">
        <ele>4.4</ele>
        <time>2020-06-18T16:23:11Z</time>
      </trkpt>
      <trkpt lat="50.18555" lon="1.69914">
        <ele>4.5</ele>
        <time>2020-06-18T16:23:12Z</time>
      </trkpt>
      <trkpt lat="50.1856" lon="1.69919">
        <ele>4.6</ele>
        <time>2020-06-18T16:23:13Z</time>
      </trkpt>
      <trkpt lat="50.18563" lon="1.69923">
        <ele>4.7</ele>
        <time>2020-06-18T16:23:14Z</time>
      </trkpt>
      <trkpt lat="50.18567" lon="1.69928">
        <ele>4.8</ele>
        <time>2020-06-18T16:23:15Z</time>
      </trkpt>
      <trkpt lat="50.18571" lon="1.69932">
        <ele>4.9</ele>
        <time>2020-06-18T16:23:16Z</time>
      </trkpt>
      <trkpt lat="50.18574" lon="1.69937">
        <ele>5</ele>
        <time>2020-06-18T16:23:17Z</time>
      </trkpt>
      <trkpt lat="50.18577" lon="1.6994">
        <ele>5.1</ele>
        <time>2020-06-18T16:23:18Z</time>
      </trkpt>
      <trkpt lat="50.18581" lon="1.69944">
        <ele>5.1</ele>
        <time>2020-06-18T16:23:19Z</time>
      </trkpt>
      <trkpt lat="50.18584" lon="1.69946">
        <ele>5.2</ele>
        <time>2020-06-18T16:23:20Z</time>
      </trkpt>
      <trkpt lat="50.18587" lon="1.69947">
        <ele>5.2</ele>
        <time>2020-06-18T16:23:21Z</time>
      </trkpt>
      <trkpt lat="50.1859" lon="1.69947">
        <ele>5.2</ele>
        <time>2020-06-18T16:23:22Z</time>
      </trkpt>
      <trkpt lat="50.18592" lon="1.69942">
        <ele>5.2</ele>
        <time>2020-06-18T16:23:23Z</time>
      </trkpt>
      <trkpt lat="50.18595" lon="1.69939">
        <ele>5.3</ele>
        <time>2020-06-18T16:23:24Z</time>
      </trkpt>
      <trkpt lat="50.18598" lon="1.69936">
        <ele>5.3</ele>
        <time>2020-06-18T16:23:25Z</time>
      </trkpt>
      <trkpt lat="50.18601" lon="1.69933">
        <ele>5.4</ele>
        <time>2020-06-18T16:23:26Z</time>
      </trkpt>
      <trkpt lat="50.18603" lon="1.6993">
        <ele>5.3</ele>
        <time>2020-06-18T16:23:27Z</time>
      </trkpt>
      <trkpt lat="50.18606" lon="1.69928">
        <ele>5.3</ele>
        <time>2020-06-18T16:23:28Z</time>
      </trkpt>
      <trkpt lat="50.18607" lon="1.69928">
        <ele>5.3</ele>
        <time>2020-06-18T16:23:29Z</time>
      </trkpt>
      <trkpt lat="50.18609" lon="1.69924">
        <ele>5.2</ele>
        <time>2020-06-18T16:23:30Z</time>
      </trkpt>
      <trkpt lat="50.1861" lon="1.69923">
        <ele>5.2</ele>
        <time>2020-06-18T16:23:31Z</time>
      </trkpt>
      <trkpt lat="50.18611" lon="1.69919">
        <ele>5.2</ele>
        <time>2020-06-18T16:23:32Z</time>
      </trkpt>
      <trkpt lat="50.18613" lon="1.69915">
        <ele>5.1</ele>
        <time>2020-06-18T16:23:33Z</time>
      </trkpt>
      <trkpt lat="50.18615" lon="1.69911">
        <ele>5.1</ele>
        <time>2020-06-18T16:23:34Z</time>
      </trkpt>
      <trkpt lat="50.18617" lon="1.69906">
        <ele>5</ele>
        <time>2020-06-18T16:23:35Z</time>
      </trkpt>
      <trkpt lat="50.1862" lon="1.69906">
        <ele>5</ele>
        <time>2020-06-18T16:23:36Z</time>
      </trkpt>
      <trkpt lat="50.18624" lon="1.69909">
        <ele>5</ele>
        <time>2020-06-18T16:23:37Z</time>
      </trkpt>
      <trkpt lat="50.18628" lon="1.69912">
        <ele>4.9</ele>
        <time>2020-06-18T16:23:38Z</time>
      </trkpt>
      <trkpt lat="50.18632" lon="1.69913">
        <ele>4.9</ele>
        <time>2020-06-18T16:23:39Z</time>
      </trkpt>
      <trkpt lat="50.18635" lon="1.69915">
        <ele>4.9</ele>
        <time>2020-06-18T16:23:40Z</time>
      </trkpt>
      <trkpt lat="50.18639" lon="1.69917">
        <ele>4.9</ele>
        <time>2020-06-18T16:23:41Z</time>
      </trkpt>
      <trkpt lat="50.18643" lon="1.69917">
        <ele>4.9</ele>
        <time>2020-06-18T16:23:42Z</time>
      </trkpt>
      <trkpt lat="50.18648" lon="1.69918">
        <ele>4.9</ele>
        <time>2020-06-18T16:23:43Z</time>
      </trkpt>
      <trkpt lat="50.18653" lon="1.69919">
        <ele>4.9</ele>
        <time>2020-06-18T16:23:44Z</time>
      </trkpt>
      <trkpt lat="50.18658" lon="1.69919">
        <ele>4.9</ele>
        <time>2020-06-18T16:23:45Z</time>
      </trkpt>
      <trkpt lat="50.18663" lon="1.69919">
        <ele>4.9</ele>
        <time>2020-06-18T16:23:46Z</time>
      </trkpt>
      <trkpt lat="50.18667" lon="1.69921">
        <ele>4.9</ele>
        <time>2020-06-18T16:23:47Z</time>
      </trkpt>
      <trkpt lat="50.18672" lon="1.69921">
        <ele>4.9</ele>
        <time>2020-06-18T16:23:48Z</time>
      </trkpt>
      <trkpt lat="50.18677" lon="1.69922">
        <ele>4.9</ele>
        <time>2020-06-18T16:23:49Z</time>
      </trkpt>
      <trkpt lat="50.18683" lon="1.69922">
        <ele>4.9</ele>
        <time>2020-06-18T16:23:50Z</time>
      </trkpt>
      <trkpt lat="50.18688" lon="1.69924">
        <ele>4.9</ele>
        <time>2020-06-18T16:23:51Z</time>
      </trkpt>
      <trkpt lat="50.18693" lon="1.69925">
        <ele>4.9</ele>
        <time>2020-06-18T16:23:52Z</time>
      </trkpt>
      <trkpt lat="50.18698" lon="1.69926">
        <ele>4.9</ele>
        <time>2020-06-18T16:23:53Z</time>
      </trkpt>
      <trkpt lat="50.18703" lon="1.69926">
        <ele>4.9</ele>
        <time>2020-06-18T16:23:54Z</time>
      </trkpt>
      <trkpt lat="50.18708" lon="1.69927">
        <ele>4.9</ele>
        <time>2020-06-18T16:23:55Z</time>
      </trkpt>
      <trkpt lat="50.18714" lon="1.69925">
        <ele>4.9</ele>
        <time>2020-06-18T16:23:56Z</time>
      </trkpt>
      <trkpt lat="50.18719" lon="1.69925">
        <ele>4.9</ele>
        <time>2020-06-18T16:23:57Z</time>
      </trkpt>
      <trkpt lat="50.18725" lon="1.69926">
        <ele>4.9</ele>
        <time>2020-06-18T16:23:58Z</time>
      </trkpt>
      <trkpt lat="50.1873" lon="1.69927">
        <ele>4.9</ele>
        <time>2020-06-18T16:23:59Z</time>
      </trkpt>
      <trkpt lat="50.18735" lon="1.69929">
        <ele>4.9</ele>
        <time>2020-06-18T16:24:00Z</time>
      </trkpt>
      <trkpt lat="50.18741" lon="1.69931">
        <ele>4.9</ele>
        <time>2020-06-18T16:24:01Z</time>
      </trkpt>
      <trkpt lat="50.18746" lon="1.69931">
        <ele>4.9</ele>
        <time>2020-06-18T16:24:02Z</time>
      </trkpt>
      <trkpt lat="50.18751" lon="1.69931">
        <ele>4.9</ele>
        <time>2020-06-18T16:24:03Z</time>
      </trkpt>
      <trkpt lat="50.18756" lon="1.69931">
        <ele>4.9</ele>
        <time>2020-06-18T16:24:04Z</time>
      </trkpt>
      <trkpt lat="50.18762" lon="1.69932">
        <ele>4.9</ele>
        <time>2020-06-18T16:24:05Z</time>
      </trkpt>
      <trkpt lat="50.18767" lon="1.69934">
        <ele>4.9</ele>
        <time>2020-06-18T16:24:06Z</time>
      </trkpt>
      <trkpt lat="50.18773" lon="1.69934">
        <ele>4.9</ele>
        <time>2020-06-18T16:24:07Z</time>
      </trkpt>
      <trkpt lat="50.18778" lon="1.69935">
        <ele>5</ele>
        <time>2020-06-18T16:24:08Z</time>
      </trkpt>
      <trkpt lat="50.18783" lon="1.69935">
        <ele>5</ele>
        <time>2020-06-18T16:24:09Z</time>
      </trkpt>
      <trkpt lat="50.18788" lon="1.69936">
        <ele>5</ele>
        <time>2020-06-18T16:24:10Z</time>
      </trkpt>
      <trkpt lat="50.18794" lon="1.69935">
        <ele>5</ele>
        <time>2020-06-18T16:24:11Z</time>
      </trkpt>
      <trkpt lat="50.18799" lon="1.69936">
        <ele>5</ele>
        <time>2020-06-18T16:24:12Z</time>
      </trkpt>
      <trkpt lat="50.18805" lon="1.69937">
        <ele>5.1</ele>
        <time>2020-06-18T16:24:13Z</time>
      </trkpt>
      <trkpt lat="50.18811" lon="1.69937">
        <ele>5.1</ele>
        <time>2020-06-18T16:24:14Z</time>
      </trkpt>
      <trkpt lat="50.18817" lon="1.69939">
        <ele>5.1</ele>
        <time>2020-06-18T16:24:15Z</time>
      </trkpt>
      <trkpt lat="50.18823" lon="1.69939">
        <ele>5.1</ele>
        <time>2020-06-18T16:24:16Z</time>
      </trkpt>
      <trkpt lat="50.18829" lon="1.6994">
        <ele>5.2</ele>
        <time>2020-06-18T16:24:17Z</time>
      </trkpt>
      <trkpt lat="50.18836" lon="1.69941">
        <ele>5.2</ele>
        <time>2020-06-18T16:24:18Z</time>
      </trkpt>
      <trkpt lat="50.18842" lon="1.69942">
        <ele>5.3</ele>
        <time>2020-06-18T16:24:19Z</time>
      </trkpt>
      <trkpt lat="50.18848" lon="1.69942">
        <ele>5.4</ele>
        <time>2020-06-18T16:24:20Z</time>
      </trkpt>
      <trkpt lat="50.18854" lon="1.69942">
        <ele>5.4</ele>
        <time>2020-06-18T16:24:21Z</time>
      </trkpt>
      <trkpt lat="50.18859" lon="1.69943">
        <ele>5.4</ele>
        <time>2020-06-18T16:24:22Z</time>
      </trkpt>
      <trkpt lat="50.18865" lon="1.69944">
        <ele>5.5</ele>
        <time>2020-06-18T16:24:23Z</time>
      </trkpt>
      <trkpt lat="50.18871" lon="1.69945">
        <ele>5.5</ele>
        <time>2020-06-18T16:24:24Z</time>
      </trkpt>
      <trkpt lat="50.18877" lon="1.69945">
        <ele>5.5</ele>
        <time>2020-06-18T16:24:25Z</time>
      </trkpt>
      <trkpt lat="50.18883" lon="1.69946">
        <ele>5.6</ele>
        <time>2020-06-18T16:24:26Z</time>
      </trkpt>
      <trkpt lat="50.18889" lon="1.69947">
        <ele>5.7</ele>
        <time>2020-06-18T16:24:27Z</time>
      </trkpt>
      <trkpt lat="50.18895" lon="1.69948">
        <ele>5.7</ele>
        <time>2020-06-18T16:24:28Z</time>
      </trkpt>
      <trkpt lat="50.18901" lon="1.69949">
        <ele>5.8</ele>
        <time>2020-06-18T16:24:29Z</time>
      </trkpt>
      <trkpt lat="50.18907" lon="1.69949">
        <ele>5.8</ele>
        <time>2020-06-18T16:24:30Z</time>
      </trkpt>
      <trkpt lat="50.18912" lon="1.6995">
        <ele>5.9</ele>
        <time>2020-06-18T16:24:31Z</time>
      </trkpt>
      <trkpt lat="50.18918" lon="1.6995">
        <ele>5.9</ele>
        <time>2020-06-18T16:24:32Z</time>
      </trkpt>
      <trkpt lat="50.18924" lon="1.69951">
        <ele>6</ele>
        <time>2020-06-18T16:24:33Z</time>
      </trkpt>
      <trkpt lat="50.1893" lon="1.69952">
        <ele>6</ele>
        <time>2020-06-18T16:24:34Z</time>
      </trkpt>
      <trkpt lat="50.18936" lon="1.69953">
        <ele>6.1</ele>
        <time>2020-06-18T16:24:35Z</time>
      </trkpt>
      <trkpt lat="50.18942" lon="1.69953">
        <ele>6.1</ele>
        <time>2020-06-18T16:24:36Z</time>
      </trkpt>
      <trkpt lat="50.18948" lon="1.69953">
        <ele>6.2</ele>
        <time>2020-06-18T16:24:37Z</time>
      </trkpt>
      <trkpt lat="50.18954" lon="1.69954">
        <ele>6.2</ele>
        <time>2020-06-18T16:24:38Z</time>
      </trkpt>
      <trkpt lat="50.1896" lon="1.69955">
        <ele>6.3</ele>
        <time>2020-06-18T16:24:39Z</time>
      </trkpt>
      <trkpt lat="50.18966" lon="1.69956">
        <ele>6.4</ele>
        <time>2020-06-18T16:24:40Z</time>
      </trkpt>
      <trkpt lat="50.18972" lon="1.69958">
        <ele>6.4</ele>
        <time>2020-06-18T16:24:41Z</time>
      </trkpt>
      <trkpt lat="50.18978" lon="1.69959">
        <ele>6.5</ele>
        <time>2020-06-18T16:24:42Z</time>
      </trkpt>
      <trkpt lat="50.18984" lon="1.6996">
        <ele>6.5</ele>
        <time>2020-06-18T16:24:43Z</time>
      </trkpt>
      <trkpt lat="50.18989" lon="1.6996">
        <ele>6.6</ele>
        <time>2020-06-18T16:24:44Z</time>
      </trkpt>
      <trkpt lat="50.18994" lon="1.6996">
        <ele>6.6</ele>
        <time>2020-06-18T16:24:45Z</time>
      </trkpt>
      <trkpt lat="50.19" lon="1.69961">
        <ele>6.6</ele>
        <time>2020-06-18T16:24:46Z</time>
      </trkpt>
      <trkpt lat="50.19006" lon="1.69963">
        <ele>6.7</ele>
        <time>2020-06-18T16:24:47Z</time>
      </trkpt>
      <trkpt lat="50.19011" lon="1.69964">
        <ele>6.7</ele>
        <time>2020-06-18T16:24:48Z</time>
      </trkpt>
      <trkpt lat="50.19017" lon="1.69964">
        <ele>6.7</ele>
        <time>2020-06-18T16:24:49Z</time>
      </trkpt>
      <trkpt lat="50.19022" lon="1.69964">
        <ele>6.7</ele>
        <time>2020-06-18T16:24:50Z</time>
      </trkpt>
      <trkpt lat="50.19027" lon="1.69964">
        <ele>6.7</ele>
        <time>2020-06-18T16:24:51Z</time>
      </trkpt>
      <trkpt lat="50.19033" lon="1.69963">
        <ele>6.7</ele>
        <time>2020-06-18T16:24:52Z</time>
      </trkpt>
      <trkpt lat="50.19039" lon="1.69963">
        <ele>6.7</ele>
        <time>2020-06-18T16:24:53Z</time>
      </trkpt>
      <trkpt lat="50.19045" lon="1.69962">
        <ele>6.7</ele>
        <time>2020-06-18T16:24:54Z</time>
      </trkpt>
      <trkpt lat="50.1905" lon="1.69963">
        <ele>6.7</ele>
        <time>2020-06-18T16:24:55Z</time>
      </trkpt>
      <trkpt lat="50.19056" lon="1.69963">
        <ele>6.7</ele>
        <time>2020-06-18T16:24:56Z</time>
      </trkpt>
      <trkpt lat="50.19062" lon="1.69964">
        <ele>6.8</ele>
        <time>2020-06-18T16:24:57Z</time>
      </trkpt>
      <trkpt lat="50.19067" lon="1.69964">
        <ele>6.8</ele>
        <time>2020-06-18T16:24:58Z</time>
      </trkpt>
      <trkpt lat="50.19073" lon="1.69964">
        <ele>6.8</ele>
        <time>2020-06-18T16:24:59Z</time>
      </trkpt>
      <trkpt lat="50.1908" lon="1.69965">
        <ele>6.8</ele>
        <time>2020-06-18T16:25:00Z</time>
      </trkpt>
      <trkpt lat="50.19086" lon="1.69966">
        <ele>6.8</ele>
        <time>2020-06-18T16:25:01Z</time>
      </trkpt>
      <trkpt lat="50.19092" lon="1.69968">
        <ele>6.9</ele>
        <time>2020-06-18T16:25:02Z</time>
      </trkpt>
      <trkpt lat="50.19098" lon="1.69968">
        <ele>6.9</ele>
        <time>2020-06-18T16:25:03Z</time>
      </trkpt>
      <trkpt lat="50.19104" lon="1.6997">
        <ele>6.9</ele>
        <time>2020-06-18T16:25:04Z</time>
      </trkpt>
      <trkpt lat="50.19111" lon="1.69971">
        <ele>7</ele>
        <time>2020-06-18T16:25:05Z</time>
      </trkpt>
      <trkpt lat="50.19118" lon="1.69972">
        <ele>7</ele>
        <time>2020-06-18T16:25:06Z</time>
      </trkpt>
      <trkpt lat="50.19124" lon="1.69973">
        <ele>7</ele>
        <time>2020-06-18T16:25:07Z</time>
      </trkpt>
      <trkpt lat="50.1913" lon="1.69973">
        <ele>7.1</ele>
        <time>2020-06-18T16:25:08Z</time>
      </trkpt>
      <trkpt lat="50.19137" lon="1.69973">
        <ele>7.1</ele>
        <time>2020-06-18T16:25:09Z</time>
      </trkpt>
      <trkpt lat="50.19143" lon="1.69974">
        <ele>7.1</ele>
        <time>2020-06-18T16:25:10Z</time>
      </trkpt>
      <trkpt lat="50.1915" lon="1.69974">
        <ele>7.2</ele>
        <time>2020-06-18T16:25:11Z</time>
      </trkpt>
      <trkpt lat="50.19156" lon="1.69975">
        <ele>7.2</ele>
        <time>2020-06-18T16:25:12Z</time>
      </trkpt>
      <trkpt lat="50.19161" lon="1.69974">
        <ele>7.3</ele>
        <time>2020-06-18T16:25:13Z</time>
      </trkpt>
      <trkpt lat="50.19166" lon="1.69974">
        <ele>7.3</ele>
        <time>2020-06-18T16:25:14Z</time>
      </trkpt>
      <trkpt lat="50.19171" lon="1.69974">
        <ele>7.4</ele>
        <time>2020-06-18T16:25:15Z</time>
      </trkpt>
      <trkpt lat="50.19176" lon="1.69977">
        <ele>7.4</ele>
        <time>2020-06-18T16:25:16Z</time>
      </trkpt>
      <trkpt lat="50.19181" lon="1.69979">
        <ele>7.3</ele>
        <time>2020-06-18T16:25:17Z</time>
      </trkpt>
      <trkpt lat="50.19186" lon="1.6998">
        <ele>7.3</ele>
        <time>2020-06-18T16:25:18Z</time>
      </trkpt>
      <trkpt lat="50.1919" lon="1.6998">
        <ele>7.3</ele>
        <time>2020-06-18T16:25:19Z</time>
      </trkpt>
      <trkpt lat="50.19194" lon="1.6998">
        <ele>7.3</ele>
        <time>2020-06-18T16:25:20Z</time>
      </trkpt>
      <trkpt lat="50.19198" lon="1.69979">
        <ele>7.3</ele>
        <time>2020-06-18T16:25:21Z</time>
      </trkpt>
      <trkpt lat="50.19203" lon="1.69978">
        <ele>7.3</ele>
        <time>2020-06-18T16:25:22Z</time>
      </trkpt>
      <trkpt lat="50.19207" lon="1.69975">
        <ele>7.3</ele>
        <time>2020-06-18T16:25:23Z</time>
      </trkpt>
      <trkpt lat="50.19211" lon="1.6997">
        <ele>7.2</ele>
        <time>2020-06-18T16:25:24Z</time>
      </trkpt>
      <trkpt lat="50.19215" lon="1.69965">
        <ele>7.2</ele>
        <time>2020-06-18T16:25:25Z</time>
      </trkpt>
      <trkpt lat="50.19219" lon="1.69962">
        <ele>7.1</ele>
        <time>2020-06-18T16:25:26Z</time>
      </trkpt>
      <trkpt lat="50.19223" lon="1.69957">
        <ele>7.1</ele>
        <time>2020-06-18T16:25:27Z</time>
      </trkpt>
      <trkpt lat="50.19228" lon="1.69956">
        <ele>7</ele>
        <time>2020-06-18T16:25:28Z</time>
      </trkpt>
      <trkpt lat="50.19233" lon="1.69953">
        <ele>6.9</ele>
        <time>2020-06-18T16:25:29Z</time>
      </trkpt>
      <trkpt lat="50.19238" lon="1.69952">
        <ele>6.9</ele>
        <time>2020-06-18T16:25:30Z</time>
      </trkpt>
      <trkpt lat="50.19243" lon="1.6995">
        <ele>6.8</ele>
        <time>2020-06-18T16:25:31Z</time>
      </trkpt>
      <trkpt lat="50.19248" lon="1.69948">
        <ele>6.8</ele>
        <time>2020-06-18T16:25:32Z</time>
      </trkpt>
      <trkpt lat="50.19253" lon="1.69946">
        <ele>6.7</ele>
        <time>2020-06-18T16:25:33Z</time>
      </trkpt>
      <trkpt lat="50.19259" lon="1.69943">
        <ele>6.7</ele>
        <time>2020-06-18T16:25:34Z</time>
      </trkpt>
      <trkpt lat="50.19264" lon="1.6994">
        <ele>6.6</ele>
        <time>2020-06-18T16:25:35Z</time>
      </trkpt>
      <trkpt lat="50.19269" lon="1.69937">
        <ele>6.6</ele>
        <time>2020-06-18T16:25:36Z</time>
      </trkpt>
      <trkpt lat="50.19275" lon="1.69935">
        <ele>6.5</ele>
        <time>2020-06-18T16:25:37Z</time>
      </trkpt>
      <trkpt lat="50.19279" lon="1.69933">
        <ele>6.5</ele>
        <time>2020-06-18T16:25:38Z</time>
      </trkpt>
      <trkpt lat="50.19285" lon="1.6993">
        <ele>6.4</ele>
        <time>2020-06-18T16:25:39Z</time>
      </trkpt>
      <trkpt lat="50.1929" lon="1.69927">
        <ele>6.2</ele>
        <time>2020-06-18T16:25:40Z</time>
      </trkpt>
      <trkpt lat="50.19295" lon="1.69924">
        <ele>6.1</ele>
        <time>2020-06-18T16:25:41Z</time>
      </trkpt>
      <trkpt lat="50.19301" lon="1.69923">
        <ele>6</ele>
        <time>2020-06-18T16:25:42Z</time>
      </trkpt>
      <trkpt lat="50.19306" lon="1.69921">
        <ele>5.9</ele>
        <time>2020-06-18T16:25:43Z</time>
      </trkpt>
      <trkpt lat="50.19312" lon="1.6992">
        <ele>5.9</ele>
        <time>2020-06-18T16:25:44Z</time>
      </trkpt>
      <trkpt lat="50.19319" lon="1.69921">
        <ele>5.8</ele>
        <time>2020-06-18T16:25:45Z</time>
      </trkpt>
      <trkpt lat="50.19324" lon="1.69916">
        <ele>5.8</ele>
        <time>2020-06-18T16:25:46Z</time>
      </trkpt>
      <trkpt lat="50.1933" lon="1.69912">
        <ele>5.7</ele>
        <time>2020-06-18T16:25:47Z</time>
      </trkpt>
      <trkpt lat="50.19335" lon="1.69907">
        <ele>5.7</ele>
        <time>2020-06-18T16:25:48Z</time>
      </trkpt>
      <trkpt lat="50.19341" lon="1.69903">
        <ele>5.7</ele>
        <time>2020-06-18T16:25:49Z</time>
      </trkpt>
      <trkpt lat="50.19347" lon="1.69899">
        <ele>5.6</ele>
        <time>2020-06-18T16:25:50Z</time>
      </trkpt>
      <trkpt lat="50.19352" lon="1.69894">
        <ele>5.6</ele>
        <time>2020-06-18T16:25:51Z</time>
      </trkpt>
      <trkpt lat="50.19358" lon="1.69889">
        <ele>5.5</ele>
        <time>2020-06-18T16:25:52Z</time>
      </trkpt>
      <trkpt lat="50.19363" lon="1.69884">
        <ele>5.4</ele>
        <time>2020-06-18T16:25:53Z</time>
      </trkpt>
      <trkpt lat="50.19369" lon="1.69879">
        <ele>5.4</ele>
        <time>2020-06-18T16:25:54Z</time>
      </trkpt>
      <trkpt lat="50.19374" lon="1.69873">
        <ele>5.3</ele>
        <time>2020-06-18T16:25:55Z</time>
      </trkpt>
      <trkpt lat="50.19379" lon="1.69868">
        <ele>5.2</ele>
        <time>2020-06-18T16:25:56Z</time>
      </trkpt>
      <trkpt lat="50.19385" lon="1.69865">
        <ele>5.2</ele>
        <time>2020-06-18T16:25:57Z</time>
      </trkpt>
      <trkpt lat="50.19392" lon="1.69862">
        <ele>5.2</ele>
        <time>2020-06-18T16:25:58Z</time>
      </trkpt>
      <trkpt lat="50.19398" lon="1.69861">
        <ele>5.2</ele>
        <time>2020-06-18T16:25:59Z</time>
      </trkpt>
      <trkpt lat="50.19404" lon="1.69858">
        <ele>5.2</ele>
        <time>2020-06-18T16:26:00Z</time>
      </trkpt>
      <trkpt lat="50.1941" lon="1.69855">
        <ele>5.2</ele>
        <time>2020-06-18T16:26:01Z</time>
      </trkpt>
      <trkpt lat="50.19416" lon="1.69854">
        <ele>5.2</ele>
        <time>2020-06-18T16:26:02Z</time>
      </trkpt>
      <trkpt lat="50.19422" lon="1.69851">
        <ele>5.2</ele>
        <time>2020-06-18T16:26:03Z</time>
      </trkpt>
      <trkpt lat="50.19428" lon="1.6985">
        <ele>5.2</ele>
        <time>2020-06-18T16:26:04Z</time>
      </trkpt>
      <trkpt lat="50.19434" lon="1.69848">
        <ele>5.1</ele>
        <time>2020-06-18T16:26:05Z</time>
      </trkpt>
      <trkpt lat="50.1944" lon="1.69845">
        <ele>5.1</ele>
        <time>2020-06-18T16:26:06Z</time>
      </trkpt>
      <trkpt lat="50.19446" lon="1.69842">
        <ele>5</ele>
        <time>2020-06-18T16:26:07Z</time>
      </trkpt>
      <trkpt lat="50.19452" lon="1.69839">
        <ele>5</ele>
        <time>2020-06-18T16:26:08Z</time>
      </trkpt>
      <trkpt lat="50.19457" lon="1.69836">
        <ele>4.9</ele>
        <time>2020-06-18T16:26:09Z</time>
      </trkpt>
      <trkpt lat="50.19463" lon="1.69832">
        <ele>4.9</ele>
        <time>2020-06-18T16:26:10Z</time>
      </trkpt>
      <trkpt lat="50.19468" lon="1.69826">
        <ele>4.8</ele>
        <time>2020-06-18T16:26:11Z</time>
      </trkpt>
      <trkpt lat="50.19474" lon="1.6982">
        <ele>4.8</ele>
        <time>2020-06-18T16:26:12Z</time>
      </trkpt>
      <trkpt lat="50.19478" lon="1.69811">
        <ele>4.8</ele>
        <time>2020-06-18T16:26:13Z</time>
      </trkpt>
      <trkpt lat="50.19483" lon="1.69802">
        <ele>4.8</ele>
        <time>2020-06-18T16:26:14Z</time>
      </trkpt>
      <trkpt lat="50.19486" lon="1.69793">
        <ele>4.9</ele>
        <time>2020-06-18T16:26:15Z</time>
      </trkpt>
      <trkpt lat="50.1949" lon="1.69785">
        <ele>4.9</ele>
        <time>2020-06-18T16:26:16Z</time>
      </trkpt>
      <trkpt lat="50.19492" lon="1.69776">
        <ele>5</ele>
        <time>2020-06-18T16:26:17Z</time>
      </trkpt>
      <trkpt lat="50.19496" lon="1.69767">
        <ele>5.1</ele>
        <time>2020-06-18T16:26:18Z</time>
      </trkpt>
      <trkpt lat="50.195" lon="1.6976">
        <ele>5.2</ele>
        <time>2020-06-18T16:26:19Z</time>
      </trkpt>
      <trkpt lat="50.19505" lon="1.69754">
        <ele>5.3</ele>
        <time>2020-06-18T16:26:20Z</time>
      </trkpt>
      <trkpt lat="50.1951" lon="1.69748">
        <ele>5.4</ele>
        <time>2020-06-18T16:26:21Z</time>
      </trkpt>
      <trkpt lat="50.19514" lon="1.69742">
        <ele>5.4</ele>
        <time>2020-06-18T16:26:22Z</time>
      </trkpt>
      <trkpt lat="50.19519" lon="1.69737">
        <ele>5.5</ele>
        <time>2020-06-18T16:26:23Z</time>
      </trkpt>
      <trkpt lat="50.19524" lon="1.69732">
        <ele>5.6</ele>
        <time>2020-06-18T16:26:24Z</time>
      </trkpt>
      <trkpt lat="50.19528" lon="1.69727">
        <ele>5.6</ele>
        <time>2020-06-18T16:26:25Z</time>
      </trkpt>
      <trkpt lat="50.19533" lon="1.69721">
        <ele>5.6</ele>
        <time>2020-06-18T16:26:26Z</time>
      </trkpt>
      <trkpt lat="50.19536" lon="1.69714">
        <ele>5.6</ele>
        <time>2020-06-18T16:26:27Z</time>
      </trkpt>
      <trkpt lat="50.1954" lon="1.69708">
        <ele>5.6</ele>
        <time>2020-06-18T16:26:28Z</time>
      </trkpt>
      <trkpt lat="50.19545" lon="1.69702">
        <ele>5.6</ele>
        <time>2020-06-18T16:26:29Z</time>
      </trkpt>
      <trkpt lat="50.19549" lon="1.69696">
        <ele>5.6</ele>
        <time>2020-06-18T16:26:30Z</time>
      </trkpt>
      <trkpt lat="50.19554" lon="1.69691">
        <ele>5.6</ele>
        <time>2020-06-18T16:26:31Z</time>
      </trkpt>
      <trkpt lat="50.19559" lon="1.69686">
        <ele>5.6</ele>
        <time>2020-06-18T16:26:32Z</time>
      </trkpt>
      <trkpt lat="50.19564" lon="1.6968">
        <ele>5.6</ele>
        <time>2020-06-18T16:26:33Z</time>
      </trkpt>
      <trkpt lat="50.19568" lon="1.69674">
        <ele>5.6</ele>
        <time>2020-06-18T16:26:34Z</time>
      </trkpt>
      <trkpt lat="50.19573" lon="1.69667">
        <ele>5.6</ele>
        <time>2020-06-18T16:26:35Z</time>
      </trkpt>
      <trkpt lat="50.19577" lon="1.69661">
        <ele>5.6</ele>
        <time>2020-06-18T16:26:36Z</time>
      </trkpt>
      <trkpt lat="50.19582" lon="1.69654">
        <ele>5.6</ele>
        <time>2020-06-18T16:26:37Z</time>
      </trkpt>
      <trkpt lat="50.19586" lon="1.69646">
        <ele>5.7</ele>
        <time>2020-06-18T16:26:38Z</time>
      </trkpt>
      <trkpt lat="50.19592" lon="1.69638">
        <ele>5.7</ele>
        <time>2020-06-18T16:26:39Z</time>
      </trkpt>
      <trkpt lat="50.19597" lon="1.69629">
        <ele>5.8</ele>
        <time>2020-06-18T16:26:40Z</time>
      </trkpt>
      <trkpt lat="50.19602" lon="1.69623">
        <ele>5.8</ele>
        <time>2020-06-18T16:26:41Z</time>
      </trkpt>
      <trkpt lat="50.19607" lon="1.69616">
        <ele>5.6</ele>
        <time>2020-06-18T16:26:42Z</time>
      </trkpt>
      <trkpt lat="50.19611" lon="1.69608">
        <ele>5.6</ele>
        <time>2020-06-18T16:26:43Z</time>
      </trkpt>
      <trkpt lat="50.19616" lon="1.696">
        <ele>5.6</ele>
        <time>2020-06-18T16:26:44Z</time>
      </trkpt>
      <trkpt lat="50.1962" lon="1.69592">
        <ele>5.5</ele>
        <time>2020-06-18T16:26:45Z</time>
      </trkpt>
      <trkpt lat="50.19625" lon="1.69584">
        <ele>5.5</ele>
        <time>2020-06-18T16:26:46Z</time>
      </trkpt>
      <trkpt lat="50.19629" lon="1.69577">
        <ele>5.4</ele>
        <time>2020-06-18T16:26:47Z</time>
      </trkpt>
      <trkpt lat="50.19633" lon="1.6957">
        <ele>5.3</ele>
        <time>2020-06-18T16:26:48Z</time>
      </trkpt>
      <trkpt lat="50.19638" lon="1.69563">
        <ele>5.3</ele>
        <time>2020-06-18T16:26:49Z</time>
      </trkpt>
      <trkpt lat="50.19642" lon="1.69555">
        <ele>5.2</ele>
        <time>2020-06-18T16:26:50Z</time>
      </trkpt>
      <trkpt lat="50.19646" lon="1.69547">
        <ele>5.2</ele>
        <time>2020-06-18T16:26:51Z</time>
      </trkpt>
      <trkpt lat="50.1965" lon="1.69539">
        <ele>5.1</ele>
        <time>2020-06-18T16:26:52Z</time>
      </trkpt>
      <trkpt lat="50.19654" lon="1.69531">
        <ele>5</ele>
        <time>2020-06-18T16:26:53Z</time>
      </trkpt>
      <trkpt lat="50.19658" lon="1.69524">
        <ele>5</ele>
        <time>2020-06-18T16:26:54Z</time>
      </trkpt>
      <trkpt lat="50.19661" lon="1.69516">
        <ele>4.9</ele>
        <time>2020-06-18T16:26:55Z</time>
      </trkpt>
      <trkpt lat="50.19664" lon="1.69509">
        <ele>4.9</ele>
        <time>2020-06-18T16:26:56Z</time>
      </trkpt>
      <trkpt lat="50.19667" lon="1.69502">
        <ele>4.9</ele>
        <time>2020-06-18T16:26:57Z</time>
      </trkpt>
      <trkpt lat="50.1967" lon="1.69493">
        <ele>4.8</ele>
        <time>2020-06-18T16:26:58Z</time>
      </trkpt>
      <trkpt lat="50.19672" lon="1.69485">
        <ele>4.8</ele>
        <time>2020-06-18T16:26:59Z</time>
      </trkpt>
      <trkpt lat="50.19675" lon="1.69476">
        <ele>4.8</ele>
        <time>2020-06-18T16:27:00Z</time>
      </trkpt>
      <trkpt lat="50.19677" lon="1.6947">
        <ele>4.8</ele>
        <time>2020-06-18T16:27:01Z</time>
      </trkpt>
      <trkpt lat="50.1968" lon="1.69465">
        <ele>4.8</ele>
        <time>2020-06-18T16:27:02Z</time>
      </trkpt>
      <trkpt lat="50.19684" lon="1.6946">
        <ele>4.8</ele>
        <time>2020-06-18T16:27:03Z</time>
      </trkpt>
      <trkpt lat="50.19687" lon="1.69454">
        <ele>4.8</ele>
        <time>2020-06-18T16:27:04Z</time>
      </trkpt>
      <trkpt lat="50.19692" lon="1.69448">
        <ele>4.8</ele>
        <time>2020-06-18T16:27:05Z</time>
      </trkpt>
      <trkpt lat="50.19697" lon="1.69442">
        <ele>4.8</ele>
        <time>2020-06-18T16:27:06Z</time>
      </trkpt>
      <trkpt lat="50.19702" lon="1.69436">
        <ele>4.8</ele>
        <time>2020-06-18T16:27:07Z</time>
      </trkpt>
      <trkpt lat="50.19707" lon="1.6943">
        <ele>4.8</ele>
        <time>2020-06-18T16:27:08Z</time>
      </trkpt>
      <trkpt lat="50.19711" lon="1.69424">
        <ele>4.9</ele>
        <time>2020-06-18T16:27:09Z</time>
      </trkpt>
      <trkpt lat="50.19716" lon="1.69417">
        <ele>4.9</ele>
        <time>2020-06-18T16:27:10Z</time>
      </trkpt>
      <trkpt lat="50.1972" lon="1.6941">
        <ele>4.9</ele>
        <time>2020-06-18T16:27:11Z</time>
      </trkpt>
      <trkpt lat="50.19725" lon="1.69403">
        <ele>4.9</ele>
        <time>2020-06-18T16:27:12Z</time>
      </trkpt>
      <trkpt lat="50.19729" lon="1.69397">
        <ele>4.9</ele>
        <time>2020-06-18T16:27:13Z</time>
      </trkpt>
      <trkpt lat="50.19733" lon="1.69389">
        <ele>4.9</ele>
        <time>2020-06-18T16:27:14Z</time>
      </trkpt>
      <trkpt lat="50.19737" lon="1.69383">
        <ele>4.9</ele>
        <time>2020-06-18T16:27:15Z</time>
      </trkpt>
      <trkpt lat="50.1974" lon="1.69376">
        <ele>5</ele>
        <time>2020-06-18T16:27:16Z</time>
      </trkpt>
      <trkpt lat="50.19744" lon="1.69368">
        <ele>5.1</ele>
        <time>2020-06-18T16:27:17Z</time>
      </trkpt>
      <trkpt lat="50.19747" lon="1.6936">
        <ele>5.1</ele>
        <time>2020-06-18T16:27:18Z</time>
      </trkpt>
      <trkpt lat="50.19751" lon="1.69352">
        <ele>5.3</ele>
        <time>2020-06-18T16:27:19Z</time>
      </trkpt>
      <trkpt lat="50.19754" lon="1.69346">
        <ele>5.4</ele>
        <time>2020-06-18T16:27:20Z</time>
      </trkpt>
      <trkpt lat="50.19757" lon="1.6934">
        <ele>5.5</ele>
        <time>2020-06-18T16:27:21Z</time>
      </trkpt>
      <trkpt lat="50.1976" lon="1.69335">
        <ele>5.6</ele>
        <time>2020-06-18T16:27:22Z</time>
      </trkpt>
      <trkpt lat="50.19763" lon="1.6933">
        <ele>5.7</ele>
        <time>2020-06-18T16:27:23Z</time>
      </trkpt>
      <trkpt lat="50.19766" lon="1.69324">
        <ele>5.8</ele>
        <time>2020-06-18T16:27:24Z</time>
      </trkpt>
      <trkpt lat="50.19768" lon="1.6932">
        <ele>5.8</ele>
        <time>2020-06-18T16:27:25Z</time>
      </trkpt>
      <trkpt lat="50.19771" lon="1.69316">
        <ele>5.8</ele>
        <time>2020-06-18T16:27:26Z</time>
      </trkpt>
      <trkpt lat="50.19773" lon="1.69311">
        <ele>6.1</ele>
        <time>2020-06-18T16:27:27Z</time>
      </trkpt>
      <trkpt lat="50.19773" lon="1.6931">
        <ele>6.1</ele>
        <time>2020-06-18T16:27:28Z</time>
      </trkpt>
      <trkpt lat="50.19775" lon="1.69308">
        <ele>6.1</ele>
        <time>2020-06-18T16:27:29Z</time>
      </trkpt>
      <trkpt lat="50.19775" lon="1.69305">
        <ele>6.1</ele>
        <time>2020-06-18T16:27:30Z</time>
      </trkpt>
      <trkpt lat="50.19777" lon="1.69304">
        <ele>6.1</ele>
        <time>2020-06-18T16:27:31Z</time>
      </trkpt>
      <trkpt lat="50.1978" lon="1.69304">
        <ele>6.1</ele>
        <time>2020-06-18T16:27:32Z</time>
      </trkpt>
      <trkpt lat="50.19784" lon="1.69306">
        <ele>5.8</ele>
        <time>2020-06-18T16:27:33Z</time>
      </trkpt>
      <trkpt lat="50.19788" lon="1.69309">
        <ele>5.7</ele>
        <time>2020-06-18T16:27:34Z</time>
      </trkpt>
      <trkpt lat="50.19792" lon="1.69312">
        <ele>5.5</ele>
        <time>2020-06-18T16:27:35Z</time>
      </trkpt>
      <trkpt lat="50.19795" lon="1.69314">
        <ele>5.3</ele>
        <time>2020-06-18T16:27:36Z</time>
      </trkpt>
      <trkpt lat="50.19798" lon="1.69315">
        <ele>5.2</ele>
        <time>2020-06-18T16:27:37Z</time>
      </trkpt>
      <trkpt lat="50.19802" lon="1.69316">
        <ele>5.1</ele>
        <time>2020-06-18T16:27:38Z</time>
      </trkpt>
      <trkpt lat="50.19807" lon="1.69317">
        <ele>5</ele>
        <time>2020-06-18T16:27:39Z</time>
      </trkpt>
      <trkpt lat="50.19813" lon="1.69319">
        <ele>4.8</ele>
        <time>2020-06-18T16:27:40Z</time>
      </trkpt>
      <trkpt lat="50.19817" lon="1.6932">
        <ele>4.8</ele>
        <time>2020-06-18T16:27:41Z</time>
      </trkpt>
      <trkpt lat="50.19821" lon="1.6932">
        <ele>4.7</ele>
        <time>2020-06-18T16:27:42Z</time>
      </trkpt>
      <trkpt lat="50.19826" lon="1.69321">
        <ele>4.6</ele>
        <time>2020-06-18T16:27:43Z</time>
      </trkpt>
      <trkpt lat="50.1983" lon="1.69322">
        <ele>4.6</ele>
        <time>2020-06-18T16:27:44Z</time>
      </trkpt>
      <trkpt lat="50.19835" lon="1.69322">
        <ele>4.5</ele>
        <time>2020-06-18T16:27:45Z</time>
      </trkpt>
      <trkpt lat="50.19838" lon="1.69322">
        <ele>4.4</ele>
        <time>2020-06-18T16:27:46Z</time>
      </trkpt>
      <trkpt lat="50.19842" lon="1.69322">
        <ele>4.4</ele>
        <time>2020-06-18T16:27:47Z</time>
      </trkpt>
      <trkpt lat="50.19846" lon="1.69323">
        <ele>4.3</ele>
        <time>2020-06-18T16:27:48Z</time>
      </trkpt>
      <trkpt lat="50.19849" lon="1.69323">
        <ele>4.3</ele>
        <time>2020-06-18T16:27:49Z</time>
      </trkpt>
      <trkpt lat="50.19853" lon="1.69324">
        <ele>4.2</ele>
        <time>2020-06-18T16:27:50Z</time>
      </trkpt>
      <trkpt lat="50.19858" lon="1.69325">
        <ele>4.2</ele>
        <time>2020-06-18T16:27:51Z</time>
      </trkpt>
      <trkpt lat="50.19863" lon="1.69326">
        <ele>4.1</ele>
        <time>2020-06-18T16:27:52Z</time>
      </trkpt>
      <trkpt lat="50.19867" lon="1.69326">
        <ele>4.1</ele>
        <time>2020-06-18T16:27:53Z</time>
      </trkpt>
      <trkpt lat="50.19874" lon="1.69327">
        <ele>4</ele>
        <time>2020-06-18T16:27:54Z</time>
      </trkpt>
      <trkpt lat="50.1988" lon="1.69327">
        <ele>4</ele>
        <time>2020-06-18T16:27:55Z</time>
      </trkpt>
      <trkpt lat="50.19886" lon="1.69328">
        <ele>4</ele>
        <time>2020-06-18T16:27:56Z</time>
      </trkpt>
      <trkpt lat="50.19892" lon="1.69329">
        <ele>3.9</ele>
        <time>2020-06-18T16:27:57Z</time>
      </trkpt>
      <trkpt lat="50.19897" lon="1.69331">
        <ele>3.9</ele>
        <time>2020-06-18T16:27:58Z</time>
      </trkpt>
      <trkpt lat="50.19904" lon="1.69332">
        <ele>3.9</ele>
        <time>2020-06-18T16:27:59Z</time>
      </trkpt>
      <trkpt lat="50.19911" lon="1.69333">
        <ele>3.8</ele>
        <time>2020-06-18T16:28:00Z</time>
      </trkpt>
      <trkpt lat="50.19916" lon="1.69335">
        <ele>3.8</ele>
        <time>2020-06-18T16:28:01Z</time>
      </trkpt>
      <trkpt lat="50.19923" lon="1.69336">
        <ele>3.8</ele>
        <time>2020-06-18T16:28:02Z</time>
      </trkpt>
      <trkpt lat="50.19931" lon="1.69336">
        <ele>3.8</ele>
        <time>2020-06-18T16:28:03Z</time>
      </trkpt>
      <trkpt lat="50.19936" lon="1.69335">
        <ele>3.8</ele>
        <time>2020-06-18T16:28:04Z</time>
      </trkpt>
      <trkpt lat="50.19941" lon="1.69336">
        <ele>3.8</ele>
        <time>2020-06-18T16:28:05Z</time>
      </trkpt>
      <trkpt lat="50.19947" lon="1.69334">
        <ele>3.8</ele>
        <time>2020-06-18T16:28:06Z</time>
      </trkpt>
      <trkpt lat="50.19953" lon="1.69332">
        <ele>3.8</ele>
        <time>2020-06-18T16:28:07Z</time>
      </trkpt>
      <trkpt lat="50.1996" lon="1.69331">
        <ele>3.8</ele>
        <time>2020-06-18T16:28:08Z</time>
      </trkpt>
      <trkpt lat="50.19966" lon="1.6933">
        <ele>3.8</ele>
        <time>2020-06-18T16:28:09Z</time>
      </trkpt>
      <trkpt lat="50.19972" lon="1.69328">
        <ele>3.8</ele>
        <time>2020-06-18T16:28:10Z</time>
      </trkpt>
      <trkpt lat="50.1998" lon="1.69327">
        <ele>3.8</ele>
        <time>2020-06-18T16:28:11Z</time>
      </trkpt>
      <trkpt lat="50.19987" lon="1.69325">
        <ele>3.8</ele>
        <time>2020-06-18T16:28:12Z</time>
      </trkpt>
      <trkpt lat="50.19993" lon="1.69324">
        <ele>3.8</ele>
        <time>2020-06-18T16:28:13Z</time>
      </trkpt>
      <trkpt lat="50.2" lon="1.69324">
        <ele>3.8</ele>
        <time>2020-06-18T16:28:14Z</time>
      </trkpt>
      <trkpt lat="50.20006" lon="1.69323">
        <ele>3.9</ele>
        <time>2020-06-18T16:28:15Z</time>
      </trkpt>
      <trkpt lat="50.20014" lon="1.69323">
        <ele>3.9</ele>
        <time>2020-06-18T16:28:16Z</time>
      </trkpt>
      <trkpt lat="50.2002" lon="1.69323">
        <ele>3.8</ele>
        <time>2020-06-18T16:28:17Z</time>
      </trkpt>
      <trkpt lat="50.20027" lon="1.69323">
        <ele>3.8</ele>
        <time>2020-06-18T16:28:18Z</time>
      </trkpt>
      <trkpt lat="50.20035" lon="1.69322">
        <ele>3.8</ele>
        <time>2020-06-18T16:28:19Z</time>
      </trkpt>
      <trkpt lat="50.2004" lon="1.69323">
        <ele>3.8</ele>
        <time>2020-06-18T16:28:20Z</time>
      </trkpt>
      <trkpt lat="50.20047" lon="1.69322">
        <ele>3.7</ele>
        <time>2020-06-18T16:28:21Z</time>
      </trkpt>
      <trkpt lat="50.20053" lon="1.69322">
        <ele>3.7</ele>
        <time>2020-06-18T16:28:22Z</time>
      </trkpt>
      <trkpt lat="50.20059" lon="1.69322">
        <ele>3.7</ele>
        <time>2020-06-18T16:28:23Z</time>
      </trkpt>
      <trkpt lat="50.20066" lon="1.69322">
        <ele>3.7</ele>
        <time>2020-06-18T16:28:24Z</time>
      </trkpt>
      <trkpt lat="50.20072" lon="1.69323">
        <ele>3.7</ele>
        <time>2020-06-18T16:28:25Z</time>
      </trkpt>
      <trkpt lat="50.20078" lon="1.69324">
        <ele>3.7</ele>
        <time>2020-06-18T16:28:26Z</time>
      </trkpt>
      <trkpt lat="50.20085" lon="1.69324">
        <ele>3.7</ele>
        <time>2020-06-18T16:28:27Z</time>
      </trkpt>
      <trkpt lat="50.20092" lon="1.69326">
        <ele>3.7</ele>
        <time>2020-06-18T16:28:28Z</time>
      </trkpt>
      <trkpt lat="50.20099" lon="1.69327">
        <ele>3.7</ele>
        <time>2020-06-18T16:28:29Z</time>
      </trkpt>
      <trkpt lat="50.20105" lon="1.69328">
        <ele>3.7</ele>
        <time>2020-06-18T16:28:30Z</time>
      </trkpt>
      <trkpt lat="50.20112" lon="1.6933">
        <ele>3.8</ele>
        <time>2020-06-18T16:28:31Z</time>
      </trkpt>
      <trkpt lat="50.20118" lon="1.69332">
        <ele>3.8</ele>
        <time>2020-06-18T16:28:32Z</time>
      </trkpt>
      <trkpt lat="50.20124" lon="1.69334">
        <ele>3.8</ele>
        <time>2020-06-18T16:28:33Z</time>
      </trkpt>
      <trkpt lat="50.2013" lon="1.69337">
        <ele>3.9</ele>
        <time>2020-06-18T16:28:34Z</time>
      </trkpt>
      <trkpt lat="50.20137" lon="1.6934">
        <ele>3.9</ele>
        <time>2020-06-18T16:28:35Z</time>
      </trkpt>
      <trkpt lat="50.20143" lon="1.69344">
        <ele>3.9</ele>
        <time>2020-06-18T16:28:36Z</time>
      </trkpt>
      <trkpt lat="50.2015" lon="1.69348">
        <ele>3.9</ele>
        <time>2020-06-18T16:28:37Z</time>
      </trkpt>
      <trkpt lat="50.20156" lon="1.69351">
        <ele>3.9</ele>
        <time>2020-06-18T16:28:38Z</time>
      </trkpt>
      <trkpt lat="50.20163" lon="1.69353">
        <ele>3.8</ele>
        <time>2020-06-18T16:28:39Z</time>
      </trkpt>
      <trkpt lat="50.20169" lon="1.69355">
        <ele>3.8</ele>
        <time>2020-06-18T16:28:40Z</time>
      </trkpt>
      <trkpt lat="50.20176" lon="1.69357">
        <ele>3.8</ele>
        <time>2020-06-18T16:28:41Z</time>
      </trkpt>
      <trkpt lat="50.20182" lon="1.69358">
        <ele>3.8</ele>
        <time>2020-06-18T16:28:42Z</time>
      </trkpt>
      <trkpt lat="50.20189" lon="1.69359">
        <ele>3.9</ele>
        <time>2020-06-18T16:28:43Z</time>
      </trkpt>
      <trkpt lat="50.20195" lon="1.6936">
        <ele>3.9</ele>
        <time>2020-06-18T16:28:44Z</time>
      </trkpt>
      <trkpt lat="50.202" lon="1.69361">
        <ele>3.9</ele>
        <time>2020-06-18T16:28:45Z</time>
      </trkpt>
      <trkpt lat="50.20206" lon="1.69362">
        <ele>4</ele>
        <time>2020-06-18T16:28:46Z</time>
      </trkpt>
      <trkpt lat="50.20211" lon="1.69364">
        <ele>4</ele>
        <time>2020-06-18T16:28:47Z</time>
      </trkpt>
      <trkpt lat="50.20216" lon="1.69364">
        <ele>4.1</ele>
        <time>2020-06-18T16:28:48Z</time>
      </trkpt>
      <trkpt lat="50.20223" lon="1.69365">
        <ele>4.1</ele>
        <time>2020-06-18T16:28:49Z</time>
      </trkpt>
      <trkpt lat="50.2023" lon="1.69368">
        <ele>4.2</ele>
        <time>2020-06-18T16:28:50Z</time>
      </trkpt>
      <trkpt lat="50.20236" lon="1.6937">
        <ele>4.2</ele>
        <time>2020-06-18T16:28:51Z</time>
      </trkpt>
      <trkpt lat="50.20241" lon="1.69371">
        <ele>4.3</ele>
        <time>2020-06-18T16:28:52Z</time>
      </trkpt>
      <trkpt lat="50.20249" lon="1.69372">
        <ele>4.4</ele>
        <time>2020-06-18T16:28:53Z</time>
      </trkpt>
      <trkpt lat="50.20255" lon="1.69372">
        <ele>4.5</ele>
        <time>2020-06-18T16:28:54Z</time>
      </trkpt>
      <trkpt lat="50.20262" lon="1.69373">
        <ele>4.8</ele>
        <time>2020-06-18T16:28:55Z</time>
      </trkpt>
      <trkpt lat="50.20268" lon="1.69372">
        <ele>4.7</ele>
        <time>2020-06-18T16:28:56Z</time>
      </trkpt>
      <trkpt lat="50.20275" lon="1.69372">
        <ele>4.6</ele>
        <time>2020-06-18T16:28:57Z</time>
      </trkpt>
      <trkpt lat="50.20281" lon="1.69371">
        <ele>4.5</ele>
        <time>2020-06-18T16:28:58Z</time>
      </trkpt>
      <trkpt lat="50.20288" lon="1.69371">
        <ele>4.5</ele>
        <time>2020-06-18T16:28:59Z</time>
      </trkpt>
      <trkpt lat="50.20293" lon="1.69371">
        <ele>4.5</ele>
        <time>2020-06-18T16:29:00Z</time>
      </trkpt>
      <trkpt lat="50.203" lon="1.6937">
        <ele>4.5</ele>
        <time>2020-06-18T16:29:01Z</time>
      </trkpt>
      <trkpt lat="50.20306" lon="1.69371">
        <ele>4.5</ele>
        <time>2020-06-18T16:29:02Z</time>
      </trkpt>
      <trkpt lat="50.20312" lon="1.69372">
        <ele>4.5</ele>
        <time>2020-06-18T16:29:03Z</time>
      </trkpt>
      <trkpt lat="50.20318" lon="1.69373">
        <ele>4.5</ele>
        <time>2020-06-18T16:29:04Z</time>
      </trkpt>
      <trkpt lat="50.20324" lon="1.69375">
        <ele>4.5</ele>
        <time>2020-06-18T16:29:05Z</time>
      </trkpt>
      <trkpt lat="50.2033" lon="1.69377">
        <ele>4.5</ele>
        <time>2020-06-18T16:29:06Z</time>
      </trkpt>
      <trkpt lat="50.20336" lon="1.69378">
        <ele>4.5</ele>
        <time>2020-06-18T16:29:07Z</time>
      </trkpt>
      <trkpt lat="50.20341" lon="1.69381">
        <ele>4.5</ele>
        <time>2020-06-18T16:29:08Z</time>
      </trkpt>
      <trkpt lat="50.20347" lon="1.69383">
        <ele>4.5</ele>
        <time>2020-06-18T16:29:09Z</time>
      </trkpt>
      <trkpt lat="50.20353" lon="1.69387">
        <ele>4.6</ele>
        <time>2020-06-18T16:29:10Z</time>
      </trkpt>
      <trkpt lat="50.20358" lon="1.69391">
        <ele>4.6</ele>
        <time>2020-06-18T16:29:11Z</time>
      </trkpt>
      <trkpt lat="50.20363" lon="1.69394">
        <ele>4.7</ele>
        <time>2020-06-18T16:29:12Z</time>
      </trkpt>
      <trkpt lat="50.20369" lon="1.69396">
        <ele>4.7</ele>
        <time>2020-06-18T16:29:13Z</time>
      </trkpt>
      <trkpt lat="50.20375" lon="1.69399">
        <ele>4.7</ele>
        <time>2020-06-18T16:29:14Z</time>
      </trkpt>
      <trkpt lat="50.20381" lon="1.69401">
        <ele>4.6</ele>
        <time>2020-06-18T16:29:15Z</time>
      </trkpt>
      <trkpt lat="50.20386" lon="1.69403">
        <ele>4.6</ele>
        <time>2020-06-18T16:29:16Z</time>
      </trkpt>
      <trkpt lat="50.20392" lon="1.69403">
        <ele>4.6</ele>
        <time>2020-06-18T16:29:17Z</time>
      </trkpt>
      <trkpt lat="50.20398" lon="1.69404">
        <ele>4.6</ele>
        <time>2020-06-18T16:29:18Z</time>
      </trkpt>
      <trkpt lat="50.20405" lon="1.69402">
        <ele>4.6</ele>
        <time>2020-06-18T16:29:19Z</time>
      </trkpt>
      <trkpt lat="50.20413" lon="1.694">
        <ele>4.5</ele>
        <time>2020-06-18T16:29:20Z</time>
      </trkpt>
      <trkpt lat="50.20418" lon="1.69397">
        <ele>4.5</ele>
        <time>2020-06-18T16:29:21Z</time>
      </trkpt>
      <trkpt lat="50.20425" lon="1.69395">
        <ele>4.5</ele>
        <time>2020-06-18T16:29:22Z</time>
      </trkpt>
      <trkpt lat="50.20431" lon="1.69393">
        <ele>4.5</ele>
        <time>2020-06-18T16:29:23Z</time>
      </trkpt>
      <trkpt lat="50.20438" lon="1.69391">
        <ele>4.4</ele>
        <time>2020-06-18T16:29:24Z</time>
      </trkpt>
      <trkpt lat="50.20443" lon="1.69388">
        <ele>4.4</ele>
        <time>2020-06-18T16:29:25Z</time>
      </trkpt>
      <trkpt lat="50.20449" lon="1.69386">
        <ele>4.4</ele>
        <time>2020-06-18T16:29:26Z</time>
      </trkpt>
      <trkpt lat="50.20455" lon="1.69384">
        <ele>4.4</ele>
        <time>2020-06-18T16:29:27Z</time>
      </trkpt>
      <trkpt lat="50.20462" lon="1.6938">
        <ele>4.3</ele>
        <time>2020-06-18T16:29:28Z</time>
      </trkpt>
      <trkpt lat="50.20469" lon="1.69375">
        <ele>4.3</ele>
        <time>2020-06-18T16:29:29Z</time>
      </trkpt>
      <trkpt lat="50.20475" lon="1.69369">
        <ele>4.3</ele>
        <time>2020-06-18T16:29:30Z</time>
      </trkpt>
      <trkpt lat="50.20481" lon="1.69365">
        <ele>4.2</ele>
        <time>2020-06-18T16:29:31Z</time>
      </trkpt>
      <trkpt lat="50.20486" lon="1.69361">
        <ele>4.2</ele>
        <time>2020-06-18T16:29:32Z</time>
      </trkpt>
      <trkpt lat="50.20492" lon="1.69356">
        <ele>4.2</ele>
        <time>2020-06-18T16:29:33Z</time>
      </trkpt>
      <trkpt lat="50.20497" lon="1.69351">
        <ele>4.2</ele>
        <time>2020-06-18T16:29:34Z</time>
      </trkpt>
      <trkpt lat="50.20502" lon="1.69345">
        <ele>4.2</ele>
        <time>2020-06-18T16:29:35Z</time>
      </trkpt>
      <trkpt lat="50.20507" lon="1.69339">
        <ele>4.2</ele>
        <time>2020-06-18T16:29:36Z</time>
      </trkpt>
      <trkpt lat="50.20512" lon="1.69333">
        <ele>4.2</ele>
        <time>2020-06-18T16:29:37Z</time>
      </trkpt>
      <trkpt lat="50.20517" lon="1.69326">
        <ele>4.2</ele>
        <time>2020-06-18T16:29:38Z</time>
      </trkpt>
      <trkpt lat="50.20523" lon="1.6932">
        <ele>4.2</ele>
        <time>2020-06-18T16:29:39Z</time>
      </trkpt>
      <trkpt lat="50.20527" lon="1.69315">
        <ele>4.2</ele>
        <time>2020-06-18T16:29:40Z</time>
      </trkpt>
      <trkpt lat="50.20533" lon="1.69309">
        <ele>4.2</ele>
        <time>2020-06-18T16:29:41Z</time>
      </trkpt>
      <trkpt lat="50.20538" lon="1.69303">
        <ele>4.2</ele>
        <time>2020-06-18T16:29:42Z</time>
      </trkpt>
      <trkpt lat="50.20542" lon="1.69298">
        <ele>4.2</ele>
        <time>2020-06-18T16:29:43Z</time>
      </trkpt>
      <trkpt lat="50.20548" lon="1.69292">
        <ele>4.2</ele>
        <time>2020-06-18T16:29:44Z</time>
      </trkpt>
      <trkpt lat="50.20554" lon="1.69286">
        <ele>4.2</ele>
        <time>2020-06-18T16:29:45Z</time>
      </trkpt>
      <trkpt lat="50.20559" lon="1.69281">
        <ele>4.1</ele>
        <time>2020-06-18T16:29:46Z</time>
      </trkpt>
      <trkpt lat="50.20565" lon="1.69278">
        <ele>4.1</ele>
        <time>2020-06-18T16:29:47Z</time>
      </trkpt>
      <trkpt lat="50.20571" lon="1.69274">
        <ele>4.2</ele>
        <time>2020-06-18T16:29:48Z</time>
      </trkpt>
      <trkpt lat="50.20576" lon="1.6927">
        <ele>4.2</ele>
        <time>2020-06-18T16:29:49Z</time>
      </trkpt>
      <trkpt lat="50.20582" lon="1.69265">
        <ele>4.2</ele>
        <time>2020-06-18T16:29:50Z</time>
      </trkpt>
      <trkpt lat="50.20588" lon="1.6926">
        <ele>4.3</ele>
        <time>2020-06-18T16:29:51Z</time>
      </trkpt>
      <trkpt lat="50.20595" lon="1.69255">
        <ele>4.5</ele>
        <time>2020-06-18T16:29:52Z</time>
      </trkpt>
      <trkpt lat="50.206" lon="1.69252">
        <ele>4.6</ele>
        <time>2020-06-18T16:29:53Z</time>
      </trkpt>
      <trkpt lat="50.20606" lon="1.69249">
        <ele>4.6</ele>
        <time>2020-06-18T16:29:54Z</time>
      </trkpt>
      <trkpt lat="50.20612" lon="1.69245">
        <ele>4.5</ele>
        <time>2020-06-18T16:29:55Z</time>
      </trkpt>
      <trkpt lat="50.20618" lon="1.69241">
        <ele>4.5</ele>
        <time>2020-06-18T16:29:56Z</time>
      </trkpt>
      <trkpt lat="50.20624" lon="1.69237">
        <ele>4.4</ele>
        <time>2020-06-18T16:29:57Z</time>
      </trkpt>
      <trkpt lat="50.20629" lon="1.69233">
        <ele>4.5</ele>
        <time>2020-06-18T16:29:58Z</time>
      </trkpt>
      <trkpt lat="50.20636" lon="1.69229">
        <ele>4.5</ele>
        <time>2020-06-18T16:29:59Z</time>
      </trkpt>
      <trkpt lat="50.20643" lon="1.69226">
        <ele>4.5</ele>
        <time>2020-06-18T16:30:00Z</time>
      </trkpt>
      <trkpt lat="50.20649" lon="1.69222">
        <ele>4.5</ele>
        <time>2020-06-18T16:30:01Z</time>
      </trkpt>
      <trkpt lat="50.20655" lon="1.69221">
        <ele>4.6</ele>
        <time>2020-06-18T16:30:02Z</time>
      </trkpt>
      <trkpt lat="50.20661" lon="1.69221">
        <ele>4.6</ele>
        <time>2020-06-18T16:30:03Z</time>
      </trkpt>
      <trkpt lat="50.20666" lon="1.69221">
        <ele>4.6</ele>
        <time>2020-06-18T16:30:04Z</time>
      </trkpt>
      <trkpt lat="50.20672" lon="1.6922">
        <ele>4.6</ele>
        <time>2020-06-18T16:30:05Z</time>
      </trkpt>
      <trkpt lat="50.20678" lon="1.69219">
        <ele>4.6</ele>
        <time>2020-06-18T16:30:06Z</time>
      </trkpt>
      <trkpt lat="50.20684" lon="1.69218">
        <ele>4.5</ele>
        <time>2020-06-18T16:30:07Z</time>
      </trkpt>
      <trkpt lat="50.2069" lon="1.69217">
        <ele>4.4</ele>
        <time>2020-06-18T16:30:08Z</time>
      </trkpt>
      <trkpt lat="50.20696" lon="1.69215">
        <ele>4.4</ele>
        <time>2020-06-18T16:30:09Z</time>
      </trkpt>
      <trkpt lat="50.20702" lon="1.69213">
        <ele>4.3</ele>
        <time>2020-06-18T16:30:10Z</time>
      </trkpt>
      <trkpt lat="50.20709" lon="1.69211">
        <ele>4.3</ele>
        <time>2020-06-18T16:30:11Z</time>
      </trkpt>
      <trkpt lat="50.20716" lon="1.69208">
        <ele>4.2</ele>
        <time>2020-06-18T16:30:12Z</time>
      </trkpt>
      <trkpt lat="50.20724" lon="1.69204">
        <ele>4.1</ele>
        <time>2020-06-18T16:30:13Z</time>
      </trkpt>
      <trkpt lat="50.2073" lon="1.69201">
        <ele>4.1</ele>
        <time>2020-06-18T16:30:14Z</time>
      </trkpt>
      <trkpt lat="50.20736" lon="1.69197">
        <ele>4.1</ele>
        <time>2020-06-18T16:30:15Z</time>
      </trkpt>
      <trkpt lat="50.20743" lon="1.69192">
        <ele>4.1</ele>
        <time>2020-06-18T16:30:16Z</time>
      </trkpt>
      <trkpt lat="50.20748" lon="1.69189">
        <ele>4.1</ele>
        <time>2020-06-18T16:30:17Z</time>
      </trkpt>
      <trkpt lat="50.20755" lon="1.69185">
        <ele>4.1</ele>
        <time>2020-06-18T16:30:18Z</time>
      </trkpt>
      <trkpt lat="50.20761" lon="1.69181">
        <ele>4.1</ele>
        <time>2020-06-18T16:30:19Z</time>
      </trkpt>
      <trkpt lat="50.20768" lon="1.69179">
        <ele>4.1</ele>
        <time>2020-06-18T16:30:20Z</time>
      </trkpt>
      <trkpt lat="50.20774" lon="1.69176">
        <ele>4.1</ele>
        <time>2020-06-18T16:30:21Z</time>
      </trkpt>
      <trkpt lat="50.20779" lon="1.69173">
        <ele>4.2</ele>
        <time>2020-06-18T16:30:22Z</time>
      </trkpt>
      <trkpt lat="50.20785" lon="1.69171">
        <ele>4.2</ele>
        <time>2020-06-18T16:30:23Z</time>
      </trkpt>
      <trkpt lat="50.20791" lon="1.69169">
        <ele>4.2</ele>
        <time>2020-06-18T16:30:24Z</time>
      </trkpt>
      <trkpt lat="50.20797" lon="1.69167">
        <ele>4.2</ele>
        <time>2020-06-18T16:30:25Z</time>
      </trkpt>
      <trkpt lat="50.20803" lon="1.69166">
        <ele>4.3</ele>
        <time>2020-06-18T16:30:26Z</time>
      </trkpt>
      <trkpt lat="50.20809" lon="1.69165">
        <ele>4.3</ele>
        <time>2020-06-18T16:30:27Z</time>
      </trkpt>
      <trkpt lat="50.20815" lon="1.69163">
        <ele>4.3</ele>
        <time>2020-06-18T16:30:28Z</time>
      </trkpt>
      <trkpt lat="50.20822" lon="1.69162">
        <ele>4.3</ele>
        <time>2020-06-18T16:30:29Z</time>
      </trkpt>
      <trkpt lat="50.20827" lon="1.69161">
        <ele>4.3</ele>
        <time>2020-06-18T16:30:30Z</time>
      </trkpt>
      <trkpt lat="50.20834" lon="1.69161">
        <ele>4.3</ele>
        <time>2020-06-18T16:30:31Z</time>
      </trkpt>
      <trkpt lat="50.2084" lon="1.6916">
        <ele>4.4</ele>
        <time>2020-06-18T16:30:32Z</time>
      </trkpt>
      <trkpt lat="50.20846" lon="1.6916">
        <ele>4.4</ele>
        <time>2020-06-18T16:30:33Z</time>
      </trkpt>
      <trkpt lat="50.20852" lon="1.69159">
        <ele>4.4</ele>
        <time>2020-06-18T16:30:34Z</time>
      </trkpt>
      <trkpt lat="50.20859" lon="1.69158">
        <ele>4.4</ele>
        <time>2020-06-18T16:30:35Z</time>
      </trkpt>
      <trkpt lat="50.20864" lon="1.69157">
        <ele>4.4</ele>
        <time>2020-06-18T16:30:36Z</time>
      </trkpt>
      <trkpt lat="50.2087" lon="1.69156">
        <ele>4.4</ele>
        <time>2020-06-18T16:30:37Z</time>
      </trkpt>
      <trkpt lat="50.20877" lon="1.69155">
        <ele>4.4</ele>
        <time>2020-06-18T16:30:38Z</time>
      </trkpt>
      <trkpt lat="50.20883" lon="1.69153">
        <ele>4.5</ele>
        <time>2020-06-18T16:30:39Z</time>
      </trkpt>
      <trkpt lat="50.20889" lon="1.69151">
        <ele>4.6</ele>
        <time>2020-06-18T16:30:40Z</time>
      </trkpt>
      <trkpt lat="50.20895" lon="1.69149">
        <ele>4.6</ele>
        <time>2020-06-18T16:30:41Z</time>
      </trkpt>
      <trkpt lat="50.20901" lon="1.69146">
        <ele>4.6</ele>
        <time>2020-06-18T16:30:42Z</time>
      </trkpt>
      <trkpt lat="50.20907" lon="1.69143">
        <ele>4.6</ele>
        <time>2020-06-18T16:30:43Z</time>
      </trkpt>
      <trkpt lat="50.20914" lon="1.69139">
        <ele>4.7</ele>
        <time>2020-06-18T16:30:44Z</time>
      </trkpt>
      <trkpt lat="50.2092" lon="1.69135">
        <ele>4.7</ele>
        <time>2020-06-18T16:30:45Z</time>
      </trkpt>
      <trkpt lat="50.20925" lon="1.69133">
        <ele>4.7</ele>
        <time>2020-06-18T16:30:46Z</time>
      </trkpt>
      <trkpt lat="50.20932" lon="1.69129">
        <ele>4.6</ele>
        <time>2020-06-18T16:30:47Z</time>
      </trkpt>
      <trkpt lat="50.20938" lon="1.69125">
        <ele>4.4</ele>
        <time>2020-06-18T16:30:48Z</time>
      </trkpt>
      <trkpt lat="50.20943" lon="1.69122">
        <ele>4.3</ele>
        <time>2020-06-18T16:30:49Z</time>
      </trkpt>
      <trkpt lat="50.20949" lon="1.69119">
        <ele>4.3</ele>
        <time>2020-06-18T16:30:50Z</time>
      </trkpt>
      <trkpt lat="50.20954" lon="1.69115">
        <ele>4.2</ele>
        <time>2020-06-18T16:30:51Z</time>
      </trkpt>
      <trkpt lat="50.2096" lon="1.69112">
        <ele>4.1</ele>
        <time>2020-06-18T16:30:52Z</time>
      </trkpt>
      <trkpt lat="50.20966" lon="1.69108">
        <ele>4.1</ele>
        <time>2020-06-18T16:30:53Z</time>
      </trkpt>
      <trkpt lat="50.20973" lon="1.69105">
        <ele>4.1</ele>
        <time>2020-06-18T16:30:54Z</time>
      </trkpt>
      <trkpt lat="50.2098" lon="1.69103">
        <ele>4.1</ele>
        <time>2020-06-18T16:30:55Z</time>
      </trkpt>
      <trkpt lat="50.20985" lon="1.69101">
        <ele>4.1</ele>
        <time>2020-06-18T16:30:56Z</time>
      </trkpt>
      <trkpt lat="50.20992" lon="1.69098">
        <ele>4</ele>
        <time>2020-06-18T16:30:57Z</time>
      </trkpt>
      <trkpt lat="50.20999" lon="1.69096">
        <ele>4</ele>
        <time>2020-06-18T16:30:58Z</time>
      </trkpt>
      <trkpt lat="50.21006" lon="1.69093">
        <ele>4.1</ele>
        <time>2020-06-18T16:30:59Z</time>
      </trkpt>
      <trkpt lat="50.21012" lon="1.6909">
        <ele>4.1</ele>
        <time>2020-06-18T16:31:00Z</time>
      </trkpt>
      <trkpt lat="50.21018" lon="1.69086">
        <ele>4.2</ele>
        <time>2020-06-18T16:31:01Z</time>
      </trkpt>
      <trkpt lat="50.21024" lon="1.69082">
        <ele>4.2</ele>
        <time>2020-06-18T16:31:02Z</time>
      </trkpt>
      <trkpt lat="50.2103" lon="1.69077">
        <ele>4.3</ele>
        <time>2020-06-18T16:31:03Z</time>
      </trkpt>
      <trkpt lat="50.21036" lon="1.69069">
        <ele>4.2</ele>
        <time>2020-06-18T16:31:04Z</time>
      </trkpt>
      <trkpt lat="50.2104" lon="1.69062">
        <ele>4.1</ele>
        <time>2020-06-18T16:31:05Z</time>
      </trkpt>
      <trkpt lat="50.21044" lon="1.69055">
        <ele>4.1</ele>
        <time>2020-06-18T16:31:06Z</time>
      </trkpt>
      <trkpt lat="50.21046" lon="1.69047">
        <ele>4.1</ele>
        <time>2020-06-18T16:31:07Z</time>
      </trkpt>
      <trkpt lat="50.21049" lon="1.69038">
        <ele>4.1</ele>
        <time>2020-06-18T16:31:08Z</time>
      </trkpt>
      <trkpt lat="50.21051" lon="1.69028">
        <ele>4.1</ele>
        <time>2020-06-18T16:31:09Z</time>
      </trkpt>
      <trkpt lat="50.21053" lon="1.6902">
        <ele>4.1</ele>
        <time>2020-06-18T16:31:10Z</time>
      </trkpt>
      <trkpt lat="50.21055" lon="1.69011">
        <ele>4.1</ele>
        <time>2020-06-18T16:31:11Z</time>
      </trkpt>
      <trkpt lat="50.21056" lon="1.69002">
        <ele>4.1</ele>
        <time>2020-06-18T16:31:12Z</time>
      </trkpt>
      <trkpt lat="50.21058" lon="1.68993">
        <ele>4.1</ele>
        <time>2020-06-18T16:31:13Z</time>
      </trkpt>
      <trkpt lat="50.2106" lon="1.68981">
        <ele>4</ele>
        <time>2020-06-18T16:31:14Z</time>
      </trkpt>
      <trkpt lat="50.21061" lon="1.68972">
        <ele>4</ele>
        <time>2020-06-18T16:31:15Z</time>
      </trkpt>
      <trkpt lat="50.21061" lon="1.68961">
        <ele>3.9</ele>
        <time>2020-06-18T16:31:16Z</time>
      </trkpt>
      <trkpt lat="50.21061" lon="1.6895">
        <ele>3.9</ele>
        <time>2020-06-18T16:31:17Z</time>
      </trkpt>
      <trkpt lat="50.21061" lon="1.68939">
        <ele>3.9</ele>
        <time>2020-06-18T16:31:18Z</time>
      </trkpt>
      <trkpt lat="50.21062" lon="1.68929">
        <ele>3.9</ele>
        <time>2020-06-18T16:31:19Z</time>
      </trkpt>
      <trkpt lat="50.21065" lon="1.68921">
        <ele>3.9</ele>
        <time>2020-06-18T16:31:20Z</time>
      </trkpt>
      <trkpt lat="50.21068" lon="1.68913">
        <ele>3.8</ele>
        <time>2020-06-18T16:31:21Z</time>
      </trkpt>
      <trkpt lat="50.21073" lon="1.68906">
        <ele>3.8</ele>
        <time>2020-06-18T16:31:22Z</time>
      </trkpt>
      <trkpt lat="50.21077" lon="1.68901">
        <ele>3.8</ele>
        <time>2020-06-18T16:31:23Z</time>
      </trkpt>
      <trkpt lat="50.21083" lon="1.68898">
        <ele>3.8</ele>
        <time>2020-06-18T16:31:24Z</time>
      </trkpt>
      <trkpt lat="50.2109" lon="1.68895">
        <ele>3.8</ele>
        <time>2020-06-18T16:31:25Z</time>
      </trkpt>
      <trkpt lat="50.21096" lon="1.68891">
        <ele>3.9</ele>
        <time>2020-06-18T16:31:26Z</time>
      </trkpt>
      <trkpt lat="50.21102" lon="1.68888">
        <ele>3.9</ele>
        <time>2020-06-18T16:31:27Z</time>
      </trkpt>
      <trkpt lat="50.21107" lon="1.68885">
        <ele>3.9</ele>
        <time>2020-06-18T16:31:28Z</time>
      </trkpt>
      <trkpt lat="50.21113" lon="1.6888">
        <ele>4</ele>
        <time>2020-06-18T16:31:29Z</time>
      </trkpt>
      <trkpt lat="50.21117" lon="1.68874">
        <ele>4</ele>
        <time>2020-06-18T16:31:30Z</time>
      </trkpt>
      <trkpt lat="50.21123" lon="1.68866">
        <ele>4</ele>
        <time>2020-06-18T16:31:31Z</time>
      </trkpt>
      <trkpt lat="50.21127" lon="1.68858">
        <ele>3.9</ele>
        <time>2020-06-18T16:31:32Z</time>
      </trkpt>
      <trkpt lat="50.2113" lon="1.68848">
        <ele>3.9</ele>
        <time>2020-06-18T16:31:33Z</time>
      </trkpt>
      <trkpt lat="50.21131" lon="1.68838">
        <ele>3.9</ele>
        <time>2020-06-18T16:31:34Z</time>
      </trkpt>
      <trkpt lat="50.21132" lon="1.68829">
        <ele>3.9</ele>
        <time>2020-06-18T16:31:35Z</time>
      </trkpt>
      <trkpt lat="50.21133" lon="1.6882">
        <ele>3.9</ele>
        <time>2020-06-18T16:31:36Z</time>
      </trkpt>
      <trkpt lat="50.21134" lon="1.68812">
        <ele>3.9</ele>
        <time>2020-06-18T16:31:37Z</time>
      </trkpt>
      <trkpt lat="50.21135" lon="1.68803">
        <ele>3.9</ele>
        <time>2020-06-18T16:31:38Z</time>
      </trkpt>
      <trkpt lat="50.21136" lon="1.68794">
        <ele>3.9</ele>
        <time>2020-06-18T16:31:39Z</time>
      </trkpt>
      <trkpt lat="50.21137" lon="1.68787">
        <ele>3.9</ele>
        <time>2020-06-18T16:31:40Z</time>
      </trkpt>
      <trkpt lat="50.21138" lon="1.68779">
        <ele>3.9</ele>
        <time>2020-06-18T16:31:41Z</time>
      </trkpt>
      <trkpt lat="50.2114" lon="1.68772">
        <ele>4</ele>
        <time>2020-06-18T16:31:42Z</time>
      </trkpt>
      <trkpt lat="50.21142" lon="1.68765">
        <ele>4</ele>
        <time>2020-06-18T16:31:43Z</time>
      </trkpt>
      <trkpt lat="50.21145" lon="1.68758">
        <ele>4</ele>
        <time>2020-06-18T16:31:44Z</time>
      </trkpt>
      <trkpt lat="50.21148" lon="1.68751">
        <ele>4.1</ele>
        <time>2020-06-18T16:31:45Z</time>
      </trkpt>
      <trkpt lat="50.2115" lon="1.68745">
        <ele>4.1</ele>
        <time>2020-06-18T16:31:46Z</time>
      </trkpt>
      <trkpt lat="50.21154" lon="1.6874">
        <ele>4.1</ele>
        <time>2020-06-18T16:31:47Z</time>
      </trkpt>
      <trkpt lat="50.21159" lon="1.68736">
        <ele>4.2</ele>
        <time>2020-06-18T16:31:48Z</time>
      </trkpt>
      <trkpt lat="50.21164" lon="1.68733">
        <ele>4.3</ele>
        <time>2020-06-18T16:31:49Z</time>
      </trkpt>
      <trkpt lat="50.21171" lon="1.68731">
        <ele>4.3</ele>
        <time>2020-06-18T16:31:50Z</time>
      </trkpt>
      <trkpt lat="50.21177" lon="1.68728">
        <ele>4.3</ele>
        <time>2020-06-18T16:31:51Z</time>
      </trkpt>
      <trkpt lat="50.21182" lon="1.68727">
        <ele>4.3</ele>
        <time>2020-06-18T16:31:52Z</time>
      </trkpt>
      <trkpt lat="50.2119" lon="1.68726">
        <ele>4.2</ele>
        <time>2020-06-18T16:31:53Z</time>
      </trkpt>
      <trkpt lat="50.21196" lon="1.68726">
        <ele>4.2</ele>
        <time>2020-06-18T16:31:54Z</time>
      </trkpt>
      <trkpt lat="50.21202" lon="1.68725">
        <ele>4.2</ele>
        <time>2020-06-18T16:31:55Z</time>
      </trkpt>
      <trkpt lat="50.21208" lon="1.68725">
        <ele>4.1</ele>
        <time>2020-06-18T16:31:56Z</time>
      </trkpt>
      <trkpt lat="50.21214" lon="1.68724">
        <ele>4.1</ele>
        <time>2020-06-18T16:31:57Z</time>
      </trkpt>
      <trkpt lat="50.2122" lon="1.68723">
        <ele>4.1</ele>
        <time>2020-06-18T16:31:58Z</time>
      </trkpt>
      <trkpt lat="50.21226" lon="1.68723">
        <ele>4</ele>
        <time>2020-06-18T16:31:59Z</time>
      </trkpt>
      <trkpt lat="50.21232" lon="1.68722">
        <ele>4</ele>
        <time>2020-06-18T16:32:00Z</time>
      </trkpt>
      <trkpt lat="50.21238" lon="1.68721">
        <ele>3.9</ele>
        <time>2020-06-18T16:32:01Z</time>
      </trkpt>
      <trkpt lat="50.21243" lon="1.68721">
        <ele>3.9</ele>
        <time>2020-06-18T16:32:02Z</time>
      </trkpt>
      <trkpt lat="50.21249" lon="1.6872">
        <ele>3.9</ele>
        <time>2020-06-18T16:32:03Z</time>
      </trkpt>
      <trkpt lat="50.21255" lon="1.6872">
        <ele>3.9</ele>
        <time>2020-06-18T16:32:04Z</time>
      </trkpt>
      <trkpt lat="50.21262" lon="1.6872">
        <ele>3.9</ele>
        <time>2020-06-18T16:32:05Z</time>
      </trkpt>
      <trkpt lat="50.21268" lon="1.68719">
        <ele>3.9</ele>
        <time>2020-06-18T16:32:06Z</time>
      </trkpt>
      <trkpt lat="50.21275" lon="1.68719">
        <ele>3.9</ele>
        <time>2020-06-18T16:32:07Z</time>
      </trkpt>
      <trkpt lat="50.2128" lon="1.68718">
        <ele>3.9</ele>
        <time>2020-06-18T16:32:08Z</time>
      </trkpt>
      <trkpt lat="50.21286" lon="1.68717">
        <ele>3.9</ele>
        <time>2020-06-18T16:32:09Z</time>
      </trkpt>
      <trkpt lat="50.21292" lon="1.68716">
        <ele>3.9</ele>
        <time>2020-06-18T16:32:10Z</time>
      </trkpt>
      <trkpt lat="50.21299" lon="1.68714">
        <ele>3.9</ele>
        <time>2020-06-18T16:32:11Z</time>
      </trkpt>
      <trkpt lat="50.21305" lon="1.68713">
        <ele>4</ele>
        <time>2020-06-18T16:32:12Z</time>
      </trkpt>
      <trkpt lat="50.21311" lon="1.68712">
        <ele>4</ele>
        <time>2020-06-18T16:32:13Z</time>
      </trkpt>
      <trkpt lat="50.21317" lon="1.68711">
        <ele>4.1</ele>
        <time>2020-06-18T16:32:14Z</time>
      </trkpt>
      <trkpt lat="50.21323" lon="1.68709">
        <ele>4.1</ele>
        <time>2020-06-18T16:32:15Z</time>
      </trkpt>
      <trkpt lat="50.21329" lon="1.68707">
        <ele>4.2</ele>
        <time>2020-06-18T16:32:16Z</time>
      </trkpt>
      <trkpt lat="50.21334" lon="1.68704">
        <ele>4.2</ele>
        <time>2020-06-18T16:32:17Z</time>
      </trkpt>
      <trkpt lat="50.21341" lon="1.687">
        <ele>4.2</ele>
        <time>2020-06-18T16:32:18Z</time>
      </trkpt>
      <trkpt lat="50.21348" lon="1.68696">
        <ele>4.2</ele>
        <time>2020-06-18T16:32:19Z</time>
      </trkpt>
      <trkpt lat="50.21354" lon="1.68691">
        <ele>4.2</ele>
        <time>2020-06-18T16:32:20Z</time>
      </trkpt>
      <trkpt lat="50.2136" lon="1.68687">
        <ele>4.2</ele>
        <time>2020-06-18T16:32:21Z</time>
      </trkpt>
      <trkpt lat="50.21366" lon="1.68683">
        <ele>4.2</ele>
        <time>2020-06-18T16:32:22Z</time>
      </trkpt>
      <trkpt lat="50.21372" lon="1.68678">
        <ele>4.2</ele>
        <time>2020-06-18T16:32:23Z</time>
      </trkpt>
      <trkpt lat="50.21377" lon="1.68673">
        <ele>4.1</ele>
        <time>2020-06-18T16:32:24Z</time>
      </trkpt>
      <trkpt lat="50.21383" lon="1.68668">
        <ele>4.1</ele>
        <time>2020-06-18T16:32:25Z</time>
      </trkpt>
      <trkpt lat="50.21389" lon="1.68662">
        <ele>4.1</ele>
        <time>2020-06-18T16:32:26Z</time>
      </trkpt>
      <trkpt lat="50.21394" lon="1.68657">
        <ele>4</ele>
        <time>2020-06-18T16:32:27Z</time>
      </trkpt>
      <trkpt lat="50.21399" lon="1.68653">
        <ele>4</ele>
        <time>2020-06-18T16:32:28Z</time>
      </trkpt>
      <trkpt lat="50.21404" lon="1.68649">
        <ele>4</ele>
        <time>2020-06-18T16:32:29Z</time>
      </trkpt>
      <trkpt lat="50.21409" lon="1.68645">
        <ele>4</ele>
        <time>2020-06-18T16:32:30Z</time>
      </trkpt>
      <trkpt lat="50.21415" lon="1.6864">
        <ele>4</ele>
        <time>2020-06-18T16:32:31Z</time>
      </trkpt>
      <trkpt lat="50.2142" lon="1.68636">
        <ele>4</ele>
        <time>2020-06-18T16:32:32Z</time>
      </trkpt>
      <trkpt lat="50.21425" lon="1.68632">
        <ele>4</ele>
        <time>2020-06-18T16:32:33Z</time>
      </trkpt>
      <trkpt lat="50.21431" lon="1.68626">
        <ele>3.9</ele>
        <time>2020-06-18T16:32:34Z</time>
      </trkpt>
      <trkpt lat="50.21437" lon="1.68621">
        <ele>3.9</ele>
        <time>2020-06-18T16:32:35Z</time>
      </trkpt>
      <trkpt lat="50.21442" lon="1.68617">
        <ele>3.9</ele>
        <time>2020-06-18T16:32:36Z</time>
      </trkpt>
      <trkpt lat="50.21447" lon="1.68613">
        <ele>3.9</ele>
        <time>2020-06-18T16:32:37Z</time>
      </trkpt>
      <trkpt lat="50.21452" lon="1.68608">
        <ele>3.9</ele>
        <time>2020-06-18T16:32:38Z</time>
      </trkpt>
      <trkpt lat="50.21458" lon="1.68604">
        <ele>3.9</ele>
        <time>2020-06-18T16:32:39Z</time>
      </trkpt>
      <trkpt lat="50.21463" lon="1.686">
        <ele>3.9</ele>
        <time>2020-06-18T16:32:40Z</time>
      </trkpt>
      <trkpt lat="50.21469" lon="1.68596">
        <ele>3.9</ele>
        <time>2020-06-18T16:32:41Z</time>
      </trkpt>
      <trkpt lat="50.21474" lon="1.68592">
        <ele>3.9</ele>
        <time>2020-06-18T16:32:42Z</time>
      </trkpt>
      <trkpt lat="50.2148" lon="1.68588">
        <ele>3.9</ele>
        <time>2020-06-18T16:32:43Z</time>
      </trkpt>
      <trkpt lat="50.21485" lon="1.68585">
        <ele>3.9</ele>
        <time>2020-06-18T16:32:44Z</time>
      </trkpt>
      <trkpt lat="50.21491" lon="1.6858">
        <ele>3.9</ele>
        <time>2020-06-18T16:32:45Z</time>
      </trkpt>
      <trkpt lat="50.21497" lon="1.68576">
        <ele>3.9</ele>
        <time>2020-06-18T16:32:46Z</time>
      </trkpt>
      <trkpt lat="50.21503" lon="1.68572">
        <ele>3.9</ele>
        <time>2020-06-18T16:32:47Z</time>
      </trkpt>
      <trkpt lat="50.21509" lon="1.68568">
        <ele>3.9</ele>
        <time>2020-06-18T16:32:48Z</time>
      </trkpt>
      <trkpt lat="50.21515" lon="1.68563">
        <ele>3.9</ele>
        <time>2020-06-18T16:32:49Z</time>
      </trkpt>
      <trkpt lat="50.2152" lon="1.68561">
        <ele>3.9</ele>
        <time>2020-06-18T16:32:50Z</time>
      </trkpt>
      <trkpt lat="50.21526" lon="1.68556">
        <ele>3.9</ele>
        <time>2020-06-18T16:32:51Z</time>
      </trkpt>
      <trkpt lat="50.2153" lon="1.68553">
        <ele>4</ele>
        <time>2020-06-18T16:32:52Z</time>
      </trkpt>
      <trkpt lat="50.21536" lon="1.68549">
        <ele>4</ele>
        <time>2020-06-18T16:32:53Z</time>
      </trkpt>
      <trkpt lat="50.21541" lon="1.68545">
        <ele>4.1</ele>
        <time>2020-06-18T16:32:54Z</time>
      </trkpt>
      <trkpt lat="50.21546" lon="1.6854">
        <ele>4.2</ele>
        <time>2020-06-18T16:32:55Z</time>
      </trkpt>
      <trkpt lat="50.21552" lon="1.68536">
        <ele>4.1</ele>
        <time>2020-06-18T16:32:56Z</time>
      </trkpt>
      <trkpt lat="50.21557" lon="1.68532">
        <ele>4</ele>
        <time>2020-06-18T16:32:57Z</time>
      </trkpt>
      <trkpt lat="50.21562" lon="1.68529">
        <ele>4</ele>
        <time>2020-06-18T16:32:58Z</time>
      </trkpt>
      <trkpt lat="50.21567" lon="1.68526">
        <ele>4</ele>
        <time>2020-06-18T16:32:59Z</time>
      </trkpt>
      <trkpt lat="50.21573" lon="1.68523">
        <ele>4</ele>
        <time>2020-06-18T16:33:00Z</time>
      </trkpt>
      <trkpt lat="50.21579" lon="1.68521">
        <ele>4</ele>
        <time>2020-06-18T16:33:01Z</time>
      </trkpt>
      <trkpt lat="50.21585" lon="1.68518">
        <ele>4</ele>
        <time>2020-06-18T16:33:02Z</time>
      </trkpt>
      <trkpt lat="50.21591" lon="1.68515">
        <ele>4</ele>
        <time>2020-06-18T16:33:03Z</time>
      </trkpt>
      <trkpt lat="50.21597" lon="1.68512">
        <ele>4</ele>
        <time>2020-06-18T16:33:04Z</time>
      </trkpt>
      <trkpt lat="50.21603" lon="1.68511">
        <ele>4</ele>
        <time>2020-06-18T16:33:05Z</time>
      </trkpt>
      <trkpt lat="50.21609" lon="1.6851">
        <ele>4</ele>
        <time>2020-06-18T16:33:06Z</time>
      </trkpt>
      <trkpt lat="50.21616" lon="1.68509">
        <ele>4</ele>
        <time>2020-06-18T16:33:07Z</time>
      </trkpt>
      <trkpt lat="50.21623" lon="1.68509">
        <ele>4</ele>
        <time>2020-06-18T16:33:08Z</time>
      </trkpt>
      <trkpt lat="50.21629" lon="1.68509">
        <ele>4.1</ele>
        <time>2020-06-18T16:33:09Z</time>
      </trkpt>
      <trkpt lat="50.21636" lon="1.68509">
        <ele>4.1</ele>
        <time>2020-06-18T16:33:10Z</time>
      </trkpt>
      <trkpt lat="50.21642" lon="1.68509">
        <ele>4.2</ele>
        <time>2020-06-18T16:33:11Z</time>
      </trkpt>
      <trkpt lat="50.21648" lon="1.68509">
        <ele>4.2</ele>
        <time>2020-06-18T16:33:12Z</time>
      </trkpt>
      <trkpt lat="50.21654" lon="1.68509">
        <ele>4.2</ele>
        <time>2020-06-18T16:33:13Z</time>
      </trkpt>
      <trkpt lat="50.21661" lon="1.68508">
        <ele>4.2</ele>
        <time>2020-06-18T16:33:14Z</time>
      </trkpt>
      <trkpt lat="50.21667" lon="1.68507">
        <ele>4.2</ele>
        <time>2020-06-18T16:33:15Z</time>
      </trkpt>
      <trkpt lat="50.21673" lon="1.68506">
        <ele>4.2</ele>
        <time>2020-06-18T16:33:16Z</time>
      </trkpt>
      <trkpt lat="50.2168" lon="1.68505">
        <ele>4.2</ele>
        <time>2020-06-18T16:33:17Z</time>
      </trkpt>
      <trkpt lat="50.21686" lon="1.68505">
        <ele>4.1</ele>
        <time>2020-06-18T16:33:18Z</time>
      </trkpt>
      <trkpt lat="50.21692" lon="1.68504">
        <ele>4.1</ele>
        <time>2020-06-18T16:33:19Z</time>
      </trkpt>
      <trkpt lat="50.21699" lon="1.68503">
        <ele>4.1</ele>
        <time>2020-06-18T16:33:20Z</time>
      </trkpt>
      <trkpt lat="50.21705" lon="1.68503">
        <ele>4.1</ele>
        <time>2020-06-18T16:33:21Z</time>
      </trkpt>
      <trkpt lat="50.21711" lon="1.68502">
        <ele>4.2</ele>
        <time>2020-06-18T16:33:22Z</time>
      </trkpt>
      <trkpt lat="50.21717" lon="1.68502">
        <ele>4.2</ele>
        <time>2020-06-18T16:33:23Z</time>
      </trkpt>
      <trkpt lat="50.21724" lon="1.68501">
        <ele>4.2</ele>
        <time>2020-06-18T16:33:24Z</time>
      </trkpt>
      <trkpt lat="50.2173" lon="1.68501">
        <ele>4.2</ele>
        <time>2020-06-18T16:33:25Z</time>
      </trkpt>
      <trkpt lat="50.21736" lon="1.685">
        <ele>4.1</ele>
        <time>2020-06-18T16:33:26Z</time>
      </trkpt>
      <trkpt lat="50.21742" lon="1.685">
        <ele>4.1</ele>
        <time>2020-06-18T16:33:27Z</time>
      </trkpt>
      <trkpt lat="50.21748" lon="1.685">
        <ele>4</ele>
        <time>2020-06-18T16:33:28Z</time>
      </trkpt>
      <trkpt lat="50.21755" lon="1.685">
        <ele>4</ele>
        <time>2020-06-18T16:33:29Z</time>
      </trkpt>
      <trkpt lat="50.2176" lon="1.685">
        <ele>4</ele>
        <time>2020-06-18T16:33:30Z</time>
      </trkpt>
      <trkpt lat="50.21767" lon="1.685">
        <ele>4</ele>
        <time>2020-06-18T16:33:31Z</time>
      </trkpt>
      <trkpt lat="50.21773" lon="1.68501">
        <ele>3.9</ele>
        <time>2020-06-18T16:33:32Z</time>
      </trkpt>
      <trkpt lat="50.21779" lon="1.68503">
        <ele>3.9</ele>
        <time>2020-06-18T16:33:33Z</time>
      </trkpt>
      <trkpt lat="50.21785" lon="1.68505">
        <ele>3.9</ele>
        <time>2020-06-18T16:33:34Z</time>
      </trkpt>
      <trkpt lat="50.21791" lon="1.68508">
        <ele>3.9</ele>
        <time>2020-06-18T16:33:35Z</time>
      </trkpt>
      <trkpt lat="50.21797" lon="1.68509">
        <ele>3.9</ele>
        <time>2020-06-18T16:33:36Z</time>
      </trkpt>
      <trkpt lat="50.21802" lon="1.68511">
        <ele>3.9</ele>
        <time>2020-06-18T16:33:37Z</time>
      </trkpt>
      <trkpt lat="50.21809" lon="1.68515">
        <ele>3.9</ele>
        <time>2020-06-18T16:33:38Z</time>
      </trkpt>
      <trkpt lat="50.21815" lon="1.68517">
        <ele>3.9</ele>
        <time>2020-06-18T16:33:39Z</time>
      </trkpt>
      <trkpt lat="50.21821" lon="1.68518">
        <ele>3.9</ele>
        <time>2020-06-18T16:33:40Z</time>
      </trkpt>
      <trkpt lat="50.21827" lon="1.68521">
        <ele>4</ele>
        <time>2020-06-18T16:33:41Z</time>
      </trkpt>
      <trkpt lat="50.21833" lon="1.68523">
        <ele>4</ele>
        <time>2020-06-18T16:33:42Z</time>
      </trkpt>
      <trkpt lat="50.21838" lon="1.68524">
        <ele>4</ele>
        <time>2020-06-18T16:33:43Z</time>
      </trkpt>
      <trkpt lat="50.21843" lon="1.68525">
        <ele>4.1</ele>
        <time>2020-06-18T16:33:44Z</time>
      </trkpt>
      <trkpt lat="50.21849" lon="1.68528">
        <ele>4.1</ele>
        <time>2020-06-18T16:33:45Z</time>
      </trkpt>
      <trkpt lat="50.21855" lon="1.6853">
        <ele>4.1</ele>
        <time>2020-06-18T16:33:46Z</time>
      </trkpt>
      <trkpt lat="50.21859" lon="1.68532">
        <ele>4.1</ele>
        <time>2020-06-18T16:33:47Z</time>
      </trkpt>
      <trkpt lat="50.21864" lon="1.68533">
        <ele>4.1</ele>
        <time>2020-06-18T16:33:48Z</time>
      </trkpt>
      <trkpt lat="50.21868" lon="1.68535">
        <ele>4.1</ele>
        <time>2020-06-18T16:33:49Z</time>
      </trkpt>
      <trkpt lat="50.21873" lon="1.68538">
        <ele>4.2</ele>
        <time>2020-06-18T16:33:50Z</time>
      </trkpt>
      <trkpt lat="50.21879" lon="1.6854">
        <ele>4.2</ele>
        <time>2020-06-18T16:33:51Z</time>
      </trkpt>
      <trkpt lat="50.21883" lon="1.68541">
        <ele>4.2</ele>
        <time>2020-06-18T16:33:52Z</time>
      </trkpt>
      <trkpt lat="50.21888" lon="1.68542">
        <ele>4.2</ele>
        <time>2020-06-18T16:33:53Z</time>
      </trkpt>
      <trkpt lat="50.21894" lon="1.68543">
        <ele>4.2</ele>
        <time>2020-06-18T16:33:54Z</time>
      </trkpt>
      <trkpt lat="50.21899" lon="1.68544">
        <ele>4.2</ele>
        <time>2020-06-18T16:33:55Z</time>
      </trkpt>
      <trkpt lat="50.21906" lon="1.68545">
        <ele>4.1</ele>
        <time>2020-06-18T16:33:56Z</time>
      </trkpt>
      <trkpt lat="50.21911" lon="1.68545">
        <ele>4.1</ele>
        <time>2020-06-18T16:33:57Z</time>
      </trkpt>
      <trkpt lat="50.21915" lon="1.68544">
        <ele>4.1</ele>
        <time>2020-06-18T16:33:58Z</time>
      </trkpt>
      <trkpt lat="50.21921" lon="1.68541">
        <ele>4.1</ele>
        <time>2020-06-18T16:33:59Z</time>
      </trkpt>
      <trkpt lat="50.21927" lon="1.68538">
        <ele>4.1</ele>
        <time>2020-06-18T16:34:00Z</time>
      </trkpt>
      <trkpt lat="50.21933" lon="1.68534">
        <ele>4.1</ele>
        <time>2020-06-18T16:34:01Z</time>
      </trkpt>
      <trkpt lat="50.21938" lon="1.6853">
        <ele>4.1</ele>
        <time>2020-06-18T16:34:02Z</time>
      </trkpt>
      <trkpt lat="50.21943" lon="1.68526">
        <ele>4.1</ele>
        <time>2020-06-18T16:34:03Z</time>
      </trkpt>
      <trkpt lat="50.2195" lon="1.68521">
        <ele>4.1</ele>
        <time>2020-06-18T16:34:04Z</time>
      </trkpt>
      <trkpt lat="50.21956" lon="1.68516">
        <ele>4.1</ele>
        <time>2020-06-18T16:34:05Z</time>
      </trkpt>
      <trkpt lat="50.21961" lon="1.68512">
        <ele>4.1</ele>
        <time>2020-06-18T16:34:06Z</time>
      </trkpt>
      <trkpt lat="50.21966" lon="1.68507">
        <ele>4.1</ele>
        <time>2020-06-18T16:34:07Z</time>
      </trkpt>
      <trkpt lat="50.21971" lon="1.68503">
        <ele>4.1</ele>
        <time>2020-06-18T16:34:08Z</time>
      </trkpt>
      <trkpt lat="50.21976" lon="1.68499">
        <ele>4.1</ele>
        <time>2020-06-18T16:34:09Z</time>
      </trkpt>
      <trkpt lat="50.21982" lon="1.68495">
        <ele>4.1</ele>
        <time>2020-06-18T16:34:10Z</time>
      </trkpt>
      <trkpt lat="50.21987" lon="1.68492">
        <ele>4.1</ele>
        <time>2020-06-18T16:34:11Z</time>
      </trkpt>
      <trkpt lat="50.21993" lon="1.68487">
        <ele>4.2</ele>
        <time>2020-06-18T16:34:12Z</time>
      </trkpt>
      <trkpt lat="50.21999" lon="1.68483">
        <ele>4.2</ele>
        <time>2020-06-18T16:34:13Z</time>
      </trkpt>
      <trkpt lat="50.22005" lon="1.68479">
        <ele>4.2</ele>
        <time>2020-06-18T16:34:14Z</time>
      </trkpt>
      <trkpt lat="50.22011" lon="1.68474">
        <ele>4.2</ele>
        <time>2020-06-18T16:34:15Z</time>
      </trkpt>
      <trkpt lat="50.22017" lon="1.68471">
        <ele>4.2</ele>
        <time>2020-06-18T16:34:16Z</time>
      </trkpt>
      <trkpt lat="50.22023" lon="1.68467">
        <ele>4.2</ele>
        <time>2020-06-18T16:34:17Z</time>
      </trkpt>
      <trkpt lat="50.22028" lon="1.68466">
        <ele>4.2</ele>
        <time>2020-06-18T16:34:18Z</time>
      </trkpt>
      <trkpt lat="50.22033" lon="1.68464">
        <ele>4.2</ele>
        <time>2020-06-18T16:34:19Z</time>
      </trkpt>
      <trkpt lat="50.22039" lon="1.68462">
        <ele>4.1</ele>
        <time>2020-06-18T16:34:20Z</time>
      </trkpt>
      <trkpt lat="50.22046" lon="1.6846">
        <ele>4.2</ele>
        <time>2020-06-18T16:34:21Z</time>
      </trkpt>
      <trkpt lat="50.22052" lon="1.68458">
        <ele>4.3</ele>
        <time>2020-06-18T16:34:22Z</time>
      </trkpt>
      <trkpt lat="50.22059" lon="1.68455">
        <ele>4.3</ele>
        <time>2020-06-18T16:34:23Z</time>
      </trkpt>
      <trkpt lat="50.22066" lon="1.68453">
        <ele>4.4</ele>
        <time>2020-06-18T16:34:24Z</time>
      </trkpt>
      <trkpt lat="50.22073" lon="1.68451">
        <ele>4.4</ele>
        <time>2020-06-18T16:34:25Z</time>
      </trkpt>
      <trkpt lat="50.22079" lon="1.68449">
        <ele>4.4</ele>
        <time>2020-06-18T16:34:26Z</time>
      </trkpt>
      <trkpt lat="50.22086" lon="1.68448">
        <ele>4.4</ele>
        <time>2020-06-18T16:34:27Z</time>
      </trkpt>
      <trkpt lat="50.22092" lon="1.68445">
        <ele>4.4</ele>
        <time>2020-06-18T16:34:28Z</time>
      </trkpt>
      <trkpt lat="50.22098" lon="1.68442">
        <ele>4.4</ele>
        <time>2020-06-18T16:34:29Z</time>
      </trkpt>
      <trkpt lat="50.22105" lon="1.68439">
        <ele>4.3</ele>
        <time>2020-06-18T16:34:30Z</time>
      </trkpt>
      <trkpt lat="50.22112" lon="1.68438">
        <ele>4.3</ele>
        <time>2020-06-18T16:34:31Z</time>
      </trkpt>
      <trkpt lat="50.22119" lon="1.68435">
        <ele>4.2</ele>
        <time>2020-06-18T16:34:32Z</time>
      </trkpt>
      <trkpt lat="50.22126" lon="1.68433">
        <ele>4.2</ele>
        <time>2020-06-18T16:34:33Z</time>
      </trkpt>
      <trkpt lat="50.22133" lon="1.6843">
        <ele>4.2</ele>
        <time>2020-06-18T16:34:34Z</time>
      </trkpt>
      <trkpt lat="50.22139" lon="1.68426">
        <ele>4.2</ele>
        <time>2020-06-18T16:34:35Z</time>
      </trkpt>
      <trkpt lat="50.22145" lon="1.68423">
        <ele>4.1</ele>
        <time>2020-06-18T16:34:36Z</time>
      </trkpt>
      <trkpt lat="50.2215" lon="1.68421">
        <ele>4.1</ele>
        <time>2020-06-18T16:34:37Z</time>
      </trkpt>
      <trkpt lat="50.22156" lon="1.68418">
        <ele>4.1</ele>
        <time>2020-06-18T16:34:38Z</time>
      </trkpt>
      <trkpt lat="50.22162" lon="1.68417">
        <ele>4.1</ele>
        <time>2020-06-18T16:34:39Z</time>
      </trkpt>
      <trkpt lat="50.22168" lon="1.68416">
        <ele>4.1</ele>
        <time>2020-06-18T16:34:40Z</time>
      </trkpt>
      <trkpt lat="50.22172" lon="1.68413">
        <ele>4.1</ele>
        <time>2020-06-18T16:34:41Z</time>
      </trkpt>
      <trkpt lat="50.22177" lon="1.68412">
        <ele>4.1</ele>
        <time>2020-06-18T16:34:42Z</time>
      </trkpt>
      <trkpt lat="50.2218" lon="1.6841">
        <ele>4.1</ele>
        <time>2020-06-18T16:34:43Z</time>
      </trkpt>
      <trkpt lat="50.22185" lon="1.68409">
        <ele>4.1</ele>
        <time>2020-06-18T16:34:44Z</time>
      </trkpt>
      <trkpt lat="50.22191" lon="1.68407">
        <ele>4.2</ele>
        <time>2020-06-18T16:34:45Z</time>
      </trkpt>
      <trkpt lat="50.22196" lon="1.68406">
        <ele>4.2</ele>
        <time>2020-06-18T16:34:46Z</time>
      </trkpt>
      <trkpt lat="50.22201" lon="1.68405">
        <ele>4.2</ele>
        <time>2020-06-18T16:34:47Z</time>
      </trkpt>
      <trkpt lat="50.22205" lon="1.68404">
        <ele>4.2</ele>
        <time>2020-06-18T16:34:48Z</time>
      </trkpt>
      <trkpt lat="50.2221" lon="1.68402">
        <ele>4.2</ele>
        <time>2020-06-18T16:34:49Z</time>
      </trkpt>
      <trkpt lat="50.22213" lon="1.68401">
        <ele>4.2</ele>
        <time>2020-06-18T16:34:50Z</time>
      </trkpt>
      <trkpt lat="50.22218" lon="1.68399">
        <ele>4.2</ele>
        <time>2020-06-18T16:34:51Z</time>
      </trkpt>
      <trkpt lat="50.22224" lon="1.68396">
        <ele>4.2</ele>
        <time>2020-06-18T16:34:52Z</time>
      </trkpt>
      <trkpt lat="50.2223" lon="1.68394">
        <ele>4.2</ele>
        <time>2020-06-18T16:34:53Z</time>
      </trkpt>
      <trkpt lat="50.22235" lon="1.68392">
        <ele>4.2</ele>
        <time>2020-06-18T16:34:54Z</time>
      </trkpt>
      <trkpt lat="50.22241" lon="1.68389">
        <ele>4.2</ele>
        <time>2020-06-18T16:34:55Z</time>
      </trkpt>
      <trkpt lat="50.22248" lon="1.68386">
        <ele>4.1</ele>
        <time>2020-06-18T16:34:56Z</time>
      </trkpt>
      <trkpt lat="50.22254" lon="1.68384">
        <ele>4.1</ele>
        <time>2020-06-18T16:34:57Z</time>
      </trkpt>
      <trkpt lat="50.2226" lon="1.68382">
        <ele>4.1</ele>
        <time>2020-06-18T16:34:58Z</time>
      </trkpt>
      <trkpt lat="50.22267" lon="1.68381">
        <ele>4.1</ele>
        <time>2020-06-18T16:34:59Z</time>
      </trkpt>
      <trkpt lat="50.22273" lon="1.6838">
        <ele>4.1</ele>
        <time>2020-06-18T16:35:00Z</time>
      </trkpt>
      <trkpt lat="50.2228" lon="1.68379">
        <ele>4.1</ele>
        <time>2020-06-18T16:35:01Z</time>
      </trkpt>
      <trkpt lat="50.22287" lon="1.68378">
        <ele>4</ele>
        <time>2020-06-18T16:35:02Z</time>
      </trkpt>
      <trkpt lat="50.22294" lon="1.68378">
        <ele>4</ele>
        <time>2020-06-18T16:35:03Z</time>
      </trkpt>
      <trkpt lat="50.22301" lon="1.68378">
        <ele>4</ele>
        <time>2020-06-18T16:35:04Z</time>
      </trkpt>
      <trkpt lat="50.22308" lon="1.68379">
        <ele>4</ele>
        <time>2020-06-18T16:35:05Z</time>
      </trkpt>
      <trkpt lat="50.22316" lon="1.68379">
        <ele>4</ele>
        <time>2020-06-18T16:35:06Z</time>
      </trkpt>
      <trkpt lat="50.22323" lon="1.68379">
        <ele>4</ele>
        <time>2020-06-18T16:35:07Z</time>
      </trkpt>
      <trkpt lat="50.2233" lon="1.6838">
        <ele>4.1</ele>
        <time>2020-06-18T16:35:08Z</time>
      </trkpt>
      <trkpt lat="50.22337" lon="1.68381">
        <ele>4.2</ele>
        <time>2020-06-18T16:35:09Z</time>
      </trkpt>
      <trkpt lat="50.22344" lon="1.68382">
        <ele>4.3</ele>
        <time>2020-06-18T16:35:10Z</time>
      </trkpt>
      <trkpt lat="50.22351" lon="1.68383">
        <ele>4.3</ele>
        <time>2020-06-18T16:35:11Z</time>
      </trkpt>
      <trkpt lat="50.22358" lon="1.68383">
        <ele>4.3</ele>
        <time>2020-06-18T16:35:12Z</time>
      </trkpt>
      <trkpt lat="50.22364" lon="1.68384">
        <ele>4.3</ele>
        <time>2020-06-18T16:35:13Z</time>
      </trkpt>
      <trkpt lat="50.22371" lon="1.68384">
        <ele>4.3</ele>
        <time>2020-06-18T16:35:14Z</time>
      </trkpt>
      <trkpt lat="50.22378" lon="1.68385">
        <ele>4.3</ele>
        <time>2020-06-18T16:35:15Z</time>
      </trkpt>
      <trkpt lat="50.22384" lon="1.68386">
        <ele>4.3</ele>
        <time>2020-06-18T16:35:16Z</time>
      </trkpt>
      <trkpt lat="50.22391" lon="1.68386">
        <ele>4.3</ele>
        <time>2020-06-18T16:35:17Z</time>
      </trkpt>
      <trkpt lat="50.22398" lon="1.68386">
        <ele>4.2</ele>
        <time>2020-06-18T16:35:18Z</time>
      </trkpt>
      <trkpt lat="50.22405" lon="1.68388">
        <ele>4.1</ele>
        <time>2020-06-18T16:35:19Z</time>
      </trkpt>
      <trkpt lat="50.22412" lon="1.68389">
        <ele>4</ele>
        <time>2020-06-18T16:35:20Z</time>
      </trkpt>
      <trkpt lat="50.22419" lon="1.68389">
        <ele>3.9</ele>
        <time>2020-06-18T16:35:21Z</time>
      </trkpt>
      <trkpt lat="50.22426" lon="1.68389">
        <ele>3.9</ele>
        <time>2020-06-18T16:35:22Z</time>
      </trkpt>
      <trkpt lat="50.22432" lon="1.68389">
        <ele>3.8</ele>
        <time>2020-06-18T16:35:23Z</time>
      </trkpt>
      <trkpt lat="50.22439" lon="1.6839">
        <ele>3.8</ele>
        <time>2020-06-18T16:35:24Z</time>
      </trkpt>
      <trkpt lat="50.22446" lon="1.6839">
        <ele>3.8</ele>
        <time>2020-06-18T16:35:25Z</time>
      </trkpt>
      <trkpt lat="50.22453" lon="1.6839">
        <ele>3.8</ele>
        <time>2020-06-18T16:35:26Z</time>
      </trkpt>
      <trkpt lat="50.2246" lon="1.68391">
        <ele>3.7</ele>
        <time>2020-06-18T16:35:27Z</time>
      </trkpt>
      <trkpt lat="50.22466" lon="1.68391">
        <ele>3.7</ele>
        <time>2020-06-18T16:35:28Z</time>
      </trkpt>
      <trkpt lat="50.22473" lon="1.68392">
        <ele>3.7</ele>
        <time>2020-06-18T16:35:29Z</time>
      </trkpt>
      <trkpt lat="50.2248" lon="1.68393">
        <ele>3.7</ele>
        <time>2020-06-18T16:35:30Z</time>
      </trkpt>
      <trkpt lat="50.22487" lon="1.68393">
        <ele>3.7</ele>
        <time>2020-06-18T16:35:31Z</time>
      </trkpt>
      <trkpt lat="50.22494" lon="1.68392">
        <ele>3.7</ele>
        <time>2020-06-18T16:35:32Z</time>
      </trkpt>
      <trkpt lat="50.22501" lon="1.68393">
        <ele>3.7</ele>
        <time>2020-06-18T16:35:33Z</time>
      </trkpt>
      <trkpt lat="50.22508" lon="1.68393">
        <ele>3.7</ele>
        <time>2020-06-18T16:35:34Z</time>
      </trkpt>
      <trkpt lat="50.22515" lon="1.68393">
        <ele>3.8</ele>
        <time>2020-06-18T16:35:35Z</time>
      </trkpt>
      <trkpt lat="50.22522" lon="1.68394">
        <ele>3.8</ele>
        <time>2020-06-18T16:35:36Z</time>
      </trkpt>
      <trkpt lat="50.22529" lon="1.68395">
        <ele>3.8</ele>
        <time>2020-06-18T16:35:37Z</time>
      </trkpt>
      <trkpt lat="50.22536" lon="1.68395">
        <ele>3.8</ele>
        <time>2020-06-18T16:35:38Z</time>
      </trkpt>
      <trkpt lat="50.22543" lon="1.68396">
        <ele>3.8</ele>
        <time>2020-06-18T16:35:39Z</time>
      </trkpt>
      <trkpt lat="50.2255" lon="1.68396">
        <ele>3.8</ele>
        <time>2020-06-18T16:35:40Z</time>
      </trkpt>
      <trkpt lat="50.22557" lon="1.68397">
        <ele>3.7</ele>
        <time>2020-06-18T16:35:41Z</time>
      </trkpt>
      <trkpt lat="50.22564" lon="1.68397">
        <ele>3.7</ele>
        <time>2020-06-18T16:35:42Z</time>
      </trkpt>
      <trkpt lat="50.22571" lon="1.68398">
        <ele>3.7</ele>
        <time>2020-06-18T16:35:43Z</time>
      </trkpt>
      <trkpt lat="50.22578" lon="1.68399">
        <ele>3.7</ele>
        <time>2020-06-18T16:35:44Z</time>
      </trkpt>
      <trkpt lat="50.22585" lon="1.68399">
        <ele>3.7</ele>
        <time>2020-06-18T16:35:45Z</time>
      </trkpt>
      <trkpt lat="50.22592" lon="1.68399">
        <ele>3.7</ele>
        <time>2020-06-18T16:35:46Z</time>
      </trkpt>
      <trkpt lat="50.22599" lon="1.68399">
        <ele>3.7</ele>
        <time>2020-06-18T16:35:47Z</time>
      </trkpt>
      <trkpt lat="50.22606" lon="1.68399">
        <ele>3.7</ele>
        <time>2020-06-18T16:35:48Z</time>
      </trkpt>
      <trkpt lat="50.22613" lon="1.68398">
        <ele>3.7</ele>
        <time>2020-06-18T16:35:49Z</time>
      </trkpt>
      <trkpt lat="50.22619" lon="1.68398">
        <ele>3.7</ele>
        <time>2020-06-18T16:35:50Z</time>
      </trkpt>
      <trkpt lat="50.22626" lon="1.68397">
        <ele>3.7</ele>
        <time>2020-06-18T16:35:51Z</time>
      </trkpt>
      <trkpt lat="50.22632" lon="1.68396">
        <ele>3.7</ele>
        <time>2020-06-18T16:35:52Z</time>
      </trkpt>
      <trkpt lat="50.22638" lon="1.68395">
        <ele>3.7</ele>
        <time>2020-06-18T16:35:53Z</time>
      </trkpt>
      <trkpt lat="50.22645" lon="1.68393">
        <ele>3.7</ele>
        <time>2020-06-18T16:35:54Z</time>
      </trkpt>
      <trkpt lat="50.22651" lon="1.6839">
        <ele>3.7</ele>
        <time>2020-06-18T16:35:55Z</time>
      </trkpt>
      <trkpt lat="50.22657" lon="1.68388">
        <ele>3.6</ele>
        <time>2020-06-18T16:35:56Z</time>
      </trkpt>
      <trkpt lat="50.22662" lon="1.68385">
        <ele>3.6</ele>
        <time>2020-06-18T16:35:57Z</time>
      </trkpt>
      <trkpt lat="50.22668" lon="1.68382">
        <ele>3.6</ele>
        <time>2020-06-18T16:35:58Z</time>
      </trkpt>
      <trkpt lat="50.22672" lon="1.68378">
        <ele>3.6</ele>
        <time>2020-06-18T16:35:59Z</time>
      </trkpt>
      <trkpt lat="50.22678" lon="1.68374">
        <ele>3.6</ele>
        <time>2020-06-18T16:36:00Z</time>
      </trkpt>
      <trkpt lat="50.22684" lon="1.6837">
        <ele>3.6</ele>
        <time>2020-06-18T16:36:01Z</time>
      </trkpt>
      <trkpt lat="50.22689" lon="1.68365">
        <ele>3.6</ele>
        <time>2020-06-18T16:36:02Z</time>
      </trkpt>
      <trkpt lat="50.22694" lon="1.68359">
        <ele>3.6</ele>
        <time>2020-06-18T16:36:03Z</time>
      </trkpt>
      <trkpt lat="50.22699" lon="1.68353">
        <ele>3.6</ele>
        <time>2020-06-18T16:36:04Z</time>
      </trkpt>
      <trkpt lat="50.22703" lon="1.68346">
        <ele>3.6</ele>
        <time>2020-06-18T16:36:05Z</time>
      </trkpt>
      <trkpt lat="50.22708" lon="1.68341">
        <ele>3.7</ele>
        <time>2020-06-18T16:36:06Z</time>
      </trkpt>
      <trkpt lat="50.22711" lon="1.68336">
        <ele>3.7</ele>
        <time>2020-06-18T16:36:07Z</time>
      </trkpt>
      <trkpt lat="50.22714" lon="1.6833">
        <ele>3.7</ele>
        <time>2020-06-18T16:36:08Z</time>
      </trkpt>
      <trkpt lat="50.22718" lon="1.68324">
        <ele>3.7</ele>
        <time>2020-06-18T16:36:09Z</time>
      </trkpt>
      <trkpt lat="50.22722" lon="1.68318">
        <ele>3.8</ele>
        <time>2020-06-18T16:36:10Z</time>
      </trkpt>
      <trkpt lat="50.22725" lon="1.68312">
        <ele>3.8</ele>
        <time>2020-06-18T16:36:11Z</time>
      </trkpt>
      <trkpt lat="50.22728" lon="1.68304">
        <ele>3.8</ele>
        <time>2020-06-18T16:36:12Z</time>
      </trkpt>
      <trkpt lat="50.2273" lon="1.68298">
        <ele>3.8</ele>
        <time>2020-06-18T16:36:13Z</time>
      </trkpt>
      <trkpt lat="50.22732" lon="1.68292">
        <ele>3.8</ele>
        <time>2020-06-18T16:36:14Z</time>
      </trkpt>
      <trkpt lat="50.22734" lon="1.68286">
        <ele>3.8</ele>
        <time>2020-06-18T16:36:15Z</time>
      </trkpt>
      <trkpt lat="50.22736" lon="1.68279">
        <ele>3.8</ele>
        <time>2020-06-18T16:36:16Z</time>
      </trkpt>
      <trkpt lat="50.22737" lon="1.68273">
        <ele>3.7</ele>
        <time>2020-06-18T16:36:17Z</time>
      </trkpt>
      <trkpt lat="50.22737" lon="1.68266">
        <ele>3.7</ele>
        <time>2020-06-18T16:36:18Z</time>
      </trkpt>
      <trkpt lat="50.22735" lon="1.68259">
        <ele>3.7</ele>
        <time>2020-06-18T16:36:19Z</time>
      </trkpt>
      <trkpt lat="50.22733" lon="1.68252">
        <ele>3.7</ele>
        <time>2020-06-18T16:36:20Z</time>
      </trkpt>
      <trkpt lat="50.22731" lon="1.68247">
        <ele>3.7</ele>
        <time>2020-06-18T16:36:21Z</time>
      </trkpt>
      <trkpt lat="50.22729" lon="1.68239">
        <ele>3.7</ele>
        <time>2020-06-18T16:36:22Z</time>
      </trkpt>
      <trkpt lat="50.22727" lon="1.68233">
        <ele>3.7</ele>
        <time>2020-06-18T16:36:23Z</time>
      </trkpt>
      <trkpt lat="50.22725" lon="1.68227">
        <ele>3.7</ele>
        <time>2020-06-18T16:36:24Z</time>
      </trkpt>
      <trkpt lat="50.22723" lon="1.68222">
        <ele>3.6</ele>
        <time>2020-06-18T16:36:25Z</time>
      </trkpt>
      <trkpt lat="50.22722" lon="1.68217">
        <ele>3.6</ele>
        <time>2020-06-18T16:36:26Z</time>
      </trkpt>
      <trkpt lat="50.22721" lon="1.68212">
        <ele>3.6</ele>
        <time>2020-06-18T16:36:27Z</time>
      </trkpt>
      <trkpt lat="50.22719" lon="1.68208">
        <ele>3.6</ele>
        <time>2020-06-18T16:36:28Z</time>
      </trkpt>
      <trkpt lat="50.22717" lon="1.68202">
        <ele>3.6</ele>
        <time>2020-06-18T16:36:29Z</time>
      </trkpt>
      <trkpt lat="50.22717" lon="1.68198">
        <ele>3.6</ele>
        <time>2020-06-18T16:36:30Z</time>
      </trkpt>
      <trkpt lat="50.22716" lon="1.68193">
        <ele>3.6</ele>
        <time>2020-06-18T16:36:31Z</time>
      </trkpt>
      <trkpt lat="50.22716" lon="1.68188">
        <ele>3.5</ele>
        <time>2020-06-18T16:36:32Z</time>
      </trkpt>
      <trkpt lat="50.22715" lon="1.68183">
        <ele>3.5</ele>
        <time>2020-06-18T16:36:33Z</time>
      </trkpt>
      <trkpt lat="50.22713" lon="1.68177">
        <ele>3.5</ele>
        <time>2020-06-18T16:36:34Z</time>
      </trkpt>
      <trkpt lat="50.22711" lon="1.68168">
        <ele>3.5</ele>
        <time>2020-06-18T16:36:35Z</time>
      </trkpt>
      <trkpt lat="50.22709" lon="1.68161">
        <ele>3.5</ele>
        <time>2020-06-18T16:36:36Z</time>
      </trkpt>
      <trkpt lat="50.22708" lon="1.68155">
        <ele>3.5</ele>
        <time>2020-06-18T16:36:37Z</time>
      </trkpt>
      <trkpt lat="50.22707" lon="1.68146">
        <ele>3.5</ele>
        <time>2020-06-18T16:36:38Z</time>
      </trkpt>
      <trkpt lat="50.22705" lon="1.68139">
        <ele>3.5</ele>
        <time>2020-06-18T16:36:39Z</time>
      </trkpt>
      <trkpt lat="50.22705" lon="1.68134">
        <ele>3.5</ele>
        <time>2020-06-18T16:36:40Z</time>
      </trkpt>
      <trkpt lat="50.22704" lon="1.68126">
        <ele>3.5</ele>
        <time>2020-06-18T16:36:41Z</time>
      </trkpt>
      <trkpt lat="50.22703" lon="1.68119">
        <ele>3.5</ele>
        <time>2020-06-18T16:36:42Z</time>
      </trkpt>
      <trkpt lat="50.22702" lon="1.68112">
        <ele>3.5</ele>
        <time>2020-06-18T16:36:43Z</time>
      </trkpt>
      <trkpt lat="50.22701" lon="1.68105">
        <ele>3.5</ele>
        <time>2020-06-18T16:36:44Z</time>
      </trkpt>
      <trkpt lat="50.22699" lon="1.68096">
        <ele>3.5</ele>
        <time>2020-06-18T16:36:45Z</time>
      </trkpt>
      <trkpt lat="50.22699" lon="1.68089">
        <ele>3.5</ele>
        <time>2020-06-18T16:36:46Z</time>
      </trkpt>
      <trkpt lat="50.22699" lon="1.68082">
        <ele>3.5</ele>
        <time>2020-06-18T16:36:47Z</time>
      </trkpt>
      <trkpt lat="50.22699" lon="1.68075">
        <ele>3.4</ele>
        <time>2020-06-18T16:36:48Z</time>
      </trkpt>
      <trkpt lat="50.227" lon="1.68067">
        <ele>3.3</ele>
        <time>2020-06-18T16:36:49Z</time>
      </trkpt>
      <trkpt lat="50.22703" lon="1.68059">
        <ele>3.3</ele>
        <time>2020-06-18T16:36:50Z</time>
      </trkpt>
      <trkpt lat="50.22707" lon="1.68055">
        <ele>3.2</ele>
        <time>2020-06-18T16:36:51Z</time>
      </trkpt>
      <trkpt lat="50.22713" lon="1.6805">
        <ele>3.2</ele>
        <time>2020-06-18T16:36:52Z</time>
      </trkpt>
      <trkpt lat="50.22718" lon="1.68046">
        <ele>3.2</ele>
        <time>2020-06-18T16:36:53Z</time>
      </trkpt>
      <trkpt lat="50.22723" lon="1.68042">
        <ele>3.2</ele>
        <time>2020-06-18T16:36:54Z</time>
      </trkpt>
      <trkpt lat="50.22729" lon="1.6804">
        <ele>3.2</ele>
        <time>2020-06-18T16:36:55Z</time>
      </trkpt>
      <trkpt lat="50.22735" lon="1.68037">
        <ele>3.2</ele>
        <time>2020-06-18T16:36:56Z</time>
      </trkpt>
      <trkpt lat="50.22741" lon="1.68034">
        <ele>3.2</ele>
        <time>2020-06-18T16:36:57Z</time>
      </trkpt>
      <trkpt lat="50.22746" lon="1.68031">
        <ele>3.2</ele>
        <time>2020-06-18T16:36:58Z</time>
      </trkpt>
      <trkpt lat="50.22752" lon="1.68028">
        <ele>3.2</ele>
        <time>2020-06-18T16:36:59Z</time>
      </trkpt>
      <trkpt lat="50.22758" lon="1.68023">
        <ele>3.2</ele>
        <time>2020-06-18T16:37:00Z</time>
      </trkpt>
      <trkpt lat="50.22764" lon="1.68019">
        <ele>3.2</ele>
        <time>2020-06-18T16:37:01Z</time>
      </trkpt>
      <trkpt lat="50.2277" lon="1.68016">
        <ele>3.2</ele>
        <time>2020-06-18T16:37:02Z</time>
      </trkpt>
      <trkpt lat="50.22776" lon="1.68013">
        <ele>3.2</ele>
        <time>2020-06-18T16:37:03Z</time>
      </trkpt>
      <trkpt lat="50.22783" lon="1.68008">
        <ele>3.2</ele>
        <time>2020-06-18T16:37:04Z</time>
      </trkpt>
      <trkpt lat="50.22789" lon="1.68004">
        <ele>3.2</ele>
        <time>2020-06-18T16:37:05Z</time>
      </trkpt>
      <trkpt lat="50.22796" lon="1.68">
        <ele>3.3</ele>
        <time>2020-06-18T16:37:06Z</time>
      </trkpt>
      <trkpt lat="50.22803" lon="1.67995">
        <ele>3.3</ele>
        <time>2020-06-18T16:37:07Z</time>
      </trkpt>
      <trkpt lat="50.2281" lon="1.6799">
        <ele>3.3</ele>
        <time>2020-06-18T16:37:08Z</time>
      </trkpt>
      <trkpt lat="50.22817" lon="1.67983">
        <ele>3.3</ele>
        <time>2020-06-18T16:37:09Z</time>
      </trkpt>
      <trkpt lat="50.22823" lon="1.67975">
        <ele>3.4</ele>
        <time>2020-06-18T16:37:10Z</time>
      </trkpt>
      <trkpt lat="50.22829" lon="1.67967">
        <ele>3.4</ele>
        <time>2020-06-18T16:37:11Z</time>
      </trkpt>
      <trkpt lat="50.22833" lon="1.67957">
        <ele>3.4</ele>
        <time>2020-06-18T16:37:12Z</time>
      </trkpt>
      <trkpt lat="50.22837" lon="1.67948">
        <ele>3.4</ele>
        <time>2020-06-18T16:37:13Z</time>
      </trkpt>
      <trkpt lat="50.2284" lon="1.67937">
        <ele>3.4</ele>
        <time>2020-06-18T16:37:14Z</time>
      </trkpt>
      <trkpt lat="50.22844" lon="1.67928">
        <ele>3.5</ele>
        <time>2020-06-18T16:37:15Z</time>
      </trkpt>
      <trkpt lat="50.22847" lon="1.67919">
        <ele>3.5</ele>
        <time>2020-06-18T16:37:16Z</time>
      </trkpt>
      <trkpt lat="50.22851" lon="1.67909">
        <ele>3.5</ele>
        <time>2020-06-18T16:37:17Z</time>
      </trkpt>
      <trkpt lat="50.22854" lon="1.679">
        <ele>3.5</ele>
        <time>2020-06-18T16:37:18Z</time>
      </trkpt>
      <trkpt lat="50.22858" lon="1.67891">
        <ele>3.5</ele>
        <time>2020-06-18T16:37:19Z</time>
      </trkpt>
      <trkpt lat="50.22862" lon="1.67882">
        <ele>3.5</ele>
        <time>2020-06-18T16:37:20Z</time>
      </trkpt>
      <trkpt lat="50.22866" lon="1.67873">
        <ele>3.5</ele>
        <time>2020-06-18T16:37:21Z</time>
      </trkpt>
      <trkpt lat="50.2287" lon="1.67865">
        <ele>3.5</ele>
        <time>2020-06-18T16:37:22Z</time>
      </trkpt>
      <trkpt lat="50.22874" lon="1.67856">
        <ele>3.5</ele>
        <time>2020-06-18T16:37:23Z</time>
      </trkpt>
      <trkpt lat="50.22879" lon="1.67847">
        <ele>3.6</ele>
        <time>2020-06-18T16:37:24Z</time>
      </trkpt>
      <trkpt lat="50.22883" lon="1.67839">
        <ele>3.6</ele>
        <time>2020-06-18T16:37:25Z</time>
      </trkpt>
      <trkpt lat="50.22888" lon="1.6783">
        <ele>3.6</ele>
        <time>2020-06-18T16:37:26Z</time>
      </trkpt>
      <trkpt lat="50.22892" lon="1.67822">
        <ele>3.6</ele>
        <time>2020-06-18T16:37:27Z</time>
      </trkpt>
      <trkpt lat="50.22896" lon="1.67814">
        <ele>3.7</ele>
        <time>2020-06-18T16:37:28Z</time>
      </trkpt>
      <trkpt lat="50.22901" lon="1.67806">
        <ele>3.7</ele>
        <time>2020-06-18T16:37:29Z</time>
      </trkpt>
      <trkpt lat="50.22905" lon="1.67797">
        <ele>3.7</ele>
        <time>2020-06-18T16:37:30Z</time>
      </trkpt>
      <trkpt lat="50.2291" lon="1.67789">
        <ele>3.7</ele>
        <time>2020-06-18T16:37:31Z</time>
      </trkpt>
      <trkpt lat="50.22915" lon="1.67781">
        <ele>3.7</ele>
        <time>2020-06-18T16:37:32Z</time>
      </trkpt>
      <trkpt lat="50.22919" lon="1.67772">
        <ele>3.6</ele>
        <time>2020-06-18T16:37:33Z</time>
      </trkpt>
      <trkpt lat="50.22923" lon="1.67762">
        <ele>3.6</ele>
        <time>2020-06-18T16:37:34Z</time>
      </trkpt>
      <trkpt lat="50.22927" lon="1.67753">
        <ele>3.6</ele>
        <time>2020-06-18T16:37:35Z</time>
      </trkpt>
      <trkpt lat="50.22931" lon="1.67744">
        <ele>3.6</ele>
        <time>2020-06-18T16:37:36Z</time>
      </trkpt>
      <trkpt lat="50.22934" lon="1.67734">
        <ele>3.6</ele>
        <time>2020-06-18T16:37:37Z</time>
      </trkpt>
      <trkpt lat="50.22938" lon="1.67725">
        <ele>3.5</ele>
        <time>2020-06-18T16:37:38Z</time>
      </trkpt>
      <trkpt lat="50.22942" lon="1.67715">
        <ele>3.5</ele>
        <time>2020-06-18T16:37:39Z</time>
      </trkpt>
      <trkpt lat="50.22946" lon="1.67706">
        <ele>3.5</ele>
        <time>2020-06-18T16:37:40Z</time>
      </trkpt>
      <trkpt lat="50.2295" lon="1.67697">
        <ele>3.5</ele>
        <time>2020-06-18T16:37:41Z</time>
      </trkpt>
      <trkpt lat="50.22953" lon="1.67687">
        <ele>3.5</ele>
        <time>2020-06-18T16:37:42Z</time>
      </trkpt>
      <trkpt lat="50.22956" lon="1.67677">
        <ele>3.7</ele>
        <time>2020-06-18T16:37:43Z</time>
      </trkpt>
      <trkpt lat="50.2296" lon="1.67668">
        <ele>3.9</ele>
        <time>2020-06-18T16:37:44Z</time>
      </trkpt>
      <trkpt lat="50.22964" lon="1.67658">
        <ele>4.1</ele>
        <time>2020-06-18T16:37:45Z</time>
      </trkpt>
      <trkpt lat="50.22968" lon="1.67649">
        <ele>4.1</ele>
        <time>2020-06-18T16:37:46Z</time>
      </trkpt>
      <trkpt lat="50.22972" lon="1.6764">
        <ele>4.1</ele>
        <time>2020-06-18T16:37:47Z</time>
      </trkpt>
      <trkpt lat="50.22976" lon="1.67631">
        <ele>4.1</ele>
        <time>2020-06-18T16:37:48Z</time>
      </trkpt>
      <trkpt lat="50.2298" lon="1.67622">
        <ele>4.1</ele>
        <time>2020-06-18T16:37:49Z</time>
      </trkpt>
      <trkpt lat="50.22984" lon="1.67613">
        <ele>4</ele>
        <time>2020-06-18T16:37:50Z</time>
      </trkpt>
      <trkpt lat="50.22988" lon="1.67605">
        <ele>4</ele>
        <time>2020-06-18T16:37:51Z</time>
      </trkpt>
      <trkpt lat="50.22992" lon="1.67596">
        <ele>4</ele>
        <time>2020-06-18T16:37:52Z</time>
      </trkpt>
      <trkpt lat="50.22997" lon="1.67588">
        <ele>4</ele>
        <time>2020-06-18T16:37:53Z</time>
      </trkpt>
      <trkpt lat="50.23002" lon="1.6758">
        <ele>4</ele>
        <time>2020-06-18T16:37:54Z</time>
      </trkpt>
      <trkpt lat="50.23006" lon="1.67572">
        <ele>4</ele>
        <time>2020-06-18T16:37:55Z</time>
      </trkpt>
      <trkpt lat="50.23011" lon="1.67563">
        <ele>4</ele>
        <time>2020-06-18T16:37:56Z</time>
      </trkpt>
      <trkpt lat="50.23016" lon="1.67554">
        <ele>4.1</ele>
        <time>2020-06-18T16:37:57Z</time>
      </trkpt>
      <trkpt lat="50.23021" lon="1.67546">
        <ele>4.1</ele>
        <time>2020-06-18T16:37:58Z</time>
      </trkpt>
      <trkpt lat="50.23025" lon="1.67537">
        <ele>4.1</ele>
        <time>2020-06-18T16:37:59Z</time>
      </trkpt>
      <trkpt lat="50.23028" lon="1.67528">
        <ele>4.1</ele>
        <time>2020-06-18T16:38:00Z</time>
      </trkpt>
      <trkpt lat="50.23032" lon="1.67518">
        <ele>4.1</ele>
        <time>2020-06-18T16:38:01Z</time>
      </trkpt>
      <trkpt lat="50.23034" lon="1.67508">
        <ele>4.2</ele>
        <time>2020-06-18T16:38:02Z</time>
      </trkpt>
      <trkpt lat="50.23036" lon="1.67497">
        <ele>4.1</ele>
        <time>2020-06-18T16:38:03Z</time>
      </trkpt>
      <trkpt lat="50.23038" lon="1.67486">
        <ele>4.1</ele>
        <time>2020-06-18T16:38:04Z</time>
      </trkpt>
      <trkpt lat="50.23039" lon="1.67475">
        <ele>4.1</ele>
        <time>2020-06-18T16:38:05Z</time>
      </trkpt>
      <trkpt lat="50.2304" lon="1.67464">
        <ele>4.1</ele>
        <time>2020-06-18T16:38:06Z</time>
      </trkpt>
      <trkpt lat="50.23041" lon="1.67452">
        <ele>4.1</ele>
        <time>2020-06-18T16:38:07Z</time>
      </trkpt>
      <trkpt lat="50.23043" lon="1.67442">
        <ele>4.1</ele>
        <time>2020-06-18T16:38:08Z</time>
      </trkpt>
      <trkpt lat="50.23045" lon="1.67431">
        <ele>4.1</ele>
        <time>2020-06-18T16:38:09Z</time>
      </trkpt>
      <trkpt lat="50.23046" lon="1.67421">
        <ele>4</ele>
        <time>2020-06-18T16:38:10Z</time>
      </trkpt>
      <trkpt lat="50.23048" lon="1.6741">
        <ele>4</ele>
        <time>2020-06-18T16:38:11Z</time>
      </trkpt>
      <trkpt lat="50.23049" lon="1.67399">
        <ele>3.9</ele>
        <time>2020-06-18T16:38:12Z</time>
      </trkpt>
      <trkpt lat="50.23051" lon="1.67389">
        <ele>3.9</ele>
        <time>2020-06-18T16:38:13Z</time>
      </trkpt>
      <trkpt lat="50.23054" lon="1.67379">
        <ele>3.9</ele>
        <time>2020-06-18T16:38:14Z</time>
      </trkpt>
      <trkpt lat="50.23057" lon="1.67369">
        <ele>3.9</ele>
        <time>2020-06-18T16:38:15Z</time>
      </trkpt>
      <trkpt lat="50.2306" lon="1.67359">
        <ele>3.9</ele>
        <time>2020-06-18T16:38:16Z</time>
      </trkpt>
      <trkpt lat="50.23064" lon="1.67348">
        <ele>3.8</ele>
        <time>2020-06-18T16:38:17Z</time>
      </trkpt>
      <trkpt lat="50.23067" lon="1.67339">
        <ele>3.8</ele>
        <time>2020-06-18T16:38:18Z</time>
      </trkpt>
      <trkpt lat="50.23072" lon="1.6733">
        <ele>3.8</ele>
        <time>2020-06-18T16:38:19Z</time>
      </trkpt>
      <trkpt lat="50.23076" lon="1.67322">
        <ele>3.8</ele>
        <time>2020-06-18T16:38:20Z</time>
      </trkpt>
      <trkpt lat="50.2308" lon="1.67313">
        <ele>3.8</ele>
        <time>2020-06-18T16:38:21Z</time>
      </trkpt>
      <trkpt lat="50.23085" lon="1.67305">
        <ele>3.7</ele>
        <time>2020-06-18T16:38:22Z</time>
      </trkpt>
      <trkpt lat="50.2309" lon="1.67297">
        <ele>3.7</ele>
        <time>2020-06-18T16:38:23Z</time>
      </trkpt>
      <trkpt lat="50.23095" lon="1.6729">
        <ele>3.7</ele>
        <time>2020-06-18T16:38:24Z</time>
      </trkpt>
      <trkpt lat="50.231" lon="1.67282">
        <ele>3.7</ele>
        <time>2020-06-18T16:38:25Z</time>
      </trkpt>
      <trkpt lat="50.23106" lon="1.67275">
        <ele>3.7</ele>
        <time>2020-06-18T16:38:26Z</time>
      </trkpt>
      <trkpt lat="50.23112" lon="1.67268">
        <ele>3.8</ele>
        <time>2020-06-18T16:38:27Z</time>
      </trkpt>
      <trkpt lat="50.23118" lon="1.67262">
        <ele>3.8</ele>
        <time>2020-06-18T16:38:28Z</time>
      </trkpt>
      <trkpt lat="50.23123" lon="1.67255">
        <ele>3.8</ele>
        <time>2020-06-18T16:38:29Z</time>
      </trkpt>
      <trkpt lat="50.23129" lon="1.67248">
        <ele>3.7</ele>
        <time>2020-06-18T16:38:30Z</time>
      </trkpt>
      <trkpt lat="50.23135" lon="1.67242">
        <ele>3.7</ele>
        <time>2020-06-18T16:38:31Z</time>
      </trkpt>
      <trkpt lat="50.23141" lon="1.67236">
        <ele>3.7</ele>
        <time>2020-06-18T16:38:32Z</time>
      </trkpt>
      <trkpt lat="50.23147" lon="1.67229">
        <ele>3.8</ele>
        <time>2020-06-18T16:38:33Z</time>
      </trkpt>
      <trkpt lat="50.23153" lon="1.67223">
        <ele>3.8</ele>
        <time>2020-06-18T16:38:34Z</time>
      </trkpt>
      <trkpt lat="50.23158" lon="1.67217">
        <ele>3.8</ele>
        <time>2020-06-18T16:38:35Z</time>
      </trkpt>
      <trkpt lat="50.23164" lon="1.6721">
        <ele>3.8</ele>
        <time>2020-06-18T16:38:36Z</time>
      </trkpt>
      <trkpt lat="50.23169" lon="1.67203">
        <ele>3.9</ele>
        <time>2020-06-18T16:38:37Z</time>
      </trkpt>
      <trkpt lat="50.23175" lon="1.67197">
        <ele>3.9</ele>
        <time>2020-06-18T16:38:38Z</time>
      </trkpt>
      <trkpt lat="50.23181" lon="1.67191">
        <ele>4</ele>
        <time>2020-06-18T16:38:39Z</time>
      </trkpt>
      <trkpt lat="50.23187" lon="1.67185">
        <ele>4</ele>
        <time>2020-06-18T16:38:40Z</time>
      </trkpt>
      <trkpt lat="50.23193" lon="1.67179">
        <ele>4</ele>
        <time>2020-06-18T16:38:41Z</time>
      </trkpt>
      <trkpt lat="50.232" lon="1.67174">
        <ele>3.9</ele>
        <time>2020-06-18T16:38:42Z</time>
      </trkpt>
      <trkpt lat="50.23206" lon="1.67169">
        <ele>3.9</ele>
        <time>2020-06-18T16:38:43Z</time>
      </trkpt>
      <trkpt lat="50.23212" lon="1.67164">
        <ele>3.9</ele>
        <time>2020-06-18T16:38:44Z</time>
      </trkpt>
      <trkpt lat="50.23218" lon="1.67158">
        <ele>3.9</ele>
        <time>2020-06-18T16:38:45Z</time>
      </trkpt>
      <trkpt lat="50.23224" lon="1.67153">
        <ele>3.9</ele>
        <time>2020-06-18T16:38:46Z</time>
      </trkpt>
      <trkpt lat="50.2323" lon="1.67147">
        <ele>3.9</ele>
        <time>2020-06-18T16:38:47Z</time>
      </trkpt>
      <trkpt lat="50.23236" lon="1.67142">
        <ele>3.9</ele>
        <time>2020-06-18T16:38:48Z</time>
      </trkpt>
      <trkpt lat="50.23242" lon="1.67137">
        <ele>3.8</ele>
        <time>2020-06-18T16:38:49Z</time>
      </trkpt>
      <trkpt lat="50.23249" lon="1.67132">
        <ele>3.8</ele>
        <time>2020-06-18T16:38:50Z</time>
      </trkpt>
      <trkpt lat="50.23255" lon="1.67127">
        <ele>3.8</ele>
        <time>2020-06-18T16:38:51Z</time>
      </trkpt>
      <trkpt lat="50.23261" lon="1.67122">
        <ele>3.8</ele>
        <time>2020-06-18T16:38:52Z</time>
      </trkpt>
      <trkpt lat="50.23268" lon="1.67116">
        <ele>3.8</ele>
        <time>2020-06-18T16:38:53Z</time>
      </trkpt>
      <trkpt lat="50.23274" lon="1.67111">
        <ele>3.8</ele>
        <time>2020-06-18T16:38:54Z</time>
      </trkpt>
      <trkpt lat="50.23281" lon="1.67106">
        <ele>3.8</ele>
        <time>2020-06-18T16:38:55Z</time>
      </trkpt>
      <trkpt lat="50.23287" lon="1.671">
        <ele>3.8</ele>
        <time>2020-06-18T16:38:56Z</time>
      </trkpt>
      <trkpt lat="50.23293" lon="1.67095">
        <ele>3.8</ele>
        <time>2020-06-18T16:38:57Z</time>
      </trkpt>
      <trkpt lat="50.233" lon="1.67089">
        <ele>3.8</ele>
        <time>2020-06-18T16:38:58Z</time>
      </trkpt>
      <trkpt lat="50.23306" lon="1.67083">
        <ele>3.8</ele>
        <time>2020-06-18T16:38:59Z</time>
      </trkpt>
      <trkpt lat="50.23313" lon="1.67077">
        <ele>3.8</ele>
        <time>2020-06-18T16:39:00Z</time>
      </trkpt>
      <trkpt lat="50.23319" lon="1.67071">
        <ele>3.8</ele>
        <time>2020-06-18T16:39:01Z</time>
      </trkpt>
      <trkpt lat="50.23325" lon="1.67066">
        <ele>3.8</ele>
        <time>2020-06-18T16:39:02Z</time>
      </trkpt>
      <trkpt lat="50.23332" lon="1.6706">
        <ele>3.7</ele>
        <time>2020-06-18T16:39:03Z</time>
      </trkpt>
      <trkpt lat="50.23338" lon="1.67054">
        <ele>3.7</ele>
        <time>2020-06-18T16:39:04Z</time>
      </trkpt>
      <trkpt lat="50.23344" lon="1.67049">
        <ele>3.7</ele>
        <time>2020-06-18T16:39:05Z</time>
      </trkpt>
      <trkpt lat="50.23351" lon="1.67043">
        <ele>3.7</ele>
        <time>2020-06-18T16:39:06Z</time>
      </trkpt>
      <trkpt lat="50.23357" lon="1.67038">
        <ele>3.7</ele>
        <time>2020-06-18T16:39:07Z</time>
      </trkpt>
      <trkpt lat="50.23363" lon="1.67032">
        <ele>3.6</ele>
        <time>2020-06-18T16:39:08Z</time>
      </trkpt>
      <trkpt lat="50.2337" lon="1.67027">
        <ele>3.6</ele>
        <time>2020-06-18T16:39:09Z</time>
      </trkpt>
      <trkpt lat="50.23376" lon="1.67021">
        <ele>3.6</ele>
        <time>2020-06-18T16:39:10Z</time>
      </trkpt>
      <trkpt lat="50.23382" lon="1.67016">
        <ele>3.6</ele>
        <time>2020-06-18T16:39:11Z</time>
      </trkpt>
      <trkpt lat="50.23389" lon="1.6701">
        <ele>3.6</ele>
        <time>2020-06-18T16:39:12Z</time>
      </trkpt>
      <trkpt lat="50.23395" lon="1.67004">
        <ele>3.5</ele>
        <time>2020-06-18T16:39:13Z</time>
      </trkpt>
      <trkpt lat="50.23401" lon="1.66999">
        <ele>3.5</ele>
        <time>2020-06-18T16:39:14Z</time>
      </trkpt>
      <trkpt lat="50.23407" lon="1.66994">
        <ele>3.5</ele>
        <time>2020-06-18T16:39:15Z</time>
      </trkpt>
      <trkpt lat="50.23413" lon="1.66988">
        <ele>3.5</ele>
        <time>2020-06-18T16:39:16Z</time>
      </trkpt>
      <trkpt lat="50.23419" lon="1.66983">
        <ele>3.5</ele>
        <time>2020-06-18T16:39:17Z</time>
      </trkpt>
      <trkpt lat="50.23425" lon="1.66977">
        <ele>3.5</ele>
        <time>2020-06-18T16:39:18Z</time>
      </trkpt>
      <trkpt lat="50.23431" lon="1.66971">
        <ele>3.4</ele>
        <time>2020-06-18T16:39:19Z</time>
      </trkpt>
      <trkpt lat="50.23437" lon="1.66965">
        <ele>3.5</ele>
        <time>2020-06-18T16:39:20Z</time>
      </trkpt>
      <trkpt lat="50.23443" lon="1.66958">
        <ele>3.5</ele>
        <time>2020-06-18T16:39:21Z</time>
      </trkpt>
      <trkpt lat="50.23448" lon="1.66951">
        <ele>3.5</ele>
        <time>2020-06-18T16:39:22Z</time>
      </trkpt>
      <trkpt lat="50.23453" lon="1.66943">
        <ele>3.6</ele>
        <time>2020-06-18T16:39:23Z</time>
      </trkpt>
      <trkpt lat="50.23458" lon="1.66936">
        <ele>3.7</ele>
        <time>2020-06-18T16:39:24Z</time>
      </trkpt>
      <trkpt lat="50.23463" lon="1.66929">
        <ele>3.6</ele>
        <time>2020-06-18T16:39:25Z</time>
      </trkpt>
      <trkpt lat="50.23469" lon="1.66923">
        <ele>3.6</ele>
        <time>2020-06-18T16:39:26Z</time>
      </trkpt>
      <trkpt lat="50.23476" lon="1.66919">
        <ele>3.6</ele>
        <time>2020-06-18T16:39:27Z</time>
      </trkpt>
      <trkpt lat="50.23482" lon="1.66916">
        <ele>3.6</ele>
        <time>2020-06-18T16:39:28Z</time>
      </trkpt>
      <trkpt lat="50.23489" lon="1.66915">
        <ele>3.6</ele>
        <time>2020-06-18T16:39:29Z</time>
      </trkpt>
      <trkpt lat="50.23496" lon="1.66913">
        <ele>3.6</ele>
        <time>2020-06-18T16:39:30Z</time>
      </trkpt>
      <trkpt lat="50.23502" lon="1.66915">
        <ele>3.6</ele>
        <time>2020-06-18T16:39:31Z</time>
      </trkpt>
      <trkpt lat="50.23509" lon="1.66918">
        <ele>3.6</ele>
        <time>2020-06-18T16:39:32Z</time>
      </trkpt>
      <trkpt lat="50.23515" lon="1.66921">
        <ele>3.6</ele>
        <time>2020-06-18T16:39:33Z</time>
      </trkpt>
      <trkpt lat="50.23521" lon="1.66925">
        <ele>3.6</ele>
        <time>2020-06-18T16:39:34Z</time>
      </trkpt>
      <trkpt lat="50.23528" lon="1.66929">
        <ele>3.6</ele>
        <time>2020-06-18T16:39:35Z</time>
      </trkpt>
      <trkpt lat="50.23534" lon="1.66933">
        <ele>3.6</ele>
        <time>2020-06-18T16:39:36Z</time>
      </trkpt>
      <trkpt lat="50.23541" lon="1.66937">
        <ele>3.6</ele>
        <time>2020-06-18T16:39:37Z</time>
      </trkpt>
      <trkpt lat="50.23547" lon="1.66941">
        <ele>3.6</ele>
        <time>2020-06-18T16:39:38Z</time>
      </trkpt>
      <trkpt lat="50.23554" lon="1.66944">
        <ele>3.6</ele>
        <time>2020-06-18T16:39:39Z</time>
      </trkpt>
      <trkpt lat="50.23561" lon="1.66947">
        <ele>3.6</ele>
        <time>2020-06-18T16:39:40Z</time>
      </trkpt>
      <trkpt lat="50.23567" lon="1.66951">
        <ele>3.6</ele>
        <time>2020-06-18T16:39:41Z</time>
      </trkpt>
      <trkpt lat="50.23574" lon="1.66954">
        <ele>3.6</ele>
        <time>2020-06-18T16:39:42Z</time>
      </trkpt>
      <trkpt lat="50.23581" lon="1.66958">
        <ele>3.6</ele>
        <time>2020-06-18T16:39:43Z</time>
      </trkpt>
      <trkpt lat="50.23588" lon="1.66962">
        <ele>3.6</ele>
        <time>2020-06-18T16:39:44Z</time>
      </trkpt>
      <trkpt lat="50.23595" lon="1.66965">
        <ele>3.6</ele>
        <time>2020-06-18T16:39:45Z</time>
      </trkpt>
      <trkpt lat="50.23602" lon="1.66968">
        <ele>3.6</ele>
        <time>2020-06-18T16:39:46Z</time>
      </trkpt>
      <trkpt lat="50.23609" lon="1.66973">
        <ele>3.6</ele>
        <time>2020-06-18T16:39:47Z</time>
      </trkpt>
      <trkpt lat="50.23616" lon="1.66976">
        <ele>3.6</ele>
        <time>2020-06-18T16:39:48Z</time>
      </trkpt>
      <trkpt lat="50.23623" lon="1.6698">
        <ele>3.6</ele>
        <time>2020-06-18T16:39:49Z</time>
      </trkpt>
      <trkpt lat="50.2363" lon="1.66984">
        <ele>3.6</ele>
        <time>2020-06-18T16:39:50Z</time>
      </trkpt>
      <trkpt lat="50.23636" lon="1.66987">
        <ele>3.6</ele>
        <time>2020-06-18T16:39:51Z</time>
      </trkpt>
      <trkpt lat="50.23643" lon="1.66991">
        <ele>3.6</ele>
        <time>2020-06-18T16:39:52Z</time>
      </trkpt>
      <trkpt lat="50.2365" lon="1.66995">
        <ele>3.6</ele>
        <time>2020-06-18T16:39:53Z</time>
      </trkpt>
      <trkpt lat="50.23656" lon="1.66999">
        <ele>3.6</ele>
        <time>2020-06-18T16:39:54Z</time>
      </trkpt>
      <trkpt lat="50.23663" lon="1.67001">
        <ele>3.6</ele>
        <time>2020-06-18T16:39:55Z</time>
      </trkpt>
      <trkpt lat="50.23669" lon="1.67004">
        <ele>3.6</ele>
        <time>2020-06-18T16:39:56Z</time>
      </trkpt>
      <trkpt lat="50.23675" lon="1.67007">
        <ele>3.6</ele>
        <time>2020-06-18T16:39:57Z</time>
      </trkpt>
      <trkpt lat="50.23681" lon="1.67009">
        <ele>3.7</ele>
        <time>2020-06-18T16:39:58Z</time>
      </trkpt>
      <trkpt lat="50.23686" lon="1.67012">
        <ele>3.7</ele>
        <time>2020-06-18T16:39:59Z</time>
      </trkpt>
      <trkpt lat="50.23692" lon="1.67014">
        <ele>3.7</ele>
        <time>2020-06-18T16:40:00Z</time>
      </trkpt>
      <trkpt lat="50.23698" lon="1.67016">
        <ele>3.7</ele>
        <time>2020-06-18T16:40:01Z</time>
      </trkpt>
      <trkpt lat="50.23703" lon="1.67018">
        <ele>3.7</ele>
        <time>2020-06-18T16:40:02Z</time>
      </trkpt>
      <trkpt lat="50.23708" lon="1.67018">
        <ele>3.7</ele>
        <time>2020-06-18T16:40:03Z</time>
      </trkpt>
      <trkpt lat="50.23714" lon="1.67016">
        <ele>3.7</ele>
        <time>2020-06-18T16:40:04Z</time>
      </trkpt>
      <trkpt lat="50.23719" lon="1.67013">
        <ele>3.7</ele>
        <time>2020-06-18T16:40:05Z</time>
      </trkpt>
      <trkpt lat="50.23724" lon="1.67007">
        <ele>3.7</ele>
        <time>2020-06-18T16:40:06Z</time>
      </trkpt>
      <trkpt lat="50.23728" lon="1.66998">
        <ele>3.7</ele>
        <time>2020-06-18T16:40:07Z</time>
      </trkpt>
      <trkpt lat="50.23731" lon="1.6699">
        <ele>3.7</ele>
        <time>2020-06-18T16:40:08Z</time>
      </trkpt>
      <trkpt lat="50.23734" lon="1.66981">
        <ele>3.7</ele>
        <time>2020-06-18T16:40:09Z</time>
      </trkpt>
      <trkpt lat="50.23736" lon="1.66972">
        <ele>3.7</ele>
        <time>2020-06-18T16:40:10Z</time>
      </trkpt>
      <trkpt lat="50.23738" lon="1.66962">
        <ele>3.7</ele>
        <time>2020-06-18T16:40:11Z</time>
      </trkpt>
      <trkpt lat="50.2374" lon="1.66952">
        <ele>3.7</ele>
        <time>2020-06-18T16:40:12Z</time>
      </trkpt>
      <trkpt lat="50.23742" lon="1.66943">
        <ele>3.7</ele>
        <time>2020-06-18T16:40:13Z</time>
      </trkpt>
      <trkpt lat="50.23744" lon="1.66933">
        <ele>3.7</ele>
        <time>2020-06-18T16:40:14Z</time>
      </trkpt>
      <trkpt lat="50.23747" lon="1.66923">
        <ele>3.7</ele>
        <time>2020-06-18T16:40:15Z</time>
      </trkpt>
      <trkpt lat="50.23749" lon="1.66913">
        <ele>3.7</ele>
        <time>2020-06-18T16:40:16Z</time>
      </trkpt>
      <trkpt lat="50.2375" lon="1.66903">
        <ele>3.7</ele>
        <time>2020-06-18T16:40:17Z</time>
      </trkpt>
      <trkpt lat="50.23752" lon="1.66893">
        <ele>3.8</ele>
        <time>2020-06-18T16:40:18Z</time>
      </trkpt>
      <trkpt lat="50.23754" lon="1.66883">
        <ele>3.8</ele>
        <time>2020-06-18T16:40:19Z</time>
      </trkpt>
      <trkpt lat="50.23755" lon="1.66872">
        <ele>3.9</ele>
        <time>2020-06-18T16:40:20Z</time>
      </trkpt>
      <trkpt lat="50.23757" lon="1.66862">
        <ele>3.9</ele>
        <time>2020-06-18T16:40:21Z</time>
      </trkpt>
      <trkpt lat="50.23758" lon="1.66852">
        <ele>4</ele>
        <time>2020-06-18T16:40:22Z</time>
      </trkpt>
      <trkpt lat="50.23759" lon="1.66841">
        <ele>4.1</ele>
        <time>2020-06-18T16:40:23Z</time>
      </trkpt>
      <trkpt lat="50.23759" lon="1.6683">
        <ele>4.1</ele>
        <time>2020-06-18T16:40:24Z</time>
      </trkpt>
      <trkpt lat="50.2376" lon="1.6682">
        <ele>4</ele>
        <time>2020-06-18T16:40:25Z</time>
      </trkpt>
      <trkpt lat="50.2376" lon="1.66809">
        <ele>3.9</ele>
        <time>2020-06-18T16:40:26Z</time>
      </trkpt>
      <trkpt lat="50.2376" lon="1.66799">
        <ele>3.8</ele>
        <time>2020-06-18T16:40:27Z</time>
      </trkpt>
      <trkpt lat="50.23759" lon="1.66788">
        <ele>3.8</ele>
        <time>2020-06-18T16:40:28Z</time>
      </trkpt>
      <trkpt lat="50.23758" lon="1.66778">
        <ele>3.8</ele>
        <time>2020-06-18T16:40:29Z</time>
      </trkpt>
      <trkpt lat="50.23756" lon="1.66768">
        <ele>3.7</ele>
        <time>2020-06-18T16:40:30Z</time>
      </trkpt>
      <trkpt lat="50.23753" lon="1.66757">
        <ele>3.7</ele>
        <time>2020-06-18T16:40:31Z</time>
      </trkpt>
      <trkpt lat="50.23752" lon="1.66747">
        <ele>3.7</ele>
        <time>2020-06-18T16:40:32Z</time>
      </trkpt>
      <trkpt lat="50.2375" lon="1.66736">
        <ele>3.6</ele>
        <time>2020-06-18T16:40:33Z</time>
      </trkpt>
      <trkpt lat="50.23748" lon="1.66725">
        <ele>3.6</ele>
        <time>2020-06-18T16:40:34Z</time>
      </trkpt>
      <trkpt lat="50.23746" lon="1.66714">
        <ele>3.6</ele>
        <time>2020-06-18T16:40:35Z</time>
      </trkpt>
      <trkpt lat="50.23744" lon="1.66704">
        <ele>3.5</ele>
        <time>2020-06-18T16:40:36Z</time>
      </trkpt>
      <trkpt lat="50.23743" lon="1.66693">
        <ele>3.5</ele>
        <time>2020-06-18T16:40:37Z</time>
      </trkpt>
      <trkpt lat="50.23741" lon="1.66682">
        <ele>3.5</ele>
        <time>2020-06-18T16:40:38Z</time>
      </trkpt>
      <trkpt lat="50.23739" lon="1.66671">
        <ele>3.5</ele>
        <time>2020-06-18T16:40:39Z</time>
      </trkpt>
      <trkpt lat="50.23739" lon="1.66661">
        <ele>3.6</ele>
        <time>2020-06-18T16:40:40Z</time>
      </trkpt>
      <trkpt lat="50.23738" lon="1.6665">
        <ele>3.6</ele>
        <time>2020-06-18T16:40:41Z</time>
      </trkpt>
      <trkpt lat="50.23738" lon="1.66639">
        <ele>3.6</ele>
        <time>2020-06-18T16:40:42Z</time>
      </trkpt>
      <trkpt lat="50.23739" lon="1.66629">
        <ele>3.7</ele>
        <time>2020-06-18T16:40:43Z</time>
      </trkpt>
      <trkpt lat="50.2374" lon="1.66618">
        <ele>3.7</ele>
        <time>2020-06-18T16:40:44Z</time>
      </trkpt>
      <trkpt lat="50.23741" lon="1.66608">
        <ele>3.7</ele>
        <time>2020-06-18T16:40:45Z</time>
      </trkpt>
      <trkpt lat="50.23744" lon="1.66598">
        <ele>3.7</ele>
        <time>2020-06-18T16:40:46Z</time>
      </trkpt>
      <trkpt lat="50.23748" lon="1.66589">
        <ele>3.7</ele>
        <time>2020-06-18T16:40:47Z</time>
      </trkpt>
      <trkpt lat="50.23751" lon="1.6658">
        <ele>3.7</ele>
        <time>2020-06-18T16:40:48Z</time>
      </trkpt>
      <trkpt lat="50.23754" lon="1.66571">
        <ele>3.8</ele>
        <time>2020-06-18T16:40:49Z</time>
      </trkpt>
      <trkpt lat="50.23758" lon="1.66563">
        <ele>3.8</ele>
        <time>2020-06-18T16:40:50Z</time>
      </trkpt>
      <trkpt lat="50.23762" lon="1.66554">
        <ele>3.8</ele>
        <time>2020-06-18T16:40:51Z</time>
      </trkpt>
      <trkpt lat="50.23765" lon="1.66545">
        <ele>3.8</ele>
        <time>2020-06-18T16:40:52Z</time>
      </trkpt>
      <trkpt lat="50.23769" lon="1.66536">
        <ele>3.8</ele>
        <time>2020-06-18T16:40:53Z</time>
      </trkpt>
      <trkpt lat="50.23772" lon="1.66528">
        <ele>3.8</ele>
        <time>2020-06-18T16:40:54Z</time>
      </trkpt>
      <trkpt lat="50.23776" lon="1.6652">
        <ele>3.8</ele>
        <time>2020-06-18T16:40:55Z</time>
      </trkpt>
      <trkpt lat="50.23779" lon="1.66511">
        <ele>3.8</ele>
        <time>2020-06-18T16:40:56Z</time>
      </trkpt>
      <trkpt lat="50.23782" lon="1.66503">
        <ele>3.8</ele>
        <time>2020-06-18T16:40:57Z</time>
      </trkpt>
      <trkpt lat="50.23785" lon="1.66495">
        <ele>3.9</ele>
        <time>2020-06-18T16:40:58Z</time>
      </trkpt>
      <trkpt lat="50.23788" lon="1.66488">
        <ele>3.9</ele>
        <time>2020-06-18T16:40:59Z</time>
      </trkpt>
      <trkpt lat="50.23791" lon="1.6648">
        <ele>3.9</ele>
        <time>2020-06-18T16:41:00Z</time>
      </trkpt>
      <trkpt lat="50.23794" lon="1.66473">
        <ele>3.9</ele>
        <time>2020-06-18T16:41:01Z</time>
      </trkpt>
      <trkpt lat="50.23797" lon="1.66465">
        <ele>3.9</ele>
        <time>2020-06-18T16:41:02Z</time>
      </trkpt>
      <trkpt lat="50.238" lon="1.66457">
        <ele>3.9</ele>
        <time>2020-06-18T16:41:03Z</time>
      </trkpt>
      <trkpt lat="50.23804" lon="1.6645">
        <ele>3.9</ele>
        <time>2020-06-18T16:41:04Z</time>
      </trkpt>
      <trkpt lat="50.23808" lon="1.66443">
        <ele>3.9</ele>
        <time>2020-06-18T16:41:05Z</time>
      </trkpt>
      <trkpt lat="50.2381" lon="1.66435">
        <ele>3.9</ele>
        <time>2020-06-18T16:41:06Z</time>
      </trkpt>
      <trkpt lat="50.23812" lon="1.66427">
        <ele>3.9</ele>
        <time>2020-06-18T16:41:07Z</time>
      </trkpt>
      <trkpt lat="50.23814" lon="1.66419">
        <ele>4</ele>
        <time>2020-06-18T16:41:08Z</time>
      </trkpt>
      <trkpt lat="50.23815" lon="1.6641">
        <ele>4</ele>
        <time>2020-06-18T16:41:09Z</time>
      </trkpt>
      <trkpt lat="50.23813" lon="1.66401">
        <ele>4</ele>
        <time>2020-06-18T16:41:10Z</time>
      </trkpt>
      <trkpt lat="50.23811" lon="1.66393">
        <ele>4</ele>
        <time>2020-06-18T16:41:11Z</time>
      </trkpt>
      <trkpt lat="50.23809" lon="1.66384">
        <ele>4</ele>
        <time>2020-06-18T16:41:12Z</time>
      </trkpt>
      <trkpt lat="50.23807" lon="1.66376">
        <ele>4</ele>
        <time>2020-06-18T16:41:13Z</time>
      </trkpt>
      <trkpt lat="50.23806" lon="1.66367">
        <ele>4</ele>
        <time>2020-06-18T16:41:14Z</time>
      </trkpt>
      <trkpt lat="50.23804" lon="1.66358">
        <ele>4</ele>
        <time>2020-06-18T16:41:15Z</time>
      </trkpt>
      <trkpt lat="50.23802" lon="1.66348">
        <ele>4</ele>
        <time>2020-06-18T16:41:16Z</time>
      </trkpt>
      <trkpt lat="50.238" lon="1.6634">
        <ele>4</ele>
        <time>2020-06-18T16:41:17Z</time>
      </trkpt>
      <trkpt lat="50.23799" lon="1.66331">
        <ele>4</ele>
        <time>2020-06-18T16:41:18Z</time>
      </trkpt>
      <trkpt lat="50.23798" lon="1.66322">
        <ele>4</ele>
        <time>2020-06-18T16:41:19Z</time>
      </trkpt>
      <trkpt lat="50.23796" lon="1.66313">
        <ele>4</ele>
        <time>2020-06-18T16:41:20Z</time>
      </trkpt>
      <trkpt lat="50.23794" lon="1.66305">
        <ele>4</ele>
        <time>2020-06-18T16:41:21Z</time>
      </trkpt>
      <trkpt lat="50.23791" lon="1.66297">
        <ele>4</ele>
        <time>2020-06-18T16:41:22Z</time>
      </trkpt>
      <trkpt lat="50.23788" lon="1.6629">
        <ele>4.1</ele>
        <time>2020-06-18T16:41:23Z</time>
      </trkpt>
      <trkpt lat="50.23786" lon="1.66282">
        <ele>4.1</ele>
        <time>2020-06-18T16:41:24Z</time>
      </trkpt>
      <trkpt lat="50.23785" lon="1.66274">
        <ele>4</ele>
        <time>2020-06-18T16:41:25Z</time>
      </trkpt>
      <trkpt lat="50.23783" lon="1.66266">
        <ele>4</ele>
        <time>2020-06-18T16:41:26Z</time>
      </trkpt>
      <trkpt lat="50.23781" lon="1.66258">
        <ele>4</ele>
        <time>2020-06-18T16:41:27Z</time>
      </trkpt>
      <trkpt lat="50.2378" lon="1.66251">
        <ele>4</ele>
        <time>2020-06-18T16:41:28Z</time>
      </trkpt>
      <trkpt lat="50.23781" lon="1.66243">
        <ele>4</ele>
        <time>2020-06-18T16:41:29Z</time>
      </trkpt>
      <trkpt lat="50.23782" lon="1.66237">
        <ele>3.9</ele>
        <time>2020-06-18T16:41:30Z</time>
      </trkpt>
      <trkpt lat="50.23782" lon="1.6623">
        <ele>4</ele>
        <time>2020-06-18T16:41:31Z</time>
      </trkpt>
      <trkpt lat="50.23782" lon="1.66224">
        <ele>4</ele>
        <time>2020-06-18T16:41:32Z</time>
      </trkpt>
      <trkpt lat="50.23782" lon="1.66218">
        <ele>4.1</ele>
        <time>2020-06-18T16:41:33Z</time>
      </trkpt>
      <trkpt lat="50.23781" lon="1.66212">
        <ele>4.1</ele>
        <time>2020-06-18T16:41:34Z</time>
      </trkpt>
      <trkpt lat="50.2378" lon="1.66206">
        <ele>4.2</ele>
        <time>2020-06-18T16:41:35Z</time>
      </trkpt>
      <trkpt lat="50.2378" lon="1.662">
        <ele>4.3</ele>
        <time>2020-06-18T16:41:36Z</time>
      </trkpt>
      <trkpt lat="50.23781" lon="1.66196">
        <ele>4.3</ele>
        <time>2020-06-18T16:41:37Z</time>
      </trkpt>
      <trkpt lat="50.23784" lon="1.66193">
        <ele>4.3</ele>
        <time>2020-06-18T16:41:38Z</time>
      </trkpt>
      <trkpt lat="50.23785" lon="1.66193">
        <ele>4.3</ele>
        <time>2020-06-18T16:41:39Z</time>
      </trkpt>
      <trkpt lat="50.23789" lon="1.66195">
        <ele>4.2</ele>
        <time>2020-06-18T16:41:40Z</time>
      </trkpt>
      <trkpt lat="50.23791" lon="1.66199">
        <ele>4.2</ele>
        <time>2020-06-18T16:41:41Z</time>
      </trkpt>
      <trkpt lat="50.23795" lon="1.66203">
        <ele>4.2</ele>
        <time>2020-06-18T16:41:42Z</time>
      </trkpt>
      <trkpt lat="50.23799" lon="1.66207">
        <ele>4.2</ele>
        <time>2020-06-18T16:41:43Z</time>
      </trkpt>
      <trkpt lat="50.23804" lon="1.66213">
        <ele>4.1</ele>
        <time>2020-06-18T16:41:44Z</time>
      </trkpt>
      <trkpt lat="50.23808" lon="1.66218">
        <ele>4.1</ele>
        <time>2020-06-18T16:41:45Z</time>
      </trkpt>
      <trkpt lat="50.23812" lon="1.66223">
        <ele>4.1</ele>
        <time>2020-06-18T16:41:46Z</time>
      </trkpt>
      <trkpt lat="50.23817" lon="1.66225">
        <ele>4.1</ele>
        <time>2020-06-18T16:41:47Z</time>
      </trkpt>
      <trkpt lat="50.23823" lon="1.66226">
        <ele>4</ele>
        <time>2020-06-18T16:41:48Z</time>
      </trkpt>
      <trkpt lat="50.23828" lon="1.66227">
        <ele>3.9</ele>
        <time>2020-06-18T16:41:49Z</time>
      </trkpt>
      <trkpt lat="50.23833" lon="1.66228">
        <ele>3.9</ele>
        <time>2020-06-18T16:41:50Z</time>
      </trkpt>
      <trkpt lat="50.23838" lon="1.66231">
        <ele>3.8</ele>
        <time>2020-06-18T16:41:51Z</time>
      </trkpt>
      <trkpt lat="50.23841" lon="1.66232">
        <ele>3.8</ele>
        <time>2020-06-18T16:41:52Z</time>
      </trkpt>
      <trkpt lat="50.23846" lon="1.66234">
        <ele>3.8</ele>
        <time>2020-06-18T16:41:53Z</time>
      </trkpt>
      <trkpt lat="50.2385" lon="1.66232">
        <ele>3.7</ele>
        <time>2020-06-18T16:41:54Z</time>
      </trkpt>
      <trkpt lat="50.23855" lon="1.6623">
        <ele>3.7</ele>
        <time>2020-06-18T16:41:55Z</time>
      </trkpt>
      <trkpt lat="50.23859" lon="1.66228">
        <ele>3.7</ele>
        <time>2020-06-18T16:41:56Z</time>
      </trkpt>
      <trkpt lat="50.23862" lon="1.66225">
        <ele>3.7</ele>
        <time>2020-06-18T16:41:57Z</time>
      </trkpt>
      <trkpt lat="50.23865" lon="1.66225">
        <ele>3.7</ele>
        <time>2020-06-18T16:41:58Z</time>
      </trkpt>
      <trkpt lat="50.23868" lon="1.66224">
        <ele>3.7</ele>
        <time>2020-06-18T16:41:59Z</time>
      </trkpt>
      <trkpt lat="50.2387" lon="1.66222">
        <ele>3.8</ele>
        <time>2020-06-18T16:42:00Z</time>
      </trkpt>
      <trkpt lat="50.23871" lon="1.66222">
        <ele>3.8</ele>
        <time>2020-06-18T16:42:01Z</time>
      </trkpt>
      <trkpt lat="50.23871" lon="1.66222">
        <ele>3.8</ele>
        <time>2020-06-18T16:42:02Z</time>
      </trkpt>
      <trkpt lat="50.23872" lon="1.66222">
        <ele>3.8</ele>
        <time>2020-06-18T16:42:03Z</time>
      </trkpt>
      <trkpt lat="50.23873" lon="1.66223">
        <ele>3.8</ele>
        <time>2020-06-18T16:42:04Z</time>
      </trkpt>
      <trkpt lat="50.23873" lon="1.66224">
        <ele>3.8</ele>
        <time>2020-06-18T16:42:05Z</time>
      </trkpt>
      <trkpt lat="50.23874" lon="1.66226">
        <ele>3.8</ele>
        <time>2020-06-18T16:42:06Z</time>
      </trkpt>
      <trkpt lat="50.23874" lon="1.66228">
        <ele>3.8</ele>
        <time>2020-06-18T16:42:07Z</time>
      </trkpt>
      <trkpt lat="50.23875" lon="1.66232">
        <ele>3.8</ele>
        <time>2020-06-18T16:42:08Z</time>
      </trkpt>
      <trkpt lat="50.23876" lon="1.66238">
        <ele>3.8</ele>
        <time>2020-06-18T16:42:09Z</time>
      </trkpt>
      <trkpt lat="50.23879" lon="1.66243">
        <ele>3.8</ele>
        <time>2020-06-18T16:42:10Z</time>
      </trkpt>
      <trkpt lat="50.23882" lon="1.66248">
        <ele>3.8</ele>
        <time>2020-06-18T16:42:11Z</time>
      </trkpt>
      <trkpt lat="50.23886" lon="1.66253">
        <ele>3.8</ele>
        <time>2020-06-18T16:42:12Z</time>
      </trkpt>
      <trkpt lat="50.23889" lon="1.66257">
        <ele>3.8</ele>
        <time>2020-06-18T16:42:13Z</time>
      </trkpt>
      <trkpt lat="50.23893" lon="1.66262">
        <ele>3.8</ele>
        <time>2020-06-18T16:42:14Z</time>
      </trkpt>
      <trkpt lat="50.23896" lon="1.66266">
        <ele>3.8</ele>
        <time>2020-06-18T16:42:15Z</time>
      </trkpt>
      <trkpt lat="50.23899" lon="1.6627">
        <ele>3.8</ele>
        <time>2020-06-18T16:42:16Z</time>
      </trkpt>
      <trkpt lat="50.23903" lon="1.66275">
        <ele>3.8</ele>
        <time>2020-06-18T16:42:17Z</time>
      </trkpt>
      <trkpt lat="50.23906" lon="1.66279">
        <ele>3.8</ele>
        <time>2020-06-18T16:42:18Z</time>
      </trkpt>
      <trkpt lat="50.23908" lon="1.66284">
        <ele>3.8</ele>
        <time>2020-06-18T16:42:19Z</time>
      </trkpt>
      <trkpt lat="50.23911" lon="1.66289">
        <ele>3.7</ele>
        <time>2020-06-18T16:42:20Z</time>
      </trkpt>
      <trkpt lat="50.23914" lon="1.66294">
        <ele>3.8</ele>
        <time>2020-06-18T16:42:21Z</time>
      </trkpt>
      <trkpt lat="50.23916" lon="1.66301">
        <ele>3.8</ele>
        <time>2020-06-18T16:42:22Z</time>
      </trkpt>
      <trkpt lat="50.23917" lon="1.66308">
        <ele>3.8</ele>
        <time>2020-06-18T16:42:23Z</time>
      </trkpt>
      <trkpt lat="50.23916" lon="1.66315">
        <ele>3.9</ele>
        <time>2020-06-18T16:42:24Z</time>
      </trkpt>
      <trkpt lat="50.23917" lon="1.66323">
        <ele>4</ele>
        <time>2020-06-18T16:42:25Z</time>
      </trkpt>
      <trkpt lat="50.23917" lon="1.66331">
        <ele>4</ele>
        <time>2020-06-18T16:42:26Z</time>
      </trkpt>
      <trkpt lat="50.23916" lon="1.66339">
        <ele>4.1</ele>
        <time>2020-06-18T16:42:27Z</time>
      </trkpt>
      <trkpt lat="50.23916" lon="1.66347">
        <ele>4.1</ele>
        <time>2020-06-18T16:42:28Z</time>
      </trkpt>
      <trkpt lat="50.23916" lon="1.66357">
        <ele>4.2</ele>
        <time>2020-06-18T16:42:29Z</time>
      </trkpt>
      <trkpt lat="50.23916" lon="1.66365">
        <ele>4.2</ele>
        <time>2020-06-18T16:42:30Z</time>
      </trkpt>
      <trkpt lat="50.23915" lon="1.66374">
        <ele>4.3</ele>
        <time>2020-06-18T16:42:31Z</time>
      </trkpt>
      <trkpt lat="50.23915" lon="1.66383">
        <ele>4.4</ele>
        <time>2020-06-18T16:42:32Z</time>
      </trkpt>
      <trkpt lat="50.23913" lon="1.6639">
        <ele>4.4</ele>
        <time>2020-06-18T16:42:33Z</time>
      </trkpt>
      <trkpt lat="50.23908" lon="1.66394">
        <ele>4.5</ele>
        <time>2020-06-18T16:42:34Z</time>
      </trkpt>
      <trkpt lat="50.23905" lon="1.66399">
        <ele>4.6</ele>
        <time>2020-06-18T16:42:35Z</time>
      </trkpt>
      <trkpt lat="50.23901" lon="1.66405">
        <ele>4.7</ele>
        <time>2020-06-18T16:42:36Z</time>
      </trkpt>
      <trkpt lat="50.23899" lon="1.66412">
        <ele>4.8</ele>
        <time>2020-06-18T16:42:37Z</time>
      </trkpt>
      <trkpt lat="50.23896" lon="1.66418">
        <ele>5</ele>
        <time>2020-06-18T16:42:38Z</time>
      </trkpt>
      <trkpt lat="50.23893" lon="1.66425">
        <ele>5</ele>
        <time>2020-06-18T16:42:39Z</time>
      </trkpt>
      <trkpt lat="50.23892" lon="1.66432">
        <ele>5.1</ele>
        <time>2020-06-18T16:42:40Z</time>
      </trkpt>
      <trkpt lat="50.23891" lon="1.66439">
        <ele>5.1</ele>
        <time>2020-06-18T16:42:41Z</time>
      </trkpt>
      <trkpt lat="50.23892" lon="1.66447">
        <ele>5.2</ele>
        <time>2020-06-18T16:42:42Z</time>
      </trkpt>
      <trkpt lat="50.23893" lon="1.66454">
        <ele>5.2</ele>
        <time>2020-06-18T16:42:43Z</time>
      </trkpt>
      <trkpt lat="50.23893" lon="1.66461">
        <ele>5.2</ele>
        <time>2020-06-18T16:42:44Z</time>
      </trkpt>
      <trkpt lat="50.23894" lon="1.66468">
        <ele>5.2</ele>
        <time>2020-06-18T16:42:45Z</time>
      </trkpt>
      <trkpt lat="50.23895" lon="1.66474">
        <ele>5.2</ele>
        <time>2020-06-18T16:42:46Z</time>
      </trkpt>
      <trkpt lat="50.23896" lon="1.6648">
        <ele>5.2</ele>
        <time>2020-06-18T16:42:47Z</time>
      </trkpt>
      <trkpt lat="50.23898" lon="1.66487">
        <ele>5.2</ele>
        <time>2020-06-18T16:42:48Z</time>
      </trkpt>
      <trkpt lat="50.239" lon="1.66493">
        <ele>5.2</ele>
        <time>2020-06-18T16:42:49Z</time>
      </trkpt>
      <trkpt lat="50.23901" lon="1.66499">
        <ele>5.2</ele>
        <time>2020-06-18T16:42:50Z</time>
      </trkpt>
      <trkpt lat="50.23902" lon="1.66505">
        <ele>5.3</ele>
        <time>2020-06-18T16:42:51Z</time>
      </trkpt>
      <trkpt lat="50.23904" lon="1.66509">
        <ele>5.3</ele>
        <time>2020-06-18T16:42:52Z</time>
      </trkpt>
      <trkpt lat="50.23904" lon="1.66514">
        <ele>5.3</ele>
        <time>2020-06-18T16:42:53Z</time>
      </trkpt>
      <trkpt lat="50.23906" lon="1.66519">
        <ele>5.4</ele>
        <time>2020-06-18T16:42:54Z</time>
      </trkpt>
      <trkpt lat="50.23907" lon="1.66523">
        <ele>5.4</ele>
        <time>2020-06-18T16:42:55Z</time>
      </trkpt>
      <trkpt lat="50.23908" lon="1.66528">
        <ele>5.4</ele>
        <time>2020-06-18T16:42:56Z</time>
      </trkpt>
      <trkpt lat="50.23909" lon="1.6653">
        <ele>5.4</ele>
        <time>2020-06-18T16:42:57Z</time>
      </trkpt>
      <trkpt lat="50.23913" lon="1.6653">
        <ele>5.4</ele>
        <time>2020-06-18T16:42:58Z</time>
      </trkpt>
      <trkpt lat="50.23916" lon="1.66532">
        <ele>5.5</ele>
        <time>2020-06-18T16:42:59Z</time>
      </trkpt>
      <trkpt lat="50.23919" lon="1.66534">
        <ele>5.5</ele>
        <time>2020-06-18T16:43:00Z</time>
      </trkpt>
      <trkpt lat="50.23923" lon="1.66536">
        <ele>5.5</ele>
        <time>2020-06-18T16:43:01Z</time>
      </trkpt>
      <trkpt lat="50.23927" lon="1.6654">
        <ele>5.6</ele>
        <time>2020-06-18T16:43:02Z</time>
      </trkpt>
      <trkpt lat="50.2393" lon="1.66545">
        <ele>5.6</ele>
        <time>2020-06-18T16:43:03Z</time>
      </trkpt>
      <trkpt lat="50.23933" lon="1.6655">
        <ele>5.6</ele>
        <time>2020-06-18T16:43:04Z</time>
      </trkpt>
      <trkpt lat="50.23936" lon="1.66556">
        <ele>5.7</ele>
        <time>2020-06-18T16:43:05Z</time>
      </trkpt>
      <trkpt lat="50.23939" lon="1.66561">
        <ele>5.7</ele>
        <time>2020-06-18T16:43:06Z</time>
      </trkpt>
      <trkpt lat="50.23942" lon="1.66566">
        <ele>5.7</ele>
        <time>2020-06-18T16:43:07Z</time>
      </trkpt>
      <trkpt lat="50.23945" lon="1.66572">
        <ele>5.7</ele>
        <time>2020-06-18T16:43:08Z</time>
      </trkpt>
      <trkpt lat="50.23948" lon="1.66576">
        <ele>5.7</ele>
        <time>2020-06-18T16:43:09Z</time>
      </trkpt>
      <trkpt lat="50.2395" lon="1.6658">
        <ele>5.7</ele>
        <time>2020-06-18T16:43:10Z</time>
      </trkpt>
      <trkpt lat="50.23953" lon="1.66581">
        <ele>5.7</ele>
        <time>2020-06-18T16:43:11Z</time>
      </trkpt>
      <trkpt lat="50.23953" lon="1.66579">
        <ele>5.7</ele>
        <time>2020-06-18T16:43:12Z</time>
      </trkpt>
      <trkpt lat="50.23952" lon="1.66577">
        <ele>5.7</ele>
        <time>2020-06-18T16:43:13Z</time>
      </trkpt>
      <trkpt lat="50.23952" lon="1.66574">
        <ele>5.6</ele>
        <time>2020-06-18T16:43:14Z</time>
      </trkpt>
      <trkpt lat="50.23951" lon="1.6657">
        <ele>5.6</ele>
        <time>2020-06-18T16:43:15Z</time>
      </trkpt>
      <trkpt lat="50.23949" lon="1.66565">
        <ele>5.6</ele>
        <time>2020-06-18T16:43:16Z</time>
      </trkpt>
      <trkpt lat="50.23948" lon="1.66563">
        <ele>5.6</ele>
        <time>2020-06-18T16:43:17Z</time>
      </trkpt>
      <trkpt lat="50.23946" lon="1.66559">
        <ele>5.5</ele>
        <time>2020-06-18T16:43:18Z</time>
      </trkpt>
      <trkpt lat="50.23944" lon="1.66554">
        <ele>5.5</ele>
        <time>2020-06-18T16:43:19Z</time>
      </trkpt>
      <trkpt lat="50.23943" lon="1.66552">
        <ele>5.5</ele>
        <time>2020-06-18T16:43:20Z</time>
      </trkpt>
      <trkpt lat="50.2394" lon="1.66549">
        <ele>5.5</ele>
        <time>2020-06-18T16:43:21Z</time>
      </trkpt>
      <trkpt lat="50.23939" lon="1.66548">
        <ele>5.4</ele>
        <time>2020-06-18T16:43:22Z</time>
      </trkpt>
      <trkpt lat="50.23937" lon="1.66547">
        <ele>5.5</ele>
        <time>2020-06-18T16:43:23Z</time>
      </trkpt>
      <trkpt lat="50.23936" lon="1.66546">
        <ele>5.5</ele>
        <time>2020-06-18T16:43:24Z</time>
      </trkpt>
      <trkpt lat="50.23934" lon="1.66545">
        <ele>5.6</ele>
        <time>2020-06-18T16:43:25Z</time>
      </trkpt>
      <trkpt lat="50.23933" lon="1.66544">
        <ele>5.6</ele>
        <time>2020-06-18T16:43:26Z</time>
      </trkpt>
      <trkpt lat="50.23931" lon="1.6654">
        <ele>5.6</ele>
        <time>2020-06-18T16:43:27Z</time>
      </trkpt>
      <trkpt lat="50.23931" lon="1.66539">
        <ele>5.7</ele>
        <time>2020-06-18T16:43:28Z</time>
      </trkpt>
      <trkpt lat="50.23928" lon="1.66536">
        <ele>5.7</ele>
        <time>2020-06-18T16:43:29Z</time>
      </trkpt>
      <trkpt lat="50.23927" lon="1.66535">
        <ele>5.7</ele>
        <time>2020-06-18T16:43:30Z</time>
      </trkpt>
      <trkpt lat="50.23925" lon="1.66532">
        <ele>5.7</ele>
        <time>2020-06-18T16:43:31Z</time>
      </trkpt>
      <trkpt lat="50.23924" lon="1.66531">
        <ele>5.7</ele>
        <time>2020-06-18T16:43:32Z</time>
      </trkpt>
      <trkpt lat="50.23923" lon="1.66531">
        <ele>5.7</ele>
        <time>2020-06-18T16:43:33Z</time>
      </trkpt>
      <trkpt lat="50.23921" lon="1.66531">
        <ele>5.7</ele>
        <time>2020-06-18T16:43:34Z</time>
      </trkpt>
      <trkpt lat="50.23917" lon="1.6653">
        <ele>5.6</ele>
        <time>2020-06-18T16:43:35Z</time>
      </trkpt>
      <trkpt lat="50.23916" lon="1.66529">
        <ele>5.6</ele>
        <time>2020-06-18T16:43:36Z</time>
      </trkpt>
      <trkpt lat="50.23913" lon="1.66526">
        <ele>5.5</ele>
        <time>2020-06-18T16:43:37Z</time>
      </trkpt>
      <trkpt lat="50.23912" lon="1.66524">
        <ele>5.5</ele>
        <time>2020-06-18T16:43:38Z</time>
      </trkpt>
      <trkpt lat="50.23909" lon="1.66518">
        <ele>5.4</ele>
        <time>2020-06-18T16:43:39Z</time>
      </trkpt>
      <trkpt lat="50.23905" lon="1.6651">
        <ele>5.3</ele>
        <time>2020-06-18T16:43:40Z</time>
      </trkpt>
      <trkpt lat="50.23904" lon="1.66501">
        <ele>5.3</ele>
        <time>2020-06-18T16:43:41Z</time>
      </trkpt>
      <trkpt lat="50.23902" lon="1.66493">
        <ele>5.2</ele>
        <time>2020-06-18T16:43:42Z</time>
      </trkpt>
      <trkpt lat="50.239" lon="1.66484">
        <ele>5.2</ele>
        <time>2020-06-18T16:43:43Z</time>
      </trkpt>
      <trkpt lat="50.23898" lon="1.66476">
        <ele>5.2</ele>
        <time>2020-06-18T16:43:44Z</time>
      </trkpt>
      <trkpt lat="50.23896" lon="1.66467">
        <ele>5.2</ele>
        <time>2020-06-18T16:43:45Z</time>
      </trkpt>
      <trkpt lat="50.23895" lon="1.66459">
        <ele>5.2</ele>
        <time>2020-06-18T16:43:46Z</time>
      </trkpt>
      <trkpt lat="50.23894" lon="1.66451">
        <ele>5.2</ele>
        <time>2020-06-18T16:43:47Z</time>
      </trkpt>
      <trkpt lat="50.23892" lon="1.66442">
        <ele>5.1</ele>
        <time>2020-06-18T16:43:48Z</time>
      </trkpt>
      <trkpt lat="50.23891" lon="1.66434">
        <ele>5.1</ele>
        <time>2020-06-18T16:43:49Z</time>
      </trkpt>
      <trkpt lat="50.23892" lon="1.66426">
        <ele>5.1</ele>
        <time>2020-06-18T16:43:50Z</time>
      </trkpt>
      <trkpt lat="50.23895" lon="1.66416">
        <ele>5</ele>
        <time>2020-06-18T16:43:51Z</time>
      </trkpt>
      <trkpt lat="50.23898" lon="1.66409">
        <ele>4.8</ele>
        <time>2020-06-18T16:43:52Z</time>
      </trkpt>
      <trkpt lat="50.23901" lon="1.66402">
        <ele>4.7</ele>
        <time>2020-06-18T16:43:53Z</time>
      </trkpt>
      <trkpt lat="50.23904" lon="1.66397">
        <ele>4.6</ele>
        <time>2020-06-18T16:43:54Z</time>
      </trkpt>
      <trkpt lat="50.23907" lon="1.66391">
        <ele>4.5</ele>
        <time>2020-06-18T16:43:55Z</time>
      </trkpt>
      <trkpt lat="50.2391" lon="1.66384">
        <ele>4.4</ele>
        <time>2020-06-18T16:43:56Z</time>
      </trkpt>
      <trkpt lat="50.23913" lon="1.66379">
        <ele>4.3</ele>
        <time>2020-06-18T16:43:57Z</time>
      </trkpt>
      <trkpt lat="50.23915" lon="1.66372">
        <ele>4.3</ele>
        <time>2020-06-18T16:43:58Z</time>
      </trkpt>
      <trkpt lat="50.23917" lon="1.66365">
        <ele>4.2</ele>
        <time>2020-06-18T16:43:59Z</time>
      </trkpt>
      <trkpt lat="50.23917" lon="1.66356">
        <ele>4.2</ele>
        <time>2020-06-18T16:44:00Z</time>
      </trkpt>
      <trkpt lat="50.23916" lon="1.66349">
        <ele>4.1</ele>
        <time>2020-06-18T16:44:01Z</time>
      </trkpt>
      <trkpt lat="50.23916" lon="1.66341">
        <ele>4.1</ele>
        <time>2020-06-18T16:44:02Z</time>
      </trkpt>
      <trkpt lat="50.23915" lon="1.66332">
        <ele>4</ele>
        <time>2020-06-18T16:44:03Z</time>
      </trkpt>
      <trkpt lat="50.23914" lon="1.66325">
        <ele>4</ele>
        <time>2020-06-18T16:44:04Z</time>
      </trkpt>
      <trkpt lat="50.23913" lon="1.66318">
        <ele>3.9</ele>
        <time>2020-06-18T16:44:05Z</time>
      </trkpt>
      <trkpt lat="50.23913" lon="1.66313">
        <ele>3.9</ele>
        <time>2020-06-18T16:44:06Z</time>
      </trkpt>
      <trkpt lat="50.23912" lon="1.66307">
        <ele>3.8</ele>
        <time>2020-06-18T16:44:07Z</time>
      </trkpt>
      <trkpt lat="50.2391" lon="1.663">
        <ele>3.8</ele>
        <time>2020-06-18T16:44:08Z</time>
      </trkpt>
      <trkpt lat="50.23908" lon="1.66293">
        <ele>3.7</ele>
        <time>2020-06-18T16:44:09Z</time>
      </trkpt>
      <trkpt lat="50.23904" lon="1.66287">
        <ele>3.8</ele>
        <time>2020-06-18T16:44:10Z</time>
      </trkpt>
      <trkpt lat="50.239" lon="1.66281">
        <ele>3.8</ele>
        <time>2020-06-18T16:44:11Z</time>
      </trkpt>
      <trkpt lat="50.23897" lon="1.66276">
        <ele>3.8</ele>
        <time>2020-06-18T16:44:12Z</time>
      </trkpt>
      <trkpt lat="50.23894" lon="1.66271">
        <ele>3.8</ele>
        <time>2020-06-18T16:44:13Z</time>
      </trkpt>
      <trkpt lat="50.23891" lon="1.66266">
        <ele>3.8</ele>
        <time>2020-06-18T16:44:14Z</time>
      </trkpt>
      <trkpt lat="50.23888" lon="1.66262">
        <ele>3.8</ele>
        <time>2020-06-18T16:44:15Z</time>
      </trkpt>
      <trkpt lat="50.23883" lon="1.66258">
        <ele>3.8</ele>
        <time>2020-06-18T16:44:16Z</time>
      </trkpt>
      <trkpt lat="50.23879" lon="1.66253">
        <ele>3.8</ele>
        <time>2020-06-18T16:44:17Z</time>
      </trkpt>
      <trkpt lat="50.23876" lon="1.66248">
        <ele>3.8</ele>
        <time>2020-06-18T16:44:18Z</time>
      </trkpt>
      <trkpt lat="50.23872" lon="1.66243">
        <ele>3.8</ele>
        <time>2020-06-18T16:44:19Z</time>
      </trkpt>
      <trkpt lat="50.23867" lon="1.66238">
        <ele>3.8</ele>
        <time>2020-06-18T16:44:20Z</time>
      </trkpt>
      <trkpt lat="50.23863" lon="1.66234">
        <ele>3.7</ele>
        <time>2020-06-18T16:44:21Z</time>
      </trkpt>
      <trkpt lat="50.2386" lon="1.66231">
        <ele>3.7</ele>
        <time>2020-06-18T16:44:22Z</time>
      </trkpt>
      <trkpt lat="50.23856" lon="1.66228">
        <ele>3.7</ele>
        <time>2020-06-18T16:44:23Z</time>
      </trkpt>
      <trkpt lat="50.23851" lon="1.66226">
        <ele>3.7</ele>
        <time>2020-06-18T16:44:24Z</time>
      </trkpt>
      <trkpt lat="50.23845" lon="1.66225">
        <ele>3.8</ele>
        <time>2020-06-18T16:44:25Z</time>
      </trkpt>
      <trkpt lat="50.23839" lon="1.66223">
        <ele>3.8</ele>
        <time>2020-06-18T16:44:26Z</time>
      </trkpt>
      <trkpt lat="50.23833" lon="1.66222">
        <ele>3.9</ele>
        <time>2020-06-18T16:44:27Z</time>
      </trkpt>
      <trkpt lat="50.23828" lon="1.66221">
        <ele>3.9</ele>
        <time>2020-06-18T16:44:28Z</time>
      </trkpt>
      <trkpt lat="50.23823" lon="1.6622">
        <ele>4</ele>
        <time>2020-06-18T16:44:29Z</time>
      </trkpt>
      <trkpt lat="50.23819" lon="1.66221">
        <ele>4</ele>
        <time>2020-06-18T16:44:30Z</time>
      </trkpt>
      <trkpt lat="50.23813" lon="1.66221">
        <ele>4</ele>
        <time>2020-06-18T16:44:31Z</time>
      </trkpt>
      <trkpt lat="50.23809" lon="1.66221">
        <ele>4</ele>
        <time>2020-06-18T16:44:32Z</time>
      </trkpt>
      <trkpt lat="50.23803" lon="1.66221">
        <ele>4</ele>
        <time>2020-06-18T16:44:33Z</time>
      </trkpt>
      <trkpt lat="50.23798" lon="1.66221">
        <ele>3.9</ele>
        <time>2020-06-18T16:44:34Z</time>
      </trkpt>
      <trkpt lat="50.23794" lon="1.66222">
        <ele>3.9</ele>
        <time>2020-06-18T16:44:35Z</time>
      </trkpt>
      <trkpt lat="50.2379" lon="1.66223">
        <ele>3.9</ele>
        <time>2020-06-18T16:44:36Z</time>
      </trkpt>
      <trkpt lat="50.23787" lon="1.66225">
        <ele>3.9</ele>
        <time>2020-06-18T16:44:37Z</time>
      </trkpt>
      <trkpt lat="50.23786" lon="1.66227">
        <ele>3.9</ele>
        <time>2020-06-18T16:44:38Z</time>
      </trkpt>
      <trkpt lat="50.23785" lon="1.66228">
        <ele>3.9</ele>
        <time>2020-06-18T16:44:39Z</time>
      </trkpt>
      <trkpt lat="50.23785" lon="1.66229">
        <ele>3.9</ele>
        <time>2020-06-18T16:44:40Z</time>
      </trkpt>
      <trkpt lat="50.23784" lon="1.66232">
        <ele>3.9</ele>
        <time>2020-06-18T16:44:41Z</time>
      </trkpt>
      <trkpt lat="50.23783" lon="1.66238">
        <ele>3.9</ele>
        <time>2020-06-18T16:44:42Z</time>
      </trkpt>
      <trkpt lat="50.23782" lon="1.6624">
        <ele>4</ele>
        <time>2020-06-18T16:44:43Z</time>
      </trkpt>
      <trkpt lat="50.23782" lon="1.66244">
        <ele>4</ele>
        <time>2020-06-18T16:44:44Z</time>
      </trkpt>
      <trkpt lat="50.23781" lon="1.66249">
        <ele>4</ele>
        <time>2020-06-18T16:44:45Z</time>
      </trkpt>
      <trkpt lat="50.2378" lon="1.66254">
        <ele>4</ele>
        <time>2020-06-18T16:44:46Z</time>
      </trkpt>
      <trkpt lat="50.2378" lon="1.66256">
        <ele>4</ele>
        <time>2020-06-18T16:44:47Z</time>
      </trkpt>
      <trkpt lat="50.23781" lon="1.6626">
        <ele>4</ele>
        <time>2020-06-18T16:44:48Z</time>
      </trkpt>
      <trkpt lat="50.23782" lon="1.66265">
        <ele>4</ele>
        <time>2020-06-18T16:44:49Z</time>
      </trkpt>
      <trkpt lat="50.23783" lon="1.66268">
        <ele>4</ele>
        <time>2020-06-18T16:44:50Z</time>
      </trkpt>
      <trkpt lat="50.23783" lon="1.66269">
        <ele>4</ele>
        <time>2020-06-18T16:44:51Z</time>
      </trkpt>
      <trkpt lat="50.23783" lon="1.6627">
        <ele>4</ele>
        <time>2020-06-18T16:44:52Z</time>
      </trkpt>
      <trkpt lat="50.23783" lon="1.66271">
        <ele>4</ele>
        <time>2020-06-18T16:44:53Z</time>
      </trkpt>
      <trkpt lat="50.23782" lon="1.66272">
        <ele>4</ele>
        <time>2020-06-18T16:44:54Z</time>
      </trkpt>
      <trkpt lat="50.23781" lon="1.66274">
        <ele>4</ele>
        <time>2020-06-18T16:44:55Z</time>
      </trkpt>
      <trkpt lat="50.23781" lon="1.66273">
        <ele>4</ele>
        <time>2020-06-18T16:44:56Z</time>
      </trkpt>
      <trkpt lat="50.2378" lon="1.66274">
        <ele>4</ele>
        <time>2020-06-18T16:44:57Z</time>
      </trkpt>
      <trkpt lat="50.23779" lon="1.66273">
        <ele>4</ele>
        <time>2020-06-18T16:44:58Z</time>
      </trkpt>
      <trkpt lat="50.23778" lon="1.66273">
        <ele>4</ele>
        <time>2020-06-18T16:44:59Z</time>
      </trkpt>
      <trkpt lat="50.23777" lon="1.6627">
        <ele>4</ele>
        <time>2020-06-18T16:45:00Z</time>
      </trkpt>
      <trkpt lat="50.23777" lon="1.66268">
        <ele>4</ele>
        <time>2020-06-18T16:45:01Z</time>
      </trkpt>
      <trkpt lat="50.23776" lon="1.66266">
        <ele>4</ele>
        <time>2020-06-18T16:45:02Z</time>
      </trkpt>
      <trkpt lat="50.23777" lon="1.66261">
        <ele>4</ele>
        <time>2020-06-18T16:45:03Z</time>
      </trkpt>
      <trkpt lat="50.23777" lon="1.66255">
        <ele>4</ele>
        <time>2020-06-18T16:45:04Z</time>
      </trkpt>
      <trkpt lat="50.23778" lon="1.6625">
        <ele>4</ele>
        <time>2020-06-18T16:45:05Z</time>
      </trkpt>
      <trkpt lat="50.2378" lon="1.66244">
        <ele>4</ele>
        <time>2020-06-18T16:45:06Z</time>
      </trkpt>
      <trkpt lat="50.23782" lon="1.66239">
        <ele>3.9</ele>
        <time>2020-06-18T16:45:07Z</time>
      </trkpt>
      <trkpt lat="50.23784" lon="1.66234">
        <ele>3.9</ele>
        <time>2020-06-18T16:45:08Z</time>
      </trkpt>
      <trkpt lat="50.23786" lon="1.6623">
        <ele>3.9</ele>
        <time>2020-06-18T16:45:09Z</time>
      </trkpt>
      <trkpt lat="50.23789" lon="1.66228">
        <ele>3.9</ele>
        <time>2020-06-18T16:45:10Z</time>
      </trkpt>
      <trkpt lat="50.23792" lon="1.66226">
        <ele>3.9</ele>
        <time>2020-06-18T16:45:11Z</time>
      </trkpt>
      <trkpt lat="50.23795" lon="1.66225">
        <ele>3.9</ele>
        <time>2020-06-18T16:45:12Z</time>
      </trkpt>
      <trkpt lat="50.23798" lon="1.66224">
        <ele>3.9</ele>
        <time>2020-06-18T16:45:13Z</time>
      </trkpt>
      <trkpt lat="50.23802" lon="1.66222">
        <ele>3.9</ele>
        <time>2020-06-18T16:45:14Z</time>
      </trkpt>
      <trkpt lat="50.2381" lon="1.66222">
        <ele>4</ele>
        <time>2020-06-18T16:45:15Z</time>
      </trkpt>
      <trkpt lat="50.23816" lon="1.66222">
        <ele>4</ele>
        <time>2020-06-18T16:45:16Z</time>
      </trkpt>
      <trkpt lat="50.23821" lon="1.66223">
        <ele>4</ele>
        <time>2020-06-18T16:45:17Z</time>
      </trkpt>
      <trkpt lat="50.23825" lon="1.66223">
        <ele>4</ele>
        <time>2020-06-18T16:45:18Z</time>
      </trkpt>
      <trkpt lat="50.23829" lon="1.66224">
        <ele>3.9</ele>
        <time>2020-06-18T16:45:19Z</time>
      </trkpt>
      <trkpt lat="50.23833" lon="1.66225">
        <ele>3.9</ele>
        <time>2020-06-18T16:45:20Z</time>
      </trkpt>
      <trkpt lat="50.23838" lon="1.66224">
        <ele>3.8</ele>
        <time>2020-06-18T16:45:21Z</time>
      </trkpt>
      <trkpt lat="50.23842" lon="1.66225">
        <ele>3.8</ele>
        <time>2020-06-18T16:45:22Z</time>
      </trkpt>
      <trkpt lat="50.23847" lon="1.66225">
        <ele>3.8</ele>
        <time>2020-06-18T16:45:23Z</time>
      </trkpt>
      <trkpt lat="50.23851" lon="1.66226">
        <ele>3.7</ele>
        <time>2020-06-18T16:45:24Z</time>
      </trkpt>
      <trkpt lat="50.23855" lon="1.66225">
        <ele>3.7</ele>
        <time>2020-06-18T16:45:25Z</time>
      </trkpt>
      <trkpt lat="50.23859" lon="1.66226">
        <ele>3.7</ele>
        <time>2020-06-18T16:45:26Z</time>
      </trkpt>
      <trkpt lat="50.23862" lon="1.66225">
        <ele>3.8</ele>
        <time>2020-06-18T16:45:27Z</time>
      </trkpt>
      <trkpt lat="50.23867" lon="1.66222">
        <ele>3.9</ele>
        <time>2020-06-18T16:45:28Z</time>
      </trkpt>
      <trkpt lat="50.23872" lon="1.66219">
        <ele>3.9</ele>
        <time>2020-06-18T16:45:29Z</time>
      </trkpt>
      <trkpt lat="50.23878" lon="1.66214">
        <ele>3.8</ele>
        <time>2020-06-18T16:45:30Z</time>
      </trkpt>
      <trkpt lat="50.23884" lon="1.6621">
        <ele>3.8</ele>
        <time>2020-06-18T16:45:31Z</time>
      </trkpt>
      <trkpt lat="50.23887" lon="1.66206">
        <ele>3.7</ele>
        <time>2020-06-18T16:45:32Z</time>
      </trkpt>
      <trkpt lat="50.23891" lon="1.66203">
        <ele>3.7</ele>
        <time>2020-06-18T16:45:33Z</time>
      </trkpt>
      <trkpt lat="50.23896" lon="1.66199">
        <ele>3.6</ele>
        <time>2020-06-18T16:45:34Z</time>
      </trkpt>
      <trkpt lat="50.239" lon="1.66195">
        <ele>3.6</ele>
        <time>2020-06-18T16:45:35Z</time>
      </trkpt>
      <trkpt lat="50.23903" lon="1.6619">
        <ele>3.6</ele>
        <time>2020-06-18T16:45:36Z</time>
      </trkpt>
      <trkpt lat="50.23908" lon="1.66187">
        <ele>3.6</ele>
        <time>2020-06-18T16:45:37Z</time>
      </trkpt>
      <trkpt lat="50.23912" lon="1.66184">
        <ele>3.6</ele>
        <time>2020-06-18T16:45:38Z</time>
      </trkpt>
      <trkpt lat="50.23916" lon="1.66183">
        <ele>3.5</ele>
        <time>2020-06-18T16:45:39Z</time>
      </trkpt>
      <trkpt lat="50.2392" lon="1.6618">
        <ele>3.5</ele>
        <time>2020-06-18T16:45:40Z</time>
      </trkpt>
      <trkpt lat="50.23924" lon="1.66177">
        <ele>3.5</ele>
        <time>2020-06-18T16:45:41Z</time>
      </trkpt>
      <trkpt lat="50.23929" lon="1.66174">
        <ele>3.5</ele>
        <time>2020-06-18T16:45:42Z</time>
      </trkpt>
      <trkpt lat="50.23934" lon="1.66173">
        <ele>3.5</ele>
        <time>2020-06-18T16:45:43Z</time>
      </trkpt>
      <trkpt lat="50.23939" lon="1.66171">
        <ele>3.5</ele>
        <time>2020-06-18T16:45:44Z</time>
      </trkpt>
      <trkpt lat="50.23944" lon="1.66171">
        <ele>3.5</ele>
        <time>2020-06-18T16:45:45Z</time>
      </trkpt>
      <trkpt lat="50.23949" lon="1.6617">
        <ele>3.5</ele>
        <time>2020-06-18T16:45:46Z</time>
      </trkpt>
      <trkpt lat="50.23953" lon="1.66168">
        <ele>3.6</ele>
        <time>2020-06-18T16:45:47Z</time>
      </trkpt>
      <trkpt lat="50.23958" lon="1.66166">
        <ele>3.6</ele>
        <time>2020-06-18T16:45:48Z</time>
      </trkpt>
      <trkpt lat="50.23963" lon="1.66164">
        <ele>3.7</ele>
        <time>2020-06-18T16:45:49Z</time>
      </trkpt>
      <trkpt lat="50.23968" lon="1.66163">
        <ele>3.8</ele>
        <time>2020-06-18T16:45:50Z</time>
      </trkpt>
      <trkpt lat="50.23973" lon="1.6616">
        <ele>3.9</ele>
        <time>2020-06-18T16:45:51Z</time>
      </trkpt>
      <trkpt lat="50.23978" lon="1.66154">
        <ele>3.9</ele>
        <time>2020-06-18T16:45:52Z</time>
      </trkpt>
      <trkpt lat="50.23982" lon="1.6615">
        <ele>3.9</ele>
        <time>2020-06-18T16:45:53Z</time>
      </trkpt>
      <trkpt lat="50.23986" lon="1.66145">
        <ele>3.8</ele>
        <time>2020-06-18T16:45:54Z</time>
      </trkpt>
      <trkpt lat="50.2399" lon="1.66141">
        <ele>3.8</ele>
        <time>2020-06-18T16:45:55Z</time>
      </trkpt>
      <trkpt lat="50.23995" lon="1.66136">
        <ele>3.8</ele>
        <time>2020-06-18T16:45:56Z</time>
      </trkpt>
      <trkpt lat="50.23998" lon="1.66131">
        <ele>3.8</ele>
        <time>2020-06-18T16:45:57Z</time>
      </trkpt>
      <trkpt lat="50.24002" lon="1.66128">
        <ele>3.8</ele>
        <time>2020-06-18T16:45:58Z</time>
      </trkpt>
      <trkpt lat="50.24005" lon="1.66124">
        <ele>3.8</ele>
        <time>2020-06-18T16:45:59Z</time>
      </trkpt>
      <trkpt lat="50.24008" lon="1.6612">
        <ele>3.8</ele>
        <time>2020-06-18T16:46:00Z</time>
      </trkpt>
      <trkpt lat="50.24013" lon="1.66116">
        <ele>3.8</ele>
        <time>2020-06-18T16:46:01Z</time>
      </trkpt>
      <trkpt lat="50.24017" lon="1.66111">
        <ele>3.8</ele>
        <time>2020-06-18T16:46:02Z</time>
      </trkpt>
      <trkpt lat="50.24021" lon="1.66106">
        <ele>3.8</ele>
        <time>2020-06-18T16:46:03Z</time>
      </trkpt>
      <trkpt lat="50.24026" lon="1.66102">
        <ele>3.9</ele>
        <time>2020-06-18T16:46:04Z</time>
      </trkpt>
      <trkpt lat="50.2403" lon="1.66098">
        <ele>3.9</ele>
        <time>2020-06-18T16:46:05Z</time>
      </trkpt>
      <trkpt lat="50.24034" lon="1.66094">
        <ele>3.9</ele>
        <time>2020-06-18T16:46:06Z</time>
      </trkpt>
      <trkpt lat="50.24038" lon="1.66091">
        <ele>3.9</ele>
        <time>2020-06-18T16:46:07Z</time>
      </trkpt>
      <trkpt lat="50.24044" lon="1.66088">
        <ele>3.9</ele>
        <time>2020-06-18T16:46:08Z</time>
      </trkpt>
      <trkpt lat="50.24048" lon="1.66085">
        <ele>3.9</ele>
        <time>2020-06-18T16:46:09Z</time>
      </trkpt>
      <trkpt lat="50.2405" lon="1.66081">
        <ele>3.9</ele>
        <time>2020-06-18T16:46:10Z</time>
      </trkpt>
      <trkpt lat="50.24055" lon="1.66077">
        <ele>3.9</ele>
        <time>2020-06-18T16:46:11Z</time>
      </trkpt>
      <trkpt lat="50.2406" lon="1.66074">
        <ele>3.9</ele>
        <time>2020-06-18T16:46:12Z</time>
      </trkpt>
      <trkpt lat="50.24065" lon="1.6607">
        <ele>3.9</ele>
        <time>2020-06-18T16:46:13Z</time>
      </trkpt>
      <trkpt lat="50.2407" lon="1.66066">
        <ele>3.9</ele>
        <time>2020-06-18T16:46:14Z</time>
      </trkpt>
      <trkpt lat="50.24075" lon="1.66063">
        <ele>3.9</ele>
        <time>2020-06-18T16:46:15Z</time>
      </trkpt>
      <trkpt lat="50.2408" lon="1.66059">
        <ele>3.9</ele>
        <time>2020-06-18T16:46:16Z</time>
      </trkpt>
      <trkpt lat="50.24085" lon="1.66055">
        <ele>3.9</ele>
        <time>2020-06-18T16:46:17Z</time>
      </trkpt>
      <trkpt lat="50.24088" lon="1.66052">
        <ele>3.9</ele>
        <time>2020-06-18T16:46:18Z</time>
      </trkpt>
      <trkpt lat="50.24091" lon="1.6605">
        <ele>3.9</ele>
        <time>2020-06-18T16:46:19Z</time>
      </trkpt>
      <trkpt lat="50.24096" lon="1.66047">
        <ele>3.9</ele>
        <time>2020-06-18T16:46:20Z</time>
      </trkpt>
      <trkpt lat="50.241" lon="1.66043">
        <ele>3.9</ele>
        <time>2020-06-18T16:46:21Z</time>
      </trkpt>
      <trkpt lat="50.24105" lon="1.66038">
        <ele>3.9</ele>
        <time>2020-06-18T16:46:22Z</time>
      </trkpt>
      <trkpt lat="50.24109" lon="1.66034">
        <ele>3.9</ele>
        <time>2020-06-18T16:46:23Z</time>
      </trkpt>
      <trkpt lat="50.24112" lon="1.66029">
        <ele>3.9</ele>
        <time>2020-06-18T16:46:24Z</time>
      </trkpt>
      <trkpt lat="50.24117" lon="1.66024">
        <ele>3.9</ele>
        <time>2020-06-18T16:46:25Z</time>
      </trkpt>
      <trkpt lat="50.2412" lon="1.6602">
        <ele>3.8</ele>
        <time>2020-06-18T16:46:26Z</time>
      </trkpt>
      <trkpt lat="50.24124" lon="1.66015">
        <ele>3.8</ele>
        <time>2020-06-18T16:46:27Z</time>
      </trkpt>
      <trkpt lat="50.24129" lon="1.66009">
        <ele>3.8</ele>
        <time>2020-06-18T16:46:28Z</time>
      </trkpt>
      <trkpt lat="50.24133" lon="1.66002">
        <ele>3.8</ele>
        <time>2020-06-18T16:46:29Z</time>
      </trkpt>
      <trkpt lat="50.24137" lon="1.65995">
        <ele>3.7</ele>
        <time>2020-06-18T16:46:30Z</time>
      </trkpt>
      <trkpt lat="50.24142" lon="1.65986">
        <ele>3.7</ele>
        <time>2020-06-18T16:46:31Z</time>
      </trkpt>
      <trkpt lat="50.24145" lon="1.65978">
        <ele>3.7</ele>
        <time>2020-06-18T16:46:32Z</time>
      </trkpt>
      <trkpt lat="50.24148" lon="1.65971">
        <ele>3.7</ele>
        <time>2020-06-18T16:46:33Z</time>
      </trkpt>
      <trkpt lat="50.24152" lon="1.65962">
        <ele>3.8</ele>
        <time>2020-06-18T16:46:34Z</time>
      </trkpt>
      <trkpt lat="50.24155" lon="1.65956">
        <ele>3.8</ele>
        <time>2020-06-18T16:46:35Z</time>
      </trkpt>
      <trkpt lat="50.24157" lon="1.65948">
        <ele>3.9</ele>
        <time>2020-06-18T16:46:36Z</time>
      </trkpt>
      <trkpt lat="50.24159" lon="1.65939">
        <ele>3.9</ele>
        <time>2020-06-18T16:46:37Z</time>
      </trkpt>
      <trkpt lat="50.24162" lon="1.65931">
        <ele>3.9</ele>
        <time>2020-06-18T16:46:38Z</time>
      </trkpt>
      <trkpt lat="50.24163" lon="1.65922">
        <ele>3.9</ele>
        <time>2020-06-18T16:46:39Z</time>
      </trkpt>
      <trkpt lat="50.24166" lon="1.65914">
        <ele>3.9</ele>
        <time>2020-06-18T16:46:40Z</time>
      </trkpt>
      <trkpt lat="50.24168" lon="1.65906">
        <ele>3.9</ele>
        <time>2020-06-18T16:46:41Z</time>
      </trkpt>
      <trkpt lat="50.24171" lon="1.65896">
        <ele>3.9</ele>
        <time>2020-06-18T16:46:42Z</time>
      </trkpt>
      <trkpt lat="50.24172" lon="1.65887">
        <ele>3.9</ele>
        <time>2020-06-18T16:46:43Z</time>
      </trkpt>
      <trkpt lat="50.24176" lon="1.65881">
        <ele>3.9</ele>
        <time>2020-06-18T16:46:44Z</time>
      </trkpt>
      <trkpt lat="50.24177" lon="1.65874">
        <ele>3.9</ele>
        <time>2020-06-18T16:46:45Z</time>
      </trkpt>
      <trkpt lat="50.24179" lon="1.65865">
        <ele>3.9</ele>
        <time>2020-06-18T16:46:46Z</time>
      </trkpt>
      <trkpt lat="50.24181" lon="1.65856">
        <ele>3.9</ele>
        <time>2020-06-18T16:46:47Z</time>
      </trkpt>
      <trkpt lat="50.24183" lon="1.65847">
        <ele>4</ele>
        <time>2020-06-18T16:46:48Z</time>
      </trkpt>
      <trkpt lat="50.24184" lon="1.65838">
        <ele>4</ele>
        <time>2020-06-18T16:46:49Z</time>
      </trkpt>
      <trkpt lat="50.24186" lon="1.6583">
        <ele>4.1</ele>
        <time>2020-06-18T16:46:50Z</time>
      </trkpt>
      <trkpt lat="50.24188" lon="1.65821">
        <ele>4.1</ele>
        <time>2020-06-18T16:46:51Z</time>
      </trkpt>
      <trkpt lat="50.2419" lon="1.65814">
        <ele>4.1</ele>
        <time>2020-06-18T16:46:52Z</time>
      </trkpt>
      <trkpt lat="50.24192" lon="1.65806">
        <ele>4.1</ele>
        <time>2020-06-18T16:46:53Z</time>
      </trkpt>
      <trkpt lat="50.24193" lon="1.65798">
        <ele>4.1</ele>
        <time>2020-06-18T16:46:54Z</time>
      </trkpt>
      <trkpt lat="50.24195" lon="1.65789">
        <ele>4.1</ele>
        <time>2020-06-18T16:46:55Z</time>
      </trkpt>
      <trkpt lat="50.24198" lon="1.65781">
        <ele>4.1</ele>
        <time>2020-06-18T16:46:56Z</time>
      </trkpt>
      <trkpt lat="50.24201" lon="1.65773">
        <ele>4.1</ele>
        <time>2020-06-18T16:46:57Z</time>
      </trkpt>
      <trkpt lat="50.24204" lon="1.65766">
        <ele>4.2</ele>
        <time>2020-06-18T16:46:58Z</time>
      </trkpt>
      <trkpt lat="50.24209" lon="1.65761">
        <ele>4.2</ele>
        <time>2020-06-18T16:46:59Z</time>
      </trkpt>
      <trkpt lat="50.24213" lon="1.65757">
        <ele>4.2</ele>
        <time>2020-06-18T16:47:00Z</time>
      </trkpt>
      <trkpt lat="50.24218" lon="1.65752">
        <ele>4.2</ele>
        <time>2020-06-18T16:47:01Z</time>
      </trkpt>
      <trkpt lat="50.24223" lon="1.65747">
        <ele>4.2</ele>
        <time>2020-06-18T16:47:02Z</time>
      </trkpt>
      <trkpt lat="50.24228" lon="1.65741">
        <ele>4.3</ele>
        <time>2020-06-18T16:47:03Z</time>
      </trkpt>
      <trkpt lat="50.24233" lon="1.65736">
        <ele>4.4</ele>
        <time>2020-06-18T16:47:04Z</time>
      </trkpt>
      <trkpt lat="50.24239" lon="1.65733">
        <ele>4.5</ele>
        <time>2020-06-18T16:47:05Z</time>
      </trkpt>
      <trkpt lat="50.24243" lon="1.65729">
        <ele>4.5</ele>
        <time>2020-06-18T16:47:06Z</time>
      </trkpt>
      <trkpt lat="50.24247" lon="1.65724">
        <ele>4.5</ele>
        <time>2020-06-18T16:47:07Z</time>
      </trkpt>
      <trkpt lat="50.24252" lon="1.65719">
        <ele>4.4</ele>
        <time>2020-06-18T16:47:08Z</time>
      </trkpt>
      <trkpt lat="50.24257" lon="1.65714">
        <ele>4.4</ele>
        <time>2020-06-18T16:47:09Z</time>
      </trkpt>
      <trkpt lat="50.24261" lon="1.65708">
        <ele>4.4</ele>
        <time>2020-06-18T16:47:10Z</time>
      </trkpt>
      <trkpt lat="50.24265" lon="1.65705">
        <ele>4.4</ele>
        <time>2020-06-18T16:47:11Z</time>
      </trkpt>
      <trkpt lat="50.24269" lon="1.65701">
        <ele>4.4</ele>
        <time>2020-06-18T16:47:12Z</time>
      </trkpt>
      <trkpt lat="50.24275" lon="1.657">
        <ele>4.4</ele>
        <time>2020-06-18T16:47:13Z</time>
      </trkpt>
      <trkpt lat="50.24282" lon="1.65698">
        <ele>4.4</ele>
        <time>2020-06-18T16:47:14Z</time>
      </trkpt>
      <trkpt lat="50.24288" lon="1.65699">
        <ele>4.3</ele>
        <time>2020-06-18T16:47:15Z</time>
      </trkpt>
      <trkpt lat="50.24293" lon="1.65698">
        <ele>4.3</ele>
        <time>2020-06-18T16:47:16Z</time>
      </trkpt>
      <trkpt lat="50.243" lon="1.65696">
        <ele>4.2</ele>
        <time>2020-06-18T16:47:17Z</time>
      </trkpt>
      <trkpt lat="50.24307" lon="1.65694">
        <ele>4.1</ele>
        <time>2020-06-18T16:47:18Z</time>
      </trkpt>
      <trkpt lat="50.24314" lon="1.65692">
        <ele>4</ele>
        <time>2020-06-18T16:47:19Z</time>
      </trkpt>
      <trkpt lat="50.2432" lon="1.65691">
        <ele>4</ele>
        <time>2020-06-18T16:47:20Z</time>
      </trkpt>
      <trkpt lat="50.24327" lon="1.65691">
        <ele>4</ele>
        <time>2020-06-18T16:47:21Z</time>
      </trkpt>
      <trkpt lat="50.24334" lon="1.6569">
        <ele>4</ele>
        <time>2020-06-18T16:47:22Z</time>
      </trkpt>
      <trkpt lat="50.2434" lon="1.65689">
        <ele>4.1</ele>
        <time>2020-06-18T16:47:23Z</time>
      </trkpt>
      <trkpt lat="50.24345" lon="1.65688">
        <ele>4.1</ele>
        <time>2020-06-18T16:47:24Z</time>
      </trkpt>
      <trkpt lat="50.24351" lon="1.65685">
        <ele>4.1</ele>
        <time>2020-06-18T16:47:25Z</time>
      </trkpt>
      <trkpt lat="50.24357" lon="1.65684">
        <ele>4.1</ele>
        <time>2020-06-18T16:47:26Z</time>
      </trkpt>
      <trkpt lat="50.24362" lon="1.65682">
        <ele>4.1</ele>
        <time>2020-06-18T16:47:27Z</time>
      </trkpt>
      <trkpt lat="50.24368" lon="1.65681">
        <ele>4.1</ele>
        <time>2020-06-18T16:47:28Z</time>
      </trkpt>
      <trkpt lat="50.24373" lon="1.6568">
        <ele>4.1</ele>
        <time>2020-06-18T16:47:29Z</time>
      </trkpt>
      <trkpt lat="50.24379" lon="1.65679">
        <ele>4.1</ele>
        <time>2020-06-18T16:47:30Z</time>
      </trkpt>
      <trkpt lat="50.24385" lon="1.65678">
        <ele>4.1</ele>
        <time>2020-06-18T16:47:31Z</time>
      </trkpt>
      <trkpt lat="50.24391" lon="1.65677">
        <ele>4</ele>
        <time>2020-06-18T16:47:32Z</time>
      </trkpt>
      <trkpt lat="50.24396" lon="1.65675">
        <ele>4</ele>
        <time>2020-06-18T16:47:33Z</time>
      </trkpt>
      <trkpt lat="50.24404" lon="1.65674">
        <ele>4</ele>
        <time>2020-06-18T16:47:34Z</time>
      </trkpt>
      <trkpt lat="50.24409" lon="1.65672">
        <ele>4</ele>
        <time>2020-06-18T16:47:35Z</time>
      </trkpt>
      <trkpt lat="50.24415" lon="1.6567">
        <ele>4.1</ele>
        <time>2020-06-18T16:47:36Z</time>
      </trkpt>
      <trkpt lat="50.24422" lon="1.65669">
        <ele>4.1</ele>
        <time>2020-06-18T16:47:37Z</time>
      </trkpt>
      <trkpt lat="50.24429" lon="1.65669">
        <ele>4.1</ele>
        <time>2020-06-18T16:47:38Z</time>
      </trkpt>
      <trkpt lat="50.24436" lon="1.65669">
        <ele>4.1</ele>
        <time>2020-06-18T16:47:39Z</time>
      </trkpt>
      <trkpt lat="50.2444" lon="1.65669">
        <ele>4.1</ele>
        <time>2020-06-18T16:47:40Z</time>
      </trkpt>
      <trkpt lat="50.24444" lon="1.65669">
        <ele>4.1</ele>
        <time>2020-06-18T16:47:41Z</time>
      </trkpt>
      <trkpt lat="50.24449" lon="1.65668">
        <ele>4.1</ele>
        <time>2020-06-18T16:47:42Z</time>
      </trkpt>
      <trkpt lat="50.24455" lon="1.65667">
        <ele>4.1</ele>
        <time>2020-06-18T16:47:43Z</time>
      </trkpt>
      <trkpt lat="50.2446" lon="1.65668">
        <ele>4.1</ele>
        <time>2020-06-18T16:47:44Z</time>
      </trkpt>
      <trkpt lat="50.24466" lon="1.65668">
        <ele>4</ele>
        <time>2020-06-18T16:47:45Z</time>
      </trkpt>
      <trkpt lat="50.24469" lon="1.65669">
        <ele>4</ele>
        <time>2020-06-18T16:47:46Z</time>
      </trkpt>
      <trkpt lat="50.24473" lon="1.6567">
        <ele>4</ele>
        <time>2020-06-18T16:47:47Z</time>
      </trkpt>
      <trkpt lat="50.24477" lon="1.65673">
        <ele>4</ele>
        <time>2020-06-18T16:47:48Z</time>
      </trkpt>
      <trkpt lat="50.2448" lon="1.65677">
        <ele>3.9</ele>
        <time>2020-06-18T16:47:49Z</time>
      </trkpt>
      <trkpt lat="50.24483" lon="1.65682">
        <ele>3.9</ele>
        <time>2020-06-18T16:47:50Z</time>
      </trkpt>
      <trkpt lat="50.24486" lon="1.65687">
        <ele>3.9</ele>
        <time>2020-06-18T16:47:51Z</time>
      </trkpt>
      <trkpt lat="50.2449" lon="1.65691">
        <ele>3.9</ele>
        <time>2020-06-18T16:47:52Z</time>
      </trkpt>
      <trkpt lat="50.24495" lon="1.65696">
        <ele>3.9</ele>
        <time>2020-06-18T16:47:53Z</time>
      </trkpt>
      <trkpt lat="50.24499" lon="1.65701">
        <ele>3.9</ele>
        <time>2020-06-18T16:47:54Z</time>
      </trkpt>
      <trkpt lat="50.24502" lon="1.65704">
        <ele>3.9</ele>
        <time>2020-06-18T16:47:55Z</time>
      </trkpt>
      <trkpt lat="50.24506" lon="1.65708">
        <ele>3.9</ele>
        <time>2020-06-18T16:47:56Z</time>
      </trkpt>
      <trkpt lat="50.2451" lon="1.65713">
        <ele>4</ele>
        <time>2020-06-18T16:47:57Z</time>
      </trkpt>
      <trkpt lat="50.24513" lon="1.65716">
        <ele>4</ele>
        <time>2020-06-18T16:47:58Z</time>
      </trkpt>
      <trkpt lat="50.24515" lon="1.65721">
        <ele>4</ele>
        <time>2020-06-18T16:47:59Z</time>
      </trkpt>
      <trkpt lat="50.24518" lon="1.65724">
        <ele>4</ele>
        <time>2020-06-18T16:48:00Z</time>
      </trkpt>
      <trkpt lat="50.24521" lon="1.65727">
        <ele>4</ele>
        <time>2020-06-18T16:48:01Z</time>
      </trkpt>
      <trkpt lat="50.24524" lon="1.65727">
        <ele>4</ele>
        <time>2020-06-18T16:48:02Z</time>
      </trkpt>
      <trkpt lat="50.24527" lon="1.6573">
        <ele>4</ele>
        <time>2020-06-18T16:48:03Z</time>
      </trkpt>
      <trkpt lat="50.2453" lon="1.65735">
        <ele>3.9</ele>
        <time>2020-06-18T16:48:04Z</time>
      </trkpt>
      <trkpt lat="50.24534" lon="1.6574">
        <ele>3.9</ele>
        <time>2020-06-18T16:48:05Z</time>
      </trkpt>
      <trkpt lat="50.24539" lon="1.65746">
        <ele>3.9</ele>
        <time>2020-06-18T16:48:06Z</time>
      </trkpt>
      <trkpt lat="50.24543" lon="1.65753">
        <ele>3.9</ele>
        <time>2020-06-18T16:48:07Z</time>
      </trkpt>
      <trkpt lat="50.24548" lon="1.65759">
        <ele>3.9</ele>
        <time>2020-06-18T16:48:08Z</time>
      </trkpt>
      <trkpt lat="50.24554" lon="1.65765">
        <ele>4</ele>
        <time>2020-06-18T16:48:09Z</time>
      </trkpt>
      <trkpt lat="50.2456" lon="1.65771">
        <ele>4</ele>
        <time>2020-06-18T16:48:10Z</time>
      </trkpt>
      <trkpt lat="50.24566" lon="1.65779">
        <ele>4</ele>
        <time>2020-06-18T16:48:11Z</time>
      </trkpt>
      <trkpt lat="50.2457" lon="1.65784">
        <ele>4</ele>
        <time>2020-06-18T16:48:12Z</time>
      </trkpt>
      <trkpt lat="50.24575" lon="1.6579">
        <ele>4</ele>
        <time>2020-06-18T16:48:13Z</time>
      </trkpt>
      <trkpt lat="50.2458" lon="1.65796">
        <ele>4</ele>
        <time>2020-06-18T16:48:14Z</time>
      </trkpt>
      <trkpt lat="50.24584" lon="1.65801">
        <ele>4</ele>
        <time>2020-06-18T16:48:15Z</time>
      </trkpt>
      <trkpt lat="50.24588" lon="1.65805">
        <ele>4</ele>
        <time>2020-06-18T16:48:16Z</time>
      </trkpt>
      <trkpt lat="50.24592" lon="1.65808">
        <ele>4</ele>
        <time>2020-06-18T16:48:17Z</time>
      </trkpt>
      <trkpt lat="50.24596" lon="1.65812">
        <ele>4</ele>
        <time>2020-06-18T16:48:18Z</time>
      </trkpt>
      <trkpt lat="50.24601" lon="1.65816">
        <ele>4</ele>
        <time>2020-06-18T16:48:19Z</time>
      </trkpt>
      <trkpt lat="50.24605" lon="1.65819">
        <ele>4</ele>
        <time>2020-06-18T16:48:20Z</time>
      </trkpt>
      <trkpt lat="50.24609" lon="1.65822">
        <ele>4</ele>
        <time>2020-06-18T16:48:21Z</time>
      </trkpt>
      <trkpt lat="50.24612" lon="1.65824">
        <ele>4</ele>
        <time>2020-06-18T16:48:22Z</time>
      </trkpt>
      <trkpt lat="50.24617" lon="1.65827">
        <ele>4</ele>
        <time>2020-06-18T16:48:23Z</time>
      </trkpt>
      <trkpt lat="50.24622" lon="1.6583">
        <ele>4</ele>
        <time>2020-06-18T16:48:24Z</time>
      </trkpt>
      <trkpt lat="50.24628" lon="1.65832">
        <ele>4</ele>
        <time>2020-06-18T16:48:25Z</time>
      </trkpt>
      <trkpt lat="50.24634" lon="1.65833">
        <ele>4</ele>
        <time>2020-06-18T16:48:26Z</time>
      </trkpt>
      <trkpt lat="50.2464" lon="1.65834">
        <ele>4</ele>
        <time>2020-06-18T16:48:27Z</time>
      </trkpt>
      <trkpt lat="50.24645" lon="1.65834">
        <ele>4</ele>
        <time>2020-06-18T16:48:28Z</time>
      </trkpt>
      <trkpt lat="50.24649" lon="1.65832">
        <ele>4</ele>
        <time>2020-06-18T16:48:29Z</time>
      </trkpt>
      <trkpt lat="50.24653" lon="1.65832">
        <ele>4</ele>
        <time>2020-06-18T16:48:30Z</time>
      </trkpt>
      <trkpt lat="50.24658" lon="1.65831">
        <ele>4</ele>
        <time>2020-06-18T16:48:31Z</time>
      </trkpt>
      <trkpt lat="50.24663" lon="1.65831">
        <ele>4</ele>
        <time>2020-06-18T16:48:32Z</time>
      </trkpt>
      <trkpt lat="50.24668" lon="1.65831">
        <ele>4</ele>
        <time>2020-06-18T16:48:33Z</time>
      </trkpt>
      <trkpt lat="50.24674" lon="1.65832">
        <ele>4</ele>
        <time>2020-06-18T16:48:34Z</time>
      </trkpt>
      <trkpt lat="50.24679" lon="1.65832">
        <ele>4</ele>
        <time>2020-06-18T16:48:35Z</time>
      </trkpt>
      <trkpt lat="50.24685" lon="1.65833">
        <ele>4</ele>
        <time>2020-06-18T16:48:36Z</time>
      </trkpt>
      <trkpt lat="50.24691" lon="1.65834">
        <ele>4</ele>
        <time>2020-06-18T16:48:37Z</time>
      </trkpt>
      <trkpt lat="50.24697" lon="1.65835">
        <ele>4</ele>
        <time>2020-06-18T16:48:38Z</time>
      </trkpt>
      <trkpt lat="50.24703" lon="1.65836">
        <ele>4</ele>
        <time>2020-06-18T16:48:39Z</time>
      </trkpt>
      <trkpt lat="50.2471" lon="1.65836">
        <ele>4</ele>
        <time>2020-06-18T16:48:40Z</time>
      </trkpt>
      <trkpt lat="50.24715" lon="1.65836">
        <ele>4.1</ele>
        <time>2020-06-18T16:48:41Z</time>
      </trkpt>
      <trkpt lat="50.24722" lon="1.65835">
        <ele>4.1</ele>
        <time>2020-06-18T16:48:42Z</time>
      </trkpt>
      <trkpt lat="50.24728" lon="1.65835">
        <ele>4.1</ele>
        <time>2020-06-18T16:48:43Z</time>
      </trkpt>
      <trkpt lat="50.24733" lon="1.65834">
        <ele>4.1</ele>
        <time>2020-06-18T16:48:44Z</time>
      </trkpt>
      <trkpt lat="50.2474" lon="1.65834">
        <ele>4.1</ele>
        <time>2020-06-18T16:48:45Z</time>
      </trkpt>
      <trkpt lat="50.24746" lon="1.65833">
        <ele>4</ele>
        <time>2020-06-18T16:48:46Z</time>
      </trkpt>
      <trkpt lat="50.24753" lon="1.65834">
        <ele>4</ele>
        <time>2020-06-18T16:48:47Z</time>
      </trkpt>
      <trkpt lat="50.2476" lon="1.65834">
        <ele>4</ele>
        <time>2020-06-18T16:48:48Z</time>
      </trkpt>
      <trkpt lat="50.24766" lon="1.65835">
        <ele>4</ele>
        <time>2020-06-18T16:48:49Z</time>
      </trkpt>
      <trkpt lat="50.24773" lon="1.65835">
        <ele>4</ele>
        <time>2020-06-18T16:48:50Z</time>
      </trkpt>
      <trkpt lat="50.2478" lon="1.65835">
        <ele>4</ele>
        <time>2020-06-18T16:48:51Z</time>
      </trkpt>
      <trkpt lat="50.24786" lon="1.65836">
        <ele>4</ele>
        <time>2020-06-18T16:48:52Z</time>
      </trkpt>
      <trkpt lat="50.24792" lon="1.65838">
        <ele>4</ele>
        <time>2020-06-18T16:48:53Z</time>
      </trkpt>
      <trkpt lat="50.24799" lon="1.65839">
        <ele>4</ele>
        <time>2020-06-18T16:48:54Z</time>
      </trkpt>
      <trkpt lat="50.24805" lon="1.6584">
        <ele>4.1</ele>
        <time>2020-06-18T16:48:55Z</time>
      </trkpt>
      <trkpt lat="50.24812" lon="1.65841">
        <ele>4.1</ele>
        <time>2020-06-18T16:48:56Z</time>
      </trkpt>
      <trkpt lat="50.24819" lon="1.65843">
        <ele>4.1</ele>
        <time>2020-06-18T16:48:57Z</time>
      </trkpt>
      <trkpt lat="50.24825" lon="1.65844">
        <ele>4</ele>
        <time>2020-06-18T16:48:58Z</time>
      </trkpt>
      <trkpt lat="50.24833" lon="1.65845">
        <ele>4</ele>
        <time>2020-06-18T16:48:59Z</time>
      </trkpt>
      <trkpt lat="50.24839" lon="1.65846">
        <ele>4</ele>
        <time>2020-06-18T16:49:00Z</time>
      </trkpt>
      <trkpt lat="50.24846" lon="1.65847">
        <ele>4</ele>
        <time>2020-06-18T16:49:01Z</time>
      </trkpt>
      <trkpt lat="50.24853" lon="1.6585">
        <ele>4.1</ele>
        <time>2020-06-18T16:49:02Z</time>
      </trkpt>
      <trkpt lat="50.24859" lon="1.65852">
        <ele>4.1</ele>
        <time>2020-06-18T16:49:03Z</time>
      </trkpt>
      <trkpt lat="50.24866" lon="1.65854">
        <ele>4.1</ele>
        <time>2020-06-18T16:49:04Z</time>
      </trkpt>
      <trkpt lat="50.24873" lon="1.65856">
        <ele>4.1</ele>
        <time>2020-06-18T16:49:05Z</time>
      </trkpt>
      <trkpt lat="50.2488" lon="1.65858">
        <ele>4.1</ele>
        <time>2020-06-18T16:49:06Z</time>
      </trkpt>
      <trkpt lat="50.24886" lon="1.65861">
        <ele>4.1</ele>
        <time>2020-06-18T16:49:07Z</time>
      </trkpt>
      <trkpt lat="50.24892" lon="1.65864">
        <ele>4.1</ele>
        <time>2020-06-18T16:49:08Z</time>
      </trkpt>
      <trkpt lat="50.24898" lon="1.65866">
        <ele>4.1</ele>
        <time>2020-06-18T16:49:09Z</time>
      </trkpt>
      <trkpt lat="50.24905" lon="1.65869">
        <ele>4.1</ele>
        <time>2020-06-18T16:49:10Z</time>
      </trkpt>
      <trkpt lat="50.24911" lon="1.65872">
        <ele>4</ele>
        <time>2020-06-18T16:49:11Z</time>
      </trkpt>
      <trkpt lat="50.24918" lon="1.65875">
        <ele>4</ele>
        <time>2020-06-18T16:49:12Z</time>
      </trkpt>
      <trkpt lat="50.24925" lon="1.65878">
        <ele>4</ele>
        <time>2020-06-18T16:49:13Z</time>
      </trkpt>
      <trkpt lat="50.24931" lon="1.65879">
        <ele>4</ele>
        <time>2020-06-18T16:49:14Z</time>
      </trkpt>
      <trkpt lat="50.24937" lon="1.65882">
        <ele>4</ele>
        <time>2020-06-18T16:49:15Z</time>
      </trkpt>
      <trkpt lat="50.24944" lon="1.65885">
        <ele>4</ele>
        <time>2020-06-18T16:49:16Z</time>
      </trkpt>
      <trkpt lat="50.24951" lon="1.65885">
        <ele>4</ele>
        <time>2020-06-18T16:49:17Z</time>
      </trkpt>
      <trkpt lat="50.24959" lon="1.65884">
        <ele>4</ele>
        <time>2020-06-18T16:49:18Z</time>
      </trkpt>
      <trkpt lat="50.24965" lon="1.65883">
        <ele>4</ele>
        <time>2020-06-18T16:49:19Z</time>
      </trkpt>
      <trkpt lat="50.24971" lon="1.65882">
        <ele>4</ele>
        <time>2020-06-18T16:49:20Z</time>
      </trkpt>
      <trkpt lat="50.24977" lon="1.65881">
        <ele>4.1</ele>
        <time>2020-06-18T16:49:21Z</time>
      </trkpt>
      <trkpt lat="50.24984" lon="1.6588">
        <ele>4.1</ele>
        <time>2020-06-18T16:49:22Z</time>
      </trkpt>
      <trkpt lat="50.24989" lon="1.65879">
        <ele>4.1</ele>
        <time>2020-06-18T16:49:23Z</time>
      </trkpt>
      <trkpt lat="50.24994" lon="1.65877">
        <ele>4.1</ele>
        <time>2020-06-18T16:49:24Z</time>
      </trkpt>
      <trkpt lat="50.25" lon="1.65875">
        <ele>4.1</ele>
        <time>2020-06-18T16:49:25Z</time>
      </trkpt>
      <trkpt lat="50.25005" lon="1.65874">
        <ele>4</ele>
        <time>2020-06-18T16:49:26Z</time>
      </trkpt>
      <trkpt lat="50.25012" lon="1.65873">
        <ele>4</ele>
        <time>2020-06-18T16:49:27Z</time>
      </trkpt>
      <trkpt lat="50.25018" lon="1.65873">
        <ele>4</ele>
        <time>2020-06-18T16:49:28Z</time>
      </trkpt>
      <trkpt lat="50.25025" lon="1.65874">
        <ele>4</ele>
        <time>2020-06-18T16:49:29Z</time>
      </trkpt>
      <trkpt lat="50.2503" lon="1.65875">
        <ele>4</ele>
        <time>2020-06-18T16:49:30Z</time>
      </trkpt>
      <trkpt lat="50.25038" lon="1.65876">
        <ele>3.9</ele>
        <time>2020-06-18T16:49:31Z</time>
      </trkpt>
      <trkpt lat="50.25043" lon="1.65878">
        <ele>3.9</ele>
        <time>2020-06-18T16:49:32Z</time>
      </trkpt>
      <trkpt lat="50.25051" lon="1.65882">
        <ele>3.9</ele>
        <time>2020-06-18T16:49:33Z</time>
      </trkpt>
      <trkpt lat="50.25058" lon="1.65887">
        <ele>4</ele>
        <time>2020-06-18T16:49:34Z</time>
      </trkpt>
      <trkpt lat="50.25065" lon="1.65892">
        <ele>4</ele>
        <time>2020-06-18T16:49:35Z</time>
      </trkpt>
      <trkpt lat="50.25071" lon="1.65898">
        <ele>4</ele>
        <time>2020-06-18T16:49:36Z</time>
      </trkpt>
      <trkpt lat="50.25076" lon="1.65905">
        <ele>4.1</ele>
        <time>2020-06-18T16:49:37Z</time>
      </trkpt>
      <trkpt lat="50.25082" lon="1.65912">
        <ele>4.1</ele>
        <time>2020-06-18T16:49:38Z</time>
      </trkpt>
      <trkpt lat="50.25087" lon="1.65922">
        <ele>4.1</ele>
        <time>2020-06-18T16:49:39Z</time>
      </trkpt>
      <trkpt lat="50.25092" lon="1.65931">
        <ele>4.1</ele>
        <time>2020-06-18T16:49:40Z</time>
      </trkpt>
      <trkpt lat="50.25097" lon="1.65942">
        <ele>4.1</ele>
        <time>2020-06-18T16:49:41Z</time>
      </trkpt>
      <trkpt lat="50.25102" lon="1.65954">
        <ele>4</ele>
        <time>2020-06-18T16:49:42Z</time>
      </trkpt>
      <trkpt lat="50.25107" lon="1.65964">
        <ele>3.8</ele>
        <time>2020-06-18T16:49:43Z</time>
      </trkpt>
      <trkpt lat="50.25114" lon="1.65974">
        <ele>3.7</ele>
        <time>2020-06-18T16:49:44Z</time>
      </trkpt>
      <trkpt lat="50.2512" lon="1.65983">
        <ele>3.7</ele>
        <time>2020-06-18T16:49:45Z</time>
      </trkpt>
      <trkpt lat="50.25126" lon="1.65991">
        <ele>3.7</ele>
        <time>2020-06-18T16:49:46Z</time>
      </trkpt>
      <trkpt lat="50.25131" lon="1.65999">
        <ele>3.6</ele>
        <time>2020-06-18T16:49:47Z</time>
      </trkpt>
      <trkpt lat="50.25137" lon="1.66006">
        <ele>3.6</ele>
        <time>2020-06-18T16:49:48Z</time>
      </trkpt>
      <trkpt lat="50.25143" lon="1.66013">
        <ele>3.6</ele>
        <time>2020-06-18T16:49:49Z</time>
      </trkpt>
      <trkpt lat="50.25149" lon="1.6602">
        <ele>3.6</ele>
        <time>2020-06-18T16:49:50Z</time>
      </trkpt>
      <trkpt lat="50.25155" lon="1.66028">
        <ele>3.6</ele>
        <time>2020-06-18T16:49:51Z</time>
      </trkpt>
      <trkpt lat="50.25161" lon="1.66035">
        <ele>3.7</ele>
        <time>2020-06-18T16:49:52Z</time>
      </trkpt>
      <trkpt lat="50.25167" lon="1.66041">
        <ele>3.7</ele>
        <time>2020-06-18T16:49:53Z</time>
      </trkpt>
      <trkpt lat="50.25173" lon="1.66046">
        <ele>3.7</ele>
        <time>2020-06-18T16:49:54Z</time>
      </trkpt>
      <trkpt lat="50.25179" lon="1.6605">
        <ele>3.7</ele>
        <time>2020-06-18T16:49:55Z</time>
      </trkpt>
      <trkpt lat="50.25185" lon="1.66053">
        <ele>3.8</ele>
        <time>2020-06-18T16:49:56Z</time>
      </trkpt>
      <trkpt lat="50.25192" lon="1.66053">
        <ele>3.9</ele>
        <time>2020-06-18T16:49:57Z</time>
      </trkpt>
      <trkpt lat="50.25199" lon="1.66054">
        <ele>4</ele>
        <time>2020-06-18T16:49:58Z</time>
      </trkpt>
      <trkpt lat="50.25205" lon="1.66054">
        <ele>4.1</ele>
        <time>2020-06-18T16:49:59Z</time>
      </trkpt>
      <trkpt lat="50.25212" lon="1.66053">
        <ele>4.1</ele>
        <time>2020-06-18T16:50:00Z</time>
      </trkpt>
      <trkpt lat="50.25218" lon="1.66052">
        <ele>4.2</ele>
        <time>2020-06-18T16:50:01Z</time>
      </trkpt>
      <trkpt lat="50.25224" lon="1.66051">
        <ele>4.3</ele>
        <time>2020-06-18T16:50:02Z</time>
      </trkpt>
      <trkpt lat="50.2523" lon="1.6605">
        <ele>4.3</ele>
        <time>2020-06-18T16:50:03Z</time>
      </trkpt>
      <trkpt lat="50.25236" lon="1.66049">
        <ele>4.4</ele>
        <time>2020-06-18T16:50:04Z</time>
      </trkpt>
      <trkpt lat="50.25242" lon="1.66047">
        <ele>4.4</ele>
        <time>2020-06-18T16:50:05Z</time>
      </trkpt>
      <trkpt lat="50.25248" lon="1.66046">
        <ele>4.5</ele>
        <time>2020-06-18T16:50:06Z</time>
      </trkpt>
      <trkpt lat="50.25254" lon="1.66045">
        <ele>4.6</ele>
        <time>2020-06-18T16:50:07Z</time>
      </trkpt>
      <trkpt lat="50.2526" lon="1.66047">
        <ele>4.7</ele>
        <time>2020-06-18T16:50:08Z</time>
      </trkpt>
      <trkpt lat="50.25267" lon="1.66049">
        <ele>4.8</ele>
        <time>2020-06-18T16:50:09Z</time>
      </trkpt>
      <trkpt lat="50.25273" lon="1.66053">
        <ele>4.9</ele>
        <time>2020-06-18T16:50:10Z</time>
      </trkpt>
      <trkpt lat="50.25279" lon="1.66057">
        <ele>5</ele>
        <time>2020-06-18T16:50:11Z</time>
      </trkpt>
      <trkpt lat="50.25285" lon="1.6606">
        <ele>4.9</ele>
        <time>2020-06-18T16:50:12Z</time>
      </trkpt>
      <trkpt lat="50.25291" lon="1.66063">
        <ele>4.7</ele>
        <time>2020-06-18T16:50:13Z</time>
      </trkpt>
      <trkpt lat="50.25298" lon="1.66063">
        <ele>4.6</ele>
        <time>2020-06-18T16:50:14Z</time>
      </trkpt>
      <trkpt lat="50.25304" lon="1.66062">
        <ele>4.6</ele>
        <time>2020-06-18T16:50:15Z</time>
      </trkpt>
      <trkpt lat="50.2531" lon="1.66058">
        <ele>4.6</ele>
        <time>2020-06-18T16:50:16Z</time>
      </trkpt>
      <trkpt lat="50.25315" lon="1.66054">
        <ele>4.6</ele>
        <time>2020-06-18T16:50:17Z</time>
      </trkpt>
      <trkpt lat="50.2532" lon="1.6605">
        <ele>4.7</ele>
        <time>2020-06-18T16:50:18Z</time>
      </trkpt>
      <trkpt lat="50.25325" lon="1.66049">
        <ele>4.8</ele>
        <time>2020-06-18T16:50:19Z</time>
      </trkpt>
      <trkpt lat="50.25329" lon="1.66045">
        <ele>4.8</ele>
        <time>2020-06-18T16:50:20Z</time>
      </trkpt>
      <trkpt lat="50.25333" lon="1.66041">
        <ele>4.9</ele>
        <time>2020-06-18T16:50:21Z</time>
      </trkpt>
      <trkpt lat="50.25336" lon="1.66036">
        <ele>5</ele>
        <time>2020-06-18T16:50:22Z</time>
      </trkpt>
      <trkpt lat="50.2534" lon="1.66032">
        <ele>5.1</ele>
        <time>2020-06-18T16:50:23Z</time>
      </trkpt>
      <trkpt lat="50.25343" lon="1.66029">
        <ele>5.2</ele>
        <time>2020-06-18T16:50:24Z</time>
      </trkpt>
      <trkpt lat="50.25346" lon="1.66027">
        <ele>5.2</ele>
        <time>2020-06-18T16:50:25Z</time>
      </trkpt>
      <trkpt lat="50.25349" lon="1.66029">
        <ele>5.3</ele>
        <time>2020-06-18T16:50:26Z</time>
      </trkpt>
      <trkpt lat="50.2535" lon="1.6603">
        <ele>5.3</ele>
        <time>2020-06-18T16:50:27Z</time>
      </trkpt>
      <trkpt lat="50.25353" lon="1.66035">
        <ele>5.3</ele>
        <time>2020-06-18T16:50:28Z</time>
      </trkpt>
      <trkpt lat="50.25355" lon="1.66043">
        <ele>5.2</ele>
        <time>2020-06-18T16:50:29Z</time>
      </trkpt>
      <trkpt lat="50.25358" lon="1.66051">
        <ele>5.2</ele>
        <time>2020-06-18T16:50:30Z</time>
      </trkpt>
      <trkpt lat="50.25361" lon="1.66059">
        <ele>5.2</ele>
        <time>2020-06-18T16:50:31Z</time>
      </trkpt>
      <trkpt lat="50.25364" lon="1.66069">
        <ele>5.1</ele>
        <time>2020-06-18T16:50:32Z</time>
      </trkpt>
      <trkpt lat="50.25368" lon="1.66078">
        <ele>5.1</ele>
        <time>2020-06-18T16:50:33Z</time>
      </trkpt>
      <trkpt lat="50.25372" lon="1.66087">
        <ele>5.1</ele>
        <time>2020-06-18T16:50:34Z</time>
      </trkpt>
      <trkpt lat="50.25375" lon="1.66098">
        <ele>5.1</ele>
        <time>2020-06-18T16:50:35Z</time>
      </trkpt>
      <trkpt lat="50.25379" lon="1.66107">
        <ele>5.1</ele>
        <time>2020-06-18T16:50:36Z</time>
      </trkpt>
      <trkpt lat="50.25384" lon="1.66115">
        <ele>5.1</ele>
        <time>2020-06-18T16:50:37Z</time>
      </trkpt>
      <trkpt lat="50.25389" lon="1.66124">
        <ele>5.1</ele>
        <time>2020-06-18T16:50:38Z</time>
      </trkpt>
      <trkpt lat="50.25393" lon="1.66132">
        <ele>5.1</ele>
        <time>2020-06-18T16:50:39Z</time>
      </trkpt>
      <trkpt lat="50.25397" lon="1.66141">
        <ele>5.1</ele>
        <time>2020-06-18T16:50:40Z</time>
      </trkpt>
      <trkpt lat="50.254" lon="1.6615">
        <ele>5.1</ele>
        <time>2020-06-18T16:50:41Z</time>
      </trkpt>
      <trkpt lat="50.25404" lon="1.66159">
        <ele>5.1</ele>
        <time>2020-06-18T16:50:42Z</time>
      </trkpt>
      <trkpt lat="50.25408" lon="1.66168">
        <ele>5.2</ele>
        <time>2020-06-18T16:50:43Z</time>
      </trkpt>
      <trkpt lat="50.25412" lon="1.66177">
        <ele>5.2</ele>
        <time>2020-06-18T16:50:44Z</time>
      </trkpt>
      <trkpt lat="50.25417" lon="1.66186">
        <ele>5.2</ele>
        <time>2020-06-18T16:50:45Z</time>
      </trkpt>
      <trkpt lat="50.25421" lon="1.66196">
        <ele>5.3</ele>
        <time>2020-06-18T16:50:46Z</time>
      </trkpt>
      <trkpt lat="50.25425" lon="1.66206">
        <ele>5.3</ele>
        <time>2020-06-18T16:50:47Z</time>
      </trkpt>
      <trkpt lat="50.25429" lon="1.66214">
        <ele>5.4</ele>
        <time>2020-06-18T16:50:48Z</time>
      </trkpt>
      <trkpt lat="50.25433" lon="1.66223">
        <ele>5.3</ele>
        <time>2020-06-18T16:50:49Z</time>
      </trkpt>
      <trkpt lat="50.25438" lon="1.66231">
        <ele>5.3</ele>
        <time>2020-06-18T16:50:50Z</time>
      </trkpt>
      <trkpt lat="50.25442" lon="1.66241">
        <ele>5.3</ele>
        <time>2020-06-18T16:50:51Z</time>
      </trkpt>
      <trkpt lat="50.25446" lon="1.66251">
        <ele>5.3</ele>
        <time>2020-06-18T16:50:52Z</time>
      </trkpt>
      <trkpt lat="50.2545" lon="1.6626">
        <ele>5.3</ele>
        <time>2020-06-18T16:50:53Z</time>
      </trkpt>
      <trkpt lat="50.25454" lon="1.66269">
        <ele>5.3</ele>
        <time>2020-06-18T16:50:54Z</time>
      </trkpt>
      <trkpt lat="50.25458" lon="1.66279">
        <ele>5.3</ele>
        <time>2020-06-18T16:50:55Z</time>
      </trkpt>
      <trkpt lat="50.25462" lon="1.66288">
        <ele>5.3</ele>
        <time>2020-06-18T16:50:56Z</time>
      </trkpt>
      <trkpt lat="50.25466" lon="1.66297">
        <ele>5.3</ele>
        <time>2020-06-18T16:50:57Z</time>
      </trkpt>
      <trkpt lat="50.2547" lon="1.66306">
        <ele>5.3</ele>
        <time>2020-06-18T16:50:58Z</time>
      </trkpt>
      <trkpt lat="50.25473" lon="1.66315">
        <ele>5.3</ele>
        <time>2020-06-18T16:50:59Z</time>
      </trkpt>
      <trkpt lat="50.25478" lon="1.66324">
        <ele>5.3</ele>
        <time>2020-06-18T16:51:00Z</time>
      </trkpt>
      <trkpt lat="50.25482" lon="1.66333">
        <ele>5.3</ele>
        <time>2020-06-18T16:51:01Z</time>
      </trkpt>
      <trkpt lat="50.25487" lon="1.66341">
        <ele>5.3</ele>
        <time>2020-06-18T16:51:02Z</time>
      </trkpt>
      <trkpt lat="50.25491" lon="1.6635">
        <ele>5.3</ele>
        <time>2020-06-18T16:51:03Z</time>
      </trkpt>
      <trkpt lat="50.25495" lon="1.66358">
        <ele>5.3</ele>
        <time>2020-06-18T16:51:04Z</time>
      </trkpt>
      <trkpt lat="50.255" lon="1.66367">
        <ele>5.3</ele>
        <time>2020-06-18T16:51:05Z</time>
      </trkpt>
      <trkpt lat="50.25505" lon="1.66376">
        <ele>5.3</ele>
        <time>2020-06-18T16:51:06Z</time>
      </trkpt>
      <trkpt lat="50.2551" lon="1.66384">
        <ele>5.3</ele>
        <time>2020-06-18T16:51:07Z</time>
      </trkpt>
      <trkpt lat="50.25515" lon="1.66392">
        <ele>5.3</ele>
        <time>2020-06-18T16:51:08Z</time>
      </trkpt>
      <trkpt lat="50.2552" lon="1.664">
        <ele>5.4</ele>
        <time>2020-06-18T16:51:09Z</time>
      </trkpt>
      <trkpt lat="50.25525" lon="1.66409">
        <ele>5.4</ele>
        <time>2020-06-18T16:51:10Z</time>
      </trkpt>
      <trkpt lat="50.2553" lon="1.66416">
        <ele>5.3</ele>
        <time>2020-06-18T16:51:11Z</time>
      </trkpt>
      <trkpt lat="50.25537" lon="1.66423">
        <ele>5.2</ele>
        <time>2020-06-18T16:51:12Z</time>
      </trkpt>
      <trkpt lat="50.25542" lon="1.6643">
        <ele>5.1</ele>
        <time>2020-06-18T16:51:13Z</time>
      </trkpt>
      <trkpt lat="50.25548" lon="1.66438">
        <ele>5.1</ele>
        <time>2020-06-18T16:51:14Z</time>
      </trkpt>
      <trkpt lat="50.25554" lon="1.66444">
        <ele>5.1</ele>
        <time>2020-06-18T16:51:15Z</time>
      </trkpt>
      <trkpt lat="50.25559" lon="1.66451">
        <ele>5.1</ele>
        <time>2020-06-18T16:51:16Z</time>
      </trkpt>
      <trkpt lat="50.25566" lon="1.66457">
        <ele>5</ele>
        <time>2020-06-18T16:51:17Z</time>
      </trkpt>
      <trkpt lat="50.25572" lon="1.66463">
        <ele>5</ele>
        <time>2020-06-18T16:51:18Z</time>
      </trkpt>
      <trkpt lat="50.25579" lon="1.66468">
        <ele>5</ele>
        <time>2020-06-18T16:51:19Z</time>
      </trkpt>
      <trkpt lat="50.25585" lon="1.66476">
        <ele>5.1</ele>
        <time>2020-06-18T16:51:20Z</time>
      </trkpt>
      <trkpt lat="50.25592" lon="1.66481">
        <ele>5.1</ele>
        <time>2020-06-18T16:51:21Z</time>
      </trkpt>
      <trkpt lat="50.25599" lon="1.66488">
        <ele>5.1</ele>
        <time>2020-06-18T16:51:22Z</time>
      </trkpt>
      <trkpt lat="50.25606" lon="1.66494">
        <ele>5.1</ele>
        <time>2020-06-18T16:51:23Z</time>
      </trkpt>
      <trkpt lat="50.25613" lon="1.66499">
        <ele>5.1</ele>
        <time>2020-06-18T16:51:24Z</time>
      </trkpt>
      <trkpt lat="50.25621" lon="1.66505">
        <ele>5.1</ele>
        <time>2020-06-18T16:51:25Z</time>
      </trkpt>
      <trkpt lat="50.25628" lon="1.6651">
        <ele>5.1</ele>
        <time>2020-06-18T16:51:26Z</time>
      </trkpt>
      <trkpt lat="50.25636" lon="1.66515">
        <ele>5.1</ele>
        <time>2020-06-18T16:51:27Z</time>
      </trkpt>
      <trkpt lat="50.25643" lon="1.6652">
        <ele>5.1</ele>
        <time>2020-06-18T16:51:28Z</time>
      </trkpt>
      <trkpt lat="50.25651" lon="1.66526">
        <ele>5.1</ele>
        <time>2020-06-18T16:51:29Z</time>
      </trkpt>
      <trkpt lat="50.25658" lon="1.6653">
        <ele>5.1</ele>
        <time>2020-06-18T16:51:30Z</time>
      </trkpt>
      <trkpt lat="50.25666" lon="1.66535">
        <ele>5.1</ele>
        <time>2020-06-18T16:51:31Z</time>
      </trkpt>
      <trkpt lat="50.25673" lon="1.66539">
        <ele>5.1</ele>
        <time>2020-06-18T16:51:32Z</time>
      </trkpt>
      <trkpt lat="50.2568" lon="1.66544">
        <ele>5</ele>
        <time>2020-06-18T16:51:33Z</time>
      </trkpt>
      <trkpt lat="50.25687" lon="1.66548">
        <ele>5</ele>
        <time>2020-06-18T16:51:34Z</time>
      </trkpt>
      <trkpt lat="50.25694" lon="1.66552">
        <ele>5</ele>
        <time>2020-06-18T16:51:35Z</time>
      </trkpt>
      <trkpt lat="50.25701" lon="1.66557">
        <ele>5</ele>
        <time>2020-06-18T16:51:36Z</time>
      </trkpt>
      <trkpt lat="50.25709" lon="1.66561">
        <ele>5.1</ele>
        <time>2020-06-18T16:51:37Z</time>
      </trkpt>
      <trkpt lat="50.25716" lon="1.66567">
        <ele>5.1</ele>
        <time>2020-06-18T16:51:38Z</time>
      </trkpt>
      <trkpt lat="50.25723" lon="1.66572">
        <ele>5.1</ele>
        <time>2020-06-18T16:51:39Z</time>
      </trkpt>
      <trkpt lat="50.25731" lon="1.66576">
        <ele>5.1</ele>
        <time>2020-06-18T16:51:40Z</time>
      </trkpt>
      <trkpt lat="50.25738" lon="1.66582">
        <ele>5.1</ele>
        <time>2020-06-18T16:51:41Z</time>
      </trkpt>
      <trkpt lat="50.25745" lon="1.66586">
        <ele>5.1</ele>
        <time>2020-06-18T16:51:42Z</time>
      </trkpt>
      <trkpt lat="50.25752" lon="1.66592">
        <ele>5.1</ele>
        <time>2020-06-18T16:51:43Z</time>
      </trkpt>
      <trkpt lat="50.2576" lon="1.66597">
        <ele>5.1</ele>
        <time>2020-06-18T16:51:44Z</time>
      </trkpt>
      <trkpt lat="50.25767" lon="1.66601">
        <ele>5.1</ele>
        <time>2020-06-18T16:51:45Z</time>
      </trkpt>
      <trkpt lat="50.25775" lon="1.66607">
        <ele>5.1</ele>
        <time>2020-06-18T16:51:46Z</time>
      </trkpt>
      <trkpt lat="50.25782" lon="1.6661">
        <ele>5.1</ele>
        <time>2020-06-18T16:51:47Z</time>
      </trkpt>
      <trkpt lat="50.2579" lon="1.66615">
        <ele>5.1</ele>
        <time>2020-06-18T16:51:48Z</time>
      </trkpt>
      <trkpt lat="50.25798" lon="1.6662">
        <ele>5.1</ele>
        <time>2020-06-18T16:51:49Z</time>
      </trkpt>
      <trkpt lat="50.25805" lon="1.66624">
        <ele>5.1</ele>
        <time>2020-06-18T16:51:50Z</time>
      </trkpt>
      <trkpt lat="50.25812" lon="1.66629">
        <ele>5</ele>
        <time>2020-06-18T16:51:51Z</time>
      </trkpt>
      <trkpt lat="50.25819" lon="1.66634">
        <ele>5</ele>
        <time>2020-06-18T16:51:52Z</time>
      </trkpt>
      <trkpt lat="50.25826" lon="1.66639">
        <ele>5</ele>
        <time>2020-06-18T16:51:53Z</time>
      </trkpt>
      <trkpt lat="50.25833" lon="1.66644">
        <ele>5</ele>
        <time>2020-06-18T16:51:54Z</time>
      </trkpt>
      <trkpt lat="50.25841" lon="1.66649">
        <ele>4.9</ele>
        <time>2020-06-18T16:51:55Z</time>
      </trkpt>
      <trkpt lat="50.25848" lon="1.66653">
        <ele>4.9</ele>
        <time>2020-06-18T16:51:56Z</time>
      </trkpt>
      <trkpt lat="50.25856" lon="1.66659">
        <ele>4.8</ele>
        <time>2020-06-18T16:51:57Z</time>
      </trkpt>
      <trkpt lat="50.25863" lon="1.66663">
        <ele>4.8</ele>
        <time>2020-06-18T16:51:58Z</time>
      </trkpt>
      <trkpt lat="50.25871" lon="1.66668">
        <ele>4.8</ele>
        <time>2020-06-18T16:51:59Z</time>
      </trkpt>
      <trkpt lat="50.25879" lon="1.66673">
        <ele>4.8</ele>
        <time>2020-06-18T16:52:00Z</time>
      </trkpt>
      <trkpt lat="50.25887" lon="1.66678">
        <ele>4.8</ele>
        <time>2020-06-18T16:52:01Z</time>
      </trkpt>
      <trkpt lat="50.25894" lon="1.66682">
        <ele>4.7</ele>
        <time>2020-06-18T16:52:02Z</time>
      </trkpt>
      <trkpt lat="50.25902" lon="1.66687">
        <ele>4.7</ele>
        <time>2020-06-18T16:52:03Z</time>
      </trkpt>
      <trkpt lat="50.2591" lon="1.66691">
        <ele>4.6</ele>
        <time>2020-06-18T16:52:04Z</time>
      </trkpt>
      <trkpt lat="50.25917" lon="1.66696">
        <ele>4.6</ele>
        <time>2020-06-18T16:52:05Z</time>
      </trkpt>
      <trkpt lat="50.25925" lon="1.667">
        <ele>4.5</ele>
        <time>2020-06-18T16:52:06Z</time>
      </trkpt>
      <trkpt lat="50.25933" lon="1.66705">
        <ele>4.4</ele>
        <time>2020-06-18T16:52:07Z</time>
      </trkpt>
      <trkpt lat="50.25941" lon="1.66709">
        <ele>4.4</ele>
        <time>2020-06-18T16:52:08Z</time>
      </trkpt>
      <trkpt lat="50.25949" lon="1.66712">
        <ele>4.4</ele>
        <time>2020-06-18T16:52:09Z</time>
      </trkpt>
      <trkpt lat="50.25956" lon="1.66716">
        <ele>4.5</ele>
        <time>2020-06-18T16:52:10Z</time>
      </trkpt>
      <trkpt lat="50.25964" lon="1.66719">
        <ele>4.6</ele>
        <time>2020-06-18T16:52:11Z</time>
      </trkpt>
      <trkpt lat="50.25972" lon="1.66722">
        <ele>4.7</ele>
        <time>2020-06-18T16:52:12Z</time>
      </trkpt>
      <trkpt lat="50.25981" lon="1.66726">
        <ele>4.7</ele>
        <time>2020-06-18T16:52:13Z</time>
      </trkpt>
      <trkpt lat="50.25989" lon="1.66729">
        <ele>4.6</ele>
        <time>2020-06-18T16:52:14Z</time>
      </trkpt>
      <trkpt lat="50.25997" lon="1.66732">
        <ele>4.6</ele>
        <time>2020-06-18T16:52:15Z</time>
      </trkpt>
      <trkpt lat="50.26005" lon="1.66735">
        <ele>4.5</ele>
        <time>2020-06-18T16:52:16Z</time>
      </trkpt>
      <trkpt lat="50.26013" lon="1.66738">
        <ele>4.5</ele>
        <time>2020-06-18T16:52:17Z</time>
      </trkpt>
      <trkpt lat="50.26021" lon="1.66741">
        <ele>4.5</ele>
        <time>2020-06-18T16:52:18Z</time>
      </trkpt>
      <trkpt lat="50.2603" lon="1.66744">
        <ele>4.4</ele>
        <time>2020-06-18T16:52:19Z</time>
      </trkpt>
      <trkpt lat="50.26038" lon="1.66746">
        <ele>4.4</ele>
        <time>2020-06-18T16:52:20Z</time>
      </trkpt>
      <trkpt lat="50.26046" lon="1.66747">
        <ele>4.4</ele>
        <time>2020-06-18T16:52:21Z</time>
      </trkpt>
      <trkpt lat="50.26054" lon="1.66748">
        <ele>4.4</ele>
        <time>2020-06-18T16:52:22Z</time>
      </trkpt>
      <trkpt lat="50.26062" lon="1.66749">
        <ele>4.4</ele>
        <time>2020-06-18T16:52:23Z</time>
      </trkpt>
      <trkpt lat="50.26069" lon="1.66749">
        <ele>4.4</ele>
        <time>2020-06-18T16:52:24Z</time>
      </trkpt>
      <trkpt lat="50.26076" lon="1.66749">
        <ele>4.4</ele>
        <time>2020-06-18T16:52:25Z</time>
      </trkpt>
      <trkpt lat="50.26083" lon="1.6675">
        <ele>4.5</ele>
        <time>2020-06-18T16:52:26Z</time>
      </trkpt>
      <trkpt lat="50.2609" lon="1.66751">
        <ele>4.5</ele>
        <time>2020-06-18T16:52:27Z</time>
      </trkpt>
      <trkpt lat="50.26097" lon="1.66752">
        <ele>4.6</ele>
        <time>2020-06-18T16:52:28Z</time>
      </trkpt>
      <trkpt lat="50.26104" lon="1.66754">
        <ele>4.7</ele>
        <time>2020-06-18T16:52:29Z</time>
      </trkpt>
      <trkpt lat="50.26111" lon="1.66757">
        <ele>4.8</ele>
        <time>2020-06-18T16:52:30Z</time>
      </trkpt>
      <trkpt lat="50.26116" lon="1.66763">
        <ele>5</ele>
        <time>2020-06-18T16:52:31Z</time>
      </trkpt>
      <trkpt lat="50.26122" lon="1.66769">
        <ele>5.1</ele>
        <time>2020-06-18T16:52:32Z</time>
      </trkpt>
      <trkpt lat="50.26128" lon="1.66773">
        <ele>5.3</ele>
        <time>2020-06-18T16:52:33Z</time>
      </trkpt>
      <trkpt lat="50.26134" lon="1.66778">
        <ele>5.3</ele>
        <time>2020-06-18T16:52:34Z</time>
      </trkpt>
      <trkpt lat="50.2614" lon="1.66777">
        <ele>5.3</ele>
        <time>2020-06-18T16:52:35Z</time>
      </trkpt>
      <trkpt lat="50.26146" lon="1.66772">
        <ele>5.4</ele>
        <time>2020-06-18T16:52:36Z</time>
      </trkpt>
      <trkpt lat="50.26152" lon="1.66766">
        <ele>5.5</ele>
        <time>2020-06-18T16:52:37Z</time>
      </trkpt>
      <trkpt lat="50.26156" lon="1.66758">
        <ele>5.6</ele>
        <time>2020-06-18T16:52:38Z</time>
      </trkpt>
      <trkpt lat="50.26157" lon="1.66748">
        <ele>5.6</ele>
        <time>2020-06-18T16:52:39Z</time>
      </trkpt>
      <trkpt lat="50.26156" lon="1.66738">
        <ele>5.7</ele>
        <time>2020-06-18T16:52:40Z</time>
      </trkpt>
      <trkpt lat="50.26155" lon="1.66729">
        <ele>5.7</ele>
        <time>2020-06-18T16:52:41Z</time>
      </trkpt>
      <trkpt lat="50.26152" lon="1.6672">
        <ele>5.9</ele>
        <time>2020-06-18T16:52:42Z</time>
      </trkpt>
      <trkpt lat="50.26148" lon="1.66713">
        <ele>5.8</ele>
        <time>2020-06-18T16:52:43Z</time>
      </trkpt>
      <trkpt lat="50.26143" lon="1.66712">
        <ele>5.7</ele>
        <time>2020-06-18T16:52:44Z</time>
      </trkpt>
      <trkpt lat="50.26137" lon="1.66711">
        <ele>5.6</ele>
        <time>2020-06-18T16:52:45Z</time>
      </trkpt>
      <trkpt lat="50.26131" lon="1.66715">
        <ele>5.5</ele>
        <time>2020-06-18T16:52:46Z</time>
      </trkpt>
      <trkpt lat="50.26126" lon="1.6672">
        <ele>5.4</ele>
        <time>2020-06-18T16:52:47Z</time>
      </trkpt>
      <trkpt lat="50.26121" lon="1.66726">
        <ele>5.3</ele>
        <time>2020-06-18T16:52:48Z</time>
      </trkpt>
      <trkpt lat="50.26118" lon="1.66735">
        <ele>5.2</ele>
        <time>2020-06-18T16:52:49Z</time>
      </trkpt>
      <trkpt lat="50.26117" lon="1.66744">
        <ele>5</ele>
        <time>2020-06-18T16:52:50Z</time>
      </trkpt>
      <trkpt lat="50.26118" lon="1.66754">
        <ele>4.9</ele>
        <time>2020-06-18T16:52:51Z</time>
      </trkpt>
      <trkpt lat="50.26119" lon="1.66764">
        <ele>5</ele>
        <time>2020-06-18T16:52:52Z</time>
      </trkpt>
      <trkpt lat="50.26123" lon="1.66772">
        <ele>5.2</ele>
        <time>2020-06-18T16:52:53Z</time>
      </trkpt>
      <trkpt lat="50.26128" lon="1.66777">
        <ele>5.3</ele>
        <time>2020-06-18T16:52:54Z</time>
      </trkpt>
      <trkpt lat="50.26134" lon="1.66779">
        <ele>5.3</ele>
        <time>2020-06-18T16:52:55Z</time>
      </trkpt>
      <trkpt lat="50.2614" lon="1.66778">
        <ele>5.3</ele>
        <time>2020-06-18T16:52:56Z</time>
      </trkpt>
      <trkpt lat="50.26146" lon="1.66776">
        <ele>5.4</ele>
        <time>2020-06-18T16:52:57Z</time>
      </trkpt>
      <trkpt lat="50.26152" lon="1.66771">
        <ele>5.5</ele>
        <time>2020-06-18T16:52:58Z</time>
      </trkpt>
      <trkpt lat="50.26158" lon="1.66766">
        <ele>5.6</ele>
        <time>2020-06-18T16:52:59Z</time>
      </trkpt>
      <trkpt lat="50.26164" lon="1.66761">
        <ele>5.6</ele>
        <time>2020-06-18T16:53:00Z</time>
      </trkpt>
      <trkpt lat="50.26171" lon="1.66759">
        <ele>5.7</ele>
        <time>2020-06-18T16:53:01Z</time>
      </trkpt>
      <trkpt lat="50.26178" lon="1.66758">
        <ele>5.7</ele>
        <time>2020-06-18T16:53:02Z</time>
      </trkpt>
      <trkpt lat="50.26185" lon="1.66756">
        <ele>5.7</ele>
        <time>2020-06-18T16:53:03Z</time>
      </trkpt>
      <trkpt lat="50.26192" lon="1.66754">
        <ele>5.7</ele>
        <time>2020-06-18T16:53:04Z</time>
      </trkpt>
      <trkpt lat="50.26199" lon="1.66752">
        <ele>5.7</ele>
        <time>2020-06-18T16:53:05Z</time>
      </trkpt>
      <trkpt lat="50.26206" lon="1.66752">
        <ele>5.7</ele>
        <time>2020-06-18T16:53:06Z</time>
      </trkpt>
      <trkpt lat="50.26214" lon="1.66751">
        <ele>5.7</ele>
        <time>2020-06-18T16:53:07Z</time>
      </trkpt>
      <trkpt lat="50.26221" lon="1.66751">
        <ele>5.8</ele>
        <time>2020-06-18T16:53:08Z</time>
      </trkpt>
      <trkpt lat="50.26228" lon="1.6675">
        <ele>5.8</ele>
        <time>2020-06-18T16:53:09Z</time>
      </trkpt>
      <trkpt lat="50.26236" lon="1.6675">
        <ele>5.9</ele>
        <time>2020-06-18T16:53:10Z</time>
      </trkpt>
      <trkpt lat="50.26244" lon="1.66751">
        <ele>6</ele>
        <time>2020-06-18T16:53:11Z</time>
      </trkpt>
      <trkpt lat="50.26251" lon="1.66751">
        <ele>6.1</ele>
        <time>2020-06-18T16:53:12Z</time>
      </trkpt>
      <trkpt lat="50.26259" lon="1.66751">
        <ele>6.1</ele>
        <time>2020-06-18T16:53:13Z</time>
      </trkpt>
      <trkpt lat="50.26266" lon="1.66751">
        <ele>6.2</ele>
        <time>2020-06-18T16:53:14Z</time>
      </trkpt>
      <trkpt lat="50.26273" lon="1.66752">
        <ele>6.2</ele>
        <time>2020-06-18T16:53:15Z</time>
      </trkpt>
      <trkpt lat="50.2628" lon="1.66753">
        <ele>6.3</ele>
        <time>2020-06-18T16:53:16Z</time>
      </trkpt>
      <trkpt lat="50.26287" lon="1.66753">
        <ele>6.7</ele>
        <time>2020-06-18T16:53:17Z</time>
      </trkpt>
      <trkpt lat="50.26294" lon="1.66752">
        <ele>6.9</ele>
        <time>2020-06-18T16:53:18Z</time>
      </trkpt>
      <trkpt lat="50.26301" lon="1.6675">
        <ele>7</ele>
        <time>2020-06-18T16:53:19Z</time>
      </trkpt>
      <trkpt lat="50.26308" lon="1.66749">
        <ele>7.1</ele>
        <time>2020-06-18T16:53:20Z</time>
      </trkpt>
      <trkpt lat="50.26314" lon="1.66749">
        <ele>7.2</ele>
        <time>2020-06-18T16:53:21Z</time>
      </trkpt>
      <trkpt lat="50.2632" lon="1.66748">
        <ele>7.2</ele>
        <time>2020-06-18T16:53:22Z</time>
      </trkpt>
      <trkpt lat="50.26326" lon="1.66747">
        <ele>7.3</ele>
        <time>2020-06-18T16:53:23Z</time>
      </trkpt>
      <trkpt lat="50.26332" lon="1.66746">
        <ele>7.3</ele>
        <time>2020-06-18T16:53:24Z</time>
      </trkpt>
      <trkpt lat="50.26337" lon="1.66744">
        <ele>7.3</ele>
        <time>2020-06-18T16:53:25Z</time>
      </trkpt>
      <trkpt lat="50.26343" lon="1.66742">
        <ele>7.3</ele>
        <time>2020-06-18T16:53:26Z</time>
      </trkpt>
      <trkpt lat="50.26348" lon="1.6674">
        <ele>7.3</ele>
        <time>2020-06-18T16:53:27Z</time>
      </trkpt>
      <trkpt lat="50.26354" lon="1.66738">
        <ele>7.4</ele>
        <time>2020-06-18T16:53:28Z</time>
      </trkpt>
      <trkpt lat="50.2636" lon="1.66736">
        <ele>7.4</ele>
        <time>2020-06-18T16:53:29Z</time>
      </trkpt>
      <trkpt lat="50.26366" lon="1.66732">
        <ele>7.5</ele>
        <time>2020-06-18T16:53:30Z</time>
      </trkpt>
      <trkpt lat="50.26372" lon="1.66729">
        <ele>7.5</ele>
        <time>2020-06-18T16:53:31Z</time>
      </trkpt>
      <trkpt lat="50.26378" lon="1.66727">
        <ele>7.6</ele>
        <time>2020-06-18T16:53:32Z</time>
      </trkpt>
      <trkpt lat="50.26384" lon="1.66724">
        <ele>7.6</ele>
        <time>2020-06-18T16:53:33Z</time>
      </trkpt>
      <trkpt lat="50.26389" lon="1.66722">
        <ele>7.7</ele>
        <time>2020-06-18T16:53:34Z</time>
      </trkpt>
      <trkpt lat="50.26394" lon="1.6672">
        <ele>7.8</ele>
        <time>2020-06-18T16:53:35Z</time>
      </trkpt>
      <trkpt lat="50.264" lon="1.66717">
        <ele>7.8</ele>
        <time>2020-06-18T16:53:36Z</time>
      </trkpt>
      <trkpt lat="50.26405" lon="1.66715">
        <ele>7.9</ele>
        <time>2020-06-18T16:53:37Z</time>
      </trkpt>
      <trkpt lat="50.2641" lon="1.66712">
        <ele>8</ele>
        <time>2020-06-18T16:53:38Z</time>
      </trkpt>
      <trkpt lat="50.26417" lon="1.66709">
        <ele>8</ele>
        <time>2020-06-18T16:53:39Z</time>
      </trkpt>
      <trkpt lat="50.26423" lon="1.66706">
        <ele>8.1</ele>
        <time>2020-06-18T16:53:40Z</time>
      </trkpt>
      <trkpt lat="50.26428" lon="1.66704">
        <ele>8.2</ele>
        <time>2020-06-18T16:53:41Z</time>
      </trkpt>
      <trkpt lat="50.26434" lon="1.66701">
        <ele>8.2</ele>
        <time>2020-06-18T16:53:42Z</time>
      </trkpt>
      <trkpt lat="50.2644" lon="1.66698">
        <ele>8.3</ele>
        <time>2020-06-18T16:53:43Z</time>
      </trkpt>
      <trkpt lat="50.26444" lon="1.66696">
        <ele>8.3</ele>
        <time>2020-06-18T16:53:44Z</time>
      </trkpt>
      <trkpt lat="50.26452" lon="1.66692">
        <ele>8.4</ele>
        <time>2020-06-18T16:53:45Z</time>
      </trkpt>
      <trkpt lat="50.26458" lon="1.66689">
        <ele>8.4</ele>
        <time>2020-06-18T16:53:46Z</time>
      </trkpt>
      <trkpt lat="50.26464" lon="1.66687">
        <ele>8.4</ele>
        <time>2020-06-18T16:53:47Z</time>
      </trkpt>
      <trkpt lat="50.2647" lon="1.66685">
        <ele>8.5</ele>
        <time>2020-06-18T16:53:48Z</time>
      </trkpt>
      <trkpt lat="50.26477" lon="1.66683">
        <ele>8.5</ele>
        <time>2020-06-18T16:53:49Z</time>
      </trkpt>
      <trkpt lat="50.26485" lon="1.66682">
        <ele>8.5</ele>
        <time>2020-06-18T16:53:50Z</time>
      </trkpt>
      <trkpt lat="50.26493" lon="1.6668">
        <ele>8.5</ele>
        <time>2020-06-18T16:53:51Z</time>
      </trkpt>
      <trkpt lat="50.26501" lon="1.66678">
        <ele>8.5</ele>
        <time>2020-06-18T16:53:52Z</time>
      </trkpt>
      <trkpt lat="50.26506" lon="1.66676">
        <ele>8.5</ele>
        <time>2020-06-18T16:53:53Z</time>
      </trkpt>
      <trkpt lat="50.26512" lon="1.66674">
        <ele>8.5</ele>
        <time>2020-06-18T16:53:54Z</time>
      </trkpt>
      <trkpt lat="50.26519" lon="1.66672">
        <ele>8.4</ele>
        <time>2020-06-18T16:53:55Z</time>
      </trkpt>
      <trkpt lat="50.26525" lon="1.66671">
        <ele>8.4</ele>
        <time>2020-06-18T16:53:56Z</time>
      </trkpt>
      <trkpt lat="50.26531" lon="1.66669">
        <ele>8.4</ele>
        <time>2020-06-18T16:53:57Z</time>
      </trkpt>
      <trkpt lat="50.26538" lon="1.66666">
        <ele>8.4</ele>
        <time>2020-06-18T16:53:58Z</time>
      </trkpt>
      <trkpt lat="50.26544" lon="1.66665">
        <ele>8.5</ele>
        <time>2020-06-18T16:53:59Z</time>
      </trkpt>
      <trkpt lat="50.2655" lon="1.66664">
        <ele>8.5</ele>
        <time>2020-06-18T16:54:00Z</time>
      </trkpt>
      <trkpt lat="50.26556" lon="1.66666">
        <ele>8.6</ele>
        <time>2020-06-18T16:54:01Z</time>
      </trkpt>
      <trkpt lat="50.2656" lon="1.66669">
        <ele>8.6</ele>
        <time>2020-06-18T16:54:02Z</time>
      </trkpt>
      <trkpt lat="50.26563" lon="1.66675">
        <ele>8.5</ele>
        <time>2020-06-18T16:54:03Z</time>
      </trkpt>
      <trkpt lat="50.26565" lon="1.66682">
        <ele>8.5</ele>
        <time>2020-06-18T16:54:04Z</time>
      </trkpt>
      <trkpt lat="50.26568" lon="1.66689">
        <ele>8.4</ele>
        <time>2020-06-18T16:54:05Z</time>
      </trkpt>
      <trkpt lat="50.2657" lon="1.66694">
        <ele>8.4</ele>
        <time>2020-06-18T16:54:06Z</time>
      </trkpt>
      <trkpt lat="50.26573" lon="1.667">
        <ele>8.4</ele>
        <time>2020-06-18T16:54:07Z</time>
      </trkpt>
      <trkpt lat="50.26575" lon="1.66707">
        <ele>8.3</ele>
        <time>2020-06-18T16:54:08Z</time>
      </trkpt>
      <trkpt lat="50.26577" lon="1.66716">
        <ele>8.3</ele>
        <time>2020-06-18T16:54:09Z</time>
      </trkpt>
      <trkpt lat="50.2658" lon="1.66722">
        <ele>8.2</ele>
        <time>2020-06-18T16:54:10Z</time>
      </trkpt>
      <trkpt lat="50.2658" lon="1.66725">
        <ele>8.2</ele>
        <time>2020-06-18T16:54:11Z</time>
      </trkpt>
      <trkpt lat="50.26582" lon="1.66729">
        <ele>8.2</ele>
        <time>2020-06-18T16:54:12Z</time>
      </trkpt>
      <trkpt lat="50.26583" lon="1.66732">
        <ele>8.2</ele>
        <time>2020-06-18T16:54:13Z</time>
      </trkpt>
      <trkpt lat="50.26582" lon="1.66733">
        <ele>8.2</ele>
        <time>2020-06-18T16:54:14Z</time>
      </trkpt>
      <trkpt lat="50.26585" lon="1.66734">
        <ele>8.1</ele>
        <time>2020-06-18T16:54:15Z</time>
      </trkpt>
      <trkpt lat="50.26585" lon="1.66734">
        <ele>8.1</ele>
        <time>2020-06-18T16:54:16Z</time>
      </trkpt>
      <trkpt lat="50.26584" lon="1.66734">
        <ele>8.1</ele>
        <time>2020-06-18T16:54:17Z</time>
      </trkpt>
      <trkpt lat="50.26585" lon="1.66735">
        <ele>8.1</ele>
        <time>2020-06-18T16:54:18Z</time>
      </trkpt>
      <trkpt lat="50.26586" lon="1.66736">
        <ele>8.1</ele>
        <time>2020-06-18T16:54:19Z</time>
      </trkpt>
      <trkpt lat="50.26586" lon="1.66736">
        <ele>8.1</ele>
        <time>2020-06-18T16:54:20Z</time>
      </trkpt>
      <trkpt lat="50.26585" lon="1.66735">
        <ele>8.1</ele>
        <time>2020-06-18T16:54:21Z</time>
      </trkpt>
      <trkpt lat="50.26585" lon="1.66736">
        <ele>8.1</ele>
        <time>2020-06-18T16:54:22Z</time>
      </trkpt>
      <trkpt lat="50.26585" lon="1.66736">
        <ele>8.1</ele>
        <time>2020-06-18T16:54:23Z</time>
      </trkpt>
      <trkpt lat="50.26586" lon="1.66736">
        <ele>8.1</ele>
        <time>2020-06-18T16:54:24Z</time>
      </trkpt>
      <trkpt lat="50.26585" lon="1.66736">
        <ele>8.1</ele>
        <time>2020-06-18T16:54:25Z</time>
      </trkpt>
      <trkpt lat="50.26585" lon="1.66735">
        <ele>8.1</ele>
        <time>2020-06-18T16:54:26Z</time>
      </trkpt>
      <trkpt lat="50.26586" lon="1.66734">
        <ele>8.1</ele>
        <time>2020-06-18T16:54:27Z</time>
      </trkpt>
      <trkpt lat="50.26585" lon="1.66733">
        <ele>8</ele>
        <time>2020-06-18T16:54:28Z</time>
      </trkpt>
      <trkpt lat="50.26585" lon="1.66732">
        <ele>8</ele>
        <time>2020-06-18T16:54:29Z</time>
      </trkpt>
      <trkpt lat="50.26584" lon="1.66731">
        <ele>8</ele>
        <time>2020-06-18T16:54:30Z</time>
      </trkpt>
      <trkpt lat="50.26583" lon="1.66729">
        <ele>8</ele>
        <time>2020-06-18T16:54:31Z</time>
      </trkpt>
      <trkpt lat="50.26582" lon="1.66728">
        <ele>8</ele>
        <time>2020-06-18T16:54:32Z</time>
      </trkpt>
      <trkpt lat="50.26582" lon="1.66727">
        <ele>8</ele>
        <time>2020-06-18T16:54:33Z</time>
      </trkpt>
      <trkpt lat="50.26582" lon="1.66726">
        <ele>8</ele>
        <time>2020-06-18T16:54:34Z</time>
      </trkpt>
      <trkpt lat="50.26582" lon="1.66726">
        <ele>8</ele>
        <time>2020-06-18T16:54:35Z</time>
      </trkpt>
      <trkpt lat="50.26582" lon="1.66726">
        <ele>8</ele>
        <time>2020-06-18T16:54:36Z</time>
      </trkpt>
      <trkpt lat="50.26582" lon="1.66725">
        <ele>8</ele>
        <time>2020-06-18T16:54:37Z</time>
      </trkpt>
      <trkpt lat="50.26583" lon="1.66725">
        <ele>8</ele>
        <time>2020-06-18T16:54:38Z</time>
      </trkpt>
      <trkpt lat="50.26583" lon="1.66725">
        <ele>8</ele>
        <time>2020-06-18T16:54:39Z</time>
      </trkpt>
      <trkpt lat="50.26583" lon="1.66724">
        <ele>8</ele>
        <time>2020-06-18T16:54:40Z</time>
      </trkpt>
      <trkpt lat="50.26583" lon="1.66724">
        <ele>8</ele>
        <time>2020-06-18T16:56:59Z</time>
      </trkpt>
      <trkpt lat="50.26583" lon="1.66724">
        <ele>8</ele>
        <time>2020-06-18T16:57:00Z</time>
      </trkpt>
      <trkpt lat="50.26583" lon="1.66723">
        <ele>8</ele>
        <time>2020-06-18T16:57:01Z</time>
      </trkpt>
      <trkpt lat="50.26583" lon="1.66717">
        <ele>8.1</ele>
        <time>2020-06-18T16:57:02Z</time>
      </trkpt>
      <trkpt lat="50.26583" lon="1.66715">
        <ele>8.1</ele>
        <time>2020-06-18T16:57:03Z</time>
      </trkpt>
      <trkpt lat="50.26582" lon="1.6671">
        <ele>8.1</ele>
        <time>2020-06-18T16:57:04Z</time>
      </trkpt>
      <trkpt lat="50.26581" lon="1.66708">
        <ele>8.1</ele>
        <time>2020-06-18T16:57:05Z</time>
      </trkpt>
      <trkpt lat="50.26581" lon="1.66703">
        <ele>8.2</ele>
        <time>2020-06-18T16:57:06Z</time>
      </trkpt>
      <trkpt lat="50.26582" lon="1.66697">
        <ele>8.2</ele>
        <time>2020-06-18T16:57:07Z</time>
      </trkpt>
      <trkpt lat="50.26582" lon="1.66692">
        <ele>8.2</ele>
        <time>2020-06-18T16:57:08Z</time>
      </trkpt>
      <trkpt lat="50.2658" lon="1.66687">
        <ele>8.3</ele>
        <time>2020-06-18T16:57:09Z</time>
      </trkpt>
      <trkpt lat="50.26579" lon="1.66686">
        <ele>8.3</ele>
        <time>2020-06-18T16:57:10Z</time>
      </trkpt>
      <trkpt lat="50.26576" lon="1.66684">
        <ele>8.3</ele>
        <time>2020-06-18T16:57:11Z</time>
      </trkpt>
      <trkpt lat="50.26574" lon="1.66685">
        <ele>8.3</ele>
        <time>2020-06-18T16:57:12Z</time>
      </trkpt>
      <trkpt lat="50.2657" lon="1.66685">
        <ele>8.4</ele>
        <time>2020-06-18T16:57:13Z</time>
      </trkpt>
      <trkpt lat="50.26569" lon="1.66685">
        <ele>8.4</ele>
        <time>2020-06-18T16:57:14Z</time>
      </trkpt>
      <trkpt lat="50.26565" lon="1.66684">
        <ele>8.4</ele>
        <time>2020-06-18T16:57:15Z</time>
      </trkpt>
      <trkpt lat="50.26564" lon="1.66683">
        <ele>8.4</ele>
        <time>2020-06-18T16:57:16Z</time>
      </trkpt>
      <trkpt lat="50.26561" lon="1.66681">
        <ele>8.5</ele>
        <time>2020-06-18T16:57:17Z</time>
      </trkpt>
      <trkpt lat="50.2656" lon="1.6668">
        <ele>8.5</ele>
        <time>2020-06-18T16:57:18Z</time>
      </trkpt>
      <trkpt lat="50.26559" lon="1.66678">
        <ele>8.5</ele>
        <time>2020-06-18T16:57:19Z</time>
      </trkpt>
      <trkpt lat="50.26558" lon="1.66676">
        <ele>8.5</ele>
        <time>2020-06-18T16:57:20Z</time>
      </trkpt>
      <trkpt lat="50.26556" lon="1.66671">
        <ele>8.6</ele>
        <time>2020-06-18T16:57:21Z</time>
      </trkpt>
      <trkpt lat="50.26556" lon="1.6667">
        <ele>8.6</ele>
        <time>2020-06-18T16:57:22Z</time>
      </trkpt>
      <trkpt lat="50.26559" lon="1.66666">
        <ele>8.6</ele>
        <time>2020-06-18T16:57:23Z</time>
      </trkpt>
      <trkpt lat="50.2656" lon="1.66665">
        <ele>8.6</ele>
        <time>2020-06-18T16:57:24Z</time>
      </trkpt>
      <trkpt lat="50.26563" lon="1.66663">
        <ele>8.6</ele>
        <time>2020-06-18T16:57:25Z</time>
      </trkpt>
      <trkpt lat="50.26564" lon="1.66662">
        <ele>8.6</ele>
        <time>2020-06-18T16:57:26Z</time>
      </trkpt>
      <trkpt lat="50.26568" lon="1.66661">
        <ele>8.6</ele>
        <time>2020-06-18T16:57:27Z</time>
      </trkpt>
      <trkpt lat="50.2657" lon="1.66661">
        <ele>8.6</ele>
        <time>2020-06-18T16:57:28Z</time>
      </trkpt>
      <trkpt lat="50.26574" lon="1.66661">
        <ele>8.6</ele>
        <time>2020-06-18T16:57:29Z</time>
      </trkpt>
      <trkpt lat="50.26577" lon="1.6666">
        <ele>8.6</ele>
        <time>2020-06-18T16:57:30Z</time>
      </trkpt>
      <trkpt lat="50.26581" lon="1.6666">
        <ele>8.6</ele>
        <time>2020-06-18T16:57:31Z</time>
      </trkpt>
      <trkpt lat="50.26582" lon="1.6666">
        <ele>8.6</ele>
        <time>2020-06-18T16:57:32Z</time>
      </trkpt>
      <trkpt lat="50.26586" lon="1.66659">
        <ele>8.7</ele>
        <time>2020-06-18T16:57:33Z</time>
      </trkpt>
      <trkpt lat="50.26587" lon="1.66659">
        <ele>8.7</ele>
        <time>2020-06-18T16:57:34Z</time>
      </trkpt>
      <trkpt lat="50.26589" lon="1.66659">
        <ele>8.7</ele>
        <time>2020-06-18T16:57:35Z</time>
      </trkpt>
      <trkpt lat="50.26594" lon="1.6666">
        <ele>8.7</ele>
        <time>2020-06-18T16:57:36Z</time>
      </trkpt>
      <trkpt lat="50.26598" lon="1.6666">
        <ele>8.7</ele>
        <time>2020-06-18T16:57:37Z</time>
      </trkpt>
      <trkpt lat="50.26603" lon="1.6666">
        <ele>8.7</ele>
        <time>2020-06-18T16:57:38Z</time>
      </trkpt>
      <trkpt lat="50.26608" lon="1.6666">
        <ele>8.7</ele>
        <time>2020-06-18T16:57:39Z</time>
      </trkpt>
      <trkpt lat="50.26614" lon="1.66659">
        <ele>8.7</ele>
        <time>2020-06-18T16:57:40Z</time>
      </trkpt>
      <trkpt lat="50.26618" lon="1.66658">
        <ele>8.8</ele>
        <time>2020-06-18T16:57:41Z</time>
      </trkpt>
      <trkpt lat="50.26624" lon="1.66658">
        <ele>8.8</ele>
        <time>2020-06-18T16:57:42Z</time>
      </trkpt>
      <trkpt lat="50.26629" lon="1.66656">
        <ele>8.8</ele>
        <time>2020-06-18T16:57:43Z</time>
      </trkpt>
      <trkpt lat="50.26634" lon="1.66656">
        <ele>8.8</ele>
        <time>2020-06-18T16:57:44Z</time>
      </trkpt>
      <trkpt lat="50.26639" lon="1.66656">
        <ele>8.8</ele>
        <time>2020-06-18T16:57:45Z</time>
      </trkpt>
      <trkpt lat="50.26644" lon="1.66655">
        <ele>8.8</ele>
        <time>2020-06-18T16:57:46Z</time>
      </trkpt>
      <trkpt lat="50.26648" lon="1.66655">
        <ele>8.9</ele>
        <time>2020-06-18T16:57:47Z</time>
      </trkpt>
      <trkpt lat="50.26653" lon="1.66654">
        <ele>8.9</ele>
        <time>2020-06-18T16:57:48Z</time>
      </trkpt>
      <trkpt lat="50.26658" lon="1.66653">
        <ele>8.9</ele>
        <time>2020-06-18T16:57:49Z</time>
      </trkpt>
      <trkpt lat="50.26662" lon="1.66652">
        <ele>8.9</ele>
        <time>2020-06-18T16:57:50Z</time>
      </trkpt>
      <trkpt lat="50.26667" lon="1.66651">
        <ele>9</ele>
        <time>2020-06-18T16:57:51Z</time>
      </trkpt>
      <trkpt lat="50.26672" lon="1.6665">
        <ele>9</ele>
        <time>2020-06-18T16:57:52Z</time>
      </trkpt>
      <trkpt lat="50.26677" lon="1.66649">
        <ele>9</ele>
        <time>2020-06-18T16:57:53Z</time>
      </trkpt>
      <trkpt lat="50.26682" lon="1.66647">
        <ele>9</ele>
        <time>2020-06-18T16:57:54Z</time>
      </trkpt>
      <trkpt lat="50.26687" lon="1.66645">
        <ele>9</ele>
        <time>2020-06-18T16:57:55Z</time>
      </trkpt>
      <trkpt lat="50.26693" lon="1.66646">
        <ele>9</ele>
        <time>2020-06-18T16:57:56Z</time>
      </trkpt>
      <trkpt lat="50.26698" lon="1.66645">
        <ele>9</ele>
        <time>2020-06-18T16:57:57Z</time>
      </trkpt>
      <trkpt lat="50.26703" lon="1.66644">
        <ele>9</ele>
        <time>2020-06-18T16:57:58Z</time>
      </trkpt>
      <trkpt lat="50.26708" lon="1.66644">
        <ele>9</ele>
        <time>2020-06-18T16:57:59Z</time>
      </trkpt>
      <trkpt lat="50.26713" lon="1.66643">
        <ele>9</ele>
        <time>2020-06-18T16:58:00Z</time>
      </trkpt>
      <trkpt lat="50.26718" lon="1.66643">
        <ele>9</ele>
        <time>2020-06-18T16:58:01Z</time>
      </trkpt>
      <trkpt lat="50.26724" lon="1.66643">
        <ele>9</ele>
        <time>2020-06-18T16:58:02Z</time>
      </trkpt>
      <trkpt lat="50.2673" lon="1.66641">
        <ele>9</ele>
        <time>2020-06-18T16:58:03Z</time>
      </trkpt>
      <trkpt lat="50.26736" lon="1.66639">
        <ele>9</ele>
        <time>2020-06-18T16:58:04Z</time>
      </trkpt>
      <trkpt lat="50.26741" lon="1.66637">
        <ele>8.9</ele>
        <time>2020-06-18T16:58:05Z</time>
      </trkpt>
      <trkpt lat="50.26746" lon="1.66636">
        <ele>8.9</ele>
        <time>2020-06-18T16:58:06Z</time>
      </trkpt>
      <trkpt lat="50.26752" lon="1.66636">
        <ele>8.9</ele>
        <time>2020-06-18T16:58:07Z</time>
      </trkpt>
      <trkpt lat="50.26756" lon="1.66637">
        <ele>8.9</ele>
        <time>2020-06-18T16:58:08Z</time>
      </trkpt>
      <trkpt lat="50.2676" lon="1.66637">
        <ele>8.9</ele>
        <time>2020-06-18T16:58:09Z</time>
      </trkpt>
      <trkpt lat="50.26765" lon="1.66635">
        <ele>8.9</ele>
        <time>2020-06-18T16:58:10Z</time>
      </trkpt>
      <trkpt lat="50.2677" lon="1.66635">
        <ele>8.9</ele>
        <time>2020-06-18T16:58:11Z</time>
      </trkpt>
      <trkpt lat="50.26776" lon="1.66634">
        <ele>8.8</ele>
        <time>2020-06-18T16:58:12Z</time>
      </trkpt>
      <trkpt lat="50.26782" lon="1.66634">
        <ele>8.8</ele>
        <time>2020-06-18T16:58:13Z</time>
      </trkpt>
      <trkpt lat="50.26788" lon="1.66633">
        <ele>8.7</ele>
        <time>2020-06-18T16:58:14Z</time>
      </trkpt>
      <trkpt lat="50.26794" lon="1.66632">
        <ele>8.7</ele>
        <time>2020-06-18T16:58:15Z</time>
      </trkpt>
      <trkpt lat="50.26799" lon="1.66631">
        <ele>8.6</ele>
        <time>2020-06-18T16:58:16Z</time>
      </trkpt>
      <trkpt lat="50.26805" lon="1.66629">
        <ele>8.6</ele>
        <time>2020-06-18T16:58:17Z</time>
      </trkpt>
      <trkpt lat="50.26809" lon="1.66627">
        <ele>8.6</ele>
        <time>2020-06-18T16:58:18Z</time>
      </trkpt>
      <trkpt lat="50.26814" lon="1.66626">
        <ele>8.6</ele>
        <time>2020-06-18T16:58:19Z</time>
      </trkpt>
      <trkpt lat="50.26819" lon="1.66626">
        <ele>8.6</ele>
        <time>2020-06-18T16:58:20Z</time>
      </trkpt>
      <trkpt lat="50.26824" lon="1.66626">
        <ele>8.6</ele>
        <time>2020-06-18T16:58:21Z</time>
      </trkpt>
      <trkpt lat="50.26828" lon="1.66625">
        <ele>8.6</ele>
        <time>2020-06-18T16:58:22Z</time>
      </trkpt>
      <trkpt lat="50.26832" lon="1.66624">
        <ele>8.6</ele>
        <time>2020-06-18T16:58:23Z</time>
      </trkpt>
      <trkpt lat="50.26837" lon="1.66624">
        <ele>8.6</ele>
        <time>2020-06-18T16:58:24Z</time>
      </trkpt>
      <trkpt lat="50.26842" lon="1.66623">
        <ele>8.6</ele>
        <time>2020-06-18T16:58:25Z</time>
      </trkpt>
      <trkpt lat="50.26846" lon="1.66623">
        <ele>8.6</ele>
        <time>2020-06-18T16:58:26Z</time>
      </trkpt>
      <trkpt lat="50.26851" lon="1.66622">
        <ele>8.6</ele>
        <time>2020-06-18T16:58:27Z</time>
      </trkpt>
      <trkpt lat="50.26857" lon="1.6662">
        <ele>8.6</ele>
        <time>2020-06-18T16:58:28Z</time>
      </trkpt>
      <trkpt lat="50.26862" lon="1.6662">
        <ele>8.7</ele>
        <time>2020-06-18T16:58:29Z</time>
      </trkpt>
      <trkpt lat="50.26869" lon="1.66622">
        <ele>8.7</ele>
        <time>2020-06-18T16:58:30Z</time>
      </trkpt>
      <trkpt lat="50.26875" lon="1.66623">
        <ele>8.7</ele>
        <time>2020-06-18T16:58:31Z</time>
      </trkpt>
      <trkpt lat="50.26882" lon="1.66623">
        <ele>8.6</ele>
        <time>2020-06-18T16:58:32Z</time>
      </trkpt>
      <trkpt lat="50.2689" lon="1.66622">
        <ele>8.5</ele>
        <time>2020-06-18T16:58:33Z</time>
      </trkpt>
      <trkpt lat="50.26897" lon="1.66621">
        <ele>8.4</ele>
        <time>2020-06-18T16:58:34Z</time>
      </trkpt>
      <trkpt lat="50.26904" lon="1.66621">
        <ele>8.3</ele>
        <time>2020-06-18T16:58:35Z</time>
      </trkpt>
      <trkpt lat="50.26911" lon="1.6662">
        <ele>8.3</ele>
        <time>2020-06-18T16:58:36Z</time>
      </trkpt>
      <trkpt lat="50.26918" lon="1.6662">
        <ele>8.2</ele>
        <time>2020-06-18T16:58:37Z</time>
      </trkpt>
      <trkpt lat="50.26924" lon="1.6662">
        <ele>8.1</ele>
        <time>2020-06-18T16:58:38Z</time>
      </trkpt>
      <trkpt lat="50.2693" lon="1.66619">
        <ele>8.1</ele>
        <time>2020-06-18T16:58:39Z</time>
      </trkpt>
      <trkpt lat="50.26936" lon="1.66618">
        <ele>8.1</ele>
        <time>2020-06-18T16:58:40Z</time>
      </trkpt>
      <trkpt lat="50.26943" lon="1.66616">
        <ele>8.1</ele>
        <time>2020-06-18T16:58:41Z</time>
      </trkpt>
      <trkpt lat="50.2695" lon="1.66615">
        <ele>8</ele>
        <time>2020-06-18T16:58:42Z</time>
      </trkpt>
      <trkpt lat="50.26956" lon="1.66614">
        <ele>7.9</ele>
        <time>2020-06-18T16:58:43Z</time>
      </trkpt>
      <trkpt lat="50.26963" lon="1.66614">
        <ele>7.8</ele>
        <time>2020-06-18T16:58:44Z</time>
      </trkpt>
      <trkpt lat="50.26971" lon="1.66614">
        <ele>7.7</ele>
        <time>2020-06-18T16:58:45Z</time>
      </trkpt>
      <trkpt lat="50.26978" lon="1.66616">
        <ele>7.6</ele>
        <time>2020-06-18T16:58:46Z</time>
      </trkpt>
      <trkpt lat="50.26984" lon="1.66617">
        <ele>7.5</ele>
        <time>2020-06-18T16:58:47Z</time>
      </trkpt>
      <trkpt lat="50.26991" lon="1.66618">
        <ele>7.5</ele>
        <time>2020-06-18T16:58:48Z</time>
      </trkpt>
      <trkpt lat="50.26998" lon="1.6662">
        <ele>7.4</ele>
        <time>2020-06-18T16:58:49Z</time>
      </trkpt>
      <trkpt lat="50.27005" lon="1.66623">
        <ele>7.4</ele>
        <time>2020-06-18T16:58:50Z</time>
      </trkpt>
      <trkpt lat="50.27012" lon="1.66624">
        <ele>7.3</ele>
        <time>2020-06-18T16:58:51Z</time>
      </trkpt>
      <trkpt lat="50.27018" lon="1.66626">
        <ele>7.3</ele>
        <time>2020-06-18T16:58:52Z</time>
      </trkpt>
      <trkpt lat="50.27025" lon="1.66627">
        <ele>7.3</ele>
        <time>2020-06-18T16:58:53Z</time>
      </trkpt>
      <trkpt lat="50.27031" lon="1.66629">
        <ele>7.2</ele>
        <time>2020-06-18T16:58:54Z</time>
      </trkpt>
      <trkpt lat="50.27038" lon="1.6663">
        <ele>7.2</ele>
        <time>2020-06-18T16:58:55Z</time>
      </trkpt>
      <trkpt lat="50.27045" lon="1.66633">
        <ele>7.1</ele>
        <time>2020-06-18T16:58:56Z</time>
      </trkpt>
      <trkpt lat="50.27051" lon="1.66635">
        <ele>7.1</ele>
        <time>2020-06-18T16:58:57Z</time>
      </trkpt>
      <trkpt lat="50.27058" lon="1.66637">
        <ele>7.1</ele>
        <time>2020-06-18T16:58:58Z</time>
      </trkpt>
      <trkpt lat="50.27064" lon="1.66639">
        <ele>7.1</ele>
        <time>2020-06-18T16:58:59Z</time>
      </trkpt>
      <trkpt lat="50.27071" lon="1.66641">
        <ele>7.2</ele>
        <time>2020-06-18T16:59:00Z</time>
      </trkpt>
      <trkpt lat="50.27077" lon="1.66644">
        <ele>7.1</ele>
        <time>2020-06-18T16:59:01Z</time>
      </trkpt>
      <trkpt lat="50.27084" lon="1.66647">
        <ele>7.1</ele>
        <time>2020-06-18T16:59:02Z</time>
      </trkpt>
      <trkpt lat="50.27091" lon="1.66649">
        <ele>7</ele>
        <time>2020-06-18T16:59:03Z</time>
      </trkpt>
      <trkpt lat="50.27098" lon="1.6665">
        <ele>7.1</ele>
        <time>2020-06-18T16:59:04Z</time>
      </trkpt>
      <trkpt lat="50.27106" lon="1.66651">
        <ele>7.1</ele>
        <time>2020-06-18T16:59:05Z</time>
      </trkpt>
      <trkpt lat="50.27112" lon="1.66652">
        <ele>7.1</ele>
        <time>2020-06-18T16:59:06Z</time>
      </trkpt>
      <trkpt lat="50.27119" lon="1.66653">
        <ele>7.2</ele>
        <time>2020-06-18T16:59:07Z</time>
      </trkpt>
      <trkpt lat="50.27126" lon="1.66656">
        <ele>7.3</ele>
        <time>2020-06-18T16:59:08Z</time>
      </trkpt>
      <trkpt lat="50.27132" lon="1.66658">
        <ele>7.4</ele>
        <time>2020-06-18T16:59:09Z</time>
      </trkpt>
      <trkpt lat="50.27138" lon="1.6666">
        <ele>7.5</ele>
        <time>2020-06-18T16:59:10Z</time>
      </trkpt>
      <trkpt lat="50.27144" lon="1.66662">
        <ele>7.7</ele>
        <time>2020-06-18T16:59:11Z</time>
      </trkpt>
      <trkpt lat="50.27151" lon="1.66665">
        <ele>7.9</ele>
        <time>2020-06-18T16:59:12Z</time>
      </trkpt>
      <trkpt lat="50.27157" lon="1.66668">
        <ele>8.1</ele>
        <time>2020-06-18T16:59:13Z</time>
      </trkpt>
      <trkpt lat="50.27163" lon="1.66671">
        <ele>8.3</ele>
        <time>2020-06-18T16:59:14Z</time>
      </trkpt>
      <trkpt lat="50.27168" lon="1.66675">
        <ele>8.5</ele>
        <time>2020-06-18T16:59:15Z</time>
      </trkpt>
      <trkpt lat="50.27173" lon="1.66678">
        <ele>9</ele>
        <time>2020-06-18T16:59:16Z</time>
      </trkpt>
      <trkpt lat="50.27178" lon="1.66679">
        <ele>8.9</ele>
        <time>2020-06-18T16:59:17Z</time>
      </trkpt>
      <trkpt lat="50.27182" lon="1.66681">
        <ele>8.8</ele>
        <time>2020-06-18T16:59:18Z</time>
      </trkpt>
      <trkpt lat="50.27186" lon="1.66682">
        <ele>8.8</ele>
        <time>2020-06-18T16:59:19Z</time>
      </trkpt>
      <trkpt lat="50.2719" lon="1.66683">
        <ele>8.7</ele>
        <time>2020-06-18T16:59:20Z</time>
      </trkpt>
      <trkpt lat="50.27194" lon="1.66685">
        <ele>8.6</ele>
        <time>2020-06-18T16:59:21Z</time>
      </trkpt>
      <trkpt lat="50.27198" lon="1.66687">
        <ele>8.5</ele>
        <time>2020-06-18T16:59:22Z</time>
      </trkpt>
      <trkpt lat="50.27203" lon="1.66691">
        <ele>8.6</ele>
        <time>2020-06-18T16:59:23Z</time>
      </trkpt>
      <trkpt lat="50.27208" lon="1.66693">
        <ele>8.7</ele>
        <time>2020-06-18T16:59:24Z</time>
      </trkpt>
      <trkpt lat="50.27213" lon="1.66693">
        <ele>8.7</ele>
        <time>2020-06-18T16:59:25Z</time>
      </trkpt>
      <trkpt lat="50.27218" lon="1.66695">
        <ele>8.8</ele>
        <time>2020-06-18T16:59:26Z</time>
      </trkpt>
      <trkpt lat="50.27223" lon="1.66697">
        <ele>8.9</ele>
        <time>2020-06-18T16:59:27Z</time>
      </trkpt>
      <trkpt lat="50.27227" lon="1.66699">
        <ele>9</ele>
        <time>2020-06-18T16:59:28Z</time>
      </trkpt>
      <trkpt lat="50.27232" lon="1.66701">
        <ele>9.1</ele>
        <time>2020-06-18T16:59:29Z</time>
      </trkpt>
      <trkpt lat="50.27236" lon="1.66703">
        <ele>9.1</ele>
        <time>2020-06-18T16:59:30Z</time>
      </trkpt>
      <trkpt lat="50.2724" lon="1.66704">
        <ele>9.3</ele>
        <time>2020-06-18T16:59:31Z</time>
      </trkpt>
      <trkpt lat="50.27243" lon="1.66705">
        <ele>9.4</ele>
        <time>2020-06-18T16:59:32Z</time>
      </trkpt>
      <trkpt lat="50.27247" lon="1.66706">
        <ele>9.5</ele>
        <time>2020-06-18T16:59:33Z</time>
      </trkpt>
      <trkpt lat="50.27251" lon="1.66708">
        <ele>9.6</ele>
        <time>2020-06-18T16:59:34Z</time>
      </trkpt>
      <trkpt lat="50.27255" lon="1.66709">
        <ele>9.7</ele>
        <time>2020-06-18T16:59:35Z</time>
      </trkpt>
      <trkpt lat="50.27259" lon="1.6671">
        <ele>9.9</ele>
        <time>2020-06-18T16:59:36Z</time>
      </trkpt>
      <trkpt lat="50.27263" lon="1.66712">
        <ele>10</ele>
        <time>2020-06-18T16:59:37Z</time>
      </trkpt>
      <trkpt lat="50.27265" lon="1.66713">
        <ele>10.1</ele>
        <time>2020-06-18T16:59:38Z</time>
      </trkpt>
      <trkpt lat="50.27268" lon="1.66714">
        <ele>10.2</ele>
        <time>2020-06-18T16:59:39Z</time>
      </trkpt>
      <trkpt lat="50.27271" lon="1.66716">
        <ele>10.3</ele>
        <time>2020-06-18T16:59:40Z</time>
      </trkpt>
      <trkpt lat="50.27273" lon="1.66719">
        <ele>10.5</ele>
        <time>2020-06-18T16:59:41Z</time>
      </trkpt>
      <trkpt lat="50.27275" lon="1.66723">
        <ele>10.4</ele>
        <time>2020-06-18T16:59:42Z</time>
      </trkpt>
      <trkpt lat="50.27276" lon="1.66728">
        <ele>10.4</ele>
        <time>2020-06-18T16:59:43Z</time>
      </trkpt>
      <trkpt lat="50.27275" lon="1.66733">
        <ele>10.4</ele>
        <time>2020-06-18T16:59:44Z</time>
      </trkpt>
      <trkpt lat="50.27274" lon="1.66738">
        <ele>10.4</ele>
        <time>2020-06-18T16:59:45Z</time>
      </trkpt>
      <trkpt lat="50.27274" lon="1.66744">
        <ele>10.4</ele>
        <time>2020-06-18T16:59:46Z</time>
      </trkpt>
      <trkpt lat="50.27273" lon="1.6675">
        <ele>10.3</ele>
        <time>2020-06-18T16:59:47Z</time>
      </trkpt>
      <trkpt lat="50.27272" lon="1.66757">
        <ele>10.3</ele>
        <time>2020-06-18T16:59:48Z</time>
      </trkpt>
      <trkpt lat="50.27271" lon="1.66764">
        <ele>10.3</ele>
        <time>2020-06-18T16:59:49Z</time>
      </trkpt>
      <trkpt lat="50.27271" lon="1.6677">
        <ele>10.3</ele>
        <time>2020-06-18T16:59:50Z</time>
      </trkpt>
      <trkpt lat="50.27271" lon="1.66775">
        <ele>10.2</ele>
        <time>2020-06-18T16:59:51Z</time>
      </trkpt>
      <trkpt lat="50.2727" lon="1.66781">
        <ele>10.2</ele>
        <time>2020-06-18T16:59:52Z</time>
      </trkpt>
      <trkpt lat="50.2727" lon="1.66786">
        <ele>10.2</ele>
        <time>2020-06-18T16:59:53Z</time>
      </trkpt>
      <trkpt lat="50.2727" lon="1.66792">
        <ele>10.2</ele>
        <time>2020-06-18T16:59:54Z</time>
      </trkpt>
      <trkpt lat="50.2727" lon="1.66797">
        <ele>10.2</ele>
        <time>2020-06-18T16:59:55Z</time>
      </trkpt>
      <trkpt lat="50.2727" lon="1.66802">
        <ele>10.1</ele>
        <time>2020-06-18T16:59:56Z</time>
      </trkpt>
      <trkpt lat="50.27268" lon="1.66805">
        <ele>10.1</ele>
        <time>2020-06-18T16:59:57Z</time>
      </trkpt>
      <trkpt lat="50.27266" lon="1.66809">
        <ele>10.1</ele>
        <time>2020-06-18T16:59:58Z</time>
      </trkpt>
      <trkpt lat="50.27265" lon="1.66813">
        <ele>10.1</ele>
        <time>2020-06-18T16:59:59Z</time>
      </trkpt>
      <trkpt lat="50.27263" lon="1.66816">
        <ele>10.1</ele>
        <time>2020-06-18T17:00:00Z</time>
      </trkpt>
      <trkpt lat="50.27262" lon="1.66821">
        <ele>10.1</ele>
        <time>2020-06-18T17:00:01Z</time>
      </trkpt>
      <trkpt lat="50.27261" lon="1.66823">
        <ele>10.1</ele>
        <time>2020-06-18T17:00:02Z</time>
      </trkpt>
      <trkpt lat="50.2726" lon="1.66825">
        <ele>10.1</ele>
        <time>2020-06-18T17:00:03Z</time>
      </trkpt>
      <trkpt lat="50.27259" lon="1.66826">
        <ele>10.1</ele>
        <time>2020-06-18T17:00:04Z</time>
      </trkpt>
      <trkpt lat="50.27258" lon="1.66827">
        <ele>10.1</ele>
        <time>2020-06-18T17:00:05Z</time>
      </trkpt>
      <trkpt lat="50.27258" lon="1.66829">
        <ele>10.1</ele>
        <time>2020-06-18T17:00:06Z</time>
      </trkpt>
      <trkpt lat="50.27259" lon="1.66829">
        <ele>10.1</ele>
        <time>2020-06-18T17:00:07Z</time>
      </trkpt>
      <trkpt lat="50.27259" lon="1.6683">
        <ele>10.1</ele>
        <time>2020-06-18T17:00:08Z</time>
      </trkpt>
      <trkpt lat="50.27259" lon="1.66831">
        <ele>10.1</ele>
        <time>2020-06-18T17:00:09Z</time>
      </trkpt>
      <trkpt lat="50.27258" lon="1.66831">
        <ele>10.2</ele>
        <time>2020-06-18T17:00:10Z</time>
      </trkpt>
      <trkpt lat="50.27258" lon="1.66831">
        <ele>10.2</ele>
        <time>2020-06-18T17:00:11Z</time>
      </trkpt>
      <trkpt lat="50.27258" lon="1.66832">
        <ele>10.2</ele>
        <time>2020-06-18T17:00:12Z</time>
      </trkpt>
      <trkpt lat="50.27257" lon="1.66832">
        <ele>10.2</ele>
        <time>2020-06-18T17:00:13Z</time>
      </trkpt>
      <trkpt lat="50.27256" lon="1.66832">
        <ele>10.2</ele>
        <time>2020-06-18T17:00:14Z</time>
      </trkpt>
      <trkpt lat="50.27256" lon="1.66833">
        <ele>10.2</ele>
        <time>2020-06-18T17:00:15Z</time>
      </trkpt>
      <trkpt lat="50.27255" lon="1.66833">
        <ele>10.2</ele>
        <time>2020-06-18T17:00:16Z</time>
      </trkpt>
      <trkpt lat="50.27264" lon="1.66841">
        <ele>9.9</ele>
        <time>2020-06-18T17:10:40Z</time>
      </trkpt>
      <trkpt lat="50.27265" lon="1.66839">
        <ele>9.9</ele>
        <time>2020-06-18T17:10:41Z</time>
      </trkpt>
      <trkpt lat="50.27267" lon="1.6684">
        <ele>9.9</ele>
        <time>2020-06-18T17:10:42Z</time>
      </trkpt>
      <trkpt lat="50.27268" lon="1.66841">
        <ele>9.9</ele>
        <time>2020-06-18T17:10:43Z</time>
      </trkpt>
      <trkpt lat="50.27269" lon="1.66841">
        <ele>9.9</ele>
        <time>2020-06-18T17:10:44Z</time>
      </trkpt>
      <trkpt lat="50.27269" lon="1.66842">
        <ele>9.9</ele>
        <time>2020-06-18T17:10:45Z</time>
      </trkpt>
      <trkpt lat="50.27269" lon="1.66842">
        <ele>9.9</ele>
        <time>2020-06-18T17:10:46Z</time>
      </trkpt>
      <trkpt lat="50.27268" lon="1.66841">
        <ele>9.9</ele>
        <time>2020-06-18T17:10:47Z</time>
      </trkpt>
      <trkpt lat="50.27268" lon="1.66841">
        <ele>9.8</ele>
        <time>2020-06-18T17:10:48Z</time>
      </trkpt>
      <trkpt lat="50.27268" lon="1.6684">
        <ele>9.8</ele>
        <time>2020-06-18T17:10:49Z</time>
      </trkpt>
      <trkpt lat="50.27268" lon="1.6684">
        <ele>9.8</ele>
        <time>2020-06-18T17:10:50Z</time>
      </trkpt>
      <trkpt lat="50.27268" lon="1.66839">
        <ele>9.8</ele>
        <time>2020-06-18T17:10:51Z</time>
      </trkpt>
      <trkpt lat="50.27268" lon="1.66839">
        <ele>9.8</ele>
        <time>2020-06-18T17:10:52Z</time>
      </trkpt>
      <trkpt lat="50.27268" lon="1.66838">
        <ele>9.8</ele>
        <time>2020-06-18T17:10:53Z</time>
      </trkpt>
      <trkpt lat="50.27267" lon="1.66838">
        <ele>9.8</ele>
        <time>2020-06-18T17:10:54Z</time>
      </trkpt>
      <trkpt lat="50.27267" lon="1.66838">
        <ele>9.8</ele>
        <time>2020-06-18T17:10:55Z</time>
      </trkpt>
      <trkpt lat="50.27267" lon="1.66837">
        <ele>9.8</ele>
        <time>2020-06-18T17:10:56Z</time>
      </trkpt>
      <trkpt lat="50.27267" lon="1.66837">
        <ele>9.8</ele>
        <time>2020-06-18T17:10:57Z</time>
      </trkpt>
      <trkpt lat="50.27267" lon="1.66836">
        <ele>9.8</ele>
        <time>2020-06-18T17:35:06Z</time>
      </trkpt>
      <trkpt lat="50.27267" lon="1.66836">
        <ele>9.8</ele>
        <time>2020-06-18T17:35:07Z</time>
      </trkpt>
      <trkpt lat="50.27267" lon="1.66834">
        <ele>9.8</ele>
        <time>2020-06-18T17:35:08Z</time>
      </trkpt>
      <trkpt lat="50.27265" lon="1.66834">
        <ele>9.8</ele>
        <time>2020-06-18T17:35:09Z</time>
      </trkpt>
      <trkpt lat="50.27264" lon="1.66833">
        <ele>9.8</ele>
        <time>2020-06-18T17:35:10Z</time>
      </trkpt>
      <trkpt lat="50.27264" lon="1.66834">
        <ele>9.8</ele>
        <time>2020-06-18T17:35:11Z</time>
      </trkpt>
      <trkpt lat="50.27263" lon="1.66835">
        <ele>9.8</ele>
        <time>2020-06-18T17:35:12Z</time>
      </trkpt>
      <trkpt lat="50.27262" lon="1.66836">
        <ele>9.8</ele>
        <time>2020-06-18T17:35:13Z</time>
      </trkpt>
      <trkpt lat="50.27262" lon="1.66835">
        <ele>9.8</ele>
        <time>2020-06-18T17:35:14Z</time>
      </trkpt>
      <trkpt lat="50.27262" lon="1.66834">
        <ele>9.8</ele>
        <time>2020-06-18T17:35:15Z</time>
      </trkpt>
      <trkpt lat="50.27261" lon="1.66833">
        <ele>9.8</ele>
        <time>2020-06-18T17:35:16Z</time>
      </trkpt>
      <trkpt lat="50.27261" lon="1.66833">
        <ele>9.8</ele>
        <time>2020-06-18T17:35:17Z</time>
      </trkpt>
      <trkpt lat="50.27261" lon="1.66833">
        <ele>9.8</ele>
        <time>2020-06-18T17:35:18Z</time>
      </trkpt>
      <trkpt lat="50.27261" lon="1.66833">
        <ele>9.8</ele>
        <time>2020-06-18T17:35:19Z</time>
      </trkpt>
      <trkpt lat="50.27261" lon="1.66832">
        <ele>9.8</ele>
        <time>2020-06-18T17:35:20Z</time>
      </trkpt>
      <trkpt lat="50.27261" lon="1.66833">
        <ele>9.8</ele>
        <time>2020-06-18T17:35:21Z</time>
      </trkpt>
      <trkpt lat="50.27261" lon="1.66832">
        <ele>9.8</ele>
        <time>2020-06-18T17:35:22Z</time>
      </trkpt>
      <trkpt lat="50.27261" lon="1.66833">
        <ele>9.8</ele>
        <time>2020-06-18T17:35:23Z</time>
      </trkpt>
      <trkpt lat="50.27261" lon="1.66833">
        <ele>9.8</ele>
        <time>2020-06-18T17:35:24Z</time>
      </trkpt>
      <trkpt lat="50.27261" lon="1.66833">
        <ele>9.8</ele>
        <time>2020-06-18T17:37:17Z</time>
      </trkpt>
      <trkpt lat="50.27261" lon="1.66833">
        <ele>9.8</ele>
        <time>2020-06-18T17:37:18Z</time>
      </trkpt>
      <trkpt lat="50.27261" lon="1.66833">
        <ele>9.8</ele>
        <time>2020-06-18T17:37:19Z</time>
      </trkpt>
      <trkpt lat="50.27261" lon="1.66833">
        <ele>9.8</ele>
        <time>2020-06-18T17:37:20Z</time>
      </trkpt>
      <trkpt lat="50.27261" lon="1.66833">
        <ele>9.8</ele>
        <time>2020-06-18T17:37:21Z</time>
      </trkpt>
      <trkpt lat="50.27261" lon="1.66833">
        <ele>9.8</ele>
        <time>2020-06-18T17:37:22Z</time>
      </trkpt>
      <trkpt lat="50.27261" lon="1.66833">
        <ele>9.8</ele>
        <time>2020-06-18T17:37:23Z</time>
      </trkpt>
      <trkpt lat="50.27261" lon="1.66833">
        <ele>9.8</ele>
        <time>2020-06-18T17:37:24Z</time>
      </trkpt>
      <trkpt lat="50.27261" lon="1.66833">
        <ele>9.8</ele>
        <time>2020-06-18T17:37:25Z</time>
      </trkpt>
      <trkpt lat="50.27261" lon="1.66833">
        <ele>9.8</ele>
        <time>2020-06-18T17:37:26Z</time>
      </trkpt>
      <trkpt lat="50.27261" lon="1.66834">
        <ele>9.8</ele>
        <time>2020-06-18T17:37:27Z</time>
      </trkpt>
      <trkpt lat="50.2726" lon="1.66834">
        <ele>9.8</ele>
        <time>2020-06-18T17:37:28Z</time>
      </trkpt>
      <trkpt lat="50.27261" lon="1.66834">
        <ele>9.8</ele>
        <time>2020-06-18T17:37:29Z</time>
      </trkpt>
      <trkpt lat="50.2726" lon="1.66835">
        <ele>9.8</ele>
        <time>2020-06-18T17:37:30Z</time>
      </trkpt>
      <trkpt lat="50.2726" lon="1.66835">
        <ele>9.8</ele>
        <time>2020-06-18T17:37:31Z</time>
      </trkpt>
      <trkpt lat="50.27259" lon="1.66838">
        <ele>9.8</ele>
        <time>2020-06-18T17:39:25Z</time>
      </trkpt>
      <trkpt lat="50.27259" lon="1.6684">
        <ele>9.8</ele>
        <time>2020-06-18T17:39:26Z</time>
      </trkpt>
      <trkpt lat="50.27259" lon="1.66842">
        <ele>9.8</ele>
        <time>2020-06-18T17:39:27Z</time>
      </trkpt>
      <trkpt lat="50.27259" lon="1.66842">
        <ele>9.7</ele>
        <time>2020-06-18T17:39:28Z</time>
      </trkpt>
      <trkpt lat="50.27258" lon="1.66845">
        <ele>9.7</ele>
        <time>2020-06-18T17:39:29Z</time>
      </trkpt>
      <trkpt lat="50.27257" lon="1.66846">
        <ele>9.7</ele>
        <time>2020-06-18T17:39:30Z</time>
      </trkpt>
      <trkpt lat="50.27257" lon="1.66848">
        <ele>9.7</ele>
        <time>2020-06-18T17:39:31Z</time>
      </trkpt>
      <trkpt lat="50.27255" lon="1.6685">
        <ele>9.7</ele>
        <time>2020-06-18T17:39:32Z</time>
      </trkpt>
      <trkpt lat="50.27254" lon="1.66851">
        <ele>9.7</ele>
        <time>2020-06-18T17:39:33Z</time>
      </trkpt>
      <trkpt lat="50.27254" lon="1.66852">
        <ele>9.7</ele>
        <time>2020-06-18T17:39:34Z</time>
      </trkpt>
      <trkpt lat="50.27252" lon="1.66857">
        <ele>9.7</ele>
        <time>2020-06-18T17:39:35Z</time>
      </trkpt>
      <trkpt lat="50.27251" lon="1.66859">
        <ele>9.7</ele>
        <time>2020-06-18T17:39:36Z</time>
      </trkpt>
      <trkpt lat="50.2725" lon="1.66866">
        <ele>9.7</ele>
        <time>2020-06-18T17:39:37Z</time>
      </trkpt>
      <trkpt lat="50.27249" lon="1.66868">
        <ele>9.7</ele>
        <time>2020-06-18T17:39:38Z</time>
      </trkpt>
      <trkpt lat="50.27248" lon="1.66872">
        <ele>9.7</ele>
        <time>2020-06-18T17:39:39Z</time>
      </trkpt>
      <trkpt lat="50.27246" lon="1.66875">
        <ele>9.6</ele>
        <time>2020-06-18T17:39:40Z</time>
      </trkpt>
      <trkpt lat="50.27245" lon="1.66879">
        <ele>9.6</ele>
        <time>2020-06-18T17:39:41Z</time>
      </trkpt>
      <trkpt lat="50.27244" lon="1.66884">
        <ele>9.6</ele>
        <time>2020-06-18T17:39:42Z</time>
      </trkpt>
      <trkpt lat="50.27242" lon="1.66889">
        <ele>9.6</ele>
        <time>2020-06-18T17:39:43Z</time>
      </trkpt>
      <trkpt lat="50.27241" lon="1.66893">
        <ele>9.6</ele>
        <time>2020-06-18T17:39:44Z</time>
      </trkpt>
      <trkpt lat="50.27239" lon="1.66897">
        <ele>9.6</ele>
        <time>2020-06-18T17:39:45Z</time>
      </trkpt>
      <trkpt lat="50.27237" lon="1.66902">
        <ele>9.6</ele>
        <time>2020-06-18T17:39:46Z</time>
      </trkpt>
      <trkpt lat="50.27234" lon="1.66905">
        <ele>9.6</ele>
        <time>2020-06-18T17:39:47Z</time>
      </trkpt>
      <trkpt lat="50.27231" lon="1.66908">
        <ele>9.6</ele>
        <time>2020-06-18T17:39:48Z</time>
      </trkpt>
      <trkpt lat="50.27229" lon="1.66911">
        <ele>9.6</ele>
        <time>2020-06-18T17:39:49Z</time>
      </trkpt>
      <trkpt lat="50.27228" lon="1.66913">
        <ele>9.6</ele>
        <time>2020-06-18T17:39:50Z</time>
      </trkpt>
      <trkpt lat="50.27226" lon="1.66917">
        <ele>9.6</ele>
        <time>2020-06-18T17:39:51Z</time>
      </trkpt>
      <trkpt lat="50.27223" lon="1.66921">
        <ele>9.7</ele>
        <time>2020-06-18T17:39:52Z</time>
      </trkpt>
      <trkpt lat="50.27221" lon="1.66925">
        <ele>9.7</ele>
        <time>2020-06-18T17:39:53Z</time>
      </trkpt>
      <trkpt lat="50.2722" lon="1.6693">
        <ele>9.7</ele>
        <time>2020-06-18T17:39:54Z</time>
      </trkpt>
      <trkpt lat="50.27217" lon="1.66934">
        <ele>9.7</ele>
        <time>2020-06-18T17:39:55Z</time>
      </trkpt>
      <trkpt lat="50.27214" lon="1.6694">
        <ele>9.7</ele>
        <time>2020-06-18T17:39:56Z</time>
      </trkpt>
      <trkpt lat="50.27211" lon="1.66945">
        <ele>9.7</ele>
        <time>2020-06-18T17:39:57Z</time>
      </trkpt>
      <trkpt lat="50.27208" lon="1.66952">
        <ele>9.8</ele>
        <time>2020-06-18T17:39:58Z</time>
      </trkpt>
      <trkpt lat="50.27205" lon="1.66957">
        <ele>9.9</ele>
        <time>2020-06-18T17:39:59Z</time>
      </trkpt>
      <trkpt lat="50.27203" lon="1.66962">
        <ele>9.9</ele>
        <time>2020-06-18T17:40:00Z</time>
      </trkpt>
      <trkpt lat="50.27199" lon="1.66966">
        <ele>9.8</ele>
        <time>2020-06-18T17:40:01Z</time>
      </trkpt>
      <trkpt lat="50.27195" lon="1.6697">
        <ele>9.7</ele>
        <time>2020-06-18T17:40:02Z</time>
      </trkpt>
      <trkpt lat="50.27192" lon="1.66976">
        <ele>9.6</ele>
        <time>2020-06-18T17:40:03Z</time>
      </trkpt>
      <trkpt lat="50.27189" lon="1.66981">
        <ele>9.5</ele>
        <time>2020-06-18T17:40:04Z</time>
      </trkpt>
      <trkpt lat="50.27186" lon="1.66987">
        <ele>9.4</ele>
        <time>2020-06-18T17:40:05Z</time>
      </trkpt>
      <trkpt lat="50.27183" lon="1.66993">
        <ele>9.3</ele>
        <time>2020-06-18T17:40:06Z</time>
      </trkpt>
      <trkpt lat="50.2718" lon="1.67">
        <ele>9.2</ele>
        <time>2020-06-18T17:40:07Z</time>
      </trkpt>
      <trkpt lat="50.27176" lon="1.67008">
        <ele>9.1</ele>
        <time>2020-06-18T17:40:08Z</time>
      </trkpt>
      <trkpt lat="50.27172" lon="1.67014">
        <ele>9</ele>
        <time>2020-06-18T17:40:09Z</time>
      </trkpt>
      <trkpt lat="50.27168" lon="1.6702">
        <ele>8.9</ele>
        <time>2020-06-18T17:40:10Z</time>
      </trkpt>
      <trkpt lat="50.27166" lon="1.67028">
        <ele>8.9</ele>
        <time>2020-06-18T17:40:11Z</time>
      </trkpt>
      <trkpt lat="50.27163" lon="1.67035">
        <ele>8.9</ele>
        <time>2020-06-18T17:40:12Z</time>
      </trkpt>
      <trkpt lat="50.2716" lon="1.67041">
        <ele>8.9</ele>
        <time>2020-06-18T17:40:13Z</time>
      </trkpt>
      <trkpt lat="50.27158" lon="1.67048">
        <ele>8.8</ele>
        <time>2020-06-18T17:40:14Z</time>
      </trkpt>
      <trkpt lat="50.27154" lon="1.67054">
        <ele>8.8</ele>
        <time>2020-06-18T17:40:15Z</time>
      </trkpt>
      <trkpt lat="50.27151" lon="1.67059">
        <ele>8.8</ele>
        <time>2020-06-18T17:40:16Z</time>
      </trkpt>
      <trkpt lat="50.27148" lon="1.67065">
        <ele>8.7</ele>
        <time>2020-06-18T17:40:17Z</time>
      </trkpt>
      <trkpt lat="50.27146" lon="1.67072">
        <ele>8.7</ele>
        <time>2020-06-18T17:40:18Z</time>
      </trkpt>
      <trkpt lat="50.27143" lon="1.6708">
        <ele>8.7</ele>
        <time>2020-06-18T17:40:19Z</time>
      </trkpt>
      <trkpt lat="50.27139" lon="1.67086">
        <ele>8.7</ele>
        <time>2020-06-18T17:40:20Z</time>
      </trkpt>
      <trkpt lat="50.27138" lon="1.67094">
        <ele>8.7</ele>
        <time>2020-06-18T17:40:21Z</time>
      </trkpt>
      <trkpt lat="50.27134" lon="1.671">
        <ele>8.6</ele>
        <time>2020-06-18T17:40:22Z</time>
      </trkpt>
      <trkpt lat="50.27133" lon="1.67108">
        <ele>8.6</ele>
        <time>2020-06-18T17:40:23Z</time>
      </trkpt>
      <trkpt lat="50.27129" lon="1.67113">
        <ele>8.6</ele>
        <time>2020-06-18T17:40:24Z</time>
      </trkpt>
      <trkpt lat="50.27126" lon="1.67117">
        <ele>8.6</ele>
        <time>2020-06-18T17:40:25Z</time>
      </trkpt>
      <trkpt lat="50.27124" lon="1.67123">
        <ele>8.6</ele>
        <time>2020-06-18T17:40:26Z</time>
      </trkpt>
      <trkpt lat="50.27122" lon="1.67128">
        <ele>8.6</ele>
        <time>2020-06-18T17:40:27Z</time>
      </trkpt>
      <trkpt lat="50.27119" lon="1.67133">
        <ele>8.6</ele>
        <time>2020-06-18T17:40:28Z</time>
      </trkpt>
      <trkpt lat="50.27117" lon="1.67138">
        <ele>8.6</ele>
        <time>2020-06-18T17:40:29Z</time>
      </trkpt>
      <trkpt lat="50.27115" lon="1.67143">
        <ele>8.6</ele>
        <time>2020-06-18T17:40:30Z</time>
      </trkpt>
      <trkpt lat="50.27113" lon="1.67148">
        <ele>8.5</ele>
        <time>2020-06-18T17:40:31Z</time>
      </trkpt>
      <trkpt lat="50.2711" lon="1.67153">
        <ele>8.5</ele>
        <time>2020-06-18T17:40:32Z</time>
      </trkpt>
      <trkpt lat="50.27108" lon="1.67158">
        <ele>8.4</ele>
        <time>2020-06-18T17:40:33Z</time>
      </trkpt>
      <trkpt lat="50.27107" lon="1.67166">
        <ele>8.3</ele>
        <time>2020-06-18T17:40:34Z</time>
      </trkpt>
      <trkpt lat="50.27108" lon="1.67174">
        <ele>8.3</ele>
        <time>2020-06-18T17:40:35Z</time>
      </trkpt>
      <trkpt lat="50.2711" lon="1.67182">
        <ele>8.2</ele>
        <time>2020-06-18T17:40:36Z</time>
      </trkpt>
      <trkpt lat="50.27112" lon="1.67191">
        <ele>8.2</ele>
        <time>2020-06-18T17:40:37Z</time>
      </trkpt>
      <trkpt lat="50.27113" lon="1.672">
        <ele>8.2</ele>
        <time>2020-06-18T17:40:38Z</time>
      </trkpt>
      <trkpt lat="50.27114" lon="1.6721">
        <ele>8.2</ele>
        <time>2020-06-18T17:40:39Z</time>
      </trkpt>
      <trkpt lat="50.27116" lon="1.67219">
        <ele>8.2</ele>
        <time>2020-06-18T17:40:40Z</time>
      </trkpt>
      <trkpt lat="50.27117" lon="1.67229">
        <ele>8.2</ele>
        <time>2020-06-18T17:40:41Z</time>
      </trkpt>
      <trkpt lat="50.27119" lon="1.67239">
        <ele>8.1</ele>
        <time>2020-06-18T17:40:42Z</time>
      </trkpt>
      <trkpt lat="50.2712" lon="1.67249">
        <ele>8.1</ele>
        <time>2020-06-18T17:40:43Z</time>
      </trkpt>
      <trkpt lat="50.27122" lon="1.67258">
        <ele>8</ele>
        <time>2020-06-18T17:40:44Z</time>
      </trkpt>
      <trkpt lat="50.27124" lon="1.67269">
        <ele>8</ele>
        <time>2020-06-18T17:40:45Z</time>
      </trkpt>
      <trkpt lat="50.27126" lon="1.67278">
        <ele>8</ele>
        <time>2020-06-18T17:40:46Z</time>
      </trkpt>
      <trkpt lat="50.27128" lon="1.67288">
        <ele>7.9</ele>
        <time>2020-06-18T17:40:47Z</time>
      </trkpt>
      <trkpt lat="50.2713" lon="1.67297">
        <ele>7.9</ele>
        <time>2020-06-18T17:40:48Z</time>
      </trkpt>
      <trkpt lat="50.27133" lon="1.67305">
        <ele>7.9</ele>
        <time>2020-06-18T17:40:49Z</time>
      </trkpt>
      <trkpt lat="50.27136" lon="1.67315">
        <ele>7.9</ele>
        <time>2020-06-18T17:40:50Z</time>
      </trkpt>
      <trkpt lat="50.27138" lon="1.67325">
        <ele>7.9</ele>
        <time>2020-06-18T17:40:51Z</time>
      </trkpt>
      <trkpt lat="50.27139" lon="1.67336">
        <ele>7.9</ele>
        <time>2020-06-18T17:40:52Z</time>
      </trkpt>
      <trkpt lat="50.27141" lon="1.67346">
        <ele>7.9</ele>
        <time>2020-06-18T17:40:53Z</time>
      </trkpt>
      <trkpt lat="50.27143" lon="1.67355">
        <ele>7.9</ele>
        <time>2020-06-18T17:40:54Z</time>
      </trkpt>
      <trkpt lat="50.27145" lon="1.67365">
        <ele>7.9</ele>
        <time>2020-06-18T17:40:55Z</time>
      </trkpt>
      <trkpt lat="50.27146" lon="1.67373">
        <ele>7.9</ele>
        <time>2020-06-18T17:40:56Z</time>
      </trkpt>
      <trkpt lat="50.27147" lon="1.67381">
        <ele>7.9</ele>
        <time>2020-06-18T17:40:57Z</time>
      </trkpt>
      <trkpt lat="50.27148" lon="1.67389">
        <ele>7.9</ele>
        <time>2020-06-18T17:40:58Z</time>
      </trkpt>
      <trkpt lat="50.27149" lon="1.67397">
        <ele>7.9</ele>
        <time>2020-06-18T17:40:59Z</time>
      </trkpt>
      <trkpt lat="50.27151" lon="1.67405">
        <ele>8</ele>
        <time>2020-06-18T17:41:00Z</time>
      </trkpt>
      <trkpt lat="50.27152" lon="1.67413">
        <ele>8</ele>
        <time>2020-06-18T17:41:01Z</time>
      </trkpt>
      <trkpt lat="50.27152" lon="1.67418">
        <ele>8.1</ele>
        <time>2020-06-18T17:41:02Z</time>
      </trkpt>
      <trkpt lat="50.27154" lon="1.67426">
        <ele>8.1</ele>
        <time>2020-06-18T17:41:03Z</time>
      </trkpt>
      <trkpt lat="50.27154" lon="1.67435">
        <ele>8.2</ele>
        <time>2020-06-18T17:41:04Z</time>
      </trkpt>
      <trkpt lat="50.27155" lon="1.67447">
        <ele>8.3</ele>
        <time>2020-06-18T17:41:05Z</time>
      </trkpt>
      <trkpt lat="50.27156" lon="1.67458">
        <ele>8.2</ele>
        <time>2020-06-18T17:41:06Z</time>
      </trkpt>
      <trkpt lat="50.27157" lon="1.67469">
        <ele>8</ele>
        <time>2020-06-18T17:41:07Z</time>
      </trkpt>
      <trkpt lat="50.27159" lon="1.6748">
        <ele>8</ele>
        <time>2020-06-18T17:41:08Z</time>
      </trkpt>
      <trkpt lat="50.27161" lon="1.67488">
        <ele>8</ele>
        <time>2020-06-18T17:41:09Z</time>
      </trkpt>
      <trkpt lat="50.27163" lon="1.67498">
        <ele>8.1</ele>
        <time>2020-06-18T17:41:10Z</time>
      </trkpt>
      <trkpt lat="50.27165" lon="1.67509">
        <ele>8.1</ele>
        <time>2020-06-18T17:41:11Z</time>
      </trkpt>
      <trkpt lat="50.27167" lon="1.67519">
        <ele>8.1</ele>
        <time>2020-06-18T17:41:12Z</time>
      </trkpt>
      <trkpt lat="50.27169" lon="1.6753">
        <ele>8.1</ele>
        <time>2020-06-18T17:41:13Z</time>
      </trkpt>
      <trkpt lat="50.27171" lon="1.6754">
        <ele>8.1</ele>
        <time>2020-06-18T17:41:14Z</time>
      </trkpt>
      <trkpt lat="50.27173" lon="1.67551">
        <ele>8.2</ele>
        <time>2020-06-18T17:41:15Z</time>
      </trkpt>
      <trkpt lat="50.27175" lon="1.67561">
        <ele>8.2</ele>
        <time>2020-06-18T17:41:16Z</time>
      </trkpt>
      <trkpt lat="50.27177" lon="1.67571">
        <ele>8.3</ele>
        <time>2020-06-18T17:41:17Z</time>
      </trkpt>
      <trkpt lat="50.2718" lon="1.67581">
        <ele>8.2</ele>
        <time>2020-06-18T17:41:18Z</time>
      </trkpt>
      <trkpt lat="50.27182" lon="1.67591">
        <ele>8.2</ele>
        <time>2020-06-18T17:41:19Z</time>
      </trkpt>
      <trkpt lat="50.27184" lon="1.67601">
        <ele>8.2</ele>
        <time>2020-06-18T17:41:20Z</time>
      </trkpt>
      <trkpt lat="50.27186" lon="1.67612">
        <ele>8.2</ele>
        <time>2020-06-18T17:41:21Z</time>
      </trkpt>
      <trkpt lat="50.27188" lon="1.67622">
        <ele>8.3</ele>
        <time>2020-06-18T17:41:22Z</time>
      </trkpt>
      <trkpt lat="50.2719" lon="1.67632">
        <ele>8.3</ele>
        <time>2020-06-18T17:41:23Z</time>
      </trkpt>
      <trkpt lat="50.27192" lon="1.67642">
        <ele>8.3</ele>
        <time>2020-06-18T17:41:24Z</time>
      </trkpt>
      <trkpt lat="50.27194" lon="1.67652">
        <ele>8.4</ele>
        <time>2020-06-18T17:41:25Z</time>
      </trkpt>
      <trkpt lat="50.27196" lon="1.67661">
        <ele>8.4</ele>
        <time>2020-06-18T17:41:26Z</time>
      </trkpt>
      <trkpt lat="50.27198" lon="1.6767">
        <ele>8.5</ele>
        <time>2020-06-18T17:41:27Z</time>
      </trkpt>
      <trkpt lat="50.27199" lon="1.67679">
        <ele>8.5</ele>
        <time>2020-06-18T17:41:28Z</time>
      </trkpt>
      <trkpt lat="50.27202" lon="1.67688">
        <ele>8.6</ele>
        <time>2020-06-18T17:41:29Z</time>
      </trkpt>
      <trkpt lat="50.27203" lon="1.67697">
        <ele>8.7</ele>
        <time>2020-06-18T17:41:30Z</time>
      </trkpt>
      <trkpt lat="50.27205" lon="1.67707">
        <ele>8.7</ele>
        <time>2020-06-18T17:41:31Z</time>
      </trkpt>
      <trkpt lat="50.27206" lon="1.67716">
        <ele>8.8</ele>
        <time>2020-06-18T17:41:32Z</time>
      </trkpt>
      <trkpt lat="50.27208" lon="1.67725">
        <ele>8.9</ele>
        <time>2020-06-18T17:41:33Z</time>
      </trkpt>
      <trkpt lat="50.2721" lon="1.67733">
        <ele>9</ele>
        <time>2020-06-18T17:41:34Z</time>
      </trkpt>
      <trkpt lat="50.27211" lon="1.67741">
        <ele>9</ele>
        <time>2020-06-18T17:41:35Z</time>
      </trkpt>
      <trkpt lat="50.27211" lon="1.6775">
        <ele>9</ele>
        <time>2020-06-18T17:41:36Z</time>
      </trkpt>
      <trkpt lat="50.27212" lon="1.67757">
        <ele>9.1</ele>
        <time>2020-06-18T17:41:37Z</time>
      </trkpt>
      <trkpt lat="50.27213" lon="1.67764">
        <ele>9.1</ele>
        <time>2020-06-18T17:41:38Z</time>
      </trkpt>
      <trkpt lat="50.27214" lon="1.67768">
        <ele>9.1</ele>
        <time>2020-06-18T17:41:39Z</time>
      </trkpt>
      <trkpt lat="50.27216" lon="1.67771">
        <ele>9.1</ele>
        <time>2020-06-18T17:41:40Z</time>
      </trkpt>
      <trkpt lat="50.2722" lon="1.67772">
        <ele>9.1</ele>
        <time>2020-06-18T17:41:41Z</time>
      </trkpt>
      <trkpt lat="50.27222" lon="1.67771">
        <ele>9.1</ele>
        <time>2020-06-18T17:41:42Z</time>
      </trkpt>
      <trkpt lat="50.27223" lon="1.6777">
        <ele>9.1</ele>
        <time>2020-06-18T17:41:43Z</time>
      </trkpt>
      <trkpt lat="50.27223" lon="1.67768">
        <ele>9.1</ele>
        <time>2020-06-18T17:41:44Z</time>
      </trkpt>
      <trkpt lat="50.27224" lon="1.67767">
        <ele>9.1</ele>
        <time>2020-06-18T17:41:45Z</time>
      </trkpt>
      <trkpt lat="50.27224" lon="1.67765">
        <ele>9.1</ele>
        <time>2020-06-18T17:41:46Z</time>
      </trkpt>
      <trkpt lat="50.27225" lon="1.67762">
        <ele>9.1</ele>
        <time>2020-06-18T17:41:47Z</time>
      </trkpt>
      <trkpt lat="50.27225" lon="1.67761">
        <ele>9.1</ele>
        <time>2020-06-18T17:41:48Z</time>
      </trkpt>
      <trkpt lat="50.27225" lon="1.67759">
        <ele>9.1</ele>
        <time>2020-06-18T17:41:49Z</time>
      </trkpt>
      <trkpt lat="50.27224" lon="1.67764">
        <ele>9.1</ele>
        <time>2020-06-18T17:41:50Z</time>
      </trkpt>
      <trkpt lat="50.27224" lon="1.67762">
        <ele>9.1</ele>
        <time>2020-06-18T17:41:51Z</time>
      </trkpt>
      <trkpt lat="50.27223" lon="1.67761">
        <ele>9.1</ele>
        <time>2020-06-18T17:41:52Z</time>
      </trkpt>
      <trkpt lat="50.27221" lon="1.67761">
        <ele>9.1</ele>
        <time>2020-06-18T17:41:53Z</time>
      </trkpt>
      <trkpt lat="50.2722" lon="1.67758">
        <ele>9.1</ele>
        <time>2020-06-18T17:41:54Z</time>
      </trkpt>
      <trkpt lat="50.2722" lon="1.67756">
        <ele>9.1</ele>
        <time>2020-06-18T17:41:55Z</time>
      </trkpt>
      <trkpt lat="50.2722" lon="1.67751">
        <ele>9.1</ele>
        <time>2020-06-18T17:41:56Z</time>
      </trkpt>
      <trkpt lat="50.2722" lon="1.67749">
        <ele>9</ele>
        <time>2020-06-18T17:41:57Z</time>
      </trkpt>
      <trkpt lat="50.27221" lon="1.67743">
        <ele>8.9</ele>
        <time>2020-06-18T17:41:58Z</time>
      </trkpt>
      <trkpt lat="50.27222" lon="1.67737">
        <ele>8.8</ele>
        <time>2020-06-18T17:41:59Z</time>
      </trkpt>
      <trkpt lat="50.27225" lon="1.6773">
        <ele>8.7</ele>
        <time>2020-06-18T17:42:00Z</time>
      </trkpt>
      <trkpt lat="50.27228" lon="1.67725">
        <ele>8.6</ele>
        <time>2020-06-18T17:42:01Z</time>
      </trkpt>
      <trkpt lat="50.27231" lon="1.67718">
        <ele>8.5</ele>
        <time>2020-06-18T17:42:02Z</time>
      </trkpt>
      <trkpt lat="50.27235" lon="1.67711">
        <ele>8.4</ele>
        <time>2020-06-18T17:42:03Z</time>
      </trkpt>
      <trkpt lat="50.2724" lon="1.67704">
        <ele>8.2</ele>
        <time>2020-06-18T17:42:04Z</time>
      </trkpt>
      <trkpt lat="50.27244" lon="1.67697">
        <ele>8.1</ele>
        <time>2020-06-18T17:42:05Z</time>
      </trkpt>
      <trkpt lat="50.2725" lon="1.6769">
        <ele>8</ele>
        <time>2020-06-18T17:42:06Z</time>
      </trkpt>
      <trkpt lat="50.27255" lon="1.67682">
        <ele>7.9</ele>
        <time>2020-06-18T17:42:07Z</time>
      </trkpt>
      <trkpt lat="50.2726" lon="1.67674">
        <ele>7.8</ele>
        <time>2020-06-18T17:42:08Z</time>
      </trkpt>
      <trkpt lat="50.27266" lon="1.67666">
        <ele>7.7</ele>
        <time>2020-06-18T17:42:09Z</time>
      </trkpt>
      <trkpt lat="50.27273" lon="1.6766">
        <ele>7.7</ele>
        <time>2020-06-18T17:42:10Z</time>
      </trkpt>
      <trkpt lat="50.2728" lon="1.67656">
        <ele>7.7</ele>
        <time>2020-06-18T17:42:11Z</time>
      </trkpt>
      <trkpt lat="50.27287" lon="1.67652">
        <ele>7.7</ele>
        <time>2020-06-18T17:42:12Z</time>
      </trkpt>
      <trkpt lat="50.27294" lon="1.67649">
        <ele>7.7</ele>
        <time>2020-06-18T17:42:13Z</time>
      </trkpt>
      <trkpt lat="50.273" lon="1.67645">
        <ele>7.7</ele>
        <time>2020-06-18T17:42:14Z</time>
      </trkpt>
      <trkpt lat="50.27307" lon="1.67642">
        <ele>7.7</ele>
        <time>2020-06-18T17:42:15Z</time>
      </trkpt>
      <trkpt lat="50.27314" lon="1.67639">
        <ele>7.7</ele>
        <time>2020-06-18T17:42:16Z</time>
      </trkpt>
      <trkpt lat="50.27322" lon="1.67634">
        <ele>7.7</ele>
        <time>2020-06-18T17:42:17Z</time>
      </trkpt>
      <trkpt lat="50.27329" lon="1.6763">
        <ele>7.8</ele>
        <time>2020-06-18T17:42:18Z</time>
      </trkpt>
      <trkpt lat="50.27336" lon="1.67626">
        <ele>7.8</ele>
        <time>2020-06-18T17:42:19Z</time>
      </trkpt>
      <trkpt lat="50.27343" lon="1.67621">
        <ele>7.8</ele>
        <time>2020-06-18T17:42:20Z</time>
      </trkpt>
      <trkpt lat="50.2735" lon="1.67617">
        <ele>7.8</ele>
        <time>2020-06-18T17:42:21Z</time>
      </trkpt>
      <trkpt lat="50.27357" lon="1.67614">
        <ele>7.8</ele>
        <time>2020-06-18T17:42:22Z</time>
      </trkpt>
      <trkpt lat="50.27364" lon="1.6761">
        <ele>7.8</ele>
        <time>2020-06-18T17:42:23Z</time>
      </trkpt>
      <trkpt lat="50.27371" lon="1.67605">
        <ele>7.8</ele>
        <time>2020-06-18T17:42:24Z</time>
      </trkpt>
      <trkpt lat="50.27378" lon="1.67602">
        <ele>7.8</ele>
        <time>2020-06-18T17:42:25Z</time>
      </trkpt>
      <trkpt lat="50.27385" lon="1.67598">
        <ele>7.8</ele>
        <time>2020-06-18T17:42:26Z</time>
      </trkpt>
      <trkpt lat="50.27393" lon="1.67593">
        <ele>7.8</ele>
        <time>2020-06-18T17:42:27Z</time>
      </trkpt>
      <trkpt lat="50.27399" lon="1.67588">
        <ele>7.8</ele>
        <time>2020-06-18T17:42:28Z</time>
      </trkpt>
      <trkpt lat="50.27405" lon="1.67584">
        <ele>7.8</ele>
        <time>2020-06-18T17:42:29Z</time>
      </trkpt>
      <trkpt lat="50.27412" lon="1.6758">
        <ele>7.7</ele>
        <time>2020-06-18T17:42:30Z</time>
      </trkpt>
      <trkpt lat="50.27419" lon="1.67576">
        <ele>7.7</ele>
        <time>2020-06-18T17:42:31Z</time>
      </trkpt>
      <trkpt lat="50.27426" lon="1.67573">
        <ele>7.7</ele>
        <time>2020-06-18T17:42:32Z</time>
      </trkpt>
      <trkpt lat="50.27433" lon="1.67568">
        <ele>7.6</ele>
        <time>2020-06-18T17:42:33Z</time>
      </trkpt>
      <trkpt lat="50.2744" lon="1.67564">
        <ele>7.6</ele>
        <time>2020-06-18T17:42:34Z</time>
      </trkpt>
      <trkpt lat="50.27447" lon="1.6756">
        <ele>7.5</ele>
        <time>2020-06-18T17:42:35Z</time>
      </trkpt>
      <trkpt lat="50.27454" lon="1.67556">
        <ele>7.5</ele>
        <time>2020-06-18T17:42:36Z</time>
      </trkpt>
      <trkpt lat="50.27461" lon="1.67552">
        <ele>7.5</ele>
        <time>2020-06-18T17:42:37Z</time>
      </trkpt>
      <trkpt lat="50.27467" lon="1.67549">
        <ele>7.4</ele>
        <time>2020-06-18T17:42:38Z</time>
      </trkpt>
      <trkpt lat="50.27474" lon="1.67545">
        <ele>7.4</ele>
        <time>2020-06-18T17:42:39Z</time>
      </trkpt>
      <trkpt lat="50.27481" lon="1.67542">
        <ele>7.3</ele>
        <time>2020-06-18T17:42:40Z</time>
      </trkpt>
      <trkpt lat="50.27488" lon="1.67539">
        <ele>7.2</ele>
        <time>2020-06-18T17:42:41Z</time>
      </trkpt>
      <trkpt lat="50.27495" lon="1.67536">
        <ele>7.2</ele>
        <time>2020-06-18T17:42:42Z</time>
      </trkpt>
      <trkpt lat="50.27502" lon="1.67533">
        <ele>7.1</ele>
        <time>2020-06-18T17:42:43Z</time>
      </trkpt>
      <trkpt lat="50.2751" lon="1.67532">
        <ele>7.1</ele>
        <time>2020-06-18T17:42:44Z</time>
      </trkpt>
      <trkpt lat="50.27517" lon="1.67531">
        <ele>7</ele>
        <time>2020-06-18T17:42:45Z</time>
      </trkpt>
      <trkpt lat="50.27524" lon="1.6753">
        <ele>7</ele>
        <time>2020-06-18T17:42:46Z</time>
      </trkpt>
      <trkpt lat="50.27532" lon="1.67528">
        <ele>7</ele>
        <time>2020-06-18T17:42:47Z</time>
      </trkpt>
      <trkpt lat="50.27539" lon="1.67527">
        <ele>6.9</ele>
        <time>2020-06-18T17:42:48Z</time>
      </trkpt>
      <trkpt lat="50.27546" lon="1.67525">
        <ele>6.9</ele>
        <time>2020-06-18T17:42:49Z</time>
      </trkpt>
      <trkpt lat="50.27554" lon="1.67524">
        <ele>7</ele>
        <time>2020-06-18T17:42:50Z</time>
      </trkpt>
      <trkpt lat="50.27562" lon="1.67523">
        <ele>7</ele>
        <time>2020-06-18T17:42:51Z</time>
      </trkpt>
      <trkpt lat="50.27569" lon="1.67523">
        <ele>7.1</ele>
        <time>2020-06-18T17:42:52Z</time>
      </trkpt>
      <trkpt lat="50.27576" lon="1.67524">
        <ele>7.1</ele>
        <time>2020-06-18T17:42:53Z</time>
      </trkpt>
      <trkpt lat="50.27582" lon="1.67525">
        <ele>7.2</ele>
        <time>2020-06-18T17:42:54Z</time>
      </trkpt>
      <trkpt lat="50.27589" lon="1.67527">
        <ele>7.2</ele>
        <time>2020-06-18T17:42:55Z</time>
      </trkpt>
      <trkpt lat="50.27596" lon="1.67529">
        <ele>7.2</ele>
        <time>2020-06-18T17:42:56Z</time>
      </trkpt>
      <trkpt lat="50.27602" lon="1.67531">
        <ele>7.2</ele>
        <time>2020-06-18T17:42:57Z</time>
      </trkpt>
      <trkpt lat="50.27608" lon="1.67532">
        <ele>7.2</ele>
        <time>2020-06-18T17:42:58Z</time>
      </trkpt>
      <trkpt lat="50.27613" lon="1.67533">
        <ele>7.2</ele>
        <time>2020-06-18T17:42:59Z</time>
      </trkpt>
      <trkpt lat="50.27619" lon="1.67533">
        <ele>7.1</ele>
        <time>2020-06-18T17:43:00Z</time>
      </trkpt>
      <trkpt lat="50.27624" lon="1.67534">
        <ele>7.1</ele>
        <time>2020-06-18T17:43:01Z</time>
      </trkpt>
      <trkpt lat="50.2763" lon="1.67536">
        <ele>7.1</ele>
        <time>2020-06-18T17:43:02Z</time>
      </trkpt>
      <trkpt lat="50.27636" lon="1.67538">
        <ele>7.1</ele>
        <time>2020-06-18T17:43:03Z</time>
      </trkpt>
      <trkpt lat="50.27642" lon="1.67539">
        <ele>7.1</ele>
        <time>2020-06-18T17:43:04Z</time>
      </trkpt>
      <trkpt lat="50.27648" lon="1.67541">
        <ele>7</ele>
        <time>2020-06-18T17:43:05Z</time>
      </trkpt>
      <trkpt lat="50.27655" lon="1.67543">
        <ele>7</ele>
        <time>2020-06-18T17:43:06Z</time>
      </trkpt>
      <trkpt lat="50.27661" lon="1.67544">
        <ele>7</ele>
        <time>2020-06-18T17:43:07Z</time>
      </trkpt>
      <trkpt lat="50.27666" lon="1.67545">
        <ele>7</ele>
        <time>2020-06-18T17:43:08Z</time>
      </trkpt>
      <trkpt lat="50.27675" lon="1.67547">
        <ele>6.9</ele>
        <time>2020-06-18T17:43:09Z</time>
      </trkpt>
      <trkpt lat="50.27678" lon="1.67547">
        <ele>6.9</ele>
        <time>2020-06-18T17:43:10Z</time>
      </trkpt>
      <trkpt lat="50.27684" lon="1.67549">
        <ele>6.9</ele>
        <time>2020-06-18T17:43:11Z</time>
      </trkpt>
      <trkpt lat="50.2769" lon="1.67551">
        <ele>6.9</ele>
        <time>2020-06-18T17:43:12Z</time>
      </trkpt>
      <trkpt lat="50.277" lon="1.67555">
        <ele>6.9</ele>
        <time>2020-06-18T17:43:13Z</time>
      </trkpt>
      <trkpt lat="50.27703" lon="1.67556">
        <ele>6.9</ele>
        <time>2020-06-18T17:43:14Z</time>
      </trkpt>
      <trkpt lat="50.2771" lon="1.67559">
        <ele>6.9</ele>
        <time>2020-06-18T17:43:15Z</time>
      </trkpt>
      <trkpt lat="50.27716" lon="1.67561">
        <ele>6.9</ele>
        <time>2020-06-18T17:43:16Z</time>
      </trkpt>
      <trkpt lat="50.27722" lon="1.67563">
        <ele>6.9</ele>
        <time>2020-06-18T17:43:17Z</time>
      </trkpt>
      <trkpt lat="50.27729" lon="1.67564">
        <ele>6.9</ele>
        <time>2020-06-18T17:43:18Z</time>
      </trkpt>
      <trkpt lat="50.27737" lon="1.67564">
        <ele>6.9</ele>
        <time>2020-06-18T17:43:19Z</time>
      </trkpt>
      <trkpt lat="50.27743" lon="1.67565">
        <ele>6.9</ele>
        <time>2020-06-18T17:43:20Z</time>
      </trkpt>
      <trkpt lat="50.27749" lon="1.67568">
        <ele>6.9</ele>
        <time>2020-06-18T17:43:21Z</time>
      </trkpt>
      <trkpt lat="50.27756" lon="1.67572">
        <ele>6.9</ele>
        <time>2020-06-18T17:43:22Z</time>
      </trkpt>
      <trkpt lat="50.27762" lon="1.67575">
        <ele>7</ele>
        <time>2020-06-18T17:43:23Z</time>
      </trkpt>
      <trkpt lat="50.27768" lon="1.67579">
        <ele>7</ele>
        <time>2020-06-18T17:43:24Z</time>
      </trkpt>
      <trkpt lat="50.27773" lon="1.67582">
        <ele>7</ele>
        <time>2020-06-18T17:43:25Z</time>
      </trkpt>
      <trkpt lat="50.27779" lon="1.67583">
        <ele>7.1</ele>
        <time>2020-06-18T17:43:26Z</time>
      </trkpt>
      <trkpt lat="50.27785" lon="1.67586">
        <ele>7.1</ele>
        <time>2020-06-18T17:43:27Z</time>
      </trkpt>
      <trkpt lat="50.2779" lon="1.67589">
        <ele>7.1</ele>
        <time>2020-06-18T17:43:28Z</time>
      </trkpt>
      <trkpt lat="50.27795" lon="1.67593">
        <ele>7.1</ele>
        <time>2020-06-18T17:43:29Z</time>
      </trkpt>
      <trkpt lat="50.27801" lon="1.67597">
        <ele>7.1</ele>
        <time>2020-06-18T17:43:30Z</time>
      </trkpt>
      <trkpt lat="50.27806" lon="1.676">
        <ele>7.1</ele>
        <time>2020-06-18T17:43:31Z</time>
      </trkpt>
      <trkpt lat="50.27812" lon="1.67604">
        <ele>7.1</ele>
        <time>2020-06-18T17:43:32Z</time>
      </trkpt>
      <trkpt lat="50.27818" lon="1.67607">
        <ele>7.1</ele>
        <time>2020-06-18T17:43:33Z</time>
      </trkpt>
      <trkpt lat="50.27823" lon="1.67611">
        <ele>7.1</ele>
        <time>2020-06-18T17:43:34Z</time>
      </trkpt>
      <trkpt lat="50.27829" lon="1.67614">
        <ele>7.1</ele>
        <time>2020-06-18T17:43:35Z</time>
      </trkpt>
      <trkpt lat="50.27834" lon="1.67618">
        <ele>7.1</ele>
        <time>2020-06-18T17:43:36Z</time>
      </trkpt>
      <trkpt lat="50.27839" lon="1.67622">
        <ele>7.1</ele>
        <time>2020-06-18T17:43:37Z</time>
      </trkpt>
      <trkpt lat="50.27844" lon="1.67625">
        <ele>7.1</ele>
        <time>2020-06-18T17:43:38Z</time>
      </trkpt>
      <trkpt lat="50.27851" lon="1.67629">
        <ele>7.1</ele>
        <time>2020-06-18T17:43:39Z</time>
      </trkpt>
      <trkpt lat="50.27857" lon="1.67633">
        <ele>7.1</ele>
        <time>2020-06-18T17:43:40Z</time>
      </trkpt>
      <trkpt lat="50.27862" lon="1.67637">
        <ele>7.1</ele>
        <time>2020-06-18T17:43:41Z</time>
      </trkpt>
      <trkpt lat="50.27868" lon="1.67641">
        <ele>7.1</ele>
        <time>2020-06-18T17:43:42Z</time>
      </trkpt>
      <trkpt lat="50.27874" lon="1.67645">
        <ele>7.1</ele>
        <time>2020-06-18T17:43:43Z</time>
      </trkpt>
      <trkpt lat="50.2788" lon="1.67649">
        <ele>7.2</ele>
        <time>2020-06-18T17:43:44Z</time>
      </trkpt>
      <trkpt lat="50.27884" lon="1.67654">
        <ele>7.2</ele>
        <time>2020-06-18T17:43:45Z</time>
      </trkpt>
      <trkpt lat="50.2789" lon="1.6766">
        <ele>7.2</ele>
        <time>2020-06-18T17:43:46Z</time>
      </trkpt>
      <trkpt lat="50.27896" lon="1.67664">
        <ele>7.3</ele>
        <time>2020-06-18T17:43:47Z</time>
      </trkpt>
      <trkpt lat="50.27902" lon="1.67668">
        <ele>7.4</ele>
        <time>2020-06-18T17:43:48Z</time>
      </trkpt>
      <trkpt lat="50.27908" lon="1.67672">
        <ele>7.5</ele>
        <time>2020-06-18T17:43:49Z</time>
      </trkpt>
      <trkpt lat="50.27914" lon="1.67676">
        <ele>7.6</ele>
        <time>2020-06-18T17:43:50Z</time>
      </trkpt>
      <trkpt lat="50.27919" lon="1.6768">
        <ele>7.6</ele>
        <time>2020-06-18T17:43:51Z</time>
      </trkpt>
      <trkpt lat="50.27926" lon="1.67686">
        <ele>7.7</ele>
        <time>2020-06-18T17:43:52Z</time>
      </trkpt>
      <trkpt lat="50.27932" lon="1.67692">
        <ele>7.7</ele>
        <time>2020-06-18T17:43:53Z</time>
      </trkpt>
      <trkpt lat="50.27937" lon="1.67698">
        <ele>7.7</ele>
        <time>2020-06-18T17:43:54Z</time>
      </trkpt>
      <trkpt lat="50.27942" lon="1.67704">
        <ele>7.7</ele>
        <time>2020-06-18T17:43:55Z</time>
      </trkpt>
      <trkpt lat="50.27947" lon="1.67709">
        <ele>7.7</ele>
        <time>2020-06-18T17:43:56Z</time>
      </trkpt>
      <trkpt lat="50.27953" lon="1.67714">
        <ele>7.8</ele>
        <time>2020-06-18T17:43:57Z</time>
      </trkpt>
      <trkpt lat="50.2796" lon="1.6772">
        <ele>7.9</ele>
        <time>2020-06-18T17:43:58Z</time>
      </trkpt>
      <trkpt lat="50.27966" lon="1.67724">
        <ele>7.9</ele>
        <time>2020-06-18T17:43:59Z</time>
      </trkpt>
      <trkpt lat="50.27971" lon="1.67729">
        <ele>8</ele>
        <time>2020-06-18T17:44:00Z</time>
      </trkpt>
      <trkpt lat="50.27976" lon="1.67734">
        <ele>8.1</ele>
        <time>2020-06-18T17:44:01Z</time>
      </trkpt>
      <trkpt lat="50.27981" lon="1.67739">
        <ele>8.2</ele>
        <time>2020-06-18T17:44:02Z</time>
      </trkpt>
      <trkpt lat="50.27986" lon="1.67744">
        <ele>8.2</ele>
        <time>2020-06-18T17:44:03Z</time>
      </trkpt>
      <trkpt lat="50.27991" lon="1.67749">
        <ele>8.3</ele>
        <time>2020-06-18T17:44:04Z</time>
      </trkpt>
      <trkpt lat="50.27994" lon="1.67753">
        <ele>8.3</ele>
        <time>2020-06-18T17:44:05Z</time>
      </trkpt>
      <trkpt lat="50.27999" lon="1.67757">
        <ele>8.3</ele>
        <time>2020-06-18T17:44:06Z</time>
      </trkpt>
      <trkpt lat="50.28003" lon="1.6776">
        <ele>8.4</ele>
        <time>2020-06-18T17:44:07Z</time>
      </trkpt>
      <trkpt lat="50.28007" lon="1.67763">
        <ele>8.4</ele>
        <time>2020-06-18T17:44:08Z</time>
      </trkpt>
      <trkpt lat="50.28012" lon="1.67765">
        <ele>8.4</ele>
        <time>2020-06-18T17:44:09Z</time>
      </trkpt>
      <trkpt lat="50.28019" lon="1.67769">
        <ele>8.4</ele>
        <time>2020-06-18T17:44:10Z</time>
      </trkpt>
      <trkpt lat="50.28024" lon="1.67773">
        <ele>8.3</ele>
        <time>2020-06-18T17:44:11Z</time>
      </trkpt>
      <trkpt lat="50.2803" lon="1.67775">
        <ele>8.3</ele>
        <time>2020-06-18T17:44:12Z</time>
      </trkpt>
      <trkpt lat="50.28037" lon="1.67776">
        <ele>8.3</ele>
        <time>2020-06-18T17:44:13Z</time>
      </trkpt>
      <trkpt lat="50.28044" lon="1.67779">
        <ele>8.3</ele>
        <time>2020-06-18T17:44:14Z</time>
      </trkpt>
      <trkpt lat="50.28049" lon="1.67782">
        <ele>8.4</ele>
        <time>2020-06-18T17:44:15Z</time>
      </trkpt>
      <trkpt lat="50.28055" lon="1.67784">
        <ele>8.4</ele>
        <time>2020-06-18T17:44:16Z</time>
      </trkpt>
      <trkpt lat="50.28062" lon="1.67787">
        <ele>8.4</ele>
        <time>2020-06-18T17:44:17Z</time>
      </trkpt>
      <trkpt lat="50.28068" lon="1.6779">
        <ele>8.5</ele>
        <time>2020-06-18T17:44:18Z</time>
      </trkpt>
      <trkpt lat="50.28074" lon="1.67792">
        <ele>8.6</ele>
        <time>2020-06-18T17:44:19Z</time>
      </trkpt>
      <trkpt lat="50.2808" lon="1.67795">
        <ele>8.6</ele>
        <time>2020-06-18T17:44:20Z</time>
      </trkpt>
      <trkpt lat="50.28087" lon="1.67797">
        <ele>8.7</ele>
        <time>2020-06-18T17:44:21Z</time>
      </trkpt>
      <trkpt lat="50.28092" lon="1.67799">
        <ele>8.7</ele>
        <time>2020-06-18T17:44:22Z</time>
      </trkpt>
      <trkpt lat="50.28099" lon="1.67801">
        <ele>8.7</ele>
        <time>2020-06-18T17:44:23Z</time>
      </trkpt>
      <trkpt lat="50.28105" lon="1.67805">
        <ele>8.7</ele>
        <time>2020-06-18T17:44:24Z</time>
      </trkpt>
      <trkpt lat="50.28112" lon="1.67807">
        <ele>8.7</ele>
        <time>2020-06-18T17:44:25Z</time>
      </trkpt>
      <trkpt lat="50.28121" lon="1.67808">
        <ele>8.7</ele>
        <time>2020-06-18T17:44:26Z</time>
      </trkpt>
      <trkpt lat="50.28128" lon="1.67811">
        <ele>8.8</ele>
        <time>2020-06-18T17:44:27Z</time>
      </trkpt>
      <trkpt lat="50.28136" lon="1.67813">
        <ele>8.8</ele>
        <time>2020-06-18T17:44:28Z</time>
      </trkpt>
      <trkpt lat="50.28145" lon="1.67816">
        <ele>8.8</ele>
        <time>2020-06-18T17:44:29Z</time>
      </trkpt>
      <trkpt lat="50.28152" lon="1.67819">
        <ele>8.9</ele>
        <time>2020-06-18T17:44:30Z</time>
      </trkpt>
      <trkpt lat="50.2816" lon="1.67821">
        <ele>9</ele>
        <time>2020-06-18T17:44:31Z</time>
      </trkpt>
      <trkpt lat="50.28168" lon="1.67824">
        <ele>8.9</ele>
        <time>2020-06-18T17:44:32Z</time>
      </trkpt>
      <trkpt lat="50.28176" lon="1.67826">
        <ele>8.9</ele>
        <time>2020-06-18T17:44:33Z</time>
      </trkpt>
      <trkpt lat="50.28185" lon="1.67828">
        <ele>8.9</ele>
        <time>2020-06-18T17:44:34Z</time>
      </trkpt>
      <trkpt lat="50.28193" lon="1.67832">
        <ele>8.9</ele>
        <time>2020-06-18T17:44:35Z</time>
      </trkpt>
      <trkpt lat="50.28201" lon="1.67836">
        <ele>8.9</ele>
        <time>2020-06-18T17:44:36Z</time>
      </trkpt>
      <trkpt lat="50.2821" lon="1.6784">
        <ele>9</ele>
        <time>2020-06-18T17:44:37Z</time>
      </trkpt>
      <trkpt lat="50.28218" lon="1.67843">
        <ele>9.1</ele>
        <time>2020-06-18T17:44:38Z</time>
      </trkpt>
      <trkpt lat="50.28226" lon="1.67848">
        <ele>9.2</ele>
        <time>2020-06-18T17:44:39Z</time>
      </trkpt>
      <trkpt lat="50.28234" lon="1.67852">
        <ele>9.3</ele>
        <time>2020-06-18T17:44:40Z</time>
      </trkpt>
      <trkpt lat="50.28241" lon="1.67858">
        <ele>9.4</ele>
        <time>2020-06-18T17:44:41Z</time>
      </trkpt>
      <trkpt lat="50.28247" lon="1.67864">
        <ele>9.5</ele>
        <time>2020-06-18T17:44:42Z</time>
      </trkpt>
      <trkpt lat="50.28254" lon="1.6787">
        <ele>9.6</ele>
        <time>2020-06-18T17:44:43Z</time>
      </trkpt>
      <trkpt lat="50.28259" lon="1.67875">
        <ele>9.7</ele>
        <time>2020-06-18T17:44:44Z</time>
      </trkpt>
      <trkpt lat="50.28266" lon="1.6788">
        <ele>9.7</ele>
        <time>2020-06-18T17:44:45Z</time>
      </trkpt>
      <trkpt lat="50.28272" lon="1.67883">
        <ele>9.8</ele>
        <time>2020-06-18T17:44:46Z</time>
      </trkpt>
      <trkpt lat="50.28278" lon="1.67888">
        <ele>9.9</ele>
        <time>2020-06-18T17:44:47Z</time>
      </trkpt>
      <trkpt lat="50.28285" lon="1.67893">
        <ele>9.9</ele>
        <time>2020-06-18T17:44:48Z</time>
      </trkpt>
      <trkpt lat="50.28291" lon="1.67898">
        <ele>9.9</ele>
        <time>2020-06-18T17:44:49Z</time>
      </trkpt>
      <trkpt lat="50.28297" lon="1.67903">
        <ele>10</ele>
        <time>2020-06-18T17:44:50Z</time>
      </trkpt>
      <trkpt lat="50.28303" lon="1.67908">
        <ele>10</ele>
        <time>2020-06-18T17:44:51Z</time>
      </trkpt>
      <trkpt lat="50.28309" lon="1.67913">
        <ele>10</ele>
        <time>2020-06-18T17:44:52Z</time>
      </trkpt>
      <trkpt lat="50.28315" lon="1.67918">
        <ele>10</ele>
        <time>2020-06-18T17:44:53Z</time>
      </trkpt>
      <trkpt lat="50.28322" lon="1.67922">
        <ele>10</ele>
        <time>2020-06-18T17:44:54Z</time>
      </trkpt>
      <trkpt lat="50.28328" lon="1.67928">
        <ele>10</ele>
        <time>2020-06-18T17:44:55Z</time>
      </trkpt>
      <trkpt lat="50.28334" lon="1.67933">
        <ele>10</ele>
        <time>2020-06-18T17:44:56Z</time>
      </trkpt>
      <trkpt lat="50.28341" lon="1.67938">
        <ele>10</ele>
        <time>2020-06-18T17:44:57Z</time>
      </trkpt>
      <trkpt lat="50.28347" lon="1.67943">
        <ele>10.1</ele>
        <time>2020-06-18T17:44:58Z</time>
      </trkpt>
      <trkpt lat="50.28354" lon="1.67948">
        <ele>10.1</ele>
        <time>2020-06-18T17:44:59Z</time>
      </trkpt>
      <trkpt lat="50.28361" lon="1.67953">
        <ele>10.2</ele>
        <time>2020-06-18T17:45:00Z</time>
      </trkpt>
      <trkpt lat="50.28367" lon="1.67958">
        <ele>10.2</ele>
        <time>2020-06-18T17:45:01Z</time>
      </trkpt>
      <trkpt lat="50.28373" lon="1.67962">
        <ele>10.3</ele>
        <time>2020-06-18T17:45:02Z</time>
      </trkpt>
      <trkpt lat="50.2838" lon="1.67966">
        <ele>10.3</ele>
        <time>2020-06-18T17:45:03Z</time>
      </trkpt>
      <trkpt lat="50.28387" lon="1.6797">
        <ele>10.4</ele>
        <time>2020-06-18T17:45:04Z</time>
      </trkpt>
      <trkpt lat="50.28393" lon="1.67975">
        <ele>10.4</ele>
        <time>2020-06-18T17:45:05Z</time>
      </trkpt>
      <trkpt lat="50.284" lon="1.6798">
        <ele>10.4</ele>
        <time>2020-06-18T17:45:06Z</time>
      </trkpt>
      <trkpt lat="50.28406" lon="1.67985">
        <ele>10.4</ele>
        <time>2020-06-18T17:45:07Z</time>
      </trkpt>
      <trkpt lat="50.28413" lon="1.67989">
        <ele>10.5</ele>
        <time>2020-06-18T17:45:08Z</time>
      </trkpt>
      <trkpt lat="50.28419" lon="1.67994">
        <ele>10.5</ele>
        <time>2020-06-18T17:45:09Z</time>
      </trkpt>
      <trkpt lat="50.28426" lon="1.67998">
        <ele>10.6</ele>
        <time>2020-06-18T17:45:10Z</time>
      </trkpt>
      <trkpt lat="50.28432" lon="1.68001">
        <ele>10.7</ele>
        <time>2020-06-18T17:45:11Z</time>
      </trkpt>
      <trkpt lat="50.28439" lon="1.68004">
        <ele>10.7</ele>
        <time>2020-06-18T17:45:12Z</time>
      </trkpt>
      <trkpt lat="50.28445" lon="1.68007">
        <ele>10.8</ele>
        <time>2020-06-18T17:45:13Z</time>
      </trkpt>
      <trkpt lat="50.28452" lon="1.6801">
        <ele>10.8</ele>
        <time>2020-06-18T17:45:14Z</time>
      </trkpt>
      <trkpt lat="50.28459" lon="1.68013">
        <ele>10.8</ele>
        <time>2020-06-18T17:45:15Z</time>
      </trkpt>
      <trkpt lat="50.28465" lon="1.68016">
        <ele>10.9</ele>
        <time>2020-06-18T17:45:16Z</time>
      </trkpt>
      <trkpt lat="50.28472" lon="1.68018">
        <ele>10.9</ele>
        <time>2020-06-18T17:45:17Z</time>
      </trkpt>
      <trkpt lat="50.28478" lon="1.68021">
        <ele>11</ele>
        <time>2020-06-18T17:45:18Z</time>
      </trkpt>
      <trkpt lat="50.28485" lon="1.68023">
        <ele>11</ele>
        <time>2020-06-18T17:45:19Z</time>
      </trkpt>
      <trkpt lat="50.28491" lon="1.68024">
        <ele>11.1</ele>
        <time>2020-06-18T17:45:20Z</time>
      </trkpt>
      <trkpt lat="50.28498" lon="1.68027">
        <ele>11.2</ele>
        <time>2020-06-18T17:45:21Z</time>
      </trkpt>
      <trkpt lat="50.28504" lon="1.68029">
        <ele>11.3</ele>
        <time>2020-06-18T17:45:22Z</time>
      </trkpt>
      <trkpt lat="50.2851" lon="1.6803">
        <ele>11.3</ele>
        <time>2020-06-18T17:45:23Z</time>
      </trkpt>
      <trkpt lat="50.28516" lon="1.68032">
        <ele>11.4</ele>
        <time>2020-06-18T17:45:24Z</time>
      </trkpt>
      <trkpt lat="50.28522" lon="1.68035">
        <ele>11.5</ele>
        <time>2020-06-18T17:45:25Z</time>
      </trkpt>
      <trkpt lat="50.28528" lon="1.68036">
        <ele>11.6</ele>
        <time>2020-06-18T17:45:26Z</time>
      </trkpt>
      <trkpt lat="50.28534" lon="1.68038">
        <ele>11.7</ele>
        <time>2020-06-18T17:45:27Z</time>
      </trkpt>
      <trkpt lat="50.2854" lon="1.68041">
        <ele>11.7</ele>
        <time>2020-06-18T17:45:28Z</time>
      </trkpt>
      <trkpt lat="50.28546" lon="1.68043">
        <ele>11.8</ele>
        <time>2020-06-18T17:45:29Z</time>
      </trkpt>
      <trkpt lat="50.28552" lon="1.68045">
        <ele>11.8</ele>
        <time>2020-06-18T17:45:30Z</time>
      </trkpt>
      <trkpt lat="50.28558" lon="1.68047">
        <ele>11.9</ele>
        <time>2020-06-18T17:45:31Z</time>
      </trkpt>
      <trkpt lat="50.28564" lon="1.68049">
        <ele>11.9</ele>
        <time>2020-06-18T17:45:32Z</time>
      </trkpt>
      <trkpt lat="50.2857" lon="1.68051">
        <ele>12</ele>
        <time>2020-06-18T17:45:33Z</time>
      </trkpt>
      <trkpt lat="50.28576" lon="1.68054">
        <ele>12.1</ele>
        <time>2020-06-18T17:45:34Z</time>
      </trkpt>
      <trkpt lat="50.28582" lon="1.68056">
        <ele>12.1</ele>
        <time>2020-06-18T17:45:35Z</time>
      </trkpt>
      <trkpt lat="50.28587" lon="1.68059">
        <ele>12.2</ele>
        <time>2020-06-18T17:45:36Z</time>
      </trkpt>
      <trkpt lat="50.28593" lon="1.68062">
        <ele>12.2</ele>
        <time>2020-06-18T17:45:37Z</time>
      </trkpt>
      <trkpt lat="50.28599" lon="1.68063">
        <ele>12.3</ele>
        <time>2020-06-18T17:45:38Z</time>
      </trkpt>
      <trkpt lat="50.28605" lon="1.68065">
        <ele>12.3</ele>
        <time>2020-06-18T17:45:39Z</time>
      </trkpt>
      <trkpt lat="50.28611" lon="1.68067">
        <ele>12.3</ele>
        <time>2020-06-18T17:45:40Z</time>
      </trkpt>
      <trkpt lat="50.28616" lon="1.68069">
        <ele>12.3</ele>
        <time>2020-06-18T17:45:41Z</time>
      </trkpt>
      <trkpt lat="50.28622" lon="1.68071">
        <ele>12.3</ele>
        <time>2020-06-18T17:45:42Z</time>
      </trkpt>
      <trkpt lat="50.28627" lon="1.68074">
        <ele>12.4</ele>
        <time>2020-06-18T17:45:43Z</time>
      </trkpt>
      <trkpt lat="50.28632" lon="1.68075">
        <ele>12.4</ele>
        <time>2020-06-18T17:45:44Z</time>
      </trkpt>
      <trkpt lat="50.28639" lon="1.68077">
        <ele>12.5</ele>
        <time>2020-06-18T17:45:45Z</time>
      </trkpt>
      <trkpt lat="50.28644" lon="1.68079">
        <ele>12.5</ele>
        <time>2020-06-18T17:45:46Z</time>
      </trkpt>
      <trkpt lat="50.2865" lon="1.6808">
        <ele>12.5</ele>
        <time>2020-06-18T17:45:47Z</time>
      </trkpt>
      <trkpt lat="50.28658" lon="1.68083">
        <ele>12.5</ele>
        <time>2020-06-18T17:45:48Z</time>
      </trkpt>
      <trkpt lat="50.28663" lon="1.68085">
        <ele>12.5</ele>
        <time>2020-06-18T17:45:49Z</time>
      </trkpt>
      <trkpt lat="50.28669" lon="1.68087">
        <ele>12.5</ele>
        <time>2020-06-18T17:45:50Z</time>
      </trkpt>
      <trkpt lat="50.28674" lon="1.6809">
        <ele>12.5</ele>
        <time>2020-06-18T17:45:51Z</time>
      </trkpt>
      <trkpt lat="50.28679" lon="1.68092">
        <ele>12.5</ele>
        <time>2020-06-18T17:45:52Z</time>
      </trkpt>
      <trkpt lat="50.28685" lon="1.68094">
        <ele>12.5</ele>
        <time>2020-06-18T17:45:53Z</time>
      </trkpt>
      <trkpt lat="50.28691" lon="1.68096">
        <ele>12.5</ele>
        <time>2020-06-18T17:45:54Z</time>
      </trkpt>
      <trkpt lat="50.28697" lon="1.68098">
        <ele>12.5</ele>
        <time>2020-06-18T17:45:55Z</time>
      </trkpt>
      <trkpt lat="50.28703" lon="1.68101">
        <ele>12.5</ele>
        <time>2020-06-18T17:45:56Z</time>
      </trkpt>
      <trkpt lat="50.2871" lon="1.68103">
        <ele>12.5</ele>
        <time>2020-06-18T17:45:57Z</time>
      </trkpt>
      <trkpt lat="50.28717" lon="1.68106">
        <ele>12.5</ele>
        <time>2020-06-18T17:45:58Z</time>
      </trkpt>
      <trkpt lat="50.28723" lon="1.68109">
        <ele>12.5</ele>
        <time>2020-06-18T17:45:59Z</time>
      </trkpt>
      <trkpt lat="50.2873" lon="1.68111">
        <ele>12.5</ele>
        <time>2020-06-18T17:46:00Z</time>
      </trkpt>
      <trkpt lat="50.28737" lon="1.68113">
        <ele>12.5</ele>
        <time>2020-06-18T17:46:01Z</time>
      </trkpt>
      <trkpt lat="50.28744" lon="1.68115">
        <ele>12.5</ele>
        <time>2020-06-18T17:46:02Z</time>
      </trkpt>
      <trkpt lat="50.2875" lon="1.68116">
        <ele>12.5</ele>
        <time>2020-06-18T17:46:03Z</time>
      </trkpt>
      <trkpt lat="50.28756" lon="1.68117">
        <ele>12.5</ele>
        <time>2020-06-18T17:46:04Z</time>
      </trkpt>
      <trkpt lat="50.28762" lon="1.68119">
        <ele>12.4</ele>
        <time>2020-06-18T17:46:05Z</time>
      </trkpt>
      <trkpt lat="50.28768" lon="1.6812">
        <ele>12.4</ele>
        <time>2020-06-18T17:46:06Z</time>
      </trkpt>
      <trkpt lat="50.28773" lon="1.68122">
        <ele>12.4</ele>
        <time>2020-06-18T17:46:07Z</time>
      </trkpt>
      <trkpt lat="50.28777" lon="1.68123">
        <ele>12.4</ele>
        <time>2020-06-18T17:46:08Z</time>
      </trkpt>
      <trkpt lat="50.28781" lon="1.68125">
        <ele>12.4</ele>
        <time>2020-06-18T17:46:09Z</time>
      </trkpt>
      <trkpt lat="50.28787" lon="1.68128">
        <ele>12.4</ele>
        <time>2020-06-18T17:46:10Z</time>
      </trkpt>
      <trkpt lat="50.28793" lon="1.6813">
        <ele>12.4</ele>
        <time>2020-06-18T17:46:11Z</time>
      </trkpt>
      <trkpt lat="50.28799" lon="1.68133">
        <ele>12.4</ele>
        <time>2020-06-18T17:46:12Z</time>
      </trkpt>
      <trkpt lat="50.28806" lon="1.68135">
        <ele>12.4</ele>
        <time>2020-06-18T17:46:13Z</time>
      </trkpt>
      <trkpt lat="50.28811" lon="1.68138">
        <ele>12.4</ele>
        <time>2020-06-18T17:46:14Z</time>
      </trkpt>
      <trkpt lat="50.28818" lon="1.6814">
        <ele>12.4</ele>
        <time>2020-06-18T17:46:15Z</time>
      </trkpt>
      <trkpt lat="50.28824" lon="1.68142">
        <ele>12.4</ele>
        <time>2020-06-18T17:46:16Z</time>
      </trkpt>
      <trkpt lat="50.28831" lon="1.68144">
        <ele>12.4</ele>
        <time>2020-06-18T17:46:17Z</time>
      </trkpt>
      <trkpt lat="50.28838" lon="1.68147">
        <ele>12.4</ele>
        <time>2020-06-18T17:46:18Z</time>
      </trkpt>
      <trkpt lat="50.28845" lon="1.68149">
        <ele>12.3</ele>
        <time>2020-06-18T17:46:19Z</time>
      </trkpt>
      <trkpt lat="50.28851" lon="1.6815">
        <ele>12.3</ele>
        <time>2020-06-18T17:46:20Z</time>
      </trkpt>
      <trkpt lat="50.28857" lon="1.68153">
        <ele>12.3</ele>
        <time>2020-06-18T17:46:21Z</time>
      </trkpt>
      <trkpt lat="50.28863" lon="1.68155">
        <ele>12.3</ele>
        <time>2020-06-18T17:46:22Z</time>
      </trkpt>
      <trkpt lat="50.2887" lon="1.68157">
        <ele>12.3</ele>
        <time>2020-06-18T17:46:23Z</time>
      </trkpt>
      <trkpt lat="50.28876" lon="1.68159">
        <ele>12.3</ele>
        <time>2020-06-18T17:46:24Z</time>
      </trkpt>
      <trkpt lat="50.28882" lon="1.68162">
        <ele>12.3</ele>
        <time>2020-06-18T17:46:25Z</time>
      </trkpt>
      <trkpt lat="50.28889" lon="1.68164">
        <ele>12.2</ele>
        <time>2020-06-18T17:46:26Z</time>
      </trkpt>
      <trkpt lat="50.28895" lon="1.68166">
        <ele>12.2</ele>
        <time>2020-06-18T17:46:27Z</time>
      </trkpt>
      <trkpt lat="50.28901" lon="1.68167">
        <ele>12.3</ele>
        <time>2020-06-18T17:46:28Z</time>
      </trkpt>
      <trkpt lat="50.28908" lon="1.68169">
        <ele>12.3</ele>
        <time>2020-06-18T17:46:29Z</time>
      </trkpt>
      <trkpt lat="50.28915" lon="1.68172">
        <ele>12.3</ele>
        <time>2020-06-18T17:46:30Z</time>
      </trkpt>
      <trkpt lat="50.28921" lon="1.68175">
        <ele>12.3</ele>
        <time>2020-06-18T17:46:31Z</time>
      </trkpt>
      <trkpt lat="50.28926" lon="1.68178">
        <ele>12.3</ele>
        <time>2020-06-18T17:46:32Z</time>
      </trkpt>
      <trkpt lat="50.28933" lon="1.6818">
        <ele>12.3</ele>
        <time>2020-06-18T17:46:33Z</time>
      </trkpt>
      <trkpt lat="50.28938" lon="1.68182">
        <ele>12.3</ele>
        <time>2020-06-18T17:46:34Z</time>
      </trkpt>
      <trkpt lat="50.28943" lon="1.68185">
        <ele>12.3</ele>
        <time>2020-06-18T17:46:35Z</time>
      </trkpt>
      <trkpt lat="50.28948" lon="1.68187">
        <ele>12.3</ele>
        <time>2020-06-18T17:46:36Z</time>
      </trkpt>
      <trkpt lat="50.28953" lon="1.68188">
        <ele>12.3</ele>
        <time>2020-06-18T17:46:37Z</time>
      </trkpt>
      <trkpt lat="50.28958" lon="1.68189">
        <ele>12.3</ele>
        <time>2020-06-18T17:46:38Z</time>
      </trkpt>
      <trkpt lat="50.28964" lon="1.68192">
        <ele>12.4</ele>
        <time>2020-06-18T17:46:39Z</time>
      </trkpt>
      <trkpt lat="50.28969" lon="1.68195">
        <ele>12.4</ele>
        <time>2020-06-18T17:46:40Z</time>
      </trkpt>
      <trkpt lat="50.28974" lon="1.68197">
        <ele>12.4</ele>
        <time>2020-06-18T17:46:41Z</time>
      </trkpt>
      <trkpt lat="50.2898" lon="1.68199">
        <ele>12.4</ele>
        <time>2020-06-18T17:46:42Z</time>
      </trkpt>
      <trkpt lat="50.28985" lon="1.68201">
        <ele>12.5</ele>
        <time>2020-06-18T17:46:43Z</time>
      </trkpt>
      <trkpt lat="50.28989" lon="1.68203">
        <ele>12.5</ele>
        <time>2020-06-18T17:46:44Z</time>
      </trkpt>
      <trkpt lat="50.28996" lon="1.68205">
        <ele>12.5</ele>
        <time>2020-06-18T17:46:45Z</time>
      </trkpt>
      <trkpt lat="50.29002" lon="1.68206">
        <ele>12.6</ele>
        <time>2020-06-18T17:46:46Z</time>
      </trkpt>
      <trkpt lat="50.29009" lon="1.68208">
        <ele>12.5</ele>
        <time>2020-06-18T17:46:47Z</time>
      </trkpt>
      <trkpt lat="50.29015" lon="1.68209">
        <ele>12.5</ele>
        <time>2020-06-18T17:46:48Z</time>
      </trkpt>
      <trkpt lat="50.2902" lon="1.6821">
        <ele>12.5</ele>
        <time>2020-06-18T17:46:49Z</time>
      </trkpt>
      <trkpt lat="50.29026" lon="1.68212">
        <ele>12.4</ele>
        <time>2020-06-18T17:46:50Z</time>
      </trkpt>
      <trkpt lat="50.29031" lon="1.68213">
        <ele>12.4</ele>
        <time>2020-06-18T17:46:51Z</time>
      </trkpt>
      <trkpt lat="50.29036" lon="1.68215">
        <ele>12.4</ele>
        <time>2020-06-18T17:46:52Z</time>
      </trkpt>
      <trkpt lat="50.29041" lon="1.68216">
        <ele>12.4</ele>
        <time>2020-06-18T17:46:53Z</time>
      </trkpt>
      <trkpt lat="50.29047" lon="1.68217">
        <ele>12.3</ele>
        <time>2020-06-18T17:46:54Z</time>
      </trkpt>
      <trkpt lat="50.29053" lon="1.68219">
        <ele>12.3</ele>
        <time>2020-06-18T17:46:55Z</time>
      </trkpt>
      <trkpt lat="50.29059" lon="1.68221">
        <ele>12.3</ele>
        <time>2020-06-18T17:46:56Z</time>
      </trkpt>
      <trkpt lat="50.29065" lon="1.68224">
        <ele>12.3</ele>
        <time>2020-06-18T17:46:57Z</time>
      </trkpt>
      <trkpt lat="50.29071" lon="1.68226">
        <ele>12.3</ele>
        <time>2020-06-18T17:46:58Z</time>
      </trkpt>
      <trkpt lat="50.29078" lon="1.6823">
        <ele>12.2</ele>
        <time>2020-06-18T17:46:59Z</time>
      </trkpt>
      <trkpt lat="50.29084" lon="1.68232">
        <ele>12.2</ele>
        <time>2020-06-18T17:47:00Z</time>
      </trkpt>
      <trkpt lat="50.29089" lon="1.68234">
        <ele>12.2</ele>
        <time>2020-06-18T17:47:01Z</time>
      </trkpt>
      <trkpt lat="50.29095" lon="1.68236">
        <ele>12.3</ele>
        <time>2020-06-18T17:47:02Z</time>
      </trkpt>
      <trkpt lat="50.29101" lon="1.68238">
        <ele>12.3</ele>
        <time>2020-06-18T17:47:03Z</time>
      </trkpt>
      <trkpt lat="50.29106" lon="1.68241">
        <ele>12.4</ele>
        <time>2020-06-18T17:47:04Z</time>
      </trkpt>
      <trkpt lat="50.29112" lon="1.68245">
        <ele>12.5</ele>
        <time>2020-06-18T17:47:05Z</time>
      </trkpt>
      <trkpt lat="50.29118" lon="1.68247">
        <ele>12.4</ele>
        <time>2020-06-18T17:47:06Z</time>
      </trkpt>
      <trkpt lat="50.29124" lon="1.6825">
        <ele>12.4</ele>
        <time>2020-06-18T17:47:07Z</time>
      </trkpt>
      <trkpt lat="50.29132" lon="1.68254">
        <ele>12.3</ele>
        <time>2020-06-18T17:47:08Z</time>
      </trkpt>
      <trkpt lat="50.29138" lon="1.68257">
        <ele>12.2</ele>
        <time>2020-06-18T17:47:09Z</time>
      </trkpt>
      <trkpt lat="50.29144" lon="1.68261">
        <ele>12.2</ele>
        <time>2020-06-18T17:47:10Z</time>
      </trkpt>
      <trkpt lat="50.2915" lon="1.68263">
        <ele>12.1</ele>
        <time>2020-06-18T17:47:11Z</time>
      </trkpt>
      <trkpt lat="50.29156" lon="1.68266">
        <ele>12.1</ele>
        <time>2020-06-18T17:47:12Z</time>
      </trkpt>
      <trkpt lat="50.29162" lon="1.68268">
        <ele>12.1</ele>
        <time>2020-06-18T17:47:13Z</time>
      </trkpt>
      <trkpt lat="50.29168" lon="1.6827">
        <ele>12</ele>
        <time>2020-06-18T17:47:14Z</time>
      </trkpt>
      <trkpt lat="50.29175" lon="1.68273">
        <ele>12</ele>
        <time>2020-06-18T17:47:15Z</time>
      </trkpt>
      <trkpt lat="50.29183" lon="1.68276">
        <ele>12</ele>
        <time>2020-06-18T17:47:16Z</time>
      </trkpt>
      <trkpt lat="50.29189" lon="1.68278">
        <ele>12</ele>
        <time>2020-06-18T17:47:17Z</time>
      </trkpt>
      <trkpt lat="50.29196" lon="1.6828">
        <ele>12</ele>
        <time>2020-06-18T17:47:18Z</time>
      </trkpt>
      <trkpt lat="50.29203" lon="1.68282">
        <ele>12</ele>
        <time>2020-06-18T17:47:19Z</time>
      </trkpt>
      <trkpt lat="50.29209" lon="1.68286">
        <ele>12</ele>
        <time>2020-06-18T17:47:20Z</time>
      </trkpt>
      <trkpt lat="50.29216" lon="1.68288">
        <ele>12</ele>
        <time>2020-06-18T17:47:21Z</time>
      </trkpt>
      <trkpt lat="50.29221" lon="1.6829">
        <ele>12</ele>
        <time>2020-06-18T17:47:22Z</time>
      </trkpt>
      <trkpt lat="50.29227" lon="1.68294">
        <ele>11.9</ele>
        <time>2020-06-18T17:47:23Z</time>
      </trkpt>
      <trkpt lat="50.29232" lon="1.68297">
        <ele>11.9</ele>
        <time>2020-06-18T17:47:24Z</time>
      </trkpt>
      <trkpt lat="50.29238" lon="1.683">
        <ele>11.9</ele>
        <time>2020-06-18T17:47:25Z</time>
      </trkpt>
      <trkpt lat="50.29244" lon="1.68302">
        <ele>11.9</ele>
        <time>2020-06-18T17:47:26Z</time>
      </trkpt>
      <trkpt lat="50.2925" lon="1.68305">
        <ele>11.9</ele>
        <time>2020-06-18T17:47:27Z</time>
      </trkpt>
      <trkpt lat="50.29256" lon="1.68308">
        <ele>11.9</ele>
        <time>2020-06-18T17:47:28Z</time>
      </trkpt>
      <trkpt lat="50.29262" lon="1.6831">
        <ele>11.8</ele>
        <time>2020-06-18T17:47:29Z</time>
      </trkpt>
      <trkpt lat="50.29268" lon="1.68312">
        <ele>11.8</ele>
        <time>2020-06-18T17:47:30Z</time>
      </trkpt>
      <trkpt lat="50.29274" lon="1.68314">
        <ele>11.8</ele>
        <time>2020-06-18T17:47:31Z</time>
      </trkpt>
      <trkpt lat="50.29279" lon="1.68317">
        <ele>11.8</ele>
        <time>2020-06-18T17:47:32Z</time>
      </trkpt>
      <trkpt lat="50.29285" lon="1.68318">
        <ele>11.8</ele>
        <time>2020-06-18T17:47:33Z</time>
      </trkpt>
      <trkpt lat="50.29291" lon="1.68321">
        <ele>11.8</ele>
        <time>2020-06-18T17:47:34Z</time>
      </trkpt>
      <trkpt lat="50.29297" lon="1.68323">
        <ele>11.8</ele>
        <time>2020-06-18T17:47:35Z</time>
      </trkpt>
      <trkpt lat="50.29302" lon="1.68326">
        <ele>11.8</ele>
        <time>2020-06-18T17:47:36Z</time>
      </trkpt>
      <trkpt lat="50.29308" lon="1.68329">
        <ele>11.8</ele>
        <time>2020-06-18T17:47:37Z</time>
      </trkpt>
      <trkpt lat="50.29314" lon="1.68332">
        <ele>11.8</ele>
        <time>2020-06-18T17:47:38Z</time>
      </trkpt>
      <trkpt lat="50.29321" lon="1.68335">
        <ele>11.8</ele>
        <time>2020-06-18T17:47:39Z</time>
      </trkpt>
      <trkpt lat="50.29327" lon="1.68338">
        <ele>11.8</ele>
        <time>2020-06-18T17:47:40Z</time>
      </trkpt>
      <trkpt lat="50.29332" lon="1.68341">
        <ele>11.8</ele>
        <time>2020-06-18T17:47:41Z</time>
      </trkpt>
      <trkpt lat="50.29338" lon="1.68344">
        <ele>11.8</ele>
        <time>2020-06-18T17:47:42Z</time>
      </trkpt>
      <trkpt lat="50.29343" lon="1.68347">
        <ele>11.8</ele>
        <time>2020-06-18T17:47:43Z</time>
      </trkpt>
      <trkpt lat="50.29348" lon="1.6835">
        <ele>11.8</ele>
        <time>2020-06-18T17:47:44Z</time>
      </trkpt>
      <trkpt lat="50.29354" lon="1.68352">
        <ele>11.7</ele>
        <time>2020-06-18T17:47:45Z</time>
      </trkpt>
      <trkpt lat="50.2936" lon="1.68355">
        <ele>11.7</ele>
        <time>2020-06-18T17:47:46Z</time>
      </trkpt>
      <trkpt lat="50.29365" lon="1.68357">
        <ele>11.6</ele>
        <time>2020-06-18T17:47:47Z</time>
      </trkpt>
      <trkpt lat="50.29371" lon="1.6836">
        <ele>11.6</ele>
        <time>2020-06-18T17:47:48Z</time>
      </trkpt>
      <trkpt lat="50.29376" lon="1.68363">
        <ele>11.5</ele>
        <time>2020-06-18T17:47:49Z</time>
      </trkpt>
      <trkpt lat="50.29382" lon="1.68365">
        <ele>11.5</ele>
        <time>2020-06-18T17:47:50Z</time>
      </trkpt>
      <trkpt lat="50.29388" lon="1.68368">
        <ele>11.5</ele>
        <time>2020-06-18T17:47:51Z</time>
      </trkpt>
      <trkpt lat="50.29394" lon="1.6837">
        <ele>11.4</ele>
        <time>2020-06-18T17:47:52Z</time>
      </trkpt>
      <trkpt lat="50.29399" lon="1.68372">
        <ele>11.4</ele>
        <time>2020-06-18T17:47:53Z</time>
      </trkpt>
      <trkpt lat="50.29406" lon="1.68375">
        <ele>11.4</ele>
        <time>2020-06-18T17:47:54Z</time>
      </trkpt>
      <trkpt lat="50.29411" lon="1.68378">
        <ele>11.3</ele>
        <time>2020-06-18T17:47:55Z</time>
      </trkpt>
      <trkpt lat="50.29418" lon="1.68382">
        <ele>11.3</ele>
        <time>2020-06-18T17:47:56Z</time>
      </trkpt>
      <trkpt lat="50.29424" lon="1.68387">
        <ele>11.3</ele>
        <time>2020-06-18T17:47:57Z</time>
      </trkpt>
      <trkpt lat="50.29429" lon="1.68391">
        <ele>11.2</ele>
        <time>2020-06-18T17:47:58Z</time>
      </trkpt>
      <trkpt lat="50.29434" lon="1.68395">
        <ele>11.2</ele>
        <time>2020-06-18T17:47:59Z</time>
      </trkpt>
      <trkpt lat="50.2944" lon="1.68399">
        <ele>11.1</ele>
        <time>2020-06-18T17:48:00Z</time>
      </trkpt>
      <trkpt lat="50.29446" lon="1.68404">
        <ele>11.1</ele>
        <time>2020-06-18T17:48:01Z</time>
      </trkpt>
      <trkpt lat="50.29452" lon="1.68407">
        <ele>11</ele>
        <time>2020-06-18T17:48:02Z</time>
      </trkpt>
      <trkpt lat="50.29458" lon="1.68411">
        <ele>11</ele>
        <time>2020-06-18T17:48:03Z</time>
      </trkpt>
      <trkpt lat="50.29464" lon="1.68414">
        <ele>11</ele>
        <time>2020-06-18T17:48:04Z</time>
      </trkpt>
      <trkpt lat="50.2947" lon="1.68419">
        <ele>10.9</ele>
        <time>2020-06-18T17:48:05Z</time>
      </trkpt>
      <trkpt lat="50.29477" lon="1.68423">
        <ele>10.9</ele>
        <time>2020-06-18T17:48:06Z</time>
      </trkpt>
      <trkpt lat="50.29483" lon="1.68427">
        <ele>10.9</ele>
        <time>2020-06-18T17:48:07Z</time>
      </trkpt>
      <trkpt lat="50.29488" lon="1.68431">
        <ele>10.9</ele>
        <time>2020-06-18T17:48:08Z</time>
      </trkpt>
      <trkpt lat="50.29494" lon="1.68435">
        <ele>10.9</ele>
        <time>2020-06-18T17:48:09Z</time>
      </trkpt>
      <trkpt lat="50.29499" lon="1.68438">
        <ele>10.8</ele>
        <time>2020-06-18T17:48:10Z</time>
      </trkpt>
      <trkpt lat="50.29505" lon="1.68442">
        <ele>10.8</ele>
        <time>2020-06-18T17:48:11Z</time>
      </trkpt>
      <trkpt lat="50.29512" lon="1.68446">
        <ele>10.7</ele>
        <time>2020-06-18T17:48:12Z</time>
      </trkpt>
      <trkpt lat="50.2952" lon="1.68451">
        <ele>10.5</ele>
        <time>2020-06-18T17:48:13Z</time>
      </trkpt>
      <trkpt lat="50.29526" lon="1.68455">
        <ele>10.4</ele>
        <time>2020-06-18T17:48:14Z</time>
      </trkpt>
      <trkpt lat="50.29532" lon="1.68459">
        <ele>10.3</ele>
        <time>2020-06-18T17:48:15Z</time>
      </trkpt>
      <trkpt lat="50.29539" lon="1.68462">
        <ele>10.1</ele>
        <time>2020-06-18T17:48:16Z</time>
      </trkpt>
      <trkpt lat="50.29546" lon="1.68466">
        <ele>10</ele>
        <time>2020-06-18T17:48:17Z</time>
      </trkpt>
      <trkpt lat="50.29553" lon="1.6847">
        <ele>9.8</ele>
        <time>2020-06-18T17:48:18Z</time>
      </trkpt>
      <trkpt lat="50.2956" lon="1.68473">
        <ele>9.7</ele>
        <time>2020-06-18T17:48:19Z</time>
      </trkpt>
      <trkpt lat="50.29566" lon="1.68476">
        <ele>9.6</ele>
        <time>2020-06-18T17:48:20Z</time>
      </trkpt>
      <trkpt lat="50.29572" lon="1.68479">
        <ele>9.4</ele>
        <time>2020-06-18T17:48:21Z</time>
      </trkpt>
      <trkpt lat="50.29579" lon="1.68481">
        <ele>9.3</ele>
        <time>2020-06-18T17:48:22Z</time>
      </trkpt>
      <trkpt lat="50.29586" lon="1.68484">
        <ele>9.1</ele>
        <time>2020-06-18T17:48:23Z</time>
      </trkpt>
      <trkpt lat="50.29593" lon="1.68487">
        <ele>9</ele>
        <time>2020-06-18T17:48:24Z</time>
      </trkpt>
      <trkpt lat="50.296" lon="1.68489">
        <ele>8.8</ele>
        <time>2020-06-18T17:48:25Z</time>
      </trkpt>
      <trkpt lat="50.29606" lon="1.68492">
        <ele>8.6</ele>
        <time>2020-06-18T17:48:26Z</time>
      </trkpt>
      <trkpt lat="50.29613" lon="1.68496">
        <ele>8.4</ele>
        <time>2020-06-18T17:48:27Z</time>
      </trkpt>
      <trkpt lat="50.29621" lon="1.68498">
        <ele>8.3</ele>
        <time>2020-06-18T17:48:28Z</time>
      </trkpt>
      <trkpt lat="50.29627" lon="1.68501">
        <ele>8.2</ele>
        <time>2020-06-18T17:48:29Z</time>
      </trkpt>
      <trkpt lat="50.29634" lon="1.68503">
        <ele>8.1</ele>
        <time>2020-06-18T17:48:30Z</time>
      </trkpt>
      <trkpt lat="50.29641" lon="1.68505">
        <ele>8</ele>
        <time>2020-06-18T17:48:31Z</time>
      </trkpt>
      <trkpt lat="50.29647" lon="1.68507">
        <ele>7.8</ele>
        <time>2020-06-18T17:48:32Z</time>
      </trkpt>
      <trkpt lat="50.29653" lon="1.6851">
        <ele>7.7</ele>
        <time>2020-06-18T17:48:33Z</time>
      </trkpt>
      <trkpt lat="50.2966" lon="1.68512">
        <ele>7.7</ele>
        <time>2020-06-18T17:48:34Z</time>
      </trkpt>
      <trkpt lat="50.29666" lon="1.68514">
        <ele>7.6</ele>
        <time>2020-06-18T17:48:35Z</time>
      </trkpt>
      <trkpt lat="50.29672" lon="1.68516">
        <ele>7.5</ele>
        <time>2020-06-18T17:48:36Z</time>
      </trkpt>
      <trkpt lat="50.29678" lon="1.68518">
        <ele>7.4</ele>
        <time>2020-06-18T17:48:37Z</time>
      </trkpt>
      <trkpt lat="50.29684" lon="1.6852">
        <ele>7.3</ele>
        <time>2020-06-18T17:48:38Z</time>
      </trkpt>
      <trkpt lat="50.2969" lon="1.68523">
        <ele>7.1</ele>
        <time>2020-06-18T17:48:39Z</time>
      </trkpt>
      <trkpt lat="50.29696" lon="1.68525">
        <ele>7</ele>
        <time>2020-06-18T17:48:40Z</time>
      </trkpt>
      <trkpt lat="50.29702" lon="1.68528">
        <ele>6.8</ele>
        <time>2020-06-18T17:48:41Z</time>
      </trkpt>
      <trkpt lat="50.29708" lon="1.6853">
        <ele>6.6</ele>
        <time>2020-06-18T17:48:42Z</time>
      </trkpt>
      <trkpt lat="50.29715" lon="1.68533">
        <ele>6.4</ele>
        <time>2020-06-18T17:48:43Z</time>
      </trkpt>
      <trkpt lat="50.29722" lon="1.68536">
        <ele>6.2</ele>
        <time>2020-06-18T17:48:44Z</time>
      </trkpt>
      <trkpt lat="50.29729" lon="1.6854">
        <ele>6</ele>
        <time>2020-06-18T17:48:45Z</time>
      </trkpt>
      <trkpt lat="50.29736" lon="1.68544">
        <ele>5.9</ele>
        <time>2020-06-18T17:48:46Z</time>
      </trkpt>
      <trkpt lat="50.29742" lon="1.68548">
        <ele>5.7</ele>
        <time>2020-06-18T17:48:47Z</time>
      </trkpt>
      <trkpt lat="50.2975" lon="1.68552">
        <ele>5.6</ele>
        <time>2020-06-18T17:48:48Z</time>
      </trkpt>
      <trkpt lat="50.29757" lon="1.68555">
        <ele>5.5</ele>
        <time>2020-06-18T17:48:49Z</time>
      </trkpt>
      <trkpt lat="50.29764" lon="1.68558">
        <ele>5.4</ele>
        <time>2020-06-18T17:48:50Z</time>
      </trkpt>
      <trkpt lat="50.29771" lon="1.68559">
        <ele>5.3</ele>
        <time>2020-06-18T17:48:51Z</time>
      </trkpt>
      <trkpt lat="50.29778" lon="1.68561">
        <ele>5.2</ele>
        <time>2020-06-18T17:48:52Z</time>
      </trkpt>
      <trkpt lat="50.29785" lon="1.6856">
        <ele>5.1</ele>
        <time>2020-06-18T17:48:53Z</time>
      </trkpt>
      <trkpt lat="50.29793" lon="1.6856">
        <ele>5.1</ele>
        <time>2020-06-18T17:48:54Z</time>
      </trkpt>
      <trkpt lat="50.298" lon="1.68558">
        <ele>5</ele>
        <time>2020-06-18T17:48:55Z</time>
      </trkpt>
      <trkpt lat="50.29808" lon="1.68555">
        <ele>5</ele>
        <time>2020-06-18T17:48:56Z</time>
      </trkpt>
      <trkpt lat="50.29814" lon="1.68552">
        <ele>5</ele>
        <time>2020-06-18T17:48:57Z</time>
      </trkpt>
      <trkpt lat="50.2982" lon="1.68549">
        <ele>4.9</ele>
        <time>2020-06-18T17:48:58Z</time>
      </trkpt>
      <trkpt lat="50.29826" lon="1.68546">
        <ele>4.9</ele>
        <time>2020-06-18T17:48:59Z</time>
      </trkpt>
      <trkpt lat="50.29833" lon="1.68542">
        <ele>4.8</ele>
        <time>2020-06-18T17:49:00Z</time>
      </trkpt>
      <trkpt lat="50.2984" lon="1.68539">
        <ele>4.7</ele>
        <time>2020-06-18T17:49:01Z</time>
      </trkpt>
      <trkpt lat="50.29846" lon="1.68535">
        <ele>4.6</ele>
        <time>2020-06-18T17:49:02Z</time>
      </trkpt>
      <trkpt lat="50.29852" lon="1.68534">
        <ele>4.5</ele>
        <time>2020-06-18T17:49:03Z</time>
      </trkpt>
      <trkpt lat="50.29859" lon="1.68532">
        <ele>4.5</ele>
        <time>2020-06-18T17:49:04Z</time>
      </trkpt>
      <trkpt lat="50.29865" lon="1.68529">
        <ele>4.4</ele>
        <time>2020-06-18T17:49:05Z</time>
      </trkpt>
      <trkpt lat="50.29871" lon="1.68527">
        <ele>4.4</ele>
        <time>2020-06-18T17:49:06Z</time>
      </trkpt>
      <trkpt lat="50.29877" lon="1.68523">
        <ele>4.4</ele>
        <time>2020-06-18T17:49:07Z</time>
      </trkpt>
      <trkpt lat="50.29884" lon="1.68522">
        <ele>4.5</ele>
        <time>2020-06-18T17:49:08Z</time>
      </trkpt>
      <trkpt lat="50.29891" lon="1.6852">
        <ele>4.5</ele>
        <time>2020-06-18T17:49:09Z</time>
      </trkpt>
      <trkpt lat="50.29897" lon="1.68517">
        <ele>4.6</ele>
        <time>2020-06-18T17:49:10Z</time>
      </trkpt>
      <trkpt lat="50.29904" lon="1.68515">
        <ele>4.6</ele>
        <time>2020-06-18T17:49:11Z</time>
      </trkpt>
      <trkpt lat="50.29911" lon="1.68512">
        <ele>4.7</ele>
        <time>2020-06-18T17:49:12Z</time>
      </trkpt>
      <trkpt lat="50.29917" lon="1.68508">
        <ele>4.8</ele>
        <time>2020-06-18T17:49:13Z</time>
      </trkpt>
      <trkpt lat="50.29924" lon="1.68504">
        <ele>4.9</ele>
        <time>2020-06-18T17:49:14Z</time>
      </trkpt>
      <trkpt lat="50.2993" lon="1.68503">
        <ele>5.2</ele>
        <time>2020-06-18T17:49:15Z</time>
      </trkpt>
      <trkpt lat="50.29938" lon="1.68503">
        <ele>5.4</ele>
        <time>2020-06-18T17:49:16Z</time>
      </trkpt>
      <trkpt lat="50.29945" lon="1.68504">
        <ele>5.6</ele>
        <time>2020-06-18T17:49:17Z</time>
      </trkpt>
      <trkpt lat="50.29953" lon="1.68507">
        <ele>5.8</ele>
        <time>2020-06-18T17:49:18Z</time>
      </trkpt>
      <trkpt lat="50.29961" lon="1.6851">
        <ele>6.1</ele>
        <time>2020-06-18T17:49:19Z</time>
      </trkpt>
      <trkpt lat="50.29967" lon="1.68515">
        <ele>6.2</ele>
        <time>2020-06-18T17:49:20Z</time>
      </trkpt>
      <trkpt lat="50.29974" lon="1.6852">
        <ele>6.3</ele>
        <time>2020-06-18T17:49:21Z</time>
      </trkpt>
      <trkpt lat="50.29982" lon="1.68525">
        <ele>6.4</ele>
        <time>2020-06-18T17:49:22Z</time>
      </trkpt>
      <trkpt lat="50.29988" lon="1.68529">
        <ele>6.5</ele>
        <time>2020-06-18T17:49:23Z</time>
      </trkpt>
      <trkpt lat="50.29994" lon="1.68534">
        <ele>6.6</ele>
        <time>2020-06-18T17:49:24Z</time>
      </trkpt>
      <trkpt lat="50.3" lon="1.68539">
        <ele>6.7</ele>
        <time>2020-06-18T17:49:25Z</time>
      </trkpt>
      <trkpt lat="50.30006" lon="1.68544">
        <ele>6.8</ele>
        <time>2020-06-18T17:49:26Z</time>
      </trkpt>
      <trkpt lat="50.30012" lon="1.68549">
        <ele>6.9</ele>
        <time>2020-06-18T17:49:27Z</time>
      </trkpt>
      <trkpt lat="50.30018" lon="1.68554">
        <ele>7</ele>
        <time>2020-06-18T17:49:28Z</time>
      </trkpt>
      <trkpt lat="50.30024" lon="1.68559">
        <ele>7</ele>
        <time>2020-06-18T17:49:29Z</time>
      </trkpt>
      <trkpt lat="50.3003" lon="1.68564">
        <ele>7</ele>
        <time>2020-06-18T17:49:30Z</time>
      </trkpt>
      <trkpt lat="50.30037" lon="1.68568">
        <ele>7</ele>
        <time>2020-06-18T17:49:31Z</time>
      </trkpt>
      <trkpt lat="50.30043" lon="1.68573">
        <ele>7</ele>
        <time>2020-06-18T17:49:32Z</time>
      </trkpt>
      <trkpt lat="50.3005" lon="1.68578">
        <ele>7</ele>
        <time>2020-06-18T17:49:33Z</time>
      </trkpt>
      <trkpt lat="50.30057" lon="1.68584">
        <ele>6.9</ele>
        <time>2020-06-18T17:49:34Z</time>
      </trkpt>
      <trkpt lat="50.30063" lon="1.68589">
        <ele>6.9</ele>
        <time>2020-06-18T17:49:35Z</time>
      </trkpt>
      <trkpt lat="50.3007" lon="1.68594">
        <ele>6.8</ele>
        <time>2020-06-18T17:49:36Z</time>
      </trkpt>
      <trkpt lat="50.30076" lon="1.68599">
        <ele>6.7</ele>
        <time>2020-06-18T17:49:37Z</time>
      </trkpt>
      <trkpt lat="50.30082" lon="1.68606">
        <ele>6.6</ele>
        <time>2020-06-18T17:49:38Z</time>
      </trkpt>
      <trkpt lat="50.30089" lon="1.68613">
        <ele>6.5</ele>
        <time>2020-06-18T17:49:39Z</time>
      </trkpt>
      <trkpt lat="50.30095" lon="1.68619">
        <ele>6.5</ele>
        <time>2020-06-18T17:49:40Z</time>
      </trkpt>
      <trkpt lat="50.30102" lon="1.68624">
        <ele>6.5</ele>
        <time>2020-06-18T17:49:41Z</time>
      </trkpt>
      <trkpt lat="50.30109" lon="1.68629">
        <ele>6.5</ele>
        <time>2020-06-18T17:49:42Z</time>
      </trkpt>
      <trkpt lat="50.30115" lon="1.68634">
        <ele>6.5</ele>
        <time>2020-06-18T17:49:43Z</time>
      </trkpt>
      <trkpt lat="50.30122" lon="1.68638">
        <ele>6.6</ele>
        <time>2020-06-18T17:49:44Z</time>
      </trkpt>
      <trkpt lat="50.30129" lon="1.68642">
        <ele>6.7</ele>
        <time>2020-06-18T17:49:45Z</time>
      </trkpt>
      <trkpt lat="50.30136" lon="1.68645">
        <ele>6.8</ele>
        <time>2020-06-18T17:49:46Z</time>
      </trkpt>
      <trkpt lat="50.30144" lon="1.68647">
        <ele>6.8</ele>
        <time>2020-06-18T17:49:47Z</time>
      </trkpt>
      <trkpt lat="50.30151" lon="1.68649">
        <ele>6.9</ele>
        <time>2020-06-18T17:49:48Z</time>
      </trkpt>
      <trkpt lat="50.30159" lon="1.6865">
        <ele>7</ele>
        <time>2020-06-18T17:49:49Z</time>
      </trkpt>
      <trkpt lat="50.30166" lon="1.68653">
        <ele>7.1</ele>
        <time>2020-06-18T17:49:50Z</time>
      </trkpt>
      <trkpt lat="50.30173" lon="1.68653">
        <ele>7.2</ele>
        <time>2020-06-18T17:49:51Z</time>
      </trkpt>
      <trkpt lat="50.3018" lon="1.68655">
        <ele>7.3</ele>
        <time>2020-06-18T17:49:52Z</time>
      </trkpt>
      <trkpt lat="50.30187" lon="1.68657">
        <ele>7.3</ele>
        <time>2020-06-18T17:49:53Z</time>
      </trkpt>
      <trkpt lat="50.30194" lon="1.68658">
        <ele>7.4</ele>
        <time>2020-06-18T17:49:54Z</time>
      </trkpt>
      <trkpt lat="50.30201" lon="1.6866">
        <ele>7.4</ele>
        <time>2020-06-18T17:49:55Z</time>
      </trkpt>
      <trkpt lat="50.30208" lon="1.68661">
        <ele>7.4</ele>
        <time>2020-06-18T17:49:56Z</time>
      </trkpt>
      <trkpt lat="50.30214" lon="1.68662">
        <ele>7.4</ele>
        <time>2020-06-18T17:49:57Z</time>
      </trkpt>
      <trkpt lat="50.30221" lon="1.68663">
        <ele>7.5</ele>
        <time>2020-06-18T17:49:58Z</time>
      </trkpt>
      <trkpt lat="50.30228" lon="1.68665">
        <ele>7.5</ele>
        <time>2020-06-18T17:49:59Z</time>
      </trkpt>
      <trkpt lat="50.30234" lon="1.68665">
        <ele>7.6</ele>
        <time>2020-06-18T17:50:00Z</time>
      </trkpt>
      <trkpt lat="50.30241" lon="1.68666">
        <ele>7.6</ele>
        <time>2020-06-18T17:50:01Z</time>
      </trkpt>
      <trkpt lat="50.30247" lon="1.68666">
        <ele>7.7</ele>
        <time>2020-06-18T17:50:02Z</time>
      </trkpt>
      <trkpt lat="50.30254" lon="1.68666">
        <ele>7.7</ele>
        <time>2020-06-18T17:50:03Z</time>
      </trkpt>
      <trkpt lat="50.3026" lon="1.68667">
        <ele>7.8</ele>
        <time>2020-06-18T17:50:04Z</time>
      </trkpt>
      <trkpt lat="50.30266" lon="1.68668">
        <ele>7.8</ele>
        <time>2020-06-18T17:50:05Z</time>
      </trkpt>
      <trkpt lat="50.30272" lon="1.68669">
        <ele>7.8</ele>
        <time>2020-06-18T17:50:06Z</time>
      </trkpt>
      <trkpt lat="50.30278" lon="1.68671">
        <ele>7.8</ele>
        <time>2020-06-18T17:50:07Z</time>
      </trkpt>
      <trkpt lat="50.30283" lon="1.68672">
        <ele>7.8</ele>
        <time>2020-06-18T17:50:08Z</time>
      </trkpt>
      <trkpt lat="50.30289" lon="1.68675">
        <ele>7.9</ele>
        <time>2020-06-18T17:50:09Z</time>
      </trkpt>
      <trkpt lat="50.30294" lon="1.68677">
        <ele>7.9</ele>
        <time>2020-06-18T17:50:10Z</time>
      </trkpt>
      <trkpt lat="50.30299" lon="1.68677">
        <ele>7.9</ele>
        <time>2020-06-18T17:50:11Z</time>
      </trkpt>
      <trkpt lat="50.30304" lon="1.68676">
        <ele>7.9</ele>
        <time>2020-06-18T17:50:12Z</time>
      </trkpt>
      <trkpt lat="50.30309" lon="1.68677">
        <ele>7.9</ele>
        <time>2020-06-18T17:50:13Z</time>
      </trkpt>
      <trkpt lat="50.30313" lon="1.68677">
        <ele>7.9</ele>
        <time>2020-06-18T17:50:14Z</time>
      </trkpt>
      <trkpt lat="50.30317" lon="1.68678">
        <ele>8</ele>
        <time>2020-06-18T17:50:15Z</time>
      </trkpt>
      <trkpt lat="50.30322" lon="1.68677">
        <ele>8</ele>
        <time>2020-06-18T17:50:16Z</time>
      </trkpt>
      <trkpt lat="50.30326" lon="1.68678">
        <ele>8</ele>
        <time>2020-06-18T17:50:17Z</time>
      </trkpt>
      <trkpt lat="50.30331" lon="1.68678">
        <ele>8</ele>
        <time>2020-06-18T17:50:18Z</time>
      </trkpt>
      <trkpt lat="50.30337" lon="1.68678">
        <ele>8</ele>
        <time>2020-06-18T17:50:19Z</time>
      </trkpt>
      <trkpt lat="50.30342" lon="1.68678">
        <ele>8</ele>
        <time>2020-06-18T17:50:20Z</time>
      </trkpt>
      <trkpt lat="50.30347" lon="1.68678">
        <ele>8</ele>
        <time>2020-06-18T17:50:21Z</time>
      </trkpt>
      <trkpt lat="50.30353" lon="1.68677">
        <ele>8</ele>
        <time>2020-06-18T17:50:22Z</time>
      </trkpt>
      <trkpt lat="50.30359" lon="1.68676">
        <ele>8</ele>
        <time>2020-06-18T17:50:23Z</time>
      </trkpt>
      <trkpt lat="50.30365" lon="1.68676">
        <ele>7.9</ele>
        <time>2020-06-18T17:50:24Z</time>
      </trkpt>
      <trkpt lat="50.30372" lon="1.68675">
        <ele>7.9</ele>
        <time>2020-06-18T17:50:25Z</time>
      </trkpt>
      <trkpt lat="50.30379" lon="1.68674">
        <ele>7.9</ele>
        <time>2020-06-18T17:50:26Z</time>
      </trkpt>
      <trkpt lat="50.30386" lon="1.68673">
        <ele>7.8</ele>
        <time>2020-06-18T17:50:27Z</time>
      </trkpt>
      <trkpt lat="50.30393" lon="1.68673">
        <ele>7.8</ele>
        <time>2020-06-18T17:50:28Z</time>
      </trkpt>
      <trkpt lat="50.30401" lon="1.68673">
        <ele>7.8</ele>
        <time>2020-06-18T17:50:29Z</time>
      </trkpt>
      <trkpt lat="50.30408" lon="1.68672">
        <ele>7.8</ele>
        <time>2020-06-18T17:50:30Z</time>
      </trkpt>
      <trkpt lat="50.30415" lon="1.6867">
        <ele>7.8</ele>
        <time>2020-06-18T17:50:31Z</time>
      </trkpt>
      <trkpt lat="50.30423" lon="1.6867">
        <ele>7.8</ele>
        <time>2020-06-18T17:50:32Z</time>
      </trkpt>
      <trkpt lat="50.3043" lon="1.6867">
        <ele>7.9</ele>
        <time>2020-06-18T17:50:33Z</time>
      </trkpt>
      <trkpt lat="50.30437" lon="1.68669">
        <ele>7.9</ele>
        <time>2020-06-18T17:50:34Z</time>
      </trkpt>
      <trkpt lat="50.30444" lon="1.68669">
        <ele>8</ele>
        <time>2020-06-18T17:50:35Z</time>
      </trkpt>
      <trkpt lat="50.30451" lon="1.68668">
        <ele>8.1</ele>
        <time>2020-06-18T17:50:36Z</time>
      </trkpt>
      <trkpt lat="50.30458" lon="1.68667">
        <ele>8.1</ele>
        <time>2020-06-18T17:50:37Z</time>
      </trkpt>
      <trkpt lat="50.30466" lon="1.68667">
        <ele>8.2</ele>
        <time>2020-06-18T17:50:38Z</time>
      </trkpt>
      <trkpt lat="50.30473" lon="1.68667">
        <ele>8.3</ele>
        <time>2020-06-18T17:50:39Z</time>
      </trkpt>
      <trkpt lat="50.3048" lon="1.68667">
        <ele>8.3</ele>
        <time>2020-06-18T17:50:40Z</time>
      </trkpt>
      <trkpt lat="50.30487" lon="1.68666">
        <ele>8.4</ele>
        <time>2020-06-18T17:50:41Z</time>
      </trkpt>
      <trkpt lat="50.30494" lon="1.68666">
        <ele>8.4</ele>
        <time>2020-06-18T17:50:42Z</time>
      </trkpt>
      <trkpt lat="50.30501" lon="1.68665">
        <ele>8.5</ele>
        <time>2020-06-18T17:50:43Z</time>
      </trkpt>
      <trkpt lat="50.30507" lon="1.68665">
        <ele>8.5</ele>
        <time>2020-06-18T17:50:44Z</time>
      </trkpt>
      <trkpt lat="50.30514" lon="1.68665">
        <ele>8.6</ele>
        <time>2020-06-18T17:50:45Z</time>
      </trkpt>
      <trkpt lat="50.3052" lon="1.68665">
        <ele>8.6</ele>
        <time>2020-06-18T17:50:46Z</time>
      </trkpt>
      <trkpt lat="50.30527" lon="1.68665">
        <ele>8.7</ele>
        <time>2020-06-18T17:50:47Z</time>
      </trkpt>
      <trkpt lat="50.30533" lon="1.68664">
        <ele>8.7</ele>
        <time>2020-06-18T17:50:48Z</time>
      </trkpt>
      <trkpt lat="50.3054" lon="1.68664">
        <ele>8.7</ele>
        <time>2020-06-18T17:50:49Z</time>
      </trkpt>
      <trkpt lat="50.30546" lon="1.68662">
        <ele>8.8</ele>
        <time>2020-06-18T17:50:50Z</time>
      </trkpt>
      <trkpt lat="50.30553" lon="1.68661">
        <ele>8.8</ele>
        <time>2020-06-18T17:50:51Z</time>
      </trkpt>
      <trkpt lat="50.30559" lon="1.68661">
        <ele>8.8</ele>
        <time>2020-06-18T17:50:52Z</time>
      </trkpt>
      <trkpt lat="50.30566" lon="1.6866">
        <ele>8.8</ele>
        <time>2020-06-18T17:50:53Z</time>
      </trkpt>
      <trkpt lat="50.30573" lon="1.6866">
        <ele>8.8</ele>
        <time>2020-06-18T17:50:54Z</time>
      </trkpt>
      <trkpt lat="50.30579" lon="1.68659">
        <ele>8.7</ele>
        <time>2020-06-18T17:50:55Z</time>
      </trkpt>
      <trkpt lat="50.30586" lon="1.6866">
        <ele>8.7</ele>
        <time>2020-06-18T17:50:56Z</time>
      </trkpt>
      <trkpt lat="50.30593" lon="1.68659">
        <ele>8.7</ele>
        <time>2020-06-18T17:50:57Z</time>
      </trkpt>
      <trkpt lat="50.306" lon="1.6866">
        <ele>8.7</ele>
        <time>2020-06-18T17:50:58Z</time>
      </trkpt>
      <trkpt lat="50.30607" lon="1.68661">
        <ele>8.7</ele>
        <time>2020-06-18T17:50:59Z</time>
      </trkpt>
      <trkpt lat="50.30614" lon="1.68661">
        <ele>8.7</ele>
        <time>2020-06-18T17:51:00Z</time>
      </trkpt>
      <trkpt lat="50.30621" lon="1.68662">
        <ele>8.7</ele>
        <time>2020-06-18T17:51:01Z</time>
      </trkpt>
      <trkpt lat="50.30628" lon="1.68664">
        <ele>8.7</ele>
        <time>2020-06-18T17:51:02Z</time>
      </trkpt>
      <trkpt lat="50.30635" lon="1.68666">
        <ele>8.7</ele>
        <time>2020-06-18T17:51:03Z</time>
      </trkpt>
      <trkpt lat="50.30642" lon="1.68669">
        <ele>8.7</ele>
        <time>2020-06-18T17:51:04Z</time>
      </trkpt>
      <trkpt lat="50.30648" lon="1.68674">
        <ele>8.7</ele>
        <time>2020-06-18T17:51:05Z</time>
      </trkpt>
      <trkpt lat="50.30655" lon="1.68679">
        <ele>8.7</ele>
        <time>2020-06-18T17:51:06Z</time>
      </trkpt>
      <trkpt lat="50.30661" lon="1.68685">
        <ele>8.7</ele>
        <time>2020-06-18T17:51:07Z</time>
      </trkpt>
      <trkpt lat="50.30666" lon="1.68691">
        <ele>8.6</ele>
        <time>2020-06-18T17:51:08Z</time>
      </trkpt>
      <trkpt lat="50.30672" lon="1.68698">
        <ele>8.6</ele>
        <time>2020-06-18T17:51:09Z</time>
      </trkpt>
      <trkpt lat="50.30677" lon="1.68705">
        <ele>8.6</ele>
        <time>2020-06-18T17:51:10Z</time>
      </trkpt>
      <trkpt lat="50.30684" lon="1.68711">
        <ele>8.6</ele>
        <time>2020-06-18T17:51:11Z</time>
      </trkpt>
      <trkpt lat="50.30689" lon="1.68719">
        <ele>8.6</ele>
        <time>2020-06-18T17:51:12Z</time>
      </trkpt>
      <trkpt lat="50.30695" lon="1.68725">
        <ele>8.5</ele>
        <time>2020-06-18T17:51:13Z</time>
      </trkpt>
      <trkpt lat="50.30701" lon="1.68732">
        <ele>8.5</ele>
        <time>2020-06-18T17:51:14Z</time>
      </trkpt>
      <trkpt lat="50.30707" lon="1.6874">
        <ele>8.4</ele>
        <time>2020-06-18T17:51:15Z</time>
      </trkpt>
      <trkpt lat="50.30713" lon="1.68747">
        <ele>8.4</ele>
        <time>2020-06-18T17:51:16Z</time>
      </trkpt>
      <trkpt lat="50.3072" lon="1.68755">
        <ele>8.3</ele>
        <time>2020-06-18T17:51:17Z</time>
      </trkpt>
      <trkpt lat="50.30725" lon="1.68764">
        <ele>8.3</ele>
        <time>2020-06-18T17:51:18Z</time>
      </trkpt>
      <trkpt lat="50.3073" lon="1.68773">
        <ele>8.3</ele>
        <time>2020-06-18T17:51:19Z</time>
      </trkpt>
      <trkpt lat="50.30734" lon="1.68783">
        <ele>8.3</ele>
        <time>2020-06-18T17:51:20Z</time>
      </trkpt>
      <trkpt lat="50.30738" lon="1.68794">
        <ele>8.3</ele>
        <time>2020-06-18T17:51:21Z</time>
      </trkpt>
      <trkpt lat="50.30741" lon="1.68805">
        <ele>8.3</ele>
        <time>2020-06-18T17:51:22Z</time>
      </trkpt>
      <trkpt lat="50.30744" lon="1.68816">
        <ele>8.3</ele>
        <time>2020-06-18T17:51:23Z</time>
      </trkpt>
      <trkpt lat="50.30747" lon="1.68827">
        <ele>8.2</ele>
        <time>2020-06-18T17:51:24Z</time>
      </trkpt>
      <trkpt lat="50.3075" lon="1.68838">
        <ele>8.2</ele>
        <time>2020-06-18T17:51:25Z</time>
      </trkpt>
      <trkpt lat="50.30753" lon="1.68848">
        <ele>8.2</ele>
        <time>2020-06-18T17:51:26Z</time>
      </trkpt>
      <trkpt lat="50.30756" lon="1.68859">
        <ele>8.2</ele>
        <time>2020-06-18T17:51:27Z</time>
      </trkpt>
      <trkpt lat="50.3076" lon="1.68869">
        <ele>8.2</ele>
        <time>2020-06-18T17:51:28Z</time>
      </trkpt>
      <trkpt lat="50.30764" lon="1.68879">
        <ele>8.2</ele>
        <time>2020-06-18T17:51:29Z</time>
      </trkpt>
      <trkpt lat="50.30767" lon="1.68889">
        <ele>8.2</ele>
        <time>2020-06-18T17:51:30Z</time>
      </trkpt>
      <trkpt lat="50.3077" lon="1.689">
        <ele>8.2</ele>
        <time>2020-06-18T17:51:31Z</time>
      </trkpt>
      <trkpt lat="50.30774" lon="1.68909">
        <ele>8.2</ele>
        <time>2020-06-18T17:51:32Z</time>
      </trkpt>
      <trkpt lat="50.30778" lon="1.68919">
        <ele>8.2</ele>
        <time>2020-06-18T17:51:33Z</time>
      </trkpt>
      <trkpt lat="50.30782" lon="1.68929">
        <ele>8.2</ele>
        <time>2020-06-18T17:51:34Z</time>
      </trkpt>
      <trkpt lat="50.30786" lon="1.68938">
        <ele>8.3</ele>
        <time>2020-06-18T17:51:35Z</time>
      </trkpt>
      <trkpt lat="50.3079" lon="1.68947">
        <ele>8.3</ele>
        <time>2020-06-18T17:51:36Z</time>
      </trkpt>
      <trkpt lat="50.30795" lon="1.68956">
        <ele>8.3</ele>
        <time>2020-06-18T17:51:37Z</time>
      </trkpt>
      <trkpt lat="50.30799" lon="1.68965">
        <ele>8.4</ele>
        <time>2020-06-18T17:51:38Z</time>
      </trkpt>
      <trkpt lat="50.30804" lon="1.68974">
        <ele>8.4</ele>
        <time>2020-06-18T17:51:39Z</time>
      </trkpt>
      <trkpt lat="50.30808" lon="1.68984">
        <ele>8.4</ele>
        <time>2020-06-18T17:51:40Z</time>
      </trkpt>
      <trkpt lat="50.30813" lon="1.68993">
        <ele>8.5</ele>
        <time>2020-06-18T17:51:41Z</time>
      </trkpt>
      <trkpt lat="50.30818" lon="1.69001">
        <ele>8.5</ele>
        <time>2020-06-18T17:51:42Z</time>
      </trkpt>
      <trkpt lat="50.30823" lon="1.69009">
        <ele>8.5</ele>
        <time>2020-06-18T17:51:43Z</time>
      </trkpt>
      <trkpt lat="50.30827" lon="1.69018">
        <ele>8.5</ele>
        <time>2020-06-18T17:51:44Z</time>
      </trkpt>
      <trkpt lat="50.30832" lon="1.69026">
        <ele>8.5</ele>
        <time>2020-06-18T17:51:45Z</time>
      </trkpt>
      <trkpt lat="50.30837" lon="1.69034">
        <ele>8.5</ele>
        <time>2020-06-18T17:51:46Z</time>
      </trkpt>
      <trkpt lat="50.30842" lon="1.69042">
        <ele>8.5</ele>
        <time>2020-06-18T17:51:47Z</time>
      </trkpt>
      <trkpt lat="50.30847" lon="1.6905">
        <ele>8.5</ele>
        <time>2020-06-18T17:51:48Z</time>
      </trkpt>
      <trkpt lat="50.30851" lon="1.69058">
        <ele>8.5</ele>
        <time>2020-06-18T17:51:49Z</time>
      </trkpt>
      <trkpt lat="50.30856" lon="1.69066">
        <ele>8.5</ele>
        <time>2020-06-18T17:51:50Z</time>
      </trkpt>
      <trkpt lat="50.30861" lon="1.69073">
        <ele>8.5</ele>
        <time>2020-06-18T17:51:51Z</time>
      </trkpt>
      <trkpt lat="50.30865" lon="1.69081">
        <ele>8.6</ele>
        <time>2020-06-18T17:51:52Z</time>
      </trkpt>
      <trkpt lat="50.3087" lon="1.69088">
        <ele>8.6</ele>
        <time>2020-06-18T17:51:53Z</time>
      </trkpt>
      <trkpt lat="50.30874" lon="1.69096">
        <ele>8.6</ele>
        <time>2020-06-18T17:51:54Z</time>
      </trkpt>
      <trkpt lat="50.30878" lon="1.69102">
        <ele>8.6</ele>
        <time>2020-06-18T17:51:55Z</time>
      </trkpt>
      <trkpt lat="50.30883" lon="1.69109">
        <ele>8.5</ele>
        <time>2020-06-18T17:51:56Z</time>
      </trkpt>
      <trkpt lat="50.30887" lon="1.69116">
        <ele>8.5</ele>
        <time>2020-06-18T17:51:57Z</time>
      </trkpt>
      <trkpt lat="50.30892" lon="1.69122">
        <ele>8.4</ele>
        <time>2020-06-18T17:51:58Z</time>
      </trkpt>
      <trkpt lat="50.30896" lon="1.69129">
        <ele>8.4</ele>
        <time>2020-06-18T17:51:59Z</time>
      </trkpt>
      <trkpt lat="50.309" lon="1.69135">
        <ele>8.4</ele>
        <time>2020-06-18T17:52:00Z</time>
      </trkpt>
      <trkpt lat="50.30904" lon="1.69142">
        <ele>8.4</ele>
        <time>2020-06-18T17:52:01Z</time>
      </trkpt>
      <trkpt lat="50.30908" lon="1.69148">
        <ele>8.3</ele>
        <time>2020-06-18T17:52:02Z</time>
      </trkpt>
      <trkpt lat="50.30913" lon="1.69154">
        <ele>8.3</ele>
        <time>2020-06-18T17:52:03Z</time>
      </trkpt>
      <trkpt lat="50.30918" lon="1.69159">
        <ele>8.3</ele>
        <time>2020-06-18T17:52:04Z</time>
      </trkpt>
      <trkpt lat="50.30923" lon="1.69164">
        <ele>8.3</ele>
        <time>2020-06-18T17:52:05Z</time>
      </trkpt>
      <trkpt lat="50.30928" lon="1.6917">
        <ele>8.3</ele>
        <time>2020-06-18T17:52:06Z</time>
      </trkpt>
      <trkpt lat="50.30934" lon="1.69174">
        <ele>8.3</ele>
        <time>2020-06-18T17:52:07Z</time>
      </trkpt>
      <trkpt lat="50.30939" lon="1.69179">
        <ele>8.3</ele>
        <time>2020-06-18T17:52:08Z</time>
      </trkpt>
      <trkpt lat="50.30944" lon="1.69183">
        <ele>8.3</ele>
        <time>2020-06-18T17:52:09Z</time>
      </trkpt>
      <trkpt lat="50.30948" lon="1.69188">
        <ele>8.3</ele>
        <time>2020-06-18T17:52:10Z</time>
      </trkpt>
      <trkpt lat="50.30953" lon="1.69194">
        <ele>8.3</ele>
        <time>2020-06-18T17:52:11Z</time>
      </trkpt>
      <trkpt lat="50.30957" lon="1.69199">
        <ele>8.3</ele>
        <time>2020-06-18T17:52:12Z</time>
      </trkpt>
      <trkpt lat="50.30962" lon="1.69204">
        <ele>8.3</ele>
        <time>2020-06-18T17:52:13Z</time>
      </trkpt>
      <trkpt lat="50.30966" lon="1.6921">
        <ele>8.3</ele>
        <time>2020-06-18T17:52:14Z</time>
      </trkpt>
      <trkpt lat="50.30971" lon="1.69214">
        <ele>8.3</ele>
        <time>2020-06-18T17:52:15Z</time>
      </trkpt>
      <trkpt lat="50.30977" lon="1.69218">
        <ele>8.3</ele>
        <time>2020-06-18T17:52:16Z</time>
      </trkpt>
      <trkpt lat="50.30982" lon="1.69223">
        <ele>8.3</ele>
        <time>2020-06-18T17:52:17Z</time>
      </trkpt>
      <trkpt lat="50.30988" lon="1.69228">
        <ele>8.3</ele>
        <time>2020-06-18T17:52:18Z</time>
      </trkpt>
      <trkpt lat="50.30994" lon="1.69232">
        <ele>8.3</ele>
        <time>2020-06-18T17:52:19Z</time>
      </trkpt>
      <trkpt lat="50.31" lon="1.69237">
        <ele>8.3</ele>
        <time>2020-06-18T17:52:20Z</time>
      </trkpt>
      <trkpt lat="50.31006" lon="1.69243">
        <ele>8.3</ele>
        <time>2020-06-18T17:52:21Z</time>
      </trkpt>
      <trkpt lat="50.31011" lon="1.69249">
        <ele>8.3</ele>
        <time>2020-06-18T17:52:22Z</time>
      </trkpt>
      <trkpt lat="50.31017" lon="1.69254">
        <ele>8.2</ele>
        <time>2020-06-18T17:52:23Z</time>
      </trkpt>
      <trkpt lat="50.31023" lon="1.6926">
        <ele>8.2</ele>
        <time>2020-06-18T17:52:24Z</time>
      </trkpt>
      <trkpt lat="50.31028" lon="1.69266">
        <ele>8.1</ele>
        <time>2020-06-18T17:52:25Z</time>
      </trkpt>
      <trkpt lat="50.31034" lon="1.69272">
        <ele>8.1</ele>
        <time>2020-06-18T17:52:26Z</time>
      </trkpt>
      <trkpt lat="50.3104" lon="1.69277">
        <ele>8.1</ele>
        <time>2020-06-18T17:52:27Z</time>
      </trkpt>
      <trkpt lat="50.31046" lon="1.69282">
        <ele>8.1</ele>
        <time>2020-06-18T17:52:28Z</time>
      </trkpt>
      <trkpt lat="50.31052" lon="1.69287">
        <ele>8</ele>
        <time>2020-06-18T17:52:29Z</time>
      </trkpt>
      <trkpt lat="50.31059" lon="1.69291">
        <ele>8</ele>
        <time>2020-06-18T17:52:30Z</time>
      </trkpt>
      <trkpt lat="50.31065" lon="1.69295">
        <ele>8</ele>
        <time>2020-06-18T17:52:31Z</time>
      </trkpt>
      <trkpt lat="50.31072" lon="1.69299">
        <ele>8</ele>
        <time>2020-06-18T17:52:32Z</time>
      </trkpt>
      <trkpt lat="50.31079" lon="1.69303">
        <ele>7.9</ele>
        <time>2020-06-18T17:52:33Z</time>
      </trkpt>
      <trkpt lat="50.31086" lon="1.69307">
        <ele>7.9</ele>
        <time>2020-06-18T17:52:34Z</time>
      </trkpt>
      <trkpt lat="50.31093" lon="1.69311">
        <ele>7.8</ele>
        <time>2020-06-18T17:52:35Z</time>
      </trkpt>
      <trkpt lat="50.311" lon="1.69315">
        <ele>7.8</ele>
        <time>2020-06-18T17:52:36Z</time>
      </trkpt>
      <trkpt lat="50.31107" lon="1.69319">
        <ele>7.8</ele>
        <time>2020-06-18T17:52:37Z</time>
      </trkpt>
      <trkpt lat="50.31114" lon="1.69323">
        <ele>7.9</ele>
        <time>2020-06-18T17:52:38Z</time>
      </trkpt>
      <trkpt lat="50.3112" lon="1.69326">
        <ele>8</ele>
        <time>2020-06-18T17:52:39Z</time>
      </trkpt>
      <trkpt lat="50.31127" lon="1.6933">
        <ele>8</ele>
        <time>2020-06-18T17:52:40Z</time>
      </trkpt>
      <trkpt lat="50.31134" lon="1.69334">
        <ele>7.9</ele>
        <time>2020-06-18T17:52:41Z</time>
      </trkpt>
      <trkpt lat="50.31141" lon="1.69339">
        <ele>7.9</ele>
        <time>2020-06-18T17:52:42Z</time>
      </trkpt>
      <trkpt lat="50.31148" lon="1.69343">
        <ele>7.8</ele>
        <time>2020-06-18T17:52:43Z</time>
      </trkpt>
      <trkpt lat="50.31155" lon="1.69347">
        <ele>7.8</ele>
        <time>2020-06-18T17:52:44Z</time>
      </trkpt>
      <trkpt lat="50.31162" lon="1.69351">
        <ele>7.7</ele>
        <time>2020-06-18T17:52:45Z</time>
      </trkpt>
      <trkpt lat="50.3117" lon="1.69354">
        <ele>7.7</ele>
        <time>2020-06-18T17:52:46Z</time>
      </trkpt>
      <trkpt lat="50.31177" lon="1.69359">
        <ele>7.6</ele>
        <time>2020-06-18T17:52:47Z</time>
      </trkpt>
      <trkpt lat="50.31184" lon="1.69363">
        <ele>7.6</ele>
        <time>2020-06-18T17:52:48Z</time>
      </trkpt>
      <trkpt lat="50.31191" lon="1.69367">
        <ele>7.5</ele>
        <time>2020-06-18T17:52:49Z</time>
      </trkpt>
      <trkpt lat="50.31198" lon="1.69371">
        <ele>7.5</ele>
        <time>2020-06-18T17:52:50Z</time>
      </trkpt>
      <trkpt lat="50.31206" lon="1.69374">
        <ele>7.4</ele>
        <time>2020-06-18T17:52:51Z</time>
      </trkpt>
      <trkpt lat="50.31213" lon="1.69377">
        <ele>7.3</ele>
        <time>2020-06-18T17:52:52Z</time>
      </trkpt>
      <trkpt lat="50.3122" lon="1.69381">
        <ele>7.3</ele>
        <time>2020-06-18T17:52:53Z</time>
      </trkpt>
      <trkpt lat="50.31226" lon="1.69386">
        <ele>7.2</ele>
        <time>2020-06-18T17:52:54Z</time>
      </trkpt>
      <trkpt lat="50.31233" lon="1.6939">
        <ele>7.2</ele>
        <time>2020-06-18T17:52:55Z</time>
      </trkpt>
      <trkpt lat="50.3124" lon="1.69394">
        <ele>7.2</ele>
        <time>2020-06-18T17:52:56Z</time>
      </trkpt>
      <trkpt lat="50.31248" lon="1.69397">
        <ele>7.2</ele>
        <time>2020-06-18T17:52:57Z</time>
      </trkpt>
      <trkpt lat="50.31255" lon="1.69402">
        <ele>7.2</ele>
        <time>2020-06-18T17:52:58Z</time>
      </trkpt>
      <trkpt lat="50.31262" lon="1.69406">
        <ele>7.1</ele>
        <time>2020-06-18T17:52:59Z</time>
      </trkpt>
      <trkpt lat="50.31269" lon="1.6941">
        <ele>7</ele>
        <time>2020-06-18T17:53:00Z</time>
      </trkpt>
      <trkpt lat="50.31276" lon="1.69414">
        <ele>7</ele>
        <time>2020-06-18T17:53:01Z</time>
      </trkpt>
      <trkpt lat="50.31284" lon="1.69418">
        <ele>7</ele>
        <time>2020-06-18T17:53:02Z</time>
      </trkpt>
      <trkpt lat="50.31291" lon="1.69422">
        <ele>7</ele>
        <time>2020-06-18T17:53:03Z</time>
      </trkpt>
      <trkpt lat="50.31298" lon="1.69426">
        <ele>7</ele>
        <time>2020-06-18T17:53:04Z</time>
      </trkpt>
      <trkpt lat="50.31305" lon="1.69431">
        <ele>7</ele>
        <time>2020-06-18T17:53:05Z</time>
      </trkpt>
      <trkpt lat="50.31312" lon="1.69436">
        <ele>6.9</ele>
        <time>2020-06-18T17:53:06Z</time>
      </trkpt>
      <trkpt lat="50.31319" lon="1.6944">
        <ele>6.9</ele>
        <time>2020-06-18T17:53:07Z</time>
      </trkpt>
      <trkpt lat="50.31326" lon="1.69445">
        <ele>6.9</ele>
        <time>2020-06-18T17:53:08Z</time>
      </trkpt>
      <trkpt lat="50.31333" lon="1.69449">
        <ele>6.9</ele>
        <time>2020-06-18T17:53:09Z</time>
      </trkpt>
      <trkpt lat="50.3134" lon="1.69453">
        <ele>6.9</ele>
        <time>2020-06-18T17:53:10Z</time>
      </trkpt>
      <trkpt lat="50.31348" lon="1.69456">
        <ele>7</ele>
        <time>2020-06-18T17:53:11Z</time>
      </trkpt>
      <trkpt lat="50.31354" lon="1.69459">
        <ele>7</ele>
        <time>2020-06-18T17:53:12Z</time>
      </trkpt>
      <trkpt lat="50.31361" lon="1.69463">
        <ele>7.1</ele>
        <time>2020-06-18T17:53:13Z</time>
      </trkpt>
      <trkpt lat="50.31368" lon="1.69466">
        <ele>7.2</ele>
        <time>2020-06-18T17:53:14Z</time>
      </trkpt>
      <trkpt lat="50.31375" lon="1.69467">
        <ele>7.1</ele>
        <time>2020-06-18T17:53:15Z</time>
      </trkpt>
      <trkpt lat="50.31383" lon="1.69468">
        <ele>7.1</ele>
        <time>2020-06-18T17:53:16Z</time>
      </trkpt>
      <trkpt lat="50.3139" lon="1.69467">
        <ele>7</ele>
        <time>2020-06-18T17:53:17Z</time>
      </trkpt>
      <trkpt lat="50.31397" lon="1.69463">
        <ele>7</ele>
        <time>2020-06-18T17:53:18Z</time>
      </trkpt>
      <trkpt lat="50.31404" lon="1.6946">
        <ele>7</ele>
        <time>2020-06-18T17:53:19Z</time>
      </trkpt>
      <trkpt lat="50.31411" lon="1.69457">
        <ele>7</ele>
        <time>2020-06-18T17:53:20Z</time>
      </trkpt>
      <trkpt lat="50.31418" lon="1.69454">
        <ele>7</ele>
        <time>2020-06-18T17:53:21Z</time>
      </trkpt>
      <trkpt lat="50.31425" lon="1.69451">
        <ele>7.1</ele>
        <time>2020-06-18T17:53:22Z</time>
      </trkpt>
      <trkpt lat="50.31431" lon="1.69447">
        <ele>7.1</ele>
        <time>2020-06-18T17:53:23Z</time>
      </trkpt>
      <trkpt lat="50.31438" lon="1.69445">
        <ele>7.2</ele>
        <time>2020-06-18T17:53:24Z</time>
      </trkpt>
      <trkpt lat="50.31445" lon="1.69443">
        <ele>7.2</ele>
        <time>2020-06-18T17:53:25Z</time>
      </trkpt>
      <trkpt lat="50.31452" lon="1.6944">
        <ele>7.2</ele>
        <time>2020-06-18T17:53:26Z</time>
      </trkpt>
      <trkpt lat="50.31458" lon="1.69437">
        <ele>7.3</ele>
        <time>2020-06-18T17:53:27Z</time>
      </trkpt>
      <trkpt lat="50.31465" lon="1.69436">
        <ele>7.3</ele>
        <time>2020-06-18T17:53:28Z</time>
      </trkpt>
      <trkpt lat="50.31472" lon="1.69435">
        <ele>7.4</ele>
        <time>2020-06-18T17:53:29Z</time>
      </trkpt>
      <trkpt lat="50.31479" lon="1.69432">
        <ele>7.4</ele>
        <time>2020-06-18T17:53:30Z</time>
      </trkpt>
      <trkpt lat="50.31486" lon="1.6943">
        <ele>7.5</ele>
        <time>2020-06-18T17:53:31Z</time>
      </trkpt>
      <trkpt lat="50.31493" lon="1.69428">
        <ele>7.6</ele>
        <time>2020-06-18T17:53:32Z</time>
      </trkpt>
      <trkpt lat="50.315" lon="1.69425">
        <ele>7.6</ele>
        <time>2020-06-18T17:53:33Z</time>
      </trkpt>
      <trkpt lat="50.31507" lon="1.69424">
        <ele>7.7</ele>
        <time>2020-06-18T17:53:34Z</time>
      </trkpt>
      <trkpt lat="50.31514" lon="1.69423">
        <ele>7.7</ele>
        <time>2020-06-18T17:53:35Z</time>
      </trkpt>
      <trkpt lat="50.31521" lon="1.6942">
        <ele>7.8</ele>
        <time>2020-06-18T17:53:36Z</time>
      </trkpt>
      <trkpt lat="50.31529" lon="1.69419">
        <ele>7.9</ele>
        <time>2020-06-18T17:53:37Z</time>
      </trkpt>
      <trkpt lat="50.31536" lon="1.69418">
        <ele>7.9</ele>
        <time>2020-06-18T17:53:38Z</time>
      </trkpt>
      <trkpt lat="50.31543" lon="1.69418">
        <ele>8</ele>
        <time>2020-06-18T17:53:39Z</time>
      </trkpt>
      <trkpt lat="50.3155" lon="1.69417">
        <ele>8.1</ele>
        <time>2020-06-18T17:53:40Z</time>
      </trkpt>
      <trkpt lat="50.31557" lon="1.69416">
        <ele>8.1</ele>
        <time>2020-06-18T17:53:41Z</time>
      </trkpt>
      <trkpt lat="50.31564" lon="1.69416">
        <ele>8.2</ele>
        <time>2020-06-18T17:53:42Z</time>
      </trkpt>
      <trkpt lat="50.31572" lon="1.69416">
        <ele>8.2</ele>
        <time>2020-06-18T17:53:43Z</time>
      </trkpt>
      <trkpt lat="50.31579" lon="1.69417">
        <ele>8.3</ele>
        <time>2020-06-18T17:53:44Z</time>
      </trkpt>
      <trkpt lat="50.31586" lon="1.69415">
        <ele>8.4</ele>
        <time>2020-06-18T17:53:45Z</time>
      </trkpt>
      <trkpt lat="50.31593" lon="1.69415">
        <ele>8.4</ele>
        <time>2020-06-18T17:53:46Z</time>
      </trkpt>
      <trkpt lat="50.316" lon="1.69414">
        <ele>8.5</ele>
        <time>2020-06-18T17:53:47Z</time>
      </trkpt>
      <trkpt lat="50.31607" lon="1.69414">
        <ele>8.6</ele>
        <time>2020-06-18T17:53:48Z</time>
      </trkpt>
      <trkpt lat="50.31614" lon="1.69413">
        <ele>8.6</ele>
        <time>2020-06-18T17:53:49Z</time>
      </trkpt>
      <trkpt lat="50.31621" lon="1.69412">
        <ele>8.7</ele>
        <time>2020-06-18T17:53:50Z</time>
      </trkpt>
      <trkpt lat="50.31628" lon="1.69412">
        <ele>8.8</ele>
        <time>2020-06-18T17:53:51Z</time>
      </trkpt>
      <trkpt lat="50.31635" lon="1.69412">
        <ele>8.8</ele>
        <time>2020-06-18T17:53:52Z</time>
      </trkpt>
      <trkpt lat="50.31642" lon="1.69413">
        <ele>8.8</ele>
        <time>2020-06-18T17:53:53Z</time>
      </trkpt>
      <trkpt lat="50.31649" lon="1.69413">
        <ele>8.8</ele>
        <time>2020-06-18T17:53:54Z</time>
      </trkpt>
      <trkpt lat="50.31656" lon="1.69413">
        <ele>8.8</ele>
        <time>2020-06-18T17:53:55Z</time>
      </trkpt>
      <trkpt lat="50.31663" lon="1.69413">
        <ele>8.8</ele>
        <time>2020-06-18T17:53:56Z</time>
      </trkpt>
      <trkpt lat="50.3167" lon="1.69413">
        <ele>8.8</ele>
        <time>2020-06-18T17:53:57Z</time>
      </trkpt>
      <trkpt lat="50.31677" lon="1.69414">
        <ele>8.8</ele>
        <time>2020-06-18T17:53:58Z</time>
      </trkpt>
      <trkpt lat="50.31684" lon="1.69414">
        <ele>8.8</ele>
        <time>2020-06-18T17:53:59Z</time>
      </trkpt>
      <trkpt lat="50.31691" lon="1.69414">
        <ele>8.9</ele>
        <time>2020-06-18T17:54:00Z</time>
      </trkpt>
      <trkpt lat="50.31698" lon="1.69414">
        <ele>8.9</ele>
        <time>2020-06-18T17:54:01Z</time>
      </trkpt>
      <trkpt lat="50.31705" lon="1.69414">
        <ele>8.9</ele>
        <time>2020-06-18T17:54:02Z</time>
      </trkpt>
      <trkpt lat="50.31713" lon="1.69415">
        <ele>8.8</ele>
        <time>2020-06-18T17:54:03Z</time>
      </trkpt>
      <trkpt lat="50.3172" lon="1.69415">
        <ele>8.8</ele>
        <time>2020-06-18T17:54:04Z</time>
      </trkpt>
      <trkpt lat="50.31726" lon="1.69418">
        <ele>8.8</ele>
        <time>2020-06-18T17:54:05Z</time>
      </trkpt>
      <trkpt lat="50.31733" lon="1.69422">
        <ele>8.8</ele>
        <time>2020-06-18T17:54:06Z</time>
      </trkpt>
      <trkpt lat="50.31739" lon="1.69427">
        <ele>8.8</ele>
        <time>2020-06-18T17:54:07Z</time>
      </trkpt>
      <trkpt lat="50.31746" lon="1.69431">
        <ele>8.8</ele>
        <time>2020-06-18T17:54:08Z</time>
      </trkpt>
      <trkpt lat="50.31753" lon="1.69436">
        <ele>8.9</ele>
        <time>2020-06-18T17:54:09Z</time>
      </trkpt>
      <trkpt lat="50.3176" lon="1.69441">
        <ele>8.9</ele>
        <time>2020-06-18T17:54:10Z</time>
      </trkpt>
      <trkpt lat="50.31767" lon="1.69445">
        <ele>9</ele>
        <time>2020-06-18T17:54:11Z</time>
      </trkpt>
      <trkpt lat="50.31774" lon="1.6945">
        <ele>9.2</ele>
        <time>2020-06-18T17:54:12Z</time>
      </trkpt>
      <trkpt lat="50.31781" lon="1.69452">
        <ele>9.1</ele>
        <time>2020-06-18T17:54:13Z</time>
      </trkpt>
      <trkpt lat="50.31788" lon="1.69456">
        <ele>9</ele>
        <time>2020-06-18T17:54:14Z</time>
      </trkpt>
      <trkpt lat="50.31795" lon="1.69458">
        <ele>8.9</ele>
        <time>2020-06-18T17:54:15Z</time>
      </trkpt>
      <trkpt lat="50.31802" lon="1.69459">
        <ele>8.9</ele>
        <time>2020-06-18T17:54:16Z</time>
      </trkpt>
      <trkpt lat="50.3181" lon="1.6946">
        <ele>8.9</ele>
        <time>2020-06-18T17:54:17Z</time>
      </trkpt>
      <trkpt lat="50.31817" lon="1.69462">
        <ele>8.9</ele>
        <time>2020-06-18T17:54:18Z</time>
      </trkpt>
      <trkpt lat="50.31824" lon="1.69465">
        <ele>8.9</ele>
        <time>2020-06-18T17:54:19Z</time>
      </trkpt>
      <trkpt lat="50.31831" lon="1.69467">
        <ele>8.9</ele>
        <time>2020-06-18T17:54:20Z</time>
      </trkpt>
      <trkpt lat="50.31838" lon="1.69469">
        <ele>8.8</ele>
        <time>2020-06-18T17:54:21Z</time>
      </trkpt>
      <trkpt lat="50.31846" lon="1.6947">
        <ele>8.8</ele>
        <time>2020-06-18T17:54:22Z</time>
      </trkpt>
      <trkpt lat="50.31853" lon="1.69471">
        <ele>8.8</ele>
        <time>2020-06-18T17:54:23Z</time>
      </trkpt>
      <trkpt lat="50.3186" lon="1.69472">
        <ele>8.7</ele>
        <time>2020-06-18T17:54:24Z</time>
      </trkpt>
      <trkpt lat="50.31867" lon="1.69474">
        <ele>8.7</ele>
        <time>2020-06-18T17:54:25Z</time>
      </trkpt>
      <trkpt lat="50.31875" lon="1.69476">
        <ele>8.6</ele>
        <time>2020-06-18T17:54:26Z</time>
      </trkpt>
      <trkpt lat="50.31882" lon="1.69478">
        <ele>8.6</ele>
        <time>2020-06-18T17:54:27Z</time>
      </trkpt>
      <trkpt lat="50.31889" lon="1.69478">
        <ele>8.5</ele>
        <time>2020-06-18T17:54:28Z</time>
      </trkpt>
      <trkpt lat="50.31896" lon="1.69479">
        <ele>8.5</ele>
        <time>2020-06-18T17:54:29Z</time>
      </trkpt>
      <trkpt lat="50.31903" lon="1.69481">
        <ele>8.4</ele>
        <time>2020-06-18T17:54:30Z</time>
      </trkpt>
      <trkpt lat="50.31909" lon="1.69483">
        <ele>8.4</ele>
        <time>2020-06-18T17:54:31Z</time>
      </trkpt>
      <trkpt lat="50.31915" lon="1.69485">
        <ele>8.4</ele>
        <time>2020-06-18T17:54:32Z</time>
      </trkpt>
      <trkpt lat="50.31922" lon="1.69486">
        <ele>8.3</ele>
        <time>2020-06-18T17:54:33Z</time>
      </trkpt>
      <trkpt lat="50.31928" lon="1.69488">
        <ele>8.3</ele>
        <time>2020-06-18T17:54:34Z</time>
      </trkpt>
      <trkpt lat="50.31934" lon="1.69488">
        <ele>8.2</ele>
        <time>2020-06-18T17:54:35Z</time>
      </trkpt>
      <trkpt lat="50.3194" lon="1.69489">
        <ele>8.1</ele>
        <time>2020-06-18T17:54:36Z</time>
      </trkpt>
      <trkpt lat="50.31946" lon="1.69489">
        <ele>7.9</ele>
        <time>2020-06-18T17:54:37Z</time>
      </trkpt>
      <trkpt lat="50.31952" lon="1.69486">
        <ele>7.8</ele>
        <time>2020-06-18T17:54:38Z</time>
      </trkpt>
      <trkpt lat="50.31957" lon="1.69482">
        <ele>7.7</ele>
        <time>2020-06-18T17:54:39Z</time>
      </trkpt>
      <trkpt lat="50.31962" lon="1.69477">
        <ele>7.6</ele>
        <time>2020-06-18T17:54:40Z</time>
      </trkpt>
      <trkpt lat="50.31967" lon="1.69471">
        <ele>7.5</ele>
        <time>2020-06-18T17:54:41Z</time>
      </trkpt>
      <trkpt lat="50.31972" lon="1.69465">
        <ele>7.4</ele>
        <time>2020-06-18T17:54:42Z</time>
      </trkpt>
      <trkpt lat="50.31977" lon="1.69458">
        <ele>7.3</ele>
        <time>2020-06-18T17:54:43Z</time>
      </trkpt>
      <trkpt lat="50.31981" lon="1.6945">
        <ele>7.2</ele>
        <time>2020-06-18T17:54:44Z</time>
      </trkpt>
      <trkpt lat="50.31985" lon="1.69441">
        <ele>7.1</ele>
        <time>2020-06-18T17:54:45Z</time>
      </trkpt>
      <trkpt lat="50.3199" lon="1.69434">
        <ele>7</ele>
        <time>2020-06-18T17:54:46Z</time>
      </trkpt>
      <trkpt lat="50.31996" lon="1.69426">
        <ele>6.9</ele>
        <time>2020-06-18T17:54:47Z</time>
      </trkpt>
      <trkpt lat="50.32001" lon="1.69419">
        <ele>6.8</ele>
        <time>2020-06-18T17:54:48Z</time>
      </trkpt>
      <trkpt lat="50.32006" lon="1.69411">
        <ele>6.7</ele>
        <time>2020-06-18T17:54:49Z</time>
      </trkpt>
      <trkpt lat="50.32012" lon="1.69403">
        <ele>6.7</ele>
        <time>2020-06-18T17:54:50Z</time>
      </trkpt>
      <trkpt lat="50.32017" lon="1.69395">
        <ele>6.6</ele>
        <time>2020-06-18T17:54:51Z</time>
      </trkpt>
      <trkpt lat="50.32022" lon="1.69387">
        <ele>6.6</ele>
        <time>2020-06-18T17:54:52Z</time>
      </trkpt>
      <trkpt lat="50.32028" lon="1.6938">
        <ele>6.5</ele>
        <time>2020-06-18T17:54:53Z</time>
      </trkpt>
      <trkpt lat="50.32034" lon="1.69371">
        <ele>6.4</ele>
        <time>2020-06-18T17:54:54Z</time>
      </trkpt>
      <trkpt lat="50.32039" lon="1.69363">
        <ele>6.4</ele>
        <time>2020-06-18T17:54:55Z</time>
      </trkpt>
      <trkpt lat="50.32045" lon="1.69354">
        <ele>6.4</ele>
        <time>2020-06-18T17:54:56Z</time>
      </trkpt>
      <trkpt lat="50.32051" lon="1.69345">
        <ele>6.4</ele>
        <time>2020-06-18T17:54:57Z</time>
      </trkpt>
      <trkpt lat="50.32056" lon="1.69337">
        <ele>6.4</ele>
        <time>2020-06-18T17:54:58Z</time>
      </trkpt>
      <trkpt lat="50.32062" lon="1.69327">
        <ele>6.3</ele>
        <time>2020-06-18T17:54:59Z</time>
      </trkpt>
      <trkpt lat="50.32067" lon="1.69318">
        <ele>6.3</ele>
        <time>2020-06-18T17:55:00Z</time>
      </trkpt>
      <trkpt lat="50.32072" lon="1.69309">
        <ele>6.3</ele>
        <time>2020-06-18T17:55:01Z</time>
      </trkpt>
      <trkpt lat="50.32078" lon="1.693">
        <ele>6.3</ele>
        <time>2020-06-18T17:55:02Z</time>
      </trkpt>
      <trkpt lat="50.32083" lon="1.69292">
        <ele>6.3</ele>
        <time>2020-06-18T17:55:03Z</time>
      </trkpt>
      <trkpt lat="50.32089" lon="1.69283">
        <ele>6.3</ele>
        <time>2020-06-18T17:55:04Z</time>
      </trkpt>
      <trkpt lat="50.32095" lon="1.69276">
        <ele>6.3</ele>
        <time>2020-06-18T17:55:05Z</time>
      </trkpt>
      <trkpt lat="50.321" lon="1.69267">
        <ele>6.3</ele>
        <time>2020-06-18T17:55:06Z</time>
      </trkpt>
      <trkpt lat="50.32105" lon="1.69259">
        <ele>6.2</ele>
        <time>2020-06-18T17:55:07Z</time>
      </trkpt>
      <trkpt lat="50.32111" lon="1.6925">
        <ele>6.1</ele>
        <time>2020-06-18T17:55:08Z</time>
      </trkpt>
      <trkpt lat="50.32116" lon="1.69242">
        <ele>6</ele>
        <time>2020-06-18T17:55:09Z</time>
      </trkpt>
      <trkpt lat="50.32122" lon="1.69234">
        <ele>5.9</ele>
        <time>2020-06-18T17:55:10Z</time>
      </trkpt>
      <trkpt lat="50.32127" lon="1.69226">
        <ele>5.9</ele>
        <time>2020-06-18T17:55:11Z</time>
      </trkpt>
      <trkpt lat="50.32132" lon="1.69218">
        <ele>5.8</ele>
        <time>2020-06-18T17:55:12Z</time>
      </trkpt>
      <trkpt lat="50.32138" lon="1.6921">
        <ele>5.8</ele>
        <time>2020-06-18T17:55:13Z</time>
      </trkpt>
      <trkpt lat="50.32143" lon="1.69202">
        <ele>5.8</ele>
        <time>2020-06-18T17:55:14Z</time>
      </trkpt>
      <trkpt lat="50.32148" lon="1.69193">
        <ele>5.8</ele>
        <time>2020-06-18T17:55:15Z</time>
      </trkpt>
      <trkpt lat="50.32153" lon="1.69184">
        <ele>5.8</ele>
        <time>2020-06-18T17:55:16Z</time>
      </trkpt>
      <trkpt lat="50.32158" lon="1.69176">
        <ele>5.7</ele>
        <time>2020-06-18T17:55:17Z</time>
      </trkpt>
      <trkpt lat="50.32164" lon="1.69168">
        <ele>5.7</ele>
        <time>2020-06-18T17:55:18Z</time>
      </trkpt>
      <trkpt lat="50.32169" lon="1.6916">
        <ele>5.7</ele>
        <time>2020-06-18T17:55:19Z</time>
      </trkpt>
      <trkpt lat="50.32173" lon="1.6915">
        <ele>5.7</ele>
        <time>2020-06-18T17:55:20Z</time>
      </trkpt>
      <trkpt lat="50.32178" lon="1.69141">
        <ele>5.7</ele>
        <time>2020-06-18T17:55:21Z</time>
      </trkpt>
      <trkpt lat="50.32183" lon="1.69132">
        <ele>5.8</ele>
        <time>2020-06-18T17:55:22Z</time>
      </trkpt>
      <trkpt lat="50.32188" lon="1.69123">
        <ele>5.8</ele>
        <time>2020-06-18T17:55:23Z</time>
      </trkpt>
      <trkpt lat="50.32193" lon="1.69115">
        <ele>5.8</ele>
        <time>2020-06-18T17:55:24Z</time>
      </trkpt>
      <trkpt lat="50.32198" lon="1.69106">
        <ele>5.8</ele>
        <time>2020-06-18T17:55:25Z</time>
      </trkpt>
      <trkpt lat="50.32204" lon="1.69098">
        <ele>5.7</ele>
        <time>2020-06-18T17:55:26Z</time>
      </trkpt>
      <trkpt lat="50.32209" lon="1.69089">
        <ele>5.7</ele>
        <time>2020-06-18T17:55:27Z</time>
      </trkpt>
      <trkpt lat="50.32214" lon="1.69081">
        <ele>5.7</ele>
        <time>2020-06-18T17:55:28Z</time>
      </trkpt>
      <trkpt lat="50.32219" lon="1.69072">
        <ele>5.7</ele>
        <time>2020-06-18T17:55:29Z</time>
      </trkpt>
      <trkpt lat="50.32224" lon="1.69063">
        <ele>5.7</ele>
        <time>2020-06-18T17:55:30Z</time>
      </trkpt>
      <trkpt lat="50.32229" lon="1.69055">
        <ele>5.7</ele>
        <time>2020-06-18T17:55:31Z</time>
      </trkpt>
      <trkpt lat="50.32234" lon="1.69047">
        <ele>5.7</ele>
        <time>2020-06-18T17:55:32Z</time>
      </trkpt>
      <trkpt lat="50.32239" lon="1.69039">
        <ele>5.7</ele>
        <time>2020-06-18T17:55:33Z</time>
      </trkpt>
      <trkpt lat="50.32243" lon="1.6903">
        <ele>5.7</ele>
        <time>2020-06-18T17:55:34Z</time>
      </trkpt>
      <trkpt lat="50.32248" lon="1.69022">
        <ele>5.7</ele>
        <time>2020-06-18T17:55:35Z</time>
      </trkpt>
      <trkpt lat="50.32253" lon="1.69014">
        <ele>5.7</ele>
        <time>2020-06-18T17:55:36Z</time>
      </trkpt>
      <trkpt lat="50.32258" lon="1.69006">
        <ele>5.7</ele>
        <time>2020-06-18T17:55:37Z</time>
      </trkpt>
      <trkpt lat="50.32263" lon="1.68998">
        <ele>5.7</ele>
        <time>2020-06-18T17:55:38Z</time>
      </trkpt>
      <trkpt lat="50.32269" lon="1.68991">
        <ele>5.7</ele>
        <time>2020-06-18T17:55:39Z</time>
      </trkpt>
      <trkpt lat="50.32275" lon="1.68983">
        <ele>5.6</ele>
        <time>2020-06-18T17:55:40Z</time>
      </trkpt>
      <trkpt lat="50.3228" lon="1.68975">
        <ele>5.6</ele>
        <time>2020-06-18T17:55:41Z</time>
      </trkpt>
      <trkpt lat="50.32285" lon="1.68966">
        <ele>5.6</ele>
        <time>2020-06-18T17:55:42Z</time>
      </trkpt>
      <trkpt lat="50.3229" lon="1.68957">
        <ele>5.5</ele>
        <time>2020-06-18T17:55:43Z</time>
      </trkpt>
      <trkpt lat="50.32295" lon="1.68949">
        <ele>5.5</ele>
        <time>2020-06-18T17:55:44Z</time>
      </trkpt>
      <trkpt lat="50.323" lon="1.6894">
        <ele>5.5</ele>
        <time>2020-06-18T17:55:45Z</time>
      </trkpt>
      <trkpt lat="50.32304" lon="1.68931">
        <ele>5.5</ele>
        <time>2020-06-18T17:55:46Z</time>
      </trkpt>
      <trkpt lat="50.3231" lon="1.68923">
        <ele>5.5</ele>
        <time>2020-06-18T17:55:47Z</time>
      </trkpt>
      <trkpt lat="50.32314" lon="1.68915">
        <ele>5.4</ele>
        <time>2020-06-18T17:55:48Z</time>
      </trkpt>
      <trkpt lat="50.32319" lon="1.68907">
        <ele>5.4</ele>
        <time>2020-06-18T17:55:49Z</time>
      </trkpt>
      <trkpt lat="50.32325" lon="1.68898">
        <ele>5.4</ele>
        <time>2020-06-18T17:55:50Z</time>
      </trkpt>
      <trkpt lat="50.3233" lon="1.68891">
        <ele>5.4</ele>
        <time>2020-06-18T17:55:51Z</time>
      </trkpt>
      <trkpt lat="50.32335" lon="1.68883">
        <ele>5.4</ele>
        <time>2020-06-18T17:55:52Z</time>
      </trkpt>
      <trkpt lat="50.32341" lon="1.68877">
        <ele>5.4</ele>
        <time>2020-06-18T17:55:53Z</time>
      </trkpt>
      <trkpt lat="50.32347" lon="1.6887">
        <ele>5.5</ele>
        <time>2020-06-18T17:55:54Z</time>
      </trkpt>
      <trkpt lat="50.32352" lon="1.68863">
        <ele>5.5</ele>
        <time>2020-06-18T17:55:55Z</time>
      </trkpt>
      <trkpt lat="50.32358" lon="1.68856">
        <ele>5.4</ele>
        <time>2020-06-18T17:55:56Z</time>
      </trkpt>
      <trkpt lat="50.32365" lon="1.68852">
        <ele>5.4</ele>
        <time>2020-06-18T17:55:57Z</time>
      </trkpt>
      <trkpt lat="50.32372" lon="1.68849">
        <ele>5.4</ele>
        <time>2020-06-18T17:55:58Z</time>
      </trkpt>
      <trkpt lat="50.32378" lon="1.68845">
        <ele>5.4</ele>
        <time>2020-06-18T17:55:59Z</time>
      </trkpt>
      <trkpt lat="50.32384" lon="1.68842">
        <ele>5.4</ele>
        <time>2020-06-18T17:56:00Z</time>
      </trkpt>
      <trkpt lat="50.32391" lon="1.68838">
        <ele>5.3</ele>
        <time>2020-06-18T17:56:01Z</time>
      </trkpt>
      <trkpt lat="50.32397" lon="1.68835">
        <ele>5.3</ele>
        <time>2020-06-18T17:56:02Z</time>
      </trkpt>
      <trkpt lat="50.32404" lon="1.68832">
        <ele>5.3</ele>
        <time>2020-06-18T17:56:03Z</time>
      </trkpt>
      <trkpt lat="50.32411" lon="1.6883">
        <ele>5.3</ele>
        <time>2020-06-18T17:56:04Z</time>
      </trkpt>
      <trkpt lat="50.32418" lon="1.68829">
        <ele>5.3</ele>
        <time>2020-06-18T17:56:05Z</time>
      </trkpt>
      <trkpt lat="50.32425" lon="1.68826">
        <ele>5.2</ele>
        <time>2020-06-18T17:56:06Z</time>
      </trkpt>
      <trkpt lat="50.32432" lon="1.68824">
        <ele>5.2</ele>
        <time>2020-06-18T17:56:07Z</time>
      </trkpt>
      <trkpt lat="50.32439" lon="1.68821">
        <ele>5.1</ele>
        <time>2020-06-18T17:56:08Z</time>
      </trkpt>
      <trkpt lat="50.32446" lon="1.68819">
        <ele>5.1</ele>
        <time>2020-06-18T17:56:09Z</time>
      </trkpt>
      <trkpt lat="50.32453" lon="1.68818">
        <ele>5</ele>
        <time>2020-06-18T17:56:10Z</time>
      </trkpt>
      <trkpt lat="50.32459" lon="1.68817">
        <ele>5</ele>
        <time>2020-06-18T17:56:11Z</time>
      </trkpt>
      <trkpt lat="50.32466" lon="1.68818">
        <ele>4.9</ele>
        <time>2020-06-18T17:56:12Z</time>
      </trkpt>
      <trkpt lat="50.32473" lon="1.68817">
        <ele>4.9</ele>
        <time>2020-06-18T17:56:13Z</time>
      </trkpt>
      <trkpt lat="50.32479" lon="1.68818">
        <ele>4.9</ele>
        <time>2020-06-18T17:56:14Z</time>
      </trkpt>
      <trkpt lat="50.32486" lon="1.68822">
        <ele>4.8</ele>
        <time>2020-06-18T17:56:15Z</time>
      </trkpt>
      <trkpt lat="50.32493" lon="1.68829">
        <ele>4.8</ele>
        <time>2020-06-18T17:56:16Z</time>
      </trkpt>
      <trkpt lat="50.325" lon="1.68835">
        <ele>4.8</ele>
        <time>2020-06-18T17:56:17Z</time>
      </trkpt>
      <trkpt lat="50.32507" lon="1.68842">
        <ele>4.7</ele>
        <time>2020-06-18T17:56:18Z</time>
      </trkpt>
      <trkpt lat="50.32513" lon="1.68847">
        <ele>4.7</ele>
        <time>2020-06-18T17:56:19Z</time>
      </trkpt>
      <trkpt lat="50.32519" lon="1.68853">
        <ele>4.7</ele>
        <time>2020-06-18T17:56:20Z</time>
      </trkpt>
      <trkpt lat="50.32525" lon="1.68859">
        <ele>4.8</ele>
        <time>2020-06-18T17:56:21Z</time>
      </trkpt>
      <trkpt lat="50.32531" lon="1.68866">
        <ele>4.8</ele>
        <time>2020-06-18T17:56:22Z</time>
      </trkpt>
      <trkpt lat="50.32536" lon="1.68872">
        <ele>4.8</ele>
        <time>2020-06-18T17:56:23Z</time>
      </trkpt>
      <trkpt lat="50.32541" lon="1.68878">
        <ele>4.8</ele>
        <time>2020-06-18T17:56:24Z</time>
      </trkpt>
      <trkpt lat="50.32547" lon="1.68885">
        <ele>4.9</ele>
        <time>2020-06-18T17:56:25Z</time>
      </trkpt>
      <trkpt lat="50.32552" lon="1.68891">
        <ele>4.9</ele>
        <time>2020-06-18T17:56:26Z</time>
      </trkpt>
      <trkpt lat="50.32556" lon="1.68898">
        <ele>4.9</ele>
        <time>2020-06-18T17:56:27Z</time>
      </trkpt>
      <trkpt lat="50.32561" lon="1.68904">
        <ele>4.9</ele>
        <time>2020-06-18T17:56:28Z</time>
      </trkpt>
      <trkpt lat="50.32566" lon="1.68913">
        <ele>4.9</ele>
        <time>2020-06-18T17:56:29Z</time>
      </trkpt>
      <trkpt lat="50.32572" lon="1.6892">
        <ele>5</ele>
        <time>2020-06-18T17:56:30Z</time>
      </trkpt>
      <trkpt lat="50.32577" lon="1.68927">
        <ele>5</ele>
        <time>2020-06-18T17:56:31Z</time>
      </trkpt>
      <trkpt lat="50.32583" lon="1.68934">
        <ele>5</ele>
        <time>2020-06-18T17:56:32Z</time>
      </trkpt>
      <trkpt lat="50.32589" lon="1.68942">
        <ele>5</ele>
        <time>2020-06-18T17:56:33Z</time>
      </trkpt>
      <trkpt lat="50.32595" lon="1.68949">
        <ele>5.1</ele>
        <time>2020-06-18T17:56:34Z</time>
      </trkpt>
      <trkpt lat="50.32601" lon="1.68957">
        <ele>5.1</ele>
        <time>2020-06-18T17:56:35Z</time>
      </trkpt>
      <trkpt lat="50.32606" lon="1.68964">
        <ele>5.1</ele>
        <time>2020-06-18T17:56:36Z</time>
      </trkpt>
      <trkpt lat="50.32612" lon="1.6897">
        <ele>5.1</ele>
        <time>2020-06-18T17:56:37Z</time>
      </trkpt>
      <trkpt lat="50.32618" lon="1.68977">
        <ele>5.1</ele>
        <time>2020-06-18T17:56:38Z</time>
      </trkpt>
      <trkpt lat="50.32623" lon="1.68984">
        <ele>5.1</ele>
        <time>2020-06-18T17:56:39Z</time>
      </trkpt>
      <trkpt lat="50.32628" lon="1.68991">
        <ele>5.1</ele>
        <time>2020-06-18T17:56:40Z</time>
      </trkpt>
      <trkpt lat="50.32634" lon="1.68998">
        <ele>5.1</ele>
        <time>2020-06-18T17:56:41Z</time>
      </trkpt>
      <trkpt lat="50.32639" lon="1.69005">
        <ele>5.1</ele>
        <time>2020-06-18T17:56:42Z</time>
      </trkpt>
      <trkpt lat="50.32645" lon="1.69012">
        <ele>5.1</ele>
        <time>2020-06-18T17:56:43Z</time>
      </trkpt>
      <trkpt lat="50.32652" lon="1.69018">
        <ele>5.1</ele>
        <time>2020-06-18T17:56:44Z</time>
      </trkpt>
      <trkpt lat="50.3266" lon="1.69022">
        <ele>5.2</ele>
        <time>2020-06-18T17:56:45Z</time>
      </trkpt>
      <trkpt lat="50.32667" lon="1.69025">
        <ele>5.2</ele>
        <time>2020-06-18T17:56:46Z</time>
      </trkpt>
      <trkpt lat="50.32675" lon="1.69029">
        <ele>5.2</ele>
        <time>2020-06-18T17:56:47Z</time>
      </trkpt>
      <trkpt lat="50.32682" lon="1.69032">
        <ele>5.3</ele>
        <time>2020-06-18T17:56:48Z</time>
      </trkpt>
      <trkpt lat="50.3269" lon="1.69034">
        <ele>5.3</ele>
        <time>2020-06-18T17:56:49Z</time>
      </trkpt>
      <trkpt lat="50.32697" lon="1.69036">
        <ele>5.3</ele>
        <time>2020-06-18T17:56:50Z</time>
      </trkpt>
      <trkpt lat="50.32705" lon="1.69037">
        <ele>5.3</ele>
        <time>2020-06-18T17:56:51Z</time>
      </trkpt>
      <trkpt lat="50.32713" lon="1.69039">
        <ele>5.4</ele>
        <time>2020-06-18T17:56:52Z</time>
      </trkpt>
      <trkpt lat="50.3272" lon="1.69041">
        <ele>5.4</ele>
        <time>2020-06-18T17:56:53Z</time>
      </trkpt>
      <trkpt lat="50.32727" lon="1.69042">
        <ele>5.5</ele>
        <time>2020-06-18T17:56:54Z</time>
      </trkpt>
      <trkpt lat="50.32733" lon="1.69044">
        <ele>5.6</ele>
        <time>2020-06-18T17:56:55Z</time>
      </trkpt>
      <trkpt lat="50.3274" lon="1.69046">
        <ele>5.7</ele>
        <time>2020-06-18T17:56:56Z</time>
      </trkpt>
      <trkpt lat="50.32748" lon="1.69047">
        <ele>5.9</ele>
        <time>2020-06-18T17:56:57Z</time>
      </trkpt>
      <trkpt lat="50.32756" lon="1.69051">
        <ele>6.3</ele>
        <time>2020-06-18T17:56:58Z</time>
      </trkpt>
      <trkpt lat="50.32763" lon="1.69054">
        <ele>6.3</ele>
        <time>2020-06-18T17:56:59Z</time>
      </trkpt>
      <trkpt lat="50.3277" lon="1.69057">
        <ele>6.3</ele>
        <time>2020-06-18T17:57:00Z</time>
      </trkpt>
      <trkpt lat="50.32777" lon="1.69059">
        <ele>6.2</ele>
        <time>2020-06-18T17:57:01Z</time>
      </trkpt>
      <trkpt lat="50.32784" lon="1.69062">
        <ele>6.2</ele>
        <time>2020-06-18T17:57:02Z</time>
      </trkpt>
      <trkpt lat="50.32792" lon="1.69064">
        <ele>6.1</ele>
        <time>2020-06-18T17:57:03Z</time>
      </trkpt>
      <trkpt lat="50.328" lon="1.69066">
        <ele>6</ele>
        <time>2020-06-18T17:57:04Z</time>
      </trkpt>
      <trkpt lat="50.32807" lon="1.69067">
        <ele>5.9</ele>
        <time>2020-06-18T17:57:05Z</time>
      </trkpt>
      <trkpt lat="50.32815" lon="1.6907">
        <ele>5.9</ele>
        <time>2020-06-18T17:57:06Z</time>
      </trkpt>
      <trkpt lat="50.32822" lon="1.69071">
        <ele>5.9</ele>
        <time>2020-06-18T17:57:07Z</time>
      </trkpt>
      <trkpt lat="50.3283" lon="1.69072">
        <ele>5.9</ele>
        <time>2020-06-18T17:57:08Z</time>
      </trkpt>
      <trkpt lat="50.32837" lon="1.69074">
        <ele>5.9</ele>
        <time>2020-06-18T17:57:09Z</time>
      </trkpt>
      <trkpt lat="50.32845" lon="1.69076">
        <ele>5.9</ele>
        <time>2020-06-18T17:57:10Z</time>
      </trkpt>
      <trkpt lat="50.32853" lon="1.69078">
        <ele>5.9</ele>
        <time>2020-06-18T17:57:11Z</time>
      </trkpt>
      <trkpt lat="50.3286" lon="1.69078">
        <ele>5.9</ele>
        <time>2020-06-18T17:57:12Z</time>
      </trkpt>
      <trkpt lat="50.32867" lon="1.69079">
        <ele>5.9</ele>
        <time>2020-06-18T17:57:13Z</time>
      </trkpt>
      <trkpt lat="50.32874" lon="1.6908">
        <ele>6</ele>
        <time>2020-06-18T17:57:14Z</time>
      </trkpt>
      <trkpt lat="50.32881" lon="1.6908">
        <ele>6</ele>
        <time>2020-06-18T17:57:15Z</time>
      </trkpt>
      <trkpt lat="50.32888" lon="1.69081">
        <ele>5.9</ele>
        <time>2020-06-18T17:57:16Z</time>
      </trkpt>
      <trkpt lat="50.32895" lon="1.6908">
        <ele>5.9</ele>
        <time>2020-06-18T17:57:17Z</time>
      </trkpt>
      <trkpt lat="50.32902" lon="1.6908">
        <ele>5.9</ele>
        <time>2020-06-18T17:57:18Z</time>
      </trkpt>
      <trkpt lat="50.32909" lon="1.69079">
        <ele>5.9</ele>
        <time>2020-06-18T17:57:19Z</time>
      </trkpt>
      <trkpt lat="50.32917" lon="1.69079">
        <ele>5.9</ele>
        <time>2020-06-18T17:57:20Z</time>
      </trkpt>
      <trkpt lat="50.32924" lon="1.69079">
        <ele>5.8</ele>
        <time>2020-06-18T17:57:21Z</time>
      </trkpt>
      <trkpt lat="50.32931" lon="1.6908">
        <ele>5.8</ele>
        <time>2020-06-18T17:57:22Z</time>
      </trkpt>
      <trkpt lat="50.32938" lon="1.69081">
        <ele>5.8</ele>
        <time>2020-06-18T17:57:23Z</time>
      </trkpt>
      <trkpt lat="50.32945" lon="1.69082">
        <ele>5.8</ele>
        <time>2020-06-18T17:57:24Z</time>
      </trkpt>
      <trkpt lat="50.32951" lon="1.69082">
        <ele>5.8</ele>
        <time>2020-06-18T17:57:25Z</time>
      </trkpt>
      <trkpt lat="50.32958" lon="1.69082">
        <ele>5.8</ele>
        <time>2020-06-18T17:57:26Z</time>
      </trkpt>
      <trkpt lat="50.32966" lon="1.69082">
        <ele>5.7</ele>
        <time>2020-06-18T17:57:27Z</time>
      </trkpt>
      <trkpt lat="50.32973" lon="1.69083">
        <ele>5.7</ele>
        <time>2020-06-18T17:57:28Z</time>
      </trkpt>
      <trkpt lat="50.32979" lon="1.69084">
        <ele>5.7</ele>
        <time>2020-06-18T17:57:29Z</time>
      </trkpt>
      <trkpt lat="50.32986" lon="1.69085">
        <ele>5.7</ele>
        <time>2020-06-18T17:57:30Z</time>
      </trkpt>
      <trkpt lat="50.32993" lon="1.69085">
        <ele>5.7</ele>
        <time>2020-06-18T17:57:31Z</time>
      </trkpt>
      <trkpt lat="50.33" lon="1.69085">
        <ele>5.7</ele>
        <time>2020-06-18T17:57:32Z</time>
      </trkpt>
      <trkpt lat="50.33007" lon="1.69085">
        <ele>5.7</ele>
        <time>2020-06-18T17:57:33Z</time>
      </trkpt>
      <trkpt lat="50.33014" lon="1.69085">
        <ele>5.7</ele>
        <time>2020-06-18T17:57:34Z</time>
      </trkpt>
      <trkpt lat="50.33021" lon="1.69085">
        <ele>5.7</ele>
        <time>2020-06-18T17:57:35Z</time>
      </trkpt>
      <trkpt lat="50.33027" lon="1.69085">
        <ele>5.6</ele>
        <time>2020-06-18T17:57:36Z</time>
      </trkpt>
      <trkpt lat="50.33035" lon="1.69086">
        <ele>5.6</ele>
        <time>2020-06-18T17:57:37Z</time>
      </trkpt>
      <trkpt lat="50.33042" lon="1.69087">
        <ele>5.6</ele>
        <time>2020-06-18T17:57:38Z</time>
      </trkpt>
      <trkpt lat="50.33049" lon="1.69087">
        <ele>5.6</ele>
        <time>2020-06-18T17:57:39Z</time>
      </trkpt>
      <trkpt lat="50.33055" lon="1.69087">
        <ele>5.6</ele>
        <time>2020-06-18T17:57:40Z</time>
      </trkpt>
      <trkpt lat="50.33062" lon="1.69087">
        <ele>5.6</ele>
        <time>2020-06-18T17:57:41Z</time>
      </trkpt>
      <trkpt lat="50.33069" lon="1.69088">
        <ele>5.6</ele>
        <time>2020-06-18T17:57:42Z</time>
      </trkpt>
      <trkpt lat="50.33077" lon="1.69089">
        <ele>5.6</ele>
        <time>2020-06-18T17:57:43Z</time>
      </trkpt>
      <trkpt lat="50.33084" lon="1.69089">
        <ele>5.5</ele>
        <time>2020-06-18T17:57:44Z</time>
      </trkpt>
      <trkpt lat="50.33091" lon="1.6909">
        <ele>5.4</ele>
        <time>2020-06-18T17:57:45Z</time>
      </trkpt>
      <trkpt lat="50.33099" lon="1.6909">
        <ele>5.4</ele>
        <time>2020-06-18T17:57:46Z</time>
      </trkpt>
      <trkpt lat="50.33106" lon="1.69091">
        <ele>5.4</ele>
        <time>2020-06-18T17:57:47Z</time>
      </trkpt>
      <trkpt lat="50.33113" lon="1.69091">
        <ele>5.3</ele>
        <time>2020-06-18T17:57:48Z</time>
      </trkpt>
      <trkpt lat="50.33121" lon="1.69091">
        <ele>5.3</ele>
        <time>2020-06-18T17:57:49Z</time>
      </trkpt>
      <trkpt lat="50.33128" lon="1.69091">
        <ele>5.3</ele>
        <time>2020-06-18T17:57:50Z</time>
      </trkpt>
      <trkpt lat="50.33135" lon="1.69091">
        <ele>5.3</ele>
        <time>2020-06-18T17:57:51Z</time>
      </trkpt>
      <trkpt lat="50.33142" lon="1.69091">
        <ele>5.3</ele>
        <time>2020-06-18T17:57:52Z</time>
      </trkpt>
      <trkpt lat="50.33149" lon="1.69091">
        <ele>5.2</ele>
        <time>2020-06-18T17:57:53Z</time>
      </trkpt>
      <trkpt lat="50.33157" lon="1.69092">
        <ele>5.3</ele>
        <time>2020-06-18T17:57:54Z</time>
      </trkpt>
      <trkpt lat="50.33164" lon="1.69092">
        <ele>5.3</ele>
        <time>2020-06-18T17:57:55Z</time>
      </trkpt>
      <trkpt lat="50.33171" lon="1.69093">
        <ele>5.3</ele>
        <time>2020-06-18T17:57:56Z</time>
      </trkpt>
      <trkpt lat="50.33177" lon="1.69093">
        <ele>5.3</ele>
        <time>2020-06-18T17:57:57Z</time>
      </trkpt>
      <trkpt lat="50.33184" lon="1.69093">
        <ele>5.3</ele>
        <time>2020-06-18T17:57:58Z</time>
      </trkpt>
      <trkpt lat="50.3319" lon="1.69092">
        <ele>5.3</ele>
        <time>2020-06-18T17:57:59Z</time>
      </trkpt>
      <trkpt lat="50.33197" lon="1.69091">
        <ele>5.3</ele>
        <time>2020-06-18T17:58:00Z</time>
      </trkpt>
      <trkpt lat="50.33204" lon="1.69091">
        <ele>5.2</ele>
        <time>2020-06-18T17:58:01Z</time>
      </trkpt>
      <trkpt lat="50.33211" lon="1.6909">
        <ele>5.2</ele>
        <time>2020-06-18T17:58:02Z</time>
      </trkpt>
      <trkpt lat="50.33218" lon="1.69091">
        <ele>5.2</ele>
        <time>2020-06-18T17:58:03Z</time>
      </trkpt>
      <trkpt lat="50.33225" lon="1.69091">
        <ele>5.2</ele>
        <time>2020-06-18T17:58:04Z</time>
      </trkpt>
      <trkpt lat="50.33232" lon="1.69091">
        <ele>5.2</ele>
        <time>2020-06-18T17:58:05Z</time>
      </trkpt>
      <trkpt lat="50.33239" lon="1.69092">
        <ele>5.2</ele>
        <time>2020-06-18T17:58:06Z</time>
      </trkpt>
      <trkpt lat="50.33246" lon="1.69093">
        <ele>5.2</ele>
        <time>2020-06-18T17:58:07Z</time>
      </trkpt>
      <trkpt lat="50.33253" lon="1.69094">
        <ele>5.2</ele>
        <time>2020-06-18T17:58:08Z</time>
      </trkpt>
      <trkpt lat="50.3326" lon="1.69096">
        <ele>5.3</ele>
        <time>2020-06-18T17:58:09Z</time>
      </trkpt>
      <trkpt lat="50.33267" lon="1.69096">
        <ele>5.3</ele>
        <time>2020-06-18T17:58:10Z</time>
      </trkpt>
      <trkpt lat="50.33273" lon="1.69097">
        <ele>5.3</ele>
        <time>2020-06-18T17:58:11Z</time>
      </trkpt>
      <trkpt lat="50.3328" lon="1.69097">
        <ele>5.3</ele>
        <time>2020-06-18T17:58:12Z</time>
      </trkpt>
      <trkpt lat="50.33287" lon="1.69098">
        <ele>5.4</ele>
        <time>2020-06-18T17:58:13Z</time>
      </trkpt>
      <trkpt lat="50.33294" lon="1.69099">
        <ele>5.4</ele>
        <time>2020-06-18T17:58:14Z</time>
      </trkpt>
      <trkpt lat="50.33301" lon="1.69099">
        <ele>5.4</ele>
        <time>2020-06-18T17:58:15Z</time>
      </trkpt>
      <trkpt lat="50.33308" lon="1.691">
        <ele>5.3</ele>
        <time>2020-06-18T17:58:16Z</time>
      </trkpt>
      <trkpt lat="50.33315" lon="1.691">
        <ele>5.3</ele>
        <time>2020-06-18T17:58:17Z</time>
      </trkpt>
      <trkpt lat="50.33321" lon="1.69101">
        <ele>5.3</ele>
        <time>2020-06-18T17:58:18Z</time>
      </trkpt>
      <trkpt lat="50.33327" lon="1.69101">
        <ele>5.3</ele>
        <time>2020-06-18T17:58:19Z</time>
      </trkpt>
      <trkpt lat="50.33333" lon="1.69102">
        <ele>5.4</ele>
        <time>2020-06-18T17:58:20Z</time>
      </trkpt>
      <trkpt lat="50.3334" lon="1.69102">
        <ele>5.4</ele>
        <time>2020-06-18T17:58:21Z</time>
      </trkpt>
      <trkpt lat="50.33346" lon="1.69101">
        <ele>5.4</ele>
        <time>2020-06-18T17:58:22Z</time>
      </trkpt>
      <trkpt lat="50.33353" lon="1.69101">
        <ele>5.4</ele>
        <time>2020-06-18T17:58:23Z</time>
      </trkpt>
      <trkpt lat="50.33359" lon="1.69101">
        <ele>5.4</ele>
        <time>2020-06-18T17:58:24Z</time>
      </trkpt>
      <trkpt lat="50.33365" lon="1.69102">
        <ele>5.4</ele>
        <time>2020-06-18T17:58:25Z</time>
      </trkpt>
      <trkpt lat="50.33372" lon="1.69103">
        <ele>5.4</ele>
        <time>2020-06-18T17:58:26Z</time>
      </trkpt>
      <trkpt lat="50.33378" lon="1.69103">
        <ele>5.4</ele>
        <time>2020-06-18T17:58:27Z</time>
      </trkpt>
      <trkpt lat="50.33385" lon="1.69104">
        <ele>5.4</ele>
        <time>2020-06-18T17:58:28Z</time>
      </trkpt>
      <trkpt lat="50.33392" lon="1.69104">
        <ele>5.4</ele>
        <time>2020-06-18T17:58:29Z</time>
      </trkpt>
      <trkpt lat="50.33398" lon="1.69104">
        <ele>5.4</ele>
        <time>2020-06-18T17:58:30Z</time>
      </trkpt>
      <trkpt lat="50.33404" lon="1.69105">
        <ele>5.5</ele>
        <time>2020-06-18T17:58:31Z</time>
      </trkpt>
      <trkpt lat="50.3341" lon="1.69105">
        <ele>5.5</ele>
        <time>2020-06-18T17:58:32Z</time>
      </trkpt>
      <trkpt lat="50.33416" lon="1.69105">
        <ele>5.5</ele>
        <time>2020-06-18T17:58:33Z</time>
      </trkpt>
      <trkpt lat="50.33423" lon="1.69105">
        <ele>5.5</ele>
        <time>2020-06-18T17:58:34Z</time>
      </trkpt>
      <trkpt lat="50.3343" lon="1.69106">
        <ele>5.5</ele>
        <time>2020-06-18T17:58:35Z</time>
      </trkpt>
      <trkpt lat="50.33436" lon="1.69107">
        <ele>5.5</ele>
        <time>2020-06-18T17:58:36Z</time>
      </trkpt>
      <trkpt lat="50.33442" lon="1.69107">
        <ele>5.5</ele>
        <time>2020-06-18T17:58:37Z</time>
      </trkpt>
      <trkpt lat="50.33449" lon="1.69107">
        <ele>5.5</ele>
        <time>2020-06-18T17:58:38Z</time>
      </trkpt>
      <trkpt lat="50.33457" lon="1.69107">
        <ele>5.5</ele>
        <time>2020-06-18T17:58:39Z</time>
      </trkpt>
      <trkpt lat="50.33464" lon="1.69108">
        <ele>5.5</ele>
        <time>2020-06-18T17:58:40Z</time>
      </trkpt>
      <trkpt lat="50.3347" lon="1.69108">
        <ele>5.5</ele>
        <time>2020-06-18T17:58:41Z</time>
      </trkpt>
      <trkpt lat="50.33476" lon="1.69109">
        <ele>5.5</ele>
        <time>2020-06-18T17:58:42Z</time>
      </trkpt>
      <trkpt lat="50.33483" lon="1.69109">
        <ele>5.4</ele>
        <time>2020-06-18T17:58:43Z</time>
      </trkpt>
      <trkpt lat="50.33491" lon="1.69109">
        <ele>5.4</ele>
        <time>2020-06-18T17:58:44Z</time>
      </trkpt>
      <trkpt lat="50.33498" lon="1.69109">
        <ele>5.4</ele>
        <time>2020-06-18T17:58:45Z</time>
      </trkpt>
      <trkpt lat="50.33504" lon="1.69109">
        <ele>5.3</ele>
        <time>2020-06-18T17:58:46Z</time>
      </trkpt>
      <trkpt lat="50.3351" lon="1.69109">
        <ele>5.3</ele>
        <time>2020-06-18T17:58:47Z</time>
      </trkpt>
      <trkpt lat="50.33519" lon="1.69108">
        <ele>5.2</ele>
        <time>2020-06-18T17:58:48Z</time>
      </trkpt>
      <trkpt lat="50.33527" lon="1.69107">
        <ele>5.2</ele>
        <time>2020-06-18T17:58:49Z</time>
      </trkpt>
      <trkpt lat="50.33535" lon="1.69107">
        <ele>5.2</ele>
        <time>2020-06-18T17:58:50Z</time>
      </trkpt>
      <trkpt lat="50.33544" lon="1.69108">
        <ele>5.2</ele>
        <time>2020-06-18T17:58:51Z</time>
      </trkpt>
      <trkpt lat="50.33552" lon="1.69108">
        <ele>5.2</ele>
        <time>2020-06-18T17:58:52Z</time>
      </trkpt>
      <trkpt lat="50.33559" lon="1.69109">
        <ele>5.2</ele>
        <time>2020-06-18T17:58:53Z</time>
      </trkpt>
      <trkpt lat="50.33566" lon="1.69109">
        <ele>5.2</ele>
        <time>2020-06-18T17:58:54Z</time>
      </trkpt>
      <trkpt lat="50.33574" lon="1.69109">
        <ele>5.2</ele>
        <time>2020-06-18T17:58:55Z</time>
      </trkpt>
      <trkpt lat="50.33581" lon="1.69108">
        <ele>5.3</ele>
        <time>2020-06-18T17:58:56Z</time>
      </trkpt>
      <trkpt lat="50.3359" lon="1.69109">
        <ele>5.5</ele>
        <time>2020-06-18T17:58:57Z</time>
      </trkpt>
      <trkpt lat="50.33598" lon="1.6911">
        <ele>5.6</ele>
        <time>2020-06-18T17:58:58Z</time>
      </trkpt>
      <trkpt lat="50.33606" lon="1.6911">
        <ele>5.7</ele>
        <time>2020-06-18T17:58:59Z</time>
      </trkpt>
      <trkpt lat="50.33614" lon="1.69111">
        <ele>5.7</ele>
        <time>2020-06-18T17:59:00Z</time>
      </trkpt>
      <trkpt lat="50.33621" lon="1.69111">
        <ele>5.8</ele>
        <time>2020-06-18T17:59:01Z</time>
      </trkpt>
      <trkpt lat="50.33629" lon="1.69111">
        <ele>5.8</ele>
        <time>2020-06-18T17:59:02Z</time>
      </trkpt>
      <trkpt lat="50.33636" lon="1.6911">
        <ele>5.8</ele>
        <time>2020-06-18T17:59:03Z</time>
      </trkpt>
      <trkpt lat="50.33644" lon="1.69108">
        <ele>5.7</ele>
        <time>2020-06-18T17:59:04Z</time>
      </trkpt>
      <trkpt lat="50.33651" lon="1.69106">
        <ele>5.7</ele>
        <time>2020-06-18T17:59:05Z</time>
      </trkpt>
      <trkpt lat="50.33659" lon="1.69105">
        <ele>5.7</ele>
        <time>2020-06-18T17:59:06Z</time>
      </trkpt>
      <trkpt lat="50.33666" lon="1.69103">
        <ele>5.7</ele>
        <time>2020-06-18T17:59:07Z</time>
      </trkpt>
      <trkpt lat="50.33673" lon="1.69102">
        <ele>5.7</ele>
        <time>2020-06-18T17:59:08Z</time>
      </trkpt>
      <trkpt lat="50.3368" lon="1.69099">
        <ele>5.7</ele>
        <time>2020-06-18T17:59:09Z</time>
      </trkpt>
      <trkpt lat="50.33687" lon="1.69096">
        <ele>5.7</ele>
        <time>2020-06-18T17:59:10Z</time>
      </trkpt>
      <trkpt lat="50.33694" lon="1.69093">
        <ele>5.7</ele>
        <time>2020-06-18T17:59:11Z</time>
      </trkpt>
      <trkpt lat="50.33701" lon="1.6909">
        <ele>5.7</ele>
        <time>2020-06-18T17:59:12Z</time>
      </trkpt>
      <trkpt lat="50.33708" lon="1.69087">
        <ele>5.7</ele>
        <time>2020-06-18T17:59:13Z</time>
      </trkpt>
      <trkpt lat="50.33715" lon="1.69084">
        <ele>5.8</ele>
        <time>2020-06-18T17:59:14Z</time>
      </trkpt>
      <trkpt lat="50.33722" lon="1.69082">
        <ele>5.8</ele>
        <time>2020-06-18T17:59:15Z</time>
      </trkpt>
      <trkpt lat="50.33729" lon="1.69079">
        <ele>5.7</ele>
        <time>2020-06-18T17:59:16Z</time>
      </trkpt>
      <trkpt lat="50.33736" lon="1.69076">
        <ele>5.7</ele>
        <time>2020-06-18T17:59:17Z</time>
      </trkpt>
      <trkpt lat="50.33743" lon="1.69072">
        <ele>5.6</ele>
        <time>2020-06-18T17:59:18Z</time>
      </trkpt>
      <trkpt lat="50.3375" lon="1.69068">
        <ele>5.6</ele>
        <time>2020-06-18T17:59:19Z</time>
      </trkpt>
      <trkpt lat="50.33757" lon="1.69064">
        <ele>5.6</ele>
        <time>2020-06-18T17:59:20Z</time>
      </trkpt>
      <trkpt lat="50.33764" lon="1.69061">
        <ele>5.6</ele>
        <time>2020-06-18T17:59:21Z</time>
      </trkpt>
      <trkpt lat="50.33771" lon="1.69057">
        <ele>5.6</ele>
        <time>2020-06-18T17:59:22Z</time>
      </trkpt>
      <trkpt lat="50.33778" lon="1.69054">
        <ele>5.6</ele>
        <time>2020-06-18T17:59:23Z</time>
      </trkpt>
      <trkpt lat="50.33786" lon="1.69051">
        <ele>5.6</ele>
        <time>2020-06-18T17:59:24Z</time>
      </trkpt>
      <trkpt lat="50.33793" lon="1.69047">
        <ele>5.6</ele>
        <time>2020-06-18T17:59:25Z</time>
      </trkpt>
      <trkpt lat="50.338" lon="1.69045">
        <ele>5.6</ele>
        <time>2020-06-18T17:59:26Z</time>
      </trkpt>
      <trkpt lat="50.33807" lon="1.69042">
        <ele>5.6</ele>
        <time>2020-06-18T17:59:27Z</time>
      </trkpt>
      <trkpt lat="50.33815" lon="1.69039">
        <ele>5.6</ele>
        <time>2020-06-18T17:59:28Z</time>
      </trkpt>
      <trkpt lat="50.33822" lon="1.69036">
        <ele>5.6</ele>
        <time>2020-06-18T17:59:29Z</time>
      </trkpt>
      <trkpt lat="50.33829" lon="1.69034">
        <ele>5.6</ele>
        <time>2020-06-18T17:59:30Z</time>
      </trkpt>
      <trkpt lat="50.33836" lon="1.69032">
        <ele>5.6</ele>
        <time>2020-06-18T17:59:31Z</time>
      </trkpt>
      <trkpt lat="50.33842" lon="1.69029">
        <ele>5.6</ele>
        <time>2020-06-18T17:59:32Z</time>
      </trkpt>
      <trkpt lat="50.33849" lon="1.69027">
        <ele>5.6</ele>
        <time>2020-06-18T17:59:33Z</time>
      </trkpt>
      <trkpt lat="50.33856" lon="1.69024">
        <ele>5.6</ele>
        <time>2020-06-18T17:59:34Z</time>
      </trkpt>
      <trkpt lat="50.33863" lon="1.69023">
        <ele>5.5</ele>
        <time>2020-06-18T17:59:35Z</time>
      </trkpt>
      <trkpt lat="50.3387" lon="1.6902">
        <ele>5.5</ele>
        <time>2020-06-18T17:59:36Z</time>
      </trkpt>
      <trkpt lat="50.33877" lon="1.69018">
        <ele>5.4</ele>
        <time>2020-06-18T17:59:37Z</time>
      </trkpt>
      <trkpt lat="50.33884" lon="1.69016">
        <ele>5.3</ele>
        <time>2020-06-18T17:59:38Z</time>
      </trkpt>
      <trkpt lat="50.33892" lon="1.69013">
        <ele>5.2</ele>
        <time>2020-06-18T17:59:39Z</time>
      </trkpt>
      <trkpt lat="50.33899" lon="1.6901">
        <ele>5.2</ele>
        <time>2020-06-18T17:59:40Z</time>
      </trkpt>
      <trkpt lat="50.33906" lon="1.69006">
        <ele>5.1</ele>
        <time>2020-06-18T17:59:41Z</time>
      </trkpt>
      <trkpt lat="50.33913" lon="1.69001">
        <ele>5</ele>
        <time>2020-06-18T17:59:42Z</time>
      </trkpt>
      <trkpt lat="50.33919" lon="1.68996">
        <ele>4.9</ele>
        <time>2020-06-18T17:59:43Z</time>
      </trkpt>
      <trkpt lat="50.33925" lon="1.68989">
        <ele>4.8</ele>
        <time>2020-06-18T17:59:44Z</time>
      </trkpt>
      <trkpt lat="50.3393" lon="1.68981">
        <ele>4.8</ele>
        <time>2020-06-18T17:59:45Z</time>
      </trkpt>
      <trkpt lat="50.33935" lon="1.68975">
        <ele>4.7</ele>
        <time>2020-06-18T17:59:46Z</time>
      </trkpt>
      <trkpt lat="50.33939" lon="1.68969">
        <ele>4.7</ele>
        <time>2020-06-18T17:59:47Z</time>
      </trkpt>
      <trkpt lat="50.33943" lon="1.68965">
        <ele>4.6</ele>
        <time>2020-06-18T17:59:48Z</time>
      </trkpt>
      <trkpt lat="50.33946" lon="1.68963">
        <ele>4.6</ele>
        <time>2020-06-18T17:59:49Z</time>
      </trkpt>
      <trkpt lat="50.33948" lon="1.68961">
        <ele>4.6</ele>
        <time>2020-06-18T17:59:50Z</time>
      </trkpt>
      <trkpt lat="50.33949" lon="1.6896">
        <ele>4.6</ele>
        <time>2020-06-18T17:59:51Z</time>
      </trkpt>
      <trkpt lat="50.33951" lon="1.68958">
        <ele>4.6</ele>
        <time>2020-06-18T17:59:52Z</time>
      </trkpt>
      <trkpt lat="50.33951" lon="1.68957">
        <ele>4.6</ele>
        <time>2020-06-18T17:59:53Z</time>
      </trkpt>
      <trkpt lat="50.33952" lon="1.68956">
        <ele>4.6</ele>
        <time>2020-06-18T17:59:54Z</time>
      </trkpt>
      <trkpt lat="50.33955" lon="1.68954">
        <ele>4.5</ele>
        <time>2020-06-18T17:59:55Z</time>
      </trkpt>
      <trkpt lat="50.33956" lon="1.68953">
        <ele>4.5</ele>
        <time>2020-06-18T17:59:56Z</time>
      </trkpt>
      <trkpt lat="50.33957" lon="1.68948">
        <ele>4.4</ele>
        <time>2020-06-18T17:59:57Z</time>
      </trkpt>
      <trkpt lat="50.33957" lon="1.68946">
        <ele>4.4</ele>
        <time>2020-06-18T17:59:58Z</time>
      </trkpt>
      <trkpt lat="50.33958" lon="1.68941">
        <ele>4.3</ele>
        <time>2020-06-18T17:59:59Z</time>
      </trkpt>
      <trkpt lat="50.3396" lon="1.68938">
        <ele>4.3</ele>
        <time>2020-06-18T18:00:00Z</time>
      </trkpt>
      <trkpt lat="50.33962" lon="1.68935">
        <ele>4.2</ele>
        <time>2020-06-18T18:00:01Z</time>
      </trkpt>
      <trkpt lat="50.33964" lon="1.68931">
        <ele>4.2</ele>
        <time>2020-06-18T18:00:02Z</time>
      </trkpt>
      <trkpt lat="50.33966" lon="1.68928">
        <ele>4.2</ele>
        <time>2020-06-18T18:00:03Z</time>
      </trkpt>
      <trkpt lat="50.33968" lon="1.68924">
        <ele>4.1</ele>
        <time>2020-06-18T18:00:04Z</time>
      </trkpt>
      <trkpt lat="50.3397" lon="1.6892">
        <ele>4.1</ele>
        <time>2020-06-18T18:00:05Z</time>
      </trkpt>
      <trkpt lat="50.33973" lon="1.68916">
        <ele>4.1</ele>
        <time>2020-06-18T18:00:06Z</time>
      </trkpt>
      <trkpt lat="50.33975" lon="1.68912">
        <ele>4.1</ele>
        <time>2020-06-18T18:00:07Z</time>
      </trkpt>
      <trkpt lat="50.33978" lon="1.68908">
        <ele>4.1</ele>
        <time>2020-06-18T18:00:08Z</time>
      </trkpt>
      <trkpt lat="50.33981" lon="1.68904">
        <ele>4.1</ele>
        <time>2020-06-18T18:00:09Z</time>
      </trkpt>
      <trkpt lat="50.33984" lon="1.68899">
        <ele>4.1</ele>
        <time>2020-06-18T18:00:10Z</time>
      </trkpt>
      <trkpt lat="50.33987" lon="1.68895">
        <ele>4.1</ele>
        <time>2020-06-18T18:00:11Z</time>
      </trkpt>
      <trkpt lat="50.3399" lon="1.68891">
        <ele>4.1</ele>
        <time>2020-06-18T18:00:12Z</time>
      </trkpt>
      <trkpt lat="50.33993" lon="1.68887">
        <ele>4.1</ele>
        <time>2020-06-18T18:00:13Z</time>
      </trkpt>
      <trkpt lat="50.33996" lon="1.68884">
        <ele>4.1</ele>
        <time>2020-06-18T18:00:14Z</time>
      </trkpt>
      <trkpt lat="50.34" lon="1.68883">
        <ele>4.1</ele>
        <time>2020-06-18T18:00:15Z</time>
      </trkpt>
      <trkpt lat="50.34003" lon="1.68881">
        <ele>4.1</ele>
        <time>2020-06-18T18:00:16Z</time>
      </trkpt>
      <trkpt lat="50.34007" lon="1.68879">
        <ele>4.1</ele>
        <time>2020-06-18T18:00:17Z</time>
      </trkpt>
      <trkpt lat="50.3401" lon="1.68876">
        <ele>4.1</ele>
        <time>2020-06-18T18:00:18Z</time>
      </trkpt>
      <trkpt lat="50.34014" lon="1.68872">
        <ele>4.1</ele>
        <time>2020-06-18T18:00:19Z</time>
      </trkpt>
      <trkpt lat="50.34018" lon="1.68868">
        <ele>4</ele>
        <time>2020-06-18T18:00:20Z</time>
      </trkpt>
      <trkpt lat="50.34022" lon="1.68863">
        <ele>4</ele>
        <time>2020-06-18T18:00:21Z</time>
      </trkpt>
      <trkpt lat="50.34026" lon="1.68858">
        <ele>4</ele>
        <time>2020-06-18T18:00:22Z</time>
      </trkpt>
      <trkpt lat="50.34031" lon="1.68853">
        <ele>4</ele>
        <time>2020-06-18T18:00:23Z</time>
      </trkpt>
      <trkpt lat="50.34035" lon="1.68847">
        <ele>4</ele>
        <time>2020-06-18T18:00:24Z</time>
      </trkpt>
      <trkpt lat="50.3404" lon="1.68841">
        <ele>4</ele>
        <time>2020-06-18T18:00:25Z</time>
      </trkpt>
      <trkpt lat="50.34045" lon="1.68837">
        <ele>4</ele>
        <time>2020-06-18T18:00:26Z</time>
      </trkpt>
      <trkpt lat="50.34051" lon="1.68834">
        <ele>4</ele>
        <time>2020-06-18T18:00:27Z</time>
      </trkpt>
      <trkpt lat="50.34057" lon="1.68831">
        <ele>4</ele>
        <time>2020-06-18T18:00:28Z</time>
      </trkpt>
      <trkpt lat="50.34062" lon="1.68827">
        <ele>4</ele>
        <time>2020-06-18T18:00:29Z</time>
      </trkpt>
      <trkpt lat="50.34067" lon="1.68822">
        <ele>4</ele>
        <time>2020-06-18T18:00:30Z</time>
      </trkpt>
      <trkpt lat="50.34072" lon="1.68817">
        <ele>4</ele>
        <time>2020-06-18T18:00:31Z</time>
      </trkpt>
      <trkpt lat="50.34077" lon="1.68812">
        <ele>4.1</ele>
        <time>2020-06-18T18:00:32Z</time>
      </trkpt>
      <trkpt lat="50.34082" lon="1.68807">
        <ele>4.1</ele>
        <time>2020-06-18T18:00:33Z</time>
      </trkpt>
      <trkpt lat="50.34087" lon="1.68802">
        <ele>4.2</ele>
        <time>2020-06-18T18:00:34Z</time>
      </trkpt>
      <trkpt lat="50.34091" lon="1.68797">
        <ele>4.2</ele>
        <time>2020-06-18T18:00:35Z</time>
      </trkpt>
      <trkpt lat="50.34096" lon="1.6879">
        <ele>4.3</ele>
        <time>2020-06-18T18:00:36Z</time>
      </trkpt>
      <trkpt lat="50.34101" lon="1.68785">
        <ele>4.4</ele>
        <time>2020-06-18T18:00:37Z</time>
      </trkpt>
      <trkpt lat="50.34104" lon="1.6878">
        <ele>4.4</ele>
        <time>2020-06-18T18:00:38Z</time>
      </trkpt>
      <trkpt lat="50.34109" lon="1.68775">
        <ele>4.5</ele>
        <time>2020-06-18T18:00:39Z</time>
      </trkpt>
      <trkpt lat="50.34114" lon="1.68769">
        <ele>4.6</ele>
        <time>2020-06-18T18:00:40Z</time>
      </trkpt>
      <trkpt lat="50.34118" lon="1.68764">
        <ele>4.7</ele>
        <time>2020-06-18T18:00:41Z</time>
      </trkpt>
      <trkpt lat="50.34122" lon="1.68759">
        <ele>4.8</ele>
        <time>2020-06-18T18:00:42Z</time>
      </trkpt>
      <trkpt lat="50.34126" lon="1.68752">
        <ele>4.9</ele>
        <time>2020-06-18T18:00:43Z</time>
      </trkpt>
      <trkpt lat="50.34129" lon="1.68747">
        <ele>5</ele>
        <time>2020-06-18T18:00:44Z</time>
      </trkpt>
      <trkpt lat="50.34132" lon="1.68742">
        <ele>5.1</ele>
        <time>2020-06-18T18:00:45Z</time>
      </trkpt>
      <trkpt lat="50.34136" lon="1.68736">
        <ele>5.2</ele>
        <time>2020-06-18T18:00:46Z</time>
      </trkpt>
      <trkpt lat="50.3414" lon="1.68732">
        <ele>5.4</ele>
        <time>2020-06-18T18:00:47Z</time>
      </trkpt>
      <trkpt lat="50.34143" lon="1.68726">
        <ele>5.5</ele>
        <time>2020-06-18T18:00:48Z</time>
      </trkpt>
      <trkpt lat="50.34147" lon="1.6872">
        <ele>5.6</ele>
        <time>2020-06-18T18:00:49Z</time>
      </trkpt>
      <trkpt lat="50.34151" lon="1.68714">
        <ele>5.8</ele>
        <time>2020-06-18T18:00:50Z</time>
      </trkpt>
      <trkpt lat="50.34154" lon="1.68707">
        <ele>6</ele>
        <time>2020-06-18T18:00:51Z</time>
      </trkpt>
      <trkpt lat="50.34157" lon="1.68702">
        <ele>6.2</ele>
        <time>2020-06-18T18:00:52Z</time>
      </trkpt>
      <trkpt lat="50.34159" lon="1.68698">
        <ele>6.3</ele>
        <time>2020-06-18T18:00:53Z</time>
      </trkpt>
      <trkpt lat="50.34162" lon="1.68693">
        <ele>6.5</ele>
        <time>2020-06-18T18:00:54Z</time>
      </trkpt>
      <trkpt lat="50.34165" lon="1.68689">
        <ele>6.7</ele>
        <time>2020-06-18T18:00:55Z</time>
      </trkpt>
      <trkpt lat="50.34167" lon="1.68685">
        <ele>6.8</ele>
        <time>2020-06-18T18:00:56Z</time>
      </trkpt>
      <trkpt lat="50.3417" lon="1.68681">
        <ele>7</ele>
        <time>2020-06-18T18:00:57Z</time>
      </trkpt>
      <trkpt lat="50.34173" lon="1.68677">
        <ele>7.2</ele>
        <time>2020-06-18T18:00:58Z</time>
      </trkpt>
      <trkpt lat="50.34175" lon="1.68674">
        <ele>7.4</ele>
        <time>2020-06-18T18:00:59Z</time>
      </trkpt>
      <trkpt lat="50.34178" lon="1.6867">
        <ele>7.6</ele>
        <time>2020-06-18T18:01:00Z</time>
      </trkpt>
      <trkpt lat="50.34181" lon="1.68667">
        <ele>7.8</ele>
        <time>2020-06-18T18:01:01Z</time>
      </trkpt>
      <trkpt lat="50.34182" lon="1.68661">
        <ele>8</ele>
        <time>2020-06-18T18:01:02Z</time>
      </trkpt>
      <trkpt lat="50.34182" lon="1.6866">
        <ele>8.1</ele>
        <time>2020-06-18T18:01:03Z</time>
      </trkpt>
      <trkpt lat="50.34183" lon="1.68657">
        <ele>8.3</ele>
        <time>2020-06-18T18:01:04Z</time>
      </trkpt>
      <trkpt lat="50.34184" lon="1.68655">
        <ele>8.3</ele>
        <time>2020-06-18T18:01:05Z</time>
      </trkpt>
      <trkpt lat="50.34184" lon="1.68654">
        <ele>8.4</ele>
        <time>2020-06-18T18:01:06Z</time>
      </trkpt>
      <trkpt lat="50.34185" lon="1.68653">
        <ele>8.5</ele>
        <time>2020-06-18T18:01:07Z</time>
      </trkpt>
      <trkpt lat="50.34186" lon="1.68652">
        <ele>8.6</ele>
        <time>2020-06-18T18:01:08Z</time>
      </trkpt>
      <trkpt lat="50.34189" lon="1.68649">
        <ele>8.8</ele>
        <time>2020-06-18T18:01:09Z</time>
      </trkpt>
      <trkpt lat="50.34189" lon="1.68647">
        <ele>8.9</ele>
        <time>2020-06-18T18:01:10Z</time>
      </trkpt>
      <trkpt lat="50.34193" lon="1.68647">
        <ele>9.2</ele>
        <time>2020-06-18T18:01:11Z</time>
      </trkpt>
      <trkpt lat="50.34197" lon="1.68645">
        <ele>9.5</ele>
        <time>2020-06-18T18:01:12Z</time>
      </trkpt>
      <trkpt lat="50.34198" lon="1.68643">
        <ele>9.7</ele>
        <time>2020-06-18T18:01:13Z</time>
      </trkpt>
      <trkpt lat="50.342" lon="1.6864">
        <ele>9.9</ele>
        <time>2020-06-18T18:01:14Z</time>
      </trkpt>
      <trkpt lat="50.34203" lon="1.68636">
        <ele>10.2</ele>
        <time>2020-06-18T18:01:15Z</time>
      </trkpt>
      <trkpt lat="50.34204" lon="1.68634">
        <ele>10.4</ele>
        <time>2020-06-18T18:01:16Z</time>
      </trkpt>
      <trkpt lat="50.34206" lon="1.68628">
        <ele>10.7</ele>
        <time>2020-06-18T18:01:17Z</time>
      </trkpt>
      <trkpt lat="50.34207" lon="1.68626">
        <ele>10.9</ele>
        <time>2020-06-18T18:01:18Z</time>
      </trkpt>
      <trkpt lat="50.34208" lon="1.68621">
        <ele>11.2</ele>
        <time>2020-06-18T18:01:19Z</time>
      </trkpt>
      <trkpt lat="50.34209" lon="1.68619">
        <ele>11.3</ele>
        <time>2020-06-18T18:01:20Z</time>
      </trkpt>
      <trkpt lat="50.3421" lon="1.68613">
        <ele>11.7</ele>
        <time>2020-06-18T18:01:21Z</time>
      </trkpt>
      <trkpt lat="50.34211" lon="1.6861">
        <ele>11.7</ele>
        <time>2020-06-18T18:01:22Z</time>
      </trkpt>
      <trkpt lat="50.3421" lon="1.68608">
        <ele>11.8</ele>
        <time>2020-06-18T18:01:23Z</time>
      </trkpt>
      <trkpt lat="50.34209" lon="1.68607">
        <ele>11.8</ele>
        <time>2020-06-18T18:01:24Z</time>
      </trkpt>
      <trkpt lat="50.34209" lon="1.68606">
        <ele>11.9</ele>
        <time>2020-06-18T18:01:25Z</time>
      </trkpt>
      <trkpt lat="50.34208" lon="1.68604">
        <ele>11.9</ele>
        <time>2020-06-18T18:01:26Z</time>
      </trkpt>
      <trkpt lat="50.34208" lon="1.68601">
        <ele>12</ele>
        <time>2020-06-18T18:01:27Z</time>
      </trkpt>
      <trkpt lat="50.34206" lon="1.68595">
        <ele>12.2</ele>
        <time>2020-06-18T18:01:28Z</time>
      </trkpt>
      <trkpt lat="50.34205" lon="1.68593">
        <ele>12.3</ele>
        <time>2020-06-18T18:01:29Z</time>
      </trkpt>
      <trkpt lat="50.34203" lon="1.68588">
        <ele>12.4</ele>
        <time>2020-06-18T18:01:30Z</time>
      </trkpt>
      <trkpt lat="50.34202" lon="1.68587">
        <ele>12.5</ele>
        <time>2020-06-18T18:01:31Z</time>
      </trkpt>
      <trkpt lat="50.34201" lon="1.68581">
        <ele>12.6</ele>
        <time>2020-06-18T18:01:32Z</time>
      </trkpt>
      <trkpt lat="50.34201" lon="1.68579">
        <ele>12.6</ele>
        <time>2020-06-18T18:01:33Z</time>
      </trkpt>
      <trkpt lat="50.342" lon="1.68577">
        <ele>12.7</ele>
        <time>2020-06-18T18:01:34Z</time>
      </trkpt>
      <trkpt lat="50.342" lon="1.68574">
        <ele>12.8</ele>
        <time>2020-06-18T18:01:35Z</time>
      </trkpt>
      <trkpt lat="50.34201" lon="1.68571">
        <ele>13</ele>
        <time>2020-06-18T18:01:36Z</time>
      </trkpt>
      <trkpt lat="50.34201" lon="1.6857">
        <ele>13</ele>
        <time>2020-06-18T18:01:37Z</time>
      </trkpt>
      <trkpt lat="50.34202" lon="1.68569">
        <ele>13.1</ele>
        <time>2020-06-18T18:01:38Z</time>
      </trkpt>
      <trkpt lat="50.34203" lon="1.68568">
        <ele>13.2</ele>
        <time>2020-06-18T18:01:39Z</time>
      </trkpt>
      <trkpt lat="50.34203" lon="1.68568">
        <ele>13.2</ele>
        <time>2020-06-18T18:01:40Z</time>
      </trkpt>
      <trkpt lat="50.34203" lon="1.68567">
        <ele>13.3</ele>
        <time>2020-06-18T18:01:41Z</time>
      </trkpt>
      <trkpt lat="50.34204" lon="1.68564">
        <ele>13.4</ele>
        <time>2020-06-18T18:01:42Z</time>
      </trkpt>
      <trkpt lat="50.34204" lon="1.68563">
        <ele>13.4</ele>
        <time>2020-06-18T18:01:43Z</time>
      </trkpt>
      <trkpt lat="50.34204" lon="1.68563">
        <ele>13.4</ele>
        <time>2020-06-18T18:01:44Z</time>
      </trkpt>
      <trkpt lat="50.34204" lon="1.68563">
        <ele>13.5</ele>
        <time>2020-06-18T18:01:45Z</time>
      </trkpt>
      <trkpt lat="50.34203" lon="1.68563">
        <ele>13.5</ele>
        <time>2020-06-18T18:01:46Z</time>
      </trkpt>
      <trkpt lat="50.34203" lon="1.68563">
        <ele>13.5</ele>
        <time>2020-06-18T18:01:47Z</time>
      </trkpt>
      <trkpt lat="50.34203" lon="1.68563">
        <ele>13.5</ele>
        <time>2020-06-18T18:01:48Z</time>
      </trkpt>
      <trkpt lat="50.34203" lon="1.68562">
        <ele>13.6</ele>
        <time>2020-06-18T18:01:49Z</time>
      </trkpt>
      <trkpt lat="50.34203" lon="1.68562">
        <ele>13.6</ele>
        <time>2020-06-18T18:01:50Z</time>
      </trkpt>
      <trkpt lat="50.34202" lon="1.68562">
        <ele>13.6</ele>
        <time>2020-06-18T18:01:51Z</time>
      </trkpt>
      <trkpt lat="50.34202" lon="1.68563">
        <ele>13.6</ele>
        <time>2020-06-18T18:01:52Z</time>
      </trkpt>
      <trkpt lat="50.34202" lon="1.68564">
        <ele>13.7</ele>
        <time>2020-06-18T18:01:53Z</time>
      </trkpt>
      <trkpt lat="50.34206" lon="1.68556">
        <ele>14.1</ele>
        <time>2020-06-18T18:02:00Z</time>
      </trkpt>
      <trkpt lat="50.34207" lon="1.68553">
        <ele>14.2</ele>
        <time>2020-06-18T18:02:01Z</time>
      </trkpt>
      <trkpt lat="50.34209" lon="1.68549">
        <ele>14.5</ele>
        <time>2020-06-18T18:02:02Z</time>
      </trkpt>
      <trkpt lat="50.34209" lon="1.68548">
        <ele>14.5</ele>
        <time>2020-06-18T18:02:03Z</time>
      </trkpt>
      <trkpt lat="50.34211" lon="1.68544">
        <ele>14.8</ele>
        <time>2020-06-18T18:02:04Z</time>
      </trkpt>
      <trkpt lat="50.34212" lon="1.68542">
        <ele>14.8</ele>
        <time>2020-06-18T18:02:05Z</time>
      </trkpt>
      <trkpt lat="50.34214" lon="1.68537">
        <ele>15.1</ele>
        <time>2020-06-18T18:02:06Z</time>
      </trkpt>
      <trkpt lat="50.34215" lon="1.68535">
        <ele>15.2</ele>
        <time>2020-06-18T18:02:07Z</time>
      </trkpt>
      <trkpt lat="50.34216" lon="1.68531">
        <ele>15.4</ele>
        <time>2020-06-18T18:02:08Z</time>
      </trkpt>
      <trkpt lat="50.34217" lon="1.68527">
        <ele>15.6</ele>
        <time>2020-06-18T18:02:09Z</time>
      </trkpt>
      <trkpt lat="50.34219" lon="1.68523">
        <ele>15.8</ele>
        <time>2020-06-18T18:02:10Z</time>
      </trkpt>
      <trkpt lat="50.34221" lon="1.68519">
        <ele>16.1</ele>
        <time>2020-06-18T18:02:11Z</time>
      </trkpt>
      <trkpt lat="50.34223" lon="1.68513">
        <ele>16.4</ele>
        <time>2020-06-18T18:02:12Z</time>
      </trkpt>
      <trkpt lat="50.34224" lon="1.6851">
        <ele>16.5</ele>
        <time>2020-06-18T18:02:13Z</time>
      </trkpt>
      <trkpt lat="50.34225" lon="1.68506">
        <ele>16.7</ele>
        <time>2020-06-18T18:02:14Z</time>
      </trkpt>
      <trkpt lat="50.34227" lon="1.68502">
        <ele>17</ele>
        <time>2020-06-18T18:02:15Z</time>
      </trkpt>
      <trkpt lat="50.34228" lon="1.68498">
        <ele>17.2</ele>
        <time>2020-06-18T18:02:16Z</time>
      </trkpt>
      <trkpt lat="50.3423" lon="1.68493">
        <ele>17.5</ele>
        <time>2020-06-18T18:02:17Z</time>
      </trkpt>
      <trkpt lat="50.34232" lon="1.6849">
        <ele>17.7</ele>
        <time>2020-06-18T18:02:18Z</time>
      </trkpt>
      <trkpt lat="50.34235" lon="1.68486">
        <ele>17.9</ele>
        <time>2020-06-18T18:02:19Z</time>
      </trkpt>
      <trkpt lat="50.34237" lon="1.68483">
        <ele>18.1</ele>
        <time>2020-06-18T18:02:20Z</time>
      </trkpt>
      <trkpt lat="50.34239" lon="1.68479">
        <ele>18.8</ele>
        <time>2020-06-18T18:02:21Z</time>
      </trkpt>
      <trkpt lat="50.3424" lon="1.68474">
        <ele>19.2</ele>
        <time>2020-06-18T18:02:22Z</time>
      </trkpt>
      <trkpt lat="50.34242" lon="1.6847">
        <ele>19.5</ele>
        <time>2020-06-18T18:02:23Z</time>
      </trkpt>
      <trkpt lat="50.34245" lon="1.68467">
        <ele>19.8</ele>
        <time>2020-06-18T18:02:24Z</time>
      </trkpt>
      <trkpt lat="50.34247" lon="1.68463">
        <ele>20.1</ele>
        <time>2020-06-18T18:02:25Z</time>
      </trkpt>
      <trkpt lat="50.34249" lon="1.6846">
        <ele>20.3</ele>
        <time>2020-06-18T18:02:26Z</time>
      </trkpt>
      <trkpt lat="50.34251" lon="1.68456">
        <ele>20.5</ele>
        <time>2020-06-18T18:02:27Z</time>
      </trkpt>
      <trkpt lat="50.34253" lon="1.68453">
        <ele>20.7</ele>
        <time>2020-06-18T18:02:28Z</time>
      </trkpt>
      <trkpt lat="50.34256" lon="1.6845">
        <ele>20.9</ele>
        <time>2020-06-18T18:02:29Z</time>
      </trkpt>
      <trkpt lat="50.34257" lon="1.68446">
        <ele>21.1</ele>
        <time>2020-06-18T18:02:30Z</time>
      </trkpt>
      <trkpt lat="50.34259" lon="1.6844">
        <ele>21.4</ele>
        <time>2020-06-18T18:02:31Z</time>
      </trkpt>
      <trkpt lat="50.3426" lon="1.68438">
        <ele>21.5</ele>
        <time>2020-06-18T18:02:32Z</time>
      </trkpt>
      <trkpt lat="50.34262" lon="1.68434">
        <ele>21.7</ele>
        <time>2020-06-18T18:02:33Z</time>
      </trkpt>
      <trkpt lat="50.34264" lon="1.6843">
        <ele>22</ele>
        <time>2020-06-18T18:02:34Z</time>
      </trkpt>
      <trkpt lat="50.34266" lon="1.68425">
        <ele>22.2</ele>
        <time>2020-06-18T18:02:35Z</time>
      </trkpt>
      <trkpt lat="50.34267" lon="1.6842">
        <ele>22.4</ele>
        <time>2020-06-18T18:02:36Z</time>
      </trkpt>
      <trkpt lat="50.34268" lon="1.68418">
        <ele>22.5</ele>
        <time>2020-06-18T18:02:37Z</time>
      </trkpt>
      <trkpt lat="50.3427" lon="1.68412">
        <ele>22.8</ele>
        <time>2020-06-18T18:02:38Z</time>
      </trkpt>
      <trkpt lat="50.3427" lon="1.68409">
        <ele>22.9</ele>
        <time>2020-06-18T18:02:39Z</time>
      </trkpt>
      <trkpt lat="50.34272" lon="1.68405">
        <ele>23.1</ele>
        <time>2020-06-18T18:02:40Z</time>
      </trkpt>
      <trkpt lat="50.34273" lon="1.684">
        <ele>23.3</ele>
        <time>2020-06-18T18:02:41Z</time>
      </trkpt>
      <trkpt lat="50.34274" lon="1.68395">
        <ele>23.5</ele>
        <time>2020-06-18T18:02:42Z</time>
      </trkpt>
      <trkpt lat="50.34275" lon="1.68391">
        <ele>23.6</ele>
        <time>2020-06-18T18:02:43Z</time>
      </trkpt>
      <trkpt lat="50.34276" lon="1.68386">
        <ele>23.8</ele>
        <time>2020-06-18T18:02:44Z</time>
      </trkpt>
      <trkpt lat="50.34276" lon="1.6838">
        <ele>24.1</ele>
        <time>2020-06-18T18:02:45Z</time>
      </trkpt>
      <trkpt lat="50.34277" lon="1.68377">
        <ele>24.2</ele>
        <time>2020-06-18T18:02:46Z</time>
      </trkpt>
      <trkpt lat="50.34277" lon="1.68373">
        <ele>24.4</ele>
        <time>2020-06-18T18:02:47Z</time>
      </trkpt>
      <trkpt lat="50.34277" lon="1.68367">
        <ele>24.6</ele>
        <time>2020-06-18T18:02:48Z</time>
      </trkpt>
      <trkpt lat="50.34278" lon="1.68362">
        <ele>24.7</ele>
        <time>2020-06-18T18:02:49Z</time>
      </trkpt>
      <trkpt lat="50.34278" lon="1.68357">
        <ele>24.9</ele>
        <time>2020-06-18T18:02:50Z</time>
      </trkpt>
      <trkpt lat="50.34279" lon="1.68352">
        <ele>25.1</ele>
        <time>2020-06-18T18:02:51Z</time>
      </trkpt>
      <trkpt lat="50.3428" lon="1.68347">
        <ele>25.3</ele>
        <time>2020-06-18T18:02:52Z</time>
      </trkpt>
      <trkpt lat="50.3428" lon="1.68342">
        <ele>25.5</ele>
        <time>2020-06-18T18:02:53Z</time>
      </trkpt>
      <trkpt lat="50.34281" lon="1.68338">
        <ele>25.6</ele>
        <time>2020-06-18T18:02:54Z</time>
      </trkpt>
      <trkpt lat="50.34282" lon="1.68332">
        <ele>25.8</ele>
        <time>2020-06-18T18:02:55Z</time>
      </trkpt>
      <trkpt lat="50.34281" lon="1.68328">
        <ele>26</ele>
        <time>2020-06-18T18:02:56Z</time>
      </trkpt>
      <trkpt lat="50.34283" lon="1.68322">
        <ele>26.1</ele>
        <time>2020-06-18T18:02:57Z</time>
      </trkpt>
      <trkpt lat="50.34283" lon="1.6832">
        <ele>26.2</ele>
        <time>2020-06-18T18:02:58Z</time>
      </trkpt>
      <trkpt lat="50.34284" lon="1.68315">
        <ele>26.4</ele>
        <time>2020-06-18T18:02:59Z</time>
      </trkpt>
      <trkpt lat="50.34285" lon="1.68311">
        <ele>26.5</ele>
        <time>2020-06-18T18:03:00Z</time>
      </trkpt>
      <trkpt lat="50.34285" lon="1.68306">
        <ele>26.6</ele>
        <time>2020-06-18T18:03:01Z</time>
      </trkpt>
      <trkpt lat="50.34286" lon="1.68302">
        <ele>26.8</ele>
        <time>2020-06-18T18:03:02Z</time>
      </trkpt>
      <trkpt lat="50.34286" lon="1.68297">
        <ele>26.9</ele>
        <time>2020-06-18T18:03:03Z</time>
      </trkpt>
      <trkpt lat="50.34286" lon="1.68293">
        <ele>27.1</ele>
        <time>2020-06-18T18:03:04Z</time>
      </trkpt>
      <trkpt lat="50.34287" lon="1.68288">
        <ele>27.2</ele>
        <time>2020-06-18T18:03:05Z</time>
      </trkpt>
      <trkpt lat="50.34289" lon="1.68282">
        <ele>27.4</ele>
        <time>2020-06-18T18:03:06Z</time>
      </trkpt>
      <trkpt lat="50.34289" lon="1.68279">
        <ele>27.5</ele>
        <time>2020-06-18T18:03:07Z</time>
      </trkpt>
      <trkpt lat="50.34288" lon="1.68273">
        <ele>27.7</ele>
        <time>2020-06-18T18:03:08Z</time>
      </trkpt>
      <trkpt lat="50.34288" lon="1.68267">
        <ele>27.9</ele>
        <time>2020-06-18T18:03:09Z</time>
      </trkpt>
      <trkpt lat="50.34288" lon="1.68261">
        <ele>28.1</ele>
        <time>2020-06-18T18:03:10Z</time>
      </trkpt>
      <trkpt lat="50.3429" lon="1.68257">
        <ele>28.2</ele>
        <time>2020-06-18T18:03:11Z</time>
      </trkpt>
      <trkpt lat="50.34291" lon="1.68252">
        <ele>28.3</ele>
        <time>2020-06-18T18:03:12Z</time>
      </trkpt>
      <trkpt lat="50.34292" lon="1.68247">
        <ele>28.4</ele>
        <time>2020-06-18T18:03:13Z</time>
      </trkpt>
      <trkpt lat="50.34293" lon="1.68242">
        <ele>28.6</ele>
        <time>2020-06-18T18:03:14Z</time>
      </trkpt>
      <trkpt lat="50.34294" lon="1.68236">
        <ele>28.7</ele>
        <time>2020-06-18T18:03:15Z</time>
      </trkpt>
      <trkpt lat="50.34295" lon="1.6823">
        <ele>28.8</ele>
        <time>2020-06-18T18:03:16Z</time>
      </trkpt>
      <trkpt lat="50.34296" lon="1.68225">
        <ele>28.9</ele>
        <time>2020-06-18T18:03:17Z</time>
      </trkpt>
      <trkpt lat="50.34297" lon="1.6822">
        <ele>29.1</ele>
        <time>2020-06-18T18:03:18Z</time>
      </trkpt>
      <trkpt lat="50.34299" lon="1.68214">
        <ele>29.2</ele>
        <time>2020-06-18T18:03:19Z</time>
      </trkpt>
      <trkpt lat="50.343" lon="1.68209">
        <ele>29.3</ele>
        <time>2020-06-18T18:03:20Z</time>
      </trkpt>
      <trkpt lat="50.34301" lon="1.68204">
        <ele>29.4</ele>
        <time>2020-06-18T18:03:21Z</time>
      </trkpt>
      <trkpt lat="50.34302" lon="1.68198">
        <ele>29.5</ele>
        <time>2020-06-18T18:03:22Z</time>
      </trkpt>
      <trkpt lat="50.34304" lon="1.68192">
        <ele>29.6</ele>
        <time>2020-06-18T18:03:23Z</time>
      </trkpt>
      <trkpt lat="50.34305" lon="1.68186">
        <ele>29.6</ele>
        <time>2020-06-18T18:03:24Z</time>
      </trkpt>
      <trkpt lat="50.34306" lon="1.68179">
        <ele>29.7</ele>
        <time>2020-06-18T18:03:25Z</time>
      </trkpt>
      <trkpt lat="50.34306" lon="1.68175">
        <ele>29.8</ele>
        <time>2020-06-18T18:03:26Z</time>
      </trkpt>
      <trkpt lat="50.34308" lon="1.68169">
        <ele>29.8</ele>
        <time>2020-06-18T18:03:27Z</time>
      </trkpt>
      <trkpt lat="50.34309" lon="1.68163">
        <ele>29.8</ele>
        <time>2020-06-18T18:03:28Z</time>
      </trkpt>
      <trkpt lat="50.34311" lon="1.68156">
        <ele>29.9</ele>
        <time>2020-06-18T18:03:29Z</time>
      </trkpt>
      <trkpt lat="50.34313" lon="1.68148">
        <ele>29.9</ele>
        <time>2020-06-18T18:03:30Z</time>
      </trkpt>
      <trkpt lat="50.34314" lon="1.68141">
        <ele>29.9</ele>
        <time>2020-06-18T18:03:31Z</time>
      </trkpt>
      <trkpt lat="50.34316" lon="1.68134">
        <ele>30</ele>
        <time>2020-06-18T18:03:32Z</time>
      </trkpt>
      <trkpt lat="50.34318" lon="1.68127">
        <ele>30</ele>
        <time>2020-06-18T18:03:33Z</time>
      </trkpt>
      <trkpt lat="50.3432" lon="1.6812">
        <ele>30.1</ele>
        <time>2020-06-18T18:03:34Z</time>
      </trkpt>
      <trkpt lat="50.34322" lon="1.68113">
        <ele>30.1</ele>
        <time>2020-06-18T18:03:35Z</time>
      </trkpt>
      <trkpt lat="50.34324" lon="1.68105">
        <ele>30.2</ele>
        <time>2020-06-18T18:03:36Z</time>
      </trkpt>
      <trkpt lat="50.34326" lon="1.68098">
        <ele>30.2</ele>
        <time>2020-06-18T18:03:37Z</time>
      </trkpt>
      <trkpt lat="50.34328" lon="1.6809">
        <ele>30.2</ele>
        <time>2020-06-18T18:03:38Z</time>
      </trkpt>
      <trkpt lat="50.3433" lon="1.68083">
        <ele>30.3</ele>
        <time>2020-06-18T18:03:39Z</time>
      </trkpt>
      <trkpt lat="50.34332" lon="1.68076">
        <ele>30.3</ele>
        <time>2020-06-18T18:03:40Z</time>
      </trkpt>
      <trkpt lat="50.34334" lon="1.68068">
        <ele>30.3</ele>
        <time>2020-06-18T18:03:41Z</time>
      </trkpt>
      <trkpt lat="50.34337" lon="1.68061">
        <ele>30.4</ele>
        <time>2020-06-18T18:03:42Z</time>
      </trkpt>
      <trkpt lat="50.34339" lon="1.68054">
        <ele>30.4</ele>
        <time>2020-06-18T18:03:43Z</time>
      </trkpt>
      <trkpt lat="50.34341" lon="1.68046">
        <ele>30.4</ele>
        <time>2020-06-18T18:03:44Z</time>
      </trkpt>
      <trkpt lat="50.34344" lon="1.68039">
        <ele>30.4</ele>
        <time>2020-06-18T18:03:45Z</time>
      </trkpt>
      <trkpt lat="50.34346" lon="1.68031">
        <ele>30.4</ele>
        <time>2020-06-18T18:03:46Z</time>
      </trkpt>
      <trkpt lat="50.34349" lon="1.68024">
        <ele>30.4</ele>
        <time>2020-06-18T18:03:47Z</time>
      </trkpt>
      <trkpt lat="50.34352" lon="1.68016">
        <ele>30.4</ele>
        <time>2020-06-18T18:03:48Z</time>
      </trkpt>
      <trkpt lat="50.34354" lon="1.68008">
        <ele>30.4</ele>
        <time>2020-06-18T18:03:49Z</time>
      </trkpt>
      <trkpt lat="50.34357" lon="1.68001">
        <ele>30.4</ele>
        <time>2020-06-18T18:03:50Z</time>
      </trkpt>
      <trkpt lat="50.34361" lon="1.67994">
        <ele>30.5</ele>
        <time>2020-06-18T18:03:51Z</time>
      </trkpt>
      <trkpt lat="50.34363" lon="1.67987">
        <ele>30.5</ele>
        <time>2020-06-18T18:03:52Z</time>
      </trkpt>
      <trkpt lat="50.34366" lon="1.67979">
        <ele>30.5</ele>
        <time>2020-06-18T18:03:53Z</time>
      </trkpt>
      <trkpt lat="50.34369" lon="1.67972">
        <ele>30.5</ele>
        <time>2020-06-18T18:03:54Z</time>
      </trkpt>
      <trkpt lat="50.34371" lon="1.67965">
        <ele>30.5</ele>
        <time>2020-06-18T18:03:55Z</time>
      </trkpt>
      <trkpt lat="50.34374" lon="1.67959">
        <ele>30.5</ele>
        <time>2020-06-18T18:03:56Z</time>
      </trkpt>
      <trkpt lat="50.34376" lon="1.67953">
        <ele>30.5</ele>
        <time>2020-06-18T18:03:57Z</time>
      </trkpt>
      <trkpt lat="50.34379" lon="1.67949">
        <ele>30.5</ele>
        <time>2020-06-18T18:03:58Z</time>
      </trkpt>
      <trkpt lat="50.34382" lon="1.67943">
        <ele>30.6</ele>
        <time>2020-06-18T18:03:59Z</time>
      </trkpt>
      <trkpt lat="50.34384" lon="1.67938">
        <ele>30.6</ele>
        <time>2020-06-18T18:04:00Z</time>
      </trkpt>
      <trkpt lat="50.34387" lon="1.67933">
        <ele>30.6</ele>
        <time>2020-06-18T18:04:01Z</time>
      </trkpt>
      <trkpt lat="50.34389" lon="1.67926">
        <ele>30.6</ele>
        <time>2020-06-18T18:04:02Z</time>
      </trkpt>
      <trkpt lat="50.34391" lon="1.6792">
        <ele>30.6</ele>
        <time>2020-06-18T18:04:03Z</time>
      </trkpt>
      <trkpt lat="50.34394" lon="1.67914">
        <ele>30.7</ele>
        <time>2020-06-18T18:04:04Z</time>
      </trkpt>
      <trkpt lat="50.34397" lon="1.67909">
        <ele>30.7</ele>
        <time>2020-06-18T18:04:05Z</time>
      </trkpt>
      <trkpt lat="50.344" lon="1.67902">
        <ele>30.7</ele>
        <time>2020-06-18T18:04:06Z</time>
      </trkpt>
      <trkpt lat="50.34403" lon="1.67896">
        <ele>30.8</ele>
        <time>2020-06-18T18:04:07Z</time>
      </trkpt>
      <trkpt lat="50.34406" lon="1.67889">
        <ele>30.8</ele>
        <time>2020-06-18T18:04:08Z</time>
      </trkpt>
      <trkpt lat="50.34409" lon="1.67884">
        <ele>30.8</ele>
        <time>2020-06-18T18:04:09Z</time>
      </trkpt>
      <trkpt lat="50.34411" lon="1.67878">
        <ele>30.9</ele>
        <time>2020-06-18T18:04:10Z</time>
      </trkpt>
      <trkpt lat="50.34413" lon="1.67872">
        <ele>30.9</ele>
        <time>2020-06-18T18:04:11Z</time>
      </trkpt>
      <trkpt lat="50.34416" lon="1.67866">
        <ele>30.9</ele>
        <time>2020-06-18T18:04:12Z</time>
      </trkpt>
      <trkpt lat="50.34419" lon="1.67859">
        <ele>31</ele>
        <time>2020-06-18T18:04:13Z</time>
      </trkpt>
      <trkpt lat="50.34421" lon="1.67853">
        <ele>31</ele>
        <time>2020-06-18T18:04:14Z</time>
      </trkpt>
      <trkpt lat="50.34424" lon="1.67846">
        <ele>31</ele>
        <time>2020-06-18T18:04:15Z</time>
      </trkpt>
      <trkpt lat="50.34427" lon="1.67839">
        <ele>31</ele>
        <time>2020-06-18T18:04:16Z</time>
      </trkpt>
      <trkpt lat="50.3443" lon="1.67832">
        <ele>31</ele>
        <time>2020-06-18T18:04:17Z</time>
      </trkpt>
      <trkpt lat="50.34433" lon="1.67826">
        <ele>31</ele>
        <time>2020-06-18T18:04:18Z</time>
      </trkpt>
      <trkpt lat="50.34436" lon="1.67819">
        <ele>31</ele>
        <time>2020-06-18T18:04:19Z</time>
      </trkpt>
      <trkpt lat="50.34439" lon="1.67811">
        <ele>31</ele>
        <time>2020-06-18T18:04:20Z</time>
      </trkpt>
      <trkpt lat="50.34441" lon="1.67805">
        <ele>30.9</ele>
        <time>2020-06-18T18:04:21Z</time>
      </trkpt>
      <trkpt lat="50.34444" lon="1.67798">
        <ele>30.9</ele>
        <time>2020-06-18T18:04:22Z</time>
      </trkpt>
      <trkpt lat="50.34447" lon="1.67791">
        <ele>30.8</ele>
        <time>2020-06-18T18:04:23Z</time>
      </trkpt>
      <trkpt lat="50.3445" lon="1.67784">
        <ele>30.8</ele>
        <time>2020-06-18T18:04:24Z</time>
      </trkpt>
      <trkpt lat="50.34455" lon="1.67778">
        <ele>30.7</ele>
        <time>2020-06-18T18:04:25Z</time>
      </trkpt>
      <trkpt lat="50.34457" lon="1.67771">
        <ele>30.6</ele>
        <time>2020-06-18T18:04:26Z</time>
      </trkpt>
      <trkpt lat="50.3446" lon="1.67765">
        <ele>30.6</ele>
        <time>2020-06-18T18:04:27Z</time>
      </trkpt>
      <trkpt lat="50.34462" lon="1.67758">
        <ele>30.5</ele>
        <time>2020-06-18T18:04:28Z</time>
      </trkpt>
      <trkpt lat="50.34465" lon="1.67751">
        <ele>30.4</ele>
        <time>2020-06-18T18:04:29Z</time>
      </trkpt>
      <trkpt lat="50.34468" lon="1.67743">
        <ele>30.3</ele>
        <time>2020-06-18T18:04:30Z</time>
      </trkpt>
      <trkpt lat="50.34472" lon="1.67737">
        <ele>30.2</ele>
        <time>2020-06-18T18:04:31Z</time>
      </trkpt>
      <trkpt lat="50.34476" lon="1.6773">
        <ele>30.2</ele>
        <time>2020-06-18T18:04:32Z</time>
      </trkpt>
      <trkpt lat="50.3448" lon="1.67723">
        <ele>30.1</ele>
        <time>2020-06-18T18:04:33Z</time>
      </trkpt>
      <trkpt lat="50.34483" lon="1.67716">
        <ele>30</ele>
        <time>2020-06-18T18:04:34Z</time>
      </trkpt>
      <trkpt lat="50.34487" lon="1.67709">
        <ele>30</ele>
        <time>2020-06-18T18:04:35Z</time>
      </trkpt>
      <trkpt lat="50.34491" lon="1.67703">
        <ele>29.9</ele>
        <time>2020-06-18T18:04:36Z</time>
      </trkpt>
      <trkpt lat="50.34495" lon="1.67696">
        <ele>29.8</ele>
        <time>2020-06-18T18:04:37Z</time>
      </trkpt>
      <trkpt lat="50.34499" lon="1.67688">
        <ele>29.7</ele>
        <time>2020-06-18T18:04:38Z</time>
      </trkpt>
      <trkpt lat="50.34504" lon="1.67682">
        <ele>29.6</ele>
        <time>2020-06-18T18:04:39Z</time>
      </trkpt>
      <trkpt lat="50.34509" lon="1.67675">
        <ele>29.4</ele>
        <time>2020-06-18T18:04:40Z</time>
      </trkpt>
      <trkpt lat="50.34515" lon="1.6767">
        <ele>29.3</ele>
        <time>2020-06-18T18:04:41Z</time>
      </trkpt>
      <trkpt lat="50.3452" lon="1.67665">
        <ele>29.1</ele>
        <time>2020-06-18T18:04:42Z</time>
      </trkpt>
      <trkpt lat="50.34526" lon="1.67658">
        <ele>29</ele>
        <time>2020-06-18T18:04:43Z</time>
      </trkpt>
      <trkpt lat="50.3453" lon="1.67651">
        <ele>28.9</ele>
        <time>2020-06-18T18:04:44Z</time>
      </trkpt>
      <trkpt lat="50.34535" lon="1.67644">
        <ele>28.7</ele>
        <time>2020-06-18T18:04:45Z</time>
      </trkpt>
      <trkpt lat="50.3454" lon="1.67637">
        <ele>28.6</ele>
        <time>2020-06-18T18:04:46Z</time>
      </trkpt>
      <trkpt lat="50.34546" lon="1.6763">
        <ele>28.4</ele>
        <time>2020-06-18T18:04:47Z</time>
      </trkpt>
      <trkpt lat="50.3455" lon="1.67625">
        <ele>28.3</ele>
        <time>2020-06-18T18:04:48Z</time>
      </trkpt>
      <trkpt lat="50.34554" lon="1.6762">
        <ele>28.2</ele>
        <time>2020-06-18T18:04:49Z</time>
      </trkpt>
      <trkpt lat="50.34559" lon="1.67615">
        <ele>28</ele>
        <time>2020-06-18T18:04:50Z</time>
      </trkpt>
      <trkpt lat="50.34564" lon="1.6761">
        <ele>27.9</ele>
        <time>2020-06-18T18:04:51Z</time>
      </trkpt>
      <trkpt lat="50.34569" lon="1.67605">
        <ele>27.7</ele>
        <time>2020-06-18T18:04:52Z</time>
      </trkpt>
      <trkpt lat="50.34573" lon="1.676">
        <ele>27.6</ele>
        <time>2020-06-18T18:04:53Z</time>
      </trkpt>
      <trkpt lat="50.34577" lon="1.67594">
        <ele>27.4</ele>
        <time>2020-06-18T18:04:54Z</time>
      </trkpt>
      <trkpt lat="50.34582" lon="1.67589">
        <ele>27.3</ele>
        <time>2020-06-18T18:04:55Z</time>
      </trkpt>
      <trkpt lat="50.34588" lon="1.67583">
        <ele>27.2</ele>
        <time>2020-06-18T18:04:56Z</time>
      </trkpt>
      <trkpt lat="50.34593" lon="1.67577">
        <ele>27.1</ele>
        <time>2020-06-18T18:04:57Z</time>
      </trkpt>
      <trkpt lat="50.34599" lon="1.67571">
        <ele>27.1</ele>
        <time>2020-06-18T18:04:58Z</time>
      </trkpt>
      <trkpt lat="50.34604" lon="1.67566">
        <ele>27.1</ele>
        <time>2020-06-18T18:04:59Z</time>
      </trkpt>
      <trkpt lat="50.34609" lon="1.67561">
        <ele>27.1</ele>
        <time>2020-06-18T18:05:00Z</time>
      </trkpt>
      <trkpt lat="50.34614" lon="1.67556">
        <ele>27.1</ele>
        <time>2020-06-18T18:05:01Z</time>
      </trkpt>
      <trkpt lat="50.34619" lon="1.6755">
        <ele>27</ele>
        <time>2020-06-18T18:05:02Z</time>
      </trkpt>
      <trkpt lat="50.34623" lon="1.67545">
        <ele>27</ele>
        <time>2020-06-18T18:05:03Z</time>
      </trkpt>
      <trkpt lat="50.34627" lon="1.67541">
        <ele>26.9</ele>
        <time>2020-06-18T18:05:04Z</time>
      </trkpt>
      <trkpt lat="50.34632" lon="1.67535">
        <ele>26.8</ele>
        <time>2020-06-18T18:05:05Z</time>
      </trkpt>
      <trkpt lat="50.34635" lon="1.6753">
        <ele>26.8</ele>
        <time>2020-06-18T18:05:06Z</time>
      </trkpt>
      <trkpt lat="50.3464" lon="1.67525">
        <ele>26.7</ele>
        <time>2020-06-18T18:05:07Z</time>
      </trkpt>
      <trkpt lat="50.34644" lon="1.67519">
        <ele>26.6</ele>
        <time>2020-06-18T18:05:08Z</time>
      </trkpt>
      <trkpt lat="50.34648" lon="1.67514">
        <ele>26.6</ele>
        <time>2020-06-18T18:05:09Z</time>
      </trkpt>
      <trkpt lat="50.34652" lon="1.67509">
        <ele>26.6</ele>
        <time>2020-06-18T18:05:10Z</time>
      </trkpt>
      <trkpt lat="50.34656" lon="1.67503">
        <ele>26.6</ele>
        <time>2020-06-18T18:05:11Z</time>
      </trkpt>
      <trkpt lat="50.3466" lon="1.67498">
        <ele>26.6</ele>
        <time>2020-06-18T18:05:12Z</time>
      </trkpt>
      <trkpt lat="50.34664" lon="1.67492">
        <ele>26.5</ele>
        <time>2020-06-18T18:05:13Z</time>
      </trkpt>
      <trkpt lat="50.34668" lon="1.67486">
        <ele>26.5</ele>
        <time>2020-06-18T18:05:14Z</time>
      </trkpt>
      <trkpt lat="50.34672" lon="1.6748">
        <ele>26.5</ele>
        <time>2020-06-18T18:05:15Z</time>
      </trkpt>
      <trkpt lat="50.34677" lon="1.67476">
        <ele>26.5</ele>
        <time>2020-06-18T18:05:16Z</time>
      </trkpt>
      <trkpt lat="50.34682" lon="1.6747">
        <ele>26.5</ele>
        <time>2020-06-18T18:05:17Z</time>
      </trkpt>
      <trkpt lat="50.34687" lon="1.67464">
        <ele>26.5</ele>
        <time>2020-06-18T18:05:18Z</time>
      </trkpt>
      <trkpt lat="50.34692" lon="1.67459">
        <ele>26.5</ele>
        <time>2020-06-18T18:05:19Z</time>
      </trkpt>
      <trkpt lat="50.34696" lon="1.67454">
        <ele>26.6</ele>
        <time>2020-06-18T18:05:20Z</time>
      </trkpt>
      <trkpt lat="50.347" lon="1.67449">
        <ele>26.7</ele>
        <time>2020-06-18T18:05:21Z</time>
      </trkpt>
      <trkpt lat="50.34703" lon="1.67444">
        <ele>26.7</ele>
        <time>2020-06-18T18:05:22Z</time>
      </trkpt>
      <trkpt lat="50.34707" lon="1.67439">
        <ele>26.8</ele>
        <time>2020-06-18T18:05:23Z</time>
      </trkpt>
      <trkpt lat="50.34711" lon="1.67433">
        <ele>26.9</ele>
        <time>2020-06-18T18:05:24Z</time>
      </trkpt>
      <trkpt lat="50.34715" lon="1.67426">
        <ele>27</ele>
        <time>2020-06-18T18:05:25Z</time>
      </trkpt>
      <trkpt lat="50.3472" lon="1.6742">
        <ele>27.1</ele>
        <time>2020-06-18T18:05:26Z</time>
      </trkpt>
      <trkpt lat="50.34725" lon="1.67414">
        <ele>27.1</ele>
        <time>2020-06-18T18:05:27Z</time>
      </trkpt>
      <trkpt lat="50.34729" lon="1.67408">
        <ele>27.2</ele>
        <time>2020-06-18T18:05:28Z</time>
      </trkpt>
      <trkpt lat="50.34734" lon="1.67402">
        <ele>27.3</ele>
        <time>2020-06-18T18:05:29Z</time>
      </trkpt>
      <trkpt lat="50.34737" lon="1.67397">
        <ele>27.3</ele>
        <time>2020-06-18T18:05:30Z</time>
      </trkpt>
      <trkpt lat="50.34742" lon="1.67391">
        <ele>27.4</ele>
        <time>2020-06-18T18:05:31Z</time>
      </trkpt>
      <trkpt lat="50.34746" lon="1.67385">
        <ele>27.5</ele>
        <time>2020-06-18T18:05:32Z</time>
      </trkpt>
      <trkpt lat="50.34751" lon="1.67379">
        <ele>27.5</ele>
        <time>2020-06-18T18:05:33Z</time>
      </trkpt>
      <trkpt lat="50.34755" lon="1.67373">
        <ele>27.6</ele>
        <time>2020-06-18T18:05:34Z</time>
      </trkpt>
      <trkpt lat="50.34759" lon="1.67368">
        <ele>27.6</ele>
        <time>2020-06-18T18:05:35Z</time>
      </trkpt>
      <trkpt lat="50.34763" lon="1.67362">
        <ele>27.7</ele>
        <time>2020-06-18T18:05:36Z</time>
      </trkpt>
      <trkpt lat="50.34767" lon="1.67356">
        <ele>27.7</ele>
        <time>2020-06-18T18:05:37Z</time>
      </trkpt>
      <trkpt lat="50.34771" lon="1.6735">
        <ele>27.8</ele>
        <time>2020-06-18T18:05:38Z</time>
      </trkpt>
      <trkpt lat="50.34775" lon="1.67345">
        <ele>27.9</ele>
        <time>2020-06-18T18:05:39Z</time>
      </trkpt>
      <trkpt lat="50.34779" lon="1.6734">
        <ele>27.9</ele>
        <time>2020-06-18T18:05:40Z</time>
      </trkpt>
      <trkpt lat="50.34782" lon="1.67336">
        <ele>28</ele>
        <time>2020-06-18T18:05:41Z</time>
      </trkpt>
      <trkpt lat="50.34785" lon="1.67333">
        <ele>28</ele>
        <time>2020-06-18T18:05:42Z</time>
      </trkpt>
      <trkpt lat="50.34789" lon="1.67329">
        <ele>28.1</ele>
        <time>2020-06-18T18:05:43Z</time>
      </trkpt>
      <trkpt lat="50.34793" lon="1.67325">
        <ele>28.2</ele>
        <time>2020-06-18T18:05:44Z</time>
      </trkpt>
      <trkpt lat="50.34796" lon="1.67322">
        <ele>28.2</ele>
        <time>2020-06-18T18:05:45Z</time>
      </trkpt>
      <trkpt lat="50.34799" lon="1.6732">
        <ele>28.3</ele>
        <time>2020-06-18T18:05:46Z</time>
      </trkpt>
      <trkpt lat="50.34802" lon="1.67318">
        <ele>28.3</ele>
        <time>2020-06-18T18:05:47Z</time>
      </trkpt>
      <trkpt lat="50.34805" lon="1.67315">
        <ele>28.4</ele>
        <time>2020-06-18T18:05:48Z</time>
      </trkpt>
      <trkpt lat="50.34808" lon="1.67312">
        <ele>28.4</ele>
        <time>2020-06-18T18:05:49Z</time>
      </trkpt>
      <trkpt lat="50.3481" lon="1.6731">
        <ele>28.5</ele>
        <time>2020-06-18T18:05:50Z</time>
      </trkpt>
      <trkpt lat="50.34813" lon="1.67306">
        <ele>28.5</ele>
        <time>2020-06-18T18:05:51Z</time>
      </trkpt>
      <trkpt lat="50.34816" lon="1.67303">
        <ele>28.6</ele>
        <time>2020-06-18T18:05:52Z</time>
      </trkpt>
      <trkpt lat="50.3482" lon="1.67301">
        <ele>28.7</ele>
        <time>2020-06-18T18:05:53Z</time>
      </trkpt>
      <trkpt lat="50.34824" lon="1.67299">
        <ele>28.7</ele>
        <time>2020-06-18T18:05:54Z</time>
      </trkpt>
      <trkpt lat="50.34829" lon="1.67296">
        <ele>28.8</ele>
        <time>2020-06-18T18:05:55Z</time>
      </trkpt>
      <trkpt lat="50.34835" lon="1.67292">
        <ele>28.9</ele>
        <time>2020-06-18T18:05:56Z</time>
      </trkpt>
      <trkpt lat="50.3484" lon="1.67288">
        <ele>29</ele>
        <time>2020-06-18T18:05:57Z</time>
      </trkpt>
      <trkpt lat="50.34844" lon="1.67284">
        <ele>29</ele>
        <time>2020-06-18T18:05:58Z</time>
      </trkpt>
      <trkpt lat="50.34847" lon="1.67279">
        <ele>29.1</ele>
        <time>2020-06-18T18:05:59Z</time>
      </trkpt>
      <trkpt lat="50.34851" lon="1.67273">
        <ele>29.2</ele>
        <time>2020-06-18T18:06:00Z</time>
      </trkpt>
      <trkpt lat="50.34856" lon="1.67269">
        <ele>29.3</ele>
        <time>2020-06-18T18:06:01Z</time>
      </trkpt>
      <trkpt lat="50.34859" lon="1.67267">
        <ele>29.4</ele>
        <time>2020-06-18T18:06:02Z</time>
      </trkpt>
      <trkpt lat="50.34863" lon="1.67263">
        <ele>29.5</ele>
        <time>2020-06-18T18:06:03Z</time>
      </trkpt>
      <trkpt lat="50.34868" lon="1.6726">
        <ele>29.6</ele>
        <time>2020-06-18T18:06:04Z</time>
      </trkpt>
      <trkpt lat="50.34871" lon="1.67256">
        <ele>29.6</ele>
        <time>2020-06-18T18:06:05Z</time>
      </trkpt>
      <trkpt lat="50.34875" lon="1.67253">
        <ele>29.7</ele>
        <time>2020-06-18T18:06:06Z</time>
      </trkpt>
      <trkpt lat="50.34879" lon="1.67249">
        <ele>29.8</ele>
        <time>2020-06-18T18:06:07Z</time>
      </trkpt>
      <trkpt lat="50.34882" lon="1.67245">
        <ele>29.9</ele>
        <time>2020-06-18T18:06:08Z</time>
      </trkpt>
      <trkpt lat="50.34887" lon="1.67239">
        <ele>30</ele>
        <time>2020-06-18T18:06:09Z</time>
      </trkpt>
      <trkpt lat="50.34892" lon="1.67233">
        <ele>30.1</ele>
        <time>2020-06-18T18:06:10Z</time>
      </trkpt>
      <trkpt lat="50.34896" lon="1.67228">
        <ele>30.2</ele>
        <time>2020-06-18T18:06:11Z</time>
      </trkpt>
      <trkpt lat="50.349" lon="1.67224">
        <ele>30.3</ele>
        <time>2020-06-18T18:06:12Z</time>
      </trkpt>
      <trkpt lat="50.34905" lon="1.6722">
        <ele>30.4</ele>
        <time>2020-06-18T18:06:13Z</time>
      </trkpt>
      <trkpt lat="50.3491" lon="1.67216">
        <ele>30.5</ele>
        <time>2020-06-18T18:06:14Z</time>
      </trkpt>
      <trkpt lat="50.34914" lon="1.67213">
        <ele>30.5</ele>
        <time>2020-06-18T18:06:15Z</time>
      </trkpt>
      <trkpt lat="50.34919" lon="1.67209">
        <ele>30.6</ele>
        <time>2020-06-18T18:06:16Z</time>
      </trkpt>
      <trkpt lat="50.34923" lon="1.67206">
        <ele>30.7</ele>
        <time>2020-06-18T18:06:17Z</time>
      </trkpt>
      <trkpt lat="50.34927" lon="1.67203">
        <ele>30.7</ele>
        <time>2020-06-18T18:06:18Z</time>
      </trkpt>
      <trkpt lat="50.34931" lon="1.672">
        <ele>30.8</ele>
        <time>2020-06-18T18:06:19Z</time>
      </trkpt>
      <trkpt lat="50.34937" lon="1.67197">
        <ele>30.9</ele>
        <time>2020-06-18T18:06:20Z</time>
      </trkpt>
      <trkpt lat="50.34942" lon="1.67194">
        <ele>31</ele>
        <time>2020-06-18T18:06:21Z</time>
      </trkpt>
      <trkpt lat="50.34947" lon="1.6719">
        <ele>31.1</ele>
        <time>2020-06-18T18:06:22Z</time>
      </trkpt>
      <trkpt lat="50.34953" lon="1.67188">
        <ele>31.1</ele>
        <time>2020-06-18T18:06:23Z</time>
      </trkpt>
      <trkpt lat="50.34958" lon="1.67184">
        <ele>31.2</ele>
        <time>2020-06-18T18:06:24Z</time>
      </trkpt>
      <trkpt lat="50.34963" lon="1.6718">
        <ele>31.3</ele>
        <time>2020-06-18T18:06:25Z</time>
      </trkpt>
      <trkpt lat="50.34968" lon="1.67177">
        <ele>31.4</ele>
        <time>2020-06-18T18:06:26Z</time>
      </trkpt>
      <trkpt lat="50.34972" lon="1.67173">
        <ele>31.5</ele>
        <time>2020-06-18T18:06:27Z</time>
      </trkpt>
      <trkpt lat="50.34978" lon="1.67169">
        <ele>31.6</ele>
        <time>2020-06-18T18:06:28Z</time>
      </trkpt>
      <trkpt lat="50.34983" lon="1.67166">
        <ele>31.7</ele>
        <time>2020-06-18T18:06:29Z</time>
      </trkpt>
      <trkpt lat="50.34988" lon="1.67162">
        <ele>31.8</ele>
        <time>2020-06-18T18:06:30Z</time>
      </trkpt>
      <trkpt lat="50.34992" lon="1.67159">
        <ele>31.9</ele>
        <time>2020-06-18T18:06:31Z</time>
      </trkpt>
      <trkpt lat="50.34997" lon="1.67155">
        <ele>32</ele>
        <time>2020-06-18T18:06:32Z</time>
      </trkpt>
      <trkpt lat="50.35001" lon="1.67152">
        <ele>32</ele>
        <time>2020-06-18T18:06:33Z</time>
      </trkpt>
      <trkpt lat="50.35006" lon="1.67148">
        <ele>32.1</ele>
        <time>2020-06-18T18:06:34Z</time>
      </trkpt>
      <trkpt lat="50.3501" lon="1.67145">
        <ele>32.1</ele>
        <time>2020-06-18T18:06:35Z</time>
      </trkpt>
      <trkpt lat="50.35015" lon="1.67143">
        <ele>32.1</ele>
        <time>2020-06-18T18:06:36Z</time>
      </trkpt>
      <trkpt lat="50.3502" lon="1.6714">
        <ele>32.2</ele>
        <time>2020-06-18T18:06:37Z</time>
      </trkpt>
      <trkpt lat="50.35026" lon="1.67135">
        <ele>32.2</ele>
        <time>2020-06-18T18:06:38Z</time>
      </trkpt>
      <trkpt lat="50.3503" lon="1.67133">
        <ele>32.3</ele>
        <time>2020-06-18T18:06:39Z</time>
      </trkpt>
      <trkpt lat="50.35036" lon="1.67131">
        <ele>32.3</ele>
        <time>2020-06-18T18:06:40Z</time>
      </trkpt>
      <trkpt lat="50.3504" lon="1.67128">
        <ele>32.4</ele>
        <time>2020-06-18T18:06:41Z</time>
      </trkpt>
      <trkpt lat="50.35045" lon="1.67125">
        <ele>32.4</ele>
        <time>2020-06-18T18:06:42Z</time>
      </trkpt>
      <trkpt lat="50.3505" lon="1.67122">
        <ele>32.4</ele>
        <time>2020-06-18T18:06:43Z</time>
      </trkpt>
      <trkpt lat="50.35055" lon="1.67118">
        <ele>32.4</ele>
        <time>2020-06-18T18:06:44Z</time>
      </trkpt>
      <trkpt lat="50.3506" lon="1.67115">
        <ele>32.5</ele>
        <time>2020-06-18T18:06:45Z</time>
      </trkpt>
      <trkpt lat="50.35065" lon="1.67111">
        <ele>32.5</ele>
        <time>2020-06-18T18:06:46Z</time>
      </trkpt>
      <trkpt lat="50.3507" lon="1.67108">
        <ele>32.5</ele>
        <time>2020-06-18T18:06:47Z</time>
      </trkpt>
      <trkpt lat="50.35075" lon="1.67105">
        <ele>32.5</ele>
        <time>2020-06-18T18:06:48Z</time>
      </trkpt>
      <trkpt lat="50.3508" lon="1.67101">
        <ele>32.4</ele>
        <time>2020-06-18T18:06:49Z</time>
      </trkpt>
      <trkpt lat="50.35085" lon="1.67097">
        <ele>32.4</ele>
        <time>2020-06-18T18:06:50Z</time>
      </trkpt>
      <trkpt lat="50.3509" lon="1.67094">
        <ele>32.4</ele>
        <time>2020-06-18T18:06:51Z</time>
      </trkpt>
      <trkpt lat="50.35096" lon="1.6709">
        <ele>32.3</ele>
        <time>2020-06-18T18:06:52Z</time>
      </trkpt>
      <trkpt lat="50.35102" lon="1.67088">
        <ele>32.3</ele>
        <time>2020-06-18T18:06:53Z</time>
      </trkpt>
      <trkpt lat="50.35108" lon="1.67086">
        <ele>32.3</ele>
        <time>2020-06-18T18:06:54Z</time>
      </trkpt>
      <trkpt lat="50.35113" lon="1.67083">
        <ele>32.2</ele>
        <time>2020-06-18T18:06:55Z</time>
      </trkpt>
      <trkpt lat="50.35119" lon="1.67079">
        <ele>32.2</ele>
        <time>2020-06-18T18:06:56Z</time>
      </trkpt>
      <trkpt lat="50.35125" lon="1.67076">
        <ele>32.2</ele>
        <time>2020-06-18T18:06:57Z</time>
      </trkpt>
      <trkpt lat="50.35131" lon="1.67072">
        <ele>32.1</ele>
        <time>2020-06-18T18:06:58Z</time>
      </trkpt>
      <trkpt lat="50.35136" lon="1.67068">
        <ele>32.1</ele>
        <time>2020-06-18T18:06:59Z</time>
      </trkpt>
      <trkpt lat="50.35142" lon="1.67064">
        <ele>32.1</ele>
        <time>2020-06-18T18:07:00Z</time>
      </trkpt>
      <trkpt lat="50.35148" lon="1.67061">
        <ele>32.1</ele>
        <time>2020-06-18T18:07:01Z</time>
      </trkpt>
      <trkpt lat="50.35153" lon="1.67058">
        <ele>32.1</ele>
        <time>2020-06-18T18:07:02Z</time>
      </trkpt>
      <trkpt lat="50.35158" lon="1.67055">
        <ele>32.1</ele>
        <time>2020-06-18T18:07:03Z</time>
      </trkpt>
      <trkpt lat="50.35166" lon="1.67055">
        <ele>32.1</ele>
        <time>2020-06-18T18:07:04Z</time>
      </trkpt>
      <trkpt lat="50.35171" lon="1.67051">
        <ele>32</ele>
        <time>2020-06-18T18:07:05Z</time>
      </trkpt>
      <trkpt lat="50.35177" lon="1.67049">
        <ele>31.9</ele>
        <time>2020-06-18T18:07:06Z</time>
      </trkpt>
      <trkpt lat="50.35182" lon="1.67047">
        <ele>31.9</ele>
        <time>2020-06-18T18:07:07Z</time>
      </trkpt>
      <trkpt lat="50.35188" lon="1.67044">
        <ele>31.8</ele>
        <time>2020-06-18T18:07:08Z</time>
      </trkpt>
      <trkpt lat="50.35194" lon="1.67041">
        <ele>31.7</ele>
        <time>2020-06-18T18:07:09Z</time>
      </trkpt>
      <trkpt lat="50.35197" lon="1.67036">
        <ele>31.6</ele>
        <time>2020-06-18T18:07:10Z</time>
      </trkpt>
      <trkpt lat="50.35202" lon="1.67033">
        <ele>31.6</ele>
        <time>2020-06-18T18:07:11Z</time>
      </trkpt>
      <trkpt lat="50.35207" lon="1.67031">
        <ele>31.6</ele>
        <time>2020-06-18T18:07:12Z</time>
      </trkpt>
      <trkpt lat="50.35211" lon="1.67029">
        <ele>31.5</ele>
        <time>2020-06-18T18:07:13Z</time>
      </trkpt>
      <trkpt lat="50.35216" lon="1.67026">
        <ele>31.5</ele>
        <time>2020-06-18T18:07:14Z</time>
      </trkpt>
      <trkpt lat="50.35221" lon="1.67023">
        <ele>31.4</ele>
        <time>2020-06-18T18:07:15Z</time>
      </trkpt>
      <trkpt lat="50.35226" lon="1.6702">
        <ele>31.4</ele>
        <time>2020-06-18T18:07:16Z</time>
      </trkpt>
      <trkpt lat="50.35231" lon="1.67017">
        <ele>31.3</ele>
        <time>2020-06-18T18:07:17Z</time>
      </trkpt>
      <trkpt lat="50.35236" lon="1.67014">
        <ele>31.3</ele>
        <time>2020-06-18T18:07:18Z</time>
      </trkpt>
      <trkpt lat="50.35242" lon="1.6701">
        <ele>31.2</ele>
        <time>2020-06-18T18:07:19Z</time>
      </trkpt>
      <trkpt lat="50.35247" lon="1.67007">
        <ele>31.1</ele>
        <time>2020-06-18T18:07:20Z</time>
      </trkpt>
      <trkpt lat="50.35252" lon="1.67003">
        <ele>31.1</ele>
        <time>2020-06-18T18:07:21Z</time>
      </trkpt>
      <trkpt lat="50.35258" lon="1.66998">
        <ele>31</ele>
        <time>2020-06-18T18:07:22Z</time>
      </trkpt>
      <trkpt lat="50.35265" lon="1.66993">
        <ele>30.9</ele>
        <time>2020-06-18T18:07:23Z</time>
      </trkpt>
      <trkpt lat="50.35271" lon="1.66988">
        <ele>30.8</ele>
        <time>2020-06-18T18:07:24Z</time>
      </trkpt>
      <trkpt lat="50.35277" lon="1.66983">
        <ele>30.6</ele>
        <time>2020-06-18T18:07:25Z</time>
      </trkpt>
      <trkpt lat="50.35282" lon="1.66977">
        <ele>30.5</ele>
        <time>2020-06-18T18:07:26Z</time>
      </trkpt>
      <trkpt lat="50.35287" lon="1.66972">
        <ele>30.4</ele>
        <time>2020-06-18T18:07:27Z</time>
      </trkpt>
      <trkpt lat="50.35292" lon="1.66967">
        <ele>30.2</ele>
        <time>2020-06-18T18:07:28Z</time>
      </trkpt>
      <trkpt lat="50.35297" lon="1.66962">
        <ele>30</ele>
        <time>2020-06-18T18:07:29Z</time>
      </trkpt>
      <trkpt lat="50.35301" lon="1.66957">
        <ele>29.9</ele>
        <time>2020-06-18T18:07:30Z</time>
      </trkpt>
      <trkpt lat="50.35305" lon="1.66952">
        <ele>29.8</ele>
        <time>2020-06-18T18:07:31Z</time>
      </trkpt>
      <trkpt lat="50.35309" lon="1.66947">
        <ele>29.7</ele>
        <time>2020-06-18T18:07:32Z</time>
      </trkpt>
      <trkpt lat="50.35314" lon="1.66941">
        <ele>29.5</ele>
        <time>2020-06-18T18:07:33Z</time>
      </trkpt>
      <trkpt lat="50.35318" lon="1.66938">
        <ele>29.4</ele>
        <time>2020-06-18T18:07:34Z</time>
      </trkpt>
      <trkpt lat="50.35323" lon="1.66932">
        <ele>29.3</ele>
        <time>2020-06-18T18:07:35Z</time>
      </trkpt>
      <trkpt lat="50.35327" lon="1.66927">
        <ele>29.1</ele>
        <time>2020-06-18T18:07:36Z</time>
      </trkpt>
      <trkpt lat="50.3533" lon="1.66922">
        <ele>29</ele>
        <time>2020-06-18T18:07:37Z</time>
      </trkpt>
      <trkpt lat="50.35334" lon="1.66916">
        <ele>28.9</ele>
        <time>2020-06-18T18:07:38Z</time>
      </trkpt>
      <trkpt lat="50.35339" lon="1.66911">
        <ele>28.8</ele>
        <time>2020-06-18T18:07:39Z</time>
      </trkpt>
      <trkpt lat="50.35343" lon="1.66907">
        <ele>28.6</ele>
        <time>2020-06-18T18:07:40Z</time>
      </trkpt>
      <trkpt lat="50.35347" lon="1.66902">
        <ele>28.5</ele>
        <time>2020-06-18T18:07:41Z</time>
      </trkpt>
      <trkpt lat="50.35352" lon="1.66897">
        <ele>28.3</ele>
        <time>2020-06-18T18:07:42Z</time>
      </trkpt>
      <trkpt lat="50.35356" lon="1.66892">
        <ele>28.2</ele>
        <time>2020-06-18T18:07:43Z</time>
      </trkpt>
      <trkpt lat="50.3536" lon="1.66886">
        <ele>28</ele>
        <time>2020-06-18T18:07:44Z</time>
      </trkpt>
      <trkpt lat="50.35364" lon="1.66881">
        <ele>27.8</ele>
        <time>2020-06-18T18:07:45Z</time>
      </trkpt>
      <trkpt lat="50.35369" lon="1.66875">
        <ele>27.5</ele>
        <time>2020-06-18T18:07:46Z</time>
      </trkpt>
      <trkpt lat="50.35373" lon="1.66869">
        <ele>27.3</ele>
        <time>2020-06-18T18:07:47Z</time>
      </trkpt>
      <trkpt lat="50.35378" lon="1.66863">
        <ele>27.3</ele>
        <time>2020-06-18T18:07:48Z</time>
      </trkpt>
      <trkpt lat="50.35383" lon="1.66858">
        <ele>27.3</ele>
        <time>2020-06-18T18:07:49Z</time>
      </trkpt>
      <trkpt lat="50.35388" lon="1.66852">
        <ele>27.2</ele>
        <time>2020-06-18T18:07:50Z</time>
      </trkpt>
      <trkpt lat="50.35392" lon="1.66846">
        <ele>27</ele>
        <time>2020-06-18T18:07:51Z</time>
      </trkpt>
      <trkpt lat="50.35396" lon="1.6684">
        <ele>26.8</ele>
        <time>2020-06-18T18:07:52Z</time>
      </trkpt>
      <trkpt lat="50.35401" lon="1.66833">
        <ele>26.5</ele>
        <time>2020-06-18T18:07:53Z</time>
      </trkpt>
      <trkpt lat="50.35407" lon="1.66826">
        <ele>26.2</ele>
        <time>2020-06-18T18:07:54Z</time>
      </trkpt>
      <trkpt lat="50.35412" lon="1.66819">
        <ele>25.9</ele>
        <time>2020-06-18T18:07:55Z</time>
      </trkpt>
      <trkpt lat="50.35417" lon="1.66812">
        <ele>25.6</ele>
        <time>2020-06-18T18:07:56Z</time>
      </trkpt>
      <trkpt lat="50.35422" lon="1.66804">
        <ele>25.2</ele>
        <time>2020-06-18T18:07:57Z</time>
      </trkpt>
      <trkpt lat="50.35428" lon="1.66796">
        <ele>24.8</ele>
        <time>2020-06-18T18:07:58Z</time>
      </trkpt>
      <trkpt lat="50.35433" lon="1.66788">
        <ele>24.5</ele>
        <time>2020-06-18T18:07:59Z</time>
      </trkpt>
      <trkpt lat="50.35439" lon="1.66779">
        <ele>24.1</ele>
        <time>2020-06-18T18:08:00Z</time>
      </trkpt>
      <trkpt lat="50.35445" lon="1.66772">
        <ele>23.7</ele>
        <time>2020-06-18T18:08:01Z</time>
      </trkpt>
      <trkpt lat="50.35451" lon="1.66764">
        <ele>23.3</ele>
        <time>2020-06-18T18:08:02Z</time>
      </trkpt>
      <trkpt lat="50.35457" lon="1.66754">
        <ele>22.9</ele>
        <time>2020-06-18T18:08:03Z</time>
      </trkpt>
      <trkpt lat="50.35462" lon="1.66746">
        <ele>22.5</ele>
        <time>2020-06-18T18:08:04Z</time>
      </trkpt>
      <trkpt lat="50.35468" lon="1.66738">
        <ele>22.2</ele>
        <time>2020-06-18T18:08:05Z</time>
      </trkpt>
      <trkpt lat="50.35473" lon="1.66729">
        <ele>21.8</ele>
        <time>2020-06-18T18:08:06Z</time>
      </trkpt>
      <trkpt lat="50.35479" lon="1.66721">
        <ele>21.4</ele>
        <time>2020-06-18T18:08:07Z</time>
      </trkpt>
      <trkpt lat="50.35486" lon="1.66712">
        <ele>21</ele>
        <time>2020-06-18T18:08:08Z</time>
      </trkpt>
      <trkpt lat="50.35492" lon="1.66703">
        <ele>20.7</ele>
        <time>2020-06-18T18:08:09Z</time>
      </trkpt>
      <trkpt lat="50.35497" lon="1.66694">
        <ele>20.3</ele>
        <time>2020-06-18T18:08:10Z</time>
      </trkpt>
      <trkpt lat="50.35503" lon="1.66685">
        <ele>20</ele>
        <time>2020-06-18T18:08:11Z</time>
      </trkpt>
      <trkpt lat="50.35509" lon="1.66676">
        <ele>19.7</ele>
        <time>2020-06-18T18:08:12Z</time>
      </trkpt>
      <trkpt lat="50.35516" lon="1.66668">
        <ele>19.4</ele>
        <time>2020-06-18T18:08:13Z</time>
      </trkpt>
      <trkpt lat="50.35522" lon="1.66659">
        <ele>19.1</ele>
        <time>2020-06-18T18:08:14Z</time>
      </trkpt>
      <trkpt lat="50.3553" lon="1.66652">
        <ele>18.8</ele>
        <time>2020-06-18T18:08:15Z</time>
      </trkpt>
      <trkpt lat="50.35536" lon="1.66645">
        <ele>18.6</ele>
        <time>2020-06-18T18:08:16Z</time>
      </trkpt>
      <trkpt lat="50.35543" lon="1.66636">
        <ele>18.3</ele>
        <time>2020-06-18T18:08:17Z</time>
      </trkpt>
      <trkpt lat="50.35549" lon="1.6663">
        <ele>18.1</ele>
        <time>2020-06-18T18:08:18Z</time>
      </trkpt>
      <trkpt lat="50.35556" lon="1.66623">
        <ele>17.8</ele>
        <time>2020-06-18T18:08:19Z</time>
      </trkpt>
      <trkpt lat="50.35562" lon="1.66616">
        <ele>17.6</ele>
        <time>2020-06-18T18:08:20Z</time>
      </trkpt>
      <trkpt lat="50.35568" lon="1.6661">
        <ele>17.3</ele>
        <time>2020-06-18T18:08:21Z</time>
      </trkpt>
      <trkpt lat="50.35575" lon="1.66605">
        <ele>17.1</ele>
        <time>2020-06-18T18:08:22Z</time>
      </trkpt>
      <trkpt lat="50.35582" lon="1.666">
        <ele>16.9</ele>
        <time>2020-06-18T18:08:23Z</time>
      </trkpt>
      <trkpt lat="50.35589" lon="1.66595">
        <ele>16.7</ele>
        <time>2020-06-18T18:08:24Z</time>
      </trkpt>
      <trkpt lat="50.35595" lon="1.66589">
        <ele>16.5</ele>
        <time>2020-06-18T18:08:25Z</time>
      </trkpt>
      <trkpt lat="50.35602" lon="1.66585">
        <ele>16.3</ele>
        <time>2020-06-18T18:08:26Z</time>
      </trkpt>
      <trkpt lat="50.35609" lon="1.6658">
        <ele>16.1</ele>
        <time>2020-06-18T18:08:27Z</time>
      </trkpt>
      <trkpt lat="50.35616" lon="1.66577">
        <ele>15.8</ele>
        <time>2020-06-18T18:08:28Z</time>
      </trkpt>
      <trkpt lat="50.35623" lon="1.66573">
        <ele>15.6</ele>
        <time>2020-06-18T18:08:29Z</time>
      </trkpt>
      <trkpt lat="50.3563" lon="1.6657">
        <ele>15.4</ele>
        <time>2020-06-18T18:08:30Z</time>
      </trkpt>
      <trkpt lat="50.35637" lon="1.66566">
        <ele>15.2</ele>
        <time>2020-06-18T18:08:31Z</time>
      </trkpt>
      <trkpt lat="50.35644" lon="1.66563">
        <ele>15</ele>
        <time>2020-06-18T18:08:32Z</time>
      </trkpt>
      <trkpt lat="50.35651" lon="1.66559">
        <ele>14.8</ele>
        <time>2020-06-18T18:08:33Z</time>
      </trkpt>
      <trkpt lat="50.35658" lon="1.66555">
        <ele>14.6</ele>
        <time>2020-06-18T18:08:34Z</time>
      </trkpt>
      <trkpt lat="50.35665" lon="1.66552">
        <ele>14.4</ele>
        <time>2020-06-18T18:08:35Z</time>
      </trkpt>
      <trkpt lat="50.35672" lon="1.66549">
        <ele>14.2</ele>
        <time>2020-06-18T18:08:36Z</time>
      </trkpt>
      <trkpt lat="50.35679" lon="1.66546">
        <ele>14</ele>
        <time>2020-06-18T18:08:37Z</time>
      </trkpt>
      <trkpt lat="50.35686" lon="1.66543">
        <ele>13.8</ele>
        <time>2020-06-18T18:08:38Z</time>
      </trkpt>
      <trkpt lat="50.35693" lon="1.66541">
        <ele>13.6</ele>
        <time>2020-06-18T18:08:39Z</time>
      </trkpt>
      <trkpt lat="50.357" lon="1.66539">
        <ele>13.3</ele>
        <time>2020-06-18T18:08:40Z</time>
      </trkpt>
      <trkpt lat="50.35707" lon="1.66535">
        <ele>13.1</ele>
        <time>2020-06-18T18:08:41Z</time>
      </trkpt>
      <trkpt lat="50.35714" lon="1.66532">
        <ele>12.9</ele>
        <time>2020-06-18T18:08:42Z</time>
      </trkpt>
      <trkpt lat="50.35721" lon="1.66528">
        <ele>12.7</ele>
        <time>2020-06-18T18:08:43Z</time>
      </trkpt>
      <trkpt lat="50.35728" lon="1.66525">
        <ele>12.5</ele>
        <time>2020-06-18T18:08:44Z</time>
      </trkpt>
      <trkpt lat="50.35735" lon="1.66522">
        <ele>12.3</ele>
        <time>2020-06-18T18:08:45Z</time>
      </trkpt>
      <trkpt lat="50.35743" lon="1.66518">
        <ele>12.1</ele>
        <time>2020-06-18T18:08:46Z</time>
      </trkpt>
      <trkpt lat="50.3575" lon="1.66516">
        <ele>11.8</ele>
        <time>2020-06-18T18:08:47Z</time>
      </trkpt>
      <trkpt lat="50.35758" lon="1.66514">
        <ele>11.5</ele>
        <time>2020-06-18T18:08:48Z</time>
      </trkpt>
      <trkpt lat="50.35765" lon="1.66511">
        <ele>11.2</ele>
        <time>2020-06-18T18:08:49Z</time>
      </trkpt>
      <trkpt lat="50.35772" lon="1.66509">
        <ele>11</ele>
        <time>2020-06-18T18:08:50Z</time>
      </trkpt>
      <trkpt lat="50.3578" lon="1.66509">
        <ele>10.7</ele>
        <time>2020-06-18T18:08:51Z</time>
      </trkpt>
      <trkpt lat="50.35788" lon="1.66509">
        <ele>10.4</ele>
        <time>2020-06-18T18:08:52Z</time>
      </trkpt>
      <trkpt lat="50.35795" lon="1.6651">
        <ele>10.2</ele>
        <time>2020-06-18T18:08:53Z</time>
      </trkpt>
      <trkpt lat="50.35803" lon="1.6651">
        <ele>10</ele>
        <time>2020-06-18T18:08:54Z</time>
      </trkpt>
      <trkpt lat="50.3581" lon="1.66513">
        <ele>9.7</ele>
        <time>2020-06-18T18:08:55Z</time>
      </trkpt>
      <trkpt lat="50.35818" lon="1.66514">
        <ele>9.5</ele>
        <time>2020-06-18T18:08:56Z</time>
      </trkpt>
      <trkpt lat="50.35826" lon="1.66516">
        <ele>9.2</ele>
        <time>2020-06-18T18:08:57Z</time>
      </trkpt>
      <trkpt lat="50.35833" lon="1.66518">
        <ele>9</ele>
        <time>2020-06-18T18:08:58Z</time>
      </trkpt>
      <trkpt lat="50.35841" lon="1.66519">
        <ele>8.8</ele>
        <time>2020-06-18T18:08:59Z</time>
      </trkpt>
      <trkpt lat="50.3585" lon="1.6652">
        <ele>8.7</ele>
        <time>2020-06-18T18:09:00Z</time>
      </trkpt>
      <trkpt lat="50.35858" lon="1.66522">
        <ele>8.5</ele>
        <time>2020-06-18T18:09:01Z</time>
      </trkpt>
      <trkpt lat="50.35866" lon="1.66523">
        <ele>8.2</ele>
        <time>2020-06-18T18:09:02Z</time>
      </trkpt>
      <trkpt lat="50.35874" lon="1.66525">
        <ele>8</ele>
        <time>2020-06-18T18:09:03Z</time>
      </trkpt>
      <trkpt lat="50.35883" lon="1.66526">
        <ele>7.9</ele>
        <time>2020-06-18T18:09:04Z</time>
      </trkpt>
      <trkpt lat="50.35891" lon="1.66527">
        <ele>7.8</ele>
        <time>2020-06-18T18:09:05Z</time>
      </trkpt>
      <trkpt lat="50.35899" lon="1.66526">
        <ele>7.7</ele>
        <time>2020-06-18T18:09:06Z</time>
      </trkpt>
      <trkpt lat="50.35908" lon="1.66524">
        <ele>7.6</ele>
        <time>2020-06-18T18:09:07Z</time>
      </trkpt>
      <trkpt lat="50.35916" lon="1.66521">
        <ele>7.5</ele>
        <time>2020-06-18T18:09:08Z</time>
      </trkpt>
      <trkpt lat="50.35925" lon="1.66518">
        <ele>7.4</ele>
        <time>2020-06-18T18:09:09Z</time>
      </trkpt>
      <trkpt lat="50.35933" lon="1.66515">
        <ele>7.4</ele>
        <time>2020-06-18T18:09:10Z</time>
      </trkpt>
      <trkpt lat="50.35941" lon="1.66513">
        <ele>7.4</ele>
        <time>2020-06-18T18:09:11Z</time>
      </trkpt>
      <trkpt lat="50.3595" lon="1.66509">
        <ele>7.4</ele>
        <time>2020-06-18T18:09:12Z</time>
      </trkpt>
      <trkpt lat="50.35957" lon="1.66504">
        <ele>7.4</ele>
        <time>2020-06-18T18:09:13Z</time>
      </trkpt>
      <trkpt lat="50.35964" lon="1.66499">
        <ele>7.4</ele>
        <time>2020-06-18T18:09:14Z</time>
      </trkpt>
      <trkpt lat="50.35971" lon="1.66495">
        <ele>7.6</ele>
        <time>2020-06-18T18:09:15Z</time>
      </trkpt>
      <trkpt lat="50.35978" lon="1.6649">
        <ele>7.7</ele>
        <time>2020-06-18T18:09:16Z</time>
      </trkpt>
      <trkpt lat="50.35985" lon="1.66484">
        <ele>7.9</ele>
        <time>2020-06-18T18:09:17Z</time>
      </trkpt>
      <trkpt lat="50.35991" lon="1.66479">
        <ele>8.1</ele>
        <time>2020-06-18T18:09:18Z</time>
      </trkpt>
      <trkpt lat="50.35997" lon="1.66475">
        <ele>8.3</ele>
        <time>2020-06-18T18:09:19Z</time>
      </trkpt>
      <trkpt lat="50.36003" lon="1.6647">
        <ele>8.4</ele>
        <time>2020-06-18T18:09:20Z</time>
      </trkpt>
      <trkpt lat="50.36008" lon="1.66466">
        <ele>8.6</ele>
        <time>2020-06-18T18:09:21Z</time>
      </trkpt>
      <trkpt lat="50.36013" lon="1.66462">
        <ele>8.7</ele>
        <time>2020-06-18T18:09:22Z</time>
      </trkpt>
      <trkpt lat="50.36018" lon="1.66459">
        <ele>8.8</ele>
        <time>2020-06-18T18:09:23Z</time>
      </trkpt>
      <trkpt lat="50.36023" lon="1.66455">
        <ele>8.9</ele>
        <time>2020-06-18T18:09:24Z</time>
      </trkpt>
      <trkpt lat="50.36028" lon="1.66453">
        <ele>8.9</ele>
        <time>2020-06-18T18:09:25Z</time>
      </trkpt>
      <trkpt lat="50.36033" lon="1.66451">
        <ele>8.9</ele>
        <time>2020-06-18T18:09:26Z</time>
      </trkpt>
      <trkpt lat="50.36037" lon="1.66448">
        <ele>9</ele>
        <time>2020-06-18T18:09:27Z</time>
      </trkpt>
      <trkpt lat="50.36042" lon="1.66447">
        <ele>9</ele>
        <time>2020-06-18T18:09:28Z</time>
      </trkpt>
      <trkpt lat="50.36048" lon="1.66446">
        <ele>9</ele>
        <time>2020-06-18T18:09:29Z</time>
      </trkpt>
      <trkpt lat="50.36053" lon="1.66448">
        <ele>9</ele>
        <time>2020-06-18T18:09:30Z</time>
      </trkpt>
      <trkpt lat="50.36059" lon="1.6645">
        <ele>8.9</ele>
        <time>2020-06-18T18:09:31Z</time>
      </trkpt>
      <trkpt lat="50.36065" lon="1.66451">
        <ele>8.9</ele>
        <time>2020-06-18T18:09:32Z</time>
      </trkpt>
      <trkpt lat="50.36071" lon="1.66453">
        <ele>8.9</ele>
        <time>2020-06-18T18:09:33Z</time>
      </trkpt>
      <trkpt lat="50.36077" lon="1.66453">
        <ele>8.8</ele>
        <time>2020-06-18T18:09:34Z</time>
      </trkpt>
      <trkpt lat="50.36084" lon="1.66454">
        <ele>8.8</ele>
        <time>2020-06-18T18:09:35Z</time>
      </trkpt>
      <trkpt lat="50.3609" lon="1.66453">
        <ele>8.7</ele>
        <time>2020-06-18T18:09:36Z</time>
      </trkpt>
      <trkpt lat="50.36097" lon="1.66452">
        <ele>8.7</ele>
        <time>2020-06-18T18:09:37Z</time>
      </trkpt>
      <trkpt lat="50.36103" lon="1.66454">
        <ele>8.7</ele>
        <time>2020-06-18T18:09:38Z</time>
      </trkpt>
      <trkpt lat="50.36111" lon="1.66456">
        <ele>8.7</ele>
        <time>2020-06-18T18:09:39Z</time>
      </trkpt>
      <trkpt lat="50.36119" lon="1.66459">
        <ele>8.6</ele>
        <time>2020-06-18T18:09:40Z</time>
      </trkpt>
      <trkpt lat="50.36127" lon="1.6646">
        <ele>8.6</ele>
        <time>2020-06-18T18:09:41Z</time>
      </trkpt>
      <trkpt lat="50.36137" lon="1.66462">
        <ele>8.5</ele>
        <time>2020-06-18T18:09:42Z</time>
      </trkpt>
      <trkpt lat="50.36146" lon="1.66463">
        <ele>8.5</ele>
        <time>2020-06-18T18:09:43Z</time>
      </trkpt>
      <trkpt lat="50.36155" lon="1.66466">
        <ele>8.5</ele>
        <time>2020-06-18T18:09:44Z</time>
      </trkpt>
      <trkpt lat="50.36164" lon="1.66467">
        <ele>8.5</ele>
        <time>2020-06-18T18:09:45Z</time>
      </trkpt>
      <trkpt lat="50.36173" lon="1.66469">
        <ele>8.4</ele>
        <time>2020-06-18T18:09:46Z</time>
      </trkpt>
      <trkpt lat="50.36182" lon="1.6647">
        <ele>8.4</ele>
        <time>2020-06-18T18:09:47Z</time>
      </trkpt>
      <trkpt lat="50.36191" lon="1.66472">
        <ele>8.3</ele>
        <time>2020-06-18T18:09:48Z</time>
      </trkpt>
      <trkpt lat="50.362" lon="1.66473">
        <ele>8.3</ele>
        <time>2020-06-18T18:09:49Z</time>
      </trkpt>
      <trkpt lat="50.3621" lon="1.66476">
        <ele>8.3</ele>
        <time>2020-06-18T18:09:50Z</time>
      </trkpt>
      <trkpt lat="50.36218" lon="1.66479">
        <ele>8.3</ele>
        <time>2020-06-18T18:09:51Z</time>
      </trkpt>
      <trkpt lat="50.36227" lon="1.6648">
        <ele>8.4</ele>
        <time>2020-06-18T18:09:52Z</time>
      </trkpt>
      <trkpt lat="50.36236" lon="1.66481">
        <ele>8.4</ele>
        <time>2020-06-18T18:09:53Z</time>
      </trkpt>
      <trkpt lat="50.36245" lon="1.66483">
        <ele>8.4</ele>
        <time>2020-06-18T18:09:54Z</time>
      </trkpt>
      <trkpt lat="50.36253" lon="1.66484">
        <ele>8.4</ele>
        <time>2020-06-18T18:09:55Z</time>
      </trkpt>
      <trkpt lat="50.36261" lon="1.66484">
        <ele>8.4</ele>
        <time>2020-06-18T18:09:56Z</time>
      </trkpt>
      <trkpt lat="50.36269" lon="1.66485">
        <ele>8.4</ele>
        <time>2020-06-18T18:09:57Z</time>
      </trkpt>
      <trkpt lat="50.36276" lon="1.66486">
        <ele>8.5</ele>
        <time>2020-06-18T18:09:58Z</time>
      </trkpt>
      <trkpt lat="50.36283" lon="1.66487">
        <ele>8.5</ele>
        <time>2020-06-18T18:09:59Z</time>
      </trkpt>
      <trkpt lat="50.3629" lon="1.66488">
        <ele>8.6</ele>
        <time>2020-06-18T18:10:00Z</time>
      </trkpt>
      <trkpt lat="50.36297" lon="1.6649">
        <ele>8.7</ele>
        <time>2020-06-18T18:10:01Z</time>
      </trkpt>
      <trkpt lat="50.36304" lon="1.66492">
        <ele>8.8</ele>
        <time>2020-06-18T18:10:02Z</time>
      </trkpt>
      <trkpt lat="50.36311" lon="1.66493">
        <ele>8.9</ele>
        <time>2020-06-18T18:10:03Z</time>
      </trkpt>
      <trkpt lat="50.36317" lon="1.66495">
        <ele>9</ele>
        <time>2020-06-18T18:10:04Z</time>
      </trkpt>
      <trkpt lat="50.36324" lon="1.66496">
        <ele>9.2</ele>
        <time>2020-06-18T18:10:05Z</time>
      </trkpt>
      <trkpt lat="50.3633" lon="1.66496">
        <ele>9.3</ele>
        <time>2020-06-18T18:10:06Z</time>
      </trkpt>
      <trkpt lat="50.36337" lon="1.66497">
        <ele>9.4</ele>
        <time>2020-06-18T18:10:07Z</time>
      </trkpt>
      <trkpt lat="50.36343" lon="1.66497">
        <ele>9.5</ele>
        <time>2020-06-18T18:10:08Z</time>
      </trkpt>
      <trkpt lat="50.3635" lon="1.66499">
        <ele>9.6</ele>
        <time>2020-06-18T18:10:09Z</time>
      </trkpt>
      <trkpt lat="50.36355" lon="1.665">
        <ele>9.7</ele>
        <time>2020-06-18T18:10:10Z</time>
      </trkpt>
      <trkpt lat="50.36361" lon="1.66501">
        <ele>9.8</ele>
        <time>2020-06-18T18:10:11Z</time>
      </trkpt>
      <trkpt lat="50.36367" lon="1.66503">
        <ele>9.9</ele>
        <time>2020-06-18T18:10:12Z</time>
      </trkpt>
      <trkpt lat="50.36372" lon="1.66504">
        <ele>10</ele>
        <time>2020-06-18T18:10:13Z</time>
      </trkpt>
      <trkpt lat="50.36378" lon="1.66505">
        <ele>10.1</ele>
        <time>2020-06-18T18:10:14Z</time>
      </trkpt>
      <trkpt lat="50.36384" lon="1.66507">
        <ele>10.2</ele>
        <time>2020-06-18T18:10:15Z</time>
      </trkpt>
      <trkpt lat="50.3639" lon="1.66508">
        <ele>10.3</ele>
        <time>2020-06-18T18:10:16Z</time>
      </trkpt>
      <trkpt lat="50.36395" lon="1.66508">
        <ele>10.3</ele>
        <time>2020-06-18T18:10:17Z</time>
      </trkpt>
      <trkpt lat="50.36401" lon="1.66507">
        <ele>10.3</ele>
        <time>2020-06-18T18:10:18Z</time>
      </trkpt>
      <trkpt lat="50.36406" lon="1.66507">
        <ele>10.4</ele>
        <time>2020-06-18T18:10:19Z</time>
      </trkpt>
      <trkpt lat="50.36412" lon="1.66508">
        <ele>10.4</ele>
        <time>2020-06-18T18:10:20Z</time>
      </trkpt>
      <trkpt lat="50.36418" lon="1.66509">
        <ele>10.5</ele>
        <time>2020-06-18T18:10:21Z</time>
      </trkpt>
      <trkpt lat="50.36423" lon="1.6651">
        <ele>10.6</ele>
        <time>2020-06-18T18:10:22Z</time>
      </trkpt>
      <trkpt lat="50.36429" lon="1.6651">
        <ele>10.6</ele>
        <time>2020-06-18T18:10:23Z</time>
      </trkpt>
      <trkpt lat="50.36434" lon="1.6651">
        <ele>10.7</ele>
        <time>2020-06-18T18:10:24Z</time>
      </trkpt>
      <trkpt lat="50.36441" lon="1.66511">
        <ele>10.7</ele>
        <time>2020-06-18T18:10:25Z</time>
      </trkpt>
      <trkpt lat="50.36449" lon="1.66512">
        <ele>10.8</ele>
        <time>2020-06-18T18:10:26Z</time>
      </trkpt>
      <trkpt lat="50.36455" lon="1.66513">
        <ele>10.9</ele>
        <time>2020-06-18T18:10:27Z</time>
      </trkpt>
      <trkpt lat="50.36462" lon="1.66513">
        <ele>10.9</ele>
        <time>2020-06-18T18:10:28Z</time>
      </trkpt>
      <trkpt lat="50.36468" lon="1.66514">
        <ele>11</ele>
        <time>2020-06-18T18:10:29Z</time>
      </trkpt>
      <trkpt lat="50.36473" lon="1.66514">
        <ele>11</ele>
        <time>2020-06-18T18:10:30Z</time>
      </trkpt>
      <trkpt lat="50.36477" lon="1.66514">
        <ele>11.1</ele>
        <time>2020-06-18T18:10:31Z</time>
      </trkpt>
      <trkpt lat="50.36482" lon="1.66512">
        <ele>11.1</ele>
        <time>2020-06-18T18:10:32Z</time>
      </trkpt>
      <trkpt lat="50.36488" lon="1.66513">
        <ele>11.2</ele>
        <time>2020-06-18T18:10:33Z</time>
      </trkpt>
      <trkpt lat="50.36494" lon="1.66513">
        <ele>11.2</ele>
        <time>2020-06-18T18:10:34Z</time>
      </trkpt>
      <trkpt lat="50.365" lon="1.66515">
        <ele>11.3</ele>
        <time>2020-06-18T18:10:35Z</time>
      </trkpt>
      <trkpt lat="50.36505" lon="1.66516">
        <ele>11.3</ele>
        <time>2020-06-18T18:10:36Z</time>
      </trkpt>
      <trkpt lat="50.36511" lon="1.66516">
        <ele>11.4</ele>
        <time>2020-06-18T18:10:37Z</time>
      </trkpt>
      <trkpt lat="50.36517" lon="1.66516">
        <ele>11.4</ele>
        <time>2020-06-18T18:10:38Z</time>
      </trkpt>
      <trkpt lat="50.36521" lon="1.66516">
        <ele>11.4</ele>
        <time>2020-06-18T18:10:39Z</time>
      </trkpt>
      <trkpt lat="50.36525" lon="1.66515">
        <ele>11.4</ele>
        <time>2020-06-18T18:10:40Z</time>
      </trkpt>
      <trkpt lat="50.3653" lon="1.66515">
        <ele>11.5</ele>
        <time>2020-06-18T18:10:41Z</time>
      </trkpt>
      <trkpt lat="50.36535" lon="1.66513">
        <ele>11.5</ele>
        <time>2020-06-18T18:10:42Z</time>
      </trkpt>
      <trkpt lat="50.36539" lon="1.66511">
        <ele>11.6</ele>
        <time>2020-06-18T18:10:43Z</time>
      </trkpt>
      <trkpt lat="50.36542" lon="1.6651">
        <ele>11.6</ele>
        <time>2020-06-18T18:10:44Z</time>
      </trkpt>
      <trkpt lat="50.36546" lon="1.6651">
        <ele>11.6</ele>
        <time>2020-06-18T18:10:45Z</time>
      </trkpt>
      <trkpt lat="50.3655" lon="1.66507">
        <ele>11.6</ele>
        <time>2020-06-18T18:10:46Z</time>
      </trkpt>
      <trkpt lat="50.36555" lon="1.66507">
        <ele>11.6</ele>
        <time>2020-06-18T18:10:47Z</time>
      </trkpt>
      <trkpt lat="50.36558" lon="1.66507">
        <ele>11.6</ele>
        <time>2020-06-18T18:10:48Z</time>
      </trkpt>
      <trkpt lat="50.36563" lon="1.66507">
        <ele>11.6</ele>
        <time>2020-06-18T18:10:49Z</time>
      </trkpt>
      <trkpt lat="50.36567" lon="1.66507">
        <ele>11.5</ele>
        <time>2020-06-18T18:10:50Z</time>
      </trkpt>
      <trkpt lat="50.36571" lon="1.66506">
        <ele>11.5</ele>
        <time>2020-06-18T18:10:51Z</time>
      </trkpt>
      <trkpt lat="50.36575" lon="1.66505">
        <ele>11.4</ele>
        <time>2020-06-18T18:10:52Z</time>
      </trkpt>
      <trkpt lat="50.36578" lon="1.66503">
        <ele>11.4</ele>
        <time>2020-06-18T18:10:53Z</time>
      </trkpt>
      <trkpt lat="50.36583" lon="1.66502">
        <ele>11.3</ele>
        <time>2020-06-18T18:10:54Z</time>
      </trkpt>
      <trkpt lat="50.36587" lon="1.66501">
        <ele>11.2</ele>
        <time>2020-06-18T18:10:55Z</time>
      </trkpt>
      <trkpt lat="50.36592" lon="1.66501">
        <ele>11.1</ele>
        <time>2020-06-18T18:10:56Z</time>
      </trkpt>
      <trkpt lat="50.36597" lon="1.665">
        <ele>11</ele>
        <time>2020-06-18T18:10:57Z</time>
      </trkpt>
      <trkpt lat="50.36603" lon="1.665">
        <ele>10.9</ele>
        <time>2020-06-18T18:10:58Z</time>
      </trkpt>
      <trkpt lat="50.36609" lon="1.66499">
        <ele>10.8</ele>
        <time>2020-06-18T18:10:59Z</time>
      </trkpt>
      <trkpt lat="50.36614" lon="1.66498">
        <ele>10.6</ele>
        <time>2020-06-18T18:11:00Z</time>
      </trkpt>
      <trkpt lat="50.3662" lon="1.66496">
        <ele>10.5</ele>
        <time>2020-06-18T18:11:01Z</time>
      </trkpt>
      <trkpt lat="50.36626" lon="1.66496">
        <ele>10.3</ele>
        <time>2020-06-18T18:11:02Z</time>
      </trkpt>
      <trkpt lat="50.36633" lon="1.66496">
        <ele>10.2</ele>
        <time>2020-06-18T18:11:03Z</time>
      </trkpt>
      <trkpt lat="50.36639" lon="1.66497">
        <ele>10</ele>
        <time>2020-06-18T18:11:04Z</time>
      </trkpt>
      <trkpt lat="50.36644" lon="1.66496">
        <ele>9.7</ele>
        <time>2020-06-18T18:11:05Z</time>
      </trkpt>
      <trkpt lat="50.36651" lon="1.66496">
        <ele>9.4</ele>
        <time>2020-06-18T18:11:06Z</time>
      </trkpt>
      <trkpt lat="50.36659" lon="1.66496">
        <ele>9.2</ele>
        <time>2020-06-18T18:11:07Z</time>
      </trkpt>
      <trkpt lat="50.36667" lon="1.66494">
        <ele>9</ele>
        <time>2020-06-18T18:11:08Z</time>
      </trkpt>
      <trkpt lat="50.36674" lon="1.66494">
        <ele>8.8</ele>
        <time>2020-06-18T18:11:09Z</time>
      </trkpt>
      <trkpt lat="50.36681" lon="1.66494">
        <ele>8.5</ele>
        <time>2020-06-18T18:11:10Z</time>
      </trkpt>
      <trkpt lat="50.36689" lon="1.66494">
        <ele>8.3</ele>
        <time>2020-06-18T18:11:11Z</time>
      </trkpt>
      <trkpt lat="50.36697" lon="1.66494">
        <ele>8.1</ele>
        <time>2020-06-18T18:11:12Z</time>
      </trkpt>
      <trkpt lat="50.36704" lon="1.66494">
        <ele>7.9</ele>
        <time>2020-06-18T18:11:13Z</time>
      </trkpt>
      <trkpt lat="50.36711" lon="1.66494">
        <ele>7.8</ele>
        <time>2020-06-18T18:11:14Z</time>
      </trkpt>
      <trkpt lat="50.36718" lon="1.66494">
        <ele>7.6</ele>
        <time>2020-06-18T18:11:15Z</time>
      </trkpt>
      <trkpt lat="50.36725" lon="1.66493">
        <ele>7.5</ele>
        <time>2020-06-18T18:11:16Z</time>
      </trkpt>
      <trkpt lat="50.36732" lon="1.66494">
        <ele>7.3</ele>
        <time>2020-06-18T18:11:17Z</time>
      </trkpt>
      <trkpt lat="50.36739" lon="1.66494">
        <ele>7.1</ele>
        <time>2020-06-18T18:11:18Z</time>
      </trkpt>
      <trkpt lat="50.36746" lon="1.66493">
        <ele>6.9</ele>
        <time>2020-06-18T18:11:19Z</time>
      </trkpt>
      <trkpt lat="50.36753" lon="1.66493">
        <ele>6.8</ele>
        <time>2020-06-18T18:11:20Z</time>
      </trkpt>
      <trkpt lat="50.3676" lon="1.66494">
        <ele>6.6</ele>
        <time>2020-06-18T18:11:21Z</time>
      </trkpt>
      <trkpt lat="50.36767" lon="1.66493">
        <ele>6.6</ele>
        <time>2020-06-18T18:11:22Z</time>
      </trkpt>
      <trkpt lat="50.36773" lon="1.66492">
        <ele>6.5</ele>
        <time>2020-06-18T18:11:23Z</time>
      </trkpt>
      <trkpt lat="50.3678" lon="1.66491">
        <ele>6.4</ele>
        <time>2020-06-18T18:11:24Z</time>
      </trkpt>
      <trkpt lat="50.36788" lon="1.66489">
        <ele>6.4</ele>
        <time>2020-06-18T18:11:25Z</time>
      </trkpt>
      <trkpt lat="50.36795" lon="1.66487">
        <ele>6.4</ele>
        <time>2020-06-18T18:11:26Z</time>
      </trkpt>
      <trkpt lat="50.36802" lon="1.66485">
        <ele>6.3</ele>
        <time>2020-06-18T18:11:27Z</time>
      </trkpt>
      <trkpt lat="50.36809" lon="1.66483">
        <ele>6.3</ele>
        <time>2020-06-18T18:11:28Z</time>
      </trkpt>
      <trkpt lat="50.36816" lon="1.6648">
        <ele>6.3</ele>
        <time>2020-06-18T18:11:29Z</time>
      </trkpt>
      <trkpt lat="50.36823" lon="1.66477">
        <ele>6.3</ele>
        <time>2020-06-18T18:11:30Z</time>
      </trkpt>
      <trkpt lat="50.3683" lon="1.66474">
        <ele>6.2</ele>
        <time>2020-06-18T18:11:31Z</time>
      </trkpt>
      <trkpt lat="50.36837" lon="1.66472">
        <ele>6.2</ele>
        <time>2020-06-18T18:11:32Z</time>
      </trkpt>
      <trkpt lat="50.36844" lon="1.6647">
        <ele>6.2</ele>
        <time>2020-06-18T18:11:33Z</time>
      </trkpt>
      <trkpt lat="50.36851" lon="1.66468">
        <ele>6.2</ele>
        <time>2020-06-18T18:11:34Z</time>
      </trkpt>
      <trkpt lat="50.36858" lon="1.66466">
        <ele>6.2</ele>
        <time>2020-06-18T18:11:35Z</time>
      </trkpt>
      <trkpt lat="50.36866" lon="1.66463">
        <ele>6.2</ele>
        <time>2020-06-18T18:11:36Z</time>
      </trkpt>
      <trkpt lat="50.36873" lon="1.66461">
        <ele>6.2</ele>
        <time>2020-06-18T18:11:37Z</time>
      </trkpt>
      <trkpt lat="50.36881" lon="1.66459">
        <ele>6.2</ele>
        <time>2020-06-18T18:11:38Z</time>
      </trkpt>
      <trkpt lat="50.36889" lon="1.66457">
        <ele>6.2</ele>
        <time>2020-06-18T18:11:39Z</time>
      </trkpt>
      <trkpt lat="50.36896" lon="1.66454">
        <ele>6.2</ele>
        <time>2020-06-18T18:11:40Z</time>
      </trkpt>
      <trkpt lat="50.36903" lon="1.66452">
        <ele>6.2</ele>
        <time>2020-06-18T18:11:41Z</time>
      </trkpt>
      <trkpt lat="50.3691" lon="1.66451">
        <ele>6.2</ele>
        <time>2020-06-18T18:11:42Z</time>
      </trkpt>
      <trkpt lat="50.36917" lon="1.6645">
        <ele>6.2</ele>
        <time>2020-06-18T18:11:43Z</time>
      </trkpt>
      <trkpt lat="50.36924" lon="1.66448">
        <ele>6.2</ele>
        <time>2020-06-18T18:11:44Z</time>
      </trkpt>
      <trkpt lat="50.3693" lon="1.66447">
        <ele>6.1</ele>
        <time>2020-06-18T18:11:45Z</time>
      </trkpt>
      <trkpt lat="50.36937" lon="1.66445">
        <ele>6.1</ele>
        <time>2020-06-18T18:11:46Z</time>
      </trkpt>
      <trkpt lat="50.36944" lon="1.66443">
        <ele>6.1</ele>
        <time>2020-06-18T18:11:47Z</time>
      </trkpt>
      <trkpt lat="50.36951" lon="1.66441">
        <ele>6.1</ele>
        <time>2020-06-18T18:11:48Z</time>
      </trkpt>
      <trkpt lat="50.36958" lon="1.6644">
        <ele>6.2</ele>
        <time>2020-06-18T18:11:49Z</time>
      </trkpt>
      <trkpt lat="50.36965" lon="1.66439">
        <ele>6.2</ele>
        <time>2020-06-18T18:11:50Z</time>
      </trkpt>
      <trkpt lat="50.36972" lon="1.66437">
        <ele>6.2</ele>
        <time>2020-06-18T18:11:51Z</time>
      </trkpt>
      <trkpt lat="50.36978" lon="1.66436">
        <ele>6.2</ele>
        <time>2020-06-18T18:11:52Z</time>
      </trkpt>
      <trkpt lat="50.36985" lon="1.66434">
        <ele>6.3</ele>
        <time>2020-06-18T18:11:53Z</time>
      </trkpt>
      <trkpt lat="50.36992" lon="1.66433">
        <ele>6.3</ele>
        <time>2020-06-18T18:11:54Z</time>
      </trkpt>
      <trkpt lat="50.36999" lon="1.66431">
        <ele>6.3</ele>
        <time>2020-06-18T18:11:55Z</time>
      </trkpt>
      <trkpt lat="50.37006" lon="1.66429">
        <ele>6.4</ele>
        <time>2020-06-18T18:11:56Z</time>
      </trkpt>
      <trkpt lat="50.37012" lon="1.66428">
        <ele>6.4</ele>
        <time>2020-06-18T18:11:57Z</time>
      </trkpt>
      <trkpt lat="50.37018" lon="1.66426">
        <ele>6.5</ele>
        <time>2020-06-18T18:11:58Z</time>
      </trkpt>
      <trkpt lat="50.37025" lon="1.66424">
        <ele>6.5</ele>
        <time>2020-06-18T18:11:59Z</time>
      </trkpt>
      <trkpt lat="50.37031" lon="1.66424">
        <ele>6.6</ele>
        <time>2020-06-18T18:12:00Z</time>
      </trkpt>
      <trkpt lat="50.37036" lon="1.66421">
        <ele>6.7</ele>
        <time>2020-06-18T18:12:01Z</time>
      </trkpt>
      <trkpt lat="50.37041" lon="1.66419">
        <ele>6.7</ele>
        <time>2020-06-18T18:12:02Z</time>
      </trkpt>
      <trkpt lat="50.37046" lon="1.66417">
        <ele>6.8</ele>
        <time>2020-06-18T18:12:03Z</time>
      </trkpt>
      <trkpt lat="50.37051" lon="1.66415">
        <ele>6.9</ele>
        <time>2020-06-18T18:12:04Z</time>
      </trkpt>
      <trkpt lat="50.37056" lon="1.66413">
        <ele>6.9</ele>
        <time>2020-06-18T18:12:05Z</time>
      </trkpt>
      <trkpt lat="50.3706" lon="1.66412">
        <ele>6.9</ele>
        <time>2020-06-18T18:12:06Z</time>
      </trkpt>
      <trkpt lat="50.37064" lon="1.6641">
        <ele>6.9</ele>
        <time>2020-06-18T18:12:07Z</time>
      </trkpt>
      <trkpt lat="50.37068" lon="1.66408">
        <ele>6.9</ele>
        <time>2020-06-18T18:12:08Z</time>
      </trkpt>
      <trkpt lat="50.37072" lon="1.66405">
        <ele>6.9</ele>
        <time>2020-06-18T18:12:09Z</time>
      </trkpt>
      <trkpt lat="50.37076" lon="1.66403">
        <ele>7</ele>
        <time>2020-06-18T18:12:10Z</time>
      </trkpt>
      <trkpt lat="50.37079" lon="1.66401">
        <ele>6.9</ele>
        <time>2020-06-18T18:12:11Z</time>
      </trkpt>
      <trkpt lat="50.37082" lon="1.66398">
        <ele>6.8</ele>
        <time>2020-06-18T18:12:12Z</time>
      </trkpt>
      <trkpt lat="50.37085" lon="1.66395">
        <ele>6.7</ele>
        <time>2020-06-18T18:12:13Z</time>
      </trkpt>
      <trkpt lat="50.37088" lon="1.66392">
        <ele>6.6</ele>
        <time>2020-06-18T18:12:14Z</time>
      </trkpt>
      <trkpt lat="50.37092" lon="1.66391">
        <ele>6.6</ele>
        <time>2020-06-18T18:12:15Z</time>
      </trkpt>
      <trkpt lat="50.37095" lon="1.66389">
        <ele>6.5</ele>
        <time>2020-06-18T18:12:16Z</time>
      </trkpt>
      <trkpt lat="50.37098" lon="1.66388">
        <ele>6.5</ele>
        <time>2020-06-18T18:12:17Z</time>
      </trkpt>
      <trkpt lat="50.37102" lon="1.66387">
        <ele>6.4</ele>
        <time>2020-06-18T18:12:18Z</time>
      </trkpt>
      <trkpt lat="50.37105" lon="1.66383">
        <ele>6.4</ele>
        <time>2020-06-18T18:12:19Z</time>
      </trkpt>
      <trkpt lat="50.37108" lon="1.6638">
        <ele>6.3</ele>
        <time>2020-06-18T18:12:20Z</time>
      </trkpt>
      <trkpt lat="50.37111" lon="1.66376">
        <ele>6.3</ele>
        <time>2020-06-18T18:12:21Z</time>
      </trkpt>
      <trkpt lat="50.37114" lon="1.66374">
        <ele>6.3</ele>
        <time>2020-06-18T18:12:22Z</time>
      </trkpt>
      <trkpt lat="50.37117" lon="1.66373">
        <ele>6.2</ele>
        <time>2020-06-18T18:12:23Z</time>
      </trkpt>
      <trkpt lat="50.37121" lon="1.6637">
        <ele>6.2</ele>
        <time>2020-06-18T18:12:24Z</time>
      </trkpt>
      <trkpt lat="50.37125" lon="1.66368">
        <ele>6.2</ele>
        <time>2020-06-18T18:12:25Z</time>
      </trkpt>
      <trkpt lat="50.37129" lon="1.66365">
        <ele>6.3</ele>
        <time>2020-06-18T18:12:26Z</time>
      </trkpt>
      <trkpt lat="50.37134" lon="1.66362">
        <ele>6.3</ele>
        <time>2020-06-18T18:12:27Z</time>
      </trkpt>
      <trkpt lat="50.37139" lon="1.66358">
        <ele>6.3</ele>
        <time>2020-06-18T18:12:28Z</time>
      </trkpt>
      <trkpt lat="50.37143" lon="1.66354">
        <ele>6.3</ele>
        <time>2020-06-18T18:12:29Z</time>
      </trkpt>
      <trkpt lat="50.37149" lon="1.66351">
        <ele>6.3</ele>
        <time>2020-06-18T18:12:30Z</time>
      </trkpt>
      <trkpt lat="50.37154" lon="1.66348">
        <ele>6.4</ele>
        <time>2020-06-18T18:12:31Z</time>
      </trkpt>
      <trkpt lat="50.37159" lon="1.66344">
        <ele>6.4</ele>
        <time>2020-06-18T18:12:32Z</time>
      </trkpt>
      <trkpt lat="50.37164" lon="1.66341">
        <ele>6.4</ele>
        <time>2020-06-18T18:12:33Z</time>
      </trkpt>
      <trkpt lat="50.37169" lon="1.66337">
        <ele>6.5</ele>
        <time>2020-06-18T18:12:34Z</time>
      </trkpt>
      <trkpt lat="50.37174" lon="1.66334">
        <ele>6.5</ele>
        <time>2020-06-18T18:12:35Z</time>
      </trkpt>
      <trkpt lat="50.37179" lon="1.6633">
        <ele>6.5</ele>
        <time>2020-06-18T18:12:36Z</time>
      </trkpt>
      <trkpt lat="50.37184" lon="1.66325">
        <ele>6.5</ele>
        <time>2020-06-18T18:12:37Z</time>
      </trkpt>
      <trkpt lat="50.3719" lon="1.6632">
        <ele>6.6</ele>
        <time>2020-06-18T18:12:38Z</time>
      </trkpt>
      <trkpt lat="50.37195" lon="1.66313">
        <ele>6.6</ele>
        <time>2020-06-18T18:12:39Z</time>
      </trkpt>
      <trkpt lat="50.372" lon="1.66307">
        <ele>6.7</ele>
        <time>2020-06-18T18:12:40Z</time>
      </trkpt>
      <trkpt lat="50.37204" lon="1.66301">
        <ele>6.7</ele>
        <time>2020-06-18T18:12:41Z</time>
      </trkpt>
      <trkpt lat="50.37208" lon="1.66296">
        <ele>6.7</ele>
        <time>2020-06-18T18:12:42Z</time>
      </trkpt>
      <trkpt lat="50.37212" lon="1.66289">
        <ele>6.8</ele>
        <time>2020-06-18T18:12:43Z</time>
      </trkpt>
      <trkpt lat="50.37215" lon="1.66284">
        <ele>6.8</ele>
        <time>2020-06-18T18:12:44Z</time>
      </trkpt>
      <trkpt lat="50.37218" lon="1.66279">
        <ele>6.8</ele>
        <time>2020-06-18T18:12:45Z</time>
      </trkpt>
      <trkpt lat="50.37222" lon="1.66274">
        <ele>6.8</ele>
        <time>2020-06-18T18:12:46Z</time>
      </trkpt>
      <trkpt lat="50.37226" lon="1.66269">
        <ele>6.9</ele>
        <time>2020-06-18T18:12:47Z</time>
      </trkpt>
      <trkpt lat="50.3723" lon="1.66265">
        <ele>6.9</ele>
        <time>2020-06-18T18:12:48Z</time>
      </trkpt>
      <trkpt lat="50.37234" lon="1.66261">
        <ele>7</ele>
        <time>2020-06-18T18:12:49Z</time>
      </trkpt>
      <trkpt lat="50.37238" lon="1.66256">
        <ele>7</ele>
        <time>2020-06-18T18:12:50Z</time>
      </trkpt>
      <trkpt lat="50.37242" lon="1.66252">
        <ele>7.1</ele>
        <time>2020-06-18T18:12:51Z</time>
      </trkpt>
      <trkpt lat="50.37247" lon="1.66246">
        <ele>7.1</ele>
        <time>2020-06-18T18:12:52Z</time>
      </trkpt>
      <trkpt lat="50.37251" lon="1.66242">
        <ele>7.2</ele>
        <time>2020-06-18T18:12:53Z</time>
      </trkpt>
      <trkpt lat="50.37257" lon="1.66235">
        <ele>7.3</ele>
        <time>2020-06-18T18:12:54Z</time>
      </trkpt>
      <trkpt lat="50.37262" lon="1.66231">
        <ele>7.3</ele>
        <time>2020-06-18T18:12:55Z</time>
      </trkpt>
      <trkpt lat="50.37265" lon="1.66228">
        <ele>7.4</ele>
        <time>2020-06-18T18:12:56Z</time>
      </trkpt>
      <trkpt lat="50.3727" lon="1.66224">
        <ele>7.4</ele>
        <time>2020-06-18T18:12:57Z</time>
      </trkpt>
      <trkpt lat="50.37275" lon="1.6622">
        <ele>7.5</ele>
        <time>2020-06-18T18:12:58Z</time>
      </trkpt>
      <trkpt lat="50.37279" lon="1.66216">
        <ele>7.5</ele>
        <time>2020-06-18T18:12:59Z</time>
      </trkpt>
      <trkpt lat="50.37284" lon="1.66212">
        <ele>7.6</ele>
        <time>2020-06-18T18:13:00Z</time>
      </trkpt>
      <trkpt lat="50.37289" lon="1.66208">
        <ele>7.7</ele>
        <time>2020-06-18T18:13:01Z</time>
      </trkpt>
      <trkpt lat="50.37295" lon="1.66208">
        <ele>7.8</ele>
        <time>2020-06-18T18:13:02Z</time>
      </trkpt>
      <trkpt lat="50.373" lon="1.66205">
        <ele>7.9</ele>
        <time>2020-06-18T18:13:03Z</time>
      </trkpt>
      <trkpt lat="50.37305" lon="1.66201">
        <ele>8</ele>
        <time>2020-06-18T18:13:04Z</time>
      </trkpt>
      <trkpt lat="50.3731" lon="1.662">
        <ele>8.1</ele>
        <time>2020-06-18T18:13:05Z</time>
      </trkpt>
      <trkpt lat="50.37314" lon="1.66198">
        <ele>8.2</ele>
        <time>2020-06-18T18:13:06Z</time>
      </trkpt>
      <trkpt lat="50.37319" lon="1.66196">
        <ele>8.3</ele>
        <time>2020-06-18T18:13:07Z</time>
      </trkpt>
      <trkpt lat="50.37324" lon="1.66193">
        <ele>8.5</ele>
        <time>2020-06-18T18:13:08Z</time>
      </trkpt>
      <trkpt lat="50.37328" lon="1.6619">
        <ele>8.6</ele>
        <time>2020-06-18T18:13:09Z</time>
      </trkpt>
      <trkpt lat="50.37331" lon="1.66187">
        <ele>8.7</ele>
        <time>2020-06-18T18:13:10Z</time>
      </trkpt>
      <trkpt lat="50.37333" lon="1.66183">
        <ele>8.8</ele>
        <time>2020-06-18T18:13:11Z</time>
      </trkpt>
      <trkpt lat="50.37331" lon="1.66174">
        <ele>8.7</ele>
        <time>2020-06-18T18:13:12Z</time>
      </trkpt>
      <trkpt lat="50.3733" lon="1.66166">
        <ele>8.7</ele>
        <time>2020-06-18T18:13:13Z</time>
      </trkpt>
      <trkpt lat="50.37329" lon="1.6616">
        <ele>8.7</ele>
        <time>2020-06-18T18:13:14Z</time>
      </trkpt>
      <trkpt lat="50.37328" lon="1.66154">
        <ele>8.7</ele>
        <time>2020-06-18T18:13:15Z</time>
      </trkpt>
      <trkpt lat="50.37327" lon="1.66148">
        <ele>8.7</ele>
        <time>2020-06-18T18:13:16Z</time>
      </trkpt>
      <trkpt lat="50.37325" lon="1.66142">
        <ele>8.7</ele>
        <time>2020-06-18T18:13:17Z</time>
      </trkpt>
      <trkpt lat="50.37323" lon="1.66136">
        <ele>8.7</ele>
        <time>2020-06-18T18:13:18Z</time>
      </trkpt>
      <trkpt lat="50.37321" lon="1.6613">
        <ele>8.7</ele>
        <time>2020-06-18T18:13:19Z</time>
      </trkpt>
      <trkpt lat="50.3732" lon="1.66124">
        <ele>8.7</ele>
        <time>2020-06-18T18:13:20Z</time>
      </trkpt>
      <trkpt lat="50.37318" lon="1.66116">
        <ele>8.7</ele>
        <time>2020-06-18T18:13:21Z</time>
      </trkpt>
      <trkpt lat="50.37316" lon="1.66109">
        <ele>8.7</ele>
        <time>2020-06-18T18:13:22Z</time>
      </trkpt>
      <trkpt lat="50.37315" lon="1.66102">
        <ele>8.8</ele>
        <time>2020-06-18T18:13:23Z</time>
      </trkpt>
      <trkpt lat="50.37314" lon="1.66096">
        <ele>8.8</ele>
        <time>2020-06-18T18:13:24Z</time>
      </trkpt>
      <trkpt lat="50.37312" lon="1.6609">
        <ele>8.9</ele>
        <time>2020-06-18T18:13:25Z</time>
      </trkpt>
      <trkpt lat="50.37311" lon="1.66083">
        <ele>8.9</ele>
        <time>2020-06-18T18:13:26Z</time>
      </trkpt>
      <trkpt lat="50.3731" lon="1.66077">
        <ele>9</ele>
        <time>2020-06-18T18:13:27Z</time>
      </trkpt>
      <trkpt lat="50.37309" lon="1.6607">
        <ele>9.1</ele>
        <time>2020-06-18T18:13:28Z</time>
      </trkpt>
      <trkpt lat="50.37307" lon="1.66065">
        <ele>9.1</ele>
        <time>2020-06-18T18:13:29Z</time>
      </trkpt>
      <trkpt lat="50.37306" lon="1.66059">
        <ele>9.2</ele>
        <time>2020-06-18T18:13:30Z</time>
      </trkpt>
      <trkpt lat="50.37305" lon="1.66054">
        <ele>9.2</ele>
        <time>2020-06-18T18:13:31Z</time>
      </trkpt>
      <trkpt lat="50.37306" lon="1.6605">
        <ele>9.1</ele>
        <time>2020-06-18T18:13:32Z</time>
      </trkpt>
      <trkpt lat="50.37307" lon="1.66043">
        <ele>9.1</ele>
        <time>2020-06-18T18:13:33Z</time>
      </trkpt>
      <trkpt lat="50.37307" lon="1.6604">
        <ele>8.8</ele>
        <time>2020-06-18T18:13:34Z</time>
      </trkpt>
      <trkpt lat="50.37309" lon="1.66035">
        <ele>8.8</ele>
        <time>2020-06-18T18:13:35Z</time>
      </trkpt>
      <trkpt lat="50.37309" lon="1.66033">
        <ele>8.8</ele>
        <time>2020-06-18T18:13:36Z</time>
      </trkpt>
      <trkpt lat="50.37312" lon="1.66029">
        <ele>8.8</ele>
        <time>2020-06-18T18:13:37Z</time>
      </trkpt>
      <trkpt lat="50.37314" lon="1.66027">
        <ele>8.8</ele>
        <time>2020-06-18T18:13:38Z</time>
      </trkpt>
      <trkpt lat="50.37316" lon="1.66026">
        <ele>8.8</ele>
        <time>2020-06-18T18:13:39Z</time>
      </trkpt>
      <trkpt lat="50.3732" lon="1.66024">
        <ele>8.8</ele>
        <time>2020-06-18T18:13:40Z</time>
      </trkpt>
      <trkpt lat="50.37324" lon="1.66023">
        <ele>8.8</ele>
        <time>2020-06-18T18:13:41Z</time>
      </trkpt>
      <trkpt lat="50.37328" lon="1.66021">
        <ele>8.8</ele>
        <time>2020-06-18T18:13:42Z</time>
      </trkpt>
      <trkpt lat="50.37333" lon="1.6602">
        <ele>8.8</ele>
        <time>2020-06-18T18:13:43Z</time>
      </trkpt>
      <trkpt lat="50.37338" lon="1.66019">
        <ele>8.8</ele>
        <time>2020-06-18T18:13:44Z</time>
      </trkpt>
      <trkpt lat="50.37342" lon="1.66019">
        <ele>8.8</ele>
        <time>2020-06-18T18:13:45Z</time>
      </trkpt>
      <trkpt lat="50.37346" lon="1.66018">
        <ele>8.9</ele>
        <time>2020-06-18T18:13:46Z</time>
      </trkpt>
      <trkpt lat="50.37351" lon="1.66016">
        <ele>8.9</ele>
        <time>2020-06-18T18:13:47Z</time>
      </trkpt>
      <trkpt lat="50.37355" lon="1.66013">
        <ele>8.9</ele>
        <time>2020-06-18T18:13:48Z</time>
      </trkpt>
      <trkpt lat="50.3736" lon="1.66011">
        <ele>8.9</ele>
        <time>2020-06-18T18:13:49Z</time>
      </trkpt>
      <trkpt lat="50.37365" lon="1.66008">
        <ele>9</ele>
        <time>2020-06-18T18:13:50Z</time>
      </trkpt>
      <trkpt lat="50.37371" lon="1.66007">
        <ele>9</ele>
        <time>2020-06-18T18:13:51Z</time>
      </trkpt>
      <trkpt lat="50.37376" lon="1.66004">
        <ele>9</ele>
        <time>2020-06-18T18:13:52Z</time>
      </trkpt>
      <trkpt lat="50.37382" lon="1.66">
        <ele>9</ele>
        <time>2020-06-18T18:13:53Z</time>
      </trkpt>
      <trkpt lat="50.37388" lon="1.65997">
        <ele>9.1</ele>
        <time>2020-06-18T18:13:54Z</time>
      </trkpt>
      <trkpt lat="50.37395" lon="1.65994">
        <ele>9.1</ele>
        <time>2020-06-18T18:13:55Z</time>
      </trkpt>
      <trkpt lat="50.37401" lon="1.65991">
        <ele>9.2</ele>
        <time>2020-06-18T18:13:56Z</time>
      </trkpt>
      <trkpt lat="50.37408" lon="1.65989">
        <ele>9.2</ele>
        <time>2020-06-18T18:13:57Z</time>
      </trkpt>
      <trkpt lat="50.37415" lon="1.65986">
        <ele>9.2</ele>
        <time>2020-06-18T18:13:58Z</time>
      </trkpt>
      <trkpt lat="50.37421" lon="1.65984">
        <ele>9.3</ele>
        <time>2020-06-18T18:13:59Z</time>
      </trkpt>
      <trkpt lat="50.37426" lon="1.65981">
        <ele>9.3</ele>
        <time>2020-06-18T18:14:00Z</time>
      </trkpt>
      <trkpt lat="50.37431" lon="1.65979">
        <ele>9.3</ele>
        <time>2020-06-18T18:14:01Z</time>
      </trkpt>
      <trkpt lat="50.37436" lon="1.65976">
        <ele>9.3</ele>
        <time>2020-06-18T18:14:02Z</time>
      </trkpt>
      <trkpt lat="50.37441" lon="1.65974">
        <ele>9.3</ele>
        <time>2020-06-18T18:14:03Z</time>
      </trkpt>
      <trkpt lat="50.37446" lon="1.6597">
        <ele>9.3</ele>
        <time>2020-06-18T18:14:04Z</time>
      </trkpt>
      <trkpt lat="50.37452" lon="1.65968">
        <ele>9.3</ele>
        <time>2020-06-18T18:14:05Z</time>
      </trkpt>
      <trkpt lat="50.37457" lon="1.65965">
        <ele>9.3</ele>
        <time>2020-06-18T18:14:06Z</time>
      </trkpt>
      <trkpt lat="50.37463" lon="1.65963">
        <ele>9.2</ele>
        <time>2020-06-18T18:14:07Z</time>
      </trkpt>
      <trkpt lat="50.37469" lon="1.65959">
        <ele>9.2</ele>
        <time>2020-06-18T18:14:08Z</time>
      </trkpt>
      <trkpt lat="50.37474" lon="1.65956">
        <ele>9.2</ele>
        <time>2020-06-18T18:14:09Z</time>
      </trkpt>
      <trkpt lat="50.3748" lon="1.65954">
        <ele>9.1</ele>
        <time>2020-06-18T18:14:10Z</time>
      </trkpt>
      <trkpt lat="50.37486" lon="1.6595">
        <ele>9.1</ele>
        <time>2020-06-18T18:14:11Z</time>
      </trkpt>
      <trkpt lat="50.37492" lon="1.65947">
        <ele>9.1</ele>
        <time>2020-06-18T18:14:12Z</time>
      </trkpt>
      <trkpt lat="50.37497" lon="1.65944">
        <ele>9</ele>
        <time>2020-06-18T18:14:13Z</time>
      </trkpt>
      <trkpt lat="50.37503" lon="1.65942">
        <ele>9</ele>
        <time>2020-06-18T18:14:14Z</time>
      </trkpt>
      <trkpt lat="50.37509" lon="1.65939">
        <ele>8.9</ele>
        <time>2020-06-18T18:14:15Z</time>
      </trkpt>
      <trkpt lat="50.37515" lon="1.65936">
        <ele>8.8</ele>
        <time>2020-06-18T18:14:16Z</time>
      </trkpt>
      <trkpt lat="50.37522" lon="1.65933">
        <ele>8.8</ele>
        <time>2020-06-18T18:14:17Z</time>
      </trkpt>
      <trkpt lat="50.37528" lon="1.6593">
        <ele>8.7</ele>
        <time>2020-06-18T18:14:18Z</time>
      </trkpt>
      <trkpt lat="50.37534" lon="1.65926">
        <ele>8.7</ele>
        <time>2020-06-18T18:14:19Z</time>
      </trkpt>
      <trkpt lat="50.3754" lon="1.65921">
        <ele>8.7</ele>
        <time>2020-06-18T18:14:20Z</time>
      </trkpt>
      <trkpt lat="50.37546" lon="1.65915">
        <ele>8.6</ele>
        <time>2020-06-18T18:14:21Z</time>
      </trkpt>
      <trkpt lat="50.37551" lon="1.65909">
        <ele>8.5</ele>
        <time>2020-06-18T18:14:22Z</time>
      </trkpt>
      <trkpt lat="50.37557" lon="1.65903">
        <ele>8.4</ele>
        <time>2020-06-18T18:14:23Z</time>
      </trkpt>
      <trkpt lat="50.37561" lon="1.65897">
        <ele>8.3</ele>
        <time>2020-06-18T18:14:24Z</time>
      </trkpt>
      <trkpt lat="50.37566" lon="1.6589">
        <ele>8.3</ele>
        <time>2020-06-18T18:14:25Z</time>
      </trkpt>
      <trkpt lat="50.37571" lon="1.65882">
        <ele>8.2</ele>
        <time>2020-06-18T18:14:26Z</time>
      </trkpt>
      <trkpt lat="50.37577" lon="1.65873">
        <ele>8.2</ele>
        <time>2020-06-18T18:14:27Z</time>
      </trkpt>
      <trkpt lat="50.37582" lon="1.65864">
        <ele>8.1</ele>
        <time>2020-06-18T18:14:28Z</time>
      </trkpt>
      <trkpt lat="50.37588" lon="1.65855">
        <ele>8.1</ele>
        <time>2020-06-18T18:14:29Z</time>
      </trkpt>
      <trkpt lat="50.37593" lon="1.65847">
        <ele>8</ele>
        <time>2020-06-18T18:14:30Z</time>
      </trkpt>
      <trkpt lat="50.37599" lon="1.65837">
        <ele>8</ele>
        <time>2020-06-18T18:14:31Z</time>
      </trkpt>
      <trkpt lat="50.37605" lon="1.65828">
        <ele>7.9</ele>
        <time>2020-06-18T18:14:32Z</time>
      </trkpt>
      <trkpt lat="50.37611" lon="1.65817">
        <ele>7.9</ele>
        <time>2020-06-18T18:14:33Z</time>
      </trkpt>
      <trkpt lat="50.37617" lon="1.65807">
        <ele>7.8</ele>
        <time>2020-06-18T18:14:34Z</time>
      </trkpt>
      <trkpt lat="50.37622" lon="1.65798">
        <ele>7.7</ele>
        <time>2020-06-18T18:14:35Z</time>
      </trkpt>
      <trkpt lat="50.37627" lon="1.6579">
        <ele>7.7</ele>
        <time>2020-06-18T18:14:36Z</time>
      </trkpt>
      <trkpt lat="50.37633" lon="1.65782">
        <ele>7.6</ele>
        <time>2020-06-18T18:14:37Z</time>
      </trkpt>
      <trkpt lat="50.37638" lon="1.65773">
        <ele>7.5</ele>
        <time>2020-06-18T18:14:38Z</time>
      </trkpt>
      <trkpt lat="50.37643" lon="1.65765">
        <ele>7.5</ele>
        <time>2020-06-18T18:14:39Z</time>
      </trkpt>
      <trkpt lat="50.37648" lon="1.65756">
        <ele>7.4</ele>
        <time>2020-06-18T18:14:40Z</time>
      </trkpt>
      <trkpt lat="50.37653" lon="1.65748">
        <ele>7.4</ele>
        <time>2020-06-18T18:14:41Z</time>
      </trkpt>
      <trkpt lat="50.37658" lon="1.65739">
        <ele>7.3</ele>
        <time>2020-06-18T18:14:42Z</time>
      </trkpt>
      <trkpt lat="50.37663" lon="1.65731">
        <ele>7.2</ele>
        <time>2020-06-18T18:14:43Z</time>
      </trkpt>
      <trkpt lat="50.37668" lon="1.65723">
        <ele>7.2</ele>
        <time>2020-06-18T18:14:44Z</time>
      </trkpt>
      <trkpt lat="50.37673" lon="1.65714">
        <ele>7.2</ele>
        <time>2020-06-18T18:14:45Z</time>
      </trkpt>
      <trkpt lat="50.37678" lon="1.65706">
        <ele>7.2</ele>
        <time>2020-06-18T18:14:46Z</time>
      </trkpt>
      <trkpt lat="50.37683" lon="1.65698">
        <ele>7.1</ele>
        <time>2020-06-18T18:14:47Z</time>
      </trkpt>
      <trkpt lat="50.37689" lon="1.65691">
        <ele>7</ele>
        <time>2020-06-18T18:14:48Z</time>
      </trkpt>
      <trkpt lat="50.37694" lon="1.65683">
        <ele>6.9</ele>
        <time>2020-06-18T18:14:49Z</time>
      </trkpt>
      <trkpt lat="50.377" lon="1.65674">
        <ele>6.8</ele>
        <time>2020-06-18T18:14:50Z</time>
      </trkpt>
      <trkpt lat="50.37705" lon="1.65667">
        <ele>6.7</ele>
        <time>2020-06-18T18:14:51Z</time>
      </trkpt>
      <trkpt lat="50.37711" lon="1.65659">
        <ele>6.6</ele>
        <time>2020-06-18T18:14:52Z</time>
      </trkpt>
      <trkpt lat="50.37717" lon="1.65651">
        <ele>6.5</ele>
        <time>2020-06-18T18:14:53Z</time>
      </trkpt>
      <trkpt lat="50.37723" lon="1.65644">
        <ele>6.4</ele>
        <time>2020-06-18T18:14:54Z</time>
      </trkpt>
      <trkpt lat="50.37729" lon="1.65636">
        <ele>6.3</ele>
        <time>2020-06-18T18:14:55Z</time>
      </trkpt>
      <trkpt lat="50.37734" lon="1.65627">
        <ele>6.2</ele>
        <time>2020-06-18T18:14:56Z</time>
      </trkpt>
      <trkpt lat="50.3774" lon="1.65619">
        <ele>6.1</ele>
        <time>2020-06-18T18:14:57Z</time>
      </trkpt>
      <trkpt lat="50.37746" lon="1.65611">
        <ele>6</ele>
        <time>2020-06-18T18:14:58Z</time>
      </trkpt>
      <trkpt lat="50.37751" lon="1.65602">
        <ele>6</ele>
        <time>2020-06-18T18:14:59Z</time>
      </trkpt>
      <trkpt lat="50.37756" lon="1.65594">
        <ele>5.9</ele>
        <time>2020-06-18T18:15:00Z</time>
      </trkpt>
      <trkpt lat="50.37761" lon="1.65585">
        <ele>5.8</ele>
        <time>2020-06-18T18:15:01Z</time>
      </trkpt>
      <trkpt lat="50.37766" lon="1.65576">
        <ele>5.8</ele>
        <time>2020-06-18T18:15:02Z</time>
      </trkpt>
      <trkpt lat="50.3777" lon="1.65567">
        <ele>5.8</ele>
        <time>2020-06-18T18:15:03Z</time>
      </trkpt>
      <trkpt lat="50.37774" lon="1.65557">
        <ele>5.8</ele>
        <time>2020-06-18T18:15:04Z</time>
      </trkpt>
      <trkpt lat="50.37777" lon="1.65547">
        <ele>5.8</ele>
        <time>2020-06-18T18:15:05Z</time>
      </trkpt>
      <trkpt lat="50.3778" lon="1.65537">
        <ele>5.8</ele>
        <time>2020-06-18T18:15:06Z</time>
      </trkpt>
      <trkpt lat="50.37783" lon="1.65526">
        <ele>5.9</ele>
        <time>2020-06-18T18:15:07Z</time>
      </trkpt>
      <trkpt lat="50.37785" lon="1.65516">
        <ele>5.9</ele>
        <time>2020-06-18T18:15:08Z</time>
      </trkpt>
      <trkpt lat="50.37788" lon="1.65505">
        <ele>6.1</ele>
        <time>2020-06-18T18:15:09Z</time>
      </trkpt>
      <trkpt lat="50.37789" lon="1.65495">
        <ele>6.3</ele>
        <time>2020-06-18T18:15:10Z</time>
      </trkpt>
      <trkpt lat="50.37791" lon="1.65484">
        <ele>6.5</ele>
        <time>2020-06-18T18:15:11Z</time>
      </trkpt>
      <trkpt lat="50.37794" lon="1.65475">
        <ele>6.8</ele>
        <time>2020-06-18T18:15:12Z</time>
      </trkpt>
      <trkpt lat="50.37796" lon="1.65465">
        <ele>7</ele>
        <time>2020-06-18T18:15:13Z</time>
      </trkpt>
      <trkpt lat="50.37799" lon="1.65455">
        <ele>7.2</ele>
        <time>2020-06-18T18:15:14Z</time>
      </trkpt>
      <trkpt lat="50.37802" lon="1.65446">
        <ele>7.3</ele>
        <time>2020-06-18T18:15:15Z</time>
      </trkpt>
      <trkpt lat="50.37804" lon="1.65436">
        <ele>7.3</ele>
        <time>2020-06-18T18:15:16Z</time>
      </trkpt>
      <trkpt lat="50.37807" lon="1.65427">
        <ele>7.4</ele>
        <time>2020-06-18T18:15:17Z</time>
      </trkpt>
      <trkpt lat="50.3781" lon="1.65419">
        <ele>7.5</ele>
        <time>2020-06-18T18:15:18Z</time>
      </trkpt>
      <trkpt lat="50.37813" lon="1.6541">
        <ele>7.6</ele>
        <time>2020-06-18T18:15:19Z</time>
      </trkpt>
      <trkpt lat="50.37816" lon="1.65403">
        <ele>7.6</ele>
        <time>2020-06-18T18:15:20Z</time>
      </trkpt>
      <trkpt lat="50.37819" lon="1.65395">
        <ele>7.6</ele>
        <time>2020-06-18T18:15:21Z</time>
      </trkpt>
      <trkpt lat="50.37822" lon="1.65387">
        <ele>7.7</ele>
        <time>2020-06-18T18:15:22Z</time>
      </trkpt>
      <trkpt lat="50.37825" lon="1.6538">
        <ele>7.7</ele>
        <time>2020-06-18T18:15:23Z</time>
      </trkpt>
      <trkpt lat="50.37828" lon="1.65372">
        <ele>7.7</ele>
        <time>2020-06-18T18:15:24Z</time>
      </trkpt>
      <trkpt lat="50.37831" lon="1.65364">
        <ele>7.7</ele>
        <time>2020-06-18T18:15:25Z</time>
      </trkpt>
      <trkpt lat="50.37835" lon="1.65355">
        <ele>7.7</ele>
        <time>2020-06-18T18:15:26Z</time>
      </trkpt>
      <trkpt lat="50.37839" lon="1.65347">
        <ele>7.7</ele>
        <time>2020-06-18T18:15:27Z</time>
      </trkpt>
      <trkpt lat="50.37844" lon="1.65341">
        <ele>7.7</ele>
        <time>2020-06-18T18:15:28Z</time>
      </trkpt>
      <trkpt lat="50.37849" lon="1.65333">
        <ele>7.7</ele>
        <time>2020-06-18T18:15:29Z</time>
      </trkpt>
      <trkpt lat="50.37854" lon="1.65327">
        <ele>7.7</ele>
        <time>2020-06-18T18:15:30Z</time>
      </trkpt>
      <trkpt lat="50.3786" lon="1.6532">
        <ele>7.7</ele>
        <time>2020-06-18T18:15:31Z</time>
      </trkpt>
      <trkpt lat="50.37866" lon="1.65314">
        <ele>7.7</ele>
        <time>2020-06-18T18:15:32Z</time>
      </trkpt>
      <trkpt lat="50.37871" lon="1.65309">
        <ele>7.6</ele>
        <time>2020-06-18T18:15:33Z</time>
      </trkpt>
      <trkpt lat="50.37877" lon="1.65304">
        <ele>7.6</ele>
        <time>2020-06-18T18:15:34Z</time>
      </trkpt>
      <trkpt lat="50.37884" lon="1.65301">
        <ele>7.6</ele>
        <time>2020-06-18T18:15:35Z</time>
      </trkpt>
      <trkpt lat="50.37891" lon="1.65298">
        <ele>7.6</ele>
        <time>2020-06-18T18:15:36Z</time>
      </trkpt>
      <trkpt lat="50.37897" lon="1.65295">
        <ele>7.7</ele>
        <time>2020-06-18T18:15:37Z</time>
      </trkpt>
      <trkpt lat="50.37903" lon="1.65295">
        <ele>7.8</ele>
        <time>2020-06-18T18:15:38Z</time>
      </trkpt>
      <trkpt lat="50.37909" lon="1.65295">
        <ele>7.8</ele>
        <time>2020-06-18T18:15:39Z</time>
      </trkpt>
      <trkpt lat="50.37917" lon="1.65294">
        <ele>7.9</ele>
        <time>2020-06-18T18:15:40Z</time>
      </trkpt>
      <trkpt lat="50.37923" lon="1.65291">
        <ele>7.9</ele>
        <time>2020-06-18T18:15:41Z</time>
      </trkpt>
      <trkpt lat="50.37931" lon="1.6529">
        <ele>8.1</ele>
        <time>2020-06-18T18:15:42Z</time>
      </trkpt>
      <trkpt lat="50.37937" lon="1.65288">
        <ele>8.2</ele>
        <time>2020-06-18T18:15:43Z</time>
      </trkpt>
      <trkpt lat="50.37945" lon="1.65285">
        <ele>8.3</ele>
        <time>2020-06-18T18:15:44Z</time>
      </trkpt>
      <trkpt lat="50.37951" lon="1.65283">
        <ele>8.4</ele>
        <time>2020-06-18T18:15:45Z</time>
      </trkpt>
      <trkpt lat="50.37958" lon="1.65281">
        <ele>8.5</ele>
        <time>2020-06-18T18:15:46Z</time>
      </trkpt>
      <trkpt lat="50.37964" lon="1.65279">
        <ele>8.6</ele>
        <time>2020-06-18T18:15:47Z</time>
      </trkpt>
      <trkpt lat="50.37971" lon="1.65276">
        <ele>8.6</ele>
        <time>2020-06-18T18:15:48Z</time>
      </trkpt>
      <trkpt lat="50.37977" lon="1.65275">
        <ele>8.5</ele>
        <time>2020-06-18T18:15:49Z</time>
      </trkpt>
      <trkpt lat="50.37984" lon="1.65274">
        <ele>8.4</ele>
        <time>2020-06-18T18:15:50Z</time>
      </trkpt>
      <trkpt lat="50.37991" lon="1.65272">
        <ele>8.3</ele>
        <time>2020-06-18T18:15:51Z</time>
      </trkpt>
      <trkpt lat="50.37998" lon="1.6527">
        <ele>8.2</ele>
        <time>2020-06-18T18:15:52Z</time>
      </trkpt>
      <trkpt lat="50.38004" lon="1.65269">
        <ele>8.2</ele>
        <time>2020-06-18T18:15:53Z</time>
      </trkpt>
      <trkpt lat="50.38011" lon="1.65267">
        <ele>8.2</ele>
        <time>2020-06-18T18:15:54Z</time>
      </trkpt>
      <trkpt lat="50.38018" lon="1.65266">
        <ele>8.1</ele>
        <time>2020-06-18T18:15:55Z</time>
      </trkpt>
      <trkpt lat="50.38024" lon="1.65265">
        <ele>8.1</ele>
        <time>2020-06-18T18:15:56Z</time>
      </trkpt>
      <trkpt lat="50.38031" lon="1.65265">
        <ele>8</ele>
        <time>2020-06-18T18:15:57Z</time>
      </trkpt>
      <trkpt lat="50.38039" lon="1.65265">
        <ele>7.9</ele>
        <time>2020-06-18T18:15:58Z</time>
      </trkpt>
      <trkpt lat="50.38047" lon="1.65265">
        <ele>7.8</ele>
        <time>2020-06-18T18:15:59Z</time>
      </trkpt>
      <trkpt lat="50.38055" lon="1.65265">
        <ele>7.7</ele>
        <time>2020-06-18T18:16:00Z</time>
      </trkpt>
      <trkpt lat="50.38062" lon="1.65264">
        <ele>7.6</ele>
        <time>2020-06-18T18:16:01Z</time>
      </trkpt>
      <trkpt lat="50.3807" lon="1.65263">
        <ele>7.4</ele>
        <time>2020-06-18T18:16:02Z</time>
      </trkpt>
      <trkpt lat="50.38078" lon="1.65261">
        <ele>7.3</ele>
        <time>2020-06-18T18:16:03Z</time>
      </trkpt>
      <trkpt lat="50.38085" lon="1.65258">
        <ele>7.2</ele>
        <time>2020-06-18T18:16:04Z</time>
      </trkpt>
      <trkpt lat="50.38092" lon="1.65256">
        <ele>7.2</ele>
        <time>2020-06-18T18:16:05Z</time>
      </trkpt>
      <trkpt lat="50.38099" lon="1.65253">
        <ele>7.1</ele>
        <time>2020-06-18T18:16:06Z</time>
      </trkpt>
      <trkpt lat="50.38105" lon="1.6525">
        <ele>7.1</ele>
        <time>2020-06-18T18:16:07Z</time>
      </trkpt>
      <trkpt lat="50.38113" lon="1.65247">
        <ele>7</ele>
        <time>2020-06-18T18:16:08Z</time>
      </trkpt>
      <trkpt lat="50.38121" lon="1.65243">
        <ele>7</ele>
        <time>2020-06-18T18:16:09Z</time>
      </trkpt>
      <trkpt lat="50.38128" lon="1.6524">
        <ele>6.9</ele>
        <time>2020-06-18T18:16:10Z</time>
      </trkpt>
      <trkpt lat="50.38135" lon="1.65236">
        <ele>6.9</ele>
        <time>2020-06-18T18:16:11Z</time>
      </trkpt>
      <trkpt lat="50.38142" lon="1.65232">
        <ele>6.8</ele>
        <time>2020-06-18T18:16:12Z</time>
      </trkpt>
      <trkpt lat="50.3815" lon="1.65229">
        <ele>6.7</ele>
        <time>2020-06-18T18:16:13Z</time>
      </trkpt>
      <trkpt lat="50.38156" lon="1.65225">
        <ele>6.7</ele>
        <time>2020-06-18T18:16:14Z</time>
      </trkpt>
      <trkpt lat="50.38162" lon="1.6522">
        <ele>6.6</ele>
        <time>2020-06-18T18:16:15Z</time>
      </trkpt>
      <trkpt lat="50.38169" lon="1.65217">
        <ele>6.6</ele>
        <time>2020-06-18T18:16:16Z</time>
      </trkpt>
      <trkpt lat="50.38175" lon="1.65212">
        <ele>6.6</ele>
        <time>2020-06-18T18:16:17Z</time>
      </trkpt>
      <trkpt lat="50.38182" lon="1.65208">
        <ele>6.5</ele>
        <time>2020-06-18T18:16:18Z</time>
      </trkpt>
      <trkpt lat="50.38188" lon="1.65204">
        <ele>6.5</ele>
        <time>2020-06-18T18:16:19Z</time>
      </trkpt>
      <trkpt lat="50.38195" lon="1.652">
        <ele>6.4</ele>
        <time>2020-06-18T18:16:20Z</time>
      </trkpt>
      <trkpt lat="50.38201" lon="1.65197">
        <ele>6.4</ele>
        <time>2020-06-18T18:16:21Z</time>
      </trkpt>
      <trkpt lat="50.38208" lon="1.65194">
        <ele>6.3</ele>
        <time>2020-06-18T18:16:22Z</time>
      </trkpt>
      <trkpt lat="50.38214" lon="1.65192">
        <ele>6.3</ele>
        <time>2020-06-18T18:16:23Z</time>
      </trkpt>
      <trkpt lat="50.38222" lon="1.6519">
        <ele>6.4</ele>
        <time>2020-06-18T18:16:24Z</time>
      </trkpt>
      <trkpt lat="50.38229" lon="1.65188">
        <ele>6.4</ele>
        <time>2020-06-18T18:16:25Z</time>
      </trkpt>
      <trkpt lat="50.38236" lon="1.65187">
        <ele>6.4</ele>
        <time>2020-06-18T18:16:26Z</time>
      </trkpt>
      <trkpt lat="50.38244" lon="1.65186">
        <ele>6.3</ele>
        <time>2020-06-18T18:16:27Z</time>
      </trkpt>
      <trkpt lat="50.38251" lon="1.65185">
        <ele>6.3</ele>
        <time>2020-06-18T18:16:28Z</time>
      </trkpt>
      <trkpt lat="50.38258" lon="1.65184">
        <ele>6.2</ele>
        <time>2020-06-18T18:16:29Z</time>
      </trkpt>
      <trkpt lat="50.38265" lon="1.65182">
        <ele>6.2</ele>
        <time>2020-06-18T18:16:30Z</time>
      </trkpt>
      <trkpt lat="50.38272" lon="1.65181">
        <ele>6.1</ele>
        <time>2020-06-18T18:16:31Z</time>
      </trkpt>
      <trkpt lat="50.38279" lon="1.6518">
        <ele>6.1</ele>
        <time>2020-06-18T18:16:32Z</time>
      </trkpt>
      <trkpt lat="50.38286" lon="1.65178">
        <ele>6.1</ele>
        <time>2020-06-18T18:16:33Z</time>
      </trkpt>
      <trkpt lat="50.38293" lon="1.65177">
        <ele>6</ele>
        <time>2020-06-18T18:16:34Z</time>
      </trkpt>
      <trkpt lat="50.38299" lon="1.65177">
        <ele>6</ele>
        <time>2020-06-18T18:16:35Z</time>
      </trkpt>
      <trkpt lat="50.38306" lon="1.65177">
        <ele>6.1</ele>
        <time>2020-06-18T18:16:36Z</time>
      </trkpt>
      <trkpt lat="50.38313" lon="1.65176">
        <ele>6.1</ele>
        <time>2020-06-18T18:16:37Z</time>
      </trkpt>
      <trkpt lat="50.3832" lon="1.65175">
        <ele>6.1</ele>
        <time>2020-06-18T18:16:38Z</time>
      </trkpt>
      <trkpt lat="50.38327" lon="1.65174">
        <ele>6.1</ele>
        <time>2020-06-18T18:16:39Z</time>
      </trkpt>
      <trkpt lat="50.38333" lon="1.65173">
        <ele>6.1</ele>
        <time>2020-06-18T18:16:40Z</time>
      </trkpt>
      <trkpt lat="50.3834" lon="1.65173">
        <ele>6.1</ele>
        <time>2020-06-18T18:16:41Z</time>
      </trkpt>
      <trkpt lat="50.38347" lon="1.65172">
        <ele>6.1</ele>
        <time>2020-06-18T18:16:42Z</time>
      </trkpt>
      <trkpt lat="50.38353" lon="1.65171">
        <ele>6.1</ele>
        <time>2020-06-18T18:16:43Z</time>
      </trkpt>
      <trkpt lat="50.38359" lon="1.6517">
        <ele>6.1</ele>
        <time>2020-06-18T18:16:44Z</time>
      </trkpt>
      <trkpt lat="50.38365" lon="1.65169">
        <ele>6.1</ele>
        <time>2020-06-18T18:16:45Z</time>
      </trkpt>
      <trkpt lat="50.38371" lon="1.65167">
        <ele>6.1</ele>
        <time>2020-06-18T18:16:46Z</time>
      </trkpt>
      <trkpt lat="50.38378" lon="1.65167">
        <ele>6.1</ele>
        <time>2020-06-18T18:16:47Z</time>
      </trkpt>
      <trkpt lat="50.38383" lon="1.65165">
        <ele>6.2</ele>
        <time>2020-06-18T18:16:48Z</time>
      </trkpt>
      <trkpt lat="50.38389" lon="1.65164">
        <ele>6.2</ele>
        <time>2020-06-18T18:16:49Z</time>
      </trkpt>
      <trkpt lat="50.38395" lon="1.65164">
        <ele>6.2</ele>
        <time>2020-06-18T18:16:50Z</time>
      </trkpt>
      <trkpt lat="50.38401" lon="1.65164">
        <ele>6.3</ele>
        <time>2020-06-18T18:16:51Z</time>
      </trkpt>
      <trkpt lat="50.38407" lon="1.65163">
        <ele>6.3</ele>
        <time>2020-06-18T18:16:52Z</time>
      </trkpt>
      <trkpt lat="50.38413" lon="1.65162">
        <ele>6.3</ele>
        <time>2020-06-18T18:16:53Z</time>
      </trkpt>
      <trkpt lat="50.38419" lon="1.65161">
        <ele>6.3</ele>
        <time>2020-06-18T18:16:54Z</time>
      </trkpt>
      <trkpt lat="50.38425" lon="1.65162">
        <ele>6.3</ele>
        <time>2020-06-18T18:16:55Z</time>
      </trkpt>
      <trkpt lat="50.38431" lon="1.6516">
        <ele>6.4</ele>
        <time>2020-06-18T18:16:56Z</time>
      </trkpt>
      <trkpt lat="50.38437" lon="1.6516">
        <ele>6.4</ele>
        <time>2020-06-18T18:16:57Z</time>
      </trkpt>
      <trkpt lat="50.38445" lon="1.6516">
        <ele>6.4</ele>
        <time>2020-06-18T18:16:58Z</time>
      </trkpt>
      <trkpt lat="50.38451" lon="1.65158">
        <ele>6.5</ele>
        <time>2020-06-18T18:16:59Z</time>
      </trkpt>
      <trkpt lat="50.38457" lon="1.65158">
        <ele>6.5</ele>
        <time>2020-06-18T18:17:00Z</time>
      </trkpt>
      <trkpt lat="50.38463" lon="1.65157">
        <ele>6.6</ele>
        <time>2020-06-18T18:17:01Z</time>
      </trkpt>
      <trkpt lat="50.3847" lon="1.65157">
        <ele>6.7</ele>
        <time>2020-06-18T18:17:02Z</time>
      </trkpt>
      <trkpt lat="50.38476" lon="1.65155">
        <ele>6.7</ele>
        <time>2020-06-18T18:17:03Z</time>
      </trkpt>
      <trkpt lat="50.38482" lon="1.65154">
        <ele>6.8</ele>
        <time>2020-06-18T18:17:04Z</time>
      </trkpt>
      <trkpt lat="50.38489" lon="1.65152">
        <ele>6.8</ele>
        <time>2020-06-18T18:17:05Z</time>
      </trkpt>
      <trkpt lat="50.38495" lon="1.65151">
        <ele>6.9</ele>
        <time>2020-06-18T18:17:06Z</time>
      </trkpt>
      <trkpt lat="50.38502" lon="1.6515">
        <ele>7</ele>
        <time>2020-06-18T18:17:07Z</time>
      </trkpt>
      <trkpt lat="50.38509" lon="1.65148">
        <ele>7.1</ele>
        <time>2020-06-18T18:17:08Z</time>
      </trkpt>
      <trkpt lat="50.38515" lon="1.65147">
        <ele>7.1</ele>
        <time>2020-06-18T18:17:09Z</time>
      </trkpt>
      <trkpt lat="50.38522" lon="1.65146">
        <ele>7.1</ele>
        <time>2020-06-18T18:17:10Z</time>
      </trkpt>
      <trkpt lat="50.38529" lon="1.65145">
        <ele>7.1</ele>
        <time>2020-06-18T18:17:11Z</time>
      </trkpt>
      <trkpt lat="50.38535" lon="1.65144">
        <ele>7.1</ele>
        <time>2020-06-18T18:17:12Z</time>
      </trkpt>
      <trkpt lat="50.38542" lon="1.65143">
        <ele>7.1</ele>
        <time>2020-06-18T18:17:13Z</time>
      </trkpt>
      <trkpt lat="50.38549" lon="1.65143">
        <ele>7.1</ele>
        <time>2020-06-18T18:17:14Z</time>
      </trkpt>
      <trkpt lat="50.38556" lon="1.65142">
        <ele>7.1</ele>
        <time>2020-06-18T18:17:15Z</time>
      </trkpt>
      <trkpt lat="50.38563" lon="1.65141">
        <ele>7.1</ele>
        <time>2020-06-18T18:17:16Z</time>
      </trkpt>
      <trkpt lat="50.3857" lon="1.6514">
        <ele>7.1</ele>
        <time>2020-06-18T18:17:17Z</time>
      </trkpt>
      <trkpt lat="50.38577" lon="1.65139">
        <ele>7.1</ele>
        <time>2020-06-18T18:17:18Z</time>
      </trkpt>
      <trkpt lat="50.38584" lon="1.65139">
        <ele>7.1</ele>
        <time>2020-06-18T18:17:19Z</time>
      </trkpt>
      <trkpt lat="50.38591" lon="1.65139">
        <ele>7</ele>
        <time>2020-06-18T18:17:20Z</time>
      </trkpt>
      <trkpt lat="50.38598" lon="1.65138">
        <ele>7</ele>
        <time>2020-06-18T18:17:21Z</time>
      </trkpt>
      <trkpt lat="50.38605" lon="1.65138">
        <ele>7</ele>
        <time>2020-06-18T18:17:22Z</time>
      </trkpt>
      <trkpt lat="50.38612" lon="1.65138">
        <ele>7</ele>
        <time>2020-06-18T18:17:23Z</time>
      </trkpt>
      <trkpt lat="50.38619" lon="1.65138">
        <ele>6.9</ele>
        <time>2020-06-18T18:17:24Z</time>
      </trkpt>
      <trkpt lat="50.38625" lon="1.65138">
        <ele>6.9</ele>
        <time>2020-06-18T18:17:25Z</time>
      </trkpt>
      <trkpt lat="50.38632" lon="1.6514">
        <ele>6.9</ele>
        <time>2020-06-18T18:17:26Z</time>
      </trkpt>
      <trkpt lat="50.38638" lon="1.65142">
        <ele>6.8</ele>
        <time>2020-06-18T18:17:27Z</time>
      </trkpt>
      <trkpt lat="50.38644" lon="1.65143">
        <ele>6.8</ele>
        <time>2020-06-18T18:17:28Z</time>
      </trkpt>
      <trkpt lat="50.38651" lon="1.65145">
        <ele>6.7</ele>
        <time>2020-06-18T18:17:29Z</time>
      </trkpt>
      <trkpt lat="50.38657" lon="1.65146">
        <ele>6.7</ele>
        <time>2020-06-18T18:17:30Z</time>
      </trkpt>
      <trkpt lat="50.38662" lon="1.65147">
        <ele>6.6</ele>
        <time>2020-06-18T18:17:31Z</time>
      </trkpt>
      <trkpt lat="50.38668" lon="1.65148">
        <ele>6.6</ele>
        <time>2020-06-18T18:17:32Z</time>
      </trkpt>
      <trkpt lat="50.38674" lon="1.65148">
        <ele>6.6</ele>
        <time>2020-06-18T18:17:33Z</time>
      </trkpt>
      <trkpt lat="50.3868" lon="1.65149">
        <ele>6.6</ele>
        <time>2020-06-18T18:17:34Z</time>
      </trkpt>
      <trkpt lat="50.38686" lon="1.65149">
        <ele>6.6</ele>
        <time>2020-06-18T18:17:35Z</time>
      </trkpt>
      <trkpt lat="50.38691" lon="1.6515">
        <ele>6.6</ele>
        <time>2020-06-18T18:17:36Z</time>
      </trkpt>
      <trkpt lat="50.38696" lon="1.65153">
        <ele>6.5</ele>
        <time>2020-06-18T18:17:37Z</time>
      </trkpt>
      <trkpt lat="50.38701" lon="1.65156">
        <ele>6.5</ele>
        <time>2020-06-18T18:17:38Z</time>
      </trkpt>
      <trkpt lat="50.38706" lon="1.65158">
        <ele>6.5</ele>
        <time>2020-06-18T18:17:39Z</time>
      </trkpt>
      <trkpt lat="50.38711" lon="1.6516">
        <ele>6.5</ele>
        <time>2020-06-18T18:17:40Z</time>
      </trkpt>
      <trkpt lat="50.38716" lon="1.65162">
        <ele>6.5</ele>
        <time>2020-06-18T18:17:41Z</time>
      </trkpt>
      <trkpt lat="50.38722" lon="1.65162">
        <ele>6.4</ele>
        <time>2020-06-18T18:17:42Z</time>
      </trkpt>
      <trkpt lat="50.38727" lon="1.65164">
        <ele>6.4</ele>
        <time>2020-06-18T18:17:43Z</time>
      </trkpt>
      <trkpt lat="50.38733" lon="1.65165">
        <ele>6.4</ele>
        <time>2020-06-18T18:17:44Z</time>
      </trkpt>
      <trkpt lat="50.38739" lon="1.65167">
        <ele>6.4</ele>
        <time>2020-06-18T18:17:45Z</time>
      </trkpt>
      <trkpt lat="50.38746" lon="1.65168">
        <ele>6.5</ele>
        <time>2020-06-18T18:17:46Z</time>
      </trkpt>
      <trkpt lat="50.38753" lon="1.65169">
        <ele>6.5</ele>
        <time>2020-06-18T18:17:47Z</time>
      </trkpt>
      <trkpt lat="50.38761" lon="1.6517">
        <ele>6.5</ele>
        <time>2020-06-18T18:17:48Z</time>
      </trkpt>
      <trkpt lat="50.38768" lon="1.6517">
        <ele>6.5</ele>
        <time>2020-06-18T18:17:49Z</time>
      </trkpt>
      <trkpt lat="50.38775" lon="1.65169">
        <ele>6.5</ele>
        <time>2020-06-18T18:17:50Z</time>
      </trkpt>
      <trkpt lat="50.38782" lon="1.65169">
        <ele>6.6</ele>
        <time>2020-06-18T18:17:51Z</time>
      </trkpt>
      <trkpt lat="50.38788" lon="1.65167">
        <ele>6.6</ele>
        <time>2020-06-18T18:17:52Z</time>
      </trkpt>
      <trkpt lat="50.38795" lon="1.65166">
        <ele>6.7</ele>
        <time>2020-06-18T18:17:53Z</time>
      </trkpt>
      <trkpt lat="50.38802" lon="1.65164">
        <ele>6.8</ele>
        <time>2020-06-18T18:17:54Z</time>
      </trkpt>
      <trkpt lat="50.38809" lon="1.65162">
        <ele>6.8</ele>
        <time>2020-06-18T18:17:55Z</time>
      </trkpt>
      <trkpt lat="50.38816" lon="1.6516">
        <ele>6.9</ele>
        <time>2020-06-18T18:17:56Z</time>
      </trkpt>
      <trkpt lat="50.38823" lon="1.65157">
        <ele>7</ele>
        <time>2020-06-18T18:17:57Z</time>
      </trkpt>
      <trkpt lat="50.38829" lon="1.65155">
        <ele>7</ele>
        <time>2020-06-18T18:17:58Z</time>
      </trkpt>
      <trkpt lat="50.38836" lon="1.65153">
        <ele>7.1</ele>
        <time>2020-06-18T18:17:59Z</time>
      </trkpt>
      <trkpt lat="50.38842" lon="1.65151">
        <ele>7.2</ele>
        <time>2020-06-18T18:18:00Z</time>
      </trkpt>
      <trkpt lat="50.38849" lon="1.65149">
        <ele>7.4</ele>
        <time>2020-06-18T18:18:01Z</time>
      </trkpt>
      <trkpt lat="50.38856" lon="1.65146">
        <ele>7.5</ele>
        <time>2020-06-18T18:18:02Z</time>
      </trkpt>
      <trkpt lat="50.38863" lon="1.65144">
        <ele>7.6</ele>
        <time>2020-06-18T18:18:03Z</time>
      </trkpt>
      <trkpt lat="50.38869" lon="1.65142">
        <ele>7.7</ele>
        <time>2020-06-18T18:18:04Z</time>
      </trkpt>
      <trkpt lat="50.38876" lon="1.6514">
        <ele>7.8</ele>
        <time>2020-06-18T18:18:05Z</time>
      </trkpt>
      <trkpt lat="50.38882" lon="1.65138">
        <ele>7.9</ele>
        <time>2020-06-18T18:18:06Z</time>
      </trkpt>
      <trkpt lat="50.38889" lon="1.65136">
        <ele>7.9</ele>
        <time>2020-06-18T18:18:07Z</time>
      </trkpt>
      <trkpt lat="50.38895" lon="1.65134">
        <ele>8</ele>
        <time>2020-06-18T18:18:08Z</time>
      </trkpt>
      <trkpt lat="50.38902" lon="1.65134">
        <ele>8</ele>
        <time>2020-06-18T18:18:09Z</time>
      </trkpt>
      <trkpt lat="50.38909" lon="1.65133">
        <ele>8.1</ele>
        <time>2020-06-18T18:18:10Z</time>
      </trkpt>
      <trkpt lat="50.38915" lon="1.65131">
        <ele>8.1</ele>
        <time>2020-06-18T18:18:11Z</time>
      </trkpt>
      <trkpt lat="50.38922" lon="1.6513">
        <ele>8.2</ele>
        <time>2020-06-18T18:18:12Z</time>
      </trkpt>
      <trkpt lat="50.38929" lon="1.65128">
        <ele>8.3</ele>
        <time>2020-06-18T18:18:13Z</time>
      </trkpt>
      <trkpt lat="50.38936" lon="1.65127">
        <ele>8.3</ele>
        <time>2020-06-18T18:18:14Z</time>
      </trkpt>
      <trkpt lat="50.38942" lon="1.65127">
        <ele>8.3</ele>
        <time>2020-06-18T18:18:15Z</time>
      </trkpt>
      <trkpt lat="50.38949" lon="1.65126">
        <ele>8.3</ele>
        <time>2020-06-18T18:18:16Z</time>
      </trkpt>
      <trkpt lat="50.38956" lon="1.65126">
        <ele>8.4</ele>
        <time>2020-06-18T18:18:17Z</time>
      </trkpt>
      <trkpt lat="50.38963" lon="1.65125">
        <ele>8.4</ele>
        <time>2020-06-18T18:18:18Z</time>
      </trkpt>
      <trkpt lat="50.3897" lon="1.65124">
        <ele>8.4</ele>
        <time>2020-06-18T18:18:19Z</time>
      </trkpt>
      <trkpt lat="50.38977" lon="1.65123">
        <ele>8.5</ele>
        <time>2020-06-18T18:18:20Z</time>
      </trkpt>
      <trkpt lat="50.38984" lon="1.65122">
        <ele>8.5</ele>
        <time>2020-06-18T18:18:21Z</time>
      </trkpt>
      <trkpt lat="50.38991" lon="1.65121">
        <ele>8.5</ele>
        <time>2020-06-18T18:18:22Z</time>
      </trkpt>
      <trkpt lat="50.38997" lon="1.65121">
        <ele>8.6</ele>
        <time>2020-06-18T18:18:23Z</time>
      </trkpt>
      <trkpt lat="50.39004" lon="1.65119">
        <ele>8.6</ele>
        <time>2020-06-18T18:18:24Z</time>
      </trkpt>
      <trkpt lat="50.39011" lon="1.65118">
        <ele>8.6</ele>
        <time>2020-06-18T18:18:25Z</time>
      </trkpt>
      <trkpt lat="50.39018" lon="1.65118">
        <ele>8.6</ele>
        <time>2020-06-18T18:18:26Z</time>
      </trkpt>
      <trkpt lat="50.39025" lon="1.65118">
        <ele>8.6</ele>
        <time>2020-06-18T18:18:27Z</time>
      </trkpt>
      <trkpt lat="50.39032" lon="1.65117">
        <ele>8.6</ele>
        <time>2020-06-18T18:18:28Z</time>
      </trkpt>
      <trkpt lat="50.39039" lon="1.65115">
        <ele>8.6</ele>
        <time>2020-06-18T18:18:29Z</time>
      </trkpt>
      <trkpt lat="50.39046" lon="1.65113">
        <ele>8.5</ele>
        <time>2020-06-18T18:18:30Z</time>
      </trkpt>
      <trkpt lat="50.39053" lon="1.65112">
        <ele>8.5</ele>
        <time>2020-06-18T18:18:31Z</time>
      </trkpt>
      <trkpt lat="50.3906" lon="1.65112">
        <ele>8.4</ele>
        <time>2020-06-18T18:18:32Z</time>
      </trkpt>
      <trkpt lat="50.39067" lon="1.65112">
        <ele>8.4</ele>
        <time>2020-06-18T18:18:33Z</time>
      </trkpt>
      <trkpt lat="50.39074" lon="1.65111">
        <ele>8.3</ele>
        <time>2020-06-18T18:18:34Z</time>
      </trkpt>
      <trkpt lat="50.39081" lon="1.6511">
        <ele>8.2</ele>
        <time>2020-06-18T18:18:35Z</time>
      </trkpt>
      <trkpt lat="50.39089" lon="1.6511">
        <ele>8.2</ele>
        <time>2020-06-18T18:18:36Z</time>
      </trkpt>
      <trkpt lat="50.39096" lon="1.65109">
        <ele>8.1</ele>
        <time>2020-06-18T18:18:37Z</time>
      </trkpt>
      <trkpt lat="50.39104" lon="1.65109">
        <ele>8</ele>
        <time>2020-06-18T18:18:38Z</time>
      </trkpt>
      <trkpt lat="50.39111" lon="1.65109">
        <ele>8</ele>
        <time>2020-06-18T18:18:39Z</time>
      </trkpt>
      <trkpt lat="50.39119" lon="1.65109">
        <ele>8</ele>
        <time>2020-06-18T18:18:40Z</time>
      </trkpt>
      <trkpt lat="50.39127" lon="1.65108">
        <ele>7.9</ele>
        <time>2020-06-18T18:18:41Z</time>
      </trkpt>
      <trkpt lat="50.39134" lon="1.65108">
        <ele>7.8</ele>
        <time>2020-06-18T18:18:42Z</time>
      </trkpt>
      <trkpt lat="50.39142" lon="1.65109">
        <ele>7.7</ele>
        <time>2020-06-18T18:18:43Z</time>
      </trkpt>
      <trkpt lat="50.3915" lon="1.65109">
        <ele>7.6</ele>
        <time>2020-06-18T18:18:44Z</time>
      </trkpt>
      <trkpt lat="50.39158" lon="1.65109">
        <ele>7.4</ele>
        <time>2020-06-18T18:18:45Z</time>
      </trkpt>
      <trkpt lat="50.39166" lon="1.65109">
        <ele>7.3</ele>
        <time>2020-06-18T18:18:46Z</time>
      </trkpt>
      <trkpt lat="50.39175" lon="1.65109">
        <ele>7.1</ele>
        <time>2020-06-18T18:18:47Z</time>
      </trkpt>
      <trkpt lat="50.39183" lon="1.65108">
        <ele>7</ele>
        <time>2020-06-18T18:18:48Z</time>
      </trkpt>
      <trkpt lat="50.39192" lon="1.65107">
        <ele>6.8</ele>
        <time>2020-06-18T18:18:49Z</time>
      </trkpt>
      <trkpt lat="50.392" lon="1.65108">
        <ele>6.7</ele>
        <time>2020-06-18T18:18:50Z</time>
      </trkpt>
      <trkpt lat="50.39209" lon="1.65107">
        <ele>6.6</ele>
        <time>2020-06-18T18:18:51Z</time>
      </trkpt>
      <trkpt lat="50.39217" lon="1.65108">
        <ele>6.6</ele>
        <time>2020-06-18T18:18:52Z</time>
      </trkpt>
      <trkpt lat="50.39226" lon="1.65107">
        <ele>6.5</ele>
        <time>2020-06-18T18:18:53Z</time>
      </trkpt>
      <trkpt lat="50.39235" lon="1.65106">
        <ele>6.5</ele>
        <time>2020-06-18T18:18:54Z</time>
      </trkpt>
      <trkpt lat="50.39243" lon="1.65104">
        <ele>6.5</ele>
        <time>2020-06-18T18:18:55Z</time>
      </trkpt>
      <trkpt lat="50.39251" lon="1.65102">
        <ele>6.4</ele>
        <time>2020-06-18T18:18:56Z</time>
      </trkpt>
      <trkpt lat="50.3926" lon="1.651">
        <ele>6.4</ele>
        <time>2020-06-18T18:18:57Z</time>
      </trkpt>
      <trkpt lat="50.39268" lon="1.65099">
        <ele>6.4</ele>
        <time>2020-06-18T18:18:58Z</time>
      </trkpt>
      <trkpt lat="50.39277" lon="1.65096">
        <ele>6.4</ele>
        <time>2020-06-18T18:18:59Z</time>
      </trkpt>
      <trkpt lat="50.39285" lon="1.65093">
        <ele>6.5</ele>
        <time>2020-06-18T18:19:00Z</time>
      </trkpt>
      <trkpt lat="50.39294" lon="1.65091">
        <ele>6.4</ele>
        <time>2020-06-18T18:19:01Z</time>
      </trkpt>
      <trkpt lat="50.39302" lon="1.65089">
        <ele>6.3</ele>
        <time>2020-06-18T18:19:02Z</time>
      </trkpt>
      <trkpt lat="50.39311" lon="1.65087">
        <ele>6.3</ele>
        <time>2020-06-18T18:19:03Z</time>
      </trkpt>
      <trkpt lat="50.39319" lon="1.65085">
        <ele>6.3</ele>
        <time>2020-06-18T18:19:04Z</time>
      </trkpt>
      <trkpt lat="50.39327" lon="1.65084">
        <ele>6.3</ele>
        <time>2020-06-18T18:19:05Z</time>
      </trkpt>
      <trkpt lat="50.39335" lon="1.65081">
        <ele>6.4</ele>
        <time>2020-06-18T18:19:06Z</time>
      </trkpt>
      <trkpt lat="50.39343" lon="1.65078">
        <ele>6.4</ele>
        <time>2020-06-18T18:19:07Z</time>
      </trkpt>
      <trkpt lat="50.39351" lon="1.65076">
        <ele>6.5</ele>
        <time>2020-06-18T18:19:08Z</time>
      </trkpt>
      <trkpt lat="50.39359" lon="1.65074">
        <ele>6.5</ele>
        <time>2020-06-18T18:19:09Z</time>
      </trkpt>
      <trkpt lat="50.39366" lon="1.65072">
        <ele>6.5</ele>
        <time>2020-06-18T18:19:10Z</time>
      </trkpt>
      <trkpt lat="50.39374" lon="1.6507">
        <ele>6.5</ele>
        <time>2020-06-18T18:19:11Z</time>
      </trkpt>
      <trkpt lat="50.39382" lon="1.65068">
        <ele>6.6</ele>
        <time>2020-06-18T18:19:12Z</time>
      </trkpt>
      <trkpt lat="50.39389" lon="1.65067">
        <ele>6.6</ele>
        <time>2020-06-18T18:19:13Z</time>
      </trkpt>
      <trkpt lat="50.39397" lon="1.65065">
        <ele>6.6</ele>
        <time>2020-06-18T18:19:14Z</time>
      </trkpt>
      <trkpt lat="50.39405" lon="1.65063">
        <ele>6.6</ele>
        <time>2020-06-18T18:19:15Z</time>
      </trkpt>
      <trkpt lat="50.39412" lon="1.65061">
        <ele>6.6</ele>
        <time>2020-06-18T18:19:16Z</time>
      </trkpt>
      <trkpt lat="50.3942" lon="1.65059">
        <ele>6.5</ele>
        <time>2020-06-18T18:19:17Z</time>
      </trkpt>
      <trkpt lat="50.39428" lon="1.65057">
        <ele>6.5</ele>
        <time>2020-06-18T18:19:18Z</time>
      </trkpt>
      <trkpt lat="50.39435" lon="1.65055">
        <ele>6.5</ele>
        <time>2020-06-18T18:19:19Z</time>
      </trkpt>
      <trkpt lat="50.39443" lon="1.65051">
        <ele>6.5</ele>
        <time>2020-06-18T18:19:20Z</time>
      </trkpt>
      <trkpt lat="50.39451" lon="1.65049">
        <ele>6.5</ele>
        <time>2020-06-18T18:19:21Z</time>
      </trkpt>
      <trkpt lat="50.39459" lon="1.65047">
        <ele>6.6</ele>
        <time>2020-06-18T18:19:22Z</time>
      </trkpt>
      <trkpt lat="50.39467" lon="1.65046">
        <ele>6.6</ele>
        <time>2020-06-18T18:19:23Z</time>
      </trkpt>
      <trkpt lat="50.39474" lon="1.65044">
        <ele>6.6</ele>
        <time>2020-06-18T18:19:24Z</time>
      </trkpt>
      <trkpt lat="50.39482" lon="1.65042">
        <ele>6.6</ele>
        <time>2020-06-18T18:19:25Z</time>
      </trkpt>
      <trkpt lat="50.3949" lon="1.65041">
        <ele>6.5</ele>
        <time>2020-06-18T18:19:26Z</time>
      </trkpt>
      <trkpt lat="50.39497" lon="1.65038">
        <ele>6.5</ele>
        <time>2020-06-18T18:19:27Z</time>
      </trkpt>
      <trkpt lat="50.39505" lon="1.65036">
        <ele>6.5</ele>
        <time>2020-06-18T18:19:28Z</time>
      </trkpt>
      <trkpt lat="50.39513" lon="1.65031">
        <ele>6.4</ele>
        <time>2020-06-18T18:19:29Z</time>
      </trkpt>
      <trkpt lat="50.39521" lon="1.65028">
        <ele>6.4</ele>
        <time>2020-06-18T18:19:30Z</time>
      </trkpt>
      <trkpt lat="50.39529" lon="1.65026">
        <ele>6.4</ele>
        <time>2020-06-18T18:19:31Z</time>
      </trkpt>
      <trkpt lat="50.39537" lon="1.65022">
        <ele>6.5</ele>
        <time>2020-06-18T18:19:32Z</time>
      </trkpt>
      <trkpt lat="50.39545" lon="1.65019">
        <ele>6.3</ele>
        <time>2020-06-18T18:19:33Z</time>
      </trkpt>
      <trkpt lat="50.39553" lon="1.65016">
        <ele>6.3</ele>
        <time>2020-06-18T18:19:34Z</time>
      </trkpt>
      <trkpt lat="50.39561" lon="1.65013">
        <ele>6.3</ele>
        <time>2020-06-18T18:19:35Z</time>
      </trkpt>
      <trkpt lat="50.39569" lon="1.65009">
        <ele>6.3</ele>
        <time>2020-06-18T18:19:36Z</time>
      </trkpt>
      <trkpt lat="50.39578" lon="1.65006">
        <ele>6.3</ele>
        <time>2020-06-18T18:19:37Z</time>
      </trkpt>
      <trkpt lat="50.39586" lon="1.65002">
        <ele>6.4</ele>
        <time>2020-06-18T18:19:38Z</time>
      </trkpt>
      <trkpt lat="50.39594" lon="1.64998">
        <ele>6.4</ele>
        <time>2020-06-18T18:19:39Z</time>
      </trkpt>
      <trkpt lat="50.39602" lon="1.64995">
        <ele>6.5</ele>
        <time>2020-06-18T18:19:40Z</time>
      </trkpt>
      <trkpt lat="50.3961" lon="1.64991">
        <ele>6.5</ele>
        <time>2020-06-18T18:19:41Z</time>
      </trkpt>
      <trkpt lat="50.39619" lon="1.64986">
        <ele>6.5</ele>
        <time>2020-06-18T18:19:42Z</time>
      </trkpt>
      <trkpt lat="50.39627" lon="1.64983">
        <ele>6.6</ele>
        <time>2020-06-18T18:19:43Z</time>
      </trkpt>
      <trkpt lat="50.39635" lon="1.64979">
        <ele>6.6</ele>
        <time>2020-06-18T18:19:44Z</time>
      </trkpt>
      <trkpt lat="50.39643" lon="1.64975">
        <ele>6.7</ele>
        <time>2020-06-18T18:19:45Z</time>
      </trkpt>
      <trkpt lat="50.39651" lon="1.64971">
        <ele>6.8</ele>
        <time>2020-06-18T18:19:46Z</time>
      </trkpt>
      <trkpt lat="50.3966" lon="1.64967">
        <ele>6.8</ele>
        <time>2020-06-18T18:19:47Z</time>
      </trkpt>
      <trkpt lat="50.39667" lon="1.64962">
        <ele>6.8</ele>
        <time>2020-06-18T18:19:48Z</time>
      </trkpt>
      <trkpt lat="50.39675" lon="1.64958">
        <ele>6.9</ele>
        <time>2020-06-18T18:19:49Z</time>
      </trkpt>
      <trkpt lat="50.39682" lon="1.64954">
        <ele>6.9</ele>
        <time>2020-06-18T18:19:50Z</time>
      </trkpt>
      <trkpt lat="50.39689" lon="1.6495">
        <ele>6.9</ele>
        <time>2020-06-18T18:19:51Z</time>
      </trkpt>
      <trkpt lat="50.39696" lon="1.64946">
        <ele>7</ele>
        <time>2020-06-18T18:19:52Z</time>
      </trkpt>
      <trkpt lat="50.39704" lon="1.64942">
        <ele>7</ele>
        <time>2020-06-18T18:19:53Z</time>
      </trkpt>
      <trkpt lat="50.39711" lon="1.64939">
        <ele>7.1</ele>
        <time>2020-06-18T18:19:54Z</time>
      </trkpt>
      <trkpt lat="50.39718" lon="1.64936">
        <ele>7.1</ele>
        <time>2020-06-18T18:19:55Z</time>
      </trkpt>
      <trkpt lat="50.39725" lon="1.64932">
        <ele>7.1</ele>
        <time>2020-06-18T18:19:56Z</time>
      </trkpt>
      <trkpt lat="50.39732" lon="1.64929">
        <ele>7.1</ele>
        <time>2020-06-18T18:19:57Z</time>
      </trkpt>
      <trkpt lat="50.39739" lon="1.64927">
        <ele>7.1</ele>
        <time>2020-06-18T18:19:58Z</time>
      </trkpt>
      <trkpt lat="50.39745" lon="1.64925">
        <ele>7.2</ele>
        <time>2020-06-18T18:19:59Z</time>
      </trkpt>
      <trkpt lat="50.39752" lon="1.64922">
        <ele>7.2</ele>
        <time>2020-06-18T18:20:00Z</time>
      </trkpt>
      <trkpt lat="50.39759" lon="1.64919">
        <ele>7.3</ele>
        <time>2020-06-18T18:20:01Z</time>
      </trkpt>
      <trkpt lat="50.39766" lon="1.64918">
        <ele>7.3</ele>
        <time>2020-06-18T18:20:02Z</time>
      </trkpt>
      <trkpt lat="50.39773" lon="1.64916">
        <ele>7.4</ele>
        <time>2020-06-18T18:20:03Z</time>
      </trkpt>
      <trkpt lat="50.3978" lon="1.64914">
        <ele>7.4</ele>
        <time>2020-06-18T18:20:04Z</time>
      </trkpt>
      <trkpt lat="50.39787" lon="1.64912">
        <ele>7.5</ele>
        <time>2020-06-18T18:20:05Z</time>
      </trkpt>
      <trkpt lat="50.39794" lon="1.6491">
        <ele>7.6</ele>
        <time>2020-06-18T18:20:06Z</time>
      </trkpt>
      <trkpt lat="50.398" lon="1.64909">
        <ele>7.6</ele>
        <time>2020-06-18T18:20:07Z</time>
      </trkpt>
      <trkpt lat="50.39807" lon="1.64907">
        <ele>7.7</ele>
        <time>2020-06-18T18:20:08Z</time>
      </trkpt>
      <trkpt lat="50.39814" lon="1.64905">
        <ele>7.8</ele>
        <time>2020-06-18T18:20:09Z</time>
      </trkpt>
      <trkpt lat="50.39821" lon="1.64904">
        <ele>7.8</ele>
        <time>2020-06-18T18:20:10Z</time>
      </trkpt>
      <trkpt lat="50.39828" lon="1.64903">
        <ele>7.9</ele>
        <time>2020-06-18T18:20:11Z</time>
      </trkpt>
      <trkpt lat="50.39835" lon="1.64902">
        <ele>8</ele>
        <time>2020-06-18T18:20:12Z</time>
      </trkpt>
      <trkpt lat="50.39842" lon="1.64901">
        <ele>8.1</ele>
        <time>2020-06-18T18:20:13Z</time>
      </trkpt>
      <trkpt lat="50.39849" lon="1.64901">
        <ele>8.1</ele>
        <time>2020-06-18T18:20:14Z</time>
      </trkpt>
      <trkpt lat="50.39856" lon="1.649">
        <ele>8.2</ele>
        <time>2020-06-18T18:20:15Z</time>
      </trkpt>
      <trkpt lat="50.39863" lon="1.649">
        <ele>8.3</ele>
        <time>2020-06-18T18:20:16Z</time>
      </trkpt>
      <trkpt lat="50.3987" lon="1.649">
        <ele>8.3</ele>
        <time>2020-06-18T18:20:17Z</time>
      </trkpt>
      <trkpt lat="50.39877" lon="1.64899">
        <ele>8.3</ele>
        <time>2020-06-18T18:20:18Z</time>
      </trkpt>
      <trkpt lat="50.39884" lon="1.64898">
        <ele>8.4</ele>
        <time>2020-06-18T18:20:19Z</time>
      </trkpt>
      <trkpt lat="50.39891" lon="1.64897">
        <ele>8.5</ele>
        <time>2020-06-18T18:20:20Z</time>
      </trkpt>
      <trkpt lat="50.39899" lon="1.64897">
        <ele>8.6</ele>
        <time>2020-06-18T18:20:21Z</time>
      </trkpt>
      <trkpt lat="50.39906" lon="1.64896">
        <ele>8.7</ele>
        <time>2020-06-18T18:20:22Z</time>
      </trkpt>
      <trkpt lat="50.39913" lon="1.64897">
        <ele>8.8</ele>
        <time>2020-06-18T18:20:23Z</time>
      </trkpt>
      <trkpt lat="50.39921" lon="1.64898">
        <ele>8.8</ele>
        <time>2020-06-18T18:20:24Z</time>
      </trkpt>
      <trkpt lat="50.39928" lon="1.64899">
        <ele>8.9</ele>
        <time>2020-06-18T18:20:25Z</time>
      </trkpt>
      <trkpt lat="50.39935" lon="1.649">
        <ele>9</ele>
        <time>2020-06-18T18:20:26Z</time>
      </trkpt>
      <trkpt lat="50.39942" lon="1.64901">
        <ele>9</ele>
        <time>2020-06-18T18:20:27Z</time>
      </trkpt>
      <trkpt lat="50.39949" lon="1.64902">
        <ele>9</ele>
        <time>2020-06-18T18:20:28Z</time>
      </trkpt>
      <trkpt lat="50.39956" lon="1.64903">
        <ele>9</ele>
        <time>2020-06-18T18:20:29Z</time>
      </trkpt>
      <trkpt lat="50.39963" lon="1.64904">
        <ele>9</ele>
        <time>2020-06-18T18:20:30Z</time>
      </trkpt>
      <trkpt lat="50.3997" lon="1.64905">
        <ele>9</ele>
        <time>2020-06-18T18:20:31Z</time>
      </trkpt>
      <trkpt lat="50.39977" lon="1.64906">
        <ele>9.1</ele>
        <time>2020-06-18T18:20:32Z</time>
      </trkpt>
      <trkpt lat="50.39984" lon="1.64907">
        <ele>9.1</ele>
        <time>2020-06-18T18:20:33Z</time>
      </trkpt>
      <trkpt lat="50.39992" lon="1.64909">
        <ele>9.2</ele>
        <time>2020-06-18T18:20:34Z</time>
      </trkpt>
      <trkpt lat="50.39999" lon="1.64909">
        <ele>9.2</ele>
        <time>2020-06-18T18:20:35Z</time>
      </trkpt>
      <trkpt lat="50.40006" lon="1.6491">
        <ele>9.2</ele>
        <time>2020-06-18T18:20:36Z</time>
      </trkpt>
      <trkpt lat="50.40013" lon="1.64912">
        <ele>9.3</ele>
        <time>2020-06-18T18:20:37Z</time>
      </trkpt>
      <trkpt lat="50.4002" lon="1.64913">
        <ele>9.3</ele>
        <time>2020-06-18T18:20:38Z</time>
      </trkpt>
      <trkpt lat="50.40027" lon="1.64914">
        <ele>9.4</ele>
        <time>2020-06-18T18:20:39Z</time>
      </trkpt>
      <trkpt lat="50.40034" lon="1.64915">
        <ele>9.4</ele>
        <time>2020-06-18T18:20:40Z</time>
      </trkpt>
      <trkpt lat="50.40041" lon="1.64916">
        <ele>9.5</ele>
        <time>2020-06-18T18:20:41Z</time>
      </trkpt>
      <trkpt lat="50.40048" lon="1.64917">
        <ele>9.5</ele>
        <time>2020-06-18T18:20:42Z</time>
      </trkpt>
      <trkpt lat="50.40056" lon="1.64919">
        <ele>9.6</ele>
        <time>2020-06-18T18:20:43Z</time>
      </trkpt>
      <trkpt lat="50.40063" lon="1.64921">
        <ele>9.6</ele>
        <time>2020-06-18T18:20:44Z</time>
      </trkpt>
      <trkpt lat="50.40071" lon="1.64923">
        <ele>9.7</ele>
        <time>2020-06-18T18:20:45Z</time>
      </trkpt>
      <trkpt lat="50.40078" lon="1.64925">
        <ele>9.8</ele>
        <time>2020-06-18T18:20:46Z</time>
      </trkpt>
      <trkpt lat="50.40084" lon="1.64928">
        <ele>9.9</ele>
        <time>2020-06-18T18:20:47Z</time>
      </trkpt>
      <trkpt lat="50.40091" lon="1.64933">
        <ele>10</ele>
        <time>2020-06-18T18:20:48Z</time>
      </trkpt>
      <trkpt lat="50.40099" lon="1.64936">
        <ele>10.1</ele>
        <time>2020-06-18T18:20:49Z</time>
      </trkpt>
      <trkpt lat="50.40105" lon="1.64942">
        <ele>10.2</ele>
        <time>2020-06-18T18:20:50Z</time>
      </trkpt>
      <trkpt lat="50.40112" lon="1.64946">
        <ele>10.3</ele>
        <time>2020-06-18T18:20:51Z</time>
      </trkpt>
      <trkpt lat="50.40118" lon="1.64951">
        <ele>10.3</ele>
        <time>2020-06-18T18:20:52Z</time>
      </trkpt>
      <trkpt lat="50.40124" lon="1.64956">
        <ele>10.4</ele>
        <time>2020-06-18T18:20:53Z</time>
      </trkpt>
      <trkpt lat="50.4013" lon="1.64961">
        <ele>10.5</ele>
        <time>2020-06-18T18:20:54Z</time>
      </trkpt>
      <trkpt lat="50.40136" lon="1.64965">
        <ele>10.5</ele>
        <time>2020-06-18T18:20:55Z</time>
      </trkpt>
      <trkpt lat="50.40143" lon="1.64969">
        <ele>10.6</ele>
        <time>2020-06-18T18:20:56Z</time>
      </trkpt>
      <trkpt lat="50.4015" lon="1.64971">
        <ele>10.6</ele>
        <time>2020-06-18T18:20:57Z</time>
      </trkpt>
      <trkpt lat="50.40156" lon="1.64975">
        <ele>10.7</ele>
        <time>2020-06-18T18:20:58Z</time>
      </trkpt>
      <trkpt lat="50.40163" lon="1.64977">
        <ele>10.7</ele>
        <time>2020-06-18T18:20:59Z</time>
      </trkpt>
      <trkpt lat="50.4017" lon="1.64979">
        <ele>10.8</ele>
        <time>2020-06-18T18:21:00Z</time>
      </trkpt>
      <trkpt lat="50.40176" lon="1.64981">
        <ele>10.8</ele>
        <time>2020-06-18T18:21:01Z</time>
      </trkpt>
      <trkpt lat="50.40183" lon="1.64983">
        <ele>10.9</ele>
        <time>2020-06-18T18:21:02Z</time>
      </trkpt>
      <trkpt lat="50.4019" lon="1.64985">
        <ele>11</ele>
        <time>2020-06-18T18:21:03Z</time>
      </trkpt>
      <trkpt lat="50.40196" lon="1.64987">
        <ele>11</ele>
        <time>2020-06-18T18:21:04Z</time>
      </trkpt>
      <trkpt lat="50.40202" lon="1.64988">
        <ele>11</ele>
        <time>2020-06-18T18:21:05Z</time>
      </trkpt>
      <trkpt lat="50.40209" lon="1.6499">
        <ele>11.1</ele>
        <time>2020-06-18T18:21:06Z</time>
      </trkpt>
      <trkpt lat="50.40216" lon="1.64992">
        <ele>11.1</ele>
        <time>2020-06-18T18:21:07Z</time>
      </trkpt>
      <trkpt lat="50.40222" lon="1.64992">
        <ele>11.1</ele>
        <time>2020-06-18T18:21:08Z</time>
      </trkpt>
      <trkpt lat="50.40229" lon="1.64992">
        <ele>11.1</ele>
        <time>2020-06-18T18:21:09Z</time>
      </trkpt>
      <trkpt lat="50.40237" lon="1.64993">
        <ele>11.1</ele>
        <time>2020-06-18T18:21:10Z</time>
      </trkpt>
      <trkpt lat="50.40244" lon="1.64994">
        <ele>11</ele>
        <time>2020-06-18T18:21:11Z</time>
      </trkpt>
      <trkpt lat="50.40251" lon="1.64995">
        <ele>11</ele>
        <time>2020-06-18T18:21:12Z</time>
      </trkpt>
      <trkpt lat="50.40258" lon="1.64995">
        <ele>11</ele>
        <time>2020-06-18T18:21:13Z</time>
      </trkpt>
      <trkpt lat="50.40265" lon="1.64994">
        <ele>11</ele>
        <time>2020-06-18T18:21:14Z</time>
      </trkpt>
      <trkpt lat="50.40273" lon="1.64994">
        <ele>11</ele>
        <time>2020-06-18T18:21:15Z</time>
      </trkpt>
      <trkpt lat="50.4028" lon="1.64994">
        <ele>11</ele>
        <time>2020-06-18T18:21:16Z</time>
      </trkpt>
      <trkpt lat="50.40287" lon="1.64993">
        <ele>11</ele>
        <time>2020-06-18T18:21:17Z</time>
      </trkpt>
      <trkpt lat="50.40295" lon="1.64992">
        <ele>11</ele>
        <time>2020-06-18T18:21:18Z</time>
      </trkpt>
      <trkpt lat="50.40302" lon="1.64994">
        <ele>11</ele>
        <time>2020-06-18T18:21:19Z</time>
      </trkpt>
      <trkpt lat="50.40309" lon="1.64994">
        <ele>11</ele>
        <time>2020-06-18T18:21:20Z</time>
      </trkpt>
      <trkpt lat="50.40316" lon="1.64995">
        <ele>10.9</ele>
        <time>2020-06-18T18:21:21Z</time>
      </trkpt>
      <trkpt lat="50.40323" lon="1.64995">
        <ele>10.9</ele>
        <time>2020-06-18T18:21:22Z</time>
      </trkpt>
      <trkpt lat="50.4033" lon="1.64997">
        <ele>10.8</ele>
        <time>2020-06-18T18:21:23Z</time>
      </trkpt>
      <trkpt lat="50.40337" lon="1.64997">
        <ele>10.8</ele>
        <time>2020-06-18T18:21:24Z</time>
      </trkpt>
      <trkpt lat="50.40344" lon="1.65">
        <ele>10.7</ele>
        <time>2020-06-18T18:21:25Z</time>
      </trkpt>
      <trkpt lat="50.40352" lon="1.65">
        <ele>10.7</ele>
        <time>2020-06-18T18:21:26Z</time>
      </trkpt>
      <trkpt lat="50.4036" lon="1.64998">
        <ele>10.6</ele>
        <time>2020-06-18T18:21:27Z</time>
      </trkpt>
      <trkpt lat="50.40367" lon="1.64997">
        <ele>10.5</ele>
        <time>2020-06-18T18:21:28Z</time>
      </trkpt>
      <trkpt lat="50.40375" lon="1.64997">
        <ele>10.5</ele>
        <time>2020-06-18T18:21:29Z</time>
      </trkpt>
      <trkpt lat="50.40382" lon="1.64995">
        <ele>10.4</ele>
        <time>2020-06-18T18:21:30Z</time>
      </trkpt>
      <trkpt lat="50.40391" lon="1.64994">
        <ele>10.3</ele>
        <time>2020-06-18T18:21:31Z</time>
      </trkpt>
      <trkpt lat="50.40399" lon="1.6499">
        <ele>10.2</ele>
        <time>2020-06-18T18:21:32Z</time>
      </trkpt>
      <trkpt lat="50.40406" lon="1.64986">
        <ele>10.1</ele>
        <time>2020-06-18T18:21:33Z</time>
      </trkpt>
      <trkpt lat="50.40414" lon="1.64983">
        <ele>10.1</ele>
        <time>2020-06-18T18:21:34Z</time>
      </trkpt>
      <trkpt lat="50.40421" lon="1.64978">
        <ele>10.1</ele>
        <time>2020-06-18T18:21:35Z</time>
      </trkpt>
      <trkpt lat="50.40428" lon="1.64972">
        <ele>10</ele>
        <time>2020-06-18T18:21:36Z</time>
      </trkpt>
      <trkpt lat="50.40435" lon="1.64965">
        <ele>10</ele>
        <time>2020-06-18T18:21:37Z</time>
      </trkpt>
      <trkpt lat="50.40442" lon="1.64957">
        <ele>9.9</ele>
        <time>2020-06-18T18:21:38Z</time>
      </trkpt>
      <trkpt lat="50.40449" lon="1.6495">
        <ele>9.9</ele>
        <time>2020-06-18T18:21:39Z</time>
      </trkpt>
      <trkpt lat="50.40455" lon="1.64944">
        <ele>9.9</ele>
        <time>2020-06-18T18:21:40Z</time>
      </trkpt>
      <trkpt lat="50.40462" lon="1.64938">
        <ele>9.9</ele>
        <time>2020-06-18T18:21:41Z</time>
      </trkpt>
      <trkpt lat="50.40468" lon="1.64931">
        <ele>9.9</ele>
        <time>2020-06-18T18:21:42Z</time>
      </trkpt>
      <trkpt lat="50.40474" lon="1.64923">
        <ele>9.9</ele>
        <time>2020-06-18T18:21:43Z</time>
      </trkpt>
      <trkpt lat="50.40479" lon="1.64914">
        <ele>9.9</ele>
        <time>2020-06-18T18:21:44Z</time>
      </trkpt>
      <trkpt lat="50.40485" lon="1.64905">
        <ele>9.9</ele>
        <time>2020-06-18T18:21:45Z</time>
      </trkpt>
      <trkpt lat="50.40491" lon="1.64896">
        <ele>9.9</ele>
        <time>2020-06-18T18:21:46Z</time>
      </trkpt>
      <trkpt lat="50.40497" lon="1.64887">
        <ele>9.8</ele>
        <time>2020-06-18T18:21:47Z</time>
      </trkpt>
      <trkpt lat="50.40504" lon="1.64879">
        <ele>9.8</ele>
        <time>2020-06-18T18:21:48Z</time>
      </trkpt>
      <trkpt lat="50.4051" lon="1.64871">
        <ele>9.8</ele>
        <time>2020-06-18T18:21:49Z</time>
      </trkpt>
      <trkpt lat="50.40517" lon="1.64863">
        <ele>9.8</ele>
        <time>2020-06-18T18:21:50Z</time>
      </trkpt>
      <trkpt lat="50.40523" lon="1.64854">
        <ele>9.8</ele>
        <time>2020-06-18T18:21:51Z</time>
      </trkpt>
      <trkpt lat="50.40529" lon="1.64846">
        <ele>9.8</ele>
        <time>2020-06-18T18:21:52Z</time>
      </trkpt>
      <trkpt lat="50.40535" lon="1.64839">
        <ele>9.8</ele>
        <time>2020-06-18T18:21:53Z</time>
      </trkpt>
      <trkpt lat="50.40542" lon="1.6483">
        <ele>9.7</ele>
        <time>2020-06-18T18:21:54Z</time>
      </trkpt>
      <trkpt lat="50.40548" lon="1.64822">
        <ele>9.7</ele>
        <time>2020-06-18T18:21:55Z</time>
      </trkpt>
      <trkpt lat="50.40554" lon="1.64814">
        <ele>9.7</ele>
        <time>2020-06-18T18:21:56Z</time>
      </trkpt>
      <trkpt lat="50.4056" lon="1.64805">
        <ele>9.7</ele>
        <time>2020-06-18T18:21:57Z</time>
      </trkpt>
      <trkpt lat="50.40566" lon="1.64798">
        <ele>9.7</ele>
        <time>2020-06-18T18:21:58Z</time>
      </trkpt>
      <trkpt lat="50.40573" lon="1.64791">
        <ele>9.6</ele>
        <time>2020-06-18T18:21:59Z</time>
      </trkpt>
      <trkpt lat="50.4058" lon="1.64785">
        <ele>9.6</ele>
        <time>2020-06-18T18:22:00Z</time>
      </trkpt>
      <trkpt lat="50.40586" lon="1.6478">
        <ele>9.6</ele>
        <time>2020-06-18T18:22:01Z</time>
      </trkpt>
      <trkpt lat="50.40593" lon="1.64775">
        <ele>9.7</ele>
        <time>2020-06-18T18:22:02Z</time>
      </trkpt>
      <trkpt lat="50.406" lon="1.6477">
        <ele>9.8</ele>
        <time>2020-06-18T18:22:03Z</time>
      </trkpt>
      <trkpt lat="50.40607" lon="1.64765">
        <ele>9.7</ele>
        <time>2020-06-18T18:22:04Z</time>
      </trkpt>
      <trkpt lat="50.40614" lon="1.64762">
        <ele>9.7</ele>
        <time>2020-06-18T18:22:05Z</time>
      </trkpt>
      <trkpt lat="50.40621" lon="1.64758">
        <ele>9.7</ele>
        <time>2020-06-18T18:22:06Z</time>
      </trkpt>
      <trkpt lat="50.40628" lon="1.64755">
        <ele>9.7</ele>
        <time>2020-06-18T18:22:07Z</time>
      </trkpt>
      <trkpt lat="50.40636" lon="1.64753">
        <ele>9.6</ele>
        <time>2020-06-18T18:22:08Z</time>
      </trkpt>
      <trkpt lat="50.40643" lon="1.64751">
        <ele>9.6</ele>
        <time>2020-06-18T18:22:09Z</time>
      </trkpt>
      <trkpt lat="50.4065" lon="1.6475">
        <ele>9.5</ele>
        <time>2020-06-18T18:22:10Z</time>
      </trkpt>
      <trkpt lat="50.40657" lon="1.6475">
        <ele>9.5</ele>
        <time>2020-06-18T18:22:11Z</time>
      </trkpt>
      <trkpt lat="50.40664" lon="1.64751">
        <ele>9.5</ele>
        <time>2020-06-18T18:22:12Z</time>
      </trkpt>
      <trkpt lat="50.40672" lon="1.64751">
        <ele>9.5</ele>
        <time>2020-06-18T18:22:13Z</time>
      </trkpt>
      <trkpt lat="50.40679" lon="1.64753">
        <ele>9.5</ele>
        <time>2020-06-18T18:22:14Z</time>
      </trkpt>
      <trkpt lat="50.40687" lon="1.64752">
        <ele>9.4</ele>
        <time>2020-06-18T18:22:15Z</time>
      </trkpt>
      <trkpt lat="50.40694" lon="1.64752">
        <ele>9.4</ele>
        <time>2020-06-18T18:22:16Z</time>
      </trkpt>
      <trkpt lat="50.40702" lon="1.64751">
        <ele>9.4</ele>
        <time>2020-06-18T18:22:17Z</time>
      </trkpt>
      <trkpt lat="50.40709" lon="1.64749">
        <ele>9.4</ele>
        <time>2020-06-18T18:22:18Z</time>
      </trkpt>
      <trkpt lat="50.40715" lon="1.64748">
        <ele>9.3</ele>
        <time>2020-06-18T18:22:19Z</time>
      </trkpt>
      <trkpt lat="50.40722" lon="1.64747">
        <ele>9.3</ele>
        <time>2020-06-18T18:22:20Z</time>
      </trkpt>
      <trkpt lat="50.40729" lon="1.64745">
        <ele>9.3</ele>
        <time>2020-06-18T18:22:21Z</time>
      </trkpt>
      <trkpt lat="50.40737" lon="1.64745">
        <ele>9.3</ele>
        <time>2020-06-18T18:22:22Z</time>
      </trkpt>
      <trkpt lat="50.40744" lon="1.64745">
        <ele>9.4</ele>
        <time>2020-06-18T18:22:23Z</time>
      </trkpt>
      <trkpt lat="50.40751" lon="1.64745">
        <ele>9.4</ele>
        <time>2020-06-18T18:22:24Z</time>
      </trkpt>
      <trkpt lat="50.40759" lon="1.64748">
        <ele>9.5</ele>
        <time>2020-06-18T18:22:25Z</time>
      </trkpt>
      <trkpt lat="50.40765" lon="1.64754">
        <ele>9.4</ele>
        <time>2020-06-18T18:22:26Z</time>
      </trkpt>
      <trkpt lat="50.40771" lon="1.6476">
        <ele>9.5</ele>
        <time>2020-06-18T18:22:27Z</time>
      </trkpt>
      <trkpt lat="50.40777" lon="1.64767">
        <ele>9.7</ele>
        <time>2020-06-18T18:22:28Z</time>
      </trkpt>
      <trkpt lat="50.4078" lon="1.64778">
        <ele>9.8</ele>
        <time>2020-06-18T18:22:29Z</time>
      </trkpt>
      <trkpt lat="50.4078" lon="1.6479">
        <ele>9.6</ele>
        <time>2020-06-18T18:22:30Z</time>
      </trkpt>
      <trkpt lat="50.40781" lon="1.64801">
        <ele>9.5</ele>
        <time>2020-06-18T18:22:31Z</time>
      </trkpt>
      <trkpt lat="50.40782" lon="1.64812">
        <ele>9.4</ele>
        <time>2020-06-18T18:22:32Z</time>
      </trkpt>
      <trkpt lat="50.40782" lon="1.64823">
        <ele>9.4</ele>
        <time>2020-06-18T18:22:33Z</time>
      </trkpt>
      <trkpt lat="50.40783" lon="1.64833">
        <ele>9.5</ele>
        <time>2020-06-18T18:22:34Z</time>
      </trkpt>
      <trkpt lat="50.40783" lon="1.64843">
        <ele>9.5</ele>
        <time>2020-06-18T18:22:35Z</time>
      </trkpt>
      <trkpt lat="50.40783" lon="1.64853">
        <ele>9.6</ele>
        <time>2020-06-18T18:22:36Z</time>
      </trkpt>
      <trkpt lat="50.40783" lon="1.64862">
        <ele>9.6</ele>
        <time>2020-06-18T18:22:37Z</time>
      </trkpt>
      <trkpt lat="50.40783" lon="1.64872">
        <ele>9.6</ele>
        <time>2020-06-18T18:22:38Z</time>
      </trkpt>
      <trkpt lat="50.40783" lon="1.64881">
        <ele>9.6</ele>
        <time>2020-06-18T18:22:39Z</time>
      </trkpt>
      <trkpt lat="50.40783" lon="1.64891">
        <ele>9.5</ele>
        <time>2020-06-18T18:22:40Z</time>
      </trkpt>
      <trkpt lat="50.40782" lon="1.64901">
        <ele>9.5</ele>
        <time>2020-06-18T18:22:41Z</time>
      </trkpt>
      <trkpt lat="50.40782" lon="1.64912">
        <ele>9.5</ele>
        <time>2020-06-18T18:22:42Z</time>
      </trkpt>
      <trkpt lat="50.40782" lon="1.64926">
        <ele>9.4</ele>
        <time>2020-06-18T18:22:43Z</time>
      </trkpt>
      <trkpt lat="50.40783" lon="1.64938">
        <ele>9.3</ele>
        <time>2020-06-18T18:22:44Z</time>
      </trkpt>
      <trkpt lat="50.40782" lon="1.6495">
        <ele>9.1</ele>
        <time>2020-06-18T18:22:45Z</time>
      </trkpt>
      <trkpt lat="50.40782" lon="1.64965">
        <ele>8.8</ele>
        <time>2020-06-18T18:22:46Z</time>
      </trkpt>
      <trkpt lat="50.40782" lon="1.64979">
        <ele>8.6</ele>
        <time>2020-06-18T18:22:47Z</time>
      </trkpt>
      <trkpt lat="50.40783" lon="1.64994">
        <ele>8.5</ele>
        <time>2020-06-18T18:22:48Z</time>
      </trkpt>
      <trkpt lat="50.40783" lon="1.65008">
        <ele>8.3</ele>
        <time>2020-06-18T18:22:49Z</time>
      </trkpt>
      <trkpt lat="50.40783" lon="1.65022">
        <ele>8</ele>
        <time>2020-06-18T18:22:50Z</time>
      </trkpt>
      <trkpt lat="50.40784" lon="1.65037">
        <ele>7.8</ele>
        <time>2020-06-18T18:22:51Z</time>
      </trkpt>
      <trkpt lat="50.40784" lon="1.65053">
        <ele>7.7</ele>
        <time>2020-06-18T18:22:52Z</time>
      </trkpt>
      <trkpt lat="50.40784" lon="1.65068">
        <ele>7.7</ele>
        <time>2020-06-18T18:22:53Z</time>
      </trkpt>
      <trkpt lat="50.40784" lon="1.65083">
        <ele>7.8</ele>
        <time>2020-06-18T18:22:54Z</time>
      </trkpt>
      <trkpt lat="50.40784" lon="1.65098">
        <ele>8</ele>
        <time>2020-06-18T18:22:55Z</time>
      </trkpt>
      <trkpt lat="50.40784" lon="1.65112">
        <ele>8.2</ele>
        <time>2020-06-18T18:22:56Z</time>
      </trkpt>
      <trkpt lat="50.40784" lon="1.65126">
        <ele>8.8</ele>
        <time>2020-06-18T18:22:57Z</time>
      </trkpt>
      <trkpt lat="50.40785" lon="1.65139">
        <ele>9.3</ele>
        <time>2020-06-18T18:22:58Z</time>
      </trkpt>
      <trkpt lat="50.40786" lon="1.65152">
        <ele>9.8</ele>
        <time>2020-06-18T18:22:59Z</time>
      </trkpt>
      <trkpt lat="50.40786" lon="1.65165">
        <ele>10.3</ele>
        <time>2020-06-18T18:23:00Z</time>
      </trkpt>
      <trkpt lat="50.40787" lon="1.65177">
        <ele>10.8</ele>
        <time>2020-06-18T18:23:01Z</time>
      </trkpt>
      <trkpt lat="50.40788" lon="1.65189">
        <ele>11.2</ele>
        <time>2020-06-18T18:23:02Z</time>
      </trkpt>
      <trkpt lat="50.4079" lon="1.65199">
        <ele>11.6</ele>
        <time>2020-06-18T18:23:03Z</time>
      </trkpt>
      <trkpt lat="50.4079" lon="1.6521">
        <ele>12</ele>
        <time>2020-06-18T18:23:04Z</time>
      </trkpt>
      <trkpt lat="50.40792" lon="1.65219">
        <ele>12.3</ele>
        <time>2020-06-18T18:23:05Z</time>
      </trkpt>
      <trkpt lat="50.40793" lon="1.65228">
        <ele>12.6</ele>
        <time>2020-06-18T18:23:06Z</time>
      </trkpt>
      <trkpt lat="50.40794" lon="1.65237">
        <ele>12.9</ele>
        <time>2020-06-18T18:23:07Z</time>
      </trkpt>
      <trkpt lat="50.40795" lon="1.65245">
        <ele>13.2</ele>
        <time>2020-06-18T18:23:08Z</time>
      </trkpt>
      <trkpt lat="50.40797" lon="1.65252">
        <ele>13.4</ele>
        <time>2020-06-18T18:23:09Z</time>
      </trkpt>
      <trkpt lat="50.40799" lon="1.65259">
        <ele>13.6</ele>
        <time>2020-06-18T18:23:10Z</time>
      </trkpt>
      <trkpt lat="50.40802" lon="1.65265">
        <ele>14</ele>
        <time>2020-06-18T18:23:11Z</time>
      </trkpt>
      <trkpt lat="50.40804" lon="1.65271">
        <ele>14.3</ele>
        <time>2020-06-18T18:23:12Z</time>
      </trkpt>
      <trkpt lat="50.40806" lon="1.65278">
        <ele>14.6</ele>
        <time>2020-06-18T18:23:13Z</time>
      </trkpt>
      <trkpt lat="50.40809" lon="1.65283">
        <ele>14.8</ele>
        <time>2020-06-18T18:23:14Z</time>
      </trkpt>
      <trkpt lat="50.40811" lon="1.65289">
        <ele>15.1</ele>
        <time>2020-06-18T18:23:15Z</time>
      </trkpt>
      <trkpt lat="50.40813" lon="1.65294">
        <ele>15.2</ele>
        <time>2020-06-18T18:23:16Z</time>
      </trkpt>
      <trkpt lat="50.40815" lon="1.65299">
        <ele>15.3</ele>
        <time>2020-06-18T18:23:17Z</time>
      </trkpt>
      <trkpt lat="50.40817" lon="1.65303">
        <ele>15.4</ele>
        <time>2020-06-18T18:23:18Z</time>
      </trkpt>
      <trkpt lat="50.40819" lon="1.65307">
        <ele>15.5</ele>
        <time>2020-06-18T18:23:19Z</time>
      </trkpt>
      <trkpt lat="50.40821" lon="1.65312">
        <ele>15.6</ele>
        <time>2020-06-18T18:23:20Z</time>
      </trkpt>
      <trkpt lat="50.40822" lon="1.65316">
        <ele>15.7</ele>
        <time>2020-06-18T18:23:21Z</time>
      </trkpt>
      <trkpt lat="50.40824" lon="1.65321">
        <ele>15.8</ele>
        <time>2020-06-18T18:23:22Z</time>
      </trkpt>
      <trkpt lat="50.40826" lon="1.65326">
        <ele>15.9</ele>
        <time>2020-06-18T18:23:23Z</time>
      </trkpt>
      <trkpt lat="50.40829" lon="1.6533">
        <ele>16.1</ele>
        <time>2020-06-18T18:23:24Z</time>
      </trkpt>
      <trkpt lat="50.40831" lon="1.65335">
        <ele>16.3</ele>
        <time>2020-06-18T18:23:25Z</time>
      </trkpt>
      <trkpt lat="50.40833" lon="1.65338">
        <ele>16.4</ele>
        <time>2020-06-18T18:23:26Z</time>
      </trkpt>
      <trkpt lat="50.40836" lon="1.65344">
        <ele>16.6</ele>
        <time>2020-06-18T18:23:27Z</time>
      </trkpt>
      <trkpt lat="50.40838" lon="1.65347">
        <ele>16.8</ele>
        <time>2020-06-18T18:23:28Z</time>
      </trkpt>
      <trkpt lat="50.4084" lon="1.65352">
        <ele>16.9</ele>
        <time>2020-06-18T18:23:29Z</time>
      </trkpt>
      <trkpt lat="50.40842" lon="1.65357">
        <ele>17.1</ele>
        <time>2020-06-18T18:23:30Z</time>
      </trkpt>
      <trkpt lat="50.40844" lon="1.65363">
        <ele>17.3</ele>
        <time>2020-06-18T18:23:31Z</time>
      </trkpt>
      <trkpt lat="50.40844" lon="1.65366">
        <ele>17.4</ele>
        <time>2020-06-18T18:23:32Z</time>
      </trkpt>
      <trkpt lat="50.40846" lon="1.6537">
        <ele>17.6</ele>
        <time>2020-06-18T18:23:33Z</time>
      </trkpt>
      <trkpt lat="50.40847" lon="1.65375">
        <ele>18</ele>
        <time>2020-06-18T18:23:34Z</time>
      </trkpt>
      <trkpt lat="50.40848" lon="1.6538">
        <ele>18.3</ele>
        <time>2020-06-18T18:23:35Z</time>
      </trkpt>
      <trkpt lat="50.4085" lon="1.65387">
        <ele>18.5</ele>
        <time>2020-06-18T18:23:36Z</time>
      </trkpt>
      <trkpt lat="50.40852" lon="1.65392">
        <ele>18.4</ele>
        <time>2020-06-18T18:23:37Z</time>
      </trkpt>
      <trkpt lat="50.40852" lon="1.65399">
        <ele>18.2</ele>
        <time>2020-06-18T18:23:38Z</time>
      </trkpt>
      <trkpt lat="50.40851" lon="1.65406">
        <ele>18.2</ele>
        <time>2020-06-18T18:23:39Z</time>
      </trkpt>
      <trkpt lat="50.40851" lon="1.65412">
        <ele>18.2</ele>
        <time>2020-06-18T18:23:40Z</time>
      </trkpt>
      <trkpt lat="50.40852" lon="1.6542">
        <ele>18.2</ele>
        <time>2020-06-18T18:23:41Z</time>
      </trkpt>
      <trkpt lat="50.40853" lon="1.65428">
        <ele>18.1</ele>
        <time>2020-06-18T18:23:42Z</time>
      </trkpt>
      <trkpt lat="50.40854" lon="1.65434">
        <ele>18.1</ele>
        <time>2020-06-18T18:23:43Z</time>
      </trkpt>
      <trkpt lat="50.40857" lon="1.65441">
        <ele>18</ele>
        <time>2020-06-18T18:23:44Z</time>
      </trkpt>
      <trkpt lat="50.40859" lon="1.65447">
        <ele>17.9</ele>
        <time>2020-06-18T18:23:45Z</time>
      </trkpt>
      <trkpt lat="50.40862" lon="1.65452">
        <ele>17.9</ele>
        <time>2020-06-18T18:23:46Z</time>
      </trkpt>
      <trkpt lat="50.40867" lon="1.65457">
        <ele>18</ele>
        <time>2020-06-18T18:23:47Z</time>
      </trkpt>
      <trkpt lat="50.40871" lon="1.6546">
        <ele>18</ele>
        <time>2020-06-18T18:23:48Z</time>
      </trkpt>
      <trkpt lat="50.40875" lon="1.65462">
        <ele>18</ele>
        <time>2020-06-18T18:23:49Z</time>
      </trkpt>
      <trkpt lat="50.40881" lon="1.65464">
        <ele>18</ele>
        <time>2020-06-18T18:23:50Z</time>
      </trkpt>
      <trkpt lat="50.40885" lon="1.65466">
        <ele>18.1</ele>
        <time>2020-06-18T18:23:51Z</time>
      </trkpt>
      <trkpt lat="50.4089" lon="1.65467">
        <ele>18.3</ele>
        <time>2020-06-18T18:23:52Z</time>
      </trkpt>
      <trkpt lat="50.40895" lon="1.65468">
        <ele>18.4</ele>
        <time>2020-06-18T18:23:53Z</time>
      </trkpt>
      <trkpt lat="50.40899" lon="1.65467">
        <ele>18.6</ele>
        <time>2020-06-18T18:23:54Z</time>
      </trkpt>
      <trkpt lat="50.40903" lon="1.65468">
        <ele>18.7</ele>
        <time>2020-06-18T18:23:55Z</time>
      </trkpt>
      <trkpt lat="50.40907" lon="1.6547">
        <ele>18.8</ele>
        <time>2020-06-18T18:23:56Z</time>
      </trkpt>
      <trkpt lat="50.40911" lon="1.65473">
        <ele>19</ele>
        <time>2020-06-18T18:23:57Z</time>
      </trkpt>
      <trkpt lat="50.40914" lon="1.65476">
        <ele>19.1</ele>
        <time>2020-06-18T18:23:58Z</time>
      </trkpt>
      <trkpt lat="50.40916" lon="1.6548">
        <ele>19.2</ele>
        <time>2020-06-18T18:23:59Z</time>
      </trkpt>
      <trkpt lat="50.4092" lon="1.65485">
        <ele>19.4</ele>
        <time>2020-06-18T18:24:00Z</time>
      </trkpt>
      <trkpt lat="50.40923" lon="1.65489">
        <ele>19.5</ele>
        <time>2020-06-18T18:24:01Z</time>
      </trkpt>
      <trkpt lat="50.40928" lon="1.65495">
        <ele>19.7</ele>
        <time>2020-06-18T18:24:02Z</time>
      </trkpt>
      <trkpt lat="50.40932" lon="1.65501">
        <ele>21.1</ele>
        <time>2020-06-18T18:24:03Z</time>
      </trkpt>
      <trkpt lat="50.40935" lon="1.65505">
        <ele>22.4</ele>
        <time>2020-06-18T18:24:04Z</time>
      </trkpt>
      <trkpt lat="50.40939" lon="1.6551">
        <ele>23.6</ele>
        <time>2020-06-18T18:24:05Z</time>
      </trkpt>
      <trkpt lat="50.40942" lon="1.65515">
        <ele>24.4</ele>
        <time>2020-06-18T18:24:06Z</time>
      </trkpt>
      <trkpt lat="50.40945" lon="1.6552">
        <ele>25.1</ele>
        <time>2020-06-18T18:24:07Z</time>
      </trkpt>
      <trkpt lat="50.40948" lon="1.65526">
        <ele>25.6</ele>
        <time>2020-06-18T18:24:08Z</time>
      </trkpt>
      <trkpt lat="50.40951" lon="1.65532">
        <ele>26</ele>
        <time>2020-06-18T18:24:09Z</time>
      </trkpt>
      <trkpt lat="50.40954" lon="1.65536">
        <ele>26.2</ele>
        <time>2020-06-18T18:24:10Z</time>
      </trkpt>
      <trkpt lat="50.40957" lon="1.65542">
        <ele>26.5</ele>
        <time>2020-06-18T18:24:11Z</time>
      </trkpt>
      <trkpt lat="50.4096" lon="1.65547">
        <ele>26.7</ele>
        <time>2020-06-18T18:24:12Z</time>
      </trkpt>
      <trkpt lat="50.40962" lon="1.65553">
        <ele>27</ele>
        <time>2020-06-18T18:24:13Z</time>
      </trkpt>
      <trkpt lat="50.40966" lon="1.65559">
        <ele>27.2</ele>
        <time>2020-06-18T18:24:14Z</time>
      </trkpt>
      <trkpt lat="50.40969" lon="1.65564">
        <ele>27.4</ele>
        <time>2020-06-18T18:24:15Z</time>
      </trkpt>
      <trkpt lat="50.40971" lon="1.65568">
        <ele>27.6</ele>
        <time>2020-06-18T18:24:16Z</time>
      </trkpt>
      <trkpt lat="50.40973" lon="1.65572">
        <ele>27.7</ele>
        <time>2020-06-18T18:24:17Z</time>
      </trkpt>
      <trkpt lat="50.40976" lon="1.65577">
        <ele>27.9</ele>
        <time>2020-06-18T18:24:18Z</time>
      </trkpt>
      <trkpt lat="50.40979" lon="1.65582">
        <ele>28</ele>
        <time>2020-06-18T18:24:19Z</time>
      </trkpt>
      <trkpt lat="50.40981" lon="1.65585">
        <ele>28.2</ele>
        <time>2020-06-18T18:24:20Z</time>
      </trkpt>
      <trkpt lat="50.40984" lon="1.6559">
        <ele>28.3</ele>
        <time>2020-06-18T18:24:21Z</time>
      </trkpt>
      <trkpt lat="50.40987" lon="1.65595">
        <ele>28.4</ele>
        <time>2020-06-18T18:24:22Z</time>
      </trkpt>
      <trkpt lat="50.4099" lon="1.656">
        <ele>28.6</ele>
        <time>2020-06-18T18:24:23Z</time>
      </trkpt>
      <trkpt lat="50.40993" lon="1.65606">
        <ele>28.8</ele>
        <time>2020-06-18T18:24:24Z</time>
      </trkpt>
      <trkpt lat="50.40996" lon="1.65611">
        <ele>29</ele>
        <time>2020-06-18T18:24:25Z</time>
      </trkpt>
      <trkpt lat="50.40999" lon="1.65617">
        <ele>29.1</ele>
        <time>2020-06-18T18:24:26Z</time>
      </trkpt>
      <trkpt lat="50.41002" lon="1.65623">
        <ele>29.4</ele>
        <time>2020-06-18T18:24:27Z</time>
      </trkpt>
      <trkpt lat="50.41005" lon="1.6563">
        <ele>29.6</ele>
        <time>2020-06-18T18:24:28Z</time>
      </trkpt>
      <trkpt lat="50.41008" lon="1.65636">
        <ele>29.8</ele>
        <time>2020-06-18T18:24:29Z</time>
      </trkpt>
      <trkpt lat="50.41011" lon="1.65642">
        <ele>30</ele>
        <time>2020-06-18T18:24:30Z</time>
      </trkpt>
      <trkpt lat="50.41014" lon="1.65647">
        <ele>30.2</ele>
        <time>2020-06-18T18:24:31Z</time>
      </trkpt>
      <trkpt lat="50.41017" lon="1.65653">
        <ele>30.5</ele>
        <time>2020-06-18T18:24:32Z</time>
      </trkpt>
      <trkpt lat="50.41021" lon="1.65658">
        <ele>30.7</ele>
        <time>2020-06-18T18:24:33Z</time>
      </trkpt>
      <trkpt lat="50.41024" lon="1.65664">
        <ele>30.9</ele>
        <time>2020-06-18T18:24:34Z</time>
      </trkpt>
      <trkpt lat="50.41027" lon="1.65669">
        <ele>31.1</ele>
        <time>2020-06-18T18:24:35Z</time>
      </trkpt>
      <trkpt lat="50.4103" lon="1.65675">
        <ele>31.3</ele>
        <time>2020-06-18T18:24:36Z</time>
      </trkpt>
      <trkpt lat="50.41034" lon="1.65682">
        <ele>31.6</ele>
        <time>2020-06-18T18:24:37Z</time>
      </trkpt>
      <trkpt lat="50.41037" lon="1.65688">
        <ele>31.8</ele>
        <time>2020-06-18T18:24:38Z</time>
      </trkpt>
      <trkpt lat="50.4104" lon="1.65694">
        <ele>32</ele>
        <time>2020-06-18T18:24:39Z</time>
      </trkpt>
      <trkpt lat="50.41043" lon="1.65701">
        <ele>32.2</ele>
        <time>2020-06-18T18:24:40Z</time>
      </trkpt>
      <trkpt lat="50.41046" lon="1.65706">
        <ele>32.4</ele>
        <time>2020-06-18T18:24:41Z</time>
      </trkpt>
      <trkpt lat="50.41049" lon="1.65713">
        <ele>32.6</ele>
        <time>2020-06-18T18:24:42Z</time>
      </trkpt>
      <trkpt lat="50.41051" lon="1.65717">
        <ele>32.8</ele>
        <time>2020-06-18T18:24:43Z</time>
      </trkpt>
      <trkpt lat="50.41053" lon="1.65722">
        <ele>33</ele>
        <time>2020-06-18T18:24:44Z</time>
      </trkpt>
      <trkpt lat="50.41056" lon="1.65727">
        <ele>33.2</ele>
        <time>2020-06-18T18:24:45Z</time>
      </trkpt>
      <trkpt lat="50.41059" lon="1.65732">
        <ele>33.4</ele>
        <time>2020-06-18T18:24:46Z</time>
      </trkpt>
      <trkpt lat="50.41062" lon="1.65738">
        <ele>33.7</ele>
        <time>2020-06-18T18:24:47Z</time>
      </trkpt>
      <trkpt lat="50.41064" lon="1.65744">
        <ele>34</ele>
        <time>2020-06-18T18:24:48Z</time>
      </trkpt>
      <trkpt lat="50.41067" lon="1.65749">
        <ele>34.2</ele>
        <time>2020-06-18T18:24:49Z</time>
      </trkpt>
      <trkpt lat="50.4107" lon="1.65755">
        <ele>34.5</ele>
        <time>2020-06-18T18:24:50Z</time>
      </trkpt>
      <trkpt lat="50.41073" lon="1.65761">
        <ele>34.7</ele>
        <time>2020-06-18T18:24:51Z</time>
      </trkpt>
      <trkpt lat="50.41076" lon="1.65767">
        <ele>34.9</ele>
        <time>2020-06-18T18:24:52Z</time>
      </trkpt>
      <trkpt lat="50.41078" lon="1.65772">
        <ele>35.1</ele>
        <time>2020-06-18T18:24:53Z</time>
      </trkpt>
      <trkpt lat="50.41081" lon="1.65777">
        <ele>35.3</ele>
        <time>2020-06-18T18:24:54Z</time>
      </trkpt>
      <trkpt lat="50.41084" lon="1.65783">
        <ele>35.5</ele>
        <time>2020-06-18T18:24:55Z</time>
      </trkpt>
      <trkpt lat="50.41087" lon="1.65788">
        <ele>35.7</ele>
        <time>2020-06-18T18:24:56Z</time>
      </trkpt>
      <trkpt lat="50.4109" lon="1.65793">
        <ele>35.9</ele>
        <time>2020-06-18T18:24:57Z</time>
      </trkpt>
      <trkpt lat="50.41092" lon="1.65798">
        <ele>36.1</ele>
        <time>2020-06-18T18:24:58Z</time>
      </trkpt>
      <trkpt lat="50.41095" lon="1.65803">
        <ele>36.3</ele>
        <time>2020-06-18T18:24:59Z</time>
      </trkpt>
      <trkpt lat="50.41098" lon="1.65808">
        <ele>36.5</ele>
        <time>2020-06-18T18:25:00Z</time>
      </trkpt>
      <trkpt lat="50.41101" lon="1.65815">
        <ele>36.8</ele>
        <time>2020-06-18T18:25:01Z</time>
      </trkpt>
      <trkpt lat="50.41104" lon="1.6582">
        <ele>37</ele>
        <time>2020-06-18T18:25:02Z</time>
      </trkpt>
      <trkpt lat="50.41107" lon="1.65827">
        <ele>37.3</ele>
        <time>2020-06-18T18:25:03Z</time>
      </trkpt>
      <trkpt lat="50.41109" lon="1.65832">
        <ele>37.6</ele>
        <time>2020-06-18T18:25:04Z</time>
      </trkpt>
      <trkpt lat="50.41111" lon="1.65836">
        <ele>37.8</ele>
        <time>2020-06-18T18:25:05Z</time>
      </trkpt>
      <trkpt lat="50.41113" lon="1.65841">
        <ele>38</ele>
        <time>2020-06-18T18:25:06Z</time>
      </trkpt>
      <trkpt lat="50.41115" lon="1.65847">
        <ele>38.2</ele>
        <time>2020-06-18T18:25:07Z</time>
      </trkpt>
      <trkpt lat="50.41118" lon="1.65852">
        <ele>38.5</ele>
        <time>2020-06-18T18:25:08Z</time>
      </trkpt>
      <trkpt lat="50.4112" lon="1.65858">
        <ele>38.7</ele>
        <time>2020-06-18T18:25:09Z</time>
      </trkpt>
      <trkpt lat="50.41122" lon="1.65864">
        <ele>38.9</ele>
        <time>2020-06-18T18:25:10Z</time>
      </trkpt>
      <trkpt lat="50.41126" lon="1.6587">
        <ele>39.2</ele>
        <time>2020-06-18T18:25:11Z</time>
      </trkpt>
      <trkpt lat="50.41129" lon="1.65876">
        <ele>39.4</ele>
        <time>2020-06-18T18:25:12Z</time>
      </trkpt>
      <trkpt lat="50.41131" lon="1.6588">
        <ele>39.6</ele>
        <time>2020-06-18T18:25:13Z</time>
      </trkpt>
      <trkpt lat="50.41133" lon="1.65884">
        <ele>39.7</ele>
        <time>2020-06-18T18:25:14Z</time>
      </trkpt>
      <trkpt lat="50.41136" lon="1.65889">
        <ele>40</ele>
        <time>2020-06-18T18:25:15Z</time>
      </trkpt>
      <trkpt lat="50.41137" lon="1.65893">
        <ele>40.1</ele>
        <time>2020-06-18T18:25:16Z</time>
      </trkpt>
      <trkpt lat="50.41139" lon="1.65899">
        <ele>40.4</ele>
        <time>2020-06-18T18:25:17Z</time>
      </trkpt>
      <trkpt lat="50.41141" lon="1.65906">
        <ele>40.6</ele>
        <time>2020-06-18T18:25:18Z</time>
      </trkpt>
      <trkpt lat="50.41143" lon="1.65912">
        <ele>40.8</ele>
        <time>2020-06-18T18:25:19Z</time>
      </trkpt>
      <trkpt lat="50.41145" lon="1.65918">
        <ele>41</ele>
        <time>2020-06-18T18:25:20Z</time>
      </trkpt>
      <trkpt lat="50.41148" lon="1.65924">
        <ele>41.2</ele>
        <time>2020-06-18T18:25:21Z</time>
      </trkpt>
      <trkpt lat="50.4115" lon="1.6593">
        <ele>41.4</ele>
        <time>2020-06-18T18:25:22Z</time>
      </trkpt>
      <trkpt lat="50.41153" lon="1.65936">
        <ele>41.6</ele>
        <time>2020-06-18T18:25:23Z</time>
      </trkpt>
      <trkpt lat="50.41156" lon="1.65942">
        <ele>41.8</ele>
        <time>2020-06-18T18:25:24Z</time>
      </trkpt>
      <trkpt lat="50.41159" lon="1.65949">
        <ele>42</ele>
        <time>2020-06-18T18:25:25Z</time>
      </trkpt>
      <trkpt lat="50.41162" lon="1.65955">
        <ele>42.3</ele>
        <time>2020-06-18T18:25:26Z</time>
      </trkpt>
      <trkpt lat="50.41165" lon="1.65962">
        <ele>42.5</ele>
        <time>2020-06-18T18:25:27Z</time>
      </trkpt>
      <trkpt lat="50.41168" lon="1.65967">
        <ele>42.7</ele>
        <time>2020-06-18T18:25:28Z</time>
      </trkpt>
      <trkpt lat="50.41171" lon="1.65973">
        <ele>42.8</ele>
        <time>2020-06-18T18:25:29Z</time>
      </trkpt>
      <trkpt lat="50.41173" lon="1.65977">
        <ele>42.9</ele>
        <time>2020-06-18T18:25:30Z</time>
      </trkpt>
      <trkpt lat="50.41176" lon="1.65983">
        <ele>43</ele>
        <time>2020-06-18T18:25:31Z</time>
      </trkpt>
      <trkpt lat="50.41179" lon="1.65989">
        <ele>43.2</ele>
        <time>2020-06-18T18:25:32Z</time>
      </trkpt>
      <trkpt lat="50.41181" lon="1.65995">
        <ele>43.4</ele>
        <time>2020-06-18T18:25:33Z</time>
      </trkpt>
      <trkpt lat="50.41184" lon="1.66001">
        <ele>43.6</ele>
        <time>2020-06-18T18:25:34Z</time>
      </trkpt>
      <trkpt lat="50.41185" lon="1.66005">
        <ele>43.8</ele>
        <time>2020-06-18T18:25:35Z</time>
      </trkpt>
      <trkpt lat="50.41188" lon="1.66011">
        <ele>43.9</ele>
        <time>2020-06-18T18:25:36Z</time>
      </trkpt>
      <trkpt lat="50.4119" lon="1.66017">
        <ele>44.1</ele>
        <time>2020-06-18T18:25:37Z</time>
      </trkpt>
      <trkpt lat="50.41193" lon="1.66022">
        <ele>44.2</ele>
        <time>2020-06-18T18:25:38Z</time>
      </trkpt>
      <trkpt lat="50.41195" lon="1.66027">
        <ele>44.4</ele>
        <time>2020-06-18T18:25:39Z</time>
      </trkpt>
      <trkpt lat="50.41198" lon="1.66034">
        <ele>44.6</ele>
        <time>2020-06-18T18:25:40Z</time>
      </trkpt>
      <trkpt lat="50.41201" lon="1.66039">
        <ele>44.7</ele>
        <time>2020-06-18T18:25:41Z</time>
      </trkpt>
      <trkpt lat="50.41204" lon="1.66044">
        <ele>44.8</ele>
        <time>2020-06-18T18:25:42Z</time>
      </trkpt>
      <trkpt lat="50.41207" lon="1.6605">
        <ele>44.9</ele>
        <time>2020-06-18T18:25:43Z</time>
      </trkpt>
      <trkpt lat="50.41209" lon="1.66055">
        <ele>45</ele>
        <time>2020-06-18T18:25:44Z</time>
      </trkpt>
      <trkpt lat="50.41211" lon="1.66061">
        <ele>45.2</ele>
        <time>2020-06-18T18:25:45Z</time>
      </trkpt>
      <trkpt lat="50.41213" lon="1.66067">
        <ele>45.3</ele>
        <time>2020-06-18T18:25:46Z</time>
      </trkpt>
      <trkpt lat="50.41216" lon="1.66072">
        <ele>45.5</ele>
        <time>2020-06-18T18:25:47Z</time>
      </trkpt>
      <trkpt lat="50.41218" lon="1.66078">
        <ele>45.6</ele>
        <time>2020-06-18T18:25:48Z</time>
      </trkpt>
      <trkpt lat="50.41222" lon="1.66084">
        <ele>45.8</ele>
        <time>2020-06-18T18:25:49Z</time>
      </trkpt>
      <trkpt lat="50.41224" lon="1.6609">
        <ele>45.9</ele>
        <time>2020-06-18T18:25:50Z</time>
      </trkpt>
      <trkpt lat="50.41226" lon="1.66096">
        <ele>46</ele>
        <time>2020-06-18T18:25:51Z</time>
      </trkpt>
      <trkpt lat="50.41229" lon="1.66102">
        <ele>46.1</ele>
        <time>2020-06-18T18:25:52Z</time>
      </trkpt>
      <trkpt lat="50.41231" lon="1.66108">
        <ele>46.1</ele>
        <time>2020-06-18T18:25:53Z</time>
      </trkpt>
      <trkpt lat="50.41234" lon="1.66113">
        <ele>46.2</ele>
        <time>2020-06-18T18:25:54Z</time>
      </trkpt>
      <trkpt lat="50.41237" lon="1.66118">
        <ele>46.4</ele>
        <time>2020-06-18T18:25:55Z</time>
      </trkpt>
      <trkpt lat="50.41239" lon="1.66124">
        <ele>46.5</ele>
        <time>2020-06-18T18:25:56Z</time>
      </trkpt>
      <trkpt lat="50.41242" lon="1.6613">
        <ele>46.7</ele>
        <time>2020-06-18T18:25:57Z</time>
      </trkpt>
      <trkpt lat="50.41245" lon="1.66138">
        <ele>46.9</ele>
        <time>2020-06-18T18:25:58Z</time>
      </trkpt>
      <trkpt lat="50.41248" lon="1.66144">
        <ele>47.1</ele>
        <time>2020-06-18T18:25:59Z</time>
      </trkpt>
      <trkpt lat="50.41251" lon="1.66152">
        <ele>47.3</ele>
        <time>2020-06-18T18:26:00Z</time>
      </trkpt>
      <trkpt lat="50.41254" lon="1.66159">
        <ele>47.5</ele>
        <time>2020-06-18T18:26:01Z</time>
      </trkpt>
      <trkpt lat="50.41256" lon="1.66165">
        <ele>47.6</ele>
        <time>2020-06-18T18:26:02Z</time>
      </trkpt>
      <trkpt lat="50.4126" lon="1.66171">
        <ele>47.6</ele>
        <time>2020-06-18T18:26:03Z</time>
      </trkpt>
      <trkpt lat="50.41263" lon="1.66178">
        <ele>47.6</ele>
        <time>2020-06-18T18:26:04Z</time>
      </trkpt>
      <trkpt lat="50.41265" lon="1.66184">
        <ele>47.6</ele>
        <time>2020-06-18T18:26:05Z</time>
      </trkpt>
      <trkpt lat="50.41268" lon="1.6619">
        <ele>47.6</ele>
        <time>2020-06-18T18:26:06Z</time>
      </trkpt>
      <trkpt lat="50.41271" lon="1.66197">
        <ele>47.6</ele>
        <time>2020-06-18T18:26:07Z</time>
      </trkpt>
      <trkpt lat="50.41273" lon="1.66204">
        <ele>47.6</ele>
        <time>2020-06-18T18:26:08Z</time>
      </trkpt>
      <trkpt lat="50.41276" lon="1.66211">
        <ele>47.7</ele>
        <time>2020-06-18T18:26:09Z</time>
      </trkpt>
      <trkpt lat="50.41279" lon="1.66218">
        <ele>47.8</ele>
        <time>2020-06-18T18:26:10Z</time>
      </trkpt>
      <trkpt lat="50.41282" lon="1.66225">
        <ele>47.9</ele>
        <time>2020-06-18T18:26:11Z</time>
      </trkpt>
      <trkpt lat="50.41285" lon="1.6623">
        <ele>48</ele>
        <time>2020-06-18T18:26:12Z</time>
      </trkpt>
      <trkpt lat="50.41288" lon="1.66237">
        <ele>48.1</ele>
        <time>2020-06-18T18:26:13Z</time>
      </trkpt>
      <trkpt lat="50.41292" lon="1.66244">
        <ele>48.2</ele>
        <time>2020-06-18T18:26:14Z</time>
      </trkpt>
      <trkpt lat="50.41295" lon="1.66251">
        <ele>48.3</ele>
        <time>2020-06-18T18:26:15Z</time>
      </trkpt>
      <trkpt lat="50.41298" lon="1.66259">
        <ele>48.4</ele>
        <time>2020-06-18T18:26:16Z</time>
      </trkpt>
      <trkpt lat="50.41302" lon="1.66266">
        <ele>48.5</ele>
        <time>2020-06-18T18:26:17Z</time>
      </trkpt>
      <trkpt lat="50.41305" lon="1.66274">
        <ele>48.6</ele>
        <time>2020-06-18T18:26:18Z</time>
      </trkpt>
      <trkpt lat="50.41308" lon="1.66281">
        <ele>48.7</ele>
        <time>2020-06-18T18:26:19Z</time>
      </trkpt>
      <trkpt lat="50.41312" lon="1.66289">
        <ele>48.9</ele>
        <time>2020-06-18T18:26:20Z</time>
      </trkpt>
      <trkpt lat="50.41316" lon="1.66298">
        <ele>49</ele>
        <time>2020-06-18T18:26:21Z</time>
      </trkpt>
      <trkpt lat="50.41319" lon="1.66307">
        <ele>49.1</ele>
        <time>2020-06-18T18:26:22Z</time>
      </trkpt>
      <trkpt lat="50.41322" lon="1.66314">
        <ele>49.1</ele>
        <time>2020-06-18T18:26:23Z</time>
      </trkpt>
      <trkpt lat="50.41325" lon="1.66323">
        <ele>49.2</ele>
        <time>2020-06-18T18:26:24Z</time>
      </trkpt>
      <trkpt lat="50.41328" lon="1.66333">
        <ele>49.2</ele>
        <time>2020-06-18T18:26:25Z</time>
      </trkpt>
      <trkpt lat="50.41332" lon="1.66341">
        <ele>49.3</ele>
        <time>2020-06-18T18:26:26Z</time>
      </trkpt>
      <trkpt lat="50.41336" lon="1.6635">
        <ele>49.4</ele>
        <time>2020-06-18T18:26:27Z</time>
      </trkpt>
      <trkpt lat="50.41339" lon="1.66358">
        <ele>49.5</ele>
        <time>2020-06-18T18:26:28Z</time>
      </trkpt>
      <trkpt lat="50.41343" lon="1.66367">
        <ele>49.5</ele>
        <time>2020-06-18T18:26:29Z</time>
      </trkpt>
      <trkpt lat="50.41345" lon="1.66375">
        <ele>49.5</ele>
        <time>2020-06-18T18:26:30Z</time>
      </trkpt>
      <trkpt lat="50.41349" lon="1.66383">
        <ele>49.5</ele>
        <time>2020-06-18T18:26:31Z</time>
      </trkpt>
      <trkpt lat="50.41351" lon="1.66391">
        <ele>49.5</ele>
        <time>2020-06-18T18:26:32Z</time>
      </trkpt>
      <trkpt lat="50.41354" lon="1.66397">
        <ele>49.5</ele>
        <time>2020-06-18T18:26:33Z</time>
      </trkpt>
      <trkpt lat="50.41356" lon="1.66404">
        <ele>49.6</ele>
        <time>2020-06-18T18:26:34Z</time>
      </trkpt>
      <trkpt lat="50.41359" lon="1.66411">
        <ele>49.6</ele>
        <time>2020-06-18T18:26:35Z</time>
      </trkpt>
      <trkpt lat="50.41361" lon="1.6642">
        <ele>49.6</ele>
        <time>2020-06-18T18:26:36Z</time>
      </trkpt>
      <trkpt lat="50.41364" lon="1.66427">
        <ele>49.7</ele>
        <time>2020-06-18T18:26:37Z</time>
      </trkpt>
      <trkpt lat="50.41367" lon="1.66434">
        <ele>49.6</ele>
        <time>2020-06-18T18:26:38Z</time>
      </trkpt>
      <trkpt lat="50.41369" lon="1.6644">
        <ele>49.6</ele>
        <time>2020-06-18T18:26:39Z</time>
      </trkpt>
      <trkpt lat="50.4137" lon="1.66446">
        <ele>49.6</ele>
        <time>2020-06-18T18:26:40Z</time>
      </trkpt>
      <trkpt lat="50.41371" lon="1.66452">
        <ele>49.6</ele>
        <time>2020-06-18T18:26:41Z</time>
      </trkpt>
      <trkpt lat="50.41373" lon="1.66459">
        <ele>49.6</ele>
        <time>2020-06-18T18:26:42Z</time>
      </trkpt>
      <trkpt lat="50.41376" lon="1.66467">
        <ele>49.7</ele>
        <time>2020-06-18T18:26:43Z</time>
      </trkpt>
      <trkpt lat="50.41378" lon="1.66474">
        <ele>49.8</ele>
        <time>2020-06-18T18:26:44Z</time>
      </trkpt>
      <trkpt lat="50.4138" lon="1.66482">
        <ele>49.9</ele>
        <time>2020-06-18T18:26:45Z</time>
      </trkpt>
      <trkpt lat="50.41383" lon="1.6649">
        <ele>49.9</ele>
        <time>2020-06-18T18:26:46Z</time>
      </trkpt>
      <trkpt lat="50.41385" lon="1.66498">
        <ele>49.9</ele>
        <time>2020-06-18T18:26:47Z</time>
      </trkpt>
      <trkpt lat="50.41387" lon="1.66506">
        <ele>49.6</ele>
        <time>2020-06-18T18:26:48Z</time>
      </trkpt>
      <trkpt lat="50.4139" lon="1.66515">
        <ele>48.9</ele>
        <time>2020-06-18T18:26:49Z</time>
      </trkpt>
      <trkpt lat="50.41392" lon="1.66523">
        <ele>47.6</ele>
        <time>2020-06-18T18:26:50Z</time>
      </trkpt>
      <trkpt lat="50.41394" lon="1.6653">
        <ele>45.9</ele>
        <time>2020-06-18T18:26:51Z</time>
      </trkpt>
      <trkpt lat="50.41396" lon="1.66539">
        <ele>44.6</ele>
        <time>2020-06-18T18:26:52Z</time>
      </trkpt>
      <trkpt lat="50.41397" lon="1.66549">
        <ele>44.6</ele>
        <time>2020-06-18T18:26:53Z</time>
      </trkpt>
      <trkpt lat="50.41398" lon="1.66558">
        <ele>44.7</ele>
        <time>2020-06-18T18:26:54Z</time>
      </trkpt>
      <trkpt lat="50.41398" lon="1.66567">
        <ele>44.7</ele>
        <time>2020-06-18T18:26:55Z</time>
      </trkpt>
      <trkpt lat="50.41399" lon="1.66577">
        <ele>44.7</ele>
        <time>2020-06-18T18:26:56Z</time>
      </trkpt>
      <trkpt lat="50.414" lon="1.66588">
        <ele>44.7</ele>
        <time>2020-06-18T18:26:57Z</time>
      </trkpt>
      <trkpt lat="50.414" lon="1.66597">
        <ele>44.8</ele>
        <time>2020-06-18T18:26:58Z</time>
      </trkpt>
      <trkpt lat="50.41401" lon="1.66606">
        <ele>44.8</ele>
        <time>2020-06-18T18:26:59Z</time>
      </trkpt>
      <trkpt lat="50.41399" lon="1.66614">
        <ele>44.8</ele>
        <time>2020-06-18T18:27:00Z</time>
      </trkpt>
      <trkpt lat="50.41396" lon="1.66623">
        <ele>44.8</ele>
        <time>2020-06-18T18:27:01Z</time>
      </trkpt>
      <trkpt lat="50.41393" lon="1.6663">
        <ele>44.8</ele>
        <time>2020-06-18T18:27:02Z</time>
      </trkpt>
      <trkpt lat="50.41389" lon="1.66637">
        <ele>44.8</ele>
        <time>2020-06-18T18:27:03Z</time>
      </trkpt>
      <trkpt lat="50.41386" lon="1.66646">
        <ele>44.8</ele>
        <time>2020-06-18T18:27:04Z</time>
      </trkpt>
      <trkpt lat="50.41383" lon="1.66654">
        <ele>44.9</ele>
        <time>2020-06-18T18:27:05Z</time>
      </trkpt>
      <trkpt lat="50.41381" lon="1.66666">
        <ele>45.1</ele>
        <time>2020-06-18T18:27:06Z</time>
      </trkpt>
      <trkpt lat="50.41379" lon="1.66675">
        <ele>45.2</ele>
        <time>2020-06-18T18:27:07Z</time>
      </trkpt>
      <trkpt lat="50.41379" lon="1.66685">
        <ele>45.2</ele>
        <time>2020-06-18T18:27:08Z</time>
      </trkpt>
      <trkpt lat="50.41381" lon="1.66694">
        <ele>45.2</ele>
        <time>2020-06-18T18:27:09Z</time>
      </trkpt>
      <trkpt lat="50.41387" lon="1.66702">
        <ele>45.2</ele>
        <time>2020-06-18T18:27:10Z</time>
      </trkpt>
      <trkpt lat="50.41393" lon="1.66709">
        <ele>45.3</ele>
        <time>2020-06-18T18:27:11Z</time>
      </trkpt>
      <trkpt lat="50.41399" lon="1.66713">
        <ele>45.5</ele>
        <time>2020-06-18T18:27:12Z</time>
      </trkpt>
      <trkpt lat="50.41403" lon="1.66715">
        <ele>45.6</ele>
        <time>2020-06-18T18:27:13Z</time>
      </trkpt>
      <trkpt lat="50.41409" lon="1.66716">
        <ele>45.4</ele>
        <time>2020-06-18T18:27:14Z</time>
      </trkpt>
      <trkpt lat="50.41414" lon="1.66714">
        <ele>45.2</ele>
        <time>2020-06-18T18:27:15Z</time>
      </trkpt>
      <trkpt lat="50.4142" lon="1.6671">
        <ele>45.1</ele>
        <time>2020-06-18T18:27:16Z</time>
      </trkpt>
      <trkpt lat="50.41426" lon="1.66706">
        <ele>44.9</ele>
        <time>2020-06-18T18:27:17Z</time>
      </trkpt>
      <trkpt lat="50.41431" lon="1.66702">
        <ele>44.8</ele>
        <time>2020-06-18T18:27:18Z</time>
      </trkpt>
      <trkpt lat="50.41436" lon="1.66696">
        <ele>44.8</ele>
        <time>2020-06-18T18:27:19Z</time>
      </trkpt>
      <trkpt lat="50.4144" lon="1.66689">
        <ele>44.8</ele>
        <time>2020-06-18T18:27:20Z</time>
      </trkpt>
      <trkpt lat="50.41444" lon="1.66682">
        <ele>44.9</ele>
        <time>2020-06-18T18:27:21Z</time>
      </trkpt>
      <trkpt lat="50.41447" lon="1.66675">
        <ele>44.9</ele>
        <time>2020-06-18T18:27:22Z</time>
      </trkpt>
      <trkpt lat="50.41451" lon="1.66668">
        <ele>44.8</ele>
        <time>2020-06-18T18:27:23Z</time>
      </trkpt>
      <trkpt lat="50.41456" lon="1.66662">
        <ele>44.8</ele>
        <time>2020-06-18T18:27:24Z</time>
      </trkpt>
      <trkpt lat="50.41461" lon="1.66657">
        <ele>44.7</ele>
        <time>2020-06-18T18:27:25Z</time>
      </trkpt>
      <trkpt lat="50.41466" lon="1.66653">
        <ele>44.7</ele>
        <time>2020-06-18T18:27:26Z</time>
      </trkpt>
      <trkpt lat="50.4147" lon="1.66647">
        <ele>44.6</ele>
        <time>2020-06-18T18:27:27Z</time>
      </trkpt>
      <trkpt lat="50.41474" lon="1.66641">
        <ele>44.5</ele>
        <time>2020-06-18T18:27:28Z</time>
      </trkpt>
      <trkpt lat="50.41478" lon="1.66634">
        <ele>44.5</ele>
        <time>2020-06-18T18:27:29Z</time>
      </trkpt>
      <trkpt lat="50.41481" lon="1.66627">
        <ele>44.4</ele>
        <time>2020-06-18T18:27:30Z</time>
      </trkpt>
      <trkpt lat="50.41484" lon="1.6662">
        <ele>44.4</ele>
        <time>2020-06-18T18:27:31Z</time>
      </trkpt>
      <trkpt lat="50.41487" lon="1.66612">
        <ele>44.4</ele>
        <time>2020-06-18T18:27:32Z</time>
      </trkpt>
      <trkpt lat="50.41491" lon="1.66604">
        <ele>44.4</ele>
        <time>2020-06-18T18:27:33Z</time>
      </trkpt>
      <trkpt lat="50.41494" lon="1.66598">
        <ele>44.4</ele>
        <time>2020-06-18T18:27:34Z</time>
      </trkpt>
      <trkpt lat="50.41497" lon="1.66593">
        <ele>44.4</ele>
        <time>2020-06-18T18:27:35Z</time>
      </trkpt>
      <trkpt lat="50.41501" lon="1.66587">
        <ele>44.4</ele>
        <time>2020-06-18T18:27:36Z</time>
      </trkpt>
      <trkpt lat="50.41504" lon="1.66579">
        <ele>44.4</ele>
        <time>2020-06-18T18:27:37Z</time>
      </trkpt>
      <trkpt lat="50.41506" lon="1.66573">
        <ele>44.4</ele>
        <time>2020-06-18T18:27:38Z</time>
      </trkpt>
      <trkpt lat="50.41509" lon="1.66567">
        <ele>44.4</ele>
        <time>2020-06-18T18:27:39Z</time>
      </trkpt>
      <trkpt lat="50.41512" lon="1.66561">
        <ele>44.4</ele>
        <time>2020-06-18T18:27:40Z</time>
      </trkpt>
      <trkpt lat="50.41516" lon="1.66554">
        <ele>44.4</ele>
        <time>2020-06-18T18:27:41Z</time>
      </trkpt>
      <trkpt lat="50.4152" lon="1.66546">
        <ele>44.3</ele>
        <time>2020-06-18T18:27:42Z</time>
      </trkpt>
      <trkpt lat="50.41523" lon="1.66539">
        <ele>44.2</ele>
        <time>2020-06-18T18:27:43Z</time>
      </trkpt>
      <trkpt lat="50.41527" lon="1.66533">
        <ele>44.2</ele>
        <time>2020-06-18T18:27:44Z</time>
      </trkpt>
      <trkpt lat="50.4153" lon="1.66524">
        <ele>44.2</ele>
        <time>2020-06-18T18:27:45Z</time>
      </trkpt>
      <trkpt lat="50.41534" lon="1.66516">
        <ele>44.1</ele>
        <time>2020-06-18T18:27:46Z</time>
      </trkpt>
      <trkpt lat="50.41538" lon="1.66507">
        <ele>44.1</ele>
        <time>2020-06-18T18:27:47Z</time>
      </trkpt>
      <trkpt lat="50.41542" lon="1.66498">
        <ele>44.1</ele>
        <time>2020-06-18T18:27:48Z</time>
      </trkpt>
      <trkpt lat="50.41546" lon="1.66491">
        <ele>44</ele>
        <time>2020-06-18T18:27:49Z</time>
      </trkpt>
      <trkpt lat="50.4155" lon="1.66485">
        <ele>44</ele>
        <time>2020-06-18T18:27:50Z</time>
      </trkpt>
      <trkpt lat="50.41552" lon="1.66479">
        <ele>44</ele>
        <time>2020-06-18T18:27:51Z</time>
      </trkpt>
      <trkpt lat="50.41555" lon="1.66473">
        <ele>44</ele>
        <time>2020-06-18T18:27:52Z</time>
      </trkpt>
      <trkpt lat="50.41558" lon="1.66466">
        <ele>43.9</ele>
        <time>2020-06-18T18:27:53Z</time>
      </trkpt>
      <trkpt lat="50.41561" lon="1.6646">
        <ele>43.9</ele>
        <time>2020-06-18T18:27:54Z</time>
      </trkpt>
      <trkpt lat="50.41565" lon="1.66453">
        <ele>43.9</ele>
        <time>2020-06-18T18:27:55Z</time>
      </trkpt>
      <trkpt lat="50.41569" lon="1.66445">
        <ele>43.8</ele>
        <time>2020-06-18T18:27:56Z</time>
      </trkpt>
      <trkpt lat="50.41573" lon="1.66438">
        <ele>43.8</ele>
        <time>2020-06-18T18:27:57Z</time>
      </trkpt>
      <trkpt lat="50.41576" lon="1.66432">
        <ele>43.8</ele>
        <time>2020-06-18T18:27:58Z</time>
      </trkpt>
      <trkpt lat="50.41581" lon="1.66426">
        <ele>43.8</ele>
        <time>2020-06-18T18:27:59Z</time>
      </trkpt>
      <trkpt lat="50.41584" lon="1.66419">
        <ele>43.7</ele>
        <time>2020-06-18T18:28:00Z</time>
      </trkpt>
      <trkpt lat="50.41589" lon="1.66414">
        <ele>43.7</ele>
        <time>2020-06-18T18:28:01Z</time>
      </trkpt>
      <trkpt lat="50.41593" lon="1.66408">
        <ele>43.5</ele>
        <time>2020-06-18T18:28:02Z</time>
      </trkpt>
      <trkpt lat="50.41597" lon="1.66402">
        <ele>43.4</ele>
        <time>2020-06-18T18:28:03Z</time>
      </trkpt>
      <trkpt lat="50.41601" lon="1.66394">
        <ele>43.3</ele>
        <time>2020-06-18T18:28:04Z</time>
      </trkpt>
      <trkpt lat="50.41605" lon="1.66387">
        <ele>43.2</ele>
        <time>2020-06-18T18:28:05Z</time>
      </trkpt>
      <trkpt lat="50.41609" lon="1.66379">
        <ele>43.1</ele>
        <time>2020-06-18T18:28:06Z</time>
      </trkpt>
      <trkpt lat="50.41613" lon="1.66371">
        <ele>43</ele>
        <time>2020-06-18T18:28:07Z</time>
      </trkpt>
      <trkpt lat="50.41618" lon="1.66364">
        <ele>43</ele>
        <time>2020-06-18T18:28:08Z</time>
      </trkpt>
      <trkpt lat="50.41621" lon="1.66357">
        <ele>42.9</ele>
        <time>2020-06-18T18:28:09Z</time>
      </trkpt>
      <trkpt lat="50.41625" lon="1.66349">
        <ele>42.9</ele>
        <time>2020-06-18T18:28:10Z</time>
      </trkpt>
      <trkpt lat="50.41629" lon="1.66341">
        <ele>42.8</ele>
        <time>2020-06-18T18:28:11Z</time>
      </trkpt>
      <trkpt lat="50.41634" lon="1.66333">
        <ele>42.8</ele>
        <time>2020-06-18T18:28:12Z</time>
      </trkpt>
      <trkpt lat="50.41638" lon="1.66326">
        <ele>42.7</ele>
        <time>2020-06-18T18:28:13Z</time>
      </trkpt>
      <trkpt lat="50.41642" lon="1.66318">
        <ele>42.7</ele>
        <time>2020-06-18T18:28:14Z</time>
      </trkpt>
      <trkpt lat="50.41646" lon="1.66311">
        <ele>42.6</ele>
        <time>2020-06-18T18:28:15Z</time>
      </trkpt>
      <trkpt lat="50.41651" lon="1.66303">
        <ele>42.5</ele>
        <time>2020-06-18T18:28:16Z</time>
      </trkpt>
      <trkpt lat="50.41654" lon="1.66295">
        <ele>42.4</ele>
        <time>2020-06-18T18:28:17Z</time>
      </trkpt>
      <trkpt lat="50.41656" lon="1.66286">
        <ele>42.3</ele>
        <time>2020-06-18T18:28:18Z</time>
      </trkpt>
      <trkpt lat="50.41658" lon="1.66278">
        <ele>42.2</ele>
        <time>2020-06-18T18:28:19Z</time>
      </trkpt>
      <trkpt lat="50.4166" lon="1.66269">
        <ele>42.1</ele>
        <time>2020-06-18T18:28:20Z</time>
      </trkpt>
      <trkpt lat="50.41663" lon="1.6626">
        <ele>42.1</ele>
        <time>2020-06-18T18:28:21Z</time>
      </trkpt>
      <trkpt lat="50.41665" lon="1.66252">
        <ele>42.2</ele>
        <time>2020-06-18T18:28:22Z</time>
      </trkpt>
      <trkpt lat="50.41667" lon="1.66244">
        <ele>42.2</ele>
        <time>2020-06-18T18:28:23Z</time>
      </trkpt>
      <trkpt lat="50.4167" lon="1.66236">
        <ele>42.8</ele>
        <time>2020-06-18T18:28:24Z</time>
      </trkpt>
      <trkpt lat="50.41672" lon="1.66228">
        <ele>43.4</ele>
        <time>2020-06-18T18:28:25Z</time>
      </trkpt>
      <trkpt lat="50.41674" lon="1.66221">
        <ele>42.5</ele>
        <time>2020-06-18T18:28:26Z</time>
      </trkpt>
      <trkpt lat="50.41676" lon="1.66214">
        <ele>42.1</ele>
        <time>2020-06-18T18:28:27Z</time>
      </trkpt>
      <trkpt lat="50.41679" lon="1.66206">
        <ele>41.5</ele>
        <time>2020-06-18T18:28:28Z</time>
      </trkpt>
      <trkpt lat="50.41683" lon="1.662">
        <ele>41</ele>
        <time>2020-06-18T18:28:29Z</time>
      </trkpt>
      <trkpt lat="50.41686" lon="1.66194">
        <ele>40.5</ele>
        <time>2020-06-18T18:28:30Z</time>
      </trkpt>
      <trkpt lat="50.4169" lon="1.66183">
        <ele>39.4</ele>
        <time>2020-06-18T18:28:31Z</time>
      </trkpt>
      <trkpt lat="50.41693" lon="1.66174">
        <ele>39.1</ele>
        <time>2020-06-18T18:28:32Z</time>
      </trkpt>
      <trkpt lat="50.41697" lon="1.66166">
        <ele>38.8</ele>
        <time>2020-06-18T18:28:33Z</time>
      </trkpt>
      <trkpt lat="50.41702" lon="1.66156">
        <ele>38.5</ele>
        <time>2020-06-18T18:28:34Z</time>
      </trkpt>
      <trkpt lat="50.41706" lon="1.66147">
        <ele>38.1</ele>
        <time>2020-06-18T18:28:35Z</time>
      </trkpt>
      <trkpt lat="50.4171" lon="1.66138">
        <ele>37.8</ele>
        <time>2020-06-18T18:28:36Z</time>
      </trkpt>
      <trkpt lat="50.41714" lon="1.66129">
        <ele>37.5</ele>
        <time>2020-06-18T18:28:37Z</time>
      </trkpt>
      <trkpt lat="50.41718" lon="1.66119">
        <ele>37.1</ele>
        <time>2020-06-18T18:28:38Z</time>
      </trkpt>
      <trkpt lat="50.41722" lon="1.6611">
        <ele>36.8</ele>
        <time>2020-06-18T18:28:39Z</time>
      </trkpt>
      <trkpt lat="50.41726" lon="1.66101">
        <ele>36.4</ele>
        <time>2020-06-18T18:28:40Z</time>
      </trkpt>
      <trkpt lat="50.4173" lon="1.66091">
        <ele>36</ele>
        <time>2020-06-18T18:28:41Z</time>
      </trkpt>
      <trkpt lat="50.41734" lon="1.66081">
        <ele>35.6</ele>
        <time>2020-06-18T18:28:42Z</time>
      </trkpt>
      <trkpt lat="50.41738" lon="1.66071">
        <ele>35.2</ele>
        <time>2020-06-18T18:28:43Z</time>
      </trkpt>
      <trkpt lat="50.41742" lon="1.66061">
        <ele>34.8</ele>
        <time>2020-06-18T18:28:44Z</time>
      </trkpt>
      <trkpt lat="50.41745" lon="1.6605">
        <ele>34.4</ele>
        <time>2020-06-18T18:28:45Z</time>
      </trkpt>
      <trkpt lat="50.41748" lon="1.66039">
        <ele>34</ele>
        <time>2020-06-18T18:28:46Z</time>
      </trkpt>
      <trkpt lat="50.41751" lon="1.66028">
        <ele>33.5</ele>
        <time>2020-06-18T18:28:47Z</time>
      </trkpt>
      <trkpt lat="50.41753" lon="1.66016">
        <ele>33.1</ele>
        <time>2020-06-18T18:28:48Z</time>
      </trkpt>
      <trkpt lat="50.41755" lon="1.66004">
        <ele>32.7</ele>
        <time>2020-06-18T18:28:49Z</time>
      </trkpt>
      <trkpt lat="50.41756" lon="1.65992">
        <ele>32.2</ele>
        <time>2020-06-18T18:28:50Z</time>
      </trkpt>
      <trkpt lat="50.41757" lon="1.65979">
        <ele>31.8</ele>
        <time>2020-06-18T18:28:51Z</time>
      </trkpt>
      <trkpt lat="50.41758" lon="1.65967">
        <ele>31.4</ele>
        <time>2020-06-18T18:28:52Z</time>
      </trkpt>
      <trkpt lat="50.41758" lon="1.65954">
        <ele>31</ele>
        <time>2020-06-18T18:28:53Z</time>
      </trkpt>
      <trkpt lat="50.41759" lon="1.65942">
        <ele>30.5</ele>
        <time>2020-06-18T18:28:54Z</time>
      </trkpt>
      <trkpt lat="50.41759" lon="1.65929">
        <ele>30.1</ele>
        <time>2020-06-18T18:28:55Z</time>
      </trkpt>
      <trkpt lat="50.4176" lon="1.65915">
        <ele>29.6</ele>
        <time>2020-06-18T18:28:56Z</time>
      </trkpt>
      <trkpt lat="50.4176" lon="1.65902">
        <ele>29.1</ele>
        <time>2020-06-18T18:28:57Z</time>
      </trkpt>
      <trkpt lat="50.41761" lon="1.65889">
        <ele>28.7</ele>
        <time>2020-06-18T18:28:58Z</time>
      </trkpt>
      <trkpt lat="50.41761" lon="1.65876">
        <ele>28.3</ele>
        <time>2020-06-18T18:28:59Z</time>
      </trkpt>
      <trkpt lat="50.41762" lon="1.65863">
        <ele>27.9</ele>
        <time>2020-06-18T18:29:00Z</time>
      </trkpt>
      <trkpt lat="50.41762" lon="1.65849">
        <ele>27.5</ele>
        <time>2020-06-18T18:29:01Z</time>
      </trkpt>
      <trkpt lat="50.41762" lon="1.65836">
        <ele>27.2</ele>
        <time>2020-06-18T18:29:02Z</time>
      </trkpt>
      <trkpt lat="50.41763" lon="1.65823">
        <ele>26.8</ele>
        <time>2020-06-18T18:29:03Z</time>
      </trkpt>
      <trkpt lat="50.41763" lon="1.65811">
        <ele>26.5</ele>
        <time>2020-06-18T18:29:04Z</time>
      </trkpt>
      <trkpt lat="50.41763" lon="1.65798">
        <ele>26.1</ele>
        <time>2020-06-18T18:29:05Z</time>
      </trkpt>
      <trkpt lat="50.41763" lon="1.65785">
        <ele>25.7</ele>
        <time>2020-06-18T18:29:06Z</time>
      </trkpt>
      <trkpt lat="50.41764" lon="1.65772">
        <ele>25.3</ele>
        <time>2020-06-18T18:29:07Z</time>
      </trkpt>
      <trkpt lat="50.41764" lon="1.6576">
        <ele>24.9</ele>
        <time>2020-06-18T18:29:08Z</time>
      </trkpt>
      <trkpt lat="50.41766" lon="1.65747">
        <ele>24.6</ele>
        <time>2020-06-18T18:29:09Z</time>
      </trkpt>
      <trkpt lat="50.41766" lon="1.65735">
        <ele>24.2</ele>
        <time>2020-06-18T18:29:10Z</time>
      </trkpt>
      <trkpt lat="50.41766" lon="1.65722">
        <ele>23.8</ele>
        <time>2020-06-18T18:29:11Z</time>
      </trkpt>
      <trkpt lat="50.41767" lon="1.6571">
        <ele>23.5</ele>
        <time>2020-06-18T18:29:12Z</time>
      </trkpt>
      <trkpt lat="50.41769" lon="1.65698">
        <ele>23.1</ele>
        <time>2020-06-18T18:29:13Z</time>
      </trkpt>
      <trkpt lat="50.41771" lon="1.65686">
        <ele>22.8</ele>
        <time>2020-06-18T18:29:14Z</time>
      </trkpt>
      <trkpt lat="50.41773" lon="1.65674">
        <ele>22.4</ele>
        <time>2020-06-18T18:29:15Z</time>
      </trkpt>
      <trkpt lat="50.41776" lon="1.65662">
        <ele>22.1</ele>
        <time>2020-06-18T18:29:16Z</time>
      </trkpt>
      <trkpt lat="50.41779" lon="1.6565">
        <ele>21.7</ele>
        <time>2020-06-18T18:29:17Z</time>
      </trkpt>
      <trkpt lat="50.41783" lon="1.65639">
        <ele>21.3</ele>
        <time>2020-06-18T18:29:18Z</time>
      </trkpt>
      <trkpt lat="50.41786" lon="1.65628">
        <ele>21</ele>
        <time>2020-06-18T18:29:19Z</time>
      </trkpt>
      <trkpt lat="50.4179" lon="1.65616">
        <ele>20.7</ele>
        <time>2020-06-18T18:29:20Z</time>
      </trkpt>
      <trkpt lat="50.41795" lon="1.65606">
        <ele>20.3</ele>
        <time>2020-06-18T18:29:21Z</time>
      </trkpt>
      <trkpt lat="50.418" lon="1.65596">
        <ele>20</ele>
        <time>2020-06-18T18:29:22Z</time>
      </trkpt>
      <trkpt lat="50.41805" lon="1.65585">
        <ele>19.7</ele>
        <time>2020-06-18T18:29:23Z</time>
      </trkpt>
      <trkpt lat="50.4181" lon="1.65576">
        <ele>19.3</ele>
        <time>2020-06-18T18:29:24Z</time>
      </trkpt>
      <trkpt lat="50.41817" lon="1.65567">
        <ele>19</ele>
        <time>2020-06-18T18:29:25Z</time>
      </trkpt>
      <trkpt lat="50.41823" lon="1.65558">
        <ele>18.7</ele>
        <time>2020-06-18T18:29:26Z</time>
      </trkpt>
      <trkpt lat="50.4183" lon="1.65551">
        <ele>18.5</ele>
        <time>2020-06-18T18:29:27Z</time>
      </trkpt>
      <trkpt lat="50.41838" lon="1.65544">
        <ele>18.3</ele>
        <time>2020-06-18T18:29:28Z</time>
      </trkpt>
      <trkpt lat="50.41845" lon="1.65538">
        <ele>18.2</ele>
        <time>2020-06-18T18:29:29Z</time>
      </trkpt>
      <trkpt lat="50.41853" lon="1.65535">
        <ele>18.1</ele>
        <time>2020-06-18T18:29:30Z</time>
      </trkpt>
      <trkpt lat="50.41861" lon="1.65534">
        <ele>18.4</ele>
        <time>2020-06-18T18:29:31Z</time>
      </trkpt>
      <trkpt lat="50.41869" lon="1.65535">
        <ele>18.3</ele>
        <time>2020-06-18T18:29:32Z</time>
      </trkpt>
      <trkpt lat="50.41877" lon="1.65535">
        <ele>18.2</ele>
        <time>2020-06-18T18:29:33Z</time>
      </trkpt>
      <trkpt lat="50.41885" lon="1.65533">
        <ele>18</ele>
        <time>2020-06-18T18:29:34Z</time>
      </trkpt>
      <trkpt lat="50.41892" lon="1.65528">
        <ele>18.6</ele>
        <time>2020-06-18T18:29:35Z</time>
      </trkpt>
      <trkpt lat="50.41897" lon="1.65519">
        <ele>18.2</ele>
        <time>2020-06-18T18:29:36Z</time>
      </trkpt>
      <trkpt lat="50.41901" lon="1.65508">
        <ele>17.8</ele>
        <time>2020-06-18T18:29:37Z</time>
      </trkpt>
      <trkpt lat="50.41902" lon="1.65497">
        <ele>17.3</ele>
        <time>2020-06-18T18:29:38Z</time>
      </trkpt>
      <trkpt lat="50.41903" lon="1.65486">
        <ele>17.7</ele>
        <time>2020-06-18T18:29:39Z</time>
      </trkpt>
      <trkpt lat="50.41904" lon="1.65476">
        <ele>17.6</ele>
        <time>2020-06-18T18:29:40Z</time>
      </trkpt>
      <trkpt lat="50.41907" lon="1.65465">
        <ele>17.5</ele>
        <time>2020-06-18T18:29:41Z</time>
      </trkpt>
      <trkpt lat="50.41911" lon="1.65456">
        <ele>17.4</ele>
        <time>2020-06-18T18:29:42Z</time>
      </trkpt>
      <trkpt lat="50.41916" lon="1.65449">
        <ele>17.3</ele>
        <time>2020-06-18T18:29:43Z</time>
      </trkpt>
      <trkpt lat="50.41921" lon="1.65441">
        <ele>17.1</ele>
        <time>2020-06-18T18:29:44Z</time>
      </trkpt>
      <trkpt lat="50.41926" lon="1.65434">
        <ele>17.1</ele>
        <time>2020-06-18T18:29:45Z</time>
      </trkpt>
      <trkpt lat="50.41931" lon="1.65425">
        <ele>17</ele>
        <time>2020-06-18T18:29:46Z</time>
      </trkpt>
      <trkpt lat="50.41937" lon="1.65419">
        <ele>17</ele>
        <time>2020-06-18T18:29:47Z</time>
      </trkpt>
      <trkpt lat="50.41943" lon="1.65413">
        <ele>17.1</ele>
        <time>2020-06-18T18:29:48Z</time>
      </trkpt>
      <trkpt lat="50.41949" lon="1.65409">
        <ele>17.2</ele>
        <time>2020-06-18T18:29:49Z</time>
      </trkpt>
      <trkpt lat="50.41955" lon="1.65404">
        <ele>17.3</ele>
        <time>2020-06-18T18:29:50Z</time>
      </trkpt>
      <trkpt lat="50.41962" lon="1.65399">
        <ele>17.4</ele>
        <time>2020-06-18T18:29:51Z</time>
      </trkpt>
      <trkpt lat="50.41968" lon="1.65395">
        <ele>17.6</ele>
        <time>2020-06-18T18:29:52Z</time>
      </trkpt>
      <trkpt lat="50.41974" lon="1.6539">
        <ele>17.8</ele>
        <time>2020-06-18T18:29:53Z</time>
      </trkpt>
      <trkpt lat="50.4198" lon="1.65386">
        <ele>17.9</ele>
        <time>2020-06-18T18:29:54Z</time>
      </trkpt>
      <trkpt lat="50.41986" lon="1.65381">
        <ele>18.1</ele>
        <time>2020-06-18T18:29:55Z</time>
      </trkpt>
      <trkpt lat="50.41992" lon="1.65377">
        <ele>18.3</ele>
        <time>2020-06-18T18:29:56Z</time>
      </trkpt>
      <trkpt lat="50.41998" lon="1.65373">
        <ele>18.4</ele>
        <time>2020-06-18T18:29:57Z</time>
      </trkpt>
      <trkpt lat="50.42004" lon="1.65368">
        <ele>18.6</ele>
        <time>2020-06-18T18:29:58Z</time>
      </trkpt>
      <trkpt lat="50.4201" lon="1.65364">
        <ele>18.7</ele>
        <time>2020-06-18T18:29:59Z</time>
      </trkpt>
      <trkpt lat="50.42016" lon="1.65359">
        <ele>18.9</ele>
        <time>2020-06-18T18:30:00Z</time>
      </trkpt>
      <trkpt lat="50.42021" lon="1.65355">
        <ele>19</ele>
        <time>2020-06-18T18:30:01Z</time>
      </trkpt>
      <trkpt lat="50.42027" lon="1.6535">
        <ele>19.2</ele>
        <time>2020-06-18T18:30:02Z</time>
      </trkpt>
      <trkpt lat="50.42033" lon="1.65346">
        <ele>19.3</ele>
        <time>2020-06-18T18:30:03Z</time>
      </trkpt>
      <trkpt lat="50.42038" lon="1.65343">
        <ele>19.4</ele>
        <time>2020-06-18T18:30:04Z</time>
      </trkpt>
      <trkpt lat="50.42044" lon="1.65338">
        <ele>19.5</ele>
        <time>2020-06-18T18:30:05Z</time>
      </trkpt>
      <trkpt lat="50.42049" lon="1.65335">
        <ele>19.6</ele>
        <time>2020-06-18T18:30:06Z</time>
      </trkpt>
      <trkpt lat="50.42054" lon="1.65332">
        <ele>19.6</ele>
        <time>2020-06-18T18:30:07Z</time>
      </trkpt>
      <trkpt lat="50.42059" lon="1.65329">
        <ele>19.7</ele>
        <time>2020-06-18T18:30:08Z</time>
      </trkpt>
      <trkpt lat="50.42064" lon="1.65325">
        <ele>19.7</ele>
        <time>2020-06-18T18:30:09Z</time>
      </trkpt>
      <trkpt lat="50.42069" lon="1.65321">
        <ele>19.7</ele>
        <time>2020-06-18T18:30:10Z</time>
      </trkpt>
      <trkpt lat="50.42074" lon="1.65316">
        <ele>19.7</ele>
        <time>2020-06-18T18:30:11Z</time>
      </trkpt>
      <trkpt lat="50.42079" lon="1.65313">
        <ele>19.7</ele>
        <time>2020-06-18T18:30:12Z</time>
      </trkpt>
      <trkpt lat="50.42084" lon="1.65309">
        <ele>19.6</ele>
        <time>2020-06-18T18:30:13Z</time>
      </trkpt>
      <trkpt lat="50.42088" lon="1.65304">
        <ele>19.6</ele>
        <time>2020-06-18T18:30:14Z</time>
      </trkpt>
      <trkpt lat="50.42092" lon="1.653">
        <ele>19.5</ele>
        <time>2020-06-18T18:30:15Z</time>
      </trkpt>
      <trkpt lat="50.42096" lon="1.65296">
        <ele>19.4</ele>
        <time>2020-06-18T18:30:16Z</time>
      </trkpt>
      <trkpt lat="50.42101" lon="1.65292">
        <ele>19.2</ele>
        <time>2020-06-18T18:30:17Z</time>
      </trkpt>
      <trkpt lat="50.42105" lon="1.65288">
        <ele>19.1</ele>
        <time>2020-06-18T18:30:18Z</time>
      </trkpt>
      <trkpt lat="50.4211" lon="1.65284">
        <ele>19</ele>
        <time>2020-06-18T18:30:19Z</time>
      </trkpt>
      <trkpt lat="50.42115" lon="1.6528">
        <ele>18.9</ele>
        <time>2020-06-18T18:30:20Z</time>
      </trkpt>
      <trkpt lat="50.42121" lon="1.65276">
        <ele>18.8</ele>
        <time>2020-06-18T18:30:21Z</time>
      </trkpt>
      <trkpt lat="50.42126" lon="1.65272">
        <ele>18.6</ele>
        <time>2020-06-18T18:30:22Z</time>
      </trkpt>
      <trkpt lat="50.42132" lon="1.65268">
        <ele>18.4</ele>
        <time>2020-06-18T18:30:23Z</time>
      </trkpt>
      <trkpt lat="50.42138" lon="1.65264">
        <ele>18.3</ele>
        <time>2020-06-18T18:30:24Z</time>
      </trkpt>
      <trkpt lat="50.42144" lon="1.65259">
        <ele>18.1</ele>
        <time>2020-06-18T18:30:25Z</time>
      </trkpt>
      <trkpt lat="50.42151" lon="1.65255">
        <ele>17.9</ele>
        <time>2020-06-18T18:30:26Z</time>
      </trkpt>
      <trkpt lat="50.42156" lon="1.65249">
        <ele>17.7</ele>
        <time>2020-06-18T18:30:27Z</time>
      </trkpt>
      <trkpt lat="50.42162" lon="1.65243">
        <ele>17.6</ele>
        <time>2020-06-18T18:30:28Z</time>
      </trkpt>
      <trkpt lat="50.42168" lon="1.65238">
        <ele>17.4</ele>
        <time>2020-06-18T18:30:29Z</time>
      </trkpt>
      <trkpt lat="50.42173" lon="1.65234">
        <ele>17.2</ele>
        <time>2020-06-18T18:30:30Z</time>
      </trkpt>
      <trkpt lat="50.42179" lon="1.6523">
        <ele>17</ele>
        <time>2020-06-18T18:30:31Z</time>
      </trkpt>
      <trkpt lat="50.42185" lon="1.65226">
        <ele>16.8</ele>
        <time>2020-06-18T18:30:32Z</time>
      </trkpt>
      <trkpt lat="50.42191" lon="1.65222">
        <ele>16.6</ele>
        <time>2020-06-18T18:30:33Z</time>
      </trkpt>
      <trkpt lat="50.42197" lon="1.65218">
        <ele>16.5</ele>
        <time>2020-06-18T18:30:34Z</time>
      </trkpt>
      <trkpt lat="50.42203" lon="1.65213">
        <ele>16.3</ele>
        <time>2020-06-18T18:30:35Z</time>
      </trkpt>
      <trkpt lat="50.42209" lon="1.65209">
        <ele>16.2</ele>
        <time>2020-06-18T18:30:36Z</time>
      </trkpt>
      <trkpt lat="50.42214" lon="1.65204">
        <ele>16</ele>
        <time>2020-06-18T18:30:37Z</time>
      </trkpt>
      <trkpt lat="50.4222" lon="1.652">
        <ele>15.9</ele>
        <time>2020-06-18T18:30:38Z</time>
      </trkpt>
      <trkpt lat="50.42226" lon="1.65196">
        <ele>15.7</ele>
        <time>2020-06-18T18:30:39Z</time>
      </trkpt>
      <trkpt lat="50.42232" lon="1.65192">
        <ele>15.6</ele>
        <time>2020-06-18T18:30:40Z</time>
      </trkpt>
      <trkpt lat="50.42238" lon="1.65188">
        <ele>15.4</ele>
        <time>2020-06-18T18:30:41Z</time>
      </trkpt>
      <trkpt lat="50.42244" lon="1.65184">
        <ele>15.2</ele>
        <time>2020-06-18T18:30:42Z</time>
      </trkpt>
      <trkpt lat="50.4225" lon="1.65181">
        <ele>15</ele>
        <time>2020-06-18T18:30:43Z</time>
      </trkpt>
      <trkpt lat="50.42256" lon="1.65177">
        <ele>14.8</ele>
        <time>2020-06-18T18:30:44Z</time>
      </trkpt>
      <trkpt lat="50.42262" lon="1.65172">
        <ele>14.7</ele>
        <time>2020-06-18T18:30:45Z</time>
      </trkpt>
      <trkpt lat="50.42268" lon="1.65167">
        <ele>14.6</ele>
        <time>2020-06-18T18:30:46Z</time>
      </trkpt>
      <trkpt lat="50.42273" lon="1.65163">
        <ele>14.5</ele>
        <time>2020-06-18T18:30:47Z</time>
      </trkpt>
      <trkpt lat="50.42279" lon="1.6516">
        <ele>14.4</ele>
        <time>2020-06-18T18:30:48Z</time>
      </trkpt>
      <trkpt lat="50.42285" lon="1.65157">
        <ele>14.3</ele>
        <time>2020-06-18T18:30:49Z</time>
      </trkpt>
      <trkpt lat="50.42291" lon="1.65155">
        <ele>14.2</ele>
        <time>2020-06-18T18:30:50Z</time>
      </trkpt>
      <trkpt lat="50.42297" lon="1.65152">
        <ele>14.1</ele>
        <time>2020-06-18T18:30:51Z</time>
      </trkpt>
      <trkpt lat="50.42303" lon="1.65149">
        <ele>14</ele>
        <time>2020-06-18T18:30:52Z</time>
      </trkpt>
      <trkpt lat="50.42309" lon="1.65146">
        <ele>13.9</ele>
        <time>2020-06-18T18:30:53Z</time>
      </trkpt>
      <trkpt lat="50.42314" lon="1.65143">
        <ele>13.9</ele>
        <time>2020-06-18T18:30:54Z</time>
      </trkpt>
      <trkpt lat="50.4232" lon="1.65139">
        <ele>13.8</ele>
        <time>2020-06-18T18:30:55Z</time>
      </trkpt>
      <trkpt lat="50.42325" lon="1.65136">
        <ele>13.7</ele>
        <time>2020-06-18T18:30:56Z</time>
      </trkpt>
      <trkpt lat="50.4233" lon="1.65133">
        <ele>13.7</ele>
        <time>2020-06-18T18:30:57Z</time>
      </trkpt>
      <trkpt lat="50.42336" lon="1.6513">
        <ele>13.6</ele>
        <time>2020-06-18T18:30:58Z</time>
      </trkpt>
      <trkpt lat="50.42341" lon="1.65127">
        <ele>13.5</ele>
        <time>2020-06-18T18:30:59Z</time>
      </trkpt>
      <trkpt lat="50.42348" lon="1.65126">
        <ele>13.4</ele>
        <time>2020-06-18T18:31:00Z</time>
      </trkpt>
      <trkpt lat="50.42354" lon="1.65124">
        <ele>13.3</ele>
        <time>2020-06-18T18:31:01Z</time>
      </trkpt>
      <trkpt lat="50.4236" lon="1.65122">
        <ele>13.3</ele>
        <time>2020-06-18T18:31:02Z</time>
      </trkpt>
      <trkpt lat="50.42367" lon="1.6512">
        <ele>13.2</ele>
        <time>2020-06-18T18:31:03Z</time>
      </trkpt>
      <trkpt lat="50.42373" lon="1.65117">
        <ele>13.1</ele>
        <time>2020-06-18T18:31:04Z</time>
      </trkpt>
      <trkpt lat="50.4238" lon="1.65114">
        <ele>13.1</ele>
        <time>2020-06-18T18:31:05Z</time>
      </trkpt>
      <trkpt lat="50.42386" lon="1.65111">
        <ele>13</ele>
        <time>2020-06-18T18:31:06Z</time>
      </trkpt>
      <trkpt lat="50.42393" lon="1.65109">
        <ele>12.9</ele>
        <time>2020-06-18T18:31:07Z</time>
      </trkpt>
      <trkpt lat="50.424" lon="1.65106">
        <ele>12.9</ele>
        <time>2020-06-18T18:31:08Z</time>
      </trkpt>
      <trkpt lat="50.42407" lon="1.65103">
        <ele>12.8</ele>
        <time>2020-06-18T18:31:09Z</time>
      </trkpt>
      <trkpt lat="50.42414" lon="1.65101">
        <ele>12.8</ele>
        <time>2020-06-18T18:31:10Z</time>
      </trkpt>
      <trkpt lat="50.42421" lon="1.65099">
        <ele>12.7</ele>
        <time>2020-06-18T18:31:11Z</time>
      </trkpt>
      <trkpt lat="50.42428" lon="1.65097">
        <ele>12.7</ele>
        <time>2020-06-18T18:31:12Z</time>
      </trkpt>
      <trkpt lat="50.42435" lon="1.65096">
        <ele>12.6</ele>
        <time>2020-06-18T18:31:13Z</time>
      </trkpt>
      <trkpt lat="50.42442" lon="1.65092">
        <ele>12.5</ele>
        <time>2020-06-18T18:31:14Z</time>
      </trkpt>
      <trkpt lat="50.42449" lon="1.6509">
        <ele>12.5</ele>
        <time>2020-06-18T18:31:15Z</time>
      </trkpt>
      <trkpt lat="50.42456" lon="1.65087">
        <ele>12.4</ele>
        <time>2020-06-18T18:31:16Z</time>
      </trkpt>
      <trkpt lat="50.42463" lon="1.65085">
        <ele>12.3</ele>
        <time>2020-06-18T18:31:17Z</time>
      </trkpt>
      <trkpt lat="50.4247" lon="1.65083">
        <ele>12.2</ele>
        <time>2020-06-18T18:31:18Z</time>
      </trkpt>
      <trkpt lat="50.42477" lon="1.65081">
        <ele>12.1</ele>
        <time>2020-06-18T18:31:19Z</time>
      </trkpt>
      <trkpt lat="50.42484" lon="1.65079">
        <ele>12</ele>
        <time>2020-06-18T18:31:20Z</time>
      </trkpt>
      <trkpt lat="50.42492" lon="1.65076">
        <ele>12</ele>
        <time>2020-06-18T18:31:21Z</time>
      </trkpt>
      <trkpt lat="50.42499" lon="1.65075">
        <ele>11.9</ele>
        <time>2020-06-18T18:31:22Z</time>
      </trkpt>
      <trkpt lat="50.42506" lon="1.65073">
        <ele>11.8</ele>
        <time>2020-06-18T18:31:23Z</time>
      </trkpt>
      <trkpt lat="50.42512" lon="1.6507">
        <ele>11.7</ele>
        <time>2020-06-18T18:31:24Z</time>
      </trkpt>
      <trkpt lat="50.42519" lon="1.65068">
        <ele>11.6</ele>
        <time>2020-06-18T18:31:25Z</time>
      </trkpt>
      <trkpt lat="50.42526" lon="1.65066">
        <ele>11.6</ele>
        <time>2020-06-18T18:31:26Z</time>
      </trkpt>
      <trkpt lat="50.42533" lon="1.65064">
        <ele>11.6</ele>
        <time>2020-06-18T18:31:27Z</time>
      </trkpt>
      <trkpt lat="50.4254" lon="1.65063">
        <ele>11.5</ele>
        <time>2020-06-18T18:31:28Z</time>
      </trkpt>
      <trkpt lat="50.42547" lon="1.65062">
        <ele>11.5</ele>
        <time>2020-06-18T18:31:29Z</time>
      </trkpt>
      <trkpt lat="50.42553" lon="1.6506">
        <ele>11.5</ele>
        <time>2020-06-18T18:31:30Z</time>
      </trkpt>
      <trkpt lat="50.4256" lon="1.65059">
        <ele>11.5</ele>
        <time>2020-06-18T18:31:31Z</time>
      </trkpt>
      <trkpt lat="50.42566" lon="1.65057">
        <ele>11.5</ele>
        <time>2020-06-18T18:31:32Z</time>
      </trkpt>
      <trkpt lat="50.42573" lon="1.65055">
        <ele>11.5</ele>
        <time>2020-06-18T18:31:33Z</time>
      </trkpt>
      <trkpt lat="50.42579" lon="1.65052">
        <ele>11.5</ele>
        <time>2020-06-18T18:31:34Z</time>
      </trkpt>
      <trkpt lat="50.42585" lon="1.6505">
        <ele>11.4</ele>
        <time>2020-06-18T18:31:35Z</time>
      </trkpt>
      <trkpt lat="50.42591" lon="1.65049">
        <ele>11.4</ele>
        <time>2020-06-18T18:31:36Z</time>
      </trkpt>
      <trkpt lat="50.42597" lon="1.65047">
        <ele>11.4</ele>
        <time>2020-06-18T18:31:37Z</time>
      </trkpt>
      <trkpt lat="50.42603" lon="1.65045">
        <ele>11.4</ele>
        <time>2020-06-18T18:31:38Z</time>
      </trkpt>
      <trkpt lat="50.42608" lon="1.65043">
        <ele>11.4</ele>
        <time>2020-06-18T18:31:39Z</time>
      </trkpt>
      <trkpt lat="50.42614" lon="1.65041">
        <ele>11.4</ele>
        <time>2020-06-18T18:31:40Z</time>
      </trkpt>
      <trkpt lat="50.42621" lon="1.6504">
        <ele>11.4</ele>
        <time>2020-06-18T18:31:41Z</time>
      </trkpt>
      <trkpt lat="50.42627" lon="1.6504">
        <ele>11.4</ele>
        <time>2020-06-18T18:31:42Z</time>
      </trkpt>
      <trkpt lat="50.42633" lon="1.65039">
        <ele>11.4</ele>
        <time>2020-06-18T18:31:43Z</time>
      </trkpt>
      <trkpt lat="50.42639" lon="1.65037">
        <ele>11.4</ele>
        <time>2020-06-18T18:31:44Z</time>
      </trkpt>
      <trkpt lat="50.42646" lon="1.65036">
        <ele>11.3</ele>
        <time>2020-06-18T18:31:45Z</time>
      </trkpt>
      <trkpt lat="50.42653" lon="1.65034">
        <ele>11.3</ele>
        <time>2020-06-18T18:31:46Z</time>
      </trkpt>
      <trkpt lat="50.4266" lon="1.65032">
        <ele>11.2</ele>
        <time>2020-06-18T18:31:47Z</time>
      </trkpt>
      <trkpt lat="50.42667" lon="1.65029">
        <ele>11.2</ele>
        <time>2020-06-18T18:31:48Z</time>
      </trkpt>
      <trkpt lat="50.42674" lon="1.65026">
        <ele>11.2</ele>
        <time>2020-06-18T18:31:49Z</time>
      </trkpt>
      <trkpt lat="50.42681" lon="1.65023">
        <ele>11.2</ele>
        <time>2020-06-18T18:31:50Z</time>
      </trkpt>
      <trkpt lat="50.42688" lon="1.65021">
        <ele>11.3</ele>
        <time>2020-06-18T18:31:51Z</time>
      </trkpt>
      <trkpt lat="50.42694" lon="1.65019">
        <ele>11.4</ele>
        <time>2020-06-18T18:31:52Z</time>
      </trkpt>
      <trkpt lat="50.42702" lon="1.65017">
        <ele>11.5</ele>
        <time>2020-06-18T18:31:53Z</time>
      </trkpt>
      <trkpt lat="50.42709" lon="1.65016">
        <ele>11.7</ele>
        <time>2020-06-18T18:31:54Z</time>
      </trkpt>
      <trkpt lat="50.42716" lon="1.65015">
        <ele>11.8</ele>
        <time>2020-06-18T18:31:55Z</time>
      </trkpt>
      <trkpt lat="50.42723" lon="1.65013">
        <ele>11.7</ele>
        <time>2020-06-18T18:31:56Z</time>
      </trkpt>
      <trkpt lat="50.4273" lon="1.65012">
        <ele>11.6</ele>
        <time>2020-06-18T18:31:57Z</time>
      </trkpt>
      <trkpt lat="50.42737" lon="1.6501">
        <ele>11.6</ele>
        <time>2020-06-18T18:31:58Z</time>
      </trkpt>
      <trkpt lat="50.42743" lon="1.65009">
        <ele>11.5</ele>
        <time>2020-06-18T18:31:59Z</time>
      </trkpt>
      <trkpt lat="50.4275" lon="1.65008">
        <ele>11.5</ele>
        <time>2020-06-18T18:32:00Z</time>
      </trkpt>
      <trkpt lat="50.42757" lon="1.65007">
        <ele>11.6</ele>
        <time>2020-06-18T18:32:01Z</time>
      </trkpt>
      <trkpt lat="50.42764" lon="1.65006">
        <ele>11.6</ele>
        <time>2020-06-18T18:32:02Z</time>
      </trkpt>
      <trkpt lat="50.42771" lon="1.65007">
        <ele>11.6</ele>
        <time>2020-06-18T18:32:03Z</time>
      </trkpt>
      <trkpt lat="50.42778" lon="1.65007">
        <ele>11.6</ele>
        <time>2020-06-18T18:32:04Z</time>
      </trkpt>
      <trkpt lat="50.42785" lon="1.65008">
        <ele>11.6</ele>
        <time>2020-06-18T18:32:05Z</time>
      </trkpt>
      <trkpt lat="50.42791" lon="1.65009">
        <ele>11.6</ele>
        <time>2020-06-18T18:32:06Z</time>
      </trkpt>
      <trkpt lat="50.42798" lon="1.65009">
        <ele>11.6</ele>
        <time>2020-06-18T18:32:07Z</time>
      </trkpt>
      <trkpt lat="50.42806" lon="1.65009">
        <ele>11.6</ele>
        <time>2020-06-18T18:32:08Z</time>
      </trkpt>
      <trkpt lat="50.42812" lon="1.6501">
        <ele>11.6</ele>
        <time>2020-06-18T18:32:09Z</time>
      </trkpt>
      <trkpt lat="50.42819" lon="1.65011">
        <ele>11.6</ele>
        <time>2020-06-18T18:32:10Z</time>
      </trkpt>
      <trkpt lat="50.42826" lon="1.65011">
        <ele>11.6</ele>
        <time>2020-06-18T18:32:11Z</time>
      </trkpt>
      <trkpt lat="50.42833" lon="1.65012">
        <ele>11.6</ele>
        <time>2020-06-18T18:32:12Z</time>
      </trkpt>
      <trkpt lat="50.4284" lon="1.65013">
        <ele>11.5</ele>
        <time>2020-06-18T18:32:13Z</time>
      </trkpt>
      <trkpt lat="50.42847" lon="1.65015">
        <ele>11.5</ele>
        <time>2020-06-18T18:32:14Z</time>
      </trkpt>
      <trkpt lat="50.42854" lon="1.65015">
        <ele>11.4</ele>
        <time>2020-06-18T18:32:15Z</time>
      </trkpt>
      <trkpt lat="50.42861" lon="1.65016">
        <ele>11.4</ele>
        <time>2020-06-18T18:32:16Z</time>
      </trkpt>
      <trkpt lat="50.42868" lon="1.65016">
        <ele>11.4</ele>
        <time>2020-06-18T18:32:17Z</time>
      </trkpt>
      <trkpt lat="50.42875" lon="1.65017">
        <ele>11.3</ele>
        <time>2020-06-18T18:32:18Z</time>
      </trkpt>
      <trkpt lat="50.42882" lon="1.65017">
        <ele>11.3</ele>
        <time>2020-06-18T18:32:19Z</time>
      </trkpt>
      <trkpt lat="50.42889" lon="1.65017">
        <ele>11.3</ele>
        <time>2020-06-18T18:32:20Z</time>
      </trkpt>
      <trkpt lat="50.42897" lon="1.65018">
        <ele>11.3</ele>
        <time>2020-06-18T18:32:21Z</time>
      </trkpt>
      <trkpt lat="50.42904" lon="1.65019">
        <ele>11.3</ele>
        <time>2020-06-18T18:32:22Z</time>
      </trkpt>
      <trkpt lat="50.42911" lon="1.65021">
        <ele>11.3</ele>
        <time>2020-06-18T18:32:23Z</time>
      </trkpt>
      <trkpt lat="50.42919" lon="1.65022">
        <ele>11.3</ele>
        <time>2020-06-18T18:32:24Z</time>
      </trkpt>
      <trkpt lat="50.42926" lon="1.65024">
        <ele>11.3</ele>
        <time>2020-06-18T18:32:25Z</time>
      </trkpt>
      <trkpt lat="50.42934" lon="1.65026">
        <ele>11.3</ele>
        <time>2020-06-18T18:32:26Z</time>
      </trkpt>
      <trkpt lat="50.42941" lon="1.65027">
        <ele>11.3</ele>
        <time>2020-06-18T18:32:27Z</time>
      </trkpt>
      <trkpt lat="50.42948" lon="1.65028">
        <ele>11.4</ele>
        <time>2020-06-18T18:32:28Z</time>
      </trkpt>
      <trkpt lat="50.42956" lon="1.65029">
        <ele>11.4</ele>
        <time>2020-06-18T18:32:29Z</time>
      </trkpt>
      <trkpt lat="50.42963" lon="1.6503">
        <ele>11.4</ele>
        <time>2020-06-18T18:32:30Z</time>
      </trkpt>
      <trkpt lat="50.4297" lon="1.65031">
        <ele>11.5</ele>
        <time>2020-06-18T18:32:31Z</time>
      </trkpt>
      <trkpt lat="50.42977" lon="1.65032">
        <ele>11.5</ele>
        <time>2020-06-18T18:32:32Z</time>
      </trkpt>
      <trkpt lat="50.42985" lon="1.65034">
        <ele>11.5</ele>
        <time>2020-06-18T18:32:33Z</time>
      </trkpt>
      <trkpt lat="50.42992" lon="1.65035">
        <ele>11.5</ele>
        <time>2020-06-18T18:32:34Z</time>
      </trkpt>
      <trkpt lat="50.42999" lon="1.65036">
        <ele>11.5</ele>
        <time>2020-06-18T18:32:35Z</time>
      </trkpt>
      <trkpt lat="50.43006" lon="1.65038">
        <ele>11.5</ele>
        <time>2020-06-18T18:32:36Z</time>
      </trkpt>
      <trkpt lat="50.43012" lon="1.65038">
        <ele>11.5</ele>
        <time>2020-06-18T18:32:37Z</time>
      </trkpt>
      <trkpt lat="50.43019" lon="1.6504">
        <ele>11.5</ele>
        <time>2020-06-18T18:32:38Z</time>
      </trkpt>
      <trkpt lat="50.43026" lon="1.65041">
        <ele>11.6</ele>
        <time>2020-06-18T18:32:39Z</time>
      </trkpt>
      <trkpt lat="50.43033" lon="1.65041">
        <ele>11.6</ele>
        <time>2020-06-18T18:32:40Z</time>
      </trkpt>
      <trkpt lat="50.4304" lon="1.65042">
        <ele>11.6</ele>
        <time>2020-06-18T18:32:41Z</time>
      </trkpt>
      <trkpt lat="50.43047" lon="1.65043">
        <ele>11.6</ele>
        <time>2020-06-18T18:32:42Z</time>
      </trkpt>
      <trkpt lat="50.43054" lon="1.65043">
        <ele>11.6</ele>
        <time>2020-06-18T18:32:43Z</time>
      </trkpt>
      <trkpt lat="50.43061" lon="1.65044">
        <ele>11.6</ele>
        <time>2020-06-18T18:32:44Z</time>
      </trkpt>
      <trkpt lat="50.43068" lon="1.65045">
        <ele>11.6</ele>
        <time>2020-06-18T18:32:45Z</time>
      </trkpt>
      <trkpt lat="50.43075" lon="1.65046">
        <ele>11.5</ele>
        <time>2020-06-18T18:32:46Z</time>
      </trkpt>
      <trkpt lat="50.43082" lon="1.65046">
        <ele>11.3</ele>
        <time>2020-06-18T18:32:47Z</time>
      </trkpt>
      <trkpt lat="50.43089" lon="1.65048">
        <ele>11.2</ele>
        <time>2020-06-18T18:32:48Z</time>
      </trkpt>
      <trkpt lat="50.43096" lon="1.65049">
        <ele>11.1</ele>
        <time>2020-06-18T18:32:49Z</time>
      </trkpt>
      <trkpt lat="50.43103" lon="1.65051">
        <ele>11</ele>
        <time>2020-06-18T18:32:50Z</time>
      </trkpt>
      <trkpt lat="50.43111" lon="1.65053">
        <ele>10.9</ele>
        <time>2020-06-18T18:32:51Z</time>
      </trkpt>
      <trkpt lat="50.43118" lon="1.65056">
        <ele>10.9</ele>
        <time>2020-06-18T18:32:52Z</time>
      </trkpt>
      <trkpt lat="50.43124" lon="1.65059">
        <ele>10.9</ele>
        <time>2020-06-18T18:32:53Z</time>
      </trkpt>
      <trkpt lat="50.43131" lon="1.65063">
        <ele>10.8</ele>
        <time>2020-06-18T18:32:54Z</time>
      </trkpt>
      <trkpt lat="50.43138" lon="1.65066">
        <ele>10.7</ele>
        <time>2020-06-18T18:32:55Z</time>
      </trkpt>
      <trkpt lat="50.43145" lon="1.6507">
        <ele>10.7</ele>
        <time>2020-06-18T18:32:56Z</time>
      </trkpt>
      <trkpt lat="50.43152" lon="1.65073">
        <ele>10.5</ele>
        <time>2020-06-18T18:32:57Z</time>
      </trkpt>
      <trkpt lat="50.43159" lon="1.65077">
        <ele>10.4</ele>
        <time>2020-06-18T18:32:58Z</time>
      </trkpt>
      <trkpt lat="50.43166" lon="1.65081">
        <ele>10.3</ele>
        <time>2020-06-18T18:32:59Z</time>
      </trkpt>
      <trkpt lat="50.43173" lon="1.65085">
        <ele>10.1</ele>
        <time>2020-06-18T18:33:00Z</time>
      </trkpt>
      <trkpt lat="50.4318" lon="1.65089">
        <ele>10</ele>
        <time>2020-06-18T18:33:01Z</time>
      </trkpt>
      <trkpt lat="50.43188" lon="1.65093">
        <ele>9.8</ele>
        <time>2020-06-18T18:33:02Z</time>
      </trkpt>
      <trkpt lat="50.43196" lon="1.65096">
        <ele>9.6</ele>
        <time>2020-06-18T18:33:03Z</time>
      </trkpt>
      <trkpt lat="50.43205" lon="1.651">
        <ele>9.5</ele>
        <time>2020-06-18T18:33:04Z</time>
      </trkpt>
      <trkpt lat="50.43213" lon="1.65103">
        <ele>9.4</ele>
        <time>2020-06-18T18:33:05Z</time>
      </trkpt>
      <trkpt lat="50.43222" lon="1.65106">
        <ele>9.4</ele>
        <time>2020-06-18T18:33:06Z</time>
      </trkpt>
      <trkpt lat="50.43231" lon="1.65109">
        <ele>9.1</ele>
        <time>2020-06-18T18:33:07Z</time>
      </trkpt>
      <trkpt lat="50.4324" lon="1.6511">
        <ele>8.8</ele>
        <time>2020-06-18T18:33:08Z</time>
      </trkpt>
      <trkpt lat="50.4325" lon="1.6511">
        <ele>8.4</ele>
        <time>2020-06-18T18:33:09Z</time>
      </trkpt>
      <trkpt lat="50.43259" lon="1.65111">
        <ele>8.1</ele>
        <time>2020-06-18T18:33:10Z</time>
      </trkpt>
      <trkpt lat="50.43269" lon="1.65111">
        <ele>7.7</ele>
        <time>2020-06-18T18:33:11Z</time>
      </trkpt>
      <trkpt lat="50.43279" lon="1.6511">
        <ele>7.3</ele>
        <time>2020-06-18T18:33:12Z</time>
      </trkpt>
      <trkpt lat="50.43289" lon="1.65108">
        <ele>7</ele>
        <time>2020-06-18T18:33:13Z</time>
      </trkpt>
      <trkpt lat="50.43299" lon="1.65108">
        <ele>6.7</ele>
        <time>2020-06-18T18:33:14Z</time>
      </trkpt>
      <trkpt lat="50.43309" lon="1.65108">
        <ele>6.6</ele>
        <time>2020-06-18T18:33:15Z</time>
      </trkpt>
      <trkpt lat="50.43319" lon="1.65109">
        <ele>6.4</ele>
        <time>2020-06-18T18:33:16Z</time>
      </trkpt>
      <trkpt lat="50.43329" lon="1.65108">
        <ele>6.3</ele>
        <time>2020-06-18T18:33:17Z</time>
      </trkpt>
      <trkpt lat="50.43339" lon="1.65107">
        <ele>6.2</ele>
        <time>2020-06-18T18:33:18Z</time>
      </trkpt>
      <trkpt lat="50.43349" lon="1.65107">
        <ele>6.1</ele>
        <time>2020-06-18T18:33:19Z</time>
      </trkpt>
      <trkpt lat="50.43358" lon="1.65107">
        <ele>6.1</ele>
        <time>2020-06-18T18:33:20Z</time>
      </trkpt>
      <trkpt lat="50.43368" lon="1.65108">
        <ele>6</ele>
        <time>2020-06-18T18:33:21Z</time>
      </trkpt>
      <trkpt lat="50.43378" lon="1.6511">
        <ele>6</ele>
        <time>2020-06-18T18:33:22Z</time>
      </trkpt>
      <trkpt lat="50.43387" lon="1.65112">
        <ele>5.9</ele>
        <time>2020-06-18T18:33:23Z</time>
      </trkpt>
      <trkpt lat="50.43396" lon="1.65117">
        <ele>5.8</ele>
        <time>2020-06-18T18:33:24Z</time>
      </trkpt>
      <trkpt lat="50.43405" lon="1.65119">
        <ele>5.8</ele>
        <time>2020-06-18T18:33:25Z</time>
      </trkpt>
      <trkpt lat="50.43415" lon="1.65121">
        <ele>5.8</ele>
        <time>2020-06-18T18:33:26Z</time>
      </trkpt>
      <trkpt lat="50.43425" lon="1.65124">
        <ele>5.8</ele>
        <time>2020-06-18T18:33:27Z</time>
      </trkpt>
      <trkpt lat="50.43434" lon="1.65127">
        <ele>5.8</ele>
        <time>2020-06-18T18:33:28Z</time>
      </trkpt>
      <trkpt lat="50.43444" lon="1.6513">
        <ele>5.7</ele>
        <time>2020-06-18T18:33:29Z</time>
      </trkpt>
      <trkpt lat="50.43453" lon="1.65133">
        <ele>5.6</ele>
        <time>2020-06-18T18:33:30Z</time>
      </trkpt>
      <trkpt lat="50.43462" lon="1.65137">
        <ele>5.4</ele>
        <time>2020-06-18T18:33:31Z</time>
      </trkpt>
      <trkpt lat="50.43471" lon="1.65142">
        <ele>5.2</ele>
        <time>2020-06-18T18:33:32Z</time>
      </trkpt>
      <trkpt lat="50.4348" lon="1.65147">
        <ele>5.1</ele>
        <time>2020-06-18T18:33:33Z</time>
      </trkpt>
      <trkpt lat="50.43489" lon="1.6515">
        <ele>5.1</ele>
        <time>2020-06-18T18:33:34Z</time>
      </trkpt>
      <trkpt lat="50.43498" lon="1.65153">
        <ele>5</ele>
        <time>2020-06-18T18:33:35Z</time>
      </trkpt>
      <trkpt lat="50.43507" lon="1.65156">
        <ele>5</ele>
        <time>2020-06-18T18:33:36Z</time>
      </trkpt>
      <trkpt lat="50.43516" lon="1.65159">
        <ele>5</ele>
        <time>2020-06-18T18:33:37Z</time>
      </trkpt>
      <trkpt lat="50.43525" lon="1.65162">
        <ele>5</ele>
        <time>2020-06-18T18:33:38Z</time>
      </trkpt>
      <trkpt lat="50.43533" lon="1.65166">
        <ele>5</ele>
        <time>2020-06-18T18:33:39Z</time>
      </trkpt>
      <trkpt lat="50.43541" lon="1.65169">
        <ele>5.1</ele>
        <time>2020-06-18T18:33:40Z</time>
      </trkpt>
      <trkpt lat="50.4355" lon="1.65173">
        <ele>5.2</ele>
        <time>2020-06-18T18:33:41Z</time>
      </trkpt>
      <trkpt lat="50.43559" lon="1.65175">
        <ele>5.4</ele>
        <time>2020-06-18T18:33:42Z</time>
      </trkpt>
      <trkpt lat="50.43567" lon="1.65177">
        <ele>5.5</ele>
        <time>2020-06-18T18:33:43Z</time>
      </trkpt>
      <trkpt lat="50.43575" lon="1.65179">
        <ele>5.7</ele>
        <time>2020-06-18T18:33:44Z</time>
      </trkpt>
      <trkpt lat="50.43582" lon="1.65181">
        <ele>5.8</ele>
        <time>2020-06-18T18:33:45Z</time>
      </trkpt>
      <trkpt lat="50.4359" lon="1.65183">
        <ele>6</ele>
        <time>2020-06-18T18:33:46Z</time>
      </trkpt>
      <trkpt lat="50.43598" lon="1.65185">
        <ele>6.4</ele>
        <time>2020-06-18T18:33:47Z</time>
      </trkpt>
      <trkpt lat="50.43606" lon="1.65183">
        <ele>6.8</ele>
        <time>2020-06-18T18:33:48Z</time>
      </trkpt>
      <trkpt lat="50.43613" lon="1.65182">
        <ele>7.1</ele>
        <time>2020-06-18T18:33:49Z</time>
      </trkpt>
      <trkpt lat="50.4362" lon="1.6518">
        <ele>7.5</ele>
        <time>2020-06-18T18:33:50Z</time>
      </trkpt>
      <trkpt lat="50.43626" lon="1.65178">
        <ele>8</ele>
        <time>2020-06-18T18:33:51Z</time>
      </trkpt>
      <trkpt lat="50.43632" lon="1.65175">
        <ele>8.4</ele>
        <time>2020-06-18T18:33:52Z</time>
      </trkpt>
      <trkpt lat="50.43638" lon="1.65173">
        <ele>8.8</ele>
        <time>2020-06-18T18:33:53Z</time>
      </trkpt>
      <trkpt lat="50.43643" lon="1.6517">
        <ele>9.2</ele>
        <time>2020-06-18T18:33:54Z</time>
      </trkpt>
      <trkpt lat="50.43648" lon="1.65167">
        <ele>9.6</ele>
        <time>2020-06-18T18:33:55Z</time>
      </trkpt>
      <trkpt lat="50.43653" lon="1.65165">
        <ele>10</ele>
        <time>2020-06-18T18:33:56Z</time>
      </trkpt>
      <trkpt lat="50.43657" lon="1.65163">
        <ele>10.4</ele>
        <time>2020-06-18T18:33:57Z</time>
      </trkpt>
      <trkpt lat="50.43662" lon="1.6516">
        <ele>10.7</ele>
        <time>2020-06-18T18:33:58Z</time>
      </trkpt>
      <trkpt lat="50.43666" lon="1.65157">
        <ele>11.1</ele>
        <time>2020-06-18T18:33:59Z</time>
      </trkpt>
      <trkpt lat="50.4367" lon="1.65152">
        <ele>11.4</ele>
        <time>2020-06-18T18:34:00Z</time>
      </trkpt>
      <trkpt lat="50.43674" lon="1.65149">
        <ele>11.7</ele>
        <time>2020-06-18T18:34:01Z</time>
      </trkpt>
      <trkpt lat="50.43678" lon="1.65146">
        <ele>12</ele>
        <time>2020-06-18T18:34:02Z</time>
      </trkpt>
      <trkpt lat="50.43683" lon="1.65144">
        <ele>12.3</ele>
        <time>2020-06-18T18:34:03Z</time>
      </trkpt>
      <trkpt lat="50.43687" lon="1.65142">
        <ele>12.6</ele>
        <time>2020-06-18T18:34:04Z</time>
      </trkpt>
      <trkpt lat="50.4369" lon="1.6514">
        <ele>12.8</ele>
        <time>2020-06-18T18:34:05Z</time>
      </trkpt>
      <trkpt lat="50.43694" lon="1.65138">
        <ele>13.1</ele>
        <time>2020-06-18T18:34:06Z</time>
      </trkpt>
      <trkpt lat="50.43698" lon="1.65135">
        <ele>13.3</ele>
        <time>2020-06-18T18:34:07Z</time>
      </trkpt>
      <trkpt lat="50.43702" lon="1.65134">
        <ele>13.6</ele>
        <time>2020-06-18T18:34:08Z</time>
      </trkpt>
      <trkpt lat="50.43705" lon="1.65133">
        <ele>13.8</ele>
        <time>2020-06-18T18:34:09Z</time>
      </trkpt>
      <trkpt lat="50.4371" lon="1.65131">
        <ele>14.2</ele>
        <time>2020-06-18T18:34:10Z</time>
      </trkpt>
      <trkpt lat="50.43715" lon="1.65129">
        <ele>14.4</ele>
        <time>2020-06-18T18:34:11Z</time>
      </trkpt>
      <trkpt lat="50.4372" lon="1.65128">
        <ele>14.6</ele>
        <time>2020-06-18T18:34:12Z</time>
      </trkpt>
      <trkpt lat="50.43725" lon="1.65128">
        <ele>14.8</ele>
        <time>2020-06-18T18:34:13Z</time>
      </trkpt>
      <trkpt lat="50.4373" lon="1.65127">
        <ele>15</ele>
        <time>2020-06-18T18:34:14Z</time>
      </trkpt>
      <trkpt lat="50.43735" lon="1.65126">
        <ele>15.2</ele>
        <time>2020-06-18T18:34:15Z</time>
      </trkpt>
      <trkpt lat="50.43741" lon="1.65124">
        <ele>15.3</ele>
        <time>2020-06-18T18:34:16Z</time>
      </trkpt>
      <trkpt lat="50.43746" lon="1.65122">
        <ele>15.5</ele>
        <time>2020-06-18T18:34:17Z</time>
      </trkpt>
      <trkpt lat="50.4375" lon="1.65122">
        <ele>15.6</ele>
        <time>2020-06-18T18:34:18Z</time>
      </trkpt>
      <trkpt lat="50.43755" lon="1.65122">
        <ele>15.7</ele>
        <time>2020-06-18T18:34:19Z</time>
      </trkpt>
      <trkpt lat="50.43759" lon="1.65121">
        <ele>15.8</ele>
        <time>2020-06-18T18:34:20Z</time>
      </trkpt>
      <trkpt lat="50.43764" lon="1.65121">
        <ele>15.9</ele>
        <time>2020-06-18T18:34:21Z</time>
      </trkpt>
      <trkpt lat="50.43768" lon="1.6512">
        <ele>16</ele>
        <time>2020-06-18T18:34:22Z</time>
      </trkpt>
      <trkpt lat="50.43773" lon="1.6512">
        <ele>16.2</ele>
        <time>2020-06-18T18:34:23Z</time>
      </trkpt>
      <trkpt lat="50.43777" lon="1.65119">
        <ele>16.4</ele>
        <time>2020-06-18T18:34:24Z</time>
      </trkpt>
      <trkpt lat="50.43782" lon="1.65119">
        <ele>16.6</ele>
        <time>2020-06-18T18:34:25Z</time>
      </trkpt>
      <trkpt lat="50.43787" lon="1.6512">
        <ele>17.3</ele>
        <time>2020-06-18T18:34:26Z</time>
      </trkpt>
      <trkpt lat="50.43791" lon="1.6512">
        <ele>17.5</ele>
        <time>2020-06-18T18:34:27Z</time>
      </trkpt>
      <trkpt lat="50.43796" lon="1.6512">
        <ele>17.8</ele>
        <time>2020-06-18T18:34:28Z</time>
      </trkpt>
      <trkpt lat="50.438" lon="1.6512">
        <ele>17.8</ele>
        <time>2020-06-18T18:34:29Z</time>
      </trkpt>
      <trkpt lat="50.43804" lon="1.6512">
        <ele>17.8</ele>
        <time>2020-06-18T18:34:30Z</time>
      </trkpt>
      <trkpt lat="50.43808" lon="1.65119">
        <ele>17.8</ele>
        <time>2020-06-18T18:34:31Z</time>
      </trkpt>
      <trkpt lat="50.43813" lon="1.65118">
        <ele>17.8</ele>
        <time>2020-06-18T18:34:32Z</time>
      </trkpt>
      <trkpt lat="50.43818" lon="1.65119">
        <ele>17.9</ele>
        <time>2020-06-18T18:34:33Z</time>
      </trkpt>
      <trkpt lat="50.43823" lon="1.65119">
        <ele>17.9</ele>
        <time>2020-06-18T18:34:34Z</time>
      </trkpt>
      <trkpt lat="50.43828" lon="1.65119">
        <ele>18</ele>
        <time>2020-06-18T18:34:35Z</time>
      </trkpt>
      <trkpt lat="50.43835" lon="1.65118">
        <ele>18.1</ele>
        <time>2020-06-18T18:34:36Z</time>
      </trkpt>
      <trkpt lat="50.43838" lon="1.65118">
        <ele>18.1</ele>
        <time>2020-06-18T18:34:37Z</time>
      </trkpt>
      <trkpt lat="50.43844" lon="1.65118">
        <ele>18.1</ele>
        <time>2020-06-18T18:34:38Z</time>
      </trkpt>
      <trkpt lat="50.43848" lon="1.65118">
        <ele>18.2</ele>
        <time>2020-06-18T18:34:39Z</time>
      </trkpt>
      <trkpt lat="50.43853" lon="1.65117">
        <ele>18.2</ele>
        <time>2020-06-18T18:34:40Z</time>
      </trkpt>
      <trkpt lat="50.43858" lon="1.65117">
        <ele>18.2</ele>
        <time>2020-06-18T18:34:41Z</time>
      </trkpt>
      <trkpt lat="50.43863" lon="1.65117">
        <ele>18.2</ele>
        <time>2020-06-18T18:34:42Z</time>
      </trkpt>
      <trkpt lat="50.43867" lon="1.65117">
        <ele>18.1</ele>
        <time>2020-06-18T18:34:43Z</time>
      </trkpt>
      <trkpt lat="50.43871" lon="1.65118">
        <ele>18.1</ele>
        <time>2020-06-18T18:34:44Z</time>
      </trkpt>
      <trkpt lat="50.43876" lon="1.65117">
        <ele>18</ele>
        <time>2020-06-18T18:34:45Z</time>
      </trkpt>
      <trkpt lat="50.43881" lon="1.65115">
        <ele>18</ele>
        <time>2020-06-18T18:34:46Z</time>
      </trkpt>
      <trkpt lat="50.43888" lon="1.65115">
        <ele>18</ele>
        <time>2020-06-18T18:34:47Z</time>
      </trkpt>
      <trkpt lat="50.43894" lon="1.65114">
        <ele>17.9</ele>
        <time>2020-06-18T18:34:48Z</time>
      </trkpt>
      <trkpt lat="50.43899" lon="1.65114">
        <ele>17.9</ele>
        <time>2020-06-18T18:34:49Z</time>
      </trkpt>
      <trkpt lat="50.43903" lon="1.65113">
        <ele>17.8</ele>
        <time>2020-06-18T18:34:50Z</time>
      </trkpt>
      <trkpt lat="50.43908" lon="1.65113">
        <ele>17.8</ele>
        <time>2020-06-18T18:34:51Z</time>
      </trkpt>
      <trkpt lat="50.43913" lon="1.65112">
        <ele>17.8</ele>
        <time>2020-06-18T18:34:52Z</time>
      </trkpt>
      <trkpt lat="50.4392" lon="1.65111">
        <ele>17.7</ele>
        <time>2020-06-18T18:34:53Z</time>
      </trkpt>
      <trkpt lat="50.43927" lon="1.6511">
        <ele>17.7</ele>
        <time>2020-06-18T18:34:54Z</time>
      </trkpt>
      <trkpt lat="50.43934" lon="1.65109">
        <ele>17.6</ele>
        <time>2020-06-18T18:34:55Z</time>
      </trkpt>
      <trkpt lat="50.43941" lon="1.65107">
        <ele>17.6</ele>
        <time>2020-06-18T18:34:56Z</time>
      </trkpt>
      <trkpt lat="50.43947" lon="1.65106">
        <ele>17.6</ele>
        <time>2020-06-18T18:34:57Z</time>
      </trkpt>
      <trkpt lat="50.43953" lon="1.65104">
        <ele>17.5</ele>
        <time>2020-06-18T18:34:58Z</time>
      </trkpt>
      <trkpt lat="50.4396" lon="1.65104">
        <ele>17.5</ele>
        <time>2020-06-18T18:34:59Z</time>
      </trkpt>
      <trkpt lat="50.43965" lon="1.65103">
        <ele>17.5</ele>
        <time>2020-06-18T18:35:00Z</time>
      </trkpt>
      <trkpt lat="50.43971" lon="1.65101">
        <ele>17.4</ele>
        <time>2020-06-18T18:35:01Z</time>
      </trkpt>
      <trkpt lat="50.43978" lon="1.651">
        <ele>17.3</ele>
        <time>2020-06-18T18:35:02Z</time>
      </trkpt>
      <trkpt lat="50.43984" lon="1.65098">
        <ele>17.2</ele>
        <time>2020-06-18T18:35:03Z</time>
      </trkpt>
      <trkpt lat="50.4399" lon="1.65098">
        <ele>17.2</ele>
        <time>2020-06-18T18:35:04Z</time>
      </trkpt>
      <trkpt lat="50.43997" lon="1.65096">
        <ele>17.1</ele>
        <time>2020-06-18T18:35:05Z</time>
      </trkpt>
      <trkpt lat="50.44004" lon="1.65095">
        <ele>17</ele>
        <time>2020-06-18T18:35:06Z</time>
      </trkpt>
      <trkpt lat="50.44011" lon="1.65094">
        <ele>16.9</ele>
        <time>2020-06-18T18:35:07Z</time>
      </trkpt>
      <trkpt lat="50.44017" lon="1.65092">
        <ele>16.8</ele>
        <time>2020-06-18T18:35:08Z</time>
      </trkpt>
      <trkpt lat="50.44023" lon="1.65091">
        <ele>16.7</ele>
        <time>2020-06-18T18:35:09Z</time>
      </trkpt>
      <trkpt lat="50.4403" lon="1.65089">
        <ele>16.6</ele>
        <time>2020-06-18T18:35:10Z</time>
      </trkpt>
      <trkpt lat="50.44037" lon="1.65088">
        <ele>16.5</ele>
        <time>2020-06-18T18:35:11Z</time>
      </trkpt>
      <trkpt lat="50.44044" lon="1.65087">
        <ele>16.4</ele>
        <time>2020-06-18T18:35:12Z</time>
      </trkpt>
      <trkpt lat="50.44052" lon="1.65087">
        <ele>16.3</ele>
        <time>2020-06-18T18:35:13Z</time>
      </trkpt>
      <trkpt lat="50.44059" lon="1.65087">
        <ele>16.1</ele>
        <time>2020-06-18T18:35:14Z</time>
      </trkpt>
      <trkpt lat="50.44065" lon="1.65086">
        <ele>16</ele>
        <time>2020-06-18T18:35:15Z</time>
      </trkpt>
      <trkpt lat="50.44072" lon="1.65085">
        <ele>15.9</ele>
        <time>2020-06-18T18:35:16Z</time>
      </trkpt>
      <trkpt lat="50.44079" lon="1.65085">
        <ele>15.8</ele>
        <time>2020-06-18T18:35:17Z</time>
      </trkpt>
      <trkpt lat="50.44085" lon="1.65084">
        <ele>15.7</ele>
        <time>2020-06-18T18:35:18Z</time>
      </trkpt>
      <trkpt lat="50.44092" lon="1.65083">
        <ele>15.6</ele>
        <time>2020-06-18T18:35:19Z</time>
      </trkpt>
      <trkpt lat="50.44099" lon="1.65082">
        <ele>15.6</ele>
        <time>2020-06-18T18:35:20Z</time>
      </trkpt>
      <trkpt lat="50.44105" lon="1.65081">
        <ele>15.5</ele>
        <time>2020-06-18T18:35:21Z</time>
      </trkpt>
      <trkpt lat="50.44112" lon="1.6508">
        <ele>15.5</ele>
        <time>2020-06-18T18:35:22Z</time>
      </trkpt>
      <trkpt lat="50.44118" lon="1.65079">
        <ele>15.5</ele>
        <time>2020-06-18T18:35:23Z</time>
      </trkpt>
      <trkpt lat="50.44125" lon="1.65077">
        <ele>15.5</ele>
        <time>2020-06-18T18:35:24Z</time>
      </trkpt>
      <trkpt lat="50.44131" lon="1.65076">
        <ele>15.3</ele>
        <time>2020-06-18T18:35:25Z</time>
      </trkpt>
      <trkpt lat="50.44138" lon="1.65075">
        <ele>15.1</ele>
        <time>2020-06-18T18:35:26Z</time>
      </trkpt>
      <trkpt lat="50.44145" lon="1.65074">
        <ele>14.9</ele>
        <time>2020-06-18T18:35:27Z</time>
      </trkpt>
      <trkpt lat="50.44152" lon="1.65073">
        <ele>14.8</ele>
        <time>2020-06-18T18:35:28Z</time>
      </trkpt>
      <trkpt lat="50.44159" lon="1.65071">
        <ele>14.6</ele>
        <time>2020-06-18T18:35:29Z</time>
      </trkpt>
      <trkpt lat="50.44166" lon="1.6507">
        <ele>14.5</ele>
        <time>2020-06-18T18:35:30Z</time>
      </trkpt>
      <trkpt lat="50.44173" lon="1.65068">
        <ele>14.5</ele>
        <time>2020-06-18T18:35:31Z</time>
      </trkpt>
      <trkpt lat="50.4418" lon="1.65066">
        <ele>14.4</ele>
        <time>2020-06-18T18:35:32Z</time>
      </trkpt>
      <trkpt lat="50.44186" lon="1.65064">
        <ele>14.3</ele>
        <time>2020-06-18T18:35:33Z</time>
      </trkpt>
      <trkpt lat="50.44193" lon="1.65062">
        <ele>14.2</ele>
        <time>2020-06-18T18:35:34Z</time>
      </trkpt>
      <trkpt lat="50.442" lon="1.6506">
        <ele>14</ele>
        <time>2020-06-18T18:35:35Z</time>
      </trkpt>
      <trkpt lat="50.44207" lon="1.65059">
        <ele>13.9</ele>
        <time>2020-06-18T18:35:36Z</time>
      </trkpt>
      <trkpt lat="50.44215" lon="1.65057">
        <ele>13.8</ele>
        <time>2020-06-18T18:35:37Z</time>
      </trkpt>
      <trkpt lat="50.44222" lon="1.65055">
        <ele>13.6</ele>
        <time>2020-06-18T18:35:38Z</time>
      </trkpt>
      <trkpt lat="50.44229" lon="1.65053">
        <ele>13.5</ele>
        <time>2020-06-18T18:35:39Z</time>
      </trkpt>
      <trkpt lat="50.44237" lon="1.65051">
        <ele>13.4</ele>
        <time>2020-06-18T18:35:40Z</time>
      </trkpt>
      <trkpt lat="50.44244" lon="1.65051">
        <ele>13.3</ele>
        <time>2020-06-18T18:35:41Z</time>
      </trkpt>
      <trkpt lat="50.44251" lon="1.6505">
        <ele>13.2</ele>
        <time>2020-06-18T18:35:42Z</time>
      </trkpt>
      <trkpt lat="50.44258" lon="1.65049">
        <ele>13</ele>
        <time>2020-06-18T18:35:43Z</time>
      </trkpt>
      <trkpt lat="50.44265" lon="1.65048">
        <ele>12.9</ele>
        <time>2020-06-18T18:35:44Z</time>
      </trkpt>
      <trkpt lat="50.44272" lon="1.65048">
        <ele>12.7</ele>
        <time>2020-06-18T18:35:45Z</time>
      </trkpt>
      <trkpt lat="50.4428" lon="1.65048">
        <ele>12.6</ele>
        <time>2020-06-18T18:35:46Z</time>
      </trkpt>
      <trkpt lat="50.44286" lon="1.65048">
        <ele>12.4</ele>
        <time>2020-06-18T18:35:47Z</time>
      </trkpt>
      <trkpt lat="50.44293" lon="1.65047">
        <ele>12.3</ele>
        <time>2020-06-18T18:35:48Z</time>
      </trkpt>
      <trkpt lat="50.44301" lon="1.65048">
        <ele>12.2</ele>
        <time>2020-06-18T18:35:49Z</time>
      </trkpt>
      <trkpt lat="50.44308" lon="1.65048">
        <ele>12.1</ele>
        <time>2020-06-18T18:35:50Z</time>
      </trkpt>
      <trkpt lat="50.44315" lon="1.65048">
        <ele>12</ele>
        <time>2020-06-18T18:35:51Z</time>
      </trkpt>
      <trkpt lat="50.44323" lon="1.65048">
        <ele>11.8</ele>
        <time>2020-06-18T18:35:52Z</time>
      </trkpt>
      <trkpt lat="50.4433" lon="1.65048">
        <ele>11.7</ele>
        <time>2020-06-18T18:35:53Z</time>
      </trkpt>
      <trkpt lat="50.44338" lon="1.65048">
        <ele>11.5</ele>
        <time>2020-06-18T18:35:54Z</time>
      </trkpt>
      <trkpt lat="50.44345" lon="1.65048">
        <ele>11.3</ele>
        <time>2020-06-18T18:35:55Z</time>
      </trkpt>
      <trkpt lat="50.44353" lon="1.65048">
        <ele>11.1</ele>
        <time>2020-06-18T18:35:56Z</time>
      </trkpt>
      <trkpt lat="50.4436" lon="1.65048">
        <ele>10.9</ele>
        <time>2020-06-18T18:35:57Z</time>
      </trkpt>
      <trkpt lat="50.44368" lon="1.65048">
        <ele>10.7</ele>
        <time>2020-06-18T18:35:58Z</time>
      </trkpt>
      <trkpt lat="50.44375" lon="1.65049">
        <ele>10.5</ele>
        <time>2020-06-18T18:35:59Z</time>
      </trkpt>
      <trkpt lat="50.44383" lon="1.65049">
        <ele>10.2</ele>
        <time>2020-06-18T18:36:00Z</time>
      </trkpt>
      <trkpt lat="50.44391" lon="1.6505">
        <ele>9.9</ele>
        <time>2020-06-18T18:36:01Z</time>
      </trkpt>
      <trkpt lat="50.44399" lon="1.6505">
        <ele>9.6</ele>
        <time>2020-06-18T18:36:02Z</time>
      </trkpt>
      <trkpt lat="50.44407" lon="1.65051">
        <ele>9.4</ele>
        <time>2020-06-18T18:36:03Z</time>
      </trkpt>
      <trkpt lat="50.44415" lon="1.65051">
        <ele>9.1</ele>
        <time>2020-06-18T18:36:04Z</time>
      </trkpt>
      <trkpt lat="50.44423" lon="1.65051">
        <ele>8.9</ele>
        <time>2020-06-18T18:36:05Z</time>
      </trkpt>
      <trkpt lat="50.44431" lon="1.65052">
        <ele>8.6</ele>
        <time>2020-06-18T18:36:06Z</time>
      </trkpt>
      <trkpt lat="50.4444" lon="1.65053">
        <ele>8.4</ele>
        <time>2020-06-18T18:36:07Z</time>
      </trkpt>
      <trkpt lat="50.44448" lon="1.65053">
        <ele>8.2</ele>
        <time>2020-06-18T18:36:08Z</time>
      </trkpt>
      <trkpt lat="50.44456" lon="1.65054">
        <ele>8</ele>
        <time>2020-06-18T18:36:09Z</time>
      </trkpt>
      <trkpt lat="50.44464" lon="1.65054">
        <ele>7.9</ele>
        <time>2020-06-18T18:36:10Z</time>
      </trkpt>
      <trkpt lat="50.44473" lon="1.65054">
        <ele>7.7</ele>
        <time>2020-06-18T18:36:11Z</time>
      </trkpt>
      <trkpt lat="50.44481" lon="1.65055">
        <ele>7.5</ele>
        <time>2020-06-18T18:36:12Z</time>
      </trkpt>
      <trkpt lat="50.44489" lon="1.65055">
        <ele>7.4</ele>
        <time>2020-06-18T18:36:13Z</time>
      </trkpt>
      <trkpt lat="50.44497" lon="1.65055">
        <ele>7.2</ele>
        <time>2020-06-18T18:36:14Z</time>
      </trkpt>
      <trkpt lat="50.44505" lon="1.65055">
        <ele>7.1</ele>
        <time>2020-06-18T18:36:15Z</time>
      </trkpt>
      <trkpt lat="50.44513" lon="1.65055">
        <ele>7</ele>
        <time>2020-06-18T18:36:16Z</time>
      </trkpt>
      <trkpt lat="50.44521" lon="1.65055">
        <ele>6.9</ele>
        <time>2020-06-18T18:36:17Z</time>
      </trkpt>
      <trkpt lat="50.44529" lon="1.65056">
        <ele>6.8</ele>
        <time>2020-06-18T18:36:18Z</time>
      </trkpt>
      <trkpt lat="50.44536" lon="1.65056">
        <ele>6.7</ele>
        <time>2020-06-18T18:36:19Z</time>
      </trkpt>
      <trkpt lat="50.44544" lon="1.65056">
        <ele>6.6</ele>
        <time>2020-06-18T18:36:20Z</time>
      </trkpt>
      <trkpt lat="50.44552" lon="1.65056">
        <ele>6.5</ele>
        <time>2020-06-18T18:36:21Z</time>
      </trkpt>
      <trkpt lat="50.4456" lon="1.65057">
        <ele>6.5</ele>
        <time>2020-06-18T18:36:22Z</time>
      </trkpt>
      <trkpt lat="50.44568" lon="1.65058">
        <ele>6.4</ele>
        <time>2020-06-18T18:36:23Z</time>
      </trkpt>
      <trkpt lat="50.44576" lon="1.65058">
        <ele>6.4</ele>
        <time>2020-06-18T18:36:24Z</time>
      </trkpt>
      <trkpt lat="50.44584" lon="1.65058">
        <ele>6.4</ele>
        <time>2020-06-18T18:36:25Z</time>
      </trkpt>
      <trkpt lat="50.44592" lon="1.65057">
        <ele>6.4</ele>
        <time>2020-06-18T18:36:26Z</time>
      </trkpt>
      <trkpt lat="50.446" lon="1.65057">
        <ele>6.5</ele>
        <time>2020-06-18T18:36:27Z</time>
      </trkpt>
      <trkpt lat="50.44608" lon="1.65056">
        <ele>6.5</ele>
        <time>2020-06-18T18:36:28Z</time>
      </trkpt>
      <trkpt lat="50.44616" lon="1.65056">
        <ele>6.6</ele>
        <time>2020-06-18T18:36:29Z</time>
      </trkpt>
      <trkpt lat="50.44624" lon="1.65056">
        <ele>6.6</ele>
        <time>2020-06-18T18:36:30Z</time>
      </trkpt>
      <trkpt lat="50.44631" lon="1.65056">
        <ele>6.7</ele>
        <time>2020-06-18T18:36:31Z</time>
      </trkpt>
      <trkpt lat="50.44639" lon="1.65057">
        <ele>6.7</ele>
        <time>2020-06-18T18:36:32Z</time>
      </trkpt>
      <trkpt lat="50.44647" lon="1.65057">
        <ele>6.7</ele>
        <time>2020-06-18T18:36:33Z</time>
      </trkpt>
      <trkpt lat="50.44654" lon="1.65056">
        <ele>6.7</ele>
        <time>2020-06-18T18:36:34Z</time>
      </trkpt>
      <trkpt lat="50.44662" lon="1.65057">
        <ele>6.8</ele>
        <time>2020-06-18T18:36:35Z</time>
      </trkpt>
      <trkpt lat="50.4467" lon="1.65057">
        <ele>6.8</ele>
        <time>2020-06-18T18:36:36Z</time>
      </trkpt>
      <trkpt lat="50.44677" lon="1.65058">
        <ele>6.8</ele>
        <time>2020-06-18T18:36:37Z</time>
      </trkpt>
      <trkpt lat="50.44685" lon="1.65058">
        <ele>6.9</ele>
        <time>2020-06-18T18:36:38Z</time>
      </trkpt>
      <trkpt lat="50.44693" lon="1.65058">
        <ele>6.9</ele>
        <time>2020-06-18T18:36:39Z</time>
      </trkpt>
      <trkpt lat="50.44701" lon="1.65058">
        <ele>6.9</ele>
        <time>2020-06-18T18:36:40Z</time>
      </trkpt>
      <trkpt lat="50.44708" lon="1.65059">
        <ele>7</ele>
        <time>2020-06-18T18:36:41Z</time>
      </trkpt>
      <trkpt lat="50.44716" lon="1.65059">
        <ele>7</ele>
        <time>2020-06-18T18:36:42Z</time>
      </trkpt>
      <trkpt lat="50.44723" lon="1.65059">
        <ele>7</ele>
        <time>2020-06-18T18:36:43Z</time>
      </trkpt>
      <trkpt lat="50.44731" lon="1.65059">
        <ele>7.1</ele>
        <time>2020-06-18T18:36:44Z</time>
      </trkpt>
      <trkpt lat="50.44739" lon="1.6506">
        <ele>7.1</ele>
        <time>2020-06-18T18:36:45Z</time>
      </trkpt>
      <trkpt lat="50.44746" lon="1.6506">
        <ele>7.1</ele>
        <time>2020-06-18T18:36:46Z</time>
      </trkpt>
      <trkpt lat="50.44753" lon="1.6506">
        <ele>7.1</ele>
        <time>2020-06-18T18:36:47Z</time>
      </trkpt>
      <trkpt lat="50.44761" lon="1.65059">
        <ele>7.2</ele>
        <time>2020-06-18T18:36:48Z</time>
      </trkpt>
      <trkpt lat="50.44768" lon="1.65059">
        <ele>7.2</ele>
        <time>2020-06-18T18:36:49Z</time>
      </trkpt>
      <trkpt lat="50.44776" lon="1.65059">
        <ele>7.3</ele>
        <time>2020-06-18T18:36:50Z</time>
      </trkpt>
      <trkpt lat="50.44783" lon="1.6506">
        <ele>7.3</ele>
        <time>2020-06-18T18:36:51Z</time>
      </trkpt>
      <trkpt lat="50.44791" lon="1.6506">
        <ele>7.3</ele>
        <time>2020-06-18T18:36:52Z</time>
      </trkpt>
      <trkpt lat="50.44799" lon="1.6506">
        <ele>7.3</ele>
        <time>2020-06-18T18:36:53Z</time>
      </trkpt>
      <trkpt lat="50.44806" lon="1.65059">
        <ele>7.3</ele>
        <time>2020-06-18T18:36:54Z</time>
      </trkpt>
      <trkpt lat="50.44814" lon="1.65059">
        <ele>7.2</ele>
        <time>2020-06-18T18:36:55Z</time>
      </trkpt>
      <trkpt lat="50.44822" lon="1.6506">
        <ele>7.2</ele>
        <time>2020-06-18T18:36:56Z</time>
      </trkpt>
      <trkpt lat="50.4483" lon="1.65061">
        <ele>7.2</ele>
        <time>2020-06-18T18:36:57Z</time>
      </trkpt>
      <trkpt lat="50.44838" lon="1.65062">
        <ele>7.2</ele>
        <time>2020-06-18T18:36:58Z</time>
      </trkpt>
      <trkpt lat="50.44845" lon="1.65062">
        <ele>7.2</ele>
        <time>2020-06-18T18:36:59Z</time>
      </trkpt>
      <trkpt lat="50.44853" lon="1.65062">
        <ele>7.2</ele>
        <time>2020-06-18T18:37:00Z</time>
      </trkpt>
      <trkpt lat="50.44861" lon="1.65064">
        <ele>7.2</ele>
        <time>2020-06-18T18:37:01Z</time>
      </trkpt>
      <trkpt lat="50.44869" lon="1.65064">
        <ele>7.3</ele>
        <time>2020-06-18T18:37:02Z</time>
      </trkpt>
      <trkpt lat="50.44876" lon="1.65064">
        <ele>7.3</ele>
        <time>2020-06-18T18:37:03Z</time>
      </trkpt>
      <trkpt lat="50.44884" lon="1.65065">
        <ele>7.3</ele>
        <time>2020-06-18T18:37:04Z</time>
      </trkpt>
      <trkpt lat="50.44891" lon="1.65064">
        <ele>7.2</ele>
        <time>2020-06-18T18:37:05Z</time>
      </trkpt>
      <trkpt lat="50.44899" lon="1.65064">
        <ele>7.2</ele>
        <time>2020-06-18T18:37:06Z</time>
      </trkpt>
      <trkpt lat="50.44907" lon="1.65064">
        <ele>7.2</ele>
        <time>2020-06-18T18:37:07Z</time>
      </trkpt>
      <trkpt lat="50.44915" lon="1.65064">
        <ele>7.1</ele>
        <time>2020-06-18T18:37:08Z</time>
      </trkpt>
      <trkpt lat="50.44922" lon="1.65065">
        <ele>7.1</ele>
        <time>2020-06-18T18:37:09Z</time>
      </trkpt>
      <trkpt lat="50.4493" lon="1.65065">
        <ele>7.1</ele>
        <time>2020-06-18T18:37:10Z</time>
      </trkpt>
      <trkpt lat="50.44938" lon="1.65066">
        <ele>7.1</ele>
        <time>2020-06-18T18:37:11Z</time>
      </trkpt>
      <trkpt lat="50.44946" lon="1.65065">
        <ele>7.1</ele>
        <time>2020-06-18T18:37:12Z</time>
      </trkpt>
      <trkpt lat="50.44954" lon="1.65066">
        <ele>7.3</ele>
        <time>2020-06-18T18:37:13Z</time>
      </trkpt>
      <trkpt lat="50.44962" lon="1.65067">
        <ele>7</ele>
        <time>2020-06-18T18:37:14Z</time>
      </trkpt>
      <trkpt lat="50.4497" lon="1.65066">
        <ele>6.8</ele>
        <time>2020-06-18T18:37:15Z</time>
      </trkpt>
      <trkpt lat="50.44978" lon="1.65067">
        <ele>6.7</ele>
        <time>2020-06-18T18:37:16Z</time>
      </trkpt>
      <trkpt lat="50.44986" lon="1.65068">
        <ele>6.6</ele>
        <time>2020-06-18T18:37:17Z</time>
      </trkpt>
      <trkpt lat="50.44994" lon="1.65067">
        <ele>6.6</ele>
        <time>2020-06-18T18:37:18Z</time>
      </trkpt>
      <trkpt lat="50.45002" lon="1.65067">
        <ele>6.5</ele>
        <time>2020-06-18T18:37:19Z</time>
      </trkpt>
      <trkpt lat="50.45011" lon="1.65067">
        <ele>6.5</ele>
        <time>2020-06-18T18:37:20Z</time>
      </trkpt>
      <trkpt lat="50.45019" lon="1.65066">
        <ele>6.5</ele>
        <time>2020-06-18T18:37:21Z</time>
      </trkpt>
      <trkpt lat="50.45027" lon="1.65066">
        <ele>6.5</ele>
        <time>2020-06-18T18:37:22Z</time>
      </trkpt>
      <trkpt lat="50.45036" lon="1.65066">
        <ele>6.5</ele>
        <time>2020-06-18T18:37:23Z</time>
      </trkpt>
      <trkpt lat="50.45044" lon="1.65066">
        <ele>6.5</ele>
        <time>2020-06-18T18:37:24Z</time>
      </trkpt>
      <trkpt lat="50.45052" lon="1.65068">
        <ele>6.5</ele>
        <time>2020-06-18T18:37:25Z</time>
      </trkpt>
      <trkpt lat="50.4506" lon="1.65067">
        <ele>6.5</ele>
        <time>2020-06-18T18:37:26Z</time>
      </trkpt>
      <trkpt lat="50.45068" lon="1.65066">
        <ele>6.5</ele>
        <time>2020-06-18T18:37:27Z</time>
      </trkpt>
      <trkpt lat="50.45076" lon="1.65067">
        <ele>6.5</ele>
        <time>2020-06-18T18:37:28Z</time>
      </trkpt>
      <trkpt lat="50.45085" lon="1.65066">
        <ele>6.5</ele>
        <time>2020-06-18T18:37:29Z</time>
      </trkpt>
      <trkpt lat="50.45093" lon="1.65065">
        <ele>6.6</ele>
        <time>2020-06-18T18:37:30Z</time>
      </trkpt>
      <trkpt lat="50.45101" lon="1.65064">
        <ele>6.5</ele>
        <time>2020-06-18T18:37:31Z</time>
      </trkpt>
      <trkpt lat="50.45109" lon="1.65064">
        <ele>6.5</ele>
        <time>2020-06-18T18:37:32Z</time>
      </trkpt>
      <trkpt lat="50.45116" lon="1.65064">
        <ele>6.5</ele>
        <time>2020-06-18T18:37:33Z</time>
      </trkpt>
      <trkpt lat="50.45124" lon="1.65063">
        <ele>6.5</ele>
        <time>2020-06-18T18:37:34Z</time>
      </trkpt>
      <trkpt lat="50.45131" lon="1.65061">
        <ele>6.5</ele>
        <time>2020-06-18T18:37:35Z</time>
      </trkpt>
      <trkpt lat="50.45139" lon="1.6506">
        <ele>6.5</ele>
        <time>2020-06-18T18:37:36Z</time>
      </trkpt>
      <trkpt lat="50.45147" lon="1.65059">
        <ele>6.5</ele>
        <time>2020-06-18T18:37:37Z</time>
      </trkpt>
      <trkpt lat="50.45155" lon="1.65057">
        <ele>6.5</ele>
        <time>2020-06-18T18:37:38Z</time>
      </trkpt>
      <trkpt lat="50.45163" lon="1.65056">
        <ele>6.5</ele>
        <time>2020-06-18T18:37:39Z</time>
      </trkpt>
      <trkpt lat="50.45171" lon="1.65054">
        <ele>6.5</ele>
        <time>2020-06-18T18:37:40Z</time>
      </trkpt>
      <trkpt lat="50.45178" lon="1.65052">
        <ele>6.5</ele>
        <time>2020-06-18T18:37:41Z</time>
      </trkpt>
      <trkpt lat="50.45186" lon="1.65052">
        <ele>6.6</ele>
        <time>2020-06-18T18:37:42Z</time>
      </trkpt>
      <trkpt lat="50.45194" lon="1.65051">
        <ele>6.6</ele>
        <time>2020-06-18T18:37:43Z</time>
      </trkpt>
      <trkpt lat="50.45202" lon="1.65049">
        <ele>6.6</ele>
        <time>2020-06-18T18:37:44Z</time>
      </trkpt>
      <trkpt lat="50.4521" lon="1.65047">
        <ele>6.6</ele>
        <time>2020-06-18T18:37:45Z</time>
      </trkpt>
      <trkpt lat="50.45217" lon="1.65045">
        <ele>6.6</ele>
        <time>2020-06-18T18:37:46Z</time>
      </trkpt>
      <trkpt lat="50.45225" lon="1.65043">
        <ele>6.6</ele>
        <time>2020-06-18T18:37:47Z</time>
      </trkpt>
      <trkpt lat="50.45233" lon="1.65042">
        <ele>6.6</ele>
        <time>2020-06-18T18:37:48Z</time>
      </trkpt>
      <trkpt lat="50.4524" lon="1.65041">
        <ele>6.5</ele>
        <time>2020-06-18T18:37:49Z</time>
      </trkpt>
      <trkpt lat="50.45248" lon="1.65039">
        <ele>6.5</ele>
        <time>2020-06-18T18:37:50Z</time>
      </trkpt>
      <trkpt lat="50.45256" lon="1.65037">
        <ele>6.5</ele>
        <time>2020-06-18T18:37:51Z</time>
      </trkpt>
      <trkpt lat="50.45264" lon="1.65036">
        <ele>6.5</ele>
        <time>2020-06-18T18:37:52Z</time>
      </trkpt>
      <trkpt lat="50.45272" lon="1.65036">
        <ele>6.5</ele>
        <time>2020-06-18T18:37:53Z</time>
      </trkpt>
      <trkpt lat="50.4528" lon="1.65036">
        <ele>6.6</ele>
        <time>2020-06-18T18:37:54Z</time>
      </trkpt>
      <trkpt lat="50.45287" lon="1.65034">
        <ele>6.6</ele>
        <time>2020-06-18T18:37:55Z</time>
      </trkpt>
      <trkpt lat="50.45295" lon="1.65031">
        <ele>6.6</ele>
        <time>2020-06-18T18:37:56Z</time>
      </trkpt>
      <trkpt lat="50.45303" lon="1.65029">
        <ele>6.7</ele>
        <time>2020-06-18T18:37:57Z</time>
      </trkpt>
      <trkpt lat="50.45311" lon="1.65027">
        <ele>6.7</ele>
        <time>2020-06-18T18:37:58Z</time>
      </trkpt>
      <trkpt lat="50.45318" lon="1.65025">
        <ele>6.7</ele>
        <time>2020-06-18T18:37:59Z</time>
      </trkpt>
      <trkpt lat="50.45326" lon="1.65023">
        <ele>6.7</ele>
        <time>2020-06-18T18:38:00Z</time>
      </trkpt>
      <trkpt lat="50.45334" lon="1.65021">
        <ele>6.8</ele>
        <time>2020-06-18T18:38:01Z</time>
      </trkpt>
      <trkpt lat="50.45341" lon="1.6502">
        <ele>6.8</ele>
        <time>2020-06-18T18:38:02Z</time>
      </trkpt>
      <trkpt lat="50.45349" lon="1.65019">
        <ele>6.8</ele>
        <time>2020-06-18T18:38:03Z</time>
      </trkpt>
      <trkpt lat="50.45357" lon="1.65018">
        <ele>6.8</ele>
        <time>2020-06-18T18:38:04Z</time>
      </trkpt>
      <trkpt lat="50.45365" lon="1.65018">
        <ele>6.8</ele>
        <time>2020-06-18T18:38:05Z</time>
      </trkpt>
      <trkpt lat="50.45372" lon="1.65017">
        <ele>6.9</ele>
        <time>2020-06-18T18:38:06Z</time>
      </trkpt>
      <trkpt lat="50.4538" lon="1.65015">
        <ele>6.9</ele>
        <time>2020-06-18T18:38:07Z</time>
      </trkpt>
      <trkpt lat="50.45388" lon="1.65014">
        <ele>6.9</ele>
        <time>2020-06-18T18:38:08Z</time>
      </trkpt>
      <trkpt lat="50.45395" lon="1.65014">
        <ele>7</ele>
        <time>2020-06-18T18:38:09Z</time>
      </trkpt>
      <trkpt lat="50.45403" lon="1.65013">
        <ele>7</ele>
        <time>2020-06-18T18:38:10Z</time>
      </trkpt>
      <trkpt lat="50.4541" lon="1.65012">
        <ele>7</ele>
        <time>2020-06-18T18:38:11Z</time>
      </trkpt>
      <trkpt lat="50.45418" lon="1.6501">
        <ele>7</ele>
        <time>2020-06-18T18:38:12Z</time>
      </trkpt>
      <trkpt lat="50.45426" lon="1.65009">
        <ele>7</ele>
        <time>2020-06-18T18:38:13Z</time>
      </trkpt>
      <trkpt lat="50.45433" lon="1.65009">
        <ele>7</ele>
        <time>2020-06-18T18:38:14Z</time>
      </trkpt>
      <trkpt lat="50.45441" lon="1.65009">
        <ele>7</ele>
        <time>2020-06-18T18:38:15Z</time>
      </trkpt>
      <trkpt lat="50.45449" lon="1.6501">
        <ele>7</ele>
        <time>2020-06-18T18:38:16Z</time>
      </trkpt>
      <trkpt lat="50.45457" lon="1.65011">
        <ele>7</ele>
        <time>2020-06-18T18:38:17Z</time>
      </trkpt>
      <trkpt lat="50.45465" lon="1.65012">
        <ele>7</ele>
        <time>2020-06-18T18:38:18Z</time>
      </trkpt>
      <trkpt lat="50.45473" lon="1.65013">
        <ele>7</ele>
        <time>2020-06-18T18:38:19Z</time>
      </trkpt>
      <trkpt lat="50.45481" lon="1.65013">
        <ele>7</ele>
        <time>2020-06-18T18:38:20Z</time>
      </trkpt>
      <trkpt lat="50.45489" lon="1.65013">
        <ele>6.9</ele>
        <time>2020-06-18T18:38:21Z</time>
      </trkpt>
      <trkpt lat="50.45497" lon="1.65014">
        <ele>6.9</ele>
        <time>2020-06-18T18:38:22Z</time>
      </trkpt>
      <trkpt lat="50.45506" lon="1.65016">
        <ele>6.9</ele>
        <time>2020-06-18T18:38:23Z</time>
      </trkpt>
      <trkpt lat="50.45514" lon="1.65017">
        <ele>6.9</ele>
        <time>2020-06-18T18:38:24Z</time>
      </trkpt>
      <trkpt lat="50.45522" lon="1.65019">
        <ele>6.9</ele>
        <time>2020-06-18T18:38:25Z</time>
      </trkpt>
      <trkpt lat="50.4553" lon="1.65021">
        <ele>6.9</ele>
        <time>2020-06-18T18:38:26Z</time>
      </trkpt>
      <trkpt lat="50.45537" lon="1.65023">
        <ele>6.9</ele>
        <time>2020-06-18T18:38:27Z</time>
      </trkpt>
      <trkpt lat="50.45545" lon="1.65026">
        <ele>7</ele>
        <time>2020-06-18T18:38:28Z</time>
      </trkpt>
      <trkpt lat="50.45552" lon="1.65029">
        <ele>7</ele>
        <time>2020-06-18T18:38:29Z</time>
      </trkpt>
      <trkpt lat="50.4556" lon="1.65031">
        <ele>7.1</ele>
        <time>2020-06-18T18:38:30Z</time>
      </trkpt>
      <trkpt lat="50.45568" lon="1.65032">
        <ele>7.2</ele>
        <time>2020-06-18T18:38:31Z</time>
      </trkpt>
      <trkpt lat="50.45575" lon="1.65034">
        <ele>7.2</ele>
        <time>2020-06-18T18:38:32Z</time>
      </trkpt>
      <trkpt lat="50.45582" lon="1.65035">
        <ele>7.3</ele>
        <time>2020-06-18T18:38:33Z</time>
      </trkpt>
      <trkpt lat="50.45589" lon="1.65037">
        <ele>7.3</ele>
        <time>2020-06-18T18:38:34Z</time>
      </trkpt>
      <trkpt lat="50.45597" lon="1.65039">
        <ele>7.4</ele>
        <time>2020-06-18T18:38:35Z</time>
      </trkpt>
      <trkpt lat="50.45604" lon="1.6504">
        <ele>7.4</ele>
        <time>2020-06-18T18:38:36Z</time>
      </trkpt>
      <trkpt lat="50.45611" lon="1.65043">
        <ele>7.4</ele>
        <time>2020-06-18T18:38:37Z</time>
      </trkpt>
      <trkpt lat="50.45619" lon="1.65045">
        <ele>7.5</ele>
        <time>2020-06-18T18:38:38Z</time>
      </trkpt>
      <trkpt lat="50.45626" lon="1.65047">
        <ele>7.5</ele>
        <time>2020-06-18T18:38:39Z</time>
      </trkpt>
      <trkpt lat="50.45633" lon="1.65049">
        <ele>7.5</ele>
        <time>2020-06-18T18:38:40Z</time>
      </trkpt>
      <trkpt lat="50.4564" lon="1.65051">
        <ele>7.6</ele>
        <time>2020-06-18T18:38:41Z</time>
      </trkpt>
      <trkpt lat="50.45648" lon="1.65053">
        <ele>7.6</ele>
        <time>2020-06-18T18:38:42Z</time>
      </trkpt>
      <trkpt lat="50.45655" lon="1.65054">
        <ele>7.6</ele>
        <time>2020-06-18T18:38:43Z</time>
      </trkpt>
      <trkpt lat="50.45662" lon="1.65056">
        <ele>7.7</ele>
        <time>2020-06-18T18:38:44Z</time>
      </trkpt>
      <trkpt lat="50.45669" lon="1.65058">
        <ele>7.7</ele>
        <time>2020-06-18T18:38:45Z</time>
      </trkpt>
      <trkpt lat="50.45676" lon="1.6506">
        <ele>7.8</ele>
        <time>2020-06-18T18:38:46Z</time>
      </trkpt>
      <trkpt lat="50.45683" lon="1.65061">
        <ele>7.8</ele>
        <time>2020-06-18T18:38:47Z</time>
      </trkpt>
      <trkpt lat="50.4569" lon="1.65062">
        <ele>7.8</ele>
        <time>2020-06-18T18:38:48Z</time>
      </trkpt>
      <trkpt lat="50.45697" lon="1.65064">
        <ele>7.8</ele>
        <time>2020-06-18T18:38:49Z</time>
      </trkpt>
      <trkpt lat="50.45704" lon="1.65066">
        <ele>7.8</ele>
        <time>2020-06-18T18:38:50Z</time>
      </trkpt>
      <trkpt lat="50.45712" lon="1.65068">
        <ele>7.8</ele>
        <time>2020-06-18T18:38:51Z</time>
      </trkpt>
      <trkpt lat="50.45719" lon="1.6507">
        <ele>7.8</ele>
        <time>2020-06-18T18:38:52Z</time>
      </trkpt>
      <trkpt lat="50.45726" lon="1.6507">
        <ele>7.9</ele>
        <time>2020-06-18T18:38:53Z</time>
      </trkpt>
      <trkpt lat="50.45734" lon="1.65071">
        <ele>7.9</ele>
        <time>2020-06-18T18:38:54Z</time>
      </trkpt>
      <trkpt lat="50.45741" lon="1.65072">
        <ele>8</ele>
        <time>2020-06-18T18:38:55Z</time>
      </trkpt>
      <trkpt lat="50.45748" lon="1.65075">
        <ele>8</ele>
        <time>2020-06-18T18:38:56Z</time>
      </trkpt>
      <trkpt lat="50.45755" lon="1.65076">
        <ele>8</ele>
        <time>2020-06-18T18:38:57Z</time>
      </trkpt>
      <trkpt lat="50.45763" lon="1.65076">
        <ele>8</ele>
        <time>2020-06-18T18:38:58Z</time>
      </trkpt>
      <trkpt lat="50.4577" lon="1.65078">
        <ele>8</ele>
        <time>2020-06-18T18:38:59Z</time>
      </trkpt>
      <trkpt lat="50.45777" lon="1.65079">
        <ele>8</ele>
        <time>2020-06-18T18:39:00Z</time>
      </trkpt>
      <trkpt lat="50.45785" lon="1.65081">
        <ele>8.1</ele>
        <time>2020-06-18T18:39:01Z</time>
      </trkpt>
      <trkpt lat="50.45792" lon="1.65083">
        <ele>8.1</ele>
        <time>2020-06-18T18:39:02Z</time>
      </trkpt>
      <trkpt lat="50.45799" lon="1.65084">
        <ele>8.3</ele>
        <time>2020-06-18T18:39:03Z</time>
      </trkpt>
      <trkpt lat="50.45807" lon="1.65084">
        <ele>8.4</ele>
        <time>2020-06-18T18:39:04Z</time>
      </trkpt>
      <trkpt lat="50.45815" lon="1.65084">
        <ele>8.4</ele>
        <time>2020-06-18T18:39:05Z</time>
      </trkpt>
      <trkpt lat="50.45821" lon="1.65082">
        <ele>8.4</ele>
        <time>2020-06-18T18:39:06Z</time>
      </trkpt>
      <trkpt lat="50.45829" lon="1.65081">
        <ele>8.3</ele>
        <time>2020-06-18T18:39:07Z</time>
      </trkpt>
      <trkpt lat="50.45836" lon="1.65079">
        <ele>8.3</ele>
        <time>2020-06-18T18:39:08Z</time>
      </trkpt>
      <trkpt lat="50.45844" lon="1.65078">
        <ele>8.2</ele>
        <time>2020-06-18T18:39:09Z</time>
      </trkpt>
      <trkpt lat="50.45851" lon="1.65076">
        <ele>8.2</ele>
        <time>2020-06-18T18:39:10Z</time>
      </trkpt>
      <trkpt lat="50.45859" lon="1.65073">
        <ele>8.1</ele>
        <time>2020-06-18T18:39:11Z</time>
      </trkpt>
      <trkpt lat="50.45865" lon="1.6507">
        <ele>8.1</ele>
        <time>2020-06-18T18:39:12Z</time>
      </trkpt>
      <trkpt lat="50.45873" lon="1.65067">
        <ele>8</ele>
        <time>2020-06-18T18:39:13Z</time>
      </trkpt>
      <trkpt lat="50.4588" lon="1.65064">
        <ele>8</ele>
        <time>2020-06-18T18:39:14Z</time>
      </trkpt>
      <trkpt lat="50.45887" lon="1.65061">
        <ele>8</ele>
        <time>2020-06-18T18:39:15Z</time>
      </trkpt>
      <trkpt lat="50.45894" lon="1.65057">
        <ele>8</ele>
        <time>2020-06-18T18:39:16Z</time>
      </trkpt>
      <trkpt lat="50.45902" lon="1.65054">
        <ele>8</ele>
        <time>2020-06-18T18:39:17Z</time>
      </trkpt>
      <trkpt lat="50.45909" lon="1.65051">
        <ele>8</ele>
        <time>2020-06-18T18:39:18Z</time>
      </trkpt>
      <trkpt lat="50.45917" lon="1.65048">
        <ele>8</ele>
        <time>2020-06-18T18:39:19Z</time>
      </trkpt>
      <trkpt lat="50.45924" lon="1.65044">
        <ele>8</ele>
        <time>2020-06-18T18:39:20Z</time>
      </trkpt>
      <trkpt lat="50.45932" lon="1.65043">
        <ele>7.9</ele>
        <time>2020-06-18T18:39:21Z</time>
      </trkpt>
      <trkpt lat="50.4594" lon="1.6504">
        <ele>7.9</ele>
        <time>2020-06-18T18:39:22Z</time>
      </trkpt>
      <trkpt lat="50.45947" lon="1.65038">
        <ele>7.9</ele>
        <time>2020-06-18T18:39:23Z</time>
      </trkpt>
      <trkpt lat="50.45955" lon="1.65036">
        <ele>7.8</ele>
        <time>2020-06-18T18:39:24Z</time>
      </trkpt>
      <trkpt lat="50.45963" lon="1.65035">
        <ele>7.8</ele>
        <time>2020-06-18T18:39:25Z</time>
      </trkpt>
      <trkpt lat="50.4597" lon="1.65034">
        <ele>7.7</ele>
        <time>2020-06-18T18:39:26Z</time>
      </trkpt>
      <trkpt lat="50.45978" lon="1.65033">
        <ele>7.7</ele>
        <time>2020-06-18T18:39:27Z</time>
      </trkpt>
      <trkpt lat="50.45986" lon="1.65032">
        <ele>7.6</ele>
        <time>2020-06-18T18:39:28Z</time>
      </trkpt>
      <trkpt lat="50.45994" lon="1.65032">
        <ele>7.6</ele>
        <time>2020-06-18T18:39:29Z</time>
      </trkpt>
      <trkpt lat="50.46001" lon="1.65031">
        <ele>7.5</ele>
        <time>2020-06-18T18:39:30Z</time>
      </trkpt>
      <trkpt lat="50.46009" lon="1.65029">
        <ele>7.5</ele>
        <time>2020-06-18T18:39:31Z</time>
      </trkpt>
      <trkpt lat="50.46016" lon="1.65027">
        <ele>7.4</ele>
        <time>2020-06-18T18:39:32Z</time>
      </trkpt>
      <trkpt lat="50.46024" lon="1.65026">
        <ele>7.3</ele>
        <time>2020-06-18T18:39:33Z</time>
      </trkpt>
      <trkpt lat="50.46032" lon="1.65025">
        <ele>7.3</ele>
        <time>2020-06-18T18:39:34Z</time>
      </trkpt>
      <trkpt lat="50.4604" lon="1.65024">
        <ele>7.3</ele>
        <time>2020-06-18T18:39:35Z</time>
      </trkpt>
      <trkpt lat="50.46047" lon="1.65023">
        <ele>7.3</ele>
        <time>2020-06-18T18:39:36Z</time>
      </trkpt>
      <trkpt lat="50.46055" lon="1.65022">
        <ele>7.2</ele>
        <time>2020-06-18T18:39:37Z</time>
      </trkpt>
      <trkpt lat="50.46062" lon="1.65021">
        <ele>7.2</ele>
        <time>2020-06-18T18:39:38Z</time>
      </trkpt>
      <trkpt lat="50.4607" lon="1.6502">
        <ele>7.2</ele>
        <time>2020-06-18T18:39:39Z</time>
      </trkpt>
      <trkpt lat="50.46077" lon="1.65018">
        <ele>7.2</ele>
        <time>2020-06-18T18:39:40Z</time>
      </trkpt>
      <trkpt lat="50.46084" lon="1.65017">
        <ele>7.2</ele>
        <time>2020-06-18T18:39:41Z</time>
      </trkpt>
      <trkpt lat="50.46091" lon="1.65016">
        <ele>7.2</ele>
        <time>2020-06-18T18:39:42Z</time>
      </trkpt>
      <trkpt lat="50.46098" lon="1.65013">
        <ele>7.1</ele>
        <time>2020-06-18T18:39:43Z</time>
      </trkpt>
      <trkpt lat="50.46105" lon="1.65011">
        <ele>7.2</ele>
        <time>2020-06-18T18:39:44Z</time>
      </trkpt>
      <trkpt lat="50.46111" lon="1.65009">
        <ele>7.2</ele>
        <time>2020-06-18T18:39:45Z</time>
      </trkpt>
      <trkpt lat="50.46118" lon="1.65006">
        <ele>7.3</ele>
        <time>2020-06-18T18:39:46Z</time>
      </trkpt>
      <trkpt lat="50.46124" lon="1.65002">
        <ele>7.3</ele>
        <time>2020-06-18T18:39:47Z</time>
      </trkpt>
      <trkpt lat="50.4613" lon="1.64998">
        <ele>7.4</ele>
        <time>2020-06-18T18:39:48Z</time>
      </trkpt>
      <trkpt lat="50.46135" lon="1.64995">
        <ele>7.4</ele>
        <time>2020-06-18T18:39:49Z</time>
      </trkpt>
      <trkpt lat="50.46141" lon="1.64992">
        <ele>7.4</ele>
        <time>2020-06-18T18:39:50Z</time>
      </trkpt>
      <trkpt lat="50.46146" lon="1.64989">
        <ele>7.5</ele>
        <time>2020-06-18T18:39:51Z</time>
      </trkpt>
      <trkpt lat="50.46152" lon="1.64986">
        <ele>7.5</ele>
        <time>2020-06-18T18:39:52Z</time>
      </trkpt>
      <trkpt lat="50.46157" lon="1.64983">
        <ele>7.5</ele>
        <time>2020-06-18T18:39:53Z</time>
      </trkpt>
      <trkpt lat="50.46162" lon="1.64979">
        <ele>7.5</ele>
        <time>2020-06-18T18:39:54Z</time>
      </trkpt>
      <trkpt lat="50.46168" lon="1.64977">
        <ele>7.6</ele>
        <time>2020-06-18T18:39:55Z</time>
      </trkpt>
      <trkpt lat="50.46172" lon="1.64974">
        <ele>7.6</ele>
        <time>2020-06-18T18:39:56Z</time>
      </trkpt>
      <trkpt lat="50.46177" lon="1.64972">
        <ele>7.6</ele>
        <time>2020-06-18T18:39:57Z</time>
      </trkpt>
      <trkpt lat="50.46181" lon="1.64971">
        <ele>7.6</ele>
        <time>2020-06-18T18:39:58Z</time>
      </trkpt>
      <trkpt lat="50.46185" lon="1.6497">
        <ele>7.6</ele>
        <time>2020-06-18T18:39:59Z</time>
      </trkpt>
      <trkpt lat="50.46186" lon="1.64968">
        <ele>7.6</ele>
        <time>2020-06-18T18:40:00Z</time>
      </trkpt>
      <trkpt lat="50.46188" lon="1.64967">
        <ele>7.6</ele>
        <time>2020-06-18T18:40:01Z</time>
      </trkpt>
      <trkpt lat="50.46188" lon="1.64968">
        <ele>7.6</ele>
        <time>2020-06-18T18:40:02Z</time>
      </trkpt>
      <trkpt lat="50.46188" lon="1.64968">
        <ele>7.6</ele>
        <time>2020-06-18T18:40:03Z</time>
      </trkpt>
      <trkpt lat="50.46187" lon="1.64968">
        <ele>7.6</ele>
        <time>2020-06-18T18:40:04Z</time>
      </trkpt>
      <trkpt lat="50.46188" lon="1.64968">
        <ele>7.6</ele>
        <time>2020-06-18T18:40:05Z</time>
      </trkpt>
      <trkpt lat="50.46188" lon="1.64968">
        <ele>7.6</ele>
        <time>2020-06-18T18:40:06Z</time>
      </trkpt>
      <trkpt lat="50.46188" lon="1.64969">
        <ele>7.6</ele>
        <time>2020-06-18T18:40:07Z</time>
      </trkpt>
      <trkpt lat="50.46188" lon="1.64968">
        <ele>7.6</ele>
        <time>2020-06-18T18:40:08Z</time>
      </trkpt>
      <trkpt lat="50.46188" lon="1.64968">
        <ele>7.6</ele>
        <time>2020-06-18T18:40:09Z</time>
      </trkpt>
      <trkpt lat="50.46188" lon="1.64967">
        <ele>7.6</ele>
        <time>2020-06-18T18:40:10Z</time>
      </trkpt>
      <trkpt lat="50.46188" lon="1.64967">
        <ele>7.6</ele>
        <time>2020-06-18T18:40:11Z</time>
      </trkpt>
      <trkpt lat="50.46188" lon="1.64969">
        <ele>7.6</ele>
        <time>2020-06-18T18:40:12Z</time>
      </trkpt>
      <trkpt lat="50.4619" lon="1.6496">
        <ele>7.7</ele>
        <time>2020-06-18T18:43:38Z</time>
      </trkpt>
      <trkpt lat="50.46191" lon="1.64958">
        <ele>7.7</ele>
        <time>2020-06-18T18:43:39Z</time>
      </trkpt>
      <trkpt lat="50.46194" lon="1.64956">
        <ele>7.7</ele>
        <time>2020-06-18T18:43:40Z</time>
      </trkpt>
      <trkpt lat="50.46196" lon="1.64956">
        <ele>7.7</ele>
        <time>2020-06-18T18:43:41Z</time>
      </trkpt>
      <trkpt lat="50.46199" lon="1.64955">
        <ele>7.7</ele>
        <time>2020-06-18T18:43:42Z</time>
      </trkpt>
      <trkpt lat="50.46202" lon="1.64954">
        <ele>7.7</ele>
        <time>2020-06-18T18:43:43Z</time>
      </trkpt>
      <trkpt lat="50.46206" lon="1.64953">
        <ele>7.7</ele>
        <time>2020-06-18T18:43:44Z</time>
      </trkpt>
      <trkpt lat="50.4621" lon="1.6495">
        <ele>7.8</ele>
        <time>2020-06-18T18:43:45Z</time>
      </trkpt>
      <trkpt lat="50.46214" lon="1.64946">
        <ele>7.8</ele>
        <time>2020-06-18T18:43:46Z</time>
      </trkpt>
      <trkpt lat="50.46218" lon="1.64943">
        <ele>7.8</ele>
        <time>2020-06-18T18:43:47Z</time>
      </trkpt>
      <trkpt lat="50.46223" lon="1.6494">
        <ele>7.9</ele>
        <time>2020-06-18T18:43:48Z</time>
      </trkpt>
      <trkpt lat="50.46228" lon="1.64938">
        <ele>7.9</ele>
        <time>2020-06-18T18:43:49Z</time>
      </trkpt>
      <trkpt lat="50.46233" lon="1.64935">
        <ele>8</ele>
        <time>2020-06-18T18:43:50Z</time>
      </trkpt>
      <trkpt lat="50.46239" lon="1.64932">
        <ele>8.1</ele>
        <time>2020-06-18T18:43:51Z</time>
      </trkpt>
      <trkpt lat="50.46244" lon="1.64929">
        <ele>8.1</ele>
        <time>2020-06-18T18:43:52Z</time>
      </trkpt>
      <trkpt lat="50.4625" lon="1.64925">
        <ele>8.2</ele>
        <time>2020-06-18T18:43:53Z</time>
      </trkpt>
      <trkpt lat="50.46256" lon="1.6492">
        <ele>8.2</ele>
        <time>2020-06-18T18:43:54Z</time>
      </trkpt>
      <trkpt lat="50.46263" lon="1.64916">
        <ele>8.2</ele>
        <time>2020-06-18T18:43:55Z</time>
      </trkpt>
      <trkpt lat="50.46269" lon="1.64913">
        <ele>8.2</ele>
        <time>2020-06-18T18:43:56Z</time>
      </trkpt>
      <trkpt lat="50.46275" lon="1.64912">
        <ele>8.2</ele>
        <time>2020-06-18T18:43:57Z</time>
      </trkpt>
      <trkpt lat="50.46282" lon="1.6491">
        <ele>8.2</ele>
        <time>2020-06-18T18:43:58Z</time>
      </trkpt>
      <trkpt lat="50.46288" lon="1.64908">
        <ele>8.2</ele>
        <time>2020-06-18T18:43:59Z</time>
      </trkpt>
      <trkpt lat="50.46294" lon="1.64905">
        <ele>8.3</ele>
        <time>2020-06-18T18:44:00Z</time>
      </trkpt>
      <trkpt lat="50.46301" lon="1.64904">
        <ele>8.3</ele>
        <time>2020-06-18T18:44:01Z</time>
      </trkpt>
      <trkpt lat="50.46307" lon="1.64903">
        <ele>8.4</ele>
        <time>2020-06-18T18:44:02Z</time>
      </trkpt>
      <trkpt lat="50.46313" lon="1.64905">
        <ele>8.4</ele>
        <time>2020-06-18T18:44:03Z</time>
      </trkpt>
      <trkpt lat="50.4632" lon="1.64909">
        <ele>8.4</ele>
        <time>2020-06-18T18:44:04Z</time>
      </trkpt>
      <trkpt lat="50.46326" lon="1.64912">
        <ele>8.7</ele>
        <time>2020-06-18T18:44:05Z</time>
      </trkpt>
      <trkpt lat="50.46332" lon="1.64915">
        <ele>8.8</ele>
        <time>2020-06-18T18:44:06Z</time>
      </trkpt>
      <trkpt lat="50.46337" lon="1.64918">
        <ele>8.9</ele>
        <time>2020-06-18T18:44:07Z</time>
      </trkpt>
      <trkpt lat="50.46343" lon="1.64918">
        <ele>9</ele>
        <time>2020-06-18T18:44:08Z</time>
      </trkpt>
      <trkpt lat="50.46348" lon="1.64914">
        <ele>9.3</ele>
        <time>2020-06-18T18:44:09Z</time>
      </trkpt>
      <trkpt lat="50.46354" lon="1.64909">
        <ele>9.5</ele>
        <time>2020-06-18T18:44:10Z</time>
      </trkpt>
      <trkpt lat="50.46359" lon="1.64902">
        <ele>9.6</ele>
        <time>2020-06-18T18:44:11Z</time>
      </trkpt>
      <trkpt lat="50.46363" lon="1.64893">
        <ele>9.7</ele>
        <time>2020-06-18T18:44:12Z</time>
      </trkpt>
      <trkpt lat="50.46367" lon="1.64885">
        <ele>9.7</ele>
        <time>2020-06-18T18:44:13Z</time>
      </trkpt>
      <trkpt lat="50.46371" lon="1.64877">
        <ele>9.4</ele>
        <time>2020-06-18T18:44:14Z</time>
      </trkpt>
      <trkpt lat="50.46376" lon="1.64871">
        <ele>9.1</ele>
        <time>2020-06-18T18:44:15Z</time>
      </trkpt>
      <trkpt lat="50.46383" lon="1.64866">
        <ele>8.6</ele>
        <time>2020-06-18T18:44:16Z</time>
      </trkpt>
      <trkpt lat="50.46389" lon="1.64862">
        <ele>8.6</ele>
        <time>2020-06-18T18:44:17Z</time>
      </trkpt>
      <trkpt lat="50.46396" lon="1.64855">
        <ele>9.2</ele>
        <time>2020-06-18T18:44:18Z</time>
      </trkpt>
      <trkpt lat="50.46402" lon="1.6485">
        <ele>9.2</ele>
        <time>2020-06-18T18:44:19Z</time>
      </trkpt>
      <trkpt lat="50.46408" lon="1.64843">
        <ele>9.2</ele>
        <time>2020-06-18T18:44:20Z</time>
      </trkpt>
      <trkpt lat="50.46415" lon="1.64836">
        <ele>9.2</ele>
        <time>2020-06-18T18:44:21Z</time>
      </trkpt>
      <trkpt lat="50.46421" lon="1.6483">
        <ele>9.3</ele>
        <time>2020-06-18T18:44:22Z</time>
      </trkpt>
      <trkpt lat="50.46428" lon="1.64824">
        <ele>9.3</ele>
        <time>2020-06-18T18:44:23Z</time>
      </trkpt>
      <trkpt lat="50.46435" lon="1.64818">
        <ele>9.3</ele>
        <time>2020-06-18T18:44:24Z</time>
      </trkpt>
      <trkpt lat="50.46442" lon="1.64813">
        <ele>9.2</ele>
        <time>2020-06-18T18:44:25Z</time>
      </trkpt>
      <trkpt lat="50.46448" lon="1.6481">
        <ele>9.1</ele>
        <time>2020-06-18T18:44:26Z</time>
      </trkpt>
      <trkpt lat="50.46455" lon="1.64806">
        <ele>9.2</ele>
        <time>2020-06-18T18:44:27Z</time>
      </trkpt>
      <trkpt lat="50.46462" lon="1.64802">
        <ele>9.2</ele>
        <time>2020-06-18T18:44:28Z</time>
      </trkpt>
      <trkpt lat="50.46469" lon="1.64798">
        <ele>9.2</ele>
        <time>2020-06-18T18:44:29Z</time>
      </trkpt>
      <trkpt lat="50.46476" lon="1.64797">
        <ele>9.3</ele>
        <time>2020-06-18T18:44:30Z</time>
      </trkpt>
      <trkpt lat="50.46483" lon="1.64795">
        <ele>9.3</ele>
        <time>2020-06-18T18:44:31Z</time>
      </trkpt>
      <trkpt lat="50.46491" lon="1.64795">
        <ele>9.4</ele>
        <time>2020-06-18T18:44:32Z</time>
      </trkpt>
      <trkpt lat="50.46499" lon="1.64794">
        <ele>9.5</ele>
        <time>2020-06-18T18:44:33Z</time>
      </trkpt>
      <trkpt lat="50.46507" lon="1.64794">
        <ele>9.5</ele>
        <time>2020-06-18T18:44:34Z</time>
      </trkpt>
      <trkpt lat="50.46514" lon="1.64792">
        <ele>9.6</ele>
        <time>2020-06-18T18:44:35Z</time>
      </trkpt>
      <trkpt lat="50.46522" lon="1.64791">
        <ele>9.7</ele>
        <time>2020-06-18T18:44:36Z</time>
      </trkpt>
      <trkpt lat="50.46529" lon="1.64789">
        <ele>9.7</ele>
        <time>2020-06-18T18:44:37Z</time>
      </trkpt>
      <trkpt lat="50.46537" lon="1.64788">
        <ele>9.8</ele>
        <time>2020-06-18T18:44:38Z</time>
      </trkpt>
      <trkpt lat="50.46545" lon="1.64786">
        <ele>9.8</ele>
        <time>2020-06-18T18:44:39Z</time>
      </trkpt>
      <trkpt lat="50.46553" lon="1.64784">
        <ele>9.9</ele>
        <time>2020-06-18T18:44:40Z</time>
      </trkpt>
      <trkpt lat="50.4656" lon="1.64784">
        <ele>9.9</ele>
        <time>2020-06-18T18:44:41Z</time>
      </trkpt>
      <trkpt lat="50.46567" lon="1.64783">
        <ele>10</ele>
        <time>2020-06-18T18:44:42Z</time>
      </trkpt>
      <trkpt lat="50.46575" lon="1.64782">
        <ele>10</ele>
        <time>2020-06-18T18:44:43Z</time>
      </trkpt>
      <trkpt lat="50.46582" lon="1.64781">
        <ele>10.1</ele>
        <time>2020-06-18T18:44:44Z</time>
      </trkpt>
      <trkpt lat="50.4659" lon="1.6478">
        <ele>10.1</ele>
        <time>2020-06-18T18:44:45Z</time>
      </trkpt>
      <trkpt lat="50.46598" lon="1.6478">
        <ele>10.1</ele>
        <time>2020-06-18T18:44:46Z</time>
      </trkpt>
      <trkpt lat="50.46606" lon="1.64778">
        <ele>10.1</ele>
        <time>2020-06-18T18:44:47Z</time>
      </trkpt>
      <trkpt lat="50.46614" lon="1.64776">
        <ele>10.1</ele>
        <time>2020-06-18T18:44:48Z</time>
      </trkpt>
      <trkpt lat="50.46621" lon="1.64774">
        <ele>10.1</ele>
        <time>2020-06-18T18:44:49Z</time>
      </trkpt>
      <trkpt lat="50.46628" lon="1.64772">
        <ele>10.1</ele>
        <time>2020-06-18T18:44:50Z</time>
      </trkpt>
      <trkpt lat="50.46634" lon="1.64771">
        <ele>10.1</ele>
        <time>2020-06-18T18:44:51Z</time>
      </trkpt>
      <trkpt lat="50.46642" lon="1.64769">
        <ele>10</ele>
        <time>2020-06-18T18:44:52Z</time>
      </trkpt>
      <trkpt lat="50.4665" lon="1.64768">
        <ele>10</ele>
        <time>2020-06-18T18:44:53Z</time>
      </trkpt>
      <trkpt lat="50.46659" lon="1.64766">
        <ele>10</ele>
        <time>2020-06-18T18:44:54Z</time>
      </trkpt>
      <trkpt lat="50.46667" lon="1.64765">
        <ele>10</ele>
        <time>2020-06-18T18:44:55Z</time>
      </trkpt>
      <trkpt lat="50.46675" lon="1.64764">
        <ele>10</ele>
        <time>2020-06-18T18:44:56Z</time>
      </trkpt>
      <trkpt lat="50.46684" lon="1.64763">
        <ele>10</ele>
        <time>2020-06-18T18:44:57Z</time>
      </trkpt>
      <trkpt lat="50.46692" lon="1.64762">
        <ele>10</ele>
        <time>2020-06-18T18:44:58Z</time>
      </trkpt>
      <trkpt lat="50.46699" lon="1.64761">
        <ele>10</ele>
        <time>2020-06-18T18:44:59Z</time>
      </trkpt>
      <trkpt lat="50.46708" lon="1.64759">
        <ele>9.9</ele>
        <time>2020-06-18T18:45:00Z</time>
      </trkpt>
      <trkpt lat="50.46716" lon="1.64756">
        <ele>9.9</ele>
        <time>2020-06-18T18:45:01Z</time>
      </trkpt>
      <trkpt lat="50.46724" lon="1.64755">
        <ele>9.9</ele>
        <time>2020-06-18T18:45:02Z</time>
      </trkpt>
      <trkpt lat="50.46732" lon="1.64752">
        <ele>9.9</ele>
        <time>2020-06-18T18:45:03Z</time>
      </trkpt>
      <trkpt lat="50.46739" lon="1.6475">
        <ele>10</ele>
        <time>2020-06-18T18:45:04Z</time>
      </trkpt>
      <trkpt lat="50.46747" lon="1.64749">
        <ele>10.1</ele>
        <time>2020-06-18T18:45:05Z</time>
      </trkpt>
      <trkpt lat="50.46755" lon="1.64747">
        <ele>10</ele>
        <time>2020-06-18T18:45:06Z</time>
      </trkpt>
      <trkpt lat="50.46763" lon="1.64746">
        <ele>9.9</ele>
        <time>2020-06-18T18:45:07Z</time>
      </trkpt>
      <trkpt lat="50.46772" lon="1.64745">
        <ele>9.8</ele>
        <time>2020-06-18T18:45:08Z</time>
      </trkpt>
      <trkpt lat="50.46781" lon="1.64744">
        <ele>9.8</ele>
        <time>2020-06-18T18:45:09Z</time>
      </trkpt>
      <trkpt lat="50.46789" lon="1.64743">
        <ele>9.7</ele>
        <time>2020-06-18T18:45:10Z</time>
      </trkpt>
      <trkpt lat="50.46797" lon="1.64741">
        <ele>9.7</ele>
        <time>2020-06-18T18:45:11Z</time>
      </trkpt>
      <trkpt lat="50.46806" lon="1.6474">
        <ele>9.6</ele>
        <time>2020-06-18T18:45:12Z</time>
      </trkpt>
      <trkpt lat="50.46814" lon="1.64737">
        <ele>9.6</ele>
        <time>2020-06-18T18:45:13Z</time>
      </trkpt>
      <trkpt lat="50.46822" lon="1.64736">
        <ele>9.5</ele>
        <time>2020-06-18T18:45:14Z</time>
      </trkpt>
      <trkpt lat="50.46831" lon="1.64734">
        <ele>9.5</ele>
        <time>2020-06-18T18:45:15Z</time>
      </trkpt>
      <trkpt lat="50.4684" lon="1.64733">
        <ele>9.4</ele>
        <time>2020-06-18T18:45:16Z</time>
      </trkpt>
      <trkpt lat="50.46848" lon="1.64732">
        <ele>9.3</ele>
        <time>2020-06-18T18:45:17Z</time>
      </trkpt>
      <trkpt lat="50.46856" lon="1.6473">
        <ele>9.2</ele>
        <time>2020-06-18T18:45:18Z</time>
      </trkpt>
      <trkpt lat="50.46865" lon="1.64729">
        <ele>9.1</ele>
        <time>2020-06-18T18:45:19Z</time>
      </trkpt>
      <trkpt lat="50.46873" lon="1.64728">
        <ele>9</ele>
        <time>2020-06-18T18:45:20Z</time>
      </trkpt>
      <trkpt lat="50.46882" lon="1.64727">
        <ele>8.9</ele>
        <time>2020-06-18T18:45:21Z</time>
      </trkpt>
      <trkpt lat="50.4689" lon="1.64725">
        <ele>8.9</ele>
        <time>2020-06-18T18:45:22Z</time>
      </trkpt>
      <trkpt lat="50.46899" lon="1.64723">
        <ele>8.8</ele>
        <time>2020-06-18T18:45:23Z</time>
      </trkpt>
      <trkpt lat="50.46907" lon="1.64721">
        <ele>8.8</ele>
        <time>2020-06-18T18:45:24Z</time>
      </trkpt>
      <trkpt lat="50.46915" lon="1.64719">
        <ele>8.8</ele>
        <time>2020-06-18T18:45:25Z</time>
      </trkpt>
      <trkpt lat="50.46923" lon="1.64716">
        <ele>8.8</ele>
        <time>2020-06-18T18:45:26Z</time>
      </trkpt>
      <trkpt lat="50.46932" lon="1.64715">
        <ele>9</ele>
        <time>2020-06-18T18:45:27Z</time>
      </trkpt>
      <trkpt lat="50.4694" lon="1.64714">
        <ele>8.9</ele>
        <time>2020-06-18T18:45:28Z</time>
      </trkpt>
      <trkpt lat="50.46948" lon="1.64712">
        <ele>8.8</ele>
        <time>2020-06-18T18:45:29Z</time>
      </trkpt>
      <trkpt lat="50.46956" lon="1.6471">
        <ele>8.7</ele>
        <time>2020-06-18T18:45:30Z</time>
      </trkpt>
      <trkpt lat="50.46965" lon="1.6471">
        <ele>8.6</ele>
        <time>2020-06-18T18:45:31Z</time>
      </trkpt>
      <trkpt lat="50.46973" lon="1.64708">
        <ele>8.5</ele>
        <time>2020-06-18T18:45:32Z</time>
      </trkpt>
      <trkpt lat="50.46982" lon="1.64708">
        <ele>8.5</ele>
        <time>2020-06-18T18:45:33Z</time>
      </trkpt>
      <trkpt lat="50.4699" lon="1.64707">
        <ele>8.5</ele>
        <time>2020-06-18T18:45:34Z</time>
      </trkpt>
      <trkpt lat="50.46998" lon="1.64705">
        <ele>8.5</ele>
        <time>2020-06-18T18:45:35Z</time>
      </trkpt>
      <trkpt lat="50.47007" lon="1.64703">
        <ele>8.4</ele>
        <time>2020-06-18T18:45:36Z</time>
      </trkpt>
      <trkpt lat="50.47015" lon="1.64701">
        <ele>8.3</ele>
        <time>2020-06-18T18:45:37Z</time>
      </trkpt>
      <trkpt lat="50.47023" lon="1.647">
        <ele>8.3</ele>
        <time>2020-06-18T18:45:38Z</time>
      </trkpt>
      <trkpt lat="50.47031" lon="1.64699">
        <ele>8.2</ele>
        <time>2020-06-18T18:45:39Z</time>
      </trkpt>
      <trkpt lat="50.47039" lon="1.64697">
        <ele>8.2</ele>
        <time>2020-06-18T18:45:40Z</time>
      </trkpt>
      <trkpt lat="50.47048" lon="1.64697">
        <ele>8.1</ele>
        <time>2020-06-18T18:45:41Z</time>
      </trkpt>
      <trkpt lat="50.47056" lon="1.64695">
        <ele>8.1</ele>
        <time>2020-06-18T18:45:42Z</time>
      </trkpt>
      <trkpt lat="50.47064" lon="1.64694">
        <ele>8.1</ele>
        <time>2020-06-18T18:45:43Z</time>
      </trkpt>
      <trkpt lat="50.47073" lon="1.64693">
        <ele>8</ele>
        <time>2020-06-18T18:45:44Z</time>
      </trkpt>
      <trkpt lat="50.4708" lon="1.64691">
        <ele>7.9</ele>
        <time>2020-06-18T18:45:45Z</time>
      </trkpt>
      <trkpt lat="50.47089" lon="1.64689">
        <ele>7.8</ele>
        <time>2020-06-18T18:45:46Z</time>
      </trkpt>
      <trkpt lat="50.47098" lon="1.64687">
        <ele>7.8</ele>
        <time>2020-06-18T18:45:47Z</time>
      </trkpt>
      <trkpt lat="50.47107" lon="1.64685">
        <ele>7.8</ele>
        <time>2020-06-18T18:45:48Z</time>
      </trkpt>
      <trkpt lat="50.47115" lon="1.64684">
        <ele>7.7</ele>
        <time>2020-06-18T18:45:49Z</time>
      </trkpt>
      <trkpt lat="50.47123" lon="1.64682">
        <ele>7.7</ele>
        <time>2020-06-18T18:45:50Z</time>
      </trkpt>
      <trkpt lat="50.47131" lon="1.64681">
        <ele>7.7</ele>
        <time>2020-06-18T18:45:51Z</time>
      </trkpt>
      <trkpt lat="50.47138" lon="1.64679">
        <ele>7.6</ele>
        <time>2020-06-18T18:45:52Z</time>
      </trkpt>
      <trkpt lat="50.47146" lon="1.64679">
        <ele>7.6</ele>
        <time>2020-06-18T18:45:53Z</time>
      </trkpt>
      <trkpt lat="50.47152" lon="1.64676">
        <ele>7.6</ele>
        <time>2020-06-18T18:45:54Z</time>
      </trkpt>
      <trkpt lat="50.47159" lon="1.64675">
        <ele>7.5</ele>
        <time>2020-06-18T18:45:55Z</time>
      </trkpt>
      <trkpt lat="50.47166" lon="1.64674">
        <ele>7.5</ele>
        <time>2020-06-18T18:45:56Z</time>
      </trkpt>
      <trkpt lat="50.47173" lon="1.64673">
        <ele>7.5</ele>
        <time>2020-06-18T18:45:57Z</time>
      </trkpt>
      <trkpt lat="50.4718" lon="1.64672">
        <ele>7.5</ele>
        <time>2020-06-18T18:45:58Z</time>
      </trkpt>
      <trkpt lat="50.47187" lon="1.6467">
        <ele>7.5</ele>
        <time>2020-06-18T18:45:59Z</time>
      </trkpt>
      <trkpt lat="50.47194" lon="1.64668">
        <ele>7.5</ele>
        <time>2020-06-18T18:46:00Z</time>
      </trkpt>
      <trkpt lat="50.47201" lon="1.64668">
        <ele>7.4</ele>
        <time>2020-06-18T18:46:01Z</time>
      </trkpt>
      <trkpt lat="50.47208" lon="1.64667">
        <ele>7.4</ele>
        <time>2020-06-18T18:46:02Z</time>
      </trkpt>
      <trkpt lat="50.47215" lon="1.64665">
        <ele>7.4</ele>
        <time>2020-06-18T18:46:03Z</time>
      </trkpt>
      <trkpt lat="50.47222" lon="1.64664">
        <ele>7.3</ele>
        <time>2020-06-18T18:46:04Z</time>
      </trkpt>
      <trkpt lat="50.47229" lon="1.64662">
        <ele>7.3</ele>
        <time>2020-06-18T18:46:05Z</time>
      </trkpt>
      <trkpt lat="50.47236" lon="1.64661">
        <ele>7.3</ele>
        <time>2020-06-18T18:46:06Z</time>
      </trkpt>
      <trkpt lat="50.47243" lon="1.6466">
        <ele>7.3</ele>
        <time>2020-06-18T18:46:07Z</time>
      </trkpt>
      <trkpt lat="50.4725" lon="1.64659">
        <ele>7.3</ele>
        <time>2020-06-18T18:46:08Z</time>
      </trkpt>
      <trkpt lat="50.47257" lon="1.64658">
        <ele>7.3</ele>
        <time>2020-06-18T18:46:09Z</time>
      </trkpt>
      <trkpt lat="50.47264" lon="1.64657">
        <ele>7.3</ele>
        <time>2020-06-18T18:46:10Z</time>
      </trkpt>
      <trkpt lat="50.47271" lon="1.64655">
        <ele>7.4</ele>
        <time>2020-06-18T18:46:11Z</time>
      </trkpt>
      <trkpt lat="50.47278" lon="1.64653">
        <ele>7.4</ele>
        <time>2020-06-18T18:46:12Z</time>
      </trkpt>
      <trkpt lat="50.47285" lon="1.64651">
        <ele>7.4</ele>
        <time>2020-06-18T18:46:13Z</time>
      </trkpt>
      <trkpt lat="50.47292" lon="1.6465">
        <ele>7.5</ele>
        <time>2020-06-18T18:46:14Z</time>
      </trkpt>
      <trkpt lat="50.47299" lon="1.64649">
        <ele>7.5</ele>
        <time>2020-06-18T18:46:15Z</time>
      </trkpt>
      <trkpt lat="50.47306" lon="1.64648">
        <ele>7.5</ele>
        <time>2020-06-18T18:46:16Z</time>
      </trkpt>
      <trkpt lat="50.47313" lon="1.64647">
        <ele>7.6</ele>
        <time>2020-06-18T18:46:17Z</time>
      </trkpt>
      <trkpt lat="50.4732" lon="1.64645">
        <ele>7.6</ele>
        <time>2020-06-18T18:46:18Z</time>
      </trkpt>
      <trkpt lat="50.47328" lon="1.64644">
        <ele>7.6</ele>
        <time>2020-06-18T18:46:19Z</time>
      </trkpt>
      <trkpt lat="50.47335" lon="1.64644">
        <ele>7.7</ele>
        <time>2020-06-18T18:46:20Z</time>
      </trkpt>
      <trkpt lat="50.47342" lon="1.64644">
        <ele>7.7</ele>
        <time>2020-06-18T18:46:21Z</time>
      </trkpt>
      <trkpt lat="50.4735" lon="1.64644">
        <ele>7.8</ele>
        <time>2020-06-18T18:46:22Z</time>
      </trkpt>
      <trkpt lat="50.47357" lon="1.64644">
        <ele>7.8</ele>
        <time>2020-06-18T18:46:23Z</time>
      </trkpt>
      <trkpt lat="50.47365" lon="1.64645">
        <ele>7.9</ele>
        <time>2020-06-18T18:46:24Z</time>
      </trkpt>
      <trkpt lat="50.47372" lon="1.64647">
        <ele>7.9</ele>
        <time>2020-06-18T18:46:25Z</time>
      </trkpt>
      <trkpt lat="50.47379" lon="1.6465">
        <ele>7.9</ele>
        <time>2020-06-18T18:46:26Z</time>
      </trkpt>
      <trkpt lat="50.47386" lon="1.64654">
        <ele>7.9</ele>
        <time>2020-06-18T18:46:27Z</time>
      </trkpt>
      <trkpt lat="50.47393" lon="1.64657">
        <ele>7.9</ele>
        <time>2020-06-18T18:46:28Z</time>
      </trkpt>
      <trkpt lat="50.47401" lon="1.6466">
        <ele>8</ele>
        <time>2020-06-18T18:46:29Z</time>
      </trkpt>
      <trkpt lat="50.47408" lon="1.64664">
        <ele>7.9</ele>
        <time>2020-06-18T18:46:30Z</time>
      </trkpt>
      <trkpt lat="50.47415" lon="1.64668">
        <ele>7.9</ele>
        <time>2020-06-18T18:46:31Z</time>
      </trkpt>
      <trkpt lat="50.47423" lon="1.64672">
        <ele>7.8</ele>
        <time>2020-06-18T18:46:32Z</time>
      </trkpt>
      <trkpt lat="50.4743" lon="1.64676">
        <ele>7.8</ele>
        <time>2020-06-18T18:46:33Z</time>
      </trkpt>
      <trkpt lat="50.47438" lon="1.6468">
        <ele>7.9</ele>
        <time>2020-06-18T18:46:34Z</time>
      </trkpt>
      <trkpt lat="50.47445" lon="1.64684">
        <ele>7.9</ele>
        <time>2020-06-18T18:46:35Z</time>
      </trkpt>
      <trkpt lat="50.47452" lon="1.64688">
        <ele>7.9</ele>
        <time>2020-06-18T18:46:36Z</time>
      </trkpt>
      <trkpt lat="50.47459" lon="1.64693">
        <ele>7.8</ele>
        <time>2020-06-18T18:46:37Z</time>
      </trkpt>
      <trkpt lat="50.47467" lon="1.64697">
        <ele>7.8</ele>
        <time>2020-06-18T18:46:38Z</time>
      </trkpt>
      <trkpt lat="50.47474" lon="1.64701">
        <ele>7.8</ele>
        <time>2020-06-18T18:46:39Z</time>
      </trkpt>
      <trkpt lat="50.47481" lon="1.64704">
        <ele>7.8</ele>
        <time>2020-06-18T18:46:40Z</time>
      </trkpt>
      <trkpt lat="50.47489" lon="1.64707">
        <ele>7.8</ele>
        <time>2020-06-18T18:46:41Z</time>
      </trkpt>
      <trkpt lat="50.47497" lon="1.64709">
        <ele>7.8</ele>
        <time>2020-06-18T18:46:42Z</time>
      </trkpt>
      <trkpt lat="50.47504" lon="1.64711">
        <ele>7.8</ele>
        <time>2020-06-18T18:46:43Z</time>
      </trkpt>
      <trkpt lat="50.47512" lon="1.64714">
        <ele>7.7</ele>
        <time>2020-06-18T18:46:44Z</time>
      </trkpt>
      <trkpt lat="50.4752" lon="1.64716">
        <ele>7.7</ele>
        <time>2020-06-18T18:46:45Z</time>
      </trkpt>
      <trkpt lat="50.47527" lon="1.64718">
        <ele>7.7</ele>
        <time>2020-06-18T18:46:46Z</time>
      </trkpt>
      <trkpt lat="50.47535" lon="1.6472">
        <ele>7.7</ele>
        <time>2020-06-18T18:46:47Z</time>
      </trkpt>
      <trkpt lat="50.47543" lon="1.64723">
        <ele>7.7</ele>
        <time>2020-06-18T18:46:48Z</time>
      </trkpt>
      <trkpt lat="50.47551" lon="1.64724">
        <ele>7.7</ele>
        <time>2020-06-18T18:46:49Z</time>
      </trkpt>
      <trkpt lat="50.47559" lon="1.64726">
        <ele>7.8</ele>
        <time>2020-06-18T18:46:50Z</time>
      </trkpt>
      <trkpt lat="50.47567" lon="1.64728">
        <ele>7.8</ele>
        <time>2020-06-18T18:46:51Z</time>
      </trkpt>
      <trkpt lat="50.47575" lon="1.64728">
        <ele>7.8</ele>
        <time>2020-06-18T18:46:52Z</time>
      </trkpt>
      <trkpt lat="50.47582" lon="1.64731">
        <ele>7.9</ele>
        <time>2020-06-18T18:46:53Z</time>
      </trkpt>
      <trkpt lat="50.4759" lon="1.64734">
        <ele>7.9</ele>
        <time>2020-06-18T18:46:54Z</time>
      </trkpt>
      <trkpt lat="50.47598" lon="1.64738">
        <ele>7.9</ele>
        <time>2020-06-18T18:46:55Z</time>
      </trkpt>
      <trkpt lat="50.47605" lon="1.64742">
        <ele>7.9</ele>
        <time>2020-06-18T18:46:56Z</time>
      </trkpt>
      <trkpt lat="50.47612" lon="1.64746">
        <ele>7.9</ele>
        <time>2020-06-18T18:46:57Z</time>
      </trkpt>
      <trkpt lat="50.47619" lon="1.64751">
        <ele>7.9</ele>
        <time>2020-06-18T18:46:58Z</time>
      </trkpt>
      <trkpt lat="50.47625" lon="1.64756">
        <ele>7.9</ele>
        <time>2020-06-18T18:46:59Z</time>
      </trkpt>
      <trkpt lat="50.47632" lon="1.64762">
        <ele>8</ele>
        <time>2020-06-18T18:47:00Z</time>
      </trkpt>
      <trkpt lat="50.47638" lon="1.64767">
        <ele>8</ele>
        <time>2020-06-18T18:47:01Z</time>
      </trkpt>
      <trkpt lat="50.47645" lon="1.64772">
        <ele>8</ele>
        <time>2020-06-18T18:47:02Z</time>
      </trkpt>
      <trkpt lat="50.47652" lon="1.64778">
        <ele>8.1</ele>
        <time>2020-06-18T18:47:03Z</time>
      </trkpt>
      <trkpt lat="50.47658" lon="1.64783">
        <ele>8.1</ele>
        <time>2020-06-18T18:47:04Z</time>
      </trkpt>
      <trkpt lat="50.47664" lon="1.64789">
        <ele>8.1</ele>
        <time>2020-06-18T18:47:05Z</time>
      </trkpt>
      <trkpt lat="50.47671" lon="1.64795">
        <ele>8.2</ele>
        <time>2020-06-18T18:47:06Z</time>
      </trkpt>
      <trkpt lat="50.47677" lon="1.648">
        <ele>8.3</ele>
        <time>2020-06-18T18:47:07Z</time>
      </trkpt>
      <trkpt lat="50.47684" lon="1.64805">
        <ele>8.3</ele>
        <time>2020-06-18T18:47:08Z</time>
      </trkpt>
      <trkpt lat="50.47691" lon="1.64811">
        <ele>8.3</ele>
        <time>2020-06-18T18:47:09Z</time>
      </trkpt>
      <trkpt lat="50.47697" lon="1.64816">
        <ele>8.4</ele>
        <time>2020-06-18T18:47:10Z</time>
      </trkpt>
      <trkpt lat="50.47704" lon="1.64822">
        <ele>8.4</ele>
        <time>2020-06-18T18:47:11Z</time>
      </trkpt>
      <trkpt lat="50.4771" lon="1.64827">
        <ele>8.4</ele>
        <time>2020-06-18T18:47:12Z</time>
      </trkpt>
      <trkpt lat="50.47717" lon="1.64832">
        <ele>8.5</ele>
        <time>2020-06-18T18:47:13Z</time>
      </trkpt>
      <trkpt lat="50.47723" lon="1.64839">
        <ele>8.5</ele>
        <time>2020-06-18T18:47:14Z</time>
      </trkpt>
      <trkpt lat="50.47729" lon="1.64845">
        <ele>8.5</ele>
        <time>2020-06-18T18:47:15Z</time>
      </trkpt>
      <trkpt lat="50.47736" lon="1.6485">
        <ele>8.5</ele>
        <time>2020-06-18T18:47:16Z</time>
      </trkpt>
      <trkpt lat="50.47742" lon="1.64856">
        <ele>8.6</ele>
        <time>2020-06-18T18:47:17Z</time>
      </trkpt>
      <trkpt lat="50.47748" lon="1.6486">
        <ele>8.6</ele>
        <time>2020-06-18T18:47:18Z</time>
      </trkpt>
      <trkpt lat="50.47755" lon="1.64866">
        <ele>8.6</ele>
        <time>2020-06-18T18:47:19Z</time>
      </trkpt>
      <trkpt lat="50.47761" lon="1.64872">
        <ele>8.6</ele>
        <time>2020-06-18T18:47:20Z</time>
      </trkpt>
      <trkpt lat="50.47768" lon="1.64877">
        <ele>8.7</ele>
        <time>2020-06-18T18:47:21Z</time>
      </trkpt>
      <trkpt lat="50.47774" lon="1.64882">
        <ele>8.7</ele>
        <time>2020-06-18T18:47:22Z</time>
      </trkpt>
      <trkpt lat="50.47781" lon="1.64886">
        <ele>8.7</ele>
        <time>2020-06-18T18:47:23Z</time>
      </trkpt>
      <trkpt lat="50.47788" lon="1.64891">
        <ele>8.7</ele>
        <time>2020-06-18T18:47:24Z</time>
      </trkpt>
      <trkpt lat="50.47794" lon="1.64896">
        <ele>8.6</ele>
        <time>2020-06-18T18:47:25Z</time>
      </trkpt>
      <trkpt lat="50.47802" lon="1.649">
        <ele>8.5</ele>
        <time>2020-06-18T18:47:26Z</time>
      </trkpt>
      <trkpt lat="50.47809" lon="1.64905">
        <ele>8.5</ele>
        <time>2020-06-18T18:47:27Z</time>
      </trkpt>
      <trkpt lat="50.47816" lon="1.64909">
        <ele>8.4</ele>
        <time>2020-06-18T18:47:28Z</time>
      </trkpt>
      <trkpt lat="50.47823" lon="1.64913">
        <ele>8.3</ele>
        <time>2020-06-18T18:47:29Z</time>
      </trkpt>
      <trkpt lat="50.47831" lon="1.64916">
        <ele>8.2</ele>
        <time>2020-06-18T18:47:30Z</time>
      </trkpt>
      <trkpt lat="50.47838" lon="1.64919">
        <ele>8.1</ele>
        <time>2020-06-18T18:47:31Z</time>
      </trkpt>
      <trkpt lat="50.47846" lon="1.64921">
        <ele>8.1</ele>
        <time>2020-06-18T18:47:32Z</time>
      </trkpt>
      <trkpt lat="50.47854" lon="1.64923">
        <ele>8</ele>
        <time>2020-06-18T18:47:33Z</time>
      </trkpt>
      <trkpt lat="50.47862" lon="1.64925">
        <ele>7.9</ele>
        <time>2020-06-18T18:47:34Z</time>
      </trkpt>
      <trkpt lat="50.4787" lon="1.64928">
        <ele>7.8</ele>
        <time>2020-06-18T18:47:35Z</time>
      </trkpt>
      <trkpt lat="50.47879" lon="1.6493">
        <ele>7.7</ele>
        <time>2020-06-18T18:47:36Z</time>
      </trkpt>
      <trkpt lat="50.47887" lon="1.64931">
        <ele>7.6</ele>
        <time>2020-06-18T18:47:37Z</time>
      </trkpt>
      <trkpt lat="50.47895" lon="1.64933">
        <ele>7.6</ele>
        <time>2020-06-18T18:47:38Z</time>
      </trkpt>
      <trkpt lat="50.47903" lon="1.64936">
        <ele>7.5</ele>
        <time>2020-06-18T18:47:39Z</time>
      </trkpt>
      <trkpt lat="50.47912" lon="1.64936">
        <ele>7.5</ele>
        <time>2020-06-18T18:47:40Z</time>
      </trkpt>
      <trkpt lat="50.4792" lon="1.64937">
        <ele>7.5</ele>
        <time>2020-06-18T18:47:41Z</time>
      </trkpt>
      <trkpt lat="50.47929" lon="1.64938">
        <ele>7.5</ele>
        <time>2020-06-18T18:47:42Z</time>
      </trkpt>
      <trkpt lat="50.47937" lon="1.64938">
        <ele>7.5</ele>
        <time>2020-06-18T18:47:43Z</time>
      </trkpt>
      <trkpt lat="50.47945" lon="1.64937">
        <ele>7.5</ele>
        <time>2020-06-18T18:47:44Z</time>
      </trkpt>
      <trkpt lat="50.47953" lon="1.64938">
        <ele>7.5</ele>
        <time>2020-06-18T18:47:45Z</time>
      </trkpt>
      <trkpt lat="50.47962" lon="1.64937">
        <ele>7.5</ele>
        <time>2020-06-18T18:47:46Z</time>
      </trkpt>
      <trkpt lat="50.4797" lon="1.64936">
        <ele>7.5</ele>
        <time>2020-06-18T18:47:47Z</time>
      </trkpt>
      <trkpt lat="50.47978" lon="1.64935">
        <ele>7.6</ele>
        <time>2020-06-18T18:47:48Z</time>
      </trkpt>
      <trkpt lat="50.47986" lon="1.64935">
        <ele>7.8</ele>
        <time>2020-06-18T18:47:49Z</time>
      </trkpt>
      <trkpt lat="50.47995" lon="1.64934">
        <ele>8</ele>
        <time>2020-06-18T18:47:50Z</time>
      </trkpt>
      <trkpt lat="50.48003" lon="1.64934">
        <ele>7.8</ele>
        <time>2020-06-18T18:47:51Z</time>
      </trkpt>
      <trkpt lat="50.48011" lon="1.6493">
        <ele>7.7</ele>
        <time>2020-06-18T18:47:52Z</time>
      </trkpt>
      <trkpt lat="50.4802" lon="1.64928">
        <ele>7.7</ele>
        <time>2020-06-18T18:47:53Z</time>
      </trkpt>
      <trkpt lat="50.48028" lon="1.64925">
        <ele>7.6</ele>
        <time>2020-06-18T18:47:54Z</time>
      </trkpt>
      <trkpt lat="50.48036" lon="1.6492">
        <ele>7.5</ele>
        <time>2020-06-18T18:47:55Z</time>
      </trkpt>
      <trkpt lat="50.48045" lon="1.64915">
        <ele>7.5</ele>
        <time>2020-06-18T18:47:56Z</time>
      </trkpt>
      <trkpt lat="50.48053" lon="1.6491">
        <ele>7.4</ele>
        <time>2020-06-18T18:47:57Z</time>
      </trkpt>
      <trkpt lat="50.48062" lon="1.64906">
        <ele>7.3</ele>
        <time>2020-06-18T18:47:58Z</time>
      </trkpt>
      <trkpt lat="50.4807" lon="1.64901">
        <ele>7.3</ele>
        <time>2020-06-18T18:47:59Z</time>
      </trkpt>
      <trkpt lat="50.48079" lon="1.64898">
        <ele>7.2</ele>
        <time>2020-06-18T18:48:00Z</time>
      </trkpt>
      <trkpt lat="50.48087" lon="1.64895">
        <ele>7.2</ele>
        <time>2020-06-18T18:48:01Z</time>
      </trkpt>
      <trkpt lat="50.48096" lon="1.64893">
        <ele>7.2</ele>
        <time>2020-06-18T18:48:02Z</time>
      </trkpt>
      <trkpt lat="50.48105" lon="1.64891">
        <ele>7.2</ele>
        <time>2020-06-18T18:48:03Z</time>
      </trkpt>
      <trkpt lat="50.48114" lon="1.6489">
        <ele>7.2</ele>
        <time>2020-06-18T18:48:04Z</time>
      </trkpt>
      <trkpt lat="50.48123" lon="1.64889">
        <ele>7.1</ele>
        <time>2020-06-18T18:48:05Z</time>
      </trkpt>
      <trkpt lat="50.48132" lon="1.64889">
        <ele>7.1</ele>
        <time>2020-06-18T18:48:06Z</time>
      </trkpt>
      <trkpt lat="50.48141" lon="1.64888">
        <ele>7.1</ele>
        <time>2020-06-18T18:48:07Z</time>
      </trkpt>
      <trkpt lat="50.48151" lon="1.64888">
        <ele>7.1</ele>
        <time>2020-06-18T18:48:08Z</time>
      </trkpt>
      <trkpt lat="50.4816" lon="1.64887">
        <ele>7</ele>
        <time>2020-06-18T18:48:09Z</time>
      </trkpt>
      <trkpt lat="50.48169" lon="1.64888">
        <ele>7</ele>
        <time>2020-06-18T18:48:10Z</time>
      </trkpt>
      <trkpt lat="50.48179" lon="1.64888">
        <ele>6.9</ele>
        <time>2020-06-18T18:48:11Z</time>
      </trkpt>
      <trkpt lat="50.48188" lon="1.64887">
        <ele>6.9</ele>
        <time>2020-06-18T18:48:12Z</time>
      </trkpt>
      <trkpt lat="50.48197" lon="1.64887">
        <ele>6.9</ele>
        <time>2020-06-18T18:48:13Z</time>
      </trkpt>
      <trkpt lat="50.48207" lon="1.64886">
        <ele>6.9</ele>
        <time>2020-06-18T18:48:14Z</time>
      </trkpt>
      <trkpt lat="50.48216" lon="1.64885">
        <ele>6.9</ele>
        <time>2020-06-18T18:48:15Z</time>
      </trkpt>
      <trkpt lat="50.48225" lon="1.64883">
        <ele>7</ele>
        <time>2020-06-18T18:48:16Z</time>
      </trkpt>
      <trkpt lat="50.48235" lon="1.6488">
        <ele>7</ele>
        <time>2020-06-18T18:48:17Z</time>
      </trkpt>
      <trkpt lat="50.48244" lon="1.64875">
        <ele>7</ele>
        <time>2020-06-18T18:48:18Z</time>
      </trkpt>
      <trkpt lat="50.48253" lon="1.64871">
        <ele>7</ele>
        <time>2020-06-18T18:48:19Z</time>
      </trkpt>
      <trkpt lat="50.48263" lon="1.6487">
        <ele>7</ele>
        <time>2020-06-18T18:48:20Z</time>
      </trkpt>
      <trkpt lat="50.48272" lon="1.64866">
        <ele>7</ele>
        <time>2020-06-18T18:48:21Z</time>
      </trkpt>
      <trkpt lat="50.48282" lon="1.64862">
        <ele>6.9</ele>
        <time>2020-06-18T18:48:22Z</time>
      </trkpt>
      <trkpt lat="50.48291" lon="1.64857">
        <ele>6.9</ele>
        <time>2020-06-18T18:48:23Z</time>
      </trkpt>
      <trkpt lat="50.483" lon="1.64854">
        <ele>6.8</ele>
        <time>2020-06-18T18:48:24Z</time>
      </trkpt>
      <trkpt lat="50.4831" lon="1.64849">
        <ele>6.8</ele>
        <time>2020-06-18T18:48:25Z</time>
      </trkpt>
      <trkpt lat="50.48319" lon="1.64846">
        <ele>6.9</ele>
        <time>2020-06-18T18:48:26Z</time>
      </trkpt>
      <trkpt lat="50.48329" lon="1.64842">
        <ele>6.9</ele>
        <time>2020-06-18T18:48:27Z</time>
      </trkpt>
      <trkpt lat="50.48338" lon="1.64837">
        <ele>6.9</ele>
        <time>2020-06-18T18:48:28Z</time>
      </trkpt>
      <trkpt lat="50.48347" lon="1.64831">
        <ele>6.9</ele>
        <time>2020-06-18T18:48:29Z</time>
      </trkpt>
      <trkpt lat="50.48355" lon="1.64826">
        <ele>7</ele>
        <time>2020-06-18T18:48:30Z</time>
      </trkpt>
      <trkpt lat="50.48364" lon="1.64822">
        <ele>7.1</ele>
        <time>2020-06-18T18:48:31Z</time>
      </trkpt>
      <trkpt lat="50.48372" lon="1.64817">
        <ele>7.3</ele>
        <time>2020-06-18T18:48:32Z</time>
      </trkpt>
      <trkpt lat="50.4838" lon="1.64812">
        <ele>7.5</ele>
        <time>2020-06-18T18:48:33Z</time>
      </trkpt>
      <trkpt lat="50.48387" lon="1.64807">
        <ele>7.5</ele>
        <time>2020-06-18T18:48:34Z</time>
      </trkpt>
      <trkpt lat="50.48395" lon="1.64802">
        <ele>7.4</ele>
        <time>2020-06-18T18:48:35Z</time>
      </trkpt>
      <trkpt lat="50.48402" lon="1.64797">
        <ele>7.4</ele>
        <time>2020-06-18T18:48:36Z</time>
      </trkpt>
      <trkpt lat="50.48409" lon="1.64792">
        <ele>7.3</ele>
        <time>2020-06-18T18:48:37Z</time>
      </trkpt>
      <trkpt lat="50.48416" lon="1.64788">
        <ele>7.3</ele>
        <time>2020-06-18T18:48:38Z</time>
      </trkpt>
      <trkpt lat="50.48422" lon="1.64783">
        <ele>7.2</ele>
        <time>2020-06-18T18:48:39Z</time>
      </trkpt>
      <trkpt lat="50.48429" lon="1.64778">
        <ele>7.2</ele>
        <time>2020-06-18T18:48:40Z</time>
      </trkpt>
      <trkpt lat="50.48435" lon="1.64775">
        <ele>7.2</ele>
        <time>2020-06-18T18:48:41Z</time>
      </trkpt>
      <trkpt lat="50.48441" lon="1.6477">
        <ele>7.1</ele>
        <time>2020-06-18T18:48:42Z</time>
      </trkpt>
      <trkpt lat="50.48447" lon="1.64765">
        <ele>7.1</ele>
        <time>2020-06-18T18:48:43Z</time>
      </trkpt>
      <trkpt lat="50.48453" lon="1.64761">
        <ele>7.1</ele>
        <time>2020-06-18T18:48:44Z</time>
      </trkpt>
      <trkpt lat="50.48458" lon="1.64756">
        <ele>7.1</ele>
        <time>2020-06-18T18:48:45Z</time>
      </trkpt>
      <trkpt lat="50.48463" lon="1.64751">
        <ele>7.1</ele>
        <time>2020-06-18T18:48:46Z</time>
      </trkpt>
      <trkpt lat="50.48468" lon="1.64744">
        <ele>7.1</ele>
        <time>2020-06-18T18:48:47Z</time>
      </trkpt>
      <trkpt lat="50.48472" lon="1.64737">
        <ele>7</ele>
        <time>2020-06-18T18:48:48Z</time>
      </trkpt>
      <trkpt lat="50.48474" lon="1.64729">
        <ele>6.9</ele>
        <time>2020-06-18T18:48:49Z</time>
      </trkpt>
      <trkpt lat="50.48476" lon="1.64719">
        <ele>6.8</ele>
        <time>2020-06-18T18:48:50Z</time>
      </trkpt>
      <trkpt lat="50.48476" lon="1.6471">
        <ele>6.7</ele>
        <time>2020-06-18T18:48:51Z</time>
      </trkpt>
      <trkpt lat="50.48477" lon="1.64701">
        <ele>6.5</ele>
        <time>2020-06-18T18:48:52Z</time>
      </trkpt>
      <trkpt lat="50.48478" lon="1.64691">
        <ele>6.4</ele>
        <time>2020-06-18T18:48:53Z</time>
      </trkpt>
      <trkpt lat="50.4848" lon="1.64681">
        <ele>6.3</ele>
        <time>2020-06-18T18:48:54Z</time>
      </trkpt>
      <trkpt lat="50.48481" lon="1.64671">
        <ele>6.2</ele>
        <time>2020-06-18T18:48:55Z</time>
      </trkpt>
      <trkpt lat="50.48482" lon="1.64661">
        <ele>6.1</ele>
        <time>2020-06-18T18:48:56Z</time>
      </trkpt>
      <trkpt lat="50.48484" lon="1.6465">
        <ele>6</ele>
        <time>2020-06-18T18:48:57Z</time>
      </trkpt>
      <trkpt lat="50.48486" lon="1.6464">
        <ele>5.8</ele>
        <time>2020-06-18T18:48:58Z</time>
      </trkpt>
      <trkpt lat="50.48487" lon="1.6463">
        <ele>5.8</ele>
        <time>2020-06-18T18:48:59Z</time>
      </trkpt>
      <trkpt lat="50.48488" lon="1.6462">
        <ele>5.7</ele>
        <time>2020-06-18T18:49:00Z</time>
      </trkpt>
      <trkpt lat="50.48488" lon="1.64609">
        <ele>5.7</ele>
        <time>2020-06-18T18:49:01Z</time>
      </trkpt>
      <trkpt lat="50.48487" lon="1.64599">
        <ele>5.6</ele>
        <time>2020-06-18T18:49:02Z</time>
      </trkpt>
      <trkpt lat="50.48486" lon="1.64589">
        <ele>5.6</ele>
        <time>2020-06-18T18:49:03Z</time>
      </trkpt>
      <trkpt lat="50.48485" lon="1.64579">
        <ele>5.7</ele>
        <time>2020-06-18T18:49:04Z</time>
      </trkpt>
      <trkpt lat="50.48483" lon="1.64569">
        <ele>5.7</ele>
        <time>2020-06-18T18:49:05Z</time>
      </trkpt>
      <trkpt lat="50.4848" lon="1.6456">
        <ele>5.8</ele>
        <time>2020-06-18T18:49:06Z</time>
      </trkpt>
      <trkpt lat="50.48478" lon="1.6455">
        <ele>5.9</ele>
        <time>2020-06-18T18:49:07Z</time>
      </trkpt>
      <trkpt lat="50.48477" lon="1.6454">
        <ele>6</ele>
        <time>2020-06-18T18:49:08Z</time>
      </trkpt>
      <trkpt lat="50.48478" lon="1.64529">
        <ele>6.2</ele>
        <time>2020-06-18T18:49:09Z</time>
      </trkpt>
      <trkpt lat="50.4848" lon="1.64519">
        <ele>6.2</ele>
        <time>2020-06-18T18:49:10Z</time>
      </trkpt>
      <trkpt lat="50.48482" lon="1.64508">
        <ele>5.9</ele>
        <time>2020-06-18T18:49:11Z</time>
      </trkpt>
      <trkpt lat="50.48485" lon="1.64498">
        <ele>5.8</ele>
        <time>2020-06-18T18:49:12Z</time>
      </trkpt>
      <trkpt lat="50.48488" lon="1.64488">
        <ele>5.6</ele>
        <time>2020-06-18T18:49:13Z</time>
      </trkpt>
      <trkpt lat="50.48491" lon="1.64477">
        <ele>5.4</ele>
        <time>2020-06-18T18:49:14Z</time>
      </trkpt>
      <trkpt lat="50.48494" lon="1.64467">
        <ele>5.3</ele>
        <time>2020-06-18T18:49:15Z</time>
      </trkpt>
      <trkpt lat="50.48498" lon="1.64456">
        <ele>5.2</ele>
        <time>2020-06-18T18:49:16Z</time>
      </trkpt>
      <trkpt lat="50.485" lon="1.64445">
        <ele>5.1</ele>
        <time>2020-06-18T18:49:17Z</time>
      </trkpt>
      <trkpt lat="50.48503" lon="1.64434">
        <ele>5</ele>
        <time>2020-06-18T18:49:18Z</time>
      </trkpt>
      <trkpt lat="50.48505" lon="1.64423">
        <ele>4.8</ele>
        <time>2020-06-18T18:49:19Z</time>
      </trkpt>
      <trkpt lat="50.48508" lon="1.64411">
        <ele>4.7</ele>
        <time>2020-06-18T18:49:20Z</time>
      </trkpt>
      <trkpt lat="50.48511" lon="1.644">
        <ele>4.7</ele>
        <time>2020-06-18T18:49:21Z</time>
      </trkpt>
      <trkpt lat="50.48513" lon="1.64389">
        <ele>4.6</ele>
        <time>2020-06-18T18:49:22Z</time>
      </trkpt>
      <trkpt lat="50.48516" lon="1.64378">
        <ele>4.6</ele>
        <time>2020-06-18T18:49:23Z</time>
      </trkpt>
      <trkpt lat="50.48518" lon="1.64367">
        <ele>4.5</ele>
        <time>2020-06-18T18:49:24Z</time>
      </trkpt>
      <trkpt lat="50.48521" lon="1.64357">
        <ele>4.5</ele>
        <time>2020-06-18T18:49:25Z</time>
      </trkpt>
      <trkpt lat="50.48525" lon="1.64347">
        <ele>4.5</ele>
        <time>2020-06-18T18:49:26Z</time>
      </trkpt>
      <trkpt lat="50.48528" lon="1.64337">
        <ele>4.5</ele>
        <time>2020-06-18T18:49:27Z</time>
      </trkpt>
      <trkpt lat="50.48531" lon="1.64326">
        <ele>4.6</ele>
        <time>2020-06-18T18:49:28Z</time>
      </trkpt>
      <trkpt lat="50.48534" lon="1.64315">
        <ele>4.6</ele>
        <time>2020-06-18T18:49:29Z</time>
      </trkpt>
      <trkpt lat="50.48537" lon="1.64306">
        <ele>4.6</ele>
        <time>2020-06-18T18:49:30Z</time>
      </trkpt>
      <trkpt lat="50.48542" lon="1.64297">
        <ele>4.6</ele>
        <time>2020-06-18T18:49:31Z</time>
      </trkpt>
      <trkpt lat="50.48547" lon="1.64288">
        <ele>4.6</ele>
        <time>2020-06-18T18:49:32Z</time>
      </trkpt>
      <trkpt lat="50.48552" lon="1.6428">
        <ele>4.6</ele>
        <time>2020-06-18T18:49:33Z</time>
      </trkpt>
      <trkpt lat="50.48558" lon="1.64273">
        <ele>4.6</ele>
        <time>2020-06-18T18:49:34Z</time>
      </trkpt>
      <trkpt lat="50.48562" lon="1.64264">
        <ele>4.6</ele>
        <time>2020-06-18T18:49:35Z</time>
      </trkpt>
      <trkpt lat="50.48566" lon="1.64255">
        <ele>4.6</ele>
        <time>2020-06-18T18:49:36Z</time>
      </trkpt>
      <trkpt lat="50.4857" lon="1.64245">
        <ele>4.6</ele>
        <time>2020-06-18T18:49:37Z</time>
      </trkpt>
      <trkpt lat="50.48573" lon="1.64235">
        <ele>4.6</ele>
        <time>2020-06-18T18:49:38Z</time>
      </trkpt>
      <trkpt lat="50.48577" lon="1.64224">
        <ele>4.6</ele>
        <time>2020-06-18T18:49:39Z</time>
      </trkpt>
      <trkpt lat="50.4858" lon="1.64213">
        <ele>4.6</ele>
        <time>2020-06-18T18:49:40Z</time>
      </trkpt>
      <trkpt lat="50.48582" lon="1.64203">
        <ele>4.6</ele>
        <time>2020-06-18T18:49:41Z</time>
      </trkpt>
      <trkpt lat="50.48586" lon="1.64192">
        <ele>4.6</ele>
        <time>2020-06-18T18:49:42Z</time>
      </trkpt>
      <trkpt lat="50.48589" lon="1.64182">
        <ele>4.7</ele>
        <time>2020-06-18T18:49:43Z</time>
      </trkpt>
      <trkpt lat="50.48592" lon="1.64171">
        <ele>4.7</ele>
        <time>2020-06-18T18:49:44Z</time>
      </trkpt>
      <trkpt lat="50.48595" lon="1.6416">
        <ele>5</ele>
        <time>2020-06-18T18:49:45Z</time>
      </trkpt>
      <trkpt lat="50.48597" lon="1.64149">
        <ele>5.1</ele>
        <time>2020-06-18T18:49:46Z</time>
      </trkpt>
      <trkpt lat="50.48599" lon="1.64138">
        <ele>5.2</ele>
        <time>2020-06-18T18:49:47Z</time>
      </trkpt>
      <trkpt lat="50.48601" lon="1.64126">
        <ele>5.3</ele>
        <time>2020-06-18T18:49:48Z</time>
      </trkpt>
      <trkpt lat="50.48602" lon="1.64115">
        <ele>5.3</ele>
        <time>2020-06-18T18:49:49Z</time>
      </trkpt>
      <trkpt lat="50.48605" lon="1.64104">
        <ele>5.2</ele>
        <time>2020-06-18T18:49:50Z</time>
      </trkpt>
      <trkpt lat="50.48606" lon="1.64093">
        <ele>5.2</ele>
        <time>2020-06-18T18:49:51Z</time>
      </trkpt>
      <trkpt lat="50.48608" lon="1.64082">
        <ele>5.1</ele>
        <time>2020-06-18T18:49:52Z</time>
      </trkpt>
      <trkpt lat="50.4861" lon="1.64069">
        <ele>5.1</ele>
        <time>2020-06-18T18:49:53Z</time>
      </trkpt>
      <trkpt lat="50.48611" lon="1.64057">
        <ele>5</ele>
        <time>2020-06-18T18:49:54Z</time>
      </trkpt>
      <trkpt lat="50.48612" lon="1.64045">
        <ele>5</ele>
        <time>2020-06-18T18:49:55Z</time>
      </trkpt>
      <trkpt lat="50.48612" lon="1.64034">
        <ele>5</ele>
        <time>2020-06-18T18:49:56Z</time>
      </trkpt>
      <trkpt lat="50.48613" lon="1.64024">
        <ele>5</ele>
        <time>2020-06-18T18:49:57Z</time>
      </trkpt>
      <trkpt lat="50.48615" lon="1.64012">
        <ele>5</ele>
        <time>2020-06-18T18:49:58Z</time>
      </trkpt>
      <trkpt lat="50.48616" lon="1.64">
        <ele>5</ele>
        <time>2020-06-18T18:49:59Z</time>
      </trkpt>
      <trkpt lat="50.48618" lon="1.6399">
        <ele>5</ele>
        <time>2020-06-18T18:50:00Z</time>
      </trkpt>
      <trkpt lat="50.4862" lon="1.63977">
        <ele>5</ele>
        <time>2020-06-18T18:50:01Z</time>
      </trkpt>
      <trkpt lat="50.48621" lon="1.63965">
        <ele>5</ele>
        <time>2020-06-18T18:50:02Z</time>
      </trkpt>
      <trkpt lat="50.48622" lon="1.63953">
        <ele>5.1</ele>
        <time>2020-06-18T18:50:03Z</time>
      </trkpt>
      <trkpt lat="50.48623" lon="1.63942">
        <ele>5</ele>
        <time>2020-06-18T18:50:04Z</time>
      </trkpt>
      <trkpt lat="50.48624" lon="1.6393">
        <ele>5</ele>
        <time>2020-06-18T18:50:05Z</time>
      </trkpt>
      <trkpt lat="50.48626" lon="1.63919">
        <ele>4.9</ele>
        <time>2020-06-18T18:50:06Z</time>
      </trkpt>
      <trkpt lat="50.48628" lon="1.63909">
        <ele>4.8</ele>
        <time>2020-06-18T18:50:07Z</time>
      </trkpt>
      <trkpt lat="50.4863" lon="1.63898">
        <ele>4.8</ele>
        <time>2020-06-18T18:50:08Z</time>
      </trkpt>
      <trkpt lat="50.48632" lon="1.63886">
        <ele>4.8</ele>
        <time>2020-06-18T18:50:09Z</time>
      </trkpt>
      <trkpt lat="50.48635" lon="1.63876">
        <ele>4.8</ele>
        <time>2020-06-18T18:50:10Z</time>
      </trkpt>
      <trkpt lat="50.48637" lon="1.63864">
        <ele>4.8</ele>
        <time>2020-06-18T18:50:11Z</time>
      </trkpt>
      <trkpt lat="50.48638" lon="1.63853">
        <ele>4.8</ele>
        <time>2020-06-18T18:50:12Z</time>
      </trkpt>
      <trkpt lat="50.48639" lon="1.63841">
        <ele>4.8</ele>
        <time>2020-06-18T18:50:13Z</time>
      </trkpt>
      <trkpt lat="50.4864" lon="1.63829">
        <ele>4.9</ele>
        <time>2020-06-18T18:50:14Z</time>
      </trkpt>
      <trkpt lat="50.48642" lon="1.63817">
        <ele>4.9</ele>
        <time>2020-06-18T18:50:15Z</time>
      </trkpt>
      <trkpt lat="50.48643" lon="1.63806">
        <ele>4.9</ele>
        <time>2020-06-18T18:50:16Z</time>
      </trkpt>
      <trkpt lat="50.48644" lon="1.63795">
        <ele>4.9</ele>
        <time>2020-06-18T18:50:17Z</time>
      </trkpt>
      <trkpt lat="50.48644" lon="1.63784">
        <ele>4.9</ele>
        <time>2020-06-18T18:50:18Z</time>
      </trkpt>
      <trkpt lat="50.48645" lon="1.63773">
        <ele>4.9</ele>
        <time>2020-06-18T18:50:19Z</time>
      </trkpt>
      <trkpt lat="50.48644" lon="1.63764">
        <ele>4.9</ele>
        <time>2020-06-18T18:50:20Z</time>
      </trkpt>
      <trkpt lat="50.48643" lon="1.63753">
        <ele>4.8</ele>
        <time>2020-06-18T18:50:21Z</time>
      </trkpt>
      <trkpt lat="50.48642" lon="1.63742">
        <ele>4.8</ele>
        <time>2020-06-18T18:50:22Z</time>
      </trkpt>
      <trkpt lat="50.4864" lon="1.6373">
        <ele>4.8</ele>
        <time>2020-06-18T18:50:23Z</time>
      </trkpt>
      <trkpt lat="50.48638" lon="1.63719">
        <ele>4.8</ele>
        <time>2020-06-18T18:50:24Z</time>
      </trkpt>
      <trkpt lat="50.48636" lon="1.63708">
        <ele>4.8</ele>
        <time>2020-06-18T18:50:25Z</time>
      </trkpt>
      <trkpt lat="50.48633" lon="1.63696">
        <ele>4.8</ele>
        <time>2020-06-18T18:50:26Z</time>
      </trkpt>
      <trkpt lat="50.48632" lon="1.63684">
        <ele>4.8</ele>
        <time>2020-06-18T18:50:27Z</time>
      </trkpt>
      <trkpt lat="50.4863" lon="1.63672">
        <ele>4.9</ele>
        <time>2020-06-18T18:50:28Z</time>
      </trkpt>
      <trkpt lat="50.48628" lon="1.63662">
        <ele>4.9</ele>
        <time>2020-06-18T18:50:29Z</time>
      </trkpt>
      <trkpt lat="50.48626" lon="1.63651">
        <ele>4.9</ele>
        <time>2020-06-18T18:50:30Z</time>
      </trkpt>
      <trkpt lat="50.48625" lon="1.63641">
        <ele>5</ele>
        <time>2020-06-18T18:50:31Z</time>
      </trkpt>
      <trkpt lat="50.48622" lon="1.63629">
        <ele>5</ele>
        <time>2020-06-18T18:50:32Z</time>
      </trkpt>
      <trkpt lat="50.4862" lon="1.63618">
        <ele>5</ele>
        <time>2020-06-18T18:50:33Z</time>
      </trkpt>
      <trkpt lat="50.48618" lon="1.63607">
        <ele>5.1</ele>
        <time>2020-06-18T18:50:34Z</time>
      </trkpt>
      <trkpt lat="50.48616" lon="1.63596">
        <ele>5.1</ele>
        <time>2020-06-18T18:50:35Z</time>
      </trkpt>
      <trkpt lat="50.48614" lon="1.63584">
        <ele>5.1</ele>
        <time>2020-06-18T18:50:36Z</time>
      </trkpt>
      <trkpt lat="50.48613" lon="1.63574">
        <ele>5.2</ele>
        <time>2020-06-18T18:50:37Z</time>
      </trkpt>
      <trkpt lat="50.48611" lon="1.63564">
        <ele>5.2</ele>
        <time>2020-06-18T18:50:38Z</time>
      </trkpt>
      <trkpt lat="50.48609" lon="1.63554">
        <ele>5.3</ele>
        <time>2020-06-18T18:50:39Z</time>
      </trkpt>
      <trkpt lat="50.48607" lon="1.63541">
        <ele>5.4</ele>
        <time>2020-06-18T18:50:40Z</time>
      </trkpt>
      <trkpt lat="50.48606" lon="1.63528">
        <ele>5.4</ele>
        <time>2020-06-18T18:50:41Z</time>
      </trkpt>
      <trkpt lat="50.48604" lon="1.63517">
        <ele>5.4</ele>
        <time>2020-06-18T18:50:42Z</time>
      </trkpt>
      <trkpt lat="50.48602" lon="1.63506">
        <ele>5.4</ele>
        <time>2020-06-18T18:50:43Z</time>
      </trkpt>
      <trkpt lat="50.48601" lon="1.63496">
        <ele>5.3</ele>
        <time>2020-06-18T18:50:44Z</time>
      </trkpt>
      <trkpt lat="50.48599" lon="1.63485">
        <ele>5.4</ele>
        <time>2020-06-18T18:50:45Z</time>
      </trkpt>
      <trkpt lat="50.48597" lon="1.63474">
        <ele>5.3</ele>
        <time>2020-06-18T18:50:46Z</time>
      </trkpt>
      <trkpt lat="50.48595" lon="1.63462">
        <ele>5.3</ele>
        <time>2020-06-18T18:50:47Z</time>
      </trkpt>
      <trkpt lat="50.48594" lon="1.6345">
        <ele>5.3</ele>
        <time>2020-06-18T18:50:48Z</time>
      </trkpt>
      <trkpt lat="50.48591" lon="1.63438">
        <ele>5.3</ele>
        <time>2020-06-18T18:50:49Z</time>
      </trkpt>
      <trkpt lat="50.4859" lon="1.63427">
        <ele>5.3</ele>
        <time>2020-06-18T18:50:50Z</time>
      </trkpt>
      <trkpt lat="50.48587" lon="1.63415">
        <ele>5.3</ele>
        <time>2020-06-18T18:50:51Z</time>
      </trkpt>
      <trkpt lat="50.48586" lon="1.63403">
        <ele>5.3</ele>
        <time>2020-06-18T18:50:52Z</time>
      </trkpt>
      <trkpt lat="50.48584" lon="1.6339">
        <ele>5.3</ele>
        <time>2020-06-18T18:50:53Z</time>
      </trkpt>
      <trkpt lat="50.48583" lon="1.63378">
        <ele>5.2</ele>
        <time>2020-06-18T18:50:54Z</time>
      </trkpt>
      <trkpt lat="50.48581" lon="1.63366">
        <ele>5</ele>
        <time>2020-06-18T18:50:55Z</time>
      </trkpt>
      <trkpt lat="50.48579" lon="1.63355">
        <ele>5</ele>
        <time>2020-06-18T18:50:56Z</time>
      </trkpt>
      <trkpt lat="50.48577" lon="1.63343">
        <ele>5</ele>
        <time>2020-06-18T18:50:57Z</time>
      </trkpt>
      <trkpt lat="50.48575" lon="1.63332">
        <ele>5</ele>
        <time>2020-06-18T18:50:58Z</time>
      </trkpt>
      <trkpt lat="50.48573" lon="1.6332">
        <ele>5</ele>
        <time>2020-06-18T18:50:59Z</time>
      </trkpt>
      <trkpt lat="50.4857" lon="1.63309">
        <ele>5</ele>
        <time>2020-06-18T18:51:00Z</time>
      </trkpt>
      <trkpt lat="50.48568" lon="1.63297">
        <ele>5</ele>
        <time>2020-06-18T18:51:01Z</time>
      </trkpt>
      <trkpt lat="50.48565" lon="1.63286">
        <ele>5</ele>
        <time>2020-06-18T18:51:02Z</time>
      </trkpt>
      <trkpt lat="50.48563" lon="1.63274">
        <ele>5.1</ele>
        <time>2020-06-18T18:51:03Z</time>
      </trkpt>
      <trkpt lat="50.48561" lon="1.63262">
        <ele>5.1</ele>
        <time>2020-06-18T18:51:04Z</time>
      </trkpt>
      <trkpt lat="50.48559" lon="1.6325">
        <ele>5.1</ele>
        <time>2020-06-18T18:51:05Z</time>
      </trkpt>
      <trkpt lat="50.48556" lon="1.6324">
        <ele>5.1</ele>
        <time>2020-06-18T18:51:06Z</time>
      </trkpt>
      <trkpt lat="50.48553" lon="1.63229">
        <ele>5.2</ele>
        <time>2020-06-18T18:51:07Z</time>
      </trkpt>
      <trkpt lat="50.48551" lon="1.63216">
        <ele>5.3</ele>
        <time>2020-06-18T18:51:08Z</time>
      </trkpt>
      <trkpt lat="50.48549" lon="1.63206">
        <ele>5.3</ele>
        <time>2020-06-18T18:51:09Z</time>
      </trkpt>
      <trkpt lat="50.48547" lon="1.63196">
        <ele>5.3</ele>
        <time>2020-06-18T18:51:10Z</time>
      </trkpt>
      <trkpt lat="50.48545" lon="1.63185">
        <ele>5.4</ele>
        <time>2020-06-18T18:51:11Z</time>
      </trkpt>
      <trkpt lat="50.48543" lon="1.63175">
        <ele>5.4</ele>
        <time>2020-06-18T18:51:12Z</time>
      </trkpt>
      <trkpt lat="50.48541" lon="1.63165">
        <ele>5.4</ele>
        <time>2020-06-18T18:51:13Z</time>
      </trkpt>
      <trkpt lat="50.48539" lon="1.63155">
        <ele>5.4</ele>
        <time>2020-06-18T18:51:14Z</time>
      </trkpt>
      <trkpt lat="50.48537" lon="1.63145">
        <ele>5.5</ele>
        <time>2020-06-18T18:51:15Z</time>
      </trkpt>
      <trkpt lat="50.48534" lon="1.63135">
        <ele>5.5</ele>
        <time>2020-06-18T18:51:16Z</time>
      </trkpt>
      <trkpt lat="50.48532" lon="1.63124">
        <ele>5.6</ele>
        <time>2020-06-18T18:51:17Z</time>
      </trkpt>
      <trkpt lat="50.4853" lon="1.63114">
        <ele>5.6</ele>
        <time>2020-06-18T18:51:18Z</time>
      </trkpt>
      <trkpt lat="50.48528" lon="1.63104">
        <ele>5.6</ele>
        <time>2020-06-18T18:51:19Z</time>
      </trkpt>
      <trkpt lat="50.48526" lon="1.63093">
        <ele>5.5</ele>
        <time>2020-06-18T18:51:20Z</time>
      </trkpt>
      <trkpt lat="50.48524" lon="1.63083">
        <ele>5.4</ele>
        <time>2020-06-18T18:51:21Z</time>
      </trkpt>
      <trkpt lat="50.48522" lon="1.63072">
        <ele>5.4</ele>
        <time>2020-06-18T18:51:22Z</time>
      </trkpt>
      <trkpt lat="50.48519" lon="1.63061">
        <ele>5.3</ele>
        <time>2020-06-18T18:51:23Z</time>
      </trkpt>
      <trkpt lat="50.48517" lon="1.6305">
        <ele>5.3</ele>
        <time>2020-06-18T18:51:24Z</time>
      </trkpt>
      <trkpt lat="50.48515" lon="1.6304">
        <ele>5.3</ele>
        <time>2020-06-18T18:51:25Z</time>
      </trkpt>
      <trkpt lat="50.48513" lon="1.63028">
        <ele>5.3</ele>
        <time>2020-06-18T18:51:26Z</time>
      </trkpt>
      <trkpt lat="50.4851" lon="1.63017">
        <ele>5.3</ele>
        <time>2020-06-18T18:51:27Z</time>
      </trkpt>
      <trkpt lat="50.48508" lon="1.63006">
        <ele>5.3</ele>
        <time>2020-06-18T18:51:28Z</time>
      </trkpt>
      <trkpt lat="50.48505" lon="1.62996">
        <ele>5.3</ele>
        <time>2020-06-18T18:51:29Z</time>
      </trkpt>
      <trkpt lat="50.48503" lon="1.62984">
        <ele>5.4</ele>
        <time>2020-06-18T18:51:30Z</time>
      </trkpt>
      <trkpt lat="50.485" lon="1.62972">
        <ele>5.5</ele>
        <time>2020-06-18T18:51:31Z</time>
      </trkpt>
      <trkpt lat="50.48498" lon="1.62962">
        <ele>5.5</ele>
        <time>2020-06-18T18:51:32Z</time>
      </trkpt>
      <trkpt lat="50.48495" lon="1.62951">
        <ele>5.5</ele>
        <time>2020-06-18T18:51:33Z</time>
      </trkpt>
      <trkpt lat="50.48492" lon="1.6294">
        <ele>5.5</ele>
        <time>2020-06-18T18:51:34Z</time>
      </trkpt>
      <trkpt lat="50.4849" lon="1.62929">
        <ele>5.5</ele>
        <time>2020-06-18T18:51:35Z</time>
      </trkpt>
      <trkpt lat="50.48487" lon="1.62917">
        <ele>5.6</ele>
        <time>2020-06-18T18:51:36Z</time>
      </trkpt>
      <trkpt lat="50.48485" lon="1.62906">
        <ele>5.6</ele>
        <time>2020-06-18T18:51:37Z</time>
      </trkpt>
      <trkpt lat="50.48482" lon="1.62895">
        <ele>5.7</ele>
        <time>2020-06-18T18:51:38Z</time>
      </trkpt>
      <trkpt lat="50.48479" lon="1.62884">
        <ele>5.6</ele>
        <time>2020-06-18T18:51:39Z</time>
      </trkpt>
      <trkpt lat="50.48477" lon="1.62872">
        <ele>5.6</ele>
        <time>2020-06-18T18:51:40Z</time>
      </trkpt>
      <trkpt lat="50.48474" lon="1.62861">
        <ele>5.5</ele>
        <time>2020-06-18T18:51:41Z</time>
      </trkpt>
      <trkpt lat="50.48471" lon="1.6285">
        <ele>5.6</ele>
        <time>2020-06-18T18:51:42Z</time>
      </trkpt>
      <trkpt lat="50.48469" lon="1.62838">
        <ele>5.6</ele>
        <time>2020-06-18T18:51:43Z</time>
      </trkpt>
      <trkpt lat="50.48466" lon="1.62828">
        <ele>5.6</ele>
        <time>2020-06-18T18:51:44Z</time>
      </trkpt>
      <trkpt lat="50.48463" lon="1.62817">
        <ele>5.7</ele>
        <time>2020-06-18T18:51:45Z</time>
      </trkpt>
      <trkpt lat="50.4846" lon="1.62807">
        <ele>5.7</ele>
        <time>2020-06-18T18:51:46Z</time>
      </trkpt>
      <trkpt lat="50.48457" lon="1.62796">
        <ele>5.8</ele>
        <time>2020-06-18T18:51:47Z</time>
      </trkpt>
      <trkpt lat="50.48455" lon="1.62788">
        <ele>5.8</ele>
        <time>2020-06-18T18:51:48Z</time>
      </trkpt>
      <trkpt lat="50.48452" lon="1.62777">
        <ele>5.8</ele>
        <time>2020-06-18T18:51:49Z</time>
      </trkpt>
      <trkpt lat="50.48449" lon="1.62766">
        <ele>5.8</ele>
        <time>2020-06-18T18:51:50Z</time>
      </trkpt>
      <trkpt lat="50.48447" lon="1.62756">
        <ele>5.8</ele>
        <time>2020-06-18T18:51:51Z</time>
      </trkpt>
      <trkpt lat="50.48443" lon="1.62745">
        <ele>5.8</ele>
        <time>2020-06-18T18:51:52Z</time>
      </trkpt>
      <trkpt lat="50.48439" lon="1.62734">
        <ele>5.8</ele>
        <time>2020-06-18T18:51:53Z</time>
      </trkpt>
      <trkpt lat="50.48436" lon="1.62724">
        <ele>5.8</ele>
        <time>2020-06-18T18:51:54Z</time>
      </trkpt>
      <trkpt lat="50.48433" lon="1.62713">
        <ele>5.8</ele>
        <time>2020-06-18T18:51:55Z</time>
      </trkpt>
      <trkpt lat="50.48429" lon="1.62703">
        <ele>5.8</ele>
        <time>2020-06-18T18:51:56Z</time>
      </trkpt>
      <trkpt lat="50.48426" lon="1.62691">
        <ele>5.7</ele>
        <time>2020-06-18T18:51:57Z</time>
      </trkpt>
      <trkpt lat="50.48422" lon="1.6268">
        <ele>5.6</ele>
        <time>2020-06-18T18:51:58Z</time>
      </trkpt>
      <trkpt lat="50.48419" lon="1.6267">
        <ele>5.6</ele>
        <time>2020-06-18T18:51:59Z</time>
      </trkpt>
      <trkpt lat="50.48416" lon="1.62659">
        <ele>5.5</ele>
        <time>2020-06-18T18:52:00Z</time>
      </trkpt>
      <trkpt lat="50.48412" lon="1.62649">
        <ele>5.5</ele>
        <time>2020-06-18T18:52:01Z</time>
      </trkpt>
      <trkpt lat="50.48409" lon="1.62638">
        <ele>5.5</ele>
        <time>2020-06-18T18:52:02Z</time>
      </trkpt>
      <trkpt lat="50.48406" lon="1.62629">
        <ele>5.6</ele>
        <time>2020-06-18T18:52:03Z</time>
      </trkpt>
      <trkpt lat="50.48402" lon="1.62619">
        <ele>5.6</ele>
        <time>2020-06-18T18:52:04Z</time>
      </trkpt>
      <trkpt lat="50.48398" lon="1.62608">
        <ele>5.6</ele>
        <time>2020-06-18T18:52:05Z</time>
      </trkpt>
      <trkpt lat="50.48395" lon="1.62598">
        <ele>5.7</ele>
        <time>2020-06-18T18:52:06Z</time>
      </trkpt>
      <trkpt lat="50.48392" lon="1.62587">
        <ele>5.7</ele>
        <time>2020-06-18T18:52:07Z</time>
      </trkpt>
      <trkpt lat="50.48389" lon="1.62577">
        <ele>5.7</ele>
        <time>2020-06-18T18:52:08Z</time>
      </trkpt>
      <trkpt lat="50.48386" lon="1.62567">
        <ele>5.8</ele>
        <time>2020-06-18T18:52:09Z</time>
      </trkpt>
      <trkpt lat="50.48382" lon="1.62558">
        <ele>5.8</ele>
        <time>2020-06-18T18:52:10Z</time>
      </trkpt>
      <trkpt lat="50.48379" lon="1.62549">
        <ele>5.8</ele>
        <time>2020-06-18T18:52:11Z</time>
      </trkpt>
      <trkpt lat="50.48375" lon="1.62539">
        <ele>5.9</ele>
        <time>2020-06-18T18:52:12Z</time>
      </trkpt>
      <trkpt lat="50.48372" lon="1.62528">
        <ele>6</ele>
        <time>2020-06-18T18:52:13Z</time>
      </trkpt>
      <trkpt lat="50.48369" lon="1.62518">
        <ele>6.1</ele>
        <time>2020-06-18T18:52:14Z</time>
      </trkpt>
      <trkpt lat="50.48366" lon="1.62508">
        <ele>6</ele>
        <time>2020-06-18T18:52:15Z</time>
      </trkpt>
      <trkpt lat="50.48364" lon="1.62498">
        <ele>6</ele>
        <time>2020-06-18T18:52:16Z</time>
      </trkpt>
      <trkpt lat="50.48361" lon="1.62489">
        <ele>6</ele>
        <time>2020-06-18T18:52:17Z</time>
      </trkpt>
      <trkpt lat="50.48359" lon="1.62483">
        <ele>6</ele>
        <time>2020-06-18T18:52:18Z</time>
      </trkpt>
      <trkpt lat="50.48357" lon="1.62476">
        <ele>6</ele>
        <time>2020-06-18T18:52:19Z</time>
      </trkpt>
      <trkpt lat="50.48354" lon="1.62468">
        <ele>6.1</ele>
        <time>2020-06-18T18:52:20Z</time>
      </trkpt>
      <trkpt lat="50.48352" lon="1.62459">
        <ele>6.1</ele>
        <time>2020-06-18T18:52:21Z</time>
      </trkpt>
      <trkpt lat="50.48349" lon="1.62452">
        <ele>6.1</ele>
        <time>2020-06-18T18:52:22Z</time>
      </trkpt>
      <trkpt lat="50.48347" lon="1.62445">
        <ele>6.1</ele>
        <time>2020-06-18T18:52:23Z</time>
      </trkpt>
      <trkpt lat="50.48345" lon="1.62438">
        <ele>6.1</ele>
        <time>2020-06-18T18:52:24Z</time>
      </trkpt>
      <trkpt lat="50.48344" lon="1.62429">
        <ele>6.1</ele>
        <time>2020-06-18T18:52:25Z</time>
      </trkpt>
      <trkpt lat="50.48344" lon="1.62422">
        <ele>6.1</ele>
        <time>2020-06-18T18:52:26Z</time>
      </trkpt>
      <trkpt lat="50.48347" lon="1.62416">
        <ele>6.1</ele>
        <time>2020-06-18T18:52:27Z</time>
      </trkpt>
      <trkpt lat="50.48351" lon="1.62409">
        <ele>6.1</ele>
        <time>2020-06-18T18:52:28Z</time>
      </trkpt>
      <trkpt lat="50.48355" lon="1.62405">
        <ele>6</ele>
        <time>2020-06-18T18:52:29Z</time>
      </trkpt>
      <trkpt lat="50.48359" lon="1.62402">
        <ele>5.9</ele>
        <time>2020-06-18T18:52:30Z</time>
      </trkpt>
      <trkpt lat="50.48364" lon="1.62403">
        <ele>5.9</ele>
        <time>2020-06-18T18:52:31Z</time>
      </trkpt>
      <trkpt lat="50.48369" lon="1.62404">
        <ele>5.8</ele>
        <time>2020-06-18T18:52:32Z</time>
      </trkpt>
      <trkpt lat="50.48375" lon="1.62405">
        <ele>5.8</ele>
        <time>2020-06-18T18:52:33Z</time>
      </trkpt>
      <trkpt lat="50.48381" lon="1.62408">
        <ele>5.7</ele>
        <time>2020-06-18T18:52:34Z</time>
      </trkpt>
      <trkpt lat="50.48387" lon="1.62407">
        <ele>5.6</ele>
        <time>2020-06-18T18:52:35Z</time>
      </trkpt>
      <trkpt lat="50.48393" lon="1.62409">
        <ele>5.6</ele>
        <time>2020-06-18T18:52:36Z</time>
      </trkpt>
      <trkpt lat="50.48399" lon="1.6241">
        <ele>5.6</ele>
        <time>2020-06-18T18:52:37Z</time>
      </trkpt>
      <trkpt lat="50.48406" lon="1.6241">
        <ele>5.5</ele>
        <time>2020-06-18T18:52:38Z</time>
      </trkpt>
      <trkpt lat="50.48413" lon="1.62412">
        <ele>5.5</ele>
        <time>2020-06-18T18:52:39Z</time>
      </trkpt>
      <trkpt lat="50.4842" lon="1.62415">
        <ele>5.4</ele>
        <time>2020-06-18T18:52:40Z</time>
      </trkpt>
      <trkpt lat="50.48428" lon="1.62417">
        <ele>5.4</ele>
        <time>2020-06-18T18:52:41Z</time>
      </trkpt>
      <trkpt lat="50.48435" lon="1.62419">
        <ele>5.4</ele>
        <time>2020-06-18T18:52:42Z</time>
      </trkpt>
      <trkpt lat="50.48441" lon="1.6242">
        <ele>5.3</ele>
        <time>2020-06-18T18:52:43Z</time>
      </trkpt>
      <trkpt lat="50.4845" lon="1.62422">
        <ele>5.3</ele>
        <time>2020-06-18T18:52:44Z</time>
      </trkpt>
      <trkpt lat="50.48457" lon="1.62421">
        <ele>5.3</ele>
        <time>2020-06-18T18:52:45Z</time>
      </trkpt>
      <trkpt lat="50.48464" lon="1.62419">
        <ele>5.3</ele>
        <time>2020-06-18T18:52:46Z</time>
      </trkpt>
      <trkpt lat="50.48471" lon="1.62417">
        <ele>5.4</ele>
        <time>2020-06-18T18:52:47Z</time>
      </trkpt>
      <trkpt lat="50.48477" lon="1.62415">
        <ele>5.4</ele>
        <time>2020-06-18T18:52:48Z</time>
      </trkpt>
      <trkpt lat="50.48484" lon="1.62412">
        <ele>5.4</ele>
        <time>2020-06-18T18:52:49Z</time>
      </trkpt>
      <trkpt lat="50.4849" lon="1.62409">
        <ele>5.4</ele>
        <time>2020-06-18T18:52:50Z</time>
      </trkpt>
      <trkpt lat="50.48497" lon="1.62406">
        <ele>5.4</ele>
        <time>2020-06-18T18:52:51Z</time>
      </trkpt>
      <trkpt lat="50.48504" lon="1.62403">
        <ele>5.4</ele>
        <time>2020-06-18T18:52:52Z</time>
      </trkpt>
      <trkpt lat="50.4851" lon="1.624">
        <ele>5.4</ele>
        <time>2020-06-18T18:52:53Z</time>
      </trkpt>
      <trkpt lat="50.48516" lon="1.62397">
        <ele>5.3</ele>
        <time>2020-06-18T18:52:54Z</time>
      </trkpt>
      <trkpt lat="50.48521" lon="1.62394">
        <ele>5.3</ele>
        <time>2020-06-18T18:52:55Z</time>
      </trkpt>
      <trkpt lat="50.48527" lon="1.62391">
        <ele>5.3</ele>
        <time>2020-06-18T18:52:56Z</time>
      </trkpt>
      <trkpt lat="50.48533" lon="1.62388">
        <ele>5.3</ele>
        <time>2020-06-18T18:52:57Z</time>
      </trkpt>
      <trkpt lat="50.48539" lon="1.62385">
        <ele>5.3</ele>
        <time>2020-06-18T18:52:58Z</time>
      </trkpt>
      <trkpt lat="50.48545" lon="1.62381">
        <ele>5.3</ele>
        <time>2020-06-18T18:52:59Z</time>
      </trkpt>
      <trkpt lat="50.48551" lon="1.62378">
        <ele>5.3</ele>
        <time>2020-06-18T18:53:00Z</time>
      </trkpt>
      <trkpt lat="50.48557" lon="1.62374">
        <ele>5.3</ele>
        <time>2020-06-18T18:53:01Z</time>
      </trkpt>
      <trkpt lat="50.48563" lon="1.62371">
        <ele>5.3</ele>
        <time>2020-06-18T18:53:02Z</time>
      </trkpt>
      <trkpt lat="50.48569" lon="1.62368">
        <ele>5.3</ele>
        <time>2020-06-18T18:53:03Z</time>
      </trkpt>
      <trkpt lat="50.48575" lon="1.62365">
        <ele>5.4</ele>
        <time>2020-06-18T18:53:04Z</time>
      </trkpt>
      <trkpt lat="50.48582" lon="1.62362">
        <ele>5.4</ele>
        <time>2020-06-18T18:53:05Z</time>
      </trkpt>
      <trkpt lat="50.48588" lon="1.62358">
        <ele>5.4</ele>
        <time>2020-06-18T18:53:06Z</time>
      </trkpt>
      <trkpt lat="50.48594" lon="1.62353">
        <ele>5.4</ele>
        <time>2020-06-18T18:53:07Z</time>
      </trkpt>
      <trkpt lat="50.48601" lon="1.6235">
        <ele>5.4</ele>
        <time>2020-06-18T18:53:08Z</time>
      </trkpt>
      <trkpt lat="50.48608" lon="1.62348">
        <ele>5.4</ele>
        <time>2020-06-18T18:53:09Z</time>
      </trkpt>
      <trkpt lat="50.48615" lon="1.62345">
        <ele>5.4</ele>
        <time>2020-06-18T18:53:10Z</time>
      </trkpt>
      <trkpt lat="50.48621" lon="1.62341">
        <ele>5.5</ele>
        <time>2020-06-18T18:53:11Z</time>
      </trkpt>
      <trkpt lat="50.48629" lon="1.62337">
        <ele>5.5</ele>
        <time>2020-06-18T18:53:12Z</time>
      </trkpt>
      <trkpt lat="50.48636" lon="1.62333">
        <ele>5.6</ele>
        <time>2020-06-18T18:53:13Z</time>
      </trkpt>
      <trkpt lat="50.48644" lon="1.62329">
        <ele>5.5</ele>
        <time>2020-06-18T18:53:14Z</time>
      </trkpt>
      <trkpt lat="50.48651" lon="1.62325">
        <ele>5.5</ele>
        <time>2020-06-18T18:53:15Z</time>
      </trkpt>
      <trkpt lat="50.48658" lon="1.62322">
        <ele>5.5</ele>
        <time>2020-06-18T18:53:16Z</time>
      </trkpt>
      <trkpt lat="50.48665" lon="1.62317">
        <ele>5.6</ele>
        <time>2020-06-18T18:53:17Z</time>
      </trkpt>
      <trkpt lat="50.48672" lon="1.62314">
        <ele>5.6</ele>
        <time>2020-06-18T18:53:18Z</time>
      </trkpt>
      <trkpt lat="50.48678" lon="1.62311">
        <ele>5.6</ele>
        <time>2020-06-18T18:53:19Z</time>
      </trkpt>
      <trkpt lat="50.48684" lon="1.62308">
        <ele>5.5</ele>
        <time>2020-06-18T18:53:20Z</time>
      </trkpt>
      <trkpt lat="50.4869" lon="1.62306">
        <ele>5.5</ele>
        <time>2020-06-18T18:53:21Z</time>
      </trkpt>
      <trkpt lat="50.48696" lon="1.62304">
        <ele>5.5</ele>
        <time>2020-06-18T18:53:22Z</time>
      </trkpt>
      <trkpt lat="50.48702" lon="1.62302">
        <ele>5.5</ele>
        <time>2020-06-18T18:53:23Z</time>
      </trkpt>
      <trkpt lat="50.48707" lon="1.623">
        <ele>5.5</ele>
        <time>2020-06-18T18:53:24Z</time>
      </trkpt>
      <trkpt lat="50.48711" lon="1.623">
        <ele>5.5</ele>
        <time>2020-06-18T18:53:25Z</time>
      </trkpt>
      <trkpt lat="50.48715" lon="1.62302">
        <ele>6.3</ele>
        <time>2020-06-18T18:53:26Z</time>
      </trkpt>
      <trkpt lat="50.4872" lon="1.62305">
        <ele>6.2</ele>
        <time>2020-06-18T18:53:27Z</time>
      </trkpt>
      <trkpt lat="50.48724" lon="1.62308">
        <ele>6.1</ele>
        <time>2020-06-18T18:53:28Z</time>
      </trkpt>
      <trkpt lat="50.48729" lon="1.62305">
        <ele>6</ele>
        <time>2020-06-18T18:53:29Z</time>
      </trkpt>
      <trkpt lat="50.48733" lon="1.62299">
        <ele>5.9</ele>
        <time>2020-06-18T18:53:30Z</time>
      </trkpt>
      <trkpt lat="50.48736" lon="1.62291">
        <ele>5.9</ele>
        <time>2020-06-18T18:53:31Z</time>
      </trkpt>
      <trkpt lat="50.48737" lon="1.62284">
        <ele>5.8</ele>
        <time>2020-06-18T18:53:32Z</time>
      </trkpt>
      <trkpt lat="50.48735" lon="1.62275">
        <ele>5.8</ele>
        <time>2020-06-18T18:53:33Z</time>
      </trkpt>
      <trkpt lat="50.48733" lon="1.62264">
        <ele>6</ele>
        <time>2020-06-18T18:53:34Z</time>
      </trkpt>
      <trkpt lat="50.4873" lon="1.62255">
        <ele>5.9</ele>
        <time>2020-06-18T18:53:35Z</time>
      </trkpt>
      <trkpt lat="50.48728" lon="1.62246">
        <ele>5.8</ele>
        <time>2020-06-18T18:53:36Z</time>
      </trkpt>
      <trkpt lat="50.48726" lon="1.62236">
        <ele>5.7</ele>
        <time>2020-06-18T18:53:37Z</time>
      </trkpt>
      <trkpt lat="50.48725" lon="1.62226">
        <ele>5.6</ele>
        <time>2020-06-18T18:53:38Z</time>
      </trkpt>
      <trkpt lat="50.48723" lon="1.62216">
        <ele>5.6</ele>
        <time>2020-06-18T18:53:39Z</time>
      </trkpt>
      <trkpt lat="50.48721" lon="1.62204">
        <ele>5.5</ele>
        <time>2020-06-18T18:53:40Z</time>
      </trkpt>
      <trkpt lat="50.48719" lon="1.62192">
        <ele>5.4</ele>
        <time>2020-06-18T18:53:41Z</time>
      </trkpt>
      <trkpt lat="50.48716" lon="1.6218">
        <ele>5.4</ele>
        <time>2020-06-18T18:53:42Z</time>
      </trkpt>
      <trkpt lat="50.48714" lon="1.62169">
        <ele>5.3</ele>
        <time>2020-06-18T18:53:43Z</time>
      </trkpt>
      <trkpt lat="50.48711" lon="1.62157">
        <ele>5.4</ele>
        <time>2020-06-18T18:53:44Z</time>
      </trkpt>
      <trkpt lat="50.48709" lon="1.62145">
        <ele>5.4</ele>
        <time>2020-06-18T18:53:45Z</time>
      </trkpt>
      <trkpt lat="50.48706" lon="1.62132">
        <ele>5.4</ele>
        <time>2020-06-18T18:53:46Z</time>
      </trkpt>
      <trkpt lat="50.48703" lon="1.62119">
        <ele>5.3</ele>
        <time>2020-06-18T18:53:47Z</time>
      </trkpt>
      <trkpt lat="50.487" lon="1.62106">
        <ele>5.3</ele>
        <time>2020-06-18T18:53:48Z</time>
      </trkpt>
      <trkpt lat="50.48697" lon="1.62094">
        <ele>5.3</ele>
        <time>2020-06-18T18:53:49Z</time>
      </trkpt>
      <trkpt lat="50.48695" lon="1.62082">
        <ele>5.4</ele>
        <time>2020-06-18T18:53:50Z</time>
      </trkpt>
      <trkpt lat="50.48692" lon="1.62069">
        <ele>5.5</ele>
        <time>2020-06-18T18:53:51Z</time>
      </trkpt>
      <trkpt lat="50.48689" lon="1.62057">
        <ele>5.6</ele>
        <time>2020-06-18T18:53:52Z</time>
      </trkpt>
      <trkpt lat="50.48686" lon="1.62044">
        <ele>5.5</ele>
        <time>2020-06-18T18:53:53Z</time>
      </trkpt>
      <trkpt lat="50.48684" lon="1.62032">
        <ele>5.5</ele>
        <time>2020-06-18T18:53:54Z</time>
      </trkpt>
      <trkpt lat="50.48681" lon="1.6202">
        <ele>5.4</ele>
        <time>2020-06-18T18:53:55Z</time>
      </trkpt>
      <trkpt lat="50.48679" lon="1.62007">
        <ele>5.4</ele>
        <time>2020-06-18T18:53:56Z</time>
      </trkpt>
      <trkpt lat="50.48677" lon="1.61994">
        <ele>5.4</ele>
        <time>2020-06-18T18:53:57Z</time>
      </trkpt>
      <trkpt lat="50.48675" lon="1.61982">
        <ele>5.4</ele>
        <time>2020-06-18T18:53:58Z</time>
      </trkpt>
      <trkpt lat="50.48672" lon="1.6197">
        <ele>5.4</ele>
        <time>2020-06-18T18:53:59Z</time>
      </trkpt>
      <trkpt lat="50.48669" lon="1.61959">
        <ele>5.4</ele>
        <time>2020-06-18T18:54:00Z</time>
      </trkpt>
      <trkpt lat="50.48667" lon="1.61946">
        <ele>5.4</ele>
        <time>2020-06-18T18:54:01Z</time>
      </trkpt>
      <trkpt lat="50.48664" lon="1.61934">
        <ele>5.4</ele>
        <time>2020-06-18T18:54:02Z</time>
      </trkpt>
      <trkpt lat="50.48661" lon="1.61921">
        <ele>5.4</ele>
        <time>2020-06-18T18:54:03Z</time>
      </trkpt>
      <trkpt lat="50.48658" lon="1.61911">
        <ele>5.4</ele>
        <time>2020-06-18T18:54:04Z</time>
      </trkpt>
      <trkpt lat="50.48655" lon="1.61899">
        <ele>5.5</ele>
        <time>2020-06-18T18:54:05Z</time>
      </trkpt>
      <trkpt lat="50.48652" lon="1.61888">
        <ele>5.5</ele>
        <time>2020-06-18T18:54:06Z</time>
      </trkpt>
      <trkpt lat="50.4865" lon="1.61876">
        <ele>5.5</ele>
        <time>2020-06-18T18:54:07Z</time>
      </trkpt>
      <trkpt lat="50.48647" lon="1.61864">
        <ele>5.6</ele>
        <time>2020-06-18T18:54:08Z</time>
      </trkpt>
      <trkpt lat="50.48645" lon="1.61852">
        <ele>5.7</ele>
        <time>2020-06-18T18:54:09Z</time>
      </trkpt>
      <trkpt lat="50.48643" lon="1.61839">
        <ele>5.8</ele>
        <time>2020-06-18T18:54:10Z</time>
      </trkpt>
      <trkpt lat="50.4864" lon="1.61828">
        <ele>5.9</ele>
        <time>2020-06-18T18:54:11Z</time>
      </trkpt>
      <trkpt lat="50.48637" lon="1.61816">
        <ele>6</ele>
        <time>2020-06-18T18:54:12Z</time>
      </trkpt>
      <trkpt lat="50.48634" lon="1.61805">
        <ele>6</ele>
        <time>2020-06-18T18:54:13Z</time>
      </trkpt>
      <trkpt lat="50.48631" lon="1.61793">
        <ele>6.1</ele>
        <time>2020-06-18T18:54:14Z</time>
      </trkpt>
      <trkpt lat="50.48628" lon="1.6178">
        <ele>6.1</ele>
        <time>2020-06-18T18:54:15Z</time>
      </trkpt>
      <trkpt lat="50.48626" lon="1.61769">
        <ele>6.1</ele>
        <time>2020-06-18T18:54:16Z</time>
      </trkpt>
      <trkpt lat="50.48623" lon="1.61757">
        <ele>6.1</ele>
        <time>2020-06-18T18:54:17Z</time>
      </trkpt>
      <trkpt lat="50.48621" lon="1.61747">
        <ele>6.1</ele>
        <time>2020-06-18T18:54:18Z</time>
      </trkpt>
      <trkpt lat="50.48618" lon="1.61736">
        <ele>6.1</ele>
        <time>2020-06-18T18:54:19Z</time>
      </trkpt>
      <trkpt lat="50.48616" lon="1.61725">
        <ele>6.1</ele>
        <time>2020-06-18T18:54:20Z</time>
      </trkpt>
      <trkpt lat="50.48614" lon="1.61713">
        <ele>6.1</ele>
        <time>2020-06-18T18:54:21Z</time>
      </trkpt>
      <trkpt lat="50.48612" lon="1.61701">
        <ele>6.1</ele>
        <time>2020-06-18T18:54:22Z</time>
      </trkpt>
      <trkpt lat="50.48609" lon="1.6169">
        <ele>6</ele>
        <time>2020-06-18T18:54:23Z</time>
      </trkpt>
      <trkpt lat="50.48607" lon="1.61678">
        <ele>6</ele>
        <time>2020-06-18T18:54:24Z</time>
      </trkpt>
      <trkpt lat="50.48604" lon="1.61667">
        <ele>6</ele>
        <time>2020-06-18T18:54:25Z</time>
      </trkpt>
      <trkpt lat="50.48602" lon="1.61655">
        <ele>6</ele>
        <time>2020-06-18T18:54:26Z</time>
      </trkpt>
      <trkpt lat="50.48599" lon="1.61644">
        <ele>6</ele>
        <time>2020-06-18T18:54:27Z</time>
      </trkpt>
      <trkpt lat="50.48597" lon="1.61634">
        <ele>6</ele>
        <time>2020-06-18T18:54:28Z</time>
      </trkpt>
      <trkpt lat="50.48595" lon="1.61622">
        <ele>6.1</ele>
        <time>2020-06-18T18:54:29Z</time>
      </trkpt>
      <trkpt lat="50.48593" lon="1.61611">
        <ele>6.1</ele>
        <time>2020-06-18T18:54:30Z</time>
      </trkpt>
      <trkpt lat="50.4859" lon="1.616">
        <ele>6.1</ele>
        <time>2020-06-18T18:54:31Z</time>
      </trkpt>
      <trkpt lat="50.48588" lon="1.61588">
        <ele>6.1</ele>
        <time>2020-06-18T18:54:32Z</time>
      </trkpt>
      <trkpt lat="50.48586" lon="1.61576">
        <ele>6.1</ele>
        <time>2020-06-18T18:54:33Z</time>
      </trkpt>
      <trkpt lat="50.48584" lon="1.61564">
        <ele>6.1</ele>
        <time>2020-06-18T18:54:34Z</time>
      </trkpt>
      <trkpt lat="50.48583" lon="1.61553">
        <ele>6.1</ele>
        <time>2020-06-18T18:54:35Z</time>
      </trkpt>
      <trkpt lat="50.4858" lon="1.61544">
        <ele>6.1</ele>
        <time>2020-06-18T18:54:36Z</time>
      </trkpt>
      <trkpt lat="50.48577" lon="1.61534">
        <ele>6.1</ele>
        <time>2020-06-18T18:54:37Z</time>
      </trkpt>
      <trkpt lat="50.48575" lon="1.61523">
        <ele>6.1</ele>
        <time>2020-06-18T18:54:38Z</time>
      </trkpt>
      <trkpt lat="50.48573" lon="1.61512">
        <ele>6.1</ele>
        <time>2020-06-18T18:54:39Z</time>
      </trkpt>
      <trkpt lat="50.48571" lon="1.61501">
        <ele>6.1</ele>
        <time>2020-06-18T18:54:40Z</time>
      </trkpt>
      <trkpt lat="50.48568" lon="1.61489">
        <ele>6.2</ele>
        <time>2020-06-18T18:54:41Z</time>
      </trkpt>
      <trkpt lat="50.48566" lon="1.61478">
        <ele>6.2</ele>
        <time>2020-06-18T18:54:42Z</time>
      </trkpt>
      <trkpt lat="50.48564" lon="1.61467">
        <ele>6.2</ele>
        <time>2020-06-18T18:54:43Z</time>
      </trkpt>
      <trkpt lat="50.48562" lon="1.61455">
        <ele>6.3</ele>
        <time>2020-06-18T18:54:44Z</time>
      </trkpt>
      <trkpt lat="50.48561" lon="1.61443">
        <ele>6.3</ele>
        <time>2020-06-18T18:54:45Z</time>
      </trkpt>
      <trkpt lat="50.4856" lon="1.61431">
        <ele>6.4</ele>
        <time>2020-06-18T18:54:46Z</time>
      </trkpt>
      <trkpt lat="50.48559" lon="1.61419">
        <ele>6.4</ele>
        <time>2020-06-18T18:54:47Z</time>
      </trkpt>
      <trkpt lat="50.48559" lon="1.61409">
        <ele>6.4</ele>
        <time>2020-06-18T18:54:48Z</time>
      </trkpt>
      <trkpt lat="50.4856" lon="1.61398">
        <ele>6.4</ele>
        <time>2020-06-18T18:54:49Z</time>
      </trkpt>
      <trkpt lat="50.48561" lon="1.61386">
        <ele>6.4</ele>
        <time>2020-06-18T18:54:50Z</time>
      </trkpt>
      <trkpt lat="50.48561" lon="1.61374">
        <ele>6.5</ele>
        <time>2020-06-18T18:54:51Z</time>
      </trkpt>
      <trkpt lat="50.48562" lon="1.61362">
        <ele>6.5</ele>
        <time>2020-06-18T18:54:52Z</time>
      </trkpt>
      <trkpt lat="50.48562" lon="1.61351">
        <ele>6.5</ele>
        <time>2020-06-18T18:54:53Z</time>
      </trkpt>
      <trkpt lat="50.48564" lon="1.6134">
        <ele>6.6</ele>
        <time>2020-06-18T18:54:54Z</time>
      </trkpt>
      <trkpt lat="50.48565" lon="1.61328">
        <ele>6.7</ele>
        <time>2020-06-18T18:54:55Z</time>
      </trkpt>
      <trkpt lat="50.48566" lon="1.61315">
        <ele>6.7</ele>
        <time>2020-06-18T18:54:56Z</time>
      </trkpt>
      <trkpt lat="50.48567" lon="1.61303">
        <ele>6.8</ele>
        <time>2020-06-18T18:54:57Z</time>
      </trkpt>
      <trkpt lat="50.48567" lon="1.6129">
        <ele>6.8</ele>
        <time>2020-06-18T18:54:58Z</time>
      </trkpt>
      <trkpt lat="50.48568" lon="1.61278">
        <ele>6.8</ele>
        <time>2020-06-18T18:54:59Z</time>
      </trkpt>
      <trkpt lat="50.48568" lon="1.61265">
        <ele>6.8</ele>
        <time>2020-06-18T18:55:00Z</time>
      </trkpt>
      <trkpt lat="50.48569" lon="1.61253">
        <ele>6.9</ele>
        <time>2020-06-18T18:55:01Z</time>
      </trkpt>
      <trkpt lat="50.4857" lon="1.61241">
        <ele>6.9</ele>
        <time>2020-06-18T18:55:02Z</time>
      </trkpt>
      <trkpt lat="50.48571" lon="1.6123">
        <ele>7</ele>
        <time>2020-06-18T18:55:03Z</time>
      </trkpt>
      <trkpt lat="50.48572" lon="1.61219">
        <ele>7</ele>
        <time>2020-06-18T18:55:04Z</time>
      </trkpt>
      <trkpt lat="50.48573" lon="1.61208">
        <ele>7</ele>
        <time>2020-06-18T18:55:05Z</time>
      </trkpt>
      <trkpt lat="50.48573" lon="1.61197">
        <ele>7.2</ele>
        <time>2020-06-18T18:55:06Z</time>
      </trkpt>
      <trkpt lat="50.48573" lon="1.61186">
        <ele>7.1</ele>
        <time>2020-06-18T18:55:07Z</time>
      </trkpt>
      <trkpt lat="50.48574" lon="1.61174">
        <ele>7.1</ele>
        <time>2020-06-18T18:55:08Z</time>
      </trkpt>
      <trkpt lat="50.48574" lon="1.61162">
        <ele>7.1</ele>
        <time>2020-06-18T18:55:09Z</time>
      </trkpt>
      <trkpt lat="50.48575" lon="1.61151">
        <ele>7.1</ele>
        <time>2020-06-18T18:55:10Z</time>
      </trkpt>
      <trkpt lat="50.48576" lon="1.61138">
        <ele>7.1</ele>
        <time>2020-06-18T18:55:11Z</time>
      </trkpt>
      <trkpt lat="50.48576" lon="1.61127">
        <ele>7.2</ele>
        <time>2020-06-18T18:55:12Z</time>
      </trkpt>
      <trkpt lat="50.48577" lon="1.61115">
        <ele>7.3</ele>
        <time>2020-06-18T18:55:13Z</time>
      </trkpt>
      <trkpt lat="50.48577" lon="1.61103">
        <ele>7.3</ele>
        <time>2020-06-18T18:55:14Z</time>
      </trkpt>
      <trkpt lat="50.48577" lon="1.61092">
        <ele>7.3</ele>
        <time>2020-06-18T18:55:15Z</time>
      </trkpt>
      <trkpt lat="50.48578" lon="1.61081">
        <ele>7.4</ele>
        <time>2020-06-18T18:55:16Z</time>
      </trkpt>
      <trkpt lat="50.48578" lon="1.61069">
        <ele>7.4</ele>
        <time>2020-06-18T18:55:17Z</time>
      </trkpt>
      <trkpt lat="50.4858" lon="1.61057">
        <ele>7.5</ele>
        <time>2020-06-18T18:55:18Z</time>
      </trkpt>
      <trkpt lat="50.48581" lon="1.61046">
        <ele>7.5</ele>
        <time>2020-06-18T18:55:19Z</time>
      </trkpt>
      <trkpt lat="50.48582" lon="1.61033">
        <ele>7.6</ele>
        <time>2020-06-18T18:55:20Z</time>
      </trkpt>
      <trkpt lat="50.48583" lon="1.61021">
        <ele>7.7</ele>
        <time>2020-06-18T18:55:21Z</time>
      </trkpt>
      <trkpt lat="50.48583" lon="1.61008">
        <ele>7.8</ele>
        <time>2020-06-18T18:55:22Z</time>
      </trkpt>
      <trkpt lat="50.48584" lon="1.60996">
        <ele>7.9</ele>
        <time>2020-06-18T18:55:23Z</time>
      </trkpt>
      <trkpt lat="50.48584" lon="1.60986">
        <ele>8</ele>
        <time>2020-06-18T18:55:24Z</time>
      </trkpt>
      <trkpt lat="50.48586" lon="1.60975">
        <ele>8.1</ele>
        <time>2020-06-18T18:55:25Z</time>
      </trkpt>
      <trkpt lat="50.48588" lon="1.60963">
        <ele>8.2</ele>
        <time>2020-06-18T18:55:26Z</time>
      </trkpt>
      <trkpt lat="50.48592" lon="1.60954">
        <ele>8.3</ele>
        <time>2020-06-18T18:55:27Z</time>
      </trkpt>
      <trkpt lat="50.48598" lon="1.60946">
        <ele>8.5</ele>
        <time>2020-06-18T18:55:28Z</time>
      </trkpt>
      <trkpt lat="50.48603" lon="1.60939">
        <ele>8.6</ele>
        <time>2020-06-18T18:55:29Z</time>
      </trkpt>
      <trkpt lat="50.48608" lon="1.60932">
        <ele>9</ele>
        <time>2020-06-18T18:55:30Z</time>
      </trkpt>
      <trkpt lat="50.48614" lon="1.60925">
        <ele>9.1</ele>
        <time>2020-06-18T18:55:31Z</time>
      </trkpt>
      <trkpt lat="50.48619" lon="1.6092">
        <ele>9.2</ele>
        <time>2020-06-18T18:55:32Z</time>
      </trkpt>
      <trkpt lat="50.48624" lon="1.60914">
        <ele>9.3</ele>
        <time>2020-06-18T18:55:33Z</time>
      </trkpt>
      <trkpt lat="50.48629" lon="1.60907">
        <ele>9.3</ele>
        <time>2020-06-18T18:55:34Z</time>
      </trkpt>
      <trkpt lat="50.48634" lon="1.609">
        <ele>9.4</ele>
        <time>2020-06-18T18:55:35Z</time>
      </trkpt>
      <trkpt lat="50.4864" lon="1.60894">
        <ele>9.4</ele>
        <time>2020-06-18T18:55:36Z</time>
      </trkpt>
      <trkpt lat="50.48645" lon="1.60888">
        <ele>9.5</ele>
        <time>2020-06-18T18:55:37Z</time>
      </trkpt>
      <trkpt lat="50.4865" lon="1.6088">
        <ele>9.6</ele>
        <time>2020-06-18T18:55:38Z</time>
      </trkpt>
      <trkpt lat="50.48656" lon="1.60874">
        <ele>9.7</ele>
        <time>2020-06-18T18:55:39Z</time>
      </trkpt>
      <trkpt lat="50.48662" lon="1.60867">
        <ele>9.8</ele>
        <time>2020-06-18T18:55:40Z</time>
      </trkpt>
      <trkpt lat="50.48666" lon="1.6086">
        <ele>9.9</ele>
        <time>2020-06-18T18:55:41Z</time>
      </trkpt>
      <trkpt lat="50.48671" lon="1.60853">
        <ele>10</ele>
        <time>2020-06-18T18:55:42Z</time>
      </trkpt>
      <trkpt lat="50.48677" lon="1.60846">
        <ele>10.1</ele>
        <time>2020-06-18T18:55:43Z</time>
      </trkpt>
      <trkpt lat="50.48681" lon="1.6084">
        <ele>10.2</ele>
        <time>2020-06-18T18:55:44Z</time>
      </trkpt>
      <trkpt lat="50.48686" lon="1.60832">
        <ele>10.3</ele>
        <time>2020-06-18T18:55:45Z</time>
      </trkpt>
      <trkpt lat="50.48691" lon="1.60826">
        <ele>10.4</ele>
        <time>2020-06-18T18:55:46Z</time>
      </trkpt>
      <trkpt lat="50.48695" lon="1.6082">
        <ele>10.5</ele>
        <time>2020-06-18T18:55:47Z</time>
      </trkpt>
      <trkpt lat="50.487" lon="1.60813">
        <ele>10.7</ele>
        <time>2020-06-18T18:55:48Z</time>
      </trkpt>
      <trkpt lat="50.48704" lon="1.60807">
        <ele>10.8</ele>
        <time>2020-06-18T18:55:49Z</time>
      </trkpt>
      <trkpt lat="50.48708" lon="1.60801">
        <ele>11</ele>
        <time>2020-06-18T18:55:50Z</time>
      </trkpt>
      <trkpt lat="50.48713" lon="1.60794">
        <ele>11.1</ele>
        <time>2020-06-18T18:55:51Z</time>
      </trkpt>
      <trkpt lat="50.48717" lon="1.60788">
        <ele>11.2</ele>
        <time>2020-06-18T18:55:52Z</time>
      </trkpt>
      <trkpt lat="50.48722" lon="1.60783">
        <ele>11.3</ele>
        <time>2020-06-18T18:55:53Z</time>
      </trkpt>
      <trkpt lat="50.48727" lon="1.60781">
        <ele>11.4</ele>
        <time>2020-06-18T18:55:54Z</time>
      </trkpt>
      <trkpt lat="50.48731" lon="1.60778">
        <ele>11.5</ele>
        <time>2020-06-18T18:55:55Z</time>
      </trkpt>
      <trkpt lat="50.48735" lon="1.60776">
        <ele>11.6</ele>
        <time>2020-06-18T18:55:56Z</time>
      </trkpt>
      <trkpt lat="50.48742" lon="1.60776">
        <ele>11.7</ele>
        <time>2020-06-18T18:55:57Z</time>
      </trkpt>
      <trkpt lat="50.48747" lon="1.60774">
        <ele>11.7</ele>
        <time>2020-06-18T18:55:58Z</time>
      </trkpt>
      <trkpt lat="50.48752" lon="1.60773">
        <ele>11.8</ele>
        <time>2020-06-18T18:55:59Z</time>
      </trkpt>
      <trkpt lat="50.48757" lon="1.60773">
        <ele>11.9</ele>
        <time>2020-06-18T18:56:00Z</time>
      </trkpt>
      <trkpt lat="50.48763" lon="1.60775">
        <ele>12</ele>
        <time>2020-06-18T18:56:01Z</time>
      </trkpt>
      <trkpt lat="50.48769" lon="1.60776">
        <ele>12.1</ele>
        <time>2020-06-18T18:56:02Z</time>
      </trkpt>
      <trkpt lat="50.48776" lon="1.60778">
        <ele>12.2</ele>
        <time>2020-06-18T18:56:03Z</time>
      </trkpt>
      <trkpt lat="50.48782" lon="1.60779">
        <ele>12.3</ele>
        <time>2020-06-18T18:56:04Z</time>
      </trkpt>
      <trkpt lat="50.48788" lon="1.6078">
        <ele>12.4</ele>
        <time>2020-06-18T18:56:05Z</time>
      </trkpt>
      <trkpt lat="50.48794" lon="1.60781">
        <ele>12.5</ele>
        <time>2020-06-18T18:56:06Z</time>
      </trkpt>
      <trkpt lat="50.48801" lon="1.60782">
        <ele>12.7</ele>
        <time>2020-06-18T18:56:07Z</time>
      </trkpt>
      <trkpt lat="50.48807" lon="1.60784">
        <ele>12.8</ele>
        <time>2020-06-18T18:56:08Z</time>
      </trkpt>
      <trkpt lat="50.48813" lon="1.60786">
        <ele>13</ele>
        <time>2020-06-18T18:56:09Z</time>
      </trkpt>
      <trkpt lat="50.4882" lon="1.60787">
        <ele>13.1</ele>
        <time>2020-06-18T18:56:10Z</time>
      </trkpt>
      <trkpt lat="50.48825" lon="1.60789">
        <ele>13.1</ele>
        <time>2020-06-18T18:56:11Z</time>
      </trkpt>
      <trkpt lat="50.4883" lon="1.60791">
        <ele>13.2</ele>
        <time>2020-06-18T18:56:12Z</time>
      </trkpt>
      <trkpt lat="50.48836" lon="1.60792">
        <ele>13.2</ele>
        <time>2020-06-18T18:56:13Z</time>
      </trkpt>
      <trkpt lat="50.48842" lon="1.60791">
        <ele>13.3</ele>
        <time>2020-06-18T18:56:14Z</time>
      </trkpt>
      <trkpt lat="50.48848" lon="1.6079">
        <ele>13.4</ele>
        <time>2020-06-18T18:56:15Z</time>
      </trkpt>
      <trkpt lat="50.48854" lon="1.60787">
        <ele>13.4</ele>
        <time>2020-06-18T18:56:16Z</time>
      </trkpt>
      <trkpt lat="50.4886" lon="1.60784">
        <ele>13.5</ele>
        <time>2020-06-18T18:56:17Z</time>
      </trkpt>
      <trkpt lat="50.48868" lon="1.6078">
        <ele>13.7</ele>
        <time>2020-06-18T18:56:18Z</time>
      </trkpt>
      <trkpt lat="50.48875" lon="1.60776">
        <ele>13.8</ele>
        <time>2020-06-18T18:56:19Z</time>
      </trkpt>
      <trkpt lat="50.48882" lon="1.60771">
        <ele>13.9</ele>
        <time>2020-06-18T18:56:20Z</time>
      </trkpt>
      <trkpt lat="50.48888" lon="1.60767">
        <ele>14</ele>
        <time>2020-06-18T18:56:21Z</time>
      </trkpt>
      <trkpt lat="50.48894" lon="1.60761">
        <ele>14.1</ele>
        <time>2020-06-18T18:56:22Z</time>
      </trkpt>
      <trkpt lat="50.48899" lon="1.60755">
        <ele>14.3</ele>
        <time>2020-06-18T18:56:23Z</time>
      </trkpt>
      <trkpt lat="50.48904" lon="1.60747">
        <ele>14.4</ele>
        <time>2020-06-18T18:56:24Z</time>
      </trkpt>
      <trkpt lat="50.48908" lon="1.6074">
        <ele>14.6</ele>
        <time>2020-06-18T18:56:25Z</time>
      </trkpt>
      <trkpt lat="50.48912" lon="1.60733">
        <ele>14.8</ele>
        <time>2020-06-18T18:56:26Z</time>
      </trkpt>
      <trkpt lat="50.48916" lon="1.60726">
        <ele>15</ele>
        <time>2020-06-18T18:56:27Z</time>
      </trkpt>
      <trkpt lat="50.4892" lon="1.60719">
        <ele>15.2</ele>
        <time>2020-06-18T18:56:28Z</time>
      </trkpt>
      <trkpt lat="50.48924" lon="1.60714">
        <ele>15.3</ele>
        <time>2020-06-18T18:56:29Z</time>
      </trkpt>
      <trkpt lat="50.48928" lon="1.60708">
        <ele>15.5</ele>
        <time>2020-06-18T18:56:30Z</time>
      </trkpt>
      <trkpt lat="50.48932" lon="1.60702">
        <ele>15.6</ele>
        <time>2020-06-18T18:56:31Z</time>
      </trkpt>
      <trkpt lat="50.48936" lon="1.60696">
        <ele>15.7</ele>
        <time>2020-06-18T18:56:32Z</time>
      </trkpt>
      <trkpt lat="50.48939" lon="1.6069">
        <ele>15.8</ele>
        <time>2020-06-18T18:56:33Z</time>
      </trkpt>
      <trkpt lat="50.48943" lon="1.60683">
        <ele>16</ele>
        <time>2020-06-18T18:56:34Z</time>
      </trkpt>
      <trkpt lat="50.48948" lon="1.60675">
        <ele>16.1</ele>
        <time>2020-06-18T18:56:35Z</time>
      </trkpt>
      <trkpt lat="50.48952" lon="1.60667">
        <ele>16.3</ele>
        <time>2020-06-18T18:56:36Z</time>
      </trkpt>
      <trkpt lat="50.48957" lon="1.60659">
        <ele>16.2</ele>
        <time>2020-06-18T18:56:37Z</time>
      </trkpt>
      <trkpt lat="50.48961" lon="1.60652">
        <ele>16.1</ele>
        <time>2020-06-18T18:56:38Z</time>
      </trkpt>
      <trkpt lat="50.48966" lon="1.60645">
        <ele>15.9</ele>
        <time>2020-06-18T18:56:39Z</time>
      </trkpt>
      <trkpt lat="50.48971" lon="1.60637">
        <ele>15.8</ele>
        <time>2020-06-18T18:56:40Z</time>
      </trkpt>
      <trkpt lat="50.48975" lon="1.60629">
        <ele>15.7</ele>
        <time>2020-06-18T18:56:41Z</time>
      </trkpt>
      <trkpt lat="50.4898" lon="1.60621">
        <ele>15.6</ele>
        <time>2020-06-18T18:56:42Z</time>
      </trkpt>
      <trkpt lat="50.48984" lon="1.60614">
        <ele>15.5</ele>
        <time>2020-06-18T18:56:43Z</time>
      </trkpt>
      <trkpt lat="50.48989" lon="1.60605">
        <ele>15.3</ele>
        <time>2020-06-18T18:56:44Z</time>
      </trkpt>
      <trkpt lat="50.48993" lon="1.60596">
        <ele>15.2</ele>
        <time>2020-06-18T18:56:45Z</time>
      </trkpt>
      <trkpt lat="50.48998" lon="1.60587">
        <ele>14.9</ele>
        <time>2020-06-18T18:56:46Z</time>
      </trkpt>
      <trkpt lat="50.49003" lon="1.60579">
        <ele>14.9</ele>
        <time>2020-06-18T18:56:47Z</time>
      </trkpt>
      <trkpt lat="50.49008" lon="1.6057">
        <ele>14.7</ele>
        <time>2020-06-18T18:56:48Z</time>
      </trkpt>
      <trkpt lat="50.49013" lon="1.60561">
        <ele>14.5</ele>
        <time>2020-06-18T18:56:49Z</time>
      </trkpt>
      <trkpt lat="50.49018" lon="1.60551">
        <ele>14.3</ele>
        <time>2020-06-18T18:56:50Z</time>
      </trkpt>
      <trkpt lat="50.49023" lon="1.60541">
        <ele>14</ele>
        <time>2020-06-18T18:56:51Z</time>
      </trkpt>
      <trkpt lat="50.49028" lon="1.60531">
        <ele>13.8</ele>
        <time>2020-06-18T18:56:52Z</time>
      </trkpt>
      <trkpt lat="50.49033" lon="1.60521">
        <ele>13.6</ele>
        <time>2020-06-18T18:56:53Z</time>
      </trkpt>
      <trkpt lat="50.49038" lon="1.60509">
        <ele>13.4</ele>
        <time>2020-06-18T18:56:54Z</time>
      </trkpt>
      <trkpt lat="50.49043" lon="1.60497">
        <ele>13.1</ele>
        <time>2020-06-18T18:56:55Z</time>
      </trkpt>
      <trkpt lat="50.49049" lon="1.60486">
        <ele>12.9</ele>
        <time>2020-06-18T18:56:56Z</time>
      </trkpt>
      <trkpt lat="50.49053" lon="1.60474">
        <ele>12.8</ele>
        <time>2020-06-18T18:56:57Z</time>
      </trkpt>
      <trkpt lat="50.49059" lon="1.60463">
        <ele>12.6</ele>
        <time>2020-06-18T18:56:58Z</time>
      </trkpt>
      <trkpt lat="50.49064" lon="1.60451">
        <ele>12.5</ele>
        <time>2020-06-18T18:56:59Z</time>
      </trkpt>
      <trkpt lat="50.4907" lon="1.60439">
        <ele>12.4</ele>
        <time>2020-06-18T18:57:00Z</time>
      </trkpt>
      <trkpt lat="50.49075" lon="1.60428">
        <ele>12.4</ele>
        <time>2020-06-18T18:57:01Z</time>
      </trkpt>
      <trkpt lat="50.4908" lon="1.60416">
        <ele>12.4</ele>
        <time>2020-06-18T18:57:02Z</time>
      </trkpt>
      <trkpt lat="50.49085" lon="1.60404">
        <ele>12.4</ele>
        <time>2020-06-18T18:57:03Z</time>
      </trkpt>
      <trkpt lat="50.4909" lon="1.60393">
        <ele>12.4</ele>
        <time>2020-06-18T18:57:04Z</time>
      </trkpt>
      <trkpt lat="50.49094" lon="1.6038">
        <ele>12.3</ele>
        <time>2020-06-18T18:57:05Z</time>
      </trkpt>
      <trkpt lat="50.49099" lon="1.60367">
        <ele>12.3</ele>
        <time>2020-06-18T18:57:06Z</time>
      </trkpt>
      <trkpt lat="50.49105" lon="1.60356">
        <ele>12.3</ele>
        <time>2020-06-18T18:57:07Z</time>
      </trkpt>
      <trkpt lat="50.49109" lon="1.60345">
        <ele>12.3</ele>
        <time>2020-06-18T18:57:08Z</time>
      </trkpt>
      <trkpt lat="50.49115" lon="1.60335">
        <ele>12.3</ele>
        <time>2020-06-18T18:57:09Z</time>
      </trkpt>
      <trkpt lat="50.4912" lon="1.60324">
        <ele>12.3</ele>
        <time>2020-06-18T18:57:10Z</time>
      </trkpt>
      <trkpt lat="50.49125" lon="1.60314">
        <ele>12.3</ele>
        <time>2020-06-18T18:57:11Z</time>
      </trkpt>
      <trkpt lat="50.4913" lon="1.60304">
        <ele>12.3</ele>
        <time>2020-06-18T18:57:12Z</time>
      </trkpt>
      <trkpt lat="50.49135" lon="1.60294">
        <ele>12.3</ele>
        <time>2020-06-18T18:57:13Z</time>
      </trkpt>
      <trkpt lat="50.49139" lon="1.60283">
        <ele>12.4</ele>
        <time>2020-06-18T18:57:14Z</time>
      </trkpt>
      <trkpt lat="50.49143" lon="1.60272">
        <ele>12.4</ele>
        <time>2020-06-18T18:57:15Z</time>
      </trkpt>
      <trkpt lat="50.49147" lon="1.60262">
        <ele>12.4</ele>
        <time>2020-06-18T18:57:16Z</time>
      </trkpt>
      <trkpt lat="50.49152" lon="1.60251">
        <ele>12.4</ele>
        <time>2020-06-18T18:57:17Z</time>
      </trkpt>
      <trkpt lat="50.49156" lon="1.60241">
        <ele>12.5</ele>
        <time>2020-06-18T18:57:18Z</time>
      </trkpt>
      <trkpt lat="50.49161" lon="1.6023">
        <ele>12.5</ele>
        <time>2020-06-18T18:57:19Z</time>
      </trkpt>
      <trkpt lat="50.49165" lon="1.6022">
        <ele>12.5</ele>
        <time>2020-06-18T18:57:20Z</time>
      </trkpt>
      <trkpt lat="50.49171" lon="1.6021">
        <ele>12.5</ele>
        <time>2020-06-18T18:57:21Z</time>
      </trkpt>
      <trkpt lat="50.49176" lon="1.60201">
        <ele>12.5</ele>
        <time>2020-06-18T18:57:22Z</time>
      </trkpt>
      <trkpt lat="50.49181" lon="1.60191">
        <ele>12.5</ele>
        <time>2020-06-18T18:57:23Z</time>
      </trkpt>
      <trkpt lat="50.49185" lon="1.60181">
        <ele>12.5</ele>
        <time>2020-06-18T18:57:24Z</time>
      </trkpt>
      <trkpt lat="50.4919" lon="1.60171">
        <ele>12.5</ele>
        <time>2020-06-18T18:57:25Z</time>
      </trkpt>
      <trkpt lat="50.49194" lon="1.60161">
        <ele>12.5</ele>
        <time>2020-06-18T18:57:26Z</time>
      </trkpt>
      <trkpt lat="50.49198" lon="1.60152">
        <ele>12.5</ele>
        <time>2020-06-18T18:57:27Z</time>
      </trkpt>
      <trkpt lat="50.49203" lon="1.60143">
        <ele>12.5</ele>
        <time>2020-06-18T18:57:28Z</time>
      </trkpt>
      <trkpt lat="50.49207" lon="1.60133">
        <ele>12.5</ele>
        <time>2020-06-18T18:57:29Z</time>
      </trkpt>
      <trkpt lat="50.49212" lon="1.60123">
        <ele>12.4</ele>
        <time>2020-06-18T18:57:30Z</time>
      </trkpt>
      <trkpt lat="50.49216" lon="1.60113">
        <ele>12.4</ele>
        <time>2020-06-18T18:57:31Z</time>
      </trkpt>
      <trkpt lat="50.49221" lon="1.60103">
        <ele>12.4</ele>
        <time>2020-06-18T18:57:32Z</time>
      </trkpt>
      <trkpt lat="50.49226" lon="1.60093">
        <ele>12.4</ele>
        <time>2020-06-18T18:57:33Z</time>
      </trkpt>
      <trkpt lat="50.49231" lon="1.60085">
        <ele>12.4</ele>
        <time>2020-06-18T18:57:34Z</time>
      </trkpt>
      <trkpt lat="50.49235" lon="1.60075">
        <ele>12.5</ele>
        <time>2020-06-18T18:57:35Z</time>
      </trkpt>
      <trkpt lat="50.49239" lon="1.60064">
        <ele>12.5</ele>
        <time>2020-06-18T18:57:36Z</time>
      </trkpt>
      <trkpt lat="50.49244" lon="1.60054">
        <ele>12.6</ele>
        <time>2020-06-18T18:57:37Z</time>
      </trkpt>
      <trkpt lat="50.49248" lon="1.60044">
        <ele>12.6</ele>
        <time>2020-06-18T18:57:38Z</time>
      </trkpt>
      <trkpt lat="50.49252" lon="1.60035">
        <ele>12.6</ele>
        <time>2020-06-18T18:57:39Z</time>
      </trkpt>
      <trkpt lat="50.49257" lon="1.60025">
        <ele>12.6</ele>
        <time>2020-06-18T18:57:40Z</time>
      </trkpt>
      <trkpt lat="50.49261" lon="1.60016">
        <ele>12.6</ele>
        <time>2020-06-18T18:57:41Z</time>
      </trkpt>
      <trkpt lat="50.49266" lon="1.60006">
        <ele>12.7</ele>
        <time>2020-06-18T18:57:42Z</time>
      </trkpt>
      <trkpt lat="50.4927" lon="1.59996">
        <ele>12.7</ele>
        <time>2020-06-18T18:57:43Z</time>
      </trkpt>
      <trkpt lat="50.49275" lon="1.59986">
        <ele>12.7</ele>
        <time>2020-06-18T18:57:44Z</time>
      </trkpt>
      <trkpt lat="50.49279" lon="1.59977">
        <ele>12.7</ele>
        <time>2020-06-18T18:57:45Z</time>
      </trkpt>
      <trkpt lat="50.49283" lon="1.59967">
        <ele>12.7</ele>
        <time>2020-06-18T18:57:46Z</time>
      </trkpt>
      <trkpt lat="50.49288" lon="1.59957">
        <ele>12.7</ele>
        <time>2020-06-18T18:57:47Z</time>
      </trkpt>
      <trkpt lat="50.49293" lon="1.59948">
        <ele>12.7</ele>
        <time>2020-06-18T18:57:48Z</time>
      </trkpt>
      <trkpt lat="50.49297" lon="1.59939">
        <ele>12.7</ele>
        <time>2020-06-18T18:57:49Z</time>
      </trkpt>
      <trkpt lat="50.49302" lon="1.59929">
        <ele>12.8</ele>
        <time>2020-06-18T18:57:50Z</time>
      </trkpt>
      <trkpt lat="50.49306" lon="1.59919">
        <ele>12.8</ele>
        <time>2020-06-18T18:57:51Z</time>
      </trkpt>
      <trkpt lat="50.4931" lon="1.59909">
        <ele>12.8</ele>
        <time>2020-06-18T18:57:52Z</time>
      </trkpt>
      <trkpt lat="50.49314" lon="1.59899">
        <ele>12.8</ele>
        <time>2020-06-18T18:57:53Z</time>
      </trkpt>
      <trkpt lat="50.49319" lon="1.5989">
        <ele>12.8</ele>
        <time>2020-06-18T18:57:54Z</time>
      </trkpt>
      <trkpt lat="50.49323" lon="1.59881">
        <ele>12.8</ele>
        <time>2020-06-18T18:57:55Z</time>
      </trkpt>
      <trkpt lat="50.49327" lon="1.59871">
        <ele>12.9</ele>
        <time>2020-06-18T18:57:56Z</time>
      </trkpt>
      <trkpt lat="50.49331" lon="1.59862">
        <ele>12.9</ele>
        <time>2020-06-18T18:57:57Z</time>
      </trkpt>
      <trkpt lat="50.49336" lon="1.59854">
        <ele>12.9</ele>
        <time>2020-06-18T18:57:58Z</time>
      </trkpt>
      <trkpt lat="50.49341" lon="1.59845">
        <ele>13</ele>
        <time>2020-06-18T18:57:59Z</time>
      </trkpt>
      <trkpt lat="50.49345" lon="1.59836">
        <ele>13</ele>
        <time>2020-06-18T18:58:00Z</time>
      </trkpt>
      <trkpt lat="50.4935" lon="1.59827">
        <ele>13</ele>
        <time>2020-06-18T18:58:01Z</time>
      </trkpt>
      <trkpt lat="50.49355" lon="1.59817">
        <ele>12.9</ele>
        <time>2020-06-18T18:58:02Z</time>
      </trkpt>
      <trkpt lat="50.4936" lon="1.59808">
        <ele>12.9</ele>
        <time>2020-06-18T18:58:03Z</time>
      </trkpt>
      <trkpt lat="50.49365" lon="1.59799">
        <ele>12.9</ele>
        <time>2020-06-18T18:58:04Z</time>
      </trkpt>
      <trkpt lat="50.49369" lon="1.5979">
        <ele>12.9</ele>
        <time>2020-06-18T18:58:05Z</time>
      </trkpt>
      <trkpt lat="50.49373" lon="1.5978">
        <ele>12.9</ele>
        <time>2020-06-18T18:58:06Z</time>
      </trkpt>
      <trkpt lat="50.49378" lon="1.59771">
        <ele>12.9</ele>
        <time>2020-06-18T18:58:07Z</time>
      </trkpt>
      <trkpt lat="50.49382" lon="1.59762">
        <ele>12.9</ele>
        <time>2020-06-18T18:58:08Z</time>
      </trkpt>
      <trkpt lat="50.49387" lon="1.59752">
        <ele>12.9</ele>
        <time>2020-06-18T18:58:09Z</time>
      </trkpt>
      <trkpt lat="50.49391" lon="1.59743">
        <ele>12.9</ele>
        <time>2020-06-18T18:58:10Z</time>
      </trkpt>
      <trkpt lat="50.49396" lon="1.59734">
        <ele>13</ele>
        <time>2020-06-18T18:58:11Z</time>
      </trkpt>
      <trkpt lat="50.49401" lon="1.59726">
        <ele>13</ele>
        <time>2020-06-18T18:58:12Z</time>
      </trkpt>
      <trkpt lat="50.49405" lon="1.59716">
        <ele>13</ele>
        <time>2020-06-18T18:58:13Z</time>
      </trkpt>
      <trkpt lat="50.4941" lon="1.59706">
        <ele>13</ele>
        <time>2020-06-18T18:58:14Z</time>
      </trkpt>
      <trkpt lat="50.49414" lon="1.59697">
        <ele>13.1</ele>
        <time>2020-06-18T18:58:15Z</time>
      </trkpt>
      <trkpt lat="50.49419" lon="1.59687">
        <ele>13.1</ele>
        <time>2020-06-18T18:58:16Z</time>
      </trkpt>
      <trkpt lat="50.49422" lon="1.59677">
        <ele>13.1</ele>
        <time>2020-06-18T18:58:17Z</time>
      </trkpt>
      <trkpt lat="50.49426" lon="1.59667">
        <ele>13.1</ele>
        <time>2020-06-18T18:58:18Z</time>
      </trkpt>
      <trkpt lat="50.4943" lon="1.59658">
        <ele>13.1</ele>
        <time>2020-06-18T18:58:19Z</time>
      </trkpt>
      <trkpt lat="50.49434" lon="1.59649">
        <ele>13.1</ele>
        <time>2020-06-18T18:58:20Z</time>
      </trkpt>
      <trkpt lat="50.49438" lon="1.5964">
        <ele>13.1</ele>
        <time>2020-06-18T18:58:21Z</time>
      </trkpt>
      <trkpt lat="50.49443" lon="1.59631">
        <ele>13.1</ele>
        <time>2020-06-18T18:58:22Z</time>
      </trkpt>
      <trkpt lat="50.49447" lon="1.59621">
        <ele>13.1</ele>
        <time>2020-06-18T18:58:23Z</time>
      </trkpt>
      <trkpt lat="50.4945" lon="1.5961">
        <ele>13.1</ele>
        <time>2020-06-18T18:58:24Z</time>
      </trkpt>
      <trkpt lat="50.49453" lon="1.59599">
        <ele>13.1</ele>
        <time>2020-06-18T18:58:25Z</time>
      </trkpt>
      <trkpt lat="50.49457" lon="1.59588">
        <ele>13.2</ele>
        <time>2020-06-18T18:58:26Z</time>
      </trkpt>
      <trkpt lat="50.49461" lon="1.59577">
        <ele>13.2</ele>
        <time>2020-06-18T18:58:27Z</time>
      </trkpt>
      <trkpt lat="50.49465" lon="1.59567">
        <ele>13.2</ele>
        <time>2020-06-18T18:58:28Z</time>
      </trkpt>
      <trkpt lat="50.49468" lon="1.59555">
        <ele>13.2</ele>
        <time>2020-06-18T18:58:29Z</time>
      </trkpt>
      <trkpt lat="50.49473" lon="1.59544">
        <ele>13.3</ele>
        <time>2020-06-18T18:58:30Z</time>
      </trkpt>
      <trkpt lat="50.49477" lon="1.59534">
        <ele>13.4</ele>
        <time>2020-06-18T18:58:31Z</time>
      </trkpt>
      <trkpt lat="50.49481" lon="1.59523">
        <ele>13.4</ele>
        <time>2020-06-18T18:58:32Z</time>
      </trkpt>
      <trkpt lat="50.49485" lon="1.59512">
        <ele>13.5</ele>
        <time>2020-06-18T18:58:33Z</time>
      </trkpt>
      <trkpt lat="50.49489" lon="1.59501">
        <ele>13.6</ele>
        <time>2020-06-18T18:58:34Z</time>
      </trkpt>
      <trkpt lat="50.49493" lon="1.5949">
        <ele>13.6</ele>
        <time>2020-06-18T18:58:35Z</time>
      </trkpt>
      <trkpt lat="50.49497" lon="1.59479">
        <ele>13.7</ele>
        <time>2020-06-18T18:58:36Z</time>
      </trkpt>
      <trkpt lat="50.49501" lon="1.59469">
        <ele>13.7</ele>
        <time>2020-06-18T18:58:37Z</time>
      </trkpt>
      <trkpt lat="50.49504" lon="1.59458">
        <ele>13.7</ele>
        <time>2020-06-18T18:58:38Z</time>
      </trkpt>
      <trkpt lat="50.49509" lon="1.59448">
        <ele>13.8</ele>
        <time>2020-06-18T18:58:39Z</time>
      </trkpt>
      <trkpt lat="50.49512" lon="1.59438">
        <ele>13.8</ele>
        <time>2020-06-18T18:58:40Z</time>
      </trkpt>
      <trkpt lat="50.49515" lon="1.59427">
        <ele>13.8</ele>
        <time>2020-06-18T18:58:41Z</time>
      </trkpt>
      <trkpt lat="50.49519" lon="1.59417">
        <ele>13.8</ele>
        <time>2020-06-18T18:58:42Z</time>
      </trkpt>
      <trkpt lat="50.49522" lon="1.59407">
        <ele>13.9</ele>
        <time>2020-06-18T18:58:43Z</time>
      </trkpt>
      <trkpt lat="50.49525" lon="1.59396">
        <ele>13.9</ele>
        <time>2020-06-18T18:58:44Z</time>
      </trkpt>
      <trkpt lat="50.49528" lon="1.59386">
        <ele>13.9</ele>
        <time>2020-06-18T18:58:45Z</time>
      </trkpt>
      <trkpt lat="50.49531" lon="1.59375">
        <ele>13.9</ele>
        <time>2020-06-18T18:58:46Z</time>
      </trkpt>
      <trkpt lat="50.49535" lon="1.59364">
        <ele>14</ele>
        <time>2020-06-18T18:58:47Z</time>
      </trkpt>
      <trkpt lat="50.49539" lon="1.59354">
        <ele>14</ele>
        <time>2020-06-18T18:58:48Z</time>
      </trkpt>
      <trkpt lat="50.49543" lon="1.59344">
        <ele>14</ele>
        <time>2020-06-18T18:58:49Z</time>
      </trkpt>
      <trkpt lat="50.49547" lon="1.59335">
        <ele>14</ele>
        <time>2020-06-18T18:58:50Z</time>
      </trkpt>
      <trkpt lat="50.49553" lon="1.59325">
        <ele>14</ele>
        <time>2020-06-18T18:58:51Z</time>
      </trkpt>
      <trkpt lat="50.49557" lon="1.59315">
        <ele>14</ele>
        <time>2020-06-18T18:58:52Z</time>
      </trkpt>
      <trkpt lat="50.49562" lon="1.59306">
        <ele>14</ele>
        <time>2020-06-18T18:58:53Z</time>
      </trkpt>
      <trkpt lat="50.49566" lon="1.59296">
        <ele>14.1</ele>
        <time>2020-06-18T18:58:54Z</time>
      </trkpt>
      <trkpt lat="50.49571" lon="1.59287">
        <ele>14.1</ele>
        <time>2020-06-18T18:58:55Z</time>
      </trkpt>
      <trkpt lat="50.49576" lon="1.59278">
        <ele>14.1</ele>
        <time>2020-06-18T18:58:56Z</time>
      </trkpt>
      <trkpt lat="50.4958" lon="1.59269">
        <ele>14.2</ele>
        <time>2020-06-18T18:58:57Z</time>
      </trkpt>
      <trkpt lat="50.49585" lon="1.59261">
        <ele>14.2</ele>
        <time>2020-06-18T18:58:58Z</time>
      </trkpt>
      <trkpt lat="50.4959" lon="1.59252">
        <ele>14.3</ele>
        <time>2020-06-18T18:58:59Z</time>
      </trkpt>
      <trkpt lat="50.49595" lon="1.59244">
        <ele>14.3</ele>
        <time>2020-06-18T18:59:00Z</time>
      </trkpt>
      <trkpt lat="50.496" lon="1.59236">
        <ele>14.4</ele>
        <time>2020-06-18T18:59:01Z</time>
      </trkpt>
      <trkpt lat="50.49605" lon="1.59228">
        <ele>14.4</ele>
        <time>2020-06-18T18:59:02Z</time>
      </trkpt>
      <trkpt lat="50.4961" lon="1.59221">
        <ele>14.4</ele>
        <time>2020-06-18T18:59:03Z</time>
      </trkpt>
      <trkpt lat="50.49616" lon="1.59212">
        <ele>14.5</ele>
        <time>2020-06-18T18:59:04Z</time>
      </trkpt>
      <trkpt lat="50.49622" lon="1.59204">
        <ele>14.5</ele>
        <time>2020-06-18T18:59:05Z</time>
      </trkpt>
      <trkpt lat="50.49629" lon="1.59198">
        <ele>14.5</ele>
        <time>2020-06-18T18:59:06Z</time>
      </trkpt>
      <trkpt lat="50.49635" lon="1.59192">
        <ele>14.4</ele>
        <time>2020-06-18T18:59:07Z</time>
      </trkpt>
      <trkpt lat="50.49642" lon="1.59188">
        <ele>14.4</ele>
        <time>2020-06-18T18:59:08Z</time>
      </trkpt>
      <trkpt lat="50.49649" lon="1.59183">
        <ele>14.3</ele>
        <time>2020-06-18T18:59:09Z</time>
      </trkpt>
      <trkpt lat="50.49657" lon="1.59179">
        <ele>14.3</ele>
        <time>2020-06-18T18:59:10Z</time>
      </trkpt>
      <trkpt lat="50.49664" lon="1.59173">
        <ele>14.2</ele>
        <time>2020-06-18T18:59:11Z</time>
      </trkpt>
      <trkpt lat="50.49671" lon="1.59169">
        <ele>14.2</ele>
        <time>2020-06-18T18:59:12Z</time>
      </trkpt>
      <trkpt lat="50.49678" lon="1.59166">
        <ele>14.1</ele>
        <time>2020-06-18T18:59:13Z</time>
      </trkpt>
      <trkpt lat="50.49686" lon="1.59163">
        <ele>14.1</ele>
        <time>2020-06-18T18:59:14Z</time>
      </trkpt>
      <trkpt lat="50.49693" lon="1.5916">
        <ele>14.1</ele>
        <time>2020-06-18T18:59:15Z</time>
      </trkpt>
      <trkpt lat="50.497" lon="1.59158">
        <ele>14.1</ele>
        <time>2020-06-18T18:59:16Z</time>
      </trkpt>
      <trkpt lat="50.49707" lon="1.59155">
        <ele>14.2</ele>
        <time>2020-06-18T18:59:17Z</time>
      </trkpt>
      <trkpt lat="50.49715" lon="1.59151">
        <ele>14.2</ele>
        <time>2020-06-18T18:59:18Z</time>
      </trkpt>
      <trkpt lat="50.49722" lon="1.59148">
        <ele>14.3</ele>
        <time>2020-06-18T18:59:19Z</time>
      </trkpt>
      <trkpt lat="50.4973" lon="1.59147">
        <ele>14.5</ele>
        <time>2020-06-18T18:59:20Z</time>
      </trkpt>
      <trkpt lat="50.49737" lon="1.59145">
        <ele>14.6</ele>
        <time>2020-06-18T18:59:21Z</time>
      </trkpt>
      <trkpt lat="50.49744" lon="1.59143">
        <ele>14.6</ele>
        <time>2020-06-18T18:59:22Z</time>
      </trkpt>
      <trkpt lat="50.49751" lon="1.59141">
        <ele>14.7</ele>
        <time>2020-06-18T18:59:23Z</time>
      </trkpt>
      <trkpt lat="50.49758" lon="1.59139">
        <ele>14.8</ele>
        <time>2020-06-18T18:59:24Z</time>
      </trkpt>
      <trkpt lat="50.49765" lon="1.59138">
        <ele>14.8</ele>
        <time>2020-06-18T18:59:25Z</time>
      </trkpt>
      <trkpt lat="50.49772" lon="1.59135">
        <ele>14.8</ele>
        <time>2020-06-18T18:59:26Z</time>
      </trkpt>
      <trkpt lat="50.4978" lon="1.59135">
        <ele>14.8</ele>
        <time>2020-06-18T18:59:27Z</time>
      </trkpt>
      <trkpt lat="50.49788" lon="1.59133">
        <ele>14.8</ele>
        <time>2020-06-18T18:59:28Z</time>
      </trkpt>
      <trkpt lat="50.49796" lon="1.59131">
        <ele>14.8</ele>
        <time>2020-06-18T18:59:29Z</time>
      </trkpt>
      <trkpt lat="50.49803" lon="1.5913">
        <ele>14.7</ele>
        <time>2020-06-18T18:59:30Z</time>
      </trkpt>
      <trkpt lat="50.49811" lon="1.59129">
        <ele>14.6</ele>
        <time>2020-06-18T18:59:31Z</time>
      </trkpt>
      <trkpt lat="50.49819" lon="1.59128">
        <ele>14.5</ele>
        <time>2020-06-18T18:59:32Z</time>
      </trkpt>
      <trkpt lat="50.49827" lon="1.59127">
        <ele>14.3</ele>
        <time>2020-06-18T18:59:33Z</time>
      </trkpt>
      <trkpt lat="50.49835" lon="1.59126">
        <ele>14.2</ele>
        <time>2020-06-18T18:59:34Z</time>
      </trkpt>
      <trkpt lat="50.49843" lon="1.59125">
        <ele>14</ele>
        <time>2020-06-18T18:59:35Z</time>
      </trkpt>
      <trkpt lat="50.49851" lon="1.59124">
        <ele>13.9</ele>
        <time>2020-06-18T18:59:36Z</time>
      </trkpt>
      <trkpt lat="50.49858" lon="1.59124">
        <ele>13.7</ele>
        <time>2020-06-18T18:59:37Z</time>
      </trkpt>
      <trkpt lat="50.49866" lon="1.59125">
        <ele>13.6</ele>
        <time>2020-06-18T18:59:38Z</time>
      </trkpt>
      <trkpt lat="50.49874" lon="1.59126">
        <ele>13.4</ele>
        <time>2020-06-18T18:59:39Z</time>
      </trkpt>
      <trkpt lat="50.49882" lon="1.59127">
        <ele>13.3</ele>
        <time>2020-06-18T18:59:40Z</time>
      </trkpt>
      <trkpt lat="50.4989" lon="1.59127">
        <ele>13.2</ele>
        <time>2020-06-18T18:59:41Z</time>
      </trkpt>
      <trkpt lat="50.49898" lon="1.59129">
        <ele>13.2</ele>
        <time>2020-06-18T18:59:42Z</time>
      </trkpt>
      <trkpt lat="50.49906" lon="1.59131">
        <ele>13.1</ele>
        <time>2020-06-18T18:59:43Z</time>
      </trkpt>
      <trkpt lat="50.49914" lon="1.59135">
        <ele>13.1</ele>
        <time>2020-06-18T18:59:44Z</time>
      </trkpt>
      <trkpt lat="50.49921" lon="1.59139">
        <ele>13.1</ele>
        <time>2020-06-18T18:59:45Z</time>
      </trkpt>
      <trkpt lat="50.49928" lon="1.59144">
        <ele>13.1</ele>
        <time>2020-06-18T18:59:46Z</time>
      </trkpt>
      <trkpt lat="50.49935" lon="1.59149">
        <ele>13.1</ele>
        <time>2020-06-18T18:59:47Z</time>
      </trkpt>
      <trkpt lat="50.49941" lon="1.59154">
        <ele>13.1</ele>
        <time>2020-06-18T18:59:48Z</time>
      </trkpt>
      <trkpt lat="50.49947" lon="1.59159">
        <ele>13.1</ele>
        <time>2020-06-18T18:59:49Z</time>
      </trkpt>
      <trkpt lat="50.49953" lon="1.59165">
        <ele>13.1</ele>
        <time>2020-06-18T18:59:50Z</time>
      </trkpt>
      <trkpt lat="50.49959" lon="1.59171">
        <ele>13</ele>
        <time>2020-06-18T18:59:51Z</time>
      </trkpt>
      <trkpt lat="50.49966" lon="1.59178">
        <ele>13</ele>
        <time>2020-06-18T18:59:52Z</time>
      </trkpt>
      <trkpt lat="50.49973" lon="1.59184">
        <ele>12.9</ele>
        <time>2020-06-18T18:59:53Z</time>
      </trkpt>
      <trkpt lat="50.49979" lon="1.59191">
        <ele>12.9</ele>
        <time>2020-06-18T18:59:54Z</time>
      </trkpt>
      <trkpt lat="50.49985" lon="1.59199">
        <ele>12.8</ele>
        <time>2020-06-18T18:59:55Z</time>
      </trkpt>
      <trkpt lat="50.49991" lon="1.59207">
        <ele>12.8</ele>
        <time>2020-06-18T18:59:56Z</time>
      </trkpt>
      <trkpt lat="50.49997" lon="1.59214">
        <ele>12.8</ele>
        <time>2020-06-18T18:59:57Z</time>
      </trkpt>
      <trkpt lat="50.50003" lon="1.59223">
        <ele>12.8</ele>
        <time>2020-06-18T18:59:58Z</time>
      </trkpt>
      <trkpt lat="50.5001" lon="1.5923">
        <ele>12.8</ele>
        <time>2020-06-18T18:59:59Z</time>
      </trkpt>
      <trkpt lat="50.50016" lon="1.59237">
        <ele>12.8</ele>
        <time>2020-06-18T19:00:00Z</time>
      </trkpt>
      <trkpt lat="50.50023" lon="1.59244">
        <ele>12.8</ele>
        <time>2020-06-18T19:00:01Z</time>
      </trkpt>
      <trkpt lat="50.50029" lon="1.59253">
        <ele>12.9</ele>
        <time>2020-06-18T19:00:02Z</time>
      </trkpt>
      <trkpt lat="50.50036" lon="1.5926">
        <ele>12.9</ele>
        <time>2020-06-18T19:00:03Z</time>
      </trkpt>
      <trkpt lat="50.50042" lon="1.59269">
        <ele>12.9</ele>
        <time>2020-06-18T19:00:04Z</time>
      </trkpt>
      <trkpt lat="50.50049" lon="1.59276">
        <ele>12.9</ele>
        <time>2020-06-18T19:00:05Z</time>
      </trkpt>
      <trkpt lat="50.50054" lon="1.59287">
        <ele>13</ele>
        <time>2020-06-18T19:00:06Z</time>
      </trkpt>
      <trkpt lat="50.50059" lon="1.59297">
        <ele>13</ele>
        <time>2020-06-18T19:00:07Z</time>
      </trkpt>
      <trkpt lat="50.50064" lon="1.59306">
        <ele>13.1</ele>
        <time>2020-06-18T19:00:08Z</time>
      </trkpt>
      <trkpt lat="50.50069" lon="1.59314">
        <ele>13.1</ele>
        <time>2020-06-18T19:00:09Z</time>
      </trkpt>
      <trkpt lat="50.50074" lon="1.59322">
        <ele>13.2</ele>
        <time>2020-06-18T19:00:10Z</time>
      </trkpt>
      <trkpt lat="50.50079" lon="1.59331">
        <ele>13.2</ele>
        <time>2020-06-18T19:00:11Z</time>
      </trkpt>
      <trkpt lat="50.50083" lon="1.59339">
        <ele>13.4</ele>
        <time>2020-06-18T19:00:12Z</time>
      </trkpt>
      <trkpt lat="50.50089" lon="1.59339">
        <ele>13.4</ele>
        <time>2020-06-18T19:00:13Z</time>
      </trkpt>
      <trkpt lat="50.50095" lon="1.59339">
        <ele>13.7</ele>
        <time>2020-06-18T19:00:14Z</time>
      </trkpt>
      <trkpt lat="50.501" lon="1.59332">
        <ele>13.7</ele>
        <time>2020-06-18T19:00:15Z</time>
      </trkpt>
      <trkpt lat="50.50106" lon="1.59328">
        <ele>13.7</ele>
        <time>2020-06-18T19:00:16Z</time>
      </trkpt>
      <trkpt lat="50.50112" lon="1.59323">
        <ele>13.7</ele>
        <time>2020-06-18T19:00:17Z</time>
      </trkpt>
      <trkpt lat="50.50117" lon="1.59318">
        <ele>13.5</ele>
        <time>2020-06-18T19:00:18Z</time>
      </trkpt>
      <trkpt lat="50.50124" lon="1.59313">
        <ele>13.3</ele>
        <time>2020-06-18T19:00:19Z</time>
      </trkpt>
      <trkpt lat="50.50131" lon="1.59309">
        <ele>13.2</ele>
        <time>2020-06-18T19:00:20Z</time>
      </trkpt>
      <trkpt lat="50.50138" lon="1.59308">
        <ele>13.1</ele>
        <time>2020-06-18T19:00:21Z</time>
      </trkpt>
      <trkpt lat="50.50145" lon="1.59305">
        <ele>13.1</ele>
        <time>2020-06-18T19:00:22Z</time>
      </trkpt>
      <trkpt lat="50.50152" lon="1.59304">
        <ele>13</ele>
        <time>2020-06-18T19:00:23Z</time>
      </trkpt>
      <trkpt lat="50.50159" lon="1.59302">
        <ele>12.9</ele>
        <time>2020-06-18T19:00:24Z</time>
      </trkpt>
      <trkpt lat="50.50166" lon="1.59301">
        <ele>12.9</ele>
        <time>2020-06-18T19:00:25Z</time>
      </trkpt>
      <trkpt lat="50.50173" lon="1.593">
        <ele>12.9</ele>
        <time>2020-06-18T19:00:26Z</time>
      </trkpt>
      <trkpt lat="50.5018" lon="1.59298">
        <ele>12.8</ele>
        <time>2020-06-18T19:00:27Z</time>
      </trkpt>
      <trkpt lat="50.50188" lon="1.59296">
        <ele>12.8</ele>
        <time>2020-06-18T19:00:28Z</time>
      </trkpt>
      <trkpt lat="50.50195" lon="1.59294">
        <ele>12.7</ele>
        <time>2020-06-18T19:00:29Z</time>
      </trkpt>
      <trkpt lat="50.50202" lon="1.59291">
        <ele>12.7</ele>
        <time>2020-06-18T19:00:30Z</time>
      </trkpt>
      <trkpt lat="50.50209" lon="1.59289">
        <ele>12.7</ele>
        <time>2020-06-18T19:00:31Z</time>
      </trkpt>
      <trkpt lat="50.50216" lon="1.59286">
        <ele>12.7</ele>
        <time>2020-06-18T19:00:32Z</time>
      </trkpt>
      <trkpt lat="50.50223" lon="1.59284">
        <ele>12.7</ele>
        <time>2020-06-18T19:00:33Z</time>
      </trkpt>
      <trkpt lat="50.5023" lon="1.59282">
        <ele>12.8</ele>
        <time>2020-06-18T19:00:34Z</time>
      </trkpt>
      <trkpt lat="50.50238" lon="1.5928">
        <ele>12.8</ele>
        <time>2020-06-18T19:00:35Z</time>
      </trkpt>
      <trkpt lat="50.50246" lon="1.59278">
        <ele>12.7</ele>
        <time>2020-06-18T19:00:36Z</time>
      </trkpt>
      <trkpt lat="50.50253" lon="1.59276">
        <ele>12.7</ele>
        <time>2020-06-18T19:00:37Z</time>
      </trkpt>
      <trkpt lat="50.50261" lon="1.59274">
        <ele>12.7</ele>
        <time>2020-06-18T19:00:38Z</time>
      </trkpt>
      <trkpt lat="50.50268" lon="1.59272">
        <ele>12.7</ele>
        <time>2020-06-18T19:00:39Z</time>
      </trkpt>
      <trkpt lat="50.50275" lon="1.5927">
        <ele>12.8</ele>
        <time>2020-06-18T19:00:40Z</time>
      </trkpt>
      <trkpt lat="50.50283" lon="1.59268">
        <ele>12.8</ele>
        <time>2020-06-18T19:00:41Z</time>
      </trkpt>
      <trkpt lat="50.50291" lon="1.59266">
        <ele>12.8</ele>
        <time>2020-06-18T19:00:42Z</time>
      </trkpt>
      <trkpt lat="50.50299" lon="1.59266">
        <ele>12.9</ele>
        <time>2020-06-18T19:00:43Z</time>
      </trkpt>
      <trkpt lat="50.50307" lon="1.59266">
        <ele>12.9</ele>
        <time>2020-06-18T19:00:44Z</time>
      </trkpt>
      <trkpt lat="50.50316" lon="1.59265">
        <ele>12.9</ele>
        <time>2020-06-18T19:00:45Z</time>
      </trkpt>
      <trkpt lat="50.50324" lon="1.59263">
        <ele>12.8</ele>
        <time>2020-06-18T19:00:46Z</time>
      </trkpt>
      <trkpt lat="50.50332" lon="1.59262">
        <ele>12.8</ele>
        <time>2020-06-18T19:00:47Z</time>
      </trkpt>
      <trkpt lat="50.5034" lon="1.59262">
        <ele>12.8</ele>
        <time>2020-06-18T19:00:48Z</time>
      </trkpt>
      <trkpt lat="50.50348" lon="1.59261">
        <ele>12.8</ele>
        <time>2020-06-18T19:00:49Z</time>
      </trkpt>
      <trkpt lat="50.50356" lon="1.5926">
        <ele>12.8</ele>
        <time>2020-06-18T19:00:50Z</time>
      </trkpt>
      <trkpt lat="50.50364" lon="1.59259">
        <ele>12.7</ele>
        <time>2020-06-18T19:00:51Z</time>
      </trkpt>
      <trkpt lat="50.50372" lon="1.59257">
        <ele>12.7</ele>
        <time>2020-06-18T19:00:52Z</time>
      </trkpt>
      <trkpt lat="50.50381" lon="1.59254">
        <ele>12.6</ele>
        <time>2020-06-18T19:00:53Z</time>
      </trkpt>
      <trkpt lat="50.50389" lon="1.59253">
        <ele>12.5</ele>
        <time>2020-06-18T19:00:54Z</time>
      </trkpt>
      <trkpt lat="50.50398" lon="1.59251">
        <ele>12.5</ele>
        <time>2020-06-18T19:00:55Z</time>
      </trkpt>
      <trkpt lat="50.50406" lon="1.5925">
        <ele>12.4</ele>
        <time>2020-06-18T19:00:56Z</time>
      </trkpt>
      <trkpt lat="50.50414" lon="1.59248">
        <ele>12.4</ele>
        <time>2020-06-18T19:00:57Z</time>
      </trkpt>
      <trkpt lat="50.50422" lon="1.59246">
        <ele>12.4</ele>
        <time>2020-06-18T19:00:58Z</time>
      </trkpt>
      <trkpt lat="50.5043" lon="1.59245">
        <ele>12.4</ele>
        <time>2020-06-18T19:00:59Z</time>
      </trkpt>
      <trkpt lat="50.50438" lon="1.59244">
        <ele>12.4</ele>
        <time>2020-06-18T19:01:00Z</time>
      </trkpt>
      <trkpt lat="50.50446" lon="1.59242">
        <ele>12.4</ele>
        <time>2020-06-18T19:01:01Z</time>
      </trkpt>
      <trkpt lat="50.50454" lon="1.59241">
        <ele>12.4</ele>
        <time>2020-06-18T19:01:02Z</time>
      </trkpt>
      <trkpt lat="50.50461" lon="1.59241">
        <ele>12.4</ele>
        <time>2020-06-18T19:01:03Z</time>
      </trkpt>
      <trkpt lat="50.50469" lon="1.5924">
        <ele>12.3</ele>
        <time>2020-06-18T19:01:04Z</time>
      </trkpt>
      <trkpt lat="50.50478" lon="1.59238">
        <ele>12.3</ele>
        <time>2020-06-18T19:01:05Z</time>
      </trkpt>
      <trkpt lat="50.50486" lon="1.59236">
        <ele>12.2</ele>
        <time>2020-06-18T19:01:06Z</time>
      </trkpt>
      <trkpt lat="50.50494" lon="1.59236">
        <ele>12.3</ele>
        <time>2020-06-18T19:01:07Z</time>
      </trkpt>
      <trkpt lat="50.50502" lon="1.59235">
        <ele>12.3</ele>
        <time>2020-06-18T19:01:08Z</time>
      </trkpt>
      <trkpt lat="50.5051" lon="1.59233">
        <ele>12.3</ele>
        <time>2020-06-18T19:01:09Z</time>
      </trkpt>
      <trkpt lat="50.50518" lon="1.59233">
        <ele>12.3</ele>
        <time>2020-06-18T19:01:10Z</time>
      </trkpt>
      <trkpt lat="50.50526" lon="1.59232">
        <ele>12.3</ele>
        <time>2020-06-18T19:01:11Z</time>
      </trkpt>
      <trkpt lat="50.50534" lon="1.59231">
        <ele>12.4</ele>
        <time>2020-06-18T19:01:12Z</time>
      </trkpt>
      <trkpt lat="50.50542" lon="1.59229">
        <ele>12.4</ele>
        <time>2020-06-18T19:01:13Z</time>
      </trkpt>
      <trkpt lat="50.5055" lon="1.59228">
        <ele>12.4</ele>
        <time>2020-06-18T19:01:14Z</time>
      </trkpt>
      <trkpt lat="50.50558" lon="1.59227">
        <ele>12.4</ele>
        <time>2020-06-18T19:01:15Z</time>
      </trkpt>
      <trkpt lat="50.50566" lon="1.59227">
        <ele>12.4</ele>
        <time>2020-06-18T19:01:16Z</time>
      </trkpt>
      <trkpt lat="50.50574" lon="1.59226">
        <ele>12.4</ele>
        <time>2020-06-18T19:01:17Z</time>
      </trkpt>
      <trkpt lat="50.50581" lon="1.59224">
        <ele>12.5</ele>
        <time>2020-06-18T19:01:18Z</time>
      </trkpt>
      <trkpt lat="50.50589" lon="1.59223">
        <ele>12.5</ele>
        <time>2020-06-18T19:01:19Z</time>
      </trkpt>
      <trkpt lat="50.50597" lon="1.59222">
        <ele>12.4</ele>
        <time>2020-06-18T19:01:20Z</time>
      </trkpt>
      <trkpt lat="50.50606" lon="1.59218">
        <ele>12.4</ele>
        <time>2020-06-18T19:01:21Z</time>
      </trkpt>
      <trkpt lat="50.50614" lon="1.59217">
        <ele>12.3</ele>
        <time>2020-06-18T19:01:22Z</time>
      </trkpt>
      <trkpt lat="50.50622" lon="1.59216">
        <ele>12.3</ele>
        <time>2020-06-18T19:01:23Z</time>
      </trkpt>
      <trkpt lat="50.5063" lon="1.59215">
        <ele>12.3</ele>
        <time>2020-06-18T19:01:24Z</time>
      </trkpt>
      <trkpt lat="50.50639" lon="1.59214">
        <ele>12.2</ele>
        <time>2020-06-18T19:01:25Z</time>
      </trkpt>
      <trkpt lat="50.50647" lon="1.59214">
        <ele>12.2</ele>
        <time>2020-06-18T19:01:26Z</time>
      </trkpt>
      <trkpt lat="50.50654" lon="1.59213">
        <ele>12.2</ele>
        <time>2020-06-18T19:01:27Z</time>
      </trkpt>
      <trkpt lat="50.50662" lon="1.59214">
        <ele>12.2</ele>
        <time>2020-06-18T19:01:28Z</time>
      </trkpt>
      <trkpt lat="50.5067" lon="1.59213">
        <ele>12.2</ele>
        <time>2020-06-18T19:01:29Z</time>
      </trkpt>
      <trkpt lat="50.50679" lon="1.59212">
        <ele>12.1</ele>
        <time>2020-06-18T19:01:30Z</time>
      </trkpt>
      <trkpt lat="50.50687" lon="1.59212">
        <ele>12.1</ele>
        <time>2020-06-18T19:01:31Z</time>
      </trkpt>
      <trkpt lat="50.50694" lon="1.59211">
        <ele>12.2</ele>
        <time>2020-06-18T19:01:32Z</time>
      </trkpt>
      <trkpt lat="50.50702" lon="1.59209">
        <ele>12.2</ele>
        <time>2020-06-18T19:01:33Z</time>
      </trkpt>
      <trkpt lat="50.5071" lon="1.59207">
        <ele>12.2</ele>
        <time>2020-06-18T19:01:34Z</time>
      </trkpt>
      <trkpt lat="50.50717" lon="1.59202">
        <ele>12.2</ele>
        <time>2020-06-18T19:01:35Z</time>
      </trkpt>
      <trkpt lat="50.50724" lon="1.592">
        <ele>12.1</ele>
        <time>2020-06-18T19:01:36Z</time>
      </trkpt>
      <trkpt lat="50.50732" lon="1.59198">
        <ele>12.1</ele>
        <time>2020-06-18T19:01:37Z</time>
      </trkpt>
      <trkpt lat="50.50739" lon="1.59195">
        <ele>12.1</ele>
        <time>2020-06-18T19:01:38Z</time>
      </trkpt>
      <trkpt lat="50.50746" lon="1.59192">
        <ele>12</ele>
        <time>2020-06-18T19:01:39Z</time>
      </trkpt>
      <trkpt lat="50.50752" lon="1.59187">
        <ele>12</ele>
        <time>2020-06-18T19:01:40Z</time>
      </trkpt>
      <trkpt lat="50.50759" lon="1.59182">
        <ele>12</ele>
        <time>2020-06-18T19:01:41Z</time>
      </trkpt>
      <trkpt lat="50.50767" lon="1.59177">
        <ele>11.9</ele>
        <time>2020-06-18T19:01:42Z</time>
      </trkpt>
      <trkpt lat="50.50773" lon="1.59172">
        <ele>11.9</ele>
        <time>2020-06-18T19:01:43Z</time>
      </trkpt>
      <trkpt lat="50.50781" lon="1.59167">
        <ele>11.8</ele>
        <time>2020-06-18T19:01:44Z</time>
      </trkpt>
      <trkpt lat="50.50788" lon="1.59161">
        <ele>11.7</ele>
        <time>2020-06-18T19:01:45Z</time>
      </trkpt>
      <trkpt lat="50.50794" lon="1.59155">
        <ele>11.6</ele>
        <time>2020-06-18T19:01:46Z</time>
      </trkpt>
      <trkpt lat="50.508" lon="1.59148">
        <ele>11.5</ele>
        <time>2020-06-18T19:01:47Z</time>
      </trkpt>
      <trkpt lat="50.50807" lon="1.5914">
        <ele>11.5</ele>
        <time>2020-06-18T19:01:48Z</time>
      </trkpt>
      <trkpt lat="50.50813" lon="1.59131">
        <ele>11.4</ele>
        <time>2020-06-18T19:01:49Z</time>
      </trkpt>
      <trkpt lat="50.5082" lon="1.59124">
        <ele>11.4</ele>
        <time>2020-06-18T19:01:50Z</time>
      </trkpt>
      <trkpt lat="50.50826" lon="1.59116">
        <ele>11.3</ele>
        <time>2020-06-18T19:01:51Z</time>
      </trkpt>
      <trkpt lat="50.50833" lon="1.59109">
        <ele>11.2</ele>
        <time>2020-06-18T19:01:52Z</time>
      </trkpt>
      <trkpt lat="50.5084" lon="1.59101">
        <ele>11.2</ele>
        <time>2020-06-18T19:01:53Z</time>
      </trkpt>
      <trkpt lat="50.50847" lon="1.59094">
        <ele>11.1</ele>
        <time>2020-06-18T19:01:54Z</time>
      </trkpt>
      <trkpt lat="50.50854" lon="1.59087">
        <ele>11.1</ele>
        <time>2020-06-18T19:01:55Z</time>
      </trkpt>
      <trkpt lat="50.50861" lon="1.5908">
        <ele>11</ele>
        <time>2020-06-18T19:01:56Z</time>
      </trkpt>
      <trkpt lat="50.50868" lon="1.59074">
        <ele>11</ele>
        <time>2020-06-18T19:01:57Z</time>
      </trkpt>
      <trkpt lat="50.50877" lon="1.59068">
        <ele>10.9</ele>
        <time>2020-06-18T19:01:58Z</time>
      </trkpt>
      <trkpt lat="50.50885" lon="1.59062">
        <ele>10.9</ele>
        <time>2020-06-18T19:01:59Z</time>
      </trkpt>
      <trkpt lat="50.50893" lon="1.59056">
        <ele>10.9</ele>
        <time>2020-06-18T19:02:00Z</time>
      </trkpt>
      <trkpt lat="50.50898" lon="1.59048">
        <ele>10.9</ele>
        <time>2020-06-18T19:02:01Z</time>
      </trkpt>
      <trkpt lat="50.50906" lon="1.59041">
        <ele>11</ele>
        <time>2020-06-18T19:02:02Z</time>
      </trkpt>
      <trkpt lat="50.50912" lon="1.59035">
        <ele>11</ele>
        <time>2020-06-18T19:02:03Z</time>
      </trkpt>
      <trkpt lat="50.50919" lon="1.59027">
        <ele>11</ele>
        <time>2020-06-18T19:02:04Z</time>
      </trkpt>
      <trkpt lat="50.50926" lon="1.59019">
        <ele>11</ele>
        <time>2020-06-18T19:02:05Z</time>
      </trkpt>
      <trkpt lat="50.50933" lon="1.59012">
        <ele>11</ele>
        <time>2020-06-18T19:02:06Z</time>
      </trkpt>
      <trkpt lat="50.50939" lon="1.59005">
        <ele>11</ele>
        <time>2020-06-18T19:02:07Z</time>
      </trkpt>
      <trkpt lat="50.50946" lon="1.58997">
        <ele>11</ele>
        <time>2020-06-18T19:02:08Z</time>
      </trkpt>
      <trkpt lat="50.50952" lon="1.5899">
        <ele>11</ele>
        <time>2020-06-18T19:02:09Z</time>
      </trkpt>
      <trkpt lat="50.50959" lon="1.58983">
        <ele>10.9</ele>
        <time>2020-06-18T19:02:10Z</time>
      </trkpt>
      <trkpt lat="50.50966" lon="1.58978">
        <ele>10.9</ele>
        <time>2020-06-18T19:02:11Z</time>
      </trkpt>
      <trkpt lat="50.50972" lon="1.58971">
        <ele>10.9</ele>
        <time>2020-06-18T19:02:12Z</time>
      </trkpt>
      <trkpt lat="50.50978" lon="1.58964">
        <ele>10.8</ele>
        <time>2020-06-18T19:02:13Z</time>
      </trkpt>
      <trkpt lat="50.50985" lon="1.58957">
        <ele>10.7</ele>
        <time>2020-06-18T19:02:14Z</time>
      </trkpt>
      <trkpt lat="50.50992" lon="1.5895">
        <ele>10.7</ele>
        <time>2020-06-18T19:02:15Z</time>
      </trkpt>
      <trkpt lat="50.50999" lon="1.58944">
        <ele>10.6</ele>
        <time>2020-06-18T19:02:16Z</time>
      </trkpt>
      <trkpt lat="50.51005" lon="1.58938">
        <ele>10.5</ele>
        <time>2020-06-18T19:02:17Z</time>
      </trkpt>
      <trkpt lat="50.51012" lon="1.58931">
        <ele>10.4</ele>
        <time>2020-06-18T19:02:18Z</time>
      </trkpt>
      <trkpt lat="50.51019" lon="1.58925">
        <ele>10.3</ele>
        <time>2020-06-18T19:02:19Z</time>
      </trkpt>
      <trkpt lat="50.51026" lon="1.58918">
        <ele>10.3</ele>
        <time>2020-06-18T19:02:20Z</time>
      </trkpt>
      <trkpt lat="50.51032" lon="1.58912">
        <ele>10.3</ele>
        <time>2020-06-18T19:02:21Z</time>
      </trkpt>
      <trkpt lat="50.51039" lon="1.58906">
        <ele>10.2</ele>
        <time>2020-06-18T19:02:22Z</time>
      </trkpt>
      <trkpt lat="50.51046" lon="1.589">
        <ele>10.2</ele>
        <time>2020-06-18T19:02:23Z</time>
      </trkpt>
      <trkpt lat="50.51053" lon="1.58893">
        <ele>10.1</ele>
        <time>2020-06-18T19:02:24Z</time>
      </trkpt>
      <trkpt lat="50.51059" lon="1.58886">
        <ele>10.1</ele>
        <time>2020-06-18T19:02:25Z</time>
      </trkpt>
      <trkpt lat="50.51066" lon="1.58878">
        <ele>10.1</ele>
        <time>2020-06-18T19:02:26Z</time>
      </trkpt>
      <trkpt lat="50.51072" lon="1.58872">
        <ele>10.2</ele>
        <time>2020-06-18T19:02:27Z</time>
      </trkpt>
      <trkpt lat="50.51078" lon="1.58866">
        <ele>10.2</ele>
        <time>2020-06-18T19:02:28Z</time>
      </trkpt>
      <trkpt lat="50.51084" lon="1.5886">
        <ele>10.3</ele>
        <time>2020-06-18T19:02:29Z</time>
      </trkpt>
      <trkpt lat="50.51091" lon="1.58858">
        <ele>10.3</ele>
        <time>2020-06-18T19:02:30Z</time>
      </trkpt>
      <trkpt lat="50.51097" lon="1.58855">
        <ele>10.3</ele>
        <time>2020-06-18T19:02:31Z</time>
      </trkpt>
      <trkpt lat="50.51101" lon="1.58848">
        <ele>10.3</ele>
        <time>2020-06-18T19:02:32Z</time>
      </trkpt>
      <trkpt lat="50.51105" lon="1.5884">
        <ele>10.4</ele>
        <time>2020-06-18T19:02:33Z</time>
      </trkpt>
      <trkpt lat="50.5111" lon="1.58835">
        <ele>10.5</ele>
        <time>2020-06-18T19:02:34Z</time>
      </trkpt>
      <trkpt lat="50.51115" lon="1.58829">
        <ele>10.5</ele>
        <time>2020-06-18T19:02:35Z</time>
      </trkpt>
      <trkpt lat="50.5112" lon="1.58823">
        <ele>10.6</ele>
        <time>2020-06-18T19:02:36Z</time>
      </trkpt>
      <trkpt lat="50.51125" lon="1.58817">
        <ele>10.6</ele>
        <time>2020-06-18T19:02:37Z</time>
      </trkpt>
      <trkpt lat="50.51131" lon="1.58811">
        <ele>10.7</ele>
        <time>2020-06-18T19:02:38Z</time>
      </trkpt>
      <trkpt lat="50.51136" lon="1.58805">
        <ele>10.8</ele>
        <time>2020-06-18T19:02:39Z</time>
      </trkpt>
      <trkpt lat="50.51142" lon="1.588">
        <ele>10.9</ele>
        <time>2020-06-18T19:02:40Z</time>
      </trkpt>
      <trkpt lat="50.51148" lon="1.58794">
        <ele>11</ele>
        <time>2020-06-18T19:02:41Z</time>
      </trkpt>
      <trkpt lat="50.51155" lon="1.58788">
        <ele>11.2</ele>
        <time>2020-06-18T19:02:42Z</time>
      </trkpt>
      <trkpt lat="50.51161" lon="1.58782">
        <ele>11.3</ele>
        <time>2020-06-18T19:02:43Z</time>
      </trkpt>
      <trkpt lat="50.51166" lon="1.58775">
        <ele>11.5</ele>
        <time>2020-06-18T19:02:44Z</time>
      </trkpt>
      <trkpt lat="50.51173" lon="1.58771">
        <ele>11.6</ele>
        <time>2020-06-18T19:02:45Z</time>
      </trkpt>
      <trkpt lat="50.51179" lon="1.58765">
        <ele>11.8</ele>
        <time>2020-06-18T19:02:46Z</time>
      </trkpt>
      <trkpt lat="50.51185" lon="1.58759">
        <ele>11.9</ele>
        <time>2020-06-18T19:02:47Z</time>
      </trkpt>
      <trkpt lat="50.51192" lon="1.58754">
        <ele>12.1</ele>
        <time>2020-06-18T19:02:48Z</time>
      </trkpt>
      <trkpt lat="50.51198" lon="1.58749">
        <ele>12.3</ele>
        <time>2020-06-18T19:02:49Z</time>
      </trkpt>
      <trkpt lat="50.51205" lon="1.58745">
        <ele>12.4</ele>
        <time>2020-06-18T19:02:50Z</time>
      </trkpt>
      <trkpt lat="50.51211" lon="1.5874">
        <ele>12.5</ele>
        <time>2020-06-18T19:02:51Z</time>
      </trkpt>
      <trkpt lat="50.51216" lon="1.58734">
        <ele>12.6</ele>
        <time>2020-06-18T19:02:52Z</time>
      </trkpt>
      <trkpt lat="50.51223" lon="1.5873">
        <ele>12.7</ele>
        <time>2020-06-18T19:02:53Z</time>
      </trkpt>
      <trkpt lat="50.51229" lon="1.58727">
        <ele>12.8</ele>
        <time>2020-06-18T19:02:54Z</time>
      </trkpt>
      <trkpt lat="50.51236" lon="1.58725">
        <ele>13</ele>
        <time>2020-06-18T19:02:55Z</time>
      </trkpt>
      <trkpt lat="50.51243" lon="1.58722">
        <ele>13</ele>
        <time>2020-06-18T19:02:56Z</time>
      </trkpt>
      <trkpt lat="50.5125" lon="1.58718">
        <ele>13</ele>
        <time>2020-06-18T19:02:57Z</time>
      </trkpt>
      <trkpt lat="50.51257" lon="1.58717">
        <ele>13.1</ele>
        <time>2020-06-18T19:02:58Z</time>
      </trkpt>
      <trkpt lat="50.51264" lon="1.58714">
        <ele>13.1</ele>
        <time>2020-06-18T19:02:59Z</time>
      </trkpt>
      <trkpt lat="50.5127" lon="1.58713">
        <ele>13.1</ele>
        <time>2020-06-18T19:03:00Z</time>
      </trkpt>
      <trkpt lat="50.51278" lon="1.58713">
        <ele>13.1</ele>
        <time>2020-06-18T19:03:01Z</time>
      </trkpt>
      <trkpt lat="50.51285" lon="1.58713">
        <ele>13.2</ele>
        <time>2020-06-18T19:03:02Z</time>
      </trkpt>
      <trkpt lat="50.51292" lon="1.58713">
        <ele>13.2</ele>
        <time>2020-06-18T19:03:03Z</time>
      </trkpt>
      <trkpt lat="50.51298" lon="1.58712">
        <ele>13.2</ele>
        <time>2020-06-18T19:03:04Z</time>
      </trkpt>
      <trkpt lat="50.51306" lon="1.58712">
        <ele>13.3</ele>
        <time>2020-06-18T19:03:05Z</time>
      </trkpt>
      <trkpt lat="50.51313" lon="1.5871">
        <ele>13.3</ele>
        <time>2020-06-18T19:03:06Z</time>
      </trkpt>
      <trkpt lat="50.5132" lon="1.58708">
        <ele>13.3</ele>
        <time>2020-06-18T19:03:07Z</time>
      </trkpt>
      <trkpt lat="50.51327" lon="1.58706">
        <ele>13.2</ele>
        <time>2020-06-18T19:03:08Z</time>
      </trkpt>
      <trkpt lat="50.51335" lon="1.58704">
        <ele>13.1</ele>
        <time>2020-06-18T19:03:09Z</time>
      </trkpt>
      <trkpt lat="50.51342" lon="1.58702">
        <ele>13.1</ele>
        <time>2020-06-18T19:03:10Z</time>
      </trkpt>
      <trkpt lat="50.51349" lon="1.58698">
        <ele>13.2</ele>
        <time>2020-06-18T19:03:11Z</time>
      </trkpt>
      <trkpt lat="50.51357" lon="1.58697">
        <ele>13.3</ele>
        <time>2020-06-18T19:03:12Z</time>
      </trkpt>
      <trkpt lat="50.51365" lon="1.58696">
        <ele>13.3</ele>
        <time>2020-06-18T19:03:13Z</time>
      </trkpt>
      <trkpt lat="50.51372" lon="1.58694">
        <ele>13.2</ele>
        <time>2020-06-18T19:03:14Z</time>
      </trkpt>
      <trkpt lat="50.5138" lon="1.58692">
        <ele>13.1</ele>
        <time>2020-06-18T19:03:15Z</time>
      </trkpt>
      <trkpt lat="50.51388" lon="1.5869">
        <ele>13</ele>
        <time>2020-06-18T19:03:16Z</time>
      </trkpt>
      <trkpt lat="50.51397" lon="1.58689">
        <ele>12.9</ele>
        <time>2020-06-18T19:03:17Z</time>
      </trkpt>
      <trkpt lat="50.51406" lon="1.58688">
        <ele>12.8</ele>
        <time>2020-06-18T19:03:18Z</time>
      </trkpt>
      <trkpt lat="50.51415" lon="1.58687">
        <ele>12.7</ele>
        <time>2020-06-18T19:03:19Z</time>
      </trkpt>
      <trkpt lat="50.51423" lon="1.58684">
        <ele>12.6</ele>
        <time>2020-06-18T19:03:20Z</time>
      </trkpt>
      <trkpt lat="50.51431" lon="1.58682">
        <ele>12.6</ele>
        <time>2020-06-18T19:03:21Z</time>
      </trkpt>
      <trkpt lat="50.5144" lon="1.58679">
        <ele>12.5</ele>
        <time>2020-06-18T19:03:22Z</time>
      </trkpt>
      <trkpt lat="50.51448" lon="1.58677">
        <ele>12.4</ele>
        <time>2020-06-18T19:03:23Z</time>
      </trkpt>
      <trkpt lat="50.51457" lon="1.58676">
        <ele>12.3</ele>
        <time>2020-06-18T19:03:24Z</time>
      </trkpt>
      <trkpt lat="50.51465" lon="1.58674">
        <ele>12.2</ele>
        <time>2020-06-18T19:03:25Z</time>
      </trkpt>
      <trkpt lat="50.51473" lon="1.58672">
        <ele>12.2</ele>
        <time>2020-06-18T19:03:26Z</time>
      </trkpt>
      <trkpt lat="50.51481" lon="1.58671">
        <ele>12.1</ele>
        <time>2020-06-18T19:03:27Z</time>
      </trkpt>
      <trkpt lat="50.51489" lon="1.5867">
        <ele>12</ele>
        <time>2020-06-18T19:03:28Z</time>
      </trkpt>
      <trkpt lat="50.51497" lon="1.58666">
        <ele>12</ele>
        <time>2020-06-18T19:03:29Z</time>
      </trkpt>
      <trkpt lat="50.51505" lon="1.58662">
        <ele>11.9</ele>
        <time>2020-06-18T19:03:30Z</time>
      </trkpt>
      <trkpt lat="50.51514" lon="1.58657">
        <ele>11.8</ele>
        <time>2020-06-18T19:03:31Z</time>
      </trkpt>
      <trkpt lat="50.51521" lon="1.58652">
        <ele>11.7</ele>
        <time>2020-06-18T19:03:32Z</time>
      </trkpt>
      <trkpt lat="50.51529" lon="1.58648">
        <ele>11.6</ele>
        <time>2020-06-18T19:03:33Z</time>
      </trkpt>
      <trkpt lat="50.51538" lon="1.58644">
        <ele>11.6</ele>
        <time>2020-06-18T19:03:34Z</time>
      </trkpt>
      <trkpt lat="50.51546" lon="1.58638">
        <ele>11.5</ele>
        <time>2020-06-18T19:03:35Z</time>
      </trkpt>
      <trkpt lat="50.51553" lon="1.58632">
        <ele>11.5</ele>
        <time>2020-06-18T19:03:36Z</time>
      </trkpt>
      <trkpt lat="50.51561" lon="1.58625">
        <ele>11.5</ele>
        <time>2020-06-18T19:03:37Z</time>
      </trkpt>
      <trkpt lat="50.51569" lon="1.58619">
        <ele>11.5</ele>
        <time>2020-06-18T19:03:38Z</time>
      </trkpt>
      <trkpt lat="50.51576" lon="1.58613">
        <ele>11.5</ele>
        <time>2020-06-18T19:03:39Z</time>
      </trkpt>
      <trkpt lat="50.51584" lon="1.58607">
        <ele>11.5</ele>
        <time>2020-06-18T19:03:40Z</time>
      </trkpt>
      <trkpt lat="50.51591" lon="1.586">
        <ele>11.6</ele>
        <time>2020-06-18T19:03:41Z</time>
      </trkpt>
      <trkpt lat="50.51598" lon="1.58594">
        <ele>11.6</ele>
        <time>2020-06-18T19:03:42Z</time>
      </trkpt>
      <trkpt lat="50.51605" lon="1.58589">
        <ele>11.6</ele>
        <time>2020-06-18T19:03:43Z</time>
      </trkpt>
      <trkpt lat="50.51612" lon="1.58582">
        <ele>11.7</ele>
        <time>2020-06-18T19:03:44Z</time>
      </trkpt>
      <trkpt lat="50.51619" lon="1.58576">
        <ele>11.7</ele>
        <time>2020-06-18T19:03:45Z</time>
      </trkpt>
      <trkpt lat="50.51624" lon="1.58569">
        <ele>11.8</ele>
        <time>2020-06-18T19:03:46Z</time>
      </trkpt>
      <trkpt lat="50.5163" lon="1.58563">
        <ele>11.9</ele>
        <time>2020-06-18T19:03:47Z</time>
      </trkpt>
      <trkpt lat="50.51636" lon="1.58558">
        <ele>12</ele>
        <time>2020-06-18T19:03:48Z</time>
      </trkpt>
      <trkpt lat="50.51641" lon="1.58555">
        <ele>12.1</ele>
        <time>2020-06-18T19:03:49Z</time>
      </trkpt>
      <trkpt lat="50.51647" lon="1.58555">
        <ele>12.2</ele>
        <time>2020-06-18T19:03:50Z</time>
      </trkpt>
      <trkpt lat="50.51653" lon="1.58558">
        <ele>12.1</ele>
        <time>2020-06-18T19:03:51Z</time>
      </trkpt>
      <trkpt lat="50.5166" lon="1.58559">
        <ele>11.9</ele>
        <time>2020-06-18T19:03:52Z</time>
      </trkpt>
      <trkpt lat="50.51666" lon="1.58557">
        <ele>11.8</ele>
        <time>2020-06-18T19:03:53Z</time>
      </trkpt>
      <trkpt lat="50.5167" lon="1.5855">
        <ele>11.7</ele>
        <time>2020-06-18T19:03:54Z</time>
      </trkpt>
      <trkpt lat="50.51672" lon="1.58541">
        <ele>11.7</ele>
        <time>2020-06-18T19:03:55Z</time>
      </trkpt>
      <trkpt lat="50.51673" lon="1.58533">
        <ele>11.8</ele>
        <time>2020-06-18T19:03:56Z</time>
      </trkpt>
      <trkpt lat="50.51671" lon="1.58525">
        <ele>11.8</ele>
        <time>2020-06-18T19:03:57Z</time>
      </trkpt>
      <trkpt lat="50.51669" lon="1.58518">
        <ele>11.9</ele>
        <time>2020-06-18T19:03:58Z</time>
      </trkpt>
      <trkpt lat="50.51666" lon="1.5851">
        <ele>11.9</ele>
        <time>2020-06-18T19:03:59Z</time>
      </trkpt>
      <trkpt lat="50.51665" lon="1.58502">
        <ele>12</ele>
        <time>2020-06-18T19:04:00Z</time>
      </trkpt>
      <trkpt lat="50.51664" lon="1.58494">
        <ele>12</ele>
        <time>2020-06-18T19:04:01Z</time>
      </trkpt>
      <trkpt lat="50.51664" lon="1.58485">
        <ele>12</ele>
        <time>2020-06-18T19:04:02Z</time>
      </trkpt>
      <trkpt lat="50.51664" lon="1.58477">
        <ele>12</ele>
        <time>2020-06-18T19:04:03Z</time>
      </trkpt>
      <trkpt lat="50.51664" lon="1.5847">
        <ele>12</ele>
        <time>2020-06-18T19:04:04Z</time>
      </trkpt>
      <trkpt lat="50.51664" lon="1.58463">
        <ele>12.1</ele>
        <time>2020-06-18T19:04:05Z</time>
      </trkpt>
      <trkpt lat="50.51664" lon="1.58456">
        <ele>12.1</ele>
        <time>2020-06-18T19:04:06Z</time>
      </trkpt>
      <trkpt lat="50.51664" lon="1.58449">
        <ele>12.1</ele>
        <time>2020-06-18T19:04:07Z</time>
      </trkpt>
      <trkpt lat="50.51666" lon="1.58444">
        <ele>12.1</ele>
        <time>2020-06-18T19:04:08Z</time>
      </trkpt>
      <trkpt lat="50.51668" lon="1.58441">
        <ele>12.2</ele>
        <time>2020-06-18T19:04:09Z</time>
      </trkpt>
      <trkpt lat="50.51669" lon="1.5844">
        <ele>12.2</ele>
        <time>2020-06-18T19:04:10Z</time>
      </trkpt>
      <trkpt lat="50.51671" lon="1.58439">
        <ele>12.2</ele>
        <time>2020-06-18T19:04:11Z</time>
      </trkpt>
      <trkpt lat="50.51672" lon="1.5844">
        <ele>12.2</ele>
        <time>2020-06-18T19:04:12Z</time>
      </trkpt>
      <trkpt lat="50.51674" lon="1.58441">
        <ele>12.2</ele>
        <time>2020-06-18T19:04:13Z</time>
      </trkpt>
      <trkpt lat="50.51674" lon="1.58442">
        <ele>12.2</ele>
        <time>2020-06-18T19:04:14Z</time>
      </trkpt>
      <trkpt lat="50.51675" lon="1.58443">
        <ele>12.2</ele>
        <time>2020-06-18T19:04:15Z</time>
      </trkpt>
      <trkpt lat="50.51676" lon="1.58443">
        <ele>12.3</ele>
        <time>2020-06-18T19:04:16Z</time>
      </trkpt>
      <trkpt lat="50.51677" lon="1.58442">
        <ele>12.3</ele>
        <time>2020-06-18T19:04:17Z</time>
      </trkpt>
      <trkpt lat="50.51677" lon="1.58443">
        <ele>12.3</ele>
        <time>2020-06-18T19:04:18Z</time>
      </trkpt>
      <trkpt lat="50.51677" lon="1.58443">
        <ele>12.3</ele>
        <time>2020-06-18T19:04:19Z</time>
      </trkpt>
      <trkpt lat="50.51677" lon="1.58443">
        <ele>12.3</ele>
        <time>2020-06-18T19:04:20Z</time>
      </trkpt>
      <trkpt lat="50.51677" lon="1.58443">
        <ele>12.3</ele>
        <time>2020-06-18T19:04:21Z</time>
      </trkpt>
      <trkpt lat="50.51677" lon="1.58443">
        <ele>12.3</ele>
        <time>2020-06-18T19:04:22Z</time>
      </trkpt>
      <trkpt lat="50.51677" lon="1.58442">
        <ele>12.3</ele>
        <time>2020-06-18T19:04:23Z</time>
      </trkpt>
      <trkpt lat="50.51677" lon="1.58442">
        <ele>12.3</ele>
        <time>2020-06-18T19:04:24Z</time>
      </trkpt>
      <trkpt lat="50.51677" lon="1.58442">
        <ele>12.3</ele>
        <time>2020-06-18T19:04:25Z</time>
      </trkpt>
      <trkpt lat="50.51677" lon="1.58442">
        <ele>12.3</ele>
        <time>2020-06-18T19:04:26Z</time>
      </trkpt>
      <trkpt lat="50.51678" lon="1.58443">
        <ele>12.3</ele>
        <time>2020-06-18T19:04:27Z</time>
      </trkpt>
    </trkseg>
  </trk>
</gpx>